<?xml version="1.0" encoding="UTF-8"?>
<gpx xmlns:xsi="http://www.w3.org/2001/XMLSchema-instance" xmlns="http://www.topografix.com/GPX/1/0" version="1.0" xsi:schemaLocation="http://www.topografix.com/GPX/1/0 http://www.topografix.com/GPX/1/0/gpx.xsd" creator="gpx.py -- https://github.com/tkrajina/gpxpy">
<name>汕头-拉萨。过昆明到大理</name>
<desc>行者骑行软件</desc>
<author>行者骑行软件</author>
<url>http://www.imxingzhe.com</url>
<urlname>行者骑行软件</urlname>
<time>2016-07-14T14:19:31Z</time>
<keywords>行者骑行软件</keywords>
<distance>4544285</distance>
<trk>
<name>行者骑行软件</name>
<desc/>
<trkseg>
<trkpt lat="23.405086" lon="116.695728">
<time>2016-10-06T07:27:28Z</time></trkpt>
<trkpt lat="23.404706" lon="116.695688">
<time>2016-10-06T07:27:29Z</time></trkpt>
<trkpt lat="23.404496" lon="116.695649">
<time>2016-10-06T07:27:30Z</time></trkpt>
<trkpt lat="23.404336" lon="116.695609">
<time>2016-10-06T07:27:31Z</time></trkpt>
<trkpt lat="23.404176" lon="116.695559">
<time>2016-10-06T07:27:32Z</time></trkpt>
<trkpt lat="23.403926" lon="116.695459">
<time>2016-10-06T07:27:33Z</time></trkpt>
<trkpt lat="23.403457" lon="116.695249">
<time>2016-10-06T07:27:34Z</time></trkpt>
<trkpt lat="23.402008" lon="116.694621">
<time>2016-10-06T07:27:35Z</time></trkpt>
<trkpt lat="23.401888" lon="116.694561">
<time>2016-10-06T07:27:36Z</time></trkpt>
<trkpt lat="23.401638" lon="116.694451">
<time>2016-10-06T07:27:37Z</time></trkpt>
<trkpt lat="23.401109" lon="116.694212">
<time>2016-10-06T07:27:38Z</time></trkpt>
<trkpt lat="23.400999" lon="116.694162">
<time>2016-10-06T07:27:39Z</time></trkpt>
<trkpt lat="23.4001" lon="116.693773">
<time>2016-10-06T07:27:40Z</time></trkpt>
<trkpt lat="23.39943" lon="116.693473">
<time>2016-10-06T07:27:41Z</time></trkpt>
<trkpt lat="23.398781" lon="116.693194">
<time>2016-10-06T07:27:42Z</time></trkpt>
<trkpt lat="23.397942" lon="116.692845">
<time>2016-10-06T07:27:43Z</time></trkpt>
<trkpt lat="23.397582" lon="116.692715">
<time>2016-10-06T07:27:44Z</time></trkpt>
<trkpt lat="23.396783" lon="116.692416">
<time>2016-10-06T07:27:45Z</time></trkpt>
<trkpt lat="23.396273" lon="116.692226">
<time>2016-10-06T07:27:46Z</time></trkpt>
<trkpt lat="23.395993" lon="116.692097">
<time>2016-10-06T07:27:47Z</time></trkpt>
<trkpt lat="23.395834" lon="116.692007">
<time>2016-10-06T07:27:48Z</time></trkpt>
<trkpt lat="23.395604" lon="116.691867">
<time>2016-10-06T07:27:49Z</time></trkpt>
<trkpt lat="23.394825" lon="116.691368">
<time>2016-10-06T07:27:50Z</time></trkpt>
<trkpt lat="23.393726" lon="116.69066">
<time>2016-10-06T07:27:51Z</time></trkpt>
<trkpt lat="23.392997" lon="116.690181">
<time>2016-10-06T07:27:52Z</time></trkpt>
<trkpt lat="23.392707" lon="116.690011">
<time>2016-10-06T07:27:53Z</time></trkpt>
<trkpt lat="23.392058" lon="116.689602">
<time>2016-10-06T07:27:54Z</time></trkpt>
<trkpt lat="23.39073" lon="116.688724">
<time>2016-10-06T07:27:55Z</time></trkpt>
<trkpt lat="23.389522" lon="116.687956">
<time>2016-10-06T07:27:56Z</time></trkpt>
<trkpt lat="23.388443" lon="116.687347">
<time>2016-10-06T07:27:57Z</time></trkpt>
<trkpt lat="23.387104" lon="116.686569">
<time>2016-10-06T07:27:58Z</time></trkpt>
<trkpt lat="23.386885" lon="116.68644">
<time>2016-10-06T07:27:59Z</time></trkpt>
<trkpt lat="23.386705" lon="116.68636">
<time>2016-10-06T07:28:00Z</time></trkpt>
<trkpt lat="23.386645" lon="116.68633">
<time>2016-10-06T07:28:01Z</time></trkpt>
<trkpt lat="23.386565" lon="116.6863">
<time>2016-10-06T07:28:02Z</time></trkpt>
<trkpt lat="23.386205" lon="116.68619">
<time>2016-10-06T07:28:03Z</time></trkpt>
<trkpt lat="23.386115" lon="116.68617">
<time>2016-10-06T07:28:04Z</time></trkpt>
<trkpt lat="23.385975" lon="116.68614">
<time>2016-10-06T07:28:05Z</time></trkpt>
<trkpt lat="23.385865" lon="116.68611">
<time>2016-10-06T07:28:06Z</time></trkpt>
<trkpt lat="23.384866" lon="116.685891">
<time>2016-10-06T07:28:07Z</time></trkpt>
<trkpt lat="23.384046" lon="116.685731">
<time>2016-10-06T07:28:08Z</time></trkpt>
<trkpt lat="23.383357" lon="116.685592">
<time>2016-10-06T07:28:09Z</time></trkpt>
<trkpt lat="23.382837" lon="116.685502">
<time>2016-10-06T07:28:10Z</time></trkpt>
<trkpt lat="23.382557" lon="116.685452">
<time>2016-10-06T07:28:11Z</time></trkpt>
<trkpt lat="23.381068" lon="116.685193">
<time>2016-10-06T07:28:12Z</time></trkpt>
<trkpt lat="23.380278" lon="116.685053">
<time>2016-10-06T07:28:13Z</time></trkpt>
<trkpt lat="23.379569" lon="116.684884">
<time>2016-10-06T07:28:14Z</time></trkpt>
<trkpt lat="23.378879" lon="116.684724">
<time>2016-10-06T07:28:15Z</time></trkpt>
<trkpt lat="23.37789" lon="116.684574">
<time>2016-10-06T07:28:16Z</time></trkpt>
<trkpt lat="23.3776" lon="116.684515">
<time>2016-10-06T07:28:17Z</time></trkpt>
<trkpt lat="23.37751" lon="116.684495">
<time>2016-10-06T07:28:18Z</time></trkpt>
<trkpt lat="23.37732" lon="116.684425">
<time>2016-10-06T07:28:19Z</time></trkpt>
<trkpt lat="23.37714" lon="116.684345">
<time>2016-10-06T07:28:20Z</time></trkpt>
<trkpt lat="23.375142" lon="116.683427">
<time>2016-10-06T07:28:21Z</time></trkpt>
<trkpt lat="23.374063" lon="116.682928">
<time>2016-10-06T07:28:22Z</time></trkpt>
<trkpt lat="23.372705" lon="116.68228">
<time>2016-10-06T07:28:23Z</time></trkpt>
<trkpt lat="23.371486" lon="116.681721">
<time>2016-10-06T07:28:24Z</time></trkpt>
<trkpt lat="23.369748" lon="116.680953">
<time>2016-10-06T07:28:25Z</time></trkpt>
<trkpt lat="23.369748" lon="116.680953">
<time>2016-10-06T07:28:26Z</time></trkpt>
<trkpt lat="23.369648" lon="116.680843">
<time>2016-10-06T07:28:27Z</time></trkpt>
<trkpt lat="23.369139" lon="116.680624">
<time>2016-10-06T07:28:28Z</time></trkpt>
<trkpt lat="23.369139" lon="116.680624">
<time>2016-10-06T07:28:29Z</time></trkpt>
<trkpt lat="23.369139" lon="116.680504">
<time>2016-10-06T07:28:30Z</time></trkpt>
<trkpt lat="23.369139" lon="116.680385">
<time>2016-10-06T07:28:31Z</time></trkpt>
<trkpt lat="23.369119" lon="116.680195">
<time>2016-10-06T07:28:32Z</time></trkpt>
<trkpt lat="23.369131" lon="116.679207">
<time>2016-10-06T07:28:33Z</time></trkpt>
<trkpt lat="23.369154" lon="116.67793">
<time>2016-10-06T07:28:34Z</time></trkpt>
<trkpt lat="23.369175" lon="116.677072">
<time>2016-10-06T07:28:35Z</time></trkpt>
<trkpt lat="23.369176" lon="116.676783">
<time>2016-10-06T07:28:36Z</time></trkpt>
<trkpt lat="23.369116" lon="116.676683">
<time>2016-10-06T07:28:37Z</time></trkpt>
<trkpt lat="23.369016" lon="116.676494">
<time>2016-10-06T07:28:38Z</time></trkpt>
<trkpt lat="23.369016" lon="116.676494">
<time>2016-10-06T07:28:39Z</time></trkpt>
<trkpt lat="23.368977" lon="116.676424">
<time>2016-10-06T07:28:40Z</time></trkpt>
<trkpt lat="23.368977" lon="116.676424">
<time>2016-10-06T07:28:41Z</time></trkpt>
<trkpt lat="23.368857" lon="116.676274">
<time>2016-10-06T07:28:42Z</time></trkpt>
<trkpt lat="23.368558" lon="116.675865">
<time>2016-10-06T07:28:43Z</time></trkpt>
<trkpt lat="23.368328" lon="116.675566">
<time>2016-10-06T07:28:44Z</time></trkpt>
<trkpt lat="23.368149" lon="116.675386">
<time>2016-10-06T07:28:45Z</time></trkpt>
<trkpt lat="23.368029" lon="116.675267">
<time>2016-10-06T07:28:46Z</time></trkpt>
<trkpt lat="23.367829" lon="116.675067">
<time>2016-10-06T07:28:47Z</time></trkpt>
<trkpt lat="23.36743" lon="116.674678">
<time>2016-10-06T07:28:48Z</time></trkpt>
<trkpt lat="23.36737" lon="116.674628">
<time>2016-10-06T07:28:49Z</time></trkpt>
<trkpt lat="23.367211" lon="116.674479">
<time>2016-10-06T07:28:50Z</time></trkpt>
<trkpt lat="23.366012" lon="116.673651">
<time>2016-10-06T07:28:51Z</time></trkpt>
<trkpt lat="23.365773" lon="116.673481">
<time>2016-10-06T07:28:52Z</time></trkpt>
<trkpt lat="23.365234" lon="116.673102">
<time>2016-10-06T07:28:53Z</time></trkpt>
<trkpt lat="23.365044" lon="116.672952">
<time>2016-10-06T07:28:54Z</time></trkpt>
<trkpt lat="23.364784" lon="116.672793">
<time>2016-10-06T07:28:55Z</time></trkpt>
<trkpt lat="23.364784" lon="116.672793">
<time>2016-10-06T07:28:56Z</time></trkpt>
<trkpt lat="23.364654" lon="116.672753">
<time>2016-10-06T07:28:57Z</time></trkpt>
<trkpt lat="23.364514" lon="116.672753">
<time>2016-10-06T07:28:58Z</time></trkpt>
<trkpt lat="23.364084" lon="116.672763">
<time>2016-10-06T07:28:59Z</time></trkpt>
<trkpt lat="23.364084" lon="116.672763">
<time>2016-10-06T07:29:00Z</time></trkpt>
<trkpt lat="23.364045" lon="116.672593">
<time>2016-10-06T07:29:01Z</time></trkpt>
<trkpt lat="23.364035" lon="116.672533">
<time>2016-10-06T07:29:02Z</time></trkpt>
<trkpt lat="23.364025" lon="116.672483">
<time>2016-10-06T07:29:03Z</time></trkpt>
<trkpt lat="23.364015" lon="116.672463">
<time>2016-10-06T07:29:04Z</time></trkpt>
<trkpt lat="23.363965" lon="116.672354">
<time>2016-10-06T07:29:05Z</time></trkpt>
<trkpt lat="23.363338" lon="116.671216">
<time>2016-10-06T07:29:06Z</time></trkpt>
<trkpt lat="23.363059" lon="116.670708">
<time>2016-10-06T07:29:07Z</time></trkpt>
<trkpt lat="23.36272" lon="116.670079">
<time>2016-10-06T07:29:08Z</time></trkpt>
<trkpt lat="23.361823" lon="116.668423">
<time>2016-10-06T07:29:09Z</time></trkpt>
<trkpt lat="23.361783" lon="116.668363">
<time>2016-10-06T07:29:10Z</time></trkpt>
<trkpt lat="23.361724" lon="116.668244">
<time>2016-10-06T07:29:11Z</time></trkpt>
<trkpt lat="23.361684" lon="116.668154">
<time>2016-10-06T07:29:12Z</time></trkpt>
<trkpt lat="23.361604" lon="116.667994">
<time>2016-10-06T07:29:13Z</time></trkpt>
<trkpt lat="23.361046" lon="116.666997">
<time>2016-10-06T07:29:14Z</time></trkpt>
<trkpt lat="23.360349" lon="116.66575">
<time>2016-10-06T07:29:15Z</time></trkpt>
<trkpt lat="23.360349" lon="116.66575">
<time>2016-10-06T07:29:16Z</time></trkpt>
<trkpt lat="23.360289" lon="116.66564">
<time>2016-10-06T07:29:17Z</time></trkpt>
<trkpt lat="23.360229" lon="116.66553">
<time>2016-10-06T07:29:18Z</time></trkpt>
<trkpt lat="23.360199" lon="116.66548">
<time>2016-10-06T07:29:19Z</time></trkpt>
<trkpt lat="23.35994" lon="116.665031">
<time>2016-10-06T07:29:20Z</time></trkpt>
<trkpt lat="23.359691" lon="116.664622">
<time>2016-10-06T07:29:21Z</time></trkpt>
<trkpt lat="23.359561" lon="116.664473">
<time>2016-10-06T07:29:22Z</time></trkpt>
<trkpt lat="23.359501" lon="116.664433">
<time>2016-10-06T07:29:23Z</time></trkpt>
<trkpt lat="23.359461" lon="116.664403">
<time>2016-10-06T07:29:24Z</time></trkpt>
<trkpt lat="23.359431" lon="116.664383">
<time>2016-10-06T07:29:25Z</time></trkpt>
<trkpt lat="23.359401" lon="116.664373">
<time>2016-10-06T07:29:26Z</time></trkpt>
<trkpt lat="23.359352" lon="116.664363">
<time>2016-10-06T07:29:27Z</time></trkpt>
<trkpt lat="23.359292" lon="116.664353">
<time>2016-10-06T07:29:28Z</time></trkpt>
<trkpt lat="23.359272" lon="116.664353">
<time>2016-10-06T07:29:29Z</time></trkpt>
<trkpt lat="23.359192" lon="116.664343">
<time>2016-10-06T07:29:30Z</time></trkpt>
<trkpt lat="23.359102" lon="116.664343">
<time>2016-10-06T07:29:31Z</time></trkpt>
<trkpt lat="23.359002" lon="116.664323">
<time>2016-10-06T07:29:32Z</time></trkpt>
<trkpt lat="23.359002" lon="116.664323">
<time>2016-10-06T07:29:33Z</time></trkpt>
<trkpt lat="23.358802" lon="116.664014">
<time>2016-10-06T07:29:34Z</time></trkpt>
<trkpt lat="23.358473" lon="116.663485">
<time>2016-10-06T07:29:35Z</time></trkpt>
<trkpt lat="23.357905" lon="116.662567">
<time>2016-10-06T07:29:36Z</time></trkpt>
<trkpt lat="23.357835" lon="116.662458">
<time>2016-10-06T07:29:37Z</time></trkpt>
<trkpt lat="23.357835" lon="116.662458">
<time>2016-10-06T07:29:38Z</time></trkpt>
<trkpt lat="23.357646" lon="116.662168">
<time>2016-10-06T07:29:39Z</time></trkpt>
<trkpt lat="23.357447" lon="116.661869">
<time>2016-10-06T07:29:40Z</time></trkpt>
<trkpt lat="23.357267" lon="116.66161">
<time>2016-10-06T07:29:41Z</time></trkpt>
<trkpt lat="23.357048" lon="116.66134">
<time>2016-10-06T07:29:42Z</time></trkpt>
<trkpt lat="23.356878" lon="116.661161">
<time>2016-10-06T07:29:43Z</time></trkpt>
<trkpt lat="23.356719" lon="116.660981">
<time>2016-10-06T07:29:44Z</time></trkpt>
<trkpt lat="23.356539" lon="116.660802">
<time>2016-10-06T07:29:45Z</time></trkpt>
<trkpt lat="23.356409" lon="116.660692">
<time>2016-10-06T07:29:46Z</time></trkpt>
<trkpt lat="23.356359" lon="116.660642">
<time>2016-10-06T07:29:47Z</time></trkpt>
<trkpt lat="23.35615" lon="116.660472">
<time>2016-10-06T07:29:48Z</time></trkpt>
<trkpt lat="23.35592" lon="116.660293">
<time>2016-10-06T07:29:49Z</time></trkpt>
<trkpt lat="23.35563" lon="116.660093">
<time>2016-10-06T07:29:50Z</time></trkpt>
<trkpt lat="23.355471" lon="116.660073">
<time>2016-10-06T07:29:51Z</time></trkpt>
<trkpt lat="23.355471" lon="116.660073">
<time>2016-10-06T07:29:52Z</time></trkpt>
<trkpt lat="23.355231" lon="116.659924">
<time>2016-10-06T07:29:53Z</time></trkpt>
<trkpt lat="23.354981" lon="116.659784">
<time>2016-10-06T07:29:54Z</time></trkpt>
<trkpt lat="23.354831" lon="116.659714">
<time>2016-10-06T07:29:55Z</time></trkpt>
<trkpt lat="23.354682" lon="116.659634">
<time>2016-10-06T07:29:56Z</time></trkpt>
<trkpt lat="23.354412" lon="116.659505">
<time>2016-10-06T07:29:57Z</time></trkpt>
<trkpt lat="23.354262" lon="116.659445">
<time>2016-10-06T07:29:58Z</time></trkpt>
<trkpt lat="23.354162" lon="116.659415">
<time>2016-10-06T07:29:59Z</time></trkpt>
<trkpt lat="23.354092" lon="116.659395">
<time>2016-10-06T07:30:00Z</time></trkpt>
<trkpt lat="23.354012" lon="116.659375">
<time>2016-10-06T07:30:01Z</time></trkpt>
<trkpt lat="23.353972" lon="116.659365">
<time>2016-10-06T07:30:02Z</time></trkpt>
<trkpt lat="23.353682" lon="116.659305">
<time>2016-10-06T07:30:03Z</time></trkpt>
<trkpt lat="23.353323" lon="116.659225">
<time>2016-10-06T07:30:04Z</time></trkpt>
<trkpt lat="23.353103" lon="116.659195">
<time>2016-10-06T07:30:05Z</time></trkpt>
<trkpt lat="23.352913" lon="116.659166">
<time>2016-10-06T07:30:06Z</time></trkpt>
<trkpt lat="23.352603" lon="116.659136">
<time>2016-10-06T07:30:07Z</time></trkpt>
<trkpt lat="23.352343" lon="116.659126">
<time>2016-10-06T07:30:08Z</time></trkpt>
<trkpt lat="23.352233" lon="116.659126">
<time>2016-10-06T07:30:09Z</time></trkpt>
<trkpt lat="23.352183" lon="116.659126">
<time>2016-10-06T07:30:10Z</time></trkpt>
<trkpt lat="23.351853" lon="116.659136">
<time>2016-10-06T07:30:11Z</time></trkpt>
<trkpt lat="23.351403" lon="116.659176">
<time>2016-10-06T07:30:12Z</time></trkpt>
<trkpt lat="23.351163" lon="116.659196">
<time>2016-10-06T07:30:13Z</time></trkpt>
<trkpt lat="23.350623" lon="116.659256">
<time>2016-10-06T07:30:14Z</time></trkpt>
<trkpt lat="23.348923" lon="116.659435">
<time>2016-10-06T07:30:15Z</time></trkpt>
<trkpt lat="23.348003" lon="116.659535">
<time>2016-10-06T07:30:16Z</time></trkpt>
<trkpt lat="23.345373" lon="116.659805">
<time>2016-10-06T07:30:17Z</time></trkpt>
<trkpt lat="23.344063" lon="116.659934">
<time>2016-10-06T07:30:18Z</time></trkpt>
<trkpt lat="23.342483" lon="116.660094">
<time>2016-10-06T07:30:19Z</time></trkpt>
<trkpt lat="23.340673" lon="116.660284">
<time>2016-10-06T07:30:20Z</time></trkpt>
<trkpt lat="23.339454" lon="116.660414">
<time>2016-10-06T07:30:21Z</time></trkpt>
<trkpt lat="23.338024" lon="116.660553">
<time>2016-10-06T07:30:22Z</time></trkpt>
<trkpt lat="23.335204" lon="116.660853">
<time>2016-10-06T07:30:23Z</time></trkpt>
<trkpt lat="23.333504" lon="116.661022">
<time>2016-10-06T07:30:24Z</time></trkpt>
<trkpt lat="23.333414" lon="116.661022">
<time>2016-10-06T07:30:25Z</time></trkpt>
<trkpt lat="23.333324" lon="116.661022">
<time>2016-10-06T07:30:26Z</time></trkpt>
<trkpt lat="23.333214" lon="116.661022">
<time>2016-10-06T07:30:27Z</time></trkpt>
<trkpt lat="23.333124" lon="116.661003">
<time>2016-10-06T07:30:28Z</time></trkpt>
<trkpt lat="23.332844" lon="116.660973">
<time>2016-10-06T07:30:29Z</time></trkpt>
<trkpt lat="23.332764" lon="116.660963">
<time>2016-10-06T07:30:30Z</time></trkpt>
<trkpt lat="23.332664" lon="116.660953">
<time>2016-10-06T07:30:31Z</time></trkpt>
<trkpt lat="23.332584" lon="116.660953">
<time>2016-10-06T07:30:32Z</time></trkpt>
<trkpt lat="23.332504" lon="116.660963">
<time>2016-10-06T07:30:33Z</time></trkpt>
<trkpt lat="23.332404" lon="116.660973">
<time>2016-10-06T07:30:34Z</time></trkpt>
<trkpt lat="23.332124" lon="116.661003">
<time>2016-10-06T07:30:35Z</time></trkpt>
<trkpt lat="23.332014" lon="116.661023">
<time>2016-10-06T07:30:36Z</time></trkpt>
<trkpt lat="23.331824" lon="116.661062">
<time>2016-10-06T07:30:37Z</time></trkpt>
<trkpt lat="23.331564" lon="116.661142">
<time>2016-10-06T07:30:38Z</time></trkpt>
<trkpt lat="23.331564" lon="116.661142">
<time>2016-10-06T07:30:39Z</time></trkpt>
<trkpt lat="23.331464" lon="116.661172">
<time>2016-10-06T07:30:40Z</time></trkpt>
<trkpt lat="23.331374" lon="116.661202">
<time>2016-10-06T07:30:41Z</time></trkpt>
<trkpt lat="23.331294" lon="116.661222">
<time>2016-10-06T07:30:42Z</time></trkpt>
<trkpt lat="23.331104" lon="116.661262">
<time>2016-10-06T07:30:43Z</time></trkpt>
<trkpt lat="23.330934" lon="116.661292">
<time>2016-10-06T07:30:44Z</time></trkpt>
<trkpt lat="23.330844" lon="116.661302">
<time>2016-10-06T07:30:45Z</time></trkpt>
<trkpt lat="23.330754" lon="116.661312">
<time>2016-10-06T07:30:46Z</time></trkpt>
<trkpt lat="23.330664" lon="116.661312">
<time>2016-10-06T07:30:47Z</time></trkpt>
<trkpt lat="23.330574" lon="116.661312">
<time>2016-10-06T07:30:48Z</time></trkpt>
<trkpt lat="23.330484" lon="116.661312">
<time>2016-10-06T07:30:49Z</time></trkpt>
<trkpt lat="23.330394" lon="116.661302">
<time>2016-10-06T07:30:50Z</time></trkpt>
<trkpt lat="23.330304" lon="116.661292">
<time>2016-10-06T07:30:51Z</time></trkpt>
<trkpt lat="23.330214" lon="116.661272">
<time>2016-10-06T07:30:52Z</time></trkpt>
<trkpt lat="23.330124" lon="116.661252">
<time>2016-10-06T07:30:53Z</time></trkpt>
<trkpt lat="23.330034" lon="116.661232">
<time>2016-10-06T07:30:54Z</time></trkpt>
<trkpt lat="23.329954" lon="116.661202">
<time>2016-10-06T07:30:55Z</time></trkpt>
<trkpt lat="23.329874" lon="116.661162">
<time>2016-10-06T07:30:56Z</time></trkpt>
<trkpt lat="23.329785" lon="116.661122">
<time>2016-10-06T07:30:57Z</time></trkpt>
<trkpt lat="23.329705" lon="116.661073">
<time>2016-10-06T07:30:58Z</time></trkpt>
<trkpt lat="23.329625" lon="116.661023">
<time>2016-10-06T07:30:59Z</time></trkpt>
<trkpt lat="23.329565" lon="116.660973">
<time>2016-10-06T07:31:00Z</time></trkpt>
<trkpt lat="23.329485" lon="116.660913">
<time>2016-10-06T07:31:01Z</time></trkpt>
<trkpt lat="23.329405" lon="116.660853">
<time>2016-10-06T07:31:02Z</time></trkpt>
<trkpt lat="23.329335" lon="116.660793">
<time>2016-10-06T07:31:03Z</time></trkpt>
<trkpt lat="23.329275" lon="116.660723">
<time>2016-10-06T07:31:04Z</time></trkpt>
<trkpt lat="23.329206" lon="116.660644">
<time>2016-10-06T07:31:05Z</time></trkpt>
<trkpt lat="23.329146" lon="116.660574">
<time>2016-10-06T07:31:06Z</time></trkpt>
<trkpt lat="23.329086" lon="116.660494">
<time>2016-10-06T07:31:07Z</time></trkpt>
<trkpt lat="23.329036" lon="116.660424">
<time>2016-10-06T07:31:08Z</time></trkpt>
<trkpt lat="23.328936" lon="116.660275">
<time>2016-10-06T07:31:09Z</time></trkpt>
<trkpt lat="23.328847" lon="116.660145">
<time>2016-10-06T07:31:10Z</time></trkpt>
<trkpt lat="23.32786" lon="116.658678">
<time>2016-10-06T07:31:11Z</time></trkpt>
<trkpt lat="23.32786" lon="116.658678">
<time>2016-10-06T07:31:12Z</time></trkpt>
<trkpt lat="23.327521" lon="116.65816">
<time>2016-10-06T07:31:13Z</time></trkpt>
<trkpt lat="23.327022" lon="116.657431">
<time>2016-10-06T07:31:14Z</time></trkpt>
<trkpt lat="23.326534" lon="116.656703">
<time>2016-10-06T07:31:15Z</time></trkpt>
<trkpt lat="23.326334" lon="116.656374">
<time>2016-10-06T07:31:16Z</time></trkpt>
<trkpt lat="23.326085" lon="116.655965">
<time>2016-10-06T07:31:17Z</time></trkpt>
<trkpt lat="23.325846" lon="116.655536">
<time>2016-10-06T07:31:18Z</time></trkpt>
<trkpt lat="23.325766" lon="116.655376">
<time>2016-10-06T07:31:19Z</time></trkpt>
<trkpt lat="23.325647" lon="116.655157">
<time>2016-10-06T07:31:20Z</time></trkpt>
<trkpt lat="23.323176" lon="116.650537">
<time>2016-10-06T07:31:21Z</time></trkpt>
<trkpt lat="23.322957" lon="116.650138">
<time>2016-10-06T07:31:22Z</time></trkpt>
<trkpt lat="23.322727" lon="116.649699">
<time>2016-10-06T07:31:23Z</time></trkpt>
<trkpt lat="23.322678" lon="116.649619">
<time>2016-10-06T07:31:24Z</time></trkpt>
<trkpt lat="23.322628" lon="116.649549">
<time>2016-10-06T07:31:25Z</time></trkpt>
<trkpt lat="23.322518" lon="116.64939">
<time>2016-10-06T07:31:26Z</time></trkpt>
<trkpt lat="23.322468" lon="116.64931">
<time>2016-10-06T07:31:27Z</time></trkpt>
<trkpt lat="23.322359" lon="116.64915">
<time>2016-10-06T07:31:28Z</time></trkpt>
<trkpt lat="23.322239" lon="116.649001">
<time>2016-10-06T07:31:29Z</time></trkpt>
<trkpt lat="23.322179" lon="116.648931">
<time>2016-10-06T07:31:30Z</time></trkpt>
<trkpt lat="23.322129" lon="116.648861">
<time>2016-10-06T07:31:31Z</time></trkpt>
<trkpt lat="23.322069" lon="116.648791">
<time>2016-10-06T07:31:32Z</time></trkpt>
<trkpt lat="23.321999" lon="116.648731">
<time>2016-10-06T07:31:33Z</time></trkpt>
<trkpt lat="23.321939" lon="116.648661">
<time>2016-10-06T07:31:34Z</time></trkpt>
<trkpt lat="23.3218" lon="116.648532">
<time>2016-10-06T07:31:35Z</time></trkpt>
<trkpt lat="23.32173" lon="116.648472">
<time>2016-10-06T07:31:36Z</time></trkpt>
<trkpt lat="23.32166" lon="116.648412">
<time>2016-10-06T07:31:37Z</time></trkpt>
<trkpt lat="23.32158" lon="116.648342">
<time>2016-10-06T07:31:38Z</time></trkpt>
<trkpt lat="23.32144" lon="116.648232">
<time>2016-10-06T07:31:39Z</time></trkpt>
<trkpt lat="23.321291" lon="116.648123">
<time>2016-10-06T07:31:40Z</time></trkpt>
<trkpt lat="23.321141" lon="116.648023">
<time>2016-10-06T07:31:41Z</time></trkpt>
<trkpt lat="23.320711" lon="116.647743">
<time>2016-10-06T07:31:42Z</time></trkpt>
<trkpt lat="23.320691" lon="116.647734">
<time>2016-10-06T07:31:43Z</time></trkpt>
<trkpt lat="23.319273" lon="116.646806">
<time>2016-10-06T07:31:44Z</time></trkpt>
<trkpt lat="23.318844" lon="116.646526">
<time>2016-10-06T07:31:45Z</time></trkpt>
<trkpt lat="23.318654" lon="116.646407">
<time>2016-10-06T07:31:46Z</time></trkpt>
<trkpt lat="23.318455" lon="116.646307">
<time>2016-10-06T07:31:47Z</time></trkpt>
<trkpt lat="23.318115" lon="116.646147">
<time>2016-10-06T07:31:48Z</time></trkpt>
<trkpt lat="23.317915" lon="116.646057">
<time>2016-10-06T07:31:49Z</time></trkpt>
<trkpt lat="23.317835" lon="116.646007">
<time>2016-10-06T07:31:50Z</time></trkpt>
<trkpt lat="23.314909" lon="116.644092">
<time>2016-10-06T07:31:51Z</time></trkpt>
<trkpt lat="23.314839" lon="116.644042">
<time>2016-10-06T07:31:52Z</time></trkpt>
<trkpt lat="23.314769" lon="116.643982">
<time>2016-10-06T07:31:53Z</time></trkpt>
<trkpt lat="23.3147" lon="116.643922">
<time>2016-10-06T07:31:54Z</time></trkpt>
<trkpt lat="23.31463" lon="116.643862">
<time>2016-10-06T07:31:55Z</time></trkpt>
<trkpt lat="23.31457" lon="116.643802">
<time>2016-10-06T07:31:56Z</time></trkpt>
<trkpt lat="23.31452" lon="116.643732">
<time>2016-10-06T07:31:57Z</time></trkpt>
<trkpt lat="23.31448" lon="116.643683">
<time>2016-10-06T07:31:58Z</time></trkpt>
<trkpt lat="23.31445" lon="116.643633">
<time>2016-10-06T07:31:59Z</time></trkpt>
<trkpt lat="23.31441" lon="116.643563">
<time>2016-10-06T07:32:00Z</time></trkpt>
<trkpt lat="23.314271" lon="116.643313">
<time>2016-10-06T07:32:01Z</time></trkpt>
<trkpt lat="23.314161" lon="116.643134">
<time>2016-10-06T07:32:02Z</time></trkpt>
<trkpt lat="23.314121" lon="116.643054">
<time>2016-10-06T07:32:03Z</time></trkpt>
<trkpt lat="23.314032" lon="116.642884">
<time>2016-10-06T07:32:04Z</time></trkpt>
<trkpt lat="23.313992" lon="116.642804">
<time>2016-10-06T07:32:05Z</time></trkpt>
<trkpt lat="23.313952" lon="116.642725">
<time>2016-10-06T07:32:06Z</time></trkpt>
<trkpt lat="23.313902" lon="116.642585">
<time>2016-10-06T07:32:07Z</time></trkpt>
<trkpt lat="23.313882" lon="116.642465">
<time>2016-10-06T07:32:08Z</time></trkpt>
<trkpt lat="23.313833" lon="116.642256">
<time>2016-10-06T07:32:09Z</time></trkpt>
<trkpt lat="23.313833" lon="116.642186">
<time>2016-10-06T07:32:10Z</time></trkpt>
<trkpt lat="23.313813" lon="116.642056">
<time>2016-10-06T07:32:11Z</time></trkpt>
<trkpt lat="23.313793" lon="116.641846">
<time>2016-10-06T07:32:12Z</time></trkpt>
<trkpt lat="23.313774" lon="116.641637">
<time>2016-10-06T07:32:13Z</time></trkpt>
<trkpt lat="23.313774" lon="116.641537">
<time>2016-10-06T07:32:14Z</time></trkpt>
<trkpt lat="23.313764" lon="116.641437">
<time>2016-10-06T07:32:15Z</time></trkpt>
<trkpt lat="23.313764" lon="116.641337">
<time>2016-10-06T07:32:16Z</time></trkpt>
<trkpt lat="23.313774" lon="116.641238">
<time>2016-10-06T07:32:17Z</time></trkpt>
<trkpt lat="23.313774" lon="116.641138">
<time>2016-10-06T07:32:18Z</time></trkpt>
<trkpt lat="23.313785" lon="116.641048">
<time>2016-10-06T07:32:19Z</time></trkpt>
<trkpt lat="23.313805" lon="116.640948">
<time>2016-10-06T07:32:20Z</time></trkpt>
<trkpt lat="23.313815" lon="116.640848">
<time>2016-10-06T07:32:21Z</time></trkpt>
<trkpt lat="23.313835" lon="116.640749">
<time>2016-10-06T07:32:22Z</time></trkpt>
<trkpt lat="23.313855" lon="116.640659">
<time>2016-10-06T07:32:23Z</time></trkpt>
<trkpt lat="23.313875" lon="116.640559">
<time>2016-10-06T07:32:24Z</time></trkpt>
<trkpt lat="23.313906" lon="116.640469">
<time>2016-10-06T07:32:25Z</time></trkpt>
<trkpt lat="23.313936" lon="116.640379">
<time>2016-10-06T07:32:26Z</time></trkpt>
<trkpt lat="23.313966" lon="116.64029">
<time>2016-10-06T07:32:27Z</time></trkpt>
<trkpt lat="23.313976" lon="116.64025">
<time>2016-10-06T07:32:28Z</time></trkpt>
<trkpt lat="23.313996" lon="116.6402">
<time>2016-10-06T07:32:29Z</time></trkpt>
<trkpt lat="23.314036" lon="116.6401">
<time>2016-10-06T07:32:30Z</time></trkpt>
<trkpt lat="23.314076" lon="116.64001">
<time>2016-10-06T07:32:31Z</time></trkpt>
<trkpt lat="23.314156" lon="116.63984">
<time>2016-10-06T07:32:32Z</time></trkpt>
<trkpt lat="23.315049" lon="116.637914">
<time>2016-10-06T07:32:33Z</time></trkpt>
<trkpt lat="23.31517" lon="116.637645">
<time>2016-10-06T07:32:34Z</time></trkpt>
<trkpt lat="23.31524" lon="116.637475">
<time>2016-10-06T07:32:35Z</time></trkpt>
<trkpt lat="23.31528" lon="116.637375">
<time>2016-10-06T07:32:36Z</time></trkpt>
<trkpt lat="23.31531" lon="116.637285">
<time>2016-10-06T07:32:37Z</time></trkpt>
<trkpt lat="23.315371" lon="116.637106">
<time>2016-10-06T07:32:38Z</time></trkpt>
<trkpt lat="23.315391" lon="116.637006">
<time>2016-10-06T07:32:39Z</time></trkpt>
<trkpt lat="23.315421" lon="116.636916">
<time>2016-10-06T07:32:40Z</time></trkpt>
<trkpt lat="23.315431" lon="116.636876">
<time>2016-10-06T07:32:41Z</time></trkpt>
<trkpt lat="23.315441" lon="116.636816">
<time>2016-10-06T07:32:42Z</time></trkpt>
<trkpt lat="23.315461" lon="116.636717">
<time>2016-10-06T07:32:43Z</time></trkpt>
<trkpt lat="23.315481" lon="116.636627">
<time>2016-10-06T07:32:44Z</time></trkpt>
<trkpt lat="23.315502" lon="116.636427">
<time>2016-10-06T07:32:45Z</time></trkpt>
<trkpt lat="23.315522" lon="116.636327">
<time>2016-10-06T07:32:46Z</time></trkpt>
<trkpt lat="23.315522" lon="116.636237">
<time>2016-10-06T07:32:47Z</time></trkpt>
<trkpt lat="23.315532" lon="116.636138">
<time>2016-10-06T07:32:48Z</time></trkpt>
<trkpt lat="23.315532" lon="116.636038">
<time>2016-10-06T07:32:49Z</time></trkpt>
<trkpt lat="23.315542" lon="116.635938">
<time>2016-10-06T07:32:50Z</time></trkpt>
<trkpt lat="23.315542" lon="116.635838">
<time>2016-10-06T07:32:51Z</time></trkpt>
<trkpt lat="23.315533" lon="116.635738">
<time>2016-10-06T07:32:52Z</time></trkpt>
<trkpt lat="23.315533" lon="116.635639">
<time>2016-10-06T07:32:53Z</time></trkpt>
<trkpt lat="23.315523" lon="116.635539">
<time>2016-10-06T07:32:54Z</time></trkpt>
<trkpt lat="23.315513" lon="116.635449">
<time>2016-10-06T07:32:55Z</time></trkpt>
<trkpt lat="23.315503" lon="116.635359">
<time>2016-10-06T07:32:56Z</time></trkpt>
<trkpt lat="23.315493" lon="116.635249">
<time>2016-10-06T07:32:57Z</time></trkpt>
<trkpt lat="23.315483" lon="116.63515">
<time>2016-10-06T07:32:58Z</time></trkpt>
<trkpt lat="23.315464" lon="116.63506">
<time>2016-10-06T07:32:59Z</time></trkpt>
<trkpt lat="23.315444" lon="116.63496">
<time>2016-10-06T07:33:00Z</time></trkpt>
<trkpt lat="23.315424" lon="116.63487">
<time>2016-10-06T07:33:01Z</time></trkpt>
<trkpt lat="23.315394" lon="116.63478">
<time>2016-10-06T07:33:02Z</time></trkpt>
<trkpt lat="23.315364" lon="116.63468">
<time>2016-10-06T07:33:03Z</time></trkpt>
<trkpt lat="23.315334" lon="116.634591">
<time>2016-10-06T07:33:04Z</time></trkpt>
<trkpt lat="23.315304" lon="116.634501">
<time>2016-10-06T07:33:05Z</time></trkpt>
<trkpt lat="23.315245" lon="116.634321">
<time>2016-10-06T07:33:06Z</time></trkpt>
<trkpt lat="23.315205" lon="116.634221">
<time>2016-10-06T07:33:07Z</time></trkpt>
<trkpt lat="23.315006" lon="116.633782">
<time>2016-10-06T07:33:08Z</time></trkpt>
<trkpt lat="23.314756" lon="116.633253">
<time>2016-10-06T07:33:09Z</time></trkpt>
<trkpt lat="23.314597" lon="116.632904">
<time>2016-10-06T07:33:10Z</time></trkpt>
<trkpt lat="23.314527" lon="116.632724">
<time>2016-10-06T07:33:11Z</time></trkpt>
<trkpt lat="23.314458" lon="116.632544">
<time>2016-10-06T07:33:12Z</time></trkpt>
<trkpt lat="23.314428" lon="116.632455">
<time>2016-10-06T07:33:13Z</time></trkpt>
<trkpt lat="23.314398" lon="116.632355">
<time>2016-10-06T07:33:14Z</time></trkpt>
<trkpt lat="23.314368" lon="116.632265">
<time>2016-10-06T07:33:15Z</time></trkpt>
<trkpt lat="23.314318" lon="116.632075">
<time>2016-10-06T07:33:16Z</time></trkpt>
<trkpt lat="23.314288" lon="116.631975">
<time>2016-10-06T07:33:17Z</time></trkpt>
<trkpt lat="23.314269" lon="116.631886">
<time>2016-10-06T07:33:18Z</time></trkpt>
<trkpt lat="23.314249" lon="116.631786">
<time>2016-10-06T07:33:19Z</time></trkpt>
<trkpt lat="23.314239" lon="116.631696">
<time>2016-10-06T07:33:20Z</time></trkpt>
<trkpt lat="23.314239" lon="116.631696">
<time>2016-10-06T07:33:21Z</time></trkpt>
<trkpt lat="23.314049" lon="116.631756">
<time>2016-10-06T07:33:22Z</time></trkpt>
<trkpt lat="23.314049" lon="116.631756">
<time>2016-10-06T07:33:23Z</time></trkpt>
<trkpt lat="23.314049" lon="116.631716">
<time>2016-10-06T07:33:24Z</time></trkpt>
<trkpt lat="23.314029" lon="116.631626">
<time>2016-10-06T07:33:25Z</time></trkpt>
<trkpt lat="23.314019" lon="116.631526">
<time>2016-10-06T07:33:26Z</time></trkpt>
<trkpt lat="23.314009" lon="116.631426">
<time>2016-10-06T07:33:27Z</time></trkpt>
<trkpt lat="23.313999" lon="116.631327">
<time>2016-10-06T07:33:28Z</time></trkpt>
<trkpt lat="23.314" lon="116.631227">
<time>2016-10-06T07:33:29Z</time></trkpt>
<trkpt lat="23.31399" lon="116.631127">
<time>2016-10-06T07:33:30Z</time></trkpt>
<trkpt lat="23.31399" lon="116.630937">
<time>2016-10-06T07:33:31Z</time></trkpt>
<trkpt lat="23.31399" lon="116.630838">
<time>2016-10-06T07:33:32Z</time></trkpt>
<trkpt lat="23.31399" lon="116.630738">
<time>2016-10-06T07:33:33Z</time></trkpt>
<trkpt lat="23.314001" lon="116.630548">
<time>2016-10-06T07:33:34Z</time></trkpt>
<trkpt lat="23.314041" lon="116.630149">
<time>2016-10-06T07:33:35Z</time></trkpt>
<trkpt lat="23.314303" lon="116.628302">
<time>2016-10-06T07:33:36Z</time></trkpt>
<trkpt lat="23.314434" lon="116.627613">
<time>2016-10-06T07:33:37Z</time></trkpt>
<trkpt lat="23.314515" lon="116.627244">
<time>2016-10-06T07:33:38Z</time></trkpt>
<trkpt lat="23.314585" lon="116.626954">
<time>2016-10-06T07:33:39Z</time></trkpt>
<trkpt lat="23.315127" lon="116.624997">
<time>2016-10-06T07:33:40Z</time></trkpt>
<trkpt lat="23.315248" lon="116.624558">
<time>2016-10-06T07:33:41Z</time></trkpt>
<trkpt lat="23.315308" lon="116.624348">
<time>2016-10-06T07:33:42Z</time></trkpt>
<trkpt lat="23.316131" lon="116.621412">
<time>2016-10-06T07:33:43Z</time></trkpt>
<trkpt lat="23.316151" lon="116.621313">
<time>2016-10-06T07:33:44Z</time></trkpt>
<trkpt lat="23.316172" lon="116.621223">
<time>2016-10-06T07:33:45Z</time></trkpt>
<trkpt lat="23.316192" lon="116.621133">
<time>2016-10-06T07:33:46Z</time></trkpt>
<trkpt lat="23.316202" lon="116.621033">
<time>2016-10-06T07:33:47Z</time></trkpt>
<trkpt lat="23.316212" lon="116.620933">
<time>2016-10-06T07:33:48Z</time></trkpt>
<trkpt lat="23.316222" lon="116.620833">
<time>2016-10-06T07:33:49Z</time></trkpt>
<trkpt lat="23.316232" lon="116.620733">
<time>2016-10-06T07:33:50Z</time></trkpt>
<trkpt lat="23.316232" lon="116.620634">
<time>2016-10-06T07:33:51Z</time></trkpt>
<trkpt lat="23.316222" lon="116.620534">
<time>2016-10-06T07:33:52Z</time></trkpt>
<trkpt lat="23.316212" lon="116.620444">
<time>2016-10-06T07:33:53Z</time></trkpt>
<trkpt lat="23.316203" lon="116.620344">
<time>2016-10-06T07:33:54Z</time></trkpt>
<trkpt lat="23.316193" lon="116.620244">
<time>2016-10-06T07:33:55Z</time></trkpt>
<trkpt lat="23.316173" lon="116.620154">
<time>2016-10-06T07:33:56Z</time></trkpt>
<trkpt lat="23.316153" lon="116.620054">
<time>2016-10-06T07:33:57Z</time></trkpt>
<trkpt lat="23.316123" lon="116.619965">
<time>2016-10-06T07:33:58Z</time></trkpt>
<trkpt lat="23.316103" lon="116.619865">
<time>2016-10-06T07:33:59Z</time></trkpt>
<trkpt lat="23.316073" lon="116.619775">
<time>2016-10-06T07:34:00Z</time></trkpt>
<trkpt lat="23.316043" lon="116.619685">
<time>2016-10-06T07:34:01Z</time></trkpt>
<trkpt lat="23.316013" lon="116.619585">
<time>2016-10-06T07:34:02Z</time></trkpt>
<trkpt lat="23.315973" lon="116.619495">
<time>2016-10-06T07:34:03Z</time></trkpt>
<trkpt lat="23.315934" lon="116.619405">
<time>2016-10-06T07:34:04Z</time></trkpt>
<trkpt lat="23.315884" lon="116.619315">
<time>2016-10-06T07:34:05Z</time></trkpt>
<trkpt lat="23.315844" lon="116.619236">
<time>2016-10-06T07:34:06Z</time></trkpt>
<trkpt lat="23.315794" lon="116.619146">
<time>2016-10-06T07:34:07Z</time></trkpt>
<trkpt lat="23.315744" lon="116.619066">
<time>2016-10-06T07:34:08Z</time></trkpt>
<trkpt lat="23.315694" lon="116.618986">
<time>2016-10-06T07:34:09Z</time></trkpt>
<trkpt lat="23.315634" lon="116.618906">
<time>2016-10-06T07:34:10Z</time></trkpt>
<trkpt lat="23.315574" lon="116.618836">
<time>2016-10-06T07:34:11Z</time></trkpt>
<trkpt lat="23.315514" lon="116.618756">
<time>2016-10-06T07:34:12Z</time></trkpt>
<trkpt lat="23.315454" lon="116.618686">
<time>2016-10-06T07:34:13Z</time></trkpt>
<trkpt lat="23.315385" lon="116.618616">
<time>2016-10-06T07:34:14Z</time></trkpt>
<trkpt lat="23.315315" lon="116.618556">
<time>2016-10-06T07:34:15Z</time></trkpt>
<trkpt lat="23.315245" lon="116.618497">
<time>2016-10-06T07:34:16Z</time></trkpt>
<trkpt lat="23.315175" lon="116.618437">
<time>2016-10-06T07:34:17Z</time></trkpt>
<trkpt lat="23.315105" lon="116.618377">
<time>2016-10-06T07:34:18Z</time></trkpt>
<trkpt lat="23.315025" lon="116.618317">
<time>2016-10-06T07:34:19Z</time></trkpt>
<trkpt lat="23.314955" lon="116.618267">
<time>2016-10-06T07:34:20Z</time></trkpt>
<trkpt lat="23.314875" lon="116.618207">
<time>2016-10-06T07:34:21Z</time></trkpt>
<trkpt lat="23.314795" lon="116.618157">
<time>2016-10-06T07:34:22Z</time></trkpt>
<trkpt lat="23.314715" lon="116.618117">
<time>2016-10-06T07:34:23Z</time></trkpt>
<trkpt lat="23.314635" lon="116.618067">
<time>2016-10-06T07:34:24Z</time></trkpt>
<trkpt lat="23.314555" lon="116.618027">
<time>2016-10-06T07:34:25Z</time></trkpt>
<trkpt lat="23.314475" lon="116.617987">
<time>2016-10-06T07:34:26Z</time></trkpt>
<trkpt lat="23.314395" lon="116.617947">
<time>2016-10-06T07:34:27Z</time></trkpt>
<trkpt lat="23.314305" lon="116.617917">
<time>2016-10-06T07:34:28Z</time></trkpt>
<trkpt lat="23.314226" lon="116.617887">
<time>2016-10-06T07:34:29Z</time></trkpt>
<trkpt lat="23.314146" lon="116.617857">
<time>2016-10-06T07:34:30Z</time></trkpt>
<trkpt lat="23.314056" lon="116.617828">
<time>2016-10-06T07:34:31Z</time></trkpt>
<trkpt lat="23.313966" lon="116.617808">
<time>2016-10-06T07:34:32Z</time></trkpt>
<trkpt lat="23.313876" lon="116.617788">
<time>2016-10-06T07:34:33Z</time></trkpt>
<trkpt lat="23.313786" lon="116.617768">
<time>2016-10-06T07:34:34Z</time></trkpt>
<trkpt lat="23.313706" lon="116.617758">
<time>2016-10-06T07:34:35Z</time></trkpt>
<trkpt lat="23.313616" lon="116.617738">
<time>2016-10-06T07:34:36Z</time></trkpt>
<trkpt lat="23.313526" lon="116.617728">
<time>2016-10-06T07:34:37Z</time></trkpt>
<trkpt lat="23.313436" lon="116.617728">
<time>2016-10-06T07:34:38Z</time></trkpt>
<trkpt lat="23.313346" lon="116.617718">
<time>2016-10-06T07:34:39Z</time></trkpt>
<trkpt lat="23.313256" lon="116.617718">
<time>2016-10-06T07:34:40Z</time></trkpt>
<trkpt lat="23.313166" lon="116.617718">
<time>2016-10-06T07:34:41Z</time></trkpt>
<trkpt lat="23.313076" lon="116.617728">
<time>2016-10-06T07:34:42Z</time></trkpt>
<trkpt lat="23.312986" lon="116.617738">
<time>2016-10-06T07:34:43Z</time></trkpt>
<trkpt lat="23.312896" lon="116.617748">
<time>2016-10-06T07:34:44Z</time></trkpt>
<trkpt lat="23.312716" lon="116.617778">
<time>2016-10-06T07:34:45Z</time></trkpt>
<trkpt lat="23.312546" lon="116.617808">
<time>2016-10-06T07:34:46Z</time></trkpt>
<trkpt lat="23.309986" lon="116.618377">
<time>2016-10-06T07:34:47Z</time></trkpt>
<trkpt lat="23.309896" lon="116.618387">
<time>2016-10-06T07:34:48Z</time></trkpt>
<trkpt lat="23.309716" lon="116.618427">
<time>2016-10-06T07:34:49Z</time></trkpt>
<trkpt lat="23.309546" lon="116.618457">
<time>2016-10-06T07:34:50Z</time></trkpt>
<trkpt lat="23.309366" lon="116.618477">
<time>2016-10-06T07:34:51Z</time></trkpt>
<trkpt lat="23.309276" lon="116.618487">
<time>2016-10-06T07:34:52Z</time></trkpt>
<trkpt lat="23.309096" lon="116.618497">
<time>2016-10-06T07:34:53Z</time></trkpt>
<trkpt lat="23.308916" lon="116.618507">
<time>2016-10-06T07:34:54Z</time></trkpt>
<trkpt lat="23.306607" lon="116.618567">
<time>2016-10-06T07:34:55Z</time></trkpt>
<trkpt lat="23.303588" lon="116.618637">
<time>2016-10-06T07:34:56Z</time></trkpt>
<trkpt lat="23.303398" lon="116.618637">
<time>2016-10-06T07:34:57Z</time></trkpt>
<trkpt lat="23.303308" lon="116.618627">
<time>2016-10-06T07:34:58Z</time></trkpt>
<trkpt lat="23.303228" lon="116.618627">
<time>2016-10-06T07:34:59Z</time></trkpt>
<trkpt lat="23.303138" lon="116.618617">
<time>2016-10-06T07:35:00Z</time></trkpt>
<trkpt lat="23.303048" lon="116.618607">
<time>2016-10-06T07:35:01Z</time></trkpt>
<trkpt lat="23.302958" lon="116.618587">
<time>2016-10-06T07:35:02Z</time></trkpt>
<trkpt lat="23.302868" lon="116.618577">
<time>2016-10-06T07:35:03Z</time></trkpt>
<trkpt lat="23.302778" lon="116.618547">
<time>2016-10-06T07:35:04Z</time></trkpt>
<trkpt lat="23.302688" lon="116.618527">
<time>2016-10-06T07:35:05Z</time></trkpt>
<trkpt lat="23.302608" lon="116.618507">
<time>2016-10-06T07:35:06Z</time></trkpt>
<trkpt lat="23.302518" lon="116.618467">
<time>2016-10-06T07:35:07Z</time></trkpt>
<trkpt lat="23.302428" lon="116.618437">
<time>2016-10-06T07:35:08Z</time></trkpt>
<trkpt lat="23.302348" lon="116.618397">
<time>2016-10-06T07:35:09Z</time></trkpt>
<trkpt lat="23.302258" lon="116.618358">
<time>2016-10-06T07:35:10Z</time></trkpt>
<trkpt lat="23.302178" lon="116.618318">
<time>2016-10-06T07:35:11Z</time></trkpt>
<trkpt lat="23.302098" lon="116.618268">
<time>2016-10-06T07:35:12Z</time></trkpt>
<trkpt lat="23.302019" lon="116.618228">
<time>2016-10-06T07:35:13Z</time></trkpt>
<trkpt lat="23.301939" lon="116.618168">
<time>2016-10-06T07:35:14Z</time></trkpt>
<trkpt lat="23.301859" lon="116.618118">
<time>2016-10-06T07:35:15Z</time></trkpt>
<trkpt lat="23.301789" lon="116.618068">
<time>2016-10-06T07:35:16Z</time></trkpt>
<trkpt lat="23.301709" lon="116.618008">
<time>2016-10-06T07:35:17Z</time></trkpt>
<trkpt lat="23.301629" lon="116.617948">
<time>2016-10-06T07:35:18Z</time></trkpt>
<trkpt lat="23.301559" lon="116.617888">
<time>2016-10-06T07:35:19Z</time></trkpt>
<trkpt lat="23.301489" lon="116.617828">
<time>2016-10-06T07:35:20Z</time></trkpt>
<trkpt lat="23.301359" lon="116.617708">
<time>2016-10-06T07:35:21Z</time></trkpt>
<trkpt lat="23.301289" lon="116.617639">
<time>2016-10-06T07:35:22Z</time></trkpt>
<trkpt lat="23.301219" lon="116.617569">
<time>2016-10-06T07:35:23Z</time></trkpt>
<trkpt lat="23.301159" lon="116.617499">
<time>2016-10-06T07:35:24Z</time></trkpt>
<trkpt lat="23.30109" lon="116.617429">
<time>2016-10-06T07:35:25Z</time></trkpt>
<trkpt lat="23.30097" lon="116.617289">
<time>2016-10-06T07:35:26Z</time></trkpt>
<trkpt lat="23.299022" lon="116.614852">
<time>2016-10-06T07:35:27Z</time></trkpt>
<trkpt lat="23.296646" lon="116.611896">
<time>2016-10-06T07:35:28Z</time></trkpt>
<trkpt lat="23.296586" lon="116.611816">
<time>2016-10-06T07:35:29Z</time></trkpt>
<trkpt lat="23.296286" lon="116.611446">
<time>2016-10-06T07:35:30Z</time></trkpt>
<trkpt lat="23.296156" lon="116.611306">
<time>2016-10-06T07:35:31Z</time></trkpt>
<trkpt lat="23.296096" lon="116.611236">
<time>2016-10-06T07:35:32Z</time></trkpt>
<trkpt lat="23.296026" lon="116.611176">
<time>2016-10-06T07:35:33Z</time></trkpt>
<trkpt lat="23.295956" lon="116.611106">
<time>2016-10-06T07:35:34Z</time></trkpt>
<trkpt lat="23.295886" lon="116.611047">
<time>2016-10-06T07:35:35Z</time></trkpt>
<trkpt lat="23.295816" lon="116.610987">
<time>2016-10-06T07:35:36Z</time></trkpt>
<trkpt lat="23.295737" lon="116.610927">
<time>2016-10-06T07:35:37Z</time></trkpt>
<trkpt lat="23.295667" lon="116.610877">
<time>2016-10-06T07:35:38Z</time></trkpt>
<trkpt lat="23.295587" lon="116.610817">
<time>2016-10-06T07:35:39Z</time></trkpt>
<trkpt lat="23.295507" lon="116.610777">
<time>2016-10-06T07:35:40Z</time></trkpt>
<trkpt lat="23.295427" lon="116.610727">
<time>2016-10-06T07:35:41Z</time></trkpt>
<trkpt lat="23.293698" lon="116.609738">
<time>2016-10-06T07:35:42Z</time></trkpt>
<trkpt lat="23.292948" lon="116.609308">
<time>2016-10-06T07:35:43Z</time></trkpt>
<trkpt lat="23.292299" lon="116.608929">
<time>2016-10-06T07:35:44Z</time></trkpt>
<trkpt lat="23.292219" lon="116.608879">
<time>2016-10-06T07:35:45Z</time></trkpt>
<trkpt lat="23.292149" lon="116.608829">
<time>2016-10-06T07:35:46Z</time></trkpt>
<trkpt lat="23.292069" lon="116.608769">
<time>2016-10-06T07:35:47Z</time></trkpt>
<trkpt lat="23.291999" lon="116.608719">
<time>2016-10-06T07:35:48Z</time></trkpt>
<trkpt lat="23.291929" lon="116.608659">
<time>2016-10-06T07:35:49Z</time></trkpt>
<trkpt lat="23.291859" lon="116.608589">
<time>2016-10-06T07:35:50Z</time></trkpt>
<trkpt lat="23.291789" lon="116.608529">
<time>2016-10-06T07:35:51Z</time></trkpt>
<trkpt lat="23.291719" lon="116.608459">
<time>2016-10-06T07:35:52Z</time></trkpt>
<trkpt lat="23.291659" lon="116.608389">
<time>2016-10-06T07:35:53Z</time></trkpt>
<trkpt lat="23.291599" lon="116.608319">
<time>2016-10-06T07:35:54Z</time></trkpt>
<trkpt lat="23.29154" lon="116.608249">
<time>2016-10-06T07:35:55Z</time></trkpt>
<trkpt lat="23.29148" lon="116.60817">
<time>2016-10-06T07:35:56Z</time></trkpt>
<trkpt lat="23.29143" lon="116.60809">
<time>2016-10-06T07:35:57Z</time></trkpt>
<trkpt lat="23.29138" lon="116.60801">
<time>2016-10-06T07:35:58Z</time></trkpt>
<trkpt lat="23.29133" lon="116.60793">
<time>2016-10-06T07:35:59Z</time></trkpt>
<trkpt lat="23.29128" lon="116.60785">
<time>2016-10-06T07:36:00Z</time></trkpt>
<trkpt lat="23.29124" lon="116.60776">
<time>2016-10-06T07:36:01Z</time></trkpt>
<trkpt lat="23.2912" lon="116.60767">
<time>2016-10-06T07:36:02Z</time></trkpt>
<trkpt lat="23.29116" lon="116.60758">
<time>2016-10-06T07:36:03Z</time></trkpt>
<trkpt lat="23.29112" lon="116.60749">
<time>2016-10-06T07:36:04Z</time></trkpt>
<trkpt lat="23.29109" lon="116.6074">
<time>2016-10-06T07:36:05Z</time></trkpt>
<trkpt lat="23.29102" lon="116.60721">
<time>2016-10-06T07:36:06Z</time></trkpt>
<trkpt lat="23.29096" lon="116.607031">
<time>2016-10-06T07:36:07Z</time></trkpt>
<trkpt lat="23.290901" lon="116.606841">
<time>2016-10-06T07:36:08Z</time></trkpt>
<trkpt lat="23.290851" lon="116.606651">
<time>2016-10-06T07:36:09Z</time></trkpt>
<trkpt lat="23.290831" lon="116.606561">
<time>2016-10-06T07:36:10Z</time></trkpt>
<trkpt lat="23.290811" lon="116.606461">
<time>2016-10-06T07:36:11Z</time></trkpt>
<trkpt lat="23.290751" lon="116.606181">
<time>2016-10-06T07:36:12Z</time></trkpt>
<trkpt lat="23.290721" lon="116.605981">
<time>2016-10-06T07:36:13Z</time></trkpt>
<trkpt lat="23.290661" lon="116.605602">
<time>2016-10-06T07:36:14Z</time></trkpt>
<trkpt lat="23.290413" lon="116.603183">
<time>2016-10-06T07:36:15Z</time></trkpt>
<trkpt lat="23.290363" lon="116.602764">
<time>2016-10-06T07:36:16Z</time></trkpt>
<trkpt lat="23.290273" lon="116.601984">
<time>2016-10-06T07:36:17Z</time></trkpt>
<trkpt lat="23.290223" lon="116.601595">
<time>2016-10-06T07:36:18Z</time></trkpt>
<trkpt lat="23.290203" lon="116.601505">
<time>2016-10-06T07:36:19Z</time></trkpt>
<trkpt lat="23.290163" lon="116.601315">
<time>2016-10-06T07:36:20Z</time></trkpt>
<trkpt lat="23.290133" lon="116.601165">
<time>2016-10-06T07:36:21Z</time></trkpt>
<trkpt lat="23.290103" lon="116.601005">
<time>2016-10-06T07:36:22Z</time></trkpt>
<trkpt lat="23.290073" lon="116.600865">
<time>2016-10-06T07:36:23Z</time></trkpt>
<trkpt lat="23.290044" lon="116.600735">
<time>2016-10-06T07:36:24Z</time></trkpt>
<trkpt lat="23.289984" lon="116.600545">
<time>2016-10-06T07:36:25Z</time></trkpt>
<trkpt lat="23.289954" lon="116.600455">
<time>2016-10-06T07:36:26Z</time></trkpt>
<trkpt lat="23.289924" lon="116.600365">
<time>2016-10-06T07:36:27Z</time></trkpt>
<trkpt lat="23.289894" lon="116.600275">
<time>2016-10-06T07:36:28Z</time></trkpt>
<trkpt lat="23.289814" lon="116.600085">
<time>2016-10-06T07:36:29Z</time></trkpt>
<trkpt lat="23.289774" lon="116.600005">
<time>2016-10-06T07:36:30Z</time></trkpt>
<trkpt lat="23.289684" lon="116.599826">
<time>2016-10-06T07:36:31Z</time></trkpt>
<trkpt lat="23.289634" lon="116.599736">
<time>2016-10-06T07:36:32Z</time></trkpt>
<trkpt lat="23.289594" lon="116.599656">
<time>2016-10-06T07:36:33Z</time></trkpt>
<trkpt lat="23.289534" lon="116.599566">
<time>2016-10-06T07:36:34Z</time></trkpt>
<trkpt lat="23.289504" lon="116.599516">
<time>2016-10-06T07:36:35Z</time></trkpt>
<trkpt lat="23.289444" lon="116.599436">
<time>2016-10-06T07:36:36Z</time></trkpt>
<trkpt lat="23.289424" lon="116.599406">
<time>2016-10-06T07:36:37Z</time></trkpt>
<trkpt lat="23.289364" lon="116.599336">
<time>2016-10-06T07:36:38Z</time></trkpt>
<trkpt lat="23.289304" lon="116.599256">
<time>2016-10-06T07:36:39Z</time></trkpt>
<trkpt lat="23.289244" lon="116.599176">
<time>2016-10-06T07:36:40Z</time></trkpt>
<trkpt lat="23.289174" lon="116.599096">
<time>2016-10-06T07:36:41Z</time></trkpt>
<trkpt lat="23.289094" lon="116.599016">
<time>2016-10-06T07:36:42Z</time></trkpt>
<trkpt lat="23.289014" lon="116.598946">
<time>2016-10-06T07:36:43Z</time></trkpt>
<trkpt lat="23.288954" lon="116.598886">
<time>2016-10-06T07:36:44Z</time></trkpt>
<trkpt lat="23.288884" lon="116.598836">
<time>2016-10-06T07:36:45Z</time></trkpt>
<trkpt lat="23.288814" lon="116.598776">
<time>2016-10-06T07:36:46Z</time></trkpt>
<trkpt lat="23.288375" lon="116.598456">
<time>2016-10-06T07:36:47Z</time></trkpt>
<trkpt lat="23.288155" lon="116.598296">
<time>2016-10-06T07:36:48Z</time></trkpt>
<trkpt lat="23.287685" lon="116.598006">
<time>2016-10-06T07:36:49Z</time></trkpt>
<trkpt lat="23.287445" lon="116.597857">
<time>2016-10-06T07:36:50Z</time></trkpt>
<trkpt lat="23.286925" lon="116.597537">
<time>2016-10-06T07:36:51Z</time></trkpt>
<trkpt lat="23.286895" lon="116.597527">
<time>2016-10-06T07:36:52Z</time></trkpt>
<trkpt lat="23.286885" lon="116.597517">
<time>2016-10-06T07:36:53Z</time></trkpt>
<trkpt lat="23.286875" lon="116.597507">
<time>2016-10-06T07:36:54Z</time></trkpt>
<trkpt lat="23.286865" lon="116.597497">
<time>2016-10-06T07:36:55Z</time></trkpt>
<trkpt lat="23.286845" lon="116.597487">
<time>2016-10-06T07:36:56Z</time></trkpt>
<trkpt lat="23.286245" lon="116.597157">
<time>2016-10-06T07:36:57Z</time></trkpt>
<trkpt lat="23.285546" lon="116.596767">
<time>2016-10-06T07:36:58Z</time></trkpt>
<trkpt lat="23.285496" lon="116.596737">
<time>2016-10-06T07:36:59Z</time></trkpt>
<trkpt lat="23.285146" lon="116.596537">
<time>2016-10-06T07:37:00Z</time></trkpt>
<trkpt lat="23.281537" lon="116.594458">
<time>2016-10-06T07:37:01Z</time></trkpt>
<trkpt lat="23.279528" lon="116.593298">
<time>2016-10-06T07:37:02Z</time></trkpt>
<trkpt lat="23.279528" lon="116.593298">
<time>2016-10-06T07:37:03Z</time></trkpt>
<trkpt lat="23.279588" lon="116.593009">
<time>2016-10-06T07:37:04Z</time></trkpt>
<trkpt lat="23.279588" lon="116.593009">
<time>2016-10-06T07:37:05Z</time></trkpt>
<trkpt lat="23.279238" lon="116.592819">
<time>2016-10-06T07:37:06Z</time></trkpt>
<trkpt lat="23.277338" lon="116.591739">
<time>2016-10-06T07:37:07Z</time></trkpt>
<trkpt lat="23.276848" lon="116.591479">
<time>2016-10-06T07:37:08Z</time></trkpt>
<trkpt lat="23.276189" lon="116.591159">
<time>2016-10-06T07:37:09Z</time></trkpt>
<trkpt lat="23.275769" lon="116.590969">
<time>2016-10-06T07:37:10Z</time></trkpt>
<trkpt lat="23.275359" lon="116.590789">
<time>2016-10-06T07:37:11Z</time></trkpt>
<trkpt lat="23.275189" lon="116.590729">
<time>2016-10-06T07:37:12Z</time></trkpt>
<trkpt lat="23.274599" lon="116.590499">
<time>2016-10-06T07:37:13Z</time></trkpt>
<trkpt lat="23.274429" lon="116.590439">
<time>2016-10-06T07:37:14Z</time></trkpt>
<trkpt lat="23.274259" lon="116.590379">
<time>2016-10-06T07:37:15Z</time></trkpt>
<trkpt lat="23.274179" lon="116.590349">
<time>2016-10-06T07:37:16Z</time></trkpt>
<trkpt lat="23.274079" lon="116.590309">
<time>2016-10-06T07:37:17Z</time></trkpt>
<trkpt lat="23.274019" lon="116.590289">
<time>2016-10-06T07:37:18Z</time></trkpt>
<trkpt lat="23.273909" lon="116.590249">
<time>2016-10-06T07:37:19Z</time></trkpt>
<trkpt lat="23.273379" lon="116.590059">
<time>2016-10-06T07:37:20Z</time></trkpt>
<trkpt lat="23.27183" lon="116.589499">
<time>2016-10-06T07:37:21Z</time></trkpt>
<trkpt lat="23.27175" lon="116.589459">
<time>2016-10-06T07:37:22Z</time></trkpt>
<trkpt lat="23.27151" lon="116.589359">
<time>2016-10-06T07:37:23Z</time></trkpt>
<trkpt lat="23.27124" lon="116.589229">
<time>2016-10-06T07:37:24Z</time></trkpt>
<trkpt lat="23.27116" lon="116.589189">
<time>2016-10-06T07:37:25Z</time></trkpt>
<trkpt lat="23.27108" lon="116.589149">
<time>2016-10-06T07:37:26Z</time></trkpt>
<trkpt lat="23.27091" lon="116.589059">
<time>2016-10-06T07:37:27Z</time></trkpt>
<trkpt lat="23.27083" lon="116.589009">
<time>2016-10-06T07:37:28Z</time></trkpt>
<trkpt lat="23.27075" lon="116.588959">
<time>2016-10-06T07:37:29Z</time></trkpt>
<trkpt lat="23.2706" lon="116.588849">
<time>2016-10-06T07:37:30Z</time></trkpt>
<trkpt lat="23.27038" lon="116.588679">
<time>2016-10-06T07:37:31Z</time></trkpt>
<trkpt lat="23.27023" lon="116.588559">
<time>2016-10-06T07:37:32Z</time></trkpt>
<trkpt lat="23.27009" lon="116.588439">
<time>2016-10-06T07:37:33Z</time></trkpt>
<trkpt lat="23.27002" lon="116.588379">
<time>2016-10-06T07:37:34Z</time></trkpt>
<trkpt lat="23.26995" lon="116.588309">
<time>2016-10-06T07:37:35Z</time></trkpt>
<trkpt lat="23.26988" lon="116.588249">
<time>2016-10-06T07:37:36Z</time></trkpt>
<trkpt lat="23.26981" lon="116.588179">
<time>2016-10-06T07:37:37Z</time></trkpt>
<trkpt lat="23.26955" lon="116.587899">
<time>2016-10-06T07:37:38Z</time></trkpt>
<trkpt lat="23.26949" lon="116.587829">
<time>2016-10-06T07:37:39Z</time></trkpt>
<trkpt lat="23.26906" lon="116.587319">
<time>2016-10-06T07:37:40Z</time></trkpt>
<trkpt lat="23.26618" lon="116.583799">
<time>2016-10-06T07:37:41Z</time></trkpt>
<trkpt lat="23.264549" lon="116.581808">
<time>2016-10-06T07:37:42Z</time></trkpt>
<trkpt lat="23.263319" lon="116.580318">
<time>2016-10-06T07:37:43Z</time></trkpt>
<trkpt lat="23.263199" lon="116.580178">
<time>2016-10-06T07:37:44Z</time></trkpt>
<trkpt lat="23.263069" lon="116.580038">
<time>2016-10-06T07:37:45Z</time></trkpt>
<trkpt lat="23.262939" lon="116.579898">
<time>2016-10-06T07:37:46Z</time></trkpt>
<trkpt lat="23.262809" lon="116.579768">
<time>2016-10-06T07:37:47Z</time></trkpt>
<trkpt lat="23.262599" lon="116.579578">
<time>2016-10-06T07:37:48Z</time></trkpt>
<trkpt lat="23.262529" lon="116.579518">
<time>2016-10-06T07:37:49Z</time></trkpt>
<trkpt lat="23.262389" lon="116.579397">
<time>2016-10-06T07:37:50Z</time></trkpt>
<trkpt lat="23.262099" lon="116.579167">
<time>2016-10-06T07:37:51Z</time></trkpt>
<trkpt lat="23.261818" lon="116.578967">
<time>2016-10-06T07:37:52Z</time></trkpt>
<trkpt lat="23.261528" lon="116.578757">
<time>2016-10-06T07:37:53Z</time></trkpt>
<trkpt lat="23.261028" lon="116.578427">
<time>2016-10-06T07:37:54Z</time></trkpt>
<trkpt lat="23.260258" lon="116.577907">
<time>2016-10-06T07:37:55Z</time></trkpt>
<trkpt lat="23.259708" lon="116.577527">
<time>2016-10-06T07:37:56Z</time></trkpt>
<trkpt lat="23.259358" lon="116.577256">
<time>2016-10-06T07:37:57Z</time></trkpt>
<trkpt lat="23.259288" lon="116.577196">
<time>2016-10-06T07:37:58Z</time></trkpt>
<trkpt lat="23.259218" lon="116.577136">
<time>2016-10-06T07:37:59Z</time></trkpt>
<trkpt lat="23.259078" lon="116.577006">
<time>2016-10-06T07:38:00Z</time></trkpt>
<trkpt lat="23.258948" lon="116.576876">
<time>2016-10-06T07:38:01Z</time></trkpt>
<trkpt lat="23.258878" lon="116.576816">
<time>2016-10-06T07:38:02Z</time></trkpt>
<trkpt lat="23.258828" lon="116.576756">
<time>2016-10-06T07:38:03Z</time></trkpt>
<trkpt lat="23.258758" lon="116.576676">
<time>2016-10-06T07:38:04Z</time></trkpt>
<trkpt lat="23.258698" lon="116.576596">
<time>2016-10-06T07:38:05Z</time></trkpt>
<trkpt lat="23.258688" lon="116.576586">
<time>2016-10-06T07:38:06Z</time></trkpt>
<trkpt lat="23.258638" lon="116.576526">
<time>2016-10-06T07:38:07Z</time></trkpt>
<trkpt lat="23.258578" lon="116.576446">
<time>2016-10-06T07:38:08Z</time></trkpt>
<trkpt lat="23.258518" lon="116.576366">
<time>2016-10-06T07:38:09Z</time></trkpt>
<trkpt lat="23.258468" lon="116.576286">
<time>2016-10-06T07:38:10Z</time></trkpt>
<trkpt lat="23.258418" lon="116.576206">
<time>2016-10-06T07:38:11Z</time></trkpt>
<trkpt lat="23.258368" lon="116.576136">
<time>2016-10-06T07:38:12Z</time></trkpt>
<trkpt lat="23.258368" lon="116.576126">
<time>2016-10-06T07:38:13Z</time></trkpt>
<trkpt lat="23.258317" lon="116.576046">
<time>2016-10-06T07:38:14Z</time></trkpt>
<trkpt lat="23.258277" lon="116.575956">
<time>2016-10-06T07:38:15Z</time></trkpt>
<trkpt lat="23.258237" lon="116.575876">
<time>2016-10-06T07:38:16Z</time></trkpt>
<trkpt lat="23.258197" lon="116.575796">
<time>2016-10-06T07:38:17Z</time></trkpt>
<trkpt lat="23.258197" lon="116.575786">
<time>2016-10-06T07:38:18Z</time></trkpt>
<trkpt lat="23.258157" lon="116.575696">
<time>2016-10-06T07:38:19Z</time></trkpt>
<trkpt lat="23.258117" lon="116.575605">
<time>2016-10-06T07:38:20Z</time></trkpt>
<trkpt lat="23.258107" lon="116.575575">
<time>2016-10-06T07:38:21Z</time></trkpt>
<trkpt lat="23.258077" lon="116.575515">
<time>2016-10-06T07:38:22Z</time></trkpt>
<trkpt lat="23.258047" lon="116.575425">
<time>2016-10-06T07:38:23Z</time></trkpt>
<trkpt lat="23.258017" lon="116.575325">
<time>2016-10-06T07:38:24Z</time></trkpt>
<trkpt lat="23.257997" lon="116.575235">
<time>2016-10-06T07:38:25Z</time></trkpt>
<trkpt lat="23.257967" lon="116.575135">
<time>2016-10-06T07:38:26Z</time></trkpt>
<trkpt lat="23.257947" lon="116.575045">
<time>2016-10-06T07:38:27Z</time></trkpt>
<trkpt lat="23.257927" lon="116.574945">
<time>2016-10-06T07:38:28Z</time></trkpt>
<trkpt lat="23.257877" lon="116.574675">
<time>2016-10-06T07:38:29Z</time></trkpt>
<trkpt lat="23.257877" lon="116.574655">
<time>2016-10-06T07:38:30Z</time></trkpt>
<trkpt lat="23.257836" lon="116.574385">
<time>2016-10-06T07:38:31Z</time></trkpt>
<trkpt lat="23.257816" lon="116.574265">
<time>2016-10-06T07:38:32Z</time></trkpt>
<trkpt lat="23.257816" lon="116.574164">
<time>2016-10-06T07:38:33Z</time></trkpt>
<trkpt lat="23.257796" lon="116.573914">
<time>2016-10-06T07:38:34Z</time></trkpt>
<trkpt lat="23.257745" lon="116.573164">
<time>2016-10-06T07:38:35Z</time></trkpt>
<trkpt lat="23.257705" lon="116.572593">
<time>2016-10-06T07:38:36Z</time></trkpt>
<trkpt lat="23.257674" lon="116.571823">
<time>2016-10-06T07:38:37Z</time></trkpt>
<trkpt lat="23.257623" lon="116.571042">
<time>2016-10-06T07:38:38Z</time></trkpt>
<trkpt lat="23.257502" lon="116.569671">
<time>2016-10-06T07:38:39Z</time></trkpt>
<trkpt lat="23.257401" lon="116.56886">
<time>2016-10-06T07:38:40Z</time></trkpt>
<trkpt lat="23.25734" lon="116.568319">
<time>2016-10-06T07:38:41Z</time></trkpt>
<trkpt lat="23.25734" lon="116.568289">
<time>2016-10-06T07:38:42Z</time></trkpt>
<trkpt lat="23.257159" lon="116.567078">
<time>2016-10-06T07:38:43Z</time></trkpt>
<trkpt lat="23.256202" lon="116.561621">
<time>2016-10-06T07:38:44Z</time></trkpt>
<trkpt lat="23.25595" lon="116.560189">
<time>2016-10-06T07:38:45Z</time></trkpt>
<trkpt lat="23.25594" lon="116.560089">
<time>2016-10-06T07:38:46Z</time></trkpt>
<trkpt lat="23.25593" lon="116.559989">
<time>2016-10-06T07:38:47Z</time></trkpt>
<trkpt lat="23.25592" lon="116.559889">
<time>2016-10-06T07:38:48Z</time></trkpt>
<trkpt lat="23.25592" lon="116.559799">
<time>2016-10-06T07:38:49Z</time></trkpt>
<trkpt lat="23.25592" lon="116.559708">
<time>2016-10-06T07:38:50Z</time></trkpt>
<trkpt lat="23.255919" lon="116.559498">
<time>2016-10-06T07:38:51Z</time></trkpt>
<trkpt lat="23.255919" lon="116.559408">
<time>2016-10-06T07:38:52Z</time></trkpt>
<trkpt lat="23.255919" lon="116.559308">
<time>2016-10-06T07:38:53Z</time></trkpt>
<trkpt lat="23.255939" lon="116.559108">
<time>2016-10-06T07:38:54Z</time></trkpt>
<trkpt lat="23.255949" lon="116.559007">
<time>2016-10-06T07:38:55Z</time></trkpt>
<trkpt lat="23.255958" lon="116.558917">
<time>2016-10-06T07:38:56Z</time></trkpt>
<trkpt lat="23.256097" lon="116.558046">
<time>2016-10-06T07:38:57Z</time></trkpt>
<trkpt lat="23.256245" lon="116.557064">
<time>2016-10-06T07:38:58Z</time></trkpt>
<trkpt lat="23.256344" lon="116.556484">
<time>2016-10-06T07:38:59Z</time></trkpt>
<trkpt lat="23.256384" lon="116.556303">
<time>2016-10-06T07:39:00Z</time></trkpt>
<trkpt lat="23.256473" lon="116.555913">
<time>2016-10-06T07:39:01Z</time></trkpt>
<trkpt lat="23.256503" lon="116.555812">
<time>2016-10-06T07:39:02Z</time></trkpt>
<trkpt lat="23.256553" lon="116.555632">
<time>2016-10-06T07:39:03Z</time></trkpt>
<trkpt lat="23.256613" lon="116.555452">
<time>2016-10-06T07:39:04Z</time></trkpt>
<trkpt lat="23.256712" lon="116.555161">
<time>2016-10-06T07:39:05Z</time></trkpt>
<trkpt lat="23.256772" lon="116.555021">
<time>2016-10-06T07:39:06Z</time></trkpt>
<trkpt lat="23.256812" lon="116.554911">
<time>2016-10-06T07:39:07Z</time></trkpt>
<trkpt lat="23.257409" lon="116.553549">
<time>2016-10-06T07:39:08Z</time></trkpt>
<trkpt lat="23.257788" lon="116.552677">
<time>2016-10-06T07:39:09Z</time></trkpt>
<trkpt lat="23.258126" lon="116.551835">
<time>2016-10-06T07:39:10Z</time></trkpt>
<trkpt lat="23.258395" lon="116.551174">
<time>2016-10-06T07:39:11Z</time></trkpt>
<trkpt lat="23.258693" lon="116.550413">
<time>2016-10-06T07:39:12Z</time></trkpt>
<trkpt lat="23.258991" lon="116.549591">
<time>2016-10-06T07:39:13Z</time></trkpt>
<trkpt lat="23.259091" lon="116.549311">
<time>2016-10-06T07:39:14Z</time></trkpt>
<trkpt lat="23.259319" lon="116.548589">
<time>2016-10-06T07:39:15Z</time></trkpt>
<trkpt lat="23.259498" lon="116.548008">
<time>2016-10-06T07:39:16Z</time></trkpt>
<trkpt lat="23.259935" lon="116.546415">
<time>2016-10-06T07:39:17Z</time></trkpt>
<trkpt lat="23.260004" lon="116.546124">
<time>2016-10-06T07:39:18Z</time></trkpt>
<trkpt lat="23.260024" lon="116.546024">
<time>2016-10-06T07:39:19Z</time></trkpt>
<trkpt lat="23.260044" lon="116.545934">
<time>2016-10-06T07:39:20Z</time></trkpt>
<trkpt lat="23.260054" lon="116.545834">
<time>2016-10-06T07:39:21Z</time></trkpt>
<trkpt lat="23.260073" lon="116.545723">
<time>2016-10-06T07:39:22Z</time></trkpt>
<trkpt lat="23.260083" lon="116.545633">
<time>2016-10-06T07:39:23Z</time></trkpt>
<trkpt lat="23.260093" lon="116.545443">
<time>2016-10-06T07:39:24Z</time></trkpt>
<trkpt lat="23.260113" lon="116.545252">
<time>2016-10-06T07:39:25Z</time></trkpt>
<trkpt lat="23.260122" lon="116.544852">
<time>2016-10-06T07:39:26Z</time></trkpt>
<trkpt lat="23.26012" lon="116.54406">
<time>2016-10-06T07:39:27Z</time></trkpt>
<trkpt lat="23.260107" lon="116.542827">
<time>2016-10-06T07:39:28Z</time></trkpt>
<trkpt lat="23.260094" lon="116.541314">
<time>2016-10-06T07:39:29Z</time></trkpt>
<trkpt lat="23.260094" lon="116.541134">
<time>2016-10-06T07:39:30Z</time></trkpt>
<trkpt lat="23.260094" lon="116.541043">
<time>2016-10-06T07:39:31Z</time></trkpt>
<trkpt lat="23.260112" lon="116.540542">
<time>2016-10-06T07:39:32Z</time></trkpt>
<trkpt lat="23.260132" lon="116.540332">
<time>2016-10-06T07:39:33Z</time></trkpt>
<trkpt lat="23.260161" lon="116.540041">
<time>2016-10-06T07:39:34Z</time></trkpt>
<trkpt lat="23.260181" lon="116.539941">
<time>2016-10-06T07:39:35Z</time></trkpt>
<trkpt lat="23.26029" lon="116.539319">
<time>2016-10-06T07:39:36Z</time></trkpt>
<trkpt lat="23.260487" lon="116.538197">
<time>2016-10-06T07:39:37Z</time></trkpt>
<trkpt lat="23.260566" lon="116.537816">
<time>2016-10-06T07:39:38Z</time></trkpt>
<trkpt lat="23.260734" lon="116.536944">
<time>2016-10-06T07:39:39Z</time></trkpt>
<trkpt lat="23.260783" lon="116.536653">
<time>2016-10-06T07:39:40Z</time></trkpt>
<trkpt lat="23.260981" lon="116.535681">
<time>2016-10-06T07:39:41Z</time></trkpt>
<trkpt lat="23.261297" lon="116.534067">
<time>2016-10-06T07:39:42Z</time></trkpt>
<trkpt lat="23.262028" lon="116.530658">
<time>2016-10-06T07:39:43Z</time></trkpt>
<trkpt lat="23.262068" lon="116.530427">
<time>2016-10-06T07:39:44Z</time></trkpt>
<trkpt lat="23.262147" lon="116.529926">
<time>2016-10-06T07:39:45Z</time></trkpt>
<trkpt lat="23.262234" lon="116.529054">
<time>2016-10-06T07:39:46Z</time></trkpt>
<trkpt lat="23.262263" lon="116.528673">
<time>2016-10-06T07:39:47Z</time></trkpt>
<trkpt lat="23.262458" lon="116.526818">
<time>2016-10-06T07:39:48Z</time></trkpt>
<trkpt lat="23.262654" lon="116.525053">
<time>2016-10-06T07:39:49Z</time></trkpt>
<trkpt lat="23.262732" lon="116.524281">
<time>2016-10-06T07:39:50Z</time></trkpt>
<trkpt lat="23.262829" lon="116.523298">
<time>2016-10-06T07:39:51Z</time></trkpt>
<trkpt lat="23.262838" lon="116.523107">
<time>2016-10-06T07:39:52Z</time></trkpt>
<trkpt lat="23.262857" lon="116.522616">
<time>2016-10-06T07:39:53Z</time></trkpt>
<trkpt lat="23.262854" lon="116.521403">
<time>2016-10-06T07:39:54Z</time></trkpt>
<trkpt lat="23.262849" lon="116.519828">
<time>2016-10-06T07:39:55Z</time></trkpt>
<trkpt lat="23.262845" lon="116.518083">
<time>2016-10-06T07:39:56Z</time></trkpt>
<trkpt lat="23.262842" lon="116.51711">
<time>2016-10-06T07:39:57Z</time></trkpt>
<trkpt lat="23.262849" lon="116.516157">
<time>2016-10-06T07:39:58Z</time></trkpt>
<trkpt lat="23.262849" lon="116.516137">
<time>2016-10-06T07:39:59Z</time></trkpt>
<trkpt lat="23.262816" lon="116.511604">
<time>2016-10-06T07:40:00Z</time></trkpt>
<trkpt lat="23.262794" lon="116.510911">
<time>2016-10-06T07:40:01Z</time></trkpt>
<trkpt lat="23.262772" lon="116.51033">
<time>2016-10-06T07:40:02Z</time></trkpt>
<trkpt lat="23.26271" lon="116.509407">
<time>2016-10-06T07:40:03Z</time></trkpt>
<trkpt lat="23.262637" lon="116.508514">
<time>2016-10-06T07:40:04Z</time></trkpt>
<trkpt lat="23.262523" lon="116.506989">
<time>2016-10-06T07:40:05Z</time></trkpt>
<trkpt lat="23.262481" lon="116.506498">
<time>2016-10-06T07:40:06Z</time></trkpt>
<trkpt lat="23.26247" lon="116.506127">
<time>2016-10-06T07:40:07Z</time></trkpt>
<trkpt lat="23.262459" lon="116.505896">
<time>2016-10-06T07:40:08Z</time></trkpt>
<trkpt lat="23.262459" lon="116.505816">
<time>2016-10-06T07:40:09Z</time></trkpt>
<trkpt lat="23.262469" lon="116.505725">
<time>2016-10-06T07:40:10Z</time></trkpt>
<trkpt lat="23.262469" lon="116.505635">
<time>2016-10-06T07:40:11Z</time></trkpt>
<trkpt lat="23.262478" lon="116.505535">
<time>2016-10-06T07:40:12Z</time></trkpt>
<trkpt lat="23.262488" lon="116.505435">
<time>2016-10-06T07:40:13Z</time></trkpt>
<trkpt lat="23.262498" lon="116.505334">
<time>2016-10-06T07:40:14Z</time></trkpt>
<trkpt lat="23.262507" lon="116.505224">
<time>2016-10-06T07:40:15Z</time></trkpt>
<trkpt lat="23.262527" lon="116.505134">
<time>2016-10-06T07:40:16Z</time></trkpt>
<trkpt lat="23.262557" lon="116.504953">
<time>2016-10-06T07:40:17Z</time></trkpt>
<trkpt lat="23.262596" lon="116.504752">
<time>2016-10-06T07:40:18Z</time></trkpt>
<trkpt lat="23.262626" lon="116.504652">
<time>2016-10-06T07:40:19Z</time></trkpt>
<trkpt lat="23.262645" lon="116.504562">
<time>2016-10-06T07:40:20Z</time></trkpt>
<trkpt lat="23.262705" lon="116.504371">
<time>2016-10-06T07:40:21Z</time></trkpt>
<trkpt lat="23.262735" lon="116.504281">
<time>2016-10-06T07:40:22Z</time></trkpt>
<trkpt lat="23.262764" lon="116.504191">
<time>2016-10-06T07:40:23Z</time></trkpt>
<trkpt lat="23.262794" lon="116.5041">
<time>2016-10-06T07:40:24Z</time></trkpt>
<trkpt lat="23.262834" lon="116.50401">
<time>2016-10-06T07:40:25Z</time></trkpt>
<trkpt lat="23.262863" lon="116.50392">
<time>2016-10-06T07:40:26Z</time></trkpt>
<trkpt lat="23.262953" lon="116.503739">
<time>2016-10-06T07:40:27Z</time></trkpt>
<trkpt lat="23.263032" lon="116.503579">
<time>2016-10-06T07:40:28Z</time></trkpt>
<trkpt lat="23.263122" lon="116.503398">
<time>2016-10-06T07:40:29Z</time></trkpt>
<trkpt lat="23.263261" lon="116.503147">
<time>2016-10-06T07:40:30Z</time></trkpt>
<trkpt lat="23.263967" lon="116.501853">
<time>2016-10-06T07:40:31Z</time></trkpt>
<trkpt lat="23.264176" lon="116.501472">
<time>2016-10-06T07:40:32Z</time></trkpt>
<trkpt lat="23.264424" lon="116.501041">
<time>2016-10-06T07:40:33Z</time></trkpt>
<trkpt lat="23.264524" lon="116.50086">
<time>2016-10-06T07:40:34Z</time></trkpt>
<trkpt lat="23.264593" lon="116.50072">
<time>2016-10-06T07:40:35Z</time></trkpt>
<trkpt lat="23.264703" lon="116.500489">
<time>2016-10-06T07:40:36Z</time></trkpt>
<trkpt lat="23.264752" lon="116.500368">
<time>2016-10-06T07:40:37Z</time></trkpt>
<trkpt lat="23.264792" lon="116.500258">
<time>2016-10-06T07:40:38Z</time></trkpt>
<trkpt lat="23.264812" lon="116.500188">
<time>2016-10-06T07:40:39Z</time></trkpt>
<trkpt lat="23.264831" lon="116.500128">
<time>2016-10-06T07:40:40Z</time></trkpt>
<trkpt lat="23.264861" lon="116.500017">
<time>2016-10-06T07:40:41Z</time></trkpt>
<trkpt lat="23.264891" lon="116.499927">
<time>2016-10-06T07:40:42Z</time></trkpt>
<trkpt lat="23.264911" lon="116.499807">
<time>2016-10-06T07:40:43Z</time></trkpt>
<trkpt lat="23.26493" lon="116.499706">
<time>2016-10-06T07:40:44Z</time></trkpt>
<trkpt lat="23.26494" lon="116.499616">
<time>2016-10-06T07:40:45Z</time></trkpt>
<trkpt lat="23.264959" lon="116.499415">
<time>2016-10-06T07:40:46Z</time></trkpt>
<trkpt lat="23.264969" lon="116.499215">
<time>2016-10-06T07:40:47Z</time></trkpt>
<trkpt lat="23.264987" lon="116.498543">
<time>2016-10-06T07:40:48Z</time></trkpt>
<trkpt lat="23.264987" lon="116.498502">
<time>2016-10-06T07:40:49Z</time></trkpt>
<trkpt lat="23.265014" lon="116.497539">
<time>2016-10-06T07:40:50Z</time></trkpt>
<trkpt lat="23.265022" lon="116.496988">
<time>2016-10-06T07:40:51Z</time></trkpt>
<trkpt lat="23.265031" lon="116.496787">
<time>2016-10-06T07:40:52Z</time></trkpt>
<trkpt lat="23.265039" lon="116.496145">
<time>2016-10-06T07:40:53Z</time></trkpt>
<trkpt lat="23.265044" lon="116.49448">
<time>2016-10-06T07:40:54Z</time></trkpt>
<trkpt lat="23.265044" lon="116.494419">
<time>2016-10-06T07:40:55Z</time></trkpt>
<trkpt lat="23.265043" lon="116.493838">
<time>2016-10-06T07:40:56Z</time></trkpt>
<trkpt lat="23.265032" lon="116.493737">
<time>2016-10-06T07:40:57Z</time></trkpt>
<trkpt lat="23.265048" lon="116.492343">
<time>2016-10-06T07:40:58Z</time></trkpt>
<trkpt lat="23.265037" lon="116.492052">
<time>2016-10-06T07:40:59Z</time></trkpt>
<trkpt lat="23.265054" lon="116.491169">
<time>2016-10-06T07:41:00Z</time></trkpt>
<trkpt lat="23.265073" lon="116.490768">
<time>2016-10-06T07:41:01Z</time></trkpt>
<trkpt lat="23.265093" lon="116.490567">
<time>2016-10-06T07:41:02Z</time></trkpt>
<trkpt lat="23.265161" lon="116.489985">
<time>2016-10-06T07:41:03Z</time></trkpt>
<trkpt lat="23.265317" lon="116.488741">
<time>2016-10-06T07:41:04Z</time></trkpt>
<trkpt lat="23.265376" lon="116.48836">
<time>2016-10-06T07:41:05Z</time></trkpt>
<trkpt lat="23.265395" lon="116.48817">
<time>2016-10-06T07:41:06Z</time></trkpt>
<trkpt lat="23.265532" lon="116.487076">
<time>2016-10-06T07:41:07Z</time></trkpt>
<trkpt lat="23.265562" lon="116.486885">
<time>2016-10-06T07:41:08Z</time></trkpt>
<trkpt lat="23.265581" lon="116.486785">
<time>2016-10-06T07:41:09Z</time></trkpt>
<trkpt lat="23.26563" lon="116.486534">
<time>2016-10-06T07:41:10Z</time></trkpt>
<trkpt lat="23.26564" lon="116.486504">
<time>2016-10-06T07:41:11Z</time></trkpt>
<trkpt lat="23.26566" lon="116.486414">
<time>2016-10-06T07:41:12Z</time></trkpt>
<trkpt lat="23.26569" lon="116.486324">
<time>2016-10-06T07:41:13Z</time></trkpt>
<trkpt lat="23.265749" lon="116.486133">
<time>2016-10-06T07:41:14Z</time></trkpt>
<trkpt lat="23.265809" lon="116.485952">
<time>2016-10-06T07:41:15Z</time></trkpt>
<trkpt lat="23.265987" lon="116.485501">
<time>2016-10-06T07:41:16Z</time></trkpt>
<trkpt lat="23.266027" lon="116.485411">
<time>2016-10-06T07:41:17Z</time></trkpt>
<trkpt lat="23.266146" lon="116.48511">
<time>2016-10-06T07:41:18Z</time></trkpt>
<trkpt lat="23.266176" lon="116.48505">
<time>2016-10-06T07:41:19Z</time></trkpt>
<trkpt lat="23.266235" lon="116.484869">
<time>2016-10-06T07:41:20Z</time></trkpt>
<trkpt lat="23.266523" lon="116.484167">
<time>2016-10-06T07:41:21Z</time></trkpt>
<trkpt lat="23.266533" lon="116.484147">
<time>2016-10-06T07:41:22Z</time></trkpt>
<trkpt lat="23.266563" lon="116.484056">
<time>2016-10-06T07:41:23Z</time></trkpt>
<trkpt lat="23.266603" lon="116.483966">
<time>2016-10-06T07:41:24Z</time></trkpt>
<trkpt lat="23.266632" lon="116.483876">
<time>2016-10-06T07:41:25Z</time></trkpt>
<trkpt lat="23.267069" lon="116.482802">
<time>2016-10-06T07:41:26Z</time></trkpt>
<trkpt lat="23.267248" lon="116.482341">
<time>2016-10-06T07:41:27Z</time></trkpt>
<trkpt lat="23.267506" lon="116.481689">
<time>2016-10-06T07:41:28Z</time></trkpt>
<trkpt lat="23.267555" lon="116.481569">
<time>2016-10-06T07:41:29Z</time></trkpt>
<trkpt lat="23.267635" lon="116.481388">
<time>2016-10-06T07:41:30Z</time></trkpt>
<trkpt lat="23.267744" lon="116.481097">
<time>2016-10-06T07:41:31Z</time></trkpt>
<trkpt lat="23.267754" lon="116.481077">
<time>2016-10-06T07:41:32Z</time></trkpt>
<trkpt lat="23.267783" lon="116.480987">
<time>2016-10-06T07:41:33Z</time></trkpt>
<trkpt lat="23.268041" lon="116.480305">
<time>2016-10-06T07:41:34Z</time></trkpt>
<trkpt lat="23.268061" lon="116.480254">
<time>2016-10-06T07:41:35Z</time></trkpt>
<trkpt lat="23.268081" lon="116.480194">
<time>2016-10-06T07:41:36Z</time></trkpt>
<trkpt lat="23.268081" lon="116.480194">
<time>2016-10-06T07:41:37Z</time></trkpt>
<trkpt lat="23.268201" lon="116.480194">
<time>2016-10-06T07:41:38Z</time></trkpt>
<trkpt lat="23.268331" lon="116.480184">
<time>2016-10-06T07:41:39Z</time></trkpt>
<trkpt lat="23.268411" lon="116.480174">
<time>2016-10-06T07:41:40Z</time></trkpt>
<trkpt lat="23.268481" lon="116.480154">
<time>2016-10-06T07:41:41Z</time></trkpt>
<trkpt lat="23.268571" lon="116.480124">
<time>2016-10-06T07:41:42Z</time></trkpt>
<trkpt lat="23.268681" lon="116.480084">
<time>2016-10-06T07:41:43Z</time></trkpt>
<trkpt lat="23.26879" lon="116.480044">
<time>2016-10-06T07:41:44Z</time></trkpt>
<trkpt lat="23.2691" lon="116.479923">
<time>2016-10-06T07:41:45Z</time></trkpt>
<trkpt lat="23.269529" lon="116.479753">
<time>2016-10-06T07:41:46Z</time></trkpt>
<trkpt lat="23.269859" lon="116.479622">
<time>2016-10-06T07:41:47Z</time></trkpt>
<trkpt lat="23.270358" lon="116.479392">
<time>2016-10-06T07:41:48Z</time></trkpt>
<trkpt lat="23.270418" lon="116.479372">
<time>2016-10-06T07:41:49Z</time></trkpt>
<trkpt lat="23.270538" lon="116.479301">
<time>2016-10-06T07:41:50Z</time></trkpt>
<trkpt lat="23.270637" lon="116.479251">
<time>2016-10-06T07:41:51Z</time></trkpt>
<trkpt lat="23.270757" lon="116.479161">
<time>2016-10-06T07:41:52Z</time></trkpt>
<trkpt lat="23.270797" lon="116.479121">
<time>2016-10-06T07:41:53Z</time></trkpt>
<trkpt lat="23.270847" lon="116.479081">
<time>2016-10-06T07:41:54Z</time></trkpt>
<trkpt lat="23.270877" lon="116.479051">
<time>2016-10-06T07:41:55Z</time></trkpt>
<trkpt lat="23.270917" lon="116.47901">
<time>2016-10-06T07:41:56Z</time></trkpt>
<trkpt lat="23.270957" lon="116.47895">
<time>2016-10-06T07:41:57Z</time></trkpt>
<trkpt lat="23.270996" lon="116.47889">
<time>2016-10-06T07:41:58Z</time></trkpt>
<trkpt lat="23.271036" lon="116.47881">
<time>2016-10-06T07:41:59Z</time></trkpt>
<trkpt lat="23.271086" lon="116.478689">
<time>2016-10-06T07:42:00Z</time></trkpt>
<trkpt lat="23.271343" lon="116.477897">
<time>2016-10-06T07:42:01Z</time></trkpt>
<trkpt lat="23.27174" lon="116.476623">
<time>2016-10-06T07:42:02Z</time></trkpt>
<trkpt lat="23.271849" lon="116.476332">
<time>2016-10-06T07:42:03Z</time></trkpt>
<trkpt lat="23.271918" lon="116.476132">
<time>2016-10-06T07:42:04Z</time></trkpt>
<trkpt lat="23.271938" lon="116.476091">
<time>2016-10-06T07:42:05Z</time></trkpt>
<trkpt lat="23.272008" lon="116.475931">
<time>2016-10-06T07:42:06Z</time></trkpt>
<trkpt lat="23.272117" lon="116.47574">
<time>2016-10-06T07:42:07Z</time></trkpt>
<trkpt lat="23.272236" lon="116.47553">
<time>2016-10-06T07:42:08Z</time></trkpt>
<trkpt lat="23.272366" lon="116.475329">
<time>2016-10-06T07:42:09Z</time></trkpt>
<trkpt lat="23.272774" lon="116.474727">
<time>2016-10-06T07:42:10Z</time></trkpt>
<trkpt lat="23.273521" lon="116.473634">
<time>2016-10-06T07:42:11Z</time></trkpt>
<trkpt lat="23.273829" lon="116.473122">
<time>2016-10-06T07:42:12Z</time></trkpt>
<trkpt lat="23.274058" lon="116.472651">
<time>2016-10-06T07:42:13Z</time></trkpt>
<trkpt lat="23.274197" lon="116.47233">
<time>2016-10-06T07:42:14Z</time></trkpt>
<trkpt lat="23.274365" lon="116.471919">
<time>2016-10-06T07:42:15Z</time></trkpt>
<trkpt lat="23.274802" lon="116.470886">
<time>2016-10-06T07:42:16Z</time></trkpt>
<trkpt lat="23.274932" lon="116.470625">
<time>2016-10-06T07:42:17Z</time></trkpt>
<trkpt lat="23.275031" lon="116.470444">
<time>2016-10-06T07:42:18Z</time></trkpt>
<trkpt lat="23.27523" lon="116.470173">
<time>2016-10-06T07:42:19Z</time></trkpt>
<trkpt lat="23.27548" lon="116.469893">
<time>2016-10-06T07:42:20Z</time></trkpt>
<trkpt lat="23.275848" lon="116.469461">
<time>2016-10-06T07:42:21Z</time></trkpt>
<trkpt lat="23.277014" lon="116.468157">
<time>2016-10-06T07:42:22Z</time></trkpt>
<trkpt lat="23.277373" lon="116.467756">
<time>2016-10-06T07:42:23Z</time></trkpt>
<trkpt lat="23.277941" lon="116.467114">
<time>2016-10-06T07:42:24Z</time></trkpt>
<trkpt lat="23.27841" lon="116.466593">
<time>2016-10-06T07:42:25Z</time></trkpt>
<trkpt lat="23.279177" lon="116.46571">
<time>2016-10-06T07:42:26Z</time></trkpt>
<trkpt lat="23.279536" lon="116.465309">
<time>2016-10-06T07:42:27Z</time></trkpt>
<trkpt lat="23.279765" lon="116.465058">
<time>2016-10-06T07:42:28Z</time></trkpt>
<trkpt lat="23.280762" lon="116.463915">
<time>2016-10-06T07:42:29Z</time></trkpt>
<trkpt lat="23.281769" lon="116.462782">
<time>2016-10-06T07:42:30Z</time></trkpt>
<trkpt lat="23.282457" lon="116.46201">
<time>2016-10-06T07:42:31Z</time></trkpt>
<trkpt lat="23.283134" lon="116.461228">
<time>2016-10-06T07:42:32Z</time></trkpt>
<trkpt lat="23.283912" lon="116.460335">
<time>2016-10-06T07:42:33Z</time></trkpt>
<trkpt lat="23.28453" lon="116.459633">
<time>2016-10-06T07:42:34Z</time></trkpt>
<trkpt lat="23.284769" lon="116.459372">
<time>2016-10-06T07:42:35Z</time></trkpt>
<trkpt lat="23.285168" lon="116.458911">
<time>2016-10-06T07:42:36Z</time></trkpt>
<trkpt lat="23.286284" lon="116.457638">
<time>2016-10-06T07:42:37Z</time></trkpt>
<trkpt lat="23.286504" lon="116.457387">
<time>2016-10-06T07:42:38Z</time></trkpt>
<trkpt lat="23.286982" lon="116.456866">
<time>2016-10-06T07:42:39Z</time></trkpt>
<trkpt lat="23.287949" lon="116.455773">
<time>2016-10-06T07:42:40Z</time></trkpt>
<trkpt lat="23.288817" lon="116.45481">
<time>2016-10-06T07:42:41Z</time></trkpt>
<trkpt lat="23.289505" lon="116.454048">
<time>2016-10-06T07:42:42Z</time></trkpt>
<trkpt lat="23.289964" lon="116.453537">
<time>2016-10-06T07:42:43Z</time></trkpt>
<trkpt lat="23.290632" lon="116.452775">
<time>2016-10-06T07:42:44Z</time></trkpt>
<trkpt lat="23.291958" lon="116.451291">
<time>2016-10-06T07:42:45Z</time></trkpt>
<trkpt lat="23.292935" lon="116.450169">
<time>2016-10-06T07:42:46Z</time></trkpt>
<trkpt lat="23.293304" lon="116.449717">
<time>2016-10-06T07:42:47Z</time></trkpt>
<trkpt lat="23.293882" lon="116.449016">
<time>2016-10-06T07:42:48Z</time></trkpt>
<trkpt lat="23.294251" lon="116.448575">
<time>2016-10-06T07:42:49Z</time></trkpt>
<trkpt lat="23.294441" lon="116.448344">
<time>2016-10-06T07:42:50Z</time></trkpt>
<trkpt lat="23.295079" lon="116.447522">
<time>2016-10-06T07:42:51Z</time></trkpt>
<trkpt lat="23.295079" lon="116.447522">
<time>2016-10-06T07:42:52Z</time></trkpt>
<trkpt lat="23.294988" lon="116.447332">
<time>2016-10-06T07:42:53Z</time></trkpt>
<trkpt lat="23.295257" lon="116.44673">
<time>2016-10-06T07:42:54Z</time></trkpt>
<trkpt lat="23.295257" lon="116.44673">
<time>2016-10-06T07:42:55Z</time></trkpt>
<trkpt lat="23.294184" lon="116.445247">
<time>2016-10-06T07:42:56Z</time></trkpt>
<trkpt lat="23.292039" lon="116.442301">
<time>2016-10-06T07:42:57Z</time></trkpt>
<trkpt lat="23.291338" lon="116.441339">
<time>2016-10-06T07:42:58Z</time></trkpt>
<trkpt lat="23.290917" lon="116.440758">
<time>2016-10-06T07:42:59Z</time></trkpt>
<trkpt lat="23.289183" lon="116.438323">
<time>2016-10-06T07:43:00Z</time></trkpt>
<trkpt lat="23.289132" lon="116.438223">
<time>2016-10-06T07:43:01Z</time></trkpt>
<trkpt lat="23.289012" lon="116.437952">
<time>2016-10-06T07:43:02Z</time></trkpt>
<trkpt lat="23.288891" lon="116.437652">
<time>2016-10-06T07:43:03Z</time></trkpt>
<trkpt lat="23.288691" lon="116.437081">
<time>2016-10-06T07:43:04Z</time></trkpt>
<trkpt lat="23.28853" lon="116.43663">
<time>2016-10-06T07:43:05Z</time></trkpt>
<trkpt lat="23.28851" lon="116.43657">
<time>2016-10-06T07:43:06Z</time></trkpt>
<trkpt lat="23.28851" lon="116.43657">
<time>2016-10-06T07:43:07Z</time></trkpt>
<trkpt lat="23.287947" lon="116.434907">
<time>2016-10-06T07:43:08Z</time></trkpt>
<trkpt lat="23.287204" lon="116.432723">
<time>2016-10-06T07:43:09Z</time></trkpt>
<trkpt lat="23.286822" lon="116.431531">
<time>2016-10-06T07:43:10Z</time></trkpt>
<trkpt lat="23.286501" lon="116.4306">
<time>2016-10-06T07:43:11Z</time></trkpt>
<trkpt lat="23.2863" lon="116.430149">
<time>2016-10-06T07:43:12Z</time></trkpt>
<trkpt lat="23.28626" lon="116.430049">
<time>2016-10-06T07:43:13Z</time></trkpt>
<trkpt lat="23.285999" lon="116.429438">
<time>2016-10-06T07:43:14Z</time></trkpt>
<trkpt lat="23.285708" lon="116.428747">
<time>2016-10-06T07:43:15Z</time></trkpt>
<trkpt lat="23.285247" lon="116.427725">
<time>2016-10-06T07:43:16Z</time></trkpt>
<trkpt lat="23.284966" lon="116.427114">
<time>2016-10-06T07:43:17Z</time></trkpt>
<trkpt lat="23.284726" lon="116.426644">
<time>2016-10-06T07:43:18Z</time></trkpt>
<trkpt lat="23.284666" lon="116.426514">
<time>2016-10-06T07:43:19Z</time></trkpt>
<trkpt lat="23.284626" lon="116.426363">
<time>2016-10-06T07:43:20Z</time></trkpt>
<trkpt lat="23.284595" lon="116.426173">
<time>2016-10-06T07:43:21Z</time></trkpt>
<trkpt lat="23.284585" lon="116.426033">
<time>2016-10-06T07:43:22Z</time></trkpt>
<trkpt lat="23.284595" lon="116.425943">
<time>2016-10-06T07:43:23Z</time></trkpt>
<trkpt lat="23.284605" lon="116.425923">
<time>2016-10-06T07:43:24Z</time></trkpt>
<trkpt lat="23.284645" lon="116.425742">
<time>2016-10-06T07:43:25Z</time></trkpt>
<trkpt lat="23.284704" lon="116.425552">
<time>2016-10-06T07:43:26Z</time></trkpt>
<trkpt lat="23.284754" lon="116.425372">
<time>2016-10-06T07:43:27Z</time></trkpt>
<trkpt lat="23.284774" lon="116.425172">
<time>2016-10-06T07:43:28Z</time></trkpt>
<trkpt lat="23.284813" lon="116.424501">
<time>2016-10-06T07:43:29Z</time></trkpt>
<trkpt lat="23.284823" lon="116.424381">
<time>2016-10-06T07:43:30Z</time></trkpt>
<trkpt lat="23.284803" lon="116.42421">
<time>2016-10-06T07:43:31Z</time></trkpt>
<trkpt lat="23.284753" lon="116.42406">
<time>2016-10-06T07:43:32Z</time></trkpt>
<trkpt lat="23.284592" lon="116.42376">
<time>2016-10-06T07:43:33Z</time></trkpt>
<trkpt lat="23.284552" lon="116.42364">
<time>2016-10-06T07:43:34Z</time></trkpt>
<trkpt lat="23.284562" lon="116.423539">
<time>2016-10-06T07:43:35Z</time></trkpt>
<trkpt lat="23.284592" lon="116.423449">
<time>2016-10-06T07:43:36Z</time></trkpt>
<trkpt lat="23.284722" lon="116.423149">
<time>2016-10-06T07:43:37Z</time></trkpt>
<trkpt lat="23.284841" lon="116.422889">
<time>2016-10-06T07:43:38Z</time></trkpt>
<trkpt lat="23.284901" lon="116.422668">
<time>2016-10-06T07:43:39Z</time></trkpt>
<trkpt lat="23.284921" lon="116.422468">
<time>2016-10-06T07:43:40Z</time></trkpt>
<trkpt lat="23.284971" lon="116.422308">
<time>2016-10-06T07:43:41Z</time></trkpt>
<trkpt lat="23.28502" lon="116.422188">
<time>2016-10-06T07:43:42Z</time></trkpt>
<trkpt lat="23.28513" lon="116.422058">
<time>2016-10-06T07:43:43Z</time></trkpt>
<trkpt lat="23.286189" lon="116.421096">
<time>2016-10-06T07:43:44Z</time></trkpt>
<trkpt lat="23.286698" lon="116.420606">
<time>2016-10-06T07:43:45Z</time></trkpt>
<trkpt lat="23.287477" lon="116.419895">
<time>2016-10-06T07:43:46Z</time></trkpt>
<trkpt lat="23.287657" lon="116.419735">
<time>2016-10-06T07:43:47Z</time></trkpt>
<trkpt lat="23.287717" lon="116.419675">
<time>2016-10-06T07:43:48Z</time></trkpt>
<trkpt lat="23.287717" lon="116.419675">
<time>2016-10-06T07:43:49Z</time></trkpt>
<trkpt lat="23.289205" lon="116.418343">
<time>2016-10-06T07:43:50Z</time></trkpt>
<trkpt lat="23.290394" lon="116.417372">
<time>2016-10-06T07:43:51Z</time></trkpt>
<trkpt lat="23.292172" lon="116.416011">
<time>2016-10-06T07:43:52Z</time></trkpt>
<trkpt lat="23.293042" lon="116.41533">
<time>2016-10-06T07:43:53Z</time></trkpt>
<trkpt lat="23.293561" lon="116.414929">
<time>2016-10-06T07:43:54Z</time></trkpt>
<trkpt lat="23.29445" lon="116.414269">
<time>2016-10-06T07:43:55Z</time></trkpt>
<trkpt lat="23.29481" lon="116.413979">
<time>2016-10-06T07:43:56Z</time></trkpt>
<trkpt lat="23.29481" lon="116.413979">
<time>2016-10-06T07:43:57Z</time></trkpt>
<trkpt lat="23.29517" lon="116.413718">
<time>2016-10-06T07:43:58Z</time></trkpt>
<trkpt lat="23.29517" lon="116.413718">
<time>2016-10-06T07:43:59Z</time></trkpt>
<trkpt lat="23.295029" lon="116.412698">
<time>2016-10-06T07:44:00Z</time></trkpt>
<trkpt lat="23.294949" lon="116.412167">
<time>2016-10-06T07:44:01Z</time></trkpt>
<trkpt lat="23.294768" lon="116.411266">
<time>2016-10-06T07:44:02Z</time></trkpt>
<trkpt lat="23.294688" lon="116.410746">
<time>2016-10-06T07:44:03Z</time></trkpt>
<trkpt lat="23.294578" lon="116.410066">
<time>2016-10-06T07:44:04Z</time></trkpt>
<trkpt lat="23.294467" lon="116.409465">
<time>2016-10-06T07:44:05Z</time></trkpt>
<trkpt lat="23.294397" lon="116.409005">
<time>2016-10-06T07:44:06Z</time></trkpt>
<trkpt lat="23.294167" lon="116.407764">
<time>2016-10-06T07:44:07Z</time></trkpt>
<trkpt lat="23.293976" lon="116.406434">
<time>2016-10-06T07:44:08Z</time></trkpt>
<trkpt lat="23.293866" lon="116.405803">
<time>2016-10-06T07:44:09Z</time></trkpt>
<trkpt lat="23.293866" lon="116.405803">
<time>2016-10-06T07:44:10Z</time></trkpt>
<trkpt lat="23.293736" lon="116.405043">
<time>2016-10-06T07:44:11Z</time></trkpt>
<trkpt lat="23.293635" lon="116.404423">
<time>2016-10-06T07:44:12Z</time></trkpt>
<trkpt lat="23.293515" lon="116.403743">
<time>2016-10-06T07:44:13Z</time></trkpt>
<trkpt lat="23.293365" lon="116.402792">
<time>2016-10-06T07:44:14Z</time></trkpt>
<trkpt lat="23.293315" lon="116.400572">
<time>2016-10-06T07:44:15Z</time></trkpt>
<trkpt lat="23.293325" lon="116.399942">
<time>2016-10-06T07:44:16Z</time></trkpt>
<trkpt lat="23.293324" lon="116.399141">
<time>2016-10-06T07:44:17Z</time></trkpt>
<trkpt lat="23.293324" lon="116.398431">
<time>2016-10-06T07:44:18Z</time></trkpt>
<trkpt lat="23.293314" lon="116.397321">
<time>2016-10-06T07:44:19Z</time></trkpt>
<trkpt lat="23.293335" lon="116.395421">
<time>2016-10-06T07:44:20Z</time></trkpt>
<trkpt lat="23.293335" lon="116.394751">
<time>2016-10-06T07:44:21Z</time></trkpt>
<trkpt lat="23.293355" lon="116.392002">
<time>2016-10-06T07:44:22Z</time></trkpt>
<trkpt lat="23.293345" lon="116.391432">
<time>2016-10-06T07:44:23Z</time></trkpt>
<trkpt lat="23.293316" lon="116.388123">
<time>2016-10-06T07:44:24Z</time></trkpt>
<trkpt lat="23.293307" lon="116.387623">
<time>2016-10-06T07:44:25Z</time></trkpt>
<trkpt lat="23.293317" lon="116.387213">
<time>2016-10-06T07:44:26Z</time></trkpt>
<trkpt lat="23.293338" lon="116.385104">
<time>2016-10-06T07:44:27Z</time></trkpt>
<trkpt lat="23.293358" lon="116.384404">
<time>2016-10-06T07:44:28Z</time></trkpt>
<trkpt lat="23.29344" lon="116.382036">
<time>2016-10-06T07:44:29Z</time></trkpt>
<trkpt lat="23.293501" lon="116.379947">
<time>2016-10-06T07:44:30Z</time></trkpt>
<trkpt lat="23.293521" lon="116.379857">
<time>2016-10-06T07:44:31Z</time></trkpt>
<trkpt lat="23.293541" lon="116.379787">
<time>2016-10-06T07:44:32Z</time></trkpt>
<trkpt lat="23.293561" lon="116.379727">
<time>2016-10-06T07:44:33Z</time></trkpt>
<trkpt lat="23.293591" lon="116.379627">
<time>2016-10-06T07:44:34Z</time></trkpt>
<trkpt lat="23.293651" lon="116.379507">
<time>2016-10-06T07:44:35Z</time></trkpt>
<trkpt lat="23.293821" lon="116.379097">
<time>2016-10-06T07:44:36Z</time></trkpt>
<trkpt lat="23.294102" lon="116.378658">
<time>2016-10-06T07:44:37Z</time></trkpt>
<trkpt lat="23.294102" lon="116.378658">
<time>2016-10-06T07:44:38Z</time></trkpt>
<trkpt lat="23.294182" lon="116.378578">
<time>2016-10-06T07:44:39Z</time></trkpt>
<trkpt lat="23.294352" lon="116.378208">
<time>2016-10-06T07:44:40Z</time></trkpt>
<trkpt lat="23.294863" lon="116.377169">
<time>2016-10-06T07:44:41Z</time></trkpt>
<trkpt lat="23.295223" lon="116.376419">
<time>2016-10-06T07:44:42Z</time></trkpt>
<trkpt lat="23.295564" lon="116.37568">
<time>2016-10-06T07:44:43Z</time></trkpt>
<trkpt lat="23.295624" lon="116.37556">
<time>2016-10-06T07:44:44Z</time></trkpt>
<trkpt lat="23.295884" lon="116.374991">
<time>2016-10-06T07:44:45Z</time></trkpt>
<trkpt lat="23.295914" lon="116.374941">
<time>2016-10-06T07:44:46Z</time></trkpt>
<trkpt lat="23.296155" lon="116.374431">
<time>2016-10-06T07:44:47Z</time></trkpt>
<trkpt lat="23.296405" lon="116.373882">
<time>2016-10-06T07:44:48Z</time></trkpt>
<trkpt lat="23.296656" lon="116.373342">
<time>2016-10-06T07:44:49Z</time></trkpt>
<trkpt lat="23.296976" lon="116.372633">
<time>2016-10-06T07:44:50Z</time></trkpt>
<trkpt lat="23.297076" lon="116.372423">
<time>2016-10-06T07:44:51Z</time></trkpt>
<trkpt lat="23.297207" lon="116.372133">
<time>2016-10-06T07:44:52Z</time></trkpt>
<trkpt lat="23.297317" lon="116.371894">
<time>2016-10-06T07:44:53Z</time></trkpt>
<trkpt lat="23.297497" lon="116.371504">
<time>2016-10-06T07:44:54Z</time></trkpt>
<trkpt lat="23.297748" lon="116.370964">
<time>2016-10-06T07:44:55Z</time></trkpt>
<trkpt lat="23.297988" lon="116.370435">
<time>2016-10-06T07:44:56Z</time></trkpt>
<trkpt lat="23.298239" lon="116.369916">
<time>2016-10-06T07:44:57Z</time></trkpt>
<trkpt lat="23.298379" lon="116.369596">
<time>2016-10-06T07:44:58Z</time></trkpt>
<trkpt lat="23.298449" lon="116.369336">
<time>2016-10-06T07:44:59Z</time></trkpt>
<trkpt lat="23.29874" lon="116.368767">
<time>2016-10-06T07:45:00Z</time></trkpt>
<trkpt lat="23.29881" lon="116.368647">
<time>2016-10-06T07:45:01Z</time></trkpt>
<trkpt lat="23.29898" lon="116.368397">
<time>2016-10-06T07:45:02Z</time></trkpt>
<trkpt lat="23.2991" lon="116.368247">
<time>2016-10-06T07:45:03Z</time></trkpt>
<trkpt lat="23.2991" lon="116.368237">
<time>2016-10-06T07:45:04Z</time></trkpt>
<trkpt lat="23.299441" lon="116.367818">
<time>2016-10-06T07:45:05Z</time></trkpt>
<trkpt lat="23.299671" lon="116.367548">
<time>2016-10-06T07:45:06Z</time></trkpt>
<trkpt lat="23.299921" lon="116.367258">
<time>2016-10-06T07:45:07Z</time></trkpt>
<trkpt lat="23.300182" lon="116.366939">
<time>2016-10-06T07:45:08Z</time></trkpt>
<trkpt lat="23.300182" lon="116.366939">
<time>2016-10-06T07:45:09Z</time></trkpt>
<trkpt lat="23.300892" lon="116.36608">
<time>2016-10-06T07:45:10Z</time></trkpt>
<trkpt lat="23.301153" lon="116.3658">
<time>2016-10-06T07:45:11Z</time></trkpt>
<trkpt lat="23.302054" lon="116.364851">
<time>2016-10-06T07:45:12Z</time></trkpt>
<trkpt lat="23.302995" lon="116.363852">
<time>2016-10-06T07:45:13Z</time></trkpt>
<trkpt lat="23.303025" lon="116.363822">
<time>2016-10-06T07:45:14Z</time></trkpt>
<trkpt lat="23.303365" lon="116.363523">
<time>2016-10-06T07:45:15Z</time></trkpt>
<trkpt lat="23.305296" lon="116.362085">
<time>2016-10-06T07:45:16Z</time></trkpt>
<trkpt lat="23.306607" lon="116.361106">
<time>2016-10-06T07:45:17Z</time></trkpt>
<trkpt lat="23.307488" lon="116.360417">
<time>2016-10-06T07:45:18Z</time></trkpt>
<trkpt lat="23.307678" lon="116.360267">
<time>2016-10-06T07:45:19Z</time></trkpt>
<trkpt lat="23.307808" lon="116.360167">
<time>2016-10-06T07:45:20Z</time></trkpt>
<trkpt lat="23.308039" lon="116.359977">
<time>2016-10-06T07:45:21Z</time></trkpt>
<trkpt lat="23.308699" lon="116.359508">
<time>2016-10-06T07:45:22Z</time></trkpt>
<trkpt lat="23.309079" lon="116.359168">
<time>2016-10-06T07:45:23Z</time></trkpt>
<trkpt lat="23.30938" lon="116.358899">
<time>2016-10-06T07:45:24Z</time></trkpt>
<trkpt lat="23.30949" lon="116.358809">
<time>2016-10-06T07:45:25Z</time></trkpt>
<trkpt lat="23.30989" lon="116.358489">
<time>2016-10-06T07:45:26Z</time></trkpt>
<trkpt lat="23.311311" lon="116.357381">
<time>2016-10-06T07:45:27Z</time></trkpt>
<trkpt lat="23.312442" lon="116.356492">
<time>2016-10-06T07:45:28Z</time></trkpt>
<trkpt lat="23.313163" lon="116.355853">
<time>2016-10-06T07:45:29Z</time></trkpt>
<trkpt lat="23.315126" lon="116.353656">
<time>2016-10-06T07:45:30Z</time></trkpt>
<trkpt lat="23.316328" lon="116.352248">
<time>2016-10-06T07:45:31Z</time></trkpt>
<trkpt lat="23.318221" lon="116.350072">
<time>2016-10-06T07:45:32Z</time></trkpt>
<trkpt lat="23.318231" lon="116.350052">
<time>2016-10-06T07:45:33Z</time></trkpt>
<trkpt lat="23.318361" lon="116.349912">
<time>2016-10-06T07:45:34Z</time></trkpt>
<trkpt lat="23.319443" lon="116.348604">
<time>2016-10-06T07:45:35Z</time></trkpt>
<trkpt lat="23.319443" lon="116.348604">
<time>2016-10-06T07:45:36Z</time></trkpt>
<trkpt lat="23.320014" lon="116.347915">
<time>2016-10-06T07:45:37Z</time></trkpt>
<trkpt lat="23.320234" lon="116.347646">
<time>2016-10-06T07:45:38Z</time></trkpt>
<trkpt lat="23.320234" lon="116.347646">
<time>2016-10-06T07:45:39Z</time></trkpt>
<trkpt lat="23.321113" lon="116.348454">
<time>2016-10-06T07:45:40Z</time></trkpt>
<trkpt lat="23.321113" lon="116.348454">
<time>2016-10-06T07:45:41Z</time></trkpt>
<trkpt lat="23.321303" lon="116.348165">
<time>2016-10-06T07:45:42Z</time></trkpt>
<trkpt lat="23.321333" lon="116.348115">
<time>2016-10-06T07:45:43Z</time></trkpt>
<trkpt lat="23.321504" lon="116.347645">
<time>2016-10-06T07:45:44Z</time></trkpt>
<trkpt lat="23.321574" lon="116.347496">
<time>2016-10-06T07:45:45Z</time></trkpt>
<trkpt lat="23.321644" lon="116.347406">
<time>2016-10-06T07:45:46Z</time></trkpt>
<trkpt lat="23.321915" lon="116.347136">
<time>2016-10-06T07:45:47Z</time></trkpt>
<trkpt lat="23.322045" lon="116.347026">
<time>2016-10-06T07:45:48Z</time></trkpt>
<trkpt lat="23.322155" lon="116.346957">
<time>2016-10-06T07:45:49Z</time></trkpt>
<trkpt lat="23.322275" lon="116.346887">
<time>2016-10-06T07:45:50Z</time></trkpt>
<trkpt lat="23.322425" lon="116.346787">
<time>2016-10-06T07:45:51Z</time></trkpt>
<trkpt lat="23.322465" lon="116.346757">
<time>2016-10-06T07:45:52Z</time></trkpt>
<trkpt lat="23.322525" lon="116.346697">
<time>2016-10-06T07:45:53Z</time></trkpt>
<trkpt lat="23.322606" lon="116.346587">
<time>2016-10-06T07:45:54Z</time></trkpt>
<trkpt lat="23.322726" lon="116.346417">
<time>2016-10-06T07:45:55Z</time></trkpt>
<trkpt lat="23.323067" lon="116.345938">
<time>2016-10-06T07:45:56Z</time></trkpt>
<trkpt lat="23.323117" lon="116.345858">
<time>2016-10-06T07:45:57Z</time></trkpt>
<trkpt lat="23.323217" lon="116.345779">
<time>2016-10-06T07:45:58Z</time></trkpt>
<trkpt lat="23.323257" lon="116.345759">
<time>2016-10-06T07:45:59Z</time></trkpt>
<trkpt lat="23.323337" lon="116.345749">
<time>2016-10-06T07:46:00Z</time></trkpt>
<trkpt lat="23.323397" lon="116.345749">
<time>2016-10-06T07:46:01Z</time></trkpt>
<trkpt lat="23.323667" lon="116.345828">
<time>2016-10-06T07:46:02Z</time></trkpt>
<trkpt lat="23.323727" lon="116.345838">
<time>2016-10-06T07:46:03Z</time></trkpt>
<trkpt lat="23.323967" lon="116.345838">
<time>2016-10-06T07:46:04Z</time></trkpt>
<trkpt lat="23.324156" lon="116.345858">
<time>2016-10-06T07:46:05Z</time></trkpt>
<trkpt lat="23.324266" lon="116.345878">
<time>2016-10-06T07:46:06Z</time></trkpt>
<trkpt lat="23.324516" lon="116.345948">
<time>2016-10-06T07:46:07Z</time></trkpt>
<trkpt lat="23.324586" lon="116.345968">
<time>2016-10-06T07:46:08Z</time></trkpt>
<trkpt lat="23.324626" lon="116.345968">
<time>2016-10-06T07:46:09Z</time></trkpt>
<trkpt lat="23.324886" lon="116.345908">
<time>2016-10-06T07:46:10Z</time></trkpt>
<trkpt lat="23.324996" lon="116.345878">
<time>2016-10-06T07:46:11Z</time></trkpt>
<trkpt lat="23.325036" lon="116.345758">
<time>2016-10-06T07:46:12Z</time></trkpt>
<trkpt lat="23.325137" lon="116.345479">
<time>2016-10-06T07:46:13Z</time></trkpt>
<trkpt lat="23.325157" lon="116.345409">
<time>2016-10-06T07:46:14Z</time></trkpt>
<trkpt lat="23.325157" lon="116.345399">
<time>2016-10-06T07:46:15Z</time></trkpt>
<trkpt lat="23.325298" lon="116.34506">
<time>2016-10-06T07:46:16Z</time></trkpt>
<trkpt lat="23.325348" lon="116.34494">
<time>2016-10-06T07:46:17Z</time></trkpt>
<trkpt lat="23.325358" lon="116.34488">
<time>2016-10-06T07:46:18Z</time></trkpt>
<trkpt lat="23.325368" lon="116.34473">
<time>2016-10-06T07:46:19Z</time></trkpt>
<trkpt lat="23.325388" lon="116.344521">
<time>2016-10-06T07:46:20Z</time></trkpt>
<trkpt lat="23.325389" lon="116.344381">
<time>2016-10-06T07:46:21Z</time></trkpt>
<trkpt lat="23.325389" lon="116.344281">
<time>2016-10-06T07:46:22Z</time></trkpt>
<trkpt lat="23.325379" lon="116.344251">
<time>2016-10-06T07:46:23Z</time></trkpt>
<trkpt lat="23.325379" lon="116.344211">
<time>2016-10-06T07:46:24Z</time></trkpt>
<trkpt lat="23.325379" lon="116.344201">
<time>2016-10-06T07:46:25Z</time></trkpt>
<trkpt lat="23.325379" lon="116.344201">
<time>2016-10-06T07:46:26Z</time></trkpt>
<trkpt lat="23.326009" lon="116.344341">
<time>2016-10-06T07:46:27Z</time></trkpt>
<trkpt lat="23.326009" lon="116.344341">
<time>2016-10-06T07:46:28Z</time></trkpt>
<trkpt lat="23.3263" lon="116.343392">
<time>2016-10-06T07:46:29Z</time></trkpt>
<trkpt lat="23.3263" lon="116.343392">
<time>2016-10-06T07:46:30Z</time></trkpt>
<trkpt lat="23.328428" lon="116.344181">
<time>2016-10-06T07:46:31Z</time></trkpt>
<trkpt lat="23.328428" lon="116.344181">
<time>2016-10-06T07:46:32Z</time></trkpt>
<trkpt lat="23.328639" lon="116.343552">
<time>2016-10-06T07:46:33Z</time></trkpt>
<trkpt lat="23.32883" lon="116.342943">
<time>2016-10-06T07:46:34Z</time></trkpt>
<trkpt lat="23.329021" lon="116.342364">
<time>2016-10-06T07:46:35Z</time></trkpt>
<trkpt lat="23.329242" lon="116.341685">
<time>2016-10-06T07:46:36Z</time></trkpt>
<trkpt lat="23.329283" lon="116.341575">
<time>2016-10-06T07:46:37Z</time></trkpt>
<trkpt lat="23.329444" lon="116.340937">
<time>2016-10-06T07:46:38Z</time></trkpt>
<trkpt lat="23.329544" lon="116.340537">
<time>2016-10-06T07:46:39Z</time></trkpt>
<trkpt lat="23.329917" lon="116.33909">
<time>2016-10-06T07:46:40Z</time></trkpt>
<trkpt lat="23.330068" lon="116.338601">
<time>2016-10-06T07:46:41Z</time></trkpt>
<trkpt lat="23.330239" lon="116.338092">
<time>2016-10-06T07:46:42Z</time></trkpt>
<trkpt lat="23.3304" lon="116.337593">
<time>2016-10-06T07:46:43Z</time></trkpt>
<trkpt lat="23.33055" lon="116.337114">
<time>2016-10-06T07:46:44Z</time></trkpt>
<trkpt lat="23.330711" lon="116.336624">
<time>2016-10-06T07:46:45Z</time></trkpt>
<trkpt lat="23.330872" lon="116.336125">
<time>2016-10-06T07:46:46Z</time></trkpt>
<trkpt lat="23.330943" lon="116.335876">
<time>2016-10-06T07:46:47Z</time></trkpt>
<trkpt lat="23.331023" lon="116.335656">
<time>2016-10-06T07:46:48Z</time></trkpt>
<trkpt lat="23.331144" lon="116.335267">
<time>2016-10-06T07:46:49Z</time></trkpt>
<trkpt lat="23.331315" lon="116.334758">
<time>2016-10-06T07:46:50Z</time></trkpt>
<trkpt lat="23.331475" lon="116.334279">
<time>2016-10-06T07:46:51Z</time></trkpt>
<trkpt lat="23.331636" lon="116.33378">
<time>2016-10-06T07:46:52Z</time></trkpt>
<trkpt lat="23.331797" lon="116.333291">
<time>2016-10-06T07:46:53Z</time></trkpt>
<trkpt lat="23.332008" lon="116.332762">
<time>2016-10-06T07:46:54Z</time></trkpt>
<trkpt lat="23.332129" lon="116.332442">
<time>2016-10-06T07:46:55Z</time></trkpt>
<trkpt lat="23.33233" lon="116.331943">
<time>2016-10-06T07:46:56Z</time></trkpt>
<trkpt lat="23.33249" lon="116.331524">
<time>2016-10-06T07:46:57Z</time></trkpt>
<trkpt lat="23.332691" lon="116.331015">
<time>2016-10-06T07:46:58Z</time></trkpt>
<trkpt lat="23.333194" lon="116.329737">
<time>2016-10-06T07:46:59Z</time></trkpt>
<trkpt lat="23.333324" lon="116.329388">
<time>2016-10-06T07:47:00Z</time></trkpt>
<trkpt lat="23.333636" lon="116.328629">
<time>2016-10-06T07:47:01Z</time></trkpt>
<trkpt lat="23.333636" lon="116.328629">
<time>2016-10-06T07:47:02Z</time></trkpt>
<trkpt lat="23.334731" lon="116.325904">
<time>2016-10-06T07:47:03Z</time></trkpt>
<trkpt lat="23.334841" lon="116.325655">
<time>2016-10-06T07:47:04Z</time></trkpt>
<trkpt lat="23.334992" lon="116.325246">
<time>2016-10-06T07:47:05Z</time></trkpt>
<trkpt lat="23.335163" lon="116.324757">
<time>2016-10-06T07:47:06Z</time></trkpt>
<trkpt lat="23.335243" lon="116.324397">
<time>2016-10-06T07:47:07Z</time></trkpt>
<trkpt lat="23.335314" lon="116.324078">
<time>2016-10-06T07:47:08Z</time></trkpt>
<trkpt lat="23.335385" lon="116.323689">
<time>2016-10-06T07:47:09Z</time></trkpt>
<trkpt lat="23.335465" lon="116.323449">
<time>2016-10-06T07:47:10Z</time></trkpt>
<trkpt lat="23.335556" lon="116.32307">
<time>2016-10-06T07:47:11Z</time></trkpt>
<trkpt lat="23.335666" lon="116.32268">
<time>2016-10-06T07:47:12Z</time></trkpt>
<trkpt lat="23.335797" lon="116.322241">
<time>2016-10-06T07:47:13Z</time></trkpt>
<trkpt lat="23.335918" lon="116.321832">
<time>2016-10-06T07:47:14Z</time></trkpt>
<trkpt lat="23.335918" lon="116.321802">
<time>2016-10-06T07:47:15Z</time></trkpt>
<trkpt lat="23.335948" lon="116.321732">
<time>2016-10-06T07:47:16Z</time></trkpt>
<trkpt lat="23.336069" lon="116.321533">
<time>2016-10-06T07:47:17Z</time></trkpt>
<trkpt lat="23.336149" lon="116.321213">
<time>2016-10-06T07:47:18Z</time></trkpt>
<trkpt lat="23.33624" lon="116.320814">
<time>2016-10-06T07:47:19Z</time></trkpt>
<trkpt lat="23.336331" lon="116.320395">
<time>2016-10-06T07:47:20Z</time></trkpt>
<trkpt lat="23.336461" lon="116.320075">
<time>2016-10-06T07:47:21Z</time></trkpt>
<trkpt lat="23.336713" lon="116.319137">
<time>2016-10-06T07:47:22Z</time></trkpt>
<trkpt lat="23.337015" lon="116.318039">
<time>2016-10-06T07:47:23Z</time></trkpt>
<trkpt lat="23.337136" lon="116.31757">
<time>2016-10-06T07:47:24Z</time></trkpt>
<trkpt lat="23.337368" lon="116.316682">
<time>2016-10-06T07:47:25Z</time></trkpt>
<trkpt lat="23.337508" lon="116.316163">
<time>2016-10-06T07:47:26Z</time></trkpt>
<trkpt lat="23.337589" lon="116.315823">
<time>2016-10-06T07:47:27Z</time></trkpt>
<trkpt lat="23.33768" lon="116.315444">
<time>2016-10-06T07:47:28Z</time></trkpt>
<trkpt lat="23.337821" lon="116.314825">
<time>2016-10-06T07:47:29Z</time></trkpt>
<trkpt lat="23.338093" lon="116.313787">
<time>2016-10-06T07:47:30Z</time></trkpt>
<trkpt lat="23.338193" lon="116.313458">
<time>2016-10-06T07:47:31Z</time></trkpt>
<trkpt lat="23.338284" lon="116.313208">
<time>2016-10-06T07:47:32Z</time></trkpt>
<trkpt lat="23.338414" lon="116.312849">
<time>2016-10-06T07:47:33Z</time></trkpt>
<trkpt lat="23.338535" lon="116.312559">
<time>2016-10-06T07:47:34Z</time></trkpt>
<trkpt lat="23.338645" lon="116.31231">
<time>2016-10-06T07:47:35Z</time></trkpt>
<trkpt lat="23.338726" lon="116.31214">
<time>2016-10-06T07:47:36Z</time></trkpt>
<trkpt lat="23.338796" lon="116.312">
<time>2016-10-06T07:47:37Z</time></trkpt>
<trkpt lat="23.338876" lon="116.311881">
<time>2016-10-06T07:47:38Z</time></trkpt>
<trkpt lat="23.338946" lon="116.311771">
<time>2016-10-06T07:47:39Z</time></trkpt>
<trkpt lat="23.339177" lon="116.311471">
<time>2016-10-06T07:47:40Z</time></trkpt>
<trkpt lat="23.339989" lon="116.310483">
<time>2016-10-06T07:47:41Z</time></trkpt>
<trkpt lat="23.340399" lon="116.309994">
<time>2016-10-06T07:47:42Z</time></trkpt>
<trkpt lat="23.34055" lon="116.309814">
<time>2016-10-06T07:47:43Z</time></trkpt>
<trkpt lat="23.341321" lon="116.308876">
<time>2016-10-06T07:47:44Z</time></trkpt>
<trkpt lat="23.342043" lon="116.307957">
<time>2016-10-06T07:47:45Z</time></trkpt>
<trkpt lat="23.342303" lon="116.307598">
<time>2016-10-06T07:47:46Z</time></trkpt>
<trkpt lat="23.342514" lon="116.307319">
<time>2016-10-06T07:47:47Z</time></trkpt>
<trkpt lat="23.342664" lon="116.307109">
<time>2016-10-06T07:47:48Z</time></trkpt>
<trkpt lat="23.342724" lon="116.307019">
<time>2016-10-06T07:47:49Z</time></trkpt>
<trkpt lat="23.342834" lon="116.306859">
<time>2016-10-06T07:47:50Z</time></trkpt>
<trkpt lat="23.342855" lon="116.306829">
<time>2016-10-06T07:47:51Z</time></trkpt>
<trkpt lat="23.342875" lon="116.306799">
<time>2016-10-06T07:47:52Z</time></trkpt>
<trkpt lat="23.342885" lon="116.306789">
<time>2016-10-06T07:47:53Z</time></trkpt>
<trkpt lat="23.342895" lon="116.306769">
<time>2016-10-06T07:47:54Z</time></trkpt>
<trkpt lat="23.342975" lon="116.30667">
<time>2016-10-06T07:47:55Z</time></trkpt>
<trkpt lat="23.343306" lon="116.30621">
<time>2016-10-06T07:47:56Z</time></trkpt>
<trkpt lat="23.343456" lon="116.306001">
<time>2016-10-06T07:47:57Z</time></trkpt>
<trkpt lat="23.343546" lon="116.305871">
<time>2016-10-06T07:47:58Z</time></trkpt>
<trkpt lat="23.343616" lon="116.305751">
<time>2016-10-06T07:47:59Z</time></trkpt>
<trkpt lat="23.343797" lon="116.305432">
<time>2016-10-06T07:48:00Z</time></trkpt>
<trkpt lat="23.344058" lon="116.304933">
<time>2016-10-06T07:48:01Z</time></trkpt>
<trkpt lat="23.344298" lon="116.304463">
<time>2016-10-06T07:48:02Z</time></trkpt>
<trkpt lat="23.344419" lon="116.304224">
<time>2016-10-06T07:48:03Z</time></trkpt>
<trkpt lat="23.344479" lon="116.304074">
<time>2016-10-06T07:48:04Z</time></trkpt>
<trkpt lat="23.3448" lon="116.303495">
<time>2016-10-06T07:48:05Z</time></trkpt>
<trkpt lat="23.34491" lon="116.303245">
<time>2016-10-06T07:48:06Z</time></trkpt>
<trkpt lat="23.344991" lon="116.303086">
<time>2016-10-06T07:48:07Z</time></trkpt>
<trkpt lat="23.345221" lon="116.302656">
<time>2016-10-06T07:48:08Z</time></trkpt>
<trkpt lat="23.345221" lon="116.302656">
<time>2016-10-06T07:48:09Z</time></trkpt>
<trkpt lat="23.346031" lon="116.302786">
<time>2016-10-06T07:48:10Z</time></trkpt>
<trkpt lat="23.346031" lon="116.302786">
<time>2016-10-06T07:48:11Z</time></trkpt>
<trkpt lat="23.346445" lon="116.30064">
<time>2016-10-06T07:48:12Z</time></trkpt>
<trkpt lat="23.346989" lon="116.297794">
<time>2016-10-06T07:48:13Z</time></trkpt>
<trkpt lat="23.34706" lon="116.297385">
<time>2016-10-06T07:48:14Z</time></trkpt>
<trkpt lat="23.347382" lon="116.295917">
<time>2016-10-06T07:48:15Z</time></trkpt>
<trkpt lat="23.347483" lon="116.295418">
<time>2016-10-06T07:48:16Z</time></trkpt>
<trkpt lat="23.347533" lon="116.295258">
<time>2016-10-06T07:48:17Z</time></trkpt>
<trkpt lat="23.347584" lon="116.295109">
<time>2016-10-06T07:48:18Z</time></trkpt>
<trkpt lat="23.348707" lon="116.292522">
<time>2016-10-06T07:48:19Z</time></trkpt>
<trkpt lat="23.348758" lon="116.292363">
<time>2016-10-06T07:48:20Z</time></trkpt>
<trkpt lat="23.348808" lon="116.292233">
<time>2016-10-06T07:48:21Z</time></trkpt>
<trkpt lat="23.348828" lon="116.292123">
<time>2016-10-06T07:48:22Z</time></trkpt>
<trkpt lat="23.348838" lon="116.292003">
<time>2016-10-06T07:48:23Z</time></trkpt>
<trkpt lat="23.348848" lon="116.291883">
<time>2016-10-06T07:48:24Z</time></trkpt>
<trkpt lat="23.348829" lon="116.291734">
<time>2016-10-06T07:48:25Z</time></trkpt>
<trkpt lat="23.348809" lon="116.291604">
<time>2016-10-06T07:48:26Z</time></trkpt>
<trkpt lat="23.348779" lon="116.291454">
<time>2016-10-06T07:48:27Z</time></trkpt>
<trkpt lat="23.348699" lon="116.291184">
<time>2016-10-06T07:48:28Z</time></trkpt>
<trkpt lat="23.34868" lon="116.291124">
<time>2016-10-06T07:48:29Z</time></trkpt>
<trkpt lat="23.34867" lon="116.291094">
<time>2016-10-06T07:48:30Z</time></trkpt>
<trkpt lat="23.34866" lon="116.291064">
<time>2016-10-06T07:48:31Z</time></trkpt>
<trkpt lat="23.34865" lon="116.291035">
<time>2016-10-06T07:48:32Z</time></trkpt>
<trkpt lat="23.34863" lon="116.291015">
<time>2016-10-06T07:48:33Z</time></trkpt>
<trkpt lat="23.34862" lon="116.290985">
<time>2016-10-06T07:48:34Z</time></trkpt>
<trkpt lat="23.3486" lon="116.290965">
<time>2016-10-06T07:48:35Z</time></trkpt>
<trkpt lat="23.34857" lon="116.290945">
<time>2016-10-06T07:48:36Z</time></trkpt>
<trkpt lat="23.34852" lon="116.290905">
<time>2016-10-06T07:48:37Z</time></trkpt>
<trkpt lat="23.34847" lon="116.290855">
<time>2016-10-06T07:48:38Z</time></trkpt>
<trkpt lat="23.34838" lon="116.290775">
<time>2016-10-06T07:48:39Z</time></trkpt>
<trkpt lat="23.34832" lon="116.290715">
<time>2016-10-06T07:48:40Z</time></trkpt>
<trkpt lat="23.34827" lon="116.290645">
<time>2016-10-06T07:48:41Z</time></trkpt>
<trkpt lat="23.347642" lon="116.289836">
<time>2016-10-06T07:48:42Z</time></trkpt>
<trkpt lat="23.347412" lon="116.289517">
<time>2016-10-06T07:48:43Z</time></trkpt>
<trkpt lat="23.347173" lon="116.289147">
<time>2016-10-06T07:48:44Z</time></trkpt>
<trkpt lat="23.346963" lon="116.288798">
<time>2016-10-06T07:48:45Z</time></trkpt>
<trkpt lat="23.346744" lon="116.288368">
<time>2016-10-06T07:48:46Z</time></trkpt>
<trkpt lat="23.346684" lon="116.288229">
<time>2016-10-06T07:48:47Z</time></trkpt>
<trkpt lat="23.346654" lon="116.288159">
<time>2016-10-06T07:48:48Z</time></trkpt>
<trkpt lat="23.346634" lon="116.288099">
<time>2016-10-06T07:48:49Z</time></trkpt>
<trkpt lat="23.346625" lon="116.288049">
<time>2016-10-06T07:48:50Z</time></trkpt>
<trkpt lat="23.346585" lon="116.287739">
<time>2016-10-06T07:48:51Z</time></trkpt>
<trkpt lat="23.346555" lon="116.28753">
<time>2016-10-06T07:48:52Z</time></trkpt>
<trkpt lat="23.346535" lon="116.28739">
<time>2016-10-06T07:48:53Z</time></trkpt>
<trkpt lat="23.346526" lon="116.28726">
<time>2016-10-06T07:48:54Z</time></trkpt>
<trkpt lat="23.346516" lon="116.28716">
<time>2016-10-06T07:48:55Z</time></trkpt>
<trkpt lat="23.346506" lon="116.28707">
<time>2016-10-06T07:48:56Z</time></trkpt>
<trkpt lat="23.346506" lon="116.28699">
<time>2016-10-06T07:48:57Z</time></trkpt>
<trkpt lat="23.346506" lon="116.2869">
<time>2016-10-06T07:48:58Z</time></trkpt>
<trkpt lat="23.346516" lon="116.28681">
<time>2016-10-06T07:48:59Z</time></trkpt>
<trkpt lat="23.346547" lon="116.286571">
<time>2016-10-06T07:49:00Z</time></trkpt>
<trkpt lat="23.346587" lon="116.286311">
<time>2016-10-06T07:49:01Z</time></trkpt>
<trkpt lat="23.346637" lon="116.286081">
<time>2016-10-06T07:49:02Z</time></trkpt>
<trkpt lat="23.346637" lon="116.286081">
<time>2016-10-06T07:49:03Z</time></trkpt>
<trkpt lat="23.346257" lon="116.286151">
<time>2016-10-06T07:49:04Z</time></trkpt>
<trkpt lat="23.344127" lon="116.286621">
<time>2016-10-06T07:49:05Z</time></trkpt>
<trkpt lat="23.342717" lon="116.286891">
<time>2016-10-06T07:49:06Z</time></trkpt>
<trkpt lat="23.342717" lon="116.286891">
<time>2016-10-06T07:49:07Z</time></trkpt>
<trkpt lat="23.342667" lon="116.286901">
<time>2016-10-06T07:49:08Z</time></trkpt>
<trkpt lat="23.342227" lon="116.286981">
<time>2016-10-06T07:49:09Z</time></trkpt>
<trkpt lat="23.341797" lon="116.28704">
<time>2016-10-06T07:49:10Z</time></trkpt>
<trkpt lat="23.341397" lon="116.287041">
<time>2016-10-06T07:49:11Z</time></trkpt>
<trkpt lat="23.340987" lon="116.287001">
<time>2016-10-06T07:49:12Z</time></trkpt>
<trkpt lat="23.340588" lon="116.286901">
<time>2016-10-06T07:49:13Z</time></trkpt>
<trkpt lat="23.340108" lon="116.286761">
<time>2016-10-06T07:49:14Z</time></trkpt>
<trkpt lat="23.339318" lon="116.286461">
<time>2016-10-06T07:49:15Z</time></trkpt>
<trkpt lat="23.33741" lon="116.285722">
<time>2016-10-06T07:49:16Z</time></trkpt>
<trkpt lat="23.336481" lon="116.285313">
<time>2016-10-06T07:49:17Z</time></trkpt>
<trkpt lat="23.336421" lon="116.285283">
<time>2016-10-06T07:49:18Z</time></trkpt>
<trkpt lat="23.334922" lon="116.284614">
<time>2016-10-06T07:49:19Z</time></trkpt>
<trkpt lat="23.333324" lon="116.283825">
<time>2016-10-06T07:49:20Z</time></trkpt>
<trkpt lat="23.331085" lon="116.282797">
<time>2016-10-06T07:49:21Z</time></trkpt>
<trkpt lat="23.330756" lon="116.282657">
<time>2016-10-06T07:49:22Z</time></trkpt>
<trkpt lat="23.330206" lon="116.282487">
<time>2016-10-06T07:49:23Z</time></trkpt>
<trkpt lat="23.329377" lon="116.282217">
<time>2016-10-06T07:49:24Z</time></trkpt>
<trkpt lat="23.326918" lon="116.281468">
<time>2016-10-06T07:49:25Z</time></trkpt>
<trkpt lat="23.326548" lon="116.281359">
<time>2016-10-06T07:49:26Z</time></trkpt>
<trkpt lat="23.325979" lon="116.281189">
<time>2016-10-06T07:49:27Z</time></trkpt>
<trkpt lat="23.32363" lon="116.28047">
<time>2016-10-06T07:49:28Z</time></trkpt>
<trkpt lat="23.322071" lon="116.28002">
<time>2016-10-06T07:49:29Z</time></trkpt>
<trkpt lat="23.320702" lon="116.279551">
<time>2016-10-06T07:49:30Z</time></trkpt>
<trkpt lat="23.317594" lon="116.278392">
<time>2016-10-06T07:49:31Z</time></trkpt>
<trkpt lat="23.316435" lon="116.277903">
<time>2016-10-06T07:49:32Z</time></trkpt>
<trkpt lat="23.315376" lon="116.277493">
<time>2016-10-06T07:49:33Z</time></trkpt>
<trkpt lat="23.313237" lon="116.276654">
<time>2016-10-06T07:49:34Z</time></trkpt>
<trkpt lat="23.310179" lon="116.275716">
<time>2016-10-06T07:49:35Z</time></trkpt>
<trkpt lat="23.30948" lon="116.275496">
<time>2016-10-06T07:49:36Z</time></trkpt>
<trkpt lat="23.30874" lon="116.275316">
<time>2016-10-06T07:49:37Z</time></trkpt>
<trkpt lat="23.30838" lon="116.275226">
<time>2016-10-06T07:49:38Z</time></trkpt>
<trkpt lat="23.307251" lon="116.274956">
<time>2016-10-06T07:49:39Z</time></trkpt>
<trkpt lat="23.306981" lon="116.274857">
<time>2016-10-06T07:49:40Z</time></trkpt>
<trkpt lat="23.306481" lon="116.274627">
<time>2016-10-06T07:49:41Z</time></trkpt>
<trkpt lat="23.305972" lon="116.274297">
<time>2016-10-06T07:49:42Z</time></trkpt>
<trkpt lat="23.304454" lon="116.273118">
<time>2016-10-06T07:49:43Z</time></trkpt>
<trkpt lat="23.304444" lon="116.273118">
<time>2016-10-06T07:49:44Z</time></trkpt>
<trkpt lat="23.304054" lon="116.272849">
<time>2016-10-06T07:49:45Z</time></trkpt>
<trkpt lat="23.302795" lon="116.271969">
<time>2016-10-06T07:49:46Z</time></trkpt>
<trkpt lat="23.301976" lon="116.2715">
<time>2016-10-06T07:49:47Z</time></trkpt>
<trkpt lat="23.300717" lon="116.27088">
<time>2016-10-06T07:49:48Z</time></trkpt>
<trkpt lat="23.297819" lon="116.269462">
<time>2016-10-06T07:49:49Z</time></trkpt>
<trkpt lat="23.297639" lon="116.269372">
<time>2016-10-06T07:49:50Z</time></trkpt>
<trkpt lat="23.297039" lon="116.269072">
<time>2016-10-06T07:49:51Z</time></trkpt>
<trkpt lat="23.294071" lon="116.267573">
<time>2016-10-06T07:49:52Z</time></trkpt>
<trkpt lat="23.291703" lon="116.266384">
<time>2016-10-06T07:49:53Z</time></trkpt>
<trkpt lat="23.291123" lon="116.266134">
<time>2016-10-06T07:49:54Z</time></trkpt>
<trkpt lat="23.290214" lon="116.265725">
<time>2016-10-06T07:49:55Z</time></trkpt>
<trkpt lat="23.289734" lon="116.265515">
<time>2016-10-06T07:49:56Z</time></trkpt>
<trkpt lat="23.288305" lon="116.264885">
<time>2016-10-06T07:49:57Z</time></trkpt>
<trkpt lat="23.288305" lon="116.264885">
<time>2016-10-06T07:49:58Z</time></trkpt>
<trkpt lat="23.288435" lon="116.264475">
<time>2016-10-06T07:49:59Z</time></trkpt>
<trkpt lat="23.288556" lon="116.264116">
<time>2016-10-06T07:50:00Z</time></trkpt>
<trkpt lat="23.288686" lon="116.263746">
<time>2016-10-06T07:50:01Z</time></trkpt>
<trkpt lat="23.288806" lon="116.263376">
<time>2016-10-06T07:50:02Z</time></trkpt>
<trkpt lat="23.288876" lon="116.263166">
<time>2016-10-06T07:50:03Z</time></trkpt>
<trkpt lat="23.288926" lon="116.263006">
<time>2016-10-06T07:50:04Z</time></trkpt>
<trkpt lat="23.288966" lon="116.262896">
<time>2016-10-06T07:50:05Z</time></trkpt>
<trkpt lat="23.288996" lon="116.262786">
<time>2016-10-06T07:50:06Z</time></trkpt>
<trkpt lat="23.289027" lon="116.262686">
<time>2016-10-06T07:50:07Z</time></trkpt>
<trkpt lat="23.289067" lon="116.262506">
<time>2016-10-06T07:50:08Z</time></trkpt>
<trkpt lat="23.289097" lon="116.262356">
<time>2016-10-06T07:50:09Z</time></trkpt>
<trkpt lat="23.289117" lon="116.262206">
<time>2016-10-06T07:50:10Z</time></trkpt>
<trkpt lat="23.289127" lon="116.262116">
<time>2016-10-06T07:50:11Z</time></trkpt>
<trkpt lat="23.289137" lon="116.262027">
<time>2016-10-06T07:50:12Z</time></trkpt>
<trkpt lat="23.289157" lon="116.261897">
<time>2016-10-06T07:50:13Z</time></trkpt>
<trkpt lat="23.289167" lon="116.261747">
<time>2016-10-06T07:50:14Z</time></trkpt>
<trkpt lat="23.289177" lon="116.261607">
<time>2016-10-06T07:50:15Z</time></trkpt>
<trkpt lat="23.289187" lon="116.261407">
<time>2016-10-06T07:50:16Z</time></trkpt>
<trkpt lat="23.289188" lon="116.261007">
<time>2016-10-06T07:50:17Z</time></trkpt>
<trkpt lat="23.289188" lon="116.260657">
<time>2016-10-06T07:50:18Z</time></trkpt>
<trkpt lat="23.289188" lon="116.259757">
<time>2016-10-06T07:50:19Z</time></trkpt>
<trkpt lat="23.289198" lon="116.259308">
<time>2016-10-06T07:50:20Z</time></trkpt>
<trkpt lat="23.289209" lon="116.258448">
<time>2016-10-06T07:50:21Z</time></trkpt>
<trkpt lat="23.28924" lon="116.257058">
<time>2016-10-06T07:50:22Z</time></trkpt>
<trkpt lat="23.28924" lon="116.256888">
<time>2016-10-06T07:50:23Z</time></trkpt>
<trkpt lat="23.28925" lon="116.256388">
<time>2016-10-06T07:50:24Z</time></trkpt>
<trkpt lat="23.28925" lon="116.255638">
<time>2016-10-06T07:50:25Z</time></trkpt>
<trkpt lat="23.28926" lon="116.255429">
<time>2016-10-06T07:50:26Z</time></trkpt>
<trkpt lat="23.28927" lon="116.255239">
<time>2016-10-06T07:50:27Z</time></trkpt>
<trkpt lat="23.289281" lon="116.253369">
<time>2016-10-06T07:50:28Z</time></trkpt>
<trkpt lat="23.289291" lon="116.252859">
<time>2016-10-06T07:50:29Z</time></trkpt>
<trkpt lat="23.289291" lon="116.252399">
<time>2016-10-06T07:50:30Z</time></trkpt>
<trkpt lat="23.289301" lon="116.251949">
<time>2016-10-06T07:50:31Z</time></trkpt>
<trkpt lat="23.289311" lon="116.251459">
<time>2016-10-06T07:50:32Z</time></trkpt>
<trkpt lat="23.289311" lon="116.251429">
<time>2016-10-06T07:50:33Z</time></trkpt>
<trkpt lat="23.289311" lon="116.251399">
<time>2016-10-06T07:50:34Z</time></trkpt>
<trkpt lat="23.289312" lon="116.250679">
<time>2016-10-06T07:50:35Z</time></trkpt>
<trkpt lat="23.289322" lon="116.250089">
<time>2016-10-06T07:50:36Z</time></trkpt>
<trkpt lat="23.289322" lon="116.249999">
<time>2016-10-06T07:50:37Z</time></trkpt>
<trkpt lat="23.289322" lon="116.249569">
<time>2016-10-06T07:50:38Z</time></trkpt>
<trkpt lat="23.289322" lon="116.249059">
<time>2016-10-06T07:50:39Z</time></trkpt>
<trkpt lat="23.289322" lon="116.248519">
<time>2016-10-06T07:50:40Z</time></trkpt>
<trkpt lat="23.289332" lon="116.248019">
<time>2016-10-06T07:50:41Z</time></trkpt>
<trkpt lat="23.289322" lon="116.247809">
<time>2016-10-06T07:50:42Z</time></trkpt>
<trkpt lat="23.289312" lon="116.247499">
<time>2016-10-06T07:50:43Z</time></trkpt>
<trkpt lat="23.289302" lon="116.247379">
<time>2016-10-06T07:50:44Z</time></trkpt>
<trkpt lat="23.289302" lon="116.247279">
<time>2016-10-06T07:50:45Z</time></trkpt>
<trkpt lat="23.289292" lon="116.247159">
<time>2016-10-06T07:50:46Z</time></trkpt>
<trkpt lat="23.289282" lon="116.247048">
<time>2016-10-06T07:50:47Z</time></trkpt>
<trkpt lat="23.289272" lon="116.246948">
<time>2016-10-06T07:50:48Z</time></trkpt>
<trkpt lat="23.289252" lon="116.246798">
<time>2016-10-06T07:50:49Z</time></trkpt>
<trkpt lat="23.289202" lon="116.246478">
<time>2016-10-06T07:50:50Z</time></trkpt>
<trkpt lat="23.289162" lon="116.246188">
<time>2016-10-06T07:50:51Z</time></trkpt>
<trkpt lat="23.289132" lon="116.246008">
<time>2016-10-06T07:50:52Z</time></trkpt>
<trkpt lat="23.289102" lon="116.245818">
<time>2016-10-06T07:50:53Z</time></trkpt>
<trkpt lat="23.289072" lon="116.245598">
<time>2016-10-06T07:50:54Z</time></trkpt>
<trkpt lat="23.289042" lon="116.245378">
<time>2016-10-06T07:50:55Z</time></trkpt>
<trkpt lat="23.289012" lon="116.245178">
<time>2016-10-06T07:50:56Z</time></trkpt>
<trkpt lat="23.288992" lon="116.244998">
<time>2016-10-06T07:50:57Z</time></trkpt>
<trkpt lat="23.288982" lon="116.244878">
<time>2016-10-06T07:50:58Z</time></trkpt>
<trkpt lat="23.288932" lon="116.244528">
<time>2016-10-06T07:50:59Z</time></trkpt>
<trkpt lat="23.288912" lon="116.244278">
<time>2016-10-06T07:51:00Z</time></trkpt>
<trkpt lat="23.288892" lon="116.244048">
<time>2016-10-06T07:51:01Z</time></trkpt>
<trkpt lat="23.288872" lon="116.243798">
<time>2016-10-06T07:51:02Z</time></trkpt>
<trkpt lat="23.288842" lon="116.243488">
<time>2016-10-06T07:51:03Z</time></trkpt>
<trkpt lat="23.288822" lon="116.243258">
<time>2016-10-06T07:51:04Z</time></trkpt>
<trkpt lat="23.288812" lon="116.243077">
<time>2016-10-06T07:51:05Z</time></trkpt>
<trkpt lat="23.288802" lon="116.242917">
<time>2016-10-06T07:51:06Z</time></trkpt>
<trkpt lat="23.288792" lon="116.242707">
<time>2016-10-06T07:51:07Z</time></trkpt>
<trkpt lat="23.288782" lon="116.242477">
<time>2016-10-06T07:51:08Z</time></trkpt>
<trkpt lat="23.288762" lon="116.242077">
<time>2016-10-06T07:51:09Z</time></trkpt>
<trkpt lat="23.288742" lon="116.241667">
<time>2016-10-06T07:51:10Z</time></trkpt>
<trkpt lat="23.288732" lon="116.241147">
<time>2016-10-06T07:51:11Z</time></trkpt>
<trkpt lat="23.288712" lon="116.240787">
<time>2016-10-06T07:51:12Z</time></trkpt>
<trkpt lat="23.288672" lon="116.239836">
<time>2016-10-06T07:51:13Z</time></trkpt>
<trkpt lat="23.288652" lon="116.239426">
<time>2016-10-06T07:51:14Z</time></trkpt>
<trkpt lat="23.288632" lon="116.238936">
<time>2016-10-06T07:51:15Z</time></trkpt>
<trkpt lat="23.288611" lon="116.238475">
<time>2016-10-06T07:51:16Z</time></trkpt>
<trkpt lat="23.288601" lon="116.238105">
<time>2016-10-06T07:51:17Z</time></trkpt>
<trkpt lat="23.288591" lon="116.237825">
<time>2016-10-06T07:51:18Z</time></trkpt>
<trkpt lat="23.288581" lon="116.237485">
<time>2016-10-06T07:51:19Z</time></trkpt>
<trkpt lat="23.288561" lon="116.236794">
<time>2016-10-06T07:51:20Z</time></trkpt>
<trkpt lat="23.288561" lon="116.236614">
<time>2016-10-06T07:51:21Z</time></trkpt>
<trkpt lat="23.288561" lon="116.236314">
<time>2016-10-06T07:51:22Z</time></trkpt>
<trkpt lat="23.288561" lon="116.235924">
<time>2016-10-06T07:51:23Z</time></trkpt>
<trkpt lat="23.288561" lon="116.235434">
<time>2016-10-06T07:51:24Z</time></trkpt>
<trkpt lat="23.28855" lon="116.234613">
<time>2016-10-06T07:51:25Z</time></trkpt>
<trkpt lat="23.28855" lon="116.234313">
<time>2016-10-06T07:51:26Z</time></trkpt>
<trkpt lat="23.28856" lon="116.233993">
<time>2016-10-06T07:51:27Z</time></trkpt>
<trkpt lat="23.28856" lon="116.233682">
<time>2016-10-06T07:51:28Z</time></trkpt>
<trkpt lat="23.28856" lon="116.233432">
<time>2016-10-06T07:51:29Z</time></trkpt>
<trkpt lat="23.288549" lon="116.232842">
<time>2016-10-06T07:51:30Z</time></trkpt>
<trkpt lat="23.288549" lon="116.232261">
<time>2016-10-06T07:51:31Z</time></trkpt>
<trkpt lat="23.288549" lon="116.231691">
<time>2016-10-06T07:51:32Z</time></trkpt>
<trkpt lat="23.288539" lon="116.23115">
<time>2016-10-06T07:51:33Z</time></trkpt>
<trkpt lat="23.288538" lon="116.23053">
<time>2016-10-06T07:51:34Z</time></trkpt>
<trkpt lat="23.288538" lon="116.229919">
<time>2016-10-06T07:51:35Z</time></trkpt>
<trkpt lat="23.288538" lon="116.229379">
<time>2016-10-06T07:51:36Z</time></trkpt>
<trkpt lat="23.288537" lon="116.228828">
<time>2016-10-06T07:51:37Z</time></trkpt>
<trkpt lat="23.288547" lon="116.228188">
<time>2016-10-06T07:51:38Z</time></trkpt>
<trkpt lat="23.288526" lon="116.227387">
<time>2016-10-06T07:51:39Z</time></trkpt>
<trkpt lat="23.288525" lon="116.225995">
<time>2016-10-06T07:51:40Z</time></trkpt>
<trkpt lat="23.288524" lon="116.224133">
<time>2016-10-06T07:51:41Z</time></trkpt>
<trkpt lat="23.288524" lon="116.223633">
<time>2016-10-06T07:51:42Z</time></trkpt>
<trkpt lat="23.288523" lon="116.223152">
<time>2016-10-06T07:51:43Z</time></trkpt>
<trkpt lat="23.288523" lon="116.222822">
<time>2016-10-06T07:51:44Z</time></trkpt>
<trkpt lat="23.288523" lon="116.222542">
<time>2016-10-06T07:51:45Z</time></trkpt>
<trkpt lat="23.288522" lon="116.222061">
<time>2016-10-06T07:51:46Z</time></trkpt>
<trkpt lat="23.288522" lon="116.221701">
<time>2016-10-06T07:51:47Z</time></trkpt>
<trkpt lat="23.288522" lon="116.22154">
<time>2016-10-06T07:51:48Z</time></trkpt>
<trkpt lat="23.288542" lon="116.22137">
<time>2016-10-06T07:51:49Z</time></trkpt>
<trkpt lat="23.288552" lon="116.22126">
<time>2016-10-06T07:51:50Z</time></trkpt>
<trkpt lat="23.288562" lon="116.22116">
<time>2016-10-06T07:51:51Z</time></trkpt>
<trkpt lat="23.288581" lon="116.22102">
<time>2016-10-06T07:51:52Z</time></trkpt>
<trkpt lat="23.288621" lon="116.22089">
<time>2016-10-06T07:51:53Z</time></trkpt>
<trkpt lat="23.288671" lon="116.220699">
<time>2016-10-06T07:51:54Z</time></trkpt>
<trkpt lat="23.288731" lon="116.220509">
<time>2016-10-06T07:51:55Z</time></trkpt>
<trkpt lat="23.288781" lon="116.220389">
<time>2016-10-06T07:51:56Z</time></trkpt>
<trkpt lat="23.288851" lon="116.220259">
<time>2016-10-06T07:51:57Z</time></trkpt>
<trkpt lat="23.28895" lon="116.220069">
<time>2016-10-06T07:51:58Z</time></trkpt>
<trkpt lat="23.28902" lon="116.219958">
<time>2016-10-06T07:51:59Z</time></trkpt>
<trkpt lat="23.28909" lon="116.219848">
<time>2016-10-06T07:52:00Z</time></trkpt>
<trkpt lat="23.28924" lon="116.219658">
<time>2016-10-06T07:52:01Z</time></trkpt>
<trkpt lat="23.2896" lon="116.219237">
<time>2016-10-06T07:52:02Z</time></trkpt>
<trkpt lat="23.289799" lon="116.219007">
<time>2016-10-06T07:52:03Z</time></trkpt>
<trkpt lat="23.289959" lon="116.218817">
<time>2016-10-06T07:52:04Z</time></trkpt>
<trkpt lat="23.290089" lon="116.218667">
<time>2016-10-06T07:52:05Z</time></trkpt>
<trkpt lat="23.290488" lon="116.218196">
<time>2016-10-06T07:52:06Z</time></trkpt>
<trkpt lat="23.290678" lon="116.217976">
<time>2016-10-06T07:52:07Z</time></trkpt>
<trkpt lat="23.291187" lon="116.217355">
<time>2016-10-06T07:52:08Z</time></trkpt>
<trkpt lat="23.291517" lon="116.216934">
<time>2016-10-06T07:52:09Z</time></trkpt>
<trkpt lat="23.291946" lon="116.216383">
<time>2016-10-06T07:52:10Z</time></trkpt>
<trkpt lat="23.292096" lon="116.216163">
<time>2016-10-06T07:52:11Z</time></trkpt>
<trkpt lat="23.292196" lon="116.216013">
<time>2016-10-06T07:52:12Z</time></trkpt>
<trkpt lat="23.292245" lon="116.215913">
<time>2016-10-06T07:52:13Z</time></trkpt>
<trkpt lat="23.292285" lon="116.215823">
<time>2016-10-06T07:52:14Z</time></trkpt>
<trkpt lat="23.292325" lon="116.215742">
<time>2016-10-06T07:52:15Z</time></trkpt>
<trkpt lat="23.292345" lon="116.215692">
<time>2016-10-06T07:52:16Z</time></trkpt>
<trkpt lat="23.292365" lon="116.215622">
<time>2016-10-06T07:52:17Z</time></trkpt>
<trkpt lat="23.292395" lon="116.215512">
<time>2016-10-06T07:52:18Z</time></trkpt>
<trkpt lat="23.292425" lon="116.215412">
<time>2016-10-06T07:52:19Z</time></trkpt>
<trkpt lat="23.292445" lon="116.215282">
<time>2016-10-06T07:52:20Z</time></trkpt>
<trkpt lat="23.292475" lon="116.215152">
<time>2016-10-06T07:52:21Z</time></trkpt>
<trkpt lat="23.292484" lon="116.215071">
<time>2016-10-06T07:52:22Z</time></trkpt>
<trkpt lat="23.292514" lon="116.214951">
<time>2016-10-06T07:52:23Z</time></trkpt>
<trkpt lat="23.292544" lon="116.214731">
<time>2016-10-06T07:52:24Z</time></trkpt>
<trkpt lat="23.292604" lon="116.214421">
<time>2016-10-06T07:52:25Z</time></trkpt>
<trkpt lat="23.292643" lon="116.21415">
<time>2016-10-06T07:52:26Z</time></trkpt>
<trkpt lat="23.292673" lon="116.21395">
<time>2016-10-06T07:52:27Z</time></trkpt>
<trkpt lat="23.292733" lon="116.213619">
<time>2016-10-06T07:52:28Z</time></trkpt>
<trkpt lat="23.292763" lon="116.213399">
<time>2016-10-06T07:52:29Z</time></trkpt>
<trkpt lat="23.292812" lon="116.213099">
<time>2016-10-06T07:52:30Z</time></trkpt>
<trkpt lat="23.292961" lon="116.212187">
<time>2016-10-06T07:52:31Z</time></trkpt>
<trkpt lat="23.293031" lon="116.211776">
<time>2016-10-06T07:52:32Z</time></trkpt>
<trkpt lat="23.29307" lon="116.211536">
<time>2016-10-06T07:52:33Z</time></trkpt>
<trkpt lat="23.29315" lon="116.211065">
<time>2016-10-06T07:52:34Z</time></trkpt>
<trkpt lat="23.293209" lon="116.210745">
<time>2016-10-06T07:52:35Z</time></trkpt>
<trkpt lat="23.293259" lon="116.210454">
<time>2016-10-06T07:52:36Z</time></trkpt>
<trkpt lat="23.293319" lon="116.210124">
<time>2016-10-06T07:52:37Z</time></trkpt>
<trkpt lat="23.293408" lon="116.209603">
<time>2016-10-06T07:52:38Z</time></trkpt>
<trkpt lat="23.293448" lon="116.209403">
<time>2016-10-06T07:52:39Z</time></trkpt>
<trkpt lat="23.293537" lon="116.208972">
<time>2016-10-06T07:52:40Z</time></trkpt>
<trkpt lat="23.293587" lon="116.208701">
<time>2016-10-06T07:52:41Z</time></trkpt>
<trkpt lat="23.293666" lon="116.208301">
<time>2016-10-06T07:52:42Z</time></trkpt>
<trkpt lat="23.293706" lon="116.20807">
<time>2016-10-06T07:52:43Z</time></trkpt>
<trkpt lat="23.293805" lon="116.20756">
<time>2016-10-06T07:52:44Z</time></trkpt>
<trkpt lat="23.293964" lon="116.206648">
<time>2016-10-06T07:52:45Z</time></trkpt>
<trkpt lat="23.294014" lon="116.206367">
<time>2016-10-06T07:52:46Z</time></trkpt>
<trkpt lat="23.29442" lon="116.204113">
<time>2016-10-06T07:52:47Z</time></trkpt>
<trkpt lat="23.294559" lon="116.203402">
<time>2016-10-06T07:52:48Z</time></trkpt>
<trkpt lat="23.294837" lon="116.201879">
<time>2016-10-06T07:52:49Z</time></trkpt>
<trkpt lat="23.294926" lon="116.201408">
<time>2016-10-06T07:52:50Z</time></trkpt>
<trkpt lat="23.294996" lon="116.200988">
<time>2016-10-06T07:52:51Z</time></trkpt>
<trkpt lat="23.295026" lon="116.200877">
<time>2016-10-06T07:52:52Z</time></trkpt>
<trkpt lat="23.295065" lon="116.200677">
<time>2016-10-06T07:52:53Z</time></trkpt>
<trkpt lat="23.295333" lon="116.199174">
<time>2016-10-06T07:52:54Z</time></trkpt>
<trkpt lat="23.295373" lon="116.198954">
<time>2016-10-06T07:52:55Z</time></trkpt>
<trkpt lat="23.295452" lon="116.198473">
<time>2016-10-06T07:52:56Z</time></trkpt>
<trkpt lat="23.295521" lon="116.198042">
<time>2016-10-06T07:52:57Z</time></trkpt>
<trkpt lat="23.295571" lon="116.197651">
<time>2016-10-06T07:52:58Z</time></trkpt>
<trkpt lat="23.29562" lon="116.19719">
<time>2016-10-06T07:52:59Z</time></trkpt>
<trkpt lat="23.295679" lon="116.196599">
<time>2016-10-06T07:53:00Z</time></trkpt>
<trkpt lat="23.295767" lon="116.195657">
<time>2016-10-06T07:53:01Z</time></trkpt>
<trkpt lat="23.295807" lon="116.195156">
<time>2016-10-06T07:53:02Z</time></trkpt>
<trkpt lat="23.295846" lon="116.194705">
<time>2016-10-06T07:53:03Z</time></trkpt>
<trkpt lat="23.295856" lon="116.194675">
<time>2016-10-06T07:53:04Z</time></trkpt>
<trkpt lat="23.295856" lon="116.194645">
<time>2016-10-06T07:53:05Z</time></trkpt>
<trkpt lat="23.295973" lon="116.193272">
<time>2016-10-06T07:53:06Z</time></trkpt>
<trkpt lat="23.296062" lon="116.19241">
<time>2016-10-06T07:53:07Z</time></trkpt>
<trkpt lat="23.296091" lon="116.19208">
<time>2016-10-06T07:53:08Z</time></trkpt>
<trkpt lat="23.296101" lon="116.191949">
<time>2016-10-06T07:53:09Z</time></trkpt>
<trkpt lat="23.296111" lon="116.191839">
<time>2016-10-06T07:53:10Z</time></trkpt>
<trkpt lat="23.296121" lon="116.191779">
<time>2016-10-06T07:53:11Z</time></trkpt>
<trkpt lat="23.296141" lon="116.191719">
<time>2016-10-06T07:53:12Z</time></trkpt>
<trkpt lat="23.296161" lon="116.191639">
<time>2016-10-06T07:53:13Z</time></trkpt>
<trkpt lat="23.296181" lon="116.191559">
<time>2016-10-06T07:53:14Z</time></trkpt>
<trkpt lat="23.29619" lon="116.191509">
<time>2016-10-06T07:53:15Z</time></trkpt>
<trkpt lat="23.29621" lon="116.191458">
<time>2016-10-06T07:53:16Z</time></trkpt>
<trkpt lat="23.29624" lon="116.191388">
<time>2016-10-06T07:53:17Z</time></trkpt>
<trkpt lat="23.29626" lon="116.191338">
<time>2016-10-06T07:53:18Z</time></trkpt>
<trkpt lat="23.29629" lon="116.191288">
<time>2016-10-06T07:53:19Z</time></trkpt>
<trkpt lat="23.2963" lon="116.191258">
<time>2016-10-06T07:53:20Z</time></trkpt>
<trkpt lat="23.29633" lon="116.191218">
<time>2016-10-06T07:53:21Z</time></trkpt>
<trkpt lat="23.29635" lon="116.191178">
<time>2016-10-06T07:53:22Z</time></trkpt>
<trkpt lat="23.29639" lon="116.191078">
<time>2016-10-06T07:53:23Z</time></trkpt>
<trkpt lat="23.29639" lon="116.191078">
<time>2016-10-06T07:53:24Z</time></trkpt>
<trkpt lat="23.2964" lon="116.191068">
<time>2016-10-06T07:53:25Z</time></trkpt>
<trkpt lat="23.29642" lon="116.191048">
<time>2016-10-06T07:53:26Z</time></trkpt>
<trkpt lat="23.29643" lon="116.191028">
<time>2016-10-06T07:53:27Z</time></trkpt>
<trkpt lat="23.29644" lon="116.191007">
<time>2016-10-06T07:53:28Z</time></trkpt>
<trkpt lat="23.29645" lon="116.190977">
<time>2016-10-06T07:53:29Z</time></trkpt>
<trkpt lat="23.296459" lon="116.190947">
<time>2016-10-06T07:53:30Z</time></trkpt>
<trkpt lat="23.296469" lon="116.190917">
<time>2016-10-06T07:53:31Z</time></trkpt>
<trkpt lat="23.296479" lon="116.190867">
<time>2016-10-06T07:53:32Z</time></trkpt>
<trkpt lat="23.296479" lon="116.190827">
<time>2016-10-06T07:53:33Z</time></trkpt>
<trkpt lat="23.296469" lon="116.190767">
<time>2016-10-06T07:53:34Z</time></trkpt>
<trkpt lat="23.296459" lon="116.190727">
<time>2016-10-06T07:53:35Z</time></trkpt>
<trkpt lat="23.296449" lon="116.190687">
<time>2016-10-06T07:53:36Z</time></trkpt>
<trkpt lat="23.296429" lon="116.190647">
<time>2016-10-06T07:53:37Z</time></trkpt>
<trkpt lat="23.296409" lon="116.190617">
<time>2016-10-06T07:53:38Z</time></trkpt>
<trkpt lat="23.296389" lon="116.190597">
<time>2016-10-06T07:53:39Z</time></trkpt>
<trkpt lat="23.296369" lon="116.190577">
<time>2016-10-06T07:53:40Z</time></trkpt>
<trkpt lat="23.296359" lon="116.190567">
<time>2016-10-06T07:53:41Z</time></trkpt>
<trkpt lat="23.296349" lon="116.190496">
<time>2016-10-06T07:53:42Z</time></trkpt>
<trkpt lat="23.296329" lon="116.190376">
<time>2016-10-06T07:53:43Z</time></trkpt>
<trkpt lat="23.296318" lon="116.190316">
<time>2016-10-06T07:53:44Z</time></trkpt>
<trkpt lat="23.296298" lon="116.190035">
<time>2016-10-06T07:53:45Z</time></trkpt>
<trkpt lat="23.296298" lon="116.189885">
<time>2016-10-06T07:53:46Z</time></trkpt>
<trkpt lat="23.296308" lon="116.189755">
<time>2016-10-06T07:53:47Z</time></trkpt>
<trkpt lat="23.296327" lon="116.189544">
<time>2016-10-06T07:53:48Z</time></trkpt>
<trkpt lat="23.296347" lon="116.189354">
<time>2016-10-06T07:53:49Z</time></trkpt>
<trkpt lat="23.296366" lon="116.189133">
<time>2016-10-06T07:53:50Z</time></trkpt>
<trkpt lat="23.296396" lon="116.188853">
<time>2016-10-06T07:53:51Z</time></trkpt>
<trkpt lat="23.296425" lon="116.188512">
<time>2016-10-06T07:53:52Z</time></trkpt>
<trkpt lat="23.296435" lon="116.188392">
<time>2016-10-06T07:53:53Z</time></trkpt>
<trkpt lat="23.296445" lon="116.188252">
<time>2016-10-06T07:53:54Z</time></trkpt>
<trkpt lat="23.296455" lon="116.188121">
<time>2016-10-06T07:53:55Z</time></trkpt>
<trkpt lat="23.296465" lon="116.188071">
<time>2016-10-06T07:53:56Z</time></trkpt>
<trkpt lat="23.296474" lon="116.187971">
<time>2016-10-06T07:53:57Z</time></trkpt>
<trkpt lat="23.296494" lon="116.187791">
<time>2016-10-06T07:53:58Z</time></trkpt>
<trkpt lat="23.296504" lon="116.18763">
<time>2016-10-06T07:53:59Z</time></trkpt>
<trkpt lat="23.296514" lon="116.18746">
<time>2016-10-06T07:54:00Z</time></trkpt>
<trkpt lat="23.296553" lon="116.186989">
<time>2016-10-06T07:54:01Z</time></trkpt>
<trkpt lat="23.296572" lon="116.186728">
<time>2016-10-06T07:54:02Z</time></trkpt>
<trkpt lat="23.296602" lon="116.186387">
<time>2016-10-06T07:54:03Z</time></trkpt>
<trkpt lat="23.296611" lon="116.186257">
<time>2016-10-06T07:54:04Z</time></trkpt>
<trkpt lat="23.296641" lon="116.185946">
<time>2016-10-06T07:54:05Z</time></trkpt>
<trkpt lat="23.29667" lon="116.185596">
<time>2016-10-06T07:54:06Z</time></trkpt>
<trkpt lat="23.2967" lon="116.185245">
<time>2016-10-06T07:54:07Z</time></trkpt>
<trkpt lat="23.296709" lon="116.185125">
<time>2016-10-06T07:54:08Z</time></trkpt>
<trkpt lat="23.296719" lon="116.184994">
<time>2016-10-06T07:54:09Z</time></trkpt>
<trkpt lat="23.296768" lon="116.184413">
<time>2016-10-06T07:54:10Z</time></trkpt>
<trkpt lat="23.296827" lon="116.183782">
<time>2016-10-06T07:54:11Z</time></trkpt>
<trkpt lat="23.296856" lon="116.183431">
<time>2016-10-06T07:54:12Z</time></trkpt>
<trkpt lat="23.296876" lon="116.18321">
<time>2016-10-06T07:54:13Z</time></trkpt>
<trkpt lat="23.296886" lon="116.18309">
<time>2016-10-06T07:54:14Z</time></trkpt>
<trkpt lat="23.296925" lon="116.182709">
<time>2016-10-06T07:54:15Z</time></trkpt>
<trkpt lat="23.296954" lon="116.182388">
<time>2016-10-06T07:54:16Z</time></trkpt>
<trkpt lat="23.296994" lon="116.182078">
<time>2016-10-06T07:54:17Z</time></trkpt>
<trkpt lat="23.297033" lon="116.181647">
<time>2016-10-06T07:54:18Z</time></trkpt>
<trkpt lat="23.297072" lon="116.181236">
<time>2016-10-06T07:54:19Z</time></trkpt>
<trkpt lat="23.297141" lon="116.180564">
<time>2016-10-06T07:54:20Z</time></trkpt>
<trkpt lat="23.297161" lon="116.180304">
<time>2016-10-06T07:54:21Z</time></trkpt>
<trkpt lat="23.29719" lon="116.180013">
<time>2016-10-06T07:54:22Z</time></trkpt>
<trkpt lat="23.2972" lon="116.179853">
<time>2016-10-06T07:54:23Z</time></trkpt>
<trkpt lat="23.297249" lon="116.179291">
<time>2016-10-06T07:54:24Z</time></trkpt>
<trkpt lat="23.297327" lon="116.178429">
<time>2016-10-06T07:54:25Z</time></trkpt>
<trkpt lat="23.297347" lon="116.178209">
<time>2016-10-06T07:54:26Z</time></trkpt>
<trkpt lat="23.297376" lon="116.177908">
<time>2016-10-06T07:54:27Z</time></trkpt>
<trkpt lat="23.297444" lon="116.177026">
<time>2016-10-06T07:54:28Z</time></trkpt>
<trkpt lat="23.297484" lon="116.176615">
<time>2016-10-06T07:54:29Z</time></trkpt>
<trkpt lat="23.297494" lon="116.176525">
<time>2016-10-06T07:54:30Z</time></trkpt>
<trkpt lat="23.297513" lon="116.176154">
<time>2016-10-06T07:54:31Z</time></trkpt>
<trkpt lat="23.297572" lon="116.175543">
<time>2016-10-06T07:54:32Z</time></trkpt>
<trkpt lat="23.297601" lon="116.175102">
<time>2016-10-06T07:54:33Z</time></trkpt>
<trkpt lat="23.29764" lon="116.17463">
<time>2016-10-06T07:54:34Z</time></trkpt>
<trkpt lat="23.297689" lon="116.174119">
<time>2016-10-06T07:54:35Z</time></trkpt>
<trkpt lat="23.297718" lon="116.173829">
<time>2016-10-06T07:54:36Z</time></trkpt>
<trkpt lat="23.297777" lon="116.173047">
<time>2016-10-06T07:54:37Z</time></trkpt>
<trkpt lat="23.297807" lon="116.172806">
<time>2016-10-06T07:54:38Z</time></trkpt>
<trkpt lat="23.297836" lon="116.172445">
<time>2016-10-06T07:54:39Z</time></trkpt>
<trkpt lat="23.297865" lon="116.171994">
<time>2016-10-06T07:54:40Z</time></trkpt>
<trkpt lat="23.297904" lon="116.171553">
<time>2016-10-06T07:54:41Z</time></trkpt>
<trkpt lat="23.297943" lon="116.170932">
<time>2016-10-06T07:54:42Z</time></trkpt>
<trkpt lat="23.297933" lon="116.170872">
<time>2016-10-06T07:54:43Z</time></trkpt>
<trkpt lat="23.297952" lon="116.1704">
<time>2016-10-06T07:54:44Z</time></trkpt>
<trkpt lat="23.297951" lon="116.169899">
<time>2016-10-06T07:54:45Z</time></trkpt>
<trkpt lat="23.29792" lon="116.169468">
<time>2016-10-06T07:54:46Z</time></trkpt>
<trkpt lat="23.29792" lon="116.169248">
<time>2016-10-06T07:54:47Z</time></trkpt>
<trkpt lat="23.29792" lon="116.169188">
<time>2016-10-06T07:54:48Z</time></trkpt>
<trkpt lat="23.297939" lon="116.169067">
<time>2016-10-06T07:54:49Z</time></trkpt>
<trkpt lat="23.297959" lon="116.168947">
<time>2016-10-06T07:54:50Z</time></trkpt>
<trkpt lat="23.298009" lon="116.168686">
<time>2016-10-06T07:54:51Z</time></trkpt>
<trkpt lat="23.298048" lon="116.168566">
<time>2016-10-06T07:54:52Z</time></trkpt>
<trkpt lat="23.298058" lon="116.168516">
<time>2016-10-06T07:54:53Z</time></trkpt>
<trkpt lat="23.298267" lon="116.168075">
<time>2016-10-06T07:54:54Z</time></trkpt>
<trkpt lat="23.298387" lon="116.167794">
<time>2016-10-06T07:54:55Z</time></trkpt>
<trkpt lat="23.298397" lon="116.167764">
<time>2016-10-06T07:54:56Z</time></trkpt>
<trkpt lat="23.298476" lon="116.167584">
<time>2016-10-06T07:54:57Z</time></trkpt>
<trkpt lat="23.298486" lon="116.167574">
<time>2016-10-06T07:54:58Z</time></trkpt>
<trkpt lat="23.298815" lon="116.167052">
<time>2016-10-06T07:54:59Z</time></trkpt>
<trkpt lat="23.299094" lon="116.166541">
<time>2016-10-06T07:55:00Z</time></trkpt>
<trkpt lat="23.299164" lon="116.166371">
<time>2016-10-06T07:55:01Z</time></trkpt>
<trkpt lat="23.299184" lon="116.166311">
<time>2016-10-06T07:55:02Z</time></trkpt>
<trkpt lat="23.299263" lon="116.16604">
<time>2016-10-06T07:55:03Z</time></trkpt>
<trkpt lat="23.299352" lon="116.165579">
<time>2016-10-06T07:55:04Z</time></trkpt>
<trkpt lat="23.299352" lon="116.165579">
<time>2016-10-06T07:55:05Z</time></trkpt>
<trkpt lat="23.299352" lon="116.165559">
<time>2016-10-06T07:55:06Z</time></trkpt>
<trkpt lat="23.299352" lon="116.165529">
<time>2016-10-06T07:55:07Z</time></trkpt>
<trkpt lat="23.299362" lon="116.165509">
<time>2016-10-06T07:55:08Z</time></trkpt>
<trkpt lat="23.299412" lon="116.165158">
<time>2016-10-06T07:55:09Z</time></trkpt>
<trkpt lat="23.299478" lon="116.163203">
<time>2016-10-06T07:55:10Z</time></trkpt>
<trkpt lat="23.299478" lon="116.163143">
<time>2016-10-06T07:55:11Z</time></trkpt>
<trkpt lat="23.299527" lon="116.162592">
<time>2016-10-06T07:55:12Z</time></trkpt>
<trkpt lat="23.299566" lon="116.162161">
<time>2016-10-06T07:55:13Z</time></trkpt>
<trkpt lat="23.299586" lon="116.16196">
<time>2016-10-06T07:55:14Z</time></trkpt>
<trkpt lat="23.299615" lon="116.16171">
<time>2016-10-06T07:55:15Z</time></trkpt>
<trkpt lat="23.299635" lon="116.161519">
<time>2016-10-06T07:55:16Z</time></trkpt>
<trkpt lat="23.299654" lon="116.161309">
<time>2016-10-06T07:55:17Z</time></trkpt>
<trkpt lat="23.299674" lon="116.161108">
<time>2016-10-06T07:55:18Z</time></trkpt>
<trkpt lat="23.299684" lon="116.160898">
<time>2016-10-06T07:55:19Z</time></trkpt>
<trkpt lat="23.299693" lon="116.160757">
<time>2016-10-06T07:55:20Z</time></trkpt>
<trkpt lat="23.299732" lon="116.160316">
<time>2016-10-06T07:55:21Z</time></trkpt>
<trkpt lat="23.299762" lon="116.159925">
<time>2016-10-06T07:55:22Z</time></trkpt>
<trkpt lat="23.299781" lon="116.159725">
<time>2016-10-06T07:55:23Z</time></trkpt>
<trkpt lat="23.299821" lon="116.159304">
<time>2016-10-06T07:55:24Z</time></trkpt>
<trkpt lat="23.29984" lon="116.158963">
<time>2016-10-06T07:55:25Z</time></trkpt>
<trkpt lat="23.299859" lon="116.158753">
<time>2016-10-06T07:55:26Z</time></trkpt>
<trkpt lat="23.299859" lon="116.158753">
<time>2016-10-06T07:55:27Z</time></trkpt>
<trkpt lat="23.2999" lon="116.158813">
<time>2016-10-06T07:55:28Z</time></trkpt>
<trkpt lat="23.2999" lon="116.158813">
<time>2016-10-06T07:55:29Z</time></trkpt>
<trkpt lat="23.299809" lon="116.158652">
<time>2016-10-06T07:55:30Z</time></trkpt>
<trkpt lat="23.299839" lon="116.158262">
<time>2016-10-06T07:55:31Z</time></trkpt>
<trkpt lat="23.299868" lon="116.157871">
<time>2016-10-06T07:55:32Z</time></trkpt>
<trkpt lat="23.299927" lon="116.157239">
<time>2016-10-06T07:55:33Z</time></trkpt>
<trkpt lat="23.299956" lon="116.156948">
<time>2016-10-06T07:55:34Z</time></trkpt>
<trkpt lat="23.299985" lon="116.156578">
<time>2016-10-06T07:55:35Z</time></trkpt>
<trkpt lat="23.300015" lon="116.156297">
<time>2016-10-06T07:55:36Z</time></trkpt>
<trkpt lat="23.300044" lon="116.156006">
<time>2016-10-06T07:55:37Z</time></trkpt>
<trkpt lat="23.300054" lon="116.155906">
<time>2016-10-06T07:55:38Z</time></trkpt>
<trkpt lat="23.300064" lon="116.155796">
<time>2016-10-06T07:55:39Z</time></trkpt>
<trkpt lat="23.300074" lon="116.155706">
<time>2016-10-06T07:55:40Z</time></trkpt>
<trkpt lat="23.300084" lon="116.155605">
<time>2016-10-06T07:55:41Z</time></trkpt>
<trkpt lat="23.300133" lon="116.155064">
<time>2016-10-06T07:55:42Z</time></trkpt>
<trkpt lat="23.300132" lon="116.155014">
<time>2016-10-06T07:55:43Z</time></trkpt>
<trkpt lat="23.300221" lon="116.154102">
<time>2016-10-06T07:55:44Z</time></trkpt>
<trkpt lat="23.30027" lon="116.153571">
<time>2016-10-06T07:55:45Z</time></trkpt>
<trkpt lat="23.300319" lon="116.153029">
<time>2016-10-06T07:55:46Z</time></trkpt>
<trkpt lat="23.300358" lon="116.152488">
<time>2016-10-06T07:55:47Z</time></trkpt>
<trkpt lat="23.300416" lon="116.151646">
<time>2016-10-06T07:55:48Z</time></trkpt>
<trkpt lat="23.300446" lon="116.151235">
<time>2016-10-06T07:55:49Z</time></trkpt>
<trkpt lat="23.300455" lon="116.151175">
<time>2016-10-06T07:55:50Z</time></trkpt>
<trkpt lat="23.300494" lon="116.150584">
<time>2016-10-06T07:55:51Z</time></trkpt>
<trkpt lat="23.300494" lon="116.150584">
<time>2016-10-06T07:55:52Z</time></trkpt>
<trkpt lat="23.300194" lon="116.150544">
<time>2016-10-06T07:55:53Z</time></trkpt>
<trkpt lat="23.299494" lon="116.150494">
<time>2016-10-06T07:55:54Z</time></trkpt>
<trkpt lat="23.299484" lon="116.150494">
<time>2016-10-06T07:55:55Z</time></trkpt>
<trkpt lat="23.299474" lon="116.150484">
<time>2016-10-06T07:55:56Z</time></trkpt>
<trkpt lat="23.299474" lon="116.150474">
<time>2016-10-06T07:55:57Z</time></trkpt>
<trkpt lat="23.299523" lon="116.149561">
<time>2016-10-06T07:55:58Z</time></trkpt>
<trkpt lat="23.299522" lon="116.149201">
<time>2016-10-06T07:55:59Z</time></trkpt>
<trkpt lat="23.299522" lon="116.149141">
<time>2016-10-06T07:56:00Z</time></trkpt>
<trkpt lat="23.299502" lon="116.14907">
<time>2016-10-06T07:56:01Z</time></trkpt>
<trkpt lat="23.299482" lon="116.14901">
<time>2016-10-06T07:56:02Z</time></trkpt>
<trkpt lat="23.299452" lon="116.14895">
<time>2016-10-06T07:56:03Z</time></trkpt>
<trkpt lat="23.299432" lon="116.14891">
<time>2016-10-06T07:56:04Z</time></trkpt>
<trkpt lat="23.299402" lon="116.14887">
<time>2016-10-06T07:56:05Z</time></trkpt>
<trkpt lat="23.299141" lon="116.148639">
<time>2016-10-06T07:56:06Z</time></trkpt>
<trkpt lat="23.299091" lon="116.148579">
<time>2016-10-06T07:56:07Z</time></trkpt>
<trkpt lat="23.299041" lon="116.148509">
<time>2016-10-06T07:56:08Z</time></trkpt>
<trkpt lat="23.299021" lon="116.148459">
<time>2016-10-06T07:56:09Z</time></trkpt>
<trkpt lat="23.298991" lon="116.148419">
<time>2016-10-06T07:56:10Z</time></trkpt>
<trkpt lat="23.298971" lon="116.148359">
<time>2016-10-06T07:56:11Z</time></trkpt>
<trkpt lat="23.298941" lon="116.148178">
<time>2016-10-06T07:56:12Z</time></trkpt>
<trkpt lat="23.29889" lon="116.147918">
<time>2016-10-06T07:56:13Z</time></trkpt>
<trkpt lat="23.298779" lon="116.147256">
<time>2016-10-06T07:56:14Z</time></trkpt>
<trkpt lat="23.298517" lon="116.145803">
<time>2016-10-06T07:56:15Z</time></trkpt>
<trkpt lat="23.298244" lon="116.14425">
<time>2016-10-06T07:56:16Z</time></trkpt>
<trkpt lat="23.298153" lon="116.143669">
<time>2016-10-06T07:56:17Z</time></trkpt>
<trkpt lat="23.298122" lon="116.143308">
<time>2016-10-06T07:56:18Z</time></trkpt>
<trkpt lat="23.298112" lon="116.143198">
<time>2016-10-06T07:56:19Z</time></trkpt>
<trkpt lat="23.298112" lon="116.143117">
<time>2016-10-06T07:56:20Z</time></trkpt>
<trkpt lat="23.298112" lon="116.143027">
<time>2016-10-06T07:56:21Z</time></trkpt>
<trkpt lat="23.298102" lon="116.142907">
<time>2016-10-06T07:56:22Z</time></trkpt>
<trkpt lat="23.298102" lon="116.142797">
<time>2016-10-06T07:56:23Z</time></trkpt>
<trkpt lat="23.298102" lon="116.142797">
<time>2016-10-06T07:56:24Z</time></trkpt>
<trkpt lat="23.298072" lon="116.142787">
<time>2016-10-06T07:56:25Z</time></trkpt>
<trkpt lat="23.297402" lon="116.142747">
<time>2016-10-06T07:56:26Z</time></trkpt>
<trkpt lat="23.296812" lon="116.142707">
<time>2016-10-06T07:56:27Z</time></trkpt>
<trkpt lat="23.295452" lon="116.142657">
<time>2016-10-06T07:56:28Z</time></trkpt>
<trkpt lat="23.295452" lon="116.142657">
<time>2016-10-06T07:56:29Z</time></trkpt>
<trkpt lat="23.295482" lon="116.142576">
<time>2016-10-06T07:56:30Z</time></trkpt>
<trkpt lat="23.295701" lon="116.142085">
<time>2016-10-06T07:56:31Z</time></trkpt>
<trkpt lat="23.29594" lon="116.141524">
<time>2016-10-06T07:56:32Z</time></trkpt>
<trkpt lat="23.296059" lon="116.141093">
<time>2016-10-06T07:56:33Z</time></trkpt>
<trkpt lat="23.296089" lon="116.140793">
<time>2016-10-06T07:56:34Z</time></trkpt>
<trkpt lat="23.296128" lon="116.140382">
<time>2016-10-06T07:56:35Z</time></trkpt>
<trkpt lat="23.296118" lon="116.140101">
<time>2016-10-06T07:56:36Z</time></trkpt>
<trkpt lat="23.296097" lon="116.13983">
<time>2016-10-06T07:56:37Z</time></trkpt>
<trkpt lat="23.296057" lon="116.13957">
<time>2016-10-06T07:56:38Z</time></trkpt>
<trkpt lat="23.295977" lon="116.139289">
<time>2016-10-06T07:56:39Z</time></trkpt>
<trkpt lat="23.295384" lon="116.137666">
<time>2016-10-06T07:56:40Z</time></trkpt>
<trkpt lat="23.295234" lon="116.137235">
<time>2016-10-06T07:56:41Z</time></trkpt>
<trkpt lat="23.295043" lon="116.136714">
<time>2016-10-06T07:56:42Z</time></trkpt>
<trkpt lat="23.294842" lon="116.136153">
<time>2016-10-06T07:56:43Z</time></trkpt>
<trkpt lat="23.293989" lon="116.133778">
<time>2016-10-06T07:56:44Z</time></trkpt>
<trkpt lat="23.293236" lon="116.131695">
<time>2016-10-06T07:56:45Z</time></trkpt>
<trkpt lat="23.291721" lon="116.127467">
<time>2016-10-06T07:56:46Z</time></trkpt>
<trkpt lat="23.29139" lon="116.126545">
<time>2016-10-06T07:56:47Z</time></trkpt>
<trkpt lat="23.291139" lon="116.125864">
<time>2016-10-06T07:56:48Z</time></trkpt>
<trkpt lat="23.290908" lon="116.125203">
<time>2016-10-06T07:56:49Z</time></trkpt>
<trkpt lat="23.290838" lon="116.125013">
<time>2016-10-06T07:56:50Z</time></trkpt>
<trkpt lat="23.289985" lon="116.122819">
<time>2016-10-06T07:56:51Z</time></trkpt>
<trkpt lat="23.289855" lon="116.122499">
<time>2016-10-06T07:56:52Z</time></trkpt>
<trkpt lat="23.289554" lon="116.121748">
<time>2016-10-06T07:56:53Z</time></trkpt>
<trkpt lat="23.289424" lon="116.121617">
<time>2016-10-06T07:56:54Z</time></trkpt>
<trkpt lat="23.289424" lon="116.121617">
<time>2016-10-06T07:56:55Z</time></trkpt>
<trkpt lat="23.289434" lon="116.121507">
<time>2016-10-06T07:56:56Z</time></trkpt>
<trkpt lat="23.289434" lon="116.121507">
<time>2016-10-06T07:56:57Z</time></trkpt>
<trkpt lat="23.289374" lon="116.121447">
<time>2016-10-06T07:56:58Z</time></trkpt>
<trkpt lat="23.288954" lon="116.121046">
<time>2016-10-06T07:56:59Z</time></trkpt>
<trkpt lat="23.288513" lon="116.120636">
<time>2016-10-06T07:57:00Z</time></trkpt>
<trkpt lat="23.288173" lon="116.120325">
<time>2016-10-06T07:57:01Z</time></trkpt>
<trkpt lat="23.288033" lon="116.120185">
<time>2016-10-06T07:57:02Z</time></trkpt>
<trkpt lat="23.287443" lon="116.119624">
<time>2016-10-06T07:57:03Z</time></trkpt>
<trkpt lat="23.286732" lon="116.118964">
<time>2016-10-06T07:57:04Z</time></trkpt>
<trkpt lat="23.286352" lon="116.118613">
<time>2016-10-06T07:57:05Z</time></trkpt>
<trkpt lat="23.286122" lon="116.118393">
<time>2016-10-06T07:57:06Z</time></trkpt>
<trkpt lat="23.285592" lon="116.117902">
<time>2016-10-06T07:57:07Z</time></trkpt>
<trkpt lat="23.285361" lon="116.117692">
<time>2016-10-06T07:57:08Z</time></trkpt>
<trkpt lat="23.284891" lon="116.117261">
<time>2016-10-06T07:57:09Z</time></trkpt>
<trkpt lat="23.284391" lon="116.116791">
<time>2016-10-06T07:57:10Z</time></trkpt>
<trkpt lat="23.284101" lon="116.11648">
<time>2016-10-06T07:57:11Z</time></trkpt>
<trkpt lat="23.284001" lon="116.11636">
<time>2016-10-06T07:57:12Z</time></trkpt>
<trkpt lat="23.28377" lon="116.11609">
<time>2016-10-06T07:57:13Z</time></trkpt>
<trkpt lat="23.28364" lon="116.115909">
<time>2016-10-06T07:57:14Z</time></trkpt>
<trkpt lat="23.28324" lon="116.115329">
<time>2016-10-06T07:57:15Z</time></trkpt>
<trkpt lat="23.28312" lon="116.115158">
<time>2016-10-06T07:57:16Z</time></trkpt>
<trkpt lat="23.283" lon="116.114978">
<time>2016-10-06T07:57:17Z</time></trkpt>
<trkpt lat="23.282789" lon="116.114678">
<time>2016-10-06T07:57:18Z</time></trkpt>
<trkpt lat="23.282709" lon="116.114558">
<time>2016-10-06T07:57:19Z</time></trkpt>
<trkpt lat="23.282659" lon="116.114478">
<time>2016-10-06T07:57:20Z</time></trkpt>
<trkpt lat="23.282479" lon="116.114207">
<time>2016-10-06T07:57:21Z</time></trkpt>
<trkpt lat="23.282309" lon="116.113967">
<time>2016-10-06T07:57:22Z</time></trkpt>
<trkpt lat="23.281959" lon="116.113456">
<time>2016-10-06T07:57:23Z</time></trkpt>
<trkpt lat="23.281748" lon="116.113156">
<time>2016-10-06T07:57:24Z</time></trkpt>
<trkpt lat="23.281548" lon="116.112866">
<time>2016-10-06T07:57:25Z</time></trkpt>
<trkpt lat="23.281378" lon="116.112615">
<time>2016-10-06T07:57:26Z</time></trkpt>
<trkpt lat="23.281278" lon="116.112495">
<time>2016-10-06T07:57:27Z</time></trkpt>
<trkpt lat="23.281188" lon="116.112375">
<time>2016-10-06T07:57:28Z</time></trkpt>
<trkpt lat="23.281068" lon="116.112255">
<time>2016-10-06T07:57:29Z</time></trkpt>
<trkpt lat="23.280988" lon="116.112175">
<time>2016-10-06T07:57:30Z</time></trkpt>
<trkpt lat="23.280898" lon="116.112095">
<time>2016-10-06T07:57:31Z</time></trkpt>
<trkpt lat="23.280738" lon="116.111975">
<time>2016-10-06T07:57:32Z</time></trkpt>
<trkpt lat="23.280638" lon="116.111914">
<time>2016-10-06T07:57:33Z</time></trkpt>
<trkpt lat="23.280528" lon="116.111854">
<time>2016-10-06T07:57:34Z</time></trkpt>
<trkpt lat="23.280418" lon="116.111794">
<time>2016-10-06T07:57:35Z</time></trkpt>
<trkpt lat="23.280028" lon="116.111654">
<time>2016-10-06T07:57:36Z</time></trkpt>
<trkpt lat="23.279518" lon="116.111484">
<time>2016-10-06T07:57:37Z</time></trkpt>
<trkpt lat="23.278968" lon="116.111304">
<time>2016-10-06T07:57:38Z</time></trkpt>
<trkpt lat="23.278718" lon="116.111214">
<time>2016-10-06T07:57:39Z</time></trkpt>
<trkpt lat="23.278628" lon="116.111184">
<time>2016-10-06T07:57:40Z</time></trkpt>
<trkpt lat="23.278598" lon="116.111174">
<time>2016-10-06T07:57:41Z</time></trkpt>
<trkpt lat="23.278338" lon="116.111094">
<time>2016-10-06T07:57:42Z</time></trkpt>
<trkpt lat="23.278258" lon="116.111064">
<time>2016-10-06T07:57:43Z</time></trkpt>
<trkpt lat="23.278058" lon="116.110994">
<time>2016-10-06T07:57:44Z</time></trkpt>
<trkpt lat="23.277738" lon="116.110893">
<time>2016-10-06T07:57:45Z</time></trkpt>
<trkpt lat="23.277008" lon="116.110603">
<time>2016-10-06T07:57:46Z</time></trkpt>
<trkpt lat="23.275918" lon="116.110203">
<time>2016-10-06T07:57:47Z</time></trkpt>
<trkpt lat="23.274998" lon="116.109862">
<time>2016-10-06T07:57:48Z</time></trkpt>
<trkpt lat="23.274758" lon="116.109772">
<time>2016-10-06T07:57:49Z</time></trkpt>
<trkpt lat="23.274628" lon="116.109722">
<time>2016-10-06T07:57:50Z</time></trkpt>
<trkpt lat="23.274238" lon="116.109582">
<time>2016-10-06T07:57:51Z</time></trkpt>
<trkpt lat="23.274008" lon="116.109492">
<time>2016-10-06T07:57:52Z</time></trkpt>
<trkpt lat="23.273828" lon="116.109412">
<time>2016-10-06T07:57:53Z</time></trkpt>
<trkpt lat="23.273518" lon="116.109272">
<time>2016-10-06T07:57:54Z</time></trkpt>
<trkpt lat="23.273248" lon="116.109132">
<time>2016-10-06T07:57:55Z</time></trkpt>
<trkpt lat="23.272928" lon="116.108942">
<time>2016-10-06T07:57:56Z</time></trkpt>
<trkpt lat="23.272678" lon="116.108761">
<time>2016-10-06T07:57:57Z</time></trkpt>
<trkpt lat="23.272488" lon="116.108621">
<time>2016-10-06T07:57:58Z</time></trkpt>
<trkpt lat="23.272368" lon="116.108521">
<time>2016-10-06T07:57:59Z</time></trkpt>
<trkpt lat="23.272268" lon="116.108431">
<time>2016-10-06T07:58:00Z</time></trkpt>
<trkpt lat="23.271968" lon="116.108151">
<time>2016-10-06T07:58:01Z</time></trkpt>
<trkpt lat="23.271778" lon="116.107971">
<time>2016-10-06T07:58:02Z</time></trkpt>
<trkpt lat="23.271688" lon="116.107891">
<time>2016-10-06T07:58:03Z</time></trkpt>
<trkpt lat="23.271448" lon="116.10766">
<time>2016-10-06T07:58:04Z</time></trkpt>
<trkpt lat="23.271107" lon="116.10732">
<time>2016-10-06T07:58:05Z</time></trkpt>
<trkpt lat="23.270627" lon="116.10685">
<time>2016-10-06T07:58:06Z</time></trkpt>
<trkpt lat="23.270197" lon="116.106429">
<time>2016-10-06T07:58:07Z</time></trkpt>
<trkpt lat="23.269787" lon="116.106039">
<time>2016-10-06T07:58:08Z</time></trkpt>
<trkpt lat="23.269317" lon="116.105588">
<time>2016-10-06T07:58:09Z</time></trkpt>
<trkpt lat="23.268907" lon="116.105188">
<time>2016-10-06T07:58:10Z</time></trkpt>
<trkpt lat="23.268567" lon="116.104858">
<time>2016-10-06T07:58:11Z</time></trkpt>
<trkpt lat="23.268497" lon="116.104798">
<time>2016-10-06T07:58:12Z</time></trkpt>
<trkpt lat="23.268007" lon="116.104317">
<time>2016-10-06T07:58:13Z</time></trkpt>
<trkpt lat="23.267677" lon="116.103987">
<time>2016-10-06T07:58:14Z</time></trkpt>
<trkpt lat="23.267327" lon="116.103657">
<time>2016-10-06T07:58:15Z</time></trkpt>
<trkpt lat="23.267037" lon="116.103407">
<time>2016-10-06T07:58:16Z</time></trkpt>
<trkpt lat="23.266727" lon="116.103156">
<time>2016-10-06T07:58:17Z</time></trkpt>
<trkpt lat="23.266437" lon="116.102936">
<time>2016-10-06T07:58:18Z</time></trkpt>
<trkpt lat="23.266317" lon="116.102856">
<time>2016-10-06T07:58:19Z</time></trkpt>
<trkpt lat="23.266137" lon="116.102736">
<time>2016-10-06T07:58:20Z</time></trkpt>
<trkpt lat="23.265817" lon="116.102546">
<time>2016-10-06T07:58:21Z</time></trkpt>
<trkpt lat="23.265527" lon="116.102396">
<time>2016-10-06T07:58:22Z</time></trkpt>
<trkpt lat="23.265387" lon="116.102336">
<time>2016-10-06T07:58:23Z</time></trkpt>
<trkpt lat="23.265217" lon="116.102256">
<time>2016-10-06T07:58:24Z</time></trkpt>
<trkpt lat="23.264897" lon="116.102126">
<time>2016-10-06T07:58:25Z</time></trkpt>
<trkpt lat="23.264517" lon="116.101976">
<time>2016-10-06T07:58:26Z</time></trkpt>
<trkpt lat="23.264097" lon="116.101816">
<time>2016-10-06T07:58:27Z</time></trkpt>
<trkpt lat="23.263627" lon="116.101635">
<time>2016-10-06T07:58:28Z</time></trkpt>
<trkpt lat="23.263287" lon="116.101495">
<time>2016-10-06T07:58:29Z</time></trkpt>
<trkpt lat="23.262807" lon="116.101255">
<time>2016-10-06T07:58:30Z</time></trkpt>
<trkpt lat="23.262657" lon="116.101175">
<time>2016-10-06T07:58:31Z</time></trkpt>
<trkpt lat="23.262227" lon="116.100955">
<time>2016-10-06T07:58:32Z</time></trkpt>
<trkpt lat="23.261707" lon="116.100675">
<time>2016-10-06T07:58:33Z</time></trkpt>
<trkpt lat="23.261197" lon="116.100395">
<time>2016-10-06T07:58:34Z</time></trkpt>
<trkpt lat="23.260398" lon="116.099964">
<time>2016-10-06T07:58:35Z</time></trkpt>
<trkpt lat="23.260208" lon="116.099864">
<time>2016-10-06T07:58:36Z</time></trkpt>
<trkpt lat="23.260038" lon="116.099774">
<time>2016-10-06T07:58:37Z</time></trkpt>
<trkpt lat="23.259798" lon="116.099634">
<time>2016-10-06T07:58:38Z</time></trkpt>
<trkpt lat="23.259598" lon="116.099514">
<time>2016-10-06T07:58:39Z</time></trkpt>
<trkpt lat="23.259378" lon="116.099384">
<time>2016-10-06T07:58:40Z</time></trkpt>
<trkpt lat="23.259008" lon="116.099114">
<time>2016-10-06T07:58:41Z</time></trkpt>
<trkpt lat="23.258658" lon="116.098834">
<time>2016-10-06T07:58:42Z</time></trkpt>
<trkpt lat="23.258508" lon="116.098704">
<time>2016-10-06T07:58:43Z</time></trkpt>
<trkpt lat="23.258388" lon="116.098594">
<time>2016-10-06T07:58:44Z</time></trkpt>
<trkpt lat="23.258128" lon="116.098354">
<time>2016-10-06T07:58:45Z</time></trkpt>
<trkpt lat="23.257858" lon="116.098053">
<time>2016-10-06T07:58:46Z</time></trkpt>
<trkpt lat="23.257638" lon="116.097803">
<time>2016-10-06T07:58:47Z</time></trkpt>
<trkpt lat="23.257428" lon="116.097543">
<time>2016-10-06T07:58:48Z</time></trkpt>
<trkpt lat="23.257128" lon="116.097183">
<time>2016-10-06T07:58:49Z</time></trkpt>
<trkpt lat="23.256798" lon="116.096773">
<time>2016-10-06T07:58:50Z</time></trkpt>
<trkpt lat="23.256298" lon="116.096152">
<time>2016-10-06T07:58:51Z</time></trkpt>
<trkpt lat="23.255818" lon="116.095552">
<time>2016-10-06T07:58:52Z</time></trkpt>
<trkpt lat="23.255178" lon="116.094762">
<time>2016-10-06T07:58:53Z</time></trkpt>
<trkpt lat="23.254908" lon="116.094422">
<time>2016-10-06T07:58:54Z</time></trkpt>
<trkpt lat="23.254489" lon="116.093902">
<time>2016-10-06T07:58:55Z</time></trkpt>
<trkpt lat="23.253959" lon="116.093171">
<time>2016-10-06T07:58:56Z</time></trkpt>
<trkpt lat="23.253809" lon="116.092941">
<time>2016-10-06T07:58:57Z</time></trkpt>
<trkpt lat="23.253649" lon="116.092681">
<time>2016-10-06T07:58:58Z</time></trkpt>
<trkpt lat="23.253409" lon="116.092241">
<time>2016-10-06T07:58:59Z</time></trkpt>
<trkpt lat="23.253279" lon="116.091981">
<time>2016-10-06T07:59:00Z</time></trkpt>
<trkpt lat="23.253099" lon="116.091581">
<time>2016-10-06T07:59:01Z</time></trkpt>
<trkpt lat="23.252939" lon="116.091191">
<time>2016-10-06T07:59:02Z</time></trkpt>
<trkpt lat="23.252739" lon="116.090701">
<time>2016-10-06T07:59:03Z</time></trkpt>
<trkpt lat="23.252529" lon="116.09018">
<time>2016-10-06T07:59:04Z</time></trkpt>
<trkpt lat="23.25226" lon="116.08951">
<time>2016-10-06T07:59:05Z</time></trkpt>
<trkpt lat="23.25196" lon="116.08876">
<time>2016-10-06T07:59:06Z</time></trkpt>
<trkpt lat="23.25165" lon="116.08799">
<time>2016-10-06T07:59:07Z</time></trkpt>
<trkpt lat="23.25133" lon="116.08717">
<time>2016-10-06T07:59:08Z</time></trkpt>
<trkpt lat="23.25125" lon="116.08699">
<time>2016-10-06T07:59:09Z</time></trkpt>
<trkpt lat="23.251111" lon="116.08664">
<time>2016-10-06T07:59:10Z</time></trkpt>
<trkpt lat="23.250861" lon="116.086">
<time>2016-10-06T07:59:11Z</time></trkpt>
<trkpt lat="23.250681" lon="116.08556">
<time>2016-10-06T07:59:12Z</time></trkpt>
<trkpt lat="23.250521" lon="116.08516">
<time>2016-10-06T07:59:13Z</time></trkpt>
<trkpt lat="23.250252" lon="116.08448">
<time>2016-10-06T07:59:14Z</time></trkpt>
<trkpt lat="23.250002" lon="116.08386">
<time>2016-10-06T07:59:15Z</time></trkpt>
<trkpt lat="23.249762" lon="116.08329">
<time>2016-10-06T07:59:16Z</time></trkpt>
<trkpt lat="23.249642" lon="116.08298">
<time>2016-10-06T07:59:17Z</time></trkpt>
<trkpt lat="23.249463" lon="116.08251">
<time>2016-10-06T07:59:18Z</time></trkpt>
<trkpt lat="23.248974" lon="116.08117">
<time>2016-10-06T07:59:19Z</time></trkpt>
<trkpt lat="23.248584" lon="116.080091">
<time>2016-10-06T07:59:20Z</time></trkpt>
<trkpt lat="23.248505" lon="116.079851">
<time>2016-10-06T07:59:21Z</time></trkpt>
<trkpt lat="23.248305" lon="116.079261">
<time>2016-10-06T07:59:22Z</time></trkpt>
<trkpt lat="23.248245" lon="116.079091">
<time>2016-10-06T07:59:23Z</time></trkpt>
<trkpt lat="23.248225" lon="116.079031">
<time>2016-10-06T07:59:24Z</time></trkpt>
<trkpt lat="23.247517" lon="116.076832">
<time>2016-10-06T07:59:25Z</time></trkpt>
<trkpt lat="23.246949" lon="116.074973">
<time>2016-10-06T07:59:26Z</time></trkpt>
<trkpt lat="23.245414" lon="116.069856">
<time>2016-10-06T07:59:27Z</time></trkpt>
<trkpt lat="23.245055" lon="116.068627">
<time>2016-10-06T07:59:28Z</time></trkpt>
<trkpt lat="23.244946" lon="116.068287">
<time>2016-10-06T07:59:29Z</time></trkpt>
<trkpt lat="23.244876" lon="116.068038">
<time>2016-10-06T07:59:30Z</time></trkpt>
<trkpt lat="23.244766" lon="116.067678">
<time>2016-10-06T07:59:31Z</time></trkpt>
<trkpt lat="23.244707" lon="116.067428">
<time>2016-10-06T07:59:32Z</time></trkpt>
<trkpt lat="23.244677" lon="116.067288">
<time>2016-10-06T07:59:33Z</time></trkpt>
<trkpt lat="23.244597" lon="116.067008">
<time>2016-10-06T07:59:34Z</time></trkpt>
<trkpt lat="23.244547" lon="116.066859">
<time>2016-10-06T07:59:35Z</time></trkpt>
<trkpt lat="23.244538" lon="116.066799">
<time>2016-10-06T07:59:36Z</time></trkpt>
<trkpt lat="23.244448" lon="116.066549">
<time>2016-10-06T07:59:37Z</time></trkpt>
<trkpt lat="23.244279" lon="116.066069">
<time>2016-10-06T07:59:38Z</time></trkpt>
<trkpt lat="23.244099" lon="116.06546">
<time>2016-10-06T07:59:39Z</time></trkpt>
<trkpt lat="23.243751" lon="116.064311">
<time>2016-10-06T07:59:40Z</time></trkpt>
<trkpt lat="23.243233" lon="116.062563">
<time>2016-10-06T07:59:41Z</time></trkpt>
<trkpt lat="23.243144" lon="116.062273">
<time>2016-10-06T07:59:42Z</time></trkpt>
<trkpt lat="23.243034" lon="116.061924">
<time>2016-10-06T07:59:43Z</time></trkpt>
<trkpt lat="23.242925" lon="116.061574">
<time>2016-10-06T07:59:44Z</time></trkpt>
<trkpt lat="23.242835" lon="116.061294">
<time>2016-10-06T07:59:45Z</time></trkpt>
<trkpt lat="23.242736" lon="116.061035">
<time>2016-10-06T07:59:46Z</time></trkpt>
<trkpt lat="23.242646" lon="116.060795">
<time>2016-10-06T07:59:47Z</time></trkpt>
<trkpt lat="23.242536" lon="116.060585">
<time>2016-10-06T07:59:48Z</time></trkpt>
<trkpt lat="23.242457" lon="116.060415">
<time>2016-10-06T07:59:49Z</time></trkpt>
<trkpt lat="23.242377" lon="116.060266">
<time>2016-10-06T07:59:50Z</time></trkpt>
<trkpt lat="23.242277" lon="116.060116">
<time>2016-10-06T07:59:51Z</time></trkpt>
<trkpt lat="23.242088" lon="116.059836">
<time>2016-10-06T07:59:52Z</time></trkpt>
<trkpt lat="23.241908" lon="116.059606">
<time>2016-10-06T07:59:53Z</time></trkpt>
<trkpt lat="23.241878" lon="116.059546">
<time>2016-10-06T07:59:54Z</time></trkpt>
<trkpt lat="23.241758" lon="116.059417">
<time>2016-10-06T07:59:55Z</time></trkpt>
<trkpt lat="23.241549" lon="116.059197">
<time>2016-10-06T07:59:56Z</time></trkpt>
<trkpt lat="23.241309" lon="116.058977">
<time>2016-10-06T07:59:57Z</time></trkpt>
<trkpt lat="23.24113" lon="116.058827">
<time>2016-10-06T07:59:58Z</time></trkpt>
<trkpt lat="23.24095" lon="116.058698">
<time>2016-10-06T07:59:59Z</time></trkpt>
<trkpt lat="23.24074" lon="116.058568">
<time>2016-10-06T08:00:00Z</time></trkpt>
<trkpt lat="23.2405" lon="116.058418">
<time>2016-10-06T08:00:01Z</time></trkpt>
<trkpt lat="23.240221" lon="116.058278">
<time>2016-10-06T08:00:02Z</time></trkpt>
<trkpt lat="23.240081" lon="116.058208">
<time>2016-10-06T08:00:03Z</time></trkpt>
<trkpt lat="23.239901" lon="116.058128">
<time>2016-10-06T08:00:04Z</time></trkpt>
<trkpt lat="23.239322" lon="116.057869">
<time>2016-10-06T08:00:05Z</time></trkpt>
<trkpt lat="23.238772" lon="116.057619">
<time>2016-10-06T08:00:06Z</time></trkpt>
<trkpt lat="23.238173" lon="116.057349">
<time>2016-10-06T08:00:07Z</time></trkpt>
<trkpt lat="23.237963" lon="116.05726">
<time>2016-10-06T08:00:08Z</time></trkpt>
<trkpt lat="23.237494" lon="116.05704">
<time>2016-10-06T08:00:09Z</time></trkpt>
<trkpt lat="23.236924" lon="116.05679">
<time>2016-10-06T08:00:10Z</time></trkpt>
<trkpt lat="23.236525" lon="116.056611">
<time>2016-10-06T08:00:11Z</time></trkpt>
<trkpt lat="23.236215" lon="116.056471">
<time>2016-10-06T08:00:12Z</time></trkpt>
<trkpt lat="23.235865" lon="116.056311">
<time>2016-10-06T08:00:13Z</time></trkpt>
<trkpt lat="23.235536" lon="116.056161">
<time>2016-10-06T08:00:14Z</time></trkpt>
<trkpt lat="23.235216" lon="116.056021">
<time>2016-10-06T08:00:15Z</time></trkpt>
<trkpt lat="23.234936" lon="116.055892">
<time>2016-10-06T08:00:16Z</time></trkpt>
<trkpt lat="23.234547" lon="116.055722">
<time>2016-10-06T08:00:17Z</time></trkpt>
<trkpt lat="23.234137" lon="116.055542">
<time>2016-10-06T08:00:18Z</time></trkpt>
<trkpt lat="23.233608" lon="116.055293">
<time>2016-10-06T08:00:19Z</time></trkpt>
<trkpt lat="23.233338" lon="116.055173">
<time>2016-10-06T08:00:20Z</time></trkpt>
<trkpt lat="23.232988" lon="116.055013">
<time>2016-10-06T08:00:21Z</time></trkpt>
<trkpt lat="23.232639" lon="116.054863">
<time>2016-10-06T08:00:22Z</time></trkpt>
<trkpt lat="23.232239" lon="116.054684">
<time>2016-10-06T08:00:23Z</time></trkpt>
<trkpt lat="23.23189" lon="116.054524">
<time>2016-10-06T08:00:24Z</time></trkpt>
<trkpt lat="23.23159" lon="116.054394">
<time>2016-10-06T08:00:25Z</time></trkpt>
<trkpt lat="23.23132" lon="116.054274">
<time>2016-10-06T08:00:26Z</time></trkpt>
<trkpt lat="23.23119" lon="116.054214">
<time>2016-10-06T08:00:27Z</time></trkpt>
<trkpt lat="23.230971" lon="116.054124">
<time>2016-10-06T08:00:28Z</time></trkpt>
<trkpt lat="23.230751" lon="116.054015">
<time>2016-10-06T08:00:29Z</time></trkpt>
<trkpt lat="23.230481" lon="116.053895">
<time>2016-10-06T08:00:30Z</time></trkpt>
<trkpt lat="23.230221" lon="116.053775">
<time>2016-10-06T08:00:31Z</time></trkpt>
<trkpt lat="23.230012" lon="116.053675">
<time>2016-10-06T08:00:32Z</time></trkpt>
<trkpt lat="23.229872" lon="116.053615">
<time>2016-10-06T08:00:33Z</time></trkpt>
<trkpt lat="23.229652" lon="116.053515">
<time>2016-10-06T08:00:34Z</time></trkpt>
<trkpt lat="23.229312" lon="116.053366">
<time>2016-10-06T08:00:35Z</time></trkpt>
<trkpt lat="23.229123" lon="116.053286">
<time>2016-10-06T08:00:36Z</time></trkpt>
<trkpt lat="23.228953" lon="116.053206">
<time>2016-10-06T08:00:37Z</time></trkpt>
<trkpt lat="23.228653" lon="116.053066">
<time>2016-10-06T08:00:38Z</time></trkpt>
<trkpt lat="23.228394" lon="116.052946">
<time>2016-10-06T08:00:39Z</time></trkpt>
<trkpt lat="23.228174" lon="116.052827">
<time>2016-10-06T08:00:40Z</time></trkpt>
<trkpt lat="23.227924" lon="116.052697">
<time>2016-10-06T08:00:41Z</time></trkpt>
<trkpt lat="23.227615" lon="116.052537">
<time>2016-10-06T08:00:42Z</time></trkpt>
<trkpt lat="23.227535" lon="116.052487">
<time>2016-10-06T08:00:43Z</time></trkpt>
<trkpt lat="23.227285" lon="116.052347">
<time>2016-10-06T08:00:44Z</time></trkpt>
<trkpt lat="23.227115" lon="116.052247">
<time>2016-10-06T08:00:45Z</time></trkpt>
<trkpt lat="23.226816" lon="116.052058">
<time>2016-10-06T08:00:46Z</time></trkpt>
<trkpt lat="23.226496" lon="116.051868">
<time>2016-10-06T08:00:47Z</time></trkpt>
<trkpt lat="23.226346" lon="116.051768">
<time>2016-10-06T08:00:48Z</time></trkpt>
<trkpt lat="23.225997" lon="116.051539">
<time>2016-10-06T08:00:49Z</time></trkpt>
<trkpt lat="23.225687" lon="116.051329">
<time>2016-10-06T08:00:50Z</time></trkpt>
<trkpt lat="23.225328" lon="116.051089">
<time>2016-10-06T08:00:51Z</time></trkpt>
<trkpt lat="23.225058" lon="116.05091">
<time>2016-10-06T08:00:52Z</time></trkpt>
<trkpt lat="23.224539" lon="116.05057">
<time>2016-10-06T08:00:53Z</time></trkpt>
<trkpt lat="23.22416" lon="116.050321">
<time>2016-10-06T08:00:54Z</time></trkpt>
<trkpt lat="23.223591" lon="116.049941">
<time>2016-10-06T08:00:55Z</time></trkpt>
<trkpt lat="23.223052" lon="116.049582">
<time>2016-10-06T08:00:56Z</time></trkpt>
<trkpt lat="23.222622" lon="116.049302">
<time>2016-10-06T08:00:57Z</time></trkpt>
<trkpt lat="23.222363" lon="116.049133">
<time>2016-10-06T08:00:58Z</time></trkpt>
<trkpt lat="23.222093" lon="116.048953">
<time>2016-10-06T08:00:59Z</time></trkpt>
<trkpt lat="23.221854" lon="116.048783">
<time>2016-10-06T08:01:00Z</time></trkpt>
<trkpt lat="23.221724" lon="116.048684">
<time>2016-10-06T08:01:01Z</time></trkpt>
<trkpt lat="23.221454" lon="116.048484">
<time>2016-10-06T08:01:02Z</time></trkpt>
<trkpt lat="23.221155" lon="116.048244">
<time>2016-10-06T08:01:03Z</time></trkpt>
<trkpt lat="23.220905" lon="116.048015">
<time>2016-10-06T08:01:04Z</time></trkpt>
<trkpt lat="23.220826" lon="116.047925">
<time>2016-10-06T08:01:05Z</time></trkpt>
<trkpt lat="23.220776" lon="116.047875">
<time>2016-10-06T08:01:06Z</time></trkpt>
<trkpt lat="23.220626" lon="116.047735">
<time>2016-10-06T08:01:07Z</time></trkpt>
<trkpt lat="23.220476" lon="116.047606">
<time>2016-10-06T08:01:08Z</time></trkpt>
<trkpt lat="23.220217" lon="116.047336">
<time>2016-10-06T08:01:09Z</time></trkpt>
<trkpt lat="23.219987" lon="116.047116">
<time>2016-10-06T08:01:10Z</time></trkpt>
<trkpt lat="23.219528" lon="116.046737">
<time>2016-10-06T08:01:11Z</time></trkpt>
<trkpt lat="23.219209" lon="116.046508">
<time>2016-10-06T08:01:12Z</time></trkpt>
<trkpt lat="23.218191" lon="116.045829">
<time>2016-10-06T08:01:13Z</time></trkpt>
<trkpt lat="23.217172" lon="116.04516">
<time>2016-10-06T08:01:14Z</time></trkpt>
<trkpt lat="23.216274" lon="116.044531">
<time>2016-10-06T08:01:15Z</time></trkpt>
<trkpt lat="23.215865" lon="116.044222">
<time>2016-10-06T08:01:16Z</time></trkpt>
<trkpt lat="23.215476" lon="116.043932">
<time>2016-10-06T08:01:17Z</time></trkpt>
<trkpt lat="23.215116" lon="116.043643">
<time>2016-10-06T08:01:18Z</time></trkpt>
<trkpt lat="23.214987" lon="116.043553">
<time>2016-10-06T08:01:19Z</time></trkpt>
<trkpt lat="23.214488" lon="116.043144">
<time>2016-10-06T08:01:20Z</time></trkpt>
<trkpt lat="23.21361" lon="116.042386">
<time>2016-10-06T08:01:21Z</time></trkpt>
<trkpt lat="23.211355" lon="116.040449">
<time>2016-10-06T08:01:22Z</time></trkpt>
<trkpt lat="23.210187" lon="116.039462">
<time>2016-10-06T08:01:23Z</time></trkpt>
<trkpt lat="23.209718" lon="116.039052">
<time>2016-10-06T08:01:24Z</time></trkpt>
<trkpt lat="23.209329" lon="116.038643">
<time>2016-10-06T08:01:25Z</time></trkpt>
<trkpt lat="23.208522" lon="116.037695">
<time>2016-10-06T08:01:26Z</time></trkpt>
<trkpt lat="23.207844" lon="116.036857">
<time>2016-10-06T08:01:27Z</time></trkpt>
<trkpt lat="23.206628" lon="116.03538">
<time>2016-10-06T08:01:28Z</time></trkpt>
<trkpt lat="23.205821" lon="116.034423">
<time>2016-10-06T08:01:29Z</time></trkpt>
<trkpt lat="23.205113" lon="116.033525">
<time>2016-10-06T08:01:30Z</time></trkpt>
<trkpt lat="23.203977" lon="116.032138">
<time>2016-10-06T08:01:31Z</time></trkpt>
<trkpt lat="23.203638" lon="116.031759">
<time>2016-10-06T08:01:32Z</time></trkpt>
<trkpt lat="23.203379" lon="116.031479">
<time>2016-10-06T08:01:33Z</time></trkpt>
<trkpt lat="23.203239" lon="116.03133">
<time>2016-10-06T08:01:34Z</time></trkpt>
<trkpt lat="23.20307" lon="116.03118">
<time>2016-10-06T08:01:35Z</time></trkpt>
<trkpt lat="23.2029" lon="116.03105">
<time>2016-10-06T08:01:36Z</time></trkpt>
<trkpt lat="23.20271" lon="116.030921">
<time>2016-10-06T08:01:37Z</time></trkpt>
<trkpt lat="23.202581" lon="116.030841">
<time>2016-10-06T08:01:38Z</time></trkpt>
<trkpt lat="23.202441" lon="116.030751">
<time>2016-10-06T08:01:39Z</time></trkpt>
<trkpt lat="23.202241" lon="116.030651">
<time>2016-10-06T08:01:40Z</time></trkpt>
<trkpt lat="23.202062" lon="116.030572">
<time>2016-10-06T08:01:41Z</time></trkpt>
<trkpt lat="23.201882" lon="116.030502">
<time>2016-10-06T08:01:42Z</time></trkpt>
<trkpt lat="23.201652" lon="116.030442">
<time>2016-10-06T08:01:43Z</time></trkpt>
<trkpt lat="23.201412" lon="116.030382">
<time>2016-10-06T08:01:44Z</time></trkpt>
<trkpt lat="23.201192" lon="116.030352">
<time>2016-10-06T08:01:45Z</time></trkpt>
<trkpt lat="23.200933" lon="116.030332">
<time>2016-10-06T08:01:46Z</time></trkpt>
<trkpt lat="23.200603" lon="116.030322">
<time>2016-10-06T08:01:47Z</time></trkpt>
<trkpt lat="23.200223" lon="116.030342">
<time>2016-10-06T08:01:48Z</time></trkpt>
<trkpt lat="23.199963" lon="116.030362">
<time>2016-10-06T08:01:49Z</time></trkpt>
<trkpt lat="23.198603" lon="116.030532">
<time>2016-10-06T08:01:50Z</time></trkpt>
<trkpt lat="23.197073" lon="116.030712">
<time>2016-10-06T08:01:51Z</time></trkpt>
<trkpt lat="23.196503" lon="116.030771">
<time>2016-10-06T08:01:52Z</time></trkpt>
<trkpt lat="23.196013" lon="116.030801">
<time>2016-10-06T08:01:53Z</time></trkpt>
<trkpt lat="23.195703" lon="116.030811">
<time>2016-10-06T08:01:54Z</time></trkpt>
<trkpt lat="23.195453" lon="116.030811">
<time>2016-10-06T08:01:55Z</time></trkpt>
<trkpt lat="23.195124" lon="116.030791">
<time>2016-10-06T08:01:56Z</time></trkpt>
<trkpt lat="23.194904" lon="116.030772">
<time>2016-10-06T08:01:57Z</time></trkpt>
<trkpt lat="23.194594" lon="116.030722">
<time>2016-10-06T08:01:58Z</time></trkpt>
<trkpt lat="23.194294" lon="116.030662">
<time>2016-10-06T08:01:59Z</time></trkpt>
<trkpt lat="23.194044" lon="116.030602">
<time>2016-10-06T08:02:00Z</time></trkpt>
<trkpt lat="23.193865" lon="116.030552">
<time>2016-10-06T08:02:01Z</time></trkpt>
<trkpt lat="23.193795" lon="116.030532">
<time>2016-10-06T08:02:02Z</time></trkpt>
<trkpt lat="23.193405" lon="116.030393">
<time>2016-10-06T08:02:03Z</time></trkpt>
<trkpt lat="23.193096" lon="116.030273">
<time>2016-10-06T08:02:04Z</time></trkpt>
<trkpt lat="23.192856" lon="116.030163">
<time>2016-10-06T08:02:05Z</time></trkpt>
<trkpt lat="23.192576" lon="116.030023">
<time>2016-10-06T08:02:06Z</time></trkpt>
<trkpt lat="23.192337" lon="116.029894">
<time>2016-10-06T08:02:07Z</time></trkpt>
<trkpt lat="23.191758" lon="116.029545">
<time>2016-10-06T08:02:08Z</time></trkpt>
<trkpt lat="23.19096" lon="116.028996">
<time>2016-10-06T08:02:09Z</time></trkpt>
<trkpt lat="23.190501" lon="116.028707">
<time>2016-10-06T08:02:10Z</time></trkpt>
<trkpt lat="23.189992" lon="116.028358">
<time>2016-10-06T08:02:11Z</time></trkpt>
<trkpt lat="23.189632" lon="116.028128">
<time>2016-10-06T08:02:12Z</time></trkpt>
<trkpt lat="23.188654" lon="116.02747">
<time>2016-10-06T08:02:13Z</time></trkpt>
<trkpt lat="23.188086" lon="116.027101">
<time>2016-10-06T08:02:14Z</time></trkpt>
<trkpt lat="23.187637" lon="116.026801">
<time>2016-10-06T08:02:15Z</time></trkpt>
<trkpt lat="23.186469" lon="116.026013">
<time>2016-10-06T08:02:16Z</time></trkpt>
<trkpt lat="23.18613" lon="116.025804">
<time>2016-10-06T08:02:17Z</time></trkpt>
<trkpt lat="23.18583" lon="116.025615">
<time>2016-10-06T08:02:18Z</time></trkpt>
<trkpt lat="23.185561" lon="116.025465">
<time>2016-10-06T08:02:19Z</time></trkpt>
<trkpt lat="23.185202" lon="116.025255">
<time>2016-10-06T08:02:20Z</time></trkpt>
<trkpt lat="23.184952" lon="116.025136">
<time>2016-10-06T08:02:21Z</time></trkpt>
<trkpt lat="23.184004" lon="116.024657">
<time>2016-10-06T08:02:22Z</time></trkpt>
<trkpt lat="23.183504" lon="116.024438">
<time>2016-10-06T08:02:23Z</time></trkpt>
<trkpt lat="23.182736" lon="116.024089">
<time>2016-10-06T08:02:24Z</time></trkpt>
<trkpt lat="23.181957" lon="116.02371">
<time>2016-10-06T08:02:25Z</time></trkpt>
<trkpt lat="23.181667" lon="116.02358">
<time>2016-10-06T08:02:26Z</time></trkpt>
<trkpt lat="23.181318" lon="116.02344">
<time>2016-10-06T08:02:27Z</time></trkpt>
<trkpt lat="23.181019" lon="116.023291">
<time>2016-10-06T08:02:28Z</time></trkpt>
<trkpt lat="23.180619" lon="116.023101">
<time>2016-10-06T08:02:29Z</time></trkpt>
<trkpt lat="23.18034" lon="116.022952">
<time>2016-10-06T08:02:30Z</time></trkpt>
<trkpt lat="23.1801" lon="116.022822">
<time>2016-10-06T08:02:31Z</time></trkpt>
<trkpt lat="23.179711" lon="116.022582">
<time>2016-10-06T08:02:32Z</time></trkpt>
<trkpt lat="23.179022" lon="116.022114">
<time>2016-10-06T08:02:33Z</time></trkpt>
<trkpt lat="23.178194" lon="116.021545">
<time>2016-10-06T08:02:34Z</time></trkpt>
<trkpt lat="23.177506" lon="116.021076">
<time>2016-10-06T08:02:35Z</time></trkpt>
<trkpt lat="23.177147" lon="116.020837">
<time>2016-10-06T08:02:36Z</time></trkpt>
<trkpt lat="23.176628" lon="116.020478">
<time>2016-10-06T08:02:37Z</time></trkpt>
<trkpt lat="23.176139" lon="116.020139">
<time>2016-10-06T08:02:38Z</time></trkpt>
<trkpt lat="23.175471" lon="116.01968">
<time>2016-10-06T08:02:39Z</time></trkpt>
<trkpt lat="23.174663" lon="116.019092">
<time>2016-10-06T08:02:40Z</time></trkpt>
<trkpt lat="23.173924" lon="116.018543">
<time>2016-10-06T08:02:41Z</time></trkpt>
<trkpt lat="23.173396" lon="116.018134">
<time>2016-10-06T08:02:42Z</time></trkpt>
<trkpt lat="23.171201" lon="116.016469">
<time>2016-10-06T08:02:43Z</time></trkpt>
<trkpt lat="23.170802" lon="116.01618">
<time>2016-10-06T08:02:44Z</time></trkpt>
<trkpt lat="23.170353" lon="116.015831">
<time>2016-10-06T08:02:45Z</time></trkpt>
<trkpt lat="23.169935" lon="116.015472">
<time>2016-10-06T08:02:46Z</time></trkpt>
<trkpt lat="23.169306" lon="116.014923">
<time>2016-10-06T08:02:47Z</time></trkpt>
<trkpt lat="23.168529" lon="116.014175">
<time>2016-10-06T08:02:48Z</time></trkpt>
<trkpt lat="23.167871" lon="116.013497">
<time>2016-10-06T08:02:49Z</time></trkpt>
<trkpt lat="23.167213" lon="116.012789">
<time>2016-10-06T08:02:50Z</time></trkpt>
<trkpt lat="23.166655" lon="116.012171">
<time>2016-10-06T08:02:51Z</time></trkpt>
<trkpt lat="23.166526" lon="116.012031">
<time>2016-10-06T08:02:52Z</time></trkpt>
<trkpt lat="23.166337" lon="116.011822">
<time>2016-10-06T08:02:53Z</time></trkpt>
<trkpt lat="23.166087" lon="116.011563">
<time>2016-10-06T08:02:54Z</time></trkpt>
<trkpt lat="23.165918" lon="116.011393">
<time>2016-10-06T08:02:55Z</time></trkpt>
<trkpt lat="23.165669" lon="116.011154">
<time>2016-10-06T08:02:56Z</time></trkpt>
<trkpt lat="23.16536" lon="116.010914">
<time>2016-10-06T08:02:57Z</time></trkpt>
<trkpt lat="23.16521" lon="116.010815">
<time>2016-10-06T08:02:58Z</time></trkpt>
<trkpt lat="23.16507" lon="116.010725">
<time>2016-10-06T08:02:59Z</time></trkpt>
<trkpt lat="23.164751" lon="116.010555">
<time>2016-10-06T08:03:00Z</time></trkpt>
<trkpt lat="23.164392" lon="116.010416">
<time>2016-10-06T08:03:01Z</time></trkpt>
<trkpt lat="23.163703" lon="116.010167">
<time>2016-10-06T08:03:02Z</time></trkpt>
<trkpt lat="23.163523" lon="116.010107">
<time>2016-10-06T08:03:03Z</time></trkpt>
<trkpt lat="23.162944" lon="116.009927">
<time>2016-10-06T08:03:04Z</time></trkpt>
<trkpt lat="23.162634" lon="116.009828">
<time>2016-10-06T08:03:05Z</time></trkpt>
<trkpt lat="23.162264" lon="116.009708">
<time>2016-10-06T08:03:06Z</time></trkpt>
<trkpt lat="23.162045" lon="116.009648">
<time>2016-10-06T08:03:07Z</time></trkpt>
<trkpt lat="23.161116" lon="116.009389">
<time>2016-10-06T08:03:08Z</time></trkpt>
<trkpt lat="23.159897" lon="116.00902">
<time>2016-10-06T08:03:09Z</time></trkpt>
<trkpt lat="23.159358" lon="116.008871">
<time>2016-10-06T08:03:10Z</time></trkpt>
<trkpt lat="23.159158" lon="116.008811">
<time>2016-10-06T08:03:11Z</time></trkpt>
<trkpt lat="23.158439" lon="116.008591">
<time>2016-10-06T08:03:12Z</time></trkpt>
<trkpt lat="23.157081" lon="116.008193">
<time>2016-10-06T08:03:13Z</time></trkpt>
<trkpt lat="23.156232" lon="116.007913">
<time>2016-10-06T08:03:14Z</time></trkpt>
<trkpt lat="23.155903" lon="116.007804">
<time>2016-10-06T08:03:15Z</time></trkpt>
<trkpt lat="23.155353" lon="116.007594">
<time>2016-10-06T08:03:16Z</time></trkpt>
<trkpt lat="23.154655" lon="116.007295">
<time>2016-10-06T08:03:17Z</time></trkpt>
<trkpt lat="23.154175" lon="116.007076">
<time>2016-10-06T08:03:18Z</time></trkpt>
<trkpt lat="23.153946" lon="116.006976">
<time>2016-10-06T08:03:19Z</time></trkpt>
<trkpt lat="23.153636" lon="116.006827">
<time>2016-10-06T08:03:20Z</time></trkpt>
<trkpt lat="23.152728" lon="116.006348">
<time>2016-10-06T08:03:21Z</time></trkpt>
<trkpt lat="23.152409" lon="116.006169">
<time>2016-10-06T08:03:22Z</time></trkpt>
<trkpt lat="23.152149" lon="116.006009">
<time>2016-10-06T08:03:23Z</time></trkpt>
<trkpt lat="23.151441" lon="116.00557">
<time>2016-10-06T08:03:24Z</time></trkpt>
<trkpt lat="23.150493" lon="116.004992">
<time>2016-10-06T08:03:25Z</time></trkpt>
<trkpt lat="23.149366" lon="116.004304">
<time>2016-10-06T08:03:26Z</time></trkpt>
<trkpt lat="23.149006" lon="116.004105">
<time>2016-10-06T08:03:27Z</time></trkpt>
<trkpt lat="23.148657" lon="116.003905">
<time>2016-10-06T08:03:28Z</time></trkpt>
<trkpt lat="23.147929" lon="116.003516">
<time>2016-10-06T08:03:29Z</time></trkpt>
<trkpt lat="23.1474" lon="116.003247">
<time>2016-10-06T08:03:30Z</time></trkpt>
<trkpt lat="23.14695" lon="116.003038">
<time>2016-10-06T08:03:31Z</time></trkpt>
<trkpt lat="23.146242" lon="116.002709">
<time>2016-10-06T08:03:32Z</time></trkpt>
<trkpt lat="23.145613" lon="116.002449">
<time>2016-10-06T08:03:33Z</time></trkpt>
<trkpt lat="23.145243" lon="116.0023">
<time>2016-10-06T08:03:34Z</time></trkpt>
<trkpt lat="23.144704" lon="116.002091">
<time>2016-10-06T08:03:35Z</time></trkpt>
<trkpt lat="23.144524" lon="116.002021">
<time>2016-10-06T08:03:36Z</time></trkpt>
<trkpt lat="23.144514" lon="116.002021">
<time>2016-10-06T08:03:37Z</time></trkpt>
<trkpt lat="23.143806" lon="116.001762">
<time>2016-10-06T08:03:38Z</time></trkpt>
<trkpt lat="23.143216" lon="116.001552">
<time>2016-10-06T08:03:39Z</time></trkpt>
<trkpt lat="23.142258" lon="116.001193">
<time>2016-10-06T08:03:40Z</time></trkpt>
<trkpt lat="23.14087" lon="116.000695">
<time>2016-10-06T08:03:41Z</time></trkpt>
<trkpt lat="23.139123" lon="116.000047">
<time>2016-10-06T08:03:42Z</time></trkpt>
<trkpt lat="23.138953" lon="115.999987">
<time>2016-10-06T08:03:43Z</time></trkpt>
<trkpt lat="23.138254" lon="115.999748">
<time>2016-10-06T08:03:44Z</time></trkpt>
<trkpt lat="23.136327" lon="115.99904">
<time>2016-10-06T08:03:45Z</time></trkpt>
<trkpt lat="23.135548" lon="115.99882">
<time>2016-10-06T08:03:46Z</time></trkpt>
<trkpt lat="23.135318" lon="115.998771">
<time>2016-10-06T08:03:47Z</time></trkpt>
<trkpt lat="23.135258" lon="115.998761">
<time>2016-10-06T08:03:48Z</time></trkpt>
<trkpt lat="23.134199" lon="115.998591">
<time>2016-10-06T08:03:49Z</time></trkpt>
<trkpt lat="23.130752" lon="115.998083">
<time>2016-10-06T08:03:50Z</time></trkpt>
<trkpt lat="23.127864" lon="115.997704">
<time>2016-10-06T08:03:51Z</time></trkpt>
<trkpt lat="23.126915" lon="115.997595">
<time>2016-10-06T08:03:52Z</time></trkpt>
<trkpt lat="23.126585" lon="115.997555">
<time>2016-10-06T08:03:53Z</time></trkpt>
<trkpt lat="23.126205" lon="115.997515">
<time>2016-10-06T08:03:54Z</time></trkpt>
<trkpt lat="23.125856" lon="115.997505">
<time>2016-10-06T08:03:55Z</time></trkpt>
<trkpt lat="23.125486" lon="115.997505">
<time>2016-10-06T08:03:56Z</time></trkpt>
<trkpt lat="23.125106" lon="115.997525">
<time>2016-10-06T08:03:57Z</time></trkpt>
<trkpt lat="23.124746" lon="115.997565">
<time>2016-10-06T08:03:58Z</time></trkpt>
<trkpt lat="23.124496" lon="115.997605">
<time>2016-10-06T08:03:59Z</time></trkpt>
<trkpt lat="23.124146" lon="115.997684">
<time>2016-10-06T08:04:00Z</time></trkpt>
<trkpt lat="23.123466" lon="115.997874">
<time>2016-10-06T08:04:01Z</time></trkpt>
<trkpt lat="23.122755" lon="115.998133">
<time>2016-10-06T08:04:02Z</time></trkpt>
<trkpt lat="23.120754" lon="115.998881">
<time>2016-10-06T08:04:03Z</time></trkpt>
<trkpt lat="23.119813" lon="115.99924">
<time>2016-10-06T08:04:04Z</time></trkpt>
<trkpt lat="23.119232" lon="115.99944">
<time>2016-10-06T08:04:05Z</time></trkpt>
<trkpt lat="23.118822" lon="115.999579">
<time>2016-10-06T08:04:06Z</time></trkpt>
<trkpt lat="23.118292" lon="115.999739">
<time>2016-10-06T08:04:07Z</time></trkpt>
<trkpt lat="23.117922" lon="115.999849">
<time>2016-10-06T08:04:08Z</time></trkpt>
<trkpt lat="23.117402" lon="115.999988">
<time>2016-10-06T08:04:09Z</time></trkpt>
<trkpt lat="23.117142" lon="116.000048">
<time>2016-10-06T08:04:10Z</time></trkpt>
<trkpt lat="23.116741" lon="116.000148">
<time>2016-10-06T08:04:11Z</time></trkpt>
<trkpt lat="23.116141" lon="116.000278">
<time>2016-10-06T08:04:12Z</time></trkpt>
<trkpt lat="23.114951" lon="116.000497">
<time>2016-10-06T08:04:13Z</time></trkpt>
<trkpt lat="23.114211" lon="116.000597">
<time>2016-10-06T08:04:14Z</time></trkpt>
<trkpt lat="23.113821" lon="116.000637">
<time>2016-10-06T08:04:15Z</time></trkpt>
<trkpt lat="23.113441" lon="116.000667">
<time>2016-10-06T08:04:16Z</time></trkpt>
<trkpt lat="23.113201" lon="116.000667">
<time>2016-10-06T08:04:17Z</time></trkpt>
<trkpt lat="23.112801" lon="116.000677">
<time>2016-10-06T08:04:18Z</time></trkpt>
<trkpt lat="23.112512" lon="116.000667">
<time>2016-10-06T08:04:19Z</time></trkpt>
<trkpt lat="23.112232" lon="116.000647">
<time>2016-10-06T08:04:20Z</time></trkpt>
<trkpt lat="23.111562" lon="116.000587">
<time>2016-10-06T08:04:21Z</time></trkpt>
<trkpt lat="23.111202" lon="116.000537">
<time>2016-10-06T08:04:22Z</time></trkpt>
<trkpt lat="23.110813" lon="116.000477">
<time>2016-10-06T08:04:23Z</time></trkpt>
<trkpt lat="23.110623" lon="116.000437">
<time>2016-10-06T08:04:24Z</time></trkpt>
<trkpt lat="23.110323" lon="116.000358">
<time>2016-10-06T08:04:25Z</time></trkpt>
<trkpt lat="23.110004" lon="116.000268">
<time>2016-10-06T08:04:26Z</time></trkpt>
<trkpt lat="23.109614" lon="116.000158">
<time>2016-10-06T08:04:27Z</time></trkpt>
<trkpt lat="23.109385" lon="116.000079">
<time>2016-10-06T08:04:28Z</time></trkpt>
<trkpt lat="23.109105" lon="115.999989">
<time>2016-10-06T08:04:29Z</time></trkpt>
<trkpt lat="23.108756" lon="115.999849">
<time>2016-10-06T08:04:30Z</time></trkpt>
<trkpt lat="23.106459" lon="115.998922">
<time>2016-10-06T08:04:31Z</time></trkpt>
<trkpt lat="23.105711" lon="115.998623">
<time>2016-10-06T08:04:32Z</time></trkpt>
<trkpt lat="23.105261" lon="115.998454">
<time>2016-10-06T08:04:33Z</time></trkpt>
<trkpt lat="23.103953" lon="115.997995">
<time>2016-10-06T08:04:34Z</time></trkpt>
<trkpt lat="23.102246" lon="115.997447">
<time>2016-10-06T08:04:35Z</time></trkpt>
<trkpt lat="23.101047" lon="115.997058">
<time>2016-10-06T08:04:36Z</time></trkpt>
<trkpt lat="23.100648" lon="115.996928">
<time>2016-10-06T08:04:37Z</time></trkpt>
<trkpt lat="23.100079" lon="115.996729">
<time>2016-10-06T08:04:38Z</time></trkpt>
<trkpt lat="23.099779" lon="115.996609">
<time>2016-10-06T08:04:39Z</time></trkpt>
<trkpt lat="23.0995" lon="115.99646">
<time>2016-10-06T08:04:40Z</time></trkpt>
<trkpt lat="23.09936" lon="115.99638">
<time>2016-10-06T08:04:41Z</time></trkpt>
<trkpt lat="23.09923" lon="115.9963">
<time>2016-10-06T08:04:42Z</time></trkpt>
<trkpt lat="23.099051" lon="115.99619">
<time>2016-10-06T08:04:43Z</time></trkpt>
<trkpt lat="23.098801" lon="115.996021">
<time>2016-10-06T08:04:44Z</time></trkpt>
<trkpt lat="23.098682" lon="115.995941">
<time>2016-10-06T08:04:45Z</time></trkpt>
<trkpt lat="23.098442" lon="115.995752">
<time>2016-10-06T08:04:46Z</time></trkpt>
<trkpt lat="23.098223" lon="115.995562">
<time>2016-10-06T08:04:47Z</time></trkpt>
<trkpt lat="23.097705" lon="115.995084">
<time>2016-10-06T08:04:48Z</time></trkpt>
<trkpt lat="23.095791" lon="115.993319">
<time>2016-10-06T08:04:49Z</time></trkpt>
<trkpt lat="23.094445" lon="115.992062">
<time>2016-10-06T08:04:50Z</time></trkpt>
<trkpt lat="23.093568" lon="115.991255">
<time>2016-10-06T08:04:51Z</time></trkpt>
<trkpt lat="23.09297" lon="115.990716">
<time>2016-10-06T08:04:52Z</time></trkpt>
<trkpt lat="23.092262" lon="115.990048">
<time>2016-10-06T08:04:53Z</time></trkpt>
<trkpt lat="23.088056" lon="115.98616">
<time>2016-10-06T08:04:54Z</time></trkpt>
<trkpt lat="23.087797" lon="115.98591">
<time>2016-10-06T08:04:55Z</time></trkpt>
<trkpt lat="23.084697" lon="115.983049">
<time>2016-10-06T08:04:56Z</time></trkpt>
<trkpt lat="23.084397" lon="115.982779">
<time>2016-10-06T08:04:57Z</time></trkpt>
<trkpt lat="23.084088" lon="115.98251">
<time>2016-10-06T08:04:58Z</time></trkpt>
<trkpt lat="23.083899" lon="115.982371">
<time>2016-10-06T08:04:59Z</time></trkpt>
<trkpt lat="23.083639" lon="115.982201">
<time>2016-10-06T08:05:00Z</time></trkpt>
<trkpt lat="23.08332" lon="115.982012">
<time>2016-10-06T08:05:01Z</time></trkpt>
<trkpt lat="23.083111" lon="115.981922">
<time>2016-10-06T08:05:02Z</time></trkpt>
<trkpt lat="23.082791" lon="115.981802">
<time>2016-10-06T08:05:03Z</time></trkpt>
<trkpt lat="23.082432" lon="115.981683">
<time>2016-10-06T08:05:04Z</time></trkpt>
<trkpt lat="23.081423" lon="115.981413">
<time>2016-10-06T08:05:05Z</time></trkpt>
<trkpt lat="23.079865" lon="115.981015">
<time>2016-10-06T08:05:06Z</time></trkpt>
<trkpt lat="23.078736" lon="115.980725">
<time>2016-10-06T08:05:07Z</time></trkpt>
<trkpt lat="23.076259" lon="115.980097">
<time>2016-10-06T08:05:08Z</time></trkpt>
<trkpt lat="23.076259" lon="115.980097">
<time>2016-10-06T08:05:09Z</time></trkpt>
<trkpt lat="23.076249" lon="115.979938">
<time>2016-10-06T08:05:10Z</time></trkpt>
<trkpt lat="23.07627" lon="115.979818">
<time>2016-10-06T08:05:11Z</time></trkpt>
<trkpt lat="23.07628" lon="115.979698">
<time>2016-10-06T08:05:12Z</time></trkpt>
<trkpt lat="23.07631" lon="115.979579">
<time>2016-10-06T08:05:13Z</time></trkpt>
<trkpt lat="23.076331" lon="115.979429">
<time>2016-10-06T08:05:14Z</time></trkpt>
<trkpt lat="23.076361" lon="115.97929">
<time>2016-10-06T08:05:15Z</time></trkpt>
<trkpt lat="23.076382" lon="115.97914">
<time>2016-10-06T08:05:16Z</time></trkpt>
<trkpt lat="23.076392" lon="115.97899">
<time>2016-10-06T08:05:17Z</time></trkpt>
<trkpt lat="23.076413" lon="115.978831">
<time>2016-10-06T08:05:18Z</time></trkpt>
<trkpt lat="23.076423" lon="115.978661">
<time>2016-10-06T08:05:19Z</time></trkpt>
<trkpt lat="23.076434" lon="115.978472">
<time>2016-10-06T08:05:20Z</time></trkpt>
<trkpt lat="23.076434" lon="115.978272">
<time>2016-10-06T08:05:21Z</time></trkpt>
<trkpt lat="23.076435" lon="115.978083">
<time>2016-10-06T08:05:22Z</time></trkpt>
<trkpt lat="23.076435" lon="115.977963">
<time>2016-10-06T08:05:23Z</time></trkpt>
<trkpt lat="23.076435" lon="115.977863">
<time>2016-10-06T08:05:24Z</time></trkpt>
<trkpt lat="23.076435" lon="115.977844">
<time>2016-10-06T08:05:25Z</time></trkpt>
<trkpt lat="23.076426" lon="115.977764">
<time>2016-10-06T08:05:26Z</time></trkpt>
<trkpt lat="23.076416" lon="115.977624">
<time>2016-10-06T08:05:27Z</time></trkpt>
<trkpt lat="23.076386" lon="115.977494">
<time>2016-10-06T08:05:28Z</time></trkpt>
<trkpt lat="23.076377" lon="115.977415">
<time>2016-10-06T08:05:29Z</time></trkpt>
<trkpt lat="23.076347" lon="115.977325">
<time>2016-10-06T08:05:30Z</time></trkpt>
<trkpt lat="23.076327" lon="115.977225">
<time>2016-10-06T08:05:31Z</time></trkpt>
<trkpt lat="23.076298" lon="115.977125">
<time>2016-10-06T08:05:32Z</time></trkpt>
<trkpt lat="23.076258" lon="115.976976">
<time>2016-10-06T08:05:33Z</time></trkpt>
<trkpt lat="23.076238" lon="115.976926">
<time>2016-10-06T08:05:34Z</time></trkpt>
<trkpt lat="23.076208" lon="115.976866">
<time>2016-10-06T08:05:35Z</time></trkpt>
<trkpt lat="23.076198" lon="115.976836">
<time>2016-10-06T08:05:36Z</time></trkpt>
<trkpt lat="23.076188" lon="115.976816">
<time>2016-10-06T08:05:37Z</time></trkpt>
<trkpt lat="23.076159" lon="115.976786">
<time>2016-10-06T08:05:38Z</time></trkpt>
<trkpt lat="23.076129" lon="115.976747">
<time>2016-10-06T08:05:39Z</time></trkpt>
<trkpt lat="23.076089" lon="115.976707">
<time>2016-10-06T08:05:40Z</time></trkpt>
<trkpt lat="23.075999" lon="115.976637">
<time>2016-10-06T08:05:41Z</time></trkpt>
<trkpt lat="23.075929" lon="115.976577">
<time>2016-10-06T08:05:42Z</time></trkpt>
<trkpt lat="23.075859" lon="115.976517">
<time>2016-10-06T08:05:43Z</time></trkpt>
<trkpt lat="23.07579" lon="115.976457">
<time>2016-10-06T08:05:44Z</time></trkpt>
<trkpt lat="23.07571" lon="115.976407">
<time>2016-10-06T08:05:45Z</time></trkpt>
<trkpt lat="23.07563" lon="115.976358">
<time>2016-10-06T08:05:46Z</time></trkpt>
<trkpt lat="23.07555" lon="115.976308">
<time>2016-10-06T08:05:47Z</time></trkpt>
<trkpt lat="23.07547" lon="115.976258">
<time>2016-10-06T08:05:48Z</time></trkpt>
<trkpt lat="23.075381" lon="115.976218">
<time>2016-10-06T08:05:49Z</time></trkpt>
<trkpt lat="23.075091" lon="115.976019">
<time>2016-10-06T08:05:50Z</time></trkpt>
<trkpt lat="23.074812" lon="115.975809">
<time>2016-10-06T08:05:51Z</time></trkpt>
<trkpt lat="23.074702" lon="115.975729">
<time>2016-10-06T08:05:52Z</time></trkpt>
<trkpt lat="23.074463" lon="115.97555">
<time>2016-10-06T08:05:53Z</time></trkpt>
<trkpt lat="23.074363" lon="115.97547">
<time>2016-10-06T08:05:54Z</time></trkpt>
<trkpt lat="23.074243" lon="115.97539">
<time>2016-10-06T08:05:55Z</time></trkpt>
<trkpt lat="23.074194" lon="115.97535">
<time>2016-10-06T08:05:56Z</time></trkpt>
<trkpt lat="23.074144" lon="115.97532">
<time>2016-10-06T08:05:57Z</time></trkpt>
<trkpt lat="23.074054" lon="115.975281">
<time>2016-10-06T08:05:58Z</time></trkpt>
<trkpt lat="23.074034" lon="115.975271">
<time>2016-10-06T08:05:59Z</time></trkpt>
<trkpt lat="23.073964" lon="115.975231">
<time>2016-10-06T08:06:00Z</time></trkpt>
<trkpt lat="23.073605" lon="115.975081">
<time>2016-10-06T08:06:01Z</time></trkpt>
<trkpt lat="23.073285" lon="115.974942">
<time>2016-10-06T08:06:02Z</time></trkpt>
<trkpt lat="23.073205" lon="115.974912">
<time>2016-10-06T08:06:03Z</time></trkpt>
<trkpt lat="23.073135" lon="115.974872">
<time>2016-10-06T08:06:04Z</time></trkpt>
<trkpt lat="23.072976" lon="115.974792">
<time>2016-10-06T08:06:05Z</time></trkpt>
<trkpt lat="23.072816" lon="115.974702">
<time>2016-10-06T08:06:06Z</time></trkpt>
<trkpt lat="23.072786" lon="115.974662">
<time>2016-10-06T08:06:07Z</time></trkpt>
<trkpt lat="23.072756" lon="115.974573">
<time>2016-10-06T08:06:08Z</time></trkpt>
<trkpt lat="23.072727" lon="115.974493">
<time>2016-10-06T08:06:09Z</time></trkpt>
<trkpt lat="23.072707" lon="115.974393">
<time>2016-10-06T08:06:10Z</time></trkpt>
<trkpt lat="23.072647" lon="115.974223">
<time>2016-10-06T08:06:11Z</time></trkpt>
<trkpt lat="23.072608" lon="115.974084">
<time>2016-10-06T08:06:12Z</time></trkpt>
<trkpt lat="23.072588" lon="115.974024">
<time>2016-10-06T08:06:13Z</time></trkpt>
<trkpt lat="23.072548" lon="115.973964">
<time>2016-10-06T08:06:14Z</time></trkpt>
<trkpt lat="23.072499" lon="115.973874">
<time>2016-10-06T08:06:15Z</time></trkpt>
<trkpt lat="23.072459" lon="115.973815">
<time>2016-10-06T08:06:16Z</time></trkpt>
<trkpt lat="23.072349" lon="115.973625">
<time>2016-10-06T08:06:17Z</time></trkpt>
<trkpt lat="23.07226" lon="115.973466">
<time>2016-10-06T08:06:18Z</time></trkpt>
<trkpt lat="23.07221" lon="115.973396">
<time>2016-10-06T08:06:19Z</time></trkpt>
<trkpt lat="23.07213" lon="115.973276">
<time>2016-10-06T08:06:20Z</time></trkpt>
<trkpt lat="23.072041" lon="115.973136">
<time>2016-10-06T08:06:21Z</time></trkpt>
<trkpt lat="23.071911" lon="115.972977">
<time>2016-10-06T08:06:22Z</time></trkpt>
<trkpt lat="23.071862" lon="115.972907">
<time>2016-10-06T08:06:23Z</time></trkpt>
<trkpt lat="23.071762" lon="115.972777">
<time>2016-10-06T08:06:24Z</time></trkpt>
<trkpt lat="23.071712" lon="115.972727">
<time>2016-10-06T08:06:25Z</time></trkpt>
<trkpt lat="23.071672" lon="115.972678">
<time>2016-10-06T08:06:26Z</time></trkpt>
<trkpt lat="23.071642" lon="115.972628">
<time>2016-10-06T08:06:27Z</time></trkpt>
<trkpt lat="23.071613" lon="115.972558">
<time>2016-10-06T08:06:28Z</time></trkpt>
<trkpt lat="23.071573" lon="115.972428">
<time>2016-10-06T08:06:29Z</time></trkpt>
<trkpt lat="23.071533" lon="115.972279">
<time>2016-10-06T08:06:30Z</time></trkpt>
<trkpt lat="23.071484" lon="115.972139">
<time>2016-10-06T08:06:31Z</time></trkpt>
<trkpt lat="23.071474" lon="115.972109">
<time>2016-10-06T08:06:32Z</time></trkpt>
<trkpt lat="23.071474" lon="115.972099">
<time>2016-10-06T08:06:33Z</time></trkpt>
<trkpt lat="23.071464" lon="115.972079">
<time>2016-10-06T08:06:34Z</time></trkpt>
<trkpt lat="23.071454" lon="115.972069">
<time>2016-10-06T08:06:35Z</time></trkpt>
<trkpt lat="23.071434" lon="115.972049">
<time>2016-10-06T08:06:36Z</time></trkpt>
<trkpt lat="23.071414" lon="115.972029">
<time>2016-10-06T08:06:37Z</time></trkpt>
<trkpt lat="23.071354" lon="115.97196">
<time>2016-10-06T08:06:38Z</time></trkpt>
<trkpt lat="23.071305" lon="115.97191">
<time>2016-10-06T08:06:39Z</time></trkpt>
<trkpt lat="23.071245" lon="115.97185">
<time>2016-10-06T08:06:40Z</time></trkpt>
<trkpt lat="23.071205" lon="115.97181">
<time>2016-10-06T08:06:41Z</time></trkpt>
<trkpt lat="23.071135" lon="115.97174">
<time>2016-10-06T08:06:42Z</time></trkpt>
<trkpt lat="23.071115" lon="115.97173">
<time>2016-10-06T08:06:43Z</time></trkpt>
<trkpt lat="23.071026" lon="115.97162">
<time>2016-10-06T08:06:44Z</time></trkpt>
<trkpt lat="23.070986" lon="115.971571">
<time>2016-10-06T08:06:45Z</time></trkpt>
<trkpt lat="23.070906" lon="115.971501">
<time>2016-10-06T08:06:46Z</time></trkpt>
<trkpt lat="23.070856" lon="115.971441">
<time>2016-10-06T08:06:47Z</time></trkpt>
<trkpt lat="23.070776" lon="115.971371">
<time>2016-10-06T08:06:48Z</time></trkpt>
<trkpt lat="23.070746" lon="115.971341">
<time>2016-10-06T08:06:49Z</time></trkpt>
<trkpt lat="23.070697" lon="115.971271">
<time>2016-10-06T08:06:50Z</time></trkpt>
<trkpt lat="23.070627" lon="115.971192">
<time>2016-10-06T08:06:51Z</time></trkpt>
<trkpt lat="23.070577" lon="115.971142">
<time>2016-10-06T08:06:52Z</time></trkpt>
<trkpt lat="23.070517" lon="115.971092">
<time>2016-10-06T08:06:53Z</time></trkpt>
<trkpt lat="23.070447" lon="115.971002">
<time>2016-10-06T08:06:54Z</time></trkpt>
<trkpt lat="23.070408" lon="115.970942">
<time>2016-10-06T08:06:55Z</time></trkpt>
<trkpt lat="23.070328" lon="115.970852">
<time>2016-10-06T08:06:56Z</time></trkpt>
<trkpt lat="23.070238" lon="115.970763">
<time>2016-10-06T08:06:57Z</time></trkpt>
<trkpt lat="23.070159" lon="115.970683">
<time>2016-10-06T08:06:58Z</time></trkpt>
<trkpt lat="23.070129" lon="115.970653">
<time>2016-10-06T08:06:59Z</time></trkpt>
<trkpt lat="23.070109" lon="115.970613">
<time>2016-10-06T08:07:00Z</time></trkpt>
<trkpt lat="23.070089" lon="115.970583">
<time>2016-10-06T08:07:01Z</time></trkpt>
<trkpt lat="23.070069" lon="115.970563">
<time>2016-10-06T08:07:02Z</time></trkpt>
<trkpt lat="23.070049" lon="115.970543">
<time>2016-10-06T08:07:03Z</time></trkpt>
<trkpt lat="23.070009" lon="115.970503">
<time>2016-10-06T08:07:04Z</time></trkpt>
<trkpt lat="23.069979" lon="115.970473">
<time>2016-10-06T08:07:05Z</time></trkpt>
<trkpt lat="23.069949" lon="115.970444">
<time>2016-10-06T08:07:06Z</time></trkpt>
<trkpt lat="23.069919" lon="115.970414">
<time>2016-10-06T08:07:07Z</time></trkpt>
<trkpt lat="23.06986" lon="115.970344">
<time>2016-10-06T08:07:08Z</time></trkpt>
<trkpt lat="23.06978" lon="115.970234">
<time>2016-10-06T08:07:09Z</time></trkpt>
<trkpt lat="23.06975" lon="115.970194">
<time>2016-10-06T08:07:10Z</time></trkpt>
<trkpt lat="23.06972" lon="115.970154">
<time>2016-10-06T08:07:11Z</time></trkpt>
<trkpt lat="23.06963" lon="115.970065">
<time>2016-10-06T08:07:12Z</time></trkpt>
<trkpt lat="23.069581" lon="115.969995">
<time>2016-10-06T08:07:13Z</time></trkpt>
<trkpt lat="23.069501" lon="115.969955">
<time>2016-10-06T08:07:14Z</time></trkpt>
<trkpt lat="23.069461" lon="115.969935">
<time>2016-10-06T08:07:15Z</time></trkpt>
<trkpt lat="23.069391" lon="115.969925">
<time>2016-10-06T08:07:16Z</time></trkpt>
<trkpt lat="23.069361" lon="115.969905">
<time>2016-10-06T08:07:17Z</time></trkpt>
<trkpt lat="23.069301" lon="115.969885">
<time>2016-10-06T08:07:18Z</time></trkpt>
<trkpt lat="23.069221" lon="115.969835">
<time>2016-10-06T08:07:19Z</time></trkpt>
<trkpt lat="23.069171" lon="115.969825">
<time>2016-10-06T08:07:20Z</time></trkpt>
<trkpt lat="23.069131" lon="115.969815">
<time>2016-10-06T08:07:21Z</time></trkpt>
<trkpt lat="23.069101" lon="115.969825">
<time>2016-10-06T08:07:22Z</time></trkpt>
<trkpt lat="23.069081" lon="115.969825">
<time>2016-10-06T08:07:23Z</time></trkpt>
<trkpt lat="23.069041" lon="115.969845">
<time>2016-10-06T08:07:24Z</time></trkpt>
<trkpt lat="23.068991" lon="115.969865">
<time>2016-10-06T08:07:25Z</time></trkpt>
<trkpt lat="23.068951" lon="115.969895">
<time>2016-10-06T08:07:26Z</time></trkpt>
<trkpt lat="23.068881" lon="115.969965">
<time>2016-10-06T08:07:27Z</time></trkpt>
<trkpt lat="23.068881" lon="115.969965">
<time>2016-10-06T08:07:28Z</time></trkpt>
<trkpt lat="23.068762" lon="115.969496">
<time>2016-10-06T08:07:29Z</time></trkpt>
<trkpt lat="23.068762" lon="115.969496">
<time>2016-10-06T08:07:30Z</time></trkpt>
<trkpt lat="23.068903" lon="115.969366">
<time>2016-10-06T08:07:31Z</time></trkpt>
<trkpt lat="23.068903" lon="115.969366">
<time>2016-10-06T08:07:32Z</time></trkpt>
<trkpt lat="23.068537" lon="115.967751">
<time>2016-10-06T08:07:33Z</time></trkpt>
<trkpt lat="23.068448" lon="115.967332">
<time>2016-10-06T08:07:34Z</time></trkpt>
<trkpt lat="23.068379" lon="115.966982">
<time>2016-10-06T08:07:35Z</time></trkpt>
<trkpt lat="23.06836" lon="115.966923">
<time>2016-10-06T08:07:36Z</time></trkpt>
<trkpt lat="23.06835" lon="115.966883">
<time>2016-10-06T08:07:37Z</time></trkpt>
<trkpt lat="23.06833" lon="115.966853">
<time>2016-10-06T08:07:38Z</time></trkpt>
<trkpt lat="23.06833" lon="115.966843">
<time>2016-10-06T08:07:39Z</time></trkpt>
<trkpt lat="23.06831" lon="115.966823">
<time>2016-10-06T08:07:40Z</time></trkpt>
<trkpt lat="23.0683" lon="115.966793">
<time>2016-10-06T08:07:41Z</time></trkpt>
<trkpt lat="23.067354" lon="115.965636">
<time>2016-10-06T08:07:42Z</time></trkpt>
<trkpt lat="23.066118" lon="115.96417">
<time>2016-10-06T08:07:43Z</time></trkpt>
<trkpt lat="23.066118" lon="115.96417">
<time>2016-10-06T08:07:44Z</time></trkpt>
<trkpt lat="23.066169" lon="115.9638">
<time>2016-10-06T08:07:45Z</time></trkpt>
<trkpt lat="23.0662" lon="115.963411">
<time>2016-10-06T08:07:46Z</time></trkpt>
<trkpt lat="23.06619" lon="115.963202">
<time>2016-10-06T08:07:47Z</time></trkpt>
<trkpt lat="23.066181" lon="115.963032">
<time>2016-10-06T08:07:48Z</time></trkpt>
<trkpt lat="23.066161" lon="115.962853">
<time>2016-10-06T08:07:49Z</time></trkpt>
<trkpt lat="23.066142" lon="115.962673">
<time>2016-10-06T08:07:50Z</time></trkpt>
<trkpt lat="23.066102" lon="115.962474">
<time>2016-10-06T08:07:51Z</time></trkpt>
<trkpt lat="23.066033" lon="115.962224">
<time>2016-10-06T08:07:52Z</time></trkpt>
<trkpt lat="23.065914" lon="115.961915">
<time>2016-10-06T08:07:53Z</time></trkpt>
<trkpt lat="23.065854" lon="115.961805">
<time>2016-10-06T08:07:54Z</time></trkpt>
<trkpt lat="23.065755" lon="115.961606">
<time>2016-10-06T08:07:55Z</time></trkpt>
<trkpt lat="23.065466" lon="115.961127">
<time>2016-10-06T08:07:56Z</time></trkpt>
<trkpt lat="23.065416" lon="115.961027">
<time>2016-10-06T08:07:57Z</time></trkpt>
<trkpt lat="23.065357" lon="115.960937">
<time>2016-10-06T08:07:58Z</time></trkpt>
<trkpt lat="23.064053" lon="115.958663">
<time>2016-10-06T08:07:59Z</time></trkpt>
<trkpt lat="23.062829" lon="115.956557">
<time>2016-10-06T08:08:00Z</time></trkpt>
<trkpt lat="23.062002" lon="115.95515">
<time>2016-10-06T08:08:01Z</time></trkpt>
<trkpt lat="23.061823" lon="115.954871">
<time>2016-10-06T08:08:02Z</time></trkpt>
<trkpt lat="23.061724" lon="115.954721">
<time>2016-10-06T08:08:03Z</time></trkpt>
<trkpt lat="23.061624" lon="115.954572">
<time>2016-10-06T08:08:04Z</time></trkpt>
<trkpt lat="23.061514" lon="115.954432">
<time>2016-10-06T08:08:05Z</time></trkpt>
<trkpt lat="23.061405" lon="115.954292">
<time>2016-10-06T08:08:06Z</time></trkpt>
<trkpt lat="23.061285" lon="115.954163">
<time>2016-10-06T08:08:07Z</time></trkpt>
<trkpt lat="23.061096" lon="115.953973">
<time>2016-10-06T08:08:08Z</time></trkpt>
<trkpt lat="23.060856" lon="115.953724">
<time>2016-10-06T08:08:09Z</time></trkpt>
<trkpt lat="23.060697" lon="115.953564">
<time>2016-10-06T08:08:10Z</time></trkpt>
<trkpt lat="23.060417" lon="115.953314">
<time>2016-10-06T08:08:11Z</time></trkpt>
<trkpt lat="23.060228" lon="115.953155">
<time>2016-10-06T08:08:12Z</time></trkpt>
<trkpt lat="23.059909" lon="115.952845">
<time>2016-10-06T08:08:13Z</time></trkpt>
<trkpt lat="23.059729" lon="115.952666">
<time>2016-10-06T08:08:14Z</time></trkpt>
<trkpt lat="23.0595" lon="115.952446">
<time>2016-10-06T08:08:15Z</time></trkpt>
<trkpt lat="23.05936" lon="115.952307">
<time>2016-10-06T08:08:16Z</time></trkpt>
<trkpt lat="23.059261" lon="115.952207">
<time>2016-10-06T08:08:17Z</time></trkpt>
<trkpt lat="23.059181" lon="115.952127">
<time>2016-10-06T08:08:18Z</time></trkpt>
<trkpt lat="23.058602" lon="115.951558">
<time>2016-10-06T08:08:19Z</time></trkpt>
<trkpt lat="23.058532" lon="115.951498">
<time>2016-10-06T08:08:20Z</time></trkpt>
<trkpt lat="23.058453" lon="115.951438">
<time>2016-10-06T08:08:21Z</time></trkpt>
<trkpt lat="23.058363" lon="115.951399">
<time>2016-10-06T08:08:22Z</time></trkpt>
<trkpt lat="23.058293" lon="115.951359">
<time>2016-10-06T08:08:23Z</time></trkpt>
<trkpt lat="23.058223" lon="115.951329">
<time>2016-10-06T08:08:24Z</time></trkpt>
<trkpt lat="23.058113" lon="115.951289">
<time>2016-10-06T08:08:25Z</time></trkpt>
<trkpt lat="23.057943" lon="115.951239">
<time>2016-10-06T08:08:26Z</time></trkpt>
<trkpt lat="23.057743" lon="115.951189">
<time>2016-10-06T08:08:27Z</time></trkpt>
<trkpt lat="23.057534" lon="115.951139">
<time>2016-10-06T08:08:28Z</time></trkpt>
<trkpt lat="23.056235" lon="115.95087">
<time>2016-10-06T08:08:29Z</time></trkpt>
<trkpt lat="23.055256" lon="115.95067">
<time>2016-10-06T08:08:30Z</time></trkpt>
<trkpt lat="23.054936" lon="115.9506">
<time>2016-10-06T08:08:31Z</time></trkpt>
<trkpt lat="23.054676" lon="115.95055">
<time>2016-10-06T08:08:32Z</time></trkpt>
<trkpt lat="23.054347" lon="115.950481">
<time>2016-10-06T08:08:33Z</time></trkpt>
<trkpt lat="23.053977" lon="115.950391">
<time>2016-10-06T08:08:34Z</time></trkpt>
<trkpt lat="23.053527" lon="115.950291">
<time>2016-10-06T08:08:35Z</time></trkpt>
<trkpt lat="23.053218" lon="115.950201">
<time>2016-10-06T08:08:36Z</time></trkpt>
<trkpt lat="23.052888" lon="115.950131">
<time>2016-10-06T08:08:37Z</time></trkpt>
<trkpt lat="23.052678" lon="115.950072">
<time>2016-10-06T08:08:38Z</time></trkpt>
<trkpt lat="23.052129" lon="115.949912">
<time>2016-10-06T08:08:39Z</time></trkpt>
<trkpt lat="23.051639" lon="115.949782">
<time>2016-10-06T08:08:40Z</time></trkpt>
<trkpt lat="23.051469" lon="115.949732">
<time>2016-10-06T08:08:41Z</time></trkpt>
<trkpt lat="23.05135" lon="115.949692">
<time>2016-10-06T08:08:42Z</time></trkpt>
<trkpt lat="23.05125" lon="115.949662">
<time>2016-10-06T08:08:43Z</time></trkpt>
<trkpt lat="23.05118" lon="115.949632">
<time>2016-10-06T08:08:44Z</time></trkpt>
<trkpt lat="23.05108" lon="115.949593">
<time>2016-10-06T08:08:45Z</time></trkpt>
<trkpt lat="23.05096" lon="115.949533">
<time>2016-10-06T08:08:46Z</time></trkpt>
<trkpt lat="23.05085" lon="115.949483">
<time>2016-10-06T08:08:47Z</time></trkpt>
<trkpt lat="23.050641" lon="115.949383">
<time>2016-10-06T08:08:48Z</time></trkpt>
<trkpt lat="23.050391" lon="115.949263">
<time>2016-10-06T08:08:49Z</time></trkpt>
<trkpt lat="23.050181" lon="115.949153">
<time>2016-10-06T08:08:50Z</time></trkpt>
<trkpt lat="23.050061" lon="115.949094">
<time>2016-10-06T08:08:51Z</time></trkpt>
<trkpt lat="23.049922" lon="115.949014">
<time>2016-10-06T08:08:52Z</time></trkpt>
<trkpt lat="23.049672" lon="115.948864">
<time>2016-10-06T08:08:53Z</time></trkpt>
<trkpt lat="23.049283" lon="115.948635">
<time>2016-10-06T08:08:54Z</time></trkpt>
<trkpt lat="23.048903" lon="115.948415">
<time>2016-10-06T08:08:55Z</time></trkpt>
<trkpt lat="23.048724" lon="115.948305">
<time>2016-10-06T08:08:56Z</time></trkpt>
<trkpt lat="23.048504" lon="115.948185">
<time>2016-10-06T08:08:57Z</time></trkpt>
<trkpt lat="23.048284" lon="115.948066">
<time>2016-10-06T08:08:58Z</time></trkpt>
<trkpt lat="23.047396" lon="115.947527">
<time>2016-10-06T08:08:59Z</time></trkpt>
<trkpt lat="23.046498" lon="115.946998">
<time>2016-10-06T08:09:00Z</time></trkpt>
<trkpt lat="23.045769" lon="115.946559">
<time>2016-10-06T08:09:01Z</time></trkpt>
<trkpt lat="23.04491" lon="115.94603">
<time>2016-10-06T08:09:02Z</time></trkpt>
<trkpt lat="23.044291" lon="115.94565">
<time>2016-10-06T08:09:03Z</time></trkpt>
<trkpt lat="23.043732" lon="115.945331">
<time>2016-10-06T08:09:04Z</time></trkpt>
<trkpt lat="23.043423" lon="115.945151">
<time>2016-10-06T08:09:05Z</time></trkpt>
<trkpt lat="23.042864" lon="115.944822">
<time>2016-10-06T08:09:06Z</time></trkpt>
<trkpt lat="23.042504" lon="115.944602">
<time>2016-10-06T08:09:07Z</time></trkpt>
<trkpt lat="23.042275" lon="115.944473">
<time>2016-10-06T08:09:08Z</time></trkpt>
<trkpt lat="23.042025" lon="115.944313">
<time>2016-10-06T08:09:09Z</time></trkpt>
<trkpt lat="23.041955" lon="115.944263">
<time>2016-10-06T08:09:10Z</time></trkpt>
<trkpt lat="23.041875" lon="115.944213">
<time>2016-10-06T08:09:11Z</time></trkpt>
<trkpt lat="23.041795" lon="115.944153">
<time>2016-10-06T08:09:12Z</time></trkpt>
<trkpt lat="23.041716" lon="115.944083">
<time>2016-10-06T08:09:13Z</time></trkpt>
<trkpt lat="23.041626" lon="115.944003">
<time>2016-10-06T08:09:14Z</time></trkpt>
<trkpt lat="23.041526" lon="115.943904">
<time>2016-10-06T08:09:15Z</time></trkpt>
<trkpt lat="23.041406" lon="115.943764">
<time>2016-10-06T08:09:16Z</time></trkpt>
<trkpt lat="23.041317" lon="115.943654">
<time>2016-10-06T08:09:17Z</time></trkpt>
<trkpt lat="23.041237" lon="115.943564">
<time>2016-10-06T08:09:18Z</time></trkpt>
<trkpt lat="23.041167" lon="115.943494">
<time>2016-10-06T08:09:19Z</time></trkpt>
<trkpt lat="23.041107" lon="115.943415">
<time>2016-10-06T08:09:20Z</time></trkpt>
<trkpt lat="23.041007" lon="115.943295">
<time>2016-10-06T08:09:21Z</time></trkpt>
<trkpt lat="23.040848" lon="115.943085">
<time>2016-10-06T08:09:22Z</time></trkpt>
<trkpt lat="23.040718" lon="115.942925">
<time>2016-10-06T08:09:23Z</time></trkpt>
<trkpt lat="23.040559" lon="115.942696">
<time>2016-10-06T08:09:24Z</time></trkpt>
<trkpt lat="23.040449" lon="115.942566">
<time>2016-10-06T08:09:25Z</time></trkpt>
<trkpt lat="23.040339" lon="115.942426">
<time>2016-10-06T08:09:26Z</time></trkpt>
<trkpt lat="23.040339" lon="115.942426">
<time>2016-10-06T08:09:27Z</time></trkpt>
<trkpt lat="23.04033" lon="115.942376">
<time>2016-10-06T08:09:28Z</time></trkpt>
<trkpt lat="23.04014" lon="115.942127">
<time>2016-10-06T08:09:29Z</time></trkpt>
<trkpt lat="23.040011" lon="115.941947">
<time>2016-10-06T08:09:30Z</time></trkpt>
<trkpt lat="23.039691" lon="115.941538">
<time>2016-10-06T08:09:31Z</time></trkpt>
<trkpt lat="23.039622" lon="115.941488">
<time>2016-10-06T08:09:32Z</time></trkpt>
<trkpt lat="23.039442" lon="115.941278">
<time>2016-10-06T08:09:33Z</time></trkpt>
<trkpt lat="23.039183" lon="115.940929">
<time>2016-10-06T08:09:34Z</time></trkpt>
<trkpt lat="23.038894" lon="115.940549">
<time>2016-10-06T08:09:35Z</time></trkpt>
<trkpt lat="23.038734" lon="115.94035">
<time>2016-10-06T08:09:36Z</time></trkpt>
<trkpt lat="23.038654" lon="115.94025">
<time>2016-10-06T08:09:37Z</time></trkpt>
<trkpt lat="23.038455" lon="115.94001">
<time>2016-10-06T08:09:38Z</time></trkpt>
<trkpt lat="23.038365" lon="115.939891">
<time>2016-10-06T08:09:39Z</time></trkpt>
<trkpt lat="23.038275" lon="115.939791">
<time>2016-10-06T08:09:40Z</time></trkpt>
<trkpt lat="23.038186" lon="115.939691">
<time>2016-10-06T08:09:41Z</time></trkpt>
<trkpt lat="23.038086" lon="115.939601">
<time>2016-10-06T08:09:42Z</time></trkpt>
<trkpt lat="23.037886" lon="115.939421">
<time>2016-10-06T08:09:43Z</time></trkpt>
<trkpt lat="23.037567" lon="115.939122">
<time>2016-10-06T08:09:44Z</time></trkpt>
<trkpt lat="23.036938" lon="115.938573">
<time>2016-10-06T08:09:45Z</time></trkpt>
<trkpt lat="23.036459" lon="115.938143">
<time>2016-10-06T08:09:46Z</time></trkpt>
<trkpt lat="23.03582" lon="115.937574">
<time>2016-10-06T08:09:47Z</time></trkpt>
<trkpt lat="23.035252" lon="115.937075">
<time>2016-10-06T08:09:48Z</time></trkpt>
<trkpt lat="23.034882" lon="115.936735">
<time>2016-10-06T08:09:49Z</time></trkpt>
<trkpt lat="23.034753" lon="115.936616">
<time>2016-10-06T08:09:50Z</time></trkpt>
<trkpt lat="23.034643" lon="115.936506">
<time>2016-10-06T08:09:51Z</time></trkpt>
<trkpt lat="23.034533" lon="115.936396">
<time>2016-10-06T08:09:52Z</time></trkpt>
<trkpt lat="23.034453" lon="115.936306">
<time>2016-10-06T08:09:53Z</time></trkpt>
<trkpt lat="23.034383" lon="115.936216">
<time>2016-10-06T08:09:54Z</time></trkpt>
<trkpt lat="23.034284" lon="115.936086">
<time>2016-10-06T08:09:55Z</time></trkpt>
<trkpt lat="23.034174" lon="115.935927">
<time>2016-10-06T08:09:56Z</time></trkpt>
<trkpt lat="23.034104" lon="115.935817">
<time>2016-10-06T08:09:57Z</time></trkpt>
<trkpt lat="23.034034" lon="115.935697">
<time>2016-10-06T08:09:58Z</time></trkpt>
<trkpt lat="23.033985" lon="115.935597">
<time>2016-10-06T08:09:59Z</time></trkpt>
<trkpt lat="23.033945" lon="115.935507">
<time>2016-10-06T08:10:00Z</time></trkpt>
<trkpt lat="23.033905" lon="115.935397">
<time>2016-10-06T08:10:01Z</time></trkpt>
<trkpt lat="23.033855" lon="115.935268">
<time>2016-10-06T08:10:02Z</time></trkpt>
<trkpt lat="23.033746" lon="115.934958">
<time>2016-10-06T08:10:03Z</time></trkpt>
<trkpt lat="23.033696" lon="115.934788">
<time>2016-10-06T08:10:04Z</time></trkpt>
<trkpt lat="23.033636" lon="115.934609">
<time>2016-10-06T08:10:05Z</time></trkpt>
<trkpt lat="23.033567" lon="115.934329">
<time>2016-10-06T08:10:06Z</time></trkpt>
<trkpt lat="23.033497" lon="115.934059">
<time>2016-10-06T08:10:07Z</time></trkpt>
<trkpt lat="23.033408" lon="115.93372">
<time>2016-10-06T08:10:08Z</time></trkpt>
<trkpt lat="23.033319" lon="115.93335">
<time>2016-10-06T08:10:09Z</time></trkpt>
<trkpt lat="23.033269" lon="115.93318">
<time>2016-10-06T08:10:10Z</time></trkpt>
<trkpt lat="23.033239" lon="115.933051">
<time>2016-10-06T08:10:11Z</time></trkpt>
<trkpt lat="23.033199" lon="115.932931">
<time>2016-10-06T08:10:12Z</time></trkpt>
<trkpt lat="23.03316" lon="115.932811">
<time>2016-10-06T08:10:13Z</time></trkpt>
<trkpt lat="23.03315" lon="115.932781">
<time>2016-10-06T08:10:14Z</time></trkpt>
<trkpt lat="23.03312" lon="115.932721">
<time>2016-10-06T08:10:15Z</time></trkpt>
<trkpt lat="23.03307" lon="115.932631">
<time>2016-10-06T08:10:16Z</time></trkpt>
<trkpt lat="23.03305" lon="115.932591">
<time>2016-10-06T08:10:17Z</time></trkpt>
<trkpt lat="23.03302" lon="115.932531">
<time>2016-10-06T08:10:18Z</time></trkpt>
<trkpt lat="23.03293" lon="115.932381">
<time>2016-10-06T08:10:19Z</time></trkpt>
<trkpt lat="23.03291" lon="115.932351">
<time>2016-10-06T08:10:20Z</time></trkpt>
<trkpt lat="23.032811" lon="115.932242">
<time>2016-10-06T08:10:21Z</time></trkpt>
<trkpt lat="23.032751" lon="115.932172">
<time>2016-10-06T08:10:22Z</time></trkpt>
<trkpt lat="23.032661" lon="115.932082">
<time>2016-10-06T08:10:23Z</time></trkpt>
<trkpt lat="23.032611" lon="115.932032">
<time>2016-10-06T08:10:24Z</time></trkpt>
<trkpt lat="23.032491" lon="115.931922">
<time>2016-10-06T08:10:25Z</time></trkpt>
<trkpt lat="23.032351" lon="115.931812">
<time>2016-10-06T08:10:26Z</time></trkpt>
<trkpt lat="23.032152" lon="115.931672">
<time>2016-10-06T08:10:27Z</time></trkpt>
<trkpt lat="23.031952" lon="115.931553">
<time>2016-10-06T08:10:28Z</time></trkpt>
<trkpt lat="23.031682" lon="115.931393">
<time>2016-10-06T08:10:29Z</time></trkpt>
<trkpt lat="23.031453" lon="115.931283">
<time>2016-10-06T08:10:30Z</time></trkpt>
<trkpt lat="23.031443" lon="115.931273">
<time>2016-10-06T08:10:31Z</time></trkpt>
<trkpt lat="23.031233" lon="115.931163">
<time>2016-10-06T08:10:32Z</time></trkpt>
<trkpt lat="23.030684" lon="115.930883">
<time>2016-10-06T08:10:33Z</time></trkpt>
<trkpt lat="23.030394" lon="115.930744">
<time>2016-10-06T08:10:34Z</time></trkpt>
<trkpt lat="23.030234" lon="115.930664">
<time>2016-10-06T08:10:35Z</time></trkpt>
<trkpt lat="23.029984" lon="115.930554">
<time>2016-10-06T08:10:36Z</time></trkpt>
<trkpt lat="23.029805" lon="115.930494">
<time>2016-10-06T08:10:37Z</time></trkpt>
<trkpt lat="23.029325" lon="115.930314">
<time>2016-10-06T08:10:38Z</time></trkpt>
<trkpt lat="23.028845" lon="115.930134">
<time>2016-10-06T08:10:39Z</time></trkpt>
<trkpt lat="23.028476" lon="115.929995">
<time>2016-10-06T08:10:40Z</time></trkpt>
<trkpt lat="23.028206" lon="115.929885">
<time>2016-10-06T08:10:41Z</time></trkpt>
<trkpt lat="23.027956" lon="115.929785">
<time>2016-10-06T08:10:42Z</time></trkpt>
<trkpt lat="23.027856" lon="115.929745">
<time>2016-10-06T08:10:43Z</time></trkpt>
<trkpt lat="23.027747" lon="115.929685">
<time>2016-10-06T08:10:44Z</time></trkpt>
<trkpt lat="23.027647" lon="115.929635">
<time>2016-10-06T08:10:45Z</time></trkpt>
<trkpt lat="23.027557" lon="115.929585">
<time>2016-10-06T08:10:46Z</time></trkpt>
<trkpt lat="23.027497" lon="115.929545">
<time>2016-10-06T08:10:47Z</time></trkpt>
<trkpt lat="23.027387" lon="115.929485">
<time>2016-10-06T08:10:48Z</time></trkpt>
<trkpt lat="23.027287" lon="115.929405">
<time>2016-10-06T08:10:49Z</time></trkpt>
<trkpt lat="23.027157" lon="115.929305">
<time>2016-10-06T08:10:50Z</time></trkpt>
<trkpt lat="23.026778" lon="115.929006">
<time>2016-10-06T08:10:51Z</time></trkpt>
<trkpt lat="23.026518" lon="115.928796">
<time>2016-10-06T08:10:52Z</time></trkpt>
<trkpt lat="23.026109" lon="115.928446">
<time>2016-10-06T08:10:53Z</time></trkpt>
<trkpt lat="23.02572" lon="115.928137">
<time>2016-10-06T08:10:54Z</time></trkpt>
<trkpt lat="23.02553" lon="115.927977">
<time>2016-10-06T08:10:55Z</time></trkpt>
<trkpt lat="23.02543" lon="115.927907">
<time>2016-10-06T08:10:56Z</time></trkpt>
<trkpt lat="23.02527" lon="115.927797">
<time>2016-10-06T08:10:57Z</time></trkpt>
<trkpt lat="23.02517" lon="115.927727">
<time>2016-10-06T08:10:58Z</time></trkpt>
<trkpt lat="23.025041" lon="115.927647">
<time>2016-10-06T08:10:59Z</time></trkpt>
<trkpt lat="23.024881" lon="115.927547">
<time>2016-10-06T08:11:00Z</time></trkpt>
<trkpt lat="23.024701" lon="115.927448">
<time>2016-10-06T08:11:01Z</time></trkpt>
<trkpt lat="23.023952" lon="115.927028">
<time>2016-10-06T08:11:02Z</time></trkpt>
<trkpt lat="23.023203" lon="115.926618">
<time>2016-10-06T08:11:03Z</time></trkpt>
<trkpt lat="23.022743" lon="115.926359">
<time>2016-10-06T08:11:04Z</time></trkpt>
<trkpt lat="23.022004" lon="115.925899">
<time>2016-10-06T08:11:05Z</time></trkpt>
<trkpt lat="23.021175" lon="115.92534">
<time>2016-10-06T08:11:06Z</time></trkpt>
<trkpt lat="23.020446" lon="115.92485">
<time>2016-10-06T08:11:07Z</time></trkpt>
<trkpt lat="23.019917" lon="115.924491">
<time>2016-10-06T08:11:08Z</time></trkpt>
<trkpt lat="23.019607" lon="115.924281">
<time>2016-10-06T08:11:09Z</time></trkpt>
<trkpt lat="23.019138" lon="115.923961">
<time>2016-10-06T08:11:10Z</time></trkpt>
<trkpt lat="23.019068" lon="115.923921">
<time>2016-10-06T08:11:11Z</time></trkpt>
<trkpt lat="23.018938" lon="115.923811">
<time>2016-10-06T08:11:12Z</time></trkpt>
<trkpt lat="23.018838" lon="115.923741">
<time>2016-10-06T08:11:13Z</time></trkpt>
<trkpt lat="23.018718" lon="115.923651">
<time>2016-10-06T08:11:14Z</time></trkpt>
<trkpt lat="23.018619" lon="115.923562">
<time>2016-10-06T08:11:15Z</time></trkpt>
<trkpt lat="23.018329" lon="115.923292">
<time>2016-10-06T08:11:16Z</time></trkpt>
<trkpt lat="23.018099" lon="115.923092">
<time>2016-10-06T08:11:17Z</time></trkpt>
<trkpt lat="23.017989" lon="115.922982">
<time>2016-10-06T08:11:18Z</time></trkpt>
<trkpt lat="23.01785" lon="115.922862">
<time>2016-10-06T08:11:19Z</time></trkpt>
<trkpt lat="23.01774" lon="115.922772">
<time>2016-10-06T08:11:20Z</time></trkpt>
<trkpt lat="23.01766" lon="115.922712">
<time>2016-10-06T08:11:21Z</time></trkpt>
<trkpt lat="23.01765" lon="115.922702">
<time>2016-10-06T08:11:22Z</time></trkpt>
<trkpt lat="23.01754" lon="115.922622">
<time>2016-10-06T08:11:23Z</time></trkpt>
<trkpt lat="23.01744" lon="115.922562">
<time>2016-10-06T08:11:24Z</time></trkpt>
<trkpt lat="23.01738" lon="115.922522">
<time>2016-10-06T08:11:25Z</time></trkpt>
<trkpt lat="23.01732" lon="115.922492">
<time>2016-10-06T08:11:26Z</time></trkpt>
<trkpt lat="23.0172" lon="115.922433">
<time>2016-10-06T08:11:27Z</time></trkpt>
<trkpt lat="23.017081" lon="115.922373">
<time>2016-10-06T08:11:28Z</time></trkpt>
<trkpt lat="23.016911" lon="115.922303">
<time>2016-10-06T08:11:29Z</time></trkpt>
<trkpt lat="23.016831" lon="115.922273">
<time>2016-10-06T08:11:30Z</time></trkpt>
<trkpt lat="23.016401" lon="115.922103">
<time>2016-10-06T08:11:31Z</time></trkpt>
<trkpt lat="23.015942" lon="115.921903">
<time>2016-10-06T08:11:32Z</time></trkpt>
<trkpt lat="23.015502" lon="115.921713">
<time>2016-10-06T08:11:33Z</time></trkpt>
<trkpt lat="23.015342" lon="115.921643">
<time>2016-10-06T08:11:34Z</time></trkpt>
<trkpt lat="23.015162" lon="115.921553">
<time>2016-10-06T08:11:35Z</time></trkpt>
<trkpt lat="23.015032" lon="115.921493">
<time>2016-10-06T08:11:36Z</time></trkpt>
<trkpt lat="23.014893" lon="115.921413">
<time>2016-10-06T08:11:37Z</time></trkpt>
<trkpt lat="23.014673" lon="115.921284">
<time>2016-10-06T08:11:38Z</time></trkpt>
<trkpt lat="23.014563" lon="115.921204">
<time>2016-10-06T08:11:39Z</time></trkpt>
<trkpt lat="23.014433" lon="115.921114">
<time>2016-10-06T08:11:40Z</time></trkpt>
<trkpt lat="23.014303" lon="115.921004">
<time>2016-10-06T08:11:41Z</time></trkpt>
<trkpt lat="23.014213" lon="115.920924">
<time>2016-10-06T08:11:42Z</time></trkpt>
<trkpt lat="23.014094" lon="115.920814">
<time>2016-10-06T08:11:43Z</time></trkpt>
<trkpt lat="23.013694" lon="115.920454">
<time>2016-10-06T08:11:44Z</time></trkpt>
<trkpt lat="23.013385" lon="115.920184">
<time>2016-10-06T08:11:45Z</time></trkpt>
<trkpt lat="23.013215" lon="115.920045">
<time>2016-10-06T08:11:46Z</time></trkpt>
<trkpt lat="23.013055" lon="115.919915">
<time>2016-10-06T08:11:47Z</time></trkpt>
<trkpt lat="23.012905" lon="115.919805">
<time>2016-10-06T08:11:48Z</time></trkpt>
<trkpt lat="23.012745" lon="115.919695">
<time>2016-10-06T08:11:49Z</time></trkpt>
<trkpt lat="23.012605" lon="115.919615">
<time>2016-10-06T08:11:50Z</time></trkpt>
<trkpt lat="23.012446" lon="115.919515">
<time>2016-10-06T08:11:51Z</time></trkpt>
<trkpt lat="23.012076" lon="115.919305">
<time>2016-10-06T08:11:52Z</time></trkpt>
<trkpt lat="23.011477" lon="115.918985">
<time>2016-10-06T08:11:53Z</time></trkpt>
<trkpt lat="23.010937" lon="115.918686">
<time>2016-10-06T08:11:54Z</time></trkpt>
<trkpt lat="23.010458" lon="115.918436">
<time>2016-10-06T08:11:55Z</time></trkpt>
<trkpt lat="23.010348" lon="115.918376">
<time>2016-10-06T08:11:56Z</time></trkpt>
<trkpt lat="23.010178" lon="115.918286">
<time>2016-10-06T08:11:57Z</time></trkpt>
<trkpt lat="23.009968" lon="115.918196">
<time>2016-10-06T08:11:58Z</time></trkpt>
<trkpt lat="23.009708" lon="115.918096">
<time>2016-10-06T08:11:59Z</time></trkpt>
<trkpt lat="23.009528" lon="115.918026">
<time>2016-10-06T08:12:00Z</time></trkpt>
<trkpt lat="23.009019" lon="115.917836">
<time>2016-10-06T08:12:01Z</time></trkpt>
<trkpt lat="23.008259" lon="115.917546">
<time>2016-10-06T08:12:02Z</time></trkpt>
<trkpt lat="23.008259" lon="115.917546">
<time>2016-10-06T08:12:03Z</time></trkpt>
<trkpt lat="23.008229" lon="115.917506">
<time>2016-10-06T08:12:04Z</time></trkpt>
<trkpt lat="23.00773" lon="115.917316">
<time>2016-10-06T08:12:05Z</time></trkpt>
<trkpt lat="23.0076" lon="115.917257">
<time>2016-10-06T08:12:06Z</time></trkpt>
<trkpt lat="23.00747" lon="115.917197">
<time>2016-10-06T08:12:07Z</time></trkpt>
<trkpt lat="23.00739" lon="115.917167">
<time>2016-10-06T08:12:08Z</time></trkpt>
<trkpt lat="23.00729" lon="115.917107">
<time>2016-10-06T08:12:09Z</time></trkpt>
<trkpt lat="23.00721" lon="115.917067">
<time>2016-10-06T08:12:10Z</time></trkpt>
<trkpt lat="23.00713" lon="115.917017">
<time>2016-10-06T08:12:11Z</time></trkpt>
<trkpt lat="23.00701" lon="115.916937">
<time>2016-10-06T08:12:12Z</time></trkpt>
<trkpt lat="23.006881" lon="115.916837">
<time>2016-10-06T08:12:13Z</time></trkpt>
<trkpt lat="23.006771" lon="115.916747">
<time>2016-10-06T08:12:14Z</time></trkpt>
<trkpt lat="23.006661" lon="115.916637">
<time>2016-10-06T08:12:15Z</time></trkpt>
<trkpt lat="23.006561" lon="115.916537">
<time>2016-10-06T08:12:16Z</time></trkpt>
<trkpt lat="23.006461" lon="115.916427">
<time>2016-10-06T08:12:17Z</time></trkpt>
<trkpt lat="23.006371" lon="115.916307">
<time>2016-10-06T08:12:18Z</time></trkpt>
<trkpt lat="23.006261" lon="115.916137">
<time>2016-10-06T08:12:19Z</time></trkpt>
<trkpt lat="23.006192" lon="115.916037">
<time>2016-10-06T08:12:20Z</time></trkpt>
<trkpt lat="23.006102" lon="115.915887">
<time>2016-10-06T08:12:21Z</time></trkpt>
<trkpt lat="23.005992" lon="115.915687">
<time>2016-10-06T08:12:22Z</time></trkpt>
<trkpt lat="23.005922" lon="115.915617">
<time>2016-10-06T08:12:23Z</time></trkpt>
<trkpt lat="23.005632" lon="115.915158">
<time>2016-10-06T08:12:24Z</time></trkpt>
<trkpt lat="23.005153" lon="115.914318">
<time>2016-10-06T08:12:25Z</time></trkpt>
<trkpt lat="23.004674" lon="115.913468">
<time>2016-10-06T08:12:26Z</time></trkpt>
<trkpt lat="23.004435" lon="115.913059">
<time>2016-10-06T08:12:27Z</time></trkpt>
<trkpt lat="23.003466" lon="115.911389">
<time>2016-10-06T08:12:28Z</time></trkpt>
<trkpt lat="23.003027" lon="115.910669">
<time>2016-10-06T08:12:29Z</time></trkpt>
<trkpt lat="23.002917" lon="115.910479">
<time>2016-10-06T08:12:30Z</time></trkpt>
<trkpt lat="23.002847" lon="115.910339">
<time>2016-10-06T08:12:31Z</time></trkpt>
<trkpt lat="23.002757" lon="115.910139">
<time>2016-10-06T08:12:32Z</time></trkpt>
<trkpt lat="23.002687" lon="115.909979">
<time>2016-10-06T08:12:33Z</time></trkpt>
<trkpt lat="23.002617" lon="115.909829">
<time>2016-10-06T08:12:34Z</time></trkpt>
<trkpt lat="23.002567" lon="115.909719">
<time>2016-10-06T08:12:35Z</time></trkpt>
<trkpt lat="23.002518" lon="115.909559">
<time>2016-10-06T08:12:36Z</time></trkpt>
<trkpt lat="23.002478" lon="115.90944">
<time>2016-10-06T08:12:37Z</time></trkpt>
<trkpt lat="23.002438" lon="115.90927">
<time>2016-10-06T08:12:38Z</time></trkpt>
<trkpt lat="23.002398" lon="115.90906">
<time>2016-10-06T08:12:39Z</time></trkpt>
<trkpt lat="23.002378" lon="115.90887">
<time>2016-10-06T08:12:40Z</time></trkpt>
<trkpt lat="23.002338" lon="115.90825">
<time>2016-10-06T08:12:41Z</time></trkpt>
<trkpt lat="23.002318" lon="115.90797">
<time>2016-10-06T08:12:42Z</time></trkpt>
<trkpt lat="23.002319" lon="115.90768">
<time>2016-10-06T08:12:43Z</time></trkpt>
<trkpt lat="23.002319" lon="115.90744">
<time>2016-10-06T08:12:44Z</time></trkpt>
<trkpt lat="23.002329" lon="115.90718">
<time>2016-10-06T08:12:45Z</time></trkpt>
<trkpt lat="23.002359" lon="115.90691">
<time>2016-10-06T08:12:46Z</time></trkpt>
<trkpt lat="23.002389" lon="115.90665">
<time>2016-10-06T08:12:47Z</time></trkpt>
<trkpt lat="23.002429" lon="115.90648">
<time>2016-10-06T08:12:48Z</time></trkpt>
<trkpt lat="23.002479" lon="115.90615">
<time>2016-10-06T08:12:49Z</time></trkpt>
<trkpt lat="23.002529" lon="115.90587">
<time>2016-10-06T08:12:50Z</time></trkpt>
<trkpt lat="23.002569" lon="115.90559">
<time>2016-10-06T08:12:51Z</time></trkpt>
<trkpt lat="23.00263" lon="115.90506">
<time>2016-10-06T08:12:52Z</time></trkpt>
<trkpt lat="23.00265" lon="115.90473">
<time>2016-10-06T08:12:53Z</time></trkpt>
<trkpt lat="23.00266" lon="115.90443">
<time>2016-10-06T08:12:54Z</time></trkpt>
<trkpt lat="23.0027" lon="115.902379">
<time>2016-10-06T08:12:55Z</time></trkpt>
<trkpt lat="23.00271" lon="115.901119">
<time>2016-10-06T08:12:56Z</time></trkpt>
<trkpt lat="23.002681" lon="115.898448">
<time>2016-10-06T08:12:57Z</time></trkpt>
<trkpt lat="23.002641" lon="115.896888">
<time>2016-10-06T08:12:58Z</time></trkpt>
<trkpt lat="23.002621" lon="115.896327">
<time>2016-10-06T08:12:59Z</time></trkpt>
<trkpt lat="23.002601" lon="115.895787">
<time>2016-10-06T08:13:00Z</time></trkpt>
<trkpt lat="23.00254" lon="115.891865">
<time>2016-10-06T08:13:01Z</time></trkpt>
<trkpt lat="23.00253" lon="115.891424">
<time>2016-10-06T08:13:02Z</time></trkpt>
<trkpt lat="23.00251" lon="115.891004">
<time>2016-10-06T08:13:03Z</time></trkpt>
<trkpt lat="23.0025" lon="115.890674">
<time>2016-10-06T08:13:04Z</time></trkpt>
<trkpt lat="23.00247" lon="115.890374">
<time>2016-10-06T08:13:05Z</time></trkpt>
<trkpt lat="23.00244" lon="115.890063">
<time>2016-10-06T08:13:06Z</time></trkpt>
<trkpt lat="23.00241" lon="115.889783">
<time>2016-10-06T08:13:07Z</time></trkpt>
<trkpt lat="23.002329" lon="115.888802">
<time>2016-10-06T08:13:08Z</time></trkpt>
<trkpt lat="23.002289" lon="115.888112">
<time>2016-10-06T08:13:09Z</time></trkpt>
<trkpt lat="23.002279" lon="115.887932">
<time>2016-10-06T08:13:10Z</time></trkpt>
<trkpt lat="23.002259" lon="115.887682">
<time>2016-10-06T08:13:11Z</time></trkpt>
<trkpt lat="23.002209" lon="115.886991">
<time>2016-10-06T08:13:12Z</time></trkpt>
<trkpt lat="23.002138" lon="115.88626">
<time>2016-10-06T08:13:13Z</time></trkpt>
<trkpt lat="23.002098" lon="115.88584">
<time>2016-10-06T08:13:14Z</time></trkpt>
<trkpt lat="23.002048" lon="115.885169">
<time>2016-10-06T08:13:15Z</time></trkpt>
<trkpt lat="23.001998" lon="115.884699">
<time>2016-10-06T08:13:16Z</time></trkpt>
<trkpt lat="23.001967" lon="115.884308">
<time>2016-10-06T08:13:17Z</time></trkpt>
<trkpt lat="23.001937" lon="115.883978">
<time>2016-10-06T08:13:18Z</time></trkpt>
<trkpt lat="23.001877" lon="115.883437">
<time>2016-10-06T08:13:19Z</time></trkpt>
<trkpt lat="23.001837" lon="115.883007">
<time>2016-10-06T08:13:20Z</time></trkpt>
<trkpt lat="23.001746" lon="115.881876">
<time>2016-10-06T08:13:21Z</time></trkpt>
<trkpt lat="23.001665" lon="115.880835">
<time>2016-10-06T08:13:22Z</time></trkpt>
<trkpt lat="23.001585" lon="115.879883">
<time>2016-10-06T08:13:23Z</time></trkpt>
<trkpt lat="23.001565" lon="115.879683">
<time>2016-10-06T08:13:24Z</time></trkpt>
<trkpt lat="23.001544" lon="115.879523">
<time>2016-10-06T08:13:25Z</time></trkpt>
<trkpt lat="23.001524" lon="115.879413">
<time>2016-10-06T08:13:26Z</time></trkpt>
<trkpt lat="23.001504" lon="115.879283">
<time>2016-10-06T08:13:27Z</time></trkpt>
<trkpt lat="23.001474" lon="115.879163">
<time>2016-10-06T08:13:28Z</time></trkpt>
<trkpt lat="23.001434" lon="115.879022">
<time>2016-10-06T08:13:29Z</time></trkpt>
<trkpt lat="23.001404" lon="115.878912">
<time>2016-10-06T08:13:30Z</time></trkpt>
<trkpt lat="23.001344" lon="115.878752">
<time>2016-10-06T08:13:31Z</time></trkpt>
<trkpt lat="23.001294" lon="115.878632">
<time>2016-10-06T08:13:32Z</time></trkpt>
<trkpt lat="23.001214" lon="115.878472">
<time>2016-10-06T08:13:33Z</time></trkpt>
<trkpt lat="23.001164" lon="115.878362">
<time>2016-10-06T08:13:34Z</time></trkpt>
<trkpt lat="23.001094" lon="115.878231">
<time>2016-10-06T08:13:35Z</time></trkpt>
<trkpt lat="23.001014" lon="115.878091">
<time>2016-10-06T08:13:36Z</time></trkpt>
<trkpt lat="23.000884" lon="115.877881">
<time>2016-10-06T08:13:37Z</time></trkpt>
<trkpt lat="23.000663" lon="115.8775">
<time>2016-10-06T08:13:38Z</time></trkpt>
<trkpt lat="23.000413" lon="115.87708">
<time>2016-10-06T08:13:39Z</time></trkpt>
<trkpt lat="23.000113" lon="115.876559">
<time>2016-10-06T08:13:40Z</time></trkpt>
<trkpt lat="23.000003" lon="115.876369">
<time>2016-10-06T08:13:41Z</time></trkpt>
<trkpt lat="22.999903" lon="115.876189">
<time>2016-10-06T08:13:42Z</time></trkpt>
<trkpt lat="22.999802" lon="115.875999">
<time>2016-10-06T08:13:43Z</time></trkpt>
<trkpt lat="22.999702" lon="115.875818">
<time>2016-10-06T08:13:44Z</time></trkpt>
<trkpt lat="22.999542" lon="115.875568">
<time>2016-10-06T08:13:45Z</time></trkpt>
<trkpt lat="22.999412" lon="115.875368">
<time>2016-10-06T08:13:46Z</time></trkpt>
<trkpt lat="22.999222" lon="115.875047">
<time>2016-10-06T08:13:47Z</time></trkpt>
<trkpt lat="22.999192" lon="115.875007">
<time>2016-10-06T08:13:48Z</time></trkpt>
<trkpt lat="22.998972" lon="115.874647">
<time>2016-10-06T08:13:49Z</time></trkpt>
<trkpt lat="22.998891" lon="115.874517">
<time>2016-10-06T08:13:50Z</time></trkpt>
<trkpt lat="22.998781" lon="115.874326">
<time>2016-10-06T08:13:51Z</time></trkpt>
<trkpt lat="22.998641" lon="115.874056">
<time>2016-10-06T08:13:52Z</time></trkpt>
<trkpt lat="22.998521" lon="115.873826">
<time>2016-10-06T08:13:53Z</time></trkpt>
<trkpt lat="22.998431" lon="115.873635">
<time>2016-10-06T08:13:54Z</time></trkpt>
<trkpt lat="22.998381" lon="115.873525">
<time>2016-10-06T08:13:55Z</time></trkpt>
<trkpt lat="22.99824" lon="115.873185">
<time>2016-10-06T08:13:56Z</time></trkpt>
<trkpt lat="22.99809" lon="115.872794">
<time>2016-10-06T08:13:57Z</time></trkpt>
<trkpt lat="22.99793" lon="115.872394">
<time>2016-10-06T08:13:58Z</time></trkpt>
<trkpt lat="22.99777" lon="115.871983">
<time>2016-10-06T08:13:59Z</time></trkpt>
<trkpt lat="22.997619" lon="115.871592">
<time>2016-10-06T08:14:00Z</time></trkpt>
<trkpt lat="22.997489" lon="115.871282">
<time>2016-10-06T08:14:01Z</time></trkpt>
<trkpt lat="22.997369" lon="115.870991">
<time>2016-10-06T08:14:02Z</time></trkpt>
<trkpt lat="22.997299" lon="115.870811">
<time>2016-10-06T08:14:03Z</time></trkpt>
<trkpt lat="22.997238" lon="115.870621">
<time>2016-10-06T08:14:04Z</time></trkpt>
<trkpt lat="22.997198" lon="115.870521">
<time>2016-10-06T08:14:05Z</time></trkpt>
<trkpt lat="22.997168" lon="115.870411">
<time>2016-10-06T08:14:06Z</time></trkpt>
<trkpt lat="22.997138" lon="115.87031">
<time>2016-10-06T08:14:07Z</time></trkpt>
<trkpt lat="22.997118" lon="115.87022">
<time>2016-10-06T08:14:08Z</time></trkpt>
<trkpt lat="22.997098" lon="115.87016">
<time>2016-10-06T08:14:09Z</time></trkpt>
<trkpt lat="22.997088" lon="115.87009">
<time>2016-10-06T08:14:10Z</time></trkpt>
<trkpt lat="22.997068" lon="115.86999">
<time>2016-10-06T08:14:11Z</time></trkpt>
<trkpt lat="22.997028" lon="115.86982">
<time>2016-10-06T08:14:12Z</time></trkpt>
<trkpt lat="22.997007" lon="115.869679">
<time>2016-10-06T08:14:13Z</time></trkpt>
<trkpt lat="22.996967" lon="115.869349">
<time>2016-10-06T08:14:14Z</time></trkpt>
<trkpt lat="22.996937" lon="115.869088">
<time>2016-10-06T08:14:15Z</time></trkpt>
<trkpt lat="22.996917" lon="115.868848">
<time>2016-10-06T08:14:16Z</time></trkpt>
<trkpt lat="22.996866" lon="115.868347">
<time>2016-10-06T08:14:17Z</time></trkpt>
<trkpt lat="22.996816" lon="115.867947">
<time>2016-10-06T08:14:18Z</time></trkpt>
<trkpt lat="22.996785" lon="115.867646">
<time>2016-10-06T08:14:19Z</time></trkpt>
<trkpt lat="22.996735" lon="115.867145">
<time>2016-10-06T08:14:20Z</time></trkpt>
<trkpt lat="22.996684" lon="115.866755">
<time>2016-10-06T08:14:21Z</time></trkpt>
<trkpt lat="22.996634" lon="115.866304">
<time>2016-10-06T08:14:22Z</time></trkpt>
<trkpt lat="22.996603" lon="115.866063">
<time>2016-10-06T08:14:23Z</time></trkpt>
<trkpt lat="22.996563" lon="115.865873">
<time>2016-10-06T08:14:24Z</time></trkpt>
<trkpt lat="22.996543" lon="115.865753">
<time>2016-10-06T08:14:25Z</time></trkpt>
<trkpt lat="22.996493" lon="115.865522">
<time>2016-10-06T08:14:26Z</time></trkpt>
<trkpt lat="22.996463" lon="115.865412">
<time>2016-10-06T08:14:27Z</time></trkpt>
<trkpt lat="22.996403" lon="115.865232">
<time>2016-10-06T08:14:28Z</time></trkpt>
<trkpt lat="22.996372" lon="115.865142">
<time>2016-10-06T08:14:29Z</time></trkpt>
<trkpt lat="22.996322" lon="115.865002">
<time>2016-10-06T08:14:30Z</time></trkpt>
<trkpt lat="22.996252" lon="115.864831">
<time>2016-10-06T08:14:31Z</time></trkpt>
<trkpt lat="22.996162" lon="115.864641">
<time>2016-10-06T08:14:32Z</time></trkpt>
<trkpt lat="22.995991" lon="115.86423">
<time>2016-10-06T08:14:33Z</time></trkpt>
<trkpt lat="22.995881" lon="115.864">
<time>2016-10-06T08:14:34Z</time></trkpt>
<trkpt lat="22.995801" lon="115.863809">
<time>2016-10-06T08:14:35Z</time></trkpt>
<trkpt lat="22.995631" lon="115.863439">
<time>2016-10-06T08:14:36Z</time></trkpt>
<trkpt lat="22.99546" lon="115.863028">
<time>2016-10-06T08:14:37Z</time></trkpt>
<trkpt lat="22.99528" lon="115.862637">
<time>2016-10-06T08:14:38Z</time></trkpt>
<trkpt lat="22.995089" lon="115.862197">
<time>2016-10-06T08:14:39Z</time></trkpt>
<trkpt lat="22.994969" lon="115.861936">
<time>2016-10-06T08:14:40Z</time></trkpt>
<trkpt lat="22.994919" lon="115.861816">
<time>2016-10-06T08:14:41Z</time></trkpt>
<trkpt lat="22.994778" lon="115.861475">
<time>2016-10-06T08:14:42Z</time></trkpt>
<trkpt lat="22.994598" lon="115.861065">
<time>2016-10-06T08:14:43Z</time></trkpt>
<trkpt lat="22.994397" lon="115.860604">
<time>2016-10-06T08:14:44Z</time></trkpt>
<trkpt lat="22.994247" lon="115.860223">
<time>2016-10-06T08:14:45Z</time></trkpt>
<trkpt lat="22.994036" lon="115.859722">
<time>2016-10-06T08:14:46Z</time></trkpt>
<trkpt lat="22.993876" lon="115.859321">
<time>2016-10-06T08:14:47Z</time></trkpt>
<trkpt lat="22.993665" lon="115.85882">
<time>2016-10-06T08:14:48Z</time></trkpt>
<trkpt lat="22.993525" lon="115.85847">
<time>2016-10-06T08:14:49Z</time></trkpt>
<trkpt lat="22.993394" lon="115.858149">
<time>2016-10-06T08:14:50Z</time></trkpt>
<trkpt lat="22.993254" lon="115.857818">
<time>2016-10-06T08:14:51Z</time></trkpt>
<trkpt lat="22.992953" lon="115.857097">
<time>2016-10-06T08:14:52Z</time></trkpt>
<trkpt lat="22.992833" lon="115.856806">
<time>2016-10-06T08:14:53Z</time></trkpt>
<trkpt lat="22.992742" lon="115.856596">
<time>2016-10-06T08:14:54Z</time></trkpt>
<trkpt lat="22.992592" lon="115.856275">
<time>2016-10-06T08:14:55Z</time></trkpt>
<trkpt lat="22.992251" lon="115.855534">
<time>2016-10-06T08:14:56Z</time></trkpt>
<trkpt lat="22.992091" lon="115.855203">
<time>2016-10-06T08:14:57Z</time></trkpt>
<trkpt lat="22.99199" lon="115.854973">
<time>2016-10-06T08:14:58Z</time></trkpt>
<trkpt lat="22.99177" lon="115.854522">
<time>2016-10-06T08:14:59Z</time></trkpt>
<trkpt lat="22.991489" lon="115.853961">
<time>2016-10-06T08:15:00Z</time></trkpt>
<trkpt lat="22.991268" lon="115.85352">
<time>2016-10-06T08:15:01Z</time></trkpt>
<trkpt lat="22.991118" lon="115.853239">
<time>2016-10-06T08:15:02Z</time></trkpt>
<trkpt lat="22.990908" lon="115.852838">
<time>2016-10-06T08:15:03Z</time></trkpt>
<trkpt lat="22.990637" lon="115.852317">
<time>2016-10-06T08:15:04Z</time></trkpt>
<trkpt lat="22.990376" lon="115.851826">
<time>2016-10-06T08:15:05Z</time></trkpt>
<trkpt lat="22.990266" lon="115.851616">
<time>2016-10-06T08:15:06Z</time></trkpt>
<trkpt lat="22.990126" lon="115.851345">
<time>2016-10-06T08:15:07Z</time></trkpt>
<trkpt lat="22.989955" lon="115.851035">
<time>2016-10-06T08:15:08Z</time></trkpt>
<trkpt lat="22.989785" lon="115.850674">
<time>2016-10-06T08:15:09Z</time></trkpt>
<trkpt lat="22.989634" lon="115.850373">
<time>2016-10-06T08:15:10Z</time></trkpt>
<trkpt lat="22.989494" lon="115.850073">
<time>2016-10-06T08:15:11Z</time></trkpt>
<trkpt lat="22.989323" lon="115.849732">
<time>2016-10-06T08:15:12Z</time></trkpt>
<trkpt lat="22.989203" lon="115.849461">
<time>2016-10-06T08:15:13Z</time></trkpt>
<trkpt lat="22.988882" lon="115.84879">
<time>2016-10-06T08:15:14Z</time></trkpt>
<trkpt lat="22.988721" lon="115.848479">
<time>2016-10-06T08:15:15Z</time></trkpt>
<trkpt lat="22.98838" lon="115.847758">
<time>2016-10-06T08:15:16Z</time></trkpt>
<trkpt lat="22.98813" lon="115.847246">
<time>2016-10-06T08:15:17Z</time></trkpt>
<trkpt lat="22.987869" lon="115.846715">
<time>2016-10-06T08:15:18Z</time></trkpt>
<trkpt lat="22.987718" lon="115.846405">
<time>2016-10-06T08:15:19Z</time></trkpt>
<trkpt lat="22.987528" lon="115.846014">
<time>2016-10-06T08:15:20Z</time></trkpt>
<trkpt lat="22.987438" lon="115.845833">
<time>2016-10-06T08:15:21Z</time></trkpt>
<trkpt lat="22.987337" lon="115.845633">
<time>2016-10-06T08:15:22Z</time></trkpt>
<trkpt lat="22.987237" lon="115.845402">
<time>2016-10-06T08:15:23Z</time></trkpt>
<trkpt lat="22.987137" lon="115.845192">
<time>2016-10-06T08:15:24Z</time></trkpt>
<trkpt lat="22.987026" lon="115.844961">
<time>2016-10-06T08:15:25Z</time></trkpt>
<trkpt lat="22.986926" lon="115.844741">
<time>2016-10-06T08:15:26Z</time></trkpt>
<trkpt lat="22.986796" lon="115.84447">
<time>2016-10-06T08:15:27Z</time></trkpt>
<trkpt lat="22.986675" lon="115.84421">
<time>2016-10-06T08:15:28Z</time></trkpt>
<trkpt lat="22.986575" lon="115.843989">
<time>2016-10-06T08:15:29Z</time></trkpt>
<trkpt lat="22.986505" lon="115.843849">
<time>2016-10-06T08:15:30Z</time></trkpt>
<trkpt lat="22.986424" lon="115.843669">
<time>2016-10-06T08:15:31Z</time></trkpt>
<trkpt lat="22.986354" lon="115.843528">
<time>2016-10-06T08:15:32Z</time></trkpt>
<trkpt lat="22.986103" lon="115.843027">
<time>2016-10-06T08:15:33Z</time></trkpt>
<trkpt lat="22.985993" lon="115.842817">
<time>2016-10-06T08:15:34Z</time></trkpt>
<trkpt lat="22.985933" lon="115.842686">
<time>2016-10-06T08:15:35Z</time></trkpt>
<trkpt lat="22.985893" lon="115.842616">
<time>2016-10-06T08:15:36Z</time></trkpt>
<trkpt lat="22.985732" lon="115.842255">
<time>2016-10-06T08:15:37Z</time></trkpt>
<trkpt lat="22.985582" lon="115.841955">
<time>2016-10-06T08:15:38Z</time></trkpt>
<trkpt lat="22.985481" lon="115.841754">
<time>2016-10-06T08:15:39Z</time></trkpt>
<trkpt lat="22.985351" lon="115.841504">
<time>2016-10-06T08:15:40Z</time></trkpt>
<trkpt lat="22.985281" lon="115.841373">
<time>2016-10-06T08:15:41Z</time></trkpt>
<trkpt lat="22.98519" lon="115.841173">
<time>2016-10-06T08:15:42Z</time></trkpt>
<trkpt lat="22.98507" lon="115.840932">
<time>2016-10-06T08:15:43Z</time></trkpt>
<trkpt lat="22.98501" lon="115.840812">
<time>2016-10-06T08:15:44Z</time></trkpt>
<trkpt lat="22.98493" lon="115.840662">
<time>2016-10-06T08:15:45Z</time></trkpt>
<trkpt lat="22.984779" lon="115.840381">
<time>2016-10-06T08:15:46Z</time></trkpt>
<trkpt lat="22.984689" lon="115.840211">
<time>2016-10-06T08:15:47Z</time></trkpt>
<trkpt lat="22.984639" lon="115.84011">
<time>2016-10-06T08:15:48Z</time></trkpt>
<trkpt lat="22.984589" lon="115.84002">
<time>2016-10-06T08:15:49Z</time></trkpt>
<trkpt lat="22.984529" lon="115.83992">
<time>2016-10-06T08:15:50Z</time></trkpt>
<trkpt lat="22.984478" lon="115.83984">
<time>2016-10-06T08:15:51Z</time></trkpt>
<trkpt lat="22.984428" lon="115.83978">
<time>2016-10-06T08:15:52Z</time></trkpt>
<trkpt lat="22.984338" lon="115.839649">
<time>2016-10-06T08:15:53Z</time></trkpt>
<trkpt lat="22.984228" lon="115.839509">
<time>2016-10-06T08:15:54Z</time></trkpt>
<trkpt lat="22.984138" lon="115.839389">
<time>2016-10-06T08:15:55Z</time></trkpt>
<trkpt lat="22.984018" lon="115.839238">
<time>2016-10-06T08:15:56Z</time></trkpt>
<trkpt lat="22.983907" lon="115.839098">
<time>2016-10-06T08:15:57Z</time></trkpt>
<trkpt lat="22.983747" lon="115.838918">
<time>2016-10-06T08:15:58Z</time></trkpt>
<trkpt lat="22.983517" lon="115.838667">
<time>2016-10-06T08:15:59Z</time></trkpt>
<trkpt lat="22.983216" lon="115.838326">
<time>2016-10-06T08:16:00Z</time></trkpt>
<trkpt lat="22.982966" lon="115.838036">
<time>2016-10-06T08:16:01Z</time></trkpt>
<trkpt lat="22.982645" lon="115.837675">
<time>2016-10-06T08:16:02Z</time></trkpt>
<trkpt lat="22.982405" lon="115.837394">
<time>2016-10-06T08:16:03Z</time></trkpt>
<trkpt lat="22.982215" lon="115.837164">
<time>2016-10-06T08:16:04Z</time></trkpt>
<trkpt lat="22.981544" lon="115.836412">
<time>2016-10-06T08:16:05Z</time></trkpt>
<trkpt lat="22.981363" lon="115.836211">
<time>2016-10-06T08:16:06Z</time></trkpt>
<trkpt lat="22.981203" lon="115.836031">
<time>2016-10-06T08:16:07Z</time></trkpt>
<trkpt lat="22.980772" lon="115.83555">
<time>2016-10-06T08:16:08Z</time></trkpt>
<trkpt lat="22.980362" lon="115.835099">
<time>2016-10-06T08:16:09Z</time></trkpt>
<trkpt lat="22.980131" lon="115.834828">
<time>2016-10-06T08:16:10Z</time></trkpt>
<trkpt lat="22.979981" lon="115.834658">
<time>2016-10-06T08:16:11Z</time></trkpt>
<trkpt lat="22.97961" lon="115.834237">
<time>2016-10-06T08:16:12Z</time></trkpt>
<trkpt lat="22.9793" lon="115.833876">
<time>2016-10-06T08:16:13Z</time></trkpt>
<trkpt lat="22.979039" lon="115.833575">
<time>2016-10-06T08:16:14Z</time></trkpt>
<trkpt lat="22.978769" lon="115.833275">
<time>2016-10-06T08:16:15Z</time></trkpt>
<trkpt lat="22.978518" lon="115.832974">
<time>2016-10-06T08:16:16Z</time></trkpt>
<trkpt lat="22.978378" lon="115.832813">
<time>2016-10-06T08:16:17Z</time></trkpt>
<trkpt lat="22.978288" lon="115.832703">
<time>2016-10-06T08:16:18Z</time></trkpt>
<trkpt lat="22.978218" lon="115.832623">
<time>2016-10-06T08:16:19Z</time></trkpt>
<trkpt lat="22.978138" lon="115.832543">
<time>2016-10-06T08:16:20Z</time></trkpt>
<trkpt lat="22.978078" lon="115.832473">
<time>2016-10-06T08:16:21Z</time></trkpt>
<trkpt lat="22.978008" lon="115.832403">
<time>2016-10-06T08:16:22Z</time></trkpt>
<trkpt lat="22.977877" lon="115.832242">
<time>2016-10-06T08:16:23Z</time></trkpt>
<trkpt lat="22.977797" lon="115.832142">
<time>2016-10-06T08:16:24Z</time></trkpt>
<trkpt lat="22.977727" lon="115.832062">
<time>2016-10-06T08:16:25Z</time></trkpt>
<trkpt lat="22.977657" lon="115.831971">
<time>2016-10-06T08:16:26Z</time></trkpt>
<trkpt lat="22.977597" lon="115.831891">
<time>2016-10-06T08:16:27Z</time></trkpt>
<trkpt lat="22.977547" lon="115.831811">
<time>2016-10-06T08:16:28Z</time></trkpt>
<trkpt lat="22.977497" lon="115.831721">
<time>2016-10-06T08:16:29Z</time></trkpt>
<trkpt lat="22.977456" lon="115.831641">
<time>2016-10-06T08:16:30Z</time></trkpt>
<trkpt lat="22.977426" lon="115.831571">
<time>2016-10-06T08:16:31Z</time></trkpt>
<trkpt lat="22.977346" lon="115.8314">
<time>2016-10-06T08:16:32Z</time></trkpt>
<trkpt lat="22.977296" lon="115.83125">
<time>2016-10-06T08:16:33Z</time></trkpt>
<trkpt lat="22.977246" lon="115.831119">
<time>2016-10-06T08:16:34Z</time></trkpt>
<trkpt lat="22.977185" lon="115.830879">
<time>2016-10-06T08:16:35Z</time></trkpt>
<trkpt lat="22.977095" lon="115.830538">
<time>2016-10-06T08:16:36Z</time></trkpt>
<trkpt lat="22.977034" lon="115.830287">
<time>2016-10-06T08:16:37Z</time></trkpt>
<trkpt lat="22.976943" lon="115.829927">
<time>2016-10-06T08:16:38Z</time></trkpt>
<trkpt lat="22.976883" lon="115.829676">
<time>2016-10-06T08:16:39Z</time></trkpt>
<trkpt lat="22.976843" lon="115.829455">
<time>2016-10-06T08:16:40Z</time></trkpt>
<trkpt lat="22.976812" lon="115.829325">
<time>2016-10-06T08:16:41Z</time></trkpt>
<trkpt lat="22.976782" lon="115.829175">
<time>2016-10-06T08:16:42Z</time></trkpt>
<trkpt lat="22.976752" lon="115.829054">
<time>2016-10-06T08:16:43Z</time></trkpt>
<trkpt lat="22.976692" lon="115.828854">
<time>2016-10-06T08:16:44Z</time></trkpt>
<trkpt lat="22.976661" lon="115.828704">
<time>2016-10-06T08:16:45Z</time></trkpt>
<trkpt lat="22.976611" lon="115.828543">
<time>2016-10-06T08:16:46Z</time></trkpt>
<trkpt lat="22.976551" lon="115.828313">
<time>2016-10-06T08:16:47Z</time></trkpt>
<trkpt lat="22.97646" lon="115.827992">
<time>2016-10-06T08:16:48Z</time></trkpt>
<trkpt lat="22.97642" lon="115.827821">
<time>2016-10-06T08:16:49Z</time></trkpt>
<trkpt lat="22.976369" lon="115.827631">
<time>2016-10-06T08:16:50Z</time></trkpt>
<trkpt lat="22.976289" lon="115.82734">
<time>2016-10-06T08:16:51Z</time></trkpt>
<trkpt lat="22.976229" lon="115.82717">
<time>2016-10-06T08:16:52Z</time></trkpt>
<trkpt lat="22.976178" lon="115.82703">
<time>2016-10-06T08:16:53Z</time></trkpt>
<trkpt lat="22.976118" lon="115.826879">
<time>2016-10-06T08:16:54Z</time></trkpt>
<trkpt lat="22.975998" lon="115.826629">
<time>2016-10-06T08:16:55Z</time></trkpt>
<trkpt lat="22.975887" lon="115.826378">
<time>2016-10-06T08:16:56Z</time></trkpt>
<trkpt lat="22.975837" lon="115.826288">
<time>2016-10-06T08:16:57Z</time></trkpt>
<trkpt lat="22.975677" lon="115.826017">
<time>2016-10-06T08:16:58Z</time></trkpt>
<trkpt lat="22.975516" lon="115.825746">
<time>2016-10-06T08:16:59Z</time></trkpt>
<trkpt lat="22.975286" lon="115.825315">
<time>2016-10-06T08:17:00Z</time></trkpt>
<trkpt lat="22.974965" lon="115.824734">
<time>2016-10-06T08:17:01Z</time></trkpt>
<trkpt lat="22.974674" lon="115.824213">
<time>2016-10-06T08:17:02Z</time></trkpt>
<trkpt lat="22.974393" lon="115.823671">
<time>2016-10-06T08:17:03Z</time></trkpt>
<trkpt lat="22.974272" lon="115.823461">
<time>2016-10-06T08:17:04Z</time></trkpt>
<trkpt lat="22.974042" lon="115.82303">
<time>2016-10-06T08:17:05Z</time></trkpt>
<trkpt lat="22.973771" lon="115.822539">
<time>2016-10-06T08:17:06Z</time></trkpt>
<trkpt lat="22.97362" lon="115.822268">
<time>2016-10-06T08:17:07Z</time></trkpt>
<trkpt lat="22.97347" lon="115.821997">
<time>2016-10-06T08:17:08Z</time></trkpt>
<trkpt lat="22.97334" lon="115.821767">
<time>2016-10-06T08:17:09Z</time></trkpt>
<trkpt lat="22.973199" lon="115.821516">
<time>2016-10-06T08:17:10Z</time></trkpt>
<trkpt lat="22.973089" lon="115.821326">
<time>2016-10-06T08:17:11Z</time></trkpt>
<trkpt lat="22.972999" lon="115.821185">
<time>2016-10-06T08:17:12Z</time></trkpt>
<trkpt lat="22.972878" lon="115.821005">
<time>2016-10-06T08:17:13Z</time></trkpt>
<trkpt lat="22.972768" lon="115.820825">
<time>2016-10-06T08:17:14Z</time></trkpt>
<trkpt lat="22.972668" lon="115.820674">
<time>2016-10-06T08:17:15Z</time></trkpt>
<trkpt lat="22.972568" lon="115.820534">
<time>2016-10-06T08:17:16Z</time></trkpt>
<trkpt lat="22.972447" lon="115.820394">
<time>2016-10-06T08:17:17Z</time></trkpt>
<trkpt lat="22.972257" lon="115.820173">
<time>2016-10-06T08:17:18Z</time></trkpt>
<trkpt lat="22.972007" lon="115.819912">
<time>2016-10-06T08:17:19Z</time></trkpt>
<trkpt lat="22.971716" lon="115.819622">
<time>2016-10-06T08:17:20Z</time></trkpt>
<trkpt lat="22.971466" lon="115.819351">
<time>2016-10-06T08:17:21Z</time></trkpt>
<trkpt lat="22.971135" lon="115.81899">
<time>2016-10-06T08:17:22Z</time></trkpt>
<trkpt lat="22.970925" lon="115.81874">
<time>2016-10-06T08:17:23Z</time></trkpt>
<trkpt lat="22.970805" lon="115.818599">
<time>2016-10-06T08:17:24Z</time></trkpt>
<trkpt lat="22.970705" lon="115.818469">
<time>2016-10-06T08:17:25Z</time></trkpt>
<trkpt lat="22.970594" lon="115.818299">
<time>2016-10-06T08:17:26Z</time></trkpt>
<trkpt lat="22.970324" lon="115.817908">
<time>2016-10-06T08:17:27Z</time></trkpt>
<trkpt lat="22.970073" lon="115.817527">
<time>2016-10-06T08:17:28Z</time></trkpt>
<trkpt lat="22.969532" lon="115.816695">
<time>2016-10-06T08:17:29Z</time></trkpt>
<trkpt lat="22.96895" lon="115.815803">
<time>2016-10-06T08:17:30Z</time></trkpt>
<trkpt lat="22.968439" lon="115.815031">
<time>2016-10-06T08:17:31Z</time></trkpt>
<trkpt lat="22.968158" lon="115.81462">
<time>2016-10-06T08:17:32Z</time></trkpt>
<trkpt lat="22.968108" lon="115.81454">
<time>2016-10-06T08:17:33Z</time></trkpt>
<trkpt lat="22.967417" lon="115.813487">
<time>2016-10-06T08:17:34Z</time></trkpt>
<trkpt lat="22.966845" lon="115.812605">
<time>2016-10-06T08:17:35Z</time></trkpt>
<trkpt lat="22.966274" lon="115.811733">
<time>2016-10-06T08:17:36Z</time></trkpt>
<trkpt lat="22.965893" lon="115.811162">
<time>2016-10-06T08:17:37Z</time></trkpt>
<trkpt lat="22.965592" lon="115.810711">
<time>2016-10-06T08:17:38Z</time></trkpt>
<trkpt lat="22.965302" lon="115.81025">
<time>2016-10-06T08:17:39Z</time></trkpt>
<trkpt lat="22.964961" lon="115.809748">
<time>2016-10-06T08:17:40Z</time></trkpt>
<trkpt lat="22.964319" lon="115.808796">
<time>2016-10-06T08:17:41Z</time></trkpt>
<trkpt lat="22.963808" lon="115.808004">
<time>2016-10-06T08:17:42Z</time></trkpt>
<trkpt lat="22.963307" lon="115.807203">
<time>2016-10-06T08:17:43Z</time></trkpt>
<trkpt lat="22.962866" lon="115.806541">
<time>2016-10-06T08:17:44Z</time></trkpt>
<trkpt lat="22.962465" lon="115.80593">
<time>2016-10-06T08:17:45Z</time></trkpt>
<trkpt lat="22.962084" lon="115.805358">
<time>2016-10-06T08:17:46Z</time></trkpt>
<trkpt lat="22.961764" lon="115.804857">
<time>2016-10-06T08:17:47Z</time></trkpt>
<trkpt lat="22.961443" lon="115.804366">
<time>2016-10-06T08:17:48Z</time></trkpt>
<trkpt lat="22.961363" lon="115.804246">
<time>2016-10-06T08:17:49Z</time></trkpt>
<trkpt lat="22.961282" lon="115.804136">
<time>2016-10-06T08:17:50Z</time></trkpt>
<trkpt lat="22.961242" lon="115.804076">
<time>2016-10-06T08:17:51Z</time></trkpt>
<trkpt lat="22.960761" lon="115.803344">
<time>2016-10-06T08:17:52Z</time></trkpt>
<trkpt lat="22.960451" lon="115.802863">
<time>2016-10-06T08:17:53Z</time></trkpt>
<trkpt lat="22.959939" lon="115.802071">
<time>2016-10-06T08:17:54Z</time></trkpt>
<trkpt lat="22.959428" lon="115.801219">
<time>2016-10-06T08:17:55Z</time></trkpt>
<trkpt lat="22.958987" lon="115.800488">
<time>2016-10-06T08:17:56Z</time></trkpt>
<trkpt lat="22.958747" lon="115.800087">
<time>2016-10-06T08:17:57Z</time></trkpt>
<trkpt lat="22.958386" lon="115.799465">
<time>2016-10-06T08:17:58Z</time></trkpt>
<trkpt lat="22.957885" lon="115.798644">
<time>2016-10-06T08:17:59Z</time></trkpt>
<trkpt lat="22.957544" lon="115.798062">
<time>2016-10-06T08:18:00Z</time></trkpt>
<trkpt lat="22.957373" lon="115.797762">
<time>2016-10-06T08:18:01Z</time></trkpt>
<trkpt lat="22.957033" lon="115.797201">
<time>2016-10-06T08:18:02Z</time></trkpt>
<trkpt lat="22.956591" lon="115.796429">
<time>2016-10-06T08:18:03Z</time></trkpt>
<trkpt lat="22.956371" lon="115.796048">
<time>2016-10-06T08:18:04Z</time></trkpt>
<trkpt lat="22.956301" lon="115.795928">
<time>2016-10-06T08:18:05Z</time></trkpt>
<trkpt lat="22.95584" lon="115.795166">
<time>2016-10-06T08:18:06Z</time></trkpt>
<trkpt lat="22.955309" lon="115.794244">
<time>2016-10-06T08:18:07Z</time></trkpt>
<trkpt lat="22.954878" lon="115.793513">
<time>2016-10-06T08:18:08Z</time></trkpt>
<trkpt lat="22.954737" lon="115.793262">
<time>2016-10-06T08:18:09Z</time></trkpt>
<trkpt lat="22.954657" lon="115.793122">
<time>2016-10-06T08:18:10Z</time></trkpt>
<trkpt lat="22.954447" lon="115.792741">
<time>2016-10-06T08:18:11Z</time></trkpt>
<trkpt lat="22.954186" lon="115.79229">
<time>2016-10-06T08:18:12Z</time></trkpt>
<trkpt lat="22.954046" lon="115.79204">
<time>2016-10-06T08:18:13Z</time></trkpt>
<trkpt lat="22.953875" lon="115.791739">
<time>2016-10-06T08:18:14Z</time></trkpt>
<trkpt lat="22.953645" lon="115.791339">
<time>2016-10-06T08:18:15Z</time></trkpt>
<trkpt lat="22.953484" lon="115.791058">
<time>2016-10-06T08:18:16Z</time></trkpt>
<trkpt lat="22.953334" lon="115.790767">
<time>2016-10-06T08:18:17Z</time></trkpt>
<trkpt lat="22.953284" lon="115.790657">
<time>2016-10-06T08:18:18Z</time></trkpt>
<trkpt lat="22.953184" lon="115.790487">
<time>2016-10-06T08:18:19Z</time></trkpt>
<trkpt lat="22.952783" lon="115.789806">
<time>2016-10-06T08:18:20Z</time></trkpt>
<trkpt lat="22.952432" lon="115.789194">
<time>2016-10-06T08:18:21Z</time></trkpt>
<trkpt lat="22.952332" lon="115.789004">
<time>2016-10-06T08:18:22Z</time></trkpt>
<trkpt lat="22.952262" lon="115.788874">
<time>2016-10-06T08:18:23Z</time></trkpt>
<trkpt lat="22.952091" lon="115.788603">
<time>2016-10-06T08:18:24Z</time></trkpt>
<trkpt lat="22.952031" lon="115.788483">
<time>2016-10-06T08:18:25Z</time></trkpt>
<trkpt lat="22.952001" lon="115.788443">
<time>2016-10-06T08:18:26Z</time></trkpt>
<trkpt lat="22.951861" lon="115.788202">
<time>2016-10-06T08:18:27Z</time></trkpt>
<trkpt lat="22.951721" lon="115.787972">
<time>2016-10-06T08:18:28Z</time></trkpt>
<trkpt lat="22.951611" lon="115.787802">
<time>2016-10-06T08:18:29Z</time></trkpt>
<trkpt lat="22.95147" lon="115.787611">
<time>2016-10-06T08:18:30Z</time></trkpt>
<trkpt lat="22.95132" lon="115.787421">
<time>2016-10-06T08:18:31Z</time></trkpt>
<trkpt lat="22.95099" lon="115.78702">
<time>2016-10-06T08:18:32Z</time></trkpt>
<trkpt lat="22.95087" lon="115.78688">
<time>2016-10-06T08:18:33Z</time></trkpt>
<trkpt lat="22.950729" lon="115.78671">
<time>2016-10-06T08:18:34Z</time></trkpt>
<trkpt lat="22.950629" lon="115.786579">
<time>2016-10-06T08:18:35Z</time></trkpt>
<trkpt lat="22.950549" lon="115.786489">
<time>2016-10-06T08:18:36Z</time></trkpt>
<trkpt lat="22.950449" lon="115.786379">
<time>2016-10-06T08:18:37Z</time></trkpt>
<trkpt lat="22.950339" lon="115.786259">
<time>2016-10-06T08:18:38Z</time></trkpt>
<trkpt lat="22.950239" lon="115.786129">
<time>2016-10-06T08:18:39Z</time></trkpt>
<trkpt lat="22.950169" lon="115.786049">
<time>2016-10-06T08:18:40Z</time></trkpt>
<trkpt lat="22.950139" lon="115.786008">
<time>2016-10-06T08:18:41Z</time></trkpt>
<trkpt lat="22.950109" lon="115.785958">
<time>2016-10-06T08:18:42Z</time></trkpt>
<trkpt lat="22.950059" lon="115.785888">
<time>2016-10-06T08:18:43Z</time></trkpt>
<trkpt lat="22.950018" lon="115.785828">
<time>2016-10-06T08:18:44Z</time></trkpt>
<trkpt lat="22.949978" lon="115.785738">
<time>2016-10-06T08:18:45Z</time></trkpt>
<trkpt lat="22.949968" lon="115.785718">
<time>2016-10-06T08:18:46Z</time></trkpt>
<trkpt lat="22.949958" lon="115.785708">
<time>2016-10-06T08:18:47Z</time></trkpt>
<trkpt lat="22.949948" lon="115.785688">
<time>2016-10-06T08:18:48Z</time></trkpt>
<trkpt lat="22.949918" lon="115.785628">
<time>2016-10-06T08:18:49Z</time></trkpt>
<trkpt lat="22.949908" lon="115.785578">
<time>2016-10-06T08:18:50Z</time></trkpt>
<trkpt lat="22.949888" lon="115.785528">
<time>2016-10-06T08:18:51Z</time></trkpt>
<trkpt lat="22.949878" lon="115.785508">
<time>2016-10-06T08:18:52Z</time></trkpt>
<trkpt lat="22.949848" lon="115.785397">
<time>2016-10-06T08:18:53Z</time></trkpt>
<trkpt lat="22.949828" lon="115.785327">
<time>2016-10-06T08:18:54Z</time></trkpt>
<trkpt lat="22.949798" lon="115.785217">
<time>2016-10-06T08:18:55Z</time></trkpt>
<trkpt lat="22.949768" lon="115.785097">
<time>2016-10-06T08:18:56Z</time></trkpt>
<trkpt lat="22.949747" lon="115.785027">
<time>2016-10-06T08:18:57Z</time></trkpt>
<trkpt lat="22.949727" lon="115.784947">
<time>2016-10-06T08:18:58Z</time></trkpt>
<trkpt lat="22.949687" lon="115.784816">
<time>2016-10-06T08:18:59Z</time></trkpt>
<trkpt lat="22.949637" lon="115.784646">
<time>2016-10-06T08:19:00Z</time></trkpt>
<trkpt lat="22.949597" lon="115.784526">
<time>2016-10-06T08:19:01Z</time></trkpt>
<trkpt lat="22.949557" lon="115.784396">
<time>2016-10-06T08:19:02Z</time></trkpt>
<trkpt lat="22.949527" lon="115.784295">
<time>2016-10-06T08:19:03Z</time></trkpt>
<trkpt lat="22.949496" lon="115.784185">
<time>2016-10-06T08:19:04Z</time></trkpt>
<trkpt lat="22.949466" lon="115.784065">
<time>2016-10-06T08:19:05Z</time></trkpt>
<trkpt lat="22.949446" lon="115.783975">
<time>2016-10-06T08:19:06Z</time></trkpt>
<trkpt lat="22.949406" lon="115.783855">
<time>2016-10-06T08:19:07Z</time></trkpt>
<trkpt lat="22.949376" lon="115.783694">
<time>2016-10-06T08:19:08Z</time></trkpt>
<trkpt lat="22.949346" lon="115.783574">
<time>2016-10-06T08:19:09Z</time></trkpt>
<trkpt lat="22.949306" lon="115.783444">
<time>2016-10-06T08:19:10Z</time></trkpt>
<trkpt lat="22.949255" lon="115.783253">
<time>2016-10-06T08:19:11Z</time></trkpt>
<trkpt lat="22.949215" lon="115.783123">
<time>2016-10-06T08:19:12Z</time></trkpt>
<trkpt lat="22.949185" lon="115.782983">
<time>2016-10-06T08:19:13Z</time></trkpt>
<trkpt lat="22.949145" lon="115.782853">
<time>2016-10-06T08:19:14Z</time></trkpt>
<trkpt lat="22.949115" lon="115.782743">
<time>2016-10-06T08:19:15Z</time></trkpt>
<trkpt lat="22.949095" lon="115.782652">
<time>2016-10-06T08:19:16Z</time></trkpt>
<trkpt lat="22.949075" lon="115.782562">
<time>2016-10-06T08:19:17Z</time></trkpt>
<trkpt lat="22.949065" lon="115.782552">
<time>2016-10-06T08:19:18Z</time></trkpt>
<trkpt lat="22.949044" lon="115.782462">
<time>2016-10-06T08:19:19Z</time></trkpt>
<trkpt lat="22.949024" lon="115.782372">
<time>2016-10-06T08:19:20Z</time></trkpt>
<trkpt lat="22.949014" lon="115.782312">
<time>2016-10-06T08:19:21Z</time></trkpt>
<trkpt lat="22.949004" lon="115.782272">
<time>2016-10-06T08:19:22Z</time></trkpt>
<trkpt lat="22.949004" lon="115.782222">
<time>2016-10-06T08:19:23Z</time></trkpt>
<trkpt lat="22.948994" lon="115.782131">
<time>2016-10-06T08:19:24Z</time></trkpt>
<trkpt lat="22.948984" lon="115.782031">
<time>2016-10-06T08:19:25Z</time></trkpt>
<trkpt lat="22.948974" lon="115.781961">
<time>2016-10-06T08:19:26Z</time></trkpt>
<trkpt lat="22.948964" lon="115.781921">
<time>2016-10-06T08:19:27Z</time></trkpt>
<trkpt lat="22.948954" lon="115.781871">
<time>2016-10-06T08:19:28Z</time></trkpt>
<trkpt lat="22.948903" lon="115.781681">
<time>2016-10-06T08:19:29Z</time></trkpt>
<trkpt lat="22.948883" lon="115.781581">
<time>2016-10-06T08:19:30Z</time></trkpt>
<trkpt lat="22.948843" lon="115.78136">
<time>2016-10-06T08:19:31Z</time></trkpt>
<trkpt lat="22.948813" lon="115.78119">
<time>2016-10-06T08:19:32Z</time></trkpt>
<trkpt lat="22.948783" lon="115.78101">
<time>2016-10-06T08:19:33Z</time></trkpt>
<trkpt lat="22.948763" lon="115.780879">
<time>2016-10-06T08:19:34Z</time></trkpt>
<trkpt lat="22.948742" lon="115.780769">
<time>2016-10-06T08:19:35Z</time></trkpt>
<trkpt lat="22.948732" lon="115.780739">
<time>2016-10-06T08:19:36Z</time></trkpt>
<trkpt lat="22.948702" lon="115.780609">
<time>2016-10-06T08:19:37Z</time></trkpt>
<trkpt lat="22.948692" lon="115.780539">
<time>2016-10-06T08:19:38Z</time></trkpt>
<trkpt lat="22.948672" lon="115.780459">
<time>2016-10-06T08:19:39Z</time></trkpt>
<trkpt lat="22.948652" lon="115.780318">
<time>2016-10-06T08:19:40Z</time></trkpt>
<trkpt lat="22.948632" lon="115.780218">
<time>2016-10-06T08:19:41Z</time></trkpt>
<trkpt lat="22.948622" lon="115.780128">
<time>2016-10-06T08:19:42Z</time></trkpt>
<trkpt lat="22.948602" lon="115.780068">
<time>2016-10-06T08:19:43Z</time></trkpt>
<trkpt lat="22.948581" lon="115.779948">
<time>2016-10-06T08:19:44Z</time></trkpt>
<trkpt lat="22.948561" lon="115.779858">
<time>2016-10-06T08:19:45Z</time></trkpt>
<trkpt lat="22.948541" lon="115.779777">
<time>2016-10-06T08:19:46Z</time></trkpt>
<trkpt lat="22.948521" lon="115.779617">
<time>2016-10-06T08:19:47Z</time></trkpt>
<trkpt lat="22.948501" lon="115.779477">
<time>2016-10-06T08:19:48Z</time></trkpt>
<trkpt lat="22.948471" lon="115.779327">
<time>2016-10-06T08:19:49Z</time></trkpt>
<trkpt lat="22.948461" lon="115.779257">
<time>2016-10-06T08:19:50Z</time></trkpt>
<trkpt lat="22.948451" lon="115.779166">
<time>2016-10-06T08:19:51Z</time></trkpt>
<trkpt lat="22.94843" lon="115.778956">
<time>2016-10-06T08:19:52Z</time></trkpt>
<trkpt lat="22.94841" lon="115.778806">
<time>2016-10-06T08:19:53Z</time></trkpt>
<trkpt lat="22.9484" lon="115.778696">
<time>2016-10-06T08:19:54Z</time></trkpt>
<trkpt lat="22.9484" lon="115.778495">
<time>2016-10-06T08:19:55Z</time></trkpt>
<trkpt lat="22.94841" lon="115.778275">
<time>2016-10-06T08:19:56Z</time></trkpt>
<trkpt lat="22.948409" lon="115.778095">
<time>2016-10-06T08:19:57Z</time></trkpt>
<trkpt lat="22.948419" lon="115.777784">
<time>2016-10-06T08:19:58Z</time></trkpt>
<trkpt lat="22.948429" lon="115.777564">
<time>2016-10-06T08:19:59Z</time></trkpt>
<trkpt lat="22.948439" lon="115.777384">
<time>2016-10-06T08:20:00Z</time></trkpt>
<trkpt lat="22.948458" lon="115.777063">
<time>2016-10-06T08:20:01Z</time></trkpt>
<trkpt lat="22.948478" lon="115.776753">
<time>2016-10-06T08:20:02Z</time></trkpt>
<trkpt lat="22.948497" lon="115.776352">
<time>2016-10-06T08:20:03Z</time></trkpt>
<trkpt lat="22.948507" lon="115.776102">
<time>2016-10-06T08:20:04Z</time></trkpt>
<trkpt lat="22.948517" lon="115.775871">
<time>2016-10-06T08:20:05Z</time></trkpt>
<trkpt lat="22.948527" lon="115.775641">
<time>2016-10-06T08:20:06Z</time></trkpt>
<trkpt lat="22.948536" lon="115.775531">
<time>2016-10-06T08:20:07Z</time></trkpt>
<trkpt lat="22.948556" lon="115.77528">
<time>2016-10-06T08:20:08Z</time></trkpt>
<trkpt lat="22.948576" lon="115.77497">
<time>2016-10-06T08:20:09Z</time></trkpt>
<trkpt lat="22.948596" lon="115.774729">
<time>2016-10-06T08:20:10Z</time></trkpt>
<trkpt lat="22.948605" lon="115.774439">
<time>2016-10-06T08:20:11Z</time></trkpt>
<trkpt lat="22.948615" lon="115.774259">
<time>2016-10-06T08:20:12Z</time></trkpt>
<trkpt lat="22.948625" lon="115.773878">
<time>2016-10-06T08:20:13Z</time></trkpt>
<trkpt lat="22.948635" lon="115.773798">
<time>2016-10-06T08:20:14Z</time></trkpt>
<trkpt lat="22.948654" lon="115.773407">
<time>2016-10-06T08:20:15Z</time></trkpt>
<trkpt lat="22.948674" lon="115.773047">
<time>2016-10-06T08:20:16Z</time></trkpt>
<trkpt lat="22.948684" lon="115.772817">
<time>2016-10-06T08:20:17Z</time></trkpt>
<trkpt lat="22.948723" lon="115.772146">
<time>2016-10-06T08:20:18Z</time></trkpt>
<trkpt lat="22.948733" lon="115.771865">
<time>2016-10-06T08:20:19Z</time></trkpt>
<trkpt lat="22.948752" lon="115.771535">
<time>2016-10-06T08:20:20Z</time></trkpt>
<trkpt lat="22.948772" lon="115.771264">
<time>2016-10-06T08:20:21Z</time></trkpt>
<trkpt lat="22.948782" lon="115.771084">
<time>2016-10-06T08:20:22Z</time></trkpt>
<trkpt lat="22.948802" lon="115.770864">
<time>2016-10-06T08:20:23Z</time></trkpt>
<trkpt lat="22.948802" lon="115.770724">
<time>2016-10-06T08:20:24Z</time></trkpt>
<trkpt lat="22.948811" lon="115.770543">
<time>2016-10-06T08:20:25Z</time></trkpt>
<trkpt lat="22.948811" lon="115.770353">
<time>2016-10-06T08:20:26Z</time></trkpt>
<trkpt lat="22.948831" lon="115.770173">
<time>2016-10-06T08:20:27Z</time></trkpt>
<trkpt lat="22.948831" lon="115.770113">
<time>2016-10-06T08:20:28Z</time></trkpt>
<trkpt lat="22.948841" lon="115.769953">
<time>2016-10-06T08:20:29Z</time></trkpt>
<trkpt lat="22.948851" lon="115.769812">
<time>2016-10-06T08:20:30Z</time></trkpt>
<trkpt lat="22.948861" lon="115.769742">
<time>2016-10-06T08:20:31Z</time></trkpt>
<trkpt lat="22.94887" lon="115.769542">
<time>2016-10-06T08:20:32Z</time></trkpt>
<trkpt lat="22.94887" lon="115.769402">
<time>2016-10-06T08:20:33Z</time></trkpt>
<trkpt lat="22.94888" lon="115.769262">
<time>2016-10-06T08:20:34Z</time></trkpt>
<trkpt lat="22.94888" lon="115.769192">
<time>2016-10-06T08:20:35Z</time></trkpt>
<trkpt lat="22.94889" lon="115.768971">
<time>2016-10-06T08:20:36Z</time></trkpt>
<trkpt lat="22.9489" lon="115.768781">
<time>2016-10-06T08:20:37Z</time></trkpt>
<trkpt lat="22.94891" lon="115.768621">
<time>2016-10-06T08:20:38Z</time></trkpt>
<trkpt lat="22.948919" lon="115.768401">
<time>2016-10-06T08:20:39Z</time></trkpt>
<trkpt lat="22.948929" lon="115.76832">
<time>2016-10-06T08:20:40Z</time></trkpt>
<trkpt lat="22.948939" lon="115.76809">
<time>2016-10-06T08:20:41Z</time></trkpt>
<trkpt lat="22.948949" lon="115.76793">
<time>2016-10-06T08:20:42Z</time></trkpt>
<trkpt lat="22.948959" lon="115.7678">
<time>2016-10-06T08:20:43Z</time></trkpt>
<trkpt lat="22.948979" lon="115.767549">
<time>2016-10-06T08:20:44Z</time></trkpt>
<trkpt lat="22.948989" lon="115.767409">
<time>2016-10-06T08:20:45Z</time></trkpt>
<trkpt lat="22.948978" lon="115.767219">
<time>2016-10-06T08:20:46Z</time></trkpt>
<trkpt lat="22.948968" lon="115.767109">
<time>2016-10-06T08:20:47Z</time></trkpt>
<trkpt lat="22.948968" lon="115.766939">
<time>2016-10-06T08:20:48Z</time></trkpt>
<trkpt lat="22.948978" lon="115.766658">
<time>2016-10-06T08:20:49Z</time></trkpt>
<trkpt lat="22.948978" lon="115.766578">
<time>2016-10-06T08:20:50Z</time></trkpt>
<trkpt lat="22.948988" lon="115.766088">
<time>2016-10-06T08:20:51Z</time></trkpt>
<trkpt lat="22.948977" lon="115.765527">
<time>2016-10-06T08:20:52Z</time></trkpt>
<trkpt lat="22.948967" lon="115.764996">
<time>2016-10-06T08:20:53Z</time></trkpt>
<trkpt lat="22.948956" lon="115.764566">
<time>2016-10-06T08:20:54Z</time></trkpt>
<trkpt lat="22.948956" lon="115.764446">
<time>2016-10-06T08:20:55Z</time></trkpt>
<trkpt lat="22.948936" lon="115.764035">
<time>2016-10-06T08:20:56Z</time></trkpt>
<trkpt lat="22.948926" lon="115.763765">
<time>2016-10-06T08:20:57Z</time></trkpt>
<trkpt lat="22.948906" lon="115.763305">
<time>2016-10-06T08:20:58Z</time></trkpt>
<trkpt lat="22.948886" lon="115.763074">
<time>2016-10-06T08:20:59Z</time></trkpt>
<trkpt lat="22.948865" lon="115.762894">
<time>2016-10-06T08:21:00Z</time></trkpt>
<trkpt lat="22.948845" lon="115.762644">
<time>2016-10-06T08:21:01Z</time></trkpt>
<trkpt lat="22.948805" lon="115.762414">
<time>2016-10-06T08:21:02Z</time></trkpt>
<trkpt lat="22.948775" lon="115.762173">
<time>2016-10-06T08:21:03Z</time></trkpt>
<trkpt lat="22.948755" lon="115.762103">
<time>2016-10-06T08:21:04Z</time></trkpt>
<trkpt lat="22.948675" lon="115.761533">
<time>2016-10-06T08:21:05Z</time></trkpt>
<trkpt lat="22.948594" lon="115.760952">
<time>2016-10-06T08:21:06Z</time></trkpt>
<trkpt lat="22.948554" lon="115.760612">
<time>2016-10-06T08:21:07Z</time></trkpt>
<trkpt lat="22.948514" lon="115.760342">
<time>2016-10-06T08:21:08Z</time></trkpt>
<trkpt lat="22.948414" lon="115.759701">
<time>2016-10-06T08:21:09Z</time></trkpt>
<trkpt lat="22.948323" lon="115.75912">
<time>2016-10-06T08:21:10Z</time></trkpt>
<trkpt lat="22.948283" lon="115.75887">
<time>2016-10-06T08:21:11Z</time></trkpt>
<trkpt lat="22.948233" lon="115.7586">
<time>2016-10-06T08:21:12Z</time></trkpt>
<trkpt lat="22.948183" lon="115.75838">
<time>2016-10-06T08:21:13Z</time></trkpt>
<trkpt lat="22.948153" lon="115.75826">
<time>2016-10-06T08:21:14Z</time></trkpt>
<trkpt lat="22.948123" lon="115.75816">
<time>2016-10-06T08:21:15Z</time></trkpt>
<trkpt lat="22.948073" lon="115.757969">
<time>2016-10-06T08:21:16Z</time></trkpt>
<trkpt lat="22.948023" lon="115.757799">
<time>2016-10-06T08:21:17Z</time></trkpt>
<trkpt lat="22.947923" lon="115.757509">
<time>2016-10-06T08:21:18Z</time></trkpt>
<trkpt lat="22.947753" lon="115.757049">
<time>2016-10-06T08:21:19Z</time></trkpt>
<trkpt lat="22.947623" lon="115.756678">
<time>2016-10-06T08:21:20Z</time></trkpt>
<trkpt lat="22.947563" lon="115.756518">
<time>2016-10-06T08:21:21Z</time></trkpt>
<trkpt lat="22.947493" lon="115.756318">
<time>2016-10-06T08:21:22Z</time></trkpt>
<trkpt lat="22.947432" lon="115.756128">
<time>2016-10-06T08:21:23Z</time></trkpt>
<trkpt lat="22.947402" lon="115.755998">
<time>2016-10-06T08:21:24Z</time></trkpt>
<trkpt lat="22.947352" lon="115.755708">
<time>2016-10-06T08:21:25Z</time></trkpt>
<trkpt lat="22.947302" lon="115.755397">
<time>2016-10-06T08:21:26Z</time></trkpt>
<trkpt lat="22.947232" lon="115.754847">
<time>2016-10-06T08:21:27Z</time></trkpt>
<trkpt lat="22.947162" lon="115.754196">
<time>2016-10-06T08:21:28Z</time></trkpt>
<trkpt lat="22.947102" lon="115.753776">
<time>2016-10-06T08:21:29Z</time></trkpt>
<trkpt lat="22.947072" lon="115.753476">
<time>2016-10-06T08:21:30Z</time></trkpt>
<trkpt lat="22.947012" lon="115.752896">
<time>2016-10-06T08:21:31Z</time></trkpt>
<trkpt lat="22.946941" lon="115.752295">
<time>2016-10-06T08:21:32Z</time></trkpt>
<trkpt lat="22.946901" lon="115.751975">
<time>2016-10-06T08:21:33Z</time></trkpt>
<trkpt lat="22.946811" lon="115.751174">
<time>2016-10-06T08:21:34Z</time></trkpt>
<trkpt lat="22.946771" lon="115.750734">
<time>2016-10-06T08:21:35Z</time></trkpt>
<trkpt lat="22.946731" lon="115.750354">
<time>2016-10-06T08:21:36Z</time></trkpt>
<trkpt lat="22.946731" lon="115.750274">
<time>2016-10-06T08:21:37Z</time></trkpt>
<trkpt lat="22.946721" lon="115.750174">
<time>2016-10-06T08:21:38Z</time></trkpt>
<trkpt lat="22.946701" lon="115.750004">
<time>2016-10-06T08:21:39Z</time></trkpt>
<trkpt lat="22.946651" lon="115.749453">
<time>2016-10-06T08:21:40Z</time></trkpt>
<trkpt lat="22.946621" lon="115.749243">
<time>2016-10-06T08:21:41Z</time></trkpt>
<trkpt lat="22.946531" lon="115.748363">
<time>2016-10-06T08:21:42Z</time></trkpt>
<trkpt lat="22.946381" lon="115.746932">
<time>2016-10-06T08:21:43Z</time></trkpt>
<trkpt lat="22.946281" lon="115.746022">
<time>2016-10-06T08:21:44Z</time></trkpt>
<trkpt lat="22.946141" lon="115.744792">
<time>2016-10-06T08:21:45Z</time></trkpt>
<trkpt lat="22.946061" lon="115.744041">
<time>2016-10-06T08:21:46Z</time></trkpt>
<trkpt lat="22.945941" lon="115.743151">
<time>2016-10-06T08:21:47Z</time></trkpt>
<trkpt lat="22.945841" lon="115.742291">
<time>2016-10-06T08:21:48Z</time></trkpt>
<trkpt lat="22.945671" lon="115.740861">
<time>2016-10-06T08:21:49Z</time></trkpt>
<trkpt lat="22.945632" lon="115.740571">
<time>2016-10-06T08:21:50Z</time></trkpt>
<trkpt lat="22.945512" lon="115.73967">
<time>2016-10-06T08:21:51Z</time></trkpt>
<trkpt lat="22.945492" lon="115.73953">
<time>2016-10-06T08:21:52Z</time></trkpt>
<trkpt lat="22.945472" lon="115.73939">
<time>2016-10-06T08:21:53Z</time></trkpt>
<trkpt lat="22.945442" lon="115.73923">
<time>2016-10-06T08:21:54Z</time></trkpt>
<trkpt lat="22.945382" lon="115.73899">
<time>2016-10-06T08:21:55Z</time></trkpt>
<trkpt lat="22.945332" lon="115.7388">
<time>2016-10-06T08:21:56Z</time></trkpt>
<trkpt lat="22.945302" lon="115.73869">
<time>2016-10-06T08:21:57Z</time></trkpt>
<trkpt lat="22.945222" lon="115.73846">
<time>2016-10-06T08:21:58Z</time></trkpt>
<trkpt lat="22.945152" lon="115.73825">
<time>2016-10-06T08:21:59Z</time></trkpt>
<trkpt lat="22.944983" lon="115.73778">
<time>2016-10-06T08:22:00Z</time></trkpt>
<trkpt lat="22.944713" lon="115.73707">
<time>2016-10-06T08:22:01Z</time></trkpt>
<trkpt lat="22.944623" lon="115.73684">
<time>2016-10-06T08:22:02Z</time></trkpt>
<trkpt lat="22.944473" lon="115.73646">
<time>2016-10-06T08:22:03Z</time></trkpt>
<trkpt lat="22.944343" lon="115.73614">
<time>2016-10-06T08:22:04Z</time></trkpt>
<trkpt lat="22.944184" lon="115.73577">
<time>2016-10-06T08:22:05Z</time></trkpt>
<trkpt lat="22.944124" lon="115.73564">
<time>2016-10-06T08:22:06Z</time></trkpt>
<trkpt lat="22.944044" lon="115.73546">
<time>2016-10-06T08:22:07Z</time></trkpt>
<trkpt lat="22.943954" lon="115.73527">
<time>2016-10-06T08:22:08Z</time></trkpt>
<trkpt lat="22.943844" lon="115.73505">
<time>2016-10-06T08:22:09Z</time></trkpt>
<trkpt lat="22.943764" lon="115.73489">
<time>2016-10-06T08:22:10Z</time></trkpt>
<trkpt lat="22.943634" lon="115.73465">
<time>2016-10-06T08:22:11Z</time></trkpt>
<trkpt lat="22.943534" lon="115.73448">
<time>2016-10-06T08:22:12Z</time></trkpt>
<trkpt lat="22.943095" lon="115.733751">
<time>2016-10-06T08:22:13Z</time></trkpt>
<trkpt lat="22.942565" lon="115.732871">
<time>2016-10-06T08:22:14Z</time></trkpt>
<trkpt lat="22.942336" lon="115.732481">
<time>2016-10-06T08:22:15Z</time></trkpt>
<trkpt lat="22.942146" lon="115.732151">
<time>2016-10-06T08:22:16Z</time></trkpt>
<trkpt lat="22.942036" lon="115.731941">
<time>2016-10-06T08:22:17Z</time></trkpt>
<trkpt lat="22.941956" lon="115.731801">
<time>2016-10-06T08:22:18Z</time></trkpt>
<trkpt lat="22.941876" lon="115.731621">
<time>2016-10-06T08:22:19Z</time></trkpt>
<trkpt lat="22.941786" lon="115.731431">
<time>2016-10-06T08:22:20Z</time></trkpt>
<trkpt lat="22.941677" lon="115.731161">
<time>2016-10-06T08:22:21Z</time></trkpt>
<trkpt lat="22.941587" lon="115.730901">
<time>2016-10-06T08:22:22Z</time></trkpt>
<trkpt lat="22.941527" lon="115.730731">
<time>2016-10-06T08:22:23Z</time></trkpt>
<trkpt lat="22.941477" lon="115.730591">
<time>2016-10-06T08:22:24Z</time></trkpt>
<trkpt lat="22.941427" lon="115.730391">
<time>2016-10-06T08:22:25Z</time></trkpt>
<trkpt lat="22.941397" lon="115.730281">
<time>2016-10-06T08:22:26Z</time></trkpt>
<trkpt lat="22.941377" lon="115.730161">
<time>2016-10-06T08:22:27Z</time></trkpt>
<trkpt lat="22.941357" lon="115.730031">
<time>2016-10-06T08:22:28Z</time></trkpt>
<trkpt lat="22.941338" lon="115.729901">
<time>2016-10-06T08:22:29Z</time></trkpt>
<trkpt lat="22.941338" lon="115.729792">
<time>2016-10-06T08:22:30Z</time></trkpt>
<trkpt lat="22.941338" lon="115.729702">
<time>2016-10-06T08:22:31Z</time></trkpt>
<trkpt lat="22.941338" lon="115.729592">
<time>2016-10-06T08:22:32Z</time></trkpt>
<trkpt lat="22.941358" lon="115.729312">
<time>2016-10-06T08:22:33Z</time></trkpt>
<trkpt lat="22.941388" lon="115.729002">
<time>2016-10-06T08:22:34Z</time></trkpt>
<trkpt lat="22.941458" lon="115.728392">
<time>2016-10-06T08:22:35Z</time></trkpt>
<trkpt lat="22.941559" lon="115.727672">
<time>2016-10-06T08:22:36Z</time></trkpt>
<trkpt lat="22.941639" lon="115.727182">
<time>2016-10-06T08:22:37Z</time></trkpt>
<trkpt lat="22.941739" lon="115.726653">
<time>2016-10-06T08:22:38Z</time></trkpt>
<trkpt lat="22.94189" lon="115.725793">
<time>2016-10-06T08:22:39Z</time></trkpt>
<trkpt lat="22.94194" lon="115.725443">
<time>2016-10-06T08:22:40Z</time></trkpt>
<trkpt lat="22.94201" lon="115.725093">
<time>2016-10-06T08:22:41Z</time></trkpt>
<trkpt lat="22.942111" lon="115.724643">
<time>2016-10-06T08:22:42Z</time></trkpt>
<trkpt lat="22.942181" lon="115.724304">
<time>2016-10-06T08:22:43Z</time></trkpt>
<trkpt lat="22.942442" lon="115.723094">
<time>2016-10-06T08:22:44Z</time></trkpt>
<trkpt lat="22.942793" lon="115.721445">
<time>2016-10-06T08:22:45Z</time></trkpt>
<trkpt lat="22.943094" lon="115.720086">
<time>2016-10-06T08:22:46Z</time></trkpt>
<trkpt lat="22.943365" lon="115.718807">
<time>2016-10-06T08:22:47Z</time></trkpt>
<trkpt lat="22.943526" lon="115.718057">
<time>2016-10-06T08:22:48Z</time></trkpt>
<trkpt lat="22.943636" lon="115.717548">
<time>2016-10-06T08:22:49Z</time></trkpt>
<trkpt lat="22.943777" lon="115.716858">
<time>2016-10-06T08:22:50Z</time></trkpt>
<trkpt lat="22.943968" lon="115.715919">
<time>2016-10-06T08:22:51Z</time></trkpt>
<trkpt lat="22.944008" lon="115.715719">
<time>2016-10-06T08:22:52Z</time></trkpt>
<trkpt lat="22.944099" lon="115.715329">
<time>2016-10-06T08:22:53Z</time></trkpt>
<trkpt lat="22.944179" lon="115.71493">
<time>2016-10-06T08:22:54Z</time></trkpt>
<trkpt lat="22.944209" lon="115.71476">
<time>2016-10-06T08:22:55Z</time></trkpt>
<trkpt lat="22.944239" lon="115.71459">
<time>2016-10-06T08:22:56Z</time></trkpt>
<trkpt lat="22.9443" lon="115.71423">
<time>2016-10-06T08:22:57Z</time></trkpt>
<trkpt lat="22.94435" lon="115.713941">
<time>2016-10-06T08:22:58Z</time></trkpt>
<trkpt lat="22.94441" lon="115.713611">
<time>2016-10-06T08:22:59Z</time></trkpt>
<trkpt lat="22.944491" lon="115.713161">
<time>2016-10-06T08:23:00Z</time></trkpt>
<trkpt lat="22.944622" lon="115.712422">
<time>2016-10-06T08:23:01Z</time></trkpt>
<trkpt lat="22.944702" lon="115.712032">
<time>2016-10-06T08:23:02Z</time></trkpt>
<trkpt lat="22.944873" lon="115.711093">
<time>2016-10-06T08:23:03Z</time></trkpt>
<trkpt lat="22.944974" lon="115.710584">
<time>2016-10-06T08:23:04Z</time></trkpt>
<trkpt lat="22.945074" lon="115.710044">
<time>2016-10-06T08:23:05Z</time></trkpt>
<trkpt lat="22.945235" lon="115.709125">
<time>2016-10-06T08:23:06Z</time></trkpt>
<trkpt lat="22.945467" lon="115.707537">
<time>2016-10-06T08:23:07Z</time></trkpt>
<trkpt lat="22.945518" lon="115.707277">
<time>2016-10-06T08:23:08Z</time></trkpt>
<trkpt lat="22.945568" lon="115.706957">
<time>2016-10-06T08:23:09Z</time></trkpt>
<trkpt lat="22.945649" lon="115.706598">
<time>2016-10-06T08:23:10Z</time></trkpt>
<trkpt lat="22.945739" lon="115.706188">
<time>2016-10-06T08:23:11Z</time></trkpt>
<trkpt lat="22.945819" lon="115.705879">
<time>2016-10-06T08:23:12Z</time></trkpt>
<trkpt lat="22.94594" lon="115.705449">
<time>2016-10-06T08:23:13Z</time></trkpt>
<trkpt lat="22.946322" lon="115.704141">
<time>2016-10-06T08:23:14Z</time></trkpt>
<trkpt lat="22.946392" lon="115.703881">
<time>2016-10-06T08:23:15Z</time></trkpt>
<trkpt lat="22.946462" lon="115.703591">
<time>2016-10-06T08:23:16Z</time></trkpt>
<trkpt lat="22.946663" lon="115.702772">
<time>2016-10-06T08:23:17Z</time></trkpt>
<trkpt lat="22.946895" lon="115.701803">
<time>2016-10-06T08:23:18Z</time></trkpt>
<trkpt lat="22.947015" lon="115.701334">
<time>2016-10-06T08:23:19Z</time></trkpt>
<trkpt lat="22.947116" lon="115.700975">
<time>2016-10-06T08:23:20Z</time></trkpt>
<trkpt lat="22.947327" lon="115.700136">
<time>2016-10-06T08:23:21Z</time></trkpt>
<trkpt lat="22.947448" lon="115.699656">
<time>2016-10-06T08:23:22Z</time></trkpt>
<trkpt lat="22.94795" lon="115.697699">
<time>2016-10-06T08:23:23Z</time></trkpt>
<trkpt lat="22.948031" lon="115.697369">
<time>2016-10-06T08:23:24Z</time></trkpt>
<trkpt lat="22.948121" lon="115.69704">
<time>2016-10-06T08:23:25Z</time></trkpt>
<trkpt lat="22.948322" lon="115.696411">
<time>2016-10-06T08:23:26Z</time></trkpt>
<trkpt lat="22.948453" lon="115.696011">
<time>2016-10-06T08:23:27Z</time></trkpt>
<trkpt lat="22.948604" lon="115.695602">
<time>2016-10-06T08:23:28Z</time></trkpt>
<trkpt lat="22.948754" lon="115.695212">
<time>2016-10-06T08:23:29Z</time></trkpt>
<trkpt lat="22.948955" lon="115.694653">
<time>2016-10-06T08:23:30Z</time></trkpt>
<trkpt lat="22.949176" lon="115.694054">
<time>2016-10-06T08:23:31Z</time></trkpt>
<trkpt lat="22.949377" lon="115.693515">
<time>2016-10-06T08:23:32Z</time></trkpt>
<trkpt lat="22.949437" lon="115.693345">
<time>2016-10-06T08:23:33Z</time></trkpt>
<trkpt lat="22.949497" lon="115.693175">
<time>2016-10-06T08:23:34Z</time></trkpt>
<trkpt lat="22.949537" lon="115.693025">
<time>2016-10-06T08:23:35Z</time></trkpt>
<trkpt lat="22.949568" lon="115.692895">
<time>2016-10-06T08:23:36Z</time></trkpt>
<trkpt lat="22.949598" lon="115.692776">
<time>2016-10-06T08:23:37Z</time></trkpt>
<trkpt lat="22.949628" lon="115.692586">
<time>2016-10-06T08:23:38Z</time></trkpt>
<trkpt lat="22.949658" lon="115.692396">
<time>2016-10-06T08:23:39Z</time></trkpt>
<trkpt lat="22.949679" lon="115.692187">
<time>2016-10-06T08:23:40Z</time></trkpt>
<trkpt lat="22.949699" lon="115.691897">
<time>2016-10-06T08:23:41Z</time></trkpt>
<trkpt lat="22.94972" lon="115.691198">
<time>2016-10-06T08:23:42Z</time></trkpt>
<trkpt lat="22.949742" lon="115.690459">
<time>2016-10-06T08:23:43Z</time></trkpt>
<trkpt lat="22.949742" lon="115.69003">
<time>2016-10-06T08:23:44Z</time></trkpt>
<trkpt lat="22.949743" lon="115.68975">
<time>2016-10-06T08:23:45Z</time></trkpt>
<trkpt lat="22.949714" lon="115.689151">
<time>2016-10-06T08:23:46Z</time></trkpt>
<trkpt lat="22.949675" lon="115.688672">
<time>2016-10-06T08:23:47Z</time></trkpt>
<trkpt lat="22.949655" lon="115.688492">
<time>2016-10-06T08:23:48Z</time></trkpt>
<trkpt lat="22.949596" lon="115.687893">
<time>2016-10-06T08:23:49Z</time></trkpt>
<trkpt lat="22.949557" lon="115.687584">
<time>2016-10-06T08:23:50Z</time></trkpt>
<trkpt lat="22.949517" lon="115.687274">
<time>2016-10-06T08:23:51Z</time></trkpt>
<trkpt lat="22.949478" lon="115.687004">
<time>2016-10-06T08:23:52Z</time></trkpt>
<trkpt lat="22.949399" lon="115.686545">
<time>2016-10-06T08:23:53Z</time></trkpt>
<trkpt lat="22.94922" lon="115.685477">
<time>2016-10-06T08:23:54Z</time></trkpt>
<trkpt lat="22.949072" lon="115.684668">
<time>2016-10-06T08:23:55Z</time></trkpt>
<trkpt lat="22.949023" lon="115.684369">
<time>2016-10-06T08:23:56Z</time></trkpt>
<trkpt lat="22.948993" lon="115.684129">
<time>2016-10-06T08:23:57Z</time></trkpt>
<trkpt lat="22.948963" lon="115.68387">
<time>2016-10-06T08:23:58Z</time></trkpt>
<trkpt lat="22.948944" lon="115.68346">
<time>2016-10-06T08:23:59Z</time></trkpt>
<trkpt lat="22.948935" lon="115.682961">
<time>2016-10-06T08:24:00Z</time></trkpt>
<trkpt lat="22.948936" lon="115.682472">
<time>2016-10-06T08:24:01Z</time></trkpt>
<trkpt lat="22.948957" lon="115.681973">
<time>2016-10-06T08:24:02Z</time></trkpt>
<trkpt lat="22.948967" lon="115.681673">
<time>2016-10-06T08:24:03Z</time></trkpt>
<trkpt lat="22.948988" lon="115.681424">
<time>2016-10-06T08:24:04Z</time></trkpt>
<trkpt lat="22.949019" lon="115.681094">
<time>2016-10-06T08:24:05Z</time></trkpt>
<trkpt lat="22.949059" lon="115.680755">
<time>2016-10-06T08:24:06Z</time></trkpt>
<trkpt lat="22.94911" lon="115.680365">
<time>2016-10-06T08:24:07Z</time></trkpt>
<trkpt lat="22.949312" lon="115.678878">
<time>2016-10-06T08:24:08Z</time></trkpt>
<trkpt lat="22.949343" lon="115.678628">
<time>2016-10-06T08:24:09Z</time></trkpt>
<trkpt lat="22.949374" lon="115.678319">
<time>2016-10-06T08:24:10Z</time></trkpt>
<trkpt lat="22.949424" lon="115.67785">
<time>2016-10-06T08:24:11Z</time></trkpt>
<trkpt lat="22.949445" lon="115.67752">
<time>2016-10-06T08:24:12Z</time></trkpt>
<trkpt lat="22.949466" lon="115.677121">
<time>2016-10-06T08:24:13Z</time></trkpt>
<trkpt lat="22.949487" lon="115.676672">
<time>2016-10-06T08:24:14Z</time></trkpt>
<trkpt lat="22.949507" lon="115.676272">
<time>2016-10-06T08:24:15Z</time></trkpt>
<trkpt lat="22.949528" lon="115.675873">
<time>2016-10-06T08:24:16Z</time></trkpt>
<trkpt lat="22.949569" lon="115.675184">
<time>2016-10-06T08:24:17Z</time></trkpt>
<trkpt lat="22.949611" lon="115.674326">
<time>2016-10-06T08:24:18Z</time></trkpt>
<trkpt lat="22.949653" lon="115.673407">
<time>2016-10-06T08:24:19Z</time></trkpt>
<trkpt lat="22.949725" lon="115.67203">
<time>2016-10-06T08:24:20Z</time></trkpt>
<trkpt lat="22.949756" lon="115.671521">
<time>2016-10-06T08:24:21Z</time></trkpt>
<trkpt lat="22.949788" lon="115.670592">
<time>2016-10-06T08:24:22Z</time></trkpt>
<trkpt lat="22.949789" lon="115.669893">
<time>2016-10-06T08:24:23Z</time></trkpt>
<trkpt lat="22.94978" lon="115.669474">
<time>2016-10-06T08:24:24Z</time></trkpt>
<trkpt lat="22.949761" lon="115.669175">
<time>2016-10-06T08:24:25Z</time></trkpt>
<trkpt lat="22.949732" lon="115.668735">
<time>2016-10-06T08:24:26Z</time></trkpt>
<trkpt lat="22.949712" lon="115.668416">
<time>2016-10-06T08:24:27Z</time></trkpt>
<trkpt lat="22.949545" lon="115.666699">
<time>2016-10-06T08:24:28Z</time></trkpt>
<trkpt lat="22.949516" lon="115.666469">
<time>2016-10-06T08:24:29Z</time></trkpt>
<trkpt lat="22.949496" lon="115.66624">
<time>2016-10-06T08:24:30Z</time></trkpt>
<trkpt lat="22.949457" lon="115.66598">
<time>2016-10-06T08:24:31Z</time></trkpt>
<trkpt lat="22.949427" lon="115.665741">
<time>2016-10-06T08:24:32Z</time></trkpt>
<trkpt lat="22.949368" lon="115.665242">
<time>2016-10-06T08:24:33Z</time></trkpt>
<trkpt lat="22.9493" lon="115.664543">
<time>2016-10-06T08:24:34Z</time></trkpt>
<trkpt lat="22.949261" lon="115.664114">
<time>2016-10-06T08:24:35Z</time></trkpt>
<trkpt lat="22.949231" lon="115.663634">
<time>2016-10-06T08:24:36Z</time></trkpt>
<trkpt lat="22.949212" lon="115.663245">
<time>2016-10-06T08:24:37Z</time></trkpt>
<trkpt lat="22.949203" lon="115.662906">
<time>2016-10-06T08:24:38Z</time></trkpt>
<trkpt lat="22.949193" lon="115.662766">
<time>2016-10-06T08:24:39Z</time></trkpt>
<trkpt lat="22.949174" lon="115.662536">
<time>2016-10-06T08:24:40Z</time></trkpt>
<trkpt lat="22.949164" lon="115.662427">
<time>2016-10-06T08:24:41Z</time></trkpt>
<trkpt lat="22.949164" lon="115.662327">
<time>2016-10-06T08:24:42Z</time></trkpt>
<trkpt lat="22.949164" lon="115.662217">
<time>2016-10-06T08:24:43Z</time></trkpt>
<trkpt lat="22.949164" lon="115.662217">
<time>2016-10-06T08:24:44Z</time></trkpt>
<trkpt lat="22.949087" lon="115.66069">
<time>2016-10-06T08:24:45Z</time></trkpt>
<trkpt lat="22.949049" lon="115.659482">
<time>2016-10-06T08:24:46Z</time></trkpt>
<trkpt lat="22.949013" lon="115.657585">
<time>2016-10-06T08:24:47Z</time></trkpt>
<trkpt lat="22.948977" lon="115.655698">
<time>2016-10-06T08:24:48Z</time></trkpt>
<trkpt lat="22.948949" lon="115.654201">
<time>2016-10-06T08:24:49Z</time></trkpt>
<trkpt lat="22.94894" lon="115.654051">
<time>2016-10-06T08:24:50Z</time></trkpt>
<trkpt lat="22.948913" lon="115.652384">
<time>2016-10-06T08:24:51Z</time></trkpt>
<trkpt lat="22.948903" lon="115.652214">
<time>2016-10-06T08:24:52Z</time></trkpt>
<trkpt lat="22.948866" lon="115.650517">
<time>2016-10-06T08:24:53Z</time></trkpt>
<trkpt lat="22.948867" lon="115.650267">
<time>2016-10-06T08:24:54Z</time></trkpt>
<trkpt lat="22.948867" lon="115.650248">
<time>2016-10-06T08:24:55Z</time></trkpt>
<trkpt lat="22.948897" lon="115.650058">
<time>2016-10-06T08:24:56Z</time></trkpt>
<trkpt lat="22.948937" lon="115.649868">
<time>2016-10-06T08:24:57Z</time></trkpt>
<trkpt lat="22.949048" lon="115.649688">
<time>2016-10-06T08:24:58Z</time></trkpt>
<trkpt lat="22.949108" lon="115.649619">
<time>2016-10-06T08:24:59Z</time></trkpt>
<trkpt lat="22.949238" lon="115.649489">
<time>2016-10-06T08:25:00Z</time></trkpt>
<trkpt lat="22.949398" lon="115.649359">
<time>2016-10-06T08:25:01Z</time></trkpt>
<trkpt lat="22.949678" lon="115.649139">
<time>2016-10-06T08:25:02Z</time></trkpt>
<trkpt lat="22.949939" lon="115.64893">
<time>2016-10-06T08:25:03Z</time></trkpt>
<trkpt lat="22.950239" lon="115.64869">
<time>2016-10-06T08:25:04Z</time></trkpt>
<trkpt lat="22.950369" lon="115.64856">
<time>2016-10-06T08:25:05Z</time></trkpt>
<trkpt lat="22.950549" lon="115.648351">
<time>2016-10-06T08:25:06Z</time></trkpt>
<trkpt lat="22.95086" lon="115.647991">
<time>2016-10-06T08:25:07Z</time></trkpt>
<trkpt lat="22.95086" lon="115.647991">
<time>2016-10-06T08:25:08Z</time></trkpt>
<trkpt lat="22.95093" lon="115.647712">
<time>2016-10-06T08:25:09Z</time></trkpt>
<trkpt lat="22.950872" lon="115.646973">
<time>2016-10-06T08:25:10Z</time></trkpt>
<trkpt lat="22.950774" lon="115.645815">
<time>2016-10-06T08:25:11Z</time></trkpt>
<trkpt lat="22.950775" lon="115.645305">
<time>2016-10-06T08:25:12Z</time></trkpt>
<trkpt lat="22.950825" lon="115.644966">
<time>2016-10-06T08:25:13Z</time></trkpt>
<trkpt lat="22.950885" lon="115.644706">
<time>2016-10-06T08:25:14Z</time></trkpt>
<trkpt lat="22.950966" lon="115.644497">
<time>2016-10-06T08:25:15Z</time></trkpt>
<trkpt lat="22.950986" lon="115.644467">
<time>2016-10-06T08:25:16Z</time></trkpt>
<trkpt lat="22.951236" lon="115.644057">
<time>2016-10-06T08:25:17Z</time></trkpt>
<trkpt lat="22.951657" lon="115.643608">
<time>2016-10-06T08:25:18Z</time></trkpt>
<trkpt lat="22.951697" lon="115.643568">
<time>2016-10-06T08:25:19Z</time></trkpt>
<trkpt lat="22.952198" lon="115.643099">
<time>2016-10-06T08:25:20Z</time></trkpt>
<trkpt lat="22.952198" lon="115.643099">
<time>2016-10-06T08:25:21Z</time></trkpt>
<trkpt lat="22.952318" lon="115.642959">
<time>2016-10-06T08:25:22Z</time></trkpt>
<trkpt lat="22.953119" lon="115.64218">
<time>2016-10-06T08:25:23Z</time></trkpt>
<trkpt lat="22.95373" lon="115.641591">
<time>2016-10-06T08:25:24Z</time></trkpt>
<trkpt lat="22.95388" lon="115.641461">
<time>2016-10-06T08:25:25Z</time></trkpt>
<trkpt lat="22.954661" lon="115.640712">
<time>2016-10-06T08:25:26Z</time></trkpt>
<trkpt lat="22.954841" lon="115.640512">
<time>2016-10-06T08:25:27Z</time></trkpt>
<trkpt lat="22.954991" lon="115.640413">
<time>2016-10-06T08:25:28Z</time></trkpt>
<trkpt lat="22.954991" lon="115.640413">
<time>2016-10-06T08:25:29Z</time></trkpt>
<trkpt lat="22.955011" lon="115.640203">
<time>2016-10-06T08:25:30Z</time></trkpt>
<trkpt lat="22.955133" lon="115.639065">
<time>2016-10-06T08:25:31Z</time></trkpt>
<trkpt lat="22.955194" lon="115.638515">
<time>2016-10-06T08:25:32Z</time></trkpt>
<trkpt lat="22.955265" lon="115.637776">
<time>2016-10-06T08:25:33Z</time></trkpt>
<trkpt lat="22.955326" lon="115.636978">
<time>2016-10-06T08:25:34Z</time></trkpt>
<trkpt lat="22.955357" lon="115.636398">
<time>2016-10-06T08:25:35Z</time></trkpt>
<trkpt lat="22.955399" lon="115.63529">
<time>2016-10-06T08:25:36Z</time></trkpt>
<trkpt lat="22.955441" lon="115.633942">
<time>2016-10-06T08:25:37Z</time></trkpt>
<trkpt lat="22.955472" lon="115.633143">
<time>2016-10-06T08:25:38Z</time></trkpt>
<trkpt lat="22.955534" lon="115.631635">
<time>2016-10-06T08:25:39Z</time></trkpt>
<trkpt lat="22.955545" lon="115.631115">
<time>2016-10-06T08:25:40Z</time></trkpt>
<trkpt lat="22.955576" lon="115.630516">
<time>2016-10-06T08:25:41Z</time></trkpt>
<trkpt lat="22.955596" lon="115.629927">
<time>2016-10-06T08:25:42Z</time></trkpt>
<trkpt lat="22.955618" lon="115.629098">
<time>2016-10-06T08:25:43Z</time></trkpt>
<trkpt lat="22.955649" lon="115.628389">
<time>2016-10-06T08:25:44Z</time></trkpt>
<trkpt lat="22.955659" lon="115.628099">
<time>2016-10-06T08:25:45Z</time></trkpt>
<trkpt lat="22.955669" lon="115.627819">
<time>2016-10-06T08:25:46Z</time></trkpt>
<trkpt lat="22.955701" lon="115.626421">
<time>2016-10-06T08:25:47Z</time></trkpt>
<trkpt lat="22.955701" lon="115.626071">
<time>2016-10-06T08:25:48Z</time></trkpt>
<trkpt lat="22.955702" lon="115.626011">
<time>2016-10-06T08:25:49Z</time></trkpt>
<trkpt lat="22.955712" lon="115.625722">
<time>2016-10-06T08:25:50Z</time></trkpt>
<trkpt lat="22.955712" lon="115.625412">
<time>2016-10-06T08:25:51Z</time></trkpt>
<trkpt lat="22.955713" lon="115.624992">
<time>2016-10-06T08:25:52Z</time></trkpt>
<trkpt lat="22.955713" lon="115.624583">
<time>2016-10-06T08:25:53Z</time></trkpt>
<trkpt lat="22.955714" lon="115.624013">
<time>2016-10-06T08:25:54Z</time></trkpt>
<trkpt lat="22.955725" lon="115.623134">
<time>2016-10-06T08:25:55Z</time></trkpt>
<trkpt lat="22.955725" lon="115.622825">
<time>2016-10-06T08:25:56Z</time></trkpt>
<trkpt lat="22.955736" lon="115.622345">
<time>2016-10-06T08:25:57Z</time></trkpt>
<trkpt lat="22.955736" lon="115.621945">
<time>2016-10-06T08:25:58Z</time></trkpt>
<trkpt lat="22.955757" lon="115.621296">
<time>2016-10-06T08:25:59Z</time></trkpt>
<trkpt lat="22.955767" lon="115.621286">
<time>2016-10-06T08:26:00Z</time></trkpt>
<trkpt lat="22.955777" lon="115.620996">
<time>2016-10-06T08:26:01Z</time></trkpt>
<trkpt lat="22.955788" lon="115.620587">
<time>2016-10-06T08:26:02Z</time></trkpt>
<trkpt lat="22.955808" lon="115.620077">
<time>2016-10-06T08:26:03Z</time></trkpt>
<trkpt lat="22.955849" lon="115.619588">
<time>2016-10-06T08:26:04Z</time></trkpt>
<trkpt lat="22.955879" lon="115.619118">
<time>2016-10-06T08:26:05Z</time></trkpt>
<trkpt lat="22.9559" lon="115.618718">
<time>2016-10-06T08:26:06Z</time></trkpt>
<trkpt lat="22.95593" lon="115.618249">
<time>2016-10-06T08:26:07Z</time></trkpt>
<trkpt lat="22.955951" lon="115.617939">
<time>2016-10-06T08:26:08Z</time></trkpt>
<trkpt lat="22.955981" lon="115.617379">
<time>2016-10-06T08:26:09Z</time></trkpt>
<trkpt lat="22.956022" lon="115.61678">
<time>2016-10-06T08:26:10Z</time></trkpt>
<trkpt lat="22.956062" lon="115.6162">
<time>2016-10-06T08:26:11Z</time></trkpt>
<trkpt lat="22.956103" lon="115.615491">
<time>2016-10-06T08:26:12Z</time></trkpt>
<trkpt lat="22.956133" lon="115.615091">
<time>2016-10-06T08:26:13Z</time></trkpt>
<trkpt lat="22.956113" lon="115.615021">
<time>2016-10-06T08:26:14Z</time></trkpt>
<trkpt lat="22.956184" lon="115.613552">
<time>2016-10-06T08:26:15Z</time></trkpt>
<trkpt lat="22.956235" lon="115.612453">
<time>2016-10-06T08:26:16Z</time></trkpt>
<trkpt lat="22.956256" lon="115.611933">
<time>2016-10-06T08:26:17Z</time></trkpt>
<trkpt lat="22.956256" lon="115.611433">
<time>2016-10-06T08:26:18Z</time></trkpt>
<trkpt lat="22.956276" lon="115.611144">
<time>2016-10-06T08:26:19Z</time></trkpt>
<trkpt lat="22.956267" lon="115.610354">
<time>2016-10-06T08:26:20Z</time></trkpt>
<trkpt lat="22.956277" lon="115.609824">
<time>2016-10-06T08:26:21Z</time></trkpt>
<trkpt lat="22.956298" lon="115.608625">
<time>2016-10-06T08:26:22Z</time></trkpt>
<trkpt lat="22.956309" lon="115.607645">
<time>2016-10-06T08:26:23Z</time></trkpt>
<trkpt lat="22.956339" lon="115.606776">
<time>2016-10-06T08:26:24Z</time></trkpt>
<trkpt lat="22.95637" lon="115.605896">
<time>2016-10-06T08:26:25Z</time></trkpt>
<trkpt lat="22.95639" lon="115.605286">
<time>2016-10-06T08:26:26Z</time></trkpt>
<trkpt lat="22.95643" lon="115.604706">
<time>2016-10-06T08:26:27Z</time></trkpt>
<trkpt lat="22.95643" lon="115.604516">
<time>2016-10-06T08:26:28Z</time></trkpt>
<trkpt lat="22.956451" lon="115.603867">
<time>2016-10-06T08:26:29Z</time></trkpt>
<trkpt lat="22.956471" lon="115.603127">
<time>2016-10-06T08:26:30Z</time></trkpt>
<trkpt lat="22.956481" lon="115.602877">
<time>2016-10-06T08:26:31Z</time></trkpt>
<trkpt lat="22.956511" lon="115.602317">
<time>2016-10-06T08:26:32Z</time></trkpt>
<trkpt lat="22.956551" lon="115.601597">
<time>2016-10-06T08:26:33Z</time></trkpt>
<trkpt lat="22.956592" lon="115.600807">
<time>2016-10-06T08:26:34Z</time></trkpt>
<trkpt lat="22.956602" lon="115.600177">
<time>2016-10-06T08:26:35Z</time></trkpt>
<trkpt lat="22.956662" lon="115.599127">
<time>2016-10-06T08:26:36Z</time></trkpt>
<trkpt lat="22.956692" lon="115.598497">
<time>2016-10-06T08:26:37Z</time></trkpt>
<trkpt lat="22.956692" lon="115.598117">
<time>2016-10-06T08:26:38Z</time></trkpt>
<trkpt lat="22.956703" lon="115.597527">
<time>2016-10-06T08:26:39Z</time></trkpt>
<trkpt lat="22.956653" lon="115.595727">
<time>2016-10-06T08:26:40Z</time></trkpt>
<trkpt lat="22.956553" lon="115.594287">
<time>2016-10-06T08:26:41Z</time></trkpt>
<trkpt lat="22.956523" lon="115.593877">
<time>2016-10-06T08:26:42Z</time></trkpt>
<trkpt lat="22.956513" lon="115.593707">
<time>2016-10-06T08:26:43Z</time></trkpt>
<trkpt lat="22.956483" lon="115.593447">
<time>2016-10-06T08:26:44Z</time></trkpt>
<trkpt lat="22.956403" lon="115.592827">
<time>2016-10-06T08:26:45Z</time></trkpt>
<trkpt lat="22.956313" lon="115.592116">
<time>2016-10-06T08:26:46Z</time></trkpt>
<trkpt lat="22.956263" lon="115.591756">
<time>2016-10-06T08:26:47Z</time></trkpt>
<trkpt lat="22.956143" lon="115.590946">
<time>2016-10-06T08:26:48Z</time></trkpt>
<trkpt lat="22.955923" lon="115.589536">
<time>2016-10-06T08:26:49Z</time></trkpt>
<trkpt lat="22.955813" lon="115.588805">
<time>2016-10-06T08:26:50Z</time></trkpt>
<trkpt lat="22.955633" lon="115.587605">
<time>2016-10-06T08:26:51Z</time></trkpt>
<trkpt lat="22.955523" lon="115.586894">
<time>2016-10-06T08:26:52Z</time></trkpt>
<trkpt lat="22.955412" lon="115.586204">
<time>2016-10-06T08:26:53Z</time></trkpt>
<trkpt lat="22.955292" lon="115.585423">
<time>2016-10-06T08:26:54Z</time></trkpt>
<trkpt lat="22.955022" lon="115.583602">
<time>2016-10-06T08:26:55Z</time></trkpt>
<trkpt lat="22.954841" lon="115.582361">
<time>2016-10-06T08:26:56Z</time></trkpt>
<trkpt lat="22.954701" lon="115.581321">
<time>2016-10-06T08:26:57Z</time></trkpt>
<trkpt lat="22.95463" lon="115.5808">
<time>2016-10-06T08:26:58Z</time></trkpt>
<trkpt lat="22.95454" lon="115.58018">
<time>2016-10-06T08:26:59Z</time></trkpt>
<trkpt lat="22.95446" lon="115.579689">
<time>2016-10-06T08:27:00Z</time></trkpt>
<trkpt lat="22.95439" lon="115.579199">
<time>2016-10-06T08:27:01Z</time></trkpt>
<trkpt lat="22.954339" lon="115.578829">
<time>2016-10-06T08:27:02Z</time></trkpt>
<trkpt lat="22.954249" lon="115.578298">
<time>2016-10-06T08:27:03Z</time></trkpt>
<trkpt lat="22.954169" lon="115.577748">
<time>2016-10-06T08:27:04Z</time></trkpt>
<trkpt lat="22.954008" lon="115.576707">
<time>2016-10-06T08:27:05Z</time></trkpt>
<trkpt lat="22.953837" lon="115.575585">
<time>2016-10-06T08:27:06Z</time></trkpt>
<trkpt lat="22.953827" lon="115.575515">
<time>2016-10-06T08:27:07Z</time></trkpt>
<trkpt lat="22.953817" lon="115.575415">
<time>2016-10-06T08:27:08Z</time></trkpt>
<trkpt lat="22.953616" lon="115.574124">
<time>2016-10-06T08:27:09Z</time></trkpt>
<trkpt lat="22.953475" lon="115.573163">
<time>2016-10-06T08:27:10Z</time></trkpt>
<trkpt lat="22.953314" lon="115.572161">
<time>2016-10-06T08:27:11Z</time></trkpt>
<trkpt lat="22.953093" lon="115.57067">
<time>2016-10-06T08:27:12Z</time></trkpt>
<trkpt lat="22.952992" lon="115.570029">
<time>2016-10-06T08:27:13Z</time></trkpt>
<trkpt lat="22.952872" lon="115.569258">
<time>2016-10-06T08:27:14Z</time></trkpt>
<trkpt lat="22.9526" lon="115.567485">
<time>2016-10-06T08:27:15Z</time></trkpt>
<trkpt lat="22.952529" lon="115.566985">
<time>2016-10-06T08:27:16Z</time></trkpt>
<trkpt lat="22.952489" lon="115.566744">
<time>2016-10-06T08:27:17Z</time></trkpt>
<trkpt lat="22.952026" lon="115.56382">
<time>2016-10-06T08:27:18Z</time></trkpt>
<trkpt lat="22.951844" lon="115.562638">
<time>2016-10-06T08:27:19Z</time></trkpt>
<trkpt lat="22.951743" lon="115.562007">
<time>2016-10-06T08:27:20Z</time></trkpt>
<trkpt lat="22.951602" lon="115.561105">
<time>2016-10-06T08:27:21Z</time></trkpt>
<trkpt lat="22.951471" lon="115.560284">
<time>2016-10-06T08:27:22Z</time></trkpt>
<trkpt lat="22.951431" lon="115.560033">
<time>2016-10-06T08:27:23Z</time></trkpt>
<trkpt lat="22.95136" lon="115.559512">
<time>2016-10-06T08:27:24Z</time></trkpt>
<trkpt lat="22.951239" lon="115.558781">
<time>2016-10-06T08:27:25Z</time></trkpt>
<trkpt lat="22.951178" lon="115.55844">
<time>2016-10-06T08:27:26Z</time></trkpt>
<trkpt lat="22.951158" lon="115.55836">
<time>2016-10-06T08:27:27Z</time></trkpt>
<trkpt lat="22.951098" lon="115.557959">
<time>2016-10-06T08:27:28Z</time></trkpt>
<trkpt lat="22.951067" lon="115.557729">
<time>2016-10-06T08:27:29Z</time></trkpt>
<trkpt lat="22.950956" lon="115.557028">
<time>2016-10-06T08:27:30Z</time></trkpt>
<trkpt lat="22.950825" lon="115.556156">
<time>2016-10-06T08:27:31Z</time></trkpt>
<trkpt lat="22.950714" lon="115.555445">
<time>2016-10-06T08:27:32Z</time></trkpt>
<trkpt lat="22.950643" lon="115.555004">
<time>2016-10-06T08:27:33Z</time></trkpt>
<trkpt lat="22.950592" lon="115.554673">
<time>2016-10-06T08:27:34Z</time></trkpt>
<trkpt lat="22.950532" lon="115.554262">
<time>2016-10-06T08:27:35Z</time></trkpt>
<trkpt lat="22.950481" lon="115.553902">
<time>2016-10-06T08:27:36Z</time></trkpt>
<trkpt lat="22.950441" lon="115.553671">
<time>2016-10-06T08:27:37Z</time></trkpt>
<trkpt lat="22.950451" lon="115.553611">
<time>2016-10-06T08:27:38Z</time></trkpt>
<trkpt lat="22.950329" lon="115.552799">
<time>2016-10-06T08:27:39Z</time></trkpt>
<trkpt lat="22.950218" lon="115.552058">
<time>2016-10-06T08:27:40Z</time></trkpt>
<trkpt lat="22.950107" lon="115.551296">
<time>2016-10-06T08:27:41Z</time></trkpt>
<trkpt lat="22.949965" lon="115.550374">
<time>2016-10-06T08:27:42Z</time></trkpt>
<trkpt lat="22.949864" lon="115.549693">
<time>2016-10-06T08:27:43Z</time></trkpt>
<trkpt lat="22.949682" lon="115.54858">
<time>2016-10-06T08:27:44Z</time></trkpt>
<trkpt lat="22.949621" lon="115.548179">
<time>2016-10-06T08:27:45Z</time></trkpt>
<trkpt lat="22.94955" lon="115.547748">
<time>2016-10-06T08:27:46Z</time></trkpt>
<trkpt lat="22.94951" lon="115.547407">
<time>2016-10-06T08:27:47Z</time></trkpt>
<trkpt lat="22.949489" lon="115.547197">
<time>2016-10-06T08:27:48Z</time></trkpt>
<trkpt lat="22.949469" lon="115.546876">
<time>2016-10-06T08:27:49Z</time></trkpt>
<trkpt lat="22.949458" lon="115.546636">
<time>2016-10-06T08:27:50Z</time></trkpt>
<trkpt lat="22.949458" lon="115.546355">
<time>2016-10-06T08:27:51Z</time></trkpt>
<trkpt lat="22.949477" lon="115.546104">
<time>2016-10-06T08:27:52Z</time></trkpt>
<trkpt lat="22.949516" lon="115.545473">
<time>2016-10-06T08:27:53Z</time></trkpt>
<trkpt lat="22.949643" lon="115.543999">
<time>2016-10-06T08:27:54Z</time></trkpt>
<trkpt lat="22.949711" lon="115.543157">
<time>2016-10-06T08:27:55Z</time></trkpt>
<trkpt lat="22.949828" lon="115.541734">
<time>2016-10-06T08:27:56Z</time></trkpt>
<trkpt lat="22.950013" lon="115.539548">
<time>2016-10-06T08:27:57Z</time></trkpt>
<trkpt lat="22.95012" lon="115.538174">
<time>2016-10-06T08:27:58Z</time></trkpt>
<trkpt lat="22.950227" lon="115.536871">
<time>2016-10-06T08:27:59Z</time></trkpt>
<trkpt lat="22.950363" lon="115.535257">
<time>2016-10-06T08:28:00Z</time></trkpt>
<trkpt lat="22.950441" lon="115.534334">
<time>2016-10-06T08:28:01Z</time></trkpt>
<trkpt lat="22.950644" lon="115.531787">
<time>2016-10-06T08:28:02Z</time></trkpt>
<trkpt lat="22.950751" lon="115.530433">
<time>2016-10-06T08:28:03Z</time></trkpt>
<trkpt lat="22.950848" lon="115.52928">
<time>2016-10-06T08:28:04Z</time></trkpt>
<trkpt lat="22.951052" lon="115.526863">
<time>2016-10-06T08:28:05Z</time></trkpt>
<trkpt lat="22.951149" lon="115.525739">
<time>2016-10-06T08:28:06Z</time></trkpt>
<trkpt lat="22.951381" lon="115.52283">
<time>2016-10-06T08:28:07Z</time></trkpt>
<trkpt lat="22.95172" lon="115.518868">
<time>2016-10-06T08:28:08Z</time></trkpt>
<trkpt lat="22.951749" lon="115.518477">
<time>2016-10-06T08:28:09Z</time></trkpt>
<trkpt lat="22.951835" lon="115.517393">
<time>2016-10-06T08:28:10Z</time></trkpt>
<trkpt lat="22.951874" lon="115.516852">
<time>2016-10-06T08:28:11Z</time></trkpt>
<trkpt lat="22.951903" lon="115.51642">
<time>2016-10-06T08:28:12Z</time></trkpt>
<trkpt lat="22.951989" lon="115.515236">
<time>2016-10-06T08:28:13Z</time></trkpt>
<trkpt lat="22.952105" lon="115.513681">
<time>2016-10-06T08:28:14Z</time></trkpt>
<trkpt lat="22.952182" lon="115.512668">
<time>2016-10-06T08:28:15Z</time></trkpt>
<trkpt lat="22.952336" lon="115.510792">
<time>2016-10-06T08:28:16Z</time></trkpt>
<trkpt lat="22.952452" lon="115.509397">
<time>2016-10-06T08:28:17Z</time></trkpt>
<trkpt lat="22.95251" lon="115.508605">
<time>2016-10-06T08:28:18Z</time></trkpt>
<trkpt lat="22.952578" lon="115.507872">
<time>2016-10-06T08:28:19Z</time></trkpt>
<trkpt lat="22.952674" lon="115.506648">
<time>2016-10-06T08:28:20Z</time></trkpt>
<trkpt lat="22.952722" lon="115.506086">
<time>2016-10-06T08:28:21Z</time></trkpt>
<trkpt lat="22.952742" lon="115.505966">
<time>2016-10-06T08:28:22Z</time></trkpt>
<trkpt lat="22.952751" lon="115.505755">
<time>2016-10-06T08:28:23Z</time></trkpt>
<trkpt lat="22.952983" lon="115.502976">
<time>2016-10-06T08:28:24Z</time></trkpt>
<trkpt lat="22.953108" lon="115.501471">
<time>2016-10-06T08:28:25Z</time></trkpt>
<trkpt lat="22.953166" lon="115.500808">
<time>2016-10-06T08:28:26Z</time></trkpt>
<trkpt lat="22.953234" lon="115.500016">
<time>2016-10-06T08:28:27Z</time></trkpt>
<trkpt lat="22.953244" lon="115.499855">
<time>2016-10-06T08:28:28Z</time></trkpt>
<trkpt lat="22.953302" lon="115.499173">
<time>2016-10-06T08:28:29Z</time></trkpt>
<trkpt lat="22.953369" lon="115.49828">
<time>2016-10-06T08:28:30Z</time></trkpt>
<trkpt lat="22.953465" lon="115.497156">
<time>2016-10-06T08:28:31Z</time></trkpt>
<trkpt lat="22.953533" lon="115.496383">
<time>2016-10-06T08:28:32Z</time></trkpt>
<trkpt lat="22.953591" lon="115.495711">
<time>2016-10-06T08:28:33Z</time></trkpt>
<trkpt lat="22.953687" lon="115.494497">
<time>2016-10-06T08:28:34Z</time></trkpt>
<trkpt lat="22.953794" lon="115.493333">
<time>2016-10-06T08:28:35Z</time></trkpt>
<trkpt lat="22.95389" lon="115.492259">
<time>2016-10-06T08:28:36Z</time></trkpt>
<trkpt lat="22.953977" lon="115.491276">
<time>2016-10-06T08:28:37Z</time></trkpt>
<trkpt lat="22.954074" lon="115.490052">
<time>2016-10-06T08:28:38Z</time></trkpt>
<trkpt lat="22.954171" lon="115.489079">
<time>2016-10-06T08:28:39Z</time></trkpt>
<trkpt lat="22.954199" lon="115.488617">
<time>2016-10-06T08:28:40Z</time></trkpt>
<trkpt lat="22.954228" lon="115.488296">
<time>2016-10-06T08:28:41Z</time></trkpt>
<trkpt lat="22.954248" lon="115.488075">
<time>2016-10-06T08:28:42Z</time></trkpt>
<trkpt lat="22.954277" lon="115.487845">
<time>2016-10-06T08:28:43Z</time></trkpt>
<trkpt lat="22.954296" lon="115.487624">
<time>2016-10-06T08:28:44Z</time></trkpt>
<trkpt lat="22.954316" lon="115.487403">
<time>2016-10-06T08:28:45Z</time></trkpt>
<trkpt lat="22.954344" lon="115.486972">
<time>2016-10-06T08:28:46Z</time></trkpt>
<trkpt lat="22.954383" lon="115.48647">
<time>2016-10-06T08:28:47Z</time></trkpt>
<trkpt lat="22.954412" lon="115.486169">
<time>2016-10-06T08:28:48Z</time></trkpt>
<trkpt lat="22.95445" lon="115.485607">
<time>2016-10-06T08:28:49Z</time></trkpt>
<trkpt lat="22.954518" lon="115.484734">
<time>2016-10-06T08:28:50Z</time></trkpt>
<trkpt lat="22.954614" lon="115.48352">
<time>2016-10-06T08:28:51Z</time></trkpt>
<trkpt lat="22.954788" lon="115.481514">
<time>2016-10-06T08:28:52Z</time></trkpt>
<trkpt lat="22.954884" lon="115.480269">
<time>2016-10-06T08:28:53Z</time></trkpt>
<trkpt lat="22.954971" lon="115.479236">
<time>2016-10-06T08:28:54Z</time></trkpt>
<trkpt lat="22.955058" lon="115.478203">
<time>2016-10-06T08:28:55Z</time></trkpt>
<trkpt lat="22.955145" lon="115.477169">
<time>2016-10-06T08:28:56Z</time></trkpt>
<trkpt lat="22.955222" lon="115.476166">
<time>2016-10-06T08:28:57Z</time></trkpt>
<trkpt lat="22.9553" lon="115.475253">
<time>2016-10-06T08:28:58Z</time></trkpt>
<trkpt lat="22.955348" lon="115.474661">
<time>2016-10-06T08:28:59Z</time></trkpt>
<trkpt lat="22.955406" lon="115.473889">
<time>2016-10-06T08:29:00Z</time></trkpt>
<trkpt lat="22.955445" lon="115.473417">
<time>2016-10-06T08:29:01Z</time></trkpt>
<trkpt lat="22.955474" lon="115.473117">
<time>2016-10-06T08:29:02Z</time></trkpt>
<trkpt lat="22.955512" lon="115.472655">
<time>2016-10-06T08:29:03Z</time></trkpt>
<trkpt lat="22.955542" lon="115.472374">
<time>2016-10-06T08:29:04Z</time></trkpt>
<trkpt lat="22.955571" lon="115.472083">
<time>2016-10-06T08:29:05Z</time></trkpt>
<trkpt lat="22.95559" lon="115.471903">
<time>2016-10-06T08:29:06Z</time></trkpt>
<trkpt lat="22.95561" lon="115.471742">
<time>2016-10-06T08:29:07Z</time></trkpt>
<trkpt lat="22.955669" lon="115.471451">
<time>2016-10-06T08:29:08Z</time></trkpt>
<trkpt lat="22.955748" lon="115.4711">
<time>2016-10-06T08:29:09Z</time></trkpt>
<trkpt lat="22.955817" lon="115.470819">
<time>2016-10-06T08:29:10Z</time></trkpt>
<trkpt lat="22.955956" lon="115.470408">
<time>2016-10-06T08:29:11Z</time></trkpt>
<trkpt lat="22.956025" lon="115.470197">
<time>2016-10-06T08:29:12Z</time></trkpt>
<trkpt lat="22.956075" lon="115.470057">
<time>2016-10-06T08:29:13Z</time></trkpt>
<trkpt lat="22.956214" lon="115.469706">
<time>2016-10-06T08:29:14Z</time></trkpt>
<trkpt lat="22.956343" lon="115.469405">
<time>2016-10-06T08:29:15Z</time></trkpt>
<trkpt lat="22.95674" lon="115.468532">
<time>2016-10-06T08:29:16Z</time></trkpt>
<trkpt lat="22.957068" lon="115.46782">
<time>2016-10-06T08:29:17Z</time></trkpt>
<trkpt lat="22.957456" lon="115.466957">
<time>2016-10-06T08:29:18Z</time></trkpt>
<trkpt lat="22.958082" lon="115.465523">
<time>2016-10-06T08:29:19Z</time></trkpt>
<trkpt lat="22.958231" lon="115.465182">
<time>2016-10-06T08:29:20Z</time></trkpt>
<trkpt lat="22.958499" lon="115.46459">
<time>2016-10-06T08:29:21Z</time></trkpt>
<trkpt lat="22.958867" lon="115.463798">
<time>2016-10-06T08:29:22Z</time></trkpt>
<trkpt lat="22.959274" lon="115.462875">
<time>2016-10-06T08:29:23Z</time></trkpt>
<trkpt lat="22.959483" lon="115.462404">
<time>2016-10-06T08:29:24Z</time></trkpt>
<trkpt lat="22.96005" lon="115.46119">
<time>2016-10-06T08:29:25Z</time></trkpt>
<trkpt lat="22.960467" lon="115.460248">
<time>2016-10-06T08:29:26Z</time></trkpt>
<trkpt lat="22.960805" lon="115.459506">
<time>2016-10-06T08:29:27Z</time></trkpt>
<trkpt lat="22.960885" lon="115.459345">
<time>2016-10-06T08:29:28Z</time></trkpt>
<trkpt lat="22.961044" lon="115.458994">
<time>2016-10-06T08:29:29Z</time></trkpt>
<trkpt lat="22.961133" lon="115.458804">
<time>2016-10-06T08:29:30Z</time></trkpt>
<trkpt lat="22.961282" lon="115.458503">
<time>2016-10-06T08:29:31Z</time></trkpt>
<trkpt lat="22.961342" lon="115.458372">
<time>2016-10-06T08:29:32Z</time></trkpt>
<trkpt lat="22.961471" lon="115.458072">
<time>2016-10-06T08:29:33Z</time></trkpt>
<trkpt lat="22.961571" lon="115.457831">
<time>2016-10-06T08:29:34Z</time></trkpt>
<trkpt lat="22.96174" lon="115.45746">
<time>2016-10-06T08:29:35Z</time></trkpt>
<trkpt lat="22.962008" lon="115.456858">
<time>2016-10-06T08:29:36Z</time></trkpt>
<trkpt lat="22.962237" lon="115.456357">
<time>2016-10-06T08:29:37Z</time></trkpt>
<trkpt lat="22.962416" lon="115.455976">
<time>2016-10-06T08:29:38Z</time></trkpt>
<trkpt lat="22.962505" lon="115.455765">
<time>2016-10-06T08:29:39Z</time></trkpt>
<trkpt lat="22.962734" lon="115.455264">
<time>2016-10-06T08:29:40Z</time></trkpt>
<trkpt lat="22.962943" lon="115.454793">
<time>2016-10-06T08:29:41Z</time></trkpt>
<trkpt lat="22.963062" lon="115.454532">
<time>2016-10-06T08:29:42Z</time></trkpt>
<trkpt lat="22.963211" lon="115.454211">
<time>2016-10-06T08:29:43Z</time></trkpt>
<trkpt lat="22.963301" lon="115.454011">
<time>2016-10-06T08:29:44Z</time></trkpt>
<trkpt lat="22.9634" lon="115.45377">
<time>2016-10-06T08:29:45Z</time></trkpt>
<trkpt lat="22.963519" lon="115.453479">
<time>2016-10-06T08:29:46Z</time></trkpt>
<trkpt lat="22.963629" lon="115.453249">
<time>2016-10-06T08:29:47Z</time></trkpt>
<trkpt lat="22.963698" lon="115.453068">
<time>2016-10-06T08:29:48Z</time></trkpt>
<trkpt lat="22.963758" lon="115.452868">
<time>2016-10-06T08:29:49Z</time></trkpt>
<trkpt lat="22.963817" lon="115.452687">
<time>2016-10-06T08:29:50Z</time></trkpt>
<trkpt lat="22.963887" lon="115.452416">
<time>2016-10-06T08:29:51Z</time></trkpt>
<trkpt lat="22.963936" lon="115.452206">
<time>2016-10-06T08:29:52Z</time></trkpt>
<trkpt lat="22.964203" lon="115.451043">
<time>2016-10-06T08:29:53Z</time></trkpt>
<trkpt lat="22.964421" lon="115.450111">
<time>2016-10-06T08:29:54Z</time></trkpt>
<trkpt lat="22.96455" lon="115.449539">
<time>2016-10-06T08:29:55Z</time></trkpt>
<trkpt lat="22.964669" lon="115.449058">
<time>2016-10-06T08:29:56Z</time></trkpt>
<trkpt lat="22.964748" lon="115.448677">
<time>2016-10-06T08:29:57Z</time></trkpt>
<trkpt lat="22.964877" lon="115.448096">
<time>2016-10-06T08:29:58Z</time></trkpt>
<trkpt lat="22.965065" lon="115.447294">
<time>2016-10-06T08:29:59Z</time></trkpt>
<trkpt lat="22.965283" lon="115.446331">
<time>2016-10-06T08:30:00Z</time></trkpt>
<trkpt lat="22.965461" lon="115.44554">
<time>2016-10-06T08:30:01Z</time></trkpt>
<trkpt lat="22.965649" lon="115.444738">
<time>2016-10-06T08:30:02Z</time></trkpt>
<trkpt lat="22.965748" lon="115.444297">
<time>2016-10-06T08:30:03Z</time></trkpt>
<trkpt lat="22.965897" lon="115.443685">
<time>2016-10-06T08:30:04Z</time></trkpt>
<trkpt lat="22.966175" lon="115.442463">
<time>2016-10-06T08:30:05Z</time></trkpt>
<trkpt lat="22.966264" lon="115.442072">
<time>2016-10-06T08:30:06Z</time></trkpt>
<trkpt lat="22.966502" lon="115.440989">
<time>2016-10-06T08:30:07Z</time></trkpt>
<trkpt lat="22.966759" lon="115.439887">
<time>2016-10-06T08:30:08Z</time></trkpt>
<trkpt lat="22.967017" lon="115.438745">
<time>2016-10-06T08:30:09Z</time></trkpt>
<trkpt lat="22.967186" lon="115.437983">
<time>2016-10-06T08:30:10Z</time></trkpt>
<trkpt lat="22.967384" lon="115.437101">
<time>2016-10-06T08:30:11Z</time></trkpt>
<trkpt lat="22.967563" lon="115.43633">
<time>2016-10-06T08:30:12Z</time></trkpt>
<trkpt lat="22.967771" lon="115.435438">
<time>2016-10-06T08:30:13Z</time></trkpt>
<trkpt lat="22.968019" lon="115.434336">
<time>2016-10-06T08:30:14Z</time></trkpt>
<trkpt lat="22.968079" lon="115.434096">
<time>2016-10-06T08:30:15Z</time></trkpt>
<trkpt lat="22.968287" lon="115.433174">
<time>2016-10-06T08:30:16Z</time></trkpt>
<trkpt lat="22.968496" lon="115.432242">
<time>2016-10-06T08:30:17Z</time></trkpt>
<trkpt lat="22.968645" lon="115.431601">
<time>2016-10-06T08:30:18Z</time></trkpt>
<trkpt lat="22.968823" lon="115.43081">
<time>2016-10-06T08:30:19Z</time></trkpt>
<trkpt lat="22.968982" lon="115.430159">
<time>2016-10-06T08:30:20Z</time></trkpt>
<trkpt lat="22.969161" lon="115.429368">
<time>2016-10-06T08:30:21Z</time></trkpt>
<trkpt lat="22.96932" lon="115.428676">
<time>2016-10-06T08:30:22Z</time></trkpt>
<trkpt lat="22.969479" lon="115.427995">
<time>2016-10-06T08:30:23Z</time></trkpt>
<trkpt lat="22.969598" lon="115.427445">
<time>2016-10-06T08:30:24Z</time></trkpt>
<trkpt lat="22.969708" lon="115.426974">
<time>2016-10-06T08:30:25Z</time></trkpt>
<trkpt lat="22.969757" lon="115.426703">
<time>2016-10-06T08:30:26Z</time></trkpt>
<trkpt lat="22.969797" lon="115.426493">
<time>2016-10-06T08:30:27Z</time></trkpt>
<trkpt lat="22.969817" lon="115.426333">
<time>2016-10-06T08:30:28Z</time></trkpt>
<trkpt lat="22.969847" lon="115.426133">
<time>2016-10-06T08:30:29Z</time></trkpt>
<trkpt lat="22.969876" lon="115.425952">
<time>2016-10-06T08:30:30Z</time></trkpt>
<trkpt lat="22.969886" lon="115.425822">
<time>2016-10-06T08:30:31Z</time></trkpt>
<trkpt lat="22.969906" lon="115.425592">
<time>2016-10-06T08:30:32Z</time></trkpt>
<trkpt lat="22.970004" lon="115.42454">
<time>2016-10-06T08:30:33Z</time></trkpt>
<trkpt lat="22.970083" lon="115.423689">
<time>2016-10-06T08:30:34Z</time></trkpt>
<trkpt lat="22.970103" lon="115.423449">
<time>2016-10-06T08:30:35Z</time></trkpt>
<trkpt lat="22.970192" lon="115.422438">
<time>2016-10-06T08:30:36Z</time></trkpt>
<trkpt lat="22.970281" lon="115.421346">
<time>2016-10-06T08:30:37Z</time></trkpt>
<trkpt lat="22.970389" lon="115.420055">
<time>2016-10-06T08:30:38Z</time></trkpt>
<trkpt lat="22.970468" lon="115.419154">
<time>2016-10-06T08:30:39Z</time></trkpt>
<trkpt lat="22.970498" lon="115.418853">
<time>2016-10-06T08:30:40Z</time></trkpt>
<trkpt lat="22.970528" lon="115.418463">
<time>2016-10-06T08:30:41Z</time></trkpt>
<trkpt lat="22.970557" lon="115.418102">
<time>2016-10-06T08:30:42Z</time></trkpt>
<trkpt lat="22.970587" lon="115.417782">
<time>2016-10-06T08:30:43Z</time></trkpt>
<trkpt lat="22.970636" lon="115.417232">
<time>2016-10-06T08:30:44Z</time></trkpt>
<trkpt lat="22.970726" lon="115.4162">
<time>2016-10-06T08:30:45Z</time></trkpt>
<trkpt lat="22.970844" lon="115.414839">
<time>2016-10-06T08:30:46Z</time></trkpt>
<trkpt lat="22.970963" lon="115.413528">
<time>2016-10-06T08:30:47Z</time></trkpt>
<trkpt lat="22.971052" lon="115.412427">
<time>2016-10-06T08:30:48Z</time></trkpt>
<trkpt lat="22.971122" lon="115.411607">
<time>2016-10-06T08:30:49Z</time></trkpt>
<trkpt lat="22.971201" lon="115.410836">
<time>2016-10-06T08:30:50Z</time></trkpt>
<trkpt lat="22.971221" lon="115.410566">
<time>2016-10-06T08:30:51Z</time></trkpt>
<trkpt lat="22.971291" lon="115.409725">
<time>2016-10-06T08:30:52Z</time></trkpt>
<trkpt lat="22.97139" lon="115.408554">
<time>2016-10-06T08:30:53Z</time></trkpt>
<trkpt lat="22.97142" lon="115.408274">
<time>2016-10-06T08:30:54Z</time></trkpt>
<trkpt lat="22.97147" lon="115.407874">
<time>2016-10-06T08:30:55Z</time></trkpt>
<trkpt lat="22.97151" lon="115.407634">
<time>2016-10-06T08:30:56Z</time></trkpt>
<trkpt lat="22.971549" lon="115.407444">
<time>2016-10-06T08:30:57Z</time></trkpt>
<trkpt lat="22.971579" lon="115.407314">
<time>2016-10-06T08:30:58Z</time></trkpt>
<trkpt lat="22.971639" lon="115.407074">
<time>2016-10-06T08:30:59Z</time></trkpt>
<trkpt lat="22.971689" lon="115.406884">
<time>2016-10-06T08:31:00Z</time></trkpt>
<trkpt lat="22.971809" lon="115.406533">
<time>2016-10-06T08:31:01Z</time></trkpt>
<trkpt lat="22.971939" lon="115.406133">
<time>2016-10-06T08:31:02Z</time></trkpt>
<trkpt lat="22.972088" lon="115.405723">
<time>2016-10-06T08:31:03Z</time></trkpt>
<trkpt lat="22.972288" lon="115.405123">
<time>2016-10-06T08:31:04Z</time></trkpt>
<trkpt lat="22.972678" lon="115.403932">
<time>2016-10-06T08:31:05Z</time></trkpt>
<trkpt lat="22.973157" lon="115.402572">
<time>2016-10-06T08:31:06Z</time></trkpt>
<trkpt lat="22.973327" lon="115.402072">
<time>2016-10-06T08:31:07Z</time></trkpt>
<trkpt lat="22.973557" lon="115.401391">
<time>2016-10-06T08:31:08Z</time></trkpt>
<trkpt lat="22.973986" lon="115.400141">
<time>2016-10-06T08:31:09Z</time></trkpt>
<trkpt lat="22.974386" lon="115.398961">
<time>2016-10-06T08:31:10Z</time></trkpt>
<trkpt lat="22.974856" lon="115.397601">
<time>2016-10-06T08:31:11Z</time></trkpt>
<trkpt lat="22.975366" lon="115.396091">
<time>2016-10-06T08:31:12Z</time></trkpt>
<trkpt lat="22.975655" lon="115.395251">
<time>2016-10-06T08:31:13Z</time></trkpt>
<trkpt lat="22.975705" lon="115.395091">
<time>2016-10-06T08:31:14Z</time></trkpt>
<trkpt lat="22.976265" lon="115.393481">
<time>2016-10-06T08:31:15Z</time></trkpt>
<trkpt lat="22.976525" lon="115.392711">
<time>2016-10-06T08:31:16Z</time></trkpt>
<trkpt lat="22.976906" lon="115.391601">
<time>2016-10-06T08:31:17Z</time></trkpt>
<trkpt lat="22.977216" lon="115.390691">
<time>2016-10-06T08:31:18Z</time></trkpt>
<trkpt lat="22.977406" lon="115.390162">
<time>2016-10-06T08:31:19Z</time></trkpt>
<trkpt lat="22.977546" lon="115.389812">
<time>2016-10-06T08:31:20Z</time></trkpt>
<trkpt lat="22.977676" lon="115.389432">
<time>2016-10-06T08:31:21Z</time></trkpt>
<trkpt lat="22.977896" lon="115.388762">
<time>2016-10-06T08:31:22Z</time></trkpt>
<trkpt lat="22.978236" lon="115.387722">
<time>2016-10-06T08:31:23Z</time></trkpt>
<trkpt lat="22.978366" lon="115.387353">
<time>2016-10-06T08:31:24Z</time></trkpt>
<trkpt lat="22.978536" lon="115.386863">
<time>2016-10-06T08:31:25Z</time></trkpt>
<trkpt lat="22.978707" lon="115.386363">
<time>2016-10-06T08:31:26Z</time></trkpt>
<trkpt lat="22.979177" lon="115.385004">
<time>2016-10-06T08:31:27Z</time></trkpt>
<trkpt lat="22.979568" lon="115.383854">
<time>2016-10-06T08:31:28Z</time></trkpt>
<trkpt lat="22.979758" lon="115.383305">
<time>2016-10-06T08:31:29Z</time></trkpt>
<trkpt lat="22.980158" lon="115.382115">
<time>2016-10-06T08:31:30Z</time></trkpt>
<trkpt lat="22.980429" lon="115.381306">
<time>2016-10-06T08:31:31Z</time></trkpt>
<trkpt lat="22.980689" lon="115.380586">
<time>2016-10-06T08:31:32Z</time></trkpt>
<trkpt lat="22.980869" lon="115.380047">
<time>2016-10-06T08:31:33Z</time></trkpt>
<trkpt lat="22.981" lon="115.379687">
<time>2016-10-06T08:31:34Z</time></trkpt>
<trkpt lat="22.98104" lon="115.379557">
<time>2016-10-06T08:31:35Z</time></trkpt>
<trkpt lat="22.98108" lon="115.379397">
<time>2016-10-06T08:31:36Z</time></trkpt>
<trkpt lat="22.9811" lon="115.379307">
<time>2016-10-06T08:31:37Z</time></trkpt>
<trkpt lat="22.9811" lon="115.379247">
<time>2016-10-06T08:31:38Z</time></trkpt>
<trkpt lat="22.98111" lon="115.379167">
<time>2016-10-06T08:31:39Z</time></trkpt>
<trkpt lat="22.98112" lon="115.379057">
<time>2016-10-06T08:31:40Z</time></trkpt>
<trkpt lat="22.98113" lon="115.378918">
<time>2016-10-06T08:31:41Z</time></trkpt>
<trkpt lat="22.98114" lon="115.378768">
<time>2016-10-06T08:31:42Z</time></trkpt>
<trkpt lat="22.98114" lon="115.378668">
<time>2016-10-06T08:31:43Z</time></trkpt>
<trkpt lat="22.98114" lon="115.378568">
<time>2016-10-06T08:31:44Z</time></trkpt>
<trkpt lat="22.98113" lon="115.378458">
<time>2016-10-06T08:31:45Z</time></trkpt>
<trkpt lat="22.981111" lon="115.378138">
<time>2016-10-06T08:31:46Z</time></trkpt>
<trkpt lat="22.981111" lon="115.378138">
<time>2016-10-06T08:31:47Z</time></trkpt>
<trkpt lat="22.981061" lon="115.378068">
<time>2016-10-06T08:31:48Z</time></trkpt>
<trkpt lat="22.980961" lon="115.377559">
<time>2016-10-06T08:31:49Z</time></trkpt>
<trkpt lat="22.980842" lon="115.376959">
<time>2016-10-06T08:31:50Z</time></trkpt>
<trkpt lat="22.980712" lon="115.37632">
<time>2016-10-06T08:31:51Z</time></trkpt>
<trkpt lat="22.980543" lon="115.375431">
<time>2016-10-06T08:31:52Z</time></trkpt>
<trkpt lat="22.980493" lon="115.375191">
<time>2016-10-06T08:31:53Z</time></trkpt>
<trkpt lat="22.980454" lon="115.374991">
<time>2016-10-06T08:31:54Z</time></trkpt>
<trkpt lat="22.980275" lon="115.374092">
<time>2016-10-06T08:31:55Z</time></trkpt>
<trkpt lat="22.980195" lon="115.373672">
<time>2016-10-06T08:31:56Z</time></trkpt>
<trkpt lat="22.980195" lon="115.373672">
<time>2016-10-06T08:31:57Z</time></trkpt>
<trkpt lat="22.980095" lon="115.373433">
<time>2016-10-06T08:31:58Z</time></trkpt>
<trkpt lat="22.980025" lon="115.373253">
<time>2016-10-06T08:31:59Z</time></trkpt>
<trkpt lat="22.979936" lon="115.373063">
<time>2016-10-06T08:32:00Z</time></trkpt>
<trkpt lat="22.979806" lon="115.372803">
<time>2016-10-06T08:32:01Z</time></trkpt>
<trkpt lat="22.979706" lon="115.372594">
<time>2016-10-06T08:32:02Z</time></trkpt>
<trkpt lat="22.979616" lon="115.372424">
<time>2016-10-06T08:32:03Z</time></trkpt>
<trkpt lat="22.979557" lon="115.372314">
<time>2016-10-06T08:32:04Z</time></trkpt>
<trkpt lat="22.979407" lon="115.372074">
<time>2016-10-06T08:32:05Z</time></trkpt>
<trkpt lat="22.979227" lon="115.371794">
<time>2016-10-06T08:32:06Z</time></trkpt>
<trkpt lat="22.979058" lon="115.371555">
<time>2016-10-06T08:32:07Z</time></trkpt>
<trkpt lat="22.978918" lon="115.371375">
<time>2016-10-06T08:32:08Z</time></trkpt>
<trkpt lat="22.978838" lon="115.371265">
<time>2016-10-06T08:32:09Z</time></trkpt>
<trkpt lat="22.978578" lon="115.370926">
<time>2016-10-06T08:32:10Z</time></trkpt>
<trkpt lat="22.978379" lon="115.370666">
<time>2016-10-06T08:32:11Z</time></trkpt>
<trkpt lat="22.978099" lon="115.370296">
<time>2016-10-06T08:32:12Z</time></trkpt>
<trkpt lat="22.978099" lon="115.370286">
<time>2016-10-06T08:32:13Z</time></trkpt>
<trkpt lat="22.97793" lon="115.370067">
<time>2016-10-06T08:32:14Z</time></trkpt>
<trkpt lat="22.9776" lon="115.369637">
<time>2016-10-06T08:32:15Z</time></trkpt>
<trkpt lat="22.977141" lon="115.369018">
<time>2016-10-06T08:32:16Z</time></trkpt>
<trkpt lat="22.976672" lon="115.368419">
<time>2016-10-06T08:32:17Z</time></trkpt>
<trkpt lat="22.976672" lon="115.368419">
<time>2016-10-06T08:32:18Z</time></trkpt>
<trkpt lat="22.976732" lon="115.368279">
<time>2016-10-06T08:32:19Z</time></trkpt>
<trkpt lat="22.976732" lon="115.368279">
<time>2016-10-06T08:32:20Z</time></trkpt>
<trkpt lat="22.975425" lon="115.366571">
<time>2016-10-06T08:32:21Z</time></trkpt>
<trkpt lat="22.975066" lon="115.365962">
<time>2016-10-06T08:32:22Z</time></trkpt>
<trkpt lat="22.974587" lon="115.365123">
<time>2016-10-06T08:32:23Z</time></trkpt>
<trkpt lat="22.973739" lon="115.363645">
<time>2016-10-06T08:32:24Z</time></trkpt>
<trkpt lat="22.97346" lon="115.363146">
<time>2016-10-06T08:32:25Z</time></trkpt>
<trkpt lat="22.972642" lon="115.361708">
<time>2016-10-06T08:32:26Z</time></trkpt>
<trkpt lat="22.972084" lon="115.360689">
<time>2016-10-06T08:32:27Z</time></trkpt>
<trkpt lat="22.971376" lon="115.359541">
<time>2016-10-06T08:32:28Z</time></trkpt>
<trkpt lat="22.971336" lon="115.359471">
<time>2016-10-06T08:32:29Z</time></trkpt>
<trkpt lat="22.971286" lon="115.359401">
<time>2016-10-06T08:32:30Z</time></trkpt>
<trkpt lat="22.970637" lon="115.358623">
<time>2016-10-06T08:32:31Z</time></trkpt>
<trkpt lat="22.970577" lon="115.358543">
<time>2016-10-06T08:32:32Z</time></trkpt>
<trkpt lat="22.970438" lon="115.358413">
<time>2016-10-06T08:32:33Z</time></trkpt>
<trkpt lat="22.970278" lon="115.358283">
<time>2016-10-06T08:32:34Z</time></trkpt>
<trkpt lat="22.96866" lon="115.357145">
<time>2016-10-06T08:32:35Z</time></trkpt>
<trkpt lat="22.966683" lon="115.355767">
<time>2016-10-06T08:32:36Z</time></trkpt>
<trkpt lat="22.966623" lon="115.355727">
<time>2016-10-06T08:32:37Z</time></trkpt>
<trkpt lat="22.964756" lon="115.35448">
<time>2016-10-06T08:32:38Z</time></trkpt>
<trkpt lat="22.964337" lon="115.35413">
<time>2016-10-06T08:32:39Z</time></trkpt>
<trkpt lat="22.964317" lon="115.35412">
<time>2016-10-06T08:32:40Z</time></trkpt>
<trkpt lat="22.963927" lon="115.353791">
<time>2016-10-06T08:32:41Z</time></trkpt>
<trkpt lat="22.963907" lon="115.353781">
<time>2016-10-06T08:32:42Z</time></trkpt>
<trkpt lat="22.963488" lon="115.353391">
<time>2016-10-06T08:32:43Z</time></trkpt>
<trkpt lat="22.963159" lon="115.353062">
<time>2016-10-06T08:32:44Z</time></trkpt>
<trkpt lat="22.96276" lon="115.352623">
<time>2016-10-06T08:32:45Z</time></trkpt>
<trkpt lat="22.96248" lon="115.352244">
<time>2016-10-06T08:32:46Z</time></trkpt>
<trkpt lat="22.962171" lon="115.351794">
<time>2016-10-06T08:32:47Z</time></trkpt>
<trkpt lat="22.961922" lon="115.351385">
<time>2016-10-06T08:32:48Z</time></trkpt>
<trkpt lat="22.961593" lon="115.350756">
<time>2016-10-06T08:32:49Z</time></trkpt>
<trkpt lat="22.960408" lon="115.348361">
<time>2016-10-06T08:32:50Z</time></trkpt>
<trkpt lat="22.958625" lon="115.344578">
<time>2016-10-06T08:32:51Z</time></trkpt>
<trkpt lat="22.958276" lon="115.343829">
<time>2016-10-06T08:32:52Z</time></trkpt>
<trkpt lat="22.958017" lon="115.34328">
<time>2016-10-06T08:32:53Z</time></trkpt>
<trkpt lat="22.956205" lon="115.339458">
<time>2016-10-06T08:32:54Z</time></trkpt>
<trkpt lat="22.955747" lon="115.3385">
<time>2016-10-06T08:32:55Z</time></trkpt>
<trkpt lat="22.955339" lon="115.337422">
<time>2016-10-06T08:32:56Z</time></trkpt>
<trkpt lat="22.955339" lon="115.337422">
<time>2016-10-06T08:32:57Z</time></trkpt>
<trkpt lat="22.955279" lon="115.337442">
<time>2016-10-06T08:32:58Z</time></trkpt>
<trkpt lat="22.955279" lon="115.337442">
<time>2016-10-06T08:32:59Z</time></trkpt>
<trkpt lat="22.955229" lon="115.337272">
<time>2016-10-06T08:33:00Z</time></trkpt>
<trkpt lat="22.95516" lon="115.337053">
<time>2016-10-06T08:33:01Z</time></trkpt>
<trkpt lat="22.95511" lon="115.336863">
<time>2016-10-06T08:33:02Z</time></trkpt>
<trkpt lat="22.955001" lon="115.336454">
<time>2016-10-06T08:33:03Z</time></trkpt>
<trkpt lat="22.954951" lon="115.336254">
<time>2016-10-06T08:33:04Z</time></trkpt>
<trkpt lat="22.954902" lon="115.336035">
<time>2016-10-06T08:33:05Z</time></trkpt>
<trkpt lat="22.954823" lon="115.335556">
<time>2016-10-06T08:33:06Z</time></trkpt>
<trkpt lat="22.954753" lon="115.335097">
<time>2016-10-06T08:33:07Z</time></trkpt>
<trkpt lat="22.954724" lon="115.334827">
<time>2016-10-06T08:33:08Z</time></trkpt>
<trkpt lat="22.954695" lon="115.334448">
<time>2016-10-06T08:33:09Z</time></trkpt>
<trkpt lat="22.954665" lon="115.334039">
<time>2016-10-06T08:33:10Z</time></trkpt>
<trkpt lat="22.954656" lon="115.333649">
<time>2016-10-06T08:33:11Z</time></trkpt>
<trkpt lat="22.954656" lon="115.33361">
<time>2016-10-06T08:33:12Z</time></trkpt>
<trkpt lat="22.954667" lon="115.33334">
<time>2016-10-06T08:33:13Z</time></trkpt>
<trkpt lat="22.954667" lon="115.333001">
<time>2016-10-06T08:33:14Z</time></trkpt>
<trkpt lat="22.954688" lon="115.332642">
<time>2016-10-06T08:33:15Z</time></trkpt>
<trkpt lat="22.954739" lon="115.332063">
<time>2016-10-06T08:33:16Z</time></trkpt>
<trkpt lat="22.9548" lon="115.331404">
<time>2016-10-06T08:33:17Z</time></trkpt>
<trkpt lat="22.954831" lon="115.331115">
<time>2016-10-06T08:33:18Z</time></trkpt>
<trkpt lat="22.954882" lon="115.330556">
<time>2016-10-06T08:33:19Z</time></trkpt>
<trkpt lat="22.954984" lon="115.329468">
<time>2016-10-06T08:33:20Z</time></trkpt>
<trkpt lat="22.955025" lon="115.329089">
<time>2016-10-06T08:33:21Z</time></trkpt>
<trkpt lat="22.955035" lon="115.328959">
<time>2016-10-06T08:33:22Z</time></trkpt>
<trkpt lat="22.955086" lon="115.32847">
<time>2016-10-06T08:33:23Z</time></trkpt>
<trkpt lat="22.955249" lon="115.326864">
<time>2016-10-06T08:33:24Z</time></trkpt>
<trkpt lat="22.955269" lon="115.326604">
<time>2016-10-06T08:33:25Z</time></trkpt>
<trkpt lat="22.9553" lon="115.326225">
<time>2016-10-06T08:33:26Z</time></trkpt>
<trkpt lat="22.955371" lon="115.325506">
<time>2016-10-06T08:33:27Z</time></trkpt>
<trkpt lat="22.955422" lon="115.325067">
<time>2016-10-06T08:33:28Z</time></trkpt>
<trkpt lat="22.955514" lon="115.324129">
<time>2016-10-06T08:33:29Z</time></trkpt>
<trkpt lat="22.955575" lon="115.323451">
<time>2016-10-06T08:33:30Z</time></trkpt>
<trkpt lat="22.955616" lon="115.322892">
<time>2016-10-06T08:33:31Z</time></trkpt>
<trkpt lat="22.955667" lon="115.322263">
<time>2016-10-06T08:33:32Z</time></trkpt>
<trkpt lat="22.955688" lon="115.321834">
<time>2016-10-06T08:33:33Z</time></trkpt>
<trkpt lat="22.955698" lon="115.321774">
<time>2016-10-06T08:33:34Z</time></trkpt>
<trkpt lat="22.955698" lon="115.321774">
<time>2016-10-06T08:33:35Z</time></trkpt>
<trkpt lat="22.95492" lon="115.321036">
<time>2016-10-06T08:33:36Z</time></trkpt>
<trkpt lat="22.954341" lon="115.320477">
<time>2016-10-06T08:33:37Z</time></trkpt>
<trkpt lat="22.953703" lon="115.319868">
<time>2016-10-06T08:33:38Z</time></trkpt>
<trkpt lat="22.952545" lon="115.318751">
<time>2016-10-06T08:33:39Z</time></trkpt>
<trkpt lat="22.951997" lon="115.318222">
<time>2016-10-06T08:33:40Z</time></trkpt>
<trkpt lat="22.950989" lon="115.317274">
<time>2016-10-06T08:33:41Z</time></trkpt>
<trkpt lat="22.95073" lon="115.317034">
<time>2016-10-06T08:33:42Z</time></trkpt>
<trkpt lat="22.9505" lon="115.316835">
<time>2016-10-06T08:33:43Z</time></trkpt>
<trkpt lat="22.95047" lon="115.316805">
<time>2016-10-06T08:33:44Z</time></trkpt>
<trkpt lat="22.950071" lon="115.316486">
<time>2016-10-06T08:33:45Z</time></trkpt>
<trkpt lat="22.949662" lon="115.316196">
<time>2016-10-06T08:33:46Z</time></trkpt>
<trkpt lat="22.949362" lon="115.316047">
<time>2016-10-06T08:33:47Z</time></trkpt>
<trkpt lat="22.948933" lon="115.315867">
<time>2016-10-06T08:33:48Z</time></trkpt>
<trkpt lat="22.945287" lon="115.31441">
<time>2016-10-06T08:33:49Z</time></trkpt>
<trkpt lat="22.943838" lon="115.313842">
<time>2016-10-06T08:33:50Z</time></trkpt>
<trkpt lat="22.943729" lon="115.313792">
<time>2016-10-06T08:33:51Z</time></trkpt>
<trkpt lat="22.943069" lon="115.313542">
<time>2016-10-06T08:33:52Z</time></trkpt>
<trkpt lat="22.94296" lon="115.313492">
<time>2016-10-06T08:33:53Z</time></trkpt>
<trkpt lat="22.94257" lon="115.313313">
<time>2016-10-06T08:33:54Z</time></trkpt>
<trkpt lat="22.942221" lon="115.313103">
<time>2016-10-06T08:33:55Z</time></trkpt>
<trkpt lat="22.941632" lon="115.312694">
<time>2016-10-06T08:33:56Z</time></trkpt>
<trkpt lat="22.940494" lon="115.311876">
<time>2016-10-06T08:33:57Z</time></trkpt>
<trkpt lat="22.939865" lon="115.311437">
<time>2016-10-06T08:33:58Z</time></trkpt>
<trkpt lat="22.939695" lon="115.311307">
<time>2016-10-06T08:33:59Z</time></trkpt>
<trkpt lat="22.93708" lon="115.309431">
<time>2016-10-06T08:34:00Z</time></trkpt>
<trkpt lat="22.935193" lon="115.307755">
<time>2016-10-06T08:34:01Z</time></trkpt>
<trkpt lat="22.934146" lon="115.306817">
<time>2016-10-06T08:34:02Z</time></trkpt>
<trkpt lat="22.933058" lon="115.305839">
<time>2016-10-06T08:34:03Z</time></trkpt>
<trkpt lat="22.931421" lon="115.304372">
<time>2016-10-06T08:34:04Z</time></trkpt>
<trkpt lat="22.931311" lon="115.304272">
<time>2016-10-06T08:34:05Z</time></trkpt>
<trkpt lat="22.930194" lon="115.303274">
<time>2016-10-06T08:34:06Z</time></trkpt>
<trkpt lat="22.930034" lon="115.303144">
<time>2016-10-06T08:34:07Z</time></trkpt>
<trkpt lat="22.929874" lon="115.303024">
<time>2016-10-06T08:34:08Z</time></trkpt>
<trkpt lat="22.929674" lon="115.302905">
<time>2016-10-06T08:34:09Z</time></trkpt>
<trkpt lat="22.929385" lon="115.302755">
<time>2016-10-06T08:34:10Z</time></trkpt>
<trkpt lat="22.928686" lon="115.302426">
<time>2016-10-06T08:34:11Z</time></trkpt>
<trkpt lat="22.928436" lon="115.302306">
<time>2016-10-06T08:34:12Z</time></trkpt>
<trkpt lat="22.928316" lon="115.302236">
<time>2016-10-06T08:34:13Z</time></trkpt>
<trkpt lat="22.928156" lon="115.302136">
<time>2016-10-06T08:34:14Z</time></trkpt>
<trkpt lat="22.926609" lon="115.301078">
<time>2016-10-06T08:34:15Z</time></trkpt>
<trkpt lat="22.92573" lon="115.300469">
<time>2016-10-06T08:34:16Z</time></trkpt>
<trkpt lat="22.925181" lon="115.30006">
<time>2016-10-06T08:34:17Z</time></trkpt>
<trkpt lat="22.923884" lon="115.298933">
<time>2016-10-06T08:34:18Z</time></trkpt>
<trkpt lat="22.922197" lon="115.297445">
<time>2016-10-06T08:34:19Z</time></trkpt>
<trkpt lat="22.921937" lon="115.297176">
<time>2016-10-06T08:34:20Z</time></trkpt>
<trkpt lat="22.921838" lon="115.297056">
<time>2016-10-06T08:34:21Z</time></trkpt>
<trkpt lat="22.920411" lon="115.29519">
<time>2016-10-06T08:34:22Z</time></trkpt>
<trkpt lat="22.920182" lon="115.29484">
<time>2016-10-06T08:34:23Z</time></trkpt>
<trkpt lat="22.919973" lon="115.294451">
<time>2016-10-06T08:34:24Z</time></trkpt>
<trkpt lat="22.919644" lon="115.293762">
<time>2016-10-06T08:34:25Z</time></trkpt>
<trkpt lat="22.919375" lon="115.293293">
<time>2016-10-06T08:34:26Z</time></trkpt>
<trkpt lat="22.919036" lon="115.292844">
<time>2016-10-06T08:34:27Z</time></trkpt>
<trkpt lat="22.918946" lon="115.292734">
<time>2016-10-06T08:34:28Z</time></trkpt>
<trkpt lat="22.918826" lon="115.292624">
<time>2016-10-06T08:34:29Z</time></trkpt>
<trkpt lat="22.918696" lon="115.292554">
<time>2016-10-06T08:34:30Z</time></trkpt>
<trkpt lat="22.918566" lon="115.292495">
<time>2016-10-06T08:34:31Z</time></trkpt>
<trkpt lat="22.918127" lon="115.292375">
<time>2016-10-06T08:34:32Z</time></trkpt>
<trkpt lat="22.917667" lon="115.292295">
<time>2016-10-06T08:34:33Z</time></trkpt>
<trkpt lat="22.917387" lon="115.292255">
<time>2016-10-06T08:34:34Z</time></trkpt>
<trkpt lat="22.917287" lon="115.292235">
<time>2016-10-06T08:34:35Z</time></trkpt>
<trkpt lat="22.917078" lon="115.292155">
<time>2016-10-06T08:34:36Z</time></trkpt>
<trkpt lat="22.916658" lon="115.291916">
<time>2016-10-06T08:34:37Z</time></trkpt>
<trkpt lat="22.916538" lon="115.291826">
<time>2016-10-06T08:34:38Z</time></trkpt>
<trkpt lat="22.916428" lon="115.291776">
<time>2016-10-06T08:34:39Z</time></trkpt>
<trkpt lat="22.916338" lon="115.291746">
<time>2016-10-06T08:34:40Z</time></trkpt>
<trkpt lat="22.916279" lon="115.291726">
<time>2016-10-06T08:34:41Z</time></trkpt>
<trkpt lat="22.916199" lon="115.291706">
<time>2016-10-06T08:34:42Z</time></trkpt>
<trkpt lat="22.916109" lon="115.291696">
<time>2016-10-06T08:34:43Z</time></trkpt>
<trkpt lat="22.915919" lon="115.291676">
<time>2016-10-06T08:34:44Z</time></trkpt>
<trkpt lat="22.915139" lon="115.291606">
<time>2016-10-06T08:34:45Z</time></trkpt>
<trkpt lat="22.91438" lon="115.291546">
<time>2016-10-06T08:34:46Z</time></trkpt>
<trkpt lat="22.91344" lon="115.291477">
<time>2016-10-06T08:34:47Z</time></trkpt>
<trkpt lat="22.91329" lon="115.291457">
<time>2016-10-06T08:34:48Z</time></trkpt>
<trkpt lat="22.91312" lon="115.291337">
<time>2016-10-06T08:34:49Z</time></trkpt>
<trkpt lat="22.911663" lon="115.290189">
<time>2016-10-06T08:34:50Z</time></trkpt>
<trkpt lat="22.911333" lon="115.289939">
<time>2016-10-06T08:34:51Z</time></trkpt>
<trkpt lat="22.911154" lon="115.28981">
<time>2016-10-06T08:34:52Z</time></trkpt>
<trkpt lat="22.910005" lon="115.288931">
<time>2016-10-06T08:34:53Z</time></trkpt>
<trkpt lat="22.909296" lon="115.288462">
<time>2016-10-06T08:34:54Z</time></trkpt>
<trkpt lat="22.909266" lon="115.288442">
<time>2016-10-06T08:34:55Z</time></trkpt>
<trkpt lat="22.907579" lon="115.287314">
<time>2016-10-06T08:34:56Z</time></trkpt>
<trkpt lat="22.907099" lon="115.286984">
<time>2016-10-06T08:34:57Z</time></trkpt>
<trkpt lat="22.905751" lon="115.286046">
<time>2016-10-06T08:34:58Z</time></trkpt>
<trkpt lat="22.905052" lon="115.285557">
<time>2016-10-06T08:34:59Z</time></trkpt>
<trkpt lat="22.904902" lon="115.285447">
<time>2016-10-06T08:35:00Z</time></trkpt>
<trkpt lat="22.904853" lon="115.285407">
<time>2016-10-06T08:35:01Z</time></trkpt>
<trkpt lat="22.903295" lon="115.284329">
<time>2016-10-06T08:35:02Z</time></trkpt>
<trkpt lat="22.903185" lon="115.284249">
<time>2016-10-06T08:35:03Z</time></trkpt>
<trkpt lat="22.902416" lon="115.28372">
<time>2016-10-06T08:35:04Z</time></trkpt>
<trkpt lat="22.901647" lon="115.283201">
<time>2016-10-06T08:35:05Z</time></trkpt>
<trkpt lat="22.901078" lon="115.282811">
<time>2016-10-06T08:35:06Z</time></trkpt>
<trkpt lat="22.900638" lon="115.282512">
<time>2016-10-06T08:35:07Z</time></trkpt>
<trkpt lat="22.900408" lon="115.282352">
<time>2016-10-06T08:35:08Z</time></trkpt>
<trkpt lat="22.898321" lon="115.280924">
<time>2016-10-06T08:35:09Z</time></trkpt>
<trkpt lat="22.898231" lon="115.280864">
<time>2016-10-06T08:35:10Z</time></trkpt>
<trkpt lat="22.898171" lon="115.280834">
<time>2016-10-06T08:35:11Z</time></trkpt>
<trkpt lat="22.898071" lon="115.280794">
<time>2016-10-06T08:35:12Z</time></trkpt>
<trkpt lat="22.897961" lon="115.280774">
<time>2016-10-06T08:35:13Z</time></trkpt>
<trkpt lat="22.897892" lon="115.280754">
<time>2016-10-06T08:35:14Z</time></trkpt>
<trkpt lat="22.897802" lon="115.280754">
<time>2016-10-06T08:35:15Z</time></trkpt>
<trkpt lat="22.897722" lon="115.280745">
<time>2016-10-06T08:35:16Z</time></trkpt>
<trkpt lat="22.896552" lon="115.280705">
<time>2016-10-06T08:35:17Z</time></trkpt>
<trkpt lat="22.896542" lon="115.280705">
<time>2016-10-06T08:35:18Z</time></trkpt>
<trkpt lat="22.896332" lon="115.280705">
<time>2016-10-06T08:35:19Z</time></trkpt>
<trkpt lat="22.896332" lon="115.280705">
<time>2016-10-06T08:35:20Z</time></trkpt>
<trkpt lat="22.896594" lon="115.279267">
<time>2016-10-06T08:35:21Z</time></trkpt>
<trkpt lat="22.896735" lon="115.278468">
<time>2016-10-06T08:35:22Z</time></trkpt>
<trkpt lat="22.896906" lon="115.277489">
<time>2016-10-06T08:35:23Z</time></trkpt>
<trkpt lat="22.896926" lon="115.277369">
<time>2016-10-06T08:35:24Z</time></trkpt>
<trkpt lat="22.897198" lon="115.275402">
<time>2016-10-06T08:35:25Z</time></trkpt>
<trkpt lat="22.897541" lon="115.272595">
<time>2016-10-06T08:35:26Z</time></trkpt>
<trkpt lat="22.897642" lon="115.271886">
<time>2016-10-06T08:35:27Z</time></trkpt>
<trkpt lat="22.897642" lon="115.271876">
<time>2016-10-06T08:35:28Z</time></trkpt>
<trkpt lat="22.897662" lon="115.271746">
<time>2016-10-06T08:35:29Z</time></trkpt>
<trkpt lat="22.897672" lon="115.271646">
<time>2016-10-06T08:35:30Z</time></trkpt>
<trkpt lat="22.897672" lon="115.271516">
<time>2016-10-06T08:35:31Z</time></trkpt>
<trkpt lat="22.897672" lon="115.271446">
<time>2016-10-06T08:35:32Z</time></trkpt>
<trkpt lat="22.897662" lon="115.271356">
<time>2016-10-06T08:35:33Z</time></trkpt>
<trkpt lat="22.897632" lon="115.271237">
<time>2016-10-06T08:35:34Z</time></trkpt>
<trkpt lat="22.897592" lon="115.271077">
<time>2016-10-06T08:35:35Z</time></trkpt>
<trkpt lat="22.897473" lon="115.270667">
<time>2016-10-06T08:35:36Z</time></trkpt>
<trkpt lat="22.897463" lon="115.270627">
<time>2016-10-06T08:35:37Z</time></trkpt>
<trkpt lat="22.896296" lon="115.26758">
<time>2016-10-06T08:35:38Z</time></trkpt>
<trkpt lat="22.894449" lon="115.263984">
<time>2016-10-06T08:35:39Z</time></trkpt>
<trkpt lat="22.89423" lon="115.263684">
<time>2016-10-06T08:35:40Z</time></trkpt>
<trkpt lat="22.89398" lon="115.263334">
<time>2016-10-06T08:35:41Z</time></trkpt>
<trkpt lat="22.89373" lon="115.262975">
<time>2016-10-06T08:35:42Z</time></trkpt>
<trkpt lat="22.893061" lon="115.262076">
<time>2016-10-06T08:35:43Z</time></trkpt>
<trkpt lat="22.893011" lon="115.262016">
<time>2016-10-06T08:35:44Z</time></trkpt>
<trkpt lat="22.892322" lon="115.261056">
<time>2016-10-06T08:35:45Z</time></trkpt>
<trkpt lat="22.891803" lon="115.260347">
<time>2016-10-06T08:35:46Z</time></trkpt>
<trkpt lat="22.891643" lon="115.260127">
<time>2016-10-06T08:35:47Z</time></trkpt>
<trkpt lat="22.891244" lon="115.259587">
<time>2016-10-06T08:35:48Z</time></trkpt>
<trkpt lat="22.890934" lon="115.259148">
<time>2016-10-06T08:35:49Z</time></trkpt>
<trkpt lat="22.890774" lon="115.258918">
<time>2016-10-06T08:35:50Z</time></trkpt>
<trkpt lat="22.890474" lon="115.258458">
<time>2016-10-06T08:35:51Z</time></trkpt>
<trkpt lat="22.890245" lon="115.258138">
<time>2016-10-06T08:35:52Z</time></trkpt>
<trkpt lat="22.889995" lon="115.257789">
<time>2016-10-06T08:35:53Z</time></trkpt>
<trkpt lat="22.889815" lon="115.257529">
<time>2016-10-06T08:35:54Z</time></trkpt>
<trkpt lat="22.889735" lon="115.257409">
<time>2016-10-06T08:35:55Z</time></trkpt>
<trkpt lat="22.889695" lon="115.257339">
<time>2016-10-06T08:35:56Z</time></trkpt>
<trkpt lat="22.889565" lon="115.257089">
<time>2016-10-06T08:35:57Z</time></trkpt>
<trkpt lat="22.889446" lon="115.256809">
<time>2016-10-06T08:35:58Z</time></trkpt>
<trkpt lat="22.889126" lon="115.256">
<time>2016-10-06T08:35:59Z</time></trkpt>
<trkpt lat="22.888627" lon="115.25471">
<time>2016-10-06T08:36:00Z</time></trkpt>
<trkpt lat="22.888407" lon="115.254151">
<time>2016-10-06T08:36:01Z</time></trkpt>
<trkpt lat="22.888357" lon="115.254021">
<time>2016-10-06T08:36:02Z</time></trkpt>
<trkpt lat="22.888317" lon="115.253921">
<time>2016-10-06T08:36:03Z</time></trkpt>
<trkpt lat="22.888267" lon="115.253771">
<time>2016-10-06T08:36:04Z</time></trkpt>
<trkpt lat="22.888247" lon="115.253671">
<time>2016-10-06T08:36:05Z</time></trkpt>
<trkpt lat="22.888237" lon="115.253621">
<time>2016-10-06T08:36:06Z</time></trkpt>
<trkpt lat="22.888237" lon="115.253601">
<time>2016-10-06T08:36:07Z</time></trkpt>
<trkpt lat="22.888237" lon="115.253531">
<time>2016-10-06T08:36:08Z</time></trkpt>
<trkpt lat="22.888237" lon="115.253431">
<time>2016-10-06T08:36:09Z</time></trkpt>
<trkpt lat="22.888237" lon="115.253321">
<time>2016-10-06T08:36:10Z</time></trkpt>
<trkpt lat="22.888247" lon="115.253211">
<time>2016-10-06T08:36:11Z</time></trkpt>
<trkpt lat="22.888268" lon="115.253031">
<time>2016-10-06T08:36:12Z</time></trkpt>
<trkpt lat="22.888358" lon="115.251792">
<time>2016-10-06T08:36:13Z</time></trkpt>
<trkpt lat="22.888518" lon="115.250002">
<time>2016-10-06T08:36:14Z</time></trkpt>
<trkpt lat="22.888568" lon="115.249123">
<time>2016-10-06T08:36:15Z</time></trkpt>
<trkpt lat="22.888578" lon="115.249023">
<time>2016-10-06T08:36:16Z</time></trkpt>
<trkpt lat="22.888588" lon="115.248973">
<time>2016-10-06T08:36:17Z</time></trkpt>
<trkpt lat="22.888598" lon="115.248923">
<time>2016-10-06T08:36:18Z</time></trkpt>
<trkpt lat="22.888628" lon="115.248793">
<time>2016-10-06T08:36:19Z</time></trkpt>
<trkpt lat="22.888688" lon="115.248543">
<time>2016-10-06T08:36:20Z</time></trkpt>
<trkpt lat="22.888808" lon="115.247993">
<time>2016-10-06T08:36:21Z</time></trkpt>
<trkpt lat="22.888828" lon="115.247903">
<time>2016-10-06T08:36:22Z</time></trkpt>
<trkpt lat="22.888838" lon="115.247863">
<time>2016-10-06T08:36:23Z</time></trkpt>
<trkpt lat="22.888838" lon="115.247833">
<time>2016-10-06T08:36:24Z</time></trkpt>
<trkpt lat="22.888838" lon="115.247813">
<time>2016-10-06T08:36:25Z</time></trkpt>
<trkpt lat="22.888828" lon="115.247793">
<time>2016-10-06T08:36:26Z</time></trkpt>
<trkpt lat="22.888828" lon="115.247763">
<time>2016-10-06T08:36:27Z</time></trkpt>
<trkpt lat="22.888818" lon="115.247743">
<time>2016-10-06T08:36:28Z</time></trkpt>
<trkpt lat="22.888728" lon="115.247573">
<time>2016-10-06T08:36:29Z</time></trkpt>
<trkpt lat="22.888479" lon="115.247113">
<time>2016-10-06T08:36:30Z</time></trkpt>
<trkpt lat="22.888169" lon="115.246653">
<time>2016-10-06T08:36:31Z</time></trkpt>
<trkpt lat="22.887649" lon="115.245873">
<time>2016-10-06T08:36:32Z</time></trkpt>
<trkpt lat="22.887259" lon="115.245303">
<time>2016-10-06T08:36:33Z</time></trkpt>
<trkpt lat="22.887129" lon="115.245063">
<time>2016-10-06T08:36:34Z</time></trkpt>
<trkpt lat="22.886879" lon="115.244643">
<time>2016-10-06T08:36:35Z</time></trkpt>
<trkpt lat="22.886759" lon="115.244393">
<time>2016-10-06T08:36:36Z</time></trkpt>
<trkpt lat="22.88588" lon="115.242094">
<time>2016-10-06T08:36:37Z</time></trkpt>
<trkpt lat="22.88571" lon="115.241674">
<time>2016-10-06T08:36:38Z</time></trkpt>
<trkpt lat="22.88568" lon="115.241564">
<time>2016-10-06T08:36:39Z</time></trkpt>
<trkpt lat="22.88566" lon="115.241524">
<time>2016-10-06T08:36:40Z</time></trkpt>
<trkpt lat="22.88564" lon="115.241474">
<time>2016-10-06T08:36:41Z</time></trkpt>
<trkpt lat="22.8856" lon="115.241424">
<time>2016-10-06T08:36:42Z</time></trkpt>
<trkpt lat="22.88558" lon="115.241394">
<time>2016-10-06T08:36:43Z</time></trkpt>
<trkpt lat="22.88556" lon="115.241374">
<time>2016-10-06T08:36:44Z</time></trkpt>
<trkpt lat="22.88554" lon="115.241344">
<time>2016-10-06T08:36:45Z</time></trkpt>
<trkpt lat="22.88551" lon="115.241334">
<time>2016-10-06T08:36:46Z</time></trkpt>
<trkpt lat="22.88548" lon="115.241314">
<time>2016-10-06T08:36:47Z</time></trkpt>
<trkpt lat="22.88545" lon="115.241294">
<time>2016-10-06T08:36:48Z</time></trkpt>
<trkpt lat="22.88539" lon="115.241274">
<time>2016-10-06T08:36:49Z</time></trkpt>
<trkpt lat="22.88532" lon="115.241254">
<time>2016-10-06T08:36:50Z</time></trkpt>
<trkpt lat="22.88522" lon="115.241224">
<time>2016-10-06T08:36:51Z</time></trkpt>
<trkpt lat="22.88511" lon="115.241204">
<time>2016-10-06T08:36:52Z</time></trkpt>
<trkpt lat="22.88501" lon="115.241194">
<time>2016-10-06T08:36:53Z</time></trkpt>
<trkpt lat="22.88492" lon="115.241174">
<time>2016-10-06T08:36:54Z</time></trkpt>
<trkpt lat="22.88483" lon="115.241164">
<time>2016-10-06T08:36:55Z</time></trkpt>
<trkpt lat="22.88465" lon="115.241164">
<time>2016-10-06T08:36:56Z</time></trkpt>
<trkpt lat="22.88416" lon="115.241154">
<time>2016-10-06T08:36:57Z</time></trkpt>
<trkpt lat="22.88343" lon="115.241144">
<time>2016-10-06T08:36:58Z</time></trkpt>
<trkpt lat="22.88327" lon="115.241134">
<time>2016-10-06T08:36:59Z</time></trkpt>
<trkpt lat="22.883081" lon="115.241114">
<time>2016-10-06T08:37:00Z</time></trkpt>
<trkpt lat="22.882931" lon="115.241104">
<time>2016-10-06T08:37:01Z</time></trkpt>
<trkpt lat="22.882791" lon="115.241074">
<time>2016-10-06T08:37:02Z</time></trkpt>
<trkpt lat="22.882611" lon="115.241044">
<time>2016-10-06T08:37:03Z</time></trkpt>
<trkpt lat="22.882401" lon="115.240994">
<time>2016-10-06T08:37:04Z</time></trkpt>
<trkpt lat="22.881141" lon="115.240634">
<time>2016-10-06T08:37:05Z</time></trkpt>
<trkpt lat="22.880891" lon="115.240554">
<time>2016-10-06T08:37:06Z</time></trkpt>
<trkpt lat="22.880821" lon="115.240534">
<time>2016-10-06T08:37:07Z</time></trkpt>
<trkpt lat="22.880741" lon="115.240494">
<time>2016-10-06T08:37:08Z</time></trkpt>
<trkpt lat="22.880671" lon="115.240454">
<time>2016-10-06T08:37:09Z</time></trkpt>
<trkpt lat="22.880611" lon="115.240404">
<time>2016-10-06T08:37:10Z</time></trkpt>
<trkpt lat="22.880551" lon="115.240354">
<time>2016-10-06T08:37:11Z</time></trkpt>
<trkpt lat="22.880491" lon="115.240304">
<time>2016-10-06T08:37:12Z</time></trkpt>
<trkpt lat="22.880451" lon="115.240254">
<time>2016-10-06T08:37:13Z</time></trkpt>
<trkpt lat="22.880401" lon="115.240184">
<time>2016-10-06T08:37:14Z</time></trkpt>
<trkpt lat="22.880341" lon="115.240094">
<time>2016-10-06T08:37:15Z</time></trkpt>
<trkpt lat="22.880201" lon="115.239844">
<time>2016-10-06T08:37:16Z</time></trkpt>
<trkpt lat="22.879601" lon="115.238754">
<time>2016-10-06T08:37:17Z</time></trkpt>
<trkpt lat="22.879461" lon="115.238444">
<time>2016-10-06T08:37:18Z</time></trkpt>
<trkpt lat="22.879331" lon="115.238134">
<time>2016-10-06T08:37:19Z</time></trkpt>
<trkpt lat="22.879221" lon="115.237814">
<time>2016-10-06T08:37:20Z</time></trkpt>
<trkpt lat="22.879121" lon="115.237453">
<time>2016-10-06T08:37:21Z</time></trkpt>
<trkpt lat="22.879011" lon="115.236963">
<time>2016-10-06T08:37:22Z</time></trkpt>
<trkpt lat="22.878951" lon="115.236533">
<time>2016-10-06T08:37:23Z</time></trkpt>
<trkpt lat="22.878891" lon="115.236013">
<time>2016-10-06T08:37:24Z</time></trkpt>
<trkpt lat="22.87873" lon="115.233372">
<time>2016-10-06T08:37:25Z</time></trkpt>
<trkpt lat="22.87631" lon="115.231692">
<time>2016-10-06T08:37:26Z</time></trkpt>
<trkpt lat="22.87543" lon="115.231082">
<time>2016-10-06T08:37:27Z</time></trkpt>
<trkpt lat="22.87369" lon="115.229771">
<time>2016-10-06T08:37:28Z</time></trkpt>
<trkpt lat="22.874129" lon="115.22841">
<time>2016-10-06T08:37:29Z</time></trkpt>
<trkpt lat="22.874299" lon="115.2278">
<time>2016-10-06T08:37:30Z</time></trkpt>
<trkpt lat="22.874408" lon="115.22746">
<time>2016-10-06T08:37:31Z</time></trkpt>
<trkpt lat="22.874498" lon="115.22724">
<time>2016-10-06T08:37:32Z</time></trkpt>
<trkpt lat="22.874828" lon="115.226599">
<time>2016-10-06T08:37:33Z</time></trkpt>
<trkpt lat="22.875507" lon="115.225278">
<time>2016-10-06T08:37:34Z</time></trkpt>
<trkpt lat="22.876175" lon="115.224017">
<time>2016-10-06T08:37:35Z</time></trkpt>
<trkpt lat="22.877134" lon="115.222236">
<time>2016-10-06T08:37:36Z</time></trkpt>
<trkpt lat="22.877153" lon="115.222196">
<time>2016-10-06T08:37:37Z</time></trkpt>
<trkpt lat="22.878611" lon="115.219654">
<time>2016-10-06T08:37:38Z</time></trkpt>
<trkpt lat="22.8787" lon="115.219493">
<time>2016-10-06T08:37:39Z</time></trkpt>
<trkpt lat="22.8787" lon="115.219493">
<time>2016-10-06T08:37:40Z</time></trkpt>
<trkpt lat="22.87556" lon="115.218092">
<time>2016-10-06T08:37:41Z</time></trkpt>
<trkpt lat="22.87512" lon="115.217922">
<time>2016-10-06T08:37:42Z</time></trkpt>
<trkpt lat="22.87488" lon="115.217792">
<time>2016-10-06T08:37:43Z</time></trkpt>
<trkpt lat="22.87471" lon="115.217732">
<time>2016-10-06T08:37:44Z</time></trkpt>
<trkpt lat="22.87441" lon="115.217702">
<time>2016-10-06T08:37:45Z</time></trkpt>
<trkpt lat="22.873921" lon="115.217692">
<time>2016-10-06T08:37:46Z</time></trkpt>
<trkpt lat="22.873741" lon="115.217652">
<time>2016-10-06T08:37:47Z</time></trkpt>
<trkpt lat="22.873131" lon="115.217352">
<time>2016-10-06T08:37:48Z</time></trkpt>
<trkpt lat="22.873131" lon="115.217352">
<time>2016-10-06T08:37:49Z</time></trkpt>
<trkpt lat="22.87328" lon="115.217052">
<time>2016-10-06T08:37:50Z</time></trkpt>
<trkpt lat="22.8733" lon="115.216981">
<time>2016-10-06T08:37:51Z</time></trkpt>
<trkpt lat="22.87329" lon="115.216961">
<time>2016-10-06T08:37:52Z</time></trkpt>
<trkpt lat="22.87324" lon="115.216911">
<time>2016-10-06T08:37:53Z</time></trkpt>
<trkpt lat="22.87321" lon="115.216871">
<time>2016-10-06T08:37:54Z</time></trkpt>
<trkpt lat="22.87321" lon="115.216831">
<time>2016-10-06T08:37:55Z</time></trkpt>
<trkpt lat="22.87335" lon="115.216531">
<time>2016-10-06T08:37:56Z</time></trkpt>
<trkpt lat="22.873469" lon="115.216311">
<time>2016-10-06T08:37:57Z</time></trkpt>
<trkpt lat="22.873479" lon="115.216261">
<time>2016-10-06T08:37:58Z</time></trkpt>
<trkpt lat="22.873469" lon="115.216221">
<time>2016-10-06T08:37:59Z</time></trkpt>
<trkpt lat="22.873399" lon="115.216181">
<time>2016-10-06T08:38:00Z</time></trkpt>
<trkpt lat="22.873219" lon="115.216071">
<time>2016-10-06T08:38:01Z</time></trkpt>
<trkpt lat="22.872949" lon="115.2159">
<time>2016-10-06T08:38:02Z</time></trkpt>
<trkpt lat="22.872949" lon="115.2159">
<time>2016-10-06T08:38:03Z</time></trkpt>
<trkpt lat="22.872989" lon="115.21585">
<time>2016-10-06T08:38:04Z</time></trkpt>
<trkpt lat="22.873198" lon="115.21532">
<time>2016-10-06T08:38:05Z</time></trkpt>
<trkpt lat="22.873198" lon="115.21531">
<time>2016-10-06T08:38:06Z</time></trkpt>
<trkpt lat="22.873338" lon="115.214909">
<time>2016-10-06T08:38:07Z</time></trkpt>
<trkpt lat="22.873368" lon="115.214789">
<time>2016-10-06T08:38:08Z</time></trkpt>
<trkpt lat="22.873467" lon="115.214429">
<time>2016-10-06T08:38:09Z</time></trkpt>
<trkpt lat="22.873477" lon="115.213928">
<time>2016-10-06T08:38:10Z</time></trkpt>
<trkpt lat="22.873517" lon="115.213688">
<time>2016-10-06T08:38:11Z</time></trkpt>
<trkpt lat="22.873616" lon="115.212977">
<time>2016-10-06T08:38:12Z</time></trkpt>
<trkpt lat="22.873824" lon="115.211616">
<time>2016-10-06T08:38:13Z</time></trkpt>
<trkpt lat="22.873824" lon="115.211616">
<time>2016-10-06T08:38:14Z</time></trkpt>
<trkpt lat="22.872904" lon="115.211646">
<time>2016-10-06T08:38:15Z</time></trkpt>
<trkpt lat="22.872305" lon="115.211666">
<time>2016-10-06T08:38:16Z</time></trkpt>
<trkpt lat="22.870576" lon="115.211736">
<time>2016-10-06T08:38:17Z</time></trkpt>
<trkpt lat="22.870206" lon="115.211756">
<time>2016-10-06T08:38:18Z</time></trkpt>
<trkpt lat="22.869416" lon="115.211676">
<time>2016-10-06T08:38:19Z</time></trkpt>
<trkpt lat="22.868346" lon="115.211576">
<time>2016-10-06T08:38:20Z</time></trkpt>
<trkpt lat="22.866137" lon="115.211366">
<time>2016-10-06T08:38:21Z</time></trkpt>
<trkpt lat="22.865647" lon="115.211316">
<time>2016-10-06T08:38:22Z</time></trkpt>
<trkpt lat="22.863917" lon="115.211126">
<time>2016-10-06T08:38:23Z</time></trkpt>
<trkpt lat="22.862618" lon="115.210986">
<time>2016-10-06T08:38:24Z</time></trkpt>
<trkpt lat="22.862318" lon="115.210956">
<time>2016-10-06T08:38:25Z</time></trkpt>
<trkpt lat="22.862078" lon="115.210936">
<time>2016-10-06T08:38:26Z</time></trkpt>
<trkpt lat="22.861348" lon="115.210896">
<time>2016-10-06T08:38:27Z</time></trkpt>
<trkpt lat="22.859359" lon="115.210806">
<time>2016-10-06T08:38:28Z</time></trkpt>
<trkpt lat="22.858959" lon="115.210786">
<time>2016-10-06T08:38:29Z</time></trkpt>
<trkpt lat="22.858769" lon="115.210786">
<time>2016-10-06T08:38:30Z</time></trkpt>
<trkpt lat="22.858169" lon="115.210796">
<time>2016-10-06T08:38:31Z</time></trkpt>
<trkpt lat="22.857789" lon="115.210816">
<time>2016-10-06T08:38:32Z</time></trkpt>
<trkpt lat="22.85724" lon="115.210866">
<time>2016-10-06T08:38:33Z</time></trkpt>
<trkpt lat="22.85673" lon="115.210916">
<time>2016-10-06T08:38:34Z</time></trkpt>
<trkpt lat="22.854931" lon="115.211106">
<time>2016-10-06T08:38:35Z</time></trkpt>
<trkpt lat="22.852912" lon="115.211327">
<time>2016-10-06T08:38:36Z</time></trkpt>
<trkpt lat="22.847345" lon="115.211918">
<time>2016-10-06T08:38:37Z</time></trkpt>
<trkpt lat="22.845975" lon="115.212068">
<time>2016-10-06T08:38:38Z</time></trkpt>
<trkpt lat="22.842847" lon="115.212459">
<time>2016-10-06T08:38:39Z</time></trkpt>
<trkpt lat="22.842847" lon="115.212459">
<time>2016-10-06T08:38:40Z</time></trkpt>
<trkpt lat="22.842725" lon="115.210466">
<time>2016-10-06T08:38:41Z</time></trkpt>
<trkpt lat="22.842308" lon="115.20514">
<time>2016-10-06T08:38:42Z</time></trkpt>
<trkpt lat="22.841963" lon="115.201344">
<time>2016-10-06T08:38:43Z</time></trkpt>
<trkpt lat="22.841913" lon="115.201044">
<time>2016-10-06T08:38:44Z</time></trkpt>
<trkpt lat="22.841842" lon="115.200754">
<time>2016-10-06T08:38:45Z</time></trkpt>
<trkpt lat="22.841018" lon="115.197849">
<time>2016-10-06T08:38:46Z</time></trkpt>
<trkpt lat="22.840797" lon="115.197088">
<time>2016-10-06T08:38:47Z</time></trkpt>
<trkpt lat="22.840606" lon="115.196317">
<time>2016-10-06T08:38:48Z</time></trkpt>
<trkpt lat="22.840223" lon="115.194554">
<time>2016-10-06T08:38:49Z</time></trkpt>
<trkpt lat="22.839961" lon="115.193322">
<time>2016-10-06T08:38:50Z</time></trkpt>
<trkpt lat="22.839901" lon="115.193052">
<time>2016-10-06T08:38:51Z</time></trkpt>
<trkpt lat="22.839851" lon="115.192851">
<time>2016-10-06T08:38:52Z</time></trkpt>
<trkpt lat="22.83974" lon="115.192511">
<time>2016-10-06T08:38:53Z</time></trkpt>
<trkpt lat="22.837802" lon="115.187182">
<time>2016-10-06T08:38:54Z</time></trkpt>
<trkpt lat="22.837119" lon="115.185329">
<time>2016-10-06T08:38:55Z</time></trkpt>
<trkpt lat="22.836687" lon="115.184137">
<time>2016-10-06T08:38:56Z</time></trkpt>
<trkpt lat="22.836024" lon="115.182293">
<time>2016-10-06T08:38:57Z</time></trkpt>
<trkpt lat="22.835732" lon="115.181322">
<time>2016-10-06T08:38:58Z</time></trkpt>
<trkpt lat="22.835501" lon="115.18052">
<time>2016-10-06T08:38:59Z</time></trkpt>
<trkpt lat="22.834847" lon="115.178316">
<time>2016-10-06T08:39:00Z</time></trkpt>
<trkpt lat="22.834766" lon="115.177966">
<time>2016-10-06T08:39:01Z</time></trkpt>
<trkpt lat="22.834726" lon="115.177785">
<time>2016-10-06T08:39:02Z</time></trkpt>
<trkpt lat="22.834706" lon="115.177565">
<time>2016-10-06T08:39:03Z</time></trkpt>
<trkpt lat="22.834695" lon="115.177214">
<time>2016-10-06T08:39:04Z</time></trkpt>
<trkpt lat="22.834684" lon="115.176934">
<time>2016-10-06T08:39:05Z</time></trkpt>
<trkpt lat="22.834684" lon="115.176803">
<time>2016-10-06T08:39:06Z</time></trkpt>
<trkpt lat="22.834684" lon="115.176763">
<time>2016-10-06T08:39:07Z</time></trkpt>
<trkpt lat="22.834694" lon="115.176723">
<time>2016-10-06T08:39:08Z</time></trkpt>
<trkpt lat="22.834704" lon="115.176673">
<time>2016-10-06T08:39:09Z</time></trkpt>
<trkpt lat="22.834714" lon="115.176623">
<time>2016-10-06T08:39:10Z</time></trkpt>
<trkpt lat="22.834724" lon="115.176573">
<time>2016-10-06T08:39:11Z</time></trkpt>
<trkpt lat="22.834744" lon="115.176523">
<time>2016-10-06T08:39:12Z</time></trkpt>
<trkpt lat="22.834764" lon="115.176463">
<time>2016-10-06T08:39:13Z</time></trkpt>
<trkpt lat="22.834833" lon="115.176292">
<time>2016-10-06T08:39:14Z</time></trkpt>
<trkpt lat="22.835411" lon="115.17516">
<time>2016-10-06T08:39:15Z</time></trkpt>
<trkpt lat="22.835411" lon="115.17516">
<time>2016-10-06T08:39:16Z</time></trkpt>
<trkpt lat="22.83359" lon="115.174409">
<time>2016-10-06T08:39:17Z</time></trkpt>
<trkpt lat="22.83345" lon="115.174359">
<time>2016-10-06T08:39:18Z</time></trkpt>
<trkpt lat="22.83334" lon="115.174309">
<time>2016-10-06T08:39:19Z</time></trkpt>
<trkpt lat="22.83208" lon="115.173778">
<time>2016-10-06T08:39:20Z</time></trkpt>
<trkpt lat="22.83208" lon="115.173778">
<time>2016-10-06T08:39:21Z</time></trkpt>
<trkpt lat="22.83208" lon="115.173758">
<time>2016-10-06T08:39:22Z</time></trkpt>
<trkpt lat="22.832059" lon="115.173648">
<time>2016-10-06T08:39:23Z</time></trkpt>
<trkpt lat="22.832049" lon="115.173537">
<time>2016-10-06T08:39:24Z</time></trkpt>
<trkpt lat="22.832039" lon="115.173407">
<time>2016-10-06T08:39:25Z</time></trkpt>
<trkpt lat="22.832029" lon="115.173207">
<time>2016-10-06T08:39:26Z</time></trkpt>
<trkpt lat="22.832008" lon="115.173016">
<time>2016-10-06T08:39:27Z</time></trkpt>
<trkpt lat="22.831998" lon="115.172926">
<time>2016-10-06T08:39:28Z</time></trkpt>
<trkpt lat="22.831978" lon="115.172846">
<time>2016-10-06T08:39:29Z</time></trkpt>
<trkpt lat="22.831958" lon="115.172756">
<time>2016-10-06T08:39:30Z</time></trkpt>
<trkpt lat="22.831928" lon="115.172666">
<time>2016-10-06T08:39:31Z</time></trkpt>
<trkpt lat="22.831917" lon="115.172646">
<time>2016-10-06T08:39:32Z</time></trkpt>
<trkpt lat="22.831907" lon="115.172616">
<time>2016-10-06T08:39:33Z</time></trkpt>
<trkpt lat="22.831887" lon="115.172586">
<time>2016-10-06T08:39:34Z</time></trkpt>
<trkpt lat="22.831877" lon="115.172556">
<time>2016-10-06T08:39:35Z</time></trkpt>
<trkpt lat="22.831827" lon="115.172485">
<time>2016-10-06T08:39:36Z</time></trkpt>
<trkpt lat="22.831777" lon="115.172425">
<time>2016-10-06T08:39:37Z</time></trkpt>
<trkpt lat="22.831657" lon="115.172295">
<time>2016-10-06T08:39:38Z</time></trkpt>
<trkpt lat="22.831577" lon="115.172195">
<time>2016-10-06T08:39:39Z</time></trkpt>
<trkpt lat="22.831487" lon="115.172075">
<time>2016-10-06T08:39:40Z</time></trkpt>
<trkpt lat="22.831166" lon="115.171664">
<time>2016-10-06T08:39:41Z</time></trkpt>
<trkpt lat="22.830695" lon="115.171063">
<time>2016-10-06T08:39:42Z</time></trkpt>
<trkpt lat="22.830454" lon="115.170742">
<time>2016-10-06T08:39:43Z</time></trkpt>
<trkpt lat="22.830304" lon="115.170532">
<time>2016-10-06T08:39:44Z</time></trkpt>
<trkpt lat="22.830214" lon="115.170341">
<time>2016-10-06T08:39:45Z</time></trkpt>
<trkpt lat="22.830133" lon="115.170151">
<time>2016-10-06T08:39:46Z</time></trkpt>
<trkpt lat="22.830043" lon="115.169881">
<time>2016-10-06T08:39:47Z</time></trkpt>
<trkpt lat="22.830043" lon="115.169881">
<time>2016-10-06T08:39:48Z</time></trkpt>
<trkpt lat="22.829633" lon="115.170051">
<time>2016-10-06T08:39:49Z</time></trkpt>
<trkpt lat="22.829324" lon="115.170171">
<time>2016-10-06T08:39:50Z</time></trkpt>
<trkpt lat="22.828345" lon="115.170572">
<time>2016-10-06T08:39:51Z</time></trkpt>
<trkpt lat="22.827406" lon="115.170973">
<time>2016-10-06T08:39:52Z</time></trkpt>
<trkpt lat="22.826757" lon="115.171253">
<time>2016-10-06T08:39:53Z</time></trkpt>
<trkpt lat="22.826487" lon="115.171374">
<time>2016-10-06T08:39:54Z</time></trkpt>
<trkpt lat="22.826327" lon="115.171444">
<time>2016-10-06T08:39:55Z</time></trkpt>
<trkpt lat="22.826058" lon="115.171564">
<time>2016-10-06T08:39:56Z</time></trkpt>
<trkpt lat="22.825688" lon="115.171734">
<time>2016-10-06T08:39:57Z</time></trkpt>
<trkpt lat="22.825378" lon="115.171885">
<time>2016-10-06T08:39:58Z</time></trkpt>
<trkpt lat="22.824989" lon="115.172075">
<time>2016-10-06T08:39:59Z</time></trkpt>
<trkpt lat="22.824659" lon="115.172245">
<time>2016-10-06T08:40:00Z</time></trkpt>
<trkpt lat="22.823261" lon="115.172997">
<time>2016-10-06T08:40:01Z</time></trkpt>
<trkpt lat="22.822862" lon="115.173217">
<time>2016-10-06T08:40:02Z</time></trkpt>
<trkpt lat="22.822502" lon="115.173408">
<time>2016-10-06T08:40:03Z</time></trkpt>
<trkpt lat="22.822033" lon="115.173648">
<time>2016-10-06T08:40:04Z</time></trkpt>
<trkpt lat="22.821813" lon="115.173768">
<time>2016-10-06T08:40:05Z</time></trkpt>
<trkpt lat="22.821733" lon="115.173809">
<time>2016-10-06T08:40:06Z</time></trkpt>
<trkpt lat="22.821654" lon="115.173839">
<time>2016-10-06T08:40:07Z</time></trkpt>
<trkpt lat="22.821574" lon="115.173859">
<time>2016-10-06T08:40:08Z</time></trkpt>
<trkpt lat="22.821484" lon="115.173879">
<time>2016-10-06T08:40:09Z</time></trkpt>
<trkpt lat="22.821394" lon="115.173879">
<time>2016-10-06T08:40:10Z</time></trkpt>
<trkpt lat="22.821304" lon="115.173869">
<time>2016-10-06T08:40:11Z</time></trkpt>
<trkpt lat="22.821224" lon="115.173839">
<time>2016-10-06T08:40:12Z</time></trkpt>
<trkpt lat="22.821144" lon="115.173799">
<time>2016-10-06T08:40:13Z</time></trkpt>
<trkpt lat="22.821074" lon="115.173738">
<time>2016-10-06T08:40:14Z</time></trkpt>
<trkpt lat="22.821013" lon="115.173668">
<time>2016-10-06T08:40:15Z</time></trkpt>
<trkpt lat="22.820953" lon="115.173608">
<time>2016-10-06T08:40:16Z</time></trkpt>
<trkpt lat="22.820883" lon="115.173518">
<time>2016-10-06T08:40:17Z</time></trkpt>
<trkpt lat="22.820843" lon="115.173458">
<time>2016-10-06T08:40:18Z</time></trkpt>
<trkpt lat="22.820763" lon="115.173328">
<time>2016-10-06T08:40:19Z</time></trkpt>
<trkpt lat="22.820683" lon="115.173208">
<time>2016-10-06T08:40:20Z</time></trkpt>
<trkpt lat="22.820572" lon="115.173027">
<time>2016-10-06T08:40:21Z</time></trkpt>
<trkpt lat="22.820522" lon="115.172957">
<time>2016-10-06T08:40:22Z</time></trkpt>
<trkpt lat="22.820472" lon="115.172877">
<time>2016-10-06T08:40:23Z</time></trkpt>
<trkpt lat="22.820412" lon="115.172797">
<time>2016-10-06T08:40:24Z</time></trkpt>
<trkpt lat="22.820352" lon="115.172727">
<time>2016-10-06T08:40:25Z</time></trkpt>
<trkpt lat="22.820272" lon="115.172656">
<time>2016-10-06T08:40:26Z</time></trkpt>
<trkpt lat="22.820202" lon="115.172616">
<time>2016-10-06T08:40:27Z</time></trkpt>
<trkpt lat="22.820112" lon="115.172576">
<time>2016-10-06T08:40:28Z</time></trkpt>
<trkpt lat="22.820052" lon="115.172556">
<time>2016-10-06T08:40:29Z</time></trkpt>
<trkpt lat="22.819992" lon="115.172536">
<time>2016-10-06T08:40:30Z</time></trkpt>
<trkpt lat="22.819902" lon="115.172516">
<time>2016-10-06T08:40:31Z</time></trkpt>
<trkpt lat="22.819482" lon="115.172416">
<time>2016-10-06T08:40:32Z</time></trkpt>
<trkpt lat="22.818332" lon="115.172166">
<time>2016-10-06T08:40:33Z</time></trkpt>
<trkpt lat="22.818232" lon="115.172136">
<time>2016-10-06T08:40:34Z</time></trkpt>
<trkpt lat="22.818132" lon="115.172116">
<time>2016-10-06T08:40:35Z</time></trkpt>
<trkpt lat="22.818022" lon="115.172086">
<time>2016-10-06T08:40:36Z</time></trkpt>
<trkpt lat="22.817952" lon="115.172066">
<time>2016-10-06T08:40:37Z</time></trkpt>
<trkpt lat="22.817842" lon="115.172056">
<time>2016-10-06T08:40:38Z</time></trkpt>
<trkpt lat="22.817752" lon="115.172035">
<time>2016-10-06T08:40:39Z</time></trkpt>
<trkpt lat="22.817662" lon="115.172035">
<time>2016-10-06T08:40:40Z</time></trkpt>
<trkpt lat="22.817562" lon="115.172035">
<time>2016-10-06T08:40:41Z</time></trkpt>
<trkpt lat="22.817482" lon="115.172046">
<time>2016-10-06T08:40:42Z</time></trkpt>
<trkpt lat="22.817392" lon="115.172056">
<time>2016-10-06T08:40:43Z</time></trkpt>
<trkpt lat="22.817302" lon="115.172076">
<time>2016-10-06T08:40:44Z</time></trkpt>
<trkpt lat="22.817212" lon="115.172096">
<time>2016-10-06T08:40:45Z</time></trkpt>
<trkpt lat="22.817122" lon="115.172136">
<time>2016-10-06T08:40:46Z</time></trkpt>
<trkpt lat="22.817042" lon="115.172176">
<time>2016-10-06T08:40:47Z</time></trkpt>
<trkpt lat="22.816962" lon="115.172226">
<time>2016-10-06T08:40:48Z</time></trkpt>
<trkpt lat="22.816892" lon="115.172276">
<time>2016-10-06T08:40:49Z</time></trkpt>
<trkpt lat="22.816832" lon="115.172346">
<time>2016-10-06T08:40:50Z</time></trkpt>
<trkpt lat="22.816773" lon="115.172416">
<time>2016-10-06T08:40:51Z</time></trkpt>
<trkpt lat="22.816733" lon="115.172476">
<time>2016-10-06T08:40:52Z</time></trkpt>
<trkpt lat="22.816633" lon="115.172607">
<time>2016-10-06T08:40:53Z</time></trkpt>
<trkpt lat="22.816573" lon="115.172687">
<time>2016-10-06T08:40:54Z</time></trkpt>
<trkpt lat="22.816533" lon="115.172727">
<time>2016-10-06T08:40:55Z</time></trkpt>
<trkpt lat="22.816513" lon="115.172757">
<time>2016-10-06T08:40:56Z</time></trkpt>
<trkpt lat="22.816483" lon="115.172807">
<time>2016-10-06T08:40:57Z</time></trkpt>
<trkpt lat="22.816414" lon="115.172867">
<time>2016-10-06T08:40:58Z</time></trkpt>
<trkpt lat="22.816344" lon="115.172927">
<time>2016-10-06T08:40:59Z</time></trkpt>
<trkpt lat="22.816274" lon="115.172987">
<time>2016-10-06T08:41:00Z</time></trkpt>
<trkpt lat="22.816204" lon="115.173027">
<time>2016-10-06T08:41:01Z</time></trkpt>
<trkpt lat="22.816114" lon="115.173088">
<time>2016-10-06T08:41:02Z</time></trkpt>
<trkpt lat="22.816034" lon="115.173128">
<time>2016-10-06T08:41:03Z</time></trkpt>
<trkpt lat="22.815944" lon="115.173158">
<time>2016-10-06T08:41:04Z</time></trkpt>
<trkpt lat="22.815864" lon="115.173178">
<time>2016-10-06T08:41:05Z</time></trkpt>
<trkpt lat="22.815774" lon="115.173198">
<time>2016-10-06T08:41:06Z</time></trkpt>
<trkpt lat="22.815674" lon="115.173198">
<time>2016-10-06T08:41:07Z</time></trkpt>
<trkpt lat="22.815595" lon="115.173188">
<time>2016-10-06T08:41:08Z</time></trkpt>
<trkpt lat="22.815514" lon="115.173168">
<time>2016-10-06T08:41:09Z</time></trkpt>
<trkpt lat="22.815434" lon="115.173138">
<time>2016-10-06T08:41:10Z</time></trkpt>
<trkpt lat="22.815354" lon="115.173098">
<time>2016-10-06T08:41:11Z</time></trkpt>
<trkpt lat="22.815274" lon="115.173038">
<time>2016-10-06T08:41:12Z</time></trkpt>
<trkpt lat="22.815214" lon="115.172977">
<time>2016-10-06T08:41:13Z</time></trkpt>
<trkpt lat="22.815144" lon="115.172907">
<time>2016-10-06T08:41:14Z</time></trkpt>
<trkpt lat="22.815094" lon="115.172837">
<time>2016-10-06T08:41:15Z</time></trkpt>
<trkpt lat="22.815014" lon="115.172727">
<time>2016-10-06T08:41:16Z</time></trkpt>
<trkpt lat="22.814954" lon="115.172627">
<time>2016-10-06T08:41:17Z</time></trkpt>
<trkpt lat="22.814884" lon="115.172527">
<time>2016-10-06T08:41:18Z</time></trkpt>
<trkpt lat="22.814833" lon="115.172456">
<time>2016-10-06T08:41:19Z</time></trkpt>
<trkpt lat="22.814773" lon="115.172376">
<time>2016-10-06T08:41:20Z</time></trkpt>
<trkpt lat="22.814713" lon="115.172306">
<time>2016-10-06T08:41:21Z</time></trkpt>
<trkpt lat="22.814623" lon="115.172216">
<time>2016-10-06T08:41:22Z</time></trkpt>
<trkpt lat="22.814523" lon="115.172106">
<time>2016-10-06T08:41:23Z</time></trkpt>
<trkpt lat="22.814423" lon="115.172006">
<time>2016-10-06T08:41:24Z</time></trkpt>
<trkpt lat="22.814353" lon="115.171946">
<time>2016-10-06T08:41:25Z</time></trkpt>
<trkpt lat="22.814252" lon="115.171845">
<time>2016-10-06T08:41:26Z</time></trkpt>
<trkpt lat="22.814192" lon="115.171775">
<time>2016-10-06T08:41:27Z</time></trkpt>
<trkpt lat="22.814122" lon="115.171705">
<time>2016-10-06T08:41:28Z</time></trkpt>
<trkpt lat="22.814072" lon="115.171635">
<time>2016-10-06T08:41:29Z</time></trkpt>
<trkpt lat="22.814022" lon="115.171575">
<time>2016-10-06T08:41:30Z</time></trkpt>
<trkpt lat="22.813952" lon="115.171475">
<time>2016-10-06T08:41:31Z</time></trkpt>
<trkpt lat="22.813811" lon="115.171244">
<time>2016-10-06T08:41:32Z</time></trkpt>
<trkpt lat="22.813501" lon="115.170743">
<time>2016-10-06T08:41:33Z</time></trkpt>
<trkpt lat="22.81339" lon="115.170573">
<time>2016-10-06T08:41:34Z</time></trkpt>
<trkpt lat="22.81334" lon="115.170493">
<time>2016-10-06T08:41:35Z</time></trkpt>
<trkpt lat="22.81329" lon="115.170413">
<time>2016-10-06T08:41:36Z</time></trkpt>
<trkpt lat="22.81322" lon="115.170333">
<time>2016-10-06T08:41:37Z</time></trkpt>
<trkpt lat="22.81316" lon="115.170272">
<time>2016-10-06T08:41:38Z</time></trkpt>
<trkpt lat="22.81308" lon="115.170222">
<time>2016-10-06T08:41:39Z</time></trkpt>
<trkpt lat="22.81301" lon="115.170172">
<time>2016-10-06T08:41:40Z</time></trkpt>
<trkpt lat="22.81292" lon="115.170132">
<time>2016-10-06T08:41:41Z</time></trkpt>
<trkpt lat="22.81283" lon="115.170092">
<time>2016-10-06T08:41:42Z</time></trkpt>
<trkpt lat="22.81275" lon="115.170072">
<time>2016-10-06T08:41:43Z</time></trkpt>
<trkpt lat="22.81266" lon="115.170052">
<time>2016-10-06T08:41:44Z</time></trkpt>
<trkpt lat="22.8126" lon="115.170052">
<time>2016-10-06T08:41:45Z</time></trkpt>
<trkpt lat="22.81254" lon="115.170042">
<time>2016-10-06T08:41:46Z</time></trkpt>
<trkpt lat="22.81241" lon="115.170032">
<time>2016-10-06T08:41:47Z</time></trkpt>
<trkpt lat="22.81229" lon="115.170022">
<time>2016-10-06T08:41:48Z</time></trkpt>
<trkpt lat="22.81203" lon="115.170002">
<time>2016-10-06T08:41:49Z</time></trkpt>
<trkpt lat="22.81187" lon="115.169982">
<time>2016-10-06T08:41:50Z</time></trkpt>
<trkpt lat="22.81177" lon="115.169972">
<time>2016-10-06T08:41:51Z</time></trkpt>
<trkpt lat="22.81167" lon="115.169952">
<time>2016-10-06T08:41:52Z</time></trkpt>
<trkpt lat="22.81159" lon="115.169932">
<time>2016-10-06T08:41:53Z</time></trkpt>
<trkpt lat="22.81151" lon="115.169892">
<time>2016-10-06T08:41:54Z</time></trkpt>
<trkpt lat="22.81143" lon="115.169842">
<time>2016-10-06T08:41:55Z</time></trkpt>
<trkpt lat="22.81136" lon="115.169792">
<time>2016-10-06T08:41:56Z</time></trkpt>
<trkpt lat="22.8113" lon="115.169732">
<time>2016-10-06T08:41:57Z</time></trkpt>
<trkpt lat="22.811229" lon="115.169671">
<time>2016-10-06T08:41:58Z</time></trkpt>
<trkpt lat="22.811089" lon="115.169521">
<time>2016-10-06T08:41:59Z</time></trkpt>
<trkpt lat="22.810889" lon="115.169301">
<time>2016-10-06T08:42:00Z</time></trkpt>
<trkpt lat="22.810769" lon="115.169171">
<time>2016-10-06T08:42:01Z</time></trkpt>
<trkpt lat="22.810709" lon="115.1691">
<time>2016-10-06T08:42:02Z</time></trkpt>
<trkpt lat="22.810658" lon="115.16903">
<time>2016-10-06T08:42:03Z</time></trkpt>
<trkpt lat="22.810588" lon="115.16893">
<time>2016-10-06T08:42:04Z</time></trkpt>
<trkpt lat="22.810528" lon="115.16884">
<time>2016-10-06T08:42:05Z</time></trkpt>
<trkpt lat="22.810398" lon="115.168629">
<time>2016-10-06T08:42:06Z</time></trkpt>
<trkpt lat="22.810348" lon="115.168559">
<time>2016-10-06T08:42:07Z</time></trkpt>
<trkpt lat="22.810288" lon="115.168479">
<time>2016-10-06T08:42:08Z</time></trkpt>
<trkpt lat="22.810247" lon="115.168419">
<time>2016-10-06T08:42:09Z</time></trkpt>
<trkpt lat="22.810177" lon="115.168339">
<time>2016-10-06T08:42:10Z</time></trkpt>
<trkpt lat="22.810087" lon="115.168249">
<time>2016-10-06T08:42:11Z</time></trkpt>
<trkpt lat="22.809997" lon="115.168169">
<time>2016-10-06T08:42:12Z</time></trkpt>
<trkpt lat="22.809907" lon="115.168089">
<time>2016-10-06T08:42:13Z</time></trkpt>
<trkpt lat="22.809817" lon="115.168008">
<time>2016-10-06T08:42:14Z</time></trkpt>
<trkpt lat="22.809757" lon="115.167948">
<time>2016-10-06T08:42:15Z</time></trkpt>
<trkpt lat="22.809707" lon="115.167888">
<time>2016-10-06T08:42:16Z</time></trkpt>
<trkpt lat="22.809646" lon="115.167798">
<time>2016-10-06T08:42:17Z</time></trkpt>
<trkpt lat="22.809596" lon="115.167728">
<time>2016-10-06T08:42:18Z</time></trkpt>
<trkpt lat="22.809546" lon="115.167658">
<time>2016-10-06T08:42:19Z</time></trkpt>
<trkpt lat="22.809506" lon="115.167568">
<time>2016-10-06T08:42:20Z</time></trkpt>
<trkpt lat="22.809466" lon="115.167477">
<time>2016-10-06T08:42:21Z</time></trkpt>
<trkpt lat="22.809426" lon="115.167387">
<time>2016-10-06T08:42:22Z</time></trkpt>
<trkpt lat="22.809396" lon="115.167297">
<time>2016-10-06T08:42:23Z</time></trkpt>
<trkpt lat="22.809375" lon="115.167197">
<time>2016-10-06T08:42:24Z</time></trkpt>
<trkpt lat="22.809355" lon="115.167117">
<time>2016-10-06T08:42:25Z</time></trkpt>
<trkpt lat="22.809345" lon="115.167027">
<time>2016-10-06T08:42:26Z</time></trkpt>
<trkpt lat="22.809335" lon="115.166916">
<time>2016-10-06T08:42:27Z</time></trkpt>
<trkpt lat="22.809325" lon="115.166736">
<time>2016-10-06T08:42:28Z</time></trkpt>
<trkpt lat="22.809314" lon="115.166636">
<time>2016-10-06T08:42:29Z</time></trkpt>
<trkpt lat="22.809294" lon="115.166536">
<time>2016-10-06T08:42:30Z</time></trkpt>
<trkpt lat="22.809274" lon="115.166445">
<time>2016-10-06T08:42:31Z</time></trkpt>
<trkpt lat="22.809244" lon="115.166355">
<time>2016-10-06T08:42:32Z</time></trkpt>
<trkpt lat="22.809214" lon="115.166255">
<time>2016-10-06T08:42:33Z</time></trkpt>
<trkpt lat="22.809184" lon="115.166165">
<time>2016-10-06T08:42:34Z</time></trkpt>
<trkpt lat="22.809103" lon="115.165975">
<time>2016-10-06T08:42:35Z</time></trkpt>
<trkpt lat="22.808892" lon="115.165474">
<time>2016-10-06T08:42:36Z</time></trkpt>
<trkpt lat="22.808822" lon="115.165283">
<time>2016-10-06T08:42:37Z</time></trkpt>
<trkpt lat="22.808782" lon="115.165183">
<time>2016-10-06T08:42:38Z</time></trkpt>
<trkpt lat="22.808762" lon="115.165093">
<time>2016-10-06T08:42:39Z</time></trkpt>
<trkpt lat="22.808741" lon="115.164993">
<time>2016-10-06T08:42:40Z</time></trkpt>
<trkpt lat="22.808741" lon="115.164903">
<time>2016-10-06T08:42:41Z</time></trkpt>
<trkpt lat="22.808741" lon="115.164802">
<time>2016-10-06T08:42:42Z</time></trkpt>
<trkpt lat="22.808751" lon="115.164712">
<time>2016-10-06T08:42:43Z</time></trkpt>
<trkpt lat="22.808771" lon="115.164622">
<time>2016-10-06T08:42:44Z</time></trkpt>
<trkpt lat="22.808801" lon="115.164532">
<time>2016-10-06T08:42:45Z</time></trkpt>
<trkpt lat="22.80884" lon="115.164392">
<time>2016-10-06T08:42:46Z</time></trkpt>
<trkpt lat="22.80889" lon="115.164251">
<time>2016-10-06T08:42:47Z</time></trkpt>
<trkpt lat="22.80895" lon="115.164081">
<time>2016-10-06T08:42:48Z</time></trkpt>
<trkpt lat="22.809019" lon="115.163891">
<time>2016-10-06T08:42:49Z</time></trkpt>
<trkpt lat="22.809089" lon="115.16374">
<time>2016-10-06T08:42:50Z</time></trkpt>
<trkpt lat="22.809149" lon="115.1636">
<time>2016-10-06T08:42:51Z</time></trkpt>
<trkpt lat="22.809218" lon="115.16347">
<time>2016-10-06T08:42:52Z</time></trkpt>
<trkpt lat="22.809318" lon="115.163299">
<time>2016-10-06T08:42:53Z</time></trkpt>
<trkpt lat="22.809458" lon="115.163099">
<time>2016-10-06T08:42:54Z</time></trkpt>
<trkpt lat="22.809617" lon="115.162879">
<time>2016-10-06T08:42:55Z</time></trkpt>
<trkpt lat="22.809697" lon="115.162778">
<time>2016-10-06T08:42:56Z</time></trkpt>
<trkpt lat="22.809946" lon="115.162438">
<time>2016-10-06T08:42:57Z</time></trkpt>
<trkpt lat="22.810176" lon="115.162117">
<time>2016-10-06T08:42:58Z</time></trkpt>
<trkpt lat="22.810365" lon="115.161847">
<time>2016-10-06T08:42:59Z</time></trkpt>
<trkpt lat="22.810644" lon="115.161476">
<time>2016-10-06T08:43:00Z</time></trkpt>
<trkpt lat="22.811073" lon="115.160905">
<time>2016-10-06T08:43:01Z</time></trkpt>
<trkpt lat="22.811223" lon="115.160704">
<time>2016-10-06T08:43:02Z</time></trkpt>
<trkpt lat="22.811552" lon="115.160274">
<time>2016-10-06T08:43:03Z</time></trkpt>
<trkpt lat="22.811771" lon="115.159963">
<time>2016-10-06T08:43:04Z</time></trkpt>
<trkpt lat="22.81227" lon="115.159302">
<time>2016-10-06T08:43:05Z</time></trkpt>
<trkpt lat="22.812519" lon="115.158981">
<time>2016-10-06T08:43:06Z</time></trkpt>
<trkpt lat="22.812698" lon="115.158741">
<time>2016-10-06T08:43:07Z</time></trkpt>
<trkpt lat="22.812868" lon="115.1585">
<time>2016-10-06T08:43:08Z</time></trkpt>
<trkpt lat="22.813466" lon="115.157689">
<time>2016-10-06T08:43:09Z</time></trkpt>
<trkpt lat="22.813665" lon="115.157408">
<time>2016-10-06T08:43:10Z</time></trkpt>
<trkpt lat="22.813855" lon="115.157138">
<time>2016-10-06T08:43:11Z</time></trkpt>
<trkpt lat="22.814064" lon="115.156827">
<time>2016-10-06T08:43:12Z</time></trkpt>
<trkpt lat="22.814244" lon="115.156536">
<time>2016-10-06T08:43:13Z</time></trkpt>
<trkpt lat="22.814473" lon="115.156166">
<time>2016-10-06T08:43:14Z</time></trkpt>
<trkpt lat="22.814692" lon="115.155805">
<time>2016-10-06T08:43:15Z</time></trkpt>
<trkpt lat="22.814892" lon="115.155505">
<time>2016-10-06T08:43:16Z</time></trkpt>
<trkpt lat="22.815111" lon="115.155164">
<time>2016-10-06T08:43:17Z</time></trkpt>
<trkpt lat="22.81522" lon="115.154974">
<time>2016-10-06T08:43:18Z</time></trkpt>
<trkpt lat="22.81528" lon="115.154873">
<time>2016-10-06T08:43:19Z</time></trkpt>
<trkpt lat="22.8153" lon="115.154833">
<time>2016-10-06T08:43:20Z</time></trkpt>
<trkpt lat="22.81533" lon="115.154773">
<time>2016-10-06T08:43:21Z</time></trkpt>
<trkpt lat="22.81535" lon="115.154733">
<time>2016-10-06T08:43:22Z</time></trkpt>
<trkpt lat="22.81537" lon="115.154693">
<time>2016-10-06T08:43:23Z</time></trkpt>
<trkpt lat="22.81539" lon="115.154663">
<time>2016-10-06T08:43:24Z</time></trkpt>
<trkpt lat="22.81542" lon="115.154593">
<time>2016-10-06T08:43:25Z</time></trkpt>
<trkpt lat="22.81543" lon="115.154553">
<time>2016-10-06T08:43:26Z</time></trkpt>
<trkpt lat="22.815469" lon="115.154473">
<time>2016-10-06T08:43:27Z</time></trkpt>
<trkpt lat="22.815489" lon="115.154412">
<time>2016-10-06T08:43:28Z</time></trkpt>
<trkpt lat="22.815519" lon="115.154342">
<time>2016-10-06T08:43:29Z</time></trkpt>
<trkpt lat="22.815529" lon="115.154312">
<time>2016-10-06T08:43:30Z</time></trkpt>
<trkpt lat="22.815539" lon="115.154252">
<time>2016-10-06T08:43:31Z</time></trkpt>
<trkpt lat="22.815569" lon="115.154172">
<time>2016-10-06T08:43:32Z</time></trkpt>
<trkpt lat="22.815579" lon="115.154122">
<time>2016-10-06T08:43:33Z</time></trkpt>
<trkpt lat="22.815589" lon="115.154072">
<time>2016-10-06T08:43:34Z</time></trkpt>
<trkpt lat="22.815599" lon="115.154032">
<time>2016-10-06T08:43:35Z</time></trkpt>
<trkpt lat="22.815609" lon="115.153992">
<time>2016-10-06T08:43:36Z</time></trkpt>
<trkpt lat="22.815618" lon="115.153942">
<time>2016-10-06T08:43:37Z</time></trkpt>
<trkpt lat="22.815628" lon="115.153882">
<time>2016-10-06T08:43:38Z</time></trkpt>
<trkpt lat="22.815628" lon="115.153841">
<time>2016-10-06T08:43:39Z</time></trkpt>
<trkpt lat="22.815638" lon="115.153771">
<time>2016-10-06T08:43:40Z</time></trkpt>
<trkpt lat="22.815648" lon="115.153661">
<time>2016-10-06T08:43:41Z</time></trkpt>
<trkpt lat="22.815658" lon="115.153541">
<time>2016-10-06T08:43:42Z</time></trkpt>
<trkpt lat="22.815657" lon="115.153401">
<time>2016-10-06T08:43:43Z</time></trkpt>
<trkpt lat="22.815657" lon="115.15324">
<time>2016-10-06T08:43:44Z</time></trkpt>
<trkpt lat="22.815656" lon="115.152659">
<time>2016-10-06T08:43:45Z</time></trkpt>
<trkpt lat="22.815656" lon="115.152389">
<time>2016-10-06T08:43:46Z</time></trkpt>
<trkpt lat="22.815645" lon="115.152148">
<time>2016-10-06T08:43:47Z</time></trkpt>
<trkpt lat="22.815634" lon="115.151437">
<time>2016-10-06T08:43:48Z</time></trkpt>
<trkpt lat="22.815633" lon="115.150846">
<time>2016-10-06T08:43:49Z</time></trkpt>
<trkpt lat="22.815622" lon="115.150505">
<time>2016-10-06T08:43:50Z</time></trkpt>
<trkpt lat="22.815622" lon="115.150405">
<time>2016-10-06T08:43:51Z</time></trkpt>
<trkpt lat="22.815622" lon="115.150265">
<time>2016-10-06T08:43:52Z</time></trkpt>
<trkpt lat="22.815612" lon="115.150165">
<time>2016-10-06T08:43:53Z</time></trkpt>
<trkpt lat="22.815611" lon="115.150085">
<time>2016-10-06T08:43:54Z</time></trkpt>
<trkpt lat="22.815601" lon="115.150005">
<time>2016-10-06T08:43:55Z</time></trkpt>
<trkpt lat="22.815601" lon="115.149944">
<time>2016-10-06T08:43:56Z</time></trkpt>
<trkpt lat="22.815591" lon="115.149864">
<time>2016-10-06T08:43:57Z</time></trkpt>
<trkpt lat="22.815571" lon="115.149744">
<time>2016-10-06T08:43:58Z</time></trkpt>
<trkpt lat="22.815551" lon="115.149634">
<time>2016-10-06T08:43:59Z</time></trkpt>
<trkpt lat="22.815531" lon="115.149554">
<time>2016-10-06T08:44:00Z</time></trkpt>
<trkpt lat="22.81548" lon="115.149333">
<time>2016-10-06T08:44:01Z</time></trkpt>
<trkpt lat="22.81543" lon="115.149143">
<time>2016-10-06T08:44:02Z</time></trkpt>
<trkpt lat="22.815359" lon="115.148873">
<time>2016-10-06T08:44:03Z</time></trkpt>
<trkpt lat="22.815309" lon="115.148712">
<time>2016-10-06T08:44:04Z</time></trkpt>
<trkpt lat="22.815279" lon="115.148602">
<time>2016-10-06T08:44:05Z</time></trkpt>
<trkpt lat="22.815078" lon="115.147901">
<time>2016-10-06T08:44:06Z</time></trkpt>
<trkpt lat="22.814937" lon="115.14745">
<time>2016-10-06T08:44:07Z</time></trkpt>
<trkpt lat="22.814887" lon="115.14721">
<time>2016-10-06T08:44:08Z</time></trkpt>
<trkpt lat="22.814846" lon="115.147039">
<time>2016-10-06T08:44:09Z</time></trkpt>
<trkpt lat="22.814826" lon="115.146839">
<time>2016-10-06T08:44:10Z</time></trkpt>
<trkpt lat="22.814806" lon="115.146699">
<time>2016-10-06T08:44:11Z</time></trkpt>
<trkpt lat="22.814806" lon="115.146529">
<time>2016-10-06T08:44:12Z</time></trkpt>
<trkpt lat="22.814815" lon="115.146368">
<time>2016-10-06T08:44:13Z</time></trkpt>
<trkpt lat="22.814835" lon="115.146218">
<time>2016-10-06T08:44:14Z</time></trkpt>
<trkpt lat="22.814845" lon="115.146128">
<time>2016-10-06T08:44:15Z</time></trkpt>
<trkpt lat="22.814875" lon="115.146028">
<time>2016-10-06T08:44:16Z</time></trkpt>
<trkpt lat="22.814914" lon="115.145857">
<time>2016-10-06T08:44:17Z</time></trkpt>
<trkpt lat="22.814974" lon="115.145647">
<time>2016-10-06T08:44:18Z</time></trkpt>
<trkpt lat="22.815183" lon="115.145026">
<time>2016-10-06T08:44:19Z</time></trkpt>
<trkpt lat="22.815223" lon="115.144886">
<time>2016-10-06T08:44:20Z</time></trkpt>
<trkpt lat="22.815292" lon="115.144695">
<time>2016-10-06T08:44:21Z</time></trkpt>
<trkpt lat="22.815392" lon="115.144385">
<time>2016-10-06T08:44:22Z</time></trkpt>
<trkpt lat="22.815581" lon="115.143804">
<time>2016-10-06T08:44:23Z</time></trkpt>
<trkpt lat="22.815809" lon="115.143103">
<time>2016-10-06T08:44:24Z</time></trkpt>
<trkpt lat="22.815998" lon="115.142532">
<time>2016-10-06T08:44:25Z</time></trkpt>
<trkpt lat="22.816157" lon="115.142051">
<time>2016-10-06T08:44:26Z</time></trkpt>
<trkpt lat="22.816287" lon="115.14165">
<time>2016-10-06T08:44:27Z</time></trkpt>
<trkpt lat="22.816346" lon="115.14148">
<time>2016-10-06T08:44:28Z</time></trkpt>
<trkpt lat="22.816366" lon="115.14138">
<time>2016-10-06T08:44:29Z</time></trkpt>
<trkpt lat="22.816416" lon="115.14118">
<time>2016-10-06T08:44:30Z</time></trkpt>
<trkpt lat="22.816456" lon="115.141009">
<time>2016-10-06T08:44:31Z</time></trkpt>
<trkpt lat="22.816475" lon="115.140829">
<time>2016-10-06T08:44:32Z</time></trkpt>
<trkpt lat="22.816495" lon="115.140669">
<time>2016-10-06T08:44:33Z</time></trkpt>
<trkpt lat="22.816495" lon="115.140559">
<time>2016-10-06T08:44:34Z</time></trkpt>
<trkpt lat="22.816495" lon="115.140498">
<time>2016-10-06T08:44:35Z</time></trkpt>
<trkpt lat="22.816495" lon="115.140398">
<time>2016-10-06T08:44:36Z</time></trkpt>
<trkpt lat="22.816484" lon="115.140258">
<time>2016-10-06T08:44:37Z</time></trkpt>
<trkpt lat="22.816474" lon="115.140138">
<time>2016-10-06T08:44:38Z</time></trkpt>
<trkpt lat="22.816454" lon="115.139978">
<time>2016-10-06T08:44:39Z</time></trkpt>
<trkpt lat="22.816434" lon="115.139817">
<time>2016-10-06T08:44:40Z</time></trkpt>
<trkpt lat="22.816413" lon="115.139667">
<time>2016-10-06T08:44:41Z</time></trkpt>
<trkpt lat="22.816343" lon="115.139317">
<time>2016-10-06T08:44:42Z</time></trkpt>
<trkpt lat="22.816303" lon="115.139086">
<time>2016-10-06T08:44:43Z</time></trkpt>
<trkpt lat="22.816192" lon="115.138525">
<time>2016-10-06T08:44:44Z</time></trkpt>
<trkpt lat="22.816091" lon="115.137964">
<time>2016-10-06T08:44:45Z</time></trkpt>
<trkpt lat="22.81599" lon="115.137394">
<time>2016-10-06T08:44:46Z</time></trkpt>
<trkpt lat="22.815879" lon="115.136813">
<time>2016-10-06T08:44:47Z</time></trkpt>
<trkpt lat="22.815799" lon="115.136392">
<time>2016-10-06T08:44:48Z</time></trkpt>
<trkpt lat="22.815708" lon="115.135911">
<time>2016-10-06T08:44:49Z</time></trkpt>
<trkpt lat="22.815637" lon="115.135481">
<time>2016-10-06T08:44:50Z</time></trkpt>
<trkpt lat="22.815607" lon="115.135341">
<time>2016-10-06T08:44:51Z</time></trkpt>
<trkpt lat="22.815577" lon="115.13516">
<time>2016-10-06T08:44:52Z</time></trkpt>
<trkpt lat="22.815557" lon="115.13501">
<time>2016-10-06T08:44:53Z</time></trkpt>
<trkpt lat="22.815546" lon="115.13488">
<time>2016-10-06T08:44:54Z</time></trkpt>
<trkpt lat="22.815536" lon="115.13479">
<time>2016-10-06T08:44:55Z</time></trkpt>
<trkpt lat="22.815526" lon="115.13466">
<time>2016-10-06T08:44:56Z</time></trkpt>
<trkpt lat="22.815516" lon="115.134469">
<time>2016-10-06T08:44:57Z</time></trkpt>
<trkpt lat="22.815506" lon="115.134339">
<time>2016-10-06T08:44:58Z</time></trkpt>
<trkpt lat="22.815505" lon="115.134189">
<time>2016-10-06T08:44:59Z</time></trkpt>
<trkpt lat="22.815505" lon="115.133909">
<time>2016-10-06T08:45:00Z</time></trkpt>
<trkpt lat="22.815504" lon="115.133298">
<time>2016-10-06T08:45:01Z</time></trkpt>
<trkpt lat="22.815504" lon="115.133057">
<time>2016-10-06T08:45:02Z</time></trkpt>
<trkpt lat="22.815503" lon="115.132727">
<time>2016-10-06T08:45:03Z</time></trkpt>
<trkpt lat="22.815503" lon="115.132607">
<time>2016-10-06T08:45:04Z</time></trkpt>
<trkpt lat="22.815513" lon="115.132356">
<time>2016-10-06T08:45:05Z</time></trkpt>
<trkpt lat="22.815512" lon="115.131886">
<time>2016-10-06T08:45:06Z</time></trkpt>
<trkpt lat="22.81553" lon="115.130354">
<time>2016-10-06T08:45:07Z</time></trkpt>
<trkpt lat="22.81553" lon="115.130143">
<time>2016-10-06T08:45:08Z</time></trkpt>
<trkpt lat="22.815538" lon="115.129272">
<time>2016-10-06T08:45:09Z</time></trkpt>
<trkpt lat="22.815548" lon="115.128681">
<time>2016-10-06T08:45:10Z</time></trkpt>
<trkpt lat="22.815557" lon="115.128311">
<time>2016-10-06T08:45:11Z</time></trkpt>
<trkpt lat="22.815566" lon="115.1278">
<time>2016-10-06T08:45:12Z</time></trkpt>
<trkpt lat="22.815566" lon="115.12748">
<time>2016-10-06T08:45:13Z</time></trkpt>
<trkpt lat="22.815566" lon="115.12725">
<time>2016-10-06T08:45:14Z</time></trkpt>
<trkpt lat="22.815555" lon="115.127029">
<time>2016-10-06T08:45:15Z</time></trkpt>
<trkpt lat="22.815535" lon="115.126819">
<time>2016-10-06T08:45:16Z</time></trkpt>
<trkpt lat="22.815525" lon="115.126699">
<time>2016-10-06T08:45:17Z</time></trkpt>
<trkpt lat="22.815505" lon="115.126549">
<time>2016-10-06T08:45:18Z</time></trkpt>
<trkpt lat="22.815485" lon="115.126369">
<time>2016-10-06T08:45:19Z</time></trkpt>
<trkpt lat="22.815454" lon="115.126178">
<time>2016-10-06T08:45:20Z</time></trkpt>
<trkpt lat="22.815374" lon="115.125718">
<time>2016-10-06T08:45:21Z</time></trkpt>
<trkpt lat="22.815243" lon="115.125007">
<time>2016-10-06T08:45:22Z</time></trkpt>
<trkpt lat="22.815173" lon="115.124637">
<time>2016-10-06T08:45:23Z</time></trkpt>
<trkpt lat="22.815012" lon="115.123766">
<time>2016-10-06T08:45:24Z</time></trkpt>
<trkpt lat="22.814861" lon="115.122885">
<time>2016-10-06T08:45:25Z</time></trkpt>
<trkpt lat="22.81468" lon="115.121864">
<time>2016-10-06T08:45:26Z</time></trkpt>
<trkpt lat="22.814549" lon="115.121133">
<time>2016-10-06T08:45:27Z</time></trkpt>
<trkpt lat="22.814458" lon="115.120632">
<time>2016-10-06T08:45:28Z</time></trkpt>
<trkpt lat="22.814408" lon="115.120362">
<time>2016-10-06T08:45:29Z</time></trkpt>
<trkpt lat="22.814338" lon="115.119972">
<time>2016-10-06T08:45:30Z</time></trkpt>
<trkpt lat="22.814287" lon="115.119691">
<time>2016-10-06T08:45:31Z</time></trkpt>
<trkpt lat="22.814237" lon="115.119381">
<time>2016-10-06T08:45:32Z</time></trkpt>
<trkpt lat="22.814147" lon="115.118901">
<time>2016-10-06T08:45:33Z</time></trkpt>
<trkpt lat="22.814116" lon="115.11874">
<time>2016-10-06T08:45:34Z</time></trkpt>
<trkpt lat="22.814076" lon="115.11851">
<time>2016-10-06T08:45:35Z</time></trkpt>
<trkpt lat="22.814036" lon="115.11826">
<time>2016-10-06T08:45:36Z</time></trkpt>
<trkpt lat="22.814016" lon="115.11815">
<time>2016-10-06T08:45:37Z</time></trkpt>
<trkpt lat="22.813976" lon="115.11799">
<time>2016-10-06T08:45:38Z</time></trkpt>
<trkpt lat="22.813936" lon="115.1178">
<time>2016-10-06T08:45:39Z</time></trkpt>
<trkpt lat="22.813905" lon="115.117679">
<time>2016-10-06T08:45:40Z</time></trkpt>
<trkpt lat="22.813865" lon="115.117509">
<time>2016-10-06T08:45:41Z</time></trkpt>
<trkpt lat="22.813845" lon="115.117409">
<time>2016-10-06T08:45:42Z</time></trkpt>
<trkpt lat="22.813795" lon="115.117259">
<time>2016-10-06T08:45:43Z</time></trkpt>
<trkpt lat="22.813745" lon="115.117059">
<time>2016-10-06T08:45:44Z</time></trkpt>
<trkpt lat="22.813595" lon="115.116569">
<time>2016-10-06T08:45:45Z</time></trkpt>
<trkpt lat="22.813474" lon="115.116168">
<time>2016-10-06T08:45:46Z</time></trkpt>
<trkpt lat="22.813434" lon="115.116058">
<time>2016-10-06T08:45:47Z</time></trkpt>
<trkpt lat="22.813284" lon="115.115548">
<time>2016-10-06T08:45:48Z</time></trkpt>
<trkpt lat="22.813214" lon="115.115328">
<time>2016-10-06T08:45:49Z</time></trkpt>
<trkpt lat="22.813123" lon="115.115037">
<time>2016-10-06T08:45:50Z</time></trkpt>
<trkpt lat="22.813013" lon="115.114727">
<time>2016-10-06T08:45:51Z</time></trkpt>
<trkpt lat="22.812933" lon="115.114507">
<time>2016-10-06T08:45:52Z</time></trkpt>
<trkpt lat="22.812873" lon="115.114357">
<time>2016-10-06T08:45:53Z</time></trkpt>
<trkpt lat="22.812793" lon="115.114157">
<time>2016-10-06T08:45:54Z</time></trkpt>
<trkpt lat="22.812682" lon="115.113936">
<time>2016-10-06T08:45:55Z</time></trkpt>
<trkpt lat="22.812482" lon="115.113516">
<time>2016-10-06T08:45:56Z</time></trkpt>
<trkpt lat="22.812352" lon="115.113286">
<time>2016-10-06T08:45:57Z</time></trkpt>
<trkpt lat="22.812242" lon="115.113076">
<time>2016-10-06T08:45:58Z</time></trkpt>
<trkpt lat="22.811651" lon="115.111995">
<time>2016-10-06T08:45:59Z</time></trkpt>
<trkpt lat="22.81072" lon="115.110264">
<time>2016-10-06T08:46:00Z</time></trkpt>
<trkpt lat="22.81019" lon="115.109284">
<time>2016-10-06T08:46:01Z</time></trkpt>
<trkpt lat="22.80978" lon="115.108533">
<time>2016-10-06T08:46:02Z</time></trkpt>
<trkpt lat="22.809689" lon="115.108343">
<time>2016-10-06T08:46:03Z</time></trkpt>
<trkpt lat="22.809609" lon="115.108173">
<time>2016-10-06T08:46:04Z</time></trkpt>
<trkpt lat="22.809529" lon="115.108003">
<time>2016-10-06T08:46:05Z</time></trkpt>
<trkpt lat="22.809439" lon="115.107753">
<time>2016-10-06T08:46:06Z</time></trkpt>
<trkpt lat="22.809359" lon="115.107533">
<time>2016-10-06T08:46:07Z</time></trkpt>
<trkpt lat="22.809289" lon="115.107313">
<time>2016-10-06T08:46:08Z</time></trkpt>
<trkpt lat="22.809219" lon="115.107103">
<time>2016-10-06T08:46:09Z</time></trkpt>
<trkpt lat="22.808988" lon="115.106282">
<time>2016-10-06T08:46:10Z</time></trkpt>
<trkpt lat="22.808638" lon="115.105062">
<time>2016-10-06T08:46:11Z</time></trkpt>
<trkpt lat="22.808378" lon="115.104141">
<time>2016-10-06T08:46:12Z</time></trkpt>
<trkpt lat="22.808127" lon="115.103241">
<time>2016-10-06T08:46:13Z</time></trkpt>
<trkpt lat="22.807937" lon="115.102601">
<time>2016-10-06T08:46:14Z</time></trkpt>
<trkpt lat="22.807877" lon="115.102381">
<time>2016-10-06T08:46:15Z</time></trkpt>
<trkpt lat="22.807827" lon="115.102191">
<time>2016-10-06T08:46:16Z</time></trkpt>
<trkpt lat="22.807777" lon="115.102001">
<time>2016-10-06T08:46:17Z</time></trkpt>
<trkpt lat="22.807737" lon="115.101791">
<time>2016-10-06T08:46:18Z</time></trkpt>
<trkpt lat="22.807697" lon="115.101581">
<time>2016-10-06T08:46:19Z</time></trkpt>
<trkpt lat="22.807667" lon="115.101361">
<time>2016-10-06T08:46:20Z</time></trkpt>
<trkpt lat="22.807647" lon="115.101191">
<time>2016-10-06T08:46:21Z</time></trkpt>
<trkpt lat="22.807637" lon="115.101091">
<time>2016-10-06T08:46:22Z</time></trkpt>
<trkpt lat="22.807617" lon="115.100891">
<time>2016-10-06T08:46:23Z</time></trkpt>
<trkpt lat="22.807606" lon="115.100711">
<time>2016-10-06T08:46:24Z</time></trkpt>
<trkpt lat="22.807586" lon="115.1003">
<time>2016-10-06T08:46:25Z</time></trkpt>
<trkpt lat="22.807566" lon="115.10015">
<time>2016-10-06T08:46:26Z</time></trkpt>
<trkpt lat="22.807556" lon="115.09998">
<time>2016-10-06T08:46:27Z</time></trkpt>
<trkpt lat="22.807516" lon="115.09968">
<time>2016-10-06T08:46:28Z</time></trkpt>
<trkpt lat="22.807466" lon="115.09937">
<time>2016-10-06T08:46:29Z</time></trkpt>
<trkpt lat="22.807406" lon="115.09912">
<time>2016-10-06T08:46:30Z</time></trkpt>
<trkpt lat="22.807346" lon="115.09887">
<time>2016-10-06T08:46:31Z</time></trkpt>
<trkpt lat="22.807286" lon="115.09867">
<time>2016-10-06T08:46:32Z</time></trkpt>
<trkpt lat="22.807266" lon="115.09859">
<time>2016-10-06T08:46:33Z</time></trkpt>
<trkpt lat="22.807196" lon="115.09841">
<time>2016-10-06T08:46:34Z</time></trkpt>
<trkpt lat="22.807106" lon="115.09814">
<time>2016-10-06T08:46:35Z</time></trkpt>
<trkpt lat="22.806596" lon="115.09689">
<time>2016-10-06T08:46:36Z</time></trkpt>
<trkpt lat="22.806126" lon="115.09574">
<time>2016-10-06T08:46:37Z</time></trkpt>
<trkpt lat="22.805566" lon="115.09436">
<time>2016-10-06T08:46:38Z</time></trkpt>
<trkpt lat="22.804826" lon="115.092581">
<time>2016-10-06T08:46:39Z</time></trkpt>
<trkpt lat="22.804227" lon="115.091111">
<time>2016-10-06T08:46:40Z</time></trkpt>
<trkpt lat="22.803567" lon="115.089532">
<time>2016-10-06T08:46:41Z</time></trkpt>
<trkpt lat="22.803227" lon="115.088712">
<time>2016-10-06T08:46:42Z</time></trkpt>
<trkpt lat="22.803017" lon="115.088192">
<time>2016-10-06T08:46:43Z</time></trkpt>
<trkpt lat="22.802928" lon="115.087942">
<time>2016-10-06T08:46:44Z</time></trkpt>
<trkpt lat="22.802878" lon="115.087802">
<time>2016-10-06T08:46:45Z</time></trkpt>
<trkpt lat="22.802838" lon="115.087702">
<time>2016-10-06T08:46:46Z</time></trkpt>
<trkpt lat="22.802788" lon="115.087532">
<time>2016-10-06T08:46:47Z</time></trkpt>
<trkpt lat="22.802768" lon="115.087432">
<time>2016-10-06T08:46:48Z</time></trkpt>
<trkpt lat="22.802728" lon="115.087253">
<time>2016-10-06T08:46:49Z</time></trkpt>
<trkpt lat="22.802698" lon="115.087013">
<time>2016-10-06T08:46:50Z</time></trkpt>
<trkpt lat="22.802658" lon="115.086733">
<time>2016-10-06T08:46:51Z</time></trkpt>
<trkpt lat="22.802568" lon="115.085783">
<time>2016-10-06T08:46:52Z</time></trkpt>
<trkpt lat="22.802519" lon="115.085154">
<time>2016-10-06T08:46:53Z</time></trkpt>
<trkpt lat="22.802439" lon="115.084284">
<time>2016-10-06T08:46:54Z</time></trkpt>
<trkpt lat="22.802349" lon="115.083275">
<time>2016-10-06T08:46:55Z</time></trkpt>
<trkpt lat="22.8023" lon="115.082625">
<time>2016-10-06T08:46:56Z</time></trkpt>
<trkpt lat="22.80226" lon="115.082156">
<time>2016-10-06T08:46:57Z</time></trkpt>
<trkpt lat="22.80225" lon="115.082026">
<time>2016-10-06T08:46:58Z</time></trkpt>
<trkpt lat="22.80224" lon="115.081886">
<time>2016-10-06T08:46:59Z</time></trkpt>
<trkpt lat="22.80224" lon="115.081826">
<time>2016-10-06T08:47:00Z</time></trkpt>
<trkpt lat="22.80224" lon="115.081716">
<time>2016-10-06T08:47:01Z</time></trkpt>
<trkpt lat="22.80224" lon="115.081616">
<time>2016-10-06T08:47:02Z</time></trkpt>
<trkpt lat="22.80224" lon="115.081526">
<time>2016-10-06T08:47:03Z</time></trkpt>
<trkpt lat="22.80225" lon="115.081436">
<time>2016-10-06T08:47:04Z</time></trkpt>
<trkpt lat="22.80226" lon="115.081336">
<time>2016-10-06T08:47:05Z</time></trkpt>
<trkpt lat="22.80227" lon="115.081246">
<time>2016-10-06T08:47:06Z</time></trkpt>
<trkpt lat="22.8023" lon="115.081146">
<time>2016-10-06T08:47:07Z</time></trkpt>
<trkpt lat="22.80232" lon="115.081056">
<time>2016-10-06T08:47:08Z</time></trkpt>
<trkpt lat="22.80234" lon="115.080966">
<time>2016-10-06T08:47:09Z</time></trkpt>
<trkpt lat="22.802371" lon="115.080876">
<time>2016-10-06T08:47:10Z</time></trkpt>
<trkpt lat="22.802391" lon="115.080816">
<time>2016-10-06T08:47:11Z</time></trkpt>
<trkpt lat="22.802411" lon="115.080767">
<time>2016-10-06T08:47:12Z</time></trkpt>
<trkpt lat="22.802441" lon="115.080687">
<time>2016-10-06T08:47:13Z</time></trkpt>
<trkpt lat="22.802491" lon="115.080577">
<time>2016-10-06T08:47:14Z</time></trkpt>
<trkpt lat="22.802541" lon="115.080477">
<time>2016-10-06T08:47:15Z</time></trkpt>
<trkpt lat="22.802611" lon="115.080347">
<time>2016-10-06T08:47:16Z</time></trkpt>
<trkpt lat="22.802681" lon="115.080237">
<time>2016-10-06T08:47:17Z</time></trkpt>
<trkpt lat="22.802751" lon="115.080117">
<time>2016-10-06T08:47:18Z</time></trkpt>
<trkpt lat="22.803071" lon="115.079607">
<time>2016-10-06T08:47:19Z</time></trkpt>
<trkpt lat="22.803671" lon="115.078688">
<time>2016-10-06T08:47:20Z</time></trkpt>
<trkpt lat="22.804272" lon="115.077769">
<time>2016-10-06T08:47:21Z</time></trkpt>
<trkpt lat="22.804612" lon="115.077239">
<time>2016-10-06T08:47:22Z</time></trkpt>
<trkpt lat="22.804802" lon="115.07695">
<time>2016-10-06T08:47:23Z</time></trkpt>
<trkpt lat="22.804912" lon="115.07679">
<time>2016-10-06T08:47:24Z</time></trkpt>
<trkpt lat="22.805002" lon="115.07666">
<time>2016-10-06T08:47:25Z</time></trkpt>
<trkpt lat="22.805082" lon="115.07655">
<time>2016-10-06T08:47:26Z</time></trkpt>
<trkpt lat="22.805152" lon="115.07647">
<time>2016-10-06T08:47:27Z</time></trkpt>
<trkpt lat="22.805292" lon="115.07633">
<time>2016-10-06T08:47:28Z</time></trkpt>
<trkpt lat="22.805382" lon="115.07623">
<time>2016-10-06T08:47:29Z</time></trkpt>
<trkpt lat="22.805533" lon="115.07609">
<time>2016-10-06T08:47:30Z</time></trkpt>
<trkpt lat="22.805663" lon="115.075981">
<time>2016-10-06T08:47:31Z</time></trkpt>
<trkpt lat="22.806013" lon="115.075701">
<time>2016-10-06T08:47:32Z</time></trkpt>
<trkpt lat="22.806573" lon="115.075251">
<time>2016-10-06T08:47:33Z</time></trkpt>
<trkpt lat="22.806913" lon="115.074981">
<time>2016-10-06T08:47:34Z</time></trkpt>
<trkpt lat="22.807053" lon="115.074872">
<time>2016-10-06T08:47:35Z</time></trkpt>
<trkpt lat="22.807183" lon="115.074782">
<time>2016-10-06T08:47:36Z</time></trkpt>
<trkpt lat="22.807363" lon="115.074662">
<time>2016-10-06T08:47:37Z</time></trkpt>
<trkpt lat="22.807523" lon="115.074562">
<time>2016-10-06T08:47:38Z</time></trkpt>
<trkpt lat="22.807683" lon="115.074482">
<time>2016-10-06T08:47:39Z</time></trkpt>
<trkpt lat="22.807803" lon="115.074422">
<time>2016-10-06T08:47:40Z</time></trkpt>
<trkpt lat="22.807953" lon="115.074352">
<time>2016-10-06T08:47:41Z</time></trkpt>
<trkpt lat="22.808133" lon="115.074282">
<time>2016-10-06T08:47:42Z</time></trkpt>
<trkpt lat="22.808503" lon="115.074162">
<time>2016-10-06T08:47:43Z</time></trkpt>
<trkpt lat="22.808833" lon="115.074042">
<time>2016-10-06T08:47:44Z</time></trkpt>
<trkpt lat="22.808983" lon="115.073992">
<time>2016-10-06T08:47:45Z</time></trkpt>
<trkpt lat="22.809153" lon="115.073922">
<time>2016-10-06T08:47:46Z</time></trkpt>
<trkpt lat="22.809473" lon="115.073783">
<time>2016-10-06T08:47:47Z</time></trkpt>
<trkpt lat="22.809673" lon="115.073683">
<time>2016-10-06T08:47:48Z</time></trkpt>
<trkpt lat="22.809803" lon="115.073613">
<time>2016-10-06T08:47:49Z</time></trkpt>
<trkpt lat="22.810033" lon="115.073493">
<time>2016-10-06T08:47:50Z</time></trkpt>
<trkpt lat="22.810223" lon="115.073373">
<time>2016-10-06T08:47:51Z</time></trkpt>
<trkpt lat="22.810453" lon="115.073233">
<time>2016-10-06T08:47:52Z</time></trkpt>
<trkpt lat="22.810723" lon="115.073053">
<time>2016-10-06T08:47:53Z</time></trkpt>
<trkpt lat="22.810963" lon="115.072884">
<time>2016-10-06T08:47:54Z</time></trkpt>
<trkpt lat="22.811283" lon="115.072654">
<time>2016-10-06T08:47:55Z</time></trkpt>
<trkpt lat="22.812104" lon="115.072064">
<time>2016-10-06T08:47:56Z</time></trkpt>
<trkpt lat="22.812654" lon="115.071665">
<time>2016-10-06T08:47:57Z</time></trkpt>
<trkpt lat="22.813204" lon="115.071275">
<time>2016-10-06T08:47:58Z</time></trkpt>
<trkpt lat="22.813764" lon="115.070876">
<time>2016-10-06T08:47:59Z</time></trkpt>
<trkpt lat="22.814324" lon="115.070476">
<time>2016-10-06T08:48:00Z</time></trkpt>
<trkpt lat="22.814895" lon="115.070067">
<time>2016-10-06T08:48:01Z</time></trkpt>
<trkpt lat="22.815115" lon="115.069917">
<time>2016-10-06T08:48:02Z</time></trkpt>
<trkpt lat="22.815255" lon="115.069837">
<time>2016-10-06T08:48:03Z</time></trkpt>
<trkpt lat="22.815405" lon="115.069747">
<time>2016-10-06T08:48:04Z</time></trkpt>
<trkpt lat="22.815545" lon="115.069667">
<time>2016-10-06T08:48:05Z</time></trkpt>
<trkpt lat="22.815695" lon="115.069587">
<time>2016-10-06T08:48:06Z</time></trkpt>
<trkpt lat="22.815855" lon="115.069517">
<time>2016-10-06T08:48:07Z</time></trkpt>
<trkpt lat="22.816005" lon="115.069457">
<time>2016-10-06T08:48:08Z</time></trkpt>
<trkpt lat="22.816155" lon="115.069397">
<time>2016-10-06T08:48:09Z</time></trkpt>
<trkpt lat="22.816345" lon="115.069338">
<time>2016-10-06T08:48:10Z</time></trkpt>
<trkpt lat="22.816485" lon="115.069298">
<time>2016-10-06T08:48:11Z</time></trkpt>
<trkpt lat="22.816625" lon="115.069258">
<time>2016-10-06T08:48:12Z</time></trkpt>
<trkpt lat="22.816815" lon="115.069208">
<time>2016-10-06T08:48:13Z</time></trkpt>
<trkpt lat="22.817165" lon="115.069148">
<time>2016-10-06T08:48:14Z</time></trkpt>
<trkpt lat="22.817615" lon="115.069058">
<time>2016-10-06T08:48:15Z</time></trkpt>
<trkpt lat="22.817965" lon="115.068988">
<time>2016-10-06T08:48:16Z</time></trkpt>
<trkpt lat="22.819644" lon="115.068658">
<time>2016-10-06T08:48:17Z</time></trkpt>
<trkpt lat="22.820334" lon="115.068528">
<time>2016-10-06T08:48:18Z</time></trkpt>
<trkpt lat="22.821094" lon="115.068379">
<time>2016-10-06T08:48:19Z</time></trkpt>
<trkpt lat="22.821824" lon="115.068249">
<time>2016-10-06T08:48:20Z</time></trkpt>
<trkpt lat="22.822234" lon="115.068169">
<time>2016-10-06T08:48:21Z</time></trkpt>
<trkpt lat="22.822494" lon="115.068109">
<time>2016-10-06T08:48:22Z</time></trkpt>
<trkpt lat="22.822704" lon="115.068069">
<time>2016-10-06T08:48:23Z</time></trkpt>
<trkpt lat="22.822804" lon="115.068049">
<time>2016-10-06T08:48:24Z</time></trkpt>
<trkpt lat="22.822894" lon="115.068029">
<time>2016-10-06T08:48:25Z</time></trkpt>
<trkpt lat="22.823014" lon="115.067989">
<time>2016-10-06T08:48:26Z</time></trkpt>
<trkpt lat="22.823124" lon="115.067959">
<time>2016-10-06T08:48:27Z</time></trkpt>
<trkpt lat="22.823214" lon="115.067919">
<time>2016-10-06T08:48:28Z</time></trkpt>
<trkpt lat="22.823344" lon="115.067869">
<time>2016-10-06T08:48:29Z</time></trkpt>
<trkpt lat="22.823474" lon="115.067809">
<time>2016-10-06T08:48:30Z</time></trkpt>
<trkpt lat="22.823574" lon="115.067749">
<time>2016-10-06T08:48:31Z</time></trkpt>
<trkpt lat="22.823684" lon="115.067689">
<time>2016-10-06T08:48:32Z</time></trkpt>
<trkpt lat="22.823814" lon="115.067589">
<time>2016-10-06T08:48:33Z</time></trkpt>
<trkpt lat="22.823904" lon="115.06752">
<time>2016-10-06T08:48:34Z</time></trkpt>
<trkpt lat="22.823994" lon="115.06744">
<time>2016-10-06T08:48:35Z</time></trkpt>
<trkpt lat="22.824114" lon="115.06734">
<time>2016-10-06T08:48:36Z</time></trkpt>
<trkpt lat="22.824254" lon="115.0672">
<time>2016-10-06T08:48:37Z</time></trkpt>
<trkpt lat="22.824384" lon="115.06707">
<time>2016-10-06T08:48:38Z</time></trkpt>
<trkpt lat="22.824775" lon="115.066681">
<time>2016-10-06T08:48:39Z</time></trkpt>
<trkpt lat="22.825485" lon="115.065952">
<time>2016-10-06T08:48:40Z</time></trkpt>
<trkpt lat="22.826156" lon="115.065273">
<time>2016-10-06T08:48:41Z</time></trkpt>
<trkpt lat="22.826727" lon="115.064684">
<time>2016-10-06T08:48:42Z</time></trkpt>
<trkpt lat="22.827738" lon="115.063665">
<time>2016-10-06T08:48:43Z</time></trkpt>
<trkpt lat="22.828388" lon="115.063006">
<time>2016-10-06T08:48:44Z</time></trkpt>
<trkpt lat="22.829349" lon="115.062028">
<time>2016-10-06T08:48:45Z</time></trkpt>
<trkpt lat="22.829479" lon="115.061898">
<time>2016-10-06T08:48:46Z</time></trkpt>
<trkpt lat="22.82999" lon="115.061379">
<time>2016-10-06T08:48:47Z</time></trkpt>
<trkpt lat="22.83045" lon="115.060909">
<time>2016-10-06T08:48:48Z</time></trkpt>
<trkpt lat="22.830711" lon="115.06065">
<time>2016-10-06T08:48:49Z</time></trkpt>
<trkpt lat="22.830881" lon="115.06048">
<time>2016-10-06T08:48:50Z</time></trkpt>
<trkpt lat="22.831081" lon="115.06029">
<time>2016-10-06T08:48:51Z</time></trkpt>
<trkpt lat="22.831241" lon="115.060161">
<time>2016-10-06T08:48:52Z</time></trkpt>
<trkpt lat="22.831351" lon="115.060081">
<time>2016-10-06T08:48:53Z</time></trkpt>
<trkpt lat="22.831451" lon="115.060011">
<time>2016-10-06T08:48:54Z</time></trkpt>
<trkpt lat="22.831571" lon="115.059921">
<time>2016-10-06T08:48:55Z</time></trkpt>
<trkpt lat="22.831691" lon="115.059841">
<time>2016-10-06T08:48:56Z</time></trkpt>
<trkpt lat="22.831801" lon="115.059771">
<time>2016-10-06T08:48:57Z</time></trkpt>
<trkpt lat="22.831942" lon="115.059701">
<time>2016-10-06T08:48:58Z</time></trkpt>
<trkpt lat="22.832052" lon="115.059632">
<time>2016-10-06T08:48:59Z</time></trkpt>
<trkpt lat="22.832202" lon="115.059562">
<time>2016-10-06T08:49:00Z</time></trkpt>
<trkpt lat="22.832322" lon="115.059512">
<time>2016-10-06T08:49:01Z</time></trkpt>
<trkpt lat="22.832502" lon="115.059442">
<time>2016-10-06T08:49:02Z</time></trkpt>
<trkpt lat="22.832682" lon="115.059372">
<time>2016-10-06T08:49:03Z</time></trkpt>
<trkpt lat="22.832892" lon="115.059302">
<time>2016-10-06T08:49:04Z</time></trkpt>
<trkpt lat="22.832992" lon="115.059272">
<time>2016-10-06T08:49:05Z</time></trkpt>
<trkpt lat="22.833222" lon="115.059212">
<time>2016-10-06T08:49:06Z</time></trkpt>
<trkpt lat="22.833322" lon="115.059192">
<time>2016-10-06T08:49:07Z</time></trkpt>
<trkpt lat="22.833502" lon="115.059152">
<time>2016-10-06T08:49:08Z</time></trkpt>
<trkpt lat="22.833962" lon="115.059053">
<time>2016-10-06T08:49:09Z</time></trkpt>
<trkpt lat="22.834342" lon="115.058973">
<time>2016-10-06T08:49:10Z</time></trkpt>
<trkpt lat="22.834632" lon="115.058903">
<time>2016-10-06T08:49:11Z</time></trkpt>
<trkpt lat="22.834872" lon="115.058853">
<time>2016-10-06T08:49:12Z</time></trkpt>
<trkpt lat="22.835252" lon="115.058773">
<time>2016-10-06T08:49:13Z</time></trkpt>
<trkpt lat="22.835652" lon="115.058683">
<time>2016-10-06T08:49:14Z</time></trkpt>
<trkpt lat="22.836012" lon="115.058593">
<time>2016-10-06T08:49:15Z</time></trkpt>
<trkpt lat="22.836232" lon="115.058543">
<time>2016-10-06T08:49:16Z</time></trkpt>
<trkpt lat="22.836462" lon="115.058493">
<time>2016-10-06T08:49:17Z</time></trkpt>
<trkpt lat="22.836632" lon="115.058443">
<time>2016-10-06T08:49:18Z</time></trkpt>
<trkpt lat="22.836752" lon="115.058404">
<time>2016-10-06T08:49:19Z</time></trkpt>
<trkpt lat="22.836832" lon="115.058384">
<time>2016-10-06T08:49:20Z</time></trkpt>
<trkpt lat="22.836932" lon="115.058344">
<time>2016-10-06T08:49:21Z</time></trkpt>
<trkpt lat="22.837022" lon="115.058304">
<time>2016-10-06T08:49:22Z</time></trkpt>
<trkpt lat="22.837072" lon="115.058274">
<time>2016-10-06T08:49:23Z</time></trkpt>
<trkpt lat="22.837222" lon="115.058194">
<time>2016-10-06T08:49:24Z</time></trkpt>
<trkpt lat="22.837332" lon="115.058124">
<time>2016-10-06T08:49:25Z</time></trkpt>
<trkpt lat="22.837432" lon="115.058054">
<time>2016-10-06T08:49:26Z</time></trkpt>
<trkpt lat="22.837522" lon="115.057984">
<time>2016-10-06T08:49:27Z</time></trkpt>
<trkpt lat="22.837582" lon="115.057924">
<time>2016-10-06T08:49:28Z</time></trkpt>
<trkpt lat="22.837632" lon="115.057874">
<time>2016-10-06T08:49:29Z</time></trkpt>
<trkpt lat="22.837672" lon="115.057844">
<time>2016-10-06T08:49:30Z</time></trkpt>
<trkpt lat="22.837732" lon="115.057775">
<time>2016-10-06T08:49:31Z</time></trkpt>
<trkpt lat="22.837802" lon="115.057695">
<time>2016-10-06T08:49:32Z</time></trkpt>
<trkpt lat="22.837832" lon="115.057645">
<time>2016-10-06T08:49:33Z</time></trkpt>
<trkpt lat="22.837883" lon="115.057585">
<time>2016-10-06T08:49:34Z</time></trkpt>
<trkpt lat="22.837943" lon="115.057505">
<time>2016-10-06T08:49:35Z</time></trkpt>
<trkpt lat="22.837983" lon="115.057435">
<time>2016-10-06T08:49:36Z</time></trkpt>
<trkpt lat="22.838063" lon="115.057285">
<time>2016-10-06T08:49:37Z</time></trkpt>
<trkpt lat="22.838173" lon="115.057096">
<time>2016-10-06T08:49:38Z</time></trkpt>
<trkpt lat="22.838253" lon="115.056936">
<time>2016-10-06T08:49:39Z</time></trkpt>
<trkpt lat="22.838284" lon="115.056866">
<time>2016-10-06T08:49:40Z</time></trkpt>
<trkpt lat="22.838514" lon="115.056337">
<time>2016-10-06T08:49:41Z</time></trkpt>
<trkpt lat="22.838665" lon="115.055998">
<time>2016-10-06T08:49:42Z</time></trkpt>
<trkpt lat="22.838755" lon="115.055798">
<time>2016-10-06T08:49:43Z</time></trkpt>
<trkpt lat="22.838886" lon="115.055489">
<time>2016-10-06T08:49:44Z</time></trkpt>
<trkpt lat="22.838986" lon="115.055259">
<time>2016-10-06T08:49:45Z</time></trkpt>
<trkpt lat="22.839167" lon="115.05486">
<time>2016-10-06T08:49:46Z</time></trkpt>
<trkpt lat="22.839297" lon="115.054531">
<time>2016-10-06T08:49:47Z</time></trkpt>
<trkpt lat="22.839377" lon="115.054301">
<time>2016-10-06T08:49:48Z</time></trkpt>
<trkpt lat="22.839418" lon="115.054162">
<time>2016-10-06T08:49:49Z</time></trkpt>
<trkpt lat="22.839458" lon="115.054032">
<time>2016-10-06T08:49:50Z</time></trkpt>
<trkpt lat="22.839488" lon="115.053862">
<time>2016-10-06T08:49:51Z</time></trkpt>
<trkpt lat="22.839498" lon="115.053752">
<time>2016-10-06T08:49:52Z</time></trkpt>
<trkpt lat="22.839508" lon="115.053673">
<time>2016-10-06T08:49:53Z</time></trkpt>
<trkpt lat="22.839508" lon="115.053633">
<time>2016-10-06T08:49:54Z</time></trkpt>
<trkpt lat="22.839519" lon="115.053573">
<time>2016-10-06T08:49:55Z</time></trkpt>
<trkpt lat="22.839519" lon="115.053473">
<time>2016-10-06T08:49:56Z</time></trkpt>
<trkpt lat="22.839509" lon="115.053373">
<time>2016-10-06T08:49:57Z</time></trkpt>
<trkpt lat="22.839509" lon="115.053283">
<time>2016-10-06T08:49:58Z</time></trkpt>
<trkpt lat="22.839489" lon="115.053134">
<time>2016-10-06T08:49:59Z</time></trkpt>
<trkpt lat="22.83946" lon="115.052994">
<time>2016-10-06T08:50:00Z</time></trkpt>
<trkpt lat="22.83944" lon="115.052904">
<time>2016-10-06T08:50:01Z</time></trkpt>
<trkpt lat="22.83941" lon="115.052814">
<time>2016-10-06T08:50:02Z</time></trkpt>
<trkpt lat="22.83937" lon="115.052665">
<time>2016-10-06T08:50:03Z</time></trkpt>
<trkpt lat="22.83932" lon="115.052535">
<time>2016-10-06T08:50:04Z</time></trkpt>
<trkpt lat="22.839251" lon="115.052395">
<time>2016-10-06T08:50:05Z</time></trkpt>
<trkpt lat="22.839211" lon="115.052305">
<time>2016-10-06T08:50:06Z</time></trkpt>
<trkpt lat="22.839111" lon="115.052116">
<time>2016-10-06T08:50:07Z</time></trkpt>
<trkpt lat="22.839002" lon="115.051916">
<time>2016-10-06T08:50:08Z</time></trkpt>
<trkpt lat="22.838902" lon="115.051737">
<time>2016-10-06T08:50:09Z</time></trkpt>
<trkpt lat="22.838773" lon="115.051497">
<time>2016-10-06T08:50:10Z</time></trkpt>
<trkpt lat="22.838474" lon="115.051018">
<time>2016-10-06T08:50:11Z</time></trkpt>
<trkpt lat="22.838204" lon="115.050569">
<time>2016-10-06T08:50:12Z</time></trkpt>
<trkpt lat="22.837965" lon="115.05016">
<time>2016-10-06T08:50:13Z</time></trkpt>
<trkpt lat="22.837736" lon="115.049781">
<time>2016-10-06T08:50:14Z</time></trkpt>
<trkpt lat="22.837467" lon="115.049322">
<time>2016-10-06T08:50:15Z</time></trkpt>
<trkpt lat="22.837258" lon="115.048973">
<time>2016-10-06T08:50:16Z</time></trkpt>
<trkpt lat="22.837029" lon="115.048594">
<time>2016-10-06T08:50:17Z</time></trkpt>
<trkpt lat="22.836849" lon="115.048294">
<time>2016-10-06T08:50:18Z</time></trkpt>
<trkpt lat="22.83675" lon="115.048115">
<time>2016-10-06T08:50:19Z</time></trkpt>
<trkpt lat="22.83667" lon="115.048005">
<time>2016-10-06T08:50:20Z</time></trkpt>
<trkpt lat="22.83662" lon="115.047915">
<time>2016-10-06T08:50:21Z</time></trkpt>
<trkpt lat="22.83655" lon="115.047815">
<time>2016-10-06T08:50:22Z</time></trkpt>
<trkpt lat="22.836451" lon="115.047686">
<time>2016-10-06T08:50:23Z</time></trkpt>
<trkpt lat="22.836371" lon="115.047596">
<time>2016-10-06T08:50:24Z</time></trkpt>
<trkpt lat="22.836321" lon="115.047536">
<time>2016-10-06T08:50:25Z</time></trkpt>
<trkpt lat="22.836271" lon="115.047476">
<time>2016-10-06T08:50:26Z</time></trkpt>
<trkpt lat="22.836201" lon="115.047406">
<time>2016-10-06T08:50:27Z</time></trkpt>
<trkpt lat="22.836131" lon="115.047356">
<time>2016-10-06T08:50:28Z</time></trkpt>
<trkpt lat="22.836022" lon="115.047257">
<time>2016-10-06T08:50:29Z</time></trkpt>
<trkpt lat="22.835902" lon="115.047157">
<time>2016-10-06T08:50:30Z</time></trkpt>
<trkpt lat="22.835772" lon="115.047057">
<time>2016-10-06T08:50:31Z</time></trkpt>
<trkpt lat="22.835652" lon="115.046977">
<time>2016-10-06T08:50:32Z</time></trkpt>
<trkpt lat="22.835483" lon="115.046858">
<time>2016-10-06T08:50:33Z</time></trkpt>
<trkpt lat="22.835243" lon="115.046698">
<time>2016-10-06T08:50:34Z</time></trkpt>
<trkpt lat="22.835033" lon="115.046548">
<time>2016-10-06T08:50:35Z</time></trkpt>
<trkpt lat="22.834824" lon="115.046399">
<time>2016-10-06T08:50:36Z</time></trkpt>
<trkpt lat="22.834634" lon="115.046259">
<time>2016-10-06T08:50:37Z</time></trkpt>
<trkpt lat="22.834574" lon="115.046219">
<time>2016-10-06T08:50:38Z</time></trkpt>
<trkpt lat="22.834455" lon="115.046139">
<time>2016-10-06T08:50:39Z</time></trkpt>
<trkpt lat="22.834275" lon="115.046">
<time>2016-10-06T08:50:40Z</time></trkpt>
<trkpt lat="22.834145" lon="115.04589">
<time>2016-10-06T08:50:41Z</time></trkpt>
<trkpt lat="22.834015" lon="115.04577">
<time>2016-10-06T08:50:42Z</time></trkpt>
<trkpt lat="22.833896" lon="115.045641">
<time>2016-10-06T08:50:43Z</time></trkpt>
<trkpt lat="22.833866" lon="115.045611">
<time>2016-10-06T08:50:44Z</time></trkpt>
<trkpt lat="22.833796" lon="115.045531">
<time>2016-10-06T08:50:45Z</time></trkpt>
<trkpt lat="22.833706" lon="115.045391">
<time>2016-10-06T08:50:46Z</time></trkpt>
<trkpt lat="22.833637" lon="115.045282">
<time>2016-10-06T08:50:47Z</time></trkpt>
<trkpt lat="22.833537" lon="115.045052">
<time>2016-10-06T08:50:48Z</time></trkpt>
<trkpt lat="22.833458" lon="115.044843">
<time>2016-10-06T08:50:49Z</time></trkpt>
<trkpt lat="22.833418" lon="115.044723">
<time>2016-10-06T08:50:50Z</time></trkpt>
<trkpt lat="22.833368" lon="115.044533">
<time>2016-10-06T08:50:51Z</time></trkpt>
<trkpt lat="22.833348" lon="115.044434">
<time>2016-10-06T08:50:52Z</time></trkpt>
<trkpt lat="22.833339" lon="115.044354">
<time>2016-10-06T08:50:53Z</time></trkpt>
<trkpt lat="22.833319" lon="115.044254">
<time>2016-10-06T08:50:54Z</time></trkpt>
<trkpt lat="22.833319" lon="115.044184">
<time>2016-10-06T08:50:55Z</time></trkpt>
<trkpt lat="22.833309" lon="115.044094">
<time>2016-10-06T08:50:56Z</time></trkpt>
<trkpt lat="22.833309" lon="115.043985">
<time>2016-10-06T08:50:57Z</time></trkpt>
<trkpt lat="22.8333" lon="115.043695">
<time>2016-10-06T08:50:58Z</time></trkpt>
<trkpt lat="22.833303" lon="115.042359">
<time>2016-10-06T08:50:59Z</time></trkpt>
<trkpt lat="22.833296" lon="115.040942">
<time>2016-10-06T08:51:00Z</time></trkpt>
<trkpt lat="22.833268" lon="115.039885">
<time>2016-10-06T08:51:01Z</time></trkpt>
<trkpt lat="22.833269" lon="115.039735">
<time>2016-10-06T08:51:02Z</time></trkpt>
<trkpt lat="22.83326" lon="115.039356">
<time>2016-10-06T08:51:03Z</time></trkpt>
<trkpt lat="22.83325" lon="115.039207">
<time>2016-10-06T08:51:04Z</time></trkpt>
<trkpt lat="22.833211" lon="115.038928">
<time>2016-10-06T08:51:05Z</time></trkpt>
<trkpt lat="22.833171" lon="115.038718">
<time>2016-10-06T08:51:06Z</time></trkpt>
<trkpt lat="22.833042" lon="115.03816">
<time>2016-10-06T08:51:07Z</time></trkpt>
<trkpt lat="22.832795" lon="115.037122">
<time>2016-10-06T08:51:08Z</time></trkpt>
<trkpt lat="22.832587" lon="115.036255">
<time>2016-10-06T08:51:09Z</time></trkpt>
<trkpt lat="22.832448" lon="115.035656">
<time>2016-10-06T08:51:10Z</time></trkpt>
<trkpt lat="22.832419" lon="115.035567">
<time>2016-10-06T08:51:11Z</time></trkpt>
<trkpt lat="22.83232" lon="115.035108">
<time>2016-10-06T08:51:12Z</time></trkpt>
<trkpt lat="22.832231" lon="115.034729">
<time>2016-10-06T08:51:13Z</time></trkpt>
<trkpt lat="22.832201" lon="115.034579">
<time>2016-10-06T08:51:14Z</time></trkpt>
<trkpt lat="22.832172" lon="115.03443">
<time>2016-10-06T08:51:15Z</time></trkpt>
<trkpt lat="22.832152" lon="115.03428">
<time>2016-10-06T08:51:16Z</time></trkpt>
<trkpt lat="22.832122" lon="115.034101">
<time>2016-10-06T08:51:17Z</time></trkpt>
<trkpt lat="22.832074" lon="115.033582">
<time>2016-10-06T08:51:18Z</time></trkpt>
<trkpt lat="22.831966" lon="115.032605">
<time>2016-10-06T08:51:19Z</time></trkpt>
<trkpt lat="22.831859" lon="115.031648">
<time>2016-10-06T08:51:20Z</time></trkpt>
<trkpt lat="22.831751" lon="115.030601">
<time>2016-10-06T08:51:21Z</time></trkpt>
<trkpt lat="22.831653" lon="115.029713">
<time>2016-10-06T08:51:22Z</time></trkpt>
<trkpt lat="22.831526" lon="115.028676">
<time>2016-10-06T08:51:23Z</time></trkpt>
<trkpt lat="22.831487" lon="115.028337">
<time>2016-10-06T08:51:24Z</time></trkpt>
<trkpt lat="22.831448" lon="115.027988">
<time>2016-10-06T08:51:25Z</time></trkpt>
<trkpt lat="22.83138" lon="115.027271">
<time>2016-10-06T08:51:26Z</time></trkpt>
<trkpt lat="22.831302" lon="115.026642">
<time>2016-10-06T08:51:27Z</time></trkpt>
<trkpt lat="22.831262" lon="115.026423">
<time>2016-10-06T08:51:28Z</time></trkpt>
<trkpt lat="22.831213" lon="115.026194">
<time>2016-10-06T08:51:29Z</time></trkpt>
<trkpt lat="22.831183" lon="115.026084">
<time>2016-10-06T08:51:30Z</time></trkpt>
<trkpt lat="22.831153" lon="115.025974">
<time>2016-10-06T08:51:31Z</time></trkpt>
<trkpt lat="22.831074" lon="115.025775">
<time>2016-10-06T08:51:32Z</time></trkpt>
<trkpt lat="22.830994" lon="115.025606">
<time>2016-10-06T08:51:33Z</time></trkpt>
<trkpt lat="22.830885" lon="115.025416">
<time>2016-10-06T08:51:34Z</time></trkpt>
<trkpt lat="22.830706" lon="115.025097">
<time>2016-10-06T08:51:35Z</time></trkpt>
<trkpt lat="22.830507" lon="115.024768">
<time>2016-10-06T08:51:36Z</time></trkpt>
<trkpt lat="22.830188" lon="115.02424">
<time>2016-10-06T08:51:37Z</time></trkpt>
<trkpt lat="22.82984" lon="115.023662">
<time>2016-10-06T08:51:38Z</time></trkpt>
<trkpt lat="22.829173" lon="115.022545">
<time>2016-10-06T08:51:39Z</time></trkpt>
<trkpt lat="22.828785" lon="115.021897">
<time>2016-10-06T08:51:40Z</time></trkpt>
<trkpt lat="22.828427" lon="115.021289">
<time>2016-10-06T08:51:41Z</time></trkpt>
<trkpt lat="22.828168" lon="115.02085">
<time>2016-10-06T08:51:42Z</time></trkpt>
<trkpt lat="22.82789" lon="115.020392">
<time>2016-10-06T08:51:43Z</time></trkpt>
<trkpt lat="22.827691" lon="115.020063">
<time>2016-10-06T08:51:44Z</time></trkpt>
<trkpt lat="22.827631" lon="115.019943">
<time>2016-10-06T08:51:45Z</time></trkpt>
<trkpt lat="22.827542" lon="115.019784">
<time>2016-10-06T08:51:46Z</time></trkpt>
<trkpt lat="22.827482" lon="115.019654">
<time>2016-10-06T08:51:47Z</time></trkpt>
<trkpt lat="22.827432" lon="115.019525">
<time>2016-10-06T08:51:48Z</time></trkpt>
<trkpt lat="22.827393" lon="115.019415">
<time>2016-10-06T08:51:49Z</time></trkpt>
<trkpt lat="22.827353" lon="115.019266">
<time>2016-10-06T08:51:50Z</time></trkpt>
<trkpt lat="22.827323" lon="115.019156">
<time>2016-10-06T08:51:51Z</time></trkpt>
<trkpt lat="22.827314" lon="115.019046">
<time>2016-10-06T08:51:52Z</time></trkpt>
<trkpt lat="22.827294" lon="115.018877">
<time>2016-10-06T08:51:53Z</time></trkpt>
<trkpt lat="22.827295" lon="115.018697">
<time>2016-10-06T08:51:54Z</time></trkpt>
<trkpt lat="22.827295" lon="115.018578">
<time>2016-10-06T08:51:55Z</time></trkpt>
<trkpt lat="22.827295" lon="115.018478">
<time>2016-10-06T08:51:56Z</time></trkpt>
<trkpt lat="22.827327" lon="115.018">
<time>2016-10-06T08:51:57Z</time></trkpt>
<trkpt lat="22.827369" lon="115.017342">
<time>2016-10-06T08:51:58Z</time></trkpt>
<trkpt lat="22.827453" lon="115.015936">
<time>2016-10-06T08:51:59Z</time></trkpt>
<trkpt lat="22.827515" lon="115.014979">
<time>2016-10-06T08:52:00Z</time></trkpt>
<trkpt lat="22.827557" lon="115.014411">
<time>2016-10-06T08:52:01Z</time></trkpt>
<trkpt lat="22.827681" lon="115.013026">
<time>2016-10-06T08:52:02Z</time></trkpt>
<trkpt lat="22.827743" lon="115.012418">
<time>2016-10-06T08:52:03Z</time></trkpt>
<trkpt lat="22.827784" lon="115.01182">
<time>2016-10-06T08:52:04Z</time></trkpt>
<trkpt lat="22.827805" lon="115.01167">
<time>2016-10-06T08:52:05Z</time></trkpt>
<trkpt lat="22.827846" lon="115.011162">
<time>2016-10-06T08:52:06Z</time></trkpt>
<trkpt lat="22.827888" lon="115.010684">
<time>2016-10-06T08:52:07Z</time></trkpt>
<trkpt lat="22.827929" lon="115.010295">
<time>2016-10-06T08:52:08Z</time></trkpt>
<trkpt lat="22.827959" lon="115.010086">
<time>2016-10-06T08:52:09Z</time></trkpt>
<trkpt lat="22.82798" lon="115.009906">
<time>2016-10-06T08:52:10Z</time></trkpt>
<trkpt lat="22.82801" lon="115.009737">
<time>2016-10-06T08:52:11Z</time></trkpt>
<trkpt lat="22.828061" lon="115.009537">
<time>2016-10-06T08:52:12Z</time></trkpt>
<trkpt lat="22.828102" lon="115.009368">
<time>2016-10-06T08:52:13Z</time></trkpt>
<trkpt lat="22.828192" lon="115.009069">
<time>2016-10-06T08:52:14Z</time></trkpt>
<trkpt lat="22.828515" lon="115.008023">
<time>2016-10-06T08:52:15Z</time></trkpt>
<trkpt lat="22.828858" lon="115.006966">
<time>2016-10-06T08:52:16Z</time></trkpt>
<trkpt lat="22.82903" lon="115.006438">
<time>2016-10-06T08:52:17Z</time></trkpt>
<trkpt lat="22.829232" lon="115.00578">
<time>2016-10-06T08:52:18Z</time></trkpt>
<trkpt lat="22.829403" lon="115.005262">
<time>2016-10-06T08:52:19Z</time></trkpt>
<trkpt lat="22.829837" lon="115.003956">
<time>2016-10-06T08:52:20Z</time></trkpt>
<trkpt lat="22.829958" lon="115.003588">
<time>2016-10-06T08:52:21Z</time></trkpt>
<trkpt lat="22.830099" lon="115.003259">
<time>2016-10-06T08:52:22Z</time></trkpt>
<trkpt lat="22.830391" lon="115.002541">
<time>2016-10-06T08:52:23Z</time></trkpt>
<trkpt lat="22.830613" lon="115.001983">
<time>2016-10-06T08:52:24Z</time></trkpt>
<trkpt lat="22.831066" lon="115.000877">
<time>2016-10-06T08:52:25Z</time></trkpt>
<trkpt lat="22.831438" lon="114.99998">
<time>2016-10-06T08:52:26Z</time></trkpt>
<trkpt lat="22.831459" lon="114.99991">
<time>2016-10-06T08:52:27Z</time></trkpt>
<trkpt lat="22.8316" lon="114.999531">
<time>2016-10-06T08:52:28Z</time></trkpt>
<trkpt lat="22.831821" lon="114.999023">
<time>2016-10-06T08:52:29Z</time></trkpt>
<trkpt lat="22.832003" lon="114.998555">
<time>2016-10-06T08:52:30Z</time></trkpt>
<trkpt lat="22.832224" lon="114.998007">
<time>2016-10-06T08:52:31Z</time></trkpt>
<trkpt lat="22.832254" lon="114.997917">
<time>2016-10-06T08:52:32Z</time></trkpt>
<trkpt lat="22.832295" lon="114.997757">
<time>2016-10-06T08:52:33Z</time></trkpt>
<trkpt lat="22.832336" lon="114.997508">
<time>2016-10-06T08:52:34Z</time></trkpt>
<trkpt lat="22.832356" lon="114.997259">
<time>2016-10-06T08:52:35Z</time></trkpt>
<trkpt lat="22.832347" lon="114.99702">
<time>2016-10-06T08:52:36Z</time></trkpt>
<trkpt lat="22.832328" lon="114.996781">
<time>2016-10-06T08:52:37Z</time></trkpt>
<trkpt lat="22.832289" lon="114.996502">
<time>2016-10-06T08:52:38Z</time></trkpt>
<trkpt lat="22.83222" lon="114.996143">
<time>2016-10-06T08:52:39Z</time></trkpt>
<trkpt lat="22.832003" lon="114.995087">
<time>2016-10-06T08:52:40Z</time></trkpt>
<trkpt lat="22.831865" lon="114.994459">
<time>2016-10-06T08:52:41Z</time></trkpt>
<trkpt lat="22.83154" lon="114.992904">
<time>2016-10-06T08:52:42Z</time></trkpt>
<trkpt lat="22.831461" lon="114.992446">
<time>2016-10-06T08:52:43Z</time></trkpt>
<trkpt lat="22.831422" lon="114.992167">
<time>2016-10-06T08:52:44Z</time></trkpt>
<trkpt lat="22.831413" lon="114.991987">
<time>2016-10-06T08:52:45Z</time></trkpt>
<trkpt lat="22.831413" lon="114.991788">
<time>2016-10-06T08:52:46Z</time></trkpt>
<trkpt lat="22.831414" lon="114.991539">
<time>2016-10-06T08:52:47Z</time></trkpt>
<trkpt lat="22.831435" lon="114.99134">
<time>2016-10-06T08:52:48Z</time></trkpt>
<trkpt lat="22.831445" lon="114.99116">
<time>2016-10-06T08:52:49Z</time></trkpt>
<trkpt lat="22.831476" lon="114.990951">
<time>2016-10-06T08:52:50Z</time></trkpt>
<trkpt lat="22.831527" lon="114.990672">
<time>2016-10-06T08:52:51Z</time></trkpt>
<trkpt lat="22.831649" lon="114.989964">
<time>2016-10-06T08:52:52Z</time></trkpt>
<trkpt lat="22.83175" lon="114.989446">
<time>2016-10-06T08:52:53Z</time></trkpt>
<trkpt lat="22.831842" lon="114.988998">
<time>2016-10-06T08:52:54Z</time></trkpt>
<trkpt lat="22.831994" lon="114.98822">
<time>2016-10-06T08:52:55Z</time></trkpt>
<trkpt lat="22.832177" lon="114.987174">
<time>2016-10-06T08:52:56Z</time></trkpt>
<trkpt lat="22.832259" lon="114.986566">
<time>2016-10-06T08:52:57Z</time></trkpt>
<trkpt lat="22.832331" lon="114.985968">
<time>2016-10-06T08:52:58Z</time></trkpt>
<trkpt lat="22.832341" lon="114.985908">
<time>2016-10-06T08:52:59Z</time></trkpt>
<trkpt lat="22.832392" lon="114.985499">
<time>2016-10-06T08:53:00Z</time></trkpt>
<trkpt lat="22.832433" lon="114.985161">
<time>2016-10-06T08:53:01Z</time></trkpt>
<trkpt lat="22.832526" lon="114.984064">
<time>2016-10-06T08:53:02Z</time></trkpt>
<trkpt lat="22.83262" lon="114.982908">
<time>2016-10-06T08:53:03Z</time></trkpt>
<trkpt lat="22.832712" lon="114.981971">
<time>2016-10-06T08:53:04Z</time></trkpt>
<trkpt lat="22.832775" lon="114.981064">
<time>2016-10-06T08:53:05Z</time></trkpt>
<trkpt lat="22.8329" lon="114.979559">
<time>2016-10-06T08:53:06Z</time></trkpt>
<trkpt lat="22.833044" lon="114.977995">
<time>2016-10-06T08:53:07Z</time></trkpt>
<trkpt lat="22.83322" lon="114.975961">
<time>2016-10-06T08:53:08Z</time></trkpt>
<trkpt lat="22.83324" lon="114.975812">
<time>2016-10-06T08:53:09Z</time></trkpt>
<trkpt lat="22.833292" lon="114.975114">
<time>2016-10-06T08:53:10Z</time></trkpt>
<trkpt lat="22.833323" lon="114.974835">
<time>2016-10-06T08:53:11Z</time></trkpt>
<trkpt lat="22.833385" lon="114.974057">
<time>2016-10-06T08:53:12Z</time></trkpt>
<trkpt lat="22.833447" lon="114.97331">
<time>2016-10-06T08:53:13Z</time></trkpt>
<trkpt lat="22.833519" lon="114.972712">
<time>2016-10-06T08:53:14Z</time></trkpt>
<trkpt lat="22.833519" lon="114.972712">
<time>2016-10-06T08:53:15Z</time></trkpt>
<trkpt lat="22.8335" lon="114.972552">
<time>2016-10-06T08:53:16Z</time></trkpt>
<trkpt lat="22.83351" lon="114.972363">
<time>2016-10-06T08:53:17Z</time></trkpt>
<trkpt lat="22.833541" lon="114.971944">
<time>2016-10-06T08:53:18Z</time></trkpt>
<trkpt lat="22.833562" lon="114.971595">
<time>2016-10-06T08:53:19Z</time></trkpt>
<trkpt lat="22.833604" lon="114.970987">
<time>2016-10-06T08:53:20Z</time></trkpt>
<trkpt lat="22.833625" lon="114.970559">
<time>2016-10-06T08:53:21Z</time></trkpt>
<trkpt lat="22.833677" lon="114.969811">
<time>2016-10-06T08:53:22Z</time></trkpt>
<trkpt lat="22.83373" lon="114.968844">
<time>2016-10-06T08:53:23Z</time></trkpt>
<trkpt lat="22.833771" lon="114.968306">
<time>2016-10-06T08:53:24Z</time></trkpt>
<trkpt lat="22.833813" lon="114.967757">
<time>2016-10-06T08:53:25Z</time></trkpt>
<trkpt lat="22.833854" lon="114.967399">
<time>2016-10-06T08:53:26Z</time></trkpt>
<trkpt lat="22.833875" lon="114.96709">
<time>2016-10-06T08:53:27Z</time></trkpt>
<trkpt lat="22.833885" lon="114.96692">
<time>2016-10-06T08:53:28Z</time></trkpt>
<trkpt lat="22.833885" lon="114.96679">
<time>2016-10-06T08:53:29Z</time></trkpt>
<trkpt lat="22.833876" lon="114.966601">
<time>2016-10-06T08:53:30Z</time></trkpt>
<trkpt lat="22.833857" lon="114.966232">
<time>2016-10-06T08:53:31Z</time></trkpt>
<trkpt lat="22.833838" lon="114.965933">
<time>2016-10-06T08:53:32Z</time></trkpt>
<trkpt lat="22.833818" lon="114.965724">
<time>2016-10-06T08:53:33Z</time></trkpt>
<trkpt lat="22.833799" lon="114.965574">
<time>2016-10-06T08:53:34Z</time></trkpt>
<trkpt lat="22.833779" lon="114.965435">
<time>2016-10-06T08:53:35Z</time></trkpt>
<trkpt lat="22.83374" lon="114.965185">
<time>2016-10-06T08:53:36Z</time></trkpt>
<trkpt lat="22.833631" lon="114.964617">
<time>2016-10-06T08:53:37Z</time></trkpt>
<trkpt lat="22.833552" lon="114.964228">
<time>2016-10-06T08:53:38Z</time></trkpt>
<trkpt lat="22.833513" lon="114.964069">
<time>2016-10-06T08:53:39Z</time></trkpt>
<trkpt lat="22.833473" lon="114.963839">
<time>2016-10-06T08:53:40Z</time></trkpt>
<trkpt lat="22.833375" lon="114.963381">
<time>2016-10-06T08:53:41Z</time></trkpt>
<trkpt lat="22.833325" lon="114.963112">
<time>2016-10-06T08:53:42Z</time></trkpt>
<trkpt lat="22.833217" lon="114.962593">
<time>2016-10-06T08:53:43Z</time></trkpt>
<trkpt lat="22.833197" lon="114.962483">
<time>2016-10-06T08:53:44Z</time></trkpt>
<trkpt lat="22.83296" lon="114.961297">
<time>2016-10-06T08:53:45Z</time></trkpt>
<trkpt lat="22.83296" lon="114.961287">
<time>2016-10-06T08:53:46Z</time></trkpt>
<trkpt lat="22.832378" lon="114.958336">
<time>2016-10-06T08:53:47Z</time></trkpt>
<trkpt lat="22.83223" lon="114.957618">
<time>2016-10-06T08:53:48Z</time></trkpt>
<trkpt lat="22.831696" lon="114.954955">
<time>2016-10-06T08:53:49Z</time></trkpt>
<trkpt lat="22.831608" lon="114.954486">
<time>2016-10-06T08:53:50Z</time></trkpt>
<trkpt lat="22.831568" lon="114.954227">
<time>2016-10-06T08:53:51Z</time></trkpt>
<trkpt lat="22.831529" lon="114.953928">
<time>2016-10-06T08:53:52Z</time></trkpt>
<trkpt lat="22.831519" lon="114.953828">
<time>2016-10-06T08:53:53Z</time></trkpt>
<trkpt lat="22.831509" lon="114.953768">
<time>2016-10-06T08:53:54Z</time></trkpt>
<trkpt lat="22.83149" lon="114.953489">
<time>2016-10-06T08:53:55Z</time></trkpt>
<trkpt lat="22.83149" lon="114.953419">
<time>2016-10-06T08:53:56Z</time></trkpt>
<trkpt lat="22.831471" lon="114.95323">
<time>2016-10-06T08:53:57Z</time></trkpt>
<trkpt lat="22.831461" lon="114.9531">
<time>2016-10-06T08:53:58Z</time></trkpt>
<trkpt lat="22.831462" lon="114.952811">
<time>2016-10-06T08:53:59Z</time></trkpt>
<trkpt lat="22.831473" lon="114.952312">
<time>2016-10-06T08:54:00Z</time></trkpt>
<trkpt lat="22.831493" lon="114.952063">
<time>2016-10-06T08:54:01Z</time></trkpt>
<trkpt lat="22.831524" lon="114.951764">
<time>2016-10-06T08:54:02Z</time></trkpt>
<trkpt lat="22.831554" lon="114.951544">
<time>2016-10-06T08:54:03Z</time></trkpt>
<trkpt lat="22.831625" lon="114.951115">
<time>2016-10-06T08:54:04Z</time></trkpt>
<trkpt lat="22.831625" lon="114.951115">
<time>2016-10-06T08:54:05Z</time></trkpt>
<trkpt lat="22.831606" lon="114.950936">
<time>2016-10-06T08:54:06Z</time></trkpt>
<trkpt lat="22.831707" lon="114.950178">
<time>2016-10-06T08:54:07Z</time></trkpt>
<trkpt lat="22.831779" lon="114.949619">
<time>2016-10-06T08:54:08Z</time></trkpt>
<trkpt lat="22.831809" lon="114.94936">
<time>2016-10-06T08:54:09Z</time></trkpt>
<trkpt lat="22.83185" lon="114.948961">
<time>2016-10-06T08:54:10Z</time></trkpt>
<trkpt lat="22.831871" lon="114.948771">
<time>2016-10-06T08:54:11Z</time></trkpt>
<trkpt lat="22.831881" lon="114.948622">
<time>2016-10-06T08:54:12Z</time></trkpt>
<trkpt lat="22.831871" lon="114.948512">
<time>2016-10-06T08:54:13Z</time></trkpt>
<trkpt lat="22.831852" lon="114.948302">
<time>2016-10-06T08:54:14Z</time></trkpt>
<trkpt lat="22.831852" lon="114.948193">
<time>2016-10-06T08:54:15Z</time></trkpt>
<trkpt lat="22.831852" lon="114.948113">
<time>2016-10-06T08:54:16Z</time></trkpt>
<trkpt lat="22.831862" lon="114.948033">
<time>2016-10-06T08:54:17Z</time></trkpt>
<trkpt lat="22.831882" lon="114.947923">
<time>2016-10-06T08:54:18Z</time></trkpt>
<trkpt lat="22.831913" lon="114.947814">
<time>2016-10-06T08:54:19Z</time></trkpt>
<trkpt lat="22.831983" lon="114.947604">
<time>2016-10-06T08:54:20Z</time></trkpt>
<trkpt lat="22.832053" lon="114.947365">
<time>2016-10-06T08:54:21Z</time></trkpt>
<trkpt lat="22.832134" lon="114.947085">
<time>2016-10-06T08:54:22Z</time></trkpt>
<trkpt lat="22.832164" lon="114.946936">
<time>2016-10-06T08:54:23Z</time></trkpt>
<trkpt lat="22.832195" lon="114.946676">
<time>2016-10-06T08:54:24Z</time></trkpt>
<trkpt lat="22.832246" lon="114.946277">
<time>2016-10-06T08:54:25Z</time></trkpt>
<trkpt lat="22.832317" lon="114.945689">
<time>2016-10-06T08:54:26Z</time></trkpt>
<trkpt lat="22.832337" lon="114.945549">
<time>2016-10-06T08:54:27Z</time></trkpt>
<trkpt lat="22.832368" lon="114.94518">
<time>2016-10-06T08:54:28Z</time></trkpt>
<trkpt lat="22.832369" lon="114.944861">
<time>2016-10-06T08:54:29Z</time></trkpt>
<trkpt lat="22.832349" lon="114.944641">
<time>2016-10-06T08:54:30Z</time></trkpt>
<trkpt lat="22.832339" lon="114.944502">
<time>2016-10-06T08:54:31Z</time></trkpt>
<trkpt lat="22.83231" lon="114.944282">
<time>2016-10-06T08:54:32Z</time></trkpt>
<trkpt lat="22.83227" lon="114.944092">
<time>2016-10-06T08:54:33Z</time></trkpt>
<trkpt lat="22.832231" lon="114.943883">
<time>2016-10-06T08:54:34Z</time></trkpt>
<trkpt lat="22.832191" lon="114.943753">
<time>2016-10-06T08:54:35Z</time></trkpt>
<trkpt lat="22.832141" lon="114.943604">
<time>2016-10-06T08:54:36Z</time></trkpt>
<trkpt lat="22.832062" lon="114.943414">
<time>2016-10-06T08:54:37Z</time></trkpt>
<trkpt lat="22.831972" lon="114.943205">
<time>2016-10-06T08:54:38Z</time></trkpt>
<trkpt lat="22.831873" lon="114.943005">
<time>2016-10-06T08:54:39Z</time></trkpt>
<trkpt lat="22.831793" lon="114.942855">
<time>2016-10-06T08:54:40Z</time></trkpt>
<trkpt lat="22.831693" lon="114.942666">
<time>2016-10-06T08:54:41Z</time></trkpt>
<trkpt lat="22.831384" lon="114.942117">
<time>2016-10-06T08:54:42Z</time></trkpt>
<trkpt lat="22.831155" lon="114.941718">
<time>2016-10-06T08:54:43Z</time></trkpt>
<trkpt lat="22.830926" lon="114.941319">
<time>2016-10-06T08:54:44Z</time></trkpt>
<trkpt lat="22.830667" lon="114.94085">
<time>2016-10-06T08:54:45Z</time></trkpt>
<trkpt lat="22.830328" lon="114.940271">
<time>2016-10-06T08:54:46Z</time></trkpt>
<trkpt lat="22.830298" lon="114.940221">
<time>2016-10-06T08:54:47Z</time></trkpt>
<trkpt lat="22.830179" lon="114.940022">
<time>2016-10-06T08:54:48Z</time></trkpt>
<trkpt lat="22.82996" lon="114.939623">
<time>2016-10-06T08:54:49Z</time></trkpt>
<trkpt lat="22.829731" lon="114.939204">
<time>2016-10-06T08:54:50Z</time></trkpt>
<trkpt lat="22.829312" lon="114.938455">
<time>2016-10-06T08:54:51Z</time></trkpt>
<trkpt lat="22.827279" lon="114.934773">
<time>2016-10-06T08:54:52Z</time></trkpt>
<trkpt lat="22.82692" lon="114.934114">
<time>2016-10-06T08:54:53Z</time></trkpt>
<trkpt lat="22.82692" lon="114.934114">
<time>2016-10-06T08:54:54Z</time></trkpt>
<trkpt lat="22.82697" lon="114.934084">
<time>2016-10-06T08:54:55Z</time></trkpt>
<trkpt lat="22.82697" lon="114.934084">
<time>2016-10-06T08:54:56Z</time></trkpt>
<trkpt lat="22.826502" lon="114.933216">
<time>2016-10-06T08:54:57Z</time></trkpt>
<trkpt lat="22.826203" lon="114.932637">
<time>2016-10-06T08:54:58Z</time></trkpt>
<trkpt lat="22.826143" lon="114.932517">
<time>2016-10-06T08:54:59Z</time></trkpt>
<trkpt lat="22.826083" lon="114.932407">
<time>2016-10-06T08:55:00Z</time></trkpt>
<trkpt lat="22.826044" lon="114.932347">
<time>2016-10-06T08:55:01Z</time></trkpt>
<trkpt lat="22.826004" lon="114.932287">
<time>2016-10-06T08:55:02Z</time></trkpt>
<trkpt lat="22.825944" lon="114.932178">
<time>2016-10-06T08:55:03Z</time></trkpt>
<trkpt lat="22.825874" lon="114.932078">
<time>2016-10-06T08:55:04Z</time></trkpt>
<trkpt lat="22.825804" lon="114.931988">
<time>2016-10-06T08:55:05Z</time></trkpt>
<trkpt lat="22.825704" lon="114.931878">
<time>2016-10-06T08:55:06Z</time></trkpt>
<trkpt lat="22.825625" lon="114.931798">
<time>2016-10-06T08:55:07Z</time></trkpt>
<trkpt lat="22.825575" lon="114.931738">
<time>2016-10-06T08:55:08Z</time></trkpt>
<trkpt lat="22.825505" lon="114.931669">
<time>2016-10-06T08:55:09Z</time></trkpt>
<trkpt lat="22.825405" lon="114.931569">
<time>2016-10-06T08:55:10Z</time></trkpt>
<trkpt lat="22.825265" lon="114.931429">
<time>2016-10-06T08:55:11Z</time></trkpt>
<trkpt lat="22.825096" lon="114.931279">
<time>2016-10-06T08:55:12Z</time></trkpt>
<trkpt lat="22.825006" lon="114.931209">
<time>2016-10-06T08:55:13Z</time></trkpt>
<trkpt lat="22.824896" lon="114.93113">
<time>2016-10-06T08:55:14Z</time></trkpt>
<trkpt lat="22.824746" lon="114.93104">
<time>2016-10-06T08:55:15Z</time></trkpt>
<trkpt lat="22.824666" lon="114.93099">
<time>2016-10-06T08:55:16Z</time></trkpt>
<trkpt lat="22.823667" lon="114.930411">
<time>2016-10-06T08:55:17Z</time></trkpt>
<trkpt lat="22.822698" lon="114.929862">
<time>2016-10-06T08:55:18Z</time></trkpt>
<trkpt lat="22.82139" lon="114.929103">
<time>2016-10-06T08:55:19Z</time></trkpt>
<trkpt lat="22.820771" lon="114.928744">
<time>2016-10-06T08:55:20Z</time></trkpt>
<trkpt lat="22.820441" lon="114.928534">
<time>2016-10-06T08:55:21Z</time></trkpt>
<trkpt lat="22.820182" lon="114.928364">
<time>2016-10-06T08:55:22Z</time></trkpt>
<trkpt lat="22.819952" lon="114.928165">
<time>2016-10-06T08:55:23Z</time></trkpt>
<trkpt lat="22.819862" lon="114.928085">
<time>2016-10-06T08:55:24Z</time></trkpt>
<trkpt lat="22.819772" lon="114.927995">
<time>2016-10-06T08:55:25Z</time></trkpt>
<trkpt lat="22.819642" lon="114.927835">
<time>2016-10-06T08:55:26Z</time></trkpt>
<trkpt lat="22.819453" lon="114.927576">
<time>2016-10-06T08:55:27Z</time></trkpt>
<trkpt lat="22.819243" lon="114.927266">
<time>2016-10-06T08:55:28Z</time></trkpt>
<trkpt lat="22.818994" lon="114.926847">
<time>2016-10-06T08:55:29Z</time></trkpt>
<trkpt lat="22.818595" lon="114.926178">
<time>2016-10-06T08:55:30Z</time></trkpt>
<trkpt lat="22.818405" lon="114.925908">
<time>2016-10-06T08:55:31Z</time></trkpt>
<trkpt lat="22.818306" lon="114.925769">
<time>2016-10-06T08:55:32Z</time></trkpt>
<trkpt lat="22.818176" lon="114.925619">
<time>2016-10-06T08:55:33Z</time></trkpt>
<trkpt lat="22.818046" lon="114.925459">
<time>2016-10-06T08:55:34Z</time></trkpt>
<trkpt lat="22.817896" lon="114.925289">
<time>2016-10-06T08:55:35Z</time></trkpt>
<trkpt lat="22.817767" lon="114.92517">
<time>2016-10-06T08:55:36Z</time></trkpt>
<trkpt lat="22.817637" lon="114.92506">
<time>2016-10-06T08:55:37Z</time></trkpt>
<trkpt lat="22.817527" lon="114.92496">
<time>2016-10-06T08:55:38Z</time></trkpt>
<trkpt lat="22.817357" lon="114.92483">
<time>2016-10-06T08:55:39Z</time></trkpt>
<trkpt lat="22.817167" lon="114.9247">
<time>2016-10-06T08:55:40Z</time></trkpt>
<trkpt lat="22.817068" lon="114.92464">
<time>2016-10-06T08:55:41Z</time></trkpt>
<trkpt lat="22.816838" lon="114.924501">
<time>2016-10-06T08:55:42Z</time></trkpt>
<trkpt lat="22.816538" lon="114.924351">
<time>2016-10-06T08:55:43Z</time></trkpt>
<trkpt lat="22.816258" lon="114.924231">
<time>2016-10-06T08:55:44Z</time></trkpt>
<trkpt lat="22.815969" lon="114.924101">
<time>2016-10-06T08:55:45Z</time></trkpt>
<trkpt lat="22.815789" lon="114.924021">
<time>2016-10-06T08:55:46Z</time></trkpt>
<trkpt lat="22.815599" lon="114.923952">
<time>2016-10-06T08:55:47Z</time></trkpt>
<trkpt lat="22.815269" lon="114.923852">
<time>2016-10-06T08:55:48Z</time></trkpt>
<trkpt lat="22.815019" lon="114.923792">
<time>2016-10-06T08:55:49Z</time></trkpt>
<trkpt lat="22.814899" lon="114.923772">
<time>2016-10-06T08:55:50Z</time></trkpt>
<trkpt lat="22.814749" lon="114.923752">
<time>2016-10-06T08:55:51Z</time></trkpt>
<trkpt lat="22.81461" lon="114.923732">
<time>2016-10-06T08:55:52Z</time></trkpt>
<trkpt lat="22.81447" lon="114.923722">
<time>2016-10-06T08:55:53Z</time></trkpt>
<trkpt lat="22.81431" lon="114.923712">
<time>2016-10-06T08:55:54Z</time></trkpt>
<trkpt lat="22.81413" lon="114.923712">
<time>2016-10-06T08:55:55Z</time></trkpt>
<trkpt lat="22.81398" lon="114.923722">
<time>2016-10-06T08:55:56Z</time></trkpt>
<trkpt lat="22.81385" lon="114.923732">
<time>2016-10-06T08:55:57Z</time></trkpt>
<trkpt lat="22.81371" lon="114.923742">
<time>2016-10-06T08:55:58Z</time></trkpt>
<trkpt lat="22.81345" lon="114.923762">
<time>2016-10-06T08:55:59Z</time></trkpt>
<trkpt lat="22.81308" lon="114.923802">
<time>2016-10-06T08:56:00Z</time></trkpt>
<trkpt lat="22.81272" lon="114.923842">
<time>2016-10-06T08:56:01Z</time></trkpt>
<trkpt lat="22.81204" lon="114.923902">
<time>2016-10-06T08:56:02Z</time></trkpt>
<trkpt lat="22.81153" lon="114.923952">
<time>2016-10-06T08:56:03Z</time></trkpt>
<trkpt lat="22.8112" lon="114.923982">
<time>2016-10-06T08:56:04Z</time></trkpt>
<trkpt lat="22.810691" lon="114.924032">
<time>2016-10-06T08:56:05Z</time></trkpt>
<trkpt lat="22.810461" lon="114.924052">
<time>2016-10-06T08:56:06Z</time></trkpt>
<trkpt lat="22.810201" lon="114.924072">
<time>2016-10-06T08:56:07Z</time></trkpt>
<trkpt lat="22.808381" lon="114.924252">
<time>2016-10-06T08:56:08Z</time></trkpt>
<trkpt lat="22.807271" lon="114.924361">
<time>2016-10-06T08:56:09Z</time></trkpt>
<trkpt lat="22.807031" lon="114.924381">
<time>2016-10-06T08:56:10Z</time></trkpt>
<trkpt lat="22.806672" lon="114.924421">
<time>2016-10-06T08:56:11Z</time></trkpt>
<trkpt lat="22.806472" lon="114.924441">
<time>2016-10-06T08:56:12Z</time></trkpt>
<trkpt lat="22.806282" lon="114.924461">
<time>2016-10-06T08:56:13Z</time></trkpt>
<trkpt lat="22.805742" lon="114.924511">
<time>2016-10-06T08:56:14Z</time></trkpt>
<trkpt lat="22.805182" lon="114.924561">
<time>2016-10-06T08:56:15Z</time></trkpt>
<trkpt lat="22.804822" lon="114.924601">
<time>2016-10-06T08:56:16Z</time></trkpt>
<trkpt lat="22.804772" lon="114.924611">
<time>2016-10-06T08:56:17Z</time></trkpt>
<trkpt lat="22.804672" lon="114.924611">
<time>2016-10-06T08:56:18Z</time></trkpt>
<trkpt lat="22.804592" lon="114.924611">
<time>2016-10-06T08:56:19Z</time></trkpt>
<trkpt lat="22.804432" lon="114.924611">
<time>2016-10-06T08:56:20Z</time></trkpt>
<trkpt lat="22.804332" lon="114.924591">
<time>2016-10-06T08:56:21Z</time></trkpt>
<trkpt lat="22.804232" lon="114.924581">
<time>2016-10-06T08:56:22Z</time></trkpt>
<trkpt lat="22.804152" lon="114.924571">
<time>2016-10-06T08:56:23Z</time></trkpt>
<trkpt lat="22.804082" lon="114.924561">
<time>2016-10-06T08:56:24Z</time></trkpt>
<trkpt lat="22.803972" lon="114.924531">
<time>2016-10-06T08:56:25Z</time></trkpt>
<trkpt lat="22.803772" lon="114.924462">
<time>2016-10-06T08:56:26Z</time></trkpt>
<trkpt lat="22.803693" lon="114.924432">
<time>2016-10-06T08:56:27Z</time></trkpt>
<trkpt lat="22.803543" lon="114.924362">
<time>2016-10-06T08:56:28Z</time></trkpt>
<trkpt lat="22.803363" lon="114.924272">
<time>2016-10-06T08:56:29Z</time></trkpt>
<trkpt lat="22.803213" lon="114.924172">
<time>2016-10-06T08:56:30Z</time></trkpt>
<trkpt lat="22.803103" lon="114.924082">
<time>2016-10-06T08:56:31Z</time></trkpt>
<trkpt lat="22.802923" lon="114.923912">
<time>2016-10-06T08:56:32Z</time></trkpt>
<trkpt lat="22.802814" lon="114.923803">
<time>2016-10-06T08:56:33Z</time></trkpt>
<trkpt lat="22.802694" lon="114.923663">
<time>2016-10-06T08:56:34Z</time></trkpt>
<trkpt lat="22.802614" lon="114.923553">
<time>2016-10-06T08:56:35Z</time></trkpt>
<trkpt lat="22.802544" lon="114.923433">
<time>2016-10-06T08:56:36Z</time></trkpt>
<trkpt lat="22.802464" lon="114.923283">
<time>2016-10-06T08:56:37Z</time></trkpt>
<trkpt lat="22.802385" lon="114.923114">
<time>2016-10-06T08:56:38Z</time></trkpt>
<trkpt lat="22.802275" lon="114.922784">
<time>2016-10-06T08:56:39Z</time></trkpt>
<trkpt lat="22.802155" lon="114.922424">
<time>2016-10-06T08:56:40Z</time></trkpt>
<trkpt lat="22.802086" lon="114.922175">
<time>2016-10-06T08:56:41Z</time></trkpt>
<trkpt lat="22.802076" lon="114.922145">
<time>2016-10-06T08:56:42Z</time></trkpt>
<trkpt lat="22.801996" lon="114.921855">
<time>2016-10-06T08:56:43Z</time></trkpt>
<trkpt lat="22.801757" lon="114.920936">
<time>2016-10-06T08:56:44Z</time></trkpt>
<trkpt lat="22.801548" lon="114.920058">
<time>2016-10-06T08:56:45Z</time></trkpt>
<trkpt lat="22.801518" lon="114.919918">
<time>2016-10-06T08:56:46Z</time></trkpt>
<trkpt lat="22.801399" lon="114.919229">
<time>2016-10-06T08:56:47Z</time></trkpt>
<trkpt lat="22.80127" lon="114.918489">
<time>2016-10-06T08:56:48Z</time></trkpt>
<trkpt lat="22.80116" lon="114.91797">
<time>2016-10-06T08:56:49Z</time></trkpt>
<trkpt lat="22.80113" lon="114.91786">
<time>2016-10-06T08:56:50Z</time></trkpt>
<trkpt lat="22.801071" lon="114.91766">
<time>2016-10-06T08:56:51Z</time></trkpt>
<trkpt lat="22.801001" lon="114.917471">
<time>2016-10-06T08:56:52Z</time></trkpt>
<trkpt lat="22.800951" lon="114.917341">
<time>2016-10-06T08:56:53Z</time></trkpt>
<trkpt lat="22.800911" lon="114.917251">
<time>2016-10-06T08:56:54Z</time></trkpt>
<trkpt lat="22.800861" lon="114.917121">
<time>2016-10-06T08:56:55Z</time></trkpt>
<trkpt lat="22.800612" lon="114.916482">
<time>2016-10-06T08:56:56Z</time></trkpt>
<trkpt lat="22.800253" lon="114.915653">
<time>2016-10-06T08:56:57Z</time></trkpt>
<trkpt lat="22.800153" lon="114.915413">
<time>2016-10-06T08:56:58Z</time></trkpt>
<trkpt lat="22.800023" lon="114.915103">
<time>2016-10-06T08:56:59Z</time></trkpt>
<trkpt lat="22.799884" lon="114.914724">
<time>2016-10-06T08:57:00Z</time></trkpt>
<trkpt lat="22.799794" lon="114.914474">
<time>2016-10-06T08:57:01Z</time></trkpt>
<trkpt lat="22.799724" lon="114.914294">
<time>2016-10-06T08:57:02Z</time></trkpt>
<trkpt lat="22.799664" lon="114.914084">
<time>2016-10-06T08:57:03Z</time></trkpt>
<trkpt lat="22.799604" lon="114.913814">
<time>2016-10-06T08:57:04Z</time></trkpt>
<trkpt lat="22.799565" lon="114.913615">
<time>2016-10-06T08:57:05Z</time></trkpt>
<trkpt lat="22.799475" lon="114.913075">
<time>2016-10-06T08:57:06Z</time></trkpt>
<trkpt lat="22.799356" lon="114.912286">
<time>2016-10-06T08:57:07Z</time></trkpt>
<trkpt lat="22.799306" lon="114.911956">
<time>2016-10-06T08:57:08Z</time></trkpt>
<trkpt lat="22.799226" lon="114.911546">
<time>2016-10-06T08:57:09Z</time></trkpt>
<trkpt lat="22.799126" lon="114.911087">
<time>2016-10-06T08:57:10Z</time></trkpt>
<trkpt lat="22.799057" lon="114.910727">
<time>2016-10-06T08:57:11Z</time></trkpt>
<trkpt lat="22.798767" lon="114.909358">
<time>2016-10-06T08:57:12Z</time></trkpt>
<trkpt lat="22.798418" lon="114.907849">
<time>2016-10-06T08:57:13Z</time></trkpt>
<trkpt lat="22.798299" lon="114.907479">
<time>2016-10-06T08:57:14Z</time></trkpt>
<trkpt lat="22.798179" lon="114.90721">
<time>2016-10-06T08:57:15Z</time></trkpt>
<trkpt lat="22.798009" lon="114.90692">
<time>2016-10-06T08:57:16Z</time></trkpt>
<trkpt lat="22.797869" lon="114.90671">
<time>2016-10-06T08:57:17Z</time></trkpt>
<trkpt lat="22.797789" lon="114.90662">
<time>2016-10-06T08:57:18Z</time></trkpt>
<trkpt lat="22.797689" lon="114.90651">
<time>2016-10-06T08:57:19Z</time></trkpt>
<trkpt lat="22.797599" lon="114.90642">
<time>2016-10-06T08:57:20Z</time></trkpt>
<trkpt lat="22.797509" lon="114.90634">
<time>2016-10-06T08:57:21Z</time></trkpt>
<trkpt lat="22.797419" lon="114.90626">
<time>2016-10-06T08:57:22Z</time></trkpt>
<trkpt lat="22.797309" lon="114.90616">
<time>2016-10-06T08:57:23Z</time></trkpt>
<trkpt lat="22.79723" lon="114.90611">
<time>2016-10-06T08:57:24Z</time></trkpt>
<trkpt lat="22.79711" lon="114.90602">
<time>2016-10-06T08:57:25Z</time></trkpt>
<trkpt lat="22.79674" lon="114.905761">
<time>2016-10-06T08:57:26Z</time></trkpt>
<trkpt lat="22.79619" lon="114.905381">
<time>2016-10-06T08:57:27Z</time></trkpt>
<trkpt lat="22.79578" lon="114.905101">
<time>2016-10-06T08:57:28Z</time></trkpt>
<trkpt lat="22.795501" lon="114.904891">
<time>2016-10-06T08:57:29Z</time></trkpt>
<trkpt lat="22.795231" lon="114.904681">
<time>2016-10-06T08:57:30Z</time></trkpt>
<trkpt lat="22.794921" lon="114.904421">
<time>2016-10-06T08:57:31Z</time></trkpt>
<trkpt lat="22.794511" lon="114.904012">
<time>2016-10-06T08:57:32Z</time></trkpt>
<trkpt lat="22.794281" lon="114.903762">
<time>2016-10-06T08:57:33Z</time></trkpt>
<trkpt lat="22.793722" lon="114.903172">
<time>2016-10-06T08:57:34Z</time></trkpt>
<trkpt lat="22.792802" lon="114.902192">
<time>2016-10-06T08:57:35Z</time></trkpt>
<trkpt lat="22.792243" lon="114.901603">
<time>2016-10-06T08:57:36Z</time></trkpt>
<trkpt lat="22.791793" lon="114.901153">
<time>2016-10-06T08:57:37Z</time></trkpt>
<trkpt lat="22.791543" lon="114.900903">
<time>2016-10-06T08:57:38Z</time></trkpt>
<trkpt lat="22.791373" lon="114.900743">
<time>2016-10-06T08:57:39Z</time></trkpt>
<trkpt lat="22.789864" lon="114.899283">
<time>2016-10-06T08:57:40Z</time></trkpt>
<trkpt lat="22.789124" lon="114.898564">
<time>2016-10-06T08:57:41Z</time></trkpt>
<trkpt lat="22.787595" lon="114.897104">
<time>2016-10-06T08:57:42Z</time></trkpt>
<trkpt lat="22.787325" lon="114.896844">
<time>2016-10-06T08:57:43Z</time></trkpt>
<trkpt lat="22.786915" lon="114.896474">
<time>2016-10-06T08:57:44Z</time></trkpt>
<trkpt lat="22.786525" lon="114.896124">
<time>2016-10-06T08:57:45Z</time></trkpt>
<trkpt lat="22.786265" lon="114.895894">
<time>2016-10-06T08:57:46Z</time></trkpt>
<trkpt lat="22.785845" lon="114.895514">
<time>2016-10-06T08:57:47Z</time></trkpt>
<trkpt lat="22.785665" lon="114.895354">
<time>2016-10-06T08:57:48Z</time></trkpt>
<trkpt lat="22.785555" lon="114.895254">
<time>2016-10-06T08:57:49Z</time></trkpt>
<trkpt lat="22.785475" lon="114.895174">
<time>2016-10-06T08:57:50Z</time></trkpt>
<trkpt lat="22.785385" lon="114.895064">
<time>2016-10-06T08:57:51Z</time></trkpt>
<trkpt lat="22.785245" lon="114.894914">
<time>2016-10-06T08:57:52Z</time></trkpt>
<trkpt lat="22.785065" lon="114.894674">
<time>2016-10-06T08:57:53Z</time></trkpt>
<trkpt lat="22.784885" lon="114.894414">
<time>2016-10-06T08:57:54Z</time></trkpt>
<trkpt lat="22.784645" lon="114.894054">
<time>2016-10-06T08:57:55Z</time></trkpt>
<trkpt lat="22.784525" lon="114.893874">
<time>2016-10-06T08:57:56Z</time></trkpt>
<trkpt lat="22.784195" lon="114.893364">
<time>2016-10-06T08:57:57Z</time></trkpt>
<trkpt lat="22.783645" lon="114.892494">
<time>2016-10-06T08:57:58Z</time></trkpt>
<trkpt lat="22.783105" lon="114.891684">
<time>2016-10-06T08:57:59Z</time></trkpt>
<trkpt lat="22.782275" lon="114.890514">
<time>2016-10-06T08:58:00Z</time></trkpt>
<trkpt lat="22.781975" lon="114.890104">
<time>2016-10-06T08:58:01Z</time></trkpt>
<trkpt lat="22.781665" lon="114.889644">
<time>2016-10-06T08:58:02Z</time></trkpt>
<trkpt lat="22.780815" lon="114.888373">
<time>2016-10-06T08:58:03Z</time></trkpt>
<trkpt lat="22.780485" lon="114.887883">
<time>2016-10-06T08:58:04Z</time></trkpt>
<trkpt lat="22.779675" lon="114.886693">
<time>2016-10-06T08:58:05Z</time></trkpt>
<trkpt lat="22.779225" lon="114.886013">
<time>2016-10-06T08:58:06Z</time></trkpt>
<trkpt lat="22.778854" lon="114.885443">
<time>2016-10-06T08:58:07Z</time></trkpt>
<trkpt lat="22.778544" lon="114.884962">
<time>2016-10-06T08:58:08Z</time></trkpt>
<trkpt lat="22.778504" lon="114.884902">
<time>2016-10-06T08:58:09Z</time></trkpt>
<trkpt lat="22.778254" lon="114.884442">
<time>2016-10-06T08:58:10Z</time></trkpt>
<trkpt lat="22.778054" lon="114.884022">
<time>2016-10-06T08:58:11Z</time></trkpt>
<trkpt lat="22.777904" lon="114.883692">
<time>2016-10-06T08:58:12Z</time></trkpt>
<trkpt lat="22.777463" lon="114.882601">
<time>2016-10-06T08:58:13Z</time></trkpt>
<trkpt lat="22.777263" lon="114.882111">
<time>2016-10-06T08:58:14Z</time></trkpt>
<trkpt lat="22.777123" lon="114.881771">
<time>2016-10-06T08:58:15Z</time></trkpt>
<trkpt lat="22.776993" lon="114.881431">
<time>2016-10-06T08:58:16Z</time></trkpt>
<trkpt lat="22.776752" lon="114.88085">
<time>2016-10-06T08:58:17Z</time></trkpt>
<trkpt lat="22.776472" lon="114.88023">
<time>2016-10-06T08:58:18Z</time></trkpt>
<trkpt lat="22.776292" lon="114.87986">
<time>2016-10-06T08:58:19Z</time></trkpt>
<trkpt lat="22.775681" lon="114.878659">
<time>2016-10-06T08:58:20Z</time></trkpt>
<trkpt lat="22.775371" lon="114.878058">
<time>2016-10-06T08:58:21Z</time></trkpt>
<trkpt lat="22.77447" lon="114.876327">
<time>2016-10-06T08:58:22Z</time></trkpt>
<trkpt lat="22.774019" lon="114.875456">
<time>2016-10-06T08:58:23Z</time></trkpt>
<trkpt lat="22.773989" lon="114.875406">
<time>2016-10-06T08:58:24Z</time></trkpt>
<trkpt lat="22.773869" lon="114.875166">
<time>2016-10-06T08:58:25Z</time></trkpt>
<trkpt lat="22.773779" lon="114.875006">
<time>2016-10-06T08:58:26Z</time></trkpt>
<trkpt lat="22.773468" lon="114.874416">
<time>2016-10-06T08:58:27Z</time></trkpt>
<trkpt lat="22.773438" lon="114.874366">
<time>2016-10-06T08:58:28Z</time></trkpt>
<trkpt lat="22.773188" lon="114.873885">
<time>2016-10-06T08:58:29Z</time></trkpt>
<trkpt lat="22.773028" lon="114.873555">
<time>2016-10-06T08:58:30Z</time></trkpt>
<trkpt lat="22.772887" lon="114.873265">
<time>2016-10-06T08:58:31Z</time></trkpt>
<trkpt lat="22.772787" lon="114.873044">
<time>2016-10-06T08:58:32Z</time></trkpt>
<trkpt lat="22.772677" lon="114.872784">
<time>2016-10-06T08:58:33Z</time></trkpt>
<trkpt lat="22.772577" lon="114.872514">
<time>2016-10-06T08:58:34Z</time></trkpt>
<trkpt lat="22.772486" lon="114.872194">
<time>2016-10-06T08:58:35Z</time></trkpt>
<trkpt lat="22.772416" lon="114.871903">
<time>2016-10-06T08:58:36Z</time></trkpt>
<trkpt lat="22.772376" lon="114.871703">
<time>2016-10-06T08:58:37Z</time></trkpt>
<trkpt lat="22.772346" lon="114.871493">
<time>2016-10-06T08:58:38Z</time></trkpt>
<trkpt lat="22.772305" lon="114.871183">
<time>2016-10-06T08:58:39Z</time></trkpt>
<trkpt lat="22.772285" lon="114.870832">
<time>2016-10-06T08:58:40Z</time></trkpt>
<trkpt lat="22.772275" lon="114.870582">
<time>2016-10-06T08:58:41Z</time></trkpt>
<trkpt lat="22.772275" lon="114.870392">
<time>2016-10-06T08:58:42Z</time></trkpt>
<trkpt lat="22.772294" lon="114.870111">
<time>2016-10-06T08:58:43Z</time></trkpt>
<trkpt lat="22.772324" lon="114.869851">
<time>2016-10-06T08:58:44Z</time></trkpt>
<trkpt lat="22.772344" lon="114.869631">
<time>2016-10-06T08:58:45Z</time></trkpt>
<trkpt lat="22.772393" lon="114.869391">
<time>2016-10-06T08:58:46Z</time></trkpt>
<trkpt lat="22.772483" lon="114.86904">
<time>2016-10-06T08:58:47Z</time></trkpt>
<trkpt lat="22.772762" lon="114.868009">
<time>2016-10-06T08:58:48Z</time></trkpt>
<trkpt lat="22.772991" lon="114.867168">
<time>2016-10-06T08:58:49Z</time></trkpt>
<trkpt lat="22.77314" lon="114.866638">
<time>2016-10-06T08:58:50Z</time></trkpt>
<trkpt lat="22.77326" lon="114.866207">
<time>2016-10-06T08:58:51Z</time></trkpt>
<trkpt lat="22.773389" lon="114.865696">
<time>2016-10-06T08:58:52Z</time></trkpt>
<trkpt lat="22.773468" lon="114.865326">
<time>2016-10-06T08:58:53Z</time></trkpt>
<trkpt lat="22.773528" lon="114.865006">
<time>2016-10-06T08:58:54Z</time></trkpt>
<trkpt lat="22.773577" lon="114.864615">
<time>2016-10-06T08:58:55Z</time></trkpt>
<trkpt lat="22.773666" lon="114.863794">
<time>2016-10-06T08:58:56Z</time></trkpt>
<trkpt lat="22.773696" lon="114.863504">
<time>2016-10-06T08:58:57Z</time></trkpt>
<trkpt lat="22.773726" lon="114.863313">
<time>2016-10-06T08:58:58Z</time></trkpt>
<trkpt lat="22.773746" lon="114.863153">
<time>2016-10-06T08:58:59Z</time></trkpt>
<trkpt lat="22.773795" lon="114.862963">
<time>2016-10-06T08:59:00Z</time></trkpt>
<trkpt lat="22.773835" lon="114.862803">
<time>2016-10-06T08:59:01Z</time></trkpt>
<trkpt lat="22.773895" lon="114.862633">
<time>2016-10-06T08:59:02Z</time></trkpt>
<trkpt lat="22.773965" lon="114.862462">
<time>2016-10-06T08:59:03Z</time></trkpt>
<trkpt lat="22.774044" lon="114.862312">
<time>2016-10-06T08:59:04Z</time></trkpt>
<trkpt lat="22.774104" lon="114.862192">
<time>2016-10-06T08:59:05Z</time></trkpt>
<trkpt lat="22.774174" lon="114.862082">
<time>2016-10-06T08:59:06Z</time></trkpt>
<trkpt lat="22.774214" lon="114.862032">
<time>2016-10-06T08:59:07Z</time></trkpt>
<trkpt lat="22.774284" lon="114.861942">
<time>2016-10-06T08:59:08Z</time></trkpt>
<trkpt lat="22.774404" lon="114.861811">
<time>2016-10-06T08:59:09Z</time></trkpt>
<trkpt lat="22.774553" lon="114.861651">
<time>2016-10-06T08:59:10Z</time></trkpt>
<trkpt lat="22.774703" lon="114.861501">
<time>2016-10-06T08:59:11Z</time></trkpt>
<trkpt lat="22.774943" lon="114.861271">
<time>2016-10-06T08:59:12Z</time></trkpt>
<trkpt lat="22.775172" lon="114.86105">
<time>2016-10-06T08:59:13Z</time></trkpt>
<trkpt lat="22.775172" lon="114.86104">
<time>2016-10-06T08:59:14Z</time></trkpt>
<trkpt lat="22.775771" lon="114.86047">
<time>2016-10-06T08:59:15Z</time></trkpt>
<trkpt lat="22.776101" lon="114.860139">
<time>2016-10-06T08:59:16Z</time></trkpt>
<trkpt lat="22.77632" lon="114.859939">
<time>2016-10-06T08:59:17Z</time></trkpt>
<trkpt lat="22.77651" lon="114.859738">
<time>2016-10-06T08:59:18Z</time></trkpt>
<trkpt lat="22.7767" lon="114.859528">
<time>2016-10-06T08:59:19Z</time></trkpt>
<trkpt lat="22.776819" lon="114.859368">
<time>2016-10-06T08:59:20Z</time></trkpt>
<trkpt lat="22.776929" lon="114.859208">
<time>2016-10-06T08:59:21Z</time></trkpt>
<trkpt lat="22.777039" lon="114.859027">
<time>2016-10-06T08:59:22Z</time></trkpt>
<trkpt lat="22.777129" lon="114.858877">
<time>2016-10-06T08:59:23Z</time></trkpt>
<trkpt lat="22.777208" lon="114.858727">
<time>2016-10-06T08:59:24Z</time></trkpt>
<trkpt lat="22.777288" lon="114.858547">
<time>2016-10-06T08:59:25Z</time></trkpt>
<trkpt lat="22.777388" lon="114.858326">
<time>2016-10-06T08:59:26Z</time></trkpt>
<trkpt lat="22.777467" lon="114.858096">
<time>2016-10-06T08:59:27Z</time></trkpt>
<trkpt lat="22.777617" lon="114.857675">
<time>2016-10-06T08:59:28Z</time></trkpt>
<trkpt lat="22.777686" lon="114.857475">
<time>2016-10-06T08:59:29Z</time></trkpt>
<trkpt lat="22.777816" lon="114.857095">
<time>2016-10-06T08:59:30Z</time></trkpt>
<trkpt lat="22.777975" lon="114.856644">
<time>2016-10-06T08:59:31Z</time></trkpt>
<trkpt lat="22.778244" lon="114.855883">
<time>2016-10-06T08:59:32Z</time></trkpt>
<trkpt lat="22.778353" lon="114.855582">
<time>2016-10-06T08:59:33Z</time></trkpt>
<trkpt lat="22.778443" lon="114.855362">
<time>2016-10-06T08:59:34Z</time></trkpt>
<trkpt lat="22.778513" lon="114.855192">
<time>2016-10-06T08:59:35Z</time></trkpt>
<trkpt lat="22.778583" lon="114.855021">
<time>2016-10-06T08:59:36Z</time></trkpt>
<trkpt lat="22.778702" lon="114.854791">
<time>2016-10-06T08:59:37Z</time></trkpt>
<trkpt lat="22.778842" lon="114.854501">
<time>2016-10-06T08:59:38Z</time></trkpt>
<trkpt lat="22.779021" lon="114.85417">
<time>2016-10-06T08:59:39Z</time></trkpt>
<trkpt lat="22.779181" lon="114.85386">
<time>2016-10-06T08:59:40Z</time></trkpt>
<trkpt lat="22.77952" lon="114.853229">
<time>2016-10-06T08:59:41Z</time></trkpt>
<trkpt lat="22.779858" lon="114.852578">
<time>2016-10-06T08:59:42Z</time></trkpt>
<trkpt lat="22.780187" lon="114.851967">
<time>2016-10-06T08:59:43Z</time></trkpt>
<trkpt lat="22.780546" lon="114.851295">
<time>2016-10-06T08:59:44Z</time></trkpt>
<trkpt lat="22.781015" lon="114.850414">
<time>2016-10-06T08:59:45Z</time></trkpt>
<trkpt lat="22.781762" lon="114.849012">
<time>2016-10-06T08:59:46Z</time></trkpt>
<trkpt lat="22.782091" lon="114.848381">
<time>2016-10-06T08:59:47Z</time></trkpt>
<trkpt lat="22.78234" lon="114.84789">
<time>2016-10-06T08:59:48Z</time></trkpt>
<trkpt lat="22.782908" lon="114.846828">
<time>2016-10-06T08:59:49Z</time></trkpt>
<trkpt lat="22.783127" lon="114.846437">
<time>2016-10-06T08:59:50Z</time></trkpt>
<trkpt lat="22.783366" lon="114.845966">
<time>2016-10-06T08:59:51Z</time></trkpt>
<trkpt lat="22.783805" lon="114.845145">
<time>2016-10-06T08:59:52Z</time></trkpt>
<trkpt lat="22.784064" lon="114.844654">
<time>2016-10-06T08:59:53Z</time></trkpt>
<trkpt lat="22.784333" lon="114.844163">
<time>2016-10-06T08:59:54Z</time></trkpt>
<trkpt lat="22.784572" lon="114.843682">
<time>2016-10-06T08:59:55Z</time></trkpt>
<trkpt lat="22.784741" lon="114.843362">
<time>2016-10-06T08:59:56Z</time></trkpt>
<trkpt lat="22.784891" lon="114.843091">
<time>2016-10-06T08:59:57Z</time></trkpt>
<trkpt lat="22.785021" lon="114.842871">
<time>2016-10-06T08:59:58Z</time></trkpt>
<trkpt lat="22.78518" lon="114.84262">
<time>2016-10-06T08:59:59Z</time></trkpt>
<trkpt lat="22.78531" lon="114.84244">
<time>2016-10-06T09:00:00Z</time></trkpt>
<trkpt lat="22.785479" lon="114.84224">
<time>2016-10-06T09:00:01Z</time></trkpt>
<trkpt lat="22.785639" lon="114.842059">
<time>2016-10-06T09:00:02Z</time></trkpt>
<trkpt lat="22.785779" lon="114.841929">
<time>2016-10-06T09:00:03Z</time></trkpt>
<trkpt lat="22.785938" lon="114.841779">
<time>2016-10-06T09:00:04Z</time></trkpt>
<trkpt lat="22.786128" lon="114.841618">
<time>2016-10-06T09:00:05Z</time></trkpt>
<trkpt lat="22.786378" lon="114.841438">
<time>2016-10-06T09:00:06Z</time></trkpt>
<trkpt lat="22.786577" lon="114.841308">
<time>2016-10-06T09:00:07Z</time></trkpt>
<trkpt lat="22.786767" lon="114.841198">
<time>2016-10-06T09:00:08Z</time></trkpt>
<trkpt lat="22.786957" lon="114.841097">
<time>2016-10-06T09:00:09Z</time></trkpt>
<trkpt lat="22.787067" lon="114.841047">
<time>2016-10-06T09:00:10Z</time></trkpt>
<trkpt lat="22.787206" lon="114.840987">
<time>2016-10-06T09:00:11Z</time></trkpt>
<trkpt lat="22.787226" lon="114.840977">
<time>2016-10-06T09:00:12Z</time></trkpt>
<trkpt lat="22.787496" lon="114.840877">
<time>2016-10-06T09:00:13Z</time></trkpt>
<trkpt lat="22.787746" lon="114.840797">
<time>2016-10-06T09:00:14Z</time></trkpt>
<trkpt lat="22.788066" lon="114.840677">
<time>2016-10-06T09:00:15Z</time></trkpt>
<trkpt lat="22.788355" lon="114.840576">
<time>2016-10-06T09:00:16Z</time></trkpt>
<trkpt lat="22.788685" lon="114.840466">
<time>2016-10-06T09:00:17Z</time></trkpt>
<trkpt lat="22.789015" lon="114.840346">
<time>2016-10-06T09:00:18Z</time></trkpt>
<trkpt lat="22.789215" lon="114.840266">
<time>2016-10-06T09:00:19Z</time></trkpt>
<trkpt lat="22.789384" lon="114.840196">
<time>2016-10-06T09:00:20Z</time></trkpt>
<trkpt lat="22.789584" lon="114.840095">
<time>2016-10-06T09:00:21Z</time></trkpt>
<trkpt lat="22.789754" lon="114.839995">
<time>2016-10-06T09:00:22Z</time></trkpt>
<trkpt lat="22.789954" lon="114.839865">
<time>2016-10-06T09:00:23Z</time></trkpt>
<trkpt lat="22.790163" lon="114.839705">
<time>2016-10-06T09:00:24Z</time></trkpt>
<trkpt lat="22.790343" lon="114.839564">
<time>2016-10-06T09:00:25Z</time></trkpt>
<trkpt lat="22.790582" lon="114.839364">
<time>2016-10-06T09:00:26Z</time></trkpt>
<trkpt lat="22.790732" lon="114.839244">
<time>2016-10-06T09:00:27Z</time></trkpt>
<trkpt lat="22.791052" lon="114.838973">
<time>2016-10-06T09:00:28Z</time></trkpt>
<trkpt lat="22.791551" lon="114.838572">
<time>2016-10-06T09:00:29Z</time></trkpt>
<trkpt lat="22.79206" lon="114.838172">
<time>2016-10-06T09:00:30Z</time></trkpt>
<trkpt lat="22.792579" lon="114.837761">
<time>2016-10-06T09:00:31Z</time></trkpt>
<trkpt lat="22.793427" lon="114.83711">
<time>2016-10-06T09:00:32Z</time></trkpt>
<trkpt lat="22.794046" lon="114.836639">
<time>2016-10-06T09:00:33Z</time></trkpt>
<trkpt lat="22.794316" lon="114.836418">
<time>2016-10-06T09:00:34Z</time></trkpt>
<trkpt lat="22.794635" lon="114.836168">
<time>2016-10-06T09:00:35Z</time></trkpt>
<trkpt lat="22.794805" lon="114.836048">
<time>2016-10-06T09:00:36Z</time></trkpt>
<trkpt lat="22.794895" lon="114.835977">
<time>2016-10-06T09:00:37Z</time></trkpt>
<trkpt lat="22.794985" lon="114.835927">
<time>2016-10-06T09:00:38Z</time></trkpt>
<trkpt lat="22.795095" lon="114.835857">
<time>2016-10-06T09:00:39Z</time></trkpt>
<trkpt lat="22.795194" lon="114.835797">
<time>2016-10-06T09:00:40Z</time></trkpt>
<trkpt lat="22.795344" lon="114.835707">
<time>2016-10-06T09:00:41Z</time></trkpt>
<trkpt lat="22.795494" lon="114.835627">
<time>2016-10-06T09:00:42Z</time></trkpt>
<trkpt lat="22.795754" lon="114.835516">
<time>2016-10-06T09:00:43Z</time></trkpt>
<trkpt lat="22.796113" lon="114.835376">
<time>2016-10-06T09:00:44Z</time></trkpt>
<trkpt lat="22.796353" lon="114.835296">
<time>2016-10-06T09:00:45Z</time></trkpt>
<trkpt lat="22.796413" lon="114.835276">
<time>2016-10-06T09:00:46Z</time></trkpt>
<trkpt lat="22.796823" lon="114.835146">
<time>2016-10-06T09:00:47Z</time></trkpt>
<trkpt lat="22.797092" lon="114.835045">
<time>2016-10-06T09:00:48Z</time></trkpt>
<trkpt lat="22.797612" lon="114.834855">
<time>2016-10-06T09:00:49Z</time></trkpt>
<trkpt lat="22.798301" lon="114.834605">
<time>2016-10-06T09:00:50Z</time></trkpt>
<trkpt lat="22.798621" lon="114.834484">
<time>2016-10-06T09:00:51Z</time></trkpt>
<trkpt lat="22.798631" lon="114.834474">
<time>2016-10-06T09:00:52Z</time></trkpt>
<trkpt lat="22.798661" lon="114.834464">
<time>2016-10-06T09:00:53Z</time></trkpt>
<trkpt lat="22.79896" lon="114.834354">
<time>2016-10-06T09:00:54Z</time></trkpt>
<trkpt lat="22.79928" lon="114.834234">
<time>2016-10-06T09:00:55Z</time></trkpt>
<trkpt lat="22.7993" lon="114.834224">
<time>2016-10-06T09:00:56Z</time></trkpt>
<trkpt lat="22.79972" lon="114.834073">
<time>2016-10-06T09:00:57Z</time></trkpt>
<trkpt lat="22.800569" lon="114.833753">
<time>2016-10-06T09:00:58Z</time></trkpt>
<trkpt lat="22.800819" lon="114.833663">
<time>2016-10-06T09:00:59Z</time></trkpt>
<trkpt lat="22.801048" lon="114.833562">
<time>2016-10-06T09:01:00Z</time></trkpt>
<trkpt lat="22.801208" lon="114.833492">
<time>2016-10-06T09:01:01Z</time></trkpt>
<trkpt lat="22.801408" lon="114.833392">
<time>2016-10-06T09:01:02Z</time></trkpt>
<trkpt lat="22.801647" lon="114.833262">
<time>2016-10-06T09:01:03Z</time></trkpt>
<trkpt lat="22.801817" lon="114.833152">
<time>2016-10-06T09:01:04Z</time></trkpt>
<trkpt lat="22.801947" lon="114.833071">
<time>2016-10-06T09:01:05Z</time></trkpt>
<trkpt lat="22.802187" lon="114.832901">
<time>2016-10-06T09:01:06Z</time></trkpt>
<trkpt lat="22.802416" lon="114.832721">
<time>2016-10-06T09:01:07Z</time></trkpt>
<trkpt lat="22.802676" lon="114.83249">
<time>2016-10-06T09:01:08Z</time></trkpt>
<trkpt lat="22.802935" lon="114.83226">
<time>2016-10-06T09:01:09Z</time></trkpt>
<trkpt lat="22.803274" lon="114.831949">
<time>2016-10-06T09:01:10Z</time></trkpt>
<trkpt lat="22.803604" lon="114.831649">
<time>2016-10-06T09:01:11Z</time></trkpt>
<trkpt lat="22.803873" lon="114.831388">
<time>2016-10-06T09:01:12Z</time></trkpt>
<trkpt lat="22.803993" lon="114.831258">
<time>2016-10-06T09:01:13Z</time></trkpt>
<trkpt lat="22.804212" lon="114.831007">
<time>2016-10-06T09:01:14Z</time></trkpt>
<trkpt lat="22.804392" lon="114.830777">
<time>2016-10-06T09:01:15Z</time></trkpt>
<trkpt lat="22.804532" lon="114.830607">
<time>2016-10-06T09:01:16Z</time></trkpt>
<trkpt lat="22.804741" lon="114.830296">
<time>2016-10-06T09:01:17Z</time></trkpt>
<trkpt lat="22.80494" lon="114.830025">
<time>2016-10-06T09:01:18Z</time></trkpt>
<trkpt lat="22.80514" lon="114.829795">
<time>2016-10-06T09:01:19Z</time></trkpt>
<trkpt lat="22.805269" lon="114.829655">
<time>2016-10-06T09:01:20Z</time></trkpt>
<trkpt lat="22.805399" lon="114.829534">
<time>2016-10-06T09:01:21Z</time></trkpt>
<trkpt lat="22.805599" lon="114.829354">
<time>2016-10-06T09:01:22Z</time></trkpt>
<trkpt lat="22.805968" lon="114.829023">
<time>2016-10-06T09:01:23Z</time></trkpt>
<trkpt lat="22.806248" lon="114.828803">
<time>2016-10-06T09:01:24Z</time></trkpt>
<trkpt lat="22.806637" lon="114.828492">
<time>2016-10-06T09:01:25Z</time></trkpt>
<trkpt lat="22.807026" lon="114.828172">
<time>2016-10-06T09:01:26Z</time></trkpt>
<trkpt lat="22.807395" lon="114.827871">
<time>2016-10-06T09:01:27Z</time></trkpt>
<trkpt lat="22.807884" lon="114.82747">
<time>2016-10-06T09:01:28Z</time></trkpt>
<trkpt lat="22.808124" lon="114.82728">
<time>2016-10-06T09:01:29Z</time></trkpt>
<trkpt lat="22.808394" lon="114.827079">
<time>2016-10-06T09:01:30Z</time></trkpt>
<trkpt lat="22.808683" lon="114.826899">
<time>2016-10-06T09:01:31Z</time></trkpt>
<trkpt lat="22.808873" lon="114.826789">
<time>2016-10-06T09:01:32Z</time></trkpt>
<trkpt lat="22.808993" lon="114.826729">
<time>2016-10-06T09:01:33Z</time></trkpt>
<trkpt lat="22.809172" lon="114.826638">
<time>2016-10-06T09:01:34Z</time></trkpt>
<trkpt lat="22.809352" lon="114.826548">
<time>2016-10-06T09:01:35Z</time></trkpt>
<trkpt lat="22.809662" lon="114.826418">
<time>2016-10-06T09:01:36Z</time></trkpt>
<trkpt lat="22.810121" lon="114.826208">
<time>2016-10-06T09:01:37Z</time></trkpt>
<trkpt lat="22.810481" lon="114.826047">
<time>2016-10-06T09:01:38Z</time></trkpt>
<trkpt lat="22.81097" lon="114.825827">
<time>2016-10-06T09:01:39Z</time></trkpt>
<trkpt lat="22.81132" lon="114.825686">
<time>2016-10-06T09:01:40Z</time></trkpt>
<trkpt lat="22.81157" lon="114.825576">
<time>2016-10-06T09:01:41Z</time></trkpt>
<trkpt lat="22.811799" lon="114.825496">
<time>2016-10-06T09:01:42Z</time></trkpt>
<trkpt lat="22.811929" lon="114.825466">
<time>2016-10-06T09:01:43Z</time></trkpt>
<trkpt lat="22.812059" lon="114.825436">
<time>2016-10-06T09:01:44Z</time></trkpt>
<trkpt lat="22.812199" lon="114.825416">
<time>2016-10-06T09:01:45Z</time></trkpt>
<trkpt lat="22.812379" lon="114.825396">
<time>2016-10-06T09:01:46Z</time></trkpt>
<trkpt lat="22.812579" lon="114.825396">
<time>2016-10-06T09:01:47Z</time></trkpt>
<trkpt lat="22.812779" lon="114.825416">
<time>2016-10-06T09:01:48Z</time></trkpt>
<trkpt lat="22.813009" lon="114.825436">
<time>2016-10-06T09:01:49Z</time></trkpt>
<trkpt lat="22.813389" lon="114.825486">
<time>2016-10-06T09:01:50Z</time></trkpt>
<trkpt lat="22.813659" lon="114.825506">
<time>2016-10-06T09:01:51Z</time></trkpt>
<trkpt lat="22.813839" lon="114.825526">
<time>2016-10-06T09:01:52Z</time></trkpt>
<trkpt lat="22.814169" lon="114.825566">
<time>2016-10-06T09:01:53Z</time></trkpt>
<trkpt lat="22.814639" lon="114.825646">
<time>2016-10-06T09:01:54Z</time></trkpt>
<trkpt lat="22.815258" lon="114.825726">
<time>2016-10-06T09:01:55Z</time></trkpt>
<trkpt lat="22.815608" lon="114.825776">
<time>2016-10-06T09:01:56Z</time></trkpt>
<trkpt lat="22.815988" lon="114.825816">
<time>2016-10-06T09:01:57Z</time></trkpt>
<trkpt lat="22.816448" lon="114.825877">
<time>2016-10-06T09:01:58Z</time></trkpt>
<trkpt lat="22.816838" lon="114.825927">
<time>2016-10-06T09:01:59Z</time></trkpt>
<trkpt lat="22.817208" lon="114.825967">
<time>2016-10-06T09:02:00Z</time></trkpt>
<trkpt lat="22.817608" lon="114.825987">
<time>2016-10-06T09:02:01Z</time></trkpt>
<trkpt lat="22.818128" lon="114.825997">
<time>2016-10-06T09:02:02Z</time></trkpt>
<trkpt lat="22.818608" lon="114.826007">
<time>2016-10-06T09:02:03Z</time></trkpt>
<trkpt lat="22.818938" lon="114.826007">
<time>2016-10-06T09:02:04Z</time></trkpt>
<trkpt lat="22.819158" lon="114.826007">
<time>2016-10-06T09:02:05Z</time></trkpt>
<trkpt lat="22.819377" lon="114.825987">
<time>2016-10-06T09:02:06Z</time></trkpt>
<trkpt lat="22.819567" lon="114.825956">
<time>2016-10-06T09:02:07Z</time></trkpt>
<trkpt lat="22.819767" lon="114.825906">
<time>2016-10-06T09:02:08Z</time></trkpt>
<trkpt lat="22.819967" lon="114.825826">
<time>2016-10-06T09:02:09Z</time></trkpt>
<trkpt lat="22.820207" lon="114.825706">
<time>2016-10-06T09:02:10Z</time></trkpt>
<trkpt lat="22.820317" lon="114.825646">
<time>2016-10-06T09:02:11Z</time></trkpt>
<trkpt lat="22.820406" lon="114.825576">
<time>2016-10-06T09:02:12Z</time></trkpt>
<trkpt lat="22.820576" lon="114.825435">
<time>2016-10-06T09:02:13Z</time></trkpt>
<trkpt lat="22.820726" lon="114.825295">
<time>2016-10-06T09:02:14Z</time></trkpt>
<trkpt lat="22.820875" lon="114.825125">
<time>2016-10-06T09:02:15Z</time></trkpt>
<trkpt lat="22.821005" lon="114.824944">
<time>2016-10-06T09:02:16Z</time></trkpt>
<trkpt lat="22.821125" lon="114.824744">
<time>2016-10-06T09:02:17Z</time></trkpt>
<trkpt lat="22.821234" lon="114.824564">
<time>2016-10-06T09:02:18Z</time></trkpt>
<trkpt lat="22.821493" lon="114.824083">
<time>2016-10-06T09:02:19Z</time></trkpt>
<trkpt lat="22.821623" lon="114.823852">
<time>2016-10-06T09:02:20Z</time></trkpt>
<trkpt lat="22.821862" lon="114.823421">
<time>2016-10-06T09:02:21Z</time></trkpt>
<trkpt lat="22.822101" lon="114.822991">
<time>2016-10-06T09:02:22Z</time></trkpt>
<trkpt lat="22.82242" lon="114.822399">
<time>2016-10-06T09:02:23Z</time></trkpt>
<trkpt lat="22.822838" lon="114.821628">
<time>2016-10-06T09:02:24Z</time></trkpt>
<trkpt lat="22.823256" lon="114.820846">
<time>2016-10-06T09:02:25Z</time></trkpt>
<trkpt lat="22.823535" lon="114.820355">
<time>2016-10-06T09:02:26Z</time></trkpt>
<trkpt lat="22.823884" lon="114.819694">
<time>2016-10-06T09:02:27Z</time></trkpt>
<trkpt lat="22.824302" lon="114.818922">
<time>2016-10-06T09:02:28Z</time></trkpt>
<trkpt lat="22.824731" lon="114.818131">
<time>2016-10-06T09:02:29Z</time></trkpt>
<trkpt lat="22.825169" lon="114.817319">
<time>2016-10-06T09:02:30Z</time></trkpt>
<trkpt lat="22.825368" lon="114.816938">
<time>2016-10-06T09:02:31Z</time></trkpt>
<trkpt lat="22.825607" lon="114.816478">
<time>2016-10-06T09:02:32Z</time></trkpt>
<trkpt lat="22.825866" lon="114.816037">
<time>2016-10-06T09:02:33Z</time></trkpt>
<trkpt lat="22.826106" lon="114.815666">
<time>2016-10-06T09:02:34Z</time></trkpt>
<trkpt lat="22.826355" lon="114.815325">
<time>2016-10-06T09:02:35Z</time></trkpt>
<trkpt lat="22.826674" lon="114.814894">
<time>2016-10-06T09:02:36Z</time></trkpt>
<trkpt lat="22.827023" lon="114.814443">
<time>2016-10-06T09:02:37Z</time></trkpt>
<trkpt lat="22.827372" lon="114.814003">
<time>2016-10-06T09:02:38Z</time></trkpt>
<trkpt lat="22.82796" lon="114.813241">
<time>2016-10-06T09:02:39Z</time></trkpt>
<trkpt lat="22.828499" lon="114.81254">
<time>2016-10-06T09:02:40Z</time></trkpt>
<trkpt lat="22.828688" lon="114.812319">
<time>2016-10-06T09:02:41Z</time></trkpt>
<trkpt lat="22.828918" lon="114.812039">
<time>2016-10-06T09:02:42Z</time></trkpt>
<trkpt lat="22.829207" lon="114.811718">
<time>2016-10-06T09:02:43Z</time></trkpt>
<trkpt lat="22.829646" lon="114.811237">
<time>2016-10-06T09:02:44Z</time></trkpt>
<trkpt lat="22.830065" lon="114.810766">
<time>2016-10-06T09:02:45Z</time></trkpt>
<trkpt lat="22.830444" lon="114.810345">
<time>2016-10-06T09:02:46Z</time></trkpt>
<trkpt lat="22.830743" lon="114.810015">
<time>2016-10-06T09:02:47Z</time></trkpt>
<trkpt lat="22.831292" lon="114.809404">
<time>2016-10-06T09:02:48Z</time></trkpt>
<trkpt lat="22.831601" lon="114.809073">
<time>2016-10-06T09:02:49Z</time></trkpt>
<trkpt lat="22.831841" lon="114.808862">
<time>2016-10-06T09:02:50Z</time></trkpt>
<trkpt lat="22.832071" lon="114.808702">
<time>2016-10-06T09:02:51Z</time></trkpt>
<trkpt lat="22.8323" lon="114.808562">
<time>2016-10-06T09:02:52Z</time></trkpt>
<trkpt lat="22.83265" lon="114.808371">
<time>2016-10-06T09:02:53Z</time></trkpt>
<trkpt lat="22.83265" lon="114.808361">
<time>2016-10-06T09:02:54Z</time></trkpt>
<trkpt lat="22.833129" lon="114.808101">
<time>2016-10-06T09:02:55Z</time></trkpt>
<trkpt lat="22.833279" lon="114.808021">
<time>2016-10-06T09:02:56Z</time></trkpt>
<trkpt lat="22.833339" lon="114.807991">
<time>2016-10-06T09:02:57Z</time></trkpt>
<trkpt lat="22.833439" lon="114.807941">
<time>2016-10-06T09:02:58Z</time></trkpt>
<trkpt lat="22.834258" lon="114.8076">
<time>2016-10-06T09:02:59Z</time></trkpt>
<trkpt lat="22.834757" lon="114.807369">
<time>2016-10-06T09:03:00Z</time></trkpt>
<trkpt lat="22.835077" lon="114.807219">
<time>2016-10-06T09:03:01Z</time></trkpt>
<trkpt lat="22.835396" lon="114.807049">
<time>2016-10-06T09:03:02Z</time></trkpt>
<trkpt lat="22.835646" lon="114.806899">
<time>2016-10-06T09:03:03Z</time></trkpt>
<trkpt lat="22.835995" lon="114.806678">
<time>2016-10-06T09:03:04Z</time></trkpt>
<trkpt lat="22.836724" lon="114.806197">
<time>2016-10-06T09:03:05Z</time></trkpt>
<trkpt lat="22.837393" lon="114.805746">
<time>2016-10-06T09:03:06Z</time></trkpt>
<trkpt lat="22.837523" lon="114.805666">
<time>2016-10-06T09:03:07Z</time></trkpt>
<trkpt lat="22.837783" lon="114.805496">
<time>2016-10-06T09:03:08Z</time></trkpt>
<trkpt lat="22.837952" lon="114.805386">
<time>2016-10-06T09:03:09Z</time></trkpt>
<trkpt lat="22.838512" lon="114.805045">
<time>2016-10-06T09:03:10Z</time></trkpt>
<trkpt lat="22.838691" lon="114.804935">
<time>2016-10-06T09:03:11Z</time></trkpt>
<trkpt lat="22.838911" lon="114.804804">
<time>2016-10-06T09:03:12Z</time></trkpt>
<trkpt lat="22.83954" lon="114.804454">
<time>2016-10-06T09:03:13Z</time></trkpt>
<trkpt lat="22.84002" lon="114.804203">
<time>2016-10-06T09:03:14Z</time></trkpt>
<trkpt lat="22.840499" lon="114.803963">
<time>2016-10-06T09:03:15Z</time></trkpt>
<trkpt lat="22.841148" lon="114.803682">
<time>2016-10-06T09:03:16Z</time></trkpt>
<trkpt lat="22.841228" lon="114.803642">
<time>2016-10-06T09:03:17Z</time></trkpt>
<trkpt lat="22.842187" lon="114.803211">
<time>2016-10-06T09:03:18Z</time></trkpt>
<trkpt lat="22.842686" lon="114.803001">
<time>2016-10-06T09:03:19Z</time></trkpt>
<trkpt lat="22.842866" lon="114.802941">
<time>2016-10-06T09:03:20Z</time></trkpt>
<trkpt lat="22.843006" lon="114.802891">
<time>2016-10-06T09:03:21Z</time></trkpt>
<trkpt lat="22.843096" lon="114.802871">
<time>2016-10-06T09:03:22Z</time></trkpt>
<trkpt lat="22.843286" lon="114.802821">
<time>2016-10-06T09:03:23Z</time></trkpt>
<trkpt lat="22.843476" lon="114.80279">
<time>2016-10-06T09:03:24Z</time></trkpt>
<trkpt lat="22.843646" lon="114.80276">
<time>2016-10-06T09:03:25Z</time></trkpt>
<trkpt lat="22.843796" lon="114.80275">
<time>2016-10-06T09:03:26Z</time></trkpt>
<trkpt lat="22.844006" lon="114.80274">
<time>2016-10-06T09:03:27Z</time></trkpt>
<trkpt lat="22.844245" lon="114.80273">
<time>2016-10-06T09:03:28Z</time></trkpt>
<trkpt lat="22.844435" lon="114.80274">
<time>2016-10-06T09:03:29Z</time></trkpt>
<trkpt lat="22.845075" lon="114.80281">
<time>2016-10-06T09:03:30Z</time></trkpt>
<trkpt lat="22.845265" lon="114.80283">
<time>2016-10-06T09:03:31Z</time></trkpt>
<trkpt lat="22.845605" lon="114.802871">
<time>2016-10-06T09:03:32Z</time></trkpt>
<trkpt lat="22.845755" lon="114.802881">
<time>2016-10-06T09:03:33Z</time></trkpt>
<trkpt lat="22.845915" lon="114.802891">
<time>2016-10-06T09:03:34Z</time></trkpt>
<trkpt lat="22.845995" lon="114.802891">
<time>2016-10-06T09:03:35Z</time></trkpt>
<trkpt lat="22.846125" lon="114.802891">
<time>2016-10-06T09:03:36Z</time></trkpt>
<trkpt lat="22.846295" lon="114.802901">
<time>2016-10-06T09:03:37Z</time></trkpt>
<trkpt lat="22.846455" lon="114.802901">
<time>2016-10-06T09:03:38Z</time></trkpt>
<trkpt lat="22.846645" lon="114.80289">
<time>2016-10-06T09:03:39Z</time></trkpt>
<trkpt lat="22.847055" lon="114.80284">
<time>2016-10-06T09:03:40Z</time></trkpt>
<trkpt lat="22.847674" lon="114.80276">
<time>2016-10-06T09:03:41Z</time></trkpt>
<trkpt lat="22.848064" lon="114.8027">
<time>2016-10-06T09:03:42Z</time></trkpt>
<trkpt lat="22.848424" lon="114.80263">
<time>2016-10-06T09:03:43Z</time></trkpt>
<trkpt lat="22.848653" lon="114.80257">
<time>2016-10-06T09:03:44Z</time></trkpt>
<trkpt lat="22.849183" lon="114.802399">
<time>2016-10-06T09:03:45Z</time></trkpt>
<trkpt lat="22.849812" lon="114.802199">
<time>2016-10-06T09:03:46Z</time></trkpt>
<trkpt lat="22.850152" lon="114.802089">
<time>2016-10-06T09:03:47Z</time></trkpt>
<trkpt lat="22.850152" lon="114.802089">
<time>2016-10-06T09:03:48Z</time></trkpt>
<trkpt lat="22.850132" lon="114.802019">
<time>2016-10-06T09:03:49Z</time></trkpt>
<trkpt lat="22.850132" lon="114.802019">
<time>2016-10-06T09:03:50Z</time></trkpt>
<trkpt lat="22.850532" lon="114.801888">
<time>2016-10-06T09:03:51Z</time></trkpt>
<trkpt lat="22.851201" lon="114.801678">
<time>2016-10-06T09:03:52Z</time></trkpt>
<trkpt lat="22.85186" lon="114.801508">
<time>2016-10-06T09:03:53Z</time></trkpt>
<trkpt lat="22.85279" lon="114.801287">
<time>2016-10-06T09:03:54Z</time></trkpt>
<trkpt lat="22.853679" lon="114.801067">
<time>2016-10-06T09:03:55Z</time></trkpt>
<trkpt lat="22.854089" lon="114.800957">
<time>2016-10-06T09:03:56Z</time></trkpt>
<trkpt lat="22.854258" lon="114.800906">
<time>2016-10-06T09:03:57Z</time></trkpt>
<trkpt lat="22.854388" lon="114.800856">
<time>2016-10-06T09:03:58Z</time></trkpt>
<trkpt lat="22.854638" lon="114.800756">
<time>2016-10-06T09:03:59Z</time></trkpt>
<trkpt lat="22.854798" lon="114.800676">
<time>2016-10-06T09:04:00Z</time></trkpt>
<trkpt lat="22.854928" lon="114.800606">
<time>2016-10-06T09:04:01Z</time></trkpt>
<trkpt lat="22.855097" lon="114.800516">
<time>2016-10-06T09:04:02Z</time></trkpt>
<trkpt lat="22.855277" lon="114.800405">
<time>2016-10-06T09:04:03Z</time></trkpt>
<trkpt lat="22.855387" lon="114.800325">
<time>2016-10-06T09:04:04Z</time></trkpt>
<trkpt lat="22.856425" lon="114.799644">
<time>2016-10-06T09:04:05Z</time></trkpt>
<trkpt lat="22.857094" lon="114.799203">
<time>2016-10-06T09:04:06Z</time></trkpt>
<trkpt lat="22.857634" lon="114.798863">
<time>2016-10-06T09:04:07Z</time></trkpt>
<trkpt lat="22.858133" lon="114.798582">
<time>2016-10-06T09:04:08Z</time></trkpt>
<trkpt lat="22.859232" lon="114.798111">
<time>2016-10-06T09:04:09Z</time></trkpt>
<trkpt lat="22.860361" lon="114.79765">
<time>2016-10-06T09:04:10Z</time></trkpt>
<trkpt lat="22.862398" lon="114.796809">
<time>2016-10-06T09:04:11Z</time></trkpt>
<trkpt lat="22.863288" lon="114.796448">
<time>2016-10-06T09:04:12Z</time></trkpt>
<trkpt lat="22.864426" lon="114.795967">
<time>2016-10-06T09:04:13Z</time></trkpt>
<trkpt lat="22.865645" lon="114.795466">
<time>2016-10-06T09:04:14Z</time></trkpt>
<trkpt lat="22.866204" lon="114.795226">
<time>2016-10-06T09:04:15Z</time></trkpt>
<trkpt lat="22.866724" lon="114.794985">
<time>2016-10-06T09:04:16Z</time></trkpt>
<trkpt lat="22.867453" lon="114.794625">
<time>2016-10-06T09:04:17Z</time></trkpt>
<trkpt lat="22.867813" lon="114.794445">
<time>2016-10-06T09:04:18Z</time></trkpt>
<trkpt lat="22.868392" lon="114.794154">
<time>2016-10-06T09:04:19Z</time></trkpt>
<trkpt lat="22.869491" lon="114.793603">
<time>2016-10-06T09:04:20Z</time></trkpt>
<trkpt lat="22.86996" lon="114.793383">
<time>2016-10-06T09:04:21Z</time></trkpt>
<trkpt lat="22.8702" lon="114.793272">
<time>2016-10-06T09:04:22Z</time></trkpt>
<trkpt lat="22.87021" lon="114.793272">
<time>2016-10-06T09:04:23Z</time></trkpt>
<trkpt lat="22.87036" lon="114.793192">
<time>2016-10-06T09:04:24Z</time></trkpt>
<trkpt lat="22.870539" lon="114.793082">
<time>2016-10-06T09:04:25Z</time></trkpt>
<trkpt lat="22.870769" lon="114.792942">
<time>2016-10-06T09:04:26Z</time></trkpt>
<trkpt lat="22.871059" lon="114.792752">
<time>2016-10-06T09:04:27Z</time></trkpt>
<trkpt lat="22.871308" lon="114.792571">
<time>2016-10-06T09:04:28Z</time></trkpt>
<trkpt lat="22.871438" lon="114.792471">
<time>2016-10-06T09:04:29Z</time></trkpt>
<trkpt lat="22.871907" lon="114.79208">
<time>2016-10-06T09:04:30Z</time></trkpt>
<trkpt lat="22.872247" lon="114.79177">
<time>2016-10-06T09:04:31Z</time></trkpt>
<trkpt lat="22.872337" lon="114.79169">
<time>2016-10-06T09:04:32Z</time></trkpt>
<trkpt lat="22.872356" lon="114.79167">
<time>2016-10-06T09:04:33Z</time></trkpt>
<trkpt lat="22.872396" lon="114.79163">
<time>2016-10-06T09:04:34Z</time></trkpt>
<trkpt lat="22.872686" lon="114.791319">
<time>2016-10-06T09:04:35Z</time></trkpt>
<trkpt lat="22.872806" lon="114.791169">
<time>2016-10-06T09:04:36Z</time></trkpt>
<trkpt lat="22.872905" lon="114.791009">
<time>2016-10-06T09:04:37Z</time></trkpt>
<trkpt lat="22.873424" lon="114.790227">
<time>2016-10-06T09:04:38Z</time></trkpt>
<trkpt lat="22.873733" lon="114.789837">
<time>2016-10-06T09:04:39Z</time></trkpt>
<trkpt lat="22.873863" lon="114.789677">
<time>2016-10-06T09:04:40Z</time></trkpt>
<trkpt lat="22.874043" lon="114.789466">
<time>2016-10-06T09:04:41Z</time></trkpt>
<trkpt lat="22.874162" lon="114.789276">
<time>2016-10-06T09:04:42Z</time></trkpt>
<trkpt lat="22.874272" lon="114.789076">
<time>2016-10-06T09:04:43Z</time></trkpt>
<trkpt lat="22.874362" lon="114.788875">
<time>2016-10-06T09:04:44Z</time></trkpt>
<trkpt lat="22.874441" lon="114.788655">
<time>2016-10-06T09:04:45Z</time></trkpt>
<trkpt lat="22.874511" lon="114.788465">
<time>2016-10-06T09:04:46Z</time></trkpt>
<trkpt lat="22.875387" lon="114.785781">
<time>2016-10-06T09:04:47Z</time></trkpt>
<trkpt lat="22.875476" lon="114.7855">
<time>2016-10-06T09:04:48Z</time></trkpt>
<trkpt lat="22.875606" lon="114.78513">
<time>2016-10-06T09:04:49Z</time></trkpt>
<trkpt lat="22.875715" lon="114.784819">
<time>2016-10-06T09:04:50Z</time></trkpt>
<trkpt lat="22.875755" lon="114.784739">
<time>2016-10-06T09:04:51Z</time></trkpt>
<trkpt lat="22.875805" lon="114.784619">
<time>2016-10-06T09:04:52Z</time></trkpt>
<trkpt lat="22.875855" lon="114.784499">
<time>2016-10-06T09:04:53Z</time></trkpt>
<trkpt lat="22.875994" lon="114.784168">
<time>2016-10-06T09:04:54Z</time></trkpt>
<trkpt lat="22.876194" lon="114.783788">
<time>2016-10-06T09:04:55Z</time></trkpt>
<trkpt lat="22.876962" lon="114.782376">
<time>2016-10-06T09:04:56Z</time></trkpt>
<trkpt lat="22.87749" lon="114.781394">
<time>2016-10-06T09:04:57Z</time></trkpt>
<trkpt lat="22.877739" lon="114.780894">
<time>2016-10-06T09:04:58Z</time></trkpt>
<trkpt lat="22.877929" lon="114.780493">
<time>2016-10-06T09:04:59Z</time></trkpt>
<trkpt lat="22.878078" lon="114.780153">
<time>2016-10-06T09:05:00Z</time></trkpt>
<trkpt lat="22.878268" lon="114.779752">
<time>2016-10-06T09:05:01Z</time></trkpt>
<trkpt lat="22.878398" lon="114.779492">
<time>2016-10-06T09:05:02Z</time></trkpt>
<trkpt lat="22.878517" lon="114.779262">
<time>2016-10-06T09:05:03Z</time></trkpt>
<trkpt lat="22.878627" lon="114.779091">
<time>2016-10-06T09:05:04Z</time></trkpt>
<trkpt lat="22.878807" lon="114.778841">
<time>2016-10-06T09:05:05Z</time></trkpt>
<trkpt lat="22.879056" lon="114.778481">
<time>2016-10-06T09:05:06Z</time></trkpt>
<trkpt lat="22.879375" lon="114.77803">
<time>2016-10-06T09:05:07Z</time></trkpt>
<trkpt lat="22.880304" lon="114.776749">
<time>2016-10-06T09:05:08Z</time></trkpt>
<trkpt lat="22.881342" lon="114.775327">
<time>2016-10-06T09:05:09Z</time></trkpt>
<trkpt lat="22.881541" lon="114.775057">
<time>2016-10-06T09:05:10Z</time></trkpt>
<trkpt lat="22.881831" lon="114.774656">
<time>2016-10-06T09:05:11Z</time></trkpt>
<trkpt lat="22.88227" lon="114.774105">
<time>2016-10-06T09:05:12Z</time></trkpt>
<trkpt lat="22.88257" lon="114.773765">
<time>2016-10-06T09:05:13Z</time></trkpt>
<trkpt lat="22.882849" lon="114.773475">
<time>2016-10-06T09:05:14Z</time></trkpt>
<trkpt lat="22.883388" lon="114.772924">
<time>2016-10-06T09:05:15Z</time></trkpt>
<trkpt lat="22.883698" lon="114.772614">
<time>2016-10-06T09:05:16Z</time></trkpt>
<trkpt lat="22.883788" lon="114.772514">
<time>2016-10-06T09:05:17Z</time></trkpt>
<trkpt lat="22.883908" lon="114.772394">
<time>2016-10-06T09:05:18Z</time></trkpt>
<trkpt lat="22.884087" lon="114.772213">
<time>2016-10-06T09:05:19Z</time></trkpt>
<trkpt lat="22.884227" lon="114.772083">
<time>2016-10-06T09:05:20Z</time></trkpt>
<trkpt lat="22.884417" lon="114.771933">
<time>2016-10-06T09:05:21Z</time></trkpt>
<trkpt lat="22.884577" lon="114.771803">
<time>2016-10-06T09:05:22Z</time></trkpt>
<trkpt lat="22.884797" lon="114.771643">
<time>2016-10-06T09:05:23Z</time></trkpt>
<trkpt lat="22.885156" lon="114.771412">
<time>2016-10-06T09:05:24Z</time></trkpt>
<trkpt lat="22.885606" lon="114.771122">
<time>2016-10-06T09:05:25Z</time></trkpt>
<trkpt lat="22.885845" lon="114.770952">
<time>2016-10-06T09:05:26Z</time></trkpt>
<trkpt lat="22.886145" lon="114.770762">
<time>2016-10-06T09:05:27Z</time></trkpt>
<trkpt lat="22.886395" lon="114.770572">
<time>2016-10-06T09:05:28Z</time></trkpt>
<trkpt lat="22.886685" lon="114.770321">
<time>2016-10-06T09:05:29Z</time></trkpt>
<trkpt lat="22.886824" lon="114.770171">
<time>2016-10-06T09:05:30Z</time></trkpt>
<trkpt lat="22.886934" lon="114.770021">
<time>2016-10-06T09:05:31Z</time></trkpt>
<trkpt lat="22.887044" lon="114.769871">
<time>2016-10-06T09:05:32Z</time></trkpt>
<trkpt lat="22.887184" lon="114.769671">
<time>2016-10-06T09:05:33Z</time></trkpt>
<trkpt lat="22.887274" lon="114.769531">
<time>2016-10-06T09:05:34Z</time></trkpt>
<trkpt lat="22.887324" lon="114.76945">
<time>2016-10-06T09:05:35Z</time></trkpt>
<trkpt lat="22.887363" lon="114.76938">
<time>2016-10-06T09:05:36Z</time></trkpt>
<trkpt lat="22.887473" lon="114.76917">
<time>2016-10-06T09:05:37Z</time></trkpt>
<trkpt lat="22.887543" lon="114.76901">
<time>2016-10-06T09:05:38Z</time></trkpt>
<trkpt lat="22.887603" lon="114.76888">
<time>2016-10-06T09:05:39Z</time></trkpt>
<trkpt lat="22.887673" lon="114.7687">
<time>2016-10-06T09:05:40Z</time></trkpt>
<trkpt lat="22.887743" lon="114.76847">
<time>2016-10-06T09:05:41Z</time></trkpt>
<trkpt lat="22.887802" lon="114.768209">
<time>2016-10-06T09:05:42Z</time></trkpt>
<trkpt lat="22.887812" lon="114.768169">
<time>2016-10-06T09:05:43Z</time></trkpt>
<trkpt lat="22.887842" lon="114.768009">
<time>2016-10-06T09:05:44Z</time></trkpt>
<trkpt lat="22.887862" lon="114.767899">
<time>2016-10-06T09:05:45Z</time></trkpt>
<trkpt lat="22.887902" lon="114.767579">
<time>2016-10-06T09:05:46Z</time></trkpt>
<trkpt lat="22.887912" lon="114.767369">
<time>2016-10-06T09:05:47Z</time></trkpt>
<trkpt lat="22.887931" lon="114.767178">
<time>2016-10-06T09:05:48Z</time></trkpt>
<trkpt lat="22.887951" lon="114.766858">
<time>2016-10-06T09:05:49Z</time></trkpt>
<trkpt lat="22.887961" lon="114.766768">
<time>2016-10-06T09:05:50Z</time></trkpt>
<trkpt lat="22.888031" lon="114.766128">
<time>2016-10-06T09:05:51Z</time></trkpt>
<trkpt lat="22.88803" lon="114.766037">
<time>2016-10-06T09:05:52Z</time></trkpt>
<trkpt lat="22.88805" lon="114.765847">
<time>2016-10-06T09:05:53Z</time></trkpt>
<trkpt lat="22.88813" lon="114.765057">
<time>2016-10-06T09:05:54Z</time></trkpt>
<trkpt lat="22.888249" lon="114.764006">
<time>2016-10-06T09:05:55Z</time></trkpt>
<trkpt lat="22.888279" lon="114.763706">
<time>2016-10-06T09:05:56Z</time></trkpt>
<trkpt lat="22.888318" lon="114.763476">
<time>2016-10-06T09:05:57Z</time></trkpt>
<trkpt lat="22.888358" lon="114.763285">
<time>2016-10-06T09:05:58Z</time></trkpt>
<trkpt lat="22.888428" lon="114.763015">
<time>2016-10-06T09:05:59Z</time></trkpt>
<trkpt lat="22.888518" lon="114.762715">
<time>2016-10-06T09:06:00Z</time></trkpt>
<trkpt lat="22.888608" lon="114.762495">
<time>2016-10-06T09:06:01Z</time></trkpt>
<trkpt lat="22.888718" lon="114.762265">
<time>2016-10-06T09:06:02Z</time></trkpt>
<trkpt lat="22.888817" lon="114.762065">
<time>2016-10-06T09:06:03Z</time></trkpt>
<trkpt lat="22.888937" lon="114.761874">
<time>2016-10-06T09:06:04Z</time></trkpt>
<trkpt lat="22.889087" lon="114.761674">
<time>2016-10-06T09:06:05Z</time></trkpt>
<trkpt lat="22.889217" lon="114.761524">
<time>2016-10-06T09:06:06Z</time></trkpt>
<trkpt lat="22.889387" lon="114.761334">
<time>2016-10-06T09:06:07Z</time></trkpt>
<trkpt lat="22.889547" lon="114.761184">
<time>2016-10-06T09:06:08Z</time></trkpt>
<trkpt lat="22.889766" lon="114.761024">
<time>2016-10-06T09:06:09Z</time></trkpt>
<trkpt lat="22.890046" lon="114.760814">
<time>2016-10-06T09:06:10Z</time></trkpt>
<trkpt lat="22.890326" lon="114.760634">
<time>2016-10-06T09:06:11Z</time></trkpt>
<trkpt lat="22.890606" lon="114.760503">
<time>2016-10-06T09:06:12Z</time></trkpt>
<trkpt lat="22.891705" lon="114.760023">
<time>2016-10-06T09:06:13Z</time></trkpt>
<trkpt lat="22.892395" lon="114.759723">
<time>2016-10-06T09:06:14Z</time></trkpt>
<trkpt lat="22.892844" lon="114.759543">
<time>2016-10-06T09:06:15Z</time></trkpt>
<trkpt lat="22.893054" lon="114.759473">
<time>2016-10-06T09:06:16Z</time></trkpt>
<trkpt lat="22.893284" lon="114.759413">
<time>2016-10-06T09:06:17Z</time></trkpt>
<trkpt lat="22.893554" lon="114.759343">
<time>2016-10-06T09:06:18Z</time></trkpt>
<trkpt lat="22.893734" lon="114.759313">
<time>2016-10-06T09:06:19Z</time></trkpt>
<trkpt lat="22.894114" lon="114.759233">
<time>2016-10-06T09:06:20Z</time></trkpt>
<trkpt lat="22.894344" lon="114.759182">
<time>2016-10-06T09:06:21Z</time></trkpt>
<trkpt lat="22.894553" lon="114.759152">
<time>2016-10-06T09:06:22Z</time></trkpt>
<trkpt lat="22.894813" lon="114.759112">
<time>2016-10-06T09:06:23Z</time></trkpt>
<trkpt lat="22.895033" lon="114.759102">
<time>2016-10-06T09:06:24Z</time></trkpt>
<trkpt lat="22.895183" lon="114.759092">
<time>2016-10-06T09:06:25Z</time></trkpt>
<trkpt lat="22.895313" lon="114.759102">
<time>2016-10-06T09:06:26Z</time></trkpt>
<trkpt lat="22.895513" lon="114.759132">
<time>2016-10-06T09:06:27Z</time></trkpt>
<trkpt lat="22.895783" lon="114.759172">
<time>2016-10-06T09:06:28Z</time></trkpt>
<trkpt lat="22.896293" lon="114.759252">
<time>2016-10-06T09:06:29Z</time></trkpt>
<trkpt lat="22.896453" lon="114.759272">
<time>2016-10-06T09:06:30Z</time></trkpt>
<trkpt lat="22.896583" lon="114.759292">
<time>2016-10-06T09:06:31Z</time></trkpt>
<trkpt lat="22.896733" lon="114.759292">
<time>2016-10-06T09:06:32Z</time></trkpt>
<trkpt lat="22.896863" lon="114.759292">
<time>2016-10-06T09:06:33Z</time></trkpt>
<trkpt lat="22.897042" lon="114.759272">
<time>2016-10-06T09:06:34Z</time></trkpt>
<trkpt lat="22.897212" lon="114.759242">
<time>2016-10-06T09:06:35Z</time></trkpt>
<trkpt lat="22.897542" lon="114.759172">
<time>2016-10-06T09:06:36Z</time></trkpt>
<trkpt lat="22.897832" lon="114.759112">
<time>2016-10-06T09:06:37Z</time></trkpt>
<trkpt lat="22.898042" lon="114.759062">
<time>2016-10-06T09:06:38Z</time></trkpt>
<trkpt lat="22.898252" lon="114.759022">
<time>2016-10-06T09:06:39Z</time></trkpt>
<trkpt lat="22.898522" lon="114.758982">
<time>2016-10-06T09:06:40Z</time></trkpt>
<trkpt lat="22.898652" lon="114.758972">
<time>2016-10-06T09:06:41Z</time></trkpt>
<trkpt lat="22.898782" lon="114.758962">
<time>2016-10-06T09:06:42Z</time></trkpt>
<trkpt lat="22.898942" lon="114.758952">
<time>2016-10-06T09:06:43Z</time></trkpt>
<trkpt lat="22.899111" lon="114.758952">
<time>2016-10-06T09:06:44Z</time></trkpt>
<trkpt lat="22.899321" lon="114.758952">
<time>2016-10-06T09:06:45Z</time></trkpt>
<trkpt lat="22.899871" lon="114.758982">
<time>2016-10-06T09:06:46Z</time></trkpt>
<trkpt lat="22.900511" lon="114.759002">
<time>2016-10-06T09:06:47Z</time></trkpt>
<trkpt lat="22.901321" lon="114.759032">
<time>2016-10-06T09:06:48Z</time></trkpt>
<trkpt lat="22.90152" lon="114.759032">
<time>2016-10-06T09:06:49Z</time></trkpt>
<trkpt lat="22.90168" lon="114.759032">
<time>2016-10-06T09:06:50Z</time></trkpt>
<trkpt lat="22.90187" lon="114.759022">
<time>2016-10-06T09:06:51Z</time></trkpt>
<trkpt lat="22.90201" lon="114.759002">
<time>2016-10-06T09:06:52Z</time></trkpt>
<trkpt lat="22.90223" lon="114.758942">
<time>2016-10-06T09:06:53Z</time></trkpt>
<trkpt lat="22.90248" lon="114.758842">
<time>2016-10-06T09:06:54Z</time></trkpt>
<trkpt lat="22.90273" lon="114.758702">
<time>2016-10-06T09:06:55Z</time></trkpt>
<trkpt lat="22.903289" lon="114.758362">
<time>2016-10-06T09:06:56Z</time></trkpt>
<trkpt lat="22.903749" lon="114.758061">
<time>2016-10-06T09:06:57Z</time></trkpt>
<trkpt lat="22.904169" lon="114.757811">
<time>2016-10-06T09:06:58Z</time></trkpt>
<trkpt lat="22.904369" lon="114.757721">
<time>2016-10-06T09:06:59Z</time></trkpt>
<trkpt lat="22.904559" lon="114.757651">
<time>2016-10-06T09:07:00Z</time></trkpt>
<trkpt lat="22.904728" lon="114.757591">
<time>2016-10-06T09:07:01Z</time></trkpt>
<trkpt lat="22.904858" lon="114.757561">
<time>2016-10-06T09:07:02Z</time></trkpt>
<trkpt lat="22.904988" lon="114.757531">
<time>2016-10-06T09:07:03Z</time></trkpt>
<trkpt lat="22.905148" lon="114.757501">
<time>2016-10-06T09:07:04Z</time></trkpt>
<trkpt lat="22.905688" lon="114.757411">
<time>2016-10-06T09:07:05Z</time></trkpt>
<trkpt lat="22.906698" lon="114.757231">
<time>2016-10-06T09:07:06Z</time></trkpt>
<trkpt lat="22.907137" lon="114.757151">
<time>2016-10-06T09:07:07Z</time></trkpt>
<trkpt lat="22.907207" lon="114.757131">
<time>2016-10-06T09:07:08Z</time></trkpt>
<trkpt lat="22.907467" lon="114.757071">
<time>2016-10-06T09:07:09Z</time></trkpt>
<trkpt lat="22.907657" lon="114.757001">
<time>2016-10-06T09:07:10Z</time></trkpt>
<trkpt lat="22.907827" lon="114.756941">
<time>2016-10-06T09:07:11Z</time></trkpt>
<trkpt lat="22.907947" lon="114.756891">
<time>2016-10-06T09:07:12Z</time></trkpt>
<trkpt lat="22.908087" lon="114.75682">
<time>2016-10-06T09:07:13Z</time></trkpt>
<trkpt lat="22.908267" lon="114.75673">
<time>2016-10-06T09:07:14Z</time></trkpt>
<trkpt lat="22.908496" lon="114.75661">
<time>2016-10-06T09:07:15Z</time></trkpt>
<trkpt lat="22.908696" lon="114.7565">
<time>2016-10-06T09:07:16Z</time></trkpt>
<trkpt lat="22.908916" lon="114.75639">
<time>2016-10-06T09:07:17Z</time></trkpt>
<trkpt lat="22.909286" lon="114.75622">
<time>2016-10-06T09:07:18Z</time></trkpt>
<trkpt lat="22.909556" lon="114.75611">
<time>2016-10-06T09:07:19Z</time></trkpt>
<trkpt lat="22.910315" lon="114.75579">
<time>2016-10-06T09:07:20Z</time></trkpt>
<trkpt lat="22.911095" lon="114.75548">
<time>2016-10-06T09:07:21Z</time></trkpt>
<trkpt lat="22.911325" lon="114.75538">
<time>2016-10-06T09:07:22Z</time></trkpt>
<trkpt lat="22.911775" lon="114.75521">
<time>2016-10-06T09:07:23Z</time></trkpt>
<trkpt lat="22.912164" lon="114.755029">
<time>2016-10-06T09:07:24Z</time></trkpt>
<trkpt lat="22.912344" lon="114.754949">
<time>2016-10-06T09:07:25Z</time></trkpt>
<trkpt lat="22.912634" lon="114.754799">
<time>2016-10-06T09:07:26Z</time></trkpt>
<trkpt lat="22.912744" lon="114.754749">
<time>2016-10-06T09:07:27Z</time></trkpt>
<trkpt lat="22.912894" lon="114.754659">
<time>2016-10-06T09:07:28Z</time></trkpt>
<trkpt lat="22.913064" lon="114.754549">
<time>2016-10-06T09:07:29Z</time></trkpt>
<trkpt lat="22.914143" lon="114.753829">
<time>2016-10-06T09:07:30Z</time></trkpt>
<trkpt lat="22.914833" lon="114.753379">
<time>2016-10-06T09:07:31Z</time></trkpt>
<trkpt lat="22.915053" lon="114.753249">
<time>2016-10-06T09:07:32Z</time></trkpt>
<trkpt lat="22.915063" lon="114.753239">
<time>2016-10-06T09:07:33Z</time></trkpt>
<trkpt lat="22.915183" lon="114.753169">
<time>2016-10-06T09:07:34Z</time></trkpt>
<trkpt lat="22.915382" lon="114.753059">
<time>2016-10-06T09:07:35Z</time></trkpt>
<trkpt lat="22.915562" lon="114.752969">
<time>2016-10-06T09:07:36Z</time></trkpt>
<trkpt lat="22.915702" lon="114.752909">
<time>2016-10-06T09:07:37Z</time></trkpt>
<trkpt lat="22.915972" lon="114.752788">
<time>2016-10-06T09:07:38Z</time></trkpt>
<trkpt lat="22.916502" lon="114.752578">
<time>2016-10-06T09:07:39Z</time></trkpt>
<trkpt lat="22.916662" lon="114.752508">
<time>2016-10-06T09:07:40Z</time></trkpt>
<trkpt lat="22.917042" lon="114.752348">
<time>2016-10-06T09:07:41Z</time></trkpt>
<trkpt lat="22.917241" lon="114.752258">
<time>2016-10-06T09:07:42Z</time></trkpt>
<trkpt lat="22.917411" lon="114.752168">
<time>2016-10-06T09:07:43Z</time></trkpt>
<trkpt lat="22.917551" lon="114.752088">
<time>2016-10-06T09:07:44Z</time></trkpt>
<trkpt lat="22.917641" lon="114.752038">
<time>2016-10-06T09:07:45Z</time></trkpt>
<trkpt lat="22.917721" lon="114.751978">
<time>2016-10-06T09:07:46Z</time></trkpt>
<trkpt lat="22.917811" lon="114.751908">
<time>2016-10-06T09:07:47Z</time></trkpt>
<trkpt lat="22.917901" lon="114.751828">
<time>2016-10-06T09:07:48Z</time></trkpt>
<trkpt lat="22.918311" lon="114.751458">
<time>2016-10-06T09:07:49Z</time></trkpt>
<trkpt lat="22.91881" lon="114.750988">
<time>2016-10-06T09:07:50Z</time></trkpt>
<trkpt lat="22.9197" lon="114.750148">
<time>2016-10-06T09:07:51Z</time></trkpt>
<trkpt lat="22.91985" lon="114.749998">
<time>2016-10-06T09:07:52Z</time></trkpt>
<trkpt lat="22.92034" lon="114.749527">
<time>2016-10-06T09:07:53Z</time></trkpt>
<trkpt lat="22.920449" lon="114.749437">
<time>2016-10-06T09:07:54Z</time></trkpt>
<trkpt lat="22.920529" lon="114.749367">
<time>2016-10-06T09:07:55Z</time></trkpt>
<trkpt lat="22.920599" lon="114.749317">
<time>2016-10-06T09:07:56Z</time></trkpt>
<trkpt lat="22.920719" lon="114.749217">
<time>2016-10-06T09:07:57Z</time></trkpt>
<trkpt lat="22.920829" lon="114.749147">
<time>2016-10-06T09:07:58Z</time></trkpt>
<trkpt lat="22.920989" lon="114.749047">
<time>2016-10-06T09:07:59Z</time></trkpt>
<trkpt lat="22.921089" lon="114.748997">
<time>2016-10-06T09:08:00Z</time></trkpt>
<trkpt lat="22.921179" lon="114.748957">
<time>2016-10-06T09:08:01Z</time></trkpt>
<trkpt lat="22.921259" lon="114.748927">
<time>2016-10-06T09:08:02Z</time></trkpt>
<trkpt lat="22.921339" lon="114.748897">
<time>2016-10-06T09:08:03Z</time></trkpt>
<trkpt lat="22.921439" lon="114.748867">
<time>2016-10-06T09:08:04Z</time></trkpt>
<trkpt lat="22.921549" lon="114.748847">
<time>2016-10-06T09:08:05Z</time></trkpt>
<trkpt lat="22.921629" lon="114.748827">
<time>2016-10-06T09:08:06Z</time></trkpt>
<trkpt lat="22.921859" lon="114.748797">
<time>2016-10-06T09:08:07Z</time></trkpt>
<trkpt lat="22.921939" lon="114.748797">
<time>2016-10-06T09:08:08Z</time></trkpt>
<trkpt lat="22.922019" lon="114.748797">
<time>2016-10-06T09:08:09Z</time></trkpt>
<trkpt lat="22.922299" lon="114.748807">
<time>2016-10-06T09:08:10Z</time></trkpt>
<trkpt lat="22.922628" lon="114.748847">
<time>2016-10-06T09:08:11Z</time></trkpt>
<trkpt lat="22.922998" lon="114.748907">
<time>2016-10-06T09:08:12Z</time></trkpt>
<trkpt lat="22.923238" lon="114.748937">
<time>2016-10-06T09:08:13Z</time></trkpt>
<trkpt lat="22.923438" lon="114.748957">
<time>2016-10-06T09:08:14Z</time></trkpt>
<trkpt lat="22.923618" lon="114.748957">
<time>2016-10-06T09:08:15Z</time></trkpt>
<trkpt lat="22.923868" lon="114.748947">
<time>2016-10-06T09:08:16Z</time></trkpt>
<trkpt lat="22.924188" lon="114.748917">
<time>2016-10-06T09:08:17Z</time></trkpt>
<trkpt lat="22.925457" lon="114.748787">
<time>2016-10-06T09:08:18Z</time></trkpt>
<trkpt lat="22.925887" lon="114.748737">
<time>2016-10-06T09:08:19Z</time></trkpt>
<trkpt lat="22.926977" lon="114.748617">
<time>2016-10-06T09:08:20Z</time></trkpt>
<trkpt lat="22.927296" lon="114.748577">
<time>2016-10-06T09:08:21Z</time></trkpt>
<trkpt lat="22.927686" lon="114.748507">
<time>2016-10-06T09:08:22Z</time></trkpt>
<trkpt lat="22.928006" lon="114.748437">
<time>2016-10-06T09:08:23Z</time></trkpt>
<trkpt lat="22.928286" lon="114.748377">
<time>2016-10-06T09:08:24Z</time></trkpt>
<trkpt lat="22.928756" lon="114.748257">
<time>2016-10-06T09:08:25Z</time></trkpt>
<trkpt lat="22.929246" lon="114.748107">
<time>2016-10-06T09:08:26Z</time></trkpt>
<trkpt lat="22.929376" lon="114.748067">
<time>2016-10-06T09:08:27Z</time></trkpt>
<trkpt lat="22.929386" lon="114.748057">
<time>2016-10-06T09:08:28Z</time></trkpt>
<trkpt lat="22.929525" lon="114.748007">
<time>2016-10-06T09:08:29Z</time></trkpt>
<trkpt lat="22.929595" lon="114.747977">
<time>2016-10-06T09:08:30Z</time></trkpt>
<trkpt lat="22.929665" lon="114.747947">
<time>2016-10-06T09:08:31Z</time></trkpt>
<trkpt lat="22.929765" lon="114.747887">
<time>2016-10-06T09:08:32Z</time></trkpt>
<trkpt lat="22.929865" lon="114.747837">
<time>2016-10-06T09:08:33Z</time></trkpt>
<trkpt lat="22.930205" lon="114.747587">
<time>2016-10-06T09:08:34Z</time></trkpt>
<trkpt lat="22.932524" lon="114.745936">
<time>2016-10-06T09:08:35Z</time></trkpt>
<trkpt lat="22.933544" lon="114.745176">
<time>2016-10-06T09:08:36Z</time></trkpt>
<trkpt lat="22.934103" lon="114.744756">
<time>2016-10-06T09:08:37Z</time></trkpt>
<trkpt lat="22.934463" lon="114.744466">
<time>2016-10-06T09:08:38Z</time></trkpt>
<trkpt lat="22.936593" lon="114.742686">
<time>2016-10-06T09:08:39Z</time></trkpt>
<trkpt lat="22.936862" lon="114.742456">
<time>2016-10-06T09:08:40Z</time></trkpt>
<trkpt lat="22.937142" lon="114.742216">
<time>2016-10-06T09:08:41Z</time></trkpt>
<trkpt lat="22.937322" lon="114.742026">
<time>2016-10-06T09:08:42Z</time></trkpt>
<trkpt lat="22.937512" lon="114.741806">
<time>2016-10-06T09:08:43Z</time></trkpt>
<trkpt lat="22.937792" lon="114.741456">
<time>2016-10-06T09:08:44Z</time></trkpt>
<trkpt lat="22.937982" lon="114.741226">
<time>2016-10-06T09:08:45Z</time></trkpt>
<trkpt lat="22.938112" lon="114.741076">
<time>2016-10-06T09:08:46Z</time></trkpt>
<trkpt lat="22.938192" lon="114.740996">
<time>2016-10-06T09:08:47Z</time></trkpt>
<trkpt lat="22.938302" lon="114.740906">
<time>2016-10-06T09:08:48Z</time></trkpt>
<trkpt lat="22.938442" lon="114.740786">
<time>2016-10-06T09:08:49Z</time></trkpt>
<trkpt lat="22.938632" lon="114.740656">
<time>2016-10-06T09:08:50Z</time></trkpt>
<trkpt lat="22.938832" lon="114.740526">
<time>2016-10-06T09:08:51Z</time></trkpt>
<trkpt lat="22.938982" lon="114.740436">
<time>2016-10-06T09:08:52Z</time></trkpt>
<trkpt lat="22.939602" lon="114.740067">
<time>2016-10-06T09:08:53Z</time></trkpt>
<trkpt lat="22.939872" lon="114.739917">
<time>2016-10-06T09:08:54Z</time></trkpt>
<trkpt lat="22.940032" lon="114.739827">
<time>2016-10-06T09:08:55Z</time></trkpt>
<trkpt lat="22.940331" lon="114.739697">
<time>2016-10-06T09:08:56Z</time></trkpt>
<trkpt lat="22.940611" lon="114.739577">
<time>2016-10-06T09:08:57Z</time></trkpt>
<trkpt lat="22.940671" lon="114.739557">
<time>2016-10-06T09:08:58Z</time></trkpt>
<trkpt lat="22.940901" lon="114.739477">
<time>2016-10-06T09:08:59Z</time></trkpt>
<trkpt lat="22.942041" lon="114.739097">
<time>2016-10-06T09:09:00Z</time></trkpt>
<trkpt lat="22.943061" lon="114.738757">
<time>2016-10-06T09:09:01Z</time></trkpt>
<trkpt lat="22.9436" lon="114.738587">
<time>2016-10-06T09:09:02Z</time></trkpt>
<trkpt lat="22.94552" lon="114.737957">
<time>2016-10-06T09:09:03Z</time></trkpt>
<trkpt lat="22.94607" lon="114.737757">
<time>2016-10-06T09:09:04Z</time></trkpt>
<trkpt lat="22.946129" lon="114.737717">
<time>2016-10-06T09:09:05Z</time></trkpt>
<trkpt lat="22.947959" lon="114.737117">
<time>2016-10-06T09:09:06Z</time></trkpt>
<trkpt lat="22.948349" lon="114.736987">
<time>2016-10-06T09:09:07Z</time></trkpt>
<trkpt lat="22.948949" lon="114.736797">
<time>2016-10-06T09:09:08Z</time></trkpt>
<trkpt lat="22.949388" lon="114.736677">
<time>2016-10-06T09:09:09Z</time></trkpt>
<trkpt lat="22.949738" lon="114.736587">
<time>2016-10-06T09:09:10Z</time></trkpt>
<trkpt lat="22.950048" lon="114.736517">
<time>2016-10-06T09:09:11Z</time></trkpt>
<trkpt lat="22.950358" lon="114.736457">
<time>2016-10-06T09:09:12Z</time></trkpt>
<trkpt lat="22.953587" lon="114.735817">
<time>2016-10-06T09:09:13Z</time></trkpt>
<trkpt lat="22.954317" lon="114.735677">
<time>2016-10-06T09:09:14Z</time></trkpt>
<trkpt lat="22.954846" lon="114.735567">
<time>2016-10-06T09:09:15Z</time></trkpt>
<trkpt lat="22.954986" lon="114.735537">
<time>2016-10-06T09:09:16Z</time></trkpt>
<trkpt lat="22.955176" lon="114.735517">
<time>2016-10-06T09:09:17Z</time></trkpt>
<trkpt lat="22.955356" lon="114.735497">
<time>2016-10-06T09:09:18Z</time></trkpt>
<trkpt lat="22.955536" lon="114.735487">
<time>2016-10-06T09:09:19Z</time></trkpt>
<trkpt lat="22.955716" lon="114.735487">
<time>2016-10-06T09:09:20Z</time></trkpt>
<trkpt lat="22.955826" lon="114.735497">
<time>2016-10-06T09:09:21Z</time></trkpt>
<trkpt lat="22.955916" lon="114.735507">
<time>2016-10-06T09:09:22Z</time></trkpt>
<trkpt lat="22.956076" lon="114.735537">
<time>2016-10-06T09:09:23Z</time></trkpt>
<trkpt lat="22.956206" lon="114.735567">
<time>2016-10-06T09:09:24Z</time></trkpt>
<trkpt lat="22.956366" lon="114.735617">
<time>2016-10-06T09:09:25Z</time></trkpt>
<trkpt lat="22.956496" lon="114.735667">
<time>2016-10-06T09:09:26Z</time></trkpt>
<trkpt lat="22.956596" lon="114.735707">
<time>2016-10-06T09:09:27Z</time></trkpt>
<trkpt lat="22.956706" lon="114.735767">
<time>2016-10-06T09:09:28Z</time></trkpt>
<trkpt lat="22.956915" lon="114.735877">
<time>2016-10-06T09:09:29Z</time></trkpt>
<trkpt lat="22.957025" lon="114.735957">
<time>2016-10-06T09:09:30Z</time></trkpt>
<trkpt lat="22.957155" lon="114.736057">
<time>2016-10-06T09:09:31Z</time></trkpt>
<trkpt lat="22.957455" lon="114.736306">
<time>2016-10-06T09:09:32Z</time></trkpt>
<trkpt lat="22.957935" lon="114.736726">
<time>2016-10-06T09:09:33Z</time></trkpt>
<trkpt lat="22.959194" lon="114.737836">
<time>2016-10-06T09:09:34Z</time></trkpt>
<trkpt lat="22.959963" lon="114.738516">
<time>2016-10-06T09:09:35Z</time></trkpt>
<trkpt lat="22.960113" lon="114.738636">
<time>2016-10-06T09:09:36Z</time></trkpt>
<trkpt lat="22.960333" lon="114.738795">
<time>2016-10-06T09:09:37Z</time></trkpt>
<trkpt lat="22.960483" lon="114.738895">
<time>2016-10-06T09:09:38Z</time></trkpt>
<trkpt lat="22.960653" lon="114.738995">
<time>2016-10-06T09:09:39Z</time></trkpt>
<trkpt lat="22.960803" lon="114.739075">
<time>2016-10-06T09:09:40Z</time></trkpt>
<trkpt lat="22.960933" lon="114.739125">
<time>2016-10-06T09:09:41Z</time></trkpt>
<trkpt lat="22.961103" lon="114.739185">
<time>2016-10-06T09:09:42Z</time></trkpt>
<trkpt lat="22.961263" lon="114.739235">
<time>2016-10-06T09:09:43Z</time></trkpt>
<trkpt lat="22.961473" lon="114.739285">
<time>2016-10-06T09:09:44Z</time></trkpt>
<trkpt lat="22.961712" lon="114.739325">
<time>2016-10-06T09:09:45Z</time></trkpt>
<trkpt lat="22.961972" lon="114.739335">
<time>2016-10-06T09:09:46Z</time></trkpt>
<trkpt lat="22.962132" lon="114.739335">
<time>2016-10-06T09:09:47Z</time></trkpt>
<trkpt lat="22.963162" lon="114.739295">
<time>2016-10-06T09:09:48Z</time></trkpt>
<trkpt lat="22.963532" lon="114.739265">
<time>2016-10-06T09:09:49Z</time></trkpt>
<trkpt lat="22.964221" lon="114.739215">
<time>2016-10-06T09:09:50Z</time></trkpt>
<trkpt lat="22.964311" lon="114.739215">
<time>2016-10-06T09:09:51Z</time></trkpt>
<trkpt lat="22.964681" lon="114.739205">
<time>2016-10-06T09:09:52Z</time></trkpt>
<trkpt lat="22.965091" lon="114.739185">
<time>2016-10-06T09:09:53Z</time></trkpt>
<trkpt lat="22.965561" lon="114.739165">
<time>2016-10-06T09:09:54Z</time></trkpt>
<trkpt lat="22.965951" lon="114.739165">
<time>2016-10-06T09:09:55Z</time></trkpt>
<trkpt lat="22.966111" lon="114.739175">
<time>2016-10-06T09:09:56Z</time></trkpt>
<trkpt lat="22.96645" lon="114.739195">
<time>2016-10-06T09:09:57Z</time></trkpt>
<trkpt lat="22.96691" lon="114.739235">
<time>2016-10-06T09:09:58Z</time></trkpt>
<trkpt lat="22.96714" lon="114.739265">
<time>2016-10-06T09:09:59Z</time></trkpt>
<trkpt lat="22.96828" lon="114.739445">
<time>2016-10-06T09:10:00Z</time></trkpt>
<trkpt lat="22.968529" lon="114.739475">
<time>2016-10-06T09:10:01Z</time></trkpt>
<trkpt lat="22.968819" lon="114.739485">
<time>2016-10-06T09:10:02Z</time></trkpt>
<trkpt lat="22.968979" lon="114.739475">
<time>2016-10-06T09:10:03Z</time></trkpt>
<trkpt lat="22.969079" lon="114.739475">
<time>2016-10-06T09:10:04Z</time></trkpt>
<trkpt lat="22.969319" lon="114.739445">
<time>2016-10-06T09:10:05Z</time></trkpt>
<trkpt lat="22.969469" lon="114.739425">
<time>2016-10-06T09:10:06Z</time></trkpt>
<trkpt lat="22.969699" lon="114.739385">
<time>2016-10-06T09:10:07Z</time></trkpt>
<trkpt lat="22.969919" lon="114.739325">
<time>2016-10-06T09:10:08Z</time></trkpt>
<trkpt lat="22.970069" lon="114.739275">
<time>2016-10-06T09:10:09Z</time></trkpt>
<trkpt lat="22.970219" lon="114.739225">
<time>2016-10-06T09:10:10Z</time></trkpt>
<trkpt lat="22.970329" lon="114.739185">
<time>2016-10-06T09:10:11Z</time></trkpt>
<trkpt lat="22.970509" lon="114.739115">
<time>2016-10-06T09:10:12Z</time></trkpt>
<trkpt lat="22.970549" lon="114.739095">
<time>2016-10-06T09:10:13Z</time></trkpt>
<trkpt lat="22.970749" lon="114.739005">
<time>2016-10-06T09:10:14Z</time></trkpt>
<trkpt lat="22.970929" lon="114.738905">
<time>2016-10-06T09:10:15Z</time></trkpt>
<trkpt lat="22.971039" lon="114.738845">
<time>2016-10-06T09:10:16Z</time></trkpt>
<trkpt lat="22.971128" lon="114.738785">
<time>2016-10-06T09:10:17Z</time></trkpt>
<trkpt lat="22.971218" lon="114.738725">
<time>2016-10-06T09:10:18Z</time></trkpt>
<trkpt lat="22.971358" lon="114.738625">
<time>2016-10-06T09:10:19Z</time></trkpt>
<trkpt lat="22.971528" lon="114.738495">
<time>2016-10-06T09:10:20Z</time></trkpt>
<trkpt lat="22.971758" lon="114.738285">
<time>2016-10-06T09:10:21Z</time></trkpt>
<trkpt lat="22.972008" lon="114.738055">
<time>2016-10-06T09:10:22Z</time></trkpt>
<trkpt lat="22.972088" lon="114.737985">
<time>2016-10-06T09:10:23Z</time></trkpt>
<trkpt lat="22.972488" lon="114.737595">
<time>2016-10-06T09:10:24Z</time></trkpt>
<trkpt lat="22.972778" lon="114.737305">
<time>2016-10-06T09:10:25Z</time></trkpt>
<trkpt lat="22.973118" lon="114.736985">
<time>2016-10-06T09:10:26Z</time></trkpt>
<trkpt lat="22.974128" lon="114.735996">
<time>2016-10-06T09:10:27Z</time></trkpt>
<trkpt lat="22.974988" lon="114.735176">
<time>2016-10-06T09:10:28Z</time></trkpt>
<trkpt lat="22.975208" lon="114.734946">
<time>2016-10-06T09:10:29Z</time></trkpt>
<trkpt lat="22.975838" lon="114.734346">
<time>2016-10-06T09:10:30Z</time></trkpt>
<trkpt lat="22.976348" lon="114.733856">
<time>2016-10-06T09:10:31Z</time></trkpt>
<trkpt lat="22.976528" lon="114.733676">
<time>2016-10-06T09:10:32Z</time></trkpt>
<trkpt lat="22.976958" lon="114.733257">
<time>2016-10-06T09:10:33Z</time></trkpt>
<trkpt lat="22.976998" lon="114.733217">
<time>2016-10-06T09:10:34Z</time></trkpt>
<trkpt lat="22.977468" lon="114.732757">
<time>2016-10-06T09:10:35Z</time></trkpt>
<trkpt lat="22.977468" lon="114.732757">
<time>2016-10-06T09:10:36Z</time></trkpt>
<trkpt lat="22.977558" lon="114.732867">
<time>2016-10-06T09:10:37Z</time></trkpt>
<trkpt lat="22.977558" lon="114.732867">
<time>2016-10-06T09:10:38Z</time></trkpt>
<trkpt lat="22.977778" lon="114.732647">
<time>2016-10-06T09:10:39Z</time></trkpt>
<trkpt lat="22.978088" lon="114.732357">
<time>2016-10-06T09:10:40Z</time></trkpt>
<trkpt lat="22.978598" lon="114.731857">
<time>2016-10-06T09:10:41Z</time></trkpt>
<trkpt lat="22.978918" lon="114.731547">
<time>2016-10-06T09:10:42Z</time></trkpt>
<trkpt lat="22.979468" lon="114.731008">
<time>2016-10-06T09:10:43Z</time></trkpt>
<trkpt lat="22.980208" lon="114.730288">
<time>2016-10-06T09:10:44Z</time></trkpt>
<trkpt lat="22.980388" lon="114.730128">
<time>2016-10-06T09:10:45Z</time></trkpt>
<trkpt lat="22.980718" lon="114.729798">
<time>2016-10-06T09:10:46Z</time></trkpt>
<trkpt lat="22.980798" lon="114.729718">
<time>2016-10-06T09:10:47Z</time></trkpt>
<trkpt lat="22.980868" lon="114.729648">
<time>2016-10-06T09:10:48Z</time></trkpt>
<trkpt lat="22.981528" lon="114.728999">
<time>2016-10-06T09:10:49Z</time></trkpt>
<trkpt lat="22.981868" lon="114.728659">
<time>2016-10-06T09:10:50Z</time></trkpt>
<trkpt lat="22.982819" lon="114.727719">
<time>2016-10-06T09:10:51Z</time></trkpt>
<trkpt lat="22.982979" lon="114.72756">
<time>2016-10-06T09:10:52Z</time></trkpt>
<trkpt lat="22.983069" lon="114.72747">
<time>2016-10-06T09:10:53Z</time></trkpt>
<trkpt lat="22.983229" lon="114.72729">
<time>2016-10-06T09:10:54Z</time></trkpt>
<trkpt lat="22.983369" lon="114.72713">
<time>2016-10-06T09:10:55Z</time></trkpt>
<trkpt lat="22.983439" lon="114.72704">
<time>2016-10-06T09:10:56Z</time></trkpt>
<trkpt lat="22.983469" lon="114.72699">
<time>2016-10-06T09:10:57Z</time></trkpt>
<trkpt lat="22.983529" lon="114.72691">
<time>2016-10-06T09:10:58Z</time></trkpt>
<trkpt lat="22.983589" lon="114.7268">
<time>2016-10-06T09:10:59Z</time></trkpt>
<trkpt lat="22.983709" lon="114.72657">
<time>2016-10-06T09:11:00Z</time></trkpt>
<trkpt lat="22.983799" lon="114.72636">
<time>2016-10-06T09:11:01Z</time></trkpt>
<trkpt lat="22.983919" lon="114.726101">
<time>2016-10-06T09:11:02Z</time></trkpt>
<trkpt lat="22.984029" lon="114.725831">
<time>2016-10-06T09:11:03Z</time></trkpt>
<trkpt lat="22.984109" lon="114.725651">
<time>2016-10-06T09:11:04Z</time></trkpt>
<trkpt lat="22.98419" lon="114.725471">
<time>2016-10-06T09:11:05Z</time></trkpt>
<trkpt lat="22.98426" lon="114.725331">
<time>2016-10-06T09:11:06Z</time></trkpt>
<trkpt lat="22.98433" lon="114.725201">
<time>2016-10-06T09:11:07Z</time></trkpt>
<trkpt lat="22.98441" lon="114.725061">
<time>2016-10-06T09:11:08Z</time></trkpt>
<trkpt lat="22.98446" lon="114.724961">
<time>2016-10-06T09:11:09Z</time></trkpt>
<trkpt lat="22.98453" lon="114.724841">
<time>2016-10-06T09:11:10Z</time></trkpt>
<trkpt lat="22.98456" lon="114.724792">
<time>2016-10-06T09:11:11Z</time></trkpt>
<trkpt lat="22.98474" lon="114.724542">
<time>2016-10-06T09:11:12Z</time></trkpt>
<trkpt lat="22.98487" lon="114.724362">
<time>2016-10-06T09:11:13Z</time></trkpt>
<trkpt lat="22.98523" lon="114.723872">
<time>2016-10-06T09:11:14Z</time></trkpt>
<trkpt lat="22.985781" lon="114.723123">
<time>2016-10-06T09:11:15Z</time></trkpt>
<trkpt lat="22.986101" lon="114.722713">
<time>2016-10-06T09:11:16Z</time></trkpt>
<trkpt lat="22.986251" lon="114.722513">
<time>2016-10-06T09:11:17Z</time></trkpt>
<trkpt lat="22.987202" lon="114.721184">
<time>2016-10-06T09:11:18Z</time></trkpt>
<trkpt lat="22.987542" lon="114.720735">
<time>2016-10-06T09:11:19Z</time></trkpt>
<trkpt lat="22.987712" lon="114.720495">
<time>2016-10-06T09:11:20Z</time></trkpt>
<trkpt lat="22.987992" lon="114.720145">
<time>2016-10-06T09:11:21Z</time></trkpt>
<trkpt lat="22.988082" lon="114.720016">
<time>2016-10-06T09:11:22Z</time></trkpt>
<trkpt lat="22.988333" lon="114.719686">
<time>2016-10-06T09:11:23Z</time></trkpt>
<trkpt lat="22.988403" lon="114.719586">
<time>2016-10-06T09:11:24Z</time></trkpt>
<trkpt lat="22.988653" lon="114.719236">
<time>2016-10-06T09:11:25Z</time></trkpt>
<trkpt lat="22.989013" lon="114.718747">
<time>2016-10-06T09:11:26Z</time></trkpt>
<trkpt lat="22.990024" lon="114.717378">
<time>2016-10-06T09:11:27Z</time></trkpt>
<trkpt lat="22.990445" lon="114.716819">
<time>2016-10-06T09:11:28Z</time></trkpt>
<trkpt lat="22.990645" lon="114.716549">
<time>2016-10-06T09:11:29Z</time></trkpt>
<trkpt lat="22.990765" lon="114.716379">
<time>2016-10-06T09:11:30Z</time></trkpt>
<trkpt lat="22.991115" lon="114.7159">
<time>2016-10-06T09:11:31Z</time></trkpt>
<trkpt lat="22.991406" lon="114.71551">
<time>2016-10-06T09:11:32Z</time></trkpt>
<trkpt lat="22.991866" lon="114.714881">
<time>2016-10-06T09:11:33Z</time></trkpt>
<trkpt lat="22.992377" lon="114.714182">
<time>2016-10-06T09:11:34Z</time></trkpt>
<trkpt lat="22.992857" lon="114.713532">
<time>2016-10-06T09:11:35Z</time></trkpt>
<trkpt lat="22.993708" lon="114.712454">
<time>2016-10-06T09:11:36Z</time></trkpt>
<trkpt lat="22.993968" lon="114.712104">
<time>2016-10-06T09:11:37Z</time></trkpt>
<trkpt lat="22.994339" lon="114.711615">
<time>2016-10-06T09:11:38Z</time></trkpt>
<trkpt lat="22.99591" lon="114.709687">
<time>2016-10-06T09:11:39Z</time></trkpt>
<trkpt lat="22.996921" lon="114.708478">
<time>2016-10-06T09:11:40Z</time></trkpt>
<trkpt lat="22.997332" lon="114.708029">
<time>2016-10-06T09:11:41Z</time></trkpt>
<trkpt lat="22.998663" lon="114.706381">
<time>2016-10-06T09:11:42Z</time></trkpt>
<trkpt lat="22.999585" lon="114.705263">
<time>2016-10-06T09:11:43Z</time></trkpt>
<trkpt lat="22.999925" lon="114.704853">
<time>2016-10-06T09:11:44Z</time></trkpt>
<trkpt lat="22.999995" lon="114.704783">
<time>2016-10-06T09:11:45Z</time></trkpt>
<trkpt lat="23.000105" lon="114.704644">
<time>2016-10-06T09:11:46Z</time></trkpt>
<trkpt lat="23.000616" lon="114.704015">
<time>2016-10-06T09:11:47Z</time></trkpt>
<trkpt lat="23.000896" lon="114.703675">
<time>2016-10-06T09:11:48Z</time></trkpt>
<trkpt lat="23.001377" lon="114.703066">
<time>2016-10-06T09:11:49Z</time></trkpt>
<trkpt lat="23.001868" lon="114.702457">
<time>2016-10-06T09:11:50Z</time></trkpt>
<trkpt lat="23.002048" lon="114.702247">
<time>2016-10-06T09:11:51Z</time></trkpt>
<trkpt lat="23.002178" lon="114.702087">
<time>2016-10-06T09:11:52Z</time></trkpt>
<trkpt lat="23.002649" lon="114.701498">
<time>2016-10-06T09:11:53Z</time></trkpt>
<trkpt lat="23.002799" lon="114.701319">
<time>2016-10-06T09:11:54Z</time></trkpt>
<trkpt lat="23.002919" lon="114.701169">
<time>2016-10-06T09:11:55Z</time></trkpt>
<trkpt lat="23.003269" lon="114.700729">
<time>2016-10-06T09:11:56Z</time></trkpt>
<trkpt lat="23.00341" lon="114.70056">
<time>2016-10-06T09:11:57Z</time></trkpt>
<trkpt lat="23.00373" lon="114.70017">
<time>2016-10-06T09:11:58Z</time></trkpt>
<trkpt lat="23.004181" lon="114.699611">
<time>2016-10-06T09:11:59Z</time></trkpt>
<trkpt lat="23.005032" lon="114.698543">
<time>2016-10-06T09:12:00Z</time></trkpt>
<trkpt lat="23.005853" lon="114.697524">
<time>2016-10-06T09:12:01Z</time></trkpt>
<trkpt lat="23.006244" lon="114.697025">
<time>2016-10-06T09:12:02Z</time></trkpt>
<trkpt lat="23.006294" lon="114.696965">
<time>2016-10-06T09:12:03Z</time></trkpt>
<trkpt lat="23.006765" lon="114.696396">
<time>2016-10-06T09:12:04Z</time></trkpt>
<trkpt lat="23.007265" lon="114.695777">
<time>2016-10-06T09:12:05Z</time></trkpt>
<trkpt lat="23.007616" lon="114.695328">
<time>2016-10-06T09:12:06Z</time></trkpt>
<trkpt lat="23.007967" lon="114.694899">
<time>2016-10-06T09:12:07Z</time></trkpt>
<trkpt lat="23.008457" lon="114.69428">
<time>2016-10-06T09:12:08Z</time></trkpt>
<trkpt lat="23.008848" lon="114.6938">
<time>2016-10-06T09:12:09Z</time></trkpt>
<trkpt lat="23.009199" lon="114.693371">
<time>2016-10-06T09:12:10Z</time></trkpt>
<trkpt lat="23.009239" lon="114.693311">
<time>2016-10-06T09:12:11Z</time></trkpt>
<trkpt lat="23.009479" lon="114.693012">
<time>2016-10-06T09:12:12Z</time></trkpt>
<trkpt lat="23.009569" lon="114.692902">
<time>2016-10-06T09:12:13Z</time></trkpt>
<trkpt lat="23.00992" lon="114.692463">
<time>2016-10-06T09:12:14Z</time></trkpt>
<trkpt lat="23.01034" lon="114.691944">
<time>2016-10-06T09:12:15Z</time></trkpt>
<trkpt lat="23.010701" lon="114.691544">
<time>2016-10-06T09:12:16Z</time></trkpt>
<trkpt lat="23.010771" lon="114.691474">
<time>2016-10-06T09:12:17Z</time></trkpt>
<trkpt lat="23.011091" lon="114.691155">
<time>2016-10-06T09:12:18Z</time></trkpt>
<trkpt lat="23.011322" lon="114.690925">
<time>2016-10-06T09:12:19Z</time></trkpt>
<trkpt lat="23.011482" lon="114.690766">
<time>2016-10-06T09:12:20Z</time></trkpt>
<trkpt lat="23.011662" lon="114.690596">
<time>2016-10-06T09:12:21Z</time></trkpt>
<trkpt lat="23.011772" lon="114.690496">
<time>2016-10-06T09:12:22Z</time></trkpt>
<trkpt lat="23.012153" lon="114.690137">
<time>2016-10-06T09:12:23Z</time></trkpt>
<trkpt lat="23.013074" lon="114.689258">
<time>2016-10-06T09:12:24Z</time></trkpt>
<trkpt lat="23.013074" lon="114.689248">
<time>2016-10-06T09:12:25Z</time></trkpt>
<trkpt lat="23.013304" lon="114.689029">
<time>2016-10-06T09:12:26Z</time></trkpt>
<trkpt lat="23.013534" lon="114.688809">
<time>2016-10-06T09:12:27Z</time></trkpt>
<trkpt lat="23.013735" lon="114.688619">
<time>2016-10-06T09:12:28Z</time></trkpt>
<trkpt lat="23.014005" lon="114.68837">
<time>2016-10-06T09:12:29Z</time></trkpt>
<trkpt lat="23.014365" lon="114.68802">
<time>2016-10-06T09:12:30Z</time></trkpt>
<trkpt lat="23.014636" lon="114.687771">
<time>2016-10-06T09:12:31Z</time></trkpt>
<trkpt lat="23.014886" lon="114.687531">
<time>2016-10-06T09:12:32Z</time></trkpt>
<trkpt lat="23.015136" lon="114.687262">
<time>2016-10-06T09:12:33Z</time></trkpt>
<trkpt lat="23.015297" lon="114.687082">
<time>2016-10-06T09:12:34Z</time></trkpt>
<trkpt lat="23.015417" lon="114.686952">
<time>2016-10-06T09:12:35Z</time></trkpt>
<trkpt lat="23.015537" lon="114.686792">
<time>2016-10-06T09:12:36Z</time></trkpt>
<trkpt lat="23.015637" lon="114.686663">
<time>2016-10-06T09:12:37Z</time></trkpt>
<trkpt lat="23.015747" lon="114.686503">
<time>2016-10-06T09:12:38Z</time></trkpt>
<trkpt lat="23.015808" lon="114.686413">
<time>2016-10-06T09:12:39Z</time></trkpt>
<trkpt lat="23.015858" lon="114.686303">
<time>2016-10-06T09:12:40Z</time></trkpt>
<trkpt lat="23.015938" lon="114.686164">
<time>2016-10-06T09:12:41Z</time></trkpt>
<trkpt lat="23.015998" lon="114.686034">
<time>2016-10-06T09:12:42Z</time></trkpt>
<trkpt lat="23.016068" lon="114.685874">
<time>2016-10-06T09:12:43Z</time></trkpt>
<trkpt lat="23.016159" lon="114.685665">
<time>2016-10-06T09:12:44Z</time></trkpt>
<trkpt lat="23.016229" lon="114.685455">
<time>2016-10-06T09:12:45Z</time></trkpt>
<trkpt lat="23.016269" lon="114.685315">
<time>2016-10-06T09:12:46Z</time></trkpt>
<trkpt lat="23.01633" lon="114.685096">
<time>2016-10-06T09:12:47Z</time></trkpt>
<trkpt lat="23.0164" lon="114.684826">
<time>2016-10-06T09:12:48Z</time></trkpt>
<trkpt lat="23.016481" lon="114.684477">
<time>2016-10-06T09:12:49Z</time></trkpt>
<trkpt lat="23.016622" lon="114.683858">
<time>2016-10-06T09:12:50Z</time></trkpt>
<trkpt lat="23.016995" lon="114.682271">
<time>2016-10-06T09:12:51Z</time></trkpt>
<trkpt lat="23.017055" lon="114.682001">
<time>2016-10-06T09:12:52Z</time></trkpt>
<trkpt lat="23.017418" lon="114.680454">
<time>2016-10-06T09:12:53Z</time></trkpt>
<trkpt lat="23.017599" lon="114.679656">
<time>2016-10-06T09:12:54Z</time></trkpt>
<trkpt lat="23.017811" lon="114.678748">
<time>2016-10-06T09:12:55Z</time></trkpt>
<trkpt lat="23.018274" lon="114.676751">
<time>2016-10-06T09:12:56Z</time></trkpt>
<trkpt lat="23.019191" lon="114.672839">
<time>2016-10-06T09:12:57Z</time></trkpt>
<trkpt lat="23.019484" lon="114.671562">
<time>2016-10-06T09:12:58Z</time></trkpt>
<trkpt lat="23.019695" lon="114.670783">
<time>2016-10-06T09:12:59Z</time></trkpt>
<trkpt lat="23.019745" lon="114.670603">
<time>2016-10-06T09:13:00Z</time></trkpt>
<trkpt lat="23.019846" lon="114.670284">
<time>2016-10-06T09:13:01Z</time></trkpt>
<trkpt lat="23.019966" lon="114.669945">
<time>2016-10-06T09:13:02Z</time></trkpt>
<trkpt lat="23.020097" lon="114.669585">
<time>2016-10-06T09:13:03Z</time></trkpt>
<trkpt lat="23.020469" lon="114.668667">
<time>2016-10-06T09:13:04Z</time></trkpt>
<trkpt lat="23.02079" lon="114.667979">
<time>2016-10-06T09:13:05Z</time></trkpt>
<trkpt lat="23.021021" lon="114.66748">
<time>2016-10-06T09:13:06Z</time></trkpt>
<trkpt lat="23.021111" lon="114.66728">
<time>2016-10-06T09:13:07Z</time></trkpt>
<trkpt lat="23.021171" lon="114.66717">
<time>2016-10-06T09:13:08Z</time></trkpt>
<trkpt lat="23.021352" lon="114.666771">
<time>2016-10-06T09:13:09Z</time></trkpt>
<trkpt lat="23.021613" lon="114.666202">
<time>2016-10-06T09:13:10Z</time></trkpt>
<trkpt lat="23.022185" lon="114.664954">
<time>2016-10-06T09:13:11Z</time></trkpt>
<trkpt lat="23.022988" lon="114.663228">
<time>2016-10-06T09:13:12Z</time></trkpt>
<trkpt lat="23.023259" lon="114.662629">
<time>2016-10-06T09:13:13Z</time></trkpt>
<trkpt lat="23.02357" lon="114.66196">
<time>2016-10-06T09:13:14Z</time></trkpt>
<trkpt lat="23.024905" lon="114.659106">
<time>2016-10-06T09:13:15Z</time></trkpt>
<trkpt lat="23.025236" lon="114.658357">
<time>2016-10-06T09:13:16Z</time></trkpt>
<trkpt lat="23.025738" lon="114.657299">
<time>2016-10-06T09:13:17Z</time></trkpt>
<trkpt lat="23.025969" lon="114.65678">
<time>2016-10-06T09:13:18Z</time></trkpt>
<trkpt lat="23.026049" lon="114.65661">
<time>2016-10-06T09:13:19Z</time></trkpt>
<trkpt lat="23.026129" lon="114.656441">
<time>2016-10-06T09:13:20Z</time></trkpt>
<trkpt lat="23.02634" lon="114.655992">
<time>2016-10-06T09:13:21Z</time></trkpt>
<trkpt lat="23.026521" lon="114.655602">
<time>2016-10-06T09:13:22Z</time></trkpt>
<trkpt lat="23.026752" lon="114.655093">
<time>2016-10-06T09:13:23Z</time></trkpt>
<trkpt lat="23.027113" lon="114.654315">
<time>2016-10-06T09:13:24Z</time></trkpt>
<trkpt lat="23.027595" lon="114.653287">
<time>2016-10-06T09:13:25Z</time></trkpt>
<trkpt lat="23.027926" lon="114.652578">
<time>2016-10-06T09:13:26Z</time></trkpt>
<trkpt lat="23.028136" lon="114.652119">
<time>2016-10-06T09:13:27Z</time></trkpt>
<trkpt lat="23.028247" lon="114.651889">
<time>2016-10-06T09:13:28Z</time></trkpt>
<trkpt lat="23.028608" lon="114.651101">
<time>2016-10-06T09:13:29Z</time></trkpt>
<trkpt lat="23.02923" lon="114.649743">
<time>2016-10-06T09:13:30Z</time></trkpt>
<trkpt lat="23.029662" lon="114.648825">
<time>2016-10-06T09:13:31Z</time></trkpt>
<trkpt lat="23.029973" lon="114.648116">
<time>2016-10-06T09:13:32Z</time></trkpt>
<trkpt lat="23.030324" lon="114.647307">
<time>2016-10-06T09:13:33Z</time></trkpt>
<trkpt lat="23.030696" lon="114.646399">
<time>2016-10-06T09:13:34Z</time></trkpt>
<trkpt lat="23.030947" lon="114.64574">
<time>2016-10-06T09:13:35Z</time></trkpt>
<trkpt lat="23.031097" lon="114.645331">
<time>2016-10-06T09:13:36Z</time></trkpt>
<trkpt lat="23.031298" lon="114.644712">
<time>2016-10-06T09:13:37Z</time></trkpt>
<trkpt lat="23.031559" lon="114.643963">
<time>2016-10-06T09:13:38Z</time></trkpt>
<trkpt lat="23.03171" lon="114.643534">
<time>2016-10-06T09:13:39Z</time></trkpt>
<trkpt lat="23.031861" lon="114.643165">
<time>2016-10-06T09:13:40Z</time></trkpt>
<trkpt lat="23.031881" lon="114.643115">
<time>2016-10-06T09:13:41Z</time></trkpt>
<trkpt lat="23.032011" lon="114.642805">
<time>2016-10-06T09:13:42Z</time></trkpt>
<trkpt lat="23.032061" lon="114.642705">
<time>2016-10-06T09:13:43Z</time></trkpt>
<trkpt lat="23.032202" lon="114.642426">
<time>2016-10-06T09:13:44Z</time></trkpt>
<trkpt lat="23.032342" lon="114.642176">
<time>2016-10-06T09:13:45Z</time></trkpt>
<trkpt lat="23.032462" lon="114.641957">
<time>2016-10-06T09:13:46Z</time></trkpt>
<trkpt lat="23.032583" lon="114.641757">
<time>2016-10-06T09:13:47Z</time></trkpt>
<trkpt lat="23.032803" lon="114.641427">
<time>2016-10-06T09:13:48Z</time></trkpt>
<trkpt lat="23.032994" lon="114.641128">
<time>2016-10-06T09:13:49Z</time></trkpt>
<trkpt lat="23.033464" lon="114.640469">
<time>2016-10-06T09:13:50Z</time></trkpt>
<trkpt lat="23.034466" lon="114.639061">
<time>2016-10-06T09:13:51Z</time></trkpt>
<trkpt lat="23.035067" lon="114.638202">
<time>2016-10-06T09:13:52Z</time></trkpt>
<trkpt lat="23.035478" lon="114.637583">
<time>2016-10-06T09:13:53Z</time></trkpt>
<trkpt lat="23.035719" lon="114.637194">
<time>2016-10-06T09:13:54Z</time></trkpt>
<trkpt lat="23.035849" lon="114.636994">
<time>2016-10-06T09:13:55Z</time></trkpt>
<trkpt lat="23.035869" lon="114.636954">
<time>2016-10-06T09:13:56Z</time></trkpt>
<trkpt lat="23.035909" lon="114.636884">
<time>2016-10-06T09:13:57Z</time></trkpt>
<trkpt lat="23.03615" lon="114.636505">
<time>2016-10-06T09:13:58Z</time></trkpt>
<trkpt lat="23.03646" lon="114.635956">
<time>2016-10-06T09:13:59Z</time></trkpt>
<trkpt lat="23.036621" lon="114.635676">
<time>2016-10-06T09:14:00Z</time></trkpt>
<trkpt lat="23.036751" lon="114.635427">
<time>2016-10-06T09:14:01Z</time></trkpt>
<trkpt lat="23.037272" lon="114.634418">
<time>2016-10-06T09:14:02Z</time></trkpt>
<trkpt lat="23.037633" lon="114.633729">
<time>2016-10-06T09:14:03Z</time></trkpt>
<trkpt lat="23.038004" lon="114.63301">
<time>2016-10-06T09:14:04Z</time></trkpt>
<trkpt lat="23.038535" lon="114.631942">
<time>2016-10-06T09:14:05Z</time></trkpt>
<trkpt lat="23.038595" lon="114.631812">
<time>2016-10-06T09:14:06Z</time></trkpt>
<trkpt lat="23.038676" lon="114.631662">
<time>2016-10-06T09:14:07Z</time></trkpt>
<trkpt lat="23.038726" lon="114.631552">
<time>2016-10-06T09:14:08Z</time></trkpt>
<trkpt lat="23.038866" lon="114.631273">
<time>2016-10-06T09:14:09Z</time></trkpt>
<trkpt lat="23.039558" lon="114.629874">
<time>2016-10-06T09:14:10Z</time></trkpt>
<trkpt lat="23.039768" lon="114.629465">
<time>2016-10-06T09:14:11Z</time></trkpt>
<trkpt lat="23.039818" lon="114.629355">
<time>2016-10-06T09:14:12Z</time></trkpt>
<trkpt lat="23.039858" lon="114.629275">
<time>2016-10-06T09:14:13Z</time></trkpt>
<trkpt lat="23.040079" lon="114.628786">
<time>2016-10-06T09:14:14Z</time></trkpt>
<trkpt lat="23.04033" lon="114.628217">
<time>2016-10-06T09:14:15Z</time></trkpt>
<trkpt lat="23.040651" lon="114.627428">
<time>2016-10-06T09:14:16Z</time></trkpt>
<trkpt lat="23.040891" lon="114.626738">
<time>2016-10-06T09:14:17Z</time></trkpt>
<trkpt lat="23.041052" lon="114.626299">
<time>2016-10-06T09:14:18Z</time></trkpt>
<trkpt lat="23.041122" lon="114.626099">
<time>2016-10-06T09:14:19Z</time></trkpt>
<trkpt lat="23.041283" lon="114.62561">
<time>2016-10-06T09:14:20Z</time></trkpt>
<trkpt lat="23.041473" lon="114.62499">
<time>2016-10-06T09:14:21Z</time></trkpt>
<trkpt lat="23.041774" lon="114.623872">
<time>2016-10-06T09:14:22Z</time></trkpt>
<trkpt lat="23.041784" lon="114.623862">
<time>2016-10-06T09:14:23Z</time></trkpt>
<trkpt lat="23.042206" lon="114.622333">
<time>2016-10-06T09:14:24Z</time></trkpt>
<trkpt lat="23.04342" lon="114.617878">
<time>2016-10-06T09:14:25Z</time></trkpt>
<trkpt lat="23.043621" lon="114.616949">
<time>2016-10-06T09:14:26Z</time></trkpt>
<trkpt lat="23.043702" lon="114.616359">
<time>2016-10-06T09:14:27Z</time></trkpt>
<trkpt lat="23.043752" lon="114.615919">
<time>2016-10-06T09:14:28Z</time></trkpt>
<trkpt lat="23.043782" lon="114.61551">
<time>2016-10-06T09:14:29Z</time></trkpt>
<trkpt lat="23.043783" lon="114.61511">
<time>2016-10-06T09:14:30Z</time></trkpt>
<trkpt lat="23.043773" lon="114.614531">
<time>2016-10-06T09:14:31Z</time></trkpt>
<trkpt lat="23.043734" lon="114.614081">
<time>2016-10-06T09:14:32Z</time></trkpt>
<trkpt lat="23.043704" lon="114.613731">
<time>2016-10-06T09:14:33Z</time></trkpt>
<trkpt lat="23.043654" lon="114.613381">
<time>2016-10-06T09:14:34Z</time></trkpt>
<trkpt lat="23.043545" lon="114.612762">
<time>2016-10-06T09:14:35Z</time></trkpt>
<trkpt lat="23.043415" lon="114.612032">
<time>2016-10-06T09:14:36Z</time></trkpt>
<trkpt lat="23.043316" lon="114.611553">
<time>2016-10-06T09:14:37Z</time></trkpt>
<trkpt lat="23.042997" lon="114.609774">
<time>2016-10-06T09:14:38Z</time></trkpt>
<trkpt lat="23.042778" lon="114.608545">
<time>2016-10-06T09:14:39Z</time></trkpt>
<trkpt lat="23.042689" lon="114.607995">
<time>2016-10-06T09:14:40Z</time></trkpt>
<trkpt lat="23.042559" lon="114.607165">
<time>2016-10-06T09:14:41Z</time></trkpt>
<trkpt lat="23.04241" lon="114.605906">
<time>2016-10-06T09:14:42Z</time></trkpt>
<trkpt lat="23.042141" lon="114.603337">
<time>2016-10-06T09:14:43Z</time></trkpt>
<trkpt lat="23.042062" lon="114.602487">
<time>2016-10-06T09:14:44Z</time></trkpt>
<trkpt lat="23.041982" lon="114.601707">
<time>2016-10-06T09:14:45Z</time></trkpt>
<trkpt lat="23.041942" lon="114.601167">
<time>2016-10-06T09:14:46Z</time></trkpt>
<trkpt lat="23.041932" lon="114.600817">
<time>2016-10-06T09:14:47Z</time></trkpt>
<trkpt lat="23.041952" lon="114.600497">
<time>2016-10-06T09:14:48Z</time></trkpt>
<trkpt lat="23.041993" lon="114.600177">
<time>2016-10-06T09:14:49Z</time></trkpt>
<trkpt lat="23.042043" lon="114.599888">
<time>2016-10-06T09:14:50Z</time></trkpt>
<trkpt lat="23.042123" lon="114.599588">
<time>2016-10-06T09:14:51Z</time></trkpt>
<trkpt lat="23.042273" lon="114.599138">
<time>2016-10-06T09:14:52Z</time></trkpt>
<trkpt lat="23.042343" lon="114.598948">
<time>2016-10-06T09:14:53Z</time></trkpt>
<trkpt lat="23.042453" lon="114.598688">
<time>2016-10-06T09:14:54Z</time></trkpt>
<trkpt lat="23.042623" lon="114.598258">
<time>2016-10-06T09:14:55Z</time></trkpt>
<trkpt lat="23.042733" lon="114.597978">
<time>2016-10-06T09:14:56Z</time></trkpt>
<trkpt lat="23.042833" lon="114.597688">
<time>2016-10-06T09:14:57Z</time></trkpt>
<trkpt lat="23.042943" lon="114.597398">
<time>2016-10-06T09:14:58Z</time></trkpt>
<trkpt lat="23.043043" lon="114.597078">
<time>2016-10-06T09:14:59Z</time></trkpt>
<trkpt lat="23.043163" lon="114.596658">
<time>2016-10-06T09:15:00Z</time></trkpt>
<trkpt lat="23.043203" lon="114.596498">
<time>2016-10-06T09:15:01Z</time></trkpt>
<trkpt lat="23.043273" lon="114.596158">
<time>2016-10-06T09:15:02Z</time></trkpt>
<trkpt lat="23.043383" lon="114.595598">
<time>2016-10-06T09:15:03Z</time></trkpt>
<trkpt lat="23.043443" lon="114.595178">
<time>2016-10-06T09:15:04Z</time></trkpt>
<trkpt lat="23.043513" lon="114.594617">
<time>2016-10-06T09:15:05Z</time></trkpt>
<trkpt lat="23.043523" lon="114.594457">
<time>2016-10-06T09:15:06Z</time></trkpt>
<trkpt lat="23.043613" lon="114.593627">
<time>2016-10-06T09:15:07Z</time></trkpt>
<trkpt lat="23.043723" lon="114.592697">
<time>2016-10-06T09:15:08Z</time></trkpt>
<trkpt lat="23.043843" lon="114.591657">
<time>2016-10-06T09:15:09Z</time></trkpt>
<trkpt lat="23.043933" lon="114.590777">
<time>2016-10-06T09:15:10Z</time></trkpt>
<trkpt lat="23.043962" lon="114.589976">
<time>2016-10-06T09:15:11Z</time></trkpt>
<trkpt lat="23.043952" lon="114.589326">
<time>2016-10-06T09:15:12Z</time></trkpt>
<trkpt lat="23.043932" lon="114.589006">
<time>2016-10-06T09:15:13Z</time></trkpt>
<trkpt lat="23.043932" lon="114.588976">
<time>2016-10-06T09:15:14Z</time></trkpt>
<trkpt lat="23.043922" lon="114.588916">
<time>2016-10-06T09:15:15Z</time></trkpt>
<trkpt lat="23.043852" lon="114.588346">
<time>2016-10-06T09:15:16Z</time></trkpt>
<trkpt lat="23.043752" lon="114.587765">
<time>2016-10-06T09:15:17Z</time></trkpt>
<trkpt lat="23.043632" lon="114.587165">
<time>2016-10-06T09:15:18Z</time></trkpt>
<trkpt lat="23.043542" lon="114.586755">
<time>2016-10-06T09:15:19Z</time></trkpt>
<trkpt lat="23.043492" lon="114.586505">
<time>2016-10-06T09:15:20Z</time></trkpt>
<trkpt lat="23.043452" lon="114.586235">
<time>2016-10-06T09:15:21Z</time></trkpt>
<trkpt lat="23.043432" lon="114.586045">
<time>2016-10-06T09:15:22Z</time></trkpt>
<trkpt lat="23.043442" lon="114.585684">
<time>2016-10-06T09:15:23Z</time></trkpt>
<trkpt lat="23.043462" lon="114.585494">
<time>2016-10-06T09:15:24Z</time></trkpt>
<trkpt lat="23.043501" lon="114.585274">
<time>2016-10-06T09:15:25Z</time></trkpt>
<trkpt lat="23.043551" lon="114.585074">
<time>2016-10-06T09:15:26Z</time></trkpt>
<trkpt lat="23.043621" lon="114.584884">
<time>2016-10-06T09:15:27Z</time></trkpt>
<trkpt lat="23.043671" lon="114.584754">
<time>2016-10-06T09:15:28Z</time></trkpt>
<trkpt lat="23.043681" lon="114.584744">
<time>2016-10-06T09:15:29Z</time></trkpt>
<trkpt lat="23.043771" lon="114.584544">
<time>2016-10-06T09:15:30Z</time></trkpt>
<trkpt lat="23.043891" lon="114.584324">
<time>2016-10-06T09:15:31Z</time></trkpt>
<trkpt lat="23.044081" lon="114.584023">
<time>2016-10-06T09:15:32Z</time></trkpt>
<trkpt lat="23.044241" lon="114.583743">
<time>2016-10-06T09:15:33Z</time></trkpt>
<trkpt lat="23.04441" lon="114.583423">
<time>2016-10-06T09:15:34Z</time></trkpt>
<trkpt lat="23.04456" lon="114.583083">
<time>2016-10-06T09:15:35Z</time></trkpt>
<trkpt lat="23.04465" lon="114.582773">
<time>2016-10-06T09:15:36Z</time></trkpt>
<trkpt lat="23.0447" lon="114.582502">
<time>2016-10-06T09:15:37Z</time></trkpt>
<trkpt lat="23.04472" lon="114.582302">
<time>2016-10-06T09:15:38Z</time></trkpt>
<trkpt lat="23.04472" lon="114.582232">
<time>2016-10-06T09:15:39Z</time></trkpt>
<trkpt lat="23.04472" lon="114.581992">
<time>2016-10-06T09:15:40Z</time></trkpt>
<trkpt lat="23.044689" lon="114.581632">
<time>2016-10-06T09:15:41Z</time></trkpt>
<trkpt lat="23.044609" lon="114.581141">
<time>2016-10-06T09:15:42Z</time></trkpt>
<trkpt lat="23.044408" lon="114.57983">
<time>2016-10-06T09:15:43Z</time></trkpt>
<trkpt lat="23.044308" lon="114.57926">
<time>2016-10-06T09:15:44Z</time></trkpt>
<trkpt lat="23.044218" lon="114.578659">
<time>2016-10-06T09:15:45Z</time></trkpt>
<trkpt lat="23.044148" lon="114.578149">
<time>2016-10-06T09:15:46Z</time></trkpt>
<trkpt lat="23.044097" lon="114.577588">
<time>2016-10-06T09:15:47Z</time></trkpt>
<trkpt lat="23.044077" lon="114.576978">
<time>2016-10-06T09:15:48Z</time></trkpt>
<trkpt lat="23.044076" lon="114.576377">
<time>2016-10-06T09:15:49Z</time></trkpt>
<trkpt lat="23.044116" lon="114.575476">
<time>2016-10-06T09:15:50Z</time></trkpt>
<trkpt lat="23.044185" lon="114.574285">
<time>2016-10-06T09:15:51Z</time></trkpt>
<trkpt lat="23.044244" lon="114.573364">
<time>2016-10-06T09:15:52Z</time></trkpt>
<trkpt lat="23.044293" lon="114.572603">
<time>2016-10-06T09:15:53Z</time></trkpt>
<trkpt lat="23.044352" lon="114.571682">
<time>2016-10-06T09:15:54Z</time></trkpt>
<trkpt lat="23.044381" lon="114.571021">
<time>2016-10-06T09:15:55Z</time></trkpt>
<trkpt lat="23.044391" lon="114.57043">
<time>2016-10-06T09:15:56Z</time></trkpt>
<trkpt lat="23.04439" lon="114.569999">
<time>2016-10-06T09:15:57Z</time></trkpt>
<trkpt lat="23.04438" lon="114.569819">
<time>2016-10-06T09:15:58Z</time></trkpt>
<trkpt lat="23.04437" lon="114.569509">
<time>2016-10-06T09:15:59Z</time></trkpt>
<trkpt lat="23.04433" lon="114.569208">
<time>2016-10-06T09:16:00Z</time></trkpt>
<trkpt lat="23.044329" lon="114.569088">
<time>2016-10-06T09:16:01Z</time></trkpt>
<trkpt lat="23.044319" lon="114.568928">
<time>2016-10-06T09:16:02Z</time></trkpt>
<trkpt lat="23.044289" lon="114.568688">
<time>2016-10-06T09:16:03Z</time></trkpt>
<trkpt lat="23.044219" lon="114.568217">
<time>2016-10-06T09:16:04Z</time></trkpt>
<trkpt lat="23.044148" lon="114.567846">
<time>2016-10-06T09:16:05Z</time></trkpt>
<trkpt lat="23.044108" lon="114.567646">
<time>2016-10-06T09:16:06Z</time></trkpt>
<trkpt lat="23.043947" lon="114.566895">
<time>2016-10-06T09:16:07Z</time></trkpt>
<trkpt lat="23.043746" lon="114.565954">
<time>2016-10-06T09:16:08Z</time></trkpt>
<trkpt lat="23.043676" lon="114.565633">
<time>2016-10-06T09:16:09Z</time></trkpt>
<trkpt lat="23.043656" lon="114.565563">
<time>2016-10-06T09:16:10Z</time></trkpt>
<trkpt lat="23.043646" lon="114.565513">
<time>2016-10-06T09:16:11Z</time></trkpt>
<trkpt lat="23.043465" lon="114.564682">
<time>2016-10-06T09:16:12Z</time></trkpt>
<trkpt lat="23.043374" lon="114.564191">
<time>2016-10-06T09:16:13Z</time></trkpt>
<trkpt lat="23.043314" lon="114.56384">
<time>2016-10-06T09:16:14Z</time></trkpt>
<trkpt lat="23.043283" lon="114.56358">
<time>2016-10-06T09:16:15Z</time></trkpt>
<trkpt lat="23.043273" lon="114.563319">
<time>2016-10-06T09:16:16Z</time></trkpt>
<trkpt lat="23.043263" lon="114.563079">
<time>2016-10-06T09:16:17Z</time></trkpt>
<trkpt lat="23.043272" lon="114.562839">
<time>2016-10-06T09:16:18Z</time></trkpt>
<trkpt lat="23.043282" lon="114.562608">
<time>2016-10-06T09:16:19Z</time></trkpt>
<trkpt lat="23.043302" lon="114.562338">
<time>2016-10-06T09:16:20Z</time></trkpt>
<trkpt lat="23.043351" lon="114.561997">
<time>2016-10-06T09:16:21Z</time></trkpt>
<trkpt lat="23.04348" lon="114.561376">
<time>2016-10-06T09:16:22Z</time></trkpt>
<trkpt lat="23.043669" lon="114.560645">
<time>2016-10-06T09:16:23Z</time></trkpt>
<trkpt lat="23.043838" lon="114.559994">
<time>2016-10-06T09:16:24Z</time></trkpt>
<trkpt lat="23.044166" lon="114.558801">
<time>2016-10-06T09:16:25Z</time></trkpt>
<trkpt lat="23.044991" lon="114.555715">
<time>2016-10-06T09:16:26Z</time></trkpt>
<trkpt lat="23.044991" lon="114.555705">
<time>2016-10-06T09:16:27Z</time></trkpt>
<trkpt lat="23.045249" lon="114.554743">
<time>2016-10-06T09:16:28Z</time></trkpt>
<trkpt lat="23.045627" lon="114.55334">
<time>2016-10-06T09:16:29Z</time></trkpt>
<trkpt lat="23.045785" lon="114.552759">
<time>2016-10-06T09:16:30Z</time></trkpt>
<trkpt lat="23.046123" lon="114.551356">
<time>2016-10-06T09:16:31Z</time></trkpt>
<trkpt lat="23.046222" lon="114.550845">
<time>2016-10-06T09:16:32Z</time></trkpt>
<trkpt lat="23.04643" lon="114.549793">
<time>2016-10-06T09:16:33Z</time></trkpt>
<trkpt lat="23.046688" lon="114.54865">
<time>2016-10-06T09:16:34Z</time></trkpt>
<trkpt lat="23.046826" lon="114.547928">
<time>2016-10-06T09:16:35Z</time></trkpt>
<trkpt lat="23.047054" lon="114.546715">
<time>2016-10-06T09:16:36Z</time></trkpt>
<trkpt lat="23.047113" lon="114.546415">
<time>2016-10-06T09:16:37Z</time></trkpt>
<trkpt lat="23.047321" lon="114.545372">
<time>2016-10-06T09:16:38Z</time></trkpt>
<trkpt lat="23.04737" lon="114.545101">
<time>2016-10-06T09:16:39Z</time></trkpt>
<trkpt lat="23.047509" lon="114.54438">
<time>2016-10-06T09:16:40Z</time></trkpt>
<trkpt lat="23.047726" lon="114.543307">
<time>2016-10-06T09:16:41Z</time></trkpt>
<trkpt lat="23.047944" lon="114.542194">
<time>2016-10-06T09:16:42Z</time></trkpt>
<trkpt lat="23.048082" lon="114.541422">
<time>2016-10-06T09:16:43Z</time></trkpt>
<trkpt lat="23.048122" lon="114.541181">
<time>2016-10-06T09:16:44Z</time></trkpt>
<trkpt lat="23.048249" lon="114.540259">
<time>2016-10-06T09:16:45Z</time></trkpt>
<trkpt lat="23.048298" lon="114.539848">
<time>2016-10-06T09:16:46Z</time></trkpt>
<trkpt lat="23.048328" lon="114.539507">
<time>2016-10-06T09:16:47Z</time></trkpt>
<trkpt lat="23.048328" lon="114.539427">
<time>2016-10-06T09:16:48Z</time></trkpt>
<trkpt lat="23.048347" lon="114.539176">
<time>2016-10-06T09:16:49Z</time></trkpt>
<trkpt lat="23.048376" lon="114.538655">
<time>2016-10-06T09:16:50Z</time></trkpt>
<trkpt lat="23.048395" lon="114.538103">
<time>2016-10-06T09:16:51Z</time></trkpt>
<trkpt lat="23.048393" lon="114.537481">
<time>2016-10-06T09:16:52Z</time></trkpt>
<trkpt lat="23.048371" lon="114.536589">
<time>2016-10-06T09:16:53Z</time></trkpt>
<trkpt lat="23.048328" lon="114.535436">
<time>2016-10-06T09:16:54Z</time></trkpt>
<trkpt lat="23.048297" lon="114.534684">
<time>2016-10-06T09:16:55Z</time></trkpt>
<trkpt lat="23.048265" lon="114.533881">
<time>2016-10-06T09:16:56Z</time></trkpt>
<trkpt lat="23.048254" lon="114.53359">
<time>2016-10-06T09:16:57Z</time></trkpt>
<trkpt lat="23.048221" lon="114.532567">
<time>2016-10-06T09:16:58Z</time></trkpt>
<trkpt lat="23.048189" lon="114.531685">
<time>2016-10-06T09:16:59Z</time></trkpt>
<trkpt lat="23.048168" lon="114.531244">
<time>2016-10-06T09:17:00Z</time></trkpt>
<trkpt lat="23.048157" lon="114.530893">
<time>2016-10-06T09:17:01Z</time></trkpt>
<trkpt lat="23.048146" lon="114.530461">
<time>2016-10-06T09:17:02Z</time></trkpt>
<trkpt lat="23.048093" lon="114.529177">
<time>2016-10-06T09:17:03Z</time></trkpt>
<trkpt lat="23.04805" lon="114.527893">
<time>2016-10-06T09:17:04Z</time></trkpt>
<trkpt lat="23.048039" lon="114.527693">
<time>2016-10-06T09:17:05Z</time></trkpt>
<trkpt lat="23.048017" lon="114.52691">
<time>2016-10-06T09:17:06Z</time></trkpt>
<trkpt lat="23.048006" lon="114.52661">
<time>2016-10-06T09:17:07Z</time></trkpt>
<trkpt lat="23.047985" lon="114.526078">
<time>2016-10-06T09:17:08Z</time></trkpt>
<trkpt lat="23.047942" lon="114.524974">
<time>2016-10-06T09:17:09Z</time></trkpt>
<trkpt lat="23.04792" lon="114.524262">
<time>2016-10-06T09:17:10Z</time></trkpt>
<trkpt lat="23.047898" lon="114.523339">
<time>2016-10-06T09:17:11Z</time></trkpt>
<trkpt lat="23.047896" lon="114.522777">
<time>2016-10-06T09:17:12Z</time></trkpt>
<trkpt lat="23.047904" lon="114.522005">
<time>2016-10-06T09:17:13Z</time></trkpt>
<trkpt lat="23.047922" lon="114.521243">
<time>2016-10-06T09:17:14Z</time></trkpt>
<trkpt lat="23.047941" lon="114.520721">
<time>2016-10-06T09:17:15Z</time></trkpt>
<trkpt lat="23.047979" lon="114.520049">
<time>2016-10-06T09:17:16Z</time></trkpt>
<trkpt lat="23.047979" lon="114.519988">
<time>2016-10-06T09:17:17Z</time></trkpt>
<trkpt lat="23.048027" lon="114.519417">
<time>2016-10-06T09:17:18Z</time></trkpt>
<trkpt lat="23.048065" lon="114.518855">
<time>2016-10-06T09:17:19Z</time></trkpt>
<trkpt lat="23.048114" lon="114.518343">
<time>2016-10-06T09:17:20Z</time></trkpt>
<trkpt lat="23.048153" lon="114.517922">
<time>2016-10-06T09:17:21Z</time></trkpt>
<trkpt lat="23.04827" lon="114.516818">
<time>2016-10-06T09:17:22Z</time></trkpt>
<trkpt lat="23.048357" lon="114.516035">
<time>2016-10-06T09:17:23Z</time></trkpt>
<trkpt lat="23.048435" lon="114.515273">
<time>2016-10-06T09:17:24Z</time></trkpt>
<trkpt lat="23.048445" lon="114.515243">
<time>2016-10-06T09:17:25Z</time></trkpt>
<trkpt lat="23.048542" lon="114.51435">
<time>2016-10-06T09:17:26Z</time></trkpt>
<trkpt lat="23.048552" lon="114.514289">
<time>2016-10-06T09:17:27Z</time></trkpt>
<trkpt lat="23.048649" lon="114.513306">
<time>2016-10-06T09:17:28Z</time></trkpt>
<trkpt lat="23.048815" lon="114.511851">
<time>2016-10-06T09:17:29Z</time></trkpt>
<trkpt lat="23.049049" lon="114.509613">
<time>2016-10-06T09:17:30Z</time></trkpt>
<trkpt lat="23.049107" lon="114.509112">
<time>2016-10-06T09:17:31Z</time></trkpt>
<trkpt lat="23.049176" lon="114.50864">
<time>2016-10-06T09:17:32Z</time></trkpt>
<trkpt lat="23.049264" lon="114.508018">
<time>2016-10-06T09:17:33Z</time></trkpt>
<trkpt lat="23.049441" lon="114.506984">
<time>2016-10-06T09:17:34Z</time></trkpt>
<trkpt lat="23.049529" lon="114.506513">
<time>2016-10-06T09:17:35Z</time></trkpt>
<trkpt lat="23.049766" lon="114.505409">
<time>2016-10-06T09:17:36Z</time></trkpt>
<trkpt lat="23.049993" lon="114.504345">
<time>2016-10-06T09:17:37Z</time></trkpt>
<trkpt lat="23.050288" lon="114.50296">
<time>2016-10-06T09:17:38Z</time></trkpt>
<trkpt lat="23.050476" lon="114.502107">
<time>2016-10-06T09:17:39Z</time></trkpt>
<trkpt lat="23.050594" lon="114.501585">
<time>2016-10-06T09:17:40Z</time></trkpt>
<trkpt lat="23.050919" lon="114.50002">
<time>2016-10-06T09:17:41Z</time></trkpt>
<trkpt lat="23.051077" lon="114.499317">
<time>2016-10-06T09:17:42Z</time></trkpt>
<trkpt lat="23.05157" lon="114.497049">
<time>2016-10-06T09:17:43Z</time></trkpt>
<trkpt lat="23.051896" lon="114.495795">
<time>2016-10-06T09:17:44Z</time></trkpt>
<trkpt lat="23.052163" lon="114.494911">
<time>2016-10-06T09:17:45Z</time></trkpt>
<trkpt lat="23.052371" lon="114.494239">
<time>2016-10-06T09:17:46Z</time></trkpt>
<trkpt lat="23.05253" lon="114.493787">
<time>2016-10-06T09:17:47Z</time></trkpt>
<trkpt lat="23.052778" lon="114.493105">
<time>2016-10-06T09:17:48Z</time></trkpt>
<trkpt lat="23.052946" lon="114.492683">
<time>2016-10-06T09:17:49Z</time></trkpt>
<trkpt lat="23.053284" lon="114.49185">
<time>2016-10-06T09:17:50Z</time></trkpt>
<trkpt lat="23.053532" lon="114.491278">
<time>2016-10-06T09:17:51Z</time></trkpt>
<trkpt lat="23.05387" lon="114.490536">
<time>2016-10-06T09:17:52Z</time></trkpt>
<trkpt lat="23.054337" lon="114.489612">
<time>2016-10-06T09:17:53Z</time></trkpt>
<trkpt lat="23.054834" lon="114.488689">
<time>2016-10-06T09:17:54Z</time></trkpt>
<trkpt lat="23.055361" lon="114.487796">
<time>2016-10-06T09:17:55Z</time></trkpt>
<trkpt lat="23.055878" lon="114.486973">
<time>2016-10-06T09:17:56Z</time></trkpt>
<trkpt lat="23.056346" lon="114.48627">
<time>2016-10-06T09:17:57Z</time></trkpt>
<trkpt lat="23.056714" lon="114.485738">
<time>2016-10-06T09:17:58Z</time></trkpt>
<trkpt lat="23.05765" lon="114.484474">
<time>2016-10-06T09:17:59Z</time></trkpt>
<trkpt lat="23.057859" lon="114.484193">
<time>2016-10-06T09:18:00Z</time></trkpt>
<trkpt lat="23.057899" lon="114.484143">
<time>2016-10-06T09:18:01Z</time></trkpt>
<trkpt lat="23.058865" lon="114.482858">
<time>2016-10-06T09:18:02Z</time></trkpt>
<trkpt lat="23.05985" lon="114.481543">
<time>2016-10-06T09:18:03Z</time></trkpt>
<trkpt lat="23.05989" lon="114.481493">
<time>2016-10-06T09:18:04Z</time></trkpt>
<trkpt lat="23.060557" lon="114.48059">
<time>2016-10-06T09:18:05Z</time></trkpt>
<trkpt lat="23.061204" lon="114.479717">
<time>2016-10-06T09:18:06Z</time></trkpt>
<trkpt lat="23.061981" lon="114.478693">
<time>2016-10-06T09:18:07Z</time></trkpt>
<trkpt lat="23.062638" lon="114.47782">
<time>2016-10-06T09:18:08Z</time></trkpt>
<trkpt lat="23.063047" lon="114.477319">
<time>2016-10-06T09:18:09Z</time></trkpt>
<trkpt lat="23.063485" lon="114.476817">
<time>2016-10-06T09:18:10Z</time></trkpt>
<trkpt lat="23.064262" lon="114.475974">
<time>2016-10-06T09:18:11Z</time></trkpt>
<trkpt lat="23.06482" lon="114.475392">
<time>2016-10-06T09:18:12Z</time></trkpt>
<trkpt lat="23.065857" lon="114.474298">
<time>2016-10-06T09:18:13Z</time></trkpt>
<trkpt lat="23.066694" lon="114.473415">
<time>2016-10-06T09:18:14Z</time></trkpt>
<trkpt lat="23.067611" lon="114.472442">
<time>2016-10-06T09:18:15Z</time></trkpt>
<trkpt lat="23.06791" lon="114.472131">
<time>2016-10-06T09:18:16Z</time></trkpt>
<trkpt lat="23.068209" lon="114.471819">
<time>2016-10-06T09:18:17Z</time></trkpt>
<trkpt lat="23.068607" lon="114.471378">
<time>2016-10-06T09:18:18Z</time></trkpt>
<trkpt lat="23.068866" lon="114.471067">
<time>2016-10-06T09:18:19Z</time></trkpt>
<trkpt lat="23.069125" lon="114.470746">
<time>2016-10-06T09:18:20Z</time></trkpt>
<trkpt lat="23.069414" lon="114.470364">
<time>2016-10-06T09:18:21Z</time></trkpt>
<trkpt lat="23.069743" lon="114.469863">
<time>2016-10-06T09:18:22Z</time></trkpt>
<trkpt lat="23.070051" lon="114.469371">
<time>2016-10-06T09:18:23Z</time></trkpt>
<trkpt lat="23.07026" lon="114.46904">
<time>2016-10-06T09:18:24Z</time></trkpt>
<trkpt lat="23.071196" lon="114.467545">
<time>2016-10-06T09:18:25Z</time></trkpt>
<trkpt lat="23.071683" lon="114.466742">
<time>2016-10-06T09:18:26Z</time></trkpt>
<trkpt lat="23.072291" lon="114.465749">
<time>2016-10-06T09:18:27Z</time></trkpt>
<trkpt lat="23.072808" lon="114.464947">
<time>2016-10-06T09:18:28Z</time></trkpt>
<trkpt lat="23.073824" lon="114.463472">
<time>2016-10-06T09:18:29Z</time></trkpt>
<trkpt lat="23.074621" lon="114.462338">
<time>2016-10-06T09:18:30Z</time></trkpt>
<trkpt lat="23.075029" lon="114.461726">
<time>2016-10-06T09:18:31Z</time></trkpt>
<trkpt lat="23.075447" lon="114.461114">
<time>2016-10-06T09:18:32Z</time></trkpt>
<trkpt lat="23.076134" lon="114.459971">
<time>2016-10-06T09:18:33Z</time></trkpt>
<trkpt lat="23.076582" lon="114.459178">
<time>2016-10-06T09:18:34Z</time></trkpt>
<trkpt lat="23.076831" lon="114.458737">
<time>2016-10-06T09:18:35Z</time></trkpt>
<trkpt lat="23.077776" lon="114.457072">
<time>2016-10-06T09:18:36Z</time></trkpt>
<trkpt lat="23.078373" lon="114.455989">
<time>2016-10-06T09:18:37Z</time></trkpt>
<trkpt lat="23.078532" lon="114.455688">
<time>2016-10-06T09:18:38Z</time></trkpt>
<trkpt lat="23.078572" lon="114.455587">
<time>2016-10-06T09:18:39Z</time></trkpt>
<trkpt lat="23.078612" lon="114.455517">
<time>2016-10-06T09:18:40Z</time></trkpt>
<trkpt lat="23.07901" lon="114.454845">
<time>2016-10-06T09:18:41Z</time></trkpt>
<trkpt lat="23.079438" lon="114.454133">
<time>2016-10-06T09:18:42Z</time></trkpt>
<trkpt lat="23.079697" lon="114.453742">
<time>2016-10-06T09:18:43Z</time></trkpt>
<trkpt lat="23.079877" lon="114.453501">
<time>2016-10-06T09:18:44Z</time></trkpt>
<trkpt lat="23.079937" lon="114.453431">
<time>2016-10-06T09:18:45Z</time></trkpt>
<trkpt lat="23.080126" lon="114.45319">
<time>2016-10-06T09:18:46Z</time></trkpt>
<trkpt lat="23.080146" lon="114.45316">
<time>2016-10-06T09:18:47Z</time></trkpt>
<trkpt lat="23.080236" lon="114.45305">
<time>2016-10-06T09:18:48Z</time></trkpt>
<trkpt lat="23.080305" lon="114.45297">
<time>2016-10-06T09:18:49Z</time></trkpt>
<trkpt lat="23.080375" lon="114.452899">
<time>2016-10-06T09:18:50Z</time></trkpt>
<trkpt lat="23.080654" lon="114.452588">
<time>2016-10-06T09:18:51Z</time></trkpt>
<trkpt lat="23.081163" lon="114.452087">
<time>2016-10-06T09:18:52Z</time></trkpt>
<trkpt lat="23.081642" lon="114.451606">
<time>2016-10-06T09:18:53Z</time></trkpt>
<trkpt lat="23.08234" lon="114.450924">
<time>2016-10-06T09:18:54Z</time></trkpt>
<trkpt lat="23.083118" lon="114.450121">
<time>2016-10-06T09:18:55Z</time></trkpt>
<trkpt lat="23.083347" lon="114.449881">
<time>2016-10-06T09:18:56Z</time></trkpt>
<trkpt lat="23.083965" lon="114.449249">
<time>2016-10-06T09:18:57Z</time></trkpt>
<trkpt lat="23.084614" lon="114.448577">
<time>2016-10-06T09:18:58Z</time></trkpt>
<trkpt lat="23.085242" lon="114.447935">
<time>2016-10-06T09:18:59Z</time></trkpt>
<trkpt lat="23.085392" lon="114.447785">
<time>2016-10-06T09:19:00Z</time></trkpt>
<trkpt lat="23.085531" lon="114.447614">
<time>2016-10-06T09:19:01Z</time></trkpt>
<trkpt lat="23.085601" lon="114.447524">
<time>2016-10-06T09:19:02Z</time></trkpt>
<trkpt lat="23.085711" lon="114.447384">
<time>2016-10-06T09:19:03Z</time></trkpt>
<trkpt lat="23.08587" lon="114.447203">
<time>2016-10-06T09:19:04Z</time></trkpt>
<trkpt lat="23.08613" lon="114.446933">
<time>2016-10-06T09:19:05Z</time></trkpt>
<trkpt lat="23.086868" lon="114.44617">
<time>2016-10-06T09:19:06Z</time></trkpt>
<trkpt lat="23.087636" lon="114.445398">
<time>2016-10-06T09:19:07Z</time></trkpt>
<trkpt lat="23.088114" lon="114.444877">
<time>2016-10-06T09:19:08Z</time></trkpt>
<trkpt lat="23.088593" lon="114.444386">
<time>2016-10-06T09:19:09Z</time></trkpt>
<trkpt lat="23.089062" lon="114.443914">
<time>2016-10-06T09:19:10Z</time></trkpt>
<trkpt lat="23.089202" lon="114.443754">
<time>2016-10-06T09:19:11Z</time></trkpt>
<trkpt lat="23.089301" lon="114.443634">
<time>2016-10-06T09:19:12Z</time></trkpt>
<trkpt lat="23.089531" lon="114.443343">
<time>2016-10-06T09:19:13Z</time></trkpt>
<trkpt lat="23.08968" lon="114.443132">
<time>2016-10-06T09:19:14Z</time></trkpt>
<trkpt lat="23.0898" lon="114.442942">
<time>2016-10-06T09:19:15Z</time></trkpt>
<trkpt lat="23.089959" lon="114.442661">
<time>2016-10-06T09:19:16Z</time></trkpt>
<trkpt lat="23.090039" lon="114.442481">
<time>2016-10-06T09:19:17Z</time></trkpt>
<trkpt lat="23.090178" lon="114.44219">
<time>2016-10-06T09:19:18Z</time></trkpt>
<trkpt lat="23.090288" lon="114.441919">
<time>2016-10-06T09:19:19Z</time></trkpt>
<trkpt lat="23.090317" lon="114.441839">
<time>2016-10-06T09:19:20Z</time></trkpt>
<trkpt lat="23.090367" lon="114.441659">
<time>2016-10-06T09:19:21Z</time></trkpt>
<trkpt lat="23.090486" lon="114.441228">
<time>2016-10-06T09:19:22Z</time></trkpt>
<trkpt lat="23.090536" lon="114.441007">
<time>2016-10-06T09:19:23Z</time></trkpt>
<trkpt lat="23.090575" lon="114.440797">
<time>2016-10-06T09:19:24Z</time></trkpt>
<trkpt lat="23.090615" lon="114.440556">
<time>2016-10-06T09:19:25Z</time></trkpt>
<trkpt lat="23.090694" lon="114.439854">
<time>2016-10-06T09:19:26Z</time></trkpt>
<trkpt lat="23.090782" lon="114.439103">
<time>2016-10-06T09:19:27Z</time></trkpt>
<trkpt lat="23.090881" lon="114.4382">
<time>2016-10-06T09:19:28Z</time></trkpt>
<trkpt lat="23.091028" lon="114.436817">
<time>2016-10-06T09:19:29Z</time></trkpt>
<trkpt lat="23.091254" lon="114.434783">
<time>2016-10-06T09:19:30Z</time></trkpt>
<trkpt lat="23.091264" lon="114.434703">
<time>2016-10-06T09:19:31Z</time></trkpt>
<trkpt lat="23.091442" lon="114.432989">
<time>2016-10-06T09:19:32Z</time></trkpt>
<trkpt lat="23.091441" lon="114.432899">
<time>2016-10-06T09:19:33Z</time></trkpt>
<trkpt lat="23.091451" lon="114.432829">
<time>2016-10-06T09:19:34Z</time></trkpt>
<trkpt lat="23.091708" lon="114.430544">
<time>2016-10-06T09:19:35Z</time></trkpt>
<trkpt lat="23.091846" lon="114.429351">
<time>2016-10-06T09:19:36Z</time></trkpt>
<trkpt lat="23.091866" lon="114.429291">
<time>2016-10-06T09:19:37Z</time></trkpt>
<trkpt lat="23.091925" lon="114.428871">
<time>2016-10-06T09:19:38Z</time></trkpt>
<trkpt lat="23.091994" lon="114.428309">
<time>2016-10-06T09:19:39Z</time></trkpt>
<trkpt lat="23.092083" lon="114.427608">
<time>2016-10-06T09:19:40Z</time></trkpt>
<trkpt lat="23.092212" lon="114.426596">
<time>2016-10-06T09:19:41Z</time></trkpt>
<trkpt lat="23.092232" lon="114.426396">
<time>2016-10-06T09:19:42Z</time></trkpt>
<trkpt lat="23.092242" lon="114.426326">
<time>2016-10-06T09:19:43Z</time></trkpt>
<trkpt lat="23.092271" lon="114.426175">
<time>2016-10-06T09:19:44Z</time></trkpt>
<trkpt lat="23.092301" lon="114.425975">
<time>2016-10-06T09:19:45Z</time></trkpt>
<trkpt lat="23.092361" lon="114.425685">
<time>2016-10-06T09:19:46Z</time></trkpt>
<trkpt lat="23.09247" lon="114.425324">
<time>2016-10-06T09:19:47Z</time></trkpt>
<trkpt lat="23.09252" lon="114.425194">
<time>2016-10-06T09:19:48Z</time></trkpt>
<trkpt lat="23.09257" lon="114.425053">
<time>2016-10-06T09:19:49Z</time></trkpt>
<trkpt lat="23.0926" lon="114.425003">
<time>2016-10-06T09:19:50Z</time></trkpt>
<trkpt lat="23.09266" lon="114.424853">
<time>2016-10-06T09:19:51Z</time></trkpt>
<trkpt lat="23.092759" lon="114.424653">
<time>2016-10-06T09:19:52Z</time></trkpt>
<trkpt lat="23.092979" lon="114.424272">
<time>2016-10-06T09:19:53Z</time></trkpt>
<trkpt lat="23.093039" lon="114.424172">
<time>2016-10-06T09:19:54Z</time></trkpt>
<trkpt lat="23.093088" lon="114.424062">
<time>2016-10-06T09:19:55Z</time></trkpt>
<trkpt lat="23.093098" lon="114.423992">
<time>2016-10-06T09:19:56Z</time></trkpt>
<trkpt lat="23.093348" lon="114.423781">
<time>2016-10-06T09:19:57Z</time></trkpt>
<trkpt lat="23.093648" lon="114.423551">
<time>2016-10-06T09:19:58Z</time></trkpt>
<trkpt lat="23.094067" lon="114.42317">
<time>2016-10-06T09:19:59Z</time></trkpt>
<trkpt lat="23.094207" lon="114.42301">
<time>2016-10-06T09:20:00Z</time></trkpt>
<trkpt lat="23.094766" lon="114.422519">
<time>2016-10-06T09:20:01Z</time></trkpt>
<trkpt lat="23.095006" lon="114.422329">
<time>2016-10-06T09:20:02Z</time></trkpt>
<trkpt lat="23.095076" lon="114.422269">
<time>2016-10-06T09:20:03Z</time></trkpt>
<trkpt lat="23.096434" lon="114.421177">
<time>2016-10-06T09:20:04Z</time></trkpt>
<trkpt lat="23.097263" lon="114.420516">
<time>2016-10-06T09:20:05Z</time></trkpt>
<trkpt lat="23.098182" lon="114.419774">
<time>2016-10-06T09:20:06Z</time></trkpt>
<trkpt lat="23.098611" lon="114.419434">
<time>2016-10-06T09:20:07Z</time></trkpt>
<trkpt lat="23.09937" lon="114.418823">
<time>2016-10-06T09:20:08Z</time></trkpt>
<trkpt lat="23.099959" lon="114.418362">
<time>2016-10-06T09:20:09Z</time></trkpt>
<trkpt lat="23.099999" lon="114.418322">
<time>2016-10-06T09:20:10Z</time></trkpt>
<trkpt lat="23.100109" lon="114.418242">
<time>2016-10-06T09:20:11Z</time></trkpt>
<trkpt lat="23.100599" lon="114.417852">
<time>2016-10-06T09:20:12Z</time></trkpt>
<trkpt lat="23.101418" lon="114.417221">
<time>2016-10-06T09:20:13Z</time></trkpt>
<trkpt lat="23.101907" lon="114.41686">
<time>2016-10-06T09:20:14Z</time></trkpt>
<trkpt lat="23.102237" lon="114.41661">
<time>2016-10-06T09:20:15Z</time></trkpt>
<trkpt lat="23.102397" lon="114.41651">
<time>2016-10-06T09:20:16Z</time></trkpt>
<trkpt lat="23.102677" lon="114.416349">
<time>2016-10-06T09:20:17Z</time></trkpt>
<trkpt lat="23.102856" lon="114.416259">
<time>2016-10-06T09:20:18Z</time></trkpt>
<trkpt lat="23.102986" lon="114.416219">
<time>2016-10-06T09:20:19Z</time></trkpt>
<trkpt lat="23.103066" lon="114.416189">
<time>2016-10-06T09:20:20Z</time></trkpt>
<trkpt lat="23.103066" lon="114.416189">
<time>2016-10-06T09:20:21Z</time></trkpt>
<trkpt lat="23.103076" lon="114.415999">
<time>2016-10-06T09:20:22Z</time></trkpt>
<trkpt lat="23.103076" lon="114.415438">
<time>2016-10-06T09:20:23Z</time></trkpt>
<trkpt lat="23.103075" lon="114.415278">
<time>2016-10-06T09:20:24Z</time></trkpt>
<trkpt lat="23.103085" lon="114.414867">
<time>2016-10-06T09:20:25Z</time></trkpt>
<trkpt lat="23.103114" lon="114.413996">
<time>2016-10-06T09:20:26Z</time></trkpt>
<trkpt lat="23.103144" lon="114.413095">
<time>2016-10-06T09:20:27Z</time></trkpt>
<trkpt lat="23.103154" lon="114.412935">
<time>2016-10-06T09:20:28Z</time></trkpt>
<trkpt lat="23.103164" lon="114.412845">
<time>2016-10-06T09:20:29Z</time></trkpt>
<trkpt lat="23.103184" lon="114.412725">
<time>2016-10-06T09:20:30Z</time></trkpt>
<trkpt lat="23.103203" lon="114.412645">
<time>2016-10-06T09:20:31Z</time></trkpt>
<trkpt lat="23.103223" lon="114.412544">
<time>2016-10-06T09:20:32Z</time></trkpt>
<trkpt lat="23.103243" lon="114.412464">
<time>2016-10-06T09:20:33Z</time></trkpt>
<trkpt lat="23.103273" lon="114.412364">
<time>2016-10-06T09:20:34Z</time></trkpt>
<trkpt lat="23.103313" lon="114.412264">
<time>2016-10-06T09:20:35Z</time></trkpt>
<trkpt lat="23.103383" lon="114.412094">
<time>2016-10-06T09:20:36Z</time></trkpt>
<trkpt lat="23.103463" lon="114.411914">
<time>2016-10-06T09:20:37Z</time></trkpt>
<trkpt lat="23.103513" lon="114.411824">
<time>2016-10-06T09:20:38Z</time></trkpt>
<trkpt lat="23.103593" lon="114.411653">
<time>2016-10-06T09:20:39Z</time></trkpt>
<trkpt lat="23.103682" lon="114.411493">
<time>2016-10-06T09:20:40Z</time></trkpt>
<trkpt lat="23.103772" lon="114.411333">
<time>2016-10-06T09:20:41Z</time></trkpt>
<trkpt lat="23.103872" lon="114.411163">
<time>2016-10-06T09:20:42Z</time></trkpt>
<trkpt lat="23.103932" lon="114.411053">
<time>2016-10-06T09:20:43Z</time></trkpt>
<trkpt lat="23.104032" lon="114.410913">
<time>2016-10-06T09:20:44Z</time></trkpt>
<trkpt lat="23.104092" lon="114.410812">
<time>2016-10-06T09:20:45Z</time></trkpt>
<trkpt lat="23.104192" lon="114.410692">
<time>2016-10-06T09:20:46Z</time></trkpt>
<trkpt lat="23.104302" lon="114.410542">
<time>2016-10-06T09:20:47Z</time></trkpt>
<trkpt lat="23.104402" lon="114.410422">
<time>2016-10-06T09:20:48Z</time></trkpt>
<trkpt lat="23.104461" lon="114.410352">
<time>2016-10-06T09:20:49Z</time></trkpt>
<trkpt lat="23.104511" lon="114.410292">
<time>2016-10-06T09:20:50Z</time></trkpt>
<trkpt lat="23.104611" lon="114.410192">
<time>2016-10-06T09:20:51Z</time></trkpt>
<trkpt lat="23.104731" lon="114.410072">
<time>2016-10-06T09:20:52Z</time></trkpt>
<trkpt lat="23.104891" lon="114.409921">
<time>2016-10-06T09:20:53Z</time></trkpt>
<trkpt lat="23.105001" lon="114.409811">
<time>2016-10-06T09:20:54Z</time></trkpt>
<trkpt lat="23.105091" lon="114.409741">
<time>2016-10-06T09:20:55Z</time></trkpt>
<trkpt lat="23.105241" lon="114.409611">
<time>2016-10-06T09:20:56Z</time></trkpt>
<trkpt lat="23.10559" lon="114.409341">
<time>2016-10-06T09:20:57Z</time></trkpt>
<trkpt lat="23.10571" lon="114.409251">
<time>2016-10-06T09:20:58Z</time></trkpt>
<trkpt lat="23.10577" lon="114.409191">
<time>2016-10-06T09:20:59Z</time></trkpt>
<trkpt lat="23.10611" lon="114.40891">
<time>2016-10-06T09:21:00Z</time></trkpt>
<trkpt lat="23.10654" lon="114.40855">
<time>2016-10-06T09:21:01Z</time></trkpt>
<trkpt lat="23.106829" lon="114.40832">
<time>2016-10-06T09:21:02Z</time></trkpt>
<trkpt lat="23.106869" lon="114.4083">
<time>2016-10-06T09:21:03Z</time></trkpt>
<trkpt lat="23.106919" lon="114.40826">
<time>2016-10-06T09:21:04Z</time></trkpt>
<trkpt lat="23.107279" lon="114.407949">
<time>2016-10-06T09:21:05Z</time></trkpt>
<trkpt lat="23.107889" lon="114.407479">
<time>2016-10-06T09:21:06Z</time></trkpt>
<trkpt lat="23.108258" lon="114.407189">
<time>2016-10-06T09:21:07Z</time></trkpt>
<trkpt lat="23.108328" lon="114.407128">
<time>2016-10-06T09:21:08Z</time></trkpt>
<trkpt lat="23.108478" lon="114.407008">
<time>2016-10-06T09:21:09Z</time></trkpt>
<trkpt lat="23.108948" lon="114.406608">
<time>2016-10-06T09:21:10Z</time></trkpt>
<trkpt lat="23.108948" lon="114.406608">
<time>2016-10-06T09:21:11Z</time></trkpt>
<trkpt lat="23.109038" lon="114.406518">
<time>2016-10-06T09:21:12Z</time></trkpt>
<trkpt lat="23.109447" lon="114.406108">
<time>2016-10-06T09:21:13Z</time></trkpt>
<trkpt lat="23.109627" lon="114.405917">
<time>2016-10-06T09:21:14Z</time></trkpt>
<trkpt lat="23.109687" lon="114.405857">
<time>2016-10-06T09:21:15Z</time></trkpt>
<trkpt lat="23.109727" lon="114.405817">
<time>2016-10-06T09:21:16Z</time></trkpt>
<trkpt lat="23.111206" lon="114.404306">
<time>2016-10-06T09:21:17Z</time></trkpt>
<trkpt lat="23.111935" lon="114.403575">
<time>2016-10-06T09:21:18Z</time></trkpt>
<trkpt lat="23.112255" lon="114.403245">
<time>2016-10-06T09:21:19Z</time></trkpt>
<trkpt lat="23.112315" lon="114.403185">
<time>2016-10-06T09:21:20Z</time></trkpt>
<trkpt lat="23.112365" lon="114.403125">
<time>2016-10-06T09:21:21Z</time></trkpt>
<trkpt lat="23.112415" lon="114.403075">
<time>2016-10-06T09:21:22Z</time></trkpt>
<trkpt lat="23.112815" lon="114.402665">
<time>2016-10-06T09:21:23Z</time></trkpt>
<trkpt lat="23.114164" lon="114.401284">
<time>2016-10-06T09:21:24Z</time></trkpt>
<trkpt lat="23.114864" lon="114.400573">
<time>2016-10-06T09:21:25Z</time></trkpt>
<trkpt lat="23.115183" lon="114.400273">
<time>2016-10-06T09:21:26Z</time></trkpt>
<trkpt lat="23.115183" lon="114.400273">
<time>2016-10-06T09:21:27Z</time></trkpt>
<trkpt lat="23.115283" lon="114.400173">
<time>2016-10-06T09:21:28Z</time></trkpt>
<trkpt lat="23.115863" lon="114.399652">
<time>2016-10-06T09:21:29Z</time></trkpt>
<trkpt lat="23.119272" lon="114.396491">
<time>2016-10-06T09:21:30Z</time></trkpt>
<trkpt lat="23.119891" lon="114.39593">
<time>2016-10-06T09:21:31Z</time></trkpt>
<trkpt lat="23.120191" lon="114.39567">
<time>2016-10-06T09:21:32Z</time></trkpt>
<trkpt lat="23.120521" lon="114.39541">
<time>2016-10-06T09:21:33Z</time></trkpt>
<trkpt lat="23.121091" lon="114.39499">
<time>2016-10-06T09:21:34Z</time></trkpt>
<trkpt lat="23.121431" lon="114.39475">
<time>2016-10-06T09:21:35Z</time></trkpt>
<trkpt lat="23.121631" lon="114.39462">
<time>2016-10-06T09:21:36Z</time></trkpt>
<trkpt lat="23.121761" lon="114.39454">
<time>2016-10-06T09:21:37Z</time></trkpt>
<trkpt lat="23.122101" lon="114.39433">
<time>2016-10-06T09:21:38Z</time></trkpt>
<trkpt lat="23.12241" lon="114.39415">
<time>2016-10-06T09:21:39Z</time></trkpt>
<trkpt lat="23.12257" lon="114.39407">
<time>2016-10-06T09:21:40Z</time></trkpt>
<trkpt lat="23.12272" lon="114.39399">
<time>2016-10-06T09:21:41Z</time></trkpt>
<trkpt lat="23.1231" lon="114.3938">
<time>2016-10-06T09:21:42Z</time></trkpt>
<trkpt lat="23.12329" lon="114.393709">
<time>2016-10-06T09:21:43Z</time></trkpt>
<trkpt lat="23.12367" lon="114.393549">
<time>2016-10-06T09:21:44Z</time></trkpt>
<trkpt lat="23.12408" lon="114.393379">
<time>2016-10-06T09:21:45Z</time></trkpt>
<trkpt lat="23.12447" lon="114.393229">
<time>2016-10-06T09:21:46Z</time></trkpt>
<trkpt lat="23.1249" lon="114.393079">
<time>2016-10-06T09:21:47Z</time></trkpt>
<trkpt lat="23.126639" lon="114.392529">
<time>2016-10-06T09:21:48Z</time></trkpt>
<trkpt lat="23.126979" lon="114.392419">
<time>2016-10-06T09:21:49Z</time></trkpt>
<trkpt lat="23.127169" lon="114.392369">
<time>2016-10-06T09:21:50Z</time></trkpt>
<trkpt lat="23.127379" lon="114.392299">
<time>2016-10-06T09:21:51Z</time></trkpt>
<trkpt lat="23.127399" lon="114.392299">
<time>2016-10-06T09:21:52Z</time></trkpt>
<trkpt lat="23.127459" lon="114.392279">
<time>2016-10-06T09:21:53Z</time></trkpt>
<trkpt lat="23.127599" lon="114.392239">
<time>2016-10-06T09:21:54Z</time></trkpt>
<trkpt lat="23.127859" lon="114.392179">
<time>2016-10-06T09:21:55Z</time></trkpt>
<trkpt lat="23.128118" lon="114.392119">
<time>2016-10-06T09:21:56Z</time></trkpt>
<trkpt lat="23.128478" lon="114.392039">
<time>2016-10-06T09:21:57Z</time></trkpt>
<trkpt lat="23.129188" lon="114.391899">
<time>2016-10-06T09:21:58Z</time></trkpt>
<trkpt lat="23.129348" lon="114.391869">
<time>2016-10-06T09:21:59Z</time></trkpt>
<trkpt lat="23.129488" lon="114.391839">
<time>2016-10-06T09:22:00Z</time></trkpt>
<trkpt lat="23.129808" lon="114.391759">
<time>2016-10-06T09:22:01Z</time></trkpt>
<trkpt lat="23.130078" lon="114.391689">
<time>2016-10-06T09:22:02Z</time></trkpt>
<trkpt lat="23.130388" lon="114.391589">
<time>2016-10-06T09:22:03Z</time></trkpt>
<trkpt lat="23.130578" lon="114.391518">
<time>2016-10-06T09:22:04Z</time></trkpt>
<trkpt lat="23.130738" lon="114.391458">
<time>2016-10-06T09:22:05Z</time></trkpt>
<trkpt lat="23.130908" lon="114.391398">
<time>2016-10-06T09:22:06Z</time></trkpt>
<trkpt lat="23.131087" lon="114.391318">
<time>2016-10-06T09:22:07Z</time></trkpt>
<trkpt lat="23.131207" lon="114.391268">
<time>2016-10-06T09:22:08Z</time></trkpt>
<trkpt lat="23.131267" lon="114.391248">
<time>2016-10-06T09:22:09Z</time></trkpt>
<trkpt lat="23.131537" lon="114.391118">
<time>2016-10-06T09:22:10Z</time></trkpt>
<trkpt lat="23.131697" lon="114.391038">
<time>2016-10-06T09:22:11Z</time></trkpt>
<trkpt lat="23.131867" lon="114.390938">
<time>2016-10-06T09:22:12Z</time></trkpt>
<trkpt lat="23.132007" lon="114.390858">
<time>2016-10-06T09:22:13Z</time></trkpt>
<trkpt lat="23.132207" lon="114.390748">
<time>2016-10-06T09:22:14Z</time></trkpt>
<trkpt lat="23.132237" lon="114.390728">
<time>2016-10-06T09:22:15Z</time></trkpt>
<trkpt lat="23.132597" lon="114.390498">
<time>2016-10-06T09:22:16Z</time></trkpt>
<trkpt lat="23.133087" lon="114.390148">
<time>2016-10-06T09:22:17Z</time></trkpt>
<trkpt lat="23.133287" lon="114.390008">
<time>2016-10-06T09:22:18Z</time></trkpt>
<trkpt lat="23.133507" lon="114.389838">
<time>2016-10-06T09:22:19Z</time></trkpt>
<trkpt lat="23.133727" lon="114.389668">
<time>2016-10-06T09:22:20Z</time></trkpt>
<trkpt lat="23.134007" lon="114.389458">
<time>2016-10-06T09:22:21Z</time></trkpt>
<trkpt lat="23.134417" lon="114.389168">
<time>2016-10-06T09:22:22Z</time></trkpt>
<trkpt lat="23.134907" lon="114.388848">
<time>2016-10-06T09:22:23Z</time></trkpt>
<trkpt lat="23.135697" lon="114.388338">
<time>2016-10-06T09:22:24Z</time></trkpt>
<trkpt lat="23.137786" lon="114.387038">
<time>2016-10-06T09:22:25Z</time></trkpt>
<trkpt lat="23.138066" lon="114.386858">
<time>2016-10-06T09:22:26Z</time></trkpt>
<trkpt lat="23.140016" lon="114.385638">
<time>2016-10-06T09:22:27Z</time></trkpt>
<trkpt lat="23.140016" lon="114.385638">
<time>2016-10-06T09:22:28Z</time></trkpt>
<trkpt lat="23.139926" lon="114.385478">
<time>2016-10-06T09:22:29Z</time></trkpt>
<trkpt lat="23.139926" lon="114.385478">
<time>2016-10-06T09:22:30Z</time></trkpt>
<trkpt lat="23.140636" lon="114.385038">
<time>2016-10-06T09:22:31Z</time></trkpt>
<trkpt lat="23.141516" lon="114.384478">
<time>2016-10-06T09:22:32Z</time></trkpt>
<trkpt lat="23.141886" lon="114.384258">
<time>2016-10-06T09:22:33Z</time></trkpt>
<trkpt lat="23.142986" lon="114.383508">
<time>2016-10-06T09:22:34Z</time></trkpt>
<trkpt lat="23.143356" lon="114.383228">
<time>2016-10-06T09:22:35Z</time></trkpt>
<trkpt lat="23.143546" lon="114.383088">
<time>2016-10-06T09:22:36Z</time></trkpt>
<trkpt lat="23.143676" lon="114.382978">
<time>2016-10-06T09:22:37Z</time></trkpt>
<trkpt lat="23.143806" lon="114.382878">
<time>2016-10-06T09:22:38Z</time></trkpt>
<trkpt lat="23.143986" lon="114.382738">
<time>2016-10-06T09:22:39Z</time></trkpt>
<trkpt lat="23.144206" lon="114.382548">
<time>2016-10-06T09:22:40Z</time></trkpt>
<trkpt lat="23.144436" lon="114.382348">
<time>2016-10-06T09:22:41Z</time></trkpt>
<trkpt lat="23.144766" lon="114.382058">
<time>2016-10-06T09:22:42Z</time></trkpt>
<trkpt lat="23.145036" lon="114.381798">
<time>2016-10-06T09:22:43Z</time></trkpt>
<trkpt lat="23.145096" lon="114.381738">
<time>2016-10-06T09:22:44Z</time></trkpt>
<trkpt lat="23.145456" lon="114.381388">
<time>2016-10-06T09:22:45Z</time></trkpt>
<trkpt lat="23.145796" lon="114.381028">
<time>2016-10-06T09:22:46Z</time></trkpt>
<trkpt lat="23.146077" lon="114.380738">
<time>2016-10-06T09:22:47Z</time></trkpt>
<trkpt lat="23.146307" lon="114.380478">
<time>2016-10-06T09:22:48Z</time></trkpt>
<trkpt lat="23.146617" lon="114.380118">
<time>2016-10-06T09:22:49Z</time></trkpt>
<trkpt lat="23.146867" lon="114.379808">
<time>2016-10-06T09:22:50Z</time></trkpt>
<trkpt lat="23.147117" lon="114.379478">
<time>2016-10-06T09:22:51Z</time></trkpt>
<trkpt lat="23.147307" lon="114.379238">
<time>2016-10-06T09:22:52Z</time></trkpt>
<trkpt lat="23.147477" lon="114.379008">
<time>2016-10-06T09:22:53Z</time></trkpt>
<trkpt lat="23.147637" lon="114.378788">
<time>2016-10-06T09:22:54Z</time></trkpt>
<trkpt lat="23.147797" lon="114.378559">
<time>2016-10-06T09:22:55Z</time></trkpt>
<trkpt lat="23.148118" lon="114.378079">
<time>2016-10-06T09:22:56Z</time></trkpt>
<trkpt lat="23.148278" lon="114.377829">
<time>2016-10-06T09:22:57Z</time></trkpt>
<trkpt lat="23.148378" lon="114.377679">
<time>2016-10-06T09:22:58Z</time></trkpt>
<trkpt lat="23.148418" lon="114.377599">
<time>2016-10-06T09:22:59Z</time></trkpt>
<trkpt lat="23.148488" lon="114.377489">
<time>2016-10-06T09:23:00Z</time></trkpt>
<trkpt lat="23.148588" lon="114.377319">
<time>2016-10-06T09:23:01Z</time></trkpt>
<trkpt lat="23.148698" lon="114.377129">
<time>2016-10-06T09:23:02Z</time></trkpt>
<trkpt lat="23.148778" lon="114.376999">
<time>2016-10-06T09:23:03Z</time></trkpt>
<trkpt lat="23.148808" lon="114.376939">
<time>2016-10-06T09:23:04Z</time></trkpt>
<trkpt lat="23.148838" lon="114.376889">
<time>2016-10-06T09:23:05Z</time></trkpt>
<trkpt lat="23.149069" lon="114.376489">
<time>2016-10-06T09:23:06Z</time></trkpt>
<trkpt lat="23.149479" lon="114.37566">
<time>2016-10-06T09:23:07Z</time></trkpt>
<trkpt lat="23.149599" lon="114.3754">
<time>2016-10-06T09:23:08Z</time></trkpt>
<trkpt lat="23.14979" lon="114.375">
<time>2016-10-06T09:23:09Z</time></trkpt>
<trkpt lat="23.15001" lon="114.37448">
<time>2016-10-06T09:23:10Z</time></trkpt>
<trkpt lat="23.15024" lon="114.37389">
<time>2016-10-06T09:23:11Z</time></trkpt>
<trkpt lat="23.150461" lon="114.373271">
<time>2016-10-06T09:23:12Z</time></trkpt>
<trkpt lat="23.150692" lon="114.372581">
<time>2016-10-06T09:23:13Z</time></trkpt>
<trkpt lat="23.150822" lon="114.372141">
<time>2016-10-06T09:23:14Z</time></trkpt>
<trkpt lat="23.150962" lon="114.371652">
<time>2016-10-06T09:23:15Z</time></trkpt>
<trkpt lat="23.151093" lon="114.371082">
<time>2016-10-06T09:23:16Z</time></trkpt>
<trkpt lat="23.151213" lon="114.370582">
<time>2016-10-06T09:23:17Z</time></trkpt>
<trkpt lat="23.151304" lon="114.370123">
<time>2016-10-06T09:23:18Z</time></trkpt>
<trkpt lat="23.151354" lon="114.369833">
<time>2016-10-06T09:23:19Z</time></trkpt>
<trkpt lat="23.151425" lon="114.369433">
<time>2016-10-06T09:23:20Z</time></trkpt>
<trkpt lat="23.151465" lon="114.369093">
<time>2016-10-06T09:23:21Z</time></trkpt>
<trkpt lat="23.151495" lon="114.368914">
<time>2016-10-06T09:23:22Z</time></trkpt>
<trkpt lat="23.151546" lon="114.368494">
<time>2016-10-06T09:23:23Z</time></trkpt>
<trkpt lat="23.151596" lon="114.368044">
<time>2016-10-06T09:23:24Z</time></trkpt>
<trkpt lat="23.151606" lon="114.367844">
<time>2016-10-06T09:23:25Z</time></trkpt>
<trkpt lat="23.151627" lon="114.367595">
<time>2016-10-06T09:23:26Z</time></trkpt>
<trkpt lat="23.151637" lon="114.367465">
<time>2016-10-06T09:23:27Z</time></trkpt>
<trkpt lat="23.151657" lon="114.367275">
<time>2016-10-06T09:23:28Z</time></trkpt>
<trkpt lat="23.151657" lon="114.367135">
<time>2016-10-06T09:23:29Z</time></trkpt>
<trkpt lat="23.151677" lon="114.366845">
<time>2016-10-06T09:23:30Z</time></trkpt>
<trkpt lat="23.151688" lon="114.366575">
<time>2016-10-06T09:23:31Z</time></trkpt>
<trkpt lat="23.151688" lon="114.366425">
<time>2016-10-06T09:23:32Z</time></trkpt>
<trkpt lat="23.151698" lon="114.366246">
<time>2016-10-06T09:23:33Z</time></trkpt>
<trkpt lat="23.151698" lon="114.366036">
<time>2016-10-06T09:23:34Z</time></trkpt>
<trkpt lat="23.151699" lon="114.365736">
<time>2016-10-06T09:23:35Z</time></trkpt>
<trkpt lat="23.151689" lon="114.365296">
<time>2016-10-06T09:23:36Z</time></trkpt>
<trkpt lat="23.15167" lon="114.364847">
<time>2016-10-06T09:23:37Z</time></trkpt>
<trkpt lat="23.15165" lon="114.364507">
<time>2016-10-06T09:23:38Z</time></trkpt>
<trkpt lat="23.151621" lon="114.364047">
<time>2016-10-06T09:23:39Z</time></trkpt>
<trkpt lat="23.151601" lon="114.363698">
<time>2016-10-06T09:23:40Z</time></trkpt>
<trkpt lat="23.151562" lon="114.363358">
<time>2016-10-06T09:23:41Z</time></trkpt>
<trkpt lat="23.151522" lon="114.362988">
<time>2016-10-06T09:23:42Z</time></trkpt>
<trkpt lat="23.151483" lon="114.362729">
<time>2016-10-06T09:23:43Z</time></trkpt>
<trkpt lat="23.151443" lon="114.362489">
<time>2016-10-06T09:23:44Z</time></trkpt>
<trkpt lat="23.151393" lon="114.362159">
<time>2016-10-06T09:23:45Z</time></trkpt>
<trkpt lat="23.151324" lon="114.36176">
<time>2016-10-06T09:23:46Z</time></trkpt>
<trkpt lat="23.151294" lon="114.36156">
<time>2016-10-06T09:23:47Z</time></trkpt>
<trkpt lat="23.151245" lon="114.36131">
<time>2016-10-06T09:23:48Z</time></trkpt>
<trkpt lat="23.151195" lon="114.36108">
<time>2016-10-06T09:23:49Z</time></trkpt>
<trkpt lat="23.151155" lon="114.36093">
<time>2016-10-06T09:23:50Z</time></trkpt>
<trkpt lat="23.151076" lon="114.360551">
<time>2016-10-06T09:23:51Z</time></trkpt>
<trkpt lat="23.150996" lon="114.360261">
<time>2016-10-06T09:23:52Z</time></trkpt>
<trkpt lat="23.150946" lon="114.360061">
<time>2016-10-06T09:23:53Z</time></trkpt>
<trkpt lat="23.150887" lon="114.359831">
<time>2016-10-06T09:23:54Z</time></trkpt>
<trkpt lat="23.150837" lon="114.359652">
<time>2016-10-06T09:23:55Z</time></trkpt>
<trkpt lat="23.150738" lon="114.359302">
<time>2016-10-06T09:23:56Z</time></trkpt>
<trkpt lat="23.150658" lon="114.359062">
<time>2016-10-06T09:23:57Z</time></trkpt>
<trkpt lat="23.150568" lon="114.358783">
<time>2016-10-06T09:23:58Z</time></trkpt>
<trkpt lat="23.150489" lon="114.358523">
<time>2016-10-06T09:23:59Z</time></trkpt>
<trkpt lat="23.150349" lon="114.358103">
<time>2016-10-06T09:24:00Z</time></trkpt>
<trkpt lat="23.150001" lon="114.357014">
<time>2016-10-06T09:24:01Z</time></trkpt>
<trkpt lat="23.149683" lon="114.356036">
<time>2016-10-06T09:24:02Z</time></trkpt>
<trkpt lat="23.149533" lon="114.355586">
<time>2016-10-06T09:24:03Z</time></trkpt>
<trkpt lat="23.149384" lon="114.355147">
<time>2016-10-06T09:24:04Z</time></trkpt>
<trkpt lat="23.149275" lon="114.354777">
<time>2016-10-06T09:24:05Z</time></trkpt>
<trkpt lat="23.149165" lon="114.354417">
<time>2016-10-06T09:24:06Z</time></trkpt>
<trkpt lat="23.149066" lon="114.354058">
<time>2016-10-06T09:24:07Z</time></trkpt>
<trkpt lat="23.148996" lon="114.353738">
<time>2016-10-06T09:24:08Z</time></trkpt>
<trkpt lat="23.148907" lon="114.353379">
<time>2016-10-06T09:24:09Z</time></trkpt>
<trkpt lat="23.148828" lon="114.352979">
<time>2016-10-06T09:24:10Z</time></trkpt>
<trkpt lat="23.148788" lon="114.352789">
<time>2016-10-06T09:24:11Z</time></trkpt>
<trkpt lat="23.148748" lon="114.35252">
<time>2016-10-06T09:24:12Z</time></trkpt>
<trkpt lat="23.148699" lon="114.35226">
<time>2016-10-06T09:24:13Z</time></trkpt>
<trkpt lat="23.14863" lon="114.351721">
<time>2016-10-06T09:24:14Z</time></trkpt>
<trkpt lat="23.14861" lon="114.351531">
<time>2016-10-06T09:24:15Z</time></trkpt>
<trkpt lat="23.148571" lon="114.351101">
<time>2016-10-06T09:24:16Z</time></trkpt>
<trkpt lat="23.148531" lon="114.350712">
<time>2016-10-06T09:24:17Z</time></trkpt>
<trkpt lat="23.148512" lon="114.350372">
<time>2016-10-06T09:24:18Z</time></trkpt>
<trkpt lat="23.148503" lon="114.350053">
<time>2016-10-06T09:24:19Z</time></trkpt>
<trkpt lat="23.148493" lon="114.349643">
<time>2016-10-06T09:24:20Z</time></trkpt>
<trkpt lat="23.148494" lon="114.349424">
<time>2016-10-06T09:24:21Z</time></trkpt>
<trkpt lat="23.148494" lon="114.349144">
<time>2016-10-06T09:24:22Z</time></trkpt>
<trkpt lat="23.148515" lon="114.348754">
<time>2016-10-06T09:24:23Z</time></trkpt>
<trkpt lat="23.148535" lon="114.348265">
<time>2016-10-06T09:24:24Z</time></trkpt>
<trkpt lat="23.148576" lon="114.347806">
<time>2016-10-06T09:24:25Z</time></trkpt>
<trkpt lat="23.148617" lon="114.347436">
<time>2016-10-06T09:24:26Z</time></trkpt>
<trkpt lat="23.148657" lon="114.347107">
<time>2016-10-06T09:24:27Z</time></trkpt>
<trkpt lat="23.148688" lon="114.346877">
<time>2016-10-06T09:24:28Z</time></trkpt>
<trkpt lat="23.148708" lon="114.346747">
<time>2016-10-06T09:24:29Z</time></trkpt>
<trkpt lat="23.148809" lon="114.346148">
<time>2016-10-06T09:24:30Z</time></trkpt>
<trkpt lat="23.14894" lon="114.345469">
<time>2016-10-06T09:24:31Z</time></trkpt>
<trkpt lat="23.149051" lon="114.344969">
<time>2016-10-06T09:24:32Z</time></trkpt>
<trkpt lat="23.149162" lon="114.34453">
<time>2016-10-06T09:24:33Z</time></trkpt>
<trkpt lat="23.149393" lon="114.343671">
<time>2016-10-06T09:24:34Z</time></trkpt>
<trkpt lat="23.149544" lon="114.343172">
<time>2016-10-06T09:24:35Z</time></trkpt>
<trkpt lat="23.149664" lon="114.342802">
<time>2016-10-06T09:24:36Z</time></trkpt>
<trkpt lat="23.149885" lon="114.342193">
<time>2016-10-06T09:24:37Z</time></trkpt>
<trkpt lat="23.149966" lon="114.341973">
<time>2016-10-06T09:24:38Z</time></trkpt>
<trkpt lat="23.150066" lon="114.341694">
<time>2016-10-06T09:24:39Z</time></trkpt>
<trkpt lat="23.150317" lon="114.341075">
<time>2016-10-06T09:24:40Z</time></trkpt>
<trkpt lat="23.150528" lon="114.340585">
<time>2016-10-06T09:24:41Z</time></trkpt>
<trkpt lat="23.150729" lon="114.340166">
<time>2016-10-06T09:24:42Z</time></trkpt>
<trkpt lat="23.150889" lon="114.339846">
<time>2016-10-06T09:24:43Z</time></trkpt>
<trkpt lat="23.15104" lon="114.339537">
<time>2016-10-06T09:24:44Z</time></trkpt>
<trkpt lat="23.15114" lon="114.339327">
<time>2016-10-06T09:24:45Z</time></trkpt>
<trkpt lat="23.151491" lon="114.338688">
<time>2016-10-06T09:24:46Z</time></trkpt>
<trkpt lat="23.151872" lon="114.337989">
<time>2016-10-06T09:24:47Z</time></trkpt>
<trkpt lat="23.152143" lon="114.33754">
<time>2016-10-06T09:24:48Z</time></trkpt>
<trkpt lat="23.152544" lon="114.336891">
<time>2016-10-06T09:24:49Z</time></trkpt>
<trkpt lat="23.152594" lon="114.336811">
<time>2016-10-06T09:24:50Z</time></trkpt>
<trkpt lat="23.152634" lon="114.336751">
<time>2016-10-06T09:24:51Z</time></trkpt>
<trkpt lat="23.152815" lon="114.336461">
<time>2016-10-06T09:24:52Z</time></trkpt>
<trkpt lat="23.153045" lon="114.336082">
<time>2016-10-06T09:24:53Z</time></trkpt>
<trkpt lat="23.153306" lon="114.335682">
<time>2016-10-06T09:24:54Z</time></trkpt>
<trkpt lat="23.153687" lon="114.335123">
<time>2016-10-06T09:24:55Z</time></trkpt>
<trkpt lat="23.154138" lon="114.334474">
<time>2016-10-06T09:24:56Z</time></trkpt>
<trkpt lat="23.154328" lon="114.334224">
<time>2016-10-06T09:24:57Z</time></trkpt>
<trkpt lat="23.154719" lon="114.333665">
<time>2016-10-06T09:24:58Z</time></trkpt>
<trkpt lat="23.15525" lon="114.332916">
<time>2016-10-06T09:24:59Z</time></trkpt>
<trkpt lat="23.155842" lon="114.332087">
<time>2016-10-06T09:25:00Z</time></trkpt>
<trkpt lat="23.156313" lon="114.331428">
<time>2016-10-06T09:25:01Z</time></trkpt>
<trkpt lat="23.156864" lon="114.33065">
<time>2016-10-06T09:25:02Z</time></trkpt>
<trkpt lat="23.157295" lon="114.33004">
<time>2016-10-06T09:25:03Z</time></trkpt>
<trkpt lat="23.157565" lon="114.329651">
<time>2016-10-06T09:25:04Z</time></trkpt>
<trkpt lat="23.157836" lon="114.329282">
<time>2016-10-06T09:25:05Z</time></trkpt>
<trkpt lat="23.158127" lon="114.328872">
<time>2016-10-06T09:25:06Z</time></trkpt>
<trkpt lat="23.158367" lon="114.328523">
<time>2016-10-06T09:25:07Z</time></trkpt>
<trkpt lat="23.158468" lon="114.328373">
<time>2016-10-06T09:25:08Z</time></trkpt>
<trkpt lat="23.158578" lon="114.328213">
<time>2016-10-06T09:25:09Z</time></trkpt>
<trkpt lat="23.158788" lon="114.327874">
<time>2016-10-06T09:25:10Z</time></trkpt>
<trkpt lat="23.158899" lon="114.327684">
<time>2016-10-06T09:25:11Z</time></trkpt>
<trkpt lat="23.159099" lon="114.327354">
<time>2016-10-06T09:25:12Z</time></trkpt>
<trkpt lat="23.15926" lon="114.327085">
<time>2016-10-06T09:25:13Z</time></trkpt>
<trkpt lat="23.159571" lon="114.326536">
<time>2016-10-06T09:25:14Z</time></trkpt>
<trkpt lat="23.159832" lon="114.326026">
<time>2016-10-06T09:25:15Z</time></trkpt>
<trkpt lat="23.160072" lon="114.325557">
<time>2016-10-06T09:25:16Z</time></trkpt>
<trkpt lat="23.160464" lon="114.324728">
<time>2016-10-06T09:25:17Z</time></trkpt>
<trkpt lat="23.160564" lon="114.324489">
<time>2016-10-06T09:25:18Z</time></trkpt>
<trkpt lat="23.160665" lon="114.324259">
<time>2016-10-06T09:25:19Z</time></trkpt>
<trkpt lat="23.160976" lon="114.32348">
<time>2016-10-06T09:25:20Z</time></trkpt>
<trkpt lat="23.161177" lon="114.322971">
<time>2016-10-06T09:25:21Z</time></trkpt>
<trkpt lat="23.161348" lon="114.322522">
<time>2016-10-06T09:25:22Z</time></trkpt>
<trkpt lat="23.161468" lon="114.322242">
<time>2016-10-06T09:25:23Z</time></trkpt>
<trkpt lat="23.161629" lon="114.321823">
<time>2016-10-06T09:25:24Z</time></trkpt>
<trkpt lat="23.161719" lon="114.321603">
<time>2016-10-06T09:25:25Z</time></trkpt>
<trkpt lat="23.16184" lon="114.321303">
<time>2016-10-06T09:25:26Z</time></trkpt>
<trkpt lat="23.16196" lon="114.321014">
<time>2016-10-06T09:25:27Z</time></trkpt>
<trkpt lat="23.162161" lon="114.320545">
<time>2016-10-06T09:25:28Z</time></trkpt>
<trkpt lat="23.162352" lon="114.320125">
<time>2016-10-06T09:25:29Z</time></trkpt>
<trkpt lat="23.162482" lon="114.319856">
<time>2016-10-06T09:25:30Z</time></trkpt>
<trkpt lat="23.162583" lon="114.319656">
<time>2016-10-06T09:25:31Z</time></trkpt>
<trkpt lat="23.162673" lon="114.319496">
<time>2016-10-06T09:25:32Z</time></trkpt>
<trkpt lat="23.162793" lon="114.319256">
<time>2016-10-06T09:25:33Z</time></trkpt>
<trkpt lat="23.162924" lon="114.319017">
<time>2016-10-06T09:25:34Z</time></trkpt>
<trkpt lat="23.163094" lon="114.318717">
<time>2016-10-06T09:25:35Z</time></trkpt>
<trkpt lat="23.163285" lon="114.318378">
<time>2016-10-06T09:25:36Z</time></trkpt>
<trkpt lat="23.163545" lon="114.317958">
<time>2016-10-06T09:25:37Z</time></trkpt>
<trkpt lat="23.163716" lon="114.317679">
<time>2016-10-06T09:25:38Z</time></trkpt>
<trkpt lat="23.164618" lon="114.316431">
<time>2016-10-06T09:25:39Z</time></trkpt>
<trkpt lat="23.164949" lon="114.316001">
<time>2016-10-06T09:25:40Z</time></trkpt>
<trkpt lat="23.165129" lon="114.315782">
<time>2016-10-06T09:25:41Z</time></trkpt>
<trkpt lat="23.16548" lon="114.315352">
<time>2016-10-06T09:25:42Z</time></trkpt>
<trkpt lat="23.16589" lon="114.314893">
<time>2016-10-06T09:25:43Z</time></trkpt>
<trkpt lat="23.166181" lon="114.314573">
<time>2016-10-06T09:25:44Z</time></trkpt>
<trkpt lat="23.166662" lon="114.314084">
<time>2016-10-06T09:25:45Z</time></trkpt>
<trkpt lat="23.166832" lon="114.313904">
<time>2016-10-06T09:25:46Z</time></trkpt>
<trkpt lat="23.166942" lon="114.313804">
<time>2016-10-06T09:25:47Z</time></trkpt>
<trkpt lat="23.167062" lon="114.313685">
<time>2016-10-06T09:25:48Z</time></trkpt>
<trkpt lat="23.167293" lon="114.313475">
<time>2016-10-06T09:25:49Z</time></trkpt>
<trkpt lat="23.167503" lon="114.313285">
<time>2016-10-06T09:25:50Z</time></trkpt>
<trkpt lat="23.167683" lon="114.313125">
<time>2016-10-06T09:25:51Z</time></trkpt>
<trkpt lat="23.167903" lon="114.312946">
<time>2016-10-06T09:25:52Z</time></trkpt>
<trkpt lat="23.168053" lon="114.312816">
<time>2016-10-06T09:25:53Z</time></trkpt>
<trkpt lat="23.168274" lon="114.312636">
<time>2016-10-06T09:25:54Z</time></trkpt>
<trkpt lat="23.168454" lon="114.312486">
<time>2016-10-06T09:25:55Z</time></trkpt>
<trkpt lat="23.168594" lon="114.312376">
<time>2016-10-06T09:25:56Z</time></trkpt>
<trkpt lat="23.168714" lon="114.312287">
<time>2016-10-06T09:25:57Z</time></trkpt>
<trkpt lat="23.169025" lon="114.312057">
<time>2016-10-06T09:25:58Z</time></trkpt>
<trkpt lat="23.169185" lon="114.311947">
<time>2016-10-06T09:25:59Z</time></trkpt>
<trkpt lat="23.169325" lon="114.311847">
<time>2016-10-06T09:26:00Z</time></trkpt>
<trkpt lat="23.169625" lon="114.311647">
<time>2016-10-06T09:26:01Z</time></trkpt>
<trkpt lat="23.169835" lon="114.311508">
<time>2016-10-06T09:26:02Z</time></trkpt>
<trkpt lat="23.170035" lon="114.311378">
<time>2016-10-06T09:26:03Z</time></trkpt>
<trkpt lat="23.170466" lon="114.311108">
<time>2016-10-06T09:26:04Z</time></trkpt>
<trkpt lat="23.170656" lon="114.310988">
<time>2016-10-06T09:26:05Z</time></trkpt>
<trkpt lat="23.171486" lon="114.310519">
<time>2016-10-06T09:26:06Z</time></trkpt>
<trkpt lat="23.171657" lon="114.310419">
<time>2016-10-06T09:26:07Z</time></trkpt>
<trkpt lat="23.171747" lon="114.310359">
<time>2016-10-06T09:26:08Z</time></trkpt>
<trkpt lat="23.171777" lon="114.310339">
<time>2016-10-06T09:26:09Z</time></trkpt>
<trkpt lat="23.171847" lon="114.310289">
<time>2016-10-06T09:26:10Z</time></trkpt>
<trkpt lat="23.172017" lon="114.310189">
<time>2016-10-06T09:26:11Z</time></trkpt>
<trkpt lat="23.172627" lon="114.30986">
<time>2016-10-06T09:26:12Z</time></trkpt>
<trkpt lat="23.174979" lon="114.308561">
<time>2016-10-06T09:26:13Z</time></trkpt>
<trkpt lat="23.175269" lon="114.308392">
<time>2016-10-06T09:26:14Z</time></trkpt>
<trkpt lat="23.175489" lon="114.308262">
<time>2016-10-06T09:26:15Z</time></trkpt>
<trkpt lat="23.175639" lon="114.308172">
<time>2016-10-06T09:26:16Z</time></trkpt>
<trkpt lat="23.175769" lon="114.308092">
<time>2016-10-06T09:26:17Z</time></trkpt>
<trkpt lat="23.175939" lon="114.307982">
<time>2016-10-06T09:26:18Z</time></trkpt>
<trkpt lat="23.17607" lon="114.307892">
<time>2016-10-06T09:26:19Z</time></trkpt>
<trkpt lat="23.1762" lon="114.307802">
<time>2016-10-06T09:26:20Z</time></trkpt>
<trkpt lat="23.17637" lon="114.307683">
<time>2016-10-06T09:26:21Z</time></trkpt>
<trkpt lat="23.17651" lon="114.307563">
<time>2016-10-06T09:26:22Z</time></trkpt>
<trkpt lat="23.17659" lon="114.307493">
<time>2016-10-06T09:26:23Z</time></trkpt>
<trkpt lat="23.17679" lon="114.307323">
<time>2016-10-06T09:26:24Z</time></trkpt>
<trkpt lat="23.176971" lon="114.307153">
<time>2016-10-06T09:26:25Z</time></trkpt>
<trkpt lat="23.177201" lon="114.306914">
<time>2016-10-06T09:26:26Z</time></trkpt>
<trkpt lat="23.177361" lon="114.306734">
<time>2016-10-06T09:26:27Z</time></trkpt>
<trkpt lat="23.177401" lon="114.306694">
<time>2016-10-06T09:26:28Z</time></trkpt>
<trkpt lat="23.177471" lon="114.306604">
<time>2016-10-06T09:26:29Z</time></trkpt>
<trkpt lat="23.177561" lon="114.306484">
<time>2016-10-06T09:26:30Z</time></trkpt>
<trkpt lat="23.177702" lon="114.306295">
<time>2016-10-06T09:26:31Z</time></trkpt>
<trkpt lat="23.177782" lon="114.306185">
<time>2016-10-06T09:26:32Z</time></trkpt>
<trkpt lat="23.177882" lon="114.306045">
<time>2016-10-06T09:26:33Z</time></trkpt>
<trkpt lat="23.177932" lon="114.305965">
<time>2016-10-06T09:26:34Z</time></trkpt>
<trkpt lat="23.178002" lon="114.305865">
<time>2016-10-06T09:26:35Z</time></trkpt>
<trkpt lat="23.178063" lon="114.305775">
<time>2016-10-06T09:26:36Z</time></trkpt>
<trkpt lat="23.178163" lon="114.305605">
<time>2016-10-06T09:26:37Z</time></trkpt>
<trkpt lat="23.178223" lon="114.305506">
<time>2016-10-06T09:26:38Z</time></trkpt>
<trkpt lat="23.178273" lon="114.305406">
<time>2016-10-06T09:26:39Z</time></trkpt>
<trkpt lat="23.178363" lon="114.305226">
<time>2016-10-06T09:26:40Z</time></trkpt>
<trkpt lat="23.178524" lon="114.304886">
<time>2016-10-06T09:26:41Z</time></trkpt>
<trkpt lat="23.178664" lon="114.304577">
<time>2016-10-06T09:26:42Z</time></trkpt>
<trkpt lat="23.178935" lon="114.303988">
<time>2016-10-06T09:26:43Z</time></trkpt>
<trkpt lat="23.179056" lon="114.303718">
<time>2016-10-06T09:26:44Z</time></trkpt>
<trkpt lat="23.179116" lon="114.303568">
<time>2016-10-06T09:26:45Z</time></trkpt>
<trkpt lat="23.179598" lon="114.302549">
<time>2016-10-06T09:26:46Z</time></trkpt>
<trkpt lat="23.179698" lon="114.30234">
<time>2016-10-06T09:26:47Z</time></trkpt>
<trkpt lat="23.179698" lon="114.30234">
<time>2016-10-06T09:26:48Z</time></trkpt>
<trkpt lat="23.179639" lon="114.30197">
<time>2016-10-06T09:26:49Z</time></trkpt>
<trkpt lat="23.17949" lon="114.301151">
<time>2016-10-06T09:26:50Z</time></trkpt>
<trkpt lat="23.179461" lon="114.300972">
<time>2016-10-06T09:26:51Z</time></trkpt>
<trkpt lat="23.179312" lon="114.300153">
<time>2016-10-06T09:26:52Z</time></trkpt>
<trkpt lat="23.179253" lon="114.299793">
<time>2016-10-06T09:26:53Z</time></trkpt>
<trkpt lat="23.179213" lon="114.299583">
<time>2016-10-06T09:26:54Z</time></trkpt>
<trkpt lat="23.179203" lon="114.299523">
<time>2016-10-06T09:26:55Z</time></trkpt>
<trkpt lat="23.179183" lon="114.299394">
<time>2016-10-06T09:26:56Z</time></trkpt>
<trkpt lat="23.179104" lon="114.298924">
<time>2016-10-06T09:26:57Z</time></trkpt>
<trkpt lat="23.179025" lon="114.298505">
<time>2016-10-06T09:26:58Z</time></trkpt>
<trkpt lat="23.179005" lon="114.298415">
<time>2016-10-06T09:26:59Z</time></trkpt>
<trkpt lat="23.178886" lon="114.297666">
<time>2016-10-06T09:27:00Z</time></trkpt>
<trkpt lat="23.178876" lon="114.297606">
<time>2016-10-06T09:27:01Z</time></trkpt>
<trkpt lat="23.178738" lon="114.296867">
<time>2016-10-06T09:27:02Z</time></trkpt>
<trkpt lat="23.178559" lon="114.295828">
<time>2016-10-06T09:27:03Z</time></trkpt>
<trkpt lat="23.178223" lon="114.29387">
<time>2016-10-06T09:27:04Z</time></trkpt>
<trkpt lat="23.178044" lon="114.292841">
<time>2016-10-06T09:27:05Z</time></trkpt>
<trkpt lat="23.178035" lon="114.292782">
<time>2016-10-06T09:27:06Z</time></trkpt>
<trkpt lat="23.177916" lon="114.292102">
<time>2016-10-06T09:27:07Z</time></trkpt>
<trkpt lat="23.177826" lon="114.291573">
<time>2016-10-06T09:27:08Z</time></trkpt>
<trkpt lat="23.177787" lon="114.291313">
<time>2016-10-06T09:27:09Z</time></trkpt>
<trkpt lat="23.177767" lon="114.291163">
<time>2016-10-06T09:27:10Z</time></trkpt>
<trkpt lat="23.177747" lon="114.290964">
<time>2016-10-06T09:27:11Z</time></trkpt>
<trkpt lat="23.177728" lon="114.290824">
<time>2016-10-06T09:27:12Z</time></trkpt>
<trkpt lat="23.177619" lon="114.289885">
<time>2016-10-06T09:27:13Z</time></trkpt>
<trkpt lat="23.17759" lon="114.289515">
<time>2016-10-06T09:27:14Z</time></trkpt>
<trkpt lat="23.17756" lon="114.289155">
<time>2016-10-06T09:27:15Z</time></trkpt>
<trkpt lat="23.177541" lon="114.288876">
<time>2016-10-06T09:27:16Z</time></trkpt>
<trkpt lat="23.177521" lon="114.288546">
<time>2016-10-06T09:27:17Z</time></trkpt>
<trkpt lat="23.177482" lon="114.287617">
<time>2016-10-06T09:27:18Z</time></trkpt>
<trkpt lat="23.177424" lon="114.286368">
<time>2016-10-06T09:27:19Z</time></trkpt>
<trkpt lat="23.177356" lon="114.28489">
<time>2016-10-06T09:27:20Z</time></trkpt>
<trkpt lat="23.177318" lon="114.2839">
<time>2016-10-06T09:27:21Z</time></trkpt>
<trkpt lat="23.177298" lon="114.283641">
<time>2016-10-06T09:27:22Z</time></trkpt>
<trkpt lat="23.177269" lon="114.282951">
<time>2016-10-06T09:27:23Z</time></trkpt>
<trkpt lat="23.17723" lon="114.282122">
<time>2016-10-06T09:27:24Z</time></trkpt>
<trkpt lat="23.177201" lon="114.281642">
<time>2016-10-06T09:27:25Z</time></trkpt>
<trkpt lat="23.177181" lon="114.281323">
<time>2016-10-06T09:27:26Z</time></trkpt>
<trkpt lat="23.177152" lon="114.280983">
<time>2016-10-06T09:27:27Z</time></trkpt>
<trkpt lat="23.177112" lon="114.280693">
<time>2016-10-06T09:27:28Z</time></trkpt>
<trkpt lat="23.177062" lon="114.280393">
<time>2016-10-06T09:27:29Z</time></trkpt>
<trkpt lat="23.177033" lon="114.280253">
<time>2016-10-06T09:27:30Z</time></trkpt>
<trkpt lat="23.177003" lon="114.280124">
<time>2016-10-06T09:27:31Z</time></trkpt>
<trkpt lat="23.176844" lon="114.279514">
<time>2016-10-06T09:27:32Z</time></trkpt>
<trkpt lat="23.176764" lon="114.279204">
<time>2016-10-06T09:27:33Z</time></trkpt>
<trkpt lat="23.176625" lon="114.278685">
<time>2016-10-06T09:27:34Z</time></trkpt>
<trkpt lat="23.176505" lon="114.278305">
<time>2016-10-06T09:27:35Z</time></trkpt>
<trkpt lat="23.176425" lon="114.278045">
<time>2016-10-06T09:27:36Z</time></trkpt>
<trkpt lat="23.176147" lon="114.277006">
<time>2016-10-06T09:27:37Z</time></trkpt>
<trkpt lat="23.175938" lon="114.276306">
<time>2016-10-06T09:27:38Z</time></trkpt>
<trkpt lat="23.17538" lon="114.274277">
<time>2016-10-06T09:27:39Z</time></trkpt>
<trkpt lat="23.175091" lon="114.273288">
<time>2016-10-06T09:27:40Z</time></trkpt>
<trkpt lat="23.174812" lon="114.272288">
<time>2016-10-06T09:27:41Z</time></trkpt>
<trkpt lat="23.174623" lon="114.271599">
<time>2016-10-06T09:27:42Z</time></trkpt>
<trkpt lat="23.174334" lon="114.270549">
<time>2016-10-06T09:27:43Z</time></trkpt>
<trkpt lat="23.174314" lon="114.270479">
<time>2016-10-06T09:27:44Z</time></trkpt>
<trkpt lat="23.174115" lon="114.26976">
<time>2016-10-06T09:27:45Z</time></trkpt>
<trkpt lat="23.174095" lon="114.26971">
<time>2016-10-06T09:27:46Z</time></trkpt>
<trkpt lat="23.173946" lon="114.26917">
<time>2016-10-06T09:27:47Z</time></trkpt>
<trkpt lat="23.173507" lon="114.26763">
<time>2016-10-06T09:27:48Z</time></trkpt>
<trkpt lat="23.173248" lon="114.266681">
<time>2016-10-06T09:27:49Z</time></trkpt>
<trkpt lat="23.172849" lon="114.265291">
<time>2016-10-06T09:27:50Z</time></trkpt>
<trkpt lat="23.17264" lon="114.264501">
<time>2016-10-06T09:27:51Z</time></trkpt>
<trkpt lat="23.17252" lon="114.264071">
<time>2016-10-06T09:27:52Z</time></trkpt>
<trkpt lat="23.17248" lon="114.263921">
<time>2016-10-06T09:27:53Z</time></trkpt>
<trkpt lat="23.172401" lon="114.263631">
<time>2016-10-06T09:27:54Z</time></trkpt>
<trkpt lat="23.172101" lon="114.262591">
<time>2016-10-06T09:27:55Z</time></trkpt>
<trkpt lat="23.171892" lon="114.261852">
<time>2016-10-06T09:27:56Z</time></trkpt>
<trkpt lat="23.171812" lon="114.261542">
<time>2016-10-06T09:27:57Z</time></trkpt>
<trkpt lat="23.171573" lon="114.260652">
<time>2016-10-06T09:27:58Z</time></trkpt>
<trkpt lat="23.171024" lon="114.258732">
<time>2016-10-06T09:27:59Z</time></trkpt>
<trkpt lat="23.170276" lon="114.256081">
<time>2016-10-06T09:28:00Z</time></trkpt>
<trkpt lat="23.170186" lon="114.255761">
<time>2016-10-06T09:28:01Z</time></trkpt>
<trkpt lat="23.170126" lon="114.255521">
<time>2016-10-06T09:28:02Z</time></trkpt>
<trkpt lat="23.170096" lon="114.255431">
<time>2016-10-06T09:28:03Z</time></trkpt>
<trkpt lat="23.169727" lon="114.254111">
<time>2016-10-06T09:28:04Z</time></trkpt>
<trkpt lat="23.168858" lon="114.251">
<time>2016-10-06T09:28:05Z</time></trkpt>
<trkpt lat="23.168638" lon="114.25022">
<time>2016-10-06T09:28:06Z</time></trkpt>
<trkpt lat="23.168578" lon="114.25">
<time>2016-10-06T09:28:07Z</time></trkpt>
<trkpt lat="23.168388" lon="114.24932">
<time>2016-10-06T09:28:08Z</time></trkpt>
<trkpt lat="23.166809" lon="114.243697">
<time>2016-10-06T09:28:09Z</time></trkpt>
<trkpt lat="23.166719" lon="114.243356">
<time>2016-10-06T09:28:10Z</time></trkpt>
<trkpt lat="23.166699" lon="114.243286">
<time>2016-10-06T09:28:11Z</time></trkpt>
<trkpt lat="23.166669" lon="114.243196">
<time>2016-10-06T09:28:12Z</time></trkpt>
<trkpt lat="23.166469" lon="114.242486">
<time>2016-10-06T09:28:13Z</time></trkpt>
<trkpt lat="23.166319" lon="114.241945">
<time>2016-10-06T09:28:14Z</time></trkpt>
<trkpt lat="23.165999" lon="114.240804">
<time>2016-10-06T09:28:15Z</time></trkpt>
<trkpt lat="23.165429" lon="114.238803">
<time>2016-10-06T09:28:16Z</time></trkpt>
<trkpt lat="23.165109" lon="114.237612">
<time>2016-10-06T09:28:17Z</time></trkpt>
<trkpt lat="23.164378" lon="114.235019">
<time>2016-10-06T09:28:18Z</time></trkpt>
<trkpt lat="23.163938" lon="114.233468">
<time>2016-10-06T09:28:19Z</time></trkpt>
<trkpt lat="23.163577" lon="114.232196">
<time>2016-10-06T09:28:20Z</time></trkpt>
<trkpt lat="23.163367" lon="114.231425">
<time>2016-10-06T09:28:21Z</time></trkpt>
<trkpt lat="23.163157" lon="114.230665">
<time>2016-10-06T09:28:22Z</time></trkpt>
<trkpt lat="23.162916" lon="114.229803">
<time>2016-10-06T09:28:23Z</time></trkpt>
<trkpt lat="23.162796" lon="114.229403">
<time>2016-10-06T09:28:24Z</time></trkpt>
<trkpt lat="23.162546" lon="114.228482">
<time>2016-10-06T09:28:25Z</time></trkpt>
<trkpt lat="23.162416" lon="114.228051">
<time>2016-10-06T09:28:26Z</time></trkpt>
<trkpt lat="23.162245" lon="114.22744">
<time>2016-10-06T09:28:27Z</time></trkpt>
<trkpt lat="23.162235" lon="114.22741">
<time>2016-10-06T09:28:28Z</time></trkpt>
<trkpt lat="23.162065" lon="114.22674">
<time>2016-10-06T09:28:29Z</time></trkpt>
<trkpt lat="23.161864" lon="114.225928">
<time>2016-10-06T09:28:30Z</time></trkpt>
<trkpt lat="23.161774" lon="114.225508">
<time>2016-10-06T09:28:31Z</time></trkpt>
<trkpt lat="23.161573" lon="114.224526">
<time>2016-10-06T09:28:32Z</time></trkpt>
<trkpt lat="23.161433" lon="114.223775">
<time>2016-10-06T09:28:33Z</time></trkpt>
<trkpt lat="23.161282" lon="114.222754">
<time>2016-10-06T09:28:34Z</time></trkpt>
<trkpt lat="23.161222" lon="114.222263">
<time>2016-10-06T09:28:35Z</time></trkpt>
<trkpt lat="23.161091" lon="114.220981">
<time>2016-10-06T09:28:36Z</time></trkpt>
<trkpt lat="23.161081" lon="114.220911">
<time>2016-10-06T09:28:37Z</time></trkpt>
<trkpt lat="23.16102" lon="114.22028">
<time>2016-10-06T09:28:38Z</time></trkpt>
<trkpt lat="23.160949" lon="114.219479">
<time>2016-10-06T09:28:39Z</time></trkpt>
<trkpt lat="23.160838" lon="114.218217">
<time>2016-10-06T09:28:40Z</time></trkpt>
<trkpt lat="23.160687" lon="114.216654">
<time>2016-10-06T09:28:41Z</time></trkpt>
<trkpt lat="23.160636" lon="114.216153">
<time>2016-10-06T09:28:42Z</time></trkpt>
<trkpt lat="23.160576" lon="114.215482">
<time>2016-10-06T09:28:43Z</time></trkpt>
<trkpt lat="23.160495" lon="114.21449">
<time>2016-10-06T09:28:44Z</time></trkpt>
<trkpt lat="23.160414" lon="114.213628">
<time>2016-10-06T09:28:45Z</time></trkpt>
<trkpt lat="23.160373" lon="114.213218">
<time>2016-10-06T09:28:46Z</time></trkpt>
<trkpt lat="23.160292" lon="114.212246">
<time>2016-10-06T09:28:47Z</time></trkpt>
<trkpt lat="23.160202" lon="114.212056">
<time>2016-10-06T09:28:48Z</time></trkpt>
<trkpt lat="23.160162" lon="114.211745">
<time>2016-10-06T09:28:49Z</time></trkpt>
<trkpt lat="23.160101" lon="114.211364">
<time>2016-10-06T09:28:50Z</time></trkpt>
<trkpt lat="23.160021" lon="114.211024">
<time>2016-10-06T09:28:51Z</time></trkpt>
<trkpt lat="23.15992" lon="114.210623">
<time>2016-10-06T09:28:52Z</time></trkpt>
<trkpt lat="23.15986" lon="114.210462">
<time>2016-10-06T09:28:53Z</time></trkpt>
<trkpt lat="23.15981" lon="114.210312">
<time>2016-10-06T09:28:54Z</time></trkpt>
<trkpt lat="23.15968" lon="114.209921">
<time>2016-10-06T09:28:55Z</time></trkpt>
<trkpt lat="23.159469" lon="114.20934">
<time>2016-10-06T09:28:56Z</time></trkpt>
<trkpt lat="23.159289" lon="114.208899">
<time>2016-10-06T09:28:57Z</time></trkpt>
<trkpt lat="23.159218" lon="114.208709">
<time>2016-10-06T09:28:58Z</time></trkpt>
<trkpt lat="23.159098" lon="114.208328">
<time>2016-10-06T09:28:59Z</time></trkpt>
<trkpt lat="23.158817" lon="114.207647">
<time>2016-10-06T09:29:00Z</time></trkpt>
<trkpt lat="23.158596" lon="114.207036">
<time>2016-10-06T09:29:01Z</time></trkpt>
<trkpt lat="23.158336" lon="114.206344">
<time>2016-10-06T09:29:02Z</time></trkpt>
<trkpt lat="23.157914" lon="114.205232">
<time>2016-10-06T09:29:03Z</time></trkpt>
<trkpt lat="23.157674" lon="114.204611">
<time>2016-10-06T09:29:04Z</time></trkpt>
<trkpt lat="23.157643" lon="114.204531">
<time>2016-10-06T09:29:05Z</time></trkpt>
<trkpt lat="23.157353" lon="114.203769">
<time>2016-10-06T09:29:06Z</time></trkpt>
<trkpt lat="23.156991" lon="114.202817">
<time>2016-10-06T09:29:07Z</time></trkpt>
<trkpt lat="23.156721" lon="114.202185">
<time>2016-10-06T09:29:08Z</time></trkpt>
<trkpt lat="23.15638" lon="114.201524">
<time>2016-10-06T09:29:09Z</time></trkpt>
<trkpt lat="23.15638" lon="114.201514">
<time>2016-10-06T09:29:10Z</time></trkpt>
<trkpt lat="23.156129" lon="114.201073">
<time>2016-10-06T09:29:11Z</time></trkpt>
<trkpt lat="23.155869" lon="114.200642">
<time>2016-10-06T09:29:12Z</time></trkpt>
<trkpt lat="23.155558" lon="114.200151">
<time>2016-10-06T09:29:13Z</time></trkpt>
<trkpt lat="23.155197" lon="114.19955">
<time>2016-10-06T09:29:14Z</time></trkpt>
<trkpt lat="23.154967" lon="114.199189">
<time>2016-10-06T09:29:15Z</time></trkpt>
<trkpt lat="23.154546" lon="114.198497">
<time>2016-10-06T09:29:16Z</time></trkpt>
<trkpt lat="23.154005" lon="114.197575">
<time>2016-10-06T09:29:17Z</time></trkpt>
<trkpt lat="23.153193" lon="114.196272">
<time>2016-10-06T09:29:18Z</time></trkpt>
<trkpt lat="23.153183" lon="114.196272">
<time>2016-10-06T09:29:19Z</time></trkpt>
<trkpt lat="23.152872" lon="114.195771">
<time>2016-10-06T09:29:20Z</time></trkpt>
<trkpt lat="23.152441" lon="114.195049">
<time>2016-10-06T09:29:21Z</time></trkpt>
<trkpt lat="23.152281" lon="114.194769">
<time>2016-10-06T09:29:22Z</time></trkpt>
<trkpt lat="23.152171" lon="114.194568">
<time>2016-10-06T09:29:23Z</time></trkpt>
<trkpt lat="23.152081" lon="114.194388">
<time>2016-10-06T09:29:24Z</time></trkpt>
<trkpt lat="23.15192" lon="114.194037">
<time>2016-10-06T09:29:25Z</time></trkpt>
<trkpt lat="23.151619" lon="114.193275">
<time>2016-10-06T09:29:26Z</time></trkpt>
<trkpt lat="23.151378" lon="114.192604">
<time>2016-10-06T09:29:27Z</time></trkpt>
<trkpt lat="23.151167" lon="114.192022">
<time>2016-10-06T09:29:28Z</time></trkpt>
<trkpt lat="23.151117" lon="114.191792">
<time>2016-10-06T09:29:29Z</time></trkpt>
<trkpt lat="23.150394" lon="114.189807">
<time>2016-10-06T09:29:30Z</time></trkpt>
<trkpt lat="23.150333" lon="114.189646">
<time>2016-10-06T09:29:31Z</time></trkpt>
<trkpt lat="23.150132" lon="114.189065">
<time>2016-10-06T09:29:32Z</time></trkpt>
<trkpt lat="23.150062" lon="114.188864">
<time>2016-10-06T09:29:33Z</time></trkpt>
<trkpt lat="23.149992" lon="114.188664">
<time>2016-10-06T09:29:34Z</time></trkpt>
<trkpt lat="23.149901" lon="114.188433">
<time>2016-10-06T09:29:35Z</time></trkpt>
<trkpt lat="23.149831" lon="114.188213">
<time>2016-10-06T09:29:36Z</time></trkpt>
<trkpt lat="23.149761" lon="114.187982">
<time>2016-10-06T09:29:37Z</time></trkpt>
<trkpt lat="23.149711" lon="114.187822">
<time>2016-10-06T09:29:38Z</time></trkpt>
<trkpt lat="23.14968" lon="114.187671">
<time>2016-10-06T09:29:39Z</time></trkpt>
<trkpt lat="23.14961" lon="114.187371">
<time>2016-10-06T09:29:40Z</time></trkpt>
<trkpt lat="23.149579" lon="114.18721">
<time>2016-10-06T09:29:41Z</time></trkpt>
<trkpt lat="23.149559" lon="114.18707">
<time>2016-10-06T09:29:42Z</time></trkpt>
<trkpt lat="23.149519" lon="114.186859">
<time>2016-10-06T09:29:43Z</time></trkpt>
<trkpt lat="23.149509" lon="114.186719">
<time>2016-10-06T09:29:44Z</time></trkpt>
<trkpt lat="23.149488" lon="114.186488">
<time>2016-10-06T09:29:45Z</time></trkpt>
<trkpt lat="23.149437" lon="114.185937">
<time>2016-10-06T09:29:46Z</time></trkpt>
<trkpt lat="23.149437" lon="114.185887">
<time>2016-10-06T09:29:47Z</time></trkpt>
<trkpt lat="23.149427" lon="114.185726">
<time>2016-10-06T09:29:48Z</time></trkpt>
<trkpt lat="23.149366" lon="114.184934">
<time>2016-10-06T09:29:49Z</time></trkpt>
<trkpt lat="23.149315" lon="114.184303">
<time>2016-10-06T09:29:50Z</time></trkpt>
<trkpt lat="23.149243" lon="114.1832">
<time>2016-10-06T09:29:51Z</time></trkpt>
<trkpt lat="23.149151" lon="114.182107">
<time>2016-10-06T09:29:52Z</time></trkpt>
<trkpt lat="23.149089" lon="114.181295">
<time>2016-10-06T09:29:53Z</time></trkpt>
<trkpt lat="23.149018" lon="114.180342">
<time>2016-10-06T09:29:54Z</time></trkpt>
<trkpt lat="23.148935" lon="114.179169">
<time>2016-10-06T09:29:55Z</time></trkpt>
<trkpt lat="23.148864" lon="114.178207">
<time>2016-10-06T09:29:56Z</time></trkpt>
<trkpt lat="23.148812" lon="114.177455">
<time>2016-10-06T09:29:57Z</time></trkpt>
<trkpt lat="23.148771" lon="114.176903">
<time>2016-10-06T09:29:58Z</time></trkpt>
<trkpt lat="23.148741" lon="114.176492">
<time>2016-10-06T09:29:59Z</time></trkpt>
<trkpt lat="23.1487" lon="114.176011">
<time>2016-10-06T09:30:00Z</time></trkpt>
<trkpt lat="23.148649" lon="114.175389">
<time>2016-10-06T09:30:01Z</time></trkpt>
<trkpt lat="23.148618" lon="114.174868">
<time>2016-10-06T09:30:02Z</time></trkpt>
<trkpt lat="23.148566" lon="114.174236">
<time>2016-10-06T09:30:03Z</time></trkpt>
<trkpt lat="23.148535" lon="114.173725">
<time>2016-10-06T09:30:04Z</time></trkpt>
<trkpt lat="23.148525" lon="114.173564">
<time>2016-10-06T09:30:05Z</time></trkpt>
<trkpt lat="23.148515" lon="114.173284">
<time>2016-10-06T09:30:06Z</time></trkpt>
<trkpt lat="23.148514" lon="114.173123">
<time>2016-10-06T09:30:07Z</time></trkpt>
<trkpt lat="23.148514" lon="114.172973">
<time>2016-10-06T09:30:08Z</time></trkpt>
<trkpt lat="23.148524" lon="114.172712">
<time>2016-10-06T09:30:09Z</time></trkpt>
<trkpt lat="23.148543" lon="114.172451">
<time>2016-10-06T09:30:10Z</time></trkpt>
<trkpt lat="23.148572" lon="114.17206">
<time>2016-10-06T09:30:11Z</time></trkpt>
<trkpt lat="23.148592" lon="114.17177">
<time>2016-10-06T09:30:12Z</time></trkpt>
<trkpt lat="23.148621" lon="114.171479">
<time>2016-10-06T09:30:13Z</time></trkpt>
<trkpt lat="23.148651" lon="114.171238">
<time>2016-10-06T09:30:14Z</time></trkpt>
<trkpt lat="23.148768" lon="114.169894">
<time>2016-10-06T09:30:15Z</time></trkpt>
<trkpt lat="23.148827" lon="114.169183">
<time>2016-10-06T09:30:16Z</time></trkpt>
<trkpt lat="23.148915" lon="114.16825">
<time>2016-10-06T09:30:17Z</time></trkpt>
<trkpt lat="23.148964" lon="114.167698">
<time>2016-10-06T09:30:18Z</time></trkpt>
<trkpt lat="23.149023" lon="114.167087">
<time>2016-10-06T09:30:19Z</time></trkpt>
<trkpt lat="23.149091" lon="114.166375">
<time>2016-10-06T09:30:20Z</time></trkpt>
<trkpt lat="23.14916" lon="114.165673">
<time>2016-10-06T09:30:21Z</time></trkpt>
<trkpt lat="23.14919" lon="114.165402">
<time>2016-10-06T09:30:22Z</time></trkpt>
<trkpt lat="23.149317" lon="114.163948">
<time>2016-10-06T09:30:23Z</time></trkpt>
<trkpt lat="23.149376" lon="114.163347">
<time>2016-10-06T09:30:24Z</time></trkpt>
<trkpt lat="23.149415" lon="114.162865">
<time>2016-10-06T09:30:25Z</time></trkpt>
<trkpt lat="23.14964" lon="114.160549">
<time>2016-10-06T09:30:26Z</time></trkpt>
<trkpt lat="23.149728" lon="114.159486">
<time>2016-10-06T09:30:27Z</time></trkpt>
<trkpt lat="23.149728" lon="114.159476">
<time>2016-10-06T09:30:28Z</time></trkpt>
<trkpt lat="23.149777" lon="114.159055">
<time>2016-10-06T09:30:29Z</time></trkpt>
<trkpt lat="23.149797" lon="114.158844">
<time>2016-10-06T09:30:30Z</time></trkpt>
<trkpt lat="23.149806" lon="114.158584">
<time>2016-10-06T09:30:31Z</time></trkpt>
<trkpt lat="23.149816" lon="114.158413">
<time>2016-10-06T09:30:32Z</time></trkpt>
<trkpt lat="23.149816" lon="114.158293">
<time>2016-10-06T09:30:33Z</time></trkpt>
<trkpt lat="23.149816" lon="114.158173">
<time>2016-10-06T09:30:34Z</time></trkpt>
<trkpt lat="23.149805" lon="114.157942">
<time>2016-10-06T09:30:35Z</time></trkpt>
<trkpt lat="23.149795" lon="114.157671">
<time>2016-10-06T09:30:36Z</time></trkpt>
<trkpt lat="23.149774" lon="114.157471">
<time>2016-10-06T09:30:37Z</time></trkpt>
<trkpt lat="23.149754" lon="114.15736">
<time>2016-10-06T09:30:38Z</time></trkpt>
<trkpt lat="23.149734" lon="114.15722">
<time>2016-10-06T09:30:39Z</time></trkpt>
<trkpt lat="23.149704" lon="114.157019">
<time>2016-10-06T09:30:40Z</time></trkpt>
<trkpt lat="23.149643" lon="114.156719">
<time>2016-10-06T09:30:41Z</time></trkpt>
<trkpt lat="23.149613" lon="114.156528">
<time>2016-10-06T09:30:42Z</time></trkpt>
<trkpt lat="23.149542" lon="114.156167">
<time>2016-10-06T09:30:43Z</time></trkpt>
<trkpt lat="23.149461" lon="114.155766">
<time>2016-10-06T09:30:44Z</time></trkpt>
<trkpt lat="23.14936" lon="114.155215">
<time>2016-10-06T09:30:45Z</time></trkpt>
<trkpt lat="23.14928" lon="114.154824">
<time>2016-10-06T09:30:46Z</time></trkpt>
<trkpt lat="23.149189" lon="114.154342">
<time>2016-10-06T09:30:47Z</time></trkpt>
<trkpt lat="23.149048" lon="114.153681">
<time>2016-10-06T09:30:48Z</time></trkpt>
<trkpt lat="23.148937" lon="114.153099">
<time>2016-10-06T09:30:49Z</time></trkpt>
<trkpt lat="23.148836" lon="114.152608">
<time>2016-10-06T09:30:50Z</time></trkpt>
<trkpt lat="23.148816" lon="114.152467">
<time>2016-10-06T09:30:51Z</time></trkpt>
<trkpt lat="23.148785" lon="114.152317">
<time>2016-10-06T09:30:52Z</time></trkpt>
<trkpt lat="23.148745" lon="114.152106">
<time>2016-10-06T09:30:53Z</time></trkpt>
<trkpt lat="23.148725" lon="114.151956">
<time>2016-10-06T09:30:54Z</time></trkpt>
<trkpt lat="23.148704" lon="114.151806">
<time>2016-10-06T09:30:55Z</time></trkpt>
<trkpt lat="23.148694" lon="114.151635">
<time>2016-10-06T09:30:56Z</time></trkpt>
<trkpt lat="23.148694" lon="114.151435">
<time>2016-10-06T09:30:57Z</time></trkpt>
<trkpt lat="23.148694" lon="114.151344">
<time>2016-10-06T09:30:58Z</time></trkpt>
<trkpt lat="23.148693" lon="114.151224">
<time>2016-10-06T09:30:59Z</time></trkpt>
<trkpt lat="23.148693" lon="114.151114">
<time>2016-10-06T09:31:00Z</time></trkpt>
<trkpt lat="23.148703" lon="114.150983">
<time>2016-10-06T09:31:01Z</time></trkpt>
<trkpt lat="23.148723" lon="114.150843">
<time>2016-10-06T09:31:02Z</time></trkpt>
<trkpt lat="23.148792" lon="114.150241">
<time>2016-10-06T09:31:03Z</time></trkpt>
<trkpt lat="23.14886" lon="114.14961">
<time>2016-10-06T09:31:04Z</time></trkpt>
<trkpt lat="23.1489" lon="114.149229">
<time>2016-10-06T09:31:05Z</time></trkpt>
<trkpt lat="23.148989" lon="114.148527">
<time>2016-10-06T09:31:06Z</time></trkpt>
<trkpt lat="23.149018" lon="114.148347">
<time>2016-10-06T09:31:07Z</time></trkpt>
<trkpt lat="23.149048" lon="114.148166">
<time>2016-10-06T09:31:08Z</time></trkpt>
<trkpt lat="23.149078" lon="114.148066">
<time>2016-10-06T09:31:09Z</time></trkpt>
<trkpt lat="23.149097" lon="114.147976">
<time>2016-10-06T09:31:10Z</time></trkpt>
<trkpt lat="23.149147" lon="114.147825">
<time>2016-10-06T09:31:11Z</time></trkpt>
<trkpt lat="23.149237" lon="114.147605">
<time>2016-10-06T09:31:12Z</time></trkpt>
<trkpt lat="23.149326" lon="114.147414">
<time>2016-10-06T09:31:13Z</time></trkpt>
<trkpt lat="23.149506" lon="114.147013">
<time>2016-10-06T09:31:14Z</time></trkpt>
<trkpt lat="23.149506" lon="114.147013">
<time>2016-10-06T09:31:15Z</time></trkpt>
<trkpt lat="23.149466" lon="114.146973">
<time>2016-10-06T09:31:16Z</time></trkpt>
<trkpt lat="23.148724" lon="114.146031">
<time>2016-10-06T09:31:17Z</time></trkpt>
<trkpt lat="23.147983" lon="114.145168">
<time>2016-10-06T09:31:18Z</time></trkpt>
<trkpt lat="23.147462" lon="114.144527">
<time>2016-10-06T09:31:19Z</time></trkpt>
<trkpt lat="23.147232" lon="114.144206">
<time>2016-10-06T09:31:20Z</time></trkpt>
<trkpt lat="23.146701" lon="114.143464">
<time>2016-10-06T09:31:21Z</time></trkpt>
<trkpt lat="23.1463" lon="114.142923">
<time>2016-10-06T09:31:22Z</time></trkpt>
<trkpt lat="23.145599" lon="114.14193">
<time>2016-10-06T09:31:23Z</time></trkpt>
<trkpt lat="23.145428" lon="114.1417">
<time>2016-10-06T09:31:24Z</time></trkpt>
<trkpt lat="23.145148" lon="114.141289">
<time>2016-10-06T09:31:25Z</time></trkpt>
<trkpt lat="23.145017" lon="114.141088">
<time>2016-10-06T09:31:26Z</time></trkpt>
<trkpt lat="23.144907" lon="114.140858">
<time>2016-10-06T09:31:27Z</time></trkpt>
<trkpt lat="23.144837" lon="114.140667">
<time>2016-10-06T09:31:28Z</time></trkpt>
<trkpt lat="23.144767" lon="114.140457">
<time>2016-10-06T09:31:29Z</time></trkpt>
<trkpt lat="23.144445" lon="114.139364">
<time>2016-10-06T09:31:30Z</time></trkpt>
<trkpt lat="23.144395" lon="114.139174">
<time>2016-10-06T09:31:31Z</time></trkpt>
<trkpt lat="23.144314" lon="114.138963">
<time>2016-10-06T09:31:32Z</time></trkpt>
<trkpt lat="23.144194" lon="114.138713">
<time>2016-10-06T09:31:33Z</time></trkpt>
<trkpt lat="23.143562" lon="114.13759">
<time>2016-10-06T09:31:34Z</time></trkpt>
<trkpt lat="23.143101" lon="114.136778">
<time>2016-10-06T09:31:35Z</time></trkpt>
<trkpt lat="23.14249" lon="114.135726">
<time>2016-10-06T09:31:36Z</time></trkpt>
<trkpt lat="23.142229" lon="114.135275">
<time>2016-10-06T09:31:37Z</time></trkpt>
<trkpt lat="23.141778" lon="114.134523">
<time>2016-10-06T09:31:38Z</time></trkpt>
<trkpt lat="23.141618" lon="114.134232">
<time>2016-10-06T09:31:39Z</time></trkpt>
<trkpt lat="23.141598" lon="114.134212">
<time>2016-10-06T09:31:40Z</time></trkpt>
<trkpt lat="23.141267" lon="114.133621">
<time>2016-10-06T09:31:41Z</time></trkpt>
<trkpt lat="23.140566" lon="114.132388">
<time>2016-10-06T09:31:42Z</time></trkpt>
<trkpt lat="23.140446" lon="114.132178">
<time>2016-10-06T09:31:43Z</time></trkpt>
<trkpt lat="23.140315" lon="114.131957">
<time>2016-10-06T09:31:44Z</time></trkpt>
<trkpt lat="23.139854" lon="114.131186">
<time>2016-10-06T09:31:45Z</time></trkpt>
<trkpt lat="23.138832" lon="114.129412">
<time>2016-10-06T09:31:46Z</time></trkpt>
<trkpt lat="23.137961" lon="114.127939">
<time>2016-10-06T09:31:47Z</time></trkpt>
<trkpt lat="23.13732" lon="114.126856">
<time>2016-10-06T09:31:48Z</time></trkpt>
<trkpt lat="23.136348" lon="114.125013">
<time>2016-10-06T09:31:49Z</time></trkpt>
<trkpt lat="23.136308" lon="114.124943">
<time>2016-10-06T09:31:50Z</time></trkpt>
<trkpt lat="23.135747" lon="114.124101">
<time>2016-10-06T09:31:51Z</time></trkpt>
<trkpt lat="23.135747" lon="114.124101">
<time>2016-10-06T09:31:52Z</time></trkpt>
<trkpt lat="23.135356" lon="114.12342">
<time>2016-10-06T09:31:53Z</time></trkpt>
<trkpt lat="23.135296" lon="114.123349">
<time>2016-10-06T09:31:54Z</time></trkpt>
<trkpt lat="23.135256" lon="114.123299">
<time>2016-10-06T09:31:55Z</time></trkpt>
<trkpt lat="23.135196" lon="114.123249">
<time>2016-10-06T09:31:56Z</time></trkpt>
<trkpt lat="23.135076" lon="114.123169">
<time>2016-10-06T09:31:57Z</time></trkpt>
<trkpt lat="23.134676" lon="114.122939">
<time>2016-10-06T09:31:58Z</time></trkpt>
<trkpt lat="23.134546" lon="114.122889">
<time>2016-10-06T09:31:59Z</time></trkpt>
<trkpt lat="23.134176" lon="114.122758">
<time>2016-10-06T09:32:00Z</time></trkpt>
<trkpt lat="23.134176" lon="114.122758">
<time>2016-10-06T09:32:01Z</time></trkpt>
<trkpt lat="23.134245" lon="114.122388">
<time>2016-10-06T09:32:02Z</time></trkpt>
<trkpt lat="23.134285" lon="114.122177">
<time>2016-10-06T09:32:03Z</time></trkpt>
<trkpt lat="23.134295" lon="114.122137">
<time>2016-10-06T09:32:04Z</time></trkpt>
<trkpt lat="23.134295" lon="114.122117">
<time>2016-10-06T09:32:05Z</time></trkpt>
<trkpt lat="23.134295" lon="114.122097">
<time>2016-10-06T09:32:06Z</time></trkpt>
<trkpt lat="23.134295" lon="114.122087">
<time>2016-10-06T09:32:07Z</time></trkpt>
<trkpt lat="23.134285" lon="114.122057">
<time>2016-10-06T09:32:08Z</time></trkpt>
<trkpt lat="23.134275" lon="114.122037">
<time>2016-10-06T09:32:09Z</time></trkpt>
<trkpt lat="23.134255" lon="114.122007">
<time>2016-10-06T09:32:10Z</time></trkpt>
<trkpt lat="23.134185" lon="114.121817">
<time>2016-10-06T09:32:11Z</time></trkpt>
<trkpt lat="23.134185" lon="114.121817">
<time>2016-10-06T09:32:12Z</time></trkpt>
<trkpt lat="23.134455" lon="114.121636">
<time>2016-10-06T09:32:13Z</time></trkpt>
<trkpt lat="23.134554" lon="114.121586">
<time>2016-10-06T09:32:14Z</time></trkpt>
<trkpt lat="23.134554" lon="114.121586">
<time>2016-10-06T09:32:15Z</time></trkpt>
<trkpt lat="23.134504" lon="114.121486">
<time>2016-10-06T09:32:16Z</time></trkpt>
<trkpt lat="23.134504" lon="114.121466">
<time>2016-10-06T09:32:17Z</time></trkpt>
<trkpt lat="23.134494" lon="114.121446">
<time>2016-10-06T09:32:18Z</time></trkpt>
<trkpt lat="23.134484" lon="114.121426">
<time>2016-10-06T09:32:19Z</time></trkpt>
<trkpt lat="23.134484" lon="114.121406">
<time>2016-10-06T09:32:20Z</time></trkpt>
<trkpt lat="23.134484" lon="114.121376">
<time>2016-10-06T09:32:21Z</time></trkpt>
<trkpt lat="23.134484" lon="114.121356">
<time>2016-10-06T09:32:22Z</time></trkpt>
<trkpt lat="23.134494" lon="114.121326">
<time>2016-10-06T09:32:23Z</time></trkpt>
<trkpt lat="23.134494" lon="114.121295">
<time>2016-10-06T09:32:24Z</time></trkpt>
<trkpt lat="23.134504" lon="114.121265">
<time>2016-10-06T09:32:25Z</time></trkpt>
<trkpt lat="23.134504" lon="114.121245">
<time>2016-10-06T09:32:26Z</time></trkpt>
<trkpt lat="23.134504" lon="114.121215">
<time>2016-10-06T09:32:27Z</time></trkpt>
<trkpt lat="23.134514" lon="114.121195">
<time>2016-10-06T09:32:28Z</time></trkpt>
<trkpt lat="23.134504" lon="114.121175">
<time>2016-10-06T09:32:29Z</time></trkpt>
<trkpt lat="23.134504" lon="114.121155">
<time>2016-10-06T09:32:30Z</time></trkpt>
<trkpt lat="23.134504" lon="114.121125">
<time>2016-10-06T09:32:31Z</time></trkpt>
<trkpt lat="23.134494" lon="114.121055">
<time>2016-10-06T09:32:32Z</time></trkpt>
<trkpt lat="23.134484" lon="114.121015">
<time>2016-10-06T09:32:33Z</time></trkpt>
<trkpt lat="23.134454" lon="114.120935">
<time>2016-10-06T09:32:34Z</time></trkpt>
<trkpt lat="23.134434" lon="114.120865">
<time>2016-10-06T09:32:35Z</time></trkpt>
<trkpt lat="23.134353" lon="114.120684">
<time>2016-10-06T09:32:36Z</time></trkpt>
<trkpt lat="23.134333" lon="114.120604">
<time>2016-10-06T09:32:37Z</time></trkpt>
<trkpt lat="23.134313" lon="114.120534">
<time>2016-10-06T09:32:38Z</time></trkpt>
<trkpt lat="23.134303" lon="114.120494">
<time>2016-10-06T09:32:39Z</time></trkpt>
<trkpt lat="23.134293" lon="114.120454">
<time>2016-10-06T09:32:40Z</time></trkpt>
<trkpt lat="23.134293" lon="114.120404">
<time>2016-10-06T09:32:41Z</time></trkpt>
<trkpt lat="23.134283" lon="114.120354">
<time>2016-10-06T09:32:42Z</time></trkpt>
<trkpt lat="23.134283" lon="114.120324">
<time>2016-10-06T09:32:43Z</time></trkpt>
<trkpt lat="23.134283" lon="114.120233">
<time>2016-10-06T09:32:44Z</time></trkpt>
<trkpt lat="23.134283" lon="114.120143">
<time>2016-10-06T09:32:45Z</time></trkpt>
<trkpt lat="23.134283" lon="114.120123">
<time>2016-10-06T09:32:46Z</time></trkpt>
<trkpt lat="23.134283" lon="114.120103">
<time>2016-10-06T09:32:47Z</time></trkpt>
<trkpt lat="23.134283" lon="114.120073">
<time>2016-10-06T09:32:48Z</time></trkpt>
<trkpt lat="23.134273" lon="114.120053">
<time>2016-10-06T09:32:49Z</time></trkpt>
<trkpt lat="23.134263" lon="114.120023">
<time>2016-10-06T09:32:50Z</time></trkpt>
<trkpt lat="23.134233" lon="114.119953">
<time>2016-10-06T09:32:51Z</time></trkpt>
<trkpt lat="23.134203" lon="114.119873">
<time>2016-10-06T09:32:52Z</time></trkpt>
<trkpt lat="23.134173" lon="114.119823">
<time>2016-10-06T09:32:53Z</time></trkpt>
<trkpt lat="23.134103" lon="114.119723">
<time>2016-10-06T09:32:54Z</time></trkpt>
<trkpt lat="23.133892" lon="114.119412">
<time>2016-10-06T09:32:55Z</time></trkpt>
<trkpt lat="23.133802" lon="114.119292">
<time>2016-10-06T09:32:56Z</time></trkpt>
<trkpt lat="23.133692" lon="114.119172">
<time>2016-10-06T09:32:57Z</time></trkpt>
<trkpt lat="23.133202" lon="114.118641">
<time>2016-10-06T09:32:58Z</time></trkpt>
<trkpt lat="23.133182" lon="114.118631">
<time>2016-10-06T09:32:59Z</time></trkpt>
<trkpt lat="23.133162" lon="114.118611">
<time>2016-10-06T09:33:00Z</time></trkpt>
<trkpt lat="23.133132" lon="114.118591">
<time>2016-10-06T09:33:01Z</time></trkpt>
<trkpt lat="23.133112" lon="114.118571">
<time>2016-10-06T09:33:02Z</time></trkpt>
<trkpt lat="23.133092" lon="114.118571">
<time>2016-10-06T09:33:03Z</time></trkpt>
<trkpt lat="23.133082" lon="114.118561">
<time>2016-10-06T09:33:04Z</time></trkpt>
<trkpt lat="23.133062" lon="114.118561">
<time>2016-10-06T09:33:05Z</time></trkpt>
<trkpt lat="23.133042" lon="114.118561">
<time>2016-10-06T09:33:06Z</time></trkpt>
<trkpt lat="23.133022" lon="114.118561">
<time>2016-10-06T09:33:07Z</time></trkpt>
<trkpt lat="23.133012" lon="114.118561">
<time>2016-10-06T09:33:08Z</time></trkpt>
<trkpt lat="23.132992" lon="114.118561">
<time>2016-10-06T09:33:09Z</time></trkpt>
<trkpt lat="23.132972" lon="114.118561">
<time>2016-10-06T09:33:10Z</time></trkpt>
<trkpt lat="23.132942" lon="114.118561">
<time>2016-10-06T09:33:11Z</time></trkpt>
<trkpt lat="23.132922" lon="114.118561">
<time>2016-10-06T09:33:12Z</time></trkpt>
<trkpt lat="23.132882" lon="114.118571">
<time>2016-10-06T09:33:13Z</time></trkpt>
<trkpt lat="23.132872" lon="114.118571">
<time>2016-10-06T09:33:14Z</time></trkpt>
<trkpt lat="23.132832" lon="114.118561">
<time>2016-10-06T09:33:15Z</time></trkpt>
<trkpt lat="23.132802" lon="114.118561">
<time>2016-10-06T09:33:16Z</time></trkpt>
<trkpt lat="23.132782" lon="114.118551">
<time>2016-10-06T09:33:17Z</time></trkpt>
<trkpt lat="23.132462" lon="114.11848">
<time>2016-10-06T09:33:18Z</time></trkpt>
<trkpt lat="23.132462" lon="114.11848">
<time>2016-10-06T09:33:19Z</time></trkpt>
<trkpt lat="23.132472" lon="114.11816">
<time>2016-10-06T09:33:20Z</time></trkpt>
<trkpt lat="23.132471" lon="114.117839">
<time>2016-10-06T09:33:21Z</time></trkpt>
<trkpt lat="23.132481" lon="114.117469">
<time>2016-10-06T09:33:22Z</time></trkpt>
<trkpt lat="23.132481" lon="114.117459">
<time>2016-10-06T09:33:23Z</time></trkpt>
<trkpt lat="23.132511" lon="114.117258">
<time>2016-10-06T09:33:24Z</time></trkpt>
<trkpt lat="23.13255" lon="114.117038">
<time>2016-10-06T09:33:25Z</time></trkpt>
<trkpt lat="23.13257" lon="114.116988">
<time>2016-10-06T09:33:26Z</time></trkpt>
<trkpt lat="23.1326" lon="114.116868">
<time>2016-10-06T09:33:27Z</time></trkpt>
<trkpt lat="23.13261" lon="114.116827">
<time>2016-10-06T09:33:28Z</time></trkpt>
<trkpt lat="23.13264" lon="114.116587">
<time>2016-10-06T09:33:29Z</time></trkpt>
<trkpt lat="23.13266" lon="114.116417">
<time>2016-10-06T09:33:30Z</time></trkpt>
<trkpt lat="23.13267" lon="114.116327">
<time>2016-10-06T09:33:31Z</time></trkpt>
<trkpt lat="23.13268" lon="114.116246">
<time>2016-10-06T09:33:32Z</time></trkpt>
<trkpt lat="23.132678" lon="114.114393">
<time>2016-10-06T09:33:33Z</time></trkpt>
<trkpt lat="23.132668" lon="114.114273">
<time>2016-10-06T09:33:34Z</time></trkpt>
<trkpt lat="23.132668" lon="114.114273">
<time>2016-10-06T09:33:35Z</time></trkpt>
<trkpt lat="23.132658" lon="114.114113">
<time>2016-10-06T09:33:36Z</time></trkpt>
<trkpt lat="23.132648" lon="114.113993">
<time>2016-10-06T09:33:37Z</time></trkpt>
<trkpt lat="23.132607" lon="114.113552">
<time>2016-10-06T09:33:38Z</time></trkpt>
<trkpt lat="23.132597" lon="114.113462">
<time>2016-10-06T09:33:39Z</time></trkpt>
<trkpt lat="23.132547" lon="114.113121">
<time>2016-10-06T09:33:40Z</time></trkpt>
<trkpt lat="23.132416" lon="114.11224">
<time>2016-10-06T09:33:41Z</time></trkpt>
<trkpt lat="23.132256" lon="114.111198">
<time>2016-10-06T09:33:42Z</time></trkpt>
<trkpt lat="23.132025" lon="114.109676">
<time>2016-10-06T09:33:43Z</time></trkpt>
<trkpt lat="23.132004" lon="114.109506">
<time>2016-10-06T09:33:44Z</time></trkpt>
<trkpt lat="23.131332" lon="114.104549">
<time>2016-10-06T09:33:45Z</time></trkpt>
<trkpt lat="23.131312" lon="114.104349">
<time>2016-10-06T09:33:46Z</time></trkpt>
<trkpt lat="23.131292" lon="114.104089">
<time>2016-10-06T09:33:47Z</time></trkpt>
<trkpt lat="23.131292" lon="114.104059">
<time>2016-10-06T09:33:48Z</time></trkpt>
<trkpt lat="23.131292" lon="114.103968">
<time>2016-10-06T09:33:49Z</time></trkpt>
<trkpt lat="23.131292" lon="114.103888">
<time>2016-10-06T09:33:50Z</time></trkpt>
<trkpt lat="23.13161" lon="114.099934">
<time>2016-10-06T09:33:51Z</time></trkpt>
<trkpt lat="23.13164" lon="114.099734">
<time>2016-10-06T09:33:52Z</time></trkpt>
<trkpt lat="23.13166" lon="114.099624">
<time>2016-10-06T09:33:53Z</time></trkpt>
<trkpt lat="23.13171" lon="114.099463">
<time>2016-10-06T09:33:54Z</time></trkpt>
<trkpt lat="23.133428" lon="114.095169">
<time>2016-10-06T09:33:55Z</time></trkpt>
<trkpt lat="23.133488" lon="114.094999">
<time>2016-10-06T09:33:56Z</time></trkpt>
<trkpt lat="23.133518" lon="114.094869">
<time>2016-10-06T09:33:57Z</time></trkpt>
<trkpt lat="23.133538" lon="114.094739">
<time>2016-10-06T09:33:58Z</time></trkpt>
<trkpt lat="23.133548" lon="114.094649">
<time>2016-10-06T09:33:59Z</time></trkpt>
<trkpt lat="23.133868" lon="114.091196">
<time>2016-10-06T09:34:00Z</time></trkpt>
<trkpt lat="23.133878" lon="114.091016">
<time>2016-10-06T09:34:01Z</time></trkpt>
<trkpt lat="23.133878" lon="114.090856">
<time>2016-10-06T09:34:02Z</time></trkpt>
<trkpt lat="23.133878" lon="114.090516">
<time>2016-10-06T09:34:03Z</time></trkpt>
<trkpt lat="23.133828" lon="114.088935">
<time>2016-10-06T09:34:04Z</time></trkpt>
<trkpt lat="23.133818" lon="114.088555">
<time>2016-10-06T09:34:05Z</time></trkpt>
<trkpt lat="23.133808" lon="114.088425">
<time>2016-10-06T09:34:06Z</time></trkpt>
<trkpt lat="23.133788" lon="114.088255">
<time>2016-10-06T09:34:07Z</time></trkpt>
<trkpt lat="23.133768" lon="114.088185">
<time>2016-10-06T09:34:08Z</time></trkpt>
<trkpt lat="23.133758" lon="114.088125">
<time>2016-10-06T09:34:09Z</time></trkpt>
<trkpt lat="23.133399" lon="114.087014">
<time>2016-10-06T09:34:10Z</time></trkpt>
<trkpt lat="23.133299" lon="114.086724">
<time>2016-10-06T09:34:11Z</time></trkpt>
<trkpt lat="23.132989" lon="114.085844">
<time>2016-10-06T09:34:12Z</time></trkpt>
<trkpt lat="23.132061" lon="114.083243">
<time>2016-10-06T09:34:13Z</time></trkpt>
<trkpt lat="23.131981" lon="114.083033">
<time>2016-10-06T09:34:14Z</time></trkpt>
<trkpt lat="23.130943" lon="114.079972">
<time>2016-10-06T09:34:15Z</time></trkpt>
<trkpt lat="23.130254" lon="114.077882">
<time>2016-10-06T09:34:16Z</time></trkpt>
<trkpt lat="23.130155" lon="114.077562">
<time>2016-10-06T09:34:17Z</time></trkpt>
<trkpt lat="23.130045" lon="114.077282">
<time>2016-10-06T09:34:18Z</time></trkpt>
<trkpt lat="23.129955" lon="114.077112">
<time>2016-10-06T09:34:19Z</time></trkpt>
<trkpt lat="23.129516" lon="114.076432">
<time>2016-10-06T09:34:20Z</time></trkpt>
<trkpt lat="23.129496" lon="114.076402">
<time>2016-10-06T09:34:21Z</time></trkpt>
<trkpt lat="23.129476" lon="114.076362">
<time>2016-10-06T09:34:22Z</time></trkpt>
<trkpt lat="23.129456" lon="114.076303">
<time>2016-10-06T09:34:23Z</time></trkpt>
<trkpt lat="23.129426" lon="114.076213">
<time>2016-10-06T09:34:24Z</time></trkpt>
<trkpt lat="23.129416" lon="114.076173">
<time>2016-10-06T09:34:25Z</time></trkpt>
<trkpt lat="23.129406" lon="114.076133">
<time>2016-10-06T09:34:26Z</time></trkpt>
<trkpt lat="23.129406" lon="114.076113">
<time>2016-10-06T09:34:27Z</time></trkpt>
<trkpt lat="23.129406" lon="114.076083">
<time>2016-10-06T09:34:28Z</time></trkpt>
<trkpt lat="23.129406" lon="114.076013">
<time>2016-10-06T09:34:29Z</time></trkpt>
<trkpt lat="23.129406" lon="114.075943">
<time>2016-10-06T09:34:30Z</time></trkpt>
<trkpt lat="23.129406" lon="114.075903">
<time>2016-10-06T09:34:31Z</time></trkpt>
<trkpt lat="23.129406" lon="114.075873">
<time>2016-10-06T09:34:32Z</time></trkpt>
<trkpt lat="23.129396" lon="114.075823">
<time>2016-10-06T09:34:33Z</time></trkpt>
<trkpt lat="23.128859" lon="114.072483">
<time>2016-10-06T09:34:34Z</time></trkpt>
<trkpt lat="23.12879" lon="114.071953">
<time>2016-10-06T09:34:35Z</time></trkpt>
<trkpt lat="23.12875" lon="114.071424">
<time>2016-10-06T09:34:36Z</time></trkpt>
<trkpt lat="23.128632" lon="114.069884">
<time>2016-10-06T09:34:37Z</time></trkpt>
<trkpt lat="23.128622" lon="114.069784">
<time>2016-10-06T09:34:38Z</time></trkpt>
<trkpt lat="23.128602" lon="114.069714">
<time>2016-10-06T09:34:39Z</time></trkpt>
<trkpt lat="23.128572" lon="114.069574">
<time>2016-10-06T09:34:40Z</time></trkpt>
<trkpt lat="23.128522" lon="114.069444">
<time>2016-10-06T09:34:41Z</time></trkpt>
<trkpt lat="23.128413" lon="114.069144">
<time>2016-10-06T09:34:42Z</time></trkpt>
<trkpt lat="23.128393" lon="114.069074">
<time>2016-10-06T09:34:43Z</time></trkpt>
<trkpt lat="23.128363" lon="114.069024">
<time>2016-10-06T09:34:44Z</time></trkpt>
<trkpt lat="23.128313" lon="114.068915">
<time>2016-10-06T09:34:45Z</time></trkpt>
<trkpt lat="23.127724" lon="114.067925">
<time>2016-10-06T09:34:46Z</time></trkpt>
<trkpt lat="23.127535" lon="114.067615">
<time>2016-10-06T09:34:47Z</time></trkpt>
<trkpt lat="23.127495" lon="114.067515">
<time>2016-10-06T09:34:48Z</time></trkpt>
<trkpt lat="23.127455" lon="114.067435">
<time>2016-10-06T09:34:49Z</time></trkpt>
<trkpt lat="23.127445" lon="114.067385">
<time>2016-10-06T09:34:50Z</time></trkpt>
<trkpt lat="23.127435" lon="114.067345">
<time>2016-10-06T09:34:51Z</time></trkpt>
<trkpt lat="23.127425" lon="114.067295">
<time>2016-10-06T09:34:52Z</time></trkpt>
<trkpt lat="23.127415" lon="114.067215">
<time>2016-10-06T09:34:53Z</time></trkpt>
<trkpt lat="23.127405" lon="114.067115">
<time>2016-10-06T09:34:54Z</time></trkpt>
<trkpt lat="23.127406" lon="114.066976">
<time>2016-10-06T09:34:55Z</time></trkpt>
<trkpt lat="23.127406" lon="114.066436">
<time>2016-10-06T09:34:56Z</time></trkpt>
<trkpt lat="23.127377" lon="114.065776">
<time>2016-10-06T09:34:57Z</time></trkpt>
<trkpt lat="23.127367" lon="114.065636">
<time>2016-10-06T09:34:58Z</time></trkpt>
<trkpt lat="23.127347" lon="114.065486">
<time>2016-10-06T09:34:59Z</time></trkpt>
<trkpt lat="23.127328" lon="114.065416">
<time>2016-10-06T09:35:00Z</time></trkpt>
<trkpt lat="23.127318" lon="114.065366">
<time>2016-10-06T09:35:01Z</time></trkpt>
<trkpt lat="23.127258" lon="114.065167">
<time>2016-10-06T09:35:02Z</time></trkpt>
<trkpt lat="23.126909" lon="114.064157">
<time>2016-10-06T09:35:03Z</time></trkpt>
<trkpt lat="23.126909" lon="114.064157">
<time>2016-10-06T09:35:04Z</time></trkpt>
<trkpt lat="23.126939" lon="114.064087">
<time>2016-10-06T09:35:05Z</time></trkpt>
<trkpt lat="23.12701" lon="114.063937">
<time>2016-10-06T09:35:06Z</time></trkpt>
<trkpt lat="23.12704" lon="114.063887">
<time>2016-10-06T09:35:07Z</time></trkpt>
<trkpt lat="23.12705" lon="114.063847">
<time>2016-10-06T09:35:08Z</time></trkpt>
<trkpt lat="23.12707" lon="114.063807">
<time>2016-10-06T09:35:09Z</time></trkpt>
<trkpt lat="23.12708" lon="114.063767">
<time>2016-10-06T09:35:10Z</time></trkpt>
<trkpt lat="23.12711" lon="114.063618">
<time>2016-10-06T09:35:11Z</time></trkpt>
<trkpt lat="23.12713" lon="114.063558">
<time>2016-10-06T09:35:12Z</time></trkpt>
<trkpt lat="23.12714" lon="114.063488">
<time>2016-10-06T09:35:13Z</time></trkpt>
<trkpt lat="23.12715" lon="114.063478">
<time>2016-10-06T09:35:14Z</time></trkpt>
<trkpt lat="23.12716" lon="114.063458">
<time>2016-10-06T09:35:15Z</time></trkpt>
<trkpt lat="23.12717" lon="114.063458">
<time>2016-10-06T09:35:16Z</time></trkpt>
<trkpt lat="23.12718" lon="114.063448">
<time>2016-10-06T09:35:17Z</time></trkpt>
<trkpt lat="23.12721" lon="114.063428">
<time>2016-10-06T09:35:18Z</time></trkpt>
<trkpt lat="23.12723" lon="114.063418">
<time>2016-10-06T09:35:19Z</time></trkpt>
<trkpt lat="23.12725" lon="114.063418">
<time>2016-10-06T09:35:20Z</time></trkpt>
<trkpt lat="23.12733" lon="114.063418">
<time>2016-10-06T09:35:21Z</time></trkpt>
<trkpt lat="23.12752" lon="114.063408">
<time>2016-10-06T09:35:22Z</time></trkpt>
<trkpt lat="23.12757" lon="114.063398">
<time>2016-10-06T09:35:23Z</time></trkpt>
<trkpt lat="23.12768" lon="114.063378">
<time>2016-10-06T09:35:24Z</time></trkpt>
<trkpt lat="23.12774" lon="114.063378">
<time>2016-10-06T09:35:25Z</time></trkpt>
<trkpt lat="23.12782" lon="114.063378">
<time>2016-10-06T09:35:26Z</time></trkpt>
<trkpt lat="23.128" lon="114.063378">
<time>2016-10-06T09:35:27Z</time></trkpt>
<trkpt lat="23.12816" lon="114.063388">
<time>2016-10-06T09:35:28Z</time></trkpt>
<trkpt lat="23.12821" lon="114.063388">
<time>2016-10-06T09:35:29Z</time></trkpt>
<trkpt lat="23.12824" lon="114.063388">
<time>2016-10-06T09:35:30Z</time></trkpt>
<trkpt lat="23.12831" lon="114.063378">
<time>2016-10-06T09:35:31Z</time></trkpt>
<trkpt lat="23.12833" lon="114.063368">
<time>2016-10-06T09:35:32Z</time></trkpt>
<trkpt lat="23.12836" lon="114.063368">
<time>2016-10-06T09:35:33Z</time></trkpt>
<trkpt lat="23.12838" lon="114.063348">
<time>2016-10-06T09:35:34Z</time></trkpt>
<trkpt lat="23.12841" lon="114.063328">
<time>2016-10-06T09:35:35Z</time></trkpt>
<trkpt lat="23.12843" lon="114.063308">
<time>2016-10-06T09:35:36Z</time></trkpt>
<trkpt lat="23.12844" lon="114.063298">
<time>2016-10-06T09:35:37Z</time></trkpt>
<trkpt lat="23.12844" lon="114.063278">
<time>2016-10-06T09:35:38Z</time></trkpt>
<trkpt lat="23.12846" lon="114.063228">
<time>2016-10-06T09:35:39Z</time></trkpt>
<trkpt lat="23.12847" lon="114.063198">
<time>2016-10-06T09:35:40Z</time></trkpt>
<trkpt lat="23.12849" lon="114.063168">
<time>2016-10-06T09:35:41Z</time></trkpt>
<trkpt lat="23.12851" lon="114.063138">
<time>2016-10-06T09:35:42Z</time></trkpt>
<trkpt lat="23.12853" lon="114.063108">
<time>2016-10-06T09:35:43Z</time></trkpt>
<trkpt lat="23.12855" lon="114.063078">
<time>2016-10-06T09:35:44Z</time></trkpt>
<trkpt lat="23.12857" lon="114.063058">
<time>2016-10-06T09:35:45Z</time></trkpt>
<trkpt lat="23.1286" lon="114.063038">
<time>2016-10-06T09:35:46Z</time></trkpt>
<trkpt lat="23.12862" lon="114.063018">
<time>2016-10-06T09:35:47Z</time></trkpt>
<trkpt lat="23.12865" lon="114.062998">
<time>2016-10-06T09:35:48Z</time></trkpt>
<trkpt lat="23.12871" lon="114.062958">
<time>2016-10-06T09:35:49Z</time></trkpt>
<trkpt lat="23.12883" lon="114.062868">
<time>2016-10-06T09:35:50Z</time></trkpt>
<trkpt lat="23.12889" lon="114.062818">
<time>2016-10-06T09:35:51Z</time></trkpt>
<trkpt lat="23.12895" lon="114.062768">
<time>2016-10-06T09:35:52Z</time></trkpt>
<trkpt lat="23.12901" lon="114.062718">
<time>2016-10-06T09:35:53Z</time></trkpt>
<trkpt lat="23.12906" lon="114.062658">
<time>2016-10-06T09:35:54Z</time></trkpt>
<trkpt lat="23.12912" lon="114.062608">
<time>2016-10-06T09:35:55Z</time></trkpt>
<trkpt lat="23.129171" lon="114.062548">
<time>2016-10-06T09:35:56Z</time></trkpt>
<trkpt lat="23.129201" lon="114.062528">
<time>2016-10-06T09:35:57Z</time></trkpt>
<trkpt lat="23.129251" lon="114.062458">
<time>2016-10-06T09:35:58Z</time></trkpt>
<trkpt lat="23.129271" lon="114.062428">
<time>2016-10-06T09:35:59Z</time></trkpt>
<trkpt lat="23.129301" lon="114.062398">
<time>2016-10-06T09:36:00Z</time></trkpt>
<trkpt lat="23.129321" lon="114.062388">
<time>2016-10-06T09:36:01Z</time></trkpt>
<trkpt lat="23.129351" lon="114.062368">
<time>2016-10-06T09:36:02Z</time></trkpt>
<trkpt lat="23.129371" lon="114.062358">
<time>2016-10-06T09:36:03Z</time></trkpt>
<trkpt lat="23.129421" lon="114.062348">
<time>2016-10-06T09:36:04Z</time></trkpt>
<trkpt lat="23.129451" lon="114.062348">
<time>2016-10-06T09:36:05Z</time></trkpt>
<trkpt lat="23.129481" lon="114.062338">
<time>2016-10-06T09:36:06Z</time></trkpt>
<trkpt lat="23.129561" lon="114.062348">
<time>2016-10-06T09:36:07Z</time></trkpt>
<trkpt lat="23.129611" lon="114.062348">
<time>2016-10-06T09:36:08Z</time></trkpt>
<trkpt lat="23.129671" lon="114.062358">
<time>2016-10-06T09:36:09Z</time></trkpt>
<trkpt lat="23.129721" lon="114.062378">
<time>2016-10-06T09:36:10Z</time></trkpt>
<trkpt lat="23.12984" lon="114.062418">
<time>2016-10-06T09:36:11Z</time></trkpt>
<trkpt lat="23.12989" lon="114.062428">
<time>2016-10-06T09:36:12Z</time></trkpt>
<trkpt lat="23.13003" lon="114.062468">
<time>2016-10-06T09:36:13Z</time></trkpt>
<trkpt lat="23.13007" lon="114.062478">
<time>2016-10-06T09:36:14Z</time></trkpt>
<trkpt lat="23.1301" lon="114.062478">
<time>2016-10-06T09:36:15Z</time></trkpt>
<trkpt lat="23.13015" lon="114.062478">
<time>2016-10-06T09:36:16Z</time></trkpt>
<trkpt lat="23.13026" lon="114.062458">
<time>2016-10-06T09:36:17Z</time></trkpt>
<trkpt lat="23.13034" lon="114.062458">
<time>2016-10-06T09:36:18Z</time></trkpt>
<trkpt lat="23.13039" lon="114.062458">
<time>2016-10-06T09:36:19Z</time></trkpt>
<trkpt lat="23.13044" lon="114.062458">
<time>2016-10-06T09:36:20Z</time></trkpt>
<trkpt lat="23.13045" lon="114.062458">
<time>2016-10-06T09:36:21Z</time></trkpt>
<trkpt lat="23.13046" lon="114.062458">
<time>2016-10-06T09:36:22Z</time></trkpt>
<trkpt lat="23.13048" lon="114.062448">
<time>2016-10-06T09:36:23Z</time></trkpt>
<trkpt lat="23.1305" lon="114.062418">
<time>2016-10-06T09:36:24Z</time></trkpt>
<trkpt lat="23.13054" lon="114.062368">
<time>2016-10-06T09:36:25Z</time></trkpt>
<trkpt lat="23.13058" lon="114.062338">
<time>2016-10-06T09:36:26Z</time></trkpt>
<trkpt lat="23.13061" lon="114.062308">
<time>2016-10-06T09:36:27Z</time></trkpt>
<trkpt lat="23.13065" lon="114.062278">
<time>2016-10-06T09:36:28Z</time></trkpt>
<trkpt lat="23.13069" lon="114.062258">
<time>2016-10-06T09:36:29Z</time></trkpt>
<trkpt lat="23.13071" lon="114.062248">
<time>2016-10-06T09:36:30Z</time></trkpt>
<trkpt lat="23.13073" lon="114.062238">
<time>2016-10-06T09:36:31Z</time></trkpt>
<trkpt lat="23.13083" lon="114.062208">
<time>2016-10-06T09:36:32Z</time></trkpt>
<trkpt lat="23.13086" lon="114.062198">
<time>2016-10-06T09:36:33Z</time></trkpt>
<trkpt lat="23.13092" lon="114.062168">
<time>2016-10-06T09:36:34Z</time></trkpt>
<trkpt lat="23.13106" lon="114.062078">
<time>2016-10-06T09:36:35Z</time></trkpt>
<trkpt lat="23.13112" lon="114.062048">
<time>2016-10-06T09:36:36Z</time></trkpt>
<trkpt lat="23.13118" lon="114.062018">
<time>2016-10-06T09:36:37Z</time></trkpt>
<trkpt lat="23.13133" lon="114.061968">
<time>2016-10-06T09:36:38Z</time></trkpt>
<trkpt lat="23.13141" lon="114.061939">
<time>2016-10-06T09:36:39Z</time></trkpt>
<trkpt lat="23.13143" lon="114.061929">
<time>2016-10-06T09:36:40Z</time></trkpt>
<trkpt lat="23.13144" lon="114.061919">
<time>2016-10-06T09:36:41Z</time></trkpt>
<trkpt lat="23.13147" lon="114.061909">
<time>2016-10-06T09:36:42Z</time></trkpt>
<trkpt lat="23.13149" lon="114.061889">
<time>2016-10-06T09:36:43Z</time></trkpt>
<trkpt lat="23.131501" lon="114.061859">
<time>2016-10-06T09:36:44Z</time></trkpt>
<trkpt lat="23.131521" lon="114.061829">
<time>2016-10-06T09:36:45Z</time></trkpt>
<trkpt lat="23.131531" lon="114.061799">
<time>2016-10-06T09:36:46Z</time></trkpt>
<trkpt lat="23.131551" lon="114.061699">
<time>2016-10-06T09:36:47Z</time></trkpt>
<trkpt lat="23.131581" lon="114.061609">
<time>2016-10-06T09:36:48Z</time></trkpt>
<trkpt lat="23.131601" lon="114.061509">
<time>2016-10-06T09:36:49Z</time></trkpt>
<trkpt lat="23.131621" lon="114.061399">
<time>2016-10-06T09:36:50Z</time></trkpt>
<trkpt lat="23.131641" lon="114.061289">
<time>2016-10-06T09:36:51Z</time></trkpt>
<trkpt lat="23.131661" lon="114.061169">
<time>2016-10-06T09:36:52Z</time></trkpt>
<trkpt lat="23.131671" lon="114.061129">
<time>2016-10-06T09:36:53Z</time></trkpt>
<trkpt lat="23.131672" lon="114.061079">
<time>2016-10-06T09:36:54Z</time></trkpt>
<trkpt lat="23.131672" lon="114.061039">
<time>2016-10-06T09:36:55Z</time></trkpt>
<trkpt lat="23.131662" lon="114.061019">
<time>2016-10-06T09:36:56Z</time></trkpt>
<trkpt lat="23.131642" lon="114.060959">
<time>2016-10-06T09:36:57Z</time></trkpt>
<trkpt lat="23.131632" lon="114.060929">
<time>2016-10-06T09:36:58Z</time></trkpt>
<trkpt lat="23.131632" lon="114.060909">
<time>2016-10-06T09:36:59Z</time></trkpt>
<trkpt lat="23.131632" lon="114.060889">
<time>2016-10-06T09:37:00Z</time></trkpt>
<trkpt lat="23.131662" lon="114.060799">
<time>2016-10-06T09:37:01Z</time></trkpt>
<trkpt lat="23.131682" lon="114.060669">
<time>2016-10-06T09:37:02Z</time></trkpt>
<trkpt lat="23.131712" lon="114.06044">
<time>2016-10-06T09:37:03Z</time></trkpt>
<trkpt lat="23.131723" lon="114.06035">
<time>2016-10-06T09:37:04Z</time></trkpt>
<trkpt lat="23.131763" lon="114.06016">
<time>2016-10-06T09:37:05Z</time></trkpt>
<trkpt lat="23.131773" lon="114.06007">
<time>2016-10-06T09:37:06Z</time></trkpt>
<trkpt lat="23.131783" lon="114.05997">
<time>2016-10-06T09:37:07Z</time></trkpt>
<trkpt lat="23.131793" lon="114.05988">
<time>2016-10-06T09:37:08Z</time></trkpt>
<trkpt lat="23.131793" lon="114.05979">
<time>2016-10-06T09:37:09Z</time></trkpt>
<trkpt lat="23.131783" lon="114.05973">
<time>2016-10-06T09:37:10Z</time></trkpt>
<trkpt lat="23.131784" lon="114.0597">
<time>2016-10-06T09:37:11Z</time></trkpt>
<trkpt lat="23.131764" lon="114.05963">
<time>2016-10-06T09:37:12Z</time></trkpt>
<trkpt lat="23.131754" lon="114.0596">
<time>2016-10-06T09:37:13Z</time></trkpt>
<trkpt lat="23.131754" lon="114.05957">
<time>2016-10-06T09:37:14Z</time></trkpt>
<trkpt lat="23.131754" lon="114.05952">
<time>2016-10-06T09:37:15Z</time></trkpt>
<trkpt lat="23.131754" lon="114.059401">
<time>2016-10-06T09:37:16Z</time></trkpt>
<trkpt lat="23.131754" lon="114.059351">
<time>2016-10-06T09:37:17Z</time></trkpt>
<trkpt lat="23.131744" lon="114.059301">
<time>2016-10-06T09:37:18Z</time></trkpt>
<trkpt lat="23.131734" lon="114.059251">
<time>2016-10-06T09:37:19Z</time></trkpt>
<trkpt lat="23.131724" lon="114.059191">
<time>2016-10-06T09:37:20Z</time></trkpt>
<trkpt lat="23.131724" lon="114.059191">
<time>2016-10-06T09:37:21Z</time></trkpt>
<trkpt lat="23.131734" lon="114.059191">
<time>2016-10-06T09:37:22Z</time></trkpt>
<trkpt lat="23.131754" lon="114.059191">
<time>2016-10-06T09:37:23Z</time></trkpt>
<trkpt lat="23.131784" lon="114.059181">
<time>2016-10-06T09:37:24Z</time></trkpt>
<trkpt lat="23.131804" lon="114.059181">
<time>2016-10-06T09:37:25Z</time></trkpt>
<trkpt lat="23.131804" lon="114.059171">
<time>2016-10-06T09:37:26Z</time></trkpt>
<trkpt lat="23.131824" lon="114.059161">
<time>2016-10-06T09:37:27Z</time></trkpt>
<trkpt lat="23.131914" lon="114.059091">
<time>2016-10-06T09:37:28Z</time></trkpt>
<trkpt lat="23.132034" lon="114.058991">
<time>2016-10-06T09:37:29Z</time></trkpt>
<trkpt lat="23.132095" lon="114.058941">
<time>2016-10-06T09:37:30Z</time></trkpt>
<trkpt lat="23.132155" lon="114.058891">
<time>2016-10-06T09:37:31Z</time></trkpt>
<trkpt lat="23.132225" lon="114.058821">
<time>2016-10-06T09:37:32Z</time></trkpt>
<trkpt lat="23.132275" lon="114.058771">
<time>2016-10-06T09:37:33Z</time></trkpt>
<trkpt lat="23.132325" lon="114.058731">
<time>2016-10-06T09:37:34Z</time></trkpt>
<trkpt lat="23.132365" lon="114.058681">
<time>2016-10-06T09:37:35Z</time></trkpt>
<trkpt lat="23.132405" lon="114.058631">
<time>2016-10-06T09:37:36Z</time></trkpt>
<trkpt lat="23.132435" lon="114.058581">
<time>2016-10-06T09:37:37Z</time></trkpt>
<trkpt lat="23.132475" lon="114.058521">
<time>2016-10-06T09:37:38Z</time></trkpt>
<trkpt lat="23.132555" lon="114.058371">
<time>2016-10-06T09:37:39Z</time></trkpt>
<trkpt lat="23.132605" lon="114.058292">
<time>2016-10-06T09:37:40Z</time></trkpt>
<trkpt lat="23.132695" lon="114.058162">
<time>2016-10-06T09:37:41Z</time></trkpt>
<trkpt lat="23.132746" lon="114.058092">
<time>2016-10-06T09:37:42Z</time></trkpt>
<trkpt lat="23.132796" lon="114.058022">
<time>2016-10-06T09:37:43Z</time></trkpt>
<trkpt lat="23.132846" lon="114.057972">
<time>2016-10-06T09:37:44Z</time></trkpt>
<trkpt lat="23.132896" lon="114.057922">
<time>2016-10-06T09:37:45Z</time></trkpt>
<trkpt lat="23.132946" lon="114.057882">
<time>2016-10-06T09:37:46Z</time></trkpt>
<trkpt lat="23.132986" lon="114.057842">
<time>2016-10-06T09:37:47Z</time></trkpt>
<trkpt lat="23.133026" lon="114.057812">
<time>2016-10-06T09:37:48Z</time></trkpt>
<trkpt lat="23.133066" lon="114.057782">
<time>2016-10-06T09:37:49Z</time></trkpt>
<trkpt lat="23.133106" lon="114.057762">
<time>2016-10-06T09:37:50Z</time></trkpt>
<trkpt lat="23.133146" lon="114.057742">
<time>2016-10-06T09:37:51Z</time></trkpt>
<trkpt lat="23.133186" lon="114.057722">
<time>2016-10-06T09:37:52Z</time></trkpt>
<trkpt lat="23.133236" lon="114.057702">
<time>2016-10-06T09:37:53Z</time></trkpt>
<trkpt lat="23.133276" lon="114.057682">
<time>2016-10-06T09:37:54Z</time></trkpt>
<trkpt lat="23.133326" lon="114.057672">
<time>2016-10-06T09:37:55Z</time></trkpt>
<trkpt lat="23.133366" lon="114.057662">
<time>2016-10-06T09:37:56Z</time></trkpt>
<trkpt lat="23.134086" lon="114.057402">
<time>2016-10-06T09:37:57Z</time></trkpt>
<trkpt lat="23.134426" lon="114.057282">
<time>2016-10-06T09:37:58Z</time></trkpt>
<trkpt lat="23.134616" lon="114.057222">
<time>2016-10-06T09:37:59Z</time></trkpt>
<trkpt lat="23.134846" lon="114.057162">
<time>2016-10-06T09:38:00Z</time></trkpt>
<trkpt lat="23.135046" lon="114.057102">
<time>2016-10-06T09:38:01Z</time></trkpt>
<trkpt lat="23.135176" lon="114.057073">
<time>2016-10-06T09:38:02Z</time></trkpt>
<trkpt lat="23.135306" lon="114.057053">
<time>2016-10-06T09:38:03Z</time></trkpt>
<trkpt lat="23.135436" lon="114.057023">
<time>2016-10-06T09:38:04Z</time></trkpt>
<trkpt lat="23.135566" lon="114.057003">
<time>2016-10-06T09:38:05Z</time></trkpt>
<trkpt lat="23.135706" lon="114.056983">
<time>2016-10-06T09:38:06Z</time></trkpt>
<trkpt lat="23.135846" lon="114.056943">
<time>2016-10-06T09:38:07Z</time></trkpt>
<trkpt lat="23.135916" lon="114.056933">
<time>2016-10-06T09:38:08Z</time></trkpt>
<trkpt lat="23.135976" lon="114.056913">
<time>2016-10-06T09:38:09Z</time></trkpt>
<trkpt lat="23.136206" lon="114.056833">
<time>2016-10-06T09:38:10Z</time></trkpt>
<trkpt lat="23.136386" lon="114.056763">
<time>2016-10-06T09:38:11Z</time></trkpt>
<trkpt lat="23.136566" lon="114.056693">
<time>2016-10-06T09:38:12Z</time></trkpt>
<trkpt lat="23.136746" lon="114.056623">
<time>2016-10-06T09:38:13Z</time></trkpt>
<trkpt lat="23.136916" lon="114.056563">
<time>2016-10-06T09:38:14Z</time></trkpt>
<trkpt lat="23.136916" lon="114.056563">
<time>2016-10-06T09:38:15Z</time></trkpt>
<trkpt lat="23.136996" lon="114.056483">
<time>2016-10-06T09:38:16Z</time></trkpt>
<trkpt lat="23.137106" lon="114.056393">
<time>2016-10-06T09:38:17Z</time></trkpt>
<trkpt lat="23.137127" lon="114.056373">
<time>2016-10-06T09:38:18Z</time></trkpt>
<trkpt lat="23.137147" lon="114.056353">
<time>2016-10-06T09:38:19Z</time></trkpt>
<trkpt lat="23.137187" lon="114.056313">
<time>2016-10-06T09:38:20Z</time></trkpt>
<trkpt lat="23.137187" lon="114.056293">
<time>2016-10-06T09:38:21Z</time></trkpt>
<trkpt lat="23.137197" lon="114.056283">
<time>2016-10-06T09:38:22Z</time></trkpt>
<trkpt lat="23.137197" lon="114.056253">
<time>2016-10-06T09:38:23Z</time></trkpt>
<trkpt lat="23.137197" lon="114.056213">
<time>2016-10-06T09:38:24Z</time></trkpt>
<trkpt lat="23.137197" lon="114.056193">
<time>2016-10-06T09:38:25Z</time></trkpt>
<trkpt lat="23.137197" lon="114.056163">
<time>2016-10-06T09:38:26Z</time></trkpt>
<trkpt lat="23.137177" lon="114.056093">
<time>2016-10-06T09:38:27Z</time></trkpt>
<trkpt lat="23.137147" lon="114.056023">
<time>2016-10-06T09:38:28Z</time></trkpt>
<trkpt lat="23.137117" lon="114.055944">
<time>2016-10-06T09:38:29Z</time></trkpt>
<trkpt lat="23.137087" lon="114.055864">
<time>2016-10-06T09:38:30Z</time></trkpt>
<trkpt lat="23.137038" lon="114.055704">
<time>2016-10-06T09:38:31Z</time></trkpt>
<trkpt lat="23.136998" lon="114.055554">
<time>2016-10-06T09:38:32Z</time></trkpt>
<trkpt lat="23.136948" lon="114.055414">
<time>2016-10-06T09:38:33Z</time></trkpt>
<trkpt lat="23.136948" lon="114.055374">
<time>2016-10-06T09:38:34Z</time></trkpt>
<trkpt lat="23.136938" lon="114.055334">
<time>2016-10-06T09:38:35Z</time></trkpt>
<trkpt lat="23.136938" lon="114.055274">
<time>2016-10-06T09:38:36Z</time></trkpt>
<trkpt lat="23.136938" lon="114.055244">
<time>2016-10-06T09:38:37Z</time></trkpt>
<trkpt lat="23.136948" lon="114.055224">
<time>2016-10-06T09:38:38Z</time></trkpt>
<trkpt lat="23.136958" lon="114.055204">
<time>2016-10-06T09:38:39Z</time></trkpt>
<trkpt lat="23.136969" lon="114.055174">
<time>2016-10-06T09:38:40Z</time></trkpt>
<trkpt lat="23.137009" lon="114.055114">
<time>2016-10-06T09:38:41Z</time></trkpt>
<trkpt lat="23.137019" lon="114.055094">
<time>2016-10-06T09:38:42Z</time></trkpt>
<trkpt lat="23.137049" lon="114.055064">
<time>2016-10-06T09:38:43Z</time></trkpt>
<trkpt lat="23.137149" lon="114.054955">
<time>2016-10-06T09:38:44Z</time></trkpt>
<trkpt lat="23.137209" lon="114.054885">
<time>2016-10-06T09:38:45Z</time></trkpt>
<trkpt lat="23.137229" lon="114.054865">
<time>2016-10-06T09:38:46Z</time></trkpt>
<trkpt lat="23.137239" lon="114.054845">
<time>2016-10-06T09:38:47Z</time></trkpt>
<trkpt lat="23.137249" lon="114.054825">
<time>2016-10-06T09:38:48Z</time></trkpt>
<trkpt lat="23.137259" lon="114.054805">
<time>2016-10-06T09:38:49Z</time></trkpt>
<trkpt lat="23.137269" lon="114.054745">
<time>2016-10-06T09:38:50Z</time></trkpt>
<trkpt lat="23.137279" lon="114.054695">
<time>2016-10-06T09:38:51Z</time></trkpt>
<trkpt lat="23.137289" lon="114.054645">
<time>2016-10-06T09:38:52Z</time></trkpt>
<trkpt lat="23.137289" lon="114.054595">
<time>2016-10-06T09:38:53Z</time></trkpt>
<trkpt lat="23.13728" lon="114.054495">
<time>2016-10-06T09:38:54Z</time></trkpt>
<trkpt lat="23.13728" lon="114.054435">
<time>2016-10-06T09:38:55Z</time></trkpt>
<trkpt lat="23.13728" lon="114.054375">
<time>2016-10-06T09:38:56Z</time></trkpt>
<trkpt lat="23.13725" lon="114.054125">
<time>2016-10-06T09:38:57Z</time></trkpt>
<trkpt lat="23.13724" lon="114.053956">
<time>2016-10-06T09:38:58Z</time></trkpt>
<trkpt lat="23.137231" lon="114.053866">
<time>2016-10-06T09:38:59Z</time></trkpt>
<trkpt lat="23.137231" lon="114.053766">
<time>2016-10-06T09:39:00Z</time></trkpt>
<trkpt lat="23.137241" lon="114.053676">
<time>2016-10-06T09:39:01Z</time></trkpt>
<trkpt lat="23.137251" lon="114.053646">
<time>2016-10-06T09:39:02Z</time></trkpt>
<trkpt lat="23.137271" lon="114.053546">
<time>2016-10-06T09:39:03Z</time></trkpt>
<trkpt lat="23.137291" lon="114.053426">
<time>2016-10-06T09:39:04Z</time></trkpt>
<trkpt lat="23.137301" lon="114.053386">
<time>2016-10-06T09:39:05Z</time></trkpt>
<trkpt lat="23.137302" lon="114.053346">
<time>2016-10-06T09:39:06Z</time></trkpt>
<trkpt lat="23.137302" lon="114.053276">
<time>2016-10-06T09:39:07Z</time></trkpt>
<trkpt lat="23.137302" lon="114.053207">
<time>2016-10-06T09:39:08Z</time></trkpt>
<trkpt lat="23.137292" lon="114.053137">
<time>2016-10-06T09:39:09Z</time></trkpt>
<trkpt lat="23.137282" lon="114.053067">
<time>2016-10-06T09:39:10Z</time></trkpt>
<trkpt lat="23.137272" lon="114.053027">
<time>2016-10-06T09:39:11Z</time></trkpt>
<trkpt lat="23.137262" lon="114.052987">
<time>2016-10-06T09:39:12Z</time></trkpt>
<trkpt lat="23.137212" lon="114.052817">
<time>2016-10-06T09:39:13Z</time></trkpt>
<trkpt lat="23.137173" lon="114.052667">
<time>2016-10-06T09:39:14Z</time></trkpt>
<trkpt lat="23.137163" lon="114.052617">
<time>2016-10-06T09:39:15Z</time></trkpt>
<trkpt lat="23.137153" lon="114.052577">
<time>2016-10-06T09:39:16Z</time></trkpt>
<trkpt lat="23.137143" lon="114.052507">
<time>2016-10-06T09:39:17Z</time></trkpt>
<trkpt lat="23.137133" lon="114.052437">
<time>2016-10-06T09:39:18Z</time></trkpt>
<trkpt lat="23.137133" lon="114.052378">
<time>2016-10-06T09:39:19Z</time></trkpt>
<trkpt lat="23.137133" lon="114.052288">
<time>2016-10-06T09:39:20Z</time></trkpt>
<trkpt lat="23.137134" lon="114.052208">
<time>2016-10-06T09:39:21Z</time></trkpt>
<trkpt lat="23.137134" lon="114.052028">
<time>2016-10-06T09:39:22Z</time></trkpt>
<trkpt lat="23.137134" lon="114.051948">
<time>2016-10-06T09:39:23Z</time></trkpt>
<trkpt lat="23.137134" lon="114.051728">
<time>2016-10-06T09:39:24Z</time></trkpt>
<trkpt lat="23.137125" lon="114.051509">
<time>2016-10-06T09:39:25Z</time></trkpt>
<trkpt lat="23.137125" lon="114.051209">
<time>2016-10-06T09:39:26Z</time></trkpt>
<trkpt lat="23.137116" lon="114.050909">
<time>2016-10-06T09:39:27Z</time></trkpt>
<trkpt lat="23.137126" lon="114.05074">
<time>2016-10-06T09:39:28Z</time></trkpt>
<trkpt lat="23.137126" lon="114.0507">
<time>2016-10-06T09:39:29Z</time></trkpt>
<trkpt lat="23.137116" lon="114.05066">
<time>2016-10-06T09:39:30Z</time></trkpt>
<trkpt lat="23.137116" lon="114.05063">
<time>2016-10-06T09:39:31Z</time></trkpt>
<trkpt lat="23.137107" lon="114.05061">
<time>2016-10-06T09:39:32Z</time></trkpt>
<trkpt lat="23.137097" lon="114.05055">
<time>2016-10-06T09:39:33Z</time></trkpt>
<trkpt lat="23.137097" lon="114.05052">
<time>2016-10-06T09:39:34Z</time></trkpt>
<trkpt lat="23.137097" lon="114.05047">
<time>2016-10-06T09:39:35Z</time></trkpt>
<trkpt lat="23.137097" lon="114.05041">
<time>2016-10-06T09:39:36Z</time></trkpt>
<trkpt lat="23.137097" lon="114.05036">
<time>2016-10-06T09:39:37Z</time></trkpt>
<trkpt lat="23.137107" lon="114.0503">
<time>2016-10-06T09:39:38Z</time></trkpt>
<trkpt lat="23.137107" lon="114.05026">
<time>2016-10-06T09:39:39Z</time></trkpt>
<trkpt lat="23.137117" lon="114.05022">
<time>2016-10-06T09:39:40Z</time></trkpt>
<trkpt lat="23.137157" lon="114.05007">
<time>2016-10-06T09:39:41Z</time></trkpt>
<trkpt lat="23.137198" lon="114.049921">
<time>2016-10-06T09:39:42Z</time></trkpt>
<trkpt lat="23.137208" lon="114.049851">
<time>2016-10-06T09:39:43Z</time></trkpt>
<trkpt lat="23.137228" lon="114.049791">
<time>2016-10-06T09:39:44Z</time></trkpt>
<trkpt lat="23.137288" lon="114.049661">
<time>2016-10-06T09:39:45Z</time></trkpt>
<trkpt lat="23.137298" lon="114.049621">
<time>2016-10-06T09:39:46Z</time></trkpt>
<trkpt lat="23.137308" lon="114.049581">
<time>2016-10-06T09:39:47Z</time></trkpt>
<trkpt lat="23.137318" lon="114.049521">
<time>2016-10-06T09:39:48Z</time></trkpt>
<trkpt lat="23.137319" lon="114.049441">
<time>2016-10-06T09:39:49Z</time></trkpt>
<trkpt lat="23.137329" lon="114.049361">
<time>2016-10-06T09:39:50Z</time></trkpt>
<trkpt lat="23.137319" lon="114.049281">
<time>2016-10-06T09:39:51Z</time></trkpt>
<trkpt lat="23.137319" lon="114.049231">
<time>2016-10-06T09:39:52Z</time></trkpt>
<trkpt lat="23.137309" lon="114.049191">
<time>2016-10-06T09:39:53Z</time></trkpt>
<trkpt lat="23.137299" lon="114.049142">
<time>2016-10-06T09:39:54Z</time></trkpt>
<trkpt lat="23.137289" lon="114.049102">
<time>2016-10-06T09:39:55Z</time></trkpt>
<trkpt lat="23.137259" lon="114.049002">
<time>2016-10-06T09:39:56Z</time></trkpt>
<trkpt lat="23.13723" lon="114.048892">
<time>2016-10-06T09:39:57Z</time></trkpt>
<trkpt lat="23.1372" lon="114.048762">
<time>2016-10-06T09:39:58Z</time></trkpt>
<trkpt lat="23.13719" lon="114.048722">
<time>2016-10-06T09:39:59Z</time></trkpt>
<trkpt lat="23.13718" lon="114.048702">
<time>2016-10-06T09:40:00Z</time></trkpt>
<trkpt lat="23.13717" lon="114.048662">
<time>2016-10-06T09:40:01Z</time></trkpt>
<trkpt lat="23.13713" lon="114.048592">
<time>2016-10-06T09:40:02Z</time></trkpt>
<trkpt lat="23.13712" lon="114.048562">
<time>2016-10-06T09:40:03Z</time></trkpt>
<trkpt lat="23.1371" lon="114.048522">
<time>2016-10-06T09:40:04Z</time></trkpt>
<trkpt lat="23.137091" lon="114.048482">
<time>2016-10-06T09:40:05Z</time></trkpt>
<trkpt lat="23.137091" lon="114.048462">
<time>2016-10-06T09:40:06Z</time></trkpt>
<trkpt lat="23.137101" lon="114.048443">
<time>2016-10-06T09:40:07Z</time></trkpt>
<trkpt lat="23.137121" lon="114.048363">
<time>2016-10-06T09:40:08Z</time></trkpt>
<trkpt lat="23.137131" lon="114.048313">
<time>2016-10-06T09:40:09Z</time></trkpt>
<trkpt lat="23.137141" lon="114.048273">
<time>2016-10-06T09:40:10Z</time></trkpt>
<trkpt lat="23.137161" lon="114.048223">
<time>2016-10-06T09:40:11Z</time></trkpt>
<trkpt lat="23.137191" lon="114.048163">
<time>2016-10-06T09:40:12Z</time></trkpt>
<trkpt lat="23.137201" lon="114.048143">
<time>2016-10-06T09:40:13Z</time></trkpt>
<trkpt lat="23.137231" lon="114.048073">
<time>2016-10-06T09:40:14Z</time></trkpt>
<trkpt lat="23.137241" lon="114.048053">
<time>2016-10-06T09:40:15Z</time></trkpt>
<trkpt lat="23.137251" lon="114.048033">
<time>2016-10-06T09:40:16Z</time></trkpt>
<trkpt lat="23.137261" lon="114.048003">
<time>2016-10-06T09:40:17Z</time></trkpt>
<trkpt lat="23.137261" lon="114.047983">
<time>2016-10-06T09:40:18Z</time></trkpt>
<trkpt lat="23.137261" lon="114.047963">
<time>2016-10-06T09:40:19Z</time></trkpt>
<trkpt lat="23.137261" lon="114.047953">
<time>2016-10-06T09:40:20Z</time></trkpt>
<trkpt lat="23.137252" lon="114.047933">
<time>2016-10-06T09:40:21Z</time></trkpt>
<trkpt lat="23.137242" lon="114.047913">
<time>2016-10-06T09:40:22Z</time></trkpt>
<trkpt lat="23.137232" lon="114.047903">
<time>2016-10-06T09:40:23Z</time></trkpt>
<trkpt lat="23.137222" lon="114.047903">
<time>2016-10-06T09:40:24Z</time></trkpt>
<trkpt lat="23.137162" lon="114.047873">
<time>2016-10-06T09:40:25Z</time></trkpt>
<trkpt lat="23.137092" lon="114.047833">
<time>2016-10-06T09:40:26Z</time></trkpt>
<trkpt lat="23.137062" lon="114.047813">
<time>2016-10-06T09:40:27Z</time></trkpt>
<trkpt lat="23.137022" lon="114.047793">
<time>2016-10-06T09:40:28Z</time></trkpt>
<trkpt lat="23.137002" lon="114.047793">
<time>2016-10-06T09:40:29Z</time></trkpt>
<trkpt lat="23.136992" lon="114.047793">
<time>2016-10-06T09:40:30Z</time></trkpt>
<trkpt lat="23.136962" lon="114.047793">
<time>2016-10-06T09:40:31Z</time></trkpt>
<trkpt lat="23.136942" lon="114.047803">
<time>2016-10-06T09:40:32Z</time></trkpt>
<trkpt lat="23.136922" lon="114.047813">
<time>2016-10-06T09:40:33Z</time></trkpt>
<trkpt lat="23.136852" lon="114.047853">
<time>2016-10-06T09:40:34Z</time></trkpt>
<trkpt lat="23.136792" lon="114.047893">
<time>2016-10-06T09:40:35Z</time></trkpt>
<trkpt lat="23.136772" lon="114.047893">
<time>2016-10-06T09:40:36Z</time></trkpt>
<trkpt lat="23.136762" lon="114.047893">
<time>2016-10-06T09:40:37Z</time></trkpt>
<trkpt lat="23.136742" lon="114.047883">
<time>2016-10-06T09:40:38Z</time></trkpt>
<trkpt lat="23.136712" lon="114.047873">
<time>2016-10-06T09:40:39Z</time></trkpt>
<trkpt lat="23.136692" lon="114.047843">
<time>2016-10-06T09:40:40Z</time></trkpt>
<trkpt lat="23.136662" lon="114.047803">
<time>2016-10-06T09:40:41Z</time></trkpt>
<trkpt lat="23.136642" lon="114.047773">
<time>2016-10-06T09:40:42Z</time></trkpt>
<trkpt lat="23.136602" lon="114.047694">
<time>2016-10-06T09:40:43Z</time></trkpt>
<trkpt lat="23.136582" lon="114.047654">
<time>2016-10-06T09:40:44Z</time></trkpt>
<trkpt lat="23.136542" lon="114.047614">
<time>2016-10-06T09:40:45Z</time></trkpt>
<trkpt lat="23.136483" lon="114.047544">
<time>2016-10-06T09:40:46Z</time></trkpt>
<trkpt lat="23.136443" lon="114.047504">
<time>2016-10-06T09:40:47Z</time></trkpt>
<trkpt lat="23.136353" lon="114.047414">
<time>2016-10-06T09:40:48Z</time></trkpt>
<trkpt lat="23.136323" lon="114.047384">
<time>2016-10-06T09:40:49Z</time></trkpt>
<trkpt lat="23.136303" lon="114.047354">
<time>2016-10-06T09:40:50Z</time></trkpt>
<trkpt lat="23.136273" lon="114.047314">
<time>2016-10-06T09:40:51Z</time></trkpt>
<trkpt lat="23.136203" lon="114.047204">
<time>2016-10-06T09:40:52Z</time></trkpt>
<trkpt lat="23.136144" lon="114.047134">
<time>2016-10-06T09:40:53Z</time></trkpt>
<trkpt lat="23.136134" lon="114.047114">
<time>2016-10-06T09:40:54Z</time></trkpt>
<trkpt lat="23.136124" lon="114.047094">
<time>2016-10-06T09:40:55Z</time></trkpt>
<trkpt lat="23.136114" lon="114.047074">
<time>2016-10-06T09:40:56Z</time></trkpt>
<trkpt lat="23.136114" lon="114.047055">
<time>2016-10-06T09:40:57Z</time></trkpt>
<trkpt lat="23.136114" lon="114.047045">
<time>2016-10-06T09:40:58Z</time></trkpt>
<trkpt lat="23.136104" lon="114.047015">
<time>2016-10-06T09:40:59Z</time></trkpt>
<trkpt lat="23.136104" lon="114.046995">
<time>2016-10-06T09:41:00Z</time></trkpt>
<trkpt lat="23.136114" lon="114.046975">
<time>2016-10-06T09:41:01Z</time></trkpt>
<trkpt lat="23.136124" lon="114.046935">
<time>2016-10-06T09:41:02Z</time></trkpt>
<trkpt lat="23.136134" lon="114.046895">
<time>2016-10-06T09:41:03Z</time></trkpt>
<trkpt lat="23.136154" lon="114.046855">
<time>2016-10-06T09:41:04Z</time></trkpt>
<trkpt lat="23.136174" lon="114.046815">
<time>2016-10-06T09:41:05Z</time></trkpt>
<trkpt lat="23.136194" lon="114.046765">
<time>2016-10-06T09:41:06Z</time></trkpt>
<trkpt lat="23.136304" lon="114.046665">
<time>2016-10-06T09:41:07Z</time></trkpt>
<trkpt lat="23.136395" lon="114.046595">
<time>2016-10-06T09:41:08Z</time></trkpt>
<trkpt lat="23.136415" lon="114.046565">
<time>2016-10-06T09:41:09Z</time></trkpt>
<trkpt lat="23.136435" lon="114.046545">
<time>2016-10-06T09:41:10Z</time></trkpt>
<trkpt lat="23.136445" lon="114.046525">
<time>2016-10-06T09:41:11Z</time></trkpt>
<trkpt lat="23.136465" lon="114.046475">
<time>2016-10-06T09:41:12Z</time></trkpt>
<trkpt lat="23.136485" lon="114.046455">
<time>2016-10-06T09:41:13Z</time></trkpt>
<trkpt lat="23.136495" lon="114.046435">
<time>2016-10-06T09:41:14Z</time></trkpt>
<trkpt lat="23.136515" lon="114.046415">
<time>2016-10-06T09:41:15Z</time></trkpt>
<trkpt lat="23.136595" lon="114.046365">
<time>2016-10-06T09:41:16Z</time></trkpt>
<trkpt lat="23.136615" lon="114.046355">
<time>2016-10-06T09:41:17Z</time></trkpt>
<trkpt lat="23.136665" lon="114.046316">
<time>2016-10-06T09:41:18Z</time></trkpt>
<trkpt lat="23.136695" lon="114.046286">
<time>2016-10-06T09:41:19Z</time></trkpt>
<trkpt lat="23.136745" lon="114.046226">
<time>2016-10-06T09:41:20Z</time></trkpt>
<trkpt lat="23.136795" lon="114.046166">
<time>2016-10-06T09:41:21Z</time></trkpt>
<trkpt lat="23.136835" lon="114.046106">
<time>2016-10-06T09:41:22Z</time></trkpt>
<trkpt lat="23.136885" lon="114.046036">
<time>2016-10-06T09:41:23Z</time></trkpt>
<trkpt lat="23.136986" lon="114.045866">
<time>2016-10-06T09:41:24Z</time></trkpt>
<trkpt lat="23.137066" lon="114.045746">
<time>2016-10-06T09:41:25Z</time></trkpt>
<trkpt lat="23.137096" lon="114.045696">
<time>2016-10-06T09:41:26Z</time></trkpt>
<trkpt lat="23.137136" lon="114.045617">
<time>2016-10-06T09:41:27Z</time></trkpt>
<trkpt lat="23.137206" lon="114.045477">
<time>2016-10-06T09:41:28Z</time></trkpt>
<trkpt lat="23.137257" lon="114.045367">
<time>2016-10-06T09:41:29Z</time></trkpt>
<trkpt lat="23.137317" lon="114.045237">
<time>2016-10-06T09:41:30Z</time></trkpt>
<trkpt lat="23.137468" lon="114.044888">
<time>2016-10-06T09:41:31Z</time></trkpt>
<trkpt lat="23.137598" lon="114.044598">
<time>2016-10-06T09:41:32Z</time></trkpt>
<trkpt lat="23.137709" lon="114.044308">
<time>2016-10-06T09:41:33Z</time></trkpt>
<trkpt lat="23.137829" lon="114.044019">
<time>2016-10-06T09:41:34Z</time></trkpt>
<trkpt lat="23.13794" lon="114.043729">
<time>2016-10-06T09:41:35Z</time></trkpt>
<trkpt lat="23.13804" lon="114.04348">
<time>2016-10-06T09:41:36Z</time></trkpt>
<trkpt lat="23.138151" lon="114.04323">
<time>2016-10-06T09:41:37Z</time></trkpt>
<trkpt lat="23.138211" lon="114.04311">
<time>2016-10-06T09:41:38Z</time></trkpt>
<trkpt lat="23.138331" lon="114.042881">
<time>2016-10-06T09:41:39Z</time></trkpt>
<trkpt lat="23.138382" lon="114.042781">
<time>2016-10-06T09:41:40Z</time></trkpt>
<trkpt lat="23.138412" lon="114.042721">
<time>2016-10-06T09:41:41Z</time></trkpt>
<trkpt lat="23.138432" lon="114.042671">
<time>2016-10-06T09:41:42Z</time></trkpt>
<trkpt lat="23.138452" lon="114.042621">
<time>2016-10-06T09:41:43Z</time></trkpt>
<trkpt lat="23.138462" lon="114.042571">
<time>2016-10-06T09:41:44Z</time></trkpt>
<trkpt lat="23.138492" lon="114.042481">
<time>2016-10-06T09:41:45Z</time></trkpt>
<trkpt lat="23.138512" lon="114.042401">
<time>2016-10-06T09:41:46Z</time></trkpt>
<trkpt lat="23.138523" lon="114.042331">
<time>2016-10-06T09:41:47Z</time></trkpt>
<trkpt lat="23.138543" lon="114.042272">
<time>2016-10-06T09:41:48Z</time></trkpt>
<trkpt lat="23.138553" lon="114.042172">
<time>2016-10-06T09:41:49Z</time></trkpt>
<trkpt lat="23.138553" lon="114.042072">
<time>2016-10-06T09:41:50Z</time></trkpt>
<trkpt lat="23.138553" lon="114.041982">
<time>2016-10-06T09:41:51Z</time></trkpt>
<trkpt lat="23.138543" lon="114.041882">
<time>2016-10-06T09:41:52Z</time></trkpt>
<trkpt lat="23.138534" lon="114.041832">
<time>2016-10-06T09:41:53Z</time></trkpt>
<trkpt lat="23.138494" lon="114.041712">
<time>2016-10-06T09:41:54Z</time></trkpt>
<trkpt lat="23.138494" lon="114.041682">
<time>2016-10-06T09:41:55Z</time></trkpt>
<trkpt lat="23.138494" lon="114.041653">
<time>2016-10-06T09:41:56Z</time></trkpt>
<trkpt lat="23.138494" lon="114.041603">
<time>2016-10-06T09:41:57Z</time></trkpt>
<trkpt lat="23.138504" lon="114.041523">
<time>2016-10-06T09:41:58Z</time></trkpt>
<trkpt lat="23.138504" lon="114.041473">
<time>2016-10-06T09:41:59Z</time></trkpt>
<trkpt lat="23.138515" lon="114.041423">
<time>2016-10-06T09:42:00Z</time></trkpt>
<trkpt lat="23.138525" lon="114.041363">
<time>2016-10-06T09:42:01Z</time></trkpt>
<trkpt lat="23.138545" lon="114.041313">
<time>2016-10-06T09:42:02Z</time></trkpt>
<trkpt lat="23.138575" lon="114.041203">
<time>2016-10-06T09:42:03Z</time></trkpt>
<trkpt lat="23.138656" lon="114.040944">
<time>2016-10-06T09:42:04Z</time></trkpt>
<trkpt lat="23.138676" lon="114.040874">
<time>2016-10-06T09:42:05Z</time></trkpt>
<trkpt lat="23.138696" lon="114.040804">
<time>2016-10-06T09:42:06Z</time></trkpt>
<trkpt lat="23.138706" lon="114.040764">
<time>2016-10-06T09:42:07Z</time></trkpt>
<trkpt lat="23.138726" lon="114.040684">
<time>2016-10-06T09:42:08Z</time></trkpt>
<trkpt lat="23.138736" lon="114.040644">
<time>2016-10-06T09:42:09Z</time></trkpt>
<trkpt lat="23.138746" lon="114.040604">
<time>2016-10-06T09:42:10Z</time></trkpt>
<trkpt lat="23.138746" lon="114.040564">
<time>2016-10-06T09:42:11Z</time></trkpt>
<trkpt lat="23.138736" lon="114.040504">
<time>2016-10-06T09:42:12Z</time></trkpt>
<trkpt lat="23.138736" lon="114.040494">
<time>2016-10-06T09:42:13Z</time></trkpt>
<trkpt lat="23.138736" lon="114.040484">
<time>2016-10-06T09:42:14Z</time></trkpt>
<trkpt lat="23.138736" lon="114.040484">
<time>2016-10-06T09:42:15Z</time></trkpt>
<trkpt lat="23.138727" lon="114.040474">
<time>2016-10-06T09:42:16Z</time></trkpt>
<trkpt lat="23.138717" lon="114.040464">
<time>2016-10-06T09:42:17Z</time></trkpt>
<trkpt lat="23.138697" lon="114.040454">
<time>2016-10-06T09:42:18Z</time></trkpt>
<trkpt lat="23.138677" lon="114.040445">
<time>2016-10-06T09:42:19Z</time></trkpt>
<trkpt lat="23.138647" lon="114.040435">
<time>2016-10-06T09:42:20Z</time></trkpt>
<trkpt lat="23.138617" lon="114.040425">
<time>2016-10-06T09:42:21Z</time></trkpt>
<trkpt lat="23.138597" lon="114.040425">
<time>2016-10-06T09:42:22Z</time></trkpt>
<trkpt lat="23.138487" lon="114.040425">
<time>2016-10-06T09:42:23Z</time></trkpt>
<trkpt lat="23.138307" lon="114.040415">
<time>2016-10-06T09:42:24Z</time></trkpt>
<trkpt lat="23.138217" lon="114.040425">
<time>2016-10-06T09:42:25Z</time></trkpt>
<trkpt lat="23.137977" lon="114.040445">
<time>2016-10-06T09:42:26Z</time></trkpt>
<trkpt lat="23.137867" lon="114.040455">
<time>2016-10-06T09:42:27Z</time></trkpt>
<trkpt lat="23.137747" lon="114.040465">
<time>2016-10-06T09:42:28Z</time></trkpt>
<trkpt lat="23.137337" lon="114.040524">
<time>2016-10-06T09:42:29Z</time></trkpt>
<trkpt lat="23.137227" lon="114.040534">
<time>2016-10-06T09:42:30Z</time></trkpt>
<trkpt lat="23.137197" lon="114.040544">
<time>2016-10-06T09:42:31Z</time></trkpt>
<trkpt lat="23.137167" lon="114.040554">
<time>2016-10-06T09:42:32Z</time></trkpt>
<trkpt lat="23.137147" lon="114.040564">
<time>2016-10-06T09:42:33Z</time></trkpt>
<trkpt lat="23.137117" lon="114.040574">
<time>2016-10-06T09:42:34Z</time></trkpt>
<trkpt lat="23.137027" lon="114.040624">
<time>2016-10-06T09:42:35Z</time></trkpt>
<trkpt lat="23.136987" lon="114.040644">
<time>2016-10-06T09:42:36Z</time></trkpt>
<trkpt lat="23.136907" lon="114.040684">
<time>2016-10-06T09:42:37Z</time></trkpt>
<trkpt lat="23.136867" lon="114.040704">
<time>2016-10-06T09:42:38Z</time></trkpt>
<trkpt lat="23.136827" lon="114.040714">
<time>2016-10-06T09:42:39Z</time></trkpt>
<trkpt lat="23.136787" lon="114.040714">
<time>2016-10-06T09:42:40Z</time></trkpt>
<trkpt lat="23.136737" lon="114.040714">
<time>2016-10-06T09:42:41Z</time></trkpt>
<trkpt lat="23.136717" lon="114.040714">
<time>2016-10-06T09:42:42Z</time></trkpt>
<trkpt lat="23.136697" lon="114.040714">
<time>2016-10-06T09:42:43Z</time></trkpt>
<trkpt lat="23.136687" lon="114.040704">
<time>2016-10-06T09:42:44Z</time></trkpt>
<trkpt lat="23.136667" lon="114.040694">
<time>2016-10-06T09:42:45Z</time></trkpt>
<trkpt lat="23.136627" lon="114.040644">
<time>2016-10-06T09:42:46Z</time></trkpt>
<trkpt lat="23.136607" lon="114.040624">
<time>2016-10-06T09:42:47Z</time></trkpt>
<trkpt lat="23.136587" lon="114.040604">
<time>2016-10-06T09:42:48Z</time></trkpt>
<trkpt lat="23.136567" lon="114.040574">
<time>2016-10-06T09:42:49Z</time></trkpt>
<trkpt lat="23.136557" lon="114.040544">
<time>2016-10-06T09:42:50Z</time></trkpt>
<trkpt lat="23.136527" lon="114.040495">
<time>2016-10-06T09:42:51Z</time></trkpt>
<trkpt lat="23.136468" lon="114.040375">
<time>2016-10-06T09:42:52Z</time></trkpt>
<trkpt lat="23.136448" lon="114.040315">
<time>2016-10-06T09:42:53Z</time></trkpt>
<trkpt lat="23.136149" lon="114.039786">
<time>2016-10-06T09:42:54Z</time></trkpt>
<trkpt lat="23.132774" lon="114.034106">
<time>2016-10-06T09:42:55Z</time></trkpt>
<trkpt lat="23.132605" lon="114.033797">
<time>2016-10-06T09:42:56Z</time></trkpt>
<trkpt lat="23.132316" lon="114.033308">
<time>2016-10-06T09:42:57Z</time></trkpt>
<trkpt lat="23.131858" lon="114.032519">
<time>2016-10-06T09:42:58Z</time></trkpt>
<trkpt lat="23.13139" lon="114.031731">
<time>2016-10-06T09:42:59Z</time></trkpt>
<trkpt lat="23.130922" lon="114.030952">
<time>2016-10-06T09:43:00Z</time></trkpt>
<trkpt lat="23.130743" lon="114.030653">
<time>2016-10-06T09:43:01Z</time></trkpt>
<trkpt lat="23.130703" lon="114.030583">
<time>2016-10-06T09:43:02Z</time></trkpt>
<trkpt lat="23.130663" lon="114.030513">
<time>2016-10-06T09:43:03Z</time></trkpt>
<trkpt lat="23.130624" lon="114.030423">
<time>2016-10-06T09:43:04Z</time></trkpt>
<trkpt lat="23.130574" lon="114.030334">
<time>2016-10-06T09:43:05Z</time></trkpt>
<trkpt lat="23.130415" lon="114.029974">
<time>2016-10-06T09:43:06Z</time></trkpt>
<trkpt lat="23.130296" lon="114.029725">
<time>2016-10-06T09:43:07Z</time></trkpt>
<trkpt lat="23.130266" lon="114.029655">
<time>2016-10-06T09:43:08Z</time></trkpt>
<trkpt lat="23.130246" lon="114.029595">
<time>2016-10-06T09:43:09Z</time></trkpt>
<trkpt lat="23.130206" lon="114.029485">
<time>2016-10-06T09:43:10Z</time></trkpt>
<trkpt lat="23.130186" lon="114.029435">
<time>2016-10-06T09:43:11Z</time></trkpt>
<trkpt lat="23.130167" lon="114.029386">
<time>2016-10-06T09:43:12Z</time></trkpt>
<trkpt lat="23.130167" lon="114.029336">
<time>2016-10-06T09:43:13Z</time></trkpt>
<trkpt lat="23.130157" lon="114.029296">
<time>2016-10-06T09:43:14Z</time></trkpt>
<trkpt lat="23.130157" lon="114.029266">
<time>2016-10-06T09:43:15Z</time></trkpt>
<trkpt lat="23.130157" lon="114.029226">
<time>2016-10-06T09:43:16Z</time></trkpt>
<trkpt lat="23.130167" lon="114.029186">
<time>2016-10-06T09:43:17Z</time></trkpt>
<trkpt lat="23.130167" lon="114.029156">
<time>2016-10-06T09:43:18Z</time></trkpt>
<trkpt lat="23.130177" lon="114.029116">
<time>2016-10-06T09:43:19Z</time></trkpt>
<trkpt lat="23.130187" lon="114.029076">
<time>2016-10-06T09:43:20Z</time></trkpt>
<trkpt lat="23.130197" lon="114.029036">
<time>2016-10-06T09:43:21Z</time></trkpt>
<trkpt lat="23.130208" lon="114.028946">
<time>2016-10-06T09:43:22Z</time></trkpt>
<trkpt lat="23.130218" lon="114.028827">
<time>2016-10-06T09:43:23Z</time></trkpt>
<trkpt lat="23.130228" lon="114.028737">
<time>2016-10-06T09:43:24Z</time></trkpt>
<trkpt lat="23.130228" lon="114.028657">
<time>2016-10-06T09:43:25Z</time></trkpt>
<trkpt lat="23.130229" lon="114.028587">
<time>2016-10-06T09:43:26Z</time></trkpt>
<trkpt lat="23.130229" lon="114.028537">
<time>2016-10-06T09:43:27Z</time></trkpt>
<trkpt lat="23.130219" lon="114.028457">
<time>2016-10-06T09:43:28Z</time></trkpt>
<trkpt lat="23.130219" lon="114.028418">
<time>2016-10-06T09:43:29Z</time></trkpt>
<trkpt lat="23.130209" lon="114.028388">
<time>2016-10-06T09:43:30Z</time></trkpt>
<trkpt lat="23.130189" lon="114.028328">
<time>2016-10-06T09:43:31Z</time></trkpt>
<trkpt lat="23.130179" lon="114.028288">
<time>2016-10-06T09:43:32Z</time></trkpt>
<trkpt lat="23.13015" lon="114.028218">
<time>2016-10-06T09:43:33Z</time></trkpt>
<trkpt lat="23.13009" lon="114.028088">
<time>2016-10-06T09:43:34Z</time></trkpt>
<trkpt lat="23.129821" lon="114.027629">
<time>2016-10-06T09:43:35Z</time></trkpt>
<trkpt lat="23.129731" lon="114.027589">
<time>2016-10-06T09:43:36Z</time></trkpt>
<trkpt lat="23.129701" lon="114.027579">
<time>2016-10-06T09:43:37Z</time></trkpt>
<trkpt lat="23.129671" lon="114.027559">
<time>2016-10-06T09:43:38Z</time></trkpt>
<trkpt lat="23.129432" lon="114.02745">
<time>2016-10-06T09:43:39Z</time></trkpt>
<trkpt lat="23.129182" lon="114.02736">
<time>2016-10-06T09:43:40Z</time></trkpt>
<trkpt lat="23.129152" lon="114.02734">
<time>2016-10-06T09:43:41Z</time></trkpt>
<trkpt lat="23.129122" lon="114.02732">
<time>2016-10-06T09:43:42Z</time></trkpt>
<trkpt lat="23.129102" lon="114.0273">
<time>2016-10-06T09:43:43Z</time></trkpt>
<trkpt lat="23.129062" lon="114.02727">
<time>2016-10-06T09:43:44Z</time></trkpt>
<trkpt lat="23.128983" lon="114.02717">
<time>2016-10-06T09:43:45Z</time></trkpt>
<trkpt lat="23.128963" lon="114.02716">
<time>2016-10-06T09:43:46Z</time></trkpt>
<trkpt lat="23.128953" lon="114.02715">
<time>2016-10-06T09:43:47Z</time></trkpt>
<trkpt lat="23.128933" lon="114.02713">
<time>2016-10-06T09:43:48Z</time></trkpt>
<trkpt lat="23.128913" lon="114.02712">
<time>2016-10-06T09:43:49Z</time></trkpt>
<trkpt lat="23.128893" lon="114.02712">
<time>2016-10-06T09:43:50Z</time></trkpt>
<trkpt lat="23.128883" lon="114.02711">
<time>2016-10-06T09:43:51Z</time></trkpt>
<trkpt lat="23.128863" lon="114.02711">
<time>2016-10-06T09:43:52Z</time></trkpt>
<trkpt lat="23.128783" lon="114.0271">
<time>2016-10-06T09:43:53Z</time></trkpt>
<trkpt lat="23.128753" lon="114.02709">
<time>2016-10-06T09:43:54Z</time></trkpt>
<trkpt lat="23.128733" lon="114.02709">
<time>2016-10-06T09:43:55Z</time></trkpt>
<trkpt lat="23.128713" lon="114.02708">
<time>2016-10-06T09:43:56Z</time></trkpt>
<trkpt lat="23.128703" lon="114.02708">
<time>2016-10-06T09:43:57Z</time></trkpt>
<trkpt lat="23.128683" lon="114.02707">
<time>2016-10-06T09:43:58Z</time></trkpt>
<trkpt lat="23.128673" lon="114.02706">
<time>2016-10-06T09:43:59Z</time></trkpt>
<trkpt lat="23.128653" lon="114.027051">
<time>2016-10-06T09:44:00Z</time></trkpt>
<trkpt lat="23.128623" lon="114.027031">
<time>2016-10-06T09:44:01Z</time></trkpt>
<trkpt lat="23.128603" lon="114.027011">
<time>2016-10-06T09:44:02Z</time></trkpt>
<trkpt lat="23.128583" lon="114.027001">
<time>2016-10-06T09:44:03Z</time></trkpt>
<trkpt lat="23.128573" lon="114.026981">
<time>2016-10-06T09:44:04Z</time></trkpt>
<trkpt lat="23.128543" lon="114.026951">
<time>2016-10-06T09:44:05Z</time></trkpt>
<trkpt lat="23.128534" lon="114.026931">
<time>2016-10-06T09:44:06Z</time></trkpt>
<trkpt lat="23.128524" lon="114.026911">
<time>2016-10-06T09:44:07Z</time></trkpt>
<trkpt lat="23.128394" lon="114.026631">
<time>2016-10-06T09:44:08Z</time></trkpt>
<trkpt lat="23.128334" lon="114.026611">
<time>2016-10-06T09:44:09Z</time></trkpt>
<trkpt lat="23.128305" lon="114.026591">
<time>2016-10-06T09:44:10Z</time></trkpt>
<trkpt lat="23.128285" lon="114.026591">
<time>2016-10-06T09:44:11Z</time></trkpt>
<trkpt lat="23.128265" lon="114.026582">
<time>2016-10-06T09:44:12Z</time></trkpt>
<trkpt lat="23.128245" lon="114.026582">
<time>2016-10-06T09:44:13Z</time></trkpt>
<trkpt lat="23.128235" lon="114.026582">
<time>2016-10-06T09:44:14Z</time></trkpt>
<trkpt lat="23.128215" lon="114.026582">
<time>2016-10-06T09:44:15Z</time></trkpt>
<trkpt lat="23.128175" lon="114.026582">
<time>2016-10-06T09:44:16Z</time></trkpt>
<trkpt lat="23.128135" lon="114.026582">
<time>2016-10-06T09:44:17Z</time></trkpt>
<trkpt lat="23.128075" lon="114.026592">
<time>2016-10-06T09:44:18Z</time></trkpt>
<trkpt lat="23.127995" lon="114.026611">
<time>2016-10-06T09:44:19Z</time></trkpt>
<trkpt lat="23.127144" lon="114.026801">
<time>2016-10-06T09:44:20Z</time></trkpt>
<trkpt lat="23.126534" lon="114.026921">
<time>2016-10-06T09:44:21Z</time></trkpt>
<trkpt lat="23.126484" lon="114.026931">
<time>2016-10-06T09:44:22Z</time></trkpt>
<trkpt lat="23.126424" lon="114.026931">
<time>2016-10-06T09:44:23Z</time></trkpt>
<trkpt lat="23.126374" lon="114.026921">
<time>2016-10-06T09:44:24Z</time></trkpt>
<trkpt lat="23.126324" lon="114.026911">
<time>2016-10-06T09:44:25Z</time></trkpt>
<trkpt lat="23.126295" lon="114.026901">
<time>2016-10-06T09:44:26Z</time></trkpt>
<trkpt lat="23.126255" lon="114.026891">
<time>2016-10-06T09:44:27Z</time></trkpt>
<trkpt lat="23.126165" lon="114.026851">
<time>2016-10-06T09:44:28Z</time></trkpt>
<trkpt lat="23.125666" lon="114.026572">
<time>2016-10-06T09:44:29Z</time></trkpt>
<trkpt lat="23.125466" lon="114.026472">
<time>2016-10-06T09:44:30Z</time></trkpt>
<trkpt lat="23.125436" lon="114.026462">
<time>2016-10-06T09:44:31Z</time></trkpt>
<trkpt lat="23.125416" lon="114.026452">
<time>2016-10-06T09:44:32Z</time></trkpt>
<trkpt lat="23.125396" lon="114.026452">
<time>2016-10-06T09:44:33Z</time></trkpt>
<trkpt lat="23.125376" lon="114.026442">
<time>2016-10-06T09:44:34Z</time></trkpt>
<trkpt lat="23.125316" lon="114.026432">
<time>2016-10-06T09:44:35Z</time></trkpt>
<trkpt lat="23.125276" lon="114.026432">
<time>2016-10-06T09:44:36Z</time></trkpt>
<trkpt lat="23.125266" lon="114.026432">
<time>2016-10-06T09:44:37Z</time></trkpt>
<trkpt lat="23.125236" lon="114.026432">
<time>2016-10-06T09:44:38Z</time></trkpt>
<trkpt lat="23.125166" lon="114.026442">
<time>2016-10-06T09:44:39Z</time></trkpt>
<trkpt lat="23.125116" lon="114.026452">
<time>2016-10-06T09:44:40Z</time></trkpt>
<trkpt lat="23.125016" lon="114.026462">
<time>2016-10-06T09:44:41Z</time></trkpt>
<trkpt lat="23.123946" lon="114.026791">
<time>2016-10-06T09:44:42Z</time></trkpt>
<trkpt lat="23.123946" lon="114.026791">
<time>2016-10-06T09:44:43Z</time></trkpt>
<trkpt lat="23.12304" lon="114.025205">
<time>2016-10-06T09:44:44Z</time></trkpt>
<trkpt lat="23.122752" lon="114.024516">
<time>2016-10-06T09:44:45Z</time></trkpt>
<trkpt lat="23.122245" lon="114.023429">
<time>2016-10-06T09:44:46Z</time></trkpt>
<trkpt lat="23.120933" lon="114.020874">
<time>2016-10-06T09:44:47Z</time></trkpt>
<trkpt lat="23.120873" lon="114.020765">
<time>2016-10-06T09:44:48Z</time></trkpt>
<trkpt lat="23.120863" lon="114.020745">
<time>2016-10-06T09:44:49Z</time></trkpt>
<trkpt lat="23.120863" lon="114.020715">
<time>2016-10-06T09:44:50Z</time></trkpt>
<trkpt lat="23.120853" lon="114.020705">
<time>2016-10-06T09:44:51Z</time></trkpt>
<trkpt lat="23.120853" lon="114.020695">
<time>2016-10-06T09:44:52Z</time></trkpt>
<trkpt lat="23.120854" lon="114.020665">
<time>2016-10-06T09:44:53Z</time></trkpt>
<trkpt lat="23.120854" lon="114.020565">
<time>2016-10-06T09:44:54Z</time></trkpt>
<trkpt lat="23.120854" lon="114.020565">
<time>2016-10-06T09:44:55Z</time></trkpt>
<trkpt lat="23.121045" lon="114.020186">
<time>2016-10-06T09:44:56Z</time></trkpt>
<trkpt lat="23.121085" lon="114.020086">
<time>2016-10-06T09:44:57Z</time></trkpt>
<trkpt lat="23.121135" lon="114.019947">
<time>2016-10-06T09:44:58Z</time></trkpt>
<trkpt lat="23.121176" lon="114.019817">
<time>2016-10-06T09:44:59Z</time></trkpt>
<trkpt lat="23.121206" lon="114.019717">
<time>2016-10-06T09:45:00Z</time></trkpt>
<trkpt lat="23.121267" lon="114.019448">
<time>2016-10-06T09:45:01Z</time></trkpt>
<trkpt lat="23.121297" lon="114.019308">
<time>2016-10-06T09:45:02Z</time></trkpt>
<trkpt lat="23.121368" lon="114.018869">
<time>2016-10-06T09:45:03Z</time></trkpt>
<trkpt lat="23.12197" lon="114.014569">
<time>2016-10-06T09:45:04Z</time></trkpt>
<trkpt lat="23.122011" lon="114.01417">
<time>2016-10-06T09:45:05Z</time></trkpt>
<trkpt lat="23.122012" lon="114.013871">
<time>2016-10-06T09:45:06Z</time></trkpt>
<trkpt lat="23.122012" lon="114.013821">
<time>2016-10-06T09:45:07Z</time></trkpt>
<trkpt lat="23.122013" lon="114.013731">
<time>2016-10-06T09:45:08Z</time></trkpt>
<trkpt lat="23.121984" lon="114.013452">
<time>2016-10-06T09:45:09Z</time></trkpt>
<trkpt lat="23.121974" lon="114.013432">
<time>2016-10-06T09:45:10Z</time></trkpt>
<trkpt lat="23.121876" lon="114.012723">
<time>2016-10-06T09:45:11Z</time></trkpt>
<trkpt lat="23.121236" lon="114.009342">
<time>2016-10-06T09:45:12Z</time></trkpt>
<trkpt lat="23.121039" lon="114.008274">
<time>2016-10-06T09:45:13Z</time></trkpt>
<trkpt lat="23.121543" lon="114.006898">
<time>2016-10-06T09:45:14Z</time></trkpt>
<trkpt lat="23.121584" lon="114.006738">
<time>2016-10-06T09:45:15Z</time></trkpt>
<trkpt lat="23.121624" lon="114.006588">
<time>2016-10-06T09:45:16Z</time></trkpt>
<trkpt lat="23.121634" lon="114.006549">
<time>2016-10-06T09:45:17Z</time></trkpt>
<trkpt lat="23.121644" lon="114.006489">
<time>2016-10-06T09:45:18Z</time></trkpt>
<trkpt lat="23.121644" lon="114.006449">
<time>2016-10-06T09:45:19Z</time></trkpt>
<trkpt lat="23.121645" lon="114.006369">
<time>2016-10-06T09:45:20Z</time></trkpt>
<trkpt lat="23.121645" lon="114.006359">
<time>2016-10-06T09:45:21Z</time></trkpt>
<trkpt lat="23.121645" lon="114.006309">
<time>2016-10-06T09:45:22Z</time></trkpt>
<trkpt lat="23.121645" lon="114.006209">
<time>2016-10-06T09:45:23Z</time></trkpt>
<trkpt lat="23.121568" lon="114.005272">
<time>2016-10-06T09:45:24Z</time></trkpt>
<trkpt lat="23.121423" lon="114.003636">
<time>2016-10-06T09:45:25Z</time></trkpt>
<trkpt lat="23.121365" lon="114.002968">
<time>2016-10-06T09:45:26Z</time></trkpt>
<trkpt lat="23.121356" lon="114.002529">
<time>2016-10-06T09:45:27Z</time></trkpt>
<trkpt lat="23.121356" lon="114.002449">
<time>2016-10-06T09:45:28Z</time></trkpt>
<trkpt lat="23.121358" lon="114.00194">
<time>2016-10-06T09:45:29Z</time></trkpt>
<trkpt lat="23.121452" lon="114.000733">
<time>2016-10-06T09:45:30Z</time></trkpt>
<trkpt lat="23.121433" lon="114.000444">
<time>2016-10-06T09:45:31Z</time></trkpt>
<trkpt lat="23.121454" lon="113.999995">
<time>2016-10-06T09:45:32Z</time></trkpt>
<trkpt lat="23.121546" lon="113.999137">
<time>2016-10-06T09:45:33Z</time></trkpt>
<trkpt lat="23.121526" lon="113.999127">
<time>2016-10-06T09:45:34Z</time></trkpt>
<trkpt lat="23.121507" lon="113.999117">
<time>2016-10-06T09:45:35Z</time></trkpt>
<trkpt lat="23.121497" lon="113.999107">
<time>2016-10-06T09:45:36Z</time></trkpt>
<trkpt lat="23.121497" lon="113.999097">
<time>2016-10-06T09:45:37Z</time></trkpt>
<trkpt lat="23.121487" lon="113.999087">
<time>2016-10-06T09:45:38Z</time></trkpt>
<trkpt lat="23.121477" lon="113.999077">
<time>2016-10-06T09:45:39Z</time></trkpt>
<trkpt lat="23.121467" lon="113.999057">
<time>2016-10-06T09:45:40Z</time></trkpt>
<trkpt lat="23.121467" lon="113.999048">
<time>2016-10-06T09:45:41Z</time></trkpt>
<trkpt lat="23.121457" lon="113.999028">
<time>2016-10-06T09:45:42Z</time></trkpt>
<trkpt lat="23.121457" lon="113.999018">
<time>2016-10-06T09:45:43Z</time></trkpt>
<trkpt lat="23.121457" lon="113.998998">
<time>2016-10-06T09:45:44Z</time></trkpt>
<trkpt lat="23.121457" lon="113.998988">
<time>2016-10-06T09:45:45Z</time></trkpt>
<trkpt lat="23.121457" lon="113.998968">
<time>2016-10-06T09:45:46Z</time></trkpt>
<trkpt lat="23.121467" lon="113.998958">
<time>2016-10-06T09:45:47Z</time></trkpt>
<trkpt lat="23.121467" lon="113.998938">
<time>2016-10-06T09:45:48Z</time></trkpt>
<trkpt lat="23.121477" lon="113.998928">
<time>2016-10-06T09:45:49Z</time></trkpt>
<trkpt lat="23.121487" lon="113.998908">
<time>2016-10-06T09:45:50Z</time></trkpt>
<trkpt lat="23.121497" lon="113.998898">
<time>2016-10-06T09:45:51Z</time></trkpt>
<trkpt lat="23.121507" lon="113.998888">
<time>2016-10-06T09:45:52Z</time></trkpt>
<trkpt lat="23.121517" lon="113.998878">
<time>2016-10-06T09:45:53Z</time></trkpt>
<trkpt lat="23.121527" lon="113.998868">
<time>2016-10-06T09:45:54Z</time></trkpt>
<trkpt lat="23.121547" lon="113.998868">
<time>2016-10-06T09:45:55Z</time></trkpt>
<trkpt lat="23.121547" lon="113.998858">
<time>2016-10-06T09:45:56Z</time></trkpt>
<trkpt lat="23.121329" lon="113.998299">
<time>2016-10-06T09:45:57Z</time></trkpt>
<trkpt lat="23.121101" lon="113.997711">
<time>2016-10-06T09:45:58Z</time></trkpt>
<trkpt lat="23.120972" lon="113.997372">
<time>2016-10-06T09:45:59Z</time></trkpt>
<trkpt lat="23.120486" lon="113.996125">
<time>2016-10-06T09:46:00Z</time></trkpt>
<trkpt lat="23.119067" lon="113.992704">
<time>2016-10-06T09:46:01Z</time></trkpt>
<trkpt lat="23.118938" lon="113.992395">
<time>2016-10-06T09:46:02Z</time></trkpt>
<trkpt lat="23.11871" lon="113.991826">
<time>2016-10-06T09:46:03Z</time></trkpt>
<trkpt lat="23.118501" lon="113.991347">
<time>2016-10-06T09:46:04Z</time></trkpt>
<trkpt lat="23.118402" lon="113.991048">
<time>2016-10-06T09:46:05Z</time></trkpt>
<trkpt lat="23.118363" lon="113.990809">
<time>2016-10-06T09:46:06Z</time></trkpt>
<trkpt lat="23.118353" lon="113.990799">
<time>2016-10-06T09:46:07Z</time></trkpt>
<trkpt lat="23.118334" lon="113.990559">
<time>2016-10-06T09:46:08Z</time></trkpt>
<trkpt lat="23.118324" lon="113.99043">
<time>2016-10-06T09:46:09Z</time></trkpt>
<trkpt lat="23.118345" lon="113.99028">
<time>2016-10-06T09:46:10Z</time></trkpt>
<trkpt lat="23.118375" lon="113.99011">
<time>2016-10-06T09:46:11Z</time></trkpt>
<trkpt lat="23.118416" lon="113.989891">
<time>2016-10-06T09:46:12Z</time></trkpt>
<trkpt lat="23.118487" lon="113.989642">
<time>2016-10-06T09:46:13Z</time></trkpt>
<trkpt lat="23.118638" lon="113.989153">
<time>2016-10-06T09:46:14Z</time></trkpt>
<trkpt lat="23.11885" lon="113.988485">
<time>2016-10-06T09:46:15Z</time></trkpt>
<trkpt lat="23.119768" lon="113.985672">
<time>2016-10-06T09:46:16Z</time></trkpt>
<trkpt lat="23.119819" lon="113.985492">
<time>2016-10-06T09:46:17Z</time></trkpt>
<trkpt lat="23.119909" lon="113.985153">
<time>2016-10-06T09:46:18Z</time></trkpt>
<trkpt lat="23.120626" lon="113.982928">
<time>2016-10-06T09:46:19Z</time></trkpt>
<trkpt lat="23.120878" lon="113.98218">
<time>2016-10-06T09:46:20Z</time></trkpt>
<trkpt lat="23.121201" lon="113.981163">
<time>2016-10-06T09:46:21Z</time></trkpt>
<trkpt lat="23.121493" lon="113.980255">
<time>2016-10-06T09:46:22Z</time></trkpt>
<trkpt lat="23.121544" lon="113.980085">
<time>2016-10-06T09:46:23Z</time></trkpt>
<trkpt lat="23.121544" lon="113.980085">
<time>2016-10-06T09:46:24Z</time></trkpt>
<trkpt lat="23.121816" lon="113.979327">
<time>2016-10-06T09:46:25Z</time></trkpt>
<trkpt lat="23.122119" lon="113.978429">
<time>2016-10-06T09:46:26Z</time></trkpt>
<trkpt lat="23.122411" lon="113.977512">
<time>2016-10-06T09:46:27Z</time></trkpt>
<trkpt lat="23.122572" lon="113.977023">
<time>2016-10-06T09:46:28Z</time></trkpt>
<trkpt lat="23.122734" lon="113.976514">
<time>2016-10-06T09:46:29Z</time></trkpt>
<trkpt lat="23.122895" lon="113.975995">
<time>2016-10-06T09:46:30Z</time></trkpt>
<trkpt lat="23.123088" lon="113.975187">
<time>2016-10-06T09:46:31Z</time></trkpt>
<trkpt lat="23.123179" lon="113.974618">
<time>2016-10-06T09:46:32Z</time></trkpt>
<trkpt lat="23.12321" lon="113.974439">
<time>2016-10-06T09:46:33Z</time></trkpt>
<trkpt lat="23.123362" lon="113.973471">
<time>2016-10-06T09:46:34Z</time></trkpt>
<trkpt lat="23.123535" lon="113.972444">
<time>2016-10-06T09:46:35Z</time></trkpt>
<trkpt lat="23.123535" lon="113.972444">
<time>2016-10-06T09:46:36Z</time></trkpt>
<trkpt lat="23.123638" lon="113.971615">
<time>2016-10-06T09:46:37Z</time></trkpt>
<trkpt lat="23.12374" lon="113.970797">
<time>2016-10-06T09:46:38Z</time></trkpt>
<trkpt lat="23.12376" lon="113.970628">
<time>2016-10-06T09:46:39Z</time></trkpt>
<trkpt lat="23.123862" lon="113.969989">
<time>2016-10-06T09:46:40Z</time></trkpt>
<trkpt lat="23.123944" lon="113.969351">
<time>2016-10-06T09:46:41Z</time></trkpt>
<trkpt lat="23.123994" lon="113.969061">
<time>2016-10-06T09:46:42Z</time></trkpt>
<trkpt lat="23.124046" lon="113.968652">
<time>2016-10-06T09:46:43Z</time></trkpt>
<trkpt lat="23.124148" lon="113.967944">
<time>2016-10-06T09:46:44Z</time></trkpt>
<trkpt lat="23.124168" lon="113.967804">
<time>2016-10-06T09:46:45Z</time></trkpt>
<trkpt lat="23.124259" lon="113.967285">
<time>2016-10-06T09:46:46Z</time></trkpt>
<trkpt lat="23.124423" lon="113.965958">
<time>2016-10-06T09:46:47Z</time></trkpt>
<trkpt lat="23.124433" lon="113.965828">
<time>2016-10-06T09:46:48Z</time></trkpt>
<trkpt lat="23.124576" lon="113.964651">
<time>2016-10-06T09:46:49Z</time></trkpt>
<trkpt lat="23.124658" lon="113.964022">
<time>2016-10-06T09:46:50Z</time></trkpt>
<trkpt lat="23.124719" lon="113.963483">
<time>2016-10-06T09:46:51Z</time></trkpt>
<trkpt lat="23.124721" lon="113.962835">
<time>2016-10-06T09:46:52Z</time></trkpt>
<trkpt lat="23.124721" lon="113.962835">
<time>2016-10-06T09:46:53Z</time></trkpt>
<trkpt lat="23.124661" lon="113.962715">
<time>2016-10-06T09:46:54Z</time></trkpt>
<trkpt lat="23.124562" lon="113.962525">
<time>2016-10-06T09:46:55Z</time></trkpt>
<trkpt lat="23.124492" lon="113.962406">
<time>2016-10-06T09:46:56Z</time></trkpt>
<trkpt lat="23.124114" lon="113.961767">
<time>2016-10-06T09:46:57Z</time></trkpt>
<trkpt lat="23.124034" lon="113.961637">
<time>2016-10-06T09:46:58Z</time></trkpt>
<trkpt lat="23.123915" lon="113.961438">
<time>2016-10-06T09:46:59Z</time></trkpt>
<trkpt lat="23.123606" lon="113.960929">
<time>2016-10-06T09:47:00Z</time></trkpt>
<trkpt lat="23.123557" lon="113.960849">
<time>2016-10-06T09:47:01Z</time></trkpt>
<trkpt lat="23.123258" lon="113.96037">
<time>2016-10-06T09:47:02Z</time></trkpt>
<trkpt lat="23.123109" lon="113.960071">
<time>2016-10-06T09:47:03Z</time></trkpt>
<trkpt lat="23.12285" lon="113.959572">
<time>2016-10-06T09:47:04Z</time></trkpt>
<trkpt lat="23.122691" lon="113.959262">
<time>2016-10-06T09:47:05Z</time></trkpt>
<trkpt lat="23.122373" lon="113.958643">
<time>2016-10-06T09:47:06Z</time></trkpt>
<trkpt lat="23.122203" lon="113.958354">
<time>2016-10-06T09:47:07Z</time></trkpt>
<trkpt lat="23.121945" lon="113.957895">
<time>2016-10-06T09:47:08Z</time></trkpt>
<trkpt lat="23.121915" lon="113.957845">
<time>2016-10-06T09:47:09Z</time></trkpt>
<trkpt lat="23.121467" lon="113.957047">
<time>2016-10-06T09:47:10Z</time></trkpt>
<trkpt lat="23.121348" lon="113.956797">
<time>2016-10-06T09:47:11Z</time></trkpt>
<trkpt lat="23.121318" lon="113.956737">
<time>2016-10-06T09:47:12Z</time></trkpt>
<trkpt lat="23.121268" lon="113.956608">
<time>2016-10-06T09:47:13Z</time></trkpt>
<trkpt lat="23.121239" lon="113.956458">
<time>2016-10-06T09:47:14Z</time></trkpt>
<trkpt lat="23.121239" lon="113.956348">
<time>2016-10-06T09:47:15Z</time></trkpt>
<trkpt lat="23.121239" lon="113.956238">
<time>2016-10-06T09:47:16Z</time></trkpt>
<trkpt lat="23.121249" lon="113.956138">
<time>2016-10-06T09:47:17Z</time></trkpt>
<trkpt lat="23.12127" lon="113.956039">
<time>2016-10-06T09:47:18Z</time></trkpt>
<trkpt lat="23.12129" lon="113.955879">
<time>2016-10-06T09:47:19Z</time></trkpt>
<trkpt lat="23.12133" lon="113.955729">
<time>2016-10-06T09:47:20Z</time></trkpt>
<trkpt lat="23.121351" lon="113.955629">
<time>2016-10-06T09:47:21Z</time></trkpt>
<trkpt lat="23.121351" lon="113.955609">
<time>2016-10-06T09:47:22Z</time></trkpt>
<trkpt lat="23.121361" lon="113.95549">
<time>2016-10-06T09:47:23Z</time></trkpt>
<trkpt lat="23.121361" lon="113.95541">
<time>2016-10-06T09:47:24Z</time></trkpt>
<trkpt lat="23.121351" lon="113.95535">
<time>2016-10-06T09:47:25Z</time></trkpt>
<trkpt lat="23.121351" lon="113.95535">
<time>2016-10-06T09:47:26Z</time></trkpt>
<trkpt lat="23.121341" lon="113.95527">
<time>2016-10-06T09:47:27Z</time></trkpt>
<trkpt lat="23.121302" lon="113.95512">
<time>2016-10-06T09:47:28Z</time></trkpt>
<trkpt lat="23.121262" lon="113.954951">
<time>2016-10-06T09:47:29Z</time></trkpt>
<trkpt lat="23.121054" lon="113.954052">
<time>2016-10-06T09:47:30Z</time></trkpt>
<trkpt lat="23.120679" lon="113.952355">
<time>2016-10-06T09:47:31Z</time></trkpt>
<trkpt lat="23.120372" lon="113.950698">
<time>2016-10-06T09:47:32Z</time></trkpt>
<trkpt lat="23.120006" lon="113.949071">
<time>2016-10-06T09:47:33Z</time></trkpt>
<trkpt lat="23.119818" lon="113.948252">
<time>2016-10-06T09:47:34Z</time></trkpt>
<trkpt lat="23.1196" lon="113.947274">
<time>2016-10-06T09:47:35Z</time></trkpt>
<trkpt lat="23.119293" lon="113.945946">
<time>2016-10-06T09:47:36Z</time></trkpt>
<trkpt lat="23.118996" lon="113.944628">
<time>2016-10-06T09:47:37Z</time></trkpt>
<trkpt lat="23.118887" lon="113.944169">
<time>2016-10-06T09:47:38Z</time></trkpt>
<trkpt lat="23.118818" lon="113.943829">
<time>2016-10-06T09:47:39Z</time></trkpt>
<trkpt lat="23.118818" lon="113.943829">
<time>2016-10-06T09:47:40Z</time></trkpt>
<trkpt lat="23.118149" lon="113.94321">
<time>2016-10-06T09:47:41Z</time></trkpt>
<trkpt lat="23.117531" lon="113.942631">
<time>2016-10-06T09:47:42Z</time></trkpt>
<trkpt lat="23.117251" lon="113.942401">
<time>2016-10-06T09:47:43Z</time></trkpt>
<trkpt lat="23.117073" lon="113.941493">
<time>2016-10-06T09:47:44Z</time></trkpt>
<trkpt lat="23.116726" lon="113.940015">
<time>2016-10-06T09:47:45Z</time></trkpt>
<trkpt lat="23.116488" lon="113.938936">
<time>2016-10-06T09:47:46Z</time></trkpt>
<trkpt lat="23.116449" lon="113.938756">
<time>2016-10-06T09:47:47Z</time></trkpt>
<trkpt lat="23.11625" lon="113.937857">
<time>2016-10-06T09:47:48Z</time></trkpt>
<trkpt lat="23.116052" lon="113.937018">
<time>2016-10-06T09:47:49Z</time></trkpt>
<trkpt lat="23.115883" lon="113.936399">
<time>2016-10-06T09:47:50Z</time></trkpt>
<trkpt lat="23.115734" lon="113.93562">
<time>2016-10-06T09:47:51Z</time></trkpt>
<trkpt lat="23.115536" lon="113.934801">
<time>2016-10-06T09:47:52Z</time></trkpt>
<trkpt lat="23.115377" lon="113.934112">
<time>2016-10-06T09:47:53Z</time></trkpt>
<trkpt lat="23.115228" lon="113.933432">
<time>2016-10-06T09:47:54Z</time></trkpt>
<trkpt lat="23.115099" lon="113.932803">
<time>2016-10-06T09:47:55Z</time></trkpt>
<trkpt lat="23.11495" lon="113.932194">
<time>2016-10-06T09:47:56Z</time></trkpt>
<trkpt lat="23.114881" lon="113.931914">
<time>2016-10-06T09:47:57Z</time></trkpt>
<trkpt lat="23.114861" lon="113.931844">
<time>2016-10-06T09:47:58Z</time></trkpt>
<trkpt lat="23.114811" lon="113.931584">
<time>2016-10-06T09:47:59Z</time></trkpt>
<trkpt lat="23.114802" lon="113.931394">
<time>2016-10-06T09:48:00Z</time></trkpt>
<trkpt lat="23.114863" lon="113.930665">
<time>2016-10-06T09:48:01Z</time></trkpt>
<trkpt lat="23.115275" lon="113.928647">
<time>2016-10-06T09:48:02Z</time></trkpt>
<trkpt lat="23.115436" lon="113.927957">
<time>2016-10-06T09:48:03Z</time></trkpt>
<trkpt lat="23.115677" lon="113.927248">
<time>2016-10-06T09:48:04Z</time></trkpt>
<trkpt lat="23.117232" lon="113.92318">
<time>2016-10-06T09:48:05Z</time></trkpt>
<trkpt lat="23.118244" lon="113.921181">
<time>2016-10-06T09:48:06Z</time></trkpt>
<trkpt lat="23.119425" lon="113.918912">
<time>2016-10-06T09:48:07Z</time></trkpt>
<trkpt lat="23.119495" lon="113.918762">
<time>2016-10-06T09:48:08Z</time></trkpt>
<trkpt lat="23.119876" lon="113.918042">
<time>2016-10-06T09:48:09Z</time></trkpt>
<trkpt lat="23.120186" lon="113.917463">
<time>2016-10-06T09:48:10Z</time></trkpt>
<trkpt lat="23.120247" lon="113.917353">
<time>2016-10-06T09:48:11Z</time></trkpt>
<trkpt lat="23.120387" lon="113.917083">
<time>2016-10-06T09:48:12Z</time></trkpt>
<trkpt lat="23.120507" lon="113.916853">
<time>2016-10-06T09:48:13Z</time></trkpt>
<trkpt lat="23.120677" lon="113.916523">
<time>2016-10-06T09:48:14Z</time></trkpt>
<trkpt lat="23.120717" lon="113.916413">
<time>2016-10-06T09:48:15Z</time></trkpt>
<trkpt lat="23.120747" lon="113.916303">
<time>2016-10-06T09:48:16Z</time></trkpt>
<trkpt lat="23.120757" lon="113.916263">
<time>2016-10-06T09:48:17Z</time></trkpt>
<trkpt lat="23.120767" lon="113.916223">
<time>2016-10-06T09:48:18Z</time></trkpt>
<trkpt lat="23.120787" lon="113.916153">
<time>2016-10-06T09:48:19Z</time></trkpt>
<trkpt lat="23.120797" lon="113.916063">
<time>2016-10-06T09:48:20Z</time></trkpt>
<trkpt lat="23.120848" lon="113.915633">
<time>2016-10-06T09:48:21Z</time></trkpt>
<trkpt lat="23.120999" lon="113.914243">
<time>2016-10-06T09:48:22Z</time></trkpt>
<trkpt lat="23.121049" lon="113.913663">
<time>2016-10-06T09:48:23Z</time></trkpt>
<trkpt lat="23.12109" lon="113.913233">
<time>2016-10-06T09:48:24Z</time></trkpt>
<trkpt lat="23.12114" lon="113.912813">
<time>2016-10-06T09:48:25Z</time></trkpt>
<trkpt lat="23.12115" lon="113.912713">
<time>2016-10-06T09:48:26Z</time></trkpt>
<trkpt lat="23.1212" lon="113.912173">
<time>2016-10-06T09:48:27Z</time></trkpt>
<trkpt lat="23.12122" lon="113.912003">
<time>2016-10-06T09:48:28Z</time></trkpt>
<trkpt lat="23.12122" lon="113.911863">
<time>2016-10-06T09:48:29Z</time></trkpt>
<trkpt lat="23.121221" lon="113.911713">
<time>2016-10-06T09:48:30Z</time></trkpt>
<trkpt lat="23.121201" lon="113.911553">
<time>2016-10-06T09:48:31Z</time></trkpt>
<trkpt lat="23.121201" lon="113.911553">
<time>2016-10-06T09:48:32Z</time></trkpt>
<trkpt lat="23.121171" lon="113.911323">
<time>2016-10-06T09:48:33Z</time></trkpt>
<trkpt lat="23.121131" lon="113.910983">
<time>2016-10-06T09:48:34Z</time></trkpt>
<trkpt lat="23.121041" lon="113.910373">
<time>2016-10-06T09:48:35Z</time></trkpt>
<trkpt lat="23.120922" lon="113.909383">
<time>2016-10-06T09:48:36Z</time></trkpt>
<trkpt lat="23.120912" lon="113.909263">
<time>2016-10-06T09:48:37Z</time></trkpt>
<trkpt lat="23.120912" lon="113.909083">
<time>2016-10-06T09:48:38Z</time></trkpt>
<trkpt lat="23.120942" lon="113.908903">
<time>2016-10-06T09:48:39Z</time></trkpt>
<trkpt lat="23.120982" lon="113.908693">
<time>2016-10-06T09:48:40Z</time></trkpt>
<trkpt lat="23.121043" lon="113.908463">
<time>2016-10-06T09:48:41Z</time></trkpt>
<trkpt lat="23.121093" lon="113.908263">
<time>2016-10-06T09:48:42Z</time></trkpt>
<trkpt lat="23.121203" lon="113.907833">
<time>2016-10-06T09:48:43Z</time></trkpt>
<trkpt lat="23.121243" lon="113.907693">
<time>2016-10-06T09:48:44Z</time></trkpt>
<trkpt lat="23.121293" lon="113.907473">
<time>2016-10-06T09:48:45Z</time></trkpt>
<trkpt lat="23.121303" lon="113.907323">
<time>2016-10-06T09:48:46Z</time></trkpt>
<trkpt lat="23.121313" lon="113.907163">
<time>2016-10-06T09:48:47Z</time></trkpt>
<trkpt lat="23.121293" lon="113.906953">
<time>2016-10-06T09:48:48Z</time></trkpt>
<trkpt lat="23.121243" lon="113.906363">
<time>2016-10-06T09:48:49Z</time></trkpt>
<trkpt lat="23.121214" lon="113.905312">
<time>2016-10-06T09:48:50Z</time></trkpt>
<trkpt lat="23.121224" lon="113.904972">
<time>2016-10-06T09:48:51Z</time></trkpt>
<trkpt lat="23.121214" lon="113.904642">
<time>2016-10-06T09:48:52Z</time></trkpt>
<trkpt lat="23.121184" lon="113.904172">
<time>2016-10-06T09:48:53Z</time></trkpt>
<trkpt lat="23.121095" lon="113.903172">
<time>2016-10-06T09:48:54Z</time></trkpt>
<trkpt lat="23.120965" lon="113.901821">
<time>2016-10-06T09:48:55Z</time></trkpt>
<trkpt lat="23.120516" lon="113.898679">
<time>2016-10-06T09:48:56Z</time></trkpt>
<trkpt lat="23.120476" lon="113.898319">
<time>2016-10-06T09:48:57Z</time></trkpt>
<trkpt lat="23.120466" lon="113.898279">
<time>2016-10-06T09:48:58Z</time></trkpt>
<trkpt lat="23.120436" lon="113.898139">
<time>2016-10-06T09:48:59Z</time></trkpt>
<trkpt lat="23.120436" lon="113.898139">
<time>2016-10-06T09:49:00Z</time></trkpt>
<trkpt lat="23.120426" lon="113.898119">
<time>2016-10-06T09:49:01Z</time></trkpt>
<trkpt lat="23.120376" lon="113.897939">
<time>2016-10-06T09:49:02Z</time></trkpt>
<trkpt lat="23.120286" lon="113.897669">
<time>2016-10-06T09:49:03Z</time></trkpt>
<trkpt lat="23.119976" lon="113.896678">
<time>2016-10-06T09:49:04Z</time></trkpt>
<trkpt lat="23.119806" lon="113.896037">
<time>2016-10-06T09:49:05Z</time></trkpt>
<trkpt lat="23.119746" lon="113.895807">
<time>2016-10-06T09:49:06Z</time></trkpt>
<trkpt lat="23.119286" lon="113.894476">
<time>2016-10-06T09:49:07Z</time></trkpt>
<trkpt lat="23.119196" lon="113.894216">
<time>2016-10-06T09:49:08Z</time></trkpt>
<trkpt lat="23.119046" lon="113.893736">
<time>2016-10-06T09:49:09Z</time></trkpt>
<trkpt lat="23.119016" lon="113.893606">
<time>2016-10-06T09:49:10Z</time></trkpt>
<trkpt lat="23.118436" lon="113.891854">
<time>2016-10-06T09:49:11Z</time></trkpt>
<trkpt lat="23.118436" lon="113.891854">
<time>2016-10-06T09:49:12Z</time></trkpt>
<trkpt lat="23.118376" lon="113.891794">
<time>2016-10-06T09:49:13Z</time></trkpt>
<trkpt lat="23.118206" lon="113.891293">
<time>2016-10-06T09:49:14Z</time></trkpt>
<trkpt lat="23.118156" lon="113.891103">
<time>2016-10-06T09:49:15Z</time></trkpt>
<trkpt lat="23.118116" lon="113.890873">
<time>2016-10-06T09:49:16Z</time></trkpt>
<trkpt lat="23.118096" lon="113.890713">
<time>2016-10-06T09:49:17Z</time></trkpt>
<trkpt lat="23.118066" lon="113.890463">
<time>2016-10-06T09:49:18Z</time></trkpt>
<trkpt lat="23.117955" lon="113.889191">
<time>2016-10-06T09:49:19Z</time></trkpt>
<trkpt lat="23.117785" lon="113.887049">
<time>2016-10-06T09:49:20Z</time></trkpt>
<trkpt lat="23.117744" lon="113.886468">
<time>2016-10-06T09:49:21Z</time></trkpt>
<trkpt lat="23.117744" lon="113.886218">
<time>2016-10-06T09:49:22Z</time></trkpt>
<trkpt lat="23.117744" lon="113.885778">
<time>2016-10-06T09:49:23Z</time></trkpt>
<trkpt lat="23.117754" lon="113.885587">
<time>2016-10-06T09:49:24Z</time></trkpt>
<trkpt lat="23.117754" lon="113.885557">
<time>2016-10-06T09:49:25Z</time></trkpt>
<trkpt lat="23.117794" lon="113.885247">
<time>2016-10-06T09:49:26Z</time></trkpt>
<trkpt lat="23.117893" lon="113.884576">
<time>2016-10-06T09:49:27Z</time></trkpt>
<trkpt lat="23.117893" lon="113.884576">
<time>2016-10-06T09:49:28Z</time></trkpt>
<trkpt lat="23.117304" lon="113.884316">
<time>2016-10-06T09:49:29Z</time></trkpt>
<trkpt lat="23.117244" lon="113.884216">
<time>2016-10-06T09:49:30Z</time></trkpt>
<trkpt lat="23.117133" lon="113.883895">
<time>2016-10-06T09:49:31Z</time></trkpt>
<trkpt lat="23.117123" lon="113.883505">
<time>2016-10-06T09:49:32Z</time></trkpt>
<trkpt lat="23.117123" lon="113.883505">
<time>2016-10-06T09:49:33Z</time></trkpt>
<trkpt lat="23.117083" lon="113.883405">
<time>2016-10-06T09:49:34Z</time></trkpt>
<trkpt lat="23.11704" lon="113.878828">
<time>2016-10-06T09:49:35Z</time></trkpt>
<trkpt lat="23.11704" lon="113.878808">
<time>2016-10-06T09:49:36Z</time></trkpt>
<trkpt lat="23.11705" lon="113.878708">
<time>2016-10-06T09:49:37Z</time></trkpt>
<trkpt lat="23.11705" lon="113.878558">
<time>2016-10-06T09:49:38Z</time></trkpt>
<trkpt lat="23.11705" lon="113.878458">
<time>2016-10-06T09:49:39Z</time></trkpt>
<trkpt lat="23.11707" lon="113.878337">
<time>2016-10-06T09:49:40Z</time></trkpt>
<trkpt lat="23.11708" lon="113.878267">
<time>2016-10-06T09:49:41Z</time></trkpt>
<trkpt lat="23.11708" lon="113.878267">
<time>2016-10-06T09:49:42Z</time></trkpt>
<trkpt lat="23.11485" lon="113.877977">
<time>2016-10-06T09:49:43Z</time></trkpt>
<trkpt lat="23.114401" lon="113.877917">
<time>2016-10-06T09:49:44Z</time></trkpt>
<trkpt lat="23.114401" lon="113.877917">
<time>2016-10-06T09:49:45Z</time></trkpt>
<trkpt lat="23.1144" lon="113.877536">
<time>2016-10-06T09:49:46Z</time></trkpt>
<trkpt lat="23.114389" lon="113.875743">
<time>2016-10-06T09:49:47Z</time></trkpt>
<trkpt lat="23.114388" lon="113.875102">
<time>2016-10-06T09:49:48Z</time></trkpt>
<trkpt lat="23.114378" lon="113.875012">
<time>2016-10-06T09:49:49Z</time></trkpt>
<trkpt lat="23.114397" lon="113.87378">
<time>2016-10-06T09:49:50Z</time></trkpt>
<trkpt lat="23.114406" lon="113.873179">
<time>2016-10-06T09:49:51Z</time></trkpt>
<trkpt lat="23.114406" lon="113.873099">
<time>2016-10-06T09:49:52Z</time></trkpt>
<trkpt lat="23.114406" lon="113.872568">
<time>2016-10-06T09:49:53Z</time></trkpt>
<trkpt lat="23.114414" lon="113.871055">
<time>2016-10-06T09:49:54Z</time></trkpt>
<trkpt lat="23.114393" lon="113.870214">
<time>2016-10-06T09:49:55Z</time></trkpt>
<trkpt lat="23.114362" lon="113.869072">
<time>2016-10-06T09:49:56Z</time></trkpt>
<trkpt lat="23.114352" lon="113.868741">
<time>2016-10-06T09:49:57Z</time></trkpt>
<trkpt lat="23.114352" lon="113.868681">
<time>2016-10-06T09:49:58Z</time></trkpt>
<trkpt lat="23.114352" lon="113.868491">
<time>2016-10-06T09:49:59Z</time></trkpt>
<trkpt lat="23.114349" lon="113.866527">
<time>2016-10-06T09:50:00Z</time></trkpt>
<trkpt lat="23.114376" lon="113.864002">
<time>2016-10-06T09:50:01Z</time></trkpt>
<trkpt lat="23.114376" lon="113.863952">
<time>2016-10-06T09:50:02Z</time></trkpt>
<trkpt lat="23.114376" lon="113.863952">
<time>2016-10-06T09:50:03Z</time></trkpt>
<trkpt lat="23.114306" lon="113.863922">
<time>2016-10-06T09:50:04Z</time></trkpt>
<trkpt lat="23.113786" lon="113.863932">
<time>2016-10-06T09:50:05Z</time></trkpt>
<trkpt lat="23.113577" lon="113.863932">
<time>2016-10-06T09:50:06Z</time></trkpt>
<trkpt lat="23.112507" lon="113.863952">
<time>2016-10-06T09:50:07Z</time></trkpt>
<trkpt lat="23.111707" lon="113.863952">
<time>2016-10-06T09:50:08Z</time></trkpt>
<trkpt lat="23.111707" lon="113.863952">
<time>2016-10-06T09:50:09Z</time></trkpt>
<trkpt lat="23.111487" lon="113.863892">
<time>2016-10-06T09:50:10Z</time></trkpt>
<trkpt lat="23.111327" lon="113.863792">
<time>2016-10-06T09:50:11Z</time></trkpt>
<trkpt lat="23.111217" lon="113.863701">
<time>2016-10-06T09:50:12Z</time></trkpt>
<trkpt lat="23.111167" lon="113.863641">
<time>2016-10-06T09:50:13Z</time></trkpt>
<trkpt lat="23.111167" lon="113.863641">
<time>2016-10-06T09:50:14Z</time></trkpt>
<trkpt lat="23.111106" lon="113.86282">
<time>2016-10-06T09:50:15Z</time></trkpt>
<trkpt lat="23.111005" lon="113.861878">
<time>2016-10-06T09:50:16Z</time></trkpt>
<trkpt lat="23.110924" lon="113.861006">
<time>2016-10-06T09:50:17Z</time></trkpt>
<trkpt lat="23.11061" lon="113.857909">
<time>2016-10-06T09:50:18Z</time></trkpt>
<trkpt lat="23.110498" lon="113.856646">
<time>2016-10-06T09:50:19Z</time></trkpt>
<trkpt lat="23.110458" lon="113.856426">
<time>2016-10-06T09:50:20Z</time></trkpt>
<trkpt lat="23.110437" lon="113.856315">
<time>2016-10-06T09:50:21Z</time></trkpt>
<trkpt lat="23.110437" lon="113.856315">
<time>2016-10-06T09:50:22Z</time></trkpt>
<trkpt lat="23.110597" lon="113.856165">
<time>2016-10-06T09:50:23Z</time></trkpt>
<trkpt lat="23.111476" lon="113.855834">
<time>2016-10-06T09:50:24Z</time></trkpt>
<trkpt lat="23.111526" lon="113.855814">
<time>2016-10-06T09:50:25Z</time></trkpt>
<trkpt lat="23.112126" lon="113.855594">
<time>2016-10-06T09:50:26Z</time></trkpt>
<trkpt lat="23.112126" lon="113.855594">
<time>2016-10-06T09:50:27Z</time></trkpt>
<trkpt lat="23.112106" lon="113.855534">
<time>2016-10-06T09:50:28Z</time></trkpt>
<trkpt lat="23.112095" lon="113.855453">
<time>2016-10-06T09:50:29Z</time></trkpt>
<trkpt lat="23.112085" lon="113.855393">
<time>2016-10-06T09:50:30Z</time></trkpt>
<trkpt lat="23.112085" lon="113.855313">
<time>2016-10-06T09:50:31Z</time></trkpt>
<trkpt lat="23.112125" lon="113.854902">
<time>2016-10-06T09:50:32Z</time></trkpt>
<trkpt lat="23.112135" lon="113.854902">
<time>2016-10-06T09:50:33Z</time></trkpt>
<trkpt lat="23.112213" lon="113.85407">
<time>2016-10-06T09:50:34Z</time></trkpt>
<trkpt lat="23.112233" lon="113.85396">
<time>2016-10-06T09:50:35Z</time></trkpt>
<trkpt lat="23.112253" lon="113.85386">
<time>2016-10-06T09:50:36Z</time></trkpt>
<trkpt lat="23.112323" lon="113.853609">
<time>2016-10-06T09:50:37Z</time></trkpt>
<trkpt lat="23.112352" lon="113.853499">
<time>2016-10-06T09:50:38Z</time></trkpt>
<trkpt lat="23.112432" lon="113.853148">
<time>2016-10-06T09:50:39Z</time></trkpt>
<trkpt lat="23.112442" lon="113.853098">
<time>2016-10-06T09:50:40Z</time></trkpt>
<trkpt lat="23.112442" lon="113.853038">
<time>2016-10-06T09:50:41Z</time></trkpt>
<trkpt lat="23.112442" lon="113.852938">
<time>2016-10-06T09:50:42Z</time></trkpt>
<trkpt lat="23.112431" lon="113.852817">
<time>2016-10-06T09:50:43Z</time></trkpt>
<trkpt lat="23.112431" lon="113.852807">
<time>2016-10-06T09:50:44Z</time></trkpt>
<trkpt lat="23.112431" lon="113.852757">
<time>2016-10-06T09:50:45Z</time></trkpt>
<trkpt lat="23.112381" lon="113.852517">
<time>2016-10-06T09:50:46Z</time></trkpt>
<trkpt lat="23.112371" lon="113.852456">
<time>2016-10-06T09:50:47Z</time></trkpt>
<trkpt lat="23.112361" lon="113.852286">
<time>2016-10-06T09:50:48Z</time></trkpt>
<trkpt lat="23.112209" lon="113.851504">
<time>2016-10-06T09:50:49Z</time></trkpt>
<trkpt lat="23.112159" lon="113.851093">
<time>2016-10-06T09:50:50Z</time></trkpt>
<trkpt lat="23.112149" lon="113.850983">
<time>2016-10-06T09:50:51Z</time></trkpt>
<trkpt lat="23.112128" lon="113.850752">
<time>2016-10-06T09:50:52Z</time></trkpt>
<trkpt lat="23.112117" lon="113.850021">
<time>2016-10-06T09:50:53Z</time></trkpt>
<trkpt lat="23.112117" lon="113.850021">
<time>2016-10-06T09:50:54Z</time></trkpt>
<trkpt lat="23.112137" lon="113.84992">
<time>2016-10-06T09:50:55Z</time></trkpt>
<trkpt lat="23.111985" lon="113.848998">
<time>2016-10-06T09:50:56Z</time></trkpt>
<trkpt lat="23.111935" lon="113.848477">
<time>2016-10-06T09:50:57Z</time></trkpt>
<trkpt lat="23.111935" lon="113.848467">
<time>2016-10-06T09:50:58Z</time></trkpt>
<trkpt lat="23.111904" lon="113.848086">
<time>2016-10-06T09:50:59Z</time></trkpt>
<trkpt lat="23.111762" lon="113.846552">
<time>2016-10-06T09:51:00Z</time></trkpt>
<trkpt lat="23.111762" lon="113.846552">
<time>2016-10-06T09:51:01Z</time></trkpt>
<trkpt lat="23.111639" lon="113.845229">
<time>2016-10-06T09:51:02Z</time></trkpt>
<trkpt lat="23.111597" lon="113.844126">
<time>2016-10-06T09:51:03Z</time></trkpt>
<trkpt lat="23.111577" lon="113.843996">
<time>2016-10-06T09:51:04Z</time></trkpt>
<trkpt lat="23.111527" lon="113.843775">
<time>2016-10-06T09:51:05Z</time></trkpt>
<trkpt lat="23.111536" lon="113.843033">
<time>2016-10-06T09:51:06Z</time></trkpt>
<trkpt lat="23.111535" lon="113.842743">
<time>2016-10-06T09:51:07Z</time></trkpt>
<trkpt lat="23.111534" lon="113.842061">
<time>2016-10-06T09:51:08Z</time></trkpt>
<trkpt lat="23.111534" lon="113.842061">
<time>2016-10-06T09:51:09Z</time></trkpt>
<trkpt lat="23.111543" lon="113.84167">
<time>2016-10-06T09:51:10Z</time></trkpt>
<trkpt lat="23.111553" lon="113.841339">
<time>2016-10-06T09:51:11Z</time></trkpt>
<trkpt lat="23.111572" lon="113.841068">
<time>2016-10-06T09:51:12Z</time></trkpt>
<trkpt lat="23.111592" lon="113.840878">
<time>2016-10-06T09:51:13Z</time></trkpt>
<trkpt lat="23.111592" lon="113.840808">
<time>2016-10-06T09:51:14Z</time></trkpt>
<trkpt lat="23.111621" lon="113.840627">
<time>2016-10-06T09:51:15Z</time></trkpt>
<trkpt lat="23.111671" lon="113.840366">
<time>2016-10-06T09:51:16Z</time></trkpt>
<trkpt lat="23.11174" lon="113.840026">
<time>2016-10-06T09:51:17Z</time></trkpt>
<trkpt lat="23.11178" lon="113.839845">
<time>2016-10-06T09:51:18Z</time></trkpt>
<trkpt lat="23.111869" lon="113.839514">
<time>2016-10-06T09:51:19Z</time></trkpt>
<trkpt lat="23.111879" lon="113.839454">
<time>2016-10-06T09:51:20Z</time></trkpt>
<trkpt lat="23.111899" lon="113.839404">
<time>2016-10-06T09:51:21Z</time></trkpt>
<trkpt lat="23.111909" lon="113.839354">
<time>2016-10-06T09:51:22Z</time></trkpt>
<trkpt lat="23.111929" lon="113.839274">
<time>2016-10-06T09:51:23Z</time></trkpt>
<trkpt lat="23.111939" lon="113.839193">
<time>2016-10-06T09:51:24Z</time></trkpt>
<trkpt lat="23.111949" lon="113.839133">
<time>2016-10-06T09:51:25Z</time></trkpt>
<trkpt lat="23.111948" lon="113.839073">
<time>2016-10-06T09:51:26Z</time></trkpt>
<trkpt lat="23.111948" lon="113.839023">
<time>2016-10-06T09:51:27Z</time></trkpt>
<trkpt lat="23.111948" lon="113.838953">
<time>2016-10-06T09:51:28Z</time></trkpt>
<trkpt lat="23.111948" lon="113.838832">
<time>2016-10-06T09:51:29Z</time></trkpt>
<trkpt lat="23.111877" lon="113.838101">
<time>2016-10-06T09:51:30Z</time></trkpt>
<trkpt lat="23.111867" lon="113.83802">
<time>2016-10-06T09:51:31Z</time></trkpt>
<trkpt lat="23.111816" lon="113.837469">
<time>2016-10-06T09:51:32Z</time></trkpt>
<trkpt lat="23.111805" lon="113.837369">
<time>2016-10-06T09:51:33Z</time></trkpt>
<trkpt lat="23.111805" lon="113.837369">
<time>2016-10-06T09:51:34Z</time></trkpt>
<trkpt lat="23.111795" lon="113.837278">
<time>2016-10-06T09:51:35Z</time></trkpt>
<trkpt lat="23.111805" lon="113.837238">
<time>2016-10-06T09:51:36Z</time></trkpt>
<trkpt lat="23.111815" lon="113.837188">
<time>2016-10-06T09:51:37Z</time></trkpt>
<trkpt lat="23.111875" lon="113.836867">
<time>2016-10-06T09:51:38Z</time></trkpt>
<trkpt lat="23.111944" lon="113.836426">
<time>2016-10-06T09:51:39Z</time></trkpt>
<trkpt lat="23.112013" lon="113.836065">
<time>2016-10-06T09:51:40Z</time></trkpt>
<trkpt lat="23.112033" lon="113.835905">
<time>2016-10-06T09:51:41Z</time></trkpt>
<trkpt lat="23.112161" lon="113.835203">
<time>2016-10-06T09:51:42Z</time></trkpt>
<trkpt lat="23.112171" lon="113.835163">
<time>2016-10-06T09:51:43Z</time></trkpt>
<trkpt lat="23.112231" lon="113.834832">
<time>2016-10-06T09:51:44Z</time></trkpt>
<trkpt lat="23.112409" lon="113.833919">
<time>2016-10-06T09:51:45Z</time></trkpt>
<trkpt lat="23.112429" lon="113.833789">
<time>2016-10-06T09:51:46Z</time></trkpt>
<trkpt lat="23.112518" lon="113.833248">
<time>2016-10-06T09:51:47Z</time></trkpt>
<trkpt lat="23.112607" lon="113.832766">
<time>2016-10-06T09:51:48Z</time></trkpt>
<trkpt lat="23.112686" lon="113.832295">
<time>2016-10-06T09:51:49Z</time></trkpt>
<trkpt lat="23.112775" lon="113.831794">
<time>2016-10-06T09:51:50Z</time></trkpt>
<trkpt lat="23.112913" lon="113.831012">
<time>2016-10-06T09:51:51Z</time></trkpt>
<trkpt lat="23.112963" lon="113.830791">
<time>2016-10-06T09:51:52Z</time></trkpt>
<trkpt lat="23.113072" lon="113.830119">
<time>2016-10-06T09:51:53Z</time></trkpt>
<trkpt lat="23.113101" lon="113.829899">
<time>2016-10-06T09:51:54Z</time></trkpt>
<trkpt lat="23.113229" lon="113.828766">
<time>2016-10-06T09:51:55Z</time></trkpt>
<trkpt lat="23.113249" lon="113.828605">
<time>2016-10-06T09:51:56Z</time></trkpt>
<trkpt lat="23.113546" lon="113.827151">
<time>2016-10-06T09:51:57Z</time></trkpt>
<trkpt lat="23.113625" lon="113.82676">
<time>2016-10-06T09:51:58Z</time></trkpt>
<trkpt lat="23.113684" lon="113.826429">
<time>2016-10-06T09:51:59Z</time></trkpt>
<trkpt lat="23.113793" lon="113.825838">
<time>2016-10-06T09:52:00Z</time></trkpt>
<trkpt lat="23.113823" lon="113.825637">
<time>2016-10-06T09:52:01Z</time></trkpt>
<trkpt lat="23.113872" lon="113.825417">
<time>2016-10-06T09:52:02Z</time></trkpt>
<trkpt lat="23.113892" lon="113.825316">
<time>2016-10-06T09:52:03Z</time></trkpt>
<trkpt lat="23.113912" lon="113.825226">
<time>2016-10-06T09:52:04Z</time></trkpt>
<trkpt lat="23.113932" lon="113.825126">
<time>2016-10-06T09:52:05Z</time></trkpt>
<trkpt lat="23.113952" lon="113.825086">
<time>2016-10-06T09:52:06Z</time></trkpt>
<trkpt lat="23.114061" lon="113.824785">
<time>2016-10-06T09:52:07Z</time></trkpt>
<trkpt lat="23.114121" lon="113.824614">
<time>2016-10-06T09:52:08Z</time></trkpt>
<trkpt lat="23.11431" lon="113.824163">
<time>2016-10-06T09:52:09Z</time></trkpt>
<trkpt lat="23.114409" lon="113.823912">
<time>2016-10-06T09:52:10Z</time></trkpt>
<trkpt lat="23.114579" lon="113.823531">
<time>2016-10-06T09:52:11Z</time></trkpt>
<trkpt lat="23.114648" lon="113.823371">
<time>2016-10-06T09:52:12Z</time></trkpt>
<trkpt lat="23.114768" lon="113.82313">
<time>2016-10-06T09:52:13Z</time></trkpt>
<trkpt lat="23.114817" lon="113.82299">
<time>2016-10-06T09:52:14Z</time></trkpt>
<trkpt lat="23.115196" lon="113.822448">
<time>2016-10-06T09:52:15Z</time></trkpt>
<trkpt lat="23.115226" lon="113.822398">
<time>2016-10-06T09:52:16Z</time></trkpt>
<trkpt lat="23.115226" lon="113.822398">
<time>2016-10-06T09:52:17Z</time></trkpt>
<trkpt lat="23.116303" lon="113.820984">
<time>2016-10-06T09:52:18Z</time></trkpt>
<trkpt lat="23.116832" lon="113.820323">
<time>2016-10-06T09:52:19Z</time></trkpt>
<trkpt lat="23.11728" lon="113.819751">
<time>2016-10-06T09:52:20Z</time></trkpt>
<trkpt lat="23.118606" lon="113.817916">
<time>2016-10-06T09:52:21Z</time></trkpt>
<trkpt lat="23.118836" lon="113.817595">
<time>2016-10-06T09:52:22Z</time></trkpt>
<trkpt lat="23.119942" lon="113.816151">
<time>2016-10-06T09:52:23Z</time></trkpt>
<trkpt lat="23.120092" lon="113.815951">
<time>2016-10-06T09:52:24Z</time></trkpt>
<trkpt lat="23.12066" lon="113.815128">
<time>2016-10-06T09:52:25Z</time></trkpt>
<trkpt lat="23.120959" lon="113.814627">
<time>2016-10-06T09:52:26Z</time></trkpt>
<trkpt lat="23.121109" lon="113.814306">
<time>2016-10-06T09:52:27Z</time></trkpt>
<trkpt lat="23.121208" lon="113.814096">
<time>2016-10-06T09:52:28Z</time></trkpt>
<trkpt lat="23.121238" lon="113.814015">
<time>2016-10-06T09:52:29Z</time></trkpt>
<trkpt lat="23.121238" lon="113.814015">
<time>2016-10-06T09:52:30Z</time></trkpt>
<trkpt lat="23.121626" lon="113.813283">
<time>2016-10-06T09:52:31Z</time></trkpt>
<trkpt lat="23.121906" lon="113.812902">
<time>2016-10-06T09:52:32Z</time></trkpt>
<trkpt lat="23.122125" lon="113.812592">
<time>2016-10-06T09:52:33Z</time></trkpt>
<trkpt lat="23.122235" lon="113.812431">
<time>2016-10-06T09:52:34Z</time></trkpt>
<trkpt lat="23.122294" lon="113.812321">
<time>2016-10-06T09:52:35Z</time></trkpt>
<trkpt lat="23.122364" lon="113.81218">
<time>2016-10-06T09:52:36Z</time></trkpt>
<trkpt lat="23.122454" lon="113.81198">
<time>2016-10-06T09:52:37Z</time></trkpt>
<trkpt lat="23.122523" lon="113.811819">
<time>2016-10-06T09:52:38Z</time></trkpt>
<trkpt lat="23.122613" lon="113.811539">
<time>2016-10-06T09:52:39Z</time></trkpt>
<trkpt lat="23.122613" lon="113.811539">
<time>2016-10-06T09:52:40Z</time></trkpt>
<trkpt lat="23.122511" lon="113.810697">
<time>2016-10-06T09:52:41Z</time></trkpt>
<trkpt lat="23.122471" lon="113.810305">
<time>2016-10-06T09:52:42Z</time></trkpt>
<trkpt lat="23.122369" lon="113.809533">
<time>2016-10-06T09:52:43Z</time></trkpt>
<trkpt lat="23.122308" lon="113.809042">
<time>2016-10-06T09:52:44Z</time></trkpt>
<trkpt lat="23.122278" lon="113.808802">
<time>2016-10-06T09:52:45Z</time></trkpt>
<trkpt lat="23.122257" lon="113.80829">
<time>2016-10-06T09:52:46Z</time></trkpt>
<trkpt lat="23.122277" lon="113.80803">
<time>2016-10-06T09:52:47Z</time></trkpt>
<trkpt lat="23.122306" lon="113.807869">
<time>2016-10-06T09:52:48Z</time></trkpt>
<trkpt lat="23.122346" lon="113.807729">
<time>2016-10-06T09:52:49Z</time></trkpt>
<trkpt lat="23.122446" lon="113.807508">
<time>2016-10-06T09:52:50Z</time></trkpt>
<trkpt lat="23.122485" lon="113.807418">
<time>2016-10-06T09:52:51Z</time></trkpt>
<trkpt lat="23.122645" lon="113.807097">
<time>2016-10-06T09:52:52Z</time></trkpt>
<trkpt lat="23.122724" lon="113.806947">
<time>2016-10-06T09:52:53Z</time></trkpt>
<trkpt lat="23.122724" lon="113.806947">
<time>2016-10-06T09:52:54Z</time></trkpt>
<trkpt lat="23.122734" lon="113.806937">
<time>2016-10-06T09:52:55Z</time></trkpt>
<trkpt lat="23.122804" lon="113.806816">
<time>2016-10-06T09:52:56Z</time></trkpt>
<trkpt lat="23.122894" lon="113.806696">
<time>2016-10-06T09:52:57Z</time></trkpt>
<trkpt lat="23.123213" lon="113.806335">
<time>2016-10-06T09:52:58Z</time></trkpt>
<trkpt lat="23.123582" lon="113.805924">
<time>2016-10-06T09:52:59Z</time></trkpt>
<trkpt lat="23.123742" lon="113.805754">
<time>2016-10-06T09:53:00Z</time></trkpt>
<trkpt lat="23.123792" lon="113.805683">
<time>2016-10-06T09:53:01Z</time></trkpt>
<trkpt lat="23.123832" lon="113.805613">
<time>2016-10-06T09:53:02Z</time></trkpt>
<trkpt lat="23.123861" lon="113.805533">
<time>2016-10-06T09:53:03Z</time></trkpt>
<trkpt lat="23.123881" lon="113.805453">
<time>2016-10-06T09:53:04Z</time></trkpt>
<trkpt lat="23.123891" lon="113.805363">
<time>2016-10-06T09:53:05Z</time></trkpt>
<trkpt lat="23.123901" lon="113.805333">
<time>2016-10-06T09:53:06Z</time></trkpt>
<trkpt lat="23.12401" lon="113.804801">
<time>2016-10-06T09:53:07Z</time></trkpt>
<trkpt lat="23.124158" lon="113.803849">
<time>2016-10-06T09:53:08Z</time></trkpt>
<trkpt lat="23.124227" lon="113.803267">
<time>2016-10-06T09:53:09Z</time></trkpt>
<trkpt lat="23.124246" lon="113.802586">
<time>2016-10-06T09:53:10Z</time></trkpt>
<trkpt lat="23.124256" lon="113.802245">
<time>2016-10-06T09:53:11Z</time></trkpt>
<trkpt lat="23.124275" lon="113.802014">
<time>2016-10-06T09:53:12Z</time></trkpt>
<trkpt lat="23.124305" lon="113.801844">
<time>2016-10-06T09:53:13Z</time></trkpt>
<trkpt lat="23.124335" lon="113.801683">
<time>2016-10-06T09:53:14Z</time></trkpt>
<trkpt lat="23.124374" lon="113.801433">
<time>2016-10-06T09:53:15Z</time></trkpt>
<trkpt lat="23.124394" lon="113.801362">
<time>2016-10-06T09:53:16Z</time></trkpt>
<trkpt lat="23.124434" lon="113.801202">
<time>2016-10-06T09:53:17Z</time></trkpt>
<trkpt lat="23.124612" lon="113.80049">
<time>2016-10-06T09:53:18Z</time></trkpt>
<trkpt lat="23.124632" lon="113.80043">
<time>2016-10-06T09:53:19Z</time></trkpt>
<trkpt lat="23.12507" lon="113.799307">
<time>2016-10-06T09:53:20Z</time></trkpt>
<trkpt lat="23.12507" lon="113.799307">
<time>2016-10-06T09:53:21Z</time></trkpt>
<trkpt lat="23.1251" lon="113.799177">
<time>2016-10-06T09:53:22Z</time></trkpt>
<trkpt lat="23.125249" lon="113.798646">
<time>2016-10-06T09:53:23Z</time></trkpt>
<trkpt lat="23.125318" lon="113.798355">
<time>2016-10-06T09:53:24Z</time></trkpt>
<trkpt lat="23.125497" lon="113.797613">
<time>2016-10-06T09:53:25Z</time></trkpt>
<trkpt lat="23.125537" lon="113.797413">
<time>2016-10-06T09:53:26Z</time></trkpt>
<trkpt lat="23.125557" lon="113.797242">
<time>2016-10-06T09:53:27Z</time></trkpt>
<trkpt lat="23.125556" lon="113.797062">
<time>2016-10-06T09:53:28Z</time></trkpt>
<trkpt lat="23.125566" lon="113.796801">
<time>2016-10-06T09:53:29Z</time></trkpt>
<trkpt lat="23.125575" lon="113.79628">
<time>2016-10-06T09:53:30Z</time></trkpt>
<trkpt lat="23.125595" lon="113.796019">
<time>2016-10-06T09:53:31Z</time></trkpt>
<trkpt lat="23.125614" lon="113.795689">
<time>2016-10-06T09:53:32Z</time></trkpt>
<trkpt lat="23.125634" lon="113.795448">
<time>2016-10-06T09:53:33Z</time></trkpt>
<trkpt lat="23.125644" lon="113.795388">
<time>2016-10-06T09:53:34Z</time></trkpt>
<trkpt lat="23.125654" lon="113.795378">
<time>2016-10-06T09:53:35Z</time></trkpt>
<trkpt lat="23.125654" lon="113.795378">
<time>2016-10-06T09:53:36Z</time></trkpt>
<trkpt lat="23.125693" lon="113.795268">
<time>2016-10-06T09:53:37Z</time></trkpt>
<trkpt lat="23.125723" lon="113.795197">
<time>2016-10-06T09:53:38Z</time></trkpt>
<trkpt lat="23.125773" lon="113.795147">
<time>2016-10-06T09:53:39Z</time></trkpt>
<trkpt lat="23.125773" lon="113.795147">
<time>2016-10-06T09:53:40Z</time></trkpt>
<trkpt lat="23.125723" lon="113.794937">
<time>2016-10-06T09:53:41Z</time></trkpt>
<trkpt lat="23.125713" lon="113.794907">
<time>2016-10-06T09:53:42Z</time></trkpt>
<trkpt lat="23.125702" lon="113.794726">
<time>2016-10-06T09:53:43Z</time></trkpt>
<trkpt lat="23.125702" lon="113.794576">
<time>2016-10-06T09:53:44Z</time></trkpt>
<trkpt lat="23.125702" lon="113.794566">
<time>2016-10-06T09:53:45Z</time></trkpt>
<trkpt lat="23.125702" lon="113.794385">
<time>2016-10-06T09:53:46Z</time></trkpt>
<trkpt lat="23.125722" lon="113.794185">
<time>2016-10-06T09:53:47Z</time></trkpt>
<trkpt lat="23.125771" lon="113.793854">
<time>2016-10-06T09:53:48Z</time></trkpt>
<trkpt lat="23.12583" lon="113.793483">
<time>2016-10-06T09:53:49Z</time></trkpt>
<trkpt lat="23.125959" lon="113.792611">
<time>2016-10-06T09:53:50Z</time></trkpt>
<trkpt lat="23.125999" lon="113.792291">
<time>2016-10-06T09:53:51Z</time></trkpt>
<trkpt lat="23.125998" lon="113.79222">
<time>2016-10-06T09:53:52Z</time></trkpt>
<trkpt lat="23.126058" lon="113.79196">
<time>2016-10-06T09:53:53Z</time></trkpt>
<trkpt lat="23.126207" lon="113.791338">
<time>2016-10-06T09:53:54Z</time></trkpt>
<trkpt lat="23.126336" lon="113.790968">
<time>2016-10-06T09:53:55Z</time></trkpt>
<trkpt lat="23.126506" lon="113.790557">
<time>2016-10-06T09:53:56Z</time></trkpt>
<trkpt lat="23.126585" lon="113.790376">
<time>2016-10-06T09:53:57Z</time></trkpt>
<trkpt lat="23.126625" lon="113.790256">
<time>2016-10-06T09:53:58Z</time></trkpt>
<trkpt lat="23.126695" lon="113.790086">
<time>2016-10-06T09:53:59Z</time></trkpt>
<trkpt lat="23.126725" lon="113.790025">
<time>2016-10-06T09:54:00Z</time></trkpt>
<trkpt lat="23.126785" lon="113.789885">
<time>2016-10-06T09:54:01Z</time></trkpt>
<trkpt lat="23.126874" lon="113.789584">
<time>2016-10-06T09:54:02Z</time></trkpt>
<trkpt lat="23.127043" lon="113.788953">
<time>2016-10-06T09:54:03Z</time></trkpt>
<trkpt lat="23.127132" lon="113.788532">
<time>2016-10-06T09:54:04Z</time></trkpt>
<trkpt lat="23.127182" lon="113.788292">
<time>2016-10-06T09:54:05Z</time></trkpt>
<trkpt lat="23.127242" lon="113.787961">
<time>2016-10-06T09:54:06Z</time></trkpt>
<trkpt lat="23.127319" lon="113.786267">
<time>2016-10-06T09:54:07Z</time></trkpt>
<trkpt lat="23.127338" lon="113.785355">
<time>2016-10-06T09:54:08Z</time></trkpt>
<trkpt lat="23.127347" lon="113.784774">
<time>2016-10-06T09:54:09Z</time></trkpt>
<trkpt lat="23.127356" lon="113.784153">
<time>2016-10-06T09:54:10Z</time></trkpt>
<trkpt lat="23.127356" lon="113.783742">
<time>2016-10-06T09:54:11Z</time></trkpt>
<trkpt lat="23.127345" lon="113.78292">
<time>2016-10-06T09:54:12Z</time></trkpt>
<trkpt lat="23.127333" lon="113.781848">
<time>2016-10-06T09:54:13Z</time></trkpt>
<trkpt lat="23.127323" lon="113.781427">
<time>2016-10-06T09:54:14Z</time></trkpt>
<trkpt lat="23.127302" lon="113.781127">
<time>2016-10-06T09:54:15Z</time></trkpt>
<trkpt lat="23.127302" lon="113.780776">
<time>2016-10-06T09:54:16Z</time></trkpt>
<trkpt lat="23.12726" lon="113.779303">
<time>2016-10-06T09:54:17Z</time></trkpt>
<trkpt lat="23.127249" lon="113.778682">
<time>2016-10-06T09:54:18Z</time></trkpt>
<trkpt lat="23.127219" lon="113.778191">
<time>2016-10-06T09:54:19Z</time></trkpt>
<trkpt lat="23.127148" lon="113.77754">
<time>2016-10-06T09:54:20Z</time></trkpt>
<trkpt lat="23.126997" lon="113.776257">
<time>2016-10-06T09:54:21Z</time></trkpt>
<trkpt lat="23.126936" lon="113.775656">
<time>2016-10-06T09:54:22Z</time></trkpt>
<trkpt lat="23.126916" lon="113.775266">
<time>2016-10-06T09:54:23Z</time></trkpt>
<trkpt lat="23.126965" lon="113.774715">
<time>2016-10-06T09:54:24Z</time></trkpt>
<trkpt lat="23.127005" lon="113.774314">
<time>2016-10-06T09:54:25Z</time></trkpt>
<trkpt lat="23.127054" lon="113.773693">
<time>2016-10-06T09:54:26Z</time></trkpt>
<trkpt lat="23.127094" lon="113.773302">
<time>2016-10-06T09:54:27Z</time></trkpt>
<trkpt lat="23.127122" lon="113.77207">
<time>2016-10-06T09:54:28Z</time></trkpt>
<trkpt lat="23.127121" lon="113.771138">
<time>2016-10-06T09:54:29Z</time></trkpt>
<trkpt lat="23.12695" lon="113.769235">
<time>2016-10-06T09:54:30Z</time></trkpt>
<trkpt lat="23.12694" lon="113.769145">
<time>2016-10-06T09:54:31Z</time></trkpt>
<trkpt lat="23.126909" lon="113.768835">
<time>2016-10-06T09:54:32Z</time></trkpt>
<trkpt lat="23.126708" lon="113.767443">
<time>2016-10-06T09:54:33Z</time></trkpt>
<trkpt lat="23.126698" lon="113.767303">
<time>2016-10-06T09:54:34Z</time></trkpt>
<trkpt lat="23.126658" lon="113.767212">
<time>2016-10-06T09:54:35Z</time></trkpt>
<trkpt lat="23.126517" lon="113.766231">
<time>2016-10-06T09:54:36Z</time></trkpt>
<trkpt lat="23.126457" lon="113.765931">
<time>2016-10-06T09:54:37Z</time></trkpt>
<trkpt lat="23.126407" lon="113.76572">
<time>2016-10-06T09:54:38Z</time></trkpt>
<trkpt lat="23.126287" lon="113.7654">
<time>2016-10-06T09:54:39Z</time></trkpt>
<trkpt lat="23.126107" lon="113.765059">
<time>2016-10-06T09:54:40Z</time></trkpt>
<trkpt lat="23.126027" lon="113.764919">
<time>2016-10-06T09:54:41Z</time></trkpt>
<trkpt lat="23.125987" lon="113.764849">
<time>2016-10-06T09:54:42Z</time></trkpt>
<trkpt lat="23.125906" lon="113.764659">
<time>2016-10-06T09:54:43Z</time></trkpt>
<trkpt lat="23.125846" lon="113.764458">
<time>2016-10-06T09:54:44Z</time></trkpt>
<trkpt lat="23.125786" lon="113.764198">
<time>2016-10-06T09:54:45Z</time></trkpt>
<trkpt lat="23.125726" lon="113.763828">
<time>2016-10-06T09:54:46Z</time></trkpt>
<trkpt lat="23.125656" lon="113.763227">
<time>2016-10-06T09:54:47Z</time></trkpt>
<trkpt lat="23.125585" lon="113.762626">
<time>2016-10-06T09:54:48Z</time></trkpt>
<trkpt lat="23.125585" lon="113.762616">
<time>2016-10-06T09:54:49Z</time></trkpt>
<trkpt lat="23.125555" lon="113.762506">
<time>2016-10-06T09:54:50Z</time></trkpt>
<trkpt lat="23.125485" lon="113.762145">
<time>2016-10-06T09:54:51Z</time></trkpt>
<trkpt lat="23.125365" lon="113.761615">
<time>2016-10-06T09:54:52Z</time></trkpt>
<trkpt lat="23.125214" lon="113.761164">
<time>2016-10-06T09:54:53Z</time></trkpt>
<trkpt lat="23.125014" lon="113.760613">
<time>2016-10-06T09:54:54Z</time></trkpt>
<trkpt lat="23.124824" lon="113.760043">
<time>2016-10-06T09:54:55Z</time></trkpt>
<trkpt lat="23.124764" lon="113.759843">
<time>2016-10-06T09:54:56Z</time></trkpt>
<trkpt lat="23.124453" lon="113.758881">
<time>2016-10-06T09:54:57Z</time></trkpt>
<trkpt lat="23.124343" lon="113.758581">
<time>2016-10-06T09:54:58Z</time></trkpt>
<trkpt lat="23.124253" lon="113.758341">
<time>2016-10-06T09:54:59Z</time></trkpt>
<trkpt lat="23.124153" lon="113.758161">
<time>2016-10-06T09:55:00Z</time></trkpt>
<trkpt lat="23.123823" lon="113.75756">
<time>2016-10-06T09:55:01Z</time></trkpt>
<trkpt lat="23.123743" lon="113.7574">
<time>2016-10-06T09:55:02Z</time></trkpt>
<trkpt lat="23.123573" lon="113.757079">
<time>2016-10-06T09:55:03Z</time></trkpt>
<trkpt lat="23.123483" lon="113.756839">
<time>2016-10-06T09:55:04Z</time></trkpt>
<trkpt lat="23.123403" lon="113.756649">
<time>2016-10-06T09:55:05Z</time></trkpt>
<trkpt lat="23.123293" lon="113.756359">
<time>2016-10-06T09:55:06Z</time></trkpt>
<trkpt lat="23.123233" lon="113.756209">
<time>2016-10-06T09:55:07Z</time></trkpt>
<trkpt lat="23.123053" lon="113.755688">
<time>2016-10-06T09:55:08Z</time></trkpt>
<trkpt lat="23.122852" lon="113.755188">
<time>2016-10-06T09:55:09Z</time></trkpt>
<trkpt lat="23.122702" lon="113.754797">
<time>2016-10-06T09:55:10Z</time></trkpt>
<trkpt lat="23.122622" lon="113.754667">
<time>2016-10-06T09:55:11Z</time></trkpt>
<trkpt lat="23.122552" lon="113.754557">
<time>2016-10-06T09:55:12Z</time></trkpt>
<trkpt lat="23.122422" lon="113.754387">
<time>2016-10-06T09:55:13Z</time></trkpt>
<trkpt lat="23.122262" lon="113.754187">
<time>2016-10-06T09:55:14Z</time></trkpt>
<trkpt lat="23.122082" lon="113.753986">
<time>2016-10-06T09:55:15Z</time></trkpt>
<trkpt lat="23.122022" lon="113.753926">
<time>2016-10-06T09:55:16Z</time></trkpt>
<trkpt lat="23.122022" lon="113.753926">
<time>2016-10-06T09:55:17Z</time></trkpt>
<trkpt lat="23.121952" lon="113.753826">
<time>2016-10-06T09:55:18Z</time></trkpt>
<trkpt lat="23.121752" lon="113.753646">
<time>2016-10-06T09:55:19Z</time></trkpt>
<trkpt lat="23.120862" lon="113.752976">
<time>2016-10-06T09:55:20Z</time></trkpt>
<trkpt lat="23.120723" lon="113.752875">
<time>2016-10-06T09:55:21Z</time></trkpt>
<trkpt lat="23.120723" lon="113.752875">
<time>2016-10-06T09:55:22Z</time></trkpt>
<trkpt lat="23.121352" lon="113.751915">
<time>2016-10-06T09:55:23Z</time></trkpt>
<trkpt lat="23.121522" lon="113.751674">
<time>2016-10-06T09:55:24Z</time></trkpt>
<trkpt lat="23.121522" lon="113.751674">
<time>2016-10-06T09:55:25Z</time></trkpt>
<trkpt lat="23.121212" lon="113.751434">
<time>2016-10-06T09:55:26Z</time></trkpt>
<trkpt lat="23.120082" lon="113.750543">
<time>2016-10-06T09:55:27Z</time></trkpt>
<trkpt lat="23.120082" lon="113.750543">
<time>2016-10-06T09:55:28Z</time></trkpt>
<trkpt lat="23.120562" lon="113.750013">
<time>2016-10-06T09:55:29Z</time></trkpt>
<trkpt lat="23.120982" lon="113.749543">
<time>2016-10-06T09:55:30Z</time></trkpt>
<trkpt lat="23.121162" lon="113.749342">
<time>2016-10-06T09:55:31Z</time></trkpt>
<trkpt lat="23.121561" lon="113.748882">
<time>2016-10-06T09:55:32Z</time></trkpt>
<trkpt lat="23.121861" lon="113.748562">
<time>2016-10-06T09:55:33Z</time></trkpt>
<trkpt lat="23.122431" lon="113.747911">
<time>2016-10-06T09:55:34Z</time></trkpt>
<trkpt lat="23.122721" lon="113.747601">
<time>2016-10-06T09:55:35Z</time></trkpt>
<trkpt lat="23.12343" lon="113.7468">
<time>2016-10-06T09:55:36Z</time></trkpt>
<trkpt lat="23.12371" lon="113.74649">
<time>2016-10-06T09:55:37Z</time></trkpt>
<trkpt lat="23.12437" lon="113.74575">
<time>2016-10-06T09:55:38Z</time></trkpt>
<trkpt lat="23.125339" lon="113.744669">
<time>2016-10-06T09:55:39Z</time></trkpt>
<trkpt lat="23.126169" lon="113.743738">
<time>2016-10-06T09:55:40Z</time></trkpt>
<trkpt lat="23.126589" lon="113.743278">
<time>2016-10-06T09:55:41Z</time></trkpt>
<trkpt lat="23.126629" lon="113.743228">
<time>2016-10-06T09:55:42Z</time></trkpt>
<trkpt lat="23.126669" lon="113.743178">
<time>2016-10-06T09:55:43Z</time></trkpt>
<trkpt lat="23.127159" lon="113.742628">
<time>2016-10-06T09:55:44Z</time></trkpt>
<trkpt lat="23.127319" lon="113.742468">
<time>2016-10-06T09:55:45Z</time></trkpt>
<trkpt lat="23.127429" lon="113.742348">
<time>2016-10-06T09:55:46Z</time></trkpt>
<trkpt lat="23.127679" lon="113.742118">
<time>2016-10-06T09:55:47Z</time></trkpt>
<trkpt lat="23.127859" lon="113.741977">
<time>2016-10-06T09:55:48Z</time></trkpt>
<trkpt lat="23.128119" lon="113.741797">
<time>2016-10-06T09:55:49Z</time></trkpt>
<trkpt lat="23.128368" lon="113.741657">
<time>2016-10-06T09:55:50Z</time></trkpt>
<trkpt lat="23.128738" lon="113.741497">
<time>2016-10-06T09:55:51Z</time></trkpt>
<trkpt lat="23.128928" lon="113.741437">
<time>2016-10-06T09:55:52Z</time></trkpt>
<trkpt lat="23.129168" lon="113.741377">
<time>2016-10-06T09:55:53Z</time></trkpt>
<trkpt lat="23.129918" lon="113.741217">
<time>2016-10-06T09:55:54Z</time></trkpt>
<trkpt lat="23.129968" lon="113.741197">
<time>2016-10-06T09:55:55Z</time></trkpt>
<trkpt lat="23.130967" lon="113.741007">
<time>2016-10-06T09:55:56Z</time></trkpt>
<trkpt lat="23.131837" lon="113.740827">
<time>2016-10-06T09:55:57Z</time></trkpt>
<trkpt lat="23.132087" lon="113.740767">
<time>2016-10-06T09:55:58Z</time></trkpt>
<trkpt lat="23.132227" lon="113.740727">
<time>2016-10-06T09:55:59Z</time></trkpt>
<trkpt lat="23.132487" lon="113.740637">
<time>2016-10-06T09:56:00Z</time></trkpt>
<trkpt lat="23.132637" lon="113.740576">
<time>2016-10-06T09:56:01Z</time></trkpt>
<trkpt lat="23.132707" lon="113.740536">
<time>2016-10-06T09:56:02Z</time></trkpt>
<trkpt lat="23.132807" lon="113.740486">
<time>2016-10-06T09:56:03Z</time></trkpt>
<trkpt lat="23.132927" lon="113.740416">
<time>2016-10-06T09:56:04Z</time></trkpt>
<trkpt lat="23.133047" lon="113.740326">
<time>2016-10-06T09:56:05Z</time></trkpt>
<trkpt lat="23.133117" lon="113.740266">
<time>2016-10-06T09:56:06Z</time></trkpt>
<trkpt lat="23.133197" lon="113.740206">
<time>2016-10-06T09:56:07Z</time></trkpt>
<trkpt lat="23.133257" lon="113.740146">
<time>2016-10-06T09:56:08Z</time></trkpt>
<trkpt lat="23.133397" lon="113.739996">
<time>2016-10-06T09:56:09Z</time></trkpt>
<trkpt lat="23.133537" lon="113.739816">
<time>2016-10-06T09:56:10Z</time></trkpt>
<trkpt lat="23.133667" lon="113.739606">
<time>2016-10-06T09:56:11Z</time></trkpt>
<trkpt lat="23.133777" lon="113.739396">
<time>2016-10-06T09:56:12Z</time></trkpt>
<trkpt lat="23.133847" lon="113.739216">
<time>2016-10-06T09:56:13Z</time></trkpt>
<trkpt lat="23.133897" lon="113.739046">
<time>2016-10-06T09:56:14Z</time></trkpt>
<trkpt lat="23.133927" lon="113.738946">
<time>2016-10-06T09:56:15Z</time></trkpt>
<trkpt lat="23.133967" lon="113.738736">
<time>2016-10-06T09:56:16Z</time></trkpt>
<trkpt lat="23.133987" lon="113.738536">
<time>2016-10-06T09:56:17Z</time></trkpt>
<trkpt lat="23.133997" lon="113.738276">
<time>2016-10-06T09:56:18Z</time></trkpt>
<trkpt lat="23.133977" lon="113.737986">
<time>2016-10-06T09:56:19Z</time></trkpt>
<trkpt lat="23.133937" lon="113.737695">
<time>2016-10-06T09:56:20Z</time></trkpt>
<trkpt lat="23.133887" lon="113.737445">
<time>2016-10-06T09:56:21Z</time></trkpt>
<trkpt lat="23.133827" lon="113.737185">
<time>2016-10-06T09:56:22Z</time></trkpt>
<trkpt lat="23.133727" lon="113.736715">
<time>2016-10-06T09:56:23Z</time></trkpt>
<trkpt lat="23.133618" lon="113.736155">
<time>2016-10-06T09:56:24Z</time></trkpt>
<trkpt lat="23.133358" lon="113.735005">
<time>2016-10-06T09:56:25Z</time></trkpt>
<trkpt lat="23.133009" lon="113.733395">
<time>2016-10-06T09:56:26Z</time></trkpt>
<trkpt lat="23.13266" lon="113.731815">
<time>2016-10-06T09:56:27Z</time></trkpt>
<trkpt lat="23.132381" lon="113.730525">
<time>2016-10-06T09:56:28Z</time></trkpt>
<trkpt lat="23.132042" lon="113.728945">
<time>2016-10-06T09:56:29Z</time></trkpt>
<trkpt lat="23.131922" lon="113.728405">
<time>2016-10-06T09:56:30Z</time></trkpt>
<trkpt lat="23.131852" lon="113.728045">
<time>2016-10-06T09:56:31Z</time></trkpt>
<trkpt lat="23.131763" lon="113.727665">
<time>2016-10-06T09:56:32Z</time></trkpt>
<trkpt lat="23.131613" lon="113.726975">
<time>2016-10-06T09:56:33Z</time></trkpt>
<trkpt lat="23.131215" lon="113.725115">
<time>2016-10-06T09:56:34Z</time></trkpt>
<trkpt lat="23.130965" lon="113.724006">
<time>2016-10-06T09:56:35Z</time></trkpt>
<trkpt lat="23.130567" lon="113.722166">
<time>2016-10-06T09:56:36Z</time></trkpt>
<trkpt lat="23.130338" lon="113.721087">
<time>2016-10-06T09:56:37Z</time></trkpt>
<trkpt lat="23.130288" lon="113.720857">
<time>2016-10-06T09:56:38Z</time></trkpt>
<trkpt lat="23.130278" lon="113.720807">
<time>2016-10-06T09:56:39Z</time></trkpt>
<trkpt lat="23.130268" lon="113.720747">
<time>2016-10-06T09:56:40Z</time></trkpt>
<trkpt lat="23.130249" lon="113.720667">
<time>2016-10-06T09:56:41Z</time></trkpt>
<trkpt lat="23.130239" lon="113.720647">
<time>2016-10-06T09:56:42Z</time></trkpt>
<trkpt lat="23.130219" lon="113.720537">
<time>2016-10-06T09:56:43Z</time></trkpt>
<trkpt lat="23.130169" lon="113.720297">
<time>2016-10-06T09:56:44Z</time></trkpt>
<trkpt lat="23.13001" lon="113.719597">
<time>2016-10-06T09:56:45Z</time></trkpt>
<trkpt lat="23.12987" lon="113.719027">
<time>2016-10-06T09:56:46Z</time></trkpt>
<trkpt lat="23.129691" lon="113.718218">
<time>2016-10-06T09:56:47Z</time></trkpt>
<trkpt lat="23.129582" lon="113.717728">
<time>2016-10-06T09:56:48Z</time></trkpt>
<trkpt lat="23.129094" lon="113.715459">
<time>2016-10-06T09:56:49Z</time></trkpt>
<trkpt lat="23.128925" lon="113.7146">
<time>2016-10-06T09:56:50Z</time></trkpt>
<trkpt lat="23.128875" lon="113.71434">
<time>2016-10-06T09:56:51Z</time></trkpt>
<trkpt lat="23.128846" lon="113.7141">
<time>2016-10-06T09:56:52Z</time></trkpt>
<trkpt lat="23.128806" lon="113.71376">
<time>2016-10-06T09:56:53Z</time></trkpt>
<trkpt lat="23.128806" lon="113.713701">
<time>2016-10-06T09:56:54Z</time></trkpt>
<trkpt lat="23.128766" lon="113.713421">
<time>2016-10-06T09:56:55Z</time></trkpt>
<trkpt lat="23.128737" lon="113.713201">
<time>2016-10-06T09:56:56Z</time></trkpt>
<trkpt lat="23.128697" lon="113.712891">
<time>2016-10-06T09:56:57Z</time></trkpt>
<trkpt lat="23.128677" lon="113.712631">
<time>2016-10-06T09:56:58Z</time></trkpt>
<trkpt lat="23.128658" lon="113.712341">
<time>2016-10-06T09:56:59Z</time></trkpt>
<trkpt lat="23.128648" lon="113.712002">
<time>2016-10-06T09:57:00Z</time></trkpt>
<trkpt lat="23.128658" lon="113.711802">
<time>2016-10-06T09:57:01Z</time></trkpt>
<trkpt lat="23.128659" lon="113.711442">
<time>2016-10-06T09:57:02Z</time></trkpt>
<trkpt lat="23.128669" lon="113.711052">
<time>2016-10-06T09:57:03Z</time></trkpt>
<trkpt lat="23.12867" lon="113.710553">
<time>2016-10-06T09:57:04Z</time></trkpt>
<trkpt lat="23.12866" lon="113.710363">
<time>2016-10-06T09:57:05Z</time></trkpt>
<trkpt lat="23.12865" lon="113.710183">
<time>2016-10-06T09:57:06Z</time></trkpt>
<trkpt lat="23.128641" lon="113.709983">
<time>2016-10-06T09:57:07Z</time></trkpt>
<trkpt lat="23.128621" lon="113.709753">
<time>2016-10-06T09:57:08Z</time></trkpt>
<trkpt lat="23.128591" lon="113.709484">
<time>2016-10-06T09:57:09Z</time></trkpt>
<trkpt lat="23.128551" lon="113.709294">
<time>2016-10-06T09:57:10Z</time></trkpt>
<trkpt lat="23.128532" lon="113.709124">
<time>2016-10-06T09:57:11Z</time></trkpt>
<trkpt lat="23.128482" lon="113.708914">
<time>2016-10-06T09:57:12Z</time></trkpt>
<trkpt lat="23.128432" lon="113.708724">
<time>2016-10-06T09:57:13Z</time></trkpt>
<trkpt lat="23.128383" lon="113.708504">
<time>2016-10-06T09:57:14Z</time></trkpt>
<trkpt lat="23.128373" lon="113.708484">
<time>2016-10-06T09:57:15Z</time></trkpt>
<trkpt lat="23.128283" lon="113.708195">
<time>2016-10-06T09:57:16Z</time></trkpt>
<trkpt lat="23.128213" lon="113.708005">
<time>2016-10-06T09:57:17Z</time></trkpt>
<trkpt lat="23.128124" lon="113.707775">
<time>2016-10-06T09:57:18Z</time></trkpt>
<trkpt lat="23.128054" lon="113.707615">
<time>2016-10-06T09:57:19Z</time></trkpt>
<trkpt lat="23.127974" lon="113.707445">
<time>2016-10-06T09:57:20Z</time></trkpt>
<trkpt lat="23.127904" lon="113.707315">
<time>2016-10-06T09:57:21Z</time></trkpt>
<trkpt lat="23.127805" lon="113.707106">
<time>2016-10-06T09:57:22Z</time></trkpt>
<trkpt lat="23.127695" lon="113.706926">
<time>2016-10-06T09:57:23Z</time></trkpt>
<trkpt lat="23.127585" lon="113.706736">
<time>2016-10-06T09:57:24Z</time></trkpt>
<trkpt lat="23.127445" lon="113.706526">
<time>2016-10-06T09:57:25Z</time></trkpt>
<trkpt lat="23.127306" lon="113.706326">
<time>2016-10-06T09:57:26Z</time></trkpt>
<trkpt lat="23.127186" lon="113.706167">
<time>2016-10-06T09:57:27Z</time></trkpt>
<trkpt lat="23.127016" lon="113.705967">
<time>2016-10-06T09:57:28Z</time></trkpt>
<trkpt lat="23.126827" lon="113.705737">
<time>2016-10-06T09:57:29Z</time></trkpt>
<trkpt lat="23.126707" lon="113.705597">
<time>2016-10-06T09:57:30Z</time></trkpt>
<trkpt lat="23.126368" lon="113.705197">
<time>2016-10-06T09:57:31Z</time></trkpt>
<trkpt lat="23.126238" lon="113.705028">
<time>2016-10-06T09:57:32Z</time></trkpt>
<trkpt lat="23.126128" lon="113.704888">
<time>2016-10-06T09:57:33Z</time></trkpt>
<trkpt lat="23.125989" lon="113.704698">
<time>2016-10-06T09:57:34Z</time></trkpt>
<trkpt lat="23.125839" lon="113.704468">
<time>2016-10-06T09:57:35Z</time></trkpt>
<trkpt lat="23.125739" lon="113.704318">
<time>2016-10-06T09:57:36Z</time></trkpt>
<trkpt lat="23.125609" lon="113.704119">
<time>2016-10-06T09:57:37Z</time></trkpt>
<trkpt lat="23.12549" lon="113.703909">
<time>2016-10-06T09:57:38Z</time></trkpt>
<trkpt lat="23.12538" lon="113.703719">
<time>2016-10-06T09:57:39Z</time></trkpt>
<trkpt lat="23.1253" lon="113.703569">
<time>2016-10-06T09:57:40Z</time></trkpt>
<trkpt lat="23.125211" lon="113.703379">
<time>2016-10-06T09:57:41Z</time></trkpt>
<trkpt lat="23.125091" lon="113.703149">
<time>2016-10-06T09:57:42Z</time></trkpt>
<trkpt lat="23.125001" lon="113.70297">
<time>2016-10-06T09:57:43Z</time></trkpt>
<trkpt lat="23.124662" lon="113.70228">
<time>2016-10-06T09:57:44Z</time></trkpt>
<trkpt lat="23.124493" lon="113.701921">
<time>2016-10-06T09:57:45Z</time></trkpt>
<trkpt lat="23.124244" lon="113.701421">
<time>2016-10-06T09:57:46Z</time></trkpt>
<trkpt lat="23.123995" lon="113.700892">
<time>2016-10-06T09:57:47Z</time></trkpt>
<trkpt lat="23.123646" lon="113.700173">
<time>2016-10-06T09:57:48Z</time></trkpt>
<trkpt lat="23.123178" lon="113.699224">
<time>2016-10-06T09:57:49Z</time></trkpt>
<trkpt lat="23.12246" lon="113.697765">
<time>2016-10-06T09:57:50Z</time></trkpt>
<trkpt lat="23.12242" lon="113.697666">
<time>2016-10-06T09:57:51Z</time></trkpt>
<trkpt lat="23.1224" lon="113.697636">
<time>2016-10-06T09:57:52Z</time></trkpt>
<trkpt lat="23.122281" lon="113.697406">
<time>2016-10-06T09:57:53Z</time></trkpt>
<trkpt lat="23.121802" lon="113.696457">
<time>2016-10-06T09:57:54Z</time></trkpt>
<trkpt lat="23.121633" lon="113.696067">
<time>2016-10-06T09:57:55Z</time></trkpt>
<trkpt lat="23.121374" lon="113.695508">
<time>2016-10-06T09:57:56Z</time></trkpt>
<trkpt lat="23.121085" lon="113.694829">
<time>2016-10-06T09:57:57Z</time></trkpt>
<trkpt lat="23.120607" lon="113.69362">
<time>2016-10-06T09:57:58Z</time></trkpt>
<trkpt lat="23.120319" lon="113.692911">
<time>2016-10-06T09:57:59Z</time></trkpt>
<trkpt lat="23.119831" lon="113.691673">
<time>2016-10-06T09:58:00Z</time></trkpt>
<trkpt lat="23.119313" lon="113.690365">
<time>2016-10-06T09:58:01Z</time></trkpt>
<trkpt lat="23.118856" lon="113.689206">
<time>2016-10-06T09:58:02Z</time></trkpt>
<trkpt lat="23.118826" lon="113.689146">
<time>2016-10-06T09:58:03Z</time></trkpt>
<trkpt lat="23.118637" lon="113.688657">
<time>2016-10-06T09:58:04Z</time></trkpt>
<trkpt lat="23.118278" lon="113.687748">
<time>2016-10-06T09:58:05Z</time></trkpt>
<trkpt lat="23.117831" lon="113.68662">
<time>2016-10-06T09:58:06Z</time></trkpt>
<trkpt lat="23.117582" lon="113.685981">
<time>2016-10-06T09:58:07Z</time></trkpt>
<trkpt lat="23.117243" lon="113.685112">
<time>2016-10-06T09:58:08Z</time></trkpt>
<trkpt lat="23.117124" lon="113.684822">
<time>2016-10-06T09:58:09Z</time></trkpt>
<trkpt lat="23.116776" lon="113.683964">
<time>2016-10-06T09:58:10Z</time></trkpt>
<trkpt lat="23.116417" lon="113.683055">
<time>2016-10-06T09:58:11Z</time></trkpt>
<trkpt lat="23.115711" lon="113.681288">
<time>2016-10-06T09:58:12Z</time></trkpt>
<trkpt lat="23.115283" lon="113.680209">
<time>2016-10-06T09:58:13Z</time></trkpt>
<trkpt lat="23.115024" lon="113.67953">
<time>2016-10-06T09:58:14Z</time></trkpt>
<trkpt lat="23.114786" lon="113.678941">
<time>2016-10-06T09:58:15Z</time></trkpt>
<trkpt lat="23.114607" lon="113.678452">
<time>2016-10-06T09:58:16Z</time></trkpt>
<trkpt lat="23.114398" lon="113.677843">
<time>2016-10-06T09:58:17Z</time></trkpt>
<trkpt lat="23.114249" lon="113.677383">
<time>2016-10-06T09:58:18Z</time></trkpt>
<trkpt lat="23.11413" lon="113.676984">
<time>2016-10-06T09:58:19Z</time></trkpt>
<trkpt lat="23.113653" lon="113.675456">
<time>2016-10-06T09:58:20Z</time></trkpt>
<trkpt lat="23.113255" lon="113.674148">
<time>2016-10-06T09:58:21Z</time></trkpt>
<trkpt lat="23.112957" lon="113.6732">
<time>2016-10-06T09:58:22Z</time></trkpt>
<trkpt lat="23.11251" lon="113.671732">
<time>2016-10-06T09:58:23Z</time></trkpt>
<trkpt lat="23.112421" lon="113.671473">
<time>2016-10-06T09:58:24Z</time></trkpt>
<trkpt lat="23.112331" lon="113.671213">
<time>2016-10-06T09:58:25Z</time></trkpt>
<trkpt lat="23.112242" lon="113.671003">
<time>2016-10-06T09:58:26Z</time></trkpt>
<trkpt lat="23.112013" lon="113.670494">
<time>2016-10-06T09:58:27Z</time></trkpt>
<trkpt lat="23.111843" lon="113.670175">
<time>2016-10-06T09:58:28Z</time></trkpt>
<trkpt lat="23.111614" lon="113.669745">
<time>2016-10-06T09:58:29Z</time></trkpt>
<trkpt lat="23.111266" lon="113.669146">
<time>2016-10-06T09:58:30Z</time></trkpt>
<trkpt lat="23.110518" lon="113.667868">
<time>2016-10-06T09:58:31Z</time></trkpt>
<trkpt lat="23.109851" lon="113.66668">
<time>2016-10-06T09:58:32Z</time></trkpt>
<trkpt lat="23.109114" lon="113.665402">
<time>2016-10-06T09:58:33Z</time></trkpt>
<trkpt lat="23.108486" lon="113.664324">
<time>2016-10-06T09:58:34Z</time></trkpt>
<trkpt lat="23.107719" lon="113.662986">
<time>2016-10-06T09:58:35Z</time></trkpt>
<trkpt lat="23.107599" lon="113.662796">
<time>2016-10-06T09:58:36Z</time></trkpt>
<trkpt lat="23.10744" lon="113.662487">
<time>2016-10-06T09:58:37Z</time></trkpt>
<trkpt lat="23.107211" lon="113.662078">
<time>2016-10-06T09:58:38Z</time></trkpt>
<trkpt lat="23.107032" lon="113.661728">
<time>2016-10-06T09:58:39Z</time></trkpt>
<trkpt lat="23.106932" lon="113.661489">
<time>2016-10-06T09:58:40Z</time></trkpt>
<trkpt lat="23.106833" lon="113.661229">
<time>2016-10-06T09:58:41Z</time></trkpt>
<trkpt lat="23.106693" lon="113.66083">
<time>2016-10-06T09:58:42Z</time></trkpt>
<trkpt lat="23.106534" lon="113.66033">
<time>2016-10-06T09:58:43Z</time></trkpt>
<trkpt lat="23.106465" lon="113.660101">
<time>2016-10-06T09:58:44Z</time></trkpt>
<trkpt lat="23.106405" lon="113.659911">
<time>2016-10-06T09:58:45Z</time></trkpt>
<trkpt lat="23.106326" lon="113.659632">
<time>2016-10-06T09:58:46Z</time></trkpt>
<trkpt lat="23.106068" lon="113.658743">
<time>2016-10-06T09:58:47Z</time></trkpt>
<trkpt lat="23.10572" lon="113.657545">
<time>2016-10-06T09:58:48Z</time></trkpt>
<trkpt lat="23.105213" lon="113.655827">
<time>2016-10-06T09:58:49Z</time></trkpt>
<trkpt lat="23.104766" lon="113.65428">
<time>2016-10-06T09:58:50Z</time></trkpt>
<trkpt lat="23.104608" lon="113.653711">
<time>2016-10-06T09:58:51Z</time></trkpt>
<trkpt lat="23.104459" lon="113.653172">
<time>2016-10-06T09:58:52Z</time></trkpt>
<trkpt lat="23.104349" lon="113.652812">
<time>2016-10-06T09:58:53Z</time></trkpt>
<trkpt lat="23.10429" lon="113.652602">
<time>2016-10-06T09:58:54Z</time></trkpt>
<trkpt lat="23.104111" lon="113.652163">
<time>2016-10-06T09:58:55Z</time></trkpt>
<trkpt lat="23.103991" lon="113.651913">
<time>2016-10-06T09:58:56Z</time></trkpt>
<trkpt lat="23.103991" lon="113.651913">
<time>2016-10-06T09:58:57Z</time></trkpt>
<trkpt lat="23.104072" lon="113.651554">
<time>2016-10-06T09:58:58Z</time></trkpt>
<trkpt lat="23.104372" lon="113.651135">
<time>2016-10-06T09:58:59Z</time></trkpt>
<trkpt lat="23.104983" lon="113.650765">
<time>2016-10-06T09:59:00Z</time></trkpt>
<trkpt lat="23.106064" lon="113.650106">
<time>2016-10-06T09:59:01Z</time></trkpt>
<trkpt lat="23.106484" lon="113.649846">
<time>2016-10-06T09:59:02Z</time></trkpt>
<trkpt lat="23.107004" lon="113.649527">
<time>2016-10-06T09:59:03Z</time></trkpt>
<trkpt lat="23.107805" lon="113.649047">
<time>2016-10-06T09:59:04Z</time></trkpt>
<trkpt lat="23.108505" lon="113.648628">
<time>2016-10-06T09:59:05Z</time></trkpt>
<trkpt lat="23.108805" lon="113.648448">
<time>2016-10-06T09:59:06Z</time></trkpt>
<trkpt lat="23.109326" lon="113.648149">
<time>2016-10-06T09:59:07Z</time></trkpt>
<trkpt lat="23.109976" lon="113.647759">
<time>2016-10-06T09:59:08Z</time></trkpt>
<trkpt lat="23.110627" lon="113.64736">
<time>2016-10-06T09:59:09Z</time></trkpt>
<trkpt lat="23.111137" lon="113.64706">
<time>2016-10-06T09:59:10Z</time></trkpt>
<trkpt lat="23.111697" lon="113.646731">
<time>2016-10-06T09:59:11Z</time></trkpt>
<trkpt lat="23.112318" lon="113.646361">
<time>2016-10-06T09:59:12Z</time></trkpt>
<trkpt lat="23.112798" lon="113.646061">
<time>2016-10-06T09:59:13Z</time></trkpt>
<trkpt lat="23.113418" lon="113.645702">
<time>2016-10-06T09:59:14Z</time></trkpt>
<trkpt lat="23.113699" lon="113.645532">
<time>2016-10-06T09:59:15Z</time></trkpt>
<trkpt lat="23.113879" lon="113.645422">
<time>2016-10-06T09:59:16Z</time></trkpt>
<trkpt lat="23.114529" lon="113.645033">
<time>2016-10-06T09:59:17Z</time></trkpt>
<trkpt lat="23.115059" lon="113.644713">
<time>2016-10-06T09:59:18Z</time></trkpt>
<trkpt lat="23.11524" lon="113.644603">
<time>2016-10-06T09:59:19Z</time></trkpt>
<trkpt lat="23.11556" lon="113.644404">
<time>2016-10-06T09:59:20Z</time></trkpt>
<trkpt lat="23.11651" lon="113.643864">
<time>2016-10-06T09:59:21Z</time></trkpt>
<trkpt lat="23.11665" lon="113.643774">
<time>2016-10-06T09:59:22Z</time></trkpt>
<trkpt lat="23.11672" lon="113.643734">
<time>2016-10-06T09:59:23Z</time></trkpt>
<trkpt lat="23.11684" lon="113.643664">
<time>2016-10-06T09:59:24Z</time></trkpt>
<trkpt lat="23.117051" lon="113.643545">
<time>2016-10-06T09:59:25Z</time></trkpt>
<trkpt lat="23.117271" lon="113.643415">
<time>2016-10-06T09:59:26Z</time></trkpt>
<trkpt lat="23.117361" lon="113.643355">
<time>2016-10-06T09:59:27Z</time></trkpt>
<trkpt lat="23.117581" lon="113.643225">
<time>2016-10-06T09:59:28Z</time></trkpt>
<trkpt lat="23.117791" lon="113.643095">
<time>2016-10-06T09:59:29Z</time></trkpt>
<trkpt lat="23.117791" lon="113.643095">
<time>2016-10-06T09:59:30Z</time></trkpt>
<trkpt lat="23.117731" lon="113.642975">
<time>2016-10-06T09:59:31Z</time></trkpt>
<trkpt lat="23.117731" lon="113.642975">
<time>2016-10-06T09:59:32Z</time></trkpt>
<trkpt lat="23.117891" lon="113.642875">
<time>2016-10-06T09:59:33Z</time></trkpt>
<trkpt lat="23.118162" lon="113.642716">
<time>2016-10-06T09:59:34Z</time></trkpt>
<trkpt lat="23.118382" lon="113.642586">
<time>2016-10-06T09:59:35Z</time></trkpt>
<trkpt lat="23.118532" lon="113.642486">
<time>2016-10-06T09:59:36Z</time></trkpt>
<trkpt lat="23.118752" lon="113.642366">
<time>2016-10-06T09:59:37Z</time></trkpt>
<trkpt lat="23.118882" lon="113.642286">
<time>2016-10-06T09:59:38Z</time></trkpt>
<trkpt lat="23.119142" lon="113.642126">
<time>2016-10-06T09:59:39Z</time></trkpt>
<trkpt lat="23.119332" lon="113.642017">
<time>2016-10-06T09:59:40Z</time></trkpt>
<trkpt lat="23.119492" lon="113.641927">
<time>2016-10-06T09:59:41Z</time></trkpt>
<trkpt lat="23.119712" lon="113.641787">
<time>2016-10-06T09:59:42Z</time></trkpt>
<trkpt lat="23.119712" lon="113.641787">
<time>2016-10-06T09:59:43Z</time></trkpt>
<trkpt lat="23.119763" lon="113.641297">
<time>2016-10-06T09:59:44Z</time></trkpt>
<trkpt lat="23.119784" lon="113.641098">
<time>2016-10-06T09:59:45Z</time></trkpt>
<trkpt lat="23.119694" lon="113.640958">
<time>2016-10-06T09:59:46Z</time></trkpt>
<trkpt lat="23.119574" lon="113.640738">
<time>2016-10-06T09:59:47Z</time></trkpt>
<trkpt lat="23.119315" lon="113.640209">
<time>2016-10-06T09:59:48Z</time></trkpt>
<trkpt lat="23.118937" lon="113.6395">
<time>2016-10-06T09:59:49Z</time></trkpt>
<trkpt lat="23.118827" lon="113.63932">
<time>2016-10-06T09:59:50Z</time></trkpt>
<trkpt lat="23.118677" lon="113.63913">
<time>2016-10-06T09:59:51Z</time></trkpt>
<trkpt lat="23.118338" lon="113.638761">
<time>2016-10-06T09:59:52Z</time></trkpt>
<trkpt lat="23.118248" lon="113.638651">
<time>2016-10-06T09:59:53Z</time></trkpt>
<trkpt lat="23.118158" lon="113.638481">
<time>2016-10-06T09:59:54Z</time></trkpt>
<trkpt lat="23.11773" lon="113.637712">
<time>2016-10-06T09:59:55Z</time></trkpt>
<trkpt lat="23.117471" lon="113.637123">
<time>2016-10-06T09:59:56Z</time></trkpt>
<trkpt lat="23.117342" lon="113.636773">
<time>2016-10-06T09:59:57Z</time></trkpt>
<trkpt lat="23.117312" lon="113.636654">
<time>2016-10-06T09:59:58Z</time></trkpt>
<trkpt lat="23.117272" lon="113.636434">
<time>2016-10-06T09:59:59Z</time></trkpt>
<trkpt lat="23.117203" lon="113.635964">
<time>2016-10-06T10:00:00Z</time></trkpt>
<trkpt lat="23.117203" lon="113.635964">
<time>2016-10-06T10:00:01Z</time></trkpt>
<trkpt lat="23.117143" lon="113.635875">
<time>2016-10-06T10:00:02Z</time></trkpt>
<trkpt lat="23.117114" lon="113.635425">
<time>2016-10-06T10:00:03Z</time></trkpt>
<trkpt lat="23.116966" lon="113.633667">
<time>2016-10-06T10:00:04Z</time></trkpt>
<trkpt lat="23.116966" lon="113.633647">
<time>2016-10-06T10:00:05Z</time></trkpt>
<trkpt lat="23.116838" lon="113.632439">
<time>2016-10-06T10:00:06Z</time></trkpt>
<trkpt lat="23.11678" lon="113.63094">
<time>2016-10-06T10:00:07Z</time></trkpt>
<trkpt lat="23.11677" lon="113.63093">
<time>2016-10-06T10:00:08Z</time></trkpt>
<trkpt lat="23.11676" lon="113.63093">
<time>2016-10-06T10:00:09Z</time></trkpt>
<trkpt lat="23.11674" lon="113.63093">
<time>2016-10-06T10:00:10Z</time></trkpt>
<trkpt lat="23.11672" lon="113.63092">
<time>2016-10-06T10:00:11Z</time></trkpt>
<trkpt lat="23.11671" lon="113.63092">
<time>2016-10-06T10:00:12Z</time></trkpt>
<trkpt lat="23.116701" lon="113.63091">
<time>2016-10-06T10:00:13Z</time></trkpt>
<trkpt lat="23.116691" lon="113.6309">
<time>2016-10-06T10:00:14Z</time></trkpt>
<trkpt lat="23.116681" lon="113.63089">
<time>2016-10-06T10:00:15Z</time></trkpt>
<trkpt lat="23.116671" lon="113.63088">
<time>2016-10-06T10:00:16Z</time></trkpt>
<trkpt lat="23.116661" lon="113.63086">
<time>2016-10-06T10:00:17Z</time></trkpt>
<trkpt lat="23.116651" lon="113.63084">
<time>2016-10-06T10:00:18Z</time></trkpt>
<trkpt lat="23.116651" lon="113.63082">
<time>2016-10-06T10:00:19Z</time></trkpt>
<trkpt lat="23.116641" lon="113.6308">
<time>2016-10-06T10:00:20Z</time></trkpt>
<trkpt lat="23.116641" lon="113.63079">
<time>2016-10-06T10:00:21Z</time></trkpt>
<trkpt lat="23.116641" lon="113.63078">
<time>2016-10-06T10:00:22Z</time></trkpt>
<trkpt lat="23.116641" lon="113.63077">
<time>2016-10-06T10:00:23Z</time></trkpt>
<trkpt lat="23.116641" lon="113.63076">
<time>2016-10-06T10:00:24Z</time></trkpt>
<trkpt lat="23.116641" lon="113.63074">
<time>2016-10-06T10:00:25Z</time></trkpt>
<trkpt lat="23.116651" lon="113.63072">
<time>2016-10-06T10:00:26Z</time></trkpt>
<trkpt lat="23.116651" lon="113.63071">
<time>2016-10-06T10:00:27Z</time></trkpt>
<trkpt lat="23.116651" lon="113.6307">
<time>2016-10-06T10:00:28Z</time></trkpt>
<trkpt lat="23.116661" lon="113.63069">
<time>2016-10-06T10:00:29Z</time></trkpt>
<trkpt lat="23.116671" lon="113.63068">
<time>2016-10-06T10:00:30Z</time></trkpt>
<trkpt lat="23.116681" lon="113.63066">
<time>2016-10-06T10:00:31Z</time></trkpt>
<trkpt lat="23.116701" lon="113.63065">
<time>2016-10-06T10:00:32Z</time></trkpt>
<trkpt lat="23.116711" lon="113.630631">
<time>2016-10-06T10:00:33Z</time></trkpt>
<trkpt lat="23.116731" lon="113.630621">
<time>2016-10-06T10:00:34Z</time></trkpt>
<trkpt lat="23.116644" lon="113.628762">
<time>2016-10-06T10:00:35Z</time></trkpt>
<trkpt lat="23.116585" lon="113.627634">
<time>2016-10-06T10:00:36Z</time></trkpt>
<trkpt lat="23.116527" lon="113.626255">
<time>2016-10-06T10:00:37Z</time></trkpt>
<trkpt lat="23.116517" lon="113.626195">
<time>2016-10-06T10:00:38Z</time></trkpt>
<trkpt lat="23.116458" lon="113.625006">
<time>2016-10-06T10:00:39Z</time></trkpt>
<trkpt lat="23.116419" lon="113.624327">
<time>2016-10-06T10:00:40Z</time></trkpt>
<trkpt lat="23.116409" lon="113.624267">
<time>2016-10-06T10:00:41Z</time></trkpt>
<trkpt lat="23.11639" lon="113.623797">
<time>2016-10-06T10:00:42Z</time></trkpt>
<trkpt lat="23.11637" lon="113.623447">
<time>2016-10-06T10:00:43Z</time></trkpt>
<trkpt lat="23.116341" lon="113.622868">
<time>2016-10-06T10:00:44Z</time></trkpt>
<trkpt lat="23.116332" lon="113.622518">
<time>2016-10-06T10:00:45Z</time></trkpt>
<trkpt lat="23.116322" lon="113.622308">
<time>2016-10-06T10:00:46Z</time></trkpt>
<trkpt lat="23.116273" lon="113.621519">
<time>2016-10-06T10:00:47Z</time></trkpt>
<trkpt lat="23.116263" lon="113.621329">
<time>2016-10-06T10:00:48Z</time></trkpt>
<trkpt lat="23.116243" lon="113.621049">
<time>2016-10-06T10:00:49Z</time></trkpt>
<trkpt lat="23.116224" lon="113.62071">
<time>2016-10-06T10:00:50Z</time></trkpt>
<trkpt lat="23.116214" lon="113.62033">
<time>2016-10-06T10:00:51Z</time></trkpt>
<trkpt lat="23.116224" lon="113.61995">
<time>2016-10-06T10:00:52Z</time></trkpt>
<trkpt lat="23.116224" lon="113.61994">
<time>2016-10-06T10:00:53Z</time></trkpt>
<trkpt lat="23.116215" lon="113.61967">
<time>2016-10-06T10:00:54Z</time></trkpt>
<trkpt lat="23.116215" lon="113.619481">
<time>2016-10-06T10:00:55Z</time></trkpt>
<trkpt lat="23.116225" lon="113.619391">
<time>2016-10-06T10:00:56Z</time></trkpt>
<trkpt lat="23.116245" lon="113.619281">
<time>2016-10-06T10:00:57Z</time></trkpt>
<trkpt lat="23.116275" lon="113.619191">
<time>2016-10-06T10:00:58Z</time></trkpt>
<trkpt lat="23.116345" lon="113.619021">
<time>2016-10-06T10:00:59Z</time></trkpt>
<trkpt lat="23.116526" lon="113.618641">
<time>2016-10-06T10:01:00Z</time></trkpt>
<trkpt lat="23.116836" lon="113.617982">
<time>2016-10-06T10:01:01Z</time></trkpt>
<trkpt lat="23.116986" lon="113.617672">
<time>2016-10-06T10:01:02Z</time></trkpt>
<trkpt lat="23.117447" lon="113.616702">
<time>2016-10-06T10:01:03Z</time></trkpt>
<trkpt lat="23.117577" lon="113.616432">
<time>2016-10-06T10:01:04Z</time></trkpt>
<trkpt lat="23.117798" lon="113.615943">
<time>2016-10-06T10:01:05Z</time></trkpt>
<trkpt lat="23.118018" lon="113.615483">
<time>2016-10-06T10:01:06Z</time></trkpt>
<trkpt lat="23.118269" lon="113.614943">
<time>2016-10-06T10:01:07Z</time></trkpt>
<trkpt lat="23.118289" lon="113.614893">
<time>2016-10-06T10:01:08Z</time></trkpt>
<trkpt lat="23.118289" lon="113.614893">
<time>2016-10-06T10:01:09Z</time></trkpt>
<trkpt lat="23.118449" lon="113.614533">
<time>2016-10-06T10:01:10Z</time></trkpt>
<trkpt lat="23.118639" lon="113.614014">
<time>2016-10-06T10:01:11Z</time></trkpt>
<trkpt lat="23.11884" lon="113.613504">
<time>2016-10-06T10:01:12Z</time></trkpt>
<trkpt lat="23.11895" lon="113.613224">
<time>2016-10-06T10:01:13Z</time></trkpt>
<trkpt lat="23.11904" lon="113.613004">
<time>2016-10-06T10:01:14Z</time></trkpt>
<trkpt lat="23.11917" lon="113.612654">
<time>2016-10-06T10:01:15Z</time></trkpt>
<trkpt lat="23.1192" lon="113.612564">
<time>2016-10-06T10:01:16Z</time></trkpt>
<trkpt lat="23.11922" lon="113.612514">
<time>2016-10-06T10:01:17Z</time></trkpt>
<trkpt lat="23.11923" lon="113.612454">
<time>2016-10-06T10:01:18Z</time></trkpt>
<trkpt lat="23.11924" lon="113.612424">
<time>2016-10-06T10:01:19Z</time></trkpt>
<trkpt lat="23.11926" lon="113.612315">
<time>2016-10-06T10:01:20Z</time></trkpt>
<trkpt lat="23.11927" lon="113.612245">
<time>2016-10-06T10:01:21Z</time></trkpt>
<trkpt lat="23.119271" lon="113.612095">
<time>2016-10-06T10:01:22Z</time></trkpt>
<trkpt lat="23.119271" lon="113.611935">
<time>2016-10-06T10:01:23Z</time></trkpt>
<trkpt lat="23.119261" lon="113.611815">
<time>2016-10-06T10:01:24Z</time></trkpt>
<trkpt lat="23.119241" lon="113.611555">
<time>2016-10-06T10:01:25Z</time></trkpt>
<trkpt lat="23.119241" lon="113.611525">
<time>2016-10-06T10:01:26Z</time></trkpt>
<trkpt lat="23.119221" lon="113.611245">
<time>2016-10-06T10:01:27Z</time></trkpt>
<trkpt lat="23.119192" lon="113.610675">
<time>2016-10-06T10:01:28Z</time></trkpt>
<trkpt lat="23.119182" lon="113.610565">
<time>2016-10-06T10:01:29Z</time></trkpt>
<trkpt lat="23.119172" lon="113.610495">
<time>2016-10-06T10:01:30Z</time></trkpt>
<trkpt lat="23.119172" lon="113.610385">
<time>2016-10-06T10:01:31Z</time></trkpt>
<trkpt lat="23.119172" lon="113.610165">
<time>2016-10-06T10:01:32Z</time></trkpt>
<trkpt lat="23.119172" lon="113.610005">
<time>2016-10-06T10:01:33Z</time></trkpt>
<trkpt lat="23.119193" lon="113.609416">
<time>2016-10-06T10:01:34Z</time></trkpt>
<trkpt lat="23.119203" lon="113.609356">
<time>2016-10-06T10:01:35Z</time></trkpt>
<trkpt lat="23.119283" lon="113.608156">
<time>2016-10-06T10:01:36Z</time></trkpt>
<trkpt lat="23.119324" lon="113.607526">
<time>2016-10-06T10:01:37Z</time></trkpt>
<trkpt lat="23.119395" lon="113.606326">
<time>2016-10-06T10:01:38Z</time></trkpt>
<trkpt lat="23.119415" lon="113.605877">
<time>2016-10-06T10:01:39Z</time></trkpt>
<trkpt lat="23.119475" lon="113.604957">
<time>2016-10-06T10:01:40Z</time></trkpt>
<trkpt lat="23.119485" lon="113.604757">
<time>2016-10-06T10:01:41Z</time></trkpt>
<trkpt lat="23.119485" lon="113.604687">
<time>2016-10-06T10:01:42Z</time></trkpt>
<trkpt lat="23.119485" lon="113.604427">
<time>2016-10-06T10:01:43Z</time></trkpt>
<trkpt lat="23.119476" lon="113.603727">
<time>2016-10-06T10:01:44Z</time></trkpt>
<trkpt lat="23.119476" lon="113.603707">
<time>2016-10-06T10:01:45Z</time></trkpt>
<trkpt lat="23.119476" lon="113.603677">
<time>2016-10-06T10:01:46Z</time></trkpt>
<trkpt lat="23.119426" lon="113.602977">
<time>2016-10-06T10:01:47Z</time></trkpt>
<trkpt lat="23.119406" lon="113.602717">
<time>2016-10-06T10:01:48Z</time></trkpt>
<trkpt lat="23.119347" lon="113.601927">
<time>2016-10-06T10:01:49Z</time></trkpt>
<trkpt lat="23.119287" lon="113.601207">
<time>2016-10-06T10:01:50Z</time></trkpt>
<trkpt lat="23.119237" lon="113.600517">
<time>2016-10-06T10:01:51Z</time></trkpt>
<trkpt lat="23.119207" lon="113.600107">
<time>2016-10-06T10:01:52Z</time></trkpt>
<trkpt lat="23.119148" lon="113.599347">
<time>2016-10-06T10:01:53Z</time></trkpt>
<trkpt lat="23.119148" lon="113.599347">
<time>2016-10-06T10:01:54Z</time></trkpt>
<trkpt lat="23.119148" lon="113.599297">
<time>2016-10-06T10:01:55Z</time></trkpt>
<trkpt lat="23.119138" lon="113.598757">
<time>2016-10-06T10:01:56Z</time></trkpt>
<trkpt lat="23.119108" lon="113.597737">
<time>2016-10-06T10:01:57Z</time></trkpt>
<trkpt lat="23.119108" lon="113.597497">
<time>2016-10-06T10:01:58Z</time></trkpt>
<trkpt lat="23.119088" lon="113.596966">
<time>2016-10-06T10:01:59Z</time></trkpt>
<trkpt lat="23.119078" lon="113.596266">
<time>2016-10-06T10:02:00Z</time></trkpt>
<trkpt lat="23.119068" lon="113.596026">
<time>2016-10-06T10:02:01Z</time></trkpt>
<trkpt lat="23.119068" lon="113.595866">
<time>2016-10-06T10:02:02Z</time></trkpt>
<trkpt lat="23.119048" lon="113.595346">
<time>2016-10-06T10:02:03Z</time></trkpt>
<trkpt lat="23.119079" lon="113.594616">
<time>2016-10-06T10:02:04Z</time></trkpt>
<trkpt lat="23.119119" lon="113.594026">
<time>2016-10-06T10:02:05Z</time></trkpt>
<trkpt lat="23.119318" lon="113.591235">
<time>2016-10-06T10:02:06Z</time></trkpt>
<trkpt lat="23.119328" lon="113.591054">
<time>2016-10-06T10:02:07Z</time></trkpt>
<trkpt lat="23.119318" lon="113.590844">
<time>2016-10-06T10:02:08Z</time></trkpt>
<trkpt lat="23.119298" lon="113.590564">
<time>2016-10-06T10:02:09Z</time></trkpt>
<trkpt lat="23.119248" lon="113.590204">
<time>2016-10-06T10:02:10Z</time></trkpt>
<trkpt lat="23.119188" lon="113.589904">
<time>2016-10-06T10:02:11Z</time></trkpt>
<trkpt lat="23.119108" lon="113.589574">
<time>2016-10-06T10:02:12Z</time></trkpt>
<trkpt lat="23.119048" lon="113.589384">
<time>2016-10-06T10:02:13Z</time></trkpt>
<trkpt lat="23.118968" lon="113.589174">
<time>2016-10-06T10:02:14Z</time></trkpt>
<trkpt lat="23.118878" lon="113.588953">
<time>2016-10-06T10:02:15Z</time></trkpt>
<trkpt lat="23.118778" lon="113.588753">
<time>2016-10-06T10:02:16Z</time></trkpt>
<trkpt lat="23.118668" lon="113.588563">
<time>2016-10-06T10:02:17Z</time></trkpt>
<trkpt lat="23.118388" lon="113.588123">
<time>2016-10-06T10:02:18Z</time></trkpt>
<trkpt lat="23.118118" lon="113.587693">
<time>2016-10-06T10:02:19Z</time></trkpt>
<trkpt lat="23.118008" lon="113.587513">
<time>2016-10-06T10:02:20Z</time></trkpt>
<trkpt lat="23.117938" lon="113.587382">
<time>2016-10-06T10:02:21Z</time></trkpt>
<trkpt lat="23.117878" lon="113.587292">
<time>2016-10-06T10:02:22Z</time></trkpt>
<trkpt lat="23.117268" lon="113.586262">
<time>2016-10-06T10:02:23Z</time></trkpt>
<trkpt lat="23.117148" lon="113.586052">
<time>2016-10-06T10:02:24Z</time></trkpt>
<trkpt lat="23.117048" lon="113.585831">
<time>2016-10-06T10:02:25Z</time></trkpt>
<trkpt lat="23.116908" lon="113.585501">
<time>2016-10-06T10:02:26Z</time></trkpt>
<trkpt lat="23.116818" lon="113.585251">
<time>2016-10-06T10:02:27Z</time></trkpt>
<trkpt lat="23.116408" lon="113.5841">
<time>2016-10-06T10:02:28Z</time></trkpt>
<trkpt lat="23.116238" lon="113.5836">
<time>2016-10-06T10:02:29Z</time></trkpt>
<trkpt lat="23.116228" lon="113.58357">
<time>2016-10-06T10:02:30Z</time></trkpt>
<trkpt lat="23.115898" lon="113.582689">
<time>2016-10-06T10:02:31Z</time></trkpt>
<trkpt lat="23.115688" lon="113.582129">
<time>2016-10-06T10:02:32Z</time></trkpt>
<trkpt lat="23.115547" lon="113.581748">
<time>2016-10-06T10:02:33Z</time></trkpt>
<trkpt lat="23.115477" lon="113.581558">
<time>2016-10-06T10:02:34Z</time></trkpt>
<trkpt lat="23.115427" lon="113.581428">
<time>2016-10-06T10:02:35Z</time></trkpt>
<trkpt lat="23.115367" lon="113.581288">
<time>2016-10-06T10:02:36Z</time></trkpt>
<trkpt lat="23.115137" lon="113.580657">
<time>2016-10-06T10:02:37Z</time></trkpt>
<trkpt lat="23.115047" lon="113.580397">
<time>2016-10-06T10:02:38Z</time></trkpt>
<trkpt lat="23.114356" lon="113.578575">
<time>2016-10-06T10:02:39Z</time></trkpt>
<trkpt lat="23.114126" lon="113.577945">
<time>2016-10-06T10:02:40Z</time></trkpt>
<trkpt lat="23.114096" lon="113.577884">
<time>2016-10-06T10:02:41Z</time></trkpt>
<trkpt lat="23.113785" lon="113.577004">
<time>2016-10-06T10:02:42Z</time></trkpt>
<trkpt lat="23.113094" lon="113.574881">
<time>2016-10-06T10:02:43Z</time></trkpt>
<trkpt lat="23.112924" lon="113.57433">
<time>2016-10-06T10:02:44Z</time></trkpt>
<trkpt lat="23.112924" lon="113.5743">
<time>2016-10-06T10:02:45Z</time></trkpt>
<trkpt lat="23.112914" lon="113.57427">
<time>2016-10-06T10:02:46Z</time></trkpt>
<trkpt lat="23.112833" lon="113.57397">
<time>2016-10-06T10:02:47Z</time></trkpt>
<trkpt lat="23.112773" lon="113.57368">
<time>2016-10-06T10:02:48Z</time></trkpt>
<trkpt lat="23.112693" lon="113.573129">
<time>2016-10-06T10:02:49Z</time></trkpt>
<trkpt lat="23.112672" lon="113.572848">
<time>2016-10-06T10:02:50Z</time></trkpt>
<trkpt lat="23.112662" lon="113.572558">
<time>2016-10-06T10:02:51Z</time></trkpt>
<trkpt lat="23.112672" lon="113.571847">
<time>2016-10-06T10:02:52Z</time></trkpt>
<trkpt lat="23.112681" lon="113.571507">
<time>2016-10-06T10:02:53Z</time></trkpt>
<trkpt lat="23.112681" lon="113.571437">
<time>2016-10-06T10:02:54Z</time></trkpt>
<trkpt lat="23.112691" lon="113.571186">
<time>2016-10-06T10:02:55Z</time></trkpt>
<trkpt lat="23.112701" lon="113.570986">
<time>2016-10-06T10:02:56Z</time></trkpt>
<trkpt lat="23.11273" lon="113.570445">
<time>2016-10-06T10:02:57Z</time></trkpt>
<trkpt lat="23.112809" lon="113.569444">
<time>2016-10-06T10:02:58Z</time></trkpt>
<trkpt lat="23.112868" lon="113.568442">
<time>2016-10-06T10:02:59Z</time></trkpt>
<trkpt lat="23.113005" lon="113.565918">
<time>2016-10-06T10:03:00Z</time></trkpt>
<trkpt lat="23.113015" lon="113.565598">
<time>2016-10-06T10:03:01Z</time></trkpt>
<trkpt lat="23.113015" lon="113.565598">
<time>2016-10-06T10:03:02Z</time></trkpt>
<trkpt lat="23.112864" lon="113.565047">
<time>2016-10-06T10:03:03Z</time></trkpt>
<trkpt lat="23.112932" lon="113.563794">
<time>2016-10-06T10:03:04Z</time></trkpt>
<trkpt lat="23.112971" lon="113.562973">
<time>2016-10-06T10:03:05Z</time></trkpt>
<trkpt lat="23.113001" lon="113.562532">
<time>2016-10-06T10:03:06Z</time></trkpt>
<trkpt lat="23.11294" lon="113.562142">
<time>2016-10-06T10:03:07Z</time></trkpt>
<trkpt lat="23.11289" lon="113.561801">
<time>2016-10-06T10:03:08Z</time></trkpt>
<trkpt lat="23.112577" lon="113.559457">
<time>2016-10-06T10:03:09Z</time></trkpt>
<trkpt lat="23.112294" lon="113.557362">
<time>2016-10-06T10:03:10Z</time></trkpt>
<trkpt lat="23.111668" lon="113.553685">
<time>2016-10-06T10:03:11Z</time></trkpt>
<trkpt lat="23.111668" lon="113.553685">
<time>2016-10-06T10:03:12Z</time></trkpt>
<trkpt lat="23.111927" lon="113.553364">
<time>2016-10-06T10:03:13Z</time></trkpt>
<trkpt lat="23.112077" lon="113.553264">
<time>2016-10-06T10:03:14Z</time></trkpt>
<trkpt lat="23.112167" lon="113.553224">
<time>2016-10-06T10:03:15Z</time></trkpt>
<trkpt lat="23.112267" lon="113.553184">
<time>2016-10-06T10:03:16Z</time></trkpt>
<trkpt lat="23.112417" lon="113.553153">
<time>2016-10-06T10:03:17Z</time></trkpt>
<trkpt lat="23.112596" lon="113.553113">
<time>2016-10-06T10:03:18Z</time></trkpt>
<trkpt lat="23.112596" lon="113.553113">
<time>2016-10-06T10:03:19Z</time></trkpt>
<trkpt lat="23.112364" lon="113.55141">
<time>2016-10-06T10:03:20Z</time></trkpt>
<trkpt lat="23.112333" lon="113.551159">
<time>2016-10-06T10:03:21Z</time></trkpt>
<trkpt lat="23.112303" lon="113.551029">
<time>2016-10-06T10:03:22Z</time></trkpt>
<trkpt lat="23.112263" lon="113.550828">
<time>2016-10-06T10:03:23Z</time></trkpt>
<trkpt lat="23.112242" lon="113.550648">
<time>2016-10-06T10:03:24Z</time></trkpt>
<trkpt lat="23.112212" lon="113.550277">
<time>2016-10-06T10:03:25Z</time></trkpt>
<trkpt lat="23.112212" lon="113.550277">
<time>2016-10-06T10:03:26Z</time></trkpt>
<trkpt lat="23.111947" lon="113.548002">
<time>2016-10-06T10:03:27Z</time></trkpt>
<trkpt lat="23.111835" lon="113.546929">
<time>2016-10-06T10:03:28Z</time></trkpt>
<trkpt lat="23.111795" lon="113.546618">
<time>2016-10-06T10:03:29Z</time></trkpt>
<trkpt lat="23.111723" lon="113.545826">
<time>2016-10-06T10:03:30Z</time></trkpt>
<trkpt lat="23.111703" lon="113.545686">
<time>2016-10-06T10:03:31Z</time></trkpt>
<trkpt lat="23.111693" lon="113.545566">
<time>2016-10-06T10:03:32Z</time></trkpt>
<trkpt lat="23.111672" lon="113.545325">
<time>2016-10-06T10:03:33Z</time></trkpt>
<trkpt lat="23.111672" lon="113.545325">
<time>2016-10-06T10:03:34Z</time></trkpt>
<trkpt lat="23.111332" lon="113.545145">
<time>2016-10-06T10:03:35Z</time></trkpt>
<trkpt lat="23.110752" lon="113.544834">
<time>2016-10-06T10:03:36Z</time></trkpt>
<trkpt lat="23.110682" lon="113.544804">
<time>2016-10-06T10:03:37Z</time></trkpt>
<trkpt lat="23.110441" lon="113.544673">
<time>2016-10-06T10:03:38Z</time></trkpt>
<trkpt lat="23.109751" lon="113.544313">
<time>2016-10-06T10:03:39Z</time></trkpt>
<trkpt lat="23.109511" lon="113.544182">
<time>2016-10-06T10:03:40Z</time></trkpt>
<trkpt lat="23.10911" lon="113.543972">
<time>2016-10-06T10:03:41Z</time></trkpt>
<trkpt lat="23.10834" lon="113.543571">
<time>2016-10-06T10:03:42Z</time></trkpt>
<trkpt lat="23.1078" lon="113.54328">
<time>2016-10-06T10:03:43Z</time></trkpt>
<trkpt lat="23.107689" lon="113.54322">
<time>2016-10-06T10:03:44Z</time></trkpt>
<trkpt lat="23.107519" lon="113.54312">
<time>2016-10-06T10:03:45Z</time></trkpt>
<trkpt lat="23.107279" lon="113.542989">
<time>2016-10-06T10:03:46Z</time></trkpt>
<trkpt lat="23.106919" lon="113.542789">
<time>2016-10-06T10:03:47Z</time></trkpt>
<trkpt lat="23.106819" lon="113.542729">
<time>2016-10-06T10:03:48Z</time></trkpt>
<trkpt lat="23.106769" lon="113.542689">
<time>2016-10-06T10:03:49Z</time></trkpt>
<trkpt lat="23.106348" lon="113.542438">
<time>2016-10-06T10:03:50Z</time></trkpt>
<trkpt lat="23.106268" lon="113.542398">
<time>2016-10-06T10:03:51Z</time></trkpt>
<trkpt lat="23.106178" lon="113.542338">
<time>2016-10-06T10:03:52Z</time></trkpt>
<trkpt lat="23.105608" lon="113.541967">
<time>2016-10-06T10:03:53Z</time></trkpt>
<trkpt lat="23.105257" lon="113.541736">
<time>2016-10-06T10:03:54Z</time></trkpt>
<trkpt lat="23.104997" lon="113.541566">
<time>2016-10-06T10:03:55Z</time></trkpt>
<trkpt lat="23.104627" lon="113.541305">
<time>2016-10-06T10:03:56Z</time></trkpt>
<trkpt lat="23.104186" lon="113.540994">
<time>2016-10-06T10:03:57Z</time></trkpt>
<trkpt lat="23.104106" lon="113.540934">
<time>2016-10-06T10:03:58Z</time></trkpt>
<trkpt lat="23.104076" lon="113.540914">
<time>2016-10-06T10:03:59Z</time></trkpt>
<trkpt lat="23.103545" lon="113.540523">
<time>2016-10-06T10:04:00Z</time></trkpt>
<trkpt lat="23.102945" lon="113.540072">
<time>2016-10-06T10:04:01Z</time></trkpt>
<trkpt lat="23.102364" lon="113.539631">
<time>2016-10-06T10:04:02Z</time></trkpt>
<trkpt lat="23.102324" lon="113.539601">
<time>2016-10-06T10:04:03Z</time></trkpt>
<trkpt lat="23.102204" lon="113.5395">
<time>2016-10-06T10:04:04Z</time></trkpt>
<trkpt lat="23.102044" lon="113.53939">
<time>2016-10-06T10:04:05Z</time></trkpt>
<trkpt lat="23.101973" lon="113.53933">
<time>2016-10-06T10:04:06Z</time></trkpt>
<trkpt lat="23.101923" lon="113.5393">
<time>2016-10-06T10:04:07Z</time></trkpt>
<trkpt lat="23.101763" lon="113.539179">
<time>2016-10-06T10:04:08Z</time></trkpt>
<trkpt lat="23.101703" lon="113.539129">
<time>2016-10-06T10:04:09Z</time></trkpt>
<trkpt lat="23.101603" lon="113.539059">
<time>2016-10-06T10:04:10Z</time></trkpt>
<trkpt lat="23.101463" lon="113.538949">
<time>2016-10-06T10:04:11Z</time></trkpt>
<trkpt lat="23.101383" lon="113.538889">
<time>2016-10-06T10:04:12Z</time></trkpt>
<trkpt lat="23.101263" lon="113.538798">
<time>2016-10-06T10:04:13Z</time></trkpt>
<trkpt lat="23.100972" lon="113.538578">
<time>2016-10-06T10:04:14Z</time></trkpt>
<trkpt lat="23.100832" lon="113.538468">
<time>2016-10-06T10:04:15Z</time></trkpt>
<trkpt lat="23.100712" lon="113.538377">
<time>2016-10-06T10:04:16Z</time></trkpt>
<trkpt lat="23.100482" lon="113.538207">
<time>2016-10-06T10:04:17Z</time></trkpt>
<trkpt lat="23.100381" lon="113.538137">
<time>2016-10-06T10:04:18Z</time></trkpt>
<trkpt lat="23.099931" lon="113.537806">
<time>2016-10-06T10:04:19Z</time></trkpt>
<trkpt lat="23.09966" lon="113.537595">
<time>2016-10-06T10:04:20Z</time></trkpt>
<trkpt lat="23.09946" lon="113.537435">
<time>2016-10-06T10:04:21Z</time></trkpt>
<trkpt lat="23.09922" lon="113.537254">
<time>2016-10-06T10:04:22Z</time></trkpt>
<trkpt lat="23.098739" lon="113.536893">
<time>2016-10-06T10:04:23Z</time></trkpt>
<trkpt lat="23.098589" lon="113.536773">
<time>2016-10-06T10:04:24Z</time></trkpt>
<trkpt lat="23.098339" lon="113.536582">
<time>2016-10-06T10:04:25Z</time></trkpt>
<trkpt lat="23.098068" lon="113.536402">
<time>2016-10-06T10:04:26Z</time></trkpt>
<trkpt lat="23.097257" lon="113.53578">
<time>2016-10-06T10:04:27Z</time></trkpt>
<trkpt lat="23.096737" lon="113.535369">
<time>2016-10-06T10:04:28Z</time></trkpt>
<trkpt lat="23.096416" lon="113.535098">
<time>2016-10-06T10:04:29Z</time></trkpt>
<trkpt lat="23.096146" lon="113.534838">
<time>2016-10-06T10:04:30Z</time></trkpt>
<trkpt lat="23.095725" lon="113.534426">
<time>2016-10-06T10:04:31Z</time></trkpt>
<trkpt lat="23.095695" lon="113.534396">
<time>2016-10-06T10:04:32Z</time></trkpt>
<trkpt lat="23.095374" lon="113.534015">
<time>2016-10-06T10:04:33Z</time></trkpt>
<trkpt lat="23.095173" lon="113.533775">
<time>2016-10-06T10:04:34Z</time></trkpt>
<trkpt lat="23.094923" lon="113.533524">
<time>2016-10-06T10:04:35Z</time></trkpt>
<trkpt lat="23.094823" lon="113.533383">
<time>2016-10-06T10:04:36Z</time></trkpt>
<trkpt lat="23.094782" lon="113.533333">
<time>2016-10-06T10:04:37Z</time></trkpt>
<trkpt lat="23.094722" lon="113.533243">
<time>2016-10-06T10:04:38Z</time></trkpt>
<trkpt lat="23.094531" lon="113.532882">
<time>2016-10-06T10:04:39Z</time></trkpt>
<trkpt lat="23.09429" lon="113.532401">
<time>2016-10-06T10:04:40Z</time></trkpt>
<trkpt lat="23.09411" lon="113.53205">
<time>2016-10-06T10:04:41Z</time></trkpt>
<trkpt lat="23.094019" lon="113.531869">
<time>2016-10-06T10:04:42Z</time></trkpt>
<trkpt lat="23.093838" lon="113.531468">
<time>2016-10-06T10:04:43Z</time></trkpt>
<trkpt lat="23.093688" lon="113.531137">
<time>2016-10-06T10:04:44Z</time></trkpt>
<trkpt lat="23.093245" lon="113.530174">
<time>2016-10-06T10:04:45Z</time></trkpt>
<trkpt lat="23.093165" lon="113.529994">
<time>2016-10-06T10:04:46Z</time></trkpt>
<trkpt lat="23.092974" lon="113.529542">
<time>2016-10-06T10:04:47Z</time></trkpt>
<trkpt lat="23.092753" lon="113.529071">
<time>2016-10-06T10:04:48Z</time></trkpt>
<trkpt lat="23.092723" lon="113.528991">
<time>2016-10-06T10:04:49Z</time></trkpt>
<trkpt lat="23.092451" lon="113.528429">
<time>2016-10-06T10:04:50Z</time></trkpt>
<trkpt lat="23.092401" lon="113.528328">
<time>2016-10-06T10:04:51Z</time></trkpt>
<trkpt lat="23.092391" lon="113.528308">
<time>2016-10-06T10:04:52Z</time></trkpt>
<trkpt lat="23.092381" lon="113.528288">
<time>2016-10-06T10:04:53Z</time></trkpt>
<trkpt lat="23.09218" lon="113.527927">
<time>2016-10-06T10:04:54Z</time></trkpt>
<trkpt lat="23.09212" lon="113.527817">
<time>2016-10-06T10:04:55Z</time></trkpt>
<trkpt lat="23.091999" lon="113.527606">
<time>2016-10-06T10:04:56Z</time></trkpt>
<trkpt lat="23.091879" lon="113.527426">
<time>2016-10-06T10:04:57Z</time></trkpt>
<trkpt lat="23.091769" lon="113.527255">
<time>2016-10-06T10:04:58Z</time></trkpt>
<trkpt lat="23.091728" lon="113.527215">
<time>2016-10-06T10:04:59Z</time></trkpt>
<trkpt lat="23.091668" lon="113.527135">
<time>2016-10-06T10:05:00Z</time></trkpt>
<trkpt lat="23.091558" lon="113.526984">
<time>2016-10-06T10:05:01Z</time></trkpt>
<trkpt lat="23.091518" lon="113.526924">
<time>2016-10-06T10:05:02Z</time></trkpt>
<trkpt lat="23.091478" lon="113.526874">
<time>2016-10-06T10:05:03Z</time></trkpt>
<trkpt lat="23.091337" lon="113.526704">
<time>2016-10-06T10:05:04Z</time></trkpt>
<trkpt lat="23.091137" lon="113.526483">
<time>2016-10-06T10:05:05Z</time></trkpt>
<trkpt lat="23.091067" lon="113.526403">
<time>2016-10-06T10:05:06Z</time></trkpt>
<trkpt lat="23.090926" lon="113.526252">
<time>2016-10-06T10:05:07Z</time></trkpt>
<trkpt lat="23.090816" lon="113.526162">
<time>2016-10-06T10:05:08Z</time></trkpt>
<trkpt lat="23.090475" lon="113.525841">
<time>2016-10-06T10:05:09Z</time></trkpt>
<trkpt lat="23.090415" lon="113.525781">
<time>2016-10-06T10:05:10Z</time></trkpt>
<trkpt lat="23.090305" lon="113.52566">
<time>2016-10-06T10:05:11Z</time></trkpt>
<trkpt lat="23.089984" lon="113.525339">
<time>2016-10-06T10:05:12Z</time></trkpt>
<trkpt lat="23.089824" lon="113.525189">
<time>2016-10-06T10:05:13Z</time></trkpt>
<trkpt lat="23.089734" lon="113.525089">
<time>2016-10-06T10:05:14Z</time></trkpt>
<trkpt lat="23.089413" lon="113.524738">
<time>2016-10-06T10:05:15Z</time></trkpt>
<trkpt lat="23.089072" lon="113.524316">
<time>2016-10-06T10:05:16Z</time></trkpt>
<trkpt lat="23.089002" lon="113.524226">
<time>2016-10-06T10:05:17Z</time></trkpt>
<trkpt lat="23.088831" lon="113.523955">
<time>2016-10-06T10:05:18Z</time></trkpt>
<trkpt lat="23.088751" lon="113.523835">
<time>2016-10-06T10:05:19Z</time></trkpt>
<trkpt lat="23.08865" lon="113.523664">
<time>2016-10-06T10:05:20Z</time></trkpt>
<trkpt lat="23.0885" lon="113.523383">
<time>2016-10-06T10:05:21Z</time></trkpt>
<trkpt lat="23.088349" lon="113.523082">
<time>2016-10-06T10:05:22Z</time></trkpt>
<trkpt lat="23.088238" lon="113.522821">
<time>2016-10-06T10:05:23Z</time></trkpt>
<trkpt lat="23.088208" lon="113.522761">
<time>2016-10-06T10:05:24Z</time></trkpt>
<trkpt lat="23.088027" lon="113.52227">
<time>2016-10-06T10:05:25Z</time></trkpt>
<trkpt lat="23.087916" lon="113.521939">
<time>2016-10-06T10:05:26Z</time></trkpt>
<trkpt lat="23.087775" lon="113.521507">
<time>2016-10-06T10:05:27Z</time></trkpt>
<trkpt lat="23.087725" lon="113.521337">
<time>2016-10-06T10:05:28Z</time></trkpt>
<trkpt lat="23.087603" lon="113.520945">
<time>2016-10-06T10:05:29Z</time></trkpt>
<trkpt lat="23.087503" lon="113.520594">
<time>2016-10-06T10:05:30Z</time></trkpt>
<trkpt lat="23.087311" lon="113.520053">
<time>2016-10-06T10:05:31Z</time></trkpt>
<trkpt lat="23.087281" lon="113.519952">
<time>2016-10-06T10:05:32Z</time></trkpt>
<trkpt lat="23.087241" lon="113.519832">
<time>2016-10-06T10:05:33Z</time></trkpt>
<trkpt lat="23.087099" lon="113.5194">
<time>2016-10-06T10:05:34Z</time></trkpt>
<trkpt lat="23.086878" lon="113.518688">
<time>2016-10-06T10:05:35Z</time></trkpt>
<trkpt lat="23.086777" lon="113.518347">
<time>2016-10-06T10:05:36Z</time></trkpt>
<trkpt lat="23.086686" lon="113.518016">
<time>2016-10-06T10:05:37Z</time></trkpt>
<trkpt lat="23.086544" lon="113.517484">
<time>2016-10-06T10:05:38Z</time></trkpt>
<trkpt lat="23.086484" lon="113.517243">
<time>2016-10-06T10:05:39Z</time></trkpt>
<trkpt lat="23.086463" lon="113.517153">
<time>2016-10-06T10:05:40Z</time></trkpt>
<trkpt lat="23.086362" lon="113.516702">
<time>2016-10-06T10:05:41Z</time></trkpt>
<trkpt lat="23.086302" lon="113.516451">
<time>2016-10-06T10:05:42Z</time></trkpt>
<trkpt lat="23.086008" lon="113.515086">
<time>2016-10-06T10:05:43Z</time></trkpt>
<trkpt lat="23.085806" lon="113.514294">
<time>2016-10-06T10:05:44Z</time></trkpt>
<trkpt lat="23.085775" lon="113.514173">
<time>2016-10-06T10:05:45Z</time></trkpt>
<trkpt lat="23.085664" lon="113.513621">
<time>2016-10-06T10:05:46Z</time></trkpt>
<trkpt lat="23.085492" lon="113.512869">
<time>2016-10-06T10:05:47Z</time></trkpt>
<trkpt lat="23.08537" lon="113.512397">
<time>2016-10-06T10:05:48Z</time></trkpt>
<trkpt lat="23.0853" lon="113.512106">
<time>2016-10-06T10:05:49Z</time></trkpt>
<trkpt lat="23.085137" lon="113.511344">
<time>2016-10-06T10:05:50Z</time></trkpt>
<trkpt lat="23.085057" lon="113.511033">
<time>2016-10-06T10:05:51Z</time></trkpt>
<trkpt lat="23.085016" lon="113.510852">
<time>2016-10-06T10:05:52Z</time></trkpt>
<trkpt lat="23.085006" lon="113.510812">
<time>2016-10-06T10:05:53Z</time></trkpt>
<trkpt lat="23.084996" lon="113.510742">
<time>2016-10-06T10:05:54Z</time></trkpt>
<trkpt lat="23.084874" lon="113.510029">
<time>2016-10-06T10:05:55Z</time></trkpt>
<trkpt lat="23.084823" lon="113.509598">
<time>2016-10-06T10:05:56Z</time></trkpt>
<trkpt lat="23.084792" lon="113.509247">
<time>2016-10-06T10:05:57Z</time></trkpt>
<trkpt lat="23.084791" lon="113.509016">
<time>2016-10-06T10:05:58Z</time></trkpt>
<trkpt lat="23.084769" lon="113.508524">
<time>2016-10-06T10:05:59Z</time></trkpt>
<trkpt lat="23.084788" lon="113.508022">
<time>2016-10-06T10:06:00Z</time></trkpt>
<trkpt lat="23.084865" lon="113.507139">
<time>2016-10-06T10:06:01Z</time></trkpt>
<trkpt lat="23.084895" lon="113.506908">
<time>2016-10-06T10:06:02Z</time></trkpt>
<trkpt lat="23.084914" lon="113.506718">
<time>2016-10-06T10:06:03Z</time></trkpt>
<trkpt lat="23.084933" lon="113.506336">
<time>2016-10-06T10:06:04Z</time></trkpt>
<trkpt lat="23.084933" lon="113.506276">
<time>2016-10-06T10:06:05Z</time></trkpt>
<trkpt lat="23.084972" lon="113.505875">
<time>2016-10-06T10:06:06Z</time></trkpt>
<trkpt lat="23.085059" lon="113.505132">
<time>2016-10-06T10:06:07Z</time></trkpt>
<trkpt lat="23.085157" lon="113.50441">
<time>2016-10-06T10:06:08Z</time></trkpt>
<trkpt lat="23.085225" lon="113.503757">
<time>2016-10-06T10:06:09Z</time></trkpt>
<trkpt lat="23.085293" lon="113.503196">
<time>2016-10-06T10:06:10Z</time></trkpt>
<trkpt lat="23.085391" lon="113.502312">
<time>2016-10-06T10:06:11Z</time></trkpt>
<trkpt lat="23.085459" lon="113.50167">
<time>2016-10-06T10:06:12Z</time></trkpt>
<trkpt lat="23.085615" lon="113.500305">
<time>2016-10-06T10:06:13Z</time></trkpt>
<trkpt lat="23.085644" lon="113.500024">
<time>2016-10-06T10:06:14Z</time></trkpt>
<trkpt lat="23.085673" lon="113.499733">
<time>2016-10-06T10:06:15Z</time></trkpt>
<trkpt lat="23.085721" lon="113.499101">
<time>2016-10-06T10:06:16Z</time></trkpt>
<trkpt lat="23.085731" lon="113.498951">
<time>2016-10-06T10:06:17Z</time></trkpt>
<trkpt lat="23.08573" lon="113.49882">
<time>2016-10-06T10:06:18Z</time></trkpt>
<trkpt lat="23.08573" lon="113.49875">
<time>2016-10-06T10:06:19Z</time></trkpt>
<trkpt lat="23.08572" lon="113.49869">
<time>2016-10-06T10:06:20Z</time></trkpt>
<trkpt lat="23.085709" lon="113.498288">
<time>2016-10-06T10:06:21Z</time></trkpt>
<trkpt lat="23.085697" lon="113.497797">
<time>2016-10-06T10:06:22Z</time></trkpt>
<trkpt lat="23.085666" lon="113.497375">
<time>2016-10-06T10:06:23Z</time></trkpt>
<trkpt lat="23.085645" lon="113.497124">
<time>2016-10-06T10:06:24Z</time></trkpt>
<trkpt lat="23.085614" lon="113.496723">
<time>2016-10-06T10:06:25Z</time></trkpt>
<trkpt lat="23.085542" lon="113.49604">
<time>2016-10-06T10:06:26Z</time></trkpt>
<trkpt lat="23.08552" lon="113.495418">
<time>2016-10-06T10:06:27Z</time></trkpt>
<trkpt lat="23.085509" lon="113.495117">
<time>2016-10-06T10:06:28Z</time></trkpt>
<trkpt lat="23.085509" lon="113.495047">
<time>2016-10-06T10:06:29Z</time></trkpt>
<trkpt lat="23.085538" lon="113.494726">
<time>2016-10-06T10:06:30Z</time></trkpt>
<trkpt lat="23.085547" lon="113.494545">
<time>2016-10-06T10:06:31Z</time></trkpt>
<trkpt lat="23.085586" lon="113.494194">
<time>2016-10-06T10:06:32Z</time></trkpt>
<trkpt lat="23.085655" lon="113.493853">
<time>2016-10-06T10:06:33Z</time></trkpt>
<trkpt lat="23.085714" lon="113.493592">
<time>2016-10-06T10:06:34Z</time></trkpt>
<trkpt lat="23.085784" lon="113.493341">
<time>2016-10-06T10:06:35Z</time></trkpt>
<trkpt lat="23.085853" lon="113.49315">
<time>2016-10-06T10:06:36Z</time></trkpt>
<trkpt lat="23.085873" lon="113.4931">
<time>2016-10-06T10:06:37Z</time></trkpt>
<trkpt lat="23.085962" lon="113.492849">
<time>2016-10-06T10:06:38Z</time></trkpt>
<trkpt lat="23.086031" lon="113.492649">
<time>2016-10-06T10:06:39Z</time></trkpt>
<trkpt lat="23.086081" lon="113.492548">
<time>2016-10-06T10:06:40Z</time></trkpt>
<trkpt lat="23.08619" lon="113.492297">
<time>2016-10-06T10:06:41Z</time></trkpt>
<trkpt lat="23.08633" lon="113.492036">
<time>2016-10-06T10:06:42Z</time></trkpt>
<trkpt lat="23.086499" lon="113.491785">
<time>2016-10-06T10:06:43Z</time></trkpt>
<trkpt lat="23.086678" lon="113.491525">
<time>2016-10-06T10:06:44Z</time></trkpt>
<trkpt lat="23.086887" lon="113.491254">
<time>2016-10-06T10:06:45Z</time></trkpt>
<trkpt lat="23.086996" lon="113.491123">
<time>2016-10-06T10:06:46Z</time></trkpt>
<trkpt lat="23.087176" lon="113.490922">
<time>2016-10-06T10:06:47Z</time></trkpt>
<trkpt lat="23.087485" lon="113.490581">
<time>2016-10-06T10:06:48Z</time></trkpt>
<trkpt lat="23.087873" lon="113.49013">
<time>2016-10-06T10:06:49Z</time></trkpt>
<trkpt lat="23.088192" lon="113.489708">
<time>2016-10-06T10:06:50Z</time></trkpt>
<trkpt lat="23.088311" lon="113.489548">
<time>2016-10-06T10:06:51Z</time></trkpt>
<trkpt lat="23.08846" lon="113.489317">
<time>2016-10-06T10:06:52Z</time></trkpt>
<trkpt lat="23.08857" lon="113.489136">
<time>2016-10-06T10:06:53Z</time></trkpt>
<trkpt lat="23.088709" lon="113.488875">
<time>2016-10-06T10:06:54Z</time></trkpt>
<trkpt lat="23.088729" lon="113.488825">
<time>2016-10-06T10:06:55Z</time></trkpt>
<trkpt lat="23.088868" lon="113.488504">
<time>2016-10-06T10:06:56Z</time></trkpt>
<trkpt lat="23.088997" lon="113.488183">
<time>2016-10-06T10:06:57Z</time></trkpt>
<trkpt lat="23.089037" lon="113.488102">
<time>2016-10-06T10:06:58Z</time></trkpt>
<trkpt lat="23.089066" lon="113.488022">
<time>2016-10-06T10:06:59Z</time></trkpt>
<trkpt lat="23.089096" lon="113.487912">
<time>2016-10-06T10:07:00Z</time></trkpt>
<trkpt lat="23.089106" lon="113.487882">
<time>2016-10-06T10:07:01Z</time></trkpt>
<trkpt lat="23.089106" lon="113.487872">
<time>2016-10-06T10:07:02Z</time></trkpt>
<trkpt lat="23.089116" lon="113.487862">
<time>2016-10-06T10:07:03Z</time></trkpt>
<trkpt lat="23.089116" lon="113.487852">
<time>2016-10-06T10:07:04Z</time></trkpt>
<trkpt lat="23.089126" lon="113.487821">
<time>2016-10-06T10:07:05Z</time></trkpt>
<trkpt lat="23.089175" lon="113.48753">
<time>2016-10-06T10:07:06Z</time></trkpt>
<trkpt lat="23.089224" lon="113.487199">
<time>2016-10-06T10:07:07Z</time></trkpt>
<trkpt lat="23.089253" lon="113.487029">
<time>2016-10-06T10:07:08Z</time></trkpt>
<trkpt lat="23.089263" lon="113.486968">
<time>2016-10-06T10:07:09Z</time></trkpt>
<trkpt lat="23.089293" lon="113.486778">
<time>2016-10-06T10:07:10Z</time></trkpt>
<trkpt lat="23.089322" lon="113.486657">
<time>2016-10-06T10:07:11Z</time></trkpt>
<trkpt lat="23.089411" lon="113.486136">
<time>2016-10-06T10:07:12Z</time></trkpt>
<trkpt lat="23.089499" lon="113.485674">
<time>2016-10-06T10:07:13Z</time></trkpt>
<trkpt lat="23.089519" lon="113.485564">
<time>2016-10-06T10:07:14Z</time></trkpt>
<trkpt lat="23.089548" lon="113.485393">
<time>2016-10-06T10:07:15Z</time></trkpt>
<trkpt lat="23.089548" lon="113.485373">
<time>2016-10-06T10:07:16Z</time></trkpt>
<trkpt lat="23.089657" lon="113.484831">
<time>2016-10-06T10:07:17Z</time></trkpt>
<trkpt lat="23.089775" lon="113.484329">
<time>2016-10-06T10:07:18Z</time></trkpt>
<trkpt lat="23.089795" lon="113.484249">
<time>2016-10-06T10:07:19Z</time></trkpt>
<trkpt lat="23.089903" lon="113.483747">
<time>2016-10-06T10:07:20Z</time></trkpt>
<trkpt lat="23.090021" lon="113.483055">
<time>2016-10-06T10:07:21Z</time></trkpt>
<trkpt lat="23.09011" lon="113.482654">
<time>2016-10-06T10:07:22Z</time></trkpt>
<trkpt lat="23.090209" lon="113.482262">
<time>2016-10-06T10:07:23Z</time></trkpt>
<trkpt lat="23.090298" lon="113.482001">
<time>2016-10-06T10:07:24Z</time></trkpt>
<trkpt lat="23.090367" lon="113.481811">
<time>2016-10-06T10:07:25Z</time></trkpt>
<trkpt lat="23.090407" lon="113.4817">
<time>2016-10-06T10:07:26Z</time></trkpt>
<trkpt lat="23.090506" lon="113.48148">
<time>2016-10-06T10:07:27Z</time></trkpt>
<trkpt lat="23.090625" lon="113.481219">
<time>2016-10-06T10:07:28Z</time></trkpt>
<trkpt lat="23.090755" lon="113.480978">
<time>2016-10-06T10:07:29Z</time></trkpt>
<trkpt lat="23.090954" lon="113.480637">
<time>2016-10-06T10:07:30Z</time></trkpt>
<trkpt lat="23.090974" lon="113.480607">
<time>2016-10-06T10:07:31Z</time></trkpt>
<trkpt lat="23.091203" lon="113.480305">
<time>2016-10-06T10:07:32Z</time></trkpt>
<trkpt lat="23.091491" lon="113.479964">
<time>2016-10-06T10:07:33Z</time></trkpt>
<trkpt lat="23.091641" lon="113.479804">
<time>2016-10-06T10:07:34Z</time></trkpt>
<trkpt lat="23.091721" lon="113.479723">
<time>2016-10-06T10:07:35Z</time></trkpt>
<trkpt lat="23.09195" lon="113.479493">
<time>2016-10-06T10:07:36Z</time></trkpt>
<trkpt lat="23.092309" lon="113.479141">
<time>2016-10-06T10:07:37Z</time></trkpt>
<trkpt lat="23.092329" lon="113.479131">
<time>2016-10-06T10:07:38Z</time></trkpt>
<trkpt lat="23.092398" lon="113.479061">
<time>2016-10-06T10:07:39Z</time></trkpt>
<trkpt lat="23.092498" lon="113.478961">
<time>2016-10-06T10:07:40Z</time></trkpt>
<trkpt lat="23.092837" lon="113.47864">
<time>2016-10-06T10:07:41Z</time></trkpt>
<trkpt lat="23.093256" lon="113.478248">
<time>2016-10-06T10:07:42Z</time></trkpt>
<trkpt lat="23.093595" lon="113.477947">
<time>2016-10-06T10:07:43Z</time></trkpt>
<trkpt lat="23.093844" lon="113.477717">
<time>2016-10-06T10:07:44Z</time></trkpt>
<trkpt lat="23.093934" lon="113.477626">
<time>2016-10-06T10:07:45Z</time></trkpt>
<trkpt lat="23.094282" lon="113.477275">
<time>2016-10-06T10:07:46Z</time></trkpt>
<trkpt lat="23.094392" lon="113.477155">
<time>2016-10-06T10:07:47Z</time></trkpt>
<trkpt lat="23.094581" lon="113.476944">
<time>2016-10-06T10:07:48Z</time></trkpt>
<trkpt lat="23.094721" lon="113.476773">
<time>2016-10-06T10:07:49Z</time></trkpt>
<trkpt lat="23.094781" lon="113.476693">
<time>2016-10-06T10:07:50Z</time></trkpt>
<trkpt lat="23.09482" lon="113.476653">
<time>2016-10-06T10:07:51Z</time></trkpt>
<trkpt lat="23.09486" lon="113.476593">
<time>2016-10-06T10:07:52Z</time></trkpt>
<trkpt lat="23.095039" lon="113.476342">
<time>2016-10-06T10:07:53Z</time></trkpt>
<trkpt lat="23.095069" lon="113.476282">
<time>2016-10-06T10:07:54Z</time></trkpt>
<trkpt lat="23.095199" lon="113.476061">
<time>2016-10-06T10:07:55Z</time></trkpt>
<trkpt lat="23.095387" lon="113.47566">
<time>2016-10-06T10:07:56Z</time></trkpt>
<trkpt lat="23.095427" lon="113.475549">
<time>2016-10-06T10:07:57Z</time></trkpt>
<trkpt lat="23.095516" lon="113.475288">
<time>2016-10-06T10:07:58Z</time></trkpt>
<trkpt lat="23.095635" lon="113.474877">
<time>2016-10-06T10:07:59Z</time></trkpt>
<trkpt lat="23.095734" lon="113.474546">
<time>2016-10-06T10:08:00Z</time></trkpt>
<trkpt lat="23.095833" lon="113.474175">
<time>2016-10-06T10:08:01Z</time></trkpt>
<trkpt lat="23.095971" lon="113.473593">
<time>2016-10-06T10:08:02Z</time></trkpt>
<trkpt lat="23.096001" lon="113.473472">
<time>2016-10-06T10:08:03Z</time></trkpt>
<trkpt lat="23.09607" lon="113.473191">
<time>2016-10-06T10:08:04Z</time></trkpt>
<trkpt lat="23.096149" lon="113.472911">
<time>2016-10-06T10:08:05Z</time></trkpt>
<trkpt lat="23.096258" lon="113.472539">
<time>2016-10-06T10:08:06Z</time></trkpt>
<trkpt lat="23.096436" lon="113.471867">
<time>2016-10-06T10:08:07Z</time></trkpt>
<trkpt lat="23.096535" lon="113.471436">
<time>2016-10-06T10:08:08Z</time></trkpt>
<trkpt lat="23.096594" lon="113.471225">
<time>2016-10-06T10:08:09Z</time></trkpt>
<trkpt lat="23.096664" lon="113.470984">
<time>2016-10-06T10:08:10Z</time></trkpt>
<trkpt lat="23.096772" lon="113.470533">
<time>2016-10-06T10:08:11Z</time></trkpt>
<trkpt lat="23.096832" lon="113.470282">
<time>2016-10-06T10:08:12Z</time></trkpt>
<trkpt lat="23.09698" lon="113.46974">
<time>2016-10-06T10:08:13Z</time></trkpt>
<trkpt lat="23.097049" lon="113.469459">
<time>2016-10-06T10:08:14Z</time></trkpt>
<trkpt lat="23.097099" lon="113.469229">
<time>2016-10-06T10:08:15Z</time></trkpt>
<trkpt lat="23.097257" lon="113.468657">
<time>2016-10-06T10:08:16Z</time></trkpt>
<trkpt lat="23.097475" lon="113.467965">
<time>2016-10-06T10:08:17Z</time></trkpt>
<trkpt lat="23.097505" lon="113.467854">
<time>2016-10-06T10:08:18Z</time></trkpt>
<trkpt lat="23.097584" lon="113.467543">
<time>2016-10-06T10:08:19Z</time></trkpt>
<trkpt lat="23.097633" lon="113.467333">
<time>2016-10-06T10:08:20Z</time></trkpt>
<trkpt lat="23.097792" lon="113.466851">
<time>2016-10-06T10:08:21Z</time></trkpt>
<trkpt lat="23.097861" lon="113.46668">
<time>2016-10-06T10:08:22Z</time></trkpt>
<trkpt lat="23.09806" lon="113.466189">
<time>2016-10-06T10:08:23Z</time></trkpt>
<trkpt lat="23.098269" lon="113.465697">
<time>2016-10-06T10:08:24Z</time></trkpt>
<trkpt lat="23.098358" lon="113.465507">
<time>2016-10-06T10:08:25Z</time></trkpt>
<trkpt lat="23.098438" lon="113.465356">
<time>2016-10-06T10:08:26Z</time></trkpt>
<trkpt lat="23.098497" lon="113.465226">
<time>2016-10-06T10:08:27Z</time></trkpt>
<trkpt lat="23.098547" lon="113.465136">
<time>2016-10-06T10:08:28Z</time></trkpt>
<trkpt lat="23.098626" lon="113.464955">
<time>2016-10-06T10:08:29Z</time></trkpt>
<trkpt lat="23.098825" lon="113.464524">
<time>2016-10-06T10:08:30Z</time></trkpt>
<trkpt lat="23.098994" lon="113.464193">
<time>2016-10-06T10:08:31Z</time></trkpt>
<trkpt lat="23.099352" lon="113.463551">
<time>2016-10-06T10:08:32Z</time></trkpt>
<trkpt lat="23.099512" lon="113.46329">
<time>2016-10-06T10:08:33Z</time></trkpt>
<trkpt lat="23.09983" lon="113.462688">
<time>2016-10-06T10:08:34Z</time></trkpt>
<trkpt lat="23.099929" lon="113.462487">
<time>2016-10-06T10:08:35Z</time></trkpt>
<trkpt lat="23.100108" lon="113.462106">
<time>2016-10-06T10:08:36Z</time></trkpt>
<trkpt lat="23.100188" lon="113.461956">
<time>2016-10-06T10:08:37Z</time></trkpt>
<trkpt lat="23.100337" lon="113.461675">
<time>2016-10-06T10:08:38Z</time></trkpt>
<trkpt lat="23.100377" lon="113.461605">
<time>2016-10-06T10:08:39Z</time></trkpt>
<trkpt lat="23.100635" lon="113.461043">
<time>2016-10-06T10:08:40Z</time></trkpt>
<trkpt lat="23.100834" lon="113.460642">
<time>2016-10-06T10:08:41Z</time></trkpt>
<trkpt lat="23.101103" lon="113.46014">
<time>2016-10-06T10:08:42Z</time></trkpt>
<trkpt lat="23.101461" lon="113.459408">
<time>2016-10-06T10:08:43Z</time></trkpt>
<trkpt lat="23.10164" lon="113.459057">
<time>2016-10-06T10:08:44Z</time></trkpt>
<trkpt lat="23.101899" lon="113.458556">
<time>2016-10-06T10:08:45Z</time></trkpt>
<trkpt lat="23.102217" lon="113.457924">
<time>2016-10-06T10:08:46Z</time></trkpt>
<trkpt lat="23.102396" lon="113.457523">
<time>2016-10-06T10:08:47Z</time></trkpt>
<trkpt lat="23.102674" lon="113.456801">
<time>2016-10-06T10:08:48Z</time></trkpt>
<trkpt lat="23.102952" lon="113.456079">
<time>2016-10-06T10:08:49Z</time></trkpt>
<trkpt lat="23.103091" lon="113.455647">
<time>2016-10-06T10:08:50Z</time></trkpt>
<trkpt lat="23.10325" lon="113.455096">
<time>2016-10-06T10:08:51Z</time></trkpt>
<trkpt lat="23.103408" lon="113.454454">
<time>2016-10-06T10:08:52Z</time></trkpt>
<trkpt lat="23.103516" lon="113.453782">
<time>2016-10-06T10:08:53Z</time></trkpt>
<trkpt lat="23.103575" lon="113.453401">
<time>2016-10-06T10:08:54Z</time></trkpt>
<trkpt lat="23.103704" lon="113.452579">
<time>2016-10-06T10:08:55Z</time></trkpt>
<trkpt lat="23.103841" lon="113.451596">
<time>2016-10-06T10:08:56Z</time></trkpt>
<trkpt lat="23.103851" lon="113.451416">
<time>2016-10-06T10:08:57Z</time></trkpt>
<trkpt lat="23.10387" lon="113.451045">
<time>2016-10-06T10:08:58Z</time></trkpt>
<trkpt lat="23.103888" lon="113.450333">
<time>2016-10-06T10:08:59Z</time></trkpt>
<trkpt lat="23.103888" lon="113.450253">
<time>2016-10-06T10:09:00Z</time></trkpt>
<trkpt lat="23.103887" lon="113.449741">
<time>2016-10-06T10:09:01Z</time></trkpt>
<trkpt lat="23.103886" lon="113.44934">
<time>2016-10-06T10:09:02Z</time></trkpt>
<trkpt lat="23.103876" lon="113.44912">
<time>2016-10-06T10:09:03Z</time></trkpt>
<trkpt lat="23.103854" lon="113.448548">
<time>2016-10-06T10:09:04Z</time></trkpt>
<trkpt lat="23.103844" lon="113.448248">
<time>2016-10-06T10:09:05Z</time></trkpt>
<trkpt lat="23.103833" lon="113.448097">
<time>2016-10-06T10:09:06Z</time></trkpt>
<trkpt lat="23.103813" lon="113.447957">
<time>2016-10-06T10:09:07Z</time></trkpt>
<trkpt lat="23.103742" lon="113.447546">
<time>2016-10-06T10:09:08Z</time></trkpt>
<trkpt lat="23.103661" lon="113.447055">
<time>2016-10-06T10:09:09Z</time></trkpt>
<trkpt lat="23.10362" lon="113.446614">
<time>2016-10-06T10:09:10Z</time></trkpt>
<trkpt lat="23.1036" lon="113.446363">
<time>2016-10-06T10:09:11Z</time></trkpt>
<trkpt lat="23.103559" lon="113.445741">
<time>2016-10-06T10:09:12Z</time></trkpt>
<trkpt lat="23.103538" lon="113.445411">
<time>2016-10-06T10:09:13Z</time></trkpt>
<trkpt lat="23.103527" lon="113.44514">
<time>2016-10-06T10:09:14Z</time></trkpt>
<trkpt lat="23.103487" lon="113.444849">
<time>2016-10-06T10:09:15Z</time></trkpt>
<trkpt lat="23.103366" lon="113.444348">
<time>2016-10-06T10:09:16Z</time></trkpt>
<trkpt lat="23.103245" lon="113.443907">
<time>2016-10-06T10:09:17Z</time></trkpt>
<trkpt lat="23.102943" lon="113.442835">
<time>2016-10-06T10:09:18Z</time></trkpt>
<trkpt lat="23.102923" lon="113.442764">
<time>2016-10-06T10:09:19Z</time></trkpt>
<trkpt lat="23.102923" lon="113.442764">
<time>2016-10-06T10:09:20Z</time></trkpt>
<trkpt lat="23.102853" lon="113.442654">
<time>2016-10-06T10:09:21Z</time></trkpt>
<trkpt lat="23.102631" lon="113.441792">
<time>2016-10-06T10:09:22Z</time></trkpt>
<trkpt lat="23.102611" lon="113.441572">
<time>2016-10-06T10:09:23Z</time></trkpt>
<trkpt lat="23.10259" lon="113.441451">
<time>2016-10-06T10:09:24Z</time></trkpt>
<trkpt lat="23.10254" lon="113.44104">
<time>2016-10-06T10:09:25Z</time></trkpt>
<trkpt lat="23.102529" lon="113.440599">
<time>2016-10-06T10:09:26Z</time></trkpt>
<trkpt lat="23.102538" lon="113.440379">
<time>2016-10-06T10:09:27Z</time></trkpt>
<trkpt lat="23.102538" lon="113.440209">
<time>2016-10-06T10:09:28Z</time></trkpt>
<trkpt lat="23.102577" lon="113.439617">
<time>2016-10-06T10:09:29Z</time></trkpt>
<trkpt lat="23.102605" lon="113.438465">
<time>2016-10-06T10:09:30Z</time></trkpt>
<trkpt lat="23.102643" lon="113.437453">
<time>2016-10-06T10:09:31Z</time></trkpt>
<trkpt lat="23.102682" lon="113.436781">
<time>2016-10-06T10:09:32Z</time></trkpt>
<trkpt lat="23.102721" lon="113.43631">
<time>2016-10-06T10:09:33Z</time></trkpt>
<trkpt lat="23.10276" lon="113.43603">
<time>2016-10-06T10:09:34Z</time></trkpt>
<trkpt lat="23.10281" lon="113.435639">
<time>2016-10-06T10:09:35Z</time></trkpt>
<trkpt lat="23.102898" lon="113.434968">
<time>2016-10-06T10:09:36Z</time></trkpt>
<trkpt lat="23.102938" lon="113.434667">
<time>2016-10-06T10:09:37Z</time></trkpt>
<trkpt lat="23.102968" lon="113.434557">
<time>2016-10-06T10:09:38Z</time></trkpt>
<trkpt lat="23.102978" lon="113.434447">
<time>2016-10-06T10:09:39Z</time></trkpt>
<trkpt lat="23.103037" lon="113.434136">
<time>2016-10-06T10:09:40Z</time></trkpt>
<trkpt lat="23.103087" lon="113.433885">
<time>2016-10-06T10:09:41Z</time></trkpt>
<trkpt lat="23.103176" lon="113.433545">
<time>2016-10-06T10:09:42Z</time></trkpt>
<trkpt lat="23.103186" lon="113.433545">
<time>2016-10-06T10:09:43Z</time></trkpt>
<trkpt lat="23.103415" lon="113.432683">
<time>2016-10-06T10:09:44Z</time></trkpt>
<trkpt lat="23.103633" lon="113.431812">
<time>2016-10-06T10:09:45Z</time></trkpt>
<trkpt lat="23.103653" lon="113.431711">
<time>2016-10-06T10:09:46Z</time></trkpt>
<trkpt lat="23.103822" lon="113.43104">
<time>2016-10-06T10:09:47Z</time></trkpt>
<trkpt lat="23.103822" lon="113.43104">
<time>2016-10-06T10:09:48Z</time></trkpt>
<trkpt lat="23.103911" lon="113.430479">
<time>2016-10-06T10:09:49Z</time></trkpt>
<trkpt lat="23.103911" lon="113.430279">
<time>2016-10-06T10:09:50Z</time></trkpt>
<trkpt lat="23.10397" lon="113.429778">
<time>2016-10-06T10:09:51Z</time></trkpt>
<trkpt lat="23.104128" lon="113.428836">
<time>2016-10-06T10:09:52Z</time></trkpt>
<trkpt lat="23.104178" lon="113.428516">
<time>2016-10-06T10:09:53Z</time></trkpt>
<trkpt lat="23.104198" lon="113.428375">
<time>2016-10-06T10:09:54Z</time></trkpt>
<trkpt lat="23.104208" lon="113.428335">
<time>2016-10-06T10:09:55Z</time></trkpt>
<trkpt lat="23.104208" lon="113.428315">
<time>2016-10-06T10:09:56Z</time></trkpt>
<trkpt lat="23.104237" lon="113.428135">
<time>2016-10-06T10:09:57Z</time></trkpt>
<trkpt lat="23.104297" lon="113.427915">
<time>2016-10-06T10:09:58Z</time></trkpt>
<trkpt lat="23.104337" lon="113.427664">
<time>2016-10-06T10:09:59Z</time></trkpt>
<trkpt lat="23.104386" lon="113.427374">
<time>2016-10-06T10:10:00Z</time></trkpt>
<trkpt lat="23.104525" lon="113.426422">
<time>2016-10-06T10:10:01Z</time></trkpt>
<trkpt lat="23.104555" lon="113.426222">
<time>2016-10-06T10:10:02Z</time></trkpt>
<trkpt lat="23.104594" lon="113.425961">
<time>2016-10-06T10:10:03Z</time></trkpt>
<trkpt lat="23.104644" lon="113.425581">
<time>2016-10-06T10:10:04Z</time></trkpt>
<trkpt lat="23.104663" lon="113.4251">
<time>2016-10-06T10:10:05Z</time></trkpt>
<trkpt lat="23.104673" lon="113.42478">
<time>2016-10-06T10:10:06Z</time></trkpt>
<trkpt lat="23.104673" lon="113.42473">
<time>2016-10-06T10:10:07Z</time></trkpt>
<trkpt lat="23.104642" lon="113.424399">
<time>2016-10-06T10:10:08Z</time></trkpt>
<trkpt lat="23.104602" lon="113.424079">
<time>2016-10-06T10:10:09Z</time></trkpt>
<trkpt lat="23.104552" lon="113.423718">
<time>2016-10-06T10:10:10Z</time></trkpt>
<trkpt lat="23.104471" lon="113.423187">
<time>2016-10-06T10:10:11Z</time></trkpt>
<trkpt lat="23.104391" lon="113.423047">
<time>2016-10-06T10:10:12Z</time></trkpt>
<trkpt lat="23.104391" lon="113.423047">
<time>2016-10-06T10:10:13Z</time></trkpt>
<trkpt lat="23.10429" lon="113.422577">
<time>2016-10-06T10:10:14Z</time></trkpt>
<trkpt lat="23.104139" lon="113.421785">
<time>2016-10-06T10:10:15Z</time></trkpt>
<trkpt lat="23.104159" lon="113.421525">
<time>2016-10-06T10:10:16Z</time></trkpt>
<trkpt lat="23.104109" lon="113.421295">
<time>2016-10-06T10:10:17Z</time></trkpt>
<trkpt lat="23.103968" lon="113.420584">
<time>2016-10-06T10:10:18Z</time></trkpt>
<trkpt lat="23.103697" lon="113.419162">
<time>2016-10-06T10:10:19Z</time></trkpt>
<trkpt lat="23.103667" lon="113.418942">
<time>2016-10-06T10:10:20Z</time></trkpt>
<trkpt lat="23.103647" lon="113.418842">
<time>2016-10-06T10:10:21Z</time></trkpt>
<trkpt lat="23.103647" lon="113.418802">
<time>2016-10-06T10:10:22Z</time></trkpt>
<trkpt lat="23.103626" lon="113.418611">
<time>2016-10-06T10:10:23Z</time></trkpt>
<trkpt lat="23.103626" lon="113.418561">
<time>2016-10-06T10:10:24Z</time></trkpt>
<trkpt lat="23.103616" lon="113.418361">
<time>2016-10-06T10:10:25Z</time></trkpt>
<trkpt lat="23.103616" lon="113.418341">
<time>2016-10-06T10:10:26Z</time></trkpt>
<trkpt lat="23.103626" lon="113.418171">
<time>2016-10-06T10:10:27Z</time></trkpt>
<trkpt lat="23.103666" lon="113.41784">
<time>2016-10-06T10:10:28Z</time></trkpt>
<trkpt lat="23.103715" lon="113.41759">
<time>2016-10-06T10:10:29Z</time></trkpt>
<trkpt lat="23.103785" lon="113.41722">
<time>2016-10-06T10:10:30Z</time></trkpt>
<trkpt lat="23.103795" lon="113.41719">
<time>2016-10-06T10:10:31Z</time></trkpt>
<trkpt lat="23.103845" lon="113.417">
<time>2016-10-06T10:10:32Z</time></trkpt>
<trkpt lat="23.103934" lon="113.416739">
<time>2016-10-06T10:10:33Z</time></trkpt>
<trkpt lat="23.103964" lon="113.416669">
<time>2016-10-06T10:10:34Z</time></trkpt>
<trkpt lat="23.104313" lon="113.415738">
<time>2016-10-06T10:10:35Z</time></trkpt>
<trkpt lat="23.104473" lon="113.415328">
<time>2016-10-06T10:10:36Z</time></trkpt>
<trkpt lat="23.104533" lon="113.415167">
<time>2016-10-06T10:10:37Z</time></trkpt>
<trkpt lat="23.104563" lon="113.415077">
<time>2016-10-06T10:10:38Z</time></trkpt>
<trkpt lat="23.104732" lon="113.414627">
<time>2016-10-06T10:10:39Z</time></trkpt>
<trkpt lat="23.104792" lon="113.414477">
<time>2016-10-06T10:10:40Z</time></trkpt>
<trkpt lat="23.104852" lon="113.414317">
<time>2016-10-06T10:10:41Z</time></trkpt>
<trkpt lat="23.104882" lon="113.414247">
<time>2016-10-06T10:10:42Z</time></trkpt>
<trkpt lat="23.105032" lon="113.413826">
<time>2016-10-06T10:10:43Z</time></trkpt>
<trkpt lat="23.105231" lon="113.413296">
<time>2016-10-06T10:10:44Z</time></trkpt>
<trkpt lat="23.105331" lon="113.413045">
<time>2016-10-06T10:10:45Z</time></trkpt>
<trkpt lat="23.10549" lon="113.412635">
<time>2016-10-06T10:10:46Z</time></trkpt>
<trkpt lat="23.10555" lon="113.412455">
<time>2016-10-06T10:10:47Z</time></trkpt>
<trkpt lat="23.1056" lon="113.412325">
<time>2016-10-06T10:10:48Z</time></trkpt>
<trkpt lat="23.10569" lon="113.412104">
<time>2016-10-06T10:10:49Z</time></trkpt>
<trkpt lat="23.10569" lon="113.412104">
<time>2016-10-06T10:10:50Z</time></trkpt>
<trkpt lat="23.10572" lon="113.412034">
<time>2016-10-06T10:10:51Z</time></trkpt>
<trkpt lat="23.10575" lon="113.411974">
<time>2016-10-06T10:10:52Z</time></trkpt>
<trkpt lat="23.10578" lon="113.411914">
<time>2016-10-06T10:10:53Z</time></trkpt>
<trkpt lat="23.10579" lon="113.411894">
<time>2016-10-06T10:10:54Z</time></trkpt>
<trkpt lat="23.106039" lon="113.411304">
<time>2016-10-06T10:10:55Z</time></trkpt>
<trkpt lat="23.106069" lon="113.411244">
<time>2016-10-06T10:10:56Z</time></trkpt>
<trkpt lat="23.106089" lon="113.411184">
<time>2016-10-06T10:10:57Z</time></trkpt>
<trkpt lat="23.106209" lon="113.410853">
<time>2016-10-06T10:10:58Z</time></trkpt>
<trkpt lat="23.106568" lon="113.409933">
<time>2016-10-06T10:10:59Z</time></trkpt>
<trkpt lat="23.106798" lon="113.409302">
<time>2016-10-06T10:11:00Z</time></trkpt>
<trkpt lat="23.107027" lon="113.408672">
<time>2016-10-06T10:11:01Z</time></trkpt>
<trkpt lat="23.107267" lon="113.408081">
<time>2016-10-06T10:11:02Z</time></trkpt>
<trkpt lat="23.107377" lon="113.407801">
<time>2016-10-06T10:11:03Z</time></trkpt>
<trkpt lat="23.107507" lon="113.407451">
<time>2016-10-06T10:11:04Z</time></trkpt>
<trkpt lat="23.107686" lon="113.40698">
<time>2016-10-06T10:11:05Z</time></trkpt>
<trkpt lat="23.108136" lon="113.40574">
<time>2016-10-06T10:11:06Z</time></trkpt>
<trkpt lat="23.108325" lon="113.405259">
<time>2016-10-06T10:11:07Z</time></trkpt>
<trkpt lat="23.108405" lon="113.405029">
<time>2016-10-06T10:11:08Z</time></trkpt>
<trkpt lat="23.108565" lon="113.404609">
<time>2016-10-06T10:11:09Z</time></trkpt>
<trkpt lat="23.108695" lon="113.404279">
<time>2016-10-06T10:11:10Z</time></trkpt>
<trkpt lat="23.108974" lon="113.403549">
<time>2016-10-06T10:11:11Z</time></trkpt>
<trkpt lat="23.109214" lon="113.402928">
<time>2016-10-06T10:11:12Z</time></trkpt>
<trkpt lat="23.109474" lon="113.402238">
<time>2016-10-06T10:11:13Z</time></trkpt>
<trkpt lat="23.109594" lon="113.401918">
<time>2016-10-06T10:11:14Z</time></trkpt>
<trkpt lat="23.109973" lon="113.400957">
<time>2016-10-06T10:11:15Z</time></trkpt>
<trkpt lat="23.110313" lon="113.400077">
<time>2016-10-06T10:11:16Z</time></trkpt>
<trkpt lat="23.110573" lon="113.399377">
<time>2016-10-06T10:11:17Z</time></trkpt>
<trkpt lat="23.110783" lon="113.398787">
<time>2016-10-06T10:11:18Z</time></trkpt>
<trkpt lat="23.111063" lon="113.398047">
<time>2016-10-06T10:11:19Z</time></trkpt>
<trkpt lat="23.111103" lon="113.397947">
<time>2016-10-06T10:11:20Z</time></trkpt>
<trkpt lat="23.111192" lon="113.397707">
<time>2016-10-06T10:11:21Z</time></trkpt>
<trkpt lat="23.111212" lon="113.397657">
<time>2016-10-06T10:11:22Z</time></trkpt>
<trkpt lat="23.111262" lon="113.397527">
<time>2016-10-06T10:11:23Z</time></trkpt>
<trkpt lat="23.111372" lon="113.397247">
<time>2016-10-06T10:11:24Z</time></trkpt>
<trkpt lat="23.111392" lon="113.397207">
<time>2016-10-06T10:11:25Z</time></trkpt>
<trkpt lat="23.111522" lon="113.396886">
<time>2016-10-06T10:11:26Z</time></trkpt>
<trkpt lat="23.112002" lon="113.395626">
<time>2016-10-06T10:11:27Z</time></trkpt>
<trkpt lat="23.112012" lon="113.395616">
<time>2016-10-06T10:11:28Z</time></trkpt>
<trkpt lat="23.112082" lon="113.395436">
<time>2016-10-06T10:11:29Z</time></trkpt>
<trkpt lat="23.112112" lon="113.395296">
<time>2016-10-06T10:11:30Z</time></trkpt>
<trkpt lat="23.112522" lon="113.394166">
<time>2016-10-06T10:11:31Z</time></trkpt>
<trkpt lat="23.112742" lon="113.393596">
<time>2016-10-06T10:11:32Z</time></trkpt>
<trkpt lat="23.112872" lon="113.393276">
<time>2016-10-06T10:11:33Z</time></trkpt>
<trkpt lat="23.113042" lon="113.392876">
<time>2016-10-06T10:11:34Z</time></trkpt>
<trkpt lat="23.113112" lon="113.392706">
<time>2016-10-06T10:11:35Z</time></trkpt>
<trkpt lat="23.113172" lon="113.392596">
<time>2016-10-06T10:11:36Z</time></trkpt>
<trkpt lat="23.113242" lon="113.392486">
<time>2016-10-06T10:11:37Z</time></trkpt>
<trkpt lat="23.113322" lon="113.392376">
<time>2016-10-06T10:11:38Z</time></trkpt>
<trkpt lat="23.113412" lon="113.392266">
<time>2016-10-06T10:11:39Z</time></trkpt>
<trkpt lat="23.113632" lon="113.392036">
<time>2016-10-06T10:11:40Z</time></trkpt>
<trkpt lat="23.113742" lon="113.391936">
<time>2016-10-06T10:11:41Z</time></trkpt>
<trkpt lat="23.114832" lon="113.390976">
<time>2016-10-06T10:11:42Z</time></trkpt>
<trkpt lat="23.115012" lon="113.390816">
<time>2016-10-06T10:11:43Z</time></trkpt>
<trkpt lat="23.115182" lon="113.390656">
<time>2016-10-06T10:11:44Z</time></trkpt>
<trkpt lat="23.115272" lon="113.390576">
<time>2016-10-06T10:11:45Z</time></trkpt>
<trkpt lat="23.115342" lon="113.390496">
<time>2016-10-06T10:11:46Z</time></trkpt>
<trkpt lat="23.115502" lon="113.390336">
<time>2016-10-06T10:11:47Z</time></trkpt>
<trkpt lat="23.115632" lon="113.390176">
<time>2016-10-06T10:11:48Z</time></trkpt>
<trkpt lat="23.115782" lon="113.389987">
<time>2016-10-06T10:11:49Z</time></trkpt>
<trkpt lat="23.115942" lon="113.389737">
<time>2016-10-06T10:11:50Z</time></trkpt>
<trkpt lat="23.116142" lon="113.389467">
<time>2016-10-06T10:11:51Z</time></trkpt>
<trkpt lat="23.116392" lon="113.389057">
<time>2016-10-06T10:11:52Z</time></trkpt>
<trkpt lat="23.116542" lon="113.388777">
<time>2016-10-06T10:11:53Z</time></trkpt>
<trkpt lat="23.116702" lon="113.388467">
<time>2016-10-06T10:11:54Z</time></trkpt>
<trkpt lat="23.116822" lon="113.388187">
<time>2016-10-06T10:11:55Z</time></trkpt>
<trkpt lat="23.116882" lon="113.388017">
<time>2016-10-06T10:11:56Z</time></trkpt>
<trkpt lat="23.116952" lon="113.387827">
<time>2016-10-06T10:11:57Z</time></trkpt>
<trkpt lat="23.116952" lon="113.387817">
<time>2016-10-06T10:11:58Z</time></trkpt>
<trkpt lat="23.116952" lon="113.387817">
<time>2016-10-06T10:11:59Z</time></trkpt>
<trkpt lat="23.117152" lon="113.387287">
<time>2016-10-06T10:12:00Z</time></trkpt>
<trkpt lat="23.117882" lon="113.385378">
<time>2016-10-06T10:12:01Z</time></trkpt>
<trkpt lat="23.117892" lon="113.385348">
<time>2016-10-06T10:12:02Z</time></trkpt>
<trkpt lat="23.117963" lon="113.385108">
<time>2016-10-06T10:12:03Z</time></trkpt>
<trkpt lat="23.118043" lon="113.384868">
<time>2016-10-06T10:12:04Z</time></trkpt>
<trkpt lat="23.118123" lon="113.384608">
<time>2016-10-06T10:12:05Z</time></trkpt>
<trkpt lat="23.118163" lon="113.384498">
<time>2016-10-06T10:12:06Z</time></trkpt>
<trkpt lat="23.118193" lon="113.384398">
<time>2016-10-06T10:12:07Z</time></trkpt>
<trkpt lat="23.118253" lon="113.384248">
<time>2016-10-06T10:12:08Z</time></trkpt>
<trkpt lat="23.118393" lon="113.383869">
<time>2016-10-06T10:12:09Z</time></trkpt>
<trkpt lat="23.118473" lon="113.383659">
<time>2016-10-06T10:12:10Z</time></trkpt>
<trkpt lat="23.118533" lon="113.383489">
<time>2016-10-06T10:12:11Z</time></trkpt>
<trkpt lat="23.118553" lon="113.383429">
<time>2016-10-06T10:12:12Z</time></trkpt>
<trkpt lat="23.118743" lon="113.382919">
<time>2016-10-06T10:12:13Z</time></trkpt>
<trkpt lat="23.118904" lon="113.382509">
<time>2016-10-06T10:12:14Z</time></trkpt>
<trkpt lat="23.119074" lon="113.382069">
<time>2016-10-06T10:12:15Z</time></trkpt>
<trkpt lat="23.119134" lon="113.38189">
<time>2016-10-06T10:12:16Z</time></trkpt>
<trkpt lat="23.119444" lon="113.38106">
<time>2016-10-06T10:12:17Z</time></trkpt>
<trkpt lat="23.119454" lon="113.38105">
<time>2016-10-06T10:12:18Z</time></trkpt>
<trkpt lat="23.119494" lon="113.38092">
<time>2016-10-06T10:12:19Z</time></trkpt>
<trkpt lat="23.119605" lon="113.3806">
<time>2016-10-06T10:12:20Z</time></trkpt>
<trkpt lat="23.119675" lon="113.38031">
<time>2016-10-06T10:12:21Z</time></trkpt>
<trkpt lat="23.119935" lon="113.379161">
<time>2016-10-06T10:12:22Z</time></trkpt>
<trkpt lat="23.120026" lon="113.378772">
<time>2016-10-06T10:12:23Z</time></trkpt>
<trkpt lat="23.120266" lon="113.377762">
<time>2016-10-06T10:12:24Z</time></trkpt>
<trkpt lat="23.120377" lon="113.377313">
<time>2016-10-06T10:12:25Z</time></trkpt>
<trkpt lat="23.120587" lon="113.376363">
<time>2016-10-06T10:12:26Z</time></trkpt>
<trkpt lat="23.120708" lon="113.375864">
<time>2016-10-06T10:12:27Z</time></trkpt>
<trkpt lat="23.120808" lon="113.375444">
<time>2016-10-06T10:12:28Z</time></trkpt>
<trkpt lat="23.120938" lon="113.374994">
<time>2016-10-06T10:12:29Z</time></trkpt>
<trkpt lat="23.120979" lon="113.374815">
<time>2016-10-06T10:12:30Z</time></trkpt>
<trkpt lat="23.121009" lon="113.374685">
<time>2016-10-06T10:12:31Z</time></trkpt>
<trkpt lat="23.121019" lon="113.374625">
<time>2016-10-06T10:12:32Z</time></trkpt>
<trkpt lat="23.121079" lon="113.374385">
<time>2016-10-06T10:12:33Z</time></trkpt>
<trkpt lat="23.121189" lon="113.373925">
<time>2016-10-06T10:12:34Z</time></trkpt>
<trkpt lat="23.12133" lon="113.373266">
<time>2016-10-06T10:12:35Z</time></trkpt>
<trkpt lat="23.12141" lon="113.372916">
<time>2016-10-06T10:12:36Z</time></trkpt>
<trkpt lat="23.12147" lon="113.372677">
<time>2016-10-06T10:12:37Z</time></trkpt>
<trkpt lat="23.121621" lon="113.372057">
<time>2016-10-06T10:12:38Z</time></trkpt>
<trkpt lat="23.121751" lon="113.371578">
<time>2016-10-06T10:12:39Z</time></trkpt>
<trkpt lat="23.121932" lon="113.370748">
<time>2016-10-06T10:12:40Z</time></trkpt>
<trkpt lat="23.122053" lon="113.370239">
<time>2016-10-06T10:12:41Z</time></trkpt>
<trkpt lat="23.122233" lon="113.36945">
<time>2016-10-06T10:12:42Z</time></trkpt>
<trkpt lat="23.122243" lon="113.36938">
<time>2016-10-06T10:12:43Z</time></trkpt>
<trkpt lat="23.122263" lon="113.36932">
<time>2016-10-06T10:12:44Z</time></trkpt>
<trkpt lat="23.122274" lon="113.36924">
<time>2016-10-06T10:12:45Z</time></trkpt>
<trkpt lat="23.122314" lon="113.36908">
<time>2016-10-06T10:12:46Z</time></trkpt>
<trkpt lat="23.122504" lon="113.368331">
<time>2016-10-06T10:12:47Z</time></trkpt>
<trkpt lat="23.122575" lon="113.368021">
<time>2016-10-06T10:12:48Z</time></trkpt>
<trkpt lat="23.122796" lon="113.367092">
<time>2016-10-06T10:12:49Z</time></trkpt>
<trkpt lat="23.122826" lon="113.366943">
<time>2016-10-06T10:12:50Z</time></trkpt>
<trkpt lat="23.122966" lon="113.366403">
<time>2016-10-06T10:12:51Z</time></trkpt>
<trkpt lat="23.123007" lon="113.366194">
<time>2016-10-06T10:12:52Z</time></trkpt>
<trkpt lat="23.123137" lon="113.365684">
<time>2016-10-06T10:12:53Z</time></trkpt>
<trkpt lat="23.123228" lon="113.365285">
<time>2016-10-06T10:12:54Z</time></trkpt>
<trkpt lat="23.123238" lon="113.365235">
<time>2016-10-06T10:12:55Z</time></trkpt>
<trkpt lat="23.123358" lon="113.364765">
<time>2016-10-06T10:12:56Z</time></trkpt>
<trkpt lat="23.123378" lon="113.364705">
<time>2016-10-06T10:12:57Z</time></trkpt>
<trkpt lat="23.123579" lon="113.363936">
<time>2016-10-06T10:12:58Z</time></trkpt>
<trkpt lat="23.123599" lon="113.363866">
<time>2016-10-06T10:12:59Z</time></trkpt>
<trkpt lat="23.12386" lon="113.362868">
<time>2016-10-06T10:13:00Z</time></trkpt>
<trkpt lat="23.123971" lon="113.362438">
<time>2016-10-06T10:13:01Z</time></trkpt>
<trkpt lat="23.124081" lon="113.362039">
<time>2016-10-06T10:13:02Z</time></trkpt>
<trkpt lat="23.124112" lon="113.361939">
<time>2016-10-06T10:13:03Z</time></trkpt>
<trkpt lat="23.124312" lon="113.36123">
<time>2016-10-06T10:13:04Z</time></trkpt>
<trkpt lat="23.124483" lon="113.360661">
<time>2016-10-06T10:13:05Z</time></trkpt>
<trkpt lat="23.124794" lon="113.359692">
<time>2016-10-06T10:13:06Z</time></trkpt>
<trkpt lat="23.124865" lon="113.359452">
<time>2016-10-06T10:13:07Z</time></trkpt>
<trkpt lat="23.124925" lon="113.359283">
<time>2016-10-06T10:13:08Z</time></trkpt>
<trkpt lat="23.125025" lon="113.359073">
<time>2016-10-06T10:13:09Z</time></trkpt>
<trkpt lat="23.125136" lon="113.358684">
<time>2016-10-06T10:13:10Z</time></trkpt>
<trkpt lat="23.125266" lon="113.358254">
<time>2016-10-06T10:13:11Z</time></trkpt>
<trkpt lat="23.125467" lon="113.357585">
<time>2016-10-06T10:13:12Z</time></trkpt>
<trkpt lat="23.125588" lon="113.357186">
<time>2016-10-06T10:13:13Z</time></trkpt>
<trkpt lat="23.125688" lon="113.356836">
<time>2016-10-06T10:13:14Z</time></trkpt>
<trkpt lat="23.125728" lon="113.356686">
<time>2016-10-06T10:13:15Z</time></trkpt>
<trkpt lat="23.125748" lon="113.356627">
<time>2016-10-06T10:13:16Z</time></trkpt>
<trkpt lat="23.125748" lon="113.356607">
<time>2016-10-06T10:13:17Z</time></trkpt>
<trkpt lat="23.125809" lon="113.356387">
<time>2016-10-06T10:13:18Z</time></trkpt>
<trkpt lat="23.125879" lon="113.356087">
<time>2016-10-06T10:13:19Z</time></trkpt>
<trkpt lat="23.12596" lon="113.355738">
<time>2016-10-06T10:13:20Z</time></trkpt>
<trkpt lat="23.12603" lon="113.355388">
<time>2016-10-06T10:13:21Z</time></trkpt>
<trkpt lat="23.126101" lon="113.355039">
<time>2016-10-06T10:13:22Z</time></trkpt>
<trkpt lat="23.126211" lon="113.35449">
<time>2016-10-06T10:13:23Z</time></trkpt>
<trkpt lat="23.126292" lon="113.354011">
<time>2016-10-06T10:13:24Z</time></trkpt>
<trkpt lat="23.126322" lon="113.353811">
<time>2016-10-06T10:13:25Z</time></trkpt>
<trkpt lat="23.126332" lon="113.353711">
<time>2016-10-06T10:13:26Z</time></trkpt>
<trkpt lat="23.126333" lon="113.353601">
<time>2016-10-06T10:13:27Z</time></trkpt>
<trkpt lat="23.126363" lon="113.353412">
<time>2016-10-06T10:13:28Z</time></trkpt>
<trkpt lat="23.126454" lon="113.352962">
<time>2016-10-06T10:13:29Z</time></trkpt>
<trkpt lat="23.126564" lon="113.352343">
<time>2016-10-06T10:13:30Z</time></trkpt>
<trkpt lat="23.126675" lon="113.351794">
<time>2016-10-06T10:13:31Z</time></trkpt>
<trkpt lat="23.126776" lon="113.351175">
<time>2016-10-06T10:13:32Z</time></trkpt>
<trkpt lat="23.126786" lon="113.351125">
<time>2016-10-06T10:13:33Z</time></trkpt>
<trkpt lat="23.126958" lon="113.350277">
<time>2016-10-06T10:13:34Z</time></trkpt>
<trkpt lat="23.127038" lon="113.349798">
<time>2016-10-06T10:13:35Z</time></trkpt>
<trkpt lat="23.12728" lon="113.34845">
<time>2016-10-06T10:13:36Z</time></trkpt>
<trkpt lat="23.127321" lon="113.34828">
<time>2016-10-06T10:13:37Z</time></trkpt>
<trkpt lat="23.127371" lon="113.347961">
<time>2016-10-06T10:13:38Z</time></trkpt>
<trkpt lat="23.127422" lon="113.347731">
<time>2016-10-06T10:13:39Z</time></trkpt>
<trkpt lat="23.127452" lon="113.347521">
<time>2016-10-06T10:13:40Z</time></trkpt>
<trkpt lat="23.127472" lon="113.347412">
<time>2016-10-06T10:13:41Z</time></trkpt>
<trkpt lat="23.127502" lon="113.347242">
<time>2016-10-06T10:13:42Z</time></trkpt>
<trkpt lat="23.127512" lon="113.347192">
<time>2016-10-06T10:13:43Z</time></trkpt>
<trkpt lat="23.127553" lon="113.346913">
<time>2016-10-06T10:13:44Z</time></trkpt>
<trkpt lat="23.127553" lon="113.346913">
<time>2016-10-06T10:13:45Z</time></trkpt>
<trkpt lat="23.127613" lon="113.346553">
<time>2016-10-06T10:13:46Z</time></trkpt>
<trkpt lat="23.127644" lon="113.346383">
<time>2016-10-06T10:13:47Z</time></trkpt>
<trkpt lat="23.127674" lon="113.346204">
<time>2016-10-06T10:13:48Z</time></trkpt>
<trkpt lat="23.127684" lon="113.346124">
<time>2016-10-06T10:13:49Z</time></trkpt>
<trkpt lat="23.127694" lon="113.346054">
<time>2016-10-06T10:13:50Z</time></trkpt>
<trkpt lat="23.127775" lon="113.345585">
<time>2016-10-06T10:13:51Z</time></trkpt>
<trkpt lat="23.127906" lon="113.344856">
<time>2016-10-06T10:13:52Z</time></trkpt>
<trkpt lat="23.128098" lon="113.343768">
<time>2016-10-06T10:13:53Z</time></trkpt>
<trkpt lat="23.128119" lon="113.343169">
<time>2016-10-06T10:13:54Z</time></trkpt>
<trkpt lat="23.12821" lon="113.34267">
<time>2016-10-06T10:13:55Z</time></trkpt>
<trkpt lat="23.128281" lon="113.342331">
<time>2016-10-06T10:13:56Z</time></trkpt>
<trkpt lat="23.128331" lon="113.342081">
<time>2016-10-06T10:13:57Z</time></trkpt>
<trkpt lat="23.128391" lon="113.341782">
<time>2016-10-06T10:13:58Z</time></trkpt>
<trkpt lat="23.128422" lon="113.341383">
<time>2016-10-06T10:13:59Z</time></trkpt>
<trkpt lat="23.128443" lon="113.341043">
<time>2016-10-06T10:14:00Z</time></trkpt>
<trkpt lat="23.128473" lon="113.340764">
<time>2016-10-06T10:14:01Z</time></trkpt>
<trkpt lat="23.128473" lon="113.340634">
<time>2016-10-06T10:14:02Z</time></trkpt>
<trkpt lat="23.128484" lon="113.340544">
<time>2016-10-06T10:14:03Z</time></trkpt>
<trkpt lat="23.128574" lon="113.340375">
<time>2016-10-06T10:14:04Z</time></trkpt>
<trkpt lat="23.128595" lon="113.339915">
<time>2016-10-06T10:14:05Z</time></trkpt>
<trkpt lat="23.128667" lon="113.338588">
<time>2016-10-06T10:14:06Z</time></trkpt>
<trkpt lat="23.128677" lon="113.338418">
<time>2016-10-06T10:14:07Z</time></trkpt>
<trkpt lat="23.128698" lon="113.338089">
<time>2016-10-06T10:14:08Z</time></trkpt>
<trkpt lat="23.128708" lon="113.338009">
<time>2016-10-06T10:14:09Z</time></trkpt>
<trkpt lat="23.128729" lon="113.33772">
<time>2016-10-06T10:14:10Z</time></trkpt>
<trkpt lat="23.128739" lon="113.33755">
<time>2016-10-06T10:14:11Z</time></trkpt>
<trkpt lat="23.128842" lon="113.336023">
<time>2016-10-06T10:14:12Z</time></trkpt>
<trkpt lat="23.128893" lon="113.335374">
<time>2016-10-06T10:14:13Z</time></trkpt>
<trkpt lat="23.128924" lon="113.334915">
<time>2016-10-06T10:14:14Z</time></trkpt>
<trkpt lat="23.128874" lon="113.334726">
<time>2016-10-06T10:14:15Z</time></trkpt>
<trkpt lat="23.128904" lon="113.334546">
<time>2016-10-06T10:14:16Z</time></trkpt>
<trkpt lat="23.128925" lon="113.334336">
<time>2016-10-06T10:14:17Z</time></trkpt>
<trkpt lat="23.128935" lon="113.334227">
<time>2016-10-06T10:14:18Z</time></trkpt>
<trkpt lat="23.128955" lon="113.333977">
<time>2016-10-06T10:14:19Z</time></trkpt>
<trkpt lat="23.128997" lon="113.333378">
<time>2016-10-06T10:14:20Z</time></trkpt>
<trkpt lat="23.129027" lon="113.332979">
<time>2016-10-06T10:14:21Z</time></trkpt>
<trkpt lat="23.129058" lon="113.33248">
<time>2016-10-06T10:14:22Z</time></trkpt>
<trkpt lat="23.129068" lon="113.33236">
<time>2016-10-06T10:14:23Z</time></trkpt>
<trkpt lat="23.129068" lon="113.33233">
<time>2016-10-06T10:14:24Z</time></trkpt>
<trkpt lat="23.129109" lon="113.331781">
<time>2016-10-06T10:14:25Z</time></trkpt>
<trkpt lat="23.12915" lon="113.331252">
<time>2016-10-06T10:14:26Z</time></trkpt>
<trkpt lat="23.129181" lon="113.330953">
<time>2016-10-06T10:14:27Z</time></trkpt>
<trkpt lat="23.129181" lon="113.330953">
<time>2016-10-06T10:14:28Z</time></trkpt>
<trkpt lat="23.129221" lon="113.330803">
<time>2016-10-06T10:14:29Z</time></trkpt>
<trkpt lat="23.129355" lon="113.328777">
<time>2016-10-06T10:14:30Z</time></trkpt>
<trkpt lat="23.129365" lon="113.328608">
<time>2016-10-06T10:14:31Z</time></trkpt>
<trkpt lat="23.129396" lon="113.328029">
<time>2016-10-06T10:14:32Z</time></trkpt>
<trkpt lat="23.129407" lon="113.327909">
<time>2016-10-06T10:14:33Z</time></trkpt>
<trkpt lat="23.129417" lon="113.3277">
<time>2016-10-06T10:14:34Z</time></trkpt>
<trkpt lat="23.129427" lon="113.32762">
<time>2016-10-06T10:14:35Z</time></trkpt>
<trkpt lat="23.129469" lon="113.326891">
<time>2016-10-06T10:14:36Z</time></trkpt>
<trkpt lat="23.129654" lon="113.324077">
<time>2016-10-06T10:14:37Z</time></trkpt>
<trkpt lat="23.129736" lon="113.32282">
<time>2016-10-06T10:14:38Z</time></trkpt>
<trkpt lat="23.129746" lon="113.32271">
<time>2016-10-06T10:14:39Z</time></trkpt>
<trkpt lat="23.129747" lon="113.32257">
<time>2016-10-06T10:14:40Z</time></trkpt>
<trkpt lat="23.129788" lon="113.322111">
<time>2016-10-06T10:14:41Z</time></trkpt>
<trkpt lat="23.129808" lon="113.321742">
<time>2016-10-06T10:14:42Z</time></trkpt>
<trkpt lat="23.129984" lon="113.318548">
<time>2016-10-06T10:14:43Z</time></trkpt>
<trkpt lat="23.130015" lon="113.318069">
<time>2016-10-06T10:14:44Z</time></trkpt>
<trkpt lat="23.130046" lon="113.317451">
<time>2016-10-06T10:14:45Z</time></trkpt>
<trkpt lat="23.130088" lon="113.316712">
<time>2016-10-06T10:14:46Z</time></trkpt>
<trkpt lat="23.130119" lon="113.316323">
<time>2016-10-06T10:14:47Z</time></trkpt>
<trkpt lat="23.130119" lon="113.316323">
<time>2016-10-06T10:14:48Z</time></trkpt>
<trkpt lat="23.130099" lon="113.316263">
<time>2016-10-06T10:14:49Z</time></trkpt>
<trkpt lat="23.130079" lon="113.316193">
<time>2016-10-06T10:14:50Z</time></trkpt>
<trkpt lat="23.130069" lon="113.316084">
<time>2016-10-06T10:14:51Z</time></trkpt>
<trkpt lat="23.130069" lon="113.315984">
<time>2016-10-06T10:14:52Z</time></trkpt>
<trkpt lat="23.130059" lon="113.315854">
<time>2016-10-06T10:14:53Z</time></trkpt>
<trkpt lat="23.13007" lon="113.315595">
<time>2016-10-06T10:14:54Z</time></trkpt>
<trkpt lat="23.130101" lon="113.314946">
<time>2016-10-06T10:14:55Z</time></trkpt>
<trkpt lat="23.130142" lon="113.314387">
<time>2016-10-06T10:14:56Z</time></trkpt>
<trkpt lat="23.130143" lon="113.314197">
<time>2016-10-06T10:14:57Z</time></trkpt>
<trkpt lat="23.130163" lon="113.314028">
<time>2016-10-06T10:14:58Z</time></trkpt>
<trkpt lat="23.130183" lon="113.313828">
<time>2016-10-06T10:14:59Z</time></trkpt>
<trkpt lat="23.130234" lon="113.313599">
<time>2016-10-06T10:15:00Z</time></trkpt>
<trkpt lat="23.130284" lon="113.313459">
<time>2016-10-06T10:15:01Z</time></trkpt>
<trkpt lat="23.130344" lon="113.313289">
<time>2016-10-06T10:15:02Z</time></trkpt>
<trkpt lat="23.130384" lon="113.313219">
<time>2016-10-06T10:15:03Z</time></trkpt>
<trkpt lat="23.130384" lon="113.313219">
<time>2016-10-06T10:15:04Z</time></trkpt>
<trkpt lat="23.130504" lon="113.3131">
<time>2016-10-06T10:15:05Z</time></trkpt>
<trkpt lat="23.130575" lon="113.313">
<time>2016-10-06T10:15:06Z</time></trkpt>
<trkpt lat="23.130685" lon="113.31284">
<time>2016-10-06T10:15:07Z</time></trkpt>
<trkpt lat="23.130705" lon="113.3128">
<time>2016-10-06T10:15:08Z</time></trkpt>
<trkpt lat="23.130865" lon="113.312481">
<time>2016-10-06T10:15:09Z</time></trkpt>
<trkpt lat="23.130906" lon="113.312391">
<time>2016-10-06T10:15:10Z</time></trkpt>
<trkpt lat="23.131327" lon="113.311433">
<time>2016-10-06T10:15:11Z</time></trkpt>
<trkpt lat="23.131478" lon="113.311104">
<time>2016-10-06T10:15:12Z</time></trkpt>
<trkpt lat="23.131488" lon="113.311094">
<time>2016-10-06T10:15:13Z</time></trkpt>
<trkpt lat="23.131689" lon="113.310645">
<time>2016-10-06T10:15:14Z</time></trkpt>
<trkpt lat="23.131819" lon="113.310385">
<time>2016-10-06T10:15:15Z</time></trkpt>
<trkpt lat="23.131919" lon="113.310165">
<time>2016-10-06T10:15:16Z</time></trkpt>
<trkpt lat="23.131919" lon="113.310165">
<time>2016-10-06T10:15:17Z</time></trkpt>
<trkpt lat="23.131899" lon="113.310155">
<time>2016-10-06T10:15:18Z</time></trkpt>
<trkpt lat="23.131889" lon="113.310145">
<time>2016-10-06T10:15:19Z</time></trkpt>
<trkpt lat="23.131889" lon="113.310136">
<time>2016-10-06T10:15:20Z</time></trkpt>
<trkpt lat="23.131879" lon="113.310126">
<time>2016-10-06T10:15:21Z</time></trkpt>
<trkpt lat="23.131869" lon="113.310106">
<time>2016-10-06T10:15:22Z</time></trkpt>
<trkpt lat="23.13187" lon="113.310086">
<time>2016-10-06T10:15:23Z</time></trkpt>
<trkpt lat="23.13186" lon="113.310086">
<time>2016-10-06T10:15:24Z</time></trkpt>
<trkpt lat="23.13186" lon="113.310056">
<time>2016-10-06T10:15:25Z</time></trkpt>
<trkpt lat="23.13186" lon="113.310026">
<time>2016-10-06T10:15:26Z</time></trkpt>
<trkpt lat="23.13186" lon="113.309996">
<time>2016-10-06T10:15:27Z</time></trkpt>
<trkpt lat="23.13186" lon="113.309986">
<time>2016-10-06T10:15:28Z</time></trkpt>
<trkpt lat="23.13186" lon="113.309936">
<time>2016-10-06T10:15:29Z</time></trkpt>
<trkpt lat="23.13187" lon="113.309906">
<time>2016-10-06T10:15:30Z</time></trkpt>
<trkpt lat="23.13187" lon="113.309896">
<time>2016-10-06T10:15:31Z</time></trkpt>
<trkpt lat="23.13188" lon="113.309866">
<time>2016-10-06T10:15:32Z</time></trkpt>
<trkpt lat="23.13189" lon="113.309816">
<time>2016-10-06T10:15:33Z</time></trkpt>
<trkpt lat="23.1319" lon="113.309796">
<time>2016-10-06T10:15:34Z</time></trkpt>
<trkpt lat="23.13191" lon="113.309776">
<time>2016-10-06T10:15:35Z</time></trkpt>
<trkpt lat="23.13192" lon="113.309756">
<time>2016-10-06T10:15:36Z</time></trkpt>
<trkpt lat="23.13192" lon="113.309746">
<time>2016-10-06T10:15:37Z</time></trkpt>
<trkpt lat="23.13196" lon="113.309706">
<time>2016-10-06T10:15:38Z</time></trkpt>
<trkpt lat="23.132011" lon="113.309437">
<time>2016-10-06T10:15:39Z</time></trkpt>
<trkpt lat="23.132051" lon="113.309247">
<time>2016-10-06T10:15:40Z</time></trkpt>
<trkpt lat="23.132081" lon="113.309038">
<time>2016-10-06T10:15:41Z</time></trkpt>
<trkpt lat="23.132092" lon="113.308908">
<time>2016-10-06T10:15:42Z</time></trkpt>
<trkpt lat="23.132092" lon="113.308818">
<time>2016-10-06T10:15:43Z</time></trkpt>
<trkpt lat="23.132072" lon="113.308648">
<time>2016-10-06T10:15:44Z</time></trkpt>
<trkpt lat="23.132062" lon="113.308449">
<time>2016-10-06T10:15:45Z</time></trkpt>
<trkpt lat="23.132043" lon="113.308299">
<time>2016-10-06T10:15:46Z</time></trkpt>
<trkpt lat="23.131984" lon="113.30787">
<time>2016-10-06T10:15:47Z</time></trkpt>
<trkpt lat="23.131974" lon="113.30784">
<time>2016-10-06T10:15:48Z</time></trkpt>
<trkpt lat="23.131954" lon="113.30772">
<time>2016-10-06T10:15:49Z</time></trkpt>
<trkpt lat="23.131865" lon="113.307181">
<time>2016-10-06T10:15:50Z</time></trkpt>
<trkpt lat="23.131707" lon="113.306163">
<time>2016-10-06T10:15:51Z</time></trkpt>
<trkpt lat="23.131657" lon="113.305884">
<time>2016-10-06T10:15:52Z</time></trkpt>
<trkpt lat="23.131548" lon="113.305525">
<time>2016-10-06T10:15:53Z</time></trkpt>
<trkpt lat="23.131508" lon="113.305385">
<time>2016-10-06T10:15:54Z</time></trkpt>
<trkpt lat="23.131449" lon="113.305195">
<time>2016-10-06T10:15:55Z</time></trkpt>
<trkpt lat="23.131389" lon="113.304946">
<time>2016-10-06T10:15:56Z</time></trkpt>
<trkpt lat="23.131061" lon="113.304187">
<time>2016-10-06T10:15:57Z</time></trkpt>
<trkpt lat="23.130772" lon="113.303519">
<time>2016-10-06T10:15:58Z</time></trkpt>
<trkpt lat="23.130652" lon="113.303209">
<time>2016-10-06T10:15:59Z</time></trkpt>
<trkpt lat="23.130423" lon="113.30268">
<time>2016-10-06T10:16:00Z</time></trkpt>
<trkpt lat="23.130264" lon="113.302451">
<time>2016-10-06T10:16:01Z</time></trkpt>
<trkpt lat="23.130015" lon="113.301952">
<time>2016-10-06T10:16:02Z</time></trkpt>
<trkpt lat="23.129985" lon="113.301892">
<time>2016-10-06T10:16:03Z</time></trkpt>
<trkpt lat="23.129696" lon="113.301333">
<time>2016-10-06T10:16:04Z</time></trkpt>
<trkpt lat="23.129557" lon="113.301113">
<time>2016-10-06T10:16:05Z</time></trkpt>
<trkpt lat="23.129387" lon="113.300834">
<time>2016-10-06T10:16:06Z</time></trkpt>
<trkpt lat="23.129357" lon="113.300764">
<time>2016-10-06T10:16:07Z</time></trkpt>
<trkpt lat="23.129059" lon="113.300075">
<time>2016-10-06T10:16:08Z</time></trkpt>
<trkpt lat="23.12872" lon="113.299217">
<time>2016-10-06T10:16:09Z</time></trkpt>
<trkpt lat="23.128701" lon="113.299017">
<time>2016-10-06T10:16:10Z</time></trkpt>
<trkpt lat="23.128591" lon="113.298708">
<time>2016-10-06T10:16:11Z</time></trkpt>
<trkpt lat="23.128531" lon="113.298528">
<time>2016-10-06T10:16:12Z</time></trkpt>
<trkpt lat="23.128492" lon="113.298379">
<time>2016-10-06T10:16:13Z</time></trkpt>
<trkpt lat="23.128442" lon="113.298199">
<time>2016-10-06T10:16:14Z</time></trkpt>
<trkpt lat="23.128382" lon="113.297989">
<time>2016-10-06T10:16:15Z</time></trkpt>
<trkpt lat="23.128333" lon="113.29774">
<time>2016-10-06T10:16:16Z</time></trkpt>
<trkpt lat="23.128303" lon="113.29763">
<time>2016-10-06T10:16:17Z</time></trkpt>
<trkpt lat="23.128303" lon="113.29763">
<time>2016-10-06T10:16:18Z</time></trkpt>
<trkpt lat="23.128174" lon="113.297121">
<time>2016-10-06T10:16:19Z</time></trkpt>
<trkpt lat="23.128114" lon="113.296861">
<time>2016-10-06T10:16:20Z</time></trkpt>
<trkpt lat="23.128025" lon="113.296462">
<time>2016-10-06T10:16:21Z</time></trkpt>
<trkpt lat="23.127985" lon="113.296272">
<time>2016-10-06T10:16:22Z</time></trkpt>
<trkpt lat="23.127946" lon="113.296133">
<time>2016-10-06T10:16:23Z</time></trkpt>
<trkpt lat="23.127856" lon="113.295733">
<time>2016-10-06T10:16:24Z</time></trkpt>
<trkpt lat="23.127807" lon="113.295494">
<time>2016-10-06T10:16:25Z</time></trkpt>
<trkpt lat="23.127717" lon="113.295115">
<time>2016-10-06T10:16:26Z</time></trkpt>
<trkpt lat="23.127618" lon="113.294645">
<time>2016-10-06T10:16:27Z</time></trkpt>
<trkpt lat="23.127539" lon="113.294276">
<time>2016-10-06T10:16:28Z</time></trkpt>
<trkpt lat="23.12737" lon="113.293537">
<time>2016-10-06T10:16:29Z</time></trkpt>
<trkpt lat="23.126715" lon="113.290712">
<time>2016-10-06T10:16:30Z</time></trkpt>
<trkpt lat="23.126596" lon="113.290163">
<time>2016-10-06T10:16:31Z</time></trkpt>
<trkpt lat="23.126596" lon="113.290163">
<time>2016-10-06T10:16:32Z</time></trkpt>
<trkpt lat="23.126766" lon="113.289584">
<time>2016-10-06T10:16:33Z</time></trkpt>
<trkpt lat="23.126767" lon="113.289534">
<time>2016-10-06T10:16:34Z</time></trkpt>
<trkpt lat="23.126807" lon="113.289295">
<time>2016-10-06T10:16:35Z</time></trkpt>
<trkpt lat="23.126857" lon="113.288995">
<time>2016-10-06T10:16:36Z</time></trkpt>
<trkpt lat="23.126887" lon="113.288835">
<time>2016-10-06T10:16:37Z</time></trkpt>
<trkpt lat="23.126918" lon="113.288666">
<time>2016-10-06T10:16:38Z</time></trkpt>
<trkpt lat="23.126928" lon="113.288606">
<time>2016-10-06T10:16:39Z</time></trkpt>
<trkpt lat="23.126948" lon="113.288446">
<time>2016-10-06T10:16:40Z</time></trkpt>
<trkpt lat="23.127018" lon="113.288146">
<time>2016-10-06T10:16:41Z</time></trkpt>
<trkpt lat="23.127059" lon="113.287917">
<time>2016-10-06T10:16:42Z</time></trkpt>
<trkpt lat="23.127069" lon="113.287887">
<time>2016-10-06T10:16:43Z</time></trkpt>
<trkpt lat="23.127199" lon="113.287388">
<time>2016-10-06T10:16:44Z</time></trkpt>
<trkpt lat="23.12732" lon="113.286869">
<time>2016-10-06T10:16:45Z</time></trkpt>
<trkpt lat="23.12732" lon="113.286849">
<time>2016-10-06T10:16:46Z</time></trkpt>
<trkpt lat="23.127401" lon="113.286549">
<time>2016-10-06T10:16:47Z</time></trkpt>
<trkpt lat="23.127602" lon="113.28571">
<time>2016-10-06T10:16:48Z</time></trkpt>
<trkpt lat="23.127622" lon="113.28565">
<time>2016-10-06T10:16:49Z</time></trkpt>
<trkpt lat="23.127642" lon="113.285571">
<time>2016-10-06T10:16:50Z</time></trkpt>
<trkpt lat="23.127722" lon="113.285311">
<time>2016-10-06T10:16:51Z</time></trkpt>
<trkpt lat="23.127803" lon="113.285031">
<time>2016-10-06T10:16:52Z</time></trkpt>
<trkpt lat="23.127813" lon="113.284991">
<time>2016-10-06T10:16:53Z</time></trkpt>
<trkpt lat="23.127863" lon="113.284832">
<time>2016-10-06T10:16:54Z</time></trkpt>
<trkpt lat="23.127933" lon="113.284572">
<time>2016-10-06T10:16:55Z</time></trkpt>
<trkpt lat="23.127963" lon="113.284432">
<time>2016-10-06T10:16:56Z</time></trkpt>
<trkpt lat="23.128004" lon="113.284273">
<time>2016-10-06T10:16:57Z</time></trkpt>
<trkpt lat="23.128054" lon="113.284143">
<time>2016-10-06T10:16:58Z</time></trkpt>
<trkpt lat="23.128134" lon="113.283933">
<time>2016-10-06T10:16:59Z</time></trkpt>
<trkpt lat="23.128315" lon="113.283454">
<time>2016-10-06T10:17:00Z</time></trkpt>
<trkpt lat="23.128525" lon="113.282905">
<time>2016-10-06T10:17:01Z</time></trkpt>
<trkpt lat="23.128525" lon="113.282895">
<time>2016-10-06T10:17:02Z</time></trkpt>
<trkpt lat="23.128646" lon="113.282605">
<time>2016-10-06T10:17:03Z</time></trkpt>
<trkpt lat="23.128716" lon="113.282425">
<time>2016-10-06T10:17:04Z</time></trkpt>
<trkpt lat="23.128866" lon="113.282026">
<time>2016-10-06T10:17:05Z</time></trkpt>
<trkpt lat="23.128997" lon="113.281706">
<time>2016-10-06T10:17:06Z</time></trkpt>
<trkpt lat="23.129017" lon="113.281646">
<time>2016-10-06T10:17:07Z</time></trkpt>
<trkpt lat="23.129067" lon="113.281497">
<time>2016-10-06T10:17:08Z</time></trkpt>
<trkpt lat="23.129087" lon="113.281437">
<time>2016-10-06T10:17:09Z</time></trkpt>
<trkpt lat="23.129087" lon="113.281437">
<time>2016-10-06T10:17:10Z</time></trkpt>
<trkpt lat="23.129147" lon="113.281267">
<time>2016-10-06T10:17:11Z</time></trkpt>
<trkpt lat="23.129167" lon="113.281207">
<time>2016-10-06T10:17:12Z</time></trkpt>
<trkpt lat="23.129177" lon="113.281167">
<time>2016-10-06T10:17:13Z</time></trkpt>
<trkpt lat="23.129227" lon="113.280967">
<time>2016-10-06T10:17:14Z</time></trkpt>
<trkpt lat="23.129288" lon="113.280748">
<time>2016-10-06T10:17:15Z</time></trkpt>
<trkpt lat="23.129368" lon="113.280428">
<time>2016-10-06T10:17:16Z</time></trkpt>
<trkpt lat="23.129448" lon="113.280138">
<time>2016-10-06T10:17:17Z</time></trkpt>
<trkpt lat="23.129499" lon="113.279919">
<time>2016-10-06T10:17:18Z</time></trkpt>
<trkpt lat="23.129509" lon="113.279879">
<time>2016-10-06T10:17:19Z</time></trkpt>
<trkpt lat="23.129549" lon="113.279739">
<time>2016-10-06T10:17:20Z</time></trkpt>
<trkpt lat="23.129599" lon="113.279539">
<time>2016-10-06T10:17:21Z</time></trkpt>
<trkpt lat="23.129659" lon="113.2793">
<time>2016-10-06T10:17:22Z</time></trkpt>
<trkpt lat="23.129689" lon="113.2792">
<time>2016-10-06T10:17:23Z</time></trkpt>
<trkpt lat="23.12969" lon="113.27912">
<time>2016-10-06T10:17:24Z</time></trkpt>
<trkpt lat="23.1297" lon="113.27902">
<time>2016-10-06T10:17:25Z</time></trkpt>
<trkpt lat="23.12971" lon="113.27896">
<time>2016-10-06T10:17:26Z</time></trkpt>
<trkpt lat="23.12972" lon="113.27885">
<time>2016-10-06T10:17:27Z</time></trkpt>
<trkpt lat="23.12972" lon="113.27878">
<time>2016-10-06T10:17:28Z</time></trkpt>
<trkpt lat="23.12971" lon="113.27867">
<time>2016-10-06T10:17:29Z</time></trkpt>
<trkpt lat="23.12971" lon="113.278481">
<time>2016-10-06T10:17:30Z</time></trkpt>
<trkpt lat="23.129721" lon="113.278281">
<time>2016-10-06T10:17:31Z</time></trkpt>
<trkpt lat="23.129711" lon="113.277961">
<time>2016-10-06T10:17:32Z</time></trkpt>
<trkpt lat="23.129711" lon="113.277901">
<time>2016-10-06T10:17:33Z</time></trkpt>
<trkpt lat="23.129712" lon="113.277172">
<time>2016-10-06T10:17:34Z</time></trkpt>
<trkpt lat="23.129712" lon="113.277113">
<time>2016-10-06T10:17:35Z</time></trkpt>
<trkpt lat="23.129722" lon="113.277043">
<time>2016-10-06T10:17:36Z</time></trkpt>
<trkpt lat="23.129722" lon="113.276623">
<time>2016-10-06T10:17:37Z</time></trkpt>
<trkpt lat="23.129723" lon="113.276234">
<time>2016-10-06T10:17:38Z</time></trkpt>
<trkpt lat="23.129733" lon="113.276164">
<time>2016-10-06T10:17:39Z</time></trkpt>
<trkpt lat="23.129764" lon="113.275594">
<time>2016-10-06T10:17:40Z</time></trkpt>
<trkpt lat="23.129764" lon="113.275425">
<time>2016-10-06T10:17:41Z</time></trkpt>
<trkpt lat="23.129764" lon="113.275275">
<time>2016-10-06T10:17:42Z</time></trkpt>
<trkpt lat="23.129774" lon="113.275085">
<time>2016-10-06T10:17:43Z</time></trkpt>
<trkpt lat="23.129764" lon="113.274945">
<time>2016-10-06T10:17:44Z</time></trkpt>
<trkpt lat="23.129764" lon="113.274875">
<time>2016-10-06T10:17:45Z</time></trkpt>
<trkpt lat="23.129755" lon="113.274785">
<time>2016-10-06T10:17:46Z</time></trkpt>
<trkpt lat="23.129755" lon="113.274686">
<time>2016-10-06T10:17:47Z</time></trkpt>
<trkpt lat="23.129745" lon="113.274506">
<time>2016-10-06T10:17:48Z</time></trkpt>
<trkpt lat="23.129735" lon="113.274276">
<time>2016-10-06T10:17:49Z</time></trkpt>
<trkpt lat="23.129735" lon="113.274256">
<time>2016-10-06T10:17:50Z</time></trkpt>
<trkpt lat="23.129725" lon="113.274236">
<time>2016-10-06T10:17:51Z</time></trkpt>
<trkpt lat="23.129725" lon="113.274086">
<time>2016-10-06T10:17:52Z</time></trkpt>
<trkpt lat="23.129696" lon="113.273857">
<time>2016-10-06T10:17:53Z</time></trkpt>
<trkpt lat="23.129666" lon="113.273417">
<time>2016-10-06T10:17:54Z</time></trkpt>
<trkpt lat="23.129666" lon="113.273417">
<time>2016-10-06T10:17:55Z</time></trkpt>
<trkpt lat="23.129656" lon="113.273347">
<time>2016-10-06T10:17:56Z</time></trkpt>
<trkpt lat="23.129567" lon="113.272618">
<time>2016-10-06T10:17:57Z</time></trkpt>
<trkpt lat="23.129448" lon="113.271639">
<time>2016-10-06T10:17:58Z</time></trkpt>
<trkpt lat="23.129428" lon="113.271539">
<time>2016-10-06T10:17:59Z</time></trkpt>
<trkpt lat="23.129418" lon="113.271439">
<time>2016-10-06T10:18:00Z</time></trkpt>
<trkpt lat="23.129398" lon="113.27115">
<time>2016-10-06T10:18:01Z</time></trkpt>
<trkpt lat="23.129369" lon="113.27076">
<time>2016-10-06T10:18:02Z</time></trkpt>
<trkpt lat="23.129349" lon="113.27051">
<time>2016-10-06T10:18:03Z</time></trkpt>
<trkpt lat="23.12931" lon="113.269971">
<time>2016-10-06T10:18:04Z</time></trkpt>
<trkpt lat="23.1293" lon="113.269691">
<time>2016-10-06T10:18:05Z</time></trkpt>
<trkpt lat="23.12928" lon="113.269352">
<time>2016-10-06T10:18:06Z</time></trkpt>
<trkpt lat="23.12927" lon="113.269142">
<time>2016-10-06T10:18:07Z</time></trkpt>
<trkpt lat="23.129251" lon="113.268902">
<time>2016-10-06T10:18:08Z</time></trkpt>
<trkpt lat="23.129211" lon="113.268662">
<time>2016-10-06T10:18:09Z</time></trkpt>
<trkpt lat="23.129201" lon="113.268583">
<time>2016-10-06T10:18:10Z</time></trkpt>
<trkpt lat="23.129111" lon="113.268193">
<time>2016-10-06T10:18:11Z</time></trkpt>
<trkpt lat="23.129042" lon="113.267923">
<time>2016-10-06T10:18:12Z</time></trkpt>
<trkpt lat="23.129012" lon="113.267813">
<time>2016-10-06T10:18:13Z</time></trkpt>
<trkpt lat="23.128982" lon="113.267703">
<time>2016-10-06T10:18:14Z</time></trkpt>
<trkpt lat="23.128942" lon="113.267574">
<time>2016-10-06T10:18:15Z</time></trkpt>
<trkpt lat="23.128902" lon="113.267484">
<time>2016-10-06T10:18:16Z</time></trkpt>
<trkpt lat="23.128673" lon="113.266904">
<time>2016-10-06T10:18:17Z</time></trkpt>
<trkpt lat="23.128663" lon="113.266864">
<time>2016-10-06T10:18:18Z</time></trkpt>
<trkpt lat="23.128623" lon="113.266784">
<time>2016-10-06T10:18:19Z</time></trkpt>
<trkpt lat="23.128583" lon="113.266644">
<time>2016-10-06T10:18:20Z</time></trkpt>
<trkpt lat="23.128553" lon="113.266545">
<time>2016-10-06T10:18:21Z</time></trkpt>
<trkpt lat="23.128523" lon="113.266435">
<time>2016-10-06T10:18:22Z</time></trkpt>
<trkpt lat="23.128493" lon="113.266335">
<time>2016-10-06T10:18:23Z</time></trkpt>
<trkpt lat="23.128493" lon="113.266325">
<time>2016-10-06T10:18:24Z</time></trkpt>
<trkpt lat="23.128473" lon="113.266195">
<time>2016-10-06T10:18:25Z</time></trkpt>
<trkpt lat="23.128443" lon="113.265955">
<time>2016-10-06T10:18:26Z</time></trkpt>
<trkpt lat="23.128434" lon="113.265715">
<time>2016-10-06T10:18:27Z</time></trkpt>
<trkpt lat="23.128424" lon="113.265655">
<time>2016-10-06T10:18:28Z</time></trkpt>
<trkpt lat="23.128404" lon="113.265376">
<time>2016-10-06T10:18:29Z</time></trkpt>
<trkpt lat="23.128394" lon="113.264836">
<time>2016-10-06T10:18:30Z</time></trkpt>
<trkpt lat="23.128375" lon="113.264347">
<time>2016-10-06T10:18:31Z</time></trkpt>
<trkpt lat="23.128365" lon="113.264097">
<time>2016-10-06T10:18:32Z</time></trkpt>
<trkpt lat="23.128355" lon="113.263757">
<time>2016-10-06T10:18:33Z</time></trkpt>
<trkpt lat="23.128365" lon="113.263537">
<time>2016-10-06T10:18:34Z</time></trkpt>
<trkpt lat="23.128365" lon="113.263537">
<time>2016-10-06T10:18:35Z</time></trkpt>
<trkpt lat="23.128365" lon="113.263447">
<time>2016-10-06T10:18:36Z</time></trkpt>
<trkpt lat="23.128356" lon="113.263108">
<time>2016-10-06T10:18:37Z</time></trkpt>
<trkpt lat="23.128346" lon="113.262868">
<time>2016-10-06T10:18:38Z</time></trkpt>
<trkpt lat="23.128346" lon="113.262768">
<time>2016-10-06T10:18:39Z</time></trkpt>
<trkpt lat="23.128326" lon="113.262228">
<time>2016-10-06T10:18:40Z</time></trkpt>
<trkpt lat="23.128287" lon="113.261529">
<time>2016-10-06T10:18:41Z</time></trkpt>
<trkpt lat="23.128218" lon="113.26012">
<time>2016-10-06T10:18:42Z</time></trkpt>
<trkpt lat="23.128208" lon="113.26009">
<time>2016-10-06T10:18:43Z</time></trkpt>
<trkpt lat="23.128208" lon="113.26005">
<time>2016-10-06T10:18:44Z</time></trkpt>
<trkpt lat="23.128198" lon="113.25931">
<time>2016-10-06T10:18:45Z</time></trkpt>
<trkpt lat="23.128198" lon="113.258961">
<time>2016-10-06T10:18:46Z</time></trkpt>
<trkpt lat="23.128188" lon="113.258851">
<time>2016-10-06T10:18:47Z</time></trkpt>
<trkpt lat="23.128188" lon="113.258691">
<time>2016-10-06T10:18:48Z</time></trkpt>
<trkpt lat="23.128169" lon="113.258261">
<time>2016-10-06T10:18:49Z</time></trkpt>
<trkpt lat="23.128159" lon="113.258041">
<time>2016-10-06T10:18:50Z</time></trkpt>
<trkpt lat="23.128149" lon="113.257941">
<time>2016-10-06T10:18:51Z</time></trkpt>
<trkpt lat="23.128089" lon="113.257022">
<time>2016-10-06T10:18:52Z</time></trkpt>
<trkpt lat="23.128079" lon="113.256952">
<time>2016-10-06T10:18:53Z</time></trkpt>
<trkpt lat="23.128059" lon="113.256882">
<time>2016-10-06T10:18:54Z</time></trkpt>
<trkpt lat="23.128049" lon="113.256812">
<time>2016-10-06T10:18:55Z</time></trkpt>
<trkpt lat="23.128049" lon="113.256812">
<time>2016-10-06T10:18:56Z</time></trkpt>
<trkpt lat="23.12803" lon="113.256242">
<time>2016-10-06T10:18:57Z</time></trkpt>
<trkpt lat="23.12802" lon="113.255803">
<time>2016-10-06T10:18:58Z</time></trkpt>
<trkpt lat="23.12802" lon="113.255793">
<time>2016-10-06T10:18:59Z</time></trkpt>
<trkpt lat="23.12801" lon="113.255103">
<time>2016-10-06T10:19:00Z</time></trkpt>
<trkpt lat="23.128" lon="113.254693">
<time>2016-10-06T10:19:01Z</time></trkpt>
<trkpt lat="23.12797" lon="113.254024">
<time>2016-10-06T10:19:02Z</time></trkpt>
<trkpt lat="23.127951" lon="113.253594">
<time>2016-10-06T10:19:03Z</time></trkpt>
<trkpt lat="23.127911" lon="113.252844">
<time>2016-10-06T10:19:04Z</time></trkpt>
<trkpt lat="23.127911" lon="113.252144">
<time>2016-10-06T10:19:05Z</time></trkpt>
<trkpt lat="23.127901" lon="113.251994">
<time>2016-10-06T10:19:06Z</time></trkpt>
<trkpt lat="23.127901" lon="113.251635">
<time>2016-10-06T10:19:07Z</time></trkpt>
<trkpt lat="23.127911" lon="113.251195">
<time>2016-10-06T10:19:08Z</time></trkpt>
<trkpt lat="23.127911" lon="113.250815">
<time>2016-10-06T10:19:09Z</time></trkpt>
<trkpt lat="23.127932" lon="113.250605">
<time>2016-10-06T10:19:10Z</time></trkpt>
<trkpt lat="23.127932" lon="113.249995">
<time>2016-10-06T10:19:11Z</time></trkpt>
<trkpt lat="23.127942" lon="113.249495">
<time>2016-10-06T10:19:12Z</time></trkpt>
<trkpt lat="23.127962" lon="113.249265">
<time>2016-10-06T10:19:13Z</time></trkpt>
<trkpt lat="23.127962" lon="113.249195">
<time>2016-10-06T10:19:14Z</time></trkpt>
<trkpt lat="23.127972" lon="113.249135">
<time>2016-10-06T10:19:15Z</time></trkpt>
<trkpt lat="23.127972" lon="113.249135">
<time>2016-10-06T10:19:16Z</time></trkpt>
<trkpt lat="23.127982" lon="113.249055">
<time>2016-10-06T10:19:17Z</time></trkpt>
<trkpt lat="23.128012" lon="113.248745">
<time>2016-10-06T10:19:18Z</time></trkpt>
<trkpt lat="23.128122" lon="113.247856">
<time>2016-10-06T10:19:19Z</time></trkpt>
<trkpt lat="23.128152" lon="113.247676">
<time>2016-10-06T10:19:20Z</time></trkpt>
<trkpt lat="23.128212" lon="113.246886">
<time>2016-10-06T10:19:21Z</time></trkpt>
<trkpt lat="23.128272" lon="113.246156">
<time>2016-10-06T10:19:22Z</time></trkpt>
<trkpt lat="23.128332" lon="113.245316">
<time>2016-10-06T10:19:23Z</time></trkpt>
<trkpt lat="23.128422" lon="113.244066">
<time>2016-10-06T10:19:24Z</time></trkpt>
<trkpt lat="23.128452" lon="113.243466">
<time>2016-10-06T10:19:25Z</time></trkpt>
<trkpt lat="23.128452" lon="113.242856">
<time>2016-10-06T10:19:26Z</time></trkpt>
<trkpt lat="23.128452" lon="113.242816">
<time>2016-10-06T10:19:27Z</time></trkpt>
<trkpt lat="23.128472" lon="113.242196">
<time>2016-10-06T10:19:28Z</time></trkpt>
<trkpt lat="23.128462" lon="113.242076">
<time>2016-10-06T10:19:29Z</time></trkpt>
<trkpt lat="23.128452" lon="113.241416">
<time>2016-10-06T10:19:30Z</time></trkpt>
<trkpt lat="23.128432" lon="113.240306">
<time>2016-10-06T10:19:31Z</time></trkpt>
<trkpt lat="23.128412" lon="113.239366">
<time>2016-10-06T10:19:32Z</time></trkpt>
<trkpt lat="23.128401" lon="113.237306">
<time>2016-10-06T10:19:33Z</time></trkpt>
<trkpt lat="23.128411" lon="113.236736">
<time>2016-10-06T10:19:34Z</time></trkpt>
<trkpt lat="23.128411" lon="113.236736">
<time>2016-10-06T10:19:35Z</time></trkpt>
<trkpt lat="23.128411" lon="113.236616">
<time>2016-10-06T10:19:36Z</time></trkpt>
<trkpt lat="23.128401" lon="113.236176">
<time>2016-10-06T10:19:37Z</time></trkpt>
<trkpt lat="23.12836" lon="113.234855">
<time>2016-10-06T10:19:38Z</time></trkpt>
<trkpt lat="23.12834" lon="113.234185">
<time>2016-10-06T10:19:39Z</time></trkpt>
<trkpt lat="23.12834" lon="113.234135">
<time>2016-10-06T10:19:40Z</time></trkpt>
<trkpt lat="23.12834" lon="113.234085">
<time>2016-10-06T10:19:41Z</time></trkpt>
<trkpt lat="23.12834" lon="113.234005">
<time>2016-10-06T10:19:42Z</time></trkpt>
<trkpt lat="23.12833" lon="113.233545">
<time>2016-10-06T10:19:43Z</time></trkpt>
<trkpt lat="23.12833" lon="113.233535">
<time>2016-10-06T10:19:44Z</time></trkpt>
<trkpt lat="23.12833" lon="113.233175">
<time>2016-10-06T10:19:45Z</time></trkpt>
<trkpt lat="23.12832" lon="113.232945">
<time>2016-10-06T10:19:46Z</time></trkpt>
<trkpt lat="23.128309" lon="113.231984">
<time>2016-10-06T10:19:47Z</time></trkpt>
<trkpt lat="23.128289" lon="113.231214">
<time>2016-10-06T10:19:48Z</time></trkpt>
<trkpt lat="23.128279" lon="113.231034">
<time>2016-10-06T10:19:49Z</time></trkpt>
<trkpt lat="23.128279" lon="113.230944">
<time>2016-10-06T10:19:50Z</time></trkpt>
<trkpt lat="23.128269" lon="113.230734">
<time>2016-10-06T10:19:51Z</time></trkpt>
<trkpt lat="23.128258" lon="113.230053">
<time>2016-10-06T10:19:52Z</time></trkpt>
<trkpt lat="23.128248" lon="113.229713">
<time>2016-10-06T10:19:53Z</time></trkpt>
<trkpt lat="23.128258" lon="113.229173">
<time>2016-10-06T10:19:54Z</time></trkpt>
<trkpt lat="23.128237" lon="113.228703">
<time>2016-10-06T10:19:55Z</time></trkpt>
<trkpt lat="23.128237" lon="113.228443">
<time>2016-10-06T10:19:56Z</time></trkpt>
<trkpt lat="23.128237" lon="113.227902">
<time>2016-10-06T10:19:57Z</time></trkpt>
<trkpt lat="23.128227" lon="113.227732">
<time>2016-10-06T10:19:58Z</time></trkpt>
<trkpt lat="23.128227" lon="113.227402">
<time>2016-10-06T10:19:59Z</time></trkpt>
<trkpt lat="23.128216" lon="113.227112">
<time>2016-10-06T10:20:00Z</time></trkpt>
<trkpt lat="23.128216" lon="113.227002">
<time>2016-10-06T10:20:01Z</time></trkpt>
<trkpt lat="23.128206" lon="113.226732">
<time>2016-10-06T10:20:02Z</time></trkpt>
<trkpt lat="23.128206" lon="113.226532">
<time>2016-10-06T10:20:03Z</time></trkpt>
<trkpt lat="23.128206" lon="113.226472">
<time>2016-10-06T10:20:04Z</time></trkpt>
<trkpt lat="23.128206" lon="113.226291">
<time>2016-10-06T10:20:05Z</time></trkpt>
<trkpt lat="23.128216" lon="113.226231">
<time>2016-10-06T10:20:06Z</time></trkpt>
<trkpt lat="23.128216" lon="113.226131">
<time>2016-10-06T10:20:07Z</time></trkpt>
<trkpt lat="23.128226" lon="113.226111">
<time>2016-10-06T10:20:08Z</time></trkpt>
<trkpt lat="23.128226" lon="113.226081">
<time>2016-10-06T10:20:09Z</time></trkpt>
<trkpt lat="23.128236" lon="113.226051">
<time>2016-10-06T10:20:10Z</time></trkpt>
<trkpt lat="23.128286" lon="113.225901">
<time>2016-10-06T10:20:11Z</time></trkpt>
<trkpt lat="23.128296" lon="113.225861">
<time>2016-10-06T10:20:12Z</time></trkpt>
<trkpt lat="23.128445" lon="113.225641">
<time>2016-10-06T10:20:13Z</time></trkpt>
<trkpt lat="23.128625" lon="113.225451">
<time>2016-10-06T10:20:14Z</time></trkpt>
<trkpt lat="23.128865" lon="113.225091">
<time>2016-10-06T10:20:15Z</time></trkpt>
<trkpt lat="23.128865" lon="113.225001">
<time>2016-10-06T10:20:16Z</time></trkpt>
<trkpt lat="23.128875" lon="113.22488">
<time>2016-10-06T10:20:17Z</time></trkpt>
<trkpt lat="23.128875" lon="113.22483">
<time>2016-10-06T10:20:18Z</time></trkpt>
<trkpt lat="23.128875" lon="113.22476">
<time>2016-10-06T10:20:19Z</time></trkpt>
<trkpt lat="23.128875" lon="113.22472">
<time>2016-10-06T10:20:20Z</time></trkpt>
<trkpt lat="23.128864" lon="113.22463">
<time>2016-10-06T10:20:21Z</time></trkpt>
<trkpt lat="23.128804" lon="113.22446">
<time>2016-10-06T10:20:22Z</time></trkpt>
<trkpt lat="23.128804" lon="113.22446">
<time>2016-10-06T10:20:23Z</time></trkpt>
<trkpt lat="23.128754" lon="113.22429">
<time>2016-10-06T10:20:24Z</time></trkpt>
<trkpt lat="23.128754" lon="113.22429">
<time>2016-10-06T10:20:25Z</time></trkpt>
<trkpt lat="23.128754" lon="113.22413">
<time>2016-10-06T10:20:26Z</time></trkpt>
<trkpt lat="23.128754" lon="113.22397">
<time>2016-10-06T10:20:27Z</time></trkpt>
<trkpt lat="23.128734" lon="113.22382">
<time>2016-10-06T10:20:28Z</time></trkpt>
<trkpt lat="23.128734" lon="113.22381">
<time>2016-10-06T10:20:29Z</time></trkpt>
<trkpt lat="23.128724" lon="113.22378">
<time>2016-10-06T10:20:30Z</time></trkpt>
<trkpt lat="23.128724" lon="113.22374">
<time>2016-10-06T10:20:31Z</time></trkpt>
<trkpt lat="23.128694" lon="113.22367">
<time>2016-10-06T10:20:32Z</time></trkpt>
<trkpt lat="23.128624" lon="113.22351">
<time>2016-10-06T10:20:33Z</time></trkpt>
<trkpt lat="23.128594" lon="113.223419">
<time>2016-10-06T10:20:34Z</time></trkpt>
<trkpt lat="23.128554" lon="113.223339">
<time>2016-10-06T10:20:35Z</time></trkpt>
<trkpt lat="23.128534" lon="113.223259">
<time>2016-10-06T10:20:36Z</time></trkpt>
<trkpt lat="23.128514" lon="113.223189">
<time>2016-10-06T10:20:37Z</time></trkpt>
<trkpt lat="23.128493" lon="113.223129">
<time>2016-10-06T10:20:38Z</time></trkpt>
<trkpt lat="23.128473" lon="113.223039">
<time>2016-10-06T10:20:39Z</time></trkpt>
<trkpt lat="23.128463" lon="113.222939">
<time>2016-10-06T10:20:40Z</time></trkpt>
<trkpt lat="23.128433" lon="113.222729">
<time>2016-10-06T10:20:41Z</time></trkpt>
<trkpt lat="23.128423" lon="113.222299">
<time>2016-10-06T10:20:42Z</time></trkpt>
<trkpt lat="23.128413" lon="113.222159">
<time>2016-10-06T10:20:43Z</time></trkpt>
<trkpt lat="23.128413" lon="113.222159">
<time>2016-10-06T10:20:44Z</time></trkpt>
<trkpt lat="23.128432" lon="113.221028">
<time>2016-10-06T10:20:45Z</time></trkpt>
<trkpt lat="23.128441" lon="113.220537">
<time>2016-10-06T10:20:46Z</time></trkpt>
<trkpt lat="23.128471" lon="113.220037">
<time>2016-10-06T10:20:47Z</time></trkpt>
<trkpt lat="23.12849" lon="113.219176">
<time>2016-10-06T10:20:48Z</time></trkpt>
<trkpt lat="23.1285" lon="113.218616">
<time>2016-10-06T10:20:49Z</time></trkpt>
<trkpt lat="23.1285" lon="113.218536">
<time>2016-10-06T10:20:50Z</time></trkpt>
<trkpt lat="23.128529" lon="113.217645">
<time>2016-10-06T10:20:51Z</time></trkpt>
<trkpt lat="23.128548" lon="113.217174">
<time>2016-10-06T10:20:52Z</time></trkpt>
<trkpt lat="23.128578" lon="113.216834">
<time>2016-10-06T10:20:53Z</time></trkpt>
<trkpt lat="23.128548" lon="113.216664">
<time>2016-10-06T10:20:54Z</time></trkpt>
<trkpt lat="23.128537" lon="113.216374">
<time>2016-10-06T10:20:55Z</time></trkpt>
<trkpt lat="23.128537" lon="113.216113">
<time>2016-10-06T10:20:56Z</time></trkpt>
<trkpt lat="23.128537" lon="113.216043">
<time>2016-10-06T10:20:57Z</time></trkpt>
<trkpt lat="23.128527" lon="113.215813">
<time>2016-10-06T10:20:58Z</time></trkpt>
<trkpt lat="23.128507" lon="113.215633">
<time>2016-10-06T10:20:59Z</time></trkpt>
<trkpt lat="23.128486" lon="113.215423">
<time>2016-10-06T10:21:00Z</time></trkpt>
<trkpt lat="23.128416" lon="113.214982">
<time>2016-10-06T10:21:01Z</time></trkpt>
<trkpt lat="23.128316" lon="113.214522">
<time>2016-10-06T10:21:02Z</time></trkpt>
<trkpt lat="23.128235" lon="113.214211">
<time>2016-10-06T10:21:03Z</time></trkpt>
<trkpt lat="23.128215" lon="113.214171">
<time>2016-10-06T10:21:04Z</time></trkpt>
<trkpt lat="23.128035" lon="113.213631">
<time>2016-10-06T10:21:05Z</time></trkpt>
<trkpt lat="23.127874" lon="113.21328">
<time>2016-10-06T10:21:06Z</time></trkpt>
<trkpt lat="23.127794" lon="113.21309">
<time>2016-10-06T10:21:07Z</time></trkpt>
<trkpt lat="23.127784" lon="113.21306">
<time>2016-10-06T10:21:08Z</time></trkpt>
<trkpt lat="23.127714" lon="113.21293">
<time>2016-10-06T10:21:09Z</time></trkpt>
<trkpt lat="23.127584" lon="113.2127">
<time>2016-10-06T10:21:10Z</time></trkpt>
<trkpt lat="23.127384" lon="113.212369">
<time>2016-10-06T10:21:11Z</time></trkpt>
<trkpt lat="23.127354" lon="113.212329">
<time>2016-10-06T10:21:12Z</time></trkpt>
<trkpt lat="23.127173" lon="113.212059">
<time>2016-10-06T10:21:13Z</time></trkpt>
<trkpt lat="23.126903" lon="113.211729">
<time>2016-10-06T10:21:14Z</time></trkpt>
<trkpt lat="23.126703" lon="113.211499">
<time>2016-10-06T10:21:15Z</time></trkpt>
<trkpt lat="23.126463" lon="113.211238">
<time>2016-10-06T10:21:16Z</time></trkpt>
<trkpt lat="23.126353" lon="113.211138">
<time>2016-10-06T10:21:17Z</time></trkpt>
<trkpt lat="23.126132" lon="113.210928">
<time>2016-10-06T10:21:18Z</time></trkpt>
<trkpt lat="23.126052" lon="113.210868">
<time>2016-10-06T10:21:19Z</time></trkpt>
<trkpt lat="23.125982" lon="113.210808">
<time>2016-10-06T10:21:20Z</time></trkpt>
<trkpt lat="23.125892" lon="113.210738">
<time>2016-10-06T10:21:21Z</time></trkpt>
<trkpt lat="23.125802" lon="113.210678">
<time>2016-10-06T10:21:22Z</time></trkpt>
<trkpt lat="23.125572" lon="113.210527">
<time>2016-10-06T10:21:23Z</time></trkpt>
<trkpt lat="23.125282" lon="113.210327">
<time>2016-10-06T10:21:24Z</time></trkpt>
<trkpt lat="23.125002" lon="113.210137">
<time>2016-10-06T10:21:25Z</time></trkpt>
<trkpt lat="23.124202" lon="113.209617">
<time>2016-10-06T10:21:26Z</time></trkpt>
<trkpt lat="23.123761" lon="113.209326">
<time>2016-10-06T10:21:27Z</time></trkpt>
<trkpt lat="23.123701" lon="113.209296">
<time>2016-10-06T10:21:28Z</time></trkpt>
<trkpt lat="23.123481" lon="113.209146">
<time>2016-10-06T10:21:29Z</time></trkpt>
<trkpt lat="23.123161" lon="113.208936">
<time>2016-10-06T10:21:30Z</time></trkpt>
<trkpt lat="23.121821" lon="113.208075">
<time>2016-10-06T10:21:31Z</time></trkpt>
<trkpt lat="23.121721" lon="113.208015">
<time>2016-10-06T10:21:32Z</time></trkpt>
<trkpt lat="23.121701" lon="113.207995">
<time>2016-10-06T10:21:33Z</time></trkpt>
<trkpt lat="23.12084" lon="113.207424">
<time>2016-10-06T10:21:34Z</time></trkpt>
<trkpt lat="23.12043" lon="113.207144">
<time>2016-10-06T10:21:35Z</time></trkpt>
<trkpt lat="23.1203" lon="113.207064">
<time>2016-10-06T10:21:36Z</time></trkpt>
<trkpt lat="23.12014" lon="113.206923">
<time>2016-10-06T10:21:37Z</time></trkpt>
<trkpt lat="23.12014" lon="113.206923">
<time>2016-10-06T10:21:38Z</time></trkpt>
<trkpt lat="23.11995" lon="113.206733">
<time>2016-10-06T10:21:39Z</time></trkpt>
<trkpt lat="23.11976" lon="113.206593">
<time>2016-10-06T10:21:40Z</time></trkpt>
<trkpt lat="23.119549" lon="113.206433">
<time>2016-10-06T10:21:41Z</time></trkpt>
<trkpt lat="23.119079" lon="113.206123">
<time>2016-10-06T10:21:42Z</time></trkpt>
<trkpt lat="23.118879" lon="113.205962">
<time>2016-10-06T10:21:43Z</time></trkpt>
<trkpt lat="23.118749" lon="113.205852">
<time>2016-10-06T10:21:44Z</time></trkpt>
<trkpt lat="23.118649" lon="113.205742">
<time>2016-10-06T10:21:45Z</time></trkpt>
<trkpt lat="23.118549" lon="113.205622">
<time>2016-10-06T10:21:46Z</time></trkpt>
<trkpt lat="23.118529" lon="113.205582">
<time>2016-10-06T10:21:47Z</time></trkpt>
<trkpt lat="23.118499" lon="113.205542">
<time>2016-10-06T10:21:48Z</time></trkpt>
<trkpt lat="23.118489" lon="113.205512">
<time>2016-10-06T10:21:49Z</time></trkpt>
<trkpt lat="23.118469" lon="113.205472">
<time>2016-10-06T10:21:50Z</time></trkpt>
<trkpt lat="23.118408" lon="113.205342">
<time>2016-10-06T10:21:51Z</time></trkpt>
<trkpt lat="23.118248" lon="113.204911">
<time>2016-10-06T10:21:52Z</time></trkpt>
<trkpt lat="23.118138" lon="113.204631">
<time>2016-10-06T10:21:53Z</time></trkpt>
<trkpt lat="23.118037" lon="113.20432">
<time>2016-10-06T10:21:54Z</time></trkpt>
<trkpt lat="23.117987" lon="113.20402">
<time>2016-10-06T10:21:55Z</time></trkpt>
<trkpt lat="23.117967" lon="113.203749">
<time>2016-10-06T10:21:56Z</time></trkpt>
<trkpt lat="23.117967" lon="113.203749">
<time>2016-10-06T10:21:57Z</time></trkpt>
<trkpt lat="23.118206" lon="113.203369">
<time>2016-10-06T10:21:58Z</time></trkpt>
<trkpt lat="23.118455" lon="113.202968">
<time>2016-10-06T10:21:59Z</time></trkpt>
<trkpt lat="23.118735" lon="113.202548">
<time>2016-10-06T10:22:00Z</time></trkpt>
<trkpt lat="23.118834" lon="113.202388">
<time>2016-10-06T10:22:01Z</time></trkpt>
<trkpt lat="23.118964" lon="113.202177">
<time>2016-10-06T10:22:02Z</time></trkpt>
<trkpt lat="23.119103" lon="113.201927">
<time>2016-10-06T10:22:03Z</time></trkpt>
<trkpt lat="23.119213" lon="113.201737">
<time>2016-10-06T10:22:04Z</time></trkpt>
<trkpt lat="23.119213" lon="113.201727">
<time>2016-10-06T10:22:05Z</time></trkpt>
<trkpt lat="23.119273" lon="113.201576">
<time>2016-10-06T10:22:06Z</time></trkpt>
<trkpt lat="23.119343" lon="113.201386">
<time>2016-10-06T10:22:07Z</time></trkpt>
<trkpt lat="23.119402" lon="113.201206">
<time>2016-10-06T10:22:08Z</time></trkpt>
<trkpt lat="23.119472" lon="113.200986">
<time>2016-10-06T10:22:09Z</time></trkpt>
<trkpt lat="23.119492" lon="113.200915">
<time>2016-10-06T10:22:10Z</time></trkpt>
<trkpt lat="23.119522" lon="113.200825">
<time>2016-10-06T10:22:11Z</time></trkpt>
<trkpt lat="23.119561" lon="113.200635">
<time>2016-10-06T10:22:12Z</time></trkpt>
<trkpt lat="23.119591" lon="113.200475">
<time>2016-10-06T10:22:13Z</time></trkpt>
<trkpt lat="23.119591" lon="113.200465">
<time>2016-10-06T10:22:14Z</time></trkpt>
<trkpt lat="23.119621" lon="113.200224">
<time>2016-10-06T10:22:15Z</time></trkpt>
<trkpt lat="23.119621" lon="113.200204">
<time>2016-10-06T10:22:16Z</time></trkpt>
<trkpt lat="23.119631" lon="113.200024">
<time>2016-10-06T10:22:17Z</time></trkpt>
<trkpt lat="23.11964" lon="113.199674">
<time>2016-10-06T10:22:18Z</time></trkpt>
<trkpt lat="23.119629" lon="113.199223">
<time>2016-10-06T10:22:19Z</time></trkpt>
<trkpt lat="23.119629" lon="113.199223">
<time>2016-10-06T10:22:20Z</time></trkpt>
<trkpt lat="23.119499" lon="113.199243">
<time>2016-10-06T10:22:21Z</time></trkpt>
<trkpt lat="23.119499" lon="113.199243">
<time>2016-10-06T10:22:22Z</time></trkpt>
<trkpt lat="23.119449" lon="113.198963">
<time>2016-10-06T10:22:23Z</time></trkpt>
<trkpt lat="23.119409" lon="113.198772">
<time>2016-10-06T10:22:24Z</time></trkpt>
<trkpt lat="23.119389" lon="113.198652">
<time>2016-10-06T10:22:25Z</time></trkpt>
<trkpt lat="23.119358" lon="113.198522">
<time>2016-10-06T10:22:26Z</time></trkpt>
<trkpt lat="23.119318" lon="113.198382">
<time>2016-10-06T10:22:27Z</time></trkpt>
<trkpt lat="23.119208" lon="113.198071">
<time>2016-10-06T10:22:28Z</time></trkpt>
<trkpt lat="23.119117" lon="113.197821">
<time>2016-10-06T10:22:29Z</time></trkpt>
<trkpt lat="23.118997" lon="113.1975">
<time>2016-10-06T10:22:30Z</time></trkpt>
<trkpt lat="23.118836" lon="113.19704">
<time>2016-10-06T10:22:31Z</time></trkpt>
<trkpt lat="23.118716" lon="113.196709">
<time>2016-10-06T10:22:32Z</time></trkpt>
<trkpt lat="23.118304" lon="113.195558">
<time>2016-10-06T10:22:33Z</time></trkpt>
<trkpt lat="23.117923" lon="113.194466">
<time>2016-10-06T10:22:34Z</time></trkpt>
<trkpt lat="23.117862" lon="113.194316">
<time>2016-10-06T10:22:35Z</time></trkpt>
<trkpt lat="23.117401" lon="113.193034">
<time>2016-10-06T10:22:36Z</time></trkpt>
<trkpt lat="23.11734" lon="113.192843">
<time>2016-10-06T10:22:37Z</time></trkpt>
<trkpt lat="23.11721" lon="113.192503">
<time>2016-10-06T10:22:38Z</time></trkpt>
<trkpt lat="23.11721" lon="113.192493">
<time>2016-10-06T10:22:39Z</time></trkpt>
<trkpt lat="23.117139" lon="113.192292">
<time>2016-10-06T10:22:40Z</time></trkpt>
<trkpt lat="23.117129" lon="113.192262">
<time>2016-10-06T10:22:41Z</time></trkpt>
<trkpt lat="23.117079" lon="113.192122">
<time>2016-10-06T10:22:42Z</time></trkpt>
<trkpt lat="23.117069" lon="113.192092">
<time>2016-10-06T10:22:43Z</time></trkpt>
<trkpt lat="23.116969" lon="113.191832">
<time>2016-10-06T10:22:44Z</time></trkpt>
<trkpt lat="23.116969" lon="113.191822">
<time>2016-10-06T10:22:45Z</time></trkpt>
<trkpt lat="23.116969" lon="113.191812">
<time>2016-10-06T10:22:46Z</time></trkpt>
<trkpt lat="23.116868" lon="113.191551">
<time>2016-10-06T10:22:47Z</time></trkpt>
<trkpt lat="23.116547" lon="113.19071">
<time>2016-10-06T10:22:48Z</time></trkpt>
<trkpt lat="23.116487" lon="113.19059">
<time>2016-10-06T10:22:49Z</time></trkpt>
<trkpt lat="23.116306" lon="113.190189">
<time>2016-10-06T10:22:50Z</time></trkpt>
<trkpt lat="23.116106" lon="113.189748">
<time>2016-10-06T10:22:51Z</time></trkpt>
<trkpt lat="23.116025" lon="113.189578">
<time>2016-10-06T10:22:52Z</time></trkpt>
<trkpt lat="23.115604" lon="113.188737">
<time>2016-10-06T10:22:53Z</time></trkpt>
<trkpt lat="23.115564" lon="113.188647">
<time>2016-10-06T10:22:54Z</time></trkpt>
<trkpt lat="23.115293" lon="113.188086">
<time>2016-10-06T10:22:55Z</time></trkpt>
<trkpt lat="23.115123" lon="113.187735">
<time>2016-10-06T10:22:56Z</time></trkpt>
<trkpt lat="23.114992" lon="113.187455">
<time>2016-10-06T10:22:57Z</time></trkpt>
<trkpt lat="23.114792" lon="113.187024">
<time>2016-10-06T10:22:58Z</time></trkpt>
<trkpt lat="23.114771" lon="113.186964">
<time>2016-10-06T10:22:59Z</time></trkpt>
<trkpt lat="23.114601" lon="113.186623">
<time>2016-10-06T10:23:00Z</time></trkpt>
<trkpt lat="23.11433" lon="113.186072">
<time>2016-10-06T10:23:01Z</time></trkpt>
<trkpt lat="23.11419" lon="113.185812">
<time>2016-10-06T10:23:02Z</time></trkpt>
<trkpt lat="23.11417" lon="113.185772">
<time>2016-10-06T10:23:03Z</time></trkpt>
<trkpt lat="23.11412" lon="113.185692">
<time>2016-10-06T10:23:04Z</time></trkpt>
<trkpt lat="23.114069" lon="113.185621">
<time>2016-10-06T10:23:05Z</time></trkpt>
<trkpt lat="23.114009" lon="113.185541">
<time>2016-10-06T10:23:06Z</time></trkpt>
<trkpt lat="23.113839" lon="113.185321">
<time>2016-10-06T10:23:07Z</time></trkpt>
<trkpt lat="23.113719" lon="113.185181">
<time>2016-10-06T10:23:08Z</time></trkpt>
<trkpt lat="23.113599" lon="113.18504">
<time>2016-10-06T10:23:09Z</time></trkpt>
<trkpt lat="23.113148" lon="113.18453">
<time>2016-10-06T10:23:10Z</time></trkpt>
<trkpt lat="23.112978" lon="113.184349">
<time>2016-10-06T10:23:11Z</time></trkpt>
<trkpt lat="23.112928" lon="113.184299">
<time>2016-10-06T10:23:12Z</time></trkpt>
<trkpt lat="23.112707" lon="113.184059">
<time>2016-10-06T10:23:13Z</time></trkpt>
<trkpt lat="23.112196" lon="113.183508">
<time>2016-10-06T10:23:14Z</time></trkpt>
<trkpt lat="23.111786" lon="113.183067">
<time>2016-10-06T10:23:15Z</time></trkpt>
<trkpt lat="23.111465" lon="113.182717">
<time>2016-10-06T10:23:16Z</time></trkpt>
<trkpt lat="23.111325" lon="113.182576">
<time>2016-10-06T10:23:17Z</time></trkpt>
<trkpt lat="23.111155" lon="113.182396">
<time>2016-10-06T10:23:18Z</time></trkpt>
<trkpt lat="23.110704" lon="113.181915">
<time>2016-10-06T10:23:19Z</time></trkpt>
<trkpt lat="23.110444" lon="113.181625">
<time>2016-10-06T10:23:20Z</time></trkpt>
<trkpt lat="23.109983" lon="113.181114">
<time>2016-10-06T10:23:21Z</time></trkpt>
<trkpt lat="23.109943" lon="113.181074">
<time>2016-10-06T10:23:22Z</time></trkpt>
<trkpt lat="23.109522" lon="113.180633">
<time>2016-10-06T10:23:23Z</time></trkpt>
<trkpt lat="23.109262" lon="113.180352">
<time>2016-10-06T10:23:24Z</time></trkpt>
<trkpt lat="23.109132" lon="113.180212">
<time>2016-10-06T10:23:25Z</time></trkpt>
<trkpt lat="23.109072" lon="113.180152">
<time>2016-10-06T10:23:26Z</time></trkpt>
<trkpt lat="23.108992" lon="113.180072">
<time>2016-10-06T10:23:27Z</time></trkpt>
<trkpt lat="23.108821" lon="113.179872">
<time>2016-10-06T10:23:28Z</time></trkpt>
<trkpt lat="23.108381" lon="113.179391">
<time>2016-10-06T10:23:29Z</time></trkpt>
<trkpt lat="23.10828" lon="113.179271">
<time>2016-10-06T10:23:30Z</time></trkpt>
<trkpt lat="23.10826" lon="113.179251">
<time>2016-10-06T10:23:31Z</time></trkpt>
<trkpt lat="23.1082" lon="113.17917">
<time>2016-10-06T10:23:32Z</time></trkpt>
<trkpt lat="23.10809" lon="113.17902">
<time>2016-10-06T10:23:33Z</time></trkpt>
<trkpt lat="23.10804" lon="113.17894">
<time>2016-10-06T10:23:34Z</time></trkpt>
<trkpt lat="23.10799" lon="113.17885">
<time>2016-10-06T10:23:35Z</time></trkpt>
<trkpt lat="23.10795" lon="113.17876">
<time>2016-10-06T10:23:36Z</time></trkpt>
<trkpt lat="23.10794" lon="113.17874">
<time>2016-10-06T10:23:37Z</time></trkpt>
<trkpt lat="23.10793" lon="113.17872">
<time>2016-10-06T10:23:38Z</time></trkpt>
<trkpt lat="23.107909" lon="113.178669">
<time>2016-10-06T10:23:39Z</time></trkpt>
<trkpt lat="23.107879" lon="113.178609">
<time>2016-10-06T10:23:40Z</time></trkpt>
<trkpt lat="23.107859" lon="113.178559">
<time>2016-10-06T10:23:41Z</time></trkpt>
<trkpt lat="23.107839" lon="113.178489">
<time>2016-10-06T10:23:42Z</time></trkpt>
<trkpt lat="23.107799" lon="113.178399">
<time>2016-10-06T10:23:43Z</time></trkpt>
<trkpt lat="23.107779" lon="113.178309">
<time>2016-10-06T10:23:44Z</time></trkpt>
<trkpt lat="23.107749" lon="113.178219">
<time>2016-10-06T10:23:45Z</time></trkpt>
<trkpt lat="23.107729" lon="113.178129">
<time>2016-10-06T10:23:46Z</time></trkpt>
<trkpt lat="23.107708" lon="113.178028">
<time>2016-10-06T10:23:47Z</time></trkpt>
<trkpt lat="23.107698" lon="113.177938">
<time>2016-10-06T10:23:48Z</time></trkpt>
<trkpt lat="23.107678" lon="113.177838">
<time>2016-10-06T10:23:49Z</time></trkpt>
<trkpt lat="23.107678" lon="113.177738">
<time>2016-10-06T10:23:50Z</time></trkpt>
<trkpt lat="23.107668" lon="113.177638">
<time>2016-10-06T10:23:51Z</time></trkpt>
<trkpt lat="23.107677" lon="113.177537">
<time>2016-10-06T10:23:52Z</time></trkpt>
<trkpt lat="23.107677" lon="113.177437">
<time>2016-10-06T10:23:53Z</time></trkpt>
<trkpt lat="23.107687" lon="113.177337">
<time>2016-10-06T10:23:54Z</time></trkpt>
<trkpt lat="23.107697" lon="113.177237">
<time>2016-10-06T10:23:55Z</time></trkpt>
<trkpt lat="23.107707" lon="113.177157">
<time>2016-10-06T10:23:56Z</time></trkpt>
<trkpt lat="23.107717" lon="113.177137">
<time>2016-10-06T10:23:57Z</time></trkpt>
<trkpt lat="23.107727" lon="113.177037">
<time>2016-10-06T10:23:58Z</time></trkpt>
<trkpt lat="23.107746" lon="113.176946">
<time>2016-10-06T10:23:59Z</time></trkpt>
<trkpt lat="23.107826" lon="113.176616">
<time>2016-10-06T10:24:00Z</time></trkpt>
<trkpt lat="23.107846" lon="113.176516">
<time>2016-10-06T10:24:01Z</time></trkpt>
<trkpt lat="23.108014" lon="113.175794">
<time>2016-10-06T10:24:02Z</time></trkpt>
<trkpt lat="23.108074" lon="113.175534">
<time>2016-10-06T10:24:03Z</time></trkpt>
<trkpt lat="23.108153" lon="113.175173">
<time>2016-10-06T10:24:04Z</time></trkpt>
<trkpt lat="23.108292" lon="113.174592">
<time>2016-10-06T10:24:05Z</time></trkpt>
<trkpt lat="23.108321" lon="113.174442">
<time>2016-10-06T10:24:06Z</time></trkpt>
<trkpt lat="23.108431" lon="113.173971">
<time>2016-10-06T10:24:07Z</time></trkpt>
<trkpt lat="23.10848" lon="113.17374">
<time>2016-10-06T10:24:08Z</time></trkpt>
<trkpt lat="23.108639" lon="113.173069">
<time>2016-10-06T10:24:09Z</time></trkpt>
<trkpt lat="23.108649" lon="113.172999">
<time>2016-10-06T10:24:10Z</time></trkpt>
<trkpt lat="23.108708" lon="113.172728">
<time>2016-10-06T10:24:11Z</time></trkpt>
<trkpt lat="23.108797" lon="113.172358">
<time>2016-10-06T10:24:12Z</time></trkpt>
<trkpt lat="23.108906" lon="113.171857">
<time>2016-10-06T10:24:13Z</time></trkpt>
<trkpt lat="23.108966" lon="113.171646">
<time>2016-10-06T10:24:14Z</time></trkpt>
<trkpt lat="23.109025" lon="113.171376">
<time>2016-10-06T10:24:15Z</time></trkpt>
<trkpt lat="23.109055" lon="113.171296">
<time>2016-10-06T10:24:16Z</time></trkpt>
<trkpt lat="23.109115" lon="113.171065">
<time>2016-10-06T10:24:17Z</time></trkpt>
<trkpt lat="23.109184" lon="113.170775">
<time>2016-10-06T10:24:18Z</time></trkpt>
<trkpt lat="23.109234" lon="113.170554">
<time>2016-10-06T10:24:19Z</time></trkpt>
<trkpt lat="23.109383" lon="113.169913">
<time>2016-10-06T10:24:20Z</time></trkpt>
<trkpt lat="23.109482" lon="113.169462">
<time>2016-10-06T10:24:21Z</time></trkpt>
<trkpt lat="23.109561" lon="113.169122">
<time>2016-10-06T10:24:22Z</time></trkpt>
<trkpt lat="23.109581" lon="113.169022">
<time>2016-10-06T10:24:23Z</time></trkpt>
<trkpt lat="23.10967" lon="113.168611">
<time>2016-10-06T10:24:24Z</time></trkpt>
<trkpt lat="23.109739" lon="113.16834">
<time>2016-10-06T10:24:25Z</time></trkpt>
<trkpt lat="23.109779" lon="113.16814">
<time>2016-10-06T10:24:26Z</time></trkpt>
<trkpt lat="23.109789" lon="113.16808">
<time>2016-10-06T10:24:27Z</time></trkpt>
<trkpt lat="23.109799" lon="113.16807">
<time>2016-10-06T10:24:28Z</time></trkpt>
<trkpt lat="23.109848" lon="113.167849">
<time>2016-10-06T10:24:29Z</time></trkpt>
<trkpt lat="23.109888" lon="113.167649">
<time>2016-10-06T10:24:30Z</time></trkpt>
<trkpt lat="23.109977" lon="113.167268">
<time>2016-10-06T10:24:31Z</time></trkpt>
<trkpt lat="23.109997" lon="113.167188">
<time>2016-10-06T10:24:32Z</time></trkpt>
<trkpt lat="23.110037" lon="113.166998">
<time>2016-10-06T10:24:33Z</time></trkpt>
<trkpt lat="23.110106" lon="113.166687">
<time>2016-10-06T10:24:34Z</time></trkpt>
<trkpt lat="23.110185" lon="113.166346">
<time>2016-10-06T10:24:35Z</time></trkpt>
<trkpt lat="23.110235" lon="113.166136">
<time>2016-10-06T10:24:36Z</time></trkpt>
<trkpt lat="23.110314" lon="113.165805">
<time>2016-10-06T10:24:37Z</time></trkpt>
<trkpt lat="23.110394" lon="113.165465">
<time>2016-10-06T10:24:38Z</time></trkpt>
<trkpt lat="23.110493" lon="113.165014">
<time>2016-10-06T10:24:39Z</time></trkpt>
<trkpt lat="23.110562" lon="113.164703">
<time>2016-10-06T10:24:40Z</time></trkpt>
<trkpt lat="23.110622" lon="113.164383">
<time>2016-10-06T10:24:41Z</time></trkpt>
<trkpt lat="23.110661" lon="113.164172">
<time>2016-10-06T10:24:42Z</time></trkpt>
<trkpt lat="23.11082" lon="113.163461">
<time>2016-10-06T10:24:43Z</time></trkpt>
<trkpt lat="23.11084" lon="113.163401">
<time>2016-10-06T10:24:44Z</time></trkpt>
<trkpt lat="23.110988" lon="113.16271">
<time>2016-10-06T10:24:45Z</time></trkpt>
<trkpt lat="23.111196" lon="113.161768">
<time>2016-10-06T10:24:46Z</time></trkpt>
<trkpt lat="23.111315" lon="113.161257">
<time>2016-10-06T10:24:47Z</time></trkpt>
<trkpt lat="23.111365" lon="113.161016">
<time>2016-10-06T10:24:48Z</time></trkpt>
<trkpt lat="23.111415" lon="113.160816">
<time>2016-10-06T10:24:49Z</time></trkpt>
<trkpt lat="23.111414" lon="113.160806">
<time>2016-10-06T10:24:50Z</time></trkpt>
<trkpt lat="23.111434" lon="113.160716">
<time>2016-10-06T10:24:51Z</time></trkpt>
<trkpt lat="23.111474" lon="113.160596">
<time>2016-10-06T10:24:52Z</time></trkpt>
<trkpt lat="23.111623" lon="113.160085">
<time>2016-10-06T10:24:53Z</time></trkpt>
<trkpt lat="23.111693" lon="113.159874">
<time>2016-10-06T10:24:54Z</time></trkpt>
<trkpt lat="23.111842" lon="113.159494">
<time>2016-10-06T10:24:55Z</time></trkpt>
<trkpt lat="23.111852" lon="113.159454">
<time>2016-10-06T10:24:56Z</time></trkpt>
<trkpt lat="23.111872" lon="113.159393">
<time>2016-10-06T10:24:57Z</time></trkpt>
<trkpt lat="23.111971" lon="113.159163">
<time>2016-10-06T10:24:58Z</time></trkpt>
<trkpt lat="23.112011" lon="113.159083">
<time>2016-10-06T10:24:59Z</time></trkpt>
<trkpt lat="23.112051" lon="113.159003">
<time>2016-10-06T10:25:00Z</time></trkpt>
<trkpt lat="23.1122" lon="113.158712">
<time>2016-10-06T10:25:01Z</time></trkpt>
<trkpt lat="23.11223" lon="113.158652">
<time>2016-10-06T10:25:02Z</time></trkpt>
<trkpt lat="23.11233" lon="113.158472">
<time>2016-10-06T10:25:03Z</time></trkpt>
<trkpt lat="23.112469" lon="113.158211">
<time>2016-10-06T10:25:04Z</time></trkpt>
<trkpt lat="23.112888" lon="113.15742">
<time>2016-10-06T10:25:05Z</time></trkpt>
<trkpt lat="23.113087" lon="113.157049">
<time>2016-10-06T10:25:06Z</time></trkpt>
<trkpt lat="23.113216" lon="113.156799">
<time>2016-10-06T10:25:07Z</time></trkpt>
<trkpt lat="23.113296" lon="113.156628">
<time>2016-10-06T10:25:08Z</time></trkpt>
<trkpt lat="23.113316" lon="113.156568">
<time>2016-10-06T10:25:09Z</time></trkpt>
<trkpt lat="23.113336" lon="113.156518">
<time>2016-10-06T10:25:10Z</time></trkpt>
<trkpt lat="23.113366" lon="113.156438">
<time>2016-10-06T10:25:11Z</time></trkpt>
<trkpt lat="23.113385" lon="113.156348">
<time>2016-10-06T10:25:12Z</time></trkpt>
<trkpt lat="23.113405" lon="113.156258">
<time>2016-10-06T10:25:13Z</time></trkpt>
<trkpt lat="23.113425" lon="113.156157">
<time>2016-10-06T10:25:14Z</time></trkpt>
<trkpt lat="23.113445" lon="113.156067">
<time>2016-10-06T10:25:15Z</time></trkpt>
<trkpt lat="23.113455" lon="113.155967">
<time>2016-10-06T10:25:16Z</time></trkpt>
<trkpt lat="23.113464" lon="113.155877">
<time>2016-10-06T10:25:17Z</time></trkpt>
<trkpt lat="23.113464" lon="113.155777">
<time>2016-10-06T10:25:18Z</time></trkpt>
<trkpt lat="23.113464" lon="113.155677">
<time>2016-10-06T10:25:19Z</time></trkpt>
<trkpt lat="23.113464" lon="113.155576">
<time>2016-10-06T10:25:20Z</time></trkpt>
<trkpt lat="23.113454" lon="113.155486">
<time>2016-10-06T10:25:21Z</time></trkpt>
<trkpt lat="23.113444" lon="113.155396">
<time>2016-10-06T10:25:22Z</time></trkpt>
<trkpt lat="23.113433" lon="113.155306">
<time>2016-10-06T10:25:23Z</time></trkpt>
<trkpt lat="23.113423" lon="113.155206">
<time>2016-10-06T10:25:24Z</time></trkpt>
<trkpt lat="23.113403" lon="113.155116">
<time>2016-10-06T10:25:25Z</time></trkpt>
<trkpt lat="23.113383" lon="113.155015">
<time>2016-10-06T10:25:26Z</time></trkpt>
<trkpt lat="23.113242" lon="113.154414">
<time>2016-10-06T10:25:27Z</time></trkpt>
<trkpt lat="23.11292" lon="113.153092">
<time>2016-10-06T10:25:28Z</time></trkpt>
<trkpt lat="23.112688" lon="113.15223">
<time>2016-10-06T10:25:29Z</time></trkpt>
<trkpt lat="23.112497" lon="113.151419">
<time>2016-10-06T10:25:30Z</time></trkpt>
<trkpt lat="23.112013" lon="113.149466">
<time>2016-10-06T10:25:31Z</time></trkpt>
<trkpt lat="23.11155" lon="113.147592">
<time>2016-10-06T10:25:32Z</time></trkpt>
<trkpt lat="23.111198" lon="113.14618">
<time>2016-10-06T10:25:33Z</time></trkpt>
<trkpt lat="23.110966" lon="113.145259">
<time>2016-10-06T10:25:34Z</time></trkpt>
<trkpt lat="23.110745" lon="113.144337">
<time>2016-10-06T10:25:35Z</time></trkpt>
<trkpt lat="23.110534" lon="113.143516">
<time>2016-10-06T10:25:36Z</time></trkpt>
<trkpt lat="23.110524" lon="113.143456">
<time>2016-10-06T10:25:37Z</time></trkpt>
<trkpt lat="23.110332" lon="113.142664">
<time>2016-10-06T10:25:38Z</time></trkpt>
<trkpt lat="23.110101" lon="113.141753">
<time>2016-10-06T10:25:39Z</time></trkpt>
<trkpt lat="23.11001" lon="113.141412">
<time>2016-10-06T10:25:40Z</time></trkpt>
<trkpt lat="23.10993" lon="113.141092">
<time>2016-10-06T10:25:41Z</time></trkpt>
<trkpt lat="23.109699" lon="113.140241">
<time>2016-10-06T10:25:42Z</time></trkpt>
<trkpt lat="23.109568" lon="113.13972">
<time>2016-10-06T10:25:43Z</time></trkpt>
<trkpt lat="23.109487" lon="113.139369">
<time>2016-10-06T10:25:44Z</time></trkpt>
<trkpt lat="23.109397" lon="113.139029">
<time>2016-10-06T10:25:45Z</time></trkpt>
<trkpt lat="23.109286" lon="113.138538">
<time>2016-10-06T10:25:46Z</time></trkpt>
<trkpt lat="23.109115" lon="113.137777">
<time>2016-10-06T10:25:47Z</time></trkpt>
<trkpt lat="23.108974" lon="113.137156">
<time>2016-10-06T10:25:48Z</time></trkpt>
<trkpt lat="23.108813" lon="113.136475">
<time>2016-10-06T10:25:49Z</time></trkpt>
<trkpt lat="23.108793" lon="113.136425">
<time>2016-10-06T10:25:50Z</time></trkpt>
<trkpt lat="23.108783" lon="113.136355">
<time>2016-10-06T10:25:51Z</time></trkpt>
<trkpt lat="23.108622" lon="113.135744">
<time>2016-10-06T10:25:52Z</time></trkpt>
<trkpt lat="23.108501" lon="113.135303">
<time>2016-10-06T10:25:53Z</time></trkpt>
<trkpt lat="23.108401" lon="113.134933">
<time>2016-10-06T10:25:54Z</time></trkpt>
<trkpt lat="23.10828" lon="113.134462">
<time>2016-10-06T10:25:55Z</time></trkpt>
<trkpt lat="23.10817" lon="113.134012">
<time>2016-10-06T10:25:56Z</time></trkpt>
<trkpt lat="23.108149" lon="113.133931">
<time>2016-10-06T10:25:57Z</time></trkpt>
<trkpt lat="23.108049" lon="113.133491">
<time>2016-10-06T10:25:58Z</time></trkpt>
<trkpt lat="23.107958" lon="113.13312">
<time>2016-10-06T10:25:59Z</time></trkpt>
<trkpt lat="23.107858" lon="113.13274">
<time>2016-10-06T10:26:00Z</time></trkpt>
<trkpt lat="23.107767" lon="113.132379">
<time>2016-10-06T10:26:01Z</time></trkpt>
<trkpt lat="23.107707" lon="113.132019">
<time>2016-10-06T10:26:02Z</time></trkpt>
<trkpt lat="23.107676" lon="113.131758">
<time>2016-10-06T10:26:03Z</time></trkpt>
<trkpt lat="23.107666" lon="113.131628">
<time>2016-10-06T10:26:04Z</time></trkpt>
<trkpt lat="23.107656" lon="113.131298">
<time>2016-10-06T10:26:05Z</time></trkpt>
<trkpt lat="23.107675" lon="113.130927">
<time>2016-10-06T10:26:06Z</time></trkpt>
<trkpt lat="23.107714" lon="113.130367">
<time>2016-10-06T10:26:07Z</time></trkpt>
<trkpt lat="23.107734" lon="113.130126">
<time>2016-10-06T10:26:08Z</time></trkpt>
<trkpt lat="23.107764" lon="113.129756">
<time>2016-10-06T10:26:09Z</time></trkpt>
<trkpt lat="23.107793" lon="113.129385">
<time>2016-10-06T10:26:10Z</time></trkpt>
<trkpt lat="23.107813" lon="113.129245">
<time>2016-10-06T10:26:11Z</time></trkpt>
<trkpt lat="23.107852" lon="113.128805">
<time>2016-10-06T10:26:12Z</time></trkpt>
<trkpt lat="23.107892" lon="113.128554">
<time>2016-10-06T10:26:13Z</time></trkpt>
<trkpt lat="23.107922" lon="113.128404">
<time>2016-10-06T10:26:14Z</time></trkpt>
<trkpt lat="23.107952" lon="113.128284">
<time>2016-10-06T10:26:15Z</time></trkpt>
<trkpt lat="23.108001" lon="113.128114">
<time>2016-10-06T10:26:16Z</time></trkpt>
<trkpt lat="23.108031" lon="113.128024">
<time>2016-10-06T10:26:17Z</time></trkpt>
<trkpt lat="23.108081" lon="113.127883">
<time>2016-10-06T10:26:18Z</time></trkpt>
<trkpt lat="23.108161" lon="113.127723">
<time>2016-10-06T10:26:19Z</time></trkpt>
<trkpt lat="23.10827" lon="113.127513">
<time>2016-10-06T10:26:20Z</time></trkpt>
<trkpt lat="23.10852" lon="113.127052">
<time>2016-10-06T10:26:21Z</time></trkpt>
<trkpt lat="23.108609" lon="113.126892">
<time>2016-10-06T10:26:22Z</time></trkpt>
<trkpt lat="23.108749" lon="113.126662">
<time>2016-10-06T10:26:23Z</time></trkpt>
<trkpt lat="23.108919" lon="113.126392">
<time>2016-10-06T10:26:24Z</time></trkpt>
<trkpt lat="23.109048" lon="113.126151">
<time>2016-10-06T10:26:25Z</time></trkpt>
<trkpt lat="23.109148" lon="113.125981">
<time>2016-10-06T10:26:26Z</time></trkpt>
<trkpt lat="23.109208" lon="113.125861">
<time>2016-10-06T10:26:27Z</time></trkpt>
<trkpt lat="23.109248" lon="113.125791">
<time>2016-10-06T10:26:28Z</time></trkpt>
<trkpt lat="23.109318" lon="113.125671">
<time>2016-10-06T10:26:29Z</time></trkpt>
<trkpt lat="23.109517" lon="113.1253">
<time>2016-10-06T10:26:30Z</time></trkpt>
<trkpt lat="23.109627" lon="113.12508">
<time>2016-10-06T10:26:31Z</time></trkpt>
<trkpt lat="23.109667" lon="113.125">
<time>2016-10-06T10:26:32Z</time></trkpt>
<trkpt lat="23.109736" lon="113.12485">
<time>2016-10-06T10:26:33Z</time></trkpt>
<trkpt lat="23.110095" lon="113.124219">
<time>2016-10-06T10:26:34Z</time></trkpt>
<trkpt lat="23.110455" lon="113.123568">
<time>2016-10-06T10:26:35Z</time></trkpt>
<trkpt lat="23.110494" lon="113.123508">
<time>2016-10-06T10:26:36Z</time></trkpt>
<trkpt lat="23.110514" lon="113.123458">
<time>2016-10-06T10:26:37Z</time></trkpt>
<trkpt lat="23.110664" lon="113.123178">
<time>2016-10-06T10:26:38Z</time></trkpt>
<trkpt lat="23.110844" lon="113.122848">
<time>2016-10-06T10:26:39Z</time></trkpt>
<trkpt lat="23.111512" lon="113.121626">
<time>2016-10-06T10:26:40Z</time></trkpt>
<trkpt lat="23.111851" lon="113.120986">
<time>2016-10-06T10:26:41Z</time></trkpt>
<trkpt lat="23.11218" lon="113.120395">
<time>2016-10-06T10:26:42Z</time></trkpt>
<trkpt lat="23.112489" lon="113.119824">
<time>2016-10-06T10:26:43Z</time></trkpt>
<trkpt lat="23.112699" lon="113.119444">
<time>2016-10-06T10:26:44Z</time></trkpt>
<trkpt lat="23.112859" lon="113.119104">
<time>2016-10-06T10:26:45Z</time></trkpt>
<trkpt lat="23.113108" lon="113.118613">
<time>2016-10-06T10:26:46Z</time></trkpt>
<trkpt lat="23.113268" lon="113.118303">
<time>2016-10-06T10:26:47Z</time></trkpt>
<trkpt lat="23.113477" lon="113.117833">
<time>2016-10-06T10:26:48Z</time></trkpt>
<trkpt lat="23.113477" lon="113.117833">
<time>2016-10-06T10:26:49Z</time></trkpt>
<trkpt lat="23.113657" lon="113.117813">
<time>2016-10-06T10:26:50Z</time></trkpt>
<trkpt lat="23.113657" lon="113.117813">
<time>2016-10-06T10:26:51Z</time></trkpt>
<trkpt lat="23.114336" lon="113.116812">
<time>2016-10-06T10:26:52Z</time></trkpt>
<trkpt lat="23.114455" lon="113.116632">
<time>2016-10-06T10:26:53Z</time></trkpt>
<trkpt lat="23.114635" lon="113.116361">
<time>2016-10-06T10:26:54Z</time></trkpt>
<trkpt lat="23.115134" lon="113.115661">
<time>2016-10-06T10:26:55Z</time></trkpt>
<trkpt lat="23.115324" lon="113.11538">
<time>2016-10-06T10:26:56Z</time></trkpt>
<trkpt lat="23.115424" lon="113.11523">
<time>2016-10-06T10:26:57Z</time></trkpt>
<trkpt lat="23.115454" lon="113.11518">
<time>2016-10-06T10:26:58Z</time></trkpt>
<trkpt lat="23.115973" lon="113.11447">
<time>2016-10-06T10:26:59Z</time></trkpt>
<trkpt lat="23.116352" lon="113.113929">
<time>2016-10-06T10:27:00Z</time></trkpt>
<trkpt lat="23.116722" lon="113.113419">
<time>2016-10-06T10:27:01Z</time></trkpt>
<trkpt lat="23.116762" lon="113.113359">
<time>2016-10-06T10:27:02Z</time></trkpt>
<trkpt lat="23.11753" lon="113.112298">
<time>2016-10-06T10:27:03Z</time></trkpt>
<trkpt lat="23.1177" lon="113.112038">
<time>2016-10-06T10:27:04Z</time></trkpt>
<trkpt lat="23.11789" lon="113.111738">
<time>2016-10-06T10:27:05Z</time></trkpt>
<trkpt lat="23.11797" lon="113.111608">
<time>2016-10-06T10:27:06Z</time></trkpt>
<trkpt lat="23.11802" lon="113.111528">
<time>2016-10-06T10:27:07Z</time></trkpt>
<trkpt lat="23.118079" lon="113.111388">
<time>2016-10-06T10:27:08Z</time></trkpt>
<trkpt lat="23.118119" lon="113.111287">
<time>2016-10-06T10:27:09Z</time></trkpt>
<trkpt lat="23.118159" lon="113.111187">
<time>2016-10-06T10:27:10Z</time></trkpt>
<trkpt lat="23.118219" lon="113.110957">
<time>2016-10-06T10:27:11Z</time></trkpt>
<trkpt lat="23.118279" lon="113.110667">
<time>2016-10-06T10:27:12Z</time></trkpt>
<trkpt lat="23.118329" lon="113.110337">
<time>2016-10-06T10:27:13Z</time></trkpt>
<trkpt lat="23.118418" lon="113.109687">
<time>2016-10-06T10:27:14Z</time></trkpt>
<trkpt lat="23.118537" lon="113.108916">
<time>2016-10-06T10:27:15Z</time></trkpt>
<trkpt lat="23.118637" lon="113.108286">
<time>2016-10-06T10:27:16Z</time></trkpt>
<trkpt lat="23.118747" lon="113.107736">
<time>2016-10-06T10:27:17Z</time></trkpt>
<trkpt lat="23.118826" lon="113.107325">
<time>2016-10-06T10:27:18Z</time></trkpt>
<trkpt lat="23.118866" lon="113.107055">
<time>2016-10-06T10:27:19Z</time></trkpt>
<trkpt lat="23.118906" lon="113.106815">
<time>2016-10-06T10:27:20Z</time></trkpt>
<trkpt lat="23.119025" lon="113.105975">
<time>2016-10-06T10:27:21Z</time></trkpt>
<trkpt lat="23.119185" lon="113.104814">
<time>2016-10-06T10:27:22Z</time></trkpt>
<trkpt lat="23.119195" lon="113.104684">
<time>2016-10-06T10:27:23Z</time></trkpt>
<trkpt lat="23.119424" lon="113.103054">
<time>2016-10-06T10:27:24Z</time></trkpt>
<trkpt lat="23.119474" lon="113.102694">
<time>2016-10-06T10:27:25Z</time></trkpt>
<trkpt lat="23.119553" lon="113.102154">
<time>2016-10-06T10:27:26Z</time></trkpt>
<trkpt lat="23.119623" lon="113.101613">
<time>2016-10-06T10:27:27Z</time></trkpt>
<trkpt lat="23.119653" lon="113.101383">
<time>2016-10-06T10:27:28Z</time></trkpt>
<trkpt lat="23.119693" lon="113.101163">
<time>2016-10-06T10:27:29Z</time></trkpt>
<trkpt lat="23.119723" lon="113.100993">
<time>2016-10-06T10:27:30Z</time></trkpt>
<trkpt lat="23.119743" lon="113.100863">
<time>2016-10-06T10:27:31Z</time></trkpt>
<trkpt lat="23.119833" lon="113.100473">
<time>2016-10-06T10:27:32Z</time></trkpt>
<trkpt lat="23.119873" lon="113.100333">
<time>2016-10-06T10:27:33Z</time></trkpt>
<trkpt lat="23.119982" lon="113.099953">
<time>2016-10-06T10:27:34Z</time></trkpt>
<trkpt lat="23.120142" lon="113.099463">
<time>2016-10-06T10:27:35Z</time></trkpt>
<trkpt lat="23.120172" lon="113.099383">
<time>2016-10-06T10:27:36Z</time></trkpt>
<trkpt lat="23.120292" lon="113.099123">
<time>2016-10-06T10:27:37Z</time></trkpt>
<trkpt lat="23.120332" lon="113.099033">
<time>2016-10-06T10:27:38Z</time></trkpt>
<trkpt lat="23.120472" lon="113.098743">
<time>2016-10-06T10:27:39Z</time></trkpt>
<trkpt lat="23.120622" lon="113.098453">
<time>2016-10-06T10:27:40Z</time></trkpt>
<trkpt lat="23.120941" lon="113.097823">
<time>2016-10-06T10:27:41Z</time></trkpt>
<trkpt lat="23.121251" lon="113.097223">
<time>2016-10-06T10:27:42Z</time></trkpt>
<trkpt lat="23.121401" lon="113.096933">
<time>2016-10-06T10:27:43Z</time></trkpt>
<trkpt lat="23.121611" lon="113.096523">
<time>2016-10-06T10:27:44Z</time></trkpt>
<trkpt lat="23.121781" lon="113.096173">
<time>2016-10-06T10:27:45Z</time></trkpt>
<trkpt lat="23.122121" lon="113.095523">
<time>2016-10-06T10:27:46Z</time></trkpt>
<trkpt lat="23.12221" lon="113.095333">
<time>2016-10-06T10:27:47Z</time></trkpt>
<trkpt lat="23.12246" lon="113.094863">
<time>2016-10-06T10:27:48Z</time></trkpt>
<trkpt lat="23.12257" lon="113.094633">
<time>2016-10-06T10:27:49Z</time></trkpt>
<trkpt lat="23.1228" lon="113.094183">
<time>2016-10-06T10:27:50Z</time></trkpt>
<trkpt lat="23.1229" lon="113.094003">
<time>2016-10-06T10:27:51Z</time></trkpt>
<trkpt lat="23.12305" lon="113.093693">
<time>2016-10-06T10:27:52Z</time></trkpt>
<trkpt lat="23.12314" lon="113.093523">
<time>2016-10-06T10:27:53Z</time></trkpt>
<trkpt lat="23.12358" lon="113.092653">
<time>2016-10-06T10:27:54Z</time></trkpt>
<trkpt lat="23.12384" lon="113.092164">
<time>2016-10-06T10:27:55Z</time></trkpt>
<trkpt lat="23.12408" lon="113.091684">
<time>2016-10-06T10:27:56Z</time></trkpt>
<trkpt lat="23.124269" lon="113.091304">
<time>2016-10-06T10:27:57Z</time></trkpt>
<trkpt lat="23.124409" lon="113.091024">
<time>2016-10-06T10:27:58Z</time></trkpt>
<trkpt lat="23.124529" lon="113.090774">
<time>2016-10-06T10:27:59Z</time></trkpt>
<trkpt lat="23.124589" lon="113.090614">
<time>2016-10-06T10:28:00Z</time></trkpt>
<trkpt lat="23.124669" lon="113.090384">
<time>2016-10-06T10:28:01Z</time></trkpt>
<trkpt lat="23.124749" lon="113.090104">
<time>2016-10-06T10:28:02Z</time></trkpt>
<trkpt lat="23.124839" lon="113.089764">
<time>2016-10-06T10:28:03Z</time></trkpt>
<trkpt lat="23.124909" lon="113.089424">
<time>2016-10-06T10:28:04Z</time></trkpt>
<trkpt lat="23.124939" lon="113.089244">
<time>2016-10-06T10:28:05Z</time></trkpt>
<trkpt lat="23.124969" lon="113.089094">
<time>2016-10-06T10:28:06Z</time></trkpt>
<trkpt lat="23.125009" lon="113.088855">
<time>2016-10-06T10:28:07Z</time></trkpt>
<trkpt lat="23.125059" lon="113.088575">
<time>2016-10-06T10:28:08Z</time></trkpt>
<trkpt lat="23.12515" lon="113.088155">
<time>2016-10-06T10:28:09Z</time></trkpt>
<trkpt lat="23.12516" lon="113.088095">
<time>2016-10-06T10:28:10Z</time></trkpt>
<trkpt lat="23.1252" lon="113.087895">
<time>2016-10-06T10:28:11Z</time></trkpt>
<trkpt lat="23.12551" lon="113.086316">
<time>2016-10-06T10:28:12Z</time></trkpt>
<trkpt lat="23.12559" lon="113.085916">
<time>2016-10-06T10:28:13Z</time></trkpt>
<trkpt lat="23.12565" lon="113.085646">
<time>2016-10-06T10:28:14Z</time></trkpt>
<trkpt lat="23.12569" lon="113.085446">
<time>2016-10-06T10:28:15Z</time></trkpt>
<trkpt lat="23.12579" lon="113.084957">
<time>2016-10-06T10:28:16Z</time></trkpt>
<trkpt lat="23.12589" lon="113.084537">
<time>2016-10-06T10:28:17Z</time></trkpt>
<trkpt lat="23.126381" lon="113.082758">
<time>2016-10-06T10:28:18Z</time></trkpt>
<trkpt lat="23.126631" lon="113.081899">
<time>2016-10-06T10:28:19Z</time></trkpt>
<trkpt lat="23.126731" lon="113.081489">
<time>2016-10-06T10:28:20Z</time></trkpt>
<trkpt lat="23.126851" lon="113.081109">
<time>2016-10-06T10:28:21Z</time></trkpt>
<trkpt lat="23.126992" lon="113.08066">
<time>2016-10-06T10:28:22Z</time></trkpt>
<trkpt lat="23.127202" lon="113.07995">
<time>2016-10-06T10:28:23Z</time></trkpt>
<trkpt lat="23.127282" lon="113.07966">
<time>2016-10-06T10:28:24Z</time></trkpt>
<trkpt lat="23.127643" lon="113.078471">
<time>2016-10-06T10:28:25Z</time></trkpt>
<trkpt lat="23.127793" lon="113.077922">
<time>2016-10-06T10:28:26Z</time></trkpt>
<trkpt lat="23.128033" lon="113.077083">
<time>2016-10-06T10:28:27Z</time></trkpt>
<trkpt lat="23.128224" lon="113.076433">
<time>2016-10-06T10:28:28Z</time></trkpt>
<trkpt lat="23.128354" lon="113.076014">
<time>2016-10-06T10:28:29Z</time></trkpt>
<trkpt lat="23.128434" lon="113.075724">
<time>2016-10-06T10:28:30Z</time></trkpt>
<trkpt lat="23.128685" lon="113.074905">
<time>2016-10-06T10:28:31Z</time></trkpt>
<trkpt lat="23.128915" lon="113.074096">
<time>2016-10-06T10:28:32Z</time></trkpt>
<trkpt lat="23.128935" lon="113.074026">
<time>2016-10-06T10:28:33Z</time></trkpt>
<trkpt lat="23.128985" lon="113.073836">
<time>2016-10-06T10:28:34Z</time></trkpt>
<trkpt lat="23.129096" lon="113.073467">
<time>2016-10-06T10:28:35Z</time></trkpt>
<trkpt lat="23.129096" lon="113.073467">
<time>2016-10-06T10:28:36Z</time></trkpt>
<trkpt lat="23.129106" lon="113.073397">
<time>2016-10-06T10:28:37Z</time></trkpt>
<trkpt lat="23.129226" lon="113.072967">
<time>2016-10-06T10:28:38Z</time></trkpt>
<trkpt lat="23.129256" lon="113.072857">
<time>2016-10-06T10:28:39Z</time></trkpt>
<trkpt lat="23.129326" lon="113.072648">
<time>2016-10-06T10:28:40Z</time></trkpt>
<trkpt lat="23.129346" lon="113.072598">
<time>2016-10-06T10:28:41Z</time></trkpt>
<trkpt lat="23.129376" lon="113.072518">
<time>2016-10-06T10:28:42Z</time></trkpt>
<trkpt lat="23.129487" lon="113.072178">
<time>2016-10-06T10:28:43Z</time></trkpt>
<trkpt lat="23.129677" lon="113.071549">
<time>2016-10-06T10:28:44Z</time></trkpt>
<trkpt lat="23.129808" lon="113.071119">
<time>2016-10-06T10:28:45Z</time></trkpt>
<trkpt lat="23.129918" lon="113.07073">
<time>2016-10-06T10:28:46Z</time></trkpt>
<trkpt lat="23.130018" lon="113.07043">
<time>2016-10-06T10:28:47Z</time></trkpt>
<trkpt lat="23.130068" lon="113.070281">
<time>2016-10-06T10:28:48Z</time></trkpt>
<trkpt lat="23.130138" lon="113.070101">
<time>2016-10-06T10:28:49Z</time></trkpt>
<trkpt lat="23.130219" lon="113.069911">
<time>2016-10-06T10:28:50Z</time></trkpt>
<trkpt lat="23.130309" lon="113.069761">
<time>2016-10-06T10:28:51Z</time></trkpt>
<trkpt lat="23.130379" lon="113.069641">
<time>2016-10-06T10:28:52Z</time></trkpt>
<trkpt lat="23.130509" lon="113.069452">
<time>2016-10-06T10:28:53Z</time></trkpt>
<trkpt lat="23.130869" lon="113.068972">
<time>2016-10-06T10:28:54Z</time></trkpt>
<trkpt lat="23.13136" lon="113.068303">
<time>2016-10-06T10:28:55Z</time></trkpt>
<trkpt lat="23.13179" lon="113.067724">
<time>2016-10-06T10:28:56Z</time></trkpt>
<trkpt lat="23.132161" lon="113.067225">
<time>2016-10-06T10:28:57Z</time></trkpt>
<trkpt lat="23.132491" lon="113.066725">
<time>2016-10-06T10:28:58Z</time></trkpt>
<trkpt lat="23.132561" lon="113.066566">
<time>2016-10-06T10:28:59Z</time></trkpt>
<trkpt lat="23.132642" lon="113.066376">
<time>2016-10-06T10:29:00Z</time></trkpt>
<trkpt lat="23.132702" lon="113.066176">
<time>2016-10-06T10:29:01Z</time></trkpt>
<trkpt lat="23.132762" lon="113.065987">
<time>2016-10-06T10:29:02Z</time></trkpt>
<trkpt lat="23.132913" lon="113.065318">
<time>2016-10-06T10:29:03Z</time></trkpt>
<trkpt lat="23.133023" lon="113.064798">
<time>2016-10-06T10:29:04Z</time></trkpt>
<trkpt lat="23.133124" lon="113.064329">
<time>2016-10-06T10:29:05Z</time></trkpt>
<trkpt lat="23.133214" lon="113.06391">
<time>2016-10-06T10:29:06Z</time></trkpt>
<trkpt lat="23.133285" lon="113.06361">
<time>2016-10-06T10:29:07Z</time></trkpt>
<trkpt lat="23.133375" lon="113.063211">
<time>2016-10-06T10:29:08Z</time></trkpt>
<trkpt lat="23.133415" lon="113.063071">
<time>2016-10-06T10:29:09Z</time></trkpt>
<trkpt lat="23.133516" lon="113.062622">
<time>2016-10-06T10:29:10Z</time></trkpt>
<trkpt lat="23.133707" lon="113.061823">
<time>2016-10-06T10:29:11Z</time></trkpt>
<trkpt lat="23.133747" lon="113.061664">
<time>2016-10-06T10:29:12Z</time></trkpt>
<trkpt lat="23.133818" lon="113.061314">
<time>2016-10-06T10:29:13Z</time></trkpt>
<trkpt lat="23.133858" lon="113.061125">
<time>2016-10-06T10:29:14Z</time></trkpt>
<trkpt lat="23.133878" lon="113.060965">
<time>2016-10-06T10:29:15Z</time></trkpt>
<trkpt lat="23.133888" lon="113.060675">
<time>2016-10-06T10:29:16Z</time></trkpt>
<trkpt lat="23.133889" lon="113.060426">
<time>2016-10-06T10:29:17Z</time></trkpt>
<trkpt lat="23.133889" lon="113.060306">
<time>2016-10-06T10:29:18Z</time></trkpt>
<trkpt lat="23.13385" lon="113.059857">
<time>2016-10-06T10:29:19Z</time></trkpt>
<trkpt lat="23.133761" lon="113.059048">
<time>2016-10-06T10:29:20Z</time></trkpt>
<trkpt lat="23.133653" lon="113.05797">
<time>2016-10-06T10:29:21Z</time></trkpt>
<trkpt lat="23.133534" lon="113.056873">
<time>2016-10-06T10:29:22Z</time></trkpt>
<trkpt lat="23.133426" lon="113.055805">
<time>2016-10-06T10:29:23Z</time></trkpt>
<trkpt lat="23.133357" lon="113.055186">
<time>2016-10-06T10:29:24Z</time></trkpt>
<trkpt lat="23.133308" lon="113.054697">
<time>2016-10-06T10:29:25Z</time></trkpt>
<trkpt lat="23.133209" lon="113.053829">
<time>2016-10-06T10:29:26Z</time></trkpt>
<trkpt lat="23.133111" lon="113.052891">
<time>2016-10-06T10:29:27Z</time></trkpt>
<trkpt lat="23.133082" lon="113.052532">
<time>2016-10-06T10:29:28Z</time></trkpt>
<trkpt lat="23.133052" lon="113.052222">
<time>2016-10-06T10:29:29Z</time></trkpt>
<trkpt lat="23.133033" lon="113.051843">
<time>2016-10-06T10:29:30Z</time></trkpt>
<trkpt lat="23.133033" lon="113.051584">
<time>2016-10-06T10:29:31Z</time></trkpt>
<trkpt lat="23.133044" lon="113.051334">
<time>2016-10-06T10:29:32Z</time></trkpt>
<trkpt lat="23.133065" lon="113.050785">
<time>2016-10-06T10:29:33Z</time></trkpt>
<trkpt lat="23.133127" lon="113.049758">
<time>2016-10-06T10:29:34Z</time></trkpt>
<trkpt lat="23.133188" lon="113.04885">
<time>2016-10-06T10:29:35Z</time></trkpt>
<trkpt lat="23.133209" lon="113.048451">
<time>2016-10-06T10:29:36Z</time></trkpt>
<trkpt lat="23.13325" lon="113.047832">
<time>2016-10-06T10:29:37Z</time></trkpt>
<trkpt lat="23.133281" lon="113.047323">
<time>2016-10-06T10:29:38Z</time></trkpt>
<trkpt lat="23.133312" lon="113.046865">
<time>2016-10-06T10:29:39Z</time></trkpt>
<trkpt lat="23.133333" lon="113.046575">
<time>2016-10-06T10:29:40Z</time></trkpt>
<trkpt lat="23.133363" lon="113.046376">
<time>2016-10-06T10:29:41Z</time></trkpt>
<trkpt lat="23.133394" lon="113.046166">
<time>2016-10-06T10:29:42Z</time></trkpt>
<trkpt lat="23.133434" lon="113.045967">
<time>2016-10-06T10:29:43Z</time></trkpt>
<trkpt lat="23.133474" lon="113.045787">
<time>2016-10-06T10:29:44Z</time></trkpt>
<trkpt lat="23.133535" lon="113.045578">
<time>2016-10-06T10:29:45Z</time></trkpt>
<trkpt lat="23.133766" lon="113.044919">
<time>2016-10-06T10:29:46Z</time></trkpt>
<trkpt lat="23.133816" lon="113.04479">
<time>2016-10-06T10:29:47Z</time></trkpt>
<trkpt lat="23.133877" lon="113.04462">
<time>2016-10-06T10:29:48Z</time></trkpt>
<trkpt lat="23.133937" lon="113.044411">
<time>2016-10-06T10:29:49Z</time></trkpt>
<trkpt lat="23.133987" lon="113.044231">
<time>2016-10-06T10:29:50Z</time></trkpt>
<trkpt lat="23.134018" lon="113.044101">
<time>2016-10-06T10:29:51Z</time></trkpt>
<trkpt lat="23.134038" lon="113.043962">
<time>2016-10-06T10:29:52Z</time></trkpt>
<trkpt lat="23.134058" lon="113.043822">
<time>2016-10-06T10:29:53Z</time></trkpt>
<trkpt lat="23.134078" lon="113.043682">
<time>2016-10-06T10:29:54Z</time></trkpt>
<trkpt lat="23.134089" lon="113.043523">
<time>2016-10-06T10:29:55Z</time></trkpt>
<trkpt lat="23.134099" lon="113.043393">
<time>2016-10-06T10:29:56Z</time></trkpt>
<trkpt lat="23.13411" lon="113.043014">
<time>2016-10-06T10:29:57Z</time></trkpt>
<trkpt lat="23.134091" lon="113.042535">
<time>2016-10-06T10:29:58Z</time></trkpt>
<trkpt lat="23.134062" lon="113.041867">
<time>2016-10-06T10:29:59Z</time></trkpt>
<trkpt lat="23.134043" lon="113.041358">
<time>2016-10-06T10:30:00Z</time></trkpt>
<trkpt lat="23.134044" lon="113.041059">
<time>2016-10-06T10:30:01Z</time></trkpt>
<trkpt lat="23.134055" lon="113.04083">
<time>2016-10-06T10:30:02Z</time></trkpt>
<trkpt lat="23.134065" lon="113.04072">
<time>2016-10-06T10:30:03Z</time></trkpt>
<trkpt lat="23.134075" lon="113.04059">
<time>2016-10-06T10:30:04Z</time></trkpt>
<trkpt lat="23.134095" lon="113.040451">
<time>2016-10-06T10:30:05Z</time></trkpt>
<trkpt lat="23.134156" lon="113.040152">
<time>2016-10-06T10:30:06Z</time></trkpt>
<trkpt lat="23.134207" lon="113.039912">
<time>2016-10-06T10:30:07Z</time></trkpt>
<trkpt lat="23.134287" lon="113.039673">
<time>2016-10-06T10:30:08Z</time></trkpt>
<trkpt lat="23.134388" lon="113.039414">
<time>2016-10-06T10:30:09Z</time></trkpt>
<trkpt lat="23.134508" lon="113.039144">
<time>2016-10-06T10:30:10Z</time></trkpt>
<trkpt lat="23.134629" lon="113.038915">
<time>2016-10-06T10:30:11Z</time></trkpt>
<trkpt lat="23.134769" lon="113.038686">
<time>2016-10-06T10:30:12Z</time></trkpt>
<trkpt lat="23.13492" lon="113.038436">
<time>2016-10-06T10:30:13Z</time></trkpt>
<trkpt lat="23.13507" lon="113.038207">
<time>2016-10-06T10:30:14Z</time></trkpt>
<trkpt lat="23.135201" lon="113.037967">
<time>2016-10-06T10:30:15Z</time></trkpt>
<trkpt lat="23.135311" lon="113.037758">
<time>2016-10-06T10:30:16Z</time></trkpt>
<trkpt lat="23.135402" lon="113.037539">
<time>2016-10-06T10:30:17Z</time></trkpt>
<trkpt lat="23.135472" lon="113.037329">
<time>2016-10-06T10:30:18Z</time></trkpt>
<trkpt lat="23.135512" lon="113.03718">
<time>2016-10-06T10:30:19Z</time></trkpt>
<trkpt lat="23.135543" lon="113.03706">
<time>2016-10-06T10:30:20Z</time></trkpt>
<trkpt lat="23.135563" lon="113.03693">
<time>2016-10-06T10:30:21Z</time></trkpt>
<trkpt lat="23.135583" lon="113.036771">
<time>2016-10-06T10:30:22Z</time></trkpt>
<trkpt lat="23.135604" lon="113.036601">
<time>2016-10-06T10:30:23Z</time></trkpt>
<trkpt lat="23.135614" lon="113.036462">
<time>2016-10-06T10:30:24Z</time></trkpt>
<trkpt lat="23.135614" lon="113.036372">
<time>2016-10-06T10:30:25Z</time></trkpt>
<trkpt lat="23.135615" lon="113.036212">
<time>2016-10-06T10:30:26Z</time></trkpt>
<trkpt lat="23.135605" lon="113.036133">
<time>2016-10-06T10:30:27Z</time></trkpt>
<trkpt lat="23.135605" lon="113.036033">
<time>2016-10-06T10:30:28Z</time></trkpt>
<trkpt lat="23.135586" lon="113.035704">
<time>2016-10-06T10:30:29Z</time></trkpt>
<trkpt lat="23.135576" lon="113.035644">
<time>2016-10-06T10:30:30Z</time></trkpt>
<trkpt lat="23.135537" lon="113.034976">
<time>2016-10-06T10:30:31Z</time></trkpt>
<trkpt lat="23.135489" lon="113.034388">
<time>2016-10-06T10:30:32Z</time></trkpt>
<trkpt lat="23.13545" lon="113.033889">
<time>2016-10-06T10:30:33Z</time></trkpt>
<trkpt lat="23.135401" lon="113.03347">
<time>2016-10-06T10:30:34Z</time></trkpt>
<trkpt lat="23.135352" lon="113.033201">
<time>2016-10-06T10:30:35Z</time></trkpt>
<trkpt lat="23.135322" lon="113.033021">
<time>2016-10-06T10:30:36Z</time></trkpt>
<trkpt lat="23.135263" lon="113.032852">
<time>2016-10-06T10:30:37Z</time></trkpt>
<trkpt lat="23.135183" lon="113.032613">
<time>2016-10-06T10:30:38Z</time></trkpt>
<trkpt lat="23.134995" lon="113.032084">
<time>2016-10-06T10:30:39Z</time></trkpt>
<trkpt lat="23.134826" lon="113.031586">
<time>2016-10-06T10:30:40Z</time></trkpt>
<trkpt lat="23.134727" lon="113.031317">
<time>2016-10-06T10:30:41Z</time></trkpt>
<trkpt lat="23.134578" lon="113.030878">
<time>2016-10-06T10:30:42Z</time></trkpt>
<trkpt lat="23.134429" lon="113.030429">
<time>2016-10-06T10:30:43Z</time></trkpt>
<trkpt lat="23.13436" lon="113.0302">
<time>2016-10-06T10:30:44Z</time></trkpt>
<trkpt lat="23.13431" lon="113.03007">
<time>2016-10-06T10:30:45Z</time></trkpt>
<trkpt lat="23.13426" lon="113.029931">
<time>2016-10-06T10:30:46Z</time></trkpt>
<trkpt lat="23.134211" lon="113.029821">
<time>2016-10-06T10:30:47Z</time></trkpt>
<trkpt lat="23.134052" lon="113.029492">
<time>2016-10-06T10:30:48Z</time></trkpt>
<trkpt lat="23.133992" lon="113.029372">
<time>2016-10-06T10:30:49Z</time></trkpt>
<trkpt lat="23.133872" lon="113.029193">
<time>2016-10-06T10:30:50Z</time></trkpt>
<trkpt lat="23.133823" lon="113.029123">
<time>2016-10-06T10:30:51Z</time></trkpt>
<trkpt lat="23.133743" lon="113.029043">
<time>2016-10-06T10:30:52Z</time></trkpt>
<trkpt lat="23.133683" lon="113.028974">
<time>2016-10-06T10:30:53Z</time></trkpt>
<trkpt lat="23.133603" lon="113.028894">
<time>2016-10-06T10:30:54Z</time></trkpt>
<trkpt lat="23.133504" lon="113.028794">
<time>2016-10-06T10:30:55Z</time></trkpt>
<trkpt lat="23.133444" lon="113.028744">
<time>2016-10-06T10:30:56Z</time></trkpt>
<trkpt lat="23.133314" lon="113.028635">
<time>2016-10-06T10:30:57Z</time></trkpt>
<trkpt lat="23.133125" lon="113.028495">
<time>2016-10-06T10:30:58Z</time></trkpt>
<trkpt lat="23.132975" lon="113.028405">
<time>2016-10-06T10:30:59Z</time></trkpt>
<trkpt lat="23.132825" lon="113.028336">
<time>2016-10-06T10:31:00Z</time></trkpt>
<trkpt lat="23.132715" lon="113.028286">
<time>2016-10-06T10:31:01Z</time></trkpt>
<trkpt lat="23.132546" lon="113.028196">
<time>2016-10-06T10:31:02Z</time></trkpt>
<trkpt lat="23.132316" lon="113.028037">
<time>2016-10-06T10:31:03Z</time></trkpt>
<trkpt lat="23.132027" lon="113.027827">
<time>2016-10-06T10:31:04Z</time></trkpt>
<trkpt lat="23.131837" lon="113.027678">
<time>2016-10-06T10:31:05Z</time></trkpt>
<trkpt lat="23.131678" lon="113.027508">
<time>2016-10-06T10:31:06Z</time></trkpt>
<trkpt lat="23.131588" lon="113.027429">
<time>2016-10-06T10:31:07Z</time></trkpt>
<trkpt lat="23.131508" lon="113.027339">
<time>2016-10-06T10:31:08Z</time></trkpt>
<trkpt lat="23.131329" lon="113.027149">
<time>2016-10-06T10:31:09Z</time></trkpt>
<trkpt lat="23.131289" lon="113.02709">
<time>2016-10-06T10:31:10Z</time></trkpt>
<trkpt lat="23.131229" lon="113.02702">
<time>2016-10-06T10:31:11Z</time></trkpt>
<trkpt lat="23.1311" lon="113.02686">
<time>2016-10-06T10:31:12Z</time></trkpt>
<trkpt lat="23.130831" lon="113.026432">
<time>2016-10-06T10:31:13Z</time></trkpt>
<trkpt lat="23.130731" lon="113.026242">
<time>2016-10-06T10:31:14Z</time></trkpt>
<trkpt lat="23.130622" lon="113.026023">
<time>2016-10-06T10:31:15Z</time></trkpt>
<trkpt lat="23.130503" lon="113.025714">
<time>2016-10-06T10:31:16Z</time></trkpt>
<trkpt lat="23.130414" lon="113.025485">
<time>2016-10-06T10:31:17Z</time></trkpt>
<trkpt lat="23.130255" lon="113.024986">
<time>2016-10-06T10:31:18Z</time></trkpt>
<trkpt lat="23.130126" lon="113.024528">
<time>2016-10-06T10:31:19Z</time></trkpt>
<trkpt lat="23.130047" lon="113.024229">
<time>2016-10-06T10:31:20Z</time></trkpt>
<trkpt lat="23.130018" lon="113.023979">
<time>2016-10-06T10:31:21Z</time></trkpt>
<trkpt lat="23.130018" lon="113.02383">
<time>2016-10-06T10:31:22Z</time></trkpt>
<trkpt lat="23.130038" lon="113.0237">
<time>2016-10-06T10:31:23Z</time></trkpt>
<trkpt lat="23.130069" lon="113.023571">
<time>2016-10-06T10:31:24Z</time></trkpt>
<trkpt lat="23.130109" lon="113.023461">
<time>2016-10-06T10:31:25Z</time></trkpt>
<trkpt lat="23.130149" lon="113.023361">
<time>2016-10-06T10:31:26Z</time></trkpt>
<trkpt lat="23.130179" lon="113.023302">
<time>2016-10-06T10:31:27Z</time></trkpt>
<trkpt lat="23.13024" lon="113.023192">
<time>2016-10-06T10:31:28Z</time></trkpt>
<trkpt lat="23.130531" lon="113.022743">
<time>2016-10-06T10:31:29Z</time></trkpt>
<trkpt lat="23.130671" lon="113.022554">
<time>2016-10-06T10:31:30Z</time></trkpt>
<trkpt lat="23.130822" lon="113.022325">
<time>2016-10-06T10:31:31Z</time></trkpt>
<trkpt lat="23.130932" lon="113.022135">
<time>2016-10-06T10:31:32Z</time></trkpt>
<trkpt lat="23.131023" lon="113.021976">
<time>2016-10-06T10:31:33Z</time></trkpt>
<trkpt lat="23.131103" lon="113.021767">
<time>2016-10-06T10:31:34Z</time></trkpt>
<trkpt lat="23.131174" lon="113.021537">
<time>2016-10-06T10:31:35Z</time></trkpt>
<trkpt lat="23.131224" lon="113.021328">
<time>2016-10-06T10:31:36Z</time></trkpt>
<trkpt lat="23.131255" lon="113.021149">
<time>2016-10-06T10:31:37Z</time></trkpt>
<trkpt lat="23.131265" lon="113.020999">
<time>2016-10-06T10:31:38Z</time></trkpt>
<trkpt lat="23.131266" lon="113.020889">
<time>2016-10-06T10:31:39Z</time></trkpt>
<trkpt lat="23.131266" lon="113.0208">
<time>2016-10-06T10:31:40Z</time></trkpt>
<trkpt lat="23.131266" lon="113.02069">
<time>2016-10-06T10:31:41Z</time></trkpt>
<trkpt lat="23.131256" lon="113.02061">
<time>2016-10-06T10:31:42Z</time></trkpt>
<trkpt lat="23.131237" lon="113.020491">
<time>2016-10-06T10:31:43Z</time></trkpt>
<trkpt lat="23.131227" lon="113.020411">
<time>2016-10-06T10:31:44Z</time></trkpt>
<trkpt lat="23.131207" lon="113.020331">
<time>2016-10-06T10:31:45Z</time></trkpt>
<trkpt lat="23.131168" lon="113.020152">
<time>2016-10-06T10:31:46Z</time></trkpt>
<trkpt lat="23.131118" lon="113.019982">
<time>2016-10-06T10:31:47Z</time></trkpt>
<trkpt lat="23.131069" lon="113.019863">
<time>2016-10-06T10:31:48Z</time></trkpt>
<trkpt lat="23.131039" lon="113.019773">
<time>2016-10-06T10:31:49Z</time></trkpt>
<trkpt lat="23.130989" lon="113.019673">
<time>2016-10-06T10:31:50Z</time></trkpt>
<trkpt lat="23.130949" lon="113.019594">
<time>2016-10-06T10:31:51Z</time></trkpt>
<trkpt lat="23.13087" lon="113.019464">
<time>2016-10-06T10:31:52Z</time></trkpt>
<trkpt lat="23.13079" lon="113.019344">
<time>2016-10-06T10:31:53Z</time></trkpt>
<trkpt lat="23.13072" lon="113.019265">
<time>2016-10-06T10:31:54Z</time></trkpt>
<trkpt lat="23.130601" lon="113.019115">
<time>2016-10-06T10:31:55Z</time></trkpt>
<trkpt lat="23.130541" lon="113.019045">
<time>2016-10-06T10:31:56Z</time></trkpt>
<trkpt lat="23.130491" lon="113.018996">
<time>2016-10-06T10:31:57Z</time></trkpt>
<trkpt lat="23.130411" lon="113.018926">
<time>2016-10-06T10:31:58Z</time></trkpt>
<trkpt lat="23.130362" lon="113.018876">
<time>2016-10-06T10:31:59Z</time></trkpt>
<trkpt lat="23.130242" lon="113.018786">
<time>2016-10-06T10:32:00Z</time></trkpt>
<trkpt lat="23.130162" lon="113.018717">
<time>2016-10-06T10:32:01Z</time></trkpt>
<trkpt lat="23.130102" lon="113.018667">
<time>2016-10-06T10:32:02Z</time></trkpt>
<trkpt lat="23.130022" lon="113.018617">
<time>2016-10-06T10:32:03Z</time></trkpt>
<trkpt lat="23.129953" lon="113.018557">
<time>2016-10-06T10:32:04Z</time></trkpt>
<trkpt lat="23.129853" lon="113.018487">
<time>2016-10-06T10:32:05Z</time></trkpt>
<trkpt lat="23.129554" lon="113.018278">
<time>2016-10-06T10:32:06Z</time></trkpt>
<trkpt lat="23.129284" lon="113.018089">
<time>2016-10-06T10:32:07Z</time></trkpt>
<trkpt lat="23.128975" lon="113.017869">
<time>2016-10-06T10:32:08Z</time></trkpt>
<trkpt lat="23.128835" lon="113.01774">
<time>2016-10-06T10:32:09Z</time></trkpt>
<trkpt lat="23.128756" lon="113.01765">
<time>2016-10-06T10:32:10Z</time></trkpt>
<trkpt lat="23.128666" lon="113.017541">
<time>2016-10-06T10:32:11Z</time></trkpt>
<trkpt lat="23.128596" lon="113.017411">
<time>2016-10-06T10:32:12Z</time></trkpt>
<trkpt lat="23.128547" lon="113.017301">
<time>2016-10-06T10:32:13Z</time></trkpt>
<trkpt lat="23.128527" lon="113.017232">
<time>2016-10-06T10:32:14Z</time></trkpt>
<trkpt lat="23.128507" lon="113.017162">
<time>2016-10-06T10:32:15Z</time></trkpt>
<trkpt lat="23.128477" lon="113.017062">
<time>2016-10-06T10:32:16Z</time></trkpt>
<trkpt lat="23.128458" lon="113.016953">
<time>2016-10-06T10:32:17Z</time></trkpt>
<trkpt lat="23.128438" lon="113.016853">
<time>2016-10-06T10:32:18Z</time></trkpt>
<trkpt lat="23.128428" lon="113.016793">
<time>2016-10-06T10:32:19Z</time></trkpt>
<trkpt lat="23.128429" lon="113.016693">
<time>2016-10-06T10:32:20Z</time></trkpt>
<trkpt lat="23.128429" lon="113.016584">
<time>2016-10-06T10:32:21Z</time></trkpt>
<trkpt lat="23.128429" lon="113.016514">
<time>2016-10-06T10:32:22Z</time></trkpt>
<trkpt lat="23.128449" lon="113.016365">
<time>2016-10-06T10:32:23Z</time></trkpt>
<trkpt lat="23.12842" lon="113.016175">
<time>2016-10-06T10:32:24Z</time></trkpt>
<trkpt lat="23.12843" lon="113.016016">
<time>2016-10-06T10:32:25Z</time></trkpt>
<trkpt lat="23.128451" lon="113.015816">
<time>2016-10-06T10:32:26Z</time></trkpt>
<trkpt lat="23.128472" lon="113.015647">
<time>2016-10-06T10:32:27Z</time></trkpt>
<trkpt lat="23.128532" lon="113.015358">
<time>2016-10-06T10:32:28Z</time></trkpt>
<trkpt lat="23.128542" lon="113.015298">
<time>2016-10-06T10:32:29Z</time></trkpt>
<trkpt lat="23.128563" lon="113.015228">
<time>2016-10-06T10:32:30Z</time></trkpt>
<trkpt lat="23.128603" lon="113.015089">
<time>2016-10-06T10:32:31Z</time></trkpt>
<trkpt lat="23.128684" lon="113.01479">
<time>2016-10-06T10:32:32Z</time></trkpt>
<trkpt lat="23.128957" lon="113.013783">
<time>2016-10-06T10:32:33Z</time></trkpt>
<trkpt lat="23.129421" lon="113.012169">
<time>2016-10-06T10:32:34Z</time></trkpt>
<trkpt lat="23.129552" lon="113.01173">
<time>2016-10-06T10:32:35Z</time></trkpt>
<trkpt lat="23.129694" lon="113.011312">
<time>2016-10-06T10:32:36Z</time></trkpt>
<trkpt lat="23.129865" lon="113.010883">
<time>2016-10-06T10:32:37Z</time></trkpt>
<trkpt lat="23.129986" lon="113.010584">
<time>2016-10-06T10:32:38Z</time></trkpt>
<trkpt lat="23.130157" lon="113.010196">
<time>2016-10-06T10:32:39Z</time></trkpt>
<trkpt lat="23.130519" lon="113.009458">
<time>2016-10-06T10:32:40Z</time></trkpt>
<trkpt lat="23.130629" lon="113.009219">
<time>2016-10-06T10:32:41Z</time></trkpt>
<trkpt lat="23.13072" lon="113.00903">
<time>2016-10-06T10:32:42Z</time></trkpt>
<trkpt lat="23.13081" lon="113.00885">
<time>2016-10-06T10:32:43Z</time></trkpt>
<trkpt lat="23.131142" lon="113.008182">
<time>2016-10-06T10:32:44Z</time></trkpt>
<trkpt lat="23.131374" lon="113.007704">
<time>2016-10-06T10:32:45Z</time></trkpt>
<trkpt lat="23.131535" lon="113.007355">
<time>2016-10-06T10:32:46Z</time></trkpt>
<trkpt lat="23.131645" lon="113.007076">
<time>2016-10-06T10:32:47Z</time></trkpt>
<trkpt lat="23.131766" lon="113.006787">
<time>2016-10-06T10:32:48Z</time></trkpt>
<trkpt lat="23.131827" lon="113.006608">
<time>2016-10-06T10:32:49Z</time></trkpt>
<trkpt lat="23.131877" lon="113.006429">
<time>2016-10-06T10:32:50Z</time></trkpt>
<trkpt lat="23.131938" lon="113.006219">
<time>2016-10-06T10:32:51Z</time></trkpt>
<trkpt lat="23.132019" lon="113.00594">
<time>2016-10-06T10:32:52Z</time></trkpt>
<trkpt lat="23.132079" lon="113.005661">
<time>2016-10-06T10:32:53Z</time></trkpt>
<trkpt lat="23.13213" lon="113.005382">
<time>2016-10-06T10:32:54Z</time></trkpt>
<trkpt lat="23.132161" lon="113.005223">
<time>2016-10-06T10:32:55Z</time></trkpt>
<trkpt lat="23.132191" lon="113.005033">
<time>2016-10-06T10:32:56Z</time></trkpt>
<trkpt lat="23.132222" lon="113.004725">
<time>2016-10-06T10:32:57Z</time></trkpt>
<trkpt lat="23.132233" lon="113.004545">
<time>2016-10-06T10:32:58Z</time></trkpt>
<trkpt lat="23.132243" lon="113.004336">
<time>2016-10-06T10:32:59Z</time></trkpt>
<trkpt lat="23.132244" lon="113.003937">
<time>2016-10-06T10:33:00Z</time></trkpt>
<trkpt lat="23.132198" lon="113.002652">
<time>2016-10-06T10:33:01Z</time></trkpt>
<trkpt lat="23.132199" lon="113.002303">
<time>2016-10-06T10:33:02Z</time></trkpt>
<trkpt lat="23.1322" lon="113.002104">
<time>2016-10-06T10:33:03Z</time></trkpt>
<trkpt lat="23.132211" lon="113.001924">
<time>2016-10-06T10:33:04Z</time></trkpt>
<trkpt lat="23.132221" lon="113.001665">
<time>2016-10-06T10:33:05Z</time></trkpt>
<trkpt lat="23.132242" lon="113.001496">
<time>2016-10-06T10:33:06Z</time></trkpt>
<trkpt lat="23.132283" lon="113.001257">
<time>2016-10-06T10:33:07Z</time></trkpt>
<trkpt lat="23.132343" lon="113.001018">
<time>2016-10-06T10:33:08Z</time></trkpt>
<trkpt lat="23.132414" lon="113.000749">
<time>2016-10-06T10:33:09Z</time></trkpt>
<trkpt lat="23.132475" lon="113.000579">
<time>2016-10-06T10:33:10Z</time></trkpt>
<trkpt lat="23.132525" lon="113.00043">
<time>2016-10-06T10:33:11Z</time></trkpt>
<trkpt lat="23.132616" lon="113.00022">
<time>2016-10-06T10:33:12Z</time></trkpt>
<trkpt lat="23.132726" lon="112.999981">
<time>2016-10-06T10:33:13Z</time></trkpt>
<trkpt lat="23.132837" lon="112.999792">
<time>2016-10-06T10:33:14Z</time></trkpt>
<trkpt lat="23.132987" lon="112.999553">
<time>2016-10-06T10:33:15Z</time></trkpt>
<trkpt lat="23.133128" lon="112.999354">
<time>2016-10-06T10:33:16Z</time></trkpt>
<trkpt lat="23.133319" lon="112.999124">
<time>2016-10-06T10:33:17Z</time></trkpt>
<trkpt lat="23.133479" lon="112.998935">
<time>2016-10-06T10:33:18Z</time></trkpt>
<trkpt lat="23.13368" lon="112.998716">
<time>2016-10-06T10:33:19Z</time></trkpt>
<trkpt lat="23.13377" lon="112.998616">
<time>2016-10-06T10:33:20Z</time></trkpt>
<trkpt lat="23.134231" lon="112.998128">
<time>2016-10-06T10:33:21Z</time></trkpt>
<trkpt lat="23.134843" lon="112.99749">
<time>2016-10-06T10:33:22Z</time></trkpt>
<trkpt lat="23.135585" lon="112.996713">
<time>2016-10-06T10:33:23Z</time></trkpt>
<trkpt lat="23.135976" lon="112.996314">
<time>2016-10-06T10:33:24Z</time></trkpt>
<trkpt lat="23.136137" lon="112.996135">
<time>2016-10-06T10:33:25Z</time></trkpt>
<trkpt lat="23.136287" lon="112.995955">
<time>2016-10-06T10:33:26Z</time></trkpt>
<trkpt lat="23.136417" lon="112.995796">
<time>2016-10-06T10:33:27Z</time></trkpt>
<trkpt lat="23.136548" lon="112.995627">
<time>2016-10-06T10:33:28Z</time></trkpt>
<trkpt lat="23.136688" lon="112.995437">
<time>2016-10-06T10:33:29Z</time></trkpt>
<trkpt lat="23.136859" lon="112.995208">
<time>2016-10-06T10:33:30Z</time></trkpt>
<trkpt lat="23.13699" lon="112.995019">
<time>2016-10-06T10:33:31Z</time></trkpt>
<trkpt lat="23.1371" lon="112.994839">
<time>2016-10-06T10:33:32Z</time></trkpt>
<trkpt lat="23.137221" lon="112.99465">
<time>2016-10-06T10:33:33Z</time></trkpt>
<trkpt lat="23.137351" lon="112.994411">
<time>2016-10-06T10:33:34Z</time></trkpt>
<trkpt lat="23.137502" lon="112.994112">
<time>2016-10-06T10:33:35Z</time></trkpt>
<trkpt lat="23.137633" lon="112.993843">
<time>2016-10-06T10:33:36Z</time></trkpt>
<trkpt lat="23.137764" lon="112.993534">
<time>2016-10-06T10:33:37Z</time></trkpt>
<trkpt lat="23.137885" lon="112.993215">
<time>2016-10-06T10:33:38Z</time></trkpt>
<trkpt lat="23.137975" lon="112.992986">
<time>2016-10-06T10:33:39Z</time></trkpt>
<trkpt lat="23.138036" lon="112.992767">
<time>2016-10-06T10:33:40Z</time></trkpt>
<trkpt lat="23.138056" lon="112.992707">
<time>2016-10-06T10:33:41Z</time></trkpt>
<trkpt lat="23.138097" lon="112.992567">
<time>2016-10-06T10:33:42Z</time></trkpt>
<trkpt lat="23.138441" lon="112.991222">
<time>2016-10-06T10:33:43Z</time></trkpt>
<trkpt lat="23.138673" lon="112.990475">
<time>2016-10-06T10:33:44Z</time></trkpt>
<trkpt lat="23.138915" lon="112.989748">
<time>2016-10-06T10:33:45Z</time></trkpt>
<trkpt lat="23.139026" lon="112.989449">
<time>2016-10-06T10:33:46Z</time></trkpt>
<trkpt lat="23.139106" lon="112.989229">
<time>2016-10-06T10:33:47Z</time></trkpt>
<trkpt lat="23.139489" lon="112.988193">
<time>2016-10-06T10:33:48Z</time></trkpt>
<trkpt lat="23.139671" lon="112.987675">
<time>2016-10-06T10:33:49Z</time></trkpt>
<trkpt lat="23.139903" lon="112.987027">
<time>2016-10-06T10:33:50Z</time></trkpt>
<trkpt lat="23.140003" lon="112.986768">
<time>2016-10-06T10:33:51Z</time></trkpt>
<trkpt lat="23.140296" lon="112.985981">
<time>2016-10-06T10:33:52Z</time></trkpt>
<trkpt lat="23.140447" lon="112.985542">
<time>2016-10-06T10:33:53Z</time></trkpt>
<trkpt lat="23.140578" lon="112.985134">
<time>2016-10-06T10:33:54Z</time></trkpt>
<trkpt lat="23.140659" lon="112.984825">
<time>2016-10-06T10:33:55Z</time></trkpt>
<trkpt lat="23.14072" lon="112.984536">
<time>2016-10-06T10:33:56Z</time></trkpt>
<trkpt lat="23.140771" lon="112.984237">
<time>2016-10-06T10:33:57Z</time></trkpt>
<trkpt lat="23.140781" lon="112.984157">
<time>2016-10-06T10:33:58Z</time></trkpt>
<trkpt lat="23.140781" lon="112.984127">
<time>2016-10-06T10:33:59Z</time></trkpt>
<trkpt lat="23.140791" lon="112.984058">
<time>2016-10-06T10:34:00Z</time></trkpt>
<trkpt lat="23.140792" lon="112.983998">
<time>2016-10-06T10:34:01Z</time></trkpt>
<trkpt lat="23.140802" lon="112.983868">
<time>2016-10-06T10:34:02Z</time></trkpt>
<trkpt lat="23.140803" lon="112.983629">
<time>2016-10-06T10:34:03Z</time></trkpt>
<trkpt lat="23.140793" lon="112.98339">
<time>2016-10-06T10:34:04Z</time></trkpt>
<trkpt lat="23.140784" lon="112.983151">
<time>2016-10-06T10:34:05Z</time></trkpt>
<trkpt lat="23.140755" lon="112.982872">
<time>2016-10-06T10:34:06Z</time></trkpt>
<trkpt lat="23.140706" lon="112.982533">
<time>2016-10-06T10:34:07Z</time></trkpt>
<trkpt lat="23.140647" lon="112.982154">
<time>2016-10-06T10:34:08Z</time></trkpt>
<trkpt lat="23.140529" lon="112.981397">
<time>2016-10-06T10:34:09Z</time></trkpt>
<trkpt lat="23.140294" lon="112.979892">
<time>2016-10-06T10:34:10Z</time></trkpt>
<trkpt lat="23.140196" lon="112.979205">
<time>2016-10-06T10:34:11Z</time></trkpt>
<trkpt lat="23.140167" lon="112.978995">
<time>2016-10-06T10:34:12Z</time></trkpt>
<trkpt lat="23.140147" lon="112.978796">
<time>2016-10-06T10:34:13Z</time></trkpt>
<trkpt lat="23.140118" lon="112.978507">
<time>2016-10-06T10:34:14Z</time></trkpt>
<trkpt lat="23.140109" lon="112.978248">
<time>2016-10-06T10:34:15Z</time></trkpt>
<trkpt lat="23.14012" lon="112.977999">
<time>2016-10-06T10:34:16Z</time></trkpt>
<trkpt lat="23.14013" lon="112.97778">
<time>2016-10-06T10:34:17Z</time></trkpt>
<trkpt lat="23.140151" lon="112.97755">
<time>2016-10-06T10:34:18Z</time></trkpt>
<trkpt lat="23.140171" lon="112.977371">
<time>2016-10-06T10:34:19Z</time></trkpt>
<trkpt lat="23.140202" lon="112.977192">
<time>2016-10-06T10:34:20Z</time></trkpt>
<trkpt lat="23.140253" lon="112.976972">
<time>2016-10-06T10:34:21Z</time></trkpt>
<trkpt lat="23.140323" lon="112.976693">
<time>2016-10-06T10:34:22Z</time></trkpt>
<trkpt lat="23.140394" lon="112.976464">
<time>2016-10-06T10:34:23Z</time></trkpt>
<trkpt lat="23.140485" lon="112.976205">
<time>2016-10-06T10:34:24Z</time></trkpt>
<trkpt lat="23.140595" lon="112.975896">
<time>2016-10-06T10:34:25Z</time></trkpt>
<trkpt lat="23.140787" lon="112.975388">
<time>2016-10-06T10:34:26Z</time></trkpt>
<trkpt lat="23.140918" lon="112.975029">
<time>2016-10-06T10:34:27Z</time></trkpt>
<trkpt lat="23.140989" lon="112.97479">
<time>2016-10-06T10:34:28Z</time></trkpt>
<trkpt lat="23.141049" lon="112.974571">
<time>2016-10-06T10:34:29Z</time></trkpt>
<trkpt lat="23.14111" lon="112.974291">
<time>2016-10-06T10:34:30Z</time></trkpt>
<trkpt lat="23.141141" lon="112.974062">
<time>2016-10-06T10:34:31Z</time></trkpt>
<trkpt lat="23.141171" lon="112.973793">
<time>2016-10-06T10:34:32Z</time></trkpt>
<trkpt lat="23.141192" lon="112.973534">
<time>2016-10-06T10:34:33Z</time></trkpt>
<trkpt lat="23.141203" lon="112.973315">
<time>2016-10-06T10:34:34Z</time></trkpt>
<trkpt lat="23.141194" lon="112.972996">
<time>2016-10-06T10:34:35Z</time></trkpt>
<trkpt lat="23.141174" lon="112.972727">
<time>2016-10-06T10:34:36Z</time></trkpt>
<trkpt lat="23.141155" lon="112.972478">
<time>2016-10-06T10:34:37Z</time></trkpt>
<trkpt lat="23.141116" lon="112.972209">
<time>2016-10-06T10:34:38Z</time></trkpt>
<trkpt lat="23.141077" lon="112.971979">
<time>2016-10-06T10:34:39Z</time></trkpt>
<trkpt lat="23.141008" lon="112.97163">
<time>2016-10-06T10:34:40Z</time></trkpt>
<trkpt lat="23.140938" lon="112.971302">
<time>2016-10-06T10:34:41Z</time></trkpt>
<trkpt lat="23.140849" lon="112.970983">
<time>2016-10-06T10:34:42Z</time></trkpt>
<trkpt lat="23.14077" lon="112.970724">
<time>2016-10-06T10:34:43Z</time></trkpt>
<trkpt lat="23.140661" lon="112.970405">
<time>2016-10-06T10:34:44Z</time></trkpt>
<trkpt lat="23.140592" lon="112.970215">
<time>2016-10-06T10:34:45Z</time></trkpt>
<trkpt lat="23.140492" lon="112.969976">
<time>2016-10-06T10:34:46Z</time></trkpt>
<trkpt lat="23.140373" lon="112.969707">
<time>2016-10-06T10:34:47Z</time></trkpt>
<trkpt lat="23.140224" lon="112.969398">
<time>2016-10-06T10:34:48Z</time></trkpt>
<trkpt lat="23.140055" lon="112.969079">
<time>2016-10-06T10:34:49Z</time></trkpt>
<trkpt lat="23.139916" lon="112.96884">
<time>2016-10-06T10:34:50Z</time></trkpt>
<trkpt lat="23.139727" lon="112.968521">
<time>2016-10-06T10:34:51Z</time></trkpt>
<trkpt lat="23.139518" lon="112.968222">
<time>2016-10-06T10:34:52Z</time></trkpt>
<trkpt lat="23.139338" lon="112.967983">
<time>2016-10-06T10:34:53Z</time></trkpt>
<trkpt lat="23.139159" lon="112.967753">
<time>2016-10-06T10:34:54Z</time></trkpt>
<trkpt lat="23.13886" lon="112.967375">
<time>2016-10-06T10:34:55Z</time></trkpt>
<trkpt lat="23.137794" lon="112.966079">
<time>2016-10-06T10:34:56Z</time></trkpt>
<trkpt lat="23.136579" lon="112.964584">
<time>2016-10-06T10:34:57Z</time></trkpt>
<trkpt lat="23.136409" lon="112.964374">
<time>2016-10-06T10:34:58Z</time></trkpt>
<trkpt lat="23.13626" lon="112.964175">
<time>2016-10-06T10:34:59Z</time></trkpt>
<trkpt lat="23.13613" lon="112.964006">
<time>2016-10-06T10:35:00Z</time></trkpt>
<trkpt lat="23.136031" lon="112.963866">
<time>2016-10-06T10:35:01Z</time></trkpt>
<trkpt lat="23.135931" lon="112.963727">
<time>2016-10-06T10:35:02Z</time></trkpt>
<trkpt lat="23.135852" lon="112.963607">
<time>2016-10-06T10:35:03Z</time></trkpt>
<trkpt lat="23.135772" lon="112.963467">
<time>2016-10-06T10:35:04Z</time></trkpt>
<trkpt lat="23.135722" lon="112.963368">
<time>2016-10-06T10:35:05Z</time></trkpt>
<trkpt lat="23.135623" lon="112.963178">
<time>2016-10-06T10:35:06Z</time></trkpt>
<trkpt lat="23.135504" lon="112.962909">
<time>2016-10-06T10:35:07Z</time></trkpt>
<trkpt lat="23.135404" lon="112.96263">
<time>2016-10-06T10:35:08Z</time></trkpt>
<trkpt lat="23.135325" lon="112.962351">
<time>2016-10-06T10:35:09Z</time></trkpt>
<trkpt lat="23.135256" lon="112.962032">
<time>2016-10-06T10:35:10Z</time></trkpt>
<trkpt lat="23.135217" lon="112.961783">
<time>2016-10-06T10:35:11Z</time></trkpt>
<trkpt lat="23.135187" lon="112.961504">
<time>2016-10-06T10:35:12Z</time></trkpt>
<trkpt lat="23.135178" lon="112.961234">
<time>2016-10-06T10:35:13Z</time></trkpt>
<trkpt lat="23.135178" lon="112.961204">
<time>2016-10-06T10:35:14Z</time></trkpt>
<trkpt lat="23.135178" lon="112.961105">
<time>2016-10-06T10:35:15Z</time></trkpt>
<trkpt lat="23.135179" lon="112.961015">
<time>2016-10-06T10:35:16Z</time></trkpt>
<trkpt lat="23.135179" lon="112.960915">
<time>2016-10-06T10:35:17Z</time></trkpt>
<trkpt lat="23.135189" lon="112.960816">
<time>2016-10-06T10:35:18Z</time></trkpt>
<trkpt lat="23.135199" lon="112.960716">
<time>2016-10-06T10:35:19Z</time></trkpt>
<trkpt lat="23.13521" lon="112.960616">
<time>2016-10-06T10:35:20Z</time></trkpt>
<trkpt lat="23.13522" lon="112.960517">
<time>2016-10-06T10:35:21Z</time></trkpt>
<trkpt lat="23.13523" lon="112.960427">
<time>2016-10-06T10:35:22Z</time></trkpt>
<trkpt lat="23.13525" lon="112.960327">
<time>2016-10-06T10:35:23Z</time></trkpt>
<trkpt lat="23.135271" lon="112.960227">
<time>2016-10-06T10:35:24Z</time></trkpt>
<trkpt lat="23.135291" lon="112.960138">
<time>2016-10-06T10:35:25Z</time></trkpt>
<trkpt lat="23.135311" lon="112.960038">
<time>2016-10-06T10:35:26Z</time></trkpt>
<trkpt lat="23.135331" lon="112.959948">
<time>2016-10-06T10:35:27Z</time></trkpt>
<trkpt lat="23.135362" lon="112.959849">
<time>2016-10-06T10:35:28Z</time></trkpt>
<trkpt lat="23.135392" lon="112.959759">
<time>2016-10-06T10:35:29Z</time></trkpt>
<trkpt lat="23.135422" lon="112.959669">
<time>2016-10-06T10:35:30Z</time></trkpt>
<trkpt lat="23.135452" lon="112.959579">
<time>2016-10-06T10:35:31Z</time></trkpt>
<trkpt lat="23.135482" lon="112.95949">
<time>2016-10-06T10:35:32Z</time></trkpt>
<trkpt lat="23.135523" lon="112.9594">
<time>2016-10-06T10:35:33Z</time></trkpt>
<trkpt lat="23.135553" lon="112.95931">
<time>2016-10-06T10:35:34Z</time></trkpt>
<trkpt lat="23.135613" lon="112.959191">
<time>2016-10-06T10:35:35Z</time></trkpt>
<trkpt lat="23.135834" lon="112.958752">
<time>2016-10-06T10:35:36Z</time></trkpt>
<trkpt lat="23.136065" lon="112.958343">
<time>2016-10-06T10:35:37Z</time></trkpt>
<trkpt lat="23.136336" lon="112.957885">
<time>2016-10-06T10:35:38Z</time></trkpt>
<trkpt lat="23.136547" lon="112.957555">
<time>2016-10-06T10:35:39Z</time></trkpt>
<trkpt lat="23.136898" lon="112.956987">
<time>2016-10-06T10:35:40Z</time></trkpt>
<trkpt lat="23.137059" lon="112.956708">
<time>2016-10-06T10:35:41Z</time></trkpt>
<trkpt lat="23.13745" lon="112.95606">
<time>2016-10-06T10:35:42Z</time></trkpt>
<trkpt lat="23.138243" lon="112.954754">
<time>2016-10-06T10:35:43Z</time></trkpt>
<trkpt lat="23.139236" lon="112.953108">
<time>2016-10-06T10:35:44Z</time></trkpt>
<trkpt lat="23.140501" lon="112.951014">
<time>2016-10-06T10:35:45Z</time></trkpt>
<trkpt lat="23.140661" lon="112.950735">
<time>2016-10-06T10:35:46Z</time></trkpt>
<trkpt lat="23.140772" lon="112.950525">
<time>2016-10-06T10:35:47Z</time></trkpt>
<trkpt lat="23.140912" lon="112.950226">
<time>2016-10-06T10:35:48Z</time></trkpt>
<trkpt lat="23.141013" lon="112.949987">
<time>2016-10-06T10:35:49Z</time></trkpt>
<trkpt lat="23.141053" lon="112.949887">
<time>2016-10-06T10:35:50Z</time></trkpt>
<trkpt lat="23.141083" lon="112.949797">
<time>2016-10-06T10:35:51Z</time></trkpt>
<trkpt lat="23.141114" lon="112.949708">
<time>2016-10-06T10:35:52Z</time></trkpt>
<trkpt lat="23.141234" lon="112.949329">
<time>2016-10-06T10:35:53Z</time></trkpt>
<trkpt lat="23.141285" lon="112.949149">
<time>2016-10-06T10:35:54Z</time></trkpt>
<trkpt lat="23.141305" lon="112.949049">
<time>2016-10-06T10:35:55Z</time></trkpt>
<trkpt lat="23.141325" lon="112.94896">
<time>2016-10-06T10:35:56Z</time></trkpt>
<trkpt lat="23.141436" lon="112.948381">
<time>2016-10-06T10:35:57Z</time></trkpt>
<trkpt lat="23.141548" lon="112.947633">
<time>2016-10-06T10:35:58Z</time></trkpt>
<trkpt lat="23.141629" lon="112.947124">
<time>2016-10-06T10:35:59Z</time></trkpt>
<trkpt lat="23.1417" lon="112.946676">
<time>2016-10-06T10:36:00Z</time></trkpt>
<trkpt lat="23.141832" lon="112.945818">
<time>2016-10-06T10:36:01Z</time></trkpt>
<trkpt lat="23.141893" lon="112.945369">
<time>2016-10-06T10:36:02Z</time></trkpt>
<trkpt lat="23.141994" lon="112.944741">
<time>2016-10-06T10:36:03Z</time></trkpt>
<trkpt lat="23.142004" lon="112.944681">
<time>2016-10-06T10:36:04Z</time></trkpt>
<trkpt lat="23.142014" lon="112.944651">
<time>2016-10-06T10:36:05Z</time></trkpt>
<trkpt lat="23.142045" lon="112.944421">
<time>2016-10-06T10:36:06Z</time></trkpt>
<trkpt lat="23.142115" lon="112.944112">
<time>2016-10-06T10:36:07Z</time></trkpt>
<trkpt lat="23.142176" lon="112.943863">
<time>2016-10-06T10:36:08Z</time></trkpt>
<trkpt lat="23.142286" lon="112.943494">
<time>2016-10-06T10:36:09Z</time></trkpt>
<trkpt lat="23.142316" lon="112.943404">
<time>2016-10-06T10:36:10Z</time></trkpt>
<trkpt lat="23.142347" lon="112.943304">
<time>2016-10-06T10:36:11Z</time></trkpt>
<trkpt lat="23.142417" lon="112.943125">
<time>2016-10-06T10:36:12Z</time></trkpt>
<trkpt lat="23.142457" lon="112.943035">
<time>2016-10-06T10:36:13Z</time></trkpt>
<trkpt lat="23.142497" lon="112.942945">
<time>2016-10-06T10:36:14Z</time></trkpt>
<trkpt lat="23.142537" lon="112.942855">
<time>2016-10-06T10:36:15Z</time></trkpt>
<trkpt lat="23.142578" lon="112.942775">
<time>2016-10-06T10:36:16Z</time></trkpt>
<trkpt lat="23.142798" lon="112.942346">
<time>2016-10-06T10:36:17Z</time></trkpt>
<trkpt lat="23.142899" lon="112.942187">
<time>2016-10-06T10:36:18Z</time></trkpt>
<trkpt lat="23.144262" lon="112.940012">
<time>2016-10-06T10:36:19Z</time></trkpt>
<trkpt lat="23.144473" lon="112.939673">
<time>2016-10-06T10:36:20Z</time></trkpt>
<trkpt lat="23.145255" lon="112.938425">
<time>2016-10-06T10:36:21Z</time></trkpt>
<trkpt lat="23.146057" lon="112.937178">
<time>2016-10-06T10:36:22Z</time></trkpt>
<trkpt lat="23.146909" lon="112.935801">
<time>2016-10-06T10:36:23Z</time></trkpt>
<trkpt lat="23.147029" lon="112.935602">
<time>2016-10-06T10:36:24Z</time></trkpt>
<trkpt lat="23.149124" lon="112.932278">
<time>2016-10-06T10:36:25Z</time></trkpt>
<trkpt lat="23.150717" lon="112.929733">
<time>2016-10-06T10:36:26Z</time></trkpt>
<trkpt lat="23.150837" lon="112.929544">
<time>2016-10-06T10:36:27Z</time></trkpt>
<trkpt lat="23.150917" lon="112.929394">
<time>2016-10-06T10:36:28Z</time></trkpt>
<trkpt lat="23.151008" lon="112.929234">
<time>2016-10-06T10:36:29Z</time></trkpt>
<trkpt lat="23.151108" lon="112.929054">
<time>2016-10-06T10:36:30Z</time></trkpt>
<trkpt lat="23.151178" lon="112.928905">
<time>2016-10-06T10:36:31Z</time></trkpt>
<trkpt lat="23.151268" lon="112.928725">
<time>2016-10-06T10:36:32Z</time></trkpt>
<trkpt lat="23.151348" lon="112.928535">
<time>2016-10-06T10:36:33Z</time></trkpt>
<trkpt lat="23.151429" lon="112.928356">
<time>2016-10-06T10:36:34Z</time></trkpt>
<trkpt lat="23.151489" lon="112.928166">
<time>2016-10-06T10:36:35Z</time></trkpt>
<trkpt lat="23.151539" lon="112.928006">
<time>2016-10-06T10:36:36Z</time></trkpt>
<trkpt lat="23.151599" lon="112.927827">
<time>2016-10-06T10:36:37Z</time></trkpt>
<trkpt lat="23.15165" lon="112.927607">
<time>2016-10-06T10:36:38Z</time></trkpt>
<trkpt lat="23.1517" lon="112.927357">
<time>2016-10-06T10:36:39Z</time></trkpt>
<trkpt lat="23.15175" lon="112.927078">
<time>2016-10-06T10:36:40Z</time></trkpt>
<trkpt lat="23.151771" lon="112.926918">
<time>2016-10-06T10:36:41Z</time></trkpt>
<trkpt lat="23.151791" lon="112.926769">
<time>2016-10-06T10:36:42Z</time></trkpt>
<trkpt lat="23.151821" lon="112.926509">
<time>2016-10-06T10:36:43Z</time></trkpt>
<trkpt lat="23.151841" lon="112.926289">
<time>2016-10-06T10:36:44Z</time></trkpt>
<trkpt lat="23.151963" lon="112.924992">
<time>2016-10-06T10:36:45Z</time></trkpt>
<trkpt lat="23.152125" lon="112.923364">
<time>2016-10-06T10:36:46Z</time></trkpt>
<trkpt lat="23.152246" lon="112.922006">
<time>2016-10-06T10:36:47Z</time></trkpt>
<trkpt lat="23.152277" lon="112.921617">
<time>2016-10-06T10:36:48Z</time></trkpt>
<trkpt lat="23.152307" lon="112.921317">
<time>2016-10-06T10:36:49Z</time></trkpt>
<trkpt lat="23.152358" lon="112.920808">
<time>2016-10-06T10:36:50Z</time></trkpt>
<trkpt lat="23.152378" lon="112.920598">
<time>2016-10-06T10:36:51Z</time></trkpt>
<trkpt lat="23.152388" lon="112.920419">
<time>2016-10-06T10:36:52Z</time></trkpt>
<trkpt lat="23.152398" lon="112.920309">
<time>2016-10-06T10:36:53Z</time></trkpt>
<trkpt lat="23.152418" lon="112.920149">
<time>2016-10-06T10:36:54Z</time></trkpt>
<trkpt lat="23.152489" lon="112.9194">
<time>2016-10-06T10:36:55Z</time></trkpt>
<trkpt lat="23.152732" lon="112.916744">
<time>2016-10-06T10:36:56Z</time></trkpt>
<trkpt lat="23.152802" lon="112.916005">
<time>2016-10-06T10:36:57Z</time></trkpt>
<trkpt lat="23.152863" lon="112.915415">
<time>2016-10-06T10:36:58Z</time></trkpt>
<trkpt lat="23.152883" lon="112.915186">
<time>2016-10-06T10:36:59Z</time></trkpt>
<trkpt lat="23.152893" lon="112.914976">
<time>2016-10-06T10:37:00Z</time></trkpt>
<trkpt lat="23.152903" lon="112.914796">
<time>2016-10-06T10:37:01Z</time></trkpt>
<trkpt lat="23.152903" lon="112.914616">
<time>2016-10-06T10:37:02Z</time></trkpt>
<trkpt lat="23.152903" lon="112.914466">
<time>2016-10-06T10:37:03Z</time></trkpt>
<trkpt lat="23.152894" lon="112.914287">
<time>2016-10-06T10:37:04Z</time></trkpt>
<trkpt lat="23.152884" lon="112.914127">
<time>2016-10-06T10:37:05Z</time></trkpt>
<trkpt lat="23.152874" lon="112.913917">
<time>2016-10-06T10:37:06Z</time></trkpt>
<trkpt lat="23.152854" lon="112.913687">
<time>2016-10-06T10:37:07Z</time></trkpt>
<trkpt lat="23.152824" lon="112.913418">
<time>2016-10-06T10:37:08Z</time></trkpt>
<trkpt lat="23.152765" lon="112.912868">
<time>2016-10-06T10:37:09Z</time></trkpt>
<trkpt lat="23.152755" lon="112.912758">
<time>2016-10-06T10:37:10Z</time></trkpt>
<trkpt lat="23.152546" lon="112.91059">
<time>2016-10-06T10:37:11Z</time></trkpt>
<trkpt lat="23.152507" lon="112.910231">
<time>2016-10-06T10:37:12Z</time></trkpt>
<trkpt lat="23.152497" lon="112.910041">
<time>2016-10-06T10:37:13Z</time></trkpt>
<trkpt lat="23.152487" lon="112.909891">
<time>2016-10-06T10:37:14Z</time></trkpt>
<trkpt lat="23.152487" lon="112.909631">
<time>2016-10-06T10:37:15Z</time></trkpt>
<trkpt lat="23.152487" lon="112.909402">
<time>2016-10-06T10:37:16Z</time></trkpt>
<trkpt lat="23.152507" lon="112.909222">
<time>2016-10-06T10:37:17Z</time></trkpt>
<trkpt lat="23.152527" lon="112.909062">
<time>2016-10-06T10:37:18Z</time></trkpt>
<trkpt lat="23.152547" lon="112.908932">
<time>2016-10-06T10:37:19Z</time></trkpt>
<trkpt lat="23.152587" lon="112.908752">
<time>2016-10-06T10:37:20Z</time></trkpt>
<trkpt lat="23.152637" lon="112.908552">
<time>2016-10-06T10:37:21Z</time></trkpt>
<trkpt lat="23.152698" lon="112.908313">
<time>2016-10-06T10:37:22Z</time></trkpt>
<trkpt lat="23.152788" lon="112.908053">
<time>2016-10-06T10:37:23Z</time></trkpt>
<trkpt lat="23.152908" lon="112.907773">
<time>2016-10-06T10:37:24Z</time></trkpt>
<trkpt lat="23.153018" lon="112.907503">
<time>2016-10-06T10:37:25Z</time></trkpt>
<trkpt lat="23.153168" lon="112.907183">
<time>2016-10-06T10:37:26Z</time></trkpt>
<trkpt lat="23.153668" lon="112.906124">
<time>2016-10-06T10:37:27Z</time></trkpt>
<trkpt lat="23.154048" lon="112.905335">
<time>2016-10-06T10:37:28Z</time></trkpt>
<trkpt lat="23.154529" lon="112.904315">
<time>2016-10-06T10:37:29Z</time></trkpt>
<trkpt lat="23.154889" lon="112.903576">
<time>2016-10-06T10:37:30Z</time></trkpt>
<trkpt lat="23.155049" lon="112.903246">
<time>2016-10-06T10:37:31Z</time></trkpt>
<trkpt lat="23.155489" lon="112.902327">
<time>2016-10-06T10:37:32Z</time></trkpt>
<trkpt lat="23.156249" lon="112.900707">
<time>2016-10-06T10:37:33Z</time></trkpt>
<trkpt lat="23.156639" lon="112.899838">
<time>2016-10-06T10:37:34Z</time></trkpt>
<trkpt lat="23.156819" lon="112.899428">
<time>2016-10-06T10:37:35Z</time></trkpt>
<trkpt lat="23.156969" lon="112.899088">
<time>2016-10-06T10:37:36Z</time></trkpt>
<trkpt lat="23.157009" lon="112.898998">
<time>2016-10-06T10:37:37Z</time></trkpt>
<trkpt lat="23.157059" lon="112.898908">
<time>2016-10-06T10:37:38Z</time></trkpt>
<trkpt lat="23.157109" lon="112.898818">
<time>2016-10-06T10:37:39Z</time></trkpt>
<trkpt lat="23.157169" lon="112.898738">
<time>2016-10-06T10:37:40Z</time></trkpt>
<trkpt lat="23.157219" lon="112.898658">
<time>2016-10-06T10:37:41Z</time></trkpt>
<trkpt lat="23.157279" lon="112.898578">
<time>2016-10-06T10:37:42Z</time></trkpt>
<trkpt lat="23.157339" lon="112.898508">
<time>2016-10-06T10:37:43Z</time></trkpt>
<trkpt lat="23.157399" lon="112.898428">
<time>2016-10-06T10:37:44Z</time></trkpt>
<trkpt lat="23.157469" lon="112.898368">
<time>2016-10-06T10:37:45Z</time></trkpt>
<trkpt lat="23.157549" lon="112.898308">
<time>2016-10-06T10:37:46Z</time></trkpt>
<trkpt lat="23.157619" lon="112.898248">
<time>2016-10-06T10:37:47Z</time></trkpt>
<trkpt lat="23.157668" lon="112.898218">
<time>2016-10-06T10:37:48Z</time></trkpt>
<trkpt lat="23.157798" lon="112.898138">
<time>2016-10-06T10:37:49Z</time></trkpt>
<trkpt lat="23.157958" lon="112.898068">
<time>2016-10-06T10:37:50Z</time></trkpt>
<trkpt lat="23.158128" lon="112.898018">
<time>2016-10-06T10:37:51Z</time></trkpt>
<trkpt lat="23.158318" lon="112.897958">
<time>2016-10-06T10:37:52Z</time></trkpt>
<trkpt lat="23.158568" lon="112.897898">
<time>2016-10-06T10:37:53Z</time></trkpt>
<trkpt lat="23.160567" lon="112.897418">
<time>2016-10-06T10:37:54Z</time></trkpt>
<trkpt lat="23.160627" lon="112.897408">
<time>2016-10-06T10:37:55Z</time></trkpt>
<trkpt lat="23.160987" lon="112.897328">
<time>2016-10-06T10:37:56Z</time></trkpt>
<trkpt lat="23.161477" lon="112.897248">
<time>2016-10-06T10:37:57Z</time></trkpt>
<trkpt lat="23.161737" lon="112.897188">
<time>2016-10-06T10:37:58Z</time></trkpt>
<trkpt lat="23.162077" lon="112.897108">
<time>2016-10-06T10:37:59Z</time></trkpt>
<trkpt lat="23.162287" lon="112.897068">
<time>2016-10-06T10:38:00Z</time></trkpt>
<trkpt lat="23.162567" lon="112.896989">
<time>2016-10-06T10:38:01Z</time></trkpt>
<trkpt lat="23.162817" lon="112.896889">
<time>2016-10-06T10:38:02Z</time></trkpt>
<trkpt lat="23.163256" lon="112.896719">
<time>2016-10-06T10:38:03Z</time></trkpt>
<trkpt lat="23.163446" lon="112.896639">
<time>2016-10-06T10:38:04Z</time></trkpt>
<trkpt lat="23.163606" lon="112.896569">
<time>2016-10-06T10:38:05Z</time></trkpt>
<trkpt lat="23.163776" lon="112.896489">
<time>2016-10-06T10:38:06Z</time></trkpt>
<trkpt lat="23.164056" lon="112.896339">
<time>2016-10-06T10:38:07Z</time></trkpt>
<trkpt lat="23.164276" lon="112.896209">
<time>2016-10-06T10:38:08Z</time></trkpt>
<trkpt lat="23.164456" lon="112.896089">
<time>2016-10-06T10:38:09Z</time></trkpt>
<trkpt lat="23.164686" lon="112.895929">
<time>2016-10-06T10:38:10Z</time></trkpt>
<trkpt lat="23.164876" lon="112.895789">
<time>2016-10-06T10:38:11Z</time></trkpt>
<trkpt lat="23.165036" lon="112.895659">
<time>2016-10-06T10:38:12Z</time></trkpt>
<trkpt lat="23.165216" lon="112.895499">
<time>2016-10-06T10:38:13Z</time></trkpt>
<trkpt lat="23.165346" lon="112.895379">
<time>2016-10-06T10:38:14Z</time></trkpt>
<trkpt lat="23.165525" lon="112.895199">
<time>2016-10-06T10:38:15Z</time></trkpt>
<trkpt lat="23.165765" lon="112.894949">
<time>2016-10-06T10:38:16Z</time></trkpt>
<trkpt lat="23.165945" lon="112.894749">
<time>2016-10-06T10:38:17Z</time></trkpt>
<trkpt lat="23.166075" lon="112.894579">
<time>2016-10-06T10:38:18Z</time></trkpt>
<trkpt lat="23.166175" lon="112.894459">
<time>2016-10-06T10:38:19Z</time></trkpt>
<trkpt lat="23.166245" lon="112.894349">
<time>2016-10-06T10:38:20Z</time></trkpt>
<trkpt lat="23.166325" lon="112.894259">
<time>2016-10-06T10:38:21Z</time></trkpt>
<trkpt lat="23.166385" lon="112.894169">
<time>2016-10-06T10:38:22Z</time></trkpt>
<trkpt lat="23.166445" lon="112.894079">
<time>2016-10-06T10:38:23Z</time></trkpt>
<trkpt lat="23.166535" lon="112.893929">
<time>2016-10-06T10:38:24Z</time></trkpt>
<trkpt lat="23.166625" lon="112.893779">
<time>2016-10-06T10:38:25Z</time></trkpt>
<trkpt lat="23.166665" lon="112.893709">
<time>2016-10-06T10:38:26Z</time></trkpt>
<trkpt lat="23.166705" lon="112.893639">
<time>2016-10-06T10:38:27Z</time></trkpt>
<trkpt lat="23.166845" lon="112.893379">
<time>2016-10-06T10:38:28Z</time></trkpt>
<trkpt lat="23.166875" lon="112.893319">
<time>2016-10-06T10:38:29Z</time></trkpt>
<trkpt lat="23.166965" lon="112.893149">
<time>2016-10-06T10:38:30Z</time></trkpt>
<trkpt lat="23.167105" lon="112.892839">
<time>2016-10-06T10:38:31Z</time></trkpt>
<trkpt lat="23.167194" lon="112.892599">
<time>2016-10-06T10:38:32Z</time></trkpt>
<trkpt lat="23.167274" lon="112.892429">
<time>2016-10-06T10:38:33Z</time></trkpt>
<trkpt lat="23.167334" lon="112.892289">
<time>2016-10-06T10:38:34Z</time></trkpt>
<trkpt lat="23.167464" lon="112.891959">
<time>2016-10-06T10:38:35Z</time></trkpt>
<trkpt lat="23.167524" lon="112.891819">
<time>2016-10-06T10:38:36Z</time></trkpt>
<trkpt lat="23.167634" lon="112.891539">
<time>2016-10-06T10:38:37Z</time></trkpt>
<trkpt lat="23.167804" lon="112.891129">
<time>2016-10-06T10:38:38Z</time></trkpt>
<trkpt lat="23.167884" lon="112.890949">
<time>2016-10-06T10:38:39Z</time></trkpt>
<trkpt lat="23.168194" lon="112.890239">
<time>2016-10-06T10:38:40Z</time></trkpt>
<trkpt lat="23.168583" lon="112.889309">
<time>2016-10-06T10:38:41Z</time></trkpt>
<trkpt lat="23.168633" lon="112.889189">
<time>2016-10-06T10:38:42Z</time></trkpt>
<trkpt lat="23.168883" lon="112.888569">
<time>2016-10-06T10:38:43Z</time></trkpt>
<trkpt lat="23.169132" lon="112.887979">
<time>2016-10-06T10:38:44Z</time></trkpt>
<trkpt lat="23.169142" lon="112.887949">
<time>2016-10-06T10:38:45Z</time></trkpt>
<trkpt lat="23.169452" lon="112.887209">
<time>2016-10-06T10:38:46Z</time></trkpt>
<trkpt lat="23.169921" lon="112.886109">
<time>2016-10-06T10:38:47Z</time></trkpt>
<trkpt lat="23.170331" lon="112.885138">
<time>2016-10-06T10:38:48Z</time></trkpt>
<trkpt lat="23.170411" lon="112.884958">
<time>2016-10-06T10:38:49Z</time></trkpt>
<trkpt lat="23.17069" lon="112.884298">
<time>2016-10-06T10:38:50Z</time></trkpt>
<trkpt lat="23.17086" lon="112.883878">
<time>2016-10-06T10:38:51Z</time></trkpt>
<trkpt lat="23.171199" lon="112.883098">
<time>2016-10-06T10:38:52Z</time></trkpt>
<trkpt lat="23.171279" lon="112.882928">
<time>2016-10-06T10:38:53Z</time></trkpt>
<trkpt lat="23.171329" lon="112.882818">
<time>2016-10-06T10:38:54Z</time></trkpt>
<trkpt lat="23.171429" lon="112.882588">
<time>2016-10-06T10:38:55Z</time></trkpt>
<trkpt lat="23.171509" lon="112.882387">
<time>2016-10-06T10:38:56Z</time></trkpt>
<trkpt lat="23.171519" lon="112.882357">
<time>2016-10-06T10:38:57Z</time></trkpt>
<trkpt lat="23.171639" lon="112.882077">
<time>2016-10-06T10:38:58Z</time></trkpt>
<trkpt lat="23.171668" lon="112.881997">
<time>2016-10-06T10:38:59Z</time></trkpt>
<trkpt lat="23.171818" lon="112.881637">
<time>2016-10-06T10:39:00Z</time></trkpt>
<trkpt lat="23.171928" lon="112.881387">
<time>2016-10-06T10:39:01Z</time></trkpt>
<trkpt lat="23.172158" lon="112.880817">
<time>2016-10-06T10:39:02Z</time></trkpt>
<trkpt lat="23.172207" lon="112.880697">
<time>2016-10-06T10:39:03Z</time></trkpt>
<trkpt lat="23.172457" lon="112.880107">
<time>2016-10-06T10:39:04Z</time></trkpt>
<trkpt lat="23.172597" lon="112.879776">
<time>2016-10-06T10:39:05Z</time></trkpt>
<trkpt lat="23.173126" lon="112.878516">
<time>2016-10-06T10:39:06Z</time></trkpt>
<trkpt lat="23.173315" lon="112.878065">
<time>2016-10-06T10:39:07Z</time></trkpt>
<trkpt lat="23.173365" lon="112.877945">
<time>2016-10-06T10:39:08Z</time></trkpt>
<trkpt lat="23.173395" lon="112.877885">
<time>2016-10-06T10:39:09Z</time></trkpt>
<trkpt lat="23.173415" lon="112.877835">
<time>2016-10-06T10:39:10Z</time></trkpt>
<trkpt lat="23.173694" lon="112.877175">
<time>2016-10-06T10:39:11Z</time></trkpt>
<trkpt lat="23.173874" lon="112.876765">
<time>2016-10-06T10:39:12Z</time></trkpt>
<trkpt lat="23.173914" lon="112.876675">
<time>2016-10-06T10:39:13Z</time></trkpt>
<trkpt lat="23.173954" lon="112.876585">
<time>2016-10-06T10:39:14Z</time></trkpt>
<trkpt lat="23.174073" lon="112.876324">
<time>2016-10-06T10:39:15Z</time></trkpt>
<trkpt lat="23.174113" lon="112.876214">
<time>2016-10-06T10:39:16Z</time></trkpt>
<trkpt lat="23.174263" lon="112.875844">
<time>2016-10-06T10:39:17Z</time></trkpt>
<trkpt lat="23.174363" lon="112.875624">
<time>2016-10-06T10:39:18Z</time></trkpt>
<trkpt lat="23.174383" lon="112.875564">
<time>2016-10-06T10:39:19Z</time></trkpt>
<trkpt lat="23.174502" lon="112.875264">
<time>2016-10-06T10:39:20Z</time></trkpt>
<trkpt lat="23.174602" lon="112.875004">
<time>2016-10-06T10:39:21Z</time></trkpt>
<trkpt lat="23.174682" lon="112.874773">
<time>2016-10-06T10:39:22Z</time></trkpt>
<trkpt lat="23.174732" lon="112.874623">
<time>2016-10-06T10:39:23Z</time></trkpt>
<trkpt lat="23.174752" lon="112.874553">
<time>2016-10-06T10:39:24Z</time></trkpt>
<trkpt lat="23.174831" lon="112.874273">
<time>2016-10-06T10:39:25Z</time></trkpt>
<trkpt lat="23.174851" lon="112.874193">
<time>2016-10-06T10:39:26Z</time></trkpt>
<trkpt lat="23.174891" lon="112.874033">
<time>2016-10-06T10:39:27Z</time></trkpt>
<trkpt lat="23.174931" lon="112.873843">
<time>2016-10-06T10:39:28Z</time></trkpt>
<trkpt lat="23.174961" lon="112.873673">
<time>2016-10-06T10:39:29Z</time></trkpt>
<trkpt lat="23.174991" lon="112.873502">
<time>2016-10-06T10:39:30Z</time></trkpt>
<trkpt lat="23.17503" lon="112.873162">
<time>2016-10-06T10:39:31Z</time></trkpt>
<trkpt lat="23.1751" lon="112.872542">
<time>2016-10-06T10:39:32Z</time></trkpt>
<trkpt lat="23.175159" lon="112.871931">
<time>2016-10-06T10:39:33Z</time></trkpt>
<trkpt lat="23.175199" lon="112.871551">
<time>2016-10-06T10:39:34Z</time></trkpt>
<trkpt lat="23.175308" lon="112.87054">
<time>2016-10-06T10:39:35Z</time></trkpt>
<trkpt lat="23.175357" lon="112.87007">
<time>2016-10-06T10:39:36Z</time></trkpt>
<trkpt lat="23.175446" lon="112.869299">
<time>2016-10-06T10:39:37Z</time></trkpt>
<trkpt lat="23.175506" lon="112.868779">
<time>2016-10-06T10:39:38Z</time></trkpt>
<trkpt lat="23.175525" lon="112.868618">
<time>2016-10-06T10:39:39Z</time></trkpt>
<trkpt lat="23.175535" lon="112.868558">
<time>2016-10-06T10:39:40Z</time></trkpt>
<trkpt lat="23.175555" lon="112.868408">
<time>2016-10-06T10:39:41Z</time></trkpt>
<trkpt lat="23.175605" lon="112.868158">
<time>2016-10-06T10:39:42Z</time></trkpt>
<trkpt lat="23.175645" lon="112.867968">
<time>2016-10-06T10:39:43Z</time></trkpt>
<trkpt lat="23.175664" lon="112.867868">
<time>2016-10-06T10:39:44Z</time></trkpt>
<trkpt lat="23.175694" lon="112.867748">
<time>2016-10-06T10:39:45Z</time></trkpt>
<trkpt lat="23.175704" lon="112.867698">
<time>2016-10-06T10:39:46Z</time></trkpt>
<trkpt lat="23.175844" lon="112.867167">
<time>2016-10-06T10:39:47Z</time></trkpt>
<trkpt lat="23.175933" lon="112.866857">
<time>2016-10-06T10:39:48Z</time></trkpt>
<trkpt lat="23.176003" lon="112.866657">
<time>2016-10-06T10:39:49Z</time></trkpt>
<trkpt lat="23.176113" lon="112.866386">
<time>2016-10-06T10:39:50Z</time></trkpt>
<trkpt lat="23.176232" lon="112.866166">
<time>2016-10-06T10:39:51Z</time></trkpt>
<trkpt lat="23.176322" lon="112.865996">
<time>2016-10-06T10:39:52Z</time></trkpt>
<trkpt lat="23.176432" lon="112.865816">
<time>2016-10-06T10:39:53Z</time></trkpt>
<trkpt lat="23.176552" lon="112.865646">
<time>2016-10-06T10:39:54Z</time></trkpt>
<trkpt lat="23.176701" lon="112.865455">
<time>2016-10-06T10:39:55Z</time></trkpt>
<trkpt lat="23.17719" lon="112.864835">
<time>2016-10-06T10:39:56Z</time></trkpt>
<trkpt lat="23.17757" lon="112.864354">
<time>2016-10-06T10:39:57Z</time></trkpt>
<trkpt lat="23.177869" lon="112.863974">
<time>2016-10-06T10:39:58Z</time></trkpt>
<trkpt lat="23.178119" lon="112.863663">
<time>2016-10-06T10:39:59Z</time></trkpt>
<trkpt lat="23.178228" lon="112.863533">
<time>2016-10-06T10:40:00Z</time></trkpt>
<trkpt lat="23.178458" lon="112.863233">
<time>2016-10-06T10:40:01Z</time></trkpt>
<trkpt lat="23.178578" lon="112.863093">
<time>2016-10-06T10:40:02Z</time></trkpt>
<trkpt lat="23.178697" lon="112.862943">
<time>2016-10-06T10:40:03Z</time></trkpt>
<trkpt lat="23.178747" lon="112.862863">
<time>2016-10-06T10:40:04Z</time></trkpt>
<trkpt lat="23.178807" lon="112.862792">
<time>2016-10-06T10:40:05Z</time></trkpt>
<trkpt lat="23.178857" lon="112.862712">
<time>2016-10-06T10:40:06Z</time></trkpt>
<trkpt lat="23.178897" lon="112.862622">
<time>2016-10-06T10:40:07Z</time></trkpt>
<trkpt lat="23.178947" lon="112.862542">
<time>2016-10-06T10:40:08Z</time></trkpt>
<trkpt lat="23.178987" lon="112.862462">
<time>2016-10-06T10:40:09Z</time></trkpt>
<trkpt lat="23.179056" lon="112.862322">
<time>2016-10-06T10:40:10Z</time></trkpt>
<trkpt lat="23.179226" lon="112.861982">
<time>2016-10-06T10:40:11Z</time></trkpt>
<trkpt lat="23.179425" lon="112.861591">
<time>2016-10-06T10:40:12Z</time></trkpt>
<trkpt lat="23.179585" lon="112.861211">
<time>2016-10-06T10:40:13Z</time></trkpt>
<trkpt lat="23.179714" lon="112.86086">
<time>2016-10-06T10:40:14Z</time></trkpt>
<trkpt lat="23.179834" lon="112.8605">
<time>2016-10-06T10:40:15Z</time></trkpt>
<trkpt lat="23.179903" lon="112.860209">
<time>2016-10-06T10:40:16Z</time></trkpt>
<trkpt lat="23.180023" lon="112.859679">
<time>2016-10-06T10:40:17Z</time></trkpt>
<trkpt lat="23.180052" lon="112.859529">
<time>2016-10-06T10:40:18Z</time></trkpt>
<trkpt lat="23.180162" lon="112.859028">
<time>2016-10-06T10:40:19Z</time></trkpt>
<trkpt lat="23.180172" lon="112.858988">
<time>2016-10-06T10:40:20Z</time></trkpt>
<trkpt lat="23.180211" lon="112.858587">
<time>2016-10-06T10:40:21Z</time></trkpt>
<trkpt lat="23.18026" lon="112.858217">
<time>2016-10-06T10:40:22Z</time></trkpt>
<trkpt lat="23.180339" lon="112.857496">
<time>2016-10-06T10:40:23Z</time></trkpt>
<trkpt lat="23.180349" lon="112.857416">
<time>2016-10-06T10:40:24Z</time></trkpt>
<trkpt lat="23.180418" lon="112.856785">
<time>2016-10-06T10:40:25Z</time></trkpt>
<trkpt lat="23.180517" lon="112.855954">
<time>2016-10-06T10:40:26Z</time></trkpt>
<trkpt lat="23.180547" lon="112.855764">
<time>2016-10-06T10:40:27Z</time></trkpt>
<trkpt lat="23.180576" lon="112.855564">
<time>2016-10-06T10:40:28Z</time></trkpt>
<trkpt lat="23.180616" lon="112.855393">
<time>2016-10-06T10:40:29Z</time></trkpt>
<trkpt lat="23.180686" lon="112.855093">
<time>2016-10-06T10:40:30Z</time></trkpt>
<trkpt lat="23.180755" lon="112.854803">
<time>2016-10-06T10:40:31Z</time></trkpt>
<trkpt lat="23.180775" lon="112.854753">
<time>2016-10-06T10:40:32Z</time></trkpt>
<trkpt lat="23.180785" lon="112.854712">
<time>2016-10-06T10:40:33Z</time></trkpt>
<trkpt lat="23.180815" lon="112.854622">
<time>2016-10-06T10:40:34Z</time></trkpt>
<trkpt lat="23.180875" lon="112.854432">
<time>2016-10-06T10:40:35Z</time></trkpt>
<trkpt lat="23.180974" lon="112.854162">
<time>2016-10-06T10:40:36Z</time></trkpt>
<trkpt lat="23.181014" lon="112.854072">
<time>2016-10-06T10:40:37Z</time></trkpt>
<trkpt lat="23.181054" lon="112.853981">
<time>2016-10-06T10:40:38Z</time></trkpt>
<trkpt lat="23.181094" lon="112.853891">
<time>2016-10-06T10:40:39Z</time></trkpt>
<trkpt lat="23.181134" lon="112.853801">
<time>2016-10-06T10:40:40Z</time></trkpt>
<trkpt lat="23.181213" lon="112.853631">
<time>2016-10-06T10:40:41Z</time></trkpt>
<trkpt lat="23.181303" lon="112.853461">
<time>2016-10-06T10:40:42Z</time></trkpt>
<trkpt lat="23.181403" lon="112.853291">
<time>2016-10-06T10:40:43Z</time></trkpt>
<trkpt lat="23.181502" lon="112.85313">
<time>2016-10-06T10:40:44Z</time></trkpt>
<trkpt lat="23.181512" lon="112.85312">
<time>2016-10-06T10:40:45Z</time></trkpt>
<trkpt lat="23.181572" lon="112.85303">
<time>2016-10-06T10:40:46Z</time></trkpt>
<trkpt lat="23.181662" lon="112.85288">
<time>2016-10-06T10:40:47Z</time></trkpt>
<trkpt lat="23.181822" lon="112.85266">
<time>2016-10-06T10:40:48Z</time></trkpt>
<trkpt lat="23.181941" lon="112.852499">
<time>2016-10-06T10:40:49Z</time></trkpt>
<trkpt lat="23.181991" lon="112.852429">
<time>2016-10-06T10:40:50Z</time></trkpt>
<trkpt lat="23.182051" lon="112.852359">
<time>2016-10-06T10:40:51Z</time></trkpt>
<trkpt lat="23.182181" lon="112.852209">
<time>2016-10-06T10:40:52Z</time></trkpt>
<trkpt lat="23.1823" lon="112.852069">
<time>2016-10-06T10:40:53Z</time></trkpt>
<trkpt lat="23.18243" lon="112.851939">
<time>2016-10-06T10:40:54Z</time></trkpt>
<trkpt lat="23.1825" lon="112.851868">
<time>2016-10-06T10:40:55Z</time></trkpt>
<trkpt lat="23.18257" lon="112.851798">
<time>2016-10-06T10:40:56Z</time></trkpt>
<trkpt lat="23.18265" lon="112.851728">
<time>2016-10-06T10:40:57Z</time></trkpt>
<trkpt lat="23.18277" lon="112.851618">
<time>2016-10-06T10:40:58Z</time></trkpt>
<trkpt lat="23.18283" lon="112.851568">
<time>2016-10-06T10:40:59Z</time></trkpt>
<trkpt lat="23.183209" lon="112.851258">
<time>2016-10-06T10:41:00Z</time></trkpt>
<trkpt lat="23.183429" lon="112.851087">
<time>2016-10-06T10:41:01Z</time></trkpt>
<trkpt lat="23.183688" lon="112.850887">
<time>2016-10-06T10:41:02Z</time></trkpt>
<trkpt lat="23.189349" lon="112.8466">
<time>2016-10-06T10:41:03Z</time></trkpt>
<trkpt lat="23.191685" lon="112.844827">
<time>2016-10-06T10:41:04Z</time></trkpt>
<trkpt lat="23.192334" lon="112.844337">
<time>2016-10-06T10:41:05Z</time></trkpt>
<trkpt lat="23.19464" lon="112.842574">
<time>2016-10-06T10:41:06Z</time></trkpt>
<trkpt lat="23.195309" lon="112.842033">
<time>2016-10-06T10:41:07Z</time></trkpt>
<trkpt lat="23.196008" lon="112.841452">
<time>2016-10-06T10:41:08Z</time></trkpt>
<trkpt lat="23.197066" lon="112.84059">
<time>2016-10-06T10:41:09Z</time></trkpt>
<trkpt lat="23.197156" lon="112.84052">
<time>2016-10-06T10:41:10Z</time></trkpt>
<trkpt lat="23.197954" lon="112.839879">
<time>2016-10-06T10:41:11Z</time></trkpt>
<trkpt lat="23.198723" lon="112.839248">
<time>2016-10-06T10:41:12Z</time></trkpt>
<trkpt lat="23.199112" lon="112.838928">
<time>2016-10-06T10:41:13Z</time></trkpt>
<trkpt lat="23.199342" lon="112.838737">
<time>2016-10-06T10:41:14Z</time></trkpt>
<trkpt lat="23.200579" lon="112.837725">
<time>2016-10-06T10:41:15Z</time></trkpt>
<trkpt lat="23.200819" lon="112.837535">
<time>2016-10-06T10:41:16Z</time></trkpt>
<trkpt lat="23.201218" lon="112.837205">
<time>2016-10-06T10:41:17Z</time></trkpt>
<trkpt lat="23.202077" lon="112.836493">
<time>2016-10-06T10:41:18Z</time></trkpt>
<trkpt lat="23.202566" lon="112.836032">
<time>2016-10-06T10:41:19Z</time></trkpt>
<trkpt lat="23.202705" lon="112.835892">
<time>2016-10-06T10:41:20Z</time></trkpt>
<trkpt lat="23.202835" lon="112.835732">
<time>2016-10-06T10:41:21Z</time></trkpt>
<trkpt lat="23.203364" lon="112.835051">
<time>2016-10-06T10:41:22Z</time></trkpt>
<trkpt lat="23.204061" lon="112.833889">
<time>2016-10-06T10:41:23Z</time></trkpt>
<trkpt lat="23.20453" lon="112.833107">
<time>2016-10-06T10:41:24Z</time></trkpt>
<trkpt lat="23.204569" lon="112.833057">
<time>2016-10-06T10:41:25Z</time></trkpt>
<trkpt lat="23.205417" lon="112.831925">
<time>2016-10-06T10:41:26Z</time></trkpt>
<trkpt lat="23.206015" lon="112.831124">
<time>2016-10-06T10:41:27Z</time></trkpt>
<trkpt lat="23.206175" lon="112.830893">
<time>2016-10-06T10:41:28Z</time></trkpt>
<trkpt lat="23.206185" lon="112.830873">
<time>2016-10-06T10:41:29Z</time></trkpt>
<trkpt lat="23.206334" lon="112.830633">
<time>2016-10-06T10:41:30Z</time></trkpt>
<trkpt lat="23.206444" lon="112.830453">
<time>2016-10-06T10:41:31Z</time></trkpt>
<trkpt lat="23.206534" lon="112.830252">
<time>2016-10-06T10:41:32Z</time></trkpt>
<trkpt lat="23.206613" lon="112.830082">
<time>2016-10-06T10:41:33Z</time></trkpt>
<trkpt lat="23.206673" lon="112.829932">
<time>2016-10-06T10:41:34Z</time></trkpt>
<trkpt lat="23.20699" lon="112.82871">
<time>2016-10-06T10:41:35Z</time></trkpt>
<trkpt lat="23.20702" lon="112.828569">
<time>2016-10-06T10:41:36Z</time></trkpt>
<trkpt lat="23.207189" lon="112.828099">
<time>2016-10-06T10:41:37Z</time></trkpt>
<trkpt lat="23.207239" lon="112.827968">
<time>2016-10-06T10:41:38Z</time></trkpt>
<trkpt lat="23.207289" lon="112.827828">
<time>2016-10-06T10:41:39Z</time></trkpt>
<trkpt lat="23.207338" lon="112.827728">
<time>2016-10-06T10:41:40Z</time></trkpt>
<trkpt lat="23.207388" lon="112.827628">
<time>2016-10-06T10:41:41Z</time></trkpt>
<trkpt lat="23.207498" lon="112.827437">
<time>2016-10-06T10:41:42Z</time></trkpt>
<trkpt lat="23.207637" lon="112.827217">
<time>2016-10-06T10:41:43Z</time></trkpt>
<trkpt lat="23.207737" lon="112.827097">
<time>2016-10-06T10:41:44Z</time></trkpt>
<trkpt lat="23.207807" lon="112.827017">
<time>2016-10-06T10:41:45Z</time></trkpt>
<trkpt lat="23.207917" lon="112.826906">
<time>2016-10-06T10:41:46Z</time></trkpt>
<trkpt lat="23.208506" lon="112.826385">
<time>2016-10-06T10:41:47Z</time></trkpt>
<trkpt lat="23.208655" lon="112.826255">
<time>2016-10-06T10:41:48Z</time></trkpt>
<trkpt lat="23.209973" lon="112.825354">
<time>2016-10-06T10:41:49Z</time></trkpt>
<trkpt lat="23.211041" lon="112.824632">
<time>2016-10-06T10:41:50Z</time></trkpt>
<trkpt lat="23.21173" lon="112.824161">
<time>2016-10-06T10:41:51Z</time></trkpt>
<trkpt lat="23.212229" lon="112.823821">
<time>2016-10-06T10:41:52Z</time></trkpt>
<trkpt lat="23.212689" lon="112.82357">
<time>2016-10-06T10:41:53Z</time></trkpt>
<trkpt lat="23.213338" lon="112.82332">
<time>2016-10-06T10:41:54Z</time></trkpt>
<trkpt lat="23.214027" lon="112.823119">
<time>2016-10-06T10:41:55Z</time></trkpt>
<trkpt lat="23.214557" lon="112.822969">
<time>2016-10-06T10:41:56Z</time></trkpt>
<trkpt lat="23.215256" lon="112.822759">
<time>2016-10-06T10:41:57Z</time></trkpt>
<trkpt lat="23.215976" lon="112.822568">
<time>2016-10-06T10:41:58Z</time></trkpt>
<trkpt lat="23.216785" lon="112.822298">
<time>2016-10-06T10:41:59Z</time></trkpt>
<trkpt lat="23.217774" lon="112.821887">
<time>2016-10-06T10:42:00Z</time></trkpt>
<trkpt lat="23.217834" lon="112.821867">
<time>2016-10-06T10:42:01Z</time></trkpt>
<trkpt lat="23.218223" lon="112.821717">
<time>2016-10-06T10:42:02Z</time></trkpt>
<trkpt lat="23.218703" lon="112.821516">
<time>2016-10-06T10:42:03Z</time></trkpt>
<trkpt lat="23.219272" lon="112.821236">
<time>2016-10-06T10:42:04Z</time></trkpt>
<trkpt lat="23.219452" lon="112.821125">
<time>2016-10-06T10:42:05Z</time></trkpt>
<trkpt lat="23.219921" lon="112.820885">
<time>2016-10-06T10:42:06Z</time></trkpt>
<trkpt lat="23.22083" lon="112.820474">
<time>2016-10-06T10:42:07Z</time></trkpt>
<trkpt lat="23.22101" lon="112.820384">
<time>2016-10-06T10:42:08Z</time></trkpt>
<trkpt lat="23.22112" lon="112.820334">
<time>2016-10-06T10:42:09Z</time></trkpt>
<trkpt lat="23.22119" lon="112.820304">
<time>2016-10-06T10:42:10Z</time></trkpt>
<trkpt lat="23.22126" lon="112.820274">
<time>2016-10-06T10:42:11Z</time></trkpt>
<trkpt lat="23.221429" lon="112.820194">
<time>2016-10-06T10:42:12Z</time></trkpt>
<trkpt lat="23.221479" lon="112.820164">
<time>2016-10-06T10:42:13Z</time></trkpt>
<trkpt lat="23.221699" lon="112.820063">
<time>2016-10-06T10:42:14Z</time></trkpt>
<trkpt lat="23.222638" lon="112.819593">
<time>2016-10-06T10:42:15Z</time></trkpt>
<trkpt lat="23.223257" lon="112.819292">
<time>2016-10-06T10:42:16Z</time></trkpt>
<trkpt lat="23.223317" lon="112.819262">
<time>2016-10-06T10:42:17Z</time></trkpt>
<trkpt lat="23.224006" lon="112.818831">
<time>2016-10-06T10:42:18Z</time></trkpt>
<trkpt lat="23.224076" lon="112.818771">
<time>2016-10-06T10:42:19Z</time></trkpt>
<trkpt lat="23.224146" lon="112.818731">
<time>2016-10-06T10:42:20Z</time></trkpt>
<trkpt lat="23.224245" lon="112.818651">
<time>2016-10-06T10:42:21Z</time></trkpt>
<trkpt lat="23.224525" lon="112.81846">
<time>2016-10-06T10:42:22Z</time></trkpt>
<trkpt lat="23.225004" lon="112.81813">
<time>2016-10-06T10:42:23Z</time></trkpt>
<trkpt lat="23.225583" lon="112.817629">
<time>2016-10-06T10:42:24Z</time></trkpt>
<trkpt lat="23.226062" lon="112.817218">
<time>2016-10-06T10:42:25Z</time></trkpt>
<trkpt lat="23.226172" lon="112.817108">
<time>2016-10-06T10:42:26Z</time></trkpt>
<trkpt lat="23.226272" lon="112.817018">
<time>2016-10-06T10:42:27Z</time></trkpt>
<trkpt lat="23.226441" lon="112.816827">
<time>2016-10-06T10:42:28Z</time></trkpt>
<trkpt lat="23.226591" lon="112.816627">
<time>2016-10-06T10:42:29Z</time></trkpt>
<trkpt lat="23.22673" lon="112.816417">
<time>2016-10-06T10:42:30Z</time></trkpt>
<trkpt lat="23.22686" lon="112.816226">
<time>2016-10-06T10:42:31Z</time></trkpt>
<trkpt lat="23.22688" lon="112.816196">
<time>2016-10-06T10:42:32Z</time></trkpt>
<trkpt lat="23.22693" lon="112.816086">
<time>2016-10-06T10:42:33Z</time></trkpt>
<trkpt lat="23.227258" lon="112.815315">
<time>2016-10-06T10:42:34Z</time></trkpt>
<trkpt lat="23.230131" lon="112.806409">
<time>2016-10-06T10:42:35Z</time></trkpt>
<trkpt lat="23.2302" lon="112.806199">
<time>2016-10-06T10:42:36Z</time></trkpt>
<trkpt lat="23.23022" lon="112.806129">
<time>2016-10-06T10:42:37Z</time></trkpt>
<trkpt lat="23.23029" lon="112.805909">
<time>2016-10-06T10:42:38Z</time></trkpt>
<trkpt lat="23.23033" lon="112.805728">
<time>2016-10-06T10:42:39Z</time></trkpt>
<trkpt lat="23.231005" lon="112.803194">
<time>2016-10-06T10:42:40Z</time></trkpt>
<trkpt lat="23.231243" lon="112.802413">
<time>2016-10-06T10:42:41Z</time></trkpt>
<trkpt lat="23.231452" lon="112.801762">
<time>2016-10-06T10:42:42Z</time></trkpt>
<trkpt lat="23.232567" lon="112.798817">
<time>2016-10-06T10:42:43Z</time></trkpt>
<trkpt lat="23.233154" lon="112.797435">
<time>2016-10-06T10:42:44Z</time></trkpt>
<trkpt lat="23.233453" lon="112.796674">
<time>2016-10-06T10:42:45Z</time></trkpt>
<trkpt lat="23.23416" lon="112.794881">
<time>2016-10-06T10:42:46Z</time></trkpt>
<trkpt lat="23.234598" lon="112.7938">
<time>2016-10-06T10:42:47Z</time></trkpt>
<trkpt lat="23.234638" lon="112.793679">
<time>2016-10-06T10:42:48Z</time></trkpt>
<trkpt lat="23.234658" lon="112.793629">
<time>2016-10-06T10:42:49Z</time></trkpt>
<trkpt lat="23.235196" lon="112.792277">
<time>2016-10-06T10:42:50Z</time></trkpt>
<trkpt lat="23.235564" lon="112.791196">
<time>2016-10-06T10:42:51Z</time></trkpt>
<trkpt lat="23.235713" lon="112.790755">
<time>2016-10-06T10:42:52Z</time></trkpt>
<trkpt lat="23.235733" lon="112.790695">
<time>2016-10-06T10:42:53Z</time></trkpt>
<trkpt lat="23.235783" lon="112.790535">
<time>2016-10-06T10:42:54Z</time></trkpt>
<trkpt lat="23.235822" lon="112.790335">
<time>2016-10-06T10:42:55Z</time></trkpt>
<trkpt lat="23.235842" lon="112.790185">
<time>2016-10-06T10:42:56Z</time></trkpt>
<trkpt lat="23.235842" lon="112.790185">
<time>2016-10-06T10:42:57Z</time></trkpt>
<trkpt lat="23.235942" lon="112.790195">
<time>2016-10-06T10:42:58Z</time></trkpt>
<trkpt lat="23.235972" lon="112.790195">
<time>2016-10-06T10:42:59Z</time></trkpt>
<trkpt lat="23.236002" lon="112.790195">
<time>2016-10-06T10:43:00Z</time></trkpt>
<trkpt lat="23.236022" lon="112.790185">
<time>2016-10-06T10:43:01Z</time></trkpt>
<trkpt lat="23.236052" lon="112.790175">
<time>2016-10-06T10:43:02Z</time></trkpt>
<trkpt lat="23.236062" lon="112.790165">
<time>2016-10-06T10:43:03Z</time></trkpt>
<trkpt lat="23.236092" lon="112.790114">
<time>2016-10-06T10:43:04Z</time></trkpt>
<trkpt lat="23.236122" lon="112.790074">
<time>2016-10-06T10:43:05Z</time></trkpt>
<trkpt lat="23.236152" lon="112.790034">
<time>2016-10-06T10:43:06Z</time></trkpt>
<trkpt lat="23.236172" lon="112.789994">
<time>2016-10-06T10:43:07Z</time></trkpt>
<trkpt lat="23.236222" lon="112.789864">
<time>2016-10-06T10:43:08Z</time></trkpt>
<trkpt lat="23.23661" lon="112.788903">
<time>2016-10-06T10:43:09Z</time></trkpt>
<trkpt lat="23.237447" lon="112.78686">
<time>2016-10-06T10:43:10Z</time></trkpt>
<trkpt lat="23.238324" lon="112.784818">
<time>2016-10-06T10:43:11Z</time></trkpt>
<trkpt lat="23.238702" lon="112.783977">
<time>2016-10-06T10:43:12Z</time></trkpt>
<trkpt lat="23.238832" lon="112.783756">
<time>2016-10-06T10:43:13Z</time></trkpt>
<trkpt lat="23.238912" lon="112.783526">
<time>2016-10-06T10:43:14Z</time></trkpt>
<trkpt lat="23.23947" lon="112.782375">
<time>2016-10-06T10:43:15Z</time></trkpt>
<trkpt lat="23.239869" lon="112.781644">
<time>2016-10-06T10:43:16Z</time></trkpt>
<trkpt lat="23.240228" lon="112.781133">
<time>2016-10-06T10:43:17Z</time></trkpt>
<trkpt lat="23.240298" lon="112.780993">
<time>2016-10-06T10:43:18Z</time></trkpt>
<trkpt lat="23.240338" lon="112.780893">
<time>2016-10-06T10:43:19Z</time></trkpt>
<trkpt lat="23.240368" lon="112.780813">
<time>2016-10-06T10:43:20Z</time></trkpt>
<trkpt lat="23.240438" lon="112.780703">
<time>2016-10-06T10:43:21Z</time></trkpt>
<trkpt lat="23.240557" lon="112.780483">
<time>2016-10-06T10:43:22Z</time></trkpt>
<trkpt lat="23.240727" lon="112.780182">
<time>2016-10-06T10:43:23Z</time></trkpt>
<trkpt lat="23.240817" lon="112.779992">
<time>2016-10-06T10:43:24Z</time></trkpt>
<trkpt lat="23.240866" lon="112.779842">
<time>2016-10-06T10:43:25Z</time></trkpt>
<trkpt lat="23.240996" lon="112.779512">
<time>2016-10-06T10:43:26Z</time></trkpt>
<trkpt lat="23.241165" lon="112.779061">
<time>2016-10-06T10:43:27Z</time></trkpt>
<trkpt lat="23.241215" lon="112.778941">
<time>2016-10-06T10:43:28Z</time></trkpt>
<trkpt lat="23.241394" lon="112.77837">
<time>2016-10-06T10:43:29Z</time></trkpt>
<trkpt lat="23.241564" lon="112.77782">
<time>2016-10-06T10:43:30Z</time></trkpt>
<trkpt lat="23.241713" lon="112.777299">
<time>2016-10-06T10:43:31Z</time></trkpt>
<trkpt lat="23.241813" lon="112.776979">
<time>2016-10-06T10:43:32Z</time></trkpt>
<trkpt lat="23.241872" lon="112.776679">
<time>2016-10-06T10:43:33Z</time></trkpt>
<trkpt lat="23.241872" lon="112.776679">
<time>2016-10-06T10:43:34Z</time></trkpt>
<trkpt lat="23.242733" lon="112.777339">
<time>2016-10-06T10:43:35Z</time></trkpt>
<trkpt lat="23.242763" lon="112.777369">
<time>2016-10-06T10:43:36Z</time></trkpt>
<trkpt lat="23.243924" lon="112.77824">
<time>2016-10-06T10:43:37Z</time></trkpt>
<trkpt lat="23.244724" lon="112.77877">
<time>2016-10-06T10:43:38Z</time></trkpt>
<trkpt lat="23.245194" lon="112.779071">
<time>2016-10-06T10:43:39Z</time></trkpt>
<trkpt lat="23.245374" lon="112.779181">
<time>2016-10-06T10:43:40Z</time></trkpt>
<trkpt lat="23.245644" lon="112.779331">
<time>2016-10-06T10:43:41Z</time></trkpt>
<trkpt lat="23.245914" lon="112.779471">
<time>2016-10-06T10:43:42Z</time></trkpt>
<trkpt lat="23.246194" lon="112.779581">
<time>2016-10-06T10:43:43Z</time></trkpt>
<trkpt lat="23.246444" lon="112.779671">
<time>2016-10-06T10:43:44Z</time></trkpt>
<trkpt lat="23.246854" lon="112.779791">
<time>2016-10-06T10:43:45Z</time></trkpt>
<trkpt lat="23.247274" lon="112.779871">
<time>2016-10-06T10:43:46Z</time></trkpt>
<trkpt lat="23.247764" lon="112.779931">
<time>2016-10-06T10:43:47Z</time></trkpt>
<trkpt lat="23.248284" lon="112.779951">
<time>2016-10-06T10:43:48Z</time></trkpt>
<trkpt lat="23.248624" lon="112.779971">
<time>2016-10-06T10:43:49Z</time></trkpt>
<trkpt lat="23.248974" lon="112.779931">
<time>2016-10-06T10:43:50Z</time></trkpt>
<trkpt lat="23.249334" lon="112.779881">
<time>2016-10-06T10:43:51Z</time></trkpt>
<trkpt lat="23.249674" lon="112.779801">
<time>2016-10-06T10:43:52Z</time></trkpt>
<trkpt lat="23.250003" lon="112.779711">
<time>2016-10-06T10:43:53Z</time></trkpt>
<trkpt lat="23.251142" lon="112.779241">
<time>2016-10-06T10:43:54Z</time></trkpt>
<trkpt lat="23.255369" lon="112.777228">
<time>2016-10-06T10:43:55Z</time></trkpt>
<trkpt lat="23.258016" lon="112.775907">
<time>2016-10-06T10:43:56Z</time></trkpt>
<trkpt lat="23.258026" lon="112.775907">
<time>2016-10-06T10:43:57Z</time></trkpt>
<trkpt lat="23.258226" lon="112.775807">
<time>2016-10-06T10:43:58Z</time></trkpt>
<trkpt lat="23.258846" lon="112.775506">
<time>2016-10-06T10:43:59Z</time></trkpt>
<trkpt lat="23.259155" lon="112.775346">
<time>2016-10-06T10:44:00Z</time></trkpt>
<trkpt lat="23.260165" lon="112.774856">
<time>2016-10-06T10:44:01Z</time></trkpt>
<trkpt lat="23.260924" lon="112.774555">
<time>2016-10-06T10:44:02Z</time></trkpt>
<trkpt lat="23.260944" lon="112.774545">
<time>2016-10-06T10:44:03Z</time></trkpt>
<trkpt lat="23.260944" lon="112.774545">
<time>2016-10-06T10:44:04Z</time></trkpt>
<trkpt lat="23.260934" lon="112.774485">
<time>2016-10-06T10:44:05Z</time></trkpt>
<trkpt lat="23.260934" lon="112.774485">
<time>2016-10-06T10:44:06Z</time></trkpt>
<trkpt lat="23.262393" lon="112.774025">
<time>2016-10-06T10:44:07Z</time></trkpt>
<trkpt lat="23.26667" lon="112.772824">
<time>2016-10-06T10:44:08Z</time></trkpt>
<trkpt lat="23.26746" lon="112.772603">
<time>2016-10-06T10:44:09Z</time></trkpt>
<trkpt lat="23.26768" lon="112.772523">
<time>2016-10-06T10:44:10Z</time></trkpt>
<trkpt lat="23.270278" lon="112.771582">
<time>2016-10-06T10:44:11Z</time></trkpt>
<trkpt lat="23.271877" lon="112.770912">
<time>2016-10-06T10:44:12Z</time></trkpt>
<trkpt lat="23.273006" lon="112.770431">
<time>2016-10-06T10:44:13Z</time></trkpt>
<trkpt lat="23.273836" lon="112.770071">
<time>2016-10-06T10:44:14Z</time></trkpt>
<trkpt lat="23.274815" lon="112.769631">
<time>2016-10-06T10:44:15Z</time></trkpt>
<trkpt lat="23.275095" lon="112.769511">
<time>2016-10-06T10:44:16Z</time></trkpt>
<trkpt lat="23.276144" lon="112.76904">
<time>2016-10-06T10:44:17Z</time></trkpt>
<trkpt lat="23.279002" lon="112.767759">
<time>2016-10-06T10:44:18Z</time></trkpt>
<trkpt lat="23.28169" lon="112.766558">
<time>2016-10-06T10:44:19Z</time></trkpt>
<trkpt lat="23.285048" lon="112.765077">
<time>2016-10-06T10:44:20Z</time></trkpt>
<trkpt lat="23.286387" lon="112.764487">
<time>2016-10-06T10:44:21Z</time></trkpt>
<trkpt lat="23.289186" lon="112.763246">
<time>2016-10-06T10:44:22Z</time></trkpt>
<trkpt lat="23.289965" lon="112.762896">
<time>2016-10-06T10:44:23Z</time></trkpt>
<trkpt lat="23.292864" lon="112.761595">
<time>2016-10-06T10:44:24Z</time></trkpt>
<trkpt lat="23.294293" lon="112.760945">
<time>2016-10-06T10:44:25Z</time></trkpt>
<trkpt lat="23.294373" lon="112.760915">
<time>2016-10-06T10:44:26Z</time></trkpt>
<trkpt lat="23.295032" lon="112.760614">
<time>2016-10-06T10:44:27Z</time></trkpt>
<trkpt lat="23.295992" lon="112.760214">
<time>2016-10-06T10:44:28Z</time></trkpt>
<trkpt lat="23.296352" lon="112.759994">
<time>2016-10-06T10:44:29Z</time></trkpt>
<trkpt lat="23.296472" lon="112.759924">
<time>2016-10-06T10:44:30Z</time></trkpt>
<trkpt lat="23.296871" lon="112.759624">
<time>2016-10-06T10:44:31Z</time></trkpt>
<trkpt lat="23.296911" lon="112.759584">
<time>2016-10-06T10:44:32Z</time></trkpt>
<trkpt lat="23.297081" lon="112.759414">
<time>2016-10-06T10:44:33Z</time></trkpt>
<trkpt lat="23.297091" lon="112.759404">
<time>2016-10-06T10:44:34Z</time></trkpt>
<trkpt lat="23.297401" lon="112.758984">
<time>2016-10-06T10:44:35Z</time></trkpt>
<trkpt lat="23.29784" lon="112.758444">
<time>2016-10-06T10:44:36Z</time></trkpt>
<trkpt lat="23.300048" lon="112.755333">
<time>2016-10-06T10:44:37Z</time></trkpt>
<trkpt lat="23.300068" lon="112.755303">
<time>2016-10-06T10:44:38Z</time></trkpt>
<trkpt lat="23.301237" lon="112.753652">
<time>2016-10-06T10:44:39Z</time></trkpt>
<trkpt lat="23.301487" lon="112.753312">
<time>2016-10-06T10:44:40Z</time></trkpt>
<trkpt lat="23.301787" lon="112.752882">
<time>2016-10-06T10:44:41Z</time></trkpt>
<trkpt lat="23.302117" lon="112.752432">
<time>2016-10-06T10:44:42Z</time></trkpt>
<trkpt lat="23.303866" lon="112.750002">
<time>2016-10-06T10:44:43Z</time></trkpt>
<trkpt lat="23.304056" lon="112.749732">
<time>2016-10-06T10:44:44Z</time></trkpt>
<trkpt lat="23.304486" lon="112.749152">
<time>2016-10-06T10:44:45Z</time></trkpt>
<trkpt lat="23.304995" lon="112.748452">
<time>2016-10-06T10:44:46Z</time></trkpt>
<trkpt lat="23.306285" lon="112.746682">
<time>2016-10-06T10:44:47Z</time></trkpt>
<trkpt lat="23.306935" lon="112.745782">
<time>2016-10-06T10:44:48Z</time></trkpt>
<trkpt lat="23.307154" lon="112.745493">
<time>2016-10-06T10:44:49Z</time></trkpt>
<trkpt lat="23.307184" lon="112.745443">
<time>2016-10-06T10:44:50Z</time></trkpt>
<trkpt lat="23.307304" lon="112.745283">
<time>2016-10-06T10:44:51Z</time></trkpt>
<trkpt lat="23.307394" lon="112.745153">
<time>2016-10-06T10:44:52Z</time></trkpt>
<trkpt lat="23.307834" lon="112.744533">
<time>2016-10-06T10:44:53Z</time></trkpt>
<trkpt lat="23.307854" lon="112.744503">
<time>2016-10-06T10:44:54Z</time></trkpt>
<trkpt lat="23.307934" lon="112.744393">
<time>2016-10-06T10:44:55Z</time></trkpt>
<trkpt lat="23.307954" lon="112.744363">
<time>2016-10-06T10:44:56Z</time></trkpt>
<trkpt lat="23.309484" lon="112.742233">
<time>2016-10-06T10:44:57Z</time></trkpt>
<trkpt lat="23.309844" lon="112.741723">
<time>2016-10-06T10:44:58Z</time></trkpt>
<trkpt lat="23.309904" lon="112.741634">
<time>2016-10-06T10:44:59Z</time></trkpt>
<trkpt lat="23.310264" lon="112.741124">
<time>2016-10-06T10:45:00Z</time></trkpt>
<trkpt lat="23.310544" lon="112.740734">
<time>2016-10-06T10:45:01Z</time></trkpt>
<trkpt lat="23.310994" lon="112.740104">
<time>2016-10-06T10:45:02Z</time></trkpt>
<trkpt lat="23.311354" lon="112.739574">
<time>2016-10-06T10:45:03Z</time></trkpt>
<trkpt lat="23.311384" lon="112.739534">
<time>2016-10-06T10:45:04Z</time></trkpt>
<trkpt lat="23.311544" lon="112.739294">
<time>2016-10-06T10:45:05Z</time></trkpt>
<trkpt lat="23.312084" lon="112.738405">
<time>2016-10-06T10:45:06Z</time></trkpt>
<trkpt lat="23.312134" lon="112.738305">
<time>2016-10-06T10:45:07Z</time></trkpt>
<trkpt lat="23.312624" lon="112.737385">
<time>2016-10-06T10:45:08Z</time></trkpt>
<trkpt lat="23.313164" lon="112.736266">
<time>2016-10-06T10:45:09Z</time></trkpt>
<trkpt lat="23.314185" lon="112.734107">
<time>2016-10-06T10:45:10Z</time></trkpt>
<trkpt lat="23.315276" lon="112.731789">
<time>2016-10-06T10:45:11Z</time></trkpt>
<trkpt lat="23.315466" lon="112.731389">
<time>2016-10-06T10:45:12Z</time></trkpt>
<trkpt lat="23.315586" lon="112.731129">
<time>2016-10-06T10:45:13Z</time></trkpt>
<trkpt lat="23.315676" lon="112.73094">
<time>2016-10-06T10:45:14Z</time></trkpt>
<trkpt lat="23.315876" lon="112.73048">
<time>2016-10-06T10:45:15Z</time></trkpt>
<trkpt lat="23.316797" lon="112.728402">
<time>2016-10-06T10:45:16Z</time></trkpt>
<trkpt lat="23.317077" lon="112.727902">
<time>2016-10-06T10:45:17Z</time></trkpt>
<trkpt lat="23.317147" lon="112.727782">
<time>2016-10-06T10:45:18Z</time></trkpt>
<trkpt lat="23.317157" lon="112.727762">
<time>2016-10-06T10:45:19Z</time></trkpt>
<trkpt lat="23.317468" lon="112.727223">
<time>2016-10-06T10:45:20Z</time></trkpt>
<trkpt lat="23.317688" lon="112.726903">
<time>2016-10-06T10:45:21Z</time></trkpt>
<trkpt lat="23.317818" lon="112.726703">
<time>2016-10-06T10:45:22Z</time></trkpt>
<trkpt lat="23.318028" lon="112.726414">
<time>2016-10-06T10:45:23Z</time></trkpt>
<trkpt lat="23.318218" lon="112.726154">
<time>2016-10-06T10:45:24Z</time></trkpt>
<trkpt lat="23.318428" lon="112.725854">
<time>2016-10-06T10:45:25Z</time></trkpt>
<trkpt lat="23.318579" lon="112.725624">
<time>2016-10-06T10:45:26Z</time></trkpt>
<trkpt lat="23.318899" lon="112.725285">
<time>2016-10-06T10:45:27Z</time></trkpt>
<trkpt lat="23.32248" lon="112.722058">
<time>2016-10-06T10:45:28Z</time></trkpt>
<trkpt lat="23.32274" lon="112.721818">
<time>2016-10-06T10:45:29Z</time></trkpt>
<trkpt lat="23.322781" lon="112.721788">
<time>2016-10-06T10:45:30Z</time></trkpt>
<trkpt lat="23.323041" lon="112.721548">
<time>2016-10-06T10:45:31Z</time></trkpt>
<trkpt lat="23.323971" lon="112.720719">
<time>2016-10-06T10:45:32Z</time></trkpt>
<trkpt lat="23.324021" lon="112.720679">
<time>2016-10-06T10:45:33Z</time></trkpt>
<trkpt lat="23.324361" lon="112.72038">
<time>2016-10-06T10:45:34Z</time></trkpt>
<trkpt lat="23.324411" lon="112.72033">
<time>2016-10-06T10:45:35Z</time></trkpt>
<trkpt lat="23.324712" lon="112.72006">
<time>2016-10-06T10:45:36Z</time></trkpt>
<trkpt lat="23.325382" lon="112.719461">
<time>2016-10-06T10:45:37Z</time></trkpt>
<trkpt lat="23.325542" lon="112.719321">
<time>2016-10-06T10:45:38Z</time></trkpt>
<trkpt lat="23.326132" lon="112.718782">
<time>2016-10-06T10:45:39Z</time></trkpt>
<trkpt lat="23.326583" lon="112.718382">
<time>2016-10-06T10:45:40Z</time></trkpt>
<trkpt lat="23.326793" lon="112.718192">
<time>2016-10-06T10:45:41Z</time></trkpt>
<trkpt lat="23.326923" lon="112.718063">
<time>2016-10-06T10:45:42Z</time></trkpt>
<trkpt lat="23.327333" lon="112.717703">
<time>2016-10-06T10:45:43Z</time></trkpt>
<trkpt lat="23.327623" lon="112.717433">
<time>2016-10-06T10:45:44Z</time></trkpt>
<trkpt lat="23.327954" lon="112.717184">
<time>2016-10-06T10:45:45Z</time></trkpt>
<trkpt lat="23.328204" lon="112.716984">
<time>2016-10-06T10:45:46Z</time></trkpt>
<trkpt lat="23.328644" lon="112.716664">
<time>2016-10-06T10:45:47Z</time></trkpt>
<trkpt lat="23.328734" lon="112.716604">
<time>2016-10-06T10:45:48Z</time></trkpt>
<trkpt lat="23.329904" lon="112.715775">
<time>2016-10-06T10:45:49Z</time></trkpt>
<trkpt lat="23.330455" lon="112.715386">
<time>2016-10-06T10:45:50Z</time></trkpt>
<trkpt lat="23.332126" lon="112.714207">
<time>2016-10-06T10:45:51Z</time></trkpt>
<trkpt lat="23.332196" lon="112.714157">
<time>2016-10-06T10:45:52Z</time></trkpt>
<trkpt lat="23.333326" lon="112.713359">
<time>2016-10-06T10:45:53Z</time></trkpt>
<trkpt lat="23.333606" lon="112.713159">
<time>2016-10-06T10:45:54Z</time></trkpt>
<trkpt lat="23.334147" lon="112.712779">
<time>2016-10-06T10:45:55Z</time></trkpt>
<trkpt lat="23.335478" lon="112.711811">
<time>2016-10-06T10:45:56Z</time></trkpt>
<trkpt lat="23.337309" lon="112.710473">
<time>2016-10-06T10:45:57Z</time></trkpt>
<trkpt lat="23.337359" lon="112.710433">
<time>2016-10-06T10:45:58Z</time></trkpt>
<trkpt lat="23.33873" lon="112.709434">
<time>2016-10-06T10:45:59Z</time></trkpt>
<trkpt lat="23.33892" lon="112.709304">
<time>2016-10-06T10:46:00Z</time></trkpt>
<trkpt lat="23.33905" lon="112.709205">
<time>2016-10-06T10:46:01Z</time></trkpt>
<trkpt lat="23.33935" lon="112.708985">
<time>2016-10-06T10:46:02Z</time></trkpt>
<trkpt lat="23.340341" lon="112.708276">
<time>2016-10-06T10:46:03Z</time></trkpt>
<trkpt lat="23.341692" lon="112.707317">
<time>2016-10-06T10:46:04Z</time></trkpt>
<trkpt lat="23.342362" lon="112.706838">
<time>2016-10-06T10:46:05Z</time></trkpt>
<trkpt lat="23.343133" lon="112.706299">
<time>2016-10-06T10:46:06Z</time></trkpt>
<trkpt lat="23.343183" lon="112.706259">
<time>2016-10-06T10:46:07Z</time></trkpt>
<trkpt lat="23.343233" lon="112.706229">
<time>2016-10-06T10:46:08Z</time></trkpt>
<trkpt lat="23.343663" lon="112.70592">
<time>2016-10-06T10:46:09Z</time></trkpt>
<trkpt lat="23.344103" lon="112.70561">
<time>2016-10-06T10:46:10Z</time></trkpt>
<trkpt lat="23.344354" lon="112.70544">
<time>2016-10-06T10:46:11Z</time></trkpt>
<trkpt lat="23.344694" lon="112.705201">
<time>2016-10-06T10:46:12Z</time></trkpt>
<trkpt lat="23.345044" lon="112.704951">
<time>2016-10-06T10:46:13Z</time></trkpt>
<trkpt lat="23.345044" lon="112.704951">
<time>2016-10-06T10:46:14Z</time></trkpt>
<trkpt lat="23.345105" lon="112.704492">
<time>2016-10-06T10:46:15Z</time></trkpt>
<trkpt lat="23.345185" lon="112.703953">
<time>2016-10-06T10:46:16Z</time></trkpt>
<trkpt lat="23.345307" lon="112.703184">
<time>2016-10-06T10:46:17Z</time></trkpt>
<trkpt lat="23.345317" lon="112.703154">
<time>2016-10-06T10:46:18Z</time></trkpt>
<trkpt lat="23.345347" lon="112.702895">
<time>2016-10-06T10:46:19Z</time></trkpt>
<trkpt lat="23.345408" lon="112.702396">
<time>2016-10-06T10:46:20Z</time></trkpt>
<trkpt lat="23.345418" lon="112.702326">
<time>2016-10-06T10:46:21Z</time></trkpt>
<trkpt lat="23.345509" lon="112.701657">
<time>2016-10-06T10:46:22Z</time></trkpt>
<trkpt lat="23.3456" lon="112.700998">
<time>2016-10-06T10:46:23Z</time></trkpt>
<trkpt lat="23.34561" lon="112.700978">
<time>2016-10-06T10:46:24Z</time></trkpt>
<trkpt lat="23.34564" lon="112.700669">
<time>2016-10-06T10:46:25Z</time></trkpt>
<trkpt lat="23.34565" lon="112.700599">
<time>2016-10-06T10:46:26Z</time></trkpt>
<trkpt lat="23.345671" lon="112.700339">
<time>2016-10-06T10:46:27Z</time></trkpt>
<trkpt lat="23.345681" lon="112.700249">
<time>2016-10-06T10:46:28Z</time></trkpt>
<trkpt lat="23.345752" lon="112.699321">
<time>2016-10-06T10:46:29Z</time></trkpt>
<trkpt lat="23.345823" lon="112.698782">
<time>2016-10-06T10:46:30Z</time></trkpt>
<trkpt lat="23.345823" lon="112.698742">
<time>2016-10-06T10:46:31Z</time></trkpt>
<trkpt lat="23.345883" lon="112.698453">
<time>2016-10-06T10:46:32Z</time></trkpt>
<trkpt lat="23.345974" lon="112.697764">
<time>2016-10-06T10:46:33Z</time></trkpt>
<trkpt lat="23.346015" lon="112.697275">
<time>2016-10-06T10:46:34Z</time></trkpt>
<trkpt lat="23.346066" lon="112.696546">
<time>2016-10-06T10:46:35Z</time></trkpt>
<trkpt lat="23.346066" lon="112.696487">
<time>2016-10-06T10:46:36Z</time></trkpt>
<trkpt lat="23.346067" lon="112.696337">
<time>2016-10-06T10:46:37Z</time></trkpt>
<trkpt lat="23.346027" lon="112.696157">
<time>2016-10-06T10:46:38Z</time></trkpt>
<trkpt lat="23.345908" lon="112.695818">
<time>2016-10-06T10:46:39Z</time></trkpt>
<trkpt lat="23.345868" lon="112.695638">
<time>2016-10-06T10:46:40Z</time></trkpt>
<trkpt lat="23.345858" lon="112.695568">
<time>2016-10-06T10:46:41Z</time></trkpt>
<trkpt lat="23.345849" lon="112.695209">
<time>2016-10-06T10:46:42Z</time></trkpt>
<trkpt lat="23.345849" lon="112.695209">
<time>2016-10-06T10:46:43Z</time></trkpt>
<trkpt lat="23.345849" lon="112.695059">
<time>2016-10-06T10:46:44Z</time></trkpt>
<trkpt lat="23.345839" lon="112.69471">
<time>2016-10-06T10:46:45Z</time></trkpt>
<trkpt lat="23.345839" lon="112.69469">
<time>2016-10-06T10:46:46Z</time></trkpt>
<trkpt lat="23.34579" lon="112.694391">
<time>2016-10-06T10:46:47Z</time></trkpt>
<trkpt lat="23.345641" lon="112.693702">
<time>2016-10-06T10:46:48Z</time></trkpt>
<trkpt lat="23.345562" lon="112.693393">
<time>2016-10-06T10:46:49Z</time></trkpt>
<trkpt lat="23.345422" lon="112.692834">
<time>2016-10-06T10:46:50Z</time></trkpt>
<trkpt lat="23.345383" lon="112.692694">
<time>2016-10-06T10:46:51Z</time></trkpt>
<trkpt lat="23.345313" lon="112.692514">
<time>2016-10-06T10:46:52Z</time></trkpt>
<trkpt lat="23.345214" lon="112.692215">
<time>2016-10-06T10:46:53Z</time></trkpt>
<trkpt lat="23.345094" lon="112.692045">
<time>2016-10-06T10:46:54Z</time></trkpt>
<trkpt lat="23.344635" lon="112.691237">
<time>2016-10-06T10:46:55Z</time></trkpt>
<trkpt lat="23.344556" lon="112.691097">
<time>2016-10-06T10:46:56Z</time></trkpt>
<trkpt lat="23.344406" lon="112.690858">
<time>2016-10-06T10:46:57Z</time></trkpt>
<trkpt lat="23.344406" lon="112.690848">
<time>2016-10-06T10:46:58Z</time></trkpt>
<trkpt lat="23.344206" lon="112.690658">
<time>2016-10-06T10:46:59Z</time></trkpt>
<trkpt lat="23.344087" lon="112.690529">
<time>2016-10-06T10:47:00Z</time></trkpt>
<trkpt lat="23.344037" lon="112.690439">
<time>2016-10-06T10:47:01Z</time></trkpt>
<trkpt lat="23.344027" lon="112.690419">
<time>2016-10-06T10:47:02Z</time></trkpt>
<trkpt lat="23.344007" lon="112.690349">
<time>2016-10-06T10:47:03Z</time></trkpt>
<trkpt lat="23.343997" lon="112.690269">
<time>2016-10-06T10:47:04Z</time></trkpt>
<trkpt lat="23.343997" lon="112.690179">
<time>2016-10-06T10:47:05Z</time></trkpt>
<trkpt lat="23.344017" lon="112.69006">
<time>2016-10-06T10:47:06Z</time></trkpt>
<trkpt lat="23.344068" lon="112.68993">
<time>2016-10-06T10:47:07Z</time></trkpt>
<trkpt lat="23.344148" lon="112.68977">
<time>2016-10-06T10:47:08Z</time></trkpt>
<trkpt lat="23.344308" lon="112.689551">
<time>2016-10-06T10:47:09Z</time></trkpt>
<trkpt lat="23.34531" lon="112.688303">
<time>2016-10-06T10:47:10Z</time></trkpt>
<trkpt lat="23.34531" lon="112.688303">
<time>2016-10-06T10:47:11Z</time></trkpt>
<trkpt lat="23.34533" lon="112.688283">
<time>2016-10-06T10:47:12Z</time></trkpt>
<trkpt lat="23.34534" lon="112.688263">
<time>2016-10-06T10:47:13Z</time></trkpt>
<trkpt lat="23.347123" lon="112.686197">
<time>2016-10-06T10:47:14Z</time></trkpt>
<trkpt lat="23.347244" lon="112.686068">
<time>2016-10-06T10:47:15Z</time></trkpt>
<trkpt lat="23.347404" lon="112.685948">
<time>2016-10-06T10:47:16Z</time></trkpt>
<trkpt lat="23.347864" lon="112.685678">
<time>2016-10-06T10:47:17Z</time></trkpt>
<trkpt lat="23.348014" lon="112.685599">
<time>2016-10-06T10:47:18Z</time></trkpt>
<trkpt lat="23.348214" lon="112.685489">
<time>2016-10-06T10:47:19Z</time></trkpt>
<trkpt lat="23.348385" lon="112.685329">
<time>2016-10-06T10:47:20Z</time></trkpt>
<trkpt lat="23.348525" lon="112.685209">
<time>2016-10-06T10:47:21Z</time></trkpt>
<trkpt lat="23.348635" lon="112.68506">
<time>2016-10-06T10:47:22Z</time></trkpt>
<trkpt lat="23.348816" lon="112.68474">
<time>2016-10-06T10:47:23Z</time></trkpt>
<trkpt lat="23.348916" lon="112.684551">
<time>2016-10-06T10:47:24Z</time></trkpt>
<trkpt lat="23.349016" lon="112.684371">
<time>2016-10-06T10:47:25Z</time></trkpt>
<trkpt lat="23.349067" lon="112.684202">
<time>2016-10-06T10:47:26Z</time></trkpt>
<trkpt lat="23.349087" lon="112.683982">
<time>2016-10-06T10:47:27Z</time></trkpt>
<trkpt lat="23.349078" lon="112.683543">
<time>2016-10-06T10:47:28Z</time></trkpt>
<trkpt lat="23.349079" lon="112.683024">
<time>2016-10-06T10:47:29Z</time></trkpt>
<trkpt lat="23.349099" lon="112.682765">
<time>2016-10-06T10:47:30Z</time></trkpt>
<trkpt lat="23.34917" lon="112.682386">
<time>2016-10-06T10:47:31Z</time></trkpt>
<trkpt lat="23.34925" lon="112.682096">
<time>2016-10-06T10:47:32Z</time></trkpt>
<trkpt lat="23.34925" lon="112.682096">
<time>2016-10-06T10:47:33Z</time></trkpt>
<trkpt lat="23.349061" lon="112.681587">
<time>2016-10-06T10:47:34Z</time></trkpt>
<trkpt lat="23.348992" lon="112.681438">
<time>2016-10-06T10:47:35Z</time></trkpt>
<trkpt lat="23.348574" lon="112.68037">
<time>2016-10-06T10:47:36Z</time></trkpt>
<trkpt lat="23.348574" lon="112.68037">
<time>2016-10-06T10:47:37Z</time></trkpt>
<trkpt lat="23.348744" lon="112.68018">
<time>2016-10-06T10:47:38Z</time></trkpt>
<trkpt lat="23.349125" lon="112.679831">
<time>2016-10-06T10:47:39Z</time></trkpt>
<trkpt lat="23.349545" lon="112.679482">
<time>2016-10-06T10:47:40Z</time></trkpt>
<trkpt lat="23.349715" lon="112.679352">
<time>2016-10-06T10:47:41Z</time></trkpt>
<trkpt lat="23.349936" lon="112.679202">
<time>2016-10-06T10:47:42Z</time></trkpt>
<trkpt lat="23.350496" lon="112.678833">
<time>2016-10-06T10:47:43Z</time></trkpt>
<trkpt lat="23.350706" lon="112.678723">
<time>2016-10-06T10:47:44Z</time></trkpt>
<trkpt lat="23.350826" lon="112.678634">
<time>2016-10-06T10:47:45Z</time></trkpt>
<trkpt lat="23.350977" lon="112.678434">
<time>2016-10-06T10:47:46Z</time></trkpt>
<trkpt lat="23.351518" lon="112.677466">
<time>2016-10-06T10:47:47Z</time></trkpt>
<trkpt lat="23.35191" lon="112.676768">
<time>2016-10-06T10:47:48Z</time></trkpt>
<trkpt lat="23.352371" lon="112.67587">
<time>2016-10-06T10:47:49Z</time></trkpt>
<trkpt lat="23.352753" lon="112.675002">
<time>2016-10-06T10:47:50Z</time></trkpt>
<trkpt lat="23.352853" lon="112.674692">
<time>2016-10-06T10:47:51Z</time></trkpt>
<trkpt lat="23.352934" lon="112.674373">
<time>2016-10-06T10:47:52Z</time></trkpt>
<trkpt lat="23.353407" lon="112.672807">
<time>2016-10-06T10:47:53Z</time></trkpt>
<trkpt lat="23.35385" lon="112.67127">
<time>2016-10-06T10:47:54Z</time></trkpt>
<trkpt lat="23.35392" lon="112.671041">
<time>2016-10-06T10:47:55Z</time></trkpt>
<trkpt lat="23.35396" lon="112.670831">
<time>2016-10-06T10:47:56Z</time></trkpt>
<trkpt lat="23.354021" lon="112.670542">
<time>2016-10-06T10:47:57Z</time></trkpt>
<trkpt lat="23.354031" lon="112.670352">
<time>2016-10-06T10:47:58Z</time></trkpt>
<trkpt lat="23.354013" lon="112.669275">
<time>2016-10-06T10:47:59Z</time></trkpt>
<trkpt lat="23.354004" lon="112.669155">
<time>2016-10-06T10:48:00Z</time></trkpt>
<trkpt lat="23.353995" lon="112.668666">
<time>2016-10-06T10:48:01Z</time></trkpt>
<trkpt lat="23.353965" lon="112.668427">
<time>2016-10-06T10:48:02Z</time></trkpt>
<trkpt lat="23.353905" lon="112.668237">
<time>2016-10-06T10:48:03Z</time></trkpt>
<trkpt lat="23.353766" lon="112.667908">
<time>2016-10-06T10:48:04Z</time></trkpt>
<trkpt lat="23.353587" lon="112.667568">
<time>2016-10-06T10:48:05Z</time></trkpt>
<trkpt lat="23.353188" lon="112.66682">
<time>2016-10-06T10:48:06Z</time></trkpt>
<trkpt lat="23.352979" lon="112.666401">
<time>2016-10-06T10:48:07Z</time></trkpt>
<trkpt lat="23.35289" lon="112.666162">
<time>2016-10-06T10:48:08Z</time></trkpt>
<trkpt lat="23.35286" lon="112.665992">
<time>2016-10-06T10:48:09Z</time></trkpt>
<trkpt lat="23.35285" lon="112.665932">
<time>2016-10-06T10:48:10Z</time></trkpt>
<trkpt lat="23.35285" lon="112.665932">
<time>2016-10-06T10:48:11Z</time></trkpt>
<trkpt lat="23.352651" lon="112.665254">
<time>2016-10-06T10:48:12Z</time></trkpt>
<trkpt lat="23.352463" lon="112.664655">
<time>2016-10-06T10:48:13Z</time></trkpt>
<trkpt lat="23.352255" lon="112.663378">
<time>2016-10-06T10:48:14Z</time></trkpt>
<trkpt lat="23.352107" lon="112.66256">
<time>2016-10-06T10:48:15Z</time></trkpt>
<trkpt lat="23.351858" lon="112.661682">
<time>2016-10-06T10:48:16Z</time></trkpt>
<trkpt lat="23.3516" lon="112.661013">
<time>2016-10-06T10:48:17Z</time></trkpt>
<trkpt lat="23.351262" lon="112.659966">
<time>2016-10-06T10:48:18Z</time></trkpt>
<trkpt lat="23.350923" lon="112.659128">
<time>2016-10-06T10:48:19Z</time></trkpt>
<trkpt lat="23.350834" lon="112.658689">
<time>2016-10-06T10:48:20Z</time></trkpt>
<trkpt lat="23.350806" lon="112.657771">
<time>2016-10-06T10:48:21Z</time></trkpt>
<trkpt lat="23.350747" lon="112.657292">
<time>2016-10-06T10:48:22Z</time></trkpt>
<trkpt lat="23.350628" lon="112.656633">
<time>2016-10-06T10:48:23Z</time></trkpt>
<trkpt lat="23.350669" lon="112.656344">
<time>2016-10-06T10:48:24Z</time></trkpt>
<trkpt lat="23.350899" lon="112.656055">
<time>2016-10-06T10:48:25Z</time></trkpt>
<trkpt lat="23.35126" lon="112.655655">
<time>2016-10-06T10:48:26Z</time></trkpt>
<trkpt lat="23.35142" lon="112.655336">
<time>2016-10-06T10:48:27Z</time></trkpt>
<trkpt lat="23.351442" lon="112.654698">
<time>2016-10-06T10:48:28Z</time></trkpt>
<trkpt lat="23.351462" lon="112.654488">
<time>2016-10-06T10:48:29Z</time></trkpt>
<trkpt lat="23.351463" lon="112.653969">
<time>2016-10-06T10:48:30Z</time></trkpt>
<trkpt lat="23.351394" lon="112.65343">
<time>2016-10-06T10:48:31Z</time></trkpt>
<trkpt lat="23.351235" lon="112.652712">
<time>2016-10-06T10:48:32Z</time></trkpt>
<trkpt lat="23.351026" lon="112.652393">
<time>2016-10-06T10:48:33Z</time></trkpt>
<trkpt lat="23.350796" lon="112.652193">
<time>2016-10-06T10:48:34Z</time></trkpt>
<trkpt lat="23.350517" lon="112.651854">
<time>2016-10-06T10:48:35Z</time></trkpt>
<trkpt lat="23.350398" lon="112.651545">
<time>2016-10-06T10:48:36Z</time></trkpt>
<trkpt lat="23.350448" lon="112.651095">
<time>2016-10-06T10:48:37Z</time></trkpt>
<trkpt lat="23.35048" lon="112.650427">
<time>2016-10-06T10:48:38Z</time></trkpt>
<trkpt lat="23.3504" lon="112.650058">
<time>2016-10-06T10:48:39Z</time></trkpt>
<trkpt lat="23.350282" lon="112.649419">
<time>2016-10-06T10:48:40Z</time></trkpt>
<trkpt lat="23.350162" lon="112.64902">
<time>2016-10-06T10:48:41Z</time></trkpt>
<trkpt lat="23.350132" lon="112.64893">
<time>2016-10-06T10:48:42Z</time></trkpt>
<trkpt lat="23.349864" lon="112.648262">
<time>2016-10-06T10:48:43Z</time></trkpt>
<trkpt lat="23.349705" lon="112.647613">
<time>2016-10-06T10:48:44Z</time></trkpt>
<trkpt lat="23.349666" lon="112.647204">
<time>2016-10-06T10:48:45Z</time></trkpt>
<trkpt lat="23.349647" lon="112.646465">
<time>2016-10-06T10:48:46Z</time></trkpt>
<trkpt lat="23.349648" lon="112.646076">
<time>2016-10-06T10:48:47Z</time></trkpt>
<trkpt lat="23.349638" lon="112.645976">
<time>2016-10-06T10:48:48Z</time></trkpt>
<trkpt lat="23.349628" lon="112.645887">
<time>2016-10-06T10:48:49Z</time></trkpt>
<trkpt lat="23.349618" lon="112.645807">
<time>2016-10-06T10:48:50Z</time></trkpt>
<trkpt lat="23.349608" lon="112.645737">
<time>2016-10-06T10:48:51Z</time></trkpt>
<trkpt lat="23.349588" lon="112.645657">
<time>2016-10-06T10:48:52Z</time></trkpt>
<trkpt lat="23.349529" lon="112.645447">
<time>2016-10-06T10:48:53Z</time></trkpt>
<trkpt lat="23.349509" lon="112.645328">
<time>2016-10-06T10:48:54Z</time></trkpt>
<trkpt lat="23.349489" lon="112.645198">
<time>2016-10-06T10:48:55Z</time></trkpt>
<trkpt lat="23.349459" lon="112.645058">
<time>2016-10-06T10:48:56Z</time></trkpt>
<trkpt lat="23.34944" lon="112.644899">
<time>2016-10-06T10:48:57Z</time></trkpt>
<trkpt lat="23.34942" lon="112.644679">
<time>2016-10-06T10:48:58Z</time></trkpt>
<trkpt lat="23.34939" lon="112.64444">
<time>2016-10-06T10:48:59Z</time></trkpt>
<trkpt lat="23.349381" lon="112.64432">
<time>2016-10-06T10:49:00Z</time></trkpt>
<trkpt lat="23.349371" lon="112.6442">
<time>2016-10-06T10:49:01Z</time></trkpt>
<trkpt lat="23.349361" lon="112.6441">
<time>2016-10-06T10:49:02Z</time></trkpt>
<trkpt lat="23.349361" lon="112.644">
<time>2016-10-06T10:49:03Z</time></trkpt>
<trkpt lat="23.349371" lon="112.643901">
<time>2016-10-06T10:49:04Z</time></trkpt>
<trkpt lat="23.349372" lon="112.643811">
<time>2016-10-06T10:49:05Z</time></trkpt>
<trkpt lat="23.349372" lon="112.643731">
<time>2016-10-06T10:49:06Z</time></trkpt>
<trkpt lat="23.349382" lon="112.643651">
<time>2016-10-06T10:49:07Z</time></trkpt>
<trkpt lat="23.349392" lon="112.643571">
<time>2016-10-06T10:49:08Z</time></trkpt>
<trkpt lat="23.349402" lon="112.643501">
<time>2016-10-06T10:49:09Z</time></trkpt>
<trkpt lat="23.349422" lon="112.643432">
<time>2016-10-06T10:49:10Z</time></trkpt>
<trkpt lat="23.349442" lon="112.643342">
<time>2016-10-06T10:49:11Z</time></trkpt>
<trkpt lat="23.349472" lon="112.643242">
<time>2016-10-06T10:49:12Z</time></trkpt>
<trkpt lat="23.349503" lon="112.643152">
<time>2016-10-06T10:49:13Z</time></trkpt>
<trkpt lat="23.349593" lon="112.642933">
<time>2016-10-06T10:49:14Z</time></trkpt>
<trkpt lat="23.349663" lon="112.642733">
<time>2016-10-06T10:49:15Z</time></trkpt>
<trkpt lat="23.349724" lon="112.642583">
<time>2016-10-06T10:49:16Z</time></trkpt>
<trkpt lat="23.349774" lon="112.642454">
<time>2016-10-06T10:49:17Z</time></trkpt>
<trkpt lat="23.349824" lon="112.642334">
<time>2016-10-06T10:49:18Z</time></trkpt>
<trkpt lat="23.349864" lon="112.642254">
<time>2016-10-06T10:49:19Z</time></trkpt>
<trkpt lat="23.349964" lon="112.642064">
<time>2016-10-06T10:49:20Z</time></trkpt>
<trkpt lat="23.349984" lon="112.642014">
<time>2016-10-06T10:49:21Z</time></trkpt>
<trkpt lat="23.350005" lon="112.641965">
<time>2016-10-06T10:49:22Z</time></trkpt>
<trkpt lat="23.350035" lon="112.641895">
<time>2016-10-06T10:49:23Z</time></trkpt>
<trkpt lat="23.350035" lon="112.641885">
<time>2016-10-06T10:49:24Z</time></trkpt>
<trkpt lat="23.350095" lon="112.641715">
<time>2016-10-06T10:49:25Z</time></trkpt>
<trkpt lat="23.350115" lon="112.641635">
<time>2016-10-06T10:49:26Z</time></trkpt>
<trkpt lat="23.350155" lon="112.641535">
<time>2016-10-06T10:49:27Z</time></trkpt>
<trkpt lat="23.350205" lon="112.641426">
<time>2016-10-06T10:49:28Z</time></trkpt>
<trkpt lat="23.350266" lon="112.641316">
<time>2016-10-06T10:49:29Z</time></trkpt>
<trkpt lat="23.350366" lon="112.641116">
<time>2016-10-06T10:49:30Z</time></trkpt>
<trkpt lat="23.350426" lon="112.640986">
<time>2016-10-06T10:49:31Z</time></trkpt>
<trkpt lat="23.350586" lon="112.640707">
<time>2016-10-06T10:49:32Z</time></trkpt>
<trkpt lat="23.350657" lon="112.640577">
<time>2016-10-06T10:49:33Z</time></trkpt>
<trkpt lat="23.350687" lon="112.640517">
<time>2016-10-06T10:49:34Z</time></trkpt>
<trkpt lat="23.350717" lon="112.640447">
<time>2016-10-06T10:49:35Z</time></trkpt>
<trkpt lat="23.350837" lon="112.640178">
<time>2016-10-06T10:49:36Z</time></trkpt>
<trkpt lat="23.350887" lon="112.640058">
<time>2016-10-06T10:49:37Z</time></trkpt>
<trkpt lat="23.350918" lon="112.639998">
<time>2016-10-06T10:49:38Z</time></trkpt>
<trkpt lat="23.350948" lon="112.639948">
<time>2016-10-06T10:49:39Z</time></trkpt>
<trkpt lat="23.350978" lon="112.639899">
<time>2016-10-06T10:49:40Z</time></trkpt>
<trkpt lat="23.351008" lon="112.639849">
<time>2016-10-06T10:49:41Z</time></trkpt>
<trkpt lat="23.351058" lon="112.639779">
<time>2016-10-06T10:49:42Z</time></trkpt>
<trkpt lat="23.351098" lon="112.639719">
<time>2016-10-06T10:49:43Z</time></trkpt>
<trkpt lat="23.351148" lon="112.639649">
<time>2016-10-06T10:49:44Z</time></trkpt>
<trkpt lat="23.351208" lon="112.639589">
<time>2016-10-06T10:49:45Z</time></trkpt>
<trkpt lat="23.351258" lon="112.639529">
<time>2016-10-06T10:49:46Z</time></trkpt>
<trkpt lat="23.351308" lon="112.639469">
<time>2016-10-06T10:49:47Z</time></trkpt>
<trkpt lat="23.351368" lon="112.639409">
<time>2016-10-06T10:49:48Z</time></trkpt>
<trkpt lat="23.351428" lon="112.63936">
<time>2016-10-06T10:49:49Z</time></trkpt>
<trkpt lat="23.351769" lon="112.63898">
<time>2016-10-06T10:49:50Z</time></trkpt>
<trkpt lat="23.351869" lon="112.63886">
<time>2016-10-06T10:49:51Z</time></trkpt>
<trkpt lat="23.353311" lon="112.637223">
<time>2016-10-06T10:49:52Z</time></trkpt>
<trkpt lat="23.353522" lon="112.636984">
<time>2016-10-06T10:49:53Z</time></trkpt>
<trkpt lat="23.353692" lon="112.636824">
<time>2016-10-06T10:49:54Z</time></trkpt>
<trkpt lat="23.353752" lon="112.636764">
<time>2016-10-06T10:49:55Z</time></trkpt>
<trkpt lat="23.353812" lon="112.636734">
<time>2016-10-06T10:49:57Z</time></trkpt>
<trkpt lat="23.353892" lon="112.636694">
<time>2016-10-06T10:49:58Z</time></trkpt>
<trkpt lat="23.353942" lon="112.636684">
<time>2016-10-06T10:49:59Z</time></trkpt>
<trkpt lat="23.353992" lon="112.636694">
<time>2016-10-06T10:50:00Z</time></trkpt>
<trkpt lat="23.353992" lon="112.636694">
<time>2016-10-06T10:50:01Z</time></trkpt>
<trkpt lat="23.354697" lon="112.63359">
<time>2016-10-06T10:50:02Z</time></trkpt>
<trkpt lat="23.354838" lon="112.632981">
<time>2016-10-06T10:50:03Z</time></trkpt>
<trkpt lat="23.355472" lon="112.630116">
<time>2016-10-06T10:50:04Z</time></trkpt>
<trkpt lat="23.355944" lon="112.628099">
<time>2016-10-06T10:50:05Z</time></trkpt>
<trkpt lat="23.356125" lon="112.627291">
<time>2016-10-06T10:50:06Z</time></trkpt>
<trkpt lat="23.356326" lon="112.626622">
<time>2016-10-06T10:50:07Z</time></trkpt>
<trkpt lat="23.356898" lon="112.624994">
<time>2016-10-06T10:50:08Z</time></trkpt>
<trkpt lat="23.357069" lon="112.624535">
<time>2016-10-06T10:50:09Z</time></trkpt>
<trkpt lat="23.357259" lon="112.623796">
<time>2016-10-06T10:50:10Z</time></trkpt>
<trkpt lat="23.35737" lon="112.623416">
<time>2016-10-06T10:50:11Z</time></trkpt>
<trkpt lat="23.35741" lon="112.623117">
<time>2016-10-06T10:50:12Z</time></trkpt>
<trkpt lat="23.357441" lon="112.622767">
<time>2016-10-06T10:50:13Z</time></trkpt>
<trkpt lat="23.357431" lon="112.622418">
<time>2016-10-06T10:50:14Z</time></trkpt>
<trkpt lat="23.357361" lon="112.622008">
<time>2016-10-06T10:50:15Z</time></trkpt>
<trkpt lat="23.357242" lon="112.621579">
<time>2016-10-06T10:50:16Z</time></trkpt>
<trkpt lat="23.356863" lon="112.620401">
<time>2016-10-06T10:50:17Z</time></trkpt>
<trkpt lat="23.356634" lon="112.619712">
<time>2016-10-06T10:50:18Z</time></trkpt>
<trkpt lat="23.356405" lon="112.618943">
<time>2016-10-06T10:50:19Z</time></trkpt>
<trkpt lat="23.356275" lon="112.618563">
<time>2016-10-06T10:50:20Z</time></trkpt>
<trkpt lat="23.356176" lon="112.618224">
<time>2016-10-06T10:50:21Z</time></trkpt>
<trkpt lat="23.356126" lon="112.617944">
<time>2016-10-06T10:50:22Z</time></trkpt>
<trkpt lat="23.356096" lon="112.617674">
<time>2016-10-06T10:50:23Z</time></trkpt>
<trkpt lat="23.356117" lon="112.617425">
<time>2016-10-06T10:50:24Z</time></trkpt>
<trkpt lat="23.356137" lon="112.617155">
<time>2016-10-06T10:50:25Z</time></trkpt>
<trkpt lat="23.356228" lon="112.616406">
<time>2016-10-06T10:50:26Z</time></trkpt>
<trkpt lat="23.356248" lon="112.616226">
<time>2016-10-06T10:50:27Z</time></trkpt>
<trkpt lat="23.356268" lon="112.615816">
<time>2016-10-06T10:50:28Z</time></trkpt>
<trkpt lat="23.356249" lon="112.615437">
<time>2016-10-06T10:50:29Z</time></trkpt>
<trkpt lat="23.356179" lon="112.615127">
<time>2016-10-06T10:50:30Z</time></trkpt>
<trkpt lat="23.356129" lon="112.614848">
<time>2016-10-06T10:50:31Z</time></trkpt>
<trkpt lat="23.356049" lon="112.614468">
<time>2016-10-06T10:50:32Z</time></trkpt>
<trkpt lat="23.35582" lon="112.613419">
<time>2016-10-06T10:50:33Z</time></trkpt>
<trkpt lat="23.355641" lon="112.61262">
<time>2016-10-06T10:50:34Z</time></trkpt>
<trkpt lat="23.355362" lon="112.611371">
<time>2016-10-06T10:50:35Z</time></trkpt>
<trkpt lat="23.354704" lon="112.608294">
<time>2016-10-06T10:50:36Z</time></trkpt>
<trkpt lat="23.354445" lon="112.607095">
<time>2016-10-06T10:50:37Z</time></trkpt>
<trkpt lat="23.354396" lon="112.606556">
<time>2016-10-06T10:50:38Z</time></trkpt>
<trkpt lat="23.354406" lon="112.605806">
<time>2016-10-06T10:50:39Z</time></trkpt>
<trkpt lat="23.354546" lon="112.604927">
<time>2016-10-06T10:50:40Z</time></trkpt>
<trkpt lat="23.354927" lon="112.603738">
<time>2016-10-06T10:50:41Z</time></trkpt>
<trkpt lat="23.355007" lon="112.603528">
<time>2016-10-06T10:50:42Z</time></trkpt>
<trkpt lat="23.355147" lon="112.603168">
<time>2016-10-06T10:50:43Z</time></trkpt>
<trkpt lat="23.355357" lon="112.602748">
<time>2016-10-06T10:50:44Z</time></trkpt>
<trkpt lat="23.355807" lon="112.602069">
<time>2016-10-06T10:50:45Z</time></trkpt>
<trkpt lat="23.356298" lon="112.601539">
<time>2016-10-06T10:50:46Z</time></trkpt>
<trkpt lat="23.356698" lon="112.601239">
<time>2016-10-06T10:50:47Z</time></trkpt>
<trkpt lat="23.357068" lon="112.600999">
<time>2016-10-06T10:50:48Z</time></trkpt>
<trkpt lat="23.357888" lon="112.600589">
<time>2016-10-06T10:50:49Z</time></trkpt>
<trkpt lat="23.358748" lon="112.600159">
<time>2016-10-06T10:50:50Z</time></trkpt>
<trkpt lat="23.359078" lon="112.59997">
<time>2016-10-06T10:50:51Z</time></trkpt>
<trkpt lat="23.359348" lon="112.59973">
<time>2016-10-06T10:50:52Z</time></trkpt>
<trkpt lat="23.359358" lon="112.59972">
<time>2016-10-06T10:50:53Z</time></trkpt>
<trkpt lat="23.359928" lon="112.59909">
<time>2016-10-06T10:50:54Z</time></trkpt>
<trkpt lat="23.360638" lon="112.59808">
<time>2016-10-06T10:50:55Z</time></trkpt>
<trkpt lat="23.361898" lon="112.596261">
<time>2016-10-06T10:50:56Z</time></trkpt>
<trkpt lat="23.362348" lon="112.595581">
<time>2016-10-06T10:50:57Z</time></trkpt>
<trkpt lat="23.363838" lon="112.593361">
<time>2016-10-06T10:50:58Z</time></trkpt>
<trkpt lat="23.364617" lon="112.592231">
<time>2016-10-06T10:50:59Z</time></trkpt>
<trkpt lat="23.364837" lon="112.591991">
<time>2016-10-06T10:51:00Z</time></trkpt>
<trkpt lat="23.365067" lon="112.591801">
<time>2016-10-06T10:51:01Z</time></trkpt>
<trkpt lat="23.365247" lon="112.591681">
<time>2016-10-06T10:51:02Z</time></trkpt>
<trkpt lat="23.365507" lon="112.591561">
<time>2016-10-06T10:51:03Z</time></trkpt>
<trkpt lat="23.365937" lon="112.591431">
<time>2016-10-06T10:51:04Z</time></trkpt>
<trkpt lat="23.366987" lon="112.591261">
<time>2016-10-06T10:51:05Z</time></trkpt>
<trkpt lat="23.368777" lon="112.591041">
<time>2016-10-06T10:51:06Z</time></trkpt>
<trkpt lat="23.370686" lon="112.590761">
<time>2016-10-06T10:51:07Z</time></trkpt>
<trkpt lat="23.370726" lon="112.590751">
<time>2016-10-06T10:51:08Z</time></trkpt>
<trkpt lat="23.372886" lon="112.590481">
<time>2016-10-06T10:51:09Z</time></trkpt>
<trkpt lat="23.373686" lon="112.590331">
<time>2016-10-06T10:51:10Z</time></trkpt>
<trkpt lat="23.374405" lon="112.590151">
<time>2016-10-06T10:51:11Z</time></trkpt>
<trkpt lat="23.375345" lon="112.589721">
<time>2016-10-06T10:51:12Z</time></trkpt>
<trkpt lat="23.376725" lon="112.589091">
<time>2016-10-06T10:51:13Z</time></trkpt>
<trkpt lat="23.377145" lon="112.588901">
<time>2016-10-06T10:51:14Z</time></trkpt>
<trkpt lat="23.379064" lon="112.587991">
<time>2016-10-06T10:51:15Z</time></trkpt>
<trkpt lat="23.380754" lon="112.5872">
<time>2016-10-06T10:51:16Z</time></trkpt>
<trkpt lat="23.381054" lon="112.58708">
<time>2016-10-06T10:51:17Z</time></trkpt>
<trkpt lat="23.381214" lon="112.58703">
<time>2016-10-06T10:51:18Z</time></trkpt>
<trkpt lat="23.381463" lon="112.58699">
<time>2016-10-06T10:51:19Z</time></trkpt>
<trkpt lat="23.381673" lon="112.58698">
<time>2016-10-06T10:51:20Z</time></trkpt>
<trkpt lat="23.382163" lon="112.58701">
<time>2016-10-06T10:51:21Z</time></trkpt>
<trkpt lat="23.382673" lon="112.58703">
<time>2016-10-06T10:51:22Z</time></trkpt>
<trkpt lat="23.382943" lon="112.58699">
<time>2016-10-06T10:51:23Z</time></trkpt>
<trkpt lat="23.383273" lon="112.58689">
<time>2016-10-06T10:51:24Z</time></trkpt>
<trkpt lat="23.383653" lon="112.58672">
<time>2016-10-06T10:51:25Z</time></trkpt>
<trkpt lat="23.384373" lon="112.58625">
<time>2016-10-06T10:51:26Z</time></trkpt>
<trkpt lat="23.385262" lon="112.58564">
<time>2016-10-06T10:51:27Z</time></trkpt>
<trkpt lat="23.385652" lon="112.58537">
<time>2016-10-06T10:51:28Z</time></trkpt>
<trkpt lat="23.386132" lon="112.58482">
<time>2016-10-06T10:51:29Z</time></trkpt>
<trkpt lat="23.386492" lon="112.584249">
<time>2016-10-06T10:51:30Z</time></trkpt>
<trkpt lat="23.387391" lon="112.582449">
<time>2016-10-06T10:51:31Z</time></trkpt>
<trkpt lat="23.38787" lon="112.581398">
<time>2016-10-06T10:51:32Z</time></trkpt>
<trkpt lat="23.38815" lon="112.580858">
<time>2016-10-06T10:51:33Z</time></trkpt>
<trkpt lat="23.38828" lon="112.580688">
<time>2016-10-06T10:51:34Z</time></trkpt>
<trkpt lat="23.38843" lon="112.580498">
<time>2016-10-06T10:51:35Z</time></trkpt>
<trkpt lat="23.388619" lon="112.580348">
<time>2016-10-06T10:51:36Z</time></trkpt>
<trkpt lat="23.389109" lon="112.580078">
<time>2016-10-06T10:51:37Z</time></trkpt>
<trkpt lat="23.389659" lon="112.579827">
<time>2016-10-06T10:51:38Z</time></trkpt>
<trkpt lat="23.389689" lon="112.579797">
<time>2016-10-06T10:51:39Z</time></trkpt>
<trkpt lat="23.389689" lon="112.579797">
<time>2016-10-06T10:51:40Z</time></trkpt>
<trkpt lat="23.389659" lon="112.579747">
<time>2016-10-06T10:51:41Z</time></trkpt>
<trkpt lat="23.389659" lon="112.579747">
<time>2016-10-06T10:51:42Z</time></trkpt>
<trkpt lat="23.389859" lon="112.579587">
<time>2016-10-06T10:51:43Z</time></trkpt>
<trkpt lat="23.390059" lon="112.579397">
<time>2016-10-06T10:51:44Z</time></trkpt>
<trkpt lat="23.390209" lon="112.579197">
<time>2016-10-06T10:51:45Z</time></trkpt>
<trkpt lat="23.390618" lon="112.578517">
<time>2016-10-06T10:51:46Z</time></trkpt>
<trkpt lat="23.391028" lon="112.577816">
<time>2016-10-06T10:51:47Z</time></trkpt>
<trkpt lat="23.391876" lon="112.576365">
<time>2016-10-06T10:51:48Z</time></trkpt>
<trkpt lat="23.392306" lon="112.575535">
<time>2016-10-06T10:51:49Z</time></trkpt>
<trkpt lat="23.392755" lon="112.574464">
<time>2016-10-06T10:51:50Z</time></trkpt>
<trkpt lat="23.392785" lon="112.574404">
<time>2016-10-06T10:51:51Z</time></trkpt>
<trkpt lat="23.393084" lon="112.573473">
<time>2016-10-06T10:51:52Z</time></trkpt>
<trkpt lat="23.393343" lon="112.572452">
<time>2016-10-06T10:51:53Z</time></trkpt>
<trkpt lat="23.393582" lon="112.571061">
<time>2016-10-06T10:51:54Z</time></trkpt>
<trkpt lat="23.393701" lon="112.570621">
<time>2016-10-06T10:51:55Z</time></trkpt>
<trkpt lat="23.393791" lon="112.57039">
<time>2016-10-06T10:51:56Z</time></trkpt>
<trkpt lat="23.393931" lon="112.57018">
<time>2016-10-06T10:51:57Z</time></trkpt>
<trkpt lat="23.3941" lon="112.56998">
<time>2016-10-06T10:51:58Z</time></trkpt>
<trkpt lat="23.39448" lon="112.569569">
<time>2016-10-06T10:51:59Z</time></trkpt>
<trkpt lat="23.3946" lon="112.569419">
<time>2016-10-06T10:52:00Z</time></trkpt>
<trkpt lat="23.394719" lon="112.569259">
<time>2016-10-06T10:52:01Z</time></trkpt>
<trkpt lat="23.394799" lon="112.569079">
<time>2016-10-06T10:52:02Z</time></trkpt>
<trkpt lat="23.394989" lon="112.568508">
<time>2016-10-06T10:52:03Z</time></trkpt>
<trkpt lat="23.395168" lon="112.567537">
<time>2016-10-06T10:52:04Z</time></trkpt>
<trkpt lat="23.395317" lon="112.566776">
<time>2016-10-06T10:52:05Z</time></trkpt>
<trkpt lat="23.395396" lon="112.566556">
<time>2016-10-06T10:52:06Z</time></trkpt>
<trkpt lat="23.395506" lon="112.566306">
<time>2016-10-06T10:52:07Z</time></trkpt>
<trkpt lat="23.395596" lon="112.566166">
<time>2016-10-06T10:52:08Z</time></trkpt>
<trkpt lat="23.395676" lon="112.566066">
<time>2016-10-06T10:52:09Z</time></trkpt>
<trkpt lat="23.395746" lon="112.565985">
<time>2016-10-06T10:52:10Z</time></trkpt>
<trkpt lat="23.396075" lon="112.565685">
<time>2016-10-06T10:52:11Z</time></trkpt>
<trkpt lat="23.397124" lon="112.564874">
<time>2016-10-06T10:52:12Z</time></trkpt>
<trkpt lat="23.397474" lon="112.564694">
<time>2016-10-06T10:52:13Z</time></trkpt>
<trkpt lat="23.397744" lon="112.564564">
<time>2016-10-06T10:52:14Z</time></trkpt>
<trkpt lat="23.398023" lon="112.564503">
<time>2016-10-06T10:52:15Z</time></trkpt>
<trkpt lat="23.398243" lon="112.564483">
<time>2016-10-06T10:52:16Z</time></trkpt>
<trkpt lat="23.398463" lon="112.564473">
<time>2016-10-06T10:52:17Z</time></trkpt>
<trkpt lat="23.398713" lon="112.564473">
<time>2016-10-06T10:52:18Z</time></trkpt>
<trkpt lat="23.399043" lon="112.564533">
<time>2016-10-06T10:52:19Z</time></trkpt>
<trkpt lat="23.399343" lon="112.564604">
<time>2016-10-06T10:52:20Z</time></trkpt>
<trkpt lat="23.399974" lon="112.564854">
<time>2016-10-06T10:52:21Z</time></trkpt>
<trkpt lat="23.400674" lon="112.565194">
<time>2016-10-06T10:52:22Z</time></trkpt>
<trkpt lat="23.400994" lon="112.565354">
<time>2016-10-06T10:52:23Z</time></trkpt>
<trkpt lat="23.401174" lon="112.565444">
<time>2016-10-06T10:52:24Z</time></trkpt>
<trkpt lat="23.401614" lon="112.565665">
<time>2016-10-06T10:52:25Z</time></trkpt>
<trkpt lat="23.403925" lon="112.566846">
<time>2016-10-06T10:52:26Z</time></trkpt>
<trkpt lat="23.404546" lon="112.567156">
<time>2016-10-06T10:52:27Z</time></trkpt>
<trkpt lat="23.404686" lon="112.567236">
<time>2016-10-06T10:52:28Z</time></trkpt>
<trkpt lat="23.406176" lon="112.567987">
<time>2016-10-06T10:52:29Z</time></trkpt>
<trkpt lat="23.407907" lon="112.568868">
<time>2016-10-06T10:52:30Z</time></trkpt>
<trkpt lat="23.408647" lon="112.569178">
<time>2016-10-06T10:52:31Z</time></trkpt>
<trkpt lat="23.408817" lon="112.569248">
<time>2016-10-06T10:52:32Z</time></trkpt>
<trkpt lat="23.409257" lon="112.569358">
<time>2016-10-06T10:52:33Z</time></trkpt>
<trkpt lat="23.409927" lon="112.569438">
<time>2016-10-06T10:52:34Z</time></trkpt>
<trkpt lat="23.410777" lon="112.569418">
<time>2016-10-06T10:52:35Z</time></trkpt>
<trkpt lat="23.413297" lon="112.569328">
<time>2016-10-06T10:52:36Z</time></trkpt>
<trkpt lat="23.413367" lon="112.569328">
<time>2016-10-06T10:52:37Z</time></trkpt>
<trkpt lat="23.414406" lon="112.569298">
<time>2016-10-06T10:52:38Z</time></trkpt>
<trkpt lat="23.414726" lon="112.569258">
<time>2016-10-06T10:52:39Z</time></trkpt>
<trkpt lat="23.414936" lon="112.569198">
<time>2016-10-06T10:52:40Z</time></trkpt>
<trkpt lat="23.415096" lon="112.569098">
<time>2016-10-06T10:52:41Z</time></trkpt>
<trkpt lat="23.415296" lon="112.568937">
<time>2016-10-06T10:52:42Z</time></trkpt>
<trkpt lat="23.415376" lon="112.568827">
<time>2016-10-06T10:52:43Z</time></trkpt>
<trkpt lat="23.415446" lon="112.568747">
<time>2016-10-06T10:52:44Z</time></trkpt>
<trkpt lat="23.415565" lon="112.568507">
<time>2016-10-06T10:52:45Z</time></trkpt>
<trkpt lat="23.415635" lon="112.568247">
<time>2016-10-06T10:52:46Z</time></trkpt>
<trkpt lat="23.415645" lon="112.567986">
<time>2016-10-06T10:52:47Z</time></trkpt>
<trkpt lat="23.415584" lon="112.567416">
<time>2016-10-06T10:52:48Z</time></trkpt>
<trkpt lat="23.415291" lon="112.565013">
<time>2016-10-06T10:52:49Z</time></trkpt>
<trkpt lat="23.415039" lon="112.56303">
<time>2016-10-06T10:52:50Z</time></trkpt>
<trkpt lat="23.415029" lon="112.56293">
<time>2016-10-06T10:52:51Z</time></trkpt>
<trkpt lat="23.414918" lon="112.562009">
<time>2016-10-06T10:52:52Z</time></trkpt>
<trkpt lat="23.414857" lon="112.561739">
<time>2016-10-06T10:52:53Z</time></trkpt>
<trkpt lat="23.414777" lon="112.561458">
<time>2016-10-06T10:52:54Z</time></trkpt>
<trkpt lat="23.414616" lon="112.561078">
<time>2016-10-06T10:52:55Z</time></trkpt>
<trkpt lat="23.414466" lon="112.560797">
<time>2016-10-06T10:52:56Z</time></trkpt>
<trkpt lat="23.414266" lon="112.560527">
<time>2016-10-06T10:52:57Z</time></trkpt>
<trkpt lat="23.413955" lon="112.560187">
<time>2016-10-06T10:52:58Z</time></trkpt>
<trkpt lat="23.413585" lon="112.559796">
<time>2016-10-06T10:52:59Z</time></trkpt>
<trkpt lat="23.413494" lon="112.559706">
<time>2016-10-06T10:53:00Z</time></trkpt>
<trkpt lat="23.413424" lon="112.559636">
<time>2016-10-06T10:53:01Z</time></trkpt>
<trkpt lat="23.412133" lon="112.558364">
<time>2016-10-06T10:53:02Z</time></trkpt>
<trkpt lat="23.411712" lon="112.557953">
<time>2016-10-06T10:53:03Z</time></trkpt>
<trkpt lat="23.410881" lon="112.557102">
<time>2016-10-06T10:53:04Z</time></trkpt>
<trkpt lat="23.410651" lon="112.556822">
<time>2016-10-06T10:53:05Z</time></trkpt>
<trkpt lat="23.41051" lon="112.556541">
<time>2016-10-06T10:53:06Z</time></trkpt>
<trkpt lat="23.41045" lon="112.556301">
<time>2016-10-06T10:53:07Z</time></trkpt>
<trkpt lat="23.410419" lon="112.55605">
<time>2016-10-06T10:53:08Z</time></trkpt>
<trkpt lat="23.410439" lon="112.55575">
<time>2016-10-06T10:53:09Z</time></trkpt>
<trkpt lat="23.410618" lon="112.555149">
<time>2016-10-06T10:53:10Z</time></trkpt>
<trkpt lat="23.411385" lon="112.553616">
<time>2016-10-06T10:53:11Z</time></trkpt>
<trkpt lat="23.412132" lon="112.552063">
<time>2016-10-06T10:53:12Z</time></trkpt>
<trkpt lat="23.412272" lon="112.551813">
<time>2016-10-06T10:53:13Z</time></trkpt>
<trkpt lat="23.412312" lon="112.551763">
<time>2016-10-06T10:53:14Z</time></trkpt>
<trkpt lat="23.412352" lon="112.551703">
<time>2016-10-06T10:53:15Z</time></trkpt>
<trkpt lat="23.412441" lon="112.551593">
<time>2016-10-06T10:53:16Z</time></trkpt>
<trkpt lat="23.412611" lon="112.551432">
<time>2016-10-06T10:53:17Z</time></trkpt>
<trkpt lat="23.412821" lon="112.551302">
<time>2016-10-06T10:53:18Z</time></trkpt>
<trkpt lat="23.413121" lon="112.551232">
<time>2016-10-06T10:53:19Z</time></trkpt>
<trkpt lat="23.41375" lon="112.551102">
<time>2016-10-06T10:53:20Z</time></trkpt>
<trkpt lat="23.41402" lon="112.551021">
<time>2016-10-06T10:53:21Z</time></trkpt>
<trkpt lat="23.41421" lon="112.550931">
<time>2016-10-06T10:53:22Z</time></trkpt>
<trkpt lat="23.41452" lon="112.550751">
<time>2016-10-06T10:53:23Z</time></trkpt>
<trkpt lat="23.414809" lon="112.5505">
<time>2016-10-06T10:53:24Z</time></trkpt>
<trkpt lat="23.415039" lon="112.55025">
<time>2016-10-06T10:53:25Z</time></trkpt>
<trkpt lat="23.416016" lon="112.549057">
<time>2016-10-06T10:53:26Z</time></trkpt>
<trkpt lat="23.416255" lon="112.548667">
<time>2016-10-06T10:53:27Z</time></trkpt>
<trkpt lat="23.416425" lon="112.548376">
<time>2016-10-06T10:53:28Z</time></trkpt>
<trkpt lat="23.416674" lon="112.547755">
<time>2016-10-06T10:53:29Z</time></trkpt>
<trkpt lat="23.416723" lon="112.547635">
<time>2016-10-06T10:53:30Z</time></trkpt>
<trkpt lat="23.416833" lon="112.547284">
<time>2016-10-06T10:53:31Z</time></trkpt>
<trkpt lat="23.416912" lon="112.547003">
<time>2016-10-06T10:53:32Z</time></trkpt>
<trkpt lat="23.41714" lon="112.546061">
<time>2016-10-06T10:53:33Z</time></trkpt>
<trkpt lat="23.41828" lon="112.541181">
<time>2016-10-06T10:53:34Z</time></trkpt>
<trkpt lat="23.4183" lon="112.541121">
<time>2016-10-06T10:53:35Z</time></trkpt>
<trkpt lat="23.418785" lon="112.539206">
<time>2016-10-06T10:53:36Z</time></trkpt>
<trkpt lat="23.418924" lon="112.538775">
<time>2016-10-06T10:53:37Z</time></trkpt>
<trkpt lat="23.419223" lon="112.538063">
<time>2016-10-06T10:53:38Z</time></trkpt>
<trkpt lat="23.419461" lon="112.537492">
<time>2016-10-06T10:53:39Z</time></trkpt>
<trkpt lat="23.41974" lon="112.536921">
<time>2016-10-06T10:53:40Z</time></trkpt>
<trkpt lat="23.420526" lon="112.535267">
<time>2016-10-06T10:53:41Z</time></trkpt>
<trkpt lat="23.420755" lon="112.534785">
<time>2016-10-06T10:53:42Z</time></trkpt>
<trkpt lat="23.420874" lon="112.534535">
<time>2016-10-06T10:53:43Z</time></trkpt>
<trkpt lat="23.420914" lon="112.534445">
<time>2016-10-06T10:53:44Z</time></trkpt>
<trkpt lat="23.421043" lon="112.534174">
<time>2016-10-06T10:53:45Z</time></trkpt>
<trkpt lat="23.421292" lon="112.533632">
<time>2016-10-06T10:53:46Z</time></trkpt>
<trkpt lat="23.421581" lon="112.533091">
<time>2016-10-06T10:53:47Z</time></trkpt>
<trkpt lat="23.422128" lon="112.531948">
<time>2016-10-06T10:53:48Z</time></trkpt>
<trkpt lat="23.42361" lon="112.52879">
<time>2016-10-06T10:53:49Z</time></trkpt>
<trkpt lat="23.423739" lon="112.528499">
<time>2016-10-06T10:53:50Z</time></trkpt>
<trkpt lat="23.423998" lon="112.528038">
<time>2016-10-06T10:53:51Z</time></trkpt>
<trkpt lat="23.424157" lon="112.527827">
<time>2016-10-06T10:53:52Z</time></trkpt>
<trkpt lat="23.424337" lon="112.527616">
<time>2016-10-06T10:53:53Z</time></trkpt>
<trkpt lat="23.424566" lon="112.527396">
<time>2016-10-06T10:53:54Z</time></trkpt>
<trkpt lat="23.424905" lon="112.527145">
<time>2016-10-06T10:53:55Z</time></trkpt>
<trkpt lat="23.425684" lon="112.526824">
<time>2016-10-06T10:53:56Z</time></trkpt>
<trkpt lat="23.425884" lon="112.526744">
<time>2016-10-06T10:53:57Z</time></trkpt>
<trkpt lat="23.426693" lon="112.526453">
<time>2016-10-06T10:53:58Z</time></trkpt>
<trkpt lat="23.426863" lon="112.526403">
<time>2016-10-06T10:53:59Z</time></trkpt>
<trkpt lat="23.428092" lon="112.525972">
<time>2016-10-06T10:54:00Z</time></trkpt>
<trkpt lat="23.429171" lon="112.525601">
<time>2016-10-06T10:54:01Z</time></trkpt>
<trkpt lat="23.43002" lon="112.52532">
<time>2016-10-06T10:54:02Z</time></trkpt>
<trkpt lat="23.43006" lon="112.52531">
<time>2016-10-06T10:54:03Z</time></trkpt>
<trkpt lat="23.43041" lon="112.52527">
<time>2016-10-06T10:54:04Z</time></trkpt>
<trkpt lat="23.43065" lon="112.52526">
<time>2016-10-06T10:54:05Z</time></trkpt>
<trkpt lat="23.43089" lon="112.52527">
<time>2016-10-06T10:54:06Z</time></trkpt>
<trkpt lat="23.43126" lon="112.52534">
<time>2016-10-06T10:54:07Z</time></trkpt>
<trkpt lat="23.43174" lon="112.5255">
<time>2016-10-06T10:54:08Z</time></trkpt>
<trkpt lat="23.432541" lon="112.525771">
<time>2016-10-06T10:54:09Z</time></trkpt>
<trkpt lat="23.434963" lon="112.526583">
<time>2016-10-06T10:54:10Z</time></trkpt>
<trkpt lat="23.435613" lon="112.526794">
<time>2016-10-06T10:54:11Z</time></trkpt>
<trkpt lat="23.437044" lon="112.527295">
<time>2016-10-06T10:54:12Z</time></trkpt>
<trkpt lat="23.437565" lon="112.527465">
<time>2016-10-06T10:54:13Z</time></trkpt>
<trkpt lat="23.437855" lon="112.527565">
<time>2016-10-06T10:54:14Z</time></trkpt>
<trkpt lat="23.437975" lon="112.527616">
<time>2016-10-06T10:54:15Z</time></trkpt>
<trkpt lat="23.437985" lon="112.527616">
<time>2016-10-06T10:54:16Z</time></trkpt>
<trkpt lat="23.438275" lon="112.527736">
<time>2016-10-06T10:54:17Z</time></trkpt>
<trkpt lat="23.438566" lon="112.527876">
<time>2016-10-06T10:54:18Z</time></trkpt>
<trkpt lat="23.438636" lon="112.527916">
<time>2016-10-06T10:54:19Z</time></trkpt>
<trkpt lat="23.438986" lon="112.528137">
<time>2016-10-06T10:54:20Z</time></trkpt>
<trkpt lat="23.439477" lon="112.528478">
<time>2016-10-06T10:54:21Z</time></trkpt>
<trkpt lat="23.440729" lon="112.52942">
<time>2016-10-06T10:54:22Z</time></trkpt>
<trkpt lat="23.442673" lon="112.530894">
<time>2016-10-06T10:54:23Z</time></trkpt>
<trkpt lat="23.442943" lon="112.531085">
<time>2016-10-06T10:54:24Z</time></trkpt>
<trkpt lat="23.443224" lon="112.531225">
<time>2016-10-06T10:54:25Z</time></trkpt>
<trkpt lat="23.443414" lon="112.531285">
<time>2016-10-06T10:54:26Z</time></trkpt>
<trkpt lat="23.443684" lon="112.531345">
<time>2016-10-06T10:54:27Z</time></trkpt>
<trkpt lat="23.444464" lon="112.531425">
<time>2016-10-06T10:54:28Z</time></trkpt>
<trkpt lat="23.444974" lon="112.531475">
<time>2016-10-06T10:54:29Z</time></trkpt>
<trkpt lat="23.445064" lon="112.531485">
<time>2016-10-06T10:54:30Z</time></trkpt>
<trkpt lat="23.447194" lon="112.531666">
<time>2016-10-06T10:54:31Z</time></trkpt>
<trkpt lat="23.447244" lon="112.531666">
<time>2016-10-06T10:54:32Z</time></trkpt>
<trkpt lat="23.447334" lon="112.531676">
<time>2016-10-06T10:54:33Z</time></trkpt>
<trkpt lat="23.449174" lon="112.531816">
<time>2016-10-06T10:54:34Z</time></trkpt>
<trkpt lat="23.449524" lon="112.531806">
<time>2016-10-06T10:54:35Z</time></trkpt>
<trkpt lat="23.449844" lon="112.531756">
<time>2016-10-06T10:54:36Z</time></trkpt>
<trkpt lat="23.450054" lon="112.531696">
<time>2016-10-06T10:54:37Z</time></trkpt>
<trkpt lat="23.450284" lon="112.531595">
<time>2016-10-06T10:54:38Z</time></trkpt>
<trkpt lat="23.450523" lon="112.531425">
<time>2016-10-06T10:54:39Z</time></trkpt>
<trkpt lat="23.450753" lon="112.531204">
<time>2016-10-06T10:54:40Z</time></trkpt>
<trkpt lat="23.450773" lon="112.531184">
<time>2016-10-06T10:54:41Z</time></trkpt>
<trkpt lat="23.450942" lon="112.530944">
<time>2016-10-06T10:54:42Z</time></trkpt>
<trkpt lat="23.451052" lon="112.530733">
<time>2016-10-06T10:54:43Z</time></trkpt>
<trkpt lat="23.451151" lon="112.530502">
<time>2016-10-06T10:54:44Z</time></trkpt>
<trkpt lat="23.451598" lon="112.529349">
<time>2016-10-06T10:54:45Z</time></trkpt>
<trkpt lat="23.45268" lon="112.526482">
<time>2016-10-06T10:54:46Z</time></trkpt>
<trkpt lat="23.453832" lon="112.523453">
<time>2016-10-06T10:54:47Z</time></trkpt>
<trkpt lat="23.454984" lon="112.520434">
<time>2016-10-06T10:54:48Z</time></trkpt>
<trkpt lat="23.455034" lon="112.520294">
<time>2016-10-06T10:54:49Z</time></trkpt>
<trkpt lat="23.455143" lon="112.520033">
<time>2016-10-06T10:54:50Z</time></trkpt>
<trkpt lat="23.455262" lon="112.519732">
<time>2016-10-06T10:54:51Z</time></trkpt>
<trkpt lat="23.455302" lon="112.519652">
<time>2016-10-06T10:54:52Z</time></trkpt>
<trkpt lat="23.455441" lon="112.519381">
<time>2016-10-06T10:54:53Z</time></trkpt>
<trkpt lat="23.45561" lon="112.51911">
<time>2016-10-06T10:54:54Z</time></trkpt>
<trkpt lat="23.455849" lon="112.518769">
<time>2016-10-06T10:54:55Z</time></trkpt>
<trkpt lat="23.456368" lon="112.518238">
<time>2016-10-06T10:54:56Z</time></trkpt>
<trkpt lat="23.457485" lon="112.517074">
<time>2016-10-06T10:54:57Z</time></trkpt>
<trkpt lat="23.457704" lon="112.516854">
<time>2016-10-06T10:54:58Z</time></trkpt>
<trkpt lat="23.458103" lon="112.516483">
<time>2016-10-06T10:54:59Z</time></trkpt>
<trkpt lat="23.458392" lon="112.516262">
<time>2016-10-06T10:55:00Z</time></trkpt>
<trkpt lat="23.458692" lon="112.516111">
<time>2016-10-06T10:55:01Z</time></trkpt>
<trkpt lat="23.459001" lon="112.516031">
<time>2016-10-06T10:55:02Z</time></trkpt>
<trkpt lat="23.459291" lon="112.515981">
<time>2016-10-06T10:55:03Z</time></trkpt>
<trkpt lat="23.459641" lon="112.515961">
<time>2016-10-06T10:55:04Z</time></trkpt>
<trkpt lat="23.459721" lon="112.515951">
<time>2016-10-06T10:55:05Z</time></trkpt>
<trkpt lat="23.459941" lon="112.515911">
<time>2016-10-06T10:55:06Z</time></trkpt>
<trkpt lat="23.460211" lon="112.51585">
<time>2016-10-06T10:55:07Z</time></trkpt>
<trkpt lat="23.460331" lon="112.51581">
<time>2016-10-06T10:55:08Z</time></trkpt>
<trkpt lat="23.460391" lon="112.51579">
<time>2016-10-06T10:55:09Z</time></trkpt>
<trkpt lat="23.46067" lon="112.51565">
<time>2016-10-06T10:55:10Z</time></trkpt>
<trkpt lat="23.461199" lon="112.515359">
<time>2016-10-06T10:55:11Z</time></trkpt>
<trkpt lat="23.461209" lon="112.515359">
<time>2016-10-06T10:55:12Z</time></trkpt>
<trkpt lat="23.461429" lon="112.515259">
<time>2016-10-06T10:55:13Z</time></trkpt>
<trkpt lat="23.461449" lon="112.515249">
<time>2016-10-06T10:55:14Z</time></trkpt>
<trkpt lat="23.461729" lon="112.515158">
<time>2016-10-06T10:55:15Z</time></trkpt>
<trkpt lat="23.461879" lon="112.515138">
<time>2016-10-06T10:55:16Z</time></trkpt>
<trkpt lat="23.462069" lon="112.515128">
<time>2016-10-06T10:55:17Z</time></trkpt>
<trkpt lat="23.462249" lon="112.515148">
<time>2016-10-06T10:55:18Z</time></trkpt>
<trkpt lat="23.462759" lon="112.515279">
<time>2016-10-06T10:55:19Z</time></trkpt>
<trkpt lat="23.46348" lon="112.515549">
<time>2016-10-06T10:55:20Z</time></trkpt>
<trkpt lat="23.46376" lon="112.51564">
<time>2016-10-06T10:55:21Z</time></trkpt>
<trkpt lat="23.46402" lon="112.51568">
<time>2016-10-06T10:55:22Z</time></trkpt>
<trkpt lat="23.46425" lon="112.5157">
<time>2016-10-06T10:55:23Z</time></trkpt>
<trkpt lat="23.46445" lon="112.5157">
<time>2016-10-06T10:55:24Z</time></trkpt>
<trkpt lat="23.46629" lon="112.51567">
<time>2016-10-06T10:55:25Z</time></trkpt>
<trkpt lat="23.46685" lon="112.515659">
<time>2016-10-06T10:55:26Z</time></trkpt>
<trkpt lat="23.46824" lon="112.515639">
<time>2016-10-06T10:55:27Z</time></trkpt>
<trkpt lat="23.46831" lon="112.515669">
<time>2016-10-06T10:55:28Z</time></trkpt>
<trkpt lat="23.4692" lon="112.515659">
<time>2016-10-06T10:55:29Z</time></trkpt>
<trkpt lat="23.46946" lon="112.515659">
<time>2016-10-06T10:55:30Z</time></trkpt>
<trkpt lat="23.470049" lon="112.515639">
<time>2016-10-06T10:55:31Z</time></trkpt>
<trkpt lat="23.471249" lon="112.515609">
<time>2016-10-06T10:55:32Z</time></trkpt>
<trkpt lat="23.471849" lon="112.515629">
<time>2016-10-06T10:55:33Z</time></trkpt>
<trkpt lat="23.47255" lon="112.515779">
<time>2016-10-06T10:55:34Z</time></trkpt>
<trkpt lat="23.47334" lon="112.51601">
<time>2016-10-06T10:55:35Z</time></trkpt>
<trkpt lat="23.474171" lon="112.516281">
<time>2016-10-06T10:55:36Z</time></trkpt>
<trkpt lat="23.475382" lon="112.516682">
<time>2016-10-06T10:55:37Z</time></trkpt>
<trkpt lat="23.476003" lon="112.516913">
<time>2016-10-06T10:55:38Z</time></trkpt>
<trkpt lat="23.476243" lon="112.517073">
<time>2016-10-06T10:55:39Z</time></trkpt>
<trkpt lat="23.476424" lon="112.517254">
<time>2016-10-06T10:55:40Z</time></trkpt>
<trkpt lat="23.476544" lon="112.517414">
<time>2016-10-06T10:55:41Z</time></trkpt>
<trkpt lat="23.477056" lon="112.518287">
<time>2016-10-06T10:55:42Z</time></trkpt>
<trkpt lat="23.477267" lon="112.518527">
<time>2016-10-06T10:55:43Z</time></trkpt>
<trkpt lat="23.477558" lon="112.518718">
<time>2016-10-06T10:55:44Z</time></trkpt>
<trkpt lat="23.477858" lon="112.518848">
<time>2016-10-06T10:55:45Z</time></trkpt>
<trkpt lat="23.478599" lon="112.519099">
<time>2016-10-06T10:55:46Z</time></trkpt>
<trkpt lat="23.479359" lon="112.519249">
<time>2016-10-06T10:55:47Z</time></trkpt>
<trkpt lat="23.480219" lon="112.51937">
<time>2016-10-06T10:55:48Z</time></trkpt>
<trkpt lat="23.480929" lon="112.51943">
<time>2016-10-06T10:55:49Z</time></trkpt>
<trkpt lat="23.481139" lon="112.51942">
<time>2016-10-06T10:55:50Z</time></trkpt>
<trkpt lat="23.481429" lon="112.51938">
<time>2016-10-06T10:55:51Z</time></trkpt>
<trkpt lat="23.481639" lon="112.519319">
<time>2016-10-06T10:55:52Z</time></trkpt>
<trkpt lat="23.482278" lon="112.518998">
<time>2016-10-06T10:55:53Z</time></trkpt>
<trkpt lat="23.482877" lon="112.518627">
<time>2016-10-06T10:55:54Z</time></trkpt>
<trkpt lat="23.483266" lon="112.518407">
<time>2016-10-06T10:55:55Z</time></trkpt>
<trkpt lat="23.483486" lon="112.518236">
<time>2016-10-06T10:55:56Z</time></trkpt>
<trkpt lat="23.483625" lon="112.518086">
<time>2016-10-06T10:55:57Z</time></trkpt>
<trkpt lat="23.483725" lon="112.517925">
<time>2016-10-06T10:55:58Z</time></trkpt>
<trkpt lat="23.483765" lon="112.517815">
<time>2016-10-06T10:55:59Z</time></trkpt>
<trkpt lat="23.483834" lon="112.517554">
<time>2016-10-06T10:56:00Z</time></trkpt>
<trkpt lat="23.483893" lon="112.517183">
<time>2016-10-06T10:56:01Z</time></trkpt>
<trkpt lat="23.483962" lon="112.516872">
<time>2016-10-06T10:56:02Z</time></trkpt>
<trkpt lat="23.484061" lon="112.516611">
<time>2016-10-06T10:56:03Z</time></trkpt>
<trkpt lat="23.48422" lon="112.51633">
<time>2016-10-06T10:56:04Z</time></trkpt>
<trkpt lat="23.48445" lon="112.5161">
<time>2016-10-06T10:56:05Z</time></trkpt>
<trkpt lat="23.484779" lon="112.515769">
<time>2016-10-06T10:56:06Z</time></trkpt>
<trkpt lat="23.484998" lon="112.515488">
<time>2016-10-06T10:56:07Z</time></trkpt>
<trkpt lat="23.485127" lon="112.515197">
<time>2016-10-06T10:56:08Z</time></trkpt>
<trkpt lat="23.485256" lon="112.514715">
<time>2016-10-06T10:56:09Z</time></trkpt>
<trkpt lat="23.485305" lon="112.514324">
<time>2016-10-06T10:56:10Z</time></trkpt>
<trkpt lat="23.485343" lon="112.513773">
<time>2016-10-06T10:56:11Z</time></trkpt>
<trkpt lat="23.485371" lon="112.513181">
<time>2016-10-06T10:56:12Z</time></trkpt>
<trkpt lat="23.485361" lon="112.51288">
<time>2016-10-06T10:56:13Z</time></trkpt>
<trkpt lat="23.48533" lon="112.512639">
<time>2016-10-06T10:56:14Z</time></trkpt>
<trkpt lat="23.485259" lon="112.512208">
<time>2016-10-06T10:56:15Z</time></trkpt>
<trkpt lat="23.485198" lon="112.511837">
<time>2016-10-06T10:56:16Z</time></trkpt>
<trkpt lat="23.485186" lon="112.511365">
<time>2016-10-06T10:56:17Z</time></trkpt>
<trkpt lat="23.485185" lon="112.510793">
<time>2016-10-06T10:56:18Z</time></trkpt>
<trkpt lat="23.485193" lon="112.510322">
<time>2016-10-06T10:56:19Z</time></trkpt>
<trkpt lat="23.485182" lon="112.510031">
<time>2016-10-06T10:56:20Z</time></trkpt>
<trkpt lat="23.485121" lon="112.50971">
<time>2016-10-06T10:56:21Z</time></trkpt>
<trkpt lat="23.48502" lon="112.509359">
<time>2016-10-06T10:56:22Z</time></trkpt>
<trkpt lat="23.484708" lon="112.508506">
<time>2016-10-06T10:56:23Z</time></trkpt>
<trkpt lat="23.484346" lon="112.507794">
<time>2016-10-06T10:56:24Z</time></trkpt>
<trkpt lat="23.484255" lon="112.507564">
<time>2016-10-06T10:56:25Z</time></trkpt>
<trkpt lat="23.484205" lon="112.507383">
<time>2016-10-06T10:56:26Z</time></trkpt>
<trkpt lat="23.484174" lon="112.507082">
<time>2016-10-06T10:56:27Z</time></trkpt>
<trkpt lat="23.484153" lon="112.506771">
<time>2016-10-06T10:56:28Z</time></trkpt>
<trkpt lat="23.484153" lon="112.506701">
<time>2016-10-06T10:56:29Z</time></trkpt>
<trkpt lat="23.484171" lon="112.506199">
<time>2016-10-06T10:56:30Z</time></trkpt>
<trkpt lat="23.48417" lon="112.505918">
<time>2016-10-06T10:56:31Z</time></trkpt>
<trkpt lat="23.48417" lon="112.505768">
<time>2016-10-06T10:56:32Z</time></trkpt>
<trkpt lat="23.484149" lon="112.505587">
<time>2016-10-06T10:56:33Z</time></trkpt>
<trkpt lat="23.484139" lon="112.505447">
<time>2016-10-06T10:56:34Z</time></trkpt>
<trkpt lat="23.484088" lon="112.505166">
<time>2016-10-06T10:56:35Z</time></trkpt>
<trkpt lat="23.484057" lon="112.504955">
<time>2016-10-06T10:56:36Z</time></trkpt>
<trkpt lat="23.483936" lon="112.504303">
<time>2016-10-06T10:56:37Z</time></trkpt>
<trkpt lat="23.483924" lon="112.503701">
<time>2016-10-06T10:56:38Z</time></trkpt>
<trkpt lat="23.483943" lon="112.50334">
<time>2016-10-06T10:56:39Z</time></trkpt>
<trkpt lat="23.484012" lon="112.502969">
<time>2016-10-06T10:56:40Z</time></trkpt>
<trkpt lat="23.48412" lon="112.502558">
<time>2016-10-06T10:56:41Z</time></trkpt>
<trkpt lat="23.484398" lon="112.501785">
<time>2016-10-06T10:56:42Z</time></trkpt>
<trkpt lat="23.484587" lon="112.501384">
<time>2016-10-06T10:56:43Z</time></trkpt>
<trkpt lat="23.484735" lon="112.500912">
<time>2016-10-06T10:56:44Z</time></trkpt>
<trkpt lat="23.484994" lon="112.500361">
<time>2016-10-06T10:56:45Z</time></trkpt>
<trkpt lat="23.485223" lon="112.50002">
<time>2016-10-06T10:56:46Z</time></trkpt>
<trkpt lat="23.485342" lon="112.499869">
<time>2016-10-06T10:56:47Z</time></trkpt>
<trkpt lat="23.485522" lon="112.499648">
<time>2016-10-06T10:56:48Z</time></trkpt>
<trkpt lat="23.486668" lon="112.498525">
<time>2016-10-06T10:56:49Z</time></trkpt>
<trkpt lat="23.486987" lon="112.498204">
<time>2016-10-06T10:56:50Z</time></trkpt>
<trkpt lat="23.487226" lon="112.497923">
<time>2016-10-06T10:56:51Z</time></trkpt>
<trkpt lat="23.487883" lon="112.497">
<time>2016-10-06T10:56:52Z</time></trkpt>
<trkpt lat="23.488232" lon="112.496538">
<time>2016-10-06T10:56:53Z</time></trkpt>
<trkpt lat="23.488392" lon="112.496358">
<time>2016-10-06T10:56:54Z</time></trkpt>
<trkpt lat="23.488571" lon="112.496167">
<time>2016-10-06T10:56:55Z</time></trkpt>
<trkpt lat="23.48886" lon="112.495916">
<time>2016-10-06T10:56:56Z</time></trkpt>
<trkpt lat="23.4891" lon="112.495716">
<time>2016-10-06T10:56:57Z</time></trkpt>
<trkpt lat="23.489279" lon="112.495545">
<time>2016-10-06T10:56:58Z</time></trkpt>
<trkpt lat="23.489508" lon="112.495254">
<time>2016-10-06T10:56:59Z</time></trkpt>
<trkpt lat="23.489817" lon="112.494803">
<time>2016-10-06T10:57:00Z</time></trkpt>
<trkpt lat="23.490364" lon="112.49402">
<time>2016-10-06T10:57:01Z</time></trkpt>
<trkpt lat="23.491111" lon="112.492856">
<time>2016-10-06T10:57:02Z</time></trkpt>
<trkpt lat="23.49128" lon="112.492555">
<time>2016-10-06T10:57:03Z</time></trkpt>
<trkpt lat="23.491697" lon="112.491652">
<time>2016-10-06T10:57:04Z</time></trkpt>
<trkpt lat="23.492264" lon="112.490509">
<time>2016-10-06T10:57:05Z</time></trkpt>
<trkpt lat="23.492851" lon="112.489636">
<time>2016-10-06T10:57:06Z</time></trkpt>
<trkpt lat="23.4931" lon="112.489295">
<time>2016-10-06T10:57:07Z</time></trkpt>
<trkpt lat="23.493509" lon="112.488853">
<time>2016-10-06T10:57:08Z</time></trkpt>
<trkpt lat="23.493718" lon="112.488673">
<time>2016-10-06T10:57:09Z</time></trkpt>
<trkpt lat="23.494097" lon="112.488432">
<time>2016-10-06T10:57:10Z</time></trkpt>
<trkpt lat="23.494357" lon="112.488291">
<time>2016-10-06T10:57:11Z</time></trkpt>
<trkpt lat="23.496554" lon="112.487368">
<time>2016-10-06T10:57:12Z</time></trkpt>
<trkpt lat="23.496794" lon="112.487298">
<time>2016-10-06T10:57:13Z</time></trkpt>
<trkpt lat="23.497054" lon="112.487238">
<time>2016-10-06T10:57:14Z</time></trkpt>
<trkpt lat="23.497364" lon="112.487198">
<time>2016-10-06T10:57:15Z</time></trkpt>
<trkpt lat="23.497644" lon="112.487178">
<time>2016-10-06T10:57:16Z</time></trkpt>
<trkpt lat="23.498293" lon="112.487168">
<time>2016-10-06T10:57:17Z</time></trkpt>
<trkpt lat="23.499123" lon="112.487178">
<time>2016-10-06T10:57:18Z</time></trkpt>
<trkpt lat="23.499344" lon="112.487208">
<time>2016-10-06T10:57:19Z</time></trkpt>
<trkpt lat="23.499604" lon="112.487258">
<time>2016-10-06T10:57:20Z</time></trkpt>
<trkpt lat="23.499944" lon="112.487358">
<time>2016-10-06T10:57:21Z</time></trkpt>
<trkpt lat="23.500014" lon="112.487378">
<time>2016-10-06T10:57:22Z</time></trkpt>
<trkpt lat="23.500274" lon="112.487478">
<time>2016-10-06T10:57:23Z</time></trkpt>
<trkpt lat="23.500505" lon="112.487579">
<time>2016-10-06T10:57:24Z</time></trkpt>
<trkpt lat="23.500895" lon="112.487769">
<time>2016-10-06T10:57:25Z</time></trkpt>
<trkpt lat="23.501536" lon="112.488181">
<time>2016-10-06T10:57:26Z</time></trkpt>
<trkpt lat="23.501837" lon="112.488371">
<time>2016-10-06T10:57:27Z</time></trkpt>
<trkpt lat="23.501917" lon="112.488401">
<time>2016-10-06T10:57:28Z</time></trkpt>
<trkpt lat="23.501957" lon="112.488421">
<time>2016-10-06T10:57:29Z</time></trkpt>
<trkpt lat="23.501997" lon="112.488441">
<time>2016-10-06T10:57:30Z</time></trkpt>
<trkpt lat="23.502047" lon="112.488451">
<time>2016-10-06T10:57:31Z</time></trkpt>
<trkpt lat="23.502077" lon="112.488461">
<time>2016-10-06T10:57:32Z</time></trkpt>
<trkpt lat="23.502107" lon="112.488461">
<time>2016-10-06T10:57:33Z</time></trkpt>
<trkpt lat="23.502137" lon="112.488471">
<time>2016-10-06T10:57:34Z</time></trkpt>
<trkpt lat="23.502157" lon="112.488471">
<time>2016-10-06T10:57:35Z</time></trkpt>
<trkpt lat="23.502177" lon="112.488471">
<time>2016-10-06T10:57:36Z</time></trkpt>
<trkpt lat="23.502207" lon="112.488471">
<time>2016-10-06T10:57:37Z</time></trkpt>
<trkpt lat="23.502237" lon="112.488471">
<time>2016-10-06T10:57:38Z</time></trkpt>
<trkpt lat="23.502267" lon="112.488461">
<time>2016-10-06T10:57:39Z</time></trkpt>
<trkpt lat="23.502307" lon="112.488461">
<time>2016-10-06T10:57:40Z</time></trkpt>
<trkpt lat="23.502327" lon="112.488451">
<time>2016-10-06T10:57:41Z</time></trkpt>
<trkpt lat="23.502347" lon="112.488441">
<time>2016-10-06T10:57:42Z</time></trkpt>
<trkpt lat="23.502377" lon="112.488431">
<time>2016-10-06T10:57:43Z</time></trkpt>
<trkpt lat="23.502397" lon="112.488421">
<time>2016-10-06T10:57:44Z</time></trkpt>
<trkpt lat="23.502427" lon="112.488411">
<time>2016-10-06T10:57:45Z</time></trkpt>
<trkpt lat="23.502577" lon="112.488321">
<time>2016-10-06T10:57:46Z</time></trkpt>
<trkpt lat="23.503405" lon="112.487749">
<time>2016-10-06T10:57:47Z</time></trkpt>
<trkpt lat="23.503734" lon="112.487468">
<time>2016-10-06T10:57:48Z</time></trkpt>
<trkpt lat="23.504013" lon="112.487127">
<time>2016-10-06T10:57:49Z</time></trkpt>
<trkpt lat="23.504242" lon="112.486756">
<time>2016-10-06T10:57:50Z</time></trkpt>
<trkpt lat="23.504521" lon="112.486304">
<time>2016-10-06T10:57:51Z</time></trkpt>
<trkpt lat="23.505147" lon="112.485161">
<time>2016-10-06T10:57:52Z</time></trkpt>
<trkpt lat="23.505277" lon="112.48494">
<time>2016-10-06T10:57:53Z</time></trkpt>
<trkpt lat="23.505366" lon="112.484759">
<time>2016-10-06T10:57:54Z</time></trkpt>
<trkpt lat="23.505455" lon="112.484529">
<time>2016-10-06T10:57:55Z</time></trkpt>
<trkpt lat="23.505525" lon="112.484308">
<time>2016-10-06T10:57:56Z</time></trkpt>
<trkpt lat="23.505564" lon="112.484147">
<time>2016-10-06T10:57:57Z</time></trkpt>
<trkpt lat="23.505604" lon="112.484007">
<time>2016-10-06T10:57:58Z</time></trkpt>
<trkpt lat="23.505623" lon="112.483887">
<time>2016-10-06T10:57:59Z</time></trkpt>
<trkpt lat="23.505643" lon="112.483766">
<time>2016-10-06T10:58:00Z</time></trkpt>
<trkpt lat="23.505653" lon="112.483616">
<time>2016-10-06T10:58:01Z</time></trkpt>
<trkpt lat="23.505652" lon="112.483455">
<time>2016-10-06T10:58:02Z</time></trkpt>
<trkpt lat="23.505642" lon="112.483315">
<time>2016-10-06T10:58:03Z</time></trkpt>
<trkpt lat="23.505631" lon="112.483164">
<time>2016-10-06T10:58:04Z</time></trkpt>
<trkpt lat="23.505601" lon="112.482934">
<time>2016-10-06T10:58:05Z</time></trkpt>
<trkpt lat="23.50556" lon="112.482663">
<time>2016-10-06T10:58:06Z</time></trkpt>
<trkpt lat="23.505143" lon="112.480366">
<time>2016-10-06T10:58:07Z</time></trkpt>
<trkpt lat="23.505" lon="112.479443">
<time>2016-10-06T10:58:08Z</time></trkpt>
<trkpt lat="23.50499" lon="112.479282">
<time>2016-10-06T10:58:09Z</time></trkpt>
<trkpt lat="23.504979" lon="112.479092">
<time>2016-10-06T10:58:10Z</time></trkpt>
<trkpt lat="23.504989" lon="112.478911">
<time>2016-10-06T10:58:11Z</time></trkpt>
<trkpt lat="23.505156" lon="112.477838">
<time>2016-10-06T10:58:12Z</time></trkpt>
<trkpt lat="23.505274" lon="112.477085">
<time>2016-10-06T10:58:13Z</time></trkpt>
<trkpt lat="23.505293" lon="112.476865">
<time>2016-10-06T10:58:14Z</time></trkpt>
<trkpt lat="23.505292" lon="112.476674">
<time>2016-10-06T10:58:15Z</time></trkpt>
<trkpt lat="23.505292" lon="112.476564">
<time>2016-10-06T10:58:16Z</time></trkpt>
<trkpt lat="23.505282" lon="112.476463">
<time>2016-10-06T10:58:17Z</time></trkpt>
<trkpt lat="23.505241" lon="112.476183">
<time>2016-10-06T10:58:18Z</time></trkpt>
<trkpt lat="23.50514" lon="112.475651">
<time>2016-10-06T10:58:19Z</time></trkpt>
<trkpt lat="23.505099" lon="112.4754">
<time>2016-10-06T10:58:20Z</time></trkpt>
<trkpt lat="23.505099" lon="112.47535">
<time>2016-10-06T10:58:21Z</time></trkpt>
<trkpt lat="23.505098" lon="112.47528">
<time>2016-10-06T10:58:22Z</time></trkpt>
<trkpt lat="23.505098" lon="112.47519">
<time>2016-10-06T10:58:23Z</time></trkpt>
<trkpt lat="23.505128" lon="112.474959">
<time>2016-10-06T10:58:24Z</time></trkpt>
<trkpt lat="23.505186" lon="112.474297">
<time>2016-10-06T10:58:25Z</time></trkpt>
<trkpt lat="23.505193" lon="112.473494">
<time>2016-10-06T10:58:26Z</time></trkpt>
<trkpt lat="23.505212" lon="112.473033">
<time>2016-10-06T10:58:27Z</time></trkpt>
<trkpt lat="23.505191" lon="112.472501">
<time>2016-10-06T10:58:28Z</time></trkpt>
<trkpt lat="23.50518" lon="112.472391">
<time>2016-10-06T10:58:29Z</time></trkpt>
<trkpt lat="23.50517" lon="112.472281">
<time>2016-10-06T10:58:30Z</time></trkpt>
<trkpt lat="23.50516" lon="112.472221">
<time>2016-10-06T10:58:31Z</time></trkpt>
<trkpt lat="23.50514" lon="112.47215">
<time>2016-10-06T10:58:32Z</time></trkpt>
<trkpt lat="23.505099" lon="112.47204">
<time>2016-10-06T10:58:33Z</time></trkpt>
<trkpt lat="23.504858" lon="112.471438">
<time>2016-10-06T10:58:34Z</time></trkpt>
<trkpt lat="23.504807" lon="112.471298">
<time>2016-10-06T10:58:35Z</time></trkpt>
<trkpt lat="23.504767" lon="112.471157">
<time>2016-10-06T10:58:36Z</time></trkpt>
<trkpt lat="23.504736" lon="112.471007">
<time>2016-10-06T10:58:37Z</time></trkpt>
<trkpt lat="23.504726" lon="112.470867">
<time>2016-10-06T10:58:38Z</time></trkpt>
<trkpt lat="23.504716" lon="112.470756">
<time>2016-10-06T10:58:39Z</time></trkpt>
<trkpt lat="23.504715" lon="112.470636">
<time>2016-10-06T10:58:40Z</time></trkpt>
<trkpt lat="23.504704" lon="112.469994">
<time>2016-10-06T10:58:41Z</time></trkpt>
<trkpt lat="23.504693" lon="112.469813">
<time>2016-10-06T10:58:42Z</time></trkpt>
<trkpt lat="23.504673" lon="112.469703">
<time>2016-10-06T10:58:43Z</time></trkpt>
<trkpt lat="23.504663" lon="112.469653">
<time>2016-10-06T10:58:44Z</time></trkpt>
<trkpt lat="23.504652" lon="112.469583">
<time>2016-10-06T10:58:45Z</time></trkpt>
<trkpt lat="23.504632" lon="112.469513">
<time>2016-10-06T10:58:46Z</time></trkpt>
<trkpt lat="23.504602" lon="112.469422">
<time>2016-10-06T10:58:47Z</time></trkpt>
<trkpt lat="23.504582" lon="112.469342">
<time>2016-10-06T10:58:48Z</time></trkpt>
<trkpt lat="23.504542" lon="112.469252">
<time>2016-10-06T10:58:49Z</time></trkpt>
<trkpt lat="23.504511" lon="112.469161">
<time>2016-10-06T10:58:50Z</time></trkpt>
<trkpt lat="23.504431" lon="112.469001">
<time>2016-10-06T10:58:51Z</time></trkpt>
<trkpt lat="23.50436" lon="112.468851">
<time>2016-10-06T10:58:52Z</time></trkpt>
<trkpt lat="23.50428" lon="112.46868">
<time>2016-10-06T10:58:53Z</time></trkpt>
<trkpt lat="23.50423" lon="112.4686">
<time>2016-10-06T10:58:54Z</time></trkpt>
<trkpt lat="23.50417" lon="112.46849">
<time>2016-10-06T10:58:55Z</time></trkpt>
<trkpt lat="23.504109" lon="112.468409">
<time>2016-10-06T10:58:56Z</time></trkpt>
<trkpt lat="23.504029" lon="112.468309">
<time>2016-10-06T10:58:57Z</time></trkpt>
<trkpt lat="23.503818" lon="112.468028">
<time>2016-10-06T10:58:58Z</time></trkpt>
<trkpt lat="23.503668" lon="112.467828">
<time>2016-10-06T10:58:59Z</time></trkpt>
<trkpt lat="23.503507" lon="112.467597">
<time>2016-10-06T10:59:00Z</time></trkpt>
<trkpt lat="23.503487" lon="112.467567">
<time>2016-10-06T10:59:01Z</time></trkpt>
<trkpt lat="23.503477" lon="112.467547">
<time>2016-10-06T10:59:02Z</time></trkpt>
<trkpt lat="23.503447" lon="112.467497">
<time>2016-10-06T10:59:03Z</time></trkpt>
<trkpt lat="23.503427" lon="112.467457">
<time>2016-10-06T10:59:04Z</time></trkpt>
<trkpt lat="23.503407" lon="112.467406">
<time>2016-10-06T10:59:05Z</time></trkpt>
<trkpt lat="23.503366" lon="112.467296">
<time>2016-10-06T10:59:06Z</time></trkpt>
<trkpt lat="23.503336" lon="112.467186">
<time>2016-10-06T10:59:07Z</time></trkpt>
<trkpt lat="23.503306" lon="112.467096">
<time>2016-10-06T10:59:08Z</time></trkpt>
<trkpt lat="23.503134" lon="112.466454">
<time>2016-10-06T10:59:09Z</time></trkpt>
<trkpt lat="23.502881" lon="112.465431">
<time>2016-10-06T10:59:10Z</time></trkpt>
<trkpt lat="23.50279" lon="112.464879">
<time>2016-10-06T10:59:11Z</time></trkpt>
<trkpt lat="23.502688" lon="112.464107">
<time>2016-10-06T10:59:12Z</time></trkpt>
<trkpt lat="23.502585" lon="112.463124">
<time>2016-10-06T10:59:13Z</time></trkpt>
<trkpt lat="23.502452" lon="112.461941">
<time>2016-10-06T10:59:14Z</time></trkpt>
<trkpt lat="23.502442" lon="112.46174">
<time>2016-10-06T10:59:15Z</time></trkpt>
<trkpt lat="23.502441" lon="112.46156">
<time>2016-10-06T10:59:16Z</time></trkpt>
<trkpt lat="23.502451" lon="112.461379">
<time>2016-10-06T10:59:17Z</time></trkpt>
<trkpt lat="23.50246" lon="112.461219">
<time>2016-10-06T10:59:18Z</time></trkpt>
<trkpt lat="23.50248" lon="112.461119">
<time>2016-10-06T10:59:19Z</time></trkpt>
<trkpt lat="23.50251" lon="112.461008">
<time>2016-10-06T10:59:20Z</time></trkpt>
<trkpt lat="23.50253" lon="112.460938">
<time>2016-10-06T10:59:21Z</time></trkpt>
<trkpt lat="23.502559" lon="112.460868">
<time>2016-10-06T10:59:22Z</time></trkpt>
<trkpt lat="23.502609" lon="112.460728">
<time>2016-10-06T10:59:23Z</time></trkpt>
<trkpt lat="23.502679" lon="112.460597">
<time>2016-10-06T10:59:24Z</time></trkpt>
<trkpt lat="23.502748" lon="112.460477">
<time>2016-10-06T10:59:25Z</time></trkpt>
<trkpt lat="23.502828" lon="112.460377">
<time>2016-10-06T10:59:26Z</time></trkpt>
<trkpt lat="23.502998" lon="112.460146">
<time>2016-10-06T10:59:27Z</time></trkpt>
<trkpt lat="23.503795" lon="112.459284">
<time>2016-10-06T10:59:28Z</time></trkpt>
<trkpt lat="23.504154" lon="112.458923">
<time>2016-10-06T10:59:29Z</time></trkpt>
<trkpt lat="23.504942" lon="112.4581">
<time>2016-10-06T10:59:30Z</time></trkpt>
<trkpt lat="23.505122" lon="112.45792">
<time>2016-10-06T10:59:31Z</time></trkpt>
<trkpt lat="23.505202" lon="112.45785">
<time>2016-10-06T10:59:32Z</time></trkpt>
<trkpt lat="23.505282" lon="112.457779">
<time>2016-10-06T10:59:33Z</time></trkpt>
<trkpt lat="23.505381" lon="112.457699">
<time>2016-10-06T10:59:34Z</time></trkpt>
<trkpt lat="23.505441" lon="112.457659">
<time>2016-10-06T10:59:35Z</time></trkpt>
<trkpt lat="23.505511" lon="112.457619">
<time>2016-10-06T10:59:36Z</time></trkpt>
<trkpt lat="23.505571" lon="112.457589">
<time>2016-10-06T10:59:37Z</time></trkpt>
<trkpt lat="23.505621" lon="112.457559">
<time>2016-10-06T10:59:38Z</time></trkpt>
<trkpt lat="23.505731" lon="112.457519">
<time>2016-10-06T10:59:39Z</time></trkpt>
<trkpt lat="23.506301" lon="112.457338">
<time>2016-10-06T10:59:40Z</time></trkpt>
<trkpt lat="23.506301" lon="112.457338">
<time>2016-10-06T10:59:41Z</time></trkpt>
<trkpt lat="23.50635" lon="112.457258">
<time>2016-10-06T10:59:42Z</time></trkpt>
<trkpt lat="23.50638" lon="112.457198">
<time>2016-10-06T10:59:43Z</time></trkpt>
<trkpt lat="23.50639" lon="112.457148">
<time>2016-10-06T10:59:44Z</time></trkpt>
<trkpt lat="23.50641" lon="112.457098">
<time>2016-10-06T10:59:45Z</time></trkpt>
<trkpt lat="23.50641" lon="112.457047">
<time>2016-10-06T10:59:46Z</time></trkpt>
<trkpt lat="23.50641" lon="112.456997">
<time>2016-10-06T10:59:47Z</time></trkpt>
<trkpt lat="23.50641" lon="112.456937">
<time>2016-10-06T10:59:48Z</time></trkpt>
<trkpt lat="23.506399" lon="112.456857">
<time>2016-10-06T10:59:49Z</time></trkpt>
<trkpt lat="23.506399" lon="112.456857">
<time>2016-10-06T10:59:50Z</time></trkpt>
<trkpt lat="23.506359" lon="112.456797">
<time>2016-10-06T10:59:51Z</time></trkpt>
<trkpt lat="23.505466" lon="112.455624">
<time>2016-10-06T10:59:52Z</time></trkpt>
<trkpt lat="23.504393" lon="112.45418">
<time>2016-10-06T10:59:53Z</time></trkpt>
<trkpt lat="23.503921" lon="112.453539">
<time>2016-10-06T10:59:54Z</time></trkpt>
<trkpt lat="23.502417" lon="112.451554">
<time>2016-10-06T10:59:55Z</time></trkpt>
<trkpt lat="23.500822" lon="112.449429">
<time>2016-10-06T10:59:56Z</time></trkpt>
<trkpt lat="23.500652" lon="112.449198">
<time>2016-10-06T10:59:57Z</time></trkpt>
<trkpt lat="23.500652" lon="112.449198">
<time>2016-10-06T10:59:58Z</time></trkpt>
<trkpt lat="23.500662" lon="112.449188">
<time>2016-10-06T10:59:59Z</time></trkpt>
<trkpt lat="23.500991" lon="112.449088">
<time>2016-10-06T11:00:00Z</time></trkpt>
<trkpt lat="23.501191" lon="112.448938">
<time>2016-10-06T11:00:01Z</time></trkpt>
<trkpt lat="23.501291" lon="112.448837">
<time>2016-10-06T11:00:02Z</time></trkpt>
<trkpt lat="23.501481" lon="112.448697">
<time>2016-10-06T11:00:03Z</time></trkpt>
<trkpt lat="23.50164" lon="112.448587">
<time>2016-10-06T11:00:04Z</time></trkpt>
<trkpt lat="23.50186" lon="112.448386">
<time>2016-10-06T11:00:05Z</time></trkpt>
<trkpt lat="23.502029" lon="112.448186">
<time>2016-10-06T11:00:06Z</time></trkpt>
<trkpt lat="23.502149" lon="112.447995">
<time>2016-10-06T11:00:07Z</time></trkpt>
<trkpt lat="23.502238" lon="112.447725">
<time>2016-10-06T11:00:08Z</time></trkpt>
<trkpt lat="23.502378" lon="112.447304">
<time>2016-10-06T11:00:09Z</time></trkpt>
<trkpt lat="23.502497" lon="112.446883">
<time>2016-10-06T11:00:10Z</time></trkpt>
<trkpt lat="23.502606" lon="112.446702">
<time>2016-10-06T11:00:11Z</time></trkpt>
<trkpt lat="23.502746" lon="112.446582">
<time>2016-10-06T11:00:12Z</time></trkpt>
<trkpt lat="23.502966" lon="112.446482">
<time>2016-10-06T11:00:13Z</time></trkpt>
<trkpt lat="23.503366" lon="112.446341">
<time>2016-10-06T11:00:14Z</time></trkpt>
<trkpt lat="23.503855" lon="112.446231">
<time>2016-10-06T11:00:15Z</time></trkpt>
<trkpt lat="23.504275" lon="112.446091">
<time>2016-10-06T11:00:16Z</time></trkpt>
<trkpt lat="23.504635" lon="112.446041">
<time>2016-10-06T11:00:17Z</time></trkpt>
<trkpt lat="23.505005" lon="112.44599">
<time>2016-10-06T11:00:18Z</time></trkpt>
<trkpt lat="23.505215" lon="112.44595">
<time>2016-10-06T11:00:19Z</time></trkpt>
<trkpt lat="23.505325" lon="112.44594">
<time>2016-10-06T11:00:20Z</time></trkpt>
<trkpt lat="23.505525" lon="112.44589">
<time>2016-10-06T11:00:21Z</time></trkpt>
<trkpt lat="23.505704" lon="112.44584">
<time>2016-10-06T11:00:22Z</time></trkpt>
<trkpt lat="23.505704" lon="112.44584">
<time>2016-10-06T11:00:23Z</time></trkpt>
<trkpt lat="23.505795" lon="112.44593">
<time>2016-10-06T11:00:24Z</time></trkpt>
<trkpt lat="23.506035" lon="112.446171">
<time>2016-10-06T11:00:25Z</time></trkpt>
<trkpt lat="23.506095" lon="112.446221">
<time>2016-10-06T11:00:26Z</time></trkpt>
<trkpt lat="23.506125" lon="112.446241">
<time>2016-10-06T11:00:27Z</time></trkpt>
<trkpt lat="23.506155" lon="112.446261">
<time>2016-10-06T11:00:28Z</time></trkpt>
<trkpt lat="23.506185" lon="112.446281">
<time>2016-10-06T11:00:29Z</time></trkpt>
<trkpt lat="23.506225" lon="112.446301">
<time>2016-10-06T11:00:30Z</time></trkpt>
<trkpt lat="23.506285" lon="112.446321">
<time>2016-10-06T11:00:31Z</time></trkpt>
<trkpt lat="23.506315" lon="112.446331">
<time>2016-10-06T11:00:32Z</time></trkpt>
<trkpt lat="23.506355" lon="112.446341">
<time>2016-10-06T11:00:33Z</time></trkpt>
<trkpt lat="23.506666" lon="112.446421">
<time>2016-10-06T11:00:34Z</time></trkpt>
<trkpt lat="23.506786" lon="112.446441">
<time>2016-10-06T11:00:35Z</time></trkpt>
<trkpt lat="23.506916" lon="112.446461">
<time>2016-10-06T11:00:36Z</time></trkpt>
<trkpt lat="23.506996" lon="112.446471">
<time>2016-10-06T11:00:37Z</time></trkpt>
<trkpt lat="23.507076" lon="112.446471">
<time>2016-10-06T11:00:38Z</time></trkpt>
<trkpt lat="23.507146" lon="112.446471">
<time>2016-10-06T11:00:39Z</time></trkpt>
<trkpt lat="23.507206" lon="112.446461">
<time>2016-10-06T11:00:40Z</time></trkpt>
<trkpt lat="23.507266" lon="112.446461">
<time>2016-10-06T11:00:41Z</time></trkpt>
<trkpt lat="23.507336" lon="112.446441">
<time>2016-10-06T11:00:42Z</time></trkpt>
<trkpt lat="23.507555" lon="112.446391">
<time>2016-10-06T11:00:43Z</time></trkpt>
<trkpt lat="23.507905" lon="112.446321">
<time>2016-10-06T11:00:44Z</time></trkpt>
<trkpt lat="23.508395" lon="112.446231">
<time>2016-10-06T11:00:45Z</time></trkpt>
<trkpt lat="23.508955" lon="112.44611">
<time>2016-10-06T11:00:46Z</time></trkpt>
<trkpt lat="23.509175" lon="112.44606">
<time>2016-10-06T11:00:47Z</time></trkpt>
<trkpt lat="23.509265" lon="112.44603">
<time>2016-10-06T11:00:48Z</time></trkpt>
<trkpt lat="23.509275" lon="112.44603">
<time>2016-10-06T11:00:49Z</time></trkpt>
<trkpt lat="23.509365" lon="112.446">
<time>2016-10-06T11:00:50Z</time></trkpt>
<trkpt lat="23.509415" lon="112.44598">
<time>2016-10-06T11:00:51Z</time></trkpt>
<trkpt lat="23.509475" lon="112.44596">
<time>2016-10-06T11:00:52Z</time></trkpt>
<trkpt lat="23.509564" lon="112.44593">
<time>2016-10-06T11:00:53Z</time></trkpt>
<trkpt lat="23.509604" lon="112.44592">
<time>2016-10-06T11:00:54Z</time></trkpt>
<trkpt lat="23.509644" lon="112.44591">
<time>2016-10-06T11:00:55Z</time></trkpt>
<trkpt lat="23.509694" lon="112.4459">
<time>2016-10-06T11:00:56Z</time></trkpt>
<trkpt lat="23.509734" lon="112.4459">
<time>2016-10-06T11:00:57Z</time></trkpt>
<trkpt lat="23.509854" lon="112.44589">
<time>2016-10-06T11:00:58Z</time></trkpt>
<trkpt lat="23.510764" lon="112.44587">
<time>2016-10-06T11:00:59Z</time></trkpt>
<trkpt lat="23.510844" lon="112.44587">
<time>2016-10-06T11:01:00Z</time></trkpt>
<trkpt lat="23.510944" lon="112.44587">
<time>2016-10-06T11:01:01Z</time></trkpt>
<trkpt lat="23.511044" lon="112.44588">
<time>2016-10-06T11:01:02Z</time></trkpt>
<trkpt lat="23.511104" lon="112.4459">
<time>2016-10-06T11:01:03Z</time></trkpt>
<trkpt lat="23.511174" lon="112.44592">
<time>2016-10-06T11:01:04Z</time></trkpt>
<trkpt lat="23.511355" lon="112.44598">
<time>2016-10-06T11:01:05Z</time></trkpt>
<trkpt lat="23.511535" lon="112.44605">
<time>2016-10-06T11:01:06Z</time></trkpt>
<trkpt lat="23.511625" lon="112.44608">
<time>2016-10-06T11:01:07Z</time></trkpt>
<trkpt lat="23.511755" lon="112.44611">
<time>2016-10-06T11:01:08Z</time></trkpt>
<trkpt lat="23.512835" lon="112.446381">
<time>2016-10-06T11:01:09Z</time></trkpt>
<trkpt lat="23.513306" lon="112.446521">
<time>2016-10-06T11:01:10Z</time></trkpt>
<trkpt lat="23.513496" lon="112.446571">
<time>2016-10-06T11:01:11Z</time></trkpt>
<trkpt lat="23.513616" lon="112.446601">
<time>2016-10-06T11:01:12Z</time></trkpt>
<trkpt lat="23.513696" lon="112.446621">
<time>2016-10-06T11:01:13Z</time></trkpt>
<trkpt lat="23.513756" lon="112.446621">
<time>2016-10-06T11:01:14Z</time></trkpt>
<trkpt lat="23.513836" lon="112.446631">
<time>2016-10-06T11:01:15Z</time></trkpt>
<trkpt lat="23.513906" lon="112.446631">
<time>2016-10-06T11:01:16Z</time></trkpt>
<trkpt lat="23.513976" lon="112.446621">
<time>2016-10-06T11:01:17Z</time></trkpt>
<trkpt lat="23.514046" lon="112.446621">
<time>2016-10-06T11:01:18Z</time></trkpt>
<trkpt lat="23.514116" lon="112.446611">
<time>2016-10-06T11:01:19Z</time></trkpt>
<trkpt lat="23.514186" lon="112.446601">
<time>2016-10-06T11:01:20Z</time></trkpt>
<trkpt lat="23.514316" lon="112.446571">
<time>2016-10-06T11:01:21Z</time></trkpt>
<trkpt lat="23.514486" lon="112.446521">
<time>2016-10-06T11:01:22Z</time></trkpt>
<trkpt lat="23.514685" lon="112.446461">
<time>2016-10-06T11:01:23Z</time></trkpt>
<trkpt lat="23.515095" lon="112.44629">
<time>2016-10-06T11:01:24Z</time></trkpt>
<trkpt lat="23.516294" lon="112.445879">
<time>2016-10-06T11:01:25Z</time></trkpt>
<trkpt lat="23.516554" lon="112.445779">
<time>2016-10-06T11:01:26Z</time></trkpt>
<trkpt lat="23.516604" lon="112.445759">
<time>2016-10-06T11:01:27Z</time></trkpt>
<trkpt lat="23.516664" lon="112.445749">
<time>2016-10-06T11:01:28Z</time></trkpt>
<trkpt lat="23.516714" lon="112.445739">
<time>2016-10-06T11:01:29Z</time></trkpt>
<trkpt lat="23.516764" lon="112.445729">
<time>2016-10-06T11:01:30Z</time></trkpt>
<trkpt lat="23.516814" lon="112.445719">
<time>2016-10-06T11:01:31Z</time></trkpt>
<trkpt lat="23.516864" lon="112.445719">
<time>2016-10-06T11:01:32Z</time></trkpt>
<trkpt lat="23.516934" lon="112.445729">
<time>2016-10-06T11:01:33Z</time></trkpt>
<trkpt lat="23.517004" lon="112.445739">
<time>2016-10-06T11:01:34Z</time></trkpt>
<trkpt lat="23.517094" lon="112.445749">
<time>2016-10-06T11:01:35Z</time></trkpt>
<trkpt lat="23.517184" lon="112.445769">
<time>2016-10-06T11:01:36Z</time></trkpt>
<trkpt lat="23.517404" lon="112.445829">
<time>2016-10-06T11:01:37Z</time></trkpt>
<trkpt lat="23.517454" lon="112.445849">
<time>2016-10-06T11:01:38Z</time></trkpt>
<trkpt lat="23.517504" lon="112.445869">
<time>2016-10-06T11:01:39Z</time></trkpt>
<trkpt lat="23.517554" lon="112.445889">
<time>2016-10-06T11:01:40Z</time></trkpt>
<trkpt lat="23.517614" lon="112.445919">
<time>2016-10-06T11:01:41Z</time></trkpt>
<trkpt lat="23.517634" lon="112.445929">
<time>2016-10-06T11:01:42Z</time></trkpt>
<trkpt lat="23.517644" lon="112.445929">
<time>2016-10-06T11:01:43Z</time></trkpt>
<trkpt lat="23.517664" lon="112.445929">
<time>2016-10-06T11:01:44Z</time></trkpt>
<trkpt lat="23.517684" lon="112.445929">
<time>2016-10-06T11:01:45Z</time></trkpt>
<trkpt lat="23.517694" lon="112.445929">
<time>2016-10-06T11:01:46Z</time></trkpt>
<trkpt lat="23.517714" lon="112.445929">
<time>2016-10-06T11:01:47Z</time></trkpt>
<trkpt lat="23.517744" lon="112.445929">
<time>2016-10-06T11:01:48Z</time></trkpt>
<trkpt lat="23.517784" lon="112.445919">
<time>2016-10-06T11:01:49Z</time></trkpt>
<trkpt lat="23.517824" lon="112.445909">
<time>2016-10-06T11:01:50Z</time></trkpt>
<trkpt lat="23.517864" lon="112.445899">
<time>2016-10-06T11:01:51Z</time></trkpt>
<trkpt lat="23.517904" lon="112.445879">
<time>2016-10-06T11:01:52Z</time></trkpt>
<trkpt lat="23.517954" lon="112.445849">
<time>2016-10-06T11:01:53Z</time></trkpt>
<trkpt lat="23.518014" lon="112.445809">
<time>2016-10-06T11:01:54Z</time></trkpt>
<trkpt lat="23.518793" lon="112.445288">
<time>2016-10-06T11:01:55Z</time></trkpt>
<trkpt lat="23.519941" lon="112.444536">
<time>2016-10-06T11:01:56Z</time></trkpt>
<trkpt lat="23.520221" lon="112.444336">
<time>2016-10-06T11:01:57Z</time></trkpt>
<trkpt lat="23.520421" lon="112.444195">
<time>2016-10-06T11:01:58Z</time></trkpt>
<trkpt lat="23.5211" lon="112.443674">
<time>2016-10-06T11:01:59Z</time></trkpt>
<trkpt lat="23.521569" lon="112.443323">
<time>2016-10-06T11:02:00Z</time></trkpt>
<trkpt lat="23.521689" lon="112.443213">
<time>2016-10-06T11:02:01Z</time></trkpt>
<trkpt lat="23.521878" lon="112.443033">
<time>2016-10-06T11:02:02Z</time></trkpt>
<trkpt lat="23.522128" lon="112.442762">
<time>2016-10-06T11:02:03Z</time></trkpt>
<trkpt lat="23.522497" lon="112.442411">
<time>2016-10-06T11:02:04Z</time></trkpt>
<trkpt lat="23.522637" lon="112.442281">
<time>2016-10-06T11:02:05Z</time></trkpt>
<trkpt lat="23.522717" lon="112.442211">
<time>2016-10-06T11:02:06Z</time></trkpt>
<trkpt lat="23.523026" lon="112.44196">
<time>2016-10-06T11:02:07Z</time></trkpt>
<trkpt lat="23.523216" lon="112.44176">
<time>2016-10-06T11:02:08Z</time></trkpt>
<trkpt lat="23.523425" lon="112.44151">
<time>2016-10-06T11:02:09Z</time></trkpt>
<trkpt lat="23.523455" lon="112.441469">
<time>2016-10-06T11:02:10Z</time></trkpt>
<trkpt lat="23.523495" lon="112.441429">
<time>2016-10-06T11:02:11Z</time></trkpt>
<trkpt lat="23.523545" lon="112.441359">
<time>2016-10-06T11:02:12Z</time></trkpt>
<trkpt lat="23.523585" lon="112.441279">
<time>2016-10-06T11:02:13Z</time></trkpt>
<trkpt lat="23.523625" lon="112.441209">
<time>2016-10-06T11:02:14Z</time></trkpt>
<trkpt lat="23.523655" lon="112.441129">
<time>2016-10-06T11:02:15Z</time></trkpt>
<trkpt lat="23.523685" lon="112.441049">
<time>2016-10-06T11:02:16Z</time></trkpt>
<trkpt lat="23.523714" lon="112.440958">
<time>2016-10-06T11:02:17Z</time></trkpt>
<trkpt lat="23.523724" lon="112.440908">
<time>2016-10-06T11:02:18Z</time></trkpt>
<trkpt lat="23.523734" lon="112.440868">
<time>2016-10-06T11:02:19Z</time></trkpt>
<trkpt lat="23.523744" lon="112.440808">
<time>2016-10-06T11:02:20Z</time></trkpt>
<trkpt lat="23.523754" lon="112.440748">
<time>2016-10-06T11:02:21Z</time></trkpt>
<trkpt lat="23.523764" lon="112.440688">
<time>2016-10-06T11:02:22Z</time></trkpt>
<trkpt lat="23.523774" lon="112.440598">
<time>2016-10-06T11:02:23Z</time></trkpt>
<trkpt lat="23.523783" lon="112.440497">
<time>2016-10-06T11:02:24Z</time></trkpt>
<trkpt lat="23.523793" lon="112.440407">
<time>2016-10-06T11:02:25Z</time></trkpt>
<trkpt lat="23.523803" lon="112.440347">
<time>2016-10-06T11:02:26Z</time></trkpt>
<trkpt lat="23.523823" lon="112.440267">
<time>2016-10-06T11:02:27Z</time></trkpt>
<trkpt lat="23.523853" lon="112.440177">
<time>2016-10-06T11:02:28Z</time></trkpt>
<trkpt lat="23.523893" lon="112.440087">
<time>2016-10-06T11:02:29Z</time></trkpt>
<trkpt lat="23.524152" lon="112.439485">
<time>2016-10-06T11:02:30Z</time></trkpt>
<trkpt lat="23.524401" lon="112.438914">
<time>2016-10-06T11:02:31Z</time></trkpt>
<trkpt lat="23.52445" lon="112.438814">
<time>2016-10-06T11:02:32Z</time></trkpt>
<trkpt lat="23.52448" lon="112.438744">
<time>2016-10-06T11:02:33Z</time></trkpt>
<trkpt lat="23.52451" lon="112.438694">
<time>2016-10-06T11:02:34Z</time></trkpt>
<trkpt lat="23.52455" lon="112.438634">
<time>2016-10-06T11:02:35Z</time></trkpt>
<trkpt lat="23.52456" lon="112.438614">
<time>2016-10-06T11:02:36Z</time></trkpt>
<trkpt lat="23.52459" lon="112.438583">
<time>2016-10-06T11:02:37Z</time></trkpt>
<trkpt lat="23.52462" lon="112.438553">
<time>2016-10-06T11:02:38Z</time></trkpt>
<trkpt lat="23.52463" lon="112.438533">
<time>2016-10-06T11:02:39Z</time></trkpt>
<trkpt lat="23.52465" lon="112.438523">
<time>2016-10-06T11:02:40Z</time></trkpt>
<trkpt lat="23.52467" lon="112.438513">
<time>2016-10-06T11:02:41Z</time></trkpt>
<trkpt lat="23.52469" lon="112.438503">
<time>2016-10-06T11:02:42Z</time></trkpt>
<trkpt lat="23.5247" lon="112.438493">
<time>2016-10-06T11:02:43Z</time></trkpt>
<trkpt lat="23.52472" lon="112.438483">
<time>2016-10-06T11:02:44Z</time></trkpt>
<trkpt lat="23.52474" lon="112.438483">
<time>2016-10-06T11:02:45Z</time></trkpt>
<trkpt lat="23.52475" lon="112.438483">
<time>2016-10-06T11:02:46Z</time></trkpt>
<trkpt lat="23.52477" lon="112.438483">
<time>2016-10-06T11:02:47Z</time></trkpt>
<trkpt lat="23.52488" lon="112.438463">
<time>2016-10-06T11:02:48Z</time></trkpt>
<trkpt lat="23.52495" lon="112.438453">
<time>2016-10-06T11:02:49Z</time></trkpt>
<trkpt lat="23.52501" lon="112.438443">
<time>2016-10-06T11:02:50Z</time></trkpt>
<trkpt lat="23.52508" lon="112.438423">
<time>2016-10-06T11:02:51Z</time></trkpt>
<trkpt lat="23.52514" lon="112.438403">
<time>2016-10-06T11:02:52Z</time></trkpt>
<trkpt lat="23.5252" lon="112.438383">
<time>2016-10-06T11:02:53Z</time></trkpt>
<trkpt lat="23.52525" lon="112.438353">
<time>2016-10-06T11:02:54Z</time></trkpt>
<trkpt lat="23.525429" lon="112.438233">
<time>2016-10-06T11:02:55Z</time></trkpt>
<trkpt lat="23.525549" lon="112.438163">
<time>2016-10-06T11:02:56Z</time></trkpt>
<trkpt lat="23.525569" lon="112.438143">
<time>2016-10-06T11:02:57Z</time></trkpt>
<trkpt lat="23.525609" lon="112.438133">
<time>2016-10-06T11:02:58Z</time></trkpt>
<trkpt lat="23.525649" lon="112.438113">
<time>2016-10-06T11:02:59Z</time></trkpt>
<trkpt lat="23.525679" lon="112.438102">
<time>2016-10-06T11:03:00Z</time></trkpt>
<trkpt lat="23.525699" lon="112.438092">
<time>2016-10-06T11:03:01Z</time></trkpt>
<trkpt lat="23.525719" lon="112.438082">
<time>2016-10-06T11:03:02Z</time></trkpt>
<trkpt lat="23.525739" lon="112.438082">
<time>2016-10-06T11:03:03Z</time></trkpt>
<trkpt lat="23.525869" lon="112.438052">
<time>2016-10-06T11:03:04Z</time></trkpt>
<trkpt lat="23.526379" lon="112.437972">
<time>2016-10-06T11:03:05Z</time></trkpt>
<trkpt lat="23.526589" lon="112.437932">
<time>2016-10-06T11:03:06Z</time></trkpt>
<trkpt lat="23.526749" lon="112.437932">
<time>2016-10-06T11:03:07Z</time></trkpt>
<trkpt lat="23.526899" lon="112.437932">
<time>2016-10-06T11:03:08Z</time></trkpt>
<trkpt lat="23.526969" lon="112.437922">
<time>2016-10-06T11:03:09Z</time></trkpt>
<trkpt lat="23.527019" lon="112.437912">
<time>2016-10-06T11:03:10Z</time></trkpt>
<trkpt lat="23.527059" lon="112.437912">
<time>2016-10-06T11:03:11Z</time></trkpt>
<trkpt lat="23.527109" lon="112.437902">
<time>2016-10-06T11:03:12Z</time></trkpt>
<trkpt lat="23.527139" lon="112.437892">
<time>2016-10-06T11:03:13Z</time></trkpt>
<trkpt lat="23.527169" lon="112.437882">
<time>2016-10-06T11:03:14Z</time></trkpt>
<trkpt lat="23.527189" lon="112.437872">
<time>2016-10-06T11:03:15Z</time></trkpt>
<trkpt lat="23.527219" lon="112.437862">
<time>2016-10-06T11:03:16Z</time></trkpt>
<trkpt lat="23.527239" lon="112.437852">
<time>2016-10-06T11:03:17Z</time></trkpt>
<trkpt lat="23.527259" lon="112.437842">
<time>2016-10-06T11:03:18Z</time></trkpt>
<trkpt lat="23.527279" lon="112.437832">
<time>2016-10-06T11:03:19Z</time></trkpt>
<trkpt lat="23.527299" lon="112.437812">
<time>2016-10-06T11:03:20Z</time></trkpt>
<trkpt lat="23.527328" lon="112.437782">
<time>2016-10-06T11:03:21Z</time></trkpt>
<trkpt lat="23.527348" lon="112.437752">
<time>2016-10-06T11:03:22Z</time></trkpt>
<trkpt lat="23.527428" lon="112.437662">
<time>2016-10-06T11:03:23Z</time></trkpt>
<trkpt lat="23.527458" lon="112.437621">
<time>2016-10-06T11:03:24Z</time></trkpt>
<trkpt lat="23.527468" lon="112.437611">
<time>2016-10-06T11:03:25Z</time></trkpt>
<trkpt lat="23.527488" lon="112.437591">
<time>2016-10-06T11:03:26Z</time></trkpt>
<trkpt lat="23.527498" lon="112.437581">
<time>2016-10-06T11:03:27Z</time></trkpt>
<trkpt lat="23.527518" lon="112.437561">
<time>2016-10-06T11:03:28Z</time></trkpt>
<trkpt lat="23.527538" lon="112.437551">
<time>2016-10-06T11:03:29Z</time></trkpt>
<trkpt lat="23.527558" lon="112.437541">
<time>2016-10-06T11:03:30Z</time></trkpt>
<trkpt lat="23.527578" lon="112.437531">
<time>2016-10-06T11:03:31Z</time></trkpt>
<trkpt lat="23.527598" lon="112.437521">
<time>2016-10-06T11:03:32Z</time></trkpt>
<trkpt lat="23.527628" lon="112.437511">
<time>2016-10-06T11:03:33Z</time></trkpt>
<trkpt lat="23.527668" lon="112.437501">
<time>2016-10-06T11:03:34Z</time></trkpt>
<trkpt lat="23.527708" lon="112.437491">
<time>2016-10-06T11:03:35Z</time></trkpt>
<trkpt lat="23.527738" lon="112.437491">
<time>2016-10-06T11:03:36Z</time></trkpt>
<trkpt lat="23.527778" lon="112.437481">
<time>2016-10-06T11:03:37Z</time></trkpt>
<trkpt lat="23.527808" lon="112.437481">
<time>2016-10-06T11:03:38Z</time></trkpt>
<trkpt lat="23.527848" lon="112.437481">
<time>2016-10-06T11:03:39Z</time></trkpt>
<trkpt lat="23.527878" lon="112.437481">
<time>2016-10-06T11:03:40Z</time></trkpt>
<trkpt lat="23.527908" lon="112.437491">
<time>2016-10-06T11:03:41Z</time></trkpt>
<trkpt lat="23.527938" lon="112.437491">
<time>2016-10-06T11:03:42Z</time></trkpt>
<trkpt lat="23.527958" lon="112.437501">
<time>2016-10-06T11:03:43Z</time></trkpt>
<trkpt lat="23.527978" lon="112.437511">
<time>2016-10-06T11:03:44Z</time></trkpt>
<trkpt lat="23.527998" lon="112.437521">
<time>2016-10-06T11:03:45Z</time></trkpt>
<trkpt lat="23.528008" lon="112.437541">
<time>2016-10-06T11:03:46Z</time></trkpt>
<trkpt lat="23.528028" lon="112.437551">
<time>2016-10-06T11:03:47Z</time></trkpt>
<trkpt lat="23.528128" lon="112.437661">
<time>2016-10-06T11:03:48Z</time></trkpt>
<trkpt lat="23.528168" lon="112.437702">
<time>2016-10-06T11:03:49Z</time></trkpt>
<trkpt lat="23.528188" lon="112.437712">
<time>2016-10-06T11:03:50Z</time></trkpt>
<trkpt lat="23.528198" lon="112.437722">
<time>2016-10-06T11:03:51Z</time></trkpt>
<trkpt lat="23.528218" lon="112.437732">
<time>2016-10-06T11:03:52Z</time></trkpt>
<trkpt lat="23.528228" lon="112.437742">
<time>2016-10-06T11:03:53Z</time></trkpt>
<trkpt lat="23.528248" lon="112.437752">
<time>2016-10-06T11:03:54Z</time></trkpt>
<trkpt lat="23.528268" lon="112.437762">
<time>2016-10-06T11:03:55Z</time></trkpt>
<trkpt lat="23.528288" lon="112.437762">
<time>2016-10-06T11:03:56Z</time></trkpt>
<trkpt lat="23.528308" lon="112.437772">
<time>2016-10-06T11:03:57Z</time></trkpt>
<trkpt lat="23.528348" lon="112.437782">
<time>2016-10-06T11:03:58Z</time></trkpt>
<trkpt lat="23.528749" lon="112.437832">
<time>2016-10-06T11:03:59Z</time></trkpt>
<trkpt lat="23.529119" lon="112.437862">
<time>2016-10-06T11:04:00Z</time></trkpt>
<trkpt lat="23.529209" lon="112.437862">
<time>2016-10-06T11:04:01Z</time></trkpt>
<trkpt lat="23.529229" lon="112.437862">
<time>2016-10-06T11:04:02Z</time></trkpt>
<trkpt lat="23.529249" lon="112.437862">
<time>2016-10-06T11:04:03Z</time></trkpt>
<trkpt lat="23.529269" lon="112.437862">
<time>2016-10-06T11:04:04Z</time></trkpt>
<trkpt lat="23.529279" lon="112.437862">
<time>2016-10-06T11:04:05Z</time></trkpt>
<trkpt lat="23.529299" lon="112.437852">
<time>2016-10-06T11:04:06Z</time></trkpt>
<trkpt lat="23.529309" lon="112.437852">
<time>2016-10-06T11:04:07Z</time></trkpt>
<trkpt lat="23.529329" lon="112.437842">
<time>2016-10-06T11:04:08Z</time></trkpt>
<trkpt lat="23.529339" lon="112.437842">
<time>2016-10-06T11:04:09Z</time></trkpt>
<trkpt lat="23.529339" lon="112.437832">
<time>2016-10-06T11:04:10Z</time></trkpt>
<trkpt lat="23.529349" lon="112.437832">
<time>2016-10-06T11:04:11Z</time></trkpt>
<trkpt lat="23.529349" lon="112.437822">
<time>2016-10-06T11:04:12Z</time></trkpt>
<trkpt lat="23.529359" lon="112.437822">
<time>2016-10-06T11:04:13Z</time></trkpt>
<trkpt lat="23.529359" lon="112.437812">
<time>2016-10-06T11:04:14Z</time></trkpt>
<trkpt lat="23.529369" lon="112.437812">
<time>2016-10-06T11:04:15Z</time></trkpt>
<trkpt lat="23.529379" lon="112.437802">
<time>2016-10-06T11:04:16Z</time></trkpt>
<trkpt lat="23.529388" lon="112.437792">
<time>2016-10-06T11:04:17Z</time></trkpt>
<trkpt lat="23.529388" lon="112.437782">
<time>2016-10-06T11:04:18Z</time></trkpt>
<trkpt lat="23.529398" lon="112.437772">
<time>2016-10-06T11:04:19Z</time></trkpt>
<trkpt lat="23.529398" lon="112.437762">
<time>2016-10-06T11:04:20Z</time></trkpt>
<trkpt lat="23.529408" lon="112.437752">
<time>2016-10-06T11:04:21Z</time></trkpt>
<trkpt lat="23.529438" lon="112.437671">
<time>2016-10-06T11:04:22Z</time></trkpt>
<trkpt lat="23.529458" lon="112.437621">
<time>2016-10-06T11:04:23Z</time></trkpt>
<trkpt lat="23.529468" lon="112.437591">
<time>2016-10-06T11:04:24Z</time></trkpt>
<trkpt lat="23.529478" lon="112.437571">
<time>2016-10-06T11:04:25Z</time></trkpt>
<trkpt lat="23.529498" lon="112.437541">
<time>2016-10-06T11:04:26Z</time></trkpt>
<trkpt lat="23.529508" lon="112.437531">
<time>2016-10-06T11:04:27Z</time></trkpt>
<trkpt lat="23.529508" lon="112.437521">
<time>2016-10-06T11:04:28Z</time></trkpt>
<trkpt lat="23.529518" lon="112.437511">
<time>2016-10-06T11:04:29Z</time></trkpt>
<trkpt lat="23.529528" lon="112.437501">
<time>2016-10-06T11:04:30Z</time></trkpt>
<trkpt lat="23.529538" lon="112.437491">
<time>2016-10-06T11:04:31Z</time></trkpt>
<trkpt lat="23.529548" lon="112.437481">
<time>2016-10-06T11:04:32Z</time></trkpt>
<trkpt lat="23.529558" lon="112.437481">
<time>2016-10-06T11:04:33Z</time></trkpt>
<trkpt lat="23.529568" lon="112.437471">
<time>2016-10-06T11:04:34Z</time></trkpt>
<trkpt lat="23.529578" lon="112.437471">
<time>2016-10-06T11:04:35Z</time></trkpt>
<trkpt lat="23.529588" lon="112.437461">
<time>2016-10-06T11:04:36Z</time></trkpt>
<trkpt lat="23.529598" lon="112.437461">
<time>2016-10-06T11:04:37Z</time></trkpt>
<trkpt lat="23.529608" lon="112.437461">
<time>2016-10-06T11:04:38Z</time></trkpt>
<trkpt lat="23.529618" lon="112.437451">
<time>2016-10-06T11:04:39Z</time></trkpt>
<trkpt lat="23.529628" lon="112.437451">
<time>2016-10-06T11:04:40Z</time></trkpt>
<trkpt lat="23.529648" lon="112.437451">
<time>2016-10-06T11:04:41Z</time></trkpt>
<trkpt lat="23.529658" lon="112.437451">
<time>2016-10-06T11:04:42Z</time></trkpt>
<trkpt lat="23.529668" lon="112.437451">
<time>2016-10-06T11:04:43Z</time></trkpt>
<trkpt lat="23.529678" lon="112.437451">
<time>2016-10-06T11:04:44Z</time></trkpt>
<trkpt lat="23.529688" lon="112.437451">
<time>2016-10-06T11:04:45Z</time></trkpt>
<trkpt lat="23.529698" lon="112.437461">
<time>2016-10-06T11:04:46Z</time></trkpt>
<trkpt lat="23.529708" lon="112.437461">
<time>2016-10-06T11:04:47Z</time></trkpt>
<trkpt lat="23.529718" lon="112.437461">
<time>2016-10-06T11:04:48Z</time></trkpt>
<trkpt lat="23.529728" lon="112.437471">
<time>2016-10-06T11:04:49Z</time></trkpt>
<trkpt lat="23.529748" lon="112.437471">
<time>2016-10-06T11:04:50Z</time></trkpt>
<trkpt lat="23.529758" lon="112.437481">
<time>2016-10-06T11:04:51Z</time></trkpt>
<trkpt lat="23.529768" lon="112.437481">
<time>2016-10-06T11:04:52Z</time></trkpt>
<trkpt lat="23.529778" lon="112.437491">
<time>2016-10-06T11:04:53Z</time></trkpt>
<trkpt lat="23.529798" lon="112.437501">
<time>2016-10-06T11:04:54Z</time></trkpt>
<trkpt lat="23.529808" lon="112.437511">
<time>2016-10-06T11:04:55Z</time></trkpt>
<trkpt lat="23.529818" lon="112.437521">
<time>2016-10-06T11:04:56Z</time></trkpt>
<trkpt lat="23.529828" lon="112.437531">
<time>2016-10-06T11:04:57Z</time></trkpt>
<trkpt lat="23.529838" lon="112.437551">
<time>2016-10-06T11:04:58Z</time></trkpt>
<trkpt lat="23.529848" lon="112.437561">
<time>2016-10-06T11:04:59Z</time></trkpt>
<trkpt lat="23.529868" lon="112.437581">
<time>2016-10-06T11:05:00Z</time></trkpt>
<trkpt lat="23.529878" lon="112.437601">
<time>2016-10-06T11:05:01Z</time></trkpt>
<trkpt lat="23.529888" lon="112.437621">
<time>2016-10-06T11:05:02Z</time></trkpt>
<trkpt lat="23.530099" lon="112.437962">
<time>2016-10-06T11:05:03Z</time></trkpt>
<trkpt lat="23.530209" lon="112.438122">
<time>2016-10-06T11:05:04Z</time></trkpt>
<trkpt lat="23.530239" lon="112.438162">
<time>2016-10-06T11:05:05Z</time></trkpt>
<trkpt lat="23.530279" lon="112.438202">
<time>2016-10-06T11:05:06Z</time></trkpt>
<trkpt lat="23.530329" lon="112.438252">
<time>2016-10-06T11:05:07Z</time></trkpt>
<trkpt lat="23.530379" lon="112.438283">
<time>2016-10-06T11:05:08Z</time></trkpt>
<trkpt lat="23.530449" lon="112.438333">
<time>2016-10-06T11:05:09Z</time></trkpt>
<trkpt lat="23.53058" lon="112.438423">
<time>2016-10-06T11:05:10Z</time></trkpt>
<trkpt lat="23.53074" lon="112.438563">
<time>2016-10-06T11:05:11Z</time></trkpt>
<trkpt lat="23.53091" lon="112.438693">
<time>2016-10-06T11:05:12Z</time></trkpt>
<trkpt lat="23.53095" lon="112.438703">
<time>2016-10-06T11:05:13Z</time></trkpt>
<trkpt lat="23.53098" lon="112.438723">
<time>2016-10-06T11:05:14Z</time></trkpt>
<trkpt lat="23.53099" lon="112.438733">
<time>2016-10-06T11:05:15Z</time></trkpt>
<trkpt lat="23.53101" lon="112.438733">
<time>2016-10-06T11:05:16Z</time></trkpt>
<trkpt lat="23.53102" lon="112.438743">
<time>2016-10-06T11:05:17Z</time></trkpt>
<trkpt lat="23.53104" lon="112.438743">
<time>2016-10-06T11:05:18Z</time></trkpt>
<trkpt lat="23.53105" lon="112.438743">
<time>2016-10-06T11:05:19Z</time></trkpt>
<trkpt lat="23.53107" lon="112.438753">
<time>2016-10-06T11:05:20Z</time></trkpt>
<trkpt lat="23.53109" lon="112.438753">
<time>2016-10-06T11:05:21Z</time></trkpt>
<trkpt lat="23.53111" lon="112.438753">
<time>2016-10-06T11:05:22Z</time></trkpt>
<trkpt lat="23.53113" lon="112.438753">
<time>2016-10-06T11:05:23Z</time></trkpt>
<trkpt lat="23.53115" lon="112.438743">
<time>2016-10-06T11:05:24Z</time></trkpt>
<trkpt lat="23.53117" lon="112.438743">
<time>2016-10-06T11:05:25Z</time></trkpt>
<trkpt lat="23.53119" lon="112.438743">
<time>2016-10-06T11:05:26Z</time></trkpt>
<trkpt lat="23.5312" lon="112.438733">
<time>2016-10-06T11:05:27Z</time></trkpt>
<trkpt lat="23.53122" lon="112.438733">
<time>2016-10-06T11:05:28Z</time></trkpt>
<trkpt lat="23.53123" lon="112.438723">
<time>2016-10-06T11:05:29Z</time></trkpt>
<trkpt lat="23.53125" lon="112.438723">
<time>2016-10-06T11:05:30Z</time></trkpt>
<trkpt lat="23.53126" lon="112.438713">
<time>2016-10-06T11:05:31Z</time></trkpt>
<trkpt lat="23.53127" lon="112.438703">
<time>2016-10-06T11:05:32Z</time></trkpt>
<trkpt lat="23.53129" lon="112.438693">
<time>2016-10-06T11:05:33Z</time></trkpt>
<trkpt lat="23.5313" lon="112.438683">
<time>2016-10-06T11:05:34Z</time></trkpt>
<trkpt lat="23.53131" lon="112.438673">
<time>2016-10-06T11:05:35Z</time></trkpt>
<trkpt lat="23.53132" lon="112.438663">
<time>2016-10-06T11:05:36Z</time></trkpt>
<trkpt lat="23.53137" lon="112.438603">
<time>2016-10-06T11:05:37Z</time></trkpt>
<trkpt lat="23.5314" lon="112.438563">
<time>2016-10-06T11:05:38Z</time></trkpt>
<trkpt lat="23.53143" lon="112.438533">
<time>2016-10-06T11:05:39Z</time></trkpt>
<trkpt lat="23.53145" lon="112.438513">
<time>2016-10-06T11:05:40Z</time></trkpt>
<trkpt lat="23.53148" lon="112.438483">
<time>2016-10-06T11:05:41Z</time></trkpt>
<trkpt lat="23.53151" lon="112.438453">
<time>2016-10-06T11:05:42Z</time></trkpt>
<trkpt lat="23.53154" lon="112.438433">
<time>2016-10-06T11:05:43Z</time></trkpt>
<trkpt lat="23.53157" lon="112.438413">
<time>2016-10-06T11:05:44Z</time></trkpt>
<trkpt lat="23.5316" lon="112.438403">
<time>2016-10-06T11:05:45Z</time></trkpt>
<trkpt lat="23.53163" lon="112.438393">
<time>2016-10-06T11:05:46Z</time></trkpt>
<trkpt lat="23.53166" lon="112.438383">
<time>2016-10-06T11:05:47Z</time></trkpt>
<trkpt lat="23.5317" lon="112.438363">
<time>2016-10-06T11:05:48Z</time></trkpt>
<trkpt lat="23.53174" lon="112.438353">
<time>2016-10-06T11:05:49Z</time></trkpt>
<trkpt lat="23.531789" lon="112.438343">
<time>2016-10-06T11:05:50Z</time></trkpt>
<trkpt lat="23.531819" lon="112.438333">
<time>2016-10-06T11:05:51Z</time></trkpt>
<trkpt lat="23.531869" lon="112.438322">
<time>2016-10-06T11:05:52Z</time></trkpt>
<trkpt lat="23.531909" lon="112.438322">
<time>2016-10-06T11:05:53Z</time></trkpt>
<trkpt lat="23.531979" lon="112.438312">
<time>2016-10-06T11:05:54Z</time></trkpt>
<trkpt lat="23.532029" lon="112.438312">
<time>2016-10-06T11:05:55Z</time></trkpt>
<trkpt lat="23.532079" lon="112.438312">
<time>2016-10-06T11:05:56Z</time></trkpt>
<trkpt lat="23.532129" lon="112.438312">
<time>2016-10-06T11:05:57Z</time></trkpt>
<trkpt lat="23.532169" lon="112.438322">
<time>2016-10-06T11:05:58Z</time></trkpt>
<trkpt lat="23.532229" lon="112.438332">
<time>2016-10-06T11:05:59Z</time></trkpt>
<trkpt lat="23.53248" lon="112.438383">
<time>2016-10-06T11:06:00Z</time></trkpt>
<trkpt lat="23.53256" lon="112.438413">
<time>2016-10-06T11:06:01Z</time></trkpt>
<trkpt lat="23.53258" lon="112.438413">
<time>2016-10-06T11:06:02Z</time></trkpt>
<trkpt lat="23.5326" lon="112.438413">
<time>2016-10-06T11:06:03Z</time></trkpt>
<trkpt lat="23.53261" lon="112.438413">
<time>2016-10-06T11:06:04Z</time></trkpt>
<trkpt lat="23.53263" lon="112.438423">
<time>2016-10-06T11:06:05Z</time></trkpt>
<trkpt lat="23.53264" lon="112.438423">
<time>2016-10-06T11:06:06Z</time></trkpt>
<trkpt lat="23.53265" lon="112.438423">
<time>2016-10-06T11:06:07Z</time></trkpt>
<trkpt lat="23.53266" lon="112.438423">
<time>2016-10-06T11:06:08Z</time></trkpt>
<trkpt lat="23.53267" lon="112.438413">
<time>2016-10-06T11:06:09Z</time></trkpt>
<trkpt lat="23.53269" lon="112.438413">
<time>2016-10-06T11:06:10Z</time></trkpt>
<trkpt lat="23.53271" lon="112.438413">
<time>2016-10-06T11:06:11Z</time></trkpt>
<trkpt lat="23.53272" lon="112.438403">
<time>2016-10-06T11:06:12Z</time></trkpt>
<trkpt lat="23.53273" lon="112.438403">
<time>2016-10-06T11:06:13Z</time></trkpt>
<trkpt lat="23.53275" lon="112.438393">
<time>2016-10-06T11:06:14Z</time></trkpt>
<trkpt lat="23.53276" lon="112.438383">
<time>2016-10-06T11:06:15Z</time></trkpt>
<trkpt lat="23.53277" lon="112.438383">
<time>2016-10-06T11:06:16Z</time></trkpt>
<trkpt lat="23.53277" lon="112.438373">
<time>2016-10-06T11:06:17Z</time></trkpt>
<trkpt lat="23.53278" lon="112.438373">
<time>2016-10-06T11:06:18Z</time></trkpt>
<trkpt lat="23.53278" lon="112.438363">
<time>2016-10-06T11:06:19Z</time></trkpt>
<trkpt lat="23.53279" lon="112.438352">
<time>2016-10-06T11:06:20Z</time></trkpt>
<trkpt lat="23.532789" lon="112.438342">
<time>2016-10-06T11:06:21Z</time></trkpt>
<trkpt lat="23.532799" lon="112.438342">
<time>2016-10-06T11:06:22Z</time></trkpt>
<trkpt lat="23.532799" lon="112.438332">
<time>2016-10-06T11:06:23Z</time></trkpt>
<trkpt lat="23.532809" lon="112.438322">
<time>2016-10-06T11:06:24Z</time></trkpt>
<trkpt lat="23.532809" lon="112.438302">
<time>2016-10-06T11:06:25Z</time></trkpt>
<trkpt lat="23.532819" lon="112.438282">
<time>2016-10-06T11:06:26Z</time></trkpt>
<trkpt lat="23.532819" lon="112.438262">
<time>2016-10-06T11:06:27Z</time></trkpt>
<trkpt lat="23.532819" lon="112.438242">
<time>2016-10-06T11:06:28Z</time></trkpt>
<trkpt lat="23.532829" lon="112.438232">
<time>2016-10-06T11:06:29Z</time></trkpt>
<trkpt lat="23.532829" lon="112.438182">
<time>2016-10-06T11:06:30Z</time></trkpt>
<trkpt lat="23.532829" lon="112.438092">
<time>2016-10-06T11:06:31Z</time></trkpt>
<trkpt lat="23.532829" lon="112.437972">
<time>2016-10-06T11:06:32Z</time></trkpt>
<trkpt lat="23.532829" lon="112.437932">
<time>2016-10-06T11:06:33Z</time></trkpt>
<trkpt lat="23.532829" lon="112.437912">
<time>2016-10-06T11:06:34Z</time></trkpt>
<trkpt lat="23.532839" lon="112.437892">
<time>2016-10-06T11:06:35Z</time></trkpt>
<trkpt lat="23.532839" lon="112.437862">
<time>2016-10-06T11:06:36Z</time></trkpt>
<trkpt lat="23.532849" lon="112.437821">
<time>2016-10-06T11:06:37Z</time></trkpt>
<trkpt lat="23.532849" lon="112.437791">
<time>2016-10-06T11:06:38Z</time></trkpt>
<trkpt lat="23.532868" lon="112.437711">
<time>2016-10-06T11:06:39Z</time></trkpt>
<trkpt lat="23.532878" lon="112.437671">
<time>2016-10-06T11:06:40Z</time></trkpt>
<trkpt lat="23.532888" lon="112.437621">
<time>2016-10-06T11:06:41Z</time></trkpt>
<trkpt lat="23.532888" lon="112.437581">
<time>2016-10-06T11:06:42Z</time></trkpt>
<trkpt lat="23.532888" lon="112.437531">
<time>2016-10-06T11:06:43Z</time></trkpt>
<trkpt lat="23.532878" lon="112.437421">
<time>2016-10-06T11:06:44Z</time></trkpt>
<trkpt lat="23.532878" lon="112.43731">
<time>2016-10-06T11:06:45Z</time></trkpt>
<trkpt lat="23.532868" lon="112.43728">
<time>2016-10-06T11:06:46Z</time></trkpt>
<trkpt lat="23.532878" lon="112.43724">
<time>2016-10-06T11:06:47Z</time></trkpt>
<trkpt lat="23.532877" lon="112.43717">
<time>2016-10-06T11:06:48Z</time></trkpt>
<trkpt lat="23.532887" lon="112.43709">
<time>2016-10-06T11:06:49Z</time></trkpt>
<trkpt lat="23.532897" lon="112.43702">
<time>2016-10-06T11:06:50Z</time></trkpt>
<trkpt lat="23.532907" lon="112.437">
<time>2016-10-06T11:06:51Z</time></trkpt>
<trkpt lat="23.532917" lon="112.43697">
<time>2016-10-06T11:06:52Z</time></trkpt>
<trkpt lat="23.532927" lon="112.43696">
<time>2016-10-06T11:06:53Z</time></trkpt>
<trkpt lat="23.532927" lon="112.43695">
<time>2016-10-06T11:06:54Z</time></trkpt>
<trkpt lat="23.532937" lon="112.43695">
<time>2016-10-06T11:06:55Z</time></trkpt>
<trkpt lat="23.532937" lon="112.43694">
<time>2016-10-06T11:06:56Z</time></trkpt>
<trkpt lat="23.532947" lon="112.43693">
<time>2016-10-06T11:06:57Z</time></trkpt>
<trkpt lat="23.532957" lon="112.43692">
<time>2016-10-06T11:06:58Z</time></trkpt>
<trkpt lat="23.532967" lon="112.43691">
<time>2016-10-06T11:06:59Z</time></trkpt>
<trkpt lat="23.532977" lon="112.4369">
<time>2016-10-06T11:07:00Z</time></trkpt>
<trkpt lat="23.532987" lon="112.43689">
<time>2016-10-06T11:07:01Z</time></trkpt>
<trkpt lat="23.532997" lon="112.43689">
<time>2016-10-06T11:07:02Z</time></trkpt>
<trkpt lat="23.533007" lon="112.43688">
<time>2016-10-06T11:07:03Z</time></trkpt>
<trkpt lat="23.533017" lon="112.43688">
<time>2016-10-06T11:07:04Z</time></trkpt>
<trkpt lat="23.533047" lon="112.43687">
<time>2016-10-06T11:07:05Z</time></trkpt>
<trkpt lat="23.533067" lon="112.43687">
<time>2016-10-06T11:07:06Z</time></trkpt>
<trkpt lat="23.533267" lon="112.43687">
<time>2016-10-06T11:07:07Z</time></trkpt>
<trkpt lat="23.533457" lon="112.43688">
<time>2016-10-06T11:07:08Z</time></trkpt>
<trkpt lat="23.533487" lon="112.43688">
<time>2016-10-06T11:07:09Z</time></trkpt>
<trkpt lat="23.533517" lon="112.43688">
<time>2016-10-06T11:07:10Z</time></trkpt>
<trkpt lat="23.533537" lon="112.43689">
<time>2016-10-06T11:07:11Z</time></trkpt>
<trkpt lat="23.533567" lon="112.43689">
<time>2016-10-06T11:07:12Z</time></trkpt>
<trkpt lat="23.533587" lon="112.4369">
<time>2016-10-06T11:07:13Z</time></trkpt>
<trkpt lat="23.533677" lon="112.43691">
<time>2016-10-06T11:07:14Z</time></trkpt>
<trkpt lat="23.533737" lon="112.43692">
<time>2016-10-06T11:07:15Z</time></trkpt>
<trkpt lat="23.533787" lon="112.43693">
<time>2016-10-06T11:07:16Z</time></trkpt>
<trkpt lat="23.533827" lon="112.43693">
<time>2016-10-06T11:07:17Z</time></trkpt>
<trkpt lat="23.533857" lon="112.43693">
<time>2016-10-06T11:07:18Z</time></trkpt>
<trkpt lat="23.533867" lon="112.43693">
<time>2016-10-06T11:07:19Z</time></trkpt>
<trkpt lat="23.533877" lon="112.43693">
<time>2016-10-06T11:07:20Z</time></trkpt>
<trkpt lat="23.533887" lon="112.43693">
<time>2016-10-06T11:07:21Z</time></trkpt>
<trkpt lat="23.533897" lon="112.43693">
<time>2016-10-06T11:07:22Z</time></trkpt>
<trkpt lat="23.533907" lon="112.43692">
<time>2016-10-06T11:07:23Z</time></trkpt>
<trkpt lat="23.533917" lon="112.43692">
<time>2016-10-06T11:07:24Z</time></trkpt>
<trkpt lat="23.533927" lon="112.43691">
<time>2016-10-06T11:07:25Z</time></trkpt>
<trkpt lat="23.533947" lon="112.43691">
<time>2016-10-06T11:07:26Z</time></trkpt>
<trkpt lat="23.533967" lon="112.4369">
<time>2016-10-06T11:07:27Z</time></trkpt>
<trkpt lat="23.533977" lon="112.43689">
<time>2016-10-06T11:07:28Z</time></trkpt>
<trkpt lat="23.533987" lon="112.43688">
<time>2016-10-06T11:07:29Z</time></trkpt>
<trkpt lat="23.534007" lon="112.43687">
<time>2016-10-06T11:07:30Z</time></trkpt>
<trkpt lat="23.534027" lon="112.43686">
<time>2016-10-06T11:07:31Z</time></trkpt>
<trkpt lat="23.534037" lon="112.436839">
<time>2016-10-06T11:07:32Z</time></trkpt>
<trkpt lat="23.534057" lon="112.436819">
<time>2016-10-06T11:07:33Z</time></trkpt>
<trkpt lat="23.534067" lon="112.436809">
<time>2016-10-06T11:07:34Z</time></trkpt>
<trkpt lat="23.534077" lon="112.436779">
<time>2016-10-06T11:07:35Z</time></trkpt>
<trkpt lat="23.534097" lon="112.436759">
<time>2016-10-06T11:07:36Z</time></trkpt>
<trkpt lat="23.534107" lon="112.436739">
<time>2016-10-06T11:07:37Z</time></trkpt>
<trkpt lat="23.534117" lon="112.436719">
<time>2016-10-06T11:07:38Z</time></trkpt>
<trkpt lat="23.534147" lon="112.436659">
<time>2016-10-06T11:07:39Z</time></trkpt>
<trkpt lat="23.534166" lon="112.436609">
<time>2016-10-06T11:07:40Z</time></trkpt>
<trkpt lat="23.534186" lon="112.436579">
<time>2016-10-06T11:07:41Z</time></trkpt>
<trkpt lat="23.534216" lon="112.436539">
<time>2016-10-06T11:07:42Z</time></trkpt>
<trkpt lat="23.534226" lon="112.436519">
<time>2016-10-06T11:07:43Z</time></trkpt>
<trkpt lat="23.534246" lon="112.436499">
<time>2016-10-06T11:07:44Z</time></trkpt>
<trkpt lat="23.534266" lon="112.436479">
<time>2016-10-06T11:07:45Z</time></trkpt>
<trkpt lat="23.534276" lon="112.436469">
<time>2016-10-06T11:07:46Z</time></trkpt>
<trkpt lat="23.534286" lon="112.436459">
<time>2016-10-06T11:07:47Z</time></trkpt>
<trkpt lat="23.534306" lon="112.436439">
<time>2016-10-06T11:07:48Z</time></trkpt>
<trkpt lat="23.534326" lon="112.436429">
<time>2016-10-06T11:07:49Z</time></trkpt>
<trkpt lat="23.534336" lon="112.436419">
<time>2016-10-06T11:07:50Z</time></trkpt>
<trkpt lat="23.534366" lon="112.436409">
<time>2016-10-06T11:07:51Z</time></trkpt>
<trkpt lat="23.534376" lon="112.436399">
<time>2016-10-06T11:07:52Z</time></trkpt>
<trkpt lat="23.534396" lon="112.436389">
<time>2016-10-06T11:07:53Z</time></trkpt>
<trkpt lat="23.534416" lon="112.436379">
<time>2016-10-06T11:07:54Z</time></trkpt>
<trkpt lat="23.534426" lon="112.436369">
<time>2016-10-06T11:07:55Z</time></trkpt>
<trkpt lat="23.534446" lon="112.436369">
<time>2016-10-06T11:07:56Z</time></trkpt>
<trkpt lat="23.534466" lon="112.436359">
<time>2016-10-06T11:07:57Z</time></trkpt>
<trkpt lat="23.534486" lon="112.436359">
<time>2016-10-06T11:07:58Z</time></trkpt>
<trkpt lat="23.534506" lon="112.436349">
<time>2016-10-06T11:07:59Z</time></trkpt>
<trkpt lat="23.534526" lon="112.436349">
<time>2016-10-06T11:08:00Z</time></trkpt>
<trkpt lat="23.534546" lon="112.436339">
<time>2016-10-06T11:08:01Z</time></trkpt>
<trkpt lat="23.534566" lon="112.436339">
<time>2016-10-06T11:08:02Z</time></trkpt>
<trkpt lat="23.534596" lon="112.436339">
<time>2016-10-06T11:08:03Z</time></trkpt>
<trkpt lat="23.534616" lon="112.436339">
<time>2016-10-06T11:08:04Z</time></trkpt>
<trkpt lat="23.534636" lon="112.436339">
<time>2016-10-06T11:08:05Z</time></trkpt>
<trkpt lat="23.534666" lon="112.436339">
<time>2016-10-06T11:08:06Z</time></trkpt>
<trkpt lat="23.534696" lon="112.436339">
<time>2016-10-06T11:08:07Z</time></trkpt>
<trkpt lat="23.534716" lon="112.436349">
<time>2016-10-06T11:08:08Z</time></trkpt>
<trkpt lat="23.534726" lon="112.436349">
<time>2016-10-06T11:08:09Z</time></trkpt>
<trkpt lat="23.534746" lon="112.436359">
<time>2016-10-06T11:08:10Z</time></trkpt>
<trkpt lat="23.534766" lon="112.436359">
<time>2016-10-06T11:08:11Z</time></trkpt>
<trkpt lat="23.534776" lon="112.436369">
<time>2016-10-06T11:08:12Z</time></trkpt>
<trkpt lat="23.534796" lon="112.436379">
<time>2016-10-06T11:08:13Z</time></trkpt>
<trkpt lat="23.534806" lon="112.436389">
<time>2016-10-06T11:08:14Z</time></trkpt>
<trkpt lat="23.534816" lon="112.436399">
<time>2016-10-06T11:08:15Z</time></trkpt>
<trkpt lat="23.534836" lon="112.436419">
<time>2016-10-06T11:08:16Z</time></trkpt>
<trkpt lat="23.534846" lon="112.436429">
<time>2016-10-06T11:08:17Z</time></trkpt>
<trkpt lat="23.534856" lon="112.436449">
<time>2016-10-06T11:08:18Z</time></trkpt>
<trkpt lat="23.534876" lon="112.436489">
<time>2016-10-06T11:08:19Z</time></trkpt>
<trkpt lat="23.534896" lon="112.436539">
<time>2016-10-06T11:08:20Z</time></trkpt>
<trkpt lat="23.534926" lon="112.436589">
<time>2016-10-06T11:08:21Z</time></trkpt>
<trkpt lat="23.534956" lon="112.436639">
<time>2016-10-06T11:08:22Z</time></trkpt>
<trkpt lat="23.534997" lon="112.436689">
<time>2016-10-06T11:08:23Z</time></trkpt>
<trkpt lat="23.535037" lon="112.436739">
<time>2016-10-06T11:08:24Z</time></trkpt>
<trkpt lat="23.535087" lon="112.436789">
<time>2016-10-06T11:08:25Z</time></trkpt>
<trkpt lat="23.535267" lon="112.43696">
<time>2016-10-06T11:08:26Z</time></trkpt>
<trkpt lat="23.535307" lon="112.43699">
<time>2016-10-06T11:08:27Z</time></trkpt>
<trkpt lat="23.535347" lon="112.43703">
<time>2016-10-06T11:08:28Z</time></trkpt>
<trkpt lat="23.535387" lon="112.43706">
<time>2016-10-06T11:08:29Z</time></trkpt>
<trkpt lat="23.535417" lon="112.43708">
<time>2016-10-06T11:08:30Z</time></trkpt>
<trkpt lat="23.535447" lon="112.4371">
<time>2016-10-06T11:08:31Z</time></trkpt>
<trkpt lat="23.535467" lon="112.43712">
<time>2016-10-06T11:08:32Z</time></trkpt>
<trkpt lat="23.535497" lon="112.43713">
<time>2016-10-06T11:08:33Z</time></trkpt>
<trkpt lat="23.535507" lon="112.43714">
<time>2016-10-06T11:08:34Z</time></trkpt>
<trkpt lat="23.535517" lon="112.43714">
<time>2016-10-06T11:08:35Z</time></trkpt>
<trkpt lat="23.535527" lon="112.43715">
<time>2016-10-06T11:08:36Z</time></trkpt>
<trkpt lat="23.535537" lon="112.43715">
<time>2016-10-06T11:08:37Z</time></trkpt>
<trkpt lat="23.535547" lon="112.43716">
<time>2016-10-06T11:08:38Z</time></trkpt>
<trkpt lat="23.535557" lon="112.43716">
<time>2016-10-06T11:08:39Z</time></trkpt>
<trkpt lat="23.535587" lon="112.43717">
<time>2016-10-06T11:08:40Z</time></trkpt>
<trkpt lat="23.535617" lon="112.43717">
<time>2016-10-06T11:08:41Z</time></trkpt>
<trkpt lat="23.535647" lon="112.43718">
<time>2016-10-06T11:08:42Z</time></trkpt>
<trkpt lat="23.535677" lon="112.43718">
<time>2016-10-06T11:08:43Z</time></trkpt>
<trkpt lat="23.535707" lon="112.43718">
<time>2016-10-06T11:08:44Z</time></trkpt>
<trkpt lat="23.535727" lon="112.43718">
<time>2016-10-06T11:08:45Z</time></trkpt>
<trkpt lat="23.535757" lon="112.43718">
<time>2016-10-06T11:08:46Z</time></trkpt>
<trkpt lat="23.535787" lon="112.43717">
<time>2016-10-06T11:08:47Z</time></trkpt>
<trkpt lat="23.535847" lon="112.43716">
<time>2016-10-06T11:08:48Z</time></trkpt>
<trkpt lat="23.535897" lon="112.43715">
<time>2016-10-06T11:08:49Z</time></trkpt>
<trkpt lat="23.535957" lon="112.43713">
<time>2016-10-06T11:08:50Z</time></trkpt>
<trkpt lat="23.536037" lon="112.4371">
<time>2016-10-06T11:08:51Z</time></trkpt>
<trkpt lat="23.536107" lon="112.43707">
<time>2016-10-06T11:08:52Z</time></trkpt>
<trkpt lat="23.536147" lon="112.43705">
<time>2016-10-06T11:08:53Z</time></trkpt>
<trkpt lat="23.536267" lon="112.43699">
<time>2016-10-06T11:08:54Z</time></trkpt>
<trkpt lat="23.536337" lon="112.43696">
<time>2016-10-06T11:08:55Z</time></trkpt>
<trkpt lat="23.536407" lon="112.43694">
<time>2016-10-06T11:08:56Z</time></trkpt>
<trkpt lat="23.536457" lon="112.436919">
<time>2016-10-06T11:08:57Z</time></trkpt>
<trkpt lat="23.536507" lon="112.436909">
<time>2016-10-06T11:08:58Z</time></trkpt>
<trkpt lat="23.536637" lon="112.436879">
<time>2016-10-06T11:08:59Z</time></trkpt>
<trkpt lat="23.536737" lon="112.436869">
<time>2016-10-06T11:09:00Z</time></trkpt>
<trkpt lat="23.536817" lon="112.436859">
<time>2016-10-06T11:09:01Z</time></trkpt>
<trkpt lat="23.536917" lon="112.436859">
<time>2016-10-06T11:09:02Z</time></trkpt>
<trkpt lat="23.537007" lon="112.436869">
<time>2016-10-06T11:09:03Z</time></trkpt>
<trkpt lat="23.537047" lon="112.436879">
<time>2016-10-06T11:09:04Z</time></trkpt>
<trkpt lat="23.537177" lon="112.436899">
<time>2016-10-06T11:09:05Z</time></trkpt>
<trkpt lat="23.537377" lon="112.436919">
<time>2016-10-06T11:09:06Z</time></trkpt>
<trkpt lat="23.537457" lon="112.436919">
<time>2016-10-06T11:09:07Z</time></trkpt>
<trkpt lat="23.537537" lon="112.436919">
<time>2016-10-06T11:09:08Z</time></trkpt>
<trkpt lat="23.537627" lon="112.436909">
<time>2016-10-06T11:09:09Z</time></trkpt>
<trkpt lat="23.537707" lon="112.436899">
<time>2016-10-06T11:09:10Z</time></trkpt>
<trkpt lat="23.537857" lon="112.436879">
<time>2016-10-06T11:09:11Z</time></trkpt>
<trkpt lat="23.538097" lon="112.436859">
<time>2016-10-06T11:09:12Z</time></trkpt>
<trkpt lat="23.538337" lon="112.436849">
<time>2016-10-06T11:09:13Z</time></trkpt>
<trkpt lat="23.538477" lon="112.436839">
<time>2016-10-06T11:09:14Z</time></trkpt>
<trkpt lat="23.538617" lon="112.436839">
<time>2016-10-06T11:09:15Z</time></trkpt>
<trkpt lat="23.538767" lon="112.436839">
<time>2016-10-06T11:09:16Z</time></trkpt>
<trkpt lat="23.538957" lon="112.436849">
<time>2016-10-06T11:09:17Z</time></trkpt>
<trkpt lat="23.539107" lon="112.436869">
<time>2016-10-06T11:09:18Z</time></trkpt>
<trkpt lat="23.539237" lon="112.436899">
<time>2016-10-06T11:09:19Z</time></trkpt>
<trkpt lat="23.539467" lon="112.436989">
<time>2016-10-06T11:09:20Z</time></trkpt>
<trkpt lat="23.539657" lon="112.437039">
<time>2016-10-06T11:09:21Z</time></trkpt>
<trkpt lat="23.539847" lon="112.43708">
<time>2016-10-06T11:09:22Z</time></trkpt>
<trkpt lat="23.539867" lon="112.43708">
<time>2016-10-06T11:09:23Z</time></trkpt>
<trkpt lat="23.539887" lon="112.43709">
<time>2016-10-06T11:09:24Z</time></trkpt>
<trkpt lat="23.539897" lon="112.43709">
<time>2016-10-06T11:09:25Z</time></trkpt>
<trkpt lat="23.539907" lon="112.43709">
<time>2016-10-06T11:09:26Z</time></trkpt>
<trkpt lat="23.539917" lon="112.4371">
<time>2016-10-06T11:09:27Z</time></trkpt>
<trkpt lat="23.539927" lon="112.4371">
<time>2016-10-06T11:09:28Z</time></trkpt>
<trkpt lat="23.539937" lon="112.43711">
<time>2016-10-06T11:09:29Z</time></trkpt>
<trkpt lat="23.539947" lon="112.43712">
<time>2016-10-06T11:09:30Z</time></trkpt>
<trkpt lat="23.540027" lon="112.43716">
<time>2016-10-06T11:09:31Z</time></trkpt>
<trkpt lat="23.540078" lon="112.43718">
<time>2016-10-06T11:09:32Z</time></trkpt>
<trkpt lat="23.540118" lon="112.4372">
<time>2016-10-06T11:09:33Z</time></trkpt>
<trkpt lat="23.540148" lon="112.43721">
<time>2016-10-06T11:09:34Z</time></trkpt>
<trkpt lat="23.540178" lon="112.43722">
<time>2016-10-06T11:09:35Z</time></trkpt>
<trkpt lat="23.540198" lon="112.43723">
<time>2016-10-06T11:09:36Z</time></trkpt>
<trkpt lat="23.540218" lon="112.43723">
<time>2016-10-06T11:09:37Z</time></trkpt>
<trkpt lat="23.540248" lon="112.43724">
<time>2016-10-06T11:09:38Z</time></trkpt>
<trkpt lat="23.540278" lon="112.43724">
<time>2016-10-06T11:09:39Z</time></trkpt>
<trkpt lat="23.540348" lon="112.43724">
<time>2016-10-06T11:09:40Z</time></trkpt>
<trkpt lat="23.540408" lon="112.43724">
<time>2016-10-06T11:09:41Z</time></trkpt>
<trkpt lat="23.540468" lon="112.43723">
<time>2016-10-06T11:09:42Z</time></trkpt>
<trkpt lat="23.540918" lon="112.43718">
<time>2016-10-06T11:09:43Z</time></trkpt>
<trkpt lat="23.541087" lon="112.43716">
<time>2016-10-06T11:09:44Z</time></trkpt>
<trkpt lat="23.541267" lon="112.43713">
<time>2016-10-06T11:09:45Z</time></trkpt>
<trkpt lat="23.541417" lon="112.43712">
<time>2016-10-06T11:09:46Z</time></trkpt>
<trkpt lat="23.541567" lon="112.43711">
<time>2016-10-06T11:09:47Z</time></trkpt>
<trkpt lat="23.541667" lon="112.437109">
<time>2016-10-06T11:09:48Z</time></trkpt>
<trkpt lat="23.541747" lon="112.43712">
<time>2016-10-06T11:09:49Z</time></trkpt>
<trkpt lat="23.541777" lon="112.43713">
<time>2016-10-06T11:09:50Z</time></trkpt>
<trkpt lat="23.541807" lon="112.43713">
<time>2016-10-06T11:09:51Z</time></trkpt>
<trkpt lat="23.541837" lon="112.43714">
<time>2016-10-06T11:09:52Z</time></trkpt>
<trkpt lat="23.541867" lon="112.43714">
<time>2016-10-06T11:09:53Z</time></trkpt>
<trkpt lat="23.541887" lon="112.43715">
<time>2016-10-06T11:09:54Z</time></trkpt>
<trkpt lat="23.541917" lon="112.43716">
<time>2016-10-06T11:09:55Z</time></trkpt>
<trkpt lat="23.541978" lon="112.43719">
<time>2016-10-06T11:09:56Z</time></trkpt>
<trkpt lat="23.542128" lon="112.43725">
<time>2016-10-06T11:09:57Z</time></trkpt>
<trkpt lat="23.542468" lon="112.43742">
<time>2016-10-06T11:09:58Z</time></trkpt>
<trkpt lat="23.542928" lon="112.4376">
<time>2016-10-06T11:09:59Z</time></trkpt>
<trkpt lat="23.543078" lon="112.43767">
<time>2016-10-06T11:10:00Z</time></trkpt>
<trkpt lat="23.543158" lon="112.437711">
<time>2016-10-06T11:10:01Z</time></trkpt>
<trkpt lat="23.543219" lon="112.437741">
<time>2016-10-06T11:10:02Z</time></trkpt>
<trkpt lat="23.543269" lon="112.437791">
<time>2016-10-06T11:10:03Z</time></trkpt>
<trkpt lat="23.543329" lon="112.437841">
<time>2016-10-06T11:10:04Z</time></trkpt>
<trkpt lat="23.543379" lon="112.437901">
<time>2016-10-06T11:10:05Z</time></trkpt>
<trkpt lat="23.543509" lon="112.438051">
<time>2016-10-06T11:10:06Z</time></trkpt>
<trkpt lat="23.543619" lon="112.438181">
<time>2016-10-06T11:10:07Z</time></trkpt>
<trkpt lat="23.54396" lon="112.438562">
<time>2016-10-06T11:10:08Z</time></trkpt>
<trkpt lat="23.544241" lon="112.438863">
<time>2016-10-06T11:10:09Z</time></trkpt>
<trkpt lat="23.544471" lon="112.439073">
<time>2016-10-06T11:10:10Z</time></trkpt>
<trkpt lat="23.544661" lon="112.439233">
<time>2016-10-06T11:10:11Z</time></trkpt>
<trkpt lat="23.544842" lon="112.439374">
<time>2016-10-06T11:10:12Z</time></trkpt>
<trkpt lat="23.544882" lon="112.439414">
<time>2016-10-06T11:10:13Z</time></trkpt>
<trkpt lat="23.544942" lon="112.439444">
<time>2016-10-06T11:10:14Z</time></trkpt>
<trkpt lat="23.544992" lon="112.439474">
<time>2016-10-06T11:10:15Z</time></trkpt>
<trkpt lat="23.545022" lon="112.439484">
<time>2016-10-06T11:10:16Z</time></trkpt>
<trkpt lat="23.545062" lon="112.439504">
<time>2016-10-06T11:10:17Z</time></trkpt>
<trkpt lat="23.545112" lon="112.439534">
<time>2016-10-06T11:10:18Z</time></trkpt>
<trkpt lat="23.545162" lon="112.439544">
<time>2016-10-06T11:10:19Z</time></trkpt>
<trkpt lat="23.545222" lon="112.439574">
<time>2016-10-06T11:10:20Z</time></trkpt>
<trkpt lat="23.545272" lon="112.439594">
<time>2016-10-06T11:10:21Z</time></trkpt>
<trkpt lat="23.545322" lon="112.439604">
<time>2016-10-06T11:10:22Z</time></trkpt>
<trkpt lat="23.545382" lon="112.439624">
<time>2016-10-06T11:10:23Z</time></trkpt>
<trkpt lat="23.545522" lon="112.439664">
<time>2016-10-06T11:10:24Z</time></trkpt>
<trkpt lat="23.545632" lon="112.439694">
<time>2016-10-06T11:10:25Z</time></trkpt>
<trkpt lat="23.545782" lon="112.439724">
<time>2016-10-06T11:10:26Z</time></trkpt>
<trkpt lat="23.545942" lon="112.439754">
<time>2016-10-06T11:10:27Z</time></trkpt>
<trkpt lat="23.546112" lon="112.439784">
<time>2016-10-06T11:10:28Z</time></trkpt>
<trkpt lat="23.546302" lon="112.439804">
<time>2016-10-06T11:10:29Z</time></trkpt>
<trkpt lat="23.546572" lon="112.439824">
<time>2016-10-06T11:10:30Z</time></trkpt>
<trkpt lat="23.546642" lon="112.439824">
<time>2016-10-06T11:10:31Z</time></trkpt>
<trkpt lat="23.546712" lon="112.439824">
<time>2016-10-06T11:10:32Z</time></trkpt>
<trkpt lat="23.546752" lon="112.439814">
<time>2016-10-06T11:10:33Z</time></trkpt>
<trkpt lat="23.546802" lon="112.439814">
<time>2016-10-06T11:10:34Z</time></trkpt>
<trkpt lat="23.546832" lon="112.439804">
<time>2016-10-06T11:10:35Z</time></trkpt>
<trkpt lat="23.546862" lon="112.439794">
<time>2016-10-06T11:10:36Z</time></trkpt>
<trkpt lat="23.546892" lon="112.439784">
<time>2016-10-06T11:10:37Z</time></trkpt>
<trkpt lat="23.546932" lon="112.439774">
<time>2016-10-06T11:10:38Z</time></trkpt>
<trkpt lat="23.546992" lon="112.439754">
<time>2016-10-06T11:10:39Z</time></trkpt>
<trkpt lat="23.547062" lon="112.439724">
<time>2016-10-06T11:10:40Z</time></trkpt>
<trkpt lat="23.547142" lon="112.439704">
<time>2016-10-06T11:10:41Z</time></trkpt>
<trkpt lat="23.547242" lon="112.439654">
<time>2016-10-06T11:10:42Z</time></trkpt>
<trkpt lat="23.547462" lon="112.439554">
<time>2016-10-06T11:10:43Z</time></trkpt>
<trkpt lat="23.547622" lon="112.439484">
<time>2016-10-06T11:10:44Z</time></trkpt>
<trkpt lat="23.547762" lon="112.439414">
<time>2016-10-06T11:10:45Z</time></trkpt>
<trkpt lat="23.547862" lon="112.439363">
<time>2016-10-06T11:10:46Z</time></trkpt>
<trkpt lat="23.547981" lon="112.439273">
<time>2016-10-06T11:10:47Z</time></trkpt>
<trkpt lat="23.548081" lon="112.439183">
<time>2016-10-06T11:10:48Z</time></trkpt>
<trkpt lat="23.548181" lon="112.439093">
<time>2016-10-06T11:10:49Z</time></trkpt>
<trkpt lat="23.548371" lon="112.438913">
<time>2016-10-06T11:10:50Z</time></trkpt>
<trkpt lat="23.548521" lon="112.438782">
<time>2016-10-06T11:10:51Z</time></trkpt>
<trkpt lat="23.54878" lon="112.438552">
<time>2016-10-06T11:10:52Z</time></trkpt>
<trkpt lat="23.549399" lon="112.438051">
<time>2016-10-06T11:10:53Z</time></trkpt>
<trkpt lat="23.549619" lon="112.43789">
<time>2016-10-06T11:10:54Z</time></trkpt>
<trkpt lat="23.549819" lon="112.43774">
<time>2016-10-06T11:10:55Z</time></trkpt>
<trkpt lat="23.550128" lon="112.43747">
<time>2016-10-06T11:10:56Z</time></trkpt>
<trkpt lat="23.550398" lon="112.437209">
<time>2016-10-06T11:10:57Z</time></trkpt>
<trkpt lat="23.550468" lon="112.437139">
<time>2016-10-06T11:10:58Z</time></trkpt>
<trkpt lat="23.550528" lon="112.437079">
<time>2016-10-06T11:10:59Z</time></trkpt>
<trkpt lat="23.550607" lon="112.436969">
<time>2016-10-06T11:11:00Z</time></trkpt>
<trkpt lat="23.550687" lon="112.436878">
<time>2016-10-06T11:11:01Z</time></trkpt>
<trkpt lat="23.550797" lon="112.436718">
<time>2016-10-06T11:11:02Z</time></trkpt>
<trkpt lat="23.550897" lon="112.436548">
<time>2016-10-06T11:11:03Z</time></trkpt>
<trkpt lat="23.550957" lon="112.436468">
<time>2016-10-06T11:11:04Z</time></trkpt>
<trkpt lat="23.551016" lon="112.436367">
<time>2016-10-06T11:11:05Z</time></trkpt>
<trkpt lat="23.551116" lon="112.436217">
<time>2016-10-06T11:11:06Z</time></trkpt>
<trkpt lat="23.551176" lon="112.436117">
<time>2016-10-06T11:11:07Z</time></trkpt>
<trkpt lat="23.551236" lon="112.435987">
<time>2016-10-06T11:11:08Z</time></trkpt>
<trkpt lat="23.551345" lon="112.435726">
<time>2016-10-06T11:11:09Z</time></trkpt>
<trkpt lat="23.551455" lon="112.435406">
<time>2016-10-06T11:11:10Z</time></trkpt>
<trkpt lat="23.551534" lon="112.435135">
<time>2016-10-06T11:11:11Z</time></trkpt>
<trkpt lat="23.551703" lon="112.434444">
<time>2016-10-06T11:11:12Z</time></trkpt>
<trkpt lat="23.551802" lon="112.434063">
<time>2016-10-06T11:11:13Z</time></trkpt>
<trkpt lat="23.551842" lon="112.433893">
<time>2016-10-06T11:11:14Z</time></trkpt>
<trkpt lat="23.551882" lon="112.433662">
<time>2016-10-06T11:11:15Z</time></trkpt>
<trkpt lat="23.551931" lon="112.433302">
<time>2016-10-06T11:11:16Z</time></trkpt>
<trkpt lat="23.551961" lon="112.433021">
<time>2016-10-06T11:11:17Z</time></trkpt>
<trkpt lat="23.551961" lon="112.432851">
<time>2016-10-06T11:11:18Z</time></trkpt>
<trkpt lat="23.55196" lon="112.432721">
<time>2016-10-06T11:11:19Z</time></trkpt>
<trkpt lat="23.55196" lon="112.432581">
<time>2016-10-06T11:11:20Z</time></trkpt>
<trkpt lat="23.55194" lon="112.43243">
<time>2016-10-06T11:11:21Z</time></trkpt>
<trkpt lat="23.551899" lon="112.43218">
<time>2016-10-06T11:11:22Z</time></trkpt>
<trkpt lat="23.551849" lon="112.431889">
<time>2016-10-06T11:11:23Z</time></trkpt>
<trkpt lat="23.551809" lon="112.431629">
<time>2016-10-06T11:11:24Z</time></trkpt>
<trkpt lat="23.551768" lon="112.431429">
<time>2016-10-06T11:11:25Z</time></trkpt>
<trkpt lat="23.551728" lon="112.431268">
<time>2016-10-06T11:11:26Z</time></trkpt>
<trkpt lat="23.551708" lon="112.431218">
<time>2016-10-06T11:11:27Z</time></trkpt>
<trkpt lat="23.551698" lon="112.431168">
<time>2016-10-06T11:11:28Z</time></trkpt>
<trkpt lat="23.551678" lon="112.431128">
<time>2016-10-06T11:11:29Z</time></trkpt>
<trkpt lat="23.551658" lon="112.431088">
<time>2016-10-06T11:11:30Z</time></trkpt>
<trkpt lat="23.551638" lon="112.431028">
<time>2016-10-06T11:11:31Z</time></trkpt>
<trkpt lat="23.551608" lon="112.430968">
<time>2016-10-06T11:11:32Z</time></trkpt>
<trkpt lat="23.551557" lon="112.430878">
<time>2016-10-06T11:11:33Z</time></trkpt>
<trkpt lat="23.551517" lon="112.430798">
<time>2016-10-06T11:11:34Z</time></trkpt>
<trkpt lat="23.551497" lon="112.430758">
<time>2016-10-06T11:11:35Z</time></trkpt>
<trkpt lat="23.551467" lon="112.430718">
<time>2016-10-06T11:11:36Z</time></trkpt>
<trkpt lat="23.551447" lon="112.430687">
<time>2016-10-06T11:11:37Z</time></trkpt>
<trkpt lat="23.551417" lon="112.430647">
<time>2016-10-06T11:11:38Z</time></trkpt>
<trkpt lat="23.551397" lon="112.430617">
<time>2016-10-06T11:11:39Z</time></trkpt>
<trkpt lat="23.551377" lon="112.430597">
<time>2016-10-06T11:11:40Z</time></trkpt>
<trkpt lat="23.551337" lon="112.430557">
<time>2016-10-06T11:11:41Z</time></trkpt>
<trkpt lat="23.551317" lon="112.430537">
<time>2016-10-06T11:11:42Z</time></trkpt>
<trkpt lat="23.551177" lon="112.430417">
<time>2016-10-06T11:11:43Z</time></trkpt>
<trkpt lat="23.551007" lon="112.430247">
<time>2016-10-06T11:11:44Z</time></trkpt>
<trkpt lat="23.550896" lon="112.430147">
<time>2016-10-06T11:11:45Z</time></trkpt>
<trkpt lat="23.550766" lon="112.430016">
<time>2016-10-06T11:11:46Z</time></trkpt>
<trkpt lat="23.550746" lon="112.429986">
<time>2016-10-06T11:11:47Z</time></trkpt>
<trkpt lat="23.550736" lon="112.429966">
<time>2016-10-06T11:11:48Z</time></trkpt>
<trkpt lat="23.550716" lon="112.429956">
<time>2016-10-06T11:11:49Z</time></trkpt>
<trkpt lat="23.550716" lon="112.429936">
<time>2016-10-06T11:11:50Z</time></trkpt>
<trkpt lat="23.550706" lon="112.429926">
<time>2016-10-06T11:11:51Z</time></trkpt>
<trkpt lat="23.550696" lon="112.429906">
<time>2016-10-06T11:11:52Z</time></trkpt>
<trkpt lat="23.550686" lon="112.429886">
<time>2016-10-06T11:11:53Z</time></trkpt>
<trkpt lat="23.550666" lon="112.429836">
<time>2016-10-06T11:11:54Z</time></trkpt>
<trkpt lat="23.550646" lon="112.429786">
<time>2016-10-06T11:11:55Z</time></trkpt>
<trkpt lat="23.550576" lon="112.429566">
<time>2016-10-06T11:11:56Z</time></trkpt>
<trkpt lat="23.550465" lon="112.429265">
<time>2016-10-06T11:11:57Z</time></trkpt>
<trkpt lat="23.550455" lon="112.429215">
<time>2016-10-06T11:11:58Z</time></trkpt>
<trkpt lat="23.550435" lon="112.429155">
<time>2016-10-06T11:11:59Z</time></trkpt>
<trkpt lat="23.550425" lon="112.429125">
<time>2016-10-06T11:12:00Z</time></trkpt>
<trkpt lat="23.550415" lon="112.429105">
<time>2016-10-06T11:12:01Z</time></trkpt>
<trkpt lat="23.550405" lon="112.429085">
<time>2016-10-06T11:12:02Z</time></trkpt>
<trkpt lat="23.550395" lon="112.429065">
<time>2016-10-06T11:12:03Z</time></trkpt>
<trkpt lat="23.550375" lon="112.429045">
<time>2016-10-06T11:12:04Z</time></trkpt>
<trkpt lat="23.550365" lon="112.429025">
<time>2016-10-06T11:12:05Z</time></trkpt>
<trkpt lat="23.550345" lon="112.429005">
<time>2016-10-06T11:12:06Z</time></trkpt>
<trkpt lat="23.550325" lon="112.428975">
<time>2016-10-06T11:12:07Z</time></trkpt>
<trkpt lat="23.550285" lon="112.428935">
<time>2016-10-06T11:12:08Z</time></trkpt>
<trkpt lat="23.550184" lon="112.428845">
<time>2016-10-06T11:12:09Z</time></trkpt>
<trkpt lat="23.550134" lon="112.428795">
<time>2016-10-06T11:12:10Z</time></trkpt>
<trkpt lat="23.550094" lon="112.428744">
<time>2016-10-06T11:12:11Z</time></trkpt>
<trkpt lat="23.550074" lon="112.428724">
<time>2016-10-06T11:12:12Z</time></trkpt>
<trkpt lat="23.550054" lon="112.428704">
<time>2016-10-06T11:12:13Z</time></trkpt>
<trkpt lat="23.550034" lon="112.428674">
<time>2016-10-06T11:12:14Z</time></trkpt>
<trkpt lat="23.550024" lon="112.428654">
<time>2016-10-06T11:12:15Z</time></trkpt>
<trkpt lat="23.550004" lon="112.428624">
<time>2016-10-06T11:12:16Z</time></trkpt>
<trkpt lat="23.549994" lon="112.428584">
<time>2016-10-06T11:12:17Z</time></trkpt>
<trkpt lat="23.549974" lon="112.428554">
<time>2016-10-06T11:12:18Z</time></trkpt>
<trkpt lat="23.549964" lon="112.428534">
<time>2016-10-06T11:12:19Z</time></trkpt>
<trkpt lat="23.549954" lon="112.428504">
<time>2016-10-06T11:12:20Z</time></trkpt>
<trkpt lat="23.549944" lon="112.428464">
<time>2016-10-06T11:12:21Z</time></trkpt>
<trkpt lat="23.549934" lon="112.428434">
<time>2016-10-06T11:12:22Z</time></trkpt>
<trkpt lat="23.549934" lon="112.428404">
<time>2016-10-06T11:12:23Z</time></trkpt>
<trkpt lat="23.549904" lon="112.428264">
<time>2016-10-06T11:12:24Z</time></trkpt>
<trkpt lat="23.549894" lon="112.428214">
<time>2016-10-06T11:12:25Z</time></trkpt>
<trkpt lat="23.549884" lon="112.428174">
<time>2016-10-06T11:12:26Z</time></trkpt>
<trkpt lat="23.549873" lon="112.428144">
<time>2016-10-06T11:12:27Z</time></trkpt>
<trkpt lat="23.549863" lon="112.428114">
<time>2016-10-06T11:12:28Z</time></trkpt>
<trkpt lat="23.549863" lon="112.428104">
<time>2016-10-06T11:12:29Z</time></trkpt>
<trkpt lat="23.549863" lon="112.428094">
<time>2016-10-06T11:12:30Z</time></trkpt>
<trkpt lat="23.549853" lon="112.428083">
<time>2016-10-06T11:12:31Z</time></trkpt>
<trkpt lat="23.549853" lon="112.428073">
<time>2016-10-06T11:12:32Z</time></trkpt>
<trkpt lat="23.549843" lon="112.428063">
<time>2016-10-06T11:12:33Z</time></trkpt>
<trkpt lat="23.549843" lon="112.428053">
<time>2016-10-06T11:12:34Z</time></trkpt>
<trkpt lat="23.549833" lon="112.428043">
<time>2016-10-06T11:12:35Z</time></trkpt>
<trkpt lat="23.549823" lon="112.428033">
<time>2016-10-06T11:12:36Z</time></trkpt>
<trkpt lat="23.549823" lon="112.428023">
<time>2016-10-06T11:12:37Z</time></trkpt>
<trkpt lat="23.549813" lon="112.428023">
<time>2016-10-06T11:12:38Z</time></trkpt>
<trkpt lat="23.549813" lon="112.428013">
<time>2016-10-06T11:12:39Z</time></trkpt>
<trkpt lat="23.549793" lon="112.428003">
<time>2016-10-06T11:12:40Z</time></trkpt>
<trkpt lat="23.549783" lon="112.427993">
<time>2016-10-06T11:12:41Z</time></trkpt>
<trkpt lat="23.549773" lon="112.427983">
<time>2016-10-06T11:12:42Z</time></trkpt>
<trkpt lat="23.549673" lon="112.427923">
<time>2016-10-06T11:12:43Z</time></trkpt>
<trkpt lat="23.549583" lon="112.427863">
<time>2016-10-06T11:12:44Z</time></trkpt>
<trkpt lat="23.549563" lon="112.427843">
<time>2016-10-06T11:12:45Z</time></trkpt>
<trkpt lat="23.549543" lon="112.427833">
<time>2016-10-06T11:12:46Z</time></trkpt>
<trkpt lat="23.549533" lon="112.427823">
<time>2016-10-06T11:12:47Z</time></trkpt>
<trkpt lat="23.549523" lon="112.427803">
<time>2016-10-06T11:12:48Z</time></trkpt>
<trkpt lat="23.549513" lon="112.427793">
<time>2016-10-06T11:12:49Z</time></trkpt>
<trkpt lat="23.549503" lon="112.427783">
<time>2016-10-06T11:12:50Z</time></trkpt>
<trkpt lat="23.549493" lon="112.427763">
<time>2016-10-06T11:12:51Z</time></trkpt>
<trkpt lat="23.549483" lon="112.427743">
<time>2016-10-06T11:12:52Z</time></trkpt>
<trkpt lat="23.549473" lon="112.427723">
<time>2016-10-06T11:12:53Z</time></trkpt>
<trkpt lat="23.549463" lon="112.427693">
<time>2016-10-06T11:12:54Z</time></trkpt>
<trkpt lat="23.549453" lon="112.427673">
<time>2016-10-06T11:12:55Z</time></trkpt>
<trkpt lat="23.549443" lon="112.427643">
<time>2016-10-06T11:12:56Z</time></trkpt>
<trkpt lat="23.549443" lon="112.427623">
<time>2016-10-06T11:12:57Z</time></trkpt>
<trkpt lat="23.549433" lon="112.427593">
<time>2016-10-06T11:12:58Z</time></trkpt>
<trkpt lat="23.549433" lon="112.427573">
<time>2016-10-06T11:12:59Z</time></trkpt>
<trkpt lat="23.549433" lon="112.427543">
<time>2016-10-06T11:13:00Z</time></trkpt>
<trkpt lat="23.549423" lon="112.427493">
<time>2016-10-06T11:13:01Z</time></trkpt>
<trkpt lat="23.549422" lon="112.427443">
<time>2016-10-06T11:13:02Z</time></trkpt>
<trkpt lat="23.549422" lon="112.427402">
<time>2016-10-06T11:13:03Z</time></trkpt>
<trkpt lat="23.549422" lon="112.427382">
<time>2016-10-06T11:13:04Z</time></trkpt>
<trkpt lat="23.549422" lon="112.427362">
<time>2016-10-06T11:13:05Z</time></trkpt>
<trkpt lat="23.549432" lon="112.427292">
<time>2016-10-06T11:13:06Z</time></trkpt>
<trkpt lat="23.549432" lon="112.427272">
<time>2016-10-06T11:13:07Z</time></trkpt>
<trkpt lat="23.549432" lon="112.427252">
<time>2016-10-06T11:13:08Z</time></trkpt>
<trkpt lat="23.549432" lon="112.427232">
<time>2016-10-06T11:13:09Z</time></trkpt>
<trkpt lat="23.549432" lon="112.427212">
<time>2016-10-06T11:13:10Z</time></trkpt>
<trkpt lat="23.549422" lon="112.427172">
<time>2016-10-06T11:13:11Z</time></trkpt>
<trkpt lat="23.549412" lon="112.427142">
<time>2016-10-06T11:13:12Z</time></trkpt>
<trkpt lat="23.549402" lon="112.427122">
<time>2016-10-06T11:13:13Z</time></trkpt>
<trkpt lat="23.549402" lon="112.427112">
<time>2016-10-06T11:13:14Z</time></trkpt>
<trkpt lat="23.549392" lon="112.427102">
<time>2016-10-06T11:13:15Z</time></trkpt>
<trkpt lat="23.549392" lon="112.427082">
<time>2016-10-06T11:13:16Z</time></trkpt>
<trkpt lat="23.549382" lon="112.427062">
<time>2016-10-06T11:13:17Z</time></trkpt>
<trkpt lat="23.549372" lon="112.427042">
<time>2016-10-06T11:13:18Z</time></trkpt>
<trkpt lat="23.549362" lon="112.427032">
<time>2016-10-06T11:13:19Z</time></trkpt>
<trkpt lat="23.549352" lon="112.427012">
<time>2016-10-06T11:13:20Z</time></trkpt>
<trkpt lat="23.549332" lon="112.426992">
<time>2016-10-06T11:13:21Z</time></trkpt>
<trkpt lat="23.549322" lon="112.426972">
<time>2016-10-06T11:13:22Z</time></trkpt>
<trkpt lat="23.549292" lon="112.426942">
<time>2016-10-06T11:13:23Z</time></trkpt>
<trkpt lat="23.549242" lon="112.426882">
<time>2016-10-06T11:13:24Z</time></trkpt>
<trkpt lat="23.549222" lon="112.426862">
<time>2016-10-06T11:13:25Z</time></trkpt>
<trkpt lat="23.549212" lon="112.426842">
<time>2016-10-06T11:13:26Z</time></trkpt>
<trkpt lat="23.549192" lon="112.426822">
<time>2016-10-06T11:13:27Z</time></trkpt>
<trkpt lat="23.549182" lon="112.426792">
<time>2016-10-06T11:13:28Z</time></trkpt>
<trkpt lat="23.549162" lon="112.426762">
<time>2016-10-06T11:13:29Z</time></trkpt>
<trkpt lat="23.549142" lon="112.426722">
<time>2016-10-06T11:13:30Z</time></trkpt>
<trkpt lat="23.549131" lon="112.426691">
<time>2016-10-06T11:13:31Z</time></trkpt>
<trkpt lat="23.549131" lon="112.426671">
<time>2016-10-06T11:13:32Z</time></trkpt>
<trkpt lat="23.549121" lon="112.426641">
<time>2016-10-06T11:13:33Z</time></trkpt>
<trkpt lat="23.549111" lon="112.426621">
<time>2016-10-06T11:13:34Z</time></trkpt>
<trkpt lat="23.549111" lon="112.426601">
<time>2016-10-06T11:13:35Z</time></trkpt>
<trkpt lat="23.549111" lon="112.426561">
<time>2016-10-06T11:13:36Z</time></trkpt>
<trkpt lat="23.549101" lon="112.426521">
<time>2016-10-06T11:13:37Z</time></trkpt>
<trkpt lat="23.549101" lon="112.426341">
<time>2016-10-06T11:13:38Z</time></trkpt>
<trkpt lat="23.549101" lon="112.426261">
<time>2016-10-06T11:13:39Z</time></trkpt>
<trkpt lat="23.549081" lon="112.426091">
<time>2016-10-06T11:13:40Z</time></trkpt>
<trkpt lat="23.549071" lon="112.42599">
<time>2016-10-06T11:13:41Z</time></trkpt>
<trkpt lat="23.54907" lon="112.42594">
<time>2016-10-06T11:13:42Z</time></trkpt>
<trkpt lat="23.54907" lon="112.4259">
<time>2016-10-06T11:13:43Z</time></trkpt>
<trkpt lat="23.54908" lon="112.42585">
<time>2016-10-06T11:13:44Z</time></trkpt>
<trkpt lat="23.54909" lon="112.42581">
<time>2016-10-06T11:13:45Z</time></trkpt>
<trkpt lat="23.54909" lon="112.42578">
<time>2016-10-06T11:13:46Z</time></trkpt>
<trkpt lat="23.54911" lon="112.42574">
<time>2016-10-06T11:13:47Z</time></trkpt>
<trkpt lat="23.54912" lon="112.4257">
<time>2016-10-06T11:13:48Z</time></trkpt>
<trkpt lat="23.54915" lon="112.42563">
<time>2016-10-06T11:13:49Z</time></trkpt>
<trkpt lat="23.54919" lon="112.42555">
<time>2016-10-06T11:13:50Z</time></trkpt>
<trkpt lat="23.54923" lon="112.42548">
<time>2016-10-06T11:13:51Z</time></trkpt>
<trkpt lat="23.54926" lon="112.4254">
<time>2016-10-06T11:13:52Z</time></trkpt>
<trkpt lat="23.54928" lon="112.42535">
<time>2016-10-06T11:13:53Z</time></trkpt>
<trkpt lat="23.54931" lon="112.425289">
<time>2016-10-06T11:13:54Z</time></trkpt>
<trkpt lat="23.54933" lon="112.425229">
<time>2016-10-06T11:13:55Z</time></trkpt>
<trkpt lat="23.549349" lon="112.425159">
<time>2016-10-06T11:13:56Z</time></trkpt>
<trkpt lat="23.549439" lon="112.424849">
<time>2016-10-06T11:13:57Z</time></trkpt>
<trkpt lat="23.549449" lon="112.424809">
<time>2016-10-06T11:13:58Z</time></trkpt>
<trkpt lat="23.549449" lon="112.424779">
<time>2016-10-06T11:13:59Z</time></trkpt>
<trkpt lat="23.549459" lon="112.424739">
<time>2016-10-06T11:14:00Z</time></trkpt>
<trkpt lat="23.549459" lon="112.424709">
<time>2016-10-06T11:14:01Z</time></trkpt>
<trkpt lat="23.549459" lon="112.424699">
<time>2016-10-06T11:14:02Z</time></trkpt>
<trkpt lat="23.549459" lon="112.424639">
<time>2016-10-06T11:14:03Z</time></trkpt>
<trkpt lat="23.549459" lon="112.424578">
<time>2016-10-06T11:14:04Z</time></trkpt>
<trkpt lat="23.549449" lon="112.424468">
<time>2016-10-06T11:14:05Z</time></trkpt>
<trkpt lat="23.549449" lon="112.424368">
<time>2016-10-06T11:14:06Z</time></trkpt>
<trkpt lat="23.549448" lon="112.424338">
<time>2016-10-06T11:14:07Z</time></trkpt>
<trkpt lat="23.549448" lon="112.424318">
<time>2016-10-06T11:14:08Z</time></trkpt>
<trkpt lat="23.549458" lon="112.424198">
<time>2016-10-06T11:14:09Z</time></trkpt>
<trkpt lat="23.549468" lon="112.424098">
<time>2016-10-06T11:14:10Z</time></trkpt>
<trkpt lat="23.549468" lon="112.424068">
<time>2016-10-06T11:14:11Z</time></trkpt>
<trkpt lat="23.549468" lon="112.424038">
<time>2016-10-06T11:14:12Z</time></trkpt>
<trkpt lat="23.549468" lon="112.423998">
<time>2016-10-06T11:14:13Z</time></trkpt>
<trkpt lat="23.549468" lon="112.423968">
<time>2016-10-06T11:14:14Z</time></trkpt>
<trkpt lat="23.549468" lon="112.423908">
<time>2016-10-06T11:14:15Z</time></trkpt>
<trkpt lat="23.549458" lon="112.423858">
<time>2016-10-06T11:14:16Z</time></trkpt>
<trkpt lat="23.549448" lon="112.423817">
<time>2016-10-06T11:14:17Z</time></trkpt>
<trkpt lat="23.549438" lon="112.423777">
<time>2016-10-06T11:14:18Z</time></trkpt>
<trkpt lat="23.549428" lon="112.423737">
<time>2016-10-06T11:14:19Z</time></trkpt>
<trkpt lat="23.549408" lon="112.423667">
<time>2016-10-06T11:14:20Z</time></trkpt>
<trkpt lat="23.549378" lon="112.423587">
<time>2016-10-06T11:14:21Z</time></trkpt>
<trkpt lat="23.549327" lon="112.423447">
<time>2016-10-06T11:14:22Z</time></trkpt>
<trkpt lat="23.549267" lon="112.423287">
<time>2016-10-06T11:14:23Z</time></trkpt>
<trkpt lat="23.549257" lon="112.423257">
<time>2016-10-06T11:14:24Z</time></trkpt>
<trkpt lat="23.549257" lon="112.423227">
<time>2016-10-06T11:14:25Z</time></trkpt>
<trkpt lat="23.549247" lon="112.423207">
<time>2016-10-06T11:14:26Z</time></trkpt>
<trkpt lat="23.549247" lon="112.423187">
<time>2016-10-06T11:14:27Z</time></trkpt>
<trkpt lat="23.549247" lon="112.423157">
<time>2016-10-06T11:14:28Z</time></trkpt>
<trkpt lat="23.549247" lon="112.423137">
<time>2016-10-06T11:14:29Z</time></trkpt>
<trkpt lat="23.549247" lon="112.423107">
<time>2016-10-06T11:14:30Z</time></trkpt>
<trkpt lat="23.549247" lon="112.423077">
<time>2016-10-06T11:14:31Z</time></trkpt>
<trkpt lat="23.549257" lon="112.423056">
<time>2016-10-06T11:14:32Z</time></trkpt>
<trkpt lat="23.549257" lon="112.423036">
<time>2016-10-06T11:14:33Z</time></trkpt>
<trkpt lat="23.549267" lon="112.423006">
<time>2016-10-06T11:14:34Z</time></trkpt>
<trkpt lat="23.549267" lon="112.422986">
<time>2016-10-06T11:14:35Z</time></trkpt>
<trkpt lat="23.549277" lon="112.422956">
<time>2016-10-06T11:14:36Z</time></trkpt>
<trkpt lat="23.549287" lon="112.422926">
<time>2016-10-06T11:14:37Z</time></trkpt>
<trkpt lat="23.549307" lon="112.422896">
<time>2016-10-06T11:14:38Z</time></trkpt>
<trkpt lat="23.549327" lon="112.422856">
<time>2016-10-06T11:14:39Z</time></trkpt>
<trkpt lat="23.549347" lon="112.422816">
<time>2016-10-06T11:14:40Z</time></trkpt>
<trkpt lat="23.549377" lon="112.422766">
<time>2016-10-06T11:14:41Z</time></trkpt>
<trkpt lat="23.549407" lon="112.422716">
<time>2016-10-06T11:14:42Z</time></trkpt>
<trkpt lat="23.549566" lon="112.422466">
<time>2016-10-06T11:14:43Z</time></trkpt>
<trkpt lat="23.549676" lon="112.422336">
<time>2016-10-06T11:14:44Z</time></trkpt>
<trkpt lat="23.549766" lon="112.422235">
<time>2016-10-06T11:14:45Z</time></trkpt>
<trkpt lat="23.549876" lon="112.422135">
<time>2016-10-06T11:14:46Z</time></trkpt>
<trkpt lat="23.549986" lon="112.422055">
<time>2016-10-06T11:14:47Z</time></trkpt>
<trkpt lat="23.550106" lon="112.421975">
<time>2016-10-06T11:14:48Z</time></trkpt>
<trkpt lat="23.550146" lon="112.421955">
<time>2016-10-06T11:14:49Z</time></trkpt>
<trkpt lat="23.550186" lon="112.421925">
<time>2016-10-06T11:14:50Z</time></trkpt>
<trkpt lat="23.550216" lon="112.421895">
<time>2016-10-06T11:14:51Z</time></trkpt>
<trkpt lat="23.550246" lon="112.421865">
<time>2016-10-06T11:14:52Z</time></trkpt>
<trkpt lat="23.550266" lon="112.421845">
<time>2016-10-06T11:14:53Z</time></trkpt>
<trkpt lat="23.550296" lon="112.421815">
<time>2016-10-06T11:14:54Z</time></trkpt>
<trkpt lat="23.550316" lon="112.421785">
<time>2016-10-06T11:14:55Z</time></trkpt>
<trkpt lat="23.550335" lon="112.421755">
<time>2016-10-06T11:14:56Z</time></trkpt>
<trkpt lat="23.550425" lon="112.421625">
<time>2016-10-06T11:14:57Z</time></trkpt>
<trkpt lat="23.550515" lon="112.421514">
<time>2016-10-06T11:14:58Z</time></trkpt>
<trkpt lat="23.550595" lon="112.421384">
<time>2016-10-06T11:14:59Z</time></trkpt>
<trkpt lat="23.550685" lon="112.421294">
<time>2016-10-06T11:15:00Z</time></trkpt>
<trkpt lat="23.550825" lon="112.421174">
<time>2016-10-06T11:15:01Z</time></trkpt>
<trkpt lat="23.551015" lon="112.421034">
<time>2016-10-06T11:15:02Z</time></trkpt>
<trkpt lat="23.551155" lon="112.420944">
<time>2016-10-06T11:15:03Z</time></trkpt>
<trkpt lat="23.551584" lon="112.420754">
<time>2016-10-06T11:15:04Z</time></trkpt>
<trkpt lat="23.551834" lon="112.420643">
<time>2016-10-06T11:15:05Z</time></trkpt>
<trkpt lat="23.552514" lon="112.420373">
<time>2016-10-06T11:15:06Z</time></trkpt>
<trkpt lat="23.552864" lon="112.420243">
<time>2016-10-06T11:15:07Z</time></trkpt>
<trkpt lat="23.553104" lon="112.420153">
<time>2016-10-06T11:15:08Z</time></trkpt>
<trkpt lat="23.554094" lon="112.419792">
<time>2016-10-06T11:15:09Z</time></trkpt>
<trkpt lat="23.554343" lon="112.419682">
<time>2016-10-06T11:15:10Z</time></trkpt>
<trkpt lat="23.554543" lon="112.419592">
<time>2016-10-06T11:15:11Z</time></trkpt>
<trkpt lat="23.554713" lon="112.419502">
<time>2016-10-06T11:15:12Z</time></trkpt>
<trkpt lat="23.554893" lon="112.419412">
<time>2016-10-06T11:15:13Z</time></trkpt>
<trkpt lat="23.555023" lon="112.419332">
<time>2016-10-06T11:15:14Z</time></trkpt>
<trkpt lat="23.555483" lon="112.418971">
<time>2016-10-06T11:15:15Z</time></trkpt>
<trkpt lat="23.556042" lon="112.418561">
<time>2016-10-06T11:15:16Z</time></trkpt>
<trkpt lat="23.556472" lon="112.41826">
<time>2016-10-06T11:15:17Z</time></trkpt>
<trkpt lat="23.556892" lon="112.41803">
<time>2016-10-06T11:15:18Z</time></trkpt>
<trkpt lat="23.556942" lon="112.418">
<time>2016-10-06T11:15:19Z</time></trkpt>
<trkpt lat="23.556982" lon="112.41797">
<time>2016-10-06T11:15:20Z</time></trkpt>
<trkpt lat="23.557022" lon="112.41793">
<time>2016-10-06T11:15:21Z</time></trkpt>
<trkpt lat="23.557062" lon="112.41789">
<time>2016-10-06T11:15:22Z</time></trkpt>
<trkpt lat="23.557092" lon="112.41785">
<time>2016-10-06T11:15:23Z</time></trkpt>
<trkpt lat="23.557132" lon="112.41779">
<time>2016-10-06T11:15:24Z</time></trkpt>
<trkpt lat="23.557172" lon="112.41774">
<time>2016-10-06T11:15:25Z</time></trkpt>
<trkpt lat="23.557202" lon="112.41769">
<time>2016-10-06T11:15:26Z</time></trkpt>
<trkpt lat="23.557232" lon="112.41764">
<time>2016-10-06T11:15:27Z</time></trkpt>
<trkpt lat="23.557531" lon="112.417119">
<time>2016-10-06T11:15:28Z</time></trkpt>
<trkpt lat="23.557611" lon="112.416939">
<time>2016-10-06T11:15:29Z</time></trkpt>
<trkpt lat="23.557681" lon="112.416759">
<time>2016-10-06T11:15:30Z</time></trkpt>
<trkpt lat="23.557731" lon="112.416619">
<time>2016-10-06T11:15:31Z</time></trkpt>
<trkpt lat="23.55778" lon="112.416489">
<time>2016-10-06T11:15:32Z</time></trkpt>
<trkpt lat="23.55778" lon="112.416458">
<time>2016-10-06T11:15:33Z</time></trkpt>
<trkpt lat="23.55779" lon="112.416438">
<time>2016-10-06T11:15:34Z</time></trkpt>
<trkpt lat="23.5578" lon="112.416418">
<time>2016-10-06T11:15:35Z</time></trkpt>
<trkpt lat="23.55781" lon="112.416408">
<time>2016-10-06T11:15:36Z</time></trkpt>
<trkpt lat="23.55782" lon="112.416388">
<time>2016-10-06T11:15:37Z</time></trkpt>
<trkpt lat="23.55783" lon="112.416368">
<time>2016-10-06T11:15:38Z</time></trkpt>
<trkpt lat="23.55784" lon="112.416348">
<time>2016-10-06T11:15:39Z</time></trkpt>
<trkpt lat="23.55785" lon="112.416338">
<time>2016-10-06T11:15:40Z</time></trkpt>
<trkpt lat="23.55787" lon="112.416308">
<time>2016-10-06T11:15:41Z</time></trkpt>
<trkpt lat="23.5579" lon="112.416288">
<time>2016-10-06T11:15:42Z</time></trkpt>
<trkpt lat="23.55792" lon="112.416258">
<time>2016-10-06T11:15:43Z</time></trkpt>
<trkpt lat="23.55795" lon="112.416238">
<time>2016-10-06T11:15:44Z</time></trkpt>
<trkpt lat="23.55797" lon="112.416218">
<time>2016-10-06T11:15:45Z</time></trkpt>
<trkpt lat="23.558" lon="112.416198">
<time>2016-10-06T11:15:46Z</time></trkpt>
<trkpt lat="23.55803" lon="112.416168">
<time>2016-10-06T11:15:47Z</time></trkpt>
<trkpt lat="23.55807" lon="112.416158">
<time>2016-10-06T11:15:48Z</time></trkpt>
<trkpt lat="23.55813" lon="112.416128">
<time>2016-10-06T11:15:49Z</time></trkpt>
<trkpt lat="23.55827" lon="112.416048">
<time>2016-10-06T11:15:50Z</time></trkpt>
<trkpt lat="23.55843" lon="112.415978">
<time>2016-10-06T11:15:51Z</time></trkpt>
<trkpt lat="23.55858" lon="112.415918">
<time>2016-10-06T11:15:52Z</time></trkpt>
<trkpt lat="23.55885" lon="112.415828">
<time>2016-10-06T11:15:53Z</time></trkpt>
<trkpt lat="23.55897" lon="112.415778">
<time>2016-10-06T11:15:54Z</time></trkpt>
<trkpt lat="23.55904" lon="112.415738">
<time>2016-10-06T11:15:55Z</time></trkpt>
<trkpt lat="23.5591" lon="112.415708">
<time>2016-10-06T11:15:56Z</time></trkpt>
<trkpt lat="23.55916" lon="112.415668">
<time>2016-10-06T11:15:57Z</time></trkpt>
<trkpt lat="23.55921" lon="112.415628">
<time>2016-10-06T11:15:58Z</time></trkpt>
<trkpt lat="23.55926" lon="112.415598">
<time>2016-10-06T11:15:59Z</time></trkpt>
<trkpt lat="23.55941" lon="112.415487">
<time>2016-10-06T11:16:00Z</time></trkpt>
<trkpt lat="23.55952" lon="112.415417">
<time>2016-10-06T11:16:01Z</time></trkpt>
<trkpt lat="23.55963" lon="112.415377">
<time>2016-10-06T11:16:02Z</time></trkpt>
<trkpt lat="23.55979" lon="112.415307">
<time>2016-10-06T11:16:03Z</time></trkpt>
<trkpt lat="23.560209" lon="112.415167">
<time>2016-10-06T11:16:04Z</time></trkpt>
<trkpt lat="23.560489" lon="112.415077">
<time>2016-10-06T11:16:05Z</time></trkpt>
<trkpt lat="23.561379" lon="112.414787">
<time>2016-10-06T11:16:06Z</time></trkpt>
<trkpt lat="23.561519" lon="112.414737">
<time>2016-10-06T11:16:07Z</time></trkpt>
<trkpt lat="23.561649" lon="112.414667">
<time>2016-10-06T11:16:08Z</time></trkpt>
<trkpt lat="23.561779" lon="112.414586">
<time>2016-10-06T11:16:09Z</time></trkpt>
<trkpt lat="23.561909" lon="112.414496">
<time>2016-10-06T11:16:10Z</time></trkpt>
<trkpt lat="23.562079" lon="112.414366">
<time>2016-10-06T11:16:11Z</time></trkpt>
<trkpt lat="23.562239" lon="112.414226">
<time>2016-10-06T11:16:12Z</time></trkpt>
<trkpt lat="23.562339" lon="112.414126">
<time>2016-10-06T11:16:13Z</time></trkpt>
<trkpt lat="23.562389" lon="112.414056">
<time>2016-10-06T11:16:14Z</time></trkpt>
<trkpt lat="23.562389" lon="112.414056">
<time>2016-10-06T11:16:15Z</time></trkpt>
<trkpt lat="23.563088" lon="112.413275">
<time>2016-10-06T11:16:16Z</time></trkpt>
<trkpt lat="23.563748" lon="112.412685">
<time>2016-10-06T11:16:17Z</time></trkpt>
<trkpt lat="23.563838" lon="112.412605">
<time>2016-10-06T11:16:18Z</time></trkpt>
<trkpt lat="23.563938" lon="112.412525">
<time>2016-10-06T11:16:19Z</time></trkpt>
<trkpt lat="23.564117" lon="112.412224">
<time>2016-10-06T11:16:20Z</time></trkpt>
<trkpt lat="23.564317" lon="112.412024">
<time>2016-10-06T11:16:21Z</time></trkpt>
<trkpt lat="23.564477" lon="112.411864">
<time>2016-10-06T11:16:22Z</time></trkpt>
<trkpt lat="23.564617" lon="112.411734">
<time>2016-10-06T11:16:23Z</time></trkpt>
<trkpt lat="23.564737" lon="112.411634">
<time>2016-10-06T11:16:24Z</time></trkpt>
<trkpt lat="23.564817" lon="112.411574">
<time>2016-10-06T11:16:25Z</time></trkpt>
<trkpt lat="23.564907" lon="112.411514">
<time>2016-10-06T11:16:26Z</time></trkpt>
<trkpt lat="23.564977" lon="112.411474">
<time>2016-10-06T11:16:27Z</time></trkpt>
<trkpt lat="23.565057" lon="112.411434">
<time>2016-10-06T11:16:28Z</time></trkpt>
<trkpt lat="23.565317" lon="112.411324">
<time>2016-10-06T11:16:29Z</time></trkpt>
<trkpt lat="23.565787" lon="112.411083">
<time>2016-10-06T11:16:30Z</time></trkpt>
<trkpt lat="23.566417" lon="112.410783">
<time>2016-10-06T11:16:31Z</time></trkpt>
<trkpt lat="23.566677" lon="112.410653">
<time>2016-10-06T11:16:32Z</time></trkpt>
<trkpt lat="23.566846" lon="112.410543">
<time>2016-10-06T11:16:33Z</time></trkpt>
<trkpt lat="23.567046" lon="112.410403">
<time>2016-10-06T11:16:34Z</time></trkpt>
<trkpt lat="23.567186" lon="112.410293">
<time>2016-10-06T11:16:35Z</time></trkpt>
<trkpt lat="23.567346" lon="112.410153">
<time>2016-10-06T11:16:36Z</time></trkpt>
<trkpt lat="23.567616" lon="112.409872">
<time>2016-10-06T11:16:37Z</time></trkpt>
<trkpt lat="23.568106" lon="112.409382">
<time>2016-10-06T11:16:38Z</time></trkpt>
<trkpt lat="23.568376" lon="112.409102">
<time>2016-10-06T11:16:39Z</time></trkpt>
<trkpt lat="23.568446" lon="112.409022">
<time>2016-10-06T11:16:40Z</time></trkpt>
<trkpt lat="23.568696" lon="112.408792">
<time>2016-10-06T11:16:41Z</time></trkpt>
<trkpt lat="23.568746" lon="112.408742">
<time>2016-10-06T11:16:42Z</time></trkpt>
<trkpt lat="23.568795" lon="112.408692">
<time>2016-10-06T11:16:43Z</time></trkpt>
<trkpt lat="23.568825" lon="112.408662">
<time>2016-10-06T11:16:44Z</time></trkpt>
<trkpt lat="23.568855" lon="112.408612">
<time>2016-10-06T11:16:45Z</time></trkpt>
<trkpt lat="23.568905" lon="112.408552">
<time>2016-10-06T11:16:46Z</time></trkpt>
<trkpt lat="23.568945" lon="112.408491">
<time>2016-10-06T11:16:47Z</time></trkpt>
<trkpt lat="23.568985" lon="112.408421">
<time>2016-10-06T11:16:48Z</time></trkpt>
<trkpt lat="23.569025" lon="112.408351">
<time>2016-10-06T11:16:49Z</time></trkpt>
<trkpt lat="23.569055" lon="112.408281">
<time>2016-10-06T11:16:50Z</time></trkpt>
<trkpt lat="23.569075" lon="112.408201">
<time>2016-10-06T11:16:51Z</time></trkpt>
<trkpt lat="23.569105" lon="112.408111">
<time>2016-10-06T11:16:52Z</time></trkpt>
<trkpt lat="23.569135" lon="112.408021">
<time>2016-10-06T11:16:53Z</time></trkpt>
<trkpt lat="23.569175" lon="112.407821">
<time>2016-10-06T11:16:54Z</time></trkpt>
<trkpt lat="23.569245" lon="112.407371">
<time>2016-10-06T11:16:55Z</time></trkpt>
<trkpt lat="23.569374" lon="112.40658">
<time>2016-10-06T11:16:56Z</time></trkpt>
<trkpt lat="23.569464" lon="112.40587">
<time>2016-10-06T11:16:57Z</time></trkpt>
<trkpt lat="23.569524" lon="112.40556">
<time>2016-10-06T11:16:58Z</time></trkpt>
<trkpt lat="23.569564" lon="112.40539">
<time>2016-10-06T11:16:59Z</time></trkpt>
<trkpt lat="23.569604" lon="112.40525">
<time>2016-10-06T11:17:00Z</time></trkpt>
<trkpt lat="23.569654" lon="112.40509">
<time>2016-10-06T11:17:01Z</time></trkpt>
<trkpt lat="23.569784" lon="112.40475">
<time>2016-10-06T11:17:02Z</time></trkpt>
<trkpt lat="23.570084" lon="112.404119">
<time>2016-10-06T11:17:03Z</time></trkpt>
<trkpt lat="23.570753" lon="112.402979">
<time>2016-10-06T11:17:04Z</time></trkpt>
<trkpt lat="23.570883" lon="112.402779">
<time>2016-10-06T11:17:05Z</time></trkpt>
<trkpt lat="23.570923" lon="112.402699">
<time>2016-10-06T11:17:06Z</time></trkpt>
<trkpt lat="23.570953" lon="112.402629">
<time>2016-10-06T11:17:07Z</time></trkpt>
<trkpt lat="23.570983" lon="112.402559">
<time>2016-10-06T11:17:08Z</time></trkpt>
<trkpt lat="23.571013" lon="112.402479">
<time>2016-10-06T11:17:09Z</time></trkpt>
<trkpt lat="23.571043" lon="112.402369">
<time>2016-10-06T11:17:10Z</time></trkpt>
<trkpt lat="23.571073" lon="112.402279">
<time>2016-10-06T11:17:11Z</time></trkpt>
<trkpt lat="23.571083" lon="112.402189">
<time>2016-10-06T11:17:12Z</time></trkpt>
<trkpt lat="23.571103" lon="112.402099">
<time>2016-10-06T11:17:13Z</time></trkpt>
<trkpt lat="23.571113" lon="112.401989">
<time>2016-10-06T11:17:14Z</time></trkpt>
<trkpt lat="23.571123" lon="112.401878">
<time>2016-10-06T11:17:15Z</time></trkpt>
<trkpt lat="23.571123" lon="112.401538">
<time>2016-10-06T11:17:16Z</time></trkpt>
<trkpt lat="23.571133" lon="112.401268">
<time>2016-10-06T11:17:17Z</time></trkpt>
<trkpt lat="23.571133" lon="112.401218">
<time>2016-10-06T11:17:18Z</time></trkpt>
<trkpt lat="23.571133" lon="112.401158">
<time>2016-10-06T11:17:19Z</time></trkpt>
<trkpt lat="23.571133" lon="112.401088">
<time>2016-10-06T11:17:20Z</time></trkpt>
<trkpt lat="23.571143" lon="112.401048">
<time>2016-10-06T11:17:21Z</time></trkpt>
<trkpt lat="23.571143" lon="112.400998">
<time>2016-10-06T11:17:22Z</time></trkpt>
<trkpt lat="23.571153" lon="112.400918">
<time>2016-10-06T11:17:23Z</time></trkpt>
<trkpt lat="23.571183" lon="112.400808">
<time>2016-10-06T11:17:24Z</time></trkpt>
<trkpt lat="23.571213" lon="112.400718">
<time>2016-10-06T11:17:25Z</time></trkpt>
<trkpt lat="23.571233" lon="112.400628">
<time>2016-10-06T11:17:26Z</time></trkpt>
<trkpt lat="23.571273" lon="112.400518">
<time>2016-10-06T11:17:27Z</time></trkpt>
<trkpt lat="23.571323" lon="112.400408">
<time>2016-10-06T11:17:28Z</time></trkpt>
<trkpt lat="23.571363" lon="112.400298">
<time>2016-10-06T11:17:29Z</time></trkpt>
<trkpt lat="23.571443" lon="112.400158">
<time>2016-10-06T11:17:30Z</time></trkpt>
<trkpt lat="23.571603" lon="112.399938">
<time>2016-10-06T11:17:31Z</time></trkpt>
<trkpt lat="23.571833" lon="112.399638">
<time>2016-10-06T11:17:32Z</time></trkpt>
<trkpt lat="23.571943" lon="112.399488">
<time>2016-10-06T11:17:33Z</time></trkpt>
<trkpt lat="23.572013" lon="112.399388">
<time>2016-10-06T11:17:34Z</time></trkpt>
<trkpt lat="23.572063" lon="112.399308">
<time>2016-10-06T11:17:35Z</time></trkpt>
<trkpt lat="23.572113" lon="112.399238">
<time>2016-10-06T11:17:36Z</time></trkpt>
<trkpt lat="23.572153" lon="112.399168">
<time>2016-10-06T11:17:37Z</time></trkpt>
<trkpt lat="23.572183" lon="112.399118">
<time>2016-10-06T11:17:38Z</time></trkpt>
<trkpt lat="23.572203" lon="112.399058">
<time>2016-10-06T11:17:39Z</time></trkpt>
<trkpt lat="23.572243" lon="112.398968">
<time>2016-10-06T11:17:40Z</time></trkpt>
<trkpt lat="23.572263" lon="112.398888">
<time>2016-10-06T11:17:41Z</time></trkpt>
<trkpt lat="23.572283" lon="112.398818">
<time>2016-10-06T11:17:42Z</time></trkpt>
<trkpt lat="23.572293" lon="112.398758">
<time>2016-10-06T11:17:43Z</time></trkpt>
<trkpt lat="23.572303" lon="112.398678">
<time>2016-10-06T11:17:44Z</time></trkpt>
<trkpt lat="23.572313" lon="112.398518">
<time>2016-10-06T11:17:45Z</time></trkpt>
<trkpt lat="23.572353" lon="112.398248">
<time>2016-10-06T11:17:46Z</time></trkpt>
<trkpt lat="23.572393" lon="112.398008">
<time>2016-10-06T11:17:47Z</time></trkpt>
<trkpt lat="23.572473" lon="112.397728">
<time>2016-10-06T11:17:48Z</time></trkpt>
<trkpt lat="23.572533" lon="112.397598">
<time>2016-10-06T11:17:49Z</time></trkpt>
<trkpt lat="23.572573" lon="112.397518">
<time>2016-10-06T11:17:50Z</time></trkpt>
<trkpt lat="23.572623" lon="112.397458">
<time>2016-10-06T11:17:51Z</time></trkpt>
<trkpt lat="23.572643" lon="112.397418">
<time>2016-10-06T11:17:52Z</time></trkpt>
<trkpt lat="23.572663" lon="112.397398">
<time>2016-10-06T11:17:53Z</time></trkpt>
<trkpt lat="23.572693" lon="112.397368">
<time>2016-10-06T11:17:54Z</time></trkpt>
<trkpt lat="23.572713" lon="112.397338">
<time>2016-10-06T11:17:55Z</time></trkpt>
<trkpt lat="23.572763" lon="112.397308">
<time>2016-10-06T11:17:56Z</time></trkpt>
<trkpt lat="23.572793" lon="112.397288">
<time>2016-10-06T11:17:57Z</time></trkpt>
<trkpt lat="23.572833" lon="112.397268">
<time>2016-10-06T11:17:58Z</time></trkpt>
<trkpt lat="23.572923" lon="112.397228">
<time>2016-10-06T11:17:59Z</time></trkpt>
<trkpt lat="23.573043" lon="112.397178">
<time>2016-10-06T11:18:00Z</time></trkpt>
<trkpt lat="23.573203" lon="112.397118">
<time>2016-10-06T11:18:01Z</time></trkpt>
<trkpt lat="23.573443" lon="112.397058">
<time>2016-10-06T11:18:02Z</time></trkpt>
<trkpt lat="23.573583" lon="112.396998">
<time>2016-10-06T11:18:03Z</time></trkpt>
<trkpt lat="23.573653" lon="112.396958">
<time>2016-10-06T11:18:04Z</time></trkpt>
<trkpt lat="23.573693" lon="112.396938">
<time>2016-10-06T11:18:05Z</time></trkpt>
<trkpt lat="23.573723" lon="112.396908">
<time>2016-10-06T11:18:06Z</time></trkpt>
<trkpt lat="23.573753" lon="112.396888">
<time>2016-10-06T11:18:07Z</time></trkpt>
<trkpt lat="23.573793" lon="112.396858">
<time>2016-10-06T11:18:08Z</time></trkpt>
<trkpt lat="23.573823" lon="112.396818">
<time>2016-10-06T11:18:09Z</time></trkpt>
<trkpt lat="23.573853" lon="112.396788">
<time>2016-10-06T11:18:10Z</time></trkpt>
<trkpt lat="23.573873" lon="112.396768">
<time>2016-10-06T11:18:11Z</time></trkpt>
<trkpt lat="23.573903" lon="112.396738">
<time>2016-10-06T11:18:12Z</time></trkpt>
<trkpt lat="23.573933" lon="112.396697">
<time>2016-10-06T11:18:13Z</time></trkpt>
<trkpt lat="23.573963" lon="112.396667">
<time>2016-10-06T11:18:14Z</time></trkpt>
<trkpt lat="23.573993" lon="112.396637">
<time>2016-10-06T11:18:15Z</time></trkpt>
<trkpt lat="23.574023" lon="112.396607">
<time>2016-10-06T11:18:16Z</time></trkpt>
<trkpt lat="23.574053" lon="112.396587">
<time>2016-10-06T11:18:17Z</time></trkpt>
<trkpt lat="23.574093" lon="112.396567">
<time>2016-10-06T11:18:18Z</time></trkpt>
<trkpt lat="23.574123" lon="112.396547">
<time>2016-10-06T11:18:19Z</time></trkpt>
<trkpt lat="23.574163" lon="112.396537">
<time>2016-10-06T11:18:20Z</time></trkpt>
<trkpt lat="23.574203" lon="112.396527">
<time>2016-10-06T11:18:21Z</time></trkpt>
<trkpt lat="23.574233" lon="112.396517">
<time>2016-10-06T11:18:22Z</time></trkpt>
<trkpt lat="23.574263" lon="112.396507">
<time>2016-10-06T11:18:23Z</time></trkpt>
<trkpt lat="23.574343" lon="112.396487">
<time>2016-10-06T11:18:24Z</time></trkpt>
<trkpt lat="23.574473" lon="112.396467">
<time>2016-10-06T11:18:25Z</time></trkpt>
<trkpt lat="23.574553" lon="112.396467">
<time>2016-10-06T11:18:26Z</time></trkpt>
<trkpt lat="23.574603" lon="112.396467">
<time>2016-10-06T11:18:27Z</time></trkpt>
<trkpt lat="23.574643" lon="112.396457">
<time>2016-10-06T11:18:28Z</time></trkpt>
<trkpt lat="23.574693" lon="112.396447">
<time>2016-10-06T11:18:29Z</time></trkpt>
<trkpt lat="23.574753" lon="112.396427">
<time>2016-10-06T11:18:30Z</time></trkpt>
<trkpt lat="23.574813" lon="112.396397">
<time>2016-10-06T11:18:31Z</time></trkpt>
<trkpt lat="23.575083" lon="112.396247">
<time>2016-10-06T11:18:32Z</time></trkpt>
<trkpt lat="23.575233" lon="112.396147">
<time>2016-10-06T11:18:33Z</time></trkpt>
<trkpt lat="23.575343" lon="112.396067">
<time>2016-10-06T11:18:34Z</time></trkpt>
<trkpt lat="23.575373" lon="112.396047">
<time>2016-10-06T11:18:35Z</time></trkpt>
<trkpt lat="23.575403" lon="112.396017">
<time>2016-10-06T11:18:36Z</time></trkpt>
<trkpt lat="23.575423" lon="112.395997">
<time>2016-10-06T11:18:37Z</time></trkpt>
<trkpt lat="23.575433" lon="112.395977">
<time>2016-10-06T11:18:38Z</time></trkpt>
<trkpt lat="23.575453" lon="112.395957">
<time>2016-10-06T11:18:39Z</time></trkpt>
<trkpt lat="23.575463" lon="112.395937">
<time>2016-10-06T11:18:40Z</time></trkpt>
<trkpt lat="23.575473" lon="112.395917">
<time>2016-10-06T11:18:41Z</time></trkpt>
<trkpt lat="23.575483" lon="112.395907">
<time>2016-10-06T11:18:42Z</time></trkpt>
<trkpt lat="23.575493" lon="112.395887">
<time>2016-10-06T11:18:43Z</time></trkpt>
<trkpt lat="23.575503" lon="112.395877">
<time>2016-10-06T11:18:44Z</time></trkpt>
<trkpt lat="23.575503" lon="112.395867">
<time>2016-10-06T11:18:45Z</time></trkpt>
<trkpt lat="23.575513" lon="112.395857">
<time>2016-10-06T11:18:46Z</time></trkpt>
<trkpt lat="23.575513" lon="112.395847">
<time>2016-10-06T11:18:47Z</time></trkpt>
<trkpt lat="23.575513" lon="112.395837">
<time>2016-10-06T11:18:48Z</time></trkpt>
<trkpt lat="23.575523" lon="112.395827">
<time>2016-10-06T11:18:49Z</time></trkpt>
<trkpt lat="23.575523" lon="112.395817">
<time>2016-10-06T11:18:50Z</time></trkpt>
<trkpt lat="23.575523" lon="112.395787">
<time>2016-10-06T11:18:51Z</time></trkpt>
<trkpt lat="23.575533" lon="112.395767">
<time>2016-10-06T11:18:52Z</time></trkpt>
<trkpt lat="23.575533" lon="112.395747">
<time>2016-10-06T11:18:53Z</time></trkpt>
<trkpt lat="23.575533" lon="112.395737">
<time>2016-10-06T11:18:54Z</time></trkpt>
<trkpt lat="23.575533" lon="112.395727">
<time>2016-10-06T11:18:55Z</time></trkpt>
<trkpt lat="23.575533" lon="112.395717">
<time>2016-10-06T11:18:56Z</time></trkpt>
<trkpt lat="23.575533" lon="112.395707">
<time>2016-10-06T11:18:57Z</time></trkpt>
<trkpt lat="23.575533" lon="112.395687">
<time>2016-10-06T11:18:58Z</time></trkpt>
<trkpt lat="23.575523" lon="112.395667">
<time>2016-10-06T11:18:59Z</time></trkpt>
<trkpt lat="23.575503" lon="112.395547">
<time>2016-10-06T11:19:00Z</time></trkpt>
<trkpt lat="23.575503" lon="112.395527">
<time>2016-10-06T11:19:01Z</time></trkpt>
<trkpt lat="23.575503" lon="112.395497">
<time>2016-10-06T11:19:02Z</time></trkpt>
<trkpt lat="23.575503" lon="112.395467">
<time>2016-10-06T11:19:03Z</time></trkpt>
<trkpt lat="23.575503" lon="112.395427">
<time>2016-10-06T11:19:04Z</time></trkpt>
<trkpt lat="23.575503" lon="112.395397">
<time>2016-10-06T11:19:05Z</time></trkpt>
<trkpt lat="23.575513" lon="112.395337">
<time>2016-10-06T11:19:06Z</time></trkpt>
<trkpt lat="23.575533" lon="112.395277">
<time>2016-10-06T11:19:07Z</time></trkpt>
<trkpt lat="23.575543" lon="112.395217">
<time>2016-10-06T11:19:08Z</time></trkpt>
<trkpt lat="23.575563" lon="112.395167">
<time>2016-10-06T11:19:09Z</time></trkpt>
<trkpt lat="23.575583" lon="112.395127">
<time>2016-10-06T11:19:10Z</time></trkpt>
<trkpt lat="23.575603" lon="112.395097">
<time>2016-10-06T11:19:11Z</time></trkpt>
<trkpt lat="23.575623" lon="112.395067">
<time>2016-10-06T11:19:12Z</time></trkpt>
<trkpt lat="23.575643" lon="112.395037">
<time>2016-10-06T11:19:13Z</time></trkpt>
<trkpt lat="23.575933" lon="112.394667">
<time>2016-10-06T11:19:14Z</time></trkpt>
<trkpt lat="23.575973" lon="112.394627">
<time>2016-10-06T11:19:15Z</time></trkpt>
<trkpt lat="23.575993" lon="112.394607">
<time>2016-10-06T11:19:16Z</time></trkpt>
<trkpt lat="23.576013" lon="112.394587">
<time>2016-10-06T11:19:17Z</time></trkpt>
<trkpt lat="23.576043" lon="112.394567">
<time>2016-10-06T11:19:18Z</time></trkpt>
<trkpt lat="23.576073" lon="112.394547">
<time>2016-10-06T11:19:19Z</time></trkpt>
<trkpt lat="23.576103" lon="112.394527">
<time>2016-10-06T11:19:20Z</time></trkpt>
<trkpt lat="23.576133" lon="112.394507">
<time>2016-10-06T11:19:21Z</time></trkpt>
<trkpt lat="23.576233" lon="112.394467">
<time>2016-10-06T11:19:22Z</time></trkpt>
<trkpt lat="23.576303" lon="112.394437">
<time>2016-10-06T11:19:23Z</time></trkpt>
<trkpt lat="23.576413" lon="112.394397">
<time>2016-10-06T11:19:24Z</time></trkpt>
<trkpt lat="23.576553" lon="112.394207">
<time>2016-10-06T11:19:25Z</time></trkpt>
<trkpt lat="23.576843" lon="112.393887">
<time>2016-10-06T11:19:26Z</time></trkpt>
<trkpt lat="23.577343" lon="112.393347">
<time>2016-10-06T11:19:27Z</time></trkpt>
<trkpt lat="23.577473" lon="112.393187">
<time>2016-10-06T11:19:28Z</time></trkpt>
<trkpt lat="23.577533" lon="112.393117">
<time>2016-10-06T11:19:29Z</time></trkpt>
<trkpt lat="23.577583" lon="112.393037">
<time>2016-10-06T11:19:30Z</time></trkpt>
<trkpt lat="23.577623" lon="112.392957">
<time>2016-10-06T11:19:31Z</time></trkpt>
<trkpt lat="23.577663" lon="112.392887">
<time>2016-10-06T11:19:32Z</time></trkpt>
<trkpt lat="23.577663" lon="112.392877">
<time>2016-10-06T11:19:33Z</time></trkpt>
<trkpt lat="23.577713" lon="112.392787">
<time>2016-10-06T11:19:34Z</time></trkpt>
<trkpt lat="23.577733" lon="112.392737">
<time>2016-10-06T11:19:35Z</time></trkpt>
<trkpt lat="23.577743" lon="112.392697">
<time>2016-10-06T11:19:36Z</time></trkpt>
<trkpt lat="23.577763" lon="112.392657">
<time>2016-10-06T11:19:37Z</time></trkpt>
<trkpt lat="23.577773" lon="112.392618">
<time>2016-10-06T11:19:38Z</time></trkpt>
<trkpt lat="23.577783" lon="112.392568">
<time>2016-10-06T11:19:39Z</time></trkpt>
<trkpt lat="23.577793" lon="112.392528">
<time>2016-10-06T11:19:40Z</time></trkpt>
<trkpt lat="23.577813" lon="112.392408">
<time>2016-10-06T11:19:41Z</time></trkpt>
<trkpt lat="23.577833" lon="112.392268">
<time>2016-10-06T11:19:42Z</time></trkpt>
<trkpt lat="23.577923" lon="112.391868">
<time>2016-10-06T11:19:43Z</time></trkpt>
<trkpt lat="23.578014" lon="112.391508">
<time>2016-10-06T11:19:44Z</time></trkpt>
<trkpt lat="23.578064" lon="112.391328">
<time>2016-10-06T11:19:45Z</time></trkpt>
<trkpt lat="23.578214" lon="112.390888">
<time>2016-10-06T11:19:46Z</time></trkpt>
<trkpt lat="23.578304" lon="112.390678">
<time>2016-10-06T11:19:47Z</time></trkpt>
<trkpt lat="23.578444" lon="112.390368">
<time>2016-10-06T11:19:48Z</time></trkpt>
<trkpt lat="23.578494" lon="112.390248">
<time>2016-10-06T11:19:49Z</time></trkpt>
<trkpt lat="23.578524" lon="112.390168">
<time>2016-10-06T11:19:50Z</time></trkpt>
<trkpt lat="23.578554" lon="112.390078">
<time>2016-10-06T11:19:51Z</time></trkpt>
<trkpt lat="23.578574" lon="112.390038">
<time>2016-10-06T11:19:52Z</time></trkpt>
<trkpt lat="23.578594" lon="112.389988">
<time>2016-10-06T11:19:53Z</time></trkpt>
<trkpt lat="23.578624" lon="112.389948">
<time>2016-10-06T11:19:54Z</time></trkpt>
<trkpt lat="23.578654" lon="112.389898">
<time>2016-10-06T11:19:55Z</time></trkpt>
<trkpt lat="23.578694" lon="112.389858">
<time>2016-10-06T11:19:56Z</time></trkpt>
<trkpt lat="23.578744" lon="112.389818">
<time>2016-10-06T11:19:57Z</time></trkpt>
<trkpt lat="23.578764" lon="112.389798">
<time>2016-10-06T11:19:58Z</time></trkpt>
<trkpt lat="23.578784" lon="112.389788">
<time>2016-10-06T11:19:59Z</time></trkpt>
<trkpt lat="23.578804" lon="112.389768">
<time>2016-10-06T11:20:00Z</time></trkpt>
<trkpt lat="23.578834" lon="112.389758">
<time>2016-10-06T11:20:01Z</time></trkpt>
<trkpt lat="23.578874" lon="112.389728">
<time>2016-10-06T11:20:02Z</time></trkpt>
<trkpt lat="23.578914" lon="112.389718">
<time>2016-10-06T11:20:03Z</time></trkpt>
<trkpt lat="23.578944" lon="112.389698">
<time>2016-10-06T11:20:04Z</time></trkpt>
<trkpt lat="23.578974" lon="112.389688">
<time>2016-10-06T11:20:05Z</time></trkpt>
<trkpt lat="23.579004" lon="112.389678">
<time>2016-10-06T11:20:06Z</time></trkpt>
<trkpt lat="23.579054" lon="112.389668">
<time>2016-10-06T11:20:07Z</time></trkpt>
<trkpt lat="23.579084" lon="112.389658">
<time>2016-10-06T11:20:08Z</time></trkpt>
<trkpt lat="23.579104" lon="112.389658">
<time>2016-10-06T11:20:09Z</time></trkpt>
<trkpt lat="23.579154" lon="112.389648">
<time>2016-10-06T11:20:10Z</time></trkpt>
<trkpt lat="23.579204" lon="112.389648">
<time>2016-10-06T11:20:11Z</time></trkpt>
<trkpt lat="23.579254" lon="112.389648">
<time>2016-10-06T11:20:12Z</time></trkpt>
<trkpt lat="23.579344" lon="112.389648">
<time>2016-10-06T11:20:13Z</time></trkpt>
<trkpt lat="23.579534" lon="112.389658">
<time>2016-10-06T11:20:14Z</time></trkpt>
<trkpt lat="23.579754" lon="112.389698">
<time>2016-10-06T11:20:15Z</time></trkpt>
<trkpt lat="23.580834" lon="112.389868">
<time>2016-10-06T11:20:16Z</time></trkpt>
<trkpt lat="23.581054" lon="112.389888">
<time>2016-10-06T11:20:17Z</time></trkpt>
<trkpt lat="23.581924" lon="112.389978">
<time>2016-10-06T11:20:18Z</time></trkpt>
<trkpt lat="23.583334" lon="112.390108">
<time>2016-10-06T11:20:19Z</time></trkpt>
<trkpt lat="23.584184" lon="112.390178">
<time>2016-10-06T11:20:20Z</time></trkpt>
<trkpt lat="23.585044" lon="112.390238">
<time>2016-10-06T11:20:21Z</time></trkpt>
<trkpt lat="23.585204" lon="112.390267">
<time>2016-10-06T11:20:22Z</time></trkpt>
<trkpt lat="23.585344" lon="112.390297">
<time>2016-10-06T11:20:23Z</time></trkpt>
<trkpt lat="23.585964" lon="112.390517">
<time>2016-10-06T11:20:24Z</time></trkpt>
<trkpt lat="23.586184" lon="112.390627">
<time>2016-10-06T11:20:25Z</time></trkpt>
<trkpt lat="23.586384" lon="112.390727">
<time>2016-10-06T11:20:26Z</time></trkpt>
<trkpt lat="23.586654" lon="112.390847">
<time>2016-10-06T11:20:27Z</time></trkpt>
<trkpt lat="23.586754" lon="112.390867">
<time>2016-10-06T11:20:28Z</time></trkpt>
<trkpt lat="23.586854" lon="112.390877">
<time>2016-10-06T11:20:29Z</time></trkpt>
<trkpt lat="23.586944" lon="112.390887">
<time>2016-10-06T11:20:30Z</time></trkpt>
<trkpt lat="23.587084" lon="112.390887">
<time>2016-10-06T11:20:31Z</time></trkpt>
<trkpt lat="23.587144" lon="112.390877">
<time>2016-10-06T11:20:32Z</time></trkpt>
<trkpt lat="23.587174" lon="112.390877">
<time>2016-10-06T11:20:33Z</time></trkpt>
<trkpt lat="23.587204" lon="112.390887">
<time>2016-10-06T11:20:34Z</time></trkpt>
<trkpt lat="23.587234" lon="112.390887">
<time>2016-10-06T11:20:35Z</time></trkpt>
<trkpt lat="23.587264" lon="112.390897">
<time>2016-10-06T11:20:36Z</time></trkpt>
<trkpt lat="23.587294" lon="112.390907">
<time>2016-10-06T11:20:37Z</time></trkpt>
<trkpt lat="23.587334" lon="112.390917">
<time>2016-10-06T11:20:38Z</time></trkpt>
<trkpt lat="23.587374" lon="112.390937">
<time>2016-10-06T11:20:39Z</time></trkpt>
<trkpt lat="23.587654" lon="112.391047">
<time>2016-10-06T11:20:40Z</time></trkpt>
<trkpt lat="23.587824" lon="112.391097">
<time>2016-10-06T11:20:41Z</time></trkpt>
<trkpt lat="23.588034" lon="112.391147">
<time>2016-10-06T11:20:42Z</time></trkpt>
<trkpt lat="23.588234" lon="112.391207">
<time>2016-10-06T11:20:43Z</time></trkpt>
<trkpt lat="23.588394" lon="112.391277">
<time>2016-10-06T11:20:44Z</time></trkpt>
<trkpt lat="23.588604" lon="112.391387">
<time>2016-10-06T11:20:45Z</time></trkpt>
<trkpt lat="23.588964" lon="112.391557">
<time>2016-10-06T11:20:46Z</time></trkpt>
<trkpt lat="23.589034" lon="112.391597">
<time>2016-10-06T11:20:47Z</time></trkpt>
<trkpt lat="23.589074" lon="112.391617">
<time>2016-10-06T11:20:48Z</time></trkpt>
<trkpt lat="23.589094" lon="112.391627">
<time>2016-10-06T11:20:49Z</time></trkpt>
<trkpt lat="23.589104" lon="112.391627">
<time>2016-10-06T11:20:50Z</time></trkpt>
<trkpt lat="23.589124" lon="112.391627">
<time>2016-10-06T11:20:51Z</time></trkpt>
<trkpt lat="23.589134" lon="112.391627">
<time>2016-10-06T11:20:52Z</time></trkpt>
<trkpt lat="23.589144" lon="112.391627">
<time>2016-10-06T11:20:53Z</time></trkpt>
<trkpt lat="23.589154" lon="112.391627">
<time>2016-10-06T11:20:54Z</time></trkpt>
<trkpt lat="23.589164" lon="112.391627">
<time>2016-10-06T11:20:55Z</time></trkpt>
<trkpt lat="23.589174" lon="112.391627">
<time>2016-10-06T11:20:56Z</time></trkpt>
<trkpt lat="23.589184" lon="112.391627">
<time>2016-10-06T11:20:57Z</time></trkpt>
<trkpt lat="23.589194" lon="112.391627">
<time>2016-10-06T11:20:58Z</time></trkpt>
<trkpt lat="23.589204" lon="112.391627">
<time>2016-10-06T11:20:59Z</time></trkpt>
<trkpt lat="23.589214" lon="112.391627">
<time>2016-10-06T11:21:00Z</time></trkpt>
<trkpt lat="23.589214" lon="112.391617">
<time>2016-10-06T11:21:01Z</time></trkpt>
<trkpt lat="23.589224" lon="112.391617">
<time>2016-10-06T11:21:02Z</time></trkpt>
<trkpt lat="23.589254" lon="112.391597">
<time>2016-10-06T11:21:03Z</time></trkpt>
<trkpt lat="23.589304" lon="112.391567">
<time>2016-10-06T11:21:04Z</time></trkpt>
<trkpt lat="23.589344" lon="112.391537">
<time>2016-10-06T11:21:05Z</time></trkpt>
<trkpt lat="23.589424" lon="112.391457">
<time>2016-10-06T11:21:06Z</time></trkpt>
<trkpt lat="23.589544" lon="112.391337">
<time>2016-10-06T11:21:07Z</time></trkpt>
<trkpt lat="23.589614" lon="112.391257">
<time>2016-10-06T11:21:08Z</time></trkpt>
<trkpt lat="23.589684" lon="112.391177">
<time>2016-10-06T11:21:09Z</time></trkpt>
<trkpt lat="23.589754" lon="112.391047">
<time>2016-10-06T11:21:10Z</time></trkpt>
<trkpt lat="23.589804" lon="112.390937">
<time>2016-10-06T11:21:11Z</time></trkpt>
<trkpt lat="23.589855" lon="112.390807">
<time>2016-10-06T11:21:12Z</time></trkpt>
<trkpt lat="23.589875" lon="112.390747">
<time>2016-10-06T11:21:13Z</time></trkpt>
<trkpt lat="23.589895" lon="112.390697">
<time>2016-10-06T11:21:14Z</time></trkpt>
<trkpt lat="23.589935" lon="112.390587">
<time>2016-10-06T11:21:15Z</time></trkpt>
<trkpt lat="23.589975" lon="112.390437">
<time>2016-10-06T11:21:16Z</time></trkpt>
<trkpt lat="23.589995" lon="112.390327">
<time>2016-10-06T11:21:17Z</time></trkpt>
<trkpt lat="23.590025" lon="112.390157">
<time>2016-10-06T11:21:18Z</time></trkpt>
<trkpt lat="23.590035" lon="112.390017">
<time>2016-10-06T11:21:19Z</time></trkpt>
<trkpt lat="23.590035" lon="112.389887">
<time>2016-10-06T11:21:20Z</time></trkpt>
<trkpt lat="23.590025" lon="112.389787">
<time>2016-10-06T11:21:21Z</time></trkpt>
<trkpt lat="23.590015" lon="112.389697">
<time>2016-10-06T11:21:22Z</time></trkpt>
<trkpt lat="23.590005" lon="112.389607">
<time>2016-10-06T11:21:23Z</time></trkpt>
<trkpt lat="23.590005" lon="112.389517">
<time>2016-10-06T11:21:24Z</time></trkpt>
<trkpt lat="23.590015" lon="112.389437">
<time>2016-10-06T11:21:25Z</time></trkpt>
<trkpt lat="23.590085" lon="112.389147">
<time>2016-10-06T11:21:26Z</time></trkpt>
<trkpt lat="23.590155" lon="112.388978">
<time>2016-10-06T11:21:27Z</time></trkpt>
<trkpt lat="23.590255" lon="112.388768">
<time>2016-10-06T11:21:28Z</time></trkpt>
<trkpt lat="23.590315" lon="112.388638">
<time>2016-10-06T11:21:29Z</time></trkpt>
<trkpt lat="23.590355" lon="112.388518">
<time>2016-10-06T11:21:30Z</time></trkpt>
<trkpt lat="23.590385" lon="112.388438">
<time>2016-10-06T11:21:31Z</time></trkpt>
<trkpt lat="23.590385" lon="112.388388">
<time>2016-10-06T11:21:32Z</time></trkpt>
<trkpt lat="23.590395" lon="112.388348">
<time>2016-10-06T11:21:33Z</time></trkpt>
<trkpt lat="23.590395" lon="112.388298">
<time>2016-10-06T11:21:34Z</time></trkpt>
<trkpt lat="23.590395" lon="112.388248">
<time>2016-10-06T11:21:35Z</time></trkpt>
<trkpt lat="23.590385" lon="112.388088">
<time>2016-10-06T11:21:36Z</time></trkpt>
<trkpt lat="23.590395" lon="112.387968">
<time>2016-10-06T11:21:37Z</time></trkpt>
<trkpt lat="23.590416" lon="112.387808">
<time>2016-10-06T11:21:38Z</time></trkpt>
<trkpt lat="23.590456" lon="112.387528">
<time>2016-10-06T11:21:39Z</time></trkpt>
<trkpt lat="23.590466" lon="112.387418">
<time>2016-10-06T11:21:40Z</time></trkpt>
<trkpt lat="23.590456" lon="112.387328">
<time>2016-10-06T11:21:41Z</time></trkpt>
<trkpt lat="23.590446" lon="112.387248">
<time>2016-10-06T11:21:42Z</time></trkpt>
<trkpt lat="23.590436" lon="112.387178">
<time>2016-10-06T11:21:43Z</time></trkpt>
<trkpt lat="23.590406" lon="112.387078">
<time>2016-10-06T11:21:44Z</time></trkpt>
<trkpt lat="23.590376" lon="112.386958">
<time>2016-10-06T11:21:45Z</time></trkpt>
<trkpt lat="23.590356" lon="112.386908">
<time>2016-10-06T11:21:46Z</time></trkpt>
<trkpt lat="23.590346" lon="112.386838">
<time>2016-10-06T11:21:47Z</time></trkpt>
<trkpt lat="23.590336" lon="112.386778">
<time>2016-10-06T11:21:48Z</time></trkpt>
<trkpt lat="23.590336" lon="112.386718">
<time>2016-10-06T11:21:49Z</time></trkpt>
<trkpt lat="23.590326" lon="112.386628">
<time>2016-10-06T11:21:50Z</time></trkpt>
<trkpt lat="23.590336" lon="112.386538">
<time>2016-10-06T11:21:51Z</time></trkpt>
<trkpt lat="23.590336" lon="112.386498">
<time>2016-10-06T11:21:52Z</time></trkpt>
<trkpt lat="23.590336" lon="112.386448">
<time>2016-10-06T11:21:53Z</time></trkpt>
<trkpt lat="23.590336" lon="112.386409">
<time>2016-10-06T11:21:54Z</time></trkpt>
<trkpt lat="23.590346" lon="112.386339">
<time>2016-10-06T11:21:55Z</time></trkpt>
<trkpt lat="23.590356" lon="112.386279">
<time>2016-10-06T11:21:56Z</time></trkpt>
<trkpt lat="23.590376" lon="112.386159">
<time>2016-10-06T11:21:57Z</time></trkpt>
<trkpt lat="23.590406" lon="112.385949">
<time>2016-10-06T11:21:58Z</time></trkpt>
<trkpt lat="23.590426" lon="112.385839">
<time>2016-10-06T11:21:59Z</time></trkpt>
<trkpt lat="23.590436" lon="112.385679">
<time>2016-10-06T11:22:00Z</time></trkpt>
<trkpt lat="23.590467" lon="112.385259">
<time>2016-10-06T11:22:01Z</time></trkpt>
<trkpt lat="23.590477" lon="112.385109">
<time>2016-10-06T11:22:02Z</time></trkpt>
<trkpt lat="23.590487" lon="112.385069">
<time>2016-10-06T11:22:03Z</time></trkpt>
<trkpt lat="23.590497" lon="112.385039">
<time>2016-10-06T11:22:04Z</time></trkpt>
<trkpt lat="23.590507" lon="112.385019">
<time>2016-10-06T11:22:05Z</time></trkpt>
<trkpt lat="23.590507" lon="112.384999">
<time>2016-10-06T11:22:06Z</time></trkpt>
<trkpt lat="23.590527" lon="112.384969">
<time>2016-10-06T11:22:07Z</time></trkpt>
<trkpt lat="23.590537" lon="112.384949">
<time>2016-10-06T11:22:08Z</time></trkpt>
<trkpt lat="23.590547" lon="112.384939">
<time>2016-10-06T11:22:09Z</time></trkpt>
<trkpt lat="23.590557" lon="112.384929">
<time>2016-10-06T11:22:10Z</time></trkpt>
<trkpt lat="23.590567" lon="112.384919">
<time>2016-10-06T11:22:11Z</time></trkpt>
<trkpt lat="23.590587" lon="112.384899">
<time>2016-10-06T11:22:12Z</time></trkpt>
<trkpt lat="23.590607" lon="112.384879">
<time>2016-10-06T11:22:13Z</time></trkpt>
<trkpt lat="23.590627" lon="112.384859">
<time>2016-10-06T11:22:14Z</time></trkpt>
<trkpt lat="23.590647" lon="112.384849">
<time>2016-10-06T11:22:15Z</time></trkpt>
<trkpt lat="23.590677" lon="112.384829">
<time>2016-10-06T11:22:16Z</time></trkpt>
<trkpt lat="23.590747" lon="112.384789">
<time>2016-10-06T11:22:17Z</time></trkpt>
<trkpt lat="23.591307" lon="112.384489">
<time>2016-10-06T11:22:18Z</time></trkpt>
<trkpt lat="23.591797" lon="112.384249">
<time>2016-10-06T11:22:19Z</time></trkpt>
<trkpt lat="23.592107" lon="112.38411">
<time>2016-10-06T11:22:20Z</time></trkpt>
<trkpt lat="23.592227" lon="112.38406">
<time>2016-10-06T11:22:21Z</time></trkpt>
<trkpt lat="23.592317" lon="112.38403">
<time>2016-10-06T11:22:22Z</time></trkpt>
<trkpt lat="23.592377" lon="112.38401">
<time>2016-10-06T11:22:23Z</time></trkpt>
<trkpt lat="23.592427" lon="112.384">
<time>2016-10-06T11:22:24Z</time></trkpt>
<trkpt lat="23.592498" lon="112.38399">
<time>2016-10-06T11:22:25Z</time></trkpt>
<trkpt lat="23.592558" lon="112.38399">
<time>2016-10-06T11:22:26Z</time></trkpt>
<trkpt lat="23.592658" lon="112.38399">
<time>2016-10-06T11:22:27Z</time></trkpt>
<trkpt lat="23.592728" lon="112.38399">
<time>2016-10-06T11:22:28Z</time></trkpt>
<trkpt lat="23.592958" lon="112.38401">
<time>2016-10-06T11:22:29Z</time></trkpt>
<trkpt lat="23.593278" lon="112.384069">
<time>2016-10-06T11:22:30Z</time></trkpt>
<trkpt lat="23.593478" lon="112.384109">
<time>2016-10-06T11:22:31Z</time></trkpt>
<trkpt lat="23.593638" lon="112.384129">
<time>2016-10-06T11:22:32Z</time></trkpt>
<trkpt lat="23.593748" lon="112.384139">
<time>2016-10-06T11:22:33Z</time></trkpt>
<trkpt lat="23.593858" lon="112.384129">
<time>2016-10-06T11:22:34Z</time></trkpt>
<trkpt lat="23.593978" lon="112.384119">
<time>2016-10-06T11:22:35Z</time></trkpt>
<trkpt lat="23.594698" lon="112.384059">
<time>2016-10-06T11:22:36Z</time></trkpt>
<trkpt lat="23.594928" lon="112.384049">
<time>2016-10-06T11:22:37Z</time></trkpt>
<trkpt lat="23.595068" lon="112.384059">
<time>2016-10-06T11:22:38Z</time></trkpt>
<trkpt lat="23.595338" lon="112.384099">
<time>2016-10-06T11:22:39Z</time></trkpt>
<trkpt lat="23.595598" lon="112.384129">
<time>2016-10-06T11:22:40Z</time></trkpt>
<trkpt lat="23.596128" lon="112.384129">
<time>2016-10-06T11:22:41Z</time></trkpt>
<trkpt lat="23.596388" lon="112.384139">
<time>2016-10-06T11:22:42Z</time></trkpt>
<trkpt lat="23.596588" lon="112.384179">
<time>2016-10-06T11:22:43Z</time></trkpt>
<trkpt lat="23.596868" lon="112.384239">
<time>2016-10-06T11:22:44Z</time></trkpt>
<trkpt lat="23.597648" lon="112.384429">
<time>2016-10-06T11:22:45Z</time></trkpt>
<trkpt lat="23.597738" lon="112.384449">
<time>2016-10-06T11:22:46Z</time></trkpt>
<trkpt lat="23.597818" lon="112.384459">
<time>2016-10-06T11:22:47Z</time></trkpt>
<trkpt lat="23.597908" lon="112.384469">
<time>2016-10-06T11:22:48Z</time></trkpt>
<trkpt lat="23.597978" lon="112.384469">
<time>2016-10-06T11:22:49Z</time></trkpt>
<trkpt lat="23.598078" lon="112.384459">
<time>2016-10-06T11:22:50Z</time></trkpt>
<trkpt lat="23.598168" lon="112.384449">
<time>2016-10-06T11:22:51Z</time></trkpt>
<trkpt lat="23.598738" lon="112.384339">
<time>2016-10-06T11:22:52Z</time></trkpt>
<trkpt lat="23.599158" lon="112.384269">
<time>2016-10-06T11:22:53Z</time></trkpt>
<trkpt lat="23.599358" lon="112.384239">
<time>2016-10-06T11:22:54Z</time></trkpt>
<trkpt lat="23.599538" lon="112.384219">
<time>2016-10-06T11:22:55Z</time></trkpt>
<trkpt lat="23.599678" lon="112.384219">
<time>2016-10-06T11:22:56Z</time></trkpt>
<trkpt lat="23.599808" lon="112.384229">
<time>2016-10-06T11:22:57Z</time></trkpt>
<trkpt lat="23.599918" lon="112.384249">
<time>2016-10-06T11:22:58Z</time></trkpt>
<trkpt lat="23.600038" lon="112.384279">
<time>2016-10-06T11:22:59Z</time></trkpt>
<trkpt lat="23.600288" lon="112.384359">
<time>2016-10-06T11:23:00Z</time></trkpt>
<trkpt lat="23.600768" lon="112.384529">
<time>2016-10-06T11:23:01Z</time></trkpt>
<trkpt lat="23.601138" lon="112.384649">
<time>2016-10-06T11:23:02Z</time></trkpt>
<trkpt lat="23.601208" lon="112.384669">
<time>2016-10-06T11:23:03Z</time></trkpt>
<trkpt lat="23.601488" lon="112.384739">
<time>2016-10-06T11:23:04Z</time></trkpt>
<trkpt lat="23.601608" lon="112.384779">
<time>2016-10-06T11:23:05Z</time></trkpt>
<trkpt lat="23.601658" lon="112.384789">
<time>2016-10-06T11:23:06Z</time></trkpt>
<trkpt lat="23.601698" lon="112.384789">
<time>2016-10-06T11:23:07Z</time></trkpt>
<trkpt lat="23.601748" lon="112.384798">
<time>2016-10-06T11:23:08Z</time></trkpt>
<trkpt lat="23.601788" lon="112.384798">
<time>2016-10-06T11:23:09Z</time></trkpt>
<trkpt lat="23.601828" lon="112.384798">
<time>2016-10-06T11:23:10Z</time></trkpt>
<trkpt lat="23.601868" lon="112.384798">
<time>2016-10-06T11:23:11Z</time></trkpt>
<trkpt lat="23.601908" lon="112.384798">
<time>2016-10-06T11:23:12Z</time></trkpt>
<trkpt lat="23.602308" lon="112.384758">
<time>2016-10-06T11:23:13Z</time></trkpt>
<trkpt lat="23.602568" lon="112.384738">
<time>2016-10-06T11:23:14Z</time></trkpt>
<trkpt lat="23.602748" lon="112.384738">
<time>2016-10-06T11:23:15Z</time></trkpt>
<trkpt lat="23.602918" lon="112.384738">
<time>2016-10-06T11:23:16Z</time></trkpt>
<trkpt lat="23.603088" lon="112.384718">
<time>2016-10-06T11:23:17Z</time></trkpt>
<trkpt lat="23.603238" lon="112.384698">
<time>2016-10-06T11:23:18Z</time></trkpt>
<trkpt lat="23.603428" lon="112.384668">
<time>2016-10-06T11:23:19Z</time></trkpt>
<trkpt lat="23.603628" lon="112.384628">
<time>2016-10-06T11:23:20Z</time></trkpt>
<trkpt lat="23.604008" lon="112.384528">
<time>2016-10-06T11:23:21Z</time></trkpt>
<trkpt lat="23.604138" lon="112.384488">
<time>2016-10-06T11:23:22Z</time></trkpt>
<trkpt lat="23.604248" lon="112.384439">
<time>2016-10-06T11:23:23Z</time></trkpt>
<trkpt lat="23.604478" lon="112.384299">
<time>2016-10-06T11:23:24Z</time></trkpt>
<trkpt lat="23.604899" lon="112.384019">
<time>2016-10-06T11:23:25Z</time></trkpt>
<trkpt lat="23.605079" lon="112.383899">
<time>2016-10-06T11:23:26Z</time></trkpt>
<trkpt lat="23.605229" lon="112.383789">
<time>2016-10-06T11:23:27Z</time></trkpt>
<trkpt lat="23.605339" lon="112.383699">
<time>2016-10-06T11:23:28Z</time></trkpt>
<trkpt lat="23.605429" lon="112.383619">
<time>2016-10-06T11:23:29Z</time></trkpt>
<trkpt lat="23.605489" lon="112.383539">
<time>2016-10-06T11:23:30Z</time></trkpt>
<trkpt lat="23.605539" lon="112.383469">
<time>2016-10-06T11:23:31Z</time></trkpt>
<trkpt lat="23.605589" lon="112.383389">
<time>2016-10-06T11:23:32Z</time></trkpt>
<trkpt lat="23.605619" lon="112.383339">
<time>2016-10-06T11:23:33Z</time></trkpt>
<trkpt lat="23.605629" lon="112.383299">
<time>2016-10-06T11:23:34Z</time></trkpt>
<trkpt lat="23.605629" lon="112.383259">
<time>2016-10-06T11:23:35Z</time></trkpt>
<trkpt lat="23.605629" lon="112.383219">
<time>2016-10-06T11:23:36Z</time></trkpt>
<trkpt lat="23.605619" lon="112.383129">
<time>2016-10-06T11:23:37Z</time></trkpt>
<trkpt lat="23.605619" lon="112.383129">
<time>2016-10-06T11:23:38Z</time></trkpt>
<trkpt lat="23.606069" lon="112.383359">
<time>2016-10-06T11:23:39Z</time></trkpt>
<trkpt lat="23.607339" lon="112.383959">
<time>2016-10-06T11:23:40Z</time></trkpt>
<trkpt lat="23.608409" lon="112.384428">
<time>2016-10-06T11:23:41Z</time></trkpt>
<trkpt lat="23.609589" lon="112.384968">
<time>2016-10-06T11:23:42Z</time></trkpt>
<trkpt lat="23.610189" lon="112.385188">
<time>2016-10-06T11:23:43Z</time></trkpt>
<trkpt lat="23.610189" lon="112.385188">
<time>2016-10-06T11:23:44Z</time></trkpt>
<trkpt lat="23.610169" lon="112.385148">
<time>2016-10-06T11:23:45Z</time></trkpt>
<trkpt lat="23.610119" lon="112.385028">
<time>2016-10-06T11:23:46Z</time></trkpt>
<trkpt lat="23.610079" lon="112.384888">
<time>2016-10-06T11:23:47Z</time></trkpt>
<trkpt lat="23.610059" lon="112.384768">
<time>2016-10-06T11:23:48Z</time></trkpt>
<trkpt lat="23.610049" lon="112.384558">
<time>2016-10-06T11:23:49Z</time></trkpt>
<trkpt lat="23.610049" lon="112.384348">
<time>2016-10-06T11:23:50Z</time></trkpt>
<trkpt lat="23.610079" lon="112.383958">
<time>2016-10-06T11:23:51Z</time></trkpt>
<trkpt lat="23.610119" lon="112.383529">
<time>2016-10-06T11:23:52Z</time></trkpt>
<trkpt lat="23.61016" lon="112.383229">
<time>2016-10-06T11:23:53Z</time></trkpt>
<trkpt lat="23.61023" lon="112.382879">
<time>2016-10-06T11:23:54Z</time></trkpt>
<trkpt lat="23.61035" lon="112.382379">
<time>2016-10-06T11:23:55Z</time></trkpt>
<trkpt lat="23.61051" lon="112.38177">
<time>2016-10-06T11:23:56Z</time></trkpt>
<trkpt lat="23.610801" lon="112.38075">
<time>2016-10-06T11:23:57Z</time></trkpt>
<trkpt lat="23.610841" lon="112.38068">
<time>2016-10-06T11:23:58Z</time></trkpt>
<trkpt lat="23.610891" lon="112.38051">
<time>2016-10-06T11:23:59Z</time></trkpt>
<trkpt lat="23.611032" lon="112.379891">
<time>2016-10-06T11:24:00Z</time></trkpt>
<trkpt lat="23.611152" lon="112.379251">
<time>2016-10-06T11:24:01Z</time></trkpt>
<trkpt lat="23.611172" lon="112.379101">
<time>2016-10-06T11:24:02Z</time></trkpt>
<trkpt lat="23.611253" lon="112.378602">
<time>2016-10-06T11:24:03Z</time></trkpt>
<trkpt lat="23.611343" lon="112.378002">
<time>2016-10-06T11:24:04Z</time></trkpt>
<trkpt lat="23.611393" lon="112.377772">
<time>2016-10-06T11:24:05Z</time></trkpt>
<trkpt lat="23.611474" lon="112.377483">
<time>2016-10-06T11:24:06Z</time></trkpt>
<trkpt lat="23.611654" lon="112.376973">
<time>2016-10-06T11:24:07Z</time></trkpt>
<trkpt lat="23.612035" lon="112.375954">
<time>2016-10-06T11:24:08Z</time></trkpt>
<trkpt lat="23.612446" lon="112.374995">
<time>2016-10-06T11:24:09Z</time></trkpt>
<trkpt lat="23.612496" lon="112.374855">
<time>2016-10-06T11:24:10Z</time></trkpt>
<trkpt lat="23.612596" lon="112.374685">
<time>2016-10-06T11:24:11Z</time></trkpt>
<trkpt lat="23.612736" lon="112.374525">
<time>2016-10-06T11:24:12Z</time></trkpt>
<trkpt lat="23.612977" lon="112.374275">
<time>2016-10-06T11:24:13Z</time></trkpt>
<trkpt lat="23.613547" lon="112.373686">
<time>2016-10-06T11:24:14Z</time></trkpt>
<trkpt lat="23.613817" lon="112.373386">
<time>2016-10-06T11:24:15Z</time></trkpt>
<trkpt lat="23.614148" lon="112.372957">
<time>2016-10-06T11:24:16Z</time></trkpt>
<trkpt lat="23.614579" lon="112.372267">
<time>2016-10-06T11:24:17Z</time></trkpt>
<trkpt lat="23.614709" lon="112.372107">
<time>2016-10-06T11:24:18Z</time></trkpt>
<trkpt lat="23.614849" lon="112.371938">
<time>2016-10-06T11:24:19Z</time></trkpt>
<trkpt lat="23.615179" lon="112.371618">
<time>2016-10-06T11:24:20Z</time></trkpt>
<trkpt lat="23.61543" lon="112.371378">
<time>2016-10-06T11:24:21Z</time></trkpt>
<trkpt lat="23.61563" lon="112.371128">
<time>2016-10-06T11:24:22Z</time></trkpt>
<trkpt lat="23.61586" lon="112.370769">
<time>2016-10-06T11:24:23Z</time></trkpt>
<trkpt lat="23.616351" lon="112.36988">
<time>2016-10-06T11:24:24Z</time></trkpt>
<trkpt lat="23.616642" lon="112.3694">
<time>2016-10-06T11:24:25Z</time></trkpt>
<trkpt lat="23.617032" lon="112.368871">
<time>2016-10-06T11:24:26Z</time></trkpt>
<trkpt lat="23.617143" lon="112.368711">
<time>2016-10-06T11:24:27Z</time></trkpt>
<trkpt lat="23.617503" lon="112.368191">
<time>2016-10-06T11:24:28Z</time></trkpt>
<trkpt lat="23.617664" lon="112.367992">
<time>2016-10-06T11:24:29Z</time></trkpt>
<trkpt lat="23.617764" lon="112.367882">
<time>2016-10-06T11:24:30Z</time></trkpt>
<trkpt lat="23.618084" lon="112.367562">
<time>2016-10-06T11:24:31Z</time></trkpt>
<trkpt lat="23.618505" lon="112.367173">
<time>2016-10-06T11:24:32Z</time></trkpt>
<trkpt lat="23.618745" lon="112.366903">
<time>2016-10-06T11:24:33Z</time></trkpt>
<trkpt lat="23.618955" lon="112.366653">
<time>2016-10-06T11:24:34Z</time></trkpt>
<trkpt lat="23.619256" lon="112.366184">
<time>2016-10-06T11:24:35Z</time></trkpt>
<trkpt lat="23.619536" lon="112.365694">
<time>2016-10-06T11:24:36Z</time></trkpt>
<trkpt lat="23.620037" lon="112.364945">
<time>2016-10-06T11:24:37Z</time></trkpt>
<trkpt lat="23.620338" lon="112.364516">
<time>2016-10-06T11:24:38Z</time></trkpt>
<trkpt lat="23.620839" lon="112.363867">
<time>2016-10-06T11:24:39Z</time></trkpt>
<trkpt lat="23.621079" lon="112.363507">
<time>2016-10-06T11:24:40Z</time></trkpt>
<trkpt lat="23.62118" lon="112.363327">
<time>2016-10-06T11:24:41Z</time></trkpt>
<trkpt lat="23.62127" lon="112.363118">
<time>2016-10-06T11:24:42Z</time></trkpt>
<trkpt lat="23.62133" lon="112.362978">
<time>2016-10-06T11:24:43Z</time></trkpt>
<trkpt lat="23.62136" lon="112.362878">
<time>2016-10-06T11:24:44Z</time></trkpt>
<trkpt lat="23.62139" lon="112.362748">
<time>2016-10-06T11:24:45Z</time></trkpt>
<trkpt lat="23.62139" lon="112.362748">
<time>2016-10-06T11:24:46Z</time></trkpt>
<trkpt lat="23.62139" lon="112.362708">
<time>2016-10-06T11:24:47Z</time></trkpt>
<trkpt lat="23.621431" lon="112.362558">
<time>2016-10-06T11:24:48Z</time></trkpt>
<trkpt lat="23.621491" lon="112.362349">
<time>2016-10-06T11:24:49Z</time></trkpt>
<trkpt lat="23.621541" lon="112.362209">
<time>2016-10-06T11:24:50Z</time></trkpt>
<trkpt lat="23.621591" lon="112.362099">
<time>2016-10-06T11:24:51Z</time></trkpt>
<trkpt lat="23.621661" lon="112.361969">
<time>2016-10-06T11:24:52Z</time></trkpt>
<trkpt lat="23.621702" lon="112.361899">
<time>2016-10-06T11:24:53Z</time></trkpt>
<trkpt lat="23.621802" lon="112.361759">
<time>2016-10-06T11:24:54Z</time></trkpt>
<trkpt lat="23.621932" lon="112.36161">
<time>2016-10-06T11:24:55Z</time></trkpt>
<trkpt lat="23.622122" lon="112.36143">
<time>2016-10-06T11:24:56Z</time></trkpt>
<trkpt lat="23.622172" lon="112.36139">
<time>2016-10-06T11:24:57Z</time></trkpt>
<trkpt lat="23.622252" lon="112.36133">
<time>2016-10-06T11:24:58Z</time></trkpt>
<trkpt lat="23.622302" lon="112.3613">
<time>2016-10-06T11:24:59Z</time></trkpt>
<trkpt lat="23.622412" lon="112.36125">
<time>2016-10-06T11:25:00Z</time></trkpt>
<trkpt lat="23.622482" lon="112.36123">
<time>2016-10-06T11:25:01Z</time></trkpt>
<trkpt lat="23.622492" lon="112.36123">
<time>2016-10-06T11:25:02Z</time></trkpt>
<trkpt lat="23.622553" lon="112.36122">
<time>2016-10-06T11:25:03Z</time></trkpt>
<trkpt lat="23.622673" lon="112.36119">
<time>2016-10-06T11:25:04Z</time></trkpt>
<trkpt lat="23.622763" lon="112.36118">
<time>2016-10-06T11:25:05Z</time></trkpt>
<trkpt lat="23.622853" lon="112.36116">
<time>2016-10-06T11:25:06Z</time></trkpt>
<trkpt lat="23.622903" lon="112.36115">
<time>2016-10-06T11:25:07Z</time></trkpt>
<trkpt lat="23.622973" lon="112.36112">
<time>2016-10-06T11:25:08Z</time></trkpt>
<trkpt lat="23.623013" lon="112.3611">
<time>2016-10-06T11:25:09Z</time></trkpt>
<trkpt lat="23.623073" lon="112.36107">
<time>2016-10-06T11:25:10Z</time></trkpt>
<trkpt lat="23.623103" lon="112.36104">
<time>2016-10-06T11:25:11Z</time></trkpt>
<trkpt lat="23.623143" lon="112.36101">
<time>2016-10-06T11:25:12Z</time></trkpt>
<trkpt lat="23.623173" lon="112.36098">
<time>2016-10-06T11:25:13Z</time></trkpt>
<trkpt lat="23.623223" lon="112.3609">
<time>2016-10-06T11:25:14Z</time></trkpt>
<trkpt lat="23.623273" lon="112.360831">
<time>2016-10-06T11:25:15Z</time></trkpt>
<trkpt lat="23.623343" lon="112.360691">
<time>2016-10-06T11:25:16Z</time></trkpt>
<trkpt lat="23.623383" lon="112.360591">
<time>2016-10-06T11:25:17Z</time></trkpt>
<trkpt lat="23.623454" lon="112.360411">
<time>2016-10-06T11:25:18Z</time></trkpt>
<trkpt lat="23.623494" lon="112.360281">
<time>2016-10-06T11:25:19Z</time></trkpt>
<trkpt lat="23.623665" lon="112.359692">
<time>2016-10-06T11:25:20Z</time></trkpt>
<trkpt lat="23.623685" lon="112.359652">
<time>2016-10-06T11:25:21Z</time></trkpt>
<trkpt lat="23.623785" lon="112.359163">
<time>2016-10-06T11:25:22Z</time></trkpt>
<trkpt lat="23.623806" lon="112.358933">
<time>2016-10-06T11:25:23Z</time></trkpt>
<trkpt lat="23.623816" lon="112.358783">
<time>2016-10-06T11:25:24Z</time></trkpt>
<trkpt lat="23.623837" lon="112.358444">
<time>2016-10-06T11:25:25Z</time></trkpt>
<trkpt lat="23.623827" lon="112.358234">
<time>2016-10-06T11:25:26Z</time></trkpt>
<trkpt lat="23.623778" lon="112.357366">
<time>2016-10-06T11:25:27Z</time></trkpt>
<trkpt lat="23.623769" lon="112.356547">
<time>2016-10-06T11:25:28Z</time></trkpt>
<trkpt lat="23.6238" lon="112.355978">
<time>2016-10-06T11:25:29Z</time></trkpt>
<trkpt lat="23.623902" lon="112.354889">
<time>2016-10-06T11:25:30Z</time></trkpt>
<trkpt lat="23.624033" lon="112.353921">
<time>2016-10-06T11:25:31Z</time></trkpt>
<trkpt lat="23.624053" lon="112.353831">
<time>2016-10-06T11:25:32Z</time></trkpt>
<trkpt lat="23.624084" lon="112.353691">
<time>2016-10-06T11:25:33Z</time></trkpt>
<trkpt lat="23.624114" lon="112.353561">
<time>2016-10-06T11:25:34Z</time></trkpt>
<trkpt lat="23.624194" lon="112.353342">
<time>2016-10-06T11:25:35Z</time></trkpt>
<trkpt lat="23.624234" lon="112.353242">
<time>2016-10-06T11:25:36Z</time></trkpt>
<trkpt lat="23.624355" lon="112.353032">
<time>2016-10-06T11:25:37Z</time></trkpt>
<trkpt lat="23.624485" lon="112.352823">
<time>2016-10-06T11:25:38Z</time></trkpt>
<trkpt lat="23.624675" lon="112.352583">
<time>2016-10-06T11:25:39Z</time></trkpt>
<trkpt lat="23.624826" lon="112.352443">
<time>2016-10-06T11:25:40Z</time></trkpt>
<trkpt lat="23.625206" lon="112.352084">
<time>2016-10-06T11:25:41Z</time></trkpt>
<trkpt lat="23.626438" lon="112.351185">
<time>2016-10-06T11:25:42Z</time></trkpt>
<trkpt lat="23.627219" lon="112.350616">
<time>2016-10-06T11:25:43Z</time></trkpt>
<trkpt lat="23.628841" lon="112.349438">
<time>2016-10-06T11:25:44Z</time></trkpt>
<trkpt lat="23.629442" lon="112.349009">
<time>2016-10-06T11:25:45Z</time></trkpt>
<trkpt lat="23.630083" lon="112.348529">
<time>2016-10-06T11:25:46Z</time></trkpt>
<trkpt lat="23.630083" lon="112.348529">
<time>2016-10-06T11:25:47Z</time></trkpt>
<trkpt lat="23.630143" lon="112.348509">
<time>2016-10-06T11:25:48Z</time></trkpt>
<trkpt lat="23.631845" lon="112.347241">
<time>2016-10-06T11:25:49Z</time></trkpt>
<trkpt lat="23.631895" lon="112.347192">
<time>2016-10-06T11:25:50Z</time></trkpt>
<trkpt lat="23.632306" lon="112.346882">
<time>2016-10-06T11:25:51Z</time></trkpt>
<trkpt lat="23.632346" lon="112.346852">
<time>2016-10-06T11:25:52Z</time></trkpt>
<trkpt lat="23.633958" lon="112.345674">
<time>2016-10-06T11:25:53Z</time></trkpt>
<trkpt lat="23.635129" lon="112.344836">
<time>2016-10-06T11:25:54Z</time></trkpt>
<trkpt lat="23.636071" lon="112.344167">
<time>2016-10-06T11:25:55Z</time></trkpt>
<trkpt lat="23.636691" lon="112.343807">
<time>2016-10-06T11:25:56Z</time></trkpt>
<trkpt lat="23.638764" lon="112.342649">
<time>2016-10-06T11:25:57Z</time></trkpt>
<trkpt lat="23.639174" lon="112.34242">
<time>2016-10-06T11:25:58Z</time></trkpt>
<trkpt lat="23.639605" lon="112.34221">
<time>2016-10-06T11:25:59Z</time></trkpt>
<trkpt lat="23.640385" lon="112.341821">
<time>2016-10-06T11:26:00Z</time></trkpt>
<trkpt lat="23.642517" lon="112.341042">
<time>2016-10-06T11:26:01Z</time></trkpt>
<trkpt lat="23.642717" lon="112.340962">
<time>2016-10-06T11:26:02Z</time></trkpt>
<trkpt lat="23.642747" lon="112.340952">
<time>2016-10-06T11:26:03Z</time></trkpt>
<trkpt lat="23.642887" lon="112.340902">
<time>2016-10-06T11:26:04Z</time></trkpt>
<trkpt lat="23.642998" lon="112.340862">
<time>2016-10-06T11:26:05Z</time></trkpt>
<trkpt lat="23.643638" lon="112.340643">
<time>2016-10-06T11:26:06Z</time></trkpt>
<trkpt lat="23.644118" lon="112.340463">
<time>2016-10-06T11:26:07Z</time></trkpt>
<trkpt lat="23.644499" lon="112.340353">
<time>2016-10-06T11:26:08Z</time></trkpt>
<trkpt lat="23.645499" lon="112.340143">
<time>2016-10-06T11:26:09Z</time></trkpt>
<trkpt lat="23.645779" lon="112.340064">
<time>2016-10-06T11:26:10Z</time></trkpt>
<trkpt lat="23.64636" lon="112.339854">
<time>2016-10-06T11:26:11Z</time></trkpt>
<trkpt lat="23.647311" lon="112.339375">
<time>2016-10-06T11:26:12Z</time></trkpt>
<trkpt lat="23.649113" lon="112.338476">
<time>2016-10-06T11:26:13Z</time></trkpt>
<trkpt lat="23.650034" lon="112.337947">
<time>2016-10-06T11:26:14Z</time></trkpt>
<trkpt lat="23.650775" lon="112.337518">
<time>2016-10-06T11:26:15Z</time></trkpt>
<trkpt lat="23.651806" lon="112.336989">
<time>2016-10-06T11:26:16Z</time></trkpt>
<trkpt lat="23.651806" lon="112.336989">
<time>2016-10-06T11:26:17Z</time></trkpt>
<trkpt lat="23.651866" lon="112.336939">
<time>2016-10-06T11:26:18Z</time></trkpt>
<trkpt lat="23.652407" lon="112.33666">
<time>2016-10-06T11:26:19Z</time></trkpt>
<trkpt lat="23.652587" lon="112.33651">
<time>2016-10-06T11:26:20Z</time></trkpt>
<trkpt lat="23.652757" lon="112.33633">
<time>2016-10-06T11:26:21Z</time></trkpt>
<trkpt lat="23.653078" lon="112.335931">
<time>2016-10-06T11:26:22Z</time></trkpt>
<trkpt lat="23.65377" lon="112.335062">
<time>2016-10-06T11:26:23Z</time></trkpt>
<trkpt lat="23.65397" lon="112.334863">
<time>2016-10-06T11:26:24Z</time></trkpt>
<trkpt lat="23.654271" lon="112.334603">
<time>2016-10-06T11:26:25Z</time></trkpt>
<trkpt lat="23.654591" lon="112.334354">
<time>2016-10-06T11:26:26Z</time></trkpt>
<trkpt lat="23.654792" lon="112.334154">
<time>2016-10-06T11:26:27Z</time></trkpt>
<trkpt lat="23.655032" lon="112.333915">
<time>2016-10-06T11:26:28Z</time></trkpt>
<trkpt lat="23.655203" lon="112.333655">
<time>2016-10-06T11:26:29Z</time></trkpt>
<trkpt lat="23.655323" lon="112.333426">
<time>2016-10-06T11:26:30Z</time></trkpt>
<trkpt lat="23.655393" lon="112.333286">
<time>2016-10-06T11:26:31Z</time></trkpt>
<trkpt lat="23.655574" lon="112.332857">
<time>2016-10-06T11:26:32Z</time></trkpt>
<trkpt lat="23.655725" lon="112.332447">
<time>2016-10-06T11:26:33Z</time></trkpt>
<trkpt lat="23.655765" lon="112.332388">
<time>2016-10-06T11:26:34Z</time></trkpt>
<trkpt lat="23.656991" lon="112.329084">
<time>2016-10-06T11:26:35Z</time></trkpt>
<trkpt lat="23.657223" lon="112.328475">
<time>2016-10-06T11:26:36Z</time></trkpt>
<trkpt lat="23.657343" lon="112.328176">
<time>2016-10-06T11:26:37Z</time></trkpt>
<trkpt lat="23.657544" lon="112.327826">
<time>2016-10-06T11:26:38Z</time></trkpt>
<trkpt lat="23.657694" lon="112.327597">
<time>2016-10-06T11:26:39Z</time></trkpt>
<trkpt lat="23.657875" lon="112.327367">
<time>2016-10-06T11:26:40Z</time></trkpt>
<trkpt lat="23.658286" lon="112.326988">
<time>2016-10-06T11:26:41Z</time></trkpt>
<trkpt lat="23.658827" lon="112.326579">
<time>2016-10-06T11:26:42Z</time></trkpt>
<trkpt lat="23.659127" lon="112.326389">
<time>2016-10-06T11:26:43Z</time></trkpt>
<trkpt lat="23.659537" lon="112.326219">
<time>2016-10-06T11:26:44Z</time></trkpt>
<trkpt lat="23.660508" lon="112.32583">
<time>2016-10-06T11:26:45Z</time></trkpt>
<trkpt lat="23.661249" lon="112.32561">
<time>2016-10-06T11:26:46Z</time></trkpt>
<trkpt lat="23.661639" lon="112.325531">
<time>2016-10-06T11:26:47Z</time></trkpt>
<trkpt lat="23.661689" lon="112.325521">
<time>2016-10-06T11:26:48Z</time></trkpt>
<trkpt lat="23.661689" lon="112.325521">
<time>2016-10-06T11:26:49Z</time></trkpt>
<trkpt lat="23.661769" lon="112.325491">
<time>2016-10-06T11:26:50Z</time></trkpt>
<trkpt lat="23.662069" lon="112.325451">
<time>2016-10-06T11:26:51Z</time></trkpt>
<trkpt lat="23.662379" lon="112.325401">
<time>2016-10-06T11:26:52Z</time></trkpt>
<trkpt lat="23.662619" lon="112.325371">
<time>2016-10-06T11:26:53Z</time></trkpt>
<trkpt lat="23.66277" lon="112.325361">
<time>2016-10-06T11:26:54Z</time></trkpt>
<trkpt lat="23.662899" lon="112.325381">
<time>2016-10-06T11:26:55Z</time></trkpt>
<trkpt lat="23.663289" lon="112.325471">
<time>2016-10-06T11:26:56Z</time></trkpt>
<trkpt lat="23.663599" lon="112.325501">
<time>2016-10-06T11:26:57Z</time></trkpt>
<trkpt lat="23.663879" lon="112.325501">
<time>2016-10-06T11:26:58Z</time></trkpt>
<trkpt lat="23.6645" lon="112.325471">
<time>2016-10-06T11:26:59Z</time></trkpt>
<trkpt lat="23.66483" lon="112.325421">
<time>2016-10-06T11:27:00Z</time></trkpt>
<trkpt lat="23.66534" lon="112.325241">
<time>2016-10-06T11:27:01Z</time></trkpt>
<trkpt lat="23.665701" lon="112.325071">
<time>2016-10-06T11:27:02Z</time></trkpt>
<trkpt lat="23.665941" lon="112.324981">
<time>2016-10-06T11:27:03Z</time></trkpt>
<trkpt lat="23.666261" lon="112.324882">
<time>2016-10-06T11:27:04Z</time></trkpt>
<trkpt lat="23.666651" lon="112.324802">
<time>2016-10-06T11:27:05Z</time></trkpt>
<trkpt lat="23.666701" lon="112.324802">
<time>2016-10-06T11:27:06Z</time></trkpt>
<trkpt lat="23.666841" lon="112.324782">
<time>2016-10-06T11:27:07Z</time></trkpt>
<trkpt lat="23.666981" lon="112.324782">
<time>2016-10-06T11:27:08Z</time></trkpt>
<trkpt lat="23.667101" lon="112.324782">
<time>2016-10-06T11:27:09Z</time></trkpt>
<trkpt lat="23.667221" lon="112.324802">
<time>2016-10-06T11:27:10Z</time></trkpt>
<trkpt lat="23.667431" lon="112.324852">
<time>2016-10-06T11:27:11Z</time></trkpt>
<trkpt lat="23.667671" lon="112.324921">
<time>2016-10-06T11:27:12Z</time></trkpt>
<trkpt lat="23.667911" lon="112.324991">
<time>2016-10-06T11:27:13Z</time></trkpt>
<trkpt lat="23.668141" lon="112.325021">
<time>2016-10-06T11:27:14Z</time></trkpt>
<trkpt lat="23.668391" lon="112.324991">
<time>2016-10-06T11:27:15Z</time></trkpt>
<trkpt lat="23.668641" lon="112.324921">
<time>2016-10-06T11:27:16Z</time></trkpt>
<trkpt lat="23.668952" lon="112.324782">
<time>2016-10-06T11:27:17Z</time></trkpt>
<trkpt lat="23.669252" lon="112.324622">
<time>2016-10-06T11:27:18Z</time></trkpt>
<trkpt lat="23.669482" lon="112.324462">
<time>2016-10-06T11:27:19Z</time></trkpt>
<trkpt lat="23.669693" lon="112.324302">
<time>2016-10-06T11:27:20Z</time></trkpt>
<trkpt lat="23.669863" lon="112.324123">
<time>2016-10-06T11:27:21Z</time></trkpt>
<trkpt lat="23.670024" lon="112.323913">
<time>2016-10-06T11:27:22Z</time></trkpt>
<trkpt lat="23.670154" lon="112.323694">
<time>2016-10-06T11:27:23Z</time></trkpt>
<trkpt lat="23.670294" lon="112.323464">
<time>2016-10-06T11:27:24Z</time></trkpt>
<trkpt lat="23.670395" lon="112.323235">
<time>2016-10-06T11:27:25Z</time></trkpt>
<trkpt lat="23.670505" lon="112.322995">
<time>2016-10-06T11:27:26Z</time></trkpt>
<trkpt lat="23.670596" lon="112.322756">
<time>2016-10-06T11:27:27Z</time></trkpt>
<trkpt lat="23.670686" lon="112.322506">
<time>2016-10-06T11:27:28Z</time></trkpt>
<trkpt lat="23.670737" lon="112.322336">
<time>2016-10-06T11:27:29Z</time></trkpt>
<trkpt lat="23.670767" lon="112.322147">
<time>2016-10-06T11:27:30Z</time></trkpt>
<trkpt lat="23.670808" lon="112.321827">
<time>2016-10-06T11:27:31Z</time></trkpt>
<trkpt lat="23.670788" lon="112.321518">
<time>2016-10-06T11:27:32Z</time></trkpt>
<trkpt lat="23.670709" lon="112.320979">
<time>2016-10-06T11:27:33Z</time></trkpt>
<trkpt lat="23.67064" lon="112.32057">
<time>2016-10-06T11:27:34Z</time></trkpt>
<trkpt lat="23.6706" lon="112.32036">
<time>2016-10-06T11:27:35Z</time></trkpt>
<trkpt lat="23.670601" lon="112.320141">
<time>2016-10-06T11:27:36Z</time></trkpt>
<trkpt lat="23.670611" lon="112.319931">
<time>2016-10-06T11:27:37Z</time></trkpt>
<trkpt lat="23.670631" lon="112.319811">
<time>2016-10-06T11:27:38Z</time></trkpt>
<trkpt lat="23.670652" lon="112.319771">
<time>2016-10-06T11:27:39Z</time></trkpt>
<trkpt lat="23.670652" lon="112.319721">
<time>2016-10-06T11:27:40Z</time></trkpt>
<trkpt lat="23.670682" lon="112.319492">
<time>2016-10-06T11:27:41Z</time></trkpt>
<trkpt lat="23.670713" lon="112.319262">
<time>2016-10-06T11:27:42Z</time></trkpt>
<trkpt lat="23.670723" lon="112.319073">
<time>2016-10-06T11:27:43Z</time></trkpt>
<trkpt lat="23.670723" lon="112.318863">
<time>2016-10-06T11:27:44Z</time></trkpt>
<trkpt lat="23.670724" lon="112.318664">
<time>2016-10-06T11:27:45Z</time></trkpt>
<trkpt lat="23.670714" lon="112.318364">
<time>2016-10-06T11:27:46Z</time></trkpt>
<trkpt lat="23.670705" lon="112.318065">
<time>2016-10-06T11:27:47Z</time></trkpt>
<trkpt lat="23.670695" lon="112.317825">
<time>2016-10-06T11:27:48Z</time></trkpt>
<trkpt lat="23.670706" lon="112.317636">
<time>2016-10-06T11:27:49Z</time></trkpt>
<trkpt lat="23.670716" lon="112.317466">
<time>2016-10-06T11:27:50Z</time></trkpt>
<trkpt lat="23.670736" lon="112.317276">
<time>2016-10-06T11:27:51Z</time></trkpt>
<trkpt lat="23.670757" lon="112.317097">
<time>2016-10-06T11:27:52Z</time></trkpt>
<trkpt lat="23.670767" lon="112.316907">
<time>2016-10-06T11:27:53Z</time></trkpt>
<trkpt lat="23.670777" lon="112.316737">
<time>2016-10-06T11:27:54Z</time></trkpt>
<trkpt lat="23.670768" lon="112.316558">
<time>2016-10-06T11:27:55Z</time></trkpt>
<trkpt lat="23.670758" lon="112.316378">
<time>2016-10-06T11:27:56Z</time></trkpt>
<trkpt lat="23.670738" lon="112.316158">
<time>2016-10-06T11:27:57Z</time></trkpt>
<trkpt lat="23.670719" lon="112.315959">
<time>2016-10-06T11:27:58Z</time></trkpt>
<trkpt lat="23.670689" lon="112.315799">
<time>2016-10-06T11:27:59Z</time></trkpt>
<trkpt lat="23.670669" lon="112.315659">
<time>2016-10-06T11:28:00Z</time></trkpt>
<trkpt lat="23.67063" lon="112.31549">
<time>2016-10-06T11:28:01Z</time></trkpt>
<trkpt lat="23.67059" lon="112.31539">
<time>2016-10-06T11:28:02Z</time></trkpt>
<trkpt lat="23.67055" lon="112.31526">
<time>2016-10-06T11:28:03Z</time></trkpt>
<trkpt lat="23.67049" lon="112.315111">
<time>2016-10-06T11:28:04Z</time></trkpt>
<trkpt lat="23.670431" lon="112.314991">
<time>2016-10-06T11:28:05Z</time></trkpt>
<trkpt lat="23.670351" lon="112.314851">
<time>2016-10-06T11:28:06Z</time></trkpt>
<trkpt lat="23.670201" lon="112.314602">
<time>2016-10-06T11:28:07Z</time></trkpt>
<trkpt lat="23.670052" lon="112.314372">
<time>2016-10-06T11:28:08Z</time></trkpt>
<trkpt lat="23.669862" lon="112.314083">
<time>2016-10-06T11:28:09Z</time></trkpt>
<trkpt lat="23.669683" lon="112.313813">
<time>2016-10-06T11:28:10Z</time></trkpt>
<trkpt lat="23.669493" lon="112.313494">
<time>2016-10-06T11:28:11Z</time></trkpt>
<trkpt lat="23.669294" lon="112.313174">
<time>2016-10-06T11:28:12Z</time></trkpt>
<trkpt lat="23.669134" lon="112.312885">
<time>2016-10-06T11:28:13Z</time></trkpt>
<trkpt lat="23.669015" lon="112.312615">
<time>2016-10-06T11:28:14Z</time></trkpt>
<trkpt lat="23.668955" lon="112.312426">
<time>2016-10-06T11:28:15Z</time></trkpt>
<trkpt lat="23.668876" lon="112.312166">
<time>2016-10-06T11:28:16Z</time></trkpt>
<trkpt lat="23.668806" lon="112.311877">
<time>2016-10-06T11:28:17Z</time></trkpt>
<trkpt lat="23.668737" lon="112.311597">
<time>2016-10-06T11:28:18Z</time></trkpt>
<trkpt lat="23.668657" lon="112.311258">
<time>2016-10-06T11:28:19Z</time></trkpt>
<trkpt lat="23.668598" lon="112.311019">
<time>2016-10-06T11:28:20Z</time></trkpt>
<trkpt lat="23.668538" lon="112.310709">
<time>2016-10-06T11:28:21Z</time></trkpt>
<trkpt lat="23.668499" lon="112.31046">
<time>2016-10-06T11:28:22Z</time></trkpt>
<trkpt lat="23.668489" lon="112.31027">
<time>2016-10-06T11:28:23Z</time></trkpt>
<trkpt lat="23.668489" lon="112.31012">
<time>2016-10-06T11:28:24Z</time></trkpt>
<trkpt lat="23.6685" lon="112.309941">
<time>2016-10-06T11:28:25Z</time></trkpt>
<trkpt lat="23.66853" lon="112.309761">
<time>2016-10-06T11:28:26Z</time></trkpt>
<trkpt lat="23.66858" lon="112.309561">
<time>2016-10-06T11:28:27Z</time></trkpt>
<trkpt lat="23.668651" lon="112.309352">
<time>2016-10-06T11:28:28Z</time></trkpt>
<trkpt lat="23.668761" lon="112.309052">
<time>2016-10-06T11:28:29Z</time></trkpt>
<trkpt lat="23.668862" lon="112.308833">
<time>2016-10-06T11:28:30Z</time></trkpt>
<trkpt lat="23.668952" lon="112.308683">
<time>2016-10-06T11:28:31Z</time></trkpt>
<trkpt lat="23.669052" lon="112.308533">
<time>2016-10-06T11:28:32Z</time></trkpt>
<trkpt lat="23.669193" lon="112.308334">
<time>2016-10-06T11:28:33Z</time></trkpt>
<trkpt lat="23.669283" lon="112.308234">
<time>2016-10-06T11:28:34Z</time></trkpt>
<trkpt lat="23.669373" lon="112.308114">
<time>2016-10-06T11:28:35Z</time></trkpt>
<trkpt lat="23.669453" lon="112.307984">
<time>2016-10-06T11:28:36Z</time></trkpt>
<trkpt lat="23.669514" lon="112.307884">
<time>2016-10-06T11:28:37Z</time></trkpt>
<trkpt lat="23.669624" lon="112.307675">
<time>2016-10-06T11:28:38Z</time></trkpt>
<trkpt lat="23.669694" lon="112.307525">
<time>2016-10-06T11:28:39Z</time></trkpt>
<trkpt lat="23.669785" lon="112.307306">
<time>2016-10-06T11:28:40Z</time></trkpt>
<trkpt lat="23.669925" lon="112.306926">
<time>2016-10-06T11:28:41Z</time></trkpt>
<trkpt lat="23.670006" lon="112.306607">
<time>2016-10-06T11:28:42Z</time></trkpt>
<trkpt lat="23.670087" lon="112.306247">
<time>2016-10-06T11:28:43Z</time></trkpt>
<trkpt lat="23.670178" lon="112.305748">
<time>2016-10-06T11:28:44Z</time></trkpt>
<trkpt lat="23.670299" lon="112.305179">
<time>2016-10-06T11:28:45Z</time></trkpt>
<trkpt lat="23.67042" lon="112.304541">
<time>2016-10-06T11:28:46Z</time></trkpt>
<trkpt lat="23.67047" lon="112.304251">
<time>2016-10-06T11:28:47Z</time></trkpt>
<trkpt lat="23.670511" lon="112.304091">
<time>2016-10-06T11:28:48Z</time></trkpt>
<trkpt lat="23.670561" lon="112.303832">
<time>2016-10-06T11:28:49Z</time></trkpt>
<trkpt lat="23.670592" lon="112.303602">
<time>2016-10-06T11:28:50Z</time></trkpt>
<trkpt lat="23.670592" lon="112.303592">
<time>2016-10-06T11:28:51Z</time></trkpt>
<trkpt lat="23.670612" lon="112.303492">
<time>2016-10-06T11:28:52Z</time></trkpt>
<trkpt lat="23.670612" lon="112.303383">
<time>2016-10-06T11:28:53Z</time></trkpt>
<trkpt lat="23.670612" lon="112.303263">
<time>2016-10-06T11:28:54Z</time></trkpt>
<trkpt lat="23.670612" lon="112.303123">
<time>2016-10-06T11:28:55Z</time></trkpt>
<trkpt lat="23.670613" lon="112.302824">
<time>2016-10-06T11:28:56Z</time></trkpt>
<trkpt lat="23.670594" lon="112.302205">
<time>2016-10-06T11:28:57Z</time></trkpt>
<trkpt lat="23.670585" lon="112.301865">
<time>2016-10-06T11:28:58Z</time></trkpt>
<trkpt lat="23.670595" lon="112.301666">
<time>2016-10-06T11:28:59Z</time></trkpt>
<trkpt lat="23.670605" lon="112.301566">
<time>2016-10-06T11:29:00Z</time></trkpt>
<trkpt lat="23.670625" lon="112.301426">
<time>2016-10-06T11:29:01Z</time></trkpt>
<trkpt lat="23.670676" lon="112.301276">
<time>2016-10-06T11:29:02Z</time></trkpt>
<trkpt lat="23.670746" lon="112.301097">
<time>2016-10-06T11:29:03Z</time></trkpt>
<trkpt lat="23.670816" lon="112.300927">
<time>2016-10-06T11:29:04Z</time></trkpt>
<trkpt lat="23.670816" lon="112.300927">
<time>2016-10-06T11:29:05Z</time></trkpt>
<trkpt lat="23.670816" lon="112.300857">
<time>2016-10-06T11:29:06Z</time></trkpt>
<trkpt lat="23.670937" lon="112.300618">
<time>2016-10-06T11:29:07Z</time></trkpt>
<trkpt lat="23.671067" lon="112.300358">
<time>2016-10-06T11:29:08Z</time></trkpt>
<trkpt lat="23.671208" lon="112.300148">
<time>2016-10-06T11:29:09Z</time></trkpt>
<trkpt lat="23.671308" lon="112.300009">
<time>2016-10-06T11:29:10Z</time></trkpt>
<trkpt lat="23.671348" lon="112.299959">
<time>2016-10-06T11:29:11Z</time></trkpt>
<trkpt lat="23.671408" lon="112.299889">
<time>2016-10-06T11:29:12Z</time></trkpt>
<trkpt lat="23.671468" lon="112.299819">
<time>2016-10-06T11:29:13Z</time></trkpt>
<trkpt lat="23.671528" lon="112.299769">
<time>2016-10-06T11:29:14Z</time></trkpt>
<trkpt lat="23.671599" lon="112.299699">
<time>2016-10-06T11:29:15Z</time></trkpt>
<trkpt lat="23.671769" lon="112.299589">
<time>2016-10-06T11:29:16Z</time></trkpt>
<trkpt lat="23.671979" lon="112.29945">
<time>2016-10-06T11:29:17Z</time></trkpt>
<trkpt lat="23.672259" lon="112.29927">
<time>2016-10-06T11:29:18Z</time></trkpt>
<trkpt lat="23.67258" lon="112.29906">
<time>2016-10-06T11:29:19Z</time></trkpt>
<trkpt lat="23.6727" lon="112.29899">
<time>2016-10-06T11:29:20Z</time></trkpt>
<trkpt lat="23.67302" lon="112.298801">
<time>2016-10-06T11:29:21Z</time></trkpt>
<trkpt lat="23.67314" lon="112.298731">
<time>2016-10-06T11:29:22Z</time></trkpt>
<trkpt lat="23.673281" lon="112.298671">
<time>2016-10-06T11:29:23Z</time></trkpt>
<trkpt lat="23.673371" lon="112.298641">
<time>2016-10-06T11:29:24Z</time></trkpt>
<trkpt lat="23.673471" lon="112.298611">
<time>2016-10-06T11:29:25Z</time></trkpt>
<trkpt lat="23.673641" lon="112.298581">
<time>2016-10-06T11:29:26Z</time></trkpt>
<trkpt lat="23.673801" lon="112.298561">
<time>2016-10-06T11:29:27Z</time></trkpt>
<trkpt lat="23.674001" lon="112.298531">
<time>2016-10-06T11:29:28Z</time></trkpt>
<trkpt lat="23.674191" lon="112.298501">
<time>2016-10-06T11:29:29Z</time></trkpt>
<trkpt lat="23.674391" lon="112.298481">
<time>2016-10-06T11:29:30Z</time></trkpt>
<trkpt lat="23.674581" lon="112.298451">
<time>2016-10-06T11:29:31Z</time></trkpt>
<trkpt lat="23.674771" lon="112.298401">
<time>2016-10-06T11:29:32Z</time></trkpt>
<trkpt lat="23.674881" lon="112.298361">
<time>2016-10-06T11:29:33Z</time></trkpt>
<trkpt lat="23.675022" lon="112.298301">
<time>2016-10-06T11:29:34Z</time></trkpt>
<trkpt lat="23.675182" lon="112.298211">
<time>2016-10-06T11:29:35Z</time></trkpt>
<trkpt lat="23.675352" lon="112.298112">
<time>2016-10-06T11:29:36Z</time></trkpt>
<trkpt lat="23.675552" lon="112.297982">
<time>2016-10-06T11:29:37Z</time></trkpt>
<trkpt lat="23.675652" lon="112.297912">
<time>2016-10-06T11:29:38Z</time></trkpt>
<trkpt lat="23.675682" lon="112.297882">
<time>2016-10-06T11:29:39Z</time></trkpt>
<trkpt lat="23.675722" lon="112.297852">
<time>2016-10-06T11:29:40Z</time></trkpt>
<trkpt lat="23.675742" lon="112.297822">
<time>2016-10-06T11:29:41Z</time></trkpt>
<trkpt lat="23.675773" lon="112.297782">
<time>2016-10-06T11:29:42Z</time></trkpt>
<trkpt lat="23.675813" lon="112.297732">
<time>2016-10-06T11:29:43Z</time></trkpt>
<trkpt lat="23.675833" lon="112.297692">
<time>2016-10-06T11:29:44Z</time></trkpt>
<trkpt lat="23.675843" lon="112.297662">
<time>2016-10-06T11:29:45Z</time></trkpt>
<trkpt lat="23.675843" lon="112.297652">
<time>2016-10-06T11:29:46Z</time></trkpt>
<trkpt lat="23.675863" lon="112.297573">
<time>2016-10-06T11:29:47Z</time></trkpt>
<trkpt lat="23.675883" lon="112.297493">
<time>2016-10-06T11:29:48Z</time></trkpt>
<trkpt lat="23.675923" lon="112.297303">
<time>2016-10-06T11:29:49Z</time></trkpt>
<trkpt lat="23.675964" lon="112.297103">
<time>2016-10-06T11:29:50Z</time></trkpt>
<trkpt lat="23.676024" lon="112.296824">
<time>2016-10-06T11:29:51Z</time></trkpt>
<trkpt lat="23.676085" lon="112.296474">
<time>2016-10-06T11:29:52Z</time></trkpt>
<trkpt lat="23.676176" lon="112.295975">
<time>2016-10-06T11:29:53Z</time></trkpt>
<trkpt lat="23.676256" lon="112.295586">
<time>2016-10-06T11:29:54Z</time></trkpt>
<trkpt lat="23.676347" lon="112.295107">
<time>2016-10-06T11:29:55Z</time></trkpt>
<trkpt lat="23.676367" lon="112.294937">
<time>2016-10-06T11:29:56Z</time></trkpt>
<trkpt lat="23.676407" lon="112.294887">
<time>2016-10-06T11:29:57Z</time></trkpt>
<trkpt lat="23.676428" lon="112.294757">
<time>2016-10-06T11:29:58Z</time></trkpt>
<trkpt lat="23.676448" lon="112.294607">
<time>2016-10-06T11:29:59Z</time></trkpt>
<trkpt lat="23.676448" lon="112.294508">
<time>2016-10-06T11:30:00Z</time></trkpt>
<trkpt lat="23.676448" lon="112.294388">
<time>2016-10-06T11:30:01Z</time></trkpt>
<trkpt lat="23.676438" lon="112.294248">
<time>2016-10-06T11:30:02Z</time></trkpt>
<trkpt lat="23.676419" lon="112.294108">
<time>2016-10-06T11:30:03Z</time></trkpt>
<trkpt lat="23.676389" lon="112.293939">
<time>2016-10-06T11:30:04Z</time></trkpt>
<trkpt lat="23.676319" lon="112.293659">
<time>2016-10-06T11:30:05Z</time></trkpt>
<trkpt lat="23.67619" lon="112.29308">
<time>2016-10-06T11:30:06Z</time></trkpt>
<trkpt lat="23.67618" lon="112.29296">
<time>2016-10-06T11:30:07Z</time></trkpt>
<trkpt lat="23.676171" lon="112.29286">
<time>2016-10-06T11:30:08Z</time></trkpt>
<trkpt lat="23.676171" lon="112.29284">
<time>2016-10-06T11:30:09Z</time></trkpt>
<trkpt lat="23.676181" lon="112.29278">
<time>2016-10-06T11:30:10Z</time></trkpt>
<trkpt lat="23.676191" lon="112.2927">
<time>2016-10-06T11:30:11Z</time></trkpt>
<trkpt lat="23.676201" lon="112.292651">
<time>2016-10-06T11:30:12Z</time></trkpt>
<trkpt lat="23.676211" lon="112.292601">
<time>2016-10-06T11:30:13Z</time></trkpt>
<trkpt lat="23.676241" lon="112.292541">
<time>2016-10-06T11:30:14Z</time></trkpt>
<trkpt lat="23.676281" lon="112.292461">
<time>2016-10-06T11:30:15Z</time></trkpt>
<trkpt lat="23.676361" lon="112.292361">
<time>2016-10-06T11:30:16Z</time></trkpt>
<trkpt lat="23.676552" lon="112.292181">
<time>2016-10-06T11:30:17Z</time></trkpt>
<trkpt lat="23.676872" lon="112.291912">
<time>2016-10-06T11:30:18Z</time></trkpt>
<trkpt lat="23.677083" lon="112.291742">
<time>2016-10-06T11:30:19Z</time></trkpt>
<trkpt lat="23.677223" lon="112.291632">
<time>2016-10-06T11:30:20Z</time></trkpt>
<trkpt lat="23.677393" lon="112.291512">
<time>2016-10-06T11:30:21Z</time></trkpt>
<trkpt lat="23.677653" lon="112.291372">
<time>2016-10-06T11:30:22Z</time></trkpt>
<trkpt lat="23.677863" lon="112.291293">
<time>2016-10-06T11:30:23Z</time></trkpt>
<trkpt lat="23.678474" lon="112.291103">
<time>2016-10-06T11:30:24Z</time></trkpt>
<trkpt lat="23.678754" lon="112.290993">
<time>2016-10-06T11:30:25Z</time></trkpt>
<trkpt lat="23.678964" lon="112.290933">
<time>2016-10-06T11:30:26Z</time></trkpt>
<trkpt lat="23.679194" lon="112.290883">
<time>2016-10-06T11:30:27Z</time></trkpt>
<trkpt lat="23.679354" lon="112.290873">
<time>2016-10-06T11:30:28Z</time></trkpt>
<trkpt lat="23.679464" lon="112.290873">
<time>2016-10-06T11:30:29Z</time></trkpt>
<trkpt lat="23.679594" lon="112.290893">
<time>2016-10-06T11:30:30Z</time></trkpt>
<trkpt lat="23.679874" lon="112.290933">
<time>2016-10-06T11:30:31Z</time></trkpt>
<trkpt lat="23.680494" lon="112.291033">
<time>2016-10-06T11:30:32Z</time></trkpt>
<trkpt lat="23.680854" lon="112.291093">
<time>2016-10-06T11:30:33Z</time></trkpt>
<trkpt lat="23.681014" lon="112.291133">
<time>2016-10-06T11:30:34Z</time></trkpt>
<trkpt lat="23.681134" lon="112.291173">
<time>2016-10-06T11:30:35Z</time></trkpt>
<trkpt lat="23.681274" lon="112.291222">
<time>2016-10-06T11:30:36Z</time></trkpt>
<trkpt lat="23.681474" lon="112.291332">
<time>2016-10-06T11:30:37Z</time></trkpt>
<trkpt lat="23.681694" lon="112.291442">
<time>2016-10-06T11:30:38Z</time></trkpt>
<trkpt lat="23.681874" lon="112.291512">
<time>2016-10-06T11:30:39Z</time></trkpt>
<trkpt lat="23.682004" lon="112.291562">
<time>2016-10-06T11:30:40Z</time></trkpt>
<trkpt lat="23.682124" lon="112.291612">
<time>2016-10-06T11:30:41Z</time></trkpt>
<trkpt lat="23.682354" lon="112.291662">
<time>2016-10-06T11:30:42Z</time></trkpt>
<trkpt lat="23.682584" lon="112.291722">
<time>2016-10-06T11:30:43Z</time></trkpt>
<trkpt lat="23.682884" lon="112.291781">
<time>2016-10-06T11:30:44Z</time></trkpt>
<trkpt lat="23.683064" lon="112.291801">
<time>2016-10-06T11:30:45Z</time></trkpt>
<trkpt lat="23.683204" lon="112.291811">
<time>2016-10-06T11:30:46Z</time></trkpt>
<trkpt lat="23.683374" lon="112.291821">
<time>2016-10-06T11:30:47Z</time></trkpt>
<trkpt lat="23.683624" lon="112.291821">
<time>2016-10-06T11:30:48Z</time></trkpt>
<trkpt lat="23.683814" lon="112.291811">
<time>2016-10-06T11:30:49Z</time></trkpt>
<trkpt lat="23.684074" lon="112.291791">
<time>2016-10-06T11:30:50Z</time></trkpt>
<trkpt lat="23.684424" lon="112.291751">
<time>2016-10-06T11:30:51Z</time></trkpt>
<trkpt lat="23.684594" lon="112.291711">
<time>2016-10-06T11:30:52Z</time></trkpt>
<trkpt lat="23.684744" lon="112.291672">
<time>2016-10-06T11:30:53Z</time></trkpt>
<trkpt lat="23.684974" lon="112.291602">
<time>2016-10-06T11:30:54Z</time></trkpt>
<trkpt lat="23.685144" lon="112.291542">
<time>2016-10-06T11:30:55Z</time></trkpt>
<trkpt lat="23.685465" lon="112.291422">
<time>2016-10-06T11:30:56Z</time></trkpt>
<trkpt lat="23.685805" lon="112.291312">
<time>2016-10-06T11:30:57Z</time></trkpt>
<trkpt lat="23.686235" lon="112.291192">
<time>2016-10-06T11:30:58Z</time></trkpt>
<trkpt lat="23.686865" lon="112.291022">
<time>2016-10-06T11:30:59Z</time></trkpt>
<trkpt lat="23.687686" lon="112.290773">
<time>2016-10-06T11:31:00Z</time></trkpt>
<trkpt lat="23.688206" lon="112.290633">
<time>2016-10-06T11:31:01Z</time></trkpt>
<trkpt lat="23.688727" lon="112.290503">
<time>2016-10-06T11:31:02Z</time></trkpt>
<trkpt lat="23.689147" lon="112.290383">
<time>2016-10-06T11:31:03Z</time></trkpt>
<trkpt lat="23.689457" lon="112.290293">
<time>2016-10-06T11:31:04Z</time></trkpt>
<trkpt lat="23.689757" lon="112.290233">
<time>2016-10-06T11:31:05Z</time></trkpt>
<trkpt lat="23.690007" lon="112.290193">
<time>2016-10-06T11:31:06Z</time></trkpt>
<trkpt lat="23.690187" lon="112.290163">
<time>2016-10-06T11:31:07Z</time></trkpt>
<trkpt lat="23.690338" lon="112.290124">
<time>2016-10-06T11:31:08Z</time></trkpt>
<trkpt lat="23.690428" lon="112.290094">
<time>2016-10-06T11:31:09Z</time></trkpt>
<trkpt lat="23.690548" lon="112.290044">
<time>2016-10-06T11:31:10Z</time></trkpt>
<trkpt lat="23.690688" lon="112.289984">
<time>2016-10-06T11:31:11Z</time></trkpt>
<trkpt lat="23.690788" lon="112.289904">
<time>2016-10-06T11:31:12Z</time></trkpt>
<trkpt lat="23.691028" lon="112.289704">
<time>2016-10-06T11:31:13Z</time></trkpt>
<trkpt lat="23.691279" lon="112.289504">
<time>2016-10-06T11:31:14Z</time></trkpt>
<trkpt lat="23.691429" lon="112.289395">
<time>2016-10-06T11:31:15Z</time></trkpt>
<trkpt lat="23.691559" lon="112.289315">
<time>2016-10-06T11:31:16Z</time></trkpt>
<trkpt lat="23.691699" lon="112.289255">
<time>2016-10-06T11:31:17Z</time></trkpt>
<trkpt lat="23.691819" lon="112.289215">
<time>2016-10-06T11:31:18Z</time></trkpt>
<trkpt lat="23.692039" lon="112.289155">
<time>2016-10-06T11:31:19Z</time></trkpt>
<trkpt lat="23.692249" lon="112.289135">
<time>2016-10-06T11:31:20Z</time></trkpt>
<trkpt lat="23.692499" lon="112.289125">
<time>2016-10-06T11:31:21Z</time></trkpt>
<trkpt lat="23.692859" lon="112.289145">
<time>2016-10-06T11:31:22Z</time></trkpt>
<trkpt lat="23.6933" lon="112.289175">
<time>2016-10-06T11:31:23Z</time></trkpt>
<trkpt lat="23.69368" lon="112.289225">
<time>2016-10-06T11:31:24Z</time></trkpt>
<trkpt lat="23.694039" lon="112.289305">
<time>2016-10-06T11:31:25Z</time></trkpt>
<trkpt lat="23.6943" lon="112.289334">
<time>2016-10-06T11:31:26Z</time></trkpt>
<trkpt lat="23.69461" lon="112.289324">
<time>2016-10-06T11:31:27Z</time></trkpt>
<trkpt lat="23.69491" lon="112.289304">
<time>2016-10-06T11:31:28Z</time></trkpt>
<trkpt lat="23.69533" lon="112.289255">
<time>2016-10-06T11:31:29Z</time></trkpt>
<trkpt lat="23.6958" lon="112.289215">
<time>2016-10-06T11:31:30Z</time></trkpt>
<trkpt lat="23.69637" lon="112.289105">
<time>2016-10-06T11:31:31Z</time></trkpt>
<trkpt lat="23.696771" lon="112.288975">
<time>2016-10-06T11:31:32Z</time></trkpt>
<trkpt lat="23.697021" lon="112.288875">
<time>2016-10-06T11:31:33Z</time></trkpt>
<trkpt lat="23.697281" lon="112.288735">
<time>2016-10-06T11:31:34Z</time></trkpt>
<trkpt lat="23.697511" lon="112.288565">
<time>2016-10-06T11:31:35Z</time></trkpt>
<trkpt lat="23.697702" lon="112.288366">
<time>2016-10-06T11:31:36Z</time></trkpt>
<trkpt lat="23.697922" lon="112.288116">
<time>2016-10-06T11:31:37Z</time></trkpt>
<trkpt lat="23.698112" lon="112.287856">
<time>2016-10-06T11:31:38Z</time></trkpt>
<trkpt lat="23.698333" lon="112.287627">
<time>2016-10-06T11:31:39Z</time></trkpt>
<trkpt lat="23.698583" lon="112.287417">
<time>2016-10-06T11:31:40Z</time></trkpt>
<trkpt lat="23.698924" lon="112.287097">
<time>2016-10-06T11:31:41Z</time></trkpt>
<trkpt lat="23.699194" lon="112.286788">
<time>2016-10-06T11:31:42Z</time></trkpt>
<trkpt lat="23.699465" lon="112.286448">
<time>2016-10-06T11:31:43Z</time></trkpt>
<trkpt lat="23.699845" lon="112.285999">
<time>2016-10-06T11:31:44Z</time></trkpt>
<trkpt lat="23.700036" lon="112.285839">
<time>2016-10-06T11:31:45Z</time></trkpt>
<trkpt lat="23.700416" lon="112.28555">
<time>2016-10-06T11:31:46Z</time></trkpt>
<trkpt lat="23.700476" lon="112.28549">
<time>2016-10-06T11:31:47Z</time></trkpt>
<trkpt lat="23.700647" lon="112.28533">
<time>2016-10-06T11:31:48Z</time></trkpt>
<trkpt lat="23.700747" lon="112.28521">
<time>2016-10-06T11:31:49Z</time></trkpt>
<trkpt lat="23.700937" lon="112.28493">
<time>2016-10-06T11:31:50Z</time></trkpt>
<trkpt lat="23.701168" lon="112.284611">
<time>2016-10-06T11:31:51Z</time></trkpt>
<trkpt lat="23.701468" lon="112.284181">
<time>2016-10-06T11:31:52Z</time></trkpt>
<trkpt lat="23.701869" lon="112.283612">
<time>2016-10-06T11:31:53Z</time></trkpt>
<trkpt lat="23.70221" lon="112.283153">
<time>2016-10-06T11:31:54Z</time></trkpt>
<trkpt lat="23.702621" lon="112.282693">
<time>2016-10-06T11:31:55Z</time></trkpt>
<trkpt lat="23.703021" lon="112.282264">
<time>2016-10-06T11:31:56Z</time></trkpt>
<trkpt lat="23.703402" lon="112.281774">
<time>2016-10-06T11:31:57Z</time></trkpt>
<trkpt lat="23.703703" lon="112.281355">
<time>2016-10-06T11:31:58Z</time></trkpt>
<trkpt lat="23.704023" lon="112.280905">
<time>2016-10-06T11:31:59Z</time></trkpt>
<trkpt lat="23.704354" lon="112.280476">
<time>2016-10-06T11:32:00Z</time></trkpt>
<trkpt lat="23.704634" lon="112.280166">
<time>2016-10-06T11:32:01Z</time></trkpt>
<trkpt lat="23.704774" lon="112.280056">
<time>2016-10-06T11:32:02Z</time></trkpt>
<trkpt lat="23.704875" lon="112.279977">
<time>2016-10-06T11:32:03Z</time></trkpt>
<trkpt lat="23.705005" lon="112.279887">
<time>2016-10-06T11:32:04Z</time></trkpt>
<trkpt lat="23.705135" lon="112.279827">
<time>2016-10-06T11:32:05Z</time></trkpt>
<trkpt lat="23.705225" lon="112.279787">
<time>2016-10-06T11:32:06Z</time></trkpt>
<trkpt lat="23.705315" lon="112.279757">
<time>2016-10-06T11:32:07Z</time></trkpt>
<trkpt lat="23.705445" lon="112.279757">
<time>2016-10-06T11:32:08Z</time></trkpt>
<trkpt lat="23.705515" lon="112.279767">
<time>2016-10-06T11:32:09Z</time></trkpt>
<trkpt lat="23.705605" lon="112.279797">
<time>2016-10-06T11:32:10Z</time></trkpt>
<trkpt lat="23.705715" lon="112.279837">
<time>2016-10-06T11:32:11Z</time></trkpt>
<trkpt lat="23.705825" lon="112.279887">
<time>2016-10-06T11:32:12Z</time></trkpt>
<trkpt lat="23.705965" lon="112.279956">
<time>2016-10-06T11:32:13Z</time></trkpt>
<trkpt lat="23.706075" lon="112.280026">
<time>2016-10-06T11:32:14Z</time></trkpt>
<trkpt lat="23.706545" lon="112.280276">
<time>2016-10-06T11:32:15Z</time></trkpt>
<trkpt lat="23.706994" lon="112.280456">
<time>2016-10-06T11:32:16Z</time></trkpt>
<trkpt lat="23.707344" lon="112.280606">
<time>2016-10-06T11:32:17Z</time></trkpt>
<trkpt lat="23.707764" lon="112.280725">
<time>2016-10-06T11:32:18Z</time></trkpt>
<trkpt lat="23.708324" lon="112.280875">
<time>2016-10-06T11:32:19Z</time></trkpt>
<trkpt lat="23.708894" lon="112.281005">
<time>2016-10-06T11:32:20Z</time></trkpt>
<trkpt lat="23.709254" lon="112.281105">
<time>2016-10-06T11:32:21Z</time></trkpt>
<trkpt lat="23.709524" lon="112.281175">
<time>2016-10-06T11:32:22Z</time></trkpt>
<trkpt lat="23.709694" lon="112.281235">
<time>2016-10-06T11:32:23Z</time></trkpt>
<trkpt lat="23.709854" lon="112.281295">
<time>2016-10-06T11:32:24Z</time></trkpt>
<trkpt lat="23.710034" lon="112.281394">
<time>2016-10-06T11:32:25Z</time></trkpt>
<trkpt lat="23.710244" lon="112.281544">
<time>2016-10-06T11:32:26Z</time></trkpt>
<trkpt lat="23.710574" lon="112.281784">
<time>2016-10-06T11:32:27Z</time></trkpt>
<trkpt lat="23.710923" lon="112.282004">
<time>2016-10-06T11:32:28Z</time></trkpt>
<trkpt lat="23.711483" lon="112.282333">
<time>2016-10-06T11:32:29Z</time></trkpt>
<trkpt lat="23.712133" lon="112.282673">
<time>2016-10-06T11:32:30Z</time></trkpt>
<trkpt lat="23.712662" lon="112.282932">
<time>2016-10-06T11:32:31Z</time></trkpt>
<trkpt lat="23.713012" lon="112.283062">
<time>2016-10-06T11:32:32Z</time></trkpt>
<trkpt lat="23.713482" lon="112.283192">
<time>2016-10-06T11:32:33Z</time></trkpt>
<trkpt lat="23.714052" lon="112.283332">
<time>2016-10-06T11:32:34Z</time></trkpt>
<trkpt lat="23.714632" lon="112.283481">
<time>2016-10-06T11:32:35Z</time></trkpt>
<trkpt lat="23.715112" lon="112.283561">
<time>2016-10-06T11:32:36Z</time></trkpt>
<trkpt lat="23.715652" lon="112.283621">
<time>2016-10-06T11:32:37Z</time></trkpt>
<trkpt lat="23.716072" lon="112.283641">
<time>2016-10-06T11:32:38Z</time></trkpt>
<trkpt lat="23.716472" lon="112.283651">
<time>2016-10-06T11:32:39Z</time></trkpt>
<trkpt lat="23.716963" lon="112.283601">
<time>2016-10-06T11:32:40Z</time></trkpt>
<trkpt lat="23.717393" lon="112.283531">
<time>2016-10-06T11:32:41Z</time></trkpt>
<trkpt lat="23.718613" lon="112.283411">
<time>2016-10-06T11:32:42Z</time></trkpt>
<trkpt lat="23.719053" lon="112.283381">
<time>2016-10-06T11:32:43Z</time></trkpt>
<trkpt lat="23.719634" lon="112.283301">
<time>2016-10-06T11:32:44Z</time></trkpt>
<trkpt lat="23.720064" lon="112.283261">
<time>2016-10-06T11:32:45Z</time></trkpt>
<trkpt lat="23.720674" lon="112.283181">
<time>2016-10-06T11:32:46Z</time></trkpt>
<trkpt lat="23.721374" lon="112.283111">
<time>2016-10-06T11:32:47Z</time></trkpt>
<trkpt lat="23.721824" lon="112.283071">
<time>2016-10-06T11:32:48Z</time></trkpt>
<trkpt lat="23.722275" lon="112.282982">
<time>2016-10-06T11:32:49Z</time></trkpt>
<trkpt lat="23.722645" lon="112.282872">
<time>2016-10-06T11:32:50Z</time></trkpt>
<trkpt lat="23.723065" lon="112.282672">
<time>2016-10-06T11:32:51Z</time></trkpt>
<trkpt lat="23.723365" lon="112.282502">
<time>2016-10-06T11:32:52Z</time></trkpt>
<trkpt lat="23.723746" lon="112.282252">
<time>2016-10-06T11:32:53Z</time></trkpt>
<trkpt lat="23.724086" lon="112.281993">
<time>2016-10-06T11:32:54Z</time></trkpt>
<trkpt lat="23.724397" lon="112.281693">
<time>2016-10-06T11:32:55Z</time></trkpt>
<trkpt lat="23.724637" lon="112.281403">
<time>2016-10-06T11:32:56Z</time></trkpt>
<trkpt lat="23.724848" lon="112.281144">
<time>2016-10-06T11:32:57Z</time></trkpt>
<trkpt lat="23.725168" lon="112.280724">
<time>2016-10-06T11:32:58Z</time></trkpt>
<trkpt lat="23.725469" lon="112.280275">
<time>2016-10-06T11:32:59Z</time></trkpt>
<trkpt lat="23.72582" lon="112.279755">
<time>2016-10-06T11:33:00Z</time></trkpt>
<trkpt lat="23.72624" lon="112.279186">
<time>2016-10-06T11:33:01Z</time></trkpt>
<trkpt lat="23.726561" lon="112.278737">
<time>2016-10-06T11:33:02Z</time></trkpt>
<trkpt lat="23.726801" lon="112.278397">
<time>2016-10-06T11:33:03Z</time></trkpt>
<trkpt lat="23.727002" lon="112.278107">
<time>2016-10-06T11:33:04Z</time></trkpt>
<trkpt lat="23.727242" lon="112.277808">
<time>2016-10-06T11:33:05Z</time></trkpt>
<trkpt lat="23.727473" lon="112.277578">
<time>2016-10-06T11:33:06Z</time></trkpt>
<trkpt lat="23.727613" lon="112.277468">
<time>2016-10-06T11:33:07Z</time></trkpt>
<trkpt lat="23.727773" lon="112.277358">
<time>2016-10-06T11:33:08Z</time></trkpt>
<trkpt lat="23.728103" lon="112.277168">
<time>2016-10-06T11:33:09Z</time></trkpt>
<trkpt lat="23.728534" lon="112.276919">
<time>2016-10-06T11:33:10Z</time></trkpt>
<trkpt lat="23.729004" lon="112.276679">
<time>2016-10-06T11:33:11Z</time></trkpt>
<trkpt lat="23.729404" lon="112.276509">
<time>2016-10-06T11:33:12Z</time></trkpt>
<trkpt lat="23.729775" lon="112.276389">
<time>2016-10-06T11:33:13Z</time></trkpt>
<trkpt lat="23.730065" lon="112.276319">
<time>2016-10-06T11:33:14Z</time></trkpt>
<trkpt lat="23.730295" lon="112.276299">
<time>2016-10-06T11:33:15Z</time></trkpt>
<trkpt lat="23.730535" lon="112.276289">
<time>2016-10-06T11:33:16Z</time></trkpt>
<trkpt lat="23.730895" lon="112.276309">
<time>2016-10-06T11:33:17Z</time></trkpt>
<trkpt lat="23.731205" lon="112.276369">
<time>2016-10-06T11:33:18Z</time></trkpt>
<trkpt lat="23.731515" lon="112.276479">
<time>2016-10-06T11:33:19Z</time></trkpt>
<trkpt lat="23.731785" lon="112.276619">
<time>2016-10-06T11:33:20Z</time></trkpt>
<trkpt lat="23.732005" lon="112.276768">
<time>2016-10-06T11:33:21Z</time></trkpt>
<trkpt lat="23.732284" lon="112.276968">
<time>2016-10-06T11:33:22Z</time></trkpt>
<trkpt lat="23.732704" lon="112.277348">
<time>2016-10-06T11:33:23Z</time></trkpt>
<trkpt lat="23.733204" lon="112.277887">
<time>2016-10-06T11:33:24Z</time></trkpt>
<trkpt lat="23.733543" lon="112.278297">
<time>2016-10-06T11:33:25Z</time></trkpt>
<trkpt lat="23.733733" lon="112.278566">
<time>2016-10-06T11:33:26Z</time></trkpt>
<trkpt lat="23.734072" lon="112.279086">
<time>2016-10-06T11:33:27Z</time></trkpt>
<trkpt lat="23.734272" lon="112.279495">
<time>2016-10-06T11:33:28Z</time></trkpt>
<trkpt lat="23.734511" lon="112.279985">
<time>2016-10-06T11:33:29Z</time></trkpt>
<trkpt lat="23.734721" lon="112.280394">
<time>2016-10-06T11:33:30Z</time></trkpt>
<trkpt lat="23.73493" lon="112.280853">
<time>2016-10-06T11:33:31Z</time></trkpt>
<trkpt lat="23.73506" lon="112.281203">
<time>2016-10-06T11:33:32Z</time></trkpt>
<trkpt lat="23.73514" lon="112.281523">
<time>2016-10-06T11:33:33Z</time></trkpt>
<trkpt lat="23.735339" lon="112.282162">
<time>2016-10-06T11:33:34Z</time></trkpt>
<trkpt lat="23.735488" lon="112.282631">
<time>2016-10-06T11:33:35Z</time></trkpt>
<trkpt lat="23.735608" lon="112.282901">
<time>2016-10-06T11:33:36Z</time></trkpt>
<trkpt lat="23.735778" lon="112.2832">
<time>2016-10-06T11:33:37Z</time></trkpt>
<trkpt lat="23.735897" lon="112.28343">
<time>2016-10-06T11:33:38Z</time></trkpt>
<trkpt lat="23.736127" lon="112.283849">
<time>2016-10-06T11:33:39Z</time></trkpt>
<trkpt lat="23.736306" lon="112.284249">
<time>2016-10-06T11:33:40Z</time></trkpt>
<trkpt lat="23.736486" lon="112.284738">
<time>2016-10-06T11:33:41Z</time></trkpt>
<trkpt lat="23.736635" lon="112.285118">
<time>2016-10-06T11:33:42Z</time></trkpt>
<trkpt lat="23.736755" lon="112.285417">
<time>2016-10-06T11:33:43Z</time></trkpt>
<trkpt lat="23.736825" lon="112.285647">
<time>2016-10-06T11:33:44Z</time></trkpt>
<trkpt lat="23.736884" lon="112.285907">
<time>2016-10-06T11:33:45Z</time></trkpt>
<trkpt lat="23.736904" lon="112.286116">
<time>2016-10-06T11:33:46Z</time></trkpt>
<trkpt lat="23.736934" lon="112.286366">
<time>2016-10-06T11:33:47Z</time></trkpt>
<trkpt lat="23.736993" lon="112.286685">
<time>2016-10-06T11:33:48Z</time></trkpt>
<trkpt lat="23.737112" lon="112.287145">
<time>2016-10-06T11:33:49Z</time></trkpt>
<trkpt lat="23.737212" lon="112.287474">
<time>2016-10-06T11:33:50Z</time></trkpt>
<trkpt lat="23.737312" lon="112.287814">
<time>2016-10-06T11:33:51Z</time></trkpt>
<trkpt lat="23.737491" lon="112.288343">
<time>2016-10-06T11:33:52Z</time></trkpt>
<trkpt lat="23.73764" lon="112.288822">
<time>2016-10-06T11:33:53Z</time></trkpt>
<trkpt lat="23.73777" lon="112.289172">
<time>2016-10-06T11:33:54Z</time></trkpt>
<trkpt lat="23.737869" lon="112.289401">
<time>2016-10-06T11:33:55Z</time></trkpt>
<trkpt lat="23.737929" lon="112.289551">
<time>2016-10-06T11:33:56Z</time></trkpt>
<trkpt lat="23.738009" lon="112.289671">
<time>2016-10-06T11:33:57Z</time></trkpt>
<trkpt lat="23.738089" lon="112.289771">
<time>2016-10-06T11:33:58Z</time></trkpt>
<trkpt lat="23.738129" lon="112.289821">
<time>2016-10-06T11:33:59Z</time></trkpt>
<trkpt lat="23.738239" lon="112.289921">
<time>2016-10-06T11:34:00Z</time></trkpt>
<trkpt lat="23.738478" lon="112.29011">
<time>2016-10-06T11:34:01Z</time></trkpt>
<trkpt lat="23.738718" lon="112.29028">
<time>2016-10-06T11:34:02Z</time></trkpt>
<trkpt lat="23.739028" lon="112.2905">
<time>2016-10-06T11:34:03Z</time></trkpt>
<trkpt lat="23.739318" lon="112.290729">
<time>2016-10-06T11:34:04Z</time></trkpt>
<trkpt lat="23.739488" lon="112.290879">
<time>2016-10-06T11:34:05Z</time></trkpt>
<trkpt lat="23.739587" lon="112.290969">
<time>2016-10-06T11:34:06Z</time></trkpt>
<trkpt lat="23.739767" lon="112.291149">
<time>2016-10-06T11:34:07Z</time></trkpt>
<trkpt lat="23.739897" lon="112.291298">
<time>2016-10-06T11:34:08Z</time></trkpt>
<trkpt lat="23.739987" lon="112.291418">
<time>2016-10-06T11:34:09Z</time></trkpt>
<trkpt lat="23.740087" lon="112.291578">
<time>2016-10-06T11:34:10Z</time></trkpt>
<trkpt lat="23.740146" lon="112.291678">
<time>2016-10-06T11:34:11Z</time></trkpt>
<trkpt lat="23.740296" lon="112.291917">
<time>2016-10-06T11:34:12Z</time></trkpt>
<trkpt lat="23.740396" lon="112.292047">
<time>2016-10-06T11:34:13Z</time></trkpt>
<trkpt lat="23.740506" lon="112.292147">
<time>2016-10-06T11:34:14Z</time></trkpt>
<trkpt lat="23.740776" lon="112.292317">
<time>2016-10-06T11:34:15Z</time></trkpt>
<trkpt lat="23.741135" lon="112.292516">
<time>2016-10-06T11:34:16Z</time></trkpt>
<trkpt lat="23.741245" lon="112.292576">
<time>2016-10-06T11:34:17Z</time></trkpt>
<trkpt lat="23.741565" lon="112.292736">
<time>2016-10-06T11:34:18Z</time></trkpt>
<trkpt lat="23.741985" lon="112.292986">
<time>2016-10-06T11:34:19Z</time></trkpt>
<trkpt lat="23.742405" lon="112.293225">
<time>2016-10-06T11:34:20Z</time></trkpt>
<trkpt lat="23.742774" lon="112.293455">
<time>2016-10-06T11:34:21Z</time></trkpt>
<trkpt lat="23.742914" lon="112.293515">
<time>2016-10-06T11:34:22Z</time></trkpt>
<trkpt lat="23.743044" lon="112.293555">
<time>2016-10-06T11:34:23Z</time></trkpt>
<trkpt lat="23.743184" lon="112.293575">
<time>2016-10-06T11:34:24Z</time></trkpt>
<trkpt lat="23.743314" lon="112.293595">
<time>2016-10-06T11:34:25Z</time></trkpt>
<trkpt lat="23.743454" lon="112.293615">
<time>2016-10-06T11:34:26Z</time></trkpt>
<trkpt lat="23.743584" lon="112.293625">
<time>2016-10-06T11:34:27Z</time></trkpt>
<trkpt lat="23.743734" lon="112.293625">
<time>2016-10-06T11:34:28Z</time></trkpt>
<trkpt lat="23.743904" lon="112.293624">
<time>2016-10-06T11:34:29Z</time></trkpt>
<trkpt lat="23.744164" lon="112.293585">
<time>2016-10-06T11:34:30Z</time></trkpt>
<trkpt lat="23.744545" lon="112.293505">
<time>2016-10-06T11:34:31Z</time></trkpt>
<trkpt lat="23.744985" lon="112.293365">
<time>2016-10-06T11:34:32Z</time></trkpt>
<trkpt lat="23.745385" lon="112.293235">
<time>2016-10-06T11:34:33Z</time></trkpt>
<trkpt lat="23.745776" lon="112.293105">
<time>2016-10-06T11:34:34Z</time></trkpt>
<trkpt lat="23.746306" lon="112.292975">
<time>2016-10-06T11:34:35Z</time></trkpt>
<trkpt lat="23.746946" lon="112.292836">
<time>2016-10-06T11:34:36Z</time></trkpt>
<trkpt lat="23.747407" lon="112.292756">
<time>2016-10-06T11:34:37Z</time></trkpt>
<trkpt lat="23.747597" lon="112.292756">
<time>2016-10-06T11:34:38Z</time></trkpt>
<trkpt lat="23.747757" lon="112.292786">
<time>2016-10-06T11:34:39Z</time></trkpt>
<trkpt lat="23.747867" lon="112.292826">
<time>2016-10-06T11:34:40Z</time></trkpt>
<trkpt lat="23.747967" lon="112.292885">
<time>2016-10-06T11:34:41Z</time></trkpt>
<trkpt lat="23.748036" lon="112.292985">
<time>2016-10-06T11:34:42Z</time></trkpt>
<trkpt lat="23.748086" lon="112.293075">
<time>2016-10-06T11:34:43Z</time></trkpt>
<trkpt lat="23.748126" lon="112.293165">
<time>2016-10-06T11:34:44Z</time></trkpt>
<trkpt lat="23.748146" lon="112.293335">
<time>2016-10-06T11:34:45Z</time></trkpt>
<trkpt lat="23.748146" lon="112.293544">
<time>2016-10-06T11:34:46Z</time></trkpt>
<trkpt lat="23.748115" lon="112.293754">
<time>2016-10-06T11:34:47Z</time></trkpt>
<trkpt lat="23.748055" lon="112.294143">
<time>2016-10-06T11:34:48Z</time></trkpt>
<trkpt lat="23.747994" lon="112.294573">
<time>2016-10-06T11:34:49Z</time></trkpt>
<trkpt lat="23.747933" lon="112.294922">
<time>2016-10-06T11:34:50Z</time></trkpt>
<trkpt lat="23.747883" lon="112.295292">
<time>2016-10-06T11:34:51Z</time></trkpt>
<trkpt lat="23.747872" lon="112.295531">
<time>2016-10-06T11:34:52Z</time></trkpt>
<trkpt lat="23.747902" lon="112.295741">
<time>2016-10-06T11:34:53Z</time></trkpt>
<trkpt lat="23.747942" lon="112.29594">
<time>2016-10-06T11:34:54Z</time></trkpt>
<trkpt lat="23.747991" lon="112.29608">
<time>2016-10-06T11:34:55Z</time></trkpt>
<trkpt lat="23.748051" lon="112.29622">
<time>2016-10-06T11:34:56Z</time></trkpt>
<trkpt lat="23.74836" lon="112.296719">
<time>2016-10-06T11:34:57Z</time></trkpt>
<trkpt lat="23.74874" lon="112.297268">
<time>2016-10-06T11:34:58Z</time></trkpt>
<trkpt lat="23.749009" lon="112.297687">
<time>2016-10-06T11:34:59Z</time></trkpt>
<trkpt lat="23.749777" lon="112.298825">
<time>2016-10-06T11:35:00Z</time></trkpt>
<trkpt lat="23.749987" lon="112.299115">
<time>2016-10-06T11:35:01Z</time></trkpt>
<trkpt lat="23.750825" lon="112.300303">
<time>2016-10-06T11:35:02Z</time></trkpt>
<trkpt lat="23.751354" lon="112.301061">
<time>2016-10-06T11:35:03Z</time></trkpt>
<trkpt lat="23.752192" lon="112.302319">
<time>2016-10-06T11:35:04Z</time></trkpt>
<trkpt lat="23.752791" lon="112.303217">
<time>2016-10-06T11:35:05Z</time></trkpt>
<trkpt lat="23.75313" lon="112.303727">
<time>2016-10-06T11:35:06Z</time></trkpt>
<trkpt lat="23.753419" lon="112.304236">
<time>2016-10-06T11:35:07Z</time></trkpt>
<trkpt lat="23.753927" lon="112.305234">
<time>2016-10-06T11:35:08Z</time></trkpt>
<trkpt lat="23.754117" lon="112.305623">
<time>2016-10-06T11:35:09Z</time></trkpt>
<trkpt lat="23.754276" lon="112.306042">
<time>2016-10-06T11:35:10Z</time></trkpt>
<trkpt lat="23.754405" lon="112.306541">
<time>2016-10-06T11:35:11Z</time></trkpt>
<trkpt lat="23.754544" lon="112.30709">
<time>2016-10-06T11:35:12Z</time></trkpt>
<trkpt lat="23.754703" lon="112.307699">
<time>2016-10-06T11:35:13Z</time></trkpt>
<trkpt lat="23.754793" lon="112.307959">
<time>2016-10-06T11:35:14Z</time></trkpt>
<trkpt lat="23.754912" lon="112.308198">
<time>2016-10-06T11:35:15Z</time></trkpt>
<trkpt lat="23.755151" lon="112.308597">
<time>2016-10-06T11:35:16Z</time></trkpt>
<trkpt lat="23.755291" lon="112.308807">
<time>2016-10-06T11:35:17Z</time></trkpt>
<trkpt lat="23.75564" lon="112.309296">
<time>2016-10-06T11:35:18Z</time></trkpt>
<trkpt lat="23.756169" lon="112.310005">
<time>2016-10-06T11:35:19Z</time></trkpt>
<trkpt lat="23.756928" lon="112.310913">
<time>2016-10-06T11:35:20Z</time></trkpt>
<trkpt lat="23.757167" lon="112.311112">
<time>2016-10-06T11:35:21Z</time></trkpt>
<trkpt lat="23.757537" lon="112.311372">
<time>2016-10-06T11:35:22Z</time></trkpt>
<trkpt lat="23.758077" lon="112.311721">
<time>2016-10-06T11:35:23Z</time></trkpt>
<trkpt lat="23.758956" lon="112.31227">
<time>2016-10-06T11:35:24Z</time></trkpt>
<trkpt lat="23.759205" lon="112.31245">
<time>2016-10-06T11:35:25Z</time></trkpt>
<trkpt lat="23.759395" lon="112.312619">
<time>2016-10-06T11:35:26Z</time></trkpt>
<trkpt lat="23.759545" lon="112.312809">
<time>2016-10-06T11:35:27Z</time></trkpt>
<trkpt lat="23.759804" lon="112.313208">
<time>2016-10-06T11:35:28Z</time></trkpt>
<trkpt lat="23.760034" lon="112.313548">
<time>2016-10-06T11:35:29Z</time></trkpt>
<trkpt lat="23.760133" lon="112.313677">
<time>2016-10-06T11:35:30Z</time></trkpt>
<trkpt lat="23.760233" lon="112.313767">
<time>2016-10-06T11:35:31Z</time></trkpt>
<trkpt lat="23.760333" lon="112.313837">
<time>2016-10-06T11:35:32Z</time></trkpt>
<trkpt lat="23.760403" lon="112.313867">
<time>2016-10-06T11:35:33Z</time></trkpt>
<trkpt lat="23.760463" lon="112.313897">
<time>2016-10-06T11:35:34Z</time></trkpt>
<trkpt lat="23.760643" lon="112.313947">
<time>2016-10-06T11:35:35Z</time></trkpt>
<trkpt lat="23.760833" lon="112.313977">
<time>2016-10-06T11:35:36Z</time></trkpt>
<trkpt lat="23.760993" lon="112.313957">
<time>2016-10-06T11:35:37Z</time></trkpt>
<trkpt lat="23.761083" lon="112.313947">
<time>2016-10-06T11:35:38Z</time></trkpt>
<trkpt lat="23.761213" lon="112.313937">
<time>2016-10-06T11:35:39Z</time></trkpt>
<trkpt lat="23.762464" lon="112.313787">
<time>2016-10-06T11:35:40Z</time></trkpt>
<trkpt lat="23.762814" lon="112.313727">
<time>2016-10-06T11:35:41Z</time></trkpt>
<trkpt lat="23.762994" lon="112.313677">
<time>2016-10-06T11:35:42Z</time></trkpt>
<trkpt lat="23.763435" lon="112.313497">
<time>2016-10-06T11:35:43Z</time></trkpt>
<trkpt lat="23.763725" lon="112.313348">
<time>2016-10-06T11:35:44Z</time></trkpt>
<trkpt lat="23.764156" lon="112.313088">
<time>2016-10-06T11:35:45Z</time></trkpt>
<trkpt lat="23.764376" lon="112.312928">
<time>2016-10-06T11:35:46Z</time></trkpt>
<trkpt lat="23.764777" lon="112.312589">
<time>2016-10-06T11:35:47Z</time></trkpt>
<trkpt lat="23.765628" lon="112.311771">
<time>2016-10-06T11:35:48Z</time></trkpt>
<trkpt lat="23.76645" lon="112.311012">
<time>2016-10-06T11:35:49Z</time></trkpt>
<trkpt lat="23.76662" lon="112.310872">
<time>2016-10-06T11:35:50Z</time></trkpt>
<trkpt lat="23.766801" lon="112.310753">
<time>2016-10-06T11:35:51Z</time></trkpt>
<trkpt lat="23.766981" lon="112.310663">
<time>2016-10-06T11:35:52Z</time></trkpt>
<trkpt lat="23.767161" lon="112.310593">
<time>2016-10-06T11:35:53Z</time></trkpt>
<trkpt lat="23.767361" lon="112.310543">
<time>2016-10-06T11:35:54Z</time></trkpt>
<trkpt lat="23.767511" lon="112.310523">
<time>2016-10-06T11:35:55Z</time></trkpt>
<trkpt lat="23.767661" lon="112.310523">
<time>2016-10-06T11:35:56Z</time></trkpt>
<trkpt lat="23.767851" lon="112.310533">
<time>2016-10-06T11:35:57Z</time></trkpt>
<trkpt lat="23.768111" lon="112.310563">
<time>2016-10-06T11:35:58Z</time></trkpt>
<trkpt lat="23.768321" lon="112.310613">
<time>2016-10-06T11:35:59Z</time></trkpt>
<trkpt lat="23.768531" lon="112.310663">
<time>2016-10-06T11:36:00Z</time></trkpt>
<trkpt lat="23.768771" lon="112.310752">
<time>2016-10-06T11:36:01Z</time></trkpt>
<trkpt lat="23.768991" lon="112.310832">
<time>2016-10-06T11:36:02Z</time></trkpt>
<trkpt lat="23.769181" lon="112.310942">
<time>2016-10-06T11:36:03Z</time></trkpt>
<trkpt lat="23.769351" lon="112.311052">
<time>2016-10-06T11:36:04Z</time></trkpt>
<trkpt lat="23.769501" lon="112.311172">
<time>2016-10-06T11:36:05Z</time></trkpt>
<trkpt lat="23.76983" lon="112.311461">
<time>2016-10-06T11:36:06Z</time></trkpt>
<trkpt lat="23.772786" lon="112.314166">
<time>2016-10-06T11:36:07Z</time></trkpt>
<trkpt lat="23.773355" lon="112.314684">
<time>2016-10-06T11:36:08Z</time></trkpt>
<trkpt lat="23.773475" lon="112.314774">
<time>2016-10-06T11:36:09Z</time></trkpt>
<trkpt lat="23.773575" lon="112.314854">
<time>2016-10-06T11:36:10Z</time></trkpt>
<trkpt lat="23.773675" lon="112.314904">
<time>2016-10-06T11:36:11Z</time></trkpt>
<trkpt lat="23.773775" lon="112.314944">
<time>2016-10-06T11:36:12Z</time></trkpt>
<trkpt lat="23.773875" lon="112.314984">
<time>2016-10-06T11:36:13Z</time></trkpt>
<trkpt lat="23.773975" lon="112.314994">
<time>2016-10-06T11:36:14Z</time></trkpt>
<trkpt lat="23.774035" lon="112.315004">
<time>2016-10-06T11:36:15Z</time></trkpt>
<trkpt lat="23.774085" lon="112.315004">
<time>2016-10-06T11:36:16Z</time></trkpt>
<trkpt lat="23.774135" lon="112.315004">
<time>2016-10-06T11:36:17Z</time></trkpt>
<trkpt lat="23.774195" lon="112.314994">
<time>2016-10-06T11:36:18Z</time></trkpt>
<trkpt lat="23.774245" lon="112.314974">
<time>2016-10-06T11:36:19Z</time></trkpt>
<trkpt lat="23.774295" lon="112.314954">
<time>2016-10-06T11:36:20Z</time></trkpt>
<trkpt lat="23.774355" lon="112.314914">
<time>2016-10-06T11:36:21Z</time></trkpt>
<trkpt lat="23.774425" lon="112.314854">
<time>2016-10-06T11:36:22Z</time></trkpt>
<trkpt lat="23.774495" lon="112.314774">
<time>2016-10-06T11:36:23Z</time></trkpt>
<trkpt lat="23.774606" lon="112.314644">
<time>2016-10-06T11:36:24Z</time></trkpt>
<trkpt lat="23.775157" lon="112.313906">
<time>2016-10-06T11:36:25Z</time></trkpt>
<trkpt lat="23.775247" lon="112.313816">
<time>2016-10-06T11:36:26Z</time></trkpt>
<trkpt lat="23.775368" lon="112.313726">
<time>2016-10-06T11:36:27Z</time></trkpt>
<trkpt lat="23.775488" lon="112.313636">
<time>2016-10-06T11:36:28Z</time></trkpt>
<trkpt lat="23.775628" lon="112.313576">
<time>2016-10-06T11:36:29Z</time></trkpt>
<trkpt lat="23.775858" lon="112.313477">
<time>2016-10-06T11:36:30Z</time></trkpt>
<trkpt lat="23.777199" lon="112.313017">
<time>2016-10-06T11:36:31Z</time></trkpt>
<trkpt lat="23.77777" lon="112.312798">
<time>2016-10-06T11:36:32Z</time></trkpt>
<trkpt lat="23.778461" lon="112.312498">
<time>2016-10-06T11:36:33Z</time></trkpt>
<trkpt lat="23.778671" lon="112.312389">
<time>2016-10-06T11:36:34Z</time></trkpt>
<trkpt lat="23.778851" lon="112.312289">
<time>2016-10-06T11:36:35Z</time></trkpt>
<trkpt lat="23.779012" lon="112.312179">
<time>2016-10-06T11:36:36Z</time></trkpt>
<trkpt lat="23.779242" lon="112.311999">
<time>2016-10-06T11:36:37Z</time></trkpt>
<trkpt lat="23.780144" lon="112.311211">
<time>2016-10-06T11:36:38Z</time></trkpt>
<trkpt lat="23.780605" lon="112.310772">
<time>2016-10-06T11:36:39Z</time></trkpt>
<trkpt lat="23.781026" lon="112.310332">
<time>2016-10-06T11:36:40Z</time></trkpt>
<trkpt lat="23.782198" lon="112.309025">
<time>2016-10-06T11:36:41Z</time></trkpt>
<trkpt lat="23.782379" lon="112.308785">
<time>2016-10-06T11:36:42Z</time></trkpt>
<trkpt lat="23.782509" lon="112.308556">
<time>2016-10-06T11:36:43Z</time></trkpt>
<trkpt lat="23.7826" lon="112.308346">
<time>2016-10-06T11:36:44Z</time></trkpt>
<trkpt lat="23.78266" lon="112.308126">
<time>2016-10-06T11:36:45Z</time></trkpt>
<trkpt lat="23.78269" lon="112.307947">
<time>2016-10-06T11:36:46Z</time></trkpt>
<trkpt lat="23.782711" lon="112.307767">
<time>2016-10-06T11:36:47Z</time></trkpt>
<trkpt lat="23.782721" lon="112.307557">
<time>2016-10-06T11:36:48Z</time></trkpt>
<trkpt lat="23.782712" lon="112.307248">
<time>2016-10-06T11:36:49Z</time></trkpt>
<trkpt lat="23.782692" lon="112.307068">
<time>2016-10-06T11:36:50Z</time></trkpt>
<trkpt lat="23.782642" lon="112.306889">
<time>2016-10-06T11:36:51Z</time></trkpt>
<trkpt lat="23.782553" lon="112.306619">
<time>2016-10-06T11:36:52Z</time></trkpt>
<trkpt lat="23.782463" lon="112.30639">
<time>2016-10-06T11:36:53Z</time></trkpt>
<trkpt lat="23.782224" lon="112.305891">
<time>2016-10-06T11:36:54Z</time></trkpt>
<trkpt lat="23.781935" lon="112.305342">
<time>2016-10-06T11:36:55Z</time></trkpt>
<trkpt lat="23.781017" lon="112.303795">
<time>2016-10-06T11:36:56Z</time></trkpt>
<trkpt lat="23.780389" lon="112.302856">
<time>2016-10-06T11:36:57Z</time></trkpt>
<trkpt lat="23.778822" lon="112.300521">
<time>2016-10-06T11:36:58Z</time></trkpt>
<trkpt lat="23.778743" lon="112.300361">
<time>2016-10-06T11:36:59Z</time></trkpt>
<trkpt lat="23.778663" lon="112.300181">
<time>2016-10-06T11:37:00Z</time></trkpt>
<trkpt lat="23.778633" lon="112.300041">
<time>2016-10-06T11:37:01Z</time></trkpt>
<trkpt lat="23.778604" lon="112.299882">
<time>2016-10-06T11:37:02Z</time></trkpt>
<trkpt lat="23.778614" lon="112.299742">
<time>2016-10-06T11:37:03Z</time></trkpt>
<trkpt lat="23.778634" lon="112.299612">
<time>2016-10-06T11:37:04Z</time></trkpt>
<trkpt lat="23.778664" lon="112.299482">
<time>2016-10-06T11:37:05Z</time></trkpt>
<trkpt lat="23.778735" lon="112.299333">
<time>2016-10-06T11:37:06Z</time></trkpt>
<trkpt lat="23.778825" lon="112.299193">
<time>2016-10-06T11:37:07Z</time></trkpt>
<trkpt lat="23.779075" lon="112.298873">
<time>2016-10-06T11:37:08Z</time></trkpt>
<trkpt lat="23.779326" lon="112.298584">
<time>2016-10-06T11:37:09Z</time></trkpt>
<trkpt lat="23.779616" lon="112.298304">
<time>2016-10-06T11:37:10Z</time></trkpt>
<trkpt lat="23.779817" lon="112.298145">
<time>2016-10-06T11:37:11Z</time></trkpt>
<trkpt lat="23.780087" lon="112.297965">
<time>2016-10-06T11:37:12Z</time></trkpt>
<trkpt lat="23.780628" lon="112.297655">
<time>2016-10-06T11:37:13Z</time></trkpt>
<trkpt lat="23.78204" lon="112.296907">
<time>2016-10-06T11:37:14Z</time></trkpt>
<trkpt lat="23.78235" lon="112.296777">
<time>2016-10-06T11:37:15Z</time></trkpt>
<trkpt lat="23.78265" lon="112.296677">
<time>2016-10-06T11:37:16Z</time></trkpt>
<trkpt lat="23.78286" lon="112.296627">
<time>2016-10-06T11:37:17Z</time></trkpt>
<trkpt lat="23.78309" lon="112.296587">
<time>2016-10-06T11:37:18Z</time></trkpt>
<trkpt lat="23.78329" lon="112.296557">
<time>2016-10-06T11:37:19Z</time></trkpt>
<trkpt lat="23.784031" lon="112.296497">
<time>2016-10-06T11:37:20Z</time></trkpt>
<trkpt lat="23.784271" lon="112.296467">
<time>2016-10-06T11:37:21Z</time></trkpt>
<trkpt lat="23.784441" lon="112.296437">
<time>2016-10-06T11:37:22Z</time></trkpt>
<trkpt lat="23.784711" lon="112.296357">
<time>2016-10-06T11:37:23Z</time></trkpt>
<trkpt lat="23.784951" lon="112.296287">
<time>2016-10-06T11:37:24Z</time></trkpt>
<trkpt lat="23.786633" lon="112.295638">
<time>2016-10-06T11:37:25Z</time></trkpt>
<trkpt lat="23.786793" lon="112.295548">
<time>2016-10-06T11:37:26Z</time></trkpt>
<trkpt lat="23.786943" lon="112.295469">
<time>2016-10-06T11:37:27Z</time></trkpt>
<trkpt lat="23.787054" lon="112.295399">
<time>2016-10-06T11:37:28Z</time></trkpt>
<trkpt lat="23.787174" lon="112.295309">
<time>2016-10-06T11:37:29Z</time></trkpt>
<trkpt lat="23.787304" lon="112.295209">
<time>2016-10-06T11:37:30Z</time></trkpt>
<trkpt lat="23.787454" lon="112.295079">
<time>2016-10-06T11:37:31Z</time></trkpt>
<trkpt lat="23.788436" lon="112.294131">
<time>2016-10-06T11:37:32Z</time></trkpt>
<trkpt lat="23.788566" lon="112.294001">
<time>2016-10-06T11:37:33Z</time></trkpt>
<trkpt lat="23.788686" lon="112.293921">
<time>2016-10-06T11:37:34Z</time></trkpt>
<trkpt lat="23.788776" lon="112.293861">
<time>2016-10-06T11:37:35Z</time></trkpt>
<trkpt lat="23.788857" lon="112.293821">
<time>2016-10-06T11:37:36Z</time></trkpt>
<trkpt lat="23.788937" lon="112.293791">
<time>2016-10-06T11:37:37Z</time></trkpt>
<trkpt lat="23.789017" lon="112.293771">
<time>2016-10-06T11:37:38Z</time></trkpt>
<trkpt lat="23.789087" lon="112.293751">
<time>2016-10-06T11:37:39Z</time></trkpt>
<trkpt lat="23.789227" lon="112.293731">
<time>2016-10-06T11:37:40Z</time></trkpt>
<trkpt lat="23.789227" lon="112.293731">
<time>2016-10-06T11:37:41Z</time></trkpt>
<trkpt lat="23.789397" lon="112.293741">
<time>2016-10-06T11:37:42Z</time></trkpt>
<trkpt lat="23.790297" lon="112.293691">
<time>2016-10-06T11:37:43Z</time></trkpt>
<trkpt lat="23.790937" lon="112.293671">
<time>2016-10-06T11:37:44Z</time></trkpt>
<trkpt lat="23.791658" lon="112.293641">
<time>2016-10-06T11:37:45Z</time></trkpt>
<trkpt lat="23.791808" lon="112.293631">
<time>2016-10-06T11:37:46Z</time></trkpt>
<trkpt lat="23.791948" lon="112.293611">
<time>2016-10-06T11:37:47Z</time></trkpt>
<trkpt lat="23.792088" lon="112.293581">
<time>2016-10-06T11:37:48Z</time></trkpt>
<trkpt lat="23.792238" lon="112.293541">
<time>2016-10-06T11:37:49Z</time></trkpt>
<trkpt lat="23.792378" lon="112.293491">
<time>2016-10-06T11:37:50Z</time></trkpt>
<trkpt lat="23.792648" lon="112.293352">
<time>2016-10-06T11:37:51Z</time></trkpt>
<trkpt lat="23.79368" lon="112.292822">
<time>2016-10-06T11:37:52Z</time></trkpt>
<trkpt lat="23.79391" lon="112.292703">
<time>2016-10-06T11:37:53Z</time></trkpt>
<trkpt lat="23.79411" lon="112.292623">
<time>2016-10-06T11:37:54Z</time></trkpt>
<trkpt lat="23.79429" lon="112.292573">
<time>2016-10-06T11:37:55Z</time></trkpt>
<trkpt lat="23.79451" lon="112.292523">
<time>2016-10-06T11:37:56Z</time></trkpt>
<trkpt lat="23.79474" lon="112.292493">
<time>2016-10-06T11:37:57Z</time></trkpt>
<trkpt lat="23.794951" lon="112.292493">
<time>2016-10-06T11:37:58Z</time></trkpt>
<trkpt lat="23.795561" lon="112.292503">
<time>2016-10-06T11:37:59Z</time></trkpt>
<trkpt lat="23.795941" lon="112.292513">
<time>2016-10-06T11:38:00Z</time></trkpt>
<trkpt lat="23.796211" lon="112.292493">
<time>2016-10-06T11:38:01Z</time></trkpt>
<trkpt lat="23.796441" lon="112.292443">
<time>2016-10-06T11:38:02Z</time></trkpt>
<trkpt lat="23.796731" lon="112.292373">
<time>2016-10-06T11:38:03Z</time></trkpt>
<trkpt lat="23.797001" lon="112.292273">
<time>2016-10-06T11:38:04Z</time></trkpt>
<trkpt lat="23.797542" lon="112.292073">
<time>2016-10-06T11:38:05Z</time></trkpt>
<trkpt lat="23.798353" lon="112.291794">
<time>2016-10-06T11:38:06Z</time></trkpt>
<trkpt lat="23.798663" lon="112.291654">
<time>2016-10-06T11:38:07Z</time></trkpt>
<trkpt lat="23.799394" lon="112.291424">
<time>2016-10-06T11:38:08Z</time></trkpt>
<trkpt lat="23.799714" lon="112.291334">
<time>2016-10-06T11:38:09Z</time></trkpt>
<trkpt lat="23.800064" lon="112.291264">
<time>2016-10-06T11:38:10Z</time></trkpt>
<trkpt lat="23.801585" lon="112.290965">
<time>2016-10-06T11:38:11Z</time></trkpt>
<trkpt lat="23.801795" lon="112.290925">
<time>2016-10-06T11:38:12Z</time></trkpt>
<trkpt lat="23.801945" lon="112.290875">
<time>2016-10-06T11:38:13Z</time></trkpt>
<trkpt lat="23.802085" lon="112.290805">
<time>2016-10-06T11:38:14Z</time></trkpt>
<trkpt lat="23.802245" lon="112.290725">
<time>2016-10-06T11:38:15Z</time></trkpt>
<trkpt lat="23.802396" lon="112.290625">
<time>2016-10-06T11:38:16Z</time></trkpt>
<trkpt lat="23.804979" lon="112.288918">
<time>2016-10-06T11:38:17Z</time></trkpt>
<trkpt lat="23.805039" lon="112.288868">
<time>2016-10-06T11:38:18Z</time></trkpt>
<trkpt lat="23.805099" lon="112.288808">
<time>2016-10-06T11:38:19Z</time></trkpt>
<trkpt lat="23.805149" lon="112.288758">
<time>2016-10-06T11:38:20Z</time></trkpt>
<trkpt lat="23.805199" lon="112.288698">
<time>2016-10-06T11:38:21Z</time></trkpt>
<trkpt lat="23.80524" lon="112.288638">
<time>2016-10-06T11:38:22Z</time></trkpt>
<trkpt lat="23.80529" lon="112.288558">
<time>2016-10-06T11:38:23Z</time></trkpt>
<trkpt lat="23.80532" lon="112.288488">
<time>2016-10-06T11:38:24Z</time></trkpt>
<trkpt lat="23.80535" lon="112.288408">
<time>2016-10-06T11:38:25Z</time></trkpt>
<trkpt lat="23.80538" lon="112.288319">
<time>2016-10-06T11:38:26Z</time></trkpt>
<trkpt lat="23.8054" lon="112.288199">
<time>2016-10-06T11:38:27Z</time></trkpt>
<trkpt lat="23.80541" lon="112.288089">
<time>2016-10-06T11:38:28Z</time></trkpt>
<trkpt lat="23.805411" lon="112.287979">
<time>2016-10-06T11:38:29Z</time></trkpt>
<trkpt lat="23.805401" lon="112.287839">
<time>2016-10-06T11:38:30Z</time></trkpt>
<trkpt lat="23.805381" lon="112.28765">
<time>2016-10-06T11:38:31Z</time></trkpt>
<trkpt lat="23.805351" lon="112.28739">
<time>2016-10-06T11:38:32Z</time></trkpt>
<trkpt lat="23.805302" lon="112.28709">
<time>2016-10-06T11:38:33Z</time></trkpt>
<trkpt lat="23.804935" lon="112.284814">
<time>2016-10-06T11:38:34Z</time></trkpt>
<trkpt lat="23.804915" lon="112.284644">
<time>2016-10-06T11:38:35Z</time></trkpt>
<trkpt lat="23.804905" lon="112.284454">
<time>2016-10-06T11:38:36Z</time></trkpt>
<trkpt lat="23.804906" lon="112.284244">
<time>2016-10-06T11:38:37Z</time></trkpt>
<trkpt lat="23.804916" lon="112.284055">
<time>2016-10-06T11:38:38Z</time></trkpt>
<trkpt lat="23.804946" lon="112.283865">
<time>2016-10-06T11:38:39Z</time></trkpt>
<trkpt lat="23.805017" lon="112.283625">
<time>2016-10-06T11:38:40Z</time></trkpt>
<trkpt lat="23.805157" lon="112.283266">
<time>2016-10-06T11:38:41Z</time></trkpt>
<trkpt lat="23.805267" lon="112.283006">
<time>2016-10-06T11:38:42Z</time></trkpt>
<trkpt lat="23.805789" lon="112.281798">
<time>2016-10-06T11:38:43Z</time></trkpt>
<trkpt lat="23.805859" lon="112.281618">
<time>2016-10-06T11:38:44Z</time></trkpt>
<trkpt lat="23.80596" lon="112.281368">
<time>2016-10-06T11:38:45Z</time></trkpt>
<trkpt lat="23.80608" lon="112.281148">
<time>2016-10-06T11:38:46Z</time></trkpt>
<trkpt lat="23.80621" lon="112.280979">
<time>2016-10-06T11:38:47Z</time></trkpt>
<trkpt lat="23.806321" lon="112.280879">
<time>2016-10-06T11:38:48Z</time></trkpt>
<trkpt lat="23.806451" lon="112.280799">
<time>2016-10-06T11:38:49Z</time></trkpt>
<trkpt lat="23.806601" lon="112.280739">
<time>2016-10-06T11:38:50Z</time></trkpt>
<trkpt lat="23.806751" lon="112.280699">
<time>2016-10-06T11:38:51Z</time></trkpt>
<trkpt lat="23.807091" lon="112.280639">
<time>2016-10-06T11:38:52Z</time></trkpt>
<trkpt lat="23.809522" lon="112.280199">
<time>2016-10-06T11:38:53Z</time></trkpt>
<trkpt lat="23.809853" lon="112.280149">
<time>2016-10-06T11:38:54Z</time></trkpt>
<trkpt lat="23.810233" lon="112.280099">
<time>2016-10-06T11:38:55Z</time></trkpt>
<trkpt lat="23.810653" lon="112.280059">
<time>2016-10-06T11:38:56Z</time></trkpt>
<trkpt lat="23.810983" lon="112.280049">
<time>2016-10-06T11:38:57Z</time></trkpt>
<trkpt lat="23.811383" lon="112.280049">
<time>2016-10-06T11:38:58Z</time></trkpt>
<trkpt lat="23.812123" lon="112.280079">
<time>2016-10-06T11:38:59Z</time></trkpt>
<trkpt lat="23.812624" lon="112.280129">
<time>2016-10-06T11:39:00Z</time></trkpt>
<trkpt lat="23.813034" lon="112.280179">
<time>2016-10-06T11:39:01Z</time></trkpt>
<trkpt lat="23.813484" lon="112.280279">
<time>2016-10-06T11:39:02Z</time></trkpt>
<trkpt lat="23.813924" lon="112.280399">
<time>2016-10-06T11:39:03Z</time></trkpt>
<trkpt lat="23.815013" lon="112.280768">
<time>2016-10-06T11:39:04Z</time></trkpt>
<trkpt lat="23.815483" lon="112.280888">
<time>2016-10-06T11:39:05Z</time></trkpt>
<trkpt lat="23.815864" lon="112.280938">
<time>2016-10-06T11:39:06Z</time></trkpt>
<trkpt lat="23.816194" lon="112.280958">
<time>2016-10-06T11:39:07Z</time></trkpt>
<trkpt lat="23.816454" lon="112.280958">
<time>2016-10-06T11:39:08Z</time></trkpt>
<trkpt lat="23.816984" lon="112.280948">
<time>2016-10-06T11:39:09Z</time></trkpt>
<trkpt lat="23.817244" lon="112.280988">
<time>2016-10-06T11:39:10Z</time></trkpt>
<trkpt lat="23.817404" lon="112.281028">
<time>2016-10-06T11:39:11Z</time></trkpt>
<trkpt lat="23.817544" lon="112.281088">
<time>2016-10-06T11:39:12Z</time></trkpt>
<trkpt lat="23.817754" lon="112.281207">
<time>2016-10-06T11:39:13Z</time></trkpt>
<trkpt lat="23.817994" lon="112.281367">
<time>2016-10-06T11:39:14Z</time></trkpt>
<trkpt lat="23.818463" lon="112.281777">
<time>2016-10-06T11:39:15Z</time></trkpt>
<trkpt lat="23.818803" lon="112.282026">
<time>2016-10-06T11:39:16Z</time></trkpt>
<trkpt lat="23.818933" lon="112.282096">
<time>2016-10-06T11:39:17Z</time></trkpt>
<trkpt lat="23.819073" lon="112.282156">
<time>2016-10-06T11:39:18Z</time></trkpt>
<trkpt lat="23.819193" lon="112.282196">
<time>2016-10-06T11:39:19Z</time></trkpt>
<trkpt lat="23.819323" lon="112.282216">
<time>2016-10-06T11:39:20Z</time></trkpt>
<trkpt lat="23.819433" lon="112.282216">
<time>2016-10-06T11:39:21Z</time></trkpt>
<trkpt lat="23.819543" lon="112.282206">
<time>2016-10-06T11:39:22Z</time></trkpt>
<trkpt lat="23.819683" lon="112.282176">
<time>2016-10-06T11:39:23Z</time></trkpt>
<trkpt lat="23.820704" lon="112.281966">
<time>2016-10-06T11:39:24Z</time></trkpt>
<trkpt lat="23.821014" lon="112.281906">
<time>2016-10-06T11:39:25Z</time></trkpt>
<trkpt lat="23.821204" lon="112.281876">
<time>2016-10-06T11:39:26Z</time></trkpt>
<trkpt lat="23.821384" lon="112.281856">
<time>2016-10-06T11:39:27Z</time></trkpt>
<trkpt lat="23.821544" lon="112.281846">
<time>2016-10-06T11:39:28Z</time></trkpt>
<trkpt lat="23.821694" lon="112.281846">
<time>2016-10-06T11:39:29Z</time></trkpt>
<trkpt lat="23.821894" lon="112.281866">
<time>2016-10-06T11:39:30Z</time></trkpt>
<trkpt lat="23.828755" lon="112.282695">
<time>2016-10-06T11:39:31Z</time></trkpt>
<trkpt lat="23.829106" lon="112.282745">
<time>2016-10-06T11:39:32Z</time></trkpt>
<trkpt lat="23.829406" lon="112.282765">
<time>2016-10-06T11:39:33Z</time></trkpt>
<trkpt lat="23.829626" lon="112.282765">
<time>2016-10-06T11:39:34Z</time></trkpt>
<trkpt lat="23.829846" lon="112.282745">
<time>2016-10-06T11:39:35Z</time></trkpt>
<trkpt lat="23.830006" lon="112.282715">
<time>2016-10-06T11:39:36Z</time></trkpt>
<trkpt lat="23.830156" lon="112.282675">
<time>2016-10-06T11:39:37Z</time></trkpt>
<trkpt lat="23.830286" lon="112.282625">
<time>2016-10-06T11:39:38Z</time></trkpt>
<trkpt lat="23.830386" lon="112.282585">
<time>2016-10-06T11:39:39Z</time></trkpt>
<trkpt lat="23.830516" lon="112.282505">
<time>2016-10-06T11:39:40Z</time></trkpt>
<trkpt lat="23.830887" lon="112.282265">
<time>2016-10-06T11:39:41Z</time></trkpt>
<trkpt lat="23.831277" lon="112.282006">
<time>2016-10-06T11:39:42Z</time></trkpt>
<trkpt lat="23.831427" lon="112.281926">
<time>2016-10-06T11:39:43Z</time></trkpt>
<trkpt lat="23.831578" lon="112.281846">
<time>2016-10-06T11:39:44Z</time></trkpt>
<trkpt lat="23.831708" lon="112.281796">
<time>2016-10-06T11:39:45Z</time></trkpt>
<trkpt lat="23.831848" lon="112.281756">
<time>2016-10-06T11:39:46Z</time></trkpt>
<trkpt lat="23.831998" lon="112.281716">
<time>2016-10-06T11:39:47Z</time></trkpt>
<trkpt lat="23.832278" lon="112.281666">
<time>2016-10-06T11:39:48Z</time></trkpt>
<trkpt lat="23.833329" lon="112.281486">
<time>2016-10-06T11:39:49Z</time></trkpt>
<trkpt lat="23.834149" lon="112.281336">
<time>2016-10-06T11:39:50Z</time></trkpt>
<trkpt lat="23.834389" lon="112.281256">
<time>2016-10-06T11:39:51Z</time></trkpt>
<trkpt lat="23.834569" lon="112.281186">
<time>2016-10-06T11:39:52Z</time></trkpt>
<trkpt lat="23.83477" lon="112.281067">
<time>2016-10-06T11:39:53Z</time></trkpt>
<trkpt lat="23.83496" lon="112.280927">
<time>2016-10-06T11:39:54Z</time></trkpt>
<trkpt lat="23.836132" lon="112.279898">
<time>2016-10-06T11:39:55Z</time></trkpt>
<trkpt lat="23.836222" lon="112.279808">
<time>2016-10-06T11:39:56Z</time></trkpt>
<trkpt lat="23.837403" lon="112.278739">
<time>2016-10-06T11:39:57Z</time></trkpt>
<trkpt lat="23.837684" lon="112.278469">
<time>2016-10-06T11:39:58Z</time></trkpt>
<trkpt lat="23.837934" lon="112.2782">
<time>2016-10-06T11:39:59Z</time></trkpt>
<trkpt lat="23.838225" lon="112.27786">
<time>2016-10-06T11:40:00Z</time></trkpt>
<trkpt lat="23.838455" lon="112.27756">
<time>2016-10-06T11:40:01Z</time></trkpt>
<trkpt lat="23.838646" lon="112.277271">
<time>2016-10-06T11:40:02Z</time></trkpt>
<trkpt lat="23.838766" lon="112.277071">
<time>2016-10-06T11:40:03Z</time></trkpt>
<trkpt lat="23.838866" lon="112.276881">
<time>2016-10-06T11:40:04Z</time></trkpt>
<trkpt lat="23.838976" lon="112.276611">
<time>2016-10-06T11:40:05Z</time></trkpt>
<trkpt lat="23.839067" lon="112.276302">
<time>2016-10-06T11:40:06Z</time></trkpt>
<trkpt lat="23.839137" lon="112.276032">
<time>2016-10-06T11:40:07Z</time></trkpt>
<trkpt lat="23.839399" lon="112.274624">
<time>2016-10-06T11:40:08Z</time></trkpt>
<trkpt lat="23.839449" lon="112.274434">
<time>2016-10-06T11:40:09Z</time></trkpt>
<trkpt lat="23.839499" lon="112.274264">
<time>2016-10-06T11:40:10Z</time></trkpt>
<trkpt lat="23.839579" lon="112.274074">
<time>2016-10-06T11:40:11Z</time></trkpt>
<trkpt lat="23.83964" lon="112.273944">
<time>2016-10-06T11:40:12Z</time></trkpt>
<trkpt lat="23.84003" lon="112.273245">
<time>2016-10-06T11:40:13Z</time></trkpt>
<trkpt lat="23.840121" lon="112.273085">
<time>2016-10-06T11:40:14Z</time></trkpt>
<trkpt lat="23.840211" lon="112.272885">
<time>2016-10-06T11:40:15Z</time></trkpt>
<trkpt lat="23.840291" lon="112.272695">
<time>2016-10-06T11:40:16Z</time></trkpt>
<trkpt lat="23.840371" lon="112.272466">
<time>2016-10-06T11:40:17Z</time></trkpt>
<trkpt lat="23.840432" lon="112.272276">
<time>2016-10-06T11:40:18Z</time></trkpt>
<trkpt lat="23.840482" lon="112.272046">
<time>2016-10-06T11:40:19Z</time></trkpt>
<trkpt lat="23.840834" lon="112.270188">
<time>2016-10-06T11:40:20Z</time></trkpt>
<trkpt lat="23.840864" lon="112.269888">
<time>2016-10-06T11:40:21Z</time></trkpt>
<trkpt lat="23.840874" lon="112.269638">
<time>2016-10-06T11:40:22Z</time></trkpt>
<trkpt lat="23.840864" lon="112.269408">
<time>2016-10-06T11:40:23Z</time></trkpt>
<trkpt lat="23.840845" lon="112.269209">
<time>2016-10-06T11:40:24Z</time></trkpt>
<trkpt lat="23.840805" lon="112.269029">
<time>2016-10-06T11:40:25Z</time></trkpt>
<trkpt lat="23.840755" lon="112.268839">
<time>2016-10-06T11:40:26Z</time></trkpt>
<trkpt lat="23.840705" lon="112.268669">
<time>2016-10-06T11:40:27Z</time></trkpt>
<trkpt lat="23.839338" lon="112.264992">
<time>2016-10-06T11:40:28Z</time></trkpt>
<trkpt lat="23.839268" lon="112.264812">
<time>2016-10-06T11:40:29Z</time></trkpt>
<trkpt lat="23.839218" lon="112.264612">
<time>2016-10-06T11:40:30Z</time></trkpt>
<trkpt lat="23.839158" lon="112.264382">
<time>2016-10-06T11:40:31Z</time></trkpt>
<trkpt lat="23.839128" lon="112.264173">
<time>2016-10-06T11:40:32Z</time></trkpt>
<trkpt lat="23.839118" lon="112.263993">
<time>2016-10-06T11:40:33Z</time></trkpt>
<trkpt lat="23.839099" lon="112.263553">
<time>2016-10-06T11:40:34Z</time></trkpt>
<trkpt lat="23.839109" lon="112.263333">
<time>2016-10-06T11:40:35Z</time></trkpt>
<trkpt lat="23.839139" lon="112.263103">
<time>2016-10-06T11:40:36Z</time></trkpt>
<trkpt lat="23.839189" lon="112.262913">
<time>2016-10-06T11:40:37Z</time></trkpt>
<trkpt lat="23.839249" lon="112.262713">
<time>2016-10-06T11:40:38Z</time></trkpt>
<trkpt lat="23.83946" lon="112.262114">
<time>2016-10-06T11:40:39Z</time></trkpt>
<trkpt lat="23.83955" lon="112.261784">
<time>2016-10-06T11:40:40Z</time></trkpt>
<trkpt lat="23.839991" lon="112.259945">
<time>2016-10-06T11:40:41Z</time></trkpt>
<trkpt lat="23.840041" lon="112.259755">
<time>2016-10-06T11:40:42Z</time></trkpt>
<trkpt lat="23.840091" lon="112.259585">
<time>2016-10-06T11:40:43Z</time></trkpt>
<trkpt lat="23.840162" lon="112.259405">
<time>2016-10-06T11:40:44Z</time></trkpt>
<trkpt lat="23.840232" lon="112.259255">
<time>2016-10-06T11:40:45Z</time></trkpt>
<trkpt lat="23.840322" lon="112.259095">
<time>2016-10-06T11:40:46Z</time></trkpt>
<trkpt lat="23.840672" lon="112.258545">
<time>2016-10-06T11:40:47Z</time></trkpt>
<trkpt lat="23.840732" lon="112.258436">
<time>2016-10-06T11:40:48Z</time></trkpt>
<trkpt lat="23.840792" lon="112.258326">
<time>2016-10-06T11:40:49Z</time></trkpt>
<trkpt lat="23.840852" lon="112.258206">
<time>2016-10-06T11:40:50Z</time></trkpt>
<trkpt lat="23.840903" lon="112.258076">
<time>2016-10-06T11:40:51Z</time></trkpt>
<trkpt lat="23.841153" lon="112.257186">
<time>2016-10-06T11:40:52Z</time></trkpt>
<trkpt lat="23.841213" lon="112.257016">
<time>2016-10-06T11:40:53Z</time></trkpt>
<trkpt lat="23.841253" lon="112.256896">
<time>2016-10-06T11:40:54Z</time></trkpt>
<trkpt lat="23.841313" lon="112.256776">
<time>2016-10-06T11:40:55Z</time></trkpt>
<trkpt lat="23.841413" lon="112.256586">
<time>2016-10-06T11:40:56Z</time></trkpt>
<trkpt lat="23.841514" lon="112.256436">
<time>2016-10-06T11:40:57Z</time></trkpt>
<trkpt lat="23.841594" lon="112.256316">
<time>2016-10-06T11:40:58Z</time></trkpt>
<trkpt lat="23.841714" lon="112.256186">
<time>2016-10-06T11:40:59Z</time></trkpt>
<trkpt lat="23.841854" lon="112.256046">
<time>2016-10-06T11:41:00Z</time></trkpt>
<trkpt lat="23.842424" lon="112.255536">
<time>2016-10-06T11:41:01Z</time></trkpt>
<trkpt lat="23.842554" lon="112.255416">
<time>2016-10-06T11:41:02Z</time></trkpt>
<trkpt lat="23.842644" lon="112.255317">
<time>2016-10-06T11:41:03Z</time></trkpt>
<trkpt lat="23.842744" lon="112.255187">
<time>2016-10-06T11:41:04Z</time></trkpt>
<trkpt lat="23.842825" lon="112.255077">
<time>2016-10-06T11:41:05Z</time></trkpt>
<trkpt lat="23.842905" lon="112.254937">
<time>2016-10-06T11:41:06Z</time></trkpt>
<trkpt lat="23.843075" lon="112.254587">
<time>2016-10-06T11:41:07Z</time></trkpt>
<trkpt lat="23.843315" lon="112.254017">
<time>2016-10-06T11:41:08Z</time></trkpt>
<trkpt lat="23.844156" lon="112.252027">
<time>2016-10-06T11:41:09Z</time></trkpt>
<trkpt lat="23.844446" lon="112.251467">
<time>2016-10-06T11:41:10Z</time></trkpt>
<trkpt lat="23.844696" lon="112.251017">
<time>2016-10-06T11:41:11Z</time></trkpt>
<trkpt lat="23.845247" lon="112.250127">
<time>2016-10-06T11:41:12Z</time></trkpt>
<trkpt lat="23.845317" lon="112.249997">
<time>2016-10-06T11:41:13Z</time></trkpt>
<trkpt lat="23.845567" lon="112.249607">
<time>2016-10-06T11:41:14Z</time></trkpt>
<trkpt lat="23.846177" lon="112.248667">
<time>2016-10-06T11:41:15Z</time></trkpt>
<trkpt lat="23.846338" lon="112.248417">
<time>2016-10-06T11:41:16Z</time></trkpt>
<trkpt lat="23.846448" lon="112.248257">
<time>2016-10-06T11:41:17Z</time></trkpt>
<trkpt lat="23.846548" lon="112.248147">
<time>2016-10-06T11:41:18Z</time></trkpt>
<trkpt lat="23.846648" lon="112.248057">
<time>2016-10-06T11:41:19Z</time></trkpt>
<trkpt lat="23.846738" lon="112.247997">
<time>2016-10-06T11:41:20Z</time></trkpt>
<trkpt lat="23.846818" lon="112.247947">
<time>2016-10-06T11:41:21Z</time></trkpt>
<trkpt lat="23.846918" lon="112.247907">
<time>2016-10-06T11:41:22Z</time></trkpt>
<trkpt lat="23.847008" lon="112.247867">
<time>2016-10-06T11:41:23Z</time></trkpt>
<trkpt lat="23.847098" lon="112.247847">
<time>2016-10-06T11:41:24Z</time></trkpt>
<trkpt lat="23.847198" lon="112.247837">
<time>2016-10-06T11:41:25Z</time></trkpt>
<trkpt lat="23.847298" lon="112.247827">
<time>2016-10-06T11:41:26Z</time></trkpt>
<trkpt lat="23.847398" lon="112.247827">
<time>2016-10-06T11:41:27Z</time></trkpt>
<trkpt lat="23.847908" lon="112.247837">
<time>2016-10-06T11:41:28Z</time></trkpt>
<trkpt lat="23.848138" lon="112.247817">
<time>2016-10-06T11:41:29Z</time></trkpt>
<trkpt lat="23.848378" lon="112.247777">
<time>2016-10-06T11:41:30Z</time></trkpt>
<trkpt lat="23.848568" lon="112.247717">
<time>2016-10-06T11:41:31Z</time></trkpt>
<trkpt lat="23.848769" lon="112.247617">
<time>2016-10-06T11:41:32Z</time></trkpt>
<trkpt lat="23.848969" lon="112.247497">
<time>2016-10-06T11:41:33Z</time></trkpt>
<trkpt lat="23.849299" lon="112.247277">
<time>2016-10-06T11:41:34Z</time></trkpt>
<trkpt lat="23.849469" lon="112.247147">
<time>2016-10-06T11:41:35Z</time></trkpt>
<trkpt lat="23.849639" lon="112.246987">
<time>2016-10-06T11:41:36Z</time></trkpt>
<trkpt lat="23.849829" lon="112.246777">
<time>2016-10-06T11:41:37Z</time></trkpt>
<trkpt lat="23.849989" lon="112.246567">
<time>2016-10-06T11:41:38Z</time></trkpt>
<trkpt lat="23.850159" lon="112.246287">
<time>2016-10-06T11:41:39Z</time></trkpt>
<trkpt lat="23.85124" lon="112.244347">
<time>2016-10-06T11:41:40Z</time></trkpt>
<trkpt lat="23.85144" lon="112.244027">
<time>2016-10-06T11:41:41Z</time></trkpt>
<trkpt lat="23.85159" lon="112.243847">
<time>2016-10-06T11:41:42Z</time></trkpt>
<trkpt lat="23.85178" lon="112.243637">
<time>2016-10-06T11:41:43Z</time></trkpt>
<trkpt lat="23.85192" lon="112.243507">
<time>2016-10-06T11:41:44Z</time></trkpt>
<trkpt lat="23.85192" lon="112.243507">
<time>2016-10-06T11:41:45Z</time></trkpt>
<trkpt lat="23.85197" lon="112.243427">
<time>2016-10-06T11:41:46Z</time></trkpt>
<trkpt lat="23.85349" lon="112.242276">
<time>2016-10-06T11:41:47Z</time></trkpt>
<trkpt lat="23.85354" lon="112.242246">
<time>2016-10-06T11:41:48Z</time></trkpt>
<trkpt lat="23.85358" lon="112.242206">
<time>2016-10-06T11:41:49Z</time></trkpt>
<trkpt lat="23.85369" lon="112.242066">
<time>2016-10-06T11:41:50Z</time></trkpt>
<trkpt lat="23.85378" lon="112.241936">
<time>2016-10-06T11:41:51Z</time></trkpt>
<trkpt lat="23.85382" lon="112.241836">
<time>2016-10-06T11:41:52Z</time></trkpt>
<trkpt lat="23.85387" lon="112.241706">
<time>2016-10-06T11:41:53Z</time></trkpt>
<trkpt lat="23.85393" lon="112.241526">
<time>2016-10-06T11:41:54Z</time></trkpt>
<trkpt lat="23.85401" lon="112.241266">
<time>2016-10-06T11:41:55Z</time></trkpt>
<trkpt lat="23.85408" lon="112.241096">
<time>2016-10-06T11:41:56Z</time></trkpt>
<trkpt lat="23.85416" lon="112.240906">
<time>2016-10-06T11:41:57Z</time></trkpt>
<trkpt lat="23.85426" lon="112.240706">
<time>2016-10-06T11:41:58Z</time></trkpt>
<trkpt lat="23.85533" lon="112.238725">
<time>2016-10-06T11:41:59Z</time></trkpt>
<trkpt lat="23.85551" lon="112.238365">
<time>2016-10-06T11:42:00Z</time></trkpt>
<trkpt lat="23.8556" lon="112.238145">
<time>2016-10-06T11:42:01Z</time></trkpt>
<trkpt lat="23.8557" lon="112.237885">
<time>2016-10-06T11:42:02Z</time></trkpt>
<trkpt lat="23.8558" lon="112.237544">
<time>2016-10-06T11:42:03Z</time></trkpt>
<trkpt lat="23.85588" lon="112.237234">
<time>2016-10-06T11:42:04Z</time></trkpt>
<trkpt lat="23.85596" lon="112.236764">
<time>2016-10-06T11:42:05Z</time></trkpt>
<trkpt lat="23.856" lon="112.236324">
<time>2016-10-06T11:42:06Z</time></trkpt>
<trkpt lat="23.856179" lon="112.233312">
<time>2016-10-06T11:42:07Z</time></trkpt>
<trkpt lat="23.856219" lon="112.233062">
<time>2016-10-06T11:42:08Z</time></trkpt>
<trkpt lat="23.856239" lon="112.232962">
<time>2016-10-06T11:42:09Z</time></trkpt>
<trkpt lat="23.856269" lon="112.232872">
<time>2016-10-06T11:42:10Z</time></trkpt>
<trkpt lat="23.856299" lon="112.232772">
<time>2016-10-06T11:42:11Z</time></trkpt>
<trkpt lat="23.856339" lon="112.232692">
<time>2016-10-06T11:42:12Z</time></trkpt>
<trkpt lat="23.856449" lon="112.232502">
<time>2016-10-06T11:42:13Z</time></trkpt>
<trkpt lat="23.856599" lon="112.232311">
<time>2016-10-06T11:42:14Z</time></trkpt>
<trkpt lat="23.856789" lon="112.232091">
<time>2016-10-06T11:42:15Z</time></trkpt>
<trkpt lat="23.857728" lon="112.231111">
<time>2016-10-06T11:42:16Z</time></trkpt>
<trkpt lat="23.857908" lon="112.23089">
<time>2016-10-06T11:42:17Z</time></trkpt>
<trkpt lat="23.858068" lon="112.23066">
<time>2016-10-06T11:42:18Z</time></trkpt>
<trkpt lat="23.858158" lon="112.2305">
<time>2016-10-06T11:42:19Z</time></trkpt>
<trkpt lat="23.858228" lon="112.23032">
<time>2016-10-06T11:42:20Z</time></trkpt>
<trkpt lat="23.858318" lon="112.23009">
<time>2016-10-06T11:42:21Z</time></trkpt>
<trkpt lat="23.858358" lon="112.22991">
<time>2016-10-06T11:42:22Z</time></trkpt>
<trkpt lat="23.858398" lon="112.229669">
<time>2016-10-06T11:42:23Z</time></trkpt>
<trkpt lat="23.858418" lon="112.229469">
<time>2016-10-06T11:42:24Z</time></trkpt>
<trkpt lat="23.858428" lon="112.229249">
<time>2016-10-06T11:42:25Z</time></trkpt>
<trkpt lat="23.858428" lon="112.229079">
<time>2016-10-06T11:42:26Z</time></trkpt>
<trkpt lat="23.858387" lon="112.228729">
<time>2016-10-06T11:42:27Z</time></trkpt>
<trkpt lat="23.857915" lon="112.225716">
<time>2016-10-06T11:42:28Z</time></trkpt>
<trkpt lat="23.857875" lon="112.225316">
<time>2016-10-06T11:42:29Z</time></trkpt>
<trkpt lat="23.857855" lon="112.224955">
<time>2016-10-06T11:42:30Z</time></trkpt>
<trkpt lat="23.857855" lon="112.224775">
<time>2016-10-06T11:42:31Z</time></trkpt>
<trkpt lat="23.857864" lon="112.224605">
<time>2016-10-06T11:42:32Z</time></trkpt>
<trkpt lat="23.857894" lon="112.224375">
<time>2016-10-06T11:42:33Z</time></trkpt>
<trkpt lat="23.857934" lon="112.224135">
<time>2016-10-06T11:42:34Z</time></trkpt>
<trkpt lat="23.858014" lon="112.223674">
<time>2016-10-06T11:42:35Z</time></trkpt>
<trkpt lat="23.85897" lon="112.219029">
<time>2016-10-06T11:42:36Z</time></trkpt>
<trkpt lat="23.859189" lon="112.218188">
<time>2016-10-06T11:42:37Z</time></trkpt>
<trkpt lat="23.859648" lon="112.216516">
<time>2016-10-06T11:42:38Z</time></trkpt>
<trkpt lat="23.859698" lon="112.216276">
<time>2016-10-06T11:42:39Z</time></trkpt>
<trkpt lat="23.859748" lon="112.216045">
<time>2016-10-06T11:42:40Z</time></trkpt>
<trkpt lat="23.859777" lon="112.215875">
<time>2016-10-06T11:42:41Z</time></trkpt>
<trkpt lat="23.859787" lon="112.215685">
<time>2016-10-06T11:42:42Z</time></trkpt>
<trkpt lat="23.859895" lon="112.213993">
<time>2016-10-06T11:42:43Z</time></trkpt>
<trkpt lat="23.859915" lon="112.213802">
<time>2016-10-06T11:42:44Z</time></trkpt>
<trkpt lat="23.859935" lon="112.213662">
<time>2016-10-06T11:42:45Z</time></trkpt>
<trkpt lat="23.859965" lon="112.213532">
<time>2016-10-06T11:42:46Z</time></trkpt>
<trkpt lat="23.859995" lon="112.213412">
<time>2016-10-06T11:42:47Z</time></trkpt>
<trkpt lat="23.860045" lon="112.213302">
<time>2016-10-06T11:42:48Z</time></trkpt>
<trkpt lat="23.860105" lon="112.213202">
<time>2016-10-06T11:42:49Z</time></trkpt>
<trkpt lat="23.860165" lon="112.213111">
<time>2016-10-06T11:42:50Z</time></trkpt>
<trkpt lat="23.860235" lon="112.213041">
<time>2016-10-06T11:42:51Z</time></trkpt>
<trkpt lat="23.860294" lon="112.212981">
<time>2016-10-06T11:42:52Z</time></trkpt>
<trkpt lat="23.860384" lon="112.212911">
<time>2016-10-06T11:42:53Z</time></trkpt>
<trkpt lat="23.860474" lon="112.212861">
<time>2016-10-06T11:42:54Z</time></trkpt>
<trkpt lat="23.860574" lon="112.212821">
<time>2016-10-06T11:42:55Z</time></trkpt>
<trkpt lat="23.860694" lon="112.212781">
<time>2016-10-06T11:42:56Z</time></trkpt>
<trkpt lat="23.860814" lon="112.212741">
<time>2016-10-06T11:42:57Z</time></trkpt>
<trkpt lat="23.863705" lon="112.21213">
<time>2016-10-06T11:42:58Z</time></trkpt>
<trkpt lat="23.863965" lon="112.21206">
<time>2016-10-06T11:42:59Z</time></trkpt>
<trkpt lat="23.864195" lon="112.21197">
<time>2016-10-06T11:43:00Z</time></trkpt>
<trkpt lat="23.864405" lon="112.211879">
<time>2016-10-06T11:43:01Z</time></trkpt>
<trkpt lat="23.864655" lon="112.211739">
<time>2016-10-06T11:43:02Z</time></trkpt>
<trkpt lat="23.864974" lon="112.211519">
<time>2016-10-06T11:43:03Z</time></trkpt>
<trkpt lat="23.866574" lon="112.210387">
<time>2016-10-06T11:43:04Z</time></trkpt>
<trkpt lat="23.866664" lon="112.210297">
<time>2016-10-06T11:43:05Z</time></trkpt>
<trkpt lat="23.866754" lon="112.210197">
<time>2016-10-06T11:43:06Z</time></trkpt>
<trkpt lat="23.866833" lon="112.210087">
<time>2016-10-06T11:43:07Z</time></trkpt>
<trkpt lat="23.866913" lon="112.209967">
<time>2016-10-06T11:43:08Z</time></trkpt>
<trkpt lat="23.866963" lon="112.209856">
<time>2016-10-06T11:43:09Z</time></trkpt>
<trkpt lat="23.866993" lon="112.209736">
<time>2016-10-06T11:43:10Z</time></trkpt>
<trkpt lat="23.867033" lon="112.209596">
<time>2016-10-06T11:43:11Z</time></trkpt>
<trkpt lat="23.867053" lon="112.209466">
<time>2016-10-06T11:43:12Z</time></trkpt>
<trkpt lat="23.867053" lon="112.209436">
<time>2016-10-06T11:43:13Z</time></trkpt>
<trkpt lat="23.867241" lon="112.208074">
<time>2016-10-06T11:43:14Z</time></trkpt>
<trkpt lat="23.867241" lon="112.208074">
<time>2016-10-06T11:43:15Z</time></trkpt>
<trkpt lat="23.867231" lon="112.208044">
<time>2016-10-06T11:43:16Z</time></trkpt>
<trkpt lat="23.867241" lon="112.208014">
<time>2016-10-06T11:43:17Z</time></trkpt>
<trkpt lat="23.867301" lon="112.207673">
<time>2016-10-06T11:43:18Z</time></trkpt>
<trkpt lat="23.86739" lon="112.207352">
<time>2016-10-06T11:43:19Z</time></trkpt>
<trkpt lat="23.86753" lon="112.206982">
<time>2016-10-06T11:43:20Z</time></trkpt>
<trkpt lat="23.86765" lon="112.206742">
<time>2016-10-06T11:43:21Z</time></trkpt>
<trkpt lat="23.867779" lon="112.206521">
<time>2016-10-06T11:43:22Z</time></trkpt>
<trkpt lat="23.867939" lon="112.206311">
<time>2016-10-06T11:43:23Z</time></trkpt>
<trkpt lat="23.868159" lon="112.20604">
<time>2016-10-06T11:43:24Z</time></trkpt>
<trkpt lat="23.868329" lon="112.20589">
<time>2016-10-06T11:43:25Z</time></trkpt>
<trkpt lat="23.868509" lon="112.20577">
<time>2016-10-06T11:43:26Z</time></trkpt>
<trkpt lat="23.868679" lon="112.20568">
<time>2016-10-06T11:43:27Z</time></trkpt>
<trkpt lat="23.869248" lon="112.205449">
<time>2016-10-06T11:43:28Z</time></trkpt>
<trkpt lat="23.869428" lon="112.205349">
<time>2016-10-06T11:43:29Z</time></trkpt>
<trkpt lat="23.869598" lon="112.205229">
<time>2016-10-06T11:43:30Z</time></trkpt>
<trkpt lat="23.869818" lon="112.205039">
<time>2016-10-06T11:43:31Z</time></trkpt>
<trkpt lat="23.869998" lon="112.204848">
<time>2016-10-06T11:43:32Z</time></trkpt>
<trkpt lat="23.870966" lon="112.203536">
<time>2016-10-06T11:43:33Z</time></trkpt>
<trkpt lat="23.871126" lon="112.203266">
<time>2016-10-06T11:43:34Z</time></trkpt>
<trkpt lat="23.871266" lon="112.202945">
<time>2016-10-06T11:43:35Z</time></trkpt>
<trkpt lat="23.871355" lon="112.202675">
<time>2016-10-06T11:43:36Z</time></trkpt>
<trkpt lat="23.871415" lon="112.202384">
<time>2016-10-06T11:43:37Z</time></trkpt>
<trkpt lat="23.871534" lon="112.201653">
<time>2016-10-06T11:43:38Z</time></trkpt>
<trkpt lat="23.871722" lon="112.200461">
<time>2016-10-06T11:43:39Z</time></trkpt>
<trkpt lat="23.871802" lon="112.20022">
<time>2016-10-06T11:43:40Z</time></trkpt>
<trkpt lat="23.871892" lon="112.20002">
<time>2016-10-06T11:43:41Z</time></trkpt>
<trkpt lat="23.872032" lon="112.19988">
<time>2016-10-06T11:43:42Z</time></trkpt>
<trkpt lat="23.872181" lon="112.199769">
<time>2016-10-06T11:43:43Z</time></trkpt>
<trkpt lat="23.873391" lon="112.199258">
<time>2016-10-06T11:43:44Z</time></trkpt>
<trkpt lat="23.873511" lon="112.199178">
<time>2016-10-06T11:43:45Z</time></trkpt>
<trkpt lat="23.873671" lon="112.199008">
<time>2016-10-06T11:43:46Z</time></trkpt>
<trkpt lat="23.873771" lon="112.198818">
<time>2016-10-06T11:43:47Z</time></trkpt>
<trkpt lat="23.87382" lon="112.198577">
<time>2016-10-06T11:43:48Z</time></trkpt>
<trkpt lat="23.87383" lon="112.198156">
<time>2016-10-06T11:43:49Z</time></trkpt>
<trkpt lat="23.87385" lon="112.198116">
<time>2016-10-06T11:43:50Z</time></trkpt>
<trkpt lat="23.873859" lon="112.197696">
<time>2016-10-06T11:43:51Z</time></trkpt>
<trkpt lat="23.873868" lon="112.197335">
<time>2016-10-06T11:43:52Z</time></trkpt>
<trkpt lat="23.873908" lon="112.197024">
<time>2016-10-06T11:43:53Z</time></trkpt>
<trkpt lat="23.873998" lon="112.196764">
<time>2016-10-06T11:43:54Z</time></trkpt>
<trkpt lat="23.874137" lon="112.196453">
<time>2016-10-06T11:43:55Z</time></trkpt>
<trkpt lat="23.87705" lon="112.191494">
<time>2016-10-06T11:43:56Z</time></trkpt>
<trkpt lat="23.87705" lon="112.191494">
<time>2016-10-06T11:43:57Z</time></trkpt>
<trkpt lat="23.87706" lon="112.191433">
<time>2016-10-06T11:43:58Z</time></trkpt>
<trkpt lat="23.8771" lon="112.191363">
<time>2016-10-06T11:43:59Z</time></trkpt>
<trkpt lat="23.87729" lon="112.190973">
<time>2016-10-06T11:44:00Z</time></trkpt>
<trkpt lat="23.877499" lon="112.190532">
<time>2016-10-06T11:44:01Z</time></trkpt>
<trkpt lat="23.877678" lon="112.190071">
<time>2016-10-06T11:44:02Z</time></trkpt>
<trkpt lat="23.877917" lon="112.189459">
<time>2016-10-06T11:44:03Z</time></trkpt>
<trkpt lat="23.878206" lon="112.188728">
<time>2016-10-06T11:44:04Z</time></trkpt>
<trkpt lat="23.878366" lon="112.188377">
<time>2016-10-06T11:44:05Z</time></trkpt>
<trkpt lat="23.878545" lon="112.188087">
<time>2016-10-06T11:44:06Z</time></trkpt>
<trkpt lat="23.878735" lon="112.187856">
<time>2016-10-06T11:44:07Z</time></trkpt>
<trkpt lat="23.878935" lon="112.187686">
<time>2016-10-06T11:44:08Z</time></trkpt>
<trkpt lat="23.879174" lon="112.187546">
<time>2016-10-06T11:44:09Z</time></trkpt>
<trkpt lat="23.879504" lon="112.187425">
<time>2016-10-06T11:44:10Z</time></trkpt>
<trkpt lat="23.879804" lon="112.187385">
<time>2016-10-06T11:44:11Z</time></trkpt>
<trkpt lat="23.880084" lon="112.187375">
<time>2016-10-06T11:44:12Z</time></trkpt>
<trkpt lat="23.880204" lon="112.187365">
<time>2016-10-06T11:44:13Z</time></trkpt>
<trkpt lat="23.880375" lon="112.187355">
<time>2016-10-06T11:44:14Z</time></trkpt>
<trkpt lat="23.880455" lon="112.187335">
<time>2016-10-06T11:44:15Z</time></trkpt>
<trkpt lat="23.880605" lon="112.187315">
<time>2016-10-06T11:44:16Z</time></trkpt>
<trkpt lat="23.880615" lon="112.187295">
<time>2016-10-06T11:44:17Z</time></trkpt>
<trkpt lat="23.880624" lon="112.187275">
<time>2016-10-06T11:44:18Z</time></trkpt>
<trkpt lat="23.880634" lon="112.187255">
<time>2016-10-06T11:44:19Z</time></trkpt>
<trkpt lat="23.880644" lon="112.187235">
<time>2016-10-06T11:44:20Z</time></trkpt>
<trkpt lat="23.880664" lon="112.187215">
<time>2016-10-06T11:44:21Z</time></trkpt>
<trkpt lat="23.880684" lon="112.187195">
<time>2016-10-06T11:44:22Z</time></trkpt>
<trkpt lat="23.880704" lon="112.187185">
<time>2016-10-06T11:44:23Z</time></trkpt>
<trkpt lat="23.880734" lon="112.187175">
<time>2016-10-06T11:44:24Z</time></trkpt>
<trkpt lat="23.880754" lon="112.187175">
<time>2016-10-06T11:44:25Z</time></trkpt>
<trkpt lat="23.880764" lon="112.187175">
<time>2016-10-06T11:44:26Z</time></trkpt>
<trkpt lat="23.880784" lon="112.187175">
<time>2016-10-06T11:44:27Z</time></trkpt>
<trkpt lat="23.880804" lon="112.187185">
<time>2016-10-06T11:44:28Z</time></trkpt>
<trkpt lat="23.880824" lon="112.187195">
<time>2016-10-06T11:44:29Z</time></trkpt>
<trkpt lat="23.880854" lon="112.187205">
<time>2016-10-06T11:44:30Z</time></trkpt>
<trkpt lat="23.880874" lon="112.187225">
<time>2016-10-06T11:44:31Z</time></trkpt>
<trkpt lat="23.880895" lon="112.187245">
<time>2016-10-06T11:44:32Z</time></trkpt>
<trkpt lat="23.880915" lon="112.187275">
<time>2016-10-06T11:44:33Z</time></trkpt>
<trkpt lat="23.881085" lon="112.187315">
<time>2016-10-06T11:44:34Z</time></trkpt>
<trkpt lat="23.881175" lon="112.187325">
<time>2016-10-06T11:44:35Z</time></trkpt>
<trkpt lat="23.881225" lon="112.187325">
<time>2016-10-06T11:44:36Z</time></trkpt>
<trkpt lat="23.881255" lon="112.187325">
<time>2016-10-06T11:44:37Z</time></trkpt>
<trkpt lat="23.881515" lon="112.187315">
<time>2016-10-06T11:44:38Z</time></trkpt>
<trkpt lat="23.884126" lon="112.187245">
<time>2016-10-06T11:44:39Z</time></trkpt>
<trkpt lat="23.884816" lon="112.187224">
<time>2016-10-06T11:44:40Z</time></trkpt>
<trkpt lat="23.886456" lon="112.187174">
<time>2016-10-06T11:44:41Z</time></trkpt>
<trkpt lat="23.888977" lon="112.187094">
<time>2016-10-06T11:44:42Z</time></trkpt>
<trkpt lat="23.889157" lon="112.187084">
<time>2016-10-06T11:44:43Z</time></trkpt>
<trkpt lat="23.889367" lon="112.187034">
<time>2016-10-06T11:44:44Z</time></trkpt>
<trkpt lat="23.889717" lon="112.186924">
<time>2016-10-06T11:44:45Z</time></trkpt>
<trkpt lat="23.889887" lon="112.186843">
<time>2016-10-06T11:44:46Z</time></trkpt>
<trkpt lat="23.890847" lon="112.186392">
<time>2016-10-06T11:44:47Z</time></trkpt>
<trkpt lat="23.892166" lon="112.185771">
<time>2016-10-06T11:44:48Z</time></trkpt>
<trkpt lat="23.892496" lon="112.185601">
<time>2016-10-06T11:44:49Z</time></trkpt>
<trkpt lat="23.892716" lon="112.18546">
<time>2016-10-06T11:44:50Z</time></trkpt>
<trkpt lat="23.893765" lon="112.184659">
<time>2016-10-06T11:44:51Z</time></trkpt>
<trkpt lat="23.895184" lon="112.183716">
<time>2016-10-06T11:44:52Z</time></trkpt>
<trkpt lat="23.895613" lon="112.183476">
<time>2016-10-06T11:44:53Z</time></trkpt>
<trkpt lat="23.895923" lon="112.183346">
<time>2016-10-06T11:44:54Z</time></trkpt>
<trkpt lat="23.896213" lon="112.183265">
<time>2016-10-06T11:44:55Z</time></trkpt>
<trkpt lat="23.896483" lon="112.183215">
<time>2016-10-06T11:44:56Z</time></trkpt>
<trkpt lat="23.896983" lon="112.183135">
<time>2016-10-06T11:44:57Z</time></trkpt>
<trkpt lat="23.897003" lon="112.183125">
<time>2016-10-06T11:44:58Z</time></trkpt>
<trkpt lat="23.897383" lon="112.183065">
<time>2016-10-06T11:44:59Z</time></trkpt>
<trkpt lat="23.897533" lon="112.183045">
<time>2016-10-06T11:45:00Z</time></trkpt>
<trkpt lat="23.897553" lon="112.183045">
<time>2016-10-06T11:45:01Z</time></trkpt>
<trkpt lat="23.898183" lon="112.182935">
<time>2016-10-06T11:45:02Z</time></trkpt>
<trkpt lat="23.898253" lon="112.182925">
<time>2016-10-06T11:45:03Z</time></trkpt>
<trkpt lat="23.898533" lon="112.182884">
<time>2016-10-06T11:45:04Z</time></trkpt>
<trkpt lat="23.898944" lon="112.182854">
<time>2016-10-06T11:45:05Z</time></trkpt>
<trkpt lat="23.899604" lon="112.182824">
<time>2016-10-06T11:45:06Z</time></trkpt>
<trkpt lat="23.901124" lon="112.182884">
<time>2016-10-06T11:45:07Z</time></trkpt>
<trkpt lat="23.901535" lon="112.182904">
<time>2016-10-06T11:45:08Z</time></trkpt>
<trkpt lat="23.901795" lon="112.182914">
<time>2016-10-06T11:45:09Z</time></trkpt>
<trkpt lat="23.901945" lon="112.182904">
<time>2016-10-06T11:45:10Z</time></trkpt>
<trkpt lat="23.901995" lon="112.182904">
<time>2016-10-06T11:45:11Z</time></trkpt>
<trkpt lat="23.902195" lon="112.182844">
<time>2016-10-06T11:45:12Z</time></trkpt>
<trkpt lat="23.902365" lon="112.182754">
<time>2016-10-06T11:45:13Z</time></trkpt>
<trkpt lat="23.902524" lon="112.182594">
<time>2016-10-06T11:45:14Z</time></trkpt>
<trkpt lat="23.902694" lon="112.182393">
<time>2016-10-06T11:45:15Z</time></trkpt>
<trkpt lat="23.902754" lon="112.182303">
<time>2016-10-06T11:45:16Z</time></trkpt>
<trkpt lat="23.902844" lon="112.182163">
<time>2016-10-06T11:45:17Z</time></trkpt>
<trkpt lat="23.903293" lon="112.181361">
<time>2016-10-06T11:45:18Z</time></trkpt>
<trkpt lat="23.903313" lon="112.181331">
<time>2016-10-06T11:45:19Z</time></trkpt>
<trkpt lat="23.903652" lon="112.180709">
<time>2016-10-06T11:45:20Z</time></trkpt>
<trkpt lat="23.903931" lon="112.180228">
<time>2016-10-06T11:45:21Z</time></trkpt>
<trkpt lat="23.903991" lon="112.180118">
<time>2016-10-06T11:45:22Z</time></trkpt>
<trkpt lat="23.90411" lon="112.179908">
<time>2016-10-06T11:45:23Z</time></trkpt>
<trkpt lat="23.90411" lon="112.179898">
<time>2016-10-06T11:45:24Z</time></trkpt>
<trkpt lat="23.90412" lon="112.179888">
<time>2016-10-06T11:45:25Z</time></trkpt>
<trkpt lat="23.90413" lon="112.179878">
<time>2016-10-06T11:45:26Z</time></trkpt>
<trkpt lat="23.90413" lon="112.179868">
<time>2016-10-06T11:45:27Z</time></trkpt>
<trkpt lat="23.904369" lon="112.179437">
<time>2016-10-06T11:45:28Z</time></trkpt>
<trkpt lat="23.904998" lon="112.178314">
<time>2016-10-06T11:45:29Z</time></trkpt>
<trkpt lat="23.905297" lon="112.177783">
<time>2016-10-06T11:45:30Z</time></trkpt>
<trkpt lat="23.905407" lon="112.177613">
<time>2016-10-06T11:45:31Z</time></trkpt>
<trkpt lat="23.905407" lon="112.177603">
<time>2016-10-06T11:45:32Z</time></trkpt>
<trkpt lat="23.905516" lon="112.177452">
<time>2016-10-06T11:45:33Z</time></trkpt>
<trkpt lat="23.905636" lon="112.177302">
<time>2016-10-06T11:45:34Z</time></trkpt>
<trkpt lat="23.905766" lon="112.177202">
<time>2016-10-06T11:45:35Z</time></trkpt>
<trkpt lat="23.905926" lon="112.177091">
<time>2016-10-06T11:45:36Z</time></trkpt>
<trkpt lat="23.907285" lon="112.17638">
<time>2016-10-06T11:45:37Z</time></trkpt>
<trkpt lat="23.907515" lon="112.17626">
<time>2016-10-06T11:45:38Z</time></trkpt>
<trkpt lat="23.907625" lon="112.176189">
<time>2016-10-06T11:45:39Z</time></trkpt>
<trkpt lat="23.907765" lon="112.176109">
<time>2016-10-06T11:45:40Z</time></trkpt>
<trkpt lat="23.907985" lon="112.175979">
<time>2016-10-06T11:45:41Z</time></trkpt>
<trkpt lat="23.908074" lon="112.175909">
<time>2016-10-06T11:45:42Z</time></trkpt>
<trkpt lat="23.908154" lon="112.175849">
<time>2016-10-06T11:45:43Z</time></trkpt>
<trkpt lat="23.908304" lon="112.175728">
<time>2016-10-06T11:45:44Z</time></trkpt>
<trkpt lat="23.908374" lon="112.175648">
<time>2016-10-06T11:45:45Z</time></trkpt>
<trkpt lat="23.908584" lon="112.175428">
<time>2016-10-06T11:45:46Z</time></trkpt>
<trkpt lat="23.908953" lon="112.174967">
<time>2016-10-06T11:45:47Z</time></trkpt>
<trkpt lat="23.909582" lon="112.174185">
<time>2016-10-06T11:45:48Z</time></trkpt>
<trkpt lat="23.91028" lon="112.173323">
<time>2016-10-06T11:45:49Z</time></trkpt>
<trkpt lat="23.91066" lon="112.172842">
<time>2016-10-06T11:45:50Z</time></trkpt>
<trkpt lat="23.910929" lon="112.172511">
<time>2016-10-06T11:45:51Z</time></trkpt>
<trkpt lat="23.911328" lon="112.17202">
<time>2016-10-06T11:45:52Z</time></trkpt>
<trkpt lat="23.912676" lon="112.170346">
<time>2016-10-06T11:45:53Z</time></trkpt>
<trkpt lat="23.912816" lon="112.170176">
<time>2016-10-06T11:45:54Z</time></trkpt>
<trkpt lat="23.913095" lon="112.169815">
<time>2016-10-06T11:45:55Z</time></trkpt>
<trkpt lat="23.913135" lon="112.169765">
<time>2016-10-06T11:45:56Z</time></trkpt>
<trkpt lat="23.913215" lon="112.169655">
<time>2016-10-06T11:45:57Z</time></trkpt>
<trkpt lat="23.913324" lon="112.169484">
<time>2016-10-06T11:45:58Z</time></trkpt>
<trkpt lat="23.913394" lon="112.169354">
<time>2016-10-06T11:45:59Z</time></trkpt>
<trkpt lat="23.913474" lon="112.169193">
<time>2016-10-06T11:46:00Z</time></trkpt>
<trkpt lat="23.913583" lon="112.168933">
<time>2016-10-06T11:46:01Z</time></trkpt>
<trkpt lat="23.913653" lon="112.168742">
<time>2016-10-06T11:46:02Z</time></trkpt>
<trkpt lat="23.913703" lon="112.168562">
<time>2016-10-06T11:46:03Z</time></trkpt>
<trkpt lat="23.913733" lon="112.168402">
<time>2016-10-06T11:46:04Z</time></trkpt>
<trkpt lat="23.913752" lon="112.168241">
<time>2016-10-06T11:46:05Z</time></trkpt>
<trkpt lat="23.913752" lon="112.168081">
<time>2016-10-06T11:46:06Z</time></trkpt>
<trkpt lat="23.913742" lon="112.167981">
<time>2016-10-06T11:46:07Z</time></trkpt>
<trkpt lat="23.913742" lon="112.16786">
<time>2016-10-06T11:46:08Z</time></trkpt>
<trkpt lat="23.913711" lon="112.16758">
<time>2016-10-06T11:46:09Z</time></trkpt>
<trkpt lat="23.91367" lon="112.167269">
<time>2016-10-06T11:46:10Z</time></trkpt>
<trkpt lat="23.91364" lon="112.167029">
<time>2016-10-06T11:46:11Z</time></trkpt>
<trkpt lat="23.91363" lon="112.166969">
<time>2016-10-06T11:46:12Z</time></trkpt>
<trkpt lat="23.913609" lon="112.166798">
<time>2016-10-06T11:46:13Z</time></trkpt>
<trkpt lat="23.913498" lon="112.165976">
<time>2016-10-06T11:46:14Z</time></trkpt>
<trkpt lat="23.913488" lon="112.165896">
<time>2016-10-06T11:46:15Z</time></trkpt>
<trkpt lat="23.913488" lon="112.165816">
<time>2016-10-06T11:46:16Z</time></trkpt>
<trkpt lat="23.913477" lon="112.165706">
<time>2016-10-06T11:46:17Z</time></trkpt>
<trkpt lat="23.913477" lon="112.165605">
<time>2016-10-06T11:46:18Z</time></trkpt>
<trkpt lat="23.913487" lon="112.165515">
<time>2016-10-06T11:46:19Z</time></trkpt>
<trkpt lat="23.913497" lon="112.165415">
<time>2016-10-06T11:46:20Z</time></trkpt>
<trkpt lat="23.913507" lon="112.165315">
<time>2016-10-06T11:46:21Z</time></trkpt>
<trkpt lat="23.913526" lon="112.165174">
<time>2016-10-06T11:46:22Z</time></trkpt>
<trkpt lat="23.913556" lon="112.165034">
<time>2016-10-06T11:46:23Z</time></trkpt>
<trkpt lat="23.913556" lon="112.165014">
<time>2016-10-06T11:46:24Z</time></trkpt>
<trkpt lat="23.913725" lon="112.164293">
<time>2016-10-06T11:46:25Z</time></trkpt>
<trkpt lat="23.913894" lon="112.163581">
<time>2016-10-06T11:46:26Z</time></trkpt>
<trkpt lat="23.913953" lon="112.16325">
<time>2016-10-06T11:46:27Z</time></trkpt>
<trkpt lat="23.913992" lon="112.163">
<time>2016-10-06T11:46:28Z</time></trkpt>
<trkpt lat="23.914032" lon="112.162709">
<time>2016-10-06T11:46:29Z</time></trkpt>
<trkpt lat="23.914051" lon="112.162448">
<time>2016-10-06T11:46:30Z</time></trkpt>
<trkpt lat="23.914051" lon="112.162198">
<time>2016-10-06T11:46:31Z</time></trkpt>
<trkpt lat="23.91404" lon="112.161677">
<time>2016-10-06T11:46:32Z</time></trkpt>
<trkpt lat="23.913956" lon="112.159482">
<time>2016-10-06T11:46:33Z</time></trkpt>
<trkpt lat="23.913935" lon="112.159091">
<time>2016-10-06T11:46:34Z</time></trkpt>
<trkpt lat="23.913965" lon="112.159001">
<time>2016-10-06T11:46:35Z</time></trkpt>
<trkpt lat="23.913965" lon="112.159001">
<time>2016-10-06T11:46:36Z</time></trkpt>
<trkpt lat="23.913944" lon="112.1585">
<time>2016-10-06T11:46:37Z</time></trkpt>
<trkpt lat="23.913871" lon="112.157167">
<time>2016-10-06T11:46:38Z</time></trkpt>
<trkpt lat="23.913861" lon="112.156966">
<time>2016-10-06T11:46:39Z</time></trkpt>
<trkpt lat="23.913821" lon="112.156756">
<time>2016-10-06T11:46:40Z</time></trkpt>
<trkpt lat="23.91378" lon="112.156585">
<time>2016-10-06T11:46:41Z</time></trkpt>
<trkpt lat="23.91375" lon="112.156475">
<time>2016-10-06T11:46:42Z</time></trkpt>
<trkpt lat="23.9137" lon="112.156355">
<time>2016-10-06T11:46:43Z</time></trkpt>
<trkpt lat="23.91365" lon="112.156245">
<time>2016-10-06T11:46:44Z</time></trkpt>
<trkpt lat="23.913569" lon="112.156084">
<time>2016-10-06T11:46:45Z</time></trkpt>
<trkpt lat="23.913369" lon="112.155754">
<time>2016-10-06T11:46:46Z</time></trkpt>
<trkpt lat="23.913208" lon="112.155513">
<time>2016-10-06T11:46:47Z</time></trkpt>
<trkpt lat="23.913088" lon="112.155363">
<time>2016-10-06T11:46:48Z</time></trkpt>
<trkpt lat="23.913028" lon="112.155293">
<time>2016-10-06T11:46:49Z</time></trkpt>
<trkpt lat="23.912948" lon="112.155202">
<time>2016-10-06T11:46:50Z</time></trkpt>
<trkpt lat="23.912887" lon="112.155142">
<time>2016-10-06T11:46:51Z</time></trkpt>
<trkpt lat="23.912817" lon="112.155082">
<time>2016-10-06T11:46:52Z</time></trkpt>
<trkpt lat="23.912717" lon="112.155002">
<time>2016-10-06T11:46:53Z</time></trkpt>
<trkpt lat="23.912557" lon="112.154912">
<time>2016-10-06T11:46:54Z</time></trkpt>
<trkpt lat="23.912377" lon="112.154822">
<time>2016-10-06T11:46:55Z</time></trkpt>
<trkpt lat="23.911546" lon="112.154511">
<time>2016-10-06T11:46:56Z</time></trkpt>
<trkpt lat="23.911486" lon="112.154481">
<time>2016-10-06T11:46:57Z</time></trkpt>
<trkpt lat="23.911416" lon="112.154441">
<time>2016-10-06T11:46:58Z</time></trkpt>
<trkpt lat="23.911355" lon="112.154411">
<time>2016-10-06T11:46:59Z</time></trkpt>
<trkpt lat="23.911285" lon="112.154361">
<time>2016-10-06T11:47:00Z</time></trkpt>
<trkpt lat="23.911225" lon="112.154311">
<time>2016-10-06T11:47:01Z</time></trkpt>
<trkpt lat="23.911165" lon="112.15426">
<time>2016-10-06T11:47:02Z</time></trkpt>
<trkpt lat="23.911115" lon="112.1542">
<time>2016-10-06T11:47:03Z</time></trkpt>
<trkpt lat="23.910794" lon="112.15383">
<time>2016-10-06T11:47:04Z</time></trkpt>
<trkpt lat="23.910584" lon="112.153559">
<time>2016-10-06T11:47:05Z</time></trkpt>
<trkpt lat="23.910473" lon="112.153399">
<time>2016-10-06T11:47:06Z</time></trkpt>
<trkpt lat="23.910403" lon="112.153268">
<time>2016-10-06T11:47:07Z</time></trkpt>
<trkpt lat="23.910333" lon="112.153128">
<time>2016-10-06T11:47:08Z</time></trkpt>
<trkpt lat="23.910282" lon="112.152998">
<time>2016-10-06T11:47:09Z</time></trkpt>
<trkpt lat="23.910232" lon="112.152847">
<time>2016-10-06T11:47:10Z</time></trkpt>
<trkpt lat="23.910192" lon="112.152677">
<time>2016-10-06T11:47:11Z</time></trkpt>
<trkpt lat="23.910162" lon="112.152527">
<time>2016-10-06T11:47:12Z</time></trkpt>
<trkpt lat="23.90997" lon="112.151535">
<time>2016-10-06T11:47:13Z</time></trkpt>
<trkpt lat="23.909879" lon="112.151114">
<time>2016-10-06T11:47:14Z</time></trkpt>
<trkpt lat="23.909849" lon="112.150923">
<time>2016-10-06T11:47:15Z</time></trkpt>
<trkpt lat="23.909838" lon="112.150773">
<time>2016-10-06T11:47:16Z</time></trkpt>
<trkpt lat="23.909838" lon="112.150753">
<time>2016-10-06T11:47:17Z</time></trkpt>
<trkpt lat="23.909838" lon="112.150643">
<time>2016-10-06T11:47:18Z</time></trkpt>
<trkpt lat="23.909838" lon="112.150593">
<time>2016-10-06T11:47:19Z</time></trkpt>
<trkpt lat="23.909848" lon="112.150502">
<time>2016-10-06T11:47:20Z</time></trkpt>
<trkpt lat="23.909858" lon="112.150372">
<time>2016-10-06T11:47:21Z</time></trkpt>
<trkpt lat="23.909877" lon="112.150262">
<time>2016-10-06T11:47:22Z</time></trkpt>
<trkpt lat="23.909907" lon="112.150142">
<time>2016-10-06T11:47:23Z</time></trkpt>
<trkpt lat="23.910692" lon="112.147095">
<time>2016-10-06T11:47:24Z</time></trkpt>
<trkpt lat="23.910722" lon="112.146965">
<time>2016-10-06T11:47:25Z</time></trkpt>
<trkpt lat="23.910772" lon="112.146865">
<time>2016-10-06T11:47:26Z</time></trkpt>
<trkpt lat="23.910792" lon="112.146815">
<time>2016-10-06T11:47:27Z</time></trkpt>
<trkpt lat="23.910812" lon="112.146785">
<time>2016-10-06T11:47:28Z</time></trkpt>
<trkpt lat="23.910861" lon="112.146694">
<time>2016-10-06T11:47:29Z</time></trkpt>
<trkpt lat="23.910911" lon="112.146634">
<time>2016-10-06T11:47:30Z</time></trkpt>
<trkpt lat="23.910981" lon="112.146574">
<time>2016-10-06T11:47:31Z</time></trkpt>
<trkpt lat="23.911041" lon="112.146534">
<time>2016-10-06T11:47:32Z</time></trkpt>
<trkpt lat="23.911121" lon="112.146484">
<time>2016-10-06T11:47:33Z</time></trkpt>
<trkpt lat="23.911211" lon="112.146434">
<time>2016-10-06T11:47:34Z</time></trkpt>
<trkpt lat="23.911221" lon="112.146424">
<time>2016-10-06T11:47:35Z</time></trkpt>
<trkpt lat="23.911381" lon="112.146344">
<time>2016-10-06T11:47:36Z</time></trkpt>
<trkpt lat="23.911611" lon="112.146233">
<time>2016-10-06T11:47:37Z</time></trkpt>
<trkpt lat="23.9132" lon="112.145412">
<time>2016-10-06T11:47:38Z</time></trkpt>
<trkpt lat="23.91341" lon="112.145281">
<time>2016-10-06T11:47:39Z</time></trkpt>
<trkpt lat="23.91359" lon="112.145151">
<time>2016-10-06T11:47:40Z</time></trkpt>
<trkpt lat="23.91376" lon="112.144961">
<time>2016-10-06T11:47:41Z</time></trkpt>
<trkpt lat="23.914009" lon="112.14467">
<time>2016-10-06T11:47:42Z</time></trkpt>
<trkpt lat="23.914598" lon="112.143908">
<time>2016-10-06T11:47:43Z</time></trkpt>
<trkpt lat="23.914908" lon="112.143488">
<time>2016-10-06T11:47:44Z</time></trkpt>
<trkpt lat="23.915087" lon="112.143227">
<time>2016-10-06T11:47:45Z</time></trkpt>
<trkpt lat="23.915367" lon="112.142766">
<time>2016-10-06T11:47:46Z</time></trkpt>
<trkpt lat="23.915726" lon="112.142095">
<time>2016-10-06T11:47:47Z</time></trkpt>
<trkpt lat="23.915905" lon="112.141714">
<time>2016-10-06T11:47:48Z</time></trkpt>
<trkpt lat="23.916015" lon="112.141443">
<time>2016-10-06T11:47:49Z</time></trkpt>
<trkpt lat="23.916124" lon="112.141193">
<time>2016-10-06T11:47:50Z</time></trkpt>
<trkpt lat="23.916672" lon="112.13976">
<time>2016-10-06T11:47:51Z</time></trkpt>
<trkpt lat="23.916752" lon="112.13961">
<time>2016-10-06T11:47:52Z</time></trkpt>
<trkpt lat="23.916842" lon="112.139489">
<time>2016-10-06T11:47:53Z</time></trkpt>
<trkpt lat="23.916932" lon="112.139359">
<time>2016-10-06T11:47:54Z</time></trkpt>
<trkpt lat="23.917421" lon="112.138828">
<time>2016-10-06T11:47:55Z</time></trkpt>
<trkpt lat="23.917531" lon="112.138678">
<time>2016-10-06T11:47:56Z</time></trkpt>
<trkpt lat="23.917661" lon="112.138518">
<time>2016-10-06T11:47:57Z</time></trkpt>
<trkpt lat="23.91779" lon="112.138347">
<time>2016-10-06T11:47:58Z</time></trkpt>
<trkpt lat="23.91794" lon="112.138127">
<time>2016-10-06T11:47:59Z</time></trkpt>
<trkpt lat="23.91808" lon="112.137886">
<time>2016-10-06T11:48:00Z</time></trkpt>
<trkpt lat="23.918698" lon="112.136624">
<time>2016-10-06T11:48:01Z</time></trkpt>
<trkpt lat="23.918778" lon="112.136444">
<time>2016-10-06T11:48:02Z</time></trkpt>
<trkpt lat="23.918828" lon="112.136303">
<time>2016-10-06T11:48:03Z</time></trkpt>
<trkpt lat="23.918867" lon="112.136133">
<time>2016-10-06T11:48:04Z</time></trkpt>
<trkpt lat="23.918877" lon="112.135983">
<time>2016-10-06T11:48:05Z</time></trkpt>
<trkpt lat="23.918867" lon="112.135812">
<time>2016-10-06T11:48:06Z</time></trkpt>
<trkpt lat="23.918826" lon="112.135622">
<time>2016-10-06T11:48:07Z</time></trkpt>
<trkpt lat="23.918083" lon="112.133618">
<time>2016-10-06T11:48:08Z</time></trkpt>
<trkpt lat="23.918023" lon="112.133438">
<time>2016-10-06T11:48:09Z</time></trkpt>
<trkpt lat="23.917983" lon="112.133278">
<time>2016-10-06T11:48:10Z</time></trkpt>
<trkpt lat="23.917952" lon="112.133118">
<time>2016-10-06T11:48:11Z</time></trkpt>
<trkpt lat="23.917932" lon="112.132937">
<time>2016-10-06T11:48:12Z</time></trkpt>
<trkpt lat="23.917922" lon="112.132747">
<time>2016-10-06T11:48:13Z</time></trkpt>
<trkpt lat="23.917912" lon="112.132557">
<time>2016-10-06T11:48:14Z</time></trkpt>
<trkpt lat="23.917921" lon="112.132316">
<time>2016-10-06T11:48:15Z</time></trkpt>
<trkpt lat="23.91797" lon="112.131314">
<time>2016-10-06T11:48:16Z</time></trkpt>
<trkpt lat="23.91798" lon="112.131124">
<time>2016-10-06T11:48:17Z</time></trkpt>
<trkpt lat="23.917999" lon="112.130954">
<time>2016-10-06T11:48:18Z</time></trkpt>
<trkpt lat="23.918029" lon="112.130783">
<time>2016-10-06T11:48:19Z</time></trkpt>
<trkpt lat="23.918059" lon="112.130563">
<time>2016-10-06T11:48:20Z</time></trkpt>
<trkpt lat="23.918278" lon="112.129682">
<time>2016-10-06T11:48:21Z</time></trkpt>
<trkpt lat="23.918497" lon="112.12879">
<time>2016-10-06T11:48:22Z</time></trkpt>
<trkpt lat="23.918546" lon="112.12859">
<time>2016-10-06T11:48:23Z</time></trkpt>
<trkpt lat="23.918596" lon="112.128419">
<time>2016-10-06T11:48:24Z</time></trkpt>
<trkpt lat="23.918656" lon="112.128259">
<time>2016-10-06T11:48:25Z</time></trkpt>
<trkpt lat="23.918736" lon="112.128099">
<time>2016-10-06T11:48:26Z</time></trkpt>
<trkpt lat="23.918895" lon="112.127788">
<time>2016-10-06T11:48:27Z</time></trkpt>
<trkpt lat="23.918975" lon="112.127638">
<time>2016-10-06T11:48:28Z</time></trkpt>
<trkpt lat="23.919085" lon="112.127478">
<time>2016-10-06T11:48:29Z</time></trkpt>
<trkpt lat="23.919185" lon="112.127368">
<time>2016-10-06T11:48:30Z</time></trkpt>
<trkpt lat="23.919285" lon="112.127258">
<time>2016-10-06T11:48:31Z</time></trkpt>
<trkpt lat="23.919395" lon="112.127177">
<time>2016-10-06T11:48:32Z</time></trkpt>
<trkpt lat="23.919525" lon="112.127087">
<time>2016-10-06T11:48:33Z</time></trkpt>
<trkpt lat="23.919685" lon="112.127007">
<time>2016-10-06T11:48:34Z</time></trkpt>
<trkpt lat="23.919915" lon="112.126907">
<time>2016-10-06T11:48:35Z</time></trkpt>
<trkpt lat="23.921224" lon="112.126396">
<time>2016-10-06T11:48:36Z</time></trkpt>
<trkpt lat="23.921844" lon="112.126156">
<time>2016-10-06T11:48:37Z</time></trkpt>
<trkpt lat="23.922004" lon="112.126085">
<time>2016-10-06T11:48:38Z</time></trkpt>
<trkpt lat="23.922134" lon="112.126015">
<time>2016-10-06T11:48:39Z</time></trkpt>
<trkpt lat="23.922254" lon="112.125935">
<time>2016-10-06T11:48:40Z</time></trkpt>
<trkpt lat="23.922364" lon="112.125845">
<time>2016-10-06T11:48:41Z</time></trkpt>
<trkpt lat="23.922454" lon="112.125755">
<time>2016-10-06T11:48:42Z</time></trkpt>
<trkpt lat="23.922554" lon="112.125625">
<time>2016-10-06T11:48:43Z</time></trkpt>
<trkpt lat="23.922644" lon="112.125464">
<time>2016-10-06T11:48:44Z</time></trkpt>
<trkpt lat="23.922704" lon="112.125324">
<time>2016-10-06T11:48:45Z</time></trkpt>
<trkpt lat="23.922803" lon="112.125004">
<time>2016-10-06T11:48:46Z</time></trkpt>
<trkpt lat="23.922963" lon="112.124533">
<time>2016-10-06T11:48:47Z</time></trkpt>
<trkpt lat="23.923033" lon="112.124333">
<time>2016-10-06T11:48:48Z</time></trkpt>
<trkpt lat="23.923043" lon="112.124293">
<time>2016-10-06T11:48:49Z</time></trkpt>
<trkpt lat="23.923162" lon="112.123942">
<time>2016-10-06T11:48:50Z</time></trkpt>
<trkpt lat="23.923292" lon="112.123632">
<time>2016-10-06T11:48:51Z</time></trkpt>
<trkpt lat="23.923821" lon="112.12252">
<time>2016-10-06T11:48:52Z</time></trkpt>
<trkpt lat="23.923931" lon="112.1223">
<time>2016-10-06T11:48:53Z</time></trkpt>
<trkpt lat="23.92404" lon="112.122129">
<time>2016-10-06T11:48:54Z</time></trkpt>
<trkpt lat="23.92416" lon="112.121989">
<time>2016-10-06T11:48:55Z</time></trkpt>
<trkpt lat="23.92433" lon="112.121859">
<time>2016-10-06T11:48:56Z</time></trkpt>
<trkpt lat="23.92448" lon="112.121779">
<time>2016-10-06T11:48:57Z</time></trkpt>
<trkpt lat="23.92527" lon="112.121438">
<time>2016-10-06T11:48:58Z</time></trkpt>
<trkpt lat="23.92547" lon="112.121348">
<time>2016-10-06T11:48:59Z</time></trkpt>
<trkpt lat="23.92564" lon="112.121238">
<time>2016-10-06T11:49:00Z</time></trkpt>
<trkpt lat="23.92582" lon="112.121098">
<time>2016-10-06T11:49:01Z</time></trkpt>
<trkpt lat="23.926" lon="112.120938">
<time>2016-10-06T11:49:02Z</time></trkpt>
<trkpt lat="23.926869" lon="112.120036">
<time>2016-10-06T11:49:03Z</time></trkpt>
<trkpt lat="23.927039" lon="112.119876">
<time>2016-10-06T11:49:04Z</time></trkpt>
<trkpt lat="23.927179" lon="112.119756">
<time>2016-10-06T11:49:05Z</time></trkpt>
<trkpt lat="23.927309" lon="112.119666">
<time>2016-10-06T11:49:06Z</time></trkpt>
<trkpt lat="23.927749" lon="112.119395">
<time>2016-10-06T11:49:07Z</time></trkpt>
<trkpt lat="23.927939" lon="112.119255">
<time>2016-10-06T11:49:08Z</time></trkpt>
<trkpt lat="23.928089" lon="112.119105">
<time>2016-10-06T11:49:09Z</time></trkpt>
<trkpt lat="23.928229" lon="112.118935">
<time>2016-10-06T11:49:10Z</time></trkpt>
<trkpt lat="23.928388" lon="112.118734">
<time>2016-10-06T11:49:11Z</time></trkpt>
<trkpt lat="23.929188" lon="112.117553">
<time>2016-10-06T11:49:12Z</time></trkpt>
<trkpt lat="23.929437" lon="112.117202">
<time>2016-10-06T11:49:13Z</time></trkpt>
<trkpt lat="23.930886" lon="112.11539">
<time>2016-10-06T11:49:14Z</time></trkpt>
<trkpt lat="23.932915" lon="112.112877">
<time>2016-10-06T11:49:15Z</time></trkpt>
<trkpt lat="23.933095" lon="112.112667">
<time>2016-10-06T11:49:16Z</time></trkpt>
<trkpt lat="23.933185" lon="112.112537">
<time>2016-10-06T11:49:17Z</time></trkpt>
<trkpt lat="23.933235" lon="112.112447">
<time>2016-10-06T11:49:18Z</time></trkpt>
<trkpt lat="23.933314" lon="112.112276">
<time>2016-10-06T11:49:19Z</time></trkpt>
<trkpt lat="23.933384" lon="112.112106">
<time>2016-10-06T11:49:20Z</time></trkpt>
<trkpt lat="23.933424" lon="112.111966">
<time>2016-10-06T11:49:21Z</time></trkpt>
<trkpt lat="23.933464" lon="112.111796">
<time>2016-10-06T11:49:22Z</time></trkpt>
<trkpt lat="23.933504" lon="112.111516">
<time>2016-10-06T11:49:23Z</time></trkpt>
<trkpt lat="23.933524" lon="112.111285">
<time>2016-10-06T11:49:24Z</time></trkpt>
<trkpt lat="23.933524" lon="112.111235">
<time>2016-10-06T11:49:25Z</time></trkpt>
<trkpt lat="23.933524" lon="112.111165">
<time>2016-10-06T11:49:26Z</time></trkpt>
<trkpt lat="23.933514" lon="112.111045">
<time>2016-10-06T11:49:27Z</time></trkpt>
<trkpt lat="23.933504" lon="112.110985">
<time>2016-10-06T11:49:28Z</time></trkpt>
<trkpt lat="23.933493" lon="112.110925">
<time>2016-10-06T11:49:29Z</time></trkpt>
<trkpt lat="23.933473" lon="112.110875">
<time>2016-10-06T11:49:30Z</time></trkpt>
<trkpt lat="23.933443" lon="112.110795">
<time>2016-10-06T11:49:31Z</time></trkpt>
<trkpt lat="23.933373" lon="112.110655">
<time>2016-10-06T11:49:32Z</time></trkpt>
<trkpt lat="23.933293" lon="112.110525">
<time>2016-10-06T11:49:33Z</time></trkpt>
<trkpt lat="23.932602" lon="112.109514">
<time>2016-10-06T11:49:34Z</time></trkpt>
<trkpt lat="23.932542" lon="112.109404">
<time>2016-10-06T11:49:35Z</time></trkpt>
<trkpt lat="23.932492" lon="112.109263">
<time>2016-10-06T11:49:36Z</time></trkpt>
<trkpt lat="23.932462" lon="112.109163">
<time>2016-10-06T11:49:37Z</time></trkpt>
<trkpt lat="23.932432" lon="112.109053">
<time>2016-10-06T11:49:38Z</time></trkpt>
<trkpt lat="23.932422" lon="112.108953">
<time>2016-10-06T11:49:39Z</time></trkpt>
<trkpt lat="23.932412" lon="112.108843">
<time>2016-10-06T11:49:40Z</time></trkpt>
<trkpt lat="23.932402" lon="112.108733">
<time>2016-10-06T11:49:41Z</time></trkpt>
<trkpt lat="23.93245" lon="112.106791">
<time>2016-10-06T11:49:42Z</time></trkpt>
<trkpt lat="23.93247" lon="112.106441">
<time>2016-10-06T11:49:43Z</time></trkpt>
<trkpt lat="23.93249" lon="112.106211">
<time>2016-10-06T11:49:44Z</time></trkpt>
<trkpt lat="23.93253" lon="112.106001">
<time>2016-10-06T11:49:45Z</time></trkpt>
<trkpt lat="23.93257" lon="112.1058">
<time>2016-10-06T11:49:46Z</time></trkpt>
<trkpt lat="23.93274" lon="112.1052">
<time>2016-10-06T11:49:47Z</time></trkpt>
<trkpt lat="23.932769" lon="112.10507">
<time>2016-10-06T11:49:48Z</time></trkpt>
<trkpt lat="23.932799" lon="112.10492">
<time>2016-10-06T11:49:49Z</time></trkpt>
<trkpt lat="23.932799" lon="112.10476">
<time>2016-10-06T11:49:50Z</time></trkpt>
<trkpt lat="23.932799" lon="112.104629">
<time>2016-10-06T11:49:51Z</time></trkpt>
<trkpt lat="23.932769" lon="112.104499">
<time>2016-10-06T11:49:52Z</time></trkpt>
<trkpt lat="23.932629" lon="112.103819">
<time>2016-10-06T11:49:53Z</time></trkpt>
<trkpt lat="23.932609" lon="112.103659">
<time>2016-10-06T11:49:54Z</time></trkpt>
<trkpt lat="23.932609" lon="112.103509">
<time>2016-10-06T11:49:55Z</time></trkpt>
<trkpt lat="23.932609" lon="112.103379">
<time>2016-10-06T11:49:56Z</time></trkpt>
<trkpt lat="23.932629" lon="112.103238">
<time>2016-10-06T11:49:57Z</time></trkpt>
<trkpt lat="23.932648" lon="112.103108">
<time>2016-10-06T11:49:58Z</time></trkpt>
<trkpt lat="23.932708" lon="112.102928">
<time>2016-10-06T11:49:59Z</time></trkpt>
<trkpt lat="23.932728" lon="112.102848">
<time>2016-10-06T11:50:00Z</time></trkpt>
<trkpt lat="23.932778" lon="112.102748">
<time>2016-10-06T11:50:01Z</time></trkpt>
<trkpt lat="23.932868" lon="112.102578">
<time>2016-10-06T11:50:02Z</time></trkpt>
<trkpt lat="23.932938" lon="112.102488">
<time>2016-10-06T11:50:03Z</time></trkpt>
<trkpt lat="23.933008" lon="112.102388">
<time>2016-10-06T11:50:04Z</time></trkpt>
<trkpt lat="23.933118" lon="112.102258">
<time>2016-10-06T11:50:05Z</time></trkpt>
<trkpt lat="23.933298" lon="112.102068">
<time>2016-10-06T11:50:06Z</time></trkpt>
<trkpt lat="23.933878" lon="112.101447">
<time>2016-10-06T11:50:07Z</time></trkpt>
<trkpt lat="23.934898" lon="112.100357">
<time>2016-10-06T11:50:08Z</time></trkpt>
<trkpt lat="23.935398" lon="112.099836">
<time>2016-10-06T11:50:09Z</time></trkpt>
<trkpt lat="23.935918" lon="112.099286">
<time>2016-10-06T11:50:10Z</time></trkpt>
<trkpt lat="23.936138" lon="112.099076">
<time>2016-10-06T11:50:11Z</time></trkpt>
<trkpt lat="23.936328" lon="112.098916">
<time>2016-10-06T11:50:12Z</time></trkpt>
<trkpt lat="23.936538" lon="112.098766">
<time>2016-10-06T11:50:13Z</time></trkpt>
<trkpt lat="23.937049" lon="112.098415">
<time>2016-10-06T11:50:14Z</time></trkpt>
<trkpt lat="23.937489" lon="112.098135">
<time>2016-10-06T11:50:15Z</time></trkpt>
<trkpt lat="23.937749" lon="112.097955">
<time>2016-10-06T11:50:16Z</time></trkpt>
<trkpt lat="23.938389" lon="112.097525">
<time>2016-10-06T11:50:17Z</time></trkpt>
<trkpt lat="23.938499" lon="112.097445">
<time>2016-10-06T11:50:18Z</time></trkpt>
<trkpt lat="23.938639" lon="112.097315">
<time>2016-10-06T11:50:19Z</time></trkpt>
<trkpt lat="23.938739" lon="112.097185">
<time>2016-10-06T11:50:20Z</time></trkpt>
<trkpt lat="23.938829" lon="112.096985">
<time>2016-10-06T11:50:21Z</time></trkpt>
<trkpt lat="23.939069" lon="112.096364">
<time>2016-10-06T11:50:22Z</time></trkpt>
<trkpt lat="23.939159" lon="112.096134">
<time>2016-10-06T11:50:23Z</time></trkpt>
<trkpt lat="23.939259" lon="112.095944">
<time>2016-10-06T11:50:24Z</time></trkpt>
<trkpt lat="23.939419" lon="112.095704">
<time>2016-10-06T11:50:25Z</time></trkpt>
<trkpt lat="23.940289" lon="112.094554">
<time>2016-10-06T11:50:26Z</time></trkpt>
<trkpt lat="23.940419" lon="112.094424">
<time>2016-10-06T11:50:27Z</time></trkpt>
<trkpt lat="23.940559" lon="112.094324">
<time>2016-10-06T11:50:28Z</time></trkpt>
<trkpt lat="23.940729" lon="112.094234">
<time>2016-10-06T11:50:29Z</time></trkpt>
<trkpt lat="23.94232" lon="112.093573">
<time>2016-10-06T11:50:30Z</time></trkpt>
<trkpt lat="23.94247" lon="112.093493">
<time>2016-10-06T11:50:31Z</time></trkpt>
<trkpt lat="23.94264" lon="112.093383">
<time>2016-10-06T11:50:32Z</time></trkpt>
<trkpt lat="23.94278" lon="112.093263">
<time>2016-10-06T11:50:33Z</time></trkpt>
<trkpt lat="23.94291" lon="112.093123">
<time>2016-10-06T11:50:34Z</time></trkpt>
<trkpt lat="23.94306" lon="112.092953">
<time>2016-10-06T11:50:35Z</time></trkpt>
<trkpt lat="23.943981" lon="112.091623">
<time>2016-10-06T11:50:36Z</time></trkpt>
<trkpt lat="23.944541" lon="112.090823">
<time>2016-10-06T11:50:37Z</time></trkpt>
<trkpt lat="23.944761" lon="112.090553">
<time>2016-10-06T11:50:38Z</time></trkpt>
<trkpt lat="23.944891" lon="112.090423">
<time>2016-10-06T11:50:39Z</time></trkpt>
<trkpt lat="23.945021" lon="112.090313">
<time>2016-10-06T11:50:40Z</time></trkpt>
<trkpt lat="23.945161" lon="112.090203">
<time>2016-10-06T11:50:41Z</time></trkpt>
<trkpt lat="23.946552" lon="112.089242">
<time>2016-10-06T11:50:42Z</time></trkpt>
<trkpt lat="23.946802" lon="112.089052">
<time>2016-10-06T11:50:43Z</time></trkpt>
<trkpt lat="23.946992" lon="112.088872">
<time>2016-10-06T11:50:44Z</time></trkpt>
<trkpt lat="23.947172" lon="112.088652">
<time>2016-10-06T11:50:45Z</time></trkpt>
<trkpt lat="23.947382" lon="112.088352">
<time>2016-10-06T11:50:46Z</time></trkpt>
<trkpt lat="23.948944" lon="112.085702">
<time>2016-10-06T11:50:47Z</time></trkpt>
<trkpt lat="23.950135" lon="112.083673">
<time>2016-10-06T11:50:48Z</time></trkpt>
<trkpt lat="23.950395" lon="112.083183">
<time>2016-10-06T11:50:49Z</time></trkpt>
<trkpt lat="23.950575" lon="112.082893">
<time>2016-10-06T11:50:50Z</time></trkpt>
<trkpt lat="23.950696" lon="112.082693">
<time>2016-10-06T11:50:51Z</time></trkpt>
<trkpt lat="23.950776" lon="112.082533">
<time>2016-10-06T11:50:52Z</time></trkpt>
<trkpt lat="23.950846" lon="112.082353">
<time>2016-10-06T11:50:53Z</time></trkpt>
<trkpt lat="23.950906" lon="112.082173">
<time>2016-10-06T11:50:54Z</time></trkpt>
<trkpt lat="23.951006" lon="112.081693">
<time>2016-10-06T11:50:55Z</time></trkpt>
<trkpt lat="23.951006" lon="112.081693">
<time>2016-10-06T11:50:56Z</time></trkpt>
<trkpt lat="23.951227" lon="112.081233">
<time>2016-10-06T11:50:57Z</time></trkpt>
<trkpt lat="23.951357" lon="112.080964">
<time>2016-10-06T11:50:58Z</time></trkpt>
<trkpt lat="23.951407" lon="112.080874">
<time>2016-10-06T11:50:59Z</time></trkpt>
<trkpt lat="23.951948" lon="112.079974">
<time>2016-10-06T11:51:00Z</time></trkpt>
<trkpt lat="23.952208" lon="112.079504">
<time>2016-10-06T11:51:01Z</time></trkpt>
<trkpt lat="23.952438" lon="112.079134">
<time>2016-10-06T11:51:02Z</time></trkpt>
<trkpt lat="23.952669" lon="112.078764">
<time>2016-10-06T11:51:03Z</time></trkpt>
<trkpt lat="23.954191" lon="112.076645">
<time>2016-10-06T11:51:04Z</time></trkpt>
<trkpt lat="23.956114" lon="112.073807">
<time>2016-10-06T11:51:05Z</time></trkpt>
<trkpt lat="23.956644" lon="112.073048">
<time>2016-10-06T11:51:06Z</time></trkpt>
<trkpt lat="23.958598" lon="112.07026">
<time>2016-10-06T11:51:07Z</time></trkpt>
<trkpt lat="23.958598" lon="112.07026">
<time>2016-10-06T11:51:08Z</time></trkpt>
<trkpt lat="23.958538" lon="112.07017">
<time>2016-10-06T11:51:09Z</time></trkpt>
<trkpt lat="23.958398" lon="112.06997">
<time>2016-10-06T11:51:10Z</time></trkpt>
<trkpt lat="23.958268" lon="112.06982">
<time>2016-10-06T11:51:11Z</time></trkpt>
<trkpt lat="23.958218" lon="112.06966">
<time>2016-10-06T11:51:12Z</time></trkpt>
<trkpt lat="23.958208" lon="112.0696">
<time>2016-10-06T11:51:13Z</time></trkpt>
<trkpt lat="23.958209" lon="112.069471">
<time>2016-10-06T11:51:14Z</time></trkpt>
<trkpt lat="23.958179" lon="112.069281">
<time>2016-10-06T11:51:15Z</time></trkpt>
<trkpt lat="23.958049" lon="112.068811">
<time>2016-10-06T11:51:16Z</time></trkpt>
<trkpt lat="23.95793" lon="112.068352">
<time>2016-10-06T11:51:17Z</time></trkpt>
<trkpt lat="23.95784" lon="112.068052">
<time>2016-10-06T11:51:18Z</time></trkpt>
<trkpt lat="23.95778" lon="112.067752">
<time>2016-10-06T11:51:19Z</time></trkpt>
<trkpt lat="23.95772" lon="112.067562">
<time>2016-10-06T11:51:20Z</time></trkpt>
<trkpt lat="23.957601" lon="112.067083">
<time>2016-10-06T11:51:21Z</time></trkpt>
<trkpt lat="23.957561" lon="112.066733">
<time>2016-10-06T11:51:22Z</time></trkpt>
<trkpt lat="23.957532" lon="112.066414">
<time>2016-10-06T11:51:23Z</time></trkpt>
<trkpt lat="23.957532" lon="112.066144">
<time>2016-10-06T11:51:24Z</time></trkpt>
<trkpt lat="23.957462" lon="112.065894">
<time>2016-10-06T11:51:25Z</time></trkpt>
<trkpt lat="23.957412" lon="112.065714">
<time>2016-10-06T11:51:26Z</time></trkpt>
<trkpt lat="23.957393" lon="112.065585">
<time>2016-10-06T11:51:27Z</time></trkpt>
<trkpt lat="23.957293" lon="112.065285">
<time>2016-10-06T11:51:28Z</time></trkpt>
<trkpt lat="23.957203" lon="112.064995">
<time>2016-10-06T11:51:29Z</time></trkpt>
<trkpt lat="23.957113" lon="112.064836">
<time>2016-10-06T11:51:30Z</time></trkpt>
<trkpt lat="23.957064" lon="112.064666">
<time>2016-10-06T11:51:31Z</time></trkpt>
<trkpt lat="23.956924" lon="112.064386">
<time>2016-10-06T11:51:32Z</time></trkpt>
<trkpt lat="23.956704" lon="112.064017">
<time>2016-10-06T11:51:33Z</time></trkpt>
<trkpt lat="23.956594" lon="112.063927">
<time>2016-10-06T11:51:34Z</time></trkpt>
<trkpt lat="23.956504" lon="112.063807">
<time>2016-10-06T11:51:35Z</time></trkpt>
<trkpt lat="23.956315" lon="112.063477">
<time>2016-10-06T11:51:36Z</time></trkpt>
<trkpt lat="23.956145" lon="112.063218">
<time>2016-10-06T11:51:37Z</time></trkpt>
<trkpt lat="23.955915" lon="112.062938">
<time>2016-10-06T11:51:38Z</time></trkpt>
<trkpt lat="23.955646" lon="112.062558">
<time>2016-10-06T11:51:39Z</time></trkpt>
<trkpt lat="23.955386" lon="112.062199">
<time>2016-10-06T11:51:40Z</time></trkpt>
<trkpt lat="23.955156" lon="112.061879">
<time>2016-10-06T11:51:41Z</time></trkpt>
<trkpt lat="23.954977" lon="112.06169">
<time>2016-10-06T11:51:42Z</time></trkpt>
<trkpt lat="23.954927" lon="112.06163">
<time>2016-10-06T11:51:43Z</time></trkpt>
<trkpt lat="23.954927" lon="112.06163">
<time>2016-10-06T11:51:44Z</time></trkpt>
<trkpt lat="23.954907" lon="112.06138">
<time>2016-10-06T11:51:45Z</time></trkpt>
<trkpt lat="23.954968" lon="112.060911">
<time>2016-10-06T11:51:46Z</time></trkpt>
<trkpt lat="23.954978" lon="112.060641">
<time>2016-10-06T11:51:47Z</time></trkpt>
<trkpt lat="23.955039" lon="112.060241">
<time>2016-10-06T11:51:48Z</time></trkpt>
<trkpt lat="23.955049" lon="112.059772">
<time>2016-10-06T11:51:49Z</time></trkpt>
<trkpt lat="23.95508" lon="112.059483">
<time>2016-10-06T11:51:50Z</time></trkpt>
<trkpt lat="23.95513" lon="112.059293">
<time>2016-10-06T11:51:51Z</time></trkpt>
<trkpt lat="23.95519" lon="112.059113">
<time>2016-10-06T11:51:52Z</time></trkpt>
<trkpt lat="23.955261" lon="112.058973">
<time>2016-10-06T11:51:53Z</time></trkpt>
<trkpt lat="23.955361" lon="112.058564">
<time>2016-10-06T11:51:54Z</time></trkpt>
<trkpt lat="23.955512" lon="112.058204">
<time>2016-10-06T11:51:55Z</time></trkpt>
<trkpt lat="23.955562" lon="112.058035">
<time>2016-10-06T11:51:56Z</time></trkpt>
<trkpt lat="23.955833" lon="112.057525">
<time>2016-10-06T11:51:57Z</time></trkpt>
<trkpt lat="23.956104" lon="112.057096">
<time>2016-10-06T11:51:58Z</time></trkpt>
<trkpt lat="23.956285" lon="112.056717">
<time>2016-10-06T11:51:59Z</time></trkpt>
<trkpt lat="23.956375" lon="112.056447">
<time>2016-10-06T11:52:00Z</time></trkpt>
<trkpt lat="23.956416" lon="112.056167">
<time>2016-10-06T11:52:01Z</time></trkpt>
<trkpt lat="23.956346" lon="112.055558">
<time>2016-10-06T11:52:02Z</time></trkpt>
<trkpt lat="23.956397" lon="112.055209">
<time>2016-10-06T11:52:03Z</time></trkpt>
<trkpt lat="23.956438" lon="112.054919">
<time>2016-10-06T11:52:04Z</time></trkpt>
<trkpt lat="23.956548" lon="112.0546">
<time>2016-10-06T11:52:05Z</time></trkpt>
<trkpt lat="23.956529" lon="112.05435">
<time>2016-10-06T11:52:06Z</time></trkpt>
<trkpt lat="23.956559" lon="112.054101">
<time>2016-10-06T11:52:07Z</time></trkpt>
<trkpt lat="23.9567" lon="112.053582">
<time>2016-10-06T11:52:08Z</time></trkpt>
<trkpt lat="23.95672" lon="112.053412">
<time>2016-10-06T11:52:09Z</time></trkpt>
<trkpt lat="23.956701" lon="112.052773">
<time>2016-10-06T11:52:10Z</time></trkpt>
<trkpt lat="23.956632" lon="112.052404">
<time>2016-10-06T11:52:11Z</time></trkpt>
<trkpt lat="23.956592" lon="112.052224">
<time>2016-10-06T11:52:12Z</time></trkpt>
<trkpt lat="23.956463" lon="112.051825">
<time>2016-10-06T11:52:13Z</time></trkpt>
<trkpt lat="23.956394" lon="112.051465">
<time>2016-10-06T11:52:14Z</time></trkpt>
<trkpt lat="23.956314" lon="112.051106">
<time>2016-10-06T11:52:15Z</time></trkpt>
<trkpt lat="23.956235" lon="112.050816">
<time>2016-10-06T11:52:16Z</time></trkpt>
<trkpt lat="23.956145" lon="112.050357">
<time>2016-10-06T11:52:17Z</time></trkpt>
<trkpt lat="23.956076" lon="112.049948">
<time>2016-10-06T11:52:18Z</time></trkpt>
<trkpt lat="23.956036" lon="112.049818">
<time>2016-10-06T11:52:19Z</time></trkpt>
<trkpt lat="23.955947" lon="112.049379">
<time>2016-10-06T11:52:20Z</time></trkpt>
<trkpt lat="23.955788" lon="112.04894">
<time>2016-10-06T11:52:21Z</time></trkpt>
<trkpt lat="23.955659" lon="112.048411">
<time>2016-10-06T11:52:22Z</time></trkpt>
<trkpt lat="23.95555" lon="112.047962">
<time>2016-10-06T11:52:23Z</time></trkpt>
<trkpt lat="23.95554" lon="112.047772">
<time>2016-10-06T11:52:24Z</time></trkpt>
<trkpt lat="23.955521" lon="112.047552">
<time>2016-10-06T11:52:25Z</time></trkpt>
<trkpt lat="23.955531" lon="112.047233">
<time>2016-10-06T11:52:26Z</time></trkpt>
<trkpt lat="23.955522" lon="112.046934">
<time>2016-10-06T11:52:27Z</time></trkpt>
<trkpt lat="23.955553" lon="112.046475">
<time>2016-10-06T11:52:28Z</time></trkpt>
<trkpt lat="23.955613" lon="112.046235">
<time>2016-10-06T11:52:29Z</time></trkpt>
<trkpt lat="23.955673" lon="112.046105">
<time>2016-10-06T11:52:30Z</time></trkpt>
<trkpt lat="23.955904" lon="112.045836">
<time>2016-10-06T11:52:31Z</time></trkpt>
<trkpt lat="23.956075" lon="112.045616">
<time>2016-10-06T11:52:32Z</time></trkpt>
<trkpt lat="23.956285" lon="112.045447">
<time>2016-10-06T11:52:33Z</time></trkpt>
<trkpt lat="23.956516" lon="112.045177">
<time>2016-10-06T11:52:34Z</time></trkpt>
<trkpt lat="23.956666" lon="112.044988">
<time>2016-10-06T11:52:35Z</time></trkpt>
<trkpt lat="23.956857" lon="112.044708">
<time>2016-10-06T11:52:36Z</time></trkpt>
<trkpt lat="23.957048" lon="112.044349">
<time>2016-10-06T11:52:37Z</time></trkpt>
<trkpt lat="23.957188" lon="112.044019">
<time>2016-10-06T11:52:38Z</time></trkpt>
<trkpt lat="23.957249" lon="112.04391">
<time>2016-10-06T11:52:39Z</time></trkpt>
<trkpt lat="23.95753" lon="112.043511">
<time>2016-10-06T11:52:40Z</time></trkpt>
<trkpt lat="23.95764" lon="112.043381">
<time>2016-10-06T11:52:41Z</time></trkpt>
<trkpt lat="23.95777" lon="112.043171">
<time>2016-10-06T11:52:42Z</time></trkpt>
<trkpt lat="23.958111" lon="112.042732">
<time>2016-10-06T11:52:43Z</time></trkpt>
<trkpt lat="23.958463" lon="112.042263">
<time>2016-10-06T11:52:44Z</time></trkpt>
<trkpt lat="23.958623" lon="112.042083">
<time>2016-10-06T11:52:45Z</time></trkpt>
<trkpt lat="23.958744" lon="112.041814">
<time>2016-10-06T11:52:46Z</time></trkpt>
<trkpt lat="23.958764" lon="112.041644">
<time>2016-10-06T11:52:47Z</time></trkpt>
<trkpt lat="23.958805" lon="112.041126">
<time>2016-10-06T11:52:48Z</time></trkpt>
<trkpt lat="23.958776" lon="112.040816">
<time>2016-10-06T11:52:49Z</time></trkpt>
<trkpt lat="23.958797" lon="112.040477">
<time>2016-10-06T11:52:50Z</time></trkpt>
<trkpt lat="23.958798" lon="112.039908">
<time>2016-10-06T11:52:51Z</time></trkpt>
<trkpt lat="23.958809" lon="112.039629">
<time>2016-10-06T11:52:52Z</time></trkpt>
<trkpt lat="23.958789" lon="112.03922">
<time>2016-10-06T11:52:53Z</time></trkpt>
<trkpt lat="23.95879" lon="112.038861">
<time>2016-10-06T11:52:54Z</time></trkpt>
<trkpt lat="23.958812" lon="112.038242">
<time>2016-10-06T11:52:55Z</time></trkpt>
<trkpt lat="23.958802" lon="112.038022">
<time>2016-10-06T11:52:56Z</time></trkpt>
<trkpt lat="23.958803" lon="112.037653">
<time>2016-10-06T11:52:57Z</time></trkpt>
<trkpt lat="23.958824" lon="112.037234">
<time>2016-10-06T11:52:58Z</time></trkpt>
<trkpt lat="23.958845" lon="112.036805">
<time>2016-10-06T11:52:59Z</time></trkpt>
<trkpt lat="23.958856" lon="112.036446">
<time>2016-10-06T11:53:00Z</time></trkpt>
<trkpt lat="23.958876" lon="112.036257">
<time>2016-10-06T11:53:01Z</time></trkpt>
<trkpt lat="23.958887" lon="112.036007">
<time>2016-10-06T11:53:02Z</time></trkpt>
<trkpt lat="23.958947" lon="112.035758">
<time>2016-10-06T11:53:03Z</time></trkpt>
<trkpt lat="23.958958" lon="112.035668">
<time>2016-10-06T11:53:04Z</time></trkpt>
<trkpt lat="23.958948" lon="112.035429">
<time>2016-10-06T11:53:05Z</time></trkpt>
<trkpt lat="23.958909" lon="112.035059">
<time>2016-10-06T11:53:06Z</time></trkpt>
<trkpt lat="23.95889" lon="112.03474">
<time>2016-10-06T11:53:07Z</time></trkpt>
<trkpt lat="23.958891" lon="112.034371">
<time>2016-10-06T11:53:08Z</time></trkpt>
<trkpt lat="23.958902" lon="112.034042">
<time>2016-10-06T11:53:09Z</time></trkpt>
<trkpt lat="23.958922" lon="112.033842">
<time>2016-10-06T11:53:10Z</time></trkpt>
<trkpt lat="23.959034" lon="112.033254">
<time>2016-10-06T11:53:11Z</time></trkpt>
<trkpt lat="23.959114" lon="112.033054">
<time>2016-10-06T11:53:12Z</time></trkpt>
<trkpt lat="23.959405" lon="112.032605">
<time>2016-10-06T11:53:13Z</time></trkpt>
<trkpt lat="23.959676" lon="112.032196">
<time>2016-10-06T11:53:14Z</time></trkpt>
<trkpt lat="23.959857" lon="112.031907">
<time>2016-10-06T11:53:15Z</time></trkpt>
<trkpt lat="23.960018" lon="112.031718">
<time>2016-10-06T11:53:16Z</time></trkpt>
<trkpt lat="23.960309" lon="112.031309">
<time>2016-10-06T11:53:17Z</time></trkpt>
<trkpt lat="23.960329" lon="112.031229">
<time>2016-10-06T11:53:18Z</time></trkpt>
<trkpt lat="23.960319" lon="112.031159">
<time>2016-10-06T11:53:19Z</time></trkpt>
<trkpt lat="23.960259" lon="112.031069">
<time>2016-10-06T11:53:20Z</time></trkpt>
<trkpt lat="23.9597" lon="112.03061">
<time>2016-10-06T11:53:21Z</time></trkpt>
<trkpt lat="23.959681" lon="112.030531">
<time>2016-10-06T11:53:22Z</time></trkpt>
<trkpt lat="23.959711" lon="112.030451">
<time>2016-10-06T11:53:23Z</time></trkpt>
<trkpt lat="23.959871" lon="112.030241">
<time>2016-10-06T11:53:24Z</time></trkpt>
<trkpt lat="23.960062" lon="112.029872">
<time>2016-10-06T11:53:25Z</time></trkpt>
<trkpt lat="23.960033" lon="112.029603">
<time>2016-10-06T11:53:26Z</time></trkpt>
<trkpt lat="23.959804" lon="112.029024">
<time>2016-10-06T11:53:27Z</time></trkpt>
<trkpt lat="23.959735" lon="112.028835">
<time>2016-10-06T11:53:28Z</time></trkpt>
<trkpt lat="23.959725" lon="112.028735">
<time>2016-10-06T11:53:29Z</time></trkpt>
<trkpt lat="23.959765" lon="112.028665">
<time>2016-10-06T11:53:30Z</time></trkpt>
<trkpt lat="23.959866" lon="112.028576">
<time>2016-10-06T11:53:31Z</time></trkpt>
<trkpt lat="23.960167" lon="112.028256">
<time>2016-10-06T11:53:32Z</time></trkpt>
<trkpt lat="23.960407" lon="112.027987">
<time>2016-10-06T11:53:33Z</time></trkpt>
<trkpt lat="23.960458" lon="112.027877">
<time>2016-10-06T11:53:34Z</time></trkpt>
<trkpt lat="23.960709" lon="112.027478">
<time>2016-10-06T11:53:35Z</time></trkpt>
<trkpt lat="23.960739" lon="112.027409">
<time>2016-10-06T11:53:36Z</time></trkpt>
<trkpt lat="23.960739" lon="112.027309">
<time>2016-10-06T11:53:37Z</time></trkpt>
<trkpt lat="23.96068" lon="112.02683">
<time>2016-10-06T11:53:38Z</time></trkpt>
<trkpt lat="23.960661" lon="112.026671">
<time>2016-10-06T11:53:39Z</time></trkpt>
<trkpt lat="23.960611" lon="112.026491">
<time>2016-10-06T11:53:40Z</time></trkpt>
<trkpt lat="23.960572" lon="112.026152">
<time>2016-10-06T11:53:41Z</time></trkpt>
<trkpt lat="23.960513" lon="112.025853">
<time>2016-10-06T11:53:42Z</time></trkpt>
<trkpt lat="23.960594" lon="112.025464">
<time>2016-10-06T11:53:43Z</time></trkpt>
<trkpt lat="23.960685" lon="112.025264">
<time>2016-10-06T11:53:44Z</time></trkpt>
<trkpt lat="23.960705" lon="112.025145">
<time>2016-10-06T11:53:45Z</time></trkpt>
<trkpt lat="23.960665" lon="112.024945">
<time>2016-10-06T11:53:46Z</time></trkpt>
<trkpt lat="23.960506" lon="112.024646">
<time>2016-10-06T11:53:47Z</time></trkpt>
<trkpt lat="23.960457" lon="112.024457">
<time>2016-10-06T11:53:48Z</time></trkpt>
<trkpt lat="23.960427" lon="112.024407">
<time>2016-10-06T11:53:49Z</time></trkpt>
<trkpt lat="23.960287" lon="112.024257">
<time>2016-10-06T11:53:50Z</time></trkpt>
<trkpt lat="23.960117" lon="112.024137">
<time>2016-10-06T11:53:51Z</time></trkpt>
<trkpt lat="23.959918" lon="112.023868">
<time>2016-10-06T11:53:52Z</time></trkpt>
<trkpt lat="23.959729" lon="112.023639">
<time>2016-10-06T11:53:53Z</time></trkpt>
<trkpt lat="23.959669" lon="112.023569">
<time>2016-10-06T11:53:54Z</time></trkpt>
<trkpt lat="23.959599" lon="112.023549">
<time>2016-10-06T11:53:55Z</time></trkpt>
<trkpt lat="23.959258" lon="112.023779">
<time>2016-10-06T11:53:56Z</time></trkpt>
<trkpt lat="23.958877" lon="112.024038">
<time>2016-10-06T11:53:57Z</time></trkpt>
<trkpt lat="23.958587" lon="112.024237">
<time>2016-10-06T11:53:58Z</time></trkpt>
<trkpt lat="23.958216" lon="112.024507">
<time>2016-10-06T11:53:59Z</time></trkpt>
<trkpt lat="23.957845" lon="112.024776">
<time>2016-10-06T11:54:00Z</time></trkpt>
<trkpt lat="23.957494" lon="112.025025">
<time>2016-10-06T11:54:01Z</time></trkpt>
<trkpt lat="23.957223" lon="112.025205">
<time>2016-10-06T11:54:02Z</time></trkpt>
<trkpt lat="23.957103" lon="112.025265">
<time>2016-10-06T11:54:03Z</time></trkpt>
<trkpt lat="23.957043" lon="112.025245">
<time>2016-10-06T11:54:04Z</time></trkpt>
<trkpt lat="23.956904" lon="112.024975">
<time>2016-10-06T11:54:05Z</time></trkpt>
<trkpt lat="23.956654" lon="112.024776">
<time>2016-10-06T11:54:06Z</time></trkpt>
<trkpt lat="23.956535" lon="112.024656">
<time>2016-10-06T11:54:07Z</time></trkpt>
<trkpt lat="23.956475" lon="112.024656">
<time>2016-10-06T11:54:08Z</time></trkpt>
<trkpt lat="23.956274" lon="112.024676">
<time>2016-10-06T11:54:09Z</time></trkpt>
<trkpt lat="23.956215" lon="112.024606">
<time>2016-10-06T11:54:10Z</time></trkpt>
<trkpt lat="23.955926" lon="112.024108">
<time>2016-10-06T11:54:11Z</time></trkpt>
<trkpt lat="23.955767" lon="112.023749">
<time>2016-10-06T11:54:12Z</time></trkpt>
<trkpt lat="23.955587" lon="112.023579">
<time>2016-10-06T11:54:13Z</time></trkpt>
<trkpt lat="23.955507" lon="112.02347">
<time>2016-10-06T11:54:14Z</time></trkpt>
<trkpt lat="23.955218" lon="112.023011">
<time>2016-10-06T11:54:15Z</time></trkpt>
<trkpt lat="23.954969" lon="112.022612">
<time>2016-10-06T11:54:16Z</time></trkpt>
<trkpt lat="23.95474" lon="112.022243">
<time>2016-10-06T11:54:17Z</time></trkpt>
<trkpt lat="23.954471" lon="112.021844">
<time>2016-10-06T11:54:18Z</time></trkpt>
<trkpt lat="23.954222" lon="112.021475">
<time>2016-10-06T11:54:19Z</time></trkpt>
<trkpt lat="23.953993" lon="112.021096">
<time>2016-10-06T11:54:20Z</time></trkpt>
<trkpt lat="23.953784" lon="112.020747">
<time>2016-10-06T11:54:21Z</time></trkpt>
<trkpt lat="23.953585" lon="112.020428">
<time>2016-10-06T11:54:22Z</time></trkpt>
<trkpt lat="23.953575" lon="112.020398">
<time>2016-10-06T11:54:23Z</time></trkpt>
<trkpt lat="23.953386" lon="112.020099">
<time>2016-10-06T11:54:24Z</time></trkpt>
<trkpt lat="23.953236" lon="112.01984">
<time>2016-10-06T11:54:25Z</time></trkpt>
<trkpt lat="23.953047" lon="112.019611">
<time>2016-10-06T11:54:26Z</time></trkpt>
<trkpt lat="23.953047" lon="112.019611">
<time>2016-10-06T11:54:27Z</time></trkpt>
<trkpt lat="23.954603" lon="112.017776">
<time>2016-10-06T11:54:28Z</time></trkpt>
<trkpt lat="23.954793" lon="112.017556">
<time>2016-10-06T11:54:29Z</time></trkpt>
<trkpt lat="23.954934" lon="112.017397">
<time>2016-10-06T11:54:30Z</time></trkpt>
<trkpt lat="23.955044" lon="112.017257">
<time>2016-10-06T11:54:31Z</time></trkpt>
<trkpt lat="23.955968" lon="112.01611">
<time>2016-10-06T11:54:32Z</time></trkpt>
<trkpt lat="23.95661" lon="112.015363">
<time>2016-10-06T11:54:33Z</time></trkpt>
<trkpt lat="23.956741" lon="112.015193">
<time>2016-10-06T11:54:34Z</time></trkpt>
<trkpt lat="23.957333" lon="112.014415">
<time>2016-10-06T11:54:35Z</time></trkpt>
<trkpt lat="23.957454" lon="112.014276">
<time>2016-10-06T11:54:36Z</time></trkpt>
<trkpt lat="23.957524" lon="112.014196">
<time>2016-10-06T11:54:37Z</time></trkpt>
<trkpt lat="23.957685" lon="112.014036">
<time>2016-10-06T11:54:38Z</time></trkpt>
<trkpt lat="23.957865" lon="112.013907">
<time>2016-10-06T11:54:39Z</time></trkpt>
<trkpt lat="23.958065" lon="112.013797">
<time>2016-10-06T11:54:40Z</time></trkpt>
<trkpt lat="23.958246" lon="112.013737">
<time>2016-10-06T11:54:41Z</time></trkpt>
<trkpt lat="23.958506" lon="112.013667">
<time>2016-10-06T11:54:42Z</time></trkpt>
<trkpt lat="23.958946" lon="112.013598">
<time>2016-10-06T11:54:43Z</time></trkpt>
<trkpt lat="23.959297" lon="112.013548">
<time>2016-10-06T11:54:44Z</time></trkpt>
<trkpt lat="23.959527" lon="112.013498">
<time>2016-10-06T11:54:45Z</time></trkpt>
<trkpt lat="23.959807" lon="112.013408">
<time>2016-10-06T11:54:46Z</time></trkpt>
<trkpt lat="23.960568" lon="112.013159">
<time>2016-10-06T11:54:47Z</time></trkpt>
<trkpt lat="23.961389" lon="112.01288">
<time>2016-10-06T11:54:48Z</time></trkpt>
<trkpt lat="23.962581" lon="112.012481">
<time>2016-10-06T11:54:49Z</time></trkpt>
<trkpt lat="23.963943" lon="112.012012">
<time>2016-10-06T11:54:50Z</time></trkpt>
<trkpt lat="23.964043" lon="112.011982">
<time>2016-10-06T11:54:51Z</time></trkpt>
<trkpt lat="23.967558" lon="112.010736">
<time>2016-10-06T11:54:52Z</time></trkpt>
<trkpt lat="23.967578" lon="112.010736">
<time>2016-10-06T11:54:53Z</time></trkpt>
<trkpt lat="23.967769" lon="112.010646">
<time>2016-10-06T11:54:54Z</time></trkpt>
<trkpt lat="23.967799" lon="112.010636">
<time>2016-10-06T11:54:55Z</time></trkpt>
<trkpt lat="23.968039" lon="112.010526">
<time>2016-10-06T11:54:56Z</time></trkpt>
<trkpt lat="23.968109" lon="112.010496">
<time>2016-10-06T11:54:57Z</time></trkpt>
<trkpt lat="23.9687" lon="112.010177">
<time>2016-10-06T11:54:58Z</time></trkpt>
<trkpt lat="23.968831" lon="112.010107">
<time>2016-10-06T11:54:59Z</time></trkpt>
<trkpt lat="23.968951" lon="112.010038">
<time>2016-10-06T11:55:00Z</time></trkpt>
<trkpt lat="23.971015" lon="112.008921">
<time>2016-10-06T11:55:01Z</time></trkpt>
<trkpt lat="23.972187" lon="112.008293">
<time>2016-10-06T11:55:02Z</time></trkpt>
<trkpt lat="23.972689" lon="112.007974">
<time>2016-10-06T11:55:03Z</time></trkpt>
<trkpt lat="23.972729" lon="112.007944">
<time>2016-10-06T11:55:04Z</time></trkpt>
<trkpt lat="23.973019" lon="112.007734">
<time>2016-10-06T11:55:05Z</time></trkpt>
<trkpt lat="23.97328" lon="112.007515">
<time>2016-10-06T11:55:06Z</time></trkpt>
<trkpt lat="23.975838" lon="112.005202">
<time>2016-10-06T11:55:07Z</time></trkpt>
<trkpt lat="23.976279" lon="112.004803">
<time>2016-10-06T11:55:08Z</time></trkpt>
<trkpt lat="23.977604" lon="112.003607">
<time>2016-10-06T11:55:09Z</time></trkpt>
<trkpt lat="23.978115" lon="112.003138">
<time>2016-10-06T11:55:10Z</time></trkpt>
<trkpt lat="23.978747" lon="112.00257">
<time>2016-10-06T11:55:11Z</time></trkpt>
<trkpt lat="23.981616" lon="111.999988">
<time>2016-10-06T11:55:12Z</time></trkpt>
<trkpt lat="23.985428" lon="111.996538">
<time>2016-10-06T11:55:13Z</time></trkpt>
<trkpt lat="23.986582" lon="111.995491">
<time>2016-10-06T11:55:14Z</time></trkpt>
<trkpt lat="23.987425" lon="111.994734">
<time>2016-10-06T11:55:15Z</time></trkpt>
<trkpt lat="23.987615" lon="111.994514">
<time>2016-10-06T11:55:16Z</time></trkpt>
<trkpt lat="23.987776" lon="111.994305">
<time>2016-10-06T11:55:17Z</time></trkpt>
<trkpt lat="23.987806" lon="111.994275">
<time>2016-10-06T11:55:18Z</time></trkpt>
<trkpt lat="23.987957" lon="111.994016">
<time>2016-10-06T11:55:19Z</time></trkpt>
<trkpt lat="23.988088" lon="111.993757">
<time>2016-10-06T11:55:20Z</time></trkpt>
<trkpt lat="23.988219" lon="111.993438">
<time>2016-10-06T11:55:21Z</time></trkpt>
<trkpt lat="23.988572" lon="111.99256">
<time>2016-10-06T11:55:22Z</time></trkpt>
<trkpt lat="23.988814" lon="111.991882">
<time>2016-10-06T11:55:23Z</time></trkpt>
<trkpt lat="23.988986" lon="111.991304">
<time>2016-10-06T11:55:24Z</time></trkpt>
<trkpt lat="23.989097" lon="111.990826">
<time>2016-10-06T11:55:25Z</time></trkpt>
<trkpt lat="23.989107" lon="111.990786">
<time>2016-10-06T11:55:26Z</time></trkpt>
<trkpt lat="23.989219" lon="111.990178">
<time>2016-10-06T11:55:27Z</time></trkpt>
<trkpt lat="23.989301" lon="111.989649">
<time>2016-10-06T11:55:28Z</time></trkpt>
<trkpt lat="23.989631" lon="111.986419">
<time>2016-10-06T11:55:29Z</time></trkpt>
<trkpt lat="23.989981" lon="111.98303">
<time>2016-10-06T11:55:30Z</time></trkpt>
<trkpt lat="23.990763" lon="111.975542">
<time>2016-10-06T11:55:31Z</time></trkpt>
<trkpt lat="23.990856" lon="111.974655">
<time>2016-10-06T11:55:32Z</time></trkpt>
<trkpt lat="23.990959" lon="111.973578">
<time>2016-10-06T11:55:33Z</time></trkpt>
<trkpt lat="23.991031" lon="111.97288">
<time>2016-10-06T11:55:34Z</time></trkpt>
<trkpt lat="23.991103" lon="111.972182">
<time>2016-10-06T11:55:35Z</time></trkpt>
<trkpt lat="23.991155" lon="111.971574">
<time>2016-10-06T11:55:36Z</time></trkpt>
<trkpt lat="23.991165" lon="111.971484">
<time>2016-10-06T11:55:37Z</time></trkpt>
<trkpt lat="23.991156" lon="111.971095">
<time>2016-10-06T11:55:38Z</time></trkpt>
<trkpt lat="23.991118" lon="111.970517">
<time>2016-10-06T11:55:39Z</time></trkpt>
<trkpt lat="23.99101" lon="111.96962">
<time>2016-10-06T11:55:40Z</time></trkpt>
<trkpt lat="23.990942" lon="111.969111">
<time>2016-10-06T11:55:41Z</time></trkpt>
<trkpt lat="23.98949" lon="111.958071">
<time>2016-10-06T11:55:42Z</time></trkpt>
<trkpt lat="23.989402" lon="111.957363">
<time>2016-10-06T11:55:43Z</time></trkpt>
<trkpt lat="23.989353" lon="111.956874">
<time>2016-10-06T11:55:44Z</time></trkpt>
<trkpt lat="23.989187" lon="111.955388">
<time>2016-10-06T11:55:45Z</time></trkpt>
<trkpt lat="23.989098" lon="111.95463">
<time>2016-10-06T11:55:46Z</time></trkpt>
<trkpt lat="23.988873" lon="111.952455">
<time>2016-10-06T11:55:47Z</time></trkpt>
<trkpt lat="23.988099" lon="111.945141">
<time>2016-10-06T11:55:48Z</time></trkpt>
<trkpt lat="23.988051" lon="111.944413">
<time>2016-10-06T11:55:49Z</time></trkpt>
<trkpt lat="23.988014" lon="111.942966">
<time>2016-10-06T11:55:50Z</time></trkpt>
<trkpt lat="23.987994" lon="111.942666">
<time>2016-10-06T11:55:51Z</time></trkpt>
<trkpt lat="23.987965" lon="111.942327">
<time>2016-10-06T11:55:52Z</time></trkpt>
<trkpt lat="23.987916" lon="111.941918">
<time>2016-10-06T11:55:53Z</time></trkpt>
<trkpt lat="23.98757" lon="111.939802">
<time>2016-10-06T11:55:54Z</time></trkpt>
<trkpt lat="23.986816" lon="111.935849">
<time>2016-10-06T11:55:55Z</time></trkpt>
<trkpt lat="23.986667" lon="111.93523">
<time>2016-10-06T11:55:56Z</time></trkpt>
<trkpt lat="23.986578" lon="111.934731">
<time>2016-10-06T11:55:57Z</time></trkpt>
<trkpt lat="23.986479" lon="111.934202">
<time>2016-10-06T11:55:58Z</time></trkpt>
<trkpt lat="23.986449" lon="111.934052">
<time>2016-10-06T11:55:59Z</time></trkpt>
<trkpt lat="23.986419" lon="111.933902">
<time>2016-10-06T11:56:00Z</time></trkpt>
<trkpt lat="23.9864" lon="111.933773">
<time>2016-10-06T11:56:01Z</time></trkpt>
<trkpt lat="23.98638" lon="111.933613">
<time>2016-10-06T11:56:02Z</time></trkpt>
<trkpt lat="23.98637" lon="111.933373">
<time>2016-10-06T11:56:03Z</time></trkpt>
<trkpt lat="23.986381" lon="111.932984">
<time>2016-10-06T11:56:04Z</time></trkpt>
<trkpt lat="23.986381" lon="111.932804">
<time>2016-10-06T11:56:05Z</time></trkpt>
<trkpt lat="23.986372" lon="111.932145">
<time>2016-10-06T11:56:06Z</time></trkpt>
<trkpt lat="23.986403" lon="111.931716">
<time>2016-10-06T11:56:07Z</time></trkpt>
<trkpt lat="23.986413" lon="111.931606">
<time>2016-10-06T11:56:08Z</time></trkpt>
<trkpt lat="23.986423" lon="111.931506">
<time>2016-10-06T11:56:09Z</time></trkpt>
<trkpt lat="23.986454" lon="111.931306">
<time>2016-10-06T11:56:10Z</time></trkpt>
<trkpt lat="23.986524" lon="111.930827">
<time>2016-10-06T11:56:11Z</time></trkpt>
<trkpt lat="23.986585" lon="111.930378">
<time>2016-10-06T11:56:12Z</time></trkpt>
<trkpt lat="23.986676" lon="111.929859">
<time>2016-10-06T11:56:13Z</time></trkpt>
<trkpt lat="23.986706" lon="111.929669">
<time>2016-10-06T11:56:14Z</time></trkpt>
<trkpt lat="23.986777" lon="111.929189">
<time>2016-10-06T11:56:15Z</time></trkpt>
<trkpt lat="23.986787" lon="111.92905">
<time>2016-10-06T11:56:16Z</time></trkpt>
<trkpt lat="23.986817" lon="111.92881">
<time>2016-10-06T11:56:17Z</time></trkpt>
<trkpt lat="23.986828" lon="111.92854">
<time>2016-10-06T11:56:18Z</time></trkpt>
<trkpt lat="23.986838" lon="111.928281">
<time>2016-10-06T11:56:19Z</time></trkpt>
<trkpt lat="23.986848" lon="111.928101">
<time>2016-10-06T11:56:20Z</time></trkpt>
<trkpt lat="23.986849" lon="111.927981">
<time>2016-10-06T11:56:21Z</time></trkpt>
<trkpt lat="23.986849" lon="111.927781">
<time>2016-10-06T11:56:22Z</time></trkpt>
<trkpt lat="23.986819" lon="111.927582">
<time>2016-10-06T11:56:23Z</time></trkpt>
<trkpt lat="23.986779" lon="111.927372">
<time>2016-10-06T11:56:24Z</time></trkpt>
<trkpt lat="23.98671" lon="111.927132">
<time>2016-10-06T11:56:25Z</time></trkpt>
<trkpt lat="23.98667" lon="111.926983">
<time>2016-10-06T11:56:26Z</time></trkpt>
<trkpt lat="23.98661" lon="111.926833">
<time>2016-10-06T11:56:27Z</time></trkpt>
<trkpt lat="23.9865" lon="111.926573">
<time>2016-10-06T11:56:28Z</time></trkpt>
<trkpt lat="23.986371" lon="111.926293">
<time>2016-10-06T11:56:29Z</time></trkpt>
<trkpt lat="23.986241" lon="111.926034">
<time>2016-10-06T11:56:30Z</time></trkpt>
<trkpt lat="23.986101" lon="111.925774">
<time>2016-10-06T11:56:31Z</time></trkpt>
<trkpt lat="23.986011" lon="111.925614">
<time>2016-10-06T11:56:32Z</time></trkpt>
<trkpt lat="23.985922" lon="111.925435">
<time>2016-10-06T11:56:33Z</time></trkpt>
<trkpt lat="23.985802" lon="111.925155">
<time>2016-10-06T11:56:34Z</time></trkpt>
<trkpt lat="23.985732" lon="111.924985">
<time>2016-10-06T11:56:35Z</time></trkpt>
<trkpt lat="23.985702" lon="111.924895">
<time>2016-10-06T11:56:36Z</time></trkpt>
<trkpt lat="23.985672" lon="111.924795">
<time>2016-10-06T11:56:37Z</time></trkpt>
<trkpt lat="23.985662" lon="111.924715">
<time>2016-10-06T11:56:38Z</time></trkpt>
<trkpt lat="23.985643" lon="111.924566">
<time>2016-10-06T11:56:39Z</time></trkpt>
<trkpt lat="23.985643" lon="111.924506">
<time>2016-10-06T11:56:40Z</time></trkpt>
<trkpt lat="23.985653" lon="111.924396">
<time>2016-10-06T11:56:41Z</time></trkpt>
<trkpt lat="23.985673" lon="111.924306">
<time>2016-10-06T11:56:42Z</time></trkpt>
<trkpt lat="23.985683" lon="111.924256">
<time>2016-10-06T11:56:43Z</time></trkpt>
<trkpt lat="23.985733" lon="111.924146">
<time>2016-10-06T11:56:44Z</time></trkpt>
<trkpt lat="23.985773" lon="111.924036">
<time>2016-10-06T11:56:45Z</time></trkpt>
<trkpt lat="23.985813" lon="111.923966">
<time>2016-10-06T11:56:46Z</time></trkpt>
<trkpt lat="23.985874" lon="111.923856">
<time>2016-10-06T11:56:47Z</time></trkpt>
<trkpt lat="23.985924" lon="111.923787">
<time>2016-10-06T11:56:48Z</time></trkpt>
<trkpt lat="23.985984" lon="111.923667">
<time>2016-10-06T11:56:49Z</time></trkpt>
<trkpt lat="23.986114" lon="111.923447">
<time>2016-10-06T11:56:50Z</time></trkpt>
<trkpt lat="23.986164" lon="111.923357">
<time>2016-10-06T11:56:51Z</time></trkpt>
<trkpt lat="23.986204" lon="111.923277">
<time>2016-10-06T11:56:52Z</time></trkpt>
<trkpt lat="23.986255" lon="111.923177">
<time>2016-10-06T11:56:53Z</time></trkpt>
<trkpt lat="23.986315" lon="111.923067">
<time>2016-10-06T11:56:54Z</time></trkpt>
<trkpt lat="23.986495" lon="111.922748">
<time>2016-10-06T11:56:55Z</time></trkpt>
<trkpt lat="23.986535" lon="111.922678">
<time>2016-10-06T11:56:56Z</time></trkpt>
<trkpt lat="23.986555" lon="111.922638">
<time>2016-10-06T11:56:57Z</time></trkpt>
<trkpt lat="23.986575" lon="111.922588">
<time>2016-10-06T11:56:58Z</time></trkpt>
<trkpt lat="23.986595" lon="111.922548">
<time>2016-10-06T11:56:59Z</time></trkpt>
<trkpt lat="23.986606" lon="111.922488">
<time>2016-10-06T11:57:00Z</time></trkpt>
<trkpt lat="23.986626" lon="111.922398">
<time>2016-10-06T11:57:01Z</time></trkpt>
<trkpt lat="23.986636" lon="111.922238">
<time>2016-10-06T11:57:02Z</time></trkpt>
<trkpt lat="23.986646" lon="111.922058">
<time>2016-10-06T11:57:03Z</time></trkpt>
<trkpt lat="23.986626" lon="111.921849">
<time>2016-10-06T11:57:04Z</time></trkpt>
<trkpt lat="23.986616" lon="111.921689">
<time>2016-10-06T11:57:05Z</time></trkpt>
<trkpt lat="23.986597" lon="111.921589">
<time>2016-10-06T11:57:06Z</time></trkpt>
<trkpt lat="23.986567" lon="111.921489">
<time>2016-10-06T11:57:07Z</time></trkpt>
<trkpt lat="23.986527" lon="111.921389">
<time>2016-10-06T11:57:08Z</time></trkpt>
<trkpt lat="23.986477" lon="111.921299">
<time>2016-10-06T11:57:09Z</time></trkpt>
<trkpt lat="23.986407" lon="111.921179">
<time>2016-10-06T11:57:10Z</time></trkpt>
<trkpt lat="23.986307" lon="111.92104">
<time>2016-10-06T11:57:11Z</time></trkpt>
<trkpt lat="23.986207" lon="111.92091">
<time>2016-10-06T11:57:12Z</time></trkpt>
<trkpt lat="23.986057" lon="111.92072">
<time>2016-10-06T11:57:13Z</time></trkpt>
<trkpt lat="23.985658" lon="111.92022">
<time>2016-10-06T11:57:14Z</time></trkpt>
<trkpt lat="23.985538" lon="111.920061">
<time>2016-10-06T11:57:15Z</time></trkpt>
<trkpt lat="23.985498" lon="111.920021">
<time>2016-10-06T11:57:16Z</time></trkpt>
<trkpt lat="23.985338" lon="111.919811">
<time>2016-10-06T11:57:17Z</time></trkpt>
<trkpt lat="23.985278" lon="111.919721">
<time>2016-10-06T11:57:18Z</time></trkpt>
<trkpt lat="23.984928" lon="111.919221">
<time>2016-10-06T11:57:19Z</time></trkpt>
<trkpt lat="23.984589" lon="111.918762">
<time>2016-10-06T11:57:20Z</time></trkpt>
<trkpt lat="23.984479" lon="111.918612">
<time>2016-10-06T11:57:21Z</time></trkpt>
<trkpt lat="23.984329" lon="111.918372">
<time>2016-10-06T11:57:22Z</time></trkpt>
<trkpt lat="23.984109" lon="111.918093">
<time>2016-10-06T11:57:23Z</time></trkpt>
<trkpt lat="23.984029" lon="111.917973">
<time>2016-10-06T11:57:24Z</time></trkpt>
<trkpt lat="23.983979" lon="111.917903">
<time>2016-10-06T11:57:25Z</time></trkpt>
<trkpt lat="23.983929" lon="111.917833">
<time>2016-10-06T11:57:26Z</time></trkpt>
<trkpt lat="23.983809" lon="111.917653">
<time>2016-10-06T11:57:27Z</time></trkpt>
<trkpt lat="23.98362" lon="111.917373">
<time>2016-10-06T11:57:28Z</time></trkpt>
<trkpt lat="23.98353" lon="111.917253">
<time>2016-10-06T11:57:29Z</time></trkpt>
<trkpt lat="23.98341" lon="111.917083">
<time>2016-10-06T11:57:30Z</time></trkpt>
<trkpt lat="23.98309" lon="111.916654">
<time>2016-10-06T11:57:31Z</time></trkpt>
<trkpt lat="23.98288" lon="111.916364">
<time>2016-10-06T11:57:32Z</time></trkpt>
<trkpt lat="23.98278" lon="111.916214">
<time>2016-10-06T11:57:33Z</time></trkpt>
<trkpt lat="23.98274" lon="111.916134">
<time>2016-10-06T11:57:34Z</time></trkpt>
<trkpt lat="23.98273" lon="111.916114">
<time>2016-10-06T11:57:35Z</time></trkpt>
<trkpt lat="23.98268" lon="111.916034">
<time>2016-10-06T11:57:36Z</time></trkpt>
<trkpt lat="23.98266" lon="111.915974">
<time>2016-10-06T11:57:37Z</time></trkpt>
<trkpt lat="23.98263" lon="111.915914">
<time>2016-10-06T11:57:38Z</time></trkpt>
<trkpt lat="23.982591" lon="111.915825">
<time>2016-10-06T11:57:39Z</time></trkpt>
<trkpt lat="23.982541" lon="111.915665">
<time>2016-10-06T11:57:40Z</time></trkpt>
<trkpt lat="23.982511" lon="111.915575">
<time>2016-10-06T11:57:41Z</time></trkpt>
<trkpt lat="23.982471" lon="111.915375">
<time>2016-10-06T11:57:42Z</time></trkpt>
<trkpt lat="23.982451" lon="111.915225">
<time>2016-10-06T11:57:43Z</time></trkpt>
<trkpt lat="23.982401" lon="111.914965">
<time>2016-10-06T11:57:44Z</time></trkpt>
<trkpt lat="23.982331" lon="111.914545">
<time>2016-10-06T11:57:45Z</time></trkpt>
<trkpt lat="23.982282" lon="111.914196">
<time>2016-10-06T11:57:46Z</time></trkpt>
<trkpt lat="23.982212" lon="111.913786">
<time>2016-10-06T11:57:47Z</time></trkpt>
<trkpt lat="23.982182" lon="111.913586">
<time>2016-10-06T11:57:48Z</time></trkpt>
<trkpt lat="23.982162" lon="111.913486">
<time>2016-10-06T11:57:49Z</time></trkpt>
<trkpt lat="23.982142" lon="111.913396">
<time>2016-10-06T11:57:50Z</time></trkpt>
<trkpt lat="23.982092" lon="111.913206">
<time>2016-10-06T11:57:51Z</time></trkpt>
<trkpt lat="23.982043" lon="111.913037">
<time>2016-10-06T11:57:52Z</time></trkpt>
<trkpt lat="23.982003" lon="111.912927">
<time>2016-10-06T11:57:53Z</time></trkpt>
<trkpt lat="23.981953" lon="111.912837">
<time>2016-10-06T11:57:54Z</time></trkpt>
<trkpt lat="23.981863" lon="111.912657">
<time>2016-10-06T11:57:55Z</time></trkpt>
<trkpt lat="23.981733" lon="111.912447">
<time>2016-10-06T11:57:56Z</time></trkpt>
<trkpt lat="23.981613" lon="111.912267">
<time>2016-10-06T11:57:57Z</time></trkpt>
<trkpt lat="23.981523" lon="111.912127">
<time>2016-10-06T11:57:58Z</time></trkpt>
<trkpt lat="23.981373" lon="111.911937">
<time>2016-10-06T11:57:59Z</time></trkpt>
<trkpt lat="23.981303" lon="111.911837">
<time>2016-10-06T11:58:00Z</time></trkpt>
<trkpt lat="23.981223" lon="111.911707">
<time>2016-10-06T11:58:01Z</time></trkpt>
<trkpt lat="23.981123" lon="111.911558">
<time>2016-10-06T11:58:02Z</time></trkpt>
<trkpt lat="23.981083" lon="111.911488">
<time>2016-10-06T11:58:03Z</time></trkpt>
<trkpt lat="23.981083" lon="111.911488">
<time>2016-10-06T11:58:04Z</time></trkpt>
<trkpt lat="23.981033" lon="111.911378">
<time>2016-10-06T11:58:05Z</time></trkpt>
<trkpt lat="23.980933" lon="111.911158">
<time>2016-10-06T11:58:06Z</time></trkpt>
<trkpt lat="23.980843" lon="111.910958">
<time>2016-10-06T11:58:07Z</time></trkpt>
<trkpt lat="23.980744" lon="111.910678">
<time>2016-10-06T11:58:08Z</time></trkpt>
<trkpt lat="23.980674" lon="111.910508">
<time>2016-10-06T11:58:09Z</time></trkpt>
<trkpt lat="23.980614" lon="111.910398">
<time>2016-10-06T11:58:10Z</time></trkpt>
<trkpt lat="23.980544" lon="111.910248">
<time>2016-10-06T11:58:11Z</time></trkpt>
<trkpt lat="23.980404" lon="111.909978">
<time>2016-10-06T11:58:12Z</time></trkpt>
<trkpt lat="23.980304" lon="111.909799">
<time>2016-10-06T11:58:13Z</time></trkpt>
<trkpt lat="23.980224" lon="111.909669">
<time>2016-10-06T11:58:14Z</time></trkpt>
<trkpt lat="23.980134" lon="111.909539">
<time>2016-10-06T11:58:15Z</time></trkpt>
<trkpt lat="23.980084" lon="111.909469">
<time>2016-10-06T11:58:16Z</time></trkpt>
<trkpt lat="23.980034" lon="111.909429">
<time>2016-10-06T11:58:17Z</time></trkpt>
<trkpt lat="23.980004" lon="111.909389">
<time>2016-10-06T11:58:18Z</time></trkpt>
<trkpt lat="23.979944" lon="111.909329">
<time>2016-10-06T11:58:19Z</time></trkpt>
<trkpt lat="23.979784" lon="111.909199">
<time>2016-10-06T11:58:20Z</time></trkpt>
<trkpt lat="23.979594" lon="111.909029">
<time>2016-10-06T11:58:21Z</time></trkpt>
<trkpt lat="23.979434" lon="111.908899">
<time>2016-10-06T11:58:22Z</time></trkpt>
<trkpt lat="23.979304" lon="111.908789">
<time>2016-10-06T11:58:23Z</time></trkpt>
<trkpt lat="23.979174" lon="111.908679">
<time>2016-10-06T11:58:24Z</time></trkpt>
<trkpt lat="23.979094" lon="111.908619">
<time>2016-10-06T11:58:25Z</time></trkpt>
<trkpt lat="23.979004" lon="111.908539">
<time>2016-10-06T11:58:26Z</time></trkpt>
<trkpt lat="23.978934" lon="111.908469">
<time>2016-10-06T11:58:27Z</time></trkpt>
<trkpt lat="23.978884" lon="111.908409">
<time>2016-10-06T11:58:28Z</time></trkpt>
<trkpt lat="23.978824" lon="111.908339">
<time>2016-10-06T11:58:29Z</time></trkpt>
<trkpt lat="23.978774" lon="111.908249">
<time>2016-10-06T11:58:30Z</time></trkpt>
<trkpt lat="23.978724" lon="111.908159">
<time>2016-10-06T11:58:31Z</time></trkpt>
<trkpt lat="23.978684" lon="111.908079">
<time>2016-10-06T11:58:32Z</time></trkpt>
<trkpt lat="23.978654" lon="111.907999">
<time>2016-10-06T11:58:33Z</time></trkpt>
<trkpt lat="23.978624" lon="111.907899">
<time>2016-10-06T11:58:34Z</time></trkpt>
<trkpt lat="23.978614" lon="111.907809">
<time>2016-10-06T11:58:35Z</time></trkpt>
<trkpt lat="23.978594" lon="111.9077">
<time>2016-10-06T11:58:36Z</time></trkpt>
<trkpt lat="23.978584" lon="111.90752">
<time>2016-10-06T11:58:37Z</time></trkpt>
<trkpt lat="23.978584" lon="111.90741">
<time>2016-10-06T11:58:38Z</time></trkpt>
<trkpt lat="23.978595" lon="111.90728">
<time>2016-10-06T11:58:39Z</time></trkpt>
<trkpt lat="23.978605" lon="111.90719">
<time>2016-10-06T11:58:40Z</time></trkpt>
<trkpt lat="23.978635" lon="111.90664">
<time>2016-10-06T11:58:41Z</time></trkpt>
<trkpt lat="23.978655" lon="111.90627">
<time>2016-10-06T11:58:42Z</time></trkpt>
<trkpt lat="23.978665" lon="111.9061">
<time>2016-10-06T11:58:43Z</time></trkpt>
<trkpt lat="23.978665" lon="111.90601">
<time>2016-10-06T11:58:44Z</time></trkpt>
<trkpt lat="23.978675" lon="111.90593">
<time>2016-10-06T11:58:45Z</time></trkpt>
<trkpt lat="23.978675" lon="111.90575">
<time>2016-10-06T11:58:46Z</time></trkpt>
<trkpt lat="23.978685" lon="111.90565">
<time>2016-10-06T11:58:47Z</time></trkpt>
<trkpt lat="23.978695" lon="111.90553">
<time>2016-10-06T11:58:48Z</time></trkpt>
<trkpt lat="23.978715" lon="111.90525">
<time>2016-10-06T11:58:49Z</time></trkpt>
<trkpt lat="23.978726" lon="111.9051">
<time>2016-10-06T11:58:50Z</time></trkpt>
<trkpt lat="23.978726" lon="111.90487">
<time>2016-10-06T11:58:51Z</time></trkpt>
<trkpt lat="23.978736" lon="111.904411">
<time>2016-10-06T11:58:52Z</time></trkpt>
<trkpt lat="23.978796" lon="111.902901">
<time>2016-10-06T11:58:53Z</time></trkpt>
<trkpt lat="23.978847" lon="111.901751">
<time>2016-10-06T11:58:54Z</time></trkpt>
<trkpt lat="23.978867" lon="111.901391">
<time>2016-10-06T11:58:55Z</time></trkpt>
<trkpt lat="23.978877" lon="111.901141">
<time>2016-10-06T11:58:56Z</time></trkpt>
<trkpt lat="23.978907" lon="111.900831">
<time>2016-10-06T11:58:57Z</time></trkpt>
<trkpt lat="23.978917" lon="111.900711">
<time>2016-10-06T11:58:58Z</time></trkpt>
<trkpt lat="23.978927" lon="111.900601">
<time>2016-10-06T11:58:59Z</time></trkpt>
<trkpt lat="23.978947" lon="111.900501">
<time>2016-10-06T11:59:00Z</time></trkpt>
<trkpt lat="23.978967" lon="111.900401">
<time>2016-10-06T11:59:01Z</time></trkpt>
<trkpt lat="23.978997" lon="111.900281">
<time>2016-10-06T11:59:02Z</time></trkpt>
<trkpt lat="23.979037" lon="111.900171">
<time>2016-10-06T11:59:03Z</time></trkpt>
<trkpt lat="23.979077" lon="111.900081">
<time>2016-10-06T11:59:04Z</time></trkpt>
<trkpt lat="23.979117" lon="111.899981">
<time>2016-10-06T11:59:05Z</time></trkpt>
<trkpt lat="23.979157" lon="111.899901">
<time>2016-10-06T11:59:06Z</time></trkpt>
<trkpt lat="23.979217" lon="111.899811">
<time>2016-10-06T11:59:07Z</time></trkpt>
<trkpt lat="23.979347" lon="111.899601">
<time>2016-10-06T11:59:08Z</time></trkpt>
<trkpt lat="23.979477" lon="111.899411">
<time>2016-10-06T11:59:09Z</time></trkpt>
<trkpt lat="23.979667" lon="111.899151">
<time>2016-10-06T11:59:10Z</time></trkpt>
<trkpt lat="23.979977" lon="111.898711">
<time>2016-10-06T11:59:11Z</time></trkpt>
<trkpt lat="23.980368" lon="111.898151">
<time>2016-10-06T11:59:12Z</time></trkpt>
<trkpt lat="23.980488" lon="111.897981">
<time>2016-10-06T11:59:13Z</time></trkpt>
<trkpt lat="23.980618" lon="111.897761">
<time>2016-10-06T11:59:14Z</time></trkpt>
<trkpt lat="23.980718" lon="111.897591">
<time>2016-10-06T11:59:15Z</time></trkpt>
<trkpt lat="23.980758" lon="111.897521">
<time>2016-10-06T11:59:16Z</time></trkpt>
<trkpt lat="23.980818" lon="111.897401">
<time>2016-10-06T11:59:17Z</time></trkpt>
<trkpt lat="23.980888" lon="111.897241">
<time>2016-10-06T11:59:18Z</time></trkpt>
<trkpt lat="23.980958" lon="111.897081">
<time>2016-10-06T11:59:19Z</time></trkpt>
<trkpt lat="23.981018" lon="111.896921">
<time>2016-10-06T11:59:20Z</time></trkpt>
<trkpt lat="23.981078" lon="111.896751">
<time>2016-10-06T11:59:21Z</time></trkpt>
<trkpt lat="23.981138" lon="111.896541">
<time>2016-10-06T11:59:22Z</time></trkpt>
<trkpt lat="23.981178" lon="111.896391">
<time>2016-10-06T11:59:23Z</time></trkpt>
<trkpt lat="23.981208" lon="111.896251">
<time>2016-10-06T11:59:24Z</time></trkpt>
<trkpt lat="23.981238" lon="111.896101">
<time>2016-10-06T11:59:25Z</time></trkpt>
<trkpt lat="23.981258" lon="111.895901">
<time>2016-10-06T11:59:26Z</time></trkpt>
<trkpt lat="23.981278" lon="111.895701">
<time>2016-10-06T11:59:27Z</time></trkpt>
<trkpt lat="23.981278" lon="111.895551">
<time>2016-10-06T11:59:28Z</time></trkpt>
<trkpt lat="23.981268" lon="111.895381">
<time>2016-10-06T11:59:29Z</time></trkpt>
<trkpt lat="23.981228" lon="111.89497">
<time>2016-10-06T11:59:30Z</time></trkpt>
<trkpt lat="23.981208" lon="111.89479">
<time>2016-10-06T11:59:31Z</time></trkpt>
<trkpt lat="23.981168" lon="111.89455">
<time>2016-10-06T11:59:32Z</time></trkpt>
<trkpt lat="23.981118" lon="111.89438">
<time>2016-10-06T11:59:33Z</time></trkpt>
<trkpt lat="23.981078" lon="111.89425">
<time>2016-10-06T11:59:34Z</time></trkpt>
<trkpt lat="23.981028" lon="111.89409">
<time>2016-10-06T11:59:35Z</time></trkpt>
<trkpt lat="23.980778" lon="111.89348">
<time>2016-10-06T11:59:36Z</time></trkpt>
<trkpt lat="23.980487" lon="111.89287">
<time>2016-10-06T11:59:37Z</time></trkpt>
<trkpt lat="23.980117" lon="111.89206">
<time>2016-10-06T11:59:38Z</time></trkpt>
<trkpt lat="23.979847" lon="111.891499">
<time>2016-10-06T11:59:39Z</time></trkpt>
<trkpt lat="23.979587" lon="111.890909">
<time>2016-10-06T11:59:40Z</time></trkpt>
<trkpt lat="23.979457" lon="111.890669">
<time>2016-10-06T11:59:41Z</time></trkpt>
<trkpt lat="23.979246" lon="111.890309">
<time>2016-10-06T11:59:42Z</time></trkpt>
<trkpt lat="23.979086" lon="111.890009">
<time>2016-10-06T11:59:43Z</time></trkpt>
<trkpt lat="23.978956" lon="111.889769">
<time>2016-10-06T11:59:44Z</time></trkpt>
<trkpt lat="23.978856" lon="111.889599">
<time>2016-10-06T11:59:45Z</time></trkpt>
<trkpt lat="23.978676" lon="111.889349">
<time>2016-10-06T11:59:46Z</time></trkpt>
<trkpt lat="23.978606" lon="111.889239">
<time>2016-10-06T11:59:47Z</time></trkpt>
<trkpt lat="23.978336" lon="111.888858">
<time>2016-10-06T11:59:48Z</time></trkpt>
<trkpt lat="23.978055" lon="111.888468">
<time>2016-10-06T11:59:49Z</time></trkpt>
<trkpt lat="23.977905" lon="111.888258">
<time>2016-10-06T11:59:50Z</time></trkpt>
<trkpt lat="23.977755" lon="111.888078">
<time>2016-10-06T11:59:51Z</time></trkpt>
<trkpt lat="23.977625" lon="111.887918">
<time>2016-10-06T11:59:52Z</time></trkpt>
<trkpt lat="23.977495" lon="111.887788">
<time>2016-10-06T11:59:53Z</time></trkpt>
<trkpt lat="23.977355" lon="111.887638">
<time>2016-10-06T11:59:54Z</time></trkpt>
<trkpt lat="23.977295" lon="111.887568">
<time>2016-10-06T11:59:55Z</time></trkpt>
<trkpt lat="23.977225" lon="111.887488">
<time>2016-10-06T11:59:56Z</time></trkpt>
<trkpt lat="23.977094" lon="111.887328">
<time>2016-10-06T11:59:57Z</time></trkpt>
<trkpt lat="23.976954" lon="111.887158">
<time>2016-10-06T11:59:58Z</time></trkpt>
<trkpt lat="23.976854" lon="111.887048">
<time>2016-10-06T11:59:59Z</time></trkpt>
<trkpt lat="23.976794" lon="111.886978">
<time>2016-10-06T12:00:00Z</time></trkpt>
<trkpt lat="23.976744" lon="111.886907">
<time>2016-10-06T12:00:01Z</time></trkpt>
<trkpt lat="23.976694" lon="111.886827">
<time>2016-10-06T12:00:02Z</time></trkpt>
<trkpt lat="23.976644" lon="111.886727">
<time>2016-10-06T12:00:03Z</time></trkpt>
<trkpt lat="23.976614" lon="111.886637">
<time>2016-10-06T12:00:04Z</time></trkpt>
<trkpt lat="23.976594" lon="111.886537">
<time>2016-10-06T12:00:05Z</time></trkpt>
<trkpt lat="23.976584" lon="111.886447">
<time>2016-10-06T12:00:06Z</time></trkpt>
<trkpt lat="23.976584" lon="111.886347">
<time>2016-10-06T12:00:07Z</time></trkpt>
<trkpt lat="23.976604" lon="111.886247">
<time>2016-10-06T12:00:08Z</time></trkpt>
<trkpt lat="23.976614" lon="111.886187">
<time>2016-10-06T12:00:09Z</time></trkpt>
<trkpt lat="23.976634" lon="111.886157">
<time>2016-10-06T12:00:10Z</time></trkpt>
<trkpt lat="23.976664" lon="111.886067">
<time>2016-10-06T12:00:11Z</time></trkpt>
<trkpt lat="23.976704" lon="111.885997">
<time>2016-10-06T12:00:12Z</time></trkpt>
<trkpt lat="23.976724" lon="111.885947">
<time>2016-10-06T12:00:13Z</time></trkpt>
<trkpt lat="23.976774" lon="111.885877">
<time>2016-10-06T12:00:14Z</time></trkpt>
<trkpt lat="23.976824" lon="111.885787">
<time>2016-10-06T12:00:15Z</time></trkpt>
<trkpt lat="23.976874" lon="111.885727">
<time>2016-10-06T12:00:16Z</time></trkpt>
<trkpt lat="23.976994" lon="111.885567">
<time>2016-10-06T12:00:17Z</time></trkpt>
<trkpt lat="23.977074" lon="111.885447">
<time>2016-10-06T12:00:18Z</time></trkpt>
<trkpt lat="23.977104" lon="111.885397">
<time>2016-10-06T12:00:19Z</time></trkpt>
<trkpt lat="23.977144" lon="111.885326">
<time>2016-10-06T12:00:20Z</time></trkpt>
<trkpt lat="23.977184" lon="111.885246">
<time>2016-10-06T12:00:21Z</time></trkpt>
<trkpt lat="23.977224" lon="111.885146">
<time>2016-10-06T12:00:22Z</time></trkpt>
<trkpt lat="23.977243" lon="111.885046">
<time>2016-10-06T12:00:23Z</time></trkpt>
<trkpt lat="23.977253" lon="111.884946">
<time>2016-10-06T12:00:24Z</time></trkpt>
<trkpt lat="23.977263" lon="111.884866">
<time>2016-10-06T12:00:25Z</time></trkpt>
<trkpt lat="23.977263" lon="111.884806">
<time>2016-10-06T12:00:26Z</time></trkpt>
<trkpt lat="23.977253" lon="111.884756">
<time>2016-10-06T12:00:27Z</time></trkpt>
<trkpt lat="23.977253" lon="111.884656">
<time>2016-10-06T12:00:28Z</time></trkpt>
<trkpt lat="23.977223" lon="111.884496">
<time>2016-10-06T12:00:29Z</time></trkpt>
<trkpt lat="23.977203" lon="111.884366">
<time>2016-10-06T12:00:30Z</time></trkpt>
<trkpt lat="23.977173" lon="111.884246">
<time>2016-10-06T12:00:31Z</time></trkpt>
<trkpt lat="23.977103" lon="111.883996">
<time>2016-10-06T12:00:32Z</time></trkpt>
<trkpt lat="23.977043" lon="111.883725">
<time>2016-10-06T12:00:33Z</time></trkpt>
<trkpt lat="23.976973" lon="111.883485">
<time>2016-10-06T12:00:34Z</time></trkpt>
<trkpt lat="23.976902" lon="111.883215">
<time>2016-10-06T12:00:35Z</time></trkpt>
<trkpt lat="23.976862" lon="111.883035">
<time>2016-10-06T12:00:36Z</time></trkpt>
<trkpt lat="23.976822" lon="111.882855">
<time>2016-10-06T12:00:37Z</time></trkpt>
<trkpt lat="23.976752" lon="111.882625">
<time>2016-10-06T12:00:38Z</time></trkpt>
<trkpt lat="23.976692" lon="111.882364">
<time>2016-10-06T12:00:39Z</time></trkpt>
<trkpt lat="23.976612" lon="111.882034">
<time>2016-10-06T12:00:40Z</time></trkpt>
<trkpt lat="23.976551" lon="111.881854">
<time>2016-10-06T12:00:41Z</time></trkpt>
<trkpt lat="23.976521" lon="111.881714">
<time>2016-10-06T12:00:42Z</time></trkpt>
<trkpt lat="23.976471" lon="111.881504">
<time>2016-10-06T12:00:43Z</time></trkpt>
<trkpt lat="23.976441" lon="111.881404">
<time>2016-10-06T12:00:44Z</time></trkpt>
<trkpt lat="23.976401" lon="111.881304">
<time>2016-10-06T12:00:45Z</time></trkpt>
<trkpt lat="23.976371" lon="111.881223">
<time>2016-10-06T12:00:46Z</time></trkpt>
<trkpt lat="23.976321" lon="111.881123">
<time>2016-10-06T12:00:47Z</time></trkpt>
<trkpt lat="23.976271" lon="111.881043">
<time>2016-10-06T12:00:48Z</time></trkpt>
<trkpt lat="23.976221" lon="111.880963">
<time>2016-10-06T12:00:49Z</time></trkpt>
<trkpt lat="23.976181" lon="111.880933">
<time>2016-10-06T12:00:50Z</time></trkpt>
<trkpt lat="23.976151" lon="111.880893">
<time>2016-10-06T12:00:51Z</time></trkpt>
<trkpt lat="23.976091" lon="111.880833">
<time>2016-10-06T12:00:52Z</time></trkpt>
<trkpt lat="23.97601" lon="111.880783">
<time>2016-10-06T12:00:53Z</time></trkpt>
<trkpt lat="23.97593" lon="111.880733">
<time>2016-10-06T12:00:54Z</time></trkpt>
<trkpt lat="23.97584" lon="111.880713">
<time>2016-10-06T12:00:55Z</time></trkpt>
<trkpt lat="23.97575" lon="111.880693">
<time>2016-10-06T12:00:56Z</time></trkpt>
<trkpt lat="23.9757" lon="111.880693">
<time>2016-10-06T12:00:57Z</time></trkpt>
<trkpt lat="23.97566" lon="111.880693">
<time>2016-10-06T12:00:58Z</time></trkpt>
<trkpt lat="23.97564" lon="111.880693">
<time>2016-10-06T12:00:59Z</time></trkpt>
<trkpt lat="23.97557" lon="111.880693">
<time>2016-10-06T12:01:00Z</time></trkpt>
<trkpt lat="23.97548" lon="111.880713">
<time>2016-10-06T12:01:01Z</time></trkpt>
<trkpt lat="23.97539" lon="111.880733">
<time>2016-10-06T12:01:02Z</time></trkpt>
<trkpt lat="23.9753" lon="111.880763">
<time>2016-10-06T12:01:03Z</time></trkpt>
<trkpt lat="23.97524" lon="111.880793">
<time>2016-10-06T12:01:04Z</time></trkpt>
<trkpt lat="23.97517" lon="111.880823">
<time>2016-10-06T12:01:05Z</time></trkpt>
<trkpt lat="23.97509" lon="111.880863">
<time>2016-10-06T12:01:06Z</time></trkpt>
<trkpt lat="23.97492" lon="111.880943">
<time>2016-10-06T12:01:07Z</time></trkpt>
<trkpt lat="23.97487" lon="111.880973">
<time>2016-10-06T12:01:08Z</time></trkpt>
<trkpt lat="23.97479" lon="111.881003">
<time>2016-10-06T12:01:09Z</time></trkpt>
<trkpt lat="23.97472" lon="111.881033">
<time>2016-10-06T12:01:10Z</time></trkpt>
<trkpt lat="23.97466" lon="111.881063">
<time>2016-10-06T12:01:11Z</time></trkpt>
<trkpt lat="23.97463" lon="111.881073">
<time>2016-10-06T12:01:12Z</time></trkpt>
<trkpt lat="23.97459" lon="111.881083">
<time>2016-10-06T12:01:13Z</time></trkpt>
<trkpt lat="23.97455" lon="111.881094">
<time>2016-10-06T12:01:14Z</time></trkpt>
<trkpt lat="23.97453" lon="111.881104">
<time>2016-10-06T12:01:15Z</time></trkpt>
<trkpt lat="23.97444" lon="111.881124">
<time>2016-10-06T12:01:16Z</time></trkpt>
<trkpt lat="23.9744" lon="111.881124">
<time>2016-10-06T12:01:17Z</time></trkpt>
<trkpt lat="23.97436" lon="111.881134">
<time>2016-10-06T12:01:18Z</time></trkpt>
<trkpt lat="23.97435" lon="111.881134">
<time>2016-10-06T12:01:19Z</time></trkpt>
<trkpt lat="23.97429" lon="111.881144">
<time>2016-10-06T12:01:20Z</time></trkpt>
<trkpt lat="23.97424" lon="111.881144">
<time>2016-10-06T12:01:21Z</time></trkpt>
<trkpt lat="23.97418" lon="111.881144">
<time>2016-10-06T12:01:22Z</time></trkpt>
<trkpt lat="23.97412" lon="111.881134">
<time>2016-10-06T12:01:23Z</time></trkpt>
<trkpt lat="23.97406" lon="111.881134">
<time>2016-10-06T12:01:24Z</time></trkpt>
<trkpt lat="23.97401" lon="111.881124">
<time>2016-10-06T12:01:25Z</time></trkpt>
<trkpt lat="23.97394" lon="111.881114">
<time>2016-10-06T12:01:26Z</time></trkpt>
<trkpt lat="23.97392" lon="111.881104">
<time>2016-10-06T12:01:27Z</time></trkpt>
<trkpt lat="23.97384" lon="111.881084">
<time>2016-10-06T12:01:28Z</time></trkpt>
<trkpt lat="23.97379" lon="111.881064">
<time>2016-10-06T12:01:29Z</time></trkpt>
<trkpt lat="23.97373" lon="111.881034">
<time>2016-10-06T12:01:30Z</time></trkpt>
<trkpt lat="23.97367" lon="111.881013">
<time>2016-10-06T12:01:31Z</time></trkpt>
<trkpt lat="23.97362" lon="111.880983">
<time>2016-10-06T12:01:32Z</time></trkpt>
<trkpt lat="23.97356" lon="111.880953">
<time>2016-10-06T12:01:33Z</time></trkpt>
<trkpt lat="23.97351" lon="111.880923">
<time>2016-10-06T12:01:34Z</time></trkpt>
<trkpt lat="23.973409" lon="111.880863">
<time>2016-10-06T12:01:35Z</time></trkpt>
<trkpt lat="23.973359" lon="111.880823">
<time>2016-10-06T12:01:36Z</time></trkpt>
<trkpt lat="23.973299" lon="111.880783">
<time>2016-10-06T12:01:37Z</time></trkpt>
<trkpt lat="23.973169" lon="111.880683">
<time>2016-10-06T12:01:38Z</time></trkpt>
<trkpt lat="23.972879" lon="111.880483">
<time>2016-10-06T12:01:39Z</time></trkpt>
<trkpt lat="23.972799" lon="111.880433">
<time>2016-10-06T12:01:40Z</time></trkpt>
<trkpt lat="23.972709" lon="111.880393">
<time>2016-10-06T12:01:41Z</time></trkpt>
<trkpt lat="23.972629" lon="111.880363">
<time>2016-10-06T12:01:42Z</time></trkpt>
<trkpt lat="23.972569" lon="111.880343">
<time>2016-10-06T12:01:43Z</time></trkpt>
<trkpt lat="23.972539" lon="111.880333">
<time>2016-10-06T12:01:44Z</time></trkpt>
<trkpt lat="23.972519" lon="111.880323">
<time>2016-10-06T12:01:45Z</time></trkpt>
<trkpt lat="23.972449" lon="111.880313">
<time>2016-10-06T12:01:46Z</time></trkpt>
<trkpt lat="23.972389" lon="111.880303">
<time>2016-10-06T12:01:47Z</time></trkpt>
<trkpt lat="23.972319" lon="111.880293">
<time>2016-10-06T12:01:48Z</time></trkpt>
<trkpt lat="23.972279" lon="111.880293">
<time>2016-10-06T12:01:49Z</time></trkpt>
<trkpt lat="23.972229" lon="111.880283">
<time>2016-10-06T12:01:50Z</time></trkpt>
<trkpt lat="23.972209" lon="111.880283">
<time>2016-10-06T12:01:51Z</time></trkpt>
<trkpt lat="23.972179" lon="111.880293">
<time>2016-10-06T12:01:52Z</time></trkpt>
<trkpt lat="23.972149" lon="111.880293">
<time>2016-10-06T12:01:53Z</time></trkpt>
<trkpt lat="23.971899" lon="111.880363">
<time>2016-10-06T12:01:54Z</time></trkpt>
<trkpt lat="23.971798" lon="111.880383">
<time>2016-10-06T12:01:55Z</time></trkpt>
<trkpt lat="23.971618" lon="111.880423">
<time>2016-10-06T12:01:56Z</time></trkpt>
<trkpt lat="23.971448" lon="111.880473">
<time>2016-10-06T12:01:57Z</time></trkpt>
<trkpt lat="23.971308" lon="111.880513">
<time>2016-10-06T12:01:58Z</time></trkpt>
<trkpt lat="23.971248" lon="111.880523">
<time>2016-10-06T12:01:59Z</time></trkpt>
<trkpt lat="23.971208" lon="111.880543">
<time>2016-10-06T12:02:00Z</time></trkpt>
<trkpt lat="23.971128" lon="111.880553">
<time>2016-10-06T12:02:01Z</time></trkpt>
<trkpt lat="23.971088" lon="111.880553">
<time>2016-10-06T12:02:02Z</time></trkpt>
<trkpt lat="23.971028" lon="111.880563">
<time>2016-10-06T12:02:03Z</time></trkpt>
<trkpt lat="23.970918" lon="111.880543">
<time>2016-10-06T12:02:04Z</time></trkpt>
<trkpt lat="23.970868" lon="111.880543">
<time>2016-10-06T12:02:05Z</time></trkpt>
<trkpt lat="23.970858" lon="111.880543">
<time>2016-10-06T12:02:06Z</time></trkpt>
<trkpt lat="23.970768" lon="111.880523">
<time>2016-10-06T12:02:07Z</time></trkpt>
<trkpt lat="23.970688" lon="111.880513">
<time>2016-10-06T12:02:08Z</time></trkpt>
<trkpt lat="23.970608" lon="111.880483">
<time>2016-10-06T12:02:09Z</time></trkpt>
<trkpt lat="23.970588" lon="111.880473">
<time>2016-10-06T12:02:10Z</time></trkpt>
<trkpt lat="23.970528" lon="111.880453">
<time>2016-10-06T12:02:11Z</time></trkpt>
<trkpt lat="23.970498" lon="111.880443">
<time>2016-10-06T12:02:12Z</time></trkpt>
<trkpt lat="23.970438" lon="111.880413">
<time>2016-10-06T12:02:13Z</time></trkpt>
<trkpt lat="23.970418" lon="111.880393">
<time>2016-10-06T12:02:14Z</time></trkpt>
<trkpt lat="23.970348" lon="111.880363">
<time>2016-10-06T12:02:15Z</time></trkpt>
<trkpt lat="23.970248" lon="111.880293">
<time>2016-10-06T12:02:16Z</time></trkpt>
<trkpt lat="23.970168" lon="111.880233">
<time>2016-10-06T12:02:17Z</time></trkpt>
<trkpt lat="23.970098" lon="111.880183">
<time>2016-10-06T12:02:18Z</time></trkpt>
<trkpt lat="23.970008" lon="111.880103">
<time>2016-10-06T12:02:19Z</time></trkpt>
<trkpt lat="23.969837" lon="111.879953">
<time>2016-10-06T12:02:20Z</time></trkpt>
<trkpt lat="23.969767" lon="111.879903">
<time>2016-10-06T12:02:21Z</time></trkpt>
<trkpt lat="23.969717" lon="111.879863">
<time>2016-10-06T12:02:22Z</time></trkpt>
<trkpt lat="23.969657" lon="111.879823">
<time>2016-10-06T12:02:23Z</time></trkpt>
<trkpt lat="23.969587" lon="111.879773">
<time>2016-10-06T12:02:24Z</time></trkpt>
<trkpt lat="23.969527" lon="111.879743">
<time>2016-10-06T12:02:25Z</time></trkpt>
<trkpt lat="23.969477" lon="111.879713">
<time>2016-10-06T12:02:26Z</time></trkpt>
<trkpt lat="23.969417" lon="111.879683">
<time>2016-10-06T12:02:27Z</time></trkpt>
<trkpt lat="23.969337" lon="111.879653">
<time>2016-10-06T12:02:28Z</time></trkpt>
<trkpt lat="23.969247" lon="111.879623">
<time>2016-10-06T12:02:29Z</time></trkpt>
<trkpt lat="23.969147" lon="111.879603">
<time>2016-10-06T12:02:30Z</time></trkpt>
<trkpt lat="23.969057" lon="111.879593">
<time>2016-10-06T12:02:31Z</time></trkpt>
<trkpt lat="23.968997" lon="111.879593">
<time>2016-10-06T12:02:32Z</time></trkpt>
<trkpt lat="23.968957" lon="111.879583">
<time>2016-10-06T12:02:33Z</time></trkpt>
<trkpt lat="23.968897" lon="111.879593">
<time>2016-10-06T12:02:34Z</time></trkpt>
<trkpt lat="23.968847" lon="111.879593">
<time>2016-10-06T12:02:35Z</time></trkpt>
<trkpt lat="23.968767" lon="111.879613">
<time>2016-10-06T12:02:36Z</time></trkpt>
<trkpt lat="23.968707" lon="111.879623">
<time>2016-10-06T12:02:37Z</time></trkpt>
<trkpt lat="23.968647" lon="111.879633">
<time>2016-10-06T12:02:38Z</time></trkpt>
<trkpt lat="23.968587" lon="111.879653">
<time>2016-10-06T12:02:39Z</time></trkpt>
<trkpt lat="23.968497" lon="111.879683">
<time>2016-10-06T12:02:40Z</time></trkpt>
<trkpt lat="23.968187" lon="111.879813">
<time>2016-10-06T12:02:41Z</time></trkpt>
<trkpt lat="23.967927" lon="111.879903">
<time>2016-10-06T12:02:42Z</time></trkpt>
<trkpt lat="23.967727" lon="111.879973">
<time>2016-10-06T12:02:43Z</time></trkpt>
<trkpt lat="23.967456" lon="111.880053">
<time>2016-10-06T12:02:44Z</time></trkpt>
<trkpt lat="23.967296" lon="111.880103">
<time>2016-10-06T12:02:45Z</time></trkpt>
<trkpt lat="23.967046" lon="111.880173">
<time>2016-10-06T12:02:46Z</time></trkpt>
<trkpt lat="23.966926" lon="111.880203">
<time>2016-10-06T12:02:47Z</time></trkpt>
<trkpt lat="23.966836" lon="111.880213">
<time>2016-10-06T12:02:48Z</time></trkpt>
<trkpt lat="23.966716" lon="111.880233">
<time>2016-10-06T12:02:49Z</time></trkpt>
<trkpt lat="23.966556" lon="111.880253">
<time>2016-10-06T12:02:50Z</time></trkpt>
<trkpt lat="23.966336" lon="111.880283">
<time>2016-10-06T12:02:51Z</time></trkpt>
<trkpt lat="23.966176" lon="111.880313">
<time>2016-10-06T12:02:52Z</time></trkpt>
<trkpt lat="23.966056" lon="111.880323">
<time>2016-10-06T12:02:53Z</time></trkpt>
<trkpt lat="23.965706" lon="111.880363">
<time>2016-10-06T12:02:54Z</time></trkpt>
<trkpt lat="23.965646" lon="111.880373">
<time>2016-10-06T12:02:55Z</time></trkpt>
<trkpt lat="23.965236" lon="111.880424">
<time>2016-10-06T12:02:56Z</time></trkpt>
<trkpt lat="23.965026" lon="111.880454">
<time>2016-10-06T12:02:57Z</time></trkpt>
<trkpt lat="23.964916" lon="111.880464">
<time>2016-10-06T12:02:58Z</time></trkpt>
<trkpt lat="23.964796" lon="111.880474">
<time>2016-10-06T12:02:59Z</time></trkpt>
<trkpt lat="23.964656" lon="111.880494">
<time>2016-10-06T12:03:00Z</time></trkpt>
<trkpt lat="23.964356" lon="111.880524">
<time>2016-10-06T12:03:01Z</time></trkpt>
<trkpt lat="23.964185" lon="111.880544">
<time>2016-10-06T12:03:02Z</time></trkpt>
<trkpt lat="23.964125" lon="111.880554">
<time>2016-10-06T12:03:03Z</time></trkpt>
<trkpt lat="23.964035" lon="111.880564">
<time>2016-10-06T12:03:04Z</time></trkpt>
<trkpt lat="23.963895" lon="111.880574">
<time>2016-10-06T12:03:05Z</time></trkpt>
<trkpt lat="23.963795" lon="111.880574">
<time>2016-10-06T12:03:06Z</time></trkpt>
<trkpt lat="23.963695" lon="111.880574">
<time>2016-10-06T12:03:07Z</time></trkpt>
<trkpt lat="23.963675" lon="111.880574">
<time>2016-10-06T12:03:08Z</time></trkpt>
<trkpt lat="23.963615" lon="111.880574">
<time>2016-10-06T12:03:09Z</time></trkpt>
<trkpt lat="23.963595" lon="111.880574">
<time>2016-10-06T12:03:10Z</time></trkpt>
<trkpt lat="23.963585" lon="111.880574">
<time>2016-10-06T12:03:11Z</time></trkpt>
<trkpt lat="23.963505" lon="111.880564">
<time>2016-10-06T12:03:12Z</time></trkpt>
<trkpt lat="23.963445" lon="111.880554">
<time>2016-10-06T12:03:13Z</time></trkpt>
<trkpt lat="23.963415" lon="111.880554">
<time>2016-10-06T12:03:14Z</time></trkpt>
<trkpt lat="23.963375" lon="111.880544">
<time>2016-10-06T12:03:15Z</time></trkpt>
<trkpt lat="23.963325" lon="111.880524">
<time>2016-10-06T12:03:16Z</time></trkpt>
<trkpt lat="23.963275" lon="111.880514">
<time>2016-10-06T12:03:17Z</time></trkpt>
<trkpt lat="23.963235" lon="111.880494">
<time>2016-10-06T12:03:18Z</time></trkpt>
<trkpt lat="23.963185" lon="111.880474">
<time>2016-10-06T12:03:19Z</time></trkpt>
<trkpt lat="23.963155" lon="111.880464">
<time>2016-10-06T12:03:20Z</time></trkpt>
<trkpt lat="23.963105" lon="111.880434">
<time>2016-10-06T12:03:21Z</time></trkpt>
<trkpt lat="23.963075" lon="111.880424">
<time>2016-10-06T12:03:22Z</time></trkpt>
<trkpt lat="23.963025" lon="111.880394">
<time>2016-10-06T12:03:23Z</time></trkpt>
<trkpt lat="23.962995" lon="111.880374">
<time>2016-10-06T12:03:24Z</time></trkpt>
<trkpt lat="23.962945" lon="111.880344">
<time>2016-10-06T12:03:25Z</time></trkpt>
<trkpt lat="23.962925" lon="111.880324">
<time>2016-10-06T12:03:26Z</time></trkpt>
<trkpt lat="23.962885" lon="111.880304">
<time>2016-10-06T12:03:27Z</time></trkpt>
<trkpt lat="23.962845" lon="111.880264">
<time>2016-10-06T12:03:28Z</time></trkpt>
<trkpt lat="23.962815" lon="111.880234">
<time>2016-10-06T12:03:29Z</time></trkpt>
<trkpt lat="23.962785" lon="111.880204">
<time>2016-10-06T12:03:30Z</time></trkpt>
<trkpt lat="23.962735" lon="111.880153">
<time>2016-10-06T12:03:31Z</time></trkpt>
<trkpt lat="23.962715" lon="111.880133">
<time>2016-10-06T12:03:32Z</time></trkpt>
<trkpt lat="23.962675" lon="111.880083">
<time>2016-10-06T12:03:33Z</time></trkpt>
<trkpt lat="23.962655" lon="111.880043">
<time>2016-10-06T12:03:34Z</time></trkpt>
<trkpt lat="23.962604" lon="111.879983">
<time>2016-10-06T12:03:35Z</time></trkpt>
<trkpt lat="23.962574" lon="111.879923">
<time>2016-10-06T12:03:36Z</time></trkpt>
<trkpt lat="23.962544" lon="111.879863">
<time>2016-10-06T12:03:37Z</time></trkpt>
<trkpt lat="23.962514" lon="111.879813">
<time>2016-10-06T12:03:38Z</time></trkpt>
<trkpt lat="23.962484" lon="111.879753">
<time>2016-10-06T12:03:39Z</time></trkpt>
<trkpt lat="23.962434" lon="111.879673">
<time>2016-10-06T12:03:40Z</time></trkpt>
<trkpt lat="23.962394" lon="111.879583">
<time>2016-10-06T12:03:41Z</time></trkpt>
<trkpt lat="23.962334" lon="111.879453">
<time>2016-10-06T12:03:42Z</time></trkpt>
<trkpt lat="23.962254" lon="111.879243">
<time>2016-10-06T12:03:43Z</time></trkpt>
<trkpt lat="23.962154" lon="111.879012">
<time>2016-10-06T12:03:44Z</time></trkpt>
<trkpt lat="23.962083" lon="111.878852">
<time>2016-10-06T12:03:45Z</time></trkpt>
<trkpt lat="23.961993" lon="111.878692">
<time>2016-10-06T12:03:46Z</time></trkpt>
<trkpt lat="23.961933" lon="111.878582">
<time>2016-10-06T12:03:47Z</time></trkpt>
<trkpt lat="23.961853" lon="111.878472">
<time>2016-10-06T12:03:48Z</time></trkpt>
<trkpt lat="23.961773" lon="111.878352">
<time>2016-10-06T12:03:49Z</time></trkpt>
<trkpt lat="23.961693" lon="111.878252">
<time>2016-10-06T12:03:50Z</time></trkpt>
<trkpt lat="23.961583" lon="111.878122">
<time>2016-10-06T12:03:51Z</time></trkpt>
<trkpt lat="23.961493" lon="111.878032">
<time>2016-10-06T12:03:52Z</time></trkpt>
<trkpt lat="23.961322" lon="111.877861">
<time>2016-10-06T12:03:53Z</time></trkpt>
<trkpt lat="23.960832" lon="111.877401">
<time>2016-10-06T12:03:54Z</time></trkpt>
<trkpt lat="23.960571" lon="111.877161">
<time>2016-10-06T12:03:55Z</time></trkpt>
<trkpt lat="23.960351" lon="111.876951">
<time>2016-10-06T12:03:56Z</time></trkpt>
<trkpt lat="23.960131" lon="111.87675">
<time>2016-10-06T12:03:57Z</time></trkpt>
<trkpt lat="23.959891" lon="111.87652">
<time>2016-10-06T12:03:58Z</time></trkpt>
<trkpt lat="23.959761" lon="111.8764">
<time>2016-10-06T12:03:59Z</time></trkpt>
<trkpt lat="23.9596" lon="111.87624">
<time>2016-10-06T12:04:00Z</time></trkpt>
<trkpt lat="23.95943" lon="111.87608">
<time>2016-10-06T12:04:01Z</time></trkpt>
<trkpt lat="23.95932" lon="111.87598">
<time>2016-10-06T12:04:02Z</time></trkpt>
<trkpt lat="23.95918" lon="111.87586">
<time>2016-10-06T12:04:03Z</time></trkpt>
<trkpt lat="23.95903" lon="111.875709">
<time>2016-10-06T12:04:04Z</time></trkpt>
<trkpt lat="23.95891" lon="111.875589">
<time>2016-10-06T12:04:05Z</time></trkpt>
<trkpt lat="23.958829" lon="111.875509">
<time>2016-10-06T12:04:06Z</time></trkpt>
<trkpt lat="23.958759" lon="111.875439">
<time>2016-10-06T12:04:07Z</time></trkpt>
<trkpt lat="23.958739" lon="111.875409">
<time>2016-10-06T12:04:08Z</time></trkpt>
<trkpt lat="23.958689" lon="111.875369">
<time>2016-10-06T12:04:09Z</time></trkpt>
<trkpt lat="23.958619" lon="111.875279">
<time>2016-10-06T12:04:10Z</time></trkpt>
<trkpt lat="23.958599" lon="111.875249">
<time>2016-10-06T12:04:11Z</time></trkpt>
<trkpt lat="23.958559" lon="111.875199">
<time>2016-10-06T12:04:12Z</time></trkpt>
<trkpt lat="23.958539" lon="111.875159">
<time>2016-10-06T12:04:13Z</time></trkpt>
<trkpt lat="23.958509" lon="111.875119">
<time>2016-10-06T12:04:14Z</time></trkpt>
<trkpt lat="23.958459" lon="111.875009">
<time>2016-10-06T12:04:15Z</time></trkpt>
<trkpt lat="23.958419" lon="111.874909">
<time>2016-10-06T12:04:16Z</time></trkpt>
<trkpt lat="23.958379" lon="111.874799">
<time>2016-10-06T12:04:17Z</time></trkpt>
<trkpt lat="23.958348" lon="111.874668">
<time>2016-10-06T12:04:18Z</time></trkpt>
<trkpt lat="23.958328" lon="111.874468">
<time>2016-10-06T12:04:19Z</time></trkpt>
<trkpt lat="23.958318" lon="111.874278">
<time>2016-10-06T12:04:20Z</time></trkpt>
<trkpt lat="23.958318" lon="111.874178">
<time>2016-10-06T12:04:21Z</time></trkpt>
<trkpt lat="23.958308" lon="111.873697">
<time>2016-10-06T12:04:22Z</time></trkpt>
<trkpt lat="23.958297" lon="111.873597">
<time>2016-10-06T12:04:23Z</time></trkpt>
<trkpt lat="23.958287" lon="111.873407">
<time>2016-10-06T12:04:24Z</time></trkpt>
<trkpt lat="23.958175" lon="111.871124">
<time>2016-10-06T12:04:25Z</time></trkpt>
<trkpt lat="23.958165" lon="111.870924">
<time>2016-10-06T12:04:26Z</time></trkpt>
<trkpt lat="23.958145" lon="111.870724">
<time>2016-10-06T12:04:27Z</time></trkpt>
<trkpt lat="23.958104" lon="111.870223">
<time>2016-10-06T12:04:28Z</time></trkpt>
<trkpt lat="23.958094" lon="111.870013">
<time>2016-10-06T12:04:29Z</time></trkpt>
<trkpt lat="23.958074" lon="111.869913">
<time>2016-10-06T12:04:30Z</time></trkpt>
<trkpt lat="23.958064" lon="111.869813">
<time>2016-10-06T12:04:31Z</time></trkpt>
<trkpt lat="23.958033" lon="111.869713">
<time>2016-10-06T12:04:32Z</time></trkpt>
<trkpt lat="23.958003" lon="111.869622">
<time>2016-10-06T12:04:33Z</time></trkpt>
<trkpt lat="23.957953" lon="111.869532">
<time>2016-10-06T12:04:34Z</time></trkpt>
<trkpt lat="23.957883" lon="111.869462">
<time>2016-10-06T12:04:35Z</time></trkpt>
<trkpt lat="23.957813" lon="111.869392">
<time>2016-10-06T12:04:36Z</time></trkpt>
<trkpt lat="23.957733" lon="111.869342">
<time>2016-10-06T12:04:37Z</time></trkpt>
<trkpt lat="23.957643" lon="111.869312">
<time>2016-10-06T12:04:38Z</time></trkpt>
<trkpt lat="23.957553" lon="111.869292">
<time>2016-10-06T12:04:39Z</time></trkpt>
<trkpt lat="23.957463" lon="111.869282">
<time>2016-10-06T12:04:40Z</time></trkpt>
<trkpt lat="23.957373" lon="111.869302">
<time>2016-10-06T12:04:41Z</time></trkpt>
<trkpt lat="23.957283" lon="111.869322">
<time>2016-10-06T12:04:42Z</time></trkpt>
<trkpt lat="23.957203" lon="111.869352">
<time>2016-10-06T12:04:43Z</time></trkpt>
<trkpt lat="23.957113" lon="111.869392">
<time>2016-10-06T12:04:44Z</time></trkpt>
<trkpt lat="23.957033" lon="111.869432">
<time>2016-10-06T12:04:45Z</time></trkpt>
<trkpt lat="23.956863" lon="111.869522">
<time>2016-10-06T12:04:46Z</time></trkpt>
<trkpt lat="23.956783" lon="111.869562">
<time>2016-10-06T12:04:47Z</time></trkpt>
<trkpt lat="23.956693" lon="111.869602">
<time>2016-10-06T12:04:48Z</time></trkpt>
<trkpt lat="23.956613" lon="111.869633">
<time>2016-10-06T12:04:49Z</time></trkpt>
<trkpt lat="23.956523" lon="111.869663">
<time>2016-10-06T12:04:50Z</time></trkpt>
<trkpt lat="23.956433" lon="111.869693">
<time>2016-10-06T12:04:51Z</time></trkpt>
<trkpt lat="23.956343" lon="111.869703">
<time>2016-10-06T12:04:52Z</time></trkpt>
<trkpt lat="23.956253" lon="111.869703">
<time>2016-10-06T12:04:53Z</time></trkpt>
<trkpt lat="23.956163" lon="111.869693">
<time>2016-10-06T12:04:54Z</time></trkpt>
<trkpt lat="23.956083" lon="111.869683">
<time>2016-10-06T12:04:55Z</time></trkpt>
<trkpt lat="23.955993" lon="111.869653">
<time>2016-10-06T12:04:56Z</time></trkpt>
<trkpt lat="23.955913" lon="111.869623">
<time>2016-10-06T12:04:57Z</time></trkpt>
<trkpt lat="23.955842" lon="111.869572">
<time>2016-10-06T12:04:58Z</time></trkpt>
<trkpt lat="23.955772" lon="111.869522">
<time>2016-10-06T12:04:59Z</time></trkpt>
<trkpt lat="23.955702" lon="111.869472">
<time>2016-10-06T12:05:00Z</time></trkpt>
<trkpt lat="23.955632" lon="111.869412">
<time>2016-10-06T12:05:01Z</time></trkpt>
<trkpt lat="23.955562" lon="111.869352">
<time>2016-10-06T12:05:02Z</time></trkpt>
<trkpt lat="23.95432" lon="111.868011">
<time>2016-10-06T12:05:03Z</time></trkpt>
<trkpt lat="23.95426" lon="111.86794">
<time>2016-10-06T12:05:04Z</time></trkpt>
<trkpt lat="23.9542" lon="111.86787">
<time>2016-10-06T12:05:05Z</time></trkpt>
<trkpt lat="23.95414" lon="111.86779">
<time>2016-10-06T12:05:06Z</time></trkpt>
<trkpt lat="23.95408" lon="111.86771">
<time>2016-10-06T12:05:07Z</time></trkpt>
<trkpt lat="23.95403" lon="111.86763">
<time>2016-10-06T12:05:08Z</time></trkpt>
<trkpt lat="23.953989" lon="111.86755">
<time>2016-10-06T12:05:09Z</time></trkpt>
<trkpt lat="23.953949" lon="111.86746">
<time>2016-10-06T12:05:10Z</time></trkpt>
<trkpt lat="23.953919" lon="111.86737">
<time>2016-10-06T12:05:11Z</time></trkpt>
<trkpt lat="23.953889" lon="111.86727">
<time>2016-10-06T12:05:12Z</time></trkpt>
<trkpt lat="23.953879" lon="111.867179">
<time>2016-10-06T12:05:13Z</time></trkpt>
<trkpt lat="23.953869" lon="111.867079">
<time>2016-10-06T12:05:14Z</time></trkpt>
<trkpt lat="23.953869" lon="111.866979">
<time>2016-10-06T12:05:15Z</time></trkpt>
<trkpt lat="23.953879" lon="111.866879">
<time>2016-10-06T12:05:16Z</time></trkpt>
<trkpt lat="23.953889" lon="111.866779">
<time>2016-10-06T12:05:17Z</time></trkpt>
<trkpt lat="23.953908" lon="111.866679">
<time>2016-10-06T12:05:18Z</time></trkpt>
<trkpt lat="23.954028" lon="111.866108">
<time>2016-10-06T12:05:19Z</time></trkpt>
<trkpt lat="23.954078" lon="111.865918">
<time>2016-10-06T12:05:20Z</time></trkpt>
<trkpt lat="23.954117" lon="111.865727">
<time>2016-10-06T12:05:21Z</time></trkpt>
<trkpt lat="23.954207" lon="111.865337">
<time>2016-10-06T12:05:22Z</time></trkpt>
<trkpt lat="23.954227" lon="111.865247">
<time>2016-10-06T12:05:23Z</time></trkpt>
<trkpt lat="23.954247" lon="111.865157">
<time>2016-10-06T12:05:24Z</time></trkpt>
<trkpt lat="23.954267" lon="111.865066">
<time>2016-10-06T12:05:25Z</time></trkpt>
<trkpt lat="23.954287" lon="111.864976">
<time>2016-10-06T12:05:26Z</time></trkpt>
<trkpt lat="23.954296" lon="111.864876">
<time>2016-10-06T12:05:27Z</time></trkpt>
<trkpt lat="23.954296" lon="111.864776">
<time>2016-10-06T12:05:28Z</time></trkpt>
<trkpt lat="23.954286" lon="111.864676">
<time>2016-10-06T12:05:29Z</time></trkpt>
<trkpt lat="23.954266" lon="111.864576">
<time>2016-10-06T12:05:30Z</time></trkpt>
<trkpt lat="23.954246" lon="111.864476">
<time>2016-10-06T12:05:31Z</time></trkpt>
<trkpt lat="23.954216" lon="111.864386">
<time>2016-10-06T12:05:32Z</time></trkpt>
<trkpt lat="23.954176" lon="111.864295">
<time>2016-10-06T12:05:33Z</time></trkpt>
<trkpt lat="23.954126" lon="111.864205">
<time>2016-10-06T12:05:34Z</time></trkpt>
<trkpt lat="23.954075" lon="111.864125">
<time>2016-10-06T12:05:35Z</time></trkpt>
<trkpt lat="23.954025" lon="111.864045">
<time>2016-10-06T12:05:36Z</time></trkpt>
<trkpt lat="23.953965" lon="111.863975">
<time>2016-10-06T12:05:37Z</time></trkpt>
<trkpt lat="23.953895" lon="111.863905">
<time>2016-10-06T12:05:38Z</time></trkpt>
<trkpt lat="23.953825" lon="111.863845">
<time>2016-10-06T12:05:39Z</time></trkpt>
<trkpt lat="23.953755" lon="111.863785">
<time>2016-10-06T12:05:40Z</time></trkpt>
<trkpt lat="23.953675" lon="111.863735">
<time>2016-10-06T12:05:41Z</time></trkpt>
<trkpt lat="23.953595" lon="111.863685">
<time>2016-10-06T12:05:42Z</time></trkpt>
<trkpt lat="23.953515" lon="111.863644">
<time>2016-10-06T12:05:43Z</time></trkpt>
<trkpt lat="23.952944" lon="111.863354">
<time>2016-10-06T12:05:44Z</time></trkpt>
<trkpt lat="23.952694" lon="111.863234">
<time>2016-10-06T12:05:45Z</time></trkpt>
<trkpt lat="23.952113" lon="111.862934">
<time>2016-10-06T12:05:46Z</time></trkpt>
<trkpt lat="23.952033" lon="111.862893">
<time>2016-10-06T12:05:47Z</time></trkpt>
<trkpt lat="23.951953" lon="111.862843">
<time>2016-10-06T12:05:48Z</time></trkpt>
<trkpt lat="23.951873" lon="111.862783">
<time>2016-10-06T12:05:49Z</time></trkpt>
<trkpt lat="23.951803" lon="111.862723">
<time>2016-10-06T12:05:50Z</time></trkpt>
<trkpt lat="23.951743" lon="111.862643">
<time>2016-10-06T12:05:51Z</time></trkpt>
<trkpt lat="23.951692" lon="111.862563">
<time>2016-10-06T12:05:52Z</time></trkpt>
<trkpt lat="23.951662" lon="111.862473">
<time>2016-10-06T12:05:53Z</time></trkpt>
<trkpt lat="23.951642" lon="111.862383">
<time>2016-10-06T12:05:54Z</time></trkpt>
<trkpt lat="23.951632" lon="111.862283">
<time>2016-10-06T12:05:55Z</time></trkpt>
<trkpt lat="23.951642" lon="111.862192">
<time>2016-10-06T12:05:56Z</time></trkpt>
<trkpt lat="23.951662" lon="111.862102">
<time>2016-10-06T12:05:57Z</time></trkpt>
<trkpt lat="23.951682" lon="111.862012">
<time>2016-10-06T12:05:58Z</time></trkpt>
<trkpt lat="23.951722" lon="111.861922">
<time>2016-10-06T12:05:59Z</time></trkpt>
<trkpt lat="23.951762" lon="111.861832">
<time>2016-10-06T12:06:00Z</time></trkpt>
<trkpt lat="23.951811" lon="111.861752">
<time>2016-10-06T12:06:01Z</time></trkpt>
<trkpt lat="23.951911" lon="111.861571">
<time>2016-10-06T12:06:02Z</time></trkpt>
<trkpt lat="23.951961" lon="111.861491">
<time>2016-10-06T12:06:03Z</time></trkpt>
<trkpt lat="23.952001" lon="111.861391">
<time>2016-10-06T12:06:04Z</time></trkpt>
<trkpt lat="23.952041" lon="111.861301">
<time>2016-10-06T12:06:05Z</time></trkpt>
<trkpt lat="23.952061" lon="111.861191">
<time>2016-10-06T12:06:06Z</time></trkpt>
<trkpt lat="23.952061" lon="111.861091">
<time>2016-10-06T12:06:07Z</time></trkpt>
<trkpt lat="23.952061" lon="111.861001">
<time>2016-10-06T12:06:08Z</time></trkpt>
<trkpt lat="23.95203" lon="111.8609">
<time>2016-10-06T12:06:09Z</time></trkpt>
<trkpt lat="23.952" lon="111.86081">
<time>2016-10-06T12:06:10Z</time></trkpt>
<trkpt lat="23.95196" lon="111.86073">
<time>2016-10-06T12:06:11Z</time></trkpt>
<trkpt lat="23.9519" lon="111.86065">
<time>2016-10-06T12:06:12Z</time></trkpt>
<trkpt lat="23.95184" lon="111.86058">
<time>2016-10-06T12:06:13Z</time></trkpt>
<trkpt lat="23.95177" lon="111.86052">
<time>2016-10-06T12:06:14Z</time></trkpt>
<trkpt lat="23.9517" lon="111.86046">
<time>2016-10-06T12:06:15Z</time></trkpt>
<trkpt lat="23.95163" lon="111.86041">
<time>2016-10-06T12:06:16Z</time></trkpt>
<trkpt lat="23.951399" lon="111.860249">
<time>2016-10-06T12:06:17Z</time></trkpt>
<trkpt lat="23.951259" lon="111.860139">
<time>2016-10-06T12:06:18Z</time></trkpt>
<trkpt lat="23.951179" lon="111.860079">
<time>2016-10-06T12:06:19Z</time></trkpt>
<trkpt lat="23.951109" lon="111.860019">
<time>2016-10-06T12:06:20Z</time></trkpt>
<trkpt lat="23.951039" lon="111.859959">
<time>2016-10-06T12:06:21Z</time></trkpt>
<trkpt lat="23.950969" lon="111.859899">
<time>2016-10-06T12:06:22Z</time></trkpt>
<trkpt lat="23.950909" lon="111.859829">
<time>2016-10-06T12:06:23Z</time></trkpt>
<trkpt lat="23.950838" lon="111.859759">
<time>2016-10-06T12:06:24Z</time></trkpt>
<trkpt lat="23.950778" lon="111.859689">
<time>2016-10-06T12:06:25Z</time></trkpt>
<trkpt lat="23.950718" lon="111.859618">
<time>2016-10-06T12:06:26Z</time></trkpt>
<trkpt lat="23.950668" lon="111.859538">
<time>2016-10-06T12:06:27Z</time></trkpt>
<trkpt lat="23.950618" lon="111.859458">
<time>2016-10-06T12:06:28Z</time></trkpt>
<trkpt lat="23.950568" lon="111.859378">
<time>2016-10-06T12:06:29Z</time></trkpt>
<trkpt lat="23.950528" lon="111.859288">
<time>2016-10-06T12:06:30Z</time></trkpt>
<trkpt lat="23.950477" lon="111.859198">
<time>2016-10-06T12:06:31Z</time></trkpt>
<trkpt lat="23.950437" lon="111.859108">
<time>2016-10-06T12:06:32Z</time></trkpt>
<trkpt lat="23.950407" lon="111.859018">
<time>2016-10-06T12:06:33Z</time></trkpt>
<trkpt lat="23.950377" lon="111.858927">
<time>2016-10-06T12:06:34Z</time></trkpt>
<trkpt lat="23.950347" lon="111.858827">
<time>2016-10-06T12:06:35Z</time></trkpt>
<trkpt lat="23.950317" lon="111.858737">
<time>2016-10-06T12:06:36Z</time></trkpt>
<trkpt lat="23.950297" lon="111.858637">
<time>2016-10-06T12:06:37Z</time></trkpt>
<trkpt lat="23.950276" lon="111.858547">
<time>2016-10-06T12:06:38Z</time></trkpt>
<trkpt lat="23.950256" lon="111.858447">
<time>2016-10-06T12:06:39Z</time></trkpt>
<trkpt lat="23.950226" lon="111.858246">
<time>2016-10-06T12:06:40Z</time></trkpt>
<trkpt lat="23.950175" lon="111.857856">
<time>2016-10-06T12:06:41Z</time></trkpt>
<trkpt lat="23.950155" lon="111.857755">
<time>2016-10-06T12:06:42Z</time></trkpt>
<trkpt lat="23.950135" lon="111.857655">
<time>2016-10-06T12:06:43Z</time></trkpt>
<trkpt lat="23.950105" lon="111.857555">
<time>2016-10-06T12:06:44Z</time></trkpt>
<trkpt lat="23.950075" lon="111.857465">
<time>2016-10-06T12:06:45Z</time></trkpt>
<trkpt lat="23.950045" lon="111.857375">
<time>2016-10-06T12:06:46Z</time></trkpt>
<trkpt lat="23.950005" lon="111.857275">
<time>2016-10-06T12:06:47Z</time></trkpt>
<trkpt lat="23.949964" lon="111.857195">
<time>2016-10-06T12:06:48Z</time></trkpt>
<trkpt lat="23.949914" lon="111.857104">
<time>2016-10-06T12:06:49Z</time></trkpt>
<trkpt lat="23.949854" lon="111.857034">
<time>2016-10-06T12:06:50Z</time></trkpt>
<trkpt lat="23.949784" lon="111.856964">
<time>2016-10-06T12:06:51Z</time></trkpt>
<trkpt lat="23.949714" lon="111.856904">
<time>2016-10-06T12:06:52Z</time></trkpt>
<trkpt lat="23.949644" lon="111.856844">
<time>2016-10-06T12:06:53Z</time></trkpt>
<trkpt lat="23.949564" lon="111.856794">
<time>2016-10-06T12:06:54Z</time></trkpt>
<trkpt lat="23.949474" lon="111.856754">
<time>2016-10-06T12:06:55Z</time></trkpt>
<trkpt lat="23.949384" lon="111.856724">
<time>2016-10-06T12:06:56Z</time></trkpt>
<trkpt lat="23.949293" lon="111.856694">
<time>2016-10-06T12:06:57Z</time></trkpt>
<trkpt lat="23.949203" lon="111.856684">
<time>2016-10-06T12:06:58Z</time></trkpt>
<trkpt lat="23.949133" lon="111.856674">
<time>2016-10-06T12:06:59Z</time></trkpt>
<trkpt lat="23.948843" lon="111.856684">
<time>2016-10-06T12:07:00Z</time></trkpt>
<trkpt lat="23.948763" lon="111.856694">
<time>2016-10-06T12:07:01Z</time></trkpt>
<trkpt lat="23.948313" lon="111.856774">
<time>2016-10-06T12:07:02Z</time></trkpt>
<trkpt lat="23.948133" lon="111.856804">
<time>2016-10-06T12:07:03Z</time></trkpt>
<trkpt lat="23.948043" lon="111.856814">
<time>2016-10-06T12:07:04Z</time></trkpt>
<trkpt lat="23.947953" lon="111.856824">
<time>2016-10-06T12:07:05Z</time></trkpt>
<trkpt lat="23.947863" lon="111.856834">
<time>2016-10-06T12:07:06Z</time></trkpt>
<trkpt lat="23.947673" lon="111.856844">
<time>2016-10-06T12:07:07Z</time></trkpt>
<trkpt lat="23.947493" lon="111.856844">
<time>2016-10-06T12:07:08Z</time></trkpt>
<trkpt lat="23.947313" lon="111.856844">
<time>2016-10-06T12:07:09Z</time></trkpt>
<trkpt lat="23.947123" lon="111.856844">
<time>2016-10-06T12:07:10Z</time></trkpt>
<trkpt lat="23.947033" lon="111.856834">
<time>2016-10-06T12:07:11Z</time></trkpt>
<trkpt lat="23.946943" lon="111.856834">
<time>2016-10-06T12:07:12Z</time></trkpt>
<trkpt lat="23.946853" lon="111.856824">
<time>2016-10-06T12:07:13Z</time></trkpt>
<trkpt lat="23.946492" lon="111.856774">
<time>2016-10-06T12:07:14Z</time></trkpt>
<trkpt lat="23.946402" lon="111.856754">
<time>2016-10-06T12:07:15Z</time></trkpt>
<trkpt lat="23.946232" lon="111.856724">
<time>2016-10-06T12:07:16Z</time></trkpt>
<trkpt lat="23.946052" lon="111.856684">
<time>2016-10-06T12:07:17Z</time></trkpt>
<trkpt lat="23.945962" lon="111.856664">
<time>2016-10-06T12:07:18Z</time></trkpt>
<trkpt lat="23.945872" lon="111.856644">
<time>2016-10-06T12:07:19Z</time></trkpt>
<trkpt lat="23.945792" lon="111.856624">
<time>2016-10-06T12:07:20Z</time></trkpt>
<trkpt lat="23.945702" lon="111.856594">
<time>2016-10-06T12:07:21Z</time></trkpt>
<trkpt lat="23.944911" lon="111.856323">
<time>2016-10-06T12:07:22Z</time></trkpt>
<trkpt lat="23.944571" lon="111.856193">
<time>2016-10-06T12:07:23Z</time></trkpt>
<trkpt lat="23.944401" lon="111.856133">
<time>2016-10-06T12:07:24Z</time></trkpt>
<trkpt lat="23.944231" lon="111.856073">
<time>2016-10-06T12:07:25Z</time></trkpt>
<trkpt lat="23.94406" lon="111.855993">
<time>2016-10-06T12:07:26Z</time></trkpt>
<trkpt lat="23.94397" lon="111.855963">
<time>2016-10-06T12:07:27Z</time></trkpt>
<trkpt lat="23.94389" lon="111.855923">
<time>2016-10-06T12:07:28Z</time></trkpt>
<trkpt lat="23.94372" lon="111.855843">
<time>2016-10-06T12:07:29Z</time></trkpt>
<trkpt lat="23.94364" lon="111.855793">
<time>2016-10-06T12:07:30Z</time></trkpt>
<trkpt lat="23.94356" lon="111.855753">
<time>2016-10-06T12:07:31Z</time></trkpt>
<trkpt lat="23.94348" lon="111.855702">
<time>2016-10-06T12:07:32Z</time></trkpt>
<trkpt lat="23.9434" lon="111.855652">
<time>2016-10-06T12:07:33Z</time></trkpt>
<trkpt lat="23.943099" lon="111.855452">
<time>2016-10-06T12:07:34Z</time></trkpt>
<trkpt lat="23.942949" lon="111.855342">
<time>2016-10-06T12:07:35Z</time></trkpt>
<trkpt lat="23.942869" lon="111.855282">
<time>2016-10-06T12:07:36Z</time></trkpt>
<trkpt lat="23.942799" lon="111.855222">
<time>2016-10-06T12:07:37Z</time></trkpt>
<trkpt lat="23.942719" lon="111.855162">
<time>2016-10-06T12:07:38Z</time></trkpt>
<trkpt lat="23.942578" lon="111.855041">
<time>2016-10-06T12:07:39Z</time></trkpt>
<trkpt lat="23.942438" lon="111.854901">
<time>2016-10-06T12:07:40Z</time></trkpt>
<trkpt lat="23.942378" lon="111.854841">
<time>2016-10-06T12:07:41Z</time></trkpt>
<trkpt lat="23.942308" lon="111.854771">
<time>2016-10-06T12:07:42Z</time></trkpt>
<trkpt lat="23.942248" lon="111.854701">
<time>2016-10-06T12:07:43Z</time></trkpt>
<trkpt lat="23.942178" lon="111.854631">
<time>2016-10-06T12:07:44Z</time></trkpt>
<trkpt lat="23.941937" lon="111.85433">
<time>2016-10-06T12:07:45Z</time></trkpt>
<trkpt lat="23.941877" lon="111.85426">
<time>2016-10-06T12:07:46Z</time></trkpt>
<trkpt lat="23.941767" lon="111.8541">
<time>2016-10-06T12:07:47Z</time></trkpt>
<trkpt lat="23.941656" lon="111.85395">
<time>2016-10-06T12:07:48Z</time></trkpt>
<trkpt lat="23.941556" lon="111.853779">
<time>2016-10-06T12:07:49Z</time></trkpt>
<trkpt lat="23.940573" lon="111.852106">
<time>2016-10-06T12:07:50Z</time></trkpt>
<trkpt lat="23.940523" lon="111.852026">
<time>2016-10-06T12:07:51Z</time></trkpt>
<trkpt lat="23.940473" lon="111.851946">
<time>2016-10-06T12:07:52Z</time></trkpt>
<trkpt lat="23.940413" lon="111.851866">
<time>2016-10-06T12:07:53Z</time></trkpt>
<trkpt lat="23.940352" lon="111.851786">
<time>2016-10-06T12:07:54Z</time></trkpt>
<trkpt lat="23.940282" lon="111.851726">
<time>2016-10-06T12:07:55Z</time></trkpt>
<trkpt lat="23.940212" lon="111.851656">
<time>2016-10-06T12:07:56Z</time></trkpt>
<trkpt lat="23.940132" lon="111.851595">
<time>2016-10-06T12:07:57Z</time></trkpt>
<trkpt lat="23.940052" lon="111.851555">
<time>2016-10-06T12:07:58Z</time></trkpt>
<trkpt lat="23.939962" lon="111.851515">
<time>2016-10-06T12:07:59Z</time></trkpt>
<trkpt lat="23.939872" lon="111.851485">
<time>2016-10-06T12:08:00Z</time></trkpt>
<trkpt lat="23.939782" lon="111.851465">
<time>2016-10-06T12:08:01Z</time></trkpt>
<trkpt lat="23.939692" lon="111.851455">
<time>2016-10-06T12:08:02Z</time></trkpt>
<trkpt lat="23.939602" lon="111.851455">
<time>2016-10-06T12:08:03Z</time></trkpt>
<trkpt lat="23.939512" lon="111.851465">
<time>2016-10-06T12:08:04Z</time></trkpt>
<trkpt lat="23.939422" lon="111.851475">
<time>2016-10-06T12:08:05Z</time></trkpt>
<trkpt lat="23.939332" lon="111.851495">
<time>2016-10-06T12:08:06Z</time></trkpt>
<trkpt lat="23.939242" lon="111.851525">
<time>2016-10-06T12:08:07Z</time></trkpt>
<trkpt lat="23.939162" lon="111.851555">
<time>2016-10-06T12:08:08Z</time></trkpt>
<trkpt lat="23.939072" lon="111.851596">
<time>2016-10-06T12:08:09Z</time></trkpt>
<trkpt lat="23.938902" lon="111.851666">
<time>2016-10-06T12:08:10Z</time></trkpt>
<trkpt lat="23.938822" lon="111.851696">
<time>2016-10-06T12:08:11Z</time></trkpt>
<trkpt lat="23.938732" lon="111.851726">
<time>2016-10-06T12:08:12Z</time></trkpt>
<trkpt lat="23.938642" lon="111.851756">
<time>2016-10-06T12:08:13Z</time></trkpt>
<trkpt lat="23.938552" lon="111.851776">
<time>2016-10-06T12:08:14Z</time></trkpt>
<trkpt lat="23.938462" lon="111.851776">
<time>2016-10-06T12:08:15Z</time></trkpt>
<trkpt lat="23.938372" lon="111.851776">
<time>2016-10-06T12:08:16Z</time></trkpt>
<trkpt lat="23.938282" lon="111.851756">
<time>2016-10-06T12:08:17Z</time></trkpt>
<trkpt lat="23.938201" lon="111.851726">
<time>2016-10-06T12:08:18Z</time></trkpt>
<trkpt lat="23.938121" lon="111.851676">
<time>2016-10-06T12:08:19Z</time></trkpt>
<trkpt lat="23.938051" lon="111.851626">
<time>2016-10-06T12:08:20Z</time></trkpt>
<trkpt lat="23.937991" lon="111.851556">
<time>2016-10-06T12:08:21Z</time></trkpt>
<trkpt lat="23.937931" lon="111.851465">
<time>2016-10-06T12:08:22Z</time></trkpt>
<trkpt lat="23.937881" lon="111.851385">
<time>2016-10-06T12:08:23Z</time></trkpt>
<trkpt lat="23.937851" lon="111.851295">
<time>2016-10-06T12:08:24Z</time></trkpt>
<trkpt lat="23.937831" lon="111.851205">
<time>2016-10-06T12:08:25Z</time></trkpt>
<trkpt lat="23.93783" lon="111.851115">
<time>2016-10-06T12:08:26Z</time></trkpt>
<trkpt lat="23.93783" lon="111.851025">
<time>2016-10-06T12:08:27Z</time></trkpt>
<trkpt lat="23.93783" lon="111.850934">
<time>2016-10-06T12:08:28Z</time></trkpt>
<trkpt lat="23.93784" lon="111.850844">
<time>2016-10-06T12:08:29Z</time></trkpt>
<trkpt lat="23.93786" lon="111.850754">
<time>2016-10-06T12:08:30Z</time></trkpt>
<trkpt lat="23.93788" lon="111.850664">
<time>2016-10-06T12:08:31Z</time></trkpt>
<trkpt lat="23.938307" lon="111.849141">
<time>2016-10-06T12:08:32Z</time></trkpt>
<trkpt lat="23.938357" lon="111.848941">
<time>2016-10-06T12:08:33Z</time></trkpt>
<trkpt lat="23.938387" lon="111.848841">
<time>2016-10-06T12:08:34Z</time></trkpt>
<trkpt lat="23.938407" lon="111.84874">
<time>2016-10-06T12:08:35Z</time></trkpt>
<trkpt lat="23.938417" lon="111.84864">
<time>2016-10-06T12:08:36Z</time></trkpt>
<trkpt lat="23.938426" lon="111.84854">
<time>2016-10-06T12:08:37Z</time></trkpt>
<trkpt lat="23.938426" lon="111.84844">
<time>2016-10-06T12:08:38Z</time></trkpt>
<trkpt lat="23.938426" lon="111.84834">
<time>2016-10-06T12:08:39Z</time></trkpt>
<trkpt lat="23.938416" lon="111.848239">
<time>2016-10-06T12:08:40Z</time></trkpt>
<trkpt lat="23.938396" lon="111.848139">
<time>2016-10-06T12:08:41Z</time></trkpt>
<trkpt lat="23.938376" lon="111.848049">
<time>2016-10-06T12:08:42Z</time></trkpt>
<trkpt lat="23.938345" lon="111.847949">
<time>2016-10-06T12:08:43Z</time></trkpt>
<trkpt lat="23.938315" lon="111.847859">
<time>2016-10-06T12:08:44Z</time></trkpt>
<trkpt lat="23.938265" lon="111.847779">
<time>2016-10-06T12:08:45Z</time></trkpt>
<trkpt lat="23.938215" lon="111.847688">
<time>2016-10-06T12:08:46Z</time></trkpt>
<trkpt lat="23.938155" lon="111.847608">
<time>2016-10-06T12:08:47Z</time></trkpt>
<trkpt lat="23.938085" lon="111.847538">
<time>2016-10-06T12:08:48Z</time></trkpt>
<trkpt lat="23.938015" lon="111.847478">
<time>2016-10-06T12:08:49Z</time></trkpt>
<trkpt lat="23.937934" lon="111.847418">
<time>2016-10-06T12:08:50Z</time></trkpt>
<trkpt lat="23.937854" lon="111.847358">
<time>2016-10-06T12:08:51Z</time></trkpt>
<trkpt lat="23.937774" lon="111.847318">
<time>2016-10-06T12:08:52Z</time></trkpt>
<trkpt lat="23.937684" lon="111.847278">
<time>2016-10-06T12:08:53Z</time></trkpt>
<trkpt lat="23.937594" lon="111.847258">
<time>2016-10-06T12:08:54Z</time></trkpt>
<trkpt lat="23.937504" lon="111.847238">
<time>2016-10-06T12:08:55Z</time></trkpt>
<trkpt lat="23.937414" lon="111.847228">
<time>2016-10-06T12:08:56Z</time></trkpt>
<trkpt lat="23.937314" lon="111.847228">
<time>2016-10-06T12:08:57Z</time></trkpt>
<trkpt lat="23.937224" lon="111.847238">
<time>2016-10-06T12:08:58Z</time></trkpt>
<trkpt lat="23.937134" lon="111.847248">
<time>2016-10-06T12:08:59Z</time></trkpt>
<trkpt lat="23.937044" lon="111.847278">
<time>2016-10-06T12:09:00Z</time></trkpt>
<trkpt lat="23.936964" lon="111.847308">
<time>2016-10-06T12:09:01Z</time></trkpt>
<trkpt lat="23.936874" lon="111.847348">
<time>2016-10-06T12:09:02Z</time></trkpt>
<trkpt lat="23.936794" lon="111.847388">
<time>2016-10-06T12:09:03Z</time></trkpt>
<trkpt lat="23.936714" lon="111.847438">
<time>2016-10-06T12:09:04Z</time></trkpt>
<trkpt lat="23.936644" lon="111.847498">
<time>2016-10-06T12:09:05Z</time></trkpt>
<trkpt lat="23.936574" lon="111.847558">
<time>2016-10-06T12:09:06Z</time></trkpt>
<trkpt lat="23.936504" lon="111.847618">
<time>2016-10-06T12:09:07Z</time></trkpt>
<trkpt lat="23.936434" lon="111.847688">
<time>2016-10-06T12:09:08Z</time></trkpt>
<trkpt lat="23.935446" lon="111.84873">
<time>2016-10-06T12:09:09Z</time></trkpt>
<trkpt lat="23.935376" lon="111.848801">
<time>2016-10-06T12:09:10Z</time></trkpt>
<trkpt lat="23.935306" lon="111.848871">
<time>2016-10-06T12:09:11Z</time></trkpt>
<trkpt lat="23.935226" lon="111.848931">
<time>2016-10-06T12:09:12Z</time></trkpt>
<trkpt lat="23.935146" lon="111.848981">
<time>2016-10-06T12:09:13Z</time></trkpt>
<trkpt lat="23.935066" lon="111.849031">
<time>2016-10-06T12:09:14Z</time></trkpt>
<trkpt lat="23.934986" lon="111.849071">
<time>2016-10-06T12:09:15Z</time></trkpt>
<trkpt lat="23.934896" lon="111.849101">
<time>2016-10-06T12:09:16Z</time></trkpt>
<trkpt lat="23.934806" lon="111.849121">
<time>2016-10-06T12:09:17Z</time></trkpt>
<trkpt lat="23.934736" lon="111.849131">
<time>2016-10-06T12:09:18Z</time></trkpt>
<trkpt lat="23.934706" lon="111.849131">
<time>2016-10-06T12:09:19Z</time></trkpt>
<trkpt lat="23.934626" lon="111.849141">
<time>2016-10-06T12:09:20Z</time></trkpt>
<trkpt lat="23.934546" lon="111.849131">
<time>2016-10-06T12:09:21Z</time></trkpt>
<trkpt lat="23.934456" lon="111.849111">
<time>2016-10-06T12:09:22Z</time></trkpt>
<trkpt lat="23.934366" lon="111.849091">
<time>2016-10-06T12:09:23Z</time></trkpt>
<trkpt lat="23.934276" lon="111.849051">
<time>2016-10-06T12:09:24Z</time></trkpt>
<trkpt lat="23.934206" lon="111.849011">
<time>2016-10-06T12:09:25Z</time></trkpt>
<trkpt lat="23.934135" lon="111.848951">
<time>2016-10-06T12:09:26Z</time></trkpt>
<trkpt lat="23.934065" lon="111.848891">
<time>2016-10-06T12:09:27Z</time></trkpt>
<trkpt lat="23.934005" lon="111.848821">
<time>2016-10-06T12:09:28Z</time></trkpt>
<trkpt lat="23.933945" lon="111.848751">
<time>2016-10-06T12:09:29Z</time></trkpt>
<trkpt lat="23.933895" lon="111.84867">
<time>2016-10-06T12:09:30Z</time></trkpt>
<trkpt lat="23.933855" lon="111.84859">
<time>2016-10-06T12:09:31Z</time></trkpt>
<trkpt lat="23.933815" lon="111.8485">
<time>2016-10-06T12:09:32Z</time></trkpt>
<trkpt lat="23.933794" lon="111.84841">
<time>2016-10-06T12:09:33Z</time></trkpt>
<trkpt lat="23.933774" lon="111.84832">
<time>2016-10-06T12:09:34Z</time></trkpt>
<trkpt lat="23.933764" lon="111.84823">
<time>2016-10-06T12:09:35Z</time></trkpt>
<trkpt lat="23.933764" lon="111.848129">
<time>2016-10-06T12:09:36Z</time></trkpt>
<trkpt lat="23.933764" lon="111.848039">
<time>2016-10-06T12:09:37Z</time></trkpt>
<trkpt lat="23.933774" lon="111.847949">
<time>2016-10-06T12:09:38Z</time></trkpt>
<trkpt lat="23.933793" lon="111.847849">
<time>2016-10-06T12:09:39Z</time></trkpt>
<trkpt lat="23.933813" lon="111.847759">
<time>2016-10-06T12:09:40Z</time></trkpt>
<trkpt lat="23.933833" lon="111.847659">
<time>2016-10-06T12:09:41Z</time></trkpt>
<trkpt lat="23.934837" lon="111.843561">
<time>2016-10-06T12:09:42Z</time></trkpt>
<trkpt lat="23.934876" lon="111.84337">
<time>2016-10-06T12:09:43Z</time></trkpt>
<trkpt lat="23.934896" lon="111.84327">
<time>2016-10-06T12:09:44Z</time></trkpt>
<trkpt lat="23.934916" lon="111.84318">
<time>2016-10-06T12:09:45Z</time></trkpt>
<trkpt lat="23.934926" lon="111.84308">
<time>2016-10-06T12:09:46Z</time></trkpt>
<trkpt lat="23.934936" lon="111.842979">
<time>2016-10-06T12:09:47Z</time></trkpt>
<trkpt lat="23.934936" lon="111.842879">
<time>2016-10-06T12:09:48Z</time></trkpt>
<trkpt lat="23.934945" lon="111.842779">
<time>2016-10-06T12:09:49Z</time></trkpt>
<trkpt lat="23.934945" lon="111.842679">
<time>2016-10-06T12:09:50Z</time></trkpt>
<trkpt lat="23.934935" lon="111.842579">
<time>2016-10-06T12:09:51Z</time></trkpt>
<trkpt lat="23.934925" lon="111.842478">
<time>2016-10-06T12:09:52Z</time></trkpt>
<trkpt lat="23.934915" lon="111.842378">
<time>2016-10-06T12:09:53Z</time></trkpt>
<trkpt lat="23.934894" lon="111.842278">
<time>2016-10-06T12:09:54Z</time></trkpt>
<trkpt lat="23.934874" lon="111.842178">
<time>2016-10-06T12:09:55Z</time></trkpt>
<trkpt lat="23.934854" lon="111.842088">
<time>2016-10-06T12:09:56Z</time></trkpt>
<trkpt lat="23.934824" lon="111.841988">
<time>2016-10-06T12:09:57Z</time></trkpt>
<trkpt lat="23.934794" lon="111.841897">
<time>2016-10-06T12:09:58Z</time></trkpt>
<trkpt lat="23.934764" lon="111.841807">
<time>2016-10-06T12:09:59Z</time></trkpt>
<trkpt lat="23.934723" lon="111.841707">
<time>2016-10-06T12:10:00Z</time></trkpt>
<trkpt lat="23.934683" lon="111.841617">
<time>2016-10-06T12:10:01Z</time></trkpt>
<trkpt lat="23.934643" lon="111.841537">
<time>2016-10-06T12:10:02Z</time></trkpt>
<trkpt lat="23.934593" lon="111.841446">
<time>2016-10-06T12:10:03Z</time></trkpt>
<trkpt lat="23.934553" lon="111.841356">
<time>2016-10-06T12:10:04Z</time></trkpt>
<trkpt lat="23.934503" lon="111.841276">
<time>2016-10-06T12:10:05Z</time></trkpt>
<trkpt lat="23.934392" lon="111.841106">
<time>2016-10-06T12:10:06Z</time></trkpt>
<trkpt lat="23.93379" lon="111.840234">
<time>2016-10-06T12:10:07Z</time></trkpt>
<trkpt lat="23.93369" lon="111.840064">
<time>2016-10-06T12:10:08Z</time></trkpt>
<trkpt lat="23.93364" lon="111.839984">
<time>2016-10-06T12:10:09Z</time></trkpt>
<trkpt lat="23.93359" lon="111.839893">
<time>2016-10-06T12:10:10Z</time></trkpt>
<trkpt lat="23.93355" lon="111.839813">
<time>2016-10-06T12:10:11Z</time></trkpt>
<trkpt lat="23.933519" lon="111.839723">
<time>2016-10-06T12:10:12Z</time></trkpt>
<trkpt lat="23.933499" lon="111.839623">
<time>2016-10-06T12:10:13Z</time></trkpt>
<trkpt lat="23.933489" lon="111.839533">
<time>2016-10-06T12:10:14Z</time></trkpt>
<trkpt lat="23.933479" lon="111.839432">
<time>2016-10-06T12:10:15Z</time></trkpt>
<trkpt lat="23.933489" lon="111.839342">
<time>2016-10-06T12:10:16Z</time></trkpt>
<trkpt lat="23.933519" lon="111.839252">
<time>2016-10-06T12:10:17Z</time></trkpt>
<trkpt lat="23.933548" lon="111.839162">
<time>2016-10-06T12:10:18Z</time></trkpt>
<trkpt lat="23.933588" lon="111.839072">
<time>2016-10-06T12:10:19Z</time></trkpt>
<trkpt lat="23.933628" lon="111.838992">
<time>2016-10-06T12:10:20Z</time></trkpt>
<trkpt lat="23.933688" lon="111.838921">
<time>2016-10-06T12:10:21Z</time></trkpt>
<trkpt lat="23.933738" lon="111.838841">
<time>2016-10-06T12:10:22Z</time></trkpt>
<trkpt lat="23.933798" lon="111.838771">
<time>2016-10-06T12:10:23Z</time></trkpt>
<trkpt lat="23.933918" lon="111.838621">
<time>2016-10-06T12:10:24Z</time></trkpt>
<trkpt lat="23.934507" lon="111.837979">
<time>2016-10-06T12:10:25Z</time></trkpt>
<trkpt lat="23.934626" lon="111.837829">
<time>2016-10-06T12:10:26Z</time></trkpt>
<trkpt lat="23.934696" lon="111.837759">
<time>2016-10-06T12:10:27Z</time></trkpt>
<trkpt lat="23.934756" lon="111.837679">
<time>2016-10-06T12:10:28Z</time></trkpt>
<trkpt lat="23.934806" lon="111.837599">
<time>2016-10-06T12:10:29Z</time></trkpt>
<trkpt lat="23.934866" lon="111.837518">
<time>2016-10-06T12:10:30Z</time></trkpt>
<trkpt lat="23.934906" lon="111.837428">
<time>2016-10-06T12:10:31Z</time></trkpt>
<trkpt lat="23.934956" lon="111.837338">
<time>2016-10-06T12:10:32Z</time></trkpt>
<trkpt lat="23.934986" lon="111.837238">
<time>2016-10-06T12:10:33Z</time></trkpt>
<trkpt lat="23.935005" lon="111.837148">
<time>2016-10-06T12:10:34Z</time></trkpt>
<trkpt lat="23.935025" lon="111.837047">
<time>2016-10-06T12:10:35Z</time></trkpt>
<trkpt lat="23.935035" lon="111.836947">
<time>2016-10-06T12:10:36Z</time></trkpt>
<trkpt lat="23.935045" lon="111.836847">
<time>2016-10-06T12:10:37Z</time></trkpt>
<trkpt lat="23.935035" lon="111.836747">
<time>2016-10-06T12:10:38Z</time></trkpt>
<trkpt lat="23.935025" lon="111.836647">
<time>2016-10-06T12:10:39Z</time></trkpt>
<trkpt lat="23.935004" lon="111.836546">
<time>2016-10-06T12:10:40Z</time></trkpt>
<trkpt lat="23.934984" lon="111.836446">
<time>2016-10-06T12:10:41Z</time></trkpt>
<trkpt lat="23.934954" lon="111.836356">
<time>2016-10-06T12:10:42Z</time></trkpt>
<trkpt lat="23.934924" lon="111.836266">
<time>2016-10-06T12:10:43Z</time></trkpt>
<trkpt lat="23.934894" lon="111.836166">
<time>2016-10-06T12:10:44Z</time></trkpt>
<trkpt lat="23.934853" lon="111.836075">
<time>2016-10-06T12:10:45Z</time></trkpt>
<trkpt lat="23.934813" lon="111.835985">
<time>2016-10-06T12:10:46Z</time></trkpt>
<trkpt lat="23.933759" lon="111.833771">
<time>2016-10-06T12:10:47Z</time></trkpt>
<trkpt lat="23.933719" lon="111.833681">
<time>2016-10-06T12:10:48Z</time></trkpt>
<trkpt lat="23.933678" lon="111.83359">
<time>2016-10-06T12:10:49Z</time></trkpt>
<trkpt lat="23.933648" lon="111.83349">
<time>2016-10-06T12:10:50Z</time></trkpt>
<trkpt lat="23.933628" lon="111.8334">
<time>2016-10-06T12:10:51Z</time></trkpt>
<trkpt lat="23.933608" lon="111.8333">
<time>2016-10-06T12:10:52Z</time></trkpt>
<trkpt lat="23.933608" lon="111.8332">
<time>2016-10-06T12:10:53Z</time></trkpt>
<trkpt lat="23.933607" lon="111.833109">
<time>2016-10-06T12:10:54Z</time></trkpt>
<trkpt lat="23.933617" lon="111.833009">
<time>2016-10-06T12:10:55Z</time></trkpt>
<trkpt lat="23.933637" lon="111.832919">
<time>2016-10-06T12:10:56Z</time></trkpt>
<trkpt lat="23.933667" lon="111.832829">
<time>2016-10-06T12:10:57Z</time></trkpt>
<trkpt lat="23.933707" lon="111.832749">
<time>2016-10-06T12:10:58Z</time></trkpt>
<trkpt lat="23.933747" lon="111.832668">
<time>2016-10-06T12:10:59Z</time></trkpt>
<trkpt lat="23.933797" lon="111.832588">
<time>2016-10-06T12:11:00Z</time></trkpt>
<trkpt lat="23.933856" lon="111.832518">
<time>2016-10-06T12:11:01Z</time></trkpt>
<trkpt lat="23.933916" lon="111.832448">
<time>2016-10-06T12:11:02Z</time></trkpt>
<trkpt lat="23.933976" lon="111.832378">
<time>2016-10-06T12:11:03Z</time></trkpt>
<trkpt lat="23.934106" lon="111.832238">
<time>2016-10-06T12:11:04Z</time></trkpt>
<trkpt lat="23.934575" lon="111.831787">
<time>2016-10-06T12:11:05Z</time></trkpt>
<trkpt lat="23.934845" lon="111.831516">
<time>2016-10-06T12:11:06Z</time></trkpt>
<trkpt lat="23.934915" lon="111.831436">
<time>2016-10-06T12:11:07Z</time></trkpt>
<trkpt lat="23.934975" lon="111.831366">
<time>2016-10-06T12:11:08Z</time></trkpt>
<trkpt lat="23.935035" lon="111.831285">
<time>2016-10-06T12:11:09Z</time></trkpt>
<trkpt lat="23.935134" lon="111.831115">
<time>2016-10-06T12:11:10Z</time></trkpt>
<trkpt lat="23.935184" lon="111.831025">
<time>2016-10-06T12:11:11Z</time></trkpt>
<trkpt lat="23.935214" lon="111.830935">
<time>2016-10-06T12:11:12Z</time></trkpt>
<trkpt lat="23.935234" lon="111.830845">
<time>2016-10-06T12:11:13Z</time></trkpt>
<trkpt lat="23.935254" lon="111.830744">
<time>2016-10-06T12:11:14Z</time></trkpt>
<trkpt lat="23.935264" lon="111.830634">
<time>2016-10-06T12:11:15Z</time></trkpt>
<trkpt lat="23.935253" lon="111.830534">
<time>2016-10-06T12:11:16Z</time></trkpt>
<trkpt lat="23.935243" lon="111.830434">
<time>2016-10-06T12:11:17Z</time></trkpt>
<trkpt lat="23.935223" lon="111.830333">
<time>2016-10-06T12:11:18Z</time></trkpt>
<trkpt lat="23.935203" lon="111.830243">
<time>2016-10-06T12:11:19Z</time></trkpt>
<trkpt lat="23.935163" lon="111.830143">
<time>2016-10-06T12:11:20Z</time></trkpt>
<trkpt lat="23.935122" lon="111.830063">
<time>2016-10-06T12:11:21Z</time></trkpt>
<trkpt lat="23.935072" lon="111.829973">
<time>2016-10-06T12:11:22Z</time></trkpt>
<trkpt lat="23.935022" lon="111.829893">
<time>2016-10-06T12:11:23Z</time></trkpt>
<trkpt lat="23.934972" lon="111.829812">
<time>2016-10-06T12:11:24Z</time></trkpt>
<trkpt lat="23.934912" lon="111.829732">
<time>2016-10-06T12:11:25Z</time></trkpt>
<trkpt lat="23.934731" lon="111.829512">
<time>2016-10-06T12:11:26Z</time></trkpt>
<trkpt lat="23.934611" lon="111.829371">
<time>2016-10-06T12:11:27Z</time></trkpt>
<trkpt lat="23.93414" lon="111.82878">
<time>2016-10-06T12:11:28Z</time></trkpt>
<trkpt lat="23.934029" lon="111.82863">
<time>2016-10-06T12:11:29Z</time></trkpt>
<trkpt lat="23.933919" lon="111.82847">
<time>2016-10-06T12:11:30Z</time></trkpt>
<trkpt lat="23.933819" lon="111.828309">
<time>2016-10-06T12:11:31Z</time></trkpt>
<trkpt lat="23.933718" lon="111.828139">
<time>2016-10-06T12:11:32Z</time></trkpt>
<trkpt lat="23.933668" lon="111.828059">
<time>2016-10-06T12:11:33Z</time></trkpt>
<trkpt lat="23.933618" lon="111.827969">
<time>2016-10-06T12:11:34Z</time></trkpt>
<trkpt lat="23.933578" lon="111.827888">
<time>2016-10-06T12:11:35Z</time></trkpt>
<trkpt lat="23.933457" lon="111.827628">
<time>2016-10-06T12:11:36Z</time></trkpt>
<trkpt lat="23.933377" lon="111.827447">
<time>2016-10-06T12:11:37Z</time></trkpt>
<trkpt lat="23.933306" lon="111.827277">
<time>2016-10-06T12:11:38Z</time></trkpt>
<trkpt lat="23.932643" lon="111.825433">
<time>2016-10-06T12:11:39Z</time></trkpt>
<trkpt lat="23.932582" lon="111.825243">
<time>2016-10-06T12:11:40Z</time></trkpt>
<trkpt lat="23.932532" lon="111.825052">
<time>2016-10-06T12:11:41Z</time></trkpt>
<trkpt lat="23.932512" lon="111.824962">
<time>2016-10-06T12:11:42Z</time></trkpt>
<trkpt lat="23.932492" lon="111.824862">
<time>2016-10-06T12:11:43Z</time></trkpt>
<trkpt lat="23.932471" lon="111.824762">
<time>2016-10-06T12:11:44Z</time></trkpt>
<trkpt lat="23.932461" lon="111.824662">
<time>2016-10-06T12:11:45Z</time></trkpt>
<trkpt lat="23.932461" lon="111.824561">
<time>2016-10-06T12:11:46Z</time></trkpt>
<trkpt lat="23.932461" lon="111.824471">
<time>2016-10-06T12:11:47Z</time></trkpt>
<trkpt lat="23.932461" lon="111.824371">
<time>2016-10-06T12:11:48Z</time></trkpt>
<trkpt lat="23.93247" lon="111.824271">
<time>2016-10-06T12:11:49Z</time></trkpt>
<trkpt lat="23.93248" lon="111.824171">
<time>2016-10-06T12:11:50Z</time></trkpt>
<trkpt lat="23.93249" lon="111.82408">
<time>2016-10-06T12:11:51Z</time></trkpt>
<trkpt lat="23.93251" lon="111.82398">
<time>2016-10-06T12:11:52Z</time></trkpt>
<trkpt lat="23.93254" lon="111.82389">
<time>2016-10-06T12:11:53Z</time></trkpt>
<trkpt lat="23.93256" lon="111.8238">
<time>2016-10-06T12:11:54Z</time></trkpt>
<trkpt lat="23.932599" lon="111.82371">
<time>2016-10-06T12:11:55Z</time></trkpt>
<trkpt lat="23.932629" lon="111.823619">
<time>2016-10-06T12:11:56Z</time></trkpt>
<trkpt lat="23.932699" lon="111.823449">
<time>2016-10-06T12:11:57Z</time></trkpt>
<trkpt lat="23.933506" lon="111.821795">
<time>2016-10-06T12:11:58Z</time></trkpt>
<trkpt lat="23.933646" lon="111.821535">
<time>2016-10-06T12:11:59Z</time></trkpt>
<trkpt lat="23.933696" lon="111.821445">
<time>2016-10-06T12:12:00Z</time></trkpt>
<trkpt lat="23.933735" lon="111.821354">
<time>2016-10-06T12:12:01Z</time></trkpt>
<trkpt lat="23.933785" lon="111.821274">
<time>2016-10-06T12:12:02Z</time></trkpt>
<trkpt lat="23.933845" lon="111.821194">
<time>2016-10-06T12:12:03Z</time></trkpt>
<trkpt lat="23.933895" lon="111.821114">
<time>2016-10-06T12:12:04Z</time></trkpt>
<trkpt lat="23.933955" lon="111.821034">
<time>2016-10-06T12:12:05Z</time></trkpt>
<trkpt lat="23.934005" lon="111.820964">
<time>2016-10-06T12:12:06Z</time></trkpt>
<trkpt lat="23.934065" lon="111.820883">
<time>2016-10-06T12:12:07Z</time></trkpt>
<trkpt lat="23.934125" lon="111.820813">
<time>2016-10-06T12:12:08Z</time></trkpt>
<trkpt lat="23.934184" lon="111.820743">
<time>2016-10-06T12:12:09Z</time></trkpt>
<trkpt lat="23.934254" lon="111.820673">
<time>2016-10-06T12:12:10Z</time></trkpt>
<trkpt lat="23.934384" lon="111.820533">
<time>2016-10-06T12:12:11Z</time></trkpt>
<trkpt lat="23.934943" lon="111.820012">
<time>2016-10-06T12:12:12Z</time></trkpt>
<trkpt lat="23.935003" lon="111.819941">
<time>2016-10-06T12:12:13Z</time></trkpt>
<trkpt lat="23.935073" lon="111.819871">
<time>2016-10-06T12:12:14Z</time></trkpt>
<trkpt lat="23.935143" lon="111.819801">
<time>2016-10-06T12:12:15Z</time></trkpt>
<trkpt lat="23.935203" lon="111.819721">
<time>2016-10-06T12:12:16Z</time></trkpt>
<trkpt lat="23.935263" lon="111.819651">
<time>2016-10-06T12:12:17Z</time></trkpt>
<trkpt lat="23.935313" lon="111.819571">
<time>2016-10-06T12:12:18Z</time></trkpt>
<trkpt lat="23.935373" lon="111.81949">
<time>2016-10-06T12:12:19Z</time></trkpt>
<trkpt lat="23.935472" lon="111.81933">
<time>2016-10-06T12:12:20Z</time></trkpt>
<trkpt lat="23.935622" lon="111.81908">
<time>2016-10-06T12:12:21Z</time></trkpt>
<trkpt lat="23.93623" lon="111.817987">
<time>2016-10-06T12:12:22Z</time></trkpt>
<trkpt lat="23.93628" lon="111.817897">
<time>2016-10-06T12:12:23Z</time></trkpt>
<trkpt lat="23.93633" lon="111.817827">
<time>2016-10-06T12:12:24Z</time></trkpt>
<trkpt lat="23.93639" lon="111.817747">
<time>2016-10-06T12:12:25Z</time></trkpt>
<trkpt lat="23.93644" lon="111.817677">
<time>2016-10-06T12:12:26Z</time></trkpt>
<trkpt lat="23.936499" lon="111.817596">
<time>2016-10-06T12:12:27Z</time></trkpt>
<trkpt lat="23.936559" lon="111.817526">
<time>2016-10-06T12:12:28Z</time></trkpt>
<trkpt lat="23.936629" lon="111.817456">
<time>2016-10-06T12:12:29Z</time></trkpt>
<trkpt lat="23.936689" lon="111.817386">
<time>2016-10-06T12:12:30Z</time></trkpt>
<trkpt lat="23.936759" lon="111.817326">
<time>2016-10-06T12:12:31Z</time></trkpt>
<trkpt lat="23.936829" lon="111.817266">
<time>2016-10-06T12:12:32Z</time></trkpt>
<trkpt lat="23.936899" lon="111.817205">
<time>2016-10-06T12:12:33Z</time></trkpt>
<trkpt lat="23.936979" lon="111.817155">
<time>2016-10-06T12:12:34Z</time></trkpt>
<trkpt lat="23.937049" lon="111.817105">
<time>2016-10-06T12:12:35Z</time></trkpt>
<trkpt lat="23.937129" lon="111.817055">
<time>2016-10-06T12:12:36Z</time></trkpt>
<trkpt lat="23.937209" lon="111.817005">
<time>2016-10-06T12:12:37Z</time></trkpt>
<trkpt lat="23.937778" lon="111.816694">
<time>2016-10-06T12:12:38Z</time></trkpt>
<trkpt lat="23.937858" lon="111.816644">
<time>2016-10-06T12:12:39Z</time></trkpt>
<trkpt lat="23.937938" lon="111.816594">
<time>2016-10-06T12:12:40Z</time></trkpt>
<trkpt lat="23.938018" lon="111.816534">
<time>2016-10-06T12:12:41Z</time></trkpt>
<trkpt lat="23.938088" lon="111.816474">
<time>2016-10-06T12:12:42Z</time></trkpt>
<trkpt lat="23.938158" lon="111.816414">
<time>2016-10-06T12:12:43Z</time></trkpt>
<trkpt lat="23.938218" lon="111.816334">
<time>2016-10-06T12:12:44Z</time></trkpt>
<trkpt lat="23.938278" lon="111.816263">
<time>2016-10-06T12:12:45Z</time></trkpt>
<trkpt lat="23.938328" lon="111.816173">
<time>2016-10-06T12:12:46Z</time></trkpt>
<trkpt lat="23.938377" lon="111.816093">
<time>2016-10-06T12:12:47Z</time></trkpt>
<trkpt lat="23.938417" lon="111.816003">
<time>2016-10-06T12:12:48Z</time></trkpt>
<trkpt lat="23.938447" lon="111.815913">
<time>2016-10-06T12:12:49Z</time></trkpt>
<trkpt lat="23.938477" lon="111.815812">
<time>2016-10-06T12:12:50Z</time></trkpt>
<trkpt lat="23.938497" lon="111.815722">
<time>2016-10-06T12:12:51Z</time></trkpt>
<trkpt lat="23.938507" lon="111.815632">
<time>2016-10-06T12:12:52Z</time></trkpt>
<trkpt lat="23.938506" lon="111.815532">
<time>2016-10-06T12:12:53Z</time></trkpt>
<trkpt lat="23.938506" lon="111.815442">
<time>2016-10-06T12:12:54Z</time></trkpt>
<trkpt lat="23.938496" lon="111.815351">
<time>2016-10-06T12:12:55Z</time></trkpt>
<trkpt lat="23.938486" lon="111.815251">
<time>2016-10-06T12:12:56Z</time></trkpt>
<trkpt lat="23.938476" lon="111.815161">
<time>2016-10-06T12:12:57Z</time></trkpt>
<trkpt lat="23.938456" lon="111.815061">
<time>2016-10-06T12:12:58Z</time></trkpt>
<trkpt lat="23.938042" lon="111.813438">
<time>2016-10-06T12:12:59Z</time></trkpt>
<trkpt lat="23.937962" lon="111.813157">
<time>2016-10-06T12:13:00Z</time></trkpt>
<trkpt lat="23.937559" lon="111.811834">
<time>2016-10-06T12:13:01Z</time></trkpt>
<trkpt lat="23.937458" lon="111.811453">
<time>2016-10-06T12:13:02Z</time></trkpt>
<trkpt lat="23.937408" lon="111.811263">
<time>2016-10-06T12:13:03Z</time></trkpt>
<trkpt lat="23.937378" lon="111.811073">
<time>2016-10-06T12:13:04Z</time></trkpt>
<trkpt lat="23.937358" lon="111.810972">
<time>2016-10-06T12:13:05Z</time></trkpt>
<trkpt lat="23.937317" lon="111.810682">
<time>2016-10-06T12:13:06Z</time></trkpt>
<trkpt lat="23.937297" lon="111.810491">
<time>2016-10-06T12:13:07Z</time></trkpt>
<trkpt lat="23.937286" lon="111.810391">
<time>2016-10-06T12:13:08Z</time></trkpt>
<trkpt lat="23.937276" lon="111.810301">
<time>2016-10-06T12:13:09Z</time></trkpt>
<trkpt lat="23.937266" lon="111.810101">
<time>2016-10-06T12:13:10Z</time></trkpt>
<trkpt lat="23.937265" lon="111.80981">
<time>2016-10-06T12:13:11Z</time></trkpt>
<trkpt lat="23.937275" lon="111.809509">
<time>2016-10-06T12:13:12Z</time></trkpt>
<trkpt lat="23.937284" lon="111.809309">
<time>2016-10-06T12:13:13Z</time></trkpt>
<trkpt lat="23.937294" lon="111.809209">
<time>2016-10-06T12:13:14Z</time></trkpt>
<trkpt lat="23.937304" lon="111.809109">
<time>2016-10-06T12:13:15Z</time></trkpt>
<trkpt lat="23.937334" lon="111.808908">
<time>2016-10-06T12:13:16Z</time></trkpt>
<trkpt lat="23.937354" lon="111.808808">
<time>2016-10-06T12:13:17Z</time></trkpt>
<trkpt lat="23.937363" lon="111.808718">
<time>2016-10-06T12:13:18Z</time></trkpt>
<trkpt lat="23.937383" lon="111.808618">
<time>2016-10-06T12:13:19Z</time></trkpt>
<trkpt lat="23.937433" lon="111.808427">
<time>2016-10-06T12:13:20Z</time></trkpt>
<trkpt lat="23.937751" lon="111.807175">
<time>2016-10-06T12:13:21Z</time></trkpt>
<trkpt lat="23.937781" lon="111.807075">
<time>2016-10-06T12:13:22Z</time></trkpt>
<trkpt lat="23.9378" lon="111.806974">
<time>2016-10-06T12:13:23Z</time></trkpt>
<trkpt lat="23.93781" lon="111.806874">
<time>2016-10-06T12:13:24Z</time></trkpt>
<trkpt lat="23.93783" lon="111.806774">
<time>2016-10-06T12:13:25Z</time></trkpt>
<trkpt lat="23.93784" lon="111.806674">
<time>2016-10-06T12:13:26Z</time></trkpt>
<trkpt lat="23.93785" lon="111.806574">
<time>2016-10-06T12:13:27Z</time></trkpt>
<trkpt lat="23.93785" lon="111.806473">
<time>2016-10-06T12:13:28Z</time></trkpt>
<trkpt lat="23.937859" lon="111.806373">
<time>2016-10-06T12:13:29Z</time></trkpt>
<trkpt lat="23.937859" lon="111.806273">
<time>2016-10-06T12:13:30Z</time></trkpt>
<trkpt lat="23.937849" lon="111.806163">
<time>2016-10-06T12:13:31Z</time></trkpt>
<trkpt lat="23.937839" lon="111.806063">
<time>2016-10-06T12:13:32Z</time></trkpt>
<trkpt lat="23.937829" lon="111.805962">
<time>2016-10-06T12:13:33Z</time></trkpt>
<trkpt lat="23.937808" lon="111.805862">
<time>2016-10-06T12:13:34Z</time></trkpt>
<trkpt lat="23.937778" lon="111.805762">
<time>2016-10-06T12:13:35Z</time></trkpt>
<trkpt lat="23.937748" lon="111.805672">
<time>2016-10-06T12:13:36Z</time></trkpt>
<trkpt lat="23.937718" lon="111.805572">
<time>2016-10-06T12:13:37Z</time></trkpt>
<trkpt lat="23.937688" lon="111.805481">
<time>2016-10-06T12:13:38Z</time></trkpt>
<trkpt lat="23.937648" lon="111.805391">
<time>2016-10-06T12:13:39Z</time></trkpt>
<trkpt lat="23.937597" lon="111.805301">
<time>2016-10-06T12:13:40Z</time></trkpt>
<trkpt lat="23.937557" lon="111.805211">
<time>2016-10-06T12:13:41Z</time></trkpt>
<trkpt lat="23.937507" lon="111.805121">
<time>2016-10-06T12:13:42Z</time></trkpt>
<trkpt lat="23.937457" lon="111.80504">
<time>2016-10-06T12:13:43Z</time></trkpt>
<trkpt lat="23.937397" lon="111.80496">
<time>2016-10-06T12:13:44Z</time></trkpt>
<trkpt lat="23.937347" lon="111.80487">
<time>2016-10-06T12:13:45Z</time></trkpt>
<trkpt lat="23.937056" lon="111.804479">
<time>2016-10-06T12:13:46Z</time></trkpt>
<trkpt lat="23.937006" lon="111.804399">
<time>2016-10-06T12:13:47Z</time></trkpt>
<trkpt lat="23.936955" lon="111.804319">
<time>2016-10-06T12:13:48Z</time></trkpt>
<trkpt lat="23.936905" lon="111.804239">
<time>2016-10-06T12:13:49Z</time></trkpt>
<trkpt lat="23.936855" lon="111.804159">
<time>2016-10-06T12:13:50Z</time></trkpt>
<trkpt lat="23.936805" lon="111.804079">
<time>2016-10-06T12:13:51Z</time></trkpt>
<trkpt lat="23.936765" lon="111.803988">
<time>2016-10-06T12:13:52Z</time></trkpt>
<trkpt lat="23.936715" lon="111.803898">
<time>2016-10-06T12:13:53Z</time></trkpt>
<trkpt lat="23.936674" lon="111.803798">
<time>2016-10-06T12:13:54Z</time></trkpt>
<trkpt lat="23.936634" lon="111.803708">
<time>2016-10-06T12:13:55Z</time></trkpt>
<trkpt lat="23.936604" lon="111.803618">
<time>2016-10-06T12:13:56Z</time></trkpt>
<trkpt lat="23.936574" lon="111.803518">
<time>2016-10-06T12:13:57Z</time></trkpt>
<trkpt lat="23.936544" lon="111.803417">
<time>2016-10-06T12:13:58Z</time></trkpt>
<trkpt lat="23.936523" lon="111.803327">
<time>2016-10-06T12:13:59Z</time></trkpt>
<trkpt lat="23.936503" lon="111.803227">
<time>2016-10-06T12:14:00Z</time></trkpt>
<trkpt lat="23.936493" lon="111.803127">
<time>2016-10-06T12:14:01Z</time></trkpt>
<trkpt lat="23.936218" lon="111.799991">
<time>2016-10-06T12:14:02Z</time></trkpt>
<trkpt lat="23.936218" lon="111.799951">
<time>2016-10-06T12:14:03Z</time></trkpt>
<trkpt lat="23.936197" lon="111.79959">
<time>2016-10-06T12:14:04Z</time></trkpt>
<trkpt lat="23.936074" lon="111.798087">
<time>2016-10-06T12:14:05Z</time></trkpt>
<trkpt lat="23.936054" lon="111.797586">
<time>2016-10-06T12:14:06Z</time></trkpt>
<trkpt lat="23.936053" lon="111.797486">
<time>2016-10-06T12:14:07Z</time></trkpt>
<trkpt lat="23.936053" lon="111.797386">
<time>2016-10-06T12:14:08Z</time></trkpt>
<trkpt lat="23.936053" lon="111.797286">
<time>2016-10-06T12:14:09Z</time></trkpt>
<trkpt lat="23.936063" lon="111.797196">
<time>2016-10-06T12:14:10Z</time></trkpt>
<trkpt lat="23.936073" lon="111.797095">
<time>2016-10-06T12:14:11Z</time></trkpt>
<trkpt lat="23.936083" lon="111.796995">
<time>2016-10-06T12:14:12Z</time></trkpt>
<trkpt lat="23.936102" lon="111.796895">
<time>2016-10-06T12:14:13Z</time></trkpt>
<trkpt lat="23.936122" lon="111.796805">
<time>2016-10-06T12:14:14Z</time></trkpt>
<trkpt lat="23.936162" lon="111.796615">
<time>2016-10-06T12:14:15Z</time></trkpt>
<trkpt lat="23.936242" lon="111.796334">
<time>2016-10-06T12:14:16Z</time></trkpt>
<trkpt lat="23.937098" lon="111.793579">
<time>2016-10-06T12:14:17Z</time></trkpt>
<trkpt lat="23.937127" lon="111.793489">
<time>2016-10-06T12:14:18Z</time></trkpt>
<trkpt lat="23.937157" lon="111.793399">
<time>2016-10-06T12:14:19Z</time></trkpt>
<trkpt lat="23.937197" lon="111.793309">
<time>2016-10-06T12:14:20Z</time></trkpt>
<trkpt lat="23.937217" lon="111.793279">
<time>2016-10-06T12:14:21Z</time></trkpt>
<trkpt lat="23.937237" lon="111.793228">
<time>2016-10-06T12:14:22Z</time></trkpt>
<trkpt lat="23.937287" lon="111.793148">
<time>2016-10-06T12:14:23Z</time></trkpt>
<trkpt lat="23.937347" lon="111.793068">
<time>2016-10-06T12:14:24Z</time></trkpt>
<trkpt lat="23.937397" lon="111.792998">
<time>2016-10-06T12:14:25Z</time></trkpt>
<trkpt lat="23.937457" lon="111.792928">
<time>2016-10-06T12:14:26Z</time></trkpt>
<trkpt lat="23.937517" lon="111.792858">
<time>2016-10-06T12:14:27Z</time></trkpt>
<trkpt lat="23.937587" lon="111.792798">
<time>2016-10-06T12:14:28Z</time></trkpt>
<trkpt lat="23.937656" lon="111.792738">
<time>2016-10-06T12:14:29Z</time></trkpt>
<trkpt lat="23.937726" lon="111.792677">
<time>2016-10-06T12:14:30Z</time></trkpt>
<trkpt lat="23.937806" lon="111.792627">
<time>2016-10-06T12:14:31Z</time></trkpt>
<trkpt lat="23.937876" lon="111.792577">
<time>2016-10-06T12:14:32Z</time></trkpt>
<trkpt lat="23.937956" lon="111.792537">
<time>2016-10-06T12:14:33Z</time></trkpt>
<trkpt lat="23.938036" lon="111.792487">
<time>2016-10-06T12:14:34Z</time></trkpt>
<trkpt lat="23.938206" lon="111.792407">
<time>2016-10-06T12:14:35Z</time></trkpt>
<trkpt lat="23.940076" lon="111.791575">
<time>2016-10-06T12:14:36Z</time></trkpt>
<trkpt lat="23.940326" lon="111.791455">
<time>2016-10-06T12:14:37Z</time></trkpt>
<trkpt lat="23.940665" lon="111.791285">
<time>2016-10-06T12:14:38Z</time></trkpt>
<trkpt lat="23.940975" lon="111.791115">
<time>2016-10-06T12:14:39Z</time></trkpt>
<trkpt lat="23.940995" lon="111.791095">
<time>2016-10-06T12:14:40Z</time></trkpt>
<trkpt lat="23.941135" lon="111.791014">
<time>2016-10-06T12:14:41Z</time></trkpt>
<trkpt lat="23.941215" lon="111.790964">
<time>2016-10-06T12:14:42Z</time></trkpt>
<trkpt lat="23.941285" lon="111.790914">
<time>2016-10-06T12:14:43Z</time></trkpt>
<trkpt lat="23.941805" lon="111.790524">
<time>2016-10-06T12:14:44Z</time></trkpt>
<trkpt lat="23.942025" lon="111.790343">
<time>2016-10-06T12:14:45Z</time></trkpt>
<trkpt lat="23.942244" lon="111.790163">
<time>2016-10-06T12:14:46Z</time></trkpt>
<trkpt lat="23.942384" lon="111.790033">
<time>2016-10-06T12:14:47Z</time></trkpt>
<trkpt lat="23.943543" lon="111.788901">
<time>2016-10-06T12:14:48Z</time></trkpt>
<trkpt lat="23.943953" lon="111.78851">
<time>2016-10-06T12:14:49Z</time></trkpt>
<trkpt lat="23.944023" lon="111.78845">
<time>2016-10-06T12:14:50Z</time></trkpt>
<trkpt lat="23.944083" lon="111.78838">
<time>2016-10-06T12:14:51Z</time></trkpt>
<trkpt lat="23.944212" lon="111.78824">
<time>2016-10-06T12:14:52Z</time></trkpt>
<trkpt lat="23.944272" lon="111.78817">
<time>2016-10-06T12:14:53Z</time></trkpt>
<trkpt lat="23.944342" lon="111.788109">
<time>2016-10-06T12:14:54Z</time></trkpt>
<trkpt lat="23.944412" lon="111.788049">
<time>2016-10-06T12:14:55Z</time></trkpt>
<trkpt lat="23.944482" lon="111.787989">
<time>2016-10-06T12:14:56Z</time></trkpt>
<trkpt lat="23.944552" lon="111.787929">
<time>2016-10-06T12:14:57Z</time></trkpt>
<trkpt lat="23.944622" lon="111.787869">
<time>2016-10-06T12:14:58Z</time></trkpt>
<trkpt lat="23.944702" lon="111.787809">
<time>2016-10-06T12:14:59Z</time></trkpt>
<trkpt lat="23.944772" lon="111.787759">
<time>2016-10-06T12:15:00Z</time></trkpt>
<trkpt lat="23.944852" lon="111.787709">
<time>2016-10-06T12:15:01Z</time></trkpt>
<trkpt lat="23.944932" lon="111.787659">
<time>2016-10-06T12:15:02Z</time></trkpt>
<trkpt lat="23.945012" lon="111.787609">
<time>2016-10-06T12:15:03Z</time></trkpt>
<trkpt lat="23.945102" lon="111.787559">
<time>2016-10-06T12:15:04Z</time></trkpt>
<trkpt lat="23.945182" lon="111.787518">
<time>2016-10-06T12:15:05Z</time></trkpt>
<trkpt lat="23.945272" lon="111.787478">
<time>2016-10-06T12:15:06Z</time></trkpt>
<trkpt lat="23.945352" lon="111.787438">
<time>2016-10-06T12:15:07Z</time></trkpt>
<trkpt lat="23.945432" lon="111.787398">
<time>2016-10-06T12:15:08Z</time></trkpt>
<trkpt lat="23.945522" lon="111.787368">
<time>2016-10-06T12:15:09Z</time></trkpt>
<trkpt lat="23.945602" lon="111.787338">
<time>2016-10-06T12:15:10Z</time></trkpt>
<trkpt lat="23.945692" lon="111.787308">
<time>2016-10-06T12:15:11Z</time></trkpt>
<trkpt lat="23.945782" lon="111.787278">
<time>2016-10-06T12:15:12Z</time></trkpt>
<trkpt lat="23.945872" lon="111.787248">
<time>2016-10-06T12:15:13Z</time></trkpt>
<trkpt lat="23.945962" lon="111.787228">
<time>2016-10-06T12:15:14Z</time></trkpt>
<trkpt lat="23.946052" lon="111.787208">
<time>2016-10-06T12:15:15Z</time></trkpt>
<trkpt lat="23.946142" lon="111.787198">
<time>2016-10-06T12:15:16Z</time></trkpt>
<trkpt lat="23.946412" lon="111.787158">
<time>2016-10-06T12:15:17Z</time></trkpt>
<trkpt lat="23.946502" lon="111.787148">
<time>2016-10-06T12:15:18Z</time></trkpt>
<trkpt lat="23.946592" lon="111.787138">
<time>2016-10-06T12:15:19Z</time></trkpt>
<trkpt lat="23.946682" lon="111.787138">
<time>2016-10-06T12:15:20Z</time></trkpt>
<trkpt lat="23.946762" lon="111.787138">
<time>2016-10-06T12:15:21Z</time></trkpt>
<trkpt lat="23.947292" lon="111.787138">
<time>2016-10-06T12:15:22Z</time></trkpt>
<trkpt lat="23.948853" lon="111.787098">
<time>2016-10-06T12:15:23Z</time></trkpt>
<trkpt lat="23.949133" lon="111.787077">
<time>2016-10-06T12:15:24Z</time></trkpt>
<trkpt lat="23.949313" lon="111.787067">
<time>2016-10-06T12:15:25Z</time></trkpt>
<trkpt lat="23.949403" lon="111.787057">
<time>2016-10-06T12:15:26Z</time></trkpt>
<trkpt lat="23.949493" lon="111.787047">
<time>2016-10-06T12:15:27Z</time></trkpt>
<trkpt lat="23.949583" lon="111.787037">
<time>2016-10-06T12:15:28Z</time></trkpt>
<trkpt lat="23.949673" lon="111.787017">
<time>2016-10-06T12:15:29Z</time></trkpt>
<trkpt lat="23.949763" lon="111.786997">
<time>2016-10-06T12:15:30Z</time></trkpt>
<trkpt lat="23.949853" lon="111.786977">
<time>2016-10-06T12:15:31Z</time></trkpt>
<trkpt lat="23.949943" lon="111.786957">
<time>2016-10-06T12:15:32Z</time></trkpt>
<trkpt lat="23.950033" lon="111.786927">
<time>2016-10-06T12:15:33Z</time></trkpt>
<trkpt lat="23.950123" lon="111.786897">
<time>2016-10-06T12:15:34Z</time></trkpt>
<trkpt lat="23.950213" lon="111.786867">
<time>2016-10-06T12:15:35Z</time></trkpt>
<trkpt lat="23.950293" lon="111.786827">
<time>2016-10-06T12:15:36Z</time></trkpt>
<trkpt lat="23.950383" lon="111.786787">
<time>2016-10-06T12:15:37Z</time></trkpt>
<trkpt lat="23.950463" lon="111.786747">
<time>2016-10-06T12:15:38Z</time></trkpt>
<trkpt lat="23.950543" lon="111.786707">
<time>2016-10-06T12:15:39Z</time></trkpt>
<trkpt lat="23.950623" lon="111.786657">
<time>2016-10-06T12:15:40Z</time></trkpt>
<trkpt lat="23.950703" lon="111.786607">
<time>2016-10-06T12:15:41Z</time></trkpt>
<trkpt lat="23.950783" lon="111.786547">
<time>2016-10-06T12:15:42Z</time></trkpt>
<trkpt lat="23.950853" lon="111.786486">
<time>2016-10-06T12:15:43Z</time></trkpt>
<trkpt lat="23.950922" lon="111.786426">
<time>2016-10-06T12:15:44Z</time></trkpt>
<trkpt lat="23.950992" lon="111.786366">
<time>2016-10-06T12:15:45Z</time></trkpt>
<trkpt lat="23.951062" lon="111.786306">
<time>2016-10-06T12:15:46Z</time></trkpt>
<trkpt lat="23.951132" lon="111.786236">
<time>2016-10-06T12:15:47Z</time></trkpt>
<trkpt lat="23.951192" lon="111.786166">
<time>2016-10-06T12:15:48Z</time></trkpt>
<trkpt lat="23.951262" lon="111.786096">
<time>2016-10-06T12:15:49Z</time></trkpt>
<trkpt lat="23.951322" lon="111.786016">
<time>2016-10-06T12:15:50Z</time></trkpt>
<trkpt lat="23.951372" lon="111.785936">
<time>2016-10-06T12:15:51Z</time></trkpt>
<trkpt lat="23.951432" lon="111.785855">
<time>2016-10-06T12:15:52Z</time></trkpt>
<trkpt lat="23.951482" lon="111.785775">
<time>2016-10-06T12:15:53Z</time></trkpt>
<trkpt lat="23.951532" lon="111.785695">
<time>2016-10-06T12:15:54Z</time></trkpt>
<trkpt lat="23.951582" lon="111.785615">
<time>2016-10-06T12:15:55Z</time></trkpt>
<trkpt lat="23.951751" lon="111.785264">
<time>2016-10-06T12:15:56Z</time></trkpt>
<trkpt lat="23.951801" lon="111.785184">
<time>2016-10-06T12:15:57Z</time></trkpt>
<trkpt lat="23.951911" lon="111.784914">
<time>2016-10-06T12:15:58Z</time></trkpt>
<trkpt lat="23.95228" lon="111.784023">
<time>2016-10-06T12:15:59Z</time></trkpt>
<trkpt lat="23.95236" lon="111.783842">
<time>2016-10-06T12:16:00Z</time></trkpt>
<trkpt lat="23.952399" lon="111.783752">
<time>2016-10-06T12:16:01Z</time></trkpt>
<trkpt lat="23.952439" lon="111.783662">
<time>2016-10-06T12:16:02Z</time></trkpt>
<trkpt lat="23.952489" lon="111.783582">
<time>2016-10-06T12:16:03Z</time></trkpt>
<trkpt lat="23.952529" lon="111.783492">
<time>2016-10-06T12:16:04Z</time></trkpt>
<trkpt lat="23.952579" lon="111.783412">
<time>2016-10-06T12:16:05Z</time></trkpt>
<trkpt lat="23.952629" lon="111.783322">
<time>2016-10-06T12:16:06Z</time></trkpt>
<trkpt lat="23.952689" lon="111.783231">
<time>2016-10-06T12:16:07Z</time></trkpt>
<trkpt lat="23.952749" lon="111.783141">
<time>2016-10-06T12:16:08Z</time></trkpt>
<trkpt lat="23.952799" lon="111.783071">
<time>2016-10-06T12:16:09Z</time></trkpt>
<trkpt lat="23.952849" lon="111.783011">
<time>2016-10-06T12:16:10Z</time></trkpt>
<trkpt lat="23.952909" lon="111.782931">
<time>2016-10-06T12:16:11Z</time></trkpt>
<trkpt lat="23.952968" lon="111.782861">
<time>2016-10-06T12:16:12Z</time></trkpt>
<trkpt lat="23.953028" lon="111.782791">
<time>2016-10-06T12:16:13Z</time></trkpt>
<trkpt lat="23.953098" lon="111.782721">
<time>2016-10-06T12:16:14Z</time></trkpt>
<trkpt lat="23.953158" lon="111.782651">
<time>2016-10-06T12:16:15Z</time></trkpt>
<trkpt lat="23.953228" lon="111.78259">
<time>2016-10-06T12:16:16Z</time></trkpt>
<trkpt lat="23.953298" lon="111.78253">
<time>2016-10-06T12:16:17Z</time></trkpt>
<trkpt lat="23.953378" lon="111.78247">
<time>2016-10-06T12:16:18Z</time></trkpt>
<trkpt lat="23.953448" lon="111.78242">
<time>2016-10-06T12:16:19Z</time></trkpt>
<trkpt lat="23.953518" lon="111.78236">
<time>2016-10-06T12:16:20Z</time></trkpt>
<trkpt lat="23.953598" lon="111.78231">
<time>2016-10-06T12:16:21Z</time></trkpt>
<trkpt lat="23.953668" lon="111.78226">
<time>2016-10-06T12:16:22Z</time></trkpt>
<trkpt lat="23.953748" lon="111.78221">
<time>2016-10-06T12:16:23Z</time></trkpt>
<trkpt lat="23.953828" lon="111.78216">
<time>2016-10-06T12:16:24Z</time></trkpt>
<trkpt lat="23.953908" lon="111.78212">
<time>2016-10-06T12:16:25Z</time></trkpt>
<trkpt lat="23.953988" lon="111.78208">
<time>2016-10-06T12:16:26Z</time></trkpt>
<trkpt lat="23.954068" lon="111.78204">
<time>2016-10-06T12:16:27Z</time></trkpt>
<trkpt lat="23.954158" lon="111.782">
<time>2016-10-06T12:16:28Z</time></trkpt>
<trkpt lat="23.954238" lon="111.781969">
<time>2016-10-06T12:16:29Z</time></trkpt>
<trkpt lat="23.954328" lon="111.781929">
<time>2016-10-06T12:16:30Z</time></trkpt>
<trkpt lat="23.954408" lon="111.781899">
<time>2016-10-06T12:16:31Z</time></trkpt>
<trkpt lat="23.958628" lon="111.780667">
<time>2016-10-06T12:16:32Z</time></trkpt>
<trkpt lat="23.958798" lon="111.780607">
<time>2016-10-06T12:16:33Z</time></trkpt>
<trkpt lat="23.958888" lon="111.780577">
<time>2016-10-06T12:16:34Z</time></trkpt>
<trkpt lat="23.958978" lon="111.780547">
<time>2016-10-06T12:16:35Z</time></trkpt>
<trkpt lat="23.959148" lon="111.780477">
<time>2016-10-06T12:16:36Z</time></trkpt>
<trkpt lat="23.959238" lon="111.780447">
<time>2016-10-06T12:16:37Z</time></trkpt>
<trkpt lat="23.959318" lon="111.780407">
<time>2016-10-06T12:16:38Z</time></trkpt>
<trkpt lat="23.959408" lon="111.780367">
<time>2016-10-06T12:16:39Z</time></trkpt>
<trkpt lat="23.959568" lon="111.780287">
<time>2016-10-06T12:16:40Z</time></trkpt>
<trkpt lat="23.959728" lon="111.780197">
<time>2016-10-06T12:16:41Z</time></trkpt>
<trkpt lat="23.959888" lon="111.780107">
<time>2016-10-06T12:16:42Z</time></trkpt>
<trkpt lat="23.959968" lon="111.780056">
<time>2016-10-06T12:16:43Z</time></trkpt>
<trkpt lat="23.960048" lon="111.780006">
<time>2016-10-06T12:16:44Z</time></trkpt>
<trkpt lat="23.960118" lon="111.779956">
<time>2016-10-06T12:16:45Z</time></trkpt>
<trkpt lat="23.960198" lon="111.779896">
<time>2016-10-06T12:16:46Z</time></trkpt>
<trkpt lat="23.960348" lon="111.779786">
<time>2016-10-06T12:16:47Z</time></trkpt>
<trkpt lat="23.960498" lon="111.779666">
<time>2016-10-06T12:16:48Z</time></trkpt>
<trkpt lat="23.961947" lon="111.778434">
<time>2016-10-06T12:16:49Z</time></trkpt>
<trkpt lat="23.962017" lon="111.778384">
<time>2016-10-06T12:16:50Z</time></trkpt>
<trkpt lat="23.962167" lon="111.778264">
<time>2016-10-06T12:16:51Z</time></trkpt>
<trkpt lat="23.962237" lon="111.778214">
<time>2016-10-06T12:16:52Z</time></trkpt>
<trkpt lat="23.962386" lon="111.778114">
<time>2016-10-06T12:16:53Z</time></trkpt>
<trkpt lat="23.962546" lon="111.778014">
<time>2016-10-06T12:16:54Z</time></trkpt>
<trkpt lat="23.962626" lon="111.777963">
<time>2016-10-06T12:16:55Z</time></trkpt>
<trkpt lat="23.962706" lon="111.777913">
<time>2016-10-06T12:16:56Z</time></trkpt>
<trkpt lat="23.962786" lon="111.777873">
<time>2016-10-06T12:16:57Z</time></trkpt>
<trkpt lat="23.962866" lon="111.777833">
<time>2016-10-06T12:16:58Z</time></trkpt>
<trkpt lat="23.963026" lon="111.777753">
<time>2016-10-06T12:16:59Z</time></trkpt>
<trkpt lat="23.963196" lon="111.777683">
<time>2016-10-06T12:17:00Z</time></trkpt>
<trkpt lat="23.964996" lon="111.776952">
<time>2016-10-06T12:17:01Z</time></trkpt>
<trkpt lat="23.965086" lon="111.776912">
<time>2016-10-06T12:17:02Z</time></trkpt>
<trkpt lat="23.965146" lon="111.776882">
<time>2016-10-06T12:17:03Z</time></trkpt>
<trkpt lat="23.965256" lon="111.776832">
<time>2016-10-06T12:17:04Z</time></trkpt>
<trkpt lat="23.965336" lon="111.776792">
<time>2016-10-06T12:17:05Z</time></trkpt>
<trkpt lat="23.965426" lon="111.776742">
<time>2016-10-06T12:17:06Z</time></trkpt>
<trkpt lat="23.965506" lon="111.776702">
<time>2016-10-06T12:17:07Z</time></trkpt>
<trkpt lat="23.965586" lon="111.776652">
<time>2016-10-06T12:17:08Z</time></trkpt>
<trkpt lat="23.965666" lon="111.776592">
<time>2016-10-06T12:17:09Z</time></trkpt>
<trkpt lat="23.965746" lon="111.776541">
<time>2016-10-06T12:17:10Z</time></trkpt>
<trkpt lat="23.965816" lon="111.776481">
<time>2016-10-06T12:17:11Z</time></trkpt>
<trkpt lat="23.965896" lon="111.776421">
<time>2016-10-06T12:17:12Z</time></trkpt>
<trkpt lat="23.965966" lon="111.776351">
<time>2016-10-06T12:17:13Z</time></trkpt>
<trkpt lat="23.966036" lon="111.776291">
<time>2016-10-06T12:17:14Z</time></trkpt>
<trkpt lat="23.966096" lon="111.776221">
<time>2016-10-06T12:17:15Z</time></trkpt>
<trkpt lat="23.966166" lon="111.776151">
<time>2016-10-06T12:17:16Z</time></trkpt>
<trkpt lat="23.966236" lon="111.776071">
<time>2016-10-06T12:17:17Z</time></trkpt>
<trkpt lat="23.966296" lon="111.776001">
<time>2016-10-06T12:17:18Z</time></trkpt>
<trkpt lat="23.966356" lon="111.775931">
<time>2016-10-06T12:17:19Z</time></trkpt>
<trkpt lat="23.966416" lon="111.775851">
<time>2016-10-06T12:17:20Z</time></trkpt>
<trkpt lat="23.966475" lon="111.77577">
<time>2016-10-06T12:17:21Z</time></trkpt>
<trkpt lat="23.966535" lon="111.77569">
<time>2016-10-06T12:17:22Z</time></trkpt>
<trkpt lat="23.966755" lon="111.77537">
<time>2016-10-06T12:17:23Z</time></trkpt>
<trkpt lat="23.966815" lon="111.77529">
<time>2016-10-06T12:17:24Z</time></trkpt>
<trkpt lat="23.966875" lon="111.77521">
<time>2016-10-06T12:17:25Z</time></trkpt>
<trkpt lat="23.967125" lon="111.774909">
<time>2016-10-06T12:17:26Z</time></trkpt>
<trkpt lat="23.967255" lon="111.774759">
<time>2016-10-06T12:17:27Z</time></trkpt>
<trkpt lat="23.967315" lon="111.774679">
<time>2016-10-06T12:17:28Z</time></trkpt>
<trkpt lat="23.967445" lon="111.774529">
<time>2016-10-06T12:17:29Z</time></trkpt>
<trkpt lat="23.967714" lon="111.774229">
<time>2016-10-06T12:17:30Z</time></trkpt>
<trkpt lat="23.967784" lon="111.774168">
<time>2016-10-06T12:17:31Z</time></trkpt>
<trkpt lat="23.967974" lon="111.773998">
<time>2016-10-06T12:17:32Z</time></trkpt>
<trkpt lat="23.968124" lon="111.773878">
<time>2016-10-06T12:17:33Z</time></trkpt>
<trkpt lat="23.968274" lon="111.773748">
<time>2016-10-06T12:17:34Z</time></trkpt>
<trkpt lat="23.968354" lon="111.773688">
<time>2016-10-06T12:17:35Z</time></trkpt>
<trkpt lat="23.968434" lon="111.773628">
<time>2016-10-06T12:17:36Z</time></trkpt>
<trkpt lat="23.968494" lon="111.773588">
<time>2016-10-06T12:17:37Z</time></trkpt>
<trkpt lat="23.968734" lon="111.773428">
<time>2016-10-06T12:17:38Z</time></trkpt>
<trkpt lat="23.968814" lon="111.773367">
<time>2016-10-06T12:17:39Z</time></trkpt>
<trkpt lat="23.969044" lon="111.773207">
<time>2016-10-06T12:17:40Z</time></trkpt>
<trkpt lat="23.969184" lon="111.773117">
<time>2016-10-06T12:17:41Z</time></trkpt>
<trkpt lat="23.969334" lon="111.773017">
<time>2016-10-06T12:17:42Z</time></trkpt>
<trkpt lat="23.969404" lon="111.772957">
<time>2016-10-06T12:17:43Z</time></trkpt>
<trkpt lat="23.969474" lon="111.772897">
<time>2016-10-06T12:17:44Z</time></trkpt>
<trkpt lat="23.969544" lon="111.772827">
<time>2016-10-06T12:17:45Z</time></trkpt>
<trkpt lat="23.969614" lon="111.772747">
<time>2016-10-06T12:17:46Z</time></trkpt>
<trkpt lat="23.969684" lon="111.772677">
<time>2016-10-06T12:17:47Z</time></trkpt>
<trkpt lat="23.969744" lon="111.772597">
<time>2016-10-06T12:17:48Z</time></trkpt>
<trkpt lat="23.969913" lon="111.772366">
<time>2016-10-06T12:17:49Z</time></trkpt>
<trkpt lat="23.969923" lon="111.772356">
<time>2016-10-06T12:17:50Z</time></trkpt>
<trkpt lat="23.970073" lon="111.772106">
<time>2016-10-06T12:17:51Z</time></trkpt>
<trkpt lat="23.970123" lon="111.772016">
<time>2016-10-06T12:17:52Z</time></trkpt>
<trkpt lat="23.970592" lon="111.770644">
<time>2016-10-06T12:17:53Z</time></trkpt>
<trkpt lat="23.971051" lon="111.769493">
<time>2016-10-06T12:17:54Z</time></trkpt>
<trkpt lat="23.972849" lon="111.76558">
<time>2016-10-06T12:17:55Z</time></trkpt>
<trkpt lat="23.972939" lon="111.765409">
<time>2016-10-06T12:17:56Z</time></trkpt>
<trkpt lat="23.972988" lon="111.765329">
<time>2016-10-06T12:17:57Z</time></trkpt>
<trkpt lat="23.973038" lon="111.765249">
<time>2016-10-06T12:17:58Z</time></trkpt>
<trkpt lat="23.973098" lon="111.765169">
<time>2016-10-06T12:17:59Z</time></trkpt>
<trkpt lat="23.973148" lon="111.765099">
<time>2016-10-06T12:18:00Z</time></trkpt>
<trkpt lat="23.973208" lon="111.765039">
<time>2016-10-06T12:18:01Z</time></trkpt>
<trkpt lat="23.973268" lon="111.764969">
<time>2016-10-06T12:18:02Z</time></trkpt>
<trkpt lat="23.973328" lon="111.764899">
<time>2016-10-06T12:18:03Z</time></trkpt>
<trkpt lat="23.973398" lon="111.764829">
<time>2016-10-06T12:18:04Z</time></trkpt>
<trkpt lat="23.973458" lon="111.764769">
<time>2016-10-06T12:18:05Z</time></trkpt>
<trkpt lat="23.973808" lon="111.764439">
<time>2016-10-06T12:18:06Z</time></trkpt>
<trkpt lat="23.973878" lon="111.764378">
<time>2016-10-06T12:18:07Z</time></trkpt>
<trkpt lat="23.973948" lon="111.764308">
<time>2016-10-06T12:18:08Z</time></trkpt>
<trkpt lat="23.974018" lon="111.764228">
<time>2016-10-06T12:18:09Z</time></trkpt>
<trkpt lat="23.974078" lon="111.764158">
<time>2016-10-06T12:18:10Z</time></trkpt>
<trkpt lat="23.974148" lon="111.764088">
<time>2016-10-06T12:18:11Z</time></trkpt>
<trkpt lat="23.974208" lon="111.764028">
<time>2016-10-06T12:18:12Z</time></trkpt>
<trkpt lat="23.974278" lon="111.763968">
<time>2016-10-06T12:18:13Z</time></trkpt>
<trkpt lat="23.974348" lon="111.763908">
<time>2016-10-06T12:18:14Z</time></trkpt>
<trkpt lat="23.974418" lon="111.763838">
<time>2016-10-06T12:18:15Z</time></trkpt>
<trkpt lat="23.974548" lon="111.763688">
<time>2016-10-06T12:18:16Z</time></trkpt>
<trkpt lat="23.974618" lon="111.763618">
<time>2016-10-06T12:18:17Z</time></trkpt>
<trkpt lat="23.974738" lon="111.763468">
<time>2016-10-06T12:18:18Z</time></trkpt>
<trkpt lat="23.974798" lon="111.763388">
<time>2016-10-06T12:18:19Z</time></trkpt>
<trkpt lat="23.974848" lon="111.763308">
<time>2016-10-06T12:18:20Z</time></trkpt>
<trkpt lat="23.974898" lon="111.763218">
<time>2016-10-06T12:18:21Z</time></trkpt>
<trkpt lat="23.974948" lon="111.763127">
<time>2016-10-06T12:18:22Z</time></trkpt>
<trkpt lat="23.974998" lon="111.763037">
<time>2016-10-06T12:18:23Z</time></trkpt>
<trkpt lat="23.975038" lon="111.762947">
<time>2016-10-06T12:18:24Z</time></trkpt>
<trkpt lat="23.975078" lon="111.762857">
<time>2016-10-06T12:18:25Z</time></trkpt>
<trkpt lat="23.975108" lon="111.762767">
<time>2016-10-06T12:18:26Z</time></trkpt>
<trkpt lat="23.975207" lon="111.762487">
<time>2016-10-06T12:18:27Z</time></trkpt>
<trkpt lat="23.975237" lon="111.762397">
<time>2016-10-06T12:18:28Z</time></trkpt>
<trkpt lat="23.976356" lon="111.759125">
<time>2016-10-06T12:18:29Z</time></trkpt>
<trkpt lat="23.976386" lon="111.759025">
<time>2016-10-06T12:18:30Z</time></trkpt>
<trkpt lat="23.976416" lon="111.758925">
<time>2016-10-06T12:18:31Z</time></trkpt>
<trkpt lat="23.976546" lon="111.758534">
<time>2016-10-06T12:18:32Z</time></trkpt>
<trkpt lat="23.976576" lon="111.758444">
<time>2016-10-06T12:18:33Z</time></trkpt>
<trkpt lat="23.976616" lon="111.758344">
<time>2016-10-06T12:18:34Z</time></trkpt>
<trkpt lat="23.976646" lon="111.758254">
<time>2016-10-06T12:18:35Z</time></trkpt>
<trkpt lat="23.976855" lon="111.757664">
<time>2016-10-06T12:18:36Z</time></trkpt>
<trkpt lat="23.977875" lon="111.754682">
<time>2016-10-06T12:18:37Z</time></trkpt>
<trkpt lat="23.978074" lon="111.754122">
<time>2016-10-06T12:18:38Z</time></trkpt>
<trkpt lat="23.978164" lon="111.753832">
<time>2016-10-06T12:18:39Z</time></trkpt>
<trkpt lat="23.978264" lon="111.753532">
<time>2016-10-06T12:18:40Z</time></trkpt>
<trkpt lat="23.978374" lon="111.753262">
<time>2016-10-06T12:18:41Z</time></trkpt>
<trkpt lat="23.978694" lon="111.752442">
<time>2016-10-06T12:18:42Z</time></trkpt>
<trkpt lat="23.978844" lon="111.752081">
<time>2016-10-06T12:18:43Z</time></trkpt>
<trkpt lat="23.978924" lon="111.751891">
<time>2016-10-06T12:18:44Z</time></trkpt>
<trkpt lat="23.979494" lon="111.750551">
<time>2016-10-06T12:18:45Z</time></trkpt>
<trkpt lat="23.979574" lon="111.750381">
<time>2016-10-06T12:18:46Z</time></trkpt>
<trkpt lat="23.979614" lon="111.750291">
<time>2016-10-06T12:18:47Z</time></trkpt>
<trkpt lat="23.979744" lon="111.750001">
<time>2016-10-06T12:18:48Z</time></trkpt>
<trkpt lat="23.980294" lon="111.748691">
<time>2016-10-06T12:18:49Z</time></trkpt>
<trkpt lat="23.980414" lon="111.748421">
<time>2016-10-06T12:18:50Z</time></trkpt>
<trkpt lat="23.980924" lon="111.74717">
<time>2016-10-06T12:18:51Z</time></trkpt>
<trkpt lat="23.981054" lon="111.7468">
<time>2016-10-06T12:18:52Z</time></trkpt>
<trkpt lat="23.982195" lon="111.74344">
<time>2016-10-06T12:18:53Z</time></trkpt>
<trkpt lat="23.982325" lon="111.74306">
<time>2016-10-06T12:18:54Z</time></trkpt>
<trkpt lat="23.982335" lon="111.74304">
<time>2016-10-06T12:18:55Z</time></trkpt>
<trkpt lat="23.982355" lon="111.74297">
<time>2016-10-06T12:18:56Z</time></trkpt>
<trkpt lat="23.982445" lon="111.74268">
<time>2016-10-06T12:18:57Z</time></trkpt>
<trkpt lat="23.982595" lon="111.74221">
<time>2016-10-06T12:18:58Z</time></trkpt>
<trkpt lat="23.982775" lon="111.74153">
<time>2016-10-06T12:18:59Z</time></trkpt>
<trkpt lat="23.982905" lon="111.741021">
<time>2016-10-06T12:19:00Z</time></trkpt>
<trkpt lat="23.982945" lon="111.740721">
<time>2016-10-06T12:19:01Z</time></trkpt>
<trkpt lat="23.983065" lon="111.740141">
<time>2016-10-06T12:19:02Z</time></trkpt>
<trkpt lat="23.983085" lon="111.739961">
<time>2016-10-06T12:19:03Z</time></trkpt>
<trkpt lat="23.983145" lon="111.739551">
<time>2016-10-06T12:19:04Z</time></trkpt>
<trkpt lat="23.983236" lon="111.738901">
<time>2016-10-06T12:19:05Z</time></trkpt>
<trkpt lat="23.983436" lon="111.737551">
<time>2016-10-06T12:19:06Z</time></trkpt>
<trkpt lat="23.983436" lon="111.737521">
<time>2016-10-06T12:19:07Z</time></trkpt>
<trkpt lat="23.983456" lon="111.737421">
<time>2016-10-06T12:19:08Z</time></trkpt>
<trkpt lat="23.983476" lon="111.737321">
<time>2016-10-06T12:19:09Z</time></trkpt>
<trkpt lat="23.983566" lon="111.736722">
<time>2016-10-06T12:19:10Z</time></trkpt>
<trkpt lat="23.983616" lon="111.736332">
<time>2016-10-06T12:19:11Z</time></trkpt>
<trkpt lat="23.983667" lon="111.735952">
<time>2016-10-06T12:19:12Z</time></trkpt>
<trkpt lat="23.983717" lon="111.735662">
<time>2016-10-06T12:19:13Z</time></trkpt>
<trkpt lat="23.983727" lon="111.735572">
<time>2016-10-06T12:19:14Z</time></trkpt>
<trkpt lat="23.983737" lon="111.735472">
<time>2016-10-06T12:19:15Z</time></trkpt>
<trkpt lat="23.983757" lon="111.735382">
<time>2016-10-06T12:19:16Z</time></trkpt>
<trkpt lat="23.983777" lon="111.735292">
<time>2016-10-06T12:19:17Z</time></trkpt>
<trkpt lat="23.98463" lon="111.729715">
<time>2016-10-06T12:19:18Z</time></trkpt>
<trkpt lat="23.98465" lon="111.729615">
<time>2016-10-06T12:19:19Z</time></trkpt>
<trkpt lat="23.98467" lon="111.729525">
<time>2016-10-06T12:19:20Z</time></trkpt>
<trkpt lat="23.98469" lon="111.729425">
<time>2016-10-06T12:19:21Z</time></trkpt>
<trkpt lat="23.98472" lon="111.729335">
<time>2016-10-06T12:19:22Z</time></trkpt>
<trkpt lat="23.98474" lon="111.729245">
<time>2016-10-06T12:19:23Z</time></trkpt>
<trkpt lat="23.98478" lon="111.729156">
<time>2016-10-06T12:19:24Z</time></trkpt>
<trkpt lat="23.98481" lon="111.729056">
<time>2016-10-06T12:19:25Z</time></trkpt>
<trkpt lat="23.98485" lon="111.728966">
<time>2016-10-06T12:19:26Z</time></trkpt>
<trkpt lat="23.98489" lon="111.728876">
<time>2016-10-06T12:19:27Z</time></trkpt>
<trkpt lat="23.984931" lon="111.728806">
<time>2016-10-06T12:19:28Z</time></trkpt>
<trkpt lat="23.984991" lon="111.728706">
<time>2016-10-06T12:19:29Z</time></trkpt>
<trkpt lat="23.985041" lon="111.728626">
<time>2016-10-06T12:19:30Z</time></trkpt>
<trkpt lat="23.985101" lon="111.728556">
<time>2016-10-06T12:19:31Z</time></trkpt>
<trkpt lat="23.985161" lon="111.728486">
<time>2016-10-06T12:19:32Z</time></trkpt>
<trkpt lat="23.985221" lon="111.728426">
<time>2016-10-06T12:19:33Z</time></trkpt>
<trkpt lat="23.985291" lon="111.728366">
<time>2016-10-06T12:19:34Z</time></trkpt>
<trkpt lat="23.985361" lon="111.728306">
<time>2016-10-06T12:19:35Z</time></trkpt>
<trkpt lat="23.985431" lon="111.728246">
<time>2016-10-06T12:19:36Z</time></trkpt>
<trkpt lat="23.985511" lon="111.728196">
<time>2016-10-06T12:19:37Z</time></trkpt>
<trkpt lat="23.985591" lon="111.728146">
<time>2016-10-06T12:19:38Z</time></trkpt>
<trkpt lat="23.985671" lon="111.728106">
<time>2016-10-06T12:19:39Z</time></trkpt>
<trkpt lat="23.985751" lon="111.728056">
<time>2016-10-06T12:19:40Z</time></trkpt>
<trkpt lat="23.985831" lon="111.728016">
<time>2016-10-06T12:19:41Z</time></trkpt>
<trkpt lat="23.985921" lon="111.727976">
<time>2016-10-06T12:19:42Z</time></trkpt>
<trkpt lat="23.986002" lon="111.727946">
<time>2016-10-06T12:19:43Z</time></trkpt>
<trkpt lat="23.986082" lon="111.727906">
<time>2016-10-06T12:19:44Z</time></trkpt>
<trkpt lat="23.987202" lon="111.727497">
<time>2016-10-06T12:19:45Z</time></trkpt>
<trkpt lat="23.987382" lon="111.727437">
<time>2016-10-06T12:19:46Z</time></trkpt>
<trkpt lat="23.988163" lon="111.727167">
<time>2016-10-06T12:19:47Z</time></trkpt>
<trkpt lat="23.988603" lon="111.726997">
<time>2016-10-06T12:19:48Z</time></trkpt>
<trkpt lat="23.989534" lon="111.726677">
<time>2016-10-06T12:19:49Z</time></trkpt>
<trkpt lat="23.990054" lon="111.726497">
<time>2016-10-06T12:19:50Z</time></trkpt>
<trkpt lat="23.992446" lon="111.725628">
<time>2016-10-06T12:19:51Z</time></trkpt>
<trkpt lat="23.993647" lon="111.725208">
<time>2016-10-06T12:19:52Z</time></trkpt>
<trkpt lat="23.994437" lon="111.724918">
<time>2016-10-06T12:19:53Z</time></trkpt>
<trkpt lat="23.994617" lon="111.724858">
<time>2016-10-06T12:19:54Z</time></trkpt>
<trkpt lat="23.995108" lon="111.724688">
<time>2016-10-06T12:19:55Z</time></trkpt>
<trkpt lat="23.995248" lon="111.724638">
<time>2016-10-06T12:19:56Z</time></trkpt>
<trkpt lat="23.995398" lon="111.724588">
<time>2016-10-06T12:19:57Z</time></trkpt>
<trkpt lat="23.995578" lon="111.724528">
<time>2016-10-06T12:19:58Z</time></trkpt>
<trkpt lat="23.995698" lon="111.724498">
<time>2016-10-06T12:19:59Z</time></trkpt>
<trkpt lat="23.995808" lon="111.724478">
<time>2016-10-06T12:20:00Z</time></trkpt>
<trkpt lat="23.995928" lon="111.724468">
<time>2016-10-06T12:20:01Z</time></trkpt>
<trkpt lat="23.996038" lon="111.724458">
<time>2016-10-06T12:20:02Z</time></trkpt>
<trkpt lat="23.996538" lon="111.724428">
<time>2016-10-06T12:20:03Z</time></trkpt>
<trkpt lat="23.997239" lon="111.724428">
<time>2016-10-06T12:20:04Z</time></trkpt>
<trkpt lat="23.997319" lon="111.724428">
<time>2016-10-06T12:20:05Z</time></trkpt>
<trkpt lat="23.99924" lon="111.724358">
<time>2016-10-06T12:20:06Z</time></trkpt>
<trkpt lat="23.99936" lon="111.724368">
<time>2016-10-06T12:20:07Z</time></trkpt>
<trkpt lat="23.99947" lon="111.724388">
<time>2016-10-06T12:20:08Z</time></trkpt>
<trkpt lat="23.99957" lon="111.724418">
<time>2016-10-06T12:20:09Z</time></trkpt>
<trkpt lat="23.99973" lon="111.724538">
<time>2016-10-06T12:20:10Z</time></trkpt>
<trkpt lat="23.99973" lon="111.724538">
<time>2016-10-06T12:20:11Z</time></trkpt>
<trkpt lat="23.99999" lon="111.724848">
<time>2016-10-06T12:20:12Z</time></trkpt>
<trkpt lat="24.000029" lon="111.724878">
<time>2016-10-06T12:20:13Z</time></trkpt>
<trkpt lat="24.000139" lon="111.724988">
<time>2016-10-06T12:20:14Z</time></trkpt>
<trkpt lat="24.000209" lon="111.725058">
<time>2016-10-06T12:20:15Z</time></trkpt>
<trkpt lat="24.000289" lon="111.725138">
<time>2016-10-06T12:20:16Z</time></trkpt>
<trkpt lat="24.000449" lon="111.725277">
<time>2016-10-06T12:20:17Z</time></trkpt>
<trkpt lat="24.000519" lon="111.725337">
<time>2016-10-06T12:20:18Z</time></trkpt>
<trkpt lat="24.000599" lon="111.725407">
<time>2016-10-06T12:20:19Z</time></trkpt>
<trkpt lat="24.000719" lon="111.725507">
<time>2016-10-06T12:20:20Z</time></trkpt>
<trkpt lat="24.000839" lon="111.725597">
<time>2016-10-06T12:20:21Z</time></trkpt>
<trkpt lat="24.000949" lon="111.725677">
<time>2016-10-06T12:20:22Z</time></trkpt>
<trkpt lat="24.001089" lon="111.725787">
<time>2016-10-06T12:20:23Z</time></trkpt>
<trkpt lat="24.001199" lon="111.725867">
<time>2016-10-06T12:20:24Z</time></trkpt>
<trkpt lat="24.001369" lon="111.725977">
<time>2016-10-06T12:20:25Z</time></trkpt>
<trkpt lat="24.001499" lon="111.726057">
<time>2016-10-06T12:20:26Z</time></trkpt>
<trkpt lat="24.001629" lon="111.726147">
<time>2016-10-06T12:20:27Z</time></trkpt>
<trkpt lat="24.001789" lon="111.726237">
<time>2016-10-06T12:20:28Z</time></trkpt>
<trkpt lat="24.001899" lon="111.726306">
<time>2016-10-06T12:20:29Z</time></trkpt>
<trkpt lat="24.002029" lon="111.726376">
<time>2016-10-06T12:20:30Z</time></trkpt>
<trkpt lat="24.002199" lon="111.726466">
<time>2016-10-06T12:20:31Z</time></trkpt>
<trkpt lat="24.002289" lon="111.726506">
<time>2016-10-06T12:20:32Z</time></trkpt>
<trkpt lat="24.002399" lon="111.726566">
<time>2016-10-06T12:20:33Z</time></trkpt>
<trkpt lat="24.002499" lon="111.726616">
<time>2016-10-06T12:20:34Z</time></trkpt>
<trkpt lat="24.002669" lon="111.726696">
<time>2016-10-06T12:20:35Z</time></trkpt>
<trkpt lat="24.002829" lon="111.726756">
<time>2016-10-06T12:20:36Z</time></trkpt>
<trkpt lat="24.002959" lon="111.726816">
<time>2016-10-06T12:20:37Z</time></trkpt>
<trkpt lat="24.003079" lon="111.726866">
<time>2016-10-06T12:20:38Z</time></trkpt>
<trkpt lat="24.003279" lon="111.726936">
<time>2016-10-06T12:20:39Z</time></trkpt>
<trkpt lat="24.00401" lon="111.727156">
<time>2016-10-06T12:20:40Z</time></trkpt>
<trkpt lat="24.00428" lon="111.727226">
<time>2016-10-06T12:20:41Z</time></trkpt>
<trkpt lat="24.00462" lon="111.727295">
<time>2016-10-06T12:20:42Z</time></trkpt>
<trkpt lat="24.00483" lon="111.727335">
<time>2016-10-06T12:20:43Z</time></trkpt>
<trkpt lat="24.0051" lon="111.727375">
<time>2016-10-06T12:20:44Z</time></trkpt>
<trkpt lat="24.00547" lon="111.727405">
<time>2016-10-06T12:20:45Z</time></trkpt>
<trkpt lat="24.00593" lon="111.727435">
<time>2016-10-06T12:20:46Z</time></trkpt>
<trkpt lat="24.0061" lon="111.727445">
<time>2016-10-06T12:20:47Z</time></trkpt>
<trkpt lat="24.00632" lon="111.727435">
<time>2016-10-06T12:20:48Z</time></trkpt>
<trkpt lat="24.006791" lon="111.727435">
<time>2016-10-06T12:20:49Z</time></trkpt>
<trkpt lat="24.006861" lon="111.727435">
<time>2016-10-06T12:20:50Z</time></trkpt>
<trkpt lat="24.007551" lon="111.727435">
<time>2016-10-06T12:20:51Z</time></trkpt>
<trkpt lat="24.008051" lon="111.727435">
<time>2016-10-06T12:20:52Z</time></trkpt>
<trkpt lat="24.008621" lon="111.727435">
<time>2016-10-06T12:20:53Z</time></trkpt>
<trkpt lat="24.008951" lon="111.727435">
<time>2016-10-06T12:20:54Z</time></trkpt>
<trkpt lat="24.009242" lon="111.727435">
<time>2016-10-06T12:20:55Z</time></trkpt>
<trkpt lat="24.009882" lon="111.727455">
<time>2016-10-06T12:20:56Z</time></trkpt>
<trkpt lat="24.009982" lon="111.727455">
<time>2016-10-06T12:20:57Z</time></trkpt>
<trkpt lat="24.010372" lon="111.727465">
<time>2016-10-06T12:20:58Z</time></trkpt>
<trkpt lat="24.010722" lon="111.727455">
<time>2016-10-06T12:20:59Z</time></trkpt>
<trkpt lat="24.011202" lon="111.727485">
<time>2016-10-06T12:21:00Z</time></trkpt>
<trkpt lat="24.011602" lon="111.727555">
<time>2016-10-06T12:21:01Z</time></trkpt>
<trkpt lat="24.011743" lon="111.727575">
<time>2016-10-06T12:21:02Z</time></trkpt>
<trkpt lat="24.011973" lon="111.727615">
<time>2016-10-06T12:21:03Z</time></trkpt>
<trkpt lat="24.012223" lon="111.727665">
<time>2016-10-06T12:21:04Z</time></trkpt>
<trkpt lat="24.012403" lon="111.727695">
<time>2016-10-06T12:21:05Z</time></trkpt>
<trkpt lat="24.012583" lon="111.727735">
<time>2016-10-06T12:21:06Z</time></trkpt>
<trkpt lat="24.012863" lon="111.727785">
<time>2016-10-06T12:21:07Z</time></trkpt>
<trkpt lat="24.013063" lon="111.727825">
<time>2016-10-06T12:21:08Z</time></trkpt>
<trkpt lat="24.013333" lon="111.727864">
<time>2016-10-06T12:21:09Z</time></trkpt>
<trkpt lat="24.013603" lon="111.727904">
<time>2016-10-06T12:21:10Z</time></trkpt>
<trkpt lat="24.013783" lon="111.727934">
<time>2016-10-06T12:21:11Z</time></trkpt>
<trkpt lat="24.013963" lon="111.727954">
<time>2016-10-06T12:21:12Z</time></trkpt>
<trkpt lat="24.014113" lon="111.727964">
<time>2016-10-06T12:21:13Z</time></trkpt>
<trkpt lat="24.014223" lon="111.727964">
<time>2016-10-06T12:21:14Z</time></trkpt>
<trkpt lat="24.014323" lon="111.727964">
<time>2016-10-06T12:21:15Z</time></trkpt>
<trkpt lat="24.014433" lon="111.727964">
<time>2016-10-06T12:21:16Z</time></trkpt>
<trkpt lat="24.014563" lon="111.727954">
<time>2016-10-06T12:21:17Z</time></trkpt>
<trkpt lat="24.014694" lon="111.727944">
<time>2016-10-06T12:21:18Z</time></trkpt>
<trkpt lat="24.014954" lon="111.727934">
<time>2016-10-06T12:21:19Z</time></trkpt>
<trkpt lat="24.014994" lon="111.727934">
<time>2016-10-06T12:21:20Z</time></trkpt>
<trkpt lat="24.015844" lon="111.727874">
<time>2016-10-06T12:21:21Z</time></trkpt>
<trkpt lat="24.016404" lon="111.727854">
<time>2016-10-06T12:21:22Z</time></trkpt>
<trkpt lat="24.016905" lon="111.727804">
<time>2016-10-06T12:21:23Z</time></trkpt>
<trkpt lat="24.017345" lon="111.727774">
<time>2016-10-06T12:21:24Z</time></trkpt>
<trkpt lat="24.018525" lon="111.727704">
<time>2016-10-06T12:21:25Z</time></trkpt>
<trkpt lat="24.019326" lon="111.727644">
<time>2016-10-06T12:21:26Z</time></trkpt>
<trkpt lat="24.020036" lon="111.727594">
<time>2016-10-06T12:21:27Z</time></trkpt>
<trkpt lat="24.020206" lon="111.727584">
<time>2016-10-06T12:21:28Z</time></trkpt>
<trkpt lat="24.020686" lon="111.727554">
<time>2016-10-06T12:21:29Z</time></trkpt>
<trkpt lat="24.020926" lon="111.727534">
<time>2016-10-06T12:21:30Z</time></trkpt>
<trkpt lat="24.021227" lon="111.727524">
<time>2016-10-06T12:21:31Z</time></trkpt>
<trkpt lat="24.021857" lon="111.727484">
<time>2016-10-06T12:21:32Z</time></trkpt>
<trkpt lat="24.022207" lon="111.727454">
<time>2016-10-06T12:21:33Z</time></trkpt>
<trkpt lat="24.022397" lon="111.727444">
<time>2016-10-06T12:21:34Z</time></trkpt>
<trkpt lat="24.022957" lon="111.727404">
<time>2016-10-06T12:21:35Z</time></trkpt>
<trkpt lat="24.023588" lon="111.727364">
<time>2016-10-06T12:21:36Z</time></trkpt>
<trkpt lat="24.023838" lon="111.727344">
<time>2016-10-06T12:21:37Z</time></trkpt>
<trkpt lat="24.024678" lon="111.727294">
<time>2016-10-06T12:21:38Z</time></trkpt>
<trkpt lat="24.025298" lon="111.727244">
<time>2016-10-06T12:21:39Z</time></trkpt>
<trkpt lat="24.025529" lon="111.727224">
<time>2016-10-06T12:21:40Z</time></trkpt>
<trkpt lat="24.026459" lon="111.727114">
<time>2016-10-06T12:21:41Z</time></trkpt>
<trkpt lat="24.02759" lon="111.726954">
<time>2016-10-06T12:21:42Z</time></trkpt>
<trkpt lat="24.0282" lon="111.726884">
<time>2016-10-06T12:21:43Z</time></trkpt>
<trkpt lat="24.0291" lon="111.726754">
<time>2016-10-06T12:21:44Z</time></trkpt>
<trkpt lat="24.029401" lon="111.726724">
<time>2016-10-06T12:21:45Z</time></trkpt>
<trkpt lat="24.029681" lon="111.726684">
<time>2016-10-06T12:21:46Z</time></trkpt>
<trkpt lat="24.030561" lon="111.726554">
<time>2016-10-06T12:21:47Z</time></trkpt>
<trkpt lat="24.032082" lon="111.726334">
<time>2016-10-06T12:21:48Z</time></trkpt>
<trkpt lat="24.033052" lon="111.726204">
<time>2016-10-06T12:21:49Z</time></trkpt>
<trkpt lat="24.033923" lon="111.726094">
<time>2016-10-06T12:21:50Z</time></trkpt>
<trkpt lat="24.034413" lon="111.726034">
<time>2016-10-06T12:21:51Z</time></trkpt>
<trkpt lat="24.034913" lon="111.725974">
<time>2016-10-06T12:21:52Z</time></trkpt>
<trkpt lat="24.035043" lon="111.725974">
<time>2016-10-06T12:21:53Z</time></trkpt>
<trkpt lat="24.035224" lon="111.725964">
<time>2016-10-06T12:21:54Z</time></trkpt>
<trkpt lat="24.035484" lon="111.725974">
<time>2016-10-06T12:21:55Z</time></trkpt>
<trkpt lat="24.035684" lon="111.725974">
<time>2016-10-06T12:21:56Z</time></trkpt>
<trkpt lat="24.035894" lon="111.725984">
<time>2016-10-06T12:21:57Z</time></trkpt>
<trkpt lat="24.036294" lon="111.726014">
<time>2016-10-06T12:21:58Z</time></trkpt>
<trkpt lat="24.036554" lon="111.726024">
<time>2016-10-06T12:21:59Z</time></trkpt>
<trkpt lat="24.036944" lon="111.726054">
<time>2016-10-06T12:22:00Z</time></trkpt>
<trkpt lat="24.037655" lon="111.726084">
<time>2016-10-06T12:22:01Z</time></trkpt>
<trkpt lat="24.038235" lon="111.726124">
<time>2016-10-06T12:22:02Z</time></trkpt>
<trkpt lat="24.038415" lon="111.726134">
<time>2016-10-06T12:22:03Z</time></trkpt>
<trkpt lat="24.038595" lon="111.726154">
<time>2016-10-06T12:22:04Z</time></trkpt>
<trkpt lat="24.038725" lon="111.726184">
<time>2016-10-06T12:22:05Z</time></trkpt>
<trkpt lat="24.038865" lon="111.726214">
<time>2016-10-06T12:22:06Z</time></trkpt>
<trkpt lat="24.038985" lon="111.726244">
<time>2016-10-06T12:22:07Z</time></trkpt>
<trkpt lat="24.039135" lon="111.726294">
<time>2016-10-06T12:22:08Z</time></trkpt>
<trkpt lat="24.039395" lon="111.726404">
<time>2016-10-06T12:22:09Z</time></trkpt>
<trkpt lat="24.039735" lon="111.726544">
<time>2016-10-06T12:22:10Z</time></trkpt>
<trkpt lat="24.040495" lon="111.726863">
<time>2016-10-06T12:22:11Z</time></trkpt>
<trkpt lat="24.040995" lon="111.727053">
<time>2016-10-06T12:22:12Z</time></trkpt>
<trkpt lat="24.041275" lon="111.727163">
<time>2016-10-06T12:22:13Z</time></trkpt>
<trkpt lat="24.041425" lon="111.727233">
<time>2016-10-06T12:22:14Z</time></trkpt>
<trkpt lat="24.041585" lon="111.727313">
<time>2016-10-06T12:22:15Z</time></trkpt>
<trkpt lat="24.041705" lon="111.727383">
<time>2016-10-06T12:22:16Z</time></trkpt>
<trkpt lat="24.041825" lon="111.727463">
<time>2016-10-06T12:22:17Z</time></trkpt>
<trkpt lat="24.041975" lon="111.727563">
<time>2016-10-06T12:22:18Z</time></trkpt>
<trkpt lat="24.042235" lon="111.727783">
<time>2016-10-06T12:22:19Z</time></trkpt>
<trkpt lat="24.042695" lon="111.728142">
<time>2016-10-06T12:22:20Z</time></trkpt>
<trkpt lat="24.042995" lon="111.728392">
<time>2016-10-06T12:22:21Z</time></trkpt>
<trkpt lat="24.043395" lon="111.728712">
<time>2016-10-06T12:22:22Z</time></trkpt>
<trkpt lat="24.043515" lon="111.728792">
<time>2016-10-06T12:22:23Z</time></trkpt>
<trkpt lat="24.043605" lon="111.728842">
<time>2016-10-06T12:22:24Z</time></trkpt>
<trkpt lat="24.043765" lon="111.728922">
<time>2016-10-06T12:22:25Z</time></trkpt>
<trkpt lat="24.043935" lon="111.728982">
<time>2016-10-06T12:22:26Z</time></trkpt>
<trkpt lat="24.044115" lon="111.729022">
<time>2016-10-06T12:22:27Z</time></trkpt>
<trkpt lat="24.044285" lon="111.729052">
<time>2016-10-06T12:22:28Z</time></trkpt>
<trkpt lat="24.044475" lon="111.729052">
<time>2016-10-06T12:22:29Z</time></trkpt>
<trkpt lat="24.044676" lon="111.729042">
<time>2016-10-06T12:22:30Z</time></trkpt>
<trkpt lat="24.044906" lon="111.729022">
<time>2016-10-06T12:22:31Z</time></trkpt>
<trkpt lat="24.045206" lon="111.728972">
<time>2016-10-06T12:22:32Z</time></trkpt>
<trkpt lat="24.046296" lon="111.728812">
<time>2016-10-06T12:22:33Z</time></trkpt>
<trkpt lat="24.047177" lon="111.728672">
<time>2016-10-06T12:22:34Z</time></trkpt>
<trkpt lat="24.048478" lon="111.728472">
<time>2016-10-06T12:22:35Z</time></trkpt>
<trkpt lat="24.049928" lon="111.728262">
<time>2016-10-06T12:22:36Z</time></trkpt>
<trkpt lat="24.050549" lon="111.728152">
<time>2016-10-06T12:22:37Z</time></trkpt>
<trkpt lat="24.050979" lon="111.728082">
<time>2016-10-06T12:22:38Z</time></trkpt>
<trkpt lat="24.051439" lon="111.728012">
<time>2016-10-06T12:22:39Z</time></trkpt>
<trkpt lat="24.051699" lon="111.727972">
<time>2016-10-06T12:22:40Z</time></trkpt>
<trkpt lat="24.051939" lon="111.727952">
<time>2016-10-06T12:22:41Z</time></trkpt>
<trkpt lat="24.052079" lon="111.727952">
<time>2016-10-06T12:22:42Z</time></trkpt>
<trkpt lat="24.052209" lon="111.727962">
<time>2016-10-06T12:22:43Z</time></trkpt>
<trkpt lat="24.052319" lon="111.727962">
<time>2016-10-06T12:22:44Z</time></trkpt>
<trkpt lat="24.05245" lon="111.727992">
<time>2016-10-06T12:22:45Z</time></trkpt>
<trkpt lat="24.05259" lon="111.728032">
<time>2016-10-06T12:22:46Z</time></trkpt>
<trkpt lat="24.05272" lon="111.728072">
<time>2016-10-06T12:22:47Z</time></trkpt>
<trkpt lat="24.05296" lon="111.728182">
<time>2016-10-06T12:22:48Z</time></trkpt>
<trkpt lat="24.05316" lon="111.728282">
<time>2016-10-06T12:22:49Z</time></trkpt>
<trkpt lat="24.0534" lon="111.728401">
<time>2016-10-06T12:22:50Z</time></trkpt>
<trkpt lat="24.05353" lon="111.728461">
<time>2016-10-06T12:22:51Z</time></trkpt>
<trkpt lat="24.05379" lon="111.728591">
<time>2016-10-06T12:22:52Z</time></trkpt>
<trkpt lat="24.05401" lon="111.728691">
<time>2016-10-06T12:22:53Z</time></trkpt>
<trkpt lat="24.05436" lon="111.728851">
<time>2016-10-06T12:22:54Z</time></trkpt>
<trkpt lat="24.05438" lon="111.728861">
<time>2016-10-06T12:22:55Z</time></trkpt>
<trkpt lat="24.05445" lon="111.728891">
<time>2016-10-06T12:22:56Z</time></trkpt>
<trkpt lat="24.05469" lon="111.728991">
<time>2016-10-06T12:22:57Z</time></trkpt>
<trkpt lat="24.0548" lon="111.729021">
<time>2016-10-06T12:22:58Z</time></trkpt>
<trkpt lat="24.05491" lon="111.729031">
<time>2016-10-06T12:22:59Z</time></trkpt>
<trkpt lat="24.055" lon="111.729041">
<time>2016-10-06T12:23:00Z</time></trkpt>
<trkpt lat="24.05512" lon="111.729031">
<time>2016-10-06T12:23:01Z</time></trkpt>
<trkpt lat="24.05522" lon="111.729021">
<time>2016-10-06T12:23:02Z</time></trkpt>
<trkpt lat="24.05534" lon="111.728991">
<time>2016-10-06T12:23:03Z</time></trkpt>
<trkpt lat="24.05547" lon="111.728951">
<time>2016-10-06T12:23:04Z</time></trkpt>
<trkpt lat="24.0558" lon="111.728831">
<time>2016-10-06T12:23:05Z</time></trkpt>
<trkpt lat="24.056271" lon="111.728641">
<time>2016-10-06T12:23:06Z</time></trkpt>
<trkpt lat="24.056381" lon="111.728601">
<time>2016-10-06T12:23:07Z</time></trkpt>
<trkpt lat="24.057361" lon="111.728211">
<time>2016-10-06T12:23:08Z</time></trkpt>
<trkpt lat="24.057472" lon="111.728171">
<time>2016-10-06T12:23:09Z</time></trkpt>
<trkpt lat="24.057642" lon="111.728101">
<time>2016-10-06T12:23:10Z</time></trkpt>
<trkpt lat="24.057972" lon="111.727981">
<time>2016-10-06T12:23:11Z</time></trkpt>
<trkpt lat="24.058272" lon="111.727921">
<time>2016-10-06T12:23:12Z</time></trkpt>
<trkpt lat="24.058552" lon="111.727901">
<time>2016-10-06T12:23:13Z</time></trkpt>
<trkpt lat="24.058842" lon="111.727921">
<time>2016-10-06T12:23:14Z</time></trkpt>
<trkpt lat="24.059122" lon="111.727991">
<time>2016-10-06T12:23:15Z</time></trkpt>
<trkpt lat="24.059592" lon="111.728131">
<time>2016-10-06T12:23:16Z</time></trkpt>
<trkpt lat="24.059712" lon="111.728161">
<time>2016-10-06T12:23:17Z</time></trkpt>
<trkpt lat="24.059803" lon="111.728191">
<time>2016-10-06T12:23:18Z</time></trkpt>
<trkpt lat="24.060103" lon="111.728281">
<time>2016-10-06T12:23:19Z</time></trkpt>
<trkpt lat="24.061373" lon="111.728621">
<time>2016-10-06T12:23:20Z</time></trkpt>
<trkpt lat="24.061513" lon="111.728641">
<time>2016-10-06T12:23:21Z</time></trkpt>
<trkpt lat="24.061673" lon="111.728651">
<time>2016-10-06T12:23:22Z</time></trkpt>
<trkpt lat="24.061783" lon="111.728651">
<time>2016-10-06T12:23:23Z</time></trkpt>
<trkpt lat="24.061893" lon="111.728631">
<time>2016-10-06T12:23:24Z</time></trkpt>
<trkpt lat="24.062093" lon="111.728581">
<time>2016-10-06T12:23:25Z</time></trkpt>
<trkpt lat="24.062283" lon="111.728511">
<time>2016-10-06T12:23:26Z</time></trkpt>
<trkpt lat="24.062453" lon="111.728421">
<time>2016-10-06T12:23:27Z</time></trkpt>
<trkpt lat="24.063945" lon="111.727671">
<time>2016-10-06T12:23:28Z</time></trkpt>
<trkpt lat="24.066166" lon="111.726532">
<time>2016-10-06T12:23:29Z</time></trkpt>
<trkpt lat="24.068128" lon="111.725533">
<time>2016-10-06T12:23:30Z</time></trkpt>
<trkpt lat="24.070069" lon="111.724533">
<time>2016-10-06T12:23:31Z</time></trkpt>
<trkpt lat="24.07121" lon="111.723954">
<time>2016-10-06T12:23:32Z</time></trkpt>
<trkpt lat="24.07146" lon="111.723854">
<time>2016-10-06T12:23:33Z</time></trkpt>
<trkpt lat="24.071671" lon="111.723794">
<time>2016-10-06T12:23:34Z</time></trkpt>
<trkpt lat="24.071891" lon="111.723744">
<time>2016-10-06T12:23:35Z</time></trkpt>
<trkpt lat="24.072101" lon="111.723734">
<time>2016-10-06T12:23:36Z</time></trkpt>
<trkpt lat="24.072341" lon="111.723714">
<time>2016-10-06T12:23:37Z</time></trkpt>
<trkpt lat="24.072611" lon="111.723734">
<time>2016-10-06T12:23:38Z</time></trkpt>
<trkpt lat="24.072871" lon="111.723754">
<time>2016-10-06T12:23:39Z</time></trkpt>
<trkpt lat="24.073732" lon="111.723804">
<time>2016-10-06T12:23:40Z</time></trkpt>
<trkpt lat="24.074192" lon="111.723854">
<time>2016-10-06T12:23:41Z</time></trkpt>
<trkpt lat="24.074532" lon="111.723874">
<time>2016-10-06T12:23:42Z</time></trkpt>
<trkpt lat="24.074872" lon="111.723874">
<time>2016-10-06T12:23:43Z</time></trkpt>
<trkpt lat="24.075202" lon="111.723854">
<time>2016-10-06T12:23:44Z</time></trkpt>
<trkpt lat="24.075602" lon="111.723794">
<time>2016-10-06T12:23:45Z</time></trkpt>
<trkpt lat="24.075993" lon="111.723714">
<time>2016-10-06T12:23:46Z</time></trkpt>
<trkpt lat="24.078244" lon="111.723144">
<time>2016-10-06T12:23:47Z</time></trkpt>
<trkpt lat="24.078754" lon="111.723004">
<time>2016-10-06T12:23:48Z</time></trkpt>
<trkpt lat="24.079024" lon="111.722914">
<time>2016-10-06T12:23:49Z</time></trkpt>
<trkpt lat="24.079225" lon="111.722804">
<time>2016-10-06T12:23:50Z</time></trkpt>
<trkpt lat="24.079325" lon="111.722734">
<time>2016-10-06T12:23:51Z</time></trkpt>
<trkpt lat="24.079455" lon="111.722644">
<time>2016-10-06T12:23:52Z</time></trkpt>
<trkpt lat="24.079645" lon="111.722485">
<time>2016-10-06T12:23:53Z</time></trkpt>
<trkpt lat="24.080306" lon="111.721915">
<time>2016-10-06T12:23:54Z</time></trkpt>
<trkpt lat="24.080596" lon="111.721655">
<time>2016-10-06T12:23:55Z</time></trkpt>
<trkpt lat="24.080696" lon="111.721545">
<time>2016-10-06T12:23:56Z</time></trkpt>
<trkpt lat="24.080806" lon="111.721435">
<time>2016-10-06T12:23:57Z</time></trkpt>
<trkpt lat="24.080877" lon="111.721326">
<time>2016-10-06T12:23:58Z</time></trkpt>
<trkpt lat="24.080977" lon="111.721176">
<time>2016-10-06T12:23:59Z</time></trkpt>
<trkpt lat="24.081077" lon="111.720976">
<time>2016-10-06T12:24:00Z</time></trkpt>
<trkpt lat="24.081588" lon="111.719917">
<time>2016-10-06T12:24:01Z</time></trkpt>
<trkpt lat="24.081718" lon="111.719687">
<time>2016-10-06T12:24:02Z</time></trkpt>
<trkpt lat="24.081849" lon="111.719457">
<time>2016-10-06T12:24:03Z</time></trkpt>
<trkpt lat="24.081969" lon="111.719278">
<time>2016-10-06T12:24:04Z</time></trkpt>
<trkpt lat="24.082099" lon="111.719128">
<time>2016-10-06T12:24:05Z</time></trkpt>
<trkpt lat="24.082219" lon="111.719018">
<time>2016-10-06T12:24:06Z</time></trkpt>
<trkpt lat="24.082339" lon="111.718938">
<time>2016-10-06T12:24:07Z</time></trkpt>
<trkpt lat="24.08251" lon="111.718838">
<time>2016-10-06T12:24:08Z</time></trkpt>
<trkpt lat="24.08265" lon="111.718768">
<time>2016-10-06T12:24:09Z</time></trkpt>
<trkpt lat="24.0828" lon="111.718708">
<time>2016-10-06T12:24:10Z</time></trkpt>
<trkpt lat="24.08292" lon="111.718678">
<time>2016-10-06T12:24:11Z</time></trkpt>
<trkpt lat="24.08305" lon="111.718648">
<time>2016-10-06T12:24:12Z</time></trkpt>
<trkpt lat="24.08333" lon="111.718588">
<time>2016-10-06T12:24:13Z</time></trkpt>
<trkpt lat="24.084731" lon="111.718348">
<time>2016-10-06T12:24:14Z</time></trkpt>
<trkpt lat="24.085061" lon="111.718298">
<time>2016-10-06T12:24:15Z</time></trkpt>
<trkpt lat="24.085281" lon="111.718238">
<time>2016-10-06T12:24:16Z</time></trkpt>
<trkpt lat="24.085421" lon="111.718179">
<time>2016-10-06T12:24:17Z</time></trkpt>
<trkpt lat="24.085562" lon="111.718119">
<time>2016-10-06T12:24:18Z</time></trkpt>
<trkpt lat="24.085672" lon="111.718059">
<time>2016-10-06T12:24:19Z</time></trkpt>
<trkpt lat="24.085762" lon="111.717999">
<time>2016-10-06T12:24:20Z</time></trkpt>
<trkpt lat="24.086192" lon="111.717649">
<time>2016-10-06T12:24:21Z</time></trkpt>
<trkpt lat="24.086282" lon="111.717589">
<time>2016-10-06T12:24:22Z</time></trkpt>
<trkpt lat="24.086352" lon="111.717549">
<time>2016-10-06T12:24:23Z</time></trkpt>
<trkpt lat="24.086432" lon="111.717519">
<time>2016-10-06T12:24:24Z</time></trkpt>
<trkpt lat="24.086513" lon="111.717499">
<time>2016-10-06T12:24:25Z</time></trkpt>
<trkpt lat="24.086603" lon="111.717489">
<time>2016-10-06T12:24:26Z</time></trkpt>
<trkpt lat="24.086683" lon="111.717479">
<time>2016-10-06T12:24:27Z</time></trkpt>
<trkpt lat="24.086773" lon="111.717479">
<time>2016-10-06T12:24:28Z</time></trkpt>
<trkpt lat="24.086883" lon="111.717499">
<time>2016-10-06T12:24:29Z</time></trkpt>
<trkpt lat="24.087003" lon="111.717539">
<time>2016-10-06T12:24:30Z</time></trkpt>
<trkpt lat="24.087113" lon="111.717579">
<time>2016-10-06T12:24:31Z</time></trkpt>
<trkpt lat="24.087653" lon="111.717859">
<time>2016-10-06T12:24:32Z</time></trkpt>
<trkpt lat="24.088103" lon="111.718078">
<time>2016-10-06T12:24:33Z</time></trkpt>
<trkpt lat="24.088293" lon="111.718138">
<time>2016-10-06T12:24:34Z</time></trkpt>
<trkpt lat="24.088423" lon="111.718158">
<time>2016-10-06T12:24:35Z</time></trkpt>
<trkpt lat="24.088573" lon="111.718168">
<time>2016-10-06T12:24:36Z</time></trkpt>
<trkpt lat="24.088713" lon="111.718158">
<time>2016-10-06T12:24:37Z</time></trkpt>
<trkpt lat="24.088943" lon="111.718118">
<time>2016-10-06T12:24:38Z</time></trkpt>
<trkpt lat="24.090314" lon="111.717769">
<time>2016-10-06T12:24:39Z</time></trkpt>
<trkpt lat="24.090624" lon="111.717659">
<time>2016-10-06T12:24:40Z</time></trkpt>
<trkpt lat="24.090854" lon="111.717569">
<time>2016-10-06T12:24:41Z</time></trkpt>
<trkpt lat="24.091084" lon="111.717469">
<time>2016-10-06T12:24:42Z</time></trkpt>
<trkpt lat="24.091325" lon="111.717349">
<time>2016-10-06T12:24:43Z</time></trkpt>
<trkpt lat="24.091685" lon="111.717139">
<time>2016-10-06T12:24:44Z</time></trkpt>
<trkpt lat="24.092526" lon="111.71662">
<time>2016-10-06T12:24:45Z</time></trkpt>
<trkpt lat="24.092716" lon="111.71651">
<time>2016-10-06T12:24:46Z</time></trkpt>
<trkpt lat="24.092856" lon="111.71644">
<time>2016-10-06T12:24:47Z</time></trkpt>
<trkpt lat="24.093026" lon="111.71639">
<time>2016-10-06T12:24:48Z</time></trkpt>
<trkpt lat="24.093207" lon="111.71635">
<time>2016-10-06T12:24:49Z</time></trkpt>
<trkpt lat="24.093407" lon="111.71632">
<time>2016-10-06T12:24:50Z</time></trkpt>
<trkpt lat="24.093667" lon="111.71631">
<time>2016-10-06T12:24:51Z</time></trkpt>
<trkpt lat="24.094887" lon="111.71624">
<time>2016-10-06T12:24:52Z</time></trkpt>
<trkpt lat="24.096718" lon="111.71613">
<time>2016-10-06T12:24:53Z</time></trkpt>
<trkpt lat="24.096858" lon="111.71611">
<time>2016-10-06T12:24:54Z</time></trkpt>
<trkpt lat="24.097018" lon="111.71609">
<time>2016-10-06T12:24:55Z</time></trkpt>
<trkpt lat="24.097158" lon="111.71604">
<time>2016-10-06T12:24:56Z</time></trkpt>
<trkpt lat="24.097299" lon="111.71598">
<time>2016-10-06T12:24:57Z</time></trkpt>
<trkpt lat="24.097439" lon="111.71591">
<time>2016-10-06T12:24:58Z</time></trkpt>
<trkpt lat="24.097599" lon="111.71579">
<time>2016-10-06T12:24:59Z</time></trkpt>
<trkpt lat="24.097789" lon="111.715611">
<time>2016-10-06T12:25:00Z</time></trkpt>
<trkpt lat="24.099732" lon="111.713563">
<time>2016-10-06T12:25:01Z</time></trkpt>
<trkpt lat="24.100784" lon="111.712464">
<time>2016-10-06T12:25:02Z</time></trkpt>
<trkpt lat="24.100944" lon="111.712275">
<time>2016-10-06T12:25:03Z</time></trkpt>
<trkpt lat="24.101024" lon="111.712155">
<time>2016-10-06T12:25:04Z</time></trkpt>
<trkpt lat="24.101105" lon="111.712015">
<time>2016-10-06T12:25:05Z</time></trkpt>
<trkpt lat="24.101125" lon="111.711935">
<time>2016-10-06T12:25:06Z</time></trkpt>
<trkpt lat="24.101155" lon="111.711855">
<time>2016-10-06T12:25:07Z</time></trkpt>
<trkpt lat="24.101165" lon="111.711825">
<time>2016-10-06T12:25:08Z</time></trkpt>
<trkpt lat="24.101205" lon="111.711635">
<time>2016-10-06T12:25:09Z</time></trkpt>
<trkpt lat="24.101427" lon="111.710517">
<time>2016-10-06T12:25:10Z</time></trkpt>
<trkpt lat="24.101557" lon="111.709818">
<time>2016-10-06T12:25:11Z</time></trkpt>
<trkpt lat="24.101618" lon="111.709608">
<time>2016-10-06T12:25:12Z</time></trkpt>
<trkpt lat="24.101708" lon="111.709409">
<time>2016-10-06T12:25:13Z</time></trkpt>
<trkpt lat="24.101788" lon="111.709229">
<time>2016-10-06T12:25:14Z</time></trkpt>
<trkpt lat="24.101878" lon="111.709069">
<time>2016-10-06T12:25:15Z</time></trkpt>
<trkpt lat="24.101989" lon="111.708909">
<time>2016-10-06T12:25:16Z</time></trkpt>
<trkpt lat="24.102139" lon="111.708719">
<time>2016-10-06T12:25:17Z</time></trkpt>
<trkpt lat="24.102269" lon="111.70857">
<time>2016-10-06T12:25:18Z</time></trkpt>
<trkpt lat="24.10265" lon="111.70814">
<time>2016-10-06T12:25:19Z</time></trkpt>
<trkpt lat="24.103983" lon="111.706612">
<time>2016-10-06T12:25:20Z</time></trkpt>
<trkpt lat="24.104474" lon="111.706043">
<time>2016-10-06T12:25:21Z</time></trkpt>
<trkpt lat="24.104794" lon="111.705684">
<time>2016-10-06T12:25:22Z</time></trkpt>
<trkpt lat="24.104954" lon="111.705524">
<time>2016-10-06T12:25:23Z</time></trkpt>
<trkpt lat="24.105115" lon="111.705394">
<time>2016-10-06T12:25:24Z</time></trkpt>
<trkpt lat="24.105135" lon="111.705384">
<time>2016-10-06T12:25:25Z</time></trkpt>
<trkpt lat="24.105245" lon="111.705324">
<time>2016-10-06T12:25:26Z</time></trkpt>
<trkpt lat="24.105375" lon="111.705264">
<time>2016-10-06T12:25:27Z</time></trkpt>
<trkpt lat="24.105505" lon="111.705224">
<time>2016-10-06T12:25:28Z</time></trkpt>
<trkpt lat="24.105685" lon="111.705204">
<time>2016-10-06T12:25:29Z</time></trkpt>
<trkpt lat="24.105825" lon="111.705194">
<time>2016-10-06T12:25:30Z</time></trkpt>
<trkpt lat="24.106025" lon="111.705204">
<time>2016-10-06T12:25:31Z</time></trkpt>
<trkpt lat="24.106736" lon="111.705244">
<time>2016-10-06T12:25:32Z</time></trkpt>
<trkpt lat="24.108156" lon="111.705334">
<time>2016-10-06T12:25:33Z</time></trkpt>
<trkpt lat="24.108396" lon="111.705334">
<time>2016-10-06T12:25:34Z</time></trkpt>
<trkpt lat="24.108666" lon="111.705324">
<time>2016-10-06T12:25:35Z</time></trkpt>
<trkpt lat="24.108956" lon="111.705294">
<time>2016-10-06T12:25:36Z</time></trkpt>
<trkpt lat="24.109187" lon="111.705264">
<time>2016-10-06T12:25:37Z</time></trkpt>
<trkpt lat="24.110828" lon="111.704875">
<time>2016-10-06T12:25:38Z</time></trkpt>
<trkpt lat="24.11373" lon="111.704176">
<time>2016-10-06T12:25:39Z</time></trkpt>
<trkpt lat="24.11428" lon="111.704036">
<time>2016-10-06T12:25:40Z</time></trkpt>
<trkpt lat="24.114561" lon="111.703936">
<time>2016-10-06T12:25:41Z</time></trkpt>
<trkpt lat="24.114701" lon="111.703896">
<time>2016-10-06T12:25:42Z</time></trkpt>
<trkpt lat="24.114841" lon="111.703836">
<time>2016-10-06T12:25:43Z</time></trkpt>
<trkpt lat="24.115622" lon="111.703477">
<time>2016-10-06T12:25:44Z</time></trkpt>
<trkpt lat="24.116643" lon="111.702957">
<time>2016-10-06T12:25:45Z</time></trkpt>
<trkpt lat="24.117524" lon="111.702538">
<time>2016-10-06T12:25:46Z</time></trkpt>
<trkpt lat="24.117654" lon="111.702478">
<time>2016-10-06T12:25:47Z</time></trkpt>
<trkpt lat="24.117774" lon="111.702428">
<time>2016-10-06T12:25:48Z</time></trkpt>
<trkpt lat="24.117864" lon="111.702398">
<time>2016-10-06T12:25:49Z</time></trkpt>
<trkpt lat="24.117974" lon="111.702378">
<time>2016-10-06T12:25:50Z</time></trkpt>
<trkpt lat="24.118084" lon="111.702368">
<time>2016-10-06T12:25:51Z</time></trkpt>
<trkpt lat="24.118204" lon="111.702358">
<time>2016-10-06T12:25:52Z</time></trkpt>
<trkpt lat="24.118354" lon="111.702368">
<time>2016-10-06T12:25:53Z</time></trkpt>
<trkpt lat="24.118484" lon="111.702388">
<time>2016-10-06T12:25:54Z</time></trkpt>
<trkpt lat="24.118754" lon="111.702448">
<time>2016-10-06T12:25:55Z</time></trkpt>
<trkpt lat="24.123015" lon="111.703436">
<time>2016-10-06T12:25:56Z</time></trkpt>
<trkpt lat="24.123625" lon="111.703576">
<time>2016-10-06T12:25:57Z</time></trkpt>
<trkpt lat="24.123835" lon="111.703626">
<time>2016-10-06T12:25:58Z</time></trkpt>
<trkpt lat="24.124025" lon="111.703676">
<time>2016-10-06T12:25:59Z</time></trkpt>
<trkpt lat="24.124195" lon="111.703716">
<time>2016-10-06T12:26:00Z</time></trkpt>
<trkpt lat="24.124325" lon="111.703765">
<time>2016-10-06T12:26:01Z</time></trkpt>
<trkpt lat="24.124465" lon="111.703835">
<time>2016-10-06T12:26:02Z</time></trkpt>
<trkpt lat="24.124605" lon="111.703915">
<time>2016-10-06T12:26:03Z</time></trkpt>
<trkpt lat="24.124905" lon="111.704095">
<time>2016-10-06T12:26:04Z</time></trkpt>
<trkpt lat="24.125205" lon="111.704225">
<time>2016-10-06T12:26:05Z</time></trkpt>
<trkpt lat="24.125365" lon="111.704285">
<time>2016-10-06T12:26:06Z</time></trkpt>
<trkpt lat="24.125575" lon="111.704334">
<time>2016-10-06T12:26:07Z</time></trkpt>
<trkpt lat="24.125785" lon="111.704364">
<time>2016-10-06T12:26:08Z</time></trkpt>
<trkpt lat="24.125905" lon="111.704374">
<time>2016-10-06T12:26:09Z</time></trkpt>
<trkpt lat="24.126035" lon="111.704374">
<time>2016-10-06T12:26:10Z</time></trkpt>
<trkpt lat="24.126165" lon="111.704364">
<time>2016-10-06T12:26:11Z</time></trkpt>
<trkpt lat="24.126315" lon="111.704354">
<time>2016-10-06T12:26:12Z</time></trkpt>
<trkpt lat="24.126715" lon="111.704304">
<time>2016-10-06T12:26:13Z</time></trkpt>
<trkpt lat="24.126845" lon="111.704294">
<time>2016-10-06T12:26:14Z</time></trkpt>
<trkpt lat="24.126945" lon="111.704294">
<time>2016-10-06T12:26:15Z</time></trkpt>
<trkpt lat="24.127055" lon="111.704314">
<time>2016-10-06T12:26:16Z</time></trkpt>
<trkpt lat="24.127145" lon="111.704334">
<time>2016-10-06T12:26:17Z</time></trkpt>
<trkpt lat="24.127245" lon="111.704364">
<time>2016-10-06T12:26:18Z</time></trkpt>
<trkpt lat="24.127605" lon="111.704494">
<time>2016-10-06T12:26:19Z</time></trkpt>
<trkpt lat="24.127775" lon="111.704544">
<time>2016-10-06T12:26:20Z</time></trkpt>
<trkpt lat="24.127925" lon="111.704564">
<time>2016-10-06T12:26:21Z</time></trkpt>
<trkpt lat="24.128015" lon="111.704574">
<time>2016-10-06T12:26:22Z</time></trkpt>
<trkpt lat="24.128135" lon="111.704564">
<time>2016-10-06T12:26:23Z</time></trkpt>
<trkpt lat="24.128245" lon="111.704544">
<time>2016-10-06T12:26:24Z</time></trkpt>
<trkpt lat="24.128356" lon="111.704504">
<time>2016-10-06T12:26:25Z</time></trkpt>
<trkpt lat="24.128446" lon="111.704454">
<time>2016-10-06T12:26:26Z</time></trkpt>
<trkpt lat="24.128546" lon="111.704384">
<time>2016-10-06T12:26:27Z</time></trkpt>
<trkpt lat="24.128686" lon="111.704274">
<time>2016-10-06T12:26:28Z</time></trkpt>
<trkpt lat="24.128826" lon="111.704165">
<time>2016-10-06T12:26:29Z</time></trkpt>
<trkpt lat="24.130379" lon="111.702747">
<time>2016-10-06T12:26:30Z</time></trkpt>
<trkpt lat="24.130579" lon="111.702577">
<time>2016-10-06T12:26:31Z</time></trkpt>
<trkpt lat="24.130709" lon="111.702487">
<time>2016-10-06T12:26:32Z</time></trkpt>
<trkpt lat="24.13085" lon="111.702417">
<time>2016-10-06T12:26:33Z</time></trkpt>
<trkpt lat="24.13096" lon="111.702387">
<time>2016-10-06T12:26:34Z</time></trkpt>
<trkpt lat="24.13109" lon="111.702357">
<time>2016-10-06T12:26:35Z</time></trkpt>
<trkpt lat="24.13121" lon="111.702357">
<time>2016-10-06T12:26:36Z</time></trkpt>
<trkpt lat="24.13134" lon="111.702367">
<time>2016-10-06T12:26:37Z</time></trkpt>
<trkpt lat="24.13145" lon="111.702397">
<time>2016-10-06T12:26:38Z</time></trkpt>
<trkpt lat="24.13155" lon="111.702427">
<time>2016-10-06T12:26:39Z</time></trkpt>
<trkpt lat="24.13165" lon="111.702477">
<time>2016-10-06T12:26:40Z</time></trkpt>
<trkpt lat="24.13173" lon="111.702537">
<time>2016-10-06T12:26:41Z</time></trkpt>
<trkpt lat="24.13181" lon="111.702607">
<time>2016-10-06T12:26:42Z</time></trkpt>
<trkpt lat="24.13195" lon="111.702727">
<time>2016-10-06T12:26:43Z</time></trkpt>
<trkpt lat="24.13204" lon="111.702806">
<time>2016-10-06T12:26:44Z</time></trkpt>
<trkpt lat="24.132259" lon="111.702956">
<time>2016-10-06T12:26:45Z</time></trkpt>
<trkpt lat="24.132289" lon="111.702976">
<time>2016-10-06T12:26:46Z</time></trkpt>
<trkpt lat="24.132419" lon="111.703056">
<time>2016-10-06T12:26:47Z</time></trkpt>
<trkpt lat="24.132579" lon="111.703096">
<time>2016-10-06T12:26:48Z</time></trkpt>
<trkpt lat="24.132749" lon="111.703116">
<time>2016-10-06T12:26:49Z</time></trkpt>
<trkpt lat="24.132919" lon="111.703106">
<time>2016-10-06T12:26:50Z</time></trkpt>
<trkpt lat="24.13341" lon="111.703016">
<time>2016-10-06T12:26:51Z</time></trkpt>
<trkpt lat="24.136092" lon="111.702357">
<time>2016-10-06T12:26:52Z</time></trkpt>
<trkpt lat="24.136892" lon="111.702157">
<time>2016-10-06T12:26:53Z</time></trkpt>
<trkpt lat="24.137273" lon="111.702037">
<time>2016-10-06T12:26:54Z</time></trkpt>
<trkpt lat="24.137443" lon="111.701968">
<time>2016-10-06T12:26:55Z</time></trkpt>
<trkpt lat="24.137623" lon="111.701868">
<time>2016-10-06T12:26:56Z</time></trkpt>
<trkpt lat="24.137753" lon="111.701788">
<time>2016-10-06T12:26:57Z</time></trkpt>
<trkpt lat="24.137894" lon="111.701678">
<time>2016-10-06T12:26:58Z</time></trkpt>
<trkpt lat="24.138144" lon="111.701458">
<time>2016-10-06T12:26:59Z</time></trkpt>
<trkpt lat="24.138955" lon="111.700759">
<time>2016-10-06T12:27:00Z</time></trkpt>
<trkpt lat="24.139276" lon="111.7005">
<time>2016-10-06T12:27:01Z</time></trkpt>
<trkpt lat="24.139496" lon="111.70034">
<time>2016-10-06T12:27:02Z</time></trkpt>
<trkpt lat="24.139917" lon="111.70008">
<time>2016-10-06T12:27:03Z</time></trkpt>
<trkpt lat="24.140658" lon="111.699631">
<time>2016-10-06T12:27:04Z</time></trkpt>
<trkpt lat="24.141128" lon="111.699322">
<time>2016-10-06T12:27:05Z</time></trkpt>
<trkpt lat="24.141379" lon="111.699172">
<time>2016-10-06T12:27:06Z</time></trkpt>
<trkpt lat="24.141599" lon="111.699052">
<time>2016-10-06T12:27:07Z</time></trkpt>
<trkpt lat="24.141779" lon="111.698992">
<time>2016-10-06T12:27:08Z</time></trkpt>
<trkpt lat="24.141939" lon="111.698942">
<time>2016-10-06T12:27:09Z</time></trkpt>
<trkpt lat="24.142119" lon="111.698902">
<time>2016-10-06T12:27:10Z</time></trkpt>
<trkpt lat="24.14232" lon="111.698862">
<time>2016-10-06T12:27:11Z</time></trkpt>
<trkpt lat="24.14253" lon="111.698842">
<time>2016-10-06T12:27:12Z</time></trkpt>
<trkpt lat="24.14285" lon="111.698832">
<time>2016-10-06T12:27:13Z</time></trkpt>
<trkpt lat="24.14352" lon="111.698852">
<time>2016-10-06T12:27:14Z</time></trkpt>
<trkpt lat="24.144461" lon="111.698812">
<time>2016-10-06T12:27:15Z</time></trkpt>
<trkpt lat="24.146732" lon="111.698652">
<time>2016-10-06T12:27:16Z</time></trkpt>
<trkpt lat="24.147342" lon="111.698632">
<time>2016-10-06T12:27:17Z</time></trkpt>
<trkpt lat="24.147522" lon="111.698632">
<time>2016-10-06T12:27:18Z</time></trkpt>
<trkpt lat="24.147732" lon="111.698652">
<time>2016-10-06T12:27:19Z</time></trkpt>
<trkpt lat="24.147982" lon="111.698672">
<time>2016-10-06T12:27:20Z</time></trkpt>
<trkpt lat="24.148262" lon="111.698722">
<time>2016-10-06T12:27:21Z</time></trkpt>
<trkpt lat="24.148662" lon="111.698792">
<time>2016-10-06T12:27:22Z</time></trkpt>
<trkpt lat="24.149012" lon="111.698882">
<time>2016-10-06T12:27:23Z</time></trkpt>
<trkpt lat="24.150832" lon="111.699301">
<time>2016-10-06T12:27:24Z</time></trkpt>
<trkpt lat="24.151522" lon="111.699451">
<time>2016-10-06T12:27:25Z</time></trkpt>
<trkpt lat="24.151702" lon="111.699481">
<time>2016-10-06T12:27:26Z</time></trkpt>
<trkpt lat="24.151843" lon="111.699491">
<time>2016-10-06T12:27:27Z</time></trkpt>
<trkpt lat="24.152023" lon="111.699471">
<time>2016-10-06T12:27:28Z</time></trkpt>
<trkpt lat="24.152153" lon="111.699451">
<time>2016-10-06T12:27:29Z</time></trkpt>
<trkpt lat="24.152263" lon="111.699421">
<time>2016-10-06T12:27:30Z</time></trkpt>
<trkpt lat="24.152533" lon="111.699321">
<time>2016-10-06T12:27:31Z</time></trkpt>
<trkpt lat="24.152783" lon="111.699231">
<time>2016-10-06T12:27:32Z</time></trkpt>
<trkpt lat="24.153924" lon="111.698792">
<time>2016-10-06T12:27:33Z</time></trkpt>
<trkpt lat="24.154045" lon="111.698742">
<time>2016-10-06T12:27:34Z</time></trkpt>
<trkpt lat="24.154215" lon="111.698712">
<time>2016-10-06T12:27:35Z</time></trkpt>
<trkpt lat="24.154395" lon="111.698682">
<time>2016-10-06T12:27:36Z</time></trkpt>
<trkpt lat="24.154505" lon="111.698672">
<time>2016-10-06T12:27:37Z</time></trkpt>
<trkpt lat="24.154625" lon="111.698672">
<time>2016-10-06T12:27:38Z</time></trkpt>
<trkpt lat="24.154755" lon="111.698692">
<time>2016-10-06T12:27:39Z</time></trkpt>
<trkpt lat="24.154895" lon="111.698722">
<time>2016-10-06T12:27:40Z</time></trkpt>
<trkpt lat="24.155035" lon="111.698762">
<time>2016-10-06T12:27:41Z</time></trkpt>
<trkpt lat="24.155775" lon="111.698981">
<time>2016-10-06T12:27:42Z</time></trkpt>
<trkpt lat="24.155985" lon="111.699041">
<time>2016-10-06T12:27:43Z</time></trkpt>
<trkpt lat="24.156365" lon="111.699141">
<time>2016-10-06T12:27:44Z</time></trkpt>
<trkpt lat="24.156645" lon="111.699191">
<time>2016-10-06T12:27:45Z</time></trkpt>
<trkpt lat="24.156775" lon="111.699211">
<time>2016-10-06T12:27:46Z</time></trkpt>
<trkpt lat="24.156935" lon="111.699221">
<time>2016-10-06T12:27:47Z</time></trkpt>
<trkpt lat="24.157135" lon="111.699221">
<time>2016-10-06T12:27:48Z</time></trkpt>
<trkpt lat="24.158296" lon="111.699181">
<time>2016-10-06T12:27:49Z</time></trkpt>
<trkpt lat="24.159826" lon="111.699101">
<time>2016-10-06T12:27:50Z</time></trkpt>
<trkpt lat="24.160337" lon="111.699081">
<time>2016-10-06T12:27:51Z</time></trkpt>
<trkpt lat="24.160737" lon="111.699071">
<time>2016-10-06T12:27:52Z</time></trkpt>
<trkpt lat="24.161107" lon="111.699041">
<time>2016-10-06T12:27:53Z</time></trkpt>
<trkpt lat="24.162218" lon="111.698971">
<time>2016-10-06T12:27:54Z</time></trkpt>
<trkpt lat="24.162448" lon="111.698961">
<time>2016-10-06T12:27:55Z</time></trkpt>
<trkpt lat="24.162598" lon="111.698961">
<time>2016-10-06T12:27:56Z</time></trkpt>
<trkpt lat="24.162758" lon="111.698971">
<time>2016-10-06T12:27:57Z</time></trkpt>
<trkpt lat="24.162878" lon="111.698991">
<time>2016-10-06T12:27:58Z</time></trkpt>
<trkpt lat="24.162978" lon="111.699011">
<time>2016-10-06T12:27:59Z</time></trkpt>
<trkpt lat="24.163128" lon="111.699051">
<time>2016-10-06T12:28:00Z</time></trkpt>
<trkpt lat="24.163198" lon="111.699081">
<time>2016-10-06T12:28:01Z</time></trkpt>
<trkpt lat="24.163298" lon="111.699121">
<time>2016-10-06T12:28:02Z</time></trkpt>
<trkpt lat="24.163418" lon="111.69916">
<time>2016-10-06T12:28:03Z</time></trkpt>
<trkpt lat="24.163558" lon="111.69923">
<time>2016-10-06T12:28:04Z</time></trkpt>
<trkpt lat="24.163698" lon="111.6993">
<time>2016-10-06T12:28:05Z</time></trkpt>
<trkpt lat="24.163948" lon="111.69941">
<time>2016-10-06T12:28:06Z</time></trkpt>
<trkpt lat="24.164857" lon="111.699859">
<time>2016-10-06T12:28:07Z</time></trkpt>
<trkpt lat="24.165517" lon="111.700169">
<time>2016-10-06T12:28:08Z</time></trkpt>
<trkpt lat="24.165747" lon="111.700278">
<time>2016-10-06T12:28:09Z</time></trkpt>
<trkpt lat="24.165887" lon="111.700328">
<time>2016-10-06T12:28:10Z</time></trkpt>
<trkpt lat="24.165957" lon="111.700348">
<time>2016-10-06T12:28:11Z</time></trkpt>
<trkpt lat="24.166017" lon="111.700368">
<time>2016-10-06T12:28:12Z</time></trkpt>
<trkpt lat="24.166117" lon="111.700398">
<time>2016-10-06T12:28:13Z</time></trkpt>
<trkpt lat="24.166207" lon="111.700418">
<time>2016-10-06T12:28:14Z</time></trkpt>
<trkpt lat="24.166317" lon="111.700438">
<time>2016-10-06T12:28:15Z</time></trkpt>
<trkpt lat="24.166397" lon="111.700448">
<time>2016-10-06T12:28:16Z</time></trkpt>
<trkpt lat="24.166487" lon="111.700458">
<time>2016-10-06T12:28:17Z</time></trkpt>
<trkpt lat="24.166577" lon="111.700458">
<time>2016-10-06T12:28:18Z</time></trkpt>
<trkpt lat="24.166657" lon="111.700458">
<time>2016-10-06T12:28:19Z</time></trkpt>
<trkpt lat="24.166747" lon="111.700458">
<time>2016-10-06T12:28:20Z</time></trkpt>
<trkpt lat="24.166857" lon="111.700448">
<time>2016-10-06T12:28:21Z</time></trkpt>
<trkpt lat="24.166997" lon="111.700418">
<time>2016-10-06T12:28:22Z</time></trkpt>
<trkpt lat="24.167147" lon="111.700378">
<time>2016-10-06T12:28:23Z</time></trkpt>
<trkpt lat="24.167267" lon="111.700348">
<time>2016-10-06T12:28:24Z</time></trkpt>
<trkpt lat="24.167378" lon="111.700298">
<time>2016-10-06T12:28:25Z</time></trkpt>
<trkpt lat="24.167468" lon="111.700258">
<time>2016-10-06T12:28:26Z</time></trkpt>
<trkpt lat="24.167588" lon="111.700198">
<time>2016-10-06T12:28:27Z</time></trkpt>
<trkpt lat="24.167768" lon="111.700109">
<time>2016-10-06T12:28:28Z</time></trkpt>
<trkpt lat="24.168078" lon="111.699899">
<time>2016-10-06T12:28:29Z</time></trkpt>
<trkpt lat="24.168499" lon="111.699629">
<time>2016-10-06T12:28:30Z</time></trkpt>
<trkpt lat="24.168859" lon="111.69943">
<time>2016-10-06T12:28:31Z</time></trkpt>
<trkpt lat="24.16901" lon="111.69936">
<time>2016-10-06T12:28:32Z</time></trkpt>
<trkpt lat="24.16921" lon="111.69929">
<time>2016-10-06T12:28:33Z</time></trkpt>
<trkpt lat="24.16941" lon="111.69923">
<time>2016-10-06T12:28:34Z</time></trkpt>
<trkpt lat="24.16978" lon="111.69914">
<time>2016-10-06T12:28:35Z</time></trkpt>
<trkpt lat="24.172132" lon="111.698691">
<time>2016-10-06T12:28:36Z</time></trkpt>
<trkpt lat="24.172382" lon="111.698651">
<time>2016-10-06T12:28:37Z</time></trkpt>
<trkpt lat="24.172632" lon="111.698621">
<time>2016-10-06T12:28:38Z</time></trkpt>
<trkpt lat="24.172932" lon="111.698621">
<time>2016-10-06T12:28:39Z</time></trkpt>
<trkpt lat="24.173192" lon="111.698631">
<time>2016-10-06T12:28:40Z</time></trkpt>
<trkpt lat="24.173422" lon="111.698661">
<time>2016-10-06T12:28:41Z</time></trkpt>
<trkpt lat="24.173612" lon="111.698711">
<time>2016-10-06T12:28:42Z</time></trkpt>
<trkpt lat="24.173792" lon="111.69876">
<time>2016-10-06T12:28:43Z</time></trkpt>
<trkpt lat="24.173992" lon="111.69883">
<time>2016-10-06T12:28:44Z</time></trkpt>
<trkpt lat="24.174292" lon="111.69894">
<time>2016-10-06T12:28:45Z</time></trkpt>
<trkpt lat="24.174952" lon="111.69922">
<time>2016-10-06T12:28:46Z</time></trkpt>
<trkpt lat="24.176092" lon="111.699719">
<time>2016-10-06T12:28:47Z</time></trkpt>
<trkpt lat="24.176772" lon="111.699998">
<time>2016-10-06T12:28:48Z</time></trkpt>
<trkpt lat="24.177242" lon="111.700188">
<time>2016-10-06T12:28:49Z</time></trkpt>
<trkpt lat="24.177502" lon="111.700268">
<time>2016-10-06T12:28:50Z</time></trkpt>
<trkpt lat="24.177832" lon="111.700357">
<time>2016-10-06T12:28:51Z</time></trkpt>
<trkpt lat="24.178182" lon="111.700407">
<time>2016-10-06T12:28:52Z</time></trkpt>
<trkpt lat="24.178442" lon="111.700417">
<time>2016-10-06T12:28:53Z</time></trkpt>
<trkpt lat="24.178722" lon="111.700417">
<time>2016-10-06T12:28:54Z</time></trkpt>
<trkpt lat="24.178982" lon="111.700407">
<time>2016-10-06T12:28:55Z</time></trkpt>
<trkpt lat="24.179242" lon="111.700367">
<time>2016-10-06T12:28:56Z</time></trkpt>
<trkpt lat="24.179512" lon="111.700317">
<time>2016-10-06T12:28:57Z</time></trkpt>
<trkpt lat="24.179773" lon="111.700248">
<time>2016-10-06T12:28:58Z</time></trkpt>
<trkpt lat="24.180273" lon="111.700108">
<time>2016-10-06T12:28:59Z</time></trkpt>
<trkpt lat="24.180663" lon="111.699998">
<time>2016-10-06T12:29:00Z</time></trkpt>
<trkpt lat="24.180934" lon="111.699938">
<time>2016-10-06T12:29:01Z</time></trkpt>
<trkpt lat="24.181214" lon="111.699898">
<time>2016-10-06T12:29:02Z</time></trkpt>
<trkpt lat="24.181484" lon="111.699878">
<time>2016-10-06T12:29:03Z</time></trkpt>
<trkpt lat="24.181694" lon="111.699888">
<time>2016-10-06T12:29:04Z</time></trkpt>
<trkpt lat="24.181924" lon="111.699908">
<time>2016-10-06T12:29:05Z</time></trkpt>
<trkpt lat="24.182124" lon="111.699948">
<time>2016-10-06T12:29:06Z</time></trkpt>
<trkpt lat="24.182354" lon="111.700008">
<time>2016-10-06T12:29:07Z</time></trkpt>
<trkpt lat="24.182644" lon="111.700118">
<time>2016-10-06T12:29:08Z</time></trkpt>
<trkpt lat="24.182834" lon="111.700197">
<time>2016-10-06T12:29:09Z</time></trkpt>
<trkpt lat="24.184543" lon="111.701016">
<time>2016-10-06T12:29:10Z</time></trkpt>
<trkpt lat="24.185643" lon="111.701505">
<time>2016-10-06T12:29:11Z</time></trkpt>
<trkpt lat="24.186083" lon="111.701655">
<time>2016-10-06T12:29:12Z</time></trkpt>
<trkpt lat="24.186423" lon="111.701745">
<time>2016-10-06T12:29:13Z</time></trkpt>
<trkpt lat="24.186833" lon="111.701804">
<time>2016-10-06T12:29:14Z</time></trkpt>
<trkpt lat="24.187413" lon="111.701874">
<time>2016-10-06T12:29:15Z</time></trkpt>
<trkpt lat="24.188804" lon="111.701994">
<time>2016-10-06T12:29:16Z</time></trkpt>
<trkpt lat="24.190444" lon="111.702154">
<time>2016-10-06T12:29:17Z</time></trkpt>
<trkpt lat="24.191004" lon="111.702194">
<time>2016-10-06T12:29:18Z</time></trkpt>
<trkpt lat="24.191204" lon="111.702194">
<time>2016-10-06T12:29:19Z</time></trkpt>
<trkpt lat="24.191334" lon="111.702184">
<time>2016-10-06T12:29:20Z</time></trkpt>
<trkpt lat="24.191474" lon="111.702174">
<time>2016-10-06T12:29:21Z</time></trkpt>
<trkpt lat="24.191585" lon="111.702154">
<time>2016-10-06T12:29:22Z</time></trkpt>
<trkpt lat="24.191685" lon="111.702124">
<time>2016-10-06T12:29:23Z</time></trkpt>
<trkpt lat="24.191785" lon="111.702084">
<time>2016-10-06T12:29:24Z</time></trkpt>
<trkpt lat="24.191875" lon="111.702034">
<time>2016-10-06T12:29:25Z</time></trkpt>
<trkpt lat="24.191965" lon="111.701974">
<time>2016-10-06T12:29:26Z</time></trkpt>
<trkpt lat="24.192075" lon="111.701894">
<time>2016-10-06T12:29:27Z</time></trkpt>
<trkpt lat="24.192185" lon="111.701814">
<time>2016-10-06T12:29:28Z</time></trkpt>
<trkpt lat="24.192486" lon="111.701535">
<time>2016-10-06T12:29:29Z</time></trkpt>
<trkpt lat="24.192816" lon="111.701215">
<time>2016-10-06T12:29:30Z</time></trkpt>
<trkpt lat="24.193918" lon="111.700137">
<time>2016-10-06T12:29:31Z</time></trkpt>
<trkpt lat="24.196092" lon="111.698">
<time>2016-10-06T12:29:32Z</time></trkpt>
<trkpt lat="24.196593" lon="111.697521">
<time>2016-10-06T12:29:33Z</time></trkpt>
<trkpt lat="24.196974" lon="111.697142">
<time>2016-10-06T12:29:34Z</time></trkpt>
<trkpt lat="24.197305" lon="111.696832">
<time>2016-10-06T12:29:35Z</time></trkpt>
<trkpt lat="24.197425" lon="111.696732">
<time>2016-10-06T12:29:36Z</time></trkpt>
<trkpt lat="24.197525" lon="111.696673">
<time>2016-10-06T12:29:37Z</time></trkpt>
<trkpt lat="24.197645" lon="111.696593">
<time>2016-10-06T12:29:38Z</time></trkpt>
<trkpt lat="24.197755" lon="111.696543">
<time>2016-10-06T12:29:39Z</time></trkpt>
<trkpt lat="24.197876" lon="111.696503">
<time>2016-10-06T12:29:40Z</time></trkpt>
<trkpt lat="24.198026" lon="111.696463">
<time>2016-10-06T12:29:41Z</time></trkpt>
<trkpt lat="24.198176" lon="111.696443">
<time>2016-10-06T12:29:42Z</time></trkpt>
<trkpt lat="24.198296" lon="111.696433">
<time>2016-10-06T12:29:43Z</time></trkpt>
<trkpt lat="24.198416" lon="111.696433">
<time>2016-10-06T12:29:44Z</time></trkpt>
<trkpt lat="24.198616" lon="111.696443">
<time>2016-10-06T12:29:45Z</time></trkpt>
<trkpt lat="24.199506" lon="111.696573">
<time>2016-10-06T12:29:46Z</time></trkpt>
<trkpt lat="24.199916" lon="111.696622">
<time>2016-10-06T12:29:47Z</time></trkpt>
<trkpt lat="24.200076" lon="111.696622">
<time>2016-10-06T12:29:48Z</time></trkpt>
<trkpt lat="24.200256" lon="111.696612">
<time>2016-10-06T12:29:49Z</time></trkpt>
<trkpt lat="24.200406" lon="111.696583">
<time>2016-10-06T12:29:50Z</time></trkpt>
<trkpt lat="24.200566" lon="111.696543">
<time>2016-10-06T12:29:51Z</time></trkpt>
<trkpt lat="24.200707" lon="111.696483">
<time>2016-10-06T12:29:52Z</time></trkpt>
<trkpt lat="24.200827" lon="111.696423">
<time>2016-10-06T12:29:53Z</time></trkpt>
<trkpt lat="24.200947" lon="111.696343">
<time>2016-10-06T12:29:54Z</time></trkpt>
<trkpt lat="24.201057" lon="111.696273">
<time>2016-10-06T12:29:55Z</time></trkpt>
<trkpt lat="24.201157" lon="111.696193">
<time>2016-10-06T12:29:56Z</time></trkpt>
<trkpt lat="24.201247" lon="111.696093">
<time>2016-10-06T12:29:57Z</time></trkpt>
<trkpt lat="24.202059" lon="111.695335">
<time>2016-10-06T12:29:58Z</time></trkpt>
<trkpt lat="24.202169" lon="111.695225">
<time>2016-10-06T12:29:59Z</time></trkpt>
<trkpt lat="24.202299" lon="111.695135">
<time>2016-10-06T12:30:00Z</time></trkpt>
<trkpt lat="24.20241" lon="111.695055">
<time>2016-10-06T12:30:01Z</time></trkpt>
<trkpt lat="24.20252" lon="111.694995">
<time>2016-10-06T12:30:02Z</time></trkpt>
<trkpt lat="24.20261" lon="111.694955">
<time>2016-10-06T12:30:03Z</time></trkpt>
<trkpt lat="24.20274" lon="111.694915">
<time>2016-10-06T12:30:04Z</time></trkpt>
<trkpt lat="24.20292" lon="111.694865">
<time>2016-10-06T12:30:05Z</time></trkpt>
<trkpt lat="24.203691" lon="111.694676">
<time>2016-10-06T12:30:06Z</time></trkpt>
<trkpt lat="24.203991" lon="111.694596">
<time>2016-10-06T12:30:07Z</time></trkpt>
<trkpt lat="24.204121" lon="111.694546">
<time>2016-10-06T12:30:08Z</time></trkpt>
<trkpt lat="24.204291" lon="111.694456">
<time>2016-10-06T12:30:09Z</time></trkpt>
<trkpt lat="24.204421" lon="111.694366">
<time>2016-10-06T12:30:10Z</time></trkpt>
<trkpt lat="24.204532" lon="111.694276">
<time>2016-10-06T12:30:11Z</time></trkpt>
<trkpt lat="24.204612" lon="111.694187">
<time>2016-10-06T12:30:12Z</time></trkpt>
<trkpt lat="24.204672" lon="111.694087">
<time>2016-10-06T12:30:13Z</time></trkpt>
<trkpt lat="24.204742" lon="111.693947">
<time>2016-10-06T12:30:14Z</time></trkpt>
<trkpt lat="24.204803" lon="111.693797">
<time>2016-10-06T12:30:15Z</time></trkpt>
<trkpt lat="24.204853" lon="111.693628">
<time>2016-10-06T12:30:16Z</time></trkpt>
<trkpt lat="24.204883" lon="111.693468">
<time>2016-10-06T12:30:17Z</time></trkpt>
<trkpt lat="24.204924" lon="111.693188">
<time>2016-10-06T12:30:18Z</time></trkpt>
<trkpt lat="24.205035" lon="111.692649">
<time>2016-10-06T12:30:19Z</time></trkpt>
<trkpt lat="24.205105" lon="111.69242">
<time>2016-10-06T12:30:20Z</time></trkpt>
<trkpt lat="24.205175" lon="111.69226">
<time>2016-10-06T12:30:21Z</time></trkpt>
<trkpt lat="24.205235" lon="111.69211">
<time>2016-10-06T12:30:22Z</time></trkpt>
<trkpt lat="24.205316" lon="111.691961">
<time>2016-10-06T12:30:23Z</time></trkpt>
<trkpt lat="24.205426" lon="111.691811">
<time>2016-10-06T12:30:24Z</time></trkpt>
<trkpt lat="24.205536" lon="111.691691">
<time>2016-10-06T12:30:25Z</time></trkpt>
<trkpt lat="24.205677" lon="111.691551">
<time>2016-10-06T12:30:26Z</time></trkpt>
<trkpt lat="24.205857" lon="111.691392">
<time>2016-10-06T12:30:27Z</time></trkpt>
<trkpt lat="24.205977" lon="111.691282">
<time>2016-10-06T12:30:28Z</time></trkpt>
<trkpt lat="24.206698" lon="111.690743">
<time>2016-10-06T12:30:29Z</time></trkpt>
<trkpt lat="24.208391" lon="111.689455">
<time>2016-10-06T12:30:30Z</time></trkpt>
<trkpt lat="24.209062" lon="111.688936">
<time>2016-10-06T12:30:31Z</time></trkpt>
<trkpt lat="24.210084" lon="111.688168">
<time>2016-10-06T12:30:32Z</time></trkpt>
<trkpt lat="24.210425" lon="111.687908">
<time>2016-10-06T12:30:33Z</time></trkpt>
<trkpt lat="24.210635" lon="111.687759">
<time>2016-10-06T12:30:34Z</time></trkpt>
<trkpt lat="24.210885" lon="111.687599">
<time>2016-10-06T12:30:35Z</time></trkpt>
<trkpt lat="24.211156" lon="111.687439">
<time>2016-10-06T12:30:36Z</time></trkpt>
<trkpt lat="24.211586" lon="111.68721">
<time>2016-10-06T12:30:37Z</time></trkpt>
<trkpt lat="24.211967" lon="111.68703">
<time>2016-10-06T12:30:38Z</time></trkpt>
<trkpt lat="24.212658" lon="111.68674">
<time>2016-10-06T12:30:39Z</time></trkpt>
<trkpt lat="24.21471" lon="111.685882">
<time>2016-10-06T12:30:40Z</time></trkpt>
<trkpt lat="24.2152" lon="111.685672">
<time>2016-10-06T12:30:41Z</time></trkpt>
<trkpt lat="24.215561" lon="111.685493">
<time>2016-10-06T12:30:42Z</time></trkpt>
<trkpt lat="24.215601" lon="111.685463">
<time>2016-10-06T12:30:43Z</time></trkpt>
<trkpt lat="24.215901" lon="111.685263">
<time>2016-10-06T12:30:44Z</time></trkpt>
<trkpt lat="24.216102" lon="111.685113">
<time>2016-10-06T12:30:45Z</time></trkpt>
<trkpt lat="24.216743" lon="111.684575">
<time>2016-10-06T12:30:46Z</time></trkpt>
<trkpt lat="24.217043" lon="111.684355">
<time>2016-10-06T12:30:47Z</time></trkpt>
<trkpt lat="24.217043" lon="111.684355">
<time>2016-10-06T12:30:48Z</time></trkpt>
<trkpt lat="24.217054" lon="111.684315">
<time>2016-10-06T12:30:49Z</time></trkpt>
<trkpt lat="24.217104" lon="111.684275">
<time>2016-10-06T12:30:50Z</time></trkpt>
<trkpt lat="24.217164" lon="111.684225">
<time>2016-10-06T12:30:51Z</time></trkpt>
<trkpt lat="24.217204" lon="111.684225">
<time>2016-10-06T12:30:52Z</time></trkpt>
<trkpt lat="24.217785" lon="111.683706">
<time>2016-10-06T12:30:53Z</time></trkpt>
<trkpt lat="24.217855" lon="111.683636">
<time>2016-10-06T12:30:54Z</time></trkpt>
<trkpt lat="24.217935" lon="111.683576">
<time>2016-10-06T12:30:55Z</time></trkpt>
<trkpt lat="24.218126" lon="111.683407">
<time>2016-10-06T12:30:56Z</time></trkpt>
<trkpt lat="24.218196" lon="111.683347">
<time>2016-10-06T12:30:57Z</time></trkpt>
<trkpt lat="24.218256" lon="111.683287">
<time>2016-10-06T12:30:58Z</time></trkpt>
<trkpt lat="24.218587" lon="111.682888">
<time>2016-10-06T12:30:59Z</time></trkpt>
<trkpt lat="24.218747" lon="111.682698">
<time>2016-10-06T12:31:00Z</time></trkpt>
<trkpt lat="24.218928" lon="111.682459">
<time>2016-10-06T12:31:01Z</time></trkpt>
<trkpt lat="24.219198" lon="111.68205">
<time>2016-10-06T12:31:02Z</time></trkpt>
<trkpt lat="24.219499" lon="111.681521">
<time>2016-10-06T12:31:03Z</time></trkpt>
<trkpt lat="24.21963" lon="111.681291">
<time>2016-10-06T12:31:04Z</time></trkpt>
<trkpt lat="24.219841" lon="111.680942">
<time>2016-10-06T12:31:05Z</time></trkpt>
<trkpt lat="24.220172" lon="111.680333">
<time>2016-10-06T12:31:06Z</time></trkpt>
<trkpt lat="24.220544" lon="111.679525">
<time>2016-10-06T12:31:07Z</time></trkpt>
<trkpt lat="24.220795" lon="111.678876">
<time>2016-10-06T12:31:08Z</time></trkpt>
<trkpt lat="24.220926" lon="111.678517">
<time>2016-10-06T12:31:09Z</time></trkpt>
<trkpt lat="24.220946" lon="111.678427">
<time>2016-10-06T12:31:10Z</time></trkpt>
<trkpt lat="24.220976" lon="111.678327">
<time>2016-10-06T12:31:11Z</time></trkpt>
<trkpt lat="24.221167" lon="111.677539">
<time>2016-10-06T12:31:12Z</time></trkpt>
<trkpt lat="24.221188" lon="111.677449">
<time>2016-10-06T12:31:13Z</time></trkpt>
<trkpt lat="24.221228" lon="111.67726">
<time>2016-10-06T12:31:14Z</time></trkpt>
<trkpt lat="24.221279" lon="111.67697">
<time>2016-10-06T12:31:15Z</time></trkpt>
<trkpt lat="24.221289" lon="111.67687">
<time>2016-10-06T12:31:16Z</time></trkpt>
<trkpt lat="24.22136" lon="111.676401">
<time>2016-10-06T12:31:17Z</time></trkpt>
<trkpt lat="24.22137" lon="111.676332">
<time>2016-10-06T12:31:18Z</time></trkpt>
<trkpt lat="24.22139" lon="111.676232">
<time>2016-10-06T12:31:19Z</time></trkpt>
<trkpt lat="24.22139" lon="111.676212">
<time>2016-10-06T12:31:20Z</time></trkpt>
<trkpt lat="24.2214" lon="111.676112">
<time>2016-10-06T12:31:21Z</time></trkpt>
<trkpt lat="24.221431" lon="111.675902">
<time>2016-10-06T12:31:22Z</time></trkpt>
<trkpt lat="24.221431" lon="111.675863">
<time>2016-10-06T12:31:23Z</time></trkpt>
<trkpt lat="24.221441" lon="111.675783">
<time>2016-10-06T12:31:24Z</time></trkpt>
<trkpt lat="24.221461" lon="111.675603">
<time>2016-10-06T12:31:25Z</time></trkpt>
<trkpt lat="24.221563" lon="111.674745">
<time>2016-10-06T12:31:26Z</time></trkpt>
<trkpt lat="24.221583" lon="111.674645">
<time>2016-10-06T12:31:27Z</time></trkpt>
<trkpt lat="24.221593" lon="111.674545">
<time>2016-10-06T12:31:28Z</time></trkpt>
<trkpt lat="24.221613" lon="111.674456">
<time>2016-10-06T12:31:29Z</time></trkpt>
<trkpt lat="24.221644" lon="111.674356">
<time>2016-10-06T12:31:30Z</time></trkpt>
<trkpt lat="24.221664" lon="111.674266">
<time>2016-10-06T12:31:31Z</time></trkpt>
<trkpt lat="24.221694" lon="111.674176">
<time>2016-10-06T12:31:32Z</time></trkpt>
<trkpt lat="24.221855" lon="111.673877">
<time>2016-10-06T12:31:33Z</time></trkpt>
<trkpt lat="24.221925" lon="111.673747">
<time>2016-10-06T12:31:34Z</time></trkpt>
<trkpt lat="24.222035" lon="111.673567">
<time>2016-10-06T12:31:35Z</time></trkpt>
<trkpt lat="24.222186" lon="111.673368">
<time>2016-10-06T12:31:36Z</time></trkpt>
<trkpt lat="24.222366" lon="111.673138">
<time>2016-10-06T12:31:37Z</time></trkpt>
<trkpt lat="24.222537" lon="111.672949">
<time>2016-10-06T12:31:38Z</time></trkpt>
<trkpt lat="24.223288" lon="111.67215">
<time>2016-10-06T12:31:39Z</time></trkpt>
<trkpt lat="24.22379" lon="111.671642">
<time>2016-10-06T12:31:40Z</time></trkpt>
<trkpt lat="24.22405" lon="111.671382">
<time>2016-10-06T12:31:41Z</time></trkpt>
<trkpt lat="24.224221" lon="111.671242">
<time>2016-10-06T12:31:42Z</time></trkpt>
<trkpt lat="24.224431" lon="111.671073">
<time>2016-10-06T12:31:43Z</time></trkpt>
<trkpt lat="24.224601" lon="111.670943">
<time>2016-10-06T12:31:44Z</time></trkpt>
<trkpt lat="24.224772" lon="111.670823">
<time>2016-10-06T12:31:45Z</time></trkpt>
<trkpt lat="24.224932" lon="111.670713">
<time>2016-10-06T12:31:46Z</time></trkpt>
<trkpt lat="24.225863" lon="111.670135">
<time>2016-10-06T12:31:47Z</time></trkpt>
<trkpt lat="24.226234" lon="111.669895">
<time>2016-10-06T12:31:48Z</time></trkpt>
<trkpt lat="24.226775" lon="111.669516">
<time>2016-10-06T12:31:49Z</time></trkpt>
<trkpt lat="24.227917" lon="111.668688">
<time>2016-10-06T12:31:50Z</time></trkpt>
<trkpt lat="24.230251" lon="111.666981">
<time>2016-10-06T12:31:51Z</time></trkpt>
<trkpt lat="24.230762" lon="111.666612">
<time>2016-10-06T12:31:52Z</time></trkpt>
<trkpt lat="24.230962" lon="111.666472">
<time>2016-10-06T12:31:53Z</time></trkpt>
<trkpt lat="24.231102" lon="111.666393">
<time>2016-10-06T12:31:54Z</time></trkpt>
<trkpt lat="24.231253" lon="111.666313">
<time>2016-10-06T12:31:55Z</time></trkpt>
<trkpt lat="24.231383" lon="111.666253">
<time>2016-10-06T12:31:56Z</time></trkpt>
<trkpt lat="24.231503" lon="111.666203">
<time>2016-10-06T12:31:57Z</time></trkpt>
<trkpt lat="24.231663" lon="111.666173">
<time>2016-10-06T12:31:58Z</time></trkpt>
<trkpt lat="24.231823" lon="111.666143">
<time>2016-10-06T12:31:59Z</time></trkpt>
<trkpt lat="24.231993" lon="111.666143">
<time>2016-10-06T12:32:00Z</time></trkpt>
<trkpt lat="24.232163" lon="111.666153">
<time>2016-10-06T12:32:01Z</time></trkpt>
<trkpt lat="24.232303" lon="111.666173">
<time>2016-10-06T12:32:02Z</time></trkpt>
<trkpt lat="24.232453" lon="111.666213">
<time>2016-10-06T12:32:03Z</time></trkpt>
<trkpt lat="24.232643" lon="111.666283">
<time>2016-10-06T12:32:04Z</time></trkpt>
<trkpt lat="24.232823" lon="111.666372">
<time>2016-10-06T12:32:05Z</time></trkpt>
<trkpt lat="24.233193" lon="111.666572">
<time>2016-10-06T12:32:06Z</time></trkpt>
<trkpt lat="24.233323" lon="111.666652">
<time>2016-10-06T12:32:07Z</time></trkpt>
<trkpt lat="24.233543" lon="111.666752">
<time>2016-10-06T12:32:08Z</time></trkpt>
<trkpt lat="24.233713" lon="111.666811">
<time>2016-10-06T12:32:09Z</time></trkpt>
<trkpt lat="24.233863" lon="111.666861">
<time>2016-10-06T12:32:10Z</time></trkpt>
<trkpt lat="24.234033" lon="111.666891">
<time>2016-10-06T12:32:11Z</time></trkpt>
<trkpt lat="24.234183" lon="111.666911">
<time>2016-10-06T12:32:12Z</time></trkpt>
<trkpt lat="24.234333" lon="111.666901">
<time>2016-10-06T12:32:13Z</time></trkpt>
<trkpt lat="24.234483" lon="111.666891">
<time>2016-10-06T12:32:14Z</time></trkpt>
<trkpt lat="24.234593" lon="111.666871">
<time>2016-10-06T12:32:15Z</time></trkpt>
<trkpt lat="24.234713" lon="111.666841">
<time>2016-10-06T12:32:16Z</time></trkpt>
<trkpt lat="24.234823" lon="111.666801">
<time>2016-10-06T12:32:17Z</time></trkpt>
<trkpt lat="24.234923" lon="111.666752">
<time>2016-10-06T12:32:18Z</time></trkpt>
<trkpt lat="24.235063" lon="111.666692">
<time>2016-10-06T12:32:19Z</time></trkpt>
<trkpt lat="24.235234" lon="111.666592">
<time>2016-10-06T12:32:20Z</time></trkpt>
<trkpt lat="24.235574" lon="111.666342">
<time>2016-10-06T12:32:21Z</time></trkpt>
<trkpt lat="24.236356" lon="111.665644">
<time>2016-10-06T12:32:22Z</time></trkpt>
<trkpt lat="24.237408" lon="111.664706">
<time>2016-10-06T12:32:23Z</time></trkpt>
<trkpt lat="24.237769" lon="111.664396">
<time>2016-10-06T12:32:24Z</time></trkpt>
<trkpt lat="24.237939" lon="111.664257">
<time>2016-10-06T12:32:25Z</time></trkpt>
<trkpt lat="24.238099" lon="111.664147">
<time>2016-10-06T12:32:26Z</time></trkpt>
<trkpt lat="24.23833" lon="111.663997">
<time>2016-10-06T12:32:27Z</time></trkpt>
<trkpt lat="24.23846" lon="111.663927">
<time>2016-10-06T12:32:28Z</time></trkpt>
<trkpt lat="24.23863" lon="111.663858">
<time>2016-10-06T12:32:29Z</time></trkpt>
<trkpt lat="24.2388" lon="111.663798">
<time>2016-10-06T12:32:30Z</time></trkpt>
<trkpt lat="24.23897" lon="111.663758">
<time>2016-10-06T12:32:31Z</time></trkpt>
<trkpt lat="24.23913" lon="111.663718">
<time>2016-10-06T12:32:32Z</time></trkpt>
<trkpt lat="24.239271" lon="111.663698">
<time>2016-10-06T12:32:33Z</time></trkpt>
<trkpt lat="24.239421" lon="111.663688">
<time>2016-10-06T12:32:34Z</time></trkpt>
<trkpt lat="24.239601" lon="111.663678">
<time>2016-10-06T12:32:35Z</time></trkpt>
<trkpt lat="24.239821" lon="111.663698">
<time>2016-10-06T12:32:36Z</time></trkpt>
<trkpt lat="24.239941" lon="111.663718">
<time>2016-10-06T12:32:37Z</time></trkpt>
<trkpt lat="24.240081" lon="111.663748">
<time>2016-10-06T12:32:38Z</time></trkpt>
<trkpt lat="24.240241" lon="111.663788">
<time>2016-10-06T12:32:39Z</time></trkpt>
<trkpt lat="24.240361" lon="111.663828">
<time>2016-10-06T12:32:40Z</time></trkpt>
<trkpt lat="24.240571" lon="111.663887">
<time>2016-10-06T12:32:41Z</time></trkpt>
<trkpt lat="24.240831" lon="111.663987">
<time>2016-10-06T12:32:42Z</time></trkpt>
<trkpt lat="24.24157" lon="111.664257">
<time>2016-10-06T12:32:43Z</time></trkpt>
<trkpt lat="24.24186" lon="111.664356">
<time>2016-10-06T12:32:44Z</time></trkpt>
<trkpt lat="24.24221" lon="111.664476">
<time>2016-10-06T12:32:45Z</time></trkpt>
<trkpt lat="24.2426" lon="111.664576">
<time>2016-10-06T12:32:46Z</time></trkpt>
<trkpt lat="24.24298" lon="111.664666">
<time>2016-10-06T12:32:47Z</time></trkpt>
<trkpt lat="24.24329" lon="111.664715">
<time>2016-10-06T12:32:48Z</time></trkpt>
<trkpt lat="24.24393" lon="111.664795">
<time>2016-10-06T12:32:49Z</time></trkpt>
<trkpt lat="24.24444" lon="111.664855">
<time>2016-10-06T12:32:50Z</time></trkpt>
<trkpt lat="24.2453" lon="111.664945">
<time>2016-10-06T12:32:51Z</time></trkpt>
<trkpt lat="24.24605" lon="111.665035">
<time>2016-10-06T12:32:52Z</time></trkpt>
<trkpt lat="24.247511" lon="111.665194">
<time>2016-10-06T12:32:53Z</time></trkpt>
<trkpt lat="24.248051" lon="111.665254">
<time>2016-10-06T12:32:54Z</time></trkpt>
<trkpt lat="24.248411" lon="111.665304">
<time>2016-10-06T12:32:55Z</time></trkpt>
<trkpt lat="24.248611" lon="111.665334">
<time>2016-10-06T12:32:56Z</time></trkpt>
<trkpt lat="24.248811" lon="111.665374">
<time>2016-10-06T12:32:57Z</time></trkpt>
<trkpt lat="24.249011" lon="111.665423">
<time>2016-10-06T12:32:58Z</time></trkpt>
<trkpt lat="24.249181" lon="111.665473">
<time>2016-10-06T12:32:59Z</time></trkpt>
<trkpt lat="24.249341" lon="111.665533">
<time>2016-10-06T12:33:00Z</time></trkpt>
<trkpt lat="24.249541" lon="111.665613">
<time>2016-10-06T12:33:01Z</time></trkpt>
<trkpt lat="24.249741" lon="111.665693">
<time>2016-10-06T12:33:02Z</time></trkpt>
<trkpt lat="24.24984" lon="111.665743">
<time>2016-10-06T12:33:03Z</time></trkpt>
<trkpt lat="24.24992" lon="111.665783">
<time>2016-10-06T12:33:04Z</time></trkpt>
<trkpt lat="24.24999" lon="111.665823">
<time>2016-10-06T12:33:05Z</time></trkpt>
<trkpt lat="24.25013" lon="111.665902">
<time>2016-10-06T12:33:06Z</time></trkpt>
<trkpt lat="24.25028" lon="111.665982">
<time>2016-10-06T12:33:07Z</time></trkpt>
<trkpt lat="24.25047" lon="111.666102">
<time>2016-10-06T12:33:08Z</time></trkpt>
<trkpt lat="24.251459" lon="111.666701">
<time>2016-10-06T12:33:09Z</time></trkpt>
<trkpt lat="24.252438" lon="111.667299">
<time>2016-10-06T12:33:10Z</time></trkpt>
<trkpt lat="24.252658" lon="111.667419">
<time>2016-10-06T12:33:11Z</time></trkpt>
<trkpt lat="24.252838" lon="111.667509">
<time>2016-10-06T12:33:12Z</time></trkpt>
<trkpt lat="24.253078" lon="111.667618">
<time>2016-10-06T12:33:13Z</time></trkpt>
<trkpt lat="24.253318" lon="111.667708">
<time>2016-10-06T12:33:14Z</time></trkpt>
<trkpt lat="24.253548" lon="111.667788">
<time>2016-10-06T12:33:15Z</time></trkpt>
<trkpt lat="24.253818" lon="111.667858">
<time>2016-10-06T12:33:16Z</time></trkpt>
<trkpt lat="24.254088" lon="111.667908">
<time>2016-10-06T12:33:17Z</time></trkpt>
<trkpt lat="24.254478" lon="111.667987">
<time>2016-10-06T12:33:18Z</time></trkpt>
<trkpt lat="24.258798" lon="111.668696">
<time>2016-10-06T12:33:19Z</time></trkpt>
<trkpt lat="24.261098" lon="111.669065">
<time>2016-10-06T12:33:20Z</time></trkpt>
<trkpt lat="24.261478" lon="111.669134">
<time>2016-10-06T12:33:21Z</time></trkpt>
<trkpt lat="24.261838" lon="111.669134">
<time>2016-10-06T12:33:22Z</time></trkpt>
<trkpt lat="24.262118" lon="111.669105">
<time>2016-10-06T12:33:23Z</time></trkpt>
<trkpt lat="24.262369" lon="111.669045">
<time>2016-10-06T12:33:24Z</time></trkpt>
<trkpt lat="24.262519" lon="111.669005">
<time>2016-10-06T12:33:25Z</time></trkpt>
<trkpt lat="24.262679" lon="111.668935">
<time>2016-10-06T12:33:26Z</time></trkpt>
<trkpt lat="24.262849" lon="111.668855">
<time>2016-10-06T12:33:27Z</time></trkpt>
<trkpt lat="24.26353" lon="111.668466">
<time>2016-10-06T12:33:28Z</time></trkpt>
<trkpt lat="24.263951" lon="111.668216">
<time>2016-10-06T12:33:29Z</time></trkpt>
<trkpt lat="24.264171" lon="111.668067">
<time>2016-10-06T12:33:30Z</time></trkpt>
<trkpt lat="24.264301" lon="111.667967">
<time>2016-10-06T12:33:31Z</time></trkpt>
<trkpt lat="24.264402" lon="111.667877">
<time>2016-10-06T12:33:32Z</time></trkpt>
<trkpt lat="24.264572" lon="111.667687">
<time>2016-10-06T12:33:33Z</time></trkpt>
<trkpt lat="24.264682" lon="111.667488">
<time>2016-10-06T12:33:34Z</time></trkpt>
<trkpt lat="24.264753" lon="111.667338">
<time>2016-10-06T12:33:35Z</time></trkpt>
<trkpt lat="24.264823" lon="111.667109">
<time>2016-10-06T12:33:36Z</time></trkpt>
<trkpt lat="24.264864" lon="111.666869">
<time>2016-10-06T12:33:37Z</time></trkpt>
<trkpt lat="24.264904" lon="111.66662">
<time>2016-10-06T12:33:38Z</time></trkpt>
<trkpt lat="24.265098" lon="111.664425">
<time>2016-10-06T12:33:39Z</time></trkpt>
<trkpt lat="24.26518" lon="111.663557">
<time>2016-10-06T12:33:40Z</time></trkpt>
<trkpt lat="24.265251" lon="111.663098">
<time>2016-10-06T12:33:41Z</time></trkpt>
<trkpt lat="24.265312" lon="111.662798">
<time>2016-10-06T12:33:42Z</time></trkpt>
<trkpt lat="24.265392" lon="111.662529">
<time>2016-10-06T12:33:43Z</time></trkpt>
<trkpt lat="24.265513" lon="111.662269">
<time>2016-10-06T12:33:44Z</time></trkpt>
<trkpt lat="24.265623" lon="111.66205">
<time>2016-10-06T12:33:45Z</time></trkpt>
<trkpt lat="24.265774" lon="111.66181">
<time>2016-10-06T12:33:46Z</time></trkpt>
<trkpt lat="24.265944" lon="111.661601">
<time>2016-10-06T12:33:47Z</time></trkpt>
<trkpt lat="24.266115" lon="111.661391">
<time>2016-10-06T12:33:48Z</time></trkpt>
<trkpt lat="24.266335" lon="111.661202">
<time>2016-10-06T12:33:49Z</time></trkpt>
<trkpt lat="24.266646" lon="111.660952">
<time>2016-10-06T12:33:50Z</time></trkpt>
<trkpt lat="24.267166" lon="111.660583">
<time>2016-10-06T12:33:51Z</time></trkpt>
<trkpt lat="24.268128" lon="111.659904">
<time>2016-10-06T12:33:52Z</time></trkpt>
<trkpt lat="24.268899" lon="111.659326">
<time>2016-10-06T12:33:53Z</time></trkpt>
<trkpt lat="24.26943" lon="111.658946">
<time>2016-10-06T12:33:54Z</time></trkpt>
<trkpt lat="24.269741" lon="111.658737">
<time>2016-10-06T12:33:55Z</time></trkpt>
<trkpt lat="24.270101" lon="111.658537">
<time>2016-10-06T12:33:56Z</time></trkpt>
<trkpt lat="24.270452" lon="111.658368">
<time>2016-10-06T12:33:57Z</time></trkpt>
<trkpt lat="24.270902" lon="111.658188">
<time>2016-10-06T12:33:58Z</time></trkpt>
<trkpt lat="24.271313" lon="111.658018">
<time>2016-10-06T12:33:59Z</time></trkpt>
<trkpt lat="24.271593" lon="111.657918">
<time>2016-10-06T12:34:00Z</time></trkpt>
<trkpt lat="24.271933" lon="111.657819">
<time>2016-10-06T12:34:01Z</time></trkpt>
<trkpt lat="24.272184" lon="111.657749">
<time>2016-10-06T12:34:02Z</time></trkpt>
<trkpt lat="24.272434" lon="111.657699">
<time>2016-10-06T12:34:03Z</time></trkpt>
<trkpt lat="24.272664" lon="111.657669">
<time>2016-10-06T12:34:04Z</time></trkpt>
<trkpt lat="24.272884" lon="111.657639">
<time>2016-10-06T12:34:05Z</time></trkpt>
<trkpt lat="24.273114" lon="111.657629">
<time>2016-10-06T12:34:06Z</time></trkpt>
<trkpt lat="24.273284" lon="111.657619">
<time>2016-10-06T12:34:07Z</time></trkpt>
<trkpt lat="24.273394" lon="111.657619">
<time>2016-10-06T12:34:08Z</time></trkpt>
<trkpt lat="24.273484" lon="111.657629">
<time>2016-10-06T12:34:09Z</time></trkpt>
<trkpt lat="24.273934" lon="111.657669">
<time>2016-10-06T12:34:10Z</time></trkpt>
<trkpt lat="24.274174" lon="111.657709">
<time>2016-10-06T12:34:11Z</time></trkpt>
<trkpt lat="24.274344" lon="111.657739">
<time>2016-10-06T12:34:12Z</time></trkpt>
<trkpt lat="24.274554" lon="111.657789">
<time>2016-10-06T12:34:13Z</time></trkpt>
<trkpt lat="24.274794" lon="111.657858">
<time>2016-10-06T12:34:14Z</time></trkpt>
<trkpt lat="24.274984" lon="111.657918">
<time>2016-10-06T12:34:15Z</time></trkpt>
<trkpt lat="24.275204" lon="111.657988">
<time>2016-10-06T12:34:16Z</time></trkpt>
<trkpt lat="24.275384" lon="111.658058">
<time>2016-10-06T12:34:17Z</time></trkpt>
<trkpt lat="24.275604" lon="111.658158">
<time>2016-10-06T12:34:18Z</time></trkpt>
<trkpt lat="24.275754" lon="111.658228">
<time>2016-10-06T12:34:19Z</time></trkpt>
<trkpt lat="24.275924" lon="111.658327">
<time>2016-10-06T12:34:20Z</time></trkpt>
<trkpt lat="24.276144" lon="111.658457">
<time>2016-10-06T12:34:21Z</time></trkpt>
<trkpt lat="24.276373" lon="111.658617">
<time>2016-10-06T12:34:22Z</time></trkpt>
<trkpt lat="24.276693" lon="111.658846">
<time>2016-10-06T12:34:23Z</time></trkpt>
<trkpt lat="24.276903" lon="111.659036">
<time>2016-10-06T12:34:24Z</time></trkpt>
<trkpt lat="24.277212" lon="111.659325">
<time>2016-10-06T12:34:25Z</time></trkpt>
<trkpt lat="24.277382" lon="111.659495">
<time>2016-10-06T12:34:26Z</time></trkpt>
<trkpt lat="24.277572" lon="111.659694">
<time>2016-10-06T12:34:27Z</time></trkpt>
<trkpt lat="24.278261" lon="111.660452">
<time>2016-10-06T12:34:28Z</time></trkpt>
<trkpt lat="24.2784" lon="111.660602">
<time>2016-10-06T12:34:29Z</time></trkpt>
<trkpt lat="24.27853" lon="111.660762">
<time>2016-10-06T12:34:30Z</time></trkpt>
<trkpt lat="24.27861" lon="111.660881">
<time>2016-10-06T12:34:31Z</time></trkpt>
<trkpt lat="24.27865" lon="111.660941">
<time>2016-10-06T12:34:32Z</time></trkpt>
<trkpt lat="24.27869" lon="111.661021">
<time>2016-10-06T12:34:33Z</time></trkpt>
<trkpt lat="24.278749" lon="111.661151">
<time>2016-10-06T12:34:34Z</time></trkpt>
<trkpt lat="24.278799" lon="111.661271">
<time>2016-10-06T12:34:35Z</time></trkpt>
<trkpt lat="24.278829" lon="111.66138">
<time>2016-10-06T12:34:36Z</time></trkpt>
<trkpt lat="24.278849" lon="111.66152">
<time>2016-10-06T12:34:37Z</time></trkpt>
<trkpt lat="24.278868" lon="111.66166">
<time>2016-10-06T12:34:38Z</time></trkpt>
<trkpt lat="24.278868" lon="111.66177">
<time>2016-10-06T12:34:39Z</time></trkpt>
<trkpt lat="24.278868" lon="111.661879">
<time>2016-10-06T12:34:40Z</time></trkpt>
<trkpt lat="24.278858" lon="111.662009">
<time>2016-10-06T12:34:41Z</time></trkpt>
<trkpt lat="24.278838" lon="111.662179">
<time>2016-10-06T12:34:42Z</time></trkpt>
<trkpt lat="24.278787" lon="111.662638">
<time>2016-10-06T12:34:43Z</time></trkpt>
<trkpt lat="24.278746" lon="111.663097">
<time>2016-10-06T12:34:44Z</time></trkpt>
<trkpt lat="24.278644" lon="111.663915">
<time>2016-10-06T12:34:45Z</time></trkpt>
<trkpt lat="24.278614" lon="111.664184">
<time>2016-10-06T12:34:46Z</time></trkpt>
<trkpt lat="24.278603" lon="111.664344">
<time>2016-10-06T12:34:47Z</time></trkpt>
<trkpt lat="24.278593" lon="111.664514">
<time>2016-10-06T12:34:48Z</time></trkpt>
<trkpt lat="24.278593" lon="111.664673">
<time>2016-10-06T12:34:49Z</time></trkpt>
<trkpt lat="24.278602" lon="111.664803">
<time>2016-10-06T12:34:50Z</time></trkpt>
<trkpt lat="24.278612" lon="111.664923">
<time>2016-10-06T12:34:51Z</time></trkpt>
<trkpt lat="24.278632" lon="111.665052">
<time>2016-10-06T12:34:52Z</time></trkpt>
<trkpt lat="24.278662" lon="111.665172">
<time>2016-10-06T12:34:53Z</time></trkpt>
<trkpt lat="24.278702" lon="111.665282">
<time>2016-10-06T12:34:54Z</time></trkpt>
<trkpt lat="24.278741" lon="111.665392">
<time>2016-10-06T12:34:55Z</time></trkpt>
<trkpt lat="24.278791" lon="111.665491">
<time>2016-10-06T12:34:56Z</time></trkpt>
<trkpt lat="24.278841" lon="111.665591">
<time>2016-10-06T12:34:57Z</time></trkpt>
<trkpt lat="24.278901" lon="111.665711">
<time>2016-10-06T12:34:58Z</time></trkpt>
<trkpt lat="24.278991" lon="111.665841">
<time>2016-10-06T12:34:59Z</time></trkpt>
<trkpt lat="24.27907" lon="111.66595">
<time>2016-10-06T12:35:00Z</time></trkpt>
<trkpt lat="24.27916" lon="111.66605">
<time>2016-10-06T12:35:01Z</time></trkpt>
<trkpt lat="24.27925" lon="111.66614">
<time>2016-10-06T12:35:02Z</time></trkpt>
<trkpt lat="24.27934" lon="111.66622">
<time>2016-10-06T12:35:03Z</time></trkpt>
<trkpt lat="24.27946" lon="111.6663">
<time>2016-10-06T12:35:04Z</time></trkpt>
<trkpt lat="24.27958" lon="111.666369">
<time>2016-10-06T12:35:05Z</time></trkpt>
<trkpt lat="24.27967" lon="111.666419">
<time>2016-10-06T12:35:06Z</time></trkpt>
<trkpt lat="24.2798" lon="111.666479">
<time>2016-10-06T12:35:07Z</time></trkpt>
<trkpt lat="24.27989" lon="111.666509">
<time>2016-10-06T12:35:08Z</time></trkpt>
<trkpt lat="24.28001" lon="111.666539">
<time>2016-10-06T12:35:09Z</time></trkpt>
<trkpt lat="24.2801" lon="111.666559">
<time>2016-10-06T12:35:10Z</time></trkpt>
<trkpt lat="24.28019" lon="111.666579">
<time>2016-10-06T12:35:11Z</time></trkpt>
<trkpt lat="24.28032" lon="111.666589">
<time>2016-10-06T12:35:12Z</time></trkpt>
<trkpt lat="24.28044" lon="111.666589">
<time>2016-10-06T12:35:13Z</time></trkpt>
<trkpt lat="24.28058" lon="111.666589">
<time>2016-10-06T12:35:14Z</time></trkpt>
<trkpt lat="24.28077" lon="111.666579">
<time>2016-10-06T12:35:15Z</time></trkpt>
<trkpt lat="24.28142" lon="111.666539">
<time>2016-10-06T12:35:16Z</time></trkpt>
<trkpt lat="24.282431" lon="111.666469">
<time>2016-10-06T12:35:17Z</time></trkpt>
<trkpt lat="24.282781" lon="111.666439">
<time>2016-10-06T12:35:18Z</time></trkpt>
<trkpt lat="24.283061" lon="111.666399">
<time>2016-10-06T12:35:19Z</time></trkpt>
<trkpt lat="24.283251" lon="111.666369">
<time>2016-10-06T12:35:20Z</time></trkpt>
<trkpt lat="24.283441" lon="111.666319">
<time>2016-10-06T12:35:21Z</time></trkpt>
<trkpt lat="24.283631" lon="111.666279">
<time>2016-10-06T12:35:22Z</time></trkpt>
<trkpt lat="24.283771" lon="111.666229">
<time>2016-10-06T12:35:23Z</time></trkpt>
<trkpt lat="24.283942" lon="111.666179">
<time>2016-10-06T12:35:24Z</time></trkpt>
<trkpt lat="24.284112" lon="111.66611">
<time>2016-10-06T12:35:25Z</time></trkpt>
<trkpt lat="24.284312" lon="111.66603">
<time>2016-10-06T12:35:26Z</time></trkpt>
<trkpt lat="24.284442" lon="111.66597">
<time>2016-10-06T12:35:27Z</time></trkpt>
<trkpt lat="24.284602" lon="111.66589">
<time>2016-10-06T12:35:28Z</time></trkpt>
<trkpt lat="24.284753" lon="111.66581">
<time>2016-10-06T12:35:29Z</time></trkpt>
<trkpt lat="24.284913" lon="111.66571">
<time>2016-10-06T12:35:30Z</time></trkpt>
<trkpt lat="24.285073" lon="111.665611">
<time>2016-10-06T12:35:31Z</time></trkpt>
<trkpt lat="24.285223" lon="111.665501">
<time>2016-10-06T12:35:32Z</time></trkpt>
<trkpt lat="24.285374" lon="111.665391">
<time>2016-10-06T12:35:33Z</time></trkpt>
<trkpt lat="24.285714" lon="111.665112">
<time>2016-10-06T12:35:34Z</time></trkpt>
<trkpt lat="24.286746" lon="111.664234">
<time>2016-10-06T12:35:35Z</time></trkpt>
<trkpt lat="24.290063" lon="111.66144">
<time>2016-10-06T12:35:36Z</time></trkpt>
<trkpt lat="24.292047" lon="111.659763">
<time>2016-10-06T12:35:37Z</time></trkpt>
<trkpt lat="24.292347" lon="111.659484">
<time>2016-10-06T12:35:38Z</time></trkpt>
<trkpt lat="24.292598" lon="111.659224">
<time>2016-10-06T12:35:39Z</time></trkpt>
<trkpt lat="24.292778" lon="111.658995">
<time>2016-10-06T12:35:40Z</time></trkpt>
<trkpt lat="24.292919" lon="111.658805">
<time>2016-10-06T12:35:41Z</time></trkpt>
<trkpt lat="24.293089" lon="111.658556">
<time>2016-10-06T12:35:42Z</time></trkpt>
<trkpt lat="24.29324" lon="111.658316">
<time>2016-10-06T12:35:43Z</time></trkpt>
<trkpt lat="24.29334" lon="111.658127">
<time>2016-10-06T12:35:44Z</time></trkpt>
<trkpt lat="24.293481" lon="111.657867">
<time>2016-10-06T12:35:45Z</time></trkpt>
<trkpt lat="24.293551" lon="111.657697">
<time>2016-10-06T12:35:46Z</time></trkpt>
<trkpt lat="24.293631" lon="111.657518">
<time>2016-10-06T12:35:47Z</time></trkpt>
<trkpt lat="24.293692" lon="111.657338">
<time>2016-10-06T12:35:48Z</time></trkpt>
<trkpt lat="24.293782" lon="111.657109">
<time>2016-10-06T12:35:49Z</time></trkpt>
<trkpt lat="24.294215" lon="111.655632">
<time>2016-10-06T12:35:50Z</time></trkpt>
<trkpt lat="24.294296" lon="111.655382">
<time>2016-10-06T12:35:51Z</time></trkpt>
<trkpt lat="24.294386" lon="111.655163">
<time>2016-10-06T12:35:52Z</time></trkpt>
<trkpt lat="24.294456" lon="111.655013">
<time>2016-10-06T12:35:53Z</time></trkpt>
<trkpt lat="24.294506" lon="111.654933">
<time>2016-10-06T12:35:54Z</time></trkpt>
<trkpt lat="24.294587" lon="111.654824">
<time>2016-10-06T12:35:55Z</time></trkpt>
<trkpt lat="24.294687" lon="111.654714">
<time>2016-10-06T12:35:56Z</time></trkpt>
<trkpt lat="24.294777" lon="111.654644">
<time>2016-10-06T12:35:57Z</time></trkpt>
<trkpt lat="24.294857" lon="111.654584">
<time>2016-10-06T12:35:58Z</time></trkpt>
<trkpt lat="24.294957" lon="111.654544">
<time>2016-10-06T12:35:59Z</time></trkpt>
<trkpt lat="24.295137" lon="111.654484">
<time>2016-10-06T12:36:00Z</time></trkpt>
<trkpt lat="24.295268" lon="111.654464">
<time>2016-10-06T12:36:01Z</time></trkpt>
<trkpt lat="24.295438" lon="111.654434">
<time>2016-10-06T12:36:02Z</time></trkpt>
<trkpt lat="24.295558" lon="111.654424">
<time>2016-10-06T12:36:03Z</time></trkpt>
<trkpt lat="24.295658" lon="111.654424">
<time>2016-10-06T12:36:04Z</time></trkpt>
<trkpt lat="24.295808" lon="111.654424">
<time>2016-10-06T12:36:05Z</time></trkpt>
<trkpt lat="24.296008" lon="111.654424">
<time>2016-10-06T12:36:06Z</time></trkpt>
<trkpt lat="24.296138" lon="111.654414">
<time>2016-10-06T12:36:07Z</time></trkpt>
<trkpt lat="24.296238" lon="111.654414">
<time>2016-10-06T12:36:08Z</time></trkpt>
<trkpt lat="24.296328" lon="111.654394">
<time>2016-10-06T12:36:09Z</time></trkpt>
<trkpt lat="24.296438" lon="111.654374">
<time>2016-10-06T12:36:10Z</time></trkpt>
<trkpt lat="24.296578" lon="111.654335">
<time>2016-10-06T12:36:11Z</time></trkpt>
<trkpt lat="24.296668" lon="111.654305">
<time>2016-10-06T12:36:12Z</time></trkpt>
<trkpt lat="24.296818" lon="111.654235">
<time>2016-10-06T12:36:13Z</time></trkpt>
<trkpt lat="24.296959" lon="111.654155">
<time>2016-10-06T12:36:14Z</time></trkpt>
<trkpt lat="24.297079" lon="111.654065">
<time>2016-10-06T12:36:15Z</time></trkpt>
<trkpt lat="24.297339" lon="111.653866">
<time>2016-10-06T12:36:16Z</time></trkpt>
<trkpt lat="24.29753" lon="111.653706">
<time>2016-10-06T12:36:17Z</time></trkpt>
<trkpt lat="24.299383" lon="111.652189">
<time>2016-10-06T12:36:18Z</time></trkpt>
<trkpt lat="24.300876" lon="111.650971">
<time>2016-10-06T12:36:19Z</time></trkpt>
<trkpt lat="24.301226" lon="111.650682">
<time>2016-10-06T12:36:20Z</time></trkpt>
<trkpt lat="24.301447" lon="111.650482">
<time>2016-10-06T12:36:21Z</time></trkpt>
<trkpt lat="24.301607" lon="111.650363">
<time>2016-10-06T12:36:22Z</time></trkpt>
<trkpt lat="24.301798" lon="111.650173">
<time>2016-10-06T12:36:23Z</time></trkpt>
<trkpt lat="24.301958" lon="111.650013">
<time>2016-10-06T12:36:24Z</time></trkpt>
<trkpt lat="24.302088" lon="111.649874">
<time>2016-10-06T12:36:25Z</time></trkpt>
<trkpt lat="24.302188" lon="111.649744">
<time>2016-10-06T12:36:26Z</time></trkpt>
<trkpt lat="24.302359" lon="111.649514">
<time>2016-10-06T12:36:27Z</time></trkpt>
<trkpt lat="24.303231" lon="111.648337">
<time>2016-10-06T12:36:28Z</time></trkpt>
<trkpt lat="24.303562" lon="111.647878">
<time>2016-10-06T12:36:29Z</time></trkpt>
<trkpt lat="24.303863" lon="111.647518">
<time>2016-10-06T12:36:30Z</time></trkpt>
<trkpt lat="24.304063" lon="111.647299">
<time>2016-10-06T12:36:31Z</time></trkpt>
<trkpt lat="24.304264" lon="111.647099">
<time>2016-10-06T12:36:32Z</time></trkpt>
<trkpt lat="24.304484" lon="111.64689">
<time>2016-10-06T12:36:33Z</time></trkpt>
<trkpt lat="24.304615" lon="111.64678">
<time>2016-10-06T12:36:34Z</time></trkpt>
<trkpt lat="24.304765" lon="111.64664">
<time>2016-10-06T12:36:35Z</time></trkpt>
<trkpt lat="24.304935" lon="111.64651">
<time>2016-10-06T12:36:36Z</time></trkpt>
<trkpt lat="24.305176" lon="111.646311">
<time>2016-10-06T12:36:37Z</time></trkpt>
<trkpt lat="24.305436" lon="111.646121">
<time>2016-10-06T12:36:38Z</time></trkpt>
<trkpt lat="24.307349" lon="111.644654">
<time>2016-10-06T12:36:39Z</time></trkpt>
<trkpt lat="24.30819" lon="111.644015">
<time>2016-10-06T12:36:40Z</time></trkpt>
<trkpt lat="24.308351" lon="111.643916">
<time>2016-10-06T12:36:41Z</time></trkpt>
<trkpt lat="24.308491" lon="111.643846">
<time>2016-10-06T12:36:42Z</time></trkpt>
<trkpt lat="24.308621" lon="111.643776">
<time>2016-10-06T12:36:43Z</time></trkpt>
<trkpt lat="24.308751" lon="111.643716">
<time>2016-10-06T12:36:44Z</time></trkpt>
<trkpt lat="24.308911" lon="111.643666">
<time>2016-10-06T12:36:45Z</time></trkpt>
<trkpt lat="24.309081" lon="111.643616">
<time>2016-10-06T12:36:46Z</time></trkpt>
<trkpt lat="24.309252" lon="111.643586">
<time>2016-10-06T12:36:47Z</time></trkpt>
<trkpt lat="24.309412" lon="111.643576">
<time>2016-10-06T12:36:48Z</time></trkpt>
<trkpt lat="24.309602" lon="111.643576">
<time>2016-10-06T12:36:49Z</time></trkpt>
<trkpt lat="24.309742" lon="111.643586">
<time>2016-10-06T12:36:50Z</time></trkpt>
<trkpt lat="24.309912" lon="111.643616">
<time>2016-10-06T12:36:51Z</time></trkpt>
<trkpt lat="24.310002" lon="111.643636">
<time>2016-10-06T12:36:52Z</time></trkpt>
<trkpt lat="24.310122" lon="111.643666">
<time>2016-10-06T12:36:53Z</time></trkpt>
<trkpt lat="24.310262" lon="111.643706">
<time>2016-10-06T12:36:54Z</time></trkpt>
<trkpt lat="24.310312" lon="111.643716">
<time>2016-10-06T12:36:55Z</time></trkpt>
<trkpt lat="24.310362" lon="111.643736">
<time>2016-10-06T12:36:56Z</time></trkpt>
<trkpt lat="24.310392" lon="111.643746">
<time>2016-10-06T12:36:57Z</time></trkpt>
<trkpt lat="24.310462" lon="111.643766">
<time>2016-10-06T12:36:58Z</time></trkpt>
<trkpt lat="24.310542" lon="111.643796">
<time>2016-10-06T12:36:59Z</time></trkpt>
<trkpt lat="24.310702" lon="111.643856">
<time>2016-10-06T12:37:00Z</time></trkpt>
<trkpt lat="24.311261" lon="111.644075">
<time>2016-10-06T12:37:01Z</time></trkpt>
<trkpt lat="24.311821" lon="111.644275">
<time>2016-10-06T12:37:02Z</time></trkpt>
<trkpt lat="24.312021" lon="111.644354">
<time>2016-10-06T12:37:03Z</time></trkpt>
<trkpt lat="24.312201" lon="111.644444">
<time>2016-10-06T12:37:04Z</time></trkpt>
<trkpt lat="24.312271" lon="111.644474">
<time>2016-10-06T12:37:05Z</time></trkpt>
<trkpt lat="24.312401" lon="111.644544">
<time>2016-10-06T12:37:06Z</time></trkpt>
<trkpt lat="24.312501" lon="111.644604">
<time>2016-10-06T12:37:07Z</time></trkpt>
<trkpt lat="24.312611" lon="111.644674">
<time>2016-10-06T12:37:08Z</time></trkpt>
<trkpt lat="24.312721" lon="111.644754">
<time>2016-10-06T12:37:09Z</time></trkpt>
<trkpt lat="24.312811" lon="111.644833">
<time>2016-10-06T12:37:10Z</time></trkpt>
<trkpt lat="24.3129" lon="111.644913">
<time>2016-10-06T12:37:11Z</time></trkpt>
<trkpt lat="24.313" lon="111.645013">
<time>2016-10-06T12:37:12Z</time></trkpt>
<trkpt lat="24.31307" lon="111.645093">
<time>2016-10-06T12:37:13Z</time></trkpt>
<trkpt lat="24.31314" lon="111.645163">
<time>2016-10-06T12:37:14Z</time></trkpt>
<trkpt lat="24.31325" lon="111.645292">
<time>2016-10-06T12:37:15Z</time></trkpt>
<trkpt lat="24.31339" lon="111.645472">
<time>2016-10-06T12:37:16Z</time></trkpt>
<trkpt lat="24.313489" lon="111.645612">
<time>2016-10-06T12:37:17Z</time></trkpt>
<trkpt lat="24.313599" lon="111.645761">
<time>2016-10-06T12:37:18Z</time></trkpt>
<trkpt lat="24.313809" lon="111.646081">
<time>2016-10-06T12:37:19Z</time></trkpt>
<trkpt lat="24.313918" lon="111.64622">
<time>2016-10-06T12:37:20Z</time></trkpt>
<trkpt lat="24.314008" lon="111.64633">
<time>2016-10-06T12:37:21Z</time></trkpt>
<trkpt lat="24.314128" lon="111.64646">
<time>2016-10-06T12:37:22Z</time></trkpt>
<trkpt lat="24.314248" lon="111.64656">
<time>2016-10-06T12:37:23Z</time></trkpt>
<trkpt lat="24.314358" lon="111.64666">
<time>2016-10-06T12:37:24Z</time></trkpt>
<trkpt lat="24.314538" lon="111.646789">
<time>2016-10-06T12:37:25Z</time></trkpt>
<trkpt lat="24.314638" lon="111.646859">
<time>2016-10-06T12:37:26Z</time></trkpt>
<trkpt lat="24.314728" lon="111.646909">
<time>2016-10-06T12:37:27Z</time></trkpt>
<trkpt lat="24.314847" lon="111.646979">
<time>2016-10-06T12:37:28Z</time></trkpt>
<trkpt lat="24.314947" lon="111.647029">
<time>2016-10-06T12:37:29Z</time></trkpt>
<trkpt lat="24.315157" lon="111.647119">
<time>2016-10-06T12:37:30Z</time></trkpt>
<trkpt lat="24.315577" lon="111.647298">
<time>2016-10-06T12:37:31Z</time></trkpt>
<trkpt lat="24.315747" lon="111.647378">
<time>2016-10-06T12:37:32Z</time></trkpt>
<trkpt lat="24.315887" lon="111.647438">
<time>2016-10-06T12:37:33Z</time></trkpt>
<trkpt lat="24.315937" lon="111.647458">
<time>2016-10-06T12:37:34Z</time></trkpt>
<trkpt lat="24.315997" lon="111.647498">
<time>2016-10-06T12:37:35Z</time></trkpt>
<trkpt lat="24.316077" lon="111.647538">
<time>2016-10-06T12:37:36Z</time></trkpt>
<trkpt lat="24.316177" lon="111.647597">
<time>2016-10-06T12:37:37Z</time></trkpt>
<trkpt lat="24.316347" lon="111.647717">
<time>2016-10-06T12:37:38Z</time></trkpt>
<trkpt lat="24.316357" lon="111.647727">
<time>2016-10-06T12:37:39Z</time></trkpt>
<trkpt lat="24.316456" lon="111.647807">
<time>2016-10-06T12:37:40Z</time></trkpt>
<trkpt lat="24.316816" lon="111.648116">
<time>2016-10-06T12:37:41Z</time></trkpt>
<trkpt lat="24.317685" lon="111.648885">
<time>2016-10-06T12:37:42Z</time></trkpt>
<trkpt lat="24.318254" lon="111.649394">
<time>2016-10-06T12:37:43Z</time></trkpt>
<trkpt lat="24.318704" lon="111.649783">
<time>2016-10-06T12:37:44Z</time></trkpt>
<trkpt lat="24.319433" lon="111.650421">
<time>2016-10-06T12:37:45Z</time></trkpt>
<trkpt lat="24.319722" lon="111.650661">
<time>2016-10-06T12:37:46Z</time></trkpt>
<trkpt lat="24.319892" lon="111.650791">
<time>2016-10-06T12:37:47Z</time></trkpt>
<trkpt lat="24.320032" lon="111.65089">
<time>2016-10-06T12:37:48Z</time></trkpt>
<trkpt lat="24.320182" lon="111.65098">
<time>2016-10-06T12:37:49Z</time></trkpt>
<trkpt lat="24.320322" lon="111.65106">
<time>2016-10-06T12:37:50Z</time></trkpt>
<trkpt lat="24.320482" lon="111.65115">
<time>2016-10-06T12:37:51Z</time></trkpt>
<trkpt lat="24.320622" lon="111.65121">
<time>2016-10-06T12:37:52Z</time></trkpt>
<trkpt lat="24.320782" lon="111.651279">
<time>2016-10-06T12:37:53Z</time></trkpt>
<trkpt lat="24.320912" lon="111.651329">
<time>2016-10-06T12:37:54Z</time></trkpt>
<trkpt lat="24.321161" lon="111.651409">
<time>2016-10-06T12:37:55Z</time></trkpt>
<trkpt lat="24.321421" lon="111.651479">
<time>2016-10-06T12:37:56Z</time></trkpt>
<trkpt lat="24.321681" lon="111.651519">
<time>2016-10-06T12:37:57Z</time></trkpt>
<trkpt lat="24.321901" lon="111.651539">
<time>2016-10-06T12:37:58Z</time></trkpt>
<trkpt lat="24.322042" lon="111.651539">
<time>2016-10-06T12:37:59Z</time></trkpt>
<trkpt lat="24.322122" lon="111.651539">
<time>2016-10-06T12:38:00Z</time></trkpt>
<trkpt lat="24.322332" lon="111.651539">
<time>2016-10-06T12:38:01Z</time></trkpt>
<trkpt lat="24.322512" lon="111.651529">
<time>2016-10-06T12:38:02Z</time></trkpt>
<trkpt lat="24.322892" lon="111.651489">
<time>2016-10-06T12:38:03Z</time></trkpt>
<trkpt lat="24.323882" lon="111.651369">
<time>2016-10-06T12:38:04Z</time></trkpt>
<trkpt lat="24.327814" lon="111.65088">
<time>2016-10-06T12:38:05Z</time></trkpt>
<trkpt lat="24.328265" lon="111.65083">
<time>2016-10-06T12:38:06Z</time></trkpt>
<trkpt lat="24.329525" lon="111.65066">
<time>2016-10-06T12:38:07Z</time></trkpt>
<trkpt lat="24.332417" lon="111.650301">
<time>2016-10-06T12:38:08Z</time></trkpt>
<trkpt lat="24.332577" lon="111.650281">
<time>2016-10-06T12:38:09Z</time></trkpt>
<trkpt lat="24.332667" lon="111.650271">
<time>2016-10-06T12:38:10Z</time></trkpt>
<trkpt lat="24.332767" lon="111.650241">
<time>2016-10-06T12:38:11Z</time></trkpt>
<trkpt lat="24.332957" lon="111.650211">
<time>2016-10-06T12:38:12Z</time></trkpt>
<trkpt lat="24.333328" lon="111.650131">
<time>2016-10-06T12:38:13Z</time></trkpt>
<trkpt lat="24.333658" lon="111.650051">
<time>2016-10-06T12:38:14Z</time></trkpt>
<trkpt lat="24.333998" lon="111.649951">
<time>2016-10-06T12:38:15Z</time></trkpt>
<trkpt lat="24.334278" lon="111.649862">
<time>2016-10-06T12:38:16Z</time></trkpt>
<trkpt lat="24.334619" lon="111.649742">
<time>2016-10-06T12:38:17Z</time></trkpt>
<trkpt lat="24.335269" lon="111.649452">
<time>2016-10-06T12:38:18Z</time></trkpt>
<trkpt lat="24.33556" lon="111.649323">
<time>2016-10-06T12:38:19Z</time></trkpt>
<trkpt lat="24.33614" lon="111.649003">
<time>2016-10-06T12:38:20Z</time></trkpt>
<trkpt lat="24.337392" lon="111.648345">
<time>2016-10-06T12:38:21Z</time></trkpt>
<trkpt lat="24.337883" lon="111.648095">
<time>2016-10-06T12:38:22Z</time></trkpt>
<trkpt lat="24.338443" lon="111.647845">
<time>2016-10-06T12:38:23Z</time></trkpt>
<trkpt lat="24.339304" lon="111.647526">
<time>2016-10-06T12:38:24Z</time></trkpt>
<trkpt lat="24.340135" lon="111.647197">
<time>2016-10-06T12:38:25Z</time></trkpt>
<trkpt lat="24.340705" lon="111.647017">
<time>2016-10-06T12:38:26Z</time></trkpt>
<trkpt lat="24.341826" lon="111.646708">
<time>2016-10-06T12:38:27Z</time></trkpt>
<trkpt lat="24.341966" lon="111.646668">
<time>2016-10-06T12:38:28Z</time></trkpt>
<trkpt lat="24.342026" lon="111.646658">
<time>2016-10-06T12:38:29Z</time></trkpt>
<trkpt lat="24.342377" lon="111.646578">
<time>2016-10-06T12:38:30Z</time></trkpt>
<trkpt lat="24.342987" lon="111.646458">
<time>2016-10-06T12:38:31Z</time></trkpt>
<trkpt lat="24.343487" lon="111.646358">
<time>2016-10-06T12:38:32Z</time></trkpt>
<trkpt lat="24.343998" lon="111.646278">
<time>2016-10-06T12:38:33Z</time></trkpt>
<trkpt lat="24.344288" lon="111.646238">
<time>2016-10-06T12:38:34Z</time></trkpt>
<trkpt lat="24.344728" lon="111.646188">
<time>2016-10-06T12:38:35Z</time></trkpt>
<trkpt lat="24.345258" lon="111.646119">
<time>2016-10-06T12:38:36Z</time></trkpt>
<trkpt lat="24.345628" lon="111.646079">
<time>2016-10-06T12:38:37Z</time></trkpt>
<trkpt lat="24.346569" lon="111.646029">
<time>2016-10-06T12:38:38Z</time></trkpt>
<trkpt lat="24.348119" lon="111.645959">
<time>2016-10-06T12:38:39Z</time></trkpt>
<trkpt lat="24.35004" lon="111.645839">
<time>2016-10-06T12:38:40Z</time></trkpt>
<trkpt lat="24.352161" lon="111.645739">
<time>2016-10-06T12:38:41Z</time></trkpt>
<trkpt lat="24.352571" lon="111.645709">
<time>2016-10-06T12:38:42Z</time></trkpt>
<trkpt lat="24.353571" lon="111.645679">
<time>2016-10-06T12:38:43Z</time></trkpt>
<trkpt lat="24.354292" lon="111.645629">
<time>2016-10-06T12:38:44Z</time></trkpt>
<trkpt lat="24.356743" lon="111.645519">
<time>2016-10-06T12:38:45Z</time></trkpt>
<trkpt lat="24.357573" lon="111.645489">
<time>2016-10-06T12:38:46Z</time></trkpt>
<trkpt lat="24.357983" lon="111.645469">
<time>2016-10-06T12:38:47Z</time></trkpt>
<trkpt lat="24.358463" lon="111.645419">
<time>2016-10-06T12:38:48Z</time></trkpt>
<trkpt lat="24.359033" lon="111.645389">
<time>2016-10-06T12:38:49Z</time></trkpt>
<trkpt lat="24.359564" lon="111.645369">
<time>2016-10-06T12:38:50Z</time></trkpt>
<trkpt lat="24.360224" lon="111.645339">
<time>2016-10-06T12:38:51Z</time></trkpt>
<trkpt lat="24.360404" lon="111.645319">
<time>2016-10-06T12:38:52Z</time></trkpt>
<trkpt lat="24.360704" lon="111.645269">
<time>2016-10-06T12:38:53Z</time></trkpt>
<trkpt lat="24.360974" lon="111.645219">
<time>2016-10-06T12:38:54Z</time></trkpt>
<trkpt lat="24.361314" lon="111.64512">
<time>2016-10-06T12:38:55Z</time></trkpt>
<trkpt lat="24.361705" lon="111.64498">
<time>2016-10-06T12:38:56Z</time></trkpt>
<trkpt lat="24.362055" lon="111.6448">
<time>2016-10-06T12:38:57Z</time></trkpt>
<trkpt lat="24.362336" lon="111.644621">
<time>2016-10-06T12:38:58Z</time></trkpt>
<trkpt lat="24.362516" lon="111.644491">
<time>2016-10-06T12:38:59Z</time></trkpt>
<trkpt lat="24.362736" lon="111.644311">
<time>2016-10-06T12:39:00Z</time></trkpt>
<trkpt lat="24.362887" lon="111.644161">
<time>2016-10-06T12:39:01Z</time></trkpt>
<trkpt lat="24.363087" lon="111.643962">
<time>2016-10-06T12:39:02Z</time></trkpt>
<trkpt lat="24.363327" lon="111.643692">
<time>2016-10-06T12:39:03Z</time></trkpt>
<trkpt lat="24.363488" lon="111.643473">
<time>2016-10-06T12:39:04Z</time></trkpt>
<trkpt lat="24.363979" lon="111.642794">
<time>2016-10-06T12:39:05Z</time></trkpt>
<trkpt lat="24.36433" lon="111.642275">
<time>2016-10-06T12:39:06Z</time></trkpt>
<trkpt lat="24.364521" lon="111.641956">
<time>2016-10-06T12:39:07Z</time></trkpt>
<trkpt lat="24.365042" lon="111.641197">
<time>2016-10-06T12:39:08Z</time></trkpt>
<trkpt lat="24.365844" lon="111.639969">
<time>2016-10-06T12:39:09Z</time></trkpt>
<trkpt lat="24.367138" lon="111.637993">
<time>2016-10-06T12:39:10Z</time></trkpt>
<trkpt lat="24.36782" lon="111.636945">
<time>2016-10-06T12:39:11Z</time></trkpt>
<trkpt lat="24.368181" lon="111.636406">
<time>2016-10-06T12:39:12Z</time></trkpt>
<trkpt lat="24.369775" lon="111.63394">
<time>2016-10-06T12:39:13Z</time></trkpt>
<trkpt lat="24.371309" lon="111.631595">
<time>2016-10-06T12:39:14Z</time></trkpt>
<trkpt lat="24.37192" lon="111.630686">
<time>2016-10-06T12:39:15Z</time></trkpt>
<trkpt lat="24.372111" lon="111.630406">
<time>2016-10-06T12:39:16Z</time></trkpt>
<trkpt lat="24.372131" lon="111.630367">
<time>2016-10-06T12:39:17Z</time></trkpt>
<trkpt lat="24.372171" lon="111.630287">
<time>2016-10-06T12:39:18Z</time></trkpt>
<trkpt lat="24.372201" lon="111.630227">
<time>2016-10-06T12:39:19Z</time></trkpt>
<trkpt lat="24.372351" lon="111.629877">
<time>2016-10-06T12:39:20Z</time></trkpt>
<trkpt lat="24.372452" lon="111.629598">
<time>2016-10-06T12:39:21Z</time></trkpt>
<trkpt lat="24.372542" lon="111.629358">
<time>2016-10-06T12:39:22Z</time></trkpt>
<trkpt lat="24.372582" lon="111.629218">
<time>2016-10-06T12:39:23Z</time></trkpt>
<trkpt lat="24.372603" lon="111.629139">
<time>2016-10-06T12:39:24Z</time></trkpt>
<trkpt lat="24.372623" lon="111.629049">
<time>2016-10-06T12:39:25Z</time></trkpt>
<trkpt lat="24.372643" lon="111.628969">
<time>2016-10-06T12:39:26Z</time></trkpt>
<trkpt lat="24.372643" lon="111.628909">
<time>2016-10-06T12:39:27Z</time></trkpt>
<trkpt lat="24.372663" lon="111.628779">
<time>2016-10-06T12:39:28Z</time></trkpt>
<trkpt lat="24.372693" lon="111.62851">
<time>2016-10-06T12:39:29Z</time></trkpt>
<trkpt lat="24.372704" lon="111.62832">
<time>2016-10-06T12:39:30Z</time></trkpt>
<trkpt lat="24.372714" lon="111.62804">
<time>2016-10-06T12:39:31Z</time></trkpt>
<trkpt lat="24.372714" lon="111.627871">
<time>2016-10-06T12:39:32Z</time></trkpt>
<trkpt lat="24.372704" lon="111.627721">
<time>2016-10-06T12:39:33Z</time></trkpt>
<trkpt lat="24.372695" lon="111.627591">
<time>2016-10-06T12:39:34Z</time></trkpt>
<trkpt lat="24.372685" lon="111.627491">
<time>2016-10-06T12:39:35Z</time></trkpt>
<trkpt lat="24.372675" lon="111.627342">
<time>2016-10-06T12:39:36Z</time></trkpt>
<trkpt lat="24.372625" lon="111.627052">
<time>2016-10-06T12:39:37Z</time></trkpt>
<trkpt lat="24.372427" lon="111.625714">
<time>2016-10-06T12:39:38Z</time></trkpt>
<trkpt lat="24.372328" lon="111.625005">
<time>2016-10-06T12:39:39Z</time></trkpt>
<trkpt lat="24.372328" lon="111.624995">
<time>2016-10-06T12:39:40Z</time></trkpt>
<trkpt lat="24.372308" lon="111.624865">
<time>2016-10-06T12:39:41Z</time></trkpt>
<trkpt lat="24.372288" lon="111.624706">
<time>2016-10-06T12:39:42Z</time></trkpt>
<trkpt lat="24.372219" lon="111.624336">
<time>2016-10-06T12:39:43Z</time></trkpt>
<trkpt lat="24.372149" lon="111.623837">
<time>2016-10-06T12:39:44Z</time></trkpt>
<trkpt lat="24.37209" lon="111.623408">
<time>2016-10-06T12:39:45Z</time></trkpt>
<trkpt lat="24.37205" lon="111.623118">
<time>2016-10-06T12:39:46Z</time></trkpt>
<trkpt lat="24.37201" lon="111.622838">
<time>2016-10-06T12:39:47Z</time></trkpt>
<trkpt lat="24.371951" lon="111.622389">
<time>2016-10-06T12:39:48Z</time></trkpt>
<trkpt lat="24.371881" lon="111.6219">
<time>2016-10-06T12:39:49Z</time></trkpt>
<trkpt lat="24.371812" lon="111.621341">
<time>2016-10-06T12:39:50Z</time></trkpt>
<trkpt lat="24.371753" lon="111.620781">
<time>2016-10-06T12:39:51Z</time></trkpt>
<trkpt lat="24.371683" lon="111.620182">
<time>2016-10-06T12:39:52Z</time></trkpt>
<trkpt lat="24.371574" lon="111.619104">
<time>2016-10-06T12:39:53Z</time></trkpt>
<trkpt lat="24.371535" lon="111.618485">
<time>2016-10-06T12:39:54Z</time></trkpt>
<trkpt lat="24.371476" lon="111.617885">
<time>2016-10-06T12:39:55Z</time></trkpt>
<trkpt lat="24.371436" lon="111.617406">
<time>2016-10-06T12:39:56Z</time></trkpt>
<trkpt lat="24.371377" lon="111.616837">
<time>2016-10-06T12:39:57Z</time></trkpt>
<trkpt lat="24.371347" lon="111.616507">
<time>2016-10-06T12:39:58Z</time></trkpt>
<trkpt lat="24.371317" lon="111.616257">
<time>2016-10-06T12:39:59Z</time></trkpt>
<trkpt lat="24.371287" lon="111.616028">
<time>2016-10-06T12:40:00Z</time></trkpt>
<trkpt lat="24.371268" lon="111.615848">
<time>2016-10-06T12:40:01Z</time></trkpt>
<trkpt lat="24.371248" lon="111.615658">
<time>2016-10-06T12:40:02Z</time></trkpt>
<trkpt lat="24.371228" lon="111.615398">
<time>2016-10-06T12:40:03Z</time></trkpt>
<trkpt lat="24.371208" lon="111.615199">
<time>2016-10-06T12:40:04Z</time></trkpt>
<trkpt lat="24.371168" lon="111.614879">
<time>2016-10-06T12:40:05Z</time></trkpt>
<trkpt lat="24.371149" lon="111.614709">
<time>2016-10-06T12:40:06Z</time></trkpt>
<trkpt lat="24.371139" lon="111.614549">
<time>2016-10-06T12:40:07Z</time></trkpt>
<trkpt lat="24.371119" lon="111.61431">
<time>2016-10-06T12:40:08Z</time></trkpt>
<trkpt lat="24.371109" lon="111.61409">
<time>2016-10-06T12:40:09Z</time></trkpt>
<trkpt lat="24.371099" lon="111.61388">
<time>2016-10-06T12:40:10Z</time></trkpt>
<trkpt lat="24.37107" lon="111.613601">
<time>2016-10-06T12:40:11Z</time></trkpt>
<trkpt lat="24.37106" lon="111.613401">
<time>2016-10-06T12:40:12Z</time></trkpt>
<trkpt lat="24.37097" lon="111.612692">
<time>2016-10-06T12:40:13Z</time></trkpt>
<trkpt lat="24.370921" lon="111.612302">
<time>2016-10-06T12:40:14Z</time></trkpt>
<trkpt lat="24.370911" lon="111.612002">
<time>2016-10-06T12:40:15Z</time></trkpt>
<trkpt lat="24.370901" lon="111.611792">
<time>2016-10-06T12:40:16Z</time></trkpt>
<trkpt lat="24.370901" lon="111.611583">
<time>2016-10-06T12:40:17Z</time></trkpt>
<trkpt lat="24.370922" lon="111.611203">
<time>2016-10-06T12:40:18Z</time></trkpt>
<trkpt lat="24.370942" lon="111.610953">
<time>2016-10-06T12:40:19Z</time></trkpt>
<trkpt lat="24.370962" lon="111.610764">
<time>2016-10-06T12:40:20Z</time></trkpt>
<trkpt lat="24.371012" lon="111.610504">
<time>2016-10-06T12:40:21Z</time></trkpt>
<trkpt lat="24.371042" lon="111.610294">
<time>2016-10-06T12:40:22Z</time></trkpt>
<trkpt lat="24.371082" lon="111.610114">
<time>2016-10-06T12:40:23Z</time></trkpt>
<trkpt lat="24.371143" lon="111.609904">
<time>2016-10-06T12:40:24Z</time></trkpt>
<trkpt lat="24.371223" lon="111.609665">
<time>2016-10-06T12:40:25Z</time></trkpt>
<trkpt lat="24.371293" lon="111.609475">
<time>2016-10-06T12:40:26Z</time></trkpt>
<trkpt lat="24.371373" lon="111.609295">
<time>2016-10-06T12:40:27Z</time></trkpt>
<trkpt lat="24.371443" lon="111.609135">
<time>2016-10-06T12:40:28Z</time></trkpt>
<trkpt lat="24.371573" lon="111.608865">
<time>2016-10-06T12:40:29Z</time></trkpt>
<trkpt lat="24.371643" lon="111.608755">
<time>2016-10-06T12:40:30Z</time></trkpt>
<trkpt lat="24.371724" lon="111.608606">
<time>2016-10-06T12:40:31Z</time></trkpt>
<trkpt lat="24.371894" lon="111.608296">
<time>2016-10-06T12:40:32Z</time></trkpt>
<trkpt lat="24.371994" lon="111.608076">
<time>2016-10-06T12:40:33Z</time></trkpt>
<trkpt lat="24.372234" lon="111.607636">
<time>2016-10-06T12:40:34Z</time></trkpt>
<trkpt lat="24.372405" lon="111.607317">
<time>2016-10-06T12:40:35Z</time></trkpt>
<trkpt lat="24.372575" lon="111.607017">
<time>2016-10-06T12:40:36Z</time></trkpt>
<trkpt lat="24.372825" lon="111.606557">
<time>2016-10-06T12:40:37Z</time></trkpt>
<trkpt lat="24.372975" lon="111.606278">
<time>2016-10-06T12:40:38Z</time></trkpt>
<trkpt lat="24.373256" lon="111.605758">
<time>2016-10-06T12:40:39Z</time></trkpt>
<trkpt lat="24.373636" lon="111.605048">
<time>2016-10-06T12:40:40Z</time></trkpt>
<trkpt lat="24.373816" lon="111.604699">
<time>2016-10-06T12:40:41Z</time></trkpt>
<trkpt lat="24.374117" lon="111.604129">
<time>2016-10-06T12:40:42Z</time></trkpt>
<trkpt lat="24.374387" lon="111.60363">
<time>2016-10-06T12:40:43Z</time></trkpt>
<trkpt lat="24.374738" lon="111.603">
<time>2016-10-06T12:40:44Z</time></trkpt>
<trkpt lat="24.375038" lon="111.60243">
<time>2016-10-06T12:40:45Z</time></trkpt>
<trkpt lat="24.375238" lon="111.602071">
<time>2016-10-06T12:40:46Z</time></trkpt>
<trkpt lat="24.375618" lon="111.601361">
<time>2016-10-06T12:40:47Z</time></trkpt>
<trkpt lat="24.375939" lon="111.600761">
<time>2016-10-06T12:40:48Z</time></trkpt>
<trkpt lat="24.376199" lon="111.600282">
<time>2016-10-06T12:40:49Z</time></trkpt>
<trkpt lat="24.376349" lon="111.600012">
<time>2016-10-06T12:40:50Z</time></trkpt>
<trkpt lat="24.376509" lon="111.599672">
<time>2016-10-06T12:40:51Z</time></trkpt>
<trkpt lat="24.376619" lon="111.599432">
<time>2016-10-06T12:40:52Z</time></trkpt>
<trkpt lat="24.376709" lon="111.599192">
<time>2016-10-06T12:40:53Z</time></trkpt>
<trkpt lat="24.376759" lon="111.599052">
<time>2016-10-06T12:40:54Z</time></trkpt>
<trkpt lat="24.37681" lon="111.598892">
<time>2016-10-06T12:40:55Z</time></trkpt>
<trkpt lat="24.37684" lon="111.598722">
<time>2016-10-06T12:40:56Z</time></trkpt>
<trkpt lat="24.37688" lon="111.598532">
<time>2016-10-06T12:40:57Z</time></trkpt>
<trkpt lat="24.37693" lon="111.598293">
<time>2016-10-06T12:40:58Z</time></trkpt>
<trkpt lat="24.37696" lon="111.598053">
<time>2016-10-06T12:40:59Z</time></trkpt>
<trkpt lat="24.37699" lon="111.597783">
<time>2016-10-06T12:41:00Z</time></trkpt>
<trkpt lat="24.377" lon="111.597333">
<time>2016-10-06T12:41:01Z</time></trkpt>
<trkpt lat="24.37703" lon="111.596813">
<time>2016-10-06T12:41:02Z</time></trkpt>
<trkpt lat="24.37704" lon="111.596323">
<time>2016-10-06T12:41:03Z</time></trkpt>
<trkpt lat="24.37705" lon="111.596043">
<time>2016-10-06T12:41:04Z</time></trkpt>
<trkpt lat="24.37707" lon="111.595724">
<time>2016-10-06T12:41:05Z</time></trkpt>
<trkpt lat="24.37707" lon="111.595404">
<time>2016-10-06T12:41:06Z</time></trkpt>
<trkpt lat="24.37707" lon="111.595404">
<time>2016-10-06T12:41:07Z</time></trkpt>
<trkpt lat="24.3771" lon="111.595334">
<time>2016-10-06T12:41:08Z</time></trkpt>
<trkpt lat="24.3771" lon="111.595014">
<time>2016-10-06T12:41:09Z</time></trkpt>
<trkpt lat="24.37711" lon="111.594534">
<time>2016-10-06T12:41:10Z</time></trkpt>
<trkpt lat="24.37713" lon="111.594094">
<time>2016-10-06T12:41:11Z</time></trkpt>
<trkpt lat="24.37721" lon="111.592195">
<time>2016-10-06T12:41:12Z</time></trkpt>
<trkpt lat="24.37727" lon="111.590925">
<time>2016-10-06T12:41:13Z</time></trkpt>
<trkpt lat="24.37733" lon="111.589595">
<time>2016-10-06T12:41:14Z</time></trkpt>
<trkpt lat="24.37735" lon="111.589105">
<time>2016-10-06T12:41:15Z</time></trkpt>
<trkpt lat="24.3774" lon="111.588475">
<time>2016-10-06T12:41:16Z</time></trkpt>
<trkpt lat="24.37744" lon="111.587945">
<time>2016-10-06T12:41:17Z</time></trkpt>
<trkpt lat="24.37753" lon="111.587085">
<time>2016-10-06T12:41:18Z</time></trkpt>
<trkpt lat="24.37759" lon="111.586675">
<time>2016-10-06T12:41:19Z</time></trkpt>
<trkpt lat="24.37763" lon="111.586365">
<time>2016-10-06T12:41:20Z</time></trkpt>
<trkpt lat="24.37776" lon="111.585635">
<time>2016-10-06T12:41:21Z</time></trkpt>
<trkpt lat="24.377869" lon="111.585095">
<time>2016-10-06T12:41:22Z</time></trkpt>
<trkpt lat="24.377989" lon="111.584525">
<time>2016-10-06T12:41:23Z</time></trkpt>
<trkpt lat="24.378109" lon="111.584005">
<time>2016-10-06T12:41:24Z</time></trkpt>
<trkpt lat="24.378259" lon="111.583324">
<time>2016-10-06T12:41:25Z</time></trkpt>
<trkpt lat="24.378369" lon="111.582874">
<time>2016-10-06T12:41:26Z</time></trkpt>
<trkpt lat="24.378389" lon="111.582764">
<time>2016-10-06T12:41:27Z</time></trkpt>
<trkpt lat="24.378429" lon="111.582524">
<time>2016-10-06T12:41:28Z</time></trkpt>
<trkpt lat="24.378498" lon="111.582244">
<time>2016-10-06T12:41:29Z</time></trkpt>
<trkpt lat="24.378608" lon="111.581734">
<time>2016-10-06T12:41:30Z</time></trkpt>
<trkpt lat="24.378728" lon="111.581214">
<time>2016-10-06T12:41:31Z</time></trkpt>
<trkpt lat="24.378808" lon="111.580824">
<time>2016-10-06T12:41:32Z</time></trkpt>
<trkpt lat="24.378868" lon="111.580534">
<time>2016-10-06T12:41:33Z</time></trkpt>
<trkpt lat="24.378928" lon="111.580263">
<time>2016-10-06T12:41:34Z</time></trkpt>
<trkpt lat="24.379017" lon="111.579833">
<time>2016-10-06T12:41:35Z</time></trkpt>
<trkpt lat="24.379097" lon="111.579503">
<time>2016-10-06T12:41:36Z</time></trkpt>
<trkpt lat="24.379167" lon="111.579163">
<time>2016-10-06T12:41:37Z</time></trkpt>
<trkpt lat="24.379317" lon="111.578463">
<time>2016-10-06T12:41:38Z</time></trkpt>
<trkpt lat="24.379526" lon="111.577552">
<time>2016-10-06T12:41:39Z</time></trkpt>
<trkpt lat="24.379646" lon="111.576972">
<time>2016-10-06T12:41:40Z</time></trkpt>
<trkpt lat="24.379835" lon="111.576111">
<time>2016-10-06T12:41:41Z</time></trkpt>
<trkpt lat="24.380054" lon="111.575131">
<time>2016-10-06T12:41:42Z</time></trkpt>
<trkpt lat="24.380194" lon="111.57452">
<time>2016-10-06T12:41:43Z</time></trkpt>
<trkpt lat="24.380264" lon="111.5742">
<time>2016-10-06T12:41:44Z</time></trkpt>
<trkpt lat="24.380353" lon="111.57381">
<time>2016-10-06T12:41:45Z</time></trkpt>
<trkpt lat="24.380463" lon="111.57339">
<time>2016-10-06T12:41:46Z</time></trkpt>
<trkpt lat="24.380553" lon="111.57312">
<time>2016-10-06T12:41:47Z</time></trkpt>
<trkpt lat="24.380712" lon="111.572539">
<time>2016-10-06T12:41:48Z</time></trkpt>
<trkpt lat="24.380912" lon="111.571909">
<time>2016-10-06T12:41:49Z</time></trkpt>
<trkpt lat="24.381111" lon="111.571318">
<time>2016-10-06T12:41:50Z</time></trkpt>
<trkpt lat="24.381351" lon="111.570678">
<time>2016-10-06T12:41:51Z</time></trkpt>
<trkpt lat="24.3816" lon="111.570067">
<time>2016-10-06T12:41:52Z</time></trkpt>
<trkpt lat="24.38174" lon="111.569727">
<time>2016-10-06T12:41:53Z</time></trkpt>
<trkpt lat="24.38187" lon="111.569437">
<time>2016-10-06T12:41:54Z</time></trkpt>
<trkpt lat="24.382039" lon="111.569076">
<time>2016-10-06T12:41:55Z</time></trkpt>
<trkpt lat="24.382399" lon="111.568345">
<time>2016-10-06T12:41:56Z</time></trkpt>
<trkpt lat="24.382918" lon="111.567355">
<time>2016-10-06T12:41:57Z</time></trkpt>
<trkpt lat="24.383536" lon="111.566203">
<time>2016-10-06T12:41:58Z</time></trkpt>
<trkpt lat="24.383996" lon="111.565332">
<time>2016-10-06T12:41:59Z</time></trkpt>
<trkpt lat="24.384485" lon="111.564431">
<time>2016-10-06T12:42:00Z</time></trkpt>
<trkpt lat="24.384874" lon="111.563711">
<time>2016-10-06T12:42:01Z</time></trkpt>
<trkpt lat="24.385373" lon="111.562749">
<time>2016-10-06T12:42:02Z</time></trkpt>
<trkpt lat="24.385802" lon="111.561968">
<time>2016-10-06T12:42:03Z</time></trkpt>
<trkpt lat="24.386151" lon="111.561328">
<time>2016-10-06T12:42:04Z</time></trkpt>
<trkpt lat="24.38652" lon="111.560637">
<time>2016-10-06T12:42:05Z</time></trkpt>
<trkpt lat="24.386829" lon="111.560046">
<time>2016-10-06T12:42:06Z</time></trkpt>
<trkpt lat="24.387009" lon="111.559705">
<time>2016-10-06T12:42:07Z</time></trkpt>
<trkpt lat="24.387228" lon="111.559305">
<time>2016-10-06T12:42:08Z</time></trkpt>
<trkpt lat="24.387617" lon="111.558564">
<time>2016-10-06T12:42:09Z</time></trkpt>
<trkpt lat="24.388006" lon="111.557833">
<time>2016-10-06T12:42:10Z</time></trkpt>
<trkpt lat="24.388325" lon="111.557242">
<time>2016-10-06T12:42:11Z</time></trkpt>
<trkpt lat="24.388664" lon="111.556591">
<time>2016-10-06T12:42:12Z</time></trkpt>
<trkpt lat="24.388934" lon="111.556">
<time>2016-10-06T12:42:13Z</time></trkpt>
<trkpt lat="24.389143" lon="111.555589">
<time>2016-10-06T12:42:14Z</time></trkpt>
<trkpt lat="24.389342" lon="111.555149">
<time>2016-10-06T12:42:15Z</time></trkpt>
<trkpt lat="24.389512" lon="111.554728">
<time>2016-10-06T12:42:16Z</time></trkpt>
<trkpt lat="24.389711" lon="111.554237">
<time>2016-10-06T12:42:17Z</time></trkpt>
<trkpt lat="24.38983" lon="111.553897">
<time>2016-10-06T12:42:18Z</time></trkpt>
<trkpt lat="24.39" lon="111.553406">
<time>2016-10-06T12:42:19Z</time></trkpt>
<trkpt lat="24.390129" lon="111.553075">
<time>2016-10-06T12:42:20Z</time></trkpt>
<trkpt lat="24.390248" lon="111.552765">
<time>2016-10-06T12:42:21Z</time></trkpt>
<trkpt lat="24.390358" lon="111.552464">
<time>2016-10-06T12:42:22Z</time></trkpt>
<trkpt lat="24.390547" lon="111.551974">
<time>2016-10-06T12:42:23Z</time></trkpt>
<trkpt lat="24.390577" lon="111.551894">
<time>2016-10-06T12:42:24Z</time></trkpt>
<trkpt lat="24.390587" lon="111.551873">
<time>2016-10-06T12:42:25Z</time></trkpt>
<trkpt lat="24.390726" lon="111.551423">
<time>2016-10-06T12:42:26Z</time></trkpt>
<trkpt lat="24.390796" lon="111.551162">
<time>2016-10-06T12:42:27Z</time></trkpt>
<trkpt lat="24.390885" lon="111.550862">
<time>2016-10-06T12:42:28Z</time></trkpt>
<trkpt lat="24.391024" lon="111.550411">
<time>2016-10-06T12:42:29Z</time></trkpt>
<trkpt lat="24.391164" lon="111.54998">
<time>2016-10-06T12:42:30Z</time></trkpt>
<trkpt lat="24.391253" lon="111.54968">
<time>2016-10-06T12:42:31Z</time></trkpt>
<trkpt lat="24.391502" lon="111.548918">
<time>2016-10-06T12:42:32Z</time></trkpt>
<trkpt lat="24.391601" lon="111.548578">
<time>2016-10-06T12:42:33Z</time></trkpt>
<trkpt lat="24.391641" lon="111.548447">
<time>2016-10-06T12:42:34Z</time></trkpt>
<trkpt lat="24.39183" lon="111.547896">
<time>2016-10-06T12:42:35Z</time></trkpt>
<trkpt lat="24.391939" lon="111.547546">
<time>2016-10-06T12:42:36Z</time></trkpt>
<trkpt lat="24.392019" lon="111.547305">
<time>2016-10-06T12:42:37Z</time></trkpt>
<trkpt lat="24.392088" lon="111.547075">
<time>2016-10-06T12:42:38Z</time></trkpt>
<trkpt lat="24.392168" lon="111.546835">
<time>2016-10-06T12:42:39Z</time></trkpt>
<trkpt lat="24.392277" lon="111.546494">
<time>2016-10-06T12:42:40Z</time></trkpt>
<trkpt lat="24.392436" lon="111.545993">
<time>2016-10-06T12:42:41Z</time></trkpt>
<trkpt lat="24.392615" lon="111.545382">
<time>2016-10-06T12:42:42Z</time></trkpt>
<trkpt lat="24.392784" lon="111.544821">
<time>2016-10-06T12:42:43Z</time></trkpt>
<trkpt lat="24.392844" lon="111.5446">
<time>2016-10-06T12:42:44Z</time></trkpt>
<trkpt lat="24.393052" lon="111.543899">
<time>2016-10-06T12:42:45Z</time></trkpt>
<trkpt lat="24.393152" lon="111.543548">
<time>2016-10-06T12:42:46Z</time></trkpt>
<trkpt lat="24.39329" lon="111.543027">
<time>2016-10-06T12:42:47Z</time></trkpt>
<trkpt lat="24.393449" lon="111.542456">
<time>2016-10-06T12:42:48Z</time></trkpt>
<trkpt lat="24.393628" lon="111.541815">
<time>2016-10-06T12:42:49Z</time></trkpt>
<trkpt lat="24.393777" lon="111.541283">
<time>2016-10-06T12:42:50Z</time></trkpt>
<trkpt lat="24.393926" lon="111.540762">
<time>2016-10-06T12:42:51Z</time></trkpt>
<trkpt lat="24.394224" lon="111.5397">
<time>2016-10-06T12:42:52Z</time></trkpt>
<trkpt lat="24.394333" lon="111.539299">
<time>2016-10-06T12:42:53Z</time></trkpt>
<trkpt lat="24.394353" lon="111.539249">
<time>2016-10-06T12:42:54Z</time></trkpt>
<trkpt lat="24.394402" lon="111.539059">
<time>2016-10-06T12:42:55Z</time></trkpt>
<trkpt lat="24.39461" lon="111.538267">
<time>2016-10-06T12:42:56Z</time></trkpt>
<trkpt lat="24.39466" lon="111.538087">
<time>2016-10-06T12:42:57Z</time></trkpt>
<trkpt lat="24.394819" lon="111.537515">
<time>2016-10-06T12:42:58Z</time></trkpt>
<trkpt lat="24.394958" lon="111.537004">
<time>2016-10-06T12:42:59Z</time></trkpt>
<trkpt lat="24.395275" lon="111.535842">
<time>2016-10-06T12:43:00Z</time></trkpt>
<trkpt lat="24.395533" lon="111.534879">
<time>2016-10-06T12:43:01Z</time></trkpt>
<trkpt lat="24.395691" lon="111.534268">
<time>2016-10-06T12:43:02Z</time></trkpt>
<trkpt lat="24.396029" lon="111.533075">
<time>2016-10-06T12:43:03Z</time></trkpt>
<trkpt lat="24.396316" lon="111.532003">
<time>2016-10-06T12:43:04Z</time></trkpt>
<trkpt lat="24.396445" lon="111.531522">
<time>2016-10-06T12:43:05Z</time></trkpt>
<trkpt lat="24.396554" lon="111.531131">
<time>2016-10-06T12:43:06Z</time></trkpt>
<trkpt lat="24.396643" lon="111.5308">
<time>2016-10-06T12:43:07Z</time></trkpt>
<trkpt lat="24.396703" lon="111.530579">
<time>2016-10-06T12:43:08Z</time></trkpt>
<trkpt lat="24.396762" lon="111.530359">
<time>2016-10-06T12:43:09Z</time></trkpt>
<trkpt lat="24.396822" lon="111.530128">
<time>2016-10-06T12:43:10Z</time></trkpt>
<trkpt lat="24.39695" lon="111.529627">
<time>2016-10-06T12:43:11Z</time></trkpt>
<trkpt lat="24.397069" lon="111.529216">
<time>2016-10-06T12:43:12Z</time></trkpt>
<trkpt lat="24.397148" lon="111.528895">
<time>2016-10-06T12:43:13Z</time></trkpt>
<trkpt lat="24.397228" lon="111.528614">
<time>2016-10-06T12:43:14Z</time></trkpt>
<trkpt lat="24.397317" lon="111.528314">
<time>2016-10-06T12:43:15Z</time></trkpt>
<trkpt lat="24.397456" lon="111.527792">
<time>2016-10-06T12:43:16Z</time></trkpt>
<trkpt lat="24.397485" lon="111.527692">
<time>2016-10-06T12:43:17Z</time></trkpt>
<trkpt lat="24.397555" lon="111.527431">
<time>2016-10-06T12:43:18Z</time></trkpt>
<trkpt lat="24.397664" lon="111.52704">
<time>2016-10-06T12:43:19Z</time></trkpt>
<trkpt lat="24.397723" lon="111.52684">
<time>2016-10-06T12:43:20Z</time></trkpt>
<trkpt lat="24.397852" lon="111.526349">
<time>2016-10-06T12:43:21Z</time></trkpt>
<trkpt lat="24.398021" lon="111.525727">
<time>2016-10-06T12:43:22Z</time></trkpt>
<trkpt lat="24.398189" lon="111.525126">
<time>2016-10-06T12:43:23Z</time></trkpt>
<trkpt lat="24.398318" lon="111.524694">
<time>2016-10-06T12:43:24Z</time></trkpt>
<trkpt lat="24.398427" lon="111.524374">
<time>2016-10-06T12:43:25Z</time></trkpt>
<trkpt lat="24.398536" lon="111.524093">
<time>2016-10-06T12:43:26Z</time></trkpt>
<trkpt lat="24.398646" lon="111.523832">
<time>2016-10-06T12:43:27Z</time></trkpt>
<trkpt lat="24.398755" lon="111.523612">
<time>2016-10-06T12:43:28Z</time></trkpt>
<trkpt lat="24.398875" lon="111.523401">
<time>2016-10-06T12:43:29Z</time></trkpt>
<trkpt lat="24.398984" lon="111.523221">
<time>2016-10-06T12:43:30Z</time></trkpt>
<trkpt lat="24.399124" lon="111.52301">
<time>2016-10-06T12:43:31Z</time></trkpt>
<trkpt lat="24.399263" lon="111.52283">
<time>2016-10-06T12:43:32Z</time></trkpt>
<trkpt lat="24.399443" lon="111.522609">
<time>2016-10-06T12:43:33Z</time></trkpt>
<trkpt lat="24.399582" lon="111.522459">
<time>2016-10-06T12:43:34Z</time></trkpt>
<trkpt lat="24.399742" lon="111.522298">
<time>2016-10-06T12:43:35Z</time></trkpt>
<trkpt lat="24.400011" lon="111.522068">
<time>2016-10-06T12:43:36Z</time></trkpt>
<trkpt lat="24.400231" lon="111.521897">
<time>2016-10-06T12:43:37Z</time></trkpt>
<trkpt lat="24.400431" lon="111.521757">
<time>2016-10-06T12:43:38Z</time></trkpt>
<trkpt lat="24.40061" lon="111.521636">
<time>2016-10-06T12:43:39Z</time></trkpt>
<trkpt lat="24.40095" lon="111.521426">
<time>2016-10-06T12:43:40Z</time></trkpt>
<trkpt lat="24.401469" lon="111.521115">
<time>2016-10-06T12:43:41Z</time></trkpt>
<trkpt lat="24.401968" lon="111.520814">
<time>2016-10-06T12:43:42Z</time></trkpt>
<trkpt lat="24.402548" lon="111.520463">
<time>2016-10-06T12:43:43Z</time></trkpt>
<trkpt lat="24.402997" lon="111.520192">
<time>2016-10-06T12:43:44Z</time></trkpt>
<trkpt lat="24.403426" lon="111.519942">
<time>2016-10-06T12:43:45Z</time></trkpt>
<trkpt lat="24.403876" lon="111.519661">
<time>2016-10-06T12:43:46Z</time></trkpt>
<trkpt lat="24.404335" lon="111.51939">
<time>2016-10-06T12:43:47Z</time></trkpt>
<trkpt lat="24.404784" lon="111.519119">
<time>2016-10-06T12:43:48Z</time></trkpt>
<trkpt lat="24.405304" lon="111.518808">
<time>2016-10-06T12:43:49Z</time></trkpt>
<trkpt lat="24.405763" lon="111.518528">
<time>2016-10-06T12:43:50Z</time></trkpt>
<trkpt lat="24.406053" lon="111.518357">
<time>2016-10-06T12:43:51Z</time></trkpt>
<trkpt lat="24.406292" lon="111.518217">
<time>2016-10-06T12:43:52Z</time></trkpt>
<trkpt lat="24.406861" lon="111.517876">
<time>2016-10-06T12:43:53Z</time></trkpt>
<trkpt lat="24.40767" lon="111.517395">
<time>2016-10-06T12:43:54Z</time></trkpt>
<trkpt lat="24.40814" lon="111.517114">
<time>2016-10-06T12:43:55Z</time></trkpt>
<trkpt lat="24.408669" lon="111.516793">
<time>2016-10-06T12:43:56Z</time></trkpt>
<trkpt lat="24.409058" lon="111.516552">
<time>2016-10-06T12:43:57Z</time></trkpt>
<trkpt lat="24.409298" lon="111.516412">
<time>2016-10-06T12:43:58Z</time></trkpt>
<trkpt lat="24.409587" lon="111.516251">
<time>2016-10-06T12:43:59Z</time></trkpt>
<trkpt lat="24.410007" lon="111.515991">
<time>2016-10-06T12:44:00Z</time></trkpt>
<trkpt lat="24.410426" lon="111.51573">
<time>2016-10-06T12:44:01Z</time></trkpt>
<trkpt lat="24.410686" lon="111.515579">
<time>2016-10-06T12:44:02Z</time></trkpt>
<trkpt lat="24.411005" lon="111.515389">
<time>2016-10-06T12:44:03Z</time></trkpt>
<trkpt lat="24.411385" lon="111.515158">
<time>2016-10-06T12:44:04Z</time></trkpt>
<trkpt lat="24.412813" lon="111.514296">
<time>2016-10-06T12:44:05Z</time></trkpt>
<trkpt lat="24.413352" lon="111.513975">
<time>2016-10-06T12:44:06Z</time></trkpt>
<trkpt lat="24.413921" lon="111.513634">
<time>2016-10-06T12:44:07Z</time></trkpt>
<trkpt lat="24.41444" lon="111.513323">
<time>2016-10-06T12:44:08Z</time></trkpt>
<trkpt lat="24.41483" lon="111.513082">
<time>2016-10-06T12:44:09Z</time></trkpt>
<trkpt lat="24.415119" lon="111.512912">
<time>2016-10-06T12:44:10Z</time></trkpt>
<trkpt lat="24.415309" lon="111.512801">
<time>2016-10-06T12:44:11Z</time></trkpt>
<trkpt lat="24.415639" lon="111.512611">
<time>2016-10-06T12:44:12Z</time></trkpt>
<trkpt lat="24.415838" lon="111.51249">
<time>2016-10-06T12:44:13Z</time></trkpt>
<trkpt lat="24.416118" lon="111.51231">
<time>2016-10-06T12:44:14Z</time></trkpt>
<trkpt lat="24.416288" lon="111.51221">
<time>2016-10-06T12:44:15Z</time></trkpt>
<trkpt lat="24.416417" lon="111.512139">
<time>2016-10-06T12:44:16Z</time></trkpt>
<trkpt lat="24.416567" lon="111.512049">
<time>2016-10-06T12:44:17Z</time></trkpt>
<trkpt lat="24.416687" lon="111.511979">
<time>2016-10-06T12:44:18Z</time></trkpt>
<trkpt lat="24.417156" lon="111.511698">
<time>2016-10-06T12:44:19Z</time></trkpt>
<trkpt lat="24.417156" lon="111.511698">
<time>2016-10-06T12:44:20Z</time></trkpt>
<trkpt lat="24.417116" lon="111.511618">
<time>2016-10-06T12:44:21Z</time></trkpt>
<trkpt lat="24.417116" lon="111.511618">
<time>2016-10-06T12:44:22Z</time></trkpt>
<trkpt lat="24.417835" lon="111.511167">
<time>2016-10-06T12:44:23Z</time></trkpt>
<trkpt lat="24.417875" lon="111.511146">
<time>2016-10-06T12:44:24Z</time></trkpt>
<trkpt lat="24.418025" lon="111.511066">
<time>2016-10-06T12:44:25Z</time></trkpt>
<trkpt lat="24.418224" lon="111.510966">
<time>2016-10-06T12:44:26Z</time></trkpt>
<trkpt lat="24.418464" lon="111.510836">
<time>2016-10-06T12:44:27Z</time></trkpt>
<trkpt lat="24.418684" lon="111.510745">
<time>2016-10-06T12:44:28Z</time></trkpt>
<trkpt lat="24.419064" lon="111.510615">
<time>2016-10-06T12:44:29Z</time></trkpt>
<trkpt lat="24.419373" lon="111.510505">
<time>2016-10-06T12:44:30Z</time></trkpt>
<trkpt lat="24.419583" lon="111.510444">
<time>2016-10-06T12:44:31Z</time></trkpt>
<trkpt lat="24.419833" lon="111.510374">
<time>2016-10-06T12:44:32Z</time></trkpt>
<trkpt lat="24.419993" lon="111.510334">
<time>2016-10-06T12:44:33Z</time></trkpt>
<trkpt lat="24.420333" lon="111.510264">
<time>2016-10-06T12:44:34Z</time></trkpt>
<trkpt lat="24.420543" lon="111.510224">
<time>2016-10-06T12:44:35Z</time></trkpt>
<trkpt lat="24.420693" lon="111.510204">
<time>2016-10-06T12:44:36Z</time></trkpt>
<trkpt lat="24.420943" lon="111.510184">
<time>2016-10-06T12:44:37Z</time></trkpt>
<trkpt lat="24.420983" lon="111.510184">
<time>2016-10-06T12:44:38Z</time></trkpt>
<trkpt lat="24.421323" lon="111.510153">
<time>2016-10-06T12:44:39Z</time></trkpt>
<trkpt lat="24.421533" lon="111.510153">
<time>2016-10-06T12:44:40Z</time></trkpt>
<trkpt lat="24.421583" lon="111.510153">
<time>2016-10-06T12:44:41Z</time></trkpt>
<trkpt lat="24.421593" lon="111.510153">
<time>2016-10-06T12:44:42Z</time></trkpt>
<trkpt lat="24.421603" lon="111.510153">
<time>2016-10-06T12:44:43Z</time></trkpt>
<trkpt lat="24.421613" lon="111.510153">
<time>2016-10-06T12:44:44Z</time></trkpt>
<trkpt lat="24.421623" lon="111.510153">
<time>2016-10-06T12:44:45Z</time></trkpt>
<trkpt lat="24.421633" lon="111.510153">
<time>2016-10-06T12:44:46Z</time></trkpt>
<trkpt lat="24.421683" lon="111.510153">
<time>2016-10-06T12:44:47Z</time></trkpt>
<trkpt lat="24.421923" lon="111.510153">
<time>2016-10-06T12:44:48Z</time></trkpt>
<trkpt lat="24.422243" lon="111.510173">
<time>2016-10-06T12:44:49Z</time></trkpt>
<trkpt lat="24.423173" lon="111.510244">
<time>2016-10-06T12:44:50Z</time></trkpt>
<trkpt lat="24.425735" lon="111.510444">
<time>2016-10-06T12:44:51Z</time></trkpt>
<trkpt lat="24.434608" lon="111.511135">
<time>2016-10-06T12:44:52Z</time></trkpt>
<trkpt lat="24.435199" lon="111.511155">
<time>2016-10-06T12:44:53Z</time></trkpt>
<trkpt lat="24.435529" lon="111.511135">
<time>2016-10-06T12:44:54Z</time></trkpt>
<trkpt lat="24.435819" lon="111.511085">
<time>2016-10-06T12:44:55Z</time></trkpt>
<trkpt lat="24.436009" lon="111.511055">
<time>2016-10-06T12:44:56Z</time></trkpt>
<trkpt lat="24.436438" lon="111.510925">
<time>2016-10-06T12:44:57Z</time></trkpt>
<trkpt lat="24.439605" lon="111.509721">
<time>2016-10-06T12:44:58Z</time></trkpt>
<trkpt lat="24.439785" lon="111.509651">
<time>2016-10-06T12:44:59Z</time></trkpt>
<trkpt lat="24.440614" lon="111.50934">
<time>2016-10-06T12:45:00Z</time></trkpt>
<trkpt lat="24.441594" lon="111.508939">
<time>2016-10-06T12:45:01Z</time></trkpt>
<trkpt lat="24.441684" lon="111.508959">
<time>2016-10-06T12:45:02Z</time></trkpt>
<trkpt lat="24.441983" lon="111.508838">
<time>2016-10-06T12:45:03Z</time></trkpt>
<trkpt lat="24.442273" lon="111.508718">
<time>2016-10-06T12:45:04Z</time></trkpt>
<trkpt lat="24.442723" lon="111.508517">
<time>2016-10-06T12:45:05Z</time></trkpt>
<trkpt lat="24.4449" lon="111.507454">
<time>2016-10-06T12:45:06Z</time></trkpt>
<trkpt lat="24.445369" lon="111.507234">
<time>2016-10-06T12:45:07Z</time></trkpt>
<trkpt lat="24.445569" lon="111.507133">
<time>2016-10-06T12:45:08Z</time></trkpt>
<trkpt lat="24.447187" lon="111.506341">
<time>2016-10-06T12:45:09Z</time></trkpt>
<trkpt lat="24.447776" lon="111.50604">
<time>2016-10-06T12:45:10Z</time></trkpt>
<trkpt lat="24.448186" lon="111.505789">
<time>2016-10-06T12:45:11Z</time></trkpt>
<trkpt lat="24.448505" lon="111.505518">
<time>2016-10-06T12:45:12Z</time></trkpt>
<trkpt lat="24.448724" lon="111.505298">
<time>2016-10-06T12:45:13Z</time></trkpt>
<trkpt lat="24.448874" lon="111.505117">
<time>2016-10-06T12:45:14Z</time></trkpt>
<trkpt lat="24.449103" lon="111.504796">
<time>2016-10-06T12:45:15Z</time></trkpt>
<trkpt lat="24.449302" lon="111.504455">
<time>2016-10-06T12:45:16Z</time></trkpt>
<trkpt lat="24.449381" lon="111.504295">
<time>2016-10-06T12:45:17Z</time></trkpt>
<trkpt lat="24.449431" lon="111.504144">
<time>2016-10-06T12:45:18Z</time></trkpt>
<trkpt lat="24.449689" lon="111.503402">
<time>2016-10-06T12:45:19Z</time></trkpt>
<trkpt lat="24.450066" lon="111.502309">
<time>2016-10-06T12:45:20Z</time></trkpt>
<trkpt lat="24.450244" lon="111.501828">
<time>2016-10-06T12:45:21Z</time></trkpt>
<trkpt lat="24.450304" lon="111.501677">
<time>2016-10-06T12:45:22Z</time></trkpt>
<trkpt lat="24.450482" lon="111.501236">
<time>2016-10-06T12:45:23Z</time></trkpt>
<trkpt lat="24.45083" lon="111.500484">
<time>2016-10-06T12:45:24Z</time></trkpt>
<trkpt lat="24.451069" lon="111.500012">
<time>2016-10-06T12:45:25Z</time></trkpt>
<trkpt lat="24.451377" lon="111.49941">
<time>2016-10-06T12:45:26Z</time></trkpt>
<trkpt lat="24.451685" lon="111.498809">
<time>2016-10-06T12:45:27Z</time></trkpt>
<trkpt lat="24.452083" lon="111.498036">
<time>2016-10-06T12:45:28Z</time></trkpt>
<trkpt lat="24.452352" lon="111.497505">
<time>2016-10-06T12:45:29Z</time></trkpt>
<trkpt lat="24.45265" lon="111.496933">
<time>2016-10-06T12:45:30Z</time></trkpt>
<trkpt lat="24.453088" lon="111.496091">
<time>2016-10-06T12:45:31Z</time></trkpt>
<trkpt lat="24.453277" lon="111.49573">
<time>2016-10-06T12:45:32Z</time></trkpt>
<trkpt lat="24.453475" lon="111.495328">
<time>2016-10-06T12:45:33Z</time></trkpt>
<trkpt lat="24.453823" lon="111.494656">
<time>2016-10-06T12:45:34Z</time></trkpt>
<trkpt lat="24.454112" lon="111.494085">
<time>2016-10-06T12:45:35Z</time></trkpt>
<trkpt lat="24.454201" lon="111.493924">
<time>2016-10-06T12:45:36Z</time></trkpt>
<trkpt lat="24.454301" lon="111.493714">
<time>2016-10-06T12:45:37Z</time></trkpt>
<trkpt lat="24.45443" lon="111.493433">
<time>2016-10-06T12:45:38Z</time></trkpt>
<trkpt lat="24.454519" lon="111.493202">
<time>2016-10-06T12:45:39Z</time></trkpt>
<trkpt lat="24.454579" lon="111.493042">
<time>2016-10-06T12:45:40Z</time></trkpt>
<trkpt lat="24.454648" lon="111.492841">
<time>2016-10-06T12:45:41Z</time></trkpt>
<trkpt lat="24.454688" lon="111.492701">
<time>2016-10-06T12:45:42Z</time></trkpt>
<trkpt lat="24.454717" lon="111.49258">
<time>2016-10-06T12:45:43Z</time></trkpt>
<trkpt lat="24.454757" lon="111.49243">
<time>2016-10-06T12:45:44Z</time></trkpt>
<trkpt lat="24.454885" lon="111.491898">
<time>2016-10-06T12:45:45Z</time></trkpt>
<trkpt lat="24.454934" lon="111.491617">
<time>2016-10-06T12:45:46Z</time></trkpt>
<trkpt lat="24.455033" lon="111.491076">
<time>2016-10-06T12:45:47Z</time></trkpt>
<trkpt lat="24.455249" lon="111.489762">
<time>2016-10-06T12:45:48Z</time></trkpt>
<trkpt lat="24.455367" lon="111.48899">
<time>2016-10-06T12:45:49Z</time></trkpt>
<trkpt lat="24.455455" lon="111.488498">
<time>2016-10-06T12:45:50Z</time></trkpt>
<trkpt lat="24.455524" lon="111.488157">
<time>2016-10-06T12:45:51Z</time></trkpt>
<trkpt lat="24.455593" lon="111.487867">
<time>2016-10-06T12:45:52Z</time></trkpt>
<trkpt lat="24.455653" lon="111.487606">
<time>2016-10-06T12:45:53Z</time></trkpt>
<trkpt lat="24.455712" lon="111.487425">
<time>2016-10-06T12:45:54Z</time></trkpt>
<trkpt lat="24.455762" lon="111.487295">
<time>2016-10-06T12:45:55Z</time></trkpt>
<trkpt lat="24.455851" lon="111.487124">
<time>2016-10-06T12:45:56Z</time></trkpt>
<trkpt lat="24.455911" lon="111.487004">
<time>2016-10-06T12:45:57Z</time></trkpt>
<trkpt lat="24.455971" lon="111.486914">
<time>2016-10-06T12:45:58Z</time></trkpt>
<trkpt lat="24.45604" lon="111.486803">
<time>2016-10-06T12:45:59Z</time></trkpt>
<trkpt lat="24.45613" lon="111.486683">
<time>2016-10-06T12:46:00Z</time></trkpt>
<trkpt lat="24.45619" lon="111.486603">
<time>2016-10-06T12:46:01Z</time></trkpt>
<trkpt lat="24.456269" lon="111.486503">
<time>2016-10-06T12:46:02Z</time></trkpt>
<trkpt lat="24.456379" lon="111.486382">
<time>2016-10-06T12:46:03Z</time></trkpt>
<trkpt lat="24.456509" lon="111.486272">
<time>2016-10-06T12:46:04Z</time></trkpt>
<trkpt lat="24.456628" lon="111.486152">
<time>2016-10-06T12:46:05Z</time></trkpt>
<trkpt lat="24.456818" lon="111.485991">
<time>2016-10-06T12:46:06Z</time></trkpt>
<trkpt lat="24.457008" lon="111.485851">
<time>2016-10-06T12:46:07Z</time></trkpt>
<trkpt lat="24.457077" lon="111.4858">
<time>2016-10-06T12:46:08Z</time></trkpt>
<trkpt lat="24.457187" lon="111.48574">
<time>2016-10-06T12:46:09Z</time></trkpt>
<trkpt lat="24.457187" lon="111.48574">
<time>2016-10-06T12:46:10Z</time></trkpt>
<trkpt lat="24.457207" lon="111.48546">
<time>2016-10-06T12:46:11Z</time></trkpt>
<trkpt lat="24.456982" lon="111.480515">
<time>2016-10-06T12:46:12Z</time></trkpt>
<trkpt lat="24.456982" lon="111.480515">
<time>2016-10-06T12:46:13Z</time></trkpt>
<trkpt lat="24.456885" lon="111.478319">
<time>2016-10-06T12:46:14Z</time></trkpt>
<trkpt lat="24.456891" lon="111.476805">
<time>2016-10-06T12:46:15Z</time></trkpt>
<trkpt lat="24.456899" lon="111.476153">
<time>2016-10-06T12:46:16Z</time></trkpt>
<trkpt lat="24.456907" lon="111.475211">
<time>2016-10-06T12:46:17Z</time></trkpt>
<trkpt lat="24.456904" lon="111.474459">
<time>2016-10-06T12:46:18Z</time></trkpt>
<trkpt lat="24.456914" lon="111.474399">
<time>2016-10-06T12:46:19Z</time></trkpt>
<trkpt lat="24.456983" lon="111.473988">
<time>2016-10-06T12:46:20Z</time></trkpt>
<trkpt lat="24.457141" lon="111.473306">
<time>2016-10-06T12:46:21Z</time></trkpt>
<trkpt lat="24.457131" lon="111.473286">
<time>2016-10-06T12:46:22Z</time></trkpt>
<trkpt lat="24.45698" lon="111.472995">
<time>2016-10-06T12:46:23Z</time></trkpt>
<trkpt lat="24.456559" lon="111.472413">
<time>2016-10-06T12:46:24Z</time></trkpt>
<trkpt lat="24.456559" lon="111.472413">
<time>2016-10-06T12:46:25Z</time></trkpt>
<trkpt lat="24.456897" lon="111.471982">
<time>2016-10-06T12:46:26Z</time></trkpt>
<trkpt lat="24.457226" lon="111.471511">
<time>2016-10-06T12:46:27Z</time></trkpt>
<trkpt lat="24.457535" lon="111.471">
<time>2016-10-06T12:46:28Z</time></trkpt>
<trkpt lat="24.457843" lon="111.470428">
<time>2016-10-06T12:46:29Z</time></trkpt>
<trkpt lat="24.458032" lon="111.469997">
<time>2016-10-06T12:46:30Z</time></trkpt>
<trkpt lat="24.458141" lon="111.469716">
<time>2016-10-06T12:46:31Z</time></trkpt>
<trkpt lat="24.458231" lon="111.469415">
<time>2016-10-06T12:46:32Z</time></trkpt>
<trkpt lat="24.45833" lon="111.469094">
<time>2016-10-06T12:46:33Z</time></trkpt>
<trkpt lat="24.458429" lon="111.468713">
<time>2016-10-06T12:46:34Z</time></trkpt>
<trkpt lat="24.458538" lon="111.468433">
<time>2016-10-06T12:46:35Z</time></trkpt>
<trkpt lat="24.458657" lon="111.468162">
<time>2016-10-06T12:46:36Z</time></trkpt>
<trkpt lat="24.458976" lon="111.46756">
<time>2016-10-06T12:46:37Z</time></trkpt>
<trkpt lat="24.459075" lon="111.46734">
<time>2016-10-06T12:46:38Z</time></trkpt>
<trkpt lat="24.459453" lon="111.466408">
<time>2016-10-06T12:46:39Z</time></trkpt>
<trkpt lat="24.459562" lon="111.466157">
<time>2016-10-06T12:46:40Z</time></trkpt>
<trkpt lat="24.459681" lon="111.465926">
<time>2016-10-06T12:46:41Z</time></trkpt>
<trkpt lat="24.459821" lon="111.465696">
<time>2016-10-06T12:46:42Z</time></trkpt>
<trkpt lat="24.45996" lon="111.465485">
<time>2016-10-06T12:46:43Z</time></trkpt>
<trkpt lat="24.46011" lon="111.465295">
<time>2016-10-06T12:46:44Z</time></trkpt>
<trkpt lat="24.460608" lon="111.464713">
<time>2016-10-06T12:46:45Z</time></trkpt>
<trkpt lat="24.460957" lon="111.464212">
<time>2016-10-06T12:46:46Z</time></trkpt>
<trkpt lat="24.461136" lon="111.463961">
<time>2016-10-06T12:46:47Z</time></trkpt>
<trkpt lat="24.461346" lon="111.463741">
<time>2016-10-06T12:46:48Z</time></trkpt>
<trkpt lat="24.461486" lon="111.46363">
<time>2016-10-06T12:46:49Z</time></trkpt>
<trkpt lat="24.461695" lon="111.4635">
<time>2016-10-06T12:46:50Z</time></trkpt>
<trkpt lat="24.461925" lon="111.4634">
<time>2016-10-06T12:46:51Z</time></trkpt>
<trkpt lat="24.462095" lon="111.46336">
<time>2016-10-06T12:46:52Z</time></trkpt>
<trkpt lat="24.462375" lon="111.46331">
<time>2016-10-06T12:46:53Z</time></trkpt>
<trkpt lat="24.462975" lon="111.46327">
<time>2016-10-06T12:46:54Z</time></trkpt>
<trkpt lat="24.463225" lon="111.463239">
<time>2016-10-06T12:46:55Z</time></trkpt>
<trkpt lat="24.464165" lon="111.463049">
<time>2016-10-06T12:46:56Z</time></trkpt>
<trkpt lat="24.464265" lon="111.463029">
<time>2016-10-06T12:46:57Z</time></trkpt>
<trkpt lat="24.464265" lon="111.463029">
<time>2016-10-06T12:46:58Z</time></trkpt>
<trkpt lat="24.464374" lon="111.462668">
<time>2016-10-06T12:46:59Z</time></trkpt>
<trkpt lat="24.464483" lon="111.462357">
<time>2016-10-06T12:47:00Z</time></trkpt>
<trkpt lat="24.464871" lon="111.461575">
<time>2016-10-06T12:47:01Z</time></trkpt>
<trkpt lat="24.46497" lon="111.461255">
<time>2016-10-06T12:47:02Z</time></trkpt>
<trkpt lat="24.465109" lon="111.460854">
<time>2016-10-06T12:47:03Z</time></trkpt>
<trkpt lat="24.465416" lon="111.459731">
<time>2016-10-06T12:47:04Z</time></trkpt>
<trkpt lat="24.465594" lon="111.458719">
<time>2016-10-06T12:47:05Z</time></trkpt>
<trkpt lat="24.465642" lon="111.458147">
<time>2016-10-06T12:47:06Z</time></trkpt>
<trkpt lat="24.465501" lon="111.457566">
<time>2016-10-06T12:47:07Z</time></trkpt>
<trkpt lat="24.46546" lon="111.457355">
<time>2016-10-06T12:47:08Z</time></trkpt>
<trkpt lat="24.46543" lon="111.457075">
<time>2016-10-06T12:47:09Z</time></trkpt>
<trkpt lat="24.465409" lon="111.456734">
<time>2016-10-06T12:47:10Z</time></trkpt>
<trkpt lat="24.465409" lon="111.456614">
<time>2016-10-06T12:47:11Z</time></trkpt>
<trkpt lat="24.465428" lon="111.456504">
<time>2016-10-06T12:47:12Z</time></trkpt>
<trkpt lat="24.465438" lon="111.456453">
<time>2016-10-06T12:47:13Z</time></trkpt>
<trkpt lat="24.465468" lon="111.456353">
<time>2016-10-06T12:47:14Z</time></trkpt>
<trkpt lat="24.465548" lon="111.456293">
<time>2016-10-06T12:47:15Z</time></trkpt>
<trkpt lat="24.465618" lon="111.456233">
<time>2016-10-06T12:47:16Z</time></trkpt>
<trkpt lat="24.465628" lon="111.456223">
<time>2016-10-06T12:47:17Z</time></trkpt>
<trkpt lat="24.465817" lon="111.455942">
<time>2016-10-06T12:47:18Z</time></trkpt>
<trkpt lat="24.465937" lon="111.455762">
<time>2016-10-06T12:47:19Z</time></trkpt>
<trkpt lat="24.466575" lon="111.455171">
<time>2016-10-06T12:47:20Z</time></trkpt>
<trkpt lat="24.466575" lon="111.455171">
<time>2016-10-06T12:47:21Z</time></trkpt>
<trkpt lat="24.466485" lon="111.45498">
<time>2016-10-06T12:47:22Z</time></trkpt>
<trkpt lat="24.466093" lon="111.454339">
<time>2016-10-06T12:47:23Z</time></trkpt>
<trkpt lat="24.465381" lon="111.453226">
<time>2016-10-06T12:47:24Z</time></trkpt>
<trkpt lat="24.46511" lon="111.452806">
<time>2016-10-06T12:47:25Z</time></trkpt>
<trkpt lat="24.464839" lon="111.452415">
<time>2016-10-06T12:47:26Z</time></trkpt>
<trkpt lat="24.464578" lon="111.452114">
<time>2016-10-06T12:47:27Z</time></trkpt>
<trkpt lat="24.463986" lon="111.451483">
<time>2016-10-06T12:47:28Z</time></trkpt>
<trkpt lat="24.463405" lon="111.450942">
<time>2016-10-06T12:47:29Z</time></trkpt>
<trkpt lat="24.463054" lon="111.450531">
<time>2016-10-06T12:47:30Z</time></trkpt>
<trkpt lat="24.462673" lon="111.45015">
<time>2016-10-06T12:47:31Z</time></trkpt>
<trkpt lat="24.462653" lon="111.45011">
<time>2016-10-06T12:47:32Z</time></trkpt>
<trkpt lat="24.462462" lon="111.449739">
<time>2016-10-06T12:47:33Z</time></trkpt>
<trkpt lat="24.462251" lon="111.449379">
<time>2016-10-06T12:47:34Z</time></trkpt>
<trkpt lat="24.462" lon="111.448988">
<time>2016-10-06T12:47:35Z</time></trkpt>
<trkpt lat="24.46187" lon="111.448687">
<time>2016-10-06T12:47:36Z</time></trkpt>
<trkpt lat="24.461598" lon="111.448156">
<time>2016-10-06T12:47:37Z</time></trkpt>
<trkpt lat="24.461057" lon="111.447666">
<time>2016-10-06T12:47:38Z</time></trkpt>
<trkpt lat="24.460686" lon="111.446974">
<time>2016-10-06T12:47:39Z</time></trkpt>
<trkpt lat="24.460315" lon="111.446473">
<time>2016-10-06T12:47:40Z</time></trkpt>
<trkpt lat="24.45922" lon="111.444259">
<time>2016-10-06T12:47:41Z</time></trkpt>
<trkpt lat="24.456783" lon="111.440924">
<time>2016-10-06T12:47:42Z</time></trkpt>
<trkpt lat="24.456753" lon="111.440784">
<time>2016-10-06T12:47:43Z</time></trkpt>
<trkpt lat="24.456692" lon="111.440413">
<time>2016-10-06T12:47:44Z</time></trkpt>
<trkpt lat="24.456631" lon="111.439752">
<time>2016-10-06T12:47:45Z</time></trkpt>
<trkpt lat="24.456477" lon="111.437979">
<time>2016-10-06T12:47:46Z</time></trkpt>
<trkpt lat="24.456394" lon="111.436327">
<time>2016-10-06T12:47:47Z</time></trkpt>
<trkpt lat="24.456291" lon="111.434514">
<time>2016-10-06T12:47:48Z</time></trkpt>
<trkpt lat="24.45632" lon="111.433573">
<time>2016-10-06T12:47:49Z</time></trkpt>
<trkpt lat="24.456319" lon="111.433373">
<time>2016-10-06T12:47:50Z</time></trkpt>
<trkpt lat="24.456329" lon="111.432952">
<time>2016-10-06T12:47:51Z</time></trkpt>
<trkpt lat="24.456347" lon="111.432051">
<time>2016-10-06T12:47:52Z</time></trkpt>
<trkpt lat="24.456356" lon="111.43125">
<time>2016-10-06T12:47:53Z</time></trkpt>
<trkpt lat="24.456363" lon="111.429388">
<time>2016-10-06T12:47:54Z</time></trkpt>
<trkpt lat="24.456373" lon="111.428897">
<time>2016-10-06T12:47:55Z</time></trkpt>
<trkpt lat="24.456522" lon="111.428157">
<time>2016-10-06T12:47:56Z</time></trkpt>
<trkpt lat="24.456581" lon="111.427856">
<time>2016-10-06T12:47:57Z</time></trkpt>
<trkpt lat="24.456621" lon="111.427566">
<time>2016-10-06T12:47:58Z</time></trkpt>
<trkpt lat="24.45673" lon="111.426795">
<time>2016-10-06T12:47:59Z</time></trkpt>
<trkpt lat="24.456739" lon="111.426415">
<time>2016-10-06T12:48:00Z</time></trkpt>
<trkpt lat="24.456787" lon="111.424954">
<time>2016-10-06T12:48:01Z</time></trkpt>
<trkpt lat="24.456817" lon="111.424453">
<time>2016-10-06T12:48:02Z</time></trkpt>
<trkpt lat="24.456837" lon="111.424413">
<time>2016-10-06T12:48:03Z</time></trkpt>
<trkpt lat="24.456926" lon="111.424043">
<time>2016-10-06T12:48:04Z</time></trkpt>
<trkpt lat="24.457056" lon="111.423632">
<time>2016-10-06T12:48:05Z</time></trkpt>
<trkpt lat="24.457514" lon="111.422301">
<time>2016-10-06T12:48:06Z</time></trkpt>
<trkpt lat="24.457614" lon="111.422071">
<time>2016-10-06T12:48:07Z</time></trkpt>
<trkpt lat="24.458193" lon="111.42076">
<time>2016-10-06T12:48:08Z</time></trkpt>
<trkpt lat="24.458353" lon="111.4204">
<time>2016-10-06T12:48:09Z</time></trkpt>
<trkpt lat="24.45935" lon="111.418178">
<time>2016-10-06T12:48:10Z</time></trkpt>
<trkpt lat="24.4596" lon="111.417518">
<time>2016-10-06T12:48:11Z</time></trkpt>
<trkpt lat="24.45991" lon="111.417068">
<time>2016-10-06T12:48:12Z</time></trkpt>
<trkpt lat="24.460199" lon="111.416908">
<time>2016-10-06T12:48:13Z</time></trkpt>
<trkpt lat="24.460369" lon="111.416808">
<time>2016-10-06T12:48:14Z</time></trkpt>
<trkpt lat="24.460579" lon="111.416718">
<time>2016-10-06T12:48:15Z</time></trkpt>
<trkpt lat="24.460839" lon="111.416537">
<time>2016-10-06T12:48:16Z</time></trkpt>
<trkpt lat="24.461159" lon="111.416307">
<time>2016-10-06T12:48:17Z</time></trkpt>
<trkpt lat="24.461379" lon="111.416177">
<time>2016-10-06T12:48:18Z</time></trkpt>
<trkpt lat="24.461609" lon="111.415997">
<time>2016-10-06T12:48:19Z</time></trkpt>
<trkpt lat="24.461929" lon="111.415737">
<time>2016-10-06T12:48:20Z</time></trkpt>
<trkpt lat="24.462149" lon="111.415517">
<time>2016-10-06T12:48:21Z</time></trkpt>
<trkpt lat="24.462418" lon="111.415157">
<time>2016-10-06T12:48:22Z</time></trkpt>
<trkpt lat="24.462888" lon="111.414817">
<time>2016-10-06T12:48:23Z</time></trkpt>
<trkpt lat="24.463418" lon="111.414626">
<time>2016-10-06T12:48:24Z</time></trkpt>
<trkpt lat="24.463678" lon="111.414406">
<time>2016-10-06T12:48:25Z</time></trkpt>
<trkpt lat="24.463878" lon="111.414216">
<time>2016-10-06T12:48:26Z</time></trkpt>
<trkpt lat="24.464088" lon="111.413946">
<time>2016-10-06T12:48:27Z</time></trkpt>
<trkpt lat="24.464457" lon="111.413466">
<time>2016-10-06T12:48:28Z</time></trkpt>
<trkpt lat="24.464557" lon="111.413276">
<time>2016-10-06T12:48:29Z</time></trkpt>
<trkpt lat="24.464657" lon="111.413126">
<time>2016-10-06T12:48:30Z</time></trkpt>
<trkpt lat="24.464667" lon="111.413096">
<time>2016-10-06T12:48:31Z</time></trkpt>
<trkpt lat="24.464877" lon="111.412546">
<time>2016-10-06T12:48:32Z</time></trkpt>
<trkpt lat="24.464907" lon="111.412456">
<time>2016-10-06T12:48:33Z</time></trkpt>
<trkpt lat="24.465046" lon="111.411845">
<time>2016-10-06T12:48:34Z</time></trkpt>
<trkpt lat="24.465405" lon="111.410325">
<time>2016-10-06T12:48:35Z</time></trkpt>
<trkpt lat="24.465545" lon="111.409505">
<time>2016-10-06T12:48:36Z</time></trkpt>
<trkpt lat="24.465414" lon="111.408585">
<time>2016-10-06T12:48:37Z</time></trkpt>
<trkpt lat="24.465354" lon="111.408085">
<time>2016-10-06T12:48:38Z</time></trkpt>
<trkpt lat="24.465394" lon="111.407535">
<time>2016-10-06T12:48:39Z</time></trkpt>
<trkpt lat="24.465464" lon="111.407205">
<time>2016-10-06T12:48:40Z</time></trkpt>
<trkpt lat="24.465494" lon="111.407075">
<time>2016-10-06T12:48:41Z</time></trkpt>
<trkpt lat="24.465544" lon="111.406915">
<time>2016-10-06T12:48:42Z</time></trkpt>
<trkpt lat="24.465664" lon="111.406635">
<time>2016-10-06T12:48:43Z</time></trkpt>
<trkpt lat="24.465684" lon="111.406595">
<time>2016-10-06T12:48:44Z</time></trkpt>
<trkpt lat="24.465783" lon="111.406435">
<time>2016-10-06T12:48:45Z</time></trkpt>
<trkpt lat="24.466173" lon="111.406155">
<time>2016-10-06T12:48:46Z</time></trkpt>
<trkpt lat="24.466403" lon="111.406005">
<time>2016-10-06T12:48:47Z</time></trkpt>
<trkpt lat="24.466583" lon="111.405905">
<time>2016-10-06T12:48:48Z</time></trkpt>
<trkpt lat="24.466683" lon="111.405865">
<time>2016-10-06T12:48:49Z</time></trkpt>
<trkpt lat="24.466793" lon="111.405755">
<time>2016-10-06T12:48:50Z</time></trkpt>
<trkpt lat="24.466863" lon="111.405685">
<time>2016-10-06T12:48:51Z</time></trkpt>
<trkpt lat="24.466933" lon="111.405505">
<time>2016-10-06T12:48:52Z</time></trkpt>
<trkpt lat="24.467023" lon="111.405145">
<time>2016-10-06T12:48:53Z</time></trkpt>
<trkpt lat="24.467033" lon="111.404945">
<time>2016-10-06T12:48:54Z</time></trkpt>
<trkpt lat="24.467053" lon="111.404795">
<time>2016-10-06T12:48:55Z</time></trkpt>
<trkpt lat="24.467083" lon="111.404705">
<time>2016-10-06T12:48:56Z</time></trkpt>
<trkpt lat="24.467143" lon="111.404515">
<time>2016-10-06T12:48:57Z</time></trkpt>
<trkpt lat="24.467383" lon="111.403755">
<time>2016-10-06T12:48:58Z</time></trkpt>
<trkpt lat="24.467503" lon="111.403635">
<time>2016-10-06T12:48:59Z</time></trkpt>
<trkpt lat="24.467563" lon="111.403575">
<time>2016-10-06T12:49:00Z</time></trkpt>
<trkpt lat="24.467933" lon="111.403185">
<time>2016-10-06T12:49:01Z</time></trkpt>
<trkpt lat="24.468453" lon="111.402625">
<time>2016-10-06T12:49:02Z</time></trkpt>
<trkpt lat="24.468593" lon="111.402485">
<time>2016-10-06T12:49:03Z</time></trkpt>
<trkpt lat="24.468793" lon="111.402345">
<time>2016-10-06T12:49:04Z</time></trkpt>
<trkpt lat="24.468973" lon="111.402305">
<time>2016-10-06T12:49:05Z</time></trkpt>
<trkpt lat="24.469353" lon="111.402215">
<time>2016-10-06T12:49:06Z</time></trkpt>
<trkpt lat="24.469693" lon="111.402155">
<time>2016-10-06T12:49:07Z</time></trkpt>
<trkpt lat="24.470063" lon="111.402085">
<time>2016-10-06T12:49:08Z</time></trkpt>
<trkpt lat="24.470613" lon="111.401985">
<time>2016-10-06T12:49:09Z</time></trkpt>
<trkpt lat="24.470843" lon="111.401915">
<time>2016-10-06T12:49:10Z</time></trkpt>
<trkpt lat="24.471313" lon="111.401595">
<time>2016-10-06T12:49:11Z</time></trkpt>
<trkpt lat="24.471643" lon="111.401365">
<time>2016-10-06T12:49:12Z</time></trkpt>
<trkpt lat="24.472283" lon="111.400845">
<time>2016-10-06T12:49:13Z</time></trkpt>
<trkpt lat="24.472503" lon="111.400595">
<time>2016-10-06T12:49:14Z</time></trkpt>
<trkpt lat="24.472583" lon="111.400435">
<time>2016-10-06T12:49:15Z</time></trkpt>
<trkpt lat="24.472653" lon="111.400195">
<time>2016-10-06T12:49:16Z</time></trkpt>
<trkpt lat="24.473013" lon="111.399456">
<time>2016-10-06T12:49:17Z</time></trkpt>
<trkpt lat="24.473103" lon="111.399106">
<time>2016-10-06T12:49:18Z</time></trkpt>
<trkpt lat="24.473143" lon="111.398996">
<time>2016-10-06T12:49:19Z</time></trkpt>
<trkpt lat="24.473193" lon="111.398686">
<time>2016-10-06T12:49:20Z</time></trkpt>
<trkpt lat="24.473283" lon="111.397916">
<time>2016-10-06T12:49:21Z</time></trkpt>
<trkpt lat="24.473333" lon="111.397597">
<time>2016-10-06T12:49:22Z</time></trkpt>
<trkpt lat="24.473393" lon="111.397477">
<time>2016-10-06T12:49:23Z</time></trkpt>
<trkpt lat="24.473423" lon="111.397437">
<time>2016-10-06T12:49:24Z</time></trkpt>
<trkpt lat="24.473543" lon="111.397257">
<time>2016-10-06T12:49:25Z</time></trkpt>
<trkpt lat="24.473683" lon="111.397057">
<time>2016-10-06T12:49:26Z</time></trkpt>
<trkpt lat="24.474043" lon="111.396697">
<time>2016-10-06T12:49:27Z</time></trkpt>
<trkpt lat="24.474433" lon="111.396287">
<time>2016-10-06T12:49:28Z</time></trkpt>
<trkpt lat="24.474573" lon="111.396137">
<time>2016-10-06T12:49:29Z</time></trkpt>
<trkpt lat="24.474773" lon="111.395917">
<time>2016-10-06T12:49:30Z</time></trkpt>
<trkpt lat="24.474883" lon="111.395797">
<time>2016-10-06T12:49:31Z</time></trkpt>
<trkpt lat="24.475173" lon="111.395168">
<time>2016-10-06T12:49:32Z</time></trkpt>
<trkpt lat="24.475453" lon="111.394558">
<time>2016-10-06T12:49:33Z</time></trkpt>
<trkpt lat="24.475713" lon="111.393799">
<time>2016-10-06T12:49:34Z</time></trkpt>
<trkpt lat="24.476044" lon="111.392829">
<time>2016-10-06T12:49:35Z</time></trkpt>
<trkpt lat="24.476834" lon="111.390761">
<time>2016-10-06T12:49:36Z</time></trkpt>
<trkpt lat="24.476894" lon="111.390701">
<time>2016-10-06T12:49:37Z</time></trkpt>
<trkpt lat="24.476894" lon="111.390701">
<time>2016-10-06T12:49:38Z</time></trkpt>
<trkpt lat="24.477575" lon="111.390041">
<time>2016-10-06T12:49:39Z</time></trkpt>
<trkpt lat="24.477675" lon="111.389941">
<time>2016-10-06T12:49:40Z</time></trkpt>
<trkpt lat="24.478185" lon="111.389452">
<time>2016-10-06T12:49:41Z</time></trkpt>
<trkpt lat="24.478625" lon="111.388922">
<time>2016-10-06T12:49:42Z</time></trkpt>
<trkpt lat="24.479105" lon="111.388472">
<time>2016-10-06T12:49:43Z</time></trkpt>
<trkpt lat="24.479545" lon="111.388133">
<time>2016-10-06T12:49:44Z</time></trkpt>
<trkpt lat="24.479686" lon="111.388023">
<time>2016-10-06T12:49:45Z</time></trkpt>
<trkpt lat="24.480196" lon="111.387623">
<time>2016-10-06T12:49:46Z</time></trkpt>
<trkpt lat="24.480196" lon="111.387623">
<time>2016-10-06T12:49:47Z</time></trkpt>
<trkpt lat="24.480836" lon="111.387703">
<time>2016-10-06T12:49:48Z</time></trkpt>
<trkpt lat="24.481896" lon="111.387683">
<time>2016-10-06T12:49:49Z</time></trkpt>
<trkpt lat="24.482336" lon="111.387673">
<time>2016-10-06T12:49:50Z</time></trkpt>
<trkpt lat="24.482506" lon="111.387643">
<time>2016-10-06T12:49:51Z</time></trkpt>
<trkpt lat="24.482676" lon="111.387623">
<time>2016-10-06T12:49:52Z</time></trkpt>
<trkpt lat="24.482736" lon="111.387593">
<time>2016-10-06T12:49:53Z</time></trkpt>
<trkpt lat="24.482806" lon="111.387563">
<time>2016-10-06T12:49:54Z</time></trkpt>
<trkpt lat="24.482896" lon="111.387513">
<time>2016-10-06T12:49:55Z</time></trkpt>
<trkpt lat="24.482976" lon="111.387453">
<time>2016-10-06T12:49:56Z</time></trkpt>
<trkpt lat="24.483026" lon="111.387393">
<time>2016-10-06T12:49:57Z</time></trkpt>
<trkpt lat="24.483096" lon="111.387313">
<time>2016-10-06T12:49:58Z</time></trkpt>
<trkpt lat="24.483196" lon="111.387213">
<time>2016-10-06T12:49:59Z</time></trkpt>
<trkpt lat="24.483357" lon="111.387054">
<time>2016-10-06T12:50:00Z</time></trkpt>
<trkpt lat="24.483427" lon="111.387004">
<time>2016-10-06T12:50:01Z</time></trkpt>
<trkpt lat="24.483427" lon="111.387004">
<time>2016-10-06T12:50:02Z</time></trkpt>
<trkpt lat="24.483757" lon="111.386854">
<time>2016-10-06T12:50:03Z</time></trkpt>
<trkpt lat="24.483937" lon="111.386764">
<time>2016-10-06T12:50:04Z</time></trkpt>
<trkpt lat="24.484017" lon="111.386704">
<time>2016-10-06T12:50:05Z</time></trkpt>
<trkpt lat="24.484137" lon="111.386624">
<time>2016-10-06T12:50:06Z</time></trkpt>
<trkpt lat="24.484327" lon="111.386474">
<time>2016-10-06T12:50:07Z</time></trkpt>
<trkpt lat="24.485157" lon="111.385675">
<time>2016-10-06T12:50:08Z</time></trkpt>
<trkpt lat="24.485478" lon="111.385395">
<time>2016-10-06T12:50:09Z</time></trkpt>
<trkpt lat="24.485758" lon="111.385175">
<time>2016-10-06T12:50:10Z</time></trkpt>
<trkpt lat="24.486638" lon="111.384516">
<time>2016-10-06T12:50:11Z</time></trkpt>
<trkpt lat="24.487008" lon="111.384226">
<time>2016-10-06T12:50:12Z</time></trkpt>
<trkpt lat="24.487309" lon="111.383967">
<time>2016-10-06T12:50:13Z</time></trkpt>
<trkpt lat="24.487449" lon="111.383827">
<time>2016-10-06T12:50:14Z</time></trkpt>
<trkpt lat="24.487539" lon="111.383707">
<time>2016-10-06T12:50:15Z</time></trkpt>
<trkpt lat="24.487629" lon="111.383547">
<time>2016-10-06T12:50:16Z</time></trkpt>
<trkpt lat="24.487889" lon="111.383038">
<time>2016-10-06T12:50:17Z</time></trkpt>
<trkpt lat="24.4881" lon="111.382728">
<time>2016-10-06T12:50:18Z</time></trkpt>
<trkpt lat="24.48825" lon="111.382528">
<time>2016-10-06T12:50:19Z</time></trkpt>
<trkpt lat="24.48871" lon="111.381969">
<time>2016-10-06T12:50:20Z</time></trkpt>
<trkpt lat="24.489201" lon="111.3813">
<time>2016-10-06T12:50:21Z</time></trkpt>
<trkpt lat="24.489721" lon="111.38065">
<time>2016-10-06T12:50:22Z</time></trkpt>
<trkpt lat="24.490282" lon="111.379891">
<time>2016-10-06T12:50:23Z</time></trkpt>
<trkpt lat="24.490362" lon="111.379791">
<time>2016-10-06T12:50:24Z</time></trkpt>
<trkpt lat="24.490472" lon="111.379662">
<time>2016-10-06T12:50:25Z</time></trkpt>
<trkpt lat="24.490602" lon="111.379522">
<time>2016-10-06T12:50:26Z</time></trkpt>
<trkpt lat="24.490752" lon="111.379372">
<time>2016-10-06T12:50:27Z</time></trkpt>
<trkpt lat="24.490812" lon="111.379312">
<time>2016-10-06T12:50:28Z</time></trkpt>
<trkpt lat="24.491142" lon="111.379012">
<time>2016-10-06T12:50:29Z</time></trkpt>
<trkpt lat="24.491333" lon="111.378803">
<time>2016-10-06T12:50:30Z</time></trkpt>
<trkpt lat="24.491503" lon="111.378573">
<time>2016-10-06T12:50:31Z</time></trkpt>
<trkpt lat="24.491933" lon="111.377954">
<time>2016-10-06T12:50:32Z</time></trkpt>
<trkpt lat="24.492674" lon="111.376975">
<time>2016-10-06T12:50:33Z</time></trkpt>
<trkpt lat="24.493055" lon="111.376496">
<time>2016-10-06T12:50:34Z</time></trkpt>
<trkpt lat="24.493495" lon="111.375997">
<time>2016-10-06T12:50:35Z</time></trkpt>
<trkpt lat="24.493796" lon="111.375667">
<time>2016-10-06T12:50:36Z</time></trkpt>
<trkpt lat="24.494006" lon="111.375447">
<time>2016-10-06T12:50:37Z</time></trkpt>
<trkpt lat="24.494276" lon="111.375198">
<time>2016-10-06T12:50:38Z</time></trkpt>
<trkpt lat="24.494506" lon="111.374988">
<time>2016-10-06T12:50:39Z</time></trkpt>
<trkpt lat="24.494927" lon="111.374618">
<time>2016-10-06T12:50:40Z</time></trkpt>
<trkpt lat="24.495297" lon="111.374319">
<time>2016-10-06T12:50:41Z</time></trkpt>
<trkpt lat="24.495847" lon="111.373929">
<time>2016-10-06T12:50:42Z</time></trkpt>
<trkpt lat="24.495998" lon="111.37381">
<time>2016-10-06T12:50:43Z</time></trkpt>
<trkpt lat="24.496008" lon="111.37381">
<time>2016-10-06T12:50:44Z</time></trkpt>
<trkpt lat="24.496108" lon="111.37371">
<time>2016-10-06T12:50:45Z</time></trkpt>
<trkpt lat="24.496258" lon="111.37355">
<time>2016-10-06T12:50:46Z</time></trkpt>
<trkpt lat="24.496398" lon="111.37338">
<time>2016-10-06T12:50:47Z</time></trkpt>
<trkpt lat="24.496959" lon="111.372602">
<time>2016-10-06T12:50:48Z</time></trkpt>
<trkpt lat="24.497099" lon="111.372432">
<time>2016-10-06T12:50:49Z</time></trkpt>
<trkpt lat="24.497219" lon="111.372312">
<time>2016-10-06T12:50:50Z</time></trkpt>
<trkpt lat="24.497369" lon="111.372192">
<time>2016-10-06T12:50:51Z</time></trkpt>
<trkpt lat="24.49758" lon="111.372042">
<time>2016-10-06T12:50:52Z</time></trkpt>
<trkpt lat="24.49818" lon="111.371693">
<time>2016-10-06T12:50:53Z</time></trkpt>
<trkpt lat="24.4984" lon="111.371553">
<time>2016-10-06T12:50:54Z</time></trkpt>
<trkpt lat="24.49861" lon="111.371403">
<time>2016-10-06T12:50:55Z</time></trkpt>
<trkpt lat="24.498801" lon="111.371234">
<time>2016-10-06T12:50:56Z</time></trkpt>
<trkpt lat="24.498991" lon="111.371034">
<time>2016-10-06T12:50:57Z</time></trkpt>
<trkpt lat="24.499101" lon="111.370874">
<time>2016-10-06T12:50:58Z</time></trkpt>
<trkpt lat="24.499191" lon="111.370754">
<time>2016-10-06T12:50:59Z</time></trkpt>
<trkpt lat="24.499331" lon="111.370515">
<time>2016-10-06T12:51:00Z</time></trkpt>
<trkpt lat="24.499592" lon="111.370026">
<time>2016-10-06T12:51:01Z</time></trkpt>
<trkpt lat="24.499702" lon="111.369866">
<time>2016-10-06T12:51:02Z</time></trkpt>
<trkpt lat="24.499812" lon="111.369736">
<time>2016-10-06T12:51:03Z</time></trkpt>
<trkpt lat="24.499882" lon="111.369626">
<time>2016-10-06T12:51:04Z</time></trkpt>
<trkpt lat="24.499993" lon="111.369457">
<time>2016-10-06T12:51:05Z</time></trkpt>
<trkpt lat="24.500083" lon="111.369327">
<time>2016-10-06T12:51:06Z</time></trkpt>
<trkpt lat="24.500233" lon="111.369107">
<time>2016-10-06T12:51:07Z</time></trkpt>
<trkpt lat="24.500504" lon="111.368598">
<time>2016-10-06T12:51:08Z</time></trkpt>
<trkpt lat="24.500644" lon="111.368378">
<time>2016-10-06T12:51:09Z</time></trkpt>
<trkpt lat="24.500724" lon="111.368269">
<time>2016-10-06T12:51:10Z</time></trkpt>
<trkpt lat="24.501065" lon="111.36773">
<time>2016-10-06T12:51:11Z</time></trkpt>
<trkpt lat="24.501315" lon="111.36744">
<time>2016-10-06T12:51:12Z</time></trkpt>
<trkpt lat="24.501625" lon="111.367171">
<time>2016-10-06T12:51:13Z</time></trkpt>
<trkpt lat="24.501966" lon="111.366901">
<time>2016-10-06T12:51:14Z</time></trkpt>
<trkpt lat="24.502486" lon="111.366582">
<time>2016-10-06T12:51:15Z</time></trkpt>
<trkpt lat="24.503257" lon="111.366232">
<time>2016-10-06T12:51:16Z</time></trkpt>
<trkpt lat="24.503727" lon="111.365993">
<time>2016-10-06T12:51:17Z</time></trkpt>
<trkpt lat="24.503857" lon="111.365893">
<time>2016-10-06T12:51:18Z</time></trkpt>
<trkpt lat="24.503937" lon="111.365783">
<time>2016-10-06T12:51:19Z</time></trkpt>
<trkpt lat="24.504348" lon="111.365144">
<time>2016-10-06T12:51:20Z</time></trkpt>
<trkpt lat="24.504639" lon="111.364785">
<time>2016-10-06T12:51:21Z</time></trkpt>
<trkpt lat="24.504869" lon="111.364485">
<time>2016-10-06T12:51:22Z</time></trkpt>
<trkpt lat="24.504979" lon="111.364346">
<time>2016-10-06T12:51:23Z</time></trkpt>
<trkpt lat="24.50534" lon="111.363996">
<time>2016-10-06T12:51:24Z</time></trkpt>
<trkpt lat="24.50553" lon="111.363757">
<time>2016-10-06T12:51:25Z</time></trkpt>
<trkpt lat="24.50571" lon="111.363487">
<time>2016-10-06T12:51:26Z</time></trkpt>
<trkpt lat="24.505831" lon="111.363298">
<time>2016-10-06T12:51:27Z</time></trkpt>
<trkpt lat="24.506302" lon="111.36231">
<time>2016-10-06T12:51:28Z</time></trkpt>
<trkpt lat="24.506633" lon="111.361611">
<time>2016-10-06T12:51:29Z</time></trkpt>
<trkpt lat="24.506834" lon="111.361212">
<time>2016-10-06T12:51:30Z</time></trkpt>
<trkpt lat="24.507084" lon="111.360593">
<time>2016-10-06T12:51:31Z</time></trkpt>
<trkpt lat="24.507406" lon="111.359775">
<time>2016-10-06T12:51:32Z</time></trkpt>
<trkpt lat="24.507466" lon="111.359565">
<time>2016-10-06T12:51:33Z</time></trkpt>
<trkpt lat="24.507526" lon="111.359216">
<time>2016-10-06T12:51:34Z</time></trkpt>
<trkpt lat="24.507537" lon="111.358906">
<time>2016-10-06T12:51:35Z</time></trkpt>
<trkpt lat="24.507548" lon="111.358188">
<time>2016-10-06T12:51:36Z</time></trkpt>
<trkpt lat="24.507578" lon="111.357839">
<time>2016-10-06T12:51:37Z</time></trkpt>
<trkpt lat="24.507629" lon="111.357659">
<time>2016-10-06T12:51:38Z</time></trkpt>
<trkpt lat="24.50786" lon="111.356811">
<time>2016-10-06T12:51:39Z</time></trkpt>
<trkpt lat="24.50789" lon="111.356591">
<time>2016-10-06T12:51:40Z</time></trkpt>
<trkpt lat="24.50792" lon="111.356482">
<time>2016-10-06T12:51:41Z</time></trkpt>
<trkpt lat="24.50794" lon="111.356442">
<time>2016-10-06T12:51:42Z</time></trkpt>
<trkpt lat="24.508321" lon="111.356013">
<time>2016-10-06T12:51:43Z</time></trkpt>
<trkpt lat="24.508752" lon="111.355454">
<time>2016-10-06T12:51:44Z</time></trkpt>
<trkpt lat="24.508933" lon="111.355144">
<time>2016-10-06T12:51:45Z</time></trkpt>
<trkpt lat="24.508993" lon="111.355005">
<time>2016-10-06T12:51:46Z</time></trkpt>
<trkpt lat="24.509003" lon="111.354985">
<time>2016-10-06T12:51:47Z</time></trkpt>
<trkpt lat="24.509033" lon="111.354855">
<time>2016-10-06T12:51:48Z</time></trkpt>
<trkpt lat="24.509033" lon="111.354676">
<time>2016-10-06T12:51:49Z</time></trkpt>
<trkpt lat="24.508984" lon="111.354007">
<time>2016-10-06T12:51:50Z</time></trkpt>
<trkpt lat="24.508935" lon="111.353448">
<time>2016-10-06T12:51:51Z</time></trkpt>
<trkpt lat="24.508945" lon="111.353299">
<time>2016-10-06T12:51:52Z</time></trkpt>
<trkpt lat="24.508946" lon="111.353209">
<time>2016-10-06T12:51:53Z</time></trkpt>
<trkpt lat="24.508976" lon="111.353029">
<time>2016-10-06T12:51:54Z</time></trkpt>
<trkpt lat="24.509006" lon="111.35285">
<time>2016-10-06T12:51:55Z</time></trkpt>
<trkpt lat="24.509066" lon="111.35261">
<time>2016-10-06T12:51:56Z</time></trkpt>
<trkpt lat="24.509067" lon="111.352231">
<time>2016-10-06T12:51:57Z</time></trkpt>
<trkpt lat="24.509057" lon="111.351972">
<time>2016-10-06T12:51:58Z</time></trkpt>
<trkpt lat="24.509028" lon="111.351692">
<time>2016-10-06T12:51:59Z</time></trkpt>
<trkpt lat="24.508949" lon="111.351084">
<time>2016-10-06T12:52:00Z</time></trkpt>
<trkpt lat="24.508959" lon="111.350884">
<time>2016-10-06T12:52:01Z</time></trkpt>
<trkpt lat="24.508979" lon="111.350715">
<time>2016-10-06T12:52:02Z</time></trkpt>
<trkpt lat="24.509" lon="111.350665">
<time>2016-10-06T12:52:03Z</time></trkpt>
<trkpt lat="24.50906" lon="111.350485">
<time>2016-10-06T12:52:04Z</time></trkpt>
<trkpt lat="24.50919" lon="111.350186">
<time>2016-10-06T12:52:05Z</time></trkpt>
<trkpt lat="24.509682" lon="111.349438">
<time>2016-10-06T12:52:06Z</time></trkpt>
<trkpt lat="24.510233" lon="111.34855">
<time>2016-10-06T12:52:07Z</time></trkpt>
<trkpt lat="24.510644" lon="111.347851">
<time>2016-10-06T12:52:08Z</time></trkpt>
<trkpt lat="24.510905" lon="111.347402">
<time>2016-10-06T12:52:09Z</time></trkpt>
<trkpt lat="24.511236" lon="111.346834">
<time>2016-10-06T12:52:10Z</time></trkpt>
<trkpt lat="24.511818" lon="111.345866">
<time>2016-10-06T12:52:11Z</time></trkpt>
<trkpt lat="24.511968" lon="111.345577">
<time>2016-10-06T12:52:12Z</time></trkpt>
<trkpt lat="24.51231" lon="111.344908">
<time>2016-10-06T12:52:13Z</time></trkpt>
<trkpt lat="24.51239" lon="111.344739">
<time>2016-10-06T12:52:14Z</time></trkpt>
<trkpt lat="24.51255" lon="111.344549">
<time>2016-10-06T12:52:15Z</time></trkpt>
<trkpt lat="24.512681" lon="111.34441">
<time>2016-10-06T12:52:16Z</time></trkpt>
<trkpt lat="24.512841" lon="111.34427">
<time>2016-10-06T12:52:17Z</time></trkpt>
<trkpt lat="24.512961" lon="111.34416">
<time>2016-10-06T12:52:18Z</time></trkpt>
<trkpt lat="24.513261" lon="111.343991">
<time>2016-10-06T12:52:19Z</time></trkpt>
<trkpt lat="24.513562" lon="111.343831">
<time>2016-10-06T12:52:20Z</time></trkpt>
<trkpt lat="24.513752" lon="111.343731">
<time>2016-10-06T12:52:21Z</time></trkpt>
<trkpt lat="24.514473" lon="111.343372">
<time>2016-10-06T12:52:22Z</time></trkpt>
<trkpt lat="24.514963" lon="111.343113">
<time>2016-10-06T12:52:23Z</time></trkpt>
<trkpt lat="24.515053" lon="111.343063">
<time>2016-10-06T12:52:24Z</time></trkpt>
<trkpt lat="24.515183" lon="111.342993">
<time>2016-10-06T12:52:25Z</time></trkpt>
<trkpt lat="24.515454" lon="111.342843">
<time>2016-10-06T12:52:26Z</time></trkpt>
<trkpt lat="24.515564" lon="111.342803">
<time>2016-10-06T12:52:27Z</time></trkpt>
<trkpt lat="24.516104" lon="111.342514">
<time>2016-10-06T12:52:28Z</time></trkpt>
<trkpt lat="24.516565" lon="111.342275">
<time>2016-10-06T12:52:29Z</time></trkpt>
<trkpt lat="24.516715" lon="111.342185">
<time>2016-10-06T12:52:30Z</time></trkpt>
<trkpt lat="24.516955" lon="111.342055">
<time>2016-10-06T12:52:31Z</time></trkpt>
<trkpt lat="24.517125" lon="111.341925">
<time>2016-10-06T12:52:32Z</time></trkpt>
<trkpt lat="24.517196" lon="111.341856">
<time>2016-10-06T12:52:33Z</time></trkpt>
<trkpt lat="24.517767" lon="111.341317">
<time>2016-10-06T12:52:34Z</time></trkpt>
<trkpt lat="24.518127" lon="111.340888">
<time>2016-10-06T12:52:35Z</time></trkpt>
<trkpt lat="24.518338" lon="111.340529">
<time>2016-10-06T12:52:36Z</time></trkpt>
<trkpt lat="24.518449" lon="111.340299">
<time>2016-10-06T12:52:37Z</time></trkpt>
<trkpt lat="24.518519" lon="111.34018">
<time>2016-10-06T12:52:38Z</time></trkpt>
<trkpt lat="24.518619" lon="111.34005">
<time>2016-10-06T12:52:39Z</time></trkpt>
<trkpt lat="24.51899" lon="111.339651">
<time>2016-10-06T12:52:40Z</time></trkpt>
<trkpt lat="24.519431" lon="111.339212">
<time>2016-10-06T12:52:41Z</time></trkpt>
<trkpt lat="24.519651" lon="111.338883">
<time>2016-10-06T12:52:42Z</time></trkpt>
<trkpt lat="24.520072" lon="111.338424">
<time>2016-10-06T12:52:43Z</time></trkpt>
<trkpt lat="24.520323" lon="111.338085">
<time>2016-10-06T12:52:44Z</time></trkpt>
<trkpt lat="24.520603" lon="111.337736">
<time>2016-10-06T12:52:45Z</time></trkpt>
<trkpt lat="24.520964" lon="111.337327">
<time>2016-10-06T12:52:46Z</time></trkpt>
<trkpt lat="24.521054" lon="111.337227">
<time>2016-10-06T12:52:47Z</time></trkpt>
<trkpt lat="24.521636" lon="111.336619">
<time>2016-10-06T12:52:48Z</time></trkpt>
<trkpt lat="24.522307" lon="111.33598">
<time>2016-10-06T12:52:49Z</time></trkpt>
<trkpt lat="24.522938" lon="111.335472">
<time>2016-10-06T12:52:50Z</time></trkpt>
<trkpt lat="24.523148" lon="111.335302">
<time>2016-10-06T12:52:51Z</time></trkpt>
<trkpt lat="24.523539" lon="111.335013">
<time>2016-10-06T12:52:52Z</time></trkpt>
<trkpt lat="24.523749" lon="111.334833">
<time>2016-10-06T12:52:53Z</time></trkpt>
<trkpt lat="24.52431" lon="111.334474">
<time>2016-10-06T12:52:54Z</time></trkpt>
<trkpt lat="24.52445" lon="111.334414">
<time>2016-10-06T12:52:55Z</time></trkpt>
<trkpt lat="24.52461" lon="111.334325">
<time>2016-10-06T12:52:56Z</time></trkpt>
<trkpt lat="24.525041" lon="111.334045">
<time>2016-10-06T12:52:57Z</time></trkpt>
<trkpt lat="24.525261" lon="111.333886">
<time>2016-10-06T12:52:58Z</time></trkpt>
<trkpt lat="24.525331" lon="111.333836">
<time>2016-10-06T12:52:59Z</time></trkpt>
<trkpt lat="24.525411" lon="111.333776">
<time>2016-10-06T12:53:00Z</time></trkpt>
<trkpt lat="24.525481" lon="111.333736">
<time>2016-10-06T12:53:01Z</time></trkpt>
<trkpt lat="24.525582" lon="111.333686">
<time>2016-10-06T12:53:02Z</time></trkpt>
<trkpt lat="24.525722" lon="111.333616">
<time>2016-10-06T12:53:03Z</time></trkpt>
<trkpt lat="24.526032" lon="111.333467">
<time>2016-10-06T12:53:04Z</time></trkpt>
<trkpt lat="24.526492" lon="111.333287">
<time>2016-10-06T12:53:05Z</time></trkpt>
<trkpt lat="24.527123" lon="111.333028">
<time>2016-10-06T12:53:06Z</time></trkpt>
<trkpt lat="24.527764" lon="111.332749">
<time>2016-10-06T12:53:07Z</time></trkpt>
<trkpt lat="24.527964" lon="111.332619">
<time>2016-10-06T12:53:08Z</time></trkpt>
<trkpt lat="24.528204" lon="111.332399">
<time>2016-10-06T12:53:09Z</time></trkpt>
<trkpt lat="24.528525" lon="111.33203">
<time>2016-10-06T12:53:10Z</time></trkpt>
<trkpt lat="24.528595" lon="111.331951">
<time>2016-10-06T12:53:11Z</time></trkpt>
<trkpt lat="24.528675" lon="111.331811">
<time>2016-10-06T12:53:12Z</time></trkpt>
<trkpt lat="24.528716" lon="111.331751">
<time>2016-10-06T12:53:13Z</time></trkpt>
<trkpt lat="24.528736" lon="111.331641">
<time>2016-10-06T12:53:14Z</time></trkpt>
<trkpt lat="24.528736" lon="111.331572">
<time>2016-10-06T12:53:15Z</time></trkpt>
<trkpt lat="24.528726" lon="111.331472">
<time>2016-10-06T12:53:16Z</time></trkpt>
<trkpt lat="24.528676" lon="111.331322">
<time>2016-10-06T12:53:17Z</time></trkpt>
<trkpt lat="24.528318" lon="111.330365">
<time>2016-10-06T12:53:18Z</time></trkpt>
<trkpt lat="24.527871" lon="111.328919">
<time>2016-10-06T12:53:19Z</time></trkpt>
<trkpt lat="24.527691" lon="111.32861">
<time>2016-10-06T12:53:20Z</time></trkpt>
<trkpt lat="24.527532" lon="111.328231">
<time>2016-10-06T12:53:21Z</time></trkpt>
<trkpt lat="24.527423" lon="111.327921">
<time>2016-10-06T12:53:22Z</time></trkpt>
<trkpt lat="24.527363" lon="111.327542">
<time>2016-10-06T12:53:23Z</time></trkpt>
<trkpt lat="24.527284" lon="111.327124">
<time>2016-10-06T12:53:24Z</time></trkpt>
<trkpt lat="24.527265" lon="111.326675">
<time>2016-10-06T12:53:25Z</time></trkpt>
<trkpt lat="24.527285" lon="111.326535">
<time>2016-10-06T12:53:26Z</time></trkpt>
<trkpt lat="24.527316" lon="111.326406">
<time>2016-10-06T12:53:27Z</time></trkpt>
<trkpt lat="24.527476" lon="111.325937">
<time>2016-10-06T12:53:28Z</time></trkpt>
<trkpt lat="24.527527" lon="111.325568">
<time>2016-10-06T12:53:29Z</time></trkpt>
<trkpt lat="24.527518" lon="111.325209">
<time>2016-10-06T12:53:30Z</time></trkpt>
<trkpt lat="24.527448" lon="111.32493">
<time>2016-10-06T12:53:31Z</time></trkpt>
<trkpt lat="24.527369" lon="111.32465">
<time>2016-10-06T12:53:32Z</time></trkpt>
<trkpt lat="24.52721" lon="111.324202">
<time>2016-10-06T12:53:33Z</time></trkpt>
<trkpt lat="24.526792" lon="111.323035">
<time>2016-10-06T12:53:34Z</time></trkpt>
<trkpt lat="24.526683" lon="111.322636">
<time>2016-10-06T12:53:35Z</time></trkpt>
<trkpt lat="24.526673" lon="111.322297">
<time>2016-10-06T12:53:36Z</time></trkpt>
<trkpt lat="24.526673" lon="111.322217">
<time>2016-10-06T12:53:37Z</time></trkpt>
<trkpt lat="24.526724" lon="111.322008">
<time>2016-10-06T12:53:38Z</time></trkpt>
<trkpt lat="24.526875" lon="111.321579">
<time>2016-10-06T12:53:39Z</time></trkpt>
<trkpt lat="24.527006" lon="111.32113">
<time>2016-10-06T12:53:40Z</time></trkpt>
<trkpt lat="24.527116" lon="111.320751">
<time>2016-10-06T12:53:41Z</time></trkpt>
<trkpt lat="24.527207" lon="111.320332">
<time>2016-10-06T12:53:42Z</time></trkpt>
<trkpt lat="24.527338" lon="111.319714">
<time>2016-10-06T12:53:43Z</time></trkpt>
<trkpt lat="24.527399" lon="111.319434">
<time>2016-10-06T12:53:44Z</time></trkpt>
<trkpt lat="24.52748" lon="111.319055">
<time>2016-10-06T12:53:45Z</time></trkpt>
<trkpt lat="24.52753" lon="111.318786">
<time>2016-10-06T12:53:46Z</time></trkpt>
<trkpt lat="24.527581" lon="111.318547">
<time>2016-10-06T12:53:47Z</time></trkpt>
<trkpt lat="24.527611" lon="111.318417">
<time>2016-10-06T12:53:48Z</time></trkpt>
<trkpt lat="24.527661" lon="111.318278">
<time>2016-10-06T12:53:49Z</time></trkpt>
<trkpt lat="24.527681" lon="111.318168">
<time>2016-10-06T12:53:50Z</time></trkpt>
<trkpt lat="24.527762" lon="111.317629">
<time>2016-10-06T12:53:51Z</time></trkpt>
<trkpt lat="24.527823" lon="111.317081">
<time>2016-10-06T12:53:52Z</time></trkpt>
<trkpt lat="24.527834" lon="111.316772">
<time>2016-10-06T12:53:53Z</time></trkpt>
<trkpt lat="24.527854" lon="111.316602">
<time>2016-10-06T12:53:54Z</time></trkpt>
<trkpt lat="24.527865" lon="111.316353">
<time>2016-10-06T12:53:55Z</time></trkpt>
<trkpt lat="24.527885" lon="111.316203">
<time>2016-10-06T12:53:56Z</time></trkpt>
<trkpt lat="24.527926" lon="111.315954">
<time>2016-10-06T12:53:57Z</time></trkpt>
<trkpt lat="24.527996" lon="111.315585">
<time>2016-10-06T12:53:58Z</time></trkpt>
<trkpt lat="24.528037" lon="111.315365">
<time>2016-10-06T12:53:59Z</time></trkpt>
<trkpt lat="24.528067" lon="111.315166">
<time>2016-10-06T12:54:00Z</time></trkpt>
<trkpt lat="24.528087" lon="111.315016">
<time>2016-10-06T12:54:01Z</time></trkpt>
<trkpt lat="24.528108" lon="111.314777">
<time>2016-10-06T12:54:02Z</time></trkpt>
<trkpt lat="24.528129" lon="111.314348">
<time>2016-10-06T12:54:03Z</time></trkpt>
<trkpt lat="24.528169" lon="111.313979">
<time>2016-10-06T12:54:04Z</time></trkpt>
<trkpt lat="24.528281" lon="111.313201">
<time>2016-10-06T12:54:05Z</time></trkpt>
<trkpt lat="24.528321" lon="111.312912">
<time>2016-10-06T12:54:06Z</time></trkpt>
<trkpt lat="24.528352" lon="111.312433">
<time>2016-10-06T12:54:07Z</time></trkpt>
<trkpt lat="24.528353" lon="111.312134">
<time>2016-10-06T12:54:08Z</time></trkpt>
<trkpt lat="24.528364" lon="111.311635">
<time>2016-10-06T12:54:09Z</time></trkpt>
<trkpt lat="24.528385" lon="111.310987">
<time>2016-10-06T12:54:10Z</time></trkpt>
<trkpt lat="24.528385" lon="111.310838">
<time>2016-10-06T12:54:11Z</time></trkpt>
<trkpt lat="24.528376" lon="111.310708">
<time>2016-10-06T12:54:12Z</time></trkpt>
<trkpt lat="24.528346" lon="111.310598">
<time>2016-10-06T12:54:13Z</time></trkpt>
<trkpt lat="24.528306" lon="111.310508">
<time>2016-10-06T12:54:14Z</time></trkpt>
<trkpt lat="24.528246" lon="111.310399">
<time>2016-10-06T12:54:15Z</time></trkpt>
<trkpt lat="24.528087" lon="111.3101">
<time>2016-10-06T12:54:16Z</time></trkpt>
<trkpt lat="24.527997" lon="111.30984">
<time>2016-10-06T12:54:17Z</time></trkpt>
<trkpt lat="24.527977" lon="111.30975">
<time>2016-10-06T12:54:18Z</time></trkpt>
<trkpt lat="24.527967" lon="111.309641">
<time>2016-10-06T12:54:19Z</time></trkpt>
<trkpt lat="24.527988" lon="111.309332">
<time>2016-10-06T12:54:20Z</time></trkpt>
<trkpt lat="24.528019" lon="111.308982">
<time>2016-10-06T12:54:21Z</time></trkpt>
<trkpt lat="24.528059" lon="111.308743">
<time>2016-10-06T12:54:22Z</time></trkpt>
<trkpt lat="24.528079" lon="111.308613">
<time>2016-10-06T12:54:23Z</time></trkpt>
<trkpt lat="24.528089" lon="111.308554">
<time>2016-10-06T12:54:24Z</time></trkpt>
<trkpt lat="24.52809" lon="111.308504">
<time>2016-10-06T12:54:25Z</time></trkpt>
<trkpt lat="24.5281" lon="111.308374">
<time>2016-10-06T12:54:26Z</time></trkpt>
<trkpt lat="24.52812" lon="111.308254">
<time>2016-10-06T12:54:27Z</time></trkpt>
<trkpt lat="24.528211" lon="111.307865">
<time>2016-10-06T12:54:28Z</time></trkpt>
<trkpt lat="24.528231" lon="111.307776">
<time>2016-10-06T12:54:29Z</time></trkpt>
<trkpt lat="24.528261" lon="111.307606">
<time>2016-10-06T12:54:30Z</time></trkpt>
<trkpt lat="24.528292" lon="111.307387">
<time>2016-10-06T12:54:31Z</time></trkpt>
<trkpt lat="24.528312" lon="111.307207">
<time>2016-10-06T12:54:32Z</time></trkpt>
<trkpt lat="24.528362" lon="111.307048">
<time>2016-10-06T12:54:33Z</time></trkpt>
<trkpt lat="24.528563" lon="111.306629">
<time>2016-10-06T12:54:34Z</time></trkpt>
<trkpt lat="24.528794" lon="111.30619">
<time>2016-10-06T12:54:35Z</time></trkpt>
<trkpt lat="24.528934" lon="111.30592">
<time>2016-10-06T12:54:36Z</time></trkpt>
<trkpt lat="24.529015" lon="111.305761">
<time>2016-10-06T12:54:37Z</time></trkpt>
<trkpt lat="24.529015" lon="111.305761">
<time>2016-10-06T12:54:38Z</time></trkpt>
<trkpt lat="24.528915" lon="111.305641">
<time>2016-10-06T12:54:39Z</time></trkpt>
<trkpt lat="24.528895" lon="111.305601">
<time>2016-10-06T12:54:40Z</time></trkpt>
<trkpt lat="24.528865" lon="111.305561">
<time>2016-10-06T12:54:41Z</time></trkpt>
<trkpt lat="24.528815" lon="111.305482">
<time>2016-10-06T12:54:42Z</time></trkpt>
<trkpt lat="24.528735" lon="111.305312">
<time>2016-10-06T12:54:43Z</time></trkpt>
<trkpt lat="24.528656" lon="111.305133">
<time>2016-10-06T12:54:44Z</time></trkpt>
<trkpt lat="24.528576" lon="111.305003">
<time>2016-10-06T12:54:45Z</time></trkpt>
<trkpt lat="24.528526" lon="111.304913">
<time>2016-10-06T12:54:46Z</time></trkpt>
<trkpt lat="24.528446" lon="111.304764">
<time>2016-10-06T12:54:47Z</time></trkpt>
<trkpt lat="24.528377" lon="111.304654">
<time>2016-10-06T12:54:48Z</time></trkpt>
<trkpt lat="24.528297" lon="111.304524">
<time>2016-10-06T12:54:49Z</time></trkpt>
<trkpt lat="24.528227" lon="111.304365">
<time>2016-10-06T12:54:50Z</time></trkpt>
<trkpt lat="24.528147" lon="111.304175">
<time>2016-10-06T12:54:51Z</time></trkpt>
<trkpt lat="24.528108" lon="111.304085">
<time>2016-10-06T12:54:52Z</time></trkpt>
<trkpt lat="24.528038" lon="111.303956">
<time>2016-10-06T12:54:53Z</time></trkpt>
<trkpt lat="24.527978" lon="111.303786">
<time>2016-10-06T12:54:54Z</time></trkpt>
<trkpt lat="24.527948" lon="111.303686">
<time>2016-10-06T12:54:55Z</time></trkpt>
<trkpt lat="24.527918" lon="111.303617">
<time>2016-10-06T12:54:56Z</time></trkpt>
<trkpt lat="24.527888" lon="111.303547">
<time>2016-10-06T12:54:57Z</time></trkpt>
<trkpt lat="24.527839" lon="111.303447">
<time>2016-10-06T12:54:58Z</time></trkpt>
<trkpt lat="24.527809" lon="111.303337">
<time>2016-10-06T12:54:59Z</time></trkpt>
<trkpt lat="24.527789" lon="111.303277">
<time>2016-10-06T12:55:00Z</time></trkpt>
<trkpt lat="24.527689" lon="111.303028">
<time>2016-10-06T12:55:01Z</time></trkpt>
<trkpt lat="24.52765" lon="111.302908">
<time>2016-10-06T12:55:02Z</time></trkpt>
<trkpt lat="24.52758" lon="111.302739">
<time>2016-10-06T12:55:03Z</time></trkpt>
<trkpt lat="24.52748" lon="111.30246">
<time>2016-10-06T12:55:04Z</time></trkpt>
<trkpt lat="24.527381" lon="111.30215">
<time>2016-10-06T12:55:05Z</time></trkpt>
<trkpt lat="24.527341" lon="111.301971">
<time>2016-10-06T12:55:06Z</time></trkpt>
<trkpt lat="24.527262" lon="111.301731">
<time>2016-10-06T12:55:07Z</time></trkpt>
<trkpt lat="24.527202" lon="111.301592">
<time>2016-10-06T12:55:08Z</time></trkpt>
<trkpt lat="24.527152" lon="111.301452">
<time>2016-10-06T12:55:09Z</time></trkpt>
<trkpt lat="24.527102" lon="111.301293">
<time>2016-10-06T12:55:10Z</time></trkpt>
<trkpt lat="24.527063" lon="111.301113">
<time>2016-10-06T12:55:11Z</time></trkpt>
<trkpt lat="24.527033" lon="111.300913">
<time>2016-10-06T12:55:12Z</time></trkpt>
<trkpt lat="24.526914" lon="111.300335">
<time>2016-10-06T12:55:13Z</time></trkpt>
<trkpt lat="24.526914" lon="111.300335">
<time>2016-10-06T12:55:14Z</time></trkpt>
<trkpt lat="24.526695" lon="111.299487">
<time>2016-10-06T12:55:15Z</time></trkpt>
<trkpt lat="24.526686" lon="111.299397">
<time>2016-10-06T12:55:16Z</time></trkpt>
<trkpt lat="24.526756" lon="111.299387">
<time>2016-10-06T12:55:17Z</time></trkpt>
<trkpt lat="24.526786" lon="111.299387">
<time>2016-10-06T12:55:18Z</time></trkpt>
<trkpt lat="24.526826" lon="111.299377">
<time>2016-10-06T12:55:19Z</time></trkpt>
<trkpt lat="24.526866" lon="111.299357">
<time>2016-10-06T12:55:20Z</time></trkpt>
<trkpt lat="24.526896" lon="111.299337">
<time>2016-10-06T12:55:21Z</time></trkpt>
<trkpt lat="24.526946" lon="111.299298">
<time>2016-10-06T12:55:22Z</time></trkpt>
<trkpt lat="24.526946" lon="111.299298">
<time>2016-10-06T12:55:23Z</time></trkpt>
<trkpt lat="24.526876" lon="111.299208">
<time>2016-10-06T12:55:24Z</time></trkpt>
<trkpt lat="24.526746" lon="111.298988">
<time>2016-10-06T12:55:25Z</time></trkpt>
<trkpt lat="24.526696" lon="111.298859">
<time>2016-10-06T12:55:26Z</time></trkpt>
<trkpt lat="24.526567" lon="111.298569">
<time>2016-10-06T12:55:27Z</time></trkpt>
<trkpt lat="24.526567" lon="111.298569">
<time>2016-10-06T12:55:28Z</time></trkpt>
<trkpt lat="24.526517" lon="111.29839">
<time>2016-10-06T12:55:29Z</time></trkpt>
<trkpt lat="24.526399" lon="111.297422">
<time>2016-10-06T12:55:30Z</time></trkpt>
<trkpt lat="24.52626" lon="111.296554">
<time>2016-10-06T12:55:31Z</time></trkpt>
<trkpt lat="24.526211" lon="111.296215">
<time>2016-10-06T12:55:32Z</time></trkpt>
<trkpt lat="24.525943" lon="111.294689">
<time>2016-10-06T12:55:33Z</time></trkpt>
<trkpt lat="24.525775" lon="111.293871">
<time>2016-10-06T12:55:34Z</time></trkpt>
<trkpt lat="24.525685" lon="111.293302">
<time>2016-10-06T12:55:35Z</time></trkpt>
<trkpt lat="24.525616" lon="111.292923">
<time>2016-10-06T12:55:36Z</time></trkpt>
<trkpt lat="24.525567" lon="111.292365">
<time>2016-10-06T12:55:37Z</time></trkpt>
<trkpt lat="24.525558" lon="111.291916">
<time>2016-10-06T12:55:38Z</time></trkpt>
<trkpt lat="24.525489" lon="111.290758">
<time>2016-10-06T12:55:39Z</time></trkpt>
<trkpt lat="24.525489" lon="111.290708">
<time>2016-10-06T12:55:40Z</time></trkpt>
<trkpt lat="24.525421" lon="111.289601">
<time>2016-10-06T12:55:41Z</time></trkpt>
<trkpt lat="24.525372" lon="111.288683">
<time>2016-10-06T12:55:42Z</time></trkpt>
<trkpt lat="24.525373" lon="111.288583">
<time>2016-10-06T12:55:43Z</time></trkpt>
<trkpt lat="24.525304" lon="111.287546">
<time>2016-10-06T12:55:44Z</time></trkpt>
<trkpt lat="24.525285" lon="111.286757">
<time>2016-10-06T12:55:45Z</time></trkpt>
<trkpt lat="24.525207" lon="111.28543">
<time>2016-10-06T12:55:46Z</time></trkpt>
<trkpt lat="24.525198" lon="111.285101">
<time>2016-10-06T12:55:47Z</time></trkpt>
<trkpt lat="24.525228" lon="111.284672">
<time>2016-10-06T12:55:48Z</time></trkpt>
<trkpt lat="24.52541" lon="111.282976">
<time>2016-10-06T12:55:49Z</time></trkpt>
<trkpt lat="24.525461" lon="111.282297">
<time>2016-10-06T12:55:50Z</time></trkpt>
<trkpt lat="24.525593" lon="111.281229">
<time>2016-10-06T12:55:51Z</time></trkpt>
<trkpt lat="24.525745" lon="111.279483">
<time>2016-10-06T12:55:52Z</time></trkpt>
<trkpt lat="24.525846" lon="111.278764">
<time>2016-10-06T12:55:53Z</time></trkpt>
<trkpt lat="24.525907" lon="111.278165">
<time>2016-10-06T12:55:54Z</time></trkpt>
<trkpt lat="24.525947" lon="111.277646">
<time>2016-10-06T12:55:55Z</time></trkpt>
<trkpt lat="24.525968" lon="111.277108">
<time>2016-10-06T12:55:56Z</time></trkpt>
<trkpt lat="24.525968" lon="111.277108">
<time>2016-10-06T12:55:57Z</time></trkpt>
<trkpt lat="24.525938" lon="111.276998">
<time>2016-10-06T12:55:58Z</time></trkpt>
<trkpt lat="24.525908" lon="111.276898">
<time>2016-10-06T12:55:59Z</time></trkpt>
<trkpt lat="24.525838" lon="111.276529">
<time>2016-10-06T12:56:00Z</time></trkpt>
<trkpt lat="24.525729" lon="111.27588">
<time>2016-10-06T12:56:01Z</time></trkpt>
<trkpt lat="24.52562" lon="111.275171">
<time>2016-10-06T12:56:02Z</time></trkpt>
<trkpt lat="24.52562" lon="111.275171">
<time>2016-10-06T12:56:03Z</time></trkpt>
<trkpt lat="24.52564" lon="111.275141">
<time>2016-10-06T12:56:04Z</time></trkpt>
<trkpt lat="24.52563" lon="111.275071">
<time>2016-10-06T12:56:05Z</time></trkpt>
<trkpt lat="24.52562" lon="111.275002">
<time>2016-10-06T12:56:06Z</time></trkpt>
<trkpt lat="24.52558" lon="111.274982">
<time>2016-10-06T12:56:07Z</time></trkpt>
<trkpt lat="24.525312" lon="111.273315">
<time>2016-10-06T12:56:08Z</time></trkpt>
<trkpt lat="24.524934" lon="111.271049">
<time>2016-10-06T12:56:09Z</time></trkpt>
<trkpt lat="24.524715" lon="111.269621">
<time>2016-10-06T12:56:10Z</time></trkpt>
<trkpt lat="24.52372" lon="111.263381">
<time>2016-10-06T12:56:11Z</time></trkpt>
<trkpt lat="24.523432" lon="111.261574">
<time>2016-10-06T12:56:12Z</time></trkpt>
<trkpt lat="24.523282" lon="111.260565">
<time>2016-10-06T12:56:13Z</time></trkpt>
<trkpt lat="24.523173" lon="111.259906">
<time>2016-10-06T12:56:14Z</time></trkpt>
<trkpt lat="24.522993" lon="111.258757">
<time>2016-10-06T12:56:15Z</time></trkpt>
<trkpt lat="24.522744" lon="111.257179">
<time>2016-10-06T12:56:16Z</time></trkpt>
<trkpt lat="24.522544" lon="111.255931">
<time>2016-10-06T12:56:17Z</time></trkpt>
<trkpt lat="24.522475" lon="111.255501">
<time>2016-10-06T12:56:18Z</time></trkpt>
<trkpt lat="24.522415" lon="111.255212">
<time>2016-10-06T12:56:19Z</time></trkpt>
<trkpt lat="24.522345" lon="111.254942">
<time>2016-10-06T12:56:20Z</time></trkpt>
<trkpt lat="24.522215" lon="111.254562">
<time>2016-10-06T12:56:21Z</time></trkpt>
<trkpt lat="24.522045" lon="111.254043">
<time>2016-10-06T12:56:22Z</time></trkpt>
<trkpt lat="24.521835" lon="111.253424">
<time>2016-10-06T12:56:23Z</time></trkpt>
<trkpt lat="24.521236" lon="111.251646">
<time>2016-10-06T12:56:24Z</time></trkpt>
<trkpt lat="24.520996" lon="111.250936">
<time>2016-10-06T12:56:25Z</time></trkpt>
<trkpt lat="24.520936" lon="111.250766">
<time>2016-10-06T12:56:26Z</time></trkpt>
<trkpt lat="24.520866" lon="111.250587">
<time>2016-10-06T12:56:27Z</time></trkpt>
<trkpt lat="24.520796" lon="111.250447">
<time>2016-10-06T12:56:28Z</time></trkpt>
<trkpt lat="24.520736" lon="111.250337">
<time>2016-10-06T12:56:29Z</time></trkpt>
<trkpt lat="24.520676" lon="111.250247">
<time>2016-10-06T12:56:30Z</time></trkpt>
<trkpt lat="24.520606" lon="111.250137">
<time>2016-10-06T12:56:31Z</time></trkpt>
<trkpt lat="24.520496" lon="111.249997">
<time>2016-10-06T12:56:32Z</time></trkpt>
<trkpt lat="24.520486" lon="111.249987">
<time>2016-10-06T12:56:33Z</time></trkpt>
<trkpt lat="24.520426" lon="111.249917">
<time>2016-10-06T12:56:34Z</time></trkpt>
<trkpt lat="24.520366" lon="111.249847">
<time>2016-10-06T12:56:35Z</time></trkpt>
<trkpt lat="24.520306" lon="111.249787">
<time>2016-10-06T12:56:36Z</time></trkpt>
<trkpt lat="24.520236" lon="111.249717">
<time>2016-10-06T12:56:37Z</time></trkpt>
<trkpt lat="24.520156" lon="111.249648">
<time>2016-10-06T12:56:38Z</time></trkpt>
<trkpt lat="24.520086" lon="111.249598">
<time>2016-10-06T12:56:39Z</time></trkpt>
<trkpt lat="24.520016" lon="111.249538">
<time>2016-10-06T12:56:40Z</time></trkpt>
<trkpt lat="24.519856" lon="111.249428">
<time>2016-10-06T12:56:41Z</time></trkpt>
<trkpt lat="24.519786" lon="111.249388">
<time>2016-10-06T12:56:42Z</time></trkpt>
<trkpt lat="24.519706" lon="111.249338">
<time>2016-10-06T12:56:43Z</time></trkpt>
<trkpt lat="24.519616" lon="111.249288">
<time>2016-10-06T12:56:44Z</time></trkpt>
<trkpt lat="24.519546" lon="111.249248">
<time>2016-10-06T12:56:45Z</time></trkpt>
<trkpt lat="24.516546" lon="111.247839">
<time>2016-10-06T12:56:46Z</time></trkpt>
<trkpt lat="24.515386" lon="111.2473">
<time>2016-10-06T12:56:47Z</time></trkpt>
<trkpt lat="24.514966" lon="111.24713">
<time>2016-10-06T12:56:48Z</time></trkpt>
<trkpt lat="24.514206" lon="111.24685">
<time>2016-10-06T12:56:49Z</time></trkpt>
<trkpt lat="24.513766" lon="111.24671">
<time>2016-10-06T12:56:50Z</time></trkpt>
<trkpt lat="24.513326" lon="111.246551">
<time>2016-10-06T12:56:51Z</time></trkpt>
<trkpt lat="24.510535" lon="111.245691">
<time>2016-10-06T12:56:52Z</time></trkpt>
<trkpt lat="24.509575" lon="111.245382">
<time>2016-10-06T12:56:53Z</time></trkpt>
<trkpt lat="24.509325" lon="111.245282">
<time>2016-10-06T12:56:54Z</time></trkpt>
<trkpt lat="24.509235" lon="111.245252">
<time>2016-10-06T12:56:55Z</time></trkpt>
<trkpt lat="24.508975" lon="111.245142">
<time>2016-10-06T12:56:56Z</time></trkpt>
<trkpt lat="24.508655" lon="111.244992">
<time>2016-10-06T12:56:57Z</time></trkpt>
<trkpt lat="24.506445" lon="111.243863">
<time>2016-10-06T12:56:58Z</time></trkpt>
<trkpt lat="24.506285" lon="111.243773">
<time>2016-10-06T12:56:59Z</time></trkpt>
<trkpt lat="24.500374" lon="111.240775">
<time>2016-10-06T12:57:00Z</time></trkpt>
<trkpt lat="24.500053" lon="111.240605">
<time>2016-10-06T12:57:01Z</time></trkpt>
<trkpt lat="24.500003" lon="111.240585">
<time>2016-10-06T12:57:02Z</time></trkpt>
<trkpt lat="24.498583" lon="111.239866">
<time>2016-10-06T12:57:03Z</time></trkpt>
<trkpt lat="24.498053" lon="111.239586">
<time>2016-10-06T12:57:04Z</time></trkpt>
<trkpt lat="24.497763" lon="111.239426">
<time>2016-10-06T12:57:05Z</time></trkpt>
<trkpt lat="24.497443" lon="111.239226">
<time>2016-10-06T12:57:06Z</time></trkpt>
<trkpt lat="24.497233" lon="111.239086">
<time>2016-10-06T12:57:07Z</time></trkpt>
<trkpt lat="24.497013" lon="111.238937">
<time>2016-10-06T12:57:08Z</time></trkpt>
<trkpt lat="24.496653" lon="111.238667">
<time>2016-10-06T12:57:09Z</time></trkpt>
<trkpt lat="24.496442" lon="111.238487">
<time>2016-10-06T12:57:10Z</time></trkpt>
<trkpt lat="24.496192" lon="111.238267">
<time>2016-10-06T12:57:11Z</time></trkpt>
<trkpt lat="24.496002" lon="111.238107">
<time>2016-10-06T12:57:12Z</time></trkpt>
<trkpt lat="24.495752" lon="111.237857">
<time>2016-10-06T12:57:13Z</time></trkpt>
<trkpt lat="24.495512" lon="111.237607">
<time>2016-10-06T12:57:14Z</time></trkpt>
<trkpt lat="24.495172" lon="111.237217">
<time>2016-10-06T12:57:15Z</time></trkpt>
<trkpt lat="24.494742" lon="111.236688">
<time>2016-10-06T12:57:16Z</time></trkpt>
<trkpt lat="24.494261" lon="111.236028">
<time>2016-10-06T12:57:17Z</time></trkpt>
<trkpt lat="24.492801" lon="111.234049">
<time>2016-10-06T12:57:18Z</time></trkpt>
<trkpt lat="24.49163" lon="111.232449">
<time>2016-10-06T12:57:19Z</time></trkpt>
<trkpt lat="24.490949" lon="111.231519">
<time>2016-10-06T12:57:20Z</time></trkpt>
<trkpt lat="24.490148" lon="111.23043">
<time>2016-10-06T12:57:21Z</time></trkpt>
<trkpt lat="24.489838" lon="111.23">
<time>2016-10-06T12:57:22Z</time></trkpt>
<trkpt lat="24.488447" lon="111.2281">
<time>2016-10-06T12:57:23Z</time></trkpt>
<trkpt lat="24.488076" lon="111.22761">
<time>2016-10-06T12:57:24Z</time></trkpt>
<trkpt lat="24.487005" lon="111.22614">
<time>2016-10-06T12:57:25Z</time></trkpt>
<trkpt lat="24.486495" lon="111.22545">
<time>2016-10-06T12:57:26Z</time></trkpt>
<trkpt lat="24.486084" lon="111.22489">
<time>2016-10-06T12:57:27Z</time></trkpt>
<trkpt lat="24.485874" lon="111.22461">
<time>2016-10-06T12:57:28Z</time></trkpt>
<trkpt lat="24.485714" lon="111.22439">
<time>2016-10-06T12:57:29Z</time></trkpt>
<trkpt lat="24.485604" lon="111.22423">
<time>2016-10-06T12:57:30Z</time></trkpt>
<trkpt lat="24.485494" lon="111.22406">
<time>2016-10-06T12:57:31Z</time></trkpt>
<trkpt lat="24.485373" lon="111.22386">
<time>2016-10-06T12:57:32Z</time></trkpt>
<trkpt lat="24.485283" lon="111.22369">
<time>2016-10-06T12:57:33Z</time></trkpt>
<trkpt lat="24.485193" lon="111.22351">
<time>2016-10-06T12:57:34Z</time></trkpt>
<trkpt lat="24.485113" lon="111.22332">
<time>2016-10-06T12:57:35Z</time></trkpt>
<trkpt lat="24.485053" lon="111.22313">
<time>2016-10-06T12:57:36Z</time></trkpt>
<trkpt lat="24.485023" lon="111.22301">
<time>2016-10-06T12:57:37Z</time></trkpt>
<trkpt lat="24.485013" lon="111.22292">
<time>2016-10-06T12:57:38Z</time></trkpt>
<trkpt lat="24.484982" lon="111.22277">
<time>2016-10-06T12:57:39Z</time></trkpt>
<trkpt lat="24.484962" lon="111.22265">
<time>2016-10-06T12:57:40Z</time></trkpt>
<trkpt lat="24.484942" lon="111.22243">
<time>2016-10-06T12:57:41Z</time></trkpt>
<trkpt lat="24.484922" lon="111.22223">
<time>2016-10-06T12:57:42Z</time></trkpt>
<trkpt lat="24.484892" lon="111.22188">
<time>2016-10-06T12:57:43Z</time></trkpt>
<trkpt lat="24.484882" lon="111.22164">
<time>2016-10-06T12:57:44Z</time></trkpt>
<trkpt lat="24.484871" lon="111.22128">
<time>2016-10-06T12:57:45Z</time></trkpt>
<trkpt lat="24.484851" lon="111.220539">
<time>2016-10-06T12:57:46Z</time></trkpt>
<trkpt lat="24.484789" lon="111.219359">
<time>2016-10-06T12:57:47Z</time></trkpt>
<trkpt lat="24.484718" lon="111.218119">
<time>2016-10-06T12:57:48Z</time></trkpt>
<trkpt lat="24.484657" lon="111.216758">
<time>2016-10-06T12:57:49Z</time></trkpt>
<trkpt lat="24.484585" lon="111.215298">
<time>2016-10-06T12:57:50Z</time></trkpt>
<trkpt lat="24.484524" lon="111.213977">
<time>2016-10-06T12:57:51Z</time></trkpt>
<trkpt lat="24.484483" lon="111.213327">
<time>2016-10-06T12:57:52Z</time></trkpt>
<trkpt lat="24.484473" lon="111.212947">
<time>2016-10-06T12:57:53Z</time></trkpt>
<trkpt lat="24.484452" lon="111.212507">
<time>2016-10-06T12:57:54Z</time></trkpt>
<trkpt lat="24.484432" lon="111.211876">
<time>2016-10-06T12:57:55Z</time></trkpt>
<trkpt lat="24.484411" lon="111.211536">
<time>2016-10-06T12:57:56Z</time></trkpt>
<trkpt lat="24.484391" lon="111.211116">
<time>2016-10-06T12:57:57Z</time></trkpt>
<trkpt lat="24.484319" lon="111.209625">
<time>2016-10-06T12:57:58Z</time></trkpt>
<trkpt lat="24.484278" lon="111.208885">
<time>2016-10-06T12:57:59Z</time></trkpt>
<trkpt lat="24.484237" lon="111.208114">
<time>2016-10-06T12:58:00Z</time></trkpt>
<trkpt lat="24.484165" lon="111.206183">
<time>2016-10-06T12:58:01Z</time></trkpt>
<trkpt lat="24.484041" lon="111.203781">
<time>2016-10-06T12:58:02Z</time></trkpt>
<trkpt lat="24.48399" lon="111.20289">
<time>2016-10-06T12:58:03Z</time></trkpt>
<trkpt lat="24.483969" lon="111.20218">
<time>2016-10-06T12:58:04Z</time></trkpt>
<trkpt lat="24.483928" lon="111.201219">
<time>2016-10-06T12:58:05Z</time></trkpt>
<trkpt lat="24.483835" lon="111.199347">
<time>2016-10-06T12:58:06Z</time></trkpt>
<trkpt lat="24.483701" lon="111.196705">
<time>2016-10-06T12:58:07Z</time></trkpt>
<trkpt lat="24.483659" lon="111.195644">
<time>2016-10-06T12:58:08Z</time></trkpt>
<trkpt lat="24.483598" lon="111.194673">
<time>2016-10-06T12:58:09Z</time></trkpt>
<trkpt lat="24.483515" lon="111.193141">
<time>2016-10-06T12:58:10Z</time></trkpt>
<trkpt lat="24.483464" lon="111.192301">
<time>2016-10-06T12:58:11Z</time></trkpt>
<trkpt lat="24.483422" lon="111.19141">
<time>2016-10-06T12:58:12Z</time></trkpt>
<trkpt lat="24.483401" lon="111.190919">
<time>2016-10-06T12:58:13Z</time></trkpt>
<trkpt lat="24.48336" lon="111.190329">
<time>2016-10-06T12:58:14Z</time></trkpt>
<trkpt lat="24.483339" lon="111.189728">
<time>2016-10-06T12:58:15Z</time></trkpt>
<trkpt lat="24.483298" lon="111.188927">
<time>2016-10-06T12:58:16Z</time></trkpt>
<trkpt lat="24.483267" lon="111.188426">
<time>2016-10-06T12:58:17Z</time></trkpt>
<trkpt lat="24.483236" lon="111.187896">
<time>2016-10-06T12:58:18Z</time></trkpt>
<trkpt lat="24.483195" lon="111.187065">
<time>2016-10-06T12:58:19Z</time></trkpt>
<trkpt lat="24.483184" lon="111.186534">
<time>2016-10-06T12:58:20Z</time></trkpt>
<trkpt lat="24.483152" lon="111.185633">
<time>2016-10-06T12:58:21Z</time></trkpt>
<trkpt lat="24.483101" lon="111.184612">
<time>2016-10-06T12:58:22Z</time></trkpt>
<trkpt lat="24.48308" lon="111.184362">
<time>2016-10-06T12:58:23Z</time></trkpt>
<trkpt lat="24.483059" lon="111.183671">
<time>2016-10-06T12:58:24Z</time></trkpt>
<trkpt lat="24.482976" lon="111.182069">
<time>2016-10-06T12:58:25Z</time></trkpt>
<trkpt lat="24.482862" lon="111.179877">
<time>2016-10-06T12:58:26Z</time></trkpt>
<trkpt lat="24.482831" lon="111.179126">
<time>2016-10-06T12:58:27Z</time></trkpt>
<trkpt lat="24.482789" lon="111.178154">
<time>2016-10-06T12:58:28Z</time></trkpt>
<trkpt lat="24.482727" lon="111.177063">
<time>2016-10-06T12:58:29Z</time></trkpt>
<trkpt lat="24.482716" lon="111.176813">
<time>2016-10-06T12:58:30Z</time></trkpt>
<trkpt lat="24.482696" lon="111.176633">
<time>2016-10-06T12:58:31Z</time></trkpt>
<trkpt lat="24.482666" lon="111.176412">
<time>2016-10-06T12:58:32Z</time></trkpt>
<trkpt lat="24.482635" lon="111.176232">
<time>2016-10-06T12:58:33Z</time></trkpt>
<trkpt lat="24.482565" lon="111.175912">
<time>2016-10-06T12:58:34Z</time></trkpt>
<trkpt lat="24.482474" lon="111.175601">
<time>2016-10-06T12:58:35Z</time></trkpt>
<trkpt lat="24.482374" lon="111.175301">
<time>2016-10-06T12:58:36Z</time></trkpt>
<trkpt lat="24.482293" lon="111.175031">
<time>2016-10-06T12:58:37Z</time></trkpt>
<trkpt lat="24.482041" lon="111.17421">
<time>2016-10-06T12:58:38Z</time></trkpt>
<trkpt lat="24.481881" lon="111.173739">
<time>2016-10-06T12:58:39Z</time></trkpt>
<trkpt lat="24.481538" lon="111.172668">
<time>2016-10-06T12:58:40Z</time></trkpt>
<trkpt lat="24.481176" lon="111.171566">
<time>2016-10-06T12:58:41Z</time></trkpt>
<trkpt lat="24.480693" lon="111.170104">
<time>2016-10-06T12:58:42Z</time></trkpt>
<trkpt lat="24.480462" lon="111.169363">
<time>2016-10-06T12:58:43Z</time></trkpt>
<trkpt lat="24.48013" lon="111.168352">
<time>2016-10-06T12:58:44Z</time></trkpt>
<trkpt lat="24.479999" lon="111.167962">
<time>2016-10-06T12:58:45Z</time></trkpt>
<trkpt lat="24.479889" lon="111.167671">
<time>2016-10-06T12:58:46Z</time></trkpt>
<trkpt lat="24.479768" lon="111.167401">
<time>2016-10-06T12:58:47Z</time></trkpt>
<trkpt lat="24.479628" lon="111.167141">
<time>2016-10-06T12:58:48Z</time></trkpt>
<trkpt lat="24.479467" lon="111.16685">
<time>2016-10-06T12:58:49Z</time></trkpt>
<trkpt lat="24.479216" lon="111.16642">
<time>2016-10-06T12:58:50Z</time></trkpt>
<trkpt lat="24.479056" lon="111.166149">
<time>2016-10-06T12:58:51Z</time></trkpt>
<trkpt lat="24.478795" lon="111.165729">
<time>2016-10-06T12:58:52Z</time></trkpt>
<trkpt lat="24.478384" lon="111.165058">
<time>2016-10-06T12:58:53Z</time></trkpt>
<trkpt lat="24.478163" lon="111.164708">
<time>2016-10-06T12:58:54Z</time></trkpt>
<trkpt lat="24.477681" lon="111.163907">
<time>2016-10-06T12:58:55Z</time></trkpt>
<trkpt lat="24.47723" lon="111.163186">
<time>2016-10-06T12:58:56Z</time></trkpt>
<trkpt lat="24.476919" lon="111.162665">
<time>2016-10-06T12:58:57Z</time></trkpt>
<trkpt lat="24.476598" lon="111.162144">
<time>2016-10-06T12:58:58Z</time></trkpt>
<trkpt lat="24.476196" lon="111.161484">
<time>2016-10-06T12:58:59Z</time></trkpt>
<trkpt lat="24.475745" lon="111.160753">
<time>2016-10-06T12:59:00Z</time></trkpt>
<trkpt lat="24.475444" lon="111.160252">
<time>2016-10-06T12:59:01Z</time></trkpt>
<trkpt lat="24.475213" lon="111.159892">
<time>2016-10-06T12:59:02Z</time></trkpt>
<trkpt lat="24.474892" lon="111.159361">
<time>2016-10-06T12:59:03Z</time></trkpt>
<trkpt lat="24.474611" lon="111.1589">
<time>2016-10-06T12:59:04Z</time></trkpt>
<trkpt lat="24.47415" lon="111.15814">
<time>2016-10-06T12:59:05Z</time></trkpt>
<trkpt lat="24.473809" lon="111.157589">
<time>2016-10-06T12:59:06Z</time></trkpt>
<trkpt lat="24.473668" lon="111.157359">
<time>2016-10-06T12:59:07Z</time></trkpt>
<trkpt lat="24.473106" lon="111.156417">
<time>2016-10-06T12:59:08Z</time></trkpt>
<trkpt lat="24.472605" lon="111.155607">
<time>2016-10-06T12:59:09Z</time></trkpt>
<trkpt lat="24.472053" lon="111.154715">
<time>2016-10-06T12:59:10Z</time></trkpt>
<trkpt lat="24.471431" lon="111.153714">
<time>2016-10-06T12:59:11Z</time></trkpt>
<trkpt lat="24.471211" lon="111.153364">
<time>2016-10-06T12:59:12Z</time></trkpt>
<trkpt lat="24.470719" lon="111.152593">
<time>2016-10-06T12:59:13Z</time></trkpt>
<trkpt lat="24.470197" lon="111.151742">
<time>2016-10-06T12:59:14Z</time></trkpt>
<trkpt lat="24.469836" lon="111.151191">
<time>2016-10-06T12:59:15Z</time></trkpt>
<trkpt lat="24.469586" lon="111.150801">
<time>2016-10-06T12:59:16Z</time></trkpt>
<trkpt lat="24.469225" lon="111.15022">
<time>2016-10-06T12:59:17Z</time></trkpt>
<trkpt lat="24.468954" lon="111.14982">
<time>2016-10-06T12:59:18Z</time></trkpt>
<trkpt lat="24.468803" lon="111.14958">
<time>2016-10-06T12:59:19Z</time></trkpt>
<trkpt lat="24.468723" lon="111.149439">
<time>2016-10-06T12:59:20Z</time></trkpt>
<trkpt lat="24.468633" lon="111.149289">
<time>2016-10-06T12:59:21Z</time></trkpt>
<trkpt lat="24.468562" lon="111.149129">
<time>2016-10-06T12:59:22Z</time></trkpt>
<trkpt lat="24.468442" lon="111.148889">
<time>2016-10-06T12:59:23Z</time></trkpt>
<trkpt lat="24.468362" lon="111.148679">
<time>2016-10-06T12:59:24Z</time></trkpt>
<trkpt lat="24.468291" lon="111.148468">
<time>2016-10-06T12:59:25Z</time></trkpt>
<trkpt lat="24.468231" lon="111.148238">
<time>2016-10-06T12:59:26Z</time></trkpt>
<trkpt lat="24.46818" lon="111.148008">
<time>2016-10-06T12:59:27Z</time></trkpt>
<trkpt lat="24.46815" lon="111.147788">
<time>2016-10-06T12:59:28Z</time></trkpt>
<trkpt lat="24.46812" lon="111.147567">
<time>2016-10-06T12:59:29Z</time></trkpt>
<trkpt lat="24.468109" lon="111.147307">
<time>2016-10-06T12:59:30Z</time></trkpt>
<trkpt lat="24.468099" lon="111.147027">
<time>2016-10-06T12:59:31Z</time></trkpt>
<trkpt lat="24.468087" lon="111.145946">
<time>2016-10-06T12:59:32Z</time></trkpt>
<trkpt lat="24.468076" lon="111.145365">
<time>2016-10-06T12:59:33Z</time></trkpt>
<trkpt lat="24.468085" lon="111.144924">
<time>2016-10-06T12:59:34Z</time></trkpt>
<trkpt lat="24.468075" lon="111.144714">
<time>2016-10-06T12:59:35Z</time></trkpt>
<trkpt lat="24.468054" lon="111.144164">
<time>2016-10-06T12:59:36Z</time></trkpt>
<trkpt lat="24.468043" lon="111.143563">
<time>2016-10-06T12:59:37Z</time></trkpt>
<trkpt lat="24.468032" lon="111.142942">
<time>2016-10-06T12:59:38Z</time></trkpt>
<trkpt lat="24.468021" lon="111.142482">
<time>2016-10-06T12:59:39Z</time></trkpt>
<trkpt lat="24.46801" lon="111.141821">
<time>2016-10-06T12:59:40Z</time></trkpt>
<trkpt lat="24.467999" lon="111.141231">
<time>2016-10-06T12:59:41Z</time></trkpt>
<trkpt lat="24.467998" lon="111.14061">
<time>2016-10-06T12:59:42Z</time></trkpt>
<trkpt lat="24.467977" lon="111.139839">
<time>2016-10-06T12:59:43Z</time></trkpt>
<trkpt lat="24.467975" lon="111.139059">
<time>2016-10-06T12:59:44Z</time></trkpt>
<trkpt lat="24.467954" lon="111.138058">
<time>2016-10-06T12:59:45Z</time></trkpt>
<trkpt lat="24.467942" lon="111.136897">
<time>2016-10-06T12:59:46Z</time></trkpt>
<trkpt lat="24.46792" lon="111.135646">
<time>2016-10-06T12:59:47Z</time></trkpt>
<trkpt lat="24.467909" lon="111.134855">
<time>2016-10-06T12:59:48Z</time></trkpt>
<trkpt lat="24.467897" lon="111.133534">
<time>2016-10-06T12:59:49Z</time></trkpt>
<trkpt lat="24.467886" lon="111.132933">
<time>2016-10-06T12:59:50Z</time></trkpt>
<trkpt lat="24.467865" lon="111.132323">
<time>2016-10-06T12:59:51Z</time></trkpt>
<trkpt lat="24.467854" lon="111.131462">
<time>2016-10-06T12:59:52Z</time></trkpt>
<trkpt lat="24.467853" lon="111.130952">
<time>2016-10-06T12:59:53Z</time></trkpt>
<trkpt lat="24.467843" lon="111.130612">
<time>2016-10-06T12:59:54Z</time></trkpt>
<trkpt lat="24.467832" lon="111.130021">
<time>2016-10-06T12:59:55Z</time></trkpt>
<trkpt lat="24.467821" lon="111.129451">
<time>2016-10-06T12:59:56Z</time></trkpt>
<trkpt lat="24.46781" lon="111.12884">
<time>2016-10-06T12:59:57Z</time></trkpt>
<trkpt lat="24.467799" lon="111.12824">
<time>2016-10-06T12:59:58Z</time></trkpt>
<trkpt lat="24.467789" lon="111.12765">
<time>2016-10-06T12:59:59Z</time></trkpt>
<trkpt lat="24.467768" lon="111.127049">
<time>2016-10-06T13:00:00Z</time></trkpt>
<trkpt lat="24.467757" lon="111.126409">
<time>2016-10-06T13:00:01Z</time></trkpt>
<trkpt lat="24.467747" lon="111.125959">
<time>2016-10-06T13:00:02Z</time></trkpt>
<trkpt lat="24.467746" lon="111.125839">
<time>2016-10-06T13:00:03Z</time></trkpt>
<trkpt lat="24.467746" lon="111.125688">
<time>2016-10-06T13:00:04Z</time></trkpt>
<trkpt lat="24.467736" lon="111.125548">
<time>2016-10-06T13:00:05Z</time></trkpt>
<trkpt lat="24.467726" lon="111.125438">
<time>2016-10-06T13:00:06Z</time></trkpt>
<trkpt lat="24.467696" lon="111.125258">
<time>2016-10-06T13:00:07Z</time></trkpt>
<trkpt lat="24.467645" lon="111.125008">
<time>2016-10-06T13:00:08Z</time></trkpt>
<trkpt lat="24.467595" lon="111.124868">
<time>2016-10-06T13:00:09Z</time></trkpt>
<trkpt lat="24.467575" lon="111.124798">
<time>2016-10-06T13:00:10Z</time></trkpt>
<trkpt lat="24.467535" lon="111.124668">
<time>2016-10-06T13:00:11Z</time></trkpt>
<trkpt lat="24.467485" lon="111.124548">
<time>2016-10-06T13:00:12Z</time></trkpt>
<trkpt lat="24.467425" lon="111.124408">
<time>2016-10-06T13:00:13Z</time></trkpt>
<trkpt lat="24.467344" lon="111.124248">
<time>2016-10-06T13:00:14Z</time></trkpt>
<trkpt lat="24.467184" lon="111.123918">
<time>2016-10-06T13:00:15Z</time></trkpt>
<trkpt lat="24.467064" lon="111.123687">
<time>2016-10-06T13:00:16Z</time></trkpt>
<trkpt lat="24.466893" lon="111.123337">
<time>2016-10-06T13:00:17Z</time></trkpt>
<trkpt lat="24.466713" lon="111.122987">
<time>2016-10-06T13:00:18Z</time></trkpt>
<trkpt lat="24.466482" lon="111.122507">
<time>2016-10-06T13:00:19Z</time></trkpt>
<trkpt lat="24.466191" lon="111.121937">
<time>2016-10-06T13:00:20Z</time></trkpt>
<trkpt lat="24.465991" lon="111.121547">
<time>2016-10-06T13:00:21Z</time></trkpt>
<trkpt lat="24.46571" lon="111.120976">
<time>2016-10-06T13:00:22Z</time></trkpt>
<trkpt lat="24.46546" lon="111.120486">
<time>2016-10-06T13:00:23Z</time></trkpt>
<trkpt lat="24.465179" lon="111.119946">
<time>2016-10-06T13:00:24Z</time></trkpt>
<trkpt lat="24.464959" lon="111.119506">
<time>2016-10-06T13:00:25Z</time></trkpt>
<trkpt lat="24.464748" lon="111.119076">
<time>2016-10-06T13:00:26Z</time></trkpt>
<trkpt lat="24.464538" lon="111.118606">
<time>2016-10-06T13:00:27Z</time></trkpt>
<trkpt lat="24.464427" lon="111.118306">
<time>2016-10-06T13:00:28Z</time></trkpt>
<trkpt lat="24.464377" lon="111.118146">
<time>2016-10-06T13:00:29Z</time></trkpt>
<trkpt lat="24.464337" lon="111.117965">
<time>2016-10-06T13:00:30Z</time></trkpt>
<trkpt lat="24.464277" lon="111.117735">
<time>2016-10-06T13:00:31Z</time></trkpt>
<trkpt lat="24.464216" lon="111.117455">
<time>2016-10-06T13:00:32Z</time></trkpt>
<trkpt lat="24.464116" lon="111.116935">
<time>2016-10-06T13:00:33Z</time></trkpt>
<trkpt lat="24.463975" lon="111.116185">
<time>2016-10-06T13:00:34Z</time></trkpt>
<trkpt lat="24.463844" lon="111.115555">
<time>2016-10-06T13:00:35Z</time></trkpt>
<trkpt lat="24.463704" lon="111.114815">
<time>2016-10-06T13:00:36Z</time></trkpt>
<trkpt lat="24.463643" lon="111.114475">
<time>2016-10-06T13:00:37Z</time></trkpt>
<trkpt lat="24.463453" lon="111.113465">
<time>2016-10-06T13:00:38Z</time></trkpt>
<trkpt lat="24.463372" lon="111.113025">
<time>2016-10-06T13:00:39Z</time></trkpt>
<trkpt lat="24.463352" lon="111.112905">
<time>2016-10-06T13:00:40Z</time></trkpt>
<trkpt lat="24.463332" lon="111.112795">
<time>2016-10-06T13:00:41Z</time></trkpt>
<trkpt lat="24.463302" lon="111.112545">
<time>2016-10-06T13:00:42Z</time></trkpt>
<trkpt lat="24.463282" lon="111.112345">
<time>2016-10-06T13:00:43Z</time></trkpt>
<trkpt lat="24.463251" lon="111.112145">
<time>2016-10-06T13:00:44Z</time></trkpt>
<trkpt lat="24.463231" lon="111.111895">
<time>2016-10-06T13:00:45Z</time></trkpt>
<trkpt lat="24.463221" lon="111.111585">
<time>2016-10-06T13:00:46Z</time></trkpt>
<trkpt lat="24.46316" lon="111.110575">
<time>2016-10-06T13:00:47Z</time></trkpt>
<trkpt lat="24.46311" lon="111.109825">
<time>2016-10-06T13:00:48Z</time></trkpt>
<trkpt lat="24.463079" lon="111.109305">
<time>2016-10-06T13:00:49Z</time></trkpt>
<trkpt lat="24.463059" lon="111.108845">
<time>2016-10-06T13:00:50Z</time></trkpt>
<trkpt lat="24.463008" lon="111.107965">
<time>2016-10-06T13:00:51Z</time></trkpt>
<trkpt lat="24.462978" lon="111.107385">
<time>2016-10-06T13:00:52Z</time></trkpt>
<trkpt lat="24.462958" lon="111.106915">
<time>2016-10-06T13:00:53Z</time></trkpt>
<trkpt lat="24.462938" lon="111.106665">
<time>2016-10-06T13:00:54Z</time></trkpt>
<trkpt lat="24.462917" lon="111.106125">
<time>2016-10-06T13:00:55Z</time></trkpt>
<trkpt lat="24.462837" lon="111.104915">
<time>2016-10-06T13:00:56Z</time></trkpt>
<trkpt lat="24.462806" lon="111.104196">
<time>2016-10-06T13:00:57Z</time></trkpt>
<trkpt lat="24.462776" lon="111.103686">
<time>2016-10-06T13:00:58Z</time></trkpt>
<trkpt lat="24.462736" lon="111.103146">
<time>2016-10-06T13:00:59Z</time></trkpt>
<trkpt lat="24.462685" lon="111.102256">
<time>2016-10-06T13:01:00Z</time></trkpt>
<trkpt lat="24.462655" lon="111.101727">
<time>2016-10-06T13:01:01Z</time></trkpt>
<trkpt lat="24.462615" lon="111.101337">
<time>2016-10-06T13:01:02Z</time></trkpt>
<trkpt lat="24.462565" lon="111.100387">
<time>2016-10-06T13:01:03Z</time></trkpt>
<trkpt lat="24.462514" lon="111.099498">
<time>2016-10-06T13:01:04Z</time></trkpt>
<trkpt lat="24.462504" lon="111.098608">
<time>2016-10-06T13:01:05Z</time></trkpt>
<trkpt lat="24.462504" lon="111.098288">
<time>2016-10-06T13:01:06Z</time></trkpt>
<trkpt lat="24.462504" lon="111.098018">
<time>2016-10-06T13:01:07Z</time></trkpt>
<trkpt lat="24.462504" lon="111.097569">
<time>2016-10-06T13:01:08Z</time></trkpt>
<trkpt lat="24.462504" lon="111.097299">
<time>2016-10-06T13:01:09Z</time></trkpt>
<trkpt lat="24.462484" lon="111.096429">
<time>2016-10-06T13:01:10Z</time></trkpt>
<trkpt lat="24.462464" lon="111.09611">
<time>2016-10-06T13:01:11Z</time></trkpt>
<trkpt lat="24.462444" lon="111.09577">
<time>2016-10-06T13:01:12Z</time></trkpt>
<trkpt lat="24.462404" lon="111.09521">
<time>2016-10-06T13:01:13Z</time></trkpt>
<trkpt lat="24.462354" lon="111.094481">
<time>2016-10-06T13:01:14Z</time></trkpt>
<trkpt lat="24.462304" lon="111.093791">
<time>2016-10-06T13:01:15Z</time></trkpt>
<trkpt lat="24.462233" lon="111.092892">
<time>2016-10-06T13:01:16Z</time></trkpt>
<trkpt lat="24.462213" lon="111.092572">
<time>2016-10-06T13:01:17Z</time></trkpt>
<trkpt lat="24.462163" lon="111.092123">
<time>2016-10-06T13:01:18Z</time></trkpt>
<trkpt lat="24.462153" lon="111.091953">
<time>2016-10-06T13:01:19Z</time></trkpt>
<trkpt lat="24.462094" lon="111.091064">
<time>2016-10-06T13:01:20Z</time></trkpt>
<trkpt lat="24.462064" lon="111.090784">
<time>2016-10-06T13:01:21Z</time></trkpt>
<trkpt lat="24.462044" lon="111.090444">
<time>2016-10-06T13:01:22Z</time></trkpt>
<trkpt lat="24.462034" lon="111.090394">
<time>2016-10-06T13:01:23Z</time></trkpt>
<trkpt lat="24.462024" lon="111.090234">
<time>2016-10-06T13:01:24Z</time></trkpt>
<trkpt lat="24.461954" lon="111.089265">
<time>2016-10-06T13:01:25Z</time></trkpt>
<trkpt lat="24.461904" lon="111.088726">
<time>2016-10-06T13:01:26Z</time></trkpt>
<trkpt lat="24.461834" lon="111.087987">
<time>2016-10-06T13:01:27Z</time></trkpt>
<trkpt lat="24.461744" lon="111.087228">
<time>2016-10-06T13:01:28Z</time></trkpt>
<trkpt lat="24.461724" lon="111.087038">
<time>2016-10-06T13:01:29Z</time></trkpt>
<trkpt lat="24.461684" lon="111.086808">
<time>2016-10-06T13:01:30Z</time></trkpt>
<trkpt lat="24.461644" lon="111.086598">
<time>2016-10-06T13:01:31Z</time></trkpt>
<trkpt lat="24.461604" lon="111.086239">
<time>2016-10-06T13:01:32Z</time></trkpt>
<trkpt lat="24.461574" lon="111.086079">
<time>2016-10-06T13:01:33Z</time></trkpt>
<trkpt lat="24.461564" lon="111.085969">
<time>2016-10-06T13:01:34Z</time></trkpt>
<trkpt lat="24.461554" lon="111.085869">
<time>2016-10-06T13:01:35Z</time></trkpt>
<trkpt lat="24.461535" lon="111.085739">
<time>2016-10-06T13:01:36Z</time></trkpt>
<trkpt lat="24.461535" lon="111.085619">
<time>2016-10-06T13:01:37Z</time></trkpt>
<trkpt lat="24.461515" lon="111.08542">
<time>2016-10-06T13:01:38Z</time></trkpt>
<trkpt lat="24.461495" lon="111.08526">
<time>2016-10-06T13:01:39Z</time></trkpt>
<trkpt lat="24.461455" lon="111.08503">
<time>2016-10-06T13:01:40Z</time></trkpt>
<trkpt lat="24.461365" lon="111.084461">
<time>2016-10-06T13:01:41Z</time></trkpt>
<trkpt lat="24.461315" lon="111.084191">
<time>2016-10-06T13:01:42Z</time></trkpt>
<trkpt lat="24.461175" lon="111.083133">
<time>2016-10-06T13:01:43Z</time></trkpt>
<trkpt lat="24.460996" lon="111.081764">
<time>2016-10-06T13:01:44Z</time></trkpt>
<trkpt lat="24.460886" lon="111.081025">
<time>2016-10-06T13:01:45Z</time></trkpt>
<trkpt lat="24.460827" lon="111.080556">
<time>2016-10-06T13:01:46Z</time></trkpt>
<trkpt lat="24.460747" lon="111.080027">
<time>2016-10-06T13:01:47Z</time></trkpt>
<trkpt lat="24.460697" lon="111.079787">
<time>2016-10-06T13:01:48Z</time></trkpt>
<trkpt lat="24.460637" lon="111.079488">
<time>2016-10-06T13:01:49Z</time></trkpt>
<trkpt lat="24.460587" lon="111.079288">
<time>2016-10-06T13:01:50Z</time></trkpt>
<trkpt lat="24.460547" lon="111.079118">
<time>2016-10-06T13:01:51Z</time></trkpt>
<trkpt lat="24.460448" lon="111.078839">
<time>2016-10-06T13:01:52Z</time></trkpt>
<trkpt lat="24.460378" lon="111.078609">
<time>2016-10-06T13:01:53Z</time></trkpt>
<trkpt lat="24.460298" lon="111.078429">
<time>2016-10-06T13:01:54Z</time></trkpt>
<trkpt lat="24.460208" lon="111.07822">
<time>2016-10-06T13:01:55Z</time></trkpt>
<trkpt lat="24.460068" lon="111.07786">
<time>2016-10-06T13:01:56Z</time></trkpt>
<trkpt lat="24.459958" lon="111.077541">
<time>2016-10-06T13:01:57Z</time></trkpt>
<trkpt lat="24.459869" lon="111.077301">
<time>2016-10-06T13:01:58Z</time></trkpt>
<trkpt lat="24.459669" lon="111.076812">
<time>2016-10-06T13:01:59Z</time></trkpt>
<trkpt lat="24.459549" lon="111.076502">
<time>2016-10-06T13:02:00Z</time></trkpt>
<trkpt lat="24.459419" lon="111.076173">
<time>2016-10-06T13:02:01Z</time></trkpt>
<trkpt lat="24.459369" lon="111.076073">
<time>2016-10-06T13:02:02Z</time></trkpt>
<trkpt lat="24.459329" lon="111.075973">
<time>2016-10-06T13:02:03Z</time></trkpt>
<trkpt lat="24.45923" lon="111.075704">
<time>2016-10-06T13:02:04Z</time></trkpt>
<trkpt lat="24.45915" lon="111.075494">
<time>2016-10-06T13:02:05Z</time></trkpt>
<trkpt lat="24.45889" lon="111.074885">
<time>2016-10-06T13:02:06Z</time></trkpt>
<trkpt lat="24.458701" lon="111.074376">
<time>2016-10-06T13:02:07Z</time></trkpt>
<trkpt lat="24.458531" lon="111.073917">
<time>2016-10-06T13:02:08Z</time></trkpt>
<trkpt lat="24.458361" lon="111.073508">
<time>2016-10-06T13:02:09Z</time></trkpt>
<trkpt lat="24.458221" lon="111.073188">
<time>2016-10-06T13:02:10Z</time></trkpt>
<trkpt lat="24.458012" lon="111.072609">
<time>2016-10-06T13:02:11Z</time></trkpt>
<trkpt lat="24.457872" lon="111.07227">
<time>2016-10-06T13:02:12Z</time></trkpt>
<trkpt lat="24.457822" lon="111.07216">
<time>2016-10-06T13:02:13Z</time></trkpt>
<trkpt lat="24.457782" lon="111.07204">
<time>2016-10-06T13:02:14Z</time></trkpt>
<trkpt lat="24.457583" lon="111.071561">
<time>2016-10-06T13:02:15Z</time></trkpt>
<trkpt lat="24.457453" lon="111.071232">
<time>2016-10-06T13:02:16Z</time></trkpt>
<trkpt lat="24.457323" lon="111.070863">
<time>2016-10-06T13:02:17Z</time></trkpt>
<trkpt lat="24.457224" lon="111.070623">
<time>2016-10-06T13:02:18Z</time></trkpt>
<trkpt lat="24.457114" lon="111.070364">
<time>2016-10-06T13:02:19Z</time></trkpt>
<trkpt lat="24.457024" lon="111.070164">
<time>2016-10-06T13:02:20Z</time></trkpt>
<trkpt lat="24.456964" lon="111.070024">
<time>2016-10-06T13:02:21Z</time></trkpt>
<trkpt lat="24.456715" lon="111.069376">
<time>2016-10-06T13:02:22Z</time></trkpt>
<trkpt lat="24.456476" lon="111.068767">
<time>2016-10-06T13:02:23Z</time></trkpt>
<trkpt lat="24.456316" lon="111.068368">
<time>2016-10-06T13:02:24Z</time></trkpt>
<trkpt lat="24.455907" lon="111.06736">
<time>2016-10-06T13:02:25Z</time></trkpt>
<trkpt lat="24.455518" lon="111.066372">
<time>2016-10-06T13:02:26Z</time></trkpt>
<trkpt lat="24.455209" lon="111.065574">
<time>2016-10-06T13:02:27Z</time></trkpt>
<trkpt lat="24.45489" lon="111.064766">
<time>2016-10-06T13:02:28Z</time></trkpt>
<trkpt lat="24.454541" lon="111.063907">
<time>2016-10-06T13:02:29Z</time></trkpt>
<trkpt lat="24.454232" lon="111.063129">
<time>2016-10-06T13:02:30Z</time></trkpt>
<trkpt lat="24.453973" lon="111.062451">
<time>2016-10-06T13:02:31Z</time></trkpt>
<trkpt lat="24.453863" lon="111.062181">
<time>2016-10-06T13:02:32Z</time></trkpt>
<trkpt lat="24.453803" lon="111.062012">
<time>2016-10-06T13:02:33Z</time></trkpt>
<trkpt lat="24.453724" lon="111.061842">
<time>2016-10-06T13:02:34Z</time></trkpt>
<trkpt lat="24.453614" lon="111.061603">
<time>2016-10-06T13:02:35Z</time></trkpt>
<trkpt lat="24.453454" lon="111.061304">
<time>2016-10-06T13:02:36Z</time></trkpt>
<trkpt lat="24.453315" lon="111.061104">
<time>2016-10-06T13:02:37Z</time></trkpt>
<trkpt lat="24.453145" lon="111.060875">
<time>2016-10-06T13:02:38Z</time></trkpt>
<trkpt lat="24.452975" lon="111.060675">
<time>2016-10-06T13:02:39Z</time></trkpt>
<trkpt lat="24.452636" lon="111.060286">
<time>2016-10-06T13:02:40Z</time></trkpt>
<trkpt lat="24.452326" lon="111.059927">
<time>2016-10-06T13:02:41Z</time></trkpt>
<trkpt lat="24.451897" lon="111.059438">
<time>2016-10-06T13:02:42Z</time></trkpt>
<trkpt lat="24.451627" lon="111.059129">
<time>2016-10-06T13:02:43Z</time></trkpt>
<trkpt lat="24.451178" lon="111.05862">
<time>2016-10-06T13:02:44Z</time></trkpt>
<trkpt lat="24.450918" lon="111.058341">
<time>2016-10-06T13:02:45Z</time></trkpt>
<trkpt lat="24.450589" lon="111.057962">
<time>2016-10-06T13:02:46Z</time></trkpt>
<trkpt lat="24.450169" lon="111.057483">
<time>2016-10-06T13:02:47Z</time></trkpt>
<trkpt lat="24.45" lon="111.057294">
<time>2016-10-06T13:02:48Z</time></trkpt>
<trkpt lat="24.44985" lon="111.057104">
<time>2016-10-06T13:02:49Z</time></trkpt>
<trkpt lat="24.44968" lon="111.056875">
<time>2016-10-06T13:02:50Z</time></trkpt>
<trkpt lat="24.44955" lon="111.056695">
<time>2016-10-06T13:02:51Z</time></trkpt>
<trkpt lat="24.449441" lon="111.056496">
<time>2016-10-06T13:02:52Z</time></trkpt>
<trkpt lat="24.449321" lon="111.056247">
<time>2016-10-06T13:02:53Z</time></trkpt>
<trkpt lat="24.449271" lon="111.056117">
<time>2016-10-06T13:02:54Z</time></trkpt>
<trkpt lat="24.449212" lon="111.055957">
<time>2016-10-06T13:02:55Z</time></trkpt>
<trkpt lat="24.449172" lon="111.055838">
<time>2016-10-06T13:02:56Z</time></trkpt>
<trkpt lat="24.449122" lon="111.055598">
<time>2016-10-06T13:02:57Z</time></trkpt>
<trkpt lat="24.449083" lon="111.055369">
<time>2016-10-06T13:02:58Z</time></trkpt>
<trkpt lat="24.449063" lon="111.055229">
<time>2016-10-06T13:02:59Z</time></trkpt>
<trkpt lat="24.449053" lon="111.05509">
<time>2016-10-06T13:03:00Z</time></trkpt>
<trkpt lat="24.449043" lon="111.05492">
<time>2016-10-06T13:03:01Z</time></trkpt>
<trkpt lat="24.449034" lon="111.054731">
<time>2016-10-06T13:03:02Z</time></trkpt>
<trkpt lat="24.449034" lon="111.054501">
<time>2016-10-06T13:03:03Z</time></trkpt>
<trkpt lat="24.449045" lon="111.054192">
<time>2016-10-06T13:03:04Z</time></trkpt>
<trkpt lat="24.449055" lon="111.053833">
<time>2016-10-06T13:03:05Z</time></trkpt>
<trkpt lat="24.449076" lon="111.053384">
<time>2016-10-06T13:03:06Z</time></trkpt>
<trkpt lat="24.449087" lon="111.052746">
<time>2016-10-06T13:03:07Z</time></trkpt>
<trkpt lat="24.449088" lon="111.052457">
<time>2016-10-06T13:03:08Z</time></trkpt>
<trkpt lat="24.449078" lon="111.052257">
<time>2016-10-06T13:03:09Z</time></trkpt>
<trkpt lat="24.449068" lon="111.052118">
<time>2016-10-06T13:03:10Z</time></trkpt>
<trkpt lat="24.449058" lon="111.052028">
<time>2016-10-06T13:03:11Z</time></trkpt>
<trkpt lat="24.449048" lon="111.051968">
<time>2016-10-06T13:03:12Z</time></trkpt>
<trkpt lat="24.449039" lon="111.051908">
<time>2016-10-06T13:03:13Z</time></trkpt>
<trkpt lat="24.449029" lon="111.051849">
<time>2016-10-06T13:03:14Z</time></trkpt>
<trkpt lat="24.449009" lon="111.051779">
<time>2016-10-06T13:03:15Z</time></trkpt>
<trkpt lat="24.448999" lon="111.051709">
<time>2016-10-06T13:03:16Z</time></trkpt>
<trkpt lat="24.448979" lon="111.051649">
<time>2016-10-06T13:03:17Z</time></trkpt>
<trkpt lat="24.448949" lon="111.051549">
<time>2016-10-06T13:03:18Z</time></trkpt>
<trkpt lat="24.448919" lon="111.05147">
<time>2016-10-06T13:03:19Z</time></trkpt>
<trkpt lat="24.448899" lon="111.05143">
<time>2016-10-06T13:03:20Z</time></trkpt>
<trkpt lat="24.448889" lon="111.05139">
<time>2016-10-06T13:03:21Z</time></trkpt>
<trkpt lat="24.448869" lon="111.05135">
<time>2016-10-06T13:03:22Z</time></trkpt>
<trkpt lat="24.44884" lon="111.05128">
<time>2016-10-06T13:03:23Z</time></trkpt>
<trkpt lat="24.44879" lon="111.05117">
<time>2016-10-06T13:03:24Z</time></trkpt>
<trkpt lat="24.4487" lon="111.050991">
<time>2016-10-06T13:03:25Z</time></trkpt>
<trkpt lat="24.44861" lon="111.050802">
<time>2016-10-06T13:03:26Z</time></trkpt>
<trkpt lat="24.448411" lon="111.050413">
<time>2016-10-06T13:03:27Z</time></trkpt>
<trkpt lat="24.448242" lon="111.050054">
<time>2016-10-06T13:03:28Z</time></trkpt>
<trkpt lat="24.448172" lon="111.049904">
<time>2016-10-06T13:03:29Z</time></trkpt>
<trkpt lat="24.448082" lon="111.049735">
<time>2016-10-06T13:03:30Z</time></trkpt>
<trkpt lat="24.448003" lon="111.049555">
<time>2016-10-06T13:03:31Z</time></trkpt>
<trkpt lat="24.447933" lon="111.049376">
<time>2016-10-06T13:03:32Z</time></trkpt>
<trkpt lat="24.447873" lon="111.049196">
<time>2016-10-06T13:03:33Z</time></trkpt>
<trkpt lat="24.447804" lon="111.048997">
<time>2016-10-06T13:03:34Z</time></trkpt>
<trkpt lat="24.447734" lon="111.048758">
<time>2016-10-06T13:03:35Z</time></trkpt>
<trkpt lat="24.447694" lon="111.048578">
<time>2016-10-06T13:03:36Z</time></trkpt>
<trkpt lat="24.447675" lon="111.048488">
<time>2016-10-06T13:03:37Z</time></trkpt>
<trkpt lat="24.447655" lon="111.048389">
<time>2016-10-06T13:03:38Z</time></trkpt>
<trkpt lat="24.447645" lon="111.048219">
<time>2016-10-06T13:03:39Z</time></trkpt>
<trkpt lat="24.447626" lon="111.04803">
<time>2016-10-06T13:03:40Z</time></trkpt>
<trkpt lat="24.447606" lon="111.047751">
<time>2016-10-06T13:03:41Z</time></trkpt>
<trkpt lat="24.447547" lon="111.047272">
<time>2016-10-06T13:03:42Z</time></trkpt>
<trkpt lat="24.447537" lon="111.047132">
<time>2016-10-06T13:03:43Z</time></trkpt>
<trkpt lat="24.447508" lon="111.046973">
<time>2016-10-06T13:03:44Z</time></trkpt>
<trkpt lat="24.447498" lon="111.046853">
<time>2016-10-06T13:03:45Z</time></trkpt>
<trkpt lat="24.447458" lon="111.046704">
<time>2016-10-06T13:03:46Z</time></trkpt>
<trkpt lat="24.447438" lon="111.046594">
<time>2016-10-06T13:03:47Z</time></trkpt>
<trkpt lat="24.447399" lon="111.046464">
<time>2016-10-06T13:03:48Z</time></trkpt>
<trkpt lat="24.447339" lon="111.046265">
<time>2016-10-06T13:03:49Z</time></trkpt>
<trkpt lat="24.447269" lon="111.046086">
<time>2016-10-06T13:03:50Z</time></trkpt>
<trkpt lat="24.447219" lon="111.045996">
<time>2016-10-06T13:03:51Z</time></trkpt>
<trkpt lat="24.44717" lon="111.045906">
<time>2016-10-06T13:03:52Z</time></trkpt>
<trkpt lat="24.44712" lon="111.045806">
<time>2016-10-06T13:03:53Z</time></trkpt>
<trkpt lat="24.44706" lon="111.045727">
<time>2016-10-06T13:03:54Z</time></trkpt>
<trkpt lat="24.44697" lon="111.045587">
<time>2016-10-06T13:03:55Z</time></trkpt>
<trkpt lat="24.44688" lon="111.045477">
<time>2016-10-06T13:03:56Z</time></trkpt>
<trkpt lat="24.446821" lon="111.045408">
<time>2016-10-06T13:03:57Z</time></trkpt>
<trkpt lat="24.446711" lon="111.045278">
<time>2016-10-06T13:03:58Z</time></trkpt>
<trkpt lat="24.446621" lon="111.045198">
<time>2016-10-06T13:03:59Z</time></trkpt>
<trkpt lat="24.446511" lon="111.045099">
<time>2016-10-06T13:04:00Z</time></trkpt>
<trkpt lat="24.446431" lon="111.045049">
<time>2016-10-06T13:04:01Z</time></trkpt>
<trkpt lat="24.446331" lon="111.044979">
<time>2016-10-06T13:04:02Z</time></trkpt>
<trkpt lat="24.446241" lon="111.044929">
<time>2016-10-06T13:04:03Z</time></trkpt>
<trkpt lat="24.446162" lon="111.044889">
<time>2016-10-06T13:04:04Z</time></trkpt>
<trkpt lat="24.446072" lon="111.044849">
<time>2016-10-06T13:04:05Z</time></trkpt>
<trkpt lat="24.445982" lon="111.04481">
<time>2016-10-06T13:04:06Z</time></trkpt>
<trkpt lat="24.445902" lon="111.04478">
<time>2016-10-06T13:04:07Z</time></trkpt>
<trkpt lat="24.445842" lon="111.04476">
<time>2016-10-06T13:04:08Z</time></trkpt>
<trkpt lat="24.445742" lon="111.04472">
<time>2016-10-06T13:04:09Z</time></trkpt>
<trkpt lat="24.445582" lon="111.04468">
<time>2016-10-06T13:04:10Z</time></trkpt>
<trkpt lat="24.445462" lon="111.04465">
<time>2016-10-06T13:04:11Z</time></trkpt>
<trkpt lat="24.445342" lon="111.04463">
<time>2016-10-06T13:04:12Z</time></trkpt>
<trkpt lat="24.445202" lon="111.04461">
<time>2016-10-06T13:04:13Z</time></trkpt>
<trkpt lat="24.445112" lon="111.04459">
<time>2016-10-06T13:04:14Z</time></trkpt>
<trkpt lat="24.444642" lon="111.044531">
<time>2016-10-06T13:04:15Z</time></trkpt>
<trkpt lat="24.444102" lon="111.044461">
<time>2016-10-06T13:04:16Z</time></trkpt>
<trkpt lat="24.443812" lon="111.044431">
<time>2016-10-06T13:04:17Z</time></trkpt>
<trkpt lat="24.443612" lon="111.044401">
<time>2016-10-06T13:04:18Z</time></trkpt>
<trkpt lat="24.443492" lon="111.044381">
<time>2016-10-06T13:04:19Z</time></trkpt>
<trkpt lat="24.443312" lon="111.044351">
<time>2016-10-06T13:04:20Z</time></trkpt>
<trkpt lat="24.443192" lon="111.044321">
<time>2016-10-06T13:04:21Z</time></trkpt>
<trkpt lat="24.443052" lon="111.044281">
<time>2016-10-06T13:04:22Z</time></trkpt>
<trkpt lat="24.442882" lon="111.044222">
<time>2016-10-06T13:04:23Z</time></trkpt>
<trkpt lat="24.442702" lon="111.044162">
<time>2016-10-06T13:04:24Z</time></trkpt>
<trkpt lat="24.442512" lon="111.044082">
<time>2016-10-06T13:04:25Z</time></trkpt>
<trkpt lat="24.442343" lon="111.044002">
<time>2016-10-06T13:04:26Z</time></trkpt>
<trkpt lat="24.442103" lon="111.043893">
<time>2016-10-06T13:04:27Z</time></trkpt>
<trkpt lat="24.441803" lon="111.043753">
<time>2016-10-06T13:04:28Z</time></trkpt>
<trkpt lat="24.441493" lon="111.043594">
<time>2016-10-06T13:04:29Z</time></trkpt>
<trkpt lat="24.440964" lon="111.043335">
<time>2016-10-06T13:04:30Z</time></trkpt>
<trkpt lat="24.440624" lon="111.043175">
<time>2016-10-06T13:04:31Z</time></trkpt>
<trkpt lat="24.440314" lon="111.043026">
<time>2016-10-06T13:04:32Z</time></trkpt>
<trkpt lat="24.439985" lon="111.042866">
<time>2016-10-06T13:04:33Z</time></trkpt>
<trkpt lat="24.439535" lon="111.042647">
<time>2016-10-06T13:04:34Z</time></trkpt>
<trkpt lat="24.439335" lon="111.042547">
<time>2016-10-06T13:04:35Z</time></trkpt>
<trkpt lat="24.439085" lon="111.042418">
<time>2016-10-06T13:04:36Z</time></trkpt>
<trkpt lat="24.438945" lon="111.042348">
<time>2016-10-06T13:04:37Z</time></trkpt>
<trkpt lat="24.438566" lon="111.042168">
<time>2016-10-06T13:04:38Z</time></trkpt>
<trkpt lat="24.438336" lon="111.042059">
<time>2016-10-06T13:04:39Z</time></trkpt>
<trkpt lat="24.438136" lon="111.041969">
<time>2016-10-06T13:04:40Z</time></trkpt>
<trkpt lat="24.437726" lon="111.04176">
<time>2016-10-06T13:04:41Z</time></trkpt>
<trkpt lat="24.437427" lon="111.0416">
<time>2016-10-06T13:04:42Z</time></trkpt>
<trkpt lat="24.437177" lon="111.041461">
<time>2016-10-06T13:04:43Z</time></trkpt>
<trkpt lat="24.437017" lon="111.041351">
<time>2016-10-06T13:04:44Z</time></trkpt>
<trkpt lat="24.436887" lon="111.041252">
<time>2016-10-06T13:04:45Z</time></trkpt>
<trkpt lat="24.436808" lon="111.041182">
<time>2016-10-06T13:04:46Z</time></trkpt>
<trkpt lat="24.436708" lon="111.041092">
<time>2016-10-06T13:04:47Z</time></trkpt>
<trkpt lat="24.436648" lon="111.041022">
<time>2016-10-06T13:04:48Z</time></trkpt>
<trkpt lat="24.436548" lon="111.040923">
<time>2016-10-06T13:04:49Z</time></trkpt>
<trkpt lat="24.436468" lon="111.040813">
<time>2016-10-06T13:04:50Z</time></trkpt>
<trkpt lat="24.436398" lon="111.040713">
<time>2016-10-06T13:04:51Z</time></trkpt>
<trkpt lat="24.436339" lon="111.040614">
<time>2016-10-06T13:04:52Z</time></trkpt>
<trkpt lat="24.436279" lon="111.040514">
<time>2016-10-06T13:04:53Z</time></trkpt>
<trkpt lat="24.436229" lon="111.040414">
<time>2016-10-06T13:04:54Z</time></trkpt>
<trkpt lat="24.436189" lon="111.040325">
<time>2016-10-06T13:04:55Z</time></trkpt>
<trkpt lat="24.43614" lon="111.040205">
<time>2016-10-06T13:04:56Z</time></trkpt>
<trkpt lat="24.43608" lon="111.040026">
<time>2016-10-06T13:04:57Z</time></trkpt>
<trkpt lat="24.43604" lon="111.039876">
<time>2016-10-06T13:04:58Z</time></trkpt>
<trkpt lat="24.435991" lon="111.039657">
<time>2016-10-06T13:04:59Z</time></trkpt>
<trkpt lat="24.435951" lon="111.039438">
<time>2016-10-06T13:05:00Z</time></trkpt>
<trkpt lat="24.435882" lon="111.038919">
<time>2016-10-06T13:05:01Z</time></trkpt>
<trkpt lat="24.435794" lon="111.038202">
<time>2016-10-06T13:05:02Z</time></trkpt>
<trkpt lat="24.435725" lon="111.037624">
<time>2016-10-06T13:05:03Z</time></trkpt>
<trkpt lat="24.435657" lon="111.037105">
<time>2016-10-06T13:05:04Z</time></trkpt>
<trkpt lat="24.435598" lon="111.036597">
<time>2016-10-06T13:05:05Z</time></trkpt>
<trkpt lat="24.435529" lon="111.036049">
<time>2016-10-06T13:05:06Z</time></trkpt>
<trkpt lat="24.435451" lon="111.035342">
<time>2016-10-06T13:05:07Z</time></trkpt>
<trkpt lat="24.435402" lon="111.034863">
<time>2016-10-06T13:05:08Z</time></trkpt>
<trkpt lat="24.435363" lon="111.034544">
<time>2016-10-06T13:05:09Z</time></trkpt>
<trkpt lat="24.435313" lon="111.034205">
<time>2016-10-06T13:05:10Z</time></trkpt>
<trkpt lat="24.435264" lon="111.033767">
<time>2016-10-06T13:05:11Z</time></trkpt>
<trkpt lat="24.435235" lon="111.033408">
<time>2016-10-06T13:05:12Z</time></trkpt>
<trkpt lat="24.435226" lon="111.033259">
<time>2016-10-06T13:05:13Z</time></trkpt>
<trkpt lat="24.435216" lon="111.033089">
<time>2016-10-06T13:05:14Z</time></trkpt>
<trkpt lat="24.435217" lon="111.0329">
<time>2016-10-06T13:05:15Z</time></trkpt>
<trkpt lat="24.435237" lon="111.032661">
<time>2016-10-06T13:05:16Z</time></trkpt>
<trkpt lat="24.435268" lon="111.032432">
<time>2016-10-06T13:05:17Z</time></trkpt>
<trkpt lat="24.435298" lon="111.032262">
<time>2016-10-06T13:05:18Z</time></trkpt>
<trkpt lat="24.435339" lon="111.032103">
<time>2016-10-06T13:05:19Z</time></trkpt>
<trkpt lat="24.435379" lon="111.031943">
<time>2016-10-06T13:05:20Z</time></trkpt>
<trkpt lat="24.435439" lon="111.031784">
<time>2016-10-06T13:05:21Z</time></trkpt>
<trkpt lat="24.43551" lon="111.031625">
<time>2016-10-06T13:05:22Z</time></trkpt>
<trkpt lat="24.43559" lon="111.031455">
<time>2016-10-06T13:05:23Z</time></trkpt>
<trkpt lat="24.435721" lon="111.031236">
<time>2016-10-06T13:05:24Z</time></trkpt>
<trkpt lat="24.435801" lon="111.031096">
<time>2016-10-06T13:05:25Z</time></trkpt>
<trkpt lat="24.435912" lon="111.030927">
<time>2016-10-06T13:05:26Z</time></trkpt>
<trkpt lat="24.436052" lon="111.030738">
<time>2016-10-06T13:05:27Z</time></trkpt>
<trkpt lat="24.436162" lon="111.030598">
<time>2016-10-06T13:05:28Z</time></trkpt>
<trkpt lat="24.436353" lon="111.030359">
<time>2016-10-06T13:05:29Z</time></trkpt>
<trkpt lat="24.436614" lon="111.03005">
<time>2016-10-06T13:05:30Z</time></trkpt>
<trkpt lat="24.436925" lon="111.029682">
<time>2016-10-06T13:05:31Z</time></trkpt>
<trkpt lat="24.437045" lon="111.029542">
<time>2016-10-06T13:05:32Z</time></trkpt>
<trkpt lat="24.437196" lon="111.029363">
<time>2016-10-06T13:05:33Z</time></trkpt>
<trkpt lat="24.437346" lon="111.029173">
<time>2016-10-06T13:05:34Z</time></trkpt>
<trkpt lat="24.437447" lon="111.029054">
<time>2016-10-06T13:05:35Z</time></trkpt>
<trkpt lat="24.437527" lon="111.028934">
<time>2016-10-06T13:05:36Z</time></trkpt>
<trkpt lat="24.437597" lon="111.028835">
<time>2016-10-06T13:05:37Z</time></trkpt>
<trkpt lat="24.437658" lon="111.028745">
<time>2016-10-06T13:05:38Z</time></trkpt>
<trkpt lat="24.437708" lon="111.028655">
<time>2016-10-06T13:05:39Z</time></trkpt>
<trkpt lat="24.437768" lon="111.028556">
<time>2016-10-06T13:05:40Z</time></trkpt>
<trkpt lat="24.437849" lon="111.028376">
<time>2016-10-06T13:05:41Z</time></trkpt>
<trkpt lat="24.437909" lon="111.028237">
<time>2016-10-06T13:05:42Z</time></trkpt>
<trkpt lat="24.437959" lon="111.028097">
<time>2016-10-06T13:05:43Z</time></trkpt>
<trkpt lat="24.43802" lon="111.027888">
<time>2016-10-06T13:05:44Z</time></trkpt>
<trkpt lat="24.43808" lon="111.027659">
<time>2016-10-06T13:05:45Z</time></trkpt>
<trkpt lat="24.438131" lon="111.02746">
<time>2016-10-06T13:05:46Z</time></trkpt>
<trkpt lat="24.438161" lon="111.0273">
<time>2016-10-06T13:05:47Z</time></trkpt>
<trkpt lat="24.438192" lon="111.027131">
<time>2016-10-06T13:05:48Z</time></trkpt>
<trkpt lat="24.438253" lon="111.026862">
<time>2016-10-06T13:05:49Z</time></trkpt>
<trkpt lat="24.438293" lon="111.026712">
<time>2016-10-06T13:05:50Z</time></trkpt>
<trkpt lat="24.438344" lon="111.026463">
<time>2016-10-06T13:05:51Z</time></trkpt>
<trkpt lat="24.438424" lon="111.026145">
<time>2016-10-06T13:05:52Z</time></trkpt>
<trkpt lat="24.438516" lon="111.025716">
<time>2016-10-06T13:05:53Z</time></trkpt>
<trkpt lat="24.438607" lon="111.025298">
<time>2016-10-06T13:05:54Z</time></trkpt>
<trkpt lat="24.438647" lon="111.025128">
<time>2016-10-06T13:05:55Z</time></trkpt>
<trkpt lat="24.438728" lon="111.02479">
<time>2016-10-06T13:05:56Z</time></trkpt>
<trkpt lat="24.438769" lon="111.02465">
<time>2016-10-06T13:05:57Z</time></trkpt>
<trkpt lat="24.438809" lon="111.024521">
<time>2016-10-06T13:05:58Z</time></trkpt>
<trkpt lat="24.438889" lon="111.024331">
<time>2016-10-06T13:05:59Z</time></trkpt>
<trkpt lat="24.43897" lon="111.024162">
<time>2016-10-06T13:06:00Z</time></trkpt>
<trkpt lat="24.43903" lon="111.024052">
<time>2016-10-06T13:06:01Z</time></trkpt>
<trkpt lat="24.439091" lon="111.023943">
<time>2016-10-06T13:06:02Z</time></trkpt>
<trkpt lat="24.439161" lon="111.023853">
<time>2016-10-06T13:06:03Z</time></trkpt>
<trkpt lat="24.439241" lon="111.023754">
<time>2016-10-06T13:06:04Z</time></trkpt>
<trkpt lat="24.439311" lon="111.023664">
<time>2016-10-06T13:06:05Z</time></trkpt>
<trkpt lat="24.439382" lon="111.023584">
<time>2016-10-06T13:06:06Z</time></trkpt>
<trkpt lat="24.439462" lon="111.023504">
<time>2016-10-06T13:06:07Z</time></trkpt>
<trkpt lat="24.439552" lon="111.023435">
<time>2016-10-06T13:06:08Z</time></trkpt>
<trkpt lat="24.439652" lon="111.023345">
<time>2016-10-06T13:06:09Z</time></trkpt>
<trkpt lat="24.439742" lon="111.023275">
<time>2016-10-06T13:06:10Z</time></trkpt>
<trkpt lat="24.439833" lon="111.023216">
<time>2016-10-06T13:06:11Z</time></trkpt>
<trkpt lat="24.439883" lon="111.023186">
<time>2016-10-06T13:06:12Z</time></trkpt>
<trkpt lat="24.439943" lon="111.023146">
<time>2016-10-06T13:06:13Z</time></trkpt>
<trkpt lat="24.440073" lon="111.023086">
<time>2016-10-06T13:06:14Z</time></trkpt>
<trkpt lat="24.440263" lon="111.022986">
<time>2016-10-06T13:06:15Z</time></trkpt>
<trkpt lat="24.440714" lon="111.022747">
<time>2016-10-06T13:06:16Z</time></trkpt>
<trkpt lat="24.441065" lon="111.022558">
<time>2016-10-06T13:06:17Z</time></trkpt>
<trkpt lat="24.441435" lon="111.022359">
<time>2016-10-06T13:06:18Z</time></trkpt>
<trkpt lat="24.441936" lon="111.02209">
<time>2016-10-06T13:06:19Z</time></trkpt>
<trkpt lat="24.442337" lon="111.02188">
<time>2016-10-06T13:06:20Z</time></trkpt>
<trkpt lat="24.442637" lon="111.021711">
<time>2016-10-06T13:06:21Z</time></trkpt>
<trkpt lat="24.442888" lon="111.021582">
<time>2016-10-06T13:06:22Z</time></trkpt>
<trkpt lat="24.443038" lon="111.021502">
<time>2016-10-06T13:06:23Z</time></trkpt>
<trkpt lat="24.443298" lon="111.021382">
<time>2016-10-06T13:06:24Z</time></trkpt>
<trkpt lat="24.443599" lon="111.021223">
<time>2016-10-06T13:06:25Z</time></trkpt>
<trkpt lat="24.443829" lon="111.021103">
<time>2016-10-06T13:06:26Z</time></trkpt>
<trkpt lat="24.44433" lon="111.020834">
<time>2016-10-06T13:06:27Z</time></trkpt>
<trkpt lat="24.444651" lon="111.020675">
<time>2016-10-06T13:06:28Z</time></trkpt>
<trkpt lat="24.445151" lon="111.020406">
<time>2016-10-06T13:06:29Z</time></trkpt>
<trkpt lat="24.446043" lon="111.019938">
<time>2016-10-06T13:06:30Z</time></trkpt>
<trkpt lat="24.446303" lon="111.019798">
<time>2016-10-06T13:06:31Z</time></trkpt>
<trkpt lat="24.446744" lon="111.019569">
<time>2016-10-06T13:06:32Z</time></trkpt>
<trkpt lat="24.447465" lon="111.019191">
<time>2016-10-06T13:06:33Z</time></trkpt>
<trkpt lat="24.447956" lon="111.018922">
<time>2016-10-06T13:06:34Z</time></trkpt>
<trkpt lat="24.448146" lon="111.018812">
<time>2016-10-06T13:06:35Z</time></trkpt>
<trkpt lat="24.448297" lon="111.018732">
<time>2016-10-06T13:06:36Z</time></trkpt>
<trkpt lat="24.448397" lon="111.018663">
<time>2016-10-06T13:06:37Z</time></trkpt>
<trkpt lat="24.448477" lon="111.018603">
<time>2016-10-06T13:06:38Z</time></trkpt>
<trkpt lat="24.448547" lon="111.018543">
<time>2016-10-06T13:06:39Z</time></trkpt>
<trkpt lat="24.448638" lon="111.018463">
<time>2016-10-06T13:06:40Z</time></trkpt>
<trkpt lat="24.448718" lon="111.018384">
<time>2016-10-06T13:06:41Z</time></trkpt>
<trkpt lat="24.448788" lon="111.018314">
<time>2016-10-06T13:06:42Z</time></trkpt>
<trkpt lat="24.448868" lon="111.018214">
<time>2016-10-06T13:06:43Z</time></trkpt>
<trkpt lat="24.448959" lon="111.018095">
<time>2016-10-06T13:06:44Z</time></trkpt>
<trkpt lat="24.449039" lon="111.017985">
<time>2016-10-06T13:06:45Z</time></trkpt>
<trkpt lat="24.449099" lon="111.017866">
<time>2016-10-06T13:06:46Z</time></trkpt>
<trkpt lat="24.44916" lon="111.017756">
<time>2016-10-06T13:06:47Z</time></trkpt>
<trkpt lat="24.44925" lon="111.017577">
<time>2016-10-06T13:06:48Z</time></trkpt>
<trkpt lat="24.449381" lon="111.017298">
<time>2016-10-06T13:06:49Z</time></trkpt>
<trkpt lat="24.449472" lon="111.017109">
<time>2016-10-06T13:06:50Z</time></trkpt>
<trkpt lat="24.449935" lon="111.016023">
<time>2016-10-06T13:06:51Z</time></trkpt>
<trkpt lat="24.450237" lon="111.015356">
<time>2016-10-06T13:06:52Z</time></trkpt>
<trkpt lat="24.450519" lon="111.014728">
<time>2016-10-06T13:06:53Z</time></trkpt>
<trkpt lat="24.450589" lon="111.014549">
<time>2016-10-06T13:06:54Z</time></trkpt>
<trkpt lat="24.45067" lon="111.01433">
<time>2016-10-06T13:06:55Z</time></trkpt>
<trkpt lat="24.45073" lon="111.01417">
<time>2016-10-06T13:06:56Z</time></trkpt>
<trkpt lat="24.450801" lon="111.013961">
<time>2016-10-06T13:06:57Z</time></trkpt>
<trkpt lat="24.450872" lon="111.013722">
<time>2016-10-06T13:06:58Z</time></trkpt>
<trkpt lat="24.450942" lon="111.013483">
<time>2016-10-06T13:06:59Z</time></trkpt>
<trkpt lat="24.451034" lon="111.013065">
<time>2016-10-06T13:07:00Z</time></trkpt>
<trkpt lat="24.451125" lon="111.012666">
<time>2016-10-06T13:07:01Z</time></trkpt>
<trkpt lat="24.451266" lon="111.012089">
<time>2016-10-06T13:07:02Z</time></trkpt>
<trkpt lat="24.451489" lon="111.011113">
<time>2016-10-06T13:07:03Z</time></trkpt>
<trkpt lat="24.451631" lon="111.010445">
<time>2016-10-06T13:07:04Z</time></trkpt>
<trkpt lat="24.451743" lon="111.009937">
<time>2016-10-06T13:07:05Z</time></trkpt>
<trkpt lat="24.451996" lon="111.008832">
<time>2016-10-06T13:07:06Z</time></trkpt>
<trkpt lat="24.45226" lon="111.007637">
<time>2016-10-06T13:07:07Z</time></trkpt>
<trkpt lat="24.452483" lon="111.006661">
<time>2016-10-06T13:07:08Z</time></trkpt>
<trkpt lat="24.452675" lon="111.005784">
<time>2016-10-06T13:07:09Z</time></trkpt>
<trkpt lat="24.452817" lon="111.005197">
<time>2016-10-06T13:07:10Z</time></trkpt>
<trkpt lat="24.452919" lon="111.004739">
<time>2016-10-06T13:07:11Z</time></trkpt>
<trkpt lat="24.45302" lon="111.004271">
<time>2016-10-06T13:07:12Z</time></trkpt>
<trkpt lat="24.453172" lon="111.003613">
<time>2016-10-06T13:07:13Z</time></trkpt>
<trkpt lat="24.453273" lon="111.003195">
<time>2016-10-06T13:07:14Z</time></trkpt>
<trkpt lat="24.453365" lon="111.002777">
<time>2016-10-06T13:07:15Z</time></trkpt>
<trkpt lat="24.453537" lon="111.00198">
<time>2016-10-06T13:07:16Z</time></trkpt>
<trkpt lat="24.453669" lon="111.001403">
<time>2016-10-06T13:07:17Z</time></trkpt>
<trkpt lat="24.454033" lon="110.999979">
<time>2016-10-06T13:07:18Z</time></trkpt>
<trkpt lat="24.454602" lon="110.99714">
<time>2016-10-06T13:07:19Z</time></trkpt>
<trkpt lat="24.454602" lon="110.99714">
<time>2016-10-06T13:07:20Z</time></trkpt>
<trkpt lat="24.454853" lon="110.996682">
<time>2016-10-06T13:07:21Z</time></trkpt>
<trkpt lat="24.455537" lon="110.995467">
<time>2016-10-06T13:07:22Z</time></trkpt>
<trkpt lat="24.4561" lon="110.994461">
<time>2016-10-06T13:07:23Z</time></trkpt>
<trkpt lat="24.456191" lon="110.994292">
<time>2016-10-06T13:07:24Z</time></trkpt>
<trkpt lat="24.456563" lon="110.993545">
<time>2016-10-06T13:07:25Z</time></trkpt>
<trkpt lat="24.457156" lon="110.992679">
<time>2016-10-06T13:07:26Z</time></trkpt>
<trkpt lat="24.457397" lon="110.9925">
<time>2016-10-06T13:07:27Z</time></trkpt>
<trkpt lat="24.457507" lon="110.99242">
<time>2016-10-06T13:07:28Z</time></trkpt>
<trkpt lat="24.457627" lon="110.99235">
<time>2016-10-06T13:07:29Z</time></trkpt>
<trkpt lat="24.457677" lon="110.99233">
<time>2016-10-06T13:07:30Z</time></trkpt>
<trkpt lat="24.457998" lon="110.992191">
<time>2016-10-06T13:07:31Z</time></trkpt>
<trkpt lat="24.458048" lon="110.992171">
<time>2016-10-06T13:07:32Z</time></trkpt>
<trkpt lat="24.458118" lon="110.992161">
<time>2016-10-06T13:07:33Z</time></trkpt>
<trkpt lat="24.458158" lon="110.992151">
<time>2016-10-06T13:07:34Z</time></trkpt>
<trkpt lat="24.458228" lon="110.992111">
<time>2016-10-06T13:07:35Z</time></trkpt>
<trkpt lat="24.458278" lon="110.992081">
<time>2016-10-06T13:07:36Z</time></trkpt>
<trkpt lat="24.458298" lon="110.992061">
<time>2016-10-06T13:07:37Z</time></trkpt>
<trkpt lat="24.458318" lon="110.992051">
<time>2016-10-06T13:07:38Z</time></trkpt>
<trkpt lat="24.458328" lon="110.992051">
<time>2016-10-06T13:07:39Z</time></trkpt>
<trkpt lat="24.458338" lon="110.992041">
<time>2016-10-06T13:07:40Z</time></trkpt>
<trkpt lat="24.458428" lon="110.992022">
<time>2016-10-06T13:07:41Z</time></trkpt>
<trkpt lat="24.458488" lon="110.992002">
<time>2016-10-06T13:07:42Z</time></trkpt>
<trkpt lat="24.458608" lon="110.991952">
<time>2016-10-06T13:07:43Z</time></trkpt>
<trkpt lat="24.458699" lon="110.991902">
<time>2016-10-06T13:07:44Z</time></trkpt>
<trkpt lat="24.458739" lon="110.991892">
<time>2016-10-06T13:07:45Z</time></trkpt>
<trkpt lat="24.458819" lon="110.991862">
<time>2016-10-06T13:07:46Z</time></trkpt>
<trkpt lat="24.458879" lon="110.991842">
<time>2016-10-06T13:07:47Z</time></trkpt>
<trkpt lat="24.458929" lon="110.991822">
<time>2016-10-06T13:07:48Z</time></trkpt>
<trkpt lat="24.458959" lon="110.991812">
<time>2016-10-06T13:07:49Z</time></trkpt>
<trkpt lat="24.458999" lon="110.991783">
<time>2016-10-06T13:07:50Z</time></trkpt>
<trkpt lat="24.459049" lon="110.991743">
<time>2016-10-06T13:07:51Z</time></trkpt>
<trkpt lat="24.459099" lon="110.991723">
<time>2016-10-06T13:07:52Z</time></trkpt>
<trkpt lat="24.459149" lon="110.991713">
<time>2016-10-06T13:07:53Z</time></trkpt>
<trkpt lat="24.45944" lon="110.991593">
<time>2016-10-06T13:07:54Z</time></trkpt>
<trkpt lat="24.460021" lon="110.991364">
<time>2016-10-06T13:07:55Z</time></trkpt>
<trkpt lat="24.460101" lon="110.991334">
<time>2016-10-06T13:07:56Z</time></trkpt>
<trkpt lat="24.460151" lon="110.991314">
<time>2016-10-06T13:07:57Z</time></trkpt>
<trkpt lat="24.460231" lon="110.991275">
<time>2016-10-06T13:07:58Z</time></trkpt>
<trkpt lat="24.460351" lon="110.991215">
<time>2016-10-06T13:07:59Z</time></trkpt>
<trkpt lat="24.460411" lon="110.991195">
<time>2016-10-06T13:08:00Z</time></trkpt>
<trkpt lat="24.460551" lon="110.991165">
<time>2016-10-06T13:08:01Z</time></trkpt>
<trkpt lat="24.460611" lon="110.991135">
<time>2016-10-06T13:08:02Z</time></trkpt>
<trkpt lat="24.460732" lon="110.991075">
<time>2016-10-06T13:08:03Z</time></trkpt>
<trkpt lat="24.460812" lon="110.991036">
<time>2016-10-06T13:08:04Z</time></trkpt>
<trkpt lat="24.460852" lon="110.991016">
<time>2016-10-06T13:08:05Z</time></trkpt>
<trkpt lat="24.460912" lon="110.990996">
<time>2016-10-06T13:08:06Z</time></trkpt>
<trkpt lat="24.460922" lon="110.990996">
<time>2016-10-06T13:08:07Z</time></trkpt>
<trkpt lat="24.460962" lon="110.990986">
<time>2016-10-06T13:08:08Z</time></trkpt>
<trkpt lat="24.461002" lon="110.990966">
<time>2016-10-06T13:08:09Z</time></trkpt>
<trkpt lat="24.461092" lon="110.990916">
<time>2016-10-06T13:08:10Z</time></trkpt>
<trkpt lat="24.461312" lon="110.990826">
<time>2016-10-06T13:08:11Z</time></trkpt>
<trkpt lat="24.461352" lon="110.990806">
<time>2016-10-06T13:08:12Z</time></trkpt>
<trkpt lat="24.461393" lon="110.990787">
<time>2016-10-06T13:08:13Z</time></trkpt>
<trkpt lat="24.461443" lon="110.990777">
<time>2016-10-06T13:08:14Z</time></trkpt>
<trkpt lat="24.461483" lon="110.990757">
<time>2016-10-06T13:08:15Z</time></trkpt>
<trkpt lat="24.461523" lon="110.990737">
<time>2016-10-06T13:08:16Z</time></trkpt>
<trkpt lat="24.461593" lon="110.990697">
<time>2016-10-06T13:08:17Z</time></trkpt>
<trkpt lat="24.461893" lon="110.990567">
<time>2016-10-06T13:08:18Z</time></trkpt>
<trkpt lat="24.462023" lon="110.990518">
<time>2016-10-06T13:08:19Z</time></trkpt>
<trkpt lat="24.462144" lon="110.990458">
<time>2016-10-06T13:08:20Z</time></trkpt>
<trkpt lat="24.462204" lon="110.990438">
<time>2016-10-06T13:08:21Z</time></trkpt>
<trkpt lat="24.462284" lon="110.990408">
<time>2016-10-06T13:08:22Z</time></trkpt>
<trkpt lat="24.462364" lon="110.990378">
<time>2016-10-06T13:08:23Z</time></trkpt>
<trkpt lat="24.462404" lon="110.990358">
<time>2016-10-06T13:08:24Z</time></trkpt>
<trkpt lat="24.462544" lon="110.990298">
<time>2016-10-06T13:08:25Z</time></trkpt>
<trkpt lat="24.462785" lon="110.990209">
<time>2016-10-06T13:08:26Z</time></trkpt>
<trkpt lat="24.463065" lon="110.990089">
<time>2016-10-06T13:08:27Z</time></trkpt>
<trkpt lat="24.463145" lon="110.990059">
<time>2016-10-06T13:08:28Z</time></trkpt>
<trkpt lat="24.463235" lon="110.99004">
<time>2016-10-06T13:08:29Z</time></trkpt>
<trkpt lat="24.463275" lon="110.99002">
<time>2016-10-06T13:08:30Z</time></trkpt>
<trkpt lat="24.463345" lon="110.98999">
<time>2016-10-06T13:08:31Z</time></trkpt>
<trkpt lat="24.463455" lon="110.98994">
<time>2016-10-06T13:08:32Z</time></trkpt>
<trkpt lat="24.463616" lon="110.98986">
<time>2016-10-06T13:08:33Z</time></trkpt>
<trkpt lat="24.463716" lon="110.98982">
<time>2016-10-06T13:08:34Z</time></trkpt>
<trkpt lat="24.463786" lon="110.989781">
<time>2016-10-06T13:08:35Z</time></trkpt>
<trkpt lat="24.463916" lon="110.989691">
<time>2016-10-06T13:08:36Z</time></trkpt>
<trkpt lat="24.464027" lon="110.989601">
<time>2016-10-06T13:08:37Z</time></trkpt>
<trkpt lat="24.464087" lon="110.989552">
<time>2016-10-06T13:08:38Z</time></trkpt>
<trkpt lat="24.464117" lon="110.989512">
<time>2016-10-06T13:08:39Z</time></trkpt>
<trkpt lat="24.464217" lon="110.989402">
<time>2016-10-06T13:08:40Z</time></trkpt>
<trkpt lat="24.464278" lon="110.989322">
<time>2016-10-06T13:08:41Z</time></trkpt>
<trkpt lat="24.464368" lon="110.989203">
<time>2016-10-06T13:08:42Z</time></trkpt>
<trkpt lat="24.464539" lon="110.988964">
<time>2016-10-06T13:08:43Z</time></trkpt>
<trkpt lat="24.464599" lon="110.988884">
<time>2016-10-06T13:08:44Z</time></trkpt>
<trkpt lat="24.465051" lon="110.988227">
<time>2016-10-06T13:08:45Z</time></trkpt>
<trkpt lat="24.465453" lon="110.987689">
<time>2016-10-06T13:08:46Z</time></trkpt>
<trkpt lat="24.465543" lon="110.98757">
<time>2016-10-06T13:08:47Z</time></trkpt>
<trkpt lat="24.465623" lon="110.98744">
<time>2016-10-06T13:08:48Z</time></trkpt>
<trkpt lat="24.465694" lon="110.987341">
<time>2016-10-06T13:08:49Z</time></trkpt>
<trkpt lat="24.465754" lon="110.987241">
<time>2016-10-06T13:08:50Z</time></trkpt>
<trkpt lat="24.465865" lon="110.987092">
<time>2016-10-06T13:08:51Z</time></trkpt>
<trkpt lat="24.466035" lon="110.986863">
<time>2016-10-06T13:08:52Z</time></trkpt>
<trkpt lat="24.466186" lon="110.986673">
<time>2016-10-06T13:08:53Z</time></trkpt>
<trkpt lat="24.466457" lon="110.986275">
<time>2016-10-06T13:08:54Z</time></trkpt>
<trkpt lat="24.466588" lon="110.986096">
<time>2016-10-06T13:08:55Z</time></trkpt>
<trkpt lat="24.466819" lon="110.985777">
<time>2016-10-06T13:08:56Z</time></trkpt>
<trkpt lat="24.46705" lon="110.985458">
<time>2016-10-06T13:08:57Z</time></trkpt>
<trkpt lat="24.467261" lon="110.98518">
<time>2016-10-06T13:08:58Z</time></trkpt>
<trkpt lat="24.468496" lon="110.983437">
<time>2016-10-06T13:08:59Z</time></trkpt>
<trkpt lat="24.468988" lon="110.982799">
<time>2016-10-06T13:09:00Z</time></trkpt>
<trkpt lat="24.469038" lon="110.98273">
<time>2016-10-06T13:09:01Z</time></trkpt>
<trkpt lat="24.46927" lon="110.982281">
<time>2016-10-06T13:09:02Z</time></trkpt>
<trkpt lat="24.46949" lon="110.982072">
<time>2016-10-06T13:09:03Z</time></trkpt>
<trkpt lat="24.469721" lon="110.981813">
<time>2016-10-06T13:09:04Z</time></trkpt>
<trkpt lat="24.470324" lon="110.980987">
<time>2016-10-06T13:09:05Z</time></trkpt>
<trkpt lat="24.471127" lon="110.979811">
<time>2016-10-06T13:09:06Z</time></trkpt>
<trkpt lat="24.472001" lon="110.978576">
<time>2016-10-06T13:09:07Z</time></trkpt>
<trkpt lat="24.472232" lon="110.978248">
<time>2016-10-06T13:09:08Z</time></trkpt>
<trkpt lat="24.472232" lon="110.978248">
<time>2016-10-06T13:09:09Z</time></trkpt>
<trkpt lat="24.472353" lon="110.978009">
<time>2016-10-06T13:09:10Z</time></trkpt>
<trkpt lat="24.472463" lon="110.977789">
<time>2016-10-06T13:09:11Z</time></trkpt>
<trkpt lat="24.472554" lon="110.97756">
<time>2016-10-06T13:09:12Z</time></trkpt>
<trkpt lat="24.472564" lon="110.977521">
<time>2016-10-06T13:09:13Z</time></trkpt>
<trkpt lat="24.472645" lon="110.977242">
<time>2016-10-06T13:09:14Z</time></trkpt>
<trkpt lat="24.472726" lon="110.976923">
<time>2016-10-06T13:09:15Z</time></trkpt>
<trkpt lat="24.472898" lon="110.976216">
<time>2016-10-06T13:09:16Z</time></trkpt>
<trkpt lat="24.472979" lon="110.975927">
<time>2016-10-06T13:09:17Z</time></trkpt>
<trkpt lat="24.473059" lon="110.975738">
<time>2016-10-06T13:09:18Z</time></trkpt>
<trkpt lat="24.47314" lon="110.975548">
<time>2016-10-06T13:09:19Z</time></trkpt>
<trkpt lat="24.473281" lon="110.97527">
<time>2016-10-06T13:09:20Z</time></trkpt>
<trkpt lat="24.473442" lon="110.975031">
<time>2016-10-06T13:09:21Z</time></trkpt>
<trkpt lat="24.473592" lon="110.974841">
<time>2016-10-06T13:09:22Z</time></trkpt>
<trkpt lat="24.473713" lon="110.974722">
<time>2016-10-06T13:09:23Z</time></trkpt>
<trkpt lat="24.473913" lon="110.974523">
<time>2016-10-06T13:09:24Z</time></trkpt>
<trkpt lat="24.474074" lon="110.974393">
<time>2016-10-06T13:09:25Z</time></trkpt>
<trkpt lat="24.474194" lon="110.974313">
<time>2016-10-06T13:09:26Z</time></trkpt>
<trkpt lat="24.474344" lon="110.974224">
<time>2016-10-06T13:09:27Z</time></trkpt>
<trkpt lat="24.474965" lon="110.973835">
<time>2016-10-06T13:09:28Z</time></trkpt>
<trkpt lat="24.475356" lon="110.973626">
<time>2016-10-06T13:09:29Z</time></trkpt>
<trkpt lat="24.476568" lon="110.972889">
<time>2016-10-06T13:09:30Z</time></trkpt>
<trkpt lat="24.47743" lon="110.972351">
<time>2016-10-06T13:09:31Z</time></trkpt>
<trkpt lat="24.477861" lon="110.972102">
<time>2016-10-06T13:09:32Z</time></trkpt>
<trkpt lat="24.478151" lon="110.971952">
<time>2016-10-06T13:09:33Z</time></trkpt>
<trkpt lat="24.478361" lon="110.971863">
<time>2016-10-06T13:09:34Z</time></trkpt>
<trkpt lat="24.478472" lon="110.971823">
<time>2016-10-06T13:09:35Z</time></trkpt>
<trkpt lat="24.478752" lon="110.971733">
<time>2016-10-06T13:09:36Z</time></trkpt>
<trkpt lat="24.479032" lon="110.971683">
<time>2016-10-06T13:09:37Z</time></trkpt>
<trkpt lat="24.479332" lon="110.971644">
<time>2016-10-06T13:09:38Z</time></trkpt>
<trkpt lat="24.479532" lon="110.971614">
<time>2016-10-06T13:09:39Z</time></trkpt>
<trkpt lat="24.480733" lon="110.971454">
<time>2016-10-06T13:09:40Z</time></trkpt>
<trkpt lat="24.481954" lon="110.971285">
<time>2016-10-06T13:09:41Z</time></trkpt>
<trkpt lat="24.483094" lon="110.971125">
<time>2016-10-06T13:09:42Z</time></trkpt>
<trkpt lat="24.483505" lon="110.971056">
<time>2016-10-06T13:09:43Z</time></trkpt>
<trkpt lat="24.483705" lon="110.971016">
<time>2016-10-06T13:09:44Z</time></trkpt>
<trkpt lat="24.483935" lon="110.970966">
<time>2016-10-06T13:09:45Z</time></trkpt>
<trkpt lat="24.484115" lon="110.970916">
<time>2016-10-06T13:09:46Z</time></trkpt>
<trkpt lat="24.484315" lon="110.970866">
<time>2016-10-06T13:09:47Z</time></trkpt>
<trkpt lat="24.484956" lon="110.970657">
<time>2016-10-06T13:09:48Z</time></trkpt>
<trkpt lat="24.484976" lon="110.970647">
<time>2016-10-06T13:09:49Z</time></trkpt>
<trkpt lat="24.486157" lon="110.970249">
<time>2016-10-06T13:09:50Z</time></trkpt>
<trkpt lat="24.48824" lon="110.969561">
<time>2016-10-06T13:09:51Z</time></trkpt>
<trkpt lat="24.489871" lon="110.969003">
<time>2016-10-06T13:09:52Z</time></trkpt>
<trkpt lat="24.491383" lon="110.968545">
<time>2016-10-06T13:09:53Z</time></trkpt>
<trkpt lat="24.492204" lon="110.968296">
<time>2016-10-06T13:09:54Z</time></trkpt>
<trkpt lat="24.493075" lon="110.968017">
<time>2016-10-06T13:09:55Z</time></trkpt>
<trkpt lat="24.493445" lon="110.967897">
<time>2016-10-06T13:09:56Z</time></trkpt>
<trkpt lat="24.493485" lon="110.967877">
<time>2016-10-06T13:09:57Z</time></trkpt>
<trkpt lat="24.493845" lon="110.967748">
<time>2016-10-06T13:09:58Z</time></trkpt>
<trkpt lat="24.494066" lon="110.967668">
<time>2016-10-06T13:09:59Z</time></trkpt>
<trkpt lat="24.494476" lon="110.967499">
<time>2016-10-06T13:10:00Z</time></trkpt>
<trkpt lat="24.494997" lon="110.96727">
<time>2016-10-06T13:10:01Z</time></trkpt>
<trkpt lat="24.495207" lon="110.9672">
<time>2016-10-06T13:10:02Z</time></trkpt>
<trkpt lat="24.495437" lon="110.96712">
<time>2016-10-06T13:10:03Z</time></trkpt>
<trkpt lat="24.495618" lon="110.96706">
<time>2016-10-06T13:10:04Z</time></trkpt>
<trkpt lat="24.495948" lon="110.966971">
<time>2016-10-06T13:10:05Z</time></trkpt>
<trkpt lat="24.496598" lon="110.966801">
<time>2016-10-06T13:10:06Z</time></trkpt>
<trkpt lat="24.49788" lon="110.966453">
<time>2016-10-06T13:10:07Z</time></trkpt>
<trkpt lat="24.49831" lon="110.966343">
<time>2016-10-06T13:10:08Z</time></trkpt>
<trkpt lat="24.499531" lon="110.966024">
<time>2016-10-06T13:10:09Z</time></trkpt>
<trkpt lat="24.499991" lon="110.965905">
<time>2016-10-06T13:10:10Z</time></trkpt>
<trkpt lat="24.500141" lon="110.965865">
<time>2016-10-06T13:10:11Z</time></trkpt>
<trkpt lat="24.500592" lon="110.965745">
<time>2016-10-06T13:10:12Z</time></trkpt>
<trkpt lat="24.503965" lon="110.964868">
<time>2016-10-06T13:10:13Z</time></trkpt>
<trkpt lat="24.506066" lon="110.96433">
<time>2016-10-06T13:10:14Z</time></trkpt>
<trkpt lat="24.507708" lon="110.963912">
<time>2016-10-06T13:10:15Z</time></trkpt>
<trkpt lat="24.508198" lon="110.963762">
<time>2016-10-06T13:10:16Z</time></trkpt>
<trkpt lat="24.508519" lon="110.963643">
<time>2016-10-06T13:10:17Z</time></trkpt>
<trkpt lat="24.508809" lon="110.963523">
<time>2016-10-06T13:10:18Z</time></trkpt>
<trkpt lat="24.50923" lon="110.963304">
<time>2016-10-06T13:10:19Z</time></trkpt>
<trkpt lat="24.509981" lon="110.962885">
<time>2016-10-06T13:10:20Z</time></trkpt>
<trkpt lat="24.510712" lon="110.962477">
<time>2016-10-06T13:10:21Z</time></trkpt>
<trkpt lat="24.511513" lon="110.962068">
<time>2016-10-06T13:10:22Z</time></trkpt>
<trkpt lat="24.512124" lon="110.961759">
<time>2016-10-06T13:10:23Z</time></trkpt>
<trkpt lat="24.512835" lon="110.961381">
<time>2016-10-06T13:10:24Z</time></trkpt>
<trkpt lat="24.513326" lon="110.961112">
<time>2016-10-06T13:10:25Z</time></trkpt>
<trkpt lat="24.513556" lon="110.960952">
<time>2016-10-06T13:10:26Z</time></trkpt>
<trkpt lat="24.513767" lon="110.960773">
<time>2016-10-06T13:10:27Z</time></trkpt>
<trkpt lat="24.513957" lon="110.960574">
<time>2016-10-06T13:10:28Z</time></trkpt>
<trkpt lat="24.514268" lon="110.960205">
<time>2016-10-06T13:10:29Z</time></trkpt>
<trkpt lat="24.514459" lon="110.959956">
<time>2016-10-06T13:10:30Z</time></trkpt>
<trkpt lat="24.514961" lon="110.959278">
<time>2016-10-06T13:10:31Z</time></trkpt>
<trkpt lat="24.515663" lon="110.958342">
<time>2016-10-06T13:10:32Z</time></trkpt>
<trkpt lat="24.516677" lon="110.956936">
<time>2016-10-06T13:10:33Z</time></trkpt>
<trkpt lat="24.51997" lon="110.951754">
<time>2016-10-06T13:10:34Z</time></trkpt>
<trkpt lat="24.520732" lon="110.950538">
<time>2016-10-06T13:10:35Z</time></trkpt>
<trkpt lat="24.520943" lon="110.950209">
<time>2016-10-06T13:10:36Z</time></trkpt>
<trkpt lat="24.521696" lon="110.949003">
<time>2016-10-06T13:10:37Z</time></trkpt>
<trkpt lat="24.522649" lon="110.947478">
<time>2016-10-06T13:10:38Z</time></trkpt>
<trkpt lat="24.52289" lon="110.947099">
<time>2016-10-06T13:10:39Z</time></trkpt>
<trkpt lat="24.523121" lon="110.94678">
<time>2016-10-06T13:10:40Z</time></trkpt>
<trkpt lat="24.523271" lon="110.946591">
<time>2016-10-06T13:10:41Z</time></trkpt>
<trkpt lat="24.523542" lon="110.946322">
<time>2016-10-06T13:10:42Z</time></trkpt>
<trkpt lat="24.523793" lon="110.946102">
<time>2016-10-06T13:10:43Z</time></trkpt>
<trkpt lat="24.524173" lon="110.945773">
<time>2016-10-06T13:10:44Z</time></trkpt>
<trkpt lat="24.526057" lon="110.944238">
<time>2016-10-06T13:10:45Z</time></trkpt>
<trkpt lat="24.528491" lon="110.942264">
<time>2016-10-06T13:10:46Z</time></trkpt>
<trkpt lat="24.528761" lon="110.942084">
<time>2016-10-06T13:10:47Z</time></trkpt>
<trkpt lat="24.528901" lon="110.942025">
<time>2016-10-06T13:10:48Z</time></trkpt>
<trkpt lat="24.529072" lon="110.941955">
<time>2016-10-06T13:10:49Z</time></trkpt>
<trkpt lat="24.529262" lon="110.941895">
<time>2016-10-06T13:10:50Z</time></trkpt>
<trkpt lat="24.529432" lon="110.941865">
<time>2016-10-06T13:10:51Z</time></trkpt>
<trkpt lat="24.529582" lon="110.941835">
<time>2016-10-06T13:10:52Z</time></trkpt>
<trkpt lat="24.529742" lon="110.941825">
<time>2016-10-06T13:10:53Z</time></trkpt>
<trkpt lat="24.530292" lon="110.941815">
<time>2016-10-06T13:10:54Z</time></trkpt>
<trkpt lat="24.531442" lon="110.941795">
<time>2016-10-06T13:10:55Z</time></trkpt>
<trkpt lat="24.533052" lon="110.941775">
<time>2016-10-06T13:10:56Z</time></trkpt>
<trkpt lat="24.533312" lon="110.941765">
<time>2016-10-06T13:10:57Z</time></trkpt>
<trkpt lat="24.533472" lon="110.941735">
<time>2016-10-06T13:10:58Z</time></trkpt>
<trkpt lat="24.533703" lon="110.941685">
<time>2016-10-06T13:10:59Z</time></trkpt>
<trkpt lat="24.533943" lon="110.941596">
<time>2016-10-06T13:11:00Z</time></trkpt>
<trkpt lat="24.534193" lon="110.941456">
<time>2016-10-06T13:11:01Z</time></trkpt>
<trkpt lat="24.534393" lon="110.941316">
<time>2016-10-06T13:11:02Z</time></trkpt>
<trkpt lat="24.534995" lon="110.940768">
<time>2016-10-06T13:11:03Z</time></trkpt>
<trkpt lat="24.538421" lon="110.937637">
<time>2016-10-06T13:11:04Z</time></trkpt>
<trkpt lat="24.538721" lon="110.937397">
<time>2016-10-06T13:11:05Z</time></trkpt>
<trkpt lat="24.539132" lon="110.937128">
<time>2016-10-06T13:11:06Z</time></trkpt>
<trkpt lat="24.539752" lon="110.936789">
<time>2016-10-06T13:11:07Z</time></trkpt>
<trkpt lat="24.540803" lon="110.936201">
<time>2016-10-06T13:11:08Z</time></trkpt>
<trkpt lat="24.541194" lon="110.935981">
<time>2016-10-06T13:11:09Z</time></trkpt>
<trkpt lat="24.543366" lon="110.934824">
<time>2016-10-06T13:11:10Z</time></trkpt>
<trkpt lat="24.544017" lon="110.934475">
<time>2016-10-06T13:11:11Z</time></trkpt>
<trkpt lat="24.544377" lon="110.934295">
<time>2016-10-06T13:11:12Z</time></trkpt>
<trkpt lat="24.544597" lon="110.934216">
<time>2016-10-06T13:11:13Z</time></trkpt>
<trkpt lat="24.544887" lon="110.934146">
<time>2016-10-06T13:11:14Z</time></trkpt>
<trkpt lat="24.545087" lon="110.934116">
<time>2016-10-06T13:11:15Z</time></trkpt>
<trkpt lat="24.545157" lon="110.934106">
<time>2016-10-06T13:11:16Z</time></trkpt>
<trkpt lat="24.545427" lon="110.934116">
<time>2016-10-06T13:11:17Z</time></trkpt>
<trkpt lat="24.545817" lon="110.934166">
<time>2016-10-06T13:11:18Z</time></trkpt>
<trkpt lat="24.546507" lon="110.934285">
<time>2016-10-06T13:11:19Z</time></trkpt>
<trkpt lat="24.548177" lon="110.934545">
<time>2016-10-06T13:11:20Z</time></trkpt>
<trkpt lat="24.552846" lon="110.935282">
<time>2016-10-06T13:11:21Z</time></trkpt>
<trkpt lat="24.552936" lon="110.935302">
<time>2016-10-06T13:11:22Z</time></trkpt>
<trkpt lat="24.552966" lon="110.935302">
<time>2016-10-06T13:11:23Z</time></trkpt>
<trkpt lat="24.553826" lon="110.935432">
<time>2016-10-06T13:11:24Z</time></trkpt>
<trkpt lat="24.554026" lon="110.935442">
<time>2016-10-06T13:11:25Z</time></trkpt>
<trkpt lat="24.554316" lon="110.935452">
<time>2016-10-06T13:11:26Z</time></trkpt>
<trkpt lat="24.554536" lon="110.935442">
<time>2016-10-06T13:11:27Z</time></trkpt>
<trkpt lat="24.554576" lon="110.935442">
<time>2016-10-06T13:11:28Z</time></trkpt>
<trkpt lat="24.554696" lon="110.935432">
<time>2016-10-06T13:11:29Z</time></trkpt>
<trkpt lat="24.554866" lon="110.935412">
<time>2016-10-06T13:11:30Z</time></trkpt>
<trkpt lat="24.556677" lon="110.935192">
<time>2016-10-06T13:11:31Z</time></trkpt>
<trkpt lat="24.557717" lon="110.935063">
<time>2016-10-06T13:11:32Z</time></trkpt>
<trkpt lat="24.561798" lon="110.934544">
<time>2016-10-06T13:11:33Z</time></trkpt>
<trkpt lat="24.565109" lon="110.934115">
<time>2016-10-06T13:11:34Z</time></trkpt>
<trkpt lat="24.565319" lon="110.934085">
<time>2016-10-06T13:11:35Z</time></trkpt>
<trkpt lat="24.56609" lon="110.933975">
<time>2016-10-06T13:11:36Z</time></trkpt>
<trkpt lat="24.56621" lon="110.933955">
<time>2016-10-06T13:11:37Z</time></trkpt>
<trkpt lat="24.56648" lon="110.933915">
<time>2016-10-06T13:11:38Z</time></trkpt>
<trkpt lat="24.56696" lon="110.933875">
<time>2016-10-06T13:11:39Z</time></trkpt>
<trkpt lat="24.56766" lon="110.933855">
<time>2016-10-06T13:11:40Z</time></trkpt>
<trkpt lat="24.56766" lon="110.933855">
<time>2016-10-06T13:11:41Z</time></trkpt>
<trkpt lat="24.56821" lon="110.933596">
<time>2016-10-06T13:11:42Z</time></trkpt>
<trkpt lat="24.568311" lon="110.933536">
<time>2016-10-06T13:11:43Z</time></trkpt>
<trkpt lat="24.568421" lon="110.933446">
<time>2016-10-06T13:11:44Z</time></trkpt>
<trkpt lat="24.568511" lon="110.933366">
<time>2016-10-06T13:11:45Z</time></trkpt>
<trkpt lat="24.568671" lon="110.933197">
<time>2016-10-06T13:11:46Z</time></trkpt>
<trkpt lat="24.568771" lon="110.933077">
<time>2016-10-06T13:11:47Z</time></trkpt>
<trkpt lat="24.568992" lon="110.932818">
<time>2016-10-06T13:11:48Z</time></trkpt>
<trkpt lat="24.569302" lon="110.932449">
<time>2016-10-06T13:11:49Z</time></trkpt>
<trkpt lat="24.569723" lon="110.93196">
<time>2016-10-06T13:11:50Z</time></trkpt>
<trkpt lat="24.570234" lon="110.931371">
<time>2016-10-06T13:11:51Z</time></trkpt>
<trkpt lat="24.570364" lon="110.931212">
<time>2016-10-06T13:11:52Z</time></trkpt>
<trkpt lat="24.570505" lon="110.931022">
<time>2016-10-06T13:11:53Z</time></trkpt>
<trkpt lat="24.570675" lon="110.930743">
<time>2016-10-06T13:11:54Z</time></trkpt>
<trkpt lat="24.570825" lon="110.930484">
<time>2016-10-06T13:11:55Z</time></trkpt>
<trkpt lat="24.570946" lon="110.930204">
<time>2016-10-06T13:11:56Z</time></trkpt>
<trkpt lat="24.571177" lon="110.929676">
<time>2016-10-06T13:11:57Z</time></trkpt>
<trkpt lat="24.571508" lon="110.928887">
<time>2016-10-06T13:11:58Z</time></trkpt>
<trkpt lat="24.571709" lon="110.928389">
<time>2016-10-06T13:11:59Z</time></trkpt>
<trkpt lat="24.57199" lon="110.92769">
<time>2016-10-06T13:12:00Z</time></trkpt>
<trkpt lat="24.5721" lon="110.927441">
<time>2016-10-06T13:12:01Z</time></trkpt>
<trkpt lat="24.57225" lon="110.927191">
<time>2016-10-06T13:12:02Z</time></trkpt>
<trkpt lat="24.572421" lon="110.926982">
<time>2016-10-06T13:12:03Z</time></trkpt>
<trkpt lat="24.572541" lon="110.926862">
<time>2016-10-06T13:12:04Z</time></trkpt>
<trkpt lat="24.572681" lon="110.926782">
<time>2016-10-06T13:12:05Z</time></trkpt>
<trkpt lat="24.572811" lon="110.926712">
<time>2016-10-06T13:12:06Z</time></trkpt>
<trkpt lat="24.573181" lon="110.926613">
<time>2016-10-06T13:12:07Z</time></trkpt>
<trkpt lat="24.573541" lon="110.926533">
<time>2016-10-06T13:12:08Z</time></trkpt>
<trkpt lat="24.573981" lon="110.926433">
<time>2016-10-06T13:12:09Z</time></trkpt>
<trkpt lat="24.576102" lon="110.925964">
<time>2016-10-06T13:12:10Z</time></trkpt>
<trkpt lat="24.578163" lon="110.925515">
<time>2016-10-06T13:12:11Z</time></trkpt>
<trkpt lat="24.578733" lon="110.925405">
<time>2016-10-06T13:12:12Z</time></trkpt>
<trkpt lat="24.579153" lon="110.925315">
<time>2016-10-06T13:12:13Z</time></trkpt>
<trkpt lat="24.579273" lon="110.925295">
<time>2016-10-06T13:12:14Z</time></trkpt>
<trkpt lat="24.579453" lon="110.925245">
<time>2016-10-06T13:12:15Z</time></trkpt>
<trkpt lat="24.579603" lon="110.925205">
<time>2016-10-06T13:12:16Z</time></trkpt>
<trkpt lat="24.579773" lon="110.925166">
<time>2016-10-06T13:12:17Z</time></trkpt>
<trkpt lat="24.580054" lon="110.925096">
<time>2016-10-06T13:12:18Z</time></trkpt>
<trkpt lat="24.580154" lon="110.925056">
<time>2016-10-06T13:12:19Z</time></trkpt>
<trkpt lat="24.580254" lon="110.925006">
<time>2016-10-06T13:12:20Z</time></trkpt>
<trkpt lat="24.580374" lon="110.924936">
<time>2016-10-06T13:12:21Z</time></trkpt>
<trkpt lat="24.580384" lon="110.924936">
<time>2016-10-06T13:12:22Z</time></trkpt>
<trkpt lat="24.580444" lon="110.924896">
<time>2016-10-06T13:12:23Z</time></trkpt>
<trkpt lat="24.580524" lon="110.924846">
<time>2016-10-06T13:12:24Z</time></trkpt>
<trkpt lat="24.580654" lon="110.924766">
<time>2016-10-06T13:12:25Z</time></trkpt>
<trkpt lat="24.580734" lon="110.924696">
<time>2016-10-06T13:12:26Z</time></trkpt>
<trkpt lat="24.580974" lon="110.924477">
<time>2016-10-06T13:12:27Z</time></trkpt>
<trkpt lat="24.581155" lon="110.924307">
<time>2016-10-06T13:12:28Z</time></trkpt>
<trkpt lat="24.581725" lon="110.923729">
<time>2016-10-06T13:12:29Z</time></trkpt>
<trkpt lat="24.581986" lon="110.923459">
<time>2016-10-06T13:12:30Z</time></trkpt>
<trkpt lat="24.582316" lon="110.92311">
<time>2016-10-06T13:12:31Z</time></trkpt>
<trkpt lat="24.582777" lon="110.922641">
<time>2016-10-06T13:12:32Z</time></trkpt>
<trkpt lat="24.583327" lon="110.922062">
<time>2016-10-06T13:12:33Z</time></trkpt>
<trkpt lat="24.583868" lon="110.921503">
<time>2016-10-06T13:12:34Z</time></trkpt>
<trkpt lat="24.584158" lon="110.921114">
<time>2016-10-06T13:12:35Z</time></trkpt>
<trkpt lat="24.584699" lon="110.920325">
<time>2016-10-06T13:12:36Z</time></trkpt>
<trkpt lat="24.58501" lon="110.919856">
<time>2016-10-06T13:12:37Z</time></trkpt>
<trkpt lat="24.58527" lon="110.919537">
<time>2016-10-06T13:12:38Z</time></trkpt>
<trkpt lat="24.58542" lon="110.919307">
<time>2016-10-06T13:12:39Z</time></trkpt>
<trkpt lat="24.585551" lon="110.919098">
<time>2016-10-06T13:12:40Z</time></trkpt>
<trkpt lat="24.585881" lon="110.918679">
<time>2016-10-06T13:12:41Z</time></trkpt>
<trkpt lat="24.586041" lon="110.918469">
<time>2016-10-06T13:12:42Z</time></trkpt>
<trkpt lat="24.586111" lon="110.918389">
<time>2016-10-06T13:12:43Z</time></trkpt>
<trkpt lat="24.586261" lon="110.918289">
<time>2016-10-06T13:12:44Z</time></trkpt>
<trkpt lat="24.586422" lon="110.918189">
<time>2016-10-06T13:12:45Z</time></trkpt>
<trkpt lat="24.586702" lon="110.91799">
<time>2016-10-06T13:12:46Z</time></trkpt>
<trkpt lat="24.586702" lon="110.91799">
<time>2016-10-06T13:12:47Z</time></trkpt>
<trkpt lat="24.586842" lon="110.91782">
<time>2016-10-06T13:12:48Z</time></trkpt>
<trkpt lat="24.587132" lon="110.917461">
<time>2016-10-06T13:12:49Z</time></trkpt>
<trkpt lat="24.587463" lon="110.917101">
<time>2016-10-06T13:12:50Z</time></trkpt>
<trkpt lat="24.587813" lon="110.916782">
<time>2016-10-06T13:12:51Z</time></trkpt>
<trkpt lat="24.587863" lon="110.916742">
<time>2016-10-06T13:12:52Z</time></trkpt>
<trkpt lat="24.589114" lon="110.915644">
<time>2016-10-06T13:12:53Z</time></trkpt>
<trkpt lat="24.589254" lon="110.915524">
<time>2016-10-06T13:12:54Z</time></trkpt>
<trkpt lat="24.589664" lon="110.915185">
<time>2016-10-06T13:12:55Z</time></trkpt>
<trkpt lat="24.589995" lon="110.914915">
<time>2016-10-06T13:12:56Z</time></trkpt>
<trkpt lat="24.590525" lon="110.914486">
<time>2016-10-06T13:12:57Z</time></trkpt>
<trkpt lat="24.590855" lon="110.914186">
<time>2016-10-06T13:12:58Z</time></trkpt>
<trkpt lat="24.590875" lon="110.914176">
<time>2016-10-06T13:12:59Z</time></trkpt>
<trkpt lat="24.591135" lon="110.913987">
<time>2016-10-06T13:13:00Z</time></trkpt>
<trkpt lat="24.591336" lon="110.913847">
<time>2016-10-06T13:13:01Z</time></trkpt>
<trkpt lat="24.591506" lon="110.913757">
<time>2016-10-06T13:13:02Z</time></trkpt>
<trkpt lat="24.591666" lon="110.913667">
<time>2016-10-06T13:13:03Z</time></trkpt>
<trkpt lat="24.591916" lon="110.913557">
<time>2016-10-06T13:13:04Z</time></trkpt>
<trkpt lat="24.592486" lon="110.913348">
<time>2016-10-06T13:13:05Z</time></trkpt>
<trkpt lat="24.592746" lon="110.913248">
<time>2016-10-06T13:13:06Z</time></trkpt>
<trkpt lat="24.593056" lon="110.913118">
<time>2016-10-06T13:13:07Z</time></trkpt>
<trkpt lat="24.593386" lon="110.912988">
<time>2016-10-06T13:13:08Z</time></trkpt>
<trkpt lat="24.593746" lon="110.912848">
<time>2016-10-06T13:13:09Z</time></trkpt>
<trkpt lat="24.595307" lon="110.912229">
<time>2016-10-06T13:13:10Z</time></trkpt>
<trkpt lat="24.596427" lon="110.9118">
<time>2016-10-06T13:13:11Z</time></trkpt>
<trkpt lat="24.596647" lon="110.9117">
<time>2016-10-06T13:13:12Z</time></trkpt>
<trkpt lat="24.596897" lon="110.9116">
<time>2016-10-06T13:13:13Z</time></trkpt>
<trkpt lat="24.597158" lon="110.91151">
<time>2016-10-06T13:13:14Z</time></trkpt>
<trkpt lat="24.597388" lon="110.91144">
<time>2016-10-06T13:13:15Z</time></trkpt>
<trkpt lat="24.597828" lon="110.91136">
<time>2016-10-06T13:13:16Z</time></trkpt>
<trkpt lat="24.598508" lon="110.911251">
<time>2016-10-06T13:13:17Z</time></trkpt>
<trkpt lat="24.599408" lon="110.911151">
<time>2016-10-06T13:13:18Z</time></trkpt>
<trkpt lat="24.599598" lon="110.911111">
<time>2016-10-06T13:13:19Z</time></trkpt>
<trkpt lat="24.599748" lon="110.911081">
<time>2016-10-06T13:13:20Z</time></trkpt>
<trkpt lat="24.599868" lon="110.911021">
<time>2016-10-06T13:13:21Z</time></trkpt>
<trkpt lat="24.599958" lon="110.910971">
<time>2016-10-06T13:13:22Z</time></trkpt>
<trkpt lat="24.600098" lon="110.910891">
<time>2016-10-06T13:13:23Z</time></trkpt>
<trkpt lat="24.600288" lon="110.910731">
<time>2016-10-06T13:13:24Z</time></trkpt>
<trkpt lat="24.600398" lon="110.910611">
<time>2016-10-06T13:13:25Z</time></trkpt>
<trkpt lat="24.600488" lon="110.910492">
<time>2016-10-06T13:13:26Z</time></trkpt>
<trkpt lat="24.600558" lon="110.910362">
<time>2016-10-06T13:13:27Z</time></trkpt>
<trkpt lat="24.600639" lon="110.910222">
<time>2016-10-06T13:13:28Z</time></trkpt>
<trkpt lat="24.600739" lon="110.909992">
<time>2016-10-06T13:13:29Z</time></trkpt>
<trkpt lat="24.601009" lon="110.909413">
<time>2016-10-06T13:13:30Z</time></trkpt>
<trkpt lat="24.6015" lon="110.908405">
<time>2016-10-06T13:13:31Z</time></trkpt>
<trkpt lat="24.6017" lon="110.908075">
<time>2016-10-06T13:13:32Z</time></trkpt>
<trkpt lat="24.6019" lon="110.907835">
<time>2016-10-06T13:13:33Z</time></trkpt>
<trkpt lat="24.60214" lon="110.907626">
<time>2016-10-06T13:13:34Z</time></trkpt>
<trkpt lat="24.60247" lon="110.907396">
<time>2016-10-06T13:13:35Z</time></trkpt>
<trkpt lat="24.60337" lon="110.906777">
<time>2016-10-06T13:13:36Z</time></trkpt>
<trkpt lat="24.603861" lon="110.906447">
<time>2016-10-06T13:13:37Z</time></trkpt>
<trkpt lat="24.604881" lon="110.905748">
<time>2016-10-06T13:13:38Z</time></trkpt>
<trkpt lat="24.605031" lon="110.905638">
<time>2016-10-06T13:13:39Z</time></trkpt>
<trkpt lat="24.605311" lon="110.905448">
<time>2016-10-06T13:13:40Z</time></trkpt>
<trkpt lat="24.605961" lon="110.904989">
<time>2016-10-06T13:13:41Z</time></trkpt>
<trkpt lat="24.606251" lon="110.904799">
<time>2016-10-06T13:13:42Z</time></trkpt>
<trkpt lat="24.606831" lon="110.904449">
<time>2016-10-06T13:13:43Z</time></trkpt>
<trkpt lat="24.607872" lon="110.90388">
<time>2016-10-06T13:13:44Z</time></trkpt>
<trkpt lat="24.609002" lon="110.903311">
<time>2016-10-06T13:13:45Z</time></trkpt>
<trkpt lat="24.609582" lon="110.903011">
<time>2016-10-06T13:13:46Z</time></trkpt>
<trkpt lat="24.610792" lon="110.902362">
<time>2016-10-06T13:13:47Z</time></trkpt>
<trkpt lat="24.611042" lon="110.902232">
<time>2016-10-06T13:13:48Z</time></trkpt>
<trkpt lat="24.611352" lon="110.902052">
<time>2016-10-06T13:13:49Z</time></trkpt>
<trkpt lat="24.611532" lon="110.901932">
<time>2016-10-06T13:13:50Z</time></trkpt>
<trkpt lat="24.611552" lon="110.901912">
<time>2016-10-06T13:13:51Z</time></trkpt>
<trkpt lat="24.611752" lon="110.901752">
<time>2016-10-06T13:13:52Z</time></trkpt>
<trkpt lat="24.611932" lon="110.901602">
<time>2016-10-06T13:13:53Z</time></trkpt>
<trkpt lat="24.612072" lon="110.901422">
<time>2016-10-06T13:13:54Z</time></trkpt>
<trkpt lat="24.612333" lon="110.901083">
<time>2016-10-06T13:13:55Z</time></trkpt>
<trkpt lat="24.612793" lon="110.900453">
<time>2016-10-06T13:13:56Z</time></trkpt>
<trkpt lat="24.614323" lon="110.898285">
<time>2016-10-06T13:13:57Z</time></trkpt>
<trkpt lat="24.615093" lon="110.897246">
<time>2016-10-06T13:13:58Z</time></trkpt>
<trkpt lat="24.615963" lon="110.895927">
<time>2016-10-06T13:13:59Z</time></trkpt>
<trkpt lat="24.616403" lon="110.895318">
<time>2016-10-06T13:14:00Z</time></trkpt>
<trkpt lat="24.616743" lon="110.894828">
<time>2016-10-06T13:14:01Z</time></trkpt>
<trkpt lat="24.617043" lon="110.894348">
<time>2016-10-06T13:14:02Z</time></trkpt>
<trkpt lat="24.617273" lon="110.893909">
<time>2016-10-06T13:14:03Z</time></trkpt>
<trkpt lat="24.617453" lon="110.893529">
<time>2016-10-06T13:14:04Z</time></trkpt>
<trkpt lat="24.617663" lon="110.892989">
<time>2016-10-06T13:14:05Z</time></trkpt>
<trkpt lat="24.617993" lon="110.89206">
<time>2016-10-06T13:14:06Z</time></trkpt>
<trkpt lat="24.618072" lon="110.8918">
<time>2016-10-06T13:14:07Z</time></trkpt>
<trkpt lat="24.618202" lon="110.89137">
<time>2016-10-06T13:14:08Z</time></trkpt>
<trkpt lat="24.618292" lon="110.891">
<time>2016-10-06T13:14:09Z</time></trkpt>
<trkpt lat="24.618372" lon="110.890631">
<time>2016-10-06T13:14:10Z</time></trkpt>
<trkpt lat="24.618412" lon="110.890301">
<time>2016-10-06T13:14:11Z</time></trkpt>
<trkpt lat="24.618432" lon="110.890041">
<time>2016-10-06T13:14:12Z</time></trkpt>
<trkpt lat="24.618471" lon="110.888402">
<time>2016-10-06T13:14:13Z</time></trkpt>
<trkpt lat="24.618491" lon="110.887492">
<time>2016-10-06T13:14:14Z</time></trkpt>
<trkpt lat="24.618501" lon="110.887212">
<time>2016-10-06T13:14:15Z</time></trkpt>
<trkpt lat="24.618511" lon="110.886952">
<time>2016-10-06T13:14:16Z</time></trkpt>
<trkpt lat="24.618551" lon="110.886183">
<time>2016-10-06T13:14:17Z</time></trkpt>
<trkpt lat="24.61864" lon="110.885763">
<time>2016-10-06T13:14:18Z</time></trkpt>
<trkpt lat="24.61874" lon="110.885463">
<time>2016-10-06T13:14:19Z</time></trkpt>
<trkpt lat="24.61884" lon="110.885163">
<time>2016-10-06T13:14:20Z</time></trkpt>
<trkpt lat="24.61936" lon="110.884163">
<time>2016-10-06T13:14:21Z</time></trkpt>
<trkpt lat="24.61937" lon="110.884133">
<time>2016-10-06T13:14:22Z</time></trkpt>
<trkpt lat="24.619519" lon="110.883783">
<time>2016-10-06T13:14:23Z</time></trkpt>
<trkpt lat="24.619599" lon="110.883573">
<time>2016-10-06T13:14:24Z</time></trkpt>
<trkpt lat="24.619669" lon="110.883293">
<time>2016-10-06T13:14:25Z</time></trkpt>
<trkpt lat="24.619699" lon="110.883093">
<time>2016-10-06T13:14:26Z</time></trkpt>
<trkpt lat="24.619719" lon="110.882913">
<time>2016-10-06T13:14:27Z</time></trkpt>
<trkpt lat="24.619729" lon="110.882713">
<time>2016-10-06T13:14:28Z</time></trkpt>
<trkpt lat="24.619729" lon="110.882533">
<time>2016-10-06T13:14:29Z</time></trkpt>
<trkpt lat="24.619708" lon="110.882313">
<time>2016-10-06T13:14:30Z</time></trkpt>
<trkpt lat="24.619658" lon="110.882063">
<time>2016-10-06T13:14:31Z</time></trkpt>
<trkpt lat="24.619618" lon="110.881863">
<time>2016-10-06T13:14:32Z</time></trkpt>
<trkpt lat="24.619568" lon="110.881673">
<time>2016-10-06T13:14:33Z</time></trkpt>
<trkpt lat="24.619468" lon="110.881414">
<time>2016-10-06T13:14:34Z</time></trkpt>
<trkpt lat="24.618145" lon="110.877804">
<time>2016-10-06T13:14:35Z</time></trkpt>
<trkpt lat="24.618105" lon="110.877694">
<time>2016-10-06T13:14:36Z</time></trkpt>
<trkpt lat="24.617143" lon="110.875004">
<time>2016-10-06T13:14:37Z</time></trkpt>
<trkpt lat="24.616962" lon="110.874484">
<time>2016-10-06T13:14:38Z</time></trkpt>
<trkpt lat="24.616912" lon="110.874363">
<time>2016-10-06T13:14:39Z</time></trkpt>
<trkpt lat="24.616802" lon="110.874043">
<time>2016-10-06T13:14:40Z</time></trkpt>
<trkpt lat="24.616742" lon="110.873873">
<time>2016-10-06T13:14:41Z</time></trkpt>
<trkpt lat="24.616712" lon="110.873723">
<time>2016-10-06T13:14:42Z</time></trkpt>
<trkpt lat="24.616681" lon="110.873603">
<time>2016-10-06T13:14:43Z</time></trkpt>
<trkpt lat="24.616671" lon="110.873493">
<time>2016-10-06T13:14:44Z</time></trkpt>
<trkpt lat="24.616661" lon="110.873363">
<time>2016-10-06T13:14:45Z</time></trkpt>
<trkpt lat="24.616671" lon="110.873243">
<time>2016-10-06T13:14:46Z</time></trkpt>
<trkpt lat="24.616681" lon="110.873133">
<time>2016-10-06T13:14:47Z</time></trkpt>
<trkpt lat="24.616701" lon="110.873003">
<time>2016-10-06T13:14:48Z</time></trkpt>
<trkpt lat="24.616801" lon="110.872743">
<time>2016-10-06T13:14:49Z</time></trkpt>
<trkpt lat="24.61693" lon="110.872533">
<time>2016-10-06T13:14:50Z</time></trkpt>
<trkpt lat="24.61708" lon="110.872333">
<time>2016-10-06T13:14:51Z</time></trkpt>
<trkpt lat="24.618109" lon="110.871353">
<time>2016-10-06T13:14:52Z</time></trkpt>
<trkpt lat="24.619158" lon="110.870422">
<time>2016-10-06T13:14:53Z</time></trkpt>
<trkpt lat="24.619818" lon="110.869852">
<time>2016-10-06T13:14:54Z</time></trkpt>
<trkpt lat="24.619948" lon="110.869742">
<time>2016-10-06T13:14:55Z</time></trkpt>
<trkpt lat="24.620088" lon="110.869612">
<time>2016-10-06T13:14:56Z</time></trkpt>
<trkpt lat="24.620187" lon="110.869512">
<time>2016-10-06T13:14:57Z</time></trkpt>
<trkpt lat="24.620297" lon="110.869392">
<time>2016-10-06T13:14:58Z</time></trkpt>
<trkpt lat="24.620377" lon="110.869262">
<time>2016-10-06T13:14:59Z</time></trkpt>
<trkpt lat="24.620447" lon="110.869112">
<time>2016-10-06T13:15:00Z</time></trkpt>
<trkpt lat="24.620477" lon="110.869002">
<time>2016-10-06T13:15:01Z</time></trkpt>
<trkpt lat="24.620497" lon="110.868882">
<time>2016-10-06T13:15:02Z</time></trkpt>
<trkpt lat="24.620507" lon="110.868782">
<time>2016-10-06T13:15:03Z</time></trkpt>
<trkpt lat="24.620507" lon="110.868682">
<time>2016-10-06T13:15:04Z</time></trkpt>
<trkpt lat="24.620496" lon="110.868582">
<time>2016-10-06T13:15:05Z</time></trkpt>
<trkpt lat="24.620476" lon="110.868472">
<time>2016-10-06T13:15:06Z</time></trkpt>
<trkpt lat="24.620446" lon="110.868392">
<time>2016-10-06T13:15:07Z</time></trkpt>
<trkpt lat="24.620376" lon="110.868241">
<time>2016-10-06T13:15:08Z</time></trkpt>
<trkpt lat="24.620266" lon="110.868081">
<time>2016-10-06T13:15:09Z</time></trkpt>
<trkpt lat="24.620146" lon="110.867951">
<time>2016-10-06T13:15:10Z</time></trkpt>
<trkpt lat="24.620146" lon="110.867941">
<time>2016-10-06T13:15:11Z</time></trkpt>
<trkpt lat="24.619175" lon="110.866991">
<time>2016-10-06T13:15:12Z</time></trkpt>
<trkpt lat="24.618474" lon="110.866341">
<time>2016-10-06T13:15:13Z</time></trkpt>
<trkpt lat="24.617773" lon="110.86555">
<time>2016-10-06T13:15:14Z</time></trkpt>
<trkpt lat="24.617362" lon="110.86506">
<time>2016-10-06T13:15:15Z</time></trkpt>
<trkpt lat="24.617262" lon="110.86493">
<time>2016-10-06T13:15:16Z</time></trkpt>
<trkpt lat="24.617172" lon="110.86479">
<time>2016-10-06T13:15:17Z</time></trkpt>
<trkpt lat="24.617082" lon="110.86459">
<time>2016-10-06T13:15:18Z</time></trkpt>
<trkpt lat="24.617021" lon="110.86445">
<time>2016-10-06T13:15:19Z</time></trkpt>
<trkpt lat="24.616981" lon="110.86432">
<time>2016-10-06T13:15:20Z</time></trkpt>
<trkpt lat="24.616921" lon="110.86407">
<time>2016-10-06T13:15:21Z</time></trkpt>
<trkpt lat="24.6169" lon="110.8637">
<time>2016-10-06T13:15:22Z</time></trkpt>
<trkpt lat="24.616869" lon="110.862829">
<time>2016-10-06T13:15:23Z</time></trkpt>
<trkpt lat="24.616888" lon="110.862039">
<time>2016-10-06T13:15:24Z</time></trkpt>
<trkpt lat="24.616908" lon="110.861468">
<time>2016-10-06T13:15:25Z</time></trkpt>
<trkpt lat="24.616947" lon="110.860768">
<time>2016-10-06T13:15:26Z</time></trkpt>
<trkpt lat="24.616966" lon="110.860428">
<time>2016-10-06T13:15:27Z</time></trkpt>
<trkpt lat="24.616976" lon="110.860157">
<time>2016-10-06T13:15:28Z</time></trkpt>
<trkpt lat="24.616976" lon="110.860057">
<time>2016-10-06T13:15:29Z</time></trkpt>
<trkpt lat="24.617005" lon="110.859677">
<time>2016-10-06T13:15:30Z</time></trkpt>
<trkpt lat="24.617015" lon="110.859507">
<time>2016-10-06T13:15:31Z</time></trkpt>
<trkpt lat="24.617045" lon="110.859307">
<time>2016-10-06T13:15:32Z</time></trkpt>
<trkpt lat="24.617094" lon="110.859027">
<time>2016-10-06T13:15:33Z</time></trkpt>
<trkpt lat="24.617164" lon="110.858796">
<time>2016-10-06T13:15:34Z</time></trkpt>
<trkpt lat="24.617273" lon="110.858516">
<time>2016-10-06T13:15:35Z</time></trkpt>
<trkpt lat="24.617513" lon="110.858026">
<time>2016-10-06T13:15:36Z</time></trkpt>
<trkpt lat="24.618181" lon="110.856625">
<time>2016-10-06T13:15:37Z</time></trkpt>
<trkpt lat="24.618809" lon="110.855384">
<time>2016-10-06T13:15:38Z</time></trkpt>
<trkpt lat="24.618958" lon="110.855043">
<time>2016-10-06T13:15:39Z</time></trkpt>
<trkpt lat="24.619048" lon="110.854843">
<time>2016-10-06T13:15:40Z</time></trkpt>
<trkpt lat="24.619148" lon="110.854613">
<time>2016-10-06T13:15:41Z</time></trkpt>
<trkpt lat="24.619247" lon="110.854343">
<time>2016-10-06T13:15:42Z</time></trkpt>
<trkpt lat="24.619297" lon="110.854193">
<time>2016-10-06T13:15:43Z</time></trkpt>
<trkpt lat="24.619337" lon="110.854063">
<time>2016-10-06T13:15:44Z</time></trkpt>
<trkpt lat="24.619387" lon="110.853832">
<time>2016-10-06T13:15:45Z</time></trkpt>
<trkpt lat="24.619416" lon="110.853602">
<time>2016-10-06T13:15:46Z</time></trkpt>
<trkpt lat="24.619436" lon="110.853422">
<time>2016-10-06T13:15:47Z</time></trkpt>
<trkpt lat="24.619475" lon="110.852721">
<time>2016-10-06T13:15:48Z</time></trkpt>
<trkpt lat="24.619475" lon="110.852671">
<time>2016-10-06T13:15:49Z</time></trkpt>
<trkpt lat="24.619542" lon="110.85106">
<time>2016-10-06T13:15:50Z</time></trkpt>
<trkpt lat="24.619591" lon="110.850139">
<time>2016-10-06T13:15:51Z</time></trkpt>
<trkpt lat="24.61961" lon="110.849899">
<time>2016-10-06T13:15:52Z</time></trkpt>
<trkpt lat="24.61962" lon="110.849639">
<time>2016-10-06T13:15:53Z</time></trkpt>
<trkpt lat="24.61963" lon="110.849508">
<time>2016-10-06T13:15:54Z</time></trkpt>
<trkpt lat="24.61966" lon="110.849328">
<time>2016-10-06T13:15:55Z</time></trkpt>
<trkpt lat="24.619699" lon="110.849198">
<time>2016-10-06T13:15:56Z</time></trkpt>
<trkpt lat="24.619749" lon="110.849068">
<time>2016-10-06T13:15:57Z</time></trkpt>
<trkpt lat="24.619799" lon="110.848968">
<time>2016-10-06T13:15:58Z</time></trkpt>
<trkpt lat="24.619859" lon="110.848858">
<time>2016-10-06T13:15:59Z</time></trkpt>
<trkpt lat="24.619869" lon="110.848838">
<time>2016-10-06T13:16:00Z</time></trkpt>
<trkpt lat="24.619919" lon="110.848748">
<time>2016-10-06T13:16:01Z</time></trkpt>
<trkpt lat="24.620008" lon="110.848658">
<time>2016-10-06T13:16:02Z</time></trkpt>
<trkpt lat="24.620118" lon="110.848547">
<time>2016-10-06T13:16:03Z</time></trkpt>
<trkpt lat="24.620348" lon="110.848347">
<time>2016-10-06T13:16:04Z</time></trkpt>
<trkpt lat="24.621876" lon="110.847376">
<time>2016-10-06T13:16:05Z</time></trkpt>
<trkpt lat="24.622376" lon="110.847066">
<time>2016-10-06T13:16:06Z</time></trkpt>
<trkpt lat="24.624364" lon="110.845845">
<time>2016-10-06T13:16:07Z</time></trkpt>
<trkpt lat="24.625123" lon="110.845384">
<time>2016-10-06T13:16:08Z</time></trkpt>
<trkpt lat="24.625822" lon="110.844893">
<time>2016-10-06T13:16:09Z</time></trkpt>
<trkpt lat="24.626701" lon="110.844243">
<time>2016-10-06T13:16:10Z</time></trkpt>
<trkpt lat="24.626951" lon="110.844032">
<time>2016-10-06T13:16:11Z</time></trkpt>
<trkpt lat="24.629248" lon="110.84221">
<time>2016-10-06T13:16:12Z</time></trkpt>
<trkpt lat="24.631545" lon="110.840348">
<time>2016-10-06T13:16:13Z</time></trkpt>
<trkpt lat="24.632024" lon="110.839978">
<time>2016-10-06T13:16:14Z</time></trkpt>
<trkpt lat="24.632703" lon="110.839507">
<time>2016-10-06T13:16:15Z</time></trkpt>
<trkpt lat="24.634271" lon="110.838406">
<time>2016-10-06T13:16:16Z</time></trkpt>
<trkpt lat="24.634611" lon="110.838165">
<time>2016-10-06T13:16:17Z</time></trkpt>
<trkpt lat="24.63525" lon="110.837715">
<time>2016-10-06T13:16:18Z</time></trkpt>
<trkpt lat="24.636409" lon="110.836924">
<time>2016-10-06T13:16:19Z</time></trkpt>
<trkpt lat="24.637008" lon="110.836493">
<time>2016-10-06T13:16:20Z</time></trkpt>
<trkpt lat="24.638176" lon="110.835712">
<time>2016-10-06T13:16:21Z</time></trkpt>
<trkpt lat="24.638646" lon="110.835422">
<time>2016-10-06T13:16:22Z</time></trkpt>
<trkpt lat="24.638826" lon="110.835312">
<time>2016-10-06T13:16:23Z</time></trkpt>
<trkpt lat="24.639045" lon="110.835222">
<time>2016-10-06T13:16:24Z</time></trkpt>
<trkpt lat="24.639985" lon="110.834841">
<time>2016-10-06T13:16:25Z</time></trkpt>
<trkpt lat="24.640395" lon="110.834681">
<time>2016-10-06T13:16:26Z</time></trkpt>
<trkpt lat="24.641574" lon="110.83428">
<time>2016-10-06T13:16:27Z</time></trkpt>
<trkpt lat="24.643333" lon="110.833619">
<time>2016-10-06T13:16:28Z</time></trkpt>
<trkpt lat="24.644252" lon="110.833269">
<time>2016-10-06T13:16:29Z</time></trkpt>
<trkpt lat="24.644722" lon="110.833079">
<time>2016-10-06T13:16:30Z</time></trkpt>
<trkpt lat="24.645121" lon="110.832929">
<time>2016-10-06T13:16:31Z</time></trkpt>
<trkpt lat="24.645551" lon="110.832768">
<time>2016-10-06T13:16:32Z</time></trkpt>
<trkpt lat="24.645831" lon="110.832658">
<time>2016-10-06T13:16:33Z</time></trkpt>
<trkpt lat="24.646001" lon="110.832558">
<time>2016-10-06T13:16:34Z</time></trkpt>
<trkpt lat="24.646131" lon="110.832478">
<time>2016-10-06T13:16:35Z</time></trkpt>
<trkpt lat="24.64638" lon="110.832298">
<time>2016-10-06T13:16:36Z</time></trkpt>
<trkpt lat="24.64647" lon="110.832238">
<time>2016-10-06T13:16:37Z</time></trkpt>
<trkpt lat="24.64661" lon="110.832117">
<time>2016-10-06T13:16:38Z</time></trkpt>
<trkpt lat="24.64673" lon="110.832027">
<time>2016-10-06T13:16:39Z</time></trkpt>
<trkpt lat="24.64681" lon="110.831967">
<time>2016-10-06T13:16:40Z</time></trkpt>
<trkpt lat="24.646989" lon="110.831817">
<time>2016-10-06T13:16:41Z</time></trkpt>
<trkpt lat="24.647868" lon="110.830936">
<time>2016-10-06T13:16:42Z</time></trkpt>
<trkpt lat="24.648097" lon="110.830746">
<time>2016-10-06T13:16:43Z</time></trkpt>
<trkpt lat="24.648237" lon="110.830626">
<time>2016-10-06T13:16:44Z</time></trkpt>
<trkpt lat="24.648317" lon="110.830565">
<time>2016-10-06T13:16:45Z</time></trkpt>
<trkpt lat="24.648497" lon="110.830415">
<time>2016-10-06T13:16:46Z</time></trkpt>
<trkpt lat="24.648716" lon="110.830255">
<time>2016-10-06T13:16:47Z</time></trkpt>
<trkpt lat="24.649645" lon="110.829634">
<time>2016-10-06T13:16:48Z</time></trkpt>
<trkpt lat="24.650764" lon="110.828923">
<time>2016-10-06T13:16:49Z</time></trkpt>
<trkpt lat="24.651024" lon="110.828773">
<time>2016-10-06T13:16:50Z</time></trkpt>
<trkpt lat="24.651453" lon="110.828483">
<time>2016-10-06T13:16:51Z</time></trkpt>
<trkpt lat="24.651903" lon="110.828202">
<time>2016-10-06T13:16:52Z</time></trkpt>
<trkpt lat="24.652282" lon="110.827932">
<time>2016-10-06T13:16:53Z</time></trkpt>
<trkpt lat="24.652482" lon="110.827752">
<time>2016-10-06T13:16:54Z</time></trkpt>
<trkpt lat="24.652611" lon="110.827591">
<time>2016-10-06T13:16:55Z</time></trkpt>
<trkpt lat="24.652731" lon="110.827401">
<time>2016-10-06T13:16:56Z</time></trkpt>
<trkpt lat="24.65303" lon="110.826851">
<time>2016-10-06T13:16:57Z</time></trkpt>
<trkpt lat="24.653488" lon="110.825939">
<time>2016-10-06T13:16:58Z</time></trkpt>
<trkpt lat="24.653777" lon="110.825299">
<time>2016-10-06T13:16:59Z</time></trkpt>
<trkpt lat="24.654156" lon="110.824467">
<time>2016-10-06T13:17:00Z</time></trkpt>
<trkpt lat="24.654215" lon="110.824307">
<time>2016-10-06T13:17:01Z</time></trkpt>
<trkpt lat="24.654245" lon="110.824187">
<time>2016-10-06T13:17:02Z</time></trkpt>
<trkpt lat="24.654324" lon="110.823867">
<time>2016-10-06T13:17:03Z</time></trkpt>
<trkpt lat="24.654324" lon="110.823817">
<time>2016-10-06T13:17:04Z</time></trkpt>
<trkpt lat="24.654324" lon="110.823817">
<time>2016-10-06T13:17:05Z</time></trkpt>
<trkpt lat="24.654815" lon="110.824027">
<time>2016-10-06T13:17:06Z</time></trkpt>
<trkpt lat="24.655065" lon="110.824167">
<time>2016-10-06T13:17:07Z</time></trkpt>
<trkpt lat="24.655145" lon="110.824217">
<time>2016-10-06T13:17:08Z</time></trkpt>
<trkpt lat="24.655185" lon="110.824217">
<time>2016-10-06T13:17:09Z</time></trkpt>
<trkpt lat="24.655205" lon="110.824217">
<time>2016-10-06T13:17:10Z</time></trkpt>
<trkpt lat="24.655375" lon="110.824147">
<time>2016-10-06T13:17:11Z</time></trkpt>
<trkpt lat="24.655445" lon="110.824117">
<time>2016-10-06T13:17:12Z</time></trkpt>
<trkpt lat="24.655595" lon="110.824107">
<time>2016-10-06T13:17:13Z</time></trkpt>
<trkpt lat="24.655615" lon="110.824107">
<time>2016-10-06T13:17:14Z</time></trkpt>
<trkpt lat="24.655765" lon="110.824117">
<time>2016-10-06T13:17:15Z</time></trkpt>
<trkpt lat="24.656035" lon="110.824227">
<time>2016-10-06T13:17:16Z</time></trkpt>
<trkpt lat="24.656075" lon="110.824237">
<time>2016-10-06T13:17:17Z</time></trkpt>
<trkpt lat="24.656135" lon="110.824257">
<time>2016-10-06T13:17:18Z</time></trkpt>
<trkpt lat="24.656195" lon="110.824277">
<time>2016-10-06T13:17:19Z</time></trkpt>
<trkpt lat="24.656375" lon="110.824337">
<time>2016-10-06T13:17:20Z</time></trkpt>
<trkpt lat="24.656455" lon="110.824387">
<time>2016-10-06T13:17:21Z</time></trkpt>
<trkpt lat="24.656576" lon="110.824507">
<time>2016-10-06T13:17:22Z</time></trkpt>
<trkpt lat="24.656646" lon="110.824617">
<time>2016-10-06T13:17:23Z</time></trkpt>
<trkpt lat="24.656696" lon="110.824708">
<time>2016-10-06T13:17:24Z</time></trkpt>
<trkpt lat="24.656766" lon="110.824818">
<time>2016-10-06T13:17:25Z</time></trkpt>
<trkpt lat="24.656796" lon="110.824858">
<time>2016-10-06T13:17:26Z</time></trkpt>
<trkpt lat="24.656836" lon="110.824878">
<time>2016-10-06T13:17:27Z</time></trkpt>
<trkpt lat="24.657046" lon="110.824918">
<time>2016-10-06T13:17:28Z</time></trkpt>
<trkpt lat="24.657507" lon="110.825028">
<time>2016-10-06T13:17:29Z</time></trkpt>
<trkpt lat="24.657587" lon="110.825058">
<time>2016-10-06T13:17:30Z</time></trkpt>
<trkpt lat="24.657627" lon="110.825078">
<time>2016-10-06T13:17:31Z</time></trkpt>
<trkpt lat="24.657657" lon="110.825108">
<time>2016-10-06T13:17:32Z</time></trkpt>
<trkpt lat="24.657687" lon="110.825168">
<time>2016-10-06T13:17:33Z</time></trkpt>
<trkpt lat="24.657707" lon="110.825228">
<time>2016-10-06T13:17:34Z</time></trkpt>
<trkpt lat="24.657717" lon="110.825248">
<time>2016-10-06T13:17:35Z</time></trkpt>
<trkpt lat="24.657727" lon="110.825248">
<time>2016-10-06T13:17:36Z</time></trkpt>
<trkpt lat="24.657767" lon="110.825248">
<time>2016-10-06T13:17:37Z</time></trkpt>
<trkpt lat="24.657797" lon="110.825238">
<time>2016-10-06T13:17:38Z</time></trkpt>
<trkpt lat="24.657847" lon="110.825218">
<time>2016-10-06T13:17:39Z</time></trkpt>
<trkpt lat="24.657937" lon="110.825168">
<time>2016-10-06T13:17:40Z</time></trkpt>
<trkpt lat="24.658197" lon="110.825148">
<time>2016-10-06T13:17:41Z</time></trkpt>
<trkpt lat="24.658657" lon="110.825088">
<time>2016-10-06T13:17:42Z</time></trkpt>
<trkpt lat="24.658956" lon="110.824888">
<time>2016-10-06T13:17:43Z</time></trkpt>
<trkpt lat="24.659016" lon="110.824868">
<time>2016-10-06T13:17:44Z</time></trkpt>
<trkpt lat="24.659076" lon="110.824858">
<time>2016-10-06T13:17:45Z</time></trkpt>
<trkpt lat="24.659146" lon="110.824848">
<time>2016-10-06T13:17:46Z</time></trkpt>
<trkpt lat="24.659146" lon="110.824848">
<time>2016-10-06T13:17:47Z</time></trkpt>
<trkpt lat="24.659155" lon="110.824207">
<time>2016-10-06T13:17:48Z</time></trkpt>
<trkpt lat="24.659155" lon="110.824177">
<time>2016-10-06T13:17:49Z</time></trkpt>
<trkpt lat="24.659264" lon="110.823876">
<time>2016-10-06T13:17:50Z</time></trkpt>
<trkpt lat="24.659523" lon="110.823306">
<time>2016-10-06T13:17:51Z</time></trkpt>
<trkpt lat="24.659623" lon="110.823145">
<time>2016-10-06T13:17:52Z</time></trkpt>
<trkpt lat="24.659952" lon="110.822555">
<time>2016-10-06T13:17:53Z</time></trkpt>
<trkpt lat="24.660042" lon="110.822374">
<time>2016-10-06T13:17:54Z</time></trkpt>
<trkpt lat="24.660141" lon="110.822254">
<time>2016-10-06T13:17:55Z</time></trkpt>
<trkpt lat="24.660181" lon="110.822214">
<time>2016-10-06T13:17:56Z</time></trkpt>
<trkpt lat="24.660341" lon="110.822034">
<time>2016-10-06T13:17:57Z</time></trkpt>
<trkpt lat="24.660441" lon="110.821964">
<time>2016-10-06T13:17:58Z</time></trkpt>
<trkpt lat="24.660761" lon="110.821804">
<time>2016-10-06T13:17:59Z</time></trkpt>
<trkpt lat="24.66128" lon="110.821553">
<time>2016-10-06T13:18:00Z</time></trkpt>
<trkpt lat="24.66134" lon="110.821513">
<time>2016-10-06T13:18:01Z</time></trkpt>
<trkpt lat="24.66141" lon="110.821473">
<time>2016-10-06T13:18:02Z</time></trkpt>
<trkpt lat="24.66161" lon="110.821323">
<time>2016-10-06T13:18:03Z</time></trkpt>
<trkpt lat="24.661909" lon="110.821093">
<time>2016-10-06T13:18:04Z</time></trkpt>
<trkpt lat="24.661939" lon="110.821063">
<time>2016-10-06T13:18:05Z</time></trkpt>
<trkpt lat="24.662159" lon="110.820872">
<time>2016-10-06T13:18:06Z</time></trkpt>
<trkpt lat="24.662488" lon="110.820582">
<time>2016-10-06T13:18:07Z</time></trkpt>
<trkpt lat="24.662798" lon="110.820332">
<time>2016-10-06T13:18:08Z</time></trkpt>
<trkpt lat="24.663097" lon="110.820131">
<time>2016-10-06T13:18:09Z</time></trkpt>
<trkpt lat="24.663347" lon="110.819981">
<time>2016-10-06T13:18:10Z</time></trkpt>
<trkpt lat="24.663667" lon="110.819761">
<time>2016-10-06T13:18:11Z</time></trkpt>
<trkpt lat="24.663747" lon="110.819731">
<time>2016-10-06T13:18:12Z</time></trkpt>
<trkpt lat="24.663787" lon="110.819731">
<time>2016-10-06T13:18:13Z</time></trkpt>
<trkpt lat="24.664157" lon="110.819671">
<time>2016-10-06T13:18:14Z</time></trkpt>
<trkpt lat="24.664526" lon="110.819571">
<time>2016-10-06T13:18:15Z</time></trkpt>
<trkpt lat="24.664726" lon="110.819491">
<time>2016-10-06T13:18:16Z</time></trkpt>
<trkpt lat="24.665046" lon="110.81938">
<time>2016-10-06T13:18:17Z</time></trkpt>
<trkpt lat="24.665256" lon="110.81932">
<time>2016-10-06T13:18:18Z</time></trkpt>
<trkpt lat="24.665646" lon="110.81922">
<time>2016-10-06T13:18:19Z</time></trkpt>
<trkpt lat="24.665925" lon="110.81912">
<time>2016-10-06T13:18:20Z</time></trkpt>
<trkpt lat="24.666395" lon="110.81889">
<time>2016-10-06T13:18:21Z</time></trkpt>
<trkpt lat="24.666605" lon="110.8188">
<time>2016-10-06T13:18:22Z</time></trkpt>
<trkpt lat="24.666675" lon="110.818749">
<time>2016-10-06T13:18:23Z</time></trkpt>
<trkpt lat="24.666685" lon="110.818749">
<time>2016-10-06T13:18:24Z</time></trkpt>
<trkpt lat="24.666685" lon="110.818739">
<time>2016-10-06T13:18:25Z</time></trkpt>
<trkpt lat="24.666745" lon="110.818709">
<time>2016-10-06T13:18:26Z</time></trkpt>
<trkpt lat="24.666785" lon="110.818669">
<time>2016-10-06T13:18:27Z</time></trkpt>
<trkpt lat="24.666914" lon="110.818569">
<time>2016-10-06T13:18:28Z</time></trkpt>
<trkpt lat="24.667024" lon="110.818459">
<time>2016-10-06T13:18:29Z</time></trkpt>
<trkpt lat="24.667044" lon="110.818439">
<time>2016-10-06T13:18:30Z</time></trkpt>
<trkpt lat="24.667124" lon="110.818379">
<time>2016-10-06T13:18:31Z</time></trkpt>
<trkpt lat="24.667194" lon="110.818329">
<time>2016-10-06T13:18:32Z</time></trkpt>
<trkpt lat="24.667324" lon="110.818239">
<time>2016-10-06T13:18:33Z</time></trkpt>
<trkpt lat="24.667364" lon="110.818199">
<time>2016-10-06T13:18:34Z</time></trkpt>
<trkpt lat="24.667404" lon="110.818179">
<time>2016-10-06T13:18:35Z</time></trkpt>
<trkpt lat="24.667444" lon="110.818169">
<time>2016-10-06T13:18:36Z</time></trkpt>
<trkpt lat="24.667524" lon="110.818149">
<time>2016-10-06T13:18:37Z</time></trkpt>
<trkpt lat="24.667684" lon="110.818129">
<time>2016-10-06T13:18:38Z</time></trkpt>
<trkpt lat="24.667834" lon="110.818099">
<time>2016-10-06T13:18:39Z</time></trkpt>
<trkpt lat="24.668163" lon="110.818069">
<time>2016-10-06T13:18:40Z</time></trkpt>
<trkpt lat="24.668313" lon="110.818079">
<time>2016-10-06T13:18:41Z</time></trkpt>
<trkpt lat="24.668423" lon="110.818058">
<time>2016-10-06T13:18:42Z</time></trkpt>
<trkpt lat="24.668563" lon="110.817998">
<time>2016-10-06T13:18:43Z</time></trkpt>
<trkpt lat="24.668973" lon="110.817838">
<time>2016-10-06T13:18:44Z</time></trkpt>
<trkpt lat="24.669273" lon="110.817708">
<time>2016-10-06T13:18:45Z</time></trkpt>
<trkpt lat="24.669473" lon="110.817598">
<time>2016-10-06T13:18:46Z</time></trkpt>
<trkpt lat="24.669622" lon="110.817538">
<time>2016-10-06T13:18:47Z</time></trkpt>
<trkpt lat="24.669922" lon="110.817418">
<time>2016-10-06T13:18:48Z</time></trkpt>
<trkpt lat="24.670172" lon="110.817348">
<time>2016-10-06T13:18:49Z</time></trkpt>
<trkpt lat="24.670232" lon="110.817317">
<time>2016-10-06T13:18:50Z</time></trkpt>
<trkpt lat="24.670512" lon="110.817247">
<time>2016-10-06T13:18:51Z</time></trkpt>
<trkpt lat="24.670562" lon="110.817227">
<time>2016-10-06T13:18:52Z</time></trkpt>
<trkpt lat="24.670922" lon="110.817117">
<time>2016-10-06T13:18:53Z</time></trkpt>
<trkpt lat="24.671012" lon="110.817087">
<time>2016-10-06T13:18:54Z</time></trkpt>
<trkpt lat="24.671291" lon="110.817017">
<time>2016-10-06T13:18:55Z</time></trkpt>
<trkpt lat="24.671661" lon="110.816917">
<time>2016-10-06T13:18:56Z</time></trkpt>
<trkpt lat="24.671871" lon="110.816857">
<time>2016-10-06T13:18:57Z</time></trkpt>
<trkpt lat="24.671931" lon="110.816837">
<time>2016-10-06T13:18:58Z</time></trkpt>
<trkpt lat="24.672001" lon="110.816797">
<time>2016-10-06T13:18:59Z</time></trkpt>
<trkpt lat="24.672031" lon="110.816787">
<time>2016-10-06T13:19:00Z</time></trkpt>
<trkpt lat="24.672061" lon="110.816787">
<time>2016-10-06T13:19:01Z</time></trkpt>
<trkpt lat="24.672091" lon="110.816787">
<time>2016-10-06T13:19:02Z</time></trkpt>
<trkpt lat="24.672211" lon="110.816787">
<time>2016-10-06T13:19:03Z</time></trkpt>
<trkpt lat="24.672361" lon="110.816807">
<time>2016-10-06T13:19:04Z</time></trkpt>
<trkpt lat="24.672451" lon="110.816807">
<time>2016-10-06T13:19:05Z</time></trkpt>
<trkpt lat="24.672501" lon="110.816827">
<time>2016-10-06T13:19:06Z</time></trkpt>
<trkpt lat="24.672571" lon="110.816867">
<time>2016-10-06T13:19:07Z</time></trkpt>
<trkpt lat="24.672681" lon="110.816947">
<time>2016-10-06T13:19:08Z</time></trkpt>
<trkpt lat="24.672792" lon="110.817037">
<time>2016-10-06T13:19:09Z</time></trkpt>
<trkpt lat="24.672832" lon="110.817077">
<time>2016-10-06T13:19:10Z</time></trkpt>
<trkpt lat="24.672872" lon="110.817127">
<time>2016-10-06T13:19:11Z</time></trkpt>
<trkpt lat="24.672902" lon="110.817147">
<time>2016-10-06T13:19:12Z</time></trkpt>
<trkpt lat="24.672922" lon="110.817147">
<time>2016-10-06T13:19:13Z</time></trkpt>
<trkpt lat="24.672952" lon="110.817157">
<time>2016-10-06T13:19:14Z</time></trkpt>
<trkpt lat="24.673042" lon="110.817157">
<time>2016-10-06T13:19:15Z</time></trkpt>
<trkpt lat="24.673082" lon="110.817157">
<time>2016-10-06T13:19:16Z</time></trkpt>
<trkpt lat="24.673312" lon="110.817147">
<time>2016-10-06T13:19:17Z</time></trkpt>
<trkpt lat="24.673402" lon="110.817137">
<time>2016-10-06T13:19:18Z</time></trkpt>
<trkpt lat="24.673432" lon="110.817137">
<time>2016-10-06T13:19:19Z</time></trkpt>
<trkpt lat="24.673492" lon="110.817117">
<time>2016-10-06T13:19:20Z</time></trkpt>
<trkpt lat="24.673522" lon="110.817107">
<time>2016-10-06T13:19:21Z</time></trkpt>
<trkpt lat="24.673552" lon="110.817087">
<time>2016-10-06T13:19:22Z</time></trkpt>
<trkpt lat="24.673582" lon="110.817077">
<time>2016-10-06T13:19:23Z</time></trkpt>
<trkpt lat="24.673602" lon="110.817087">
<time>2016-10-06T13:19:24Z</time></trkpt>
<trkpt lat="24.673632" lon="110.817097">
<time>2016-10-06T13:19:25Z</time></trkpt>
<trkpt lat="24.673762" lon="110.817157">
<time>2016-10-06T13:19:26Z</time></trkpt>
<trkpt lat="24.673892" lon="110.817197">
<time>2016-10-06T13:19:27Z</time></trkpt>
<trkpt lat="24.673892" lon="110.817197">
<time>2016-10-06T13:19:28Z</time></trkpt>
<trkpt lat="24.673902" lon="110.817087">
<time>2016-10-06T13:19:29Z</time></trkpt>
<trkpt lat="24.673941" lon="110.816827">
<time>2016-10-06T13:19:30Z</time></trkpt>
<trkpt lat="24.673971" lon="110.816676">
<time>2016-10-06T13:19:31Z</time></trkpt>
<trkpt lat="24.674011" lon="110.816536">
<time>2016-10-06T13:19:32Z</time></trkpt>
<trkpt lat="24.6742" lon="110.816006">
<time>2016-10-06T13:19:33Z</time></trkpt>
<trkpt lat="24.674239" lon="110.815825">
<time>2016-10-06T13:19:34Z</time></trkpt>
<trkpt lat="24.674329" lon="110.815455">
<time>2016-10-06T13:19:35Z</time></trkpt>
<trkpt lat="24.674358" lon="110.815165">
<time>2016-10-06T13:19:36Z</time></trkpt>
<trkpt lat="24.674368" lon="110.814954">
<time>2016-10-06T13:19:37Z</time></trkpt>
<trkpt lat="24.674347" lon="110.814584">
<time>2016-10-06T13:19:38Z</time></trkpt>
<trkpt lat="24.674287" lon="110.814364">
<time>2016-10-06T13:19:39Z</time></trkpt>
<trkpt lat="24.674256" lon="110.814203">
<time>2016-10-06T13:19:40Z</time></trkpt>
<trkpt lat="24.674084" lon="110.813202">
<time>2016-10-06T13:19:41Z</time></trkpt>
<trkpt lat="24.673922" lon="110.812041">
<time>2016-10-06T13:19:42Z</time></trkpt>
<trkpt lat="24.673962" lon="110.81182">
<time>2016-10-06T13:19:43Z</time></trkpt>
<trkpt lat="24.674041" lon="110.81149">
<time>2016-10-06T13:19:44Z</time></trkpt>
<trkpt lat="24.67422" lon="110.810599">
<time>2016-10-06T13:19:45Z</time></trkpt>
<trkpt lat="24.674339" lon="110.810018">
<time>2016-10-06T13:19:46Z</time></trkpt>
<trkpt lat="24.674427" lon="110.809077">
<time>2016-10-06T13:19:47Z</time></trkpt>
<trkpt lat="24.674437" lon="110.808947">
<time>2016-10-06T13:19:48Z</time></trkpt>
<trkpt lat="24.674426" lon="110.808777">
<time>2016-10-06T13:19:49Z</time></trkpt>
<trkpt lat="24.674436" lon="110.808627">
<time>2016-10-06T13:19:50Z</time></trkpt>
<trkpt lat="24.674446" lon="110.808526">
<time>2016-10-06T13:19:51Z</time></trkpt>
<trkpt lat="24.674456" lon="110.808476">
<time>2016-10-06T13:19:52Z</time></trkpt>
<trkpt lat="24.674535" lon="110.808216">
<time>2016-10-06T13:19:53Z</time></trkpt>
<trkpt lat="24.674635" lon="110.808016">
<time>2016-10-06T13:19:54Z</time></trkpt>
<trkpt lat="24.674844" lon="110.807485">
<time>2016-10-06T13:19:55Z</time></trkpt>
<trkpt lat="24.674904" lon="110.807335">
<time>2016-10-06T13:19:56Z</time></trkpt>
<trkpt lat="24.674924" lon="110.807275">
<time>2016-10-06T13:19:57Z</time></trkpt>
<trkpt lat="24.674943" lon="110.807215">
<time>2016-10-06T13:19:58Z</time></trkpt>
<trkpt lat="24.674983" lon="110.807015">
<time>2016-10-06T13:19:59Z</time></trkpt>
<trkpt lat="24.675032" lon="110.806654">
<time>2016-10-06T13:20:00Z</time></trkpt>
<trkpt lat="24.675042" lon="110.806594">
<time>2016-10-06T13:20:01Z</time></trkpt>
<trkpt lat="24.675052" lon="110.806564">
<time>2016-10-06T13:20:02Z</time></trkpt>
<trkpt lat="24.675072" lon="110.806534">
<time>2016-10-06T13:20:03Z</time></trkpt>
<trkpt lat="24.675102" lon="110.806494">
<time>2016-10-06T13:20:04Z</time></trkpt>
<trkpt lat="24.675132" lon="110.806474">
<time>2016-10-06T13:20:05Z</time></trkpt>
<trkpt lat="24.675152" lon="110.806454">
<time>2016-10-06T13:20:06Z</time></trkpt>
<trkpt lat="24.675182" lon="110.806454">
<time>2016-10-06T13:20:07Z</time></trkpt>
<trkpt lat="24.675232" lon="110.806444">
<time>2016-10-06T13:20:08Z</time></trkpt>
<trkpt lat="24.675422" lon="110.806454">
<time>2016-10-06T13:20:09Z</time></trkpt>
<trkpt lat="24.675472" lon="110.806454">
<time>2016-10-06T13:20:10Z</time></trkpt>
<trkpt lat="24.675482" lon="110.806454">
<time>2016-10-06T13:20:11Z</time></trkpt>
<trkpt lat="24.675492" lon="110.806454">
<time>2016-10-06T13:20:12Z</time></trkpt>
<trkpt lat="24.675492" lon="110.806444">
<time>2016-10-06T13:20:13Z</time></trkpt>
<trkpt lat="24.675502" lon="110.806444">
<time>2016-10-06T13:20:14Z</time></trkpt>
<trkpt lat="24.675512" lon="110.806424">
<time>2016-10-06T13:20:15Z</time></trkpt>
<trkpt lat="24.675532" lon="110.806354">
<time>2016-10-06T13:20:16Z</time></trkpt>
<trkpt lat="24.675542" lon="110.806334">
<time>2016-10-06T13:20:17Z</time></trkpt>
<trkpt lat="24.675562" lon="110.806314">
<time>2016-10-06T13:20:18Z</time></trkpt>
<trkpt lat="24.675572" lon="110.806304">
<time>2016-10-06T13:20:19Z</time></trkpt>
<trkpt lat="24.675602" lon="110.806284">
<time>2016-10-06T13:20:20Z</time></trkpt>
<trkpt lat="24.675822" lon="110.806214">
<time>2016-10-06T13:20:21Z</time></trkpt>
<trkpt lat="24.675992" lon="110.806164">
<time>2016-10-06T13:20:22Z</time></trkpt>
<trkpt lat="24.676091" lon="110.806114">
<time>2016-10-06T13:20:23Z</time></trkpt>
<trkpt lat="24.676131" lon="110.806094">
<time>2016-10-06T13:20:24Z</time></trkpt>
<trkpt lat="24.676161" lon="110.806074">
<time>2016-10-06T13:20:25Z</time></trkpt>
<trkpt lat="24.676171" lon="110.806064">
<time>2016-10-06T13:20:26Z</time></trkpt>
<trkpt lat="24.676181" lon="110.806054">
<time>2016-10-06T13:20:27Z</time></trkpt>
<trkpt lat="24.676181" lon="110.806043">
<time>2016-10-06T13:20:28Z</time></trkpt>
<trkpt lat="24.677214" lon="110.807765">
<time>2016-10-06T13:20:29Z</time></trkpt>
<trkpt lat="24.677244" lon="110.807785">
<time>2016-10-06T13:20:30Z</time></trkpt>
<trkpt lat="24.677284" lon="110.807795">
<time>2016-10-06T13:20:31Z</time></trkpt>
<trkpt lat="24.677324" lon="110.807795">
<time>2016-10-06T13:20:32Z</time></trkpt>
<trkpt lat="24.677354" lon="110.807785">
<time>2016-10-06T13:20:33Z</time></trkpt>
<trkpt lat="24.677944" lon="110.807395">
<time>2016-10-06T13:20:34Z</time></trkpt>
<trkpt lat="24.678493" lon="110.807115">
<time>2016-10-06T13:20:35Z</time></trkpt>
<trkpt lat="24.679073" lon="110.806934">
<time>2016-10-06T13:20:36Z</time></trkpt>
<trkpt lat="24.679193" lon="110.806914">
<time>2016-10-06T13:20:37Z</time></trkpt>
<trkpt lat="24.679293" lon="110.806914">
<time>2016-10-06T13:20:38Z</time></trkpt>
<trkpt lat="24.679523" lon="110.806934">
<time>2016-10-06T13:20:39Z</time></trkpt>
<trkpt lat="24.679963" lon="110.806934">
<time>2016-10-06T13:20:40Z</time></trkpt>
<trkpt lat="24.680603" lon="110.806954">
<time>2016-10-06T13:20:41Z</time></trkpt>
<trkpt lat="24.680683" lon="110.806964">
<time>2016-10-06T13:20:42Z</time></trkpt>
<trkpt lat="24.680773" lon="110.806964">
<time>2016-10-06T13:20:43Z</time></trkpt>
<trkpt lat="24.680863" lon="110.806944">
<time>2016-10-06T13:20:44Z</time></trkpt>
<trkpt lat="24.681602" lon="110.806574">
<time>2016-10-06T13:20:45Z</time></trkpt>
<trkpt lat="24.681882" lon="110.806434">
<time>2016-10-06T13:20:46Z</time></trkpt>
<trkpt lat="24.681982" lon="110.806394">
<time>2016-10-06T13:20:47Z</time></trkpt>
<trkpt lat="24.682562" lon="110.806193">
<time>2016-10-06T13:20:48Z</time></trkpt>
<trkpt lat="24.683181" lon="110.805873">
<time>2016-10-06T13:20:49Z</time></trkpt>
<trkpt lat="24.683251" lon="110.805843">
<time>2016-10-06T13:20:50Z</time></trkpt>
<trkpt lat="24.683301" lon="110.805833">
<time>2016-10-06T13:20:51Z</time></trkpt>
<trkpt lat="24.683361" lon="110.805823">
<time>2016-10-06T13:20:52Z</time></trkpt>
<trkpt lat="24.683411" lon="110.805823">
<time>2016-10-06T13:20:53Z</time></trkpt>
<trkpt lat="24.683481" lon="110.805833">
<time>2016-10-06T13:20:54Z</time></trkpt>
<trkpt lat="24.683601" lon="110.805863">
<time>2016-10-06T13:20:55Z</time></trkpt>
<trkpt lat="24.683771" lon="110.805913">
<time>2016-10-06T13:20:56Z</time></trkpt>
<trkpt lat="24.684011" lon="110.805983">
<time>2016-10-06T13:20:57Z</time></trkpt>
<trkpt lat="24.684101" lon="110.806013">
<time>2016-10-06T13:20:58Z</time></trkpt>
<trkpt lat="24.684151" lon="110.806023">
<time>2016-10-06T13:20:59Z</time></trkpt>
<trkpt lat="24.684191" lon="110.806023">
<time>2016-10-06T13:21:00Z</time></trkpt>
<trkpt lat="24.684271" lon="110.806023">
<time>2016-10-06T13:21:01Z</time></trkpt>
<trkpt lat="24.684301" lon="110.806013">
<time>2016-10-06T13:21:02Z</time></trkpt>
<trkpt lat="24.684331" lon="110.805993">
<time>2016-10-06T13:21:03Z</time></trkpt>
<trkpt lat="24.684411" lon="110.805943">
<time>2016-10-06T13:21:04Z</time></trkpt>
<trkpt lat="24.684451" lon="110.805913">
<time>2016-10-06T13:21:05Z</time></trkpt>
<trkpt lat="24.684491" lon="110.805863">
<time>2016-10-06T13:21:06Z</time></trkpt>
<trkpt lat="24.684581" lon="110.805753">
<time>2016-10-06T13:21:07Z</time></trkpt>
<trkpt lat="24.684631" lon="110.805693">
<time>2016-10-06T13:21:08Z</time></trkpt>
<trkpt lat="24.68466" lon="110.805643">
<time>2016-10-06T13:21:09Z</time></trkpt>
<trkpt lat="24.68478" lon="110.805402">
<time>2016-10-06T13:21:10Z</time></trkpt>
<trkpt lat="24.68482" lon="110.805332">
<time>2016-10-06T13:21:11Z</time></trkpt>
<trkpt lat="24.6849" lon="110.805202">
<time>2016-10-06T13:21:12Z</time></trkpt>
<trkpt lat="24.68493" lon="110.805182">
<time>2016-10-06T13:21:13Z</time></trkpt>
<trkpt lat="24.68495" lon="110.805162">
<time>2016-10-06T13:21:14Z</time></trkpt>
<trkpt lat="24.68498" lon="110.805162">
<time>2016-10-06T13:21:15Z</time></trkpt>
<trkpt lat="24.6851" lon="110.805142">
<time>2016-10-06T13:21:16Z</time></trkpt>
<trkpt lat="24.68516" lon="110.805122">
<time>2016-10-06T13:21:17Z</time></trkpt>
<trkpt lat="24.6852" lon="110.805102">
<time>2016-10-06T13:21:18Z</time></trkpt>
<trkpt lat="24.685259" lon="110.805072">
<time>2016-10-06T13:21:19Z</time></trkpt>
<trkpt lat="24.685349" lon="110.805002">
<time>2016-10-06T13:21:20Z</time></trkpt>
<trkpt lat="24.685459" lon="110.804912">
<time>2016-10-06T13:21:21Z</time></trkpt>
<trkpt lat="24.685519" lon="110.804872">
<time>2016-10-06T13:21:22Z</time></trkpt>
<trkpt lat="24.685589" lon="110.804842">
<time>2016-10-06T13:21:23Z</time></trkpt>
<trkpt lat="24.685639" lon="110.804822">
<time>2016-10-06T13:21:24Z</time></trkpt>
<trkpt lat="24.685749" lon="110.804811">
<time>2016-10-06T13:21:25Z</time></trkpt>
<trkpt lat="24.685879" lon="110.804791">
<time>2016-10-06T13:21:26Z</time></trkpt>
<trkpt lat="24.685979" lon="110.804771">
<time>2016-10-06T13:21:27Z</time></trkpt>
<trkpt lat="24.686019" lon="110.804751">
<time>2016-10-06T13:21:28Z</time></trkpt>
<trkpt lat="24.686079" lon="110.804721">
<time>2016-10-06T13:21:29Z</time></trkpt>
<trkpt lat="24.686149" lon="110.804651">
<time>2016-10-06T13:21:30Z</time></trkpt>
<trkpt lat="24.686189" lon="110.804601">
<time>2016-10-06T13:21:31Z</time></trkpt>
<trkpt lat="24.686229" lon="110.804541">
<time>2016-10-06T13:21:32Z</time></trkpt>
<trkpt lat="24.686258" lon="110.804501">
<time>2016-10-06T13:21:33Z</time></trkpt>
<trkpt lat="24.686288" lon="110.804471">
<time>2016-10-06T13:21:34Z</time></trkpt>
<trkpt lat="24.686328" lon="110.804461">
<time>2016-10-06T13:21:35Z</time></trkpt>
<trkpt lat="24.686438" lon="110.804421">
<time>2016-10-06T13:21:36Z</time></trkpt>
<trkpt lat="24.686458" lon="110.804411">
<time>2016-10-06T13:21:37Z</time></trkpt>
<trkpt lat="24.686478" lon="110.804401">
<time>2016-10-06T13:21:38Z</time></trkpt>
<trkpt lat="24.686478" lon="110.804391">
<time>2016-10-06T13:21:39Z</time></trkpt>
<trkpt lat="24.686478" lon="110.804381">
<time>2016-10-06T13:21:40Z</time></trkpt>
<trkpt lat="24.686488" lon="110.804381">
<time>2016-10-06T13:21:41Z</time></trkpt>
<trkpt lat="24.686488" lon="110.804371">
<time>2016-10-06T13:21:42Z</time></trkpt>
<trkpt lat="24.686498" lon="110.804291">
<time>2016-10-06T13:21:43Z</time></trkpt>
<trkpt lat="24.686508" lon="110.804171">
<time>2016-10-06T13:21:44Z</time></trkpt>
<trkpt lat="24.686548" lon="110.803991">
<time>2016-10-06T13:21:45Z</time></trkpt>
<trkpt lat="24.686597" lon="110.80384">
<time>2016-10-06T13:21:46Z</time></trkpt>
<trkpt lat="24.686667" lon="110.80371">
<time>2016-10-06T13:21:47Z</time></trkpt>
<trkpt lat="24.686727" lon="110.80363">
<time>2016-10-06T13:21:48Z</time></trkpt>
<trkpt lat="24.686887" lon="110.80349">
<time>2016-10-06T13:21:49Z</time></trkpt>
<trkpt lat="24.686937" lon="110.80344">
<time>2016-10-06T13:21:50Z</time></trkpt>
<trkpt lat="24.687046" lon="110.80333">
<time>2016-10-06T13:21:51Z</time></trkpt>
<trkpt lat="24.687096" lon="110.8033">
<time>2016-10-06T13:21:52Z</time></trkpt>
<trkpt lat="24.687356" lon="110.80316">
<time>2016-10-06T13:21:53Z</time></trkpt>
<trkpt lat="24.687506" lon="110.803069">
<time>2016-10-06T13:21:54Z</time></trkpt>
<trkpt lat="24.687995" lon="110.802719">
<time>2016-10-06T13:21:55Z</time></trkpt>
<trkpt lat="24.688245" lon="110.802569">
<time>2016-10-06T13:21:56Z</time></trkpt>
<trkpt lat="24.688365" lon="110.802519">
<time>2016-10-06T13:21:57Z</time></trkpt>
<trkpt lat="24.688785" lon="110.802379">
<time>2016-10-06T13:21:58Z</time></trkpt>
<trkpt lat="24.688945" lon="110.802319">
<time>2016-10-06T13:21:59Z</time></trkpt>
<trkpt lat="24.688975" lon="110.802299">
<time>2016-10-06T13:22:00Z</time></trkpt>
<trkpt lat="24.689144" lon="110.802238">
<time>2016-10-06T13:22:01Z</time></trkpt>
<trkpt lat="24.689144" lon="110.802238">
<time>2016-10-06T13:22:02Z</time></trkpt>
<trkpt lat="24.689044" lon="110.802118">
<time>2016-10-06T13:22:03Z</time></trkpt>
<trkpt lat="24.688864" lon="110.801918">
<time>2016-10-06T13:22:04Z</time></trkpt>
<trkpt lat="24.688664" lon="110.801688">
<time>2016-10-06T13:22:05Z</time></trkpt>
<trkpt lat="24.688453" lon="110.801488">
<time>2016-10-06T13:22:06Z</time></trkpt>
<trkpt lat="24.688243" lon="110.801287">
<time>2016-10-06T13:22:07Z</time></trkpt>
<trkpt lat="24.688023" lon="110.801087">
<time>2016-10-06T13:22:08Z</time></trkpt>
<trkpt lat="24.687822" lon="110.800887">
<time>2016-10-06T13:22:09Z</time></trkpt>
<trkpt lat="24.687632" lon="110.800697">
<time>2016-10-06T13:22:10Z</time></trkpt>
<trkpt lat="24.687452" lon="110.800487">
<time>2016-10-06T13:22:11Z</time></trkpt>
<trkpt lat="24.687452" lon="110.800487">
<time>2016-10-06T13:22:12Z</time></trkpt>
<trkpt lat="24.687711" lon="110.800046">
<time>2016-10-06T13:22:13Z</time></trkpt>
<trkpt lat="24.68795" lon="110.799766">
<time>2016-10-06T13:22:14Z</time></trkpt>
<trkpt lat="24.68803" lon="110.799696">
<time>2016-10-06T13:22:15Z</time></trkpt>
<trkpt lat="24.68804" lon="110.799686">
<time>2016-10-06T13:22:16Z</time></trkpt>
<trkpt lat="24.68807" lon="110.799676">
<time>2016-10-06T13:22:17Z</time></trkpt>
<trkpt lat="24.6881" lon="110.799666">
<time>2016-10-06T13:22:18Z</time></trkpt>
<trkpt lat="24.68815" lon="110.799666">
<time>2016-10-06T13:22:19Z</time></trkpt>
<trkpt lat="24.6883" lon="110.799656">
<time>2016-10-06T13:22:20Z</time></trkpt>
<trkpt lat="24.68886" lon="110.799616">
<time>2016-10-06T13:22:21Z</time></trkpt>
<trkpt lat="24.68902" lon="110.799596">
<time>2016-10-06T13:22:22Z</time></trkpt>
<trkpt lat="24.68913" lon="110.799586">
<time>2016-10-06T13:22:23Z</time></trkpt>
<trkpt lat="24.68916" lon="110.799586">
<time>2016-10-06T13:22:24Z</time></trkpt>
<trkpt lat="24.68924" lon="110.799566">
<time>2016-10-06T13:22:25Z</time></trkpt>
<trkpt lat="24.68932" lon="110.799526">
<time>2016-10-06T13:22:26Z</time></trkpt>
<trkpt lat="24.6894" lon="110.799495">
<time>2016-10-06T13:22:27Z</time></trkpt>
<trkpt lat="24.68943" lon="110.799485">
<time>2016-10-06T13:22:28Z</time></trkpt>
<trkpt lat="24.68945" lon="110.799465">
<time>2016-10-06T13:22:29Z</time></trkpt>
<trkpt lat="24.68947" lon="110.799445">
<time>2016-10-06T13:22:30Z</time></trkpt>
<trkpt lat="24.68948" lon="110.799415">
<time>2016-10-06T13:22:31Z</time></trkpt>
<trkpt lat="24.68949" lon="110.799385">
<time>2016-10-06T13:22:32Z</time></trkpt>
<trkpt lat="24.68951" lon="110.799325">
<time>2016-10-06T13:22:33Z</time></trkpt>
<trkpt lat="24.689519" lon="110.799215">
<time>2016-10-06T13:22:34Z</time></trkpt>
<trkpt lat="24.689529" lon="110.799155">
<time>2016-10-06T13:22:35Z</time></trkpt>
<trkpt lat="24.689539" lon="110.799095">
<time>2016-10-06T13:22:36Z</time></trkpt>
<trkpt lat="24.689549" lon="110.798975">
<time>2016-10-06T13:22:37Z</time></trkpt>
<trkpt lat="24.689569" lon="110.798885">
<time>2016-10-06T13:22:38Z</time></trkpt>
<trkpt lat="24.689579" lon="110.798805">
<time>2016-10-06T13:22:39Z</time></trkpt>
<trkpt lat="24.689599" lon="110.798755">
<time>2016-10-06T13:22:40Z</time></trkpt>
<trkpt lat="24.689619" lon="110.798735">
<time>2016-10-06T13:22:41Z</time></trkpt>
<trkpt lat="24.689639" lon="110.798725">
<time>2016-10-06T13:22:42Z</time></trkpt>
<trkpt lat="24.689668" lon="110.798705">
<time>2016-10-06T13:22:43Z</time></trkpt>
<trkpt lat="24.689758" lon="110.798675">
<time>2016-10-06T13:22:44Z</time></trkpt>
<trkpt lat="24.689908" lon="110.798615">
<time>2016-10-06T13:22:45Z</time></trkpt>
<trkpt lat="24.690148" lon="110.798524">
<time>2016-10-06T13:22:46Z</time></trkpt>
<trkpt lat="24.690198" lon="110.798504">
<time>2016-10-06T13:22:47Z</time></trkpt>
<trkpt lat="24.690278" lon="110.798464">
<time>2016-10-06T13:22:48Z</time></trkpt>
<trkpt lat="24.690328" lon="110.798424">
<time>2016-10-06T13:22:49Z</time></trkpt>
<trkpt lat="24.690388" lon="110.798374">
<time>2016-10-06T13:22:50Z</time></trkpt>
<trkpt lat="24.690468" lon="110.798304">
<time>2016-10-06T13:22:51Z</time></trkpt>
<trkpt lat="24.690578" lon="110.798184">
<time>2016-10-06T13:22:52Z</time></trkpt>
<trkpt lat="24.690628" lon="110.798124">
<time>2016-10-06T13:22:53Z</time></trkpt>
<trkpt lat="24.690757" lon="110.798014">
<time>2016-10-06T13:22:54Z</time></trkpt>
<trkpt lat="24.690867" lon="110.797934">
<time>2016-10-06T13:22:55Z</time></trkpt>
<trkpt lat="24.690887" lon="110.797924">
<time>2016-10-06T13:22:56Z</time></trkpt>
<trkpt lat="24.691037" lon="110.797844">
<time>2016-10-06T13:22:57Z</time></trkpt>
<trkpt lat="24.691187" lon="110.797784">
<time>2016-10-06T13:22:58Z</time></trkpt>
<trkpt lat="24.691357" lon="110.797744">
<time>2016-10-06T13:22:59Z</time></trkpt>
<trkpt lat="24.691427" lon="110.797724">
<time>2016-10-06T13:23:00Z</time></trkpt>
<trkpt lat="24.691527" lon="110.797694">
<time>2016-10-06T13:23:01Z</time></trkpt>
<trkpt lat="24.691677" lon="110.797643">
<time>2016-10-06T13:23:02Z</time></trkpt>
<trkpt lat="24.691697" lon="110.797633">
<time>2016-10-06T13:23:03Z</time></trkpt>
<trkpt lat="24.691737" lon="110.797603">
<time>2016-10-06T13:23:04Z</time></trkpt>
<trkpt lat="24.691846" lon="110.797523">
<time>2016-10-06T13:23:05Z</time></trkpt>
<trkpt lat="24.691946" lon="110.797453">
<time>2016-10-06T13:23:06Z</time></trkpt>
<trkpt lat="24.692066" lon="110.797363">
<time>2016-10-06T13:23:07Z</time></trkpt>
<trkpt lat="24.692146" lon="110.797273">
<time>2016-10-06T13:23:08Z</time></trkpt>
<trkpt lat="24.692206" lon="110.797203">
<time>2016-10-06T13:23:09Z</time></trkpt>
<trkpt lat="24.692336" lon="110.796993">
<time>2016-10-06T13:23:10Z</time></trkpt>
<trkpt lat="24.692385" lon="110.796883">
<time>2016-10-06T13:23:11Z</time></trkpt>
<trkpt lat="24.692395" lon="110.796843">
<time>2016-10-06T13:23:12Z</time></trkpt>
<trkpt lat="24.692395" lon="110.796813">
<time>2016-10-06T13:23:13Z</time></trkpt>
<trkpt lat="24.692395" lon="110.796793">
<time>2016-10-06T13:23:14Z</time></trkpt>
<trkpt lat="24.692385" lon="110.796733">
<time>2016-10-06T13:23:15Z</time></trkpt>
<trkpt lat="24.692355" lon="110.796672">
<time>2016-10-06T13:23:16Z</time></trkpt>
<trkpt lat="24.692255" lon="110.796532">
<time>2016-10-06T13:23:17Z</time></trkpt>
<trkpt lat="24.692225" lon="110.796492">
<time>2016-10-06T13:23:18Z</time></trkpt>
<trkpt lat="24.692115" lon="110.796382">
<time>2016-10-06T13:23:19Z</time></trkpt>
<trkpt lat="24.692085" lon="110.796332">
<time>2016-10-06T13:23:20Z</time></trkpt>
<trkpt lat="24.692054" lon="110.796262">
<time>2016-10-06T13:23:21Z</time></trkpt>
<trkpt lat="24.691984" lon="110.796012">
<time>2016-10-06T13:23:22Z</time></trkpt>
<trkpt lat="24.691934" lon="110.795832">
<time>2016-10-06T13:23:23Z</time></trkpt>
<trkpt lat="24.691914" lon="110.795682">
<time>2016-10-06T13:23:24Z</time></trkpt>
<trkpt lat="24.691903" lon="110.795571">
<time>2016-10-06T13:23:25Z</time></trkpt>
<trkpt lat="24.691913" lon="110.795261">
<time>2016-10-06T13:23:26Z</time></trkpt>
<trkpt lat="24.691922" lon="110.795031">
<time>2016-10-06T13:23:27Z</time></trkpt>
<trkpt lat="24.691952" lon="110.794931">
<time>2016-10-06T13:23:28Z</time></trkpt>
<trkpt lat="24.692022" lon="110.794761">
<time>2016-10-06T13:23:29Z</time></trkpt>
<trkpt lat="24.692112" lon="110.79459">
<time>2016-10-06T13:23:30Z</time></trkpt>
<trkpt lat="24.692221" lon="110.79439">
<time>2016-10-06T13:23:31Z</time></trkpt>
<trkpt lat="24.692331" lon="110.79426">
<time>2016-10-06T13:23:32Z</time></trkpt>
<trkpt lat="24.692421" lon="110.79413">
<time>2016-10-06T13:23:33Z</time></trkpt>
<trkpt lat="24.692501" lon="110.79405">
<time>2016-10-06T13:23:34Z</time></trkpt>
<trkpt lat="24.692531" lon="110.79402">
<time>2016-10-06T13:23:35Z</time></trkpt>
<trkpt lat="24.692631" lon="110.79396">
<time>2016-10-06T13:23:36Z</time></trkpt>
<trkpt lat="24.692741" lon="110.79388">
<time>2016-10-06T13:23:37Z</time></trkpt>
<trkpt lat="24.69293" lon="110.79378">
<time>2016-10-06T13:23:38Z</time></trkpt>
<trkpt lat="24.69296" lon="110.79376">
<time>2016-10-06T13:23:39Z</time></trkpt>
<trkpt lat="24.69307" lon="110.79367">
<time>2016-10-06T13:23:40Z</time></trkpt>
<trkpt lat="24.69314" lon="110.79363">
<time>2016-10-06T13:23:41Z</time></trkpt>
<trkpt lat="24.69335" lon="110.793469">
<time>2016-10-06T13:23:42Z</time></trkpt>
<trkpt lat="24.69341" lon="110.793429">
<time>2016-10-06T13:23:43Z</time></trkpt>
<trkpt lat="24.69351" lon="110.793379">
<time>2016-10-06T13:23:44Z</time></trkpt>
<trkpt lat="24.69365" lon="110.793319">
<time>2016-10-06T13:23:45Z</time></trkpt>
<trkpt lat="24.69372" lon="110.793269">
<time>2016-10-06T13:23:46Z</time></trkpt>
<trkpt lat="24.69379" lon="110.793219">
<time>2016-10-06T13:23:47Z</time></trkpt>
<trkpt lat="24.693929" lon="110.793109">
<time>2016-10-06T13:23:48Z</time></trkpt>
<trkpt lat="24.694179" lon="110.792959">
<time>2016-10-06T13:23:49Z</time></trkpt>
<trkpt lat="24.694249" lon="110.792919">
<time>2016-10-06T13:23:50Z</time></trkpt>
<trkpt lat="24.694309" lon="110.792869">
<time>2016-10-06T13:23:51Z</time></trkpt>
<trkpt lat="24.694319" lon="110.792849">
<time>2016-10-06T13:23:52Z</time></trkpt>
<trkpt lat="24.694349" lon="110.792809">
<time>2016-10-06T13:23:53Z</time></trkpt>
<trkpt lat="24.694359" lon="110.792749">
<time>2016-10-06T13:23:54Z</time></trkpt>
<trkpt lat="24.694369" lon="110.792629">
<time>2016-10-06T13:23:55Z</time></trkpt>
<trkpt lat="24.694368" lon="110.792458">
<time>2016-10-06T13:23:56Z</time></trkpt>
<trkpt lat="24.694348" lon="110.792308">
<time>2016-10-06T13:23:57Z</time></trkpt>
<trkpt lat="24.694308" lon="110.792148">
<time>2016-10-06T13:23:58Z</time></trkpt>
<trkpt lat="24.694308" lon="110.792088">
<time>2016-10-06T13:23:59Z</time></trkpt>
<trkpt lat="24.694308" lon="110.792048">
<time>2016-10-06T13:24:00Z</time></trkpt>
<trkpt lat="24.694328" lon="110.792008">
<time>2016-10-06T13:24:01Z</time></trkpt>
<trkpt lat="24.694378" lon="110.791898">
<time>2016-10-06T13:24:02Z</time></trkpt>
<trkpt lat="24.694388" lon="110.791878">
<time>2016-10-06T13:24:03Z</time></trkpt>
<trkpt lat="24.694387" lon="110.791868">
<time>2016-10-06T13:24:04Z</time></trkpt>
<trkpt lat="24.694397" lon="110.791848">
<time>2016-10-06T13:24:05Z</time></trkpt>
<trkpt lat="24.694397" lon="110.791828">
<time>2016-10-06T13:24:06Z</time></trkpt>
<trkpt lat="24.694397" lon="110.791808">
<time>2016-10-06T13:24:07Z</time></trkpt>
<trkpt lat="24.694387" lon="110.791778">
<time>2016-10-06T13:24:08Z</time></trkpt>
<trkpt lat="24.694367" lon="110.791738">
<time>2016-10-06T13:24:09Z</time></trkpt>
<trkpt lat="24.694297" lon="110.791608">
<time>2016-10-06T13:24:10Z</time></trkpt>
<trkpt lat="24.694197" lon="110.791458">
<time>2016-10-06T13:24:11Z</time></trkpt>
<trkpt lat="24.694117" lon="110.791307">
<time>2016-10-06T13:24:12Z</time></trkpt>
<trkpt lat="24.694006" lon="110.791017">
<time>2016-10-06T13:24:13Z</time></trkpt>
<trkpt lat="24.693976" lon="110.790867">
<time>2016-10-06T13:24:14Z</time></trkpt>
<trkpt lat="24.693956" lon="110.790687">
<time>2016-10-06T13:24:15Z</time></trkpt>
<trkpt lat="24.693946" lon="110.790587">
<time>2016-10-06T13:24:16Z</time></trkpt>
<trkpt lat="24.693965" lon="110.790477">
<time>2016-10-06T13:24:17Z</time></trkpt>
<trkpt lat="24.693975" lon="110.790437">
<time>2016-10-06T13:24:18Z</time></trkpt>
<trkpt lat="24.694015" lon="110.790367">
<time>2016-10-06T13:24:19Z</time></trkpt>
<trkpt lat="24.694055" lon="110.790297">
<time>2016-10-06T13:24:20Z</time></trkpt>
<trkpt lat="24.694125" lon="110.790216">
<time>2016-10-06T13:24:21Z</time></trkpt>
<trkpt lat="24.694215" lon="110.790126">
<time>2016-10-06T13:24:22Z</time></trkpt>
<trkpt lat="24.694275" lon="110.790086">
<time>2016-10-06T13:24:23Z</time></trkpt>
<trkpt lat="24.694305" lon="110.790066">
<time>2016-10-06T13:24:24Z</time></trkpt>
<trkpt lat="24.694345" lon="110.790046">
<time>2016-10-06T13:24:25Z</time></trkpt>
<trkpt lat="24.694365" lon="110.790046">
<time>2016-10-06T13:24:26Z</time></trkpt>
<trkpt lat="24.694455" lon="110.790026">
<time>2016-10-06T13:24:27Z</time></trkpt>
<trkpt lat="24.694505" lon="110.790016">
<time>2016-10-06T13:24:28Z</time></trkpt>
<trkpt lat="24.694605" lon="110.790026">
<time>2016-10-06T13:24:29Z</time></trkpt>
<trkpt lat="24.694665" lon="110.790016">
<time>2016-10-06T13:24:30Z</time></trkpt>
<trkpt lat="24.694805" lon="110.790036">
<time>2016-10-06T13:24:31Z</time></trkpt>
<trkpt lat="24.694875" lon="110.790036">
<time>2016-10-06T13:24:32Z</time></trkpt>
<trkpt lat="24.694945" lon="110.790026">
<time>2016-10-06T13:24:33Z</time></trkpt>
<trkpt lat="24.695055" lon="110.790006">
<time>2016-10-06T13:24:34Z</time></trkpt>
<trkpt lat="24.695265" lon="110.789956">
<time>2016-10-06T13:24:35Z</time></trkpt>
<trkpt lat="24.695395" lon="110.789916">
<time>2016-10-06T13:24:36Z</time></trkpt>
<trkpt lat="24.695514" lon="110.789866">
<time>2016-10-06T13:24:37Z</time></trkpt>
<trkpt lat="24.695664" lon="110.789806">
<time>2016-10-06T13:24:38Z</time></trkpt>
<trkpt lat="24.695884" lon="110.789746">
<time>2016-10-06T13:24:39Z</time></trkpt>
<trkpt lat="24.695994" lon="110.789726">
<time>2016-10-06T13:24:40Z</time></trkpt>
<trkpt lat="24.696054" lon="110.789706">
<time>2016-10-06T13:24:41Z</time></trkpt>
<trkpt lat="24.696124" lon="110.789666">
<time>2016-10-06T13:24:42Z</time></trkpt>
<trkpt lat="24.696314" lon="110.789536">
<time>2016-10-06T13:24:43Z</time></trkpt>
<trkpt lat="24.696384" lon="110.789476">
<time>2016-10-06T13:24:44Z</time></trkpt>
<trkpt lat="24.696524" lon="110.789336">
<time>2016-10-06T13:24:45Z</time></trkpt>
<trkpt lat="24.696663" lon="110.789175">
<time>2016-10-06T13:24:46Z</time></trkpt>
<trkpt lat="24.696763" lon="110.789065">
<time>2016-10-06T13:24:47Z</time></trkpt>
<trkpt lat="24.696883" lon="110.788885">
<time>2016-10-06T13:24:48Z</time></trkpt>
<trkpt lat="24.696893" lon="110.788835">
<time>2016-10-06T13:24:49Z</time></trkpt>
<trkpt lat="24.696903" lon="110.788815">
<time>2016-10-06T13:24:50Z</time></trkpt>
<trkpt lat="24.696903" lon="110.788805">
<time>2016-10-06T13:24:51Z</time></trkpt>
<trkpt lat="24.696903" lon="110.788785">
<time>2016-10-06T13:24:52Z</time></trkpt>
<trkpt lat="24.696903" lon="110.788765">
<time>2016-10-06T13:24:53Z</time></trkpt>
<trkpt lat="24.696893" lon="110.788755">
<time>2016-10-06T13:24:54Z</time></trkpt>
<trkpt lat="24.696883" lon="110.788725">
<time>2016-10-06T13:24:55Z</time></trkpt>
<trkpt lat="24.696843" lon="110.788675">
<time>2016-10-06T13:24:56Z</time></trkpt>
<trkpt lat="24.696833" lon="110.788655">
<time>2016-10-06T13:24:57Z</time></trkpt>
<trkpt lat="24.696833" lon="110.788645">
<time>2016-10-06T13:24:58Z</time></trkpt>
<trkpt lat="24.696823" lon="110.788625">
<time>2016-10-06T13:24:59Z</time></trkpt>
<trkpt lat="24.696823" lon="110.788605">
<time>2016-10-06T13:25:00Z</time></trkpt>
<trkpt lat="24.696833" lon="110.788595">
<time>2016-10-06T13:25:01Z</time></trkpt>
<trkpt lat="24.696843" lon="110.788575">
<time>2016-10-06T13:25:02Z</time></trkpt>
<trkpt lat="24.696882" lon="110.788515">
<time>2016-10-06T13:25:03Z</time></trkpt>
<trkpt lat="24.696952" lon="110.788405">
<time>2016-10-06T13:25:04Z</time></trkpt>
<trkpt lat="24.696962" lon="110.788395">
<time>2016-10-06T13:25:05Z</time></trkpt>
<trkpt lat="24.696962" lon="110.788375">
<time>2016-10-06T13:25:06Z</time></trkpt>
<trkpt lat="24.696992" lon="110.788315">
<time>2016-10-06T13:25:07Z</time></trkpt>
<trkpt lat="24.697032" lon="110.788155">
<time>2016-10-06T13:25:08Z</time></trkpt>
<trkpt lat="24.697062" lon="110.788065">
<time>2016-10-06T13:25:09Z</time></trkpt>
<trkpt lat="24.697112" lon="110.787914">
<time>2016-10-06T13:25:10Z</time></trkpt>
<trkpt lat="24.697151" lon="110.787784">
<time>2016-10-06T13:25:11Z</time></trkpt>
<trkpt lat="24.697171" lon="110.787684">
<time>2016-10-06T13:25:12Z</time></trkpt>
<trkpt lat="24.697211" lon="110.787494">
<time>2016-10-06T13:25:13Z</time></trkpt>
<trkpt lat="24.697261" lon="110.787334">
<time>2016-10-06T13:25:14Z</time></trkpt>
<trkpt lat="24.697291" lon="110.787254">
<time>2016-10-06T13:25:15Z</time></trkpt>
<trkpt lat="24.697311" lon="110.787214">
<time>2016-10-06T13:25:16Z</time></trkpt>
<trkpt lat="24.697341" lon="110.787174">
<time>2016-10-06T13:25:17Z</time></trkpt>
<trkpt lat="24.697371" lon="110.787154">
<time>2016-10-06T13:25:18Z</time></trkpt>
<trkpt lat="24.697391" lon="110.787144">
<time>2016-10-06T13:25:19Z</time></trkpt>
<trkpt lat="24.69742" lon="110.787134">
<time>2016-10-06T13:25:20Z</time></trkpt>
<trkpt lat="24.69749" lon="110.787124">
<time>2016-10-06T13:25:21Z</time></trkpt>
<trkpt lat="24.69753" lon="110.787114">
<time>2016-10-06T13:25:22Z</time></trkpt>
<trkpt lat="24.69754" lon="110.787114">
<time>2016-10-06T13:25:23Z</time></trkpt>
<trkpt lat="24.69756" lon="110.787104">
<time>2016-10-06T13:25:24Z</time></trkpt>
<trkpt lat="24.69757" lon="110.787104">
<time>2016-10-06T13:25:25Z</time></trkpt>
<trkpt lat="24.69758" lon="110.787084">
<time>2016-10-06T13:25:26Z</time></trkpt>
<trkpt lat="24.69763" lon="110.787014">
<time>2016-10-06T13:25:27Z</time></trkpt>
<trkpt lat="24.69767" lon="110.786944">
<time>2016-10-06T13:25:28Z</time></trkpt>
<trkpt lat="24.69778" lon="110.786764">
<time>2016-10-06T13:25:29Z</time></trkpt>
<trkpt lat="24.69796" lon="110.786533">
<time>2016-10-06T13:25:30Z</time></trkpt>
<trkpt lat="24.69798" lon="110.786513">
<time>2016-10-06T13:25:31Z</time></trkpt>
<trkpt lat="24.698089" lon="110.786403">
<time>2016-10-06T13:25:32Z</time></trkpt>
<trkpt lat="24.698109" lon="110.786383">
<time>2016-10-06T13:25:33Z</time></trkpt>
<trkpt lat="24.698129" lon="110.786353">
<time>2016-10-06T13:25:34Z</time></trkpt>
<trkpt lat="24.698139" lon="110.786333">
<time>2016-10-06T13:25:35Z</time></trkpt>
<trkpt lat="24.698159" lon="110.786303">
<time>2016-10-06T13:25:36Z</time></trkpt>
<trkpt lat="24.698159" lon="110.786273">
<time>2016-10-06T13:25:37Z</time></trkpt>
<trkpt lat="24.698169" lon="110.786243">
<time>2016-10-06T13:25:38Z</time></trkpt>
<trkpt lat="24.698199" lon="110.786113">
<time>2016-10-06T13:25:39Z</time></trkpt>
<trkpt lat="24.698209" lon="110.786053">
<time>2016-10-06T13:25:40Z</time></trkpt>
<trkpt lat="24.698219" lon="110.786003">
<time>2016-10-06T13:25:41Z</time></trkpt>
<trkpt lat="24.698239" lon="110.785953">
<time>2016-10-06T13:25:42Z</time></trkpt>
<trkpt lat="24.698279" lon="110.785853">
<time>2016-10-06T13:25:43Z</time></trkpt>
<trkpt lat="24.698299" lon="110.785823">
<time>2016-10-06T13:25:44Z</time></trkpt>
<trkpt lat="24.698319" lon="110.785803">
<time>2016-10-06T13:25:45Z</time></trkpt>
<trkpt lat="24.698339" lon="110.785783">
<time>2016-10-06T13:25:46Z</time></trkpt>
<trkpt lat="24.698448" lon="110.785693">
<time>2016-10-06T13:25:47Z</time></trkpt>
<trkpt lat="24.698528" lon="110.785643">
<time>2016-10-06T13:25:48Z</time></trkpt>
<trkpt lat="24.698528" lon="110.785643">
<time>2016-10-06T13:25:49Z</time></trkpt>
<trkpt lat="24.698498" lon="110.785553">
<time>2016-10-06T13:25:50Z</time></trkpt>
<trkpt lat="24.698478" lon="110.785473">
<time>2016-10-06T13:25:51Z</time></trkpt>
<trkpt lat="24.698468" lon="110.785453">
<time>2016-10-06T13:25:52Z</time></trkpt>
<trkpt lat="24.698448" lon="110.785422">
<time>2016-10-06T13:25:53Z</time></trkpt>
<trkpt lat="24.698418" lon="110.785392">
<time>2016-10-06T13:25:54Z</time></trkpt>
<trkpt lat="24.698308" lon="110.785302">
<time>2016-10-06T13:25:55Z</time></trkpt>
<trkpt lat="24.698138" lon="110.785152">
<time>2016-10-06T13:25:56Z</time></trkpt>
<trkpt lat="24.698108" lon="110.785122">
<time>2016-10-06T13:25:57Z</time></trkpt>
<trkpt lat="24.698068" lon="110.785052">
<time>2016-10-06T13:25:58Z</time></trkpt>
<trkpt lat="24.697947" lon="110.784872">
<time>2016-10-06T13:25:59Z</time></trkpt>
<trkpt lat="24.697907" lon="110.784812">
<time>2016-10-06T13:26:00Z</time></trkpt>
<trkpt lat="24.697907" lon="110.784782">
<time>2016-10-06T13:26:01Z</time></trkpt>
<trkpt lat="24.697897" lon="110.784752">
<time>2016-10-06T13:26:02Z</time></trkpt>
<trkpt lat="24.697897" lon="110.784702">
<time>2016-10-06T13:26:03Z</time></trkpt>
<trkpt lat="24.697917" lon="110.784642">
<time>2016-10-06T13:26:04Z</time></trkpt>
<trkpt lat="24.697927" lon="110.784592">
<time>2016-10-06T13:26:05Z</time></trkpt>
<trkpt lat="24.697937" lon="110.784542">
<time>2016-10-06T13:26:06Z</time></trkpt>
<trkpt lat="24.697937" lon="110.784492">
<time>2016-10-06T13:26:07Z</time></trkpt>
<trkpt lat="24.697937" lon="110.784472">
<time>2016-10-06T13:26:08Z</time></trkpt>
<trkpt lat="24.697927" lon="110.784322">
<time>2016-10-06T13:26:09Z</time></trkpt>
<trkpt lat="24.697916" lon="110.784182">
<time>2016-10-06T13:26:10Z</time></trkpt>
<trkpt lat="24.697916" lon="110.784012">
<time>2016-10-06T13:26:11Z</time></trkpt>
<trkpt lat="24.697916" lon="110.783901">
<time>2016-10-06T13:26:12Z</time></trkpt>
<trkpt lat="24.697916" lon="110.783831">
<time>2016-10-06T13:26:13Z</time></trkpt>
<trkpt lat="24.697916" lon="110.783771">
<time>2016-10-06T13:26:14Z</time></trkpt>
<trkpt lat="24.697886" lon="110.783661">
<time>2016-10-06T13:26:15Z</time></trkpt>
<trkpt lat="24.697846" lon="110.783551">
<time>2016-10-06T13:26:16Z</time></trkpt>
<trkpt lat="24.697806" lon="110.783481">
<time>2016-10-06T13:26:17Z</time></trkpt>
<trkpt lat="24.697705" lon="110.783371">
<time>2016-10-06T13:26:18Z</time></trkpt>
<trkpt lat="24.697615" lon="110.783261">
<time>2016-10-06T13:26:19Z</time></trkpt>
<trkpt lat="24.697505" lon="110.783061">
<time>2016-10-06T13:26:20Z</time></trkpt>
<trkpt lat="24.697485" lon="110.783021">
<time>2016-10-06T13:26:21Z</time></trkpt>
<trkpt lat="24.697455" lon="110.782951">
<time>2016-10-06T13:26:22Z</time></trkpt>
<trkpt lat="24.697425" lon="110.782831">
<time>2016-10-06T13:26:23Z</time></trkpt>
<trkpt lat="24.697415" lon="110.782791">
<time>2016-10-06T13:26:24Z</time></trkpt>
<trkpt lat="24.697405" lon="110.782761">
<time>2016-10-06T13:26:25Z</time></trkpt>
<trkpt lat="24.697395" lon="110.782751">
<time>2016-10-06T13:26:26Z</time></trkpt>
<trkpt lat="24.697375" lon="110.782721">
<time>2016-10-06T13:26:27Z</time></trkpt>
<trkpt lat="24.697355" lon="110.782721">
<time>2016-10-06T13:26:28Z</time></trkpt>
<trkpt lat="24.697325" lon="110.782711">
<time>2016-10-06T13:26:29Z</time></trkpt>
<trkpt lat="24.697315" lon="110.782711">
<time>2016-10-06T13:26:30Z</time></trkpt>
<trkpt lat="24.697255" lon="110.782721">
<time>2016-10-06T13:26:31Z</time></trkpt>
<trkpt lat="24.697225" lon="110.782721">
<time>2016-10-06T13:26:32Z</time></trkpt>
<trkpt lat="24.697205" lon="110.782721">
<time>2016-10-06T13:26:33Z</time></trkpt>
<trkpt lat="24.697185" lon="110.782721">
<time>2016-10-06T13:26:34Z</time></trkpt>
<trkpt lat="24.696984" lon="110.782541">
<time>2016-10-06T13:26:35Z</time></trkpt>
<trkpt lat="24.696924" lon="110.782491">
<time>2016-10-06T13:26:36Z</time></trkpt>
<trkpt lat="24.696834" lon="110.782431">
<time>2016-10-06T13:26:37Z</time></trkpt>
<trkpt lat="24.696764" lon="110.782371">
<time>2016-10-06T13:26:38Z</time></trkpt>
<trkpt lat="24.696744" lon="110.782341">
<time>2016-10-06T13:26:39Z</time></trkpt>
<trkpt lat="24.696724" lon="110.782301">
<time>2016-10-06T13:26:40Z</time></trkpt>
<trkpt lat="24.696694" lon="110.782271">
<time>2016-10-06T13:26:41Z</time></trkpt>
<trkpt lat="24.696684" lon="110.782261">
<time>2016-10-06T13:26:42Z</time></trkpt>
<trkpt lat="24.696664" lon="110.782251">
<time>2016-10-06T13:26:43Z</time></trkpt>
<trkpt lat="24.696664" lon="110.782251">
<time>2016-10-06T13:26:44Z</time></trkpt>
<trkpt lat="24.696774" lon="110.78208">
<time>2016-10-06T13:26:45Z</time></trkpt>
<trkpt lat="24.696844" lon="110.78197">
<time>2016-10-06T13:26:46Z</time></trkpt>
<trkpt lat="24.697033" lon="110.78179">
<time>2016-10-06T13:26:47Z</time></trkpt>
<trkpt lat="24.697083" lon="110.78174">
<time>2016-10-06T13:26:48Z</time></trkpt>
<trkpt lat="24.697193" lon="110.78167">
<time>2016-10-06T13:26:49Z</time></trkpt>
<trkpt lat="24.697253" lon="110.78164">
<time>2016-10-06T13:26:50Z</time></trkpt>
<trkpt lat="24.697303" lon="110.78163">
<time>2016-10-06T13:26:51Z</time></trkpt>
<trkpt lat="24.697353" lon="110.78161">
<time>2016-10-06T13:26:52Z</time></trkpt>
<trkpt lat="24.697373" lon="110.7816">
<time>2016-10-06T13:26:53Z</time></trkpt>
<trkpt lat="24.697403" lon="110.78158">
<time>2016-10-06T13:26:54Z</time></trkpt>
<trkpt lat="24.697423" lon="110.78154">
<time>2016-10-06T13:26:55Z</time></trkpt>
<trkpt lat="24.697473" lon="110.78146">
<time>2016-10-06T13:26:56Z</time></trkpt>
<trkpt lat="24.697523" lon="110.78139">
<time>2016-10-06T13:26:57Z</time></trkpt>
<trkpt lat="24.697583" lon="110.78135">
<time>2016-10-06T13:26:58Z</time></trkpt>
<trkpt lat="24.697673" lon="110.7813">
<time>2016-10-06T13:26:59Z</time></trkpt>
<trkpt lat="24.697803" lon="110.78128">
<time>2016-10-06T13:27:00Z</time></trkpt>
<trkpt lat="24.697873" lon="110.78126">
<time>2016-10-06T13:27:01Z</time></trkpt>
<trkpt lat="24.697953" lon="110.7812">
<time>2016-10-06T13:27:02Z</time></trkpt>
<trkpt lat="24.698023" lon="110.78114">
<time>2016-10-06T13:27:03Z</time></trkpt>
<trkpt lat="24.698112" lon="110.78098">
<time>2016-10-06T13:27:04Z</time></trkpt>
<trkpt lat="24.698132" lon="110.78097">
<time>2016-10-06T13:27:05Z</time></trkpt>
<trkpt lat="24.698162" lon="110.78097">
<time>2016-10-06T13:27:06Z</time></trkpt>
<trkpt lat="24.698212" lon="110.78096">
<time>2016-10-06T13:27:07Z</time></trkpt>
<trkpt lat="24.698262" lon="110.78096">
<time>2016-10-06T13:27:08Z</time></trkpt>
<trkpt lat="24.698392" lon="110.78096">
<time>2016-10-06T13:27:09Z</time></trkpt>
<trkpt lat="24.698422" lon="110.78096">
<time>2016-10-06T13:27:10Z</time></trkpt>
<trkpt lat="24.698432" lon="110.78096">
<time>2016-10-06T13:27:11Z</time></trkpt>
<trkpt lat="24.698472" lon="110.78098">
<time>2016-10-06T13:27:12Z</time></trkpt>
<trkpt lat="24.698482" lon="110.78098">
<time>2016-10-06T13:27:13Z</time></trkpt>
<trkpt lat="24.698512" lon="110.781">
<time>2016-10-06T13:27:14Z</time></trkpt>
<trkpt lat="24.698522" lon="110.781">
<time>2016-10-06T13:27:15Z</time></trkpt>
<trkpt lat="24.698522" lon="110.781">
<time>2016-10-06T13:27:16Z</time></trkpt>
<trkpt lat="24.698968" lon="110.777558">
<time>2016-10-06T13:27:17Z</time></trkpt>
<trkpt lat="24.699058" lon="110.776898">
<time>2016-10-06T13:27:18Z</time></trkpt>
<trkpt lat="24.699665" lon="110.774577">
<time>2016-10-06T13:27:19Z</time></trkpt>
<trkpt lat="24.700233" lon="110.772176">
<time>2016-10-06T13:27:20Z</time></trkpt>
<trkpt lat="24.700262" lon="110.772106">
<time>2016-10-06T13:27:21Z</time></trkpt>
<trkpt lat="24.700262" lon="110.772106">
<time>2016-10-06T13:27:22Z</time></trkpt>
<trkpt lat="24.700242" lon="110.772096">
<time>2016-10-06T13:27:23Z</time></trkpt>
<trkpt lat="24.700232" lon="110.772086">
<time>2016-10-06T13:27:24Z</time></trkpt>
<trkpt lat="24.700232" lon="110.772066">
<time>2016-10-06T13:27:25Z</time></trkpt>
<trkpt lat="24.700222" lon="110.772056">
<time>2016-10-06T13:27:26Z</time></trkpt>
<trkpt lat="24.700222" lon="110.772036">
<time>2016-10-06T13:27:27Z</time></trkpt>
<trkpt lat="24.700232" lon="110.772026">
<time>2016-10-06T13:27:28Z</time></trkpt>
<trkpt lat="24.700232" lon="110.772016">
<time>2016-10-06T13:27:29Z</time></trkpt>
<trkpt lat="24.700262" lon="110.771996">
<time>2016-10-06T13:27:30Z</time></trkpt>
<trkpt lat="24.700322" lon="110.771946">
<time>2016-10-06T13:27:31Z</time></trkpt>
<trkpt lat="24.700342" lon="110.771936">
<time>2016-10-06T13:27:32Z</time></trkpt>
<trkpt lat="24.700352" lon="110.771926">
<time>2016-10-06T13:27:33Z</time></trkpt>
<trkpt lat="24.700382" lon="110.771856">
<time>2016-10-06T13:27:34Z</time></trkpt>
<trkpt lat="24.700472" lon="110.771656">
<time>2016-10-06T13:27:35Z</time></trkpt>
<trkpt lat="24.700512" lon="110.771586">
<time>2016-10-06T13:27:36Z</time></trkpt>
<trkpt lat="24.700552" lon="110.771516">
<time>2016-10-06T13:27:37Z</time></trkpt>
<trkpt lat="24.700602" lon="110.771405">
<time>2016-10-06T13:27:38Z</time></trkpt>
<trkpt lat="24.700612" lon="110.771385">
<time>2016-10-06T13:27:39Z</time></trkpt>
<trkpt lat="24.700622" lon="110.771375">
<time>2016-10-06T13:27:40Z</time></trkpt>
<trkpt lat="24.700622" lon="110.771365">
<time>2016-10-06T13:27:41Z</time></trkpt>
<trkpt lat="24.700612" lon="110.771355">
<time>2016-10-06T13:27:42Z</time></trkpt>
<trkpt lat="24.700592" lon="110.771305">
<time>2016-10-06T13:27:43Z</time></trkpt>
<trkpt lat="24.700592" lon="110.771275">
<time>2016-10-06T13:27:44Z</time></trkpt>
<trkpt lat="24.700582" lon="110.771235">
<time>2016-10-06T13:27:45Z</time></trkpt>
<trkpt lat="24.700592" lon="110.771185">
<time>2016-10-06T13:27:46Z</time></trkpt>
<trkpt lat="24.700631" lon="110.771015">
<time>2016-10-06T13:27:47Z</time></trkpt>
<trkpt lat="24.700651" lon="110.770945">
<time>2016-10-06T13:27:48Z</time></trkpt>
<trkpt lat="24.700651" lon="110.770945">
<time>2016-10-06T13:27:49Z</time></trkpt>
<trkpt lat="24.700881" lon="110.770905">
<time>2016-10-06T13:27:50Z</time></trkpt>
<trkpt lat="24.701071" lon="110.770855">
<time>2016-10-06T13:27:51Z</time></trkpt>
<trkpt lat="24.701281" lon="110.770775">
<time>2016-10-06T13:27:52Z</time></trkpt>
<trkpt lat="24.701731" lon="110.770555">
<time>2016-10-06T13:27:53Z</time></trkpt>
<trkpt lat="24.702101" lon="110.770395">
<time>2016-10-06T13:27:54Z</time></trkpt>
<trkpt lat="24.70336" lon="110.769935">
<time>2016-10-06T13:27:55Z</time></trkpt>
<trkpt lat="24.70412" lon="110.769645">
<time>2016-10-06T13:27:56Z</time></trkpt>
<trkpt lat="24.7045" lon="110.769515">
<time>2016-10-06T13:27:57Z</time></trkpt>
<trkpt lat="24.70467" lon="110.769425">
<time>2016-10-06T13:27:58Z</time></trkpt>
<trkpt lat="24.70478" lon="110.769365">
<time>2016-10-06T13:27:59Z</time></trkpt>
<trkpt lat="24.7049" lon="110.769275">
<time>2016-10-06T13:28:00Z</time></trkpt>
<trkpt lat="24.70501" lon="110.769175">
<time>2016-10-06T13:28:01Z</time></trkpt>
<trkpt lat="24.705149" lon="110.768995">
<time>2016-10-06T13:28:02Z</time></trkpt>
<trkpt lat="24.705389" lon="110.768635">
<time>2016-10-06T13:28:03Z</time></trkpt>
<trkpt lat="24.706328" lon="110.767034">
<time>2016-10-06T13:28:04Z</time></trkpt>
<trkpt lat="24.706498" lon="110.766744">
<time>2016-10-06T13:28:05Z</time></trkpt>
<trkpt lat="24.706967" lon="110.765964">
<time>2016-10-06T13:28:06Z</time></trkpt>
<trkpt lat="24.707277" lon="110.765424">
<time>2016-10-06T13:28:07Z</time></trkpt>
<trkpt lat="24.707666" lon="110.764744">
<time>2016-10-06T13:28:08Z</time></trkpt>
<trkpt lat="24.707846" lon="110.764444">
<time>2016-10-06T13:28:09Z</time></trkpt>
<trkpt lat="24.708046" lon="110.764094">
<time>2016-10-06T13:28:10Z</time></trkpt>
<trkpt lat="24.708235" lon="110.763804">
<time>2016-10-06T13:28:11Z</time></trkpt>
<trkpt lat="24.708505" lon="110.763474">
<time>2016-10-06T13:28:12Z</time></trkpt>
<trkpt lat="24.708675" lon="110.763314">
<time>2016-10-06T13:28:13Z</time></trkpt>
<trkpt lat="24.709634" lon="110.762424">
<time>2016-10-06T13:28:14Z</time></trkpt>
<trkpt lat="24.710944" lon="110.761214">
<time>2016-10-06T13:28:15Z</time></trkpt>
<trkpt lat="24.711154" lon="110.761054">
<time>2016-10-06T13:28:16Z</time></trkpt>
<trkpt lat="24.711243" lon="110.760984">
<time>2016-10-06T13:28:17Z</time></trkpt>
<trkpt lat="24.712233" lon="110.760444">
<time>2016-10-06T13:28:18Z</time></trkpt>
<trkpt lat="24.713703" lon="110.759634">
<time>2016-10-06T13:28:19Z</time></trkpt>
<trkpt lat="24.714232" lon="110.759334">
<time>2016-10-06T13:28:20Z</time></trkpt>
<trkpt lat="24.714662" lon="110.759084">
<time>2016-10-06T13:28:21Z</time></trkpt>
<trkpt lat="24.714892" lon="110.758924">
<time>2016-10-06T13:28:22Z</time></trkpt>
<trkpt lat="24.715032" lon="110.758804">
<time>2016-10-06T13:28:23Z</time></trkpt>
<trkpt lat="24.715252" lon="110.758624">
<time>2016-10-06T13:28:24Z</time></trkpt>
<trkpt lat="24.715722" lon="110.758214">
<time>2016-10-06T13:28:25Z</time></trkpt>
<trkpt lat="24.716242" lon="110.757814">
<time>2016-10-06T13:28:26Z</time></trkpt>
<trkpt lat="24.716651" lon="110.757544">
<time>2016-10-06T13:28:27Z</time></trkpt>
<trkpt lat="24.716991" lon="110.757364">
<time>2016-10-06T13:28:28Z</time></trkpt>
<trkpt lat="24.717241" lon="110.757204">
<time>2016-10-06T13:28:29Z</time></trkpt>
<trkpt lat="24.717441" lon="110.757064">
<time>2016-10-06T13:28:30Z</time></trkpt>
<trkpt lat="24.717661" lon="110.756885">
<time>2016-10-06T13:28:31Z</time></trkpt>
<trkpt lat="24.717861" lon="110.756695">
<time>2016-10-06T13:28:32Z</time></trkpt>
<trkpt lat="24.718141" lon="110.756425">
<time>2016-10-06T13:28:33Z</time></trkpt>
<trkpt lat="24.718401" lon="110.756195">
<time>2016-10-06T13:28:34Z</time></trkpt>
<trkpt lat="24.719361" lon="110.755575">
<time>2016-10-06T13:28:35Z</time></trkpt>
<trkpt lat="24.71969" lon="110.755355">
<time>2016-10-06T13:28:36Z</time></trkpt>
<trkpt lat="24.72013" lon="110.755095">
<time>2016-10-06T13:28:37Z</time></trkpt>
<trkpt lat="24.72022" lon="110.755045">
<time>2016-10-06T13:28:38Z</time></trkpt>
<trkpt lat="24.72052" lon="110.754905">
<time>2016-10-06T13:28:39Z</time></trkpt>
<trkpt lat="24.72075" lon="110.754825">
<time>2016-10-06T13:28:40Z</time></trkpt>
<trkpt lat="24.72095" lon="110.754775">
<time>2016-10-06T13:28:41Z</time></trkpt>
<trkpt lat="24.72169" lon="110.754615">
<time>2016-10-06T13:28:42Z</time></trkpt>
<trkpt lat="24.72203" lon="110.754525">
<time>2016-10-06T13:28:43Z</time></trkpt>
<trkpt lat="24.72294" lon="110.754295">
<time>2016-10-06T13:28:44Z</time></trkpt>
<trkpt lat="24.72325" lon="110.754175">
<time>2016-10-06T13:28:45Z</time></trkpt>
<trkpt lat="24.72349" lon="110.754065">
<time>2016-10-06T13:28:46Z</time></trkpt>
<trkpt lat="24.72387" lon="110.753835">
<time>2016-10-06T13:28:47Z</time></trkpt>
<trkpt lat="24.72437" lon="110.753435">
<time>2016-10-06T13:28:48Z</time></trkpt>
<trkpt lat="24.725219" lon="110.752736">
<time>2016-10-06T13:28:49Z</time></trkpt>
<trkpt lat="24.725609" lon="110.752416">
<time>2016-10-06T13:28:50Z</time></trkpt>
<trkpt lat="24.726189" lon="110.751926">
<time>2016-10-06T13:28:51Z</time></trkpt>
<trkpt lat="24.726839" lon="110.751366">
<time>2016-10-06T13:28:52Z</time></trkpt>
<trkpt lat="24.727319" lon="110.750986">
<time>2016-10-06T13:28:53Z</time></trkpt>
<trkpt lat="24.727739" lon="110.750666">
<time>2016-10-06T13:28:54Z</time></trkpt>
<trkpt lat="24.728339" lon="110.750207">
<time>2016-10-06T13:28:55Z</time></trkpt>
<trkpt lat="24.728599" lon="110.750007">
<time>2016-10-06T13:28:56Z</time></trkpt>
<trkpt lat="24.729358" lon="110.749427">
<time>2016-10-06T13:28:57Z</time></trkpt>
<trkpt lat="24.729808" lon="110.749127">
<time>2016-10-06T13:28:58Z</time></trkpt>
<trkpt lat="24.730148" lon="110.748947">
<time>2016-10-06T13:28:59Z</time></trkpt>
<trkpt lat="24.730538" lon="110.748767">
<time>2016-10-06T13:29:00Z</time></trkpt>
<trkpt lat="24.731348" lon="110.748448">
<time>2016-10-06T13:29:01Z</time></trkpt>
<trkpt lat="24.732378" lon="110.748038">
<time>2016-10-06T13:29:02Z</time></trkpt>
<trkpt lat="24.733408" lon="110.747618">
<time>2016-10-06T13:29:03Z</time></trkpt>
<trkpt lat="24.733618" lon="110.747538">
<time>2016-10-06T13:29:04Z</time></trkpt>
<trkpt lat="24.734468" lon="110.747218">
<time>2016-10-06T13:29:05Z</time></trkpt>
<trkpt lat="24.735048" lon="110.747028">
<time>2016-10-06T13:29:06Z</time></trkpt>
<trkpt lat="24.735358" lon="110.746948">
<time>2016-10-06T13:29:07Z</time></trkpt>
<trkpt lat="24.735548" lon="110.746928">
<time>2016-10-06T13:29:08Z</time></trkpt>
<trkpt lat="24.735808" lon="110.746918">
<time>2016-10-06T13:29:09Z</time></trkpt>
<trkpt lat="24.736118" lon="110.746938">
<time>2016-10-06T13:29:10Z</time></trkpt>
<trkpt lat="24.736508" lon="110.747018">
<time>2016-10-06T13:29:11Z</time></trkpt>
<trkpt lat="24.737338" lon="110.747228">
<time>2016-10-06T13:29:12Z</time></trkpt>
<trkpt lat="24.737638" lon="110.747278">
<time>2016-10-06T13:29:13Z</time></trkpt>
<trkpt lat="24.737848" lon="110.747288">
<time>2016-10-06T13:29:14Z</time></trkpt>
<trkpt lat="24.737888" lon="110.747288">
<time>2016-10-06T13:29:15Z</time></trkpt>
<trkpt lat="24.737998" lon="110.747288">
<time>2016-10-06T13:29:16Z</time></trkpt>
<trkpt lat="24.738288" lon="110.747258">
<time>2016-10-06T13:29:17Z</time></trkpt>
<trkpt lat="24.738578" lon="110.747178">
<time>2016-10-06T13:29:18Z</time></trkpt>
<trkpt lat="24.738898" lon="110.747078">
<time>2016-10-06T13:29:19Z</time></trkpt>
<trkpt lat="24.739608" lon="110.746848">
<time>2016-10-06T13:29:20Z</time></trkpt>
<trkpt lat="24.740398" lon="110.746588">
<time>2016-10-06T13:29:21Z</time></trkpt>
<trkpt lat="24.740718" lon="110.746468">
<time>2016-10-06T13:29:22Z</time></trkpt>
<trkpt lat="24.740877" lon="110.746388">
<time>2016-10-06T13:29:23Z</time></trkpt>
<trkpt lat="24.741017" lon="110.746298">
<time>2016-10-06T13:29:24Z</time></trkpt>
<trkpt lat="24.741167" lon="110.746188">
<time>2016-10-06T13:29:25Z</time></trkpt>
<trkpt lat="24.741647" lon="110.745809">
<time>2016-10-06T13:29:26Z</time></trkpt>
<trkpt lat="24.742427" lon="110.745189">
<time>2016-10-06T13:29:27Z</time></trkpt>
<trkpt lat="24.743217" lon="110.74453">
<time>2016-10-06T13:29:28Z</time></trkpt>
<trkpt lat="24.743417" lon="110.74438">
<time>2016-10-06T13:29:29Z</time></trkpt>
<trkpt lat="24.743617" lon="110.74427">
<time>2016-10-06T13:29:30Z</time></trkpt>
<trkpt lat="24.743777" lon="110.74419">
<time>2016-10-06T13:29:31Z</time></trkpt>
<trkpt lat="24.743987" lon="110.74411">
<time>2016-10-06T13:29:32Z</time></trkpt>
<trkpt lat="24.744147" lon="110.74406">
<time>2016-10-06T13:29:33Z</time></trkpt>
<trkpt lat="24.744567" lon="110.74396">
<time>2016-10-06T13:29:34Z</time></trkpt>
<trkpt lat="24.745167" lon="110.74384">
<time>2016-10-06T13:29:35Z</time></trkpt>
<trkpt lat="24.745937" lon="110.74367">
<time>2016-10-06T13:29:36Z</time></trkpt>
<trkpt lat="24.747147" lon="110.7434">
<time>2016-10-06T13:29:37Z</time></trkpt>
<trkpt lat="24.747607" lon="110.74327">
<time>2016-10-06T13:29:38Z</time></trkpt>
<trkpt lat="24.747977" lon="110.74314">
<time>2016-10-06T13:29:39Z</time></trkpt>
<trkpt lat="24.748167" lon="110.74304">
<time>2016-10-06T13:29:40Z</time></trkpt>
<trkpt lat="24.748207" lon="110.74302">
<time>2016-10-06T13:29:41Z</time></trkpt>
<trkpt lat="24.748347" lon="110.742931">
<time>2016-10-06T13:29:42Z</time></trkpt>
<trkpt lat="24.748537" lon="110.742801">
<time>2016-10-06T13:29:43Z</time></trkpt>
<trkpt lat="24.748757" lon="110.742631">
<time>2016-10-06T13:29:44Z</time></trkpt>
<trkpt lat="24.749397" lon="110.742071">
<time>2016-10-06T13:29:45Z</time></trkpt>
<trkpt lat="24.750007" lon="110.741552">
<time>2016-10-06T13:29:46Z</time></trkpt>
<trkpt lat="24.750297" lon="110.741312">
<time>2016-10-06T13:29:47Z</time></trkpt>
<trkpt lat="24.750637" lon="110.741052">
<time>2016-10-06T13:29:48Z</time></trkpt>
<trkpt lat="24.751647" lon="110.740383">
<time>2016-10-06T13:29:49Z</time></trkpt>
<trkpt lat="24.752027" lon="110.740133">
<time>2016-10-06T13:29:50Z</time></trkpt>
<trkpt lat="24.753077" lon="110.739443">
<time>2016-10-06T13:29:51Z</time></trkpt>
<trkpt lat="24.754037" lon="110.738784">
<time>2016-10-06T13:29:52Z</time></trkpt>
<trkpt lat="24.754558" lon="110.738454">
<time>2016-10-06T13:29:53Z</time></trkpt>
<trkpt lat="24.755348" lon="110.737885">
<time>2016-10-06T13:29:54Z</time></trkpt>
<trkpt lat="24.755628" lon="110.737665">
<time>2016-10-06T13:29:55Z</time></trkpt>
<trkpt lat="24.755888" lon="110.737445">
<time>2016-10-06T13:29:56Z</time></trkpt>
<trkpt lat="24.756318" lon="110.737056">
<time>2016-10-06T13:29:57Z</time></trkpt>
<trkpt lat="24.757258" lon="110.736157">
<time>2016-10-06T13:29:58Z</time></trkpt>
<trkpt lat="24.757898" lon="110.735557">
<time>2016-10-06T13:29:59Z</time></trkpt>
<trkpt lat="24.758118" lon="110.735358">
<time>2016-10-06T13:30:00Z</time></trkpt>
<trkpt lat="24.758388" lon="110.735128">
<time>2016-10-06T13:30:01Z</time></trkpt>
<trkpt lat="24.758548" lon="110.734988">
<time>2016-10-06T13:30:02Z</time></trkpt>
<trkpt lat="24.758909" lon="110.734698">
<time>2016-10-06T13:30:03Z</time></trkpt>
<trkpt lat="24.759319" lon="110.734389">
<time>2016-10-06T13:30:04Z</time></trkpt>
<trkpt lat="24.759749" lon="110.734059">
<time>2016-10-06T13:30:05Z</time></trkpt>
<trkpt lat="24.760089" lon="110.733809">
<time>2016-10-06T13:30:06Z</time></trkpt>
<trkpt lat="24.760619" lon="110.73341">
<time>2016-10-06T13:30:07Z</time></trkpt>
<trkpt lat="24.760859" lon="110.73322">
<time>2016-10-06T13:30:08Z</time></trkpt>
<trkpt lat="24.761049" lon="110.73305">
<time>2016-10-06T13:30:09Z</time></trkpt>
<trkpt lat="24.761279" lon="110.73281">
<time>2016-10-06T13:30:10Z</time></trkpt>
<trkpt lat="24.761479" lon="110.732551">
<time>2016-10-06T13:30:11Z</time></trkpt>
<trkpt lat="24.761699" lon="110.732181">
<time>2016-10-06T13:30:12Z</time></trkpt>
<trkpt lat="24.7618" lon="110.731991">
<time>2016-10-06T13:30:13Z</time></trkpt>
<trkpt lat="24.76194" lon="110.731702">
<time>2016-10-06T13:30:14Z</time></trkpt>
<trkpt lat="24.76204" lon="110.731482">
<time>2016-10-06T13:30:15Z</time></trkpt>
<trkpt lat="24.76233" lon="110.730873">
<time>2016-10-06T13:30:16Z</time></trkpt>
<trkpt lat="24.763211" lon="110.729285">
<time>2016-10-06T13:30:17Z</time></trkpt>
<trkpt lat="24.763802" lon="110.728236">
<time>2016-10-06T13:30:18Z</time></trkpt>
<trkpt lat="24.764062" lon="110.727787">
<time>2016-10-06T13:30:19Z</time></trkpt>
<trkpt lat="24.764252" lon="110.727428">
<time>2016-10-06T13:30:20Z</time></trkpt>
<trkpt lat="24.764272" lon="110.727398">
<time>2016-10-06T13:30:21Z</time></trkpt>
<trkpt lat="24.764502" lon="110.726978">
<time>2016-10-06T13:30:22Z</time></trkpt>
<trkpt lat="24.764723" lon="110.726609">
<time>2016-10-06T13:30:23Z</time></trkpt>
<trkpt lat="24.764883" lon="110.726279">
<time>2016-10-06T13:30:24Z</time></trkpt>
<trkpt lat="24.765003" lon="110.72594">
<time>2016-10-06T13:30:25Z</time></trkpt>
<trkpt lat="24.765083" lon="110.72564">
<time>2016-10-06T13:30:26Z</time></trkpt>
<trkpt lat="24.765154" lon="110.725211">
<time>2016-10-06T13:30:27Z</time></trkpt>
<trkpt lat="24.765184" lon="110.724881">
<time>2016-10-06T13:30:28Z</time></trkpt>
<trkpt lat="24.765244" lon="110.724412">
<time>2016-10-06T13:30:29Z</time></trkpt>
<trkpt lat="24.765345" lon="110.723703">
<time>2016-10-06T13:30:30Z</time></trkpt>
<trkpt lat="24.765395" lon="110.723314">
<time>2016-10-06T13:30:31Z</time></trkpt>
<trkpt lat="24.765506" lon="110.722755">
<time>2016-10-06T13:30:32Z</time></trkpt>
<trkpt lat="24.765666" lon="110.721896">
<time>2016-10-06T13:30:33Z</time></trkpt>
<trkpt lat="24.765777" lon="110.721297">
<time>2016-10-06T13:30:34Z</time></trkpt>
<trkpt lat="24.765998" lon="110.720049">
<time>2016-10-06T13:30:35Z</time></trkpt>
<trkpt lat="24.766159" lon="110.719261">
<time>2016-10-06T13:30:36Z</time></trkpt>
<trkpt lat="24.766239" lon="110.718652">
<time>2016-10-06T13:30:37Z</time></trkpt>
<trkpt lat="24.76634" lon="110.717933">
<time>2016-10-06T13:30:38Z</time></trkpt>
<trkpt lat="24.76642" lon="110.717424">
<time>2016-10-06T13:30:39Z</time></trkpt>
<trkpt lat="24.766511" lon="110.717015">
<time>2016-10-06T13:30:40Z</time></trkpt>
<trkpt lat="24.766601" lon="110.716655">
<time>2016-10-06T13:30:41Z</time></trkpt>
<trkpt lat="24.766782" lon="110.716027">
<time>2016-10-06T13:30:42Z</time></trkpt>
<trkpt lat="24.766973" lon="110.715278">
<time>2016-10-06T13:30:43Z</time></trkpt>
<trkpt lat="24.767464" lon="110.713581">
<time>2016-10-06T13:30:44Z</time></trkpt>
<trkpt lat="24.767645" lon="110.712943">
<time>2016-10-06T13:30:45Z</time></trkpt>
<trkpt lat="24.767725" lon="110.712673">
<time>2016-10-06T13:30:46Z</time></trkpt>
<trkpt lat="24.767826" lon="110.712234">
<time>2016-10-06T13:30:47Z</time></trkpt>
<trkpt lat="24.767836" lon="110.712194">
<time>2016-10-06T13:30:48Z</time></trkpt>
<trkpt lat="24.768047" lon="110.711465">
<time>2016-10-06T13:30:49Z</time></trkpt>
<trkpt lat="24.768228" lon="110.710917">
<time>2016-10-06T13:30:50Z</time></trkpt>
<trkpt lat="24.768408" lon="110.710497">
<time>2016-10-06T13:30:51Z</time></trkpt>
<trkpt lat="24.768608" lon="110.710148">
<time>2016-10-06T13:30:52Z</time></trkpt>
<trkpt lat="24.769019" lon="110.70945">
<time>2016-10-06T13:30:53Z</time></trkpt>
<trkpt lat="24.769861" lon="110.708033">
<time>2016-10-06T13:30:54Z</time></trkpt>
<trkpt lat="24.770082" lon="110.707663">
<time>2016-10-06T13:30:55Z</time></trkpt>
<trkpt lat="24.770452" lon="110.707085">
<time>2016-10-06T13:30:56Z</time></trkpt>
<trkpt lat="24.770472" lon="110.707065">
<time>2016-10-06T13:30:57Z</time></trkpt>
<trkpt lat="24.770653" lon="110.706845">
<time>2016-10-06T13:30:58Z</time></trkpt>
<trkpt lat="24.770853" lon="110.706665">
<time>2016-10-06T13:30:59Z</time></trkpt>
<trkpt lat="24.771053" lon="110.706526">
<time>2016-10-06T13:31:00Z</time></trkpt>
<trkpt lat="24.771363" lon="110.706336">
<time>2016-10-06T13:31:01Z</time></trkpt>
<trkpt lat="24.772904" lon="110.705578">
<time>2016-10-06T13:31:02Z</time></trkpt>
<trkpt lat="24.773194" lon="110.705438">
<time>2016-10-06T13:31:03Z</time></trkpt>
<trkpt lat="24.773665" lon="110.705198">
<time>2016-10-06T13:31:04Z</time></trkpt>
<trkpt lat="24.774005" lon="110.704979">
<time>2016-10-06T13:31:05Z</time></trkpt>
<trkpt lat="24.774365" lon="110.70469">
<time>2016-10-06T13:31:06Z</time></trkpt>
<trkpt lat="24.774716" lon="110.70435">
<time>2016-10-06T13:31:07Z</time></trkpt>
<trkpt lat="24.774986" lon="110.704051">
<time>2016-10-06T13:31:08Z</time></trkpt>
<trkpt lat="24.775587" lon="110.703343">
<time>2016-10-06T13:31:09Z</time></trkpt>
<trkpt lat="24.775868" lon="110.702933">
<time>2016-10-06T13:31:10Z</time></trkpt>
<trkpt lat="24.776058" lon="110.702634">
<time>2016-10-06T13:31:11Z</time></trkpt>
<trkpt lat="24.776078" lon="110.702594">
<time>2016-10-06T13:31:12Z</time></trkpt>
<trkpt lat="24.776238" lon="110.702295">
<time>2016-10-06T13:31:13Z</time></trkpt>
<trkpt lat="24.777893" lon="110.698903">
<time>2016-10-06T13:31:14Z</time></trkpt>
<trkpt lat="24.778134" lon="110.698444">
<time>2016-10-06T13:31:15Z</time></trkpt>
<trkpt lat="24.778325" lon="110.698075">
<time>2016-10-06T13:31:16Z</time></trkpt>
<trkpt lat="24.778475" lon="110.697795">
<time>2016-10-06T13:31:17Z</time></trkpt>
<trkpt lat="24.778515" lon="110.697736">
<time>2016-10-06T13:31:18Z</time></trkpt>
<trkpt lat="24.778615" lon="110.697556">
<time>2016-10-06T13:31:19Z</time></trkpt>
<trkpt lat="24.778716" lon="110.697406">
<time>2016-10-06T13:31:20Z</time></trkpt>
<trkpt lat="24.778776" lon="110.697297">
<time>2016-10-06T13:31:21Z</time></trkpt>
<trkpt lat="24.778836" lon="110.697167">
<time>2016-10-06T13:31:22Z</time></trkpt>
<trkpt lat="24.778886" lon="110.697047">
<time>2016-10-06T13:31:23Z</time></trkpt>
<trkpt lat="24.778916" lon="110.696907">
<time>2016-10-06T13:31:24Z</time></trkpt>
<trkpt lat="24.778957" lon="110.696738">
<time>2016-10-06T13:31:25Z</time></trkpt>
<trkpt lat="24.778957" lon="110.696738">
<time>2016-10-06T13:31:26Z</time></trkpt>
<trkpt lat="24.778807" lon="110.696499">
<time>2016-10-06T13:31:27Z</time></trkpt>
<trkpt lat="24.778767" lon="110.696429">
<time>2016-10-06T13:31:28Z</time></trkpt>
<trkpt lat="24.778637" lon="110.696249">
<time>2016-10-06T13:31:29Z</time></trkpt>
<trkpt lat="24.778428" lon="110.69598">
<time>2016-10-06T13:31:30Z</time></trkpt>
<trkpt lat="24.778358" lon="110.69589">
<time>2016-10-06T13:31:31Z</time></trkpt>
<trkpt lat="24.778079" lon="110.695571">
<time>2016-10-06T13:31:32Z</time></trkpt>
<trkpt lat="24.777999" lon="110.695491">
<time>2016-10-06T13:31:33Z</time></trkpt>
<trkpt lat="24.777739" lon="110.695192">
<time>2016-10-06T13:31:34Z</time></trkpt>
<trkpt lat="24.77744" lon="110.694853">
<time>2016-10-06T13:31:35Z</time></trkpt>
<trkpt lat="24.777131" lon="110.694434">
<time>2016-10-06T13:31:36Z</time></trkpt>
<trkpt lat="24.776901" lon="110.694124">
<time>2016-10-06T13:31:37Z</time></trkpt>
<trkpt lat="24.776662" lon="110.693735">
<time>2016-10-06T13:31:38Z</time></trkpt>
<trkpt lat="24.776582" lon="110.693606">
<time>2016-10-06T13:31:39Z</time></trkpt>
<trkpt lat="24.776183" lon="110.692928">
<time>2016-10-06T13:31:40Z</time></trkpt>
<trkpt lat="24.775954" lon="110.692429">
<time>2016-10-06T13:31:41Z</time></trkpt>
<trkpt lat="24.775745" lon="110.69195">
<time>2016-10-06T13:31:42Z</time></trkpt>
<trkpt lat="24.775586" lon="110.691461">
<time>2016-10-06T13:31:43Z</time></trkpt>
<trkpt lat="24.775417" lon="110.690893">
<time>2016-10-06T13:31:44Z</time></trkpt>
<trkpt lat="24.775297" lon="110.690454">
<time>2016-10-06T13:31:45Z</time></trkpt>
<trkpt lat="24.775228" lon="110.690185">
<time>2016-10-06T13:31:46Z</time></trkpt>
<trkpt lat="24.775079" lon="110.689736">
<time>2016-10-06T13:31:47Z</time></trkpt>
<trkpt lat="24.774919" lon="110.689317">
<time>2016-10-06T13:31:48Z</time></trkpt>
<trkpt lat="24.77477" lon="110.689018">
<time>2016-10-06T13:31:49Z</time></trkpt>
<trkpt lat="24.774561" lon="110.688639">
<time>2016-10-06T13:31:50Z</time></trkpt>
<trkpt lat="24.774341" lon="110.68828">
<time>2016-10-06T13:31:51Z</time></trkpt>
<trkpt lat="24.774022" lon="110.687871">
<time>2016-10-06T13:31:52Z</time></trkpt>
<trkpt lat="24.773493" lon="110.687242">
<time>2016-10-06T13:31:53Z</time></trkpt>
<trkpt lat="24.772964" lon="110.686554">
<time>2016-10-06T13:31:54Z</time></trkpt>
<trkpt lat="24.772835" lon="110.686295">
<time>2016-10-06T13:31:55Z</time></trkpt>
<trkpt lat="24.772745" lon="110.686125">
<time>2016-10-06T13:31:56Z</time></trkpt>
<trkpt lat="24.772456" lon="110.685407">
<time>2016-10-06T13:31:57Z</time></trkpt>
<trkpt lat="24.772069" lon="110.68422">
<time>2016-10-06T13:31:58Z</time></trkpt>
<trkpt lat="24.771841" lon="110.683143">
<time>2016-10-06T13:31:59Z</time></trkpt>
<trkpt lat="24.771603" lon="110.682056">
<time>2016-10-06T13:32:00Z</time></trkpt>
<trkpt lat="24.771523" lon="110.681687">
<time>2016-10-06T13:32:01Z</time></trkpt>
<trkpt lat="24.771374" lon="110.681009">
<time>2016-10-06T13:32:02Z</time></trkpt>
<trkpt lat="24.771256" lon="110.680251">
<time>2016-10-06T13:32:03Z</time></trkpt>
<trkpt lat="24.771227" lon="110.679912">
<time>2016-10-06T13:32:04Z</time></trkpt>
<trkpt lat="24.771237" lon="110.679603">
<time>2016-10-06T13:32:05Z</time></trkpt>
<trkpt lat="24.771247" lon="110.679443">
<time>2016-10-06T13:32:06Z</time></trkpt>
<trkpt lat="24.771258" lon="110.679284">
<time>2016-10-06T13:32:07Z</time></trkpt>
<trkpt lat="24.771299" lon="110.678795">
<time>2016-10-06T13:32:08Z</time></trkpt>
<trkpt lat="24.771309" lon="110.678606">
<time>2016-10-06T13:32:09Z</time></trkpt>
<trkpt lat="24.77136" lon="110.677937">
<time>2016-10-06T13:32:10Z</time></trkpt>
<trkpt lat="24.771411" lon="110.677319">
<time>2016-10-06T13:32:11Z</time></trkpt>
<trkpt lat="24.771513" lon="110.676222">
<time>2016-10-06T13:32:12Z</time></trkpt>
<trkpt lat="24.771706" lon="110.674607">
<time>2016-10-06T13:32:13Z</time></trkpt>
<trkpt lat="24.771768" lon="110.673988">
<time>2016-10-06T13:32:14Z</time></trkpt>
<trkpt lat="24.771789" lon="110.67317">
<time>2016-10-06T13:32:15Z</time></trkpt>
<trkpt lat="24.771791" lon="110.672233">
<time>2016-10-06T13:32:16Z</time></trkpt>
<trkpt lat="24.771842" lon="110.671655">
<time>2016-10-06T13:32:17Z</time></trkpt>
<trkpt lat="24.771893" lon="110.671286">
<time>2016-10-06T13:32:18Z</time></trkpt>
<trkpt lat="24.771994" lon="110.670787">
<time>2016-10-06T13:32:19Z</time></trkpt>
<trkpt lat="24.772508" lon="110.668453">
<time>2016-10-06T13:32:20Z</time></trkpt>
<trkpt lat="24.772609" lon="110.668045">
<time>2016-10-06T13:32:21Z</time></trkpt>
<trkpt lat="24.77267" lon="110.667646">
<time>2016-10-06T13:32:22Z</time></trkpt>
<trkpt lat="24.772711" lon="110.667157">
<time>2016-10-06T13:32:23Z</time></trkpt>
<trkpt lat="24.772732" lon="110.666668">
<time>2016-10-06T13:32:24Z</time></trkpt>
<trkpt lat="24.772732" lon="110.666289">
<time>2016-10-06T13:32:25Z</time></trkpt>
<trkpt lat="24.772713" lon="110.66598">
<time>2016-10-06T13:32:26Z</time></trkpt>
<trkpt lat="24.772693" lon="110.665831">
<time>2016-10-06T13:32:27Z</time></trkpt>
<trkpt lat="24.772693" lon="110.665791">
<time>2016-10-06T13:32:28Z</time></trkpt>
<trkpt lat="24.772554" lon="110.665312">
<time>2016-10-06T13:32:29Z</time></trkpt>
<trkpt lat="24.772425" lon="110.664973">
<time>2016-10-06T13:32:30Z</time></trkpt>
<trkpt lat="24.772226" lon="110.664475">
<time>2016-10-06T13:32:31Z</time></trkpt>
<trkpt lat="24.771957" lon="110.663826">
<time>2016-10-06T13:32:32Z</time></trkpt>
<trkpt lat="24.771768" lon="110.663308">
<time>2016-10-06T13:32:33Z</time></trkpt>
<trkpt lat="24.771679" lon="110.662979">
<time>2016-10-06T13:32:34Z</time></trkpt>
<trkpt lat="24.771639" lon="110.662739">
<time>2016-10-06T13:32:35Z</time></trkpt>
<trkpt lat="24.77161" lon="110.66244">
<time>2016-10-06T13:32:36Z</time></trkpt>
<trkpt lat="24.771623" lon="110.660725">
<time>2016-10-06T13:32:37Z</time></trkpt>
<trkpt lat="24.771624" lon="110.660136">
<time>2016-10-06T13:32:38Z</time></trkpt>
<trkpt lat="24.771615" lon="110.659817">
<time>2016-10-06T13:32:39Z</time></trkpt>
<trkpt lat="24.771615" lon="110.659418">
<time>2016-10-06T13:32:40Z</time></trkpt>
<trkpt lat="24.771638" lon="110.658172">
<time>2016-10-06T13:32:41Z</time></trkpt>
<trkpt lat="24.771689" lon="110.657663">
<time>2016-10-06T13:32:42Z</time></trkpt>
<trkpt lat="24.771921" lon="110.656217">
<time>2016-10-06T13:32:43Z</time></trkpt>
<trkpt lat="24.772093" lon="110.6553">
<time>2016-10-06T13:32:44Z</time></trkpt>
<trkpt lat="24.772315" lon="110.654133">
<time>2016-10-06T13:32:45Z</time></trkpt>
<trkpt lat="24.772618" lon="110.652477">
<time>2016-10-06T13:32:46Z</time></trkpt>
<trkpt lat="24.772841" lon="110.65122">
<time>2016-10-06T13:32:47Z</time></trkpt>
<trkpt lat="24.773335" lon="110.648507">
<time>2016-10-06T13:32:48Z</time></trkpt>
<trkpt lat="24.773578" lon="110.647271">
<time>2016-10-06T13:32:49Z</time></trkpt>
<trkpt lat="24.774153" lon="110.644039">
<time>2016-10-06T13:32:50Z</time></trkpt>
<trkpt lat="24.774385" lon="110.642652">
<time>2016-10-06T13:32:51Z</time></trkpt>
<trkpt lat="24.774567" lon="110.641645">
<time>2016-10-06T13:32:52Z</time></trkpt>
<trkpt lat="24.774658" lon="110.641066">
<time>2016-10-06T13:32:53Z</time></trkpt>
<trkpt lat="24.774709" lon="110.640258">
<time>2016-10-06T13:32:54Z</time></trkpt>
<trkpt lat="24.77472" lon="110.639689">
<time>2016-10-06T13:32:55Z</time></trkpt>
<trkpt lat="24.774741" lon="110.63933">
<time>2016-10-06T13:32:56Z</time></trkpt>
<trkpt lat="24.774741" lon="110.639221">
<time>2016-10-06T13:32:57Z</time></trkpt>
<trkpt lat="24.774784" lon="110.637365">
<time>2016-10-06T13:32:58Z</time></trkpt>
<trkpt lat="24.774815" lon="110.636776">
<time>2016-10-06T13:32:59Z</time></trkpt>
<trkpt lat="24.774865" lon="110.636427">
<time>2016-10-06T13:33:00Z</time></trkpt>
<trkpt lat="24.774916" lon="110.636128">
<time>2016-10-06T13:33:01Z</time></trkpt>
<trkpt lat="24.775057" lon="110.635539">
<time>2016-10-06T13:33:02Z</time></trkpt>
<trkpt lat="24.775378" lon="110.634482">
<time>2016-10-06T13:33:03Z</time></trkpt>
<trkpt lat="24.77574" lon="110.633214">
<time>2016-10-06T13:33:04Z</time></trkpt>
<trkpt lat="24.775841" lon="110.632726">
<time>2016-10-06T13:33:05Z</time></trkpt>
<trkpt lat="24.775942" lon="110.632237">
<time>2016-10-06T13:33:06Z</time></trkpt>
<trkpt lat="24.776103" lon="110.631179">
<time>2016-10-06T13:33:07Z</time></trkpt>
<trkpt lat="24.776295" lon="110.629792">
<time>2016-10-06T13:33:08Z</time></trkpt>
<trkpt lat="24.776325" lon="110.629572">
<time>2016-10-06T13:33:09Z</time></trkpt>
<trkpt lat="24.776527" lon="110.628175">
<time>2016-10-06T13:33:10Z</time></trkpt>
<trkpt lat="24.776618" lon="110.627666">
<time>2016-10-06T13:33:11Z</time></trkpt>
<trkpt lat="24.776698" lon="110.627287">
<time>2016-10-06T13:33:12Z</time></trkpt>
<trkpt lat="24.776929" lon="110.626529">
<time>2016-10-06T13:33:13Z</time></trkpt>
<trkpt lat="24.77715" lon="110.62582">
<time>2016-10-06T13:33:14Z</time></trkpt>
<trkpt lat="24.777311" lon="110.625351">
<time>2016-10-06T13:33:15Z</time></trkpt>
<trkpt lat="24.777441" lon="110.625002">
<time>2016-10-06T13:33:16Z</time></trkpt>
<trkpt lat="24.777561" lon="110.624692">
<time>2016-10-06T13:33:17Z</time></trkpt>
<trkpt lat="24.777682" lon="110.624463">
<time>2016-10-06T13:33:18Z</time></trkpt>
<trkpt lat="24.777772" lon="110.624293">
<time>2016-10-06T13:33:19Z</time></trkpt>
<trkpt lat="24.777902" lon="110.624063">
<time>2016-10-06T13:33:20Z</time></trkpt>
<trkpt lat="24.778243" lon="110.623534">
<time>2016-10-06T13:33:21Z</time></trkpt>
<trkpt lat="24.778744" lon="110.622686">
<time>2016-10-06T13:33:22Z</time></trkpt>
<trkpt lat="24.779074" lon="110.622097">
<time>2016-10-06T13:33:23Z</time></trkpt>
<trkpt lat="24.779135" lon="110.621957">
<time>2016-10-06T13:33:24Z</time></trkpt>
<trkpt lat="24.779245" lon="110.621698">
<time>2016-10-06T13:33:25Z</time></trkpt>
<trkpt lat="24.779486" lon="110.620949">
<time>2016-10-06T13:33:26Z</time></trkpt>
<trkpt lat="24.779726" lon="110.62035">
<time>2016-10-06T13:33:27Z</time></trkpt>
<trkpt lat="24.779967" lon="110.619751">
<time>2016-10-06T13:33:28Z</time></trkpt>
<trkpt lat="24.780177" lon="110.619292">
<time>2016-10-06T13:33:29Z</time></trkpt>
<trkpt lat="24.780538" lon="110.618623">
<time>2016-10-06T13:33:30Z</time></trkpt>
<trkpt lat="24.781149" lon="110.617565">
<time>2016-10-06T13:33:31Z</time></trkpt>
<trkpt lat="24.78162" lon="110.616736">
<time>2016-10-06T13:33:32Z</time></trkpt>
<trkpt lat="24.7818" lon="110.616337">
<time>2016-10-06T13:33:33Z</time></trkpt>
<trkpt lat="24.7819" lon="110.616067">
<time>2016-10-06T13:33:34Z</time></trkpt>
<trkpt lat="24.781981" lon="110.615738">
<time>2016-10-06T13:33:35Z</time></trkpt>
<trkpt lat="24.782021" lon="110.615368">
<time>2016-10-06T13:33:36Z</time></trkpt>
<trkpt lat="24.782021" lon="110.614939">
<time>2016-10-06T13:33:37Z</time></trkpt>
<trkpt lat="24.781962" lon="110.61433">
<time>2016-10-06T13:33:38Z</time></trkpt>
<trkpt lat="24.781913" lon="110.613122">
<time>2016-10-06T13:33:39Z</time></trkpt>
<trkpt lat="24.781834" lon="110.611854">
<time>2016-10-06T13:33:40Z</time></trkpt>
<trkpt lat="24.781804" lon="110.611285">
<time>2016-10-06T13:33:41Z</time></trkpt>
<trkpt lat="24.781735" lon="110.610116">
<time>2016-10-06T13:33:42Z</time></trkpt>
<trkpt lat="24.781736" lon="110.609617">
<time>2016-10-06T13:33:43Z</time></trkpt>
<trkpt lat="24.781766" lon="110.609237">
<time>2016-10-06T13:33:44Z</time></trkpt>
<trkpt lat="24.781906" lon="110.608289">
<time>2016-10-06T13:33:45Z</time></trkpt>
<trkpt lat="24.782007" lon="110.6076">
<time>2016-10-06T13:33:46Z</time></trkpt>
<trkpt lat="24.782137" lon="110.60689">
<time>2016-10-06T13:33:47Z</time></trkpt>
<trkpt lat="24.782248" lon="110.606351">
<time>2016-10-06T13:33:48Z</time></trkpt>
<trkpt lat="24.782258" lon="110.606311">
<time>2016-10-06T13:33:49Z</time></trkpt>
<trkpt lat="24.782528" lon="110.605302">
<time>2016-10-06T13:33:50Z</time></trkpt>
<trkpt lat="24.782798" lon="110.604443">
<time>2016-10-06T13:33:51Z</time></trkpt>
<trkpt lat="24.782859" lon="110.604243">
<time>2016-10-06T13:33:52Z</time></trkpt>
<trkpt lat="24.783259" lon="110.603065">
<time>2016-10-06T13:33:53Z</time></trkpt>
<trkpt lat="24.783519" lon="110.602315">
<time>2016-10-06T13:33:54Z</time></trkpt>
<trkpt lat="24.783679" lon="110.601936">
<time>2016-10-06T13:33:55Z</time></trkpt>
<trkpt lat="24.78384" lon="110.601666">
<time>2016-10-06T13:33:56Z</time></trkpt>
<trkpt lat="24.78403" lon="110.601426">
<time>2016-10-06T13:33:57Z</time></trkpt>
<trkpt lat="24.78427" lon="110.601157">
<time>2016-10-06T13:33:58Z</time></trkpt>
<trkpt lat="24.78462" lon="110.600747">
<time>2016-10-06T13:33:59Z</time></trkpt>
<trkpt lat="24.78477" lon="110.600507">
<time>2016-10-06T13:34:00Z</time></trkpt>
<trkpt lat="24.78489" lon="110.600197">
<time>2016-10-06T13:34:01Z</time></trkpt>
<trkpt lat="24.78502" lon="110.599878">
<time>2016-10-06T13:34:02Z</time></trkpt>
<trkpt lat="24.78539" lon="110.598948">
<time>2016-10-06T13:34:03Z</time></trkpt>
<trkpt lat="24.78543" lon="110.598859">
<time>2016-10-06T13:34:04Z</time></trkpt>
<trkpt lat="24.78564" lon="110.598319">
<time>2016-10-06T13:34:05Z</time></trkpt>
<trkpt lat="24.78583" lon="110.597819">
<time>2016-10-06T13:34:06Z</time></trkpt>
<trkpt lat="24.785921" lon="110.59746">
<time>2016-10-06T13:34:07Z</time></trkpt>
<trkpt lat="24.785931" lon="110.59742">
<time>2016-10-06T13:34:08Z</time></trkpt>
<trkpt lat="24.785991" lon="110.59715">
<time>2016-10-06T13:34:09Z</time></trkpt>
<trkpt lat="24.786211" lon="110.595841">
<time>2016-10-06T13:34:10Z</time></trkpt>
<trkpt lat="24.786221" lon="110.595751">
<time>2016-10-06T13:34:11Z</time></trkpt>
<trkpt lat="24.786441" lon="110.594572">
<time>2016-10-06T13:34:12Z</time></trkpt>
<trkpt lat="24.786501" lon="110.594182">
<time>2016-10-06T13:34:13Z</time></trkpt>
<trkpt lat="24.786551" lon="110.593312">
<time>2016-10-06T13:34:14Z</time></trkpt>
<trkpt lat="24.786571" lon="110.592873">
<time>2016-10-06T13:34:15Z</time></trkpt>
<trkpt lat="24.786561" lon="110.592303">
<time>2016-10-06T13:34:16Z</time></trkpt>
<trkpt lat="24.786541" lon="110.592013">
<time>2016-10-06T13:34:17Z</time></trkpt>
<trkpt lat="24.786471" lon="110.590794">
<time>2016-10-06T13:34:18Z</time></trkpt>
<trkpt lat="24.786431" lon="110.590264">
<time>2016-10-06T13:34:19Z</time></trkpt>
<trkpt lat="24.786381" lon="110.589454">
<time>2016-10-06T13:34:20Z</time></trkpt>
<trkpt lat="24.78636" lon="110.588955">
<time>2016-10-06T13:34:21Z</time></trkpt>
<trkpt lat="24.78631" lon="110.587945">
<time>2016-10-06T13:34:22Z</time></trkpt>
<trkpt lat="24.78632" lon="110.587715">
<time>2016-10-06T13:34:23Z</time></trkpt>
<trkpt lat="24.78633" lon="110.587455">
<time>2016-10-06T13:34:24Z</time></trkpt>
<trkpt lat="24.78637" lon="110.587255">
<time>2016-10-06T13:34:25Z</time></trkpt>
<trkpt lat="24.78645" lon="110.586735">
<time>2016-10-06T13:34:26Z</time></trkpt>
<trkpt lat="24.78649" lon="110.586475">
<time>2016-10-06T13:34:27Z</time></trkpt>
<trkpt lat="24.78651" lon="110.586095">
<time>2016-10-06T13:34:28Z</time></trkpt>
<trkpt lat="24.78654" lon="110.585665">
<time>2016-10-06T13:34:29Z</time></trkpt>
<trkpt lat="24.786539" lon="110.584936">
<time>2016-10-06T13:34:30Z</time></trkpt>
<trkpt lat="24.786519" lon="110.584576">
<time>2016-10-06T13:34:31Z</time></trkpt>
<trkpt lat="24.786509" lon="110.584406">
<time>2016-10-06T13:34:32Z</time></trkpt>
<trkpt lat="24.786419" lon="110.583806">
<time>2016-10-06T13:34:33Z</time></trkpt>
<trkpt lat="24.786349" lon="110.583346">
<time>2016-10-06T13:34:34Z</time></trkpt>
<trkpt lat="24.786188" lon="110.582336">
<time>2016-10-06T13:34:35Z</time></trkpt>
<trkpt lat="24.786158" lon="110.582046">
<time>2016-10-06T13:34:36Z</time></trkpt>
<trkpt lat="24.786148" lon="110.581736">
<time>2016-10-06T13:34:37Z</time></trkpt>
<trkpt lat="24.786138" lon="110.581376">
<time>2016-10-06T13:34:38Z</time></trkpt>
<trkpt lat="24.786147" lon="110.580766">
<time>2016-10-06T13:34:39Z</time></trkpt>
<trkpt lat="24.786186" lon="110.578846">
<time>2016-10-06T13:34:40Z</time></trkpt>
<trkpt lat="24.786206" lon="110.578456">
<time>2016-10-06T13:34:41Z</time></trkpt>
<trkpt lat="24.786236" lon="110.578105">
<time>2016-10-06T13:34:42Z</time></trkpt>
<trkpt lat="24.786305" lon="110.577645">
<time>2016-10-06T13:34:43Z</time></trkpt>
<trkpt lat="24.786445" lon="110.576645">
<time>2016-10-06T13:34:44Z</time></trkpt>
<trkpt lat="24.786743" lon="110.575065">
<time>2016-10-06T13:34:45Z</time></trkpt>
<trkpt lat="24.787152" lon="110.572994">
<time>2016-10-06T13:34:46Z</time></trkpt>
<trkpt lat="24.787311" lon="110.572193">
<time>2016-10-06T13:34:47Z</time></trkpt>
<trkpt lat="24.78743" lon="110.571463">
<time>2016-10-06T13:34:48Z</time></trkpt>
<trkpt lat="24.78747" lon="110.571163">
<time>2016-10-06T13:34:49Z</time></trkpt>
<trkpt lat="24.78748" lon="110.570993">
<time>2016-10-06T13:34:50Z</time></trkpt>
<trkpt lat="24.787479" lon="110.570783">
<time>2016-10-06T13:34:51Z</time></trkpt>
<trkpt lat="24.787459" lon="110.570492">
<time>2016-10-06T13:34:52Z</time></trkpt>
<trkpt lat="24.787429" lon="110.570322">
<time>2016-10-06T13:34:53Z</time></trkpt>
<trkpt lat="24.787369" lon="110.569922">
<time>2016-10-06T13:34:54Z</time></trkpt>
<trkpt lat="24.787198" lon="110.569062">
<time>2016-10-06T13:34:55Z</time></trkpt>
<trkpt lat="24.787087" lon="110.568311">
<time>2016-10-06T13:34:56Z</time></trkpt>
<trkpt lat="24.787057" lon="110.568101">
<time>2016-10-06T13:34:57Z</time></trkpt>
<trkpt lat="24.787065" lon="110.56698">
<time>2016-10-06T13:34:58Z</time></trkpt>
<trkpt lat="24.787094" lon="110.565829">
<time>2016-10-06T13:34:59Z</time></trkpt>
<trkpt lat="24.787083" lon="110.565219">
<time>2016-10-06T13:35:00Z</time></trkpt>
<trkpt lat="24.787043" lon="110.564788">
<time>2016-10-06T13:35:01Z</time></trkpt>
<trkpt lat="24.786851" lon="110.563617">
<time>2016-10-06T13:35:02Z</time></trkpt>
<trkpt lat="24.786791" lon="110.563237">
<time>2016-10-06T13:35:03Z</time></trkpt>
<trkpt lat="24.78666" lon="110.562436">
<time>2016-10-06T13:35:04Z</time></trkpt>
<trkpt lat="24.786609" lon="110.562136">
<time>2016-10-06T13:35:05Z</time></trkpt>
<trkpt lat="24.786518" lon="110.561495">
<time>2016-10-06T13:35:06Z</time></trkpt>
<trkpt lat="24.786488" lon="110.561125">
<time>2016-10-06T13:35:07Z</time></trkpt>
<trkpt lat="24.786507" lon="110.560795">
<time>2016-10-06T13:35:08Z</time></trkpt>
<trkpt lat="24.786567" lon="110.560434">
<time>2016-10-06T13:35:09Z</time></trkpt>
<trkpt lat="24.786656" lon="110.560164">
<time>2016-10-06T13:35:10Z</time></trkpt>
<trkpt lat="24.786756" lon="110.559934">
<time>2016-10-06T13:35:11Z</time></trkpt>
<trkpt lat="24.786886" lon="110.559693">
<time>2016-10-06T13:35:12Z</time></trkpt>
<trkpt lat="24.787035" lon="110.559473">
<time>2016-10-06T13:35:13Z</time></trkpt>
<trkpt lat="24.787055" lon="110.559443">
<time>2016-10-06T13:35:14Z</time></trkpt>
<trkpt lat="24.787335" lon="110.559113">
<time>2016-10-06T13:35:15Z</time></trkpt>
<trkpt lat="24.787904" lon="110.558462">
<time>2016-10-06T13:35:16Z</time></trkpt>
<trkpt lat="24.788303" lon="110.557951">
<time>2016-10-06T13:35:17Z</time></trkpt>
<trkpt lat="24.788492" lon="110.557641">
<time>2016-10-06T13:35:18Z</time></trkpt>
<trkpt lat="24.789081" lon="110.55656">
<time>2016-10-06T13:35:19Z</time></trkpt>
<trkpt lat="24.789429" lon="110.555909">
<time>2016-10-06T13:35:20Z</time></trkpt>
<trkpt lat="24.789659" lon="110.555578">
<time>2016-10-06T13:35:21Z</time></trkpt>
<trkpt lat="24.789878" lon="110.555308">
<time>2016-10-06T13:35:22Z</time></trkpt>
<trkpt lat="24.790008" lon="110.555138">
<time>2016-10-06T13:35:23Z</time></trkpt>
<trkpt lat="24.790118" lon="110.554998">
<time>2016-10-06T13:35:24Z</time></trkpt>
<trkpt lat="24.790447" lon="110.554607">
<time>2016-10-06T13:35:25Z</time></trkpt>
<trkpt lat="24.790617" lon="110.554377">
<time>2016-10-06T13:35:26Z</time></trkpt>
<trkpt lat="24.790756" lon="110.554156">
<time>2016-10-06T13:35:27Z</time></trkpt>
<trkpt lat="24.790886" lon="110.553726">
<time>2016-10-06T13:35:28Z</time></trkpt>
<trkpt lat="24.790975" lon="110.553345">
<time>2016-10-06T13:35:29Z</time></trkpt>
<trkpt lat="24.791004" lon="110.553095">
<time>2016-10-06T13:35:30Z</time></trkpt>
<trkpt lat="24.791024" lon="110.552935">
<time>2016-10-06T13:35:31Z</time></trkpt>
<trkpt lat="24.791064" lon="110.552664">
<time>2016-10-06T13:35:32Z</time></trkpt>
<trkpt lat="24.791103" lon="110.552194">
<time>2016-10-06T13:35:33Z</time></trkpt>
<trkpt lat="24.791102" lon="110.551973">
<time>2016-10-06T13:35:34Z</time></trkpt>
<trkpt lat="24.791112" lon="110.551733">
<time>2016-10-06T13:35:35Z</time></trkpt>
<trkpt lat="24.79111" lon="110.550431">
<time>2016-10-06T13:35:36Z</time></trkpt>
<trkpt lat="24.791089" lon="110.550091">
<time>2016-10-06T13:35:37Z</time></trkpt>
<trkpt lat="24.791059" lon="110.54995">
<time>2016-10-06T13:35:38Z</time></trkpt>
<trkpt lat="24.791008" lon="110.5498">
<time>2016-10-06T13:35:39Z</time></trkpt>
<trkpt lat="24.790958" lon="110.54967">
<time>2016-10-06T13:35:40Z</time></trkpt>
<trkpt lat="24.790908" lon="110.54958">
<time>2016-10-06T13:35:41Z</time></trkpt>
<trkpt lat="24.790818" lon="110.54947">
<time>2016-10-06T13:35:42Z</time></trkpt>
<trkpt lat="24.790748" lon="110.54939">
<time>2016-10-06T13:35:43Z</time></trkpt>
<trkpt lat="24.790628" lon="110.549309">
<time>2016-10-06T13:35:44Z</time></trkpt>
<trkpt lat="24.790487" lon="110.549229">
<time>2016-10-06T13:35:45Z</time></trkpt>
<trkpt lat="24.790337" lon="110.549169">
<time>2016-10-06T13:35:46Z</time></trkpt>
<trkpt lat="24.790197" lon="110.549119">
<time>2016-10-06T13:35:47Z</time></trkpt>
<trkpt lat="24.789587" lon="110.549009">
<time>2016-10-06T13:35:48Z</time></trkpt>
<trkpt lat="24.789217" lon="110.548899">
<time>2016-10-06T13:35:49Z</time></trkpt>
<trkpt lat="24.788947" lon="110.548789">
<time>2016-10-06T13:35:50Z</time></trkpt>
<trkpt lat="24.788777" lon="110.548689">
<time>2016-10-06T13:35:51Z</time></trkpt>
<trkpt lat="24.788566" lon="110.548538">
<time>2016-10-06T13:35:52Z</time></trkpt>
<trkpt lat="24.788386" lon="110.548378">
<time>2016-10-06T13:35:53Z</time></trkpt>
<trkpt lat="24.788025" lon="110.547977">
<time>2016-10-06T13:35:54Z</time></trkpt>
<trkpt lat="24.787554" lon="110.547407">
<time>2016-10-06T13:35:55Z</time></trkpt>
<trkpt lat="24.787254" lon="110.547056">
<time>2016-10-06T13:35:56Z</time></trkpt>
<trkpt lat="24.787003" lon="110.546725">
<time>2016-10-06T13:35:57Z</time></trkpt>
<trkpt lat="24.786802" lon="110.546415">
<time>2016-10-06T13:35:58Z</time></trkpt>
<trkpt lat="24.786471" lon="110.545774">
<time>2016-10-06T13:35:59Z</time></trkpt>
<trkpt lat="24.785889" lon="110.544612">
<time>2016-10-06T13:36:00Z</time></trkpt>
<trkpt lat="24.785618" lon="110.544061">
<time>2016-10-06T13:36:01Z</time></trkpt>
<trkpt lat="24.785527" lon="110.54379">
<time>2016-10-06T13:36:02Z</time></trkpt>
<trkpt lat="24.785476" lon="110.54353">
<time>2016-10-06T13:36:03Z</time></trkpt>
<trkpt lat="24.785446" lon="110.5433">
<time>2016-10-06T13:36:04Z</time></trkpt>
<trkpt lat="24.785446" lon="110.543099">
<time>2016-10-06T13:36:05Z</time></trkpt>
<trkpt lat="24.785485" lon="110.542869">
<time>2016-10-06T13:36:06Z</time></trkpt>
<trkpt lat="24.785574" lon="110.542498">
<time>2016-10-06T13:36:07Z</time></trkpt>
<trkpt lat="24.785614" lon="110.542198">
<time>2016-10-06T13:36:08Z</time></trkpt>
<trkpt lat="24.785623" lon="110.542017">
<time>2016-10-06T13:36:09Z</time></trkpt>
<trkpt lat="24.785613" lon="110.541817">
<time>2016-10-06T13:36:10Z</time></trkpt>
<trkpt lat="24.785613" lon="110.541727">
<time>2016-10-06T13:36:11Z</time></trkpt>
<trkpt lat="24.785562" lon="110.541396">
<time>2016-10-06T13:36:12Z</time></trkpt>
<trkpt lat="24.78544" lon="110.540655">
<time>2016-10-06T13:36:13Z</time></trkpt>
<trkpt lat="24.785329" lon="110.540144">
<time>2016-10-06T13:36:14Z</time></trkpt>
<trkpt lat="24.785208" lon="110.539422">
<time>2016-10-06T13:36:15Z</time></trkpt>
<trkpt lat="24.785026" lon="110.538541">
<time>2016-10-06T13:36:16Z</time></trkpt>
<trkpt lat="24.784925" lon="110.53816">
<time>2016-10-06T13:36:17Z</time></trkpt>
<trkpt lat="24.784763" lon="110.537589">
<time>2016-10-06T13:36:18Z</time></trkpt>
<trkpt lat="24.784673" lon="110.537268">
<time>2016-10-06T13:36:19Z</time></trkpt>
<trkpt lat="24.784622" lon="110.537088">
<time>2016-10-06T13:36:20Z</time></trkpt>
<trkpt lat="24.78439" lon="110.536296">
<time>2016-10-06T13:36:21Z</time></trkpt>
<trkpt lat="24.784269" lon="110.535895">
<time>2016-10-06T13:36:22Z</time></trkpt>
<trkpt lat="24.784169" lon="110.535555">
<time>2016-10-06T13:36:23Z</time></trkpt>
<trkpt lat="24.783987" lon="110.534883">
<time>2016-10-06T13:36:24Z</time></trkpt>
<trkpt lat="24.783846" lon="110.534372">
<time>2016-10-06T13:36:25Z</time></trkpt>
<trkpt lat="24.783775" lon="110.534021">
<time>2016-10-06T13:36:26Z</time></trkpt>
<trkpt lat="24.783694" lon="110.53356">
<time>2016-10-06T13:36:27Z</time></trkpt>
<trkpt lat="24.783623" lon="110.533189">
<time>2016-10-06T13:36:28Z</time></trkpt>
<trkpt lat="24.783572" lon="110.532819">
<time>2016-10-06T13:36:29Z</time></trkpt>
<trkpt lat="24.783542" lon="110.532588">
<time>2016-10-06T13:36:30Z</time></trkpt>
<trkpt lat="24.78346" lon="110.532067">
<time>2016-10-06T13:36:31Z</time></trkpt>
<trkpt lat="24.783439" lon="110.531736">
<time>2016-10-06T13:36:32Z</time></trkpt>
<trkpt lat="24.783449" lon="110.531516">
<time>2016-10-06T13:36:33Z</time></trkpt>
<trkpt lat="24.783469" lon="110.531355">
<time>2016-10-06T13:36:34Z</time></trkpt>
<trkpt lat="24.783508" lon="110.531235">
<time>2016-10-06T13:36:35Z</time></trkpt>
<trkpt lat="24.783588" lon="110.531055">
<time>2016-10-06T13:36:36Z</time></trkpt>
<trkpt lat="24.783697" lon="110.530844">
<time>2016-10-06T13:36:37Z</time></trkpt>
<trkpt lat="24.784026" lon="110.530303">
<time>2016-10-06T13:36:38Z</time></trkpt>
<trkpt lat="24.784554" lon="110.529511">
<time>2016-10-06T13:36:39Z</time></trkpt>
<trkpt lat="24.784673" lon="110.529301">
<time>2016-10-06T13:36:40Z</time></trkpt>
<trkpt lat="24.784822" lon="110.52899">
<time>2016-10-06T13:36:41Z</time></trkpt>
<trkpt lat="24.784862" lon="110.52878">
<time>2016-10-06T13:36:42Z</time></trkpt>
<trkpt lat="24.784881" lon="110.528549">
<time>2016-10-06T13:36:43Z</time></trkpt>
<trkpt lat="24.784891" lon="110.528469">
<time>2016-10-06T13:36:44Z</time></trkpt>
<trkpt lat="24.784901" lon="110.528308">
<time>2016-10-06T13:36:45Z</time></trkpt>
<trkpt lat="24.78489" lon="110.528018">
<time>2016-10-06T13:36:46Z</time></trkpt>
<trkpt lat="24.784879" lon="110.527807">
<time>2016-10-06T13:36:47Z</time></trkpt>
<trkpt lat="24.784858" lon="110.527096">
<time>2016-10-06T13:36:48Z</time></trkpt>
<trkpt lat="24.784867" lon="110.526915">
<time>2016-10-06T13:36:49Z</time></trkpt>
<trkpt lat="24.784877" lon="110.526735">
<time>2016-10-06T13:36:50Z</time></trkpt>
<trkpt lat="24.784896" lon="110.526564">
<time>2016-10-06T13:36:51Z</time></trkpt>
<trkpt lat="24.784946" lon="110.526404">
<time>2016-10-06T13:36:52Z</time></trkpt>
<trkpt lat="24.785015" lon="110.526153">
<time>2016-10-06T13:36:53Z</time></trkpt>
<trkpt lat="24.785174" lon="110.525712">
<time>2016-10-06T13:36:54Z</time></trkpt>
<trkpt lat="24.785233" lon="110.525532">
<time>2016-10-06T13:36:55Z</time></trkpt>
<trkpt lat="24.785293" lon="110.525321">
<time>2016-10-06T13:36:56Z</time></trkpt>
<trkpt lat="24.785401" lon="110.52475">
<time>2016-10-06T13:36:57Z</time></trkpt>
<trkpt lat="24.78545" lon="110.524389">
<time>2016-10-06T13:36:58Z</time></trkpt>
<trkpt lat="24.785617" lon="110.523246">
<time>2016-10-06T13:36:59Z</time></trkpt>
<trkpt lat="24.785784" lon="110.522103">
<time>2016-10-06T13:37:00Z</time></trkpt>
<trkpt lat="24.785853" lon="110.521702">
<time>2016-10-06T13:37:01Z</time></trkpt>
<trkpt lat="24.786" lon="110.52058">
<time>2016-10-06T13:37:02Z</time></trkpt>
<trkpt lat="24.786029" lon="110.520399">
<time>2016-10-06T13:37:03Z</time></trkpt>
<trkpt lat="24.786029" lon="110.520229">
<time>2016-10-06T13:37:04Z</time></trkpt>
<trkpt lat="24.786008" lon="110.520008">
<time>2016-10-06T13:37:05Z</time></trkpt>
<trkpt lat="24.785988" lon="110.519838">
<time>2016-10-06T13:37:06Z</time></trkpt>
<trkpt lat="24.785917" lon="110.519617">
<time>2016-10-06T13:37:07Z</time></trkpt>
<trkpt lat="24.785766" lon="110.519216">
<time>2016-10-06T13:37:08Z</time></trkpt>
<trkpt lat="24.785635" lon="110.518865">
<time>2016-10-06T13:37:09Z</time></trkpt>
<trkpt lat="24.785262" lon="110.517792">
<time>2016-10-06T13:37:10Z</time></trkpt>
<trkpt lat="24.785071" lon="110.517241">
<time>2016-10-06T13:37:11Z</time></trkpt>
<trkpt lat="24.78502" lon="110.517111">
<time>2016-10-06T13:37:12Z</time></trkpt>
<trkpt lat="24.784708" lon="110.516178">
<time>2016-10-06T13:37:13Z</time></trkpt>
<trkpt lat="24.784647" lon="110.515887">
<time>2016-10-06T13:37:14Z</time></trkpt>
<trkpt lat="24.784636" lon="110.515717">
<time>2016-10-06T13:37:15Z</time></trkpt>
<trkpt lat="24.784646" lon="110.515506">
<time>2016-10-06T13:37:16Z</time></trkpt>
<trkpt lat="24.784685" lon="110.515216">
<time>2016-10-06T13:37:17Z</time></trkpt>
<trkpt lat="24.784734" lon="110.514965">
<time>2016-10-06T13:37:18Z</time></trkpt>
<trkpt lat="24.784813" lon="110.514664">
<time>2016-10-06T13:37:19Z</time></trkpt>
<trkpt lat="24.784873" lon="110.514474">
<time>2016-10-06T13:37:20Z</time></trkpt>
<trkpt lat="24.784903" lon="110.514394">
<time>2016-10-06T13:37:21Z</time></trkpt>
<trkpt lat="24.78518" lon="110.513511">
<time>2016-10-06T13:37:22Z</time></trkpt>
<trkpt lat="24.785438" lon="110.512749">
<time>2016-10-06T13:37:23Z</time></trkpt>
<trkpt lat="24.786023" lon="110.510944">
<time>2016-10-06T13:37:24Z</time></trkpt>
<trkpt lat="24.78635" lon="110.509891">
<time>2016-10-06T13:37:25Z</time></trkpt>
<trkpt lat="24.786399" lon="110.509721">
<time>2016-10-06T13:37:26Z</time></trkpt>
<trkpt lat="24.786428" lon="110.50953">
<time>2016-10-06T13:37:27Z</time></trkpt>
<trkpt lat="24.786448" lon="110.50937">
<time>2016-10-06T13:37:28Z</time></trkpt>
<trkpt lat="24.786447" lon="110.509149">
<time>2016-10-06T13:37:29Z</time></trkpt>
<trkpt lat="24.786437" lon="110.509009">
<time>2016-10-06T13:37:30Z</time></trkpt>
<trkpt lat="24.786407" lon="110.508899">
<time>2016-10-06T13:37:31Z</time></trkpt>
<trkpt lat="24.786356" lon="110.508778">
<time>2016-10-06T13:37:32Z</time></trkpt>
<trkpt lat="24.786296" lon="110.508678">
<time>2016-10-06T13:37:33Z</time></trkpt>
<trkpt lat="24.786206" lon="110.508538">
<time>2016-10-06T13:37:34Z</time></trkpt>
<trkpt lat="24.785995" lon="110.508297">
<time>2016-10-06T13:37:35Z</time></trkpt>
<trkpt lat="24.785865" lon="110.508157">
<time>2016-10-06T13:37:36Z</time></trkpt>
<trkpt lat="24.785433" lon="110.507745">
<time>2016-10-06T13:37:37Z</time></trkpt>
<trkpt lat="24.784942" lon="110.507274">
<time>2016-10-06T13:37:38Z</time></trkpt>
<trkpt lat="24.784471" lon="110.506793">
<time>2016-10-06T13:37:39Z</time></trkpt>
<trkpt lat="24.78415" lon="110.506482">
<time>2016-10-06T13:37:40Z</time></trkpt>
<trkpt lat="24.783709" lon="110.506061">
<time>2016-10-06T13:37:41Z</time></trkpt>
<trkpt lat="24.783518" lon="110.50583">
<time>2016-10-06T13:37:42Z</time></trkpt>
<trkpt lat="24.783397" lon="110.50566">
<time>2016-10-06T13:37:43Z</time></trkpt>
<trkpt lat="24.783217" lon="110.505389">
<time>2016-10-06T13:37:44Z</time></trkpt>
<trkpt lat="24.783066" lon="110.505148">
<time>2016-10-06T13:37:45Z</time></trkpt>
<trkpt lat="24.782925" lon="110.504958">
<time>2016-10-06T13:37:46Z</time></trkpt>
<trkpt lat="24.782785" lon="110.504797">
<time>2016-10-06T13:37:47Z</time></trkpt>
<trkpt lat="24.782564" lon="110.504557">
<time>2016-10-06T13:37:48Z</time></trkpt>
<trkpt lat="24.782173" lon="110.504196">
<time>2016-10-06T13:37:49Z</time></trkpt>
<trkpt lat="24.782073" lon="110.504085">
<time>2016-10-06T13:37:50Z</time></trkpt>
<trkpt lat="24.781982" lon="110.503975">
<time>2016-10-06T13:37:51Z</time></trkpt>
<trkpt lat="24.781621" lon="110.503544">
<time>2016-10-06T13:37:52Z</time></trkpt>
<trkpt lat="24.78114" lon="110.502972">
<time>2016-10-06T13:37:53Z</time></trkpt>
<trkpt lat="24.780788" lon="110.502501">
<time>2016-10-06T13:37:54Z</time></trkpt>
<trkpt lat="24.780577" lon="110.50227">
<time>2016-10-06T13:37:55Z</time></trkpt>
<trkpt lat="24.780447" lon="110.50215">
<time>2016-10-06T13:37:56Z</time></trkpt>
<trkpt lat="24.780317" lon="110.50206">
<time>2016-10-06T13:37:57Z</time></trkpt>
<trkpt lat="24.780217" lon="110.50199">
<time>2016-10-06T13:37:58Z</time></trkpt>
<trkpt lat="24.780036" lon="110.501899">
<time>2016-10-06T13:37:59Z</time></trkpt>
<trkpt lat="24.779346" lon="110.501639">
<time>2016-10-06T13:38:00Z</time></trkpt>
<trkpt lat="24.778515" lon="110.501328">
<time>2016-10-06T13:38:01Z</time></trkpt>
<trkpt lat="24.778205" lon="110.501208">
<time>2016-10-06T13:38:02Z</time></trkpt>
<trkpt lat="24.777193" lon="110.500827">
<time>2016-10-06T13:38:03Z</time></trkpt>
<trkpt lat="24.776212" lon="110.500466">
<time>2016-10-06T13:38:04Z</time></trkpt>
<trkpt lat="24.775522" lon="110.500205">
<time>2016-10-06T13:38:05Z</time></trkpt>
<trkpt lat="24.775221" lon="110.500115">
<time>2016-10-06T13:38:06Z</time></trkpt>
<trkpt lat="24.775111" lon="110.500085">
<time>2016-10-06T13:38:07Z</time></trkpt>
<trkpt lat="24.775031" lon="110.500045">
<time>2016-10-06T13:38:08Z</time></trkpt>
<trkpt lat="24.775001" lon="110.500024">
<time>2016-10-06T13:38:09Z</time></trkpt>
<trkpt lat="24.774991" lon="110.500014">
<time>2016-10-06T13:38:10Z</time></trkpt>
<trkpt lat="24.774561" lon="110.499854">
<time>2016-10-06T13:38:11Z</time></trkpt>
<trkpt lat="24.772418" lon="110.499042">
<time>2016-10-06T13:38:12Z</time></trkpt>
<trkpt lat="24.771898" lon="110.498851">
<time>2016-10-06T13:38:13Z</time></trkpt>
<trkpt lat="24.771297" lon="110.498631">
<time>2016-10-06T13:38:14Z</time></trkpt>
<trkpt lat="24.769936" lon="110.498109">
<time>2016-10-06T13:38:15Z</time></trkpt>
<trkpt lat="24.769626" lon="110.498009">
<time>2016-10-06T13:38:16Z</time></trkpt>
<trkpt lat="24.769505" lon="110.497959">
<time>2016-10-06T13:38:17Z</time></trkpt>
<trkpt lat="24.769505" lon="110.497959">
<time>2016-10-06T13:38:18Z</time></trkpt>
<trkpt lat="24.769235" lon="110.497849">
<time>2016-10-06T13:38:19Z</time></trkpt>
<trkpt lat="24.765311" lon="110.496355">
<time>2016-10-06T13:38:20Z</time></trkpt>
<trkpt lat="24.7646" lon="110.496044">
<time>2016-10-06T13:38:21Z</time></trkpt>
<trkpt lat="24.7646" lon="110.496044">
<time>2016-10-06T13:38:22Z</time></trkpt>
<trkpt lat="24.764789" lon="110.495673">
<time>2016-10-06T13:38:23Z</time></trkpt>
<trkpt lat="24.764918" lon="110.495422">
<time>2016-10-06T13:38:24Z</time></trkpt>
<trkpt lat="24.765067" lon="110.495131">
<time>2016-10-06T13:38:25Z</time></trkpt>
<trkpt lat="24.765227" lon="110.49489">
<time>2016-10-06T13:38:26Z</time></trkpt>
<trkpt lat="24.765227" lon="110.49489">
<time>2016-10-06T13:38:27Z</time></trkpt>
<trkpt lat="24.765116" lon="110.4948">
<time>2016-10-06T13:38:28Z</time></trkpt>
<trkpt lat="24.765116" lon="110.4948">
<time>2016-10-06T13:38:29Z</time></trkpt>
<trkpt lat="24.765285" lon="110.494489">
<time>2016-10-06T13:38:30Z</time></trkpt>
<trkpt lat="24.765444" lon="110.494209">
<time>2016-10-06T13:38:31Z</time></trkpt>
<trkpt lat="24.765574" lon="110.493968">
<time>2016-10-06T13:38:32Z</time></trkpt>
<trkpt lat="24.765524" lon="110.493928">
<time>2016-10-06T13:38:33Z</time></trkpt>
<trkpt lat="24.764892" lon="110.493497">
<time>2016-10-06T13:38:34Z</time></trkpt>
<trkpt lat="24.764892" lon="110.493497">
<time>2016-10-06T13:38:35Z</time></trkpt>
<trkpt lat="24.765062" lon="110.493226">
<time>2016-10-06T13:38:36Z</time></trkpt>
<trkpt lat="24.76533" lon="110.492724">
<time>2016-10-06T13:38:37Z</time></trkpt>
<trkpt lat="24.765778" lon="110.491892">
<time>2016-10-06T13:38:38Z</time></trkpt>
<trkpt lat="24.765817" lon="110.491822">
<time>2016-10-06T13:38:39Z</time></trkpt>
<trkpt lat="24.766791" lon="110.489886">
<time>2016-10-06T13:38:40Z</time></trkpt>
<trkpt lat="24.766851" lon="110.489746">
<time>2016-10-06T13:38:41Z</time></trkpt>
<trkpt lat="24.766901" lon="110.489615">
<time>2016-10-06T13:38:42Z</time></trkpt>
<trkpt lat="24.767" lon="110.489385">
<time>2016-10-06T13:38:43Z</time></trkpt>
<trkpt lat="24.767039" lon="110.489174">
<time>2016-10-06T13:38:44Z</time></trkpt>
<trkpt lat="24.767039" lon="110.489174">
<time>2016-10-06T13:38:45Z</time></trkpt>
<trkpt lat="24.767288" lon="110.488713">
<time>2016-10-06T13:38:46Z</time></trkpt>
<trkpt lat="24.768173" lon="110.487078">
<time>2016-10-06T13:38:47Z</time></trkpt>
<trkpt lat="24.768282" lon="110.486867">
<time>2016-10-06T13:38:48Z</time></trkpt>
<trkpt lat="24.769366" lon="110.484872">
<time>2016-10-06T13:38:49Z</time></trkpt>
<trkpt lat="24.769913" lon="110.483849">
<time>2016-10-06T13:38:50Z</time></trkpt>
<trkpt lat="24.770182" lon="110.483378">
<time>2016-10-06T13:38:51Z</time></trkpt>
<trkpt lat="24.770351" lon="110.483077">
<time>2016-10-06T13:38:52Z</time></trkpt>
<trkpt lat="24.770908" lon="110.482114">
<time>2016-10-06T13:38:53Z</time></trkpt>
<trkpt lat="24.770988" lon="110.482024">
<time>2016-10-06T13:38:54Z</time></trkpt>
<trkpt lat="24.771087" lon="110.481903">
<time>2016-10-06T13:38:55Z</time></trkpt>
<trkpt lat="24.771277" lon="110.481693">
<time>2016-10-06T13:38:56Z</time></trkpt>
<trkpt lat="24.771586" lon="110.481402">
<time>2016-10-06T13:38:57Z</time></trkpt>
<trkpt lat="24.771845" lon="110.481211">
<time>2016-10-06T13:38:58Z</time></trkpt>
<trkpt lat="24.772135" lon="110.481021">
<time>2016-10-06T13:38:59Z</time></trkpt>
<trkpt lat="24.773812" lon="110.480098">
<time>2016-10-06T13:39:00Z</time></trkpt>
<trkpt lat="24.773862" lon="110.480078">
<time>2016-10-06T13:39:01Z</time></trkpt>
<trkpt lat="24.774131" lon="110.479928">
<time>2016-10-06T13:39:02Z</time></trkpt>
<trkpt lat="24.774501" lon="110.479727">
<time>2016-10-06T13:39:03Z</time></trkpt>
<trkpt lat="24.7747" lon="110.479617">
<time>2016-10-06T13:39:04Z</time></trkpt>
<trkpt lat="24.77495" lon="110.479476">
<time>2016-10-06T13:39:05Z</time></trkpt>
<trkpt lat="24.775559" lon="110.479145">
<time>2016-10-06T13:39:06Z</time></trkpt>
<trkpt lat="24.775629" lon="110.479115">
<time>2016-10-06T13:39:07Z</time></trkpt>
<trkpt lat="24.776268" lon="110.478825">
<time>2016-10-06T13:39:08Z</time></trkpt>
<trkpt lat="24.776568" lon="110.478694">
<time>2016-10-06T13:39:09Z</time></trkpt>
<trkpt lat="24.777027" lon="110.478504">
<time>2016-10-06T13:39:10Z</time></trkpt>
<trkpt lat="24.777117" lon="110.478463">
<time>2016-10-06T13:39:11Z</time></trkpt>
<trkpt lat="24.777776" lon="110.478173">
<time>2016-10-06T13:39:12Z</time></trkpt>
<trkpt lat="24.777776" lon="110.478173">
<time>2016-10-06T13:39:13Z</time></trkpt>
<trkpt lat="24.777896" lon="110.478022">
<time>2016-10-06T13:39:14Z</time></trkpt>
<trkpt lat="24.778284" lon="110.477571">
<time>2016-10-06T13:39:15Z</time></trkpt>
<trkpt lat="24.778633" lon="110.47712">
<time>2016-10-06T13:39:16Z</time></trkpt>
<trkpt lat="24.778643" lon="110.47712">
<time>2016-10-06T13:39:17Z</time></trkpt>
<trkpt lat="24.779002" lon="110.476668">
<time>2016-10-06T13:39:18Z</time></trkpt>
<trkpt lat="24.779081" lon="110.476568">
<time>2016-10-06T13:39:19Z</time></trkpt>
<trkpt lat="24.77943" lon="110.476137">
<time>2016-10-06T13:39:20Z</time></trkpt>
<trkpt lat="24.779888" lon="110.475545">
<time>2016-10-06T13:39:21Z</time></trkpt>
<trkpt lat="24.780486" lon="110.474803">
<time>2016-10-06T13:39:22Z</time></trkpt>
<trkpt lat="24.780755" lon="110.474482">
<time>2016-10-06T13:39:23Z</time></trkpt>
<trkpt lat="24.781124" lon="110.474021">
<time>2016-10-06T13:39:24Z</time></trkpt>
<trkpt lat="24.781204" lon="110.473961">
<time>2016-10-06T13:39:25Z</time></trkpt>
<trkpt lat="24.781253" lon="110.473891">
<time>2016-10-06T13:39:26Z</time></trkpt>
<trkpt lat="24.781473" lon="110.47363">
<time>2016-10-06T13:39:27Z</time></trkpt>
<trkpt lat="24.781921" lon="110.473079">
<time>2016-10-06T13:39:28Z</time></trkpt>
<trkpt lat="24.78233" lon="110.472567">
<time>2016-10-06T13:39:29Z</time></trkpt>
<trkpt lat="24.782698" lon="110.472066">
<time>2016-10-06T13:39:30Z</time></trkpt>
<trkpt lat="24.782818" lon="110.471916">
<time>2016-10-06T13:39:31Z</time></trkpt>
<trkpt lat="24.782897" lon="110.471785">
<time>2016-10-06T13:39:32Z</time></trkpt>
<trkpt lat="24.783136" lon="110.471424">
<time>2016-10-06T13:39:33Z</time></trkpt>
<trkpt lat="24.783385" lon="110.470973">
<time>2016-10-06T13:39:34Z</time></trkpt>
<trkpt lat="24.783604" lon="110.470522">
<time>2016-10-06T13:39:35Z</time></trkpt>
<trkpt lat="24.783852" lon="110.46988">
<time>2016-10-06T13:39:36Z</time></trkpt>
<trkpt lat="24.784031" lon="110.469349">
<time>2016-10-06T13:39:37Z</time></trkpt>
<trkpt lat="24.784268" lon="110.468446">
<time>2016-10-06T13:39:38Z</time></trkpt>
<trkpt lat="24.784357" lon="110.468005">
<time>2016-10-06T13:39:39Z</time></trkpt>
<trkpt lat="24.784465" lon="110.467434">
<time>2016-10-06T13:39:40Z</time></trkpt>
<trkpt lat="24.784593" lon="110.466692">
<time>2016-10-06T13:39:41Z</time></trkpt>
<trkpt lat="24.784761" lon="110.4659">
<time>2016-10-06T13:39:42Z</time></trkpt>
<trkpt lat="24.78482" lon="110.465599">
<time>2016-10-06T13:39:43Z</time></trkpt>
<trkpt lat="24.78485" lon="110.465469">
<time>2016-10-06T13:39:44Z</time></trkpt>
<trkpt lat="24.78487" lon="110.465439">
<time>2016-10-06T13:39:45Z</time></trkpt>
<trkpt lat="24.784979" lon="110.465138">
<time>2016-10-06T13:39:46Z</time></trkpt>
<trkpt lat="24.785138" lon="110.464817">
<time>2016-10-06T13:39:47Z</time></trkpt>
<trkpt lat="24.785228" lon="110.464677">
<time>2016-10-06T13:39:48Z</time></trkpt>
<trkpt lat="24.785318" lon="110.464557">
<time>2016-10-06T13:39:49Z</time></trkpt>
<trkpt lat="24.785457" lon="110.464386">
<time>2016-10-06T13:39:50Z</time></trkpt>
<trkpt lat="24.785587" lon="110.464246">
<time>2016-10-06T13:39:51Z</time></trkpt>
<trkpt lat="24.785776" lon="110.464095">
<time>2016-10-06T13:39:52Z</time></trkpt>
<trkpt lat="24.785986" lon="110.463945">
<time>2016-10-06T13:39:53Z</time></trkpt>
<trkpt lat="24.786146" lon="110.463855">
<time>2016-10-06T13:39:54Z</time></trkpt>
<trkpt lat="24.786306" lon="110.463795">
<time>2016-10-06T13:39:55Z</time></trkpt>
<trkpt lat="24.786495" lon="110.463734">
<time>2016-10-06T13:39:56Z</time></trkpt>
<trkpt lat="24.786725" lon="110.463684">
<time>2016-10-06T13:39:57Z</time></trkpt>
<trkpt lat="24.786935" lon="110.463644">
<time>2016-10-06T13:39:58Z</time></trkpt>
<trkpt lat="24.787085" lon="110.463634">
<time>2016-10-06T13:39:59Z</time></trkpt>
<trkpt lat="24.787715" lon="110.463624">
<time>2016-10-06T13:40:00Z</time></trkpt>
<trkpt lat="24.788815" lon="110.463584">
<time>2016-10-06T13:40:01Z</time></trkpt>
<trkpt lat="24.789225" lon="110.463514">
<time>2016-10-06T13:40:02Z</time></trkpt>
<trkpt lat="24.789504" lon="110.463403">
<time>2016-10-06T13:40:03Z</time></trkpt>
<trkpt lat="24.789824" lon="110.463223">
<time>2016-10-06T13:40:04Z</time></trkpt>
<trkpt lat="24.790013" lon="110.463093">
<time>2016-10-06T13:40:05Z</time></trkpt>
<trkpt lat="24.790173" lon="110.462952">
<time>2016-10-06T13:40:06Z</time></trkpt>
<trkpt lat="24.790353" lon="110.462762">
<time>2016-10-06T13:40:07Z</time></trkpt>
<trkpt lat="24.790492" lon="110.462591">
<time>2016-10-06T13:40:08Z</time></trkpt>
<trkpt lat="24.79093" lon="110.46195">
<time>2016-10-06T13:40:09Z</time></trkpt>
<trkpt lat="24.791528" lon="110.461038">
<time>2016-10-06T13:40:10Z</time></trkpt>
<trkpt lat="24.792086" lon="110.460115">
<time>2016-10-06T13:40:11Z</time></trkpt>
<trkpt lat="24.792983" lon="110.458882">
<time>2016-10-06T13:40:12Z</time></trkpt>
<trkpt lat="24.793012" lon="110.458842">
<time>2016-10-06T13:40:13Z</time></trkpt>
<trkpt lat="24.79372" lon="110.45785">
<time>2016-10-06T13:40:14Z</time></trkpt>
<trkpt lat="24.794338" lon="110.457008">
<time>2016-10-06T13:40:15Z</time></trkpt>
<trkpt lat="24.795005" lon="110.456036">
<time>2016-10-06T13:40:16Z</time></trkpt>
<trkpt lat="24.795135" lon="110.455845">
<time>2016-10-06T13:40:17Z</time></trkpt>
<trkpt lat="24.795444" lon="110.455324">
<time>2016-10-06T13:40:18Z</time></trkpt>
<trkpt lat="24.795633" lon="110.454963">
<time>2016-10-06T13:40:19Z</time></trkpt>
<trkpt lat="24.795722" lon="110.454793">
<time>2016-10-06T13:40:20Z</time></trkpt>
<trkpt lat="24.79614" lon="110.453941">
<time>2016-10-06T13:40:21Z</time></trkpt>
<trkpt lat="24.796638" lon="110.452959">
<time>2016-10-06T13:40:22Z</time></trkpt>
<trkpt lat="24.797196" lon="110.451887">
<time>2016-10-06T13:40:23Z</time></trkpt>
<trkpt lat="24.798989" lon="110.448931">
<time>2016-10-06T13:40:24Z</time></trkpt>
<trkpt lat="24.799278" lon="110.44846">
<time>2016-10-06T13:40:25Z</time></trkpt>
<trkpt lat="24.800165" lon="110.447017">
<time>2016-10-06T13:40:26Z</time></trkpt>
<trkpt lat="24.80466" lon="110.439603">
<time>2016-10-06T13:40:27Z</time></trkpt>
<trkpt lat="24.804709" lon="110.439493">
<time>2016-10-06T13:40:28Z</time></trkpt>
<trkpt lat="24.804849" lon="110.439233">
<time>2016-10-06T13:40:29Z</time></trkpt>
<trkpt lat="24.805058" lon="110.438792">
<time>2016-10-06T13:40:30Z</time></trkpt>
<trkpt lat="24.805227" lon="110.438381">
<time>2016-10-06T13:40:31Z</time></trkpt>
<trkpt lat="24.805297" lon="110.438201">
<time>2016-10-06T13:40:32Z</time></trkpt>
<trkpt lat="24.805994" lon="110.436408">
<time>2016-10-06T13:40:33Z</time></trkpt>
<trkpt lat="24.807199" lon="110.433444">
<time>2016-10-06T13:40:34Z</time></trkpt>
<trkpt lat="24.807836" lon="110.431762">
<time>2016-10-06T13:40:35Z</time></trkpt>
<trkpt lat="24.808314" lon="110.43053">
<time>2016-10-06T13:40:36Z</time></trkpt>
<trkpt lat="24.808454" lon="110.430049">
<time>2016-10-06T13:40:37Z</time></trkpt>
<trkpt lat="24.808553" lon="110.429649">
<time>2016-10-06T13:40:38Z</time></trkpt>
<trkpt lat="24.808593" lon="110.429329">
<time>2016-10-06T13:40:39Z</time></trkpt>
<trkpt lat="24.808652" lon="110.428758">
<time>2016-10-06T13:40:40Z</time></trkpt>
<trkpt lat="24.808671" lon="110.428297">
<time>2016-10-06T13:40:41Z</time></trkpt>
<trkpt lat="24.808759" lon="110.427006">
<time>2016-10-06T13:40:42Z</time></trkpt>
<trkpt lat="24.808878" lon="110.426125">
<time>2016-10-06T13:40:43Z</time></trkpt>
<trkpt lat="24.809038" lon="110.425684">
<time>2016-10-06T13:40:44Z</time></trkpt>
<trkpt lat="24.809237" lon="110.425324">
<time>2016-10-06T13:40:45Z</time></trkpt>
<trkpt lat="24.809427" lon="110.425074">
<time>2016-10-06T13:40:46Z</time></trkpt>
<trkpt lat="24.809477" lon="110.425014">
<time>2016-10-06T13:40:47Z</time></trkpt>
<trkpt lat="24.809746" lon="110.424733">
<time>2016-10-06T13:40:48Z</time></trkpt>
<trkpt lat="24.810146" lon="110.424373">
<time>2016-10-06T13:40:49Z</time></trkpt>
<trkpt lat="24.810745" lon="110.423863">
<time>2016-10-06T13:40:50Z</time></trkpt>
<trkpt lat="24.810745" lon="110.423853">
<time>2016-10-06T13:40:51Z</time></trkpt>
<trkpt lat="24.811225" lon="110.423412">
<time>2016-10-06T13:40:52Z</time></trkpt>
<trkpt lat="24.811884" lon="110.422912">
<time>2016-10-06T13:40:53Z</time></trkpt>
<trkpt lat="24.811984" lon="110.422832">
<time>2016-10-06T13:40:54Z</time></trkpt>
<trkpt lat="24.814371" lon="110.42076">
<time>2016-10-06T13:40:55Z</time></trkpt>
<trkpt lat="24.815261" lon="110.419989">
<time>2016-10-06T13:40:56Z</time></trkpt>
<trkpt lat="24.81619" lon="110.419188">
<time>2016-10-06T13:40:57Z</time></trkpt>
<trkpt lat="24.816749" lon="110.418698">
<time>2016-10-06T13:40:58Z</time></trkpt>
<trkpt lat="24.817259" lon="110.418248">
<time>2016-10-06T13:40:59Z</time></trkpt>
<trkpt lat="24.817608" lon="110.417947">
<time>2016-10-06T13:41:00Z</time></trkpt>
<trkpt lat="24.818997" lon="110.416727">
<time>2016-10-06T13:41:01Z</time></trkpt>
<trkpt lat="24.819527" lon="110.416266">
<time>2016-10-06T13:41:02Z</time></trkpt>
<trkpt lat="24.820036" lon="110.415816">
<time>2016-10-06T13:41:03Z</time></trkpt>
<trkpt lat="24.821075" lon="110.414905">
<time>2016-10-06T13:41:04Z</time></trkpt>
<trkpt lat="24.821475" lon="110.414575">
<time>2016-10-06T13:41:05Z</time></trkpt>
<trkpt lat="24.821805" lon="110.414315">
<time>2016-10-06T13:41:06Z</time></trkpt>
<trkpt lat="24.822165" lon="110.414015">
<time>2016-10-06T13:41:07Z</time></trkpt>
<trkpt lat="24.822934" lon="110.413294">
<time>2016-10-06T13:41:08Z</time></trkpt>
<trkpt lat="24.823594" lon="110.412674">
<time>2016-10-06T13:41:09Z</time></trkpt>
<trkpt lat="24.823963" lon="110.412334">
<time>2016-10-06T13:41:10Z</time></trkpt>
<trkpt lat="24.824043" lon="110.412254">
<time>2016-10-06T13:41:11Z</time></trkpt>
<trkpt lat="24.825732" lon="110.410643">
<time>2016-10-06T13:41:12Z</time></trkpt>
<trkpt lat="24.825792" lon="110.410583">
<time>2016-10-06T13:41:13Z</time></trkpt>
<trkpt lat="24.826062" lon="110.410353">
<time>2016-10-06T13:41:14Z</time></trkpt>
<trkpt lat="24.826711" lon="110.409793">
<time>2016-10-06T13:41:15Z</time></trkpt>
<trkpt lat="24.827231" lon="110.409393">
<time>2016-10-06T13:41:16Z</time></trkpt>
<trkpt lat="24.827671" lon="110.409083">
<time>2016-10-06T13:41:17Z</time></trkpt>
<trkpt lat="24.827991" lon="110.408883">
<time>2016-10-06T13:41:18Z</time></trkpt>
<trkpt lat="24.828271" lon="110.408703">
<time>2016-10-06T13:41:19Z</time></trkpt>
<trkpt lat="24.828521" lon="110.408543">
<time>2016-10-06T13:41:20Z</time></trkpt>
<trkpt lat="24.82922" lon="110.408122">
<time>2016-10-06T13:41:21Z</time></trkpt>
<trkpt lat="24.83042" lon="110.407402">
<time>2016-10-06T13:41:22Z</time></trkpt>
<trkpt lat="24.83106" lon="110.407062">
<time>2016-10-06T13:41:23Z</time></trkpt>
<trkpt lat="24.8313" lon="110.406972">
<time>2016-10-06T13:41:24Z</time></trkpt>
<trkpt lat="24.831539" lon="110.406882">
<time>2016-10-06T13:41:25Z</time></trkpt>
<trkpt lat="24.832189" lon="110.406702">
<time>2016-10-06T13:41:26Z</time></trkpt>
<trkpt lat="24.832259" lon="110.406682">
<time>2016-10-06T13:41:27Z</time></trkpt>
<trkpt lat="24.833339" lon="110.406432">
<time>2016-10-06T13:41:28Z</time></trkpt>
<trkpt lat="24.833999" lon="110.406282">
<time>2016-10-06T13:41:29Z</time></trkpt>
<trkpt lat="24.834269" lon="110.406192">
<time>2016-10-06T13:41:30Z</time></trkpt>
<trkpt lat="24.834619" lon="110.406062">
<time>2016-10-06T13:41:31Z</time></trkpt>
<trkpt lat="24.834949" lon="110.405912">
<time>2016-10-06T13:41:32Z</time></trkpt>
<trkpt lat="24.836068" lon="110.405272">
<time>2016-10-06T13:41:33Z</time></trkpt>
<trkpt lat="24.837138" lon="110.404682">
<time>2016-10-06T13:41:34Z</time></trkpt>
<trkpt lat="24.837558" lon="110.404442">
<time>2016-10-06T13:41:35Z</time></trkpt>
<trkpt lat="24.838308" lon="110.404021">
<time>2016-10-06T13:41:36Z</time></trkpt>
<trkpt lat="24.839707" lon="110.403231">
<time>2016-10-06T13:41:37Z</time></trkpt>
<trkpt lat="24.840627" lon="110.402681">
<time>2016-10-06T13:41:38Z</time></trkpt>
<trkpt lat="24.840917" lon="110.402511">
<time>2016-10-06T13:41:39Z</time></trkpt>
<trkpt lat="24.841207" lon="110.402341">
<time>2016-10-06T13:41:40Z</time></trkpt>
<trkpt lat="24.841367" lon="110.402211">
<time>2016-10-06T13:41:41Z</time></trkpt>
<trkpt lat="24.841547" lon="110.402031">
<time>2016-10-06T13:41:42Z</time></trkpt>
<trkpt lat="24.841807" lon="110.401741">
<time>2016-10-06T13:41:43Z</time></trkpt>
<trkpt lat="24.842027" lon="110.401411">
<time>2016-10-06T13:41:44Z</time></trkpt>
<trkpt lat="24.842277" lon="110.400991">
<time>2016-10-06T13:41:45Z</time></trkpt>
<trkpt lat="24.844546" lon="110.397182">
<time>2016-10-06T13:41:46Z</time></trkpt>
<trkpt lat="24.845196" lon="110.396113">
<time>2016-10-06T13:41:47Z</time></trkpt>
<trkpt lat="24.845306" lon="110.395923">
<time>2016-10-06T13:41:48Z</time></trkpt>
<trkpt lat="24.845496" lon="110.395683">
<time>2016-10-06T13:41:49Z</time></trkpt>
<trkpt lat="24.845636" lon="110.395503">
<time>2016-10-06T13:41:50Z</time></trkpt>
<trkpt lat="24.845736" lon="110.395393">
<time>2016-10-06T13:41:51Z</time></trkpt>
<trkpt lat="24.845876" lon="110.395283">
<time>2016-10-06T13:41:52Z</time></trkpt>
<trkpt lat="24.846016" lon="110.395173">
<time>2016-10-06T13:41:53Z</time></trkpt>
<trkpt lat="24.846166" lon="110.395083">
<time>2016-10-06T13:41:54Z</time></trkpt>
<trkpt lat="24.846286" lon="110.395023">
<time>2016-10-06T13:41:55Z</time></trkpt>
<trkpt lat="24.846456" lon="110.394953">
<time>2016-10-06T13:41:56Z</time></trkpt>
<trkpt lat="24.846816" lon="110.394833">
<time>2016-10-06T13:41:57Z</time></trkpt>
<trkpt lat="24.847526" lon="110.394593">
<time>2016-10-06T13:41:58Z</time></trkpt>
<trkpt lat="24.849066" lon="110.394133">
<time>2016-10-06T13:41:59Z</time></trkpt>
<trkpt lat="24.850496" lon="110.393713">
<time>2016-10-06T13:42:00Z</time></trkpt>
<trkpt lat="24.851956" lon="110.393263">
<time>2016-10-06T13:42:01Z</time></trkpt>
<trkpt lat="24.853695" lon="110.392804">
<time>2016-10-06T13:42:02Z</time></trkpt>
<trkpt lat="24.855675" lon="110.392324">
<time>2016-10-06T13:42:03Z</time></trkpt>
<trkpt lat="24.856065" lon="110.392234">
<time>2016-10-06T13:42:04Z</time></trkpt>
<trkpt lat="24.857105" lon="110.391984">
<time>2016-10-06T13:42:05Z</time></trkpt>
<trkpt lat="24.858135" lon="110.391714">
<time>2016-10-06T13:42:06Z</time></trkpt>
<trkpt lat="24.859075" lon="110.391464">
<time>2016-10-06T13:42:07Z</time></trkpt>
<trkpt lat="24.859515" lon="110.391344">
<time>2016-10-06T13:42:08Z</time></trkpt>
<trkpt lat="24.859845" lon="110.391234">
<time>2016-10-06T13:42:09Z</time></trkpt>
<trkpt lat="24.860155" lon="110.391064">
<time>2016-10-06T13:42:10Z</time></trkpt>
<trkpt lat="24.860505" lon="110.390864">
<time>2016-10-06T13:42:11Z</time></trkpt>
<trkpt lat="24.861945" lon="110.389955">
<time>2016-10-06T13:42:12Z</time></trkpt>
<trkpt lat="24.862485" lon="110.389625">
<time>2016-10-06T13:42:13Z</time></trkpt>
<trkpt lat="24.862815" lon="110.389445">
<time>2016-10-06T13:42:14Z</time></trkpt>
<trkpt lat="24.863145" lon="110.389315">
<time>2016-10-06T13:42:15Z</time></trkpt>
<trkpt lat="24.864025" lon="110.389005">
<time>2016-10-06T13:42:16Z</time></trkpt>
<trkpt lat="24.864195" lon="110.388955">
<time>2016-10-06T13:42:17Z</time></trkpt>
<trkpt lat="24.864655" lon="110.388805">
<time>2016-10-06T13:42:18Z</time></trkpt>
<trkpt lat="24.865015" lon="110.388695">
<time>2016-10-06T13:42:19Z</time></trkpt>
<trkpt lat="24.865195" lon="110.388645">
<time>2016-10-06T13:42:20Z</time></trkpt>
<trkpt lat="24.865315" lon="110.388605">
<time>2016-10-06T13:42:21Z</time></trkpt>
<trkpt lat="24.865505" lon="110.388575">
<time>2016-10-06T13:42:22Z</time></trkpt>
<trkpt lat="24.865795" lon="110.388555">
<time>2016-10-06T13:42:23Z</time></trkpt>
<trkpt lat="24.866155" lon="110.388555">
<time>2016-10-06T13:42:24Z</time></trkpt>
<trkpt lat="24.866245" lon="110.388555">
<time>2016-10-06T13:42:25Z</time></trkpt>
<trkpt lat="24.867725" lon="110.388645">
<time>2016-10-06T13:42:26Z</time></trkpt>
<trkpt lat="24.868045" lon="110.388665">
<time>2016-10-06T13:42:27Z</time></trkpt>
<trkpt lat="24.868675" lon="110.388695">
<time>2016-10-06T13:42:28Z</time></trkpt>
<trkpt lat="24.869455" lon="110.388785">
<time>2016-10-06T13:42:29Z</time></trkpt>
<trkpt lat="24.870095" lon="110.388895">
<time>2016-10-06T13:42:30Z</time></trkpt>
<trkpt lat="24.870715" lon="110.389005">
<time>2016-10-06T13:42:31Z</time></trkpt>
<trkpt lat="24.871894" lon="110.389225">
<time>2016-10-06T13:42:32Z</time></trkpt>
<trkpt lat="24.872304" lon="110.389344">
<time>2016-10-06T13:42:33Z</time></trkpt>
<trkpt lat="24.872944" lon="110.389564">
<time>2016-10-06T13:42:34Z</time></trkpt>
<trkpt lat="24.873214" lon="110.389674">
<time>2016-10-06T13:42:35Z</time></trkpt>
<trkpt lat="24.873454" lon="110.389774">
<time>2016-10-06T13:42:36Z</time></trkpt>
<trkpt lat="24.875033" lon="110.390564">
<time>2016-10-06T13:42:37Z</time></trkpt>
<trkpt lat="24.876943" lon="110.391523">
<time>2016-10-06T13:42:38Z</time></trkpt>
<trkpt lat="24.877193" lon="110.391623">
<time>2016-10-06T13:42:39Z</time></trkpt>
<trkpt lat="24.877453" lon="110.391673">
<time>2016-10-06T13:42:40Z</time></trkpt>
<trkpt lat="24.877743" lon="110.391733">
<time>2016-10-06T13:42:41Z</time></trkpt>
<trkpt lat="24.878543" lon="110.391843">
<time>2016-10-06T13:42:42Z</time></trkpt>
<trkpt lat="24.879523" lon="110.391982">
<time>2016-10-06T13:42:43Z</time></trkpt>
<trkpt lat="24.880692" lon="110.392162">
<time>2016-10-06T13:42:44Z</time></trkpt>
<trkpt lat="24.882482" lon="110.392442">
<time>2016-10-06T13:42:45Z</time></trkpt>
<trkpt lat="24.883982" lon="110.392642">
<time>2016-10-06T13:42:46Z</time></trkpt>
<trkpt lat="24.884742" lon="110.392752">
<time>2016-10-06T13:42:47Z</time></trkpt>
<trkpt lat="24.885922" lon="110.392911">
<time>2016-10-06T13:42:48Z</time></trkpt>
<trkpt lat="24.888631" lon="110.393331">
<time>2016-10-06T13:42:49Z</time></trkpt>
<trkpt lat="24.890021" lon="110.393511">
<time>2016-10-06T13:42:50Z</time></trkpt>
<trkpt lat="24.890701" lon="110.393601">
<time>2016-10-06T13:42:51Z</time></trkpt>
<trkpt lat="24.891101" lon="110.393621">
<time>2016-10-06T13:42:52Z</time></trkpt>
<trkpt lat="24.891441" lon="110.393601">
<time>2016-10-06T13:42:53Z</time></trkpt>
<trkpt lat="24.891781" lon="110.393551">
<time>2016-10-06T13:42:54Z</time></trkpt>
<trkpt lat="24.893071" lon="110.393321">
<time>2016-10-06T13:42:55Z</time></trkpt>
<trkpt lat="24.89489" lon="110.392981">
<time>2016-10-06T13:42:56Z</time></trkpt>
<trkpt lat="24.89676" lon="110.392681">
<time>2016-10-06T13:42:57Z</time></trkpt>
<trkpt lat="24.8968" lon="110.392671">
<time>2016-10-06T13:42:58Z</time></trkpt>
<trkpt lat="24.89754" lon="110.392511">
<time>2016-10-06T13:42:59Z</time></trkpt>
<trkpt lat="24.89793" lon="110.392421">
<time>2016-10-06T13:43:00Z</time></trkpt>
<trkpt lat="24.89836" lon="110.392271">
<time>2016-10-06T13:43:01Z</time></trkpt>
<trkpt lat="24.8998" lon="110.391681">
<time>2016-10-06T13:43:02Z</time></trkpt>
<trkpt lat="24.90136" lon="110.391032">
<time>2016-10-06T13:43:03Z</time></trkpt>
<trkpt lat="24.90425" lon="110.389822">
<time>2016-10-06T13:43:04Z</time></trkpt>
<trkpt lat="24.90557" lon="110.389282">
<time>2016-10-06T13:43:05Z</time></trkpt>
<trkpt lat="24.90637" lon="110.388993">
<time>2016-10-06T13:43:06Z</time></trkpt>
<trkpt lat="24.90699" lon="110.388793">
<time>2016-10-06T13:43:07Z</time></trkpt>
<trkpt lat="24.9087" lon="110.388263">
<time>2016-10-06T13:43:08Z</time></trkpt>
<trkpt lat="24.90973" lon="110.387903">
<time>2016-10-06T13:43:09Z</time></trkpt>
<trkpt lat="24.91114" lon="110.387284">
<time>2016-10-06T13:43:10Z</time></trkpt>
<trkpt lat="24.91129" lon="110.387224">
<time>2016-10-06T13:43:11Z</time></trkpt>
<trkpt lat="24.9126" lon="110.386634">
<time>2016-10-06T13:43:12Z</time></trkpt>
<trkpt lat="24.91317" lon="110.386364">
<time>2016-10-06T13:43:13Z</time></trkpt>
<trkpt lat="24.91355" lon="110.386184">
<time>2016-10-06T13:43:14Z</time></trkpt>
<trkpt lat="24.91463" lon="110.385565">
<time>2016-10-06T13:43:15Z</time></trkpt>
<trkpt lat="24.915701" lon="110.384855">
<time>2016-10-06T13:43:16Z</time></trkpt>
<trkpt lat="24.916671" lon="110.384206">
<time>2016-10-06T13:43:17Z</time></trkpt>
<trkpt lat="24.918331" lon="110.383107">
<time>2016-10-06T13:43:18Z</time></trkpt>
<trkpt lat="24.919322" lon="110.382397">
<time>2016-10-06T13:43:19Z</time></trkpt>
<trkpt lat="24.920562" lon="110.381518">
<time>2016-10-06T13:43:20Z</time></trkpt>
<trkpt lat="24.921662" lon="110.380739">
<time>2016-10-06T13:43:21Z</time></trkpt>
<trkpt lat="24.923653" lon="110.37932">
<time>2016-10-06T13:43:22Z</time></trkpt>
<trkpt lat="24.924263" lon="110.378921">
<time>2016-10-06T13:43:23Z</time></trkpt>
<trkpt lat="24.924523" lon="110.378751">
<time>2016-10-06T13:43:24Z</time></trkpt>
<trkpt lat="24.925974" lon="110.377782">
<time>2016-10-06T13:43:25Z</time></trkpt>
<trkpt lat="24.926664" lon="110.377402">
<time>2016-10-06T13:43:26Z</time></trkpt>
<trkpt lat="24.927234" lon="110.377153">
<time>2016-10-06T13:43:27Z</time></trkpt>
<trkpt lat="24.927434" lon="110.377063">
<time>2016-10-06T13:43:28Z</time></trkpt>
<trkpt lat="24.927875" lon="110.376893">
<time>2016-10-06T13:43:29Z</time></trkpt>
<trkpt lat="24.928375" lon="110.376693">
<time>2016-10-06T13:43:30Z</time></trkpt>
<trkpt lat="24.931895" lon="110.375335">
<time>2016-10-06T13:43:31Z</time></trkpt>
<trkpt lat="24.932415" lon="110.375135">
<time>2016-10-06T13:43:32Z</time></trkpt>
<trkpt lat="24.932766" lon="110.374995">
<time>2016-10-06T13:43:33Z</time></trkpt>
<trkpt lat="24.935546" lon="110.373926">
<time>2016-10-06T13:43:34Z</time></trkpt>
<trkpt lat="24.936856" lon="110.373387">
<time>2016-10-06T13:43:35Z</time></trkpt>
<trkpt lat="24.936957" lon="110.373347">
<time>2016-10-06T13:43:36Z</time></trkpt>
<trkpt lat="24.938497" lon="110.372768">
<time>2016-10-06T13:43:37Z</time></trkpt>
<trkpt lat="24.940017" lon="110.372198">
<time>2016-10-06T13:43:38Z</time></trkpt>
<trkpt lat="24.943948" lon="110.37072">
<time>2016-10-06T13:43:39Z</time></trkpt>
<trkpt lat="24.946249" lon="110.369881">
<time>2016-10-06T13:43:40Z</time></trkpt>
<trkpt lat="24.947069" lon="110.369572">
<time>2016-10-06T13:43:41Z</time></trkpt>
<trkpt lat="24.948089" lon="110.369202">
<time>2016-10-06T13:43:42Z</time></trkpt>
<trkpt lat="24.9516" lon="110.367894">
<time>2016-10-06T13:43:43Z</time></trkpt>
<trkpt lat="24.952291" lon="110.367644">
<time>2016-10-06T13:43:44Z</time></trkpt>
<trkpt lat="24.955061" lon="110.366606">
<time>2016-10-06T13:43:45Z</time></trkpt>
<trkpt lat="24.955762" lon="110.366256">
<time>2016-10-06T13:43:46Z</time></trkpt>
<trkpt lat="24.956762" lon="110.365757">
<time>2016-10-06T13:43:47Z</time></trkpt>
<trkpt lat="24.958433" lon="110.364728">
<time>2016-10-06T13:43:48Z</time></trkpt>
<trkpt lat="24.958864" lon="110.364399">
<time>2016-10-06T13:43:49Z</time></trkpt>
<trkpt lat="24.959104" lon="110.364209">
<time>2016-10-06T13:43:50Z</time></trkpt>
<trkpt lat="24.961346" lon="110.362292">
<time>2016-10-06T13:43:51Z</time></trkpt>
<trkpt lat="24.961927" lon="110.361863">
<time>2016-10-06T13:43:52Z</time></trkpt>
<trkpt lat="24.965239" lon="110.359377">
<time>2016-10-06T13:43:53Z</time></trkpt>
<trkpt lat="24.966491" lon="110.358339">
<time>2016-10-06T13:43:54Z</time></trkpt>
<trkpt lat="24.967922" lon="110.357061">
<time>2016-10-06T13:43:55Z</time></trkpt>
<trkpt lat="24.970616" lon="110.354636">
<time>2016-10-06T13:43:56Z</time></trkpt>
<trkpt lat="24.971387" lon="110.353947">
<time>2016-10-06T13:43:57Z</time></trkpt>
<trkpt lat="24.971477" lon="110.353867">
<time>2016-10-06T13:43:58Z</time></trkpt>
<trkpt lat="24.972398" lon="110.352989">
<time>2016-10-06T13:43:59Z</time></trkpt>
<trkpt lat="24.972729" lon="110.35262">
<time>2016-10-06T13:44:00Z</time></trkpt>
<trkpt lat="24.972949" lon="110.35234">
<time>2016-10-06T13:44:01Z</time></trkpt>
<trkpt lat="24.973129" lon="110.352091">
<time>2016-10-06T13:44:02Z</time></trkpt>
<trkpt lat="24.97354" lon="110.351532">
<time>2016-10-06T13:44:03Z</time></trkpt>
<trkpt lat="24.975093" lon="110.349426">
<time>2016-10-06T13:44:04Z</time></trkpt>
<trkpt lat="24.976035" lon="110.348159">
<time>2016-10-06T13:44:05Z</time></trkpt>
<trkpt lat="24.976657" lon="110.34733">
<time>2016-10-06T13:44:06Z</time></trkpt>
<trkpt lat="24.977979" lon="110.345784">
<time>2016-10-06T13:44:07Z</time></trkpt>
<trkpt lat="24.978721" lon="110.344915">
<time>2016-10-06T13:44:08Z</time></trkpt>
<trkpt lat="24.980334" lon="110.343049">
<time>2016-10-06T13:44:09Z</time></trkpt>
<trkpt lat="24.982508" lon="110.340465">
<time>2016-10-06T13:44:10Z</time></trkpt>
<trkpt lat="24.984072" lon="110.33823">
<time>2016-10-06T13:44:11Z</time></trkpt>
<trkpt lat="24.984302" lon="110.33791">
<time>2016-10-06T13:44:12Z</time></trkpt>
<trkpt lat="24.985114" lon="110.336743">
<time>2016-10-06T13:44:13Z</time></trkpt>
<trkpt lat="24.985365" lon="110.336454">
<time>2016-10-06T13:44:14Z</time></trkpt>
<trkpt lat="24.985605" lon="110.336164">
<time>2016-10-06T13:44:15Z</time></trkpt>
<trkpt lat="24.986076" lon="110.335745">
<time>2016-10-06T13:44:16Z</time></trkpt>
<trkpt lat="24.986507" lon="110.335436">
<time>2016-10-06T13:44:17Z</time></trkpt>
<trkpt lat="24.986967" lon="110.335127">
<time>2016-10-06T13:44:18Z</time></trkpt>
<trkpt lat="24.988568" lon="110.334328">
<time>2016-10-06T13:44:19Z</time></trkpt>
<trkpt lat="24.98992" lon="110.33364">
<time>2016-10-06T13:44:20Z</time></trkpt>
<trkpt lat="24.994093" lon="110.331524">
<time>2016-10-06T13:44:21Z</time></trkpt>
<trkpt lat="24.994263" lon="110.331435">
<time>2016-10-06T13:44:22Z</time></trkpt>
<trkpt lat="24.995094" lon="110.330976">
<time>2016-10-06T13:44:23Z</time></trkpt>
<trkpt lat="24.996315" lon="110.330217">
<time>2016-10-06T13:44:24Z</time></trkpt>
<trkpt lat="24.998047" lon="110.32913">
<time>2016-10-06T13:44:25Z</time></trkpt>
<trkpt lat="24.999999" lon="110.327902">
<time>2016-10-06T13:44:26Z</time></trkpt>
<trkpt lat="25.00088" lon="110.327354">
<time>2016-10-06T13:44:27Z</time></trkpt>
<trkpt lat="25.00094" lon="110.327304">
<time>2016-10-06T13:44:28Z</time></trkpt>
<trkpt lat="25.001991" lon="110.326665">
<time>2016-10-06T13:44:29Z</time></trkpt>
<trkpt lat="25.003393" lon="110.325777">
<time>2016-10-06T13:44:30Z</time></trkpt>
<trkpt lat="25.004674" lon="110.324989">
<time>2016-10-06T13:44:31Z</time></trkpt>
<trkpt lat="25.005945" lon="110.324191">
<time>2016-10-06T13:44:32Z</time></trkpt>
<trkpt lat="25.006716" lon="110.323712">
<time>2016-10-06T13:44:33Z</time></trkpt>
<trkpt lat="25.008258" lon="110.322694">
<time>2016-10-06T13:44:34Z</time></trkpt>
<trkpt lat="25.008718" lon="110.322444">
<time>2016-10-06T13:44:35Z</time></trkpt>
<trkpt lat="25.009069" lon="110.322265">
<time>2016-10-06T13:44:36Z</time></trkpt>
<trkpt lat="25.009299" lon="110.322145">
<time>2016-10-06T13:44:37Z</time></trkpt>
<trkpt lat="25.009359" lon="110.322125">
<time>2016-10-06T13:44:38Z</time></trkpt>
<trkpt lat="25.009669" lon="110.322045">
<time>2016-10-06T13:44:39Z</time></trkpt>
<trkpt lat="25.009989" lon="110.321965">
<time>2016-10-06T13:44:40Z</time></trkpt>
<trkpt lat="25.010259" lon="110.321926">
<time>2016-10-06T13:44:41Z</time></trkpt>
<trkpt lat="25.010449" lon="110.321896">
<time>2016-10-06T13:44:42Z</time></trkpt>
<trkpt lat="25.011409" lon="110.321846">
<time>2016-10-06T13:44:43Z</time></trkpt>
<trkpt lat="25.012999" lon="110.321736">
<time>2016-10-06T13:44:44Z</time></trkpt>
<trkpt lat="25.015309" lon="110.321596">
<time>2016-10-06T13:44:45Z</time></trkpt>
<trkpt lat="25.015499" lon="110.321586">
<time>2016-10-06T13:44:46Z</time></trkpt>
<trkpt lat="25.016729" lon="110.321496">
<time>2016-10-06T13:44:47Z</time></trkpt>
<trkpt lat="25.016989" lon="110.321476">
<time>2016-10-06T13:44:48Z</time></trkpt>
<trkpt lat="25.018319" lon="110.321316">
<time>2016-10-06T13:44:49Z</time></trkpt>
<trkpt lat="25.019489" lon="110.321177">
<time>2016-10-06T13:44:50Z</time></trkpt>
<trkpt lat="25.02132" lon="110.320927">
<time>2016-10-06T13:44:51Z</time></trkpt>
<trkpt lat="25.02312" lon="110.320638">
<time>2016-10-06T13:44:52Z</time></trkpt>
<trkpt lat="25.02455" lon="110.320418">
<time>2016-10-06T13:44:53Z</time></trkpt>
<trkpt lat="25.02474" lon="110.320378">
<time>2016-10-06T13:44:54Z</time></trkpt>
<trkpt lat="25.02531" lon="110.320278">
<time>2016-10-06T13:44:55Z</time></trkpt>
<trkpt lat="25.026021" lon="110.320119">
<time>2016-10-06T13:44:56Z</time></trkpt>
<trkpt lat="25.026331" lon="110.320059">
<time>2016-10-06T13:44:57Z</time></trkpt>
<trkpt lat="25.027771" lon="110.319759">
<time>2016-10-06T13:44:58Z</time></trkpt>
<trkpt lat="25.028521" lon="110.3196">
<time>2016-10-06T13:44:59Z</time></trkpt>
<trkpt lat="25.028671" lon="110.31957">
<time>2016-10-06T13:45:00Z</time></trkpt>
<trkpt lat="25.028961" lon="110.31951">
<time>2016-10-06T13:45:01Z</time></trkpt>
<trkpt lat="25.030342" lon="110.319201">
<time>2016-10-06T13:45:02Z</time></trkpt>
<trkpt lat="25.030762" lon="110.319091">
<time>2016-10-06T13:45:03Z</time></trkpt>
<trkpt lat="25.031202" lon="110.318941">
<time>2016-10-06T13:45:04Z</time></trkpt>
<trkpt lat="25.031843" lon="110.318682">
<time>2016-10-06T13:45:05Z</time></trkpt>
<trkpt lat="25.032423" lon="110.318422">
<time>2016-10-06T13:45:06Z</time></trkpt>
<trkpt lat="25.033033" lon="110.318193">
<time>2016-10-06T13:45:07Z</time></trkpt>
<trkpt lat="25.033724" lon="110.317883">
<time>2016-10-06T13:45:08Z</time></trkpt>
<trkpt lat="25.034485" lon="110.317524">
<time>2016-10-06T13:45:09Z</time></trkpt>
<trkpt lat="25.035305" lon="110.317095">
<time>2016-10-06T13:45:10Z</time></trkpt>
<trkpt lat="25.035956" lon="110.316736">
<time>2016-10-06T13:45:11Z</time></trkpt>
<trkpt lat="25.036496" lon="110.316417">
<time>2016-10-06T13:45:12Z</time></trkpt>
<trkpt lat="25.037427" lon="110.315788">
<time>2016-10-06T13:45:13Z</time></trkpt>
<trkpt lat="25.037548" lon="110.315698">
<time>2016-10-06T13:45:14Z</time></trkpt>
<trkpt lat="25.038329" lon="110.315129">
<time>2016-10-06T13:45:15Z</time></trkpt>
<trkpt lat="25.038489" lon="110.31502">
<time>2016-10-06T13:45:16Z</time></trkpt>
<trkpt lat="25.040651" lon="110.313463">
<time>2016-10-06T13:45:17Z</time></trkpt>
<trkpt lat="25.043154" lon="110.311737">
<time>2016-10-06T13:45:18Z</time></trkpt>
<trkpt lat="25.043675" lon="110.311378">
<time>2016-10-06T13:45:19Z</time></trkpt>
<trkpt lat="25.044216" lon="110.311038">
<time>2016-10-06T13:45:20Z</time></trkpt>
<trkpt lat="25.044776" lon="110.310709">
<time>2016-10-06T13:45:21Z</time></trkpt>
<trkpt lat="25.045287" lon="110.31041">
<time>2016-10-06T13:45:22Z</time></trkpt>
<trkpt lat="25.045797" lon="110.31013">
<time>2016-10-06T13:45:23Z</time></trkpt>
<trkpt lat="25.046227" lon="110.309911">
<time>2016-10-06T13:45:24Z</time></trkpt>
<trkpt lat="25.046918" lon="110.309611">
<time>2016-10-06T13:45:25Z</time></trkpt>
<trkpt lat="25.047598" lon="110.309282">
<time>2016-10-06T13:45:26Z</time></trkpt>
<trkpt lat="25.048129" lon="110.309053">
<time>2016-10-06T13:45:27Z</time></trkpt>
<trkpt lat="25.05066" lon="110.307995">
<time>2016-10-06T13:45:28Z</time></trkpt>
<trkpt lat="25.05082" lon="110.307925">
<time>2016-10-06T13:45:29Z</time></trkpt>
<trkpt lat="25.052952" lon="110.307007">
<time>2016-10-06T13:45:30Z</time></trkpt>
<trkpt lat="25.054863" lon="110.306238">
<time>2016-10-06T13:45:31Z</time></trkpt>
<trkpt lat="25.056934" lon="110.30545">
<time>2016-10-06T13:45:32Z</time></trkpt>
<trkpt lat="25.057475" lon="110.30524">
<time>2016-10-06T13:45:33Z</time></trkpt>
<trkpt lat="25.059716" lon="110.304522">
<time>2016-10-06T13:45:34Z</time></trkpt>
<trkpt lat="25.060186" lon="110.304372">
<time>2016-10-06T13:45:35Z</time></trkpt>
<trkpt lat="25.060706" lon="110.304212">
<time>2016-10-06T13:45:36Z</time></trkpt>
<trkpt lat="25.060816" lon="110.304182">
<time>2016-10-06T13:45:37Z</time></trkpt>
<trkpt lat="25.061386" lon="110.304003">
<time>2016-10-06T13:45:38Z</time></trkpt>
<trkpt lat="25.062057" lon="110.303823">
<time>2016-10-06T13:45:39Z</time></trkpt>
<trkpt lat="25.062497" lon="110.303713">
<time>2016-10-06T13:45:40Z</time></trkpt>
<trkpt lat="25.063867" lon="110.303334">
<time>2016-10-06T13:45:41Z</time></trkpt>
<trkpt lat="25.065168" lon="110.302985">
<time>2016-10-06T13:45:42Z</time></trkpt>
<trkpt lat="25.067008" lon="110.302545">
<time>2016-10-06T13:45:43Z</time></trkpt>
<trkpt lat="25.067268" lon="110.302476">
<time>2016-10-06T13:45:44Z</time></trkpt>
<trkpt lat="25.067568" lon="110.302406">
<time>2016-10-06T13:45:45Z</time></trkpt>
<trkpt lat="25.067898" lon="110.302326">
<time>2016-10-06T13:45:46Z</time></trkpt>
<trkpt lat="25.068299" lon="110.302226">
<time>2016-10-06T13:45:47Z</time></trkpt>
<trkpt lat="25.068389" lon="110.302206">
<time>2016-10-06T13:45:48Z</time></trkpt>
<trkpt lat="25.069209" lon="110.302006">
<time>2016-10-06T13:45:49Z</time></trkpt>
<trkpt lat="25.070639" lon="110.301707">
<time>2016-10-06T13:45:50Z</time></trkpt>
<trkpt lat="25.071429" lon="110.301567">
<time>2016-10-06T13:45:51Z</time></trkpt>
<trkpt lat="25.0722" lon="110.301447">
<time>2016-10-06T13:45:52Z</time></trkpt>
<trkpt lat="25.07278" lon="110.301397">
<time>2016-10-06T13:45:53Z</time></trkpt>
<trkpt lat="25.07315" lon="110.301368">
<time>2016-10-06T13:45:54Z</time></trkpt>
<trkpt lat="25.07324" lon="110.301358">
<time>2016-10-06T13:45:55Z</time></trkpt>
<trkpt lat="25.074149" lon="110.301397">
<time>2016-10-06T13:45:56Z</time></trkpt>
<trkpt lat="25.075029" lon="110.301447">
<time>2016-10-06T13:45:57Z</time></trkpt>
<trkpt lat="25.075249" lon="110.301467">
<time>2016-10-06T13:45:58Z</time></trkpt>
<trkpt lat="25.076959" lon="110.301547">
<time>2016-10-06T13:45:59Z</time></trkpt>
<trkpt lat="25.077479" lon="110.301567">
<time>2016-10-06T13:46:00Z</time></trkpt>
<trkpt lat="25.078998" lon="110.301637">
<time>2016-10-06T13:46:01Z</time></trkpt>
<trkpt lat="25.079448" lon="110.301637">
<time>2016-10-06T13:46:02Z</time></trkpt>
<trkpt lat="25.079798" lon="110.301617">
<time>2016-10-06T13:46:03Z</time></trkpt>
<trkpt lat="25.080258" lon="110.301537">
<time>2016-10-06T13:46:04Z</time></trkpt>
<trkpt lat="25.080509" lon="110.301487">
<time>2016-10-06T13:46:05Z</time></trkpt>
<trkpt lat="25.081189" lon="110.301327">
<time>2016-10-06T13:46:06Z</time></trkpt>
<trkpt lat="25.083329" lon="110.300798">
<time>2016-10-06T13:46:07Z</time></trkpt>
<trkpt lat="25.08361" lon="110.300718">
<time>2016-10-06T13:46:08Z</time></trkpt>
<trkpt lat="25.08383" lon="110.300658">
<time>2016-10-06T13:46:09Z</time></trkpt>
<trkpt lat="25.0843" lon="110.300519">
<time>2016-10-06T13:46:10Z</time></trkpt>
<trkpt lat="25.08464" lon="110.300419">
<time>2016-10-06T13:46:11Z</time></trkpt>
<trkpt lat="25.08531" lon="110.300179">
<time>2016-10-06T13:46:12Z</time></trkpt>
<trkpt lat="25.086001" lon="110.29988">
<time>2016-10-06T13:46:13Z</time></trkpt>
<trkpt lat="25.086571" lon="110.29953">
<time>2016-10-06T13:46:14Z</time></trkpt>
<trkpt lat="25.087122" lon="110.299161">
<time>2016-10-06T13:46:15Z</time></trkpt>
<trkpt lat="25.087602" lon="110.298782">
<time>2016-10-06T13:46:16Z</time></trkpt>
<trkpt lat="25.088033" lon="110.298413">
<time>2016-10-06T13:46:17Z</time></trkpt>
<trkpt lat="25.088344" lon="110.298063">
<time>2016-10-06T13:46:18Z</time></trkpt>
<trkpt lat="25.088854" lon="110.297494">
<time>2016-10-06T13:46:19Z</time></trkpt>
<trkpt lat="25.089325" lon="110.296886">
<time>2016-10-06T13:46:20Z</time></trkpt>
<trkpt lat="25.089867" lon="110.296167">
<time>2016-10-06T13:46:21Z</time></trkpt>
<trkpt lat="25.090137" lon="110.295828">
<time>2016-10-06T13:46:22Z</time></trkpt>
<trkpt lat="25.090357" lon="110.295608">
<time>2016-10-06T13:46:23Z</time></trkpt>
<trkpt lat="25.090528" lon="110.295448">
<time>2016-10-06T13:46:24Z</time></trkpt>
<trkpt lat="25.090758" lon="110.295259">
<time>2016-10-06T13:46:25Z</time></trkpt>
<trkpt lat="25.090828" lon="110.295209">
<time>2016-10-06T13:46:26Z</time></trkpt>
<trkpt lat="25.091048" lon="110.295059">
<time>2016-10-06T13:46:27Z</time></trkpt>
<trkpt lat="25.091348" lon="110.294899">
<time>2016-10-06T13:46:28Z</time></trkpt>
<trkpt lat="25.091679" lon="110.29476">
<time>2016-10-06T13:46:29Z</time></trkpt>
<trkpt lat="25.092149" lon="110.29464">
<time>2016-10-06T13:46:30Z</time></trkpt>
<trkpt lat="25.092439" lon="110.29459">
<time>2016-10-06T13:46:31Z</time></trkpt>
<trkpt lat="25.093059" lon="110.2945">
<time>2016-10-06T13:46:32Z</time></trkpt>
<trkpt lat="25.09736" lon="110.293761">
<time>2016-10-06T13:46:33Z</time></trkpt>
<trkpt lat="25.09749" lon="110.293741">
<time>2016-10-06T13:46:34Z</time></trkpt>
<trkpt lat="25.09777" lon="110.293691">
<time>2016-10-06T13:46:35Z</time></trkpt>
<trkpt lat="25.09916" lon="110.293452">
<time>2016-10-06T13:46:36Z</time></trkpt>
<trkpt lat="25.10115" lon="110.293112">
<time>2016-10-06T13:46:37Z</time></trkpt>
<trkpt lat="25.10139" lon="110.293062">
<time>2016-10-06T13:46:38Z</time></trkpt>
<trkpt lat="25.102431" lon="110.292873">
<time>2016-10-06T13:46:39Z</time></trkpt>
<trkpt lat="25.103191" lon="110.292683">
<time>2016-10-06T13:46:40Z</time></trkpt>
<trkpt lat="25.103481" lon="110.292593">
<time>2016-10-06T13:46:41Z</time></trkpt>
<trkpt lat="25.103561" lon="110.292573">
<time>2016-10-06T13:46:42Z</time></trkpt>
<trkpt lat="25.103891" lon="110.292483">
<time>2016-10-06T13:46:43Z</time></trkpt>
<trkpt lat="25.105351" lon="110.292084">
<time>2016-10-06T13:46:44Z</time></trkpt>
<trkpt lat="25.106062" lon="110.291894">
<time>2016-10-06T13:46:45Z</time></trkpt>
<trkpt lat="25.108142" lon="110.291415">
<time>2016-10-06T13:46:46Z</time></trkpt>
<trkpt lat="25.108542" lon="110.291325">
<time>2016-10-06T13:46:47Z</time></trkpt>
<trkpt lat="25.108912" lon="110.291255">
<time>2016-10-06T13:46:48Z</time></trkpt>
<trkpt lat="25.110853" lon="110.290876">
<time>2016-10-06T13:46:49Z</time></trkpt>
<trkpt lat="25.113193" lon="110.290476">
<time>2016-10-06T13:46:50Z</time></trkpt>
<trkpt lat="25.114943" lon="110.290307">
<time>2016-10-06T13:46:51Z</time></trkpt>
<trkpt lat="25.115643" lon="110.290287">
<time>2016-10-06T13:46:52Z</time></trkpt>
<trkpt lat="25.116053" lon="110.290287">
<time>2016-10-06T13:46:53Z</time></trkpt>
<trkpt lat="25.116923" lon="110.290307">
<time>2016-10-06T13:46:54Z</time></trkpt>
<trkpt lat="25.117743" lon="110.290326">
<time>2016-10-06T13:46:55Z</time></trkpt>
<trkpt lat="25.119113" lon="110.290356">
<time>2016-10-06T13:46:56Z</time></trkpt>
<trkpt lat="25.120243" lon="110.290386">
<time>2016-10-06T13:46:57Z</time></trkpt>
<trkpt lat="25.122013" lon="110.290416">
<time>2016-10-06T13:46:58Z</time></trkpt>
<trkpt lat="25.125672" lon="110.290496">
<time>2016-10-06T13:46:59Z</time></trkpt>
<trkpt lat="25.126332" lon="110.290506">
<time>2016-10-06T13:47:00Z</time></trkpt>
<trkpt lat="25.126902" lon="110.290516">
<time>2016-10-06T13:47:01Z</time></trkpt>
<trkpt lat="25.126962" lon="110.290516">
<time>2016-10-06T13:47:02Z</time></trkpt>
<trkpt lat="25.126992" lon="110.290525">
<time>2016-10-06T13:47:03Z</time></trkpt>
<trkpt lat="25.127522" lon="110.290496">
<time>2016-10-06T13:47:04Z</time></trkpt>
<trkpt lat="25.128202" lon="110.290466">
<time>2016-10-06T13:47:05Z</time></trkpt>
<trkpt lat="25.129662" lon="110.290306">
<time>2016-10-06T13:47:06Z</time></trkpt>
<trkpt lat="25.130142" lon="110.290256">
<time>2016-10-06T13:47:07Z</time></trkpt>
<trkpt lat="25.131012" lon="110.290166">
<time>2016-10-06T13:47:08Z</time></trkpt>
<trkpt lat="25.131812" lon="110.290066">
<time>2016-10-06T13:47:09Z</time></trkpt>
<trkpt lat="25.132352" lon="110.289996">
<time>2016-10-06T13:47:10Z</time></trkpt>
<trkpt lat="25.132592" lon="110.289966">
<time>2016-10-06T13:47:11Z</time></trkpt>
<trkpt lat="25.133072" lon="110.289886">
<time>2016-10-06T13:47:12Z</time></trkpt>
<trkpt lat="25.133162" lon="110.289876">
<time>2016-10-06T13:47:13Z</time></trkpt>
<trkpt lat="25.133222" lon="110.289866">
<time>2016-10-06T13:47:14Z</time></trkpt>
<trkpt lat="25.133332" lon="110.289846">
<time>2016-10-06T13:47:15Z</time></trkpt>
<trkpt lat="25.133843" lon="110.289746">
<time>2016-10-06T13:47:16Z</time></trkpt>
<trkpt lat="25.134063" lon="110.289707">
<time>2016-10-06T13:47:17Z</time></trkpt>
<trkpt lat="25.134113" lon="110.289697">
<time>2016-10-06T13:47:18Z</time></trkpt>
<trkpt lat="25.136883" lon="110.289167">
<time>2016-10-06T13:47:19Z</time></trkpt>
<trkpt lat="25.137213" lon="110.289107">
<time>2016-10-06T13:47:20Z</time></trkpt>
<trkpt lat="25.137333" lon="110.289087">
<time>2016-10-06T13:47:21Z</time></trkpt>
<trkpt lat="25.137563" lon="110.289048">
<time>2016-10-06T13:47:22Z</time></trkpt>
<trkpt lat="25.137753" lon="110.289008">
<time>2016-10-06T13:47:23Z</time></trkpt>
<trkpt lat="25.140404" lon="110.288508">
<time>2016-10-06T13:47:24Z</time></trkpt>
<trkpt lat="25.142654" lon="110.288059">
<time>2016-10-06T13:47:25Z</time></trkpt>
<trkpt lat="25.145365" lon="110.28755">
<time>2016-10-06T13:47:26Z</time></trkpt>
<trkpt lat="25.146785" lon="110.28728">
<time>2016-10-06T13:47:27Z</time></trkpt>
<trkpt lat="25.147115" lon="110.28723">
<time>2016-10-06T13:47:28Z</time></trkpt>
<trkpt lat="25.147545" lon="110.28718">
<time>2016-10-06T13:47:29Z</time></trkpt>
<trkpt lat="25.147915" lon="110.28715">
<time>2016-10-06T13:47:30Z</time></trkpt>
<trkpt lat="25.148715" lon="110.28715">
<time>2016-10-06T13:47:31Z</time></trkpt>
<trkpt lat="25.150755" lon="110.28726">
<time>2016-10-06T13:47:32Z</time></trkpt>
<trkpt lat="25.152975" lon="110.287389">
<time>2016-10-06T13:47:33Z</time></trkpt>
<trkpt lat="25.153805" lon="110.287399">
<time>2016-10-06T13:47:34Z</time></trkpt>
<trkpt lat="25.154245" lon="110.287399">
<time>2016-10-06T13:47:35Z</time></trkpt>
<trkpt lat="25.156754" lon="110.287359">
<time>2016-10-06T13:47:36Z</time></trkpt>
<trkpt lat="25.157454" lon="110.287339">
<time>2016-10-06T13:47:37Z</time></trkpt>
<trkpt lat="25.158494" lon="110.287319">
<time>2016-10-06T13:47:38Z</time></trkpt>
<trkpt lat="25.161014" lon="110.287119">
<time>2016-10-06T13:47:39Z</time></trkpt>
<trkpt lat="25.161794" lon="110.287119">
<time>2016-10-06T13:47:40Z</time></trkpt>
<trkpt lat="25.162414" lon="110.287129">
<time>2016-10-06T13:47:41Z</time></trkpt>
<trkpt lat="25.163314" lon="110.287189">
<time>2016-10-06T13:47:42Z</time></trkpt>
<trkpt lat="25.164364" lon="110.287279">
<time>2016-10-06T13:47:43Z</time></trkpt>
<trkpt lat="25.166663" lon="110.287598">
<time>2016-10-06T13:47:44Z</time></trkpt>
<trkpt lat="25.168003" lon="110.287798">
<time>2016-10-06T13:47:45Z</time></trkpt>
<trkpt lat="25.168473" lon="110.287848">
<time>2016-10-06T13:47:46Z</time></trkpt>
<trkpt lat="25.169003" lon="110.287858">
<time>2016-10-06T13:47:47Z</time></trkpt>
<trkpt lat="25.169763" lon="110.287788">
<time>2016-10-06T13:47:48Z</time></trkpt>
<trkpt lat="25.170173" lon="110.287698">
<time>2016-10-06T13:47:49Z</time></trkpt>
<trkpt lat="25.170633" lon="110.287538">
<time>2016-10-06T13:47:50Z</time></trkpt>
<trkpt lat="25.172284" lon="110.286909">
<time>2016-10-06T13:47:51Z</time></trkpt>
<trkpt lat="25.173185" lon="110.28655">
<time>2016-10-06T13:47:52Z</time></trkpt>
<trkpt lat="25.173435" lon="110.28646">
<time>2016-10-06T13:47:53Z</time></trkpt>
<trkpt lat="25.174165" lon="110.28618">
<time>2016-10-06T13:47:54Z</time></trkpt>
<trkpt lat="25.174975" lon="110.285901">
<time>2016-10-06T13:47:55Z</time></trkpt>
<trkpt lat="25.175836" lon="110.285661">
<time>2016-10-06T13:47:56Z</time></trkpt>
<trkpt lat="25.176406" lon="110.285581">
<time>2016-10-06T13:47:57Z</time></trkpt>
<trkpt lat="25.176866" lon="110.285511">
<time>2016-10-06T13:47:58Z</time></trkpt>
<trkpt lat="25.177476" lon="110.285461">
<time>2016-10-06T13:47:59Z</time></trkpt>
<trkpt lat="25.178056" lon="110.285441">
<time>2016-10-06T13:48:00Z</time></trkpt>
<trkpt lat="25.178496" lon="110.285471">
<time>2016-10-06T13:48:01Z</time></trkpt>
<trkpt lat="25.179046" lon="110.285521">
<time>2016-10-06T13:48:02Z</time></trkpt>
<trkpt lat="25.179676" lon="110.285611">
<time>2016-10-06T13:48:03Z</time></trkpt>
<trkpt lat="25.180365" lon="110.285741">
<time>2016-10-06T13:48:04Z</time></trkpt>
<trkpt lat="25.180895" lon="110.28584">
<time>2016-10-06T13:48:05Z</time></trkpt>
<trkpt lat="25.181355" lon="110.28593">
<time>2016-10-06T13:48:06Z</time></trkpt>
<trkpt lat="25.181645" lon="110.28598">
<time>2016-10-06T13:48:07Z</time></trkpt>
<trkpt lat="25.182935" lon="110.28626">
<time>2016-10-06T13:48:08Z</time></trkpt>
<trkpt lat="25.183324" lon="110.286349">
<time>2016-10-06T13:48:09Z</time></trkpt>
<trkpt lat="25.185224" lon="110.286649">
<time>2016-10-06T13:48:10Z</time></trkpt>
<trkpt lat="25.185454" lon="110.286669">
<time>2016-10-06T13:48:11Z</time></trkpt>
<trkpt lat="25.185724" lon="110.286699">
<time>2016-10-06T13:48:12Z</time></trkpt>
<trkpt lat="25.186124" lon="110.286699">
<time>2016-10-06T13:48:13Z</time></trkpt>
<trkpt lat="25.186724" lon="110.286669">
<time>2016-10-06T13:48:14Z</time></trkpt>
<trkpt lat="25.186744" lon="110.286669">
<time>2016-10-06T13:48:15Z</time></trkpt>
<trkpt lat="25.187334" lon="110.286609">
<time>2016-10-06T13:48:16Z</time></trkpt>
<trkpt lat="25.187704" lon="110.286529">
<time>2016-10-06T13:48:17Z</time></trkpt>
<trkpt lat="25.187994" lon="110.286479">
<time>2016-10-06T13:48:18Z</time></trkpt>
<trkpt lat="25.188894" lon="110.286229">
<time>2016-10-06T13:48:19Z</time></trkpt>
<trkpt lat="25.189024" lon="110.286189">
<time>2016-10-06T13:48:20Z</time></trkpt>
<trkpt lat="25.189865" lon="110.28592">
<time>2016-10-06T13:48:21Z</time></trkpt>
<trkpt lat="25.191135" lon="110.28551">
<time>2016-10-06T13:48:22Z</time></trkpt>
<trkpt lat="25.191135" lon="110.28551">
<time>2016-10-06T13:48:23Z</time></trkpt>
<trkpt lat="25.191225" lon="110.28543">
<time>2016-10-06T13:48:24Z</time></trkpt>
<trkpt lat="25.191896" lon="110.285221">
<time>2016-10-06T13:48:25Z</time></trkpt>
<trkpt lat="25.192076" lon="110.285161">
<time>2016-10-06T13:48:26Z</time></trkpt>
<trkpt lat="25.193596" lon="110.284682">
<time>2016-10-06T13:48:27Z</time></trkpt>
<trkpt lat="25.193706" lon="110.284652">
<time>2016-10-06T13:48:28Z</time></trkpt>
<trkpt lat="25.193786" lon="110.284622">
<time>2016-10-06T13:48:29Z</time></trkpt>
<trkpt lat="25.195307" lon="110.284142">
<time>2016-10-06T13:48:30Z</time></trkpt>
<trkpt lat="25.195377" lon="110.284122">
<time>2016-10-06T13:48:31Z</time></trkpt>
<trkpt lat="25.196527" lon="110.283813">
<time>2016-10-06T13:48:32Z</time></trkpt>
<trkpt lat="25.198398" lon="110.283403">
<time>2016-10-06T13:48:33Z</time></trkpt>
<trkpt lat="25.198448" lon="110.283393">
<time>2016-10-06T13:48:34Z</time></trkpt>
<trkpt lat="25.198948" lon="110.283284">
<time>2016-10-06T13:48:35Z</time></trkpt>
<trkpt lat="25.199408" lon="110.283234">
<time>2016-10-06T13:48:36Z</time></trkpt>
<trkpt lat="25.200618" lon="110.283224">
<time>2016-10-06T13:48:37Z</time></trkpt>
<trkpt lat="25.201858" lon="110.283203">
<time>2016-10-06T13:48:38Z</time></trkpt>
<trkpt lat="25.202418" lon="110.283193">
<time>2016-10-06T13:48:39Z</time></trkpt>
<trkpt lat="25.203668" lon="110.283163">
<time>2016-10-06T13:48:40Z</time></trkpt>
<trkpt lat="25.203818" lon="110.283163">
<time>2016-10-06T13:48:41Z</time></trkpt>
<trkpt lat="25.205098" lon="110.283143">
<time>2016-10-06T13:48:42Z</time></trkpt>
<trkpt lat="25.205228" lon="110.283143">
<time>2016-10-06T13:48:43Z</time></trkpt>
<trkpt lat="25.205848" lon="110.283143">
<time>2016-10-06T13:48:44Z</time></trkpt>
<trkpt lat="25.206628" lon="110.283133">
<time>2016-10-06T13:48:45Z</time></trkpt>
<trkpt lat="25.207488" lon="110.283133">
<time>2016-10-06T13:48:46Z</time></trkpt>
<trkpt lat="25.208198" lon="110.283133">
<time>2016-10-06T13:48:47Z</time></trkpt>
<trkpt lat="25.209568" lon="110.283103">
<time>2016-10-06T13:48:48Z</time></trkpt>
<trkpt lat="25.209628" lon="110.283103">
<time>2016-10-06T13:48:49Z</time></trkpt>
<trkpt lat="25.210158" lon="110.283093">
<time>2016-10-06T13:48:50Z</time></trkpt>
<trkpt lat="25.210778" lon="110.283083">
<time>2016-10-06T13:48:51Z</time></trkpt>
<trkpt lat="25.211988" lon="110.283063">
<time>2016-10-06T13:48:52Z</time></trkpt>
<trkpt lat="25.212128" lon="110.283063">
<time>2016-10-06T13:48:53Z</time></trkpt>
<trkpt lat="25.213018" lon="110.283033">
<time>2016-10-06T13:48:54Z</time></trkpt>
<trkpt lat="25.213018" lon="110.283033">
<time>2016-10-06T13:48:55Z</time></trkpt>
<trkpt lat="25.213128" lon="110.282983">
<time>2016-10-06T13:48:56Z</time></trkpt>
<trkpt lat="25.213198" lon="110.282943">
<time>2016-10-06T13:48:57Z</time></trkpt>
<trkpt lat="25.213258" lon="110.282913">
<time>2016-10-06T13:48:58Z</time></trkpt>
<trkpt lat="25.213318" lon="110.282873">
<time>2016-10-06T13:48:59Z</time></trkpt>
<trkpt lat="25.213408" lon="110.282813">
<time>2016-10-06T13:49:00Z</time></trkpt>
<trkpt lat="25.213508" lon="110.282733">
<time>2016-10-06T13:49:01Z</time></trkpt>
<trkpt lat="25.213629" lon="110.282634">
<time>2016-10-06T13:49:02Z</time></trkpt>
<trkpt lat="25.213629" lon="110.282634">
<time>2016-10-06T13:49:03Z</time></trkpt>
<trkpt lat="25.213851" lon="110.280936">
<time>2016-10-06T13:49:04Z</time></trkpt>
<trkpt lat="25.213982" lon="110.279888">
<time>2016-10-06T13:49:05Z</time></trkpt>
<trkpt lat="25.214214" lon="110.278091">
<time>2016-10-06T13:49:06Z</time></trkpt>
<trkpt lat="25.214355" lon="110.277042">
<time>2016-10-06T13:49:07Z</time></trkpt>
<trkpt lat="25.214446" lon="110.276313">
<time>2016-10-06T13:49:08Z</time></trkpt>
<trkpt lat="25.214597" lon="110.275115">
<time>2016-10-06T13:49:09Z</time></trkpt>
<trkpt lat="25.214718" lon="110.274166">
<time>2016-10-06T13:49:10Z</time></trkpt>
<trkpt lat="25.214759" lon="110.273856">
<time>2016-10-06T13:49:11Z</time></trkpt>
<trkpt lat="25.214809" lon="110.273467">
<time>2016-10-06T13:49:12Z</time></trkpt>
<trkpt lat="25.21491" lon="110.272388">
<time>2016-10-06T13:49:13Z</time></trkpt>
<trkpt lat="25.214911" lon="110.271889">
<time>2016-10-06T13:49:14Z</time></trkpt>
<trkpt lat="25.214911" lon="110.271669">
<time>2016-10-06T13:49:15Z</time></trkpt>
<trkpt lat="25.214832" lon="110.27079">
<time>2016-10-06T13:49:16Z</time></trkpt>
<trkpt lat="25.214772" lon="110.270291">
<time>2016-10-06T13:49:17Z</time></trkpt>
<trkpt lat="25.214762" lon="110.270251">
<time>2016-10-06T13:49:18Z</time></trkpt>
<trkpt lat="25.214633" lon="110.269592">
<time>2016-10-06T13:49:19Z</time></trkpt>
<trkpt lat="25.214025" lon="110.267404">
<time>2016-10-06T13:49:20Z</time></trkpt>
<trkpt lat="25.213885" lon="110.267054">
<time>2016-10-06T13:49:21Z</time></trkpt>
<trkpt lat="25.213596" lon="110.266015">
<time>2016-10-06T13:49:22Z</time></trkpt>
<trkpt lat="25.213596" lon="110.266015">
<time>2016-10-06T13:49:23Z</time></trkpt>
<trkpt lat="25.213656" lon="110.266015">
<time>2016-10-06T13:49:24Z</time></trkpt>
<trkpt lat="25.213656" lon="110.266015">
<time>2016-10-06T13:49:25Z</time></trkpt>
<trkpt lat="25.213646" lon="110.265985">
<time>2016-10-06T13:49:26Z</time></trkpt>
<trkpt lat="25.213447" lon="110.265046">
<time>2016-10-06T13:49:27Z</time></trkpt>
<trkpt lat="25.213278" lon="110.263648">
<time>2016-10-06T13:49:28Z</time></trkpt>
<trkpt lat="25.213099" lon="110.261589">
<time>2016-10-06T13:49:29Z</time></trkpt>
<trkpt lat="25.21297" lon="110.259731">
<time>2016-10-06T13:49:30Z</time></trkpt>
<trkpt lat="25.2129" lon="110.258972">
<time>2016-10-06T13:49:31Z</time></trkpt>
<trkpt lat="25.212831" lon="110.258042">
<time>2016-10-06T13:49:32Z</time></trkpt>
<trkpt lat="25.212821" lon="110.257622">
<time>2016-10-06T13:49:33Z</time></trkpt>
<trkpt lat="25.212821" lon="110.257143">
<time>2016-10-06T13:49:34Z</time></trkpt>
<trkpt lat="25.212862" lon="110.256473">
<time>2016-10-06T13:49:35Z</time></trkpt>
<trkpt lat="25.212902" lon="110.256153">
<time>2016-10-06T13:49:36Z</time></trkpt>
<trkpt lat="25.212952" lon="110.255814">
<time>2016-10-06T13:49:37Z</time></trkpt>
<trkpt lat="25.213082" lon="110.255014">
<time>2016-10-06T13:49:38Z</time></trkpt>
<trkpt lat="25.213303" lon="110.254094">
<time>2016-10-06T13:49:39Z</time></trkpt>
<trkpt lat="25.213603" lon="110.252735">
<time>2016-10-06T13:49:40Z</time></trkpt>
<trkpt lat="25.213763" lon="110.252025">
<time>2016-10-06T13:49:41Z</time></trkpt>
<trkpt lat="25.213993" lon="110.250856">
<time>2016-10-06T13:49:42Z</time></trkpt>
<trkpt lat="25.214043" lon="110.250536">
<time>2016-10-06T13:49:43Z</time></trkpt>
<trkpt lat="25.214094" lon="110.250006">
<time>2016-10-06T13:49:44Z</time></trkpt>
<trkpt lat="25.214114" lon="110.249496">
<time>2016-10-06T13:49:45Z</time></trkpt>
<trkpt lat="25.214094" lon="110.248447">
<time>2016-10-06T13:49:46Z</time></trkpt>
<trkpt lat="25.214074" lon="110.247287">
<time>2016-10-06T13:49:47Z</time></trkpt>
<trkpt lat="25.214064" lon="110.246907">
<time>2016-10-06T13:49:48Z</time></trkpt>
<trkpt lat="25.214054" lon="110.245687">
<time>2016-10-06T13:49:49Z</time></trkpt>
<trkpt lat="25.214044" lon="110.245327">
<time>2016-10-06T13:49:50Z</time></trkpt>
<trkpt lat="25.214014" lon="110.244367">
<time>2016-10-06T13:49:51Z</time></trkpt>
<trkpt lat="25.213994" lon="110.242917">
<time>2016-10-06T13:49:52Z</time></trkpt>
<trkpt lat="25.213984" lon="110.242587">
<time>2016-10-06T13:49:53Z</time></trkpt>
<trkpt lat="25.213954" lon="110.241097">
<time>2016-10-06T13:49:54Z</time></trkpt>
<trkpt lat="25.213923" lon="110.239797">
<time>2016-10-06T13:49:55Z</time></trkpt>
<trkpt lat="25.213873" lon="110.237067">
<time>2016-10-06T13:49:56Z</time></trkpt>
<trkpt lat="25.213823" lon="110.236257">
<time>2016-10-06T13:49:57Z</time></trkpt>
<trkpt lat="25.213772" lon="110.235877">
<time>2016-10-06T13:49:58Z</time></trkpt>
<trkpt lat="25.213702" lon="110.235326">
<time>2016-10-06T13:49:59Z</time></trkpt>
<trkpt lat="25.213221" lon="110.232746">
<time>2016-10-06T13:50:00Z</time></trkpt>
<trkpt lat="25.213121" lon="110.232285">
<time>2016-10-06T13:50:01Z</time></trkpt>
<trkpt lat="25.213021" lon="110.231635">
<time>2016-10-06T13:50:02Z</time></trkpt>
<trkpt lat="25.213" lon="110.231035">
<time>2016-10-06T13:50:03Z</time></trkpt>
<trkpt lat="25.21303" lon="110.230495">
<time>2016-10-06T13:50:04Z</time></trkpt>
<trkpt lat="25.21307" lon="110.230184">
<time>2016-10-06T13:50:05Z</time></trkpt>
<trkpt lat="25.21319" lon="110.229714">
<time>2016-10-06T13:50:06Z</time></trkpt>
<trkpt lat="25.213379" lon="110.229204">
<time>2016-10-06T13:50:07Z</time></trkpt>
<trkpt lat="25.213799" lon="110.228253">
<time>2016-10-06T13:50:08Z</time></trkpt>
<trkpt lat="25.214088" lon="110.227553">
<time>2016-10-06T13:50:09Z</time></trkpt>
<trkpt lat="25.214108" lon="110.227503">
<time>2016-10-06T13:50:10Z</time></trkpt>
<trkpt lat="25.214248" lon="110.226953">
<time>2016-10-06T13:50:11Z</time></trkpt>
<trkpt lat="25.214287" lon="110.226542">
<time>2016-10-06T13:50:12Z</time></trkpt>
<trkpt lat="25.214307" lon="110.226232">
<time>2016-10-06T13:50:13Z</time></trkpt>
<trkpt lat="25.214287" lon="110.225822">
<time>2016-10-06T13:50:14Z</time></trkpt>
<trkpt lat="25.214227" lon="110.225442">
<time>2016-10-06T13:50:15Z</time></trkpt>
<trkpt lat="25.214056" lon="110.224791">
<time>2016-10-06T13:50:16Z</time></trkpt>
<trkpt lat="25.213766" lon="110.224081">
<time>2016-10-06T13:50:17Z</time></trkpt>
<trkpt lat="25.213505" lon="110.22329">
<time>2016-10-06T13:50:18Z</time></trkpt>
<trkpt lat="25.213395" lon="110.22277">
<time>2016-10-06T13:50:19Z</time></trkpt>
<trkpt lat="25.213334" lon="110.222409">
<time>2016-10-06T13:50:20Z</time></trkpt>
<trkpt lat="25.213304" lon="110.222019">
<time>2016-10-06T13:50:21Z</time></trkpt>
<trkpt lat="25.213314" lon="110.221839">
<time>2016-10-06T13:50:22Z</time></trkpt>
<trkpt lat="25.213324" lon="110.221679">
<time>2016-10-06T13:50:23Z</time></trkpt>
<trkpt lat="25.213423" lon="110.220898">
<time>2016-10-06T13:50:24Z</time></trkpt>
<trkpt lat="25.214238" lon="110.216043">
<time>2016-10-06T13:50:25Z</time></trkpt>
<trkpt lat="25.214467" lon="110.214672">
<time>2016-10-06T13:50:26Z</time></trkpt>
<trkpt lat="25.215033" lon="110.211298">
<time>2016-10-06T13:50:27Z</time></trkpt>
<trkpt lat="25.215172" lon="110.210357">
<time>2016-10-06T13:50:28Z</time></trkpt>
<trkpt lat="25.215391" lon="110.209346">
<time>2016-10-06T13:50:29Z</time></trkpt>
<trkpt lat="25.21554" lon="110.208775">
<time>2016-10-06T13:50:30Z</time></trkpt>
<trkpt lat="25.215769" lon="110.208084">
<time>2016-10-06T13:50:31Z</time></trkpt>
<trkpt lat="25.215958" lon="110.207543">
<time>2016-10-06T13:50:32Z</time></trkpt>
<trkpt lat="25.216018" lon="110.207383">
<time>2016-10-06T13:50:33Z</time></trkpt>
<trkpt lat="25.216118" lon="110.207143">
<time>2016-10-06T13:50:34Z</time></trkpt>
<trkpt lat="25.216217" lon="110.206872">
<time>2016-10-06T13:50:35Z</time></trkpt>
<trkpt lat="25.216876" lon="110.20552">
<time>2016-10-06T13:50:36Z</time></trkpt>
<trkpt lat="25.220335" lon="110.198419">
<time>2016-10-06T13:50:37Z</time></trkpt>
<trkpt lat="25.220475" lon="110.198109">
<time>2016-10-06T13:50:38Z</time></trkpt>
<trkpt lat="25.220714" lon="110.197618">
<time>2016-10-06T13:50:39Z</time></trkpt>
<trkpt lat="25.223096" lon="110.19273">
<time>2016-10-06T13:50:40Z</time></trkpt>
<trkpt lat="25.223106" lon="110.19271">
<time>2016-10-06T13:50:41Z</time></trkpt>
<trkpt lat="25.225478" lon="110.187901">
<time>2016-10-06T13:50:42Z</time></trkpt>
<trkpt lat="25.227162" lon="110.184425">
<time>2016-10-06T13:50:43Z</time></trkpt>
<trkpt lat="25.227182" lon="110.184374">
<time>2016-10-06T13:50:44Z</time></trkpt>
<trkpt lat="25.22776" lon="110.183182">
<time>2016-10-06T13:50:45Z</time></trkpt>
<trkpt lat="25.228696" lon="110.181238">
<time>2016-10-06T13:50:46Z</time></trkpt>
<trkpt lat="25.229175" lon="110.180246">
<time>2016-10-06T13:50:47Z</time></trkpt>
<trkpt lat="25.230011" lon="110.178593">
<time>2016-10-06T13:50:48Z</time></trkpt>
<trkpt lat="25.230011" lon="110.178593">
<time>2016-10-06T13:50:49Z</time></trkpt>
<trkpt lat="25.229961" lon="110.178563">
<time>2016-10-06T13:50:50Z</time></trkpt>
<trkpt lat="25.229961" lon="110.178563">
<time>2016-10-06T13:50:51Z</time></trkpt>
<trkpt lat="25.230031" lon="110.178433">
<time>2016-10-06T13:50:52Z</time></trkpt>
<trkpt lat="25.230061" lon="110.178343">
<time>2016-10-06T13:50:53Z</time></trkpt>
<trkpt lat="25.230061" lon="110.178343">
<time>2016-10-06T13:50:54Z</time></trkpt>
<trkpt lat="25.2297" lon="110.178032">
<time>2016-10-06T13:50:55Z</time></trkpt>
<trkpt lat="25.22927" lon="110.177631">
<time>2016-10-06T13:50:56Z</time></trkpt>
<trkpt lat="25.228979" lon="110.177391">
<time>2016-10-06T13:50:57Z</time></trkpt>
<trkpt lat="25.228749" lon="110.177181">
<time>2016-10-06T13:50:58Z</time></trkpt>
<trkpt lat="25.228629" lon="110.17707">
<time>2016-10-06T13:50:59Z</time></trkpt>
<trkpt lat="25.228498" lon="110.17695">
<time>2016-10-06T13:51:00Z</time></trkpt>
<trkpt lat="25.228388" lon="110.17683">
<time>2016-10-06T13:51:01Z</time></trkpt>
<trkpt lat="25.228258" lon="110.176599">
<time>2016-10-06T13:51:02Z</time></trkpt>
<trkpt lat="25.228127" lon="110.176359">
<time>2016-10-06T13:51:03Z</time></trkpt>
<trkpt lat="25.227937" lon="110.175998">
<time>2016-10-06T13:51:04Z</time></trkpt>
<trkpt lat="25.226913" lon="110.174034">
<time>2016-10-06T13:51:05Z</time></trkpt>
<trkpt lat="25.226753" lon="110.173774">
<time>2016-10-06T13:51:06Z</time></trkpt>
<trkpt lat="25.226522" lon="110.173463">
<time>2016-10-06T13:51:07Z</time></trkpt>
<trkpt lat="25.226111" lon="110.172982">
<time>2016-10-06T13:51:08Z</time></trkpt>
<trkpt lat="25.2258" lon="110.172531">
<time>2016-10-06T13:51:09Z</time></trkpt>
<trkpt lat="25.22561" lon="110.172231">
<time>2016-10-06T13:51:10Z</time></trkpt>
<trkpt lat="25.22559" lon="110.172211">
<time>2016-10-06T13:51:11Z</time></trkpt>
<trkpt lat="25.22559" lon="110.172211">
<time>2016-10-06T13:51:12Z</time></trkpt>
<trkpt lat="25.226019" lon="110.17185">
<time>2016-10-06T13:51:13Z</time></trkpt>
<trkpt lat="25.226189" lon="110.17171">
<time>2016-10-06T13:51:14Z</time></trkpt>
<trkpt lat="25.226189" lon="110.17171">
<time>2016-10-06T13:51:15Z</time></trkpt>
<trkpt lat="25.224025" lon="110.169976">
<time>2016-10-06T13:51:16Z</time></trkpt>
<trkpt lat="25.224025" lon="110.169976">
<time>2016-10-06T13:51:17Z</time></trkpt>
<trkpt lat="25.224475" lon="110.169576">
<time>2016-10-06T13:51:18Z</time></trkpt>
<trkpt lat="25.226311" lon="110.167852">
<time>2016-10-06T13:51:19Z</time></trkpt>
<trkpt lat="25.226311" lon="110.167852">
<time>2016-10-06T13:51:20Z</time></trkpt>
<trkpt lat="25.225721" lon="110.167561">
<time>2016-10-06T13:51:21Z</time></trkpt>
<trkpt lat="25.2244" lon="110.16685">
<time>2016-10-06T13:51:22Z</time></trkpt>
<trkpt lat="25.223148" lon="110.166079">
<time>2016-10-06T13:51:23Z</time></trkpt>
<trkpt lat="25.222918" lon="110.165938">
<time>2016-10-06T13:51:24Z</time></trkpt>
<trkpt lat="25.222297" lon="110.165467">
<time>2016-10-06T13:51:25Z</time></trkpt>
<trkpt lat="25.222257" lon="110.165437">
<time>2016-10-06T13:51:26Z</time></trkpt>
<trkpt lat="25.221416" lon="110.164716">
<time>2016-10-06T13:51:27Z</time></trkpt>
<trkpt lat="25.220764" lon="110.164135">
<time>2016-10-06T13:51:28Z</time></trkpt>
<trkpt lat="25.220394" lon="110.163774">
<time>2016-10-06T13:51:29Z</time></trkpt>
<trkpt lat="25.220113" lon="110.163494">
<time>2016-10-06T13:51:30Z</time></trkpt>
<trkpt lat="25.219482" lon="110.162772">
<time>2016-10-06T13:51:31Z</time></trkpt>
<trkpt lat="25.219322" lon="110.162612">
<time>2016-10-06T13:51:32Z</time></trkpt>
<trkpt lat="25.218881" lon="110.162161">
<time>2016-10-06T13:51:33Z</time></trkpt>
<trkpt lat="25.21853" lon="110.16181">
<time>2016-10-06T13:51:34Z</time></trkpt>
<trkpt lat="25.21834" lon="110.16158">
<time>2016-10-06T13:51:35Z</time></trkpt>
<trkpt lat="25.218249" lon="110.16146">
<time>2016-10-06T13:51:36Z</time></trkpt>
<trkpt lat="25.218149" lon="110.161319">
<time>2016-10-06T13:51:37Z</time></trkpt>
<trkpt lat="25.217959" lon="110.161059">
<time>2016-10-06T13:51:38Z</time></trkpt>
<trkpt lat="25.217668" lon="110.160578">
<time>2016-10-06T13:51:39Z</time></trkpt>
<trkpt lat="25.217036" lon="110.159536">
<time>2016-10-06T13:51:40Z</time></trkpt>
<trkpt lat="25.216304" lon="110.158333">
<time>2016-10-06T13:51:41Z</time></trkpt>
<trkpt lat="25.216223" lon="110.158173">
<time>2016-10-06T13:51:42Z</time></trkpt>
<trkpt lat="25.215682" lon="110.157281">
<time>2016-10-06T13:51:43Z</time></trkpt>
<trkpt lat="25.21498" lon="110.156079">
<time>2016-10-06T13:51:44Z</time></trkpt>
<trkpt lat="25.214769" lon="110.155698">
<time>2016-10-06T13:51:45Z</time></trkpt>
<trkpt lat="25.214628" lon="110.155408">
<time>2016-10-06T13:51:46Z</time></trkpt>
<trkpt lat="25.214518" lon="110.155147">
<time>2016-10-06T13:51:47Z</time></trkpt>
<trkpt lat="25.214407" lon="110.154877">
<time>2016-10-06T13:51:48Z</time></trkpt>
<trkpt lat="25.214307" lon="110.154576">
<time>2016-10-06T13:51:49Z</time></trkpt>
<trkpt lat="25.214267" lon="110.154476">
<time>2016-10-06T13:51:50Z</time></trkpt>
<trkpt lat="25.214176" lon="110.154226">
<time>2016-10-06T13:51:51Z</time></trkpt>
<trkpt lat="25.214035" lon="110.153705">
<time>2016-10-06T13:51:52Z</time></trkpt>
<trkpt lat="25.213934" lon="110.153254">
<time>2016-10-06T13:51:53Z</time></trkpt>
<trkpt lat="25.213844" lon="110.152853">
<time>2016-10-06T13:51:54Z</time></trkpt>
<trkpt lat="25.213773" lon="110.152442">
<time>2016-10-06T13:51:55Z</time></trkpt>
<trkpt lat="25.213702" lon="110.152021">
<time>2016-10-06T13:51:56Z</time></trkpt>
<trkpt lat="25.213601" lon="110.15159">
<time>2016-10-06T13:51:57Z</time></trkpt>
<trkpt lat="25.213511" lon="110.15123">
<time>2016-10-06T13:51:58Z</time></trkpt>
<trkpt lat="25.21345" lon="110.151049">
<time>2016-10-06T13:51:59Z</time></trkpt>
<trkpt lat="25.21337" lon="110.150759">
<time>2016-10-06T13:52:00Z</time></trkpt>
<trkpt lat="25.213229" lon="110.150308">
<time>2016-10-06T13:52:01Z</time></trkpt>
<trkpt lat="25.213169" lon="110.150098">
<time>2016-10-06T13:52:02Z</time></trkpt>
<trkpt lat="25.213108" lon="110.149867">
<time>2016-10-06T13:52:03Z</time></trkpt>
<trkpt lat="25.213068" lon="110.149617">
<time>2016-10-06T13:52:04Z</time></trkpt>
<trkpt lat="25.213047" lon="110.149366">
<time>2016-10-06T13:52:05Z</time></trkpt>
<trkpt lat="25.213047" lon="110.149136">
<time>2016-10-06T13:52:06Z</time></trkpt>
<trkpt lat="25.213067" lon="110.148935">
<time>2016-10-06T13:52:07Z</time></trkpt>
<trkpt lat="25.213106" lon="110.148645">
<time>2016-10-06T13:52:08Z</time></trkpt>
<trkpt lat="25.213176" lon="110.148334">
<time>2016-10-06T13:52:09Z</time></trkpt>
<trkpt lat="25.213245" lon="110.148154">
<time>2016-10-06T13:52:10Z</time></trkpt>
<trkpt lat="25.213315" lon="110.148004">
<time>2016-10-06T13:52:11Z</time></trkpt>
<trkpt lat="25.213435" lon="110.147783">
<time>2016-10-06T13:52:12Z</time></trkpt>
<trkpt lat="25.213474" lon="110.147673">
<time>2016-10-06T13:52:13Z</time></trkpt>
<trkpt lat="25.213534" lon="110.147443">
<time>2016-10-06T13:52:14Z</time></trkpt>
<trkpt lat="25.213851" lon="110.14594">
<time>2016-10-06T13:52:15Z</time></trkpt>
<trkpt lat="25.21388" lon="110.144998">
<time>2016-10-06T13:52:16Z</time></trkpt>
<trkpt lat="25.213859" lon="110.144738">
<time>2016-10-06T13:52:17Z</time></trkpt>
<trkpt lat="25.213747" lon="110.143445">
<time>2016-10-06T13:52:18Z</time></trkpt>
<trkpt lat="25.213656" lon="110.142654">
<time>2016-10-06T13:52:19Z</time></trkpt>
<trkpt lat="25.213544" lon="110.141512">
<time>2016-10-06T13:52:20Z</time></trkpt>
<trkpt lat="25.213503" lon="110.140841">
<time>2016-10-06T13:52:21Z</time></trkpt>
<trkpt lat="25.21348" lon="110.138707">
<time>2016-10-06T13:52:22Z</time></trkpt>
<trkpt lat="25.213478" lon="110.137495">
<time>2016-10-06T13:52:23Z</time></trkpt>
<trkpt lat="25.213517" lon="110.136754">
<time>2016-10-06T13:52:24Z</time></trkpt>
<trkpt lat="25.213575" lon="110.135752">
<time>2016-10-06T13:52:25Z</time></trkpt>
<trkpt lat="25.213585" lon="110.135542">
<time>2016-10-06T13:52:26Z</time></trkpt>
<trkpt lat="25.213613" lon="110.13463">
<time>2016-10-06T13:52:27Z</time></trkpt>
<trkpt lat="25.213632" lon="110.133989">
<time>2016-10-06T13:52:28Z</time></trkpt>
<trkpt lat="25.213591" lon="110.133188">
<time>2016-10-06T13:52:29Z</time></trkpt>
<trkpt lat="25.21348" lon="110.132086">
<time>2016-10-06T13:52:30Z</time></trkpt>
<trkpt lat="25.213318" lon="110.130985">
<time>2016-10-06T13:52:31Z</time></trkpt>
<trkpt lat="25.213258" lon="110.130674">
<time>2016-10-06T13:52:32Z</time></trkpt>
<trkpt lat="25.213117" lon="110.129873">
<time>2016-10-06T13:52:33Z</time></trkpt>
<trkpt lat="25.212945" lon="110.129022">
<time>2016-10-06T13:52:34Z</time></trkpt>
<trkpt lat="25.212734" lon="110.12803">
<time>2016-10-06T13:52:35Z</time></trkpt>
<trkpt lat="25.212583" lon="110.12741">
<time>2016-10-06T13:52:36Z</time></trkpt>
<trkpt lat="25.212553" lon="110.127279">
<time>2016-10-06T13:52:37Z</time></trkpt>
<trkpt lat="25.212392" lon="110.126498">
<time>2016-10-06T13:52:38Z</time></trkpt>
<trkpt lat="25.212312" lon="110.126048">
<time>2016-10-06T13:52:39Z</time></trkpt>
<trkpt lat="25.21215" lon="110.125006">
<time>2016-10-06T13:52:40Z</time></trkpt>
<trkpt lat="25.21201" lon="110.124366">
<time>2016-10-06T13:52:41Z</time></trkpt>
<trkpt lat="25.211959" lon="110.124115">
<time>2016-10-06T13:52:42Z</time></trkpt>
<trkpt lat="25.211929" lon="110.123945">
<time>2016-10-06T13:52:43Z</time></trkpt>
<trkpt lat="25.211879" lon="110.123545">
<time>2016-10-06T13:52:44Z</time></trkpt>
<trkpt lat="25.211627" lon="110.122473">
<time>2016-10-06T13:52:45Z</time></trkpt>
<trkpt lat="25.211487" lon="110.121692">
<time>2016-10-06T13:52:46Z</time></trkpt>
<trkpt lat="25.211276" lon="110.120791">
<time>2016-10-06T13:52:47Z</time></trkpt>
<trkpt lat="25.211235" lon="110.120431">
<time>2016-10-06T13:52:48Z</time></trkpt>
<trkpt lat="25.211165" lon="110.11988">
<time>2016-10-06T13:52:49Z</time></trkpt>
<trkpt lat="25.211044" lon="110.119229">
<time>2016-10-06T13:52:50Z</time></trkpt>
<trkpt lat="25.210933" lon="110.118529">
<time>2016-10-06T13:52:51Z</time></trkpt>
<trkpt lat="25.210802" lon="110.117748">
<time>2016-10-06T13:52:52Z</time></trkpt>
<trkpt lat="25.210802" lon="110.117738">
<time>2016-10-06T13:52:53Z</time></trkpt>
<trkpt lat="25.210712" lon="110.117147">
<time>2016-10-06T13:52:54Z</time></trkpt>
<trkpt lat="25.210641" lon="110.116607">
<time>2016-10-06T13:52:55Z</time></trkpt>
<trkpt lat="25.210591" lon="110.116316">
<time>2016-10-06T13:52:56Z</time></trkpt>
<trkpt lat="25.210591" lon="110.116306">
<time>2016-10-06T13:52:57Z</time></trkpt>
<trkpt lat="25.21047" lon="110.115376">
<time>2016-10-06T13:52:58Z</time></trkpt>
<trkpt lat="25.210399" lon="110.114224">
<time>2016-10-06T13:52:59Z</time></trkpt>
<trkpt lat="25.210389" lon="110.114084">
<time>2016-10-06T13:53:00Z</time></trkpt>
<trkpt lat="25.210379" lon="110.113994">
<time>2016-10-06T13:53:01Z</time></trkpt>
<trkpt lat="25.210369" lon="110.113394">
<time>2016-10-06T13:53:02Z</time></trkpt>
<trkpt lat="25.210368" lon="110.112303">
<time>2016-10-06T13:53:03Z</time></trkpt>
<trkpt lat="25.210317" lon="110.111782">
<time>2016-10-06T13:53:04Z</time></trkpt>
<trkpt lat="25.210287" lon="110.111542">
<time>2016-10-06T13:53:05Z</time></trkpt>
<trkpt lat="25.210117" lon="110.110782">
<time>2016-10-06T13:53:06Z</time></trkpt>
<trkpt lat="25.209756" lon="110.109721">
<time>2016-10-06T13:53:07Z</time></trkpt>
<trkpt lat="25.209516" lon="110.10918">
<time>2016-10-06T13:53:08Z</time></trkpt>
<trkpt lat="25.209245" lon="110.10859">
<time>2016-10-06T13:53:09Z</time></trkpt>
<trkpt lat="25.208945" lon="110.10795">
<time>2016-10-06T13:53:10Z</time></trkpt>
<trkpt lat="25.208724" lon="110.107499">
<time>2016-10-06T13:53:11Z</time></trkpt>
<trkpt lat="25.208544" lon="110.106889">
<time>2016-10-06T13:53:12Z</time></trkpt>
<trkpt lat="25.208224" lon="110.105968">
<time>2016-10-06T13:53:13Z</time></trkpt>
<trkpt lat="25.208053" lon="110.105078">
<time>2016-10-06T13:53:14Z</time></trkpt>
<trkpt lat="25.207923" lon="110.103587">
<time>2016-10-06T13:53:15Z</time></trkpt>
<trkpt lat="25.207922" lon="110.103577">
<time>2016-10-06T13:53:16Z</time></trkpt>
<trkpt lat="25.207732" lon="110.102517">
<time>2016-10-06T13:53:17Z</time></trkpt>
<trkpt lat="25.207602" lon="110.101757">
<time>2016-10-06T13:53:18Z</time></trkpt>
<trkpt lat="25.207552" lon="110.101496">
<time>2016-10-06T13:53:19Z</time></trkpt>
<trkpt lat="25.207432" lon="110.100916">
<time>2016-10-06T13:53:20Z</time></trkpt>
<trkpt lat="25.207351" lon="110.100506">
<time>2016-10-06T13:53:21Z</time></trkpt>
<trkpt lat="25.207081" lon="110.099596">
<time>2016-10-06T13:53:22Z</time></trkpt>
<trkpt lat="25.206861" lon="110.099066">
<time>2016-10-06T13:53:23Z</time></trkpt>
<trkpt lat="25.206641" lon="110.098616">
<time>2016-10-06T13:53:24Z</time></trkpt>
<trkpt lat="25.206371" lon="110.098055">
<time>2016-10-06T13:53:25Z</time></trkpt>
<trkpt lat="25.206221" lon="110.097825">
<time>2016-10-06T13:53:26Z</time></trkpt>
<trkpt lat="25.205761" lon="110.097115">
<time>2016-10-06T13:53:27Z</time></trkpt>
<trkpt lat="25.205371" lon="110.096625">
<time>2016-10-06T13:53:28Z</time></trkpt>
<trkpt lat="25.20488" lon="110.095855">
<time>2016-10-06T13:53:29Z</time></trkpt>
<trkpt lat="25.20461" lon="110.095205">
<time>2016-10-06T13:53:30Z</time></trkpt>
<trkpt lat="25.20428" lon="110.094075">
<time>2016-10-06T13:53:31Z</time></trkpt>
<trkpt lat="25.20412" lon="110.093095">
<time>2016-10-06T13:53:32Z</time></trkpt>
<trkpt lat="25.20412" lon="110.092415">
<time>2016-10-06T13:53:33Z</time></trkpt>
<trkpt lat="25.20417" lon="110.091275">
<time>2016-10-06T13:53:34Z</time></trkpt>
<trkpt lat="25.204231" lon="110.090795">
<time>2016-10-06T13:53:35Z</time></trkpt>
<trkpt lat="25.204311" lon="110.090245">
<time>2016-10-06T13:53:36Z</time></trkpt>
<trkpt lat="25.204481" lon="110.088746">
<time>2016-10-06T13:53:37Z</time></trkpt>
<trkpt lat="25.204471" lon="110.088246">
<time>2016-10-06T13:53:38Z</time></trkpt>
<trkpt lat="25.204461" lon="110.087446">
<time>2016-10-06T13:53:39Z</time></trkpt>
<trkpt lat="25.204461" lon="110.087396">
<time>2016-10-06T13:53:40Z</time></trkpt>
<trkpt lat="25.204381" lon="110.086616">
<time>2016-10-06T13:53:41Z</time></trkpt>
<trkpt lat="25.204282" lon="110.085577">
<time>2016-10-06T13:53:42Z</time></trkpt>
<trkpt lat="25.204182" lon="110.085197">
<time>2016-10-06T13:53:43Z</time></trkpt>
<trkpt lat="25.203253" lon="110.081819">
<time>2016-10-06T13:53:44Z</time></trkpt>
<trkpt lat="25.203253" lon="110.081809">
<time>2016-10-06T13:53:45Z</time></trkpt>
<trkpt lat="25.202136" lon="110.077462">
<time>2016-10-06T13:53:46Z</time></trkpt>
<trkpt lat="25.201388" lon="110.075194">
<time>2016-10-06T13:53:47Z</time></trkpt>
<trkpt lat="25.201038" lon="110.074484">
<time>2016-10-06T13:53:48Z</time></trkpt>
<trkpt lat="25.200749" lon="110.074055">
<time>2016-10-06T13:53:49Z</time></trkpt>
<trkpt lat="25.199001" lon="110.071837">
<time>2016-10-06T13:53:50Z</time></trkpt>
<trkpt lat="25.197173" lon="110.069899">
<time>2016-10-06T13:53:51Z</time></trkpt>
<trkpt lat="25.197023" lon="110.069749">
<time>2016-10-06T13:53:52Z</time></trkpt>
<trkpt lat="25.196833" lon="110.06958">
<time>2016-10-06T13:53:53Z</time></trkpt>
<trkpt lat="25.196793" lon="110.06955">
<time>2016-10-06T13:53:54Z</time></trkpt>
<trkpt lat="25.196594" lon="110.06941">
<time>2016-10-06T13:53:55Z</time></trkpt>
<trkpt lat="25.196264" lon="110.06911">
<time>2016-10-06T13:53:56Z</time></trkpt>
<trkpt lat="25.196024" lon="110.068871">
<time>2016-10-06T13:53:57Z</time></trkpt>
<trkpt lat="25.195065" lon="110.067862">
<time>2016-10-06T13:53:58Z</time></trkpt>
<trkpt lat="25.193827" lon="110.066594">
<time>2016-10-06T13:53:59Z</time></trkpt>
<trkpt lat="25.19162" lon="110.064097">
<time>2016-10-06T13:54:00Z</time></trkpt>
<trkpt lat="25.189434" lon="110.061451">
<time>2016-10-06T13:54:01Z</time></trkpt>
<trkpt lat="25.187139" lon="110.058007">
<time>2016-10-06T13:54:02Z</time></trkpt>
<trkpt lat="25.18665" lon="110.057268">
<time>2016-10-06T13:54:03Z</time></trkpt>
<trkpt lat="25.186421" lon="110.056919">
<time>2016-10-06T13:54:04Z</time></trkpt>
<trkpt lat="25.186361" lon="110.056819">
<time>2016-10-06T13:54:05Z</time></trkpt>
<trkpt lat="25.18374" lon="110.051639">
<time>2016-10-06T13:54:06Z</time></trkpt>
<trkpt lat="25.181728" lon="110.047288">
<time>2016-10-06T13:54:07Z</time></trkpt>
<trkpt lat="25.18131" lon="110.04646">
<time>2016-10-06T13:54:08Z</time></trkpt>
<trkpt lat="25.181181" lon="110.046231">
<time>2016-10-06T13:54:09Z</time></trkpt>
<trkpt lat="25.181021" lon="110.045961">
<time>2016-10-06T13:54:10Z</time></trkpt>
<trkpt lat="25.180981" lon="110.045891">
<time>2016-10-06T13:54:11Z</time></trkpt>
<trkpt lat="25.180981" lon="110.045891">
<time>2016-10-06T13:54:12Z</time></trkpt>
<trkpt lat="25.180771" lon="110.045871">
<time>2016-10-06T13:54:13Z</time></trkpt>
<trkpt lat="25.179432" lon="110.045772">
<time>2016-10-06T13:54:14Z</time></trkpt>
<trkpt lat="25.174842" lon="110.045732">
<time>2016-10-06T13:54:15Z</time></trkpt>
<trkpt lat="25.174032" lon="110.045702">
<time>2016-10-06T13:54:16Z</time></trkpt>
<trkpt lat="25.173842" lon="110.045672">
<time>2016-10-06T13:54:17Z</time></trkpt>
<trkpt lat="25.173682" lon="110.045652">
<time>2016-10-06T13:54:18Z</time></trkpt>
<trkpt lat="25.172703" lon="110.045413">
<time>2016-10-06T13:54:19Z</time></trkpt>
<trkpt lat="25.171683" lon="110.045024">
<time>2016-10-06T13:54:20Z</time></trkpt>
<trkpt lat="25.170835" lon="110.044425">
<time>2016-10-06T13:54:21Z</time></trkpt>
<trkpt lat="25.170106" lon="110.043727">
<time>2016-10-06T13:54:22Z</time></trkpt>
<trkpt lat="25.169548" lon="110.043059">
<time>2016-10-06T13:54:23Z</time></trkpt>
<trkpt lat="25.16896" lon="110.042041">
<time>2016-10-06T13:54:24Z</time></trkpt>
<trkpt lat="25.167975" lon="110.039727">
<time>2016-10-06T13:54:25Z</time></trkpt>
<trkpt lat="25.167199" lon="110.038111">
<time>2016-10-06T13:54:26Z</time></trkpt>
<trkpt lat="25.166661" lon="110.037034">
<time>2016-10-06T13:54:27Z</time></trkpt>
<trkpt lat="25.166582" lon="110.036894">
<time>2016-10-06T13:54:28Z</time></trkpt>
<trkpt lat="25.166413" lon="110.036575">
<time>2016-10-06T13:54:29Z</time></trkpt>
<trkpt lat="25.166243" lon="110.036226">
<time>2016-10-06T13:54:30Z</time></trkpt>
<trkpt lat="25.165736" lon="110.035308">
<time>2016-10-06T13:54:31Z</time></trkpt>
<trkpt lat="25.165566" lon="110.035009">
<time>2016-10-06T13:54:32Z</time></trkpt>
<trkpt lat="25.165566" lon="110.035009">
<time>2016-10-06T13:54:33Z</time></trkpt>
<trkpt lat="25.165887" lon="110.034809">
<time>2016-10-06T13:54:34Z</time></trkpt>
<trkpt lat="25.166157" lon="110.03456">
<time>2016-10-06T13:54:35Z</time></trkpt>
<trkpt lat="25.166398" lon="110.034161">
<time>2016-10-06T13:54:36Z</time></trkpt>
<trkpt lat="25.166508" lon="110.034101">
<time>2016-10-06T13:54:37Z</time></trkpt>
<trkpt lat="25.166659" lon="110.034011">
<time>2016-10-06T13:54:38Z</time></trkpt>
<trkpt lat="25.166699" lon="110.033991">
<time>2016-10-06T13:54:39Z</time></trkpt>
<trkpt lat="25.166949" lon="110.033842">
<time>2016-10-06T13:54:40Z</time></trkpt>
<trkpt lat="25.167139" lon="110.033742">
<time>2016-10-06T13:54:41Z</time></trkpt>
<trkpt lat="25.167199" lon="110.033682">
<time>2016-10-06T13:54:42Z</time></trkpt>
<trkpt lat="25.16723" lon="110.033602">
<time>2016-10-06T13:54:43Z</time></trkpt>
<trkpt lat="25.16723" lon="110.033602">
<time>2016-10-06T13:54:44Z</time></trkpt>
<trkpt lat="25.16722" lon="110.033393">
<time>2016-10-06T13:54:45Z</time></trkpt>
<trkpt lat="25.16722" lon="110.033273">
<time>2016-10-06T13:54:46Z</time></trkpt>
<trkpt lat="25.16723" lon="110.033273">
<time>2016-10-06T13:54:47Z</time></trkpt>
<trkpt lat="25.167251" lon="110.033223">
<time>2016-10-06T13:54:48Z</time></trkpt>
<trkpt lat="25.167481" lon="110.033064">
<time>2016-10-06T13:54:49Z</time></trkpt>
<trkpt lat="25.167661" lon="110.033004">
<time>2016-10-06T13:54:50Z</time></trkpt>
<trkpt lat="25.168312" lon="110.032815">
<time>2016-10-06T13:54:51Z</time></trkpt>
<trkpt lat="25.168652" lon="110.032625">
<time>2016-10-06T13:54:52Z</time></trkpt>
<trkpt lat="25.168702" lon="110.032585">
<time>2016-10-06T13:54:53Z</time></trkpt>
<trkpt lat="25.169163" lon="110.032146">
<time>2016-10-06T13:54:54Z</time></trkpt>
<trkpt lat="25.169294" lon="110.031927">
<time>2016-10-06T13:54:55Z</time></trkpt>
<trkpt lat="25.169324" lon="110.031847">
<time>2016-10-06T13:54:56Z</time></trkpt>
<trkpt lat="25.169354" lon="110.031727">
<time>2016-10-06T13:54:57Z</time></trkpt>
<trkpt lat="25.169355" lon="110.031568">
<time>2016-10-06T13:54:58Z</time></trkpt>
<trkpt lat="25.169355" lon="110.031408">
<time>2016-10-06T13:54:59Z</time></trkpt>
<trkpt lat="25.169325" lon="110.031239">
<time>2016-10-06T13:55:00Z</time></trkpt>
<trkpt lat="25.168997" lon="110.03064">
<time>2016-10-06T13:55:01Z</time></trkpt>
<trkpt lat="25.168877" lon="110.030481">
<time>2016-10-06T13:55:02Z</time></trkpt>
<trkpt lat="25.168818" lon="110.030391">
<time>2016-10-06T13:55:03Z</time></trkpt>
<trkpt lat="25.168808" lon="110.030331">
<time>2016-10-06T13:55:04Z</time></trkpt>
<trkpt lat="25.168808" lon="110.030291">
<time>2016-10-06T13:55:05Z</time></trkpt>
<trkpt lat="25.168798" lon="110.030242">
<time>2016-10-06T13:55:06Z</time></trkpt>
<trkpt lat="25.168798" lon="110.030162">
<time>2016-10-06T13:55:07Z</time></trkpt>
<trkpt lat="25.168808" lon="110.030072">
<time>2016-10-06T13:55:08Z</time></trkpt>
<trkpt lat="25.169351" lon="110.029135">
<time>2016-10-06T13:55:09Z</time></trkpt>
<trkpt lat="25.169481" lon="110.028915">
<time>2016-10-06T13:55:10Z</time></trkpt>
<trkpt lat="25.169582" lon="110.028706">
<time>2016-10-06T13:55:11Z</time></trkpt>
<trkpt lat="25.169673" lon="110.028407">
<time>2016-10-06T13:55:12Z</time></trkpt>
<trkpt lat="25.169683" lon="110.028397">
<time>2016-10-06T13:55:13Z</time></trkpt>
<trkpt lat="25.169733" lon="110.028207">
<time>2016-10-06T13:55:14Z</time></trkpt>
<trkpt lat="25.169743" lon="110.028177">
<time>2016-10-06T13:55:15Z</time></trkpt>
<trkpt lat="25.169764" lon="110.028018">
<time>2016-10-06T13:55:16Z</time></trkpt>
<trkpt lat="25.169784" lon="110.027828">
<time>2016-10-06T13:55:17Z</time></trkpt>
<trkpt lat="25.169835" lon="110.027439">
<time>2016-10-06T13:55:18Z</time></trkpt>
<trkpt lat="25.169886" lon="110.02721">
<time>2016-10-06T13:55:19Z</time></trkpt>
<trkpt lat="25.169936" lon="110.02708">
<time>2016-10-06T13:55:20Z</time></trkpt>
<trkpt lat="25.169946" lon="110.02707">
<time>2016-10-06T13:55:21Z</time></trkpt>
<trkpt lat="25.170307" lon="110.026662">
<time>2016-10-06T13:55:22Z</time></trkpt>
<trkpt lat="25.170688" lon="110.026253">
<time>2016-10-06T13:55:23Z</time></trkpt>
<trkpt lat="25.170969" lon="110.026013">
<time>2016-10-06T13:55:24Z</time></trkpt>
<trkpt lat="25.171059" lon="110.025924">
<time>2016-10-06T13:55:25Z</time></trkpt>
<trkpt lat="25.171189" lon="110.025834">
<time>2016-10-06T13:55:26Z</time></trkpt>
<trkpt lat="25.171379" lon="110.025784">
<time>2016-10-06T13:55:27Z</time></trkpt>
<trkpt lat="25.17148" lon="110.025764">
<time>2016-10-06T13:55:28Z</time></trkpt>
<trkpt lat="25.17148" lon="110.025764">
<time>2016-10-06T13:55:29Z</time></trkpt>
<trkpt lat="25.17174" lon="110.025545">
<time>2016-10-06T13:55:30Z</time></trkpt>
<trkpt lat="25.171811" lon="110.025385">
<time>2016-10-06T13:55:31Z</time></trkpt>
<trkpt lat="25.171881" lon="110.025226">
<time>2016-10-06T13:55:32Z</time></trkpt>
<trkpt lat="25.171941" lon="110.025096">
<time>2016-10-06T13:55:33Z</time></trkpt>
<trkpt lat="25.172042" lon="110.024817">
<time>2016-10-06T13:55:34Z</time></trkpt>
<trkpt lat="25.172103" lon="110.024518">
<time>2016-10-06T13:55:35Z</time></trkpt>
<trkpt lat="25.172123" lon="110.024338">
<time>2016-10-06T13:55:36Z</time></trkpt>
<trkpt lat="25.172144" lon="110.024109">
<time>2016-10-06T13:55:37Z</time></trkpt>
<trkpt lat="25.172185" lon="110.0238">
<time>2016-10-06T13:55:38Z</time></trkpt>
<trkpt lat="25.172226" lon="110.023271">
<time>2016-10-06T13:55:39Z</time></trkpt>
<trkpt lat="25.172227" lon="110.022813">
<time>2016-10-06T13:55:40Z</time></trkpt>
<trkpt lat="25.172208" lon="110.022673">
<time>2016-10-06T13:55:41Z</time></trkpt>
<trkpt lat="25.172198" lon="110.022544">
<time>2016-10-06T13:55:42Z</time></trkpt>
<trkpt lat="25.172239" lon="110.022424">
<time>2016-10-06T13:55:43Z</time></trkpt>
<trkpt lat="25.172339" lon="110.022294">
<time>2016-10-06T13:55:44Z</time></trkpt>
<trkpt lat="25.17264" lon="110.021935">
<time>2016-10-06T13:55:45Z</time></trkpt>
<trkpt lat="25.173011" lon="110.021606">
<time>2016-10-06T13:55:46Z</time></trkpt>
<trkpt lat="25.173081" lon="110.021527">
<time>2016-10-06T13:55:47Z</time></trkpt>
<trkpt lat="25.173392" lon="110.021297">
<time>2016-10-06T13:55:48Z</time></trkpt>
<trkpt lat="25.173572" lon="110.021138">
<time>2016-10-06T13:55:49Z</time></trkpt>
<trkpt lat="25.173732" lon="110.021008">
<time>2016-10-06T13:55:50Z</time></trkpt>
<trkpt lat="25.173873" lon="110.020938">
<time>2016-10-06T13:55:51Z</time></trkpt>
<trkpt lat="25.173943" lon="110.020918">
<time>2016-10-06T13:55:52Z</time></trkpt>
<trkpt lat="25.174103" lon="110.020908">
<time>2016-10-06T13:55:53Z</time></trkpt>
<trkpt lat="25.174133" lon="110.020898">
<time>2016-10-06T13:55:54Z</time></trkpt>
<trkpt lat="25.174183" lon="110.020868">
<time>2016-10-06T13:55:55Z</time></trkpt>
<trkpt lat="25.174213" lon="110.020849">
<time>2016-10-06T13:55:56Z</time></trkpt>
<trkpt lat="25.174293" lon="110.020759">
<time>2016-10-06T13:55:57Z</time></trkpt>
<trkpt lat="25.174373" lon="110.020679">
<time>2016-10-06T13:55:58Z</time></trkpt>
<trkpt lat="25.174393" lon="110.020649">
<time>2016-10-06T13:55:59Z</time></trkpt>
<trkpt lat="25.174433" lon="110.020599">
<time>2016-10-06T13:56:00Z</time></trkpt>
<trkpt lat="25.174484" lon="110.020539">
<time>2016-10-06T13:56:01Z</time></trkpt>
<trkpt lat="25.174494" lon="110.02052">
<time>2016-10-06T13:56:02Z</time></trkpt>
<trkpt lat="25.174544" lon="110.02034">
<time>2016-10-06T13:56:03Z</time></trkpt>
<trkpt lat="25.174554" lon="110.02025">
<time>2016-10-06T13:56:04Z</time></trkpt>
<trkpt lat="25.174595" lon="110.020141">
<time>2016-10-06T13:56:05Z</time></trkpt>
<trkpt lat="25.174725" lon="110.019931">
<time>2016-10-06T13:56:06Z</time></trkpt>
<trkpt lat="25.175076" lon="110.019582">
<time>2016-10-06T13:56:07Z</time></trkpt>
<trkpt lat="25.175116" lon="110.019532">
<time>2016-10-06T13:56:08Z</time></trkpt>
<trkpt lat="25.175137" lon="110.019483">
<time>2016-10-06T13:56:09Z</time></trkpt>
<trkpt lat="25.175167" lon="110.019393">
<time>2016-10-06T13:56:10Z</time></trkpt>
<trkpt lat="25.175258" lon="110.019014">
<time>2016-10-06T13:56:11Z</time></trkpt>
<trkpt lat="25.175298" lon="110.018865">
<time>2016-10-06T13:56:12Z</time></trkpt>
<trkpt lat="25.175369" lon="110.018715">
<time>2016-10-06T13:56:13Z</time></trkpt>
<trkpt lat="25.175409" lon="110.018645">
<time>2016-10-06T13:56:14Z</time></trkpt>
<trkpt lat="25.175429" lon="110.018565">
<time>2016-10-06T13:56:15Z</time></trkpt>
<trkpt lat="25.175429" lon="110.018565">
<time>2016-10-06T13:56:16Z</time></trkpt>
<trkpt lat="25.175449" lon="110.018565">
<time>2016-10-06T13:56:17Z</time></trkpt>
<trkpt lat="25.175689" lon="110.018585">
<time>2016-10-06T13:56:18Z</time></trkpt>
<trkpt lat="25.175689" lon="110.018585">
<time>2016-10-06T13:56:19Z</time></trkpt>
<trkpt lat="25.17579" lon="110.018406">
<time>2016-10-06T13:56:20Z</time></trkpt>
<trkpt lat="25.17581" lon="110.018356">
<time>2016-10-06T13:56:21Z</time></trkpt>
<trkpt lat="25.17583" lon="110.018306">
<time>2016-10-06T13:56:22Z</time></trkpt>
<trkpt lat="25.17584" lon="110.018216">
<time>2016-10-06T13:56:23Z</time></trkpt>
<trkpt lat="25.17585" lon="110.018087">
<time>2016-10-06T13:56:24Z</time></trkpt>
<trkpt lat="25.175851" lon="110.017947">
<time>2016-10-06T13:56:25Z</time></trkpt>
<trkpt lat="25.175824" lon="110.016751">
<time>2016-10-06T13:56:26Z</time></trkpt>
<trkpt lat="25.175812" lon="110.01401">
<time>2016-10-06T13:56:27Z</time></trkpt>
<trkpt lat="25.175794" lon="110.013232">
<time>2016-10-06T13:56:28Z</time></trkpt>
<trkpt lat="25.175795" lon="110.013122">
<time>2016-10-06T13:56:29Z</time></trkpt>
<trkpt lat="25.175825" lon="110.013073">
<time>2016-10-06T13:56:30Z</time></trkpt>
<trkpt lat="25.175905" lon="110.013053">
<time>2016-10-06T13:56:31Z</time></trkpt>
<trkpt lat="25.176255" lon="110.013083">
<time>2016-10-06T13:56:32Z</time></trkpt>
<trkpt lat="25.176365" lon="110.013083">
<time>2016-10-06T13:56:33Z</time></trkpt>
<trkpt lat="25.176465" lon="110.013073">
<time>2016-10-06T13:56:34Z</time></trkpt>
<trkpt lat="25.176675" lon="110.013063">
<time>2016-10-06T13:56:35Z</time></trkpt>
<trkpt lat="25.176675" lon="110.013063">
<time>2016-10-06T13:56:36Z</time></trkpt>
<trkpt lat="25.176555" lon="110.012983">
<time>2016-10-06T13:56:37Z</time></trkpt>
<trkpt lat="25.176435" lon="110.012893">
<time>2016-10-06T13:56:38Z</time></trkpt>
<trkpt lat="25.176336" lon="110.012823">
<time>2016-10-06T13:56:39Z</time></trkpt>
<trkpt lat="25.176226" lon="110.012724">
<time>2016-10-06T13:56:40Z</time></trkpt>
<trkpt lat="25.176156" lon="110.012634">
<time>2016-10-06T13:56:41Z</time></trkpt>
<trkpt lat="25.176116" lon="110.012584">
<time>2016-10-06T13:56:42Z</time></trkpt>
<trkpt lat="25.176067" lon="110.012484">
<time>2016-10-06T13:56:43Z</time></trkpt>
<trkpt lat="25.176027" lon="110.012395">
<time>2016-10-06T13:56:44Z</time></trkpt>
<trkpt lat="25.175967" lon="110.012255">
<time>2016-10-06T13:56:45Z</time></trkpt>
<trkpt lat="25.175898" lon="110.012046">
<time>2016-10-06T13:56:46Z</time></trkpt>
<trkpt lat="25.175789" lon="110.011787">
<time>2016-10-06T13:56:47Z</time></trkpt>
<trkpt lat="25.175719" lon="110.011637">
<time>2016-10-06T13:56:48Z</time></trkpt>
<trkpt lat="25.175639" lon="110.011518">
<time>2016-10-06T13:56:49Z</time></trkpt>
<trkpt lat="25.17558" lon="110.011438">
<time>2016-10-06T13:56:50Z</time></trkpt>
<trkpt lat="25.17552" lon="110.011378">
<time>2016-10-06T13:56:51Z</time></trkpt>
<trkpt lat="25.17544" lon="110.011318">
<time>2016-10-06T13:56:52Z</time></trkpt>
<trkpt lat="25.17536" lon="110.011268">
<time>2016-10-06T13:56:53Z</time></trkpt>
<trkpt lat="25.17523" lon="110.011219">
<time>2016-10-06T13:56:54Z</time></trkpt>
<trkpt lat="25.17512" lon="110.011189">
<time>2016-10-06T13:56:55Z</time></trkpt>
<trkpt lat="25.174981" lon="110.011159">
<time>2016-10-06T13:56:56Z</time></trkpt>
<trkpt lat="25.174721" lon="110.011139">
<time>2016-10-06T13:56:57Z</time></trkpt>
<trkpt lat="25.174321" lon="110.011139">
<time>2016-10-06T13:56:58Z</time></trkpt>
<trkpt lat="25.174101" lon="110.011109">
<time>2016-10-06T13:56:59Z</time></trkpt>
<trkpt lat="25.173991" lon="110.011089">
<time>2016-10-06T13:57:00Z</time></trkpt>
<trkpt lat="25.173891" lon="110.011069">
<time>2016-10-06T13:57:01Z</time></trkpt>
<trkpt lat="25.173811" lon="110.011039">
<time>2016-10-06T13:57:02Z</time></trkpt>
<trkpt lat="25.173721" lon="110.011009">
<time>2016-10-06T13:57:03Z</time></trkpt>
<trkpt lat="25.173601" lon="110.01095">
<time>2016-10-06T13:57:04Z</time></trkpt>
<trkpt lat="25.173491" lon="110.01088">
<time>2016-10-06T13:57:05Z</time></trkpt>
<trkpt lat="25.173392" lon="110.0108">
<time>2016-10-06T13:57:06Z</time></trkpt>
<trkpt lat="25.173302" lon="110.0107">
<time>2016-10-06T13:57:07Z</time></trkpt>
<trkpt lat="25.173202" lon="110.010581">
<time>2016-10-06T13:57:08Z</time></trkpt>
<trkpt lat="25.173133" lon="110.010481">
<time>2016-10-06T13:57:09Z</time></trkpt>
<trkpt lat="25.173093" lon="110.010411">
<time>2016-10-06T13:57:10Z</time></trkpt>
<trkpt lat="25.173043" lon="110.010332">
<time>2016-10-06T13:57:11Z</time></trkpt>
<trkpt lat="25.173013" lon="110.010252">
<time>2016-10-06T13:57:12Z</time></trkpt>
<trkpt lat="25.173003" lon="110.010242">
<time>2016-10-06T13:57:13Z</time></trkpt>
<trkpt lat="25.172983" lon="110.010182">
<time>2016-10-06T13:57:14Z</time></trkpt>
<trkpt lat="25.172944" lon="110.010072">
<time>2016-10-06T13:57:15Z</time></trkpt>
<trkpt lat="25.172904" lon="110.009953">
<time>2016-10-06T13:57:16Z</time></trkpt>
<trkpt lat="25.172865" lon="110.009793">
<time>2016-10-06T13:57:17Z</time></trkpt>
<trkpt lat="25.172835" lon="110.009614">
<time>2016-10-06T13:57:18Z</time></trkpt>
<trkpt lat="25.172825" lon="110.009534">
<time>2016-10-06T13:57:19Z</time></trkpt>
<trkpt lat="25.172806" lon="110.009424">
<time>2016-10-06T13:57:20Z</time></trkpt>
<trkpt lat="25.172737" lon="110.009046">
<time>2016-10-06T13:57:21Z</time></trkpt>
<trkpt lat="25.172638" lon="110.008567">
<time>2016-10-06T13:57:22Z</time></trkpt>
<trkpt lat="25.172501" lon="110.00779">
<time>2016-10-06T13:57:23Z</time></trkpt>
<trkpt lat="25.172343" lon="110.006893">
<time>2016-10-06T13:57:24Z</time></trkpt>
<trkpt lat="25.172284" lon="110.006554">
<time>2016-10-06T13:57:25Z</time></trkpt>
<trkpt lat="25.172186" lon="110.006016">
<time>2016-10-06T13:57:26Z</time></trkpt>
<trkpt lat="25.172107" lon="110.005587">
<time>2016-10-06T13:57:27Z</time></trkpt>
<trkpt lat="25.172029" lon="110.005148">
<time>2016-10-06T13:57:28Z</time></trkpt>
<trkpt lat="25.17194" lon="110.00469">
<time>2016-10-06T13:57:29Z</time></trkpt>
<trkpt lat="25.171891" lon="110.004371">
<time>2016-10-06T13:57:30Z</time></trkpt>
<trkpt lat="25.171792" lon="110.003843">
<time>2016-10-06T13:57:31Z</time></trkpt>
<trkpt lat="25.171714" lon="110.003374">
<time>2016-10-06T13:57:32Z</time></trkpt>
<trkpt lat="25.171625" lon="110.002876">
<time>2016-10-06T13:57:33Z</time></trkpt>
<trkpt lat="25.171498" lon="110.002148">
<time>2016-10-06T13:57:34Z</time></trkpt>
<trkpt lat="25.171399" lon="110.00161">
<time>2016-10-06T13:57:35Z</time></trkpt>
<trkpt lat="25.171301" lon="110.001132">
<time>2016-10-06T13:57:36Z</time></trkpt>
<trkpt lat="25.171242" lon="110.000813">
<time>2016-10-06T13:57:37Z</time></trkpt>
<trkpt lat="25.171143" lon="110.000324">
<time>2016-10-06T13:57:38Z</time></trkpt>
<trkpt lat="25.171114" lon="110.000145">
<time>2016-10-06T13:57:39Z</time></trkpt>
<trkpt lat="25.171114" lon="110.000135">
<time>2016-10-06T13:57:40Z</time></trkpt>
<trkpt lat="25.171094" lon="110.000005">
<time>2016-10-06T13:57:41Z</time></trkpt>
<trkpt lat="25.171084" lon="109.999985">
<time>2016-10-06T13:57:42Z</time></trkpt>
<trkpt lat="25.171055" lon="109.999756">
<time>2016-10-06T13:57:43Z</time></trkpt>
<trkpt lat="25.171035" lon="109.999657">
<time>2016-10-06T13:57:44Z</time></trkpt>
<trkpt lat="25.171016" lon="109.999417">
<time>2016-10-06T13:57:45Z</time></trkpt>
<trkpt lat="25.171016" lon="109.999228">
<time>2016-10-06T13:57:46Z</time></trkpt>
<trkpt lat="25.171027" lon="109.999059">
<time>2016-10-06T13:57:47Z</time></trkpt>
<trkpt lat="25.171047" lon="109.998939">
<time>2016-10-06T13:57:48Z</time></trkpt>
<trkpt lat="25.171118" lon="109.99868">
<time>2016-10-06T13:57:49Z</time></trkpt>
<trkpt lat="25.17126" lon="109.998162">
<time>2016-10-06T13:57:50Z</time></trkpt>
<trkpt lat="25.171381" lon="109.997723">
<time>2016-10-06T13:57:51Z</time></trkpt>
<trkpt lat="25.171442" lon="109.997524">
<time>2016-10-06T13:57:52Z</time></trkpt>
<trkpt lat="25.171492" lon="109.997284">
<time>2016-10-06T13:57:53Z</time></trkpt>
<trkpt lat="25.171503" lon="109.997205">
<time>2016-10-06T13:57:54Z</time></trkpt>
<trkpt lat="25.171503" lon="109.997145">
<time>2016-10-06T13:57:55Z</time></trkpt>
<trkpt lat="25.171503" lon="109.997005">
<time>2016-10-06T13:57:56Z</time></trkpt>
<trkpt lat="25.171484" lon="109.996826">
<time>2016-10-06T13:57:57Z</time></trkpt>
<trkpt lat="25.171474" lon="109.996726">
<time>2016-10-06T13:57:58Z</time></trkpt>
<trkpt lat="25.171405" lon="109.996367">
<time>2016-10-06T13:57:59Z</time></trkpt>
<trkpt lat="25.171396" lon="109.996238">
<time>2016-10-06T13:58:00Z</time></trkpt>
<trkpt lat="25.171366" lon="109.996058">
<time>2016-10-06T13:58:01Z</time></trkpt>
<trkpt lat="25.171347" lon="109.995919">
<time>2016-10-06T13:58:02Z</time></trkpt>
<trkpt lat="25.171368" lon="109.99559">
<time>2016-10-06T13:58:03Z</time></trkpt>
<trkpt lat="25.171368" lon="109.995421">
<time>2016-10-06T13:58:04Z</time></trkpt>
<trkpt lat="25.171368" lon="109.995281">
<time>2016-10-06T13:58:05Z</time></trkpt>
<trkpt lat="25.171349" lon="109.995022">
<time>2016-10-06T13:58:06Z</time></trkpt>
<trkpt lat="25.17133" lon="109.994833">
<time>2016-10-06T13:58:07Z</time></trkpt>
<trkpt lat="25.1713" lon="109.994623">
<time>2016-10-06T13:58:08Z</time></trkpt>
<trkpt lat="25.171232" lon="109.994294">
<time>2016-10-06T13:58:09Z</time></trkpt>
<trkpt lat="25.171163" lon="109.993866">
<time>2016-10-06T13:58:10Z</time></trkpt>
<trkpt lat="25.171075" lon="109.993178">
<time>2016-10-06T13:58:11Z</time></trkpt>
<trkpt lat="25.171065" lon="109.993118">
<time>2016-10-06T13:58:12Z</time></trkpt>
<trkpt lat="25.171006" lon="109.9927">
<time>2016-10-06T13:58:13Z</time></trkpt>
<trkpt lat="25.170918" lon="109.992301">
<time>2016-10-06T13:58:14Z</time></trkpt>
<trkpt lat="25.170828" lon="109.992002">
<time>2016-10-06T13:58:15Z</time></trkpt>
<trkpt lat="25.170749" lon="109.991753">
<time>2016-10-06T13:58:16Z</time></trkpt>
<trkpt lat="25.17069" lon="109.991593">
<time>2016-10-06T13:58:17Z</time></trkpt>
<trkpt lat="25.170571" lon="109.991304">
<time>2016-10-06T13:58:18Z</time></trkpt>
<trkpt lat="25.170153" lon="109.990477">
<time>2016-10-06T13:58:19Z</time></trkpt>
<trkpt lat="25.169895" lon="109.989949">
<time>2016-10-06T13:58:20Z</time></trkpt>
<trkpt lat="25.169805" lon="109.989759">
<time>2016-10-06T13:58:21Z</time></trkpt>
<trkpt lat="25.169129" lon="109.988454">
<time>2016-10-06T13:58:22Z</time></trkpt>
<trkpt lat="25.168394" lon="109.987009">
<time>2016-10-06T13:58:23Z</time></trkpt>
<trkpt lat="25.167817" lon="109.985862">
<time>2016-10-06T13:58:24Z</time></trkpt>
<trkpt lat="25.167579" lon="109.985304">
<time>2016-10-06T13:58:25Z</time></trkpt>
<trkpt lat="25.167519" lon="109.985145">
<time>2016-10-06T13:58:26Z</time></trkpt>
<trkpt lat="25.16748" lon="109.985005">
<time>2016-10-06T13:58:27Z</time></trkpt>
<trkpt lat="25.16745" lon="109.984796">
<time>2016-10-06T13:58:28Z</time></trkpt>
<trkpt lat="25.167421" lon="109.984626">
<time>2016-10-06T13:58:29Z</time></trkpt>
<trkpt lat="25.167393" lon="109.984078">
<time>2016-10-06T13:58:30Z</time></trkpt>
<trkpt lat="25.167345" lon="109.983271">
<time>2016-10-06T13:58:31Z</time></trkpt>
<trkpt lat="25.167326" lon="109.982882">
<time>2016-10-06T13:58:32Z</time></trkpt>
<trkpt lat="25.167267" lon="109.982523">
<time>2016-10-06T13:58:33Z</time></trkpt>
<trkpt lat="25.167218" lon="109.982284">
<time>2016-10-06T13:58:34Z</time></trkpt>
<trkpt lat="25.167109" lon="109.981925">
<time>2016-10-06T13:58:35Z</time></trkpt>
<trkpt lat="25.166772" lon="109.980839">
<time>2016-10-06T13:58:36Z</time></trkpt>
<trkpt lat="25.166653" lon="109.98045">
<time>2016-10-06T13:58:37Z</time></trkpt>
<trkpt lat="25.166653" lon="109.98044">
<time>2016-10-06T13:58:38Z</time></trkpt>
<trkpt lat="25.166604" lon="109.980271">
<time>2016-10-06T13:58:39Z</time></trkpt>
<trkpt lat="25.165019" lon="109.975057">
<time>2016-10-06T13:58:40Z</time></trkpt>
<trkpt lat="25.164633" lon="109.973771">
<time>2016-10-06T13:58:41Z</time></trkpt>
<trkpt lat="25.164524" lon="109.973402">
<time>2016-10-06T13:58:42Z</time></trkpt>
<trkpt lat="25.164445" lon="109.973103">
<time>2016-10-06T13:58:43Z</time></trkpt>
<trkpt lat="25.164405" lon="109.972884">
<time>2016-10-06T13:58:44Z</time></trkpt>
<trkpt lat="25.164366" lon="109.972575">
<time>2016-10-06T13:58:45Z</time></trkpt>
<trkpt lat="25.164357" lon="109.972385">
<time>2016-10-06T13:58:46Z</time></trkpt>
<trkpt lat="25.164348" lon="109.972136">
<time>2016-10-06T13:58:47Z</time></trkpt>
<trkpt lat="25.164329" lon="109.971638">
<time>2016-10-06T13:58:48Z</time></trkpt>
<trkpt lat="25.164283" lon="109.970172">
<time>2016-10-06T13:58:49Z</time></trkpt>
<trkpt lat="25.164284" lon="109.969873">
<time>2016-10-06T13:58:50Z</time></trkpt>
<trkpt lat="25.164229" lon="109.968078">
<time>2016-10-06T13:58:51Z</time></trkpt>
<trkpt lat="25.164174" lon="109.966164">
<time>2016-10-06T13:58:52Z</time></trkpt>
<trkpt lat="25.164127" lon="109.964888">
<time>2016-10-06T13:58:53Z</time></trkpt>
<trkpt lat="25.164063" lon="109.962674">
<time>2016-10-06T13:58:54Z</time></trkpt>
<trkpt lat="25.16398" lon="109.960101">
<time>2016-10-06T13:58:55Z</time></trkpt>
<trkpt lat="25.163971" lon="109.959852">
<time>2016-10-06T13:58:56Z</time></trkpt>
<trkpt lat="25.163941" lon="109.959682">
<time>2016-10-06T13:58:57Z</time></trkpt>
<trkpt lat="25.163921" lon="109.959573">
<time>2016-10-06T13:58:58Z</time></trkpt>
<trkpt lat="25.163901" lon="109.959483">
<time>2016-10-06T13:58:59Z</time></trkpt>
<trkpt lat="25.163872" lon="109.959393">
<time>2016-10-06T13:59:00Z</time></trkpt>
<trkpt lat="25.163822" lon="109.959294">
<time>2016-10-06T13:59:01Z</time></trkpt>
<trkpt lat="25.163782" lon="109.959234">
<time>2016-10-06T13:59:02Z</time></trkpt>
<trkpt lat="25.163732" lon="109.959164">
<time>2016-10-06T13:59:03Z</time></trkpt>
<trkpt lat="25.163672" lon="109.959104">
<time>2016-10-06T13:59:04Z</time></trkpt>
<trkpt lat="25.163613" lon="109.959054">
<time>2016-10-06T13:59:05Z</time></trkpt>
<trkpt lat="25.163543" lon="109.959004">
<time>2016-10-06T13:59:06Z</time></trkpt>
<trkpt lat="25.163433" lon="109.958935">
<time>2016-10-06T13:59:07Z</time></trkpt>
<trkpt lat="25.163293" lon="109.958875">
<time>2016-10-06T13:59:08Z</time></trkpt>
<trkpt lat="25.163173" lon="109.958835">
<time>2016-10-06T13:59:09Z</time></trkpt>
<trkpt lat="25.161284" lon="109.958406">
<time>2016-10-06T13:59:10Z</time></trkpt>
<trkpt lat="25.160045" lon="109.958117">
<time>2016-10-06T13:59:11Z</time></trkpt>
<trkpt lat="25.159925" lon="109.958087">
<time>2016-10-06T13:59:12Z</time></trkpt>
<trkpt lat="25.159835" lon="109.958067">
<time>2016-10-06T13:59:13Z</time></trkpt>
<trkpt lat="25.159755" lon="109.958067">
<time>2016-10-06T13:59:14Z</time></trkpt>
<trkpt lat="25.159685" lon="109.958067">
<time>2016-10-06T13:59:15Z</time></trkpt>
<trkpt lat="25.159625" lon="109.958077">
<time>2016-10-06T13:59:16Z</time></trkpt>
<trkpt lat="25.159575" lon="109.958087">
<time>2016-10-06T13:59:17Z</time></trkpt>
<trkpt lat="25.159525" lon="109.958107">
<time>2016-10-06T13:59:18Z</time></trkpt>
<trkpt lat="25.159465" lon="109.958147">
<time>2016-10-06T13:59:19Z</time></trkpt>
<trkpt lat="25.159425" lon="109.958187">
<time>2016-10-06T13:59:20Z</time></trkpt>
<trkpt lat="25.159385" lon="109.958237">
<time>2016-10-06T13:59:21Z</time></trkpt>
<trkpt lat="25.159365" lon="109.958287">
<time>2016-10-06T13:59:22Z</time></trkpt>
<trkpt lat="25.159355" lon="109.958356">
<time>2016-10-06T13:59:23Z</time></trkpt>
<trkpt lat="25.159344" lon="109.958416">
<time>2016-10-06T13:59:24Z</time></trkpt>
<trkpt lat="25.159334" lon="109.958516">
<time>2016-10-06T13:59:25Z</time></trkpt>
<trkpt lat="25.159344" lon="109.958626">
<time>2016-10-06T13:59:26Z</time></trkpt>
<trkpt lat="25.159343" lon="109.958825">
<time>2016-10-06T13:59:27Z</time></trkpt>
<trkpt lat="25.159343" lon="109.958935">
<time>2016-10-06T13:59:28Z</time></trkpt>
<trkpt lat="25.159323" lon="109.959035">
<time>2016-10-06T13:59:29Z</time></trkpt>
<trkpt lat="25.159303" lon="109.959124">
<time>2016-10-06T13:59:30Z</time></trkpt>
<trkpt lat="25.159282" lon="109.959184">
<time>2016-10-06T13:59:31Z</time></trkpt>
<trkpt lat="25.159252" lon="109.959254">
<time>2016-10-06T13:59:32Z</time></trkpt>
<trkpt lat="25.159222" lon="109.959304">
<time>2016-10-06T13:59:33Z</time></trkpt>
<trkpt lat="25.159172" lon="109.959364">
<time>2016-10-06T13:59:34Z</time></trkpt>
<trkpt lat="25.159152" lon="109.959394">
<time>2016-10-06T13:59:35Z</time></trkpt>
<trkpt lat="25.159122" lon="109.959414">
<time>2016-10-06T13:59:36Z</time></trkpt>
<trkpt lat="25.159092" lon="109.959433">
<time>2016-10-06T13:59:37Z</time></trkpt>
<trkpt lat="25.159052" lon="109.959453">
<time>2016-10-06T13:59:38Z</time></trkpt>
<trkpt lat="25.159012" lon="109.959463">
<time>2016-10-06T13:59:39Z</time></trkpt>
<trkpt lat="25.158972" lon="109.959473">
<time>2016-10-06T13:59:40Z</time></trkpt>
<trkpt lat="25.158912" lon="109.959463">
<time>2016-10-06T13:59:41Z</time></trkpt>
<trkpt lat="25.158862" lon="109.959443">
<time>2016-10-06T13:59:42Z</time></trkpt>
<trkpt lat="25.158842" lon="109.959424">
<time>2016-10-06T13:59:43Z</time></trkpt>
<trkpt lat="25.158802" lon="109.959394">
<time>2016-10-06T13:59:44Z</time></trkpt>
<trkpt lat="25.158772" lon="109.959354">
<time>2016-10-06T13:59:45Z</time></trkpt>
<trkpt lat="25.158742" lon="109.959294">
<time>2016-10-06T13:59:46Z</time></trkpt>
<trkpt lat="25.158702" lon="109.959224">
<time>2016-10-06T13:59:47Z</time></trkpt>
<trkpt lat="25.158663" lon="109.959114">
<time>2016-10-06T13:59:48Z</time></trkpt>
<trkpt lat="25.158623" lon="109.958985">
<time>2016-10-06T13:59:49Z</time></trkpt>
<trkpt lat="25.158573" lon="109.958845">
<time>2016-10-06T13:59:50Z</time></trkpt>
<trkpt lat="25.158524" lon="109.958725">
<time>2016-10-06T13:59:51Z</time></trkpt>
<trkpt lat="25.158494" lon="109.958646">
<time>2016-10-06T13:59:52Z</time></trkpt>
<trkpt lat="25.158454" lon="109.958566">
<time>2016-10-06T13:59:53Z</time></trkpt>
<trkpt lat="25.158414" lon="109.958486">
<time>2016-10-06T13:59:54Z</time></trkpt>
<trkpt lat="25.158374" lon="109.958436">
<time>2016-10-06T13:59:55Z</time></trkpt>
<trkpt lat="25.158335" lon="109.958396">
<time>2016-10-06T13:59:56Z</time></trkpt>
<trkpt lat="25.158295" lon="109.958356">
<time>2016-10-06T13:59:57Z</time></trkpt>
<trkpt lat="25.158225" lon="109.958317">
<time>2016-10-06T13:59:58Z</time></trkpt>
<trkpt lat="25.158125" lon="109.958257">
<time>2016-10-06T13:59:59Z</time></trkpt>
<trkpt lat="25.157975" lon="109.958187">
<time>2016-10-06T14:00:00Z</time></trkpt>
<trkpt lat="25.157915" lon="109.958167">
<time>2016-10-06T14:00:01Z</time></trkpt>
<trkpt lat="25.157865" lon="109.958147">
<time>2016-10-06T14:00:02Z</time></trkpt>
<trkpt lat="25.157815" lon="109.958147">
<time>2016-10-06T14:00:03Z</time></trkpt>
<trkpt lat="25.157765" lon="109.958157">
<time>2016-10-06T14:00:04Z</time></trkpt>
<trkpt lat="25.157725" lon="109.958167">
<time>2016-10-06T14:00:05Z</time></trkpt>
<trkpt lat="25.157705" lon="109.958167">
<time>2016-10-06T14:00:06Z</time></trkpt>
<trkpt lat="25.157675" lon="109.958187">
<time>2016-10-06T14:00:07Z</time></trkpt>
<trkpt lat="25.157635" lon="109.958217">
<time>2016-10-06T14:00:08Z</time></trkpt>
<trkpt lat="25.157615" lon="109.958237">
<time>2016-10-06T14:00:09Z</time></trkpt>
<trkpt lat="25.157585" lon="109.958277">
<time>2016-10-06T14:00:10Z</time></trkpt>
<trkpt lat="25.157565" lon="109.958327">
<time>2016-10-06T14:00:11Z</time></trkpt>
<trkpt lat="25.157545" lon="109.958376">
<time>2016-10-06T14:00:12Z</time></trkpt>
<trkpt lat="25.157514" lon="109.958466">
<time>2016-10-06T14:00:13Z</time></trkpt>
<trkpt lat="25.157484" lon="109.958556">
<time>2016-10-06T14:00:14Z</time></trkpt>
<trkpt lat="25.157454" lon="109.958636">
<time>2016-10-06T14:00:15Z</time></trkpt>
<trkpt lat="25.157424" lon="109.958696">
<time>2016-10-06T14:00:16Z</time></trkpt>
<trkpt lat="25.157394" lon="109.958726">
<time>2016-10-06T14:00:17Z</time></trkpt>
<trkpt lat="25.157374" lon="109.958735">
<time>2016-10-06T14:00:18Z</time></trkpt>
<trkpt lat="25.157334" lon="109.958755">
<time>2016-10-06T14:00:19Z</time></trkpt>
<trkpt lat="25.157294" lon="109.958765">
<time>2016-10-06T14:00:20Z</time></trkpt>
<trkpt lat="25.157254" lon="109.958775">
<time>2016-10-06T14:00:21Z</time></trkpt>
<trkpt lat="25.157214" lon="109.958765">
<time>2016-10-06T14:00:22Z</time></trkpt>
<trkpt lat="25.157164" lon="109.958765">
<time>2016-10-06T14:00:23Z</time></trkpt>
<trkpt lat="25.157084" lon="109.958735">
<time>2016-10-06T14:00:24Z</time></trkpt>
<trkpt lat="25.156984" lon="109.958686">
<time>2016-10-06T14:00:25Z</time></trkpt>
<trkpt lat="25.156904" lon="109.958646">
<time>2016-10-06T14:00:26Z</time></trkpt>
<trkpt lat="25.156844" lon="109.958616">
<time>2016-10-06T14:00:27Z</time></trkpt>
<trkpt lat="25.156794" lon="109.958566">
<time>2016-10-06T14:00:28Z</time></trkpt>
<trkpt lat="25.156744" lon="109.958526">
<time>2016-10-06T14:00:29Z</time></trkpt>
<trkpt lat="25.156714" lon="109.958476">
<time>2016-10-06T14:00:30Z</time></trkpt>
<trkpt lat="25.156695" lon="109.958436">
<time>2016-10-06T14:00:31Z</time></trkpt>
<trkpt lat="25.156675" lon="109.958386">
<time>2016-10-06T14:00:32Z</time></trkpt>
<trkpt lat="25.156675" lon="109.958327">
<time>2016-10-06T14:00:33Z</time></trkpt>
<trkpt lat="25.156675" lon="109.958257">
<time>2016-10-06T14:00:34Z</time></trkpt>
<trkpt lat="25.156675" lon="109.958157">
<time>2016-10-06T14:00:35Z</time></trkpt>
<trkpt lat="25.156685" lon="109.958057">
<time>2016-10-06T14:00:36Z</time></trkpt>
<trkpt lat="25.156716" lon="109.957748">
<time>2016-10-06T14:00:37Z</time></trkpt>
<trkpt lat="25.156716" lon="109.957688">
<time>2016-10-06T14:00:38Z</time></trkpt>
<trkpt lat="25.156716" lon="109.957638">
<time>2016-10-06T14:00:39Z</time></trkpt>
<trkpt lat="25.156717" lon="109.957579">
<time>2016-10-06T14:00:40Z</time></trkpt>
<trkpt lat="25.156707" lon="109.957529">
<time>2016-10-06T14:00:41Z</time></trkpt>
<trkpt lat="25.156697" lon="109.957489">
<time>2016-10-06T14:00:42Z</time></trkpt>
<trkpt lat="25.156687" lon="109.957459">
<time>2016-10-06T14:00:43Z</time></trkpt>
<trkpt lat="25.156677" lon="109.957449">
<time>2016-10-06T14:00:44Z</time></trkpt>
<trkpt lat="25.156657" lon="109.957419">
<time>2016-10-06T14:00:45Z</time></trkpt>
<trkpt lat="25.156627" lon="109.957389">
<time>2016-10-06T14:00:46Z</time></trkpt>
<trkpt lat="25.156597" lon="109.957369">
<time>2016-10-06T14:00:47Z</time></trkpt>
<trkpt lat="25.156557" lon="109.957349">
<time>2016-10-06T14:00:48Z</time></trkpt>
<trkpt lat="25.156507" lon="109.957339">
<time>2016-10-06T14:00:49Z</time></trkpt>
<trkpt lat="25.156477" lon="109.957339">
<time>2016-10-06T14:00:50Z</time></trkpt>
<trkpt lat="25.156427" lon="109.957339">
<time>2016-10-06T14:00:51Z</time></trkpt>
<trkpt lat="25.156367" lon="109.957349">
<time>2016-10-06T14:00:52Z</time></trkpt>
<trkpt lat="25.156227" lon="109.957379">
<time>2016-10-06T14:00:53Z</time></trkpt>
<trkpt lat="25.156147" lon="109.957409">
<time>2016-10-06T14:00:54Z</time></trkpt>
<trkpt lat="25.156077" lon="109.957439">
<time>2016-10-06T14:00:55Z</time></trkpt>
<trkpt lat="25.156027" lon="109.957459">
<time>2016-10-06T14:00:56Z</time></trkpt>
<trkpt lat="25.155987" lon="109.957479">
<time>2016-10-06T14:00:57Z</time></trkpt>
<trkpt lat="25.155937" lon="109.957519">
<time>2016-10-06T14:00:58Z</time></trkpt>
<trkpt lat="25.155887" lon="109.957569">
<time>2016-10-06T14:00:59Z</time></trkpt>
<trkpt lat="25.155827" lon="109.957639">
<time>2016-10-06T14:01:00Z</time></trkpt>
<trkpt lat="25.155786" lon="109.957708">
<time>2016-10-06T14:01:01Z</time></trkpt>
<trkpt lat="25.155726" lon="109.957798">
<time>2016-10-06T14:01:02Z</time></trkpt>
<trkpt lat="25.155686" lon="109.957868">
<time>2016-10-06T14:01:03Z</time></trkpt>
<trkpt lat="25.155646" lon="109.957908">
<time>2016-10-06T14:01:04Z</time></trkpt>
<trkpt lat="25.155606" lon="109.957948">
<time>2016-10-06T14:01:05Z</time></trkpt>
<trkpt lat="25.155566" lon="109.957988">
<time>2016-10-06T14:01:06Z</time></trkpt>
<trkpt lat="25.155526" lon="109.958018">
<time>2016-10-06T14:01:07Z</time></trkpt>
<trkpt lat="25.155476" lon="109.958037">
<time>2016-10-06T14:01:08Z</time></trkpt>
<trkpt lat="25.155436" lon="109.958047">
<time>2016-10-06T14:01:09Z</time></trkpt>
<trkpt lat="25.155396" lon="109.958057">
<time>2016-10-06T14:01:10Z</time></trkpt>
<trkpt lat="25.155356" lon="109.958067">
<time>2016-10-06T14:01:11Z</time></trkpt>
<trkpt lat="25.155326" lon="109.958067">
<time>2016-10-06T14:01:12Z</time></trkpt>
<trkpt lat="25.155276" lon="109.958057">
<time>2016-10-06T14:01:13Z</time></trkpt>
<trkpt lat="25.155246" lon="109.958047">
<time>2016-10-06T14:01:14Z</time></trkpt>
<trkpt lat="25.155176" lon="109.958028">
<time>2016-10-06T14:01:15Z</time></trkpt>
<trkpt lat="25.155106" lon="109.957998">
<time>2016-10-06T14:01:16Z</time></trkpt>
<trkpt lat="25.155056" lon="109.957968">
<time>2016-10-06T14:01:17Z</time></trkpt>
<trkpt lat="25.154996" lon="109.957938">
<time>2016-10-06T14:01:18Z</time></trkpt>
<trkpt lat="25.154846" lon="109.957828">
<time>2016-10-06T14:01:19Z</time></trkpt>
<trkpt lat="25.154796" lon="109.957808">
<time>2016-10-06T14:01:20Z</time></trkpt>
<trkpt lat="25.154756" lon="109.957788">
<time>2016-10-06T14:01:21Z</time></trkpt>
<trkpt lat="25.154696" lon="109.957768">
<time>2016-10-06T14:01:22Z</time></trkpt>
<trkpt lat="25.154666" lon="109.957758">
<time>2016-10-06T14:01:23Z</time></trkpt>
<trkpt lat="25.154616" lon="109.957758">
<time>2016-10-06T14:01:24Z</time></trkpt>
<trkpt lat="25.154566" lon="109.957768">
<time>2016-10-06T14:01:25Z</time></trkpt>
<trkpt lat="25.154506" lon="109.957778">
<time>2016-10-06T14:01:26Z</time></trkpt>
<trkpt lat="25.154466" lon="109.957798">
<time>2016-10-06T14:01:27Z</time></trkpt>
<trkpt lat="25.154426" lon="109.957808">
<time>2016-10-06T14:01:28Z</time></trkpt>
<trkpt lat="25.154386" lon="109.957848">
<time>2016-10-06T14:01:29Z</time></trkpt>
<trkpt lat="25.154366" lon="109.957878">
<time>2016-10-06T14:01:30Z</time></trkpt>
<trkpt lat="25.154336" lon="109.957918">
<time>2016-10-06T14:01:31Z</time></trkpt>
<trkpt lat="25.154316" lon="109.957948">
<time>2016-10-06T14:01:32Z</time></trkpt>
<trkpt lat="25.154296" lon="109.957988">
<time>2016-10-06T14:01:33Z</time></trkpt>
<trkpt lat="25.154286" lon="109.958048">
<time>2016-10-06T14:01:34Z</time></trkpt>
<trkpt lat="25.154265" lon="109.958117">
<time>2016-10-06T14:01:35Z</time></trkpt>
<trkpt lat="25.154245" lon="109.958207">
<time>2016-10-06T14:01:36Z</time></trkpt>
<trkpt lat="25.154235" lon="109.958247">
<time>2016-10-06T14:01:37Z</time></trkpt>
<trkpt lat="25.154215" lon="109.958287">
<time>2016-10-06T14:01:38Z</time></trkpt>
<trkpt lat="25.154205" lon="109.958327">
<time>2016-10-06T14:01:39Z</time></trkpt>
<trkpt lat="25.154185" lon="109.958367">
<time>2016-10-06T14:01:40Z</time></trkpt>
<trkpt lat="25.154145" lon="109.958407">
<time>2016-10-06T14:01:41Z</time></trkpt>
<trkpt lat="25.154115" lon="109.958427">
<time>2016-10-06T14:01:42Z</time></trkpt>
<trkpt lat="25.154085" lon="109.958446">
<time>2016-10-06T14:01:43Z</time></trkpt>
<trkpt lat="25.154035" lon="109.958466">
<time>2016-10-06T14:01:44Z</time></trkpt>
<trkpt lat="25.153995" lon="109.958476">
<time>2016-10-06T14:01:45Z</time></trkpt>
<trkpt lat="25.153955" lon="109.958476">
<time>2016-10-06T14:01:46Z</time></trkpt>
<trkpt lat="25.153905" lon="109.958476">
<time>2016-10-06T14:01:47Z</time></trkpt>
<trkpt lat="25.153875" lon="109.958466">
<time>2016-10-06T14:01:48Z</time></trkpt>
<trkpt lat="25.153835" lon="109.958446">
<time>2016-10-06T14:01:49Z</time></trkpt>
<trkpt lat="25.153795" lon="109.958427">
<time>2016-10-06T14:01:50Z</time></trkpt>
<trkpt lat="25.153765" lon="109.958407">
<time>2016-10-06T14:01:51Z</time></trkpt>
<trkpt lat="25.153745" lon="109.958387">
<time>2016-10-06T14:01:52Z</time></trkpt>
<trkpt lat="25.153715" lon="109.958357">
<time>2016-10-06T14:01:53Z</time></trkpt>
<trkpt lat="25.153695" lon="109.958327">
<time>2016-10-06T14:01:54Z</time></trkpt>
<trkpt lat="25.153675" lon="109.958277">
<time>2016-10-06T14:01:55Z</time></trkpt>
<trkpt lat="25.153645" lon="109.958207">
<time>2016-10-06T14:01:56Z</time></trkpt>
<trkpt lat="25.153606" lon="109.958117">
<time>2016-10-06T14:01:57Z</time></trkpt>
<trkpt lat="25.153596" lon="109.958058">
<time>2016-10-06T14:01:58Z</time></trkpt>
<trkpt lat="25.153576" lon="109.958018">
<time>2016-10-06T14:01:59Z</time></trkpt>
<trkpt lat="25.153546" lon="109.957978">
<time>2016-10-06T14:02:00Z</time></trkpt>
<trkpt lat="25.153526" lon="109.957938">
<time>2016-10-06T14:02:01Z</time></trkpt>
<trkpt lat="25.153486" lon="109.957908">
<time>2016-10-06T14:02:02Z</time></trkpt>
<trkpt lat="25.153456" lon="109.957878">
<time>2016-10-06T14:02:03Z</time></trkpt>
<trkpt lat="25.153426" lon="109.957858">
<time>2016-10-06T14:02:04Z</time></trkpt>
<trkpt lat="25.153396" lon="109.957848">
<time>2016-10-06T14:02:05Z</time></trkpt>
<trkpt lat="25.153356" lon="109.957838">
<time>2016-10-06T14:02:06Z</time></trkpt>
<trkpt lat="25.153306" lon="109.957828">
<time>2016-10-06T14:02:07Z</time></trkpt>
<trkpt lat="25.153276" lon="109.957828">
<time>2016-10-06T14:02:08Z</time></trkpt>
<trkpt lat="25.153226" lon="109.957828">
<time>2016-10-06T14:02:09Z</time></trkpt>
<trkpt lat="25.153146" lon="109.957848">
<time>2016-10-06T14:02:10Z</time></trkpt>
<trkpt lat="25.153096" lon="109.957858">
<time>2016-10-06T14:02:11Z</time></trkpt>
<trkpt lat="25.153026" lon="109.957878">
<time>2016-10-06T14:02:12Z</time></trkpt>
<trkpt lat="25.152976" lon="109.957888">
<time>2016-10-06T14:02:13Z</time></trkpt>
<trkpt lat="25.152926" lon="109.957908">
<time>2016-10-06T14:02:14Z</time></trkpt>
<trkpt lat="25.152896" lon="109.957908">
<time>2016-10-06T14:02:15Z</time></trkpt>
<trkpt lat="25.152876" lon="109.957908">
<time>2016-10-06T14:02:16Z</time></trkpt>
<trkpt lat="25.152846" lon="109.957908">
<time>2016-10-06T14:02:17Z</time></trkpt>
<trkpt lat="25.152816" lon="109.957908">
<time>2016-10-06T14:02:18Z</time></trkpt>
<trkpt lat="25.152786" lon="109.957898">
<time>2016-10-06T14:02:19Z</time></trkpt>
<trkpt lat="25.152756" lon="109.957888">
<time>2016-10-06T14:02:20Z</time></trkpt>
<trkpt lat="25.152726" lon="109.957868">
<time>2016-10-06T14:02:21Z</time></trkpt>
<trkpt lat="25.152686" lon="109.957828">
<time>2016-10-06T14:02:22Z</time></trkpt>
<trkpt lat="25.152656" lon="109.957798">
<time>2016-10-06T14:02:23Z</time></trkpt>
<trkpt lat="25.152626" lon="109.957758">
<time>2016-10-06T14:02:24Z</time></trkpt>
<trkpt lat="25.152607" lon="109.957709">
<time>2016-10-06T14:02:25Z</time></trkpt>
<trkpt lat="25.152587" lon="109.957659">
<time>2016-10-06T14:02:26Z</time></trkpt>
<trkpt lat="25.152567" lon="109.957589">
<time>2016-10-06T14:02:27Z</time></trkpt>
<trkpt lat="25.152547" lon="109.957509">
<time>2016-10-06T14:02:28Z</time></trkpt>
<trkpt lat="25.152537" lon="109.957439">
<time>2016-10-06T14:02:29Z</time></trkpt>
<trkpt lat="25.152547" lon="109.957399">
<time>2016-10-06T14:02:30Z</time></trkpt>
<trkpt lat="25.152557" lon="109.95734">
<time>2016-10-06T14:02:31Z</time></trkpt>
<trkpt lat="25.152568" lon="109.95729">
<time>2016-10-06T14:02:32Z</time></trkpt>
<trkpt lat="25.152588" lon="109.95723">
<time>2016-10-06T14:02:33Z</time></trkpt>
<trkpt lat="25.152618" lon="109.95719">
<time>2016-10-06T14:02:34Z</time></trkpt>
<trkpt lat="25.152648" lon="109.95715">
<time>2016-10-06T14:02:35Z</time></trkpt>
<trkpt lat="25.152678" lon="109.95711">
<time>2016-10-06T14:02:36Z</time></trkpt>
<trkpt lat="25.152708" lon="109.95707">
<time>2016-10-06T14:02:37Z</time></trkpt>
<trkpt lat="25.152738" lon="109.95706">
<time>2016-10-06T14:02:38Z</time></trkpt>
<trkpt lat="25.152768" lon="109.95703">
<time>2016-10-06T14:02:39Z</time></trkpt>
<trkpt lat="25.152808" lon="109.95701">
<time>2016-10-06T14:02:40Z</time></trkpt>
<trkpt lat="25.152838" lon="109.957">
<time>2016-10-06T14:02:41Z</time></trkpt>
<trkpt lat="25.152888" lon="109.957">
<time>2016-10-06T14:02:42Z</time></trkpt>
<trkpt lat="25.152938" lon="109.957">
<time>2016-10-06T14:02:43Z</time></trkpt>
<trkpt lat="25.152978" lon="109.95701">
<time>2016-10-06T14:02:44Z</time></trkpt>
<trkpt lat="25.153018" lon="109.95702">
<time>2016-10-06T14:02:45Z</time></trkpt>
<trkpt lat="25.153058" lon="109.95704">
<time>2016-10-06T14:02:46Z</time></trkpt>
<trkpt lat="25.153118" lon="109.95707">
<time>2016-10-06T14:02:47Z</time></trkpt>
<trkpt lat="25.153218" lon="109.95713">
<time>2016-10-06T14:02:48Z</time></trkpt>
<trkpt lat="25.153298" lon="109.95717">
<time>2016-10-06T14:02:49Z</time></trkpt>
<trkpt lat="25.153348" lon="109.95719">
<time>2016-10-06T14:02:50Z</time></trkpt>
<trkpt lat="25.153388" lon="109.9572">
<time>2016-10-06T14:02:51Z</time></trkpt>
<trkpt lat="25.153418" lon="109.95721">
<time>2016-10-06T14:02:52Z</time></trkpt>
<trkpt lat="25.153448" lon="109.95721">
<time>2016-10-06T14:02:53Z</time></trkpt>
<trkpt lat="25.153468" lon="109.95721">
<time>2016-10-06T14:02:54Z</time></trkpt>
<trkpt lat="25.153498" lon="109.95721">
<time>2016-10-06T14:02:55Z</time></trkpt>
<trkpt lat="25.153528" lon="109.9572">
<time>2016-10-06T14:02:56Z</time></trkpt>
<trkpt lat="25.153558" lon="109.9572">
<time>2016-10-06T14:02:57Z</time></trkpt>
<trkpt lat="25.153578" lon="109.95718">
<time>2016-10-06T14:02:58Z</time></trkpt>
<trkpt lat="25.153598" lon="109.95717">
<time>2016-10-06T14:02:59Z</time></trkpt>
<trkpt lat="25.153628" lon="109.95715">
<time>2016-10-06T14:03:00Z</time></trkpt>
<trkpt lat="25.153648" lon="109.95713">
<time>2016-10-06T14:03:01Z</time></trkpt>
<trkpt lat="25.153668" lon="109.9571">
<time>2016-10-06T14:03:02Z</time></trkpt>
<trkpt lat="25.153688" lon="109.95707">
<time>2016-10-06T14:03:03Z</time></trkpt>
<trkpt lat="25.153698" lon="109.95705">
<time>2016-10-06T14:03:04Z</time></trkpt>
<trkpt lat="25.153708" lon="109.95702">
<time>2016-10-06T14:03:05Z</time></trkpt>
<trkpt lat="25.153718" lon="109.95698">
<time>2016-10-06T14:03:06Z</time></trkpt>
<trkpt lat="25.153728" lon="109.95695">
<time>2016-10-06T14:03:07Z</time></trkpt>
<trkpt lat="25.153728" lon="109.956911">
<time>2016-10-06T14:03:08Z</time></trkpt>
<trkpt lat="25.153729" lon="109.956851">
<time>2016-10-06T14:03:09Z</time></trkpt>
<trkpt lat="25.153729" lon="109.956811">
<time>2016-10-06T14:03:10Z</time></trkpt>
<trkpt lat="25.153719" lon="109.956751">
<time>2016-10-06T14:03:11Z</time></trkpt>
<trkpt lat="25.153709" lon="109.956631">
<time>2016-10-06T14:03:12Z</time></trkpt>
<trkpt lat="25.153699" lon="109.956562">
<time>2016-10-06T14:03:13Z</time></trkpt>
<trkpt lat="25.153699" lon="109.956512">
<time>2016-10-06T14:03:14Z</time></trkpt>
<trkpt lat="25.1537" lon="109.956452">
<time>2016-10-06T14:03:15Z</time></trkpt>
<trkpt lat="25.15371" lon="109.956412">
<time>2016-10-06T14:03:16Z</time></trkpt>
<trkpt lat="25.15372" lon="109.956362">
<time>2016-10-06T14:03:17Z</time></trkpt>
<trkpt lat="25.15373" lon="109.956322">
<time>2016-10-06T14:03:18Z</time></trkpt>
<trkpt lat="25.15375" lon="109.956272">
<time>2016-10-06T14:03:19Z</time></trkpt>
<trkpt lat="25.15377" lon="109.956232">
<time>2016-10-06T14:03:20Z</time></trkpt>
<trkpt lat="25.15379" lon="109.956202">
<time>2016-10-06T14:03:21Z</time></trkpt>
<trkpt lat="25.15383" lon="109.956153">
<time>2016-10-06T14:03:22Z</time></trkpt>
<trkpt lat="25.15385" lon="109.956133">
<time>2016-10-06T14:03:23Z</time></trkpt>
<trkpt lat="25.15387" lon="109.956103">
<time>2016-10-06T14:03:24Z</time></trkpt>
<trkpt lat="25.153911" lon="109.956053">
<time>2016-10-06T14:03:25Z</time></trkpt>
<trkpt lat="25.153961" lon="109.956013">
<time>2016-10-06T14:03:26Z</time></trkpt>
<trkpt lat="25.154061" lon="109.955903">
<time>2016-10-06T14:03:27Z</time></trkpt>
<trkpt lat="25.154171" lon="109.955813">
<time>2016-10-06T14:03:28Z</time></trkpt>
<trkpt lat="25.154251" lon="109.955744">
<time>2016-10-06T14:03:29Z</time></trkpt>
<trkpt lat="25.154311" lon="109.955694">
<time>2016-10-06T14:03:30Z</time></trkpt>
<trkpt lat="25.154371" lon="109.955654">
<time>2016-10-06T14:03:31Z</time></trkpt>
<trkpt lat="25.154412" lon="109.955624">
<time>2016-10-06T14:03:32Z</time></trkpt>
<trkpt lat="25.154442" lon="109.955594">
<time>2016-10-06T14:03:33Z</time></trkpt>
<trkpt lat="25.154472" lon="109.955564">
<time>2016-10-06T14:03:34Z</time></trkpt>
<trkpt lat="25.154492" lon="109.955534">
<time>2016-10-06T14:03:35Z</time></trkpt>
<trkpt lat="25.154512" lon="109.955514">
<time>2016-10-06T14:03:36Z</time></trkpt>
<trkpt lat="25.154532" lon="109.955484">
<time>2016-10-06T14:03:37Z</time></trkpt>
<trkpt lat="25.154542" lon="109.955454">
<time>2016-10-06T14:03:38Z</time></trkpt>
<trkpt lat="25.154552" lon="109.955434">
<time>2016-10-06T14:03:39Z</time></trkpt>
<trkpt lat="25.154552" lon="109.955395">
<time>2016-10-06T14:03:40Z</time></trkpt>
<trkpt lat="25.154562" lon="109.955345">
<time>2016-10-06T14:03:41Z</time></trkpt>
<trkpt lat="25.154562" lon="109.955295">
<time>2016-10-06T14:03:42Z</time></trkpt>
<trkpt lat="25.154552" lon="109.955255">
<time>2016-10-06T14:03:43Z</time></trkpt>
<trkpt lat="25.154543" lon="109.955215">
<time>2016-10-06T14:03:44Z</time></trkpt>
<trkpt lat="25.154533" lon="109.955175">
<time>2016-10-06T14:03:45Z</time></trkpt>
<trkpt lat="25.154503" lon="109.955125">
<time>2016-10-06T14:03:46Z</time></trkpt>
<trkpt lat="25.154473" lon="109.955075">
<time>2016-10-06T14:03:47Z</time></trkpt>
<trkpt lat="25.154423" lon="109.955006">
<time>2016-10-06T14:03:48Z</time></trkpt>
<trkpt lat="25.154234" lon="109.954776">
<time>2016-10-06T14:03:49Z</time></trkpt>
<trkpt lat="25.154044" lon="109.954527">
<time>2016-10-06T14:03:50Z</time></trkpt>
<trkpt lat="25.153974" lon="109.954427">
<time>2016-10-06T14:03:51Z</time></trkpt>
<trkpt lat="25.153945" lon="109.954367">
<time>2016-10-06T14:03:52Z</time></trkpt>
<trkpt lat="25.153925" lon="109.954307">
<time>2016-10-06T14:03:53Z</time></trkpt>
<trkpt lat="25.153915" lon="109.954257">
<time>2016-10-06T14:03:54Z</time></trkpt>
<trkpt lat="25.153915" lon="109.954208">
<time>2016-10-06T14:03:55Z</time></trkpt>
<trkpt lat="25.153915" lon="109.954148">
<time>2016-10-06T14:03:56Z</time></trkpt>
<trkpt lat="25.153935" lon="109.954108">
<time>2016-10-06T14:03:57Z</time></trkpt>
<trkpt lat="25.153955" lon="109.954078">
<time>2016-10-06T14:03:58Z</time></trkpt>
<trkpt lat="25.153985" lon="109.954048">
<time>2016-10-06T14:03:59Z</time></trkpt>
<trkpt lat="25.154015" lon="109.954028">
<time>2016-10-06T14:04:00Z</time></trkpt>
<trkpt lat="25.154045" lon="109.954008">
<time>2016-10-06T14:04:01Z</time></trkpt>
<trkpt lat="25.154095" lon="109.953988">
<time>2016-10-06T14:04:02Z</time></trkpt>
<trkpt lat="25.154135" lon="109.953978">
<time>2016-10-06T14:04:03Z</time></trkpt>
<trkpt lat="25.154216" lon="109.953948">
<time>2016-10-06T14:04:04Z</time></trkpt>
<trkpt lat="25.154316" lon="109.953918">
<time>2016-10-06T14:04:05Z</time></trkpt>
<trkpt lat="25.154476" lon="109.953878">
<time>2016-10-06T14:04:06Z</time></trkpt>
<trkpt lat="25.154546" lon="109.953848">
<time>2016-10-06T14:04:07Z</time></trkpt>
<trkpt lat="25.154626" lon="109.953829">
<time>2016-10-06T14:04:08Z</time></trkpt>
<trkpt lat="25.154676" lon="109.953809">
<time>2016-10-06T14:04:09Z</time></trkpt>
<trkpt lat="25.154706" lon="109.953789">
<time>2016-10-06T14:04:10Z</time></trkpt>
<trkpt lat="25.154746" lon="109.953759">
<time>2016-10-06T14:04:11Z</time></trkpt>
<trkpt lat="25.154806" lon="109.953729">
<time>2016-10-06T14:04:12Z</time></trkpt>
<trkpt lat="25.155026" lon="109.953589">
<time>2016-10-06T14:04:13Z</time></trkpt>
<trkpt lat="25.155136" lon="109.953529">
<time>2016-10-06T14:04:14Z</time></trkpt>
<trkpt lat="25.155217" lon="109.953489">
<time>2016-10-06T14:04:15Z</time></trkpt>
<trkpt lat="25.155297" lon="109.953449">
<time>2016-10-06T14:04:16Z</time></trkpt>
<trkpt lat="25.155407" lon="109.95341">
<time>2016-10-06T14:04:17Z</time></trkpt>
<trkpt lat="25.155737" lon="109.9533">
<time>2016-10-06T14:04:18Z</time></trkpt>
<trkpt lat="25.155827" lon="109.95327">
<time>2016-10-06T14:04:19Z</time></trkpt>
<trkpt lat="25.155887" lon="109.95326">
<time>2016-10-06T14:04:20Z</time></trkpt>
<trkpt lat="25.155937" lon="109.95326">
<time>2016-10-06T14:04:21Z</time></trkpt>
<trkpt lat="25.155987" lon="109.95325">
<time>2016-10-06T14:04:22Z</time></trkpt>
<trkpt lat="25.156037" lon="109.95326">
<time>2016-10-06T14:04:23Z</time></trkpt>
<trkpt lat="25.156087" lon="109.95326">
<time>2016-10-06T14:04:24Z</time></trkpt>
<trkpt lat="25.156147" lon="109.95328">
<time>2016-10-06T14:04:25Z</time></trkpt>
<trkpt lat="25.156197" lon="109.9533">
<time>2016-10-06T14:04:26Z</time></trkpt>
<trkpt lat="25.156237" lon="109.95332">
<time>2016-10-06T14:04:27Z</time></trkpt>
<trkpt lat="25.156277" lon="109.95334">
<time>2016-10-06T14:04:28Z</time></trkpt>
<trkpt lat="25.156327" lon="109.95337">
<time>2016-10-06T14:04:29Z</time></trkpt>
<trkpt lat="25.156367" lon="109.9534">
<time>2016-10-06T14:04:30Z</time></trkpt>
<trkpt lat="25.156407" lon="109.953439">
<time>2016-10-06T14:04:31Z</time></trkpt>
<trkpt lat="25.156456" lon="109.953489">
<time>2016-10-06T14:04:32Z</time></trkpt>
<trkpt lat="25.156516" lon="109.953559">
<time>2016-10-06T14:04:33Z</time></trkpt>
<trkpt lat="25.156636" lon="109.953719">
<time>2016-10-06T14:04:34Z</time></trkpt>
<trkpt lat="25.156676" lon="109.953769">
<time>2016-10-06T14:04:35Z</time></trkpt>
<trkpt lat="25.156726" lon="109.953818">
<time>2016-10-06T14:04:36Z</time></trkpt>
<trkpt lat="25.156766" lon="109.953848">
<time>2016-10-06T14:04:37Z</time></trkpt>
<trkpt lat="25.156806" lon="109.953868">
<time>2016-10-06T14:04:38Z</time></trkpt>
<trkpt lat="25.156855" lon="109.953898">
<time>2016-10-06T14:04:39Z</time></trkpt>
<trkpt lat="25.156905" lon="109.953918">
<time>2016-10-06T14:04:40Z</time></trkpt>
<trkpt lat="25.156975" lon="109.953928">
<time>2016-10-06T14:04:41Z</time></trkpt>
<trkpt lat="25.157035" lon="109.953938">
<time>2016-10-06T14:04:42Z</time></trkpt>
<trkpt lat="25.157095" lon="109.953928">
<time>2016-10-06T14:04:43Z</time></trkpt>
<trkpt lat="25.157145" lon="109.953928">
<time>2016-10-06T14:04:44Z</time></trkpt>
<trkpt lat="25.157225" lon="109.953908">
<time>2016-10-06T14:04:45Z</time></trkpt>
<trkpt lat="25.157275" lon="109.953888">
<time>2016-10-06T14:04:46Z</time></trkpt>
<trkpt lat="25.157326" lon="109.953858">
<time>2016-10-06T14:04:47Z</time></trkpt>
<trkpt lat="25.157386" lon="109.953818">
<time>2016-10-06T14:04:48Z</time></trkpt>
<trkpt lat="25.157426" lon="109.953778">
<time>2016-10-06T14:04:49Z</time></trkpt>
<trkpt lat="25.157456" lon="109.953739">
<time>2016-10-06T14:04:50Z</time></trkpt>
<trkpt lat="25.157486" lon="109.953709">
<time>2016-10-06T14:04:51Z</time></trkpt>
<trkpt lat="25.157506" lon="109.953669">
<time>2016-10-06T14:04:52Z</time></trkpt>
<trkpt lat="25.157526" lon="109.953629">
<time>2016-10-06T14:04:53Z</time></trkpt>
<trkpt lat="25.157546" lon="109.953569">
<time>2016-10-06T14:04:54Z</time></trkpt>
<trkpt lat="25.157556" lon="109.953529">
<time>2016-10-06T14:04:55Z</time></trkpt>
<trkpt lat="25.157566" lon="109.953469">
<time>2016-10-06T14:04:56Z</time></trkpt>
<trkpt lat="25.157587" lon="109.95337">
<time>2016-10-06T14:04:57Z</time></trkpt>
<trkpt lat="25.157597" lon="109.95327">
<time>2016-10-06T14:04:58Z</time></trkpt>
<trkpt lat="25.157617" lon="109.9532">
<time>2016-10-06T14:04:59Z</time></trkpt>
<trkpt lat="25.157627" lon="109.95315">
<time>2016-10-06T14:05:00Z</time></trkpt>
<trkpt lat="25.157647" lon="109.9531">
<time>2016-10-06T14:05:01Z</time></trkpt>
<trkpt lat="25.157677" lon="109.95306">
<time>2016-10-06T14:05:02Z</time></trkpt>
<trkpt lat="25.157697" lon="109.95304">
<time>2016-10-06T14:05:03Z</time></trkpt>
<trkpt lat="25.157717" lon="109.95302">
<time>2016-10-06T14:05:04Z</time></trkpt>
<trkpt lat="25.157758" lon="109.95299">
<time>2016-10-06T14:05:05Z</time></trkpt>
<trkpt lat="25.157808" lon="109.952961">
<time>2016-10-06T14:05:06Z</time></trkpt>
<trkpt lat="25.157858" lon="109.952931">
<time>2016-10-06T14:05:07Z</time></trkpt>
<trkpt lat="25.157928" lon="109.952901">
<time>2016-10-06T14:05:08Z</time></trkpt>
<trkpt lat="25.158208" lon="109.952781">
<time>2016-10-06T14:05:09Z</time></trkpt>
<trkpt lat="25.158338" lon="109.952711">
<time>2016-10-06T14:05:10Z</time></trkpt>
<trkpt lat="25.158388" lon="109.952681">
<time>2016-10-06T14:05:11Z</time></trkpt>
<trkpt lat="25.158428" lon="109.952651">
<time>2016-10-06T14:05:12Z</time></trkpt>
<trkpt lat="25.158458" lon="109.952631">
<time>2016-10-06T14:05:13Z</time></trkpt>
<trkpt lat="25.158478" lon="109.952601">
<time>2016-10-06T14:05:14Z</time></trkpt>
<trkpt lat="25.158498" lon="109.952561">
<time>2016-10-06T14:05:15Z</time></trkpt>
<trkpt lat="25.158509" lon="109.952542">
<time>2016-10-06T14:05:16Z</time></trkpt>
<trkpt lat="25.158519" lon="109.952502">
<time>2016-10-06T14:05:17Z</time></trkpt>
<trkpt lat="25.158529" lon="109.952462">
<time>2016-10-06T14:05:18Z</time></trkpt>
<trkpt lat="25.158529" lon="109.952432">
<time>2016-10-06T14:05:19Z</time></trkpt>
<trkpt lat="25.158519" lon="109.952382">
<time>2016-10-06T14:05:20Z</time></trkpt>
<trkpt lat="25.158499" lon="109.952352">
<time>2016-10-06T14:05:21Z</time></trkpt>
<trkpt lat="25.158479" lon="109.952322">
<time>2016-10-06T14:05:22Z</time></trkpt>
<trkpt lat="25.158459" lon="109.952282">
<time>2016-10-06T14:05:23Z</time></trkpt>
<trkpt lat="25.158439" lon="109.952252">
<time>2016-10-06T14:05:24Z</time></trkpt>
<trkpt lat="25.158369" lon="109.952202">
<time>2016-10-06T14:05:25Z</time></trkpt>
<trkpt lat="25.15821" lon="109.952083">
<time>2016-10-06T14:05:26Z</time></trkpt>
<trkpt lat="25.15815" lon="109.952043">
<time>2016-10-06T14:05:27Z</time></trkpt>
<trkpt lat="25.15812" lon="109.952003">
<time>2016-10-06T14:05:28Z</time></trkpt>
<trkpt lat="25.1581" lon="109.951983">
<time>2016-10-06T14:05:29Z</time></trkpt>
<trkpt lat="25.15807" lon="109.951943">
<time>2016-10-06T14:05:30Z</time></trkpt>
<trkpt lat="25.15806" lon="109.951903">
<time>2016-10-06T14:05:31Z</time></trkpt>
<trkpt lat="25.15805" lon="109.951863">
<time>2016-10-06T14:05:32Z</time></trkpt>
<trkpt lat="25.15804" lon="109.951833">
<time>2016-10-06T14:05:33Z</time></trkpt>
<trkpt lat="25.15803" lon="109.951783">
<time>2016-10-06T14:05:34Z</time></trkpt>
<trkpt lat="25.158031" lon="109.951684">
<time>2016-10-06T14:05:35Z</time></trkpt>
<trkpt lat="25.158031" lon="109.951574">
<time>2016-10-06T14:05:36Z</time></trkpt>
<trkpt lat="25.158021" lon="109.951534">
<time>2016-10-06T14:05:37Z</time></trkpt>
<trkpt lat="25.158011" lon="109.951494">
<time>2016-10-06T14:05:38Z</time></trkpt>
<trkpt lat="25.158001" lon="109.951454">
<time>2016-10-06T14:05:39Z</time></trkpt>
<trkpt lat="25.157981" lon="109.951424">
<time>2016-10-06T14:05:40Z</time></trkpt>
<trkpt lat="25.157971" lon="109.951394">
<time>2016-10-06T14:05:41Z</time></trkpt>
<trkpt lat="25.157951" lon="109.951374">
<time>2016-10-06T14:05:42Z</time></trkpt>
<trkpt lat="25.157931" lon="109.951345">
<time>2016-10-06T14:05:43Z</time></trkpt>
<trkpt lat="25.157901" lon="109.951335">
<time>2016-10-06T14:05:44Z</time></trkpt>
<trkpt lat="25.157861" lon="109.951305">
<time>2016-10-06T14:05:45Z</time></trkpt>
<trkpt lat="25.157801" lon="109.951275">
<time>2016-10-06T14:05:46Z</time></trkpt>
<trkpt lat="25.157682" lon="109.951225">
<time>2016-10-06T14:05:47Z</time></trkpt>
<trkpt lat="25.157622" lon="109.951195">
<time>2016-10-06T14:05:48Z</time></trkpt>
<trkpt lat="25.157582" lon="109.951165">
<time>2016-10-06T14:05:49Z</time></trkpt>
<trkpt lat="25.157562" lon="109.951135">
<time>2016-10-06T14:05:50Z</time></trkpt>
<trkpt lat="25.157542" lon="109.951105">
<time>2016-10-06T14:05:51Z</time></trkpt>
<trkpt lat="25.157532" lon="109.951075">
<time>2016-10-06T14:05:52Z</time></trkpt>
<trkpt lat="25.157522" lon="109.951055">
<time>2016-10-06T14:05:53Z</time></trkpt>
<trkpt lat="25.157522" lon="109.951015">
<time>2016-10-06T14:05:54Z</time></trkpt>
<trkpt lat="25.157522" lon="109.950966">
<time>2016-10-06T14:05:55Z</time></trkpt>
<trkpt lat="25.157542" lon="109.950916">
<time>2016-10-06T14:05:56Z</time></trkpt>
<trkpt lat="25.157562" lon="109.950876">
<time>2016-10-06T14:05:57Z</time></trkpt>
<trkpt lat="25.157582" lon="109.950846">
<time>2016-10-06T14:05:58Z</time></trkpt>
<trkpt lat="25.157613" lon="109.950806">
<time>2016-10-06T14:05:59Z</time></trkpt>
<trkpt lat="25.157653" lon="109.950756">
<time>2016-10-06T14:06:00Z</time></trkpt>
<trkpt lat="25.157923" lon="109.950467">
<time>2016-10-06T14:06:01Z</time></trkpt>
<trkpt lat="25.158084" lon="109.950297">
<time>2016-10-06T14:06:02Z</time></trkpt>
<trkpt lat="25.158154" lon="109.950237">
<time>2016-10-06T14:06:03Z</time></trkpt>
<trkpt lat="25.158204" lon="109.950197">
<time>2016-10-06T14:06:04Z</time></trkpt>
<trkpt lat="25.158264" lon="109.950147">
<time>2016-10-06T14:06:05Z</time></trkpt>
<trkpt lat="25.158324" lon="109.950118">
<time>2016-10-06T14:06:06Z</time></trkpt>
<trkpt lat="25.158374" lon="109.950088">
<time>2016-10-06T14:06:07Z</time></trkpt>
<trkpt lat="25.158444" lon="109.950058">
<time>2016-10-06T14:06:08Z</time></trkpt>
<trkpt lat="25.158514" lon="109.950038">
<time>2016-10-06T14:06:09Z</time></trkpt>
<trkpt lat="25.158584" lon="109.950008">
<time>2016-10-06T14:06:10Z</time></trkpt>
<trkpt lat="25.158624" lon="109.949988">
<time>2016-10-06T14:06:11Z</time></trkpt>
<trkpt lat="25.158654" lon="109.949968">
<time>2016-10-06T14:06:12Z</time></trkpt>
<trkpt lat="25.158674" lon="109.949938">
<time>2016-10-06T14:06:13Z</time></trkpt>
<trkpt lat="25.158694" lon="109.949918">
<time>2016-10-06T14:06:14Z</time></trkpt>
<trkpt lat="25.158715" lon="109.949888">
<time>2016-10-06T14:06:15Z</time></trkpt>
<trkpt lat="25.158725" lon="109.949858">
<time>2016-10-06T14:06:16Z</time></trkpt>
<trkpt lat="25.158735" lon="109.949828">
<time>2016-10-06T14:06:17Z</time></trkpt>
<trkpt lat="25.158735" lon="109.949798">
<time>2016-10-06T14:06:18Z</time></trkpt>
<trkpt lat="25.158735" lon="109.949758">
<time>2016-10-06T14:06:19Z</time></trkpt>
<trkpt lat="25.158735" lon="109.949718">
<time>2016-10-06T14:06:20Z</time></trkpt>
<trkpt lat="25.158725" lon="109.949679">
<time>2016-10-06T14:06:21Z</time></trkpt>
<trkpt lat="25.158705" lon="109.949649">
<time>2016-10-06T14:06:22Z</time></trkpt>
<trkpt lat="25.158675" lon="109.949589">
<time>2016-10-06T14:06:23Z</time></trkpt>
<trkpt lat="25.158635" lon="109.949519">
<time>2016-10-06T14:06:24Z</time></trkpt>
<trkpt lat="25.158606" lon="109.949449">
<time>2016-10-06T14:06:25Z</time></trkpt>
<trkpt lat="25.158586" lon="109.949409">
<time>2016-10-06T14:06:26Z</time></trkpt>
<trkpt lat="25.158576" lon="109.949349">
<time>2016-10-06T14:06:27Z</time></trkpt>
<trkpt lat="25.158566" lon="109.949299">
<time>2016-10-06T14:06:28Z</time></trkpt>
<trkpt lat="25.158556" lon="109.94924">
<time>2016-10-06T14:06:29Z</time></trkpt>
<trkpt lat="25.158566" lon="109.94918">
<time>2016-10-06T14:06:30Z</time></trkpt>
<trkpt lat="25.158566" lon="109.94913">
<time>2016-10-06T14:06:31Z</time></trkpt>
<trkpt lat="25.158576" lon="109.94908">
<time>2016-10-06T14:06:32Z</time></trkpt>
<trkpt lat="25.158596" lon="109.94902">
<time>2016-10-06T14:06:33Z</time></trkpt>
<trkpt lat="25.158617" lon="109.94897">
<time>2016-10-06T14:06:34Z</time></trkpt>
<trkpt lat="25.158627" lon="109.94894">
<time>2016-10-06T14:06:35Z</time></trkpt>
<trkpt lat="25.158657" lon="109.94891">
<time>2016-10-06T14:06:36Z</time></trkpt>
<trkpt lat="25.158677" lon="109.94887">
<time>2016-10-06T14:06:37Z</time></trkpt>
<trkpt lat="25.158717" lon="109.948841">
<time>2016-10-06T14:06:38Z</time></trkpt>
<trkpt lat="25.158757" lon="109.948821">
<time>2016-10-06T14:06:39Z</time></trkpt>
<trkpt lat="25.158787" lon="109.948811">
<time>2016-10-06T14:06:40Z</time></trkpt>
<trkpt lat="25.158827" lon="109.948801">
<time>2016-10-06T14:06:41Z</time></trkpt>
<trkpt lat="25.158867" lon="109.948791">
<time>2016-10-06T14:06:42Z</time></trkpt>
<trkpt lat="25.158937" lon="109.948791">
<time>2016-10-06T14:06:43Z</time></trkpt>
<trkpt lat="25.159007" lon="109.948791">
<time>2016-10-06T14:06:44Z</time></trkpt>
<trkpt lat="25.159097" lon="109.948801">
<time>2016-10-06T14:06:45Z</time></trkpt>
<trkpt lat="25.159187" lon="109.948821">
<time>2016-10-06T14:06:46Z</time></trkpt>
<trkpt lat="25.159267" lon="109.948841">
<time>2016-10-06T14:06:47Z</time></trkpt>
<trkpt lat="25.159317" lon="109.94886">
<time>2016-10-06T14:06:48Z</time></trkpt>
<trkpt lat="25.159477" lon="109.94891">
<time>2016-10-06T14:06:49Z</time></trkpt>
<trkpt lat="25.159527" lon="109.94893">
<time>2016-10-06T14:06:50Z</time></trkpt>
<trkpt lat="25.159577" lon="109.94894">
<time>2016-10-06T14:06:51Z</time></trkpt>
<trkpt lat="25.159627" lon="109.94895">
<time>2016-10-06T14:06:52Z</time></trkpt>
<trkpt lat="25.159677" lon="109.94895">
<time>2016-10-06T14:06:53Z</time></trkpt>
<trkpt lat="25.159707" lon="109.94894">
<time>2016-10-06T14:06:54Z</time></trkpt>
<trkpt lat="25.159737" lon="109.94893">
<time>2016-10-06T14:06:55Z</time></trkpt>
<trkpt lat="25.159767" lon="109.94891">
<time>2016-10-06T14:06:56Z</time></trkpt>
<trkpt lat="25.159797" lon="109.94889">
<time>2016-10-06T14:06:57Z</time></trkpt>
<trkpt lat="25.159817" lon="109.94887">
<time>2016-10-06T14:06:58Z</time></trkpt>
<trkpt lat="25.159837" lon="109.94885">
<time>2016-10-06T14:06:59Z</time></trkpt>
<trkpt lat="25.159847" lon="109.948821">
<time>2016-10-06T14:07:00Z</time></trkpt>
<trkpt lat="25.159867" lon="109.948791">
<time>2016-10-06T14:07:01Z</time></trkpt>
<trkpt lat="25.159867" lon="109.948751">
<time>2016-10-06T14:07:02Z</time></trkpt>
<trkpt lat="25.159877" lon="109.948711">
<time>2016-10-06T14:07:03Z</time></trkpt>
<trkpt lat="25.159877" lon="109.948661">
<time>2016-10-06T14:07:04Z</time></trkpt>
<trkpt lat="25.159867" lon="109.948611">
<time>2016-10-06T14:07:05Z</time></trkpt>
<trkpt lat="25.159847" lon="109.948571">
<time>2016-10-06T14:07:06Z</time></trkpt>
<trkpt lat="25.159817" lon="109.948511">
<time>2016-10-06T14:07:07Z</time></trkpt>
<trkpt lat="25.159778" lon="109.948451">
<time>2016-10-06T14:07:08Z</time></trkpt>
<trkpt lat="25.159648" lon="109.948292">
<time>2016-10-06T14:07:09Z</time></trkpt>
<trkpt lat="25.159568" lon="109.948182">
<time>2016-10-06T14:07:10Z</time></trkpt>
<trkpt lat="25.159518" lon="109.948092">
<time>2016-10-06T14:07:11Z</time></trkpt>
<trkpt lat="25.159489" lon="109.948042">
<time>2016-10-06T14:07:12Z</time></trkpt>
<trkpt lat="25.159479" lon="109.947992">
<time>2016-10-06T14:07:13Z</time></trkpt>
<trkpt lat="25.159459" lon="109.947953">
<time>2016-10-06T14:07:14Z</time></trkpt>
<trkpt lat="25.159459" lon="109.947903">
<time>2016-10-06T14:07:15Z</time></trkpt>
<trkpt lat="25.159459" lon="109.947843">
<time>2016-10-06T14:07:16Z</time></trkpt>
<trkpt lat="25.159459" lon="109.947813">
<time>2016-10-06T14:07:17Z</time></trkpt>
<trkpt lat="25.159469" lon="109.947753">
<time>2016-10-06T14:07:18Z</time></trkpt>
<trkpt lat="25.159489" lon="109.947703">
<time>2016-10-06T14:07:19Z</time></trkpt>
<trkpt lat="25.159519" lon="109.947633">
<time>2016-10-06T14:07:20Z</time></trkpt>
<trkpt lat="25.15956" lon="109.947553">
<time>2016-10-06T14:07:21Z</time></trkpt>
<trkpt lat="25.15978" lon="109.947154">
<time>2016-10-06T14:07:22Z</time></trkpt>
<trkpt lat="25.159791" lon="109.947105">
<time>2016-10-06T14:07:23Z</time></trkpt>
<trkpt lat="25.159801" lon="109.947075">
<time>2016-10-06T14:07:24Z</time></trkpt>
<trkpt lat="25.159801" lon="109.947035">
<time>2016-10-06T14:07:25Z</time></trkpt>
<trkpt lat="25.159801" lon="109.947005">
<time>2016-10-06T14:07:26Z</time></trkpt>
<trkpt lat="25.159801" lon="109.946965">
<time>2016-10-06T14:07:27Z</time></trkpt>
<trkpt lat="25.159791" lon="109.946935">
<time>2016-10-06T14:07:28Z</time></trkpt>
<trkpt lat="25.159781" lon="109.946895">
<time>2016-10-06T14:07:29Z</time></trkpt>
<trkpt lat="25.159771" lon="109.946875">
<time>2016-10-06T14:07:30Z</time></trkpt>
<trkpt lat="25.159751" lon="109.946845">
<time>2016-10-06T14:07:31Z</time></trkpt>
<trkpt lat="25.159731" lon="109.946815">
<time>2016-10-06T14:07:32Z</time></trkpt>
<trkpt lat="25.159711" lon="109.946795">
<time>2016-10-06T14:07:33Z</time></trkpt>
<trkpt lat="25.159681" lon="109.946765">
<time>2016-10-06T14:07:34Z</time></trkpt>
<trkpt lat="25.159641" lon="109.946745">
<time>2016-10-06T14:07:35Z</time></trkpt>
<trkpt lat="25.159591" lon="109.946725">
<time>2016-10-06T14:07:36Z</time></trkpt>
<trkpt lat="25.159531" lon="109.946695">
<time>2016-10-06T14:07:37Z</time></trkpt>
<trkpt lat="25.159451" lon="109.946685">
<time>2016-10-06T14:07:38Z</time></trkpt>
<trkpt lat="25.159391" lon="109.946666">
<time>2016-10-06T14:07:39Z</time></trkpt>
<trkpt lat="25.159351" lon="109.946656">
<time>2016-10-06T14:07:40Z</time></trkpt>
<trkpt lat="25.159302" lon="109.946636">
<time>2016-10-06T14:07:41Z</time></trkpt>
<trkpt lat="25.159262" lon="109.946626">
<time>2016-10-06T14:07:42Z</time></trkpt>
<trkpt lat="25.159232" lon="109.946596">
<time>2016-10-06T14:07:43Z</time></trkpt>
<trkpt lat="25.159202" lon="109.946576">
<time>2016-10-06T14:07:44Z</time></trkpt>
<trkpt lat="25.159182" lon="109.946536">
<time>2016-10-06T14:07:45Z</time></trkpt>
<trkpt lat="25.159162" lon="109.946516">
<time>2016-10-06T14:07:46Z</time></trkpt>
<trkpt lat="25.159152" lon="109.946476">
<time>2016-10-06T14:07:47Z</time></trkpt>
<trkpt lat="25.159142" lon="109.946446">
<time>2016-10-06T14:07:48Z</time></trkpt>
<trkpt lat="25.159142" lon="109.946396">
<time>2016-10-06T14:07:49Z</time></trkpt>
<trkpt lat="25.159152" lon="109.946356">
<time>2016-10-06T14:07:50Z</time></trkpt>
<trkpt lat="25.159162" lon="109.946306">
<time>2016-10-06T14:07:51Z</time></trkpt>
<trkpt lat="25.159182" lon="109.946266">
<time>2016-10-06T14:07:52Z</time></trkpt>
<trkpt lat="25.159202" lon="109.946227">
<time>2016-10-06T14:07:53Z</time></trkpt>
<trkpt lat="25.159232" lon="109.946197">
<time>2016-10-06T14:07:54Z</time></trkpt>
<trkpt lat="25.159263" lon="109.946157">
<time>2016-10-06T14:07:55Z</time></trkpt>
<trkpt lat="25.159323" lon="109.946107">
<time>2016-10-06T14:07:56Z</time></trkpt>
<trkpt lat="25.159403" lon="109.946037">
<time>2016-10-06T14:07:57Z</time></trkpt>
<trkpt lat="25.159663" lon="109.945847">
<time>2016-10-06T14:07:58Z</time></trkpt>
<trkpt lat="25.159703" lon="109.945807">
<time>2016-10-06T14:07:59Z</time></trkpt>
<trkpt lat="25.159753" lon="109.945768">
<time>2016-10-06T14:08:00Z</time></trkpt>
<trkpt lat="25.159783" lon="109.945718">
<time>2016-10-06T14:08:01Z</time></trkpt>
<trkpt lat="25.159813" lon="109.945678">
<time>2016-10-06T14:08:02Z</time></trkpt>
<trkpt lat="25.159824" lon="109.945638">
<time>2016-10-06T14:08:03Z</time></trkpt>
<trkpt lat="25.159844" lon="109.945588">
<time>2016-10-06T14:08:04Z</time></trkpt>
<trkpt lat="25.159854" lon="109.945518">
<time>2016-10-06T14:08:05Z</time></trkpt>
<trkpt lat="25.159864" lon="109.945438">
<time>2016-10-06T14:08:06Z</time></trkpt>
<trkpt lat="25.159874" lon="109.945368">
<time>2016-10-06T14:08:07Z</time></trkpt>
<trkpt lat="25.159874" lon="109.945249">
<time>2016-10-06T14:08:08Z</time></trkpt>
<trkpt lat="25.159875" lon="109.944969">
<time>2016-10-06T14:08:09Z</time></trkpt>
<trkpt lat="25.159875" lon="109.94486">
<time>2016-10-06T14:08:10Z</time></trkpt>
<trkpt lat="25.159865" lon="109.94479">
<time>2016-10-06T14:08:11Z</time></trkpt>
<trkpt lat="25.159865" lon="109.94472">
<time>2016-10-06T14:08:12Z</time></trkpt>
<trkpt lat="25.159846" lon="109.94466">
<time>2016-10-06T14:08:13Z</time></trkpt>
<trkpt lat="25.159836" lon="109.9446">
<time>2016-10-06T14:08:14Z</time></trkpt>
<trkpt lat="25.159826" lon="109.94455">
<time>2016-10-06T14:08:15Z</time></trkpt>
<trkpt lat="25.159806" lon="109.94449">
<time>2016-10-06T14:08:16Z</time></trkpt>
<trkpt lat="25.159776" lon="109.944411">
<time>2016-10-06T14:08:17Z</time></trkpt>
<trkpt lat="25.159716" lon="109.944281">
<time>2016-10-06T14:08:18Z</time></trkpt>
<trkpt lat="25.159637" lon="109.944101">
<time>2016-10-06T14:08:19Z</time></trkpt>
<trkpt lat="25.159557" lon="109.943922">
<time>2016-10-06T14:08:20Z</time></trkpt>
<trkpt lat="25.159458" lon="109.943712">
<time>2016-10-06T14:08:21Z</time></trkpt>
<trkpt lat="25.159418" lon="109.943612">
<time>2016-10-06T14:08:22Z</time></trkpt>
<trkpt lat="25.159388" lon="109.943562">
<time>2016-10-06T14:08:23Z</time></trkpt>
<trkpt lat="25.159368" lon="109.943503">
<time>2016-10-06T14:08:24Z</time></trkpt>
<trkpt lat="25.159358" lon="109.943463">
<time>2016-10-06T14:08:25Z</time></trkpt>
<trkpt lat="25.159348" lon="109.943413">
<time>2016-10-06T14:08:26Z</time></trkpt>
<trkpt lat="25.159328" lon="109.943363">
<time>2016-10-06T14:08:27Z</time></trkpt>
<trkpt lat="25.159328" lon="109.943323">
<time>2016-10-06T14:08:28Z</time></trkpt>
<trkpt lat="25.159318" lon="109.943283">
<time>2016-10-06T14:08:29Z</time></trkpt>
<trkpt lat="25.159318" lon="109.943223">
<time>2016-10-06T14:08:30Z</time></trkpt>
<trkpt lat="25.159319" lon="109.943173">
<time>2016-10-06T14:08:31Z</time></trkpt>
<trkpt lat="25.159319" lon="109.943133">
<time>2016-10-06T14:08:32Z</time></trkpt>
<trkpt lat="25.159329" lon="109.943093">
<time>2016-10-06T14:08:33Z</time></trkpt>
<trkpt lat="25.159339" lon="109.943054">
<time>2016-10-06T14:08:34Z</time></trkpt>
<trkpt lat="25.159349" lon="109.943014">
<time>2016-10-06T14:08:35Z</time></trkpt>
<trkpt lat="25.159359" lon="109.942974">
<time>2016-10-06T14:08:36Z</time></trkpt>
<trkpt lat="25.159379" lon="109.942884">
<time>2016-10-06T14:08:37Z</time></trkpt>
<trkpt lat="25.159399" lon="109.942834">
<time>2016-10-06T14:08:38Z</time></trkpt>
<trkpt lat="25.159399" lon="109.942784">
<time>2016-10-06T14:08:39Z</time></trkpt>
<trkpt lat="25.159409" lon="109.942734">
<time>2016-10-06T14:08:40Z</time></trkpt>
<trkpt lat="25.15941" lon="109.942684">
<time>2016-10-06T14:08:41Z</time></trkpt>
<trkpt lat="25.1594" lon="109.942624">
<time>2016-10-06T14:08:42Z</time></trkpt>
<trkpt lat="25.15939" lon="109.942575">
<time>2016-10-06T14:08:43Z</time></trkpt>
<trkpt lat="25.15937" lon="109.942505">
<time>2016-10-06T14:08:44Z</time></trkpt>
<trkpt lat="25.15935" lon="109.942425">
<time>2016-10-06T14:08:45Z</time></trkpt>
<trkpt lat="25.15932" lon="109.942365">
<time>2016-10-06T14:08:46Z</time></trkpt>
<trkpt lat="25.15928" lon="109.942285">
<time>2016-10-06T14:08:47Z</time></trkpt>
<trkpt lat="25.159221" lon="109.942165">
<time>2016-10-06T14:08:48Z</time></trkpt>
<trkpt lat="25.159201" lon="109.942116">
<time>2016-10-06T14:08:49Z</time></trkpt>
<trkpt lat="25.159181" lon="109.942076">
<time>2016-10-06T14:08:50Z</time></trkpt>
<trkpt lat="25.159171" lon="109.942036">
<time>2016-10-06T14:08:51Z</time></trkpt>
<trkpt lat="25.159171" lon="109.941996">
<time>2016-10-06T14:08:52Z</time></trkpt>
<trkpt lat="25.159181" lon="109.941946">
<time>2016-10-06T14:08:53Z</time></trkpt>
<trkpt lat="25.159191" lon="109.941896">
<time>2016-10-06T14:08:54Z</time></trkpt>
<trkpt lat="25.159201" lon="109.941856">
<time>2016-10-06T14:08:55Z</time></trkpt>
<trkpt lat="25.159211" lon="109.941826">
<time>2016-10-06T14:08:56Z</time></trkpt>
<trkpt lat="25.159231" lon="109.941786">
<time>2016-10-06T14:08:57Z</time></trkpt>
<trkpt lat="25.159251" lon="109.941756">
<time>2016-10-06T14:08:58Z</time></trkpt>
<trkpt lat="25.159271" lon="109.941726">
<time>2016-10-06T14:08:59Z</time></trkpt>
<trkpt lat="25.159301" lon="109.941706">
<time>2016-10-06T14:09:00Z</time></trkpt>
<trkpt lat="25.159331" lon="109.941686">
<time>2016-10-06T14:09:01Z</time></trkpt>
<trkpt lat="25.159372" lon="109.941666">
<time>2016-10-06T14:09:02Z</time></trkpt>
<trkpt lat="25.159412" lon="109.941646">
<time>2016-10-06T14:09:03Z</time></trkpt>
<trkpt lat="25.159452" lon="109.941636">
<time>2016-10-06T14:09:04Z</time></trkpt>
<trkpt lat="25.159492" lon="109.941627">
<time>2016-10-06T14:09:05Z</time></trkpt>
<trkpt lat="25.159522" lon="109.941627">
<time>2016-10-06T14:09:06Z</time></trkpt>
<trkpt lat="25.159562" lon="109.941627">
<time>2016-10-06T14:09:07Z</time></trkpt>
<trkpt lat="25.159622" lon="109.941617">
<time>2016-10-06T14:09:08Z</time></trkpt>
<trkpt lat="25.159682" lon="109.941626">
<time>2016-10-06T14:09:09Z</time></trkpt>
<trkpt lat="25.159852" lon="109.941626">
<time>2016-10-06T14:09:10Z</time></trkpt>
<trkpt lat="25.160182" lon="109.941646">
<time>2016-10-06T14:09:11Z</time></trkpt>
<trkpt lat="25.160381" lon="109.941646">
<time>2016-10-06T14:09:12Z</time></trkpt>
<trkpt lat="25.160441" lon="109.941646">
<time>2016-10-06T14:09:13Z</time></trkpt>
<trkpt lat="25.160481" lon="109.941646">
<time>2016-10-06T14:09:14Z</time></trkpt>
<trkpt lat="25.160522" lon="109.941636">
<time>2016-10-06T14:09:15Z</time></trkpt>
<trkpt lat="25.160562" lon="109.941626">
<time>2016-10-06T14:09:16Z</time></trkpt>
<trkpt lat="25.160582" lon="109.941606">
<time>2016-10-06T14:09:17Z</time></trkpt>
<trkpt lat="25.160612" lon="109.941596">
<time>2016-10-06T14:09:18Z</time></trkpt>
<trkpt lat="25.160632" lon="109.941577">
<time>2016-10-06T14:09:19Z</time></trkpt>
<trkpt lat="25.160672" lon="109.941547">
<time>2016-10-06T14:09:20Z</time></trkpt>
<trkpt lat="25.160692" lon="109.941507">
<time>2016-10-06T14:09:21Z</time></trkpt>
<trkpt lat="25.160712" lon="109.941477">
<time>2016-10-06T14:09:22Z</time></trkpt>
<trkpt lat="25.160722" lon="109.941447">
<time>2016-10-06T14:09:23Z</time></trkpt>
<trkpt lat="25.160742" lon="109.941407">
<time>2016-10-06T14:09:24Z</time></trkpt>
<trkpt lat="25.160752" lon="109.941377">
<time>2016-10-06T14:09:25Z</time></trkpt>
<trkpt lat="25.160762" lon="109.941337">
<time>2016-10-06T14:09:26Z</time></trkpt>
<trkpt lat="25.160792" lon="109.941247">
<time>2016-10-06T14:09:27Z</time></trkpt>
<trkpt lat="25.160802" lon="109.941207">
<time>2016-10-06T14:09:28Z</time></trkpt>
<trkpt lat="25.160822" lon="109.941177">
<time>2016-10-06T14:09:29Z</time></trkpt>
<trkpt lat="25.160842" lon="109.941147">
<time>2016-10-06T14:09:30Z</time></trkpt>
<trkpt lat="25.160862" lon="109.941117">
<time>2016-10-06T14:09:31Z</time></trkpt>
<trkpt lat="25.160893" lon="109.941098">
<time>2016-10-06T14:09:32Z</time></trkpt>
<trkpt lat="25.160913" lon="109.941078">
<time>2016-10-06T14:09:33Z</time></trkpt>
<trkpt lat="25.160943" lon="109.941058">
<time>2016-10-06T14:09:34Z</time></trkpt>
<trkpt lat="25.160993" lon="109.941038">
<time>2016-10-06T14:09:35Z</time></trkpt>
<trkpt lat="25.161063" lon="109.941018">
<time>2016-10-06T14:09:36Z</time></trkpt>
<trkpt lat="25.161103" lon="109.941008">
<time>2016-10-06T14:09:37Z</time></trkpt>
<trkpt lat="25.161123" lon="109.940998">
<time>2016-10-06T14:09:38Z</time></trkpt>
<trkpt lat="25.161153" lon="109.940978">
<time>2016-10-06T14:09:39Z</time></trkpt>
<trkpt lat="25.161183" lon="109.940948">
<time>2016-10-06T14:09:40Z</time></trkpt>
<trkpt lat="25.161213" lon="109.940918">
<time>2016-10-06T14:09:41Z</time></trkpt>
<trkpt lat="25.161233" lon="109.940898">
<time>2016-10-06T14:09:42Z</time></trkpt>
<trkpt lat="25.161253" lon="109.940868">
<time>2016-10-06T14:09:43Z</time></trkpt>
<trkpt lat="25.161273" lon="109.940828">
<time>2016-10-06T14:09:44Z</time></trkpt>
<trkpt lat="25.161293" lon="109.940778">
<time>2016-10-06T14:09:45Z</time></trkpt>
<trkpt lat="25.161313" lon="109.940738">
<time>2016-10-06T14:09:46Z</time></trkpt>
<trkpt lat="25.161323" lon="109.940688">
<time>2016-10-06T14:09:47Z</time></trkpt>
<trkpt lat="25.161353" lon="109.940599">
<time>2016-10-06T14:09:48Z</time></trkpt>
<trkpt lat="25.161404" lon="109.940429">
<time>2016-10-06T14:09:49Z</time></trkpt>
<trkpt lat="25.161464" lon="109.940239">
<time>2016-10-06T14:09:50Z</time></trkpt>
<trkpt lat="25.161504" lon="109.940149">
<time>2016-10-06T14:09:51Z</time></trkpt>
<trkpt lat="25.161514" lon="109.9401">
<time>2016-10-06T14:09:52Z</time></trkpt>
<trkpt lat="25.161544" lon="109.94006">
<time>2016-10-06T14:09:53Z</time></trkpt>
<trkpt lat="25.161565" lon="109.94001">
<time>2016-10-06T14:09:54Z</time></trkpt>
<trkpt lat="25.161595" lon="109.93998">
<time>2016-10-06T14:09:55Z</time></trkpt>
<trkpt lat="25.161615" lon="109.93996">
<time>2016-10-06T14:09:56Z</time></trkpt>
<trkpt lat="25.161645" lon="109.93994">
<time>2016-10-06T14:09:57Z</time></trkpt>
<trkpt lat="25.161675" lon="109.93993">
<time>2016-10-06T14:09:58Z</time></trkpt>
<trkpt lat="25.161705" lon="109.93992">
<time>2016-10-06T14:09:59Z</time></trkpt>
<trkpt lat="25.161735" lon="109.93992">
<time>2016-10-06T14:10:00Z</time></trkpt>
<trkpt lat="25.161765" lon="109.93992">
<time>2016-10-06T14:10:01Z</time></trkpt>
<trkpt lat="25.161785" lon="109.93993">
<time>2016-10-06T14:10:02Z</time></trkpt>
<trkpt lat="25.161815" lon="109.93993">
<time>2016-10-06T14:10:03Z</time></trkpt>
<trkpt lat="25.161845" lon="109.93995">
<time>2016-10-06T14:10:04Z</time></trkpt>
<trkpt lat="25.161865" lon="109.93996">
<time>2016-10-06T14:10:05Z</time></trkpt>
<trkpt lat="25.161905" lon="109.93999">
<time>2016-10-06T14:10:06Z</time></trkpt>
<trkpt lat="25.161944" lon="109.94003">
<time>2016-10-06T14:10:07Z</time></trkpt>
<trkpt lat="25.161994" lon="109.94008">
<time>2016-10-06T14:10:08Z</time></trkpt>
<trkpt lat="25.162074" lon="109.940149">
<time>2016-10-06T14:10:09Z</time></trkpt>
<trkpt lat="25.162124" lon="109.940189">
<time>2016-10-06T14:10:10Z</time></trkpt>
<trkpt lat="25.162174" lon="109.940219">
<time>2016-10-06T14:10:11Z</time></trkpt>
<trkpt lat="25.162224" lon="109.940249">
<time>2016-10-06T14:10:12Z</time></trkpt>
<trkpt lat="25.162274" lon="109.940269">
<time>2016-10-06T14:10:13Z</time></trkpt>
<trkpt lat="25.162314" lon="109.940279">
<time>2016-10-06T14:10:14Z</time></trkpt>
<trkpt lat="25.162364" lon="109.940289">
<time>2016-10-06T14:10:15Z</time></trkpt>
<trkpt lat="25.162414" lon="109.940299">
<time>2016-10-06T14:10:16Z</time></trkpt>
<trkpt lat="25.162454" lon="109.940309">
<time>2016-10-06T14:10:17Z</time></trkpt>
<trkpt lat="25.162504" lon="109.940309">
<time>2016-10-06T14:10:18Z</time></trkpt>
<trkpt lat="25.162634" lon="109.940319">
<time>2016-10-06T14:10:19Z</time></trkpt>
<trkpt lat="25.162754" lon="109.940329">
<time>2016-10-06T14:10:20Z</time></trkpt>
<trkpt lat="25.162804" lon="109.940329">
<time>2016-10-06T14:10:21Z</time></trkpt>
<trkpt lat="25.162854" lon="109.940339">
<time>2016-10-06T14:10:22Z</time></trkpt>
<trkpt lat="25.162904" lon="109.940359">
<time>2016-10-06T14:10:23Z</time></trkpt>
<trkpt lat="25.162954" lon="109.940369">
<time>2016-10-06T14:10:24Z</time></trkpt>
<trkpt lat="25.163014" lon="109.940399">
<time>2016-10-06T14:10:25Z</time></trkpt>
<trkpt lat="25.163124" lon="109.940439">
<time>2016-10-06T14:10:26Z</time></trkpt>
<trkpt lat="25.163204" lon="109.940469">
<time>2016-10-06T14:10:27Z</time></trkpt>
<trkpt lat="25.163244" lon="109.940479">
<time>2016-10-06T14:10:28Z</time></trkpt>
<trkpt lat="25.163284" lon="109.940489">
<time>2016-10-06T14:10:29Z</time></trkpt>
<trkpt lat="25.163353" lon="109.940509">
<time>2016-10-06T14:10:30Z</time></trkpt>
<trkpt lat="25.163403" lon="109.940519">
<time>2016-10-06T14:10:31Z</time></trkpt>
<trkpt lat="25.163483" lon="109.940529">
<time>2016-10-06T14:10:32Z</time></trkpt>
<trkpt lat="25.163613" lon="109.940548">
<time>2016-10-06T14:10:33Z</time></trkpt>
<trkpt lat="25.163673" lon="109.940568">
<time>2016-10-06T14:10:34Z</time></trkpt>
<trkpt lat="25.163703" lon="109.940568">
<time>2016-10-06T14:10:35Z</time></trkpt>
<trkpt lat="25.163743" lon="109.940588">
<time>2016-10-06T14:10:36Z</time></trkpt>
<trkpt lat="25.163773" lon="109.940598">
<time>2016-10-06T14:10:37Z</time></trkpt>
<trkpt lat="25.163793" lon="109.940618">
<time>2016-10-06T14:10:38Z</time></trkpt>
<trkpt lat="25.163813" lon="109.940638">
<time>2016-10-06T14:10:39Z</time></trkpt>
<trkpt lat="25.163833" lon="109.940658">
<time>2016-10-06T14:10:40Z</time></trkpt>
<trkpt lat="25.163853" lon="109.940678">
<time>2016-10-06T14:10:41Z</time></trkpt>
<trkpt lat="25.163873" lon="109.940718">
<time>2016-10-06T14:10:42Z</time></trkpt>
<trkpt lat="25.163883" lon="109.940758">
<time>2016-10-06T14:10:43Z</time></trkpt>
<trkpt lat="25.163893" lon="109.940798">
<time>2016-10-06T14:10:44Z</time></trkpt>
<trkpt lat="25.163903" lon="109.940838">
<time>2016-10-06T14:10:45Z</time></trkpt>
<trkpt lat="25.163913" lon="109.940888">
<time>2016-10-06T14:10:46Z</time></trkpt>
<trkpt lat="25.163913" lon="109.940948">
<time>2016-10-06T14:10:47Z</time></trkpt>
<trkpt lat="25.163932" lon="109.941067">
<time>2016-10-06T14:10:48Z</time></trkpt>
<trkpt lat="25.163952" lon="109.941207">
<time>2016-10-06T14:10:49Z</time></trkpt>
<trkpt lat="25.163972" lon="109.941297">
<time>2016-10-06T14:10:50Z</time></trkpt>
<trkpt lat="25.163982" lon="109.941367">
<time>2016-10-06T14:10:51Z</time></trkpt>
<trkpt lat="25.163992" lon="109.941427">
<time>2016-10-06T14:10:52Z</time></trkpt>
<trkpt lat="25.163992" lon="109.941467">
<time>2016-10-06T14:10:53Z</time></trkpt>
<trkpt lat="25.163992" lon="109.941506">
<time>2016-10-06T14:10:54Z</time></trkpt>
<trkpt lat="25.163992" lon="109.941526">
<time>2016-10-06T14:10:55Z</time></trkpt>
<trkpt lat="25.163981" lon="109.941556">
<time>2016-10-06T14:10:56Z</time></trkpt>
<trkpt lat="25.163971" lon="109.941586">
<time>2016-10-06T14:10:57Z</time></trkpt>
<trkpt lat="25.163961" lon="109.941616">
<time>2016-10-06T14:10:58Z</time></trkpt>
<trkpt lat="25.163931" lon="109.941646">
<time>2016-10-06T14:10:59Z</time></trkpt>
<trkpt lat="25.163911" lon="109.941666">
<time>2016-10-06T14:11:00Z</time></trkpt>
<trkpt lat="25.163881" lon="109.941686">
<time>2016-10-06T14:11:01Z</time></trkpt>
<trkpt lat="25.163841" lon="109.941696">
<time>2016-10-06T14:11:02Z</time></trkpt>
<trkpt lat="25.163811" lon="109.941706">
<time>2016-10-06T14:11:03Z</time></trkpt>
<trkpt lat="25.163761" lon="109.941716">
<time>2016-10-06T14:11:04Z</time></trkpt>
<trkpt lat="25.163731" lon="109.941716">
<time>2016-10-06T14:11:05Z</time></trkpt>
<trkpt lat="25.163671" lon="109.941706">
<time>2016-10-06T14:11:06Z</time></trkpt>
<trkpt lat="25.163451" lon="109.941686">
<time>2016-10-06T14:11:07Z</time></trkpt>
<trkpt lat="25.163301" lon="109.941666">
<time>2016-10-06T14:11:08Z</time></trkpt>
<trkpt lat="25.163251" lon="109.941666">
<time>2016-10-06T14:11:09Z</time></trkpt>
<trkpt lat="25.163191" lon="109.941676">
<time>2016-10-06T14:11:10Z</time></trkpt>
<trkpt lat="25.163151" lon="109.941676">
<time>2016-10-06T14:11:11Z</time></trkpt>
<trkpt lat="25.163111" lon="109.941686">
<time>2016-10-06T14:11:12Z</time></trkpt>
<trkpt lat="25.163081" lon="109.941696">
<time>2016-10-06T14:11:13Z</time></trkpt>
<trkpt lat="25.163051" lon="109.941726">
<time>2016-10-06T14:11:14Z</time></trkpt>
<trkpt lat="25.163021" lon="109.941746">
<time>2016-10-06T14:11:15Z</time></trkpt>
<trkpt lat="25.162991" lon="109.941776">
<time>2016-10-06T14:11:16Z</time></trkpt>
<trkpt lat="25.162971" lon="109.941816">
<time>2016-10-06T14:11:17Z</time></trkpt>
<trkpt lat="25.162961" lon="109.941846">
<time>2016-10-06T14:11:18Z</time></trkpt>
<trkpt lat="25.162951" lon="109.941886">
<time>2016-10-06T14:11:19Z</time></trkpt>
<trkpt lat="25.162951" lon="109.941916">
<time>2016-10-06T14:11:20Z</time></trkpt>
<trkpt lat="25.162951" lon="109.941966">
<time>2016-10-06T14:11:21Z</time></trkpt>
<trkpt lat="25.162961" lon="109.942006">
<time>2016-10-06T14:11:22Z</time></trkpt>
<trkpt lat="25.162971" lon="109.942055">
<time>2016-10-06T14:11:23Z</time></trkpt>
<trkpt lat="25.16299" lon="109.942085">
<time>2016-10-06T14:11:24Z</time></trkpt>
<trkpt lat="25.16302" lon="109.942145">
<time>2016-10-06T14:11:25Z</time></trkpt>
<trkpt lat="25.16306" lon="109.942235">
<time>2016-10-06T14:11:26Z</time></trkpt>
<trkpt lat="25.16314" lon="109.942375">
<time>2016-10-06T14:11:27Z</time></trkpt>
<trkpt lat="25.16319" lon="109.942465">
<time>2016-10-06T14:11:28Z</time></trkpt>
<trkpt lat="25.16323" lon="109.942544">
<time>2016-10-06T14:11:29Z</time></trkpt>
<trkpt lat="25.163269" lon="109.942624">
<time>2016-10-06T14:11:30Z</time></trkpt>
<trkpt lat="25.163289" lon="109.942684">
<time>2016-10-06T14:11:31Z</time></trkpt>
<trkpt lat="25.163309" lon="109.942734">
<time>2016-10-06T14:11:32Z</time></trkpt>
<trkpt lat="25.163319" lon="109.942784">
<time>2016-10-06T14:11:33Z</time></trkpt>
<trkpt lat="25.163329" lon="109.942834">
<time>2016-10-06T14:11:34Z</time></trkpt>
<trkpt lat="25.163329" lon="109.942894">
<time>2016-10-06T14:11:35Z</time></trkpt>
<trkpt lat="25.163319" lon="109.942944">
<time>2016-10-06T14:11:36Z</time></trkpt>
<trkpt lat="25.163309" lon="109.942983">
<time>2016-10-06T14:11:37Z</time></trkpt>
<trkpt lat="25.163299" lon="109.943033">
<time>2016-10-06T14:11:38Z</time></trkpt>
<trkpt lat="25.163268" lon="109.943123">
<time>2016-10-06T14:11:39Z</time></trkpt>
<trkpt lat="25.163258" lon="109.943203">
<time>2016-10-06T14:11:40Z</time></trkpt>
<trkpt lat="25.163258" lon="109.943253">
<time>2016-10-06T14:11:41Z</time></trkpt>
<trkpt lat="25.163268" lon="109.943293">
<time>2016-10-06T14:11:42Z</time></trkpt>
<trkpt lat="25.163278" lon="109.943343">
<time>2016-10-06T14:11:43Z</time></trkpt>
<trkpt lat="25.163298" lon="109.943393">
<time>2016-10-06T14:11:44Z</time></trkpt>
<trkpt lat="25.163318" lon="109.943422">
<time>2016-10-06T14:11:45Z</time></trkpt>
<trkpt lat="25.163348" lon="109.943462">
<time>2016-10-06T14:11:46Z</time></trkpt>
<trkpt lat="25.163378" lon="109.943492">
<time>2016-10-06T14:11:47Z</time></trkpt>
<trkpt lat="25.163418" lon="109.943532">
<time>2016-10-06T14:11:48Z</time></trkpt>
<trkpt lat="25.163507" lon="109.943602">
<time>2016-10-06T14:11:49Z</time></trkpt>
<trkpt lat="25.163637" lon="109.943702">
<time>2016-10-06T14:11:50Z</time></trkpt>
<trkpt lat="25.163707" lon="109.943742">
<time>2016-10-06T14:11:51Z</time></trkpt>
<trkpt lat="25.163757" lon="109.943772">
<time>2016-10-06T14:11:52Z</time></trkpt>
<trkpt lat="25.163797" lon="109.943792">
<time>2016-10-06T14:11:53Z</time></trkpt>
<trkpt lat="25.163837" lon="109.943812">
<time>2016-10-06T14:11:54Z</time></trkpt>
<trkpt lat="25.163877" lon="109.943812">
<time>2016-10-06T14:11:55Z</time></trkpt>
<trkpt lat="25.163907" lon="109.943822">
<time>2016-10-06T14:11:56Z</time></trkpt>
<trkpt lat="25.163957" lon="109.943822">
<time>2016-10-06T14:11:57Z</time></trkpt>
<trkpt lat="25.163997" lon="109.943812">
<time>2016-10-06T14:11:58Z</time></trkpt>
<trkpt lat="25.164027" lon="109.943802">
<time>2016-10-06T14:11:59Z</time></trkpt>
<trkpt lat="25.164077" lon="109.943782">
<time>2016-10-06T14:12:00Z</time></trkpt>
<trkpt lat="25.164107" lon="109.943752">
<time>2016-10-06T14:12:01Z</time></trkpt>
<trkpt lat="25.164137" lon="109.943732">
<time>2016-10-06T14:12:02Z</time></trkpt>
<trkpt lat="25.164157" lon="109.943712">
<time>2016-10-06T14:12:03Z</time></trkpt>
<trkpt lat="25.164187" lon="109.943682">
<time>2016-10-06T14:12:04Z</time></trkpt>
<trkpt lat="25.164207" lon="109.943652">
<time>2016-10-06T14:12:05Z</time></trkpt>
<trkpt lat="25.164217" lon="109.943622">
<time>2016-10-06T14:12:06Z</time></trkpt>
<trkpt lat="25.164248" lon="109.943562">
<time>2016-10-06T14:12:07Z</time></trkpt>
<trkpt lat="25.164278" lon="109.943502">
<time>2016-10-06T14:12:08Z</time></trkpt>
<trkpt lat="25.164288" lon="109.943462">
<time>2016-10-06T14:12:09Z</time></trkpt>
<trkpt lat="25.164318" lon="109.943383">
<time>2016-10-06T14:12:10Z</time></trkpt>
<trkpt lat="25.164348" lon="109.943313">
<time>2016-10-06T14:12:11Z</time></trkpt>
<trkpt lat="25.164378" lon="109.943253">
<time>2016-10-06T14:12:12Z</time></trkpt>
<trkpt lat="25.164398" lon="109.943223">
<time>2016-10-06T14:12:13Z</time></trkpt>
<trkpt lat="25.164418" lon="109.943203">
<time>2016-10-06T14:12:14Z</time></trkpt>
<trkpt lat="25.164458" lon="109.943153">
<time>2016-10-06T14:12:15Z</time></trkpt>
<trkpt lat="25.164478" lon="109.943143">
<time>2016-10-06T14:12:16Z</time></trkpt>
<trkpt lat="25.164518" lon="109.943113">
<time>2016-10-06T14:12:17Z</time></trkpt>
<trkpt lat="25.164548" lon="109.943103">
<time>2016-10-06T14:12:18Z</time></trkpt>
<trkpt lat="25.164578" lon="109.943093">
<time>2016-10-06T14:12:19Z</time></trkpt>
<trkpt lat="25.164608" lon="109.943083">
<time>2016-10-06T14:12:20Z</time></trkpt>
<trkpt lat="25.164648" lon="109.943073">
<time>2016-10-06T14:12:21Z</time></trkpt>
<trkpt lat="25.164678" lon="109.943073">
<time>2016-10-06T14:12:22Z</time></trkpt>
<trkpt lat="25.164728" lon="109.943073">
<time>2016-10-06T14:12:23Z</time></trkpt>
<trkpt lat="25.164758" lon="109.943073">
<time>2016-10-06T14:12:24Z</time></trkpt>
<trkpt lat="25.164788" lon="109.943083">
<time>2016-10-06T14:12:25Z</time></trkpt>
<trkpt lat="25.164818" lon="109.943093">
<time>2016-10-06T14:12:26Z</time></trkpt>
<trkpt lat="25.164848" lon="109.943113">
<time>2016-10-06T14:12:27Z</time></trkpt>
<trkpt lat="25.164888" lon="109.943143">
<time>2016-10-06T14:12:28Z</time></trkpt>
<trkpt lat="25.164908" lon="109.943163">
<time>2016-10-06T14:12:29Z</time></trkpt>
<trkpt lat="25.164928" lon="109.943193">
<time>2016-10-06T14:12:30Z</time></trkpt>
<trkpt lat="25.164938" lon="109.943213">
<time>2016-10-06T14:12:31Z</time></trkpt>
<trkpt lat="25.164948" lon="109.943253">
<time>2016-10-06T14:12:32Z</time></trkpt>
<trkpt lat="25.164958" lon="109.943283">
<time>2016-10-06T14:12:33Z</time></trkpt>
<trkpt lat="25.164968" lon="109.943333">
<time>2016-10-06T14:12:34Z</time></trkpt>
<trkpt lat="25.164958" lon="109.943402">
<time>2016-10-06T14:12:35Z</time></trkpt>
<trkpt lat="25.164948" lon="109.943472">
<time>2016-10-06T14:12:36Z</time></trkpt>
<trkpt lat="25.164927" lon="109.943592">
<time>2016-10-06T14:12:37Z</time></trkpt>
<trkpt lat="25.164917" lon="109.943652">
<time>2016-10-06T14:12:38Z</time></trkpt>
<trkpt lat="25.164907" lon="109.943722">
<time>2016-10-06T14:12:39Z</time></trkpt>
<trkpt lat="25.164897" lon="109.943792">
<time>2016-10-06T14:12:40Z</time></trkpt>
<trkpt lat="25.164887" lon="109.943881">
<time>2016-10-06T14:12:41Z</time></trkpt>
<trkpt lat="25.164897" lon="109.943991">
<time>2016-10-06T14:12:42Z</time></trkpt>
<trkpt lat="25.164896" lon="109.944171">
<time>2016-10-06T14:12:43Z</time></trkpt>
<trkpt lat="25.164896" lon="109.944251">
<time>2016-10-06T14:12:44Z</time></trkpt>
<trkpt lat="25.164906" lon="109.94432">
<time>2016-10-06T14:12:45Z</time></trkpt>
<trkpt lat="25.164906" lon="109.94438">
<time>2016-10-06T14:12:46Z</time></trkpt>
<trkpt lat="25.164916" lon="109.94443">
<time>2016-10-06T14:12:47Z</time></trkpt>
<trkpt lat="25.164926" lon="109.94448">
<time>2016-10-06T14:12:48Z</time></trkpt>
<trkpt lat="25.164946" lon="109.94454">
<time>2016-10-06T14:12:49Z</time></trkpt>
<trkpt lat="25.164965" lon="109.94462">
<time>2016-10-06T14:12:50Z</time></trkpt>
<trkpt lat="25.164985" lon="109.94469">
<time>2016-10-06T14:12:51Z</time></trkpt>
<trkpt lat="25.165005" lon="109.944749">
<time>2016-10-06T14:12:52Z</time></trkpt>
<trkpt lat="25.165035" lon="109.944819">
<time>2016-10-06T14:12:53Z</time></trkpt>
<trkpt lat="25.165065" lon="109.944879">
<time>2016-10-06T14:12:54Z</time></trkpt>
<trkpt lat="25.165115" lon="109.945019">
<time>2016-10-06T14:12:55Z</time></trkpt>
<trkpt lat="25.165134" lon="109.945059">
<time>2016-10-06T14:12:56Z</time></trkpt>
<trkpt lat="25.165154" lon="109.945099">
<time>2016-10-06T14:12:57Z</time></trkpt>
<trkpt lat="25.165174" lon="109.945129">
<time>2016-10-06T14:12:58Z</time></trkpt>
<trkpt lat="25.165204" lon="109.945149">
<time>2016-10-06T14:12:59Z</time></trkpt>
<trkpt lat="25.165224" lon="109.945159">
<time>2016-10-06T14:13:00Z</time></trkpt>
<trkpt lat="25.165244" lon="109.945179">
<time>2016-10-06T14:13:01Z</time></trkpt>
<trkpt lat="25.165264" lon="109.945189">
<time>2016-10-06T14:13:02Z</time></trkpt>
<trkpt lat="25.165284" lon="109.945189">
<time>2016-10-06T14:13:03Z</time></trkpt>
<trkpt lat="25.165304" lon="109.945198">
<time>2016-10-06T14:13:04Z</time></trkpt>
<trkpt lat="25.165324" lon="109.945189">
<time>2016-10-06T14:13:05Z</time></trkpt>
<trkpt lat="25.165354" lon="109.945189">
<time>2016-10-06T14:13:06Z</time></trkpt>
<trkpt lat="25.165374" lon="109.945179">
<time>2016-10-06T14:13:07Z</time></trkpt>
<trkpt lat="25.165394" lon="109.945169">
<time>2016-10-06T14:13:08Z</time></trkpt>
<trkpt lat="25.165414" lon="109.945149">
<time>2016-10-06T14:13:09Z</time></trkpt>
<trkpt lat="25.165434" lon="109.945139">
<time>2016-10-06T14:13:10Z</time></trkpt>
<trkpt lat="25.165444" lon="109.945119">
<time>2016-10-06T14:13:11Z</time></trkpt>
<trkpt lat="25.165454" lon="109.945099">
<time>2016-10-06T14:13:12Z</time></trkpt>
<trkpt lat="25.165464" lon="109.945079">
<time>2016-10-06T14:13:13Z</time></trkpt>
<trkpt lat="25.165474" lon="109.945049">
<time>2016-10-06T14:13:14Z</time></trkpt>
<trkpt lat="25.165475" lon="109.945019">
<time>2016-10-06T14:13:15Z</time></trkpt>
<trkpt lat="25.165485" lon="109.944979">
<time>2016-10-06T14:13:16Z</time></trkpt>
<trkpt lat="25.165485" lon="109.944939">
<time>2016-10-06T14:13:17Z</time></trkpt>
<trkpt lat="25.165485" lon="109.944889">
<time>2016-10-06T14:13:18Z</time></trkpt>
<trkpt lat="25.165485" lon="109.944789">
<time>2016-10-06T14:13:19Z</time></trkpt>
<trkpt lat="25.165485" lon="109.94469">
<time>2016-10-06T14:13:20Z</time></trkpt>
<trkpt lat="25.165495" lon="109.9446">
<time>2016-10-06T14:13:21Z</time></trkpt>
<trkpt lat="25.165505" lon="109.94454">
<time>2016-10-06T14:13:22Z</time></trkpt>
<trkpt lat="25.165526" lon="109.94447">
<time>2016-10-06T14:13:23Z</time></trkpt>
<trkpt lat="25.165546" lon="109.9444">
<time>2016-10-06T14:13:24Z</time></trkpt>
<trkpt lat="25.165566" lon="109.94433">
<time>2016-10-06T14:13:25Z</time></trkpt>
<trkpt lat="25.165626" lon="109.944131">
<time>2016-10-06T14:13:26Z</time></trkpt>
<trkpt lat="25.165717" lon="109.943821">
<time>2016-10-06T14:13:27Z</time></trkpt>
<trkpt lat="25.165777" lon="109.943612">
<time>2016-10-06T14:13:28Z</time></trkpt>
<trkpt lat="25.165797" lon="109.943542">
<time>2016-10-06T14:13:29Z</time></trkpt>
<trkpt lat="25.165818" lon="109.943492">
<time>2016-10-06T14:13:30Z</time></trkpt>
<trkpt lat="25.165828" lon="109.943452">
<time>2016-10-06T14:13:31Z</time></trkpt>
<trkpt lat="25.165838" lon="109.943422">
<time>2016-10-06T14:13:32Z</time></trkpt>
<trkpt lat="25.165858" lon="109.943392">
<time>2016-10-06T14:13:33Z</time></trkpt>
<trkpt lat="25.165878" lon="109.943362">
<time>2016-10-06T14:13:34Z</time></trkpt>
<trkpt lat="25.165888" lon="109.943342">
<time>2016-10-06T14:13:35Z</time></trkpt>
<trkpt lat="25.165908" lon="109.943313">
<time>2016-10-06T14:13:36Z</time></trkpt>
<trkpt lat="25.165928" lon="109.943293">
<time>2016-10-06T14:13:37Z</time></trkpt>
<trkpt lat="25.165958" lon="109.943273">
<time>2016-10-06T14:13:38Z</time></trkpt>
<trkpt lat="25.165978" lon="109.943263">
<time>2016-10-06T14:13:39Z</time></trkpt>
<trkpt lat="25.165998" lon="109.943253">
<time>2016-10-06T14:13:40Z</time></trkpt>
<trkpt lat="25.166028" lon="109.943243">
<time>2016-10-06T14:13:41Z</time></trkpt>
<trkpt lat="25.166048" lon="109.943233">
<time>2016-10-06T14:13:42Z</time></trkpt>
<trkpt lat="25.166078" lon="109.943233">
<time>2016-10-06T14:13:43Z</time></trkpt>
<trkpt lat="25.166108" lon="109.943233">
<time>2016-10-06T14:13:44Z</time></trkpt>
<trkpt lat="25.166128" lon="109.943233">
<time>2016-10-06T14:13:45Z</time></trkpt>
<trkpt lat="25.166158" lon="109.943243">
<time>2016-10-06T14:13:46Z</time></trkpt>
<trkpt lat="25.166178" lon="109.943243">
<time>2016-10-06T14:13:47Z</time></trkpt>
<trkpt lat="25.166208" lon="109.943253">
<time>2016-10-06T14:13:48Z</time></trkpt>
<trkpt lat="25.166238" lon="109.943263">
<time>2016-10-06T14:13:49Z</time></trkpt>
<trkpt lat="25.166268" lon="109.943273">
<time>2016-10-06T14:13:50Z</time></trkpt>
<trkpt lat="25.166318" lon="109.943293">
<time>2016-10-06T14:13:51Z</time></trkpt>
<trkpt lat="25.166388" lon="109.943323">
<time>2016-10-06T14:13:52Z</time></trkpt>
<trkpt lat="25.166408" lon="109.943332">
<time>2016-10-06T14:13:53Z</time></trkpt>
<trkpt lat="25.166438" lon="109.943332">
<time>2016-10-06T14:13:54Z</time></trkpt>
<trkpt lat="25.166458" lon="109.943332">
<time>2016-10-06T14:13:55Z</time></trkpt>
<trkpt lat="25.166478" lon="109.943332">
<time>2016-10-06T14:13:56Z</time></trkpt>
<trkpt lat="25.166508" lon="109.943323">
<time>2016-10-06T14:13:57Z</time></trkpt>
<trkpt lat="25.166518" lon="109.943323">
<time>2016-10-06T14:13:58Z</time></trkpt>
<trkpt lat="25.166538" lon="109.943313">
<time>2016-10-06T14:13:59Z</time></trkpt>
<trkpt lat="25.166568" lon="109.943293">
<time>2016-10-06T14:14:00Z</time></trkpt>
<trkpt lat="25.166578" lon="109.943273">
<time>2016-10-06T14:14:01Z</time></trkpt>
<trkpt lat="25.166598" lon="109.943253">
<time>2016-10-06T14:14:02Z</time></trkpt>
<trkpt lat="25.166608" lon="109.943233">
<time>2016-10-06T14:14:03Z</time></trkpt>
<trkpt lat="25.166618" lon="109.943223">
<time>2016-10-06T14:14:04Z</time></trkpt>
<trkpt lat="25.166628" lon="109.943193">
<time>2016-10-06T14:14:05Z</time></trkpt>
<trkpt lat="25.166628" lon="109.943173">
<time>2016-10-06T14:14:06Z</time></trkpt>
<trkpt lat="25.166628" lon="109.943153">
<time>2016-10-06T14:14:07Z</time></trkpt>
<trkpt lat="25.166638" lon="109.943143">
<time>2016-10-06T14:14:08Z</time></trkpt>
<trkpt lat="25.166628" lon="109.943103">
<time>2016-10-06T14:14:09Z</time></trkpt>
<trkpt lat="25.166628" lon="109.943083">
<time>2016-10-06T14:14:10Z</time></trkpt>
<trkpt lat="25.166628" lon="109.943063">
<time>2016-10-06T14:14:11Z</time></trkpt>
<trkpt lat="25.166618" lon="109.943033">
<time>2016-10-06T14:14:12Z</time></trkpt>
<trkpt lat="25.166599" lon="109.942993">
<time>2016-10-06T14:14:13Z</time></trkpt>
<trkpt lat="25.166579" lon="109.942963">
<time>2016-10-06T14:14:14Z</time></trkpt>
<trkpt lat="25.166519" lon="109.942883">
<time>2016-10-06T14:14:15Z</time></trkpt>
<trkpt lat="25.166469" lon="109.942834">
<time>2016-10-06T14:14:16Z</time></trkpt>
<trkpt lat="25.166419" lon="109.942784">
<time>2016-10-06T14:14:17Z</time></trkpt>
<trkpt lat="25.166329" lon="109.942684">
<time>2016-10-06T14:14:18Z</time></trkpt>
<trkpt lat="25.166289" lon="109.942634">
<time>2016-10-06T14:14:19Z</time></trkpt>
<trkpt lat="25.166269" lon="109.942594">
<time>2016-10-06T14:14:20Z</time></trkpt>
<trkpt lat="25.166239" lon="109.942564">
<time>2016-10-06T14:14:21Z</time></trkpt>
<trkpt lat="25.166219" lon="109.942524">
<time>2016-10-06T14:14:22Z</time></trkpt>
<trkpt lat="25.1662" lon="109.942494">
<time>2016-10-06T14:14:23Z</time></trkpt>
<trkpt lat="25.16619" lon="109.942464">
<time>2016-10-06T14:14:24Z</time></trkpt>
<trkpt lat="25.16617" lon="109.942424">
<time>2016-10-06T14:14:25Z</time></trkpt>
<trkpt lat="25.16616" lon="109.942385">
<time>2016-10-06T14:14:26Z</time></trkpt>
<trkpt lat="25.16615" lon="109.942325">
<time>2016-10-06T14:14:27Z</time></trkpt>
<trkpt lat="25.16614" lon="109.942285">
<time>2016-10-06T14:14:28Z</time></trkpt>
<trkpt lat="25.16613" lon="109.942235">
<time>2016-10-06T14:14:29Z</time></trkpt>
<trkpt lat="25.16612" lon="109.942185">
<time>2016-10-06T14:14:30Z</time></trkpt>
<trkpt lat="25.16611" lon="109.942135">
<time>2016-10-06T14:14:31Z</time></trkpt>
<trkpt lat="25.16611" lon="109.942085">
<time>2016-10-06T14:14:32Z</time></trkpt>
<trkpt lat="25.1661" lon="109.942055">
<time>2016-10-06T14:14:33Z</time></trkpt>
<trkpt lat="25.1661" lon="109.942025">
<time>2016-10-06T14:14:34Z</time></trkpt>
<trkpt lat="25.1661" lon="109.941995">
<time>2016-10-06T14:14:35Z</time></trkpt>
<trkpt lat="25.166101" lon="109.941965">
<time>2016-10-06T14:14:36Z</time></trkpt>
<trkpt lat="25.166101" lon="109.941945">
<time>2016-10-06T14:14:37Z</time></trkpt>
<trkpt lat="25.166101" lon="109.941925">
<time>2016-10-06T14:14:38Z</time></trkpt>
<trkpt lat="25.166111" lon="109.941906">
<time>2016-10-06T14:14:39Z</time></trkpt>
<trkpt lat="25.166121" lon="109.941876">
<time>2016-10-06T14:14:40Z</time></trkpt>
<trkpt lat="25.166121" lon="109.941846">
<time>2016-10-06T14:14:41Z</time></trkpt>
<trkpt lat="25.166131" lon="109.941826">
<time>2016-10-06T14:14:42Z</time></trkpt>
<trkpt lat="25.166151" lon="109.941806">
<time>2016-10-06T14:14:43Z</time></trkpt>
<trkpt lat="25.166161" lon="109.941786">
<time>2016-10-06T14:14:44Z</time></trkpt>
<trkpt lat="25.166171" lon="109.941766">
<time>2016-10-06T14:14:45Z</time></trkpt>
<trkpt lat="25.166191" lon="109.941746">
<time>2016-10-06T14:14:46Z</time></trkpt>
<trkpt lat="25.166201" lon="109.941726">
<time>2016-10-06T14:14:47Z</time></trkpt>
<trkpt lat="25.166221" lon="109.941706">
<time>2016-10-06T14:14:48Z</time></trkpt>
<trkpt lat="25.166241" lon="109.941696">
<time>2016-10-06T14:14:49Z</time></trkpt>
<trkpt lat="25.166261" lon="109.941676">
<time>2016-10-06T14:14:50Z</time></trkpt>
<trkpt lat="25.166281" lon="109.941666">
<time>2016-10-06T14:14:51Z</time></trkpt>
<trkpt lat="25.166311" lon="109.941646">
<time>2016-10-06T14:14:52Z</time></trkpt>
<trkpt lat="25.166361" lon="109.941616">
<time>2016-10-06T14:14:53Z</time></trkpt>
<trkpt lat="25.166411" lon="109.941586">
<time>2016-10-06T14:14:54Z</time></trkpt>
<trkpt lat="25.166431" lon="109.941566">
<time>2016-10-06T14:14:55Z</time></trkpt>
<trkpt lat="25.166451" lon="109.941556">
<time>2016-10-06T14:14:56Z</time></trkpt>
<trkpt lat="25.166471" lon="109.941536">
<time>2016-10-06T14:14:57Z</time></trkpt>
<trkpt lat="25.166491" lon="109.941526">
<time>2016-10-06T14:14:58Z</time></trkpt>
<trkpt lat="25.166501" lon="109.941516">
<time>2016-10-06T14:14:59Z</time></trkpt>
<trkpt lat="25.166511" lon="109.941506">
<time>2016-10-06T14:15:00Z</time></trkpt>
<trkpt lat="25.166521" lon="109.941496">
<time>2016-10-06T14:15:01Z</time></trkpt>
<trkpt lat="25.166531" lon="109.941476">
<time>2016-10-06T14:15:02Z</time></trkpt>
<trkpt lat="25.166552" lon="109.941456">
<time>2016-10-06T14:15:03Z</time></trkpt>
<trkpt lat="25.166562" lon="109.941436">
<time>2016-10-06T14:15:04Z</time></trkpt>
<trkpt lat="25.166572" lon="109.941426">
<time>2016-10-06T14:15:05Z</time></trkpt>
<trkpt lat="25.166582" lon="109.941407">
<time>2016-10-06T14:15:06Z</time></trkpt>
<trkpt lat="25.166602" lon="109.941377">
<time>2016-10-06T14:15:07Z</time></trkpt>
<trkpt lat="25.166632" lon="109.941317">
<time>2016-10-06T14:15:08Z</time></trkpt>
<trkpt lat="25.166652" lon="109.941267">
<time>2016-10-06T14:15:09Z</time></trkpt>
<trkpt lat="25.166662" lon="109.941247">
<time>2016-10-06T14:15:10Z</time></trkpt>
<trkpt lat="25.166662" lon="109.941237">
<time>2016-10-06T14:15:11Z</time></trkpt>
<trkpt lat="25.166672" lon="109.941227">
<time>2016-10-06T14:15:12Z</time></trkpt>
<trkpt lat="25.166692" lon="109.941177">
<time>2016-10-06T14:15:13Z</time></trkpt>
<trkpt lat="25.166712" lon="109.941147">
<time>2016-10-06T14:15:14Z</time></trkpt>
<trkpt lat="25.166732" lon="109.941127">
<time>2016-10-06T14:15:15Z</time></trkpt>
<trkpt lat="25.166752" lon="109.941097">
<time>2016-10-06T14:15:16Z</time></trkpt>
<trkpt lat="25.166812" lon="109.941027">
<time>2016-10-06T14:15:17Z</time></trkpt>
<trkpt lat="25.166852" lon="109.940987">
<time>2016-10-06T14:15:18Z</time></trkpt>
<trkpt lat="25.166892" lon="109.940947">
<time>2016-10-06T14:15:19Z</time></trkpt>
<trkpt lat="25.167023" lon="109.940838">
<time>2016-10-06T14:15:20Z</time></trkpt>
<trkpt lat="25.167133" lon="109.940748">
<time>2016-10-06T14:15:21Z</time></trkpt>
<trkpt lat="25.167223" lon="109.940678">
<time>2016-10-06T14:15:22Z</time></trkpt>
<trkpt lat="25.167323" lon="109.940608">
<time>2016-10-06T14:15:23Z</time></trkpt>
<trkpt lat="25.167393" lon="109.940568">
<time>2016-10-06T14:15:24Z</time></trkpt>
<trkpt lat="25.167423" lon="109.940558">
<time>2016-10-06T14:15:25Z</time></trkpt>
<trkpt lat="25.167463" lon="109.940548">
<time>2016-10-06T14:15:26Z</time></trkpt>
<trkpt lat="25.167503" lon="109.940548">
<time>2016-10-06T14:15:27Z</time></trkpt>
<trkpt lat="25.167543" lon="109.940548">
<time>2016-10-06T14:15:28Z</time></trkpt>
<trkpt lat="25.167563" lon="109.940548">
<time>2016-10-06T14:15:29Z</time></trkpt>
<trkpt lat="25.167603" lon="109.940558">
<time>2016-10-06T14:15:30Z</time></trkpt>
<trkpt lat="25.167633" lon="109.940568">
<time>2016-10-06T14:15:31Z</time></trkpt>
<trkpt lat="25.167673" lon="109.940598">
<time>2016-10-06T14:15:32Z</time></trkpt>
<trkpt lat="25.167723" lon="109.940628">
<time>2016-10-06T14:15:33Z</time></trkpt>
<trkpt lat="25.167783" lon="109.940688">
<time>2016-10-06T14:15:34Z</time></trkpt>
<trkpt lat="25.167903" lon="109.940808">
<time>2016-10-06T14:15:35Z</time></trkpt>
<trkpt lat="25.167963" lon="109.940838">
<time>2016-10-06T14:15:36Z</time></trkpt>
<trkpt lat="25.168003" lon="109.940848">
<time>2016-10-06T14:15:37Z</time></trkpt>
<trkpt lat="25.168033" lon="109.940858">
<time>2016-10-06T14:15:38Z</time></trkpt>
<trkpt lat="25.168053" lon="109.940858">
<time>2016-10-06T14:15:39Z</time></trkpt>
<trkpt lat="25.168073" lon="109.940858">
<time>2016-10-06T14:15:40Z</time></trkpt>
<trkpt lat="25.168093" lon="109.940858">
<time>2016-10-06T14:15:41Z</time></trkpt>
<trkpt lat="25.168113" lon="109.940858">
<time>2016-10-06T14:15:42Z</time></trkpt>
<trkpt lat="25.168133" lon="109.940848">
<time>2016-10-06T14:15:43Z</time></trkpt>
<trkpt lat="25.168163" lon="109.940838">
<time>2016-10-06T14:15:44Z</time></trkpt>
<trkpt lat="25.168183" lon="109.940828">
<time>2016-10-06T14:15:45Z</time></trkpt>
<trkpt lat="25.168213" lon="109.940808">
<time>2016-10-06T14:15:46Z</time></trkpt>
<trkpt lat="25.168233" lon="109.940778">
<time>2016-10-06T14:15:47Z</time></trkpt>
<trkpt lat="25.168253" lon="109.940748">
<time>2016-10-06T14:15:48Z</time></trkpt>
<trkpt lat="25.168273" lon="109.940718">
<time>2016-10-06T14:15:49Z</time></trkpt>
<trkpt lat="25.168283" lon="109.940668">
<time>2016-10-06T14:15:50Z</time></trkpt>
<trkpt lat="25.168293" lon="109.940628">
<time>2016-10-06T14:15:51Z</time></trkpt>
<trkpt lat="25.168313" lon="109.940548">
<time>2016-10-06T14:15:52Z</time></trkpt>
<trkpt lat="25.168313" lon="109.940398">
<time>2016-10-06T14:15:53Z</time></trkpt>
<trkpt lat="25.168324" lon="109.940239">
<time>2016-10-06T14:15:54Z</time></trkpt>
<trkpt lat="25.168354" lon="109.940119">
<time>2016-10-06T14:15:55Z</time></trkpt>
<trkpt lat="25.168384" lon="109.940029">
<time>2016-10-06T14:15:56Z</time></trkpt>
<trkpt lat="25.168424" lon="109.939949">
<time>2016-10-06T14:15:57Z</time></trkpt>
<trkpt lat="25.168484" lon="109.93986">
<time>2016-10-06T14:15:58Z</time></trkpt>
<trkpt lat="25.168615" lon="109.9397">
<time>2016-10-06T14:15:59Z</time></trkpt>
<trkpt lat="25.168665" lon="109.9396">
<time>2016-10-06T14:16:00Z</time></trkpt>
<trkpt lat="25.168705" lon="109.9395">
<time>2016-10-06T14:16:01Z</time></trkpt>
<trkpt lat="25.168715" lon="109.93941">
<time>2016-10-06T14:16:02Z</time></trkpt>
<trkpt lat="25.168756" lon="109.939211">
<time>2016-10-06T14:16:03Z</time></trkpt>
<trkpt lat="25.168786" lon="109.939121">
<time>2016-10-06T14:16:04Z</time></trkpt>
<trkpt lat="25.168816" lon="109.939041">
<time>2016-10-06T14:16:05Z</time></trkpt>
<trkpt lat="25.168886" lon="109.938961">
<time>2016-10-06T14:16:06Z</time></trkpt>
<trkpt lat="25.168956" lon="109.938901">
<time>2016-10-06T14:16:07Z</time></trkpt>
<trkpt lat="25.169006" lon="109.938881">
<time>2016-10-06T14:16:08Z</time></trkpt>
<trkpt lat="25.169086" lon="109.938852">
<time>2016-10-06T14:16:09Z</time></trkpt>
<trkpt lat="25.169146" lon="109.938842">
<time>2016-10-06T14:16:10Z</time></trkpt>
<trkpt lat="25.169236" lon="109.938842">
<time>2016-10-06T14:16:11Z</time></trkpt>
<trkpt lat="25.169336" lon="109.938861">
<time>2016-10-06T14:16:12Z</time></trkpt>
<trkpt lat="25.169426" lon="109.938891">
<time>2016-10-06T14:16:13Z</time></trkpt>
<trkpt lat="25.169506" lon="109.938931">
<time>2016-10-06T14:16:14Z</time></trkpt>
<trkpt lat="25.169596" lon="109.938981">
<time>2016-10-06T14:16:15Z</time></trkpt>
<trkpt lat="25.169646" lon="109.939031">
<time>2016-10-06T14:16:16Z</time></trkpt>
<trkpt lat="25.169706" lon="109.939111">
<time>2016-10-06T14:16:17Z</time></trkpt>
<trkpt lat="25.169736" lon="109.939161">
<time>2016-10-06T14:16:18Z</time></trkpt>
<trkpt lat="25.169766" lon="109.939221">
<time>2016-10-06T14:16:19Z</time></trkpt>
<trkpt lat="25.169805" lon="109.939341">
<time>2016-10-06T14:16:20Z</time></trkpt>
<trkpt lat="25.169865" lon="109.93948">
<time>2016-10-06T14:16:21Z</time></trkpt>
<trkpt lat="25.169935" lon="109.9396">
<time>2016-10-06T14:16:22Z</time></trkpt>
<trkpt lat="25.170005" lon="109.93969">
<time>2016-10-06T14:16:23Z</time></trkpt>
<trkpt lat="25.170055" lon="109.93975">
<time>2016-10-06T14:16:24Z</time></trkpt>
<trkpt lat="25.170084" lon="109.93978">
<time>2016-10-06T14:16:25Z</time></trkpt>
<trkpt lat="25.170194" lon="109.939839">
<time>2016-10-06T14:16:26Z</time></trkpt>
<trkpt lat="25.170364" lon="109.939909">
<time>2016-10-06T14:16:27Z</time></trkpt>
<trkpt lat="25.170464" lon="109.939969">
<time>2016-10-06T14:16:28Z</time></trkpt>
<trkpt lat="25.170554" lon="109.940039">
<time>2016-10-06T14:16:29Z</time></trkpt>
<trkpt lat="25.170684" lon="109.940159">
<time>2016-10-06T14:16:30Z</time></trkpt>
<trkpt lat="25.170774" lon="109.940209">
<time>2016-10-06T14:16:31Z</time></trkpt>
<trkpt lat="25.170854" lon="109.940249">
<time>2016-10-06T14:16:32Z</time></trkpt>
<trkpt lat="25.170944" lon="109.940269">
<time>2016-10-06T14:16:33Z</time></trkpt>
<trkpt lat="25.171043" lon="109.940299">
<time>2016-10-06T14:16:34Z</time></trkpt>
<trkpt lat="25.171183" lon="109.940318">
<time>2016-10-06T14:16:35Z</time></trkpt>
<trkpt lat="25.171243" lon="109.940338">
<time>2016-10-06T14:16:36Z</time></trkpt>
<trkpt lat="25.171303" lon="109.940368">
<time>2016-10-06T14:16:37Z</time></trkpt>
<trkpt lat="25.171393" lon="109.940408">
<time>2016-10-06T14:16:38Z</time></trkpt>
<trkpt lat="25.171503" lon="109.940458">
<time>2016-10-06T14:16:39Z</time></trkpt>
<trkpt lat="25.171563" lon="109.940468">
<time>2016-10-06T14:16:40Z</time></trkpt>
<trkpt lat="25.171613" lon="109.940458">
<time>2016-10-06T14:16:41Z</time></trkpt>
<trkpt lat="25.171653" lon="109.940438">
<time>2016-10-06T14:16:42Z</time></trkpt>
<trkpt lat="25.171693" lon="109.940398">
<time>2016-10-06T14:16:43Z</time></trkpt>
<trkpt lat="25.171703" lon="109.940368">
<time>2016-10-06T14:16:44Z</time></trkpt>
<trkpt lat="25.171713" lon="109.940308">
<time>2016-10-06T14:16:45Z</time></trkpt>
<trkpt lat="25.171703" lon="109.940259">
<time>2016-10-06T14:16:46Z</time></trkpt>
<trkpt lat="25.171674" lon="109.940199">
<time>2016-10-06T14:16:47Z</time></trkpt>
<trkpt lat="25.171634" lon="109.940159">
<time>2016-10-06T14:16:48Z</time></trkpt>
<trkpt lat="25.171564" lon="109.940089">
<time>2016-10-06T14:16:49Z</time></trkpt>
<trkpt lat="25.171464" lon="109.940009">
<time>2016-10-06T14:16:50Z</time></trkpt>
<trkpt lat="25.171254" lon="109.939869">
<time>2016-10-06T14:16:51Z</time></trkpt>
<trkpt lat="25.171065" lon="109.93971">
<time>2016-10-06T14:16:52Z</time></trkpt>
<trkpt lat="25.170925" lon="109.93953">
<time>2016-10-06T14:16:53Z</time></trkpt>
<trkpt lat="25.170815" lon="109.93939">
<time>2016-10-06T14:16:54Z</time></trkpt>
<trkpt lat="25.170755" lon="109.939281">
<time>2016-10-06T14:16:55Z</time></trkpt>
<trkpt lat="25.170745" lon="109.939211">
<time>2016-10-06T14:16:56Z</time></trkpt>
<trkpt lat="25.170756" lon="109.939131">
<time>2016-10-06T14:16:57Z</time></trkpt>
<trkpt lat="25.170786" lon="109.939071">
<time>2016-10-06T14:16:58Z</time></trkpt>
<trkpt lat="25.170836" lon="109.939031">
<time>2016-10-06T14:16:59Z</time></trkpt>
<trkpt lat="25.170916" lon="109.939001">
<time>2016-10-06T14:17:00Z</time></trkpt>
<trkpt lat="25.171026" lon="109.938981">
<time>2016-10-06T14:17:01Z</time></trkpt>
<trkpt lat="25.171136" lon="109.938971">
<time>2016-10-06T14:17:02Z</time></trkpt>
<trkpt lat="25.171186" lon="109.938961">
<time>2016-10-06T14:17:03Z</time></trkpt>
<trkpt lat="25.171336" lon="109.938911">
<time>2016-10-06T14:17:04Z</time></trkpt>
<trkpt lat="25.171476" lon="109.938861">
<time>2016-10-06T14:17:05Z</time></trkpt>
<trkpt lat="25.171566" lon="109.938851">
<time>2016-10-06T14:17:06Z</time></trkpt>
<trkpt lat="25.171636" lon="109.938851">
<time>2016-10-06T14:17:07Z</time></trkpt>
<trkpt lat="25.171696" lon="109.938861">
<time>2016-10-06T14:17:08Z</time></trkpt>
<trkpt lat="25.171766" lon="109.938881">
<time>2016-10-06T14:17:09Z</time></trkpt>
<trkpt lat="25.171836" lon="109.938921">
<time>2016-10-06T14:17:10Z</time></trkpt>
<trkpt lat="25.171906" lon="109.938951">
<time>2016-10-06T14:17:11Z</time></trkpt>
<trkpt lat="25.172016" lon="109.939011">
<time>2016-10-06T14:17:12Z</time></trkpt>
<trkpt lat="25.172076" lon="109.939021">
<time>2016-10-06T14:17:13Z</time></trkpt>
<trkpt lat="25.172146" lon="109.939021">
<time>2016-10-06T14:17:14Z</time></trkpt>
<trkpt lat="25.172206" lon="109.939001">
<time>2016-10-06T14:17:15Z</time></trkpt>
<trkpt lat="25.172246" lon="109.938971">
<time>2016-10-06T14:17:16Z</time></trkpt>
<trkpt lat="25.172296" lon="109.938921">
<time>2016-10-06T14:17:17Z</time></trkpt>
<trkpt lat="25.172326" lon="109.938871">
<time>2016-10-06T14:17:18Z</time></trkpt>
<trkpt lat="25.172346" lon="109.938801">
<time>2016-10-06T14:17:19Z</time></trkpt>
<trkpt lat="25.172366" lon="109.938702">
<time>2016-10-06T14:17:20Z</time></trkpt>
<trkpt lat="25.172387" lon="109.938472">
<time>2016-10-06T14:17:21Z</time></trkpt>
<trkpt lat="25.172488" lon="109.937694">
<time>2016-10-06T14:17:22Z</time></trkpt>
<trkpt lat="25.172539" lon="109.937264">
<time>2016-10-06T14:17:23Z</time></trkpt>
<trkpt lat="25.172569" lon="109.937135">
<time>2016-10-06T14:17:24Z</time></trkpt>
<trkpt lat="25.172609" lon="109.936995">
<time>2016-10-06T14:17:25Z</time></trkpt>
<trkpt lat="25.17267" lon="109.936875">
<time>2016-10-06T14:17:26Z</time></trkpt>
<trkpt lat="25.17275" lon="109.936755">
<time>2016-10-06T14:17:27Z</time></trkpt>
<trkpt lat="25.17287" lon="109.936616">
<time>2016-10-06T14:17:28Z</time></trkpt>
<trkpt lat="25.17297" lon="109.936506">
<time>2016-10-06T14:17:29Z</time></trkpt>
<trkpt lat="25.17307" lon="109.936396">
<time>2016-10-06T14:17:30Z</time></trkpt>
<trkpt lat="25.17312" lon="109.936326">
<time>2016-10-06T14:17:31Z</time></trkpt>
<trkpt lat="25.173151" lon="109.936256">
<time>2016-10-06T14:17:32Z</time></trkpt>
<trkpt lat="25.173171" lon="109.936166">
<time>2016-10-06T14:17:33Z</time></trkpt>
<trkpt lat="25.173171" lon="109.936077">
<time>2016-10-06T14:17:34Z</time></trkpt>
<trkpt lat="25.173161" lon="109.935987">
<time>2016-10-06T14:17:35Z</time></trkpt>
<trkpt lat="25.173131" lon="109.935897">
<time>2016-10-06T14:17:36Z</time></trkpt>
<trkpt lat="25.173071" lon="109.935817">
<time>2016-10-06T14:17:37Z</time></trkpt>
<trkpt lat="25.173001" lon="109.935737">
<time>2016-10-06T14:17:38Z</time></trkpt>
<trkpt lat="25.172922" lon="109.935677">
<time>2016-10-06T14:17:39Z</time></trkpt>
<trkpt lat="25.172762" lon="109.935587">
<time>2016-10-06T14:17:40Z</time></trkpt>
<trkpt lat="25.172692" lon="109.935567">
<time>2016-10-06T14:17:41Z</time></trkpt>
<trkpt lat="25.172602" lon="109.935558">
<time>2016-10-06T14:17:42Z</time></trkpt>
<trkpt lat="25.172542" lon="109.935558">
<time>2016-10-06T14:17:43Z</time></trkpt>
<trkpt lat="25.172422" lon="109.935577">
<time>2016-10-06T14:17:44Z</time></trkpt>
<trkpt lat="25.172212" lon="109.935617">
<time>2016-10-06T14:17:45Z</time></trkpt>
<trkpt lat="25.172082" lon="109.935637">
<time>2016-10-06T14:17:46Z</time></trkpt>
<trkpt lat="25.171982" lon="109.935637">
<time>2016-10-06T14:17:47Z</time></trkpt>
<trkpt lat="25.171862" lon="109.935617">
<time>2016-10-06T14:17:48Z</time></trkpt>
<trkpt lat="25.171722" lon="109.935597">
<time>2016-10-06T14:17:49Z</time></trkpt>
<trkpt lat="25.171492" lon="109.935518">
<time>2016-10-06T14:17:50Z</time></trkpt>
<trkpt lat="25.171382" lon="109.935488">
<time>2016-10-06T14:17:51Z</time></trkpt>
<trkpt lat="25.171362" lon="109.935468">
<time>2016-10-06T14:17:52Z</time></trkpt>
<trkpt lat="25.171282" lon="109.935428">
<time>2016-10-06T14:17:53Z</time></trkpt>
<trkpt lat="25.171192" lon="109.935358">
<time>2016-10-06T14:17:54Z</time></trkpt>
<trkpt lat="25.171132" lon="109.935298">
<time>2016-10-06T14:17:55Z</time></trkpt>
<trkpt lat="25.171042" lon="109.935178">
<time>2016-10-06T14:17:56Z</time></trkpt>
<trkpt lat="25.170863" lon="109.934849">
<time>2016-10-06T14:17:57Z</time></trkpt>
<trkpt lat="25.170793" lon="109.934759">
<time>2016-10-06T14:17:58Z</time></trkpt>
<trkpt lat="25.170753" lon="109.934699">
<time>2016-10-06T14:17:59Z</time></trkpt>
<trkpt lat="25.170693" lon="109.934649">
<time>2016-10-06T14:18:00Z</time></trkpt>
<trkpt lat="25.170623" lon="109.934609">
<time>2016-10-06T14:18:01Z</time></trkpt>
<trkpt lat="25.170544" lon="109.934569">
<time>2016-10-06T14:18:02Z</time></trkpt>
<trkpt lat="25.170414" lon="109.934539">
<time>2016-10-06T14:18:03Z</time></trkpt>
<trkpt lat="25.170304" lon="109.9345">
<time>2016-10-06T14:18:04Z</time></trkpt>
<trkpt lat="25.170214" lon="109.93445">
<time>2016-10-06T14:18:05Z</time></trkpt>
<trkpt lat="25.170154" lon="109.9344">
<time>2016-10-06T14:18:06Z</time></trkpt>
<trkpt lat="25.170084" lon="109.93431">
<time>2016-10-06T14:18:07Z</time></trkpt>
<trkpt lat="25.170034" lon="109.93423">
<time>2016-10-06T14:18:08Z</time></trkpt>
<trkpt lat="25.169944" lon="109.93403">
<time>2016-10-06T14:18:09Z</time></trkpt>
<trkpt lat="25.169875" lon="109.933931">
<time>2016-10-06T14:18:10Z</time></trkpt>
<trkpt lat="25.169825" lon="109.933881">
<time>2016-10-06T14:18:11Z</time></trkpt>
<trkpt lat="25.169765" lon="109.933841">
<time>2016-10-06T14:18:12Z</time></trkpt>
<trkpt lat="25.169695" lon="109.933811">
<time>2016-10-06T14:18:13Z</time></trkpt>
<trkpt lat="25.169625" lon="109.933791">
<time>2016-10-06T14:18:14Z</time></trkpt>
<trkpt lat="25.169495" lon="109.933801">
<time>2016-10-06T14:18:15Z</time></trkpt>
<trkpt lat="25.169275" lon="109.933841">
<time>2016-10-06T14:18:16Z</time></trkpt>
<trkpt lat="25.169055" lon="109.933881">
<time>2016-10-06T14:18:17Z</time></trkpt>
<trkpt lat="25.168945" lon="109.933921">
<time>2016-10-06T14:18:18Z</time></trkpt>
<trkpt lat="25.168845" lon="109.933971">
<time>2016-10-06T14:18:19Z</time></trkpt>
<trkpt lat="25.168714" lon="109.93406">
<time>2016-10-06T14:18:20Z</time></trkpt>
<trkpt lat="25.168574" lon="109.93415">
<time>2016-10-06T14:18:21Z</time></trkpt>
<trkpt lat="25.168464" lon="109.93421">
<time>2016-10-06T14:18:22Z</time></trkpt>
<trkpt lat="25.168364" lon="109.93424">
<time>2016-10-06T14:18:23Z</time></trkpt>
<trkpt lat="25.168264" lon="109.93427">
<time>2016-10-06T14:18:24Z</time></trkpt>
<trkpt lat="25.167914" lon="109.93436">
<time>2016-10-06T14:18:25Z</time></trkpt>
<trkpt lat="25.167644" lon="109.93442">
<time>2016-10-06T14:18:26Z</time></trkpt>
<trkpt lat="25.167554" lon="109.93444">
<time>2016-10-06T14:18:27Z</time></trkpt>
<trkpt lat="25.167414" lon="109.93444">
<time>2016-10-06T14:18:28Z</time></trkpt>
<trkpt lat="25.167224" lon="109.93444">
<time>2016-10-06T14:18:29Z</time></trkpt>
<trkpt lat="25.166944" lon="109.93442">
<time>2016-10-06T14:18:30Z</time></trkpt>
<trkpt lat="25.166784" lon="109.93439">
<time>2016-10-06T14:18:31Z</time></trkpt>
<trkpt lat="25.166704" lon="109.93437">
<time>2016-10-06T14:18:32Z</time></trkpt>
<trkpt lat="25.166664" lon="109.93436">
<time>2016-10-06T14:18:33Z</time></trkpt>
<trkpt lat="25.166604" lon="109.93434">
<time>2016-10-06T14:18:34Z</time></trkpt>
<trkpt lat="25.166554" lon="109.93432">
<time>2016-10-06T14:18:35Z</time></trkpt>
<trkpt lat="25.166524" lon="109.93429">
<time>2016-10-06T14:18:36Z</time></trkpt>
<trkpt lat="25.166484" lon="109.93426">
<time>2016-10-06T14:18:37Z</time></trkpt>
<trkpt lat="25.166424" lon="109.93421">
<time>2016-10-06T14:18:38Z</time></trkpt>
<trkpt lat="25.166364" lon="109.93414">
<time>2016-10-06T14:18:39Z</time></trkpt>
<trkpt lat="25.165995" lon="109.933721">
<time>2016-10-06T14:18:40Z</time></trkpt>
<trkpt lat="25.165716" lon="109.933432">
<time>2016-10-06T14:18:41Z</time></trkpt>
<trkpt lat="25.165097" lon="109.932863">
<time>2016-10-06T14:18:42Z</time></trkpt>
<trkpt lat="25.164837" lon="109.932663">
<time>2016-10-06T14:18:43Z</time></trkpt>
<trkpt lat="25.164707" lon="109.932583">
<time>2016-10-06T14:18:44Z</time></trkpt>
<trkpt lat="25.164637" lon="109.932553">
<time>2016-10-06T14:18:45Z</time></trkpt>
<trkpt lat="25.164587" lon="109.932533">
<time>2016-10-06T14:18:46Z</time></trkpt>
<trkpt lat="25.164527" lon="109.932533">
<time>2016-10-06T14:18:47Z</time></trkpt>
<trkpt lat="25.164477" lon="109.932523">
<time>2016-10-06T14:18:48Z</time></trkpt>
<trkpt lat="25.164427" lon="109.932523">
<time>2016-10-06T14:18:49Z</time></trkpt>
<trkpt lat="25.164367" lon="109.932533">
<time>2016-10-06T14:18:50Z</time></trkpt>
<trkpt lat="25.164297" lon="109.932543">
<time>2016-10-06T14:18:51Z</time></trkpt>
<trkpt lat="25.164197" lon="109.932563">
<time>2016-10-06T14:18:52Z</time></trkpt>
<trkpt lat="25.163917" lon="109.932633">
<time>2016-10-06T14:18:53Z</time></trkpt>
<trkpt lat="25.163847" lon="109.932643">
<time>2016-10-06T14:18:54Z</time></trkpt>
<trkpt lat="25.163797" lon="109.932643">
<time>2016-10-06T14:18:55Z</time></trkpt>
<trkpt lat="25.163747" lon="109.932643">
<time>2016-10-06T14:18:56Z</time></trkpt>
<trkpt lat="25.163677" lon="109.932623">
<time>2016-10-06T14:18:57Z</time></trkpt>
<trkpt lat="25.163597" lon="109.932603">
<time>2016-10-06T14:18:58Z</time></trkpt>
<trkpt lat="25.163507" lon="109.932563">
<time>2016-10-06T14:18:59Z</time></trkpt>
<trkpt lat="25.163007" lon="109.932364">
<time>2016-10-06T14:19:00Z</time></trkpt>
<trkpt lat="25.162928" lon="109.932334">
<time>2016-10-06T14:19:01Z</time></trkpt>
<trkpt lat="25.162838" lon="109.932324">
<time>2016-10-06T14:19:02Z</time></trkpt>
<trkpt lat="25.162748" lon="109.932314">
<time>2016-10-06T14:19:03Z</time></trkpt>
<trkpt lat="25.162688" lon="109.932314">
<time>2016-10-06T14:19:04Z</time></trkpt>
<trkpt lat="25.162628" lon="109.932324">
<time>2016-10-06T14:19:05Z</time></trkpt>
<trkpt lat="25.162507" lon="109.932364">
<time>2016-10-06T14:19:06Z</time></trkpt>
<trkpt lat="25.162407" lon="109.932394">
<time>2016-10-06T14:19:07Z</time></trkpt>
<trkpt lat="25.162377" lon="109.932404">
<time>2016-10-06T14:19:08Z</time></trkpt>
<trkpt lat="25.162327" lon="109.932414">
<time>2016-10-06T14:19:09Z</time></trkpt>
<trkpt lat="25.162287" lon="109.932424">
<time>2016-10-06T14:19:10Z</time></trkpt>
<trkpt lat="25.162237" lon="109.932424">
<time>2016-10-06T14:19:11Z</time></trkpt>
<trkpt lat="25.162177" lon="109.932414">
<time>2016-10-06T14:19:12Z</time></trkpt>
<trkpt lat="25.162137" lon="109.932394">
<time>2016-10-06T14:19:13Z</time></trkpt>
<trkpt lat="25.162088" lon="109.932354">
<time>2016-10-06T14:19:14Z</time></trkpt>
<trkpt lat="25.162038" lon="109.932314">
<time>2016-10-06T14:19:15Z</time></trkpt>
<trkpt lat="25.162008" lon="109.932264">
<time>2016-10-06T14:19:16Z</time></trkpt>
<trkpt lat="25.161988" lon="109.932224">
<time>2016-10-06T14:19:17Z</time></trkpt>
<trkpt lat="25.161978" lon="109.932154">
<time>2016-10-06T14:19:18Z</time></trkpt>
<trkpt lat="25.161968" lon="109.932084">
<time>2016-10-06T14:19:19Z</time></trkpt>
<trkpt lat="25.161939" lon="109.931715">
<time>2016-10-06T14:19:20Z</time></trkpt>
<trkpt lat="25.161929" lon="109.931615">
<time>2016-10-06T14:19:21Z</time></trkpt>
<trkpt lat="25.161909" lon="109.931535">
<time>2016-10-06T14:19:22Z</time></trkpt>
<trkpt lat="25.161869" lon="109.931455">
<time>2016-10-06T14:19:23Z</time></trkpt>
<trkpt lat="25.161829" lon="109.931375">
<time>2016-10-06T14:19:24Z</time></trkpt>
<trkpt lat="25.161779" lon="109.931315">
<time>2016-10-06T14:19:25Z</time></trkpt>
<trkpt lat="25.161709" lon="109.931246">
<time>2016-10-06T14:19:26Z</time></trkpt>
<trkpt lat="25.161649" lon="109.931196">
<time>2016-10-06T14:19:27Z</time></trkpt>
<trkpt lat="25.161599" lon="109.931156">
<time>2016-10-06T14:19:28Z</time></trkpt>
<trkpt lat="25.161539" lon="109.931136">
<time>2016-10-06T14:19:29Z</time></trkpt>
<trkpt lat="25.161469" lon="109.931116">
<time>2016-10-06T14:19:30Z</time></trkpt>
<trkpt lat="25.161389" lon="109.931106">
<time>2016-10-06T14:19:31Z</time></trkpt>
<trkpt lat="25.16126" lon="109.931086">
<time>2016-10-06T14:19:32Z</time></trkpt>
<trkpt lat="25.16091" lon="109.931056">
<time>2016-10-06T14:19:33Z</time></trkpt>
<trkpt lat="25.16085" lon="109.931046">
<time>2016-10-06T14:19:34Z</time></trkpt>
<trkpt lat="25.16079" lon="109.931026">
<time>2016-10-06T14:19:35Z</time></trkpt>
<trkpt lat="25.16076" lon="109.931016">
<time>2016-10-06T14:19:36Z</time></trkpt>
<trkpt lat="25.16072" lon="109.930996">
<time>2016-10-06T14:19:37Z</time></trkpt>
<trkpt lat="25.1607" lon="109.930976">
<time>2016-10-06T14:19:38Z</time></trkpt>
<trkpt lat="25.16068" lon="109.930936">
<time>2016-10-06T14:19:39Z</time></trkpt>
<trkpt lat="25.16066" lon="109.930906">
<time>2016-10-06T14:19:40Z</time></trkpt>
<trkpt lat="25.16065" lon="109.930886">
<time>2016-10-06T14:19:41Z</time></trkpt>
<trkpt lat="25.16064" lon="109.930846">
<time>2016-10-06T14:19:42Z</time></trkpt>
<trkpt lat="25.16063" lon="109.930796">
<time>2016-10-06T14:19:43Z</time></trkpt>
<trkpt lat="25.16063" lon="109.930756">
<time>2016-10-06T14:19:44Z</time></trkpt>
<trkpt lat="25.16063" lon="109.930617">
<time>2016-10-06T14:19:45Z</time></trkpt>
<trkpt lat="25.16063" lon="109.930537">
<time>2016-10-06T14:19:46Z</time></trkpt>
<trkpt lat="25.16062" lon="109.930447">
<time>2016-10-06T14:19:47Z</time></trkpt>
<trkpt lat="25.160611" lon="109.930387">
<time>2016-10-06T14:19:48Z</time></trkpt>
<trkpt lat="25.160591" lon="109.930317">
<time>2016-10-06T14:19:49Z</time></trkpt>
<trkpt lat="25.160561" lon="109.930257">
<time>2016-10-06T14:19:50Z</time></trkpt>
<trkpt lat="25.160521" lon="109.930187">
<time>2016-10-06T14:19:51Z</time></trkpt>
<trkpt lat="25.160401" lon="109.929998">
<time>2016-10-06T14:19:52Z</time></trkpt>
<trkpt lat="25.160261" lon="109.929818">
<time>2016-10-06T14:19:53Z</time></trkpt>
<trkpt lat="25.160182" lon="109.929718">
<time>2016-10-06T14:19:54Z</time></trkpt>
<trkpt lat="25.160132" lon="109.929668">
<time>2016-10-06T14:19:55Z</time></trkpt>
<trkpt lat="25.160092" lon="109.929638">
<time>2016-10-06T14:19:56Z</time></trkpt>
<trkpt lat="25.160052" lon="109.929598">
<time>2016-10-06T14:19:57Z</time></trkpt>
<trkpt lat="25.159982" lon="109.929558">
<time>2016-10-06T14:19:58Z</time></trkpt>
<trkpt lat="25.159892" lon="109.929498">
<time>2016-10-06T14:19:59Z</time></trkpt>
<trkpt lat="25.159532" lon="109.929309">
<time>2016-10-06T14:20:00Z</time></trkpt>
<trkpt lat="25.159392" lon="109.929219">
<time>2016-10-06T14:20:01Z</time></trkpt>
<trkpt lat="25.159322" lon="109.929179">
<time>2016-10-06T14:20:02Z</time></trkpt>
<trkpt lat="25.159272" lon="109.929119">
<time>2016-10-06T14:20:03Z</time></trkpt>
<trkpt lat="25.159243" lon="109.929069">
<time>2016-10-06T14:20:04Z</time></trkpt>
<trkpt lat="25.159223" lon="109.929029">
<time>2016-10-06T14:20:05Z</time></trkpt>
<trkpt lat="25.159203" lon="109.928989">
<time>2016-10-06T14:20:06Z</time></trkpt>
<trkpt lat="25.159193" lon="109.928949">
<time>2016-10-06T14:20:07Z</time></trkpt>
<trkpt lat="25.159193" lon="109.928909">
<time>2016-10-06T14:20:08Z</time></trkpt>
<trkpt lat="25.159193" lon="109.928839">
<time>2016-10-06T14:20:09Z</time></trkpt>
<trkpt lat="25.159203" lon="109.92881">
<time>2016-10-06T14:20:10Z</time></trkpt>
<trkpt lat="25.159203" lon="109.92878">
<time>2016-10-06T14:20:11Z</time></trkpt>
<trkpt lat="25.159223" lon="109.92873">
<time>2016-10-06T14:20:12Z</time></trkpt>
<trkpt lat="25.159233" lon="109.9287">
<time>2016-10-06T14:20:13Z</time></trkpt>
<trkpt lat="25.159273" lon="109.92864">
<time>2016-10-06T14:20:14Z</time></trkpt>
<trkpt lat="25.159293" lon="109.9286">
<time>2016-10-06T14:20:15Z</time></trkpt>
<trkpt lat="25.159413" lon="109.92844">
<time>2016-10-06T14:20:16Z</time></trkpt>
<trkpt lat="25.159494" lon="109.92834">
<time>2016-10-06T14:20:17Z</time></trkpt>
<trkpt lat="25.159534" lon="109.92826">
<time>2016-10-06T14:20:18Z</time></trkpt>
<trkpt lat="25.159564" lon="109.92819">
<time>2016-10-06T14:20:19Z</time></trkpt>
<trkpt lat="25.159584" lon="109.928111">
<time>2016-10-06T14:20:20Z</time></trkpt>
<trkpt lat="25.159594" lon="109.928041">
<time>2016-10-06T14:20:21Z</time></trkpt>
<trkpt lat="25.159594" lon="109.927981">
<time>2016-10-06T14:20:22Z</time></trkpt>
<trkpt lat="25.159584" lon="109.927681">
<time>2016-10-06T14:20:23Z</time></trkpt>
<trkpt lat="25.159585" lon="109.927521">
<time>2016-10-06T14:20:24Z</time></trkpt>
<trkpt lat="25.159595" lon="109.927392">
<time>2016-10-06T14:20:25Z</time></trkpt>
<trkpt lat="25.159615" lon="109.927322">
<time>2016-10-06T14:20:26Z</time></trkpt>
<trkpt lat="25.159635" lon="109.927262">
<time>2016-10-06T14:20:27Z</time></trkpt>
<trkpt lat="25.159655" lon="109.927222">
<time>2016-10-06T14:20:28Z</time></trkpt>
<trkpt lat="25.159685" lon="109.927182">
<time>2016-10-06T14:20:29Z</time></trkpt>
<trkpt lat="25.159715" lon="109.927152">
<time>2016-10-06T14:20:30Z</time></trkpt>
<trkpt lat="25.159765" lon="109.927122">
<time>2016-10-06T14:20:31Z</time></trkpt>
<trkpt lat="25.159805" lon="109.927102">
<time>2016-10-06T14:20:32Z</time></trkpt>
<trkpt lat="25.159845" lon="109.927092">
<time>2016-10-06T14:20:33Z</time></trkpt>
<trkpt lat="25.159905" lon="109.927082">
<time>2016-10-06T14:20:34Z</time></trkpt>
<trkpt lat="25.159965" lon="109.927072">
<time>2016-10-06T14:20:35Z</time></trkpt>
<trkpt lat="25.160065" lon="109.927082">
<time>2016-10-06T14:20:36Z</time></trkpt>
<trkpt lat="25.160405" lon="109.927122">
<time>2016-10-06T14:20:37Z</time></trkpt>
<trkpt lat="25.160645" lon="109.927162">
<time>2016-10-06T14:20:38Z</time></trkpt>
<trkpt lat="25.160765" lon="109.927202">
<time>2016-10-06T14:20:39Z</time></trkpt>
<trkpt lat="25.160875" lon="109.927242">
<time>2016-10-06T14:20:40Z</time></trkpt>
<trkpt lat="25.161005" lon="109.927302">
<time>2016-10-06T14:20:41Z</time></trkpt>
<trkpt lat="25.161095" lon="109.927342">
<time>2016-10-06T14:20:42Z</time></trkpt>
<trkpt lat="25.161155" lon="109.927352">
<time>2016-10-06T14:20:43Z</time></trkpt>
<trkpt lat="25.161195" lon="109.927362">
<time>2016-10-06T14:20:44Z</time></trkpt>
<trkpt lat="25.161245" lon="109.927352">
<time>2016-10-06T14:20:45Z</time></trkpt>
<trkpt lat="25.161285" lon="109.927342">
<time>2016-10-06T14:20:46Z</time></trkpt>
<trkpt lat="25.161335" lon="109.927332">
<time>2016-10-06T14:20:47Z</time></trkpt>
<trkpt lat="25.161375" lon="109.927302">
<time>2016-10-06T14:20:48Z</time></trkpt>
<trkpt lat="25.161425" lon="109.927252">
<time>2016-10-06T14:20:49Z</time></trkpt>
<trkpt lat="25.161495" lon="109.927192">
<time>2016-10-06T14:20:50Z</time></trkpt>
<trkpt lat="25.161745" lon="109.926902">
<time>2016-10-06T14:20:51Z</time></trkpt>
<trkpt lat="25.161946" lon="109.926662">
<time>2016-10-06T14:20:52Z</time></trkpt>
<trkpt lat="25.162036" lon="109.926513">
<time>2016-10-06T14:20:53Z</time></trkpt>
<trkpt lat="25.162066" lon="109.926453">
<time>2016-10-06T14:20:54Z</time></trkpt>
<trkpt lat="25.162096" lon="109.926363">
<time>2016-10-06T14:20:55Z</time></trkpt>
<trkpt lat="25.162106" lon="109.926233">
<time>2016-10-06T14:20:56Z</time></trkpt>
<trkpt lat="25.162126" lon="109.926073">
<time>2016-10-06T14:20:57Z</time></trkpt>
<trkpt lat="25.162147" lon="109.925774">
<time>2016-10-06T14:20:58Z</time></trkpt>
<trkpt lat="25.162157" lon="109.925334">
<time>2016-10-06T14:20:59Z</time></trkpt>
<trkpt lat="25.162188" lon="109.925005">
<time>2016-10-06T14:21:00Z</time></trkpt>
<trkpt lat="25.162208" lon="109.924915">
<time>2016-10-06T14:21:01Z</time></trkpt>
<trkpt lat="25.162238" lon="109.924835">
<time>2016-10-06T14:21:02Z</time></trkpt>
<trkpt lat="25.162268" lon="109.924775">
<time>2016-10-06T14:21:03Z</time></trkpt>
<trkpt lat="25.162328" lon="109.924685">
<time>2016-10-06T14:21:04Z</time></trkpt>
<trkpt lat="25.162368" lon="109.924625">
<time>2016-10-06T14:21:05Z</time></trkpt>
<trkpt lat="25.162468" lon="109.924515">
<time>2016-10-06T14:21:06Z</time></trkpt>
<trkpt lat="25.162658" lon="109.924356">
<time>2016-10-06T14:21:07Z</time></trkpt>
<trkpt lat="25.162749" lon="109.924286">
<time>2016-10-06T14:21:08Z</time></trkpt>
<trkpt lat="25.162839" lon="109.924246">
<time>2016-10-06T14:21:09Z</time></trkpt>
<trkpt lat="25.162919" lon="109.924216">
<time>2016-10-06T14:21:10Z</time></trkpt>
<trkpt lat="25.163019" lon="109.924196">
<time>2016-10-06T14:21:11Z</time></trkpt>
<trkpt lat="25.163429" lon="109.924176">
<time>2016-10-06T14:21:12Z</time></trkpt>
<trkpt lat="25.163559" lon="109.924156">
<time>2016-10-06T14:21:13Z</time></trkpt>
<trkpt lat="25.163699" lon="109.924116">
<time>2016-10-06T14:21:14Z</time></trkpt>
<trkpt lat="25.164389" lon="109.923896">
<time>2016-10-06T14:21:15Z</time></trkpt>
<trkpt lat="25.164449" lon="109.923866">
<time>2016-10-06T14:21:16Z</time></trkpt>
<trkpt lat="25.164489" lon="109.923836">
<time>2016-10-06T14:21:17Z</time></trkpt>
<trkpt lat="25.164519" lon="109.923816">
<time>2016-10-06T14:21:18Z</time></trkpt>
<trkpt lat="25.164559" lon="109.923766">
<time>2016-10-06T14:21:19Z</time></trkpt>
<trkpt lat="25.164589" lon="109.923726">
<time>2016-10-06T14:21:20Z</time></trkpt>
<trkpt lat="25.164609" lon="109.923676">
<time>2016-10-06T14:21:21Z</time></trkpt>
<trkpt lat="25.164609" lon="109.923616">
<time>2016-10-06T14:21:22Z</time></trkpt>
<trkpt lat="25.164609" lon="109.923576">
<time>2016-10-06T14:21:23Z</time></trkpt>
<trkpt lat="25.164599" lon="109.923526">
<time>2016-10-06T14:21:24Z</time></trkpt>
<trkpt lat="25.164569" lon="109.923457">
<time>2016-10-06T14:21:25Z</time></trkpt>
<trkpt lat="25.16452" lon="109.923347">
<time>2016-10-06T14:21:26Z</time></trkpt>
<trkpt lat="25.16443" lon="109.923197">
<time>2016-10-06T14:21:27Z</time></trkpt>
<trkpt lat="25.16437" lon="109.923107">
<time>2016-10-06T14:21:28Z</time></trkpt>
<trkpt lat="25.16432" lon="109.923057">
<time>2016-10-06T14:21:29Z</time></trkpt>
<trkpt lat="25.16427" lon="109.923007">
<time>2016-10-06T14:21:30Z</time></trkpt>
<trkpt lat="25.16413" lon="109.922897">
<time>2016-10-06T14:21:31Z</time></trkpt>
<trkpt lat="25.16407" lon="109.922837">
<time>2016-10-06T14:21:32Z</time></trkpt>
<trkpt lat="25.16404" lon="109.922797">
<time>2016-10-06T14:21:33Z</time></trkpt>
<trkpt lat="25.16402" lon="109.922747">
<time>2016-10-06T14:21:34Z</time></trkpt>
<trkpt lat="25.16401" lon="109.922697">
<time>2016-10-06T14:21:35Z</time></trkpt>
<trkpt lat="25.16402" lon="109.922648">
<time>2016-10-06T14:21:36Z</time></trkpt>
<trkpt lat="25.16403" lon="109.922598">
<time>2016-10-06T14:21:37Z</time></trkpt>
<trkpt lat="25.164061" lon="109.922548">
<time>2016-10-06T14:21:38Z</time></trkpt>
<trkpt lat="25.164081" lon="109.922508">
<time>2016-10-06T14:21:39Z</time></trkpt>
<trkpt lat="25.164231" lon="109.922338">
<time>2016-10-06T14:21:40Z</time></trkpt>
<trkpt lat="25.164281" lon="109.922258">
<time>2016-10-06T14:21:41Z</time></trkpt>
<trkpt lat="25.164321" lon="109.922188">
<time>2016-10-06T14:21:42Z</time></trkpt>
<trkpt lat="25.164361" lon="109.922098">
<time>2016-10-06T14:21:43Z</time></trkpt>
<trkpt lat="25.164401" lon="109.921968">
<time>2016-10-06T14:21:44Z</time></trkpt>
<trkpt lat="25.164461" lon="109.921719">
<time>2016-10-06T14:21:45Z</time></trkpt>
<trkpt lat="25.164481" lon="109.921639">
<time>2016-10-06T14:21:46Z</time></trkpt>
<trkpt lat="25.164482" lon="109.921579">
<time>2016-10-06T14:21:47Z</time></trkpt>
<trkpt lat="25.164482" lon="109.921519">
<time>2016-10-06T14:21:48Z</time></trkpt>
<trkpt lat="25.164472" lon="109.921479">
<time>2016-10-06T14:21:49Z</time></trkpt>
<trkpt lat="25.164452" lon="109.921439">
<time>2016-10-06T14:21:50Z</time></trkpt>
<trkpt lat="25.164432" lon="109.921409">
<time>2016-10-06T14:21:51Z</time></trkpt>
<trkpt lat="25.164402" lon="109.921379">
<time>2016-10-06T14:21:52Z</time></trkpt>
<trkpt lat="25.164372" lon="109.921359">
<time>2016-10-06T14:21:53Z</time></trkpt>
<trkpt lat="25.164342" lon="109.921349">
<time>2016-10-06T14:21:54Z</time></trkpt>
<trkpt lat="25.164302" lon="109.921339">
<time>2016-10-06T14:21:55Z</time></trkpt>
<trkpt lat="25.164262" lon="109.921329">
<time>2016-10-06T14:21:56Z</time></trkpt>
<trkpt lat="25.164222" lon="109.921319">
<time>2016-10-06T14:21:57Z</time></trkpt>
<trkpt lat="25.164182" lon="109.921319">
<time>2016-10-06T14:21:58Z</time></trkpt>
<trkpt lat="25.164112" lon="109.921329">
<time>2016-10-06T14:21:59Z</time></trkpt>
<trkpt lat="25.163932" lon="109.921349">
<time>2016-10-06T14:22:00Z</time></trkpt>
<trkpt lat="25.163852" lon="109.921349">
<time>2016-10-06T14:22:01Z</time></trkpt>
<trkpt lat="25.163812" lon="109.921339">
<time>2016-10-06T14:22:02Z</time></trkpt>
<trkpt lat="25.163772" lon="109.921329">
<time>2016-10-06T14:22:03Z</time></trkpt>
<trkpt lat="25.163732" lon="109.921309">
<time>2016-10-06T14:22:04Z</time></trkpt>
<trkpt lat="25.163692" lon="109.921269">
<time>2016-10-06T14:22:05Z</time></trkpt>
<trkpt lat="25.163672" lon="109.921249">
<time>2016-10-06T14:22:06Z</time></trkpt>
<trkpt lat="25.163652" lon="109.921199">
<time>2016-10-06T14:22:07Z</time></trkpt>
<trkpt lat="25.163632" lon="109.921139">
<time>2016-10-06T14:22:08Z</time></trkpt>
<trkpt lat="25.163592" lon="109.92099">
<time>2016-10-06T14:22:09Z</time></trkpt>
<trkpt lat="25.163562" lon="109.92086">
<time>2016-10-06T14:22:10Z</time></trkpt>
<trkpt lat="25.163532" lon="109.9208">
<time>2016-10-06T14:22:11Z</time></trkpt>
<trkpt lat="25.163503" lon="109.92075">
<time>2016-10-06T14:22:12Z</time></trkpt>
<trkpt lat="25.163473" lon="109.9207">
<time>2016-10-06T14:22:13Z</time></trkpt>
<trkpt lat="25.163433" lon="109.92065">
<time>2016-10-06T14:22:14Z</time></trkpt>
<trkpt lat="25.163343" lon="109.92055">
<time>2016-10-06T14:22:15Z</time></trkpt>
<trkpt lat="25.163263" lon="109.92046">
<time>2016-10-06T14:22:16Z</time></trkpt>
<trkpt lat="25.163233" lon="109.92041">
<time>2016-10-06T14:22:17Z</time></trkpt>
<trkpt lat="25.163203" lon="109.92036">
<time>2016-10-06T14:22:18Z</time></trkpt>
<trkpt lat="25.163193" lon="109.92032">
<time>2016-10-06T14:22:19Z</time></trkpt>
<trkpt lat="25.163193" lon="109.92027">
<time>2016-10-06T14:22:20Z</time></trkpt>
<trkpt lat="25.163193" lon="109.92022">
<time>2016-10-06T14:22:21Z</time></trkpt>
<trkpt lat="25.163203" lon="109.92017">
<time>2016-10-06T14:22:22Z</time></trkpt>
<trkpt lat="25.163434" lon="109.919371">
<time>2016-10-06T14:22:23Z</time></trkpt>
<trkpt lat="25.163534" lon="109.919082">
<time>2016-10-06T14:22:24Z</time></trkpt>
<trkpt lat="25.163594" lon="109.918982">
<time>2016-10-06T14:22:25Z</time></trkpt>
<trkpt lat="25.163664" lon="109.918922">
<time>2016-10-06T14:22:26Z</time></trkpt>
<trkpt lat="25.163744" lon="109.918862">
<time>2016-10-06T14:22:27Z</time></trkpt>
<trkpt lat="25.163824" lon="109.918842">
<time>2016-10-06T14:22:28Z</time></trkpt>
<trkpt lat="25.163924" lon="109.918832">
<time>2016-10-06T14:22:29Z</time></trkpt>
<trkpt lat="25.164014" lon="109.918832">
<time>2016-10-06T14:22:30Z</time></trkpt>
<trkpt lat="25.164314" lon="109.918862">
<time>2016-10-06T14:22:31Z</time></trkpt>
<trkpt lat="25.164424" lon="109.918862">
<time>2016-10-06T14:22:32Z</time></trkpt>
<trkpt lat="25.164524" lon="109.918822">
<time>2016-10-06T14:22:33Z</time></trkpt>
<trkpt lat="25.164644" lon="109.918772">
<time>2016-10-06T14:22:34Z</time></trkpt>
<trkpt lat="25.164744" lon="109.918692">
<time>2016-10-06T14:22:35Z</time></trkpt>
<trkpt lat="25.164855" lon="109.918602">
<time>2016-10-06T14:22:36Z</time></trkpt>
<trkpt lat="25.165185" lon="109.918172">
<time>2016-10-06T14:22:37Z</time></trkpt>
<trkpt lat="25.165425" lon="109.917933">
<time>2016-10-06T14:22:38Z</time></trkpt>
<trkpt lat="25.165495" lon="109.917843">
<time>2016-10-06T14:22:39Z</time></trkpt>
<trkpt lat="25.165525" lon="109.917773">
<time>2016-10-06T14:22:40Z</time></trkpt>
<trkpt lat="25.165535" lon="109.917723">
<time>2016-10-06T14:22:41Z</time></trkpt>
<trkpt lat="25.165545" lon="109.917653">
<time>2016-10-06T14:22:42Z</time></trkpt>
<trkpt lat="25.165525" lon="109.917603">
<time>2016-10-06T14:22:43Z</time></trkpt>
<trkpt lat="25.165506" lon="109.917543">
<time>2016-10-06T14:22:44Z</time></trkpt>
<trkpt lat="25.165476" lon="109.917503">
<time>2016-10-06T14:22:45Z</time></trkpt>
<trkpt lat="25.165426" lon="109.917453">
<time>2016-10-06T14:22:46Z</time></trkpt>
<trkpt lat="25.165366" lon="109.917423">
<time>2016-10-06T14:22:47Z</time></trkpt>
<trkpt lat="25.165296" lon="109.917393">
<time>2016-10-06T14:22:48Z</time></trkpt>
<trkpt lat="25.165216" lon="109.917383">
<time>2016-10-06T14:22:49Z</time></trkpt>
<trkpt lat="25.165126" lon="109.917383">
<time>2016-10-06T14:22:50Z</time></trkpt>
<trkpt lat="25.164906" lon="109.917403">
<time>2016-10-06T14:22:51Z</time></trkpt>
<trkpt lat="25.164836" lon="109.917403">
<time>2016-10-06T14:22:52Z</time></trkpt>
<trkpt lat="25.164776" lon="109.917393">
<time>2016-10-06T14:22:53Z</time></trkpt>
<trkpt lat="25.164726" lon="109.917373">
<time>2016-10-06T14:22:54Z</time></trkpt>
<trkpt lat="25.164696" lon="109.917353">
<time>2016-10-06T14:22:55Z</time></trkpt>
<trkpt lat="25.164656" lon="109.917313">
<time>2016-10-06T14:22:56Z</time></trkpt>
<trkpt lat="25.164636" lon="109.917263">
<time>2016-10-06T14:22:57Z</time></trkpt>
<trkpt lat="25.164616" lon="109.917213">
<time>2016-10-06T14:22:58Z</time></trkpt>
<trkpt lat="25.164616" lon="109.917153">
<time>2016-10-06T14:22:59Z</time></trkpt>
<trkpt lat="25.164606" lon="109.916934">
<time>2016-10-06T14:23:00Z</time></trkpt>
<trkpt lat="25.164606" lon="109.916844">
<time>2016-10-06T14:23:01Z</time></trkpt>
<trkpt lat="25.164586" lon="109.916784">
<time>2016-10-06T14:23:02Z</time></trkpt>
<trkpt lat="25.164546" lon="109.916624">
<time>2016-10-06T14:23:03Z</time></trkpt>
<trkpt lat="25.164496" lon="109.916494">
<time>2016-10-06T14:23:04Z</time></trkpt>
<trkpt lat="25.164467" lon="109.916344">
<time>2016-10-06T14:23:05Z</time></trkpt>
<trkpt lat="25.164457" lon="109.916254">
<time>2016-10-06T14:23:06Z</time></trkpt>
<trkpt lat="25.164447" lon="109.916194">
<time>2016-10-06T14:23:07Z</time></trkpt>
<trkpt lat="25.164447" lon="109.916024">
<time>2016-10-06T14:23:08Z</time></trkpt>
<trkpt lat="25.164437" lon="109.915915">
<time>2016-10-06T14:23:09Z</time></trkpt>
<trkpt lat="25.164407" lon="109.915675">
<time>2016-10-06T14:23:10Z</time></trkpt>
<trkpt lat="25.164397" lon="109.915605">
<time>2016-10-06T14:23:11Z</time></trkpt>
<trkpt lat="25.164407" lon="109.915535">
<time>2016-10-06T14:23:12Z</time></trkpt>
<trkpt lat="25.164417" lon="109.915485">
<time>2016-10-06T14:23:13Z</time></trkpt>
<trkpt lat="25.164447" lon="109.915435">
<time>2016-10-06T14:23:14Z</time></trkpt>
<trkpt lat="25.164477" lon="109.915405">
<time>2016-10-06T14:23:15Z</time></trkpt>
<trkpt lat="25.164517" lon="109.915385">
<time>2016-10-06T14:23:16Z</time></trkpt>
<trkpt lat="25.164547" lon="109.915375">
<time>2016-10-06T14:23:17Z</time></trkpt>
<trkpt lat="25.164587" lon="109.915365">
<time>2016-10-06T14:23:18Z</time></trkpt>
<trkpt lat="25.164657" lon="109.915365">
<time>2016-10-06T14:23:19Z</time></trkpt>
<trkpt lat="25.164747" lon="109.915365">
<time>2016-10-06T14:23:20Z</time></trkpt>
<trkpt lat="25.164787" lon="109.915355">
<time>2016-10-06T14:23:21Z</time></trkpt>
<trkpt lat="25.164847" lon="109.915345">
<time>2016-10-06T14:23:22Z</time></trkpt>
<trkpt lat="25.164887" lon="109.915325">
<time>2016-10-06T14:23:23Z</time></trkpt>
<trkpt lat="25.164937" lon="109.915275">
<time>2016-10-06T14:23:24Z</time></trkpt>
<trkpt lat="25.164988" lon="109.915215">
<time>2016-10-06T14:23:25Z</time></trkpt>
<trkpt lat="25.165028" lon="109.915155">
<time>2016-10-06T14:23:26Z</time></trkpt>
<trkpt lat="25.165058" lon="109.915085">
<time>2016-10-06T14:23:27Z</time></trkpt>
<trkpt lat="25.165138" lon="109.914875">
<time>2016-10-06T14:23:28Z</time></trkpt>
<trkpt lat="25.165178" lon="109.914726">
<time>2016-10-06T14:23:29Z</time></trkpt>
<trkpt lat="25.165208" lon="109.914586">
<time>2016-10-06T14:23:30Z</time></trkpt>
<trkpt lat="25.165238" lon="109.914406">
<time>2016-10-06T14:23:31Z</time></trkpt>
<trkpt lat="25.165258" lon="109.914336">
<time>2016-10-06T14:23:32Z</time></trkpt>
<trkpt lat="25.165278" lon="109.914286">
<time>2016-10-06T14:23:33Z</time></trkpt>
<trkpt lat="25.165298" lon="109.914246">
<time>2016-10-06T14:23:34Z</time></trkpt>
<trkpt lat="25.165338" lon="109.914216">
<time>2016-10-06T14:23:35Z</time></trkpt>
<trkpt lat="25.165368" lon="109.914196">
<time>2016-10-06T14:23:36Z</time></trkpt>
<trkpt lat="25.165398" lon="109.914176">
<time>2016-10-06T14:23:37Z</time></trkpt>
<trkpt lat="25.165448" lon="109.914166">
<time>2016-10-06T14:23:38Z</time></trkpt>
<trkpt lat="25.165568" lon="109.914146">
<time>2016-10-06T14:23:39Z</time></trkpt>
<trkpt lat="25.165618" lon="109.914116">
<time>2016-10-06T14:23:40Z</time></trkpt>
<trkpt lat="25.165658" lon="109.914086">
<time>2016-10-06T14:23:41Z</time></trkpt>
<trkpt lat="25.165698" lon="109.914046">
<time>2016-10-06T14:23:42Z</time></trkpt>
<trkpt lat="25.165718" lon="109.913996">
<time>2016-10-06T14:23:43Z</time></trkpt>
<trkpt lat="25.165738" lon="109.913956">
<time>2016-10-06T14:23:44Z</time></trkpt>
<trkpt lat="25.165758" lon="109.913906">
<time>2016-10-06T14:23:45Z</time></trkpt>
<trkpt lat="25.165758" lon="109.913866">
<time>2016-10-06T14:23:46Z</time></trkpt>
<trkpt lat="25.165769" lon="109.913806">
<time>2016-10-06T14:23:47Z</time></trkpt>
<trkpt lat="25.165759" lon="109.913646">
<time>2016-10-06T14:23:48Z</time></trkpt>
<trkpt lat="25.165759" lon="109.913546">
<time>2016-10-06T14:23:49Z</time></trkpt>
<trkpt lat="25.165739" lon="109.913446">
<time>2016-10-06T14:23:50Z</time></trkpt>
<trkpt lat="25.165719" lon="109.913377">
<time>2016-10-06T14:23:51Z</time></trkpt>
<trkpt lat="25.165679" lon="109.913307">
<time>2016-10-06T14:23:52Z</time></trkpt>
<trkpt lat="25.165649" lon="109.913267">
<time>2016-10-06T14:23:53Z</time></trkpt>
<trkpt lat="25.165609" lon="109.913227">
<time>2016-10-06T14:23:54Z</time></trkpt>
<trkpt lat="25.165559" lon="109.913197">
<time>2016-10-06T14:23:55Z</time></trkpt>
<trkpt lat="25.165439" lon="109.913127">
<time>2016-10-06T14:23:56Z</time></trkpt>
<trkpt lat="25.165369" lon="109.913067">
<time>2016-10-06T14:23:57Z</time></trkpt>
<trkpt lat="25.165329" lon="109.913007">
<time>2016-10-06T14:23:58Z</time></trkpt>
<trkpt lat="25.165319" lon="109.912957">
<time>2016-10-06T14:23:59Z</time></trkpt>
<trkpt lat="25.165309" lon="109.912907">
<time>2016-10-06T14:24:00Z</time></trkpt>
<trkpt lat="25.165319" lon="109.912857">
<time>2016-10-06T14:24:01Z</time></trkpt>
<trkpt lat="25.165329" lon="109.912807">
<time>2016-10-06T14:24:02Z</time></trkpt>
<trkpt lat="25.165359" lon="109.912757">
<time>2016-10-06T14:24:03Z</time></trkpt>
<trkpt lat="25.165389" lon="109.912707">
<time>2016-10-06T14:24:04Z</time></trkpt>
<trkpt lat="25.165779" lon="109.912487">
<time>2016-10-06T14:24:05Z</time></trkpt>
<trkpt lat="25.16616" lon="109.912257">
<time>2016-10-06T14:24:06Z</time></trkpt>
<trkpt lat="25.16632" lon="109.912147">
<time>2016-10-06T14:24:07Z</time></trkpt>
<trkpt lat="25.16663" lon="109.911908">
<time>2016-10-06T14:24:08Z</time></trkpt>
<trkpt lat="25.16667" lon="109.911868">
<time>2016-10-06T14:24:09Z</time></trkpt>
<trkpt lat="25.16679" lon="109.911778">
<time>2016-10-06T14:24:10Z</time></trkpt>
<trkpt lat="25.16685" lon="109.911728">
<time>2016-10-06T14:24:11Z</time></trkpt>
<trkpt lat="25.16692" lon="109.911648">
<time>2016-10-06T14:24:12Z</time></trkpt>
<trkpt lat="25.16706" lon="109.911448">
<time>2016-10-06T14:24:13Z</time></trkpt>
<trkpt lat="25.16723" lon="109.911188">
<time>2016-10-06T14:24:14Z</time></trkpt>
<trkpt lat="25.16738" lon="109.910928">
<time>2016-10-06T14:24:15Z</time></trkpt>
<trkpt lat="25.16744" lon="109.910818">
<time>2016-10-06T14:24:16Z</time></trkpt>
<trkpt lat="25.16748" lon="109.910728">
<time>2016-10-06T14:24:17Z</time></trkpt>
<trkpt lat="25.167501" lon="109.910688">
<time>2016-10-06T14:24:18Z</time></trkpt>
<trkpt lat="25.167541" lon="109.910638">
<time>2016-10-06T14:24:19Z</time></trkpt>
<trkpt lat="25.167571" lon="109.910598">
<time>2016-10-06T14:24:20Z</time></trkpt>
<trkpt lat="25.167591" lon="109.910578">
<time>2016-10-06T14:24:21Z</time></trkpt>
<trkpt lat="25.167631" lon="109.910558">
<time>2016-10-06T14:24:22Z</time></trkpt>
<trkpt lat="25.167681" lon="109.910538">
<time>2016-10-06T14:24:23Z</time></trkpt>
<trkpt lat="25.167731" lon="109.910528">
<time>2016-10-06T14:24:24Z</time></trkpt>
<trkpt lat="25.167771" lon="109.910528">
<time>2016-10-06T14:24:25Z</time></trkpt>
<trkpt lat="25.167811" lon="109.910548">
<time>2016-10-06T14:24:26Z</time></trkpt>
<trkpt lat="25.167851" lon="109.910568">
<time>2016-10-06T14:24:27Z</time></trkpt>
<trkpt lat="25.167881" lon="109.910588">
<time>2016-10-06T14:24:28Z</time></trkpt>
<trkpt lat="25.167901" lon="109.910618">
<time>2016-10-06T14:24:29Z</time></trkpt>
<trkpt lat="25.167921" lon="109.910638">
<time>2016-10-06T14:24:30Z</time></trkpt>
<trkpt lat="25.16794" lon="109.910678">
<time>2016-10-06T14:24:31Z</time></trkpt>
<trkpt lat="25.16801" lon="109.910888">
<time>2016-10-06T14:24:32Z</time></trkpt>
<trkpt lat="25.16807" lon="109.911048">
<time>2016-10-06T14:24:33Z</time></trkpt>
<trkpt lat="25.1681" lon="109.911108">
<time>2016-10-06T14:24:34Z</time></trkpt>
<trkpt lat="25.16813" lon="109.911148">
<time>2016-10-06T14:24:35Z</time></trkpt>
<trkpt lat="25.16817" lon="109.911198">
<time>2016-10-06T14:24:36Z</time></trkpt>
<trkpt lat="25.16822" lon="109.911248">
<time>2016-10-06T14:24:37Z</time></trkpt>
<trkpt lat="25.16826" lon="109.911288">
<time>2016-10-06T14:24:38Z</time></trkpt>
<trkpt lat="25.1683" lon="109.911318">
<time>2016-10-06T14:24:39Z</time></trkpt>
<trkpt lat="25.16834" lon="109.911338">
<time>2016-10-06T14:24:40Z</time></trkpt>
<trkpt lat="25.16838" lon="109.911348">
<time>2016-10-06T14:24:41Z</time></trkpt>
<trkpt lat="25.16843" lon="109.911358">
<time>2016-10-06T14:24:42Z</time></trkpt>
<trkpt lat="25.16847" lon="109.911368">
<time>2016-10-06T14:24:43Z</time></trkpt>
<trkpt lat="25.16853" lon="109.911358">
<time>2016-10-06T14:24:44Z</time></trkpt>
<trkpt lat="25.16857" lon="109.911348">
<time>2016-10-06T14:24:45Z</time></trkpt>
<trkpt lat="25.16861" lon="109.911338">
<time>2016-10-06T14:24:46Z</time></trkpt>
<trkpt lat="25.16867" lon="109.911308">
<time>2016-10-06T14:24:47Z</time></trkpt>
<trkpt lat="25.16871" lon="109.911278">
<time>2016-10-06T14:24:48Z</time></trkpt>
<trkpt lat="25.16876" lon="109.911238">
<time>2016-10-06T14:24:49Z</time></trkpt>
<trkpt lat="25.16881" lon="109.911188">
<time>2016-10-06T14:24:50Z</time></trkpt>
<trkpt lat="25.16885" lon="109.911148">
<time>2016-10-06T14:24:51Z</time></trkpt>
<trkpt lat="25.16888" lon="109.911098">
<time>2016-10-06T14:24:52Z</time></trkpt>
<trkpt lat="25.1689" lon="109.911058">
<time>2016-10-06T14:24:53Z</time></trkpt>
<trkpt lat="25.16891" lon="109.911018">
<time>2016-10-06T14:24:54Z</time></trkpt>
<trkpt lat="25.16891" lon="109.910988">
<time>2016-10-06T14:24:55Z</time></trkpt>
<trkpt lat="25.16891" lon="109.910958">
<time>2016-10-06T14:24:56Z</time></trkpt>
<trkpt lat="25.16891" lon="109.910898">
<time>2016-10-06T14:24:57Z</time></trkpt>
<trkpt lat="25.1689" lon="109.910838">
<time>2016-10-06T14:24:58Z</time></trkpt>
<trkpt lat="25.16885" lon="109.910598">
<time>2016-10-06T14:24:59Z</time></trkpt>
<trkpt lat="25.168841" lon="109.910398">
<time>2016-10-06T14:25:00Z</time></trkpt>
<trkpt lat="25.168841" lon="109.910328">
<time>2016-10-06T14:25:01Z</time></trkpt>
<trkpt lat="25.168851" lon="109.910288">
<time>2016-10-06T14:25:02Z</time></trkpt>
<trkpt lat="25.168851" lon="109.910268">
<time>2016-10-06T14:25:03Z</time></trkpt>
<trkpt lat="25.168861" lon="109.910238">
<time>2016-10-06T14:25:04Z</time></trkpt>
<trkpt lat="25.168881" lon="109.910198">
<time>2016-10-06T14:25:05Z</time></trkpt>
<trkpt lat="25.168981" lon="109.910009">
<time>2016-10-06T14:25:06Z</time></trkpt>
<trkpt lat="25.169021" lon="109.909919">
<time>2016-10-06T14:25:07Z</time></trkpt>
<trkpt lat="25.169031" lon="109.909879">
<time>2016-10-06T14:25:08Z</time></trkpt>
<trkpt lat="25.169041" lon="109.909829">
<time>2016-10-06T14:25:09Z</time></trkpt>
<trkpt lat="25.169051" lon="109.909779">
<time>2016-10-06T14:25:10Z</time></trkpt>
<trkpt lat="25.169041" lon="109.909719">
<time>2016-10-06T14:25:11Z</time></trkpt>
<trkpt lat="25.169031" lon="109.909629">
<time>2016-10-06T14:25:12Z</time></trkpt>
<trkpt lat="25.168991" lon="109.909519">
<time>2016-10-06T14:25:13Z</time></trkpt>
<trkpt lat="25.168961" lon="109.909419">
<time>2016-10-06T14:25:14Z</time></trkpt>
<trkpt lat="25.168931" lon="109.909359">
<time>2016-10-06T14:25:15Z</time></trkpt>
<trkpt lat="25.168901" lon="109.909309">
<time>2016-10-06T14:25:16Z</time></trkpt>
<trkpt lat="25.168891" lon="109.909299">
<time>2016-10-06T14:25:17Z</time></trkpt>
<trkpt lat="25.168851" lon="109.909249">
<time>2016-10-06T14:25:18Z</time></trkpt>
<trkpt lat="25.168811" lon="109.909219">
<time>2016-10-06T14:25:19Z</time></trkpt>
<trkpt lat="25.168761" lon="109.909189">
<time>2016-10-06T14:25:20Z</time></trkpt>
<trkpt lat="25.168711" lon="109.909169">
<time>2016-10-06T14:25:21Z</time></trkpt>
<trkpt lat="25.168651" lon="109.909169">
<time>2016-10-06T14:25:22Z</time></trkpt>
<trkpt lat="25.168581" lon="109.909169">
<time>2016-10-06T14:25:23Z</time></trkpt>
<trkpt lat="25.168421" lon="109.909189">
<time>2016-10-06T14:25:24Z</time></trkpt>
<trkpt lat="25.168311" lon="109.909189">
<time>2016-10-06T14:25:25Z</time></trkpt>
<trkpt lat="25.168131" lon="109.909179">
<time>2016-10-06T14:25:26Z</time></trkpt>
<trkpt lat="25.168021" lon="109.909159">
<time>2016-10-06T14:25:27Z</time></trkpt>
<trkpt lat="25.167921" lon="109.909129">
<time>2016-10-06T14:25:28Z</time></trkpt>
<trkpt lat="25.167831" lon="109.909079">
<time>2016-10-06T14:25:29Z</time></trkpt>
<trkpt lat="25.167731" lon="109.908999">
<time>2016-10-06T14:25:30Z</time></trkpt>
<trkpt lat="25.167611" lon="109.908879">
<time>2016-10-06T14:25:31Z</time></trkpt>
<trkpt lat="25.167482" lon="109.908709">
<time>2016-10-06T14:25:32Z</time></trkpt>
<trkpt lat="25.167332" lon="109.90852">
<time>2016-10-06T14:25:33Z</time></trkpt>
<trkpt lat="25.167182" lon="109.90835">
<time>2016-10-06T14:25:34Z</time></trkpt>
<trkpt lat="25.167082" lon="109.90825">
<time>2016-10-06T14:25:35Z</time></trkpt>
<trkpt lat="25.166982" lon="109.90817">
<time>2016-10-06T14:25:36Z</time></trkpt>
<trkpt lat="25.166892" lon="109.90813">
<time>2016-10-06T14:25:37Z</time></trkpt>
<trkpt lat="25.166802" lon="109.90809">
<time>2016-10-06T14:25:38Z</time></trkpt>
<trkpt lat="25.166762" lon="109.90808">
<time>2016-10-06T14:25:39Z</time></trkpt>
<trkpt lat="25.166742" lon="109.90808">
<time>2016-10-06T14:25:40Z</time></trkpt>
<trkpt lat="25.166712" lon="109.90808">
<time>2016-10-06T14:25:41Z</time></trkpt>
<trkpt lat="25.166692" lon="109.90808">
<time>2016-10-06T14:25:42Z</time></trkpt>
<trkpt lat="25.166672" lon="109.90808">
<time>2016-10-06T14:25:43Z</time></trkpt>
<trkpt lat="25.166532" lon="109.90808">
<time>2016-10-06T14:25:44Z</time></trkpt>
<trkpt lat="25.166432" lon="109.9081">
<time>2016-10-06T14:25:45Z</time></trkpt>
<trkpt lat="25.166352" lon="109.90812">
<time>2016-10-06T14:25:46Z</time></trkpt>
<trkpt lat="25.166302" lon="109.90814">
<time>2016-10-06T14:25:47Z</time></trkpt>
<trkpt lat="25.166032" lon="109.90827">
<time>2016-10-06T14:25:48Z</time></trkpt>
<trkpt lat="25.165682" lon="109.90851">
<time>2016-10-06T14:25:49Z</time></trkpt>
<trkpt lat="25.165272" lon="109.908799">
<time>2016-10-06T14:25:50Z</time></trkpt>
<trkpt lat="25.165032" lon="109.908969">
<time>2016-10-06T14:25:51Z</time></trkpt>
<trkpt lat="25.164962" lon="109.909039">
<time>2016-10-06T14:25:52Z</time></trkpt>
<trkpt lat="25.164882" lon="109.909139">
<time>2016-10-06T14:25:53Z</time></trkpt>
<trkpt lat="25.164801" lon="109.909269">
<time>2016-10-06T14:25:54Z</time></trkpt>
<trkpt lat="25.164741" lon="109.909419">
<time>2016-10-06T14:25:55Z</time></trkpt>
<trkpt lat="25.164641" lon="109.909679">
<time>2016-10-06T14:25:56Z</time></trkpt>
<trkpt lat="25.164561" lon="109.909869">
<time>2016-10-06T14:25:57Z</time></trkpt>
<trkpt lat="25.164491" lon="109.909989">
<time>2016-10-06T14:25:58Z</time></trkpt>
<trkpt lat="25.164411" lon="109.910089">
<time>2016-10-06T14:25:59Z</time></trkpt>
<trkpt lat="25.164331" lon="109.910169">
<time>2016-10-06T14:26:00Z</time></trkpt>
<trkpt lat="25.164261" lon="109.910229">
<time>2016-10-06T14:26:01Z</time></trkpt>
<trkpt lat="25.164171" lon="109.910289">
<time>2016-10-06T14:26:02Z</time></trkpt>
<trkpt lat="25.164111" lon="109.910319">
<time>2016-10-06T14:26:03Z</time></trkpt>
<trkpt lat="25.164051" lon="109.910339">
<time>2016-10-06T14:26:04Z</time></trkpt>
<trkpt lat="25.163981" lon="109.910359">
<time>2016-10-06T14:26:05Z</time></trkpt>
<trkpt lat="25.163911" lon="109.910379">
<time>2016-10-06T14:26:06Z</time></trkpt>
<trkpt lat="25.163841" lon="109.910389">
<time>2016-10-06T14:26:07Z</time></trkpt>
<trkpt lat="25.163731" lon="109.910389">
<time>2016-10-06T14:26:08Z</time></trkpt>
<trkpt lat="25.163561" lon="109.910369">
<time>2016-10-06T14:26:09Z</time></trkpt>
<trkpt lat="25.163381" lon="109.910349">
<time>2016-10-06T14:26:10Z</time></trkpt>
<trkpt lat="25.163071" lon="109.910299">
<time>2016-10-06T14:26:11Z</time></trkpt>
<trkpt lat="25.162981" lon="109.910299">
<time>2016-10-06T14:26:12Z</time></trkpt>
<trkpt lat="25.162881" lon="109.910299">
<time>2016-10-06T14:26:13Z</time></trkpt>
<trkpt lat="25.162741" lon="109.910309">
<time>2016-10-06T14:26:14Z</time></trkpt>
<trkpt lat="25.162481" lon="109.910359">
<time>2016-10-06T14:26:15Z</time></trkpt>
<trkpt lat="25.162371" lon="109.910369">
<time>2016-10-06T14:26:16Z</time></trkpt>
<trkpt lat="25.162311" lon="109.910379">
<time>2016-10-06T14:26:17Z</time></trkpt>
<trkpt lat="25.162231" lon="109.910369">
<time>2016-10-06T14:26:18Z</time></trkpt>
<trkpt lat="25.162181" lon="109.910359">
<time>2016-10-06T14:26:19Z</time></trkpt>
<trkpt lat="25.162111" lon="109.910339">
<time>2016-10-06T14:26:20Z</time></trkpt>
<trkpt lat="25.161791" lon="109.910209">
<time>2016-10-06T14:26:21Z</time></trkpt>
<trkpt lat="25.161711" lon="109.910199">
<time>2016-10-06T14:26:22Z</time></trkpt>
<trkpt lat="25.161621" lon="109.910189">
<time>2016-10-06T14:26:23Z</time></trkpt>
<trkpt lat="25.161531" lon="109.910189">
<time>2016-10-06T14:26:24Z</time></trkpt>
<trkpt lat="25.161271" lon="109.910219">
<time>2016-10-06T14:26:25Z</time></trkpt>
<trkpt lat="25.161081" lon="109.910259">
<time>2016-10-06T14:26:26Z</time></trkpt>
<trkpt lat="25.160971" lon="109.910299">
<time>2016-10-06T14:26:27Z</time></trkpt>
<trkpt lat="25.160841" lon="109.910369">
<time>2016-10-06T14:26:28Z</time></trkpt>
<trkpt lat="25.160681" lon="109.910469">
<time>2016-10-06T14:26:29Z</time></trkpt>
<trkpt lat="25.160591" lon="109.910529">
<time>2016-10-06T14:26:30Z</time></trkpt>
<trkpt lat="25.160501" lon="109.910569">
<time>2016-10-06T14:26:31Z</time></trkpt>
<trkpt lat="25.160451" lon="109.910589">
<time>2016-10-06T14:26:32Z</time></trkpt>
<trkpt lat="25.160391" lon="109.910599">
<time>2016-10-06T14:26:33Z</time></trkpt>
<trkpt lat="25.160341" lon="109.910609">
<time>2016-10-06T14:26:34Z</time></trkpt>
<trkpt lat="25.160291" lon="109.910609">
<time>2016-10-06T14:26:35Z</time></trkpt>
<trkpt lat="25.160231" lon="109.910609">
<time>2016-10-06T14:26:36Z</time></trkpt>
<trkpt lat="25.160181" lon="109.910599">
<time>2016-10-06T14:26:37Z</time></trkpt>
<trkpt lat="25.160051" lon="109.910579">
<time>2016-10-06T14:26:38Z</time></trkpt>
<trkpt lat="25.159721" lon="109.910499">
<time>2016-10-06T14:26:39Z</time></trkpt>
<trkpt lat="25.159601" lon="109.910479">
<time>2016-10-06T14:26:40Z</time></trkpt>
<trkpt lat="25.159531" lon="109.910469">
<time>2016-10-06T14:26:41Z</time></trkpt>
<trkpt lat="25.159481" lon="109.910479">
<time>2016-10-06T14:26:42Z</time></trkpt>
<trkpt lat="25.159411" lon="109.910489">
<time>2016-10-06T14:26:43Z</time></trkpt>
<trkpt lat="25.159331" lon="109.910529">
<time>2016-10-06T14:26:44Z</time></trkpt>
<trkpt lat="25.159241" lon="109.910589">
<time>2016-10-06T14:26:45Z</time></trkpt>
<trkpt lat="25.159131" lon="109.910689">
<time>2016-10-06T14:26:46Z</time></trkpt>
<trkpt lat="25.158711" lon="109.911119">
<time>2016-10-06T14:26:47Z</time></trkpt>
<trkpt lat="25.158561" lon="109.911278">
<time>2016-10-06T14:26:48Z</time></trkpt>
<trkpt lat="25.158491" lon="109.911338">
<time>2016-10-06T14:26:49Z</time></trkpt>
<trkpt lat="25.158431" lon="109.911378">
<time>2016-10-06T14:26:50Z</time></trkpt>
<trkpt lat="25.158391" lon="109.911398">
<time>2016-10-06T14:26:51Z</time></trkpt>
<trkpt lat="25.158341" lon="109.911418">
<time>2016-10-06T14:26:52Z</time></trkpt>
<trkpt lat="25.158301" lon="109.911418">
<time>2016-10-06T14:26:53Z</time></trkpt>
<trkpt lat="25.158241" lon="109.911418">
<time>2016-10-06T14:26:54Z</time></trkpt>
<trkpt lat="25.158201" lon="109.911418">
<time>2016-10-06T14:26:55Z</time></trkpt>
<trkpt lat="25.158161" lon="109.911408">
<time>2016-10-06T14:26:56Z</time></trkpt>
<trkpt lat="25.158111" lon="109.911388">
<time>2016-10-06T14:26:57Z</time></trkpt>
<trkpt lat="25.158041" lon="109.911348">
<time>2016-10-06T14:26:58Z</time></trkpt>
<trkpt lat="25.157761" lon="109.911159">
<time>2016-10-06T14:26:59Z</time></trkpt>
<trkpt lat="25.157691" lon="109.911119">
<time>2016-10-06T14:27:00Z</time></trkpt>
<trkpt lat="25.157631" lon="109.911109">
<time>2016-10-06T14:27:01Z</time></trkpt>
<trkpt lat="25.157581" lon="109.911099">
<time>2016-10-06T14:27:02Z</time></trkpt>
<trkpt lat="25.157541" lon="109.911099">
<time>2016-10-06T14:27:03Z</time></trkpt>
<trkpt lat="25.157511" lon="109.911099">
<time>2016-10-06T14:27:04Z</time></trkpt>
<trkpt lat="25.157471" lon="109.911099">
<time>2016-10-06T14:27:05Z</time></trkpt>
<trkpt lat="25.157431" lon="109.911109">
<time>2016-10-06T14:27:06Z</time></trkpt>
<trkpt lat="25.157381" lon="109.911129">
<time>2016-10-06T14:27:07Z</time></trkpt>
<trkpt lat="25.157291" lon="109.911159">
<time>2016-10-06T14:27:08Z</time></trkpt>
<trkpt lat="25.157051" lon="109.911289">
<time>2016-10-06T14:27:09Z</time></trkpt>
<trkpt lat="25.156811" lon="109.911388">
<time>2016-10-06T14:27:10Z</time></trkpt>
<trkpt lat="25.156651" lon="109.911448">
<time>2016-10-06T14:27:11Z</time></trkpt>
<trkpt lat="25.156541" lon="109.911468">
<time>2016-10-06T14:27:12Z</time></trkpt>
<trkpt lat="25.156431" lon="109.911488">
<time>2016-10-06T14:27:13Z</time></trkpt>
<trkpt lat="25.156231" lon="109.911488">
<time>2016-10-06T14:27:14Z</time></trkpt>
<trkpt lat="25.155951" lon="109.911508">
<time>2016-10-06T14:27:15Z</time></trkpt>
<trkpt lat="25.155641" lon="109.911508">
<time>2016-10-06T14:27:16Z</time></trkpt>
<trkpt lat="25.155471" lon="109.911498">
<time>2016-10-06T14:27:17Z</time></trkpt>
<trkpt lat="25.155321" lon="109.911478">
<time>2016-10-06T14:27:18Z</time></trkpt>
<trkpt lat="25.155191" lon="109.911449">
<time>2016-10-06T14:27:19Z</time></trkpt>
<trkpt lat="25.154801" lon="109.911319">
<time>2016-10-06T14:27:20Z</time></trkpt>
<trkpt lat="25.154181" lon="109.911109">
<time>2016-10-06T14:27:21Z</time></trkpt>
<trkpt lat="25.153851" lon="109.911009">
<time>2016-10-06T14:27:22Z</time></trkpt>
<trkpt lat="25.153671" lon="109.910969">
<time>2016-10-06T14:27:23Z</time></trkpt>
<trkpt lat="25.153461" lon="109.910939">
<time>2016-10-06T14:27:24Z</time></trkpt>
<trkpt lat="25.153251" lon="109.910919">
<time>2016-10-06T14:27:25Z</time></trkpt>
<trkpt lat="25.152051" lon="109.910969">
<time>2016-10-06T14:27:26Z</time></trkpt>
<trkpt lat="25.151911" lon="109.910979">
<time>2016-10-06T14:27:27Z</time></trkpt>
<trkpt lat="25.151791" lon="109.910969">
<time>2016-10-06T14:27:28Z</time></trkpt>
<trkpt lat="25.151741" lon="109.910959">
<time>2016-10-06T14:27:29Z</time></trkpt>
<trkpt lat="25.151681" lon="109.910939">
<time>2016-10-06T14:27:30Z</time></trkpt>
<trkpt lat="25.151621" lon="109.910919">
<time>2016-10-06T14:27:31Z</time></trkpt>
<trkpt lat="25.151551" lon="109.910879">
<time>2016-10-06T14:27:32Z</time></trkpt>
<trkpt lat="25.151481" lon="109.910829">
<time>2016-10-06T14:27:33Z</time></trkpt>
<trkpt lat="25.151262" lon="109.910659">
<time>2016-10-06T14:27:34Z</time></trkpt>
<trkpt lat="25.151172" lon="109.910599">
<time>2016-10-06T14:27:35Z</time></trkpt>
<trkpt lat="25.151122" lon="109.910569">
<time>2016-10-06T14:27:36Z</time></trkpt>
<trkpt lat="25.151062" lon="109.910549">
<time>2016-10-06T14:27:37Z</time></trkpt>
<trkpt lat="25.150992" lon="109.910519">
<time>2016-10-06T14:27:38Z</time></trkpt>
<trkpt lat="25.150922" lon="109.910509">
<time>2016-10-06T14:27:39Z</time></trkpt>
<trkpt lat="25.150832" lon="109.910489">
<time>2016-10-06T14:27:40Z</time></trkpt>
<trkpt lat="25.150372" lon="109.910439">
<time>2016-10-06T14:27:41Z</time></trkpt>
<trkpt lat="25.150312" lon="109.910419">
<time>2016-10-06T14:27:42Z</time></trkpt>
<trkpt lat="25.150272" lon="109.910409">
<time>2016-10-06T14:27:43Z</time></trkpt>
<trkpt lat="25.150232" lon="109.910389">
<time>2016-10-06T14:27:44Z</time></trkpt>
<trkpt lat="25.150202" lon="109.91036">
<time>2016-10-06T14:27:45Z</time></trkpt>
<trkpt lat="25.150172" lon="109.91033">
<time>2016-10-06T14:27:46Z</time></trkpt>
<trkpt lat="25.150152" lon="109.9103">
<time>2016-10-06T14:27:47Z</time></trkpt>
<trkpt lat="25.150132" lon="109.91027">
<time>2016-10-06T14:27:48Z</time></trkpt>
<trkpt lat="25.150112" lon="109.91022">
<time>2016-10-06T14:27:49Z</time></trkpt>
<trkpt lat="25.150102" lon="109.91019">
<time>2016-10-06T14:27:50Z</time></trkpt>
<trkpt lat="25.150092" lon="109.91015">
<time>2016-10-06T14:27:51Z</time></trkpt>
<trkpt lat="25.150082" lon="109.91007">
<time>2016-10-06T14:27:52Z</time></trkpt>
<trkpt lat="25.150082" lon="109.90998">
<time>2016-10-06T14:27:53Z</time></trkpt>
<trkpt lat="25.150023" lon="109.908521">
<time>2016-10-06T14:27:54Z</time></trkpt>
<trkpt lat="25.150033" lon="109.908261">
<time>2016-10-06T14:27:55Z</time></trkpt>
<trkpt lat="25.150423" lon="109.908031">
<time>2016-10-06T14:27:56Z</time></trkpt>
<trkpt lat="25.150663" lon="109.907941">
<time>2016-10-06T14:27:57Z</time></trkpt>
<trkpt lat="25.150853" lon="109.907881">
<time>2016-10-06T14:27:58Z</time></trkpt>
<trkpt lat="25.151233" lon="109.907721">
<time>2016-10-06T14:27:59Z</time></trkpt>
<trkpt lat="25.151463" lon="109.907571">
<time>2016-10-06T14:28:00Z</time></trkpt>
<trkpt lat="25.151793" lon="109.907301">
<time>2016-10-06T14:28:01Z</time></trkpt>
<trkpt lat="25.152043" lon="109.907071">
<time>2016-10-06T14:28:02Z</time></trkpt>
<trkpt lat="25.152143" lon="109.906951">
<time>2016-10-06T14:28:03Z</time></trkpt>
<trkpt lat="25.152243" lon="109.906801">
<time>2016-10-06T14:28:04Z</time></trkpt>
<trkpt lat="25.152464" lon="109.906441">
<time>2016-10-06T14:28:05Z</time></trkpt>
<trkpt lat="25.152574" lon="109.906191">
<time>2016-10-06T14:28:06Z</time></trkpt>
<trkpt lat="25.152604" lon="109.906002">
<time>2016-10-06T14:28:07Z</time></trkpt>
<trkpt lat="25.152604" lon="109.905932">
<time>2016-10-06T14:28:08Z</time></trkpt>
<trkpt lat="25.152594" lon="109.905832">
<time>2016-10-06T14:28:09Z</time></trkpt>
<trkpt lat="25.152554" lon="109.905722">
<time>2016-10-06T14:28:10Z</time></trkpt>
<trkpt lat="25.152514" lon="109.905622">
<time>2016-10-06T14:28:11Z</time></trkpt>
<trkpt lat="25.152154" lon="109.905022">
<time>2016-10-06T14:28:12Z</time></trkpt>
<trkpt lat="25.151654" lon="109.904162">
<time>2016-10-06T14:28:13Z</time></trkpt>
<trkpt lat="25.151275" lon="109.903462">
<time>2016-10-06T14:28:14Z</time></trkpt>
<trkpt lat="25.150895" lon="109.902703">
<time>2016-10-06T14:28:15Z</time></trkpt>
<trkpt lat="25.150635" lon="109.902163">
<time>2016-10-06T14:28:16Z</time></trkpt>
<trkpt lat="25.150535" lon="109.901873">
<time>2016-10-06T14:28:17Z</time></trkpt>
<trkpt lat="25.150385" lon="109.901313">
<time>2016-10-06T14:28:18Z</time></trkpt>
<trkpt lat="25.150265" lon="109.901033">
<time>2016-10-06T14:28:19Z</time></trkpt>
<trkpt lat="25.150055" lon="109.900683">
<time>2016-10-06T14:28:20Z</time></trkpt>
<trkpt lat="25.149885" lon="109.900413">
<time>2016-10-06T14:28:21Z</time></trkpt>
<trkpt lat="25.149745" lon="109.900153">
<time>2016-10-06T14:28:22Z</time></trkpt>
<trkpt lat="25.149685" lon="109.899973">
<time>2016-10-06T14:28:23Z</time></trkpt>
<trkpt lat="25.149645" lon="109.899813">
<time>2016-10-06T14:28:24Z</time></trkpt>
<trkpt lat="25.149595" lon="109.899523">
<time>2016-10-06T14:28:25Z</time></trkpt>
<trkpt lat="25.149525" lon="109.899313">
<time>2016-10-06T14:28:26Z</time></trkpt>
<trkpt lat="25.149465" lon="109.899163">
<time>2016-10-06T14:28:27Z</time></trkpt>
<trkpt lat="25.149275" lon="109.898873">
<time>2016-10-06T14:28:28Z</time></trkpt>
<trkpt lat="25.149205" lon="109.898713">
<time>2016-10-06T14:28:29Z</time></trkpt>
<trkpt lat="25.149175" lon="109.898573">
<time>2016-10-06T14:28:30Z</time></trkpt>
<trkpt lat="25.149175" lon="109.898503">
<time>2016-10-06T14:28:31Z</time></trkpt>
<trkpt lat="25.149185" lon="109.898433">
<time>2016-10-06T14:28:32Z</time></trkpt>
<trkpt lat="25.149225" lon="109.898273">
<time>2016-10-06T14:28:33Z</time></trkpt>
<trkpt lat="25.149325" lon="109.897913">
<time>2016-10-06T14:28:34Z</time></trkpt>
<trkpt lat="25.149425" lon="109.897563">
<time>2016-10-06T14:28:35Z</time></trkpt>
<trkpt lat="25.149455" lon="109.897333">
<time>2016-10-06T14:28:36Z</time></trkpt>
<trkpt lat="25.149465" lon="109.897173">
<time>2016-10-06T14:28:37Z</time></trkpt>
<trkpt lat="25.149455" lon="109.897023">
<time>2016-10-06T14:28:38Z</time></trkpt>
<trkpt lat="25.149295" lon="109.895973">
<time>2016-10-06T14:28:39Z</time></trkpt>
<trkpt lat="25.149285" lon="109.895803">
<time>2016-10-06T14:28:40Z</time></trkpt>
<trkpt lat="25.149295" lon="109.895663">
<time>2016-10-06T14:28:41Z</time></trkpt>
<trkpt lat="25.149325" lon="109.895523">
<time>2016-10-06T14:28:42Z</time></trkpt>
<trkpt lat="25.149345" lon="109.895453">
<time>2016-10-06T14:28:43Z</time></trkpt>
<trkpt lat="25.149375" lon="109.895383">
<time>2016-10-06T14:28:44Z</time></trkpt>
<trkpt lat="25.149445" lon="109.895273">
<time>2016-10-06T14:28:45Z</time></trkpt>
<trkpt lat="25.149505" lon="109.895193">
<time>2016-10-06T14:28:46Z</time></trkpt>
<trkpt lat="25.149585" lon="109.895123">
<time>2016-10-06T14:28:47Z</time></trkpt>
<trkpt lat="25.149685" lon="109.895063">
<time>2016-10-06T14:28:48Z</time></trkpt>
<trkpt lat="25.149935" lon="109.894963">
<time>2016-10-06T14:28:49Z</time></trkpt>
<trkpt lat="25.150275" lon="109.894843">
<time>2016-10-06T14:28:50Z</time></trkpt>
<trkpt lat="25.150595" lon="109.894733">
<time>2016-10-06T14:28:51Z</time></trkpt>
<trkpt lat="25.150845" lon="109.894603">
<time>2016-10-06T14:28:52Z</time></trkpt>
<trkpt lat="25.151495" lon="109.894223">
<time>2016-10-06T14:28:53Z</time></trkpt>
<trkpt lat="25.151765" lon="109.894143">
<time>2016-10-06T14:28:54Z</time></trkpt>
<trkpt lat="25.152015" lon="109.894063">
<time>2016-10-06T14:28:55Z</time></trkpt>
<trkpt lat="25.152185" lon="109.893993">
<time>2016-10-06T14:28:56Z</time></trkpt>
<trkpt lat="25.152455" lon="109.893873">
<time>2016-10-06T14:28:57Z</time></trkpt>
<trkpt lat="25.152665" lon="109.893753">
<time>2016-10-06T14:28:58Z</time></trkpt>
<trkpt lat="25.152915" lon="109.893613">
<time>2016-10-06T14:28:59Z</time></trkpt>
<trkpt lat="25.153175" lon="109.893442">
<time>2016-10-06T14:29:00Z</time></trkpt>
<trkpt lat="25.153395" lon="109.893262">
<time>2016-10-06T14:29:01Z</time></trkpt>
<trkpt lat="25.153615" lon="109.893092">
<time>2016-10-06T14:29:02Z</time></trkpt>
<trkpt lat="25.154145" lon="109.892812">
<time>2016-10-06T14:29:03Z</time></trkpt>
<trkpt lat="25.154505" lon="109.892592">
<time>2016-10-06T14:29:04Z</time></trkpt>
<trkpt lat="25.154735" lon="109.892442">
<time>2016-10-06T14:29:05Z</time></trkpt>
<trkpt lat="25.154975" lon="109.892272">
<time>2016-10-06T14:29:06Z</time></trkpt>
<trkpt lat="25.155164" lon="109.892132">
<time>2016-10-06T14:29:07Z</time></trkpt>
<trkpt lat="25.155304" lon="109.892012">
<time>2016-10-06T14:29:08Z</time></trkpt>
<trkpt lat="25.156454" lon="109.890752">
<time>2016-10-06T14:29:09Z</time></trkpt>
<trkpt lat="25.156734" lon="109.890481">
<time>2016-10-06T14:29:10Z</time></trkpt>
<trkpt lat="25.156924" lon="109.890301">
<time>2016-10-06T14:29:11Z</time></trkpt>
<trkpt lat="25.157114" lon="109.890101">
<time>2016-10-06T14:29:12Z</time></trkpt>
<trkpt lat="25.157334" lon="109.889841">
<time>2016-10-06T14:29:13Z</time></trkpt>
<trkpt lat="25.157514" lon="109.889631">
<time>2016-10-06T14:29:14Z</time></trkpt>
<trkpt lat="25.157744" lon="109.889371">
<time>2016-10-06T14:29:15Z</time></trkpt>
<trkpt lat="25.157913" lon="109.889201">
<time>2016-10-06T14:29:16Z</time></trkpt>
<trkpt lat="25.158113" lon="109.888971">
<time>2016-10-06T14:29:17Z</time></trkpt>
<trkpt lat="25.158403" lon="109.888651">
<time>2016-10-06T14:29:18Z</time></trkpt>
<trkpt lat="25.158543" lon="109.888491">
<time>2016-10-06T14:29:19Z</time></trkpt>
<trkpt lat="25.158623" lon="109.88838">
<time>2016-10-06T14:29:20Z</time></trkpt>
<trkpt lat="25.158703" lon="109.88826">
<time>2016-10-06T14:29:21Z</time></trkpt>
<trkpt lat="25.158773" lon="109.88815">
<time>2016-10-06T14:29:22Z</time></trkpt>
<trkpt lat="25.158843" lon="109.88801">
<time>2016-10-06T14:29:23Z</time></trkpt>
<trkpt lat="25.158913" lon="109.88788">
<time>2016-10-06T14:29:24Z</time></trkpt>
<trkpt lat="25.159303" lon="109.88707">
<time>2016-10-06T14:29:25Z</time></trkpt>
<trkpt lat="25.159492" lon="109.88665">
<time>2016-10-06T14:29:26Z</time></trkpt>
<trkpt lat="25.159582" lon="109.886479">
<time>2016-10-06T14:29:27Z</time></trkpt>
<trkpt lat="25.159692" lon="109.886299">
<time>2016-10-06T14:29:28Z</time></trkpt>
<trkpt lat="25.159792" lon="109.886169">
<time>2016-10-06T14:29:29Z</time></trkpt>
<trkpt lat="25.159972" lon="109.885939">
<time>2016-10-06T14:29:30Z</time></trkpt>
<trkpt lat="25.160192" lon="109.885659">
<time>2016-10-06T14:29:31Z</time></trkpt>
<trkpt lat="25.160442" lon="109.885369">
<time>2016-10-06T14:29:32Z</time></trkpt>
<trkpt lat="25.160631" lon="109.885129">
<time>2016-10-06T14:29:33Z</time></trkpt>
<trkpt lat="25.160811" lon="109.884908">
<time>2016-10-06T14:29:34Z</time></trkpt>
<trkpt lat="25.160861" lon="109.884828">
<time>2016-10-06T14:29:35Z</time></trkpt>
<trkpt lat="25.160911" lon="109.884748">
<time>2016-10-06T14:29:36Z</time></trkpt>
<trkpt lat="25.160961" lon="109.884648">
<time>2016-10-06T14:29:37Z</time></trkpt>
<trkpt lat="25.160991" lon="109.884558">
<time>2016-10-06T14:29:38Z</time></trkpt>
<trkpt lat="25.161111" lon="109.884218">
<time>2016-10-06T14:29:39Z</time></trkpt>
<trkpt lat="25.161211" lon="109.883898">
<time>2016-10-06T14:29:40Z</time></trkpt>
<trkpt lat="25.161291" lon="109.883638">
<time>2016-10-06T14:29:41Z</time></trkpt>
<trkpt lat="25.16149" lon="109.883077">
<time>2016-10-06T14:29:42Z</time></trkpt>
<trkpt lat="25.16159" lon="109.882857">
<time>2016-10-06T14:29:43Z</time></trkpt>
<trkpt lat="25.16167" lon="109.882657">
<time>2016-10-06T14:29:44Z</time></trkpt>
<trkpt lat="25.16174" lon="109.882517">
<time>2016-10-06T14:29:45Z</time></trkpt>
<trkpt lat="25.1618" lon="109.882407">
<time>2016-10-06T14:29:46Z</time></trkpt>
<trkpt lat="25.16186" lon="109.882297">
<time>2016-10-06T14:29:47Z</time></trkpt>
<trkpt lat="25.16194" lon="109.882177">
<time>2016-10-06T14:29:48Z</time></trkpt>
<trkpt lat="25.16203" lon="109.882076">
<time>2016-10-06T14:29:49Z</time></trkpt>
<trkpt lat="25.1621" lon="109.882006">
<time>2016-10-06T14:29:50Z</time></trkpt>
<trkpt lat="25.162269" lon="109.881856">
<time>2016-10-06T14:29:51Z</time></trkpt>
<trkpt lat="25.162439" lon="109.881716">
<time>2016-10-06T14:29:52Z</time></trkpt>
<trkpt lat="25.162649" lon="109.881556">
<time>2016-10-06T14:29:53Z</time></trkpt>
<trkpt lat="25.162809" lon="109.881416">
<time>2016-10-06T14:29:54Z</time></trkpt>
<trkpt lat="25.162879" lon="109.881346">
<time>2016-10-06T14:29:55Z</time></trkpt>
<trkpt lat="25.162969" lon="109.881256">
<time>2016-10-06T14:29:56Z</time></trkpt>
<trkpt lat="25.163049" lon="109.881146">
<time>2016-10-06T14:29:57Z</time></trkpt>
<trkpt lat="25.163139" lon="109.881006">
<time>2016-10-06T14:29:58Z</time></trkpt>
<trkpt lat="25.163379" lon="109.880595">
<time>2016-10-06T14:29:59Z</time></trkpt>
<trkpt lat="25.163548" lon="109.880365">
<time>2016-10-06T14:30:00Z</time></trkpt>
<trkpt lat="25.163748" lon="109.880125">
<time>2016-10-06T14:30:01Z</time></trkpt>
<trkpt lat="25.163848" lon="109.879995">
<time>2016-10-06T14:30:02Z</time></trkpt>
<trkpt lat="25.163988" lon="109.879815">
<time>2016-10-06T14:30:03Z</time></trkpt>
<trkpt lat="25.164128" lon="109.879614">
<time>2016-10-06T14:30:04Z</time></trkpt>
<trkpt lat="25.164198" lon="109.879484">
<time>2016-10-06T14:30:05Z</time></trkpt>
<trkpt lat="25.164298" lon="109.879314">
<time>2016-10-06T14:30:06Z</time></trkpt>
<trkpt lat="25.164417" lon="109.879094">
<time>2016-10-06T14:30:07Z</time></trkpt>
<trkpt lat="25.164657" lon="109.878684">
<time>2016-10-06T14:30:08Z</time></trkpt>
<trkpt lat="25.164767" lon="109.878483">
<time>2016-10-06T14:30:09Z</time></trkpt>
<trkpt lat="25.164887" lon="109.878313">
<time>2016-10-06T14:30:10Z</time></trkpt>
<trkpt lat="25.165007" lon="109.878133">
<time>2016-10-06T14:30:11Z</time></trkpt>
<trkpt lat="25.165116" lon="109.877973">
<time>2016-10-06T14:30:12Z</time></trkpt>
<trkpt lat="25.165316" lon="109.877663">
<time>2016-10-06T14:30:13Z</time></trkpt>
<trkpt lat="25.165466" lon="109.877412">
<time>2016-10-06T14:30:14Z</time></trkpt>
<trkpt lat="25.165536" lon="109.877282">
<time>2016-10-06T14:30:15Z</time></trkpt>
<trkpt lat="25.165586" lon="109.877162">
<time>2016-10-06T14:30:16Z</time></trkpt>
<trkpt lat="25.165716" lon="109.876842">
<time>2016-10-06T14:30:17Z</time></trkpt>
<trkpt lat="25.165825" lon="109.876592">
<time>2016-10-06T14:30:18Z</time></trkpt>
<trkpt lat="25.165945" lon="109.876341">
<time>2016-10-06T14:30:19Z</time></trkpt>
<trkpt lat="25.166095" lon="109.876051">
<time>2016-10-06T14:30:20Z</time></trkpt>
<trkpt lat="25.166145" lon="109.875941">
<time>2016-10-06T14:30:21Z</time></trkpt>
<trkpt lat="25.166175" lon="109.875851">
<time>2016-10-06T14:30:22Z</time></trkpt>
<trkpt lat="25.166195" lon="109.875771">
<time>2016-10-06T14:30:23Z</time></trkpt>
<trkpt lat="25.166214" lon="109.875661">
<time>2016-10-06T14:30:24Z</time></trkpt>
<trkpt lat="25.166254" lon="109.87546">
<time>2016-10-06T14:30:25Z</time></trkpt>
<trkpt lat="25.166324" lon="109.87501">
<time>2016-10-06T14:30:26Z</time></trkpt>
<trkpt lat="25.166324" lon="109.875">
<time>2016-10-06T14:30:27Z</time></trkpt>
<trkpt lat="25.166334" lon="109.87497">
<time>2016-10-06T14:30:28Z</time></trkpt>
<trkpt lat="25.166354" lon="109.87488">
<time>2016-10-06T14:30:29Z</time></trkpt>
<trkpt lat="25.166384" lon="109.87476">
<time>2016-10-06T14:30:30Z</time></trkpt>
<trkpt lat="25.166483" lon="109.874399">
<time>2016-10-06T14:30:31Z</time></trkpt>
<trkpt lat="25.166613" lon="109.873969">
<time>2016-10-06T14:30:32Z</time></trkpt>
<trkpt lat="25.166673" lon="109.873749">
<time>2016-10-06T14:30:33Z</time></trkpt>
<trkpt lat="25.166673" lon="109.873729">
<time>2016-10-06T14:30:34Z</time></trkpt>
<trkpt lat="25.166802" lon="109.873328">
<time>2016-10-06T14:30:35Z</time></trkpt>
<trkpt lat="25.167241" lon="109.872517">
<time>2016-10-06T14:30:36Z</time></trkpt>
<trkpt lat="25.167361" lon="109.872277">
<time>2016-10-06T14:30:37Z</time></trkpt>
<trkpt lat="25.167431" lon="109.872157">
<time>2016-10-06T14:30:38Z</time></trkpt>
<trkpt lat="25.167491" lon="109.871997">
<time>2016-10-06T14:30:39Z</time></trkpt>
<trkpt lat="25.167621" lon="109.871666">
<time>2016-10-06T14:30:40Z</time></trkpt>
<trkpt lat="25.16772" lon="109.871366">
<time>2016-10-06T14:30:41Z</time></trkpt>
<trkpt lat="25.16779" lon="109.871216">
<time>2016-10-06T14:30:42Z</time></trkpt>
<trkpt lat="25.16788" lon="109.871056">
<time>2016-10-06T14:30:43Z</time></trkpt>
<trkpt lat="25.168309" lon="109.870395">
<time>2016-10-06T14:30:44Z</time></trkpt>
<trkpt lat="25.168489" lon="109.870144">
<time>2016-10-06T14:30:45Z</time></trkpt>
<trkpt lat="25.168759" lon="109.869754">
<time>2016-10-06T14:30:46Z</time></trkpt>
<trkpt lat="25.168898" lon="109.869614">
<time>2016-10-06T14:30:47Z</time></trkpt>
<trkpt lat="25.169058" lon="109.869494">
<time>2016-10-06T14:30:48Z</time></trkpt>
<trkpt lat="25.169308" lon="109.869373">
<time>2016-10-06T14:30:49Z</time></trkpt>
<trkpt lat="25.169598" lon="109.869283">
<time>2016-10-06T14:30:50Z</time></trkpt>
<trkpt lat="25.170018" lon="109.869133">
<time>2016-10-06T14:30:51Z</time></trkpt>
<trkpt lat="25.170178" lon="109.869063">
<time>2016-10-06T14:30:52Z</time></trkpt>
<trkpt lat="25.170318" lon="109.868983">
<time>2016-10-06T14:30:53Z</time></trkpt>
<trkpt lat="25.170418" lon="109.868923">
<time>2016-10-06T14:30:54Z</time></trkpt>
<trkpt lat="25.170547" lon="109.868853">
<time>2016-10-06T14:30:55Z</time></trkpt>
<trkpt lat="25.170767" lon="109.868703">
<time>2016-10-06T14:30:56Z</time></trkpt>
<trkpt lat="25.171087" lon="109.868512">
<time>2016-10-06T14:30:57Z</time></trkpt>
<trkpt lat="25.171397" lon="109.868352">
<time>2016-10-06T14:30:58Z</time></trkpt>
<trkpt lat="25.171617" lon="109.868232">
<time>2016-10-06T14:30:59Z</time></trkpt>
<trkpt lat="25.171717" lon="109.868152">
<time>2016-10-06T14:31:00Z</time></trkpt>
<trkpt lat="25.171846" lon="109.868042">
<time>2016-10-06T14:31:01Z</time></trkpt>
<trkpt lat="25.171966" lon="109.867922">
<time>2016-10-06T14:31:02Z</time></trkpt>
<trkpt lat="25.172086" lon="109.867811">
<time>2016-10-06T14:31:03Z</time></trkpt>
<trkpt lat="25.172206" lon="109.867721">
<time>2016-10-06T14:31:04Z</time></trkpt>
<trkpt lat="25.172316" lon="109.867641">
<time>2016-10-06T14:31:05Z</time></trkpt>
<trkpt lat="25.172416" lon="109.867591">
<time>2016-10-06T14:31:06Z</time></trkpt>
<trkpt lat="25.172546" lon="109.867541">
<time>2016-10-06T14:31:07Z</time></trkpt>
<trkpt lat="25.172656" lon="109.867491">
<time>2016-10-06T14:31:08Z</time></trkpt>
<trkpt lat="25.172806" lon="109.867441">
<time>2016-10-06T14:31:09Z</time></trkpt>
<trkpt lat="25.173215" lon="109.867281">
<time>2016-10-06T14:31:10Z</time></trkpt>
<trkpt lat="25.173515" lon="109.86716">
<time>2016-10-06T14:31:11Z</time></trkpt>
<trkpt lat="25.173735" lon="109.86706">
<time>2016-10-06T14:31:12Z</time></trkpt>
<trkpt lat="25.173855" lon="109.867">
<time>2016-10-06T14:31:13Z</time></trkpt>
<trkpt lat="25.174025" lon="109.8669">
<time>2016-10-06T14:31:14Z</time></trkpt>
<trkpt lat="25.174135" lon="109.86682">
<time>2016-10-06T14:31:15Z</time></trkpt>
<trkpt lat="25.174275" lon="109.86669">
<time>2016-10-06T14:31:16Z</time></trkpt>
<trkpt lat="25.174425" lon="109.86654">
<time>2016-10-06T14:31:17Z</time></trkpt>
<trkpt lat="25.174654" lon="109.866329">
<time>2016-10-06T14:31:18Z</time></trkpt>
<trkpt lat="25.174994" lon="109.866009">
<time>2016-10-06T14:31:19Z</time></trkpt>
<trkpt lat="25.175214" lon="109.865819">
<time>2016-10-06T14:31:20Z</time></trkpt>
<trkpt lat="25.175343" lon="109.865678">
<time>2016-10-06T14:31:21Z</time></trkpt>
<trkpt lat="25.175453" lon="109.865548">
<time>2016-10-06T14:31:22Z</time></trkpt>
<trkpt lat="25.175593" lon="109.865358">
<time>2016-10-06T14:31:23Z</time></trkpt>
<trkpt lat="25.175763" lon="109.865128">
<time>2016-10-06T14:31:24Z</time></trkpt>
<trkpt lat="25.175863" lon="109.864997">
<time>2016-10-06T14:31:25Z</time></trkpt>
<trkpt lat="25.176192" lon="109.864547">
<time>2016-10-06T14:31:26Z</time></trkpt>
<trkpt lat="25.176272" lon="109.864407">
<time>2016-10-06T14:31:27Z</time></trkpt>
<trkpt lat="25.176342" lon="109.864266">
<time>2016-10-06T14:31:28Z</time></trkpt>
<trkpt lat="25.176451" lon="109.863966">
<time>2016-10-06T14:31:29Z</time></trkpt>
<trkpt lat="25.176551" lon="109.863776">
<time>2016-10-06T14:31:30Z</time></trkpt>
<trkpt lat="25.176651" lon="109.863615">
<time>2016-10-06T14:31:31Z</time></trkpt>
<trkpt lat="25.176761" lon="109.863475">
<time>2016-10-06T14:31:32Z</time></trkpt>
<trkpt lat="25.1769" lon="109.863295">
<time>2016-10-06T14:31:33Z</time></trkpt>
<trkpt lat="25.177" lon="109.863125">
<time>2016-10-06T14:31:34Z</time></trkpt>
<trkpt lat="25.17711" lon="109.862934">
<time>2016-10-06T14:31:35Z</time></trkpt>
<trkpt lat="25.17717" lon="109.862774">
<time>2016-10-06T14:31:36Z</time></trkpt>
<trkpt lat="25.177319" lon="109.862344">
<time>2016-10-06T14:31:37Z</time></trkpt>
<trkpt lat="25.177468" lon="109.861813">
<time>2016-10-06T14:31:38Z</time></trkpt>
<trkpt lat="25.177598" lon="109.861402">
<time>2016-10-06T14:31:39Z</time></trkpt>
<trkpt lat="25.177638" lon="109.861302">
<time>2016-10-06T14:31:40Z</time></trkpt>
<trkpt lat="25.177688" lon="109.861212">
<time>2016-10-06T14:31:41Z</time></trkpt>
<trkpt lat="25.177758" lon="109.861132">
<time>2016-10-06T14:31:42Z</time></trkpt>
<trkpt lat="25.177827" lon="109.861062">
<time>2016-10-06T14:31:43Z</time></trkpt>
<trkpt lat="25.177927" lon="109.860981">
<time>2016-10-06T14:31:44Z</time></trkpt>
<trkpt lat="25.178017" lon="109.860921">
<time>2016-10-06T14:31:45Z</time></trkpt>
<trkpt lat="25.178297" lon="109.860751">
<time>2016-10-06T14:31:46Z</time></trkpt>
<trkpt lat="25.178377" lon="109.860731">
<time>2016-10-06T14:31:47Z</time></trkpt>
<trkpt lat="25.178447" lon="109.860711">
<time>2016-10-06T14:31:48Z</time></trkpt>
<trkpt lat="25.178557" lon="109.860701">
<time>2016-10-06T14:31:49Z</time></trkpt>
<trkpt lat="25.178667" lon="109.860711">
<time>2016-10-06T14:31:50Z</time></trkpt>
<trkpt lat="25.179007" lon="109.860751">
<time>2016-10-06T14:31:51Z</time></trkpt>
<trkpt lat="25.179217" lon="109.860781">
<time>2016-10-06T14:31:52Z</time></trkpt>
<trkpt lat="25.179347" lon="109.860801">
<time>2016-10-06T14:31:53Z</time></trkpt>
<trkpt lat="25.179437" lon="109.860801">
<time>2016-10-06T14:31:54Z</time></trkpt>
<trkpt lat="25.179507" lon="109.860781">
<time>2016-10-06T14:31:55Z</time></trkpt>
<trkpt lat="25.179577" lon="109.860761">
<time>2016-10-06T14:31:56Z</time></trkpt>
<trkpt lat="25.179647" lon="109.860731">
<time>2016-10-06T14:31:57Z</time></trkpt>
<trkpt lat="25.179707" lon="109.860681">
<time>2016-10-06T14:31:58Z</time></trkpt>
<trkpt lat="25.179767" lon="109.860611">
<time>2016-10-06T14:31:59Z</time></trkpt>
<trkpt lat="25.179817" lon="109.860511">
<time>2016-10-06T14:32:00Z</time></trkpt>
<trkpt lat="25.179846" lon="109.86042">
<time>2016-10-06T14:32:01Z</time></trkpt>
<trkpt lat="25.179896" lon="109.86017">
<time>2016-10-06T14:32:02Z</time></trkpt>
<trkpt lat="25.179906" lon="109.85987">
<time>2016-10-06T14:32:03Z</time></trkpt>
<trkpt lat="25.179895" lon="109.859709">
<time>2016-10-06T14:32:04Z</time></trkpt>
<trkpt lat="25.179865" lon="109.859599">
<time>2016-10-06T14:32:05Z</time></trkpt>
<trkpt lat="25.179825" lon="109.859469">
<time>2016-10-06T14:32:06Z</time></trkpt>
<trkpt lat="25.179745" lon="109.859349">
<time>2016-10-06T14:32:07Z</time></trkpt>
<trkpt lat="25.179625" lon="109.859189">
<time>2016-10-06T14:32:08Z</time></trkpt>
<trkpt lat="25.179514" lon="109.858998">
<time>2016-10-06T14:32:09Z</time></trkpt>
<trkpt lat="25.179484" lon="109.858808">
<time>2016-10-06T14:32:10Z</time></trkpt>
<trkpt lat="25.179524" lon="109.858427">
<time>2016-10-06T14:32:11Z</time></trkpt>
<trkpt lat="25.179643" lon="109.857836">
<time>2016-10-06T14:32:12Z</time></trkpt>
<trkpt lat="25.179713" lon="109.857626">
<time>2016-10-06T14:32:13Z</time></trkpt>
<trkpt lat="25.179842" lon="109.857516">
<time>2016-10-06T14:32:14Z</time></trkpt>
<trkpt lat="25.180012" lon="109.857426">
<time>2016-10-06T14:32:15Z</time></trkpt>
<trkpt lat="25.180192" lon="109.857386">
<time>2016-10-06T14:32:16Z</time></trkpt>
<trkpt lat="25.180382" lon="109.857366">
<time>2016-10-06T14:32:17Z</time></trkpt>
<trkpt lat="25.180602" lon="109.857366">
<time>2016-10-06T14:32:18Z</time></trkpt>
<trkpt lat="25.181122" lon="109.857426">
<time>2016-10-06T14:32:19Z</time></trkpt>
<trkpt lat="25.181662" lon="109.857496">
<time>2016-10-06T14:32:20Z</time></trkpt>
<trkpt lat="25.182512" lon="109.857566">
<time>2016-10-06T14:32:21Z</time></trkpt>
<trkpt lat="25.182752" lon="109.857556">
<time>2016-10-06T14:32:22Z</time></trkpt>
<trkpt lat="25.182972" lon="109.857536">
<time>2016-10-06T14:32:23Z</time></trkpt>
<trkpt lat="25.183182" lon="109.857496">
<time>2016-10-06T14:32:24Z</time></trkpt>
<trkpt lat="25.183532" lon="109.857416">
<time>2016-10-06T14:32:25Z</time></trkpt>
<trkpt lat="25.183792" lon="109.857325">
<time>2016-10-06T14:32:26Z</time></trkpt>
<trkpt lat="25.184032" lon="109.857195">
<time>2016-10-06T14:32:27Z</time></trkpt>
<trkpt lat="25.184252" lon="109.857075">
<time>2016-10-06T14:32:28Z</time></trkpt>
<trkpt lat="25.184381" lon="109.856985">
<time>2016-10-06T14:32:29Z</time></trkpt>
<trkpt lat="25.184551" lon="109.856825">
<time>2016-10-06T14:32:30Z</time></trkpt>
<trkpt lat="25.184801" lon="109.856534">
<time>2016-10-06T14:32:31Z</time></trkpt>
<trkpt lat="25.18526" lon="109.855923">
<time>2016-10-06T14:32:32Z</time></trkpt>
<trkpt lat="25.185599" lon="109.855472">
<time>2016-10-06T14:32:33Z</time></trkpt>
<trkpt lat="25.185789" lon="109.855202">
<time>2016-10-06T14:32:34Z</time></trkpt>
<trkpt lat="25.185868" lon="109.855052">
<time>2016-10-06T14:32:35Z</time></trkpt>
<trkpt lat="25.185908" lon="109.854921">
<time>2016-10-06T14:32:36Z</time></trkpt>
<trkpt lat="25.185948" lon="109.854741">
<time>2016-10-06T14:32:37Z</time></trkpt>
<trkpt lat="25.185987" lon="109.85441">
<time>2016-10-06T14:32:38Z</time></trkpt>
<trkpt lat="25.186077" lon="109.85396">
<time>2016-10-06T14:32:39Z</time></trkpt>
<trkpt lat="25.186176" lon="109.853619">
<time>2016-10-06T14:32:40Z</time></trkpt>
<trkpt lat="25.186326" lon="109.853349">
<time>2016-10-06T14:32:41Z</time></trkpt>
<trkpt lat="25.186456" lon="109.853168">
<time>2016-10-06T14:32:42Z</time></trkpt>
<trkpt lat="25.186575" lon="109.853028">
<time>2016-10-06T14:32:43Z</time></trkpt>
<trkpt lat="25.186815" lon="109.852818">
<time>2016-10-06T14:32:44Z</time></trkpt>
<trkpt lat="25.187065" lon="109.852637">
<time>2016-10-06T14:32:45Z</time></trkpt>
<trkpt lat="25.187255" lon="109.852537">
<time>2016-10-06T14:32:46Z</time></trkpt>
<trkpt lat="25.187374" lon="109.852467">
<time>2016-10-06T14:32:47Z</time></trkpt>
<trkpt lat="25.187494" lon="109.852407">
<time>2016-10-06T14:32:48Z</time></trkpt>
<trkpt lat="25.187584" lon="109.852347">
<time>2016-10-06T14:32:49Z</time></trkpt>
<trkpt lat="25.187704" lon="109.852237">
<time>2016-10-06T14:32:50Z</time></trkpt>
<trkpt lat="25.187774" lon="109.852166">
<time>2016-10-06T14:32:51Z</time></trkpt>
<trkpt lat="25.187874" lon="109.852006">
<time>2016-10-06T14:32:52Z</time></trkpt>
<trkpt lat="25.188312" lon="109.851185">
<time>2016-10-06T14:32:53Z</time></trkpt>
<trkpt lat="25.188562" lon="109.850704">
<time>2016-10-06T14:32:54Z</time></trkpt>
<trkpt lat="25.18907" lon="109.849712">
<time>2016-10-06T14:32:55Z</time></trkpt>
<trkpt lat="25.189209" lon="109.849432">
<time>2016-10-06T14:32:56Z</time></trkpt>
<trkpt lat="25.189249" lon="109.849281">
<time>2016-10-06T14:32:57Z</time></trkpt>
<trkpt lat="25.189269" lon="109.849141">
<time>2016-10-06T14:32:58Z</time></trkpt>
<trkpt lat="25.189249" lon="109.848911">
<time>2016-10-06T14:32:59Z</time></trkpt>
<trkpt lat="25.189218" lon="109.84867">
<time>2016-10-06T14:33:00Z</time></trkpt>
<trkpt lat="25.189208" lon="109.84847">
<time>2016-10-06T14:33:01Z</time></trkpt>
<trkpt lat="25.189198" lon="109.848269">
<time>2016-10-06T14:33:02Z</time></trkpt>
<trkpt lat="25.189217" lon="109.848079">
<time>2016-10-06T14:33:03Z</time></trkpt>
<trkpt lat="25.189277" lon="109.847879">
<time>2016-10-06T14:33:04Z</time></trkpt>
<trkpt lat="25.189337" lon="109.847698">
<time>2016-10-06T14:33:05Z</time></trkpt>
<trkpt lat="25.189536" lon="109.847177">
<time>2016-10-06T14:33:06Z</time></trkpt>
<trkpt lat="25.189775" lon="109.846516">
<time>2016-10-06T14:33:07Z</time></trkpt>
<trkpt lat="25.189834" lon="109.846356">
<time>2016-10-06T14:33:08Z</time></trkpt>
<trkpt lat="25.189844" lon="109.846246">
<time>2016-10-06T14:33:09Z</time></trkpt>
<trkpt lat="25.189854" lon="109.846045">
<time>2016-10-06T14:33:10Z</time></trkpt>
<trkpt lat="25.189813" lon="109.845845">
<time>2016-10-06T14:33:11Z</time></trkpt>
<trkpt lat="25.189773" lon="109.845604">
<time>2016-10-06T14:33:12Z</time></trkpt>
<trkpt lat="25.189743" lon="109.845444">
<time>2016-10-06T14:33:13Z</time></trkpt>
<trkpt lat="25.189763" lon="109.845304">
<time>2016-10-06T14:33:14Z</time></trkpt>
<trkpt lat="25.189812" lon="109.845124">
<time>2016-10-06T14:33:15Z</time></trkpt>
<trkpt lat="25.189882" lon="109.844863">
<time>2016-10-06T14:33:16Z</time></trkpt>
<trkpt lat="25.189911" lon="109.844653">
<time>2016-10-06T14:33:17Z</time></trkpt>
<trkpt lat="25.189941" lon="109.844222">
<time>2016-10-06T14:33:18Z</time></trkpt>
<trkpt lat="25.18997" lon="109.843921">
<time>2016-10-06T14:33:19Z</time></trkpt>
<trkpt lat="25.19007" lon="109.843681">
<time>2016-10-06T14:33:20Z</time></trkpt>
<trkpt lat="25.190249" lon="109.84337">
<time>2016-10-06T14:33:21Z</time></trkpt>
<trkpt lat="25.190469" lon="109.843029">
<time>2016-10-06T14:33:22Z</time></trkpt>
<trkpt lat="25.190658" lon="109.842749">
<time>2016-10-06T14:33:23Z</time></trkpt>
<trkpt lat="25.190718" lon="109.842549">
<time>2016-10-06T14:33:24Z</time></trkpt>
<trkpt lat="25.190807" lon="109.842228">
<time>2016-10-06T14:33:25Z</time></trkpt>
<trkpt lat="25.190956" lon="109.841426">
<time>2016-10-06T14:33:26Z</time></trkpt>
<trkpt lat="25.191045" lon="109.841116">
<time>2016-10-06T14:33:27Z</time></trkpt>
<trkpt lat="25.191205" lon="109.840825">
<time>2016-10-06T14:33:28Z</time></trkpt>
<trkpt lat="25.191464" lon="109.840444">
<time>2016-10-06T14:33:29Z</time></trkpt>
<trkpt lat="25.191943" lon="109.839673">
<time>2016-10-06T14:33:30Z</time></trkpt>
<trkpt lat="25.192541" lon="109.838701">
<time>2016-10-06T14:33:31Z</time></trkpt>
<trkpt lat="25.19294" lon="109.83803">
<time>2016-10-06T14:33:32Z</time></trkpt>
<trkpt lat="25.193139" lon="109.837699">
<time>2016-10-06T14:33:33Z</time></trkpt>
<trkpt lat="25.193249" lon="109.837559">
<time>2016-10-06T14:33:34Z</time></trkpt>
<trkpt lat="25.193368" lon="109.837398">
<time>2016-10-06T14:33:35Z</time></trkpt>
<trkpt lat="25.193418" lon="109.837348">
<time>2016-10-06T14:33:36Z</time></trkpt>
<trkpt lat="25.193538" lon="109.837258">
<time>2016-10-06T14:33:37Z</time></trkpt>
<trkpt lat="25.193628" lon="109.837198">
<time>2016-10-06T14:33:38Z</time></trkpt>
<trkpt lat="25.193738" lon="109.837138">
<time>2016-10-06T14:33:39Z</time></trkpt>
<trkpt lat="25.193818" lon="109.837118">
<time>2016-10-06T14:33:40Z</time></trkpt>
<trkpt lat="25.193918" lon="109.837088">
<time>2016-10-06T14:33:41Z</time></trkpt>
<trkpt lat="25.194008" lon="109.837078">
<time>2016-10-06T14:33:42Z</time></trkpt>
<trkpt lat="25.194118" lon="109.837078">
<time>2016-10-06T14:33:43Z</time></trkpt>
<trkpt lat="25.194308" lon="109.837088">
<time>2016-10-06T14:33:44Z</time></trkpt>
<trkpt lat="25.194408" lon="109.837078">
<time>2016-10-06T14:33:45Z</time></trkpt>
<trkpt lat="25.194478" lon="109.837047">
<time>2016-10-06T14:33:46Z</time></trkpt>
<trkpt lat="25.194538" lon="109.837007">
<time>2016-10-06T14:33:47Z</time></trkpt>
<trkpt lat="25.194588" lon="109.836967">
<time>2016-10-06T14:33:48Z</time></trkpt>
<trkpt lat="25.194598" lon="109.836927">
<time>2016-10-06T14:33:49Z</time></trkpt>
<trkpt lat="25.194647" lon="109.836847">
<time>2016-10-06T14:33:50Z</time></trkpt>
<trkpt lat="25.194867" lon="109.836336">
<time>2016-10-06T14:33:51Z</time></trkpt>
<trkpt lat="25.195145" lon="109.835705">
<time>2016-10-06T14:33:52Z</time></trkpt>
<trkpt lat="25.195325" lon="109.835404">
<time>2016-10-06T14:33:53Z</time></trkpt>
<trkpt lat="25.195385" lon="109.835334">
<time>2016-10-06T14:33:54Z</time></trkpt>
<trkpt lat="25.195455" lon="109.835284">
<time>2016-10-06T14:33:55Z</time></trkpt>
<trkpt lat="25.195534" lon="109.835234">
<time>2016-10-06T14:33:56Z</time></trkpt>
<trkpt lat="25.195624" lon="109.835204">
<time>2016-10-06T14:33:57Z</time></trkpt>
<trkpt lat="25.195784" lon="109.835164">
<time>2016-10-06T14:33:58Z</time></trkpt>
<trkpt lat="25.196064" lon="109.835103">
<time>2016-10-06T14:33:59Z</time></trkpt>
<trkpt lat="25.196174" lon="109.835093">
<time>2016-10-06T14:34:00Z</time></trkpt>
<trkpt lat="25.196304" lon="109.835103">
<time>2016-10-06T14:34:01Z</time></trkpt>
<trkpt lat="25.196434" lon="109.835113">
<time>2016-10-06T14:34:02Z</time></trkpt>
<trkpt lat="25.196544" lon="109.835133">
<time>2016-10-06T14:34:03Z</time></trkpt>
<trkpt lat="25.196614" lon="109.835144">
<time>2016-10-06T14:34:04Z</time></trkpt>
<trkpt lat="25.196664" lon="109.835144">
<time>2016-10-06T14:34:05Z</time></trkpt>
<trkpt lat="25.196704" lon="109.835143">
<time>2016-10-06T14:34:06Z</time></trkpt>
<trkpt lat="25.196744" lon="109.835133">
<time>2016-10-06T14:34:07Z</time></trkpt>
<trkpt lat="25.196794" lon="109.835113">
<time>2016-10-06T14:34:08Z</time></trkpt>
<trkpt lat="25.196834" lon="109.835093">
<time>2016-10-06T14:34:09Z</time></trkpt>
<trkpt lat="25.196864" lon="109.835063">
<time>2016-10-06T14:34:10Z</time></trkpt>
<trkpt lat="25.196894" lon="109.835013">
<time>2016-10-06T14:34:11Z</time></trkpt>
<trkpt lat="25.196914" lon="109.834973">
<time>2016-10-06T14:34:12Z</time></trkpt>
<trkpt lat="25.196944" lon="109.834923">
<time>2016-10-06T14:34:13Z</time></trkpt>
<trkpt lat="25.196964" lon="109.834863">
<time>2016-10-06T14:34:14Z</time></trkpt>
<trkpt lat="25.197003" lon="109.834723">
<time>2016-10-06T14:34:15Z</time></trkpt>
<trkpt lat="25.197043" lon="109.834622">
<time>2016-10-06T14:34:16Z</time></trkpt>
<trkpt lat="25.197083" lon="109.834552">
<time>2016-10-06T14:34:17Z</time></trkpt>
<trkpt lat="25.197133" lon="109.834472">
<time>2016-10-06T14:34:18Z</time></trkpt>
<trkpt lat="25.197203" lon="109.834382">
<time>2016-10-06T14:34:19Z</time></trkpt>
<trkpt lat="25.197283" lon="109.834272">
<time>2016-10-06T14:34:20Z</time></trkpt>
<trkpt lat="25.197323" lon="109.834202">
<time>2016-10-06T14:34:21Z</time></trkpt>
<trkpt lat="25.197352" lon="109.834141">
<time>2016-10-06T14:34:22Z</time></trkpt>
<trkpt lat="25.197382" lon="109.834051">
<time>2016-10-06T14:34:23Z</time></trkpt>
<trkpt lat="25.197412" lon="109.833891">
<time>2016-10-06T14:34:24Z</time></trkpt>
<trkpt lat="25.197432" lon="109.833761">
<time>2016-10-06T14:34:25Z</time></trkpt>
<trkpt lat="25.197462" lon="109.83367">
<time>2016-10-06T14:34:26Z</time></trkpt>
<trkpt lat="25.197501" lon="109.83354">
<time>2016-10-06T14:34:27Z</time></trkpt>
<trkpt lat="25.197681" lon="109.833169">
<time>2016-10-06T14:34:28Z</time></trkpt>
<trkpt lat="25.19781" lon="109.832899">
<time>2016-10-06T14:34:29Z</time></trkpt>
<trkpt lat="25.198039" lon="109.832388">
<time>2016-10-06T14:34:30Z</time></trkpt>
<trkpt lat="25.198348" lon="109.831646">
<time>2016-10-06T14:34:31Z</time></trkpt>
<trkpt lat="25.198408" lon="109.831516">
<time>2016-10-06T14:34:32Z</time></trkpt>
<trkpt lat="25.198427" lon="109.831406">
<time>2016-10-06T14:34:33Z</time></trkpt>
<trkpt lat="25.198437" lon="109.831306">
<time>2016-10-06T14:34:34Z</time></trkpt>
<trkpt lat="25.198437" lon="109.831215">
<time>2016-10-06T14:34:35Z</time></trkpt>
<trkpt lat="25.198417" lon="109.831145">
<time>2016-10-06T14:34:36Z</time></trkpt>
<trkpt lat="25.198387" lon="109.831035">
<time>2016-10-06T14:34:37Z</time></trkpt>
<trkpt lat="25.198336" lon="109.830905">
<time>2016-10-06T14:34:38Z</time></trkpt>
<trkpt lat="25.198256" lon="109.830704">
<time>2016-10-06T14:34:39Z</time></trkpt>
<trkpt lat="25.198216" lon="109.830584">
<time>2016-10-06T14:34:40Z</time></trkpt>
<trkpt lat="25.198176" lon="109.830454">
<time>2016-10-06T14:34:41Z</time></trkpt>
<trkpt lat="25.198135" lon="109.830213">
<time>2016-10-06T14:34:42Z</time></trkpt>
<trkpt lat="25.198105" lon="109.829993">
<time>2016-10-06T14:34:43Z</time></trkpt>
<trkpt lat="25.198074" lon="109.829873">
<time>2016-10-06T14:34:44Z</time></trkpt>
<trkpt lat="25.198034" lon="109.829752">
<time>2016-10-06T14:34:45Z</time></trkpt>
<trkpt lat="25.198004" lon="109.829682">
<time>2016-10-06T14:34:46Z</time></trkpt>
<trkpt lat="25.197964" lon="109.829612">
<time>2016-10-06T14:34:47Z</time></trkpt>
<trkpt lat="25.197904" lon="109.829542">
<time>2016-10-06T14:34:48Z</time></trkpt>
<trkpt lat="25.197834" lon="109.829482">
<time>2016-10-06T14:34:49Z</time></trkpt>
<trkpt lat="25.197754" lon="109.829422">
<time>2016-10-06T14:34:50Z</time></trkpt>
<trkpt lat="25.197684" lon="109.829392">
<time>2016-10-06T14:34:51Z</time></trkpt>
<trkpt lat="25.197614" lon="109.829382">
<time>2016-10-06T14:34:52Z</time></trkpt>
<trkpt lat="25.197574" lon="109.829372">
<time>2016-10-06T14:34:53Z</time></trkpt>
<trkpt lat="25.197524" lon="109.829382">
<time>2016-10-06T14:34:54Z</time></trkpt>
<trkpt lat="25.197484" lon="109.829382">
<time>2016-10-06T14:34:55Z</time></trkpt>
<trkpt lat="25.197444" lon="109.829402">
<time>2016-10-06T14:34:56Z</time></trkpt>
<trkpt lat="25.197384" lon="109.829432">
<time>2016-10-06T14:34:57Z</time></trkpt>
<trkpt lat="25.197304" lon="109.829492">
<time>2016-10-06T14:34:58Z</time></trkpt>
<trkpt lat="25.197224" lon="109.829582">
<time>2016-10-06T14:34:59Z</time></trkpt>
<trkpt lat="25.197144" lon="109.829702">
<time>2016-10-06T14:35:00Z</time></trkpt>
<trkpt lat="25.197064" lon="109.829793">
<time>2016-10-06T14:35:01Z</time></trkpt>
<trkpt lat="25.197024" lon="109.829853">
<time>2016-10-06T14:35:02Z</time></trkpt>
<trkpt lat="25.196985" lon="109.829893">
<time>2016-10-06T14:35:03Z</time></trkpt>
<trkpt lat="25.196935" lon="109.829923">
<time>2016-10-06T14:35:04Z</time></trkpt>
<trkpt lat="25.196855" lon="109.829953">
<time>2016-10-06T14:35:05Z</time></trkpt>
<trkpt lat="25.196785" lon="109.829973">
<time>2016-10-06T14:35:06Z</time></trkpt>
<trkpt lat="25.196725" lon="109.829983">
<time>2016-10-06T14:35:07Z</time></trkpt>
<trkpt lat="25.196675" lon="109.829973">
<time>2016-10-06T14:35:08Z</time></trkpt>
<trkpt lat="25.196625" lon="109.829943">
<time>2016-10-06T14:35:09Z</time></trkpt>
<trkpt lat="25.196565" lon="109.829893">
<time>2016-10-06T14:35:10Z</time></trkpt>
<trkpt lat="25.196524" lon="109.829823">
<time>2016-10-06T14:35:11Z</time></trkpt>
<trkpt lat="25.196484" lon="109.829712">
<time>2016-10-06T14:35:12Z</time></trkpt>
<trkpt lat="25.196444" lon="109.829602">
<time>2016-10-06T14:35:13Z</time></trkpt>
<trkpt lat="25.196394" lon="109.829492">
<time>2016-10-06T14:35:14Z</time></trkpt>
<trkpt lat="25.196344" lon="109.829422">
<time>2016-10-06T14:35:15Z</time></trkpt>
<trkpt lat="25.196274" lon="109.829352">
<time>2016-10-06T14:35:16Z</time></trkpt>
<trkpt lat="25.196193" lon="109.829271">
<time>2016-10-06T14:35:17Z</time></trkpt>
<trkpt lat="25.195983" lon="109.829111">
<time>2016-10-06T14:35:18Z</time></trkpt>
<trkpt lat="25.195723" lon="109.828911">
<time>2016-10-06T14:35:19Z</time></trkpt>
<trkpt lat="25.195673" lon="109.828871">
<time>2016-10-06T14:35:20Z</time></trkpt>
<trkpt lat="25.195623" lon="109.828811">
<time>2016-10-06T14:35:21Z</time></trkpt>
<trkpt lat="25.195592" lon="109.828781">
<time>2016-10-06T14:35:22Z</time></trkpt>
<trkpt lat="25.195572" lon="109.82874">
<time>2016-10-06T14:35:23Z</time></trkpt>
<trkpt lat="25.195552" lon="109.82869">
<time>2016-10-06T14:35:24Z</time></trkpt>
<trkpt lat="25.195542" lon="109.82865">
<time>2016-10-06T14:35:25Z</time></trkpt>
<trkpt lat="25.195542" lon="109.82858">
<time>2016-10-06T14:35:26Z</time></trkpt>
<trkpt lat="25.195562" lon="109.82849">
<time>2016-10-06T14:35:27Z</time></trkpt>
<trkpt lat="25.195622" lon="109.82832">
<time>2016-10-06T14:35:28Z</time></trkpt>
<trkpt lat="25.195671" lon="109.828169">
<time>2016-10-06T14:35:29Z</time></trkpt>
<trkpt lat="25.195691" lon="109.828099">
<time>2016-10-06T14:35:30Z</time></trkpt>
<trkpt lat="25.195701" lon="109.827999">
<time>2016-10-06T14:35:31Z</time></trkpt>
<trkpt lat="25.195721" lon="109.827899">
<time>2016-10-06T14:35:32Z</time></trkpt>
<trkpt lat="25.195721" lon="109.827798">
<time>2016-10-06T14:35:33Z</time></trkpt>
<trkpt lat="25.19572" lon="109.827708">
<time>2016-10-06T14:35:34Z</time></trkpt>
<trkpt lat="25.1957" lon="109.827618">
<time>2016-10-06T14:35:35Z</time></trkpt>
<trkpt lat="25.19568" lon="109.827548">
<time>2016-10-06T14:35:36Z</time></trkpt>
<trkpt lat="25.19566" lon="109.827488">
<time>2016-10-06T14:35:37Z</time></trkpt>
<trkpt lat="25.19562" lon="109.827428">
<time>2016-10-06T14:35:38Z</time></trkpt>
<trkpt lat="25.19558" lon="109.827368">
<time>2016-10-06T14:35:39Z</time></trkpt>
<trkpt lat="25.19553" lon="109.827328">
<time>2016-10-06T14:35:40Z</time></trkpt>
<trkpt lat="25.19538" lon="109.827197">
<time>2016-10-06T14:35:41Z</time></trkpt>
<trkpt lat="25.195189" lon="109.827067">
<time>2016-10-06T14:35:42Z</time></trkpt>
<trkpt lat="25.195079" lon="109.826977">
<time>2016-10-06T14:35:43Z</time></trkpt>
<trkpt lat="25.195029" lon="109.826937">
<time>2016-10-06T14:35:44Z</time></trkpt>
<trkpt lat="25.194999" lon="109.826907">
<time>2016-10-06T14:35:45Z</time></trkpt>
<trkpt lat="25.194979" lon="109.826857">
<time>2016-10-06T14:35:46Z</time></trkpt>
<trkpt lat="25.194969" lon="109.826816">
<time>2016-10-06T14:35:47Z</time></trkpt>
<trkpt lat="25.194979" lon="109.826766">
<time>2016-10-06T14:35:48Z</time></trkpt>
<trkpt lat="25.194989" lon="109.826716">
<time>2016-10-06T14:35:49Z</time></trkpt>
<trkpt lat="25.195009" lon="109.826676">
<time>2016-10-06T14:35:50Z</time></trkpt>
<trkpt lat="25.195038" lon="109.826636">
<time>2016-10-06T14:35:51Z</time></trkpt>
<trkpt lat="25.195078" lon="109.826616">
<time>2016-10-06T14:35:52Z</time></trkpt>
<trkpt lat="25.195118" lon="109.826596">
<time>2016-10-06T14:35:53Z</time></trkpt>
<trkpt lat="25.195158" lon="109.826576">
<time>2016-10-06T14:35:54Z</time></trkpt>
<trkpt lat="25.195208" lon="109.826566">
<time>2016-10-06T14:35:55Z</time></trkpt>
<trkpt lat="25.195268" lon="109.826566">
<time>2016-10-06T14:35:56Z</time></trkpt>
<trkpt lat="25.195348" lon="109.826586">
<time>2016-10-06T14:35:57Z</time></trkpt>
<trkpt lat="25.195428" lon="109.826606">
<time>2016-10-06T14:35:58Z</time></trkpt>
<trkpt lat="25.195498" lon="109.826656">
<time>2016-10-06T14:35:59Z</time></trkpt>
<trkpt lat="25.195579" lon="109.826706">
<time>2016-10-06T14:36:00Z</time></trkpt>
<trkpt lat="25.195649" lon="109.826756">
<time>2016-10-06T14:36:01Z</time></trkpt>
<trkpt lat="25.195749" lon="109.826796">
<time>2016-10-06T14:36:02Z</time></trkpt>
<trkpt lat="25.196019" lon="109.826867">
<time>2016-10-06T14:36:03Z</time></trkpt>
<trkpt lat="25.196199" lon="109.826917">
<time>2016-10-06T14:36:04Z</time></trkpt>
<trkpt lat="25.196339" lon="109.826977">
<time>2016-10-06T14:36:05Z</time></trkpt>
<trkpt lat="25.196549" lon="109.827077">
<time>2016-10-06T14:36:06Z</time></trkpt>
<trkpt lat="25.196669" lon="109.827117">
<time>2016-10-06T14:36:07Z</time></trkpt>
<trkpt lat="25.196759" lon="109.827127">
<time>2016-10-06T14:36:08Z</time></trkpt>
<trkpt lat="25.196879" lon="109.827127">
<time>2016-10-06T14:36:09Z</time></trkpt>
<trkpt lat="25.197009" lon="109.827107">
<time>2016-10-06T14:36:10Z</time></trkpt>
<trkpt lat="25.197209" lon="109.827067">
<time>2016-10-06T14:36:11Z</time></trkpt>
<trkpt lat="25.197299" lon="109.827057">
<time>2016-10-06T14:36:12Z</time></trkpt>
<trkpt lat="25.197399" lon="109.827067">
<time>2016-10-06T14:36:13Z</time></trkpt>
<trkpt lat="25.197509" lon="109.827097">
<time>2016-10-06T14:36:14Z</time></trkpt>
<trkpt lat="25.19783" lon="109.827267">
<time>2016-10-06T14:36:15Z</time></trkpt>
<trkpt lat="25.19797" lon="109.827337">
<time>2016-10-06T14:36:16Z</time></trkpt>
<trkpt lat="25.19804" lon="109.827357">
<time>2016-10-06T14:36:17Z</time></trkpt>
<trkpt lat="25.19811" lon="109.827347">
<time>2016-10-06T14:36:18Z</time></trkpt>
<trkpt lat="25.19818" lon="109.827327">
<time>2016-10-06T14:36:19Z</time></trkpt>
<trkpt lat="25.19826" lon="109.827287">
<time>2016-10-06T14:36:20Z</time></trkpt>
<trkpt lat="25.198339" lon="109.827227">
<time>2016-10-06T14:36:21Z</time></trkpt>
<trkpt lat="25.198399" lon="109.827137">
<time>2016-10-06T14:36:22Z</time></trkpt>
<trkpt lat="25.198459" lon="109.827027">
<time>2016-10-06T14:36:23Z</time></trkpt>
<trkpt lat="25.198579" lon="109.826736">
<time>2016-10-06T14:36:24Z</time></trkpt>
<trkpt lat="25.198668" lon="109.826586">
<time>2016-10-06T14:36:25Z</time></trkpt>
<trkpt lat="25.198818" lon="109.826476">
<time>2016-10-06T14:36:26Z</time></trkpt>
<trkpt lat="25.198948" lon="109.826395">
<time>2016-10-06T14:36:27Z</time></trkpt>
<trkpt lat="25.199028" lon="109.826345">
<time>2016-10-06T14:36:28Z</time></trkpt>
<trkpt lat="25.199098" lon="109.826275">
<time>2016-10-06T14:36:29Z</time></trkpt>
<trkpt lat="25.199287" lon="109.826045">
<time>2016-10-06T14:36:30Z</time></trkpt>
<trkpt lat="25.199576" lon="109.825614">
<time>2016-10-06T14:36:31Z</time></trkpt>
<trkpt lat="25.199626" lon="109.825473">
<time>2016-10-06T14:36:32Z</time></trkpt>
<trkpt lat="25.199656" lon="109.825373">
<time>2016-10-06T14:36:33Z</time></trkpt>
<trkpt lat="25.199656" lon="109.825273">
<time>2016-10-06T14:36:34Z</time></trkpt>
<trkpt lat="25.199636" lon="109.825173">
<time>2016-10-06T14:36:35Z</time></trkpt>
<trkpt lat="25.199575" lon="109.825032">
<time>2016-10-06T14:36:36Z</time></trkpt>
<trkpt lat="25.199455" lon="109.824802">
<time>2016-10-06T14:36:37Z</time></trkpt>
<trkpt lat="25.199314" lon="109.824552">
<time>2016-10-06T14:36:38Z</time></trkpt>
<trkpt lat="25.199154" lon="109.824171">
<time>2016-10-06T14:36:39Z</time></trkpt>
<trkpt lat="25.199023" lon="109.82375">
<time>2016-10-06T14:36:40Z</time></trkpt>
<trkpt lat="25.198993" lon="109.82361">
<time>2016-10-06T14:36:41Z</time></trkpt>
<trkpt lat="25.198992" lon="109.823519">
<time>2016-10-06T14:36:42Z</time></trkpt>
<trkpt lat="25.199022" lon="109.823429">
<time>2016-10-06T14:36:43Z</time></trkpt>
<trkpt lat="25.199072" lon="109.823339">
<time>2016-10-06T14:36:44Z</time></trkpt>
<trkpt lat="25.199172" lon="109.823229">
<time>2016-10-06T14:36:45Z</time></trkpt>
<trkpt lat="25.199322" lon="109.823078">
<time>2016-10-06T14:36:46Z</time></trkpt>
<trkpt lat="25.199362" lon="109.823028">
<time>2016-10-06T14:36:47Z</time></trkpt>
<trkpt lat="25.199391" lon="109.822978">
<time>2016-10-06T14:36:48Z</time></trkpt>
<trkpt lat="25.199421" lon="109.822868">
<time>2016-10-06T14:36:49Z</time></trkpt>
<trkpt lat="25.199461" lon="109.822698">
<time>2016-10-06T14:36:50Z</time></trkpt>
<trkpt lat="25.19957" lon="109.822247">
<time>2016-10-06T14:36:51Z</time></trkpt>
<trkpt lat="25.199729" lon="109.821856">
<time>2016-10-06T14:36:52Z</time></trkpt>
<trkpt lat="25.200038" lon="109.821275">
<time>2016-10-06T14:36:53Z</time></trkpt>
<trkpt lat="25.200198" lon="109.821034">
<time>2016-10-06T14:36:54Z</time></trkpt>
<trkpt lat="25.200267" lon="109.820884">
<time>2016-10-06T14:36:55Z</time></trkpt>
<trkpt lat="25.200307" lon="109.820784">
<time>2016-10-06T14:36:56Z</time></trkpt>
<trkpt lat="25.200337" lon="109.820673">
<time>2016-10-06T14:36:57Z</time></trkpt>
<trkpt lat="25.200357" lon="109.820583">
<time>2016-10-06T14:36:58Z</time></trkpt>
<trkpt lat="25.200377" lon="109.820483">
<time>2016-10-06T14:36:59Z</time></trkpt>
<trkpt lat="25.200386" lon="109.820353">
<time>2016-10-06T14:37:00Z</time></trkpt>
<trkpt lat="25.200376" lon="109.820253">
<time>2016-10-06T14:37:01Z</time></trkpt>
<trkpt lat="25.200346" lon="109.820122">
<time>2016-10-06T14:37:02Z</time></trkpt>
<trkpt lat="25.200306" lon="109.819992">
<time>2016-10-06T14:37:03Z</time></trkpt>
<trkpt lat="25.200266" lon="109.819872">
<time>2016-10-06T14:37:04Z</time></trkpt>
<trkpt lat="25.200105" lon="109.819521">
<time>2016-10-06T14:37:05Z</time></trkpt>
<trkpt lat="25.200004" lon="109.819271">
<time>2016-10-06T14:37:06Z</time></trkpt>
<trkpt lat="25.199954" lon="109.81907">
<time>2016-10-06T14:37:07Z</time></trkpt>
<trkpt lat="25.199944" lon="109.81896">
<time>2016-10-06T14:37:08Z</time></trkpt>
<trkpt lat="25.199934" lon="109.81884">
<time>2016-10-06T14:37:09Z</time></trkpt>
<trkpt lat="25.199943" lon="109.818679">
<time>2016-10-06T14:37:10Z</time></trkpt>
<trkpt lat="25.199993" lon="109.818369">
<time>2016-10-06T14:37:11Z</time></trkpt>
<trkpt lat="25.200022" lon="109.818018">
<time>2016-10-06T14:37:12Z</time></trkpt>
<trkpt lat="25.200042" lon="109.817818">
<time>2016-10-06T14:37:13Z</time></trkpt>
<trkpt lat="25.200081" lon="109.817647">
<time>2016-10-06T14:37:14Z</time></trkpt>
<trkpt lat="25.200141" lon="109.817507">
<time>2016-10-06T14:37:15Z</time></trkpt>
<trkpt lat="25.200201" lon="109.817377">
<time>2016-10-06T14:37:16Z</time></trkpt>
<trkpt lat="25.200261" lon="109.817266">
<time>2016-10-06T14:37:17Z</time></trkpt>
<trkpt lat="25.20033" lon="109.817186">
<time>2016-10-06T14:37:18Z</time></trkpt>
<trkpt lat="25.20039" lon="109.817136">
<time>2016-10-06T14:37:19Z</time></trkpt>
<trkpt lat="25.20047" lon="109.817096">
<time>2016-10-06T14:37:20Z</time></trkpt>
<trkpt lat="25.20057" lon="109.817076">
<time>2016-10-06T14:37:21Z</time></trkpt>
<trkpt lat="25.20075" lon="109.817026">
<time>2016-10-06T14:37:22Z</time></trkpt>
<trkpt lat="25.2008" lon="109.817016">
<time>2016-10-06T14:37:23Z</time></trkpt>
<trkpt lat="25.20085" lon="109.816996">
<time>2016-10-06T14:37:24Z</time></trkpt>
<trkpt lat="25.2009" lon="109.816956">
<time>2016-10-06T14:37:25Z</time></trkpt>
<trkpt lat="25.20093" lon="109.816916">
<time>2016-10-06T14:37:26Z</time></trkpt>
<trkpt lat="25.20098" lon="109.816845">
<time>2016-10-06T14:37:27Z</time></trkpt>
<trkpt lat="25.201" lon="109.816775">
<time>2016-10-06T14:37:28Z</time></trkpt>
<trkpt lat="25.20101" lon="109.816715">
<time>2016-10-06T14:37:29Z</time></trkpt>
<trkpt lat="25.200999" lon="109.816635">
<time>2016-10-06T14:37:30Z</time></trkpt>
<trkpt lat="25.200979" lon="109.816515">
<time>2016-10-06T14:37:31Z</time></trkpt>
<trkpt lat="25.200879" lon="109.816194">
<time>2016-10-06T14:37:32Z</time></trkpt>
<trkpt lat="25.200758" lon="109.815904">
<time>2016-10-06T14:37:33Z</time></trkpt>
<trkpt lat="25.200718" lon="109.815833">
<time>2016-10-06T14:37:34Z</time></trkpt>
<trkpt lat="25.200688" lon="109.815803">
<time>2016-10-06T14:37:35Z</time></trkpt>
<trkpt lat="25.200658" lon="109.815773">
<time>2016-10-06T14:37:36Z</time></trkpt>
<trkpt lat="25.200608" lon="109.815743">
<time>2016-10-06T14:37:37Z</time></trkpt>
<trkpt lat="25.200548" lon="109.815723">
<time>2016-10-06T14:37:38Z</time></trkpt>
<trkpt lat="25.200408" lon="109.815683">
<time>2016-10-06T14:37:39Z</time></trkpt>
<trkpt lat="25.200098" lon="109.815623">
<time>2016-10-06T14:37:40Z</time></trkpt>
<trkpt lat="25.199948" lon="109.815603">
<time>2016-10-06T14:37:41Z</time></trkpt>
<trkpt lat="25.199827" lon="109.815573">
<time>2016-10-06T14:37:42Z</time></trkpt>
<trkpt lat="25.199727" lon="109.815513">
<time>2016-10-06T14:37:43Z</time></trkpt>
<trkpt lat="25.199657" lon="109.815463">
<time>2016-10-06T14:37:44Z</time></trkpt>
<trkpt lat="25.199607" lon="109.815403">
<time>2016-10-06T14:37:45Z</time></trkpt>
<trkpt lat="25.199577" lon="109.815292">
<time>2016-10-06T14:37:46Z</time></trkpt>
<trkpt lat="25.199556" lon="109.815012">
<time>2016-10-06T14:37:47Z</time></trkpt>
<trkpt lat="25.199526" lon="109.814831">
<time>2016-10-06T14:37:48Z</time></trkpt>
<trkpt lat="25.199476" lon="109.814701">
<time>2016-10-06T14:37:49Z</time></trkpt>
<trkpt lat="25.199396" lon="109.814571">
<time>2016-10-06T14:37:50Z</time></trkpt>
<trkpt lat="25.199305" lon="109.814441">
<time>2016-10-06T14:37:51Z</time></trkpt>
<trkpt lat="25.199105" lon="109.81424">
<time>2016-10-06T14:37:52Z</time></trkpt>
<trkpt lat="25.199025" lon="109.81416">
<time>2016-10-06T14:37:53Z</time></trkpt>
<trkpt lat="25.198895" lon="109.81408">
<time>2016-10-06T14:37:54Z</time></trkpt>
<trkpt lat="25.198735" lon="109.81399">
<time>2016-10-06T14:37:55Z</time></trkpt>
<trkpt lat="25.198625" lon="109.81395">
<time>2016-10-06T14:37:56Z</time></trkpt>
<trkpt lat="25.198424" lon="109.81389">
<time>2016-10-06T14:37:57Z</time></trkpt>
<trkpt lat="25.198284" lon="109.813839">
<time>2016-10-06T14:37:58Z</time></trkpt>
<trkpt lat="25.198204" lon="109.813789">
<time>2016-10-06T14:37:59Z</time></trkpt>
<trkpt lat="25.198144" lon="109.813749">
<time>2016-10-06T14:38:00Z</time></trkpt>
<trkpt lat="25.198114" lon="109.813689">
<time>2016-10-06T14:38:01Z</time></trkpt>
<trkpt lat="25.198094" lon="109.813639">
<time>2016-10-06T14:38:02Z</time></trkpt>
<trkpt lat="25.198094" lon="109.813579">
<time>2016-10-06T14:38:03Z</time></trkpt>
<trkpt lat="25.198104" lon="109.813519">
<time>2016-10-06T14:38:04Z</time></trkpt>
<trkpt lat="25.198124" lon="109.813459">
<time>2016-10-06T14:38:05Z</time></trkpt>
<trkpt lat="25.198183" lon="109.813369">
<time>2016-10-06T14:38:06Z</time></trkpt>
<trkpt lat="25.198373" lon="109.813208">
<time>2016-10-06T14:38:07Z</time></trkpt>
<trkpt lat="25.198793" lon="109.812877">
<time>2016-10-06T14:38:08Z</time></trkpt>
<trkpt lat="25.199142" lon="109.812597">
<time>2016-10-06T14:38:09Z</time></trkpt>
<trkpt lat="25.199252" lon="109.812507">
<time>2016-10-06T14:38:10Z</time></trkpt>
<trkpt lat="25.199352" lon="109.812477">
<time>2016-10-06T14:38:11Z</time></trkpt>
<trkpt lat="25.199442" lon="109.812457">
<time>2016-10-06T14:38:12Z</time></trkpt>
<trkpt lat="25.199532" lon="109.812457">
<time>2016-10-06T14:38:13Z</time></trkpt>
<trkpt lat="25.199632" lon="109.812487">
<time>2016-10-06T14:38:14Z</time></trkpt>
<trkpt lat="25.199732" lon="109.812537">
<time>2016-10-06T14:38:15Z</time></trkpt>
<trkpt lat="25.200002" lon="109.812727">
<time>2016-10-06T14:38:16Z</time></trkpt>
<trkpt lat="25.200223" lon="109.812948">
<time>2016-10-06T14:38:17Z</time></trkpt>
<trkpt lat="25.200283" lon="109.813008">
<time>2016-10-06T14:38:18Z</time></trkpt>
<trkpt lat="25.200333" lon="109.813048">
<time>2016-10-06T14:38:19Z</time></trkpt>
<trkpt lat="25.200373" lon="109.813068">
<time>2016-10-06T14:38:20Z</time></trkpt>
<trkpt lat="25.200413" lon="109.813078">
<time>2016-10-06T14:38:21Z</time></trkpt>
<trkpt lat="25.200463" lon="109.813088">
<time>2016-10-06T14:38:22Z</time></trkpt>
<trkpt lat="25.200503" lon="109.813088">
<time>2016-10-06T14:38:23Z</time></trkpt>
<trkpt lat="25.200533" lon="109.813088">
<time>2016-10-06T14:38:24Z</time></trkpt>
<trkpt lat="25.200573" lon="109.813068">
<time>2016-10-06T14:38:25Z</time></trkpt>
<trkpt lat="25.200603" lon="109.813048">
<time>2016-10-06T14:38:26Z</time></trkpt>
<trkpt lat="25.200623" lon="109.813018">
<time>2016-10-06T14:38:27Z</time></trkpt>
<trkpt lat="25.200643" lon="109.812978">
<time>2016-10-06T14:38:28Z</time></trkpt>
<trkpt lat="25.200663" lon="109.812937">
<time>2016-10-06T14:38:29Z</time></trkpt>
<trkpt lat="25.200682" lon="109.812887">
<time>2016-10-06T14:38:30Z</time></trkpt>
<trkpt lat="25.200702" lon="109.812807">
<time>2016-10-06T14:38:31Z</time></trkpt>
<trkpt lat="25.200732" lon="109.812657">
<time>2016-10-06T14:38:32Z</time></trkpt>
<trkpt lat="25.200752" lon="109.812376">
<time>2016-10-06T14:38:33Z</time></trkpt>
<trkpt lat="25.200761" lon="109.812166">
<time>2016-10-06T14:38:34Z</time></trkpt>
<trkpt lat="25.200761" lon="109.811925">
<time>2016-10-06T14:38:35Z</time></trkpt>
<trkpt lat="25.20078" lon="109.811785">
<time>2016-10-06T14:38:36Z</time></trkpt>
<trkpt lat="25.2008" lon="109.811695">
<time>2016-10-06T14:38:37Z</time></trkpt>
<trkpt lat="25.20085" lon="109.811595">
<time>2016-10-06T14:38:38Z</time></trkpt>
<trkpt lat="25.20096" lon="109.811444">
<time>2016-10-06T14:38:39Z</time></trkpt>
<trkpt lat="25.201139" lon="109.811234">
<time>2016-10-06T14:38:40Z</time></trkpt>
<trkpt lat="25.201199" lon="109.811144">
<time>2016-10-06T14:38:41Z</time></trkpt>
<trkpt lat="25.201239" lon="109.811034">
<time>2016-10-06T14:38:42Z</time></trkpt>
<trkpt lat="25.201269" lon="109.810893">
<time>2016-10-06T14:38:43Z</time></trkpt>
<trkpt lat="25.201279" lon="109.810743">
<time>2016-10-06T14:38:44Z</time></trkpt>
<trkpt lat="25.201268" lon="109.810573">
<time>2016-10-06T14:38:45Z</time></trkpt>
<trkpt lat="25.201228" lon="109.810312">
<time>2016-10-06T14:38:46Z</time></trkpt>
<trkpt lat="25.201157" lon="109.810062">
<time>2016-10-06T14:38:47Z</time></trkpt>
<trkpt lat="25.201057" lon="109.809791">
<time>2016-10-06T14:38:48Z</time></trkpt>
<trkpt lat="25.200967" lon="109.809631">
<time>2016-10-06T14:38:49Z</time></trkpt>
<trkpt lat="25.200856" lon="109.809501">
<time>2016-10-06T14:38:50Z</time></trkpt>
<trkpt lat="25.200686" lon="109.80934">
<time>2016-10-06T14:38:51Z</time></trkpt>
<trkpt lat="25.200546" lon="109.80919">
<time>2016-10-06T14:38:52Z</time></trkpt>
<trkpt lat="25.200405" lon="109.80894">
<time>2016-10-06T14:38:53Z</time></trkpt>
<trkpt lat="25.200164" lon="109.808489">
<time>2016-10-06T14:38:54Z</time></trkpt>
<trkpt lat="25.200034" lon="109.808158">
<time>2016-10-06T14:38:55Z</time></trkpt>
<trkpt lat="25.199933" lon="109.807817">
<time>2016-10-06T14:38:56Z</time></trkpt>
<trkpt lat="25.199893" lon="109.807657">
<time>2016-10-06T14:38:57Z</time></trkpt>
<trkpt lat="25.199873" lon="109.807487">
<time>2016-10-06T14:38:58Z</time></trkpt>
<trkpt lat="25.199872" lon="109.807276">
<time>2016-10-06T14:38:59Z</time></trkpt>
<trkpt lat="25.199872" lon="109.807006">
<time>2016-10-06T14:39:00Z</time></trkpt>
<trkpt lat="25.199871" lon="109.806685">
<time>2016-10-06T14:39:01Z</time></trkpt>
<trkpt lat="25.199871" lon="109.806375">
<time>2016-10-06T14:39:02Z</time></trkpt>
<trkpt lat="25.19985" lon="109.805964">
<time>2016-10-06T14:39:03Z</time></trkpt>
<trkpt lat="25.19986" lon="109.805733">
<time>2016-10-06T14:39:04Z</time></trkpt>
<trkpt lat="25.199899" lon="109.805493">
<time>2016-10-06T14:39:05Z</time></trkpt>
<trkpt lat="25.199969" lon="109.805142">
<time>2016-10-06T14:39:06Z</time></trkpt>
<trkpt lat="25.200028" lon="109.804832">
<time>2016-10-06T14:39:07Z</time></trkpt>
<trkpt lat="25.200177" lon="109.80423">
<time>2016-10-06T14:39:08Z</time></trkpt>
<trkpt lat="25.200286" lon="109.80384">
<time>2016-10-06T14:39:09Z</time></trkpt>
<trkpt lat="25.200346" lon="109.803509">
<time>2016-10-06T14:39:10Z</time></trkpt>
<trkpt lat="25.200375" lon="109.803299">
<time>2016-10-06T14:39:11Z</time></trkpt>
<trkpt lat="25.200385" lon="109.803028">
<time>2016-10-06T14:39:12Z</time></trkpt>
<trkpt lat="25.200404" lon="109.802798">
<time>2016-10-06T14:39:13Z</time></trkpt>
<trkpt lat="25.200474" lon="109.802547">
<time>2016-10-06T14:39:14Z</time></trkpt>
<trkpt lat="25.200594" lon="109.802327">
<time>2016-10-06T14:39:15Z</time></trkpt>
<trkpt lat="25.200633" lon="109.802237">
<time>2016-10-06T14:39:16Z</time></trkpt>
<trkpt lat="25.200683" lon="109.802056">
<time>2016-10-06T14:39:17Z</time></trkpt>
<trkpt lat="25.200713" lon="109.801896">
<time>2016-10-06T14:39:18Z</time></trkpt>
<trkpt lat="25.200702" lon="109.801655">
<time>2016-10-06T14:39:19Z</time></trkpt>
<trkpt lat="25.200682" lon="109.801485">
<time>2016-10-06T14:39:20Z</time></trkpt>
<trkpt lat="25.200632" lon="109.801345">
<time>2016-10-06T14:39:21Z</time></trkpt>
<trkpt lat="25.200532" lon="109.801215">
<time>2016-10-06T14:39:22Z</time></trkpt>
<trkpt lat="25.200422" lon="109.801104">
<time>2016-10-06T14:39:23Z</time></trkpt>
<trkpt lat="25.200211" lon="109.800954">
<time>2016-10-06T14:39:24Z</time></trkpt>
<trkpt lat="25.200041" lon="109.800794">
<time>2016-10-06T14:39:25Z</time></trkpt>
<trkpt lat="25.199911" lon="109.800624">
<time>2016-10-06T14:39:26Z</time></trkpt>
<trkpt lat="25.19968" lon="109.800253">
<time>2016-10-06T14:39:27Z</time></trkpt>
<trkpt lat="25.199299" lon="109.799762">
<time>2016-10-06T14:39:28Z</time></trkpt>
<trkpt lat="25.198448" lon="109.79879">
<time>2016-10-06T14:39:29Z</time></trkpt>
<trkpt lat="25.197646" lon="109.797859">
<time>2016-10-06T14:39:30Z</time></trkpt>
<trkpt lat="25.197456" lon="109.797678">
<time>2016-10-06T14:39:31Z</time></trkpt>
<trkpt lat="25.197196" lon="109.797478">
<time>2016-10-06T14:39:32Z</time></trkpt>
<trkpt lat="25.196835" lon="109.797218">
<time>2016-10-06T14:39:33Z</time></trkpt>
<trkpt lat="25.196705" lon="109.797097">
<time>2016-10-06T14:39:34Z</time></trkpt>
<trkpt lat="25.196545" lon="109.796887">
<time>2016-10-06T14:39:35Z</time></trkpt>
<trkpt lat="25.196214" lon="109.796226">
<time>2016-10-06T14:39:36Z</time></trkpt>
<trkpt lat="25.196123" lon="109.796096">
<time>2016-10-06T14:39:37Z</time></trkpt>
<trkpt lat="25.196043" lon="109.796006">
<time>2016-10-06T14:39:38Z</time></trkpt>
<trkpt lat="25.195943" lon="109.795915">
<time>2016-10-06T14:39:39Z</time></trkpt>
<trkpt lat="25.195883" lon="109.795885">
<time>2016-10-06T14:39:40Z</time></trkpt>
<trkpt lat="25.195823" lon="109.795855">
<time>2016-10-06T14:39:41Z</time></trkpt>
<trkpt lat="25.195713" lon="109.795805">
<time>2016-10-06T14:39:42Z</time></trkpt>
<trkpt lat="25.195513" lon="109.795735">
<time>2016-10-06T14:39:43Z</time></trkpt>
<trkpt lat="25.195393" lon="109.795715">
<time>2016-10-06T14:39:44Z</time></trkpt>
<trkpt lat="25.195273" lon="109.795705">
<time>2016-10-06T14:39:45Z</time></trkpt>
<trkpt lat="25.195093" lon="109.795705">
<time>2016-10-06T14:39:46Z</time></trkpt>
<trkpt lat="25.194803" lon="109.795735">
<time>2016-10-06T14:39:47Z</time></trkpt>
<trkpt lat="25.194413" lon="109.795775">
<time>2016-10-06T14:39:48Z</time></trkpt>
<trkpt lat="25.193613" lon="109.795785">
<time>2016-10-06T14:39:49Z</time></trkpt>
<trkpt lat="25.193273" lon="109.795775">
<time>2016-10-06T14:39:50Z</time></trkpt>
<trkpt lat="25.192943" lon="109.795735">
<time>2016-10-06T14:39:51Z</time></trkpt>
<trkpt lat="25.192653" lon="109.795705">
<time>2016-10-06T14:39:52Z</time></trkpt>
<trkpt lat="25.192433" lon="109.795685">
<time>2016-10-06T14:39:53Z</time></trkpt>
<trkpt lat="25.192213" lon="109.795645">
<time>2016-10-06T14:39:54Z</time></trkpt>
<trkpt lat="25.192043" lon="109.795595">
<time>2016-10-06T14:39:55Z</time></trkpt>
<trkpt lat="25.191793" lon="109.795515">
<time>2016-10-06T14:39:56Z</time></trkpt>
<trkpt lat="25.191553" lon="109.795415">
<time>2016-10-06T14:39:57Z</time></trkpt>
<trkpt lat="25.190662" lon="109.795064">
<time>2016-10-06T14:39:58Z</time></trkpt>
<trkpt lat="25.190572" lon="109.795044">
<time>2016-10-06T14:39:59Z</time></trkpt>
<trkpt lat="25.190472" lon="109.795034">
<time>2016-10-06T14:40:00Z</time></trkpt>
<trkpt lat="25.190392" lon="109.795034">
<time>2016-10-06T14:40:01Z</time></trkpt>
<trkpt lat="25.190282" lon="109.795054">
<time>2016-10-06T14:40:02Z</time></trkpt>
<trkpt lat="25.190112" lon="109.795124">
<time>2016-10-06T14:40:03Z</time></trkpt>
<trkpt lat="25.190012" lon="109.795164">
<time>2016-10-06T14:40:04Z</time></trkpt>
<trkpt lat="25.189932" lon="109.795205">
<time>2016-10-06T14:40:05Z</time></trkpt>
<trkpt lat="25.189642" lon="109.795315">
<time>2016-10-06T14:40:06Z</time></trkpt>
<trkpt lat="25.189493" lon="109.795375">
<time>2016-10-06T14:40:07Z</time></trkpt>
<trkpt lat="25.189383" lon="109.795395">
<time>2016-10-06T14:40:08Z</time></trkpt>
<trkpt lat="25.189283" lon="109.795415">
<time>2016-10-06T14:40:09Z</time></trkpt>
<trkpt lat="25.189143" lon="109.795415">
<time>2016-10-06T14:40:10Z</time></trkpt>
<trkpt lat="25.189023" lon="109.795415">
<time>2016-10-06T14:40:11Z</time></trkpt>
<trkpt lat="25.188873" lon="109.795385">
<time>2016-10-06T14:40:12Z</time></trkpt>
<trkpt lat="25.188702" lon="109.795325">
<time>2016-10-06T14:40:13Z</time></trkpt>
<trkpt lat="25.188542" lon="109.795235">
<time>2016-10-06T14:40:14Z</time></trkpt>
<trkpt lat="25.188172" lon="109.795004">
<time>2016-10-06T14:40:15Z</time></trkpt>
<trkpt lat="25.188022" lon="109.794934">
<time>2016-10-06T14:40:16Z</time></trkpt>
<trkpt lat="25.187922" lon="109.794904">
<time>2016-10-06T14:40:17Z</time></trkpt>
<trkpt lat="25.187832" lon="109.794894">
<time>2016-10-06T14:40:18Z</time></trkpt>
<trkpt lat="25.187752" lon="109.794884">
<time>2016-10-06T14:40:19Z</time></trkpt>
<trkpt lat="25.187682" lon="109.794894">
<time>2016-10-06T14:40:20Z</time></trkpt>
<trkpt lat="25.187582" lon="109.794914">
<time>2016-10-06T14:40:21Z</time></trkpt>
<trkpt lat="25.187442" lon="109.794944">
<time>2016-10-06T14:40:22Z</time></trkpt>
<trkpt lat="25.187222" lon="109.795014">
<time>2016-10-06T14:40:23Z</time></trkpt>
<trkpt lat="25.186922" lon="109.795105">
<time>2016-10-06T14:40:24Z</time></trkpt>
<trkpt lat="25.186532" lon="109.795225">
<time>2016-10-06T14:40:25Z</time></trkpt>
<trkpt lat="25.186392" lon="109.795255">
<time>2016-10-06T14:40:26Z</time></trkpt>
<trkpt lat="25.186272" lon="109.795275">
<time>2016-10-06T14:40:27Z</time></trkpt>
<trkpt lat="25.186133" lon="109.795295">
<time>2016-10-06T14:40:28Z</time></trkpt>
<trkpt lat="25.186033" lon="109.795295">
<time>2016-10-06T14:40:29Z</time></trkpt>
<trkpt lat="25.185923" lon="109.795295">
<time>2016-10-06T14:40:30Z</time></trkpt>
<trkpt lat="25.185833" lon="109.795275">
<time>2016-10-06T14:40:31Z</time></trkpt>
<trkpt lat="25.185752" lon="109.795245">
<time>2016-10-06T14:40:32Z</time></trkpt>
<trkpt lat="25.185672" lon="109.795195">
<time>2016-10-06T14:40:33Z</time></trkpt>
<trkpt lat="25.185572" lon="109.795115">
<time>2016-10-06T14:40:34Z</time></trkpt>
<trkpt lat="25.185402" lon="109.794924">
<time>2016-10-06T14:40:35Z</time></trkpt>
<trkpt lat="25.185061" lon="109.794413">
<time>2016-10-06T14:40:36Z</time></trkpt>
<trkpt lat="25.184831" lon="109.794023">
<time>2016-10-06T14:40:37Z</time></trkpt>
<trkpt lat="25.18473" lon="109.793782">
<time>2016-10-06T14:40:38Z</time></trkpt>
<trkpt lat="25.18463" lon="109.793472">
<time>2016-10-06T14:40:39Z</time></trkpt>
<trkpt lat="25.184599" lon="109.793252">
<time>2016-10-06T14:40:40Z</time></trkpt>
<trkpt lat="25.184569" lon="109.792891">
<time>2016-10-06T14:40:41Z</time></trkpt>
<trkpt lat="25.184558" lon="109.7926">
<time>2016-10-06T14:40:42Z</time></trkpt>
<trkpt lat="25.184548" lon="109.7925">
<time>2016-10-06T14:40:43Z</time></trkpt>
<trkpt lat="25.184528" lon="109.7924">
<time>2016-10-06T14:40:44Z</time></trkpt>
<trkpt lat="25.184498" lon="109.7923">
<time>2016-10-06T14:40:45Z</time></trkpt>
<trkpt lat="25.184468" lon="109.7922">
<time>2016-10-06T14:40:46Z</time></trkpt>
<trkpt lat="25.184367" lon="109.791899">
<time>2016-10-06T14:40:47Z</time></trkpt>
<trkpt lat="25.184297" lon="109.791649">
<time>2016-10-06T14:40:48Z</time></trkpt>
<trkpt lat="25.184247" lon="109.791469">
<time>2016-10-06T14:40:49Z</time></trkpt>
<trkpt lat="25.184217" lon="109.791358">
<time>2016-10-06T14:40:50Z</time></trkpt>
<trkpt lat="25.184166" lon="109.791258">
<time>2016-10-06T14:40:51Z</time></trkpt>
<trkpt lat="25.184076" lon="109.791118">
<time>2016-10-06T14:40:52Z</time></trkpt>
<trkpt lat="25.183976" lon="109.791048">
<time>2016-10-06T14:40:53Z</time></trkpt>
<trkpt lat="25.183846" lon="109.790948">
<time>2016-10-06T14:40:54Z</time></trkpt>
<trkpt lat="25.183646" lon="109.790858">
<time>2016-10-06T14:40:55Z</time></trkpt>
<trkpt lat="25.183446" lon="109.790818">
<time>2016-10-06T14:40:56Z</time></trkpt>
<trkpt lat="25.183266" lon="109.790808">
<time>2016-10-06T14:40:57Z</time></trkpt>
<trkpt lat="25.183066" lon="109.790788">
<time>2016-10-06T14:40:58Z</time></trkpt>
<trkpt lat="25.182876" lon="109.790758">
<time>2016-10-06T14:40:59Z</time></trkpt>
<trkpt lat="25.182706" lon="109.790707">
<time>2016-10-06T14:41:00Z</time></trkpt>
<trkpt lat="25.182546" lon="109.790627">
<time>2016-10-06T14:41:01Z</time></trkpt>
<trkpt lat="25.182375" lon="109.790537">
<time>2016-10-06T14:41:02Z</time></trkpt>
<trkpt lat="25.182215" lon="109.790417">
<time>2016-10-06T14:41:03Z</time></trkpt>
<trkpt lat="25.181795" lon="109.790046">
<time>2016-10-06T14:41:04Z</time></trkpt>
<trkpt lat="25.181044" lon="109.789365">
<time>2016-10-06T14:41:05Z</time></trkpt>
<trkpt lat="25.180503" lon="109.788885">
<time>2016-10-06T14:41:06Z</time></trkpt>
<trkpt lat="25.179742" lon="109.788144">
<time>2016-10-06T14:41:07Z</time></trkpt>
<trkpt lat="25.179181" lon="109.787593">
<time>2016-10-06T14:41:08Z</time></trkpt>
<trkpt lat="25.178751" lon="109.787182">
<time>2016-10-06T14:41:09Z</time></trkpt>
<trkpt lat="25.17841" lon="109.786932">
<time>2016-10-06T14:41:10Z</time></trkpt>
<trkpt lat="25.17755" lon="109.786281">
<time>2016-10-06T14:41:11Z</time></trkpt>
<trkpt lat="25.177059" lon="109.78591">
<time>2016-10-06T14:41:12Z</time></trkpt>
<trkpt lat="25.176739" lon="109.78568">
<time>2016-10-06T14:41:13Z</time></trkpt>
<trkpt lat="25.176439" lon="109.78552">
<time>2016-10-06T14:41:14Z</time></trkpt>
<trkpt lat="25.175988" lon="109.78532">
<time>2016-10-06T14:41:15Z</time></trkpt>
<trkpt lat="25.175538" lon="109.785139">
<time>2016-10-06T14:41:16Z</time></trkpt>
<trkpt lat="25.174838" lon="109.784849">
<time>2016-10-06T14:41:17Z</time></trkpt>
<trkpt lat="25.174608" lon="109.784729">
<time>2016-10-06T14:41:18Z</time></trkpt>
<trkpt lat="25.174437" lon="109.784619">
<time>2016-10-06T14:41:19Z</time></trkpt>
<trkpt lat="25.174257" lon="109.784478">
<time>2016-10-06T14:41:20Z</time></trkpt>
<trkpt lat="25.173877" lon="109.784168">
<time>2016-10-06T14:41:21Z</time></trkpt>
<trkpt lat="25.173607" lon="109.783938">
<time>2016-10-06T14:41:22Z</time></trkpt>
<trkpt lat="25.173276" lon="109.783657">
<time>2016-10-06T14:41:23Z</time></trkpt>
<trkpt lat="25.172746" lon="109.783187">
<time>2016-10-06T14:41:24Z</time></trkpt>
<trkpt lat="25.171945" lon="109.782516">
<time>2016-10-06T14:41:25Z</time></trkpt>
<trkpt lat="25.171394" lon="109.782045">
<time>2016-10-06T14:41:26Z</time></trkpt>
<trkpt lat="25.170603" lon="109.781354">
<time>2016-10-06T14:41:27Z</time></trkpt>
<trkpt lat="25.169462" lon="109.780353">
<time>2016-10-06T14:41:28Z</time></trkpt>
<trkpt lat="25.168982" lon="109.779902">
<time>2016-10-06T14:41:29Z</time></trkpt>
<trkpt lat="25.168661" lon="109.779522">
<time>2016-10-06T14:41:30Z</time></trkpt>
<trkpt lat="25.168211" lon="109.778941">
<time>2016-10-06T14:41:31Z</time></trkpt>
<trkpt lat="25.16791" lon="109.778571">
<time>2016-10-06T14:41:32Z</time></trkpt>
<trkpt lat="25.1673" lon="109.77793">
<time>2016-10-06T14:41:33Z</time></trkpt>
<trkpt lat="25.166779" lon="109.77742">
<time>2016-10-06T14:41:34Z</time></trkpt>
<trkpt lat="25.166679" lon="109.777329">
<time>2016-10-06T14:41:35Z</time></trkpt>
<trkpt lat="25.166669" lon="109.777319">
<time>2016-10-06T14:41:36Z</time></trkpt>
<trkpt lat="25.166409" lon="109.777069">
<time>2016-10-06T14:41:37Z</time></trkpt>
<trkpt lat="25.166028" lon="109.776679">
<time>2016-10-06T14:41:38Z</time></trkpt>
<trkpt lat="25.165848" lon="109.776478">
<time>2016-10-06T14:41:39Z</time></trkpt>
<trkpt lat="25.165738" lon="109.776388">
<time>2016-10-06T14:41:40Z</time></trkpt>
<trkpt lat="25.165648" lon="109.776318">
<time>2016-10-06T14:41:41Z</time></trkpt>
<trkpt lat="25.165528" lon="109.776238">
<time>2016-10-06T14:41:42Z</time></trkpt>
<trkpt lat="25.165148" lon="109.776058">
<time>2016-10-06T14:41:43Z</time></trkpt>
<trkpt lat="25.164747" lon="109.775888">
<time>2016-10-06T14:41:44Z</time></trkpt>
<trkpt lat="25.164727" lon="109.775878">
<time>2016-10-06T14:41:45Z</time></trkpt>
<trkpt lat="25.164247" lon="109.775658">
<time>2016-10-06T14:41:46Z</time></trkpt>
<trkpt lat="25.163947" lon="109.775497">
<time>2016-10-06T14:41:47Z</time></trkpt>
<trkpt lat="25.163867" lon="109.775437">
<time>2016-10-06T14:41:48Z</time></trkpt>
<trkpt lat="25.163817" lon="109.775397">
<time>2016-10-06T14:41:49Z</time></trkpt>
<trkpt lat="25.163757" lon="109.775337">
<time>2016-10-06T14:41:50Z</time></trkpt>
<trkpt lat="25.163707" lon="109.775277">
<time>2016-10-06T14:41:51Z</time></trkpt>
<trkpt lat="25.163667" lon="109.775207">
<time>2016-10-06T14:41:52Z</time></trkpt>
<trkpt lat="25.163647" lon="109.775137">
<time>2016-10-06T14:41:53Z</time></trkpt>
<trkpt lat="25.163627" lon="109.775077">
<time>2016-10-06T14:41:54Z</time></trkpt>
<trkpt lat="25.163617" lon="109.774987">
<time>2016-10-06T14:41:55Z</time></trkpt>
<trkpt lat="25.163616" lon="109.774777">
<time>2016-10-06T14:41:56Z</time></trkpt>
<trkpt lat="25.163606" lon="109.774416">
<time>2016-10-06T14:41:57Z</time></trkpt>
<trkpt lat="25.163576" lon="109.773996">
<time>2016-10-06T14:41:58Z</time></trkpt>
<trkpt lat="25.163555" lon="109.773796">
<time>2016-10-06T14:41:59Z</time></trkpt>
<trkpt lat="25.163555" lon="109.773605">
<time>2016-10-06T14:42:00Z</time></trkpt>
<trkpt lat="25.163555" lon="109.773485">
<time>2016-10-06T14:42:01Z</time></trkpt>
<trkpt lat="25.163555" lon="109.773405">
<time>2016-10-06T14:42:02Z</time></trkpt>
<trkpt lat="25.163555" lon="109.773355">
<time>2016-10-06T14:42:03Z</time></trkpt>
<trkpt lat="25.163545" lon="109.773315">
<time>2016-10-06T14:42:04Z</time></trkpt>
<trkpt lat="25.163535" lon="109.773275">
<time>2016-10-06T14:42:05Z</time></trkpt>
<trkpt lat="25.163515" lon="109.773235">
<time>2016-10-06T14:42:06Z</time></trkpt>
<trkpt lat="25.163495" lon="109.773195">
<time>2016-10-06T14:42:07Z</time></trkpt>
<trkpt lat="25.163485" lon="109.773165">
<time>2016-10-06T14:42:08Z</time></trkpt>
<trkpt lat="25.163475" lon="109.773155">
<time>2016-10-06T14:42:09Z</time></trkpt>
<trkpt lat="25.163445" lon="109.773115">
<time>2016-10-06T14:42:10Z</time></trkpt>
<trkpt lat="25.163415" lon="109.773085">
<time>2016-10-06T14:42:11Z</time></trkpt>
<trkpt lat="25.163395" lon="109.773055">
<time>2016-10-06T14:42:12Z</time></trkpt>
<trkpt lat="25.163345" lon="109.773015">
<time>2016-10-06T14:42:13Z</time></trkpt>
<trkpt lat="25.163264" lon="109.772935">
<time>2016-10-06T14:42:14Z</time></trkpt>
<trkpt lat="25.162924" lon="109.772694">
<time>2016-10-06T14:42:15Z</time></trkpt>
<trkpt lat="25.162284" lon="109.772164">
<time>2016-10-06T14:42:16Z</time></trkpt>
<trkpt lat="25.161723" lon="109.771754">
<time>2016-10-06T14:42:17Z</time></trkpt>
<trkpt lat="25.161553" lon="109.771623">
<time>2016-10-06T14:42:18Z</time></trkpt>
<trkpt lat="25.161233" lon="109.771443">
<time>2016-10-06T14:42:19Z</time></trkpt>
<trkpt lat="25.160663" lon="109.771153">
<time>2016-10-06T14:42:20Z</time></trkpt>
<trkpt lat="25.160093" lon="109.770833">
<time>2016-10-06T14:42:21Z</time></trkpt>
<trkpt lat="25.159713" lon="109.770643">
<time>2016-10-06T14:42:22Z</time></trkpt>
<trkpt lat="25.159302" lon="109.770272">
<time>2016-10-06T14:42:23Z</time></trkpt>
<trkpt lat="25.159202" lon="109.770182">
<time>2016-10-06T14:42:24Z</time></trkpt>
<trkpt lat="25.158982" lon="109.769932">
<time>2016-10-06T14:42:25Z</time></trkpt>
<trkpt lat="25.158812" lon="109.769762">
<time>2016-10-06T14:42:26Z</time></trkpt>
<trkpt lat="25.158472" lon="109.769522">
<time>2016-10-06T14:42:27Z</time></trkpt>
<trkpt lat="25.157481" lon="109.768941">
<time>2016-10-06T14:42:28Z</time></trkpt>
<trkpt lat="25.156911" lon="109.768631">
<time>2016-10-06T14:42:29Z</time></trkpt>
<trkpt lat="25.156881" lon="109.768611">
<time>2016-10-06T14:42:30Z</time></trkpt>
<trkpt lat="25.156561" lon="109.768501">
<time>2016-10-06T14:42:31Z</time></trkpt>
<trkpt lat="25.156061" lon="109.768321">
<time>2016-10-06T14:42:32Z</time></trkpt>
<trkpt lat="25.155551" lon="109.76814">
<time>2016-10-06T14:42:33Z</time></trkpt>
<trkpt lat="25.155351" lon="109.76809">
<time>2016-10-06T14:42:34Z</time></trkpt>
<trkpt lat="25.15479" lon="109.76796">
<time>2016-10-06T14:42:35Z</time></trkpt>
<trkpt lat="25.15459" lon="109.7679">
<time>2016-10-06T14:42:36Z</time></trkpt>
<trkpt lat="25.15445" lon="109.76783">
<time>2016-10-06T14:42:37Z</time></trkpt>
<trkpt lat="25.15438" lon="109.76778">
<time>2016-10-06T14:42:38Z</time></trkpt>
<trkpt lat="25.15433" lon="109.76774">
<time>2016-10-06T14:42:39Z</time></trkpt>
<trkpt lat="25.15422" lon="109.76762">
<time>2016-10-06T14:42:40Z</time></trkpt>
<trkpt lat="25.15411" lon="109.76747">
<time>2016-10-06T14:42:41Z</time></trkpt>
<trkpt lat="25.15399" lon="109.76724">
<time>2016-10-06T14:42:42Z</time></trkpt>
<trkpt lat="25.1538" lon="109.76688">
<time>2016-10-06T14:42:43Z</time></trkpt>
<trkpt lat="25.153569" lon="109.766489">
<time>2016-10-06T14:42:44Z</time></trkpt>
<trkpt lat="25.153459" lon="109.766329">
<time>2016-10-06T14:42:45Z</time></trkpt>
<trkpt lat="25.150887" lon="109.762476">
<time>2016-10-06T14:42:46Z</time></trkpt>
<trkpt lat="25.148095" lon="109.758284">
<time>2016-10-06T14:42:47Z</time></trkpt>
<trkpt lat="25.147925" lon="109.758044">
<time>2016-10-06T14:42:48Z</time></trkpt>
<trkpt lat="25.147855" lon="109.757954">
<time>2016-10-06T14:42:49Z</time></trkpt>
<trkpt lat="25.147795" lon="109.757874">
<time>2016-10-06T14:42:50Z</time></trkpt>
<trkpt lat="25.147614" lon="109.757654">
<time>2016-10-06T14:42:51Z</time></trkpt>
<trkpt lat="25.147444" lon="109.757494">
<time>2016-10-06T14:42:52Z</time></trkpt>
<trkpt lat="25.147244" lon="109.757324">
<time>2016-10-06T14:42:53Z</time></trkpt>
<trkpt lat="25.147144" lon="109.757254">
<time>2016-10-06T14:42:54Z</time></trkpt>
<trkpt lat="25.147044" lon="109.757204">
<time>2016-10-06T14:42:55Z</time></trkpt>
<trkpt lat="25.146954" lon="109.757154">
<time>2016-10-06T14:42:56Z</time></trkpt>
<trkpt lat="25.146524" lon="109.756984">
<time>2016-10-06T14:42:57Z</time></trkpt>
<trkpt lat="25.146064" lon="109.756784">
<time>2016-10-06T14:42:58Z</time></trkpt>
<trkpt lat="25.145934" lon="109.756734">
<time>2016-10-06T14:42:59Z</time></trkpt>
<trkpt lat="25.145874" lon="109.756704">
<time>2016-10-06T14:43:00Z</time></trkpt>
<trkpt lat="25.145794" lon="109.756684">
<time>2016-10-06T14:43:01Z</time></trkpt>
<trkpt lat="25.145534" lon="109.756634">
<time>2016-10-06T14:43:02Z</time></trkpt>
<trkpt lat="25.145394" lon="109.756614">
<time>2016-10-06T14:43:03Z</time></trkpt>
<trkpt lat="25.145264" lon="109.756594">
<time>2016-10-06T14:43:04Z</time></trkpt>
<trkpt lat="25.144994" lon="109.756584">
<time>2016-10-06T14:43:05Z</time></trkpt>
<trkpt lat="25.144854" lon="109.756584">
<time>2016-10-06T14:43:06Z</time></trkpt>
<trkpt lat="25.144794" lon="109.756574">
<time>2016-10-06T14:43:07Z</time></trkpt>
<trkpt lat="25.144754" lon="109.756564">
<time>2016-10-06T14:43:08Z</time></trkpt>
<trkpt lat="25.144694" lon="109.756544">
<time>2016-10-06T14:43:09Z</time></trkpt>
<trkpt lat="25.144634" lon="109.756524">
<time>2016-10-06T14:43:10Z</time></trkpt>
<trkpt lat="25.144574" lon="109.756484">
<time>2016-10-06T14:43:11Z</time></trkpt>
<trkpt lat="25.144504" lon="109.756444">
<time>2016-10-06T14:43:12Z</time></trkpt>
<trkpt lat="25.144444" lon="109.756394">
<time>2016-10-06T14:43:13Z</time></trkpt>
<trkpt lat="25.144384" lon="109.756344">
<time>2016-10-06T14:43:14Z</time></trkpt>
<trkpt lat="25.144334" lon="109.756294">
<time>2016-10-06T14:43:15Z</time></trkpt>
<trkpt lat="25.144264" lon="109.756214">
<time>2016-10-06T14:43:16Z</time></trkpt>
<trkpt lat="25.144174" lon="109.756103">
<time>2016-10-06T14:43:17Z</time></trkpt>
<trkpt lat="25.143984" lon="109.755813">
<time>2016-10-06T14:43:18Z</time></trkpt>
<trkpt lat="25.143834" lon="109.755633">
<time>2016-10-06T14:43:19Z</time></trkpt>
<trkpt lat="25.143734" lon="109.755513">
<time>2016-10-06T14:43:20Z</time></trkpt>
<trkpt lat="25.143464" lon="109.755243">
<time>2016-10-06T14:43:21Z</time></trkpt>
<trkpt lat="25.143224" lon="109.755033">
<time>2016-10-06T14:43:22Z</time></trkpt>
<trkpt lat="25.142934" lon="109.754793">
<time>2016-10-06T14:43:23Z</time></trkpt>
<trkpt lat="25.142664" lon="109.754603">
<time>2016-10-06T14:43:24Z</time></trkpt>
<trkpt lat="25.142434" lon="109.754473">
<time>2016-10-06T14:43:25Z</time></trkpt>
<trkpt lat="25.141543" lon="109.754013">
<time>2016-10-06T14:43:26Z</time></trkpt>
<trkpt lat="25.140303" lon="109.753383">
<time>2016-10-06T14:43:27Z</time></trkpt>
<trkpt lat="25.139463" lon="109.752913">
<time>2016-10-06T14:43:28Z</time></trkpt>
<trkpt lat="25.138393" lon="109.752293">
<time>2016-10-06T14:43:29Z</time></trkpt>
<trkpt lat="25.137773" lon="109.751933">
<time>2016-10-06T14:43:30Z</time></trkpt>
<trkpt lat="25.137393" lon="109.751713">
<time>2016-10-06T14:43:31Z</time></trkpt>
<trkpt lat="25.137053" lon="109.751503">
<time>2016-10-06T14:43:32Z</time></trkpt>
<trkpt lat="25.136863" lon="109.751383">
<time>2016-10-06T14:43:33Z</time></trkpt>
<trkpt lat="25.136763" lon="109.751303">
<time>2016-10-06T14:43:34Z</time></trkpt>
<trkpt lat="25.136613" lon="109.751173">
<time>2016-10-06T14:43:35Z</time></trkpt>
<trkpt lat="25.136423" lon="109.750982">
<time>2016-10-06T14:43:36Z</time></trkpt>
<trkpt lat="25.136253" lon="109.750782">
<time>2016-10-06T14:43:37Z</time></trkpt>
<trkpt lat="25.135943" lon="109.750372">
<time>2016-10-06T14:43:38Z</time></trkpt>
<trkpt lat="25.135723" lon="109.750042">
<time>2016-10-06T14:43:39Z</time></trkpt>
<trkpt lat="25.135703" lon="109.750002">
<time>2016-10-06T14:43:40Z</time></trkpt>
<trkpt lat="25.135353" lon="109.749512">
<time>2016-10-06T14:43:41Z</time></trkpt>
<trkpt lat="25.134993" lon="109.748972">
<time>2016-10-06T14:43:42Z</time></trkpt>
<trkpt lat="25.134753" lon="109.748602">
<time>2016-10-06T14:43:43Z</time></trkpt>
<trkpt lat="25.134603" lon="109.748392">
<time>2016-10-06T14:43:44Z</time></trkpt>
<trkpt lat="25.134463" lon="109.748172">
<time>2016-10-06T14:43:45Z</time></trkpt>
<trkpt lat="25.134273" lon="109.747862">
<time>2016-10-06T14:43:46Z</time></trkpt>
<trkpt lat="25.134173" lon="109.747672">
<time>2016-10-06T14:43:47Z</time></trkpt>
<trkpt lat="25.134093" lon="109.747492">
<time>2016-10-06T14:43:48Z</time></trkpt>
<trkpt lat="25.133873" lon="109.747002">
<time>2016-10-06T14:43:49Z</time></trkpt>
<trkpt lat="25.133783" lon="109.746832">
<time>2016-10-06T14:43:50Z</time></trkpt>
<trkpt lat="25.133713" lon="109.746712">
<time>2016-10-06T14:43:51Z</time></trkpt>
<trkpt lat="25.133673" lon="109.746662">
<time>2016-10-06T14:43:52Z</time></trkpt>
<trkpt lat="25.133613" lon="109.746602">
<time>2016-10-06T14:43:53Z</time></trkpt>
<trkpt lat="25.133593" lon="109.746582">
<time>2016-10-06T14:43:54Z</time></trkpt>
<trkpt lat="25.133563" lon="109.746552">
<time>2016-10-06T14:43:55Z</time></trkpt>
<trkpt lat="25.133513" lon="109.746512">
<time>2016-10-06T14:43:56Z</time></trkpt>
<trkpt lat="25.133453" lon="109.746462">
<time>2016-10-06T14:43:57Z</time></trkpt>
<trkpt lat="25.133323" lon="109.746382">
<time>2016-10-06T14:43:58Z</time></trkpt>
<trkpt lat="25.133163" lon="109.746302">
<time>2016-10-06T14:43:59Z</time></trkpt>
<trkpt lat="25.133013" lon="109.746212">
<time>2016-10-06T14:44:00Z</time></trkpt>
<trkpt lat="25.132893" lon="109.746152">
<time>2016-10-06T14:44:01Z</time></trkpt>
<trkpt lat="25.132673" lon="109.746022">
<time>2016-10-06T14:44:02Z</time></trkpt>
<trkpt lat="25.132583" lon="109.745962">
<time>2016-10-06T14:44:03Z</time></trkpt>
<trkpt lat="25.132143" lon="109.745682">
<time>2016-10-06T14:44:04Z</time></trkpt>
<trkpt lat="25.131913" lon="109.745542">
<time>2016-10-06T14:44:05Z</time></trkpt>
<trkpt lat="25.131613" lon="109.745352">
<time>2016-10-06T14:44:06Z</time></trkpt>
<trkpt lat="25.131423" lon="109.745232">
<time>2016-10-06T14:44:07Z</time></trkpt>
<trkpt lat="25.130983" lon="109.744953">
<time>2016-10-06T14:44:08Z</time></trkpt>
<trkpt lat="25.130433" lon="109.744603">
<time>2016-10-06T14:44:09Z</time></trkpt>
<trkpt lat="25.130203" lon="109.744463">
<time>2016-10-06T14:44:10Z</time></trkpt>
<trkpt lat="25.129593" lon="109.744073">
<time>2016-10-06T14:44:11Z</time></trkpt>
<trkpt lat="25.129213" lon="109.743843">
<time>2016-10-06T14:44:12Z</time></trkpt>
<trkpt lat="25.128623" lon="109.743453">
<time>2016-10-06T14:44:13Z</time></trkpt>
<trkpt lat="25.128163" lon="109.743133">
<time>2016-10-06T14:44:14Z</time></trkpt>
<trkpt lat="25.127913" lon="109.742963">
<time>2016-10-06T14:44:15Z</time></trkpt>
<trkpt lat="25.127443" lon="109.742663">
<time>2016-10-06T14:44:16Z</time></trkpt>
<trkpt lat="25.126854" lon="109.742283">
<time>2016-10-06T14:44:17Z</time></trkpt>
<trkpt lat="25.126594" lon="109.742113">
<time>2016-10-06T14:44:18Z</time></trkpt>
<trkpt lat="25.126184" lon="109.741843">
<time>2016-10-06T14:44:19Z</time></trkpt>
<trkpt lat="25.126014" lon="109.741743">
<time>2016-10-06T14:44:20Z</time></trkpt>
<trkpt lat="25.125804" lon="109.741603">
<time>2016-10-06T14:44:21Z</time></trkpt>
<trkpt lat="25.125474" lon="109.741343">
<time>2016-10-06T14:44:22Z</time></trkpt>
<trkpt lat="25.125274" lon="109.741193">
<time>2016-10-06T14:44:23Z</time></trkpt>
<trkpt lat="25.125144" lon="109.741093">
<time>2016-10-06T14:44:24Z</time></trkpt>
<trkpt lat="25.124534" lon="109.740614">
<time>2016-10-06T14:44:25Z</time></trkpt>
<trkpt lat="25.124104" lon="109.740284">
<time>2016-10-06T14:44:26Z</time></trkpt>
<trkpt lat="25.124014" lon="109.740204">
<time>2016-10-06T14:44:27Z</time></trkpt>
<trkpt lat="25.123904" lon="109.740114">
<time>2016-10-06T14:44:28Z</time></trkpt>
<trkpt lat="25.123794" lon="109.740004">
<time>2016-10-06T14:44:29Z</time></trkpt>
<trkpt lat="25.123714" lon="109.739914">
<time>2016-10-06T14:44:30Z</time></trkpt>
<trkpt lat="25.123624" lon="109.739804">
<time>2016-10-06T14:44:31Z</time></trkpt>
<trkpt lat="25.123524" lon="109.739684">
<time>2016-10-06T14:44:32Z</time></trkpt>
<trkpt lat="25.123354" lon="109.739494">
<time>2016-10-06T14:44:33Z</time></trkpt>
<trkpt lat="25.123174" lon="109.739294">
<time>2016-10-06T14:44:34Z</time></trkpt>
<trkpt lat="25.123114" lon="109.739224">
<time>2016-10-06T14:44:35Z</time></trkpt>
<trkpt lat="25.123054" lon="109.739154">
<time>2016-10-06T14:44:36Z</time></trkpt>
<trkpt lat="25.122994" lon="109.739094">
<time>2016-10-06T14:44:37Z</time></trkpt>
<trkpt lat="25.122954" lon="109.739054">
<time>2016-10-06T14:44:38Z</time></trkpt>
<trkpt lat="25.122904" lon="109.739014">
<time>2016-10-06T14:44:39Z</time></trkpt>
<trkpt lat="25.122805" lon="109.738924">
<time>2016-10-06T14:44:40Z</time></trkpt>
<trkpt lat="25.122725" lon="109.738864">
<time>2016-10-06T14:44:41Z</time></trkpt>
<trkpt lat="25.122655" lon="109.738814">
<time>2016-10-06T14:44:42Z</time></trkpt>
<trkpt lat="25.122555" lon="109.738744">
<time>2016-10-06T14:44:43Z</time></trkpt>
<trkpt lat="25.122475" lon="109.738704">
<time>2016-10-06T14:44:44Z</time></trkpt>
<trkpt lat="25.122375" lon="109.738654">
<time>2016-10-06T14:44:45Z</time></trkpt>
<trkpt lat="25.122295" lon="109.738614">
<time>2016-10-06T14:44:46Z</time></trkpt>
<trkpt lat="25.122225" lon="109.738584">
<time>2016-10-06T14:44:47Z</time></trkpt>
<trkpt lat="25.122125" lon="109.738544">
<time>2016-10-06T14:44:48Z</time></trkpt>
<trkpt lat="25.122035" lon="109.738514">
<time>2016-10-06T14:44:49Z</time></trkpt>
<trkpt lat="25.121975" lon="109.738504">
<time>2016-10-06T14:44:50Z</time></trkpt>
<trkpt lat="25.121795" lon="109.738474">
<time>2016-10-06T14:44:51Z</time></trkpt>
<trkpt lat="25.120585" lon="109.738305">
<time>2016-10-06T14:44:52Z</time></trkpt>
<trkpt lat="25.119845" lon="109.738205">
<time>2016-10-06T14:44:53Z</time></trkpt>
<trkpt lat="25.119015" lon="109.738095">
<time>2016-10-06T14:44:54Z</time></trkpt>
<trkpt lat="25.118345" lon="109.738005">
<time>2016-10-06T14:44:55Z</time></trkpt>
<trkpt lat="25.117825" lon="109.737955">
<time>2016-10-06T14:44:56Z</time></trkpt>
<trkpt lat="25.116835" lon="109.737865">
<time>2016-10-06T14:44:57Z</time></trkpt>
<trkpt lat="25.116505" lon="109.737835">
<time>2016-10-06T14:44:58Z</time></trkpt>
<trkpt lat="25.115545" lon="109.737705">
<time>2016-10-06T14:44:59Z</time></trkpt>
<trkpt lat="25.115026" lon="109.737635">
<time>2016-10-06T14:45:00Z</time></trkpt>
<trkpt lat="25.114686" lon="109.737585">
<time>2016-10-06T14:45:01Z</time></trkpt>
<trkpt lat="25.114486" lon="109.737555">
<time>2016-10-06T14:45:02Z</time></trkpt>
<trkpt lat="25.114306" lon="109.737505">
<time>2016-10-06T14:45:03Z</time></trkpt>
<trkpt lat="25.114186" lon="109.737475">
<time>2016-10-06T14:45:04Z</time></trkpt>
<trkpt lat="25.114106" lon="109.737445">
<time>2016-10-06T14:45:05Z</time></trkpt>
<trkpt lat="25.114026" lon="109.737415">
<time>2016-10-06T14:45:06Z</time></trkpt>
<trkpt lat="25.113966" lon="109.737385">
<time>2016-10-06T14:45:07Z</time></trkpt>
<trkpt lat="25.113896" lon="109.737345">
<time>2016-10-06T14:45:08Z</time></trkpt>
<trkpt lat="25.113816" lon="109.737295">
<time>2016-10-06T14:45:09Z</time></trkpt>
<trkpt lat="25.113746" lon="109.737235">
<time>2016-10-06T14:45:10Z</time></trkpt>
<trkpt lat="25.113686" lon="109.737175">
<time>2016-10-06T14:45:11Z</time></trkpt>
<trkpt lat="25.113626" lon="109.737115">
<time>2016-10-06T14:45:12Z</time></trkpt>
<trkpt lat="25.113566" lon="109.737016">
<time>2016-10-06T14:45:13Z</time></trkpt>
<trkpt lat="25.113516" lon="109.736926">
<time>2016-10-06T14:45:14Z</time></trkpt>
<trkpt lat="25.113466" lon="109.736806">
<time>2016-10-06T14:45:15Z</time></trkpt>
<trkpt lat="25.113376" lon="109.736526">
<time>2016-10-06T14:45:16Z</time></trkpt>
<trkpt lat="25.113296" lon="109.736236">
<time>2016-10-06T14:45:17Z</time></trkpt>
<trkpt lat="25.113186" lon="109.735836">
<time>2016-10-06T14:45:18Z</time></trkpt>
<trkpt lat="25.113166" lon="109.735766">
<time>2016-10-06T14:45:19Z</time></trkpt>
<trkpt lat="25.113126" lon="109.735686">
<time>2016-10-06T14:45:20Z</time></trkpt>
<trkpt lat="25.113106" lon="109.735636">
<time>2016-10-06T14:45:21Z</time></trkpt>
<trkpt lat="25.113086" lon="109.735586">
<time>2016-10-06T14:45:22Z</time></trkpt>
<trkpt lat="25.113066" lon="109.735546">
<time>2016-10-06T14:45:23Z</time></trkpt>
<trkpt lat="25.113026" lon="109.735506">
<time>2016-10-06T14:45:24Z</time></trkpt>
<trkpt lat="25.112996" lon="109.735466">
<time>2016-10-06T14:45:25Z</time></trkpt>
<trkpt lat="25.112996" lon="109.735456">
<time>2016-10-06T14:45:26Z</time></trkpt>
<trkpt lat="25.112957" lon="109.735416">
<time>2016-10-06T14:45:27Z</time></trkpt>
<trkpt lat="25.112907" lon="109.735366">
<time>2016-10-06T14:45:28Z</time></trkpt>
<trkpt lat="25.112867" lon="109.735336">
<time>2016-10-06T14:45:29Z</time></trkpt>
<trkpt lat="25.112847" lon="109.735316">
<time>2016-10-06T14:45:30Z</time></trkpt>
<trkpt lat="25.112787" lon="109.735266">
<time>2016-10-06T14:45:31Z</time></trkpt>
<trkpt lat="25.112737" lon="109.735236">
<time>2016-10-06T14:45:32Z</time></trkpt>
<trkpt lat="25.112667" lon="109.735186">
<time>2016-10-06T14:45:33Z</time></trkpt>
<trkpt lat="25.112567" lon="109.735136">
<time>2016-10-06T14:45:34Z</time></trkpt>
<trkpt lat="25.112447" lon="109.735086">
<time>2016-10-06T14:45:35Z</time></trkpt>
<trkpt lat="25.112227" lon="109.735007">
<time>2016-10-06T14:45:36Z</time></trkpt>
<trkpt lat="25.112087" lon="109.734957">
<time>2016-10-06T14:45:37Z</time></trkpt>
<trkpt lat="25.111907" lon="109.734907">
<time>2016-10-06T14:45:38Z</time></trkpt>
<trkpt lat="25.111767" lon="109.734877">
<time>2016-10-06T14:45:39Z</time></trkpt>
<trkpt lat="25.111647" lon="109.734857">
<time>2016-10-06T14:45:40Z</time></trkpt>
<trkpt lat="25.111557" lon="109.734847">
<time>2016-10-06T14:45:41Z</time></trkpt>
<trkpt lat="25.111417" lon="109.734837">
<time>2016-10-06T14:45:42Z</time></trkpt>
<trkpt lat="25.111277" lon="109.734827">
<time>2016-10-06T14:45:43Z</time></trkpt>
<trkpt lat="25.110727" lon="109.734807">
<time>2016-10-06T14:45:44Z</time></trkpt>
<trkpt lat="25.110487" lon="109.734797">
<time>2016-10-06T14:45:45Z</time></trkpt>
<trkpt lat="25.110417" lon="109.734797">
<time>2016-10-06T14:45:46Z</time></trkpt>
<trkpt lat="25.110367" lon="109.734787">
<time>2016-10-06T14:45:47Z</time></trkpt>
<trkpt lat="25.110307" lon="109.734787">
<time>2016-10-06T14:45:48Z</time></trkpt>
<trkpt lat="25.110197" lon="109.734767">
<time>2016-10-06T14:45:49Z</time></trkpt>
<trkpt lat="25.110117" lon="109.734737">
<time>2016-10-06T14:45:50Z</time></trkpt>
<trkpt lat="25.110017" lon="109.734717">
<time>2016-10-06T14:45:51Z</time></trkpt>
<trkpt lat="25.109817" lon="109.734637">
<time>2016-10-06T14:45:52Z</time></trkpt>
<trkpt lat="25.109587" lon="109.734527">
<time>2016-10-06T14:45:53Z</time></trkpt>
<trkpt lat="25.109447" lon="109.734447">
<time>2016-10-06T14:45:54Z</time></trkpt>
<trkpt lat="25.109307" lon="109.734367">
<time>2016-10-06T14:45:55Z</time></trkpt>
<trkpt lat="25.109167" lon="109.734277">
<time>2016-10-06T14:45:56Z</time></trkpt>
<trkpt lat="25.109037" lon="109.734187">
<time>2016-10-06T14:45:57Z</time></trkpt>
<trkpt lat="25.108907" lon="109.734097">
<time>2016-10-06T14:45:58Z</time></trkpt>
<trkpt lat="25.108648" lon="109.733937">
<time>2016-10-06T14:45:59Z</time></trkpt>
<trkpt lat="25.108518" lon="109.733847">
<time>2016-10-06T14:46:00Z</time></trkpt>
<trkpt lat="25.108408" lon="109.733767">
<time>2016-10-06T14:46:01Z</time></trkpt>
<trkpt lat="25.108338" lon="109.733707">
<time>2016-10-06T14:46:02Z</time></trkpt>
<trkpt lat="25.108268" lon="109.733647">
<time>2016-10-06T14:46:03Z</time></trkpt>
<trkpt lat="25.108178" lon="109.733558">
<time>2016-10-06T14:46:04Z</time></trkpt>
<trkpt lat="25.108108" lon="109.733478">
<time>2016-10-06T14:46:05Z</time></trkpt>
<trkpt lat="25.108028" lon="109.733368">
<time>2016-10-06T14:46:06Z</time></trkpt>
<trkpt lat="25.107978" lon="109.733308">
<time>2016-10-06T14:46:07Z</time></trkpt>
<trkpt lat="25.107868" lon="109.733158">
<time>2016-10-06T14:46:08Z</time></trkpt>
<trkpt lat="25.107808" lon="109.733048">
<time>2016-10-06T14:46:09Z</time></trkpt>
<trkpt lat="25.107758" lon="109.732948">
<time>2016-10-06T14:46:10Z</time></trkpt>
<trkpt lat="25.107698" lon="109.732828">
<time>2016-10-06T14:46:11Z</time></trkpt>
<trkpt lat="25.107558" lon="109.732478">
<time>2016-10-06T14:46:12Z</time></trkpt>
<trkpt lat="25.107488" lon="109.732308">
<time>2016-10-06T14:46:13Z</time></trkpt>
<trkpt lat="25.107399" lon="109.732078">
<time>2016-10-06T14:46:14Z</time></trkpt>
<trkpt lat="25.107359" lon="109.731998">
<time>2016-10-06T14:46:15Z</time></trkpt>
<trkpt lat="25.107319" lon="109.731929">
<time>2016-10-06T14:46:16Z</time></trkpt>
<trkpt lat="25.107249" lon="109.731819">
<time>2016-10-06T14:46:17Z</time></trkpt>
<trkpt lat="25.107169" lon="109.731719">
<time>2016-10-06T14:46:18Z</time></trkpt>
<trkpt lat="25.107099" lon="109.731659">
<time>2016-10-06T14:46:19Z</time></trkpt>
<trkpt lat="25.106889" lon="109.731459">
<time>2016-10-06T14:46:20Z</time></trkpt>
<trkpt lat="25.106699" lon="109.731309">
<time>2016-10-06T14:46:21Z</time></trkpt>
<trkpt lat="25.106509" lon="109.731169">
<time>2016-10-06T14:46:22Z</time></trkpt>
<trkpt lat="25.106289" lon="109.731019">
<time>2016-10-06T14:46:23Z</time></trkpt>
<trkpt lat="25.106089" lon="109.730899">
<time>2016-10-06T14:46:24Z</time></trkpt>
<trkpt lat="25.105969" lon="109.730839">
<time>2016-10-06T14:46:25Z</time></trkpt>
<trkpt lat="25.105739" lon="109.730729">
<time>2016-10-06T14:46:26Z</time></trkpt>
<trkpt lat="25.105549" lon="109.730639">
<time>2016-10-06T14:46:27Z</time></trkpt>
<trkpt lat="25.10519" lon="109.73047">
<time>2016-10-06T14:46:28Z</time></trkpt>
<trkpt lat="25.10501" lon="109.73039">
<time>2016-10-06T14:46:29Z</time></trkpt>
<trkpt lat="25.10483" lon="109.73032">
<time>2016-10-06T14:46:30Z</time></trkpt>
<trkpt lat="25.10464" lon="109.73024">
<time>2016-10-06T14:46:31Z</time></trkpt>
<trkpt lat="25.10432" lon="109.7301">
<time>2016-10-06T14:46:32Z</time></trkpt>
<trkpt lat="25.10411" lon="109.73002">
<time>2016-10-06T14:46:33Z</time></trkpt>
<trkpt lat="25.1038" lon="109.7299">
<time>2016-10-06T14:46:34Z</time></trkpt>
<trkpt lat="25.1034" lon="109.72976">
<time>2016-10-06T14:46:35Z</time></trkpt>
<trkpt lat="25.10319" lon="109.72969">
<time>2016-10-06T14:46:36Z</time></trkpt>
<trkpt lat="25.10265" lon="109.72954">
<time>2016-10-06T14:46:37Z</time></trkpt>
<trkpt lat="25.10251" lon="109.7295">
<time>2016-10-06T14:46:38Z</time></trkpt>
<trkpt lat="25.10227" lon="109.729431">
<time>2016-10-06T14:46:39Z</time></trkpt>
<trkpt lat="25.102021" lon="109.729361">
<time>2016-10-06T14:46:40Z</time></trkpt>
<trkpt lat="25.101711" lon="109.729281">
<time>2016-10-06T14:46:41Z</time></trkpt>
<trkpt lat="25.101371" lon="109.729191">
<time>2016-10-06T14:46:42Z</time></trkpt>
<trkpt lat="25.101081" lon="109.729111">
<time>2016-10-06T14:46:43Z</time></trkpt>
<trkpt lat="25.100301" lon="109.728891">
<time>2016-10-06T14:46:44Z</time></trkpt>
<trkpt lat="25.099701" lon="109.728711">
<time>2016-10-06T14:46:45Z</time></trkpt>
<trkpt lat="25.099471" lon="109.728651">
<time>2016-10-06T14:46:46Z</time></trkpt>
<trkpt lat="25.098671" lon="109.728471">
<time>2016-10-06T14:46:47Z</time></trkpt>
<trkpt lat="25.097892" lon="109.728302">
<time>2016-10-06T14:46:48Z</time></trkpt>
<trkpt lat="25.097442" lon="109.728152">
<time>2016-10-06T14:46:49Z</time></trkpt>
<trkpt lat="25.096642" lon="109.727862">
<time>2016-10-06T14:46:50Z</time></trkpt>
<trkpt lat="25.095932" lon="109.727612">
<time>2016-10-06T14:46:51Z</time></trkpt>
<trkpt lat="25.095482" lon="109.727452">
<time>2016-10-06T14:46:52Z</time></trkpt>
<trkpt lat="25.095123" lon="109.727323">
<time>2016-10-06T14:46:53Z</time></trkpt>
<trkpt lat="25.094673" lon="109.727173">
<time>2016-10-06T14:46:54Z</time></trkpt>
<trkpt lat="25.094423" lon="109.727093">
<time>2016-10-06T14:46:55Z</time></trkpt>
<trkpt lat="25.094073" lon="109.726993">
<time>2016-10-06T14:46:56Z</time></trkpt>
<trkpt lat="25.093723" lon="109.726893">
<time>2016-10-06T14:46:57Z</time></trkpt>
<trkpt lat="25.093043" lon="109.726683">
<time>2016-10-06T14:46:58Z</time></trkpt>
<trkpt lat="25.092303" lon="109.726453">
<time>2016-10-06T14:46:59Z</time></trkpt>
<trkpt lat="25.091864" lon="109.726334">
<time>2016-10-06T14:47:00Z</time></trkpt>
<trkpt lat="25.091574" lon="109.726244">
<time>2016-10-06T14:47:01Z</time></trkpt>
<trkpt lat="25.091414" lon="109.726194">
<time>2016-10-06T14:47:02Z</time></trkpt>
<trkpt lat="25.091084" lon="109.726104">
<time>2016-10-06T14:47:03Z</time></trkpt>
<trkpt lat="25.090974" lon="109.726064">
<time>2016-10-06T14:47:04Z</time></trkpt>
<trkpt lat="25.090884" lon="109.726024">
<time>2016-10-06T14:47:05Z</time></trkpt>
<trkpt lat="25.090724" lon="109.725944">
<time>2016-10-06T14:47:06Z</time></trkpt>
<trkpt lat="25.090594" lon="109.725864">
<time>2016-10-06T14:47:07Z</time></trkpt>
<trkpt lat="25.090274" lon="109.725654">
<time>2016-10-06T14:47:08Z</time></trkpt>
<trkpt lat="25.090024" lon="109.725514">
<time>2016-10-06T14:47:09Z</time></trkpt>
<trkpt lat="25.089824" lon="109.725375">
<time>2016-10-06T14:47:10Z</time></trkpt>
<trkpt lat="25.089565" lon="109.725215">
<time>2016-10-06T14:47:11Z</time></trkpt>
<trkpt lat="25.089205" lon="109.724985">
<time>2016-10-06T14:47:12Z</time></trkpt>
<trkpt lat="25.088845" lon="109.724765">
<time>2016-10-06T14:47:13Z</time></trkpt>
<trkpt lat="25.087776" lon="109.724116">
<time>2016-10-06T14:47:14Z</time></trkpt>
<trkpt lat="25.086646" lon="109.723407">
<time>2016-10-06T14:47:15Z</time></trkpt>
<trkpt lat="25.085597" lon="109.722767">
<time>2016-10-06T14:47:16Z</time></trkpt>
<trkpt lat="25.084997" lon="109.722428">
<time>2016-10-06T14:47:17Z</time></trkpt>
<trkpt lat="25.084488" lon="109.722178">
<time>2016-10-06T14:47:18Z</time></trkpt>
<trkpt lat="25.084068" lon="109.721968">
<time>2016-10-06T14:47:19Z</time></trkpt>
<trkpt lat="25.083968" lon="109.721908">
<time>2016-10-06T14:47:20Z</time></trkpt>
<trkpt lat="25.083508" lon="109.721649">
<time>2016-10-06T14:47:21Z</time></trkpt>
<trkpt lat="25.083338" lon="109.721529">
<time>2016-10-06T14:47:22Z</time></trkpt>
<trkpt lat="25.083268" lon="109.721479">
<time>2016-10-06T14:47:23Z</time></trkpt>
<trkpt lat="25.083049" lon="109.721319">
<time>2016-10-06T14:47:24Z</time></trkpt>
<trkpt lat="25.082769" lon="109.721089">
<time>2016-10-06T14:47:25Z</time></trkpt>
<trkpt lat="25.082589" lon="109.720929">
<time>2016-10-06T14:47:26Z</time></trkpt>
<trkpt lat="25.082359" lon="109.72069">
<time>2016-10-06T14:47:27Z</time></trkpt>
<trkpt lat="25.082189" lon="109.72052">
<time>2016-10-06T14:47:28Z</time></trkpt>
<trkpt lat="25.08203" lon="109.72032">
<time>2016-10-06T14:47:29Z</time></trkpt>
<trkpt lat="25.08195" lon="109.72022">
<time>2016-10-06T14:47:30Z</time></trkpt>
<trkpt lat="25.08187" lon="109.72011">
<time>2016-10-06T14:47:31Z</time></trkpt>
<trkpt lat="25.08138" lon="109.719421">
<time>2016-10-06T14:47:32Z</time></trkpt>
<trkpt lat="25.081181" lon="109.719171">
<time>2016-10-06T14:47:33Z</time></trkpt>
<trkpt lat="25.080991" lon="109.718942">
<time>2016-10-06T14:47:34Z</time></trkpt>
<trkpt lat="25.080801" lon="109.718742">
<time>2016-10-06T14:47:35Z</time></trkpt>
<trkpt lat="25.080731" lon="109.718672">
<time>2016-10-06T14:47:36Z</time></trkpt>
<trkpt lat="25.080611" lon="109.718582">
<time>2016-10-06T14:47:37Z</time></trkpt>
<trkpt lat="25.080501" lon="109.718512">
<time>2016-10-06T14:47:38Z</time></trkpt>
<trkpt lat="25.080411" lon="109.718472">
<time>2016-10-06T14:47:39Z</time></trkpt>
<trkpt lat="25.080302" lon="109.718432">
<time>2016-10-06T14:47:40Z</time></trkpt>
<trkpt lat="25.079962" lon="109.718352">
<time>2016-10-06T14:47:41Z</time></trkpt>
<trkpt lat="25.079812" lon="109.718322">
<time>2016-10-06T14:47:42Z</time></trkpt>
<trkpt lat="25.079722" lon="109.718292">
<time>2016-10-06T14:47:43Z</time></trkpt>
<trkpt lat="25.079642" lon="109.718252">
<time>2016-10-06T14:47:44Z</time></trkpt>
<trkpt lat="25.079572" lon="109.718213">
<time>2016-10-06T14:47:45Z</time></trkpt>
<trkpt lat="25.079452" lon="109.718123">
<time>2016-10-06T14:47:46Z</time></trkpt>
<trkpt lat="25.079152" lon="109.717833">
<time>2016-10-06T14:47:47Z</time></trkpt>
<trkpt lat="25.078783" lon="109.717453">
<time>2016-10-06T14:47:48Z</time></trkpt>
<trkpt lat="25.078623" lon="109.717304">
<time>2016-10-06T14:47:49Z</time></trkpt>
<trkpt lat="25.078533" lon="109.717224">
<time>2016-10-06T14:47:50Z</time></trkpt>
<trkpt lat="25.078423" lon="109.717154">
<time>2016-10-06T14:47:51Z</time></trkpt>
<trkpt lat="25.078233" lon="109.717054">
<time>2016-10-06T14:47:52Z</time></trkpt>
<trkpt lat="25.077544" lon="109.716635">
<time>2016-10-06T14:47:53Z</time></trkpt>
<trkpt lat="25.077344" lon="109.716505">
<time>2016-10-06T14:47:54Z</time></trkpt>
<trkpt lat="25.077274" lon="109.716445">
<time>2016-10-06T14:47:55Z</time></trkpt>
<trkpt lat="25.077194" lon="109.716365">
<time>2016-10-06T14:47:56Z</time></trkpt>
<trkpt lat="25.077114" lon="109.716255">
<time>2016-10-06T14:47:57Z</time></trkpt>
<trkpt lat="25.077054" lon="109.716155">
<time>2016-10-06T14:47:58Z</time></trkpt>
<trkpt lat="25.077014" lon="109.716045">
<time>2016-10-06T14:47:59Z</time></trkpt>
<trkpt lat="25.076974" lon="109.715935">
<time>2016-10-06T14:48:00Z</time></trkpt>
<trkpt lat="25.076895" lon="109.715556">
<time>2016-10-06T14:48:01Z</time></trkpt>
<trkpt lat="25.076855" lon="109.715436">
<time>2016-10-06T14:48:02Z</time></trkpt>
<trkpt lat="25.076805" lon="109.715336">
<time>2016-10-06T14:48:03Z</time></trkpt>
<trkpt lat="25.076755" lon="109.715236">
<time>2016-10-06T14:48:04Z</time></trkpt>
<trkpt lat="25.076675" lon="109.715106">
<time>2016-10-06T14:48:05Z</time></trkpt>
<trkpt lat="25.076576" lon="109.714957">
<time>2016-10-06T14:48:06Z</time></trkpt>
<trkpt lat="25.076456" lon="109.714817">
<time>2016-10-06T14:48:07Z</time></trkpt>
<trkpt lat="25.076356" lon="109.714727">
<time>2016-10-06T14:48:08Z</time></trkpt>
<trkpt lat="25.076256" lon="109.714647">
<time>2016-10-06T14:48:09Z</time></trkpt>
<trkpt lat="25.076166" lon="109.714597">
<time>2016-10-06T14:48:10Z</time></trkpt>
<trkpt lat="25.076086" lon="109.714547">
<time>2016-10-06T14:48:11Z</time></trkpt>
<trkpt lat="25.075936" lon="109.714457">
<time>2016-10-06T14:48:12Z</time></trkpt>
<trkpt lat="25.075077" lon="109.714038">
<time>2016-10-06T14:48:13Z</time></trkpt>
<trkpt lat="25.073967" lon="109.713589">
<time>2016-10-06T14:48:14Z</time></trkpt>
<trkpt lat="25.073797" lon="109.713519">
<time>2016-10-06T14:48:15Z</time></trkpt>
<trkpt lat="25.073368" lon="109.713349">
<time>2016-10-06T14:48:16Z</time></trkpt>
<trkpt lat="25.073188" lon="109.713259">
<time>2016-10-06T14:48:17Z</time></trkpt>
<trkpt lat="25.073038" lon="109.713169">
<time>2016-10-06T14:48:18Z</time></trkpt>
<trkpt lat="25.072868" lon="109.713069">
<time>2016-10-06T14:48:19Z</time></trkpt>
<trkpt lat="25.072648" lon="109.71294">
<time>2016-10-06T14:48:20Z</time></trkpt>
<trkpt lat="25.072458" lon="109.71283">
<time>2016-10-06T14:48:21Z</time></trkpt>
<trkpt lat="25.072259" lon="109.71272">
<time>2016-10-06T14:48:22Z</time></trkpt>
<trkpt lat="25.071499" lon="109.71231">
<time>2016-10-06T14:48:23Z</time></trkpt>
<trkpt lat="25.071209" lon="109.712181">
<time>2016-10-06T14:48:24Z</time></trkpt>
<trkpt lat="25.071009" lon="109.712081">
<time>2016-10-06T14:48:25Z</time></trkpt>
<trkpt lat="25.07074" lon="109.711951">
<time>2016-10-06T14:48:26Z</time></trkpt>
<trkpt lat="25.06992" lon="109.711522">
<time>2016-10-06T14:48:27Z</time></trkpt>
<trkpt lat="25.069251" lon="109.711182">
<time>2016-10-06T14:48:28Z</time></trkpt>
<trkpt lat="25.068821" lon="109.710973">
<time>2016-10-06T14:48:29Z</time></trkpt>
<trkpt lat="25.068361" lon="109.710753">
<time>2016-10-06T14:48:30Z</time></trkpt>
<trkpt lat="25.068351" lon="109.710753">
<time>2016-10-06T14:48:31Z</time></trkpt>
<trkpt lat="25.067482" lon="109.710294">
<time>2016-10-06T14:48:32Z</time></trkpt>
<trkpt lat="25.066823" lon="109.709934">
<time>2016-10-06T14:48:33Z</time></trkpt>
<trkpt lat="25.066163" lon="109.709565">
<time>2016-10-06T14:48:34Z</time></trkpt>
<trkpt lat="25.064535" lon="109.708616">
<time>2016-10-06T14:48:35Z</time></trkpt>
<trkpt lat="25.063296" lon="109.707937">
<time>2016-10-06T14:48:36Z</time></trkpt>
<trkpt lat="25.063026" lon="109.707778">
<time>2016-10-06T14:48:37Z</time></trkpt>
<trkpt lat="25.061687" lon="109.707009">
<time>2016-10-06T14:48:38Z</time></trkpt>
<trkpt lat="25.061057" lon="109.706659">
<time>2016-10-06T14:48:39Z</time></trkpt>
<trkpt lat="25.060398" lon="109.70628">
<time>2016-10-06T14:48:40Z</time></trkpt>
<trkpt lat="25.060008" lon="109.70606">
<time>2016-10-06T14:48:41Z</time></trkpt>
<trkpt lat="25.059938" lon="109.70602">
<time>2016-10-06T14:48:42Z</time></trkpt>
<trkpt lat="25.059149" lon="109.705541">
<time>2016-10-06T14:48:43Z</time></trkpt>
<trkpt lat="25.05796" lon="109.704922">
<time>2016-10-06T14:48:44Z</time></trkpt>
<trkpt lat="25.057141" lon="109.704633">
<time>2016-10-06T14:48:45Z</time></trkpt>
<trkpt lat="25.055682" lon="109.704064">
<time>2016-10-06T14:48:46Z</time></trkpt>
<trkpt lat="25.055522" lon="109.703994">
<time>2016-10-06T14:48:47Z</time></trkpt>
<trkpt lat="25.055442" lon="109.703954">
<time>2016-10-06T14:48:48Z</time></trkpt>
<trkpt lat="25.055352" lon="109.703904">
<time>2016-10-06T14:48:49Z</time></trkpt>
<trkpt lat="25.055242" lon="109.703814">
<time>2016-10-06T14:48:50Z</time></trkpt>
<trkpt lat="25.055112" lon="109.703694">
<time>2016-10-06T14:48:51Z</time></trkpt>
<trkpt lat="25.054823" lon="109.703365">
<time>2016-10-06T14:48:52Z</time></trkpt>
<trkpt lat="25.054673" lon="109.703165">
<time>2016-10-06T14:48:53Z</time></trkpt>
<trkpt lat="25.054364" lon="109.702716">
<time>2016-10-06T14:48:54Z</time></trkpt>
<trkpt lat="25.053366" lon="109.701199">
<time>2016-10-06T14:48:55Z</time></trkpt>
<trkpt lat="25.053147" lon="109.700859">
<time>2016-10-06T14:48:56Z</time></trkpt>
<trkpt lat="25.052738" lon="109.700201">
<time>2016-10-06T14:48:57Z</time></trkpt>
<trkpt lat="25.052608" lon="109.699971">
<time>2016-10-06T14:48:58Z</time></trkpt>
<trkpt lat="25.052169" lon="109.699102">
<time>2016-10-06T14:48:59Z</time></trkpt>
<trkpt lat="25.051631" lon="109.698044">
<time>2016-10-06T14:49:00Z</time></trkpt>
<trkpt lat="25.050993" lon="109.696847">
<time>2016-10-06T14:49:01Z</time></trkpt>
<trkpt lat="25.050814" lon="109.696537">
<time>2016-10-06T14:49:02Z</time></trkpt>
<trkpt lat="25.050455" lon="109.695948">
<time>2016-10-06T14:49:03Z</time></trkpt>
<trkpt lat="25.050265" lon="109.695659">
<time>2016-10-06T14:49:04Z</time></trkpt>
<trkpt lat="25.050175" lon="109.695529">
<time>2016-10-06T14:49:05Z</time></trkpt>
<trkpt lat="25.049936" lon="109.69522">
<time>2016-10-06T14:49:06Z</time></trkpt>
<trkpt lat="25.049766" lon="109.69501">
<time>2016-10-06T14:49:07Z</time></trkpt>
<trkpt lat="25.049407" lon="109.694581">
<time>2016-10-06T14:49:08Z</time></trkpt>
<trkpt lat="25.049147" lon="109.694271">
<time>2016-10-06T14:49:09Z</time></trkpt>
<trkpt lat="25.049028" lon="109.694152">
<time>2016-10-06T14:49:10Z</time></trkpt>
<trkpt lat="25.048878" lon="109.694012">
<time>2016-10-06T14:49:11Z</time></trkpt>
<trkpt lat="25.048698" lon="109.693852">
<time>2016-10-06T14:49:12Z</time></trkpt>
<trkpt lat="25.048588" lon="109.693782">
<time>2016-10-06T14:49:13Z</time></trkpt>
<trkpt lat="25.048458" lon="109.693703">
<time>2016-10-06T14:49:14Z</time></trkpt>
<trkpt lat="25.048359" lon="109.693643">
<time>2016-10-06T14:49:15Z</time></trkpt>
<trkpt lat="25.048129" lon="109.693533">
<time>2016-10-06T14:49:16Z</time></trkpt>
<trkpt lat="25.047509" lon="109.693224">
<time>2016-10-06T14:49:17Z</time></trkpt>
<trkpt lat="25.04715" lon="109.693034">
<time>2016-10-06T14:49:18Z</time></trkpt>
<trkpt lat="25.04701" lon="109.692964">
<time>2016-10-06T14:49:19Z</time></trkpt>
<trkpt lat="25.04657" lon="109.692715">
<time>2016-10-06T14:49:20Z</time></trkpt>
<trkpt lat="25.045432" lon="109.692046">
<time>2016-10-06T14:49:21Z</time></trkpt>
<trkpt lat="25.044792" lon="109.691657">
<time>2016-10-06T14:49:22Z</time></trkpt>
<trkpt lat="25.044702" lon="109.691597">
<time>2016-10-06T14:49:23Z</time></trkpt>
<trkpt lat="25.044533" lon="109.691497">
<time>2016-10-06T14:49:24Z</time></trkpt>
<trkpt lat="25.044393" lon="109.691417">
<time>2016-10-06T14:49:25Z</time></trkpt>
<trkpt lat="25.044223" lon="109.691317">
<time>2016-10-06T14:49:26Z</time></trkpt>
<trkpt lat="25.044063" lon="109.691228">
<time>2016-10-06T14:49:27Z</time></trkpt>
<trkpt lat="25.043913" lon="109.691158">
<time>2016-10-06T14:49:28Z</time></trkpt>
<trkpt lat="25.043733" lon="109.691068">
<time>2016-10-06T14:49:29Z</time></trkpt>
<trkpt lat="25.043564" lon="109.690988">
<time>2016-10-06T14:49:30Z</time></trkpt>
<trkpt lat="25.043344" lon="109.690878">
<time>2016-10-06T14:49:31Z</time></trkpt>
<trkpt lat="25.043184" lon="109.690808">
<time>2016-10-06T14:49:32Z</time></trkpt>
<trkpt lat="25.042964" lon="109.690709">
<time>2016-10-06T14:49:33Z</time></trkpt>
<trkpt lat="25.042744" lon="109.690609">
<time>2016-10-06T14:49:34Z</time></trkpt>
<trkpt lat="25.042475" lon="109.690489">
<time>2016-10-06T14:49:35Z</time></trkpt>
<trkpt lat="25.042155" lon="109.690339">
<time>2016-10-06T14:49:36Z</time></trkpt>
<trkpt lat="25.041935" lon="109.69024">
<time>2016-10-06T14:49:37Z</time></trkpt>
<trkpt lat="25.041665" lon="109.69012">
<time>2016-10-06T14:49:38Z</time></trkpt>
<trkpt lat="25.041446" lon="109.69001">
<time>2016-10-06T14:49:39Z</time></trkpt>
<trkpt lat="25.041336" lon="109.68996">
<time>2016-10-06T14:49:40Z</time></trkpt>
<trkpt lat="25.041056" lon="109.689831">
<time>2016-10-06T14:49:41Z</time></trkpt>
<trkpt lat="25.040786" lon="109.689701">
<time>2016-10-06T14:49:42Z</time></trkpt>
<trkpt lat="25.040456" lon="109.689541">
<time>2016-10-06T14:49:43Z</time></trkpt>
<trkpt lat="25.040087" lon="109.689372">
<time>2016-10-06T14:49:44Z</time></trkpt>
<trkpt lat="25.039757" lon="109.689212">
<time>2016-10-06T14:49:45Z</time></trkpt>
<trkpt lat="25.039477" lon="109.689092">
<time>2016-10-06T14:49:46Z</time></trkpt>
<trkpt lat="25.039158" lon="109.688932">
<time>2016-10-06T14:49:47Z</time></trkpt>
<trkpt lat="25.038888" lon="109.688803">
<time>2016-10-06T14:49:48Z</time></trkpt>
<trkpt lat="25.038558" lon="109.688653">
<time>2016-10-06T14:49:49Z</time></trkpt>
<trkpt lat="25.038338" lon="109.688553">
<time>2016-10-06T14:49:50Z</time></trkpt>
<trkpt lat="25.038119" lon="109.688443">
<time>2016-10-06T14:49:51Z</time></trkpt>
<trkpt lat="25.037909" lon="109.688344">
<time>2016-10-06T14:49:52Z</time></trkpt>
<trkpt lat="25.037689" lon="109.688234">
<time>2016-10-06T14:49:53Z</time></trkpt>
<trkpt lat="25.037479" lon="109.688144">
<time>2016-10-06T14:49:54Z</time></trkpt>
<trkpt lat="25.037309" lon="109.688064">
<time>2016-10-06T14:49:55Z</time></trkpt>
<trkpt lat="25.0371" lon="109.687974">
<time>2016-10-06T14:49:56Z</time></trkpt>
<trkpt lat="25.03687" lon="109.687885">
<time>2016-10-06T14:49:57Z</time></trkpt>
<trkpt lat="25.03685" lon="109.687865">
<time>2016-10-06T14:49:58Z</time></trkpt>
<trkpt lat="25.03665" lon="109.687785">
<time>2016-10-06T14:49:59Z</time></trkpt>
<trkpt lat="25.03638" lon="109.687685">
<time>2016-10-06T14:50:00Z</time></trkpt>
<trkpt lat="25.03623" lon="109.687635">
<time>2016-10-06T14:50:01Z</time></trkpt>
<trkpt lat="25.03611" lon="109.687605">
<time>2016-10-06T14:50:02Z</time></trkpt>
<trkpt lat="25.03604" lon="109.687585">
<time>2016-10-06T14:50:03Z</time></trkpt>
<trkpt lat="25.03596" lon="109.687565">
<time>2016-10-06T14:50:04Z</time></trkpt>
<trkpt lat="25.035791" lon="109.687535">
<time>2016-10-06T14:50:05Z</time></trkpt>
<trkpt lat="25.035621" lon="109.687516">
<time>2016-10-06T14:50:06Z</time></trkpt>
<trkpt lat="25.035451" lon="109.687496">
<time>2016-10-06T14:50:07Z</time></trkpt>
<trkpt lat="25.035301" lon="109.687496">
<time>2016-10-06T14:50:08Z</time></trkpt>
<trkpt lat="25.035081" lon="109.687476">
<time>2016-10-06T14:50:09Z</time></trkpt>
<trkpt lat="25.034861" lon="109.687466">
<time>2016-10-06T14:50:10Z</time></trkpt>
<trkpt lat="25.034641" lon="109.687466">
<time>2016-10-06T14:50:11Z</time></trkpt>
<trkpt lat="25.034431" lon="109.687456">
<time>2016-10-06T14:50:12Z</time></trkpt>
<trkpt lat="25.034201" lon="109.687446">
<time>2016-10-06T14:50:13Z</time></trkpt>
<trkpt lat="25.033991" lon="109.687436">
<time>2016-10-06T14:50:14Z</time></trkpt>
<trkpt lat="25.033771" lon="109.687426">
<time>2016-10-06T14:50:15Z</time></trkpt>
<trkpt lat="25.033441" lon="109.687416">
<time>2016-10-06T14:50:16Z</time></trkpt>
<trkpt lat="25.033171" lon="109.687406">
<time>2016-10-06T14:50:17Z</time></trkpt>
<trkpt lat="25.032841" lon="109.687396">
<time>2016-10-06T14:50:18Z</time></trkpt>
<trkpt lat="25.032461" lon="109.687386">
<time>2016-10-06T14:50:19Z</time></trkpt>
<trkpt lat="25.032131" lon="109.687376">
<time>2016-10-06T14:50:20Z</time></trkpt>
<trkpt lat="25.031861" lon="109.687366">
<time>2016-10-06T14:50:21Z</time></trkpt>
<trkpt lat="25.031531" lon="109.687366">
<time>2016-10-06T14:50:22Z</time></trkpt>
<trkpt lat="25.031161" lon="109.687366">
<time>2016-10-06T14:50:23Z</time></trkpt>
<trkpt lat="25.030821" lon="109.687366">
<time>2016-10-06T14:50:24Z</time></trkpt>
<trkpt lat="25.030501" lon="109.687366">
<time>2016-10-06T14:50:25Z</time></trkpt>
<trkpt lat="25.030312" lon="109.687356">
<time>2016-10-06T14:50:26Z</time></trkpt>
<trkpt lat="25.030172" lon="109.687346">
<time>2016-10-06T14:50:27Z</time></trkpt>
<trkpt lat="25.029412" lon="109.687276">
<time>2016-10-06T14:50:28Z</time></trkpt>
<trkpt lat="25.028702" lon="109.687207">
<time>2016-10-06T14:50:29Z</time></trkpt>
<trkpt lat="25.028222" lon="109.687157">
<time>2016-10-06T14:50:30Z</time></trkpt>
<trkpt lat="25.027982" lon="109.687127">
<time>2016-10-06T14:50:31Z</time></trkpt>
<trkpt lat="25.027832" lon="109.687107">
<time>2016-10-06T14:50:32Z</time></trkpt>
<trkpt lat="25.027522" lon="109.687037">
<time>2016-10-06T14:50:33Z</time></trkpt>
<trkpt lat="25.027353" lon="109.686997">
<time>2016-10-06T14:50:34Z</time></trkpt>
<trkpt lat="25.027023" lon="109.686897">
<time>2016-10-06T14:50:35Z</time></trkpt>
<trkpt lat="25.026713" lon="109.686817">
<time>2016-10-06T14:50:36Z</time></trkpt>
<trkpt lat="25.026543" lon="109.686768">
<time>2016-10-06T14:50:37Z</time></trkpt>
<trkpt lat="25.026523" lon="109.686768">
<time>2016-10-06T14:50:38Z</time></trkpt>
<trkpt lat="25.026233" lon="109.686698">
<time>2016-10-06T14:50:39Z</time></trkpt>
<trkpt lat="25.025833" lon="109.686618">
<time>2016-10-06T14:50:40Z</time></trkpt>
<trkpt lat="25.025394" lon="109.686548">
<time>2016-10-06T14:50:41Z</time></trkpt>
<trkpt lat="25.025124" lon="109.686498">
<time>2016-10-06T14:50:42Z</time></trkpt>
<trkpt lat="25.024684" lon="109.686418">
<time>2016-10-06T14:50:43Z</time></trkpt>
<trkpt lat="25.024214" lon="109.686329">
<time>2016-10-06T14:50:44Z</time></trkpt>
<trkpt lat="25.023794" lon="109.686249">
<time>2016-10-06T14:50:45Z</time></trkpt>
<trkpt lat="25.023564" lon="109.686189">
<time>2016-10-06T14:50:46Z</time></trkpt>
<trkpt lat="25.023365" lon="109.686149">
<time>2016-10-06T14:50:47Z</time></trkpt>
<trkpt lat="25.023305" lon="109.686129">
<time>2016-10-06T14:50:48Z</time></trkpt>
<trkpt lat="25.023205" lon="109.686109">
<time>2016-10-06T14:50:49Z</time></trkpt>
<trkpt lat="25.022615" lon="109.685939">
<time>2016-10-06T14:50:50Z</time></trkpt>
<trkpt lat="25.022395" lon="109.68588">
<time>2016-10-06T14:50:51Z</time></trkpt>
<trkpt lat="25.021816" lon="109.6857">
<time>2016-10-06T14:50:52Z</time></trkpt>
<trkpt lat="25.019727" lon="109.685042">
<time>2016-10-06T14:50:53Z</time></trkpt>
<trkpt lat="25.018888" lon="109.684762">
<time>2016-10-06T14:50:54Z</time></trkpt>
<trkpt lat="25.018848" lon="109.684752">
<time>2016-10-06T14:50:55Z</time></trkpt>
<trkpt lat="25.018768" lon="109.684732">
<time>2016-10-06T14:50:56Z</time></trkpt>
<trkpt lat="25.018698" lon="109.684702">
<time>2016-10-06T14:50:57Z</time></trkpt>
<trkpt lat="25.018298" lon="109.684593">
<time>2016-10-06T14:50:58Z</time></trkpt>
<trkpt lat="25.018218" lon="109.684573">
<time>2016-10-06T14:50:59Z</time></trkpt>
<trkpt lat="25.018038" lon="109.684533">
<time>2016-10-06T14:51:00Z</time></trkpt>
<trkpt lat="25.017618" lon="109.684473">
<time>2016-10-06T14:51:01Z</time></trkpt>
<trkpt lat="25.017018" lon="109.684493">
<time>2016-10-06T14:51:02Z</time></trkpt>
<trkpt lat="25.016268" lon="109.684513">
<time>2016-10-06T14:51:03Z</time></trkpt>
<trkpt lat="25.015399" lon="109.684483">
<time>2016-10-06T14:51:04Z</time></trkpt>
<trkpt lat="25.014669" lon="109.684443">
<time>2016-10-06T14:51:05Z</time></trkpt>
<trkpt lat="25.014199" lon="109.684393">
<time>2016-10-06T14:51:06Z</time></trkpt>
<trkpt lat="25.013919" lon="109.684343">
<time>2016-10-06T14:51:07Z</time></trkpt>
<trkpt lat="25.013589" lon="109.684293">
<time>2016-10-06T14:51:08Z</time></trkpt>
<trkpt lat="25.013389" lon="109.684244">
<time>2016-10-06T14:51:09Z</time></trkpt>
<trkpt lat="25.013059" lon="109.684144">
<time>2016-10-06T14:51:10Z</time></trkpt>
<trkpt lat="25.01232" lon="109.683874">
<time>2016-10-06T14:51:11Z</time></trkpt>
<trkpt lat="25.011511" lon="109.683565">
<time>2016-10-06T14:51:12Z</time></trkpt>
<trkpt lat="25.011101" lon="109.683395">
<time>2016-10-06T14:51:13Z</time></trkpt>
<trkpt lat="25.010741" lon="109.683256">
<time>2016-10-06T14:51:14Z</time></trkpt>
<trkpt lat="25.010242" lon="109.683066">
<time>2016-10-06T14:51:15Z</time></trkpt>
<trkpt lat="25.009762" lon="109.682887">
<time>2016-10-06T14:51:16Z</time></trkpt>
<trkpt lat="25.009392" lon="109.682767">
<time>2016-10-06T14:51:17Z</time></trkpt>
<trkpt lat="25.008703" lon="109.682567">
<time>2016-10-06T14:51:18Z</time></trkpt>
<trkpt lat="25.008403" lon="109.682478">
<time>2016-10-06T14:51:19Z</time></trkpt>
<trkpt lat="25.007823" lon="109.682298">
<time>2016-10-06T14:51:20Z</time></trkpt>
<trkpt lat="25.007414" lon="109.682148">
<time>2016-10-06T14:51:21Z</time></trkpt>
<trkpt lat="25.006944" lon="109.681959">
<time>2016-10-06T14:51:22Z</time></trkpt>
<trkpt lat="25.006235" lon="109.681679">
<time>2016-10-06T14:51:23Z</time></trkpt>
<trkpt lat="25.006035" lon="109.68159">
<time>2016-10-06T14:51:24Z</time></trkpt>
<trkpt lat="25.005755" lon="109.68148">
<time>2016-10-06T14:51:25Z</time></trkpt>
<trkpt lat="25.005575" lon="109.68138">
<time>2016-10-06T14:51:26Z</time></trkpt>
<trkpt lat="25.005575" lon="109.68138">
<time>2016-10-06T14:51:27Z</time></trkpt>
<trkpt lat="25.005455" lon="109.6814">
<time>2016-10-06T14:51:28Z</time></trkpt>
<trkpt lat="25.005245" lon="109.68138">
<time>2016-10-06T14:51:29Z</time></trkpt>
<trkpt lat="25.004966" lon="109.6813">
<time>2016-10-06T14:51:30Z</time></trkpt>
<trkpt lat="25.004746" lon="109.68126">
<time>2016-10-06T14:51:31Z</time></trkpt>
<trkpt lat="25.004486" lon="109.68122">
<time>2016-10-06T14:51:32Z</time></trkpt>
<trkpt lat="25.004286" lon="109.68119">
<time>2016-10-06T14:51:33Z</time></trkpt>
<trkpt lat="25.004096" lon="109.681141">
<time>2016-10-06T14:51:34Z</time></trkpt>
<trkpt lat="25.003906" lon="109.681101">
<time>2016-10-06T14:51:35Z</time></trkpt>
<trkpt lat="25.003726" lon="109.681041">
<time>2016-10-06T14:51:36Z</time></trkpt>
<trkpt lat="25.003526" lon="109.680971">
<time>2016-10-06T14:51:37Z</time></trkpt>
<trkpt lat="25.003237" lon="109.680891">
<time>2016-10-06T14:51:38Z</time></trkpt>
<trkpt lat="25.003017" lon="109.680781">
<time>2016-10-06T14:51:39Z</time></trkpt>
<trkpt lat="25.002987" lon="109.680771">
<time>2016-10-06T14:51:40Z</time></trkpt>
<trkpt lat="25.002777" lon="109.680652">
<time>2016-10-06T14:51:41Z</time></trkpt>
<trkpt lat="25.002567" lon="109.680552">
<time>2016-10-06T14:51:42Z</time></trkpt>
<trkpt lat="25.002527" lon="109.680532">
<time>2016-10-06T14:51:43Z</time></trkpt>
<trkpt lat="25.002258" lon="109.680402">
<time>2016-10-06T14:51:44Z</time></trkpt>
<trkpt lat="25.001998" lon="109.680303">
<time>2016-10-06T14:51:45Z</time></trkpt>
<trkpt lat="25.001778" lon="109.680213">
<time>2016-10-06T14:51:46Z</time></trkpt>
<trkpt lat="25.001508" lon="109.680103">
<time>2016-10-06T14:51:47Z</time></trkpt>
<trkpt lat="25.001259" lon="109.680023">
<time>2016-10-06T14:51:48Z</time></trkpt>
<trkpt lat="25.000989" lon="109.679883">
<time>2016-10-06T14:51:49Z</time></trkpt>
<trkpt lat="25.000729" lon="109.679754">
<time>2016-10-06T14:51:50Z</time></trkpt>
<trkpt lat="25.000439" lon="109.679654">
<time>2016-10-06T14:51:51Z</time></trkpt>
<trkpt lat="25.00019" lon="109.679534">
<time>2016-10-06T14:51:52Z</time></trkpt>
<trkpt lat="25.00008" lon="109.679474">
<time>2016-10-06T14:51:53Z</time></trkpt>
<trkpt lat="25.0" lon="109.679434">
<time>2016-10-06T14:51:54Z</time></trkpt>
<trkpt lat="24.99993" lon="109.679395">
<time>2016-10-06T14:51:55Z</time></trkpt>
<trkpt lat="24.99967" lon="109.679275">
<time>2016-10-06T14:51:56Z</time></trkpt>
<trkpt lat="24.9994" lon="109.679135">
<time>2016-10-06T14:51:57Z</time></trkpt>
<trkpt lat="24.999161" lon="109.679025">
<time>2016-10-06T14:51:58Z</time></trkpt>
<trkpt lat="24.998851" lon="109.678896">
<time>2016-10-06T14:51:59Z</time></trkpt>
<trkpt lat="24.998591" lon="109.678786">
<time>2016-10-06T14:52:00Z</time></trkpt>
<trkpt lat="24.998361" lon="109.678666">
<time>2016-10-06T14:52:01Z</time></trkpt>
<trkpt lat="24.998062" lon="109.678507">
<time>2016-10-06T14:52:02Z</time></trkpt>
<trkpt lat="24.997742" lon="109.678357">
<time>2016-10-06T14:52:03Z</time></trkpt>
<trkpt lat="24.997442" lon="109.678237">
<time>2016-10-06T14:52:04Z</time></trkpt>
<trkpt lat="24.997183" lon="109.678108">
<time>2016-10-06T14:52:05Z</time></trkpt>
<trkpt lat="24.996923" lon="109.677948">
<time>2016-10-06T14:52:06Z</time></trkpt>
<trkpt lat="24.996653" lon="109.677788">
<time>2016-10-06T14:52:07Z</time></trkpt>
<trkpt lat="24.996414" lon="109.677668">
<time>2016-10-06T14:52:08Z</time></trkpt>
<trkpt lat="24.996164" lon="109.677509">
<time>2016-10-06T14:52:09Z</time></trkpt>
<trkpt lat="24.996084" lon="109.677469">
<time>2016-10-06T14:52:10Z</time></trkpt>
<trkpt lat="24.995914" lon="109.677379">
<time>2016-10-06T14:52:11Z</time></trkpt>
<trkpt lat="24.995664" lon="109.677239">
<time>2016-10-06T14:52:12Z</time></trkpt>
<trkpt lat="24.995405" lon="109.67711">
<time>2016-10-06T14:52:13Z</time></trkpt>
<trkpt lat="24.995125" lon="109.67694">
<time>2016-10-06T14:52:14Z</time></trkpt>
<trkpt lat="24.994835" lon="109.67679">
<time>2016-10-06T14:52:15Z</time></trkpt>
<trkpt lat="24.994536" lon="109.676651">
<time>2016-10-06T14:52:16Z</time></trkpt>
<trkpt lat="24.994256" lon="109.676511">
<time>2016-10-06T14:52:17Z</time></trkpt>
<trkpt lat="24.993996" lon="109.676381">
<time>2016-10-06T14:52:18Z</time></trkpt>
<trkpt lat="24.993746" lon="109.676292">
<time>2016-10-06T14:52:19Z</time></trkpt>
<trkpt lat="24.993457" lon="109.676172">
<time>2016-10-06T14:52:20Z</time></trkpt>
<trkpt lat="24.993207" lon="109.676082">
<time>2016-10-06T14:52:21Z</time></trkpt>
<trkpt lat="24.992947" lon="109.675962">
<time>2016-10-06T14:52:22Z</time></trkpt>
<trkpt lat="24.992638" lon="109.675823">
<time>2016-10-06T14:52:23Z</time></trkpt>
<trkpt lat="24.992378" lon="109.675673">
<time>2016-10-06T14:52:24Z</time></trkpt>
<trkpt lat="24.992098" lon="109.675513">
<time>2016-10-06T14:52:25Z</time></trkpt>
<trkpt lat="24.991818" lon="109.675394">
<time>2016-10-06T14:52:26Z</time></trkpt>
<trkpt lat="24.991509" lon="109.675324">
<time>2016-10-06T14:52:27Z</time></trkpt>
<trkpt lat="24.991229" lon="109.675244">
<time>2016-10-06T14:52:28Z</time></trkpt>
<trkpt lat="24.990949" lon="109.675184">
<time>2016-10-06T14:52:29Z</time></trkpt>
<trkpt lat="24.990669" lon="109.675104">
<time>2016-10-06T14:52:30Z</time></trkpt>
<trkpt lat="24.990399" lon="109.674965">
<time>2016-10-06T14:52:31Z</time></trkpt>
<trkpt lat="24.99013" lon="109.674865">
<time>2016-10-06T14:52:32Z</time></trkpt>
<trkpt lat="24.98988" lon="109.674775">
<time>2016-10-06T14:52:33Z</time></trkpt>
<trkpt lat="24.9896" lon="109.674735">
<time>2016-10-06T14:52:34Z</time></trkpt>
<trkpt lat="24.98933" lon="109.674765">
<time>2016-10-06T14:52:35Z</time></trkpt>
<trkpt lat="24.98902" lon="109.674735">
<time>2016-10-06T14:52:36Z</time></trkpt>
<trkpt lat="24.98873" lon="109.674655">
<time>2016-10-06T14:52:37Z</time></trkpt>
<trkpt lat="24.9885" lon="109.674606">
<time>2016-10-06T14:52:38Z</time></trkpt>
<trkpt lat="24.98821" lon="109.674556">
<time>2016-10-06T14:52:39Z</time></trkpt>
<trkpt lat="24.987871" lon="109.674506">
<time>2016-10-06T14:52:40Z</time></trkpt>
<trkpt lat="24.987701" lon="109.674466">
<time>2016-10-06T14:52:41Z</time></trkpt>
<trkpt lat="24.987611" lon="109.674456">
<time>2016-10-06T14:52:42Z</time></trkpt>
<trkpt lat="24.987311" lon="109.674436">
<time>2016-10-06T14:52:43Z</time></trkpt>
<trkpt lat="24.986971" lon="109.674376">
<time>2016-10-06T14:52:44Z</time></trkpt>
<trkpt lat="24.986681" lon="109.674306">
<time>2016-10-06T14:52:45Z</time></trkpt>
<trkpt lat="24.986361" lon="109.674247">
<time>2016-10-06T14:52:46Z</time></trkpt>
<trkpt lat="24.986002" lon="109.674147">
<time>2016-10-06T14:52:47Z</time></trkpt>
<trkpt lat="24.985682" lon="109.674097">
<time>2016-10-06T14:52:48Z</time></trkpt>
<trkpt lat="24.985352" lon="109.674007">
<time>2016-10-06T14:52:49Z</time></trkpt>
<trkpt lat="24.985012" lon="109.673897">
<time>2016-10-06T14:52:50Z</time></trkpt>
<trkpt lat="24.984722" lon="109.673818">
<time>2016-10-06T14:52:51Z</time></trkpt>
<trkpt lat="24.984493" lon="109.673738">
<time>2016-10-06T14:52:52Z</time></trkpt>
<trkpt lat="24.984213" lon="109.673678">
<time>2016-10-06T14:52:53Z</time></trkpt>
<trkpt lat="24.983893" lon="109.673608">
<time>2016-10-06T14:52:54Z</time></trkpt>
<trkpt lat="24.983613" lon="109.673548">
<time>2016-10-06T14:52:55Z</time></trkpt>
<trkpt lat="24.983293" lon="109.673468">
<time>2016-10-06T14:52:56Z</time></trkpt>
<trkpt lat="24.982933" lon="109.673419">
<time>2016-10-06T14:52:57Z</time></trkpt>
<trkpt lat="24.982614" lon="109.673359">
<time>2016-10-06T14:52:58Z</time></trkpt>
<trkpt lat="24.982314" lon="109.673279">
<time>2016-10-06T14:52:59Z</time></trkpt>
<trkpt lat="24.982044" lon="109.673199">
<time>2016-10-06T14:53:00Z</time></trkpt>
<trkpt lat="24.981734" lon="109.673099">
<time>2016-10-06T14:53:01Z</time></trkpt>
<trkpt lat="24.981614" lon="109.673049">
<time>2016-10-06T14:53:02Z</time></trkpt>
<trkpt lat="24.981454" lon="109.67299">
<time>2016-10-06T14:53:03Z</time></trkpt>
<trkpt lat="24.981125" lon="109.67285">
<time>2016-10-06T14:53:04Z</time></trkpt>
<trkpt lat="24.980835" lon="109.67275">
<time>2016-10-06T14:53:05Z</time></trkpt>
<trkpt lat="24.980575" lon="109.67264">
<time>2016-10-06T14:53:06Z</time></trkpt>
<trkpt lat="24.980275" lon="109.672521">
<time>2016-10-06T14:53:07Z</time></trkpt>
<trkpt lat="24.979976" lon="109.672381">
<time>2016-10-06T14:53:08Z</time></trkpt>
<trkpt lat="24.979706" lon="109.672251">
<time>2016-10-06T14:53:09Z</time></trkpt>
<trkpt lat="24.979436" lon="109.672102">
<time>2016-10-06T14:53:10Z</time></trkpt>
<trkpt lat="24.979127" lon="109.671962">
<time>2016-10-06T14:53:11Z</time></trkpt>
<trkpt lat="24.978857" lon="109.671822">
<time>2016-10-06T14:53:12Z</time></trkpt>
<trkpt lat="24.978557" lon="109.671673">
<time>2016-10-06T14:53:13Z</time></trkpt>
<trkpt lat="24.978238" lon="109.671533">
<time>2016-10-06T14:53:14Z</time></trkpt>
<trkpt lat="24.977948" lon="109.671383">
<time>2016-10-06T14:53:15Z</time></trkpt>
<trkpt lat="24.977848" lon="109.671333">
<time>2016-10-06T14:53:16Z</time></trkpt>
<trkpt lat="24.977638" lon="109.671214">
<time>2016-10-06T14:53:17Z</time></trkpt>
<trkpt lat="24.977369" lon="109.671084">
<time>2016-10-06T14:53:18Z</time></trkpt>
<trkpt lat="24.977069" lon="109.670944">
<time>2016-10-06T14:53:19Z</time></trkpt>
<trkpt lat="24.976759" lon="109.670785">
<time>2016-10-06T14:53:20Z</time></trkpt>
<trkpt lat="24.976479" lon="109.670645">
<time>2016-10-06T14:53:21Z</time></trkpt>
<trkpt lat="24.9762" lon="109.670515">
<time>2016-10-06T14:53:22Z</time></trkpt>
<trkpt lat="24.97589" lon="109.670376">
<time>2016-10-06T14:53:23Z</time></trkpt>
<trkpt lat="24.9756" lon="109.670246">
<time>2016-10-06T14:53:24Z</time></trkpt>
<trkpt lat="24.975341" lon="109.670096">
<time>2016-10-06T14:53:25Z</time></trkpt>
<trkpt lat="24.975051" lon="109.669967">
<time>2016-10-06T14:53:26Z</time></trkpt>
<trkpt lat="24.974801" lon="109.669837">
<time>2016-10-06T14:53:27Z</time></trkpt>
<trkpt lat="24.974552" lon="109.669677">
<time>2016-10-06T14:53:28Z</time></trkpt>
<trkpt lat="24.974312" lon="109.669528">
<time>2016-10-06T14:53:29Z</time></trkpt>
<trkpt lat="24.974062" lon="109.669388">
<time>2016-10-06T14:53:30Z</time></trkpt>
<trkpt lat="24.973842" lon="109.669278">
<time>2016-10-06T14:53:31Z</time></trkpt>
<trkpt lat="24.973583" lon="109.669168">
<time>2016-10-06T14:53:32Z</time></trkpt>
<trkpt lat="24.973283" lon="109.669049">
<time>2016-10-06T14:53:33Z</time></trkpt>
<trkpt lat="24.973043" lon="109.668899">
<time>2016-10-06T14:53:34Z</time></trkpt>
<trkpt lat="24.972764" lon="109.668759">
<time>2016-10-06T14:53:35Z</time></trkpt>
<trkpt lat="24.972494" lon="109.66857">
<time>2016-10-06T14:53:36Z</time></trkpt>
<trkpt lat="24.972254" lon="109.66843">
<time>2016-10-06T14:53:37Z</time></trkpt>
<trkpt lat="24.971985" lon="109.668251">
<time>2016-10-06T14:53:38Z</time></trkpt>
<trkpt lat="24.971755" lon="109.668091">
<time>2016-10-06T14:53:39Z</time></trkpt>
<trkpt lat="24.971465" lon="109.667901">
<time>2016-10-06T14:53:40Z</time></trkpt>
<trkpt lat="24.971186" lon="109.667742">
<time>2016-10-06T14:53:41Z</time></trkpt>
<trkpt lat="24.970906" lon="109.667582">
<time>2016-10-06T14:53:42Z</time></trkpt>
<trkpt lat="24.970606" lon="109.667452">
<time>2016-10-06T14:53:43Z</time></trkpt>
<trkpt lat="24.970347" lon="109.667343">
<time>2016-10-06T14:53:44Z</time></trkpt>
<trkpt lat="24.969977" lon="109.667203">
<time>2016-10-06T14:53:45Z</time></trkpt>
<trkpt lat="24.969647" lon="109.667063">
<time>2016-10-06T14:53:46Z</time></trkpt>
<trkpt lat="24.969378" lon="109.666934">
<time>2016-10-06T14:53:47Z</time></trkpt>
<trkpt lat="24.969138" lon="109.666824">
<time>2016-10-06T14:53:48Z</time></trkpt>
<trkpt lat="24.968858" lon="109.666714">
<time>2016-10-06T14:53:49Z</time></trkpt>
<trkpt lat="24.968558" lon="109.666644">
<time>2016-10-06T14:53:50Z</time></trkpt>
<trkpt lat="24.968238" lon="109.666565">
<time>2016-10-06T14:53:51Z</time></trkpt>
<trkpt lat="24.967959" lon="109.666505">
<time>2016-10-06T14:53:52Z</time></trkpt>
<trkpt lat="24.967679" lon="109.666475">
<time>2016-10-06T14:53:53Z</time></trkpt>
<trkpt lat="24.967379" lon="109.666405">
<time>2016-10-06T14:53:54Z</time></trkpt>
<trkpt lat="24.967149" lon="109.666365">
<time>2016-10-06T14:53:55Z</time></trkpt>
<trkpt lat="24.966879" lon="109.666315">
<time>2016-10-06T14:53:56Z</time></trkpt>
<trkpt lat="24.966829" lon="109.666305">
<time>2016-10-06T14:53:57Z</time></trkpt>
<trkpt lat="24.966559" lon="109.666255">
<time>2016-10-06T14:53:58Z</time></trkpt>
<trkpt lat="24.966289" lon="109.666215">
<time>2016-10-06T14:53:59Z</time></trkpt>
<trkpt lat="24.966039" lon="109.666185">
<time>2016-10-06T14:54:00Z</time></trkpt>
<trkpt lat="24.96581" lon="109.666116">
<time>2016-10-06T14:54:01Z</time></trkpt>
<trkpt lat="24.96565" lon="109.666086">
<time>2016-10-06T14:54:02Z</time></trkpt>
<trkpt lat="24.96555" lon="109.666056">
<time>2016-10-06T14:54:03Z</time></trkpt>
<trkpt lat="24.96527" lon="109.666016">
<time>2016-10-06T14:54:04Z</time></trkpt>
<trkpt lat="24.96502" lon="109.665996">
<time>2016-10-06T14:54:05Z</time></trkpt>
<trkpt lat="24.965" lon="109.665996">
<time>2016-10-06T14:54:06Z</time></trkpt>
<trkpt lat="24.96476" lon="109.665966">
<time>2016-10-06T14:54:07Z</time></trkpt>
<trkpt lat="24.96449" lon="109.665906">
<time>2016-10-06T14:54:08Z</time></trkpt>
<trkpt lat="24.96448" lon="109.665906">
<time>2016-10-06T14:54:09Z</time></trkpt>
<trkpt lat="24.96428" lon="109.665836">
<time>2016-10-06T14:54:10Z</time></trkpt>
<trkpt lat="24.9641" lon="109.665806">
<time>2016-10-06T14:54:11Z</time></trkpt>
<trkpt lat="24.963871" lon="109.665737">
<time>2016-10-06T14:54:12Z</time></trkpt>
<trkpt lat="24.963651" lon="109.665677">
<time>2016-10-06T14:54:13Z</time></trkpt>
<trkpt lat="24.963441" lon="109.665587">
<time>2016-10-06T14:54:14Z</time></trkpt>
<trkpt lat="24.963271" lon="109.665497">
<time>2016-10-06T14:54:15Z</time></trkpt>
<trkpt lat="24.963051" lon="109.665367">
<time>2016-10-06T14:54:16Z</time></trkpt>
<trkpt lat="24.962842" lon="109.665228">
<time>2016-10-06T14:54:17Z</time></trkpt>
<trkpt lat="24.962682" lon="109.665098">
<time>2016-10-06T14:54:18Z</time></trkpt>
<trkpt lat="24.962532" lon="109.664978">
<time>2016-10-06T14:54:19Z</time></trkpt>
<trkpt lat="24.962403" lon="109.664799">
<time>2016-10-06T14:54:20Z</time></trkpt>
<trkpt lat="24.962233" lon="109.664619">
<time>2016-10-06T14:54:21Z</time></trkpt>
<trkpt lat="24.962133" lon="109.66446">
<time>2016-10-06T14:54:22Z</time></trkpt>
<trkpt lat="24.961994" lon="109.66426">
<time>2016-10-06T14:54:23Z</time></trkpt>
<trkpt lat="24.961844" lon="109.66408">
<time>2016-10-06T14:54:24Z</time></trkpt>
<trkpt lat="24.961714" lon="109.663871">
<time>2016-10-06T14:54:25Z</time></trkpt>
<trkpt lat="24.961545" lon="109.663651">
<time>2016-10-06T14:54:26Z</time></trkpt>
<trkpt lat="24.961365" lon="109.663392">
<time>2016-10-06T14:54:27Z</time></trkpt>
<trkpt lat="24.961206" lon="109.663182">
<time>2016-10-06T14:54:28Z</time></trkpt>
<trkpt lat="24.961016" lon="109.662983">
<time>2016-10-06T14:54:29Z</time></trkpt>
<trkpt lat="24.960817" lon="109.662813">
<time>2016-10-06T14:54:30Z</time></trkpt>
<trkpt lat="24.960607" lon="109.662624">
<time>2016-10-06T14:54:31Z</time></trkpt>
<trkpt lat="24.960407" lon="109.662454">
<time>2016-10-06T14:54:32Z</time></trkpt>
<trkpt lat="24.960218" lon="109.662264">
<time>2016-10-06T14:54:33Z</time></trkpt>
<trkpt lat="24.959968" lon="109.662075">
<time>2016-10-06T14:54:34Z</time></trkpt>
<trkpt lat="24.959778" lon="109.661945">
<time>2016-10-06T14:54:35Z</time></trkpt>
<trkpt lat="24.959768" lon="109.661935">
<time>2016-10-06T14:54:36Z</time></trkpt>
<trkpt lat="24.959559" lon="109.661835">
<time>2016-10-06T14:54:37Z</time></trkpt>
<trkpt lat="24.959519" lon="109.661825">
<time>2016-10-06T14:54:38Z</time></trkpt>
<trkpt lat="24.959299" lon="109.661726">
<time>2016-10-06T14:54:39Z</time></trkpt>
<trkpt lat="24.959109" lon="109.661646">
<time>2016-10-06T14:54:40Z</time></trkpt>
<trkpt lat="24.958899" lon="109.661556">
<time>2016-10-06T14:54:41Z</time></trkpt>
<trkpt lat="24.958699" lon="109.661486">
<time>2016-10-06T14:54:42Z</time></trkpt>
<trkpt lat="24.95853" lon="109.661436">
<time>2016-10-06T14:54:43Z</time></trkpt>
<trkpt lat="24.95826" lon="109.661327">
<time>2016-10-06T14:54:44Z</time></trkpt>
<trkpt lat="24.958" lon="109.661217">
<time>2016-10-06T14:54:45Z</time></trkpt>
<trkpt lat="24.95778" lon="109.661117">
<time>2016-10-06T14:54:46Z</time></trkpt>
<trkpt lat="24.95754" lon="109.661037">
<time>2016-10-06T14:54:47Z</time></trkpt>
<trkpt lat="24.957281" lon="109.660898">
<time>2016-10-06T14:54:48Z</time></trkpt>
<trkpt lat="24.957041" lon="109.660798">
<time>2016-10-06T14:54:49Z</time></trkpt>
<trkpt lat="24.956791" lon="109.660688">
<time>2016-10-06T14:54:50Z</time></trkpt>
<trkpt lat="24.956541" lon="109.660598">
<time>2016-10-06T14:54:51Z</time></trkpt>
<trkpt lat="24.956312" lon="109.660469">
<time>2016-10-06T14:54:52Z</time></trkpt>
<trkpt lat="24.956072" lon="109.660349">
<time>2016-10-06T14:54:53Z</time></trkpt>
<trkpt lat="24.955852" lon="109.660189">
<time>2016-10-06T14:54:54Z</time></trkpt>
<trkpt lat="24.955623" lon="109.66004">
<time>2016-10-06T14:54:55Z</time></trkpt>
<trkpt lat="24.955373" lon="109.65984">
<time>2016-10-06T14:54:56Z</time></trkpt>
<trkpt lat="24.955113" lon="109.659641">
<time>2016-10-06T14:54:57Z</time></trkpt>
<trkpt lat="24.954964" lon="109.659531">
<time>2016-10-06T14:54:58Z</time></trkpt>
<trkpt lat="24.954794" lon="109.659391">
<time>2016-10-06T14:54:59Z</time></trkpt>
<trkpt lat="24.954604" lon="109.659271">
<time>2016-10-06T14:55:00Z</time></trkpt>
<trkpt lat="24.954384" lon="109.659112">
<time>2016-10-06T14:55:01Z</time></trkpt>
<trkpt lat="24.954155" lon="109.658952">
<time>2016-10-06T14:55:02Z</time></trkpt>
<trkpt lat="24.954005" lon="109.658822">
<time>2016-10-06T14:55:03Z</time></trkpt>
<trkpt lat="24.953905" lon="109.658733">
<time>2016-10-06T14:55:04Z</time></trkpt>
<trkpt lat="24.953746" lon="109.658593">
<time>2016-10-06T14:55:05Z</time></trkpt>
<trkpt lat="24.953526" lon="109.658433">
<time>2016-10-06T14:55:06Z</time></trkpt>
<trkpt lat="24.953346" lon="109.658294">
<time>2016-10-06T14:55:07Z</time></trkpt>
<trkpt lat="24.953186" lon="109.658164">
<time>2016-10-06T14:55:08Z</time></trkpt>
<trkpt lat="24.953057" lon="109.658054">
<time>2016-10-06T14:55:09Z</time></trkpt>
<trkpt lat="24.952897" lon="109.657885">
<time>2016-10-06T14:55:10Z</time></trkpt>
<trkpt lat="24.952727" lon="109.657735">
<time>2016-10-06T14:55:11Z</time></trkpt>
<trkpt lat="24.952548" lon="109.657565">
<time>2016-10-06T14:55:12Z</time></trkpt>
<trkpt lat="24.952378" lon="109.657396">
<time>2016-10-06T14:55:13Z</time></trkpt>
<trkpt lat="24.952208" lon="109.657236">
<time>2016-10-06T14:55:14Z</time></trkpt>
<trkpt lat="24.952029" lon="109.657066">
<time>2016-10-06T14:55:15Z</time></trkpt>
<trkpt lat="24.951869" lon="109.656897">
<time>2016-10-06T14:55:16Z</time></trkpt>
<trkpt lat="24.951769" lon="109.656807">
<time>2016-10-06T14:55:17Z</time></trkpt>
<trkpt lat="24.951709" lon="109.656747">
<time>2016-10-06T14:55:18Z</time></trkpt>
<trkpt lat="24.95148" lon="109.656548">
<time>2016-10-06T14:55:19Z</time></trkpt>
<trkpt lat="24.95145" lon="109.656528">
<time>2016-10-06T14:55:20Z</time></trkpt>
<trkpt lat="24.95125" lon="109.656368">
<time>2016-10-06T14:55:21Z</time></trkpt>
<trkpt lat="24.95105" lon="109.656238">
<time>2016-10-06T14:55:22Z</time></trkpt>
<trkpt lat="24.950851" lon="109.656128">
<time>2016-10-06T14:55:23Z</time></trkpt>
<trkpt lat="24.950601" lon="109.656079">
<time>2016-10-06T14:55:24Z</time></trkpt>
<trkpt lat="24.950341" lon="109.656049">
<time>2016-10-06T14:55:25Z</time></trkpt>
<trkpt lat="24.950071" lon="109.656019">
<time>2016-10-06T14:55:26Z</time></trkpt>
<trkpt lat="24.949801" lon="109.655939">
<time>2016-10-06T14:55:27Z</time></trkpt>
<trkpt lat="24.949551" lon="109.655899">
<time>2016-10-06T14:55:28Z</time></trkpt>
<trkpt lat="24.949291" lon="109.655819">
<time>2016-10-06T14:55:29Z</time></trkpt>
<trkpt lat="24.948981" lon="109.655779">
<time>2016-10-06T14:55:30Z</time></trkpt>
<trkpt lat="24.948722" lon="109.6557">
<time>2016-10-06T14:55:31Z</time></trkpt>
<trkpt lat="24.948682" lon="109.65569">
<time>2016-10-06T14:55:32Z</time></trkpt>
<trkpt lat="24.948432" lon="109.65561">
<time>2016-10-06T14:55:33Z</time></trkpt>
<trkpt lat="24.948132" lon="109.65557">
<time>2016-10-06T14:55:34Z</time></trkpt>
<trkpt lat="24.947902" lon="109.65551">
<time>2016-10-06T14:55:35Z</time></trkpt>
<trkpt lat="24.947612" lon="109.65547">
<time>2016-10-06T14:55:36Z</time></trkpt>
<trkpt lat="24.947302" lon="109.65542">
<time>2016-10-06T14:55:37Z</time></trkpt>
<trkpt lat="24.947032" lon="109.65537">
<time>2016-10-06T14:55:38Z</time></trkpt>
<trkpt lat="24.946713" lon="109.655291">
<time>2016-10-06T14:55:39Z</time></trkpt>
<trkpt lat="24.946383" lon="109.655201">
<time>2016-10-06T14:55:40Z</time></trkpt>
<trkpt lat="24.946103" lon="109.655141">
<time>2016-10-06T14:55:41Z</time></trkpt>
<trkpt lat="24.946063" lon="109.655131">
<time>2016-10-06T14:55:42Z</time></trkpt>
<trkpt lat="24.945803" lon="109.655091">
<time>2016-10-06T14:55:43Z</time></trkpt>
<trkpt lat="24.945473" lon="109.655001">
<time>2016-10-06T14:55:44Z</time></trkpt>
<trkpt lat="24.945194" lon="109.654941">
<time>2016-10-06T14:55:45Z</time></trkpt>
<trkpt lat="24.944914" lon="109.654891">
<time>2016-10-06T14:55:46Z</time></trkpt>
<trkpt lat="24.944714" lon="109.654822">
<time>2016-10-06T14:55:47Z</time></trkpt>
<trkpt lat="24.944444" lon="109.654762">
<time>2016-10-06T14:55:48Z</time></trkpt>
<trkpt lat="24.944184" lon="109.654732">
<time>2016-10-06T14:55:49Z</time></trkpt>
<trkpt lat="24.943954" lon="109.654702">
<time>2016-10-06T14:55:50Z</time></trkpt>
<trkpt lat="24.943724" lon="109.654692">
<time>2016-10-06T14:55:51Z</time></trkpt>
<trkpt lat="24.943504" lon="109.654682">
<time>2016-10-06T14:55:52Z</time></trkpt>
<trkpt lat="24.943394" lon="109.654682">
<time>2016-10-06T14:55:53Z</time></trkpt>
<trkpt lat="24.943244" lon="109.654652">
<time>2016-10-06T14:55:54Z</time></trkpt>
<trkpt lat="24.943044" lon="109.654642">
<time>2016-10-06T14:55:55Z</time></trkpt>
<trkpt lat="24.942884" lon="109.654632">
<time>2016-10-06T14:55:56Z</time></trkpt>
<trkpt lat="24.942854" lon="109.654632">
<time>2016-10-06T14:55:57Z</time></trkpt>
<trkpt lat="24.942674" lon="109.654622">
<time>2016-10-06T14:55:58Z</time></trkpt>
<trkpt lat="24.942485" lon="109.654602">
<time>2016-10-06T14:55:59Z</time></trkpt>
<trkpt lat="24.942305" lon="109.654572">
<time>2016-10-06T14:56:00Z</time></trkpt>
<trkpt lat="24.942075" lon="109.654552">
<time>2016-10-06T14:56:01Z</time></trkpt>
<trkpt lat="24.941895" lon="109.654542">
<time>2016-10-06T14:56:02Z</time></trkpt>
<trkpt lat="24.941695" lon="109.654522">
<time>2016-10-06T14:56:03Z</time></trkpt>
<trkpt lat="24.941475" lon="109.654522">
<time>2016-10-06T14:56:04Z</time></trkpt>
<trkpt lat="24.941465" lon="109.654522">
<time>2016-10-06T14:56:05Z</time></trkpt>
<trkpt lat="24.941295" lon="109.654503">
<time>2016-10-06T14:56:06Z</time></trkpt>
<trkpt lat="24.941095" lon="109.654493">
<time>2016-10-06T14:56:07Z</time></trkpt>
<trkpt lat="24.940875" lon="109.654503">
<time>2016-10-06T14:56:08Z</time></trkpt>
<trkpt lat="24.940685" lon="109.654503">
<time>2016-10-06T14:56:09Z</time></trkpt>
<trkpt lat="24.940425" lon="109.654473">
<time>2016-10-06T14:56:10Z</time></trkpt>
<trkpt lat="24.940395" lon="109.654463">
<time>2016-10-06T14:56:11Z</time></trkpt>
<trkpt lat="24.940335" lon="109.654453">
<time>2016-10-06T14:56:12Z</time></trkpt>
<trkpt lat="24.940115" lon="109.654443">
<time>2016-10-06T14:56:13Z</time></trkpt>
<trkpt lat="24.939895" lon="109.654423">
<time>2016-10-06T14:56:14Z</time></trkpt>
<trkpt lat="24.939765" lon="109.654393">
<time>2016-10-06T14:56:15Z</time></trkpt>
<trkpt lat="24.939565" lon="109.654333">
<time>2016-10-06T14:56:16Z</time></trkpt>
<trkpt lat="24.939326" lon="109.654273">
<time>2016-10-06T14:56:17Z</time></trkpt>
<trkpt lat="24.939086" lon="109.654233">
<time>2016-10-06T14:56:18Z</time></trkpt>
<trkpt lat="24.938956" lon="109.654203">
<time>2016-10-06T14:56:19Z</time></trkpt>
<trkpt lat="24.938696" lon="109.654123">
<time>2016-10-06T14:56:20Z</time></trkpt>
<trkpt lat="24.938696" lon="109.654123">
<time>2016-10-06T14:56:21Z</time></trkpt>
<trkpt lat="24.938706" lon="109.653884">
<time>2016-10-06T14:56:22Z</time></trkpt>
<trkpt lat="24.938757" lon="109.653734">
<time>2016-10-06T14:56:23Z</time></trkpt>
<trkpt lat="24.938787" lon="109.653565">
<time>2016-10-06T14:56:24Z</time></trkpt>
<trkpt lat="24.938847" lon="109.653395">
<time>2016-10-06T14:56:25Z</time></trkpt>
<trkpt lat="24.938918" lon="109.653176">
<time>2016-10-06T14:56:26Z</time></trkpt>
<trkpt lat="24.938998" lon="109.652836">
<time>2016-10-06T14:56:27Z</time></trkpt>
<trkpt lat="24.939119" lon="109.652507">
<time>2016-10-06T14:56:28Z</time></trkpt>
<trkpt lat="24.939209" lon="109.652158">
<time>2016-10-06T14:56:29Z</time></trkpt>
<trkpt lat="24.93928" lon="109.651838">
<time>2016-10-06T14:56:30Z</time></trkpt>
<trkpt lat="24.93931" lon="109.651569">
<time>2016-10-06T14:56:31Z</time></trkpt>
<trkpt lat="24.939311" lon="109.651549">
<time>2016-10-06T14:56:32Z</time></trkpt>
<trkpt lat="24.939311" lon="109.65123">
<time>2016-10-06T14:56:33Z</time></trkpt>
<trkpt lat="24.939262" lon="109.65099">
<time>2016-10-06T14:56:34Z</time></trkpt>
<trkpt lat="24.939202" lon="109.65081">
<time>2016-10-06T14:56:35Z</time></trkpt>
<trkpt lat="24.939122" lon="109.650671">
<time>2016-10-06T14:56:36Z</time></trkpt>
<trkpt lat="24.938982" lon="109.650531">
<time>2016-10-06T14:56:37Z</time></trkpt>
<trkpt lat="24.938823" lon="109.650471">
<time>2016-10-06T14:56:38Z</time></trkpt>
<trkpt lat="24.938633" lon="109.650461">
<time>2016-10-06T14:56:39Z</time></trkpt>
<trkpt lat="24.938453" lon="109.650431">
<time>2016-10-06T14:56:40Z</time></trkpt>
<trkpt lat="24.938203" lon="109.650411">
<time>2016-10-06T14:56:41Z</time></trkpt>
<trkpt lat="24.937923" lon="109.650322">
<time>2016-10-06T14:56:42Z</time></trkpt>
<trkpt lat="24.937683" lon="109.650152">
<time>2016-10-06T14:56:43Z</time></trkpt>
<trkpt lat="24.937504" lon="109.649922">
<time>2016-10-06T14:56:44Z</time></trkpt>
<trkpt lat="24.937374" lon="109.649683">
<time>2016-10-06T14:56:45Z</time></trkpt>
<trkpt lat="24.937235" lon="109.649374">
<time>2016-10-06T14:56:46Z</time></trkpt>
<trkpt lat="24.937175" lon="109.649114">
<time>2016-10-06T14:56:47Z</time></trkpt>
<trkpt lat="24.937126" lon="109.648825">
<time>2016-10-06T14:56:48Z</time></trkpt>
<trkpt lat="24.937036" lon="109.648545">
<time>2016-10-06T14:56:49Z</time></trkpt>
<trkpt lat="24.936937" lon="109.648286">
<time>2016-10-06T14:56:50Z</time></trkpt>
<trkpt lat="24.936797" lon="109.648006">
<time>2016-10-06T14:56:51Z</time></trkpt>
<trkpt lat="24.936618" lon="109.647737">
<time>2016-10-06T14:56:52Z</time></trkpt>
<trkpt lat="24.936428" lon="109.647498">
<time>2016-10-06T14:56:53Z</time></trkpt>
<trkpt lat="24.936278" lon="109.647318">
<time>2016-10-06T14:56:54Z</time></trkpt>
<trkpt lat="24.936079" lon="109.647108">
<time>2016-10-06T14:56:55Z</time></trkpt>
<trkpt lat="24.935859" lon="109.646889">
<time>2016-10-06T14:56:56Z</time></trkpt>
<trkpt lat="24.93567" lon="109.646689">
<time>2016-10-06T14:56:57Z</time></trkpt>
<trkpt lat="24.93545" lon="109.64649">
<time>2016-10-06T14:56:58Z</time></trkpt>
<trkpt lat="24.93522" lon="109.64628">
<time>2016-10-06T14:56:59Z</time></trkpt>
<trkpt lat="24.935021" lon="109.6461">
<time>2016-10-06T14:57:00Z</time></trkpt>
<trkpt lat="24.934791" lon="109.645881">
<time>2016-10-06T14:57:01Z</time></trkpt>
<trkpt lat="24.934602" lon="109.645671">
<time>2016-10-06T14:57:02Z</time></trkpt>
<trkpt lat="24.934362" lon="109.645442">
<time>2016-10-06T14:57:03Z</time></trkpt>
<trkpt lat="24.934162" lon="109.645272">
<time>2016-10-06T14:57:04Z</time></trkpt>
<trkpt lat="24.933933" lon="109.645053">
<time>2016-10-06T14:57:05Z</time></trkpt>
<trkpt lat="24.933713" lon="109.644863">
<time>2016-10-06T14:57:06Z</time></trkpt>
<trkpt lat="24.933553" lon="109.644723">
<time>2016-10-06T14:57:07Z</time></trkpt>
<trkpt lat="24.933374" lon="109.644564">
<time>2016-10-06T14:57:08Z</time></trkpt>
<trkpt lat="24.933204" lon="109.644414">
<time>2016-10-06T14:57:09Z</time></trkpt>
<trkpt lat="24.933044" lon="109.644224">
<time>2016-10-06T14:57:10Z</time></trkpt>
<trkpt lat="24.932875" lon="109.644005">
<time>2016-10-06T14:57:11Z</time></trkpt>
<trkpt lat="24.932745" lon="109.643815">
<time>2016-10-06T14:57:12Z</time></trkpt>
<trkpt lat="24.932635" lon="109.643576">
<time>2016-10-06T14:57:13Z</time></trkpt>
<trkpt lat="24.932546" lon="109.643276">
<time>2016-10-06T14:57:14Z</time></trkpt>
<trkpt lat="24.932496" lon="109.643067">
<time>2016-10-06T14:57:15Z</time></trkpt>
<trkpt lat="24.932487" lon="109.642897">
<time>2016-10-06T14:57:16Z</time></trkpt>
<trkpt lat="24.932467" lon="109.642687">
<time>2016-10-06T14:57:17Z</time></trkpt>
<trkpt lat="24.932397" lon="109.642438">
<time>2016-10-06T14:57:18Z</time></trkpt>
<trkpt lat="24.932298" lon="109.642238">
<time>2016-10-06T14:57:19Z</time></trkpt>
<trkpt lat="24.932178" lon="109.642099">
<time>2016-10-06T14:57:20Z</time></trkpt>
<trkpt lat="24.932018" lon="109.642089">
<time>2016-10-06T14:57:21Z</time></trkpt>
<trkpt lat="24.931778" lon="109.642169">
<time>2016-10-06T14:57:22Z</time></trkpt>
<trkpt lat="24.931488" lon="109.642258">
<time>2016-10-06T14:57:23Z</time></trkpt>
<trkpt lat="24.931188" lon="109.642308">
<time>2016-10-06T14:57:24Z</time></trkpt>
<trkpt lat="24.930948" lon="109.642358">
<time>2016-10-06T14:57:25Z</time></trkpt>
<trkpt lat="24.930638" lon="109.642418">
<time>2016-10-06T14:57:26Z</time></trkpt>
<trkpt lat="24.930368" lon="109.642458">
<time>2016-10-06T14:57:27Z</time></trkpt>
<trkpt lat="24.930108" lon="109.642508">
<time>2016-10-06T14:57:28Z</time></trkpt>
<trkpt lat="24.929868" lon="109.642548">
<time>2016-10-06T14:57:29Z</time></trkpt>
<trkpt lat="24.929648" lon="109.642568">
<time>2016-10-06T14:57:30Z</time></trkpt>
<trkpt lat="24.929398" lon="109.642588">
<time>2016-10-06T14:57:31Z</time></trkpt>
<trkpt lat="24.929108" lon="109.642568">
<time>2016-10-06T14:57:32Z</time></trkpt>
<trkpt lat="24.928898" lon="109.642538">
<time>2016-10-06T14:57:33Z</time></trkpt>
<trkpt lat="24.928678" lon="109.642508">
<time>2016-10-06T14:57:34Z</time></trkpt>
<trkpt lat="24.928478" lon="109.642458">
<time>2016-10-06T14:57:35Z</time></trkpt>
<trkpt lat="24.928308" lon="109.642388">
<time>2016-10-06T14:57:36Z</time></trkpt>
<trkpt lat="24.928138" lon="109.642308">
<time>2016-10-06T14:57:37Z</time></trkpt>
<trkpt lat="24.928008" lon="109.642239">
<time>2016-10-06T14:57:38Z</time></trkpt>
<trkpt lat="24.927789" lon="109.642109">
<time>2016-10-06T14:57:39Z</time></trkpt>
<trkpt lat="24.927659" lon="109.641989">
<time>2016-10-06T14:57:40Z</time></trkpt>
<trkpt lat="24.927519" lon="109.641859">
<time>2016-10-06T14:57:41Z</time></trkpt>
<trkpt lat="24.927409" lon="109.64174">
<time>2016-10-06T14:57:42Z</time></trkpt>
<trkpt lat="24.927289" lon="109.6416">
<time>2016-10-06T14:57:43Z</time></trkpt>
<trkpt lat="24.92718" lon="109.64145">
<time>2016-10-06T14:57:44Z</time></trkpt>
<trkpt lat="24.92704" lon="109.641281">
<time>2016-10-06T14:57:45Z</time></trkpt>
<trkpt lat="24.92688" lon="109.641121">
<time>2016-10-06T14:57:46Z</time></trkpt>
<trkpt lat="24.926711" lon="109.640911">
<time>2016-10-06T14:57:47Z</time></trkpt>
<trkpt lat="24.926691" lon="109.640871">
<time>2016-10-06T14:57:48Z</time></trkpt>
<trkpt lat="24.926691" lon="109.640871">
<time>2016-10-06T14:57:49Z</time></trkpt>
<trkpt lat="24.926501" lon="109.640841">
<time>2016-10-06T14:57:50Z</time></trkpt>
<trkpt lat="24.926451" lon="109.640821">
<time>2016-10-06T14:57:51Z</time></trkpt>
<trkpt lat="24.926391" lon="109.640791">
<time>2016-10-06T14:57:52Z</time></trkpt>
<trkpt lat="24.926271" lon="109.640712">
<time>2016-10-06T14:57:53Z</time></trkpt>
<trkpt lat="24.925722" lon="109.640362">
<time>2016-10-06T14:57:54Z</time></trkpt>
<trkpt lat="24.925232" lon="109.640023">
<time>2016-10-06T14:57:55Z</time></trkpt>
<trkpt lat="24.924863" lon="109.639714">
<time>2016-10-06T14:57:56Z</time></trkpt>
<trkpt lat="24.924593" lon="109.639334">
<time>2016-10-06T14:57:57Z</time></trkpt>
<trkpt lat="24.924144" lon="109.638875">
<time>2016-10-06T14:57:58Z</time></trkpt>
<trkpt lat="24.923246" lon="109.637817">
<time>2016-10-06T14:57:59Z</time></trkpt>
<trkpt lat="24.923106" lon="109.637648">
<time>2016-10-06T14:58:00Z</time></trkpt>
<trkpt lat="24.922687" lon="109.637159">
<time>2016-10-06T14:58:01Z</time></trkpt>
<trkpt lat="24.922059" lon="109.636051">
<time>2016-10-06T14:58:02Z</time></trkpt>
<trkpt lat="24.921919" lon="109.635761">
<time>2016-10-06T14:58:03Z</time></trkpt>
<trkpt lat="24.92185" lon="109.635611">
<time>2016-10-06T14:58:04Z</time></trkpt>
<trkpt lat="24.92165" lon="109.635382">
<time>2016-10-06T14:58:05Z</time></trkpt>
<trkpt lat="24.921171" lon="109.634773">
<time>2016-10-06T14:58:06Z</time></trkpt>
<trkpt lat="24.919714" lon="109.632617">
<time>2016-10-06T14:58:07Z</time></trkpt>
<trkpt lat="24.919585" lon="109.632437">
<time>2016-10-06T14:58:08Z</time></trkpt>
<trkpt lat="24.918876" lon="109.631379">
<time>2016-10-06T14:58:09Z</time></trkpt>
<trkpt lat="24.918308" lon="109.630471">
<time>2016-10-06T14:58:10Z</time></trkpt>
<trkpt lat="24.917719" lon="109.629472">
<time>2016-10-06T14:58:11Z</time></trkpt>
<trkpt lat="24.917569" lon="109.629223">
<time>2016-10-06T14:58:12Z</time></trkpt>
<trkpt lat="24.9175" lon="109.628993">
<time>2016-10-06T14:58:13Z</time></trkpt>
<trkpt lat="24.91739" lon="109.628793">
<time>2016-10-06T14:58:14Z</time></trkpt>
<trkpt lat="24.91734" lon="109.628723">
<time>2016-10-06T14:58:15Z</time></trkpt>
<trkpt lat="24.91714" lon="109.628674">
<time>2016-10-06T14:58:16Z</time></trkpt>
<trkpt lat="24.91667" lon="109.628544">
<time>2016-10-06T14:58:17Z</time></trkpt>
<trkpt lat="24.91666" lon="109.628534">
<time>2016-10-06T14:58:18Z</time></trkpt>
<trkpt lat="24.915951" lon="109.628334">
<time>2016-10-06T14:58:19Z</time></trkpt>
<trkpt lat="24.915531" lon="109.628184">
<time>2016-10-06T14:58:20Z</time></trkpt>
<trkpt lat="24.915061" lon="109.627945">
<time>2016-10-06T14:58:21Z</time></trkpt>
<trkpt lat="24.914812" lon="109.627795">
<time>2016-10-06T14:58:22Z</time></trkpt>
<trkpt lat="24.914722" lon="109.627715">
<time>2016-10-06T14:58:23Z</time></trkpt>
<trkpt lat="24.914702" lon="109.627645">
<time>2016-10-06T14:58:24Z</time></trkpt>
<trkpt lat="24.914433" lon="109.626827">
<time>2016-10-06T14:58:25Z</time></trkpt>
<trkpt lat="24.914203" lon="109.626467">
<time>2016-10-06T14:58:26Z</time></trkpt>
<trkpt lat="24.913834" lon="109.626048">
<time>2016-10-06T14:58:27Z</time></trkpt>
<trkpt lat="24.913744" lon="109.625928">
<time>2016-10-06T14:58:28Z</time></trkpt>
<trkpt lat="24.912925" lon="109.624999">
<time>2016-10-06T14:58:29Z</time></trkpt>
<trkpt lat="24.912915" lon="109.624989">
<time>2016-10-06T14:58:30Z</time></trkpt>
<trkpt lat="24.912566" lon="109.62459">
<time>2016-10-06T14:58:31Z</time></trkpt>
<trkpt lat="24.912266" lon="109.624231">
<time>2016-10-06T14:58:32Z</time></trkpt>
<trkpt lat="24.912017" lon="109.623931">
<time>2016-10-06T14:58:33Z</time></trkpt>
<trkpt lat="24.911887" lon="109.623741">
<time>2016-10-06T14:58:34Z</time></trkpt>
<trkpt lat="24.911488" lon="109.622613">
<time>2016-10-06T14:58:35Z</time></trkpt>
<trkpt lat="24.911478" lon="109.622573">
<time>2016-10-06T14:58:36Z</time></trkpt>
<trkpt lat="24.911409" lon="109.622333">
<time>2016-10-06T14:58:37Z</time></trkpt>
<trkpt lat="24.91112" lon="109.621335">
<time>2016-10-06T14:58:38Z</time></trkpt>
<trkpt lat="24.910911" lon="109.620676">
<time>2016-10-06T14:58:39Z</time></trkpt>
<trkpt lat="24.910343" lon="109.618878">
<time>2016-10-06T14:58:40Z</time></trkpt>
<trkpt lat="24.910023" lon="109.618109">
<time>2016-10-06T14:58:41Z</time></trkpt>
<trkpt lat="24.910023" lon="109.618109">
<time>2016-10-06T14:58:42Z</time></trkpt>
<trkpt lat="24.909233" lon="109.618379">
<time>2016-10-06T14:58:43Z</time></trkpt>
<trkpt lat="24.908753" lon="109.618419">
<time>2016-10-06T14:58:44Z</time></trkpt>
<trkpt lat="24.908143" lon="109.618559">
<time>2016-10-06T14:58:45Z</time></trkpt>
<trkpt lat="24.907613" lon="109.618848">
<time>2016-10-06T14:58:46Z</time></trkpt>
<trkpt lat="24.907463" lon="109.618918">
<time>2016-10-06T14:58:47Z</time></trkpt>
<trkpt lat="24.907393" lon="109.618928">
<time>2016-10-06T14:58:48Z</time></trkpt>
<trkpt lat="24.906793" lon="109.618728">
<time>2016-10-06T14:58:49Z</time></trkpt>
<trkpt lat="24.906403" lon="109.618599">
<time>2016-10-06T14:58:50Z</time></trkpt>
<trkpt lat="24.905824" lon="109.618349">
<time>2016-10-06T14:58:51Z</time></trkpt>
<trkpt lat="24.905684" lon="109.618329">
<time>2016-10-06T14:58:52Z</time></trkpt>
<trkpt lat="24.905254" lon="109.618379">
<time>2016-10-06T14:58:53Z</time></trkpt>
<trkpt lat="24.904324" lon="109.618259">
<time>2016-10-06T14:58:54Z</time></trkpt>
<trkpt lat="24.903984" lon="109.618149">
<time>2016-10-06T14:58:55Z</time></trkpt>
<trkpt lat="24.903714" lon="109.618049">
<time>2016-10-06T14:58:56Z</time></trkpt>
<trkpt lat="24.903505" lon="109.61789">
<time>2016-10-06T14:58:57Z</time></trkpt>
<trkpt lat="24.903305" lon="109.61777">
<time>2016-10-06T14:58:58Z</time></trkpt>
<trkpt lat="24.900836" lon="109.616831">
<time>2016-10-06T14:58:59Z</time></trkpt>
<trkpt lat="24.900486" lon="109.616701">
<time>2016-10-06T14:59:00Z</time></trkpt>
<trkpt lat="24.900366" lon="109.616651">
<time>2016-10-06T14:59:01Z</time></trkpt>
<trkpt lat="24.900156" lon="109.616432">
<time>2016-10-06T14:59:02Z</time></trkpt>
<trkpt lat="24.899867" lon="109.616292">
<time>2016-10-06T14:59:03Z</time></trkpt>
<trkpt lat="24.899677" lon="109.616202">
<time>2016-10-06T14:59:04Z</time></trkpt>
<trkpt lat="24.899367" lon="109.616062">
<time>2016-10-06T14:59:05Z</time></trkpt>
<trkpt lat="24.898927" lon="109.615862">
<time>2016-10-06T14:59:06Z</time></trkpt>
<trkpt lat="24.898707" lon="109.615753">
<time>2016-10-06T14:59:07Z</time></trkpt>
<trkpt lat="24.898527" lon="109.615733">
<time>2016-10-06T14:59:08Z</time></trkpt>
<trkpt lat="24.898367" lon="109.615633">
<time>2016-10-06T14:59:09Z</time></trkpt>
<trkpt lat="24.897928" lon="109.615283">
<time>2016-10-06T14:59:10Z</time></trkpt>
<trkpt lat="24.897108" lon="109.614724">
<time>2016-10-06T14:59:11Z</time></trkpt>
<trkpt lat="24.896359" lon="109.614334">
<time>2016-10-06T14:59:12Z</time></trkpt>
<trkpt lat="24.895939" lon="109.614085">
<time>2016-10-06T14:59:13Z</time></trkpt>
<trkpt lat="24.895709" lon="109.613905">
<time>2016-10-06T14:59:14Z</time></trkpt>
<trkpt lat="24.895539" lon="109.613665">
<time>2016-10-06T14:59:15Z</time></trkpt>
<trkpt lat="24.895489" lon="109.613545">
<time>2016-10-06T14:59:16Z</time></trkpt>
<trkpt lat="24.89529" lon="109.613395">
<time>2016-10-06T14:59:17Z</time></trkpt>
<trkpt lat="24.89517" lon="109.613285">
<time>2016-10-06T14:59:18Z</time></trkpt>
<trkpt lat="24.89495" lon="109.612946">
<time>2016-10-06T14:59:19Z</time></trkpt>
<trkpt lat="24.89474" lon="109.612476">
<time>2016-10-06T14:59:20Z</time></trkpt>
<trkpt lat="24.894671" lon="109.612406">
<time>2016-10-06T14:59:21Z</time></trkpt>
<trkpt lat="24.894481" lon="109.612287">
<time>2016-10-06T14:59:22Z</time></trkpt>
<trkpt lat="24.893841" lon="109.611937">
<time>2016-10-06T14:59:23Z</time></trkpt>
<trkpt lat="24.893351" lon="109.611697">
<time>2016-10-06T14:59:24Z</time></trkpt>
<trkpt lat="24.893221" lon="109.611587">
<time>2016-10-06T14:59:25Z</time></trkpt>
<trkpt lat="24.892911" lon="109.611527">
<time>2016-10-06T14:59:26Z</time></trkpt>
<trkpt lat="24.892751" lon="109.611487">
<time>2016-10-06T14:59:27Z</time></trkpt>
<trkpt lat="24.892642" lon="109.611427">
<time>2016-10-06T14:59:28Z</time></trkpt>
<trkpt lat="24.892592" lon="109.611308">
<time>2016-10-06T14:59:29Z</time></trkpt>
<trkpt lat="24.892522" lon="109.611158">
<time>2016-10-06T14:59:30Z</time></trkpt>
<trkpt lat="24.892272" lon="109.610688">
<time>2016-10-06T14:59:31Z</time></trkpt>
<trkpt lat="24.891942" lon="109.610409">
<time>2016-10-06T14:59:32Z</time></trkpt>
<trkpt lat="24.891513" lon="109.610199">
<time>2016-10-06T14:59:33Z</time></trkpt>
<trkpt lat="24.890823" lon="109.609539">
<time>2016-10-06T14:59:34Z</time></trkpt>
<trkpt lat="24.890803" lon="109.609499">
<time>2016-10-06T14:59:35Z</time></trkpt>
<trkpt lat="24.890513" lon="109.60912">
<time>2016-10-06T14:59:36Z</time></trkpt>
<trkpt lat="24.890473" lon="109.60901">
<time>2016-10-06T14:59:37Z</time></trkpt>
<trkpt lat="24.890444" lon="109.608151">
<time>2016-10-06T14:59:38Z</time></trkpt>
<trkpt lat="24.890414" lon="109.607611">
<time>2016-10-06T14:59:39Z</time></trkpt>
<trkpt lat="24.890384" lon="109.607521">
<time>2016-10-06T14:59:40Z</time></trkpt>
<trkpt lat="24.890344" lon="109.607461">
<time>2016-10-06T14:59:41Z</time></trkpt>
<trkpt lat="24.890065" lon="109.607401">
<time>2016-10-06T14:59:42Z</time></trkpt>
<trkpt lat="24.889865" lon="109.607311">
<time>2016-10-06T14:59:43Z</time></trkpt>
<trkpt lat="24.889805" lon="109.607281">
<time>2016-10-06T14:59:44Z</time></trkpt>
<trkpt lat="24.889695" lon="109.607231">
<time>2016-10-06T14:59:45Z</time></trkpt>
<trkpt lat="24.889595" lon="109.607211">
<time>2016-10-06T14:59:46Z</time></trkpt>
<trkpt lat="24.889535" lon="109.607211">
<time>2016-10-06T14:59:47Z</time></trkpt>
<trkpt lat="24.889465" lon="109.607271">
<time>2016-10-06T14:59:48Z</time></trkpt>
<trkpt lat="24.889325" lon="109.607571">
<time>2016-10-06T14:59:49Z</time></trkpt>
<trkpt lat="24.889224" lon="109.607791">
<time>2016-10-06T14:59:50Z</time></trkpt>
<trkpt lat="24.888984" lon="109.608091">
<time>2016-10-06T14:59:51Z</time></trkpt>
<trkpt lat="24.888434" lon="109.60845">
<time>2016-10-06T14:59:52Z</time></trkpt>
<trkpt lat="24.887804" lon="109.60864">
<time>2016-10-06T14:59:53Z</time></trkpt>
<trkpt lat="24.887454" lon="109.60867">
<time>2016-10-06T14:59:54Z</time></trkpt>
<trkpt lat="24.887324" lon="109.60868">
<time>2016-10-06T14:59:55Z</time></trkpt>
<trkpt lat="24.887224" lon="109.60863">
<time>2016-10-06T14:59:56Z</time></trkpt>
<trkpt lat="24.887044" lon="109.608501">
<time>2016-10-06T14:59:57Z</time></trkpt>
<trkpt lat="24.886794" lon="109.608351">
<time>2016-10-06T14:59:58Z</time></trkpt>
<trkpt lat="24.886444" lon="109.608371">
<time>2016-10-06T14:59:59Z</time></trkpt>
<trkpt lat="24.886224" lon="109.608431">
<time>2016-10-06T15:00:00Z</time></trkpt>
<trkpt lat="24.885764" lon="109.608581">
<time>2016-10-06T15:00:01Z</time></trkpt>
<trkpt lat="24.885354" lon="109.60875">
<time>2016-10-06T15:00:02Z</time></trkpt>
<trkpt lat="24.885164" lon="109.60887">
<time>2016-10-06T15:00:03Z</time></trkpt>
<trkpt lat="24.884984" lon="109.60901">
<time>2016-10-06T15:00:04Z</time></trkpt>
<trkpt lat="24.884754" lon="109.60902">
<time>2016-10-06T15:00:05Z</time></trkpt>
<trkpt lat="24.884694" lon="109.60902">
<time>2016-10-06T15:00:06Z</time></trkpt>
<trkpt lat="24.884484" lon="109.60898">
<time>2016-10-06T15:00:07Z</time></trkpt>
<trkpt lat="24.884394" lon="109.60894">
<time>2016-10-06T15:00:08Z</time></trkpt>
<trkpt lat="24.884324" lon="109.6089">
<time>2016-10-06T15:00:09Z</time></trkpt>
<trkpt lat="24.884134" lon="109.60876">
<time>2016-10-06T15:00:10Z</time></trkpt>
<trkpt lat="24.883915" lon="109.608481">
<time>2016-10-06T15:00:11Z</time></trkpt>
<trkpt lat="24.883835" lon="109.608381">
<time>2016-10-06T15:00:12Z</time></trkpt>
<trkpt lat="24.883795" lon="109.608341">
<time>2016-10-06T15:00:13Z</time></trkpt>
<trkpt lat="24.883755" lon="109.608311">
<time>2016-10-06T15:00:14Z</time></trkpt>
<trkpt lat="24.883745" lon="109.608301">
<time>2016-10-06T15:00:15Z</time></trkpt>
<trkpt lat="24.883625" lon="109.608261">
<time>2016-10-06T15:00:16Z</time></trkpt>
<trkpt lat="24.883175" lon="109.608221">
<time>2016-10-06T15:00:17Z</time></trkpt>
<trkpt lat="24.882665" lon="109.608061">
<time>2016-10-06T15:00:18Z</time></trkpt>
<trkpt lat="24.882325" lon="109.607911">
<time>2016-10-06T15:00:19Z</time></trkpt>
<trkpt lat="24.881865" lon="109.607731">
<time>2016-10-06T15:00:20Z</time></trkpt>
<trkpt lat="24.881186" lon="109.607482">
<time>2016-10-06T15:00:21Z</time></trkpt>
<trkpt lat="24.880786" lon="109.607242">
<time>2016-10-06T15:00:22Z</time></trkpt>
<trkpt lat="24.880246" lon="109.606942">
<time>2016-10-06T15:00:23Z</time></trkpt>
<trkpt lat="24.879636" lon="109.606742">
<time>2016-10-06T15:00:24Z</time></trkpt>
<trkpt lat="24.879406" lon="109.606662">
<time>2016-10-06T15:00:25Z</time></trkpt>
<trkpt lat="24.878446" lon="109.606653">
<time>2016-10-06T15:00:26Z</time></trkpt>
<trkpt lat="24.877946" lon="109.606653">
<time>2016-10-06T15:00:27Z</time></trkpt>
<trkpt lat="24.877517" lon="109.606523">
<time>2016-10-06T15:00:28Z</time></trkpt>
<trkpt lat="24.877097" lon="109.606493">
<time>2016-10-06T15:00:29Z</time></trkpt>
<trkpt lat="24.876777" lon="109.606483">
<time>2016-10-06T15:00:30Z</time></trkpt>
<trkpt lat="24.876727" lon="109.606493">
<time>2016-10-06T15:00:31Z</time></trkpt>
<trkpt lat="24.876617" lon="109.606433">
<time>2016-10-06T15:00:32Z</time></trkpt>
<trkpt lat="24.876367" lon="109.606273">
<time>2016-10-06T15:00:33Z</time></trkpt>
<trkpt lat="24.876327" lon="109.606223">
<time>2016-10-06T15:00:34Z</time></trkpt>
<trkpt lat="24.875857" lon="109.605603">
<time>2016-10-06T15:00:35Z</time></trkpt>
<trkpt lat="24.875518" lon="109.605094">
<time>2016-10-06T15:00:36Z</time></trkpt>
<trkpt lat="24.875178" lon="109.604494">
<time>2016-10-06T15:00:37Z</time></trkpt>
<trkpt lat="24.874978" lon="109.604214">
<time>2016-10-06T15:00:38Z</time></trkpt>
<trkpt lat="24.874848" lon="109.604045">
<time>2016-10-06T15:00:39Z</time></trkpt>
<trkpt lat="24.874528" lon="109.603885">
<time>2016-10-06T15:00:40Z</time></trkpt>
<trkpt lat="24.873759" lon="109.603565">
<time>2016-10-06T15:00:41Z</time></trkpt>
<trkpt lat="24.873099" lon="109.603305">
<time>2016-10-06T15:00:42Z</time></trkpt>
<trkpt lat="24.872619" lon="109.603225">
<time>2016-10-06T15:00:43Z</time></trkpt>
<trkpt lat="24.872479" lon="109.603215">
<time>2016-10-06T15:00:44Z</time></trkpt>
<trkpt lat="24.872339" lon="109.603215">
<time>2016-10-06T15:00:45Z</time></trkpt>
<trkpt lat="24.872189" lon="109.603105">
<time>2016-10-06T15:00:46Z</time></trkpt>
<trkpt lat="24.872119" lon="109.602995">
<time>2016-10-06T15:00:47Z</time></trkpt>
<trkpt lat="24.871919" lon="109.602616">
<time>2016-10-06T15:00:48Z</time></trkpt>
<trkpt lat="24.871839" lon="109.602456">
<time>2016-10-06T15:00:49Z</time></trkpt>
<trkpt lat="24.871769" lon="109.602416">
<time>2016-10-06T15:00:50Z</time></trkpt>
<trkpt lat="24.871479" lon="109.602316">
<time>2016-10-06T15:00:51Z</time></trkpt>
<trkpt lat="24.871309" lon="109.602156">
<time>2016-10-06T15:00:52Z</time></trkpt>
<trkpt lat="24.870999" lon="109.602056">
<time>2016-10-06T15:00:53Z</time></trkpt>
<trkpt lat="24.87084" lon="109.601996">
<time>2016-10-06T15:00:54Z</time></trkpt>
<trkpt lat="24.87078" lon="109.601966">
<time>2016-10-06T15:00:55Z</time></trkpt>
<trkpt lat="24.87075" lon="109.601926">
<time>2016-10-06T15:00:56Z</time></trkpt>
<trkpt lat="24.87071" lon="109.601846">
<time>2016-10-06T15:00:57Z</time></trkpt>
<trkpt lat="24.87066" lon="109.601776">
<time>2016-10-06T15:00:58Z</time></trkpt>
<trkpt lat="24.87033" lon="109.601666">
<time>2016-10-06T15:00:59Z</time></trkpt>
<trkpt lat="24.86982" lon="109.601496">
<time>2016-10-06T15:01:00Z</time></trkpt>
<trkpt lat="24.86956" lon="109.601447">
<time>2016-10-06T15:01:01Z</time></trkpt>
<trkpt lat="24.86945" lon="109.601417">
<time>2016-10-06T15:01:02Z</time></trkpt>
<trkpt lat="24.86932" lon="109.601397">
<time>2016-10-06T15:01:03Z</time></trkpt>
<trkpt lat="24.86918" lon="109.601447">
<time>2016-10-06T15:01:04Z</time></trkpt>
<trkpt lat="24.86902" lon="109.601556">
<time>2016-10-06T15:01:05Z</time></trkpt>
<trkpt lat="24.86857" lon="109.601776">
<time>2016-10-06T15:01:06Z</time></trkpt>
<trkpt lat="24.86824" lon="109.601806">
<time>2016-10-06T15:01:07Z</time></trkpt>
<trkpt lat="24.86811" lon="109.601826">
<time>2016-10-06T15:01:08Z</time></trkpt>
<trkpt lat="24.86709" lon="109.601816">
<time>2016-10-06T15:01:09Z</time></trkpt>
<trkpt lat="24.86631" lon="109.601956">
<time>2016-10-06T15:01:10Z</time></trkpt>
<trkpt lat="24.86547" lon="109.602166">
<time>2016-10-06T15:01:11Z</time></trkpt>
<trkpt lat="24.86427" lon="109.602216">
<time>2016-10-06T15:01:12Z</time></trkpt>
<trkpt lat="24.86373" lon="109.602146">
<time>2016-10-06T15:01:13Z</time></trkpt>
<trkpt lat="24.86352" lon="109.602136">
<time>2016-10-06T15:01:14Z</time></trkpt>
<trkpt lat="24.86348" lon="109.602116">
<time>2016-10-06T15:01:15Z</time></trkpt>
<trkpt lat="24.86341" lon="109.602087">
<time>2016-10-06T15:01:16Z</time></trkpt>
<trkpt lat="24.86319" lon="109.601937">
<time>2016-10-06T15:01:17Z</time></trkpt>
<trkpt lat="24.863041" lon="109.601887">
<time>2016-10-06T15:01:18Z</time></trkpt>
<trkpt lat="24.862971" lon="109.601887">
<time>2016-10-06T15:01:19Z</time></trkpt>
<trkpt lat="24.862741" lon="109.601857">
<time>2016-10-06T15:01:20Z</time></trkpt>
<trkpt lat="24.861911" lon="109.601957">
<time>2016-10-06T15:01:21Z</time></trkpt>
<trkpt lat="24.861661" lon="109.601987">
<time>2016-10-06T15:01:22Z</time></trkpt>
<trkpt lat="24.861271" lon="109.602117">
<time>2016-10-06T15:01:23Z</time></trkpt>
<trkpt lat="24.860911" lon="109.602117">
<time>2016-10-06T15:01:24Z</time></trkpt>
<trkpt lat="24.860451" lon="109.602107">
<time>2016-10-06T15:01:25Z</time></trkpt>
<trkpt lat="24.860421" lon="109.602117">
<time>2016-10-06T15:01:26Z</time></trkpt>
<trkpt lat="24.860341" lon="109.602197">
<time>2016-10-06T15:01:27Z</time></trkpt>
<trkpt lat="24.859451" lon="109.601567">
<time>2016-10-06T15:01:28Z</time></trkpt>
<trkpt lat="24.857931" lon="109.600768">
<time>2016-10-06T15:01:29Z</time></trkpt>
<trkpt lat="24.857502" lon="109.600538">
<time>2016-10-06T15:01:30Z</time></trkpt>
<trkpt lat="24.857402" lon="109.600458">
<time>2016-10-06T15:01:31Z</time></trkpt>
<trkpt lat="24.857272" lon="109.600428">
<time>2016-10-06T15:01:32Z</time></trkpt>
<trkpt lat="24.856802" lon="109.600478">
<time>2016-10-06T15:01:33Z</time></trkpt>
<trkpt lat="24.856662" lon="109.600478">
<time>2016-10-06T15:01:34Z</time></trkpt>
<trkpt lat="24.856472" lon="109.600478">
<time>2016-10-06T15:01:35Z</time></trkpt>
<trkpt lat="24.856292" lon="109.600468">
<time>2016-10-06T15:01:36Z</time></trkpt>
<trkpt lat="24.856112" lon="109.600358">
<time>2016-10-06T15:01:37Z</time></trkpt>
<trkpt lat="24.855982" lon="109.600338">
<time>2016-10-06T15:01:38Z</time></trkpt>
<trkpt lat="24.855832" lon="109.600378">
<time>2016-10-06T15:01:39Z</time></trkpt>
<trkpt lat="24.855722" lon="109.600438">
<time>2016-10-06T15:01:40Z</time></trkpt>
<trkpt lat="24.855612" lon="109.600468">
<time>2016-10-06T15:01:41Z</time></trkpt>
<trkpt lat="24.855342" lon="109.600418">
<time>2016-10-06T15:01:42Z</time></trkpt>
<trkpt lat="24.855072" lon="109.600358">
<time>2016-10-06T15:01:43Z</time></trkpt>
<trkpt lat="24.854662" lon="109.600248">
<time>2016-10-06T15:01:44Z</time></trkpt>
<trkpt lat="24.854532" lon="109.600188">
<time>2016-10-06T15:01:45Z</time></trkpt>
<trkpt lat="24.854022" lon="109.600198">
<time>2016-10-06T15:01:46Z</time></trkpt>
<trkpt lat="24.853932" lon="109.600208">
<time>2016-10-06T15:01:47Z</time></trkpt>
<trkpt lat="24.853852" lon="109.600238">
<time>2016-10-06T15:01:48Z</time></trkpt>
<trkpt lat="24.853772" lon="109.600258">
<time>2016-10-06T15:01:49Z</time></trkpt>
<trkpt lat="24.853682" lon="109.600258">
<time>2016-10-06T15:01:50Z</time></trkpt>
<trkpt lat="24.852572" lon="109.599908">
<time>2016-10-06T15:01:51Z</time></trkpt>
<trkpt lat="24.852532" lon="109.599868">
<time>2016-10-06T15:01:52Z</time></trkpt>
<trkpt lat="24.852482" lon="109.599798">
<time>2016-10-06T15:01:53Z</time></trkpt>
<trkpt lat="24.852392" lon="109.599678">
<time>2016-10-06T15:01:54Z</time></trkpt>
<trkpt lat="24.852103" lon="109.599429">
<time>2016-10-06T15:01:55Z</time></trkpt>
<trkpt lat="24.850703" lon="109.598899">
<time>2016-10-06T15:01:56Z</time></trkpt>
<trkpt lat="24.850403" lon="109.598769">
<time>2016-10-06T15:01:57Z</time></trkpt>
<trkpt lat="24.850263" lon="109.598759">
<time>2016-10-06T15:01:58Z</time></trkpt>
<trkpt lat="24.850033" lon="109.598809">
<time>2016-10-06T15:01:59Z</time></trkpt>
<trkpt lat="24.849813" lon="109.598879">
<time>2016-10-06T15:02:00Z</time></trkpt>
<trkpt lat="24.849503" lon="109.599009">
<time>2016-10-06T15:02:01Z</time></trkpt>
<trkpt lat="24.848653" lon="109.599079">
<time>2016-10-06T15:02:02Z</time></trkpt>
<trkpt lat="24.848173" lon="109.599069">
<time>2016-10-06T15:02:03Z</time></trkpt>
<trkpt lat="24.848113" lon="109.599079">
<time>2016-10-06T15:02:04Z</time></trkpt>
<trkpt lat="24.848023" lon="109.599119">
<time>2016-10-06T15:02:05Z</time></trkpt>
<trkpt lat="24.847083" lon="109.599169">
<time>2016-10-06T15:02:06Z</time></trkpt>
<trkpt lat="24.847003" lon="109.599179">
<time>2016-10-06T15:02:07Z</time></trkpt>
<trkpt lat="24.846933" lon="109.599189">
<time>2016-10-06T15:02:08Z</time></trkpt>
<trkpt lat="24.846783" lon="109.599249">
<time>2016-10-06T15:02:09Z</time></trkpt>
<trkpt lat="24.846733" lon="109.599259">
<time>2016-10-06T15:02:10Z</time></trkpt>
<trkpt lat="24.846533" lon="109.599229">
<time>2016-10-06T15:02:11Z</time></trkpt>
<trkpt lat="24.846053" lon="109.599059">
<time>2016-10-06T15:02:12Z</time></trkpt>
<trkpt lat="24.845703" lon="109.598989">
<time>2016-10-06T15:02:13Z</time></trkpt>
<trkpt lat="24.845633" lon="109.598989">
<time>2016-10-06T15:02:14Z</time></trkpt>
<trkpt lat="24.845433" lon="109.599099">
<time>2016-10-06T15:02:15Z</time></trkpt>
<trkpt lat="24.845103" lon="109.599179">
<time>2016-10-06T15:02:16Z</time></trkpt>
<trkpt lat="24.844553" lon="109.599229">
<time>2016-10-06T15:02:17Z</time></trkpt>
<trkpt lat="24.843994" lon="109.599289">
<time>2016-10-06T15:02:18Z</time></trkpt>
<trkpt lat="24.843934" lon="109.599259">
<time>2016-10-06T15:02:19Z</time></trkpt>
<trkpt lat="24.843664" lon="109.599089">
<time>2016-10-06T15:02:20Z</time></trkpt>
<trkpt lat="24.843474" lon="109.598939">
<time>2016-10-06T15:02:21Z</time></trkpt>
<trkpt lat="24.843354" lon="109.598879">
<time>2016-10-06T15:02:22Z</time></trkpt>
<trkpt lat="24.843314" lon="109.598839">
<time>2016-10-06T15:02:23Z</time></trkpt>
<trkpt lat="24.842484" lon="109.598839">
<time>2016-10-06T15:02:24Z</time></trkpt>
<trkpt lat="24.842394" lon="109.598829">
<time>2016-10-06T15:02:25Z</time></trkpt>
<trkpt lat="24.842134" lon="109.598629">
<time>2016-10-06T15:02:26Z</time></trkpt>
<trkpt lat="24.841944" lon="109.59855">
<time>2016-10-06T15:02:27Z</time></trkpt>
<trkpt lat="24.841364" lon="109.59851">
<time>2016-10-06T15:02:28Z</time></trkpt>
<trkpt lat="24.839854" lon="109.5981">
<time>2016-10-06T15:02:29Z</time></trkpt>
<trkpt lat="24.839524" lon="109.59799">
<time>2016-10-06T15:02:30Z</time></trkpt>
<trkpt lat="24.839404" lon="109.59798">
<time>2016-10-06T15:02:31Z</time></trkpt>
<trkpt lat="24.838944" lon="109.59808">
<time>2016-10-06T15:02:32Z</time></trkpt>
<trkpt lat="24.838814" lon="109.59808">
<time>2016-10-06T15:02:33Z</time></trkpt>
<trkpt lat="24.838734" lon="109.59809">
<time>2016-10-06T15:02:34Z</time></trkpt>
<trkpt lat="24.838554" lon="109.59813">
<time>2016-10-06T15:02:35Z</time></trkpt>
<trkpt lat="24.838284" lon="109.59815">
<time>2016-10-06T15:02:36Z</time></trkpt>
<trkpt lat="24.837954" lon="109.59812">
<time>2016-10-06T15:02:37Z</time></trkpt>
<trkpt lat="24.837685" lon="109.59804">
<time>2016-10-06T15:02:38Z</time></trkpt>
<trkpt lat="24.837435" lon="109.59801">
<time>2016-10-06T15:02:39Z</time></trkpt>
<trkpt lat="24.837365" lon="109.59801">
<time>2016-10-06T15:02:40Z</time></trkpt>
<trkpt lat="24.837315" lon="109.59804">
<time>2016-10-06T15:02:41Z</time></trkpt>
<trkpt lat="24.837255" lon="109.59811">
<time>2016-10-06T15:02:42Z</time></trkpt>
<trkpt lat="24.837205" lon="109.59814">
<time>2016-10-06T15:02:43Z</time></trkpt>
<trkpt lat="24.837155" lon="109.59815">
<time>2016-10-06T15:02:44Z</time></trkpt>
<trkpt lat="24.836645" lon="109.5981">
<time>2016-10-06T15:02:45Z</time></trkpt>
<trkpt lat="24.836465" lon="109.59804">
<time>2016-10-06T15:02:46Z</time></trkpt>
<trkpt lat="24.836415" lon="109.59804">
<time>2016-10-06T15:02:47Z</time></trkpt>
<trkpt lat="24.836385" lon="109.59804">
<time>2016-10-06T15:02:48Z</time></trkpt>
<trkpt lat="24.836345" lon="109.59805">
<time>2016-10-06T15:02:49Z</time></trkpt>
<trkpt lat="24.836265" lon="109.59803">
<time>2016-10-06T15:02:50Z</time></trkpt>
<trkpt lat="24.836045" lon="109.59795">
<time>2016-10-06T15:02:51Z</time></trkpt>
<trkpt lat="24.835895" lon="109.59793">
<time>2016-10-06T15:02:52Z</time></trkpt>
<trkpt lat="24.835805" lon="109.59791">
<time>2016-10-06T15:02:53Z</time></trkpt>
<trkpt lat="24.835755" lon="109.59786">
<time>2016-10-06T15:02:54Z</time></trkpt>
<trkpt lat="24.835685" lon="109.59777">
<time>2016-10-06T15:02:55Z</time></trkpt>
<trkpt lat="24.835615" lon="109.59774">
<time>2016-10-06T15:02:56Z</time></trkpt>
<trkpt lat="24.835505" lon="109.59775">
<time>2016-10-06T15:02:57Z</time></trkpt>
<trkpt lat="24.834765" lon="109.5974">
<time>2016-10-06T15:02:58Z</time></trkpt>
<trkpt lat="24.834405" lon="109.59731">
<time>2016-10-06T15:02:59Z</time></trkpt>
<trkpt lat="24.834375" lon="109.59731">
<time>2016-10-06T15:03:00Z</time></trkpt>
<trkpt lat="24.834255" lon="109.59736">
<time>2016-10-06T15:03:01Z</time></trkpt>
<trkpt lat="24.833745" lon="109.59739">
<time>2016-10-06T15:03:02Z</time></trkpt>
<trkpt lat="24.833405" lon="109.59738">
<time>2016-10-06T15:03:03Z</time></trkpt>
<trkpt lat="24.833345" lon="109.59737">
<time>2016-10-06T15:03:04Z</time></trkpt>
<trkpt lat="24.833335" lon="109.59737">
<time>2016-10-06T15:03:05Z</time></trkpt>
<trkpt lat="24.833285" lon="109.59736">
<time>2016-10-06T15:03:06Z</time></trkpt>
<trkpt lat="24.833185" lon="109.597321">
<time>2016-10-06T15:03:07Z</time></trkpt>
<trkpt lat="24.832945" lon="109.597181">
<time>2016-10-06T15:03:08Z</time></trkpt>
<trkpt lat="24.832805" lon="109.597091">
<time>2016-10-06T15:03:09Z</time></trkpt>
<trkpt lat="24.832665" lon="109.597031">
<time>2016-10-06T15:03:10Z</time></trkpt>
<trkpt lat="24.832515" lon="109.596941">
<time>2016-10-06T15:03:11Z</time></trkpt>
<trkpt lat="24.832395" lon="109.596871">
<time>2016-10-06T15:03:12Z</time></trkpt>
<trkpt lat="24.832325" lon="109.596821">
<time>2016-10-06T15:03:13Z</time></trkpt>
<trkpt lat="24.832295" lon="109.596791">
<time>2016-10-06T15:03:14Z</time></trkpt>
<trkpt lat="24.832245" lon="109.596701">
<time>2016-10-06T15:03:15Z</time></trkpt>
<trkpt lat="24.832225" lon="109.596651">
<time>2016-10-06T15:03:16Z</time></trkpt>
<trkpt lat="24.832175" lon="109.596501">
<time>2016-10-06T15:03:17Z</time></trkpt>
<trkpt lat="24.832155" lon="109.596441">
<time>2016-10-06T15:03:18Z</time></trkpt>
<trkpt lat="24.832135" lon="109.596391">
<time>2016-10-06T15:03:19Z</time></trkpt>
<trkpt lat="24.832125" lon="109.596381">
<time>2016-10-06T15:03:20Z</time></trkpt>
<trkpt lat="24.832065" lon="109.596311">
<time>2016-10-06T15:03:21Z</time></trkpt>
<trkpt lat="24.832035" lon="109.596271">
<time>2016-10-06T15:03:22Z</time></trkpt>
<trkpt lat="24.831985" lon="109.596241">
<time>2016-10-06T15:03:23Z</time></trkpt>
<trkpt lat="24.831875" lon="109.596191">
<time>2016-10-06T15:03:24Z</time></trkpt>
<trkpt lat="24.831765" lon="109.596131">
<time>2016-10-06T15:03:25Z</time></trkpt>
<trkpt lat="24.831575" lon="109.596031">
<time>2016-10-06T15:03:26Z</time></trkpt>
<trkpt lat="24.831565" lon="109.596031">
<time>2016-10-06T15:03:27Z</time></trkpt>
<trkpt lat="24.831236" lon="109.595871">
<time>2016-10-06T15:03:28Z</time></trkpt>
<trkpt lat="24.831076" lon="109.595781">
<time>2016-10-06T15:03:29Z</time></trkpt>
<trkpt lat="24.830946" lon="109.595731">
<time>2016-10-06T15:03:30Z</time></trkpt>
<trkpt lat="24.830826" lon="109.595721">
<time>2016-10-06T15:03:31Z</time></trkpt>
<trkpt lat="24.830796" lon="109.595731">
<time>2016-10-06T15:03:32Z</time></trkpt>
<trkpt lat="24.830766" lon="109.595731">
<time>2016-10-06T15:03:33Z</time></trkpt>
<trkpt lat="24.830726" lon="109.595751">
<time>2016-10-06T15:03:34Z</time></trkpt>
<trkpt lat="24.830716" lon="109.595751">
<time>2016-10-06T15:03:35Z</time></trkpt>
<trkpt lat="24.830696" lon="109.595771">
<time>2016-10-06T15:03:36Z</time></trkpt>
<trkpt lat="24.830676" lon="109.595801">
<time>2016-10-06T15:03:37Z</time></trkpt>
<trkpt lat="24.830636" lon="109.595861">
<time>2016-10-06T15:03:38Z</time></trkpt>
<trkpt lat="24.830566" lon="109.595991">
<time>2016-10-06T15:03:39Z</time></trkpt>
<trkpt lat="24.830526" lon="109.596061">
<time>2016-10-06T15:03:40Z</time></trkpt>
<trkpt lat="24.830486" lon="109.596101">
<time>2016-10-06T15:03:41Z</time></trkpt>
<trkpt lat="24.830486" lon="109.596111">
<time>2016-10-06T15:03:42Z</time></trkpt>
<trkpt lat="24.830416" lon="109.596151">
<time>2016-10-06T15:03:43Z</time></trkpt>
<trkpt lat="24.830336" lon="109.596211">
<time>2016-10-06T15:03:44Z</time></trkpt>
<trkpt lat="24.830266" lon="109.596261">
<time>2016-10-06T15:03:45Z</time></trkpt>
<trkpt lat="24.830226" lon="109.596271">
<time>2016-10-06T15:03:46Z</time></trkpt>
<trkpt lat="24.830176" lon="109.596271">
<time>2016-10-06T15:03:47Z</time></trkpt>
<trkpt lat="24.830106" lon="109.596251">
<time>2016-10-06T15:03:48Z</time></trkpt>
<trkpt lat="24.830086" lon="109.596241">
<time>2016-10-06T15:03:49Z</time></trkpt>
<trkpt lat="24.830016" lon="109.596231">
<time>2016-10-06T15:03:50Z</time></trkpt>
<trkpt lat="24.829926" lon="109.596231">
<time>2016-10-06T15:03:51Z</time></trkpt>
<trkpt lat="24.829906" lon="109.596231">
<time>2016-10-06T15:03:52Z</time></trkpt>
<trkpt lat="24.829856" lon="109.596241">
<time>2016-10-06T15:03:53Z</time></trkpt>
<trkpt lat="24.829816" lon="109.596261">
<time>2016-10-06T15:03:54Z</time></trkpt>
<trkpt lat="24.829716" lon="109.596341">
<time>2016-10-06T15:03:55Z</time></trkpt>
<trkpt lat="24.829646" lon="109.596411">
<time>2016-10-06T15:03:56Z</time></trkpt>
<trkpt lat="24.829616" lon="109.596451">
<time>2016-10-06T15:03:57Z</time></trkpt>
<trkpt lat="24.829566" lon="109.596501">
<time>2016-10-06T15:03:58Z</time></trkpt>
<trkpt lat="24.829546" lon="109.596511">
<time>2016-10-06T15:03:59Z</time></trkpt>
<trkpt lat="24.829486" lon="109.596571">
<time>2016-10-06T15:04:00Z</time></trkpt>
<trkpt lat="24.829446" lon="109.596601">
<time>2016-10-06T15:04:01Z</time></trkpt>
<trkpt lat="24.829396" lon="109.596611">
<time>2016-10-06T15:04:02Z</time></trkpt>
<trkpt lat="24.829316" lon="109.596631">
<time>2016-10-06T15:04:03Z</time></trkpt>
<trkpt lat="24.829266" lon="109.596641">
<time>2016-10-06T15:04:04Z</time></trkpt>
<trkpt lat="24.829146" lon="109.596661">
<time>2016-10-06T15:04:05Z</time></trkpt>
<trkpt lat="24.829086" lon="109.596681">
<time>2016-10-06T15:04:06Z</time></trkpt>
<trkpt lat="24.829056" lon="109.596681">
<time>2016-10-06T15:04:07Z</time></trkpt>
<trkpt lat="24.829046" lon="109.596681">
<time>2016-10-06T15:04:08Z</time></trkpt>
<trkpt lat="24.829026" lon="109.596671">
<time>2016-10-06T15:04:09Z</time></trkpt>
<trkpt lat="24.829006" lon="109.596651">
<time>2016-10-06T15:04:10Z</time></trkpt>
<trkpt lat="24.828946" lon="109.596571">
<time>2016-10-06T15:04:11Z</time></trkpt>
<trkpt lat="24.828906" lon="109.596511">
<time>2016-10-06T15:04:12Z</time></trkpt>
<trkpt lat="24.828816" lon="109.596451">
<time>2016-10-06T15:04:13Z</time></trkpt>
<trkpt lat="24.828726" lon="109.596391">
<time>2016-10-06T15:04:14Z</time></trkpt>
<trkpt lat="24.828676" lon="109.596341">
<time>2016-10-06T15:04:15Z</time></trkpt>
<trkpt lat="24.828606" lon="109.596261">
<time>2016-10-06T15:04:16Z</time></trkpt>
<trkpt lat="24.828496" lon="109.596111">
<time>2016-10-06T15:04:17Z</time></trkpt>
<trkpt lat="24.828466" lon="109.596071">
<time>2016-10-06T15:04:18Z</time></trkpt>
<trkpt lat="24.828416" lon="109.596021">
<time>2016-10-06T15:04:19Z</time></trkpt>
<trkpt lat="24.828356" lon="109.595991">
<time>2016-10-06T15:04:20Z</time></trkpt>
<trkpt lat="24.828306" lon="109.595971">
<time>2016-10-06T15:04:21Z</time></trkpt>
<trkpt lat="24.828266" lon="109.595951">
<time>2016-10-06T15:04:22Z</time></trkpt>
<trkpt lat="24.828216" lon="109.595901">
<time>2016-10-06T15:04:23Z</time></trkpt>
<trkpt lat="24.828146" lon="109.595841">
<time>2016-10-06T15:04:24Z</time></trkpt>
<trkpt lat="24.828046" lon="109.595761">
<time>2016-10-06T15:04:25Z</time></trkpt>
<trkpt lat="24.827966" lon="109.595721">
<time>2016-10-06T15:04:26Z</time></trkpt>
<trkpt lat="24.827926" lon="109.595711">
<time>2016-10-06T15:04:27Z</time></trkpt>
<trkpt lat="24.827816" lon="109.595691">
<time>2016-10-06T15:04:28Z</time></trkpt>
<trkpt lat="24.827736" lon="109.595681">
<time>2016-10-06T15:04:29Z</time></trkpt>
<trkpt lat="24.827686" lon="109.595661">
<time>2016-10-06T15:04:30Z</time></trkpt>
<trkpt lat="24.827596" lon="109.595611">
<time>2016-10-06T15:04:31Z</time></trkpt>
<trkpt lat="24.827536" lon="109.595581">
<time>2016-10-06T15:04:32Z</time></trkpt>
<trkpt lat="24.827456" lon="109.595541">
<time>2016-10-06T15:04:33Z</time></trkpt>
<trkpt lat="24.827256" lon="109.595451">
<time>2016-10-06T15:04:34Z</time></trkpt>
<trkpt lat="24.827106" lon="109.595381">
<time>2016-10-06T15:04:35Z</time></trkpt>
<trkpt lat="24.826786" lon="109.595272">
<time>2016-10-06T15:04:36Z</time></trkpt>
<trkpt lat="24.826636" lon="109.595192">
<time>2016-10-06T15:04:37Z</time></trkpt>
<trkpt lat="24.826576" lon="109.595152">
<time>2016-10-06T15:04:38Z</time></trkpt>
<trkpt lat="24.826486" lon="109.595092">
<time>2016-10-06T15:04:39Z</time></trkpt>
<trkpt lat="24.826426" lon="109.595062">
<time>2016-10-06T15:04:40Z</time></trkpt>
<trkpt lat="24.826376" lon="109.595062">
<time>2016-10-06T15:04:41Z</time></trkpt>
<trkpt lat="24.826296" lon="109.595052">
<time>2016-10-06T15:04:42Z</time></trkpt>
<trkpt lat="24.826226" lon="109.595052">
<time>2016-10-06T15:04:43Z</time></trkpt>
<trkpt lat="24.826016" lon="109.595082">
<time>2016-10-06T15:04:44Z</time></trkpt>
<trkpt lat="24.825876" lon="109.595082">
<time>2016-10-06T15:04:45Z</time></trkpt>
<trkpt lat="24.825776" lon="109.595052">
<time>2016-10-06T15:04:46Z</time></trkpt>
<trkpt lat="24.825726" lon="109.595012">
<time>2016-10-06T15:04:47Z</time></trkpt>
<trkpt lat="24.825636" lon="109.594912">
<time>2016-10-06T15:04:48Z</time></trkpt>
<trkpt lat="24.825576" lon="109.594832">
<time>2016-10-06T15:04:49Z</time></trkpt>
<trkpt lat="24.825556" lon="109.594822">
<time>2016-10-06T15:04:50Z</time></trkpt>
<trkpt lat="24.825546" lon="109.594812">
<time>2016-10-06T15:04:51Z</time></trkpt>
<trkpt lat="24.825506" lon="109.594792">
<time>2016-10-06T15:04:52Z</time></trkpt>
<trkpt lat="24.825446" lon="109.594772">
<time>2016-10-06T15:04:53Z</time></trkpt>
<trkpt lat="24.825346" lon="109.594722">
<time>2016-10-06T15:04:54Z</time></trkpt>
<trkpt lat="24.825116" lon="109.594632">
<time>2016-10-06T15:04:55Z</time></trkpt>
<trkpt lat="24.824826" lon="109.594472">
<time>2016-10-06T15:04:56Z</time></trkpt>
<trkpt lat="24.824806" lon="109.594462">
<time>2016-10-06T15:04:57Z</time></trkpt>
<trkpt lat="24.824716" lon="109.594332">
<time>2016-10-06T15:04:58Z</time></trkpt>
<trkpt lat="24.824586" lon="109.594152">
<time>2016-10-06T15:04:59Z</time></trkpt>
<trkpt lat="24.824576" lon="109.594142">
<time>2016-10-06T15:05:00Z</time></trkpt>
<trkpt lat="24.824476" lon="109.594032">
<time>2016-10-06T15:05:01Z</time></trkpt>
<trkpt lat="24.824356" lon="109.593922">
<time>2016-10-06T15:05:02Z</time></trkpt>
<trkpt lat="24.824276" lon="109.593862">
<time>2016-10-06T15:05:03Z</time></trkpt>
<trkpt lat="24.824186" lon="109.593822">
<time>2016-10-06T15:05:04Z</time></trkpt>
<trkpt lat="24.824116" lon="109.593802">
<time>2016-10-06T15:05:05Z</time></trkpt>
<trkpt lat="24.824096" lon="109.593802">
<time>2016-10-06T15:05:06Z</time></trkpt>
<trkpt lat="24.824006" lon="109.593812">
<time>2016-10-06T15:05:07Z</time></trkpt>
<trkpt lat="24.823866" lon="109.593822">
<time>2016-10-06T15:05:08Z</time></trkpt>
<trkpt lat="24.823706" lon="109.593862">
<time>2016-10-06T15:05:09Z</time></trkpt>
<trkpt lat="24.823696" lon="109.593862">
<time>2016-10-06T15:05:10Z</time></trkpt>
<trkpt lat="24.823576" lon="109.593872">
<time>2016-10-06T15:05:11Z</time></trkpt>
<trkpt lat="24.823536" lon="109.593872">
<time>2016-10-06T15:05:12Z</time></trkpt>
<trkpt lat="24.823447" lon="109.593822">
<time>2016-10-06T15:05:13Z</time></trkpt>
<trkpt lat="24.823337" lon="109.593752">
<time>2016-10-06T15:05:14Z</time></trkpt>
<trkpt lat="24.823217" lon="109.593672">
<time>2016-10-06T15:05:15Z</time></trkpt>
<trkpt lat="24.823177" lon="109.593612">
<time>2016-10-06T15:05:16Z</time></trkpt>
<trkpt lat="24.823057" lon="109.593442">
<time>2016-10-06T15:05:17Z</time></trkpt>
<trkpt lat="24.822867" lon="109.593212">
<time>2016-10-06T15:05:18Z</time></trkpt>
<trkpt lat="24.822787" lon="109.593102">
<time>2016-10-06T15:05:19Z</time></trkpt>
<trkpt lat="24.822727" lon="109.592962">
<time>2016-10-06T15:05:20Z</time></trkpt>
<trkpt lat="24.822627" lon="109.592792">
<time>2016-10-06T15:05:21Z</time></trkpt>
<trkpt lat="24.822567" lon="109.592712">
<time>2016-10-06T15:05:22Z</time></trkpt>
<trkpt lat="24.822537" lon="109.592692">
<time>2016-10-06T15:05:23Z</time></trkpt>
<trkpt lat="24.822517" lon="109.592672">
<time>2016-10-06T15:05:24Z</time></trkpt>
<trkpt lat="24.822477" lon="109.592642">
<time>2016-10-06T15:05:25Z</time></trkpt>
<trkpt lat="24.822437" lon="109.592612">
<time>2016-10-06T15:05:26Z</time></trkpt>
<trkpt lat="24.822427" lon="109.592612">
<time>2016-10-06T15:05:27Z</time></trkpt>
<trkpt lat="24.822167" lon="109.592452">
<time>2016-10-06T15:05:28Z</time></trkpt>
<trkpt lat="24.822027" lon="109.592382">
<time>2016-10-06T15:05:29Z</time></trkpt>
<trkpt lat="24.821877" lon="109.592292">
<time>2016-10-06T15:05:30Z</time></trkpt>
<trkpt lat="24.821827" lon="109.592272">
<time>2016-10-06T15:05:31Z</time></trkpt>
<trkpt lat="24.821757" lon="109.592252">
<time>2016-10-06T15:05:32Z</time></trkpt>
<trkpt lat="24.821587" lon="109.592212">
<time>2016-10-06T15:05:33Z</time></trkpt>
<trkpt lat="24.821357" lon="109.592112">
<time>2016-10-06T15:05:34Z</time></trkpt>
<trkpt lat="24.821307" lon="109.592072">
<time>2016-10-06T15:05:35Z</time></trkpt>
<trkpt lat="24.821297" lon="109.592062">
<time>2016-10-06T15:05:36Z</time></trkpt>
<trkpt lat="24.821287" lon="109.592042">
<time>2016-10-06T15:05:37Z</time></trkpt>
<trkpt lat="24.821277" lon="109.592022">
<time>2016-10-06T15:05:38Z</time></trkpt>
<trkpt lat="24.821277" lon="109.591972">
<time>2016-10-06T15:05:39Z</time></trkpt>
<trkpt lat="24.821297" lon="109.591912">
<time>2016-10-06T15:05:40Z</time></trkpt>
<trkpt lat="24.821327" lon="109.591812">
<time>2016-10-06T15:05:41Z</time></trkpt>
<trkpt lat="24.821337" lon="109.591762">
<time>2016-10-06T15:05:42Z</time></trkpt>
<trkpt lat="24.821327" lon="109.591702">
<time>2016-10-06T15:05:43Z</time></trkpt>
<trkpt lat="24.821327" lon="109.591633">
<time>2016-10-06T15:05:44Z</time></trkpt>
<trkpt lat="24.821307" lon="109.591573">
<time>2016-10-06T15:05:45Z</time></trkpt>
<trkpt lat="24.821277" lon="109.591523">
<time>2016-10-06T15:05:46Z</time></trkpt>
<trkpt lat="24.821237" lon="109.591463">
<time>2016-10-06T15:05:47Z</time></trkpt>
<trkpt lat="24.821167" lon="109.591393">
<time>2016-10-06T15:05:48Z</time></trkpt>
<trkpt lat="24.821117" lon="109.591333">
<time>2016-10-06T15:05:49Z</time></trkpt>
<trkpt lat="24.821107" lon="109.591313">
<time>2016-10-06T15:05:50Z</time></trkpt>
<trkpt lat="24.821087" lon="109.591263">
<time>2016-10-06T15:05:51Z</time></trkpt>
<trkpt lat="24.821077" lon="109.591203">
<time>2016-10-06T15:05:52Z</time></trkpt>
<trkpt lat="24.821077" lon="109.591173">
<time>2016-10-06T15:05:53Z</time></trkpt>
<trkpt lat="24.821067" lon="109.591053">
<time>2016-10-06T15:05:54Z</time></trkpt>
<trkpt lat="24.821067" lon="109.591013">
<time>2016-10-06T15:05:55Z</time></trkpt>
<trkpt lat="24.821067" lon="109.590973">
<time>2016-10-06T15:05:56Z</time></trkpt>
<trkpt lat="24.821077" lon="109.590933">
<time>2016-10-06T15:05:57Z</time></trkpt>
<trkpt lat="24.821127" lon="109.590883">
<time>2016-10-06T15:05:58Z</time></trkpt>
<trkpt lat="24.821167" lon="109.590853">
<time>2016-10-06T15:05:59Z</time></trkpt>
<trkpt lat="24.821207" lon="109.590823">
<time>2016-10-06T15:06:00Z</time></trkpt>
<trkpt lat="24.821337" lon="109.590773">
<time>2016-10-06T15:06:01Z</time></trkpt>
<trkpt lat="24.821447" lon="109.590743">
<time>2016-10-06T15:06:02Z</time></trkpt>
<trkpt lat="24.821617" lon="109.590723">
<time>2016-10-06T15:06:03Z</time></trkpt>
<trkpt lat="24.821637" lon="109.590723">
<time>2016-10-06T15:06:04Z</time></trkpt>
<trkpt lat="24.821767" lon="109.590733">
<time>2016-10-06T15:06:05Z</time></trkpt>
<trkpt lat="24.822056" lon="109.590783">
<time>2016-10-06T15:06:06Z</time></trkpt>
<trkpt lat="24.822166" lon="109.590803">
<time>2016-10-06T15:06:07Z</time></trkpt>
<trkpt lat="24.822316" lon="109.590813">
<time>2016-10-06T15:06:08Z</time></trkpt>
<trkpt lat="24.822336" lon="109.590813">
<time>2016-10-06T15:06:09Z</time></trkpt>
<trkpt lat="24.822386" lon="109.590803">
<time>2016-10-06T15:06:10Z</time></trkpt>
<trkpt lat="24.822426" lon="109.590782">
<time>2016-10-06T15:06:11Z</time></trkpt>
<trkpt lat="24.822486" lon="109.590752">
<time>2016-10-06T15:06:12Z</time></trkpt>
<trkpt lat="24.822506" lon="109.590702">
<time>2016-10-06T15:06:13Z</time></trkpt>
<trkpt lat="24.822546" lon="109.590603">
<time>2016-10-06T15:06:14Z</time></trkpt>
<trkpt lat="24.822556" lon="109.590583">
<time>2016-10-06T15:06:15Z</time></trkpt>
<trkpt lat="24.822636" lon="109.590233">
<time>2016-10-06T15:06:16Z</time></trkpt>
<trkpt lat="24.822696" lon="109.590023">
<time>2016-10-06T15:06:17Z</time></trkpt>
<trkpt lat="24.822746" lon="109.589933">
<time>2016-10-06T15:06:18Z</time></trkpt>
<trkpt lat="24.822766" lon="109.589873">
<time>2016-10-06T15:06:19Z</time></trkpt>
<trkpt lat="24.822786" lon="109.589793">
<time>2016-10-06T15:06:20Z</time></trkpt>
<trkpt lat="24.822816" lon="109.589733">
<time>2016-10-06T15:06:21Z</time></trkpt>
<trkpt lat="24.822866" lon="109.589693">
<time>2016-10-06T15:06:22Z</time></trkpt>
<trkpt lat="24.822916" lon="109.589652">
<time>2016-10-06T15:06:23Z</time></trkpt>
<trkpt lat="24.823086" lon="109.589482">
<time>2016-10-06T15:06:24Z</time></trkpt>
<trkpt lat="24.823196" lon="109.589362">
<time>2016-10-06T15:06:25Z</time></trkpt>
<trkpt lat="24.823276" lon="109.589262">
<time>2016-10-06T15:06:26Z</time></trkpt>
<trkpt lat="24.823406" lon="109.589122">
<time>2016-10-06T15:06:27Z</time></trkpt>
<trkpt lat="24.823426" lon="109.589092">
<time>2016-10-06T15:06:28Z</time></trkpt>
<trkpt lat="24.823436" lon="109.589052">
<time>2016-10-06T15:06:29Z</time></trkpt>
<trkpt lat="24.823446" lon="109.589012">
<time>2016-10-06T15:06:30Z</time></trkpt>
<trkpt lat="24.823446" lon="109.588982">
<time>2016-10-06T15:06:31Z</time></trkpt>
<trkpt lat="24.823446" lon="109.588932">
<time>2016-10-06T15:06:32Z</time></trkpt>
<trkpt lat="24.823446" lon="109.588842">
<time>2016-10-06T15:06:33Z</time></trkpt>
<trkpt lat="24.823446" lon="109.588812">
<time>2016-10-06T15:06:34Z</time></trkpt>
<trkpt lat="24.823436" lon="109.588762">
<time>2016-10-06T15:06:35Z</time></trkpt>
<trkpt lat="24.823416" lon="109.588672">
<time>2016-10-06T15:06:36Z</time></trkpt>
<trkpt lat="24.823416" lon="109.588642">
<time>2016-10-06T15:06:37Z</time></trkpt>
<trkpt lat="24.823426" lon="109.588602">
<time>2016-10-06T15:06:38Z</time></trkpt>
<trkpt lat="24.823436" lon="109.588572">
<time>2016-10-06T15:06:39Z</time></trkpt>
<trkpt lat="24.823476" lon="109.588502">
<time>2016-10-06T15:06:40Z</time></trkpt>
<trkpt lat="24.823496" lon="109.588482">
<time>2016-10-06T15:06:41Z</time></trkpt>
<trkpt lat="24.823566" lon="109.588412">
<time>2016-10-06T15:06:42Z</time></trkpt>
<trkpt lat="24.823606" lon="109.588362">
<time>2016-10-06T15:06:43Z</time></trkpt>
<trkpt lat="24.823626" lon="109.588342">
<time>2016-10-06T15:06:44Z</time></trkpt>
<trkpt lat="24.823636" lon="109.588322">
<time>2016-10-06T15:06:45Z</time></trkpt>
<trkpt lat="24.823636" lon="109.588222">
<time>2016-10-06T15:06:46Z</time></trkpt>
<trkpt lat="24.823636" lon="109.588092">
<time>2016-10-06T15:06:47Z</time></trkpt>
<trkpt lat="24.823646" lon="109.588052">
<time>2016-10-06T15:06:48Z</time></trkpt>
<trkpt lat="24.823656" lon="109.587722">
<time>2016-10-06T15:06:49Z</time></trkpt>
<trkpt lat="24.823626" lon="109.587282">
<time>2016-10-06T15:06:50Z</time></trkpt>
<trkpt lat="24.823616" lon="109.587232">
<time>2016-10-06T15:06:51Z</time></trkpt>
<trkpt lat="24.823596" lon="109.587182">
<time>2016-10-06T15:06:52Z</time></trkpt>
<trkpt lat="24.823566" lon="109.587122">
<time>2016-10-06T15:06:53Z</time></trkpt>
<trkpt lat="24.823546" lon="109.587072">
<time>2016-10-06T15:06:54Z</time></trkpt>
<trkpt lat="24.823536" lon="109.587022">
<time>2016-10-06T15:06:55Z</time></trkpt>
<trkpt lat="24.823536" lon="109.586962">
<time>2016-10-06T15:06:56Z</time></trkpt>
<trkpt lat="24.823536" lon="109.586922">
<time>2016-10-06T15:06:57Z</time></trkpt>
<trkpt lat="24.823546" lon="109.586902">
<time>2016-10-06T15:06:58Z</time></trkpt>
<trkpt lat="24.823566" lon="109.586822">
<time>2016-10-06T15:06:59Z</time></trkpt>
<trkpt lat="24.823585" lon="109.586722">
<time>2016-10-06T15:07:00Z</time></trkpt>
<trkpt lat="24.823585" lon="109.586602">
<time>2016-10-06T15:07:01Z</time></trkpt>
<trkpt lat="24.823575" lon="109.586432">
<time>2016-10-06T15:07:02Z</time></trkpt>
<trkpt lat="24.823545" lon="109.586312">
<time>2016-10-06T15:07:03Z</time></trkpt>
<trkpt lat="24.823525" lon="109.586272">
<time>2016-10-06T15:07:04Z</time></trkpt>
<trkpt lat="24.823495" lon="109.586222">
<time>2016-10-06T15:07:05Z</time></trkpt>
<trkpt lat="24.823475" lon="109.586202">
<time>2016-10-06T15:07:06Z</time></trkpt>
<trkpt lat="24.823405" lon="109.586062">
<time>2016-10-06T15:07:07Z</time></trkpt>
<trkpt lat="24.823315" lon="109.585802">
<time>2016-10-06T15:07:08Z</time></trkpt>
<trkpt lat="24.823255" lon="109.585562">
<time>2016-10-06T15:07:09Z</time></trkpt>
<trkpt lat="24.823245" lon="109.585552">
<time>2016-10-06T15:07:10Z</time></trkpt>
<trkpt lat="24.823205" lon="109.585372">
<time>2016-10-06T15:07:11Z</time></trkpt>
<trkpt lat="24.823205" lon="109.585302">
<time>2016-10-06T15:07:12Z</time></trkpt>
<trkpt lat="24.823215" lon="109.585172">
<time>2016-10-06T15:07:13Z</time></trkpt>
<trkpt lat="24.823245" lon="109.585072">
<time>2016-10-06T15:07:14Z</time></trkpt>
<trkpt lat="24.823275" lon="109.584982">
<time>2016-10-06T15:07:15Z</time></trkpt>
<trkpt lat="24.823275" lon="109.584942">
<time>2016-10-06T15:07:16Z</time></trkpt>
<trkpt lat="24.823275" lon="109.584902">
<time>2016-10-06T15:07:17Z</time></trkpt>
<trkpt lat="24.823155" lon="109.584732">
<time>2016-10-06T15:07:18Z</time></trkpt>
<trkpt lat="24.822765" lon="109.584262">
<time>2016-10-06T15:07:19Z</time></trkpt>
<trkpt lat="24.822575" lon="109.584032">
<time>2016-10-06T15:07:20Z</time></trkpt>
<trkpt lat="24.822475" lon="109.583972">
<time>2016-10-06T15:07:21Z</time></trkpt>
<trkpt lat="24.822355" lon="109.583922">
<time>2016-10-06T15:07:22Z</time></trkpt>
<trkpt lat="24.822235" lon="109.583862">
<time>2016-10-06T15:07:23Z</time></trkpt>
<trkpt lat="24.822175" lon="109.583802">
<time>2016-10-06T15:07:24Z</time></trkpt>
<trkpt lat="24.822085" lon="109.583642">
<time>2016-10-06T15:07:25Z</time></trkpt>
<trkpt lat="24.822034" lon="109.583542">
<time>2016-10-06T15:07:26Z</time></trkpt>
<trkpt lat="24.822004" lon="109.583402">
<time>2016-10-06T15:07:27Z</time></trkpt>
<trkpt lat="24.821964" lon="109.583302">
<time>2016-10-06T15:07:28Z</time></trkpt>
<trkpt lat="24.821904" lon="109.583242">
<time>2016-10-06T15:07:29Z</time></trkpt>
<trkpt lat="24.821764" lon="109.583132">
<time>2016-10-06T15:07:30Z</time></trkpt>
<trkpt lat="24.821704" lon="109.583092">
<time>2016-10-06T15:07:31Z</time></trkpt>
<trkpt lat="24.821644" lon="109.583062">
<time>2016-10-06T15:07:32Z</time></trkpt>
<trkpt lat="24.821594" lon="109.583032">
<time>2016-10-06T15:07:33Z</time></trkpt>
<trkpt lat="24.821534" lon="109.582991">
<time>2016-10-06T15:07:34Z</time></trkpt>
<trkpt lat="24.821504" lon="109.582961">
<time>2016-10-06T15:07:35Z</time></trkpt>
<trkpt lat="24.821474" lon="109.582931">
<time>2016-10-06T15:07:36Z</time></trkpt>
<trkpt lat="24.821464" lon="109.582881">
<time>2016-10-06T15:07:37Z</time></trkpt>
<trkpt lat="24.821324" lon="109.582531">
<time>2016-10-06T15:07:38Z</time></trkpt>
<trkpt lat="24.821244" lon="109.582201">
<time>2016-10-06T15:07:39Z</time></trkpt>
<trkpt lat="24.821194" lon="109.582041">
<time>2016-10-06T15:07:40Z</time></trkpt>
<trkpt lat="24.821164" lon="109.581941">
<time>2016-10-06T15:07:41Z</time></trkpt>
<trkpt lat="24.821094" lon="109.581831">
<time>2016-10-06T15:07:42Z</time></trkpt>
<trkpt lat="24.820974" lon="109.581641">
<time>2016-10-06T15:07:43Z</time></trkpt>
<trkpt lat="24.820904" lon="109.581571">
<time>2016-10-06T15:07:44Z</time></trkpt>
<trkpt lat="24.820864" lon="109.581521">
<time>2016-10-06T15:07:45Z</time></trkpt>
<trkpt lat="24.820774" lon="109.581451">
<time>2016-10-06T15:07:46Z</time></trkpt>
<trkpt lat="24.820704" lon="109.581401">
<time>2016-10-06T15:07:47Z</time></trkpt>
<trkpt lat="24.820464" lon="109.581281">
<time>2016-10-06T15:07:48Z</time></trkpt>
<trkpt lat="24.820354" lon="109.581241">
<time>2016-10-06T15:07:49Z</time></trkpt>
<trkpt lat="24.820024" lon="109.581191">
<time>2016-10-06T15:07:50Z</time></trkpt>
<trkpt lat="24.819864" lon="109.581151">
<time>2016-10-06T15:07:51Z</time></trkpt>
<trkpt lat="24.819733" lon="109.581081">
<time>2016-10-06T15:07:52Z</time></trkpt>
<trkpt lat="24.819603" lon="109.581011">
<time>2016-10-06T15:07:53Z</time></trkpt>
<trkpt lat="24.819523" lon="109.580931">
<time>2016-10-06T15:07:54Z</time></trkpt>
<trkpt lat="24.819483" lon="109.580861">
<time>2016-10-06T15:07:55Z</time></trkpt>
<trkpt lat="24.819413" lon="109.580701">
<time>2016-10-06T15:07:56Z</time></trkpt>
<trkpt lat="24.819333" lon="109.580491">
<time>2016-10-06T15:07:57Z</time></trkpt>
<trkpt lat="24.819193" lon="109.580321">
<time>2016-10-06T15:07:58Z</time></trkpt>
<trkpt lat="24.819133" lon="109.580241">
<time>2016-10-06T15:07:59Z</time></trkpt>
<trkpt lat="24.819103" lon="109.580131">
<time>2016-10-06T15:08:00Z</time></trkpt>
<trkpt lat="24.819093" lon="109.58006">
<time>2016-10-06T15:08:01Z</time></trkpt>
<trkpt lat="24.819073" lon="109.57998">
<time>2016-10-06T15:08:02Z</time></trkpt>
<trkpt lat="24.819063" lon="109.57995">
<time>2016-10-06T15:08:03Z</time></trkpt>
<trkpt lat="24.819033" lon="109.57992">
<time>2016-10-06T15:08:04Z</time></trkpt>
<trkpt lat="24.819033" lon="109.57992">
<time>2016-10-06T15:08:05Z</time></trkpt>
<trkpt lat="24.818963" lon="109.57991">
<time>2016-10-06T15:08:06Z</time></trkpt>
<trkpt lat="24.818943" lon="109.57991">
<time>2016-10-06T15:08:07Z</time></trkpt>
<trkpt lat="24.818503" lon="109.5799">
<time>2016-10-06T15:08:08Z</time></trkpt>
<trkpt lat="24.818413" lon="109.57989">
<time>2016-10-06T15:08:09Z</time></trkpt>
<trkpt lat="24.818213" lon="109.57982">
<time>2016-10-06T15:08:10Z</time></trkpt>
<trkpt lat="24.818073" lon="109.57974">
<time>2016-10-06T15:08:11Z</time></trkpt>
<trkpt lat="24.818033" lon="109.57973">
<time>2016-10-06T15:08:12Z</time></trkpt>
<trkpt lat="24.817813" lon="109.57968">
<time>2016-10-06T15:08:13Z</time></trkpt>
<trkpt lat="24.817343" lon="109.57969">
<time>2016-10-06T15:08:14Z</time></trkpt>
<trkpt lat="24.816973" lon="109.57969">
<time>2016-10-06T15:08:15Z</time></trkpt>
<trkpt lat="24.816803" lon="109.57972">
<time>2016-10-06T15:08:16Z</time></trkpt>
<trkpt lat="24.816403" lon="109.579811">
<time>2016-10-06T15:08:17Z</time></trkpt>
<trkpt lat="24.816003" lon="109.579941">
<time>2016-10-06T15:08:18Z</time></trkpt>
<trkpt lat="24.815983" lon="109.579941">
<time>2016-10-06T15:08:19Z</time></trkpt>
<trkpt lat="24.815733" lon="109.580001">
<time>2016-10-06T15:08:20Z</time></trkpt>
<trkpt lat="24.815213" lon="109.580051">
<time>2016-10-06T15:08:21Z</time></trkpt>
<trkpt lat="24.814753" lon="109.580081">
<time>2016-10-06T15:08:22Z</time></trkpt>
<trkpt lat="24.814733" lon="109.580081">
<time>2016-10-06T15:08:23Z</time></trkpt>
<trkpt lat="24.814393" lon="109.580041">
<time>2016-10-06T15:08:24Z</time></trkpt>
<trkpt lat="24.814223" lon="109.579991">
<time>2016-10-06T15:08:25Z</time></trkpt>
<trkpt lat="24.814143" lon="109.579961">
<time>2016-10-06T15:08:26Z</time></trkpt>
<trkpt lat="24.814033" lon="109.579921">
<time>2016-10-06T15:08:27Z</time></trkpt>
<trkpt lat="24.813973" lon="109.579901">
<time>2016-10-06T15:08:28Z</time></trkpt>
<trkpt lat="24.813963" lon="109.579901">
<time>2016-10-06T15:08:29Z</time></trkpt>
<trkpt lat="24.813843" lon="109.579901">
<time>2016-10-06T15:08:30Z</time></trkpt>
<trkpt lat="24.813733" lon="109.579901">
<time>2016-10-06T15:08:31Z</time></trkpt>
<trkpt lat="24.813613" lon="109.579931">
<time>2016-10-06T15:08:32Z</time></trkpt>
<trkpt lat="24.813553" lon="109.579971">
<time>2016-10-06T15:08:33Z</time></trkpt>
<trkpt lat="24.813384" lon="109.580041">
<time>2016-10-06T15:08:34Z</time></trkpt>
<trkpt lat="24.813244" lon="109.580071">
<time>2016-10-06T15:08:35Z</time></trkpt>
<trkpt lat="24.812884" lon="109.580081">
<time>2016-10-06T15:08:36Z</time></trkpt>
<trkpt lat="24.812454" lon="109.580151">
<time>2016-10-06T15:08:37Z</time></trkpt>
<trkpt lat="24.812354" lon="109.580171">
<time>2016-10-06T15:08:38Z</time></trkpt>
<trkpt lat="24.812164" lon="109.580211">
<time>2016-10-06T15:08:39Z</time></trkpt>
<trkpt lat="24.811814" lon="109.580281">
<time>2016-10-06T15:08:40Z</time></trkpt>
<trkpt lat="24.811204" lon="109.580391">
<time>2016-10-06T15:08:41Z</time></trkpt>
<trkpt lat="24.810964" lon="109.580431">
<time>2016-10-06T15:08:42Z</time></trkpt>
<trkpt lat="24.810834" lon="109.580451">
<time>2016-10-06T15:08:43Z</time></trkpt>
<trkpt lat="24.810504" lon="109.580551">
<time>2016-10-06T15:08:44Z</time></trkpt>
<trkpt lat="24.810284" lon="109.580631">
<time>2016-10-06T15:08:45Z</time></trkpt>
<trkpt lat="24.810064" lon="109.580651">
<time>2016-10-06T15:08:46Z</time></trkpt>
<trkpt lat="24.809874" lon="109.580611">
<time>2016-10-06T15:08:47Z</time></trkpt>
<trkpt lat="24.809804" lon="109.580601">
<time>2016-10-06T15:08:48Z</time></trkpt>
<trkpt lat="24.809594" lon="109.580551">
<time>2016-10-06T15:08:49Z</time></trkpt>
<trkpt lat="24.809524" lon="109.580551">
<time>2016-10-06T15:08:50Z</time></trkpt>
<trkpt lat="24.809374" lon="109.580551">
<time>2016-10-06T15:08:51Z</time></trkpt>
<trkpt lat="24.809094" lon="109.580581">
<time>2016-10-06T15:08:52Z</time></trkpt>
<trkpt lat="24.808814" lon="109.580551">
<time>2016-10-06T15:08:53Z</time></trkpt>
<trkpt lat="24.808684" lon="109.580491">
<time>2016-10-06T15:08:54Z</time></trkpt>
<trkpt lat="24.808344" lon="109.580431">
<time>2016-10-06T15:08:55Z</time></trkpt>
<trkpt lat="24.807914" lon="109.580371">
<time>2016-10-06T15:08:56Z</time></trkpt>
<trkpt lat="24.807704" lon="109.580371">
<time>2016-10-06T15:08:57Z</time></trkpt>
<trkpt lat="24.807644" lon="109.580361">
<time>2016-10-06T15:08:58Z</time></trkpt>
<trkpt lat="24.807594" lon="109.580351">
<time>2016-10-06T15:08:59Z</time></trkpt>
<trkpt lat="24.807434" lon="109.580311">
<time>2016-10-06T15:09:00Z</time></trkpt>
<trkpt lat="24.807404" lon="109.580301">
<time>2016-10-06T15:09:01Z</time></trkpt>
<trkpt lat="24.807304" lon="109.580271">
<time>2016-10-06T15:09:02Z</time></trkpt>
<trkpt lat="24.807134" lon="109.580261">
<time>2016-10-06T15:09:03Z</time></trkpt>
<trkpt lat="24.806934" lon="109.580281">
<time>2016-10-06T15:09:04Z</time></trkpt>
<trkpt lat="24.806834" lon="109.580281">
<time>2016-10-06T15:09:05Z</time></trkpt>
<trkpt lat="24.806794" lon="109.580291">
<time>2016-10-06T15:09:06Z</time></trkpt>
<trkpt lat="24.806744" lon="109.580261">
<time>2016-10-06T15:09:07Z</time></trkpt>
<trkpt lat="24.806624" lon="109.580191">
<time>2016-10-06T15:09:08Z</time></trkpt>
<trkpt lat="24.806584" lon="109.580161">
<time>2016-10-06T15:09:09Z</time></trkpt>
<trkpt lat="24.806484" lon="109.580071">
<time>2016-10-06T15:09:10Z</time></trkpt>
<trkpt lat="24.806404" lon="109.579971">
<time>2016-10-06T15:09:11Z</time></trkpt>
<trkpt lat="24.806384" lon="109.579941">
<time>2016-10-06T15:09:12Z</time></trkpt>
<trkpt lat="24.806134" lon="109.579791">
<time>2016-10-06T15:09:13Z</time></trkpt>
<trkpt lat="24.806044" lon="109.579701">
<time>2016-10-06T15:09:14Z</time></trkpt>
<trkpt lat="24.805994" lon="109.579581">
<time>2016-10-06T15:09:15Z</time></trkpt>
<trkpt lat="24.805904" lon="109.579491">
<time>2016-10-06T15:09:16Z</time></trkpt>
<trkpt lat="24.805854" lon="109.579451">
<time>2016-10-06T15:09:17Z</time></trkpt>
<trkpt lat="24.805794" lon="109.579411">
<time>2016-10-06T15:09:18Z</time></trkpt>
<trkpt lat="24.805684" lon="109.579381">
<time>2016-10-06T15:09:19Z</time></trkpt>
<trkpt lat="24.805524" lon="109.579371">
<time>2016-10-06T15:09:20Z</time></trkpt>
<trkpt lat="24.805114" lon="109.579341">
<time>2016-10-06T15:09:21Z</time></trkpt>
<trkpt lat="24.804934" lon="109.579301">
<time>2016-10-06T15:09:22Z</time></trkpt>
<trkpt lat="24.804734" lon="109.579261">
<time>2016-10-06T15:09:23Z</time></trkpt>
<trkpt lat="24.804294" lon="109.579091">
<time>2016-10-06T15:09:24Z</time></trkpt>
<trkpt lat="24.804004" lon="109.578961">
<time>2016-10-06T15:09:25Z</time></trkpt>
<trkpt lat="24.803964" lon="109.578921">
<time>2016-10-06T15:09:26Z</time></trkpt>
<trkpt lat="24.803894" lon="109.578851">
<time>2016-10-06T15:09:27Z</time></trkpt>
<trkpt lat="24.803834" lon="109.578801">
<time>2016-10-06T15:09:28Z</time></trkpt>
<trkpt lat="24.803784" lon="109.578791">
<time>2016-10-06T15:09:29Z</time></trkpt>
<trkpt lat="24.803724" lon="109.578791">
<time>2016-10-06T15:09:30Z</time></trkpt>
<trkpt lat="24.803654" lon="109.578811">
<time>2016-10-06T15:09:31Z</time></trkpt>
<trkpt lat="24.803594" lon="109.578831">
<time>2016-10-06T15:09:32Z</time></trkpt>
<trkpt lat="24.803564" lon="109.578821">
<time>2016-10-06T15:09:33Z</time></trkpt>
<trkpt lat="24.803544" lon="109.578811">
<time>2016-10-06T15:09:34Z</time></trkpt>
<trkpt lat="24.803524" lon="109.578791">
<time>2016-10-06T15:09:35Z</time></trkpt>
<trkpt lat="24.803434" lon="109.578701">
<time>2016-10-06T15:09:36Z</time></trkpt>
<trkpt lat="24.803264" lon="109.578481">
<time>2016-10-06T15:09:37Z</time></trkpt>
<trkpt lat="24.803113" lon="109.578311">
<time>2016-10-06T15:09:38Z</time></trkpt>
<trkpt lat="24.803003" lon="109.57822">
<time>2016-10-06T15:09:39Z</time></trkpt>
<trkpt lat="24.802893" lon="109.57814">
<time>2016-10-06T15:09:40Z</time></trkpt>
<trkpt lat="24.802763" lon="109.57808">
<time>2016-10-06T15:09:41Z</time></trkpt>
<trkpt lat="24.802693" lon="109.57805">
<time>2016-10-06T15:09:42Z</time></trkpt>
<trkpt lat="24.802683" lon="109.57805">
<time>2016-10-06T15:09:43Z</time></trkpt>
<trkpt lat="24.802583" lon="109.57802">
<time>2016-10-06T15:09:44Z</time></trkpt>
<trkpt lat="24.802563" lon="109.57801">
<time>2016-10-06T15:09:45Z</time></trkpt>
<trkpt lat="24.802283" lon="109.57774">
<time>2016-10-06T15:09:46Z</time></trkpt>
<trkpt lat="24.802113" lon="109.57759">
<time>2016-10-06T15:09:47Z</time></trkpt>
<trkpt lat="24.801693" lon="109.57737">
<time>2016-10-06T15:09:48Z</time></trkpt>
<trkpt lat="24.801503" lon="109.57724">
<time>2016-10-06T15:09:49Z</time></trkpt>
<trkpt lat="24.801183" lon="109.57714">
<time>2016-10-06T15:09:50Z</time></trkpt>
<trkpt lat="24.800983" lon="109.5771">
<time>2016-10-06T15:09:51Z</time></trkpt>
<trkpt lat="24.800673" lon="109.57708">
<time>2016-10-06T15:09:52Z</time></trkpt>
<trkpt lat="24.800503" lon="109.57699">
<time>2016-10-06T15:09:53Z</time></trkpt>
<trkpt lat="24.800383" lon="109.57691">
<time>2016-10-06T15:09:54Z</time></trkpt>
<trkpt lat="24.800132" lon="109.576219">
<time>2016-10-06T15:09:55Z</time></trkpt>
<trkpt lat="24.800132" lon="109.576219">
<time>2016-10-06T15:09:56Z</time></trkpt>
<trkpt lat="24.799742" lon="109.576119">
<time>2016-10-06T15:09:57Z</time></trkpt>
<trkpt lat="24.799332" lon="109.575929">
<time>2016-10-06T15:09:58Z</time></trkpt>
<trkpt lat="24.799002" lon="109.575769">
<time>2016-10-06T15:09:59Z</time></trkpt>
<trkpt lat="24.798202" lon="109.575399">
<time>2016-10-06T15:10:00Z</time></trkpt>
<trkpt lat="24.798002" lon="109.575289">
<time>2016-10-06T15:10:01Z</time></trkpt>
<trkpt lat="24.797542" lon="109.575079">
<time>2016-10-06T15:10:02Z</time></trkpt>
<trkpt lat="24.797261" lon="109.574819">
<time>2016-10-06T15:10:03Z</time></trkpt>
<trkpt lat="24.79519" lon="109.573558">
<time>2016-10-06T15:10:04Z</time></trkpt>
<trkpt lat="24.79352" lon="109.572637">
<time>2016-10-06T15:10:05Z</time></trkpt>
<trkpt lat="24.790739" lon="109.571226">
<time>2016-10-06T15:10:06Z</time></trkpt>
<trkpt lat="24.790098" lon="109.570946">
<time>2016-10-06T15:10:07Z</time></trkpt>
<trkpt lat="24.789458" lon="109.570666">
<time>2016-10-06T15:10:08Z</time></trkpt>
<trkpt lat="24.788828" lon="109.570396">
<time>2016-10-06T15:10:09Z</time></trkpt>
<trkpt lat="24.788198" lon="109.570115">
<time>2016-10-06T15:10:10Z</time></trkpt>
<trkpt lat="24.787718" lon="109.569965">
<time>2016-10-06T15:10:11Z</time></trkpt>
<trkpt lat="24.787678" lon="109.569955">
<time>2016-10-06T15:10:12Z</time></trkpt>
<trkpt lat="24.787167" lon="109.569785">
<time>2016-10-06T15:10:13Z</time></trkpt>
<trkpt lat="24.786627" lon="109.569735">
<time>2016-10-06T15:10:14Z</time></trkpt>
<trkpt lat="24.786087" lon="109.569665">
<time>2016-10-06T15:10:15Z</time></trkpt>
<trkpt lat="24.785757" lon="109.569645">
<time>2016-10-06T15:10:16Z</time></trkpt>
<trkpt lat="24.785427" lon="109.569625">
<time>2016-10-06T15:10:17Z</time></trkpt>
<trkpt lat="24.785048" lon="109.569675">
<time>2016-10-06T15:10:18Z</time></trkpt>
<trkpt lat="24.784668" lon="109.569735">
<time>2016-10-06T15:10:19Z</time></trkpt>
<trkpt lat="24.784418" lon="109.569815">
<time>2016-10-06T15:10:20Z</time></trkpt>
<trkpt lat="24.783828" lon="109.570156">
<time>2016-10-06T15:10:21Z</time></trkpt>
<trkpt lat="24.783239" lon="109.570506">
<time>2016-10-06T15:10:22Z</time></trkpt>
<trkpt lat="24.782849" lon="109.570606">
<time>2016-10-06T15:10:23Z</time></trkpt>
<trkpt lat="24.782439" lon="109.570716">
<time>2016-10-06T15:10:24Z</time></trkpt>
<trkpt lat="24.782089" lon="109.570716">
<time>2016-10-06T15:10:25Z</time></trkpt>
<trkpt lat="24.781739" lon="109.570736">
<time>2016-10-06T15:10:26Z</time></trkpt>
<trkpt lat="24.781169" lon="109.570606">
<time>2016-10-06T15:10:27Z</time></trkpt>
<trkpt lat="24.780609" lon="109.570486">
<time>2016-10-06T15:10:28Z</time></trkpt>
<trkpt lat="24.780039" lon="109.570356">
<time>2016-10-06T15:10:29Z</time></trkpt>
<trkpt lat="24.779479" lon="109.570246">
<time>2016-10-06T15:10:30Z</time></trkpt>
<trkpt lat="24.779068" lon="109.570016">
<time>2016-10-06T15:10:31Z</time></trkpt>
<trkpt lat="24.778658" lon="109.569806">
<time>2016-10-06T15:10:32Z</time></trkpt>
<trkpt lat="24.778208" lon="109.569495">
<time>2016-10-06T15:10:33Z</time></trkpt>
<trkpt lat="24.777768" lon="109.569195">
<time>2016-10-06T15:10:34Z</time></trkpt>
<trkpt lat="24.777327" lon="109.568815">
<time>2016-10-06T15:10:35Z</time></trkpt>
<trkpt lat="24.776887" lon="109.568434">
<time>2016-10-06T15:10:36Z</time></trkpt>
<trkpt lat="24.776266" lon="109.568024">
<time>2016-10-06T15:10:37Z</time></trkpt>
<trkpt lat="24.775636" lon="109.567634">
<time>2016-10-06T15:10:38Z</time></trkpt>
<trkpt lat="24.775116" lon="109.567313">
<time>2016-10-06T15:10:39Z</time></trkpt>
<trkpt lat="24.774605" lon="109.567003">
<time>2016-10-06T15:10:40Z</time></trkpt>
<trkpt lat="24.774265" lon="109.566823">
<time>2016-10-06T15:10:41Z</time></trkpt>
<trkpt lat="24.773925" lon="109.566653">
<time>2016-10-06T15:10:42Z</time></trkpt>
<trkpt lat="24.773505" lon="109.566512">
<time>2016-10-06T15:10:43Z</time></trkpt>
<trkpt lat="24.773105" lon="109.566382">
<time>2016-10-06T15:10:44Z</time></trkpt>
<trkpt lat="24.772615" lon="109.566272">
<time>2016-10-06T15:10:45Z</time></trkpt>
<trkpt lat="24.772145" lon="109.566172">
<time>2016-10-06T15:10:46Z</time></trkpt>
<trkpt lat="24.771655" lon="109.566072">
<time>2016-10-06T15:10:47Z</time></trkpt>
<trkpt lat="24.771044" lon="109.565972">
<time>2016-10-06T15:10:48Z</time></trkpt>
<trkpt lat="24.770434" lon="109.565872">
<time>2016-10-06T15:10:49Z</time></trkpt>
<trkpt lat="24.769824" lon="109.565772">
<time>2016-10-06T15:10:50Z</time></trkpt>
<trkpt lat="24.769214" lon="109.565682">
<time>2016-10-06T15:10:51Z</time></trkpt>
<trkpt lat="24.768604" lon="109.565582">
<time>2016-10-06T15:10:52Z</time></trkpt>
<trkpt lat="24.767994" lon="109.565482">
<time>2016-10-06T15:10:53Z</time></trkpt>
<trkpt lat="24.767384" lon="109.565392">
<time>2016-10-06T15:10:54Z</time></trkpt>
<trkpt lat="24.766814" lon="109.565342">
<time>2016-10-06T15:10:55Z</time></trkpt>
<trkpt lat="24.766234" lon="109.565302">
<time>2016-10-06T15:10:56Z</time></trkpt>
<trkpt lat="24.765654" lon="109.565191">
<time>2016-10-06T15:10:57Z</time></trkpt>
<trkpt lat="24.765064" lon="109.565081">
<time>2016-10-06T15:10:58Z</time></trkpt>
<trkpt lat="24.764474" lon="109.564971">
<time>2016-10-06T15:10:59Z</time></trkpt>
<trkpt lat="24.764024" lon="109.564911">
<time>2016-10-06T15:11:00Z</time></trkpt>
<trkpt lat="24.763584" lon="109.564871">
<time>2016-10-06T15:11:01Z</time></trkpt>
<trkpt lat="24.763134" lon="109.564811">
<time>2016-10-06T15:11:02Z</time></trkpt>
<trkpt lat="24.762533" lon="109.564621">
<time>2016-10-06T15:11:03Z</time></trkpt>
<trkpt lat="24.761943" lon="109.564441">
<time>2016-10-06T15:11:04Z</time></trkpt>
<trkpt lat="24.761343" lon="109.564241">
<time>2016-10-06T15:11:05Z</time></trkpt>
<trkpt lat="24.760753" lon="109.56407">
<time>2016-10-06T15:11:06Z</time></trkpt>
<trkpt lat="24.760392" lon="109.56382">
<time>2016-10-06T15:11:07Z</time></trkpt>
<trkpt lat="24.760042" lon="109.56337">
<time>2016-10-06T15:11:08Z</time></trkpt>
<trkpt lat="24.759701" lon="109.562919">
<time>2016-10-06T15:11:09Z</time></trkpt>
<trkpt lat="24.759241" lon="109.562448">
<time>2016-10-06T15:11:10Z</time></trkpt>
<trkpt lat="24.75886" lon="109.561888">
<time>2016-10-06T15:11:11Z</time></trkpt>
<trkpt lat="24.758359" lon="109.561497">
<time>2016-10-06T15:11:12Z</time></trkpt>
<trkpt lat="24.757969" lon="109.561287">
<time>2016-10-06T15:11:13Z</time></trkpt>
<trkpt lat="24.757699" lon="109.561137">
<time>2016-10-06T15:11:14Z</time></trkpt>
<trkpt lat="24.757589" lon="109.561077">
<time>2016-10-06T15:11:15Z</time></trkpt>
<trkpt lat="24.756999" lon="109.560816">
<time>2016-10-06T15:11:16Z</time></trkpt>
<trkpt lat="24.756388" lon="109.560566">
<time>2016-10-06T15:11:17Z</time></trkpt>
<trkpt lat="24.755788" lon="109.560306">
<time>2016-10-06T15:11:18Z</time></trkpt>
<trkpt lat="24.755248" lon="109.560035">
<time>2016-10-06T15:11:19Z</time></trkpt>
<trkpt lat="24.754697" lon="109.559755">
<time>2016-10-06T15:11:20Z</time></trkpt>
<trkpt lat="24.754167" lon="109.559485">
<time>2016-10-06T15:11:21Z</time></trkpt>
<trkpt lat="24.753626" lon="109.559204">
<time>2016-10-06T15:11:22Z</time></trkpt>
<trkpt lat="24.753086" lon="109.558934">
<time>2016-10-06T15:11:23Z</time></trkpt>
<trkpt lat="24.752656" lon="109.558744">
<time>2016-10-06T15:11:24Z</time></trkpt>
<trkpt lat="24.752246" lon="109.558563">
<time>2016-10-06T15:11:25Z</time></trkpt>
<trkpt lat="24.751966" lon="109.558573">
<time>2016-10-06T15:11:26Z</time></trkpt>
<trkpt lat="24.751486" lon="109.558724">
<time>2016-10-06T15:11:27Z</time></trkpt>
<trkpt lat="24.751016" lon="109.558854">
<time>2016-10-06T15:11:28Z</time></trkpt>
<trkpt lat="24.750536" lon="109.559014">
<time>2016-10-06T15:11:29Z</time></trkpt>
<trkpt lat="24.750256" lon="109.559024">
<time>2016-10-06T15:11:30Z</time></trkpt>
<trkpt lat="24.750016" lon="109.558994">
<time>2016-10-06T15:11:31Z</time></trkpt>
<trkpt lat="24.749576" lon="109.558924">
<time>2016-10-06T15:11:32Z</time></trkpt>
<trkpt lat="24.749136" lon="109.558874">
<time>2016-10-06T15:11:33Z</time></trkpt>
<trkpt lat="24.748616" lon="109.558754">
<time>2016-10-06T15:11:34Z</time></trkpt>
<trkpt lat="24.748086" lon="109.558624">
<time>2016-10-06T15:11:35Z</time></trkpt>
<trkpt lat="24.747566" lon="109.558504">
<time>2016-10-06T15:11:36Z</time></trkpt>
<trkpt lat="24.747036" lon="109.558383">
<time>2016-10-06T15:11:37Z</time></trkpt>
<trkpt lat="24.746545" lon="109.558193">
<time>2016-10-06T15:11:38Z</time></trkpt>
<trkpt lat="24.746025" lon="109.557973">
<time>2016-10-06T15:11:39Z</time></trkpt>
<trkpt lat="24.745515" lon="109.557753">
<time>2016-10-06T15:11:40Z</time></trkpt>
<trkpt lat="24.745004" lon="109.557532">
<time>2016-10-06T15:11:41Z</time></trkpt>
<trkpt lat="24.744574" lon="109.557282">
<time>2016-10-06T15:11:42Z</time></trkpt>
<trkpt lat="24.744154" lon="109.557032">
<time>2016-10-06T15:11:43Z</time></trkpt>
<trkpt lat="24.743693" lon="109.556721">
<time>2016-10-06T15:11:44Z</time></trkpt>
<trkpt lat="24.743413" lon="109.556531">
<time>2016-10-06T15:11:45Z</time></trkpt>
<trkpt lat="24.743233" lon="109.556421">
<time>2016-10-06T15:11:46Z</time></trkpt>
<trkpt lat="24.742772" lon="109.55611">
<time>2016-10-06T15:11:47Z</time></trkpt>
<trkpt lat="24.742212" lon="109.55577">
<time>2016-10-06T15:11:48Z</time></trkpt>
<trkpt lat="24.741641" lon="109.555449">
<time>2016-10-06T15:11:49Z</time></trkpt>
<trkpt lat="24.741081" lon="109.555119">
<time>2016-10-06T15:11:50Z</time></trkpt>
<trkpt lat="24.74055" lon="109.554868">
<time>2016-10-06T15:11:51Z</time></trkpt>
<trkpt lat="24.74001" lon="109.554618">
<time>2016-10-06T15:11:52Z</time></trkpt>
<trkpt lat="24.739469" lon="109.554358">
<time>2016-10-06T15:11:53Z</time></trkpt>
<trkpt lat="24.739099" lon="109.554237">
<time>2016-10-06T15:11:54Z</time></trkpt>
<trkpt lat="24.738509" lon="109.554087">
<time>2016-10-06T15:11:55Z</time></trkpt>
<trkpt lat="24.737929" lon="109.553937">
<time>2016-10-06T15:11:56Z</time></trkpt>
<trkpt lat="24.737589" lon="109.553757">
<time>2016-10-06T15:11:57Z</time></trkpt>
<trkpt lat="24.737148" lon="109.553326">
<time>2016-10-06T15:11:58Z</time></trkpt>
<trkpt lat="24.736707" lon="109.552895">
<time>2016-10-06T15:11:59Z</time></trkpt>
<trkpt lat="24.736146" lon="109.552435">
<time>2016-10-06T15:12:00Z</time></trkpt>
<trkpt lat="24.735596" lon="109.551964">
<time>2016-10-06T15:12:01Z</time></trkpt>
<trkpt lat="24.735035" lon="109.551513">
<time>2016-10-06T15:12:02Z</time></trkpt>
<trkpt lat="24.734484" lon="109.550892">
<time>2016-10-06T15:12:03Z</time></trkpt>
<trkpt lat="24.733952" lon="109.550251">
<time>2016-10-06T15:12:04Z</time></trkpt>
<trkpt lat="24.733401" lon="109.54963">
<time>2016-10-06T15:12:05Z</time></trkpt>
<trkpt lat="24.73281" lon="109.549039">
<time>2016-10-06T15:12:06Z</time></trkpt>
<trkpt lat="24.732229" lon="109.548438">
<time>2016-10-06T15:12:07Z</time></trkpt>
<trkpt lat="24.731598" lon="109.547826">
<time>2016-10-06T15:12:08Z</time></trkpt>
<trkpt lat="24.730967" lon="109.547215">
<time>2016-10-06T15:12:09Z</time></trkpt>
<trkpt lat="24.730346" lon="109.546604">
<time>2016-10-06T15:12:10Z</time></trkpt>
<trkpt lat="24.729864" lon="109.546033">
<time>2016-10-06T15:12:11Z</time></trkpt>
<trkpt lat="24.729383" lon="109.545472">
<time>2016-10-06T15:12:12Z</time></trkpt>
<trkpt lat="24.728932" lon="109.545021">
<time>2016-10-06T15:12:13Z</time></trkpt>
<trkpt lat="24.728481" lon="109.54456">
<time>2016-10-06T15:12:14Z</time></trkpt>
<trkpt lat="24.728321" lon="109.54449">
<time>2016-10-06T15:12:15Z</time></trkpt>
<trkpt lat="24.727901" lon="109.54449">
<time>2016-10-06T15:12:16Z</time></trkpt>
<trkpt lat="24.727491" lon="109.5445">
<time>2016-10-06T15:12:17Z</time></trkpt>
<trkpt lat="24.727131" lon="109.54441">
<time>2016-10-06T15:12:18Z</time></trkpt>
<trkpt lat="24.726931" lon="109.54428">
<time>2016-10-06T15:12:19Z</time></trkpt>
<trkpt lat="24.7263" lon="109.543638">
<time>2016-10-06T15:12:20Z</time></trkpt>
<trkpt lat="24.725879" lon="109.543097">
<time>2016-10-06T15:12:21Z</time></trkpt>
<trkpt lat="24.725778" lon="109.542957">
<time>2016-10-06T15:12:22Z</time></trkpt>
<trkpt lat="24.725467" lon="109.542556">
<time>2016-10-06T15:12:23Z</time></trkpt>
<trkpt lat="24.725067" lon="109.542346">
<time>2016-10-06T15:12:24Z</time></trkpt>
<trkpt lat="24.724827" lon="109.542276">
<time>2016-10-06T15:12:25Z</time></trkpt>
<trkpt lat="24.724477" lon="109.542225">
<time>2016-10-06T15:12:26Z</time></trkpt>
<trkpt lat="24.724137" lon="109.542185">
<time>2016-10-06T15:12:27Z</time></trkpt>
<trkpt lat="24.723546" lon="109.541754">
<time>2016-10-06T15:12:28Z</time></trkpt>
<trkpt lat="24.722965" lon="109.541354">
<time>2016-10-06T15:12:29Z</time></trkpt>
<trkpt lat="24.722534" lon="109.540772">
<time>2016-10-06T15:12:30Z</time></trkpt>
<trkpt lat="24.722113" lon="109.540512">
<time>2016-10-06T15:12:31Z</time></trkpt>
<trkpt lat="24.721623" lon="109.540382">
<time>2016-10-06T15:12:32Z</time></trkpt>
<trkpt lat="24.720973" lon="109.540372">
<time>2016-10-06T15:12:33Z</time></trkpt>
<trkpt lat="24.718851" lon="109.539349">
<time>2016-10-06T15:12:34Z</time></trkpt>
<trkpt lat="24.71828" lon="109.539219">
<time>2016-10-06T15:12:35Z</time></trkpt>
<trkpt lat="24.71729" lon="109.539139">
<time>2016-10-06T15:12:36Z</time></trkpt>
<trkpt lat="24.7169" lon="109.539149">
<time>2016-10-06T15:12:37Z</time></trkpt>
<trkpt lat="24.71664" lon="109.539209">
<time>2016-10-06T15:12:38Z</time></trkpt>
<trkpt lat="24.716071" lon="109.53935">
<time>2016-10-06T15:12:39Z</time></trkpt>
<trkpt lat="24.715111" lon="109.53944">
<time>2016-10-06T15:12:40Z</time></trkpt>
<trkpt lat="24.7129" lon="109.538799">
<time>2016-10-06T15:12:41Z</time></trkpt>
<trkpt lat="24.711989" lon="109.538568">
<time>2016-10-06T15:12:42Z</time></trkpt>
<trkpt lat="24.711829" lon="109.538578">
<time>2016-10-06T15:12:43Z</time></trkpt>
<trkpt lat="24.711819" lon="109.538578">
<time>2016-10-06T15:12:44Z</time></trkpt>
<trkpt lat="24.71153" lon="109.538718">
<time>2016-10-06T15:12:45Z</time></trkpt>
<trkpt lat="24.710422" lon="109.539691">
<time>2016-10-06T15:12:46Z</time></trkpt>
<trkpt lat="24.709872" lon="109.540011">
<time>2016-10-06T15:12:47Z</time></trkpt>
<trkpt lat="24.707693" lon="109.540232">
<time>2016-10-06T15:12:48Z</time></trkpt>
<trkpt lat="24.707233" lon="109.540382">
<time>2016-10-06T15:12:49Z</time></trkpt>
<trkpt lat="24.706355" lon="109.540964">
<time>2016-10-06T15:12:50Z</time></trkpt>
<trkpt lat="24.705915" lon="109.541244">
<time>2016-10-06T15:12:51Z</time></trkpt>
<trkpt lat="24.705336" lon="109.541355">
<time>2016-10-06T15:12:52Z</time></trkpt>
<trkpt lat="24.703495" lon="109.540914">
<time>2016-10-06T15:12:53Z</time></trkpt>
<trkpt lat="24.700742" lon="109.539852">
<time>2016-10-06T15:12:54Z</time></trkpt>
<trkpt lat="24.700522" lon="109.539832">
<time>2016-10-06T15:12:55Z</time></trkpt>
<trkpt lat="24.700303" lon="109.539922">
<time>2016-10-06T15:12:56Z</time></trkpt>
<trkpt lat="24.698417" lon="109.541696">
<time>2016-10-06T15:12:57Z</time></trkpt>
<trkpt lat="24.698117" lon="109.542097">
<time>2016-10-06T15:12:58Z</time></trkpt>
<trkpt lat="24.697141" lon="109.54384">
<time>2016-10-06T15:12:59Z</time></trkpt>
<trkpt lat="24.696403" lon="109.544762">
<time>2016-10-06T15:13:00Z</time></trkpt>
<trkpt lat="24.696174" lon="109.544943">
<time>2016-10-06T15:13:01Z</time></trkpt>
<trkpt lat="24.694475" lon="109.545795">
<time>2016-10-06T15:13:02Z</time></trkpt>
<trkpt lat="24.693976" lon="109.546145">
<time>2016-10-06T15:13:03Z</time></trkpt>
<trkpt lat="24.693036" lon="109.546286">
<time>2016-10-06T15:13:04Z</time></trkpt>
<trkpt lat="24.692786" lon="109.546296">
<time>2016-10-06T15:13:05Z</time></trkpt>
<trkpt lat="24.692586" lon="109.546236">
<time>2016-10-06T15:13:06Z</time></trkpt>
<trkpt lat="24.692356" lon="109.546085">
<time>2016-10-06T15:13:07Z</time></trkpt>
<trkpt lat="24.692256" lon="109.545955">
<time>2016-10-06T15:13:08Z</time></trkpt>
<trkpt lat="24.692175" lon="109.545735">
<time>2016-10-06T15:13:09Z</time></trkpt>
<trkpt lat="24.692114" lon="109.545314">
<time>2016-10-06T15:13:10Z</time></trkpt>
<trkpt lat="24.692014" lon="109.545033">
<time>2016-10-06T15:13:11Z</time></trkpt>
<trkpt lat="24.691904" lon="109.544963">
<time>2016-10-06T15:13:12Z</time></trkpt>
<trkpt lat="24.691764" lon="109.544973">
<time>2016-10-06T15:13:13Z</time></trkpt>
<trkpt lat="24.691624" lon="109.545013">
<time>2016-10-06T15:13:14Z</time></trkpt>
<trkpt lat="24.690995" lon="109.545394">
<time>2016-10-06T15:13:15Z</time></trkpt>
<trkpt lat="24.690755" lon="109.545464">
<time>2016-10-06T15:13:16Z</time></trkpt>
<trkpt lat="24.690515" lon="109.545504">
<time>2016-10-06T15:13:17Z</time></trkpt>
<trkpt lat="24.683004" lon="109.545164">
<time>2016-10-06T15:13:18Z</time></trkpt>
<trkpt lat="24.682024" lon="109.545124">
<time>2016-10-06T15:13:19Z</time></trkpt>
<trkpt lat="24.680255" lon="109.545605">
<time>2016-10-06T15:13:20Z</time></trkpt>
<trkpt lat="24.678685" lon="109.545595">
<time>2016-10-06T15:13:21Z</time></trkpt>
<trkpt lat="24.676596" lon="109.546046">
<time>2016-10-06T15:13:22Z</time></trkpt>
<trkpt lat="24.675846" lon="109.546086">
<time>2016-10-06T15:13:23Z</time></trkpt>
<trkpt lat="24.675496" lon="109.546106">
<time>2016-10-06T15:13:24Z</time></trkpt>
<trkpt lat="24.674546" lon="109.545946">
<time>2016-10-06T15:13:25Z</time></trkpt>
<trkpt lat="24.673465" lon="109.545525">
<time>2016-10-06T15:13:26Z</time></trkpt>
<trkpt lat="24.671903" lon="109.544263">
<time>2016-10-06T15:13:27Z</time></trkpt>
<trkpt lat="24.67018" lon="109.543191">
<time>2016-10-06T15:13:28Z</time></trkpt>
<trkpt lat="24.666677" lon="109.541818">
<time>2016-10-06T15:13:29Z</time></trkpt>
<trkpt lat="24.666077" lon="109.541577">
<time>2016-10-06T15:13:30Z</time></trkpt>
<trkpt lat="24.664355" lon="109.540545">
<time>2016-10-06T15:13:31Z</time></trkpt>
<trkpt lat="24.663924" lon="109.540295">
<time>2016-10-06T15:13:32Z</time></trkpt>
<trkpt lat="24.663654" lon="109.540245">
<time>2016-10-06T15:13:33Z</time></trkpt>
<trkpt lat="24.663234" lon="109.540265">
<time>2016-10-06T15:13:34Z</time></trkpt>
<trkpt lat="24.662045" lon="109.540656">
<time>2016-10-06T15:13:35Z</time></trkpt>
<trkpt lat="24.661645" lon="109.540776">
<time>2016-10-06T15:13:36Z</time></trkpt>
<trkpt lat="24.661285" lon="109.540796">
<time>2016-10-06T15:13:37Z</time></trkpt>
<trkpt lat="24.661055" lon="109.540746">
<time>2016-10-06T15:13:38Z</time></trkpt>
<trkpt lat="24.660284" lon="109.540275">
<time>2016-10-06T15:13:39Z</time></trkpt>
<trkpt lat="24.659663" lon="109.539714">
<time>2016-10-06T15:13:40Z</time></trkpt>
<trkpt lat="24.658891" lon="109.539012">
<time>2016-10-06T15:13:41Z</time></trkpt>
<trkpt lat="24.65759" lon="109.538421">
<time>2016-10-06T15:13:42Z</time></trkpt>
<trkpt lat="24.65611" lon="109.538331">
<time>2016-10-06T15:13:43Z</time></trkpt>
<trkpt lat="24.655308" lon="109.53786">
<time>2016-10-06T15:13:44Z</time></trkpt>
<trkpt lat="24.654757" lon="109.537369">
<time>2016-10-06T15:13:45Z</time></trkpt>
<trkpt lat="24.65246" lon="109.534472">
<time>2016-10-06T15:13:46Z</time></trkpt>
<trkpt lat="24.651438" lon="109.53364">
<time>2016-10-06T15:13:47Z</time></trkpt>
<trkpt lat="24.650285" lon="109.532417">
<time>2016-10-06T15:13:48Z</time></trkpt>
<trkpt lat="24.649874" lon="109.531695">
<time>2016-10-06T15:13:49Z</time></trkpt>
<trkpt lat="24.649582" lon="109.531194">
<time>2016-10-06T15:13:50Z</time></trkpt>
<trkpt lat="24.64888" lon="109.530172">
<time>2016-10-06T15:13:51Z</time></trkpt>
<trkpt lat="24.648549" lon="109.530031">
<time>2016-10-06T15:13:52Z</time></trkpt>
<trkpt lat="24.647689" lon="109.529671">
<time>2016-10-06T15:13:53Z</time></trkpt>
<trkpt lat="24.646067" lon="109.529099">
<time>2016-10-06T15:13:54Z</time></trkpt>
<trkpt lat="24.645737" lon="109.529069">
<time>2016-10-06T15:13:55Z</time></trkpt>
<trkpt lat="24.644477" lon="109.52925">
<time>2016-10-06T15:13:56Z</time></trkpt>
<trkpt lat="24.644038" lon="109.52929">
<time>2016-10-06T15:13:57Z</time></trkpt>
<trkpt lat="24.643557" lon="109.52925">
<time>2016-10-06T15:13:58Z</time></trkpt>
<trkpt lat="24.643387" lon="109.52918">
<time>2016-10-06T15:13:59Z</time></trkpt>
<trkpt lat="24.643137" lon="109.529089">
<time>2016-10-06T15:14:00Z</time></trkpt>
<trkpt lat="24.640181" lon="109.526864">
<time>2016-10-06T15:14:01Z</time></trkpt>
<trkpt lat="24.637687" lon="109.52527">
<time>2016-10-06T15:14:02Z</time></trkpt>
<trkpt lat="24.633087" lon="109.52154">
<time>2016-10-06T15:14:03Z</time></trkpt>
<trkpt lat="24.632465" lon="109.520938">
<time>2016-10-06T15:14:04Z</time></trkpt>
<trkpt lat="24.632395" lon="109.520808">
<time>2016-10-06T15:14:05Z</time></trkpt>
<trkpt lat="24.631903" lon="109.520006">
<time>2016-10-06T15:14:06Z</time></trkpt>
<trkpt lat="24.630322" lon="109.516386">
<time>2016-10-06T15:14:07Z</time></trkpt>
<trkpt lat="24.630152" lon="109.516205">
<time>2016-10-06T15:14:08Z</time></trkpt>
<trkpt lat="24.630032" lon="109.516125">
<time>2016-10-06T15:14:09Z</time></trkpt>
<trkpt lat="24.629901" lon="109.516085">
<time>2016-10-06T15:14:10Z</time></trkpt>
<trkpt lat="24.629662" lon="109.516105">
<time>2016-10-06T15:14:11Z</time></trkpt>
<trkpt lat="24.628703" lon="109.516616">
<time>2016-10-06T15:14:12Z</time></trkpt>
<trkpt lat="24.628493" lon="109.516647">
<time>2016-10-06T15:14:13Z</time></trkpt>
<trkpt lat="24.628183" lon="109.516606">
<time>2016-10-06T15:14:14Z</time></trkpt>
<trkpt lat="24.627332" lon="109.516356">
<time>2016-10-06T15:14:15Z</time></trkpt>
<trkpt lat="24.627132" lon="109.516326">
<time>2016-10-06T15:14:16Z</time></trkpt>
<trkpt lat="24.626972" lon="109.516346">
<time>2016-10-06T15:14:17Z</time></trkpt>
<trkpt lat="24.626802" lon="109.516456">
<time>2016-10-06T15:14:18Z</time></trkpt>
<trkpt lat="24.626295" lon="109.517268">
<time>2016-10-06T15:14:19Z</time></trkpt>
<trkpt lat="24.626006" lon="109.51769">
<time>2016-10-06T15:14:20Z</time></trkpt>
<trkpt lat="24.625766" lon="109.51788">
<time>2016-10-06T15:14:21Z</time></trkpt>
<trkpt lat="24.625407" lon="109.518011">
<time>2016-10-06T15:14:22Z</time></trkpt>
<trkpt lat="24.625117" lon="109.517991">
<time>2016-10-06T15:14:23Z</time></trkpt>
<trkpt lat="24.624536" lon="109.51769">
<time>2016-10-06T15:14:24Z</time></trkpt>
<trkpt lat="24.624536" lon="109.51769">
<time>2016-10-06T15:14:25Z</time></trkpt>
<trkpt lat="24.624205" lon="109.517539">
<time>2016-10-06T15:14:26Z</time></trkpt>
<trkpt lat="24.623926" lon="109.517579">
<time>2016-10-06T15:14:27Z</time></trkpt>
<trkpt lat="24.623826" lon="109.51769">
<time>2016-10-06T15:14:28Z</time></trkpt>
<trkpt lat="24.623726" lon="109.51789">
<time>2016-10-06T15:14:29Z</time></trkpt>
<trkpt lat="24.623699" lon="109.518652">
<time>2016-10-06T15:14:30Z</time></trkpt>
<trkpt lat="24.62367" lon="109.519124">
<time>2016-10-06T15:14:31Z</time></trkpt>
<trkpt lat="24.623511" lon="109.519455">
<time>2016-10-06T15:14:32Z</time></trkpt>
<trkpt lat="24.623171" lon="109.519715">
<time>2016-10-06T15:14:33Z</time></trkpt>
<trkpt lat="24.621672" lon="109.520097">
<time>2016-10-06T15:14:34Z</time></trkpt>
<trkpt lat="24.620682" lon="109.519816">
<time>2016-10-06T15:14:35Z</time></trkpt>
<trkpt lat="24.618929" lon="109.518773">
<time>2016-10-06T15:14:36Z</time></trkpt>
<trkpt lat="24.618778" lon="109.518693">
<time>2016-10-06T15:14:37Z</time></trkpt>
<trkpt lat="24.618598" lon="109.518653">
<time>2016-10-06T15:14:38Z</time></trkpt>
<trkpt lat="24.618418" lon="109.518653">
<time>2016-10-06T15:14:39Z</time></trkpt>
<trkpt lat="24.618139" lon="109.518743">
<time>2016-10-06T15:14:40Z</time></trkpt>
<trkpt lat="24.616941" lon="109.519565">
<time>2016-10-06T15:14:41Z</time></trkpt>
<trkpt lat="24.616631" lon="109.519786">
<time>2016-10-06T15:14:42Z</time></trkpt>
<trkpt lat="24.616402" lon="109.519866">
<time>2016-10-06T15:14:43Z</time></trkpt>
<trkpt lat="24.615212" lon="109.519896">
<time>2016-10-06T15:14:44Z</time></trkpt>
<trkpt lat="24.614282" lon="109.519866">
<time>2016-10-06T15:14:45Z</time></trkpt>
<trkpt lat="24.612811" lon="109.519826">
<time>2016-10-06T15:14:46Z</time></trkpt>
<trkpt lat="24.612291" lon="109.519726">
<time>2016-10-06T15:14:47Z</time></trkpt>
<trkpt lat="24.612001" lon="109.519616">
<time>2016-10-06T15:14:48Z</time></trkpt>
<trkpt lat="24.61179" lon="109.519485">
<time>2016-10-06T15:14:49Z</time></trkpt>
<trkpt lat="24.611449" lon="109.519135">
<time>2016-10-06T15:14:50Z</time></trkpt>
<trkpt lat="24.610746" lon="109.518062">
<time>2016-10-06T15:14:51Z</time></trkpt>
<trkpt lat="24.610546" lon="109.517871">
<time>2016-10-06T15:14:52Z</time></trkpt>
<trkpt lat="24.610325" lon="109.517731">
<time>2016-10-06T15:14:53Z</time></trkpt>
<trkpt lat="24.608984" lon="109.517209">
<time>2016-10-06T15:14:54Z</time></trkpt>
<trkpt lat="24.607911" lon="109.516357">
<time>2016-10-06T15:14:55Z</time></trkpt>
<trkpt lat="24.606348" lon="109.515244">
<time>2016-10-06T15:14:56Z</time></trkpt>
<trkpt lat="24.606348" lon="109.515244">
<time>2016-10-06T15:14:57Z</time></trkpt>
<trkpt lat="24.605867" lon="109.514963">
<time>2016-10-06T15:14:58Z</time></trkpt>
<trkpt lat="24.605256" lon="109.514602">
<time>2016-10-06T15:14:59Z</time></trkpt>
<trkpt lat="24.605006" lon="109.514442">
<time>2016-10-06T15:15:00Z</time></trkpt>
<trkpt lat="24.604805" lon="109.514311">
<time>2016-10-06T15:15:01Z</time></trkpt>
<trkpt lat="24.604695" lon="109.514241">
<time>2016-10-06T15:15:02Z</time></trkpt>
<trkpt lat="24.604545" lon="109.514141">
<time>2016-10-06T15:15:03Z</time></trkpt>
<trkpt lat="24.604284" lon="109.51398">
<time>2016-10-06T15:15:04Z</time></trkpt>
<trkpt lat="24.604144" lon="109.5139">
<time>2016-10-06T15:15:05Z</time></trkpt>
<trkpt lat="24.604034" lon="109.51384">
<time>2016-10-06T15:15:06Z</time></trkpt>
<trkpt lat="24.603844" lon="109.51375">
<time>2016-10-06T15:15:07Z</time></trkpt>
<trkpt lat="24.603443" lon="109.513529">
<time>2016-10-06T15:15:08Z</time></trkpt>
<trkpt lat="24.603333" lon="109.513479">
<time>2016-10-06T15:15:09Z</time></trkpt>
<trkpt lat="24.603183" lon="109.513409">
<time>2016-10-06T15:15:10Z</time></trkpt>
<trkpt lat="24.602962" lon="109.513309">
<time>2016-10-06T15:15:11Z</time></trkpt>
<trkpt lat="24.602652" lon="109.513168">
<time>2016-10-06T15:15:12Z</time></trkpt>
<trkpt lat="24.602362" lon="109.513018">
<time>2016-10-06T15:15:13Z</time></trkpt>
<trkpt lat="24.602021" lon="109.512847">
<time>2016-10-06T15:15:14Z</time></trkpt>
<trkpt lat="24.601791" lon="109.512707">
<time>2016-10-06T15:15:15Z</time></trkpt>
<trkpt lat="24.60154" lon="109.512536">
<time>2016-10-06T15:15:16Z</time></trkpt>
<trkpt lat="24.60132" lon="109.512366">
<time>2016-10-06T15:15:17Z</time></trkpt>
<trkpt lat="24.600939" lon="109.512045">
<time>2016-10-06T15:15:18Z</time></trkpt>
<trkpt lat="24.600628" lon="109.511814">
<time>2016-10-06T15:15:19Z</time></trkpt>
<trkpt lat="24.600377" lon="109.511634">
<time>2016-10-06T15:15:20Z</time></trkpt>
<trkpt lat="24.600117" lon="109.511463">
<time>2016-10-06T15:15:21Z</time></trkpt>
<trkpt lat="24.599736" lon="109.511233">
<time>2016-10-06T15:15:22Z</time></trkpt>
<trkpt lat="24.599065" lon="109.510872">
<time>2016-10-06T15:15:23Z</time></trkpt>
<trkpt lat="24.598484" lon="109.510561">
<time>2016-10-06T15:15:24Z</time></trkpt>
<trkpt lat="24.597893" lon="109.51023">
<time>2016-10-06T15:15:25Z</time></trkpt>
<trkpt lat="24.597463" lon="109.510009">
<time>2016-10-06T15:15:26Z</time></trkpt>
<trkpt lat="24.597152" lon="109.509849">
<time>2016-10-06T15:15:27Z</time></trkpt>
<trkpt lat="24.597062" lon="109.509819">
<time>2016-10-06T15:15:28Z</time></trkpt>
<trkpt lat="24.597062" lon="109.509819">
<time>2016-10-06T15:15:29Z</time></trkpt>
<trkpt lat="24.596901" lon="109.509638">
<time>2016-10-06T15:15:30Z</time></trkpt>
<trkpt lat="24.596891" lon="109.509608">
<time>2016-10-06T15:15:31Z</time></trkpt>
<trkpt lat="24.596811" lon="109.509488">
<time>2016-10-06T15:15:32Z</time></trkpt>
<trkpt lat="24.596771" lon="109.509438">
<time>2016-10-06T15:15:33Z</time></trkpt>
<trkpt lat="24.596731" lon="109.509367">
<time>2016-10-06T15:15:34Z</time></trkpt>
<trkpt lat="24.596701" lon="109.509307">
<time>2016-10-06T15:15:35Z</time></trkpt>
<trkpt lat="24.5967" lon="109.509297">
<time>2016-10-06T15:15:36Z</time></trkpt>
<trkpt lat="24.5967" lon="109.509287">
<time>2016-10-06T15:15:37Z</time></trkpt>
<trkpt lat="24.5967" lon="109.509257">
<time>2016-10-06T15:15:38Z</time></trkpt>
<trkpt lat="24.59671" lon="109.509197">
<time>2016-10-06T15:15:39Z</time></trkpt>
<trkpt lat="24.59674" lon="109.508966">
<time>2016-10-06T15:15:40Z</time></trkpt>
<trkpt lat="24.596857" lon="109.508114">
<time>2016-10-06T15:15:41Z</time></trkpt>
<trkpt lat="24.596896" lon="109.507662">
<time>2016-10-06T15:15:42Z</time></trkpt>
<trkpt lat="24.596935" lon="109.507442">
<time>2016-10-06T15:15:43Z</time></trkpt>
<trkpt lat="24.597132" lon="109.506549">
<time>2016-10-06T15:15:44Z</time></trkpt>
<trkpt lat="24.597172" lon="109.506318">
<time>2016-10-06T15:15:45Z</time></trkpt>
<trkpt lat="24.597191" lon="109.506198">
<time>2016-10-06T15:15:46Z</time></trkpt>
<trkpt lat="24.597201" lon="109.506128">
<time>2016-10-06T15:15:47Z</time></trkpt>
<trkpt lat="24.597211" lon="109.506068">
<time>2016-10-06T15:15:48Z</time></trkpt>
<trkpt lat="24.597231" lon="109.505977">
<time>2016-10-06T15:15:49Z</time></trkpt>
<trkpt lat="24.597231" lon="109.505917">
<time>2016-10-06T15:15:50Z</time></trkpt>
<trkpt lat="24.59723" lon="109.505887">
<time>2016-10-06T15:15:51Z</time></trkpt>
<trkpt lat="24.59722" lon="109.505747">
<time>2016-10-06T15:15:52Z</time></trkpt>
<trkpt lat="24.59722" lon="109.505727">
<time>2016-10-06T15:15:53Z</time></trkpt>
<trkpt lat="24.59721" lon="109.505717">
<time>2016-10-06T15:15:54Z</time></trkpt>
<trkpt lat="24.59721" lon="109.505656">
<time>2016-10-06T15:15:55Z</time></trkpt>
<trkpt lat="24.597139" lon="109.505446">
<time>2016-10-06T15:15:56Z</time></trkpt>
<trkpt lat="24.597039" lon="109.505245">
<time>2016-10-06T15:15:57Z</time></trkpt>
<trkpt lat="24.596898" lon="109.505075">
<time>2016-10-06T15:15:58Z</time></trkpt>
<trkpt lat="24.596738" lon="109.504944">
<time>2016-10-06T15:15:59Z</time></trkpt>
<trkpt lat="24.596547" lon="109.504844">
<time>2016-10-06T15:16:00Z</time></trkpt>
<trkpt lat="24.596377" lon="109.504734">
<time>2016-10-06T15:16:01Z</time></trkpt>
<trkpt lat="24.596246" lon="109.504553">
<time>2016-10-06T15:16:02Z</time></trkpt>
<trkpt lat="24.596156" lon="109.504353">
<time>2016-10-06T15:16:03Z</time></trkpt>
<trkpt lat="24.596155" lon="109.504122">
<time>2016-10-06T15:16:04Z</time></trkpt>
<trkpt lat="24.596194" lon="109.503671">
<time>2016-10-06T15:16:05Z</time></trkpt>
<trkpt lat="24.596232" lon="109.502988">
<time>2016-10-06T15:16:06Z</time></trkpt>
<trkpt lat="24.596239" lon="109.502196">
<time>2016-10-06T15:16:07Z</time></trkpt>
<trkpt lat="24.596248" lon="109.501845">
<time>2016-10-06T15:16:08Z</time></trkpt>
<trkpt lat="24.596286" lon="109.501153">
<time>2016-10-06T15:16:09Z</time></trkpt>
<trkpt lat="24.596256" lon="109.500912">
<time>2016-10-06T15:16:10Z</time></trkpt>
<trkpt lat="24.596275" lon="109.500682">
<time>2016-10-06T15:16:11Z</time></trkpt>
<trkpt lat="24.596313" lon="109.5002">
<time>2016-10-06T15:16:12Z</time></trkpt>
<trkpt lat="24.596333" lon="109.50008">
<time>2016-10-06T15:16:13Z</time></trkpt>
<trkpt lat="24.596343" lon="109.50004">
<time>2016-10-06T15:16:14Z</time></trkpt>
<trkpt lat="24.596343" lon="109.50002">
<time>2016-10-06T15:16:15Z</time></trkpt>
<trkpt lat="24.596402" lon="109.499729">
<time>2016-10-06T15:16:16Z</time></trkpt>
<trkpt lat="24.59645" lon="109.499117">
<time>2016-10-06T15:16:17Z</time></trkpt>
<trkpt lat="24.59646" lon="109.499077">
<time>2016-10-06T15:16:18Z</time></trkpt>
<trkpt lat="24.59649" lon="109.498986">
<time>2016-10-06T15:16:19Z</time></trkpt>
<trkpt lat="24.596559" lon="109.498776">
<time>2016-10-06T15:16:20Z</time></trkpt>
<trkpt lat="24.596658" lon="109.498435">
<time>2016-10-06T15:16:21Z</time></trkpt>
<trkpt lat="24.596678" lon="109.498385">
<time>2016-10-06T15:16:22Z</time></trkpt>
<trkpt lat="24.596708" lon="109.498324">
<time>2016-10-06T15:16:23Z</time></trkpt>
<trkpt lat="24.596837" lon="109.498124">
<time>2016-10-06T15:16:24Z</time></trkpt>
<trkpt lat="24.596897" lon="109.498024">
<time>2016-10-06T15:16:25Z</time></trkpt>
<trkpt lat="24.596986" lon="109.497803">
<time>2016-10-06T15:16:26Z</time></trkpt>
<trkpt lat="24.597076" lon="109.497582">
<time>2016-10-06T15:16:27Z</time></trkpt>
<trkpt lat="24.597155" lon="109.497502">
<time>2016-10-06T15:16:28Z</time></trkpt>
<trkpt lat="24.597285" lon="109.497392">
<time>2016-10-06T15:16:29Z</time></trkpt>
<trkpt lat="24.597315" lon="109.497372">
<time>2016-10-06T15:16:30Z</time></trkpt>
<trkpt lat="24.597425" lon="109.497281">
<time>2016-10-06T15:16:31Z</time></trkpt>
<trkpt lat="24.597494" lon="109.497191">
<time>2016-10-06T15:16:32Z</time></trkpt>
<trkpt lat="24.597564" lon="109.497091">
<time>2016-10-06T15:16:33Z</time></trkpt>
<trkpt lat="24.597614" lon="109.49698">
<time>2016-10-06T15:16:34Z</time></trkpt>
<trkpt lat="24.597703" lon="109.496649">
<time>2016-10-06T15:16:35Z</time></trkpt>
<trkpt lat="24.597762" lon="109.496429">
<time>2016-10-06T15:16:36Z</time></trkpt>
<trkpt lat="24.597782" lon="109.496389">
<time>2016-10-06T15:16:37Z</time></trkpt>
<trkpt lat="24.597812" lon="109.496358">
<time>2016-10-06T15:16:38Z</time></trkpt>
<trkpt lat="24.597862" lon="109.496318">
<time>2016-10-06T15:16:39Z</time></trkpt>
<trkpt lat="24.597942" lon="109.496258">
<time>2016-10-06T15:16:40Z</time></trkpt>
<trkpt lat="24.598052" lon="109.496218">
<time>2016-10-06T15:16:41Z</time></trkpt>
<trkpt lat="24.598291" lon="109.496138">
<time>2016-10-06T15:16:42Z</time></trkpt>
<trkpt lat="24.598341" lon="109.496128">
<time>2016-10-06T15:16:43Z</time></trkpt>
<trkpt lat="24.598391" lon="109.495877">
<time>2016-10-06T15:16:44Z</time></trkpt>
<trkpt lat="24.59839" lon="109.495656">
<time>2016-10-06T15:16:45Z</time></trkpt>
<trkpt lat="24.59839" lon="109.495556">
<time>2016-10-06T15:16:46Z</time></trkpt>
<trkpt lat="24.598399" lon="109.495426">
<time>2016-10-06T15:16:47Z</time></trkpt>
<trkpt lat="24.598479" lon="109.495285">
<time>2016-10-06T15:16:48Z</time></trkpt>
<trkpt lat="24.598539" lon="109.495205">
<time>2016-10-06T15:16:49Z</time></trkpt>
<trkpt lat="24.598538" lon="109.495105">
<time>2016-10-06T15:16:50Z</time></trkpt>
<trkpt lat="24.598498" lon="109.494864">
<time>2016-10-06T15:16:51Z</time></trkpt>
<trkpt lat="24.598447" lon="109.494653">
<time>2016-10-06T15:16:52Z</time></trkpt>
<trkpt lat="24.598446" lon="109.494433">
<time>2016-10-06T15:16:53Z</time></trkpt>
<trkpt lat="24.598406" lon="109.494342">
<time>2016-10-06T15:16:54Z</time></trkpt>
<trkpt lat="24.598376" lon="109.494302">
<time>2016-10-06T15:16:55Z</time></trkpt>
<trkpt lat="24.598286" lon="109.494202">
<time>2016-10-06T15:16:56Z</time></trkpt>
<trkpt lat="24.598185" lon="109.494062">
<time>2016-10-06T15:16:57Z</time></trkpt>
<trkpt lat="24.598095" lon="109.493961">
<time>2016-10-06T15:16:58Z</time></trkpt>
<trkpt lat="24.597884" lon="109.493791">
<time>2016-10-06T15:16:59Z</time></trkpt>
<trkpt lat="24.597804" lon="109.493711">
<time>2016-10-06T15:17:00Z</time></trkpt>
<trkpt lat="24.597774" lon="109.49365">
<time>2016-10-06T15:17:01Z</time></trkpt>
<trkpt lat="24.597774" lon="109.49358">
<time>2016-10-06T15:17:02Z</time></trkpt>
<trkpt lat="24.597823" lon="109.49352">
<time>2016-10-06T15:17:03Z</time></trkpt>
<trkpt lat="24.597923" lon="109.49344">
<time>2016-10-06T15:17:04Z</time></trkpt>
<trkpt lat="24.597993" lon="109.493369">
<time>2016-10-06T15:17:05Z</time></trkpt>
<trkpt lat="24.598063" lon="109.493299">
<time>2016-10-06T15:17:06Z</time></trkpt>
<trkpt lat="24.598163" lon="109.493199">
<time>2016-10-06T15:17:07Z</time></trkpt>
<trkpt lat="24.598262" lon="109.493099">
<time>2016-10-06T15:17:08Z</time></trkpt>
<trkpt lat="24.598292" lon="109.493028">
<time>2016-10-06T15:17:09Z</time></trkpt>
<trkpt lat="24.598302" lon="109.492958">
<time>2016-10-06T15:17:10Z</time></trkpt>
<trkpt lat="24.598271" lon="109.492858">
<time>2016-10-06T15:17:11Z</time></trkpt>
<trkpt lat="24.598231" lon="109.492697">
<time>2016-10-06T15:17:12Z</time></trkpt>
<trkpt lat="24.598201" lon="109.492547">
<time>2016-10-06T15:17:13Z</time></trkpt>
<trkpt lat="24.59817" lon="109.492457">
<time>2016-10-06T15:17:14Z</time></trkpt>
<trkpt lat="24.59816" lon="109.492417">
<time>2016-10-06T15:17:15Z</time></trkpt>
<trkpt lat="24.59812" lon="109.492316">
<time>2016-10-06T15:17:16Z</time></trkpt>
<trkpt lat="24.5981" lon="109.492276">
<time>2016-10-06T15:17:17Z</time></trkpt>
<trkpt lat="24.598069" lon="109.492116">
<time>2016-10-06T15:17:18Z</time></trkpt>
<trkpt lat="24.598069" lon="109.491965">
<time>2016-10-06T15:17:19Z</time></trkpt>
<trkpt lat="24.598098" lon="109.491715">
<time>2016-10-06T15:17:20Z</time></trkpt>
<trkpt lat="24.598147" lon="109.491484">
<time>2016-10-06T15:17:21Z</time></trkpt>
<trkpt lat="24.598167" lon="109.491384">
<time>2016-10-06T15:17:22Z</time></trkpt>
<trkpt lat="24.598187" lon="109.491283">
<time>2016-10-06T15:17:23Z</time></trkpt>
<trkpt lat="24.598246" lon="109.491103">
<time>2016-10-06T15:17:24Z</time></trkpt>
<trkpt lat="24.598266" lon="109.491043">
<time>2016-10-06T15:17:25Z</time></trkpt>
<trkpt lat="24.598326" lon="109.490892">
<time>2016-10-06T15:17:26Z</time></trkpt>
<trkpt lat="24.598335" lon="109.490722">
<time>2016-10-06T15:17:27Z</time></trkpt>
<trkpt lat="24.598325" lon="109.490601">
<time>2016-10-06T15:17:28Z</time></trkpt>
<trkpt lat="24.598314" lon="109.490471">
<time>2016-10-06T15:17:29Z</time></trkpt>
<trkpt lat="24.598294" lon="109.49034">
<time>2016-10-06T15:17:30Z</time></trkpt>
<trkpt lat="24.598323" lon="109.49013">
<time>2016-10-06T15:17:31Z</time></trkpt>
<trkpt lat="24.598343" lon="109.489929">
<time>2016-10-06T15:17:32Z</time></trkpt>
<trkpt lat="24.598382" lon="109.489779">
<time>2016-10-06T15:17:33Z</time></trkpt>
<trkpt lat="24.598402" lon="109.489729">
<time>2016-10-06T15:17:34Z</time></trkpt>
<trkpt lat="24.598412" lon="109.489688">
<time>2016-10-06T15:17:35Z</time></trkpt>
<trkpt lat="24.598422" lon="109.489678">
<time>2016-10-06T15:17:36Z</time></trkpt>
<trkpt lat="24.598442" lon="109.489648">
<time>2016-10-06T15:17:37Z</time></trkpt>
<trkpt lat="24.598462" lon="109.489598">
<time>2016-10-06T15:17:38Z</time></trkpt>
<trkpt lat="24.598482" lon="109.489538">
<time>2016-10-06T15:17:39Z</time></trkpt>
<trkpt lat="24.598501" lon="109.489518">
<time>2016-10-06T15:17:40Z</time></trkpt>
<trkpt lat="24.598501" lon="109.489498">
<time>2016-10-06T15:17:41Z</time></trkpt>
<trkpt lat="24.598481" lon="109.489448">
<time>2016-10-06T15:17:42Z</time></trkpt>
<trkpt lat="24.598301" lon="109.489297">
<time>2016-10-06T15:17:43Z</time></trkpt>
<trkpt lat="24.598221" lon="109.489207">
<time>2016-10-06T15:17:44Z</time></trkpt>
<trkpt lat="24.59818" lon="109.489067">
<time>2016-10-06T15:17:45Z</time></trkpt>
<trkpt lat="24.59817" lon="109.489037">
<time>2016-10-06T15:17:46Z</time></trkpt>
<trkpt lat="24.598069" lon="109.488776">
<time>2016-10-06T15:17:47Z</time></trkpt>
<trkpt lat="24.598069" lon="109.488766">
<time>2016-10-06T15:17:48Z</time></trkpt>
<trkpt lat="24.597988" lon="109.488425">
<time>2016-10-06T15:17:49Z</time></trkpt>
<trkpt lat="24.597988" lon="109.488344">
<time>2016-10-06T15:17:50Z</time></trkpt>
<trkpt lat="24.597968" lon="109.488284">
<time>2016-10-06T15:17:51Z</time></trkpt>
<trkpt lat="24.597938" lon="109.488254">
<time>2016-10-06T15:17:52Z</time></trkpt>
<trkpt lat="24.597868" lon="109.488214">
<time>2016-10-06T15:17:53Z</time></trkpt>
<trkpt lat="24.597817" lon="109.488194">
<time>2016-10-06T15:17:54Z</time></trkpt>
<trkpt lat="24.597727" lon="109.488164">
<time>2016-10-06T15:17:55Z</time></trkpt>
<trkpt lat="24.597487" lon="109.488074">
<time>2016-10-06T15:17:56Z</time></trkpt>
<trkpt lat="24.597367" lon="109.488003">
<time>2016-10-06T15:17:57Z</time></trkpt>
<trkpt lat="24.597227" lon="109.487903">
<time>2016-10-06T15:17:58Z</time></trkpt>
<trkpt lat="24.597166" lon="109.487863">
<time>2016-10-06T15:17:59Z</time></trkpt>
<trkpt lat="24.597036" lon="109.487773">
<time>2016-10-06T15:18:00Z</time></trkpt>
<trkpt lat="24.596846" lon="109.487632">
<time>2016-10-06T15:18:01Z</time></trkpt>
<trkpt lat="24.596675" lon="109.487502">
<time>2016-10-06T15:18:02Z</time></trkpt>
<trkpt lat="24.596505" lon="109.487362">
<time>2016-10-06T15:18:03Z</time></trkpt>
<trkpt lat="24.596324" lon="109.487211">
<time>2016-10-06T15:18:04Z</time></trkpt>
<trkpt lat="24.596274" lon="109.487171">
<time>2016-10-06T15:18:05Z</time></trkpt>
<trkpt lat="24.595783" lon="109.48686">
<time>2016-10-06T15:18:06Z</time></trkpt>
<trkpt lat="24.594731" lon="109.486018">
<time>2016-10-06T15:18:07Z</time></trkpt>
<trkpt lat="24.59445" lon="109.485767">
<time>2016-10-06T15:18:08Z</time></trkpt>
<trkpt lat="24.594209" lon="109.485576">
<time>2016-10-06T15:18:09Z</time></trkpt>
<trkpt lat="24.594199" lon="109.485576">
<time>2016-10-06T15:18:10Z</time></trkpt>
<trkpt lat="24.593909" lon="109.485366">
<time>2016-10-06T15:18:11Z</time></trkpt>
<trkpt lat="24.593809" lon="109.485306">
<time>2016-10-06T15:18:12Z</time></trkpt>
<trkpt lat="24.593708" lon="109.485165">
<time>2016-10-06T15:18:13Z</time></trkpt>
<trkpt lat="24.593698" lon="109.485155">
<time>2016-10-06T15:18:14Z</time></trkpt>
<trkpt lat="24.593618" lon="109.485035">
<time>2016-10-06T15:18:15Z</time></trkpt>
<trkpt lat="24.593467" lon="109.484814">
<time>2016-10-06T15:18:16Z</time></trkpt>
<trkpt lat="24.593457" lon="109.484804">
<time>2016-10-06T15:18:17Z</time></trkpt>
<trkpt lat="24.593166" lon="109.484413">
<time>2016-10-06T15:18:18Z</time></trkpt>
<trkpt lat="24.592724" lon="109.483701">
<time>2016-10-06T15:18:19Z</time></trkpt>
<trkpt lat="24.592694" lon="109.483641">
<time>2016-10-06T15:18:20Z</time></trkpt>
<trkpt lat="24.592603" lon="109.48345">
<time>2016-10-06T15:18:21Z</time></trkpt>
<trkpt lat="24.592523" lon="109.48335">
<time>2016-10-06T15:18:22Z</time></trkpt>
<trkpt lat="24.592453" lon="109.48331">
<time>2016-10-06T15:18:23Z</time></trkpt>
<trkpt lat="24.592393" lon="109.48325">
<time>2016-10-06T15:18:24Z</time></trkpt>
<trkpt lat="24.592362" lon="109.48322">
<time>2016-10-06T15:18:25Z</time></trkpt>
<trkpt lat="24.592272" lon="109.483019">
<time>2016-10-06T15:18:26Z</time></trkpt>
<trkpt lat="24.592201" lon="109.482778">
<time>2016-10-06T15:18:27Z</time></trkpt>
<trkpt lat="24.59213" lon="109.482488">
<time>2016-10-06T15:18:28Z</time></trkpt>
<trkpt lat="24.592079" lon="109.482217">
<time>2016-10-06T15:18:29Z</time></trkpt>
<trkpt lat="24.59142" lon="109.482257">
<time>2016-10-06T15:18:30Z</time></trkpt>
<trkpt lat="24.59119" lon="109.482267">
<time>2016-10-06T15:18:31Z</time></trkpt>
<trkpt lat="24.59084" lon="109.482357">
<time>2016-10-06T15:18:32Z</time></trkpt>
<trkpt lat="24.59054" lon="109.482387">
<time>2016-10-06T15:18:33Z</time></trkpt>
<trkpt lat="24.59025" lon="109.482387">
<time>2016-10-06T15:18:34Z</time></trkpt>
<trkpt lat="24.59019" lon="109.482367">
<time>2016-10-06T15:18:35Z</time></trkpt>
<trkpt lat="24.59004" lon="109.482357">
<time>2016-10-06T15:18:36Z</time></trkpt>
<trkpt lat="24.5899" lon="109.482347">
<time>2016-10-06T15:18:37Z</time></trkpt>
<trkpt lat="24.58971" lon="109.482327">
<time>2016-10-06T15:18:38Z</time></trkpt>
<trkpt lat="24.58949" lon="109.482317">
<time>2016-10-06T15:18:39Z</time></trkpt>
<trkpt lat="24.58934" lon="109.482307">
<time>2016-10-06T15:18:40Z</time></trkpt>
<trkpt lat="24.58927" lon="109.482307">
<time>2016-10-06T15:18:41Z</time></trkpt>
<trkpt lat="24.58925" lon="109.482307">
<time>2016-10-06T15:18:42Z</time></trkpt>
<trkpt lat="24.58913" lon="109.482317">
<time>2016-10-06T15:18:43Z</time></trkpt>
<trkpt lat="24.58895" lon="109.482347">
<time>2016-10-06T15:18:44Z</time></trkpt>
<trkpt lat="24.58885" lon="109.482367">
<time>2016-10-06T15:18:45Z</time></trkpt>
<trkpt lat="24.58867" lon="109.482408">
<time>2016-10-06T15:18:46Z</time></trkpt>
<trkpt lat="24.58859" lon="109.482428">
<time>2016-10-06T15:18:47Z</time></trkpt>
<trkpt lat="24.58852" lon="109.482428">
<time>2016-10-06T15:18:48Z</time></trkpt>
<trkpt lat="24.58845" lon="109.482418">
<time>2016-10-06T15:18:49Z</time></trkpt>
<trkpt lat="24.58836" lon="109.482397">
<time>2016-10-06T15:18:50Z</time></trkpt>
<trkpt lat="24.58828" lon="109.482357">
<time>2016-10-06T15:18:51Z</time></trkpt>
<trkpt lat="24.58818" lon="109.482337">
<time>2016-10-06T15:18:52Z</time></trkpt>
<trkpt lat="24.588119" lon="109.482317">
<time>2016-10-06T15:18:53Z</time></trkpt>
<trkpt lat="24.588019" lon="109.482317">
<time>2016-10-06T15:18:54Z</time></trkpt>
<trkpt lat="24.587979" lon="109.482307">
<time>2016-10-06T15:18:55Z</time></trkpt>
<trkpt lat="24.587949" lon="109.482297">
<time>2016-10-06T15:18:56Z</time></trkpt>
<trkpt lat="24.587929" lon="109.482297">
<time>2016-10-06T15:18:57Z</time></trkpt>
<trkpt lat="24.587859" lon="109.482267">
<time>2016-10-06T15:18:58Z</time></trkpt>
<trkpt lat="24.587669" lon="109.482247">
<time>2016-10-06T15:18:59Z</time></trkpt>
<trkpt lat="24.587519" lon="109.482227">
<time>2016-10-06T15:19:00Z</time></trkpt>
<trkpt lat="24.587329" lon="109.482197">
<time>2016-10-06T15:19:01Z</time></trkpt>
<trkpt lat="24.587159" lon="109.482177">
<time>2016-10-06T15:19:02Z</time></trkpt>
<trkpt lat="24.586949" lon="109.482147">
<time>2016-10-06T15:19:03Z</time></trkpt>
<trkpt lat="24.586789" lon="109.482137">
<time>2016-10-06T15:19:04Z</time></trkpt>
<trkpt lat="24.586639" lon="109.482117">
<time>2016-10-06T15:19:05Z</time></trkpt>
<trkpt lat="24.586579" lon="109.482097">
<time>2016-10-06T15:19:06Z</time></trkpt>
<trkpt lat="24.586549" lon="109.482067">
<time>2016-10-06T15:19:07Z</time></trkpt>
<trkpt lat="24.586529" lon="109.482047">
<time>2016-10-06T15:19:08Z</time></trkpt>
<trkpt lat="24.586488" lon="109.481856">
<time>2016-10-06T15:19:09Z</time></trkpt>
<trkpt lat="24.586458" lon="109.481736">
<time>2016-10-06T15:19:10Z</time></trkpt>
<trkpt lat="24.586357" lon="109.481515">
<time>2016-10-06T15:19:11Z</time></trkpt>
<trkpt lat="24.586317" lon="109.481425">
<time>2016-10-06T15:19:12Z</time></trkpt>
<trkpt lat="24.586226" lon="109.481335">
<time>2016-10-06T15:19:13Z</time></trkpt>
<trkpt lat="24.586186" lon="109.481294">
<time>2016-10-06T15:19:14Z</time></trkpt>
<trkpt lat="24.586026" lon="109.481134">
<time>2016-10-06T15:19:15Z</time></trkpt>
<trkpt lat="24.585916" lon="109.481044">
<time>2016-10-06T15:19:16Z</time></trkpt>
<trkpt lat="24.585835" lon="109.480994">
<time>2016-10-06T15:19:17Z</time></trkpt>
<trkpt lat="24.585755" lon="109.480933">
<time>2016-10-06T15:19:18Z</time></trkpt>
<trkpt lat="24.585625" lon="109.480823">
<time>2016-10-06T15:19:19Z</time></trkpt>
<trkpt lat="24.585464" lon="109.480653">
<time>2016-10-06T15:19:20Z</time></trkpt>
<trkpt lat="24.585274" lon="109.480482">
<time>2016-10-06T15:19:21Z</time></trkpt>
<trkpt lat="24.585113" lon="109.480261">
<time>2016-10-06T15:19:22Z</time></trkpt>
<trkpt lat="24.585043" lon="109.480191">
<time>2016-10-06T15:19:23Z</time></trkpt>
<trkpt lat="24.584883" lon="109.480011">
<time>2016-10-06T15:19:24Z</time></trkpt>
<trkpt lat="24.584782" lon="109.479921">
<time>2016-10-06T15:19:25Z</time></trkpt>
<trkpt lat="24.584582" lon="109.47972">
<time>2016-10-06T15:19:26Z</time></trkpt>
<trkpt lat="24.584441" lon="109.4796">
<time>2016-10-06T15:19:27Z</time></trkpt>
<trkpt lat="24.5839" lon="109.479098">
<time>2016-10-06T15:19:28Z</time></trkpt>
<trkpt lat="24.583689" lon="109.478888">
<time>2016-10-06T15:19:29Z</time></trkpt>
<trkpt lat="24.583519" lon="109.478697">
<time>2016-10-06T15:19:30Z</time></trkpt>
<trkpt lat="24.583499" lon="109.478677">
<time>2016-10-06T15:19:31Z</time></trkpt>
<trkpt lat="24.583388" lon="109.478557">
<time>2016-10-06T15:19:32Z</time></trkpt>
<trkpt lat="24.583368" lon="109.478527">
<time>2016-10-06T15:19:33Z</time></trkpt>
<trkpt lat="24.583348" lon="109.478507">
<time>2016-10-06T15:19:34Z</time></trkpt>
<trkpt lat="24.583308" lon="109.478456">
<time>2016-10-06T15:19:35Z</time></trkpt>
<trkpt lat="24.583188" lon="109.478316">
<time>2016-10-06T15:19:36Z</time></trkpt>
<trkpt lat="24.582997" lon="109.478166">
<time>2016-10-06T15:19:37Z</time></trkpt>
<trkpt lat="24.582747" lon="109.477985">
<time>2016-10-06T15:19:38Z</time></trkpt>
<trkpt lat="24.582436" lon="109.477825">
<time>2016-10-06T15:19:39Z</time></trkpt>
<trkpt lat="24.582126" lon="109.477684">
<time>2016-10-06T15:19:40Z</time></trkpt>
<trkpt lat="24.581845" lon="109.477564">
<time>2016-10-06T15:19:41Z</time></trkpt>
<trkpt lat="24.581725" lon="109.477514">
<time>2016-10-06T15:19:42Z</time></trkpt>
<trkpt lat="24.581575" lon="109.477414">
<time>2016-10-06T15:19:43Z</time></trkpt>
<trkpt lat="24.581535" lon="109.477373">
<time>2016-10-06T15:19:44Z</time></trkpt>
<trkpt lat="24.581505" lon="109.477353">
<time>2016-10-06T15:19:45Z</time></trkpt>
<trkpt lat="24.581394" lon="109.477233">
<time>2016-10-06T15:19:46Z</time></trkpt>
<trkpt lat="24.581354" lon="109.477183">
<time>2016-10-06T15:19:47Z</time></trkpt>
<trkpt lat="24.581274" lon="109.477073">
<time>2016-10-06T15:19:48Z</time></trkpt>
<trkpt lat="24.581264" lon="109.477063">
<time>2016-10-06T15:19:49Z</time></trkpt>
<trkpt lat="24.581214" lon="109.477012">
<time>2016-10-06T15:19:50Z</time></trkpt>
<trkpt lat="24.581043" lon="109.476972">
<time>2016-10-06T15:19:51Z</time></trkpt>
<trkpt lat="24.580913" lon="109.476942">
<time>2016-10-06T15:19:52Z</time></trkpt>
<trkpt lat="24.580813" lon="109.476922">
<time>2016-10-06T15:19:53Z</time></trkpt>
<trkpt lat="24.580643" lon="109.476822">
<time>2016-10-06T15:19:54Z</time></trkpt>
<trkpt lat="24.580583" lon="109.476802">
<time>2016-10-06T15:19:55Z</time></trkpt>
<trkpt lat="24.580483" lon="109.476792">
<time>2016-10-06T15:19:56Z</time></trkpt>
<trkpt lat="24.580463" lon="109.476792">
<time>2016-10-06T15:19:57Z</time></trkpt>
<trkpt lat="24.580303" lon="109.476812">
<time>2016-10-06T15:19:58Z</time></trkpt>
<trkpt lat="24.580223" lon="109.476812">
<time>2016-10-06T15:19:59Z</time></trkpt>
<trkpt lat="24.580193" lon="109.476792">
<time>2016-10-06T15:20:00Z</time></trkpt>
<trkpt lat="24.580163" lon="109.476772">
<time>2016-10-06T15:20:01Z</time></trkpt>
<trkpt lat="24.580083" lon="109.476702">
<time>2016-10-06T15:20:02Z</time></trkpt>
<trkpt lat="24.579952" lon="109.476551">
<time>2016-10-06T15:20:03Z</time></trkpt>
<trkpt lat="24.579711" lon="109.47618">
<time>2016-10-06T15:20:04Z</time></trkpt>
<trkpt lat="24.579591" lon="109.47603">
<time>2016-10-06T15:20:05Z</time></trkpt>
<trkpt lat="24.579511" lon="109.47598">
<time>2016-10-06T15:20:06Z</time></trkpt>
<trkpt lat="24.57943" lon="109.47595">
<time>2016-10-06T15:20:07Z</time></trkpt>
<trkpt lat="24.57937" lon="109.475899">
<time>2016-10-06T15:20:08Z</time></trkpt>
<trkpt lat="24.57927" lon="109.475809">
<time>2016-10-06T15:20:09Z</time></trkpt>
<trkpt lat="24.578999" lon="109.475408">
<time>2016-10-06T15:20:10Z</time></trkpt>
<trkpt lat="24.578838" lon="109.475177">
<time>2016-10-06T15:20:11Z</time></trkpt>
<trkpt lat="24.578617" lon="109.474857">
<time>2016-10-06T15:20:12Z</time></trkpt>
<trkpt lat="24.578487" lon="109.474686">
<time>2016-10-06T15:20:13Z</time></trkpt>
<trkpt lat="24.578306" lon="109.474536">
<time>2016-10-06T15:20:14Z</time></trkpt>
<trkpt lat="24.577976" lon="109.474315">
<time>2016-10-06T15:20:15Z</time></trkpt>
<trkpt lat="24.577936" lon="109.474295">
<time>2016-10-06T15:20:16Z</time></trkpt>
<trkpt lat="24.577936" lon="109.474295">
<time>2016-10-06T15:20:17Z</time></trkpt>
<trkpt lat="24.577846" lon="109.474315">
<time>2016-10-06T15:20:18Z</time></trkpt>
<trkpt lat="24.577766" lon="109.474345">
<time>2016-10-06T15:20:19Z</time></trkpt>
<trkpt lat="24.577706" lon="109.474365">
<time>2016-10-06T15:20:20Z</time></trkpt>
<trkpt lat="24.577646" lon="109.474385">
<time>2016-10-06T15:20:21Z</time></trkpt>
<trkpt lat="24.577646" lon="109.474385">
<time>2016-10-06T15:20:22Z</time></trkpt>
<trkpt lat="24.577656" lon="109.474335">
<time>2016-10-06T15:20:23Z</time></trkpt>
<trkpt lat="24.577655" lon="109.474195">
<time>2016-10-06T15:20:24Z</time></trkpt>
<trkpt lat="24.577655" lon="109.474125">
<time>2016-10-06T15:20:25Z</time></trkpt>
<trkpt lat="24.577655" lon="109.474104">
<time>2016-10-06T15:20:26Z</time></trkpt>
<trkpt lat="24.577655" lon="109.474094">
<time>2016-10-06T15:20:27Z</time></trkpt>
<trkpt lat="24.577655" lon="109.474084">
<time>2016-10-06T15:20:28Z</time></trkpt>
<trkpt lat="24.577665" lon="109.474064">
<time>2016-10-06T15:20:29Z</time></trkpt>
<trkpt lat="24.577665" lon="109.474054">
<time>2016-10-06T15:20:30Z</time></trkpt>
<trkpt lat="24.577665" lon="109.474024">
<time>2016-10-06T15:20:31Z</time></trkpt>
<trkpt lat="24.577675" lon="109.473994">
<time>2016-10-06T15:20:32Z</time></trkpt>
<trkpt lat="24.577685" lon="109.473964">
<time>2016-10-06T15:20:33Z</time></trkpt>
<trkpt lat="24.577695" lon="109.473924">
<time>2016-10-06T15:20:34Z</time></trkpt>
<trkpt lat="24.577704" lon="109.473894">
<time>2016-10-06T15:20:35Z</time></trkpt>
<trkpt lat="24.577714" lon="109.473854">
<time>2016-10-06T15:20:36Z</time></trkpt>
<trkpt lat="24.577714" lon="109.473834">
<time>2016-10-06T15:20:37Z</time></trkpt>
<trkpt lat="24.577724" lon="109.473743">
<time>2016-10-06T15:20:38Z</time></trkpt>
<trkpt lat="24.577734" lon="109.473663">
<time>2016-10-06T15:20:39Z</time></trkpt>
<trkpt lat="24.577763" lon="109.473433">
<time>2016-10-06T15:20:40Z</time></trkpt>
<trkpt lat="24.577773" lon="109.473393">
<time>2016-10-06T15:20:41Z</time></trkpt>
<trkpt lat="24.577773" lon="109.473372">
<time>2016-10-06T15:20:42Z</time></trkpt>
<trkpt lat="24.577783" lon="109.473322">
<time>2016-10-06T15:20:43Z</time></trkpt>
<trkpt lat="24.577793" lon="109.473322">
<time>2016-10-06T15:20:44Z</time></trkpt>
<trkpt lat="24.577833" lon="109.473262">
<time>2016-10-06T15:20:45Z</time></trkpt>
<trkpt lat="24.577862" lon="109.473142">
<time>2016-10-06T15:20:46Z</time></trkpt>
<trkpt lat="24.577862" lon="109.473122">
<time>2016-10-06T15:20:47Z</time></trkpt>
<trkpt lat="24.577892" lon="109.473011">
<time>2016-10-06T15:20:48Z</time></trkpt>
<trkpt lat="24.577941" lon="109.472731">
<time>2016-10-06T15:20:49Z</time></trkpt>
<trkpt lat="24.577981" lon="109.4726">
<time>2016-10-06T15:20:50Z</time></trkpt>
<trkpt lat="24.57802" lon="109.47239">
<time>2016-10-06T15:20:51Z</time></trkpt>
<trkpt lat="24.57804" lon="109.472249">
<time>2016-10-06T15:20:52Z</time></trkpt>
<trkpt lat="24.57806" lon="109.472189">
<time>2016-10-06T15:20:53Z</time></trkpt>
<trkpt lat="24.578079" lon="109.472079">
<time>2016-10-06T15:20:54Z</time></trkpt>
<trkpt lat="24.578139" lon="109.471898">
<time>2016-10-06T15:20:55Z</time></trkpt>
<trkpt lat="24.578159" lon="109.471808">
<time>2016-10-06T15:20:56Z</time></trkpt>
<trkpt lat="24.578178" lon="109.471698">
<time>2016-10-06T15:20:57Z</time></trkpt>
<trkpt lat="24.578208" lon="109.471547">
<time>2016-10-06T15:20:58Z</time></trkpt>
<trkpt lat="24.578218" lon="109.471537">
<time>2016-10-06T15:20:59Z</time></trkpt>
<trkpt lat="24.578238" lon="109.471397">
<time>2016-10-06T15:21:00Z</time></trkpt>
<trkpt lat="24.578257" lon="109.471317">
<time>2016-10-06T15:21:01Z</time></trkpt>
<trkpt lat="24.578297" lon="109.471146">
<time>2016-10-06T15:21:02Z</time></trkpt>
<trkpt lat="24.578317" lon="109.471086">
<time>2016-10-06T15:21:03Z</time></trkpt>
<trkpt lat="24.578356" lon="109.470906">
<time>2016-10-06T15:21:04Z</time></trkpt>
<trkpt lat="24.578376" lon="109.470835">
<time>2016-10-06T15:21:05Z</time></trkpt>
<trkpt lat="24.578416" lon="109.470665">
<time>2016-10-06T15:21:06Z</time></trkpt>
<trkpt lat="24.578416" lon="109.470655">
<time>2016-10-06T15:21:07Z</time></trkpt>
<trkpt lat="24.578435" lon="109.470565">
<time>2016-10-06T15:21:08Z</time></trkpt>
<trkpt lat="24.578455" lon="109.470464">
<time>2016-10-06T15:21:09Z</time></trkpt>
<trkpt lat="24.578455" lon="109.470444">
<time>2016-10-06T15:21:10Z</time></trkpt>
<trkpt lat="24.578475" lon="109.470374">
<time>2016-10-06T15:21:11Z</time></trkpt>
<trkpt lat="24.578475" lon="109.470334">
<time>2016-10-06T15:21:12Z</time></trkpt>
<trkpt lat="24.578504" lon="109.470254">
<time>2016-10-06T15:21:13Z</time></trkpt>
<trkpt lat="24.578534" lon="109.470144">
<time>2016-10-06T15:21:14Z</time></trkpt>
<trkpt lat="24.578554" lon="109.470073">
<time>2016-10-06T15:21:15Z</time></trkpt>
<trkpt lat="24.578564" lon="109.469993">
<time>2016-10-06T15:21:16Z</time></trkpt>
<trkpt lat="24.578603" lon="109.469803">
<time>2016-10-06T15:21:17Z</time></trkpt>
<trkpt lat="24.578613" lon="109.469702">
<time>2016-10-06T15:21:18Z</time></trkpt>
<trkpt lat="24.578623" lon="109.469602">
<time>2016-10-06T15:21:19Z</time></trkpt>
<trkpt lat="24.578642" lon="109.469512">
<time>2016-10-06T15:21:20Z</time></trkpt>
<trkpt lat="24.578642" lon="109.469492">
<time>2016-10-06T15:21:21Z</time></trkpt>
<trkpt lat="24.578652" lon="109.469462">
<time>2016-10-06T15:21:22Z</time></trkpt>
<trkpt lat="24.578682" lon="109.469361">
<time>2016-10-06T15:21:23Z</time></trkpt>
<trkpt lat="24.578692" lon="109.469331">
<time>2016-10-06T15:21:24Z</time></trkpt>
<trkpt lat="24.578751" lon="109.469071">
<time>2016-10-06T15:21:25Z</time></trkpt>
<trkpt lat="24.578751" lon="109.469031">
<time>2016-10-06T15:21:26Z</time></trkpt>
<trkpt lat="24.57881" lon="109.46867">
<time>2016-10-06T15:21:27Z</time></trkpt>
<trkpt lat="24.57882" lon="109.46864">
<time>2016-10-06T15:21:28Z</time></trkpt>
<trkpt lat="24.578889" lon="109.468289">
<time>2016-10-06T15:21:29Z</time></trkpt>
<trkpt lat="24.578889" lon="109.468269">
<time>2016-10-06T15:21:30Z</time></trkpt>
<trkpt lat="24.578929" lon="109.468108">
<time>2016-10-06T15:21:31Z</time></trkpt>
<trkpt lat="24.578988" lon="109.467898">
<time>2016-10-06T15:21:32Z</time></trkpt>
<trkpt lat="24.578998" lon="109.467837">
<time>2016-10-06T15:21:33Z</time></trkpt>
<trkpt lat="24.579028" lon="109.467747">
<time>2016-10-06T15:21:34Z</time></trkpt>
<trkpt lat="24.579038" lon="109.467697">
<time>2016-10-06T15:21:35Z</time></trkpt>
<trkpt lat="24.579057" lon="109.467557">
<time>2016-10-06T15:21:36Z</time></trkpt>
<trkpt lat="24.579067" lon="109.467507">
<time>2016-10-06T15:21:37Z</time></trkpt>
<trkpt lat="24.579087" lon="109.467426">
<time>2016-10-06T15:21:38Z</time></trkpt>
<trkpt lat="24.579087" lon="109.467416">
<time>2016-10-06T15:21:39Z</time></trkpt>
<trkpt lat="24.579116" lon="109.467296">
<time>2016-10-06T15:21:40Z</time></trkpt>
<trkpt lat="24.579215" lon="109.466905">
<time>2016-10-06T15:21:41Z</time></trkpt>
<trkpt lat="24.579225" lon="109.466875">
<time>2016-10-06T15:21:42Z</time></trkpt>
<trkpt lat="24.579344" lon="109.466323">
<time>2016-10-06T15:21:43Z</time></trkpt>
<trkpt lat="24.579383" lon="109.466153">
<time>2016-10-06T15:21:44Z</time></trkpt>
<trkpt lat="24.579413" lon="109.466023">
<time>2016-10-06T15:21:45Z</time></trkpt>
<trkpt lat="24.579423" lon="109.465962">
<time>2016-10-06T15:21:46Z</time></trkpt>
<trkpt lat="24.579433" lon="109.465922">
<time>2016-10-06T15:21:47Z</time></trkpt>
<trkpt lat="24.579433" lon="109.465912">
<time>2016-10-06T15:21:48Z</time></trkpt>
<trkpt lat="24.579443" lon="109.465882">
<time>2016-10-06T15:21:49Z</time></trkpt>
<trkpt lat="24.579453" lon="109.465832">
<time>2016-10-06T15:21:50Z</time></trkpt>
<trkpt lat="24.579452" lon="109.465792">
<time>2016-10-06T15:21:51Z</time></trkpt>
<trkpt lat="24.579452" lon="109.465752">
<time>2016-10-06T15:21:52Z</time></trkpt>
<trkpt lat="24.579452" lon="109.465702">
<time>2016-10-06T15:21:53Z</time></trkpt>
<trkpt lat="24.579452" lon="109.465642">
<time>2016-10-06T15:21:54Z</time></trkpt>
<trkpt lat="24.579452" lon="109.465622">
<time>2016-10-06T15:21:55Z</time></trkpt>
<trkpt lat="24.579452" lon="109.465612">
<time>2016-10-06T15:21:56Z</time></trkpt>
<trkpt lat="24.579442" lon="109.465592">
<time>2016-10-06T15:21:57Z</time></trkpt>
<trkpt lat="24.579442" lon="109.465551">
<time>2016-10-06T15:21:58Z</time></trkpt>
<trkpt lat="24.579432" lon="109.465531">
<time>2016-10-06T15:21:59Z</time></trkpt>
<trkpt lat="24.579361" lon="109.465421">
<time>2016-10-06T15:22:00Z</time></trkpt>
<trkpt lat="24.579351" lon="109.465371">
<time>2016-10-06T15:22:01Z</time></trkpt>
<trkpt lat="24.579341" lon="109.465301">
<time>2016-10-06T15:22:02Z</time></trkpt>
<trkpt lat="24.579351" lon="109.465231">
<time>2016-10-06T15:22:03Z</time></trkpt>
<trkpt lat="24.579351" lon="109.46517">
<time>2016-10-06T15:22:04Z</time></trkpt>
<trkpt lat="24.579371" lon="109.46509">
<time>2016-10-06T15:22:05Z</time></trkpt>
<trkpt lat="24.579381" lon="109.46508">
<time>2016-10-06T15:22:06Z</time></trkpt>
<trkpt lat="24.579381" lon="109.46507">
<time>2016-10-06T15:22:07Z</time></trkpt>
<trkpt lat="24.5794" lon="109.46502">
<time>2016-10-06T15:22:08Z</time></trkpt>
<trkpt lat="24.57944" lon="109.46493">
<time>2016-10-06T15:22:09Z</time></trkpt>
<trkpt lat="24.57947" lon="109.46488">
<time>2016-10-06T15:22:10Z</time></trkpt>
<trkpt lat="24.57953" lon="109.464789">
<time>2016-10-06T15:22:11Z</time></trkpt>
<trkpt lat="24.5796" lon="109.464699">
<time>2016-10-06T15:22:12Z</time></trkpt>
<trkpt lat="24.579659" lon="109.464599">
<time>2016-10-06T15:22:13Z</time></trkpt>
<trkpt lat="24.579729" lon="109.464469">
<time>2016-10-06T15:22:14Z</time></trkpt>
<trkpt lat="24.579779" lon="109.464388">
<time>2016-10-06T15:22:15Z</time></trkpt>
<trkpt lat="24.579888" lon="109.464238">
<time>2016-10-06T15:22:16Z</time></trkpt>
<trkpt lat="24.579988" lon="109.464098">
<time>2016-10-06T15:22:17Z</time></trkpt>
<trkpt lat="24.580058" lon="109.464007">
<time>2016-10-06T15:22:18Z</time></trkpt>
<trkpt lat="24.580088" lon="109.463957">
<time>2016-10-06T15:22:19Z</time></trkpt>
<trkpt lat="24.580157" lon="109.463867">
<time>2016-10-06T15:22:20Z</time></trkpt>
<trkpt lat="24.580187" lon="109.463797">
<time>2016-10-06T15:22:21Z</time></trkpt>
<trkpt lat="24.580227" lon="109.463707">
<time>2016-10-06T15:22:22Z</time></trkpt>
<trkpt lat="24.580267" lon="109.463626">
<time>2016-10-06T15:22:23Z</time></trkpt>
<trkpt lat="24.580277" lon="109.463596">
<time>2016-10-06T15:22:24Z</time></trkpt>
<trkpt lat="24.580287" lon="109.463546">
<time>2016-10-06T15:22:25Z</time></trkpt>
<trkpt lat="24.580297" lon="109.463516">
<time>2016-10-06T15:22:26Z</time></trkpt>
<trkpt lat="24.580316" lon="109.463426">
<time>2016-10-06T15:22:27Z</time></trkpt>
<trkpt lat="24.580316" lon="109.463346">
<time>2016-10-06T15:22:28Z</time></trkpt>
<trkpt lat="24.580316" lon="109.463286">
<time>2016-10-06T15:22:29Z</time></trkpt>
<trkpt lat="24.580316" lon="109.463215">
<time>2016-10-06T15:22:30Z</time></trkpt>
<trkpt lat="24.580305" lon="109.463005">
<time>2016-10-06T15:22:31Z</time></trkpt>
<trkpt lat="24.580295" lon="109.462804">
<time>2016-10-06T15:22:32Z</time></trkpt>
<trkpt lat="24.580274" lon="109.462504">
<time>2016-10-06T15:22:33Z</time></trkpt>
<trkpt lat="24.580253" lon="109.462203">
<time>2016-10-06T15:22:34Z</time></trkpt>
<trkpt lat="24.580232" lon="109.461942">
<time>2016-10-06T15:22:35Z</time></trkpt>
<trkpt lat="24.580222" lon="109.461712">
<time>2016-10-06T15:22:36Z</time></trkpt>
<trkpt lat="24.580221" lon="109.461501">
<time>2016-10-06T15:22:37Z</time></trkpt>
<trkpt lat="24.580231" lon="109.461451">
<time>2016-10-06T15:22:38Z</time></trkpt>
<trkpt lat="24.580231" lon="109.461391">
<time>2016-10-06T15:22:39Z</time></trkpt>
<trkpt lat="24.580241" lon="109.461321">
<time>2016-10-06T15:22:40Z</time></trkpt>
<trkpt lat="24.580251" lon="109.461281">
<time>2016-10-06T15:22:41Z</time></trkpt>
<trkpt lat="24.580261" lon="109.461251">
<time>2016-10-06T15:22:42Z</time></trkpt>
<trkpt lat="24.580281" lon="109.46119">
<time>2016-10-06T15:22:43Z</time></trkpt>
<trkpt lat="24.58029" lon="109.46116">
<time>2016-10-06T15:22:44Z</time></trkpt>
<trkpt lat="24.58037" lon="109.461">
<time>2016-10-06T15:22:45Z</time></trkpt>
<trkpt lat="24.58043" lon="109.46085">
<time>2016-10-06T15:22:46Z</time></trkpt>
<trkpt lat="24.580499" lon="109.460709">
<time>2016-10-06T15:22:47Z</time></trkpt>
<trkpt lat="24.580539" lon="109.460609">
<time>2016-10-06T15:22:48Z</time></trkpt>
<trkpt lat="24.580599" lon="109.460449">
<time>2016-10-06T15:22:49Z</time></trkpt>
<trkpt lat="24.580658" lon="109.460278">
<time>2016-10-06T15:22:50Z</time></trkpt>
<trkpt lat="24.580728" lon="109.460038">
<time>2016-10-06T15:22:51Z</time></trkpt>
<trkpt lat="24.580748" lon="109.459977">
<time>2016-10-06T15:22:52Z</time></trkpt>
<trkpt lat="24.580767" lon="109.459947">
<time>2016-10-06T15:22:53Z</time></trkpt>
<trkpt lat="24.580777" lon="109.459927">
<time>2016-10-06T15:22:54Z</time></trkpt>
<trkpt lat="24.580807" lon="109.459897">
<time>2016-10-06T15:22:55Z</time></trkpt>
<trkpt lat="24.580847" lon="109.459857">
<time>2016-10-06T15:22:56Z</time></trkpt>
<trkpt lat="24.580867" lon="109.459837">
<time>2016-10-06T15:22:57Z</time></trkpt>
<trkpt lat="24.580937" lon="109.459777">
<time>2016-10-06T15:22:58Z</time></trkpt>
<trkpt lat="24.580987" lon="109.459737">
<time>2016-10-06T15:22:59Z</time></trkpt>
<trkpt lat="24.581017" lon="109.459677">
<time>2016-10-06T15:23:00Z</time></trkpt>
<trkpt lat="24.581047" lon="109.459617">
<time>2016-10-06T15:23:01Z</time></trkpt>
<trkpt lat="24.581076" lon="109.459526">
<time>2016-10-06T15:23:02Z</time></trkpt>
<trkpt lat="24.581086" lon="109.459446">
<time>2016-10-06T15:23:03Z</time></trkpt>
<trkpt lat="24.581086" lon="109.459436">
<time>2016-10-06T15:23:04Z</time></trkpt>
<trkpt lat="24.581086" lon="109.459416">
<time>2016-10-06T15:23:05Z</time></trkpt>
<trkpt lat="24.581126" lon="109.459206">
<time>2016-10-06T15:23:06Z</time></trkpt>
<trkpt lat="24.581155" lon="109.459055">
<time>2016-10-06T15:23:07Z</time></trkpt>
<trkpt lat="24.581195" lon="109.458915">
<time>2016-10-06T15:23:08Z</time></trkpt>
<trkpt lat="24.581225" lon="109.458835">
<time>2016-10-06T15:23:09Z</time></trkpt>
<trkpt lat="24.581245" lon="109.458764">
<time>2016-10-06T15:23:10Z</time></trkpt>
<trkpt lat="24.581264" lon="109.458694">
<time>2016-10-06T15:23:11Z</time></trkpt>
<trkpt lat="24.581324" lon="109.458514">
<time>2016-10-06T15:23:12Z</time></trkpt>
<trkpt lat="24.581364" lon="109.458333">
<time>2016-10-06T15:23:13Z</time></trkpt>
<trkpt lat="24.581383" lon="109.458283">
<time>2016-10-06T15:23:14Z</time></trkpt>
<trkpt lat="24.581383" lon="109.458263">
<time>2016-10-06T15:23:15Z</time></trkpt>
<trkpt lat="24.581393" lon="109.458253">
<time>2016-10-06T15:23:16Z</time></trkpt>
<trkpt lat="24.581413" lon="109.458223">
<time>2016-10-06T15:23:17Z</time></trkpt>
<trkpt lat="24.581433" lon="109.458183">
<time>2016-10-06T15:23:18Z</time></trkpt>
<trkpt lat="24.581483" lon="109.458103">
<time>2016-10-06T15:23:19Z</time></trkpt>
<trkpt lat="24.581543" lon="109.458023">
<time>2016-10-06T15:23:20Z</time></trkpt>
<trkpt lat="24.581563" lon="109.457993">
<time>2016-10-06T15:23:21Z</time></trkpt>
<trkpt lat="24.581583" lon="109.457953">
<time>2016-10-06T15:23:22Z</time></trkpt>
<trkpt lat="24.581622" lon="109.457862">
<time>2016-10-06T15:23:23Z</time></trkpt>
<trkpt lat="24.581642" lon="109.457802">
<time>2016-10-06T15:23:24Z</time></trkpt>
<trkpt lat="24.581652" lon="109.457772">
<time>2016-10-06T15:23:25Z</time></trkpt>
<trkpt lat="24.581662" lon="109.457692">
<time>2016-10-06T15:23:26Z</time></trkpt>
<trkpt lat="24.581682" lon="109.457612">
<time>2016-10-06T15:23:27Z</time></trkpt>
<trkpt lat="24.581702" lon="109.457542">
<time>2016-10-06T15:23:28Z</time></trkpt>
<trkpt lat="24.581711" lon="109.457471">
<time>2016-10-06T15:23:29Z</time></trkpt>
<trkpt lat="24.581711" lon="109.457431">
<time>2016-10-06T15:23:30Z</time></trkpt>
<trkpt lat="24.581721" lon="109.457311">
<time>2016-10-06T15:23:31Z</time></trkpt>
<trkpt lat="24.581721" lon="109.457281">
<time>2016-10-06T15:23:32Z</time></trkpt>
<trkpt lat="24.581721" lon="109.457241">
<time>2016-10-06T15:23:33Z</time></trkpt>
<trkpt lat="24.581731" lon="109.457141">
<time>2016-10-06T15:23:34Z</time></trkpt>
<trkpt lat="24.58173" lon="109.45687">
<time>2016-10-06T15:23:35Z</time></trkpt>
<trkpt lat="24.58174" lon="109.45673">
<time>2016-10-06T15:23:36Z</time></trkpt>
<trkpt lat="24.581749" lon="109.456599">
<time>2016-10-06T15:23:37Z</time></trkpt>
<trkpt lat="24.581759" lon="109.456499">
<time>2016-10-06T15:23:38Z</time></trkpt>
<trkpt lat="24.581769" lon="109.456409">
<time>2016-10-06T15:23:39Z</time></trkpt>
<trkpt lat="24.581769" lon="109.456289">
<time>2016-10-06T15:23:40Z</time></trkpt>
<trkpt lat="24.581758" lon="109.456198">
<time>2016-10-06T15:23:41Z</time></trkpt>
<trkpt lat="24.581748" lon="109.456068">
<time>2016-10-06T15:23:42Z</time></trkpt>
<trkpt lat="24.581707" lon="109.455818">
<time>2016-10-06T15:23:43Z</time></trkpt>
<trkpt lat="24.581687" lon="109.455687">
<time>2016-10-06T15:23:44Z</time></trkpt>
<trkpt lat="24.581687" lon="109.455627">
<time>2016-10-06T15:23:45Z</time></trkpt>
<trkpt lat="24.581677" lon="109.455547">
<time>2016-10-06T15:23:46Z</time></trkpt>
<trkpt lat="24.581666" lon="109.455377">
<time>2016-10-06T15:23:47Z</time></trkpt>
<trkpt lat="24.581666" lon="109.455256">
<time>2016-10-06T15:23:48Z</time></trkpt>
<trkpt lat="24.581656" lon="109.455116">
<time>2016-10-06T15:23:49Z</time></trkpt>
<trkpt lat="24.581666" lon="109.455056">
<time>2016-10-06T15:23:50Z</time></trkpt>
<trkpt lat="24.581666" lon="109.455026">
<time>2016-10-06T15:23:51Z</time></trkpt>
<trkpt lat="24.581675" lon="109.454976">
<time>2016-10-06T15:23:52Z</time></trkpt>
<trkpt lat="24.581685" lon="109.454936">
<time>2016-10-06T15:23:53Z</time></trkpt>
<trkpt lat="24.581715" lon="109.454855">
<time>2016-10-06T15:23:54Z</time></trkpt>
<trkpt lat="24.581725" lon="109.454855">
<time>2016-10-06T15:23:55Z</time></trkpt>
<trkpt lat="24.581735" lon="109.454825">
<time>2016-10-06T15:23:56Z</time></trkpt>
<trkpt lat="24.581755" lon="109.454815">
<time>2016-10-06T15:23:57Z</time></trkpt>
<trkpt lat="24.581775" lon="109.454795">
<time>2016-10-06T15:23:58Z</time></trkpt>
<trkpt lat="24.581805" lon="109.454775">
<time>2016-10-06T15:23:59Z</time></trkpt>
<trkpt lat="24.581855" lon="109.454745">
<time>2016-10-06T15:24:00Z</time></trkpt>
<trkpt lat="24.581945" lon="109.454685">
<time>2016-10-06T15:24:01Z</time></trkpt>
<trkpt lat="24.581995" lon="109.454645">
<time>2016-10-06T15:24:02Z</time></trkpt>
<trkpt lat="24.582025" lon="109.454625">
<time>2016-10-06T15:24:03Z</time></trkpt>
<trkpt lat="24.582045" lon="109.454605">
<time>2016-10-06T15:24:04Z</time></trkpt>
<trkpt lat="24.582075" lon="109.454565">
<time>2016-10-06T15:24:05Z</time></trkpt>
<trkpt lat="24.582104" lon="109.454525">
<time>2016-10-06T15:24:06Z</time></trkpt>
<trkpt lat="24.582124" lon="109.454495">
<time>2016-10-06T15:24:07Z</time></trkpt>
<trkpt lat="24.582144" lon="109.454454">
<time>2016-10-06T15:24:08Z</time></trkpt>
<trkpt lat="24.582164" lon="109.454384">
<time>2016-10-06T15:24:09Z</time></trkpt>
<trkpt lat="24.582174" lon="109.454324">
<time>2016-10-06T15:24:10Z</time></trkpt>
<trkpt lat="24.582184" lon="109.454264">
<time>2016-10-06T15:24:11Z</time></trkpt>
<trkpt lat="24.582194" lon="109.454204">
<time>2016-10-06T15:24:12Z</time></trkpt>
<trkpt lat="24.582194" lon="109.454134">
<time>2016-10-06T15:24:13Z</time></trkpt>
<trkpt lat="24.582193" lon="109.454064">
<time>2016-10-06T15:24:14Z</time></trkpt>
<trkpt lat="24.582193" lon="109.454013">
<time>2016-10-06T15:24:15Z</time></trkpt>
<trkpt lat="24.582183" lon="109.453973">
<time>2016-10-06T15:24:16Z</time></trkpt>
<trkpt lat="24.582163" lon="109.453923">
<time>2016-10-06T15:24:17Z</time></trkpt>
<trkpt lat="24.582133" lon="109.453843">
<time>2016-10-06T15:24:18Z</time></trkpt>
<trkpt lat="24.582113" lon="109.453793">
<time>2016-10-06T15:24:19Z</time></trkpt>
<trkpt lat="24.582103" lon="109.453773">
<time>2016-10-06T15:24:20Z</time></trkpt>
<trkpt lat="24.582093" lon="109.453723">
<time>2016-10-06T15:24:21Z</time></trkpt>
<trkpt lat="24.582082" lon="109.453673">
<time>2016-10-06T15:24:22Z</time></trkpt>
<trkpt lat="24.582082" lon="109.453663">
<time>2016-10-06T15:24:23Z</time></trkpt>
<trkpt lat="24.582072" lon="109.453623">
<time>2016-10-06T15:24:24Z</time></trkpt>
<trkpt lat="24.582062" lon="109.453573">
<time>2016-10-06T15:24:25Z</time></trkpt>
<trkpt lat="24.582052" lon="109.453472">
<time>2016-10-06T15:24:26Z</time></trkpt>
<trkpt lat="24.582052" lon="109.453372">
<time>2016-10-06T15:24:27Z</time></trkpt>
<trkpt lat="24.582031" lon="109.453162">
<time>2016-10-06T15:24:28Z</time></trkpt>
<trkpt lat="24.582031" lon="109.453071">
<time>2016-10-06T15:24:29Z</time></trkpt>
<trkpt lat="24.582021" lon="109.453051">
<time>2016-10-06T15:24:30Z</time></trkpt>
<trkpt lat="24.582031" lon="109.452971">
<time>2016-10-06T15:24:31Z</time></trkpt>
<trkpt lat="24.582031" lon="109.452921">
<time>2016-10-06T15:24:32Z</time></trkpt>
<trkpt lat="24.582031" lon="109.452871">
<time>2016-10-06T15:24:33Z</time></trkpt>
<trkpt lat="24.58204" lon="109.452821">
<time>2016-10-06T15:24:34Z</time></trkpt>
<trkpt lat="24.58204" lon="109.452771">
<time>2016-10-06T15:24:35Z</time></trkpt>
<trkpt lat="24.58206" lon="109.452701">
<time>2016-10-06T15:24:36Z</time></trkpt>
<trkpt lat="24.58206" lon="109.452691">
<time>2016-10-06T15:24:37Z</time></trkpt>
<trkpt lat="24.58206" lon="109.452681">
<time>2016-10-06T15:24:38Z</time></trkpt>
<trkpt lat="24.58209" lon="109.4526">
<time>2016-10-06T15:24:39Z</time></trkpt>
<trkpt lat="24.58217" lon="109.45241">
<time>2016-10-06T15:24:40Z</time></trkpt>
<trkpt lat="24.582169" lon="109.45239">
<time>2016-10-06T15:24:41Z</time></trkpt>
<trkpt lat="24.582189" lon="109.45233">
<time>2016-10-06T15:24:42Z</time></trkpt>
<trkpt lat="24.582199" lon="109.4523">
<time>2016-10-06T15:24:43Z</time></trkpt>
<trkpt lat="24.582209" lon="109.45222">
<time>2016-10-06T15:24:44Z</time></trkpt>
<trkpt lat="24.582219" lon="109.452169">
<time>2016-10-06T15:24:45Z</time></trkpt>
<trkpt lat="24.582239" lon="109.452109">
<time>2016-10-06T15:24:46Z</time></trkpt>
<trkpt lat="24.582259" lon="109.452059">
<time>2016-10-06T15:24:47Z</time></trkpt>
<trkpt lat="24.582279" lon="109.452019">
<time>2016-10-06T15:24:48Z</time></trkpt>
<trkpt lat="24.582319" lon="109.451959">
<time>2016-10-06T15:24:49Z</time></trkpt>
<trkpt lat="24.582338" lon="109.451919">
<time>2016-10-06T15:24:50Z</time></trkpt>
<trkpt lat="24.582378" lon="109.451869">
<time>2016-10-06T15:24:51Z</time></trkpt>
<trkpt lat="24.582418" lon="109.451819">
<time>2016-10-06T15:24:52Z</time></trkpt>
<trkpt lat="24.582468" lon="109.451779">
<time>2016-10-06T15:24:53Z</time></trkpt>
<trkpt lat="24.582578" lon="109.451678">
<time>2016-10-06T15:24:54Z</time></trkpt>
<trkpt lat="24.582618" lon="109.451648">
<time>2016-10-06T15:24:55Z</time></trkpt>
<trkpt lat="24.582648" lon="109.451608">
<time>2016-10-06T15:24:56Z</time></trkpt>
<trkpt lat="24.582668" lon="109.451588">
<time>2016-10-06T15:24:57Z</time></trkpt>
<trkpt lat="24.582688" lon="109.451568">
<time>2016-10-06T15:24:58Z</time></trkpt>
<trkpt lat="24.582698" lon="109.451558">
<time>2016-10-06T15:24:59Z</time></trkpt>
<trkpt lat="24.582708" lon="109.451528">
<time>2016-10-06T15:25:00Z</time></trkpt>
<trkpt lat="24.582728" lon="109.451498">
<time>2016-10-06T15:25:01Z</time></trkpt>
<trkpt lat="24.582757" lon="109.451448">
<time>2016-10-06T15:25:02Z</time></trkpt>
<trkpt lat="24.582777" lon="109.451398">
<time>2016-10-06T15:25:03Z</time></trkpt>
<trkpt lat="24.582797" lon="109.451338">
<time>2016-10-06T15:25:04Z</time></trkpt>
<trkpt lat="24.582837" lon="109.451237">
<time>2016-10-06T15:25:05Z</time></trkpt>
<trkpt lat="24.582867" lon="109.451097">
<time>2016-10-06T15:25:06Z</time></trkpt>
<trkpt lat="24.582867" lon="109.451077">
<time>2016-10-06T15:25:07Z</time></trkpt>
<trkpt lat="24.582896" lon="109.450967">
<time>2016-10-06T15:25:08Z</time></trkpt>
<trkpt lat="24.582916" lon="109.450877">
<time>2016-10-06T15:25:09Z</time></trkpt>
<trkpt lat="24.582936" lon="109.450796">
<time>2016-10-06T15:25:10Z</time></trkpt>
<trkpt lat="24.582966" lon="109.450666">
<time>2016-10-06T15:25:11Z</time></trkpt>
<trkpt lat="24.582995" lon="109.450566">
<time>2016-10-06T15:25:12Z</time></trkpt>
<trkpt lat="24.583005" lon="109.450536">
<time>2016-10-06T15:25:13Z</time></trkpt>
<trkpt lat="24.583025" lon="109.450466">
<time>2016-10-06T15:25:14Z</time></trkpt>
<trkpt lat="24.583035" lon="109.450456">
<time>2016-10-06T15:25:15Z</time></trkpt>
<trkpt lat="24.583045" lon="109.450406">
<time>2016-10-06T15:25:16Z</time></trkpt>
<trkpt lat="24.583075" lon="109.450335">
<time>2016-10-06T15:25:17Z</time></trkpt>
<trkpt lat="24.583135" lon="109.450215">
<time>2016-10-06T15:25:18Z</time></trkpt>
<trkpt lat="24.583155" lon="109.450175">
<time>2016-10-06T15:25:19Z</time></trkpt>
<trkpt lat="24.583164" lon="109.450125">
<time>2016-10-06T15:25:20Z</time></trkpt>
<trkpt lat="24.583174" lon="109.450075">
<time>2016-10-06T15:25:21Z</time></trkpt>
<trkpt lat="24.583184" lon="109.450025">
<time>2016-10-06T15:25:22Z</time></trkpt>
<trkpt lat="24.583194" lon="109.449965">
<time>2016-10-06T15:25:23Z</time></trkpt>
<trkpt lat="24.583204" lon="109.449925">
<time>2016-10-06T15:25:24Z</time></trkpt>
<trkpt lat="24.583214" lon="109.449875">
<time>2016-10-06T15:25:25Z</time></trkpt>
<trkpt lat="24.583214" lon="109.449824">
<time>2016-10-06T15:25:26Z</time></trkpt>
<trkpt lat="24.583214" lon="109.449764">
<time>2016-10-06T15:25:27Z</time></trkpt>
<trkpt lat="24.583214" lon="109.449704">
<time>2016-10-06T15:25:28Z</time></trkpt>
<trkpt lat="24.583213" lon="109.449634">
<time>2016-10-06T15:25:29Z</time></trkpt>
<trkpt lat="24.583193" lon="109.449534">
<time>2016-10-06T15:25:30Z</time></trkpt>
<trkpt lat="24.583183" lon="109.449384">
<time>2016-10-06T15:25:31Z</time></trkpt>
<trkpt lat="24.583163" lon="109.449223">
<time>2016-10-06T15:25:32Z</time></trkpt>
<trkpt lat="24.583142" lon="109.449113">
<time>2016-10-06T15:25:33Z</time></trkpt>
<trkpt lat="24.583132" lon="109.448983">
<time>2016-10-06T15:25:34Z</time></trkpt>
<trkpt lat="24.583122" lon="109.448933">
<time>2016-10-06T15:25:35Z</time></trkpt>
<trkpt lat="24.583122" lon="109.448893">
<time>2016-10-06T15:25:36Z</time></trkpt>
<trkpt lat="24.583122" lon="109.448882">
<time>2016-10-06T15:25:37Z</time></trkpt>
<trkpt lat="24.583132" lon="109.448872">
<time>2016-10-06T15:25:38Z</time></trkpt>
<trkpt lat="24.583132" lon="109.448832">
<time>2016-10-06T15:25:39Z</time></trkpt>
<trkpt lat="24.583132" lon="109.448792">
<time>2016-10-06T15:25:40Z</time></trkpt>
<trkpt lat="24.583161" lon="109.448642">
<time>2016-10-06T15:25:41Z</time></trkpt>
<trkpt lat="24.583161" lon="109.448622">
<time>2016-10-06T15:25:42Z</time></trkpt>
<trkpt lat="24.583181" lon="109.448522">
<time>2016-10-06T15:25:43Z</time></trkpt>
<trkpt lat="24.583201" lon="109.448442">
<time>2016-10-06T15:25:44Z</time></trkpt>
<trkpt lat="24.58322" lon="109.448261">
<time>2016-10-06T15:25:45Z</time></trkpt>
<trkpt lat="24.58324" lon="109.448121">
<time>2016-10-06T15:25:46Z</time></trkpt>
<trkpt lat="24.58325" lon="109.448071">
<time>2016-10-06T15:25:47Z</time></trkpt>
<trkpt lat="24.58326" lon="109.448021">
<time>2016-10-06T15:25:48Z</time></trkpt>
<trkpt lat="24.5833" lon="109.447901">
<time>2016-10-06T15:25:49Z</time></trkpt>
<trkpt lat="24.58332" lon="109.44785">
<time>2016-10-06T15:25:50Z</time></trkpt>
<trkpt lat="24.583329" lon="109.44781">
<time>2016-10-06T15:25:51Z</time></trkpt>
<trkpt lat="24.583339" lon="109.4478">
<time>2016-10-06T15:25:52Z</time></trkpt>
<trkpt lat="24.583339" lon="109.44779">
<time>2016-10-06T15:25:53Z</time></trkpt>
<trkpt lat="24.583349" lon="109.44777">
<time>2016-10-06T15:25:54Z</time></trkpt>
<trkpt lat="24.583349" lon="109.44776">
<time>2016-10-06T15:25:55Z</time></trkpt>
<trkpt lat="24.583349" lon="109.44775">
<time>2016-10-06T15:25:56Z</time></trkpt>
<trkpt lat="24.583359" lon="109.44774">
<time>2016-10-06T15:25:57Z</time></trkpt>
<trkpt lat="24.583359" lon="109.44771">
<time>2016-10-06T15:25:58Z</time></trkpt>
<trkpt lat="24.583359" lon="109.44768">
<time>2016-10-06T15:25:59Z</time></trkpt>
<trkpt lat="24.583369" lon="109.44764">
<time>2016-10-06T15:26:00Z</time></trkpt>
<trkpt lat="24.583369" lon="109.4476">
<time>2016-10-06T15:26:01Z</time></trkpt>
<trkpt lat="24.583369" lon="109.44754">
<time>2016-10-06T15:26:02Z</time></trkpt>
<trkpt lat="24.583359" lon="109.44748">
<time>2016-10-06T15:26:03Z</time></trkpt>
<trkpt lat="24.583359" lon="109.44743">
<time>2016-10-06T15:26:04Z</time></trkpt>
<trkpt lat="24.583359" lon="109.447389">
<time>2016-10-06T15:26:05Z</time></trkpt>
<trkpt lat="24.583359" lon="109.447369">
<time>2016-10-06T15:26:06Z</time></trkpt>
<trkpt lat="24.583348" lon="109.447309">
<time>2016-10-06T15:26:07Z</time></trkpt>
<trkpt lat="24.583338" lon="109.447259">
<time>2016-10-06T15:26:08Z</time></trkpt>
<trkpt lat="24.583328" lon="109.447209">
<time>2016-10-06T15:26:09Z</time></trkpt>
<trkpt lat="24.583328" lon="109.447179">
<time>2016-10-06T15:26:10Z</time></trkpt>
<trkpt lat="24.583328" lon="109.447119">
<time>2016-10-06T15:26:11Z</time></trkpt>
<trkpt lat="24.583328" lon="109.447069">
<time>2016-10-06T15:26:12Z</time></trkpt>
<trkpt lat="24.583328" lon="109.447029">
<time>2016-10-06T15:26:13Z</time></trkpt>
<trkpt lat="24.583328" lon="109.446999">
<time>2016-10-06T15:26:14Z</time></trkpt>
<trkpt lat="24.583338" lon="109.446969">
<time>2016-10-06T15:26:15Z</time></trkpt>
<trkpt lat="24.583348" lon="109.446919">
<time>2016-10-06T15:26:16Z</time></trkpt>
<trkpt lat="24.583348" lon="109.446909">
<time>2016-10-06T15:26:17Z</time></trkpt>
<trkpt lat="24.583358" lon="109.446889">
<time>2016-10-06T15:26:18Z</time></trkpt>
<trkpt lat="24.583367" lon="109.446858">
<time>2016-10-06T15:26:19Z</time></trkpt>
<trkpt lat="24.583377" lon="109.446838">
<time>2016-10-06T15:26:20Z</time></trkpt>
<trkpt lat="24.583407" lon="109.446778">
<time>2016-10-06T15:26:21Z</time></trkpt>
<trkpt lat="24.583477" lon="109.446668">
<time>2016-10-06T15:26:22Z</time></trkpt>
<trkpt lat="24.583567" lon="109.446578">
<time>2016-10-06T15:26:23Z</time></trkpt>
<trkpt lat="24.583617" lon="109.446528">
<time>2016-10-06T15:26:24Z</time></trkpt>
<trkpt lat="24.583826" lon="109.446367">
<time>2016-10-06T15:26:25Z</time></trkpt>
<trkpt lat="24.583886" lon="109.446337">
<time>2016-10-06T15:26:26Z</time></trkpt>
<trkpt lat="24.584056" lon="109.446237">
<time>2016-10-06T15:26:27Z</time></trkpt>
<trkpt lat="24.584166" lon="109.446177">
<time>2016-10-06T15:26:28Z</time></trkpt>
<trkpt lat="24.584226" lon="109.446147">
<time>2016-10-06T15:26:29Z</time></trkpt>
<trkpt lat="24.584326" lon="109.446057">
<time>2016-10-06T15:26:30Z</time></trkpt>
<trkpt lat="24.584366" lon="109.446007">
<time>2016-10-06T15:26:31Z</time></trkpt>
<trkpt lat="24.584446" lon="109.445907">
<time>2016-10-06T15:26:32Z</time></trkpt>
<trkpt lat="24.584525" lon="109.445806">
<time>2016-10-06T15:26:33Z</time></trkpt>
<trkpt lat="24.584655" lon="109.445556">
<time>2016-10-06T15:26:34Z</time></trkpt>
<trkpt lat="24.584695" lon="109.445496">
<time>2016-10-06T15:26:35Z</time></trkpt>
<trkpt lat="24.584745" lon="109.445446">
<time>2016-10-06T15:26:36Z</time></trkpt>
<trkpt lat="24.584874" lon="109.445295">
<time>2016-10-06T15:26:37Z</time></trkpt>
<trkpt lat="24.585104" lon="109.445045">
<time>2016-10-06T15:26:38Z</time></trkpt>
<trkpt lat="24.585204" lon="109.444955">
<time>2016-10-06T15:26:39Z</time></trkpt>
<trkpt lat="24.585343" lon="109.444814">
<time>2016-10-06T15:26:40Z</time></trkpt>
<trkpt lat="24.585503" lon="109.444694">
<time>2016-10-06T15:26:41Z</time></trkpt>
<trkpt lat="24.585553" lon="109.444664">
<time>2016-10-06T15:26:42Z</time></trkpt>
<trkpt lat="24.585673" lon="109.444604">
<time>2016-10-06T15:26:43Z</time></trkpt>
<trkpt lat="24.585783" lon="109.444524">
<time>2016-10-06T15:26:44Z</time></trkpt>
<trkpt lat="24.585933" lon="109.444404">
<time>2016-10-06T15:26:45Z</time></trkpt>
<trkpt lat="24.586032" lon="109.444313">
<time>2016-10-06T15:26:46Z</time></trkpt>
<trkpt lat="24.586092" lon="109.444243">
<time>2016-10-06T15:26:47Z</time></trkpt>
<trkpt lat="24.586112" lon="109.444163">
<time>2016-10-06T15:26:48Z</time></trkpt>
<trkpt lat="24.586092" lon="109.443923">
<time>2016-10-06T15:26:49Z</time></trkpt>
<trkpt lat="24.586071" lon="109.443572">
<time>2016-10-06T15:26:50Z</time></trkpt>
<trkpt lat="24.58617" lon="109.443312">
<time>2016-10-06T15:26:51Z</time></trkpt>
<trkpt lat="24.5863" lon="109.443011">
<time>2016-10-06T15:26:52Z</time></trkpt>
<trkpt lat="24.586449" lon="109.442791">
<time>2016-10-06T15:26:53Z</time></trkpt>
<trkpt lat="24.586599" lon="109.44258">
<time>2016-10-06T15:26:54Z</time></trkpt>
<trkpt lat="24.586709" lon="109.44242">
<time>2016-10-06T15:26:55Z</time></trkpt>
<trkpt lat="24.586749" lon="109.4423">
<time>2016-10-06T15:26:56Z</time></trkpt>
<trkpt lat="24.586758" lon="109.44223">
<time>2016-10-06T15:26:57Z</time></trkpt>
<trkpt lat="24.586768" lon="109.44216">
<time>2016-10-06T15:26:58Z</time></trkpt>
<trkpt lat="24.586788" lon="109.442029">
<time>2016-10-06T15:26:59Z</time></trkpt>
<trkpt lat="24.586798" lon="109.441969">
<time>2016-10-06T15:27:00Z</time></trkpt>
<trkpt lat="24.586838" lon="109.441909">
<time>2016-10-06T15:27:01Z</time></trkpt>
<trkpt lat="24.586918" lon="109.441809">
<time>2016-10-06T15:27:02Z</time></trkpt>
<trkpt lat="24.586948" lon="109.441769">
<time>2016-10-06T15:27:03Z</time></trkpt>
<trkpt lat="24.586967" lon="109.441619">
<time>2016-10-06T15:27:04Z</time></trkpt>
<trkpt lat="24.587057" lon="109.441268">
<time>2016-10-06T15:27:05Z</time></trkpt>
<trkpt lat="24.587136" lon="109.440947">
<time>2016-10-06T15:27:06Z</time></trkpt>
<trkpt lat="24.587225" lon="109.440657">
<time>2016-10-06T15:27:07Z</time></trkpt>
<trkpt lat="24.587305" lon="109.440416">
<time>2016-10-06T15:27:08Z</time></trkpt>
<trkpt lat="24.587365" lon="109.440256">
<time>2016-10-06T15:27:09Z</time></trkpt>
<trkpt lat="24.587464" lon="109.440046">
<time>2016-10-06T15:27:10Z</time></trkpt>
<trkpt lat="24.587504" lon="109.439966">
<time>2016-10-06T15:27:11Z</time></trkpt>
<trkpt lat="24.587674" lon="109.439785">
<time>2016-10-06T15:27:12Z</time></trkpt>
<trkpt lat="24.587914" lon="109.439585">
<time>2016-10-06T15:27:13Z</time></trkpt>
<trkpt lat="24.587924" lon="109.439575">
<time>2016-10-06T15:27:14Z</time></trkpt>
<trkpt lat="24.588213" lon="109.439325">
<time>2016-10-06T15:27:15Z</time></trkpt>
<trkpt lat="24.588373" lon="109.439214">
<time>2016-10-06T15:27:16Z</time></trkpt>
<trkpt lat="24.588822" lon="109.438944">
<time>2016-10-06T15:27:17Z</time></trkpt>
<trkpt lat="24.589322" lon="109.438653">
<time>2016-10-06T15:27:18Z</time></trkpt>
<trkpt lat="24.589552" lon="109.438553">
<time>2016-10-06T15:27:19Z</time></trkpt>
<trkpt lat="24.589672" lon="109.438503">
<time>2016-10-06T15:27:20Z</time></trkpt>
<trkpt lat="24.589782" lon="109.438443">
<time>2016-10-06T15:27:21Z</time></trkpt>
<trkpt lat="24.590001" lon="109.438323">
<time>2016-10-06T15:27:22Z</time></trkpt>
<trkpt lat="24.590211" lon="109.438173">
<time>2016-10-06T15:27:23Z</time></trkpt>
<trkpt lat="24.590311" lon="109.438092">
<time>2016-10-06T15:27:24Z</time></trkpt>
<trkpt lat="24.590401" lon="109.438002">
<time>2016-10-06T15:27:25Z</time></trkpt>
<trkpt lat="24.590471" lon="109.437892">
<time>2016-10-06T15:27:26Z</time></trkpt>
<trkpt lat="24.59054" lon="109.437782">
<time>2016-10-06T15:27:27Z</time></trkpt>
<trkpt lat="24.590849" lon="109.437191">
<time>2016-10-06T15:27:28Z</time></trkpt>
<trkpt lat="24.590909" lon="109.437071">
<time>2016-10-06T15:27:29Z</time></trkpt>
<trkpt lat="24.591059" lon="109.4367">
<time>2016-10-06T15:27:30Z</time></trkpt>
<trkpt lat="24.591118" lon="109.43659">
<time>2016-10-06T15:27:31Z</time></trkpt>
<trkpt lat="24.591218" lon="109.4365">
<time>2016-10-06T15:27:32Z</time></trkpt>
<trkpt lat="24.591228" lon="109.43649">
<time>2016-10-06T15:27:33Z</time></trkpt>
<trkpt lat="24.591318" lon="109.43643">
<time>2016-10-06T15:27:34Z</time></trkpt>
<trkpt lat="24.591618" lon="109.43625">
<time>2016-10-06T15:27:35Z</time></trkpt>
<trkpt lat="24.591648" lon="109.43624">
<time>2016-10-06T15:27:36Z</time></trkpt>
<trkpt lat="24.591858" lon="109.436089">
<time>2016-10-06T15:27:37Z</time></trkpt>
<trkpt lat="24.592567" lon="109.435558">
<time>2016-10-06T15:27:38Z</time></trkpt>
<trkpt lat="24.592647" lon="109.435478">
<time>2016-10-06T15:27:39Z</time></trkpt>
<trkpt lat="24.592677" lon="109.435448">
<time>2016-10-06T15:27:40Z</time></trkpt>
<trkpt lat="24.592707" lon="109.435408">
<time>2016-10-06T15:27:41Z</time></trkpt>
<trkpt lat="24.592736" lon="109.435308">
<time>2016-10-06T15:27:42Z</time></trkpt>
<trkpt lat="24.592756" lon="109.435228">
<time>2016-10-06T15:27:43Z</time></trkpt>
<trkpt lat="24.592766" lon="109.435228">
<time>2016-10-06T15:27:44Z</time></trkpt>
<trkpt lat="24.592786" lon="109.435188">
<time>2016-10-06T15:27:45Z</time></trkpt>
<trkpt lat="24.592846" lon="109.435128">
<time>2016-10-06T15:27:46Z</time></trkpt>
<trkpt lat="24.592936" lon="109.435038">
<time>2016-10-06T15:27:47Z</time></trkpt>
<trkpt lat="24.593276" lon="109.434757">
<time>2016-10-06T15:27:48Z</time></trkpt>
<trkpt lat="24.593365" lon="109.434677">
<time>2016-10-06T15:27:49Z</time></trkpt>
<trkpt lat="24.593425" lon="109.434627">
<time>2016-10-06T15:27:50Z</time></trkpt>
<trkpt lat="24.593455" lon="109.434587">
<time>2016-10-06T15:27:51Z</time></trkpt>
<trkpt lat="24.593515" lon="109.434527">
<time>2016-10-06T15:27:52Z</time></trkpt>
<trkpt lat="24.593595" lon="109.434427">
<time>2016-10-06T15:27:53Z</time></trkpt>
<trkpt lat="24.593665" lon="109.434317">
<time>2016-10-06T15:27:54Z</time></trkpt>
<trkpt lat="24.593725" lon="109.434196">
<time>2016-10-06T15:27:55Z</time></trkpt>
<trkpt lat="24.593834" lon="109.433956">
<time>2016-10-06T15:27:56Z</time></trkpt>
<trkpt lat="24.593894" lon="109.433836">
<time>2016-10-06T15:27:57Z</time></trkpt>
<trkpt lat="24.593984" lon="109.433586">
<time>2016-10-06T15:27:58Z</time></trkpt>
<trkpt lat="24.594004" lon="109.433505">
<time>2016-10-06T15:27:59Z</time></trkpt>
<trkpt lat="24.594143" lon="109.433075">
<time>2016-10-06T15:28:00Z</time></trkpt>
<trkpt lat="24.594143" lon="109.433055">
<time>2016-10-06T15:28:01Z</time></trkpt>
<trkpt lat="24.594252" lon="109.432684">
<time>2016-10-06T15:28:02Z</time></trkpt>
<trkpt lat="24.594531" lon="109.431793">
<time>2016-10-06T15:28:03Z</time></trkpt>
<trkpt lat="24.594561" lon="109.431683">
<time>2016-10-06T15:28:04Z</time></trkpt>
<trkpt lat="24.594799" lon="109.430752">
<time>2016-10-06T15:28:05Z</time></trkpt>
<trkpt lat="24.594839" lon="109.430521">
<time>2016-10-06T15:28:06Z</time></trkpt>
<trkpt lat="24.594859" lon="109.430421">
<time>2016-10-06T15:28:07Z</time></trkpt>
<trkpt lat="24.594879" lon="109.430351">
<time>2016-10-06T15:28:08Z</time></trkpt>
<trkpt lat="24.594898" lon="109.430071">
<time>2016-10-06T15:28:09Z</time></trkpt>
<trkpt lat="24.594908" lon="109.429941">
<time>2016-10-06T15:28:10Z</time></trkpt>
<trkpt lat="24.594918" lon="109.429871">
<time>2016-10-06T15:28:11Z</time></trkpt>
<trkpt lat="24.594918" lon="109.429801">
<time>2016-10-06T15:28:12Z</time></trkpt>
<trkpt lat="24.594918" lon="109.429761">
<time>2016-10-06T15:28:13Z</time></trkpt>
<trkpt lat="24.594918" lon="109.42954">
<time>2016-10-06T15:28:14Z</time></trkpt>
<trkpt lat="24.594907" lon="109.4294">
<time>2016-10-06T15:28:15Z</time></trkpt>
<trkpt lat="24.594897" lon="109.42927">
<time>2016-10-06T15:28:16Z</time></trkpt>
<trkpt lat="24.594857" lon="109.429">
<time>2016-10-06T15:28:17Z</time></trkpt>
<trkpt lat="24.594796" lon="109.428599">
<time>2016-10-06T15:28:18Z</time></trkpt>
<trkpt lat="24.594735" lon="109.427928">
<time>2016-10-06T15:28:19Z</time></trkpt>
<trkpt lat="24.594655" lon="109.427398">
<time>2016-10-06T15:28:20Z</time></trkpt>
<trkpt lat="24.594645" lon="109.427258">
<time>2016-10-06T15:28:21Z</time></trkpt>
<trkpt lat="24.594644" lon="109.427128">
<time>2016-10-06T15:28:22Z</time></trkpt>
<trkpt lat="24.594674" lon="109.426997">
<time>2016-10-06T15:28:23Z</time></trkpt>
<trkpt lat="24.594764" lon="109.426597">
<time>2016-10-06T15:28:24Z</time></trkpt>
<trkpt lat="24.594813" lon="109.426197">
<time>2016-10-06T15:28:25Z</time></trkpt>
<trkpt lat="24.594843" lon="109.426066">
<time>2016-10-06T15:28:26Z</time></trkpt>
<trkpt lat="24.594883" lon="109.425936">
<time>2016-10-06T15:28:27Z</time></trkpt>
<trkpt lat="24.594923" lon="109.425806">
<time>2016-10-06T15:28:28Z</time></trkpt>
<trkpt lat="24.595042" lon="109.425536">
<time>2016-10-06T15:28:29Z</time></trkpt>
<trkpt lat="24.595192" lon="109.425196">
<time>2016-10-06T15:28:30Z</time></trkpt>
<trkpt lat="24.595461" lon="109.424595">
<time>2016-10-06T15:28:31Z</time></trkpt>
<trkpt lat="24.595561" lon="109.424345">
<time>2016-10-06T15:28:32Z</time></trkpt>
<trkpt lat="24.595601" lon="109.424215">
<time>2016-10-06T15:28:33Z</time></trkpt>
<trkpt lat="24.59567" lon="109.423944">
<time>2016-10-06T15:28:34Z</time></trkpt>
<trkpt lat="24.59573" lon="109.423694">
<time>2016-10-06T15:28:35Z</time></trkpt>
<trkpt lat="24.59578" lon="109.423424">
<time>2016-10-06T15:28:36Z</time></trkpt>
<trkpt lat="24.59579" lon="109.423394">
<time>2016-10-06T15:28:37Z</time></trkpt>
<trkpt lat="24.5958" lon="109.423264">
<time>2016-10-06T15:28:38Z</time></trkpt>
<trkpt lat="24.59581" lon="109.423164">
<time>2016-10-06T15:28:39Z</time></trkpt>
<trkpt lat="24.59581" lon="109.423114">
<time>2016-10-06T15:28:40Z</time></trkpt>
<trkpt lat="24.595819" lon="109.422893">
<time>2016-10-06T15:28:41Z</time></trkpt>
<trkpt lat="24.595839" lon="109.422753">
<time>2016-10-06T15:28:42Z</time></trkpt>
<trkpt lat="24.595919" lon="109.422353">
<time>2016-10-06T15:28:43Z</time></trkpt>
<trkpt lat="24.596127" lon="109.421162">
<time>2016-10-06T15:28:44Z</time></trkpt>
<trkpt lat="24.596217" lon="109.420772">
<time>2016-10-06T15:28:45Z</time></trkpt>
<trkpt lat="24.596287" lon="109.420571">
<time>2016-10-06T15:28:46Z</time></trkpt>
<trkpt lat="24.596307" lon="109.420511">
<time>2016-10-06T15:28:47Z</time></trkpt>
<trkpt lat="24.596337" lon="109.420381">
<time>2016-10-06T15:28:48Z</time></trkpt>
<trkpt lat="24.596326" lon="109.420251">
<time>2016-10-06T15:28:49Z</time></trkpt>
<trkpt lat="24.596276" lon="109.420131">
<time>2016-10-06T15:28:50Z</time></trkpt>
<trkpt lat="24.596076" lon="109.419791">
<time>2016-10-06T15:28:51Z</time></trkpt>
<trkpt lat="24.596026" lon="109.419661">
<time>2016-10-06T15:28:52Z</time></trkpt>
<trkpt lat="24.596006" lon="109.419531">
<time>2016-10-06T15:28:53Z</time></trkpt>
<trkpt lat="24.596006" lon="109.419391">
<time>2016-10-06T15:28:54Z</time></trkpt>
<trkpt lat="24.596025" lon="109.41926">
<time>2016-10-06T15:28:55Z</time></trkpt>
<trkpt lat="24.596045" lon="109.41912">
<time>2016-10-06T15:28:56Z</time></trkpt>
<trkpt lat="24.596085" lon="109.419">
<time>2016-10-06T15:28:57Z</time></trkpt>
<trkpt lat="24.596255" lon="109.41863">
<time>2016-10-06T15:28:58Z</time></trkpt>
<trkpt lat="24.596355" lon="109.41839">
<time>2016-10-06T15:28:59Z</time></trkpt>
<trkpt lat="24.596355" lon="109.41838">
<time>2016-10-06T15:29:00Z</time></trkpt>
<trkpt lat="24.596534" lon="109.41803">
<time>2016-10-06T15:29:01Z</time></trkpt>
<trkpt lat="24.596694" lon="109.417819">
<time>2016-10-06T15:29:02Z</time></trkpt>
<trkpt lat="24.596774" lon="109.417719">
<time>2016-10-06T15:29:03Z</time></trkpt>
<trkpt lat="24.596814" lon="109.417679">
<time>2016-10-06T15:29:04Z</time></trkpt>
<trkpt lat="24.596854" lon="109.417619">
<time>2016-10-06T15:29:05Z</time></trkpt>
<trkpt lat="24.596984" lon="109.417419">
<time>2016-10-06T15:29:06Z</time></trkpt>
<trkpt lat="24.597064" lon="109.417299">
<time>2016-10-06T15:29:07Z</time></trkpt>
<trkpt lat="24.597074" lon="109.417289">
<time>2016-10-06T15:29:08Z</time></trkpt>
<trkpt lat="24.597144" lon="109.417179">
<time>2016-10-06T15:29:09Z</time></trkpt>
<trkpt lat="24.597333" lon="109.416829">
<time>2016-10-06T15:29:10Z</time></trkpt>
<trkpt lat="24.597393" lon="109.416709">
<time>2016-10-06T15:29:11Z</time></trkpt>
<trkpt lat="24.597473" lon="109.416609">
<time>2016-10-06T15:29:12Z</time></trkpt>
<trkpt lat="24.597563" lon="109.416519">
<time>2016-10-06T15:29:13Z</time></trkpt>
<trkpt lat="24.597863" lon="109.416268">
<time>2016-10-06T15:29:14Z</time></trkpt>
<trkpt lat="24.597963" lon="109.416188">
<time>2016-10-06T15:29:15Z</time></trkpt>
<trkpt lat="24.598143" lon="109.416008">
<time>2016-10-06T15:29:16Z</time></trkpt>
<trkpt lat="24.598233" lon="109.415918">
<time>2016-10-06T15:29:17Z</time></trkpt>
<trkpt lat="24.598692" lon="109.415278">
<time>2016-10-06T15:29:18Z</time></trkpt>
<trkpt lat="24.598772" lon="109.415188">
<time>2016-10-06T15:29:19Z</time></trkpt>
<trkpt lat="24.598962" lon="109.415008">
<time>2016-10-06T15:29:20Z</time></trkpt>
<trkpt lat="24.599062" lon="109.414938">
<time>2016-10-06T15:29:21Z</time></trkpt>
<trkpt lat="24.599202" lon="109.414868">
<time>2016-10-06T15:29:22Z</time></trkpt>
<trkpt lat="24.599512" lon="109.414698">
<time>2016-10-06T15:29:23Z</time></trkpt>
<trkpt lat="24.599712" lon="109.414537">
<time>2016-10-06T15:29:24Z</time></trkpt>
<trkpt lat="24.599802" lon="109.414447">
<time>2016-10-06T15:29:25Z</time></trkpt>
<trkpt lat="24.599891" lon="109.414357">
<time>2016-10-06T15:29:26Z</time></trkpt>
<trkpt lat="24.600001" lon="109.414287">
<time>2016-10-06T15:29:27Z</time></trkpt>
<trkpt lat="24.600111" lon="109.414227">
<time>2016-10-06T15:29:28Z</time></trkpt>
<trkpt lat="24.600221" lon="109.414177">
<time>2016-10-06T15:29:29Z</time></trkpt>
<trkpt lat="24.600451" lon="109.414087">
<time>2016-10-06T15:29:30Z</time></trkpt>
<trkpt lat="24.600571" lon="109.414047">
<time>2016-10-06T15:29:31Z</time></trkpt>
<trkpt lat="24.600691" lon="109.414007">
<time>2016-10-06T15:29:32Z</time></trkpt>
<trkpt lat="24.600811" lon="109.413987">
<time>2016-10-06T15:29:33Z</time></trkpt>
<trkpt lat="24.600941" lon="109.413977">
<time>2016-10-06T15:29:34Z</time></trkpt>
<trkpt lat="24.601281" lon="109.413867">
<time>2016-10-06T15:29:35Z</time></trkpt>
<trkpt lat="24.601381" lon="109.413777">
<time>2016-10-06T15:29:36Z</time></trkpt>
<trkpt lat="24.601431" lon="109.413647">
<time>2016-10-06T15:29:37Z</time></trkpt>
<trkpt lat="24.601521" lon="109.413497">
<time>2016-10-06T15:29:38Z</time></trkpt>
<trkpt lat="24.601521" lon="109.413497">
<time>2016-10-06T15:29:39Z</time></trkpt>
<trkpt lat="24.601511" lon="109.413487">
<time>2016-10-06T15:29:40Z</time></trkpt>
<trkpt lat="24.601451" lon="109.413407">
<time>2016-10-06T15:29:41Z</time></trkpt>
<trkpt lat="24.601391" lon="109.413317">
<time>2016-10-06T15:29:42Z</time></trkpt>
<trkpt lat="24.601341" lon="109.413207">
<time>2016-10-06T15:29:43Z</time></trkpt>
<trkpt lat="24.601321" lon="109.413107">
<time>2016-10-06T15:29:44Z</time></trkpt>
<trkpt lat="24.601321" lon="109.412987">
<time>2016-10-06T15:29:45Z</time></trkpt>
<trkpt lat="24.60137" lon="109.412777">
<time>2016-10-06T15:29:46Z</time></trkpt>
<trkpt lat="24.60148" lon="109.412457">
<time>2016-10-06T15:29:47Z</time></trkpt>
<trkpt lat="24.60166" lon="109.412056">
<time>2016-10-06T15:29:48Z</time></trkpt>
<trkpt lat="24.60181" lon="109.411766">
<time>2016-10-06T15:29:49Z</time></trkpt>
<trkpt lat="24.60198" lon="109.411476">
<time>2016-10-06T15:29:50Z</time></trkpt>
<trkpt lat="24.60207" lon="109.411296">
<time>2016-10-06T15:29:51Z</time></trkpt>
<trkpt lat="24.60208" lon="109.411286">
<time>2016-10-06T15:29:52Z</time></trkpt>
<trkpt lat="24.602119" lon="109.411176">
<time>2016-10-06T15:29:53Z</time></trkpt>
<trkpt lat="24.602179" lon="109.411016">
<time>2016-10-06T15:29:54Z</time></trkpt>
<trkpt lat="24.602459" lon="109.410236">
<time>2016-10-06T15:29:55Z</time></trkpt>
<trkpt lat="24.602499" lon="109.410136">
<time>2016-10-06T15:29:56Z</time></trkpt>
<trkpt lat="24.602719" lon="109.409626">
<time>2016-10-06T15:29:57Z</time></trkpt>
<trkpt lat="24.602769" lon="109.409536">
<time>2016-10-06T15:29:58Z</time></trkpt>
<trkpt lat="24.602958" lon="109.409216">
<time>2016-10-06T15:29:59Z</time></trkpt>
<trkpt lat="24.602998" lon="109.409156">
<time>2016-10-06T15:30:00Z</time></trkpt>
<trkpt lat="24.603218" lon="109.408775">
<time>2016-10-06T15:30:01Z</time></trkpt>
<trkpt lat="24.603528" lon="109.408195">
<time>2016-10-06T15:30:02Z</time></trkpt>
<trkpt lat="24.603658" lon="109.408025">
<time>2016-10-06T15:30:03Z</time></trkpt>
<trkpt lat="24.603858" lon="109.407775">
<time>2016-10-06T15:30:04Z</time></trkpt>
<trkpt lat="24.603958" lon="109.407585">
<time>2016-10-06T15:30:05Z</time></trkpt>
<trkpt lat="24.604018" lon="109.407475">
<time>2016-10-06T15:30:06Z</time></trkpt>
<trkpt lat="24.604277" lon="109.406985">
<time>2016-10-06T15:30:07Z</time></trkpt>
<trkpt lat="24.604317" lon="109.406885">
<time>2016-10-06T15:30:08Z</time></trkpt>
<trkpt lat="24.604347" lon="109.406775">
<time>2016-10-06T15:30:09Z</time></trkpt>
<trkpt lat="24.604627" lon="109.405925">
<time>2016-10-06T15:30:10Z</time></trkpt>
<trkpt lat="24.604637" lon="109.405815">
<time>2016-10-06T15:30:11Z</time></trkpt>
<trkpt lat="24.604637" lon="109.405775">
<time>2016-10-06T15:30:12Z</time></trkpt>
<trkpt lat="24.604627" lon="109.405485">
<time>2016-10-06T15:30:13Z</time></trkpt>
<trkpt lat="24.604647" lon="109.405375">
<time>2016-10-06T15:30:14Z</time></trkpt>
<trkpt lat="24.604677" lon="109.405265">
<time>2016-10-06T15:30:15Z</time></trkpt>
<trkpt lat="24.604827" lon="109.404875">
<time>2016-10-06T15:30:16Z</time></trkpt>
<trkpt lat="24.604837" lon="109.404845">
<time>2016-10-06T15:30:17Z</time></trkpt>
<trkpt lat="24.604867" lon="109.404745">
<time>2016-10-06T15:30:18Z</time></trkpt>
<trkpt lat="24.604887" lon="109.404635">
<time>2016-10-06T15:30:19Z</time></trkpt>
<trkpt lat="24.604936" lon="109.404295">
<time>2016-10-06T15:30:20Z</time></trkpt>
<trkpt lat="24.605026" lon="109.403855">
<time>2016-10-06T15:30:21Z</time></trkpt>
<trkpt lat="24.605036" lon="109.403745">
<time>2016-10-06T15:30:22Z</time></trkpt>
<trkpt lat="24.605036" lon="109.403635">
<time>2016-10-06T15:30:23Z</time></trkpt>
<trkpt lat="24.604996" lon="109.403415">
<time>2016-10-06T15:30:24Z</time></trkpt>
<trkpt lat="24.605006" lon="109.403305">
<time>2016-10-06T15:30:25Z</time></trkpt>
<trkpt lat="24.605046" lon="109.403205">
<time>2016-10-06T15:30:26Z</time></trkpt>
<trkpt lat="24.605106" lon="109.403115">
<time>2016-10-06T15:30:27Z</time></trkpt>
<trkpt lat="24.605166" lon="109.403025">
<time>2016-10-06T15:30:28Z</time></trkpt>
<trkpt lat="24.605236" lon="109.402815">
<time>2016-10-06T15:30:29Z</time></trkpt>
<trkpt lat="24.605276" lon="109.402485">
<time>2016-10-06T15:30:30Z</time></trkpt>
<trkpt lat="24.605316" lon="109.401925">
<time>2016-10-06T15:30:31Z</time></trkpt>
<trkpt lat="24.605356" lon="109.401815">
<time>2016-10-06T15:30:32Z</time></trkpt>
<trkpt lat="24.605376" lon="109.401785">
<time>2016-10-06T15:30:33Z</time></trkpt>
<trkpt lat="24.605416" lon="109.401725">
<time>2016-10-06T15:30:34Z</time></trkpt>
<trkpt lat="24.605546" lon="109.401545">
<time>2016-10-06T15:30:35Z</time></trkpt>
<trkpt lat="24.605716" lon="109.401265">
<time>2016-10-06T15:30:36Z</time></trkpt>
<trkpt lat="24.605816" lon="109.401075">
<time>2016-10-06T15:30:37Z</time></trkpt>
<trkpt lat="24.605826" lon="109.401065">
<time>2016-10-06T15:30:38Z</time></trkpt>
<trkpt lat="24.605876" lon="109.400985">
<time>2016-10-06T15:30:39Z</time></trkpt>
<trkpt lat="24.606086" lon="109.400736">
<time>2016-10-06T15:30:40Z</time></trkpt>
<trkpt lat="24.606686" lon="109.400116">
<time>2016-10-06T15:30:41Z</time></trkpt>
<trkpt lat="24.606756" lon="109.400036">
<time>2016-10-06T15:30:42Z</time></trkpt>
<trkpt lat="24.606826" lon="109.399956">
<time>2016-10-06T15:30:43Z</time></trkpt>
<trkpt lat="24.607016" lon="109.399686">
<time>2016-10-06T15:30:44Z</time></trkpt>
<trkpt lat="24.607176" lon="109.399396">
<time>2016-10-06T15:30:45Z</time></trkpt>
<trkpt lat="24.607216" lon="109.399326">
<time>2016-10-06T15:30:46Z</time></trkpt>
<trkpt lat="24.607226" lon="109.399296">
<time>2016-10-06T15:30:47Z</time></trkpt>
<trkpt lat="24.607286" lon="109.399206">
<time>2016-10-06T15:30:48Z</time></trkpt>
<trkpt lat="24.607376" lon="109.399076">
<time>2016-10-06T15:30:49Z</time></trkpt>
<trkpt lat="24.607476" lon="109.398946">
<time>2016-10-06T15:30:50Z</time></trkpt>
<trkpt lat="24.607656" lon="109.398666">
<time>2016-10-06T15:30:51Z</time></trkpt>
<trkpt lat="24.607806" lon="109.398436">
<time>2016-10-06T15:30:52Z</time></trkpt>
<trkpt lat="24.607806" lon="109.398436">
<time>2016-10-06T15:30:53Z</time></trkpt>
<trkpt lat="24.607886" lon="109.398296">
<time>2016-10-06T15:30:54Z</time></trkpt>
<trkpt lat="24.608026" lon="109.398136">
<time>2016-10-06T15:30:55Z</time></trkpt>
<trkpt lat="24.608256" lon="109.397906">
<time>2016-10-06T15:30:56Z</time></trkpt>
<trkpt lat="24.608556" lon="109.397596">
<time>2016-10-06T15:30:57Z</time></trkpt>
<trkpt lat="24.608796" lon="109.397376">
<time>2016-10-06T15:30:58Z</time></trkpt>
<trkpt lat="24.608866" lon="109.397306">
<time>2016-10-06T15:30:59Z</time></trkpt>
<trkpt lat="24.608936" lon="109.397226">
<time>2016-10-06T15:31:00Z</time></trkpt>
<trkpt lat="24.609006" lon="109.397147">
<time>2016-10-06T15:31:01Z</time></trkpt>
<trkpt lat="24.609046" lon="109.397047">
<time>2016-10-06T15:31:02Z</time></trkpt>
<trkpt lat="24.609056" lon="109.397027">
<time>2016-10-06T15:31:03Z</time></trkpt>
<trkpt lat="24.609146" lon="109.396727">
<time>2016-10-06T15:31:04Z</time></trkpt>
<trkpt lat="24.609336" lon="109.396207">
<time>2016-10-06T15:31:05Z</time></trkpt>
<trkpt lat="24.609386" lon="109.396127">
<time>2016-10-06T15:31:06Z</time></trkpt>
<trkpt lat="24.609706" lon="109.395547">
<time>2016-10-06T15:31:07Z</time></trkpt>
<trkpt lat="24.609766" lon="109.395437">
<time>2016-10-06T15:31:08Z</time></trkpt>
<trkpt lat="24.609796" lon="109.395347">
<time>2016-10-06T15:31:09Z</time></trkpt>
<trkpt lat="24.609836" lon="109.395247">
<time>2016-10-06T15:31:10Z</time></trkpt>
<trkpt lat="24.609866" lon="109.395137">
<time>2016-10-06T15:31:11Z</time></trkpt>
<trkpt lat="24.609866" lon="109.395107">
<time>2016-10-06T15:31:12Z</time></trkpt>
<trkpt lat="24.609876" lon="109.395027">
<time>2016-10-06T15:31:13Z</time></trkpt>
<trkpt lat="24.609886" lon="109.394798">
<time>2016-10-06T15:31:14Z</time></trkpt>
<trkpt lat="24.609886" lon="109.394748">
<time>2016-10-06T15:31:15Z</time></trkpt>
<trkpt lat="24.609896" lon="109.394688">
<time>2016-10-06T15:31:16Z</time></trkpt>
<trkpt lat="24.609936" lon="109.394588">
<time>2016-10-06T15:31:17Z</time></trkpt>
<trkpt lat="24.609976" lon="109.394488">
<time>2016-10-06T15:31:18Z</time></trkpt>
<trkpt lat="24.610036" lon="109.394398">
<time>2016-10-06T15:31:19Z</time></trkpt>
<trkpt lat="24.610276" lon="109.394058">
<time>2016-10-06T15:31:20Z</time></trkpt>
<trkpt lat="24.610286" lon="109.394038">
<time>2016-10-06T15:31:21Z</time></trkpt>
<trkpt lat="24.610396" lon="109.393848">
<time>2016-10-06T15:31:22Z</time></trkpt>
<trkpt lat="24.610436" lon="109.393738">
<time>2016-10-06T15:31:23Z</time></trkpt>
<trkpt lat="24.610486" lon="109.393528">
<time>2016-10-06T15:31:24Z</time></trkpt>
<trkpt lat="24.610536" lon="109.393278">
<time>2016-10-06T15:31:25Z</time></trkpt>
<trkpt lat="24.610596" lon="109.393029">
<time>2016-10-06T15:31:26Z</time></trkpt>
<trkpt lat="24.610606" lon="109.392979">
<time>2016-10-06T15:31:27Z</time></trkpt>
<trkpt lat="24.610656" lon="109.392799">
<time>2016-10-06T15:31:28Z</time></trkpt>
<trkpt lat="24.610656" lon="109.392759">
<time>2016-10-06T15:31:29Z</time></trkpt>
<trkpt lat="24.610696" lon="109.392659">
<time>2016-10-06T15:31:30Z</time></trkpt>
<trkpt lat="24.610716" lon="109.392549">
<time>2016-10-06T15:31:31Z</time></trkpt>
<trkpt lat="24.610746" lon="109.392319">
<time>2016-10-06T15:31:32Z</time></trkpt>
<trkpt lat="24.610766" lon="109.392099">
<time>2016-10-06T15:31:33Z</time></trkpt>
<trkpt lat="24.610746" lon="109.391989">
<time>2016-10-06T15:31:34Z</time></trkpt>
<trkpt lat="24.610717" lon="109.391879">
<time>2016-10-06T15:31:35Z</time></trkpt>
<trkpt lat="24.610697" lon="109.391809">
<time>2016-10-06T15:31:36Z</time></trkpt>
<trkpt lat="24.610687" lon="109.391769">
<time>2016-10-06T15:31:37Z</time></trkpt>
<trkpt lat="24.610677" lon="109.391659">
<time>2016-10-06T15:31:38Z</time></trkpt>
<trkpt lat="24.610677" lon="109.391549">
<time>2016-10-06T15:31:39Z</time></trkpt>
<trkpt lat="24.610687" lon="109.39144">
<time>2016-10-06T15:31:40Z</time></trkpt>
<trkpt lat="24.610697" lon="109.3914">
<time>2016-10-06T15:31:41Z</time></trkpt>
<trkpt lat="24.610717" lon="109.39133">
<time>2016-10-06T15:31:42Z</time></trkpt>
<trkpt lat="24.610767" lon="109.39123">
<time>2016-10-06T15:31:43Z</time></trkpt>
<trkpt lat="24.610947" lon="109.39096">
<time>2016-10-06T15:31:44Z</time></trkpt>
<trkpt lat="24.610997" lon="109.39085">
<time>2016-10-06T15:31:45Z</time></trkpt>
<trkpt lat="24.611187" lon="109.39046">
<time>2016-10-06T15:31:46Z</time></trkpt>
<trkpt lat="24.611237" lon="109.39035">
<time>2016-10-06T15:31:47Z</time></trkpt>
<trkpt lat="24.611337" lon="109.39015">
<time>2016-10-06T15:31:48Z</time></trkpt>
<trkpt lat="24.611387" lon="109.39006">
<time>2016-10-06T15:31:49Z</time></trkpt>
<trkpt lat="24.611517" lon="109.389881">
<time>2016-10-06T15:31:50Z</time></trkpt>
<trkpt lat="24.611577" lon="109.389791">
<time>2016-10-06T15:31:51Z</time></trkpt>
<trkpt lat="24.611737" lon="109.389511">
<time>2016-10-06T15:31:52Z</time></trkpt>
<trkpt lat="24.611807" lon="109.389421">
<time>2016-10-06T15:31:53Z</time></trkpt>
<trkpt lat="24.611887" lon="109.389351">
<time>2016-10-06T15:31:54Z</time></trkpt>
<trkpt lat="24.612137" lon="109.389171">
<time>2016-10-06T15:31:55Z</time></trkpt>
<trkpt lat="24.612227" lon="109.389101">
<time>2016-10-06T15:31:56Z</time></trkpt>
<trkpt lat="24.612307" lon="109.389031">
<time>2016-10-06T15:31:57Z</time></trkpt>
<trkpt lat="24.612317" lon="109.389021">
<time>2016-10-06T15:31:58Z</time></trkpt>
<trkpt lat="24.612448" lon="109.388871">
<time>2016-10-06T15:31:59Z</time></trkpt>
<trkpt lat="24.612638" lon="109.388612">
<time>2016-10-06T15:32:00Z</time></trkpt>
<trkpt lat="24.612918" lon="109.388272">
<time>2016-10-06T15:32:01Z</time></trkpt>
<trkpt lat="24.613088" lon="109.388002">
<time>2016-10-06T15:32:02Z</time></trkpt>
<trkpt lat="24.613248" lon="109.387712">
<time>2016-10-06T15:32:03Z</time></trkpt>
<trkpt lat="24.613308" lon="109.387612">
<time>2016-10-06T15:32:04Z</time></trkpt>
<trkpt lat="24.613348" lon="109.387582">
<time>2016-10-06T15:32:05Z</time></trkpt>
<trkpt lat="24.613378" lon="109.387542">
<time>2016-10-06T15:32:06Z</time></trkpt>
<trkpt lat="24.613468" lon="109.387482">
<time>2016-10-06T15:32:07Z</time></trkpt>
<trkpt lat="24.613548" lon="109.387413">
<time>2016-10-06T15:32:08Z</time></trkpt>
<trkpt lat="24.613608" lon="109.387323">
<time>2016-10-06T15:32:09Z</time></trkpt>
<trkpt lat="24.613618" lon="109.387313">
<time>2016-10-06T15:32:10Z</time></trkpt>
<trkpt lat="24.613668" lon="109.387233">
<time>2016-10-06T15:32:11Z</time></trkpt>
<trkpt lat="24.613708" lon="109.387133">
<time>2016-10-06T15:32:12Z</time></trkpt>
<trkpt lat="24.613748" lon="109.387023">
<time>2016-10-06T15:32:13Z</time></trkpt>
<trkpt lat="24.613788" lon="109.386923">
<time>2016-10-06T15:32:14Z</time></trkpt>
<trkpt lat="24.613898" lon="109.386733">
<time>2016-10-06T15:32:15Z</time></trkpt>
<trkpt lat="24.614089" lon="109.386463">
<time>2016-10-06T15:32:16Z</time></trkpt>
<trkpt lat="24.614139" lon="109.386393">
<time>2016-10-06T15:32:17Z</time></trkpt>
<trkpt lat="24.614339" lon="109.386124">
<time>2016-10-06T15:32:18Z</time></trkpt>
<trkpt lat="24.614589" lon="109.385764">
<time>2016-10-06T15:32:19Z</time></trkpt>
<trkpt lat="24.614649" lon="109.385674">
<time>2016-10-06T15:32:20Z</time></trkpt>
<trkpt lat="24.614759" lon="109.385484">
<time>2016-10-06T15:32:21Z</time></trkpt>
<trkpt lat="24.614949" lon="109.385204">
<time>2016-10-06T15:32:22Z</time></trkpt>
<trkpt lat="24.615219" lon="109.384865">
<time>2016-10-06T15:32:23Z</time></trkpt>
<trkpt lat="24.61553" lon="109.384505">
<time>2016-10-06T15:32:24Z</time></trkpt>
<trkpt lat="24.61557" lon="109.384455">
<time>2016-10-06T15:32:25Z</time></trkpt>
<trkpt lat="24.61564" lon="109.384375">
<time>2016-10-06T15:32:26Z</time></trkpt>
<trkpt lat="24.61572" lon="109.384315">
<time>2016-10-06T15:32:27Z</time></trkpt>
<trkpt lat="24.61599" lon="109.384175">
<time>2016-10-06T15:32:28Z</time></trkpt>
<trkpt lat="24.61647" lon="109.383936">
<time>2016-10-06T15:32:29Z</time></trkpt>
<trkpt lat="24.61656" lon="109.383886">
<time>2016-10-06T15:32:30Z</time></trkpt>
<trkpt lat="24.61664" lon="109.383806">
<time>2016-10-06T15:32:31Z</time></trkpt>
<trkpt lat="24.6167" lon="109.383716">
<time>2016-10-06T15:32:32Z</time></trkpt>
<trkpt lat="24.61685" lon="109.383426">
<time>2016-10-06T15:32:33Z</time></trkpt>
<trkpt lat="24.617091" lon="109.382927">
<time>2016-10-06T15:32:34Z</time></trkpt>
<trkpt lat="24.617121" lon="109.382857">
<time>2016-10-06T15:32:35Z</time></trkpt>
<trkpt lat="24.617231" lon="109.382627">
<time>2016-10-06T15:32:36Z</time></trkpt>
<trkpt lat="24.617561" lon="109.382058">
<time>2016-10-06T15:32:37Z</time></trkpt>
<trkpt lat="24.617571" lon="109.382038">
<time>2016-10-06T15:32:38Z</time></trkpt>
<trkpt lat="24.617661" lon="109.381868">
<time>2016-10-06T15:32:39Z</time></trkpt>
<trkpt lat="24.617781" lon="109.381688">
<time>2016-10-06T15:32:40Z</time></trkpt>
<trkpt lat="24.617972" lon="109.381428">
<time>2016-10-06T15:32:41Z</time></trkpt>
<trkpt lat="24.618162" lon="109.381159">
<time>2016-10-06T15:32:42Z</time></trkpt>
<trkpt lat="24.618302" lon="109.380989">
<time>2016-10-06T15:32:43Z</time></trkpt>
<trkpt lat="24.618362" lon="109.380899">
<time>2016-10-06T15:32:44Z</time></trkpt>
<trkpt lat="24.618432" lon="109.380809">
<time>2016-10-06T15:32:45Z</time></trkpt>
<trkpt lat="24.618532" lon="109.380619">
<time>2016-10-06T15:32:46Z</time></trkpt>
<trkpt lat="24.618622" lon="109.380459">
<time>2016-10-06T15:32:47Z</time></trkpt>
<trkpt lat="24.618632" lon="109.380449">
<time>2016-10-06T15:32:48Z</time></trkpt>
<trkpt lat="24.618692" lon="109.38033">
<time>2016-10-06T15:32:49Z</time></trkpt>
<trkpt lat="24.618803" lon="109.38016">
<time>2016-10-06T15:32:50Z</time></trkpt>
<trkpt lat="24.618843" lon="109.38011">
<time>2016-10-06T15:32:51Z</time></trkpt>
<trkpt lat="24.618933" lon="109.37997">
<time>2016-10-06T15:32:52Z</time></trkpt>
<trkpt lat="24.619073" lon="109.3798">
<time>2016-10-06T15:32:53Z</time></trkpt>
<trkpt lat="24.619153" lon="109.37972">
<time>2016-10-06T15:32:54Z</time></trkpt>
<trkpt lat="24.619914" lon="109.378971">
<time>2016-10-06T15:32:55Z</time></trkpt>
<trkpt lat="24.620224" lon="109.378681">
<time>2016-10-06T15:32:56Z</time></trkpt>
<trkpt lat="24.620274" lon="109.378641">
<time>2016-10-06T15:32:57Z</time></trkpt>
<trkpt lat="24.620464" lon="109.378472">
<time>2016-10-06T15:32:58Z</time></trkpt>
<trkpt lat="24.620624" lon="109.378322">
<time>2016-10-06T15:32:59Z</time></trkpt>
<trkpt lat="24.620694" lon="109.378242">
<time>2016-10-06T15:33:00Z</time></trkpt>
<trkpt lat="24.620894" lon="109.377992">
<time>2016-10-06T15:33:01Z</time></trkpt>
<trkpt lat="24.621085" lon="109.377723">
<time>2016-10-06T15:33:02Z</time></trkpt>
<trkpt lat="24.621185" lon="109.377603">
<time>2016-10-06T15:33:03Z</time></trkpt>
<trkpt lat="24.621225" lon="109.377563">
<time>2016-10-06T15:33:04Z</time></trkpt>
<trkpt lat="24.621375" lon="109.377403">
<time>2016-10-06T15:33:05Z</time></trkpt>
<trkpt lat="24.621755" lon="109.377024">
<time>2016-10-06T15:33:06Z</time></trkpt>
<trkpt lat="24.622156" lon="109.376594">
<time>2016-10-06T15:33:07Z</time></trkpt>
<trkpt lat="24.622266" lon="109.376474">
<time>2016-10-06T15:33:08Z</time></trkpt>
<trkpt lat="24.622396" lon="109.376304">
<time>2016-10-06T15:33:09Z</time></trkpt>
<trkpt lat="24.622466" lon="109.376215">
<time>2016-10-06T15:33:10Z</time></trkpt>
<trkpt lat="24.622476" lon="109.376185">
<time>2016-10-06T15:33:11Z</time></trkpt>
<trkpt lat="24.622516" lon="109.376115">
<time>2016-10-06T15:33:12Z</time></trkpt>
<trkpt lat="24.622546" lon="109.375985">
<time>2016-10-06T15:33:13Z</time></trkpt>
<trkpt lat="24.622596" lon="109.375705">
<time>2016-10-06T15:33:14Z</time></trkpt>
<trkpt lat="24.622626" lon="109.375565">
<time>2016-10-06T15:33:15Z</time></trkpt>
<trkpt lat="24.622667" lon="109.375436">
<time>2016-10-06T15:33:16Z</time></trkpt>
<trkpt lat="24.622807" lon="109.375046">
<time>2016-10-06T15:33:17Z</time></trkpt>
<trkpt lat="24.622817" lon="109.374996">
<time>2016-10-06T15:33:18Z</time></trkpt>
<trkpt lat="24.622887" lon="109.374787">
<time>2016-10-06T15:33:19Z</time></trkpt>
<trkpt lat="24.622937" lon="109.374647">
<time>2016-10-06T15:33:20Z</time></trkpt>
<trkpt lat="24.623048" lon="109.374397">
<time>2016-10-06T15:33:21Z</time></trkpt>
<trkpt lat="24.623098" lon="109.374267">
<time>2016-10-06T15:33:22Z</time></trkpt>
<trkpt lat="24.623168" lon="109.374147">
<time>2016-10-06T15:33:23Z</time></trkpt>
<trkpt lat="24.623228" lon="109.374088">
<time>2016-10-06T15:33:24Z</time></trkpt>
<trkpt lat="24.623348" lon="109.373938">
<time>2016-10-06T15:33:25Z</time></trkpt>
<trkpt lat="24.623438" lon="109.373848">
<time>2016-10-06T15:33:26Z</time></trkpt>
<trkpt lat="24.623548" lon="109.373778">
<time>2016-10-06T15:33:27Z</time></trkpt>
<trkpt lat="24.623588" lon="109.373738">
<time>2016-10-06T15:33:28Z</time></trkpt>
<trkpt lat="24.623648" lon="109.373688">
<time>2016-10-06T15:33:29Z</time></trkpt>
<trkpt lat="24.623718" lon="109.373578">
<time>2016-10-06T15:33:30Z</time></trkpt>
<trkpt lat="24.623818" lon="109.373488">
<time>2016-10-06T15:33:31Z</time></trkpt>
<trkpt lat="24.623858" lon="109.373458">
<time>2016-10-06T15:33:32Z</time></trkpt>
<trkpt lat="24.623909" lon="109.373428">
<time>2016-10-06T15:33:33Z</time></trkpt>
<trkpt lat="24.623959" lon="109.373398">
<time>2016-10-06T15:33:34Z</time></trkpt>
<trkpt lat="24.623969" lon="109.373388">
<time>2016-10-06T15:33:35Z</time></trkpt>
<trkpt lat="24.623969" lon="109.373369">
<time>2016-10-06T15:33:36Z</time></trkpt>
<trkpt lat="24.623969" lon="109.373339">
<time>2016-10-06T15:33:37Z</time></trkpt>
<trkpt lat="24.623959" lon="109.373329">
<time>2016-10-06T15:33:38Z</time></trkpt>
<trkpt lat="24.623939" lon="109.373299">
<time>2016-10-06T15:33:39Z</time></trkpt>
<trkpt lat="24.623749" lon="109.373019">
<time>2016-10-06T15:33:40Z</time></trkpt>
<trkpt lat="24.623719" lon="109.372969">
<time>2016-10-06T15:33:41Z</time></trkpt>
<trkpt lat="24.623589" lon="109.372729">
<time>2016-10-06T15:33:42Z</time></trkpt>
<trkpt lat="24.623519" lon="109.37257">
<time>2016-10-06T15:33:43Z</time></trkpt>
<trkpt lat="24.62325" lon="109.371971">
<time>2016-10-06T15:33:44Z</time></trkpt>
<trkpt lat="24.6232" lon="109.371841">
<time>2016-10-06T15:33:45Z</time></trkpt>
<trkpt lat="24.62316" lon="109.371701">
<time>2016-10-06T15:33:46Z</time></trkpt>
<trkpt lat="24.62313" lon="109.371571">
<time>2016-10-06T15:33:47Z</time></trkpt>
<trkpt lat="24.623091" lon="109.371441">
<time>2016-10-06T15:33:48Z</time></trkpt>
<trkpt lat="24.623021" lon="109.371322">
<time>2016-10-06T15:33:49Z</time></trkpt>
<trkpt lat="24.622881" lon="109.371092">
<time>2016-10-06T15:33:50Z</time></trkpt>
<trkpt lat="24.622831" lon="109.370952">
<time>2016-10-06T15:33:51Z</time></trkpt>
<trkpt lat="24.622831" lon="109.370852">
<time>2016-10-06T15:33:52Z</time></trkpt>
<trkpt lat="24.622831" lon="109.370812">
<time>2016-10-06T15:33:53Z</time></trkpt>
<trkpt lat="24.622862" lon="109.370393">
<time>2016-10-06T15:33:54Z</time></trkpt>
<trkpt lat="24.622872" lon="109.370383">
<time>2016-10-06T15:33:55Z</time></trkpt>
<trkpt lat="24.622872" lon="109.370253">
<time>2016-10-06T15:33:56Z</time></trkpt>
<trkpt lat="24.622862" lon="109.370114">
<time>2016-10-06T15:33:57Z</time></trkpt>
<trkpt lat="24.622823" lon="109.369555">
<time>2016-10-06T15:33:58Z</time></trkpt>
<trkpt lat="24.622783" lon="109.368995">
<time>2016-10-06T15:33:59Z</time></trkpt>
<trkpt lat="24.622753" lon="109.368856">
<time>2016-10-06T15:34:00Z</time></trkpt>
<trkpt lat="24.622723" lon="109.368716">
<time>2016-10-06T15:34:01Z</time></trkpt>
<trkpt lat="24.622664" lon="109.368596">
<time>2016-10-06T15:34:02Z</time></trkpt>
<trkpt lat="24.622584" lon="109.368476">
<time>2016-10-06T15:34:03Z</time></trkpt>
<trkpt lat="24.622504" lon="109.368366">
<time>2016-10-06T15:34:04Z</time></trkpt>
<trkpt lat="24.622474" lon="109.368327">
<time>2016-10-06T15:34:05Z</time></trkpt>
<trkpt lat="24.622434" lon="109.368247">
<time>2016-10-06T15:34:06Z</time></trkpt>
<trkpt lat="24.622384" lon="109.368127">
<time>2016-10-06T15:34:07Z</time></trkpt>
<trkpt lat="24.622304" lon="109.368007">
<time>2016-10-06T15:34:08Z</time></trkpt>
<trkpt lat="24.622135" lon="109.367797">
<time>2016-10-06T15:34:09Z</time></trkpt>
<trkpt lat="24.622125" lon="109.367778">
<time>2016-10-06T15:34:10Z</time></trkpt>
<trkpt lat="24.621955" lon="109.367598">
<time>2016-10-06T15:34:11Z</time></trkpt>
<trkpt lat="24.621875" lon="109.367488">
<time>2016-10-06T15:34:12Z</time></trkpt>
<trkpt lat="24.621715" lon="109.367268">
<time>2016-10-06T15:34:13Z</time></trkpt>
<trkpt lat="24.621665" lon="109.367139">
<time>2016-10-06T15:34:14Z</time></trkpt>
<trkpt lat="24.621675" lon="109.366999">
<time>2016-10-06T15:34:15Z</time></trkpt>
<trkpt lat="24.621716" lon="109.366869">
<time>2016-10-06T15:34:16Z</time></trkpt>
<trkpt lat="24.621736" lon="109.366809">
<time>2016-10-06T15:34:17Z</time></trkpt>
<trkpt lat="24.621776" lon="109.366739">
<time>2016-10-06T15:34:18Z</time></trkpt>
<trkpt lat="24.621836" lon="109.36662">
<time>2016-10-06T15:34:19Z</time></trkpt>
<trkpt lat="24.621966" lon="109.36638">
<time>2016-10-06T15:34:20Z</time></trkpt>
<trkpt lat="24.622026" lon="109.36625">
<time>2016-10-06T15:34:21Z</time></trkpt>
<trkpt lat="24.622067" lon="109.36611">
<time>2016-10-06T15:34:22Z</time></trkpt>
<trkpt lat="24.622067" lon="109.36608">
<time>2016-10-06T15:34:23Z</time></trkpt>
<trkpt lat="24.622087" lon="109.365981">
<time>2016-10-06T15:34:24Z</time></trkpt>
<trkpt lat="24.622097" lon="109.365831">
<time>2016-10-06T15:34:25Z</time></trkpt>
<trkpt lat="24.622107" lon="109.365551">
<time>2016-10-06T15:34:26Z</time></trkpt>
<trkpt lat="24.622098" lon="109.365272">
<time>2016-10-06T15:34:27Z</time></trkpt>
<trkpt lat="24.622058" lon="109.364992">
<time>2016-10-06T15:34:28Z</time></trkpt>
<trkpt lat="24.622038" lon="109.364853">
<time>2016-10-06T15:34:29Z</time></trkpt>
<trkpt lat="24.621939" lon="109.364453">
<time>2016-10-06T15:34:30Z</time></trkpt>
<trkpt lat="24.621899" lon="109.364314">
<time>2016-10-06T15:34:31Z</time></trkpt>
<trkpt lat="24.621889" lon="109.364184">
<time>2016-10-06T15:34:32Z</time></trkpt>
<trkpt lat="24.621889" lon="109.364044">
<time>2016-10-06T15:34:33Z</time></trkpt>
<trkpt lat="24.621929" lon="109.363914">
<time>2016-10-06T15:34:34Z</time></trkpt>
<trkpt lat="24.621979" lon="109.363785">
<time>2016-10-06T15:34:35Z</time></trkpt>
<trkpt lat="24.62206" lon="109.363515">
<time>2016-10-06T15:34:36Z</time></trkpt>
<trkpt lat="24.62209" lon="109.363365">
<time>2016-10-06T15:34:37Z</time></trkpt>
<trkpt lat="24.6221" lon="109.363226">
<time>2016-10-06T15:34:38Z</time></trkpt>
<trkpt lat="24.62213" lon="109.363086">
<time>2016-10-06T15:34:39Z</time></trkpt>
<trkpt lat="24.622201" lon="109.362816">
<time>2016-10-06T15:34:40Z</time></trkpt>
<trkpt lat="24.622391" lon="109.362447">
<time>2016-10-06T15:34:41Z</time></trkpt>
<trkpt lat="24.622431" lon="109.362317">
<time>2016-10-06T15:34:42Z</time></trkpt>
<trkpt lat="24.622462" lon="109.362178">
<time>2016-10-06T15:34:43Z</time></trkpt>
<trkpt lat="24.622452" lon="109.362108">
<time>2016-10-06T15:34:44Z</time></trkpt>
<trkpt lat="24.622442" lon="109.361898">
<time>2016-10-06T15:34:45Z</time></trkpt>
<trkpt lat="24.622442" lon="109.361848">
<time>2016-10-06T15:34:46Z</time></trkpt>
<trkpt lat="24.622442" lon="109.361619">
<time>2016-10-06T15:34:47Z</time></trkpt>
<trkpt lat="24.622473" lon="109.361479">
<time>2016-10-06T15:34:48Z</time></trkpt>
<trkpt lat="24.622533" lon="109.361359">
<time>2016-10-06T15:34:49Z</time></trkpt>
<trkpt lat="24.622623" lon="109.361259">
<time>2016-10-06T15:34:50Z</time></trkpt>
<trkpt lat="24.622703" lon="109.361149">
<time>2016-10-06T15:34:51Z</time></trkpt>
<trkpt lat="24.622743" lon="109.36102">
<time>2016-10-06T15:34:52Z</time></trkpt>
<trkpt lat="24.622783" lon="109.36088">
<time>2016-10-06T15:34:53Z</time></trkpt>
<trkpt lat="24.622834" lon="109.36075">
<time>2016-10-06T15:34:54Z</time></trkpt>
<trkpt lat="24.622944" lon="109.360501">
<time>2016-10-06T15:34:55Z</time></trkpt>
<trkpt lat="24.623004" lon="109.360221">
<time>2016-10-06T15:34:56Z</time></trkpt>
<trkpt lat="24.623044" lon="109.360091">
<time>2016-10-06T15:34:57Z</time></trkpt>
<trkpt lat="24.623125" lon="109.359972">
<time>2016-10-06T15:34:58Z</time></trkpt>
<trkpt lat="24.623165" lon="109.359842">
<time>2016-10-06T15:34:59Z</time></trkpt>
<trkpt lat="24.623205" lon="109.359423">
<time>2016-10-06T15:35:00Z</time></trkpt>
<trkpt lat="24.623216" lon="109.359283">
<time>2016-10-06T15:35:01Z</time></trkpt>
<trkpt lat="24.623226" lon="109.359004">
<time>2016-10-06T15:35:02Z</time></trkpt>
<trkpt lat="24.623227" lon="109.358594">
<time>2016-10-06T15:35:03Z</time></trkpt>
<trkpt lat="24.623207" lon="109.358465">
<time>2016-10-06T15:35:04Z</time></trkpt>
<trkpt lat="24.623167" lon="109.358325">
<time>2016-10-06T15:35:05Z</time></trkpt>
<trkpt lat="24.623087" lon="109.358205">
<time>2016-10-06T15:35:06Z</time></trkpt>
<trkpt lat="24.622987" lon="109.358125">
<time>2016-10-06T15:35:07Z</time></trkpt>
<trkpt lat="24.622877" lon="109.358046">
<time>2016-10-06T15:35:08Z</time></trkpt>
<trkpt lat="24.622777" lon="109.357966">
<time>2016-10-06T15:35:09Z</time></trkpt>
<trkpt lat="24.622708" lon="109.357826">
<time>2016-10-06T15:35:10Z</time></trkpt>
<trkpt lat="24.622678" lon="109.357696">
<time>2016-10-06T15:35:11Z</time></trkpt>
<trkpt lat="24.622698" lon="109.357557">
<time>2016-10-06T15:35:12Z</time></trkpt>
<trkpt lat="24.622798" lon="109.357297">
<time>2016-10-06T15:35:13Z</time></trkpt>
<trkpt lat="24.622829" lon="109.357157">
<time>2016-10-06T15:35:14Z</time></trkpt>
<trkpt lat="24.622839" lon="109.357018">
<time>2016-10-06T15:35:15Z</time></trkpt>
<trkpt lat="24.622829" lon="109.356878">
<time>2016-10-06T15:35:16Z</time></trkpt>
<trkpt lat="24.62277" lon="109.356459">
<time>2016-10-06T15:35:17Z</time></trkpt>
<trkpt lat="24.62273" lon="109.356329">
<time>2016-10-06T15:35:18Z</time></trkpt>
<trkpt lat="24.62267" lon="109.356209">
<time>2016-10-06T15:35:19Z</time></trkpt>
<trkpt lat="24.622451" lon="109.35579">
<time>2016-10-06T15:35:20Z</time></trkpt>
<trkpt lat="24.622421" lon="109.35572">
<time>2016-10-06T15:35:21Z</time></trkpt>
<trkpt lat="24.622221" lon="109.355351">
<time>2016-10-06T15:35:22Z</time></trkpt>
<trkpt lat="24.622171" lon="109.355271">
<time>2016-10-06T15:35:23Z</time></trkpt>
<trkpt lat="24.621942" lon="109.354872">
<time>2016-10-06T15:35:24Z</time></trkpt>
<trkpt lat="24.621932" lon="109.354842">
<time>2016-10-06T15:35:25Z</time></trkpt>
<trkpt lat="24.621902" lon="109.354742">
<time>2016-10-06T15:35:26Z</time></trkpt>
<trkpt lat="24.621843" lon="109.354473">
<time>2016-10-06T15:35:27Z</time></trkpt>
<trkpt lat="24.621813" lon="109.354333">
<time>2016-10-06T15:35:28Z</time></trkpt>
<trkpt lat="24.621753" lon="109.354204">
<time>2016-10-06T15:35:29Z</time></trkpt>
<trkpt lat="24.621683" lon="109.354094">
<time>2016-10-06T15:35:30Z</time></trkpt>
<trkpt lat="24.621444" lon="109.353755">
<time>2016-10-06T15:35:31Z</time></trkpt>
<trkpt lat="24.621374" lon="109.353645">
<time>2016-10-06T15:35:32Z</time></trkpt>
<trkpt lat="24.621045" lon="109.353056">
<time>2016-10-06T15:35:33Z</time></trkpt>
<trkpt lat="24.620985" lon="109.352936">
<time>2016-10-06T15:35:34Z</time></trkpt>
<trkpt lat="24.620935" lon="109.352807">
<time>2016-10-06T15:35:35Z</time></trkpt>
<trkpt lat="24.620865" lon="109.352687">
<time>2016-10-06T15:35:36Z</time></trkpt>
<trkpt lat="24.620736" lon="109.352457">
<time>2016-10-06T15:35:37Z</time></trkpt>
<trkpt lat="24.620646" lon="109.352318">
<time>2016-10-06T15:35:38Z</time></trkpt>
<trkpt lat="24.620556" lon="109.352218">
<time>2016-10-06T15:35:39Z</time></trkpt>
<trkpt lat="24.620466" lon="109.352118">
<time>2016-10-06T15:35:40Z</time></trkpt>
<trkpt lat="24.620257" lon="109.351959">
<time>2016-10-06T15:35:41Z</time></trkpt>
<trkpt lat="24.620167" lon="109.351849">
<time>2016-10-06T15:35:42Z</time></trkpt>
<trkpt lat="24.620097" lon="109.351739">
<time>2016-10-06T15:35:43Z</time></trkpt>
<trkpt lat="24.620037" lon="109.351609">
<time>2016-10-06T15:35:44Z</time></trkpt>
<trkpt lat="24.619918" lon="109.35136">
<time>2016-10-06T15:35:45Z</time></trkpt>
<trkpt lat="24.619808" lon="109.35111">
<time>2016-10-06T15:35:46Z</time></trkpt>
<trkpt lat="24.619808" lon="109.35109">
<time>2016-10-06T15:35:47Z</time></trkpt>
<trkpt lat="24.619788" lon="109.350971">
<time>2016-10-06T15:35:48Z</time></trkpt>
<trkpt lat="24.619778" lon="109.350831">
<time>2016-10-06T15:35:49Z</time></trkpt>
<trkpt lat="24.619759" lon="109.350691">
<time>2016-10-06T15:35:50Z</time></trkpt>
<trkpt lat="24.619709" lon="109.350562">
<time>2016-10-06T15:35:51Z</time></trkpt>
<trkpt lat="24.619649" lon="109.350432">
<time>2016-10-06T15:35:52Z</time></trkpt>
<trkpt lat="24.619569" lon="109.350332">
<time>2016-10-06T15:35:53Z</time></trkpt>
<trkpt lat="24.61917" lon="109.349973">
<time>2016-10-06T15:35:54Z</time></trkpt>
<trkpt lat="24.61907" lon="109.349883">
<time>2016-10-06T15:35:55Z</time></trkpt>
<trkpt lat="24.61896" lon="109.349803">
<time>2016-10-06T15:35:56Z</time></trkpt>
<trkpt lat="24.61873" lon="109.349674">
<time>2016-10-06T15:35:57Z</time></trkpt>
<trkpt lat="24.61862" lon="109.349604">
<time>2016-10-06T15:35:58Z</time></trkpt>
<trkpt lat="24.61852" lon="109.349514">
<time>2016-10-06T15:35:59Z</time></trkpt>
<trkpt lat="24.618431" lon="109.349424">
<time>2016-10-06T15:36:00Z</time></trkpt>
<trkpt lat="24.618341" lon="109.349314">
<time>2016-10-06T15:36:01Z</time></trkpt>
<trkpt lat="24.618241" lon="109.349225">
<time>2016-10-06T15:36:02Z</time></trkpt>
<trkpt lat="24.618141" lon="109.349145">
<time>2016-10-06T15:36:03Z</time></trkpt>
<trkpt lat="24.618031" lon="109.349075">
<time>2016-10-06T15:36:04Z</time></trkpt>
<trkpt lat="24.617661" lon="109.348935">
<time>2016-10-06T15:36:05Z</time></trkpt>
<trkpt lat="24.617432" lon="109.348836">
<time>2016-10-06T15:36:06Z</time></trkpt>
<trkpt lat="24.617322" lon="109.348756">
<time>2016-10-06T15:36:07Z</time></trkpt>
<trkpt lat="24.617022" lon="109.348526">
<time>2016-10-06T15:36:08Z</time></trkpt>
<trkpt lat="24.617002" lon="109.348516">
<time>2016-10-06T15:36:09Z</time></trkpt>
<trkpt lat="24.616962" lon="109.348476">
<time>2016-10-06T15:36:10Z</time></trkpt>
<trkpt lat="24.616713" lon="109.348237">
<time>2016-10-06T15:36:11Z</time></trkpt>
<trkpt lat="24.616523" lon="109.348047">
<time>2016-10-06T15:36:12Z</time></trkpt>
<trkpt lat="24.616423" lon="109.347958">
<time>2016-10-06T15:36:13Z</time></trkpt>
<trkpt lat="24.616213" lon="109.347828">
<time>2016-10-06T15:36:14Z</time></trkpt>
<trkpt lat="24.616113" lon="109.347738">
<time>2016-10-06T15:36:15Z</time></trkpt>
<trkpt lat="24.615934" lon="109.347539">
<time>2016-10-06T15:36:16Z</time></trkpt>
<trkpt lat="24.615454" lon="109.34707">
<time>2016-10-06T15:36:17Z</time></trkpt>
<trkpt lat="24.615355" lon="109.34698">
<time>2016-10-06T15:36:18Z</time></trkpt>
<trkpt lat="24.615265" lon="109.34686">
<time>2016-10-06T15:36:19Z</time></trkpt>
<trkpt lat="24.615225" lon="109.34683">
<time>2016-10-06T15:36:20Z</time></trkpt>
<trkpt lat="24.615215" lon="109.34682">
<time>2016-10-06T15:36:21Z</time></trkpt>
<trkpt lat="24.615205" lon="109.3468">
<time>2016-10-06T15:36:22Z</time></trkpt>
<trkpt lat="24.615115" lon="109.34676">
<time>2016-10-06T15:36:23Z</time></trkpt>
<trkpt lat="24.615045" lon="109.346721">
<time>2016-10-06T15:36:24Z</time></trkpt>
<trkpt lat="24.614815" lon="109.346591">
<time>2016-10-06T15:36:25Z</time></trkpt>
<trkpt lat="24.614705" lon="109.346511">
<time>2016-10-06T15:36:26Z</time></trkpt>
<trkpt lat="24.614606" lon="109.346421">
<time>2016-10-06T15:36:27Z</time></trkpt>
<trkpt lat="24.614606" lon="109.346391">
<time>2016-10-06T15:36:28Z</time></trkpt>
<trkpt lat="24.614606" lon="109.346282">
<time>2016-10-06T15:36:29Z</time></trkpt>
<trkpt lat="24.614666" lon="109.346012">
<time>2016-10-06T15:36:30Z</time></trkpt>
<trkpt lat="24.614687" lon="109.345593">
<time>2016-10-06T15:36:31Z</time></trkpt>
<trkpt lat="24.614717" lon="109.345314">
<time>2016-10-06T15:36:32Z</time></trkpt>
<trkpt lat="24.614728" lon="109.345034">
<time>2016-10-06T15:36:33Z</time></trkpt>
<trkpt lat="24.614769" lon="109.344605">
<time>2016-10-06T15:36:34Z</time></trkpt>
<trkpt lat="24.614749" lon="109.344476">
<time>2016-10-06T15:36:35Z</time></trkpt>
<trkpt lat="24.61461" lon="109.344077">
<time>2016-10-06T15:36:36Z</time></trkpt>
<trkpt lat="24.61458" lon="109.343937">
<time>2016-10-06T15:36:37Z</time></trkpt>
<trkpt lat="24.61458" lon="109.343907">
<time>2016-10-06T15:36:38Z</time></trkpt>
<trkpt lat="24.61456" lon="109.343658">
<time>2016-10-06T15:36:39Z</time></trkpt>
<trkpt lat="24.61455" lon="109.343558">
<time>2016-10-06T15:36:40Z</time></trkpt>
<trkpt lat="24.614551" lon="109.343518">
<time>2016-10-06T15:36:41Z</time></trkpt>
<trkpt lat="24.614551" lon="109.343448">
<time>2016-10-06T15:36:42Z</time></trkpt>
<trkpt lat="24.614551" lon="109.343378">
<time>2016-10-06T15:36:43Z</time></trkpt>
<trkpt lat="24.614561" lon="109.343239">
<time>2016-10-06T15:36:44Z</time></trkpt>
<trkpt lat="24.614541" lon="109.343099">
<time>2016-10-06T15:36:45Z</time></trkpt>
<trkpt lat="24.614512" lon="109.34282">
<time>2016-10-06T15:36:46Z</time></trkpt>
<trkpt lat="24.614492" lon="109.34254">
<time>2016-10-06T15:36:47Z</time></trkpt>
<trkpt lat="24.614503" lon="109.342261">
<time>2016-10-06T15:36:48Z</time></trkpt>
<trkpt lat="24.614513" lon="109.342121">
<time>2016-10-06T15:36:49Z</time></trkpt>
<trkpt lat="24.614543" lon="109.341992">
<time>2016-10-06T15:36:50Z</time></trkpt>
<trkpt lat="24.614593" lon="109.341852">
<time>2016-10-06T15:36:51Z</time></trkpt>
<trkpt lat="24.614624" lon="109.341722">
<time>2016-10-06T15:36:52Z</time></trkpt>
<trkpt lat="24.614634" lon="109.341583">
<time>2016-10-06T15:36:53Z</time></trkpt>
<trkpt lat="24.614644" lon="109.341443">
<time>2016-10-06T15:36:54Z</time></trkpt>
<trkpt lat="24.614664" lon="109.341293">
<time>2016-10-06T15:36:55Z</time></trkpt>
<trkpt lat="24.614665" lon="109.341154">
<time>2016-10-06T15:36:56Z</time></trkpt>
<trkpt lat="24.614576" lon="109.340595">
<time>2016-10-06T15:36:57Z</time></trkpt>
<trkpt lat="24.614556" lon="109.340455">
<time>2016-10-06T15:36:58Z</time></trkpt>
<trkpt lat="24.614516" lon="109.340326">
<time>2016-10-06T15:36:59Z</time></trkpt>
<trkpt lat="24.614466" lon="109.340196">
<time>2016-10-06T15:37:00Z</time></trkpt>
<trkpt lat="24.614397" lon="109.339977">
<time>2016-10-06T15:37:01Z</time></trkpt>
<trkpt lat="24.614367" lon="109.339857">
<time>2016-10-06T15:37:02Z</time></trkpt>
<trkpt lat="24.614347" lon="109.339737">
<time>2016-10-06T15:37:03Z</time></trkpt>
<trkpt lat="24.614357" lon="109.339627">
<time>2016-10-06T15:37:04Z</time></trkpt>
<trkpt lat="24.614358" lon="109.339458">
<time>2016-10-06T15:37:05Z</time></trkpt>
<trkpt lat="24.614358" lon="109.339358">
<time>2016-10-06T15:37:06Z</time></trkpt>
<trkpt lat="24.614328" lon="109.339208">
<time>2016-10-06T15:37:07Z</time></trkpt>
<trkpt lat="24.614309" lon="109.339039">
<time>2016-10-06T15:37:08Z</time></trkpt>
<trkpt lat="24.614299" lon="109.338789">
<time>2016-10-06T15:37:09Z</time></trkpt>
<trkpt lat="24.614289" lon="109.33856">
<time>2016-10-06T15:37:10Z</time></trkpt>
<trkpt lat="24.61428" lon="109.338351">
<time>2016-10-06T15:37:11Z</time></trkpt>
<trkpt lat="24.61426" lon="109.338221">
<time>2016-10-06T15:37:12Z</time></trkpt>
<trkpt lat="24.61423" lon="109.338101">
<time>2016-10-06T15:37:13Z</time></trkpt>
<trkpt lat="24.614171" lon="109.337961">
<time>2016-10-06T15:37:14Z</time></trkpt>
<trkpt lat="24.614131" lon="109.337892">
<time>2016-10-06T15:37:15Z</time></trkpt>
<trkpt lat="24.614081" lon="109.337822">
<time>2016-10-06T15:37:16Z</time></trkpt>
<trkpt lat="24.614031" lon="109.337772">
<time>2016-10-06T15:37:17Z</time></trkpt>
<trkpt lat="24.614001" lon="109.337752">
<time>2016-10-06T15:37:18Z</time></trkpt>
<trkpt lat="24.613961" lon="109.337732">
<time>2016-10-06T15:37:19Z</time></trkpt>
<trkpt lat="24.613881" lon="109.337722">
<time>2016-10-06T15:37:20Z</time></trkpt>
<trkpt lat="24.613741" lon="109.337742">
<time>2016-10-06T15:37:21Z</time></trkpt>
<trkpt lat="24.613601" lon="109.337742">
<time>2016-10-06T15:37:22Z</time></trkpt>
<trkpt lat="24.613521" lon="109.337732">
<time>2016-10-06T15:37:23Z</time></trkpt>
<trkpt lat="24.613471" lon="109.337712">
<time>2016-10-06T15:37:24Z</time></trkpt>
<trkpt lat="24.613431" lon="109.337682">
<time>2016-10-06T15:37:25Z</time></trkpt>
<trkpt lat="24.613381" lon="109.337642">
<time>2016-10-06T15:37:26Z</time></trkpt>
<trkpt lat="24.613351" lon="109.337602">
<time>2016-10-06T15:37:27Z</time></trkpt>
<trkpt lat="24.613301" lon="109.337513">
<time>2016-10-06T15:37:28Z</time></trkpt>
<trkpt lat="24.613251" lon="109.337403">
<time>2016-10-06T15:37:29Z</time></trkpt>
<trkpt lat="24.613162" lon="109.337154">
<time>2016-10-06T15:37:30Z</time></trkpt>
<trkpt lat="24.612973" lon="109.336685">
<time>2016-10-06T15:37:31Z</time></trkpt>
<trkpt lat="24.612843" lon="109.336346">
<time>2016-10-06T15:37:32Z</time></trkpt>
<trkpt lat="24.612714" lon="109.336016">
<time>2016-10-06T15:37:33Z</time></trkpt>
<trkpt lat="24.612684" lon="109.335927">
<time>2016-10-06T15:37:34Z</time></trkpt>
<trkpt lat="24.612654" lon="109.335857">
<time>2016-10-06T15:37:35Z</time></trkpt>
<trkpt lat="24.612624" lon="109.335807">
<time>2016-10-06T15:37:36Z</time></trkpt>
<trkpt lat="24.612584" lon="109.335777">
<time>2016-10-06T15:37:37Z</time></trkpt>
<trkpt lat="24.612545" lon="109.335747">
<time>2016-10-06T15:37:38Z</time></trkpt>
<trkpt lat="24.612485" lon="109.335727">
<time>2016-10-06T15:37:39Z</time></trkpt>
<trkpt lat="24.612155" lon="109.335667">
<time>2016-10-06T15:37:40Z</time></trkpt>
<trkpt lat="24.611945" lon="109.335617">
<time>2016-10-06T15:37:41Z</time></trkpt>
<trkpt lat="24.611785" lon="109.335558">
<time>2016-10-06T15:37:42Z</time></trkpt>
<trkpt lat="24.611695" lon="109.335498">
<time>2016-10-06T15:37:43Z</time></trkpt>
<trkpt lat="24.611565" lon="109.335398">
<time>2016-10-06T15:37:44Z</time></trkpt>
<trkpt lat="24.611385" lon="109.335288">
<time>2016-10-06T15:37:45Z</time></trkpt>
<trkpt lat="24.611126" lon="109.335109">
<time>2016-10-06T15:37:46Z</time></trkpt>
<trkpt lat="24.610976" lon="109.335009">
<time>2016-10-06T15:37:47Z</time></trkpt>
<trkpt lat="24.610806" lon="109.334939">
<time>2016-10-06T15:37:48Z</time></trkpt>
<trkpt lat="24.610696" lon="109.334869">
<time>2016-10-06T15:37:49Z</time></trkpt>
<trkpt lat="24.610526" lon="109.33471">
<time>2016-10-06T15:37:50Z</time></trkpt>
<trkpt lat="24.610297" lon="109.33452">
<time>2016-10-06T15:37:51Z</time></trkpt>
<trkpt lat="24.610037" lon="109.334291">
<time>2016-10-06T15:37:52Z</time></trkpt>
<trkpt lat="24.609758" lon="109.334051">
<time>2016-10-06T15:37:53Z</time></trkpt>
<trkpt lat="24.609438" lon="109.333742">
<time>2016-10-06T15:37:54Z</time></trkpt>
<trkpt lat="24.609298" lon="109.333543">
<time>2016-10-06T15:37:55Z</time></trkpt>
<trkpt lat="24.609259" lon="109.333493">
<time>2016-10-06T15:37:56Z</time></trkpt>
<trkpt lat="24.609219" lon="109.333453">
<time>2016-10-06T15:37:57Z</time></trkpt>
<trkpt lat="24.609219" lon="109.333453">
<time>2016-10-06T15:37:58Z</time></trkpt>
<trkpt lat="24.609159" lon="109.333463">
<time>2016-10-06T15:37:59Z</time></trkpt>
<trkpt lat="24.609099" lon="109.333463">
<time>2016-10-06T15:38:00Z</time></trkpt>
<trkpt lat="24.609039" lon="109.333463">
<time>2016-10-06T15:38:01Z</time></trkpt>
<trkpt lat="24.608969" lon="109.333463">
<time>2016-10-06T15:38:02Z</time></trkpt>
<trkpt lat="24.608689" lon="109.333423">
<time>2016-10-06T15:38:03Z</time></trkpt>
<trkpt lat="24.608419" lon="109.333383">
<time>2016-10-06T15:38:04Z</time></trkpt>
<trkpt lat="24.608049" lon="109.333323">
<time>2016-10-06T15:38:05Z</time></trkpt>
<trkpt lat="24.607879" lon="109.333283">
<time>2016-10-06T15:38:06Z</time></trkpt>
<trkpt lat="24.607709" lon="109.333224">
<time>2016-10-06T15:38:07Z</time></trkpt>
<trkpt lat="24.607609" lon="109.333174">
<time>2016-10-06T15:38:08Z</time></trkpt>
<trkpt lat="24.607489" lon="109.333104">
<time>2016-10-06T15:38:09Z</time></trkpt>
<trkpt lat="24.607319" lon="109.333024">
<time>2016-10-06T15:38:10Z</time></trkpt>
<trkpt lat="24.60707" lon="109.332934">
<time>2016-10-06T15:38:11Z</time></trkpt>
<trkpt lat="24.60702" lon="109.332914">
<time>2016-10-06T15:38:12Z</time></trkpt>
<trkpt lat="24.60699" lon="109.332894">
<time>2016-10-06T15:38:13Z</time></trkpt>
<trkpt lat="24.60697" lon="109.332875">
<time>2016-10-06T15:38:14Z</time></trkpt>
<trkpt lat="24.60695" lon="109.332845">
<time>2016-10-06T15:38:15Z</time></trkpt>
<trkpt lat="24.60687" lon="109.332695">
<time>2016-10-06T15:38:16Z</time></trkpt>
<trkpt lat="24.60687" lon="109.332695">
<time>2016-10-06T15:38:17Z</time></trkpt>
<trkpt lat="24.60695" lon="109.332675">
<time>2016-10-06T15:38:18Z</time></trkpt>
<trkpt lat="24.60711" lon="109.332615">
<time>2016-10-06T15:38:19Z</time></trkpt>
<trkpt lat="24.60737" lon="109.332485">
<time>2016-10-06T15:38:20Z</time></trkpt>
<trkpt lat="24.607611" lon="109.332316">
<time>2016-10-06T15:38:21Z</time></trkpt>
<trkpt lat="24.608041" lon="109.332007">
<time>2016-10-06T15:38:22Z</time></trkpt>
<trkpt lat="24.608452" lon="109.331677">
<time>2016-10-06T15:38:23Z</time></trkpt>
<trkpt lat="24.608602" lon="109.331558">
<time>2016-10-06T15:38:24Z</time></trkpt>
<trkpt lat="24.608762" lon="109.331418">
<time>2016-10-06T15:38:25Z</time></trkpt>
<trkpt lat="24.608833" lon="109.331368">
<time>2016-10-06T15:38:26Z</time></trkpt>
<trkpt lat="24.608973" lon="109.331268">
<time>2016-10-06T15:38:27Z</time></trkpt>
<trkpt lat="24.608993" lon="109.331258">
<time>2016-10-06T15:38:28Z</time></trkpt>
<trkpt lat="24.609223" lon="109.331079">
<time>2016-10-06T15:38:29Z</time></trkpt>
<trkpt lat="24.609263" lon="109.331049">
<time>2016-10-06T15:38:30Z</time></trkpt>
<trkpt lat="24.609313" lon="109.331029">
<time>2016-10-06T15:38:31Z</time></trkpt>
<trkpt lat="24.609353" lon="109.330999">
<time>2016-10-06T15:38:32Z</time></trkpt>
<trkpt lat="24.609403" lon="109.330969">
<time>2016-10-06T15:38:33Z</time></trkpt>
<trkpt lat="24.609463" lon="109.330939">
<time>2016-10-06T15:38:34Z</time></trkpt>
<trkpt lat="24.609523" lon="109.330919">
<time>2016-10-06T15:38:35Z</time></trkpt>
<trkpt lat="24.609583" lon="109.330899">
<time>2016-10-06T15:38:36Z</time></trkpt>
<trkpt lat="24.609764" lon="109.330859">
<time>2016-10-06T15:38:37Z</time></trkpt>
<trkpt lat="24.609914" lon="109.33082">
<time>2016-10-06T15:38:38Z</time></trkpt>
<trkpt lat="24.610324" lon="109.33071">
<time>2016-10-06T15:38:39Z</time></trkpt>
<trkpt lat="24.610574" lon="109.33065">
<time>2016-10-06T15:38:40Z</time></trkpt>
<trkpt lat="24.610764" lon="109.33058">
<time>2016-10-06T15:38:41Z</time></trkpt>
<trkpt lat="24.610904" lon="109.33054">
<time>2016-10-06T15:38:42Z</time></trkpt>
<trkpt lat="24.611134" lon="109.33043">
<time>2016-10-06T15:38:43Z</time></trkpt>
<trkpt lat="24.611355" lon="109.330301">
<time>2016-10-06T15:38:44Z</time></trkpt>
<trkpt lat="24.611645" lon="109.330131">
<time>2016-10-06T15:38:45Z</time></trkpt>
<trkpt lat="24.611805" lon="109.330021">
<time>2016-10-06T15:38:46Z</time></trkpt>
<trkpt lat="24.612035" lon="109.329922">
<time>2016-10-06T15:38:47Z</time></trkpt>
<trkpt lat="24.612496" lon="109.329722">
<time>2016-10-06T15:38:48Z</time></trkpt>
<trkpt lat="24.612796" lon="109.329602">
<time>2016-10-06T15:38:49Z</time></trkpt>
<trkpt lat="24.613056" lon="109.329523">
<time>2016-10-06T15:38:50Z</time></trkpt>
<trkpt lat="24.613156" lon="109.329513">
<time>2016-10-06T15:38:51Z</time></trkpt>
<trkpt lat="24.613286" lon="109.329513">
<time>2016-10-06T15:38:52Z</time></trkpt>
<trkpt lat="24.613356" lon="109.329503">
<time>2016-10-06T15:38:53Z</time></trkpt>
<trkpt lat="24.613446" lon="109.329493">
<time>2016-10-06T15:38:54Z</time></trkpt>
<trkpt lat="24.613506" lon="109.329493">
<time>2016-10-06T15:38:55Z</time></trkpt>
<trkpt lat="24.613506" lon="109.329493">
<time>2016-10-06T15:38:56Z</time></trkpt>
<trkpt lat="24.613647" lon="109.329034">
<time>2016-10-06T15:38:57Z</time></trkpt>
<trkpt lat="24.613647" lon="109.329034">
<time>2016-10-06T15:38:58Z</time></trkpt>
<trkpt lat="24.613817" lon="109.329094">
<time>2016-10-06T15:38:59Z</time></trkpt>
<trkpt lat="24.614867" lon="109.329433">
<time>2016-10-06T15:39:00Z</time></trkpt>
<trkpt lat="24.615766" lon="109.329742">
<time>2016-10-06T15:39:01Z</time></trkpt>
<trkpt lat="24.616306" lon="109.329852">
<time>2016-10-06T15:39:02Z</time></trkpt>
<trkpt lat="24.617815" lon="109.330061">
<time>2016-10-06T15:39:03Z</time></trkpt>
<trkpt lat="24.617885" lon="109.330061">
<time>2016-10-06T15:39:04Z</time></trkpt>
<trkpt lat="24.619865" lon="109.33023">
<time>2016-10-06T15:39:05Z</time></trkpt>
<trkpt lat="24.621425" lon="109.33037">
<time>2016-10-06T15:39:06Z</time></trkpt>
<trkpt lat="24.622985" lon="109.33049">
<time>2016-10-06T15:39:07Z</time></trkpt>
<trkpt lat="24.624465" lon="109.330599">
<time>2016-10-06T15:39:08Z</time></trkpt>
<trkpt lat="24.624685" lon="109.330629">
<time>2016-10-06T15:39:09Z</time></trkpt>
<trkpt lat="24.624805" lon="109.330649">
<time>2016-10-06T15:39:10Z</time></trkpt>
<trkpt lat="24.624984" lon="109.330699">
<time>2016-10-06T15:39:11Z</time></trkpt>
<trkpt lat="24.625194" lon="109.330759">
<time>2016-10-06T15:39:12Z</time></trkpt>
<trkpt lat="24.625364" lon="109.330829">
<time>2016-10-06T15:39:13Z</time></trkpt>
<trkpt lat="24.625544" lon="109.330898">
<time>2016-10-06T15:39:14Z</time></trkpt>
<trkpt lat="24.627113" lon="109.331587">
<time>2016-10-06T15:39:15Z</time></trkpt>
<trkpt lat="24.628232" lon="109.332085">
<time>2016-10-06T15:39:16Z</time></trkpt>
<trkpt lat="24.628492" lon="109.332195">
<time>2016-10-06T15:39:17Z</time></trkpt>
<trkpt lat="24.628592" lon="109.332245">
<time>2016-10-06T15:39:18Z</time></trkpt>
<trkpt lat="24.628682" lon="109.332255">
<time>2016-10-06T15:39:19Z</time></trkpt>
<trkpt lat="24.628812" lon="109.332295">
<time>2016-10-06T15:39:20Z</time></trkpt>
<trkpt lat="24.628972" lon="109.332325">
<time>2016-10-06T15:39:21Z</time></trkpt>
<trkpt lat="24.629082" lon="109.332335">
<time>2016-10-06T15:39:22Z</time></trkpt>
<trkpt lat="24.629222" lon="109.332315">
<time>2016-10-06T15:39:23Z</time></trkpt>
<trkpt lat="24.629492" lon="109.332275">
<time>2016-10-06T15:39:24Z</time></trkpt>
<trkpt lat="24.629652" lon="109.332235">
<time>2016-10-06T15:39:25Z</time></trkpt>
<trkpt lat="24.629652" lon="109.332235">
<time>2016-10-06T15:39:26Z</time></trkpt>
<trkpt lat="24.629913" lon="109.331327">
<time>2016-10-06T15:39:27Z</time></trkpt>
<trkpt lat="24.630185" lon="109.33032">
<time>2016-10-06T15:39:28Z</time></trkpt>
<trkpt lat="24.630619" lon="109.328574">
<time>2016-10-06T15:39:29Z</time></trkpt>
<trkpt lat="24.630991" lon="109.327177">
<time>2016-10-06T15:39:30Z</time></trkpt>
<trkpt lat="24.631102" lon="109.326798">
<time>2016-10-06T15:39:31Z</time></trkpt>
<trkpt lat="24.631203" lon="109.326499">
<time>2016-10-06T15:39:32Z</time></trkpt>
<trkpt lat="24.631303" lon="109.32624">
<time>2016-10-06T15:39:33Z</time></trkpt>
<trkpt lat="24.631384" lon="109.32604">
<time>2016-10-06T15:39:34Z</time></trkpt>
<trkpt lat="24.631484" lon="109.325821">
<time>2016-10-06T15:39:35Z</time></trkpt>
<trkpt lat="24.631594" lon="109.325572">
<time>2016-10-06T15:39:36Z</time></trkpt>
<trkpt lat="24.632788" lon="109.323547">
<time>2016-10-06T15:39:37Z</time></trkpt>
<trkpt lat="24.634012" lon="109.321472">
<time>2016-10-06T15:39:38Z</time></trkpt>
<trkpt lat="24.634895" lon="109.319966">
<time>2016-10-06T15:39:39Z</time></trkpt>
<trkpt lat="24.635307" lon="109.319267">
<time>2016-10-06T15:39:40Z</time></trkpt>
<trkpt lat="24.635688" lon="109.318629">
<time>2016-10-06T15:39:41Z</time></trkpt>
<trkpt lat="24.635858" lon="109.31838">
<time>2016-10-06T15:39:42Z</time></trkpt>
<trkpt lat="24.636019" lon="109.31815">
<time>2016-10-06T15:39:43Z</time></trkpt>
<trkpt lat="24.636249" lon="109.317851">
<time>2016-10-06T15:39:44Z</time></trkpt>
<trkpt lat="24.63639" lon="109.317651">
<time>2016-10-06T15:39:45Z</time></trkpt>
<trkpt lat="24.63652" lon="109.317502">
<time>2016-10-06T15:39:46Z</time></trkpt>
<trkpt lat="24.63666" lon="109.317322">
<time>2016-10-06T15:39:47Z</time></trkpt>
<trkpt lat="24.636761" lon="109.317223">
<time>2016-10-06T15:39:48Z</time></trkpt>
<trkpt lat="24.636881" lon="109.317103">
<time>2016-10-06T15:39:49Z</time></trkpt>
<trkpt lat="24.637031" lon="109.316953">
<time>2016-10-06T15:39:50Z</time></trkpt>
<trkpt lat="24.638143" lon="109.315906">
<time>2016-10-06T15:39:51Z</time></trkpt>
<trkpt lat="24.639305" lon="109.314799">
<time>2016-10-06T15:39:52Z</time></trkpt>
<trkpt lat="24.639455" lon="109.314649">
<time>2016-10-06T15:39:53Z</time></trkpt>
<trkpt lat="24.639616" lon="109.314479">
<time>2016-10-06T15:39:54Z</time></trkpt>
<trkpt lat="24.639736" lon="109.31433">
<time>2016-10-06T15:39:55Z</time></trkpt>
<trkpt lat="24.639856" lon="109.3142">
<time>2016-10-06T15:39:56Z</time></trkpt>
<trkpt lat="24.639927" lon="109.3141">
<time>2016-10-06T15:39:57Z</time></trkpt>
<trkpt lat="24.640007" lon="109.313991">
<time>2016-10-06T15:39:58Z</time></trkpt>
<trkpt lat="24.640067" lon="109.313901">
<time>2016-10-06T15:39:59Z</time></trkpt>
<trkpt lat="24.640117" lon="109.313831">
<time>2016-10-06T15:40:00Z</time></trkpt>
<trkpt lat="24.640177" lon="109.313741">
<time>2016-10-06T15:40:01Z</time></trkpt>
<trkpt lat="24.640247" lon="109.313621">
<time>2016-10-06T15:40:02Z</time></trkpt>
<trkpt lat="24.640368" lon="109.313422">
<time>2016-10-06T15:40:03Z</time></trkpt>
<trkpt lat="24.64096" lon="109.312355">
<time>2016-10-06T15:40:04Z</time></trkpt>
<trkpt lat="24.641793" lon="109.310838">
<time>2016-10-06T15:40:05Z</time></trkpt>
<trkpt lat="24.642224" lon="109.30999">
<time>2016-10-06T15:40:06Z</time></trkpt>
<trkpt lat="24.642345" lon="109.309691">
<time>2016-10-06T15:40:07Z</time></trkpt>
<trkpt lat="24.642425" lon="109.309472">
<time>2016-10-06T15:40:08Z</time></trkpt>
<trkpt lat="24.642496" lon="109.309262">
<time>2016-10-06T15:40:09Z</time></trkpt>
<trkpt lat="24.642546" lon="109.309073">
<time>2016-10-06T15:40:10Z</time></trkpt>
<trkpt lat="24.642576" lon="109.308933">
<time>2016-10-06T15:40:11Z</time></trkpt>
<trkpt lat="24.642606" lon="109.308763">
<time>2016-10-06T15:40:12Z</time></trkpt>
<trkpt lat="24.642627" lon="109.308614">
<time>2016-10-06T15:40:13Z</time></trkpt>
<trkpt lat="24.642657" lon="109.308444">
<time>2016-10-06T15:40:14Z</time></trkpt>
<trkpt lat="24.642667" lon="109.308285">
<time>2016-10-06T15:40:15Z</time></trkpt>
<trkpt lat="24.642688" lon="109.308105">
<time>2016-10-06T15:40:16Z</time></trkpt>
<trkpt lat="24.642708" lon="109.307856">
<time>2016-10-06T15:40:17Z</time></trkpt>
<trkpt lat="24.642718" lon="109.307646">
<time>2016-10-06T15:40:18Z</time></trkpt>
<trkpt lat="24.642719" lon="109.307626">
<time>2016-10-06T15:40:19Z</time></trkpt>
<trkpt lat="24.642729" lon="109.307417">
<time>2016-10-06T15:40:20Z</time></trkpt>
<trkpt lat="24.642791" lon="109.306379">
<time>2016-10-06T15:40:21Z</time></trkpt>
<trkpt lat="24.642822" lon="109.30591">
<time>2016-10-06T15:40:22Z</time></trkpt>
<trkpt lat="24.642842" lon="109.305711">
<time>2016-10-06T15:40:23Z</time></trkpt>
<trkpt lat="24.642882" lon="109.305452">
<time>2016-10-06T15:40:24Z</time></trkpt>
<trkpt lat="24.642943" lon="109.305092">
<time>2016-10-06T15:40:25Z</time></trkpt>
<trkpt lat="24.643014" lon="109.304763">
<time>2016-10-06T15:40:26Z</time></trkpt>
<trkpt lat="24.643195" lon="109.304055">
<time>2016-10-06T15:40:27Z</time></trkpt>
<trkpt lat="24.643517" lon="109.302708">
<time>2016-10-06T15:40:28Z</time></trkpt>
<trkpt lat="24.643819" lon="109.301461">
<time>2016-10-06T15:40:29Z</time></trkpt>
<trkpt lat="24.644273" lon="109.299615">
<time>2016-10-06T15:40:30Z</time></trkpt>
<trkpt lat="24.644464" lon="109.298877">
<time>2016-10-06T15:40:31Z</time></trkpt>
<trkpt lat="24.644534" lon="109.298578">
<time>2016-10-06T15:40:32Z</time></trkpt>
<trkpt lat="24.644635" lon="109.298209">
<time>2016-10-06T15:40:33Z</time></trkpt>
<trkpt lat="24.644715" lon="109.297939">
<time>2016-10-06T15:40:34Z</time></trkpt>
<trkpt lat="24.644796" lon="109.2977">
<time>2016-10-06T15:40:35Z</time></trkpt>
<trkpt lat="24.644906" lon="109.29741">
<time>2016-10-06T15:40:36Z</time></trkpt>
<trkpt lat="24.645007" lon="109.297161">
<time>2016-10-06T15:40:37Z</time></trkpt>
<trkpt lat="24.645087" lon="109.296971">
<time>2016-10-06T15:40:38Z</time></trkpt>
<trkpt lat="24.645228" lon="109.296672">
<time>2016-10-06T15:40:39Z</time></trkpt>
<trkpt lat="24.646111" lon="109.294796">
<time>2016-10-06T15:40:40Z</time></trkpt>
<trkpt lat="24.646472" lon="109.294048">
<time>2016-10-06T15:40:41Z</time></trkpt>
<trkpt lat="24.646733" lon="109.293519">
<time>2016-10-06T15:40:42Z</time></trkpt>
<trkpt lat="24.647164" lon="109.292571">
<time>2016-10-06T15:40:43Z</time></trkpt>
<trkpt lat="24.647646" lon="109.291593">
<time>2016-10-06T15:40:44Z</time></trkpt>
<trkpt lat="24.648378" lon="109.290076">
<time>2016-10-06T15:40:45Z</time></trkpt>
<trkpt lat="24.648819" lon="109.289148">
<time>2016-10-06T15:40:46Z</time></trkpt>
<trkpt lat="24.6489" lon="109.288969">
<time>2016-10-06T15:40:47Z</time></trkpt>
<trkpt lat="24.64898" lon="109.288789">
<time>2016-10-06T15:40:48Z</time></trkpt>
<trkpt lat="24.64905" lon="109.288629">
<time>2016-10-06T15:40:49Z</time></trkpt>
<trkpt lat="24.64912" lon="109.28846">
<time>2016-10-06T15:40:50Z</time></trkpt>
<trkpt lat="24.649201" lon="109.28824">
<time>2016-10-06T15:40:51Z</time></trkpt>
<trkpt lat="24.649281" lon="109.288001">
<time>2016-10-06T15:40:52Z</time></trkpt>
<trkpt lat="24.649351" lon="109.287801">
<time>2016-10-06T15:40:53Z</time></trkpt>
<trkpt lat="24.649412" lon="109.287572">
<time>2016-10-06T15:40:54Z</time></trkpt>
<trkpt lat="24.649462" lon="109.287332">
<time>2016-10-06T15:40:55Z</time></trkpt>
<trkpt lat="24.649502" lon="109.287113">
<time>2016-10-06T15:40:56Z</time></trkpt>
<trkpt lat="24.649533" lon="109.286913">
<time>2016-10-06T15:40:57Z</time></trkpt>
<trkpt lat="24.649553" lon="109.286693">
<time>2016-10-06T15:40:58Z</time></trkpt>
<trkpt lat="24.649563" lon="109.286524">
<time>2016-10-06T15:40:59Z</time></trkpt>
<trkpt lat="24.649573" lon="109.286364">
<time>2016-10-06T15:41:00Z</time></trkpt>
<trkpt lat="24.649574" lon="109.286144">
<time>2016-10-06T15:41:01Z</time></trkpt>
<trkpt lat="24.649574" lon="109.285925">
<time>2016-10-06T15:41:02Z</time></trkpt>
<trkpt lat="24.649564" lon="109.285695">
<time>2016-10-06T15:41:03Z</time></trkpt>
<trkpt lat="24.649544" lon="109.285506">
<time>2016-10-06T15:41:04Z</time></trkpt>
<trkpt lat="24.649515" lon="109.285246">
<time>2016-10-06T15:41:05Z</time></trkpt>
<trkpt lat="24.649357" lon="109.283789">
<time>2016-10-06T15:41:06Z</time></trkpt>
<trkpt lat="24.649307" lon="109.28334">
<time>2016-10-06T15:41:07Z</time></trkpt>
<trkpt lat="24.649258" lon="109.282851">
<time>2016-10-06T15:41:08Z</time></trkpt>
<trkpt lat="24.649238" lon="109.282581">
<time>2016-10-06T15:41:09Z</time></trkpt>
<trkpt lat="24.649229" lon="109.282382">
<time>2016-10-06T15:41:10Z</time></trkpt>
<trkpt lat="24.649229" lon="109.282172">
<time>2016-10-06T15:41:11Z</time></trkpt>
<trkpt lat="24.649249" lon="109.281923">
<time>2016-10-06T15:41:12Z</time></trkpt>
<trkpt lat="24.649259" lon="109.281773">
<time>2016-10-06T15:41:13Z</time></trkpt>
<trkpt lat="24.64927" lon="109.281653">
<time>2016-10-06T15:41:14Z</time></trkpt>
<trkpt lat="24.64931" lon="109.281474">
<time>2016-10-06T15:41:15Z</time></trkpt>
<trkpt lat="24.64934" lon="109.281304">
<time>2016-10-06T15:41:16Z</time></trkpt>
<trkpt lat="24.64938" lon="109.281134">
<time>2016-10-06T15:41:17Z</time></trkpt>
<trkpt lat="24.64942" lon="109.281004">
<time>2016-10-06T15:41:18Z</time></trkpt>
<trkpt lat="24.649451" lon="109.280845">
<time>2016-10-06T15:41:19Z</time></trkpt>
<trkpt lat="24.649903" lon="109.279108">
<time>2016-10-06T15:41:20Z</time></trkpt>
<trkpt lat="24.649983" lon="109.278808">
<time>2016-10-06T15:41:21Z</time></trkpt>
<trkpt lat="24.650013" lon="109.278609">
<time>2016-10-06T15:41:22Z</time></trkpt>
<trkpt lat="24.650064" lon="109.278349">
<time>2016-10-06T15:41:23Z</time></trkpt>
<trkpt lat="24.650094" lon="109.27813">
<time>2016-10-06T15:41:24Z</time></trkpt>
<trkpt lat="24.650104" lon="109.27801">
<time>2016-10-06T15:41:25Z</time></trkpt>
<trkpt lat="24.650114" lon="109.27789">
<time>2016-10-06T15:41:26Z</time></trkpt>
<trkpt lat="24.650114" lon="109.27773">
<time>2016-10-06T15:41:27Z</time></trkpt>
<trkpt lat="24.650115" lon="109.277541">
<time>2016-10-06T15:41:28Z</time></trkpt>
<trkpt lat="24.650115" lon="109.277151">
<time>2016-10-06T15:41:29Z</time></trkpt>
<trkpt lat="24.650096" lon="109.276492">
<time>2016-10-06T15:41:30Z</time></trkpt>
<trkpt lat="24.650068" lon="109.274725">
<time>2016-10-06T15:41:31Z</time></trkpt>
<trkpt lat="24.650068" lon="109.274176">
<time>2016-10-06T15:41:32Z</time></trkpt>
<trkpt lat="24.650099" lon="109.273847">
<time>2016-10-06T15:41:33Z</time></trkpt>
<trkpt lat="24.650129" lon="109.273497">
<time>2016-10-06T15:41:34Z</time></trkpt>
<trkpt lat="24.650149" lon="109.273268">
<time>2016-10-06T15:41:35Z</time></trkpt>
<trkpt lat="24.650199" lon="109.273008">
<time>2016-10-06T15:41:36Z</time></trkpt>
<trkpt lat="24.65028" lon="109.272689">
<time>2016-10-06T15:41:37Z</time></trkpt>
<trkpt lat="24.65034" lon="109.272439">
<time>2016-10-06T15:41:38Z</time></trkpt>
<trkpt lat="24.65042" lon="109.27218">
<time>2016-10-06T15:41:39Z</time></trkpt>
<trkpt lat="24.650531" lon="109.27187">
<time>2016-10-06T15:41:40Z</time></trkpt>
<trkpt lat="24.650631" lon="109.27163">
<time>2016-10-06T15:41:41Z</time></trkpt>
<trkpt lat="24.650741" lon="109.271401">
<time>2016-10-06T15:41:42Z</time></trkpt>
<trkpt lat="24.650741" lon="109.271401">
<time>2016-10-06T15:41:43Z</time></trkpt>
<trkpt lat="24.650741" lon="109.271321">
<time>2016-10-06T15:41:44Z</time></trkpt>
<trkpt lat="24.650831" lon="109.271161">
<time>2016-10-06T15:41:45Z</time></trkpt>
<trkpt lat="24.650911" lon="109.270991">
<time>2016-10-06T15:41:46Z</time></trkpt>
<trkpt lat="24.651122" lon="109.270642">
<time>2016-10-06T15:41:47Z</time></trkpt>
<trkpt lat="24.651652" lon="109.269783">
<time>2016-10-06T15:41:48Z</time></trkpt>
<trkpt lat="24.652343" lon="109.268675">
<time>2016-10-06T15:41:49Z</time></trkpt>
<trkpt lat="24.652814" lon="109.267946">
<time>2016-10-06T15:41:50Z</time></trkpt>
<trkpt lat="24.653976" lon="109.266098">
<time>2016-10-06T15:41:51Z</time></trkpt>
<trkpt lat="24.654887" lon="109.26466">
<time>2016-10-06T15:41:52Z</time></trkpt>
<trkpt lat="24.655197" lon="109.264151">
<time>2016-10-06T15:41:53Z</time></trkpt>
<trkpt lat="24.655417" lon="109.263761">
<time>2016-10-06T15:41:54Z</time></trkpt>
<trkpt lat="24.655577" lon="109.263472">
<time>2016-10-06T15:41:55Z</time></trkpt>
<trkpt lat="24.655718" lon="109.263212">
<time>2016-10-06T15:41:56Z</time></trkpt>
<trkpt lat="24.656128" lon="109.262333">
<time>2016-10-06T15:41:57Z</time></trkpt>
<trkpt lat="24.656869" lon="109.260805">
<time>2016-10-06T15:41:58Z</time></trkpt>
<trkpt lat="24.6575" lon="109.259486">
<time>2016-10-06T15:41:59Z</time></trkpt>
<trkpt lat="24.65768" lon="109.259066">
<time>2016-10-06T15:42:00Z</time></trkpt>
<trkpt lat="24.65776" lon="109.258827">
<time>2016-10-06T15:42:01Z</time></trkpt>
<trkpt lat="24.65781" lon="109.258657">
<time>2016-10-06T15:42:02Z</time></trkpt>
<trkpt lat="24.65784" lon="109.258507">
<time>2016-10-06T15:42:03Z</time></trkpt>
<trkpt lat="24.65787" lon="109.258337">
<time>2016-10-06T15:42:04Z</time></trkpt>
<trkpt lat="24.657891" lon="109.258097">
<time>2016-10-06T15:42:05Z</time></trkpt>
<trkpt lat="24.657901" lon="109.257948">
<time>2016-10-06T15:42:06Z</time></trkpt>
<trkpt lat="24.657901" lon="109.257818">
<time>2016-10-06T15:42:07Z</time></trkpt>
<trkpt lat="24.657891" lon="109.257688">
<time>2016-10-06T15:42:08Z</time></trkpt>
<trkpt lat="24.657881" lon="109.257578">
<time>2016-10-06T15:42:09Z</time></trkpt>
<trkpt lat="24.657851" lon="109.257298">
<time>2016-10-06T15:42:10Z</time></trkpt>
<trkpt lat="24.657771" lon="109.256719">
<time>2016-10-06T15:42:11Z</time></trkpt>
<trkpt lat="24.657681" lon="109.25608">
<time>2016-10-06T15:42:12Z</time></trkpt>
<trkpt lat="24.657452" lon="109.254421">
<time>2016-10-06T15:42:13Z</time></trkpt>
<trkpt lat="24.657223" lon="109.252812">
<time>2016-10-06T15:42:14Z</time></trkpt>
<trkpt lat="24.657023" lon="109.251344">
<time>2016-10-06T15:42:15Z</time></trkpt>
<trkpt lat="24.656953" lon="109.250844">
<time>2016-10-06T15:42:16Z</time></trkpt>
<trkpt lat="24.656833" lon="109.250005">
<time>2016-10-06T15:42:17Z</time></trkpt>
<trkpt lat="24.656663" lon="109.248686">
<time>2016-10-06T15:42:18Z</time></trkpt>
<trkpt lat="24.656623" lon="109.248396">
<time>2016-10-06T15:42:19Z</time></trkpt>
<trkpt lat="24.656564" lon="109.247866">
<time>2016-10-06T15:42:20Z</time></trkpt>
<trkpt lat="24.656554" lon="109.247816">
<time>2016-10-06T15:42:21Z</time></trkpt>
<trkpt lat="24.656554" lon="109.247816">
<time>2016-10-06T15:42:22Z</time></trkpt>
<trkpt lat="24.656544" lon="109.247716">
<time>2016-10-06T15:42:23Z</time></trkpt>
<trkpt lat="24.656564" lon="109.247656">
<time>2016-10-06T15:42:24Z</time></trkpt>
<trkpt lat="24.656554" lon="109.247616">
<time>2016-10-06T15:42:25Z</time></trkpt>
<trkpt lat="24.656544" lon="109.247586">
<time>2016-10-06T15:42:26Z</time></trkpt>
<trkpt lat="24.656524" lon="109.247566">
<time>2016-10-06T15:42:27Z</time></trkpt>
<trkpt lat="24.656354" lon="109.247396">
<time>2016-10-06T15:42:28Z</time></trkpt>
<trkpt lat="24.655884" lon="109.246667">
<time>2016-10-06T15:42:29Z</time></trkpt>
<trkpt lat="24.655584" lon="109.246217">
<time>2016-10-06T15:42:30Z</time></trkpt>
<trkpt lat="24.655414" lon="109.245957">
<time>2016-10-06T15:42:31Z</time></trkpt>
<trkpt lat="24.655304" lon="109.245787">
<time>2016-10-06T15:42:32Z</time></trkpt>
<trkpt lat="24.655174" lon="109.245577">
<time>2016-10-06T15:42:33Z</time></trkpt>
<trkpt lat="24.654914" lon="109.245048">
<time>2016-10-06T15:42:34Z</time></trkpt>
<trkpt lat="24.654764" lon="109.244738">
<time>2016-10-06T15:42:35Z</time></trkpt>
<trkpt lat="24.654594" lon="109.244438">
<time>2016-10-06T15:42:36Z</time></trkpt>
<trkpt lat="24.654454" lon="109.244208">
<time>2016-10-06T15:42:37Z</time></trkpt>
<trkpt lat="24.654254" lon="109.243878">
<time>2016-10-06T15:42:38Z</time></trkpt>
<trkpt lat="24.654154" lon="109.243678">
<time>2016-10-06T15:42:39Z</time></trkpt>
<trkpt lat="24.654014" lon="109.243299">
<time>2016-10-06T15:42:40Z</time></trkpt>
<trkpt lat="24.653964" lon="109.243119">
<time>2016-10-06T15:42:41Z</time></trkpt>
<trkpt lat="24.653924" lon="109.242899">
<time>2016-10-06T15:42:42Z</time></trkpt>
<trkpt lat="24.653853" lon="109.242449">
<time>2016-10-06T15:42:43Z</time></trkpt>
<trkpt lat="24.653793" lon="109.242049">
<time>2016-10-06T15:42:44Z</time></trkpt>
<trkpt lat="24.653793" lon="109.242049">
<time>2016-10-06T15:42:45Z</time></trkpt>
<trkpt lat="24.653713" lon="109.241519">
<time>2016-10-06T15:42:46Z</time></trkpt>
<trkpt lat="24.653673" lon="109.24094">
<time>2016-10-06T15:42:47Z</time></trkpt>
<trkpt lat="24.653663" lon="109.24031">
<time>2016-10-06T15:42:48Z</time></trkpt>
<trkpt lat="24.653653" lon="109.24005">
<time>2016-10-06T15:42:49Z</time></trkpt>
<trkpt lat="24.653573" lon="109.2381">
<time>2016-10-06T15:42:50Z</time></trkpt>
<trkpt lat="24.653573" lon="109.23808">
<time>2016-10-06T15:42:51Z</time></trkpt>
<trkpt lat="24.653602" lon="109.2377">
<time>2016-10-06T15:42:52Z</time></trkpt>
<trkpt lat="24.653622" lon="109.237381">
<time>2016-10-06T15:42:53Z</time></trkpt>
<trkpt lat="24.653642" lon="109.237081">
<time>2016-10-06T15:42:54Z</time></trkpt>
<trkpt lat="24.653662" lon="109.236891">
<time>2016-10-06T15:42:55Z</time></trkpt>
<trkpt lat="24.653722" lon="109.236601">
<time>2016-10-06T15:42:56Z</time></trkpt>
<trkpt lat="24.653762" lon="109.236281">
<time>2016-10-06T15:42:57Z</time></trkpt>
<trkpt lat="24.653762" lon="109.236281">
<time>2016-10-06T15:42:58Z</time></trkpt>
<trkpt lat="24.653982" lon="109.236141">
<time>2016-10-06T15:42:59Z</time></trkpt>
<trkpt lat="24.654142" lon="109.236021">
<time>2016-10-06T15:43:00Z</time></trkpt>
<trkpt lat="24.654282" lon="109.235911">
<time>2016-10-06T15:43:01Z</time></trkpt>
<trkpt lat="24.654432" lon="109.235781">
<time>2016-10-06T15:43:02Z</time></trkpt>
<trkpt lat="24.654432" lon="109.235781">
<time>2016-10-06T15:43:03Z</time></trkpt>
<trkpt lat="24.654272" lon="109.235521">
<time>2016-10-06T15:43:04Z</time></trkpt>
<trkpt lat="24.654262" lon="109.235501">
<time>2016-10-06T15:43:05Z</time></trkpt>
<trkpt lat="24.654272" lon="109.235491">
<time>2016-10-06T15:43:06Z</time></trkpt>
<trkpt lat="24.655142" lon="109.234891">
<time>2016-10-06T15:43:07Z</time></trkpt>
<trkpt lat="24.655401" lon="109.234701">
<time>2016-10-06T15:43:08Z</time></trkpt>
<trkpt lat="24.655631" lon="109.234541">
<time>2016-10-06T15:43:09Z</time></trkpt>
<trkpt lat="24.655811" lon="109.234411">
<time>2016-10-06T15:43:10Z</time></trkpt>
<trkpt lat="24.655891" lon="109.234361">
<time>2016-10-06T15:43:11Z</time></trkpt>
<trkpt lat="24.655951" lon="109.234311">
<time>2016-10-06T15:43:12Z</time></trkpt>
<trkpt lat="24.656011" lon="109.234251">
<time>2016-10-06T15:43:13Z</time></trkpt>
<trkpt lat="24.656081" lon="109.234161">
<time>2016-10-06T15:43:14Z</time></trkpt>
<trkpt lat="24.656151" lon="109.234091">
<time>2016-10-06T15:43:15Z</time></trkpt>
<trkpt lat="24.656231" lon="109.233981">
<time>2016-10-06T15:43:16Z</time></trkpt>
<trkpt lat="24.656491" lon="109.233601">
<time>2016-10-06T15:43:17Z</time></trkpt>
<trkpt lat="24.656601" lon="109.233441">
<time>2016-10-06T15:43:18Z</time></trkpt>
<trkpt lat="24.656691" lon="109.233321">
<time>2016-10-06T15:43:19Z</time></trkpt>
<trkpt lat="24.656781" lon="109.233221">
<time>2016-10-06T15:43:20Z</time></trkpt>
<trkpt lat="24.656871" lon="109.233111">
<time>2016-10-06T15:43:21Z</time></trkpt>
<trkpt lat="24.657161" lon="109.232731">
<time>2016-10-06T15:43:22Z</time></trkpt>
<trkpt lat="24.65738" lon="109.232431">
<time>2016-10-06T15:43:23Z</time></trkpt>
<trkpt lat="24.65758" lon="109.232181">
<time>2016-10-06T15:43:24Z</time></trkpt>
<trkpt lat="24.65764" lon="109.232121">
<time>2016-10-06T15:43:25Z</time></trkpt>
<trkpt lat="24.65765" lon="109.232111">
<time>2016-10-06T15:43:26Z</time></trkpt>
<trkpt lat="24.6577" lon="109.232061">
<time>2016-10-06T15:43:27Z</time></trkpt>
<trkpt lat="24.65786" lon="109.231931">
<time>2016-10-06T15:43:28Z</time></trkpt>
<trkpt lat="24.65814" lon="109.231701">
<time>2016-10-06T15:43:29Z</time></trkpt>
<trkpt lat="24.65829" lon="109.231601">
<time>2016-10-06T15:43:30Z</time></trkpt>
<trkpt lat="24.65842" lon="109.231511">
<time>2016-10-06T15:43:31Z</time></trkpt>
<trkpt lat="24.65862" lon="109.231351">
<time>2016-10-06T15:43:32Z</time></trkpt>
<trkpt lat="24.65882" lon="109.231191">
<time>2016-10-06T15:43:33Z</time></trkpt>
<trkpt lat="24.65902" lon="109.231051">
<time>2016-10-06T15:43:34Z</time></trkpt>
<trkpt lat="24.65925" lon="109.230881">
<time>2016-10-06T15:43:35Z</time></trkpt>
<trkpt lat="24.65941" lon="109.230791">
<time>2016-10-06T15:43:36Z</time></trkpt>
<trkpt lat="24.65969" lon="109.230651">
<time>2016-10-06T15:43:37Z</time></trkpt>
<trkpt lat="24.65969" lon="109.230651">
<time>2016-10-06T15:43:38Z</time></trkpt>
<trkpt lat="24.659209" lon="109.22932">
<time>2016-10-06T15:43:39Z</time></trkpt>
<trkpt lat="24.659038" lon="109.22881">
<time>2016-10-06T15:43:40Z</time></trkpt>
<trkpt lat="24.658928" lon="109.22848">
<time>2016-10-06T15:43:41Z</time></trkpt>
<trkpt lat="24.658858" lon="109.22821">
<time>2016-10-06T15:43:42Z</time></trkpt>
<trkpt lat="24.658788" lon="109.22789">
<time>2016-10-06T15:43:43Z</time></trkpt>
<trkpt lat="24.658778" lon="109.22783">
<time>2016-10-06T15:43:44Z</time></trkpt>
<trkpt lat="24.658687" lon="109.22684">
<time>2016-10-06T15:43:45Z</time></trkpt>
<trkpt lat="24.658707" lon="109.22674">
<time>2016-10-06T15:43:46Z</time></trkpt>
<trkpt lat="24.658707" lon="109.22663">
<time>2016-10-06T15:43:47Z</time></trkpt>
<trkpt lat="24.658666" lon="109.22575">
<time>2016-10-06T15:43:48Z</time></trkpt>
<trkpt lat="24.658646" lon="109.22495">
<time>2016-10-06T15:43:49Z</time></trkpt>
<trkpt lat="24.658574" lon="109.223029">
<time>2016-10-06T15:43:50Z</time></trkpt>
<trkpt lat="24.658554" lon="109.222199">
<time>2016-10-06T15:43:51Z</time></trkpt>
<trkpt lat="24.658472" lon="109.220028">
<time>2016-10-06T15:43:52Z</time></trkpt>
<trkpt lat="24.658472" lon="109.219958">
<time>2016-10-06T15:43:53Z</time></trkpt>
<trkpt lat="24.658451" lon="109.219517">
<time>2016-10-06T15:43:54Z</time></trkpt>
<trkpt lat="24.65841" lon="109.217907">
<time>2016-10-06T15:43:55Z</time></trkpt>
<trkpt lat="24.658379" lon="109.217096">
<time>2016-10-06T15:43:56Z</time></trkpt>
<trkpt lat="24.658275" lon="109.213724">
<time>2016-10-06T15:43:57Z</time></trkpt>
<trkpt lat="24.658234" lon="109.212923">
<time>2016-10-06T15:43:58Z</time></trkpt>
<trkpt lat="24.658204" lon="109.212233">
<time>2016-10-06T15:43:59Z</time></trkpt>
<trkpt lat="24.658493" lon="109.211673">
<time>2016-10-06T15:44:00Z</time></trkpt>
<trkpt lat="24.658543" lon="109.211592">
<time>2016-10-06T15:44:01Z</time></trkpt>
<trkpt lat="24.658583" lon="109.211502">
<time>2016-10-06T15:44:02Z</time></trkpt>
<trkpt lat="24.658623" lon="109.211412">
<time>2016-10-06T15:44:03Z</time></trkpt>
<trkpt lat="24.658652" lon="109.211342">
<time>2016-10-06T15:44:04Z</time></trkpt>
<trkpt lat="24.658722" lon="109.211222">
<time>2016-10-06T15:44:05Z</time></trkpt>
<trkpt lat="24.659261" lon="109.210231">
<time>2016-10-06T15:44:06Z</time></trkpt>
<trkpt lat="24.659391" lon="109.209991">
<time>2016-10-06T15:44:07Z</time></trkpt>
<trkpt lat="24.65956" lon="109.209671">
<time>2016-10-06T15:44:08Z</time></trkpt>
<trkpt lat="24.65967" lon="109.209461">
<time>2016-10-06T15:44:09Z</time></trkpt>
<trkpt lat="24.65971" lon="109.209401">
<time>2016-10-06T15:44:10Z</time></trkpt>
<trkpt lat="24.65987" lon="109.20911">
<time>2016-10-06T15:44:11Z</time></trkpt>
<trkpt lat="24.659979" lon="109.20893">
<time>2016-10-06T15:44:12Z</time></trkpt>
<trkpt lat="24.660079" lon="109.20878">
<time>2016-10-06T15:44:13Z</time></trkpt>
<trkpt lat="24.660159" lon="109.20865">
<time>2016-10-06T15:44:14Z</time></trkpt>
<trkpt lat="24.660369" lon="109.20837">
<time>2016-10-06T15:44:15Z</time></trkpt>
<trkpt lat="24.660499" lon="109.20819">
<time>2016-10-06T15:44:16Z</time></trkpt>
<trkpt lat="24.660658" lon="109.207919">
<time>2016-10-06T15:44:17Z</time></trkpt>
<trkpt lat="24.660798" lon="109.207649">
<time>2016-10-06T15:44:18Z</time></trkpt>
<trkpt lat="24.660858" lon="109.207529">
<time>2016-10-06T15:44:19Z</time></trkpt>
<trkpt lat="24.660908" lon="109.207409">
<time>2016-10-06T15:44:20Z</time></trkpt>
<trkpt lat="24.660977" lon="109.207209">
<time>2016-10-06T15:44:21Z</time></trkpt>
<trkpt lat="24.661037" lon="109.207019">
<time>2016-10-06T15:44:22Z</time></trkpt>
<trkpt lat="24.661097" lon="109.206748">
<time>2016-10-06T15:44:23Z</time></trkpt>
<trkpt lat="24.661127" lon="109.206638">
<time>2016-10-06T15:44:24Z</time></trkpt>
<trkpt lat="24.661136" lon="109.206568">
<time>2016-10-06T15:44:25Z</time></trkpt>
<trkpt lat="24.661146" lon="109.206498">
<time>2016-10-06T15:44:26Z</time></trkpt>
<trkpt lat="24.661156" lon="109.206428">
<time>2016-10-06T15:44:27Z</time></trkpt>
<trkpt lat="24.661166" lon="109.206368">
<time>2016-10-06T15:44:28Z</time></trkpt>
<trkpt lat="24.661166" lon="109.206318">
<time>2016-10-06T15:44:29Z</time></trkpt>
<trkpt lat="24.661166" lon="109.206258">
<time>2016-10-06T15:44:30Z</time></trkpt>
<trkpt lat="24.661166" lon="109.206198">
<time>2016-10-06T15:44:31Z</time></trkpt>
<trkpt lat="24.661156" lon="109.206108">
<time>2016-10-06T15:44:32Z</time></trkpt>
<trkpt lat="24.661105" lon="109.205457">
<time>2016-10-06T15:44:33Z</time></trkpt>
<trkpt lat="24.660994" lon="109.204576">
<time>2016-10-06T15:44:34Z</time></trkpt>
<trkpt lat="24.660984" lon="109.204516">
<time>2016-10-06T15:44:35Z</time></trkpt>
<trkpt lat="24.660974" lon="109.204446">
<time>2016-10-06T15:44:36Z</time></trkpt>
<trkpt lat="24.660953" lon="109.204396">
<time>2016-10-06T15:44:37Z</time></trkpt>
<trkpt lat="24.660933" lon="109.204326">
<time>2016-10-06T15:44:38Z</time></trkpt>
<trkpt lat="24.660903" lon="109.204216">
<time>2016-10-06T15:44:39Z</time></trkpt>
<trkpt lat="24.660863" lon="109.204106">
<time>2016-10-06T15:44:40Z</time></trkpt>
<trkpt lat="24.660833" lon="109.204036">
<time>2016-10-06T15:44:41Z</time></trkpt>
<trkpt lat="24.660813" lon="109.203966">
<time>2016-10-06T15:44:42Z</time></trkpt>
<trkpt lat="24.660783" lon="109.203896">
<time>2016-10-06T15:44:43Z</time></trkpt>
<trkpt lat="24.660753" lon="109.203816">
<time>2016-10-06T15:44:44Z</time></trkpt>
<trkpt lat="24.660552" lon="109.203335">
<time>2016-10-06T15:44:45Z</time></trkpt>
<trkpt lat="24.660522" lon="109.203265">
<time>2016-10-06T15:44:46Z</time></trkpt>
<trkpt lat="24.660502" lon="109.203205">
<time>2016-10-06T15:44:47Z</time></trkpt>
<trkpt lat="24.660482" lon="109.203145">
<time>2016-10-06T15:44:48Z</time></trkpt>
<trkpt lat="24.660462" lon="109.203085">
<time>2016-10-06T15:44:49Z</time></trkpt>
<trkpt lat="24.660452" lon="109.203005">
<time>2016-10-06T15:44:50Z</time></trkpt>
<trkpt lat="24.660441" lon="109.202915">
<time>2016-10-06T15:44:51Z</time></trkpt>
<trkpt lat="24.660441" lon="109.202815">
<time>2016-10-06T15:44:52Z</time></trkpt>
<trkpt lat="24.660441" lon="109.202714">
<time>2016-10-06T15:44:53Z</time></trkpt>
<trkpt lat="24.660451" lon="109.202604">
<time>2016-10-06T15:44:54Z</time></trkpt>
<trkpt lat="24.660451" lon="109.202484">
<time>2016-10-06T15:44:55Z</time></trkpt>
<trkpt lat="24.660471" lon="109.202304">
<time>2016-10-06T15:44:56Z</time></trkpt>
<trkpt lat="24.66048" lon="109.202054">
<time>2016-10-06T15:44:57Z</time></trkpt>
<trkpt lat="24.6605" lon="109.201824">
<time>2016-10-06T15:44:58Z</time></trkpt>
<trkpt lat="24.660509" lon="109.201583">
<time>2016-10-06T15:44:59Z</time></trkpt>
<trkpt lat="24.660509" lon="109.201403">
<time>2016-10-06T15:45:00Z</time></trkpt>
<trkpt lat="24.660519" lon="109.201263">
<time>2016-10-06T15:45:01Z</time></trkpt>
<trkpt lat="24.660539" lon="109.201063">
<time>2016-10-06T15:45:02Z</time></trkpt>
<trkpt lat="24.660558" lon="109.200812">
<time>2016-10-06T15:45:03Z</time></trkpt>
<trkpt lat="24.660598" lon="109.200292">
<time>2016-10-06T15:45:04Z</time></trkpt>
<trkpt lat="24.660617" lon="109.200112">
<time>2016-10-06T15:45:05Z</time></trkpt>
<trkpt lat="24.660627" lon="109.200022">
<time>2016-10-06T15:45:06Z</time></trkpt>
<trkpt lat="24.660627" lon="109.199922">
<time>2016-10-06T15:45:07Z</time></trkpt>
<trkpt lat="24.660637" lon="109.199811">
<time>2016-10-06T15:45:08Z</time></trkpt>
<trkpt lat="24.660646" lon="109.199571">
<time>2016-10-06T15:45:09Z</time></trkpt>
<trkpt lat="24.660656" lon="109.199351">
<time>2016-10-06T15:45:10Z</time></trkpt>
<trkpt lat="24.660666" lon="109.199231">
<time>2016-10-06T15:45:11Z</time></trkpt>
<trkpt lat="24.660676" lon="109.199151">
<time>2016-10-06T15:45:12Z</time></trkpt>
<trkpt lat="24.660686" lon="109.199061">
<time>2016-10-06T15:45:13Z</time></trkpt>
<trkpt lat="24.660765" lon="109.19858">
<time>2016-10-06T15:45:14Z</time></trkpt>
<trkpt lat="24.660785" lon="109.19842">
<time>2016-10-06T15:45:15Z</time></trkpt>
<trkpt lat="24.660814" lon="109.19815">
<time>2016-10-06T15:45:16Z</time></trkpt>
<trkpt lat="24.660834" lon="109.197939">
<time>2016-10-06T15:45:17Z</time></trkpt>
<trkpt lat="24.660854" lon="109.197789">
<time>2016-10-06T15:45:18Z</time></trkpt>
<trkpt lat="24.660873" lon="109.197569">
<time>2016-10-06T15:45:19Z</time></trkpt>
<trkpt lat="24.660903" lon="109.197329">
<time>2016-10-06T15:45:20Z</time></trkpt>
<trkpt lat="24.660923" lon="109.197138">
<time>2016-10-06T15:45:21Z</time></trkpt>
<trkpt lat="24.660942" lon="109.196898">
<time>2016-10-06T15:45:22Z</time></trkpt>
<trkpt lat="24.660942" lon="109.196768">
<time>2016-10-06T15:45:23Z</time></trkpt>
<trkpt lat="24.660952" lon="109.196668">
<time>2016-10-06T15:45:24Z</time></trkpt>
<trkpt lat="24.660952" lon="109.196568">
<time>2016-10-06T15:45:25Z</time></trkpt>
<trkpt lat="24.660952" lon="109.196367">
<time>2016-10-06T15:45:26Z</time></trkpt>
<trkpt lat="24.660951" lon="109.196227">
<time>2016-10-06T15:45:27Z</time></trkpt>
<trkpt lat="24.660941" lon="109.196087">
<time>2016-10-06T15:45:28Z</time></trkpt>
<trkpt lat="24.660921" lon="109.195937">
<time>2016-10-06T15:45:29Z</time></trkpt>
<trkpt lat="24.660901" lon="109.195797">
<time>2016-10-06T15:45:30Z</time></trkpt>
<trkpt lat="24.66083" lon="109.195426">
<time>2016-10-06T15:45:31Z</time></trkpt>
<trkpt lat="24.66078" lon="109.195196">
<time>2016-10-06T15:45:32Z</time></trkpt>
<trkpt lat="24.660749" lon="109.195026">
<time>2016-10-06T15:45:33Z</time></trkpt>
<trkpt lat="24.660729" lon="109.194936">
<time>2016-10-06T15:45:34Z</time></trkpt>
<trkpt lat="24.660719" lon="109.194846">
<time>2016-10-06T15:45:35Z</time></trkpt>
<trkpt lat="24.660699" lon="109.194736">
<time>2016-10-06T15:45:36Z</time></trkpt>
<trkpt lat="24.660618" lon="109.194335">
<time>2016-10-06T15:45:37Z</time></trkpt>
<trkpt lat="24.660588" lon="109.194145">
<time>2016-10-06T15:45:38Z</time></trkpt>
<trkpt lat="24.660578" lon="109.194075">
<time>2016-10-06T15:45:39Z</time></trkpt>
<trkpt lat="24.660568" lon="109.193985">
<time>2016-10-06T15:45:40Z</time></trkpt>
<trkpt lat="24.660558" lon="109.193895">
<time>2016-10-06T15:45:41Z</time></trkpt>
<trkpt lat="24.660557" lon="109.193804">
<time>2016-10-06T15:45:42Z</time></trkpt>
<trkpt lat="24.660557" lon="109.193694">
<time>2016-10-06T15:45:43Z</time></trkpt>
<trkpt lat="24.660567" lon="109.193624">
<time>2016-10-06T15:45:44Z</time></trkpt>
<trkpt lat="24.660577" lon="109.193544">
<time>2016-10-06T15:45:45Z</time></trkpt>
<trkpt lat="24.660587" lon="109.193464">
<time>2016-10-06T15:45:46Z</time></trkpt>
<trkpt lat="24.660607" lon="109.193354">
<time>2016-10-06T15:45:47Z</time></trkpt>
<trkpt lat="24.660636" lon="109.193214">
<time>2016-10-06T15:45:48Z</time></trkpt>
<trkpt lat="24.660676" lon="109.192973">
<time>2016-10-06T15:45:49Z</time></trkpt>
<trkpt lat="24.660746" lon="109.192653">
<time>2016-10-06T15:45:50Z</time></trkpt>
<trkpt lat="24.660785" lon="109.192473">
<time>2016-10-06T15:45:51Z</time></trkpt>
<trkpt lat="24.660835" lon="109.192272">
<time>2016-10-06T15:45:52Z</time></trkpt>
<trkpt lat="24.660895" lon="109.192012">
<time>2016-10-06T15:45:53Z</time></trkpt>
<trkpt lat="24.660924" lon="109.191862">
<time>2016-10-06T15:45:54Z</time></trkpt>
<trkpt lat="24.660964" lon="109.191692">
<time>2016-10-06T15:45:55Z</time></trkpt>
<trkpt lat="24.661003" lon="109.191391">
<time>2016-10-06T15:45:56Z</time></trkpt>
<trkpt lat="24.661033" lon="109.191121">
<time>2016-10-06T15:45:57Z</time></trkpt>
<trkpt lat="24.661072" lon="109.190771">
<time>2016-10-06T15:45:58Z</time></trkpt>
<trkpt lat="24.661072" lon="109.19069">
<time>2016-10-06T15:45:59Z</time></trkpt>
<trkpt lat="24.661082" lon="109.19062">
<time>2016-10-06T15:46:00Z</time></trkpt>
<trkpt lat="24.661082" lon="109.19057">
<time>2016-10-06T15:46:01Z</time></trkpt>
<trkpt lat="24.661082" lon="109.19051">
<time>2016-10-06T15:46:02Z</time></trkpt>
<trkpt lat="24.661082" lon="109.19045">
<time>2016-10-06T15:46:03Z</time></trkpt>
<trkpt lat="24.661082" lon="109.1904">
<time>2016-10-06T15:46:04Z</time></trkpt>
<trkpt lat="24.661072" lon="109.19035">
<time>2016-10-06T15:46:05Z</time></trkpt>
<trkpt lat="24.661062" lon="109.1903">
<time>2016-10-06T15:46:06Z</time></trkpt>
<trkpt lat="24.661052" lon="109.19025">
<time>2016-10-06T15:46:07Z</time></trkpt>
<trkpt lat="24.661031" lon="109.19016">
<time>2016-10-06T15:46:08Z</time></trkpt>
<trkpt lat="24.660991" lon="109.18997">
<time>2016-10-06T15:46:09Z</time></trkpt>
<trkpt lat="24.660971" lon="109.189869">
<time>2016-10-06T15:46:10Z</time></trkpt>
<trkpt lat="24.660951" lon="109.189759">
<time>2016-10-06T15:46:11Z</time></trkpt>
<trkpt lat="24.660941" lon="109.189679">
<time>2016-10-06T15:46:12Z</time></trkpt>
<trkpt lat="24.66094" lon="109.189619">
<time>2016-10-06T15:46:13Z</time></trkpt>
<trkpt lat="24.66093" lon="109.189569">
<time>2016-10-06T15:46:14Z</time></trkpt>
<trkpt lat="24.66093" lon="109.189509">
<time>2016-10-06T15:46:15Z</time></trkpt>
<trkpt lat="24.66093" lon="109.189429">
<time>2016-10-06T15:46:16Z</time></trkpt>
<trkpt lat="24.66092" lon="109.189299">
<time>2016-10-06T15:46:17Z</time></trkpt>
<trkpt lat="24.66092" lon="109.189179">
<time>2016-10-06T15:46:18Z</time></trkpt>
<trkpt lat="24.660919" lon="109.188778">
<time>2016-10-06T15:46:19Z</time></trkpt>
<trkpt lat="24.660919" lon="109.188678">
<time>2016-10-06T15:46:20Z</time></trkpt>
<trkpt lat="24.660909" lon="109.188628">
<time>2016-10-06T15:46:21Z</time></trkpt>
<trkpt lat="24.660909" lon="109.188578">
<time>2016-10-06T15:46:22Z</time></trkpt>
<trkpt lat="24.660909" lon="109.188528">
<time>2016-10-06T15:46:23Z</time></trkpt>
<trkpt lat="24.660899" lon="109.188478">
<time>2016-10-06T15:46:24Z</time></trkpt>
<trkpt lat="24.660898" lon="109.188438">
<time>2016-10-06T15:46:25Z</time></trkpt>
<trkpt lat="24.660888" lon="109.188377">
<time>2016-10-06T15:46:26Z</time></trkpt>
<trkpt lat="24.660878" lon="109.188317">
<time>2016-10-06T15:46:27Z</time></trkpt>
<trkpt lat="24.660868" lon="109.188247">
<time>2016-10-06T15:46:28Z</time></trkpt>
<trkpt lat="24.660858" lon="109.188187">
<time>2016-10-06T15:46:29Z</time></trkpt>
<trkpt lat="24.660848" lon="109.188117">
<time>2016-10-06T15:46:30Z</time></trkpt>
<trkpt lat="24.660828" lon="109.188007">
<time>2016-10-06T15:46:31Z</time></trkpt>
<trkpt lat="24.660807" lon="109.187877">
<time>2016-10-06T15:46:32Z</time></trkpt>
<trkpt lat="24.660787" lon="109.187767">
<time>2016-10-06T15:46:33Z</time></trkpt>
<trkpt lat="24.660767" lon="109.187646">
<time>2016-10-06T15:46:34Z</time></trkpt>
<trkpt lat="24.660757" lon="109.187546">
<time>2016-10-06T15:46:35Z</time></trkpt>
<trkpt lat="24.660747" lon="109.187466">
<time>2016-10-06T15:46:36Z</time></trkpt>
<trkpt lat="24.660747" lon="109.187386">
<time>2016-10-06T15:46:37Z</time></trkpt>
<trkpt lat="24.660736" lon="109.187306">
<time>2016-10-06T15:46:38Z</time></trkpt>
<trkpt lat="24.660726" lon="109.187206">
<time>2016-10-06T15:46:39Z</time></trkpt>
<trkpt lat="24.660726" lon="109.187056">
<time>2016-10-06T15:46:40Z</time></trkpt>
<trkpt lat="24.660716" lon="109.186865">
<time>2016-10-06T15:46:41Z</time></trkpt>
<trkpt lat="24.660715" lon="109.186605">
<time>2016-10-06T15:46:42Z</time></trkpt>
<trkpt lat="24.660715" lon="109.186445">
<time>2016-10-06T15:46:43Z</time></trkpt>
<trkpt lat="24.660715" lon="109.186325">
<time>2016-10-06T15:46:44Z</time></trkpt>
<trkpt lat="24.660725" lon="109.186185">
<time>2016-10-06T15:46:45Z</time></trkpt>
<trkpt lat="24.660734" lon="109.186084">
<time>2016-10-06T15:46:46Z</time></trkpt>
<trkpt lat="24.660744" lon="109.186004">
<time>2016-10-06T15:46:47Z</time></trkpt>
<trkpt lat="24.660754" lon="109.185934">
<time>2016-10-06T15:46:48Z</time></trkpt>
<trkpt lat="24.660774" lon="109.185854">
<time>2016-10-06T15:46:49Z</time></trkpt>
<trkpt lat="24.660794" lon="109.185744">
<time>2016-10-06T15:46:50Z</time></trkpt>
<trkpt lat="24.660843" lon="109.185534">
<time>2016-10-06T15:46:51Z</time></trkpt>
<trkpt lat="24.660903" lon="109.185283">
<time>2016-10-06T15:46:52Z</time></trkpt>
<trkpt lat="24.660933" lon="109.185153">
<time>2016-10-06T15:46:53Z</time></trkpt>
<trkpt lat="24.661032" lon="109.184722">
<time>2016-10-06T15:46:54Z</time></trkpt>
<trkpt lat="24.661072" lon="109.184532">
<time>2016-10-06T15:46:55Z</time></trkpt>
<trkpt lat="24.661111" lon="109.184362">
<time>2016-10-06T15:46:56Z</time></trkpt>
<trkpt lat="24.661161" lon="109.184152">
<time>2016-10-06T15:46:57Z</time></trkpt>
<trkpt lat="24.661221" lon="109.183921">
<time>2016-10-06T15:46:58Z</time></trkpt>
<trkpt lat="24.66125" lon="109.183811">
<time>2016-10-06T15:46:59Z</time></trkpt>
<trkpt lat="24.66128" lon="109.183731">
<time>2016-10-06T15:47:00Z</time></trkpt>
<trkpt lat="24.66131" lon="109.183661">
<time>2016-10-06T15:47:01Z</time></trkpt>
<trkpt lat="24.66133" lon="109.183601">
<time>2016-10-06T15:47:02Z</time></trkpt>
<trkpt lat="24.66136" lon="109.183531">
<time>2016-10-06T15:47:03Z</time></trkpt>
<trkpt lat="24.66143" lon="109.183401">
<time>2016-10-06T15:47:04Z</time></trkpt>
<trkpt lat="24.661619" lon="109.18305">
<time>2016-10-06T15:47:05Z</time></trkpt>
<trkpt lat="24.661739" lon="109.18283">
<time>2016-10-06T15:47:06Z</time></trkpt>
<trkpt lat="24.662107" lon="109.182149">
<time>2016-10-06T15:47:07Z</time></trkpt>
<trkpt lat="24.662197" lon="109.181969">
<time>2016-10-06T15:47:08Z</time></trkpt>
<trkpt lat="24.662217" lon="109.181928">
<time>2016-10-06T15:47:09Z</time></trkpt>
<trkpt lat="24.662237" lon="109.181888">
<time>2016-10-06T15:47:10Z</time></trkpt>
<trkpt lat="24.662247" lon="109.181848">
<time>2016-10-06T15:47:11Z</time></trkpt>
<trkpt lat="24.662267" lon="109.181798">
<time>2016-10-06T15:47:12Z</time></trkpt>
<trkpt lat="24.662287" lon="109.181758">
<time>2016-10-06T15:47:13Z</time></trkpt>
<trkpt lat="24.662307" lon="109.181698">
<time>2016-10-06T15:47:14Z</time></trkpt>
<trkpt lat="24.662316" lon="109.181638">
<time>2016-10-06T15:47:15Z</time></trkpt>
<trkpt lat="24.662336" lon="109.181578">
<time>2016-10-06T15:47:16Z</time></trkpt>
<trkpt lat="24.662356" lon="109.181518">
<time>2016-10-06T15:47:17Z</time></trkpt>
<trkpt lat="24.662366" lon="109.181468">
<time>2016-10-06T15:47:18Z</time></trkpt>
<trkpt lat="24.662455" lon="109.181107">
<time>2016-10-06T15:47:19Z</time></trkpt>
<trkpt lat="24.662505" lon="109.180887">
<time>2016-10-06T15:47:20Z</time></trkpt>
<trkpt lat="24.662535" lon="109.180787">
<time>2016-10-06T15:47:21Z</time></trkpt>
<trkpt lat="24.662565" lon="109.180707">
<time>2016-10-06T15:47:22Z</time></trkpt>
<trkpt lat="24.662585" lon="109.180647">
<time>2016-10-06T15:47:23Z</time></trkpt>
<trkpt lat="24.662614" lon="109.180557">
<time>2016-10-06T15:47:24Z</time></trkpt>
<trkpt lat="24.662644" lon="109.180476">
<time>2016-10-06T15:47:25Z</time></trkpt>
<trkpt lat="24.662674" lon="109.180406">
<time>2016-10-06T15:47:26Z</time></trkpt>
<trkpt lat="24.662704" lon="109.180336">
<time>2016-10-06T15:47:27Z</time></trkpt>
<trkpt lat="24.662754" lon="109.180256">
<time>2016-10-06T15:47:28Z</time></trkpt>
<trkpt lat="24.662834" lon="109.180096">
<time>2016-10-06T15:47:29Z</time></trkpt>
<trkpt lat="24.662903" lon="109.179986">
<time>2016-10-06T15:47:30Z</time></trkpt>
<trkpt lat="24.662983" lon="109.179855">
<time>2016-10-06T15:47:31Z</time></trkpt>
<trkpt lat="24.663212" lon="109.179475">
<time>2016-10-06T15:47:32Z</time></trkpt>
<trkpt lat="24.663302" lon="109.179345">
<time>2016-10-06T15:47:33Z</time></trkpt>
<trkpt lat="24.663362" lon="109.179245">
<time>2016-10-06T15:47:34Z</time></trkpt>
<trkpt lat="24.663442" lon="109.179134">
<time>2016-10-06T15:47:35Z</time></trkpt>
<trkpt lat="24.663492" lon="109.179064">
<time>2016-10-06T15:47:36Z</time></trkpt>
<trkpt lat="24.663562" lon="109.178994">
<time>2016-10-06T15:47:37Z</time></trkpt>
<trkpt lat="24.663621" lon="109.178924">
<time>2016-10-06T15:47:38Z</time></trkpt>
<trkpt lat="24.663681" lon="109.178864">
<time>2016-10-06T15:47:39Z</time></trkpt>
<trkpt lat="24.663731" lon="109.178804">
<time>2016-10-06T15:47:40Z</time></trkpt>
<trkpt lat="24.663811" lon="109.178744">
<time>2016-10-06T15:47:41Z</time></trkpt>
<trkpt lat="24.6646" lon="109.178053">
<time>2016-10-06T15:47:42Z</time></trkpt>
<trkpt lat="24.66472" lon="109.177943">
<time>2016-10-06T15:47:43Z</time></trkpt>
<trkpt lat="24.66477" lon="109.177893">
<time>2016-10-06T15:47:44Z</time></trkpt>
<trkpt lat="24.664819" lon="109.177832">
<time>2016-10-06T15:47:45Z</time></trkpt>
<trkpt lat="24.664869" lon="109.177762">
<time>2016-10-06T15:47:46Z</time></trkpt>
<trkpt lat="24.664949" lon="109.177632">
<time>2016-10-06T15:47:47Z</time></trkpt>
<trkpt lat="24.665029" lon="109.177482">
<time>2016-10-06T15:47:48Z</time></trkpt>
<trkpt lat="24.665089" lon="109.177382">
<time>2016-10-06T15:47:49Z</time></trkpt>
<trkpt lat="24.665258" lon="109.177161">
<time>2016-10-06T15:47:50Z</time></trkpt>
<trkpt lat="24.665328" lon="109.177061">
<time>2016-10-06T15:47:51Z</time></trkpt>
<trkpt lat="24.665368" lon="109.176971">
<time>2016-10-06T15:47:52Z</time></trkpt>
<trkpt lat="24.665408" lon="109.176891">
<time>2016-10-06T15:47:53Z</time></trkpt>
<trkpt lat="24.665477" lon="109.176721">
<time>2016-10-06T15:47:54Z</time></trkpt>
<trkpt lat="24.665547" lon="109.1765">
<time>2016-10-06T15:47:55Z</time></trkpt>
<trkpt lat="24.665577" lon="109.17641">
<time>2016-10-06T15:47:56Z</time></trkpt>
<trkpt lat="24.665637" lon="109.17625">
<time>2016-10-06T15:47:57Z</time></trkpt>
<trkpt lat="24.665666" lon="109.17619">
<time>2016-10-06T15:47:58Z</time></trkpt>
<trkpt lat="24.665706" lon="109.17611">
<time>2016-10-06T15:47:59Z</time></trkpt>
<trkpt lat="24.665955" lon="109.175649">
<time>2016-10-06T15:48:00Z</time></trkpt>
<trkpt lat="24.665995" lon="109.175569">
<time>2016-10-06T15:48:01Z</time></trkpt>
<trkpt lat="24.666045" lon="109.175459">
<time>2016-10-06T15:48:02Z</time></trkpt>
<trkpt lat="24.666085" lon="109.175369">
<time>2016-10-06T15:48:03Z</time></trkpt>
<trkpt lat="24.666115" lon="109.175279">
<time>2016-10-06T15:48:04Z</time></trkpt>
<trkpt lat="24.666135" lon="109.175208">
<time>2016-10-06T15:48:05Z</time></trkpt>
<trkpt lat="24.666164" lon="109.175108">
<time>2016-10-06T15:48:06Z</time></trkpt>
<trkpt lat="24.666184" lon="109.175018">
<time>2016-10-06T15:48:07Z</time></trkpt>
<trkpt lat="24.666194" lon="109.174938">
<time>2016-10-06T15:48:08Z</time></trkpt>
<trkpt lat="24.666204" lon="109.174838">
<time>2016-10-06T15:48:09Z</time></trkpt>
<trkpt lat="24.666214" lon="109.174708">
<time>2016-10-06T15:48:10Z</time></trkpt>
<trkpt lat="24.666233" lon="109.174377">
<time>2016-10-06T15:48:11Z</time></trkpt>
<trkpt lat="24.666242" lon="109.174077">
<time>2016-10-06T15:48:12Z</time></trkpt>
<trkpt lat="24.666281" lon="109.173296">
<time>2016-10-06T15:48:13Z</time></trkpt>
<trkpt lat="24.66629" lon="109.173005">
<time>2016-10-06T15:48:14Z</time></trkpt>
<trkpt lat="24.6663" lon="109.172905">
<time>2016-10-06T15:48:15Z</time></trkpt>
<trkpt lat="24.6663" lon="109.172775">
<time>2016-10-06T15:48:16Z</time></trkpt>
<trkpt lat="24.6663" lon="109.172595">
<time>2016-10-06T15:48:17Z</time></trkpt>
<trkpt lat="24.666289" lon="109.172424">
<time>2016-10-06T15:48:18Z</time></trkpt>
<trkpt lat="24.666289" lon="109.172314">
<time>2016-10-06T15:48:19Z</time></trkpt>
<trkpt lat="24.666279" lon="109.172214">
<time>2016-10-06T15:48:20Z</time></trkpt>
<trkpt lat="24.666269" lon="109.172154">
<time>2016-10-06T15:48:21Z</time></trkpt>
<trkpt lat="24.666259" lon="109.172084">
<time>2016-10-06T15:48:22Z</time></trkpt>
<trkpt lat="24.666249" lon="109.172014">
<time>2016-10-06T15:48:23Z</time></trkpt>
<trkpt lat="24.666228" lon="109.171954">
<time>2016-10-06T15:48:24Z</time></trkpt>
<trkpt lat="24.666218" lon="109.171904">
<time>2016-10-06T15:48:25Z</time></trkpt>
<trkpt lat="24.666158" lon="109.171673">
<time>2016-10-06T15:48:26Z</time></trkpt>
<trkpt lat="24.666118" lon="109.171543">
<time>2016-10-06T15:48:27Z</time></trkpt>
<trkpt lat="24.666088" lon="109.171433">
<time>2016-10-06T15:48:28Z</time></trkpt>
<trkpt lat="24.666047" lon="109.171263">
<time>2016-10-06T15:48:29Z</time></trkpt>
<trkpt lat="24.665957" lon="109.170912">
<time>2016-10-06T15:48:30Z</time></trkpt>
<trkpt lat="24.665956" lon="109.170892">
<time>2016-10-06T15:48:31Z</time></trkpt>
<trkpt lat="24.665916" lon="109.170742">
<time>2016-10-06T15:48:32Z</time></trkpt>
<trkpt lat="24.665886" lon="109.170602">
<time>2016-10-06T15:48:33Z</time></trkpt>
<trkpt lat="24.665846" lon="109.170431">
<time>2016-10-06T15:48:34Z</time></trkpt>
<trkpt lat="24.665815" lon="109.170241">
<time>2016-10-06T15:48:35Z</time></trkpt>
<trkpt lat="24.665785" lon="109.170041">
<time>2016-10-06T15:48:36Z</time></trkpt>
<trkpt lat="24.665714" lon="109.1696">
<time>2016-10-06T15:48:37Z</time></trkpt>
<trkpt lat="24.665684" lon="109.16948">
<time>2016-10-06T15:48:38Z</time></trkpt>
<trkpt lat="24.665674" lon="109.16943">
<time>2016-10-06T15:48:39Z</time></trkpt>
<trkpt lat="24.665664" lon="109.16939">
<time>2016-10-06T15:48:40Z</time></trkpt>
<trkpt lat="24.665654" lon="109.16936">
<time>2016-10-06T15:48:41Z</time></trkpt>
<trkpt lat="24.665623" lon="109.1693">
<time>2016-10-06T15:48:42Z</time></trkpt>
<trkpt lat="24.665613" lon="109.16927">
<time>2016-10-06T15:48:43Z</time></trkpt>
<trkpt lat="24.665603" lon="109.16924">
<time>2016-10-06T15:48:44Z</time></trkpt>
<trkpt lat="24.665593" lon="109.16922">
<time>2016-10-06T15:48:45Z</time></trkpt>
<trkpt lat="24.665573" lon="109.16919">
<time>2016-10-06T15:48:46Z</time></trkpt>
<trkpt lat="24.665553" lon="109.169149">
<time>2016-10-06T15:48:47Z</time></trkpt>
<trkpt lat="24.665503" lon="109.169049">
<time>2016-10-06T15:48:48Z</time></trkpt>
<trkpt lat="24.665473" lon="109.168989">
<time>2016-10-06T15:48:49Z</time></trkpt>
<trkpt lat="24.665453" lon="109.168919">
<time>2016-10-06T15:48:50Z</time></trkpt>
<trkpt lat="24.665433" lon="109.168889">
<time>2016-10-06T15:48:51Z</time></trkpt>
<trkpt lat="24.665423" lon="109.168849">
<time>2016-10-06T15:48:52Z</time></trkpt>
<trkpt lat="24.665413" lon="109.168809">
<time>2016-10-06T15:48:53Z</time></trkpt>
<trkpt lat="24.665402" lon="109.168779">
<time>2016-10-06T15:48:54Z</time></trkpt>
<trkpt lat="24.665402" lon="109.168739">
<time>2016-10-06T15:48:55Z</time></trkpt>
<trkpt lat="24.665392" lon="109.168669">
<time>2016-10-06T15:48:56Z</time></trkpt>
<trkpt lat="24.665352" lon="109.168458">
<time>2016-10-06T15:48:57Z</time></trkpt>
<trkpt lat="24.665332" lon="109.168328">
<time>2016-10-06T15:48:58Z</time></trkpt>
<trkpt lat="24.665301" lon="109.168228">
<time>2016-10-06T15:48:59Z</time></trkpt>
<trkpt lat="24.665271" lon="109.168108">
<time>2016-10-06T15:49:00Z</time></trkpt>
<trkpt lat="24.665241" lon="109.167988">
<time>2016-10-06T15:49:01Z</time></trkpt>
<trkpt lat="24.665201" lon="109.167878">
<time>2016-10-06T15:49:02Z</time></trkpt>
<trkpt lat="24.665151" lon="109.167737">
<time>2016-10-06T15:49:03Z</time></trkpt>
<trkpt lat="24.66512" lon="109.167657">
<time>2016-10-06T15:49:04Z</time></trkpt>
<trkpt lat="24.66509" lon="109.167587">
<time>2016-10-06T15:49:05Z</time></trkpt>
<trkpt lat="24.66502" lon="109.167427">
<time>2016-10-06T15:49:06Z</time></trkpt>
<trkpt lat="24.66494" lon="109.167237">
<time>2016-10-06T15:49:07Z</time></trkpt>
<trkpt lat="24.664859" lon="109.167016">
<time>2016-10-06T15:49:08Z</time></trkpt>
<trkpt lat="24.664799" lon="109.166836">
<time>2016-10-06T15:49:09Z</time></trkpt>
<trkpt lat="24.664628" lon="109.166245">
<time>2016-10-06T15:49:10Z</time></trkpt>
<trkpt lat="24.664587" lon="109.166105">
<time>2016-10-06T15:49:11Z</time></trkpt>
<trkpt lat="24.664537" lon="109.165985">
<time>2016-10-06T15:49:12Z</time></trkpt>
<trkpt lat="24.664477" lon="109.165835">
<time>2016-10-06T15:49:13Z</time></trkpt>
<trkpt lat="24.664397" lon="109.165684">
<time>2016-10-06T15:49:14Z</time></trkpt>
<trkpt lat="24.664316" lon="109.165544">
<time>2016-10-06T15:49:15Z</time></trkpt>
<trkpt lat="24.664276" lon="109.165474">
<time>2016-10-06T15:49:16Z</time></trkpt>
<trkpt lat="24.664236" lon="109.165414">
<time>2016-10-06T15:49:17Z</time></trkpt>
<trkpt lat="24.664206" lon="109.165374">
<time>2016-10-06T15:49:18Z</time></trkpt>
<trkpt lat="24.664186" lon="109.165344">
<time>2016-10-06T15:49:19Z</time></trkpt>
<trkpt lat="24.664156" lon="109.165304">
<time>2016-10-06T15:49:20Z</time></trkpt>
<trkpt lat="24.664136" lon="109.165264">
<time>2016-10-06T15:49:21Z</time></trkpt>
<trkpt lat="24.663935" lon="109.165003">
<time>2016-10-06T15:49:22Z</time></trkpt>
<trkpt lat="24.663885" lon="109.164923">
<time>2016-10-06T15:49:23Z</time></trkpt>
<trkpt lat="24.663855" lon="109.164883">
<time>2016-10-06T15:49:24Z</time></trkpt>
<trkpt lat="24.663825" lon="109.164833">
<time>2016-10-06T15:49:25Z</time></trkpt>
<trkpt lat="24.663815" lon="109.164803">
<time>2016-10-06T15:49:26Z</time></trkpt>
<trkpt lat="24.663795" lon="109.164773">
<time>2016-10-06T15:49:27Z</time></trkpt>
<trkpt lat="24.663775" lon="109.164723">
<time>2016-10-06T15:49:28Z</time></trkpt>
<trkpt lat="24.663745" lon="109.164663">
<time>2016-10-06T15:49:29Z</time></trkpt>
<trkpt lat="24.663715" lon="109.164583">
<time>2016-10-06T15:49:30Z</time></trkpt>
<trkpt lat="24.663644" lon="109.164392">
<time>2016-10-06T15:49:31Z</time></trkpt>
<trkpt lat="24.663594" lon="109.164232">
<time>2016-10-06T15:49:32Z</time></trkpt>
<trkpt lat="24.663524" lon="109.164022">
<time>2016-10-06T15:49:33Z</time></trkpt>
<trkpt lat="24.663453" lon="109.163842">
<time>2016-10-06T15:49:34Z</time></trkpt>
<trkpt lat="24.663312" lon="109.163451">
<time>2016-10-06T15:49:35Z</time></trkpt>
<trkpt lat="24.663222" lon="109.163201">
<time>2016-10-06T15:49:36Z</time></trkpt>
<trkpt lat="24.663212" lon="109.163161">
<time>2016-10-06T15:49:37Z</time></trkpt>
<trkpt lat="24.663192" lon="109.163131">
<time>2016-10-06T15:49:38Z</time></trkpt>
<trkpt lat="24.663172" lon="109.163071">
<time>2016-10-06T15:49:39Z</time></trkpt>
<trkpt lat="24.663041" lon="109.16277">
<time>2016-10-06T15:49:40Z</time></trkpt>
<trkpt lat="24.662951" lon="109.16256">
<time>2016-10-06T15:49:41Z</time></trkpt>
<trkpt lat="24.66287" lon="109.162369">
<time>2016-10-06T15:49:42Z</time></trkpt>
<trkpt lat="24.66284" lon="109.162309">
<time>2016-10-06T15:49:43Z</time></trkpt>
<trkpt lat="24.66281" lon="109.162249">
<time>2016-10-06T15:49:44Z</time></trkpt>
<trkpt lat="24.66278" lon="109.162179">
<time>2016-10-06T15:49:45Z</time></trkpt>
<trkpt lat="24.66271" lon="109.162039">
<time>2016-10-06T15:49:46Z</time></trkpt>
<trkpt lat="24.66267" lon="109.161959">
<time>2016-10-06T15:49:47Z</time></trkpt>
<trkpt lat="24.662629" lon="109.161879">
<time>2016-10-06T15:49:48Z</time></trkpt>
<trkpt lat="24.662579" lon="109.161789">
<time>2016-10-06T15:49:49Z</time></trkpt>
<trkpt lat="24.662429" lon="109.161538">
<time>2016-10-06T15:49:50Z</time></trkpt>
<trkpt lat="24.662349" lon="109.161418">
<time>2016-10-06T15:49:51Z</time></trkpt>
<trkpt lat="24.662278" lon="109.161308">
<time>2016-10-06T15:49:52Z</time></trkpt>
<trkpt lat="24.662128" lon="109.161098">
<time>2016-10-06T15:49:53Z</time></trkpt>
<trkpt lat="24.661948" lon="109.160857">
<time>2016-10-06T15:49:54Z</time></trkpt>
<trkpt lat="24.661917" lon="109.160807">
<time>2016-10-06T15:49:55Z</time></trkpt>
<trkpt lat="24.661887" lon="109.160757">
<time>2016-10-06T15:49:56Z</time></trkpt>
<trkpt lat="24.661797" lon="109.160627">
<time>2016-10-06T15:49:57Z</time></trkpt>
<trkpt lat="24.661697" lon="109.160467">
<time>2016-10-06T15:49:58Z</time></trkpt>
<trkpt lat="24.661586" lon="109.160286">
<time>2016-10-06T15:49:59Z</time></trkpt>
<trkpt lat="24.661456" lon="109.160056">
<time>2016-10-06T15:50:00Z</time></trkpt>
<trkpt lat="24.661346" lon="109.159866">
<time>2016-10-06T15:50:01Z</time></trkpt>
<trkpt lat="24.661265" lon="109.159716">
<time>2016-10-06T15:50:02Z</time></trkpt>
<trkpt lat="24.661155" lon="109.159505">
<time>2016-10-06T15:50:03Z</time></trkpt>
<trkpt lat="24.661025" lon="109.159275">
<time>2016-10-06T15:50:04Z</time></trkpt>
<trkpt lat="24.660944" lon="109.159135">
<time>2016-10-06T15:50:05Z</time></trkpt>
<trkpt lat="24.660864" lon="109.158985">
<time>2016-10-06T15:50:06Z</time></trkpt>
<trkpt lat="24.660814" lon="109.158894">
<time>2016-10-06T15:50:07Z</time></trkpt>
<trkpt lat="24.660754" lon="109.158814">
<time>2016-10-06T15:50:08Z</time></trkpt>
<trkpt lat="24.660684" lon="109.158714">
<time>2016-10-06T15:50:09Z</time></trkpt>
<trkpt lat="24.660603" lon="109.158614">
<time>2016-10-06T15:50:10Z</time></trkpt>
<trkpt lat="24.660483" lon="109.158484">
<time>2016-10-06T15:50:11Z</time></trkpt>
<trkpt lat="24.660393" lon="109.158394">
<time>2016-10-06T15:50:12Z</time></trkpt>
<trkpt lat="24.660363" lon="109.158354">
<time>2016-10-06T15:50:13Z</time></trkpt>
<trkpt lat="24.660313" lon="109.158304">
<time>2016-10-06T15:50:14Z</time></trkpt>
<trkpt lat="24.660253" lon="109.158244">
<time>2016-10-06T15:50:15Z</time></trkpt>
<trkpt lat="24.660142" lon="109.158133">
<time>2016-10-06T15:50:16Z</time></trkpt>
<trkpt lat="24.659852" lon="109.157863">
<time>2016-10-06T15:50:17Z</time></trkpt>
<trkpt lat="24.659762" lon="109.157763">
<time>2016-10-06T15:50:18Z</time></trkpt>
<trkpt lat="24.659702" lon="109.157693">
<time>2016-10-06T15:50:19Z</time></trkpt>
<trkpt lat="24.659652" lon="109.157633">
<time>2016-10-06T15:50:20Z</time></trkpt>
<trkpt lat="24.659601" lon="109.157583">
<time>2016-10-06T15:50:21Z</time></trkpt>
<trkpt lat="24.659581" lon="109.157543">
<time>2016-10-06T15:50:22Z</time></trkpt>
<trkpt lat="24.659551" lon="109.157513">
<time>2016-10-06T15:50:23Z</time></trkpt>
<trkpt lat="24.659531" lon="109.157472">
<time>2016-10-06T15:50:24Z</time></trkpt>
<trkpt lat="24.659511" lon="109.157442">
<time>2016-10-06T15:50:25Z</time></trkpt>
<trkpt lat="24.659481" lon="109.157392">
<time>2016-10-06T15:50:26Z</time></trkpt>
<trkpt lat="24.659441" lon="109.157322">
<time>2016-10-06T15:50:27Z</time></trkpt>
<trkpt lat="24.659401" lon="109.157222">
<time>2016-10-06T15:50:28Z</time></trkpt>
<trkpt lat="24.659361" lon="109.157112">
<time>2016-10-06T15:50:29Z</time></trkpt>
<trkpt lat="24.65928" lon="109.156912">
<time>2016-10-06T15:50:30Z</time></trkpt>
<trkpt lat="24.6592" lon="109.156711">
<time>2016-10-06T15:50:31Z</time></trkpt>
<trkpt lat="24.659099" lon="109.156431">
<time>2016-10-06T15:50:32Z</time></trkpt>
<trkpt lat="24.659029" lon="109.156231">
<time>2016-10-06T15:50:33Z</time></trkpt>
<trkpt lat="24.658989" lon="109.156101">
<time>2016-10-06T15:50:34Z</time></trkpt>
<trkpt lat="24.658949" lon="109.15598">
<time>2016-10-06T15:50:35Z</time></trkpt>
<trkpt lat="24.658858" lon="109.15563">
<time>2016-10-06T15:50:36Z</time></trkpt>
<trkpt lat="24.658838" lon="109.15557">
<time>2016-10-06T15:50:37Z</time></trkpt>
<trkpt lat="24.658818" lon="109.15551">
<time>2016-10-06T15:50:38Z</time></trkpt>
<trkpt lat="24.658798" lon="109.15544">
<time>2016-10-06T15:50:39Z</time></trkpt>
<trkpt lat="24.658757" lon="109.155339">
<time>2016-10-06T15:50:40Z</time></trkpt>
<trkpt lat="24.658707" lon="109.155219">
<time>2016-10-06T15:50:41Z</time></trkpt>
<trkpt lat="24.658607" lon="109.155029">
<time>2016-10-06T15:50:42Z</time></trkpt>
<trkpt lat="24.658537" lon="109.154889">
<time>2016-10-06T15:50:43Z</time></trkpt>
<trkpt lat="24.658396" lon="109.154618">
<time>2016-10-06T15:50:44Z</time></trkpt>
<trkpt lat="24.658276" lon="109.154408">
<time>2016-10-06T15:50:45Z</time></trkpt>
<trkpt lat="24.658185" lon="109.154238">
<time>2016-10-06T15:50:46Z</time></trkpt>
<trkpt lat="24.658015" lon="109.153907">
<time>2016-10-06T15:50:47Z</time></trkpt>
<trkpt lat="24.657914" lon="109.153717">
<time>2016-10-06T15:50:48Z</time></trkpt>
<trkpt lat="24.657874" lon="109.153637">
<time>2016-10-06T15:50:49Z</time></trkpt>
<trkpt lat="24.657834" lon="109.153527">
<time>2016-10-06T15:50:50Z</time></trkpt>
<trkpt lat="24.657814" lon="109.153477">
<time>2016-10-06T15:50:51Z</time></trkpt>
<trkpt lat="24.657804" lon="109.153427">
<time>2016-10-06T15:50:52Z</time></trkpt>
<trkpt lat="24.657794" lon="109.153387">
<time>2016-10-06T15:50:53Z</time></trkpt>
<trkpt lat="24.657784" lon="109.153337">
<time>2016-10-06T15:50:54Z</time></trkpt>
<trkpt lat="24.657774" lon="109.153277">
<time>2016-10-06T15:50:55Z</time></trkpt>
<trkpt lat="24.657773" lon="109.153196">
<time>2016-10-06T15:50:56Z</time></trkpt>
<trkpt lat="24.657773" lon="109.153106">
<time>2016-10-06T15:50:57Z</time></trkpt>
<trkpt lat="24.657773" lon="109.152926">
<time>2016-10-06T15:50:58Z</time></trkpt>
<trkpt lat="24.657773" lon="109.152846">
<time>2016-10-06T15:50:59Z</time></trkpt>
<trkpt lat="24.657773" lon="109.152786">
<time>2016-10-06T15:51:00Z</time></trkpt>
<trkpt lat="24.657763" lon="109.152736">
<time>2016-10-06T15:51:01Z</time></trkpt>
<trkpt lat="24.657763" lon="109.152686">
<time>2016-10-06T15:51:02Z</time></trkpt>
<trkpt lat="24.657752" lon="109.152636">
<time>2016-10-06T15:51:03Z</time></trkpt>
<trkpt lat="24.657732" lon="109.152586">
<time>2016-10-06T15:51:04Z</time></trkpt>
<trkpt lat="24.657722" lon="109.152546">
<time>2016-10-06T15:51:05Z</time></trkpt>
<trkpt lat="24.657702" lon="109.152505">
<time>2016-10-06T15:51:06Z</time></trkpt>
<trkpt lat="24.657692" lon="109.152475">
<time>2016-10-06T15:51:07Z</time></trkpt>
<trkpt lat="24.657672" lon="109.152435">
<time>2016-10-06T15:51:08Z</time></trkpt>
<trkpt lat="24.657652" lon="109.152395">
<time>2016-10-06T15:51:09Z</time></trkpt>
<trkpt lat="24.657622" lon="109.152365">
<time>2016-10-06T15:51:10Z</time></trkpt>
<trkpt lat="24.657582" lon="109.152305">
<time>2016-10-06T15:51:11Z</time></trkpt>
<trkpt lat="24.657532" lon="109.152245">
<time>2016-10-06T15:51:12Z</time></trkpt>
<trkpt lat="24.657482" lon="109.152185">
<time>2016-10-06T15:51:13Z</time></trkpt>
<trkpt lat="24.657452" lon="109.152155">
<time>2016-10-06T15:51:14Z</time></trkpt>
<trkpt lat="24.657401" lon="109.152095">
<time>2016-10-06T15:51:15Z</time></trkpt>
<trkpt lat="24.657331" lon="109.152025">
<time>2016-10-06T15:51:16Z</time></trkpt>
<trkpt lat="24.657251" lon="109.151955">
<time>2016-10-06T15:51:17Z</time></trkpt>
<trkpt lat="24.657131" lon="109.151855">
<time>2016-10-06T15:51:18Z</time></trkpt>
<trkpt lat="24.657021" lon="109.151744">
<time>2016-10-06T15:51:19Z</time></trkpt>
<trkpt lat="24.656931" lon="109.151644">
<time>2016-10-06T15:51:20Z</time></trkpt>
<trkpt lat="24.65683" lon="109.151524">
<time>2016-10-06T15:51:21Z</time></trkpt>
<trkpt lat="24.65662" lon="109.151264">
<time>2016-10-06T15:51:22Z</time></trkpt>
<trkpt lat="24.65649" lon="109.151094">
<time>2016-10-06T15:51:23Z</time></trkpt>
<trkpt lat="24.65643" lon="109.151033">
<time>2016-10-06T15:51:24Z</time></trkpt>
<trkpt lat="24.656399" lon="109.150993">
<time>2016-10-06T15:51:25Z</time></trkpt>
<trkpt lat="24.656349" lon="109.150933">
<time>2016-10-06T15:51:26Z</time></trkpt>
<trkpt lat="24.656329" lon="109.150893">
<time>2016-10-06T15:51:27Z</time></trkpt>
<trkpt lat="24.656299" lon="109.150853">
<time>2016-10-06T15:51:28Z</time></trkpt>
<trkpt lat="24.656269" lon="109.150793">
<time>2016-10-06T15:51:29Z</time></trkpt>
<trkpt lat="24.656239" lon="109.150743">
<time>2016-10-06T15:51:30Z</time></trkpt>
<trkpt lat="24.656209" lon="109.150673">
<time>2016-10-06T15:51:31Z</time></trkpt>
<trkpt lat="24.656179" lon="109.150613">
<time>2016-10-06T15:51:32Z</time></trkpt>
<trkpt lat="24.656159" lon="109.150553">
<time>2016-10-06T15:51:33Z</time></trkpt>
<trkpt lat="24.656129" lon="109.150483">
<time>2016-10-06T15:51:34Z</time></trkpt>
<trkpt lat="24.656108" lon="109.150423">
<time>2016-10-06T15:51:35Z</time></trkpt>
<trkpt lat="24.656098" lon="109.150373">
<time>2016-10-06T15:51:36Z</time></trkpt>
<trkpt lat="24.656048" lon="109.150212">
<time>2016-10-06T15:51:37Z</time></trkpt>
<trkpt lat="24.655998" lon="109.150012">
<time>2016-10-06T15:51:38Z</time></trkpt>
<trkpt lat="24.655967" lon="109.149882">
<time>2016-10-06T15:51:39Z</time></trkpt>
<trkpt lat="24.655907" lon="109.149692">
<time>2016-10-06T15:51:40Z</time></trkpt>
<trkpt lat="24.655847" lon="109.149501">
<time>2016-10-06T15:51:41Z</time></trkpt>
<trkpt lat="24.655776" lon="109.149281">
<time>2016-10-06T15:51:42Z</time></trkpt>
<trkpt lat="24.655716" lon="109.149121">
<time>2016-10-06T15:51:43Z</time></trkpt>
<trkpt lat="24.655656" lon="109.148971">
<time>2016-10-06T15:51:44Z</time></trkpt>
<trkpt lat="24.655636" lon="109.148931">
<time>2016-10-06T15:51:45Z</time></trkpt>
<trkpt lat="24.655616" lon="109.148891">
<time>2016-10-06T15:51:46Z</time></trkpt>
<trkpt lat="24.655596" lon="109.148851">
<time>2016-10-06T15:51:47Z</time></trkpt>
<trkpt lat="24.655576" lon="109.148821">
<time>2016-10-06T15:51:48Z</time></trkpt>
<trkpt lat="24.655566" lon="109.14879">
<time>2016-10-06T15:51:49Z</time></trkpt>
<trkpt lat="24.655546" lon="109.14876">
<time>2016-10-06T15:51:50Z</time></trkpt>
<trkpt lat="24.655505" lon="109.14869">
<time>2016-10-06T15:51:51Z</time></trkpt>
<trkpt lat="24.655435" lon="109.14858">
<time>2016-10-06T15:51:52Z</time></trkpt>
<trkpt lat="24.655365" lon="109.14846">
<time>2016-10-06T15:51:53Z</time></trkpt>
<trkpt lat="24.655305" lon="109.14836">
<time>2016-10-06T15:51:54Z</time></trkpt>
<trkpt lat="24.655275" lon="109.14829">
<time>2016-10-06T15:51:55Z</time></trkpt>
<trkpt lat="24.655245" lon="109.14823">
<time>2016-10-06T15:51:56Z</time></trkpt>
<trkpt lat="24.655234" lon="109.14817">
<time>2016-10-06T15:51:57Z</time></trkpt>
<trkpt lat="24.655214" lon="109.14811">
<time>2016-10-06T15:51:58Z</time></trkpt>
<trkpt lat="24.655204" lon="109.14804">
<time>2016-10-06T15:51:59Z</time></trkpt>
<trkpt lat="24.655184" lon="109.147869">
<time>2016-10-06T15:52:00Z</time></trkpt>
<trkpt lat="24.655174" lon="109.147789">
<time>2016-10-06T15:52:01Z</time></trkpt>
<trkpt lat="24.655154" lon="109.147729">
<time>2016-10-06T15:52:02Z</time></trkpt>
<trkpt lat="24.655144" lon="109.147679">
<time>2016-10-06T15:52:03Z</time></trkpt>
<trkpt lat="24.655124" lon="109.147639">
<time>2016-10-06T15:52:04Z</time></trkpt>
<trkpt lat="24.655103" lon="109.147599">
<time>2016-10-06T15:52:05Z</time></trkpt>
<trkpt lat="24.655083" lon="109.147569">
<time>2016-10-06T15:52:06Z</time></trkpt>
<trkpt lat="24.655053" lon="109.147529">
<time>2016-10-06T15:52:07Z</time></trkpt>
<trkpt lat="24.655013" lon="109.147489">
<time>2016-10-06T15:52:08Z</time></trkpt>
<trkpt lat="24.654973" lon="109.147439">
<time>2016-10-06T15:52:09Z</time></trkpt>
<trkpt lat="24.654913" lon="109.147399">
<time>2016-10-06T15:52:10Z</time></trkpt>
<trkpt lat="24.654863" lon="109.147349">
<time>2016-10-06T15:52:11Z</time></trkpt>
<trkpt lat="24.654793" lon="109.147299">
<time>2016-10-06T15:52:12Z</time></trkpt>
<trkpt lat="24.654733" lon="109.147248">
<time>2016-10-06T15:52:13Z</time></trkpt>
<trkpt lat="24.654663" lon="109.147168">
<time>2016-10-06T15:52:14Z</time></trkpt>
<trkpt lat="24.654623" lon="109.147118">
<time>2016-10-06T15:52:15Z</time></trkpt>
<trkpt lat="24.654593" lon="109.147078">
<time>2016-10-06T15:52:16Z</time></trkpt>
<trkpt lat="24.654573" lon="109.147038">
<time>2016-10-06T15:52:17Z</time></trkpt>
<trkpt lat="24.654552" lon="109.147008">
<time>2016-10-06T15:52:18Z</time></trkpt>
<trkpt lat="24.654542" lon="109.146968">
<time>2016-10-06T15:52:19Z</time></trkpt>
<trkpt lat="24.654532" lon="109.146938">
<time>2016-10-06T15:52:20Z</time></trkpt>
<trkpt lat="24.654522" lon="109.146898">
<time>2016-10-06T15:52:21Z</time></trkpt>
<trkpt lat="24.654522" lon="109.146848">
<time>2016-10-06T15:52:22Z</time></trkpt>
<trkpt lat="24.654522" lon="109.146788">
<time>2016-10-06T15:52:23Z</time></trkpt>
<trkpt lat="24.654532" lon="109.146748">
<time>2016-10-06T15:52:24Z</time></trkpt>
<trkpt lat="24.654552" lon="109.146698">
<time>2016-10-06T15:52:25Z</time></trkpt>
<trkpt lat="24.654572" lon="109.146648">
<time>2016-10-06T15:52:26Z</time></trkpt>
<trkpt lat="24.654602" lon="109.146598">
<time>2016-10-06T15:52:27Z</time></trkpt>
<trkpt lat="24.654622" lon="109.146548">
<time>2016-10-06T15:52:28Z</time></trkpt>
<trkpt lat="24.654681" lon="109.146447">
<time>2016-10-06T15:52:29Z</time></trkpt>
<trkpt lat="24.654781" lon="109.146277">
<time>2016-10-06T15:52:30Z</time></trkpt>
<trkpt lat="24.654801" lon="109.146237">
<time>2016-10-06T15:52:31Z</time></trkpt>
<trkpt lat="24.654821" lon="109.146197">
<time>2016-10-06T15:52:32Z</time></trkpt>
<trkpt lat="24.654841" lon="109.146147">
<time>2016-10-06T15:52:33Z</time></trkpt>
<trkpt lat="24.654861" lon="109.146087">
<time>2016-10-06T15:52:34Z</time></trkpt>
<trkpt lat="24.654881" lon="109.146027">
<time>2016-10-06T15:52:35Z</time></trkpt>
<trkpt lat="24.654901" lon="109.145967">
<time>2016-10-06T15:52:36Z</time></trkpt>
<trkpt lat="24.654921" lon="109.145907">
<time>2016-10-06T15:52:37Z</time></trkpt>
<trkpt lat="24.65504" lon="109.145646">
<time>2016-10-06T15:52:38Z</time></trkpt>
<trkpt lat="24.655199" lon="109.145246">
<time>2016-10-06T15:52:39Z</time></trkpt>
<trkpt lat="24.655239" lon="109.145166">
<time>2016-10-06T15:52:40Z</time></trkpt>
<trkpt lat="24.655259" lon="109.145096">
<time>2016-10-06T15:52:41Z</time></trkpt>
<trkpt lat="24.655289" lon="109.145026">
<time>2016-10-06T15:52:42Z</time></trkpt>
<trkpt lat="24.655299" lon="109.144955">
<time>2016-10-06T15:52:43Z</time></trkpt>
<trkpt lat="24.655319" lon="109.144885">
<time>2016-10-06T15:52:44Z</time></trkpt>
<trkpt lat="24.655339" lon="109.144715">
<time>2016-10-06T15:52:45Z</time></trkpt>
<trkpt lat="24.655378" lon="109.144565">
<time>2016-10-06T15:52:46Z</time></trkpt>
<trkpt lat="24.655398" lon="109.144455">
<time>2016-10-06T15:52:47Z</time></trkpt>
<trkpt lat="24.655448" lon="109.144275">
<time>2016-10-06T15:52:48Z</time></trkpt>
<trkpt lat="24.655497" lon="109.144094">
<time>2016-10-06T15:52:49Z</time></trkpt>
<trkpt lat="24.655527" lon="109.143964">
<time>2016-10-06T15:52:50Z</time></trkpt>
<trkpt lat="24.655557" lon="109.143794">
<time>2016-10-06T15:52:51Z</time></trkpt>
<trkpt lat="24.655577" lon="109.143694">
<time>2016-10-06T15:52:52Z</time></trkpt>
<trkpt lat="24.655587" lon="109.143614">
<time>2016-10-06T15:52:53Z</time></trkpt>
<trkpt lat="24.655587" lon="109.143544">
<time>2016-10-06T15:52:54Z</time></trkpt>
<trkpt lat="24.655576" lon="109.143484">
<time>2016-10-06T15:52:55Z</time></trkpt>
<trkpt lat="24.655566" lon="109.143434">
<time>2016-10-06T15:52:56Z</time></trkpt>
<trkpt lat="24.655556" lon="109.143373">
<time>2016-10-06T15:52:57Z</time></trkpt>
<trkpt lat="24.655546" lon="109.143323">
<time>2016-10-06T15:52:58Z</time></trkpt>
<trkpt lat="24.655526" lon="109.143273">
<time>2016-10-06T15:52:59Z</time></trkpt>
<trkpt lat="24.655496" lon="109.143193">
<time>2016-10-06T15:53:00Z</time></trkpt>
<trkpt lat="24.655466" lon="109.143073">
<time>2016-10-06T15:53:01Z</time></trkpt>
<trkpt lat="24.655446" lon="109.142993">
<time>2016-10-06T15:53:02Z</time></trkpt>
<trkpt lat="24.655436" lon="109.142923">
<time>2016-10-06T15:53:03Z</time></trkpt>
<trkpt lat="24.655425" lon="109.142833">
<time>2016-10-06T15:53:04Z</time></trkpt>
<trkpt lat="24.655425" lon="109.142753">
<time>2016-10-06T15:53:05Z</time></trkpt>
<trkpt lat="24.655425" lon="109.142673">
<time>2016-10-06T15:53:06Z</time></trkpt>
<trkpt lat="24.655425" lon="109.142583">
<time>2016-10-06T15:53:07Z</time></trkpt>
<trkpt lat="24.655435" lon="109.142462">
<time>2016-10-06T15:53:08Z</time></trkpt>
<trkpt lat="24.655455" lon="109.142312">
<time>2016-10-06T15:53:09Z</time></trkpt>
<trkpt lat="24.655474" lon="109.142152">
<time>2016-10-06T15:53:10Z</time></trkpt>
<trkpt lat="24.655484" lon="109.142062">
<time>2016-10-06T15:53:11Z</time></trkpt>
<trkpt lat="24.655484" lon="109.142002">
<time>2016-10-06T15:53:12Z</time></trkpt>
<trkpt lat="24.655484" lon="109.141952">
<time>2016-10-06T15:53:13Z</time></trkpt>
<trkpt lat="24.655484" lon="109.141872">
<time>2016-10-06T15:53:14Z</time></trkpt>
<trkpt lat="24.655484" lon="109.141762">
<time>2016-10-06T15:53:15Z</time></trkpt>
<trkpt lat="24.655484" lon="109.141681">
<time>2016-10-06T15:53:16Z</time></trkpt>
<trkpt lat="24.655483" lon="109.141601">
<time>2016-10-06T15:53:17Z</time></trkpt>
<trkpt lat="24.655473" lon="109.141521">
<time>2016-10-06T15:53:18Z</time></trkpt>
<trkpt lat="24.655473" lon="109.141461">
<time>2016-10-06T15:53:19Z</time></trkpt>
<trkpt lat="24.655473" lon="109.141421">
<time>2016-10-06T15:53:20Z</time></trkpt>
<trkpt lat="24.655463" lon="109.141361">
<time>2016-10-06T15:53:21Z</time></trkpt>
<trkpt lat="24.655453" lon="109.141311">
<time>2016-10-06T15:53:22Z</time></trkpt>
<trkpt lat="24.655423" lon="109.141101">
<time>2016-10-06T15:53:23Z</time></trkpt>
<trkpt lat="24.655382" lon="109.14084">
<time>2016-10-06T15:53:24Z</time></trkpt>
<trkpt lat="24.655352" lon="109.14064">
<time>2016-10-06T15:53:25Z</time></trkpt>
<trkpt lat="24.655332" lon="109.1405">
<time>2016-10-06T15:53:26Z</time></trkpt>
<trkpt lat="24.655331" lon="109.14044">
<time>2016-10-06T15:53:27Z</time></trkpt>
<trkpt lat="24.655321" lon="109.14036">
<time>2016-10-06T15:53:28Z</time></trkpt>
<trkpt lat="24.655311" lon="109.14022">
<time>2016-10-06T15:53:29Z</time></trkpt>
<trkpt lat="24.655311" lon="109.14018">
<time>2016-10-06T15:53:30Z</time></trkpt>
<trkpt lat="24.655311" lon="109.14014">
<time>2016-10-06T15:53:31Z</time></trkpt>
<trkpt lat="24.655311" lon="109.140049">
<time>2016-10-06T15:53:32Z</time></trkpt>
<trkpt lat="24.655321" lon="109.139949">
<time>2016-10-06T15:53:33Z</time></trkpt>
<trkpt lat="24.655321" lon="109.139879">
<time>2016-10-06T15:53:34Z</time></trkpt>
<trkpt lat="24.65533" lon="109.139729">
<time>2016-10-06T15:53:35Z</time></trkpt>
<trkpt lat="24.65535" lon="109.139539">
<time>2016-10-06T15:53:36Z</time></trkpt>
<trkpt lat="24.65535" lon="109.139389">
<time>2016-10-06T15:53:37Z</time></trkpt>
<trkpt lat="24.65535" lon="109.139259">
<time>2016-10-06T15:53:38Z</time></trkpt>
<trkpt lat="24.655349" lon="109.139098">
<time>2016-10-06T15:53:39Z</time></trkpt>
<trkpt lat="24.655329" lon="109.138898">
<time>2016-10-06T15:53:40Z</time></trkpt>
<trkpt lat="24.655319" lon="109.138768">
<time>2016-10-06T15:53:41Z</time></trkpt>
<trkpt lat="24.655299" lon="109.138598">
<time>2016-10-06T15:53:42Z</time></trkpt>
<trkpt lat="24.655288" lon="109.138458">
<time>2016-10-06T15:53:43Z</time></trkpt>
<trkpt lat="24.655268" lon="109.138307">
<time>2016-10-06T15:53:44Z</time></trkpt>
<trkpt lat="24.655248" lon="109.138107">
<time>2016-10-06T15:53:45Z</time></trkpt>
<trkpt lat="24.655217" lon="109.137887">
<time>2016-10-06T15:53:46Z</time></trkpt>
<trkpt lat="24.655197" lon="109.137787">
<time>2016-10-06T15:53:47Z</time></trkpt>
<trkpt lat="24.655177" lon="109.137647">
<time>2016-10-06T15:53:48Z</time></trkpt>
<trkpt lat="24.655147" lon="109.137477">
<time>2016-10-06T15:53:49Z</time></trkpt>
<trkpt lat="24.655137" lon="109.137406">
<time>2016-10-06T15:53:50Z</time></trkpt>
<trkpt lat="24.655127" lon="109.137296">
<time>2016-10-06T15:53:51Z</time></trkpt>
<trkpt lat="24.655126" lon="109.137136">
<time>2016-10-06T15:53:52Z</time></trkpt>
<trkpt lat="24.655136" lon="109.136986">
<time>2016-10-06T15:53:53Z</time></trkpt>
<trkpt lat="24.655146" lon="109.136906">
<time>2016-10-06T15:53:54Z</time></trkpt>
<trkpt lat="24.655156" lon="109.136866">
<time>2016-10-06T15:53:55Z</time></trkpt>
<trkpt lat="24.655166" lon="109.136826">
<time>2016-10-06T15:53:56Z</time></trkpt>
<trkpt lat="24.655176" lon="109.136786">
<time>2016-10-06T15:53:57Z</time></trkpt>
<trkpt lat="24.655186" lon="109.136756">
<time>2016-10-06T15:53:58Z</time></trkpt>
<trkpt lat="24.655196" lon="109.136726">
<time>2016-10-06T15:53:59Z</time></trkpt>
<trkpt lat="24.655216" lon="109.136686">
<time>2016-10-06T15:54:00Z</time></trkpt>
<trkpt lat="24.655255" lon="109.136596">
<time>2016-10-06T15:54:01Z</time></trkpt>
<trkpt lat="24.655285" lon="109.136505">
<time>2016-10-06T15:54:02Z</time></trkpt>
<trkpt lat="24.655315" lon="109.136445">
<time>2016-10-06T15:54:03Z</time></trkpt>
<trkpt lat="24.655335" lon="109.136385">
<time>2016-10-06T15:54:04Z</time></trkpt>
<trkpt lat="24.655355" lon="109.136325">
<time>2016-10-06T15:54:05Z</time></trkpt>
<trkpt lat="24.655365" lon="109.136275">
<time>2016-10-06T15:54:06Z</time></trkpt>
<trkpt lat="24.655385" lon="109.136165">
<time>2016-10-06T15:54:07Z</time></trkpt>
<trkpt lat="24.655395" lon="109.136115">
<time>2016-10-06T15:54:08Z</time></trkpt>
<trkpt lat="24.655395" lon="109.136055">
<time>2016-10-06T15:54:09Z</time></trkpt>
<trkpt lat="24.655405" lon="109.136015">
<time>2016-10-06T15:54:10Z</time></trkpt>
<trkpt lat="24.655405" lon="109.135975">
<time>2016-10-06T15:54:11Z</time></trkpt>
<trkpt lat="24.655404" lon="109.135875">
<time>2016-10-06T15:54:12Z</time></trkpt>
<trkpt lat="24.655404" lon="109.135855">
<time>2016-10-06T15:54:13Z</time></trkpt>
<trkpt lat="24.655394" lon="109.135825">
<time>2016-10-06T15:54:14Z</time></trkpt>
<trkpt lat="24.655394" lon="109.135775">
<time>2016-10-06T15:54:15Z</time></trkpt>
<trkpt lat="24.655374" lon="109.135675">
<time>2016-10-06T15:54:16Z</time></trkpt>
<trkpt lat="24.655364" lon="109.135615">
<time>2016-10-06T15:54:17Z</time></trkpt>
<trkpt lat="24.655354" lon="109.135524">
<time>2016-10-06T15:54:18Z</time></trkpt>
<trkpt lat="24.655324" lon="109.135404">
<time>2016-10-06T15:54:19Z</time></trkpt>
<trkpt lat="24.655304" lon="109.135314">
<time>2016-10-06T15:54:20Z</time></trkpt>
<trkpt lat="24.655273" lon="109.135204">
<time>2016-10-06T15:54:21Z</time></trkpt>
<trkpt lat="24.655233" lon="109.135084">
<time>2016-10-06T15:54:22Z</time></trkpt>
<trkpt lat="24.655213" lon="109.134984">
<time>2016-10-06T15:54:23Z</time></trkpt>
<trkpt lat="24.655183" lon="109.134874">
<time>2016-10-06T15:54:24Z</time></trkpt>
<trkpt lat="24.655183" lon="109.134854">
<time>2016-10-06T15:54:25Z</time></trkpt>
<trkpt lat="24.655183" lon="109.134844">
<time>2016-10-06T15:54:26Z</time></trkpt>
<trkpt lat="24.655173" lon="109.134744">
<time>2016-10-06T15:54:27Z</time></trkpt>
<trkpt lat="24.655173" lon="109.134724">
<time>2016-10-06T15:54:28Z</time></trkpt>
<trkpt lat="24.655173" lon="109.134694">
<time>2016-10-06T15:54:29Z</time></trkpt>
<trkpt lat="24.655173" lon="109.134634">
<time>2016-10-06T15:54:30Z</time></trkpt>
<trkpt lat="24.655183" lon="109.134613">
<time>2016-10-06T15:54:31Z</time></trkpt>
<trkpt lat="24.655182" lon="109.134593">
<time>2016-10-06T15:54:32Z</time></trkpt>
<trkpt lat="24.655192" lon="109.134553">
<time>2016-10-06T15:54:33Z</time></trkpt>
<trkpt lat="24.655202" lon="109.134513">
<time>2016-10-06T15:54:34Z</time></trkpt>
<trkpt lat="24.655212" lon="109.134493">
<time>2016-10-06T15:54:35Z</time></trkpt>
<trkpt lat="24.655222" lon="109.134473">
<time>2016-10-06T15:54:36Z</time></trkpt>
<trkpt lat="24.655232" lon="109.134453">
<time>2016-10-06T15:54:37Z</time></trkpt>
<trkpt lat="24.655242" lon="109.134443">
<time>2016-10-06T15:54:38Z</time></trkpt>
<trkpt lat="24.655252" lon="109.134423">
<time>2016-10-06T15:54:39Z</time></trkpt>
<trkpt lat="24.655262" lon="109.134403">
<time>2016-10-06T15:54:40Z</time></trkpt>
<trkpt lat="24.655272" lon="109.134393">
<time>2016-10-06T15:54:41Z</time></trkpt>
<trkpt lat="24.655282" lon="109.134373">
<time>2016-10-06T15:54:42Z</time></trkpt>
<trkpt lat="24.655312" lon="109.134343">
<time>2016-10-06T15:54:43Z</time></trkpt>
<trkpt lat="24.655412" lon="109.134253">
<time>2016-10-06T15:54:44Z</time></trkpt>
<trkpt lat="24.655472" lon="109.134183">
<time>2016-10-06T15:54:45Z</time></trkpt>
<trkpt lat="24.655542" lon="109.134113">
<time>2016-10-06T15:54:46Z</time></trkpt>
<trkpt lat="24.655642" lon="109.134003">
<time>2016-10-06T15:54:47Z</time></trkpt>
<trkpt lat="24.655662" lon="109.133963">
<time>2016-10-06T15:54:48Z</time></trkpt>
<trkpt lat="24.655682" lon="109.133943">
<time>2016-10-06T15:54:49Z</time></trkpt>
<trkpt lat="24.655702" lon="109.133923">
<time>2016-10-06T15:54:50Z</time></trkpt>
<trkpt lat="24.655721" lon="109.133893">
<time>2016-10-06T15:54:51Z</time></trkpt>
<trkpt lat="24.655731" lon="109.133873">
<time>2016-10-06T15:54:52Z</time></trkpt>
<trkpt lat="24.655771" lon="109.133813">
<time>2016-10-06T15:54:53Z</time></trkpt>
<trkpt lat="24.655841" lon="109.133693">
<time>2016-10-06T15:54:54Z</time></trkpt>
<trkpt lat="24.655891" lon="109.133632">
<time>2016-10-06T15:54:55Z</time></trkpt>
<trkpt lat="24.655911" lon="109.133602">
<time>2016-10-06T15:54:56Z</time></trkpt>
<trkpt lat="24.655921" lon="109.133582">
<time>2016-10-06T15:54:57Z</time></trkpt>
<trkpt lat="24.655951" lon="109.133552">
<time>2016-10-06T15:54:58Z</time></trkpt>
<trkpt lat="24.655981" lon="109.133532">
<time>2016-10-06T15:54:59Z</time></trkpt>
<trkpt lat="24.656001" lon="109.133502">
<time>2016-10-06T15:55:00Z</time></trkpt>
<trkpt lat="24.656041" lon="109.133472">
<time>2016-10-06T15:55:01Z</time></trkpt>
<trkpt lat="24.656121" lon="109.133402">
<time>2016-10-06T15:55:02Z</time></trkpt>
<trkpt lat="24.656121" lon="109.133392">
<time>2016-10-06T15:55:03Z</time></trkpt>
<trkpt lat="24.656211" lon="109.133322">
<time>2016-10-06T15:55:04Z</time></trkpt>
<trkpt lat="24.656251" lon="109.133282">
<time>2016-10-06T15:55:05Z</time></trkpt>
<trkpt lat="24.656281" lon="109.133242">
<time>2016-10-06T15:55:06Z</time></trkpt>
<trkpt lat="24.6563" lon="109.133212">
<time>2016-10-06T15:55:07Z</time></trkpt>
<trkpt lat="24.65632" lon="109.133192">
<time>2016-10-06T15:55:08Z</time></trkpt>
<trkpt lat="24.65637" lon="109.133112">
<time>2016-10-06T15:55:09Z</time></trkpt>
<trkpt lat="24.65646" lon="109.132962">
<time>2016-10-06T15:55:10Z</time></trkpt>
<trkpt lat="24.65649" lon="109.132912">
<time>2016-10-06T15:55:11Z</time></trkpt>
<trkpt lat="24.6565" lon="109.132872">
<time>2016-10-06T15:55:12Z</time></trkpt>
<trkpt lat="24.65653" lon="109.132812">
<time>2016-10-06T15:55:13Z</time></trkpt>
<trkpt lat="24.65655" lon="109.132772">
<time>2016-10-06T15:55:14Z</time></trkpt>
<trkpt lat="24.65656" lon="109.132732">
<time>2016-10-06T15:55:15Z</time></trkpt>
<trkpt lat="24.65657" lon="109.132701">
<time>2016-10-06T15:55:16Z</time></trkpt>
<trkpt lat="24.65658" lon="109.132661">
<time>2016-10-06T15:55:17Z</time></trkpt>
<trkpt lat="24.65659" lon="109.132631">
<time>2016-10-06T15:55:18Z</time></trkpt>
<trkpt lat="24.65659" lon="109.132601">
<time>2016-10-06T15:55:19Z</time></trkpt>
<trkpt lat="24.65659" lon="109.132561">
<time>2016-10-06T15:55:20Z</time></trkpt>
<trkpt lat="24.6566" lon="109.132531">
<time>2016-10-06T15:55:21Z</time></trkpt>
<trkpt lat="24.656599" lon="109.132501">
<time>2016-10-06T15:55:22Z</time></trkpt>
<trkpt lat="24.656589" lon="109.132461">
<time>2016-10-06T15:55:23Z</time></trkpt>
<trkpt lat="24.656589" lon="109.132431">
<time>2016-10-06T15:55:24Z</time></trkpt>
<trkpt lat="24.656589" lon="109.132401">
<time>2016-10-06T15:55:25Z</time></trkpt>
<trkpt lat="24.656589" lon="109.132381">
<time>2016-10-06T15:55:26Z</time></trkpt>
<trkpt lat="24.656579" lon="109.132341">
<time>2016-10-06T15:55:27Z</time></trkpt>
<trkpt lat="24.656549" lon="109.132141">
<time>2016-10-06T15:55:28Z</time></trkpt>
<trkpt lat="24.656488" lon="109.131761">
<time>2016-10-06T15:55:29Z</time></trkpt>
<trkpt lat="24.656458" lon="109.13155">
<time>2016-10-06T15:55:30Z</time></trkpt>
<trkpt lat="24.656428" lon="109.13134">
<time>2016-10-06T15:55:31Z</time></trkpt>
<trkpt lat="24.656408" lon="109.13125">
<time>2016-10-06T15:55:32Z</time></trkpt>
<trkpt lat="24.656398" lon="109.13118">
<time>2016-10-06T15:55:33Z</time></trkpt>
<trkpt lat="24.656388" lon="109.13112">
<time>2016-10-06T15:55:34Z</time></trkpt>
<trkpt lat="24.656367" lon="109.13106">
<time>2016-10-06T15:55:35Z</time></trkpt>
<trkpt lat="24.656357" lon="109.13101">
<time>2016-10-06T15:55:36Z</time></trkpt>
<trkpt lat="24.656337" lon="109.13097">
<time>2016-10-06T15:55:37Z</time></trkpt>
<trkpt lat="24.656317" lon="109.13091">
<time>2016-10-06T15:55:38Z</time></trkpt>
<trkpt lat="24.656277" lon="109.13085">
<time>2016-10-06T15:55:39Z</time></trkpt>
<trkpt lat="24.656237" lon="109.13078">
<time>2016-10-06T15:55:40Z</time></trkpt>
<trkpt lat="24.656207" lon="109.13073">
<time>2016-10-06T15:55:41Z</time></trkpt>
<trkpt lat="24.656147" lon="109.13066">
<time>2016-10-06T15:55:42Z</time></trkpt>
<trkpt lat="24.656067" lon="109.130539">
<time>2016-10-06T15:55:43Z</time></trkpt>
<trkpt lat="24.655997" lon="109.130439">
<time>2016-10-06T15:55:44Z</time></trkpt>
<trkpt lat="24.655987" lon="109.130409">
<time>2016-10-06T15:55:45Z</time></trkpt>
<trkpt lat="24.655956" lon="109.130359">
<time>2016-10-06T15:55:46Z</time></trkpt>
<trkpt lat="24.655936" lon="109.130299">
<time>2016-10-06T15:55:47Z</time></trkpt>
<trkpt lat="24.655916" lon="109.130229">
<time>2016-10-06T15:55:48Z</time></trkpt>
<trkpt lat="24.655896" lon="109.130149">
<time>2016-10-06T15:55:49Z</time></trkpt>
<trkpt lat="24.655876" lon="109.130069">
<time>2016-10-06T15:55:50Z</time></trkpt>
<trkpt lat="24.655856" lon="109.129929">
<time>2016-10-06T15:55:51Z</time></trkpt>
<trkpt lat="24.655816" lon="109.129669">
<time>2016-10-06T15:55:52Z</time></trkpt>
<trkpt lat="24.655785" lon="109.129459">
<time>2016-10-06T15:55:53Z</time></trkpt>
<trkpt lat="24.655765" lon="109.129258">
<time>2016-10-06T15:55:54Z</time></trkpt>
<trkpt lat="24.655725" lon="109.129038">
<time>2016-10-06T15:55:55Z</time></trkpt>
<trkpt lat="24.655705" lon="109.128898">
<time>2016-10-06T15:55:56Z</time></trkpt>
<trkpt lat="24.655674" lon="109.128718">
<time>2016-10-06T15:55:57Z</time></trkpt>
<trkpt lat="24.655654" lon="109.128618">
<time>2016-10-06T15:55:58Z</time></trkpt>
<trkpt lat="24.655624" lon="109.128478">
<time>2016-10-06T15:55:59Z</time></trkpt>
<trkpt lat="24.655604" lon="109.128388">
<time>2016-10-06T15:56:00Z</time></trkpt>
<trkpt lat="24.655594" lon="109.128308">
<time>2016-10-06T15:56:01Z</time></trkpt>
<trkpt lat="24.655584" lon="109.128227">
<time>2016-10-06T15:56:02Z</time></trkpt>
<trkpt lat="24.655574" lon="109.128177">
<time>2016-10-06T15:56:03Z</time></trkpt>
<trkpt lat="24.655574" lon="109.128117">
<time>2016-10-06T15:56:04Z</time></trkpt>
<trkpt lat="24.655563" lon="109.128047">
<time>2016-10-06T15:56:05Z</time></trkpt>
<trkpt lat="24.655573" lon="109.127587">
<time>2016-10-06T15:56:06Z</time></trkpt>
<trkpt lat="24.655563" lon="109.127527">
<time>2016-10-06T15:56:07Z</time></trkpt>
<trkpt lat="24.655563" lon="109.127467">
<time>2016-10-06T15:56:08Z</time></trkpt>
<trkpt lat="24.655553" lon="109.127417">
<time>2016-10-06T15:56:09Z</time></trkpt>
<trkpt lat="24.655553" lon="109.127367">
<time>2016-10-06T15:56:10Z</time></trkpt>
<trkpt lat="24.655542" lon="109.127327">
<time>2016-10-06T15:56:11Z</time></trkpt>
<trkpt lat="24.655522" lon="109.127277">
<time>2016-10-06T15:56:12Z</time></trkpt>
<trkpt lat="24.655512" lon="109.127227">
<time>2016-10-06T15:56:13Z</time></trkpt>
<trkpt lat="24.655502" lon="109.127187">
<time>2016-10-06T15:56:14Z</time></trkpt>
<trkpt lat="24.655482" lon="109.127147">
<time>2016-10-06T15:56:15Z</time></trkpt>
<trkpt lat="24.655472" lon="109.127107">
<time>2016-10-06T15:56:16Z</time></trkpt>
<trkpt lat="24.655452" lon="109.127067">
<time>2016-10-06T15:56:17Z</time></trkpt>
<trkpt lat="24.655432" lon="109.127026">
<time>2016-10-06T15:56:18Z</time></trkpt>
<trkpt lat="24.655352" lon="109.126866">
<time>2016-10-06T15:56:19Z</time></trkpt>
<trkpt lat="24.655302" lon="109.126756">
<time>2016-10-06T15:56:20Z</time></trkpt>
<trkpt lat="24.655232" lon="109.126636">
<time>2016-10-06T15:56:21Z</time></trkpt>
<trkpt lat="24.655151" lon="109.126496">
<time>2016-10-06T15:56:22Z</time></trkpt>
<trkpt lat="24.655081" lon="109.126376">
<time>2016-10-06T15:56:23Z</time></trkpt>
<trkpt lat="24.655001" lon="109.126236">
<time>2016-10-06T15:56:24Z</time></trkpt>
<trkpt lat="24.654981" lon="109.126196">
<time>2016-10-06T15:56:25Z</time></trkpt>
<trkpt lat="24.654961" lon="109.126156">
<time>2016-10-06T15:56:26Z</time></trkpt>
<trkpt lat="24.654941" lon="109.126116">
<time>2016-10-06T15:56:27Z</time></trkpt>
<trkpt lat="24.654921" lon="109.126056">
<time>2016-10-06T15:56:28Z</time></trkpt>
<trkpt lat="24.654901" lon="109.126026">
<time>2016-10-06T15:56:29Z</time></trkpt>
<trkpt lat="24.654891" lon="109.125986">
<time>2016-10-06T15:56:30Z</time></trkpt>
<trkpt lat="24.654871" lon="109.125936">
<time>2016-10-06T15:56:31Z</time></trkpt>
<trkpt lat="24.654861" lon="109.125876">
<time>2016-10-06T15:56:32Z</time></trkpt>
<trkpt lat="24.654851" lon="109.125836">
<time>2016-10-06T15:56:33Z</time></trkpt>
<trkpt lat="24.654831" lon="109.125776">
<time>2016-10-06T15:56:34Z</time></trkpt>
<trkpt lat="24.6548" lon="109.125535">
<time>2016-10-06T15:56:35Z</time></trkpt>
<trkpt lat="24.65479" lon="109.125505">
<time>2016-10-06T15:56:36Z</time></trkpt>
<trkpt lat="24.65478" lon="109.125475">
<time>2016-10-06T15:56:37Z</time></trkpt>
<trkpt lat="24.65476" lon="109.125385">
<time>2016-10-06T15:56:38Z</time></trkpt>
<trkpt lat="24.65475" lon="109.125325">
<time>2016-10-06T15:56:39Z</time></trkpt>
<trkpt lat="24.65473" lon="109.125265">
<time>2016-10-06T15:56:40Z</time></trkpt>
<trkpt lat="24.65468" lon="109.125125">
<time>2016-10-06T15:56:41Z</time></trkpt>
<trkpt lat="24.65466" lon="109.125035">
<time>2016-10-06T15:56:42Z</time></trkpt>
<trkpt lat="24.65465" lon="109.125005">
<time>2016-10-06T15:56:43Z</time></trkpt>
<trkpt lat="24.654619" lon="109.124895">
<time>2016-10-06T15:56:44Z</time></trkpt>
<trkpt lat="24.654599" lon="109.124835">
<time>2016-10-06T15:56:45Z</time></trkpt>
<trkpt lat="24.654589" lon="109.124755">
<time>2016-10-06T15:56:46Z</time></trkpt>
<trkpt lat="24.654579" lon="109.124675">
<time>2016-10-06T15:56:47Z</time></trkpt>
<trkpt lat="24.654569" lon="109.124595">
<time>2016-10-06T15:56:48Z</time></trkpt>
<trkpt lat="24.654559" lon="109.124495">
<time>2016-10-06T15:56:49Z</time></trkpt>
<trkpt lat="24.654539" lon="109.124234">
<time>2016-10-06T15:56:50Z</time></trkpt>
<trkpt lat="24.654539" lon="109.124074">
<time>2016-10-06T15:56:51Z</time></trkpt>
<trkpt lat="24.654508" lon="109.123454">
<time>2016-10-06T15:56:52Z</time></trkpt>
<trkpt lat="24.654477" lon="109.122964">
<time>2016-10-06T15:56:53Z</time></trkpt>
<trkpt lat="24.654447" lon="109.122693">
<time>2016-10-06T15:56:54Z</time></trkpt>
<trkpt lat="24.654437" lon="109.122563">
<time>2016-10-06T15:56:55Z</time></trkpt>
<trkpt lat="24.654407" lon="109.122353">
<time>2016-10-06T15:56:56Z</time></trkpt>
<trkpt lat="24.654386" lon="109.122223">
<time>2016-10-06T15:56:57Z</time></trkpt>
<trkpt lat="24.654356" lon="109.121993">
<time>2016-10-06T15:56:58Z</time></trkpt>
<trkpt lat="24.654316" lon="109.121523">
<time>2016-10-06T15:56:59Z</time></trkpt>
<trkpt lat="24.654265" lon="109.120932">
<time>2016-10-06T15:57:00Z</time></trkpt>
<trkpt lat="24.654184" lon="109.119842">
<time>2016-10-06T15:57:01Z</time></trkpt>
<trkpt lat="24.654154" lon="109.119562">
<time>2016-10-06T15:57:02Z</time></trkpt>
<trkpt lat="24.654133" lon="109.119391">
<time>2016-10-06T15:57:03Z</time></trkpt>
<trkpt lat="24.654113" lon="109.119261">
<time>2016-10-06T15:57:04Z</time></trkpt>
<trkpt lat="24.654093" lon="109.119151">
<time>2016-10-06T15:57:05Z</time></trkpt>
<trkpt lat="24.654073" lon="109.119071">
<time>2016-10-06T15:57:06Z</time></trkpt>
<trkpt lat="24.654043" lon="109.118951">
<time>2016-10-06T15:57:07Z</time></trkpt>
<trkpt lat="24.653973" lon="109.118731">
<time>2016-10-06T15:57:08Z</time></trkpt>
<trkpt lat="24.653933" lon="109.118591">
<time>2016-10-06T15:57:09Z</time></trkpt>
<trkpt lat="24.653892" lon="109.118371">
<time>2016-10-06T15:57:10Z</time></trkpt>
<trkpt lat="24.653872" lon="109.118301">
<time>2016-10-06T15:57:11Z</time></trkpt>
<trkpt lat="24.653842" lon="109.118231">
<time>2016-10-06T15:57:12Z</time></trkpt>
<trkpt lat="24.653792" lon="109.118111">
<time>2016-10-06T15:57:13Z</time></trkpt>
<trkpt lat="24.653652" lon="109.117761">
<time>2016-10-06T15:57:14Z</time></trkpt>
<trkpt lat="24.653481" lon="109.11733">
<time>2016-10-06T15:57:15Z</time></trkpt>
<trkpt lat="24.653341" lon="109.11694">
<time>2016-10-06T15:57:16Z</time></trkpt>
<trkpt lat="24.653241" lon="109.11662">
<time>2016-10-06T15:57:17Z</time></trkpt>
<trkpt lat="24.653201" lon="109.11647">
<time>2016-10-06T15:57:18Z</time></trkpt>
<trkpt lat="24.65318" lon="109.1164">
<time>2016-10-06T15:57:19Z</time></trkpt>
<trkpt lat="24.65316" lon="109.1163">
<time>2016-10-06T15:57:20Z</time></trkpt>
<trkpt lat="24.65312" lon="109.11609">
<time>2016-10-06T15:57:21Z</time></trkpt>
<trkpt lat="24.65309" lon="109.11589">
<time>2016-10-06T15:57:22Z</time></trkpt>
<trkpt lat="24.65307" lon="109.11576">
<time>2016-10-06T15:57:23Z</time></trkpt>
<trkpt lat="24.65306" lon="109.11565">
<time>2016-10-06T15:57:24Z</time></trkpt>
<trkpt lat="24.65305" lon="109.11555">
<time>2016-10-06T15:57:25Z</time></trkpt>
<trkpt lat="24.65305" lon="109.11547">
<time>2016-10-06T15:57:26Z</time></trkpt>
<trkpt lat="24.653059" lon="109.11534">
<time>2016-10-06T15:57:27Z</time></trkpt>
<trkpt lat="24.653069" lon="109.11521">
<time>2016-10-06T15:57:28Z</time></trkpt>
<trkpt lat="24.653079" lon="109.11509">
<time>2016-10-06T15:57:29Z</time></trkpt>
<trkpt lat="24.653099" lon="109.115">
<time>2016-10-06T15:57:30Z</time></trkpt>
<trkpt lat="24.653119" lon="109.114899">
<time>2016-10-06T15:57:31Z</time></trkpt>
<trkpt lat="24.653139" lon="109.114809">
<time>2016-10-06T15:57:32Z</time></trkpt>
<trkpt lat="24.653159" lon="109.114729">
<time>2016-10-06T15:57:33Z</time></trkpt>
<trkpt lat="24.653199" lon="109.114609">
<time>2016-10-06T15:57:34Z</time></trkpt>
<trkpt lat="24.653219" lon="109.114539">
<time>2016-10-06T15:57:35Z</time></trkpt>
<trkpt lat="24.653259" lon="109.114449">
<time>2016-10-06T15:57:36Z</time></trkpt>
<trkpt lat="24.653329" lon="109.114289">
<time>2016-10-06T15:57:37Z</time></trkpt>
<trkpt lat="24.653508" lon="109.113979">
<time>2016-10-06T15:57:38Z</time></trkpt>
<trkpt lat="24.653548" lon="109.113889">
<time>2016-10-06T15:57:39Z</time></trkpt>
<trkpt lat="24.653598" lon="109.113769">
<time>2016-10-06T15:57:40Z</time></trkpt>
<trkpt lat="24.653648" lon="109.113619">
<time>2016-10-06T15:57:41Z</time></trkpt>
<trkpt lat="24.653688" lon="109.113419">
<time>2016-10-06T15:57:42Z</time></trkpt>
<trkpt lat="24.653718" lon="109.113259">
<time>2016-10-06T15:57:43Z</time></trkpt>
<trkpt lat="24.653738" lon="109.113119">
<time>2016-10-06T15:57:44Z</time></trkpt>
<trkpt lat="24.653748" lon="109.113009">
<time>2016-10-06T15:57:45Z</time></trkpt>
<trkpt lat="24.653767" lon="109.112759">
<time>2016-10-06T15:57:46Z</time></trkpt>
<trkpt lat="24.653767" lon="109.112409">
<time>2016-10-06T15:57:47Z</time></trkpt>
<trkpt lat="24.653767" lon="109.112249">
<time>2016-10-06T15:57:48Z</time></trkpt>
<trkpt lat="24.653757" lon="109.112059">
<time>2016-10-06T15:57:49Z</time></trkpt>
<trkpt lat="24.653747" lon="109.111909">
<time>2016-10-06T15:57:50Z</time></trkpt>
<trkpt lat="24.653727" lon="109.111789">
<time>2016-10-06T15:57:51Z</time></trkpt>
<trkpt lat="24.653707" lon="109.111659">
<time>2016-10-06T15:57:52Z</time></trkpt>
<trkpt lat="24.653666" lon="109.111488">
<time>2016-10-06T15:57:53Z</time></trkpt>
<trkpt lat="24.653626" lon="109.111328">
<time>2016-10-06T15:57:54Z</time></trkpt>
<trkpt lat="24.653606" lon="109.111248">
<time>2016-10-06T15:57:55Z</time></trkpt>
<trkpt lat="24.653586" lon="109.111188">
<time>2016-10-06T15:57:56Z</time></trkpt>
<trkpt lat="24.653566" lon="109.111088">
<time>2016-10-06T15:57:57Z</time></trkpt>
<trkpt lat="24.653536" lon="109.111008">
<time>2016-10-06T15:57:58Z</time></trkpt>
<trkpt lat="24.653516" lon="109.110948">
<time>2016-10-06T15:57:59Z</time></trkpt>
<trkpt lat="24.653486" lon="109.110868">
<time>2016-10-06T15:58:00Z</time></trkpt>
<trkpt lat="24.653456" lon="109.110798">
<time>2016-10-06T15:58:01Z</time></trkpt>
<trkpt lat="24.653396" lon="109.110678">
<time>2016-10-06T15:58:02Z</time></trkpt>
<trkpt lat="24.653286" lon="109.110438">
<time>2016-10-06T15:58:03Z</time></trkpt>
<trkpt lat="24.653196" lon="109.110268">
<time>2016-10-06T15:58:04Z</time></trkpt>
<trkpt lat="24.653115" lon="109.110118">
<time>2016-10-06T15:58:05Z</time></trkpt>
<trkpt lat="24.653055" lon="109.109978">
<time>2016-10-06T15:58:06Z</time></trkpt>
<trkpt lat="24.653015" lon="109.109858">
<time>2016-10-06T15:58:07Z</time></trkpt>
<trkpt lat="24.652985" lon="109.109778">
<time>2016-10-06T15:58:08Z</time></trkpt>
<trkpt lat="24.652945" lon="109.109598">
<time>2016-10-06T15:58:09Z</time></trkpt>
<trkpt lat="24.652855" lon="109.109188">
<time>2016-10-06T15:58:10Z</time></trkpt>
<trkpt lat="24.652805" lon="109.108878">
<time>2016-10-06T15:58:11Z</time></trkpt>
<trkpt lat="24.652764" lon="109.108678">
<time>2016-10-06T15:58:12Z</time></trkpt>
<trkpt lat="24.652734" lon="109.108488">
<time>2016-10-06T15:58:13Z</time></trkpt>
<trkpt lat="24.652684" lon="109.108218">
<time>2016-10-06T15:58:14Z</time></trkpt>
<trkpt lat="24.652634" lon="109.107998">
<time>2016-10-06T15:58:15Z</time></trkpt>
<trkpt lat="24.652624" lon="109.107948">
<time>2016-10-06T15:58:16Z</time></trkpt>
<trkpt lat="24.652624" lon="109.107908">
<time>2016-10-06T15:58:17Z</time></trkpt>
<trkpt lat="24.652614" lon="109.107858">
<time>2016-10-06T15:58:18Z</time></trkpt>
<trkpt lat="24.652624" lon="109.107818">
<time>2016-10-06T15:58:19Z</time></trkpt>
<trkpt lat="24.652624" lon="109.107778">
<time>2016-10-06T15:58:20Z</time></trkpt>
<trkpt lat="24.652624" lon="109.107748">
<time>2016-10-06T15:58:21Z</time></trkpt>
<trkpt lat="24.652634" lon="109.107708">
<time>2016-10-06T15:58:22Z</time></trkpt>
<trkpt lat="24.652654" lon="109.107668">
<time>2016-10-06T15:58:23Z</time></trkpt>
<trkpt lat="24.652664" lon="109.107638">
<time>2016-10-06T15:58:24Z</time></trkpt>
<trkpt lat="24.652674" lon="109.107598">
<time>2016-10-06T15:58:25Z</time></trkpt>
<trkpt lat="24.652714" lon="109.107518">
<time>2016-10-06T15:58:26Z</time></trkpt>
<trkpt lat="24.652764" lon="109.107398">
<time>2016-10-06T15:58:27Z</time></trkpt>
<trkpt lat="24.652794" lon="109.107278">
<time>2016-10-06T15:58:28Z</time></trkpt>
<trkpt lat="24.652804" lon="109.107218">
<time>2016-10-06T15:58:29Z</time></trkpt>
<trkpt lat="24.652824" lon="109.107118">
<time>2016-10-06T15:58:30Z</time></trkpt>
<trkpt lat="24.652833" lon="109.106938">
<time>2016-10-06T15:58:31Z</time></trkpt>
<trkpt lat="24.652873" lon="109.106278">
<time>2016-10-06T15:58:32Z</time></trkpt>
<trkpt lat="24.652873" lon="109.106018">
<time>2016-10-06T15:58:33Z</time></trkpt>
<trkpt lat="24.652863" lon="109.105898">
<time>2016-10-06T15:58:34Z</time></trkpt>
<trkpt lat="24.652853" lon="109.105748">
<time>2016-10-06T15:58:35Z</time></trkpt>
<trkpt lat="24.652823" lon="109.105618">
<time>2016-10-06T15:58:36Z</time></trkpt>
<trkpt lat="24.652793" lon="109.105488">
<time>2016-10-06T15:58:37Z</time></trkpt>
<trkpt lat="24.652773" lon="109.105378">
<time>2016-10-06T15:58:38Z</time></trkpt>
<trkpt lat="24.652743" lon="109.105268">
<time>2016-10-06T15:58:39Z</time></trkpt>
<trkpt lat="24.652703" lon="109.105158">
<time>2016-10-06T15:58:40Z</time></trkpt>
<trkpt lat="24.652662" lon="109.105048">
<time>2016-10-06T15:58:41Z</time></trkpt>
<trkpt lat="24.652622" lon="109.104948">
<time>2016-10-06T15:58:42Z</time></trkpt>
<trkpt lat="24.652572" lon="109.104848">
<time>2016-10-06T15:58:43Z</time></trkpt>
<trkpt lat="24.652502" lon="109.104708">
<time>2016-10-06T15:58:44Z</time></trkpt>
<trkpt lat="24.652412" lon="109.104538">
<time>2016-10-06T15:58:45Z</time></trkpt>
<trkpt lat="24.652302" lon="109.104358">
<time>2016-10-06T15:58:46Z</time></trkpt>
<trkpt lat="24.652132" lon="109.104068">
<time>2016-10-06T15:58:47Z</time></trkpt>
<trkpt lat="24.651962" lon="109.103758">
<time>2016-10-06T15:58:48Z</time></trkpt>
<trkpt lat="24.651882" lon="109.103598">
<time>2016-10-06T15:58:49Z</time></trkpt>
<trkpt lat="24.651812" lon="109.103458">
<time>2016-10-06T15:58:50Z</time></trkpt>
<trkpt lat="24.651692" lon="109.103228">
<time>2016-10-06T15:58:51Z</time></trkpt>
<trkpt lat="24.651622" lon="109.103048">
<time>2016-10-06T15:58:52Z</time></trkpt>
<trkpt lat="24.651521" lon="109.102788">
<time>2016-10-06T15:58:53Z</time></trkpt>
<trkpt lat="24.651281" lon="109.102108">
<time>2016-10-06T15:58:54Z</time></trkpt>
<trkpt lat="24.651221" lon="109.101939">
<time>2016-10-06T15:58:55Z</time></trkpt>
<trkpt lat="24.651031" lon="109.101439">
<time>2016-10-06T15:58:56Z</time></trkpt>
<trkpt lat="24.650841" lon="109.100959">
<time>2016-10-06T15:58:57Z</time></trkpt>
<trkpt lat="24.650611" lon="109.100369">
<time>2016-10-06T15:58:58Z</time></trkpt>
<trkpt lat="24.650481" lon="109.100029">
<time>2016-10-06T15:58:59Z</time></trkpt>
<trkpt lat="24.65035" lon="109.099669">
<time>2016-10-06T15:59:00Z</time></trkpt>
<trkpt lat="24.65026" lon="109.099439">
<time>2016-10-06T15:59:01Z</time></trkpt>
<trkpt lat="24.65022" lon="109.099309">
<time>2016-10-06T15:59:02Z</time></trkpt>
<trkpt lat="24.65016" lon="109.099139">
<time>2016-10-06T15:59:03Z</time></trkpt>
<trkpt lat="24.64998" lon="109.09859">
<time>2016-10-06T15:59:04Z</time></trkpt>
<trkpt lat="24.64972" lon="109.09783">
<time>2016-10-06T15:59:05Z</time></trkpt>
<trkpt lat="24.64961" lon="109.09752">
<time>2016-10-06T15:59:06Z</time></trkpt>
<trkpt lat="24.64951" lon="109.09727">
<time>2016-10-06T15:59:07Z</time></trkpt>
<trkpt lat="24.64945" lon="109.09714">
<time>2016-10-06T15:59:08Z</time></trkpt>
<trkpt lat="24.6493" lon="109.09682">
<time>2016-10-06T15:59:09Z</time></trkpt>
<trkpt lat="24.64922" lon="109.09665">
<time>2016-10-06T15:59:10Z</time></trkpt>
<trkpt lat="24.64915" lon="109.09649">
<time>2016-10-06T15:59:11Z</time></trkpt>
<trkpt lat="24.64905" lon="109.096291">
<time>2016-10-06T15:59:12Z</time></trkpt>
<trkpt lat="24.64899" lon="109.096141">
<time>2016-10-06T15:59:13Z</time></trkpt>
<trkpt lat="24.64892" lon="109.095941">
<time>2016-10-06T15:59:14Z</time></trkpt>
<trkpt lat="24.64888" lon="109.095831">
<time>2016-10-06T15:59:15Z</time></trkpt>
<trkpt lat="24.64884" lon="109.095701">
<time>2016-10-06T15:59:16Z</time></trkpt>
<trkpt lat="24.64881" lon="109.095591">
<time>2016-10-06T15:59:17Z</time></trkpt>
<trkpt lat="24.6488" lon="109.095511">
<time>2016-10-06T15:59:18Z</time></trkpt>
<trkpt lat="24.6488" lon="109.095431">
<time>2016-10-06T15:59:19Z</time></trkpt>
<trkpt lat="24.6488" lon="109.095371">
<time>2016-10-06T15:59:20Z</time></trkpt>
<trkpt lat="24.64881" lon="109.095291">
<time>2016-10-06T15:59:21Z</time></trkpt>
<trkpt lat="24.64884" lon="109.095211">
<time>2016-10-06T15:59:22Z</time></trkpt>
<trkpt lat="24.64886" lon="109.095151">
<time>2016-10-06T15:59:23Z</time></trkpt>
<trkpt lat="24.64889" lon="109.095071">
<time>2016-10-06T15:59:24Z</time></trkpt>
<trkpt lat="24.64895" lon="109.094981">
<time>2016-10-06T15:59:25Z</time></trkpt>
<trkpt lat="24.64899" lon="109.094901">
<time>2016-10-06T15:59:26Z</time></trkpt>
<trkpt lat="24.64919" lon="109.094561">
<time>2016-10-06T15:59:27Z</time></trkpt>
<trkpt lat="24.64928" lon="109.094352">
<time>2016-10-06T15:59:28Z</time></trkpt>
<trkpt lat="24.6494" lon="109.094112">
<time>2016-10-06T15:59:29Z</time></trkpt>
<trkpt lat="24.64947" lon="109.093942">
<time>2016-10-06T15:59:30Z</time></trkpt>
<trkpt lat="24.64955" lon="109.093712">
<time>2016-10-06T15:59:31Z</time></trkpt>
<trkpt lat="24.6496" lon="109.093552">
<time>2016-10-06T15:59:32Z</time></trkpt>
<trkpt lat="24.64964" lon="109.093362">
<time>2016-10-06T15:59:33Z</time></trkpt>
<trkpt lat="24.64968" lon="109.093182">
<time>2016-10-06T15:59:34Z</time></trkpt>
<trkpt lat="24.64971" lon="109.093012">
<time>2016-10-06T15:59:35Z</time></trkpt>
<trkpt lat="24.64975" lon="109.092762">
<time>2016-10-06T15:59:36Z</time></trkpt>
<trkpt lat="24.64955" lon="109.092333">
<time>2016-10-06T15:59:37Z</time></trkpt>
<trkpt lat="24.64947" lon="109.092193">
<time>2016-10-06T15:59:38Z</time></trkpt>
<trkpt lat="24.64939" lon="109.092043">
<time>2016-10-06T15:59:39Z</time></trkpt>
<trkpt lat="24.64928" lon="109.091843">
<time>2016-10-06T15:59:40Z</time></trkpt>
<trkpt lat="24.6492" lon="109.091673">
<time>2016-10-06T15:59:41Z</time></trkpt>
<trkpt lat="24.64903" lon="109.091393">
<time>2016-10-06T15:59:42Z</time></trkpt>
<trkpt lat="24.64863" lon="109.090734">
<time>2016-10-06T15:59:43Z</time></trkpt>
<trkpt lat="24.64839" lon="109.090314">
<time>2016-10-06T15:59:44Z</time></trkpt>
<trkpt lat="24.64826" lon="109.090064">
<time>2016-10-06T15:59:45Z</time></trkpt>
<trkpt lat="24.64814" lon="109.089845">
<time>2016-10-06T15:59:46Z</time></trkpt>
<trkpt lat="24.64809" lon="109.089735">
<time>2016-10-06T15:59:47Z</time></trkpt>
<trkpt lat="24.64805" lon="109.089625">
<time>2016-10-06T15:59:48Z</time></trkpt>
<trkpt lat="24.64804" lon="109.089525">
<time>2016-10-06T15:59:49Z</time></trkpt>
<trkpt lat="24.64803" lon="109.089405">
<time>2016-10-06T15:59:50Z</time></trkpt>
<trkpt lat="24.64802" lon="109.089255">
<time>2016-10-06T15:59:51Z</time></trkpt>
<trkpt lat="24.64803" lon="109.089005">
<time>2016-10-06T15:59:52Z</time></trkpt>
<trkpt lat="24.64808" lon="109.088336">
<time>2016-10-06T15:59:53Z</time></trkpt>
<trkpt lat="24.64811" lon="109.087706">
<time>2016-10-06T15:59:54Z</time></trkpt>
<trkpt lat="24.6481" lon="109.087606">
<time>2016-10-06T15:59:55Z</time></trkpt>
<trkpt lat="24.64809" lon="109.087527">
<time>2016-10-06T15:59:56Z</time></trkpt>
<trkpt lat="24.64807" lon="109.087467">
<time>2016-10-06T15:59:57Z</time></trkpt>
<trkpt lat="24.64806" lon="109.087447">
<time>2016-10-06T15:59:58Z</time></trkpt>
<trkpt lat="24.648031" lon="109.087367">
<time>2016-10-06T15:59:59Z</time></trkpt>
<trkpt lat="24.647981" lon="109.087297">
<time>2016-10-06T16:00:00Z</time></trkpt>
<trkpt lat="24.647941" lon="109.087247">
<time>2016-10-06T16:00:01Z</time></trkpt>
<trkpt lat="24.647881" lon="109.087197">
<time>2016-10-06T16:00:02Z</time></trkpt>
<trkpt lat="24.647851" lon="109.087177">
<time>2016-10-06T16:00:03Z</time></trkpt>
<trkpt lat="24.647791" lon="109.087127">
<time>2016-10-06T16:00:04Z</time></trkpt>
<trkpt lat="24.647651" lon="109.087017">
<time>2016-10-06T16:00:05Z</time></trkpt>
<trkpt lat="24.647551" lon="109.086957">
<time>2016-10-06T16:00:06Z</time></trkpt>
<trkpt lat="24.647471" lon="109.086907">
<time>2016-10-06T16:00:07Z</time></trkpt>
<trkpt lat="24.647411" lon="109.086877">
<time>2016-10-06T16:00:08Z</time></trkpt>
<trkpt lat="24.647311" lon="109.086827">
<time>2016-10-06T16:00:09Z</time></trkpt>
<trkpt lat="24.647221" lon="109.086787">
<time>2016-10-06T16:00:10Z</time></trkpt>
<trkpt lat="24.647211" lon="109.086787">
<time>2016-10-06T16:00:11Z</time></trkpt>
<trkpt lat="24.647111" lon="109.086757">
<time>2016-10-06T16:00:12Z</time></trkpt>
<trkpt lat="24.647001" lon="109.086727">
<time>2016-10-06T16:00:13Z</time></trkpt>
<trkpt lat="24.646871" lon="109.086707">
<time>2016-10-06T16:00:14Z</time></trkpt>
<trkpt lat="24.646651" lon="109.086667">
<time>2016-10-06T16:00:15Z</time></trkpt>
<trkpt lat="24.646531" lon="109.086647">
<time>2016-10-06T16:00:16Z</time></trkpt>
<trkpt lat="24.646461" lon="109.086617">
<time>2016-10-06T16:00:17Z</time></trkpt>
<trkpt lat="24.646411" lon="109.086588">
<time>2016-10-06T16:00:18Z</time></trkpt>
<trkpt lat="24.646371" lon="109.086568">
<time>2016-10-06T16:00:19Z</time></trkpt>
<trkpt lat="24.646331" lon="109.086528">
<time>2016-10-06T16:00:20Z</time></trkpt>
<trkpt lat="24.646291" lon="109.086478">
<time>2016-10-06T16:00:21Z</time></trkpt>
<trkpt lat="24.646251" lon="109.086428">
<time>2016-10-06T16:00:22Z</time></trkpt>
<trkpt lat="24.646231" lon="109.086368">
<time>2016-10-06T16:00:23Z</time></trkpt>
<trkpt lat="24.646201" lon="109.086288">
<time>2016-10-06T16:00:24Z</time></trkpt>
<trkpt lat="24.646181" lon="109.086228">
<time>2016-10-06T16:00:25Z</time></trkpt>
<trkpt lat="24.646161" lon="109.086118">
<time>2016-10-06T16:00:26Z</time></trkpt>
<trkpt lat="24.646141" lon="109.086018">
<time>2016-10-06T16:00:27Z</time></trkpt>
<trkpt lat="24.646091" lon="109.085638">
<time>2016-10-06T16:00:28Z</time></trkpt>
<trkpt lat="24.646071" lon="109.085449">
<time>2016-10-06T16:00:29Z</time></trkpt>
<trkpt lat="24.646041" lon="109.085209">
<time>2016-10-06T16:00:30Z</time></trkpt>
<trkpt lat="24.645981" lon="109.084769">
<time>2016-10-06T16:00:31Z</time></trkpt>
<trkpt lat="24.645842" lon="109.0839">
<time>2016-10-06T16:00:32Z</time></trkpt>
<trkpt lat="24.645752" lon="109.083191">
<time>2016-10-06T16:00:33Z</time></trkpt>
<trkpt lat="24.645682" lon="109.082682">
<time>2016-10-06T16:00:34Z</time></trkpt>
<trkpt lat="24.645603" lon="109.082132">
<time>2016-10-06T16:00:35Z</time></trkpt>
<trkpt lat="24.645573" lon="109.081833">
<time>2016-10-06T16:00:36Z</time></trkpt>
<trkpt lat="24.645553" lon="109.081593">
<time>2016-10-06T16:00:37Z</time></trkpt>
<trkpt lat="24.645543" lon="109.081373">
<time>2016-10-06T16:00:38Z</time></trkpt>
<trkpt lat="24.645533" lon="109.080974">
<time>2016-10-06T16:00:39Z</time></trkpt>
<trkpt lat="24.645554" lon="109.080235">
<time>2016-10-06T16:00:40Z</time></trkpt>
<trkpt lat="24.645584" lon="109.079336">
<time>2016-10-06T16:00:41Z</time></trkpt>
<trkpt lat="24.645594" lon="109.079046">
<time>2016-10-06T16:00:42Z</time></trkpt>
<trkpt lat="24.645605" lon="109.078637">
<time>2016-10-06T16:00:43Z</time></trkpt>
<trkpt lat="24.645635" lon="109.078397">
<time>2016-10-06T16:00:44Z</time></trkpt>
<trkpt lat="24.645725" lon="109.077828">
<time>2016-10-06T16:00:45Z</time></trkpt>
<trkpt lat="24.645916" lon="109.076749">
<time>2016-10-06T16:00:46Z</time></trkpt>
<trkpt lat="24.646067" lon="109.0759">
<time>2016-10-06T16:00:47Z</time></trkpt>
<trkpt lat="24.646077" lon="109.075781">
<time>2016-10-06T16:00:48Z</time></trkpt>
<trkpt lat="24.646087" lon="109.075671">
<time>2016-10-06T16:00:49Z</time></trkpt>
<trkpt lat="24.646097" lon="109.075471">
<time>2016-10-06T16:00:50Z</time></trkpt>
<trkpt lat="24.646077" lon="109.075072">
<time>2016-10-06T16:00:51Z</time></trkpt>
<trkpt lat="24.646088" lon="109.074752">
<time>2016-10-06T16:00:52Z</time></trkpt>
<trkpt lat="24.646098" lon="109.074493">
<time>2016-10-06T16:00:53Z</time></trkpt>
<trkpt lat="24.646118" lon="109.074273">
<time>2016-10-06T16:00:54Z</time></trkpt>
<trkpt lat="24.646239" lon="109.073175">
<time>2016-10-06T16:00:55Z</time></trkpt>
<trkpt lat="24.6463" lon="109.072635">
<time>2016-10-06T16:00:56Z</time></trkpt>
<trkpt lat="24.64633" lon="109.072356">
<time>2016-10-06T16:00:57Z</time></trkpt>
<trkpt lat="24.64637" lon="109.071977">
<time>2016-10-06T16:00:58Z</time></trkpt>
<trkpt lat="24.6464" lon="109.071807">
<time>2016-10-06T16:00:59Z</time></trkpt>
<trkpt lat="24.646451" lon="109.071627">
<time>2016-10-06T16:01:00Z</time></trkpt>
<trkpt lat="24.646511" lon="109.071427">
<time>2016-10-06T16:01:01Z</time></trkpt>
<trkpt lat="24.646711" lon="109.070888">
<time>2016-10-06T16:01:02Z</time></trkpt>
<trkpt lat="24.646842" lon="109.070539">
<time>2016-10-06T16:01:03Z</time></trkpt>
<trkpt lat="24.646922" lon="109.070249">
<time>2016-10-06T16:01:04Z</time></trkpt>
<trkpt lat="24.646962" lon="109.07011">
<time>2016-10-06T16:01:05Z</time></trkpt>
<trkpt lat="24.646982" lon="109.06997">
<time>2016-10-06T16:01:06Z</time></trkpt>
<trkpt lat="24.647002" lon="109.06986">
<time>2016-10-06T16:01:07Z</time></trkpt>
<trkpt lat="24.647002" lon="109.06978">
<time>2016-10-06T16:01:08Z</time></trkpt>
<trkpt lat="24.647003" lon="109.06968">
<time>2016-10-06T16:01:09Z</time></trkpt>
<trkpt lat="24.647003" lon="109.069561">
<time>2016-10-06T16:01:10Z</time></trkpt>
<trkpt lat="24.646993" lon="109.069461">
<time>2016-10-06T16:01:11Z</time></trkpt>
<trkpt lat="24.646973" lon="109.069341">
<time>2016-10-06T16:01:12Z</time></trkpt>
<trkpt lat="24.646953" lon="109.069191">
<time>2016-10-06T16:01:13Z</time></trkpt>
<trkpt lat="24.646923" lon="109.069022">
<time>2016-10-06T16:01:14Z</time></trkpt>
<trkpt lat="24.646864" lon="109.068792">
<time>2016-10-06T16:01:15Z</time></trkpt>
<trkpt lat="24.646694" lon="109.068203">
<time>2016-10-06T16:01:16Z</time></trkpt>
<trkpt lat="24.646595" lon="109.067854">
<time>2016-10-06T16:01:17Z</time></trkpt>
<trkpt lat="24.646455" lon="109.067425">
<time>2016-10-06T16:01:18Z</time></trkpt>
<trkpt lat="24.646355" lon="109.067105">
<time>2016-10-06T16:01:19Z</time></trkpt>
<trkpt lat="24.646196" lon="109.066656">
<time>2016-10-06T16:01:20Z</time></trkpt>
<trkpt lat="24.646007" lon="109.066157">
<time>2016-10-06T16:01:21Z</time></trkpt>
<trkpt lat="24.645967" lon="109.066007">
<time>2016-10-06T16:01:22Z</time></trkpt>
<trkpt lat="24.645927" lon="109.065868">
<time>2016-10-06T16:01:23Z</time></trkpt>
<trkpt lat="24.645897" lon="109.065698">
<time>2016-10-06T16:01:24Z</time></trkpt>
<trkpt lat="24.645877" lon="109.065538">
<time>2016-10-06T16:01:25Z</time></trkpt>
<trkpt lat="24.645868" lon="109.065419">
<time>2016-10-06T16:01:26Z</time></trkpt>
<trkpt lat="24.645858" lon="109.065339">
<time>2016-10-06T16:01:27Z</time></trkpt>
<trkpt lat="24.645848" lon="109.065249">
<time>2016-10-06T16:01:28Z</time></trkpt>
<trkpt lat="24.645858" lon="109.065129">
<time>2016-10-06T16:01:29Z</time></trkpt>
<trkpt lat="24.645858" lon="109.065019">
<time>2016-10-06T16:01:30Z</time></trkpt>
<trkpt lat="24.645878" lon="109.06492">
<time>2016-10-06T16:01:31Z</time></trkpt>
<trkpt lat="24.645898" lon="109.06473">
<time>2016-10-06T16:01:32Z</time></trkpt>
<trkpt lat="24.645949" lon="109.064361">
<time>2016-10-06T16:01:33Z</time></trkpt>
<trkpt lat="24.645959" lon="109.064161">
<time>2016-10-06T16:01:34Z</time></trkpt>
<trkpt lat="24.64596" lon="109.063832">
<time>2016-10-06T16:01:35Z</time></trkpt>
<trkpt lat="24.64594" lon="109.063443">
<time>2016-10-06T16:01:36Z</time></trkpt>
<trkpt lat="24.64593" lon="109.063203">
<time>2016-10-06T16:01:37Z</time></trkpt>
<trkpt lat="24.645911" lon="109.062804">
<time>2016-10-06T16:01:38Z</time></trkpt>
<trkpt lat="24.645881" lon="109.062485">
<time>2016-10-06T16:01:39Z</time></trkpt>
<trkpt lat="24.645872" lon="109.062395">
<time>2016-10-06T16:01:40Z</time></trkpt>
<trkpt lat="24.645872" lon="109.062185">
<time>2016-10-06T16:01:41Z</time></trkpt>
<trkpt lat="24.645852" lon="109.061946">
<time>2016-10-06T16:01:42Z</time></trkpt>
<trkpt lat="24.645832" lon="109.061766">
<time>2016-10-06T16:01:43Z</time></trkpt>
<trkpt lat="24.645823" lon="109.061686">
<time>2016-10-06T16:01:44Z</time></trkpt>
<trkpt lat="24.645803" lon="109.061576">
<time>2016-10-06T16:01:45Z</time></trkpt>
<trkpt lat="24.645763" lon="109.061397">
<time>2016-10-06T16:01:46Z</time></trkpt>
<trkpt lat="24.645723" lon="109.061237">
<time>2016-10-06T16:01:47Z</time></trkpt>
<trkpt lat="24.645614" lon="109.060888">
<time>2016-10-06T16:01:48Z</time></trkpt>
<trkpt lat="24.645315" lon="109.06003">
<time>2016-10-06T16:01:49Z</time></trkpt>
<trkpt lat="24.645166" lon="109.059631">
<time>2016-10-06T16:01:50Z</time></trkpt>
<trkpt lat="24.645066" lon="109.059332">
<time>2016-10-06T16:01:51Z</time></trkpt>
<trkpt lat="24.645026" lon="109.059202">
<time>2016-10-06T16:01:52Z</time></trkpt>
<trkpt lat="24.644976" lon="109.059042">
<time>2016-10-06T16:01:53Z</time></trkpt>
<trkpt lat="24.644937" lon="109.058912">
<time>2016-10-06T16:01:54Z</time></trkpt>
<trkpt lat="24.644897" lon="109.058773">
<time>2016-10-06T16:01:55Z</time></trkpt>
<trkpt lat="24.644837" lon="109.058573">
<time>2016-10-06T16:01:56Z</time></trkpt>
<trkpt lat="24.644817" lon="109.058493">
<time>2016-10-06T16:01:57Z</time></trkpt>
<trkpt lat="24.644768" lon="109.058374">
<time>2016-10-06T16:01:58Z</time></trkpt>
<trkpt lat="24.644718" lon="109.058264">
<time>2016-10-06T16:01:59Z</time></trkpt>
<trkpt lat="24.644658" lon="109.058154">
<time>2016-10-06T16:02:00Z</time></trkpt>
<trkpt lat="24.644279" lon="109.057516">
<time>2016-10-06T16:02:01Z</time></trkpt>
<trkpt lat="24.64394" lon="109.056947">
<time>2016-10-06T16:02:02Z</time></trkpt>
<trkpt lat="24.643641" lon="109.056418">
<time>2016-10-06T16:02:03Z</time></trkpt>
<trkpt lat="24.643461" lon="109.056099">
<time>2016-10-06T16:02:04Z</time></trkpt>
<trkpt lat="24.643341" lon="109.0559">
<time>2016-10-06T16:02:05Z</time></trkpt>
<trkpt lat="24.643302" lon="109.05584">
<time>2016-10-06T16:02:06Z</time></trkpt>
<trkpt lat="24.643272" lon="109.05579">
<time>2016-10-06T16:02:07Z</time></trkpt>
<trkpt lat="24.643242" lon="109.05574">
<time>2016-10-06T16:02:08Z</time></trkpt>
<trkpt lat="24.643192" lon="109.05569">
<time>2016-10-06T16:02:09Z</time></trkpt>
<trkpt lat="24.643142" lon="109.05564">
<time>2016-10-06T16:02:10Z</time></trkpt>
<trkpt lat="24.643052" lon="109.055541">
<time>2016-10-06T16:02:11Z</time></trkpt>
<trkpt lat="24.642992" lon="109.055471">
<time>2016-10-06T16:02:12Z</time></trkpt>
<trkpt lat="24.642863" lon="109.055271">
<time>2016-10-06T16:02:13Z</time></trkpt>
<trkpt lat="24.642733" lon="109.055032">
<time>2016-10-06T16:02:14Z</time></trkpt>
<trkpt lat="24.642633" lon="109.054812">
<time>2016-10-06T16:02:15Z</time></trkpt>
<trkpt lat="24.642554" lon="109.054623">
<time>2016-10-06T16:02:16Z</time></trkpt>
<trkpt lat="24.642464" lon="109.054334">
<time>2016-10-06T16:02:17Z</time></trkpt>
<trkpt lat="24.642404" lon="109.054144">
<time>2016-10-06T16:02:18Z</time></trkpt>
<trkpt lat="24.642266" lon="109.053536">
<time>2016-10-06T16:02:19Z</time></trkpt>
<trkpt lat="24.642206" lon="109.053256">
<time>2016-10-06T16:02:20Z</time></trkpt>
<trkpt lat="24.642186" lon="109.053137">
<time>2016-10-06T16:02:21Z</time></trkpt>
<trkpt lat="24.642157" lon="109.052957">
<time>2016-10-06T16:02:22Z</time></trkpt>
<trkpt lat="24.642147" lon="109.052778">
<time>2016-10-06T16:02:23Z</time></trkpt>
<trkpt lat="24.642127" lon="109.052638">
<time>2016-10-06T16:02:24Z</time></trkpt>
<trkpt lat="24.642117" lon="109.052438">
<time>2016-10-06T16:02:25Z</time></trkpt>
<trkpt lat="24.642088" lon="109.052289">
<time>2016-10-06T16:02:26Z</time></trkpt>
<trkpt lat="24.642058" lon="109.052119">
<time>2016-10-06T16:02:27Z</time></trkpt>
<trkpt lat="24.642008" lon="109.05197">
<time>2016-10-06T16:02:28Z</time></trkpt>
<trkpt lat="24.641969" lon="109.05185">
<time>2016-10-06T16:02:29Z</time></trkpt>
<trkpt lat="24.641909" lon="109.05172">
<time>2016-10-06T16:02:30Z</time></trkpt>
<trkpt lat="24.641849" lon="109.051591">
<time>2016-10-06T16:02:31Z</time></trkpt>
<trkpt lat="24.64172" lon="109.051311">
<time>2016-10-06T16:02:32Z</time></trkpt>
<trkpt lat="24.64167" lon="109.051192">
<time>2016-10-06T16:02:33Z</time></trkpt>
<trkpt lat="24.64162" lon="109.051062">
<time>2016-10-06T16:02:34Z</time></trkpt>
<trkpt lat="24.64159" lon="109.050952">
<time>2016-10-06T16:02:35Z</time></trkpt>
<trkpt lat="24.641501" lon="109.050573">
<time>2016-10-06T16:02:36Z</time></trkpt>
<trkpt lat="24.641402" lon="109.050164">
<time>2016-10-06T16:02:37Z</time></trkpt>
<trkpt lat="24.641253" lon="109.049656">
<time>2016-10-06T16:02:38Z</time></trkpt>
<trkpt lat="24.641153" lon="109.049307">
<time>2016-10-06T16:02:39Z</time></trkpt>
<trkpt lat="24.641114" lon="109.049137">
<time>2016-10-06T16:02:40Z</time></trkpt>
<trkpt lat="24.641084" lon="109.049067">
<time>2016-10-06T16:02:41Z</time></trkpt>
<trkpt lat="24.641054" lon="109.049027">
<time>2016-10-06T16:02:42Z</time></trkpt>
<trkpt lat="24.641024" lon="109.048978">
<time>2016-10-06T16:02:43Z</time></trkpt>
<trkpt lat="24.640974" lon="109.048918">
<time>2016-10-06T16:02:44Z</time></trkpt>
<trkpt lat="24.640934" lon="109.048858">
<time>2016-10-06T16:02:45Z</time></trkpt>
<trkpt lat="24.640814" lon="109.048728">
<time>2016-10-06T16:02:46Z</time></trkpt>
<trkpt lat="24.640675" lon="109.048569">
<time>2016-10-06T16:02:47Z</time></trkpt>
<trkpt lat="24.640475" lon="109.04829">
<time>2016-10-06T16:02:48Z</time></trkpt>
<trkpt lat="24.640286" lon="109.04803">
<time>2016-10-06T16:02:49Z</time></trkpt>
<trkpt lat="24.640046" lon="109.047741">
<time>2016-10-06T16:02:50Z</time></trkpt>
<trkpt lat="24.639877" lon="109.047532">
<time>2016-10-06T16:02:51Z</time></trkpt>
<trkpt lat="24.639807" lon="109.047422">
<time>2016-10-06T16:02:52Z</time></trkpt>
<trkpt lat="24.639677" lon="109.047233">
<time>2016-10-06T16:02:53Z</time></trkpt>
<trkpt lat="24.639558" lon="109.047073">
<time>2016-10-06T16:02:54Z</time></trkpt>
<trkpt lat="24.639458" lon="109.046933">
<time>2016-10-06T16:02:55Z</time></trkpt>
<trkpt lat="24.639388" lon="109.046854">
<time>2016-10-06T16:02:56Z</time></trkpt>
<trkpt lat="24.639318" lon="109.046774">
<time>2016-10-06T16:02:57Z</time></trkpt>
<trkpt lat="24.639248" lon="109.046724">
<time>2016-10-06T16:02:58Z</time></trkpt>
<trkpt lat="24.639199" lon="109.046674">
<time>2016-10-06T16:02:59Z</time></trkpt>
<trkpt lat="24.639119" lon="109.046614">
<time>2016-10-06T16:03:00Z</time></trkpt>
<trkpt lat="24.639019" lon="109.046554">
<time>2016-10-06T16:03:01Z</time></trkpt>
<trkpt lat="24.638909" lon="109.046475">
<time>2016-10-06T16:03:02Z</time></trkpt>
<trkpt lat="24.638739" lon="109.046375">
<time>2016-10-06T16:03:03Z</time></trkpt>
<trkpt lat="24.638639" lon="109.046325">
<time>2016-10-06T16:03:04Z</time></trkpt>
<trkpt lat="24.63809" lon="109.046106">
<time>2016-10-06T16:03:05Z</time></trkpt>
<trkpt lat="24.638" lon="109.046046">
<time>2016-10-06T16:03:06Z</time></trkpt>
<trkpt lat="24.63791" lon="109.045966">
<time>2016-10-06T16:03:07Z</time></trkpt>
<trkpt lat="24.63784" lon="109.045886">
<time>2016-10-06T16:03:08Z</time></trkpt>
<trkpt lat="24.63776" lon="109.045777">
<time>2016-10-06T16:03:09Z</time></trkpt>
<trkpt lat="24.637671" lon="109.045647">
<time>2016-10-06T16:03:10Z</time></trkpt>
<trkpt lat="24.637591" lon="109.045508">
<time>2016-10-06T16:03:11Z</time></trkpt>
<trkpt lat="24.637511" lon="109.045358">
<time>2016-10-06T16:03:12Z</time></trkpt>
<trkpt lat="24.637471" lon="109.045218">
<time>2016-10-06T16:03:13Z</time></trkpt>
<trkpt lat="24.637412" lon="109.045009">
<time>2016-10-06T16:03:14Z</time></trkpt>
<trkpt lat="24.637402" lon="109.044909">
<time>2016-10-06T16:03:15Z</time></trkpt>
<trkpt lat="24.637382" lon="109.044839">
<time>2016-10-06T16:03:16Z</time></trkpt>
<trkpt lat="24.637382" lon="109.04474">
<time>2016-10-06T16:03:17Z</time></trkpt>
<trkpt lat="24.637383" lon="109.04464">
<time>2016-10-06T16:03:18Z</time></trkpt>
<trkpt lat="24.637403" lon="109.044261">
<time>2016-10-06T16:03:19Z</time></trkpt>
<trkpt lat="24.637394" lon="109.044181">
<time>2016-10-06T16:03:20Z</time></trkpt>
<trkpt lat="24.637384" lon="109.044122">
<time>2016-10-06T16:03:21Z</time></trkpt>
<trkpt lat="24.637364" lon="109.044072">
<time>2016-10-06T16:03:22Z</time></trkpt>
<trkpt lat="24.637344" lon="109.044012">
<time>2016-10-06T16:03:23Z</time></trkpt>
<trkpt lat="24.637324" lon="109.043962">
<time>2016-10-06T16:03:24Z</time></trkpt>
<trkpt lat="24.637234" lon="109.043812">
<time>2016-10-06T16:03:25Z</time></trkpt>
<trkpt lat="24.637165" lon="109.043673">
<time>2016-10-06T16:03:26Z</time></trkpt>
<trkpt lat="24.637135" lon="109.043603">
<time>2016-10-06T16:03:27Z</time></trkpt>
<trkpt lat="24.637105" lon="109.043503">
<time>2016-10-06T16:03:28Z</time></trkpt>
<trkpt lat="24.637085" lon="109.043394">
<time>2016-10-06T16:03:29Z</time></trkpt>
<trkpt lat="24.637066" lon="109.043224">
<time>2016-10-06T16:03:30Z</time></trkpt>
<trkpt lat="24.637046" lon="109.043025">
<time>2016-10-06T16:03:31Z</time></trkpt>
<trkpt lat="24.637026" lon="109.042895">
<time>2016-10-06T16:03:32Z</time></trkpt>
<trkpt lat="24.636997" lon="109.042736">
<time>2016-10-06T16:03:33Z</time></trkpt>
<trkpt lat="24.636957" lon="109.042536">
<time>2016-10-06T16:03:34Z</time></trkpt>
<trkpt lat="24.636928" lon="109.042367">
<time>2016-10-06T16:03:35Z</time></trkpt>
<trkpt lat="24.636908" lon="109.042227">
<time>2016-10-06T16:03:36Z</time></trkpt>
<trkpt lat="24.636898" lon="109.042127">
<time>2016-10-06T16:03:37Z</time></trkpt>
<trkpt lat="24.636898" lon="109.041998">
<time>2016-10-06T16:03:38Z</time></trkpt>
<trkpt lat="24.636909" lon="109.041788">
<time>2016-10-06T16:03:39Z</time></trkpt>
<trkpt lat="24.636929" lon="109.041529">
<time>2016-10-06T16:03:40Z</time></trkpt>
<trkpt lat="24.63696" lon="109.0414">
<time>2016-10-06T16:03:41Z</time></trkpt>
<trkpt lat="24.63698" lon="109.04131">
<time>2016-10-06T16:03:42Z</time></trkpt>
<trkpt lat="24.63701" lon="109.04122">
<time>2016-10-06T16:03:43Z</time></trkpt>
<trkpt lat="24.63703" lon="109.04113">
<time>2016-10-06T16:03:44Z</time></trkpt>
<trkpt lat="24.63704" lon="109.041051">
<time>2016-10-06T16:03:45Z</time></trkpt>
<trkpt lat="24.637081" lon="109.040811">
<time>2016-10-06T16:03:46Z</time></trkpt>
<trkpt lat="24.637091" lon="109.040722">
<time>2016-10-06T16:03:47Z</time></trkpt>
<trkpt lat="24.637111" lon="109.040662">
<time>2016-10-06T16:03:48Z</time></trkpt>
<trkpt lat="24.637131" lon="109.040602">
<time>2016-10-06T16:03:49Z</time></trkpt>
<trkpt lat="24.637152" lon="109.040552">
<time>2016-10-06T16:03:50Z</time></trkpt>
<trkpt lat="24.637182" lon="109.040512">
<time>2016-10-06T16:03:51Z</time></trkpt>
<trkpt lat="24.637212" lon="109.040472">
<time>2016-10-06T16:03:52Z</time></trkpt>
<trkpt lat="24.637252" lon="109.040423">
<time>2016-10-06T16:03:53Z</time></trkpt>
<trkpt lat="24.637292" lon="109.040383">
<time>2016-10-06T16:03:54Z</time></trkpt>
<trkpt lat="24.637332" lon="109.040353">
<time>2016-10-06T16:03:55Z</time></trkpt>
<trkpt lat="24.637372" lon="109.040323">
<time>2016-10-06T16:03:56Z</time></trkpt>
<trkpt lat="24.637412" lon="109.040293">
<time>2016-10-06T16:03:57Z</time></trkpt>
<trkpt lat="24.637602" lon="109.040213">
<time>2016-10-06T16:03:58Z</time></trkpt>
<trkpt lat="24.637642" lon="109.040183">
<time>2016-10-06T16:03:59Z</time></trkpt>
<trkpt lat="24.637682" lon="109.040143">
<time>2016-10-06T16:04:00Z</time></trkpt>
<trkpt lat="24.637703" lon="109.040114">
<time>2016-10-06T16:04:01Z</time></trkpt>
<trkpt lat="24.637723" lon="109.040084">
<time>2016-10-06T16:04:02Z</time></trkpt>
<trkpt lat="24.637743" lon="109.040034">
<time>2016-10-06T16:04:03Z</time></trkpt>
<trkpt lat="24.637763" lon="109.039994">
<time>2016-10-06T16:04:04Z</time></trkpt>
<trkpt lat="24.637763" lon="109.039934">
<time>2016-10-06T16:04:05Z</time></trkpt>
<trkpt lat="24.637763" lon="109.039874">
<time>2016-10-06T16:04:06Z</time></trkpt>
<trkpt lat="24.637763" lon="109.039804">
<time>2016-10-06T16:04:07Z</time></trkpt>
<trkpt lat="24.637704" lon="109.039535">
<time>2016-10-06T16:04:08Z</time></trkpt>
<trkpt lat="24.637655" lon="109.039246">
<time>2016-10-06T16:04:09Z</time></trkpt>
<trkpt lat="24.637625" lon="109.039087">
<time>2016-10-06T16:04:10Z</time></trkpt>
<trkpt lat="24.637605" lon="109.038917">
<time>2016-10-06T16:04:11Z</time></trkpt>
<trkpt lat="24.637586" lon="109.038798">
<time>2016-10-06T16:04:12Z</time></trkpt>
<trkpt lat="24.637566" lon="109.038518">
<time>2016-10-06T16:04:13Z</time></trkpt>
<trkpt lat="24.637537" lon="109.03803">
<time>2016-10-06T16:04:14Z</time></trkpt>
<trkpt lat="24.637528" lon="109.037831">
<time>2016-10-06T16:04:15Z</time></trkpt>
<trkpt lat="24.637518" lon="109.037532">
<time>2016-10-06T16:04:16Z</time></trkpt>
<trkpt lat="24.637499" lon="109.037223">
<time>2016-10-06T16:04:17Z</time></trkpt>
<trkpt lat="24.63748" lon="109.036864">
<time>2016-10-06T16:04:18Z</time></trkpt>
<trkpt lat="24.637471" lon="109.036565">
<time>2016-10-06T16:04:19Z</time></trkpt>
<trkpt lat="24.637471" lon="109.036306">
<time>2016-10-06T16:04:20Z</time></trkpt>
<trkpt lat="24.637472" lon="109.036196">
<time>2016-10-06T16:04:21Z</time></trkpt>
<trkpt lat="24.637472" lon="109.036066">
<time>2016-10-06T16:04:22Z</time></trkpt>
<trkpt lat="24.637482" lon="109.035987">
<time>2016-10-06T16:04:23Z</time></trkpt>
<trkpt lat="24.637502" lon="109.035887">
<time>2016-10-06T16:04:24Z</time></trkpt>
<trkpt lat="24.637523" lon="109.035727">
<time>2016-10-06T16:04:25Z</time></trkpt>
<trkpt lat="24.637574" lon="109.035388">
<time>2016-10-06T16:04:26Z</time></trkpt>
<trkpt lat="24.637665" lon="109.03482">
<time>2016-10-06T16:04:27Z</time></trkpt>
<trkpt lat="24.637686" lon="109.034601">
<time>2016-10-06T16:04:28Z</time></trkpt>
<trkpt lat="24.637686" lon="109.034362">
<time>2016-10-06T16:04:29Z</time></trkpt>
<trkpt lat="24.637677" lon="109.033993">
<time>2016-10-06T16:04:30Z</time></trkpt>
<trkpt lat="24.637668" lon="109.033714">
<time>2016-10-06T16:04:31Z</time></trkpt>
<trkpt lat="24.637659" lon="109.033375">
<time>2016-10-06T16:04:32Z</time></trkpt>
<trkpt lat="24.637639" lon="109.033086">
<time>2016-10-06T16:04:33Z</time></trkpt>
<trkpt lat="24.63762" lon="109.032867">
<time>2016-10-06T16:04:34Z</time></trkpt>
<trkpt lat="24.63759" lon="109.032628">
<time>2016-10-06T16:04:35Z</time></trkpt>
<trkpt lat="24.637561" lon="109.032448">
<time>2016-10-06T16:04:36Z</time></trkpt>
<trkpt lat="24.637531" lon="109.032309">
<time>2016-10-06T16:04:37Z</time></trkpt>
<trkpt lat="24.637502" lon="109.032159">
<time>2016-10-06T16:04:38Z</time></trkpt>
<trkpt lat="24.637452" lon="109.03198">
<time>2016-10-06T16:04:39Z</time></trkpt>
<trkpt lat="24.637393" lon="109.03175">
<time>2016-10-06T16:04:40Z</time></trkpt>
<trkpt lat="24.637323" lon="109.031531">
<time>2016-10-06T16:04:41Z</time></trkpt>
<trkpt lat="24.637274" lon="109.031352">
<time>2016-10-06T16:04:42Z</time></trkpt>
<trkpt lat="24.637214" lon="109.031063">
<time>2016-10-06T16:04:43Z</time></trkpt>
<trkpt lat="24.637135" lon="109.030664">
<time>2016-10-06T16:04:44Z</time></trkpt>
<trkpt lat="24.637066" lon="109.030275">
<time>2016-10-06T16:04:45Z</time></trkpt>
<trkpt lat="24.636898" lon="109.029548">
<time>2016-10-06T16:04:46Z</time></trkpt>
<trkpt lat="24.636898" lon="109.029518">
<time>2016-10-06T16:04:47Z</time></trkpt>
<trkpt lat="24.636701" lon="109.028601">
<time>2016-10-06T16:04:48Z</time></trkpt>
<trkpt lat="24.636562" lon="109.027934">
<time>2016-10-06T16:04:49Z</time></trkpt>
<trkpt lat="24.636513" lon="109.027575">
<time>2016-10-06T16:04:50Z</time></trkpt>
<trkpt lat="24.636455" lon="109.027037">
<time>2016-10-06T16:04:51Z</time></trkpt>
<trkpt lat="24.636445" lon="109.026758">
<time>2016-10-06T16:04:52Z</time></trkpt>
<trkpt lat="24.636446" lon="109.026499">
<time>2016-10-06T16:04:53Z</time></trkpt>
<trkpt lat="24.636447" lon="109.026279">
<time>2016-10-06T16:04:54Z</time></trkpt>
<trkpt lat="24.636447" lon="109.02614">
<time>2016-10-06T16:04:55Z</time></trkpt>
<trkpt lat="24.636437" lon="109.02604">
<time>2016-10-06T16:04:56Z</time></trkpt>
<trkpt lat="24.636428" lon="109.02596">
<time>2016-10-06T16:04:57Z</time></trkpt>
<trkpt lat="24.636408" lon="109.025901">
<time>2016-10-06T16:04:58Z</time></trkpt>
<trkpt lat="24.636388" lon="109.025821">
<time>2016-10-06T16:04:59Z</time></trkpt>
<trkpt lat="24.636368" lon="109.025731">
<time>2016-10-06T16:05:00Z</time></trkpt>
<trkpt lat="24.636348" lon="109.025661">
<time>2016-10-06T16:05:01Z</time></trkpt>
<trkpt lat="24.636309" lon="109.025562">
<time>2016-10-06T16:05:02Z</time></trkpt>
<trkpt lat="24.636269" lon="109.025462">
<time>2016-10-06T16:05:03Z</time></trkpt>
<trkpt lat="24.636219" lon="109.025353">
<time>2016-10-06T16:05:04Z</time></trkpt>
<trkpt lat="24.636" lon="109.024874">
<time>2016-10-06T16:05:05Z</time></trkpt>
<trkpt lat="24.635722" lon="109.024256">
<time>2016-10-06T16:05:06Z</time></trkpt>
<trkpt lat="24.635464" lon="109.023728">
<time>2016-10-06T16:05:07Z</time></trkpt>
<trkpt lat="24.635285" lon="109.02334">
<time>2016-10-06T16:05:08Z</time></trkpt>
<trkpt lat="24.635205" lon="109.02317">
<time>2016-10-06T16:05:09Z</time></trkpt>
<trkpt lat="24.635146" lon="109.023001">
<time>2016-10-06T16:05:10Z</time></trkpt>
<trkpt lat="24.635096" lon="109.022822">
<time>2016-10-06T16:05:11Z</time></trkpt>
<trkpt lat="24.635037" lon="109.022543">
<time>2016-10-06T16:05:12Z</time></trkpt>
<trkpt lat="24.634859" lon="109.021686">
<time>2016-10-06T16:05:13Z</time></trkpt>
<trkpt lat="24.634791" lon="109.021188">
<time>2016-10-06T16:05:14Z</time></trkpt>
<trkpt lat="24.634742" lon="109.020749">
<time>2016-10-06T16:05:15Z</time></trkpt>
<trkpt lat="24.634674" lon="109.020112">
<time>2016-10-06T16:05:16Z</time></trkpt>
<trkpt lat="24.634625" lon="109.019643">
<time>2016-10-06T16:05:17Z</time></trkpt>
<trkpt lat="24.634595" lon="109.019424">
<time>2016-10-06T16:05:18Z</time></trkpt>
<trkpt lat="24.634576" lon="109.019125">
<time>2016-10-06T16:05:19Z</time></trkpt>
<trkpt lat="24.634567" lon="109.018956">
<time>2016-10-06T16:05:20Z</time></trkpt>
<trkpt lat="24.634567" lon="109.018796">
<time>2016-10-06T16:05:21Z</time></trkpt>
<trkpt lat="24.634578" lon="109.018687">
<time>2016-10-06T16:05:22Z</time></trkpt>
<trkpt lat="24.634598" lon="109.018527">
<time>2016-10-06T16:05:23Z</time></trkpt>
<trkpt lat="24.634649" lon="109.018219">
<time>2016-10-06T16:05:24Z</time></trkpt>
<trkpt lat="24.634699" lon="109.018039">
<time>2016-10-06T16:05:25Z</time></trkpt>
<trkpt lat="24.63475" lon="109.01791">
<time>2016-10-06T16:05:26Z</time></trkpt>
<trkpt lat="24.63481" lon="109.01778">
<time>2016-10-06T16:05:27Z</time></trkpt>
<trkpt lat="24.635021" lon="109.017431">
<time>2016-10-06T16:05:28Z</time></trkpt>
<trkpt lat="24.635262" lon="109.016963">
<time>2016-10-06T16:05:29Z</time></trkpt>
<trkpt lat="24.635554" lon="109.016325">
<time>2016-10-06T16:05:30Z</time></trkpt>
<trkpt lat="24.635725" lon="109.015917">
<time>2016-10-06T16:05:31Z</time></trkpt>
<trkpt lat="24.635897" lon="109.015548">
<time>2016-10-06T16:05:32Z</time></trkpt>
<trkpt lat="24.636088" lon="109.01518">
<time>2016-10-06T16:05:33Z</time></trkpt>
<trkpt lat="24.636319" lon="109.014781">
<time>2016-10-06T16:05:34Z</time></trkpt>
<trkpt lat="24.6365" lon="109.014502">
<time>2016-10-06T16:05:35Z</time></trkpt>
<trkpt lat="24.637072" lon="109.013655">
<time>2016-10-06T16:05:36Z</time></trkpt>
<trkpt lat="24.637233" lon="109.013386">
<time>2016-10-06T16:05:37Z</time></trkpt>
<trkpt lat="24.637344" lon="109.013157">
<time>2016-10-06T16:05:38Z</time></trkpt>
<trkpt lat="24.637404" lon="109.013028">
<time>2016-10-06T16:05:39Z</time></trkpt>
<trkpt lat="24.637485" lon="109.012819">
<time>2016-10-06T16:05:40Z</time></trkpt>
<trkpt lat="24.637565" lon="109.012639">
<time>2016-10-06T16:05:41Z</time></trkpt>
<trkpt lat="24.637585" lon="109.012579">
<time>2016-10-06T16:05:42Z</time></trkpt>
<trkpt lat="24.637635" lon="109.01249">
<time>2016-10-06T16:05:43Z</time></trkpt>
<trkpt lat="24.637676" lon="109.01242">
<time>2016-10-06T16:05:44Z</time></trkpt>
<trkpt lat="24.637736" lon="109.01234">
<time>2016-10-06T16:05:45Z</time></trkpt>
<trkpt lat="24.637987" lon="109.011992">
<time>2016-10-06T16:05:46Z</time></trkpt>
<trkpt lat="24.638288" lon="109.011533">
<time>2016-10-06T16:05:47Z</time></trkpt>
<trkpt lat="24.638369" lon="109.011404">
<time>2016-10-06T16:05:48Z</time></trkpt>
<trkpt lat="24.638439" lon="109.011284">
<time>2016-10-06T16:05:49Z</time></trkpt>
<trkpt lat="24.638499" lon="109.011165">
<time>2016-10-06T16:05:50Z</time></trkpt>
<trkpt lat="24.63855" lon="109.011035">
<time>2016-10-06T16:05:51Z</time></trkpt>
<trkpt lat="24.63858" lon="109.010946">
<time>2016-10-06T16:05:52Z</time></trkpt>
<trkpt lat="24.6386" lon="109.010866">
<time>2016-10-06T16:05:53Z</time></trkpt>
<trkpt lat="24.63862" lon="109.010786">
<time>2016-10-06T16:05:54Z</time></trkpt>
<trkpt lat="24.638631" lon="109.010746">
<time>2016-10-06T16:05:55Z</time></trkpt>
<trkpt lat="24.638641" lon="109.010667">
<time>2016-10-06T16:05:56Z</time></trkpt>
<trkpt lat="24.638651" lon="109.010527">
<time>2016-10-06T16:05:57Z</time></trkpt>
<trkpt lat="24.638672" lon="109.010298">
<time>2016-10-06T16:05:58Z</time></trkpt>
<trkpt lat="24.638683" lon="109.010099">
<time>2016-10-06T16:05:59Z</time></trkpt>
<trkpt lat="24.638713" lon="109.00985">
<time>2016-10-06T16:06:00Z</time></trkpt>
<trkpt lat="24.638724" lon="109.00976">
<time>2016-10-06T16:06:01Z</time></trkpt>
<trkpt lat="24.638724" lon="109.009561">
<time>2016-10-06T16:06:02Z</time></trkpt>
<trkpt lat="24.638715" lon="109.009342">
<time>2016-10-06T16:06:03Z</time></trkpt>
<trkpt lat="24.638696" lon="109.009033">
<time>2016-10-06T16:06:04Z</time></trkpt>
<trkpt lat="24.638677" lon="109.008525">
<time>2016-10-06T16:06:05Z</time></trkpt>
<trkpt lat="24.638629" lon="109.007788">
<time>2016-10-06T16:06:06Z</time></trkpt>
<trkpt lat="24.63861" lon="109.007559">
<time>2016-10-06T16:06:07Z</time></trkpt>
<trkpt lat="24.638552" lon="109.006822">
<time>2016-10-06T16:06:08Z</time></trkpt>
<trkpt lat="24.638504" lon="109.006194">
<time>2016-10-06T16:06:09Z</time></trkpt>
<trkpt lat="24.638485" lon="109.005825">
<time>2016-10-06T16:06:10Z</time></trkpt>
<trkpt lat="24.638456" lon="109.005447">
<time>2016-10-06T16:06:11Z</time></trkpt>
<trkpt lat="24.638458" lon="109.005078">
<time>2016-10-06T16:06:12Z</time></trkpt>
<trkpt lat="24.638449" lon="109.00458">
<time>2016-10-06T16:06:13Z</time></trkpt>
<trkpt lat="24.63844" lon="109.004222">
<time>2016-10-06T16:06:14Z</time></trkpt>
<trkpt lat="24.638421" lon="109.003773">
<time>2016-10-06T16:06:15Z</time></trkpt>
<trkpt lat="24.638402" lon="109.003494">
<time>2016-10-06T16:06:16Z</time></trkpt>
<trkpt lat="24.638383" lon="109.003146">
<time>2016-10-06T16:06:17Z</time></trkpt>
<trkpt lat="24.638374" lon="109.002797">
<time>2016-10-06T16:06:18Z</time></trkpt>
<trkpt lat="24.638365" lon="109.002588">
<time>2016-10-06T16:06:19Z</time></trkpt>
<trkpt lat="24.638356" lon="109.00215">
<time>2016-10-06T16:06:20Z</time></trkpt>
<trkpt lat="24.638358" lon="109.001731">
<time>2016-10-06T16:06:21Z</time></trkpt>
<trkpt lat="24.638368" lon="109.001492">
<time>2016-10-06T16:06:22Z</time></trkpt>
<trkpt lat="24.638379" lon="109.001164">
<time>2016-10-06T16:06:23Z</time></trkpt>
<trkpt lat="24.63838" lon="109.000964">
<time>2016-10-06T16:06:24Z</time></trkpt>
<trkpt lat="24.638371" lon="109.000626">
<time>2016-10-06T16:06:25Z</time></trkpt>
<trkpt lat="24.638352" lon="109.000287">
<time>2016-10-06T16:06:26Z</time></trkpt>
<trkpt lat="24.638342" lon="109.000187">
<time>2016-10-06T16:06:27Z</time></trkpt>
<trkpt lat="24.638333" lon="109.000088">
<time>2016-10-06T16:06:28Z</time></trkpt>
<trkpt lat="24.638313" lon="108.999978">
<time>2016-10-06T16:06:29Z</time></trkpt>
<trkpt lat="24.638205" lon="108.999341">
<time>2016-10-06T16:06:30Z</time></trkpt>
<trkpt lat="24.638136" lon="108.998883">
<time>2016-10-06T16:06:31Z</time></trkpt>
<trkpt lat="24.638018" lon="108.998175">
<time>2016-10-06T16:06:32Z</time></trkpt>
<trkpt lat="24.637891" lon="108.997369">
<time>2016-10-06T16:06:33Z</time></trkpt>
<trkpt lat="24.637773" lon="108.996621">
<time>2016-10-06T16:06:34Z</time></trkpt>
<trkpt lat="24.637655" lon="108.995994">
<time>2016-10-06T16:06:35Z</time></trkpt>
<trkpt lat="24.637498" lon="108.995167">
<time>2016-10-06T16:06:36Z</time></trkpt>
<trkpt lat="24.637419" lon="108.994759">
<time>2016-10-06T16:06:37Z</time></trkpt>
<trkpt lat="24.63731" lon="108.994321">
<time>2016-10-06T16:06:38Z</time></trkpt>
<trkpt lat="24.637182" lon="108.993763">
<time>2016-10-06T16:06:39Z</time></trkpt>
<trkpt lat="24.637083" lon="108.993295">
<time>2016-10-06T16:06:40Z</time></trkpt>
<trkpt lat="24.637014" lon="108.992926">
<time>2016-10-06T16:06:41Z</time></trkpt>
<trkpt lat="24.636946" lon="108.992498">
<time>2016-10-06T16:06:42Z</time></trkpt>
<trkpt lat="24.636877" lon="108.992079">
<time>2016-10-06T16:06:43Z</time></trkpt>
<trkpt lat="24.636789" lon="108.991372">
<time>2016-10-06T16:06:44Z</time></trkpt>
<trkpt lat="24.636779" lon="108.991322">
<time>2016-10-06T16:06:45Z</time></trkpt>
<trkpt lat="24.636769" lon="108.991263">
<time>2016-10-06T16:06:46Z</time></trkpt>
<trkpt lat="24.63676" lon="108.991213">
<time>2016-10-06T16:06:47Z</time></trkpt>
<trkpt lat="24.63674" lon="108.991153">
<time>2016-10-06T16:06:48Z</time></trkpt>
<trkpt lat="24.63673" lon="108.991093">
<time>2016-10-06T16:06:49Z</time></trkpt>
<trkpt lat="24.63671" lon="108.991033">
<time>2016-10-06T16:06:50Z</time></trkpt>
<trkpt lat="24.63668" lon="108.990954">
<time>2016-10-06T16:06:51Z</time></trkpt>
<trkpt lat="24.636651" lon="108.990904">
<time>2016-10-06T16:06:52Z</time></trkpt>
<trkpt lat="24.636631" lon="108.990874">
<time>2016-10-06T16:06:53Z</time></trkpt>
<trkpt lat="24.636601" lon="108.990824">
<time>2016-10-06T16:06:54Z</time></trkpt>
<trkpt lat="24.636571" lon="108.990774">
<time>2016-10-06T16:06:55Z</time></trkpt>
<trkpt lat="24.636521" lon="108.990725">
<time>2016-10-06T16:06:56Z</time></trkpt>
<trkpt lat="24.636441" lon="108.990645">
<time>2016-10-06T16:06:57Z</time></trkpt>
<trkpt lat="24.636381" lon="108.990585">
<time>2016-10-06T16:06:58Z</time></trkpt>
<trkpt lat="24.636152" lon="108.990406">
<time>2016-10-06T16:06:59Z</time></trkpt>
<trkpt lat="24.635903" lon="108.990207">
<time>2016-10-06T16:07:00Z</time></trkpt>
<trkpt lat="24.635713" lon="108.990067">
<time>2016-10-06T16:07:01Z</time></trkpt>
<trkpt lat="24.635623" lon="108.989978">
<time>2016-10-06T16:07:02Z</time></trkpt>
<trkpt lat="24.635534" lon="108.989888">
<time>2016-10-06T16:07:03Z</time></trkpt>
<trkpt lat="24.635454" lon="108.989788">
<time>2016-10-06T16:07:04Z</time></trkpt>
<trkpt lat="24.635374" lon="108.989669">
<time>2016-10-06T16:07:05Z</time></trkpt>
<trkpt lat="24.635315" lon="108.989549">
<time>2016-10-06T16:07:06Z</time></trkpt>
<trkpt lat="24.635205" lon="108.98933">
<time>2016-10-06T16:07:07Z</time></trkpt>
<trkpt lat="24.635116" lon="108.989121">
<time>2016-10-06T16:07:08Z</time></trkpt>
<trkpt lat="24.635026" lon="108.988932">
<time>2016-10-06T16:07:09Z</time></trkpt>
<trkpt lat="24.634917" lon="108.988733">
<time>2016-10-06T16:07:10Z</time></trkpt>
<trkpt lat="24.634837" lon="108.988593">
<time>2016-10-06T16:07:11Z</time></trkpt>
<trkpt lat="24.634808" lon="108.988533">
<time>2016-10-06T16:07:12Z</time></trkpt>
<trkpt lat="24.634758" lon="108.988414">
<time>2016-10-06T16:07:13Z</time></trkpt>
<trkpt lat="24.634689" lon="108.988215">
<time>2016-10-06T16:07:14Z</time></trkpt>
<trkpt lat="24.634619" lon="108.988045">
<time>2016-10-06T16:07:15Z</time></trkpt>
<trkpt lat="24.63451" lon="108.987816">
<time>2016-10-06T16:07:16Z</time></trkpt>
<trkpt lat="24.63441" lon="108.987627">
<time>2016-10-06T16:07:17Z</time></trkpt>
<trkpt lat="24.634351" lon="108.987507">
<time>2016-10-06T16:07:18Z</time></trkpt>
<trkpt lat="24.634241" lon="108.987338">
<time>2016-10-06T16:07:19Z</time></trkpt>
<trkpt lat="24.634102" lon="108.987119">
<time>2016-10-06T16:07:20Z</time></trkpt>
<trkpt lat="24.634032" lon="108.986999">
<time>2016-10-06T16:07:21Z</time></trkpt>
<trkpt lat="24.633992" lon="108.98694">
<time>2016-10-06T16:07:22Z</time></trkpt>
<trkpt lat="24.633973" lon="108.98687">
<time>2016-10-06T16:07:23Z</time></trkpt>
<trkpt lat="24.633953" lon="108.9868">
<time>2016-10-06T16:07:24Z</time></trkpt>
<trkpt lat="24.633943" lon="108.98673">
<time>2016-10-06T16:07:25Z</time></trkpt>
<trkpt lat="24.633943" lon="108.986661">
<time>2016-10-06T16:07:26Z</time></trkpt>
<trkpt lat="24.633953" lon="108.986631">
<time>2016-10-06T16:07:27Z</time></trkpt>
<trkpt lat="24.633953" lon="108.986601">
<time>2016-10-06T16:07:28Z</time></trkpt>
<trkpt lat="24.633964" lon="108.986561">
<time>2016-10-06T16:07:29Z</time></trkpt>
<trkpt lat="24.633974" lon="108.986501">
<time>2016-10-06T16:07:30Z</time></trkpt>
<trkpt lat="24.633994" lon="108.986442">
<time>2016-10-06T16:07:31Z</time></trkpt>
<trkpt lat="24.634024" lon="108.986372">
<time>2016-10-06T16:07:32Z</time></trkpt>
<trkpt lat="24.634135" lon="108.986163">
<time>2016-10-06T16:07:33Z</time></trkpt>
<trkpt lat="24.634607" lon="108.985366">
<time>2016-10-06T16:07:34Z</time></trkpt>
<trkpt lat="24.634959" lon="108.984768">
<time>2016-10-06T16:07:35Z</time></trkpt>
<trkpt lat="24.635241" lon="108.98427">
<time>2016-10-06T16:07:36Z</time></trkpt>
<trkpt lat="24.635271" lon="108.9842">
<time>2016-10-06T16:07:37Z</time></trkpt>
<trkpt lat="24.635281" lon="108.98417">
<time>2016-10-06T16:07:38Z</time></trkpt>
<trkpt lat="24.635291" lon="108.98413">
<time>2016-10-06T16:07:39Z</time></trkpt>
<trkpt lat="24.635291" lon="108.984081">
<time>2016-10-06T16:07:40Z</time></trkpt>
<trkpt lat="24.635281" lon="108.984021">
<time>2016-10-06T16:07:41Z</time></trkpt>
<trkpt lat="24.635271" lon="108.983971">
<time>2016-10-06T16:07:42Z</time></trkpt>
<trkpt lat="24.635262" lon="108.983911">
<time>2016-10-06T16:07:43Z</time></trkpt>
<trkpt lat="24.635222" lon="108.983802">
<time>2016-10-06T16:07:44Z</time></trkpt>
<trkpt lat="24.635182" lon="108.983672">
<time>2016-10-06T16:07:45Z</time></trkpt>
<trkpt lat="24.635053" lon="108.983284">
<time>2016-10-06T16:07:46Z</time></trkpt>
<trkpt lat="24.634974" lon="108.982945">
<time>2016-10-06T16:07:47Z</time></trkpt>
<trkpt lat="24.634935" lon="108.982786">
<time>2016-10-06T16:07:48Z</time></trkpt>
<trkpt lat="24.634895" lon="108.982596">
<time>2016-10-06T16:07:49Z</time></trkpt>
<trkpt lat="24.634866" lon="108.982407">
<time>2016-10-06T16:07:50Z</time></trkpt>
<trkpt lat="24.634837" lon="108.982148">
<time>2016-10-06T16:07:51Z</time></trkpt>
<trkpt lat="24.634837" lon="108.982128">
<time>2016-10-06T16:07:52Z</time></trkpt>
<trkpt lat="24.634808" lon="108.981879">
<time>2016-10-06T16:07:53Z</time></trkpt>
<trkpt lat="24.634798" lon="108.98175">
<time>2016-10-06T16:07:54Z</time></trkpt>
<trkpt lat="24.634798" lon="108.98166">
<time>2016-10-06T16:07:55Z</time></trkpt>
<trkpt lat="24.634779" lon="108.981471">
<time>2016-10-06T16:07:56Z</time></trkpt>
<trkpt lat="24.634769" lon="108.981361">
<time>2016-10-06T16:07:57Z</time></trkpt>
<trkpt lat="24.63474" lon="108.981232">
<time>2016-10-06T16:07:58Z</time></trkpt>
<trkpt lat="24.63471" lon="108.981082">
<time>2016-10-06T16:07:59Z</time></trkpt>
<trkpt lat="24.63465" lon="108.980913">
<time>2016-10-06T16:08:00Z</time></trkpt>
<trkpt lat="24.634571" lon="108.980654">
<time>2016-10-06T16:08:01Z</time></trkpt>
<trkpt lat="24.634512" lon="108.980465">
<time>2016-10-06T16:08:02Z</time></trkpt>
<trkpt lat="24.634472" lon="108.980365">
<time>2016-10-06T16:08:03Z</time></trkpt>
<trkpt lat="24.634373" lon="108.980136">
<time>2016-10-06T16:08:04Z</time></trkpt>
<trkpt lat="24.634264" lon="108.979847">
<time>2016-10-06T16:08:05Z</time></trkpt>
<trkpt lat="24.634165" lon="108.979538">
<time>2016-10-06T16:08:06Z</time></trkpt>
<trkpt lat="24.634066" lon="108.979159">
<time>2016-10-06T16:08:07Z</time></trkpt>
<trkpt lat="24.633778" lon="108.978173">
<time>2016-10-06T16:08:08Z</time></trkpt>
<trkpt lat="24.6336" lon="108.977526">
<time>2016-10-06T16:08:09Z</time></trkpt>
<trkpt lat="24.633571" lon="108.977416">
<time>2016-10-06T16:08:10Z</time></trkpt>
<trkpt lat="24.633452" lon="108.977008">
<time>2016-10-06T16:08:11Z</time></trkpt>
<trkpt lat="24.633343" lon="108.976639">
<time>2016-10-06T16:08:12Z</time></trkpt>
<trkpt lat="24.633046" lon="108.975533">
<time>2016-10-06T16:08:13Z</time></trkpt>
<trkpt lat="24.632828" lon="108.974746">
<time>2016-10-06T16:08:14Z</time></trkpt>
<trkpt lat="24.632561" lon="108.97381">
<time>2016-10-06T16:08:15Z</time></trkpt>
<trkpt lat="24.632294" lon="108.972853">
<time>2016-10-06T16:08:16Z</time></trkpt>
<trkpt lat="24.631997" lon="108.971797">
<time>2016-10-06T16:08:17Z</time></trkpt>
<trkpt lat="24.631858" lon="108.971379">
<time>2016-10-06T16:08:18Z</time></trkpt>
<trkpt lat="24.631699" lon="108.97093">
<time>2016-10-06T16:08:19Z</time></trkpt>
<trkpt lat="24.631391" lon="108.970183">
<time>2016-10-06T16:08:20Z</time></trkpt>
<trkpt lat="24.631351" lon="108.970093">
<time>2016-10-06T16:08:21Z</time></trkpt>
<trkpt lat="24.631312" lon="108.970034">
<time>2016-10-06T16:08:22Z</time></trkpt>
<trkpt lat="24.631282" lon="108.969994">
<time>2016-10-06T16:08:23Z</time></trkpt>
<trkpt lat="24.631252" lon="108.969954">
<time>2016-10-06T16:08:24Z</time></trkpt>
<trkpt lat="24.631232" lon="108.969924">
<time>2016-10-06T16:08:25Z</time></trkpt>
<trkpt lat="24.631172" lon="108.969864">
<time>2016-10-06T16:08:26Z</time></trkpt>
<trkpt lat="24.631102" lon="108.969804">
<time>2016-10-06T16:08:27Z</time></trkpt>
<trkpt lat="24.630982" lon="108.969715">
<time>2016-10-06T16:08:28Z</time></trkpt>
<trkpt lat="24.630723" lon="108.969535">
<time>2016-10-06T16:08:29Z</time></trkpt>
<trkpt lat="24.630613" lon="108.969446">
<time>2016-10-06T16:08:30Z</time></trkpt>
<trkpt lat="24.630533" lon="108.969376">
<time>2016-10-06T16:08:31Z</time></trkpt>
<trkpt lat="24.630494" lon="108.969336">
<time>2016-10-06T16:08:32Z</time></trkpt>
<trkpt lat="24.630394" lon="108.969256">
<time>2016-10-06T16:08:33Z</time></trkpt>
<trkpt lat="24.630314" lon="108.969177">
<time>2016-10-06T16:08:34Z</time></trkpt>
<trkpt lat="24.630075" lon="108.968928">
<time>2016-10-06T16:08:35Z</time></trkpt>
<trkpt lat="24.629895" lon="108.968718">
<time>2016-10-06T16:08:36Z</time></trkpt>
<trkpt lat="24.629706" lon="108.968509">
<time>2016-10-06T16:08:37Z</time></trkpt>
<trkpt lat="24.629646" lon="108.968429">
<time>2016-10-06T16:08:38Z</time></trkpt>
<trkpt lat="24.629626" lon="108.9684">
<time>2016-10-06T16:08:39Z</time></trkpt>
<trkpt lat="24.629546" lon="108.9683">
<time>2016-10-06T16:08:40Z</time></trkpt>
<trkpt lat="24.629497" lon="108.96823">
<time>2016-10-06T16:08:41Z</time></trkpt>
<trkpt lat="24.629447" lon="108.96813">
<time>2016-10-06T16:08:42Z</time></trkpt>
<trkpt lat="24.629397" lon="108.968011">
<time>2016-10-06T16:08:43Z</time></trkpt>
<trkpt lat="24.629367" lon="108.967921">
<time>2016-10-06T16:08:44Z</time></trkpt>
<trkpt lat="24.629357" lon="108.967921">
<time>2016-10-06T16:08:45Z</time></trkpt>
<trkpt lat="24.629328" lon="108.967822">
<time>2016-10-06T16:08:46Z</time></trkpt>
<trkpt lat="24.629308" lon="108.967742">
<time>2016-10-06T16:08:47Z</time></trkpt>
<trkpt lat="24.629278" lon="108.967632">
<time>2016-10-06T16:08:48Z</time></trkpt>
<trkpt lat="24.629239" lon="108.967443">
<time>2016-10-06T16:08:49Z</time></trkpt>
<trkpt lat="24.629209" lon="108.967284">
<time>2016-10-06T16:08:50Z</time></trkpt>
<trkpt lat="24.629189" lon="108.967184">
<time>2016-10-06T16:08:51Z</time></trkpt>
<trkpt lat="24.629071" lon="108.966735">
<time>2016-10-06T16:08:52Z</time></trkpt>
<trkpt lat="24.629071" lon="108.966735">
<time>2016-10-06T16:08:53Z</time></trkpt>
<trkpt lat="24.629001" lon="108.966407">
<time>2016-10-06T16:08:54Z</time></trkpt>
<trkpt lat="24.628992" lon="108.966347">
<time>2016-10-06T16:08:55Z</time></trkpt>
<trkpt lat="24.628794" lon="108.96557">
<time>2016-10-06T16:08:56Z</time></trkpt>
<trkpt lat="24.628695" lon="108.965151">
<time>2016-10-06T16:08:57Z</time></trkpt>
<trkpt lat="24.628596" lon="108.964862">
<time>2016-10-06T16:08:58Z</time></trkpt>
<trkpt lat="24.628566" lon="108.964792">
<time>2016-10-06T16:08:59Z</time></trkpt>
<trkpt lat="24.628476" lon="108.964583">
<time>2016-10-06T16:09:00Z</time></trkpt>
<trkpt lat="24.628417" lon="108.964473">
<time>2016-10-06T16:09:01Z</time></trkpt>
<trkpt lat="24.628337" lon="108.964354">
<time>2016-10-06T16:09:02Z</time></trkpt>
<trkpt lat="24.628108" lon="108.964005">
<time>2016-10-06T16:09:03Z</time></trkpt>
<trkpt lat="24.627939" lon="108.963716">
<time>2016-10-06T16:09:04Z</time></trkpt>
<trkpt lat="24.627899" lon="108.963646">
<time>2016-10-06T16:09:05Z</time></trkpt>
<trkpt lat="24.62772" lon="108.963278">
<time>2016-10-06T16:09:06Z</time></trkpt>
<trkpt lat="24.627601" lon="108.962959">
<time>2016-10-06T16:09:07Z</time></trkpt>
<trkpt lat="24.627531" lon="108.9627">
<time>2016-10-06T16:09:08Z</time></trkpt>
<trkpt lat="24.627482" lon="108.962391">
<time>2016-10-06T16:09:09Z</time></trkpt>
<trkpt lat="24.627463" lon="108.962112">
<time>2016-10-06T16:09:10Z</time></trkpt>
<trkpt lat="24.627453" lon="108.961862">
<time>2016-10-06T16:09:11Z</time></trkpt>
<trkpt lat="24.627474" lon="108.961554">
<time>2016-10-06T16:09:12Z</time></trkpt>
<trkpt lat="24.627586" lon="108.960716">
<time>2016-10-06T16:09:13Z</time></trkpt>
<trkpt lat="24.627637" lon="108.960298">
<time>2016-10-06T16:09:14Z</time></trkpt>
<trkpt lat="24.627648" lon="108.960039">
<time>2016-10-06T16:09:15Z</time></trkpt>
<trkpt lat="24.627639" lon="108.9597">
<time>2016-10-06T16:09:16Z</time></trkpt>
<trkpt lat="24.62763" lon="108.959341">
<time>2016-10-06T16:09:17Z</time></trkpt>
<trkpt lat="24.627571" lon="108.958902">
<time>2016-10-06T16:09:18Z</time></trkpt>
<trkpt lat="24.627522" lon="108.958623">
<time>2016-10-06T16:09:19Z</time></trkpt>
<trkpt lat="24.627422" lon="108.958284">
<time>2016-10-06T16:09:20Z</time></trkpt>
<trkpt lat="24.627274" lon="108.957627">
<time>2016-10-06T16:09:21Z</time></trkpt>
<trkpt lat="24.627185" lon="108.957308">
<time>2016-10-06T16:09:22Z</time></trkpt>
<trkpt lat="24.627096" lon="108.956939">
<time>2016-10-06T16:09:23Z</time></trkpt>
<trkpt lat="24.627066" lon="108.95673">
<time>2016-10-06T16:09:24Z</time></trkpt>
<trkpt lat="24.627057" lon="108.956401">
<time>2016-10-06T16:09:25Z</time></trkpt>
<trkpt lat="24.627068" lon="108.955972">
<time>2016-10-06T16:09:26Z</time></trkpt>
<trkpt lat="24.627078" lon="108.955852">
<time>2016-10-06T16:09:27Z</time></trkpt>
<trkpt lat="24.627099" lon="108.955454">
<time>2016-10-06T16:09:28Z</time></trkpt>
<trkpt lat="24.627141" lon="108.954816">
<time>2016-10-06T16:09:29Z</time></trkpt>
<trkpt lat="24.627244" lon="108.95337">
<time>2016-10-06T16:09:30Z</time></trkpt>
<trkpt lat="24.627306" lon="108.952692">
<time>2016-10-06T16:09:31Z</time></trkpt>
<trkpt lat="24.627327" lon="108.952094">
<time>2016-10-06T16:09:32Z</time></trkpt>
<trkpt lat="24.627368" lon="108.951496">
<time>2016-10-06T16:09:33Z</time></trkpt>
<trkpt lat="24.627379" lon="108.951187">
<time>2016-10-06T16:09:34Z</time></trkpt>
<trkpt lat="24.62739" lon="108.950788">
<time>2016-10-06T16:09:35Z</time></trkpt>
<trkpt lat="24.627391" lon="108.950349">
<time>2016-10-06T16:09:36Z</time></trkpt>
<trkpt lat="24.627382" lon="108.949921">
<time>2016-10-06T16:09:37Z</time></trkpt>
<trkpt lat="24.627363" lon="108.949482">
<time>2016-10-06T16:09:38Z</time></trkpt>
<trkpt lat="24.627334" lon="108.948904">
<time>2016-10-06T16:09:39Z</time></trkpt>
<trkpt lat="24.627305" lon="108.948475">
<time>2016-10-06T16:09:40Z</time></trkpt>
<trkpt lat="24.627266" lon="108.948006">
<time>2016-10-06T16:09:41Z</time></trkpt>
<trkpt lat="24.627247" lon="108.947578">
<time>2016-10-06T16:09:42Z</time></trkpt>
<trkpt lat="24.627257" lon="108.947378">
<time>2016-10-06T16:09:43Z</time></trkpt>
<trkpt lat="24.627258" lon="108.947358">
<time>2016-10-06T16:09:44Z</time></trkpt>
<trkpt lat="24.627258" lon="108.947009">
<time>2016-10-06T16:09:45Z</time></trkpt>
<trkpt lat="24.62729" lon="108.946331">
<time>2016-10-06T16:09:46Z</time></trkpt>
<trkpt lat="24.627403" lon="108.944925">
<time>2016-10-06T16:09:47Z</time></trkpt>
<trkpt lat="24.627454" lon="108.944187">
<time>2016-10-06T16:09:48Z</time></trkpt>
<trkpt lat="24.627516" lon="108.94332">
<time>2016-10-06T16:09:49Z</time></trkpt>
<trkpt lat="24.627547" lon="108.942771">
<time>2016-10-06T16:09:50Z</time></trkpt>
<trkpt lat="24.627568" lon="108.942243">
<time>2016-10-06T16:09:51Z</time></trkpt>
<trkpt lat="24.627589" lon="108.941415">
<time>2016-10-06T16:09:52Z</time></trkpt>
<trkpt lat="24.62759" lon="108.940996">
<time>2016-10-06T16:09:53Z</time></trkpt>
<trkpt lat="24.627601" lon="108.940866">
<time>2016-10-06T16:09:54Z</time></trkpt>
<trkpt lat="24.627611" lon="108.940717">
<time>2016-10-06T16:09:55Z</time></trkpt>
<trkpt lat="24.627592" lon="108.940308">
<time>2016-10-06T16:09:56Z</time></trkpt>
<trkpt lat="24.627504" lon="108.938772">
<time>2016-10-06T16:09:57Z</time></trkpt>
<trkpt lat="24.627445" lon="108.938502">
<time>2016-10-06T16:09:58Z</time></trkpt>
<trkpt lat="24.627196" lon="108.938034">
<time>2016-10-06T16:09:59Z</time></trkpt>
<trkpt lat="24.6257" lon="108.93561">
<time>2016-10-06T16:10:00Z</time></trkpt>
<trkpt lat="24.624812" lon="108.934003">
<time>2016-10-06T16:10:01Z</time></trkpt>
<trkpt lat="24.624633" lon="108.933604">
<time>2016-10-06T16:10:02Z</time></trkpt>
<trkpt lat="24.624414" lon="108.933106">
<time>2016-10-06T16:10:03Z</time></trkpt>
<trkpt lat="24.624185" lon="108.932547">
<time>2016-10-06T16:10:04Z</time></trkpt>
<trkpt lat="24.624055" lon="108.932257">
<time>2016-10-06T16:10:05Z</time></trkpt>
<trkpt lat="24.623696" lon="108.931489">
<time>2016-10-06T16:10:06Z</time></trkpt>
<trkpt lat="24.623058" lon="108.930422">
<time>2016-10-06T16:10:07Z</time></trkpt>
<trkpt lat="24.619874" lon="108.925901">
<time>2016-10-06T16:10:08Z</time></trkpt>
<trkpt lat="24.619594" lon="108.925402">
<time>2016-10-06T16:10:09Z</time></trkpt>
<trkpt lat="24.618496" lon="108.923825">
<time>2016-10-06T16:10:10Z</time></trkpt>
<trkpt lat="24.617068" lon="108.921789">
<time>2016-10-06T16:10:11Z</time></trkpt>
<trkpt lat="24.61584" lon="108.919862">
<time>2016-10-06T16:10:12Z</time></trkpt>
<trkpt lat="24.615561" lon="108.919473">
<time>2016-10-06T16:10:13Z</time></trkpt>
<trkpt lat="24.614632" lon="108.918394">
<time>2016-10-06T16:10:14Z</time></trkpt>
<trkpt lat="24.613843" lon="108.917226">
<time>2016-10-06T16:10:15Z</time></trkpt>
<trkpt lat="24.613613" lon="108.916827">
<time>2016-10-06T16:10:16Z</time></trkpt>
<trkpt lat="24.613423" lon="108.916408">
<time>2016-10-06T16:10:17Z</time></trkpt>
<trkpt lat="24.613284" lon="108.916158">
<time>2016-10-06T16:10:18Z</time></trkpt>
<trkpt lat="24.611945" lon="108.9145">
<time>2016-10-06T16:10:19Z</time></trkpt>
<trkpt lat="24.608378" lon="108.909407">
<time>2016-10-06T16:10:20Z</time></trkpt>
<trkpt lat="24.608168" lon="108.909077">
<time>2016-10-06T16:10:21Z</time></trkpt>
<trkpt lat="24.607789" lon="108.908128">
<time>2016-10-06T16:10:22Z</time></trkpt>
<trkpt lat="24.60676" lon="108.904412">
<time>2016-10-06T16:10:23Z</time></trkpt>
<trkpt lat="24.60605" lon="108.901474">
<time>2016-10-06T16:10:24Z</time></trkpt>
<trkpt lat="24.605901" lon="108.901045">
<time>2016-10-06T16:10:25Z</time></trkpt>
<trkpt lat="24.605471" lon="108.900425">
<time>2016-10-06T16:10:26Z</time></trkpt>
<trkpt lat="24.605231" lon="108.900075">
<time>2016-10-06T16:10:27Z</time></trkpt>
<trkpt lat="24.605171" lon="108.899986">
<time>2016-10-06T16:10:28Z</time></trkpt>
<trkpt lat="24.605061" lon="108.899816">
<time>2016-10-06T16:10:29Z</time></trkpt>
<trkpt lat="24.605041" lon="108.899786">
<time>2016-10-06T16:10:30Z</time></trkpt>
<trkpt lat="24.604831" lon="108.899566">
<time>2016-10-06T16:10:31Z</time></trkpt>
<trkpt lat="24.604541" lon="108.899436">
<time>2016-10-06T16:10:32Z</time></trkpt>
<trkpt lat="24.604311" lon="108.899286">
<time>2016-10-06T16:10:33Z</time></trkpt>
<trkpt lat="24.604031" lon="108.899006">
<time>2016-10-06T16:10:34Z</time></trkpt>
<trkpt lat="24.60137" lon="108.893639">
<time>2016-10-06T16:10:35Z</time></trkpt>
<trkpt lat="24.60075" lon="108.892419">
<time>2016-10-06T16:10:36Z</time></trkpt>
<trkpt lat="24.60062" lon="108.892219">
<time>2016-10-06T16:10:37Z</time></trkpt>
<trkpt lat="24.599939" lon="108.89121">
<time>2016-10-06T16:10:38Z</time></trkpt>
<trkpt lat="24.599589" lon="108.89077">
<time>2016-10-06T16:10:39Z</time></trkpt>
<trkpt lat="24.599319" lon="108.89049">
<time>2016-10-06T16:10:40Z</time></trkpt>
<trkpt lat="24.599029" lon="108.89028">
<time>2016-10-06T16:10:41Z</time></trkpt>
<trkpt lat="24.598889" lon="108.89018">
<time>2016-10-06T16:10:42Z</time></trkpt>
<trkpt lat="24.598559" lon="108.88973">
<time>2016-10-06T16:10:43Z</time></trkpt>
<trkpt lat="24.596237" lon="108.885661">
<time>2016-10-06T16:10:44Z</time></trkpt>
<trkpt lat="24.596107" lon="108.885471">
<time>2016-10-06T16:10:45Z</time></trkpt>
<trkpt lat="24.593715" lon="108.88181">
<time>2016-10-06T16:10:46Z</time></trkpt>
<trkpt lat="24.593204" lon="108.88086">
<time>2016-10-06T16:10:47Z</time></trkpt>
<trkpt lat="24.592963" lon="108.88031">
<time>2016-10-06T16:10:48Z</time></trkpt>
<trkpt lat="24.592723" lon="108.87963">
<time>2016-10-06T16:10:49Z</time></trkpt>
<trkpt lat="24.592302" lon="108.87876">
<time>2016-10-06T16:10:50Z</time></trkpt>
<trkpt lat="24.591551" lon="108.877069">
<time>2016-10-06T16:10:51Z</time></trkpt>
<trkpt lat="24.59136" lon="108.876449">
<time>2016-10-06T16:10:52Z</time></trkpt>
<trkpt lat="24.59123" lon="108.875879">
<time>2016-10-06T16:10:53Z</time></trkpt>
<trkpt lat="24.591209" lon="108.875188">
<time>2016-10-06T16:10:54Z</time></trkpt>
<trkpt lat="24.591159" lon="108.874998">
<time>2016-10-06T16:10:55Z</time></trkpt>
<trkpt lat="24.590978" lon="108.874278">
<time>2016-10-06T16:10:56Z</time></trkpt>
<trkpt lat="24.590818" lon="108.873668">
<time>2016-10-06T16:10:57Z</time></trkpt>
<trkpt lat="24.590617" lon="108.872957">
<time>2016-10-06T16:10:58Z</time></trkpt>
<trkpt lat="24.590296" lon="108.872407">
<time>2016-10-06T16:10:59Z</time></trkpt>
<trkpt lat="24.589966" lon="108.871716">
<time>2016-10-06T16:11:00Z</time></trkpt>
<trkpt lat="24.589785" lon="108.871326">
<time>2016-10-06T16:11:01Z</time></trkpt>
<trkpt lat="24.589785" lon="108.871326">
<time>2016-10-06T16:11:02Z</time></trkpt>
<trkpt lat="24.590235" lon="108.871056">
<time>2016-10-06T16:11:03Z</time></trkpt>
<trkpt lat="24.590555" lon="108.870866">
<time>2016-10-06T16:11:04Z</time></trkpt>
<trkpt lat="24.591055" lon="108.870556">
<time>2016-10-06T16:11:05Z</time></trkpt>
<trkpt lat="24.591854" lon="108.870115">
<time>2016-10-06T16:11:06Z</time></trkpt>
<trkpt lat="24.592664" lon="108.869625">
<time>2016-10-06T16:11:07Z</time></trkpt>
<trkpt lat="24.593213" lon="108.869405">
<time>2016-10-06T16:11:08Z</time></trkpt>
<trkpt lat="24.593803" lon="108.869445">
<time>2016-10-06T16:11:09Z</time></trkpt>
<trkpt lat="24.594524" lon="108.869585">
<time>2016-10-06T16:11:10Z</time></trkpt>
<trkpt lat="24.594774" lon="108.869495">
<time>2016-10-06T16:11:11Z</time></trkpt>
<trkpt lat="24.595503" lon="108.869024">
<time>2016-10-06T16:11:12Z</time></trkpt>
<trkpt lat="24.596263" lon="108.868534">
<time>2016-10-06T16:11:13Z</time></trkpt>
<trkpt lat="24.596822" lon="108.868114">
<time>2016-10-06T16:11:14Z</time></trkpt>
<trkpt lat="24.597052" lon="108.867924">
<time>2016-10-06T16:11:15Z</time></trkpt>
<trkpt lat="24.597412" lon="108.867633">
<time>2016-10-06T16:11:16Z</time></trkpt>
<trkpt lat="24.597751" lon="108.867393">
<time>2016-10-06T16:11:17Z</time></trkpt>
<trkpt lat="24.597971" lon="108.866913">
<time>2016-10-06T16:11:18Z</time></trkpt>
<trkpt lat="24.59843" lon="108.866562">
<time>2016-10-06T16:11:19Z</time></trkpt>
<trkpt lat="24.5992" lon="108.866392">
<time>2016-10-06T16:11:20Z</time></trkpt>
<trkpt lat="24.60005" lon="108.866032">
<time>2016-10-06T16:11:21Z</time></trkpt>
<trkpt lat="24.60056" lon="108.865962">
<time>2016-10-06T16:11:22Z</time></trkpt>
<trkpt lat="24.601069" lon="108.865662">
<time>2016-10-06T16:11:23Z</time></trkpt>
<trkpt lat="24.601419" lon="108.865622">
<time>2016-10-06T16:11:24Z</time></trkpt>
<trkpt lat="24.601719" lon="108.865581">
<time>2016-10-06T16:11:25Z</time></trkpt>
<trkpt lat="24.601969" lon="108.865541">
<time>2016-10-06T16:11:26Z</time></trkpt>
<trkpt lat="24.602449" lon="108.865441">
<time>2016-10-06T16:11:27Z</time></trkpt>
<trkpt lat="24.603009" lon="108.865231">
<time>2016-10-06T16:11:28Z</time></trkpt>
<trkpt lat="24.603039" lon="108.865191">
<time>2016-10-06T16:11:29Z</time></trkpt>
<trkpt lat="24.603039" lon="108.865181">
<time>2016-10-06T16:11:30Z</time></trkpt>
<trkpt lat="24.603099" lon="108.864981">
<time>2016-10-06T16:11:31Z</time></trkpt>
<trkpt lat="24.603119" lon="108.864921">
<time>2016-10-06T16:11:32Z</time></trkpt>
<trkpt lat="24.603129" lon="108.864891">
<time>2016-10-06T16:11:33Z</time></trkpt>
<trkpt lat="24.603139" lon="108.864871">
<time>2016-10-06T16:11:34Z</time></trkpt>
<trkpt lat="24.603218" lon="108.864711">
<time>2016-10-06T16:11:35Z</time></trkpt>
<trkpt lat="24.603258" lon="108.864681">
<time>2016-10-06T16:11:36Z</time></trkpt>
<trkpt lat="24.603698" lon="108.864521">
<time>2016-10-06T16:11:37Z</time></trkpt>
<trkpt lat="24.603908" lon="108.86427">
<time>2016-10-06T16:11:38Z</time></trkpt>
<trkpt lat="24.604177" lon="108.8639">
<time>2016-10-06T16:11:39Z</time></trkpt>
<trkpt lat="24.604247" lon="108.863349">
<time>2016-10-06T16:11:40Z</time></trkpt>
<trkpt lat="24.604136" lon="108.862649">
<time>2016-10-06T16:11:41Z</time></trkpt>
<trkpt lat="24.603544" lon="108.861398">
<time>2016-10-06T16:11:42Z</time></trkpt>
<trkpt lat="24.603153" lon="108.860677">
<time>2016-10-06T16:11:43Z</time></trkpt>
<trkpt lat="24.602311" lon="108.859356">
<time>2016-10-06T16:11:44Z</time></trkpt>
<trkpt lat="24.60208" lon="108.858815">
<time>2016-10-06T16:11:45Z</time></trkpt>
<trkpt lat="24.602159" lon="108.857974">
<time>2016-10-06T16:11:46Z</time></trkpt>
<trkpt lat="24.602418" lon="108.857214">
<time>2016-10-06T16:11:47Z</time></trkpt>
<trkpt lat="24.603037" lon="108.856323">
<time>2016-10-06T16:11:48Z</time></trkpt>
<trkpt lat="24.603675" lon="108.855381">
<time>2016-10-06T16:11:49Z</time></trkpt>
<trkpt lat="24.604134" lon="108.85452">
<time>2016-10-06T16:11:50Z</time></trkpt>
<trkpt lat="24.604172" lon="108.853419">
<time>2016-10-06T16:11:51Z</time></trkpt>
<trkpt lat="24.604391" lon="108.852778">
<time>2016-10-06T16:11:52Z</time></trkpt>
<trkpt lat="24.604401" lon="108.852728">
<time>2016-10-06T16:11:53Z</time></trkpt>
<trkpt lat="24.6045" lon="108.851817">
<time>2016-10-06T16:11:54Z</time></trkpt>
<trkpt lat="24.604889" lon="108.851206">
<time>2016-10-06T16:11:55Z</time></trkpt>
<trkpt lat="24.604889" lon="108.851196">
<time>2016-10-06T16:11:56Z</time></trkpt>
<trkpt lat="24.605058" lon="108.850676">
<time>2016-10-06T16:11:57Z</time></trkpt>
<trkpt lat="24.605358" lon="108.850425">
<time>2016-10-06T16:11:58Z</time></trkpt>
<trkpt lat="24.605587" lon="108.850205">
<time>2016-10-06T16:11:59Z</time></trkpt>
<trkpt lat="24.605957" lon="108.849975">
<time>2016-10-06T16:12:00Z</time></trkpt>
<trkpt lat="24.606427" lon="108.849855">
<time>2016-10-06T16:12:01Z</time></trkpt>
<trkpt lat="24.606817" lon="108.849724">
<time>2016-10-06T16:12:02Z</time></trkpt>
<trkpt lat="24.607056" lon="108.849504">
<time>2016-10-06T16:12:03Z</time></trkpt>
<trkpt lat="24.607236" lon="108.849104">
<time>2016-10-06T16:12:04Z</time></trkpt>
<trkpt lat="24.607275" lon="108.848643">
<time>2016-10-06T16:12:05Z</time></trkpt>
<trkpt lat="24.607235" lon="108.848453">
<time>2016-10-06T16:12:06Z</time></trkpt>
<trkpt lat="24.607175" lon="108.848433">
<time>2016-10-06T16:12:07Z</time></trkpt>
<trkpt lat="24.606874" lon="108.848323">
<time>2016-10-06T16:12:08Z</time></trkpt>
<trkpt lat="24.606564" lon="108.848082">
<time>2016-10-06T16:12:09Z</time></trkpt>
<trkpt lat="24.606454" lon="108.847872">
<time>2016-10-06T16:12:10Z</time></trkpt>
<trkpt lat="24.606363" lon="108.847492">
<time>2016-10-06T16:12:11Z</time></trkpt>
<trkpt lat="24.606292" lon="108.847201">
<time>2016-10-06T16:12:12Z</time></trkpt>
<trkpt lat="24.606242" lon="108.847051">
<time>2016-10-06T16:12:13Z</time></trkpt>
<trkpt lat="24.606152" lon="108.846911">
<time>2016-10-06T16:12:14Z</time></trkpt>
<trkpt lat="24.606162" lon="108.846731">
<time>2016-10-06T16:12:15Z</time></trkpt>
<trkpt lat="24.606241" lon="108.84658">
<time>2016-10-06T16:12:16Z</time></trkpt>
<trkpt lat="24.606361" lon="108.84645">
<time>2016-10-06T16:12:17Z</time></trkpt>
<trkpt lat="24.606491" lon="108.84615">
<time>2016-10-06T16:12:18Z</time></trkpt>
<trkpt lat="24.6065" lon="108.84591">
<time>2016-10-06T16:12:19Z</time></trkpt>
<trkpt lat="24.6065" lon="108.845709">
<time>2016-10-06T16:12:20Z</time></trkpt>
<trkpt lat="24.606549" lon="108.845209">
<time>2016-10-06T16:12:21Z</time></trkpt>
<trkpt lat="24.606648" lon="108.844728">
<time>2016-10-06T16:12:22Z</time></trkpt>
<trkpt lat="24.606647" lon="108.844127">
<time>2016-10-06T16:12:23Z</time></trkpt>
<trkpt lat="24.606707" lon="108.843757">
<time>2016-10-06T16:12:24Z</time></trkpt>
<trkpt lat="24.606626" lon="108.843156">
<time>2016-10-06T16:12:25Z</time></trkpt>
<trkpt lat="24.606495" lon="108.842695">
<time>2016-10-06T16:12:26Z</time></trkpt>
<trkpt lat="24.606374" lon="108.842194">
<time>2016-10-06T16:12:27Z</time></trkpt>
<trkpt lat="24.606243" lon="108.841574">
<time>2016-10-06T16:12:28Z</time></trkpt>
<trkpt lat="24.606192" lon="108.841303">
<time>2016-10-06T16:12:29Z</time></trkpt>
<trkpt lat="24.606221" lon="108.840372">
<time>2016-10-06T16:12:30Z</time></trkpt>
<trkpt lat="24.6062" lon="108.840222">
<time>2016-10-06T16:12:31Z</time></trkpt>
<trkpt lat="24.60602" lon="108.840021">
<time>2016-10-06T16:12:32Z</time></trkpt>
<trkpt lat="24.605779" lon="108.839711">
<time>2016-10-06T16:12:33Z</time></trkpt>
<trkpt lat="24.605778" lon="108.83918">
<time>2016-10-06T16:12:34Z</time></trkpt>
<trkpt lat="24.605628" lon="108.838699">
<time>2016-10-06T16:12:35Z</time></trkpt>
<trkpt lat="24.605537" lon="108.838189">
<time>2016-10-06T16:12:36Z</time></trkpt>
<trkpt lat="24.605546" lon="108.837908">
<time>2016-10-06T16:12:37Z</time></trkpt>
<trkpt lat="24.605235" lon="108.837257">
<time>2016-10-06T16:12:38Z</time></trkpt>
<trkpt lat="24.604974" lon="108.836586">
<time>2016-10-06T16:12:39Z</time></trkpt>
<trkpt lat="24.604692" lon="108.835885">
<time>2016-10-06T16:12:40Z</time></trkpt>
<trkpt lat="24.604642" lon="108.835765">
<time>2016-10-06T16:12:41Z</time></trkpt>
<trkpt lat="24.604612" lon="108.835425">
<time>2016-10-06T16:12:42Z</time></trkpt>
<trkpt lat="24.604601" lon="108.835214">
<time>2016-10-06T16:12:43Z</time></trkpt>
<trkpt lat="24.604481" lon="108.834884">
<time>2016-10-06T16:12:44Z</time></trkpt>
<trkpt lat="24.60431" lon="108.834323">
<time>2016-10-06T16:12:45Z</time></trkpt>
<trkpt lat="24.604269" lon="108.833942">
<time>2016-10-06T16:12:46Z</time></trkpt>
<trkpt lat="24.604138" lon="108.833642">
<time>2016-10-06T16:12:47Z</time></trkpt>
<trkpt lat="24.603958" lon="108.833472">
<time>2016-10-06T16:12:48Z</time></trkpt>
<trkpt lat="24.603898" lon="108.833412">
<time>2016-10-06T16:12:49Z</time></trkpt>
<trkpt lat="24.603487" lon="108.832901">
<time>2016-10-06T16:12:50Z</time></trkpt>
<trkpt lat="24.603276" lon="108.83232">
<time>2016-10-06T16:12:51Z</time></trkpt>
<trkpt lat="24.603045" lon="108.832">
<time>2016-10-06T16:12:52Z</time></trkpt>
<trkpt lat="24.602794" lon="108.831619">
<time>2016-10-06T16:12:53Z</time></trkpt>
<trkpt lat="24.602684" lon="108.831288">
<time>2016-10-06T16:12:54Z</time></trkpt>
<trkpt lat="24.602664" lon="108.831148">
<time>2016-10-06T16:12:55Z</time></trkpt>
<trkpt lat="24.602593" lon="108.831008">
<time>2016-10-06T16:12:56Z</time></trkpt>
<trkpt lat="24.602383" lon="108.830878">
<time>2016-10-06T16:12:57Z</time></trkpt>
<trkpt lat="24.602132" lon="108.830557">
<time>2016-10-06T16:12:58Z</time></trkpt>
<trkpt lat="24.601972" lon="108.830217">
<time>2016-10-06T16:12:59Z</time></trkpt>
<trkpt lat="24.601771" lon="108.829756">
<time>2016-10-06T16:13:00Z</time></trkpt>
<trkpt lat="24.60157" lon="108.829315">
<time>2016-10-06T16:13:01Z</time></trkpt>
<trkpt lat="24.60139" lon="108.829085">
<time>2016-10-06T16:13:02Z</time></trkpt>
<trkpt lat="24.601079" lon="108.828865">
<time>2016-10-06T16:13:03Z</time></trkpt>
<trkpt lat="24.600919" lon="108.828554">
<time>2016-10-06T16:13:04Z</time></trkpt>
<trkpt lat="24.600868" lon="108.828334">
<time>2016-10-06T16:13:05Z</time></trkpt>
<trkpt lat="24.600497" lon="108.827703">
<time>2016-10-06T16:13:06Z</time></trkpt>
<trkpt lat="24.600387" lon="108.827543">
<time>2016-10-06T16:13:07Z</time></trkpt>
<trkpt lat="24.600356" lon="108.827352">
<time>2016-10-06T16:13:08Z</time></trkpt>
<trkpt lat="24.600356" lon="108.827282">
<time>2016-10-06T16:13:09Z</time></trkpt>
<trkpt lat="24.600386" lon="108.827192">
<time>2016-10-06T16:13:10Z</time></trkpt>
<trkpt lat="24.600516" lon="108.827062">
<time>2016-10-06T16:13:11Z</time></trkpt>
<trkpt lat="24.601055" lon="108.826651">
<time>2016-10-06T16:13:12Z</time></trkpt>
<trkpt lat="24.601384" lon="108.826121">
<time>2016-10-06T16:13:13Z</time></trkpt>
<trkpt lat="24.601453" lon="108.82581">
<time>2016-10-06T16:13:14Z</time></trkpt>
<trkpt lat="24.601523" lon="108.825399">
<time>2016-10-06T16:13:15Z</time></trkpt>
<trkpt lat="24.601401" lon="108.824568">
<time>2016-10-06T16:13:16Z</time></trkpt>
<trkpt lat="24.60136" lon="108.824117">
<time>2016-10-06T16:13:17Z</time></trkpt>
<trkpt lat="24.601239" lon="108.823627">
<time>2016-10-06T16:13:18Z</time></trkpt>
<trkpt lat="24.601228" lon="108.823216">
<time>2016-10-06T16:13:19Z</time></trkpt>
<trkpt lat="24.601208" lon="108.822765">
<time>2016-10-06T16:13:20Z</time></trkpt>
<trkpt lat="24.601207" lon="108.822405">
<time>2016-10-06T16:13:21Z</time></trkpt>
<trkpt lat="24.601216" lon="108.822064">
<time>2016-10-06T16:13:22Z</time></trkpt>
<trkpt lat="24.601146" lon="108.821644">
<time>2016-10-06T16:13:23Z</time></trkpt>
<trkpt lat="24.600894" lon="108.820882">
<time>2016-10-06T16:13:24Z</time></trkpt>
<trkpt lat="24.600784" lon="108.820582">
<time>2016-10-06T16:13:25Z</time></trkpt>
<trkpt lat="24.600553" lon="108.820291">
<time>2016-10-06T16:13:26Z</time></trkpt>
<trkpt lat="24.600222" lon="108.819791">
<time>2016-10-06T16:13:27Z</time></trkpt>
<trkpt lat="24.59973" lon="108.818959">
<time>2016-10-06T16:13:28Z</time></trkpt>
<trkpt lat="24.599329" lon="108.818278">
<time>2016-10-06T16:13:29Z</time></trkpt>
<trkpt lat="24.598838" lon="108.817517">
<time>2016-10-06T16:13:30Z</time></trkpt>
<trkpt lat="24.598607" lon="108.817117">
<time>2016-10-06T16:13:31Z</time></trkpt>
<trkpt lat="24.598516" lon="108.816876">
<time>2016-10-06T16:13:32Z</time></trkpt>
<trkpt lat="24.598346" lon="108.816416">
<time>2016-10-06T16:13:33Z</time></trkpt>
<trkpt lat="24.598295" lon="108.816055">
<time>2016-10-06T16:13:34Z</time></trkpt>
<trkpt lat="24.598143" lon="108.815244">
<time>2016-10-06T16:13:35Z</time></trkpt>
<trkpt lat="24.598143" lon="108.815174">
<time>2016-10-06T16:13:36Z</time></trkpt>
<trkpt lat="24.598101" lon="108.814232">
<time>2016-10-06T16:13:37Z</time></trkpt>
<trkpt lat="24.598061" lon="108.814112">
<time>2016-10-06T16:13:38Z</time></trkpt>
<trkpt lat="24.59789" lon="108.813671">
<time>2016-10-06T16:13:39Z</time></trkpt>
<trkpt lat="24.597779" lon="108.81296">
<time>2016-10-06T16:13:40Z</time></trkpt>
<trkpt lat="24.597698" lon="108.81263">
<time>2016-10-06T16:13:41Z</time></trkpt>
<trkpt lat="24.597317" lon="108.812089">
<time>2016-10-06T16:13:42Z</time></trkpt>
<trkpt lat="24.597187" lon="108.811879">
<time>2016-10-06T16:13:43Z</time></trkpt>
<trkpt lat="24.597166" lon="108.811478">
<time>2016-10-06T16:13:44Z</time></trkpt>
<trkpt lat="24.597286" lon="108.811107">
<time>2016-10-06T16:13:45Z</time></trkpt>
<trkpt lat="24.597275" lon="108.810667">
<time>2016-10-06T16:13:46Z</time></trkpt>
<trkpt lat="24.597334" lon="108.810326">
<time>2016-10-06T16:13:47Z</time></trkpt>
<trkpt lat="24.597474" lon="108.810116">
<time>2016-10-06T16:13:48Z</time></trkpt>
<trkpt lat="24.597563" lon="108.809856">
<time>2016-10-06T16:13:49Z</time></trkpt>
<trkpt lat="24.597543" lon="108.809465">
<time>2016-10-06T16:13:50Z</time></trkpt>
<trkpt lat="24.597452" lon="108.809225">
<time>2016-10-06T16:13:51Z</time></trkpt>
<trkpt lat="24.597292" lon="108.809125">
<time>2016-10-06T16:13:52Z</time></trkpt>
<trkpt lat="24.596962" lon="108.809095">
<time>2016-10-06T16:13:53Z</time></trkpt>
<trkpt lat="24.596682" lon="108.809034">
<time>2016-10-06T16:13:54Z</time></trkpt>
<trkpt lat="24.596532" lon="108.808874">
<time>2016-10-06T16:13:55Z</time></trkpt>
<trkpt lat="24.596271" lon="108.808534">
<time>2016-10-06T16:13:56Z</time></trkpt>
<trkpt lat="24.596041" lon="108.808363">
<time>2016-10-06T16:13:57Z</time></trkpt>
<trkpt lat="24.5956" lon="108.807833">
<time>2016-10-06T16:13:58Z</time></trkpt>
<trkpt lat="24.595369" lon="108.807502">
<time>2016-10-06T16:13:59Z</time></trkpt>
<trkpt lat="24.595159" lon="108.807372">
<time>2016-10-06T16:14:00Z</time></trkpt>
<trkpt lat="24.594838" lon="108.807022">
<time>2016-10-06T16:14:01Z</time></trkpt>
<trkpt lat="24.594788" lon="108.806761">
<time>2016-10-06T16:14:02Z</time></trkpt>
<trkpt lat="24.594897" lon="108.806461">
<time>2016-10-06T16:14:03Z</time></trkpt>
<trkpt lat="24.594916" lon="108.80591">
<time>2016-10-06T16:14:04Z</time></trkpt>
<trkpt lat="24.595055" lon="108.805379">
<time>2016-10-06T16:14:05Z</time></trkpt>
<trkpt lat="24.595314" lon="108.804878">
<time>2016-10-06T16:14:06Z</time></trkpt>
<trkpt lat="24.595354" lon="108.804588">
<time>2016-10-06T16:14:07Z</time></trkpt>
<trkpt lat="24.595314" lon="108.804368">
<time>2016-10-06T16:14:08Z</time></trkpt>
<trkpt lat="24.595112" lon="108.803577">
<time>2016-10-06T16:14:09Z</time></trkpt>
<trkpt lat="24.594951" lon="108.803106">
<time>2016-10-06T16:14:10Z</time></trkpt>
<trkpt lat="24.594881" lon="108.802876">
<time>2016-10-06T16:14:11Z</time></trkpt>
<trkpt lat="24.594751" lon="108.802685">
<time>2016-10-06T16:14:12Z</time></trkpt>
<trkpt lat="24.59453" lon="108.802175">
<time>2016-10-06T16:14:13Z</time></trkpt>
<trkpt lat="24.594529" lon="108.801894">
<time>2016-10-06T16:14:14Z</time></trkpt>
<trkpt lat="24.594417" lon="108.800853">
<time>2016-10-06T16:14:15Z</time></trkpt>
<trkpt lat="24.594417" lon="108.800583">
<time>2016-10-06T16:14:16Z</time></trkpt>
<trkpt lat="24.594417" lon="108.800452">
<time>2016-10-06T16:14:17Z</time></trkpt>
<trkpt lat="24.594326" lon="108.800142">
<time>2016-10-06T16:14:18Z</time></trkpt>
<trkpt lat="24.593995" lon="108.799541">
<time>2016-10-06T16:14:19Z</time></trkpt>
<trkpt lat="24.593865" lon="108.799161">
<time>2016-10-06T16:14:20Z</time></trkpt>
<trkpt lat="24.593844" lon="108.79877">
<time>2016-10-06T16:14:21Z</time></trkpt>
<trkpt lat="24.593903" lon="108.798159">
<time>2016-10-06T16:14:22Z</time></trkpt>
<trkpt lat="24.593972" lon="108.797669">
<time>2016-10-06T16:14:23Z</time></trkpt>
<trkpt lat="24.594001" lon="108.797228">
<time>2016-10-06T16:14:24Z</time></trkpt>
<trkpt lat="24.593891" lon="108.796738">
<time>2016-10-06T16:14:25Z</time></trkpt>
<trkpt lat="24.59376" lon="108.796487">
<time>2016-10-06T16:14:26Z</time></trkpt>
<trkpt lat="24.593329" lon="108.795776">
<time>2016-10-06T16:14:27Z</time></trkpt>
<trkpt lat="24.593249" lon="108.795646">
<time>2016-10-06T16:14:28Z</time></trkpt>
<trkpt lat="24.592928" lon="108.795126">
<time>2016-10-06T16:14:29Z</time></trkpt>
<trkpt lat="24.592658" lon="108.794795">
<time>2016-10-06T16:14:30Z</time></trkpt>
<trkpt lat="24.592436" lon="108.794024">
<time>2016-10-06T16:14:31Z</time></trkpt>
<trkpt lat="24.592425" lon="108.793333">
<time>2016-10-06T16:14:32Z</time></trkpt>
<trkpt lat="24.592485" lon="108.792983">
<time>2016-10-06T16:14:33Z</time></trkpt>
<trkpt lat="24.592624" lon="108.792763">
<time>2016-10-06T16:14:34Z</time></trkpt>
<trkpt lat="24.592674" lon="108.792472">
<time>2016-10-06T16:14:35Z</time></trkpt>
<trkpt lat="24.592643" lon="108.791942">
<time>2016-10-06T16:14:36Z</time></trkpt>
<trkpt lat="24.592492" lon="108.791031">
<time>2016-10-06T16:14:37Z</time></trkpt>
<trkpt lat="24.592421" lon="108.79033">
<time>2016-10-06T16:14:38Z</time></trkpt>
<trkpt lat="24.59229" lon="108.789739">
<time>2016-10-06T16:14:39Z</time></trkpt>
<trkpt lat="24.59229" lon="108.789689">
<time>2016-10-06T16:14:40Z</time></trkpt>
<trkpt lat="24.592289" lon="108.789489">
<time>2016-10-06T16:14:41Z</time></trkpt>
<trkpt lat="24.592479" lon="108.788948">
<time>2016-10-06T16:14:42Z</time></trkpt>
<trkpt lat="24.592728" lon="108.788558">
<time>2016-10-06T16:14:43Z</time></trkpt>
<trkpt lat="24.593218" lon="108.788458">
<time>2016-10-06T16:14:44Z</time></trkpt>
<trkpt lat="24.593578" lon="108.788227">
<time>2016-10-06T16:14:45Z</time></trkpt>
<trkpt lat="24.593807" lon="108.787927">
<time>2016-10-06T16:14:46Z</time></trkpt>
<trkpt lat="24.593977" lon="108.787667">
<time>2016-10-06T16:14:47Z</time></trkpt>
<trkpt lat="24.594076" lon="108.787116">
<time>2016-10-06T16:14:48Z</time></trkpt>
<trkpt lat="24.594135" lon="108.786436">
<time>2016-10-06T16:14:49Z</time></trkpt>
<trkpt lat="24.594205" lon="108.785895">
<time>2016-10-06T16:14:50Z</time></trkpt>
<trkpt lat="24.594205" lon="108.785865">
<time>2016-10-06T16:14:51Z</time></trkpt>
<trkpt lat="24.594014" lon="108.785354">
<time>2016-10-06T16:14:52Z</time></trkpt>
<trkpt lat="24.593923" lon="108.784964">
<time>2016-10-06T16:14:53Z</time></trkpt>
<trkpt lat="24.593753" lon="108.784554">
<time>2016-10-06T16:14:54Z</time></trkpt>
<trkpt lat="24.593382" lon="108.784123">
<time>2016-10-06T16:14:55Z</time></trkpt>
<trkpt lat="24.592952" lon="108.783773">
<time>2016-10-06T16:14:56Z</time></trkpt>
<trkpt lat="24.592671" lon="108.783293">
<time>2016-10-06T16:14:57Z</time></trkpt>
<trkpt lat="24.592581" lon="108.783012">
<time>2016-10-06T16:14:58Z</time></trkpt>
<trkpt lat="24.5926" lon="108.782612">
<time>2016-10-06T16:14:59Z</time></trkpt>
<trkpt lat="24.59255" lon="108.782402">
<time>2016-10-06T16:15:00Z</time></trkpt>
<trkpt lat="24.59244" lon="108.782282">
<time>2016-10-06T16:15:01Z</time></trkpt>
<trkpt lat="24.59222" lon="108.782112">
<time>2016-10-06T16:15:02Z</time></trkpt>
<trkpt lat="24.592119" lon="108.781931">
<time>2016-10-06T16:15:03Z</time></trkpt>
<trkpt lat="24.592109" lon="108.781491">
<time>2016-10-06T16:15:04Z</time></trkpt>
<trkpt lat="24.592048" lon="108.78089">
<time>2016-10-06T16:15:05Z</time></trkpt>
<trkpt lat="24.591777" lon="108.78031">
<time>2016-10-06T16:15:06Z</time></trkpt>
<trkpt lat="24.591516" lon="108.779629">
<time>2016-10-06T16:15:07Z</time></trkpt>
<trkpt lat="24.591356" lon="108.779129">
<time>2016-10-06T16:15:08Z</time></trkpt>
<trkpt lat="24.591435" lon="108.778719">
<time>2016-10-06T16:15:09Z</time></trkpt>
<trkpt lat="24.591515" lon="108.778288">
<time>2016-10-06T16:15:10Z</time></trkpt>
<trkpt lat="24.591564" lon="108.777848">
<time>2016-10-06T16:15:11Z</time></trkpt>
<trkpt lat="24.591464" lon="108.777478">
<time>2016-10-06T16:15:12Z</time></trkpt>
<trkpt lat="24.591204" lon="108.777087">
<time>2016-10-06T16:15:13Z</time></trkpt>
<trkpt lat="24.590943" lon="108.776777">
<time>2016-10-06T16:15:14Z</time></trkpt>
<trkpt lat="24.590323" lon="108.776527">
<time>2016-10-06T16:15:15Z</time></trkpt>
<trkpt lat="24.590133" lon="108.776497">
<time>2016-10-06T16:15:16Z</time></trkpt>
<trkpt lat="24.589943" lon="108.776347">
<time>2016-10-06T16:15:17Z</time></trkpt>
<trkpt lat="24.589583" lon="108.776267">
<time>2016-10-06T16:15:18Z</time></trkpt>
<trkpt lat="24.589372" lon="108.776177">
<time>2016-10-06T16:15:19Z</time></trkpt>
<trkpt lat="24.589252" lon="108.776117">
<time>2016-10-06T16:15:20Z</time></trkpt>
<trkpt lat="24.588892" lon="108.775707">
<time>2016-10-06T16:15:21Z</time></trkpt>
<trkpt lat="24.588551" lon="108.775116">
<time>2016-10-06T16:15:22Z</time></trkpt>
<trkpt lat="24.588541" lon="108.775086">
<time>2016-10-06T16:15:23Z</time></trkpt>
<trkpt lat="24.588401" lon="108.774616">
<time>2016-10-06T16:15:24Z</time></trkpt>
<trkpt lat="24.588241" lon="108.774426">
<time>2016-10-06T16:15:25Z</time></trkpt>
<trkpt lat="24.58815" lon="108.774276">
<time>2016-10-06T16:15:26Z</time></trkpt>
<trkpt lat="24.58828" lon="108.773925">
<time>2016-10-06T16:15:27Z</time></trkpt>
<trkpt lat="24.58835" lon="108.773785">
<time>2016-10-06T16:15:28Z</time></trkpt>
<trkpt lat="24.58828" lon="108.773465">
<time>2016-10-06T16:15:29Z</time></trkpt>
<trkpt lat="24.587849" lon="108.773165">
<time>2016-10-06T16:15:30Z</time></trkpt>
<trkpt lat="24.587599" lon="108.772895">
<time>2016-10-06T16:15:31Z</time></trkpt>
<trkpt lat="24.587258" lon="108.772204">
<time>2016-10-06T16:15:32Z</time></trkpt>
<trkpt lat="24.586798" lon="108.771524">
<time>2016-10-06T16:15:33Z</time></trkpt>
<trkpt lat="24.586437" lon="108.771094">
<time>2016-10-06T16:15:34Z</time></trkpt>
<trkpt lat="24.586047" lon="108.770854">
<time>2016-10-06T16:15:35Z</time></trkpt>
<trkpt lat="24.586027" lon="108.770854">
<time>2016-10-06T16:15:36Z</time></trkpt>
<trkpt lat="24.585617" lon="108.770734">
<time>2016-10-06T16:15:37Z</time></trkpt>
<trkpt lat="24.585116" lon="108.770344">
<time>2016-10-06T16:15:38Z</time></trkpt>
<trkpt lat="24.584256" lon="108.769703">
<time>2016-10-06T16:15:39Z</time></trkpt>
<trkpt lat="24.583345" lon="108.769023">
<time>2016-10-06T16:15:40Z</time></trkpt>
<trkpt lat="24.583335" lon="108.769013">
<time>2016-10-06T16:15:41Z</time></trkpt>
<trkpt lat="24.583205" lon="108.768913">
<time>2016-10-06T16:15:42Z</time></trkpt>
<trkpt lat="24.582695" lon="108.768693">
<time>2016-10-06T16:15:43Z</time></trkpt>
<trkpt lat="24.582375" lon="108.768563">
<time>2016-10-06T16:15:44Z</time></trkpt>
<trkpt lat="24.582175" lon="108.768343">
<time>2016-10-06T16:15:45Z</time></trkpt>
<trkpt lat="24.582024" lon="108.768203">
<time>2016-10-06T16:15:46Z</time></trkpt>
<trkpt lat="24.582024" lon="108.768193">
<time>2016-10-06T16:15:47Z</time></trkpt>
<trkpt lat="24.581194" lon="108.768163">
<time>2016-10-06T16:15:48Z</time></trkpt>
<trkpt lat="24.580514" lon="108.767943">
<time>2016-10-06T16:15:49Z</time></trkpt>
<trkpt lat="24.579934" lon="108.767783">
<time>2016-10-06T16:15:50Z</time></trkpt>
<trkpt lat="24.579343" lon="108.767002">
<time>2016-10-06T16:15:51Z</time></trkpt>
<trkpt lat="24.578763" lon="108.766122">
<time>2016-10-06T16:15:52Z</time></trkpt>
<trkpt lat="24.578332" lon="108.765012">
<time>2016-10-06T16:15:53Z</time></trkpt>
<trkpt lat="24.578061" lon="108.764522">
<time>2016-10-06T16:15:54Z</time></trkpt>
<trkpt lat="24.577581" lon="108.764412">
<time>2016-10-06T16:15:55Z</time></trkpt>
<trkpt lat="24.576901" lon="108.764402">
<time>2016-10-06T16:15:56Z</time></trkpt>
<trkpt lat="24.576681" lon="108.764162">
<time>2016-10-06T16:15:57Z</time></trkpt>
<trkpt lat="24.576331" lon="108.763841">
<time>2016-10-06T16:15:58Z</time></trkpt>
<trkpt lat="24.57547" lon="108.762661">
<time>2016-10-06T16:15:59Z</time></trkpt>
<trkpt lat="24.574509" lon="108.761211">
<time>2016-10-06T16:16:00Z</time></trkpt>
<trkpt lat="24.574269" lon="108.761081">
<time>2016-10-06T16:16:01Z</time></trkpt>
<trkpt lat="24.573579" lon="108.760701">
<time>2016-10-06T16:16:02Z</time></trkpt>
<trkpt lat="24.573259" lon="108.760661">
<time>2016-10-06T16:16:03Z</time></trkpt>
<trkpt lat="24.572939" lon="108.760641">
<time>2016-10-06T16:16:04Z</time></trkpt>
<trkpt lat="24.572408" lon="108.760291">
<time>2016-10-06T16:16:05Z</time></trkpt>
<trkpt lat="24.572018" lon="108.760111">
<time>2016-10-06T16:16:06Z</time></trkpt>
<trkpt lat="24.572018" lon="108.760111">
<time>2016-10-06T16:16:07Z</time></trkpt>
<trkpt lat="24.572028" lon="108.759891">
<time>2016-10-06T16:16:08Z</time></trkpt>
<trkpt lat="24.571918" lon="108.759341">
<time>2016-10-06T16:16:09Z</time></trkpt>
<trkpt lat="24.571697" lon="108.758541">
<time>2016-10-06T16:16:10Z</time></trkpt>
<trkpt lat="24.571827" lon="108.757811">
<time>2016-10-06T16:16:11Z</time></trkpt>
<trkpt lat="24.571877" lon="108.757341">
<time>2016-10-06T16:16:12Z</time></trkpt>
<trkpt lat="24.571907" lon="108.756811">
<time>2016-10-06T16:16:13Z</time></trkpt>
<trkpt lat="24.571877" lon="108.756471">
<time>2016-10-06T16:16:14Z</time></trkpt>
<trkpt lat="24.571456" lon="108.755961">
<time>2016-10-06T16:16:15Z</time></trkpt>
<trkpt lat="24.571226" lon="108.755691">
<time>2016-10-06T16:16:16Z</time></trkpt>
<trkpt lat="24.571206" lon="108.755661">
<time>2016-10-06T16:16:17Z</time></trkpt>
<trkpt lat="24.570936" lon="108.755301">
<time>2016-10-06T16:16:18Z</time></trkpt>
<trkpt lat="24.570776" lon="108.754981">
<time>2016-10-06T16:16:19Z</time></trkpt>
<trkpt lat="24.569606" lon="108.754181">
<time>2016-10-06T16:16:20Z</time></trkpt>
<trkpt lat="24.568545" lon="108.753691">
<time>2016-10-06T16:16:21Z</time></trkpt>
<trkpt lat="24.567065" lon="108.753561">
<time>2016-10-06T16:16:22Z</time></trkpt>
<trkpt lat="24.566505" lon="108.753691">
<time>2016-10-06T16:16:23Z</time></trkpt>
<trkpt lat="24.566445" lon="108.753701">
<time>2016-10-06T16:16:24Z</time></trkpt>
<trkpt lat="24.565485" lon="108.753861">
<time>2016-10-06T16:16:25Z</time></trkpt>
<trkpt lat="24.564655" lon="108.753621">
<time>2016-10-06T16:16:26Z</time></trkpt>
<trkpt lat="24.563855" lon="108.753311">
<time>2016-10-06T16:16:27Z</time></trkpt>
<trkpt lat="24.562935" lon="108.752902">
<time>2016-10-06T16:16:28Z</time></trkpt>
<trkpt lat="24.562775" lon="108.752842">
<time>2016-10-06T16:16:29Z</time></trkpt>
<trkpt lat="24.562685" lon="108.752752">
<time>2016-10-06T16:16:30Z</time></trkpt>
<trkpt lat="24.562675" lon="108.752512">
<time>2016-10-06T16:16:31Z</time></trkpt>
<trkpt lat="24.562684" lon="108.752252">
<time>2016-10-06T16:16:32Z</time></trkpt>
<trkpt lat="24.562884" lon="108.751952">
<time>2016-10-06T16:16:33Z</time></trkpt>
<trkpt lat="24.562944" lon="108.751712">
<time>2016-10-06T16:16:34Z</time></trkpt>
<trkpt lat="24.562894" lon="108.751442">
<time>2016-10-06T16:16:35Z</time></trkpt>
<trkpt lat="24.562614" lon="108.751132">
<time>2016-10-06T16:16:36Z</time></trkpt>
<trkpt lat="24.562354" lon="108.750662">
<time>2016-10-06T16:16:37Z</time></trkpt>
<trkpt lat="24.562144" lon="108.750302">
<time>2016-10-06T16:16:38Z</time></trkpt>
<trkpt lat="24.562114" lon="108.750212">
<time>2016-10-06T16:16:39Z</time></trkpt>
<trkpt lat="24.562094" lon="108.750132">
<time>2016-10-06T16:16:40Z</time></trkpt>
<trkpt lat="24.562024" lon="108.750002">
<time>2016-10-06T16:16:41Z</time></trkpt>
<trkpt lat="24.561854" lon="108.749632">
<time>2016-10-06T16:16:42Z</time></trkpt>
<trkpt lat="24.561604" lon="108.749223">
<time>2016-10-06T16:16:43Z</time></trkpt>
<trkpt lat="24.561504" lon="108.748883">
<time>2016-10-06T16:16:44Z</time></trkpt>
<trkpt lat="24.561474" lon="108.748533">
<time>2016-10-06T16:16:45Z</time></trkpt>
<trkpt lat="24.561294" lon="108.748453">
<time>2016-10-06T16:16:46Z</time></trkpt>
<trkpt lat="24.560994" lon="108.748293">
<time>2016-10-06T16:16:47Z</time></trkpt>
<trkpt lat="24.560664" lon="108.748013">
<time>2016-10-06T16:16:48Z</time></trkpt>
<trkpt lat="24.560324" lon="108.747633">
<time>2016-10-06T16:16:49Z</time></trkpt>
<trkpt lat="24.559894" lon="108.747323">
<time>2016-10-06T16:16:50Z</time></trkpt>
<trkpt lat="24.559343" lon="108.747023">
<time>2016-10-06T16:16:51Z</time></trkpt>
<trkpt lat="24.558913" lon="108.746933">
<time>2016-10-06T16:16:52Z</time></trkpt>
<trkpt lat="24.558643" lon="108.746754">
<time>2016-10-06T16:16:53Z</time></trkpt>
<trkpt lat="24.558433" lon="108.746724">
<time>2016-10-06T16:16:54Z</time></trkpt>
<trkpt lat="24.558263" lon="108.746504">
<time>2016-10-06T16:16:55Z</time></trkpt>
<trkpt lat="24.558033" lon="108.746204">
<time>2016-10-06T16:16:56Z</time></trkpt>
<trkpt lat="24.557773" lon="108.746054">
<time>2016-10-06T16:16:57Z</time></trkpt>
<trkpt lat="24.557573" lon="108.745934">
<time>2016-10-06T16:16:58Z</time></trkpt>
<trkpt lat="24.557403" lon="108.745834">
<time>2016-10-06T16:16:59Z</time></trkpt>
<trkpt lat="24.557213" lon="108.745574">
<time>2016-10-06T16:17:00Z</time></trkpt>
<trkpt lat="24.557043" lon="108.745524">
<time>2016-10-06T16:17:01Z</time></trkpt>
<trkpt lat="24.556733" lon="108.745494">
<time>2016-10-06T16:17:02Z</time></trkpt>
<trkpt lat="24.556473" lon="108.745344">
<time>2016-10-06T16:17:03Z</time></trkpt>
<trkpt lat="24.556073" lon="108.745014">
<time>2016-10-06T16:17:04Z</time></trkpt>
<trkpt lat="24.556033" lon="108.744984">
<time>2016-10-06T16:17:05Z</time></trkpt>
<trkpt lat="24.555783" lon="108.744785">
<time>2016-10-06T16:17:06Z</time></trkpt>
<trkpt lat="24.555663" lon="108.744435">
<time>2016-10-06T16:17:07Z</time></trkpt>
<trkpt lat="24.555623" lon="108.743895">
<time>2016-10-06T16:17:08Z</time></trkpt>
<trkpt lat="24.555633" lon="108.743285">
<time>2016-10-06T16:17:09Z</time></trkpt>
<trkpt lat="24.555613" lon="108.742626">
<time>2016-10-06T16:17:10Z</time></trkpt>
<trkpt lat="24.555573" lon="108.742226">
<time>2016-10-06T16:17:11Z</time></trkpt>
<trkpt lat="24.555413" lon="108.741886">
<time>2016-10-06T16:17:12Z</time></trkpt>
<trkpt lat="24.555193" lon="108.741656">
<time>2016-10-06T16:17:13Z</time></trkpt>
<trkpt lat="24.555013" lon="108.741656">
<time>2016-10-06T16:17:14Z</time></trkpt>
<trkpt lat="24.554693" lon="108.741606">
<time>2016-10-06T16:17:15Z</time></trkpt>
<trkpt lat="24.554693" lon="108.741606">
<time>2016-10-06T16:17:16Z</time></trkpt>
<trkpt lat="24.554653" lon="108.741456">
<time>2016-10-06T16:17:17Z</time></trkpt>
<trkpt lat="24.554593" lon="108.741107">
<time>2016-10-06T16:17:18Z</time></trkpt>
<trkpt lat="24.554414" lon="108.740597">
<time>2016-10-06T16:17:19Z</time></trkpt>
<trkpt lat="24.554094" lon="108.740257">
<time>2016-10-06T16:17:20Z</time></trkpt>
<trkpt lat="24.553774" lon="108.739748">
<time>2016-10-06T16:17:21Z</time></trkpt>
<trkpt lat="24.553474" lon="108.739418">
<time>2016-10-06T16:17:22Z</time></trkpt>
<trkpt lat="24.553024" lon="108.739098">
<time>2016-10-06T16:17:23Z</time></trkpt>
<trkpt lat="24.552774" lon="108.738828">
<time>2016-10-06T16:17:24Z</time></trkpt>
<trkpt lat="24.552514" lon="108.738549">
<time>2016-10-06T16:17:25Z</time></trkpt>
<trkpt lat="24.552374" lon="108.738049">
<time>2016-10-06T16:17:26Z</time></trkpt>
<trkpt lat="24.552344" lon="108.737659">
<time>2016-10-06T16:17:27Z</time></trkpt>
<trkpt lat="24.552194" lon="108.737379">
<time>2016-10-06T16:17:28Z</time></trkpt>
<trkpt lat="24.551804" lon="108.73688">
<time>2016-10-06T16:17:29Z</time></trkpt>
<trkpt lat="24.551644" lon="108.73647">
<time>2016-10-06T16:17:30Z</time></trkpt>
<trkpt lat="24.551595" lon="108.73641">
<time>2016-10-06T16:17:31Z</time></trkpt>
<trkpt lat="24.551535" lon="108.736101">
<time>2016-10-06T16:17:32Z</time></trkpt>
<trkpt lat="24.551425" lon="108.735871">
<time>2016-10-06T16:17:33Z</time></trkpt>
<trkpt lat="24.551285" lon="108.735821">
<time>2016-10-06T16:17:34Z</time></trkpt>
<trkpt lat="24.550995" lon="108.735891">
<time>2016-10-06T16:17:35Z</time></trkpt>
<trkpt lat="24.550585" lon="108.736011">
<time>2016-10-06T16:17:36Z</time></trkpt>
<trkpt lat="24.550285" lon="108.736031">
<time>2016-10-06T16:17:37Z</time></trkpt>
<trkpt lat="24.549895" lon="108.735941">
<time>2016-10-06T16:17:38Z</time></trkpt>
<trkpt lat="24.549255" lon="108.735621">
<time>2016-10-06T16:17:39Z</time></trkpt>
<trkpt lat="24.548785" lon="108.735191">
<time>2016-10-06T16:17:40Z</time></trkpt>
<trkpt lat="24.548705" lon="108.734972">
<time>2016-10-06T16:17:41Z</time></trkpt>
<trkpt lat="24.548525" lon="108.734852">
<time>2016-10-06T16:17:42Z</time></trkpt>
<trkpt lat="24.548285" lon="108.734622">
<time>2016-10-06T16:17:43Z</time></trkpt>
<trkpt lat="24.547975" lon="108.734342">
<time>2016-10-06T16:17:44Z</time></trkpt>
<trkpt lat="24.547465" lon="108.734003">
<time>2016-10-06T16:17:45Z</time></trkpt>
<trkpt lat="24.547185" lon="108.733893">
<time>2016-10-06T16:17:46Z</time></trkpt>
<trkpt lat="24.546325" lon="108.733393">
<time>2016-10-06T16:17:47Z</time></trkpt>
<trkpt lat="24.545975" lon="108.733283">
<time>2016-10-06T16:17:48Z</time></trkpt>
<trkpt lat="24.545625" lon="108.733213">
<time>2016-10-06T16:17:49Z</time></trkpt>
<trkpt lat="24.545025" lon="108.733064">
<time>2016-10-06T16:17:50Z</time></trkpt>
<trkpt lat="24.544485" lon="108.733064">
<time>2016-10-06T16:17:51Z</time></trkpt>
<trkpt lat="24.544335" lon="108.733124">
<time>2016-10-06T16:17:52Z</time></trkpt>
<trkpt lat="24.544045" lon="108.733204">
<time>2016-10-06T16:17:53Z</time></trkpt>
<trkpt lat="24.543575" lon="108.733274">
<time>2016-10-06T16:17:54Z</time></trkpt>
<trkpt lat="24.543435" lon="108.733184">
<time>2016-10-06T16:17:55Z</time></trkpt>
<trkpt lat="24.543115" lon="108.732784">
<time>2016-10-06T16:17:56Z</time></trkpt>
<trkpt lat="24.542915" lon="108.732674">
<time>2016-10-06T16:17:57Z</time></trkpt>
<trkpt lat="24.542495" lon="108.732684">
<time>2016-10-06T16:17:58Z</time></trkpt>
<trkpt lat="24.542135" lon="108.732764">
<time>2016-10-06T16:17:59Z</time></trkpt>
<trkpt lat="24.541895" lon="108.732804">
<time>2016-10-06T16:18:00Z</time></trkpt>
<trkpt lat="24.541595" lon="108.732664">
<time>2016-10-06T16:18:01Z</time></trkpt>
<trkpt lat="24.540775" lon="108.732135">
<time>2016-10-06T16:18:02Z</time></trkpt>
<trkpt lat="24.540635" lon="108.731945">
<time>2016-10-06T16:18:03Z</time></trkpt>
<trkpt lat="24.540595" lon="108.731865">
<time>2016-10-06T16:18:04Z</time></trkpt>
<trkpt lat="24.540545" lon="108.731835">
<time>2016-10-06T16:18:05Z</time></trkpt>
<trkpt lat="24.540475" lon="108.731825">
<time>2016-10-06T16:18:06Z</time></trkpt>
<trkpt lat="24.540295" lon="108.731805">
<time>2016-10-06T16:18:07Z</time></trkpt>
<trkpt lat="24.539955" lon="108.731655">
<time>2016-10-06T16:18:08Z</time></trkpt>
<trkpt lat="24.539665" lon="108.731535">
<time>2016-10-06T16:18:09Z</time></trkpt>
<trkpt lat="24.539446" lon="108.731256">
<time>2016-10-06T16:18:10Z</time></trkpt>
<trkpt lat="24.539466" lon="108.730806">
<time>2016-10-06T16:18:11Z</time></trkpt>
<trkpt lat="24.539506" lon="108.730407">
<time>2016-10-06T16:18:12Z</time></trkpt>
<trkpt lat="24.539316" lon="108.730147">
<time>2016-10-06T16:18:13Z</time></trkpt>
<trkpt lat="24.539036" lon="108.729977">
<time>2016-10-06T16:18:14Z</time></trkpt>
<trkpt lat="24.538696" lon="108.729977">
<time>2016-10-06T16:18:15Z</time></trkpt>
<trkpt lat="24.538166" lon="108.729857">
<time>2016-10-06T16:18:16Z</time></trkpt>
<trkpt lat="24.537837" lon="108.729358">
<time>2016-10-06T16:18:17Z</time></trkpt>
<trkpt lat="24.537807" lon="108.729178">
<time>2016-10-06T16:18:18Z</time></trkpt>
<trkpt lat="24.537907" lon="108.729018">
<time>2016-10-06T16:18:19Z</time></trkpt>
<trkpt lat="24.537897" lon="108.728958">
<time>2016-10-06T16:18:20Z</time></trkpt>
<trkpt lat="24.537837" lon="108.728908">
<time>2016-10-06T16:18:21Z</time></trkpt>
<trkpt lat="24.537607" lon="108.728868">
<time>2016-10-06T16:18:22Z</time></trkpt>
<trkpt lat="24.537457" lon="108.728199">
<time>2016-10-06T16:18:23Z</time></trkpt>
<trkpt lat="24.537428" lon="108.72773">
<time>2016-10-06T16:18:24Z</time></trkpt>
<trkpt lat="24.537278" lon="108.72744">
<time>2016-10-06T16:18:25Z</time></trkpt>
<trkpt lat="24.536808" lon="108.72717">
<time>2016-10-06T16:18:26Z</time></trkpt>
<trkpt lat="24.536348" lon="108.727111">
<time>2016-10-06T16:18:27Z</time></trkpt>
<trkpt lat="24.536128" lon="108.726971">
<time>2016-10-06T16:18:28Z</time></trkpt>
<trkpt lat="24.535808" lon="108.726521">
<time>2016-10-06T16:18:29Z</time></trkpt>
<trkpt lat="24.535528" lon="108.726262">
<time>2016-10-06T16:18:30Z</time></trkpt>
<trkpt lat="24.535399" lon="108.725902">
<time>2016-10-06T16:18:31Z</time></trkpt>
<trkpt lat="24.535329" lon="108.725572">
<time>2016-10-06T16:18:32Z</time></trkpt>
<trkpt lat="24.535399" lon="108.725303">
<time>2016-10-06T16:18:33Z</time></trkpt>
<trkpt lat="24.535399" lon="108.725023">
<time>2016-10-06T16:18:34Z</time></trkpt>
<trkpt lat="24.53544" lon="108.724614">
<time>2016-10-06T16:18:35Z</time></trkpt>
<trkpt lat="24.53526" lon="108.724384">
<time>2016-10-06T16:18:36Z</time></trkpt>
<trkpt lat="24.53512" lon="108.724094">
<time>2016-10-06T16:18:37Z</time></trkpt>
<trkpt lat="24.53511" lon="108.723935">
<time>2016-10-06T16:18:38Z</time></trkpt>
<trkpt lat="24.535171" lon="108.723455">
<time>2016-10-06T16:18:39Z</time></trkpt>
<trkpt lat="24.535341" lon="108.723186">
<time>2016-10-06T16:18:40Z</time></trkpt>
<trkpt lat="24.534991" lon="108.722966">
<time>2016-10-06T16:18:41Z</time></trkpt>
<trkpt lat="24.534381" lon="108.722796">
<time>2016-10-06T16:18:42Z</time></trkpt>
<trkpt lat="24.533961" lon="108.722516">
<time>2016-10-06T16:18:43Z</time></trkpt>
<trkpt lat="24.533172" lon="108.721678">
<time>2016-10-06T16:18:44Z</time></trkpt>
<trkpt lat="24.532742" lon="108.721468">
<time>2016-10-06T16:18:45Z</time></trkpt>
<trkpt lat="24.532162" lon="108.721248">
<time>2016-10-06T16:18:46Z</time></trkpt>
<trkpt lat="24.531813" lon="108.720759">
<time>2016-10-06T16:18:47Z</time></trkpt>
<trkpt lat="24.531403" lon="108.720609">
<time>2016-10-06T16:18:48Z</time></trkpt>
<trkpt lat="24.531223" lon="108.720489">
<time>2016-10-06T16:18:49Z</time></trkpt>
<trkpt lat="24.531223" lon="108.720479">
<time>2016-10-06T16:18:50Z</time></trkpt>
<trkpt lat="24.531193" lon="108.72027">
<time>2016-10-06T16:18:51Z</time></trkpt>
<trkpt lat="24.531143" lon="108.72002">
<time>2016-10-06T16:18:52Z</time></trkpt>
<trkpt lat="24.531073" lon="108.719701">
<time>2016-10-06T16:18:53Z</time></trkpt>
<trkpt lat="24.530934" lon="108.719441">
<time>2016-10-06T16:18:54Z</time></trkpt>
<trkpt lat="24.530464" lon="108.718962">
<time>2016-10-06T16:18:55Z</time></trkpt>
<trkpt lat="24.530014" lon="108.718692">
<time>2016-10-06T16:18:56Z</time></trkpt>
<trkpt lat="24.529465" lon="108.718363">
<time>2016-10-06T16:18:57Z</time></trkpt>
<trkpt lat="24.529245" lon="108.718083">
<time>2016-10-06T16:18:58Z</time></trkpt>
<trkpt lat="24.529255" lon="108.717863">
<time>2016-10-06T16:18:59Z</time></trkpt>
<trkpt lat="24.529235" lon="108.717524">
<time>2016-10-06T16:19:00Z</time></trkpt>
<trkpt lat="24.529356" lon="108.717294">
<time>2016-10-06T16:19:01Z</time></trkpt>
<trkpt lat="24.529546" lon="108.717045">
<time>2016-10-06T16:19:02Z</time></trkpt>
<trkpt lat="24.529736" lon="108.716745">
<time>2016-10-06T16:19:03Z</time></trkpt>
<trkpt lat="24.529797" lon="108.716476">
<time>2016-10-06T16:19:04Z</time></trkpt>
<trkpt lat="24.529737" lon="108.716356">
<time>2016-10-06T16:19:05Z</time></trkpt>
<trkpt lat="24.529647" lon="108.716216">
<time>2016-10-06T16:19:06Z</time></trkpt>
<trkpt lat="24.529497" lon="108.715727">
<time>2016-10-06T16:19:07Z</time></trkpt>
<trkpt lat="24.529428" lon="108.715048">
<time>2016-10-06T16:19:08Z</time></trkpt>
<trkpt lat="24.529469" lon="108.714658">
<time>2016-10-06T16:19:09Z</time></trkpt>
<trkpt lat="24.529639" lon="108.714379">
<time>2016-10-06T16:19:10Z</time></trkpt>
<trkpt lat="24.529679" lon="108.714169">
<time>2016-10-06T16:19:11Z</time></trkpt>
<trkpt lat="24.52965" lon="108.71382">
<time>2016-10-06T16:19:12Z</time></trkpt>
<trkpt lat="24.52966" lon="108.71368">
<time>2016-10-06T16:19:13Z</time></trkpt>
<trkpt lat="24.52976" lon="108.71354">
<time>2016-10-06T16:19:14Z</time></trkpt>
<trkpt lat="24.52983" lon="108.713251">
<time>2016-10-06T16:19:15Z</time></trkpt>
<trkpt lat="24.52972" lon="108.713041">
<time>2016-10-06T16:19:16Z</time></trkpt>
<trkpt lat="24.52972" lon="108.713041">
<time>2016-10-06T16:19:17Z</time></trkpt>
<trkpt lat="24.529891" lon="108.712901">
<time>2016-10-06T16:19:18Z</time></trkpt>
<trkpt lat="24.529911" lon="108.712851">
<time>2016-10-06T16:19:19Z</time></trkpt>
<trkpt lat="24.529931" lon="108.712742">
<time>2016-10-06T16:19:20Z</time></trkpt>
<trkpt lat="24.529931" lon="108.712592">
<time>2016-10-06T16:19:21Z</time></trkpt>
<trkpt lat="24.529921" lon="108.712512">
<time>2016-10-06T16:19:22Z</time></trkpt>
<trkpt lat="24.529921" lon="108.712272">
<time>2016-10-06T16:19:23Z</time></trkpt>
<trkpt lat="24.529932" lon="108.712023">
<time>2016-10-06T16:19:24Z</time></trkpt>
<trkpt lat="24.529952" lon="108.711883">
<time>2016-10-06T16:19:25Z</time></trkpt>
<trkpt lat="24.529972" lon="108.711753">
<time>2016-10-06T16:19:26Z</time></trkpt>
<trkpt lat="24.530022" lon="108.711643">
<time>2016-10-06T16:19:27Z</time></trkpt>
<trkpt lat="24.530082" lon="108.711514">
<time>2016-10-06T16:19:28Z</time></trkpt>
<trkpt lat="24.530163" lon="108.711364">
<time>2016-10-06T16:19:29Z</time></trkpt>
<trkpt lat="24.530343" lon="108.711164">
<time>2016-10-06T16:19:30Z</time></trkpt>
<trkpt lat="24.530413" lon="108.711084">
<time>2016-10-06T16:19:31Z</time></trkpt>
<trkpt lat="24.530423" lon="108.711074">
<time>2016-10-06T16:19:32Z</time></trkpt>
<trkpt lat="24.530583" lon="108.710925">
<time>2016-10-06T16:19:33Z</time></trkpt>
<trkpt lat="24.530673" lon="108.710815">
<time>2016-10-06T16:19:34Z</time></trkpt>
<trkpt lat="24.530763" lon="108.710645">
<time>2016-10-06T16:19:35Z</time></trkpt>
<trkpt lat="24.530894" lon="108.710426">
<time>2016-10-06T16:19:36Z</time></trkpt>
<trkpt lat="24.531104" lon="108.710146">
<time>2016-10-06T16:19:37Z</time></trkpt>
<trkpt lat="24.531174" lon="108.710096">
<time>2016-10-06T16:19:38Z</time></trkpt>
<trkpt lat="24.531194" lon="108.710086">
<time>2016-10-06T16:19:39Z</time></trkpt>
<trkpt lat="24.531324" lon="108.710016">
<time>2016-10-06T16:19:40Z</time></trkpt>
<trkpt lat="24.531414" lon="108.709966">
<time>2016-10-06T16:19:41Z</time></trkpt>
<trkpt lat="24.531525" lon="108.709876">
<time>2016-10-06T16:19:42Z</time></trkpt>
<trkpt lat="24.531665" lon="108.709667">
<time>2016-10-06T16:19:43Z</time></trkpt>
<trkpt lat="24.531815" lon="108.709367">
<time>2016-10-06T16:19:44Z</time></trkpt>
<trkpt lat="24.531895" lon="108.709198">
<time>2016-10-06T16:19:45Z</time></trkpt>
<trkpt lat="24.531946" lon="108.709058">
<time>2016-10-06T16:19:46Z</time></trkpt>
<trkpt lat="24.531986" lon="108.708918">
<time>2016-10-06T16:19:47Z</time></trkpt>
<trkpt lat="24.532026" lon="108.708778">
<time>2016-10-06T16:19:48Z</time></trkpt>
<trkpt lat="24.532247" lon="108.708259">
<time>2016-10-06T16:19:49Z</time></trkpt>
<trkpt lat="24.532407" lon="108.708">
<time>2016-10-06T16:19:50Z</time></trkpt>
<trkpt lat="24.532587" lon="108.70775">
<time>2016-10-06T16:19:51Z</time></trkpt>
<trkpt lat="24.532708" lon="108.707531">
<time>2016-10-06T16:19:52Z</time></trkpt>
<trkpt lat="24.532808" lon="108.707211">
<time>2016-10-06T16:19:53Z</time></trkpt>
<trkpt lat="24.532888" lon="108.707032">
<time>2016-10-06T16:19:54Z</time></trkpt>
<trkpt lat="24.532999" lon="108.706782">
<time>2016-10-06T16:19:55Z</time></trkpt>
<trkpt lat="24.533109" lon="108.706542">
<time>2016-10-06T16:19:56Z</time></trkpt>
<trkpt lat="24.533239" lon="108.706313">
<time>2016-10-06T16:19:57Z</time></trkpt>
<trkpt lat="24.53329" lon="108.706163">
<time>2016-10-06T16:19:58Z</time></trkpt>
<trkpt lat="24.533571" lon="108.705524">
<time>2016-10-06T16:19:59Z</time></trkpt>
<trkpt lat="24.533641" lon="108.705385">
<time>2016-10-06T16:20:00Z</time></trkpt>
<trkpt lat="24.533681" lon="108.705275">
<time>2016-10-06T16:20:01Z</time></trkpt>
<trkpt lat="24.533701" lon="108.705105">
<time>2016-10-06T16:20:02Z</time></trkpt>
<trkpt lat="24.533731" lon="108.704935">
<time>2016-10-06T16:20:03Z</time></trkpt>
<trkpt lat="24.533732" lon="108.704846">
<time>2016-10-06T16:20:04Z</time></trkpt>
<trkpt lat="24.533702" lon="108.704676">
<time>2016-10-06T16:20:05Z</time></trkpt>
<trkpt lat="24.533622" lon="108.704387">
<time>2016-10-06T16:20:06Z</time></trkpt>
<trkpt lat="24.533293" lon="108.703618">
<time>2016-10-06T16:20:07Z</time></trkpt>
<trkpt lat="24.532705" lon="108.70246">
<time>2016-10-06T16:20:08Z</time></trkpt>
<trkpt lat="24.532625" lon="108.702311">
<time>2016-10-06T16:20:09Z</time></trkpt>
<trkpt lat="24.532595" lon="108.702171">
<time>2016-10-06T16:20:10Z</time></trkpt>
<trkpt lat="24.532595" lon="108.702101">
<time>2016-10-06T16:20:11Z</time></trkpt>
<trkpt lat="24.532605" lon="108.702001">
<time>2016-10-06T16:20:12Z</time></trkpt>
<trkpt lat="24.532616" lon="108.701961">
<time>2016-10-06T16:20:13Z</time></trkpt>
<trkpt lat="24.532646" lon="108.701832">
<time>2016-10-06T16:20:14Z</time></trkpt>
<trkpt lat="24.532656" lon="108.701802">
<time>2016-10-06T16:20:15Z</time></trkpt>
<trkpt lat="24.532686" lon="108.701702">
<time>2016-10-06T16:20:16Z</time></trkpt>
<trkpt lat="24.532726" lon="108.701562">
<time>2016-10-06T16:20:17Z</time></trkpt>
<trkpt lat="24.532776" lon="108.701412">
<time>2016-10-06T16:20:18Z</time></trkpt>
<trkpt lat="24.532817" lon="108.701293">
<time>2016-10-06T16:20:19Z</time></trkpt>
<trkpt lat="24.532867" lon="108.701153">
<time>2016-10-06T16:20:20Z</time></trkpt>
<trkpt lat="24.532897" lon="108.701053">
<time>2016-10-06T16:20:21Z</time></trkpt>
<trkpt lat="24.532927" lon="108.700894">
<time>2016-10-06T16:20:22Z</time></trkpt>
<trkpt lat="24.532937" lon="108.700744">
<time>2016-10-06T16:20:23Z</time></trkpt>
<trkpt lat="24.532958" lon="108.700474">
<time>2016-10-06T16:20:24Z</time></trkpt>
<trkpt lat="24.53291" lon="108.699367">
<time>2016-10-06T16:20:25Z</time></trkpt>
<trkpt lat="24.53291" lon="108.699247">
<time>2016-10-06T16:20:26Z</time></trkpt>
<trkpt lat="24.532851" lon="108.698568">
<time>2016-10-06T16:20:27Z</time></trkpt>
<trkpt lat="24.532821" lon="108.698229">
<time>2016-10-06T16:20:28Z</time></trkpt>
<trkpt lat="24.532863" lon="108.697051">
<time>2016-10-06T16:20:29Z</time></trkpt>
<trkpt lat="24.532863" lon="108.697012">
<time>2016-10-06T16:20:30Z</time></trkpt>
<trkpt lat="24.532754" lon="108.696383">
<time>2016-10-06T16:20:31Z</time></trkpt>
<trkpt lat="24.532754" lon="108.696213">
<time>2016-10-06T16:20:32Z</time></trkpt>
<trkpt lat="24.532735" lon="108.696024">
<time>2016-10-06T16:20:33Z</time></trkpt>
<trkpt lat="24.532555" lon="108.695585">
<time>2016-10-06T16:20:34Z</time></trkpt>
<trkpt lat="24.532417" lon="108.694786">
<time>2016-10-06T16:20:35Z</time></trkpt>
<trkpt lat="24.532338" lon="108.694038">
<time>2016-10-06T16:20:36Z</time></trkpt>
<trkpt lat="24.532358" lon="108.693779">
<time>2016-10-06T16:20:37Z</time></trkpt>
<trkpt lat="24.532389" lon="108.693539">
<time>2016-10-06T16:20:38Z</time></trkpt>
<trkpt lat="24.532379" lon="108.693359">
<time>2016-10-06T16:20:39Z</time></trkpt>
<trkpt lat="24.532369" lon="108.69321">
<time>2016-10-06T16:20:40Z</time></trkpt>
<trkpt lat="24.53232" lon="108.69306">
<time>2016-10-06T16:20:41Z</time></trkpt>
<trkpt lat="24.53225" lon="108.69296">
<time>2016-10-06T16:20:42Z</time></trkpt>
<trkpt lat="24.531801" lon="108.692362">
<time>2016-10-06T16:20:43Z</time></trkpt>
<trkpt lat="24.531771" lon="108.692272">
<time>2016-10-06T16:20:44Z</time></trkpt>
<trkpt lat="24.531631" lon="108.691883">
<time>2016-10-06T16:20:45Z</time></trkpt>
<trkpt lat="24.531602" lon="108.691633">
<time>2016-10-06T16:20:46Z</time></trkpt>
<trkpt lat="24.531582" lon="108.691424">
<time>2016-10-06T16:20:47Z</time></trkpt>
<trkpt lat="24.531592" lon="108.691314">
<time>2016-10-06T16:20:48Z</time></trkpt>
<trkpt lat="24.531593" lon="108.691254">
<time>2016-10-06T16:20:49Z</time></trkpt>
<trkpt lat="24.531623" lon="108.691134">
<time>2016-10-06T16:20:50Z</time></trkpt>
<trkpt lat="24.531693" lon="108.690955">
<time>2016-10-06T16:20:51Z</time></trkpt>
<trkpt lat="24.531823" lon="108.690785">
<time>2016-10-06T16:20:52Z</time></trkpt>
<trkpt lat="24.532024" lon="108.690256">
<time>2016-10-06T16:20:53Z</time></trkpt>
<trkpt lat="24.532176" lon="108.689548">
<time>2016-10-06T16:20:54Z</time></trkpt>
<trkpt lat="24.532216" lon="108.689378">
<time>2016-10-06T16:20:55Z</time></trkpt>
<trkpt lat="24.532266" lon="108.689149">
<time>2016-10-06T16:20:56Z</time></trkpt>
<trkpt lat="24.532337" lon="108.68883">
<time>2016-10-06T16:20:57Z</time></trkpt>
<trkpt lat="24.532408" lon="108.688391">
<time>2016-10-06T16:20:58Z</time></trkpt>
<trkpt lat="24.532399" lon="108.687592">
<time>2016-10-06T16:20:59Z</time></trkpt>
<trkpt lat="24.53247" lon="108.686754">
<time>2016-10-06T16:21:00Z</time></trkpt>
<trkpt lat="24.532622" lon="108.686016">
<time>2016-10-06T16:21:01Z</time></trkpt>
<trkpt lat="24.532662" lon="108.685747">
<time>2016-10-06T16:21:02Z</time></trkpt>
<trkpt lat="24.532844" lon="108.684889">
<time>2016-10-06T16:21:03Z</time></trkpt>
<trkpt lat="24.533065" lon="108.68437">
<time>2016-10-06T16:21:04Z</time></trkpt>
<trkpt lat="24.533196" lon="108.683642">
<time>2016-10-06T16:21:05Z</time></trkpt>
<trkpt lat="24.533317" lon="108.683193">
<time>2016-10-06T16:21:06Z</time></trkpt>
<trkpt lat="24.533638" lon="108.682424">
<time>2016-10-06T16:21:07Z</time></trkpt>
<trkpt lat="24.533919" lon="108.681955">
<time>2016-10-06T16:21:08Z</time></trkpt>
<trkpt lat="24.53419" lon="108.681526">
<time>2016-10-06T16:21:09Z</time></trkpt>
<trkpt lat="24.534471" lon="108.681097">
<time>2016-10-06T16:21:10Z</time></trkpt>
<trkpt lat="24.534722" lon="108.680748">
<time>2016-10-06T16:21:11Z</time></trkpt>
<trkpt lat="24.535132" lon="108.680399">
<time>2016-10-06T16:21:12Z</time></trkpt>
<trkpt lat="24.535713" lon="108.67998">
<time>2016-10-06T16:21:13Z</time></trkpt>
<trkpt lat="24.537005" lon="108.679222">
<time>2016-10-06T16:21:14Z</time></trkpt>
<trkpt lat="24.538016" lon="108.678703">
<time>2016-10-06T16:21:15Z</time></trkpt>
<trkpt lat="24.538557" lon="108.678274">
<time>2016-10-06T16:21:16Z</time></trkpt>
<trkpt lat="24.538888" lon="108.677855">
<time>2016-10-06T16:21:17Z</time></trkpt>
<trkpt lat="24.539008" lon="108.677735">
<time>2016-10-06T16:21:18Z</time></trkpt>
<trkpt lat="24.539138" lon="108.677576">
<time>2016-10-06T16:21:19Z</time></trkpt>
<trkpt lat="24.539228" lon="108.677456">
<time>2016-10-06T16:21:20Z</time></trkpt>
<trkpt lat="24.539279" lon="108.677356">
<time>2016-10-06T16:21:21Z</time></trkpt>
<trkpt lat="24.539299" lon="108.677246">
<time>2016-10-06T16:21:22Z</time></trkpt>
<trkpt lat="24.539289" lon="108.677117">
<time>2016-10-06T16:21:23Z</time></trkpt>
<trkpt lat="24.53935" lon="108.676608">
<time>2016-10-06T16:21:24Z</time></trkpt>
<trkpt lat="24.539511" lon="108.67595">
<time>2016-10-06T16:21:25Z</time></trkpt>
<trkpt lat="24.539652" lon="108.675381">
<time>2016-10-06T16:21:26Z</time></trkpt>
<trkpt lat="24.539764" lon="108.674732">
<time>2016-10-06T16:21:27Z</time></trkpt>
<trkpt lat="24.539784" lon="108.674673">
<time>2016-10-06T16:21:28Z</time></trkpt>
<trkpt lat="24.539784" lon="108.674673">
<time>2016-10-06T16:21:29Z</time></trkpt>
<trkpt lat="24.539574" lon="108.674304">
<time>2016-10-06T16:21:30Z</time></trkpt>
<trkpt lat="24.539415" lon="108.674034">
<time>2016-10-06T16:21:31Z</time></trkpt>
<trkpt lat="24.539295" lon="108.673845">
<time>2016-10-06T16:21:32Z</time></trkpt>
<trkpt lat="24.539156" lon="108.673525">
<time>2016-10-06T16:21:33Z</time></trkpt>
<trkpt lat="24.539116" lon="108.673436">
<time>2016-10-06T16:21:34Z</time></trkpt>
<trkpt lat="24.539116" lon="108.673306">
<time>2016-10-06T16:21:35Z</time></trkpt>
<trkpt lat="24.539127" lon="108.673057">
<time>2016-10-06T16:21:36Z</time></trkpt>
<trkpt lat="24.539147" lon="108.672747">
<time>2016-10-06T16:21:37Z</time></trkpt>
<trkpt lat="24.539178" lon="108.672398">
<time>2016-10-06T16:21:38Z</time></trkpt>
<trkpt lat="24.539178" lon="108.672398">
<time>2016-10-06T16:21:39Z</time></trkpt>
<trkpt lat="24.538278" lon="108.672239">
<time>2016-10-06T16:21:40Z</time></trkpt>
<trkpt lat="24.537048" lon="108.672049">
<time>2016-10-06T16:21:41Z</time></trkpt>
<trkpt lat="24.536918" lon="108.672029">
<time>2016-10-06T16:21:42Z</time></trkpt>
<trkpt lat="24.536618" lon="108.671989">
<time>2016-10-06T16:21:43Z</time></trkpt>
<trkpt lat="24.536318" lon="108.671939">
<time>2016-10-06T16:21:44Z</time></trkpt>
<trkpt lat="24.536288" lon="108.671929">
<time>2016-10-06T16:21:45Z</time></trkpt>
<trkpt lat="24.535999" lon="108.67187">
<time>2016-10-06T16:21:46Z</time></trkpt>
<trkpt lat="24.535709" lon="108.67175">
<time>2016-10-06T16:21:47Z</time></trkpt>
<trkpt lat="24.535399" lon="108.67157">
<time>2016-10-06T16:21:48Z</time></trkpt>
<trkpt lat="24.535179" lon="108.671431">
<time>2016-10-06T16:21:49Z</time></trkpt>
<trkpt lat="24.53499" lon="108.671311">
<time>2016-10-06T16:21:50Z</time></trkpt>
<trkpt lat="24.53475" lon="108.671171">
<time>2016-10-06T16:21:51Z</time></trkpt>
<trkpt lat="24.5345" lon="108.671002">
<time>2016-10-06T16:21:52Z</time></trkpt>
<trkpt lat="24.53428" lon="108.670862">
<time>2016-10-06T16:21:53Z</time></trkpt>
<trkpt lat="24.534041" lon="108.670693">
<time>2016-10-06T16:21:54Z</time></trkpt>
<trkpt lat="24.533851" lon="108.670513">
<time>2016-10-06T16:21:55Z</time></trkpt>
<trkpt lat="24.533721" lon="108.670373">
<time>2016-10-06T16:21:56Z</time></trkpt>
<trkpt lat="24.533641" lon="108.670274">
<time>2016-10-06T16:21:57Z</time></trkpt>
<trkpt lat="24.533572" lon="108.670154">
<time>2016-10-06T16:21:58Z</time></trkpt>
<trkpt lat="24.533442" lon="108.669944">
<time>2016-10-06T16:21:59Z</time></trkpt>
<trkpt lat="24.533362" lon="108.669785">
<time>2016-10-06T16:22:00Z</time></trkpt>
<trkpt lat="24.533332" lon="108.669705">
<time>2016-10-06T16:22:01Z</time></trkpt>
<trkpt lat="24.533203" lon="108.669416">
<time>2016-10-06T16:22:02Z</time></trkpt>
<trkpt lat="24.533103" lon="108.669216">
<time>2016-10-06T16:22:03Z</time></trkpt>
<trkpt lat="24.533043" lon="108.669116">
<time>2016-10-06T16:22:04Z</time></trkpt>
<trkpt lat="24.532974" lon="108.669017">
<time>2016-10-06T16:22:05Z</time></trkpt>
<trkpt lat="24.532874" lon="108.668927">
<time>2016-10-06T16:22:06Z</time></trkpt>
<trkpt lat="24.532784" lon="108.668867">
<time>2016-10-06T16:22:07Z</time></trkpt>
<trkpt lat="24.532604" lon="108.668777">
<time>2016-10-06T16:22:08Z</time></trkpt>
<trkpt lat="24.532354" lon="108.668737">
<time>2016-10-06T16:22:09Z</time></trkpt>
<trkpt lat="24.531784" lon="108.668728">
<time>2016-10-06T16:22:10Z</time></trkpt>
<trkpt lat="24.531504" lon="108.668728">
<time>2016-10-06T16:22:11Z</time></trkpt>
<trkpt lat="24.531124" lon="108.668718">
<time>2016-10-06T16:22:12Z</time></trkpt>
<trkpt lat="24.530944" lon="108.668708">
<time>2016-10-06T16:22:13Z</time></trkpt>
<trkpt lat="24.530794" lon="108.668678">
<time>2016-10-06T16:22:14Z</time></trkpt>
<trkpt lat="24.530624" lon="108.668628">
<time>2016-10-06T16:22:15Z</time></trkpt>
<trkpt lat="24.530454" lon="108.668558">
<time>2016-10-06T16:22:16Z</time></trkpt>
<trkpt lat="24.530344" lon="108.668498">
<time>2016-10-06T16:22:17Z</time></trkpt>
<trkpt lat="24.530195" lon="108.668388">
<time>2016-10-06T16:22:18Z</time></trkpt>
<trkpt lat="24.530105" lon="108.668309">
<time>2016-10-06T16:22:19Z</time></trkpt>
<trkpt lat="24.530005" lon="108.668219">
<time>2016-10-06T16:22:20Z</time></trkpt>
<trkpt lat="24.529935" lon="108.668129">
<time>2016-10-06T16:22:21Z</time></trkpt>
<trkpt lat="24.529825" lon="108.667959">
<time>2016-10-06T16:22:22Z</time></trkpt>
<trkpt lat="24.529736" lon="108.66778">
<time>2016-10-06T16:22:23Z</time></trkpt>
<trkpt lat="24.529696" lon="108.66768">
<time>2016-10-06T16:22:24Z</time></trkpt>
<trkpt lat="24.529646" lon="108.667531">
<time>2016-10-06T16:22:25Z</time></trkpt>
<trkpt lat="24.529587" lon="108.667261">
<time>2016-10-06T16:22:26Z</time></trkpt>
<trkpt lat="24.529527" lon="108.667032">
<time>2016-10-06T16:22:27Z</time></trkpt>
<trkpt lat="24.529487" lon="108.666882">
<time>2016-10-06T16:22:28Z</time></trkpt>
<trkpt lat="24.529448" lon="108.666772">
<time>2016-10-06T16:22:29Z</time></trkpt>
<trkpt lat="24.529408" lon="108.666683">
<time>2016-10-06T16:22:30Z</time></trkpt>
<trkpt lat="24.529348" lon="108.666573">
<time>2016-10-06T16:22:31Z</time></trkpt>
<trkpt lat="24.529298" lon="108.666503">
<time>2016-10-06T16:22:32Z</time></trkpt>
<trkpt lat="24.529218" lon="108.666393">
<time>2016-10-06T16:22:33Z</time></trkpt>
<trkpt lat="24.529138" lon="108.666304">
<time>2016-10-06T16:22:34Z</time></trkpt>
<trkpt lat="24.529059" lon="108.666224">
<time>2016-10-06T16:22:35Z</time></trkpt>
<trkpt lat="24.528599" lon="108.665815">
<time>2016-10-06T16:22:36Z</time></trkpt>
<trkpt lat="24.52817" lon="108.665426">
<time>2016-10-06T16:22:37Z</time></trkpt>
<trkpt lat="24.52788" lon="108.665186">
<time>2016-10-06T16:22:38Z</time></trkpt>
<trkpt lat="24.527711" lon="108.665047">
<time>2016-10-06T16:22:39Z</time></trkpt>
<trkpt lat="24.527441" lon="108.664827">
<time>2016-10-06T16:22:40Z</time></trkpt>
<trkpt lat="24.527131" lon="108.664588">
<time>2016-10-06T16:22:41Z</time></trkpt>
<trkpt lat="24.526792" lon="108.664318">
<time>2016-10-06T16:22:42Z</time></trkpt>
<trkpt lat="24.526582" lon="108.664139">
<time>2016-10-06T16:22:43Z</time></trkpt>
<trkpt lat="24.526393" lon="108.663939">
<time>2016-10-06T16:22:44Z</time></trkpt>
<trkpt lat="24.526283" lon="108.66382">
<time>2016-10-06T16:22:45Z</time></trkpt>
<trkpt lat="24.526113" lon="108.66362">
<time>2016-10-06T16:22:46Z</time></trkpt>
<trkpt lat="24.525824" lon="108.663231">
<time>2016-10-06T16:22:47Z</time></trkpt>
<trkpt lat="24.525535" lon="108.662822">
<time>2016-10-06T16:22:48Z</time></trkpt>
<trkpt lat="24.525405" lon="108.662683">
<time>2016-10-06T16:22:49Z</time></trkpt>
<trkpt lat="24.525265" lon="108.662553">
<time>2016-10-06T16:22:50Z</time></trkpt>
<trkpt lat="24.525045" lon="108.662363">
<time>2016-10-06T16:22:51Z</time></trkpt>
<trkpt lat="24.524876" lon="108.662254">
<time>2016-10-06T16:22:52Z</time></trkpt>
<trkpt lat="24.524666" lon="108.662144">
<time>2016-10-06T16:22:53Z</time></trkpt>
<trkpt lat="24.524506" lon="108.662084">
<time>2016-10-06T16:22:54Z</time></trkpt>
<trkpt lat="24.523866" lon="108.661885">
<time>2016-10-06T16:22:55Z</time></trkpt>
<trkpt lat="24.523536" lon="108.661795">
<time>2016-10-06T16:22:56Z</time></trkpt>
<trkpt lat="24.522977" lon="108.661635">
<time>2016-10-06T16:22:57Z</time></trkpt>
<trkpt lat="24.522767" lon="108.661575">
<time>2016-10-06T16:22:58Z</time></trkpt>
<trkpt lat="24.521457" lon="108.661196">
<time>2016-10-06T16:22:59Z</time></trkpt>
<trkpt lat="24.520737" lon="108.660997">
<time>2016-10-06T16:23:00Z</time></trkpt>
<trkpt lat="24.520518" lon="108.660927">
<time>2016-10-06T16:23:01Z</time></trkpt>
<trkpt lat="24.520418" lon="108.660897">
<time>2016-10-06T16:23:02Z</time></trkpt>
<trkpt lat="24.518718" lon="108.660418">
<time>2016-10-06T16:23:03Z</time></trkpt>
<trkpt lat="24.517679" lon="108.660119">
<time>2016-10-06T16:23:04Z</time></trkpt>
<trkpt lat="24.516639" lon="108.65978">
<time>2016-10-06T16:23:05Z</time></trkpt>
<trkpt lat="24.516409" lon="108.6597">
<time>2016-10-06T16:23:06Z</time></trkpt>
<trkpt lat="24.516179" lon="108.65963">
<time>2016-10-06T16:23:07Z</time></trkpt>
<trkpt lat="24.51548" lon="108.659441">
<time>2016-10-06T16:23:08Z</time></trkpt>
<trkpt lat="24.51482" lon="108.659271">
<time>2016-10-06T16:23:09Z</time></trkpt>
<trkpt lat="24.51421" lon="108.659112">
<time>2016-10-06T16:23:10Z</time></trkpt>
<trkpt lat="24.51349" lon="108.658892">
<time>2016-10-06T16:23:11Z</time></trkpt>
<trkpt lat="24.512521" lon="108.658633">
<time>2016-10-06T16:23:12Z</time></trkpt>
<trkpt lat="24.511931" lon="108.658453">
<time>2016-10-06T16:23:13Z</time></trkpt>
<trkpt lat="24.511221" lon="108.658254">
<time>2016-10-06T16:23:14Z</time></trkpt>
<trkpt lat="24.510552" lon="108.658054">
<time>2016-10-06T16:23:15Z</time></trkpt>
<trkpt lat="24.510022" lon="108.657905">
<time>2016-10-06T16:23:16Z</time></trkpt>
<trkpt lat="24.509742" lon="108.657825">
<time>2016-10-06T16:23:17Z</time></trkpt>
<trkpt lat="24.508702" lon="108.657516">
<time>2016-10-06T16:23:18Z</time></trkpt>
<trkpt lat="24.508502" lon="108.657456">
<time>2016-10-06T16:23:19Z</time></trkpt>
<trkpt lat="24.507783" lon="108.657266">
<time>2016-10-06T16:23:20Z</time></trkpt>
<trkpt lat="24.507313" lon="108.657117">
<time>2016-10-06T16:23:21Z</time></trkpt>
<trkpt lat="24.507083" lon="108.657047">
<time>2016-10-06T16:23:22Z</time></trkpt>
<trkpt lat="24.506813" lon="108.656977">
<time>2016-10-06T16:23:23Z</time></trkpt>
<trkpt lat="24.506103" lon="108.656768">
<time>2016-10-06T16:23:24Z</time></trkpt>
<trkpt lat="24.505893" lon="108.656708">
<time>2016-10-06T16:23:25Z</time></trkpt>
<trkpt lat="24.505354" lon="108.656548">
<time>2016-10-06T16:23:26Z</time></trkpt>
<trkpt lat="24.505184" lon="108.656498">
<time>2016-10-06T16:23:27Z</time></trkpt>
<trkpt lat="24.504944" lon="108.656439">
<time>2016-10-06T16:23:28Z</time></trkpt>
<trkpt lat="24.504844" lon="108.656409">
<time>2016-10-06T16:23:29Z</time></trkpt>
<trkpt lat="24.504644" lon="108.656349">
<time>2016-10-06T16:23:30Z</time></trkpt>
<trkpt lat="24.504444" lon="108.656319">
<time>2016-10-06T16:23:31Z</time></trkpt>
<trkpt lat="24.503894" lon="108.656179">
<time>2016-10-06T16:23:32Z</time></trkpt>
<trkpt lat="24.503294" lon="108.65606">
<time>2016-10-06T16:23:33Z</time></trkpt>
<trkpt lat="24.503054" lon="108.65601">
<time>2016-10-06T16:23:34Z</time></trkpt>
<trkpt lat="24.502474" lon="108.65591">
<time>2016-10-06T16:23:35Z</time></trkpt>
<trkpt lat="24.501585" lon="108.65572">
<time>2016-10-06T16:23:36Z</time></trkpt>
<trkpt lat="24.501585" lon="108.65572">
<time>2016-10-06T16:23:37Z</time></trkpt>
<trkpt lat="24.501615" lon="108.655481">
<time>2016-10-06T16:23:38Z</time></trkpt>
<trkpt lat="24.501777" lon="108.654453">
<time>2016-10-06T16:23:39Z</time></trkpt>
<trkpt lat="24.501969" lon="108.653136">
<time>2016-10-06T16:23:40Z</time></trkpt>
<trkpt lat="24.502172" lon="108.651979">
<time>2016-10-06T16:23:41Z</time></trkpt>
<trkpt lat="24.502364" lon="108.650912">
<time>2016-10-06T16:23:42Z</time></trkpt>
<trkpt lat="24.502394" lon="108.650732">
<time>2016-10-06T16:23:43Z</time></trkpt>
<trkpt lat="24.502424" lon="108.650572">
<time>2016-10-06T16:23:44Z</time></trkpt>
<trkpt lat="24.502434" lon="108.650453">
<time>2016-10-06T16:23:45Z</time></trkpt>
<trkpt lat="24.502455" lon="108.650303">
<time>2016-10-06T16:23:46Z</time></trkpt>
<trkpt lat="24.502455" lon="108.650253">
<time>2016-10-06T16:23:47Z</time></trkpt>
<trkpt lat="24.502475" lon="108.650034">
<time>2016-10-06T16:23:48Z</time></trkpt>
<trkpt lat="24.502506" lon="108.649515">
<time>2016-10-06T16:23:49Z</time></trkpt>
<trkpt lat="24.502547" lon="108.648996">
<time>2016-10-06T16:23:50Z</time></trkpt>
<trkpt lat="24.502659" lon="108.647669">
<time>2016-10-06T16:23:51Z</time></trkpt>
<trkpt lat="24.5027" lon="108.64732">
<time>2016-10-06T16:23:52Z</time></trkpt>
<trkpt lat="24.50274" lon="108.6471">
<time>2016-10-06T16:23:53Z</time></trkpt>
<trkpt lat="24.502791" lon="108.646861">
<time>2016-10-06T16:23:54Z</time></trkpt>
<trkpt lat="24.502881" lon="108.646591">
<time>2016-10-06T16:23:55Z</time></trkpt>
<trkpt lat="24.503082" lon="108.646132">
<time>2016-10-06T16:23:56Z</time></trkpt>
<trkpt lat="24.503233" lon="108.645753">
<time>2016-10-06T16:23:57Z</time></trkpt>
<trkpt lat="24.503434" lon="108.645224">
<time>2016-10-06T16:23:58Z</time></trkpt>
<trkpt lat="24.503474" lon="108.644975">
<time>2016-10-06T16:23:59Z</time></trkpt>
<trkpt lat="24.503535" lon="108.644655">
<time>2016-10-06T16:24:00Z</time></trkpt>
<trkpt lat="24.503566" lon="108.644067">
<time>2016-10-06T16:24:01Z</time></trkpt>
<trkpt lat="24.503607" lon="108.643219">
<time>2016-10-06T16:24:02Z</time></trkpt>
<trkpt lat="24.50372" lon="108.641432">
<time>2016-10-06T16:24:03Z</time></trkpt>
<trkpt lat="24.503771" lon="108.640694">
<time>2016-10-06T16:24:04Z</time></trkpt>
<trkpt lat="24.503812" lon="108.640165">
<time>2016-10-06T16:24:05Z</time></trkpt>
<trkpt lat="24.503873" lon="108.639606">
<time>2016-10-06T16:24:06Z</time></trkpt>
<trkpt lat="24.503913" lon="108.639387">
<time>2016-10-06T16:24:07Z</time></trkpt>
<trkpt lat="24.503984" lon="108.638908">
<time>2016-10-06T16:24:08Z</time></trkpt>
<trkpt lat="24.504287" lon="108.63742">
<time>2016-10-06T16:24:09Z</time></trkpt>
<trkpt lat="24.504659" lon="108.635624">
<time>2016-10-06T16:24:10Z</time></trkpt>
<trkpt lat="24.505032" lon="108.633877">
<time>2016-10-06T16:24:11Z</time></trkpt>
<trkpt lat="24.505616" lon="108.631023">
<time>2016-10-06T16:24:12Z</time></trkpt>
<trkpt lat="24.505636" lon="108.630893">
<time>2016-10-06T16:24:13Z</time></trkpt>
<trkpt lat="24.505657" lon="108.630623">
<time>2016-10-06T16:24:14Z</time></trkpt>
<trkpt lat="24.505647" lon="108.630434">
<time>2016-10-06T16:24:15Z</time></trkpt>
<trkpt lat="24.505617" lon="108.630284">
<time>2016-10-06T16:24:16Z</time></trkpt>
<trkpt lat="24.505587" lon="108.630174">
<time>2016-10-06T16:24:17Z</time></trkpt>
<trkpt lat="24.505498" lon="108.629994">
<time>2016-10-06T16:24:18Z</time></trkpt>
<trkpt lat="24.505398" lon="108.629855">
<time>2016-10-06T16:24:19Z</time></trkpt>
<trkpt lat="24.505278" lon="108.629735">
<time>2016-10-06T16:24:20Z</time></trkpt>
<trkpt lat="24.505238" lon="108.629715">
<time>2016-10-06T16:24:21Z</time></trkpt>
<trkpt lat="24.505108" lon="108.629635">
<time>2016-10-06T16:24:22Z</time></trkpt>
<trkpt lat="24.504918" lon="108.629535">
<time>2016-10-06T16:24:23Z</time></trkpt>
<trkpt lat="24.504888" lon="108.629525">
<time>2016-10-06T16:24:24Z</time></trkpt>
<trkpt lat="24.504568" lon="108.629396">
<time>2016-10-06T16:24:25Z</time></trkpt>
<trkpt lat="24.503998" lon="108.629156">
<time>2016-10-06T16:24:26Z</time></trkpt>
<trkpt lat="24.502549" lon="108.628527">
<time>2016-10-06T16:24:27Z</time></trkpt>
<trkpt lat="24.501769" lon="108.628198">
<time>2016-10-06T16:24:28Z</time></trkpt>
<trkpt lat="24.501769" lon="108.628198">
<time>2016-10-06T16:24:29Z</time></trkpt>
<trkpt lat="24.501699" lon="108.628138">
<time>2016-10-06T16:24:30Z</time></trkpt>
<trkpt lat="24.50101" lon="108.627828">
<time>2016-10-06T16:24:31Z</time></trkpt>
<trkpt lat="24.50051" lon="108.627629">
<time>2016-10-06T16:24:32Z</time></trkpt>
<trkpt lat="24.50051" lon="108.627629">
<time>2016-10-06T16:24:33Z</time></trkpt>
<trkpt lat="24.50038" lon="108.627509">
<time>2016-10-06T16:24:34Z</time></trkpt>
<trkpt lat="24.50033" lon="108.627449">
<time>2016-10-06T16:24:35Z</time></trkpt>
<trkpt lat="24.50028" lon="108.627389">
<time>2016-10-06T16:24:36Z</time></trkpt>
<trkpt lat="24.50021" lon="108.627269">
<time>2016-10-06T16:24:37Z</time></trkpt>
<trkpt lat="24.50016" lon="108.62717">
<time>2016-10-06T16:24:38Z</time></trkpt>
<trkpt lat="24.500111" lon="108.62703">
<time>2016-10-06T16:24:39Z</time></trkpt>
<trkpt lat="24.500071" lon="108.62693">
<time>2016-10-06T16:24:40Z</time></trkpt>
<trkpt lat="24.500001" lon="108.62671">
<time>2016-10-06T16:24:41Z</time></trkpt>
<trkpt lat="24.499941" lon="108.626611">
<time>2016-10-06T16:24:42Z</time></trkpt>
<trkpt lat="24.499941" lon="108.626611">
<time>2016-10-06T16:24:43Z</time></trkpt>
<trkpt lat="24.500001" lon="108.626441">
<time>2016-10-06T16:24:44Z</time></trkpt>
<trkpt lat="24.500102" lon="108.625922">
<time>2016-10-06T16:24:45Z</time></trkpt>
<trkpt lat="24.500132" lon="108.625742">
<time>2016-10-06T16:24:46Z</time></trkpt>
<trkpt lat="24.500173" lon="108.625333">
<time>2016-10-06T16:24:47Z</time></trkpt>
<trkpt lat="24.500223" lon="108.625003">
<time>2016-10-06T16:24:48Z</time></trkpt>
<trkpt lat="24.500274" lon="108.624654">
<time>2016-10-06T16:24:49Z</time></trkpt>
<trkpt lat="24.500304" lon="108.624454">
<time>2016-10-06T16:24:50Z</time></trkpt>
<trkpt lat="24.500324" lon="108.624354">
<time>2016-10-06T16:24:51Z</time></trkpt>
<trkpt lat="24.500546" lon="108.623006">
<time>2016-10-06T16:24:52Z</time></trkpt>
<trkpt lat="24.500777" lon="108.621678">
<time>2016-10-06T16:24:53Z</time></trkpt>
<trkpt lat="24.500787" lon="108.621618">
<time>2016-10-06T16:24:54Z</time></trkpt>
<trkpt lat="24.500858" lon="108.621209">
<time>2016-10-06T16:24:55Z</time></trkpt>
<trkpt lat="24.500989" lon="108.62039">
<time>2016-10-06T16:24:56Z</time></trkpt>
<trkpt lat="24.501129" lon="108.619561">
<time>2016-10-06T16:24:57Z</time></trkpt>
<trkpt lat="24.50124" lon="108.618912">
<time>2016-10-06T16:24:58Z</time></trkpt>
<trkpt lat="24.50126" lon="108.618802">
<time>2016-10-06T16:24:59Z</time></trkpt>
<trkpt lat="24.501602" lon="108.616595">
<time>2016-10-06T16:25:00Z</time></trkpt>
<trkpt lat="24.501713" lon="108.615886">
<time>2016-10-06T16:25:01Z</time></trkpt>
<trkpt lat="24.501834" lon="108.615257">
<time>2016-10-06T16:25:02Z</time></trkpt>
<trkpt lat="24.501924" lon="108.614668">
<time>2016-10-06T16:25:03Z</time></trkpt>
<trkpt lat="24.502045" lon="108.613968">
<time>2016-10-06T16:25:04Z</time></trkpt>
<trkpt lat="24.502366" lon="108.611911">
<time>2016-10-06T16:25:05Z</time></trkpt>
<trkpt lat="24.502577" lon="108.610812">
<time>2016-10-06T16:25:06Z</time></trkpt>
<trkpt lat="24.502758" lon="108.609703">
<time>2016-10-06T16:25:07Z</time></trkpt>
<trkpt lat="24.502919" lon="108.608674">
<time>2016-10-06T16:25:08Z</time></trkpt>
<trkpt lat="24.503059" lon="108.607865">
<time>2016-10-06T16:25:09Z</time></trkpt>
<trkpt lat="24.50321" lon="108.606916">
<time>2016-10-06T16:25:10Z</time></trkpt>
<trkpt lat="24.50344" lon="108.605537">
<time>2016-10-06T16:25:11Z</time></trkpt>
<trkpt lat="24.503541" lon="108.604957">
<time>2016-10-06T16:25:12Z</time></trkpt>
<trkpt lat="24.503812" lon="108.603278">
<time>2016-10-06T16:25:13Z</time></trkpt>
<trkpt lat="24.503862" lon="108.602959">
<time>2016-10-06T16:25:14Z</time></trkpt>
<trkpt lat="24.503962" lon="108.602379">
<time>2016-10-06T16:25:15Z</time></trkpt>
<trkpt lat="24.504052" lon="108.601849">
<time>2016-10-06T16:25:16Z</time></trkpt>
<trkpt lat="24.504092" lon="108.601589">
<time>2016-10-06T16:25:17Z</time></trkpt>
<trkpt lat="24.504152" lon="108.60123">
<time>2016-10-06T16:25:18Z</time></trkpt>
<trkpt lat="24.504212" lon="108.60088">
<time>2016-10-06T16:25:19Z</time></trkpt>
<trkpt lat="24.504263" lon="108.60055">
<time>2016-10-06T16:25:20Z</time></trkpt>
<trkpt lat="24.504363" lon="108.59993">
<time>2016-10-06T16:25:21Z</time></trkpt>
<trkpt lat="24.504413" lon="108.59962">
<time>2016-10-06T16:25:22Z</time></trkpt>
<trkpt lat="24.504523" lon="108.598931">
<time>2016-10-06T16:25:23Z</time></trkpt>
<trkpt lat="24.504583" lon="108.598581">
<time>2016-10-06T16:25:24Z</time></trkpt>
<trkpt lat="24.504643" lon="108.598201">
<time>2016-10-06T16:25:25Z</time></trkpt>
<trkpt lat="24.504693" lon="108.597861">
<time>2016-10-06T16:25:26Z</time></trkpt>
<trkpt lat="24.504753" lon="108.597511">
<time>2016-10-06T16:25:27Z</time></trkpt>
<trkpt lat="24.504813" lon="108.597152">
<time>2016-10-06T16:25:28Z</time></trkpt>
<trkpt lat="24.504823" lon="108.597132">
<time>2016-10-06T16:25:29Z</time></trkpt>
<trkpt lat="24.504883" lon="108.596742">
<time>2016-10-06T16:25:30Z</time></trkpt>
<trkpt lat="24.504913" lon="108.596582">
<time>2016-10-06T16:25:31Z</time></trkpt>
<trkpt lat="24.504994" lon="108.596072">
<time>2016-10-06T16:25:32Z</time></trkpt>
<trkpt lat="24.505064" lon="108.595642">
<time>2016-10-06T16:25:33Z</time></trkpt>
<trkpt lat="24.505194" lon="108.594892">
<time>2016-10-06T16:25:34Z</time></trkpt>
<trkpt lat="24.505274" lon="108.594472">
<time>2016-10-06T16:25:35Z</time></trkpt>
<trkpt lat="24.505324" lon="108.594093">
<time>2016-10-06T16:25:36Z</time></trkpt>
<trkpt lat="24.505444" lon="108.593373">
<time>2016-10-06T16:25:37Z</time></trkpt>
<trkpt lat="24.505524" lon="108.592823">
<time>2016-10-06T16:25:38Z</time></trkpt>
<trkpt lat="24.505584" lon="108.592493">
<time>2016-10-06T16:25:39Z</time></trkpt>
<trkpt lat="24.505684" lon="108.591893">
<time>2016-10-06T16:25:40Z</time></trkpt>
<trkpt lat="24.505814" lon="108.591043">
<time>2016-10-06T16:25:41Z</time></trkpt>
<trkpt lat="24.505963" lon="108.590083">
<time>2016-10-06T16:25:42Z</time></trkpt>
<trkpt lat="24.506003" lon="108.589833">
<time>2016-10-06T16:25:43Z</time></trkpt>
<trkpt lat="24.506093" lon="108.589373">
<time>2016-10-06T16:25:44Z</time></trkpt>
<trkpt lat="24.506303" lon="108.588293">
<time>2016-10-06T16:25:45Z</time></trkpt>
<trkpt lat="24.506413" lon="108.587823">
<time>2016-10-06T16:25:46Z</time></trkpt>
<trkpt lat="24.506583" lon="108.587123">
<time>2016-10-06T16:25:47Z</time></trkpt>
<trkpt lat="24.506653" lon="108.586853">
<time>2016-10-06T16:25:48Z</time></trkpt>
<trkpt lat="24.506713" lon="108.586623">
<time>2016-10-06T16:25:49Z</time></trkpt>
<trkpt lat="24.506743" lon="108.586493">
<time>2016-10-06T16:25:50Z</time></trkpt>
<trkpt lat="24.506763" lon="108.586413">
<time>2016-10-06T16:25:51Z</time></trkpt>
<trkpt lat="24.506783" lon="108.586323">
<time>2016-10-06T16:25:52Z</time></trkpt>
<trkpt lat="24.506813" lon="108.586223">
<time>2016-10-06T16:25:53Z</time></trkpt>
<trkpt lat="24.506823" lon="108.586183">
<time>2016-10-06T16:25:54Z</time></trkpt>
<trkpt lat="24.506843" lon="108.586103">
<time>2016-10-06T16:25:55Z</time></trkpt>
<trkpt lat="24.506862" lon="108.586033">
<time>2016-10-06T16:25:56Z</time></trkpt>
<trkpt lat="24.506872" lon="108.585963">
<time>2016-10-06T16:25:57Z</time></trkpt>
<trkpt lat="24.507042" lon="108.585413">
<time>2016-10-06T16:25:58Z</time></trkpt>
<trkpt lat="24.507142" lon="108.585053">
<time>2016-10-06T16:25:59Z</time></trkpt>
<trkpt lat="24.507202" lon="108.584863">
<time>2016-10-06T16:26:00Z</time></trkpt>
<trkpt lat="24.507292" lon="108.584553">
<time>2016-10-06T16:26:01Z</time></trkpt>
<trkpt lat="24.507402" lon="108.584233">
<time>2016-10-06T16:26:02Z</time></trkpt>
<trkpt lat="24.507851" lon="108.582872">
<time>2016-10-06T16:26:03Z</time></trkpt>
<trkpt lat="24.508101" lon="108.582122">
<time>2016-10-06T16:26:04Z</time></trkpt>
<trkpt lat="24.508351" lon="108.581362">
<time>2016-10-06T16:26:05Z</time></trkpt>
<trkpt lat="24.50848" lon="108.580961">
<time>2016-10-06T16:26:06Z</time></trkpt>
<trkpt lat="24.50848" lon="108.580961">
<time>2016-10-06T16:26:07Z</time></trkpt>
<trkpt lat="24.50939" lon="108.579931">
<time>2016-10-06T16:26:08Z</time></trkpt>
<trkpt lat="24.50999" lon="108.579261">
<time>2016-10-06T16:26:09Z</time></trkpt>
<trkpt lat="24.510839" lon="108.57836">
<time>2016-10-06T16:26:10Z</time></trkpt>
<trkpt lat="24.511788" lon="108.577219">
<time>2016-10-06T16:26:11Z</time></trkpt>
<trkpt lat="24.511928" lon="108.577039">
<time>2016-10-06T16:26:12Z</time></trkpt>
<trkpt lat="24.512298" lon="108.576539">
<time>2016-10-06T16:26:13Z</time></trkpt>
<trkpt lat="24.512608" lon="108.575999">
<time>2016-10-06T16:26:14Z</time></trkpt>
<trkpt lat="24.512877" lon="108.575368">
<time>2016-10-06T16:26:15Z</time></trkpt>
<trkpt lat="24.513485" lon="108.573467">
<time>2016-10-06T16:26:16Z</time></trkpt>
<trkpt lat="24.513555" lon="108.573206">
<time>2016-10-06T16:26:17Z</time></trkpt>
<trkpt lat="24.514004" lon="108.571575">
<time>2016-10-06T16:26:18Z</time></trkpt>
<trkpt lat="24.514472" lon="108.570204">
<time>2016-10-06T16:26:19Z</time></trkpt>
<trkpt lat="24.514592" lon="108.569873">
<time>2016-10-06T16:26:20Z</time></trkpt>
<trkpt lat="24.514752" lon="108.569403">
<time>2016-10-06T16:26:21Z</time></trkpt>
<trkpt lat="24.51514" lon="108.568202">
<time>2016-10-06T16:26:22Z</time></trkpt>
<trkpt lat="24.516186" lon="108.564998">
<time>2016-10-06T16:26:23Z</time></trkpt>
<trkpt lat="24.516346" lon="108.564497">
<time>2016-10-06T16:26:24Z</time></trkpt>
<trkpt lat="24.516535" lon="108.563917">
<time>2016-10-06T16:26:25Z</time></trkpt>
<trkpt lat="24.516934" lon="108.562705">
<time>2016-10-06T16:26:26Z</time></trkpt>
<trkpt lat="24.517402" lon="108.561503">
<time>2016-10-06T16:26:27Z</time></trkpt>
<trkpt lat="24.51798" lon="108.560021">
<time>2016-10-06T16:26:28Z</time></trkpt>
<trkpt lat="24.518129" lon="108.55928">
<time>2016-10-06T16:26:29Z</time></trkpt>
<trkpt lat="24.518129" lon="108.55928">
<time>2016-10-06T16:26:30Z</time></trkpt>
<trkpt lat="24.518159" lon="108.55924">
<time>2016-10-06T16:26:31Z</time></trkpt>
<trkpt lat="24.518727" lon="108.558108">
<time>2016-10-06T16:26:32Z</time></trkpt>
<trkpt lat="24.518737" lon="108.558098">
<time>2016-10-06T16:26:33Z</time></trkpt>
<trkpt lat="24.518797" lon="108.557958">
<time>2016-10-06T16:26:34Z</time></trkpt>
<trkpt lat="24.519465" lon="108.556636">
<time>2016-10-06T16:26:35Z</time></trkpt>
<trkpt lat="24.519594" lon="108.556366">
<time>2016-10-06T16:26:36Z</time></trkpt>
<trkpt lat="24.519744" lon="108.556025">
<time>2016-10-06T16:26:37Z</time></trkpt>
<trkpt lat="24.520281" lon="108.554563">
<time>2016-10-06T16:26:38Z</time></trkpt>
<trkpt lat="24.52051" lon="108.553972">
<time>2016-10-06T16:26:39Z</time></trkpt>
<trkpt lat="24.520739" lon="108.553371">
<time>2016-10-06T16:26:40Z</time></trkpt>
<trkpt lat="24.520889" lon="108.55298">
<time>2016-10-06T16:26:41Z</time></trkpt>
<trkpt lat="24.521088" lon="108.552519">
<time>2016-10-06T16:26:42Z</time></trkpt>
<trkpt lat="24.521177" lon="108.552319">
<time>2016-10-06T16:26:43Z</time></trkpt>
<trkpt lat="24.521297" lon="108.552048">
<time>2016-10-06T16:26:44Z</time></trkpt>
<trkpt lat="24.521476" lon="108.551688">
<time>2016-10-06T16:26:45Z</time></trkpt>
<trkpt lat="24.521825" lon="108.551056">
<time>2016-10-06T16:26:46Z</time></trkpt>
<trkpt lat="24.522324" lon="108.550255">
<time>2016-10-06T16:26:47Z</time></trkpt>
<trkpt lat="24.522553" lon="108.549914">
<time>2016-10-06T16:26:48Z</time></trkpt>
<trkpt lat="24.522743" lon="108.549644">
<time>2016-10-06T16:26:49Z</time></trkpt>
<trkpt lat="24.522962" lon="108.549353">
<time>2016-10-06T16:26:50Z</time></trkpt>
<trkpt lat="24.523122" lon="108.549143">
<time>2016-10-06T16:26:51Z</time></trkpt>
<trkpt lat="24.52374" lon="108.548411">
<time>2016-10-06T16:26:52Z</time></trkpt>
<trkpt lat="24.524389" lon="108.54766">
<time>2016-10-06T16:26:53Z</time></trkpt>
<trkpt lat="24.531203" lon="108.539672">
<time>2016-10-06T16:26:54Z</time></trkpt>
<trkpt lat="24.536987" lon="108.532855">
<time>2016-10-06T16:26:55Z</time></trkpt>
<trkpt lat="24.537237" lon="108.532565">
<time>2016-10-06T16:26:56Z</time></trkpt>
<trkpt lat="24.537416" lon="108.532344">
<time>2016-10-06T16:26:57Z</time></trkpt>
<trkpt lat="24.537566" lon="108.532143">
<time>2016-10-06T16:26:58Z</time></trkpt>
<trkpt lat="24.538353" lon="108.531021">
<time>2016-10-06T16:26:59Z</time></trkpt>
<trkpt lat="24.538443" lon="108.53087">
<time>2016-10-06T16:27:00Z</time></trkpt>
<trkpt lat="24.538502" lon="108.53078">
<time>2016-10-06T16:27:01Z</time></trkpt>
<trkpt lat="24.538602" lon="108.530599">
<time>2016-10-06T16:27:02Z</time></trkpt>
<trkpt lat="24.539826" lon="108.528203">
<time>2016-10-06T16:27:03Z</time></trkpt>
<trkpt lat="24.542023" lon="108.52336">
<time>2016-10-06T16:27:04Z</time></trkpt>
<trkpt lat="24.542939" lon="108.521735">
<time>2016-10-06T16:27:05Z</time></trkpt>
<trkpt lat="24.54477" lon="108.518506">
<time>2016-10-06T16:27:06Z</time></trkpt>
<trkpt lat="24.547318" lon="108.513952">
<time>2016-10-06T16:27:07Z</time></trkpt>
<trkpt lat="24.549158" lon="108.510642">
<time>2016-10-06T16:27:08Z</time></trkpt>
<trkpt lat="24.550233" lon="108.508716">
<time>2016-10-06T16:27:09Z</time></trkpt>
<trkpt lat="24.555087" lon="108.500018">
<time>2016-10-06T16:27:10Z</time></trkpt>
<trkpt lat="24.556081" lon="108.497972">
<time>2016-10-06T16:27:11Z</time></trkpt>
<trkpt lat="24.55632" lon="108.49742">
<time>2016-10-06T16:27:12Z</time></trkpt>
<trkpt lat="24.557839" lon="108.493959">
<time>2016-10-06T16:27:13Z</time></trkpt>
<trkpt lat="24.558286" lon="108.492936">
<time>2016-10-06T16:27:14Z</time></trkpt>
<trkpt lat="24.558604" lon="108.492203">
<time>2016-10-06T16:27:15Z</time></trkpt>
<trkpt lat="24.562379" lon="108.483606">
<time>2016-10-06T16:27:16Z</time></trkpt>
<trkpt lat="24.562737" lon="108.482793">
<time>2016-10-06T16:27:17Z</time></trkpt>
<trkpt lat="24.564585" lon="108.47858">
<time>2016-10-06T16:27:18Z</time></trkpt>
<trkpt lat="24.565002" lon="108.477577">
<time>2016-10-06T16:27:19Z</time></trkpt>
<trkpt lat="24.565111" lon="108.477236">
<time>2016-10-06T16:27:20Z</time></trkpt>
<trkpt lat="24.56522" lon="108.476885">
<time>2016-10-06T16:27:21Z</time></trkpt>
<trkpt lat="24.565328" lon="108.476333">
<time>2016-10-06T16:27:22Z</time></trkpt>
<trkpt lat="24.565368" lon="108.476163">
<time>2016-10-06T16:27:23Z</time></trkpt>
<trkpt lat="24.565397" lon="108.475892">
<time>2016-10-06T16:27:24Z</time></trkpt>
<trkpt lat="24.565445" lon="108.47536">
<time>2016-10-06T16:27:25Z</time></trkpt>
<trkpt lat="24.565433" lon="108.474498">
<time>2016-10-06T16:27:26Z</time></trkpt>
<trkpt lat="24.565341" lon="108.473625">
<time>2016-10-06T16:27:27Z</time></trkpt>
<trkpt lat="24.565108" lon="108.472612">
<time>2016-10-06T16:27:28Z</time></trkpt>
<trkpt lat="24.564219" lon="108.469373">
<time>2016-10-06T16:27:29Z</time></trkpt>
<trkpt lat="24.564006" lon="108.46854">
<time>2016-10-06T16:27:30Z</time></trkpt>
<trkpt lat="24.563854" lon="108.467798">
<time>2016-10-06T16:27:31Z</time></trkpt>
<trkpt lat="24.563762" lon="108.467036">
<time>2016-10-06T16:27:32Z</time></trkpt>
<trkpt lat="24.56378" lon="108.466244">
<time>2016-10-06T16:27:33Z</time></trkpt>
<trkpt lat="24.56379" lon="108.466083">
<time>2016-10-06T16:27:34Z</time></trkpt>
<trkpt lat="24.563917" lon="108.46504">
<time>2016-10-06T16:27:35Z</time></trkpt>
<trkpt lat="24.564066" lon="108.464569">
<time>2016-10-06T16:27:36Z</time></trkpt>
<trkpt lat="24.564294" lon="108.463817">
<time>2016-10-06T16:27:37Z</time></trkpt>
<trkpt lat="24.565517" lon="108.461139">
<time>2016-10-06T16:27:38Z</time></trkpt>
<trkpt lat="24.567437" lon="108.456898">
<time>2016-10-06T16:27:39Z</time></trkpt>
<trkpt lat="24.569248" lon="108.452928">
<time>2016-10-06T16:27:40Z</time></trkpt>
<trkpt lat="24.569745" lon="108.451825">
<time>2016-10-06T16:27:41Z</time></trkpt>
<trkpt lat="24.570462" lon="108.450252">
<time>2016-10-06T16:27:42Z</time></trkpt>
<trkpt lat="24.570611" lon="108.449921">
<time>2016-10-06T16:27:43Z</time></trkpt>
<trkpt lat="24.570631" lon="108.449881">
<time>2016-10-06T16:27:44Z</time></trkpt>
<trkpt lat="24.570731" lon="108.44964">
<time>2016-10-06T16:27:45Z</time></trkpt>
<trkpt lat="24.571308" lon="108.448377">
<time>2016-10-06T16:27:46Z</time></trkpt>
<trkpt lat="24.571626" lon="108.447425">
<time>2016-10-06T16:27:47Z</time></trkpt>
<trkpt lat="24.571774" lon="108.446583">
<time>2016-10-06T16:27:48Z</time></trkpt>
<trkpt lat="24.571792" lon="108.445701">
<time>2016-10-06T16:27:49Z</time></trkpt>
<trkpt lat="24.57171" lon="108.444619">
<time>2016-10-06T16:27:50Z</time></trkpt>
<trkpt lat="24.571518" lon="108.443396">
<time>2016-10-06T16:27:51Z</time></trkpt>
<trkpt lat="24.571446" lon="108.442735">
<time>2016-10-06T16:27:52Z</time></trkpt>
<trkpt lat="24.571446" lon="108.442685">
<time>2016-10-06T16:27:53Z</time></trkpt>
<trkpt lat="24.571435" lon="108.442044">
<time>2016-10-06T16:27:54Z</time></trkpt>
<trkpt lat="24.571514" lon="108.441382">
<time>2016-10-06T16:27:55Z</time></trkpt>
<trkpt lat="24.571693" lon="108.440781">
<time>2016-10-06T16:27:56Z</time></trkpt>
<trkpt lat="24.572042" lon="108.44008">
<time>2016-10-06T16:27:57Z</time></trkpt>
<trkpt lat="24.572341" lon="108.439629">
<time>2016-10-06T16:27:58Z</time></trkpt>
<trkpt lat="24.574777" lon="108.437374">
<time>2016-10-06T16:27:59Z</time></trkpt>
<trkpt lat="24.577064" lon="108.43531">
<time>2016-10-06T16:28:00Z</time></trkpt>
<trkpt lat="24.578202" lon="108.434279">
<time>2016-10-06T16:28:01Z</time></trkpt>
<trkpt lat="24.582496" lon="108.430051">
<time>2016-10-06T16:28:02Z</time></trkpt>
<trkpt lat="24.583335" lon="108.42923">
<time>2016-10-06T16:28:03Z</time></trkpt>
<trkpt lat="24.589008" lon="108.423752">
<time>2016-10-06T16:28:04Z</time></trkpt>
<trkpt lat="24.594983" lon="108.417986">
<time>2016-10-06T16:28:05Z</time></trkpt>
<trkpt lat="24.599989" lon="108.413151">
<time>2016-10-06T16:28:06Z</time></trkpt>
<trkpt lat="24.600769" lon="108.412401">
<time>2016-10-06T16:28:07Z</time></trkpt>
<trkpt lat="24.602278" lon="108.411">
<time>2016-10-06T16:28:08Z</time></trkpt>
<trkpt lat="24.603318" lon="108.410029">
<time>2016-10-06T16:28:09Z</time></trkpt>
<trkpt lat="24.606776" lon="108.406817">
<time>2016-10-06T16:28:10Z</time></trkpt>
<trkpt lat="24.611935" lon="108.402035">
<time>2016-10-06T16:28:11Z</time></trkpt>
<trkpt lat="24.612185" lon="108.401805">
<time>2016-10-06T16:28:12Z</time></trkpt>
<trkpt lat="24.615525" lon="108.398705">
<time>2016-10-06T16:28:13Z</time></trkpt>
<trkpt lat="24.615945" lon="108.398354">
<time>2016-10-06T16:28:14Z</time></trkpt>
<trkpt lat="24.618445" lon="108.396254">
<time>2016-10-06T16:28:15Z</time></trkpt>
<trkpt lat="24.620446" lon="108.394574">
<time>2016-10-06T16:28:16Z</time></trkpt>
<trkpt lat="24.620926" lon="108.394274">
<time>2016-10-06T16:28:17Z</time></trkpt>
<trkpt lat="24.622746" lon="108.393125">
<time>2016-10-06T16:28:18Z</time></trkpt>
<trkpt lat="24.624276" lon="108.392225">
<time>2016-10-06T16:28:19Z</time></trkpt>
<trkpt lat="24.626957" lon="108.390635">
<time>2016-10-06T16:28:20Z</time></trkpt>
<trkpt lat="24.628907" lon="108.389485">
<time>2016-10-06T16:28:21Z</time></trkpt>
<trkpt lat="24.631708" lon="108.387536">
<time>2016-10-06T16:28:22Z</time></trkpt>
<trkpt lat="24.631928" lon="108.387336">
<time>2016-10-06T16:28:23Z</time></trkpt>
<trkpt lat="24.633179" lon="108.386146">
<time>2016-10-06T16:28:24Z</time></trkpt>
<trkpt lat="24.633509" lon="108.385767">
<time>2016-10-06T16:28:25Z</time></trkpt>
<trkpt lat="24.633989" lon="108.385207">
<time>2016-10-06T16:28:26Z</time></trkpt>
<trkpt lat="24.636021" lon="108.382409">
<time>2016-10-06T16:28:27Z</time></trkpt>
<trkpt lat="24.640757" lon="108.374994">
<time>2016-10-06T16:28:28Z</time></trkpt>
<trkpt lat="24.641238" lon="108.374265">
<time>2016-10-06T16:28:29Z</time></trkpt>
<trkpt lat="24.643341" lon="108.371018">
<time>2016-10-06T16:28:30Z</time></trkpt>
<trkpt lat="24.644693" lon="108.36973">
<time>2016-10-06T16:28:31Z</time></trkpt>
<trkpt lat="24.645483" lon="108.36928">
<time>2016-10-06T16:28:32Z</time></trkpt>
<trkpt lat="24.646323" lon="108.368881">
<time>2016-10-06T16:28:33Z</time></trkpt>
<trkpt lat="24.647344" lon="108.368661">
<time>2016-10-06T16:28:34Z</time></trkpt>
<trkpt lat="24.648274" lon="108.368621">
<time>2016-10-06T16:28:35Z</time></trkpt>
<trkpt lat="24.650974" lon="108.36889">
<time>2016-10-06T16:28:36Z</time></trkpt>
<trkpt lat="24.652113" lon="108.36902">
<time>2016-10-06T16:28:37Z</time></trkpt>
<trkpt lat="24.652523" lon="108.36906">
<time>2016-10-06T16:28:38Z</time></trkpt>
<trkpt lat="24.654303" lon="108.36926">
<time>2016-10-06T16:28:39Z</time></trkpt>
<trkpt lat="24.659922" lon="108.369869">
<time>2016-10-06T16:28:40Z</time></trkpt>
<trkpt lat="24.665862" lon="108.370518">
<time>2016-10-06T16:28:41Z</time></trkpt>
<trkpt lat="24.666662" lon="108.370608">
<time>2016-10-06T16:28:42Z</time></trkpt>
<trkpt lat="24.666862" lon="108.370627">
<time>2016-10-06T16:28:43Z</time></trkpt>
<trkpt lat="24.667972" lon="108.370757">
<time>2016-10-06T16:28:44Z</time></trkpt>
<trkpt lat="24.668641" lon="108.370827">
<time>2016-10-06T16:28:45Z</time></trkpt>
<trkpt lat="24.669161" lon="108.370887">
<time>2016-10-06T16:28:46Z</time></trkpt>
<trkpt lat="24.669561" lon="108.370917">
<time>2016-10-06T16:28:47Z</time></trkpt>
<trkpt lat="24.669821" lon="108.370927">
<time>2016-10-06T16:28:48Z</time></trkpt>
<trkpt lat="24.670001" lon="108.370937">
<time>2016-10-06T16:28:49Z</time></trkpt>
<trkpt lat="24.670201" lon="108.370937">
<time>2016-10-06T16:28:50Z</time></trkpt>
<trkpt lat="24.670411" lon="108.370927">
<time>2016-10-06T16:28:51Z</time></trkpt>
<trkpt lat="24.670731" lon="108.370897">
<time>2016-10-06T16:28:52Z</time></trkpt>
<trkpt lat="24.670971" lon="108.370867">
<time>2016-10-06T16:28:53Z</time></trkpt>
<trkpt lat="24.671231" lon="108.370817">
<time>2016-10-06T16:28:54Z</time></trkpt>
<trkpt lat="24.671422" lon="108.370757">
<time>2016-10-06T16:28:55Z</time></trkpt>
<trkpt lat="24.671712" lon="108.370677">
<time>2016-10-06T16:28:56Z</time></trkpt>
<trkpt lat="24.671982" lon="108.370587">
<time>2016-10-06T16:28:57Z</time></trkpt>
<trkpt lat="24.672242" lon="108.370487">
<time>2016-10-06T16:28:58Z</time></trkpt>
<trkpt lat="24.672452" lon="108.370377">
<time>2016-10-06T16:28:59Z</time></trkpt>
<trkpt lat="24.673262" lon="108.369918">
<time>2016-10-06T16:29:00Z</time></trkpt>
<trkpt lat="24.673483" lon="108.369788">
<time>2016-10-06T16:29:01Z</time></trkpt>
<trkpt lat="24.673663" lon="108.369678">
<time>2016-10-06T16:29:02Z</time></trkpt>
<trkpt lat="24.675684" lon="108.36823">
<time>2016-10-06T16:29:03Z</time></trkpt>
<trkpt lat="24.680939" lon="108.364464">
<time>2016-10-06T16:29:04Z</time></trkpt>
<trkpt lat="24.684592" lon="108.361838">
<time>2016-10-06T16:29:05Z</time></trkpt>
<trkpt lat="24.687705" lon="108.359611">
<time>2016-10-06T16:29:06Z</time></trkpt>
<trkpt lat="24.688516" lon="108.358902">
<time>2016-10-06T16:29:07Z</time></trkpt>
<trkpt lat="24.688817" lon="108.358612">
<time>2016-10-06T16:29:08Z</time></trkpt>
<trkpt lat="24.689177" lon="108.358263">
<time>2016-10-06T16:29:09Z</time></trkpt>
<trkpt lat="24.689297" lon="108.358133">
<time>2016-10-06T16:29:10Z</time></trkpt>
<trkpt lat="24.689438" lon="108.357953">
<time>2016-10-06T16:29:11Z</time></trkpt>
<trkpt lat="24.690179" lon="108.356955">
<time>2016-10-06T16:29:12Z</time></trkpt>
<trkpt lat="24.690721" lon="108.355976">
<time>2016-10-06T16:29:13Z</time></trkpt>
<trkpt lat="24.691493" lon="108.354189">
<time>2016-10-06T16:29:14Z</time></trkpt>
<trkpt lat="24.692878" lon="108.350964">
<time>2016-10-06T16:29:15Z</time></trkpt>
<trkpt lat="24.692979" lon="108.350775">
<time>2016-10-06T16:29:16Z</time></trkpt>
<trkpt lat="24.69337" lon="108.350016">
<time>2016-10-06T16:29:17Z</time></trkpt>
<trkpt lat="24.694524" lon="108.34777">
<time>2016-10-06T16:29:18Z</time></trkpt>
<trkpt lat="24.695075" lon="108.346861">
<time>2016-10-06T16:29:19Z</time></trkpt>
<trkpt lat="24.696248" lon="108.344975">
<time>2016-10-06T16:29:20Z</time></trkpt>
<trkpt lat="24.696429" lon="108.344685">
<time>2016-10-06T16:29:21Z</time></trkpt>
<trkpt lat="24.696649" lon="108.344366">
<time>2016-10-06T16:29:22Z</time></trkpt>
<trkpt lat="24.698193" lon="108.342269">
<time>2016-10-06T16:29:23Z</time></trkpt>
<trkpt lat="24.698734" lon="108.341601">
<time>2016-10-06T16:29:24Z</time></trkpt>
<trkpt lat="24.703064" lon="108.336261">
<time>2016-10-06T16:29:25Z</time></trkpt>
<trkpt lat="24.703154" lon="108.336151">
<time>2016-10-06T16:29:26Z</time></trkpt>
<trkpt lat="24.703836" lon="108.335312">
<time>2016-10-06T16:29:27Z</time></trkpt>
<trkpt lat="24.706131" lon="108.332318">
<time>2016-10-06T16:29:28Z</time></trkpt>
<trkpt lat="24.706251" lon="108.332178">
<time>2016-10-06T16:29:29Z</time></trkpt>
<trkpt lat="24.706332" lon="108.332049">
<time>2016-10-06T16:29:30Z</time></trkpt>
<trkpt lat="24.706432" lon="108.331879">
<time>2016-10-06T16:29:31Z</time></trkpt>
<trkpt lat="24.706954" lon="108.330881">
<time>2016-10-06T16:29:32Z</time></trkpt>
<trkpt lat="24.706994" lon="108.330801">
<time>2016-10-06T16:29:33Z</time></trkpt>
<trkpt lat="24.707074" lon="108.330601">
<time>2016-10-06T16:29:34Z</time></trkpt>
<trkpt lat="24.707195" lon="108.330272">
<time>2016-10-06T16:29:35Z</time></trkpt>
<trkpt lat="24.707245" lon="108.330132">
<time>2016-10-06T16:29:36Z</time></trkpt>
<trkpt lat="24.707275" lon="108.330052">
<time>2016-10-06T16:29:37Z</time></trkpt>
<trkpt lat="24.707376" lon="108.329703">
<time>2016-10-06T16:29:38Z</time></trkpt>
<trkpt lat="24.707386" lon="108.329653">
<time>2016-10-06T16:29:39Z</time></trkpt>
<trkpt lat="24.707497" lon="108.329174">
<time>2016-10-06T16:29:40Z</time></trkpt>
<trkpt lat="24.707568" lon="108.328645">
<time>2016-10-06T16:29:41Z</time></trkpt>
<trkpt lat="24.707619" lon="108.328186">
<time>2016-10-06T16:29:42Z</time></trkpt>
<trkpt lat="24.707631" lon="108.327308">
<time>2016-10-06T16:29:43Z</time></trkpt>
<trkpt lat="24.707611" lon="108.326959">
<time>2016-10-06T16:29:44Z</time></trkpt>
<trkpt lat="24.707592" lon="108.326759">
<time>2016-10-06T16:29:45Z</time></trkpt>
<trkpt lat="24.707572" lon="108.326559">
<time>2016-10-06T16:29:46Z</time></trkpt>
<trkpt lat="24.707474" lon="108.325821">
<time>2016-10-06T16:29:47Z</time></trkpt>
<trkpt lat="24.707375" lon="108.325302">
<time>2016-10-06T16:29:48Z</time></trkpt>
<trkpt lat="24.706612" lon="108.321619">
<time>2016-10-06T16:29:49Z</time></trkpt>
<trkpt lat="24.706463" lon="108.320661">
<time>2016-10-06T16:29:50Z</time></trkpt>
<trkpt lat="24.706414" lon="108.320322">
<time>2016-10-06T16:29:51Z</time></trkpt>
<trkpt lat="24.706385" lon="108.319982">
<time>2016-10-06T16:29:52Z</time></trkpt>
<trkpt lat="24.706365" lon="108.319713">
<time>2016-10-06T16:29:53Z</time></trkpt>
<trkpt lat="24.706346" lon="108.319284">
<time>2016-10-06T16:29:54Z</time></trkpt>
<trkpt lat="24.706367" lon="108.318685">
<time>2016-10-06T16:29:55Z</time></trkpt>
<trkpt lat="24.706388" lon="108.318406">
<time>2016-10-06T16:29:56Z</time></trkpt>
<trkpt lat="24.706438" lon="108.318016">
<time>2016-10-06T16:29:57Z</time></trkpt>
<trkpt lat="24.706509" lon="108.317697">
<time>2016-10-06T16:29:58Z</time></trkpt>
<trkpt lat="24.70658" lon="108.317388">
<time>2016-10-06T16:29:59Z</time></trkpt>
<trkpt lat="24.706771" lon="108.316769">
<time>2016-10-06T16:30:00Z</time></trkpt>
<trkpt lat="24.706861" lon="108.316509">
<time>2016-10-06T16:30:01Z</time></trkpt>
<trkpt lat="24.706932" lon="108.31633">
<time>2016-10-06T16:30:02Z</time></trkpt>
<trkpt lat="24.707052" lon="108.31605">
<time>2016-10-06T16:30:03Z</time></trkpt>
<trkpt lat="24.707243" lon="108.315651">
<time>2016-10-06T16:30:04Z</time></trkpt>
<trkpt lat="24.707353" lon="108.315451">
<time>2016-10-06T16:30:05Z</time></trkpt>
<trkpt lat="24.707544" lon="108.315132">
<time>2016-10-06T16:30:06Z</time></trkpt>
<trkpt lat="24.707684" lon="108.314932">
<time>2016-10-06T16:30:07Z</time></trkpt>
<trkpt lat="24.707835" lon="108.314733">
<time>2016-10-06T16:30:08Z</time></trkpt>
<trkpt lat="24.709117" lon="108.313205">
<time>2016-10-06T16:30:09Z</time></trkpt>
<trkpt lat="24.71011" lon="108.311798">
<time>2016-10-06T16:30:10Z</time></trkpt>
<trkpt lat="24.71023" lon="108.311618">
<time>2016-10-06T16:30:11Z</time></trkpt>
<trkpt lat="24.710271" lon="108.311559">
<time>2016-10-06T16:30:12Z</time></trkpt>
<trkpt lat="24.710381" lon="108.311359">
<time>2016-10-06T16:30:13Z</time></trkpt>
<trkpt lat="24.710471" lon="108.311179">
<time>2016-10-06T16:30:14Z</time></trkpt>
<trkpt lat="24.710632" lon="108.31084">
<time>2016-10-06T16:30:15Z</time></trkpt>
<trkpt lat="24.710732" lon="108.31062">
<time>2016-10-06T16:30:16Z</time></trkpt>
<trkpt lat="24.710813" lon="108.310381">
<time>2016-10-06T16:30:17Z</time></trkpt>
<trkpt lat="24.710933" lon="108.310011">
<time>2016-10-06T16:30:18Z</time></trkpt>
<trkpt lat="24.711064" lon="108.309612">
<time>2016-10-06T16:30:19Z</time></trkpt>
<trkpt lat="24.711165" lon="108.309183">
<time>2016-10-06T16:30:20Z</time></trkpt>
<trkpt lat="24.71168" lon="108.306388">
<time>2016-10-06T16:30:21Z</time></trkpt>
<trkpt lat="24.711861" lon="108.30562">
<time>2016-10-06T16:30:22Z</time></trkpt>
<trkpt lat="24.711942" lon="108.30539">
<time>2016-10-06T16:30:23Z</time></trkpt>
<trkpt lat="24.712032" lon="108.30509">
<time>2016-10-06T16:30:24Z</time></trkpt>
<trkpt lat="24.712273" lon="108.304492">
<time>2016-10-06T16:30:25Z</time></trkpt>
<trkpt lat="24.712424" lon="108.304182">
<time>2016-10-06T16:30:26Z</time></trkpt>
<trkpt lat="24.712604" lon="108.303813">
<time>2016-10-06T16:30:27Z</time></trkpt>
<trkpt lat="24.712875" lon="108.303364">
<time>2016-10-06T16:30:28Z</time></trkpt>
<trkpt lat="24.713056" lon="108.303094">
<time>2016-10-06T16:30:29Z</time></trkpt>
<trkpt lat="24.713206" lon="108.302884">
<time>2016-10-06T16:30:30Z</time></trkpt>
<trkpt lat="24.714178" lon="108.301776">
<time>2016-10-06T16:30:31Z</time></trkpt>
<trkpt lat="24.714749" lon="108.301207">
<time>2016-10-06T16:30:32Z</time></trkpt>
<trkpt lat="24.718966" lon="108.296964">
<time>2016-10-06T16:30:33Z</time></trkpt>
<trkpt lat="24.719196" lon="108.296645">
<time>2016-10-06T16:30:34Z</time></trkpt>
<trkpt lat="24.719407" lon="108.296345">
<time>2016-10-06T16:30:35Z</time></trkpt>
<trkpt lat="24.719507" lon="108.296205">
<time>2016-10-06T16:30:36Z</time></trkpt>
<trkpt lat="24.719657" lon="108.295906">
<time>2016-10-06T16:30:37Z</time></trkpt>
<trkpt lat="24.719798" lon="108.295566">
<time>2016-10-06T16:30:38Z</time></trkpt>
<trkpt lat="24.719929" lon="108.295177">
<time>2016-10-06T16:30:39Z</time></trkpt>
<trkpt lat="24.719989" lon="108.294937">
<time>2016-10-06T16:30:40Z</time></trkpt>
<trkpt lat="24.72006" lon="108.294568">
<time>2016-10-06T16:30:41Z</time></trkpt>
<trkpt lat="24.72015" lon="108.294089">
<time>2016-10-06T16:30:42Z</time></trkpt>
<trkpt lat="24.720141" lon="108.29347">
<time>2016-10-06T16:30:43Z</time></trkpt>
<trkpt lat="24.720122" lon="108.29318">
<time>2016-10-06T16:30:44Z</time></trkpt>
<trkpt lat="24.720072" lon="108.292751">
<time>2016-10-06T16:30:45Z</time></trkpt>
<trkpt lat="24.71932" lon="108.287838">
<time>2016-10-06T16:30:46Z</time></trkpt>
<trkpt lat="24.71929" lon="108.287628">
<time>2016-10-06T16:30:47Z</time></trkpt>
<trkpt lat="24.719191" lon="108.287249">
<time>2016-10-06T16:30:48Z</time></trkpt>
<trkpt lat="24.719111" lon="108.287019">
<time>2016-10-06T16:30:49Z</time></trkpt>
<trkpt lat="24.719011" lon="108.28676">
<time>2016-10-06T16:30:50Z</time></trkpt>
<trkpt lat="24.718902" lon="108.28647">
<time>2016-10-06T16:30:51Z</time></trkpt>
<trkpt lat="24.718792" lon="108.28627">
<time>2016-10-06T16:30:52Z</time></trkpt>
<trkpt lat="24.718682" lon="108.286051">
<time>2016-10-06T16:30:53Z</time></trkpt>
<trkpt lat="24.718543" lon="108.285831">
<time>2016-10-06T16:30:54Z</time></trkpt>
<trkpt lat="24.718044" lon="108.285082">
<time>2016-10-06T16:30:55Z</time></trkpt>
<trkpt lat="24.717465" lon="108.284283">
<time>2016-10-06T16:30:56Z</time></trkpt>
<trkpt lat="24.717205" lon="108.283864">
<time>2016-10-06T16:30:57Z</time></trkpt>
<trkpt lat="24.716956" lon="108.283394">
<time>2016-10-06T16:30:58Z</time></trkpt>
<trkpt lat="24.716786" lon="108.283005">
<time>2016-10-06T16:30:59Z</time></trkpt>
<trkpt lat="24.716677" lon="108.282725">
<time>2016-10-06T16:31:00Z</time></trkpt>
<trkpt lat="24.716607" lon="108.282495">
<time>2016-10-06T16:31:01Z</time></trkpt>
<trkpt lat="24.716537" lon="108.282216">
<time>2016-10-06T16:31:02Z</time></trkpt>
<trkpt lat="24.716478" lon="108.281936">
<time>2016-10-06T16:31:03Z</time></trkpt>
<trkpt lat="24.716438" lon="108.281706">
<time>2016-10-06T16:31:04Z</time></trkpt>
<trkpt lat="24.716418" lon="108.281566">
<time>2016-10-06T16:31:05Z</time></trkpt>
<trkpt lat="24.716389" lon="108.281277">
<time>2016-10-06T16:31:06Z</time></trkpt>
<trkpt lat="24.716389" lon="108.281057">
<time>2016-10-06T16:31:07Z</time></trkpt>
<trkpt lat="24.71638" lon="108.279958">
<time>2016-10-06T16:31:08Z</time></trkpt>
<trkpt lat="24.716405" lon="108.275413">
<time>2016-10-06T16:31:09Z</time></trkpt>
<trkpt lat="24.716406" lon="108.275044">
<time>2016-10-06T16:31:10Z</time></trkpt>
<trkpt lat="24.716386" lon="108.274794">
<time>2016-10-06T16:31:11Z</time></trkpt>
<trkpt lat="24.716366" lon="108.274604">
<time>2016-10-06T16:31:12Z</time></trkpt>
<trkpt lat="24.716237" lon="108.274015">
<time>2016-10-06T16:31:13Z</time></trkpt>
<trkpt lat="24.716237" lon="108.274015">
<time>2016-10-06T16:31:14Z</time></trkpt>
<trkpt lat="24.716267" lon="108.273955">
<time>2016-10-06T16:31:15Z</time></trkpt>
<trkpt lat="24.716778" lon="108.272936">
<time>2016-10-06T16:31:16Z</time></trkpt>
<trkpt lat="24.717099" lon="108.272206">
<time>2016-10-06T16:31:17Z</time></trkpt>
<trkpt lat="24.717439" lon="108.271447">
<time>2016-10-06T16:31:18Z</time></trkpt>
<trkpt lat="24.71748" lon="108.271247">
<time>2016-10-06T16:31:19Z</time></trkpt>
<trkpt lat="24.71747" lon="108.271147">
<time>2016-10-06T16:31:20Z</time></trkpt>
<trkpt lat="24.71747" lon="108.271057">
<time>2016-10-06T16:31:21Z</time></trkpt>
<trkpt lat="24.71736" lon="108.270727">
<time>2016-10-06T16:31:22Z</time></trkpt>
<trkpt lat="24.7172" lon="108.270468">
<time>2016-10-06T16:31:23Z</time></trkpt>
<trkpt lat="24.717051" lon="108.270178">
<time>2016-10-06T16:31:24Z</time></trkpt>
<trkpt lat="24.716991" lon="108.269928">
<time>2016-10-06T16:31:25Z</time></trkpt>
<trkpt lat="24.716971" lon="108.269678">
<time>2016-10-06T16:31:26Z</time></trkpt>
<trkpt lat="24.716971" lon="108.269618">
<time>2016-10-06T16:31:27Z</time></trkpt>
<trkpt lat="24.717021" lon="108.269149">
<time>2016-10-06T16:31:28Z</time></trkpt>
<trkpt lat="24.717102" lon="108.268229">
<time>2016-10-06T16:31:29Z</time></trkpt>
<trkpt lat="24.717203" lon="108.2674">
<time>2016-10-06T16:31:30Z</time></trkpt>
<trkpt lat="24.717334" lon="108.266641">
<time>2016-10-06T16:31:31Z</time></trkpt>
<trkpt lat="24.717504" lon="108.265911">
<time>2016-10-06T16:31:32Z</time></trkpt>
<trkpt lat="24.717625" lon="108.265052">
<time>2016-10-06T16:31:33Z</time></trkpt>
<trkpt lat="24.717615" lon="108.264812">
<time>2016-10-06T16:31:34Z</time></trkpt>
<trkpt lat="24.717575" lon="108.264592">
<time>2016-10-06T16:31:35Z</time></trkpt>
<trkpt lat="24.717555" lon="108.264462">
<time>2016-10-06T16:31:36Z</time></trkpt>
<trkpt lat="24.717555" lon="108.264462">
<time>2016-10-06T16:31:37Z</time></trkpt>
<trkpt lat="24.717665" lon="108.264202">
<time>2016-10-06T16:31:38Z</time></trkpt>
<trkpt lat="24.717766" lon="108.263882">
<time>2016-10-06T16:31:39Z</time></trkpt>
<trkpt lat="24.717866" lon="108.263522">
<time>2016-10-06T16:31:40Z</time></trkpt>
<trkpt lat="24.717946" lon="108.263163">
<time>2016-10-06T16:31:41Z</time></trkpt>
<trkpt lat="24.718036" lon="108.262663">
<time>2016-10-06T16:31:42Z</time></trkpt>
<trkpt lat="24.71904" lon="108.255695">
<time>2016-10-06T16:31:43Z</time></trkpt>
<trkpt lat="24.71908" lon="108.255405">
<time>2016-10-06T16:31:44Z</time></trkpt>
<trkpt lat="24.719721" lon="108.250976">
<time>2016-10-06T16:31:45Z</time></trkpt>
<trkpt lat="24.719791" lon="108.249996">
<time>2016-10-06T16:31:46Z</time></trkpt>
<trkpt lat="24.719861" lon="108.248266">
<time>2016-10-06T16:31:47Z</time></trkpt>
<trkpt lat="24.719832" lon="108.247796">
<time>2016-10-06T16:31:48Z</time></trkpt>
<trkpt lat="24.719762" lon="108.246316">
<time>2016-10-06T16:31:49Z</time></trkpt>
<trkpt lat="24.719412" lon="108.243375">
<time>2016-10-06T16:31:50Z</time></trkpt>
<trkpt lat="24.719081" lon="108.240544">
<time>2016-10-06T16:31:51Z</time></trkpt>
<trkpt lat="24.719071" lon="108.239954">
<time>2016-10-06T16:31:52Z</time></trkpt>
<trkpt lat="24.719051" lon="108.238983">
<time>2016-10-06T16:31:53Z</time></trkpt>
<trkpt lat="24.71916" lon="108.237452">
<time>2016-10-06T16:31:54Z</time></trkpt>
<trkpt lat="24.71934" lon="108.236332">
<time>2016-10-06T16:31:55Z</time></trkpt>
<trkpt lat="24.719799" lon="108.23396">
<time>2016-10-06T16:31:56Z</time></trkpt>
<trkpt lat="24.719949" lon="108.23318">
<time>2016-10-06T16:31:57Z</time></trkpt>
<trkpt lat="24.720058" lon="108.232059">
<time>2016-10-06T16:31:58Z</time></trkpt>
<trkpt lat="24.720058" lon="108.231839">
<time>2016-10-06T16:31:59Z</time></trkpt>
<trkpt lat="24.720028" lon="108.231578">
<time>2016-10-06T16:32:00Z</time></trkpt>
<trkpt lat="24.719988" lon="108.231348">
<time>2016-10-06T16:32:01Z</time></trkpt>
<trkpt lat="24.719948" lon="108.231108">
<time>2016-10-06T16:32:02Z</time></trkpt>
<trkpt lat="24.719807" lon="108.230688">
<time>2016-10-06T16:32:03Z</time></trkpt>
<trkpt lat="24.719667" lon="108.230357">
<time>2016-10-06T16:32:04Z</time></trkpt>
<trkpt lat="24.719267" lon="108.229657">
<time>2016-10-06T16:32:05Z</time></trkpt>
<trkpt lat="24.718976" lon="108.229146">
<time>2016-10-06T16:32:06Z</time></trkpt>
<trkpt lat="24.718846" lon="108.228846">
<time>2016-10-06T16:32:07Z</time></trkpt>
<trkpt lat="24.718756" lon="108.228606">
<time>2016-10-06T16:32:08Z</time></trkpt>
<trkpt lat="24.718706" lon="108.228376">
<time>2016-10-06T16:32:09Z</time></trkpt>
<trkpt lat="24.718686" lon="108.228286">
<time>2016-10-06T16:32:10Z</time></trkpt>
<trkpt lat="24.718656" lon="108.228055">
<time>2016-10-06T16:32:11Z</time></trkpt>
<trkpt lat="24.718665" lon="108.227235">
<time>2016-10-06T16:32:12Z</time></trkpt>
<trkpt lat="24.718675" lon="108.226724">
<time>2016-10-06T16:32:13Z</time></trkpt>
<trkpt lat="24.718665" lon="108.226424">
<time>2016-10-06T16:32:14Z</time></trkpt>
<trkpt lat="24.718645" lon="108.226214">
<time>2016-10-06T16:32:15Z</time></trkpt>
<trkpt lat="24.718624" lon="108.226023">
<time>2016-10-06T16:32:16Z</time></trkpt>
<trkpt lat="24.718564" lon="108.225813">
<time>2016-10-06T16:32:17Z</time></trkpt>
<trkpt lat="24.718374" lon="108.225333">
<time>2016-10-06T16:32:18Z</time></trkpt>
<trkpt lat="24.718264" lon="108.225113">
<time>2016-10-06T16:32:19Z</time></trkpt>
<trkpt lat="24.718053" lon="108.224712">
<time>2016-10-06T16:32:20Z</time></trkpt>
<trkpt lat="24.717983" lon="108.224532">
<time>2016-10-06T16:32:21Z</time></trkpt>
<trkpt lat="24.717883" lon="108.224302">
<time>2016-10-06T16:32:22Z</time></trkpt>
<trkpt lat="24.717783" lon="108.223921">
<time>2016-10-06T16:32:23Z</time></trkpt>
<trkpt lat="24.717763" lon="108.223781">
<time>2016-10-06T16:32:24Z</time></trkpt>
<trkpt lat="24.717733" lon="108.223621">
<time>2016-10-06T16:32:25Z</time></trkpt>
<trkpt lat="24.717722" lon="108.223511">
<time>2016-10-06T16:32:26Z</time></trkpt>
<trkpt lat="24.717702" lon="108.223211">
<time>2016-10-06T16:32:27Z</time></trkpt>
<trkpt lat="24.717722" lon="108.22301">
<time>2016-10-06T16:32:28Z</time></trkpt>
<trkpt lat="24.717732" lon="108.22284">
<time>2016-10-06T16:32:29Z</time></trkpt>
<trkpt lat="24.717762" lon="108.22257">
<time>2016-10-06T16:32:30Z</time></trkpt>
<trkpt lat="24.717801" lon="108.222089">
<time>2016-10-06T16:32:31Z</time></trkpt>
<trkpt lat="24.717861" lon="108.221589">
<time>2016-10-06T16:32:32Z</time></trkpt>
<trkpt lat="24.7179" lon="108.221128">
<time>2016-10-06T16:32:33Z</time></trkpt>
<trkpt lat="24.71796" lon="108.220497">
<time>2016-10-06T16:32:34Z</time></trkpt>
<trkpt lat="24.71797" lon="108.220337">
<time>2016-10-06T16:32:35Z</time></trkpt>
<trkpt lat="24.71797" lon="108.220237">
<time>2016-10-06T16:32:36Z</time></trkpt>
<trkpt lat="24.717949" lon="108.220097">
<time>2016-10-06T16:32:37Z</time></trkpt>
<trkpt lat="24.717929" lon="108.219907">
<time>2016-10-06T16:32:38Z</time></trkpt>
<trkpt lat="24.717879" lon="108.219716">
<time>2016-10-06T16:32:39Z</time></trkpt>
<trkpt lat="24.717819" lon="108.219546">
<time>2016-10-06T16:32:40Z</time></trkpt>
<trkpt lat="24.717779" lon="108.219466">
<time>2016-10-06T16:32:41Z</time></trkpt>
<trkpt lat="24.717709" lon="108.219316">
<time>2016-10-06T16:32:42Z</time></trkpt>
<trkpt lat="24.716597" lon="108.217514">
<time>2016-10-06T16:32:43Z</time></trkpt>
<trkpt lat="24.716527" lon="108.217383">
<time>2016-10-06T16:32:44Z</time></trkpt>
<trkpt lat="24.716437" lon="108.217183">
<time>2016-10-06T16:32:45Z</time></trkpt>
<trkpt lat="24.716367" lon="108.217023">
<time>2016-10-06T16:32:46Z</time></trkpt>
<trkpt lat="24.716316" lon="108.216853">
<time>2016-10-06T16:32:47Z</time></trkpt>
<trkpt lat="24.716276" lon="108.216703">
<time>2016-10-06T16:32:48Z</time></trkpt>
<trkpt lat="24.716236" lon="108.216482">
<time>2016-10-06T16:32:49Z</time></trkpt>
<trkpt lat="24.716236" lon="108.216392">
<time>2016-10-06T16:32:50Z</time></trkpt>
<trkpt lat="24.716195" lon="108.215741">
<time>2016-10-06T16:32:51Z</time></trkpt>
<trkpt lat="24.716073" lon="108.213688">
<time>2016-10-06T16:32:52Z</time></trkpt>
<trkpt lat="24.715942" lon="108.212486">
<time>2016-10-06T16:32:53Z</time></trkpt>
<trkpt lat="24.715761" lon="108.211675">
<time>2016-10-06T16:32:54Z</time></trkpt>
<trkpt lat="24.71567" lon="108.211375">
<time>2016-10-06T16:32:55Z</time></trkpt>
<trkpt lat="24.71559" lon="108.211154">
<time>2016-10-06T16:32:56Z</time></trkpt>
<trkpt lat="24.71548" lon="108.210884">
<time>2016-10-06T16:32:57Z</time></trkpt>
<trkpt lat="24.714387" lon="108.208671">
<time>2016-10-06T16:32:58Z</time></trkpt>
<trkpt lat="24.714076" lon="108.207949">
<time>2016-10-06T16:32:59Z</time></trkpt>
<trkpt lat="24.713845" lon="108.207368">
<time>2016-10-06T16:33:00Z</time></trkpt>
<trkpt lat="24.713112" lon="108.204854">
<time>2016-10-06T16:33:01Z</time></trkpt>
<trkpt lat="24.712871" lon="108.204273">
<time>2016-10-06T16:33:02Z</time></trkpt>
<trkpt lat="24.71257" lon="108.203722">
<time>2016-10-06T16:33:03Z</time></trkpt>
<trkpt lat="24.71235" lon="108.203382">
<time>2016-10-06T16:33:04Z</time></trkpt>
<trkpt lat="24.711889" lon="108.202791">
<time>2016-10-06T16:33:05Z</time></trkpt>
<trkpt lat="24.711498" lon="108.20237">
<time>2016-10-06T16:33:06Z</time></trkpt>
<trkpt lat="24.711248" lon="108.202119">
<time>2016-10-06T16:33:07Z</time></trkpt>
<trkpt lat="24.710908" lon="108.201849">
<time>2016-10-06T16:33:08Z</time></trkpt>
<trkpt lat="24.709877" lon="108.201108">
<time>2016-10-06T16:33:09Z</time></trkpt>
<trkpt lat="24.709626" lon="108.200907">
<time>2016-10-06T16:33:10Z</time></trkpt>
<trkpt lat="24.709476" lon="108.200757">
<time>2016-10-06T16:33:11Z</time></trkpt>
<trkpt lat="24.709336" lon="108.200587">
<time>2016-10-06T16:33:12Z</time></trkpt>
<trkpt lat="24.709236" lon="108.200466">
<time>2016-10-06T16:33:13Z</time></trkpt>
<trkpt lat="24.709156" lon="108.200306">
<time>2016-10-06T16:33:14Z</time></trkpt>
<trkpt lat="24.709125" lon="108.200236">
<time>2016-10-06T16:33:15Z</time></trkpt>
<trkpt lat="24.709065" lon="108.200106">
<time>2016-10-06T16:33:16Z</time></trkpt>
<trkpt lat="24.709005" lon="108.199905">
<time>2016-10-06T16:33:17Z</time></trkpt>
<trkpt lat="24.708955" lon="108.199685">
<time>2016-10-06T16:33:18Z</time></trkpt>
<trkpt lat="24.708944" lon="108.199495">
<time>2016-10-06T16:33:19Z</time></trkpt>
<trkpt lat="24.708944" lon="108.199294">
<time>2016-10-06T16:33:20Z</time></trkpt>
<trkpt lat="24.708964" lon="108.199084">
<time>2016-10-06T16:33:21Z</time></trkpt>
<trkpt lat="24.709063" lon="108.198663">
<time>2016-10-06T16:33:22Z</time></trkpt>
<trkpt lat="24.709222" lon="108.198202">
<time>2016-10-06T16:33:23Z</time></trkpt>
<trkpt lat="24.711264" lon="108.193112">
<time>2016-10-06T16:33:24Z</time></trkpt>
<trkpt lat="24.712718" lon="108.189504">
<time>2016-10-06T16:33:25Z</time></trkpt>
<trkpt lat="24.712867" lon="108.189094">
<time>2016-10-06T16:33:26Z</time></trkpt>
<trkpt lat="24.712997" lon="108.188713">
<time>2016-10-06T16:33:27Z</time></trkpt>
<trkpt lat="24.713175" lon="108.188031">
<time>2016-10-06T16:33:28Z</time></trkpt>
<trkpt lat="24.713304" lon="108.18746">
<time>2016-10-06T16:33:29Z</time></trkpt>
<trkpt lat="24.713394" lon="108.186959">
<time>2016-10-06T16:33:30Z</time></trkpt>
<trkpt lat="24.713453" lon="108.186498">
<time>2016-10-06T16:33:31Z</time></trkpt>
<trkpt lat="24.713482" lon="108.185857">
<time>2016-10-06T16:33:32Z</time></trkpt>
<trkpt lat="24.713501" lon="108.185305">
<time>2016-10-06T16:33:33Z</time></trkpt>
<trkpt lat="24.713449" lon="108.184453">
<time>2016-10-06T16:33:34Z</time></trkpt>
<trkpt lat="24.713418" lon="108.183972">
<time>2016-10-06T16:33:35Z</time></trkpt>
<trkpt lat="24.713317" lon="108.183471">
<time>2016-10-06T16:33:36Z</time></trkpt>
<trkpt lat="24.713307" lon="108.183391">
<time>2016-10-06T16:33:37Z</time></trkpt>
<trkpt lat="24.713196" lon="108.18293">
<time>2016-10-06T16:33:38Z</time></trkpt>
<trkpt lat="24.711878" lon="108.17847">
<time>2016-10-06T16:33:39Z</time></trkpt>
<trkpt lat="24.711385" lon="108.176796">
<time>2016-10-06T16:33:40Z</time></trkpt>
<trkpt lat="24.711265" lon="108.176375">
<time>2016-10-06T16:33:41Z</time></trkpt>
<trkpt lat="24.711103" lon="108.175684">
<time>2016-10-06T16:33:42Z</time></trkpt>
<trkpt lat="24.711023" lon="108.175313">
<time>2016-10-06T16:33:43Z</time></trkpt>
<trkpt lat="24.710972" lon="108.174992">
<time>2016-10-06T16:33:44Z</time></trkpt>
<trkpt lat="24.710942" lon="108.174752">
<time>2016-10-06T16:33:45Z</time></trkpt>
<trkpt lat="24.710911" lon="108.174461">
<time>2016-10-06T16:33:46Z</time></trkpt>
<trkpt lat="24.710911" lon="108.174241">
<time>2016-10-06T16:33:47Z</time></trkpt>
<trkpt lat="24.71093" lon="108.17396">
<time>2016-10-06T16:33:48Z</time></trkpt>
<trkpt lat="24.710959" lon="108.173529">
<time>2016-10-06T16:33:49Z</time></trkpt>
<trkpt lat="24.711019" lon="108.173188">
<time>2016-10-06T16:33:50Z</time></trkpt>
<trkpt lat="24.711078" lon="108.172938">
<time>2016-10-06T16:33:51Z</time></trkpt>
<trkpt lat="24.711277" lon="108.172296">
<time>2016-10-06T16:33:52Z</time></trkpt>
<trkpt lat="24.712262" lon="108.16976">
<time>2016-10-06T16:33:53Z</time></trkpt>
<trkpt lat="24.712481" lon="108.168998">
<time>2016-10-06T16:33:54Z</time></trkpt>
<trkpt lat="24.71252" lon="108.168878">
<time>2016-10-06T16:33:55Z</time></trkpt>
<trkpt lat="24.71254" lon="108.168748">
<time>2016-10-06T16:33:56Z</time></trkpt>
<trkpt lat="24.71255" lon="108.168607">
<time>2016-10-06T16:33:57Z</time></trkpt>
<trkpt lat="24.712579" lon="108.168387">
<time>2016-10-06T16:33:58Z</time></trkpt>
<trkpt lat="24.712569" lon="108.168166">
<time>2016-10-06T16:33:59Z</time></trkpt>
<trkpt lat="24.712549" lon="108.167926">
<time>2016-10-06T16:34:00Z</time></trkpt>
<trkpt lat="24.712528" lon="108.167775">
<time>2016-10-06T16:34:01Z</time></trkpt>
<trkpt lat="24.712488" lon="108.167585">
<time>2016-10-06T16:34:02Z</time></trkpt>
<trkpt lat="24.712448" lon="108.167425">
<time>2016-10-06T16:34:03Z</time></trkpt>
<trkpt lat="24.712347" lon="108.167174">
<time>2016-10-06T16:34:04Z</time></trkpt>
<trkpt lat="24.712227" lon="108.166924">
<time>2016-10-06T16:34:05Z</time></trkpt>
<trkpt lat="24.712096" lon="108.166713">
<time>2016-10-06T16:34:06Z</time></trkpt>
<trkpt lat="24.711836" lon="108.166342">
<time>2016-10-06T16:34:07Z</time></trkpt>
<trkpt lat="24.711294" lon="108.16555">
<time>2016-10-06T16:34:08Z</time></trkpt>
<trkpt lat="24.711174" lon="108.16537">
<time>2016-10-06T16:34:09Z</time></trkpt>
<trkpt lat="24.711104" lon="108.16524">
<time>2016-10-06T16:34:10Z</time></trkpt>
<trkpt lat="24.711003" lon="108.165059">
<time>2016-10-06T16:34:11Z</time></trkpt>
<trkpt lat="24.710933" lon="108.164879">
<time>2016-10-06T16:34:12Z</time></trkpt>
<trkpt lat="24.710893" lon="108.164769">
<time>2016-10-06T16:34:13Z</time></trkpt>
<trkpt lat="24.710832" lon="108.164568">
<time>2016-10-06T16:34:14Z</time></trkpt>
<trkpt lat="24.710802" lon="108.164368">
<time>2016-10-06T16:34:15Z</time></trkpt>
<trkpt lat="24.710782" lon="108.164187">
<time>2016-10-06T16:34:16Z</time></trkpt>
<trkpt lat="24.710771" lon="108.164047">
<time>2016-10-06T16:34:17Z</time></trkpt>
<trkpt lat="24.710781" lon="108.163877">
<time>2016-10-06T16:34:18Z</time></trkpt>
<trkpt lat="24.710791" lon="108.163666">
<time>2016-10-06T16:34:19Z</time></trkpt>
<trkpt lat="24.71081" lon="108.163516">
<time>2016-10-06T16:34:20Z</time></trkpt>
<trkpt lat="24.71085" lon="108.163345">
<time>2016-10-06T16:34:21Z</time></trkpt>
<trkpt lat="24.710969" lon="108.162874">
<time>2016-10-06T16:34:22Z</time></trkpt>
<trkpt lat="24.711803" lon="108.159637">
<time>2016-10-06T16:34:23Z</time></trkpt>
<trkpt lat="24.711853" lon="108.159456">
<time>2016-10-06T16:34:24Z</time></trkpt>
<trkpt lat="24.711892" lon="108.159206">
<time>2016-10-06T16:34:25Z</time></trkpt>
<trkpt lat="24.712208" lon="108.157031">
<time>2016-10-06T16:34:26Z</time></trkpt>
<trkpt lat="24.712238" lon="108.1568">
<time>2016-10-06T16:34:27Z</time></trkpt>
<trkpt lat="24.712238" lon="108.15667">
<time>2016-10-06T16:34:28Z</time></trkpt>
<trkpt lat="24.712315" lon="108.155016">
<time>2016-10-06T16:34:29Z</time></trkpt>
<trkpt lat="24.712314" lon="108.154786">
<time>2016-10-06T16:34:30Z</time></trkpt>
<trkpt lat="24.712304" lon="108.154535">
<time>2016-10-06T16:34:31Z</time></trkpt>
<trkpt lat="24.712108" lon="108.151528">
<time>2016-10-06T16:34:32Z</time></trkpt>
<trkpt lat="24.712088" lon="108.151278">
<time>2016-10-06T16:34:33Z</time></trkpt>
<trkpt lat="24.712088" lon="108.151268">
<time>2016-10-06T16:34:34Z</time></trkpt>
<trkpt lat="24.712006" lon="108.150035">
<time>2016-10-06T16:34:35Z</time></trkpt>
<trkpt lat="24.711647" lon="108.144784">
<time>2016-10-06T16:34:36Z</time></trkpt>
<trkpt lat="24.711616" lon="108.144192">
<time>2016-10-06T16:34:37Z</time></trkpt>
<trkpt lat="24.711421" lon="108.141457">
<time>2016-10-06T16:34:38Z</time></trkpt>
<trkpt lat="24.71143" lon="108.140815">
<time>2016-10-06T16:34:39Z</time></trkpt>
<trkpt lat="24.711439" lon="108.140264">
<time>2016-10-06T16:34:40Z</time></trkpt>
<trkpt lat="24.711833" lon="108.136286">
<time>2016-10-06T16:34:41Z</time></trkpt>
<trkpt lat="24.711862" lon="108.135876">
<time>2016-10-06T16:34:42Z</time></trkpt>
<trkpt lat="24.711882" lon="108.135455">
<time>2016-10-06T16:34:43Z</time></trkpt>
<trkpt lat="24.711881" lon="108.134974">
<time>2016-10-06T16:34:44Z</time></trkpt>
<trkpt lat="24.71187" lon="108.134583">
<time>2016-10-06T16:34:45Z</time></trkpt>
<trkpt lat="24.71185" lon="108.134283">
<time>2016-10-06T16:34:46Z</time></trkpt>
<trkpt lat="24.711749" lon="108.133511">
<time>2016-10-06T16:34:47Z</time></trkpt>
<trkpt lat="24.711608" lon="108.13265">
<time>2016-10-06T16:34:48Z</time></trkpt>
<trkpt lat="24.711477" lon="108.132099">
<time>2016-10-06T16:34:49Z</time></trkpt>
<trkpt lat="24.711316" lon="108.131538">
<time>2016-10-06T16:34:50Z</time></trkpt>
<trkpt lat="24.711085" lon="108.130836">
<time>2016-10-06T16:34:51Z</time></trkpt>
<trkpt lat="24.710905" lon="108.130375">
<time>2016-10-06T16:34:52Z</time></trkpt>
<trkpt lat="24.710754" lon="108.130025">
<time>2016-10-06T16:34:53Z</time></trkpt>
<trkpt lat="24.710533" lon="108.129574">
<time>2016-10-06T16:34:54Z</time></trkpt>
<trkpt lat="24.710082" lon="108.128763">
<time>2016-10-06T16:34:55Z</time></trkpt>
<trkpt lat="24.709912" lon="108.128472">
<time>2016-10-06T16:34:56Z</time></trkpt>
<trkpt lat="24.709832" lon="108.128342">
<time>2016-10-06T16:34:57Z</time></trkpt>
<trkpt lat="24.709581" lon="108.127971">
<time>2016-10-06T16:34:58Z</time></trkpt>
<trkpt lat="24.707598" lon="108.125007">
<time>2016-10-06T16:34:59Z</time></trkpt>
<trkpt lat="24.706846" lon="108.123895">
<time>2016-10-06T16:35:00Z</time></trkpt>
<trkpt lat="24.706716" lon="108.123655">
<time>2016-10-06T16:35:01Z</time></trkpt>
<trkpt lat="24.706576" lon="108.123404">
<time>2016-10-06T16:35:02Z</time></trkpt>
<trkpt lat="24.706395" lon="108.123004">
<time>2016-10-06T16:35:03Z</time></trkpt>
<trkpt lat="24.706195" lon="108.122363">
<time>2016-10-06T16:35:04Z</time></trkpt>
<trkpt lat="24.705772" lon="108.120009">
<time>2016-10-06T16:35:05Z</time></trkpt>
<trkpt lat="24.704606" lon="108.113641">
<time>2016-10-06T16:35:06Z</time></trkpt>
<trkpt lat="24.704335" lon="108.112179">
<time>2016-10-06T16:35:07Z</time></trkpt>
<trkpt lat="24.703914" lon="108.109837">
<time>2016-10-06T16:35:08Z</time></trkpt>
<trkpt lat="24.703753" lon="108.109276">
<time>2016-10-06T16:35:09Z</time></trkpt>
<trkpt lat="24.703543" lon="108.108506">
<time>2016-10-06T16:35:10Z</time></trkpt>
<trkpt lat="24.703112" lon="108.107385">
<time>2016-10-06T16:35:11Z</time></trkpt>
<trkpt lat="24.702802" lon="108.106694">
<time>2016-10-06T16:35:12Z</time></trkpt>
<trkpt lat="24.702582" lon="108.106204">
<time>2016-10-06T16:35:13Z</time></trkpt>
<trkpt lat="24.702381" lon="108.105863">
<time>2016-10-06T16:35:14Z</time></trkpt>
<trkpt lat="24.702181" lon="108.105503">
<time>2016-10-06T16:35:15Z</time></trkpt>
<trkpt lat="24.702151" lon="108.105433">
<time>2016-10-06T16:35:16Z</time></trkpt>
<trkpt lat="24.701911" lon="108.105013">
<time>2016-10-06T16:35:17Z</time></trkpt>
<trkpt lat="24.701851" lon="108.104913">
<time>2016-10-06T16:35:18Z</time></trkpt>
<trkpt lat="24.701351" lon="108.104192">
<time>2016-10-06T16:35:19Z</time></trkpt>
<trkpt lat="24.70038" lon="108.102791">
<time>2016-10-06T16:35:20Z</time></trkpt>
<trkpt lat="24.70038" lon="108.102791">
<time>2016-10-06T16:35:21Z</time></trkpt>
<trkpt lat="24.70034" lon="108.102831">
<time>2016-10-06T16:35:22Z</time></trkpt>
<trkpt lat="24.70034" lon="108.102831">
<time>2016-10-06T16:35:23Z</time></trkpt>
<trkpt lat="24.6991" lon="108.10106">
<time>2016-10-06T16:35:24Z</time></trkpt>
<trkpt lat="24.69907" lon="108.10102">
<time>2016-10-06T16:35:25Z</time></trkpt>
<trkpt lat="24.698979" lon="108.1009">
<time>2016-10-06T16:35:26Z</time></trkpt>
<trkpt lat="24.698949" lon="108.10085">
<time>2016-10-06T16:35:27Z</time></trkpt>
<trkpt lat="24.698189" lon="108.099759">
<time>2016-10-06T16:35:28Z</time></trkpt>
<trkpt lat="24.698189" lon="108.099759">
<time>2016-10-06T16:35:29Z</time></trkpt>
<trkpt lat="24.698949" lon="108.10085">
<time>2016-10-06T16:35:30Z</time></trkpt>
<trkpt lat="24.698979" lon="108.1009">
<time>2016-10-06T16:35:31Z</time></trkpt>
<trkpt lat="24.69907" lon="108.10102">
<time>2016-10-06T16:35:32Z</time></trkpt>
<trkpt lat="24.69907" lon="108.10102">
<time>2016-10-06T16:35:33Z</time></trkpt>
<trkpt lat="24.699059" lon="108.10091">
<time>2016-10-06T16:35:34Z</time></trkpt>
<trkpt lat="24.699009" lon="108.099419">
<time>2016-10-06T16:35:35Z</time></trkpt>
<trkpt lat="24.698969" lon="108.098208">
<time>2016-10-06T16:35:36Z</time></trkpt>
<trkpt lat="24.698778" lon="108.093096">
<time>2016-10-06T16:35:37Z</time></trkpt>
<trkpt lat="24.698669" lon="108.090506">
<time>2016-10-06T16:35:38Z</time></trkpt>
<trkpt lat="24.698559" lon="108.088036">
<time>2016-10-06T16:35:39Z</time></trkpt>
<trkpt lat="24.69844" lon="108.085466">
<time>2016-10-06T16:35:40Z</time></trkpt>
<trkpt lat="24.698351" lon="108.083106">
<time>2016-10-06T16:35:41Z</time></trkpt>
<trkpt lat="24.698331" lon="108.082626">
<time>2016-10-06T16:35:42Z</time></trkpt>
<trkpt lat="24.698331" lon="108.082566">
<time>2016-10-06T16:35:43Z</time></trkpt>
<trkpt lat="24.698321" lon="108.082516">
<time>2016-10-06T16:35:44Z</time></trkpt>
<trkpt lat="24.698292" lon="108.080957">
<time>2016-10-06T16:35:45Z</time></trkpt>
<trkpt lat="24.698272" lon="108.080507">
<time>2016-10-06T16:35:46Z</time></trkpt>
<trkpt lat="24.698253" lon="108.080417">
<time>2016-10-06T16:35:47Z</time></trkpt>
<trkpt lat="24.698194" lon="108.078778">
<time>2016-10-06T16:35:48Z</time></trkpt>
<trkpt lat="24.698194" lon="108.078748">
<time>2016-10-06T16:35:49Z</time></trkpt>
<trkpt lat="24.698194" lon="108.078718">
<time>2016-10-06T16:35:50Z</time></trkpt>
<trkpt lat="24.698194" lon="108.078718">
<time>2016-10-06T16:35:51Z</time></trkpt>
<trkpt lat="24.698174" lon="108.078418">
<time>2016-10-06T16:35:52Z</time></trkpt>
<trkpt lat="24.698055" lon="108.076689">
<time>2016-10-06T16:35:53Z</time></trkpt>
<trkpt lat="24.698026" lon="108.075669">
<time>2016-10-06T16:35:54Z</time></trkpt>
<trkpt lat="24.697997" lon="108.07459">
<time>2016-10-06T16:35:55Z</time></trkpt>
<trkpt lat="24.697977" lon="108.07394">
<time>2016-10-06T16:35:56Z</time></trkpt>
<trkpt lat="24.697958" lon="108.073621">
<time>2016-10-06T16:35:57Z</time></trkpt>
<trkpt lat="24.697909" lon="108.072511">
<time>2016-10-06T16:35:58Z</time></trkpt>
<trkpt lat="24.697849" lon="108.071932">
<time>2016-10-06T16:35:59Z</time></trkpt>
<trkpt lat="24.697839" lon="108.071812">
<time>2016-10-06T16:36:00Z</time></trkpt>
<trkpt lat="24.697839" lon="108.071802">
<time>2016-10-06T16:36:01Z</time></trkpt>
<trkpt lat="24.69781" lon="108.071572">
<time>2016-10-06T16:36:02Z</time></trkpt>
<trkpt lat="24.69775" lon="108.071242">
<time>2016-10-06T16:36:03Z</time></trkpt>
<trkpt lat="24.69764" lon="108.070783">
<time>2016-10-06T16:36:04Z</time></trkpt>
<trkpt lat="24.697441" lon="108.070013">
<time>2016-10-06T16:36:05Z</time></trkpt>
<trkpt lat="24.697402" lon="108.069734">
<time>2016-10-06T16:36:06Z</time></trkpt>
<trkpt lat="24.697362" lon="108.069494">
<time>2016-10-06T16:36:07Z</time></trkpt>
<trkpt lat="24.697332" lon="108.068994">
<time>2016-10-06T16:36:08Z</time></trkpt>
<trkpt lat="24.697332" lon="108.068964">
<time>2016-10-06T16:36:09Z</time></trkpt>
<trkpt lat="24.697332" lon="108.068904">
<time>2016-10-06T16:36:10Z</time></trkpt>
<trkpt lat="24.697303" lon="108.068415">
<time>2016-10-06T16:36:11Z</time></trkpt>
<trkpt lat="24.697254" lon="108.067815">
<time>2016-10-06T16:36:12Z</time></trkpt>
<trkpt lat="24.697214" lon="108.067776">
<time>2016-10-06T16:36:13Z</time></trkpt>
<trkpt lat="24.697016" lon="108.065977">
<time>2016-10-06T16:36:14Z</time></trkpt>
<trkpt lat="24.696947" lon="108.065318">
<time>2016-10-06T16:36:15Z</time></trkpt>
<trkpt lat="24.696917" lon="108.065108">
<time>2016-10-06T16:36:16Z</time></trkpt>
<trkpt lat="24.696907" lon="108.064889">
<time>2016-10-06T16:36:17Z</time></trkpt>
<trkpt lat="24.696888" lon="108.064629">
<time>2016-10-06T16:36:18Z</time></trkpt>
<trkpt lat="24.696888" lon="108.064399">
<time>2016-10-06T16:36:19Z</time></trkpt>
<trkpt lat="24.696889" lon="108.06347">
<time>2016-10-06T16:36:20Z</time></trkpt>
<trkpt lat="24.69691" lon="108.062711">
<time>2016-10-06T16:36:21Z</time></trkpt>
<trkpt lat="24.696921" lon="108.062511">
<time>2016-10-06T16:36:22Z</time></trkpt>
<trkpt lat="24.696941" lon="108.062401">
<time>2016-10-06T16:36:23Z</time></trkpt>
<trkpt lat="24.696971" lon="108.062282">
<time>2016-10-06T16:36:24Z</time></trkpt>
<trkpt lat="24.697061" lon="108.062012">
<time>2016-10-06T16:36:25Z</time></trkpt>
<trkpt lat="24.697453" lon="108.060933">
<time>2016-10-06T16:36:26Z</time></trkpt>
<trkpt lat="24.697513" lon="108.060724">
<time>2016-10-06T16:36:27Z</time></trkpt>
<trkpt lat="24.697584" lon="108.060404">
<time>2016-10-06T16:36:28Z</time></trkpt>
<trkpt lat="24.697705" lon="108.059715">
<time>2016-10-06T16:36:29Z</time></trkpt>
<trkpt lat="24.697806" lon="108.059106">
<time>2016-10-06T16:36:30Z</time></trkpt>
<trkpt lat="24.697836" lon="108.058956">
<time>2016-10-06T16:36:31Z</time></trkpt>
<trkpt lat="24.697967" lon="108.058227">
<time>2016-10-06T16:36:32Z</time></trkpt>
<trkpt lat="24.698108" lon="108.057438">
<time>2016-10-06T16:36:33Z</time></trkpt>
<trkpt lat="24.698381" lon="108.05584">
<time>2016-10-06T16:36:34Z</time></trkpt>
<trkpt lat="24.698492" lon="108.055181">
<time>2016-10-06T16:36:35Z</time></trkpt>
<trkpt lat="24.698492" lon="108.055151">
<time>2016-10-06T16:36:36Z</time></trkpt>
<trkpt lat="24.698694" lon="108.054103">
<time>2016-10-06T16:36:37Z</time></trkpt>
<trkpt lat="24.698987" lon="108.052546">
<time>2016-10-06T16:36:38Z</time></trkpt>
<trkpt lat="24.69939" lon="108.050409">
<time>2016-10-06T16:36:39Z</time></trkpt>
<trkpt lat="24.699431" lon="108.05018">
<time>2016-10-06T16:36:40Z</time></trkpt>
<trkpt lat="24.699441" lon="108.05007">
<time>2016-10-06T16:36:41Z</time></trkpt>
<trkpt lat="24.699441" lon="108.05003">
<time>2016-10-06T16:36:42Z</time></trkpt>
<trkpt lat="24.699432" lon="108.04984">
<time>2016-10-06T16:36:43Z</time></trkpt>
<trkpt lat="24.699402" lon="108.049631">
<time>2016-10-06T16:36:44Z</time></trkpt>
<trkpt lat="24.699362" lon="108.049471">
<time>2016-10-06T16:36:45Z</time></trkpt>
<trkpt lat="24.699303" lon="108.049191">
<time>2016-10-06T16:36:46Z</time></trkpt>
<trkpt lat="24.699194" lon="108.048752">
<time>2016-10-06T16:36:47Z</time></trkpt>
<trkpt lat="24.699085" lon="108.048223">
<time>2016-10-06T16:36:48Z</time></trkpt>
<trkpt lat="24.699026" lon="108.047644">
<time>2016-10-06T16:36:49Z</time></trkpt>
<trkpt lat="24.698918" lon="108.046477">
<time>2016-10-06T16:36:50Z</time></trkpt>
<trkpt lat="24.698908" lon="108.046377">
<time>2016-10-06T16:36:51Z</time></trkpt>
<trkpt lat="24.698889" lon="108.046227">
<time>2016-10-06T16:36:52Z</time></trkpt>
<trkpt lat="24.698859" lon="108.045968">
<time>2016-10-06T16:36:53Z</time></trkpt>
<trkpt lat="24.69882" lon="108.045708">
<time>2016-10-06T16:36:54Z</time></trkpt>
<trkpt lat="24.69877" lon="108.045479">
<time>2016-10-06T16:36:55Z</time></trkpt>
<trkpt lat="24.698432" lon="108.04456">
<time>2016-10-06T16:36:56Z</time></trkpt>
<trkpt lat="24.698213" lon="108.043972">
<time>2016-10-06T16:36:57Z</time></trkpt>
<trkpt lat="24.697547" lon="108.042285">
<time>2016-10-06T16:36:58Z</time></trkpt>
<trkpt lat="24.697219" lon="108.041517">
<time>2016-10-06T16:36:59Z</time></trkpt>
<trkpt lat="24.697119" lon="108.041317">
<time>2016-10-06T16:37:00Z</time></trkpt>
<trkpt lat="24.69694" lon="108.040978">
<time>2016-10-06T16:37:01Z</time></trkpt>
<trkpt lat="24.696422" lon="108.04004">
<time>2016-10-06T16:37:02Z</time></trkpt>
<trkpt lat="24.696342" lon="108.03989">
<time>2016-10-06T16:37:03Z</time></trkpt>
<trkpt lat="24.696303" lon="108.03981">
<time>2016-10-06T16:37:04Z</time></trkpt>
<trkpt lat="24.696243" lon="108.039651">
<time>2016-10-06T16:37:05Z</time></trkpt>
<trkpt lat="24.696213" lon="108.039581">
<time>2016-10-06T16:37:06Z</time></trkpt>
<trkpt lat="24.696174" lon="108.039431">
<time>2016-10-06T16:37:07Z</time></trkpt>
<trkpt lat="24.696144" lon="108.039272">
<time>2016-10-06T16:37:08Z</time></trkpt>
<trkpt lat="24.696124" lon="108.039152">
<time>2016-10-06T16:37:09Z</time></trkpt>
<trkpt lat="24.696114" lon="108.039052">
<time>2016-10-06T16:37:10Z</time></trkpt>
<trkpt lat="24.696115" lon="108.038902">
<time>2016-10-06T16:37:11Z</time></trkpt>
<trkpt lat="24.696115" lon="108.038583">
<time>2016-10-06T16:37:12Z</time></trkpt>
<trkpt lat="24.696115" lon="108.038583">
<time>2016-10-06T16:37:13Z</time></trkpt>
<trkpt lat="24.696056" lon="108.038374">
<time>2016-10-06T16:37:14Z</time></trkpt>
<trkpt lat="24.696056" lon="108.038354">
<time>2016-10-06T16:37:15Z</time></trkpt>
<trkpt lat="24.696036" lon="108.038314">
<time>2016-10-06T16:37:16Z</time></trkpt>
<trkpt lat="24.696026" lon="108.038274">
<time>2016-10-06T16:37:17Z</time></trkpt>
<trkpt lat="24.695986" lon="108.038184">
<time>2016-10-06T16:37:18Z</time></trkpt>
<trkpt lat="24.695937" lon="108.038084">
<time>2016-10-06T16:37:19Z</time></trkpt>
<trkpt lat="24.695897" lon="108.037994">
<time>2016-10-06T16:37:20Z</time></trkpt>
<trkpt lat="24.695728" lon="108.037705">
<time>2016-10-06T16:37:21Z</time></trkpt>
<trkpt lat="24.695419" lon="108.037216">
<time>2016-10-06T16:37:22Z</time></trkpt>
<trkpt lat="24.694662" lon="108.035989">
<time>2016-10-06T16:37:23Z</time></trkpt>
<trkpt lat="24.694243" lon="108.035311">
<time>2016-10-06T16:37:24Z</time></trkpt>
<trkpt lat="24.694243" lon="108.035301">
<time>2016-10-06T16:37:25Z</time></trkpt>
<trkpt lat="24.693666" lon="108.034373">
<time>2016-10-06T16:37:26Z</time></trkpt>
<trkpt lat="24.691504" lon="108.030891">
<time>2016-10-06T16:37:27Z</time></trkpt>
<trkpt lat="24.691454" lon="108.030822">
<time>2016-10-06T16:37:28Z</time></trkpt>
<trkpt lat="24.691454" lon="108.030822">
<time>2016-10-06T16:37:29Z</time></trkpt>
<trkpt lat="24.691525" lon="108.030772">
<time>2016-10-06T16:37:30Z</time></trkpt>
<trkpt lat="24.691525" lon="108.030772">
<time>2016-10-06T16:37:31Z</time></trkpt>
<trkpt lat="24.690708" lon="108.029425">
<time>2016-10-06T16:37:32Z</time></trkpt>
<trkpt lat="24.689454" lon="108.02734">
<time>2016-10-06T16:37:33Z</time></trkpt>
<trkpt lat="24.6881" lon="108.025096">
<time>2016-10-06T16:37:34Z</time></trkpt>
<trkpt lat="24.687373" lon="108.02393">
<time>2016-10-06T16:37:35Z</time></trkpt>
<trkpt lat="24.687303" lon="108.02386">
<time>2016-10-06T16:37:36Z</time></trkpt>
<trkpt lat="24.687233" lon="108.0238">
<time>2016-10-06T16:37:37Z</time></trkpt>
<trkpt lat="24.687153" lon="108.02377">
<time>2016-10-06T16:37:38Z</time></trkpt>
<trkpt lat="24.687053" lon="108.02375">
<time>2016-10-06T16:37:39Z</time></trkpt>
<trkpt lat="24.686343" lon="108.02368">
<time>2016-10-06T16:37:40Z</time></trkpt>
<trkpt lat="24.685794" lon="108.02364">
<time>2016-10-06T16:37:41Z</time></trkpt>
<trkpt lat="24.684764" lon="108.023561">
<time>2016-10-06T16:37:42Z</time></trkpt>
<trkpt lat="24.680774" lon="108.023332">
<time>2016-10-06T16:37:43Z</time></trkpt>
<trkpt lat="24.679545" lon="108.023252">
<time>2016-10-06T16:37:44Z</time></trkpt>
<trkpt lat="24.678525" lon="108.023192">
<time>2016-10-06T16:37:45Z</time></trkpt>
<trkpt lat="24.677065" lon="108.023082">
<time>2016-10-06T16:37:46Z</time></trkpt>
<trkpt lat="24.675985" lon="108.022993">
<time>2016-10-06T16:37:47Z</time></trkpt>
<trkpt lat="24.674616" lon="108.022843">
<time>2016-10-06T16:37:48Z</time></trkpt>
<trkpt lat="24.674566" lon="108.022843">
<time>2016-10-06T16:37:49Z</time></trkpt>
<trkpt lat="24.674007" lon="108.022604">
<time>2016-10-06T16:37:50Z</time></trkpt>
<trkpt lat="24.673947" lon="108.022574">
<time>2016-10-06T16:37:51Z</time></trkpt>
<trkpt lat="24.673358" lon="108.022195">
<time>2016-10-06T16:37:52Z</time></trkpt>
<trkpt lat="24.673098" lon="108.021996">
<time>2016-10-06T16:37:53Z</time></trkpt>
<trkpt lat="24.673088" lon="108.021986">
<time>2016-10-06T16:37:54Z</time></trkpt>
<trkpt lat="24.671481" lon="108.020839">
<time>2016-10-06T16:37:55Z</time></trkpt>
<trkpt lat="24.670613" lon="108.020211">
<time>2016-10-06T16:37:56Z</time></trkpt>
<trkpt lat="24.670543" lon="108.020161">
<time>2016-10-06T16:37:57Z</time></trkpt>
<trkpt lat="24.669406" lon="108.019363">
<time>2016-10-06T16:37:58Z</time></trkpt>
<trkpt lat="24.668717" lon="108.018874">
<time>2016-10-06T16:37:59Z</time></trkpt>
<trkpt lat="24.668667" lon="108.018844">
<time>2016-10-06T16:38:00Z</time></trkpt>
<trkpt lat="24.668547" lon="108.018765">
<time>2016-10-06T16:38:01Z</time></trkpt>
<trkpt lat="24.66729" lon="108.017887">
<time>2016-10-06T16:38:02Z</time></trkpt>
<trkpt lat="24.666651" lon="108.017438">
<time>2016-10-06T16:38:03Z</time></trkpt>
<trkpt lat="24.666192" lon="108.017109">
<time>2016-10-06T16:38:04Z</time></trkpt>
<trkpt lat="24.664196" lon="108.015614">
<time>2016-10-06T16:38:05Z</time></trkpt>
<trkpt lat="24.664037" lon="108.015494">
<time>2016-10-06T16:38:06Z</time></trkpt>
<trkpt lat="24.663917" lon="108.015404">
<time>2016-10-06T16:38:07Z</time></trkpt>
<trkpt lat="24.662979" lon="108.014696">
<time>2016-10-06T16:38:08Z</time></trkpt>
<trkpt lat="24.662979" lon="108.014696">
<time>2016-10-06T16:38:09Z</time></trkpt>
<trkpt lat="24.661537" lon="108.011934">
<time>2016-10-06T16:38:10Z</time></trkpt>
<trkpt lat="24.661428" lon="108.011745">
<time>2016-10-06T16:38:11Z</time></trkpt>
<trkpt lat="24.661418" lon="108.011715">
<time>2016-10-06T16:38:12Z</time></trkpt>
<trkpt lat="24.661378" lon="108.011645">
<time>2016-10-06T16:38:13Z</time></trkpt>
<trkpt lat="24.660185" lon="108.009183">
<time>2016-10-06T16:38:14Z</time></trkpt>
<trkpt lat="24.660046" lon="108.008724">
<time>2016-10-06T16:38:15Z</time></trkpt>
<trkpt lat="24.660027" lon="108.008634">
<time>2016-10-06T16:38:16Z</time></trkpt>
<trkpt lat="24.660007" lon="108.008534">
<time>2016-10-06T16:38:17Z</time></trkpt>
<trkpt lat="24.659987" lon="108.008435">
<time>2016-10-06T16:38:18Z</time></trkpt>
<trkpt lat="24.659978" lon="108.008335">
<time>2016-10-06T16:38:19Z</time></trkpt>
<trkpt lat="24.659939" lon="108.007846">
<time>2016-10-06T16:38:20Z</time></trkpt>
<trkpt lat="24.660023" lon="108.006471">
<time>2016-10-06T16:38:21Z</time></trkpt>
<trkpt lat="24.66019" lon="108.004297">
<time>2016-10-06T16:38:22Z</time></trkpt>
<trkpt lat="24.660429" lon="108.001176">
<time>2016-10-06T16:38:23Z</time></trkpt>
<trkpt lat="24.660429" lon="108.001156">
<time>2016-10-06T16:38:24Z</time></trkpt>
<trkpt lat="24.660652" lon="108.000329">
<time>2016-10-06T16:38:25Z</time></trkpt>
<trkpt lat="24.660823" lon="107.99999">
<time>2016-10-06T16:38:26Z</time></trkpt>
<trkpt lat="24.660913" lon="107.99981">
<time>2016-10-06T16:38:27Z</time></trkpt>
<trkpt lat="24.661014" lon="107.999661">
<time>2016-10-06T16:38:28Z</time></trkpt>
<trkpt lat="24.661144" lon="107.999491">
<time>2016-10-06T16:38:29Z</time></trkpt>
<trkpt lat="24.661215" lon="107.999412">
<time>2016-10-06T16:38:30Z</time></trkpt>
<trkpt lat="24.661355" lon="107.999252">
<time>2016-10-06T16:38:31Z</time></trkpt>
<trkpt lat="24.661415" lon="107.999212">
<time>2016-10-06T16:38:32Z</time></trkpt>
<trkpt lat="24.661896" lon="107.998773">
<time>2016-10-06T16:38:33Z</time></trkpt>
<trkpt lat="24.662769" lon="107.998026">
<time>2016-10-06T16:38:34Z</time></trkpt>
<trkpt lat="24.66313" lon="107.997717">
<time>2016-10-06T16:38:35Z</time></trkpt>
<trkpt lat="24.664132" lon="107.996869">
<time>2016-10-06T16:38:36Z</time></trkpt>
<trkpt lat="24.664543" lon="107.99653">
<time>2016-10-06T16:38:37Z</time></trkpt>
<trkpt lat="24.665145" lon="107.996002">
<time>2016-10-06T16:38:38Z</time></trkpt>
<trkpt lat="24.665736" lon="107.995493">
<time>2016-10-06T16:38:39Z</time></trkpt>
<trkpt lat="24.665957" lon="107.995304">
<time>2016-10-06T16:38:40Z</time></trkpt>
<trkpt lat="24.666158" lon="107.995104">
<time>2016-10-06T16:38:41Z</time></trkpt>
<trkpt lat="24.666449" lon="107.994815">
<time>2016-10-06T16:38:42Z</time></trkpt>
<trkpt lat="24.666539" lon="107.994705">
<time>2016-10-06T16:38:43Z</time></trkpt>
<trkpt lat="24.666659" lon="107.994566">
<time>2016-10-06T16:38:44Z</time></trkpt>
<trkpt lat="24.66676" lon="107.994436">
<time>2016-10-06T16:38:45Z</time></trkpt>
<trkpt lat="24.66685" lon="107.994287">
<time>2016-10-06T16:38:46Z</time></trkpt>
<trkpt lat="24.666951" lon="107.994137">
<time>2016-10-06T16:38:47Z</time></trkpt>
<trkpt lat="24.667051" lon="107.993958">
<time>2016-10-06T16:38:48Z</time></trkpt>
<trkpt lat="24.667142" lon="107.993788">
<time>2016-10-06T16:38:49Z</time></trkpt>
<trkpt lat="24.667252" lon="107.993549">
<time>2016-10-06T16:38:50Z</time></trkpt>
<trkpt lat="24.667323" lon="107.99334">
<time>2016-10-06T16:38:51Z</time></trkpt>
<trkpt lat="24.667394" lon="107.99314">
<time>2016-10-06T16:38:52Z</time></trkpt>
<trkpt lat="24.667424" lon="107.993021">
<time>2016-10-06T16:38:53Z</time></trkpt>
<trkpt lat="24.667464" lon="107.992861">
<time>2016-10-06T16:38:54Z</time></trkpt>
<trkpt lat="24.667505" lon="107.992632">
<time>2016-10-06T16:38:55Z</time></trkpt>
<trkpt lat="24.667546" lon="107.992362">
<time>2016-10-06T16:38:56Z</time></trkpt>
<trkpt lat="24.667556" lon="107.992193">
<time>2016-10-06T16:38:57Z</time></trkpt>
<trkpt lat="24.667567" lon="107.991974">
<time>2016-10-06T16:38:58Z</time></trkpt>
<trkpt lat="24.667558" lon="107.991694">
<time>2016-10-06T16:38:59Z</time></trkpt>
<trkpt lat="24.667549" lon="107.991515">
<time>2016-10-06T16:39:00Z</time></trkpt>
<trkpt lat="24.667529" lon="107.991316">
<time>2016-10-06T16:39:01Z</time></trkpt>
<trkpt lat="24.66749" lon="107.991027">
<time>2016-10-06T16:39:02Z</time></trkpt>
<trkpt lat="24.667372" lon="107.990418">
<time>2016-10-06T16:39:03Z</time></trkpt>
<trkpt lat="24.667244" lon="107.98983">
<time>2016-10-06T16:39:04Z</time></trkpt>
<trkpt lat="24.666652" lon="107.987208">
<time>2016-10-06T16:39:05Z</time></trkpt>
<trkpt lat="24.665921" lon="107.983938">
<time>2016-10-06T16:39:06Z</time></trkpt>
<trkpt lat="24.665606" lon="107.982462">
<time>2016-10-06T16:39:07Z</time></trkpt>
<trkpt lat="24.665517" lon="107.982003">
<time>2016-10-06T16:39:08Z</time></trkpt>
<trkpt lat="24.665439" lon="107.981485">
<time>2016-10-06T16:39:09Z</time></trkpt>
<trkpt lat="24.66537" lon="107.980867">
<time>2016-10-06T16:39:10Z</time></trkpt>
<trkpt lat="24.665341" lon="107.980528">
<time>2016-10-06T16:39:11Z</time></trkpt>
<trkpt lat="24.665323" lon="107.980129">
<time>2016-10-06T16:39:12Z</time></trkpt>
<trkpt lat="24.665304" lon="107.97969">
<time>2016-10-06T16:39:13Z</time></trkpt>
<trkpt lat="24.665304" lon="107.979521">
<time>2016-10-06T16:39:14Z</time></trkpt>
<trkpt lat="24.665305" lon="107.979351">
<time>2016-10-06T16:39:15Z</time></trkpt>
<trkpt lat="24.665307" lon="107.978743">
<time>2016-10-06T16:39:16Z</time></trkpt>
<trkpt lat="24.665413" lon="107.972949">
<time>2016-10-06T16:39:17Z</time></trkpt>
<trkpt lat="24.66546" lon="107.970706">
<time>2016-10-06T16:39:18Z</time></trkpt>
<trkpt lat="24.665486" lon="107.968581">
<time>2016-10-06T16:39:19Z</time></trkpt>
<trkpt lat="24.665541" lon="107.966387">
<time>2016-10-06T16:39:20Z</time></trkpt>
<trkpt lat="24.665534" lon="107.965579">
<time>2016-10-06T16:39:21Z</time></trkpt>
<trkpt lat="24.665525" lon="107.964961">
<time>2016-10-06T16:39:22Z</time></trkpt>
<trkpt lat="24.665497" lon="107.964223">
<time>2016-10-06T16:39:23Z</time></trkpt>
<trkpt lat="24.665487" lon="107.964153">
<time>2016-10-06T16:39:24Z</time></trkpt>
<trkpt lat="24.665116" lon="107.960632">
<time>2016-10-06T16:39:25Z</time></trkpt>
<trkpt lat="24.665029" lon="107.959744">
<time>2016-10-06T16:39:26Z</time></trkpt>
<trkpt lat="24.664921" lon="107.958647">
<time>2016-10-06T16:39:27Z</time></trkpt>
<trkpt lat="24.664884" lon="107.957589">
<time>2016-10-06T16:39:28Z</time></trkpt>
<trkpt lat="24.664885" lon="107.95705">
<time>2016-10-06T16:39:29Z</time></trkpt>
<trkpt lat="24.664906" lon="107.956711">
<time>2016-10-06T16:39:30Z</time></trkpt>
<trkpt lat="24.664927" lon="107.956322">
<time>2016-10-06T16:39:31Z</time></trkpt>
<trkpt lat="24.664968" lon="107.955893">
<time>2016-10-06T16:39:32Z</time></trkpt>
<trkpt lat="24.664999" lon="107.955604">
<time>2016-10-06T16:39:33Z</time></trkpt>
<trkpt lat="24.665081" lon="107.954786">
<time>2016-10-06T16:39:34Z</time></trkpt>
<trkpt lat="24.665184" lon="107.953469">
<time>2016-10-06T16:39:35Z</time></trkpt>
<trkpt lat="24.665226" lon="107.952461">
<time>2016-10-06T16:39:36Z</time></trkpt>
<trkpt lat="24.665198" lon="107.951523">
<time>2016-10-06T16:39:37Z</time></trkpt>
<trkpt lat="24.6651" lon="107.950844">
<time>2016-10-06T16:39:38Z</time></trkpt>
<trkpt lat="24.664951" lon="107.950206">
<time>2016-10-06T16:39:39Z</time></trkpt>
<trkpt lat="24.664773" lon="107.949607">
<time>2016-10-06T16:39:40Z</time></trkpt>
<trkpt lat="24.664474" lon="107.948819">
<time>2016-10-06T16:39:41Z</time></trkpt>
<trkpt lat="24.663887" lon="107.947591">
<time>2016-10-06T16:39:42Z</time></trkpt>
<trkpt lat="24.662742" lon="107.945256">
<time>2016-10-06T16:39:43Z</time></trkpt>
<trkpt lat="24.662523" lon="107.944617">
<time>2016-10-06T16:39:44Z</time></trkpt>
<trkpt lat="24.662315" lon="107.943729">
<time>2016-10-06T16:39:45Z</time></trkpt>
<trkpt lat="24.661938" lon="107.942082">
<time>2016-10-06T16:39:46Z</time></trkpt>
<trkpt lat="24.661719" lon="107.941353">
<time>2016-10-06T16:39:47Z</time></trkpt>
<trkpt lat="24.66155" lon="107.940984">
<time>2016-10-06T16:39:48Z</time></trkpt>
<trkpt lat="24.661291" lon="107.940525">
<time>2016-10-06T16:39:49Z</time></trkpt>
<trkpt lat="24.661082" lon="107.940185">
<time>2016-10-06T16:39:50Z</time></trkpt>
<trkpt lat="24.660982" lon="107.939985">
<time>2016-10-06T16:39:51Z</time></trkpt>
<trkpt lat="24.660892" lon="107.939746">
<time>2016-10-06T16:39:52Z</time></trkpt>
<trkpt lat="24.660853" lon="107.939566">
<time>2016-10-06T16:39:53Z</time></trkpt>
<trkpt lat="24.660823" lon="107.939367">
<time>2016-10-06T16:39:54Z</time></trkpt>
<trkpt lat="24.660813" lon="107.939187">
<time>2016-10-06T16:39:55Z</time></trkpt>
<trkpt lat="24.660814" lon="107.939027">
<time>2016-10-06T16:39:56Z</time></trkpt>
<trkpt lat="24.660824" lon="107.938787">
<time>2016-10-06T16:39:57Z</time></trkpt>
<trkpt lat="24.660937" lon="107.93715">
<time>2016-10-06T16:39:58Z</time></trkpt>
<trkpt lat="24.661091" lon="107.935103">
<time>2016-10-06T16:39:59Z</time></trkpt>
<trkpt lat="24.661142" lon="107.934474">
<time>2016-10-06T16:40:00Z</time></trkpt>
<trkpt lat="24.661212" lon="107.933925">
<time>2016-10-06T16:40:01Z</time></trkpt>
<trkpt lat="24.661283" lon="107.933506">
<time>2016-10-06T16:40:02Z</time></trkpt>
<trkpt lat="24.661374" lon="107.933046">
<time>2016-10-06T16:40:03Z</time></trkpt>
<trkpt lat="24.661454" lon="107.932707">
<time>2016-10-06T16:40:04Z</time></trkpt>
<trkpt lat="24.661555" lon="107.932367">
<time>2016-10-06T16:40:05Z</time></trkpt>
<trkpt lat="24.661675" lon="107.932008">
<time>2016-10-06T16:40:06Z</time></trkpt>
<trkpt lat="24.661836" lon="107.931568">
<time>2016-10-06T16:40:07Z</time></trkpt>
<trkpt lat="24.662157" lon="107.930819">
<time>2016-10-06T16:40:08Z</time></trkpt>
<trkpt lat="24.662398" lon="107.93027">
<time>2016-10-06T16:40:09Z</time></trkpt>
<trkpt lat="24.662528" lon="107.92995">
<time>2016-10-06T16:40:10Z</time></trkpt>
<trkpt lat="24.662619" lon="107.929701">
<time>2016-10-06T16:40:11Z</time></trkpt>
<trkpt lat="24.662689" lon="107.929461">
<time>2016-10-06T16:40:12Z</time></trkpt>
<trkpt lat="24.662911" lon="107.928472">
<time>2016-10-06T16:40:13Z</time></trkpt>
<trkpt lat="24.663051" lon="107.927913">
<time>2016-10-06T16:40:14Z</time></trkpt>
<trkpt lat="24.663172" lon="107.927383">
<time>2016-10-06T16:40:15Z</time></trkpt>
<trkpt lat="24.663484" lon="107.926025">
<time>2016-10-06T16:40:16Z</time></trkpt>
<trkpt lat="24.663574" lon="107.925545">
<time>2016-10-06T16:40:17Z</time></trkpt>
<trkpt lat="24.663595" lon="107.925326">
<time>2016-10-06T16:40:18Z</time></trkpt>
<trkpt lat="24.663605" lon="107.925106">
<time>2016-10-06T16:40:19Z</time></trkpt>
<trkpt lat="24.663605" lon="107.924736">
<time>2016-10-06T16:40:20Z</time></trkpt>
<trkpt lat="24.663577" lon="107.923417">
<time>2016-10-06T16:40:21Z</time></trkpt>
<trkpt lat="24.663568" lon="107.922079">
<time>2016-10-06T16:40:22Z</time></trkpt>
<trkpt lat="24.663589" lon="107.921399">
<time>2016-10-06T16:40:23Z</time></trkpt>
<trkpt lat="24.66362" lon="107.92092">
<time>2016-10-06T16:40:24Z</time></trkpt>
<trkpt lat="24.6637" lon="107.92022">
<time>2016-10-06T16:40:25Z</time></trkpt>
<trkpt lat="24.663801" lon="107.919441">
<time>2016-10-06T16:40:26Z</time></trkpt>
<trkpt lat="24.664123" lon="107.916923">
<time>2016-10-06T16:40:27Z</time></trkpt>
<trkpt lat="24.664123" lon="107.916923">
<time>2016-10-06T16:40:28Z</time></trkpt>
<trkpt lat="24.664355" lon="107.915254">
<time>2016-10-06T16:40:29Z</time></trkpt>
<trkpt lat="24.664445" lon="107.914804">
<time>2016-10-06T16:40:30Z</time></trkpt>
<trkpt lat="24.664545" lon="107.914474">
<time>2016-10-06T16:40:31Z</time></trkpt>
<trkpt lat="24.664666" lon="107.914144">
<time>2016-10-06T16:40:32Z</time></trkpt>
<trkpt lat="24.664796" lon="107.913864">
<time>2016-10-06T16:40:33Z</time></trkpt>
<trkpt lat="24.664966" lon="107.913554">
<time>2016-10-06T16:40:34Z</time></trkpt>
<trkpt lat="24.665196" lon="107.913225">
<time>2016-10-06T16:40:35Z</time></trkpt>
<trkpt lat="24.665446" lon="107.912945">
<time>2016-10-06T16:40:36Z</time></trkpt>
<trkpt lat="24.665707" lon="107.912655">
<time>2016-10-06T16:40:37Z</time></trkpt>
<trkpt lat="24.666667" lon="107.911765">
<time>2016-10-06T16:40:38Z</time></trkpt>
<trkpt lat="24.666817" lon="107.911605">
<time>2016-10-06T16:40:39Z</time></trkpt>
<trkpt lat="24.667017" lon="107.911365">
<time>2016-10-06T16:40:40Z</time></trkpt>
<trkpt lat="24.667197" lon="107.911135">
<time>2016-10-06T16:40:41Z</time></trkpt>
<trkpt lat="24.667428" lon="107.910755">
<time>2016-10-06T16:40:42Z</time></trkpt>
<trkpt lat="24.667538" lon="107.910545">
<time>2016-10-06T16:40:43Z</time></trkpt>
<trkpt lat="24.667688" lon="107.910196">
<time>2016-10-06T16:40:44Z</time></trkpt>
<trkpt lat="24.667888" lon="107.909656">
<time>2016-10-06T16:40:45Z</time></trkpt>
<trkpt lat="24.668509" lon="107.907776">
<time>2016-10-06T16:40:46Z</time></trkpt>
<trkpt lat="24.66904" lon="107.906066">
<time>2016-10-06T16:40:47Z</time></trkpt>
<trkpt lat="24.66922" lon="107.905516">
<time>2016-10-06T16:40:48Z</time></trkpt>
<trkpt lat="24.66963" lon="107.904286">
<time>2016-10-06T16:40:49Z</time></trkpt>
<trkpt lat="24.670541" lon="107.901376">
<time>2016-10-06T16:40:50Z</time></trkpt>
<trkpt lat="24.670931" lon="107.900176">
<time>2016-10-06T16:40:51Z</time></trkpt>
<trkpt lat="24.671301" lon="107.899006">
<time>2016-10-06T16:40:52Z</time></trkpt>
<trkpt lat="24.671851" lon="107.897205">
<time>2016-10-06T16:40:53Z</time></trkpt>
<trkpt lat="24.672061" lon="107.896415">
<time>2016-10-06T16:40:54Z</time></trkpt>
<trkpt lat="24.672271" lon="107.895535">
<time>2016-10-06T16:40:55Z</time></trkpt>
<trkpt lat="24.673001" lon="107.891963">
<time>2016-10-06T16:40:56Z</time></trkpt>
<trkpt lat="24.67314" lon="107.891282">
<time>2016-10-06T16:40:57Z</time></trkpt>
<trkpt lat="24.6732" lon="107.890972">
<time>2016-10-06T16:40:58Z</time></trkpt>
<trkpt lat="24.67355" lon="107.889151">
<time>2016-10-06T16:40:59Z</time></trkpt>
<trkpt lat="24.674428" lon="107.884737">
<time>2016-10-06T16:41:00Z</time></trkpt>
<trkpt lat="24.675076" lon="107.881454">
<time>2016-10-06T16:41:01Z</time></trkpt>
<trkpt lat="24.675912" lon="107.87724">
<time>2016-10-06T16:41:02Z</time></trkpt>
<trkpt lat="24.67635" lon="107.875007">
<time>2016-10-06T16:41:03Z</time></trkpt>
<trkpt lat="24.676947" lon="107.871963">
<time>2016-10-06T16:41:04Z</time></trkpt>
<trkpt lat="24.677057" lon="107.871382">
<time>2016-10-06T16:41:05Z</time></trkpt>
<trkpt lat="24.677126" lon="107.871001">
<time>2016-10-06T16:41:06Z</time></trkpt>
<trkpt lat="24.677136" lon="107.870941">
<time>2016-10-06T16:41:07Z</time></trkpt>
<trkpt lat="24.677196" lon="107.870631">
<time>2016-10-06T16:41:08Z</time></trkpt>
<trkpt lat="24.677305" lon="107.87004">
<time>2016-10-06T16:41:09Z</time></trkpt>
<trkpt lat="24.677345" lon="107.86982">
<time>2016-10-06T16:41:10Z</time></trkpt>
<trkpt lat="24.677494" lon="107.869058">
<time>2016-10-06T16:41:11Z</time></trkpt>
<trkpt lat="24.677633" lon="107.868377">
<time>2016-10-06T16:41:12Z</time></trkpt>
<trkpt lat="24.677733" lon="107.867887">
<time>2016-10-06T16:41:13Z</time></trkpt>
<trkpt lat="24.677802" lon="107.867516">
<time>2016-10-06T16:41:14Z</time></trkpt>
<trkpt lat="24.677842" lon="107.867336">
<time>2016-10-06T16:41:15Z</time></trkpt>
<trkpt lat="24.678001" lon="107.866585">
<time>2016-10-06T16:41:16Z</time></trkpt>
<trkpt lat="24.678051" lon="107.866364">
<time>2016-10-06T16:41:17Z</time></trkpt>
<trkpt lat="24.678151" lon="107.865943">
<time>2016-10-06T16:41:18Z</time></trkpt>
<trkpt lat="24.67825" lon="107.865553">
<time>2016-10-06T16:41:19Z</time></trkpt>
<trkpt lat="24.67827" lon="107.865483">
<time>2016-10-06T16:41:20Z</time></trkpt>
<trkpt lat="24.67829" lon="107.865403">
<time>2016-10-06T16:41:21Z</time></trkpt>
<trkpt lat="24.678429" lon="107.864872">
<time>2016-10-06T16:41:22Z</time></trkpt>
<trkpt lat="24.678549" lon="107.864461">
<time>2016-10-06T16:41:23Z</time></trkpt>
<trkpt lat="24.678778" lon="107.86371">
<time>2016-10-06T16:41:24Z</time></trkpt>
<trkpt lat="24.678967" lon="107.863129">
<time>2016-10-06T16:41:25Z</time></trkpt>
<trkpt lat="24.679146" lon="107.862608">
<time>2016-10-06T16:41:26Z</time></trkpt>
<trkpt lat="24.679346" lon="107.862057">
<time>2016-10-06T16:41:27Z</time></trkpt>
<trkpt lat="24.679545" lon="107.861516">
<time>2016-10-06T16:41:28Z</time></trkpt>
<trkpt lat="24.679734" lon="107.861055">
<time>2016-10-06T16:41:29Z</time></trkpt>
<trkpt lat="24.679954" lon="107.860514">
<time>2016-10-06T16:41:30Z</time></trkpt>
<trkpt lat="24.680163" lon="107.860013">
<time>2016-10-06T16:41:31Z</time></trkpt>
<trkpt lat="24.680163" lon="107.860013">
<time>2016-10-06T16:41:32Z</time></trkpt>
<trkpt lat="24.680173" lon="107.859943">
<time>2016-10-06T16:41:33Z</time></trkpt>
<trkpt lat="24.680193" lon="107.859873">
<time>2016-10-06T16:41:34Z</time></trkpt>
<trkpt lat="24.680212" lon="107.859773">
<time>2016-10-06T16:41:35Z</time></trkpt>
<trkpt lat="24.680252" lon="107.859643">
<time>2016-10-06T16:41:36Z</time></trkpt>
<trkpt lat="24.680382" lon="107.859292">
<time>2016-10-06T16:41:37Z</time></trkpt>
<trkpt lat="24.680541" lon="107.858801">
<time>2016-10-06T16:41:38Z</time></trkpt>
<trkpt lat="24.680641" lon="107.858511">
<time>2016-10-06T16:41:39Z</time></trkpt>
<trkpt lat="24.68068" lon="107.85838">
<time>2016-10-06T16:41:40Z</time></trkpt>
<trkpt lat="24.68071" lon="107.85827">
<time>2016-10-06T16:41:41Z</time></trkpt>
<trkpt lat="24.68073" lon="107.85817">
<time>2016-10-06T16:41:42Z</time></trkpt>
<trkpt lat="24.68075" lon="107.85806">
<time>2016-10-06T16:41:43Z</time></trkpt>
<trkpt lat="24.68077" lon="107.85796">
<time>2016-10-06T16:41:44Z</time></trkpt>
<trkpt lat="24.68077" lon="107.857859">
<time>2016-10-06T16:41:45Z</time></trkpt>
<trkpt lat="24.68077" lon="107.857749">
<time>2016-10-06T16:41:46Z</time></trkpt>
<trkpt lat="24.680769" lon="107.857649">
<time>2016-10-06T16:41:47Z</time></trkpt>
<trkpt lat="24.680749" lon="107.857539">
<time>2016-10-06T16:41:48Z</time></trkpt>
<trkpt lat="24.680729" lon="107.857429">
<time>2016-10-06T16:41:49Z</time></trkpt>
<trkpt lat="24.680699" lon="107.857328">
<time>2016-10-06T16:41:50Z</time></trkpt>
<trkpt lat="24.680659" lon="107.857228">
<time>2016-10-06T16:41:51Z</time></trkpt>
<trkpt lat="24.680609" lon="107.857128">
<time>2016-10-06T16:41:52Z</time></trkpt>
<trkpt lat="24.680549" lon="107.857028">
<time>2016-10-06T16:41:53Z</time></trkpt>
<trkpt lat="24.680478" lon="107.856928">
<time>2016-10-06T16:41:54Z</time></trkpt>
<trkpt lat="24.680398" lon="107.856837">
<time>2016-10-06T16:41:55Z</time></trkpt>
<trkpt lat="24.680328" lon="107.856757">
<time>2016-10-06T16:41:56Z</time></trkpt>
<trkpt lat="24.680238" lon="107.856697">
<time>2016-10-06T16:41:57Z</time></trkpt>
<trkpt lat="24.680128" lon="107.856627">
<time>2016-10-06T16:41:58Z</time></trkpt>
<trkpt lat="24.679708" lon="107.856397">
<time>2016-10-06T16:41:59Z</time></trkpt>
<trkpt lat="24.679708" lon="107.856397">
<time>2016-10-06T16:42:00Z</time></trkpt>
<trkpt lat="24.679648" lon="107.856397">
<time>2016-10-06T16:42:01Z</time></trkpt>
<trkpt lat="24.679258" lon="107.856377">
<time>2016-10-06T16:42:02Z</time></trkpt>
<trkpt lat="24.678918" lon="107.856367">
<time>2016-10-06T16:42:03Z</time></trkpt>
<trkpt lat="24.678798" lon="107.856367">
<time>2016-10-06T16:42:04Z</time></trkpt>
<trkpt lat="24.678608" lon="107.856357">
<time>2016-10-06T16:42:05Z</time></trkpt>
<trkpt lat="24.678468" lon="107.856367">
<time>2016-10-06T16:42:06Z</time></trkpt>
<trkpt lat="24.678278" lon="107.856387">
<time>2016-10-06T16:42:07Z</time></trkpt>
<trkpt lat="24.678098" lon="107.856417">
<time>2016-10-06T16:42:08Z</time></trkpt>
<trkpt lat="24.677958" lon="107.856447">
<time>2016-10-06T16:42:09Z</time></trkpt>
<trkpt lat="24.677808" lon="107.856497">
<time>2016-10-06T16:42:10Z</time></trkpt>
<trkpt lat="24.677668" lon="107.856557">
<time>2016-10-06T16:42:11Z</time></trkpt>
<trkpt lat="24.677518" lon="107.856627">
<time>2016-10-06T16:42:12Z</time></trkpt>
<trkpt lat="24.677378" lon="107.856707">
<time>2016-10-06T16:42:13Z</time></trkpt>
<trkpt lat="24.677238" lon="107.856808">
<time>2016-10-06T16:42:14Z</time></trkpt>
<trkpt lat="24.677068" lon="107.856938">
<time>2016-10-06T16:42:15Z</time></trkpt>
<trkpt lat="24.676889" lon="107.857088">
<time>2016-10-06T16:42:16Z</time></trkpt>
<trkpt lat="24.676769" lon="107.857208">
<time>2016-10-06T16:42:17Z</time></trkpt>
<trkpt lat="24.676629" lon="107.857359">
<time>2016-10-06T16:42:18Z</time></trkpt>
<trkpt lat="24.67611" lon="107.85793">
<time>2016-10-06T16:42:19Z</time></trkpt>
<trkpt lat="24.675721" lon="107.858371">
<time>2016-10-06T16:42:20Z</time></trkpt>
<trkpt lat="24.675431" lon="107.858681">
<time>2016-10-06T16:42:21Z</time></trkpt>
<trkpt lat="24.675241" lon="107.858861">
<time>2016-10-06T16:42:22Z</time></trkpt>
<trkpt lat="24.675071" lon="107.859012">
<time>2016-10-06T16:42:23Z</time></trkpt>
<trkpt lat="24.674922" lon="107.859122">
<time>2016-10-06T16:42:24Z</time></trkpt>
<trkpt lat="24.674792" lon="107.859212">
<time>2016-10-06T16:42:25Z</time></trkpt>
<trkpt lat="24.674642" lon="107.859302">
<time>2016-10-06T16:42:26Z</time></trkpt>
<trkpt lat="24.674492" lon="107.859372">
<time>2016-10-06T16:42:27Z</time></trkpt>
<trkpt lat="24.674352" lon="107.859423">
<time>2016-10-06T16:42:28Z</time></trkpt>
<trkpt lat="24.674222" lon="107.859473">
<time>2016-10-06T16:42:29Z</time></trkpt>
<trkpt lat="24.674102" lon="107.859503">
<time>2016-10-06T16:42:30Z</time></trkpt>
<trkpt lat="24.673972" lon="107.859523">
<time>2016-10-06T16:42:31Z</time></trkpt>
<trkpt lat="24.673852" lon="107.859543">
<time>2016-10-06T16:42:32Z</time></trkpt>
<trkpt lat="24.673722" lon="107.859553">
<time>2016-10-06T16:42:33Z</time></trkpt>
<trkpt lat="24.673592" lon="107.859553">
<time>2016-10-06T16:42:34Z</time></trkpt>
<trkpt lat="24.673482" lon="107.859553">
<time>2016-10-06T16:42:35Z</time></trkpt>
<trkpt lat="24.673342" lon="107.859533">
<time>2016-10-06T16:42:36Z</time></trkpt>
<trkpt lat="24.673192" lon="107.859513">
<time>2016-10-06T16:42:37Z</time></trkpt>
<trkpt lat="24.673022" lon="107.859473">
<time>2016-10-06T16:42:38Z</time></trkpt>
<trkpt lat="24.672852" lon="107.859423">
<time>2016-10-06T16:42:39Z</time></trkpt>
<trkpt lat="24.672652" lon="107.859363">
<time>2016-10-06T16:42:40Z</time></trkpt>
<trkpt lat="24.672372" lon="107.859262">
<time>2016-10-06T16:42:41Z</time></trkpt>
<trkpt lat="24.671751" lon="107.859012">
<time>2016-10-06T16:42:42Z</time></trkpt>
<trkpt lat="24.671291" lon="107.858842">
<time>2016-10-06T16:42:43Z</time></trkpt>
<trkpt lat="24.671051" lon="107.858741">
<time>2016-10-06T16:42:44Z</time></trkpt>
<trkpt lat="24.670801" lon="107.858651">
<time>2016-10-06T16:42:45Z</time></trkpt>
<trkpt lat="24.670591" lon="107.858581">
<time>2016-10-06T16:42:46Z</time></trkpt>
<trkpt lat="24.670371" lon="107.858511">
<time>2016-10-06T16:42:47Z</time></trkpt>
<trkpt lat="24.670211" lon="107.858481">
<time>2016-10-06T16:42:48Z</time></trkpt>
<trkpt lat="24.669961" lon="107.858441">
<time>2016-10-06T16:42:49Z</time></trkpt>
<trkpt lat="24.669741" lon="107.858431">
<time>2016-10-06T16:42:50Z</time></trkpt>
<trkpt lat="24.669531" lon="107.858431">
<time>2016-10-06T16:42:51Z</time></trkpt>
<trkpt lat="24.669351" lon="107.858451">
<time>2016-10-06T16:42:52Z</time></trkpt>
<trkpt lat="24.669151" lon="107.858481">
<time>2016-10-06T16:42:53Z</time></trkpt>
<trkpt lat="24.668971" lon="107.858531">
<time>2016-10-06T16:42:54Z</time></trkpt>
<trkpt lat="24.668761" lon="107.858601">
<time>2016-10-06T16:42:55Z</time></trkpt>
<trkpt lat="24.668521" lon="107.858712">
<time>2016-10-06T16:42:56Z</time></trkpt>
<trkpt lat="24.668281" lon="107.858832">
<time>2016-10-06T16:42:57Z</time></trkpt>
<trkpt lat="24.667972" lon="107.859022">
<time>2016-10-06T16:42:58Z</time></trkpt>
<trkpt lat="24.667582" lon="107.859283">
<time>2016-10-06T16:42:59Z</time></trkpt>
<trkpt lat="24.667172" lon="107.859553">
<time>2016-10-06T16:43:00Z</time></trkpt>
<trkpt lat="24.666673" lon="107.859894">
<time>2016-10-06T16:43:01Z</time></trkpt>
<trkpt lat="24.666233" lon="107.860184">
<time>2016-10-06T16:43:02Z</time></trkpt>
<trkpt lat="24.665634" lon="107.860585">
<time>2016-10-06T16:43:03Z</time></trkpt>
<trkpt lat="24.665174" lon="107.860886">
<time>2016-10-06T16:43:04Z</time></trkpt>
<trkpt lat="24.664914" lon="107.861066">
<time>2016-10-06T16:43:05Z</time></trkpt>
<trkpt lat="24.664675" lon="107.861226">
<time>2016-10-06T16:43:06Z</time></trkpt>
<trkpt lat="24.664555" lon="107.861306">
<time>2016-10-06T16:43:07Z</time></trkpt>
<trkpt lat="24.664255" lon="107.861487">
<time>2016-10-06T16:43:08Z</time></trkpt>
<trkpt lat="24.663925" lon="107.861687">
<time>2016-10-06T16:43:09Z</time></trkpt>
<trkpt lat="24.663685" lon="107.861827">
<time>2016-10-06T16:43:10Z</time></trkpt>
<trkpt lat="24.663386" lon="107.861998">
<time>2016-10-06T16:43:11Z</time></trkpt>
<trkpt lat="24.663176" lon="107.862118">
<time>2016-10-06T16:43:12Z</time></trkpt>
<trkpt lat="24.662956" lon="107.862228">
<time>2016-10-06T16:43:13Z</time></trkpt>
<trkpt lat="24.662706" lon="107.862348">
<time>2016-10-06T16:43:14Z</time></trkpt>
<trkpt lat="24.662416" lon="107.862459">
<time>2016-10-06T16:43:15Z</time></trkpt>
<trkpt lat="24.661946" lon="107.862639">
<time>2016-10-06T16:43:16Z</time></trkpt>
<trkpt lat="24.661557" lon="107.862769">
<time>2016-10-06T16:43:17Z</time></trkpt>
<trkpt lat="24.661367" lon="107.862839">
<time>2016-10-06T16:43:18Z</time></trkpt>
<trkpt lat="24.660837" lon="107.86301">
<time>2016-10-06T16:43:19Z</time></trkpt>
<trkpt lat="24.660157" lon="107.86321">
<time>2016-10-06T16:43:20Z</time></trkpt>
<trkpt lat="24.659437" lon="107.86343">
<time>2016-10-06T16:43:21Z</time></trkpt>
<trkpt lat="24.658558" lon="107.863701">
<time>2016-10-06T16:43:22Z</time></trkpt>
<trkpt lat="24.658558" lon="107.863701">
<time>2016-10-06T16:43:23Z</time></trkpt>
<trkpt lat="24.658508" lon="107.863681">
<time>2016-10-06T16:43:24Z</time></trkpt>
<trkpt lat="24.658498" lon="107.863681">
<time>2016-10-06T16:43:25Z</time></trkpt>
<trkpt lat="24.658438" lon="107.863701">
<time>2016-10-06T16:43:26Z</time></trkpt>
<trkpt lat="24.658148" lon="107.863781">
<time>2016-10-06T16:43:27Z</time></trkpt>
<trkpt lat="24.657808" lon="107.863891">
<time>2016-10-06T16:43:28Z</time></trkpt>
<trkpt lat="24.657538" lon="107.863961">
<time>2016-10-06T16:43:29Z</time></trkpt>
<trkpt lat="24.657288" lon="107.864031">
<time>2016-10-06T16:43:30Z</time></trkpt>
<trkpt lat="24.656998" lon="107.864102">
<time>2016-10-06T16:43:31Z</time></trkpt>
<trkpt lat="24.656728" lon="107.864162">
<time>2016-10-06T16:43:32Z</time></trkpt>
<trkpt lat="24.656518" lon="107.864192">
<time>2016-10-06T16:43:33Z</time></trkpt>
<trkpt lat="24.656398" lon="107.864212">
<time>2016-10-06T16:43:34Z</time></trkpt>
<trkpt lat="24.656308" lon="107.864212">
<time>2016-10-06T16:43:35Z</time></trkpt>
<trkpt lat="24.656168" lon="107.864222">
<time>2016-10-06T16:43:36Z</time></trkpt>
<trkpt lat="24.656078" lon="107.864222">
<time>2016-10-06T16:43:37Z</time></trkpt>
<trkpt lat="24.655889" lon="107.864242">
<time>2016-10-06T16:43:38Z</time></trkpt>
<trkpt lat="24.655689" lon="107.864252">
<time>2016-10-06T16:43:39Z</time></trkpt>
<trkpt lat="24.655619" lon="107.864252">
<time>2016-10-06T16:43:40Z</time></trkpt>
<trkpt lat="24.655369" lon="107.864262">
<time>2016-10-06T16:43:41Z</time></trkpt>
<trkpt lat="24.655029" lon="107.864242">
<time>2016-10-06T16:43:42Z</time></trkpt>
<trkpt lat="24.654668" lon="107.864202">
<time>2016-10-06T16:43:43Z</time></trkpt>
<trkpt lat="24.654408" lon="107.864182">
<time>2016-10-06T16:43:44Z</time></trkpt>
<trkpt lat="24.654118" lon="107.864142">
<time>2016-10-06T16:43:45Z</time></trkpt>
<trkpt lat="24.653688" lon="107.864102">
<time>2016-10-06T16:43:46Z</time></trkpt>
<trkpt lat="24.653258" lon="107.864052">
<time>2016-10-06T16:43:47Z</time></trkpt>
<trkpt lat="24.652818" lon="107.864002">
<time>2016-10-06T16:43:48Z</time></trkpt>
<trkpt lat="24.652638" lon="107.863982">
<time>2016-10-06T16:43:49Z</time></trkpt>
<trkpt lat="24.652268" lon="107.863942">
<time>2016-10-06T16:43:50Z</time></trkpt>
<trkpt lat="24.651998" lon="107.863922">
<time>2016-10-06T16:43:51Z</time></trkpt>
<trkpt lat="24.651798" lon="107.863892">
<time>2016-10-06T16:43:52Z</time></trkpt>
<trkpt lat="24.651598" lon="107.863872">
<time>2016-10-06T16:43:53Z</time></trkpt>
<trkpt lat="24.651288" lon="107.863831">
<time>2016-10-06T16:43:54Z</time></trkpt>
<trkpt lat="24.651048" lon="107.863821">
<time>2016-10-06T16:43:55Z</time></trkpt>
<trkpt lat="24.650898" lon="107.863811">
<time>2016-10-06T16:43:56Z</time></trkpt>
<trkpt lat="24.650598" lon="107.863791">
<time>2016-10-06T16:43:57Z</time></trkpt>
<trkpt lat="24.650228" lon="107.863791">
<time>2016-10-06T16:43:58Z</time></trkpt>
<trkpt lat="24.650038" lon="107.863791">
<time>2016-10-06T16:43:59Z</time></trkpt>
<trkpt lat="24.649868" lon="107.863791">
<time>2016-10-06T16:44:00Z</time></trkpt>
<trkpt lat="24.649698" lon="107.863801">
<time>2016-10-06T16:44:01Z</time></trkpt>
<trkpt lat="24.649478" lon="107.863812">
<time>2016-10-06T16:44:02Z</time></trkpt>
<trkpt lat="24.649128" lon="107.863842">
<time>2016-10-06T16:44:03Z</time></trkpt>
<trkpt lat="24.648888" lon="107.863862">
<time>2016-10-06T16:44:04Z</time></trkpt>
<trkpt lat="24.648698" lon="107.863882">
<time>2016-10-06T16:44:05Z</time></trkpt>
<trkpt lat="24.648428" lon="107.863922">
<time>2016-10-06T16:44:06Z</time></trkpt>
<trkpt lat="24.648248" lon="107.863952">
<time>2016-10-06T16:44:07Z</time></trkpt>
<trkpt lat="24.648048" lon="107.863992">
<time>2016-10-06T16:44:08Z</time></trkpt>
<trkpt lat="24.647898" lon="107.864012">
<time>2016-10-06T16:44:09Z</time></trkpt>
<trkpt lat="24.647688" lon="107.864052">
<time>2016-10-06T16:44:10Z</time></trkpt>
<trkpt lat="24.647398" lon="107.864112">
<time>2016-10-06T16:44:11Z</time></trkpt>
<trkpt lat="24.647108" lon="107.864162">
<time>2016-10-06T16:44:12Z</time></trkpt>
<trkpt lat="24.646728" lon="107.864232">
<time>2016-10-06T16:44:13Z</time></trkpt>
<trkpt lat="24.646378" lon="107.864303">
<time>2016-10-06T16:44:14Z</time></trkpt>
<trkpt lat="24.646139" lon="107.864353">
<time>2016-10-06T16:44:15Z</time></trkpt>
<trkpt lat="24.645809" lon="107.864413">
<time>2016-10-06T16:44:16Z</time></trkpt>
<trkpt lat="24.645469" lon="107.864483">
<time>2016-10-06T16:44:17Z</time></trkpt>
<trkpt lat="24.645149" lon="107.864543">
<time>2016-10-06T16:44:18Z</time></trkpt>
<trkpt lat="24.644839" lon="107.864603">
<time>2016-10-06T16:44:19Z</time></trkpt>
<trkpt lat="24.644559" lon="107.864653">
<time>2016-10-06T16:44:20Z</time></trkpt>
<trkpt lat="24.644319" lon="107.864703">
<time>2016-10-06T16:44:21Z</time></trkpt>
<trkpt lat="24.644119" lon="107.864733">
<time>2016-10-06T16:44:22Z</time></trkpt>
<trkpt lat="24.643909" lon="107.864773">
<time>2016-10-06T16:44:23Z</time></trkpt>
<trkpt lat="24.643609" lon="107.864814">
<time>2016-10-06T16:44:24Z</time></trkpt>
<trkpt lat="24.643339" lon="107.864864">
<time>2016-10-06T16:44:25Z</time></trkpt>
<trkpt lat="24.643109" lon="107.864904">
<time>2016-10-06T16:44:26Z</time></trkpt>
<trkpt lat="24.642679" lon="107.865004">
<time>2016-10-06T16:44:27Z</time></trkpt>
<trkpt lat="24.642399" lon="107.865064">
<time>2016-10-06T16:44:28Z</time></trkpt>
<trkpt lat="24.64183" lon="107.865184">
<time>2016-10-06T16:44:29Z</time></trkpt>
<trkpt lat="24.64103" lon="107.865334">
<time>2016-10-06T16:44:30Z</time></trkpt>
<trkpt lat="24.64026" lon="107.865455">
<time>2016-10-06T16:44:31Z</time></trkpt>
<trkpt lat="24.63993" lon="107.865505">
<time>2016-10-06T16:44:32Z</time></trkpt>
<trkpt lat="24.63947" lon="107.865565">
<time>2016-10-06T16:44:33Z</time></trkpt>
<trkpt lat="24.63891" lon="107.865625">
<time>2016-10-06T16:44:34Z</time></trkpt>
<trkpt lat="24.6385" lon="107.865655">
<time>2016-10-06T16:44:35Z</time></trkpt>
<trkpt lat="24.63818" lon="107.865685">
<time>2016-10-06T16:44:36Z</time></trkpt>
<trkpt lat="24.63784" lon="107.865705">
<time>2016-10-06T16:44:37Z</time></trkpt>
<trkpt lat="24.63745" lon="107.865715">
<time>2016-10-06T16:44:38Z</time></trkpt>
<trkpt lat="24.63652" lon="107.865735">
<time>2016-10-06T16:44:39Z</time></trkpt>
<trkpt lat="24.63538" lon="107.865755">
<time>2016-10-06T16:44:40Z</time></trkpt>
<trkpt lat="24.63414" lon="107.865776">
<time>2016-10-06T16:44:41Z</time></trkpt>
<trkpt lat="24.63363" lon="107.865796">
<time>2016-10-06T16:44:42Z</time></trkpt>
<trkpt lat="24.63299" lon="107.865826">
<time>2016-10-06T16:44:43Z</time></trkpt>
<trkpt lat="24.63259" lon="107.865866">
<time>2016-10-06T16:44:44Z</time></trkpt>
<trkpt lat="24.63202" lon="107.865926">
<time>2016-10-06T16:44:45Z</time></trkpt>
<trkpt lat="24.63159" lon="107.865976">
<time>2016-10-06T16:44:46Z</time></trkpt>
<trkpt lat="24.63088" lon="107.866096">
<time>2016-10-06T16:44:47Z</time></trkpt>
<trkpt lat="24.63039" lon="107.866186">
<time>2016-10-06T16:44:48Z</time></trkpt>
<trkpt lat="24.629941" lon="107.866277">
<time>2016-10-06T16:44:49Z</time></trkpt>
<trkpt lat="24.629401" lon="107.866387">
<time>2016-10-06T16:44:50Z</time></trkpt>
<trkpt lat="24.628851" lon="107.866487">
<time>2016-10-06T16:44:51Z</time></trkpt>
<trkpt lat="24.628471" lon="107.866547">
<time>2016-10-06T16:44:52Z</time></trkpt>
<trkpt lat="24.628241" lon="107.866567">
<time>2016-10-06T16:44:53Z</time></trkpt>
<trkpt lat="24.627971" lon="107.866577">
<time>2016-10-06T16:44:54Z</time></trkpt>
<trkpt lat="24.627701" lon="107.866567">
<time>2016-10-06T16:44:55Z</time></trkpt>
<trkpt lat="24.627441" lon="107.866557">
<time>2016-10-06T16:44:56Z</time></trkpt>
<trkpt lat="24.627251" lon="107.866537">
<time>2016-10-06T16:44:57Z</time></trkpt>
<trkpt lat="24.627111" lon="107.866507">
<time>2016-10-06T16:44:58Z</time></trkpt>
<trkpt lat="24.626871" lon="107.866467">
<time>2016-10-06T16:44:59Z</time></trkpt>
<trkpt lat="24.626591" lon="107.866397">
<time>2016-10-06T16:45:00Z</time></trkpt>
<trkpt lat="24.62624" lon="107.866297">
<time>2016-10-06T16:45:01Z</time></trkpt>
<trkpt lat="24.62588" lon="107.866167">
<time>2016-10-06T16:45:02Z</time></trkpt>
<trkpt lat="24.62552" lon="107.866046">
<time>2016-10-06T16:45:03Z</time></trkpt>
<trkpt lat="24.62516" lon="107.865916">
<time>2016-10-06T16:45:04Z</time></trkpt>
<trkpt lat="24.62469" lon="107.865746">
<time>2016-10-06T16:45:05Z</time></trkpt>
<trkpt lat="24.6243" lon="107.865606">
<time>2016-10-06T16:45:06Z</time></trkpt>
<trkpt lat="24.623949" lon="107.865476">
<time>2016-10-06T16:45:07Z</time></trkpt>
<trkpt lat="24.623679" lon="107.865365">
<time>2016-10-06T16:45:08Z</time></trkpt>
<trkpt lat="24.623139" lon="107.865185">
<time>2016-10-06T16:45:09Z</time></trkpt>
<trkpt lat="24.622499" lon="107.864975">
<time>2016-10-06T16:45:10Z</time></trkpt>
<trkpt lat="24.622259" lon="107.864895">
<time>2016-10-06T16:45:11Z</time></trkpt>
<trkpt lat="24.622109" lon="107.864845">
<time>2016-10-06T16:45:12Z</time></trkpt>
<trkpt lat="24.622069" lon="107.864845">
<time>2016-10-06T16:45:13Z</time></trkpt>
<trkpt lat="24.622009" lon="107.864825">
<time>2016-10-06T16:45:14Z</time></trkpt>
<trkpt lat="24.621838" lon="107.864765">
<time>2016-10-06T16:45:15Z</time></trkpt>
<trkpt lat="24.621628" lon="107.864694">
<time>2016-10-06T16:45:16Z</time></trkpt>
<trkpt lat="24.621408" lon="107.864624">
<time>2016-10-06T16:45:17Z</time></trkpt>
<trkpt lat="24.620948" lon="107.864474">
<time>2016-10-06T16:45:18Z</time></trkpt>
<trkpt lat="24.620548" lon="107.864364">
<time>2016-10-06T16:45:19Z</time></trkpt>
<trkpt lat="24.620328" lon="107.864304">
<time>2016-10-06T16:45:20Z</time></trkpt>
<trkpt lat="24.620068" lon="107.864244">
<time>2016-10-06T16:45:21Z</time></trkpt>
<trkpt lat="24.619888" lon="107.864204">
<time>2016-10-06T16:45:22Z</time></trkpt>
<trkpt lat="24.619638" lon="107.864164">
<time>2016-10-06T16:45:23Z</time></trkpt>
<trkpt lat="24.619438" lon="107.864134">
<time>2016-10-06T16:45:24Z</time></trkpt>
<trkpt lat="24.619208" lon="107.864114">
<time>2016-10-06T16:45:25Z</time></trkpt>
<trkpt lat="24.619007" lon="107.864104">
<time>2016-10-06T16:45:26Z</time></trkpt>
<trkpt lat="24.618767" lon="107.864094">
<time>2016-10-06T16:45:27Z</time></trkpt>
<trkpt lat="24.618527" lon="107.864094">
<time>2016-10-06T16:45:28Z</time></trkpt>
<trkpt lat="24.618307" lon="107.864104">
<time>2016-10-06T16:45:29Z</time></trkpt>
<trkpt lat="24.618027" lon="107.864124">
<time>2016-10-06T16:45:30Z</time></trkpt>
<trkpt lat="24.617957" lon="107.864124">
<time>2016-10-06T16:45:31Z</time></trkpt>
<trkpt lat="24.617787" lon="107.864144">
<time>2016-10-06T16:45:32Z</time></trkpt>
<trkpt lat="24.617548" lon="107.864184">
<time>2016-10-06T16:45:33Z</time></trkpt>
<trkpt lat="24.617328" lon="107.864224">
<time>2016-10-06T16:45:34Z</time></trkpt>
<trkpt lat="24.617088" lon="107.864274">
<time>2016-10-06T16:45:35Z</time></trkpt>
<trkpt lat="24.616918" lon="107.864314">
<time>2016-10-06T16:45:36Z</time></trkpt>
<trkpt lat="24.616668" lon="107.864394">
<time>2016-10-06T16:45:37Z</time></trkpt>
<trkpt lat="24.616498" lon="107.864444">
<time>2016-10-06T16:45:38Z</time></trkpt>
<trkpt lat="24.616308" lon="107.864514">
<time>2016-10-06T16:45:39Z</time></trkpt>
<trkpt lat="24.616088" lon="107.864605">
<time>2016-10-06T16:45:40Z</time></trkpt>
<trkpt lat="24.615908" lon="107.864675">
<time>2016-10-06T16:45:41Z</time></trkpt>
<trkpt lat="24.615738" lon="107.864745">
<time>2016-10-06T16:45:42Z</time></trkpt>
<trkpt lat="24.615658" lon="107.864785">
<time>2016-10-06T16:45:43Z</time></trkpt>
<trkpt lat="24.615578" lon="107.864825">
<time>2016-10-06T16:45:44Z</time></trkpt>
<trkpt lat="24.615418" lon="107.864905">
<time>2016-10-06T16:45:45Z</time></trkpt>
<trkpt lat="24.615258" lon="107.864995">
<time>2016-10-06T16:45:46Z</time></trkpt>
<trkpt lat="24.615069" lon="107.865085">
<time>2016-10-06T16:45:47Z</time></trkpt>
<trkpt lat="24.614899" lon="107.865176">
<time>2016-10-06T16:45:48Z</time></trkpt>
<trkpt lat="24.614749" lon="107.865256">
<time>2016-10-06T16:45:49Z</time></trkpt>
<trkpt lat="24.614589" lon="107.865336">
<time>2016-10-06T16:45:50Z</time></trkpt>
<trkpt lat="24.614469" lon="107.865396">
<time>2016-10-06T16:45:51Z</time></trkpt>
<trkpt lat="24.614349" lon="107.865446">
<time>2016-10-06T16:45:52Z</time></trkpt>
<trkpt lat="24.614179" lon="107.865516">
<time>2016-10-06T16:45:53Z</time></trkpt>
<trkpt lat="24.613999" lon="107.865596">
<time>2016-10-06T16:45:54Z</time></trkpt>
<trkpt lat="24.613809" lon="107.865687">
<time>2016-10-06T16:45:55Z</time></trkpt>
<trkpt lat="24.613549" lon="107.865797">
<time>2016-10-06T16:45:56Z</time></trkpt>
<trkpt lat="24.613349" lon="107.865877">
<time>2016-10-06T16:45:57Z</time></trkpt>
<trkpt lat="24.61326" lon="107.865917">
<time>2016-10-06T16:45:58Z</time></trkpt>
<trkpt lat="24.61315" lon="107.865957">
<time>2016-10-06T16:45:59Z</time></trkpt>
<trkpt lat="24.61292" lon="107.866047">
<time>2016-10-06T16:46:00Z</time></trkpt>
<trkpt lat="24.61271" lon="107.866117">
<time>2016-10-06T16:46:01Z</time></trkpt>
<trkpt lat="24.6125" lon="107.866187">
<time>2016-10-06T16:46:02Z</time></trkpt>
<trkpt lat="24.61233" lon="107.866248">
<time>2016-10-06T16:46:03Z</time></trkpt>
<trkpt lat="24.61219" lon="107.866288">
<time>2016-10-06T16:46:04Z</time></trkpt>
<trkpt lat="24.61197" lon="107.866348">
<time>2016-10-06T16:46:05Z</time></trkpt>
<trkpt lat="24.61175" lon="107.866408">
<time>2016-10-06T16:46:06Z</time></trkpt>
<trkpt lat="24.61153" lon="107.866468">
<time>2016-10-06T16:46:07Z</time></trkpt>
<trkpt lat="24.61138" lon="107.866508">
<time>2016-10-06T16:46:08Z</time></trkpt>
<trkpt lat="24.61123" lon="107.866548">
<time>2016-10-06T16:46:09Z</time></trkpt>
<trkpt lat="24.61099" lon="107.866608">
<time>2016-10-06T16:46:10Z</time></trkpt>
<trkpt lat="24.61079" lon="107.866658">
<time>2016-10-06T16:46:11Z</time></trkpt>
<trkpt lat="24.61055" lon="107.866718">
<time>2016-10-06T16:46:12Z</time></trkpt>
<trkpt lat="24.61031" lon="107.866778">
<time>2016-10-06T16:46:13Z</time></trkpt>
<trkpt lat="24.61002" lon="107.866849">
<time>2016-10-06T16:46:14Z</time></trkpt>
<trkpt lat="24.609831" lon="107.866899">
<time>2016-10-06T16:46:15Z</time></trkpt>
<trkpt lat="24.609551" lon="107.866969">
<time>2016-10-06T16:46:16Z</time></trkpt>
<trkpt lat="24.609281" lon="107.867039">
<time>2016-10-06T16:46:17Z</time></trkpt>
<trkpt lat="24.609031" lon="107.867099">
<time>2016-10-06T16:46:18Z</time></trkpt>
<trkpt lat="24.608881" lon="107.867139">
<time>2016-10-06T16:46:19Z</time></trkpt>
<trkpt lat="24.608661" lon="107.867189">
<time>2016-10-06T16:46:20Z</time></trkpt>
<trkpt lat="24.608321" lon="107.867279">
<time>2016-10-06T16:46:21Z</time></trkpt>
<trkpt lat="24.608011" lon="107.86736">
<time>2016-10-06T16:46:22Z</time></trkpt>
<trkpt lat="24.607781" lon="107.86741">
<time>2016-10-06T16:46:23Z</time></trkpt>
<trkpt lat="24.607611" lon="107.86746">
<time>2016-10-06T16:46:24Z</time></trkpt>
<trkpt lat="24.607391" lon="107.86751">
<time>2016-10-06T16:46:25Z</time></trkpt>
<trkpt lat="24.607141" lon="107.86757">
<time>2016-10-06T16:46:26Z</time></trkpt>
<trkpt lat="24.606881" lon="107.86762">
<time>2016-10-06T16:46:27Z</time></trkpt>
<trkpt lat="24.606661" lon="107.86767">
<time>2016-10-06T16:46:28Z</time></trkpt>
<trkpt lat="24.606501" lon="107.86769">
<time>2016-10-06T16:46:29Z</time></trkpt>
<trkpt lat="24.606291" lon="107.86773">
<time>2016-10-06T16:46:30Z</time></trkpt>
<trkpt lat="24.606171" lon="107.86774">
<time>2016-10-06T16:46:31Z</time></trkpt>
<trkpt lat="24.605971" lon="107.86776">
<time>2016-10-06T16:46:32Z</time></trkpt>
<trkpt lat="24.605731" lon="107.86778">
<time>2016-10-06T16:46:33Z</time></trkpt>
<trkpt lat="24.605571" lon="107.86779">
<time>2016-10-06T16:46:34Z</time></trkpt>
<trkpt lat="24.605301" lon="107.8678">
<time>2016-10-06T16:46:35Z</time></trkpt>
<trkpt lat="24.605051" lon="107.86779">
<time>2016-10-06T16:46:36Z</time></trkpt>
<trkpt lat="24.604761" lon="107.86778">
<time>2016-10-06T16:46:37Z</time></trkpt>
<trkpt lat="24.604511" lon="107.86777">
<time>2016-10-06T16:46:38Z</time></trkpt>
<trkpt lat="24.604271" lon="107.86774">
<time>2016-10-06T16:46:39Z</time></trkpt>
<trkpt lat="24.604041" lon="107.86772">
<time>2016-10-06T16:46:40Z</time></trkpt>
<trkpt lat="24.603811" lon="107.86768">
<time>2016-10-06T16:46:41Z</time></trkpt>
<trkpt lat="24.603591" lon="107.86764">
<time>2016-10-06T16:46:42Z</time></trkpt>
<trkpt lat="24.603281" lon="107.86759">
<time>2016-10-06T16:46:43Z</time></trkpt>
<trkpt lat="24.602791" lon="107.86748">
<time>2016-10-06T16:46:44Z</time></trkpt>
<trkpt lat="24.602791" lon="107.86748">
<time>2016-10-06T16:46:45Z</time></trkpt>
<trkpt lat="24.602711" lon="107.86744">
<time>2016-10-06T16:46:46Z</time></trkpt>
<trkpt lat="24.602401" lon="107.86736">
<time>2016-10-06T16:46:47Z</time></trkpt>
<trkpt lat="24.602021" lon="107.86727">
<time>2016-10-06T16:46:48Z</time></trkpt>
<trkpt lat="24.60167" lon="107.86719">
<time>2016-10-06T16:46:49Z</time></trkpt>
<trkpt lat="24.60132" lon="107.867119">
<time>2016-10-06T16:46:50Z</time></trkpt>
<trkpt lat="24.60115" lon="107.867069">
<time>2016-10-06T16:46:51Z</time></trkpt>
<trkpt lat="24.60099" lon="107.867029">
<time>2016-10-06T16:46:52Z</time></trkpt>
<trkpt lat="24.60075" lon="107.866969">
<time>2016-10-06T16:46:53Z</time></trkpt>
<trkpt lat="24.60027" lon="107.866849">
<time>2016-10-06T16:46:54Z</time></trkpt>
<trkpt lat="24.59982" lon="107.866749">
<time>2016-10-06T16:46:55Z</time></trkpt>
<trkpt lat="24.59956" lon="107.866689">
<time>2016-10-06T16:46:56Z</time></trkpt>
<trkpt lat="24.59926" lon="107.866639">
<time>2016-10-06T16:46:57Z</time></trkpt>
<trkpt lat="24.59899" lon="107.866599">
<time>2016-10-06T16:46:58Z</time></trkpt>
<trkpt lat="24.59883" lon="107.866579">
<time>2016-10-06T16:46:59Z</time></trkpt>
<trkpt lat="24.59865" lon="107.866569">
<time>2016-10-06T16:47:00Z</time></trkpt>
<trkpt lat="24.59845" lon="107.866559">
<time>2016-10-06T16:47:01Z</time></trkpt>
<trkpt lat="24.59816" lon="107.866559">
<time>2016-10-06T16:47:02Z</time></trkpt>
<trkpt lat="24.59785" lon="107.866569">
<time>2016-10-06T16:47:03Z</time></trkpt>
<trkpt lat="24.59754" lon="107.866599">
<time>2016-10-06T16:47:04Z</time></trkpt>
<trkpt lat="24.59736" lon="107.866619">
<time>2016-10-06T16:47:05Z</time></trkpt>
<trkpt lat="24.59705" lon="107.866649">
<time>2016-10-06T16:47:06Z</time></trkpt>
<trkpt lat="24.59671" lon="107.866679">
<time>2016-10-06T16:47:07Z</time></trkpt>
<trkpt lat="24.59647" lon="107.866699">
<time>2016-10-06T16:47:08Z</time></trkpt>
<trkpt lat="24.59612" lon="107.866719">
<time>2016-10-06T16:47:09Z</time></trkpt>
<trkpt lat="24.59579" lon="107.866719">
<time>2016-10-06T16:47:10Z</time></trkpt>
<trkpt lat="24.59563" lon="107.866729">
<time>2016-10-06T16:47:11Z</time></trkpt>
<trkpt lat="24.59541" lon="107.866719">
<time>2016-10-06T16:47:12Z</time></trkpt>
<trkpt lat="24.59527" lon="107.866719">
<time>2016-10-06T16:47:13Z</time></trkpt>
<trkpt lat="24.59508" lon="107.866709">
<time>2016-10-06T16:47:14Z</time></trkpt>
<trkpt lat="24.594909" lon="107.866699">
<time>2016-10-06T16:47:15Z</time></trkpt>
<trkpt lat="24.594809" lon="107.866699">
<time>2016-10-06T16:47:16Z</time></trkpt>
<trkpt lat="24.594709" lon="107.866689">
<time>2016-10-06T16:47:17Z</time></trkpt>
<trkpt lat="24.594479" lon="107.866669">
<time>2016-10-06T16:47:18Z</time></trkpt>
<trkpt lat="24.594219" lon="107.866649">
<time>2016-10-06T16:47:19Z</time></trkpt>
<trkpt lat="24.593489" lon="107.866559">
<time>2016-10-06T16:47:20Z</time></trkpt>
<trkpt lat="24.593189" lon="107.866529">
<time>2016-10-06T16:47:21Z</time></trkpt>
<trkpt lat="24.592799" lon="107.866509">
<time>2016-10-06T16:47:22Z</time></trkpt>
<trkpt lat="24.592519" lon="107.866499">
<time>2016-10-06T16:47:23Z</time></trkpt>
<trkpt lat="24.592159" lon="107.866489">
<time>2016-10-06T16:47:24Z</time></trkpt>
<trkpt lat="24.592099" lon="107.866489">
<time>2016-10-06T16:47:25Z</time></trkpt>
<trkpt lat="24.591809" lon="107.866489">
<time>2016-10-06T16:47:26Z</time></trkpt>
<trkpt lat="24.591589" lon="107.866489">
<time>2016-10-06T16:47:27Z</time></trkpt>
<trkpt lat="24.591379" lon="107.866499">
<time>2016-10-06T16:47:28Z</time></trkpt>
<trkpt lat="24.591139" lon="107.866509">
<time>2016-10-06T16:47:29Z</time></trkpt>
<trkpt lat="24.590929" lon="107.866529">
<time>2016-10-06T16:47:30Z</time></trkpt>
<trkpt lat="24.590679" lon="107.866549">
<time>2016-10-06T16:47:31Z</time></trkpt>
<trkpt lat="24.590339" lon="107.866579">
<time>2016-10-06T16:47:32Z</time></trkpt>
<trkpt lat="24.589979" lon="107.866619">
<time>2016-10-06T16:47:33Z</time></trkpt>
<trkpt lat="24.589679" lon="107.866649">
<time>2016-10-06T16:47:34Z</time></trkpt>
<trkpt lat="24.587459" lon="107.86688">
<time>2016-10-06T16:47:35Z</time></trkpt>
<trkpt lat="24.587259" lon="107.86689">
<time>2016-10-06T16:47:36Z</time></trkpt>
<trkpt lat="24.587049" lon="107.8669">
<time>2016-10-06T16:47:37Z</time></trkpt>
<trkpt lat="24.586889" lon="107.86691">
<time>2016-10-06T16:47:38Z</time></trkpt>
<trkpt lat="24.586779" lon="107.86691">
<time>2016-10-06T16:47:39Z</time></trkpt>
<trkpt lat="24.586569" lon="107.8669">
<time>2016-10-06T16:47:40Z</time></trkpt>
<trkpt lat="24.586469" lon="107.86689">
<time>2016-10-06T16:47:41Z</time></trkpt>
<trkpt lat="24.586309" lon="107.86687">
<time>2016-10-06T16:47:42Z</time></trkpt>
<trkpt lat="24.586209" lon="107.86686">
<time>2016-10-06T16:47:43Z</time></trkpt>
<trkpt lat="24.585999" lon="107.86682">
<time>2016-10-06T16:47:44Z</time></trkpt>
<trkpt lat="24.585859" lon="107.86678">
<time>2016-10-06T16:47:45Z</time></trkpt>
<trkpt lat="24.585699" lon="107.86673">
<time>2016-10-06T16:47:46Z</time></trkpt>
<trkpt lat="24.585519" lon="107.86667">
<time>2016-10-06T16:47:47Z</time></trkpt>
<trkpt lat="24.585339" lon="107.8666">
<time>2016-10-06T16:47:48Z</time></trkpt>
<trkpt lat="24.585129" lon="107.866509">
<time>2016-10-06T16:47:49Z</time></trkpt>
<trkpt lat="24.584818" lon="107.866359">
<time>2016-10-06T16:47:50Z</time></trkpt>
<trkpt lat="24.584468" lon="107.866189">
<time>2016-10-06T16:47:51Z</time></trkpt>
<trkpt lat="24.584148" lon="107.866019">
<time>2016-10-06T16:47:52Z</time></trkpt>
<trkpt lat="24.583828" lon="107.865848">
<time>2016-10-06T16:47:53Z</time></trkpt>
<trkpt lat="24.583337" lon="107.865598">
<time>2016-10-06T16:47:54Z</time></trkpt>
<trkpt lat="24.583207" lon="107.865528">
<time>2016-10-06T16:47:55Z</time></trkpt>
<trkpt lat="24.582937" lon="107.865398">
<time>2016-10-06T16:47:56Z</time></trkpt>
<trkpt lat="24.582747" lon="107.865298">
<time>2016-10-06T16:47:57Z</time></trkpt>
<trkpt lat="24.582567" lon="107.865217">
<time>2016-10-06T16:47:58Z</time></trkpt>
<trkpt lat="24.582397" lon="107.865137">
<time>2016-10-06T16:47:59Z</time></trkpt>
<trkpt lat="24.582277" lon="107.865087">
<time>2016-10-06T16:48:00Z</time></trkpt>
<trkpt lat="24.582147" lon="107.865047">
<time>2016-10-06T16:48:01Z</time></trkpt>
<trkpt lat="24.582027" lon="107.865007">
<time>2016-10-06T16:48:02Z</time></trkpt>
<trkpt lat="24.581917" lon="107.864977">
<time>2016-10-06T16:48:03Z</time></trkpt>
<trkpt lat="24.581746" lon="107.864937">
<time>2016-10-06T16:48:04Z</time></trkpt>
<trkpt lat="24.581646" lon="107.864917">
<time>2016-10-06T16:48:05Z</time></trkpt>
<trkpt lat="24.581526" lon="107.864897">
<time>2016-10-06T16:48:06Z</time></trkpt>
<trkpt lat="24.581326" lon="107.864887">
<time>2016-10-06T16:48:07Z</time></trkpt>
<trkpt lat="24.581106" lon="107.864877">
<time>2016-10-06T16:48:08Z</time></trkpt>
<trkpt lat="24.580946" lon="107.864887">
<time>2016-10-06T16:48:09Z</time></trkpt>
<trkpt lat="24.580786" lon="107.864897">
<time>2016-10-06T16:48:10Z</time></trkpt>
<trkpt lat="24.580616" lon="107.864917">
<time>2016-10-06T16:48:11Z</time></trkpt>
<trkpt lat="24.580526" lon="107.864937">
<time>2016-10-06T16:48:12Z</time></trkpt>
<trkpt lat="24.580426" lon="107.864957">
<time>2016-10-06T16:48:13Z</time></trkpt>
<trkpt lat="24.580156" lon="107.865017">
<time>2016-10-06T16:48:14Z</time></trkpt>
<trkpt lat="24.579916" lon="107.865087">
<time>2016-10-06T16:48:15Z</time></trkpt>
<trkpt lat="24.579707" lon="107.865137">
<time>2016-10-06T16:48:16Z</time></trkpt>
<trkpt lat="24.579297" lon="107.865258">
<time>2016-10-06T16:48:17Z</time></trkpt>
<trkpt lat="24.578867" lon="107.865388">
<time>2016-10-06T16:48:18Z</time></trkpt>
<trkpt lat="24.578567" lon="107.865468">
<time>2016-10-06T16:48:19Z</time></trkpt>
<trkpt lat="24.578567" lon="107.865468">
<time>2016-10-06T16:48:20Z</time></trkpt>
<trkpt lat="24.578397" lon="107.865218">
<time>2016-10-06T16:48:21Z</time></trkpt>
<trkpt lat="24.578336" lon="107.865128">
<time>2016-10-06T16:48:22Z</time></trkpt>
<trkpt lat="24.578306" lon="107.865077">
<time>2016-10-06T16:48:23Z</time></trkpt>
<trkpt lat="24.578286" lon="107.865027">
<time>2016-10-06T16:48:24Z</time></trkpt>
<trkpt lat="24.578256" lon="107.864967">
<time>2016-10-06T16:48:25Z</time></trkpt>
<trkpt lat="24.578246" lon="107.864927">
<time>2016-10-06T16:48:26Z</time></trkpt>
<trkpt lat="24.578226" lon="107.864877">
<time>2016-10-06T16:48:27Z</time></trkpt>
<trkpt lat="24.578216" lon="107.864827">
<time>2016-10-06T16:48:28Z</time></trkpt>
<trkpt lat="24.578196" lon="107.864747">
<time>2016-10-06T16:48:29Z</time></trkpt>
<trkpt lat="24.578236" lon="107.864507">
<time>2016-10-06T16:48:30Z</time></trkpt>
<trkpt lat="24.578246" lon="107.864426">
<time>2016-10-06T16:48:31Z</time></trkpt>
<trkpt lat="24.578245" lon="107.864356">
<time>2016-10-06T16:48:32Z</time></trkpt>
<trkpt lat="24.578245" lon="107.864256">
<time>2016-10-06T16:48:33Z</time></trkpt>
<trkpt lat="24.578225" lon="107.864146">
<time>2016-10-06T16:48:34Z</time></trkpt>
<trkpt lat="24.578205" lon="107.864046">
<time>2016-10-06T16:48:35Z</time></trkpt>
<trkpt lat="24.578165" lon="107.863946">
<time>2016-10-06T16:48:36Z</time></trkpt>
<trkpt lat="24.578125" lon="107.863845">
<time>2016-10-06T16:48:37Z</time></trkpt>
<trkpt lat="24.578065" lon="107.863765">
<time>2016-10-06T16:48:38Z</time></trkpt>
<trkpt lat="24.577974" lon="107.863615">
<time>2016-10-06T16:48:39Z</time></trkpt>
<trkpt lat="24.577744" lon="107.863295">
<time>2016-10-06T16:48:40Z</time></trkpt>
<trkpt lat="24.577614" lon="107.863094">
<time>2016-10-06T16:48:41Z</time></trkpt>
<trkpt lat="24.577554" lon="107.862994">
<time>2016-10-06T16:48:42Z</time></trkpt>
<trkpt lat="24.577503" lon="107.862854">
<time>2016-10-06T16:48:43Z</time></trkpt>
<trkpt lat="24.577463" lon="107.862724">
<time>2016-10-06T16:48:44Z</time></trkpt>
<trkpt lat="24.577433" lon="107.862593">
<time>2016-10-06T16:48:45Z</time></trkpt>
<trkpt lat="24.577413" lon="107.862483">
<time>2016-10-06T16:48:46Z</time></trkpt>
<trkpt lat="24.577413" lon="107.862363">
<time>2016-10-06T16:48:47Z</time></trkpt>
<trkpt lat="24.577413" lon="107.862243">
<time>2016-10-06T16:48:48Z</time></trkpt>
<trkpt lat="24.577432" lon="107.862123">
<time>2016-10-06T16:48:49Z</time></trkpt>
<trkpt lat="24.577472" lon="107.861982">
<time>2016-10-06T16:48:50Z</time></trkpt>
<trkpt lat="24.577512" lon="107.861882">
<time>2016-10-06T16:48:51Z</time></trkpt>
<trkpt lat="24.577562" lon="107.861762">
<time>2016-10-06T16:48:52Z</time></trkpt>
<trkpt lat="24.577612" lon="107.861662">
<time>2016-10-06T16:48:53Z</time></trkpt>
<trkpt lat="24.577702" lon="107.861542">
<time>2016-10-06T16:48:54Z</time></trkpt>
<trkpt lat="24.577812" lon="107.861411">
<time>2016-10-06T16:48:55Z</time></trkpt>
<trkpt lat="24.577921" lon="107.861291">
<time>2016-10-06T16:48:56Z</time></trkpt>
<trkpt lat="24.578091" lon="107.861121">
<time>2016-10-06T16:48:57Z</time></trkpt>
<trkpt lat="24.578251" lon="107.86097">
<time>2016-10-06T16:48:58Z</time></trkpt>
<trkpt lat="24.578501" lon="107.86074">
<time>2016-10-06T16:48:59Z</time></trkpt>
<trkpt lat="24.57871" lon="107.86053">
<time>2016-10-06T16:49:00Z</time></trkpt>
<trkpt lat="24.57887" lon="107.860339">
<time>2016-10-06T16:49:01Z</time></trkpt>
<trkpt lat="24.57899" lon="107.860169">
<time>2016-10-06T16:49:02Z</time></trkpt>
<trkpt lat="24.57907" lon="107.860029">
<time>2016-10-06T16:49:03Z</time></trkpt>
<trkpt lat="24.57911" lon="107.859949">
<time>2016-10-06T16:49:04Z</time></trkpt>
<trkpt lat="24.579209" lon="107.859738">
<time>2016-10-06T16:49:05Z</time></trkpt>
<trkpt lat="24.579289" lon="107.859528">
<time>2016-10-06T16:49:06Z</time></trkpt>
<trkpt lat="24.579339" lon="107.859327">
<time>2016-10-06T16:49:07Z</time></trkpt>
<trkpt lat="24.579369" lon="107.859147">
<time>2016-10-06T16:49:08Z</time></trkpt>
<trkpt lat="24.579398" lon="107.858917">
<time>2016-10-06T16:49:09Z</time></trkpt>
<trkpt lat="24.579447" lon="107.858346">
<time>2016-10-06T16:49:10Z</time></trkpt>
<trkpt lat="24.579477" lon="107.857845">
<time>2016-10-06T16:49:11Z</time></trkpt>
<trkpt lat="24.579486" lon="107.857584">
<time>2016-10-06T16:49:12Z</time></trkpt>
<trkpt lat="24.579486" lon="107.857404">
<time>2016-10-06T16:49:13Z</time></trkpt>
<trkpt lat="24.579466" lon="107.857264">
<time>2016-10-06T16:49:14Z</time></trkpt>
<trkpt lat="24.579426" lon="107.857113">
<time>2016-10-06T16:49:15Z</time></trkpt>
<trkpt lat="24.579395" lon="107.857013">
<time>2016-10-06T16:49:16Z</time></trkpt>
<trkpt lat="24.579355" lon="107.856923">
<time>2016-10-06T16:49:17Z</time></trkpt>
<trkpt lat="24.579295" lon="107.856813">
<time>2016-10-06T16:49:18Z</time></trkpt>
<trkpt lat="24.579225" lon="107.856713">
<time>2016-10-06T16:49:19Z</time></trkpt>
<trkpt lat="24.579115" lon="107.856582">
<time>2016-10-06T16:49:20Z</time></trkpt>
<trkpt lat="24.578494" lon="107.855921">
<time>2016-10-06T16:49:21Z</time></trkpt>
<trkpt lat="24.578303" lon="107.855721">
<time>2016-10-06T16:49:22Z</time></trkpt>
<trkpt lat="24.578143" lon="107.855571">
<time>2016-10-06T16:49:23Z</time></trkpt>
<trkpt lat="24.578003" lon="107.85546">
<time>2016-10-06T16:49:24Z</time></trkpt>
<trkpt lat="24.577893" lon="107.85539">
<time>2016-10-06T16:49:25Z</time></trkpt>
<trkpt lat="24.577793" lon="107.85534">
<time>2016-10-06T16:49:26Z</time></trkpt>
<trkpt lat="24.577713" lon="107.85531">
<time>2016-10-06T16:49:27Z</time></trkpt>
<trkpt lat="24.577623" lon="107.85528">
<time>2016-10-06T16:49:28Z</time></trkpt>
<trkpt lat="24.577523" lon="107.85526">
<time>2016-10-06T16:49:29Z</time></trkpt>
<trkpt lat="24.577413" lon="107.85524">
<time>2016-10-06T16:49:30Z</time></trkpt>
<trkpt lat="24.577243" lon="107.85523">
<time>2016-10-06T16:49:31Z</time></trkpt>
<trkpt lat="24.576953" lon="107.85523">
<time>2016-10-06T16:49:32Z</time></trkpt>
<trkpt lat="24.576853" lon="107.85523">
<time>2016-10-06T16:49:33Z</time></trkpt>
<trkpt lat="24.576733" lon="107.85522">
<time>2016-10-06T16:49:34Z</time></trkpt>
<trkpt lat="24.576593" lon="107.85519">
<time>2016-10-06T16:49:35Z</time></trkpt>
<trkpt lat="24.576492" lon="107.85517">
<time>2016-10-06T16:49:36Z</time></trkpt>
<trkpt lat="24.576382" lon="107.85512">
<time>2016-10-06T16:49:37Z</time></trkpt>
<trkpt lat="24.576232" lon="107.85504">
<time>2016-10-06T16:49:38Z</time></trkpt>
<trkpt lat="24.576122" lon="107.854959">
<time>2016-10-06T16:49:39Z</time></trkpt>
<trkpt lat="24.575972" lon="107.854829">
<time>2016-10-06T16:49:40Z</time></trkpt>
<trkpt lat="24.575501" lon="107.854368">
<time>2016-10-06T16:49:41Z</time></trkpt>
<trkpt lat="24.575301" lon="107.854208">
<time>2016-10-06T16:49:42Z</time></trkpt>
<trkpt lat="24.575091" lon="107.854078">
<time>2016-10-06T16:49:43Z</time></trkpt>
<trkpt lat="24.574961" lon="107.854018">
<time>2016-10-06T16:49:44Z</time></trkpt>
<trkpt lat="24.57475" lon="107.853928">
<time>2016-10-06T16:49:45Z</time></trkpt>
<trkpt lat="24.57436" lon="107.853787">
<time>2016-10-06T16:49:46Z</time></trkpt>
<trkpt lat="24.57409" lon="107.853677">
<time>2016-10-06T16:49:47Z</time></trkpt>
<trkpt lat="24.57391" lon="107.853577">
<time>2016-10-06T16:49:48Z</time></trkpt>
<trkpt lat="24.57374" lon="107.853487">
<time>2016-10-06T16:49:49Z</time></trkpt>
<trkpt lat="24.573589" lon="107.853377">
<time>2016-10-06T16:49:50Z</time></trkpt>
<trkpt lat="24.573499" lon="107.853296">
<time>2016-10-06T16:49:51Z</time></trkpt>
<trkpt lat="24.573369" lon="107.853166">
<time>2016-10-06T16:49:52Z</time></trkpt>
<trkpt lat="24.573189" lon="107.852986">
<time>2016-10-06T16:49:53Z</time></trkpt>
<trkpt lat="24.573029" lon="107.852795">
<time>2016-10-06T16:49:54Z</time></trkpt>
<trkpt lat="24.572748" lon="107.852485">
<time>2016-10-06T16:49:55Z</time></trkpt>
<trkpt lat="24.572618" lon="107.852355">
<time>2016-10-06T16:49:56Z</time></trkpt>
<trkpt lat="24.572498" lon="107.852254">
<time>2016-10-06T16:49:57Z</time></trkpt>
<trkpt lat="24.572347" lon="107.852154">
<time>2016-10-06T16:49:58Z</time></trkpt>
<trkpt lat="24.572117" lon="107.852034">
<time>2016-10-06T16:49:59Z</time></trkpt>
<trkpt lat="24.571957" lon="107.851944">
<time>2016-10-06T16:50:00Z</time></trkpt>
<trkpt lat="24.571767" lon="107.851834">
<time>2016-10-06T16:50:01Z</time></trkpt>
<trkpt lat="24.571617" lon="107.851703">
<time>2016-10-06T16:50:02Z</time></trkpt>
<trkpt lat="24.571486" lon="107.851583">
<time>2016-10-06T16:50:03Z</time></trkpt>
<trkpt lat="24.571386" lon="107.851453">
<time>2016-10-06T16:50:04Z</time></trkpt>
<trkpt lat="24.571226" lon="107.851222">
<time>2016-10-06T16:50:05Z</time></trkpt>
<trkpt lat="24.571116" lon="107.851022">
<time>2016-10-06T16:50:06Z</time></trkpt>
<trkpt lat="24.571045" lon="107.850872">
<time>2016-10-06T16:50:07Z</time></trkpt>
<trkpt lat="24.571025" lon="107.850771">
<time>2016-10-06T16:50:08Z</time></trkpt>
<trkpt lat="24.571005" lon="107.850671">
<time>2016-10-06T16:50:09Z</time></trkpt>
<trkpt lat="24.570995" lon="107.850601">
<time>2016-10-06T16:50:10Z</time></trkpt>
<trkpt lat="24.570995" lon="107.850541">
<time>2016-10-06T16:50:11Z</time></trkpt>
<trkpt lat="24.570995" lon="107.850531">
<time>2016-10-06T16:50:12Z</time></trkpt>
<trkpt lat="24.570995" lon="107.850471">
<time>2016-10-06T16:50:13Z</time></trkpt>
<trkpt lat="24.571015" lon="107.850381">
<time>2016-10-06T16:50:14Z</time></trkpt>
<trkpt lat="24.571054" lon="107.85028">
<time>2016-10-06T16:50:15Z</time></trkpt>
<trkpt lat="24.571114" lon="107.85016">
<time>2016-10-06T16:50:16Z</time></trkpt>
<trkpt lat="24.571394" lon="107.849779">
<time>2016-10-06T16:50:17Z</time></trkpt>
<trkpt lat="24.571423" lon="107.849719">
<time>2016-10-06T16:50:18Z</time></trkpt>
<trkpt lat="24.571453" lon="107.849649">
<time>2016-10-06T16:50:19Z</time></trkpt>
<trkpt lat="24.571483" lon="107.849579">
<time>2016-10-06T16:50:20Z</time></trkpt>
<trkpt lat="24.571503" lon="107.849499">
<time>2016-10-06T16:50:21Z</time></trkpt>
<trkpt lat="24.571513" lon="107.849429">
<time>2016-10-06T16:50:22Z</time></trkpt>
<trkpt lat="24.571513" lon="107.849369">
<time>2016-10-06T16:50:23Z</time></trkpt>
<trkpt lat="24.571513" lon="107.849308">
<time>2016-10-06T16:50:24Z</time></trkpt>
<trkpt lat="24.571503" lon="107.849238">
<time>2016-10-06T16:50:25Z</time></trkpt>
<trkpt lat="24.571493" lon="107.849218">
<time>2016-10-06T16:50:26Z</time></trkpt>
<trkpt lat="24.571483" lon="107.849188">
<time>2016-10-06T16:50:27Z</time></trkpt>
<trkpt lat="24.571452" lon="107.849118">
<time>2016-10-06T16:50:28Z</time></trkpt>
<trkpt lat="24.571422" lon="107.849048">
<time>2016-10-06T16:50:29Z</time></trkpt>
<trkpt lat="24.571372" lon="107.848978">
<time>2016-10-06T16:50:30Z</time></trkpt>
<trkpt lat="24.571322" lon="107.848918">
<time>2016-10-06T16:50:31Z</time></trkpt>
<trkpt lat="24.571242" lon="107.848838">
<time>2016-10-06T16:50:32Z</time></trkpt>
<trkpt lat="24.570861" lon="107.848537">
<time>2016-10-06T16:50:33Z</time></trkpt>
<trkpt lat="24.570491" lon="107.848266">
<time>2016-10-06T16:50:34Z</time></trkpt>
<trkpt lat="24.570371" lon="107.848186">
<time>2016-10-06T16:50:35Z</time></trkpt>
<trkpt lat="24.570281" lon="107.848126">
<time>2016-10-06T16:50:36Z</time></trkpt>
<trkpt lat="24.570191" lon="107.848086">
<time>2016-10-06T16:50:37Z</time></trkpt>
<trkpt lat="24.570111" lon="107.848056">
<time>2016-10-06T16:50:38Z</time></trkpt>
<trkpt lat="24.570011" lon="107.848026">
<time>2016-10-06T16:50:39Z</time></trkpt>
<trkpt lat="24.569901" lon="107.848016">
<time>2016-10-06T16:50:40Z</time></trkpt>
<trkpt lat="24.569791" lon="107.848016">
<time>2016-10-06T16:50:41Z</time></trkpt>
<trkpt lat="24.569671" lon="107.848026">
<time>2016-10-06T16:50:42Z</time></trkpt>
<trkpt lat="24.569151" lon="107.848126">
<time>2016-10-06T16:50:43Z</time></trkpt>
<trkpt lat="24.569021" lon="107.848146">
<time>2016-10-06T16:50:44Z</time></trkpt>
<trkpt lat="24.568921" lon="107.848146">
<time>2016-10-06T16:50:45Z</time></trkpt>
<trkpt lat="24.568821" lon="107.848146">
<time>2016-10-06T16:50:46Z</time></trkpt>
<trkpt lat="24.568711" lon="107.848146">
<time>2016-10-06T16:50:47Z</time></trkpt>
<trkpt lat="24.568621" lon="107.848126">
<time>2016-10-06T16:50:48Z</time></trkpt>
<trkpt lat="24.56836" lon="107.848036">
<time>2016-10-06T16:50:49Z</time></trkpt>
<trkpt lat="24.56824" lon="107.847976">
<time>2016-10-06T16:50:50Z</time></trkpt>
<trkpt lat="24.56808" lon="107.847896">
<time>2016-10-06T16:50:51Z</time></trkpt>
<trkpt lat="24.56772" lon="107.847705">
<time>2016-10-06T16:50:52Z</time></trkpt>
<trkpt lat="24.56763" lon="107.847665">
<time>2016-10-06T16:50:53Z</time></trkpt>
<trkpt lat="24.56742" lon="107.847595">
<time>2016-10-06T16:50:54Z</time></trkpt>
<trkpt lat="24.56734" lon="107.847575">
<time>2016-10-06T16:50:55Z</time></trkpt>
<trkpt lat="24.56725" lon="107.847565">
<time>2016-10-06T16:50:56Z</time></trkpt>
<trkpt lat="24.56715" lon="107.847565">
<time>2016-10-06T16:50:57Z</time></trkpt>
<trkpt lat="24.56702" lon="107.847575">
<time>2016-10-06T16:50:58Z</time></trkpt>
<trkpt lat="24.5669" lon="107.847585">
<time>2016-10-06T16:50:59Z</time></trkpt>
<trkpt lat="24.56678" lon="107.847615">
<time>2016-10-06T16:51:00Z</time></trkpt>
<trkpt lat="24.5666" lon="107.847665">
<time>2016-10-06T16:51:01Z</time></trkpt>
<trkpt lat="24.5663" lon="107.847796">
<time>2016-10-06T16:51:02Z</time></trkpt>
<trkpt lat="24.56613" lon="107.847856">
<time>2016-10-06T16:51:03Z</time></trkpt>
<trkpt lat="24.566" lon="107.847896">
<time>2016-10-06T16:51:04Z</time></trkpt>
<trkpt lat="24.56588" lon="107.847916">
<time>2016-10-06T16:51:05Z</time></trkpt>
<trkpt lat="24.56577" lon="107.847926">
<time>2016-10-06T16:51:06Z</time></trkpt>
<trkpt lat="24.56567" lon="107.847926">
<time>2016-10-06T16:51:07Z</time></trkpt>
<trkpt lat="24.56548" lon="107.847906">
<time>2016-10-06T16:51:08Z</time></trkpt>
<trkpt lat="24.56463" lon="107.847806">
<time>2016-10-06T16:51:09Z</time></trkpt>
<trkpt lat="24.56429" lon="107.847766">
<time>2016-10-06T16:51:10Z</time></trkpt>
<trkpt lat="24.56393" lon="107.847726">
<time>2016-10-06T16:51:11Z</time></trkpt>
<trkpt lat="24.563839" lon="107.847706">
<time>2016-10-06T16:51:12Z</time></trkpt>
<trkpt lat="24.563739" lon="107.847686">
<time>2016-10-06T16:51:13Z</time></trkpt>
<trkpt lat="24.563659" lon="107.847665">
<time>2016-10-06T16:51:14Z</time></trkpt>
<trkpt lat="24.563579" lon="107.847635">
<time>2016-10-06T16:51:15Z</time></trkpt>
<trkpt lat="24.563509" lon="107.847605">
<time>2016-10-06T16:51:16Z</time></trkpt>
<trkpt lat="24.563459" lon="107.847575">
<time>2016-10-06T16:51:17Z</time></trkpt>
<trkpt lat="24.563389" lon="107.847525">
<time>2016-10-06T16:51:18Z</time></trkpt>
<trkpt lat="24.563319" lon="107.847455">
<time>2016-10-06T16:51:19Z</time></trkpt>
<trkpt lat="24.563269" lon="107.847415">
<time>2016-10-06T16:51:20Z</time></trkpt>
<trkpt lat="24.563219" lon="107.847355">
<time>2016-10-06T16:51:21Z</time></trkpt>
<trkpt lat="24.563159" lon="107.847275">
<time>2016-10-06T16:51:22Z</time></trkpt>
<trkpt lat="24.563089" lon="107.847164">
<time>2016-10-06T16:51:23Z</time></trkpt>
<trkpt lat="24.562847" lon="107.846543">
<time>2016-10-06T16:51:24Z</time></trkpt>
<trkpt lat="24.562697" lon="107.846192">
<time>2016-10-06T16:51:25Z</time></trkpt>
<trkpt lat="24.562566" lon="107.845952">
<time>2016-10-06T16:51:26Z</time></trkpt>
<trkpt lat="24.562486" lon="107.845832">
<time>2016-10-06T16:51:27Z</time></trkpt>
<trkpt lat="24.562426" lon="107.845772">
<time>2016-10-06T16:51:28Z</time></trkpt>
<trkpt lat="24.562386" lon="107.845752">
<time>2016-10-06T16:51:29Z</time></trkpt>
<trkpt lat="24.562336" lon="107.845742">
<time>2016-10-06T16:51:30Z</time></trkpt>
<trkpt lat="24.562296" lon="107.845742">
<time>2016-10-06T16:51:31Z</time></trkpt>
<trkpt lat="24.562246" lon="107.845742">
<time>2016-10-06T16:51:32Z</time></trkpt>
<trkpt lat="24.562176" lon="107.845772">
<time>2016-10-06T16:51:33Z</time></trkpt>
<trkpt lat="24.562126" lon="107.845802">
<time>2016-10-06T16:51:34Z</time></trkpt>
<trkpt lat="24.562086" lon="107.845852">
<time>2016-10-06T16:51:35Z</time></trkpt>
<trkpt lat="24.562066" lon="107.845912">
<time>2016-10-06T16:51:36Z</time></trkpt>
<trkpt lat="24.562056" lon="107.845962">
<time>2016-10-06T16:51:37Z</time></trkpt>
<trkpt lat="24.562056" lon="107.846022">
<time>2016-10-06T16:51:38Z</time></trkpt>
<trkpt lat="24.562057" lon="107.846082">
<time>2016-10-06T16:51:39Z</time></trkpt>
<trkpt lat="24.562077" lon="107.846152">
<time>2016-10-06T16:51:40Z</time></trkpt>
<trkpt lat="24.562107" lon="107.846333">
<time>2016-10-06T16:51:41Z</time></trkpt>
<trkpt lat="24.562137" lon="107.846513">
<time>2016-10-06T16:51:42Z</time></trkpt>
<trkpt lat="24.562158" lon="107.846633">
<time>2016-10-06T16:51:43Z</time></trkpt>
<trkpt lat="24.562158" lon="107.846714">
<time>2016-10-06T16:51:44Z</time></trkpt>
<trkpt lat="24.562158" lon="107.846784">
<time>2016-10-06T16:51:45Z</time></trkpt>
<trkpt lat="24.562138" lon="107.846854">
<time>2016-10-06T16:51:46Z</time></trkpt>
<trkpt lat="24.562128" lon="107.846914">
<time>2016-10-06T16:51:47Z</time></trkpt>
<trkpt lat="24.562108" lon="107.846964">
<time>2016-10-06T16:51:48Z</time></trkpt>
<trkpt lat="24.562078" lon="107.847024">
<time>2016-10-06T16:51:49Z</time></trkpt>
<trkpt lat="24.562038" lon="107.847084">
<time>2016-10-06T16:51:50Z</time></trkpt>
<trkpt lat="24.561988" lon="107.847145">
<time>2016-10-06T16:51:51Z</time></trkpt>
<trkpt lat="24.561928" lon="107.847205">
<time>2016-10-06T16:51:52Z</time></trkpt>
<trkpt lat="24.561889" lon="107.847235">
<time>2016-10-06T16:51:53Z</time></trkpt>
<trkpt lat="24.561819" lon="107.847275">
<time>2016-10-06T16:51:54Z</time></trkpt>
<trkpt lat="24.561729" lon="107.847305">
<time>2016-10-06T16:51:55Z</time></trkpt>
<trkpt lat="24.561659" lon="107.847335">
<time>2016-10-06T16:51:56Z</time></trkpt>
<trkpt lat="24.561569" lon="107.847345">
<time>2016-10-06T16:51:57Z</time></trkpt>
<trkpt lat="24.560979" lon="107.847375">
<time>2016-10-06T16:51:58Z</time></trkpt>
<trkpt lat="24.560559" lon="107.847395">
<time>2016-10-06T16:51:59Z</time></trkpt>
<trkpt lat="24.560419" lon="107.847395">
<time>2016-10-06T16:52:00Z</time></trkpt>
<trkpt lat="24.560339" lon="107.847395">
<time>2016-10-06T16:52:01Z</time></trkpt>
<trkpt lat="24.560269" lon="107.847385">
<time>2016-10-06T16:52:02Z</time></trkpt>
<trkpt lat="24.560209" lon="107.847365">
<time>2016-10-06T16:52:03Z</time></trkpt>
<trkpt lat="24.560119" lon="107.847335">
<time>2016-10-06T16:52:04Z</time></trkpt>
<trkpt lat="24.560038" lon="107.847285">
<time>2016-10-06T16:52:05Z</time></trkpt>
<trkpt lat="24.559968" lon="107.847235">
<time>2016-10-06T16:52:06Z</time></trkpt>
<trkpt lat="24.559918" lon="107.847185">
<time>2016-10-06T16:52:07Z</time></trkpt>
<trkpt lat="24.559868" lon="107.847115">
<time>2016-10-06T16:52:08Z</time></trkpt>
<trkpt lat="24.559788" lon="107.846964">
<time>2016-10-06T16:52:09Z</time></trkpt>
<trkpt lat="24.559667" lon="107.846734">
<time>2016-10-06T16:52:10Z</time></trkpt>
<trkpt lat="24.559617" lon="107.846634">
<time>2016-10-06T16:52:11Z</time></trkpt>
<trkpt lat="24.559557" lon="107.846533">
<time>2016-10-06T16:52:12Z</time></trkpt>
<trkpt lat="24.559487" lon="107.846443">
<time>2016-10-06T16:52:13Z</time></trkpt>
<trkpt lat="24.559427" lon="107.846393">
<time>2016-10-06T16:52:14Z</time></trkpt>
<trkpt lat="24.559387" lon="107.846353">
<time>2016-10-06T16:52:15Z</time></trkpt>
<trkpt lat="24.559327" lon="107.846313">
<time>2016-10-06T16:52:16Z</time></trkpt>
<trkpt lat="24.559257" lon="107.846273">
<time>2016-10-06T16:52:17Z</time></trkpt>
<trkpt lat="24.559167" lon="107.846243">
<time>2016-10-06T16:52:18Z</time></trkpt>
<trkpt lat="24.559087" lon="107.846233">
<time>2016-10-06T16:52:19Z</time></trkpt>
<trkpt lat="24.558977" lon="107.846223">
<time>2016-10-06T16:52:20Z</time></trkpt>
<trkpt lat="24.558827" lon="107.846243">
<time>2016-10-06T16:52:21Z</time></trkpt>
<trkpt lat="24.558717" lon="107.846263">
<time>2016-10-06T16:52:22Z</time></trkpt>
<trkpt lat="24.558647" lon="107.846273">
<time>2016-10-06T16:52:23Z</time></trkpt>
<trkpt lat="24.558577" lon="107.846273">
<time>2016-10-06T16:52:24Z</time></trkpt>
<trkpt lat="24.558467" lon="107.846283">
<time>2016-10-06T16:52:25Z</time></trkpt>
<trkpt lat="24.558407" lon="107.846283">
<time>2016-10-06T16:52:26Z</time></trkpt>
<trkpt lat="24.558367" lon="107.846273">
<time>2016-10-06T16:52:27Z</time></trkpt>
<trkpt lat="24.558307" lon="107.846273">
<time>2016-10-06T16:52:28Z</time></trkpt>
<trkpt lat="24.558257" lon="107.846253">
<time>2016-10-06T16:52:29Z</time></trkpt>
<trkpt lat="24.558196" lon="107.846223">
<time>2016-10-06T16:52:30Z</time></trkpt>
<trkpt lat="24.558126" lon="107.846183">
<time>2016-10-06T16:52:31Z</time></trkpt>
<trkpt lat="24.558066" lon="107.846133">
<time>2016-10-06T16:52:32Z</time></trkpt>
<trkpt lat="24.558016" lon="107.846072">
<time>2016-10-06T16:52:33Z</time></trkpt>
<trkpt lat="24.557976" lon="107.846002">
<time>2016-10-06T16:52:34Z</time></trkpt>
<trkpt lat="24.557936" lon="107.845922">
<time>2016-10-06T16:52:35Z</time></trkpt>
<trkpt lat="24.557906" lon="107.845832">
<time>2016-10-06T16:52:36Z</time></trkpt>
<trkpt lat="24.557896" lon="107.845752">
<time>2016-10-06T16:52:37Z</time></trkpt>
<trkpt lat="24.557895" lon="107.845662">
<time>2016-10-06T16:52:38Z</time></trkpt>
<trkpt lat="24.557905" lon="107.845571">
<time>2016-10-06T16:52:39Z</time></trkpt>
<trkpt lat="24.557925" lon="107.845491">
<time>2016-10-06T16:52:40Z</time></trkpt>
<trkpt lat="24.557955" lon="107.845381">
<time>2016-10-06T16:52:41Z</time></trkpt>
<trkpt lat="24.558085" lon="107.8451">
<time>2016-10-06T16:52:42Z</time></trkpt>
<trkpt lat="24.558543" lon="107.844218">
<time>2016-10-06T16:52:43Z</time></trkpt>
<trkpt lat="24.558613" lon="107.844118">
<time>2016-10-06T16:52:44Z</time></trkpt>
<trkpt lat="24.558683" lon="107.844048">
<time>2016-10-06T16:52:45Z</time></trkpt>
<trkpt lat="24.558743" lon="107.843998">
<time>2016-10-06T16:52:46Z</time></trkpt>
<trkpt lat="24.558803" lon="107.843978">
<time>2016-10-06T16:52:47Z</time></trkpt>
<trkpt lat="24.558873" lon="107.843968">
<time>2016-10-06T16:52:48Z</time></trkpt>
<trkpt lat="24.558973" lon="107.843988">
<time>2016-10-06T16:52:49Z</time></trkpt>
<trkpt lat="24.559033" lon="107.844018">
<time>2016-10-06T16:52:50Z</time></trkpt>
<trkpt lat="24.559093" lon="107.844068">
<time>2016-10-06T16:52:51Z</time></trkpt>
<trkpt lat="24.559173" lon="107.844158">
<time>2016-10-06T16:52:52Z</time></trkpt>
<trkpt lat="24.559213" lon="107.844249">
<time>2016-10-06T16:52:53Z</time></trkpt>
<trkpt lat="24.559253" lon="107.844329">
<time>2016-10-06T16:52:54Z</time></trkpt>
<trkpt lat="24.559273" lon="107.844409">
<time>2016-10-06T16:52:55Z</time></trkpt>
<trkpt lat="24.559284" lon="107.844459">
<time>2016-10-06T16:52:56Z</time></trkpt>
<trkpt lat="24.559284" lon="107.844469">
<time>2016-10-06T16:52:57Z</time></trkpt>
<trkpt lat="24.559284" lon="107.844549">
<time>2016-10-06T16:52:58Z</time></trkpt>
<trkpt lat="24.559284" lon="107.844609">
<time>2016-10-06T16:52:59Z</time></trkpt>
<trkpt lat="24.559264" lon="107.844699">
<time>2016-10-06T16:53:00Z</time></trkpt>
<trkpt lat="24.559254" lon="107.84476">
<time>2016-10-06T16:53:01Z</time></trkpt>
<trkpt lat="24.559224" lon="107.84484">
<time>2016-10-06T16:53:02Z</time></trkpt>
<trkpt lat="24.559194" lon="107.84489">
<time>2016-10-06T16:53:03Z</time></trkpt>
<trkpt lat="24.559164" lon="107.84493">
<time>2016-10-06T16:53:04Z</time></trkpt>
<trkpt lat="24.559124" lon="107.84498">
<time>2016-10-06T16:53:05Z</time></trkpt>
<trkpt lat="24.559074" lon="107.84501">
<time>2016-10-06T16:53:06Z</time></trkpt>
<trkpt lat="24.559024" lon="107.84503">
<time>2016-10-06T16:53:07Z</time></trkpt>
<trkpt lat="24.558984" lon="107.84503">
<time>2016-10-06T16:53:08Z</time></trkpt>
<trkpt lat="24.558925" lon="107.84504">
<time>2016-10-06T16:53:09Z</time></trkpt>
<trkpt lat="24.558864" lon="107.84503">
<time>2016-10-06T16:53:10Z</time></trkpt>
<trkpt lat="24.558824" lon="107.84501">
<time>2016-10-06T16:53:11Z</time></trkpt>
<trkpt lat="24.558774" lon="107.84498">
<time>2016-10-06T16:53:12Z</time></trkpt>
<trkpt lat="24.558724" lon="107.84495">
<time>2016-10-06T16:53:13Z</time></trkpt>
<trkpt lat="24.558684" lon="107.8449">
<time>2016-10-06T16:53:14Z</time></trkpt>
<trkpt lat="24.558594" lon="107.84479">
<time>2016-10-06T16:53:15Z</time></trkpt>
<trkpt lat="24.558363" lon="107.844419">
<time>2016-10-06T16:53:16Z</time></trkpt>
<trkpt lat="24.558313" lon="107.844349">
<time>2016-10-06T16:53:17Z</time></trkpt>
<trkpt lat="24.558263" lon="107.844279">
<time>2016-10-06T16:53:18Z</time></trkpt>
<trkpt lat="24.558213" lon="107.844229">
<time>2016-10-06T16:53:19Z</time></trkpt>
<trkpt lat="24.558143" lon="107.844178">
<time>2016-10-06T16:53:20Z</time></trkpt>
<trkpt lat="24.558083" lon="107.844138">
<time>2016-10-06T16:53:21Z</time></trkpt>
<trkpt lat="24.558013" lon="107.844098">
<time>2016-10-06T16:53:22Z</time></trkpt>
<trkpt lat="24.557933" lon="107.844078">
<time>2016-10-06T16:53:23Z</time></trkpt>
<trkpt lat="24.557843" lon="107.844058">
<time>2016-10-06T16:53:24Z</time></trkpt>
<trkpt lat="24.557783" lon="107.844058">
<time>2016-10-06T16:53:25Z</time></trkpt>
<trkpt lat="24.557703" lon="107.844058">
<time>2016-10-06T16:53:26Z</time></trkpt>
<trkpt lat="24.557633" lon="107.844068">
<time>2016-10-06T16:53:27Z</time></trkpt>
<trkpt lat="24.557563" lon="107.844088">
<time>2016-10-06T16:53:28Z</time></trkpt>
<trkpt lat="24.557363" lon="107.844188">
<time>2016-10-06T16:53:29Z</time></trkpt>
<trkpt lat="24.557153" lon="107.844289">
<time>2016-10-06T16:53:30Z</time></trkpt>
<trkpt lat="24.557013" lon="107.844349">
<time>2016-10-06T16:53:31Z</time></trkpt>
<trkpt lat="24.556943" lon="107.844369">
<time>2016-10-06T16:53:32Z</time></trkpt>
<trkpt lat="24.556883" lon="107.844379">
<time>2016-10-06T16:53:33Z</time></trkpt>
<trkpt lat="24.556813" lon="107.844379">
<time>2016-10-06T16:53:34Z</time></trkpt>
<trkpt lat="24.556753" lon="107.844379">
<time>2016-10-06T16:53:35Z</time></trkpt>
<trkpt lat="24.556663" lon="107.844369">
<time>2016-10-06T16:53:36Z</time></trkpt>
<trkpt lat="24.556583" lon="107.844349">
<time>2016-10-06T16:53:37Z</time></trkpt>
<trkpt lat="24.556513" lon="107.844319">
<time>2016-10-06T16:53:38Z</time></trkpt>
<trkpt lat="24.556433" lon="107.844279">
<time>2016-10-06T16:53:39Z</time></trkpt>
<trkpt lat="24.555302" lon="107.843587">
<time>2016-10-06T16:53:40Z</time></trkpt>
<trkpt lat="24.555232" lon="107.843547">
<time>2016-10-06T16:53:41Z</time></trkpt>
<trkpt lat="24.555151" lon="107.843507">
<time>2016-10-06T16:53:42Z</time></trkpt>
<trkpt lat="24.555101" lon="107.843487">
<time>2016-10-06T16:53:43Z</time></trkpt>
<trkpt lat="24.555041" lon="107.843457">
<time>2016-10-06T16:53:44Z</time></trkpt>
<trkpt lat="24.554981" lon="107.843447">
<time>2016-10-06T16:53:45Z</time></trkpt>
<trkpt lat="24.554911" lon="107.843447">
<time>2016-10-06T16:53:46Z</time></trkpt>
<trkpt lat="24.554831" lon="107.843447">
<time>2016-10-06T16:53:47Z</time></trkpt>
<trkpt lat="24.554741" lon="107.843467">
<time>2016-10-06T16:53:48Z</time></trkpt>
<trkpt lat="24.554681" lon="107.843487">
<time>2016-10-06T16:53:49Z</time></trkpt>
<trkpt lat="24.554601" lon="107.843527">
<time>2016-10-06T16:53:50Z</time></trkpt>
<trkpt lat="24.554532" lon="107.843567">
<time>2016-10-06T16:53:51Z</time></trkpt>
<trkpt lat="24.554272" lon="107.843768">
<time>2016-10-06T16:53:52Z</time></trkpt>
<trkpt lat="24.554202" lon="107.843828">
<time>2016-10-06T16:53:53Z</time></trkpt>
<trkpt lat="24.554132" lon="107.843878">
<time>2016-10-06T16:53:54Z</time></trkpt>
<trkpt lat="24.554052" lon="107.843918">
<time>2016-10-06T16:53:55Z</time></trkpt>
<trkpt lat="24.553982" lon="107.843938">
<time>2016-10-06T16:53:56Z</time></trkpt>
<trkpt lat="24.553922" lon="107.843958">
<time>2016-10-06T16:53:57Z</time></trkpt>
<trkpt lat="24.553852" lon="107.843968">
<time>2016-10-06T16:53:58Z</time></trkpt>
<trkpt lat="24.553792" lon="107.843968">
<time>2016-10-06T16:53:59Z</time></trkpt>
<trkpt lat="24.553732" lon="107.843968">
<time>2016-10-06T16:54:00Z</time></trkpt>
<trkpt lat="24.553682" lon="107.843958">
<time>2016-10-06T16:54:01Z</time></trkpt>
<trkpt lat="24.553622" lon="107.843948">
<time>2016-10-06T16:54:02Z</time></trkpt>
<trkpt lat="24.553562" lon="107.843918">
<time>2016-10-06T16:54:03Z</time></trkpt>
<trkpt lat="24.553492" lon="107.843878">
<time>2016-10-06T16:54:04Z</time></trkpt>
<trkpt lat="24.553111" lon="107.843627">
<time>2016-10-06T16:54:05Z</time></trkpt>
<trkpt lat="24.553031" lon="107.843587">
<time>2016-10-06T16:54:06Z</time></trkpt>
<trkpt lat="24.552971" lon="107.843557">
<time>2016-10-06T16:54:07Z</time></trkpt>
<trkpt lat="24.552911" lon="107.843537">
<time>2016-10-06T16:54:08Z</time></trkpt>
<trkpt lat="24.552841" lon="107.843517">
<time>2016-10-06T16:54:09Z</time></trkpt>
<trkpt lat="24.552771" lon="107.843517">
<time>2016-10-06T16:54:10Z</time></trkpt>
<trkpt lat="24.552701" lon="107.843517">
<time>2016-10-06T16:54:11Z</time></trkpt>
<trkpt lat="24.552631" lon="107.843517">
<time>2016-10-06T16:54:12Z</time></trkpt>
<trkpt lat="24.552581" lon="107.843527">
<time>2016-10-06T16:54:13Z</time></trkpt>
<trkpt lat="24.552531" lon="107.843547">
<time>2016-10-06T16:54:14Z</time></trkpt>
<trkpt lat="24.552231" lon="107.843668">
<time>2016-10-06T16:54:15Z</time></trkpt>
<trkpt lat="24.552062" lon="107.843738">
<time>2016-10-06T16:54:16Z</time></trkpt>
<trkpt lat="24.551972" lon="107.843768">
<time>2016-10-06T16:54:17Z</time></trkpt>
<trkpt lat="24.551882" lon="107.843788">
<time>2016-10-06T16:54:18Z</time></trkpt>
<trkpt lat="24.551812" lon="107.843788">
<time>2016-10-06T16:54:19Z</time></trkpt>
<trkpt lat="24.551752" lon="107.843788">
<time>2016-10-06T16:54:20Z</time></trkpt>
<trkpt lat="24.551692" lon="107.843778">
<time>2016-10-06T16:54:21Z</time></trkpt>
<trkpt lat="24.551612" lon="107.843758">
<time>2016-10-06T16:54:22Z</time></trkpt>
<trkpt lat="24.551551" lon="107.843718">
<time>2016-10-06T16:54:23Z</time></trkpt>
<trkpt lat="24.551491" lon="107.843668">
<time>2016-10-06T16:54:24Z</time></trkpt>
<trkpt lat="24.551441" lon="107.843608">
<time>2016-10-06T16:54:25Z</time></trkpt>
<trkpt lat="24.551401" lon="107.843547">
<time>2016-10-06T16:54:26Z</time></trkpt>
<trkpt lat="24.551361" lon="107.843487">
<time>2016-10-06T16:54:27Z</time></trkpt>
<trkpt lat="24.551331" lon="107.843407">
<time>2016-10-06T16:54:28Z</time></trkpt>
<trkpt lat="24.551311" lon="107.843337">
<time>2016-10-06T16:54:29Z</time></trkpt>
<trkpt lat="24.551301" lon="107.843257">
<time>2016-10-06T16:54:30Z</time></trkpt>
<trkpt lat="24.551301" lon="107.843217">
<time>2016-10-06T16:54:31Z</time></trkpt>
<trkpt lat="24.5513" lon="107.843157">
<time>2016-10-06T16:54:32Z</time></trkpt>
<trkpt lat="24.55132" lon="107.843086">
<time>2016-10-06T16:54:33Z</time></trkpt>
<trkpt lat="24.55134" lon="107.843016">
<time>2016-10-06T16:54:34Z</time></trkpt>
<trkpt lat="24.55137" lon="107.842956">
<time>2016-10-06T16:54:35Z</time></trkpt>
<trkpt lat="24.5514" lon="107.842896">
<time>2016-10-06T16:54:36Z</time></trkpt>
<trkpt lat="24.55141" lon="107.842886">
<time>2016-10-06T16:54:37Z</time></trkpt>
<trkpt lat="24.55147" lon="107.842816">
<time>2016-10-06T16:54:38Z</time></trkpt>
<trkpt lat="24.55154" lon="107.842756">
<time>2016-10-06T16:54:39Z</time></trkpt>
<trkpt lat="24.55159" lon="107.842716">
<time>2016-10-06T16:54:40Z</time></trkpt>
<trkpt lat="24.55166" lon="107.842686">
<time>2016-10-06T16:54:41Z</time></trkpt>
<trkpt lat="24.55174" lon="107.842655">
<time>2016-10-06T16:54:42Z</time></trkpt>
<trkpt lat="24.55183" lon="107.842635">
<time>2016-10-06T16:54:43Z</time></trkpt>
<trkpt lat="24.55192" lon="107.842635">
<time>2016-10-06T16:54:44Z</time></trkpt>
<trkpt lat="24.55204" lon="107.842645">
<time>2016-10-06T16:54:45Z</time></trkpt>
<trkpt lat="24.55237" lon="107.842696">
<time>2016-10-06T16:54:46Z</time></trkpt>
<trkpt lat="24.55254" lon="107.842716">
<time>2016-10-06T16:54:47Z</time></trkpt>
<trkpt lat="24.55268" lon="107.842736">
<time>2016-10-06T16:54:48Z</time></trkpt>
<trkpt lat="24.55281" lon="107.842746">
<time>2016-10-06T16:54:49Z</time></trkpt>
<trkpt lat="24.55292" lon="107.842736">
<time>2016-10-06T16:54:50Z</time></trkpt>
<trkpt lat="24.55301" lon="107.842736">
<time>2016-10-06T16:54:51Z</time></trkpt>
<trkpt lat="24.55318" lon="107.842716">
<time>2016-10-06T16:54:52Z</time></trkpt>
<trkpt lat="24.55347" lon="107.842675">
<time>2016-10-06T16:54:53Z</time></trkpt>
<trkpt lat="24.55369" lon="107.842645">
<time>2016-10-06T16:54:54Z</time></trkpt>
<trkpt lat="24.55383" lon="107.842615">
<time>2016-10-06T16:54:55Z</time></trkpt>
<trkpt lat="24.55397" lon="107.842575">
<time>2016-10-06T16:54:56Z</time></trkpt>
<trkpt lat="24.55403" lon="107.842555">
<time>2016-10-06T16:54:57Z</time></trkpt>
<trkpt lat="24.55416" lon="107.842505">
<time>2016-10-06T16:54:58Z</time></trkpt>
<trkpt lat="24.554409" lon="107.842375">
<time>2016-10-06T16:54:59Z</time></trkpt>
<trkpt lat="24.554679" lon="107.842214">
<time>2016-10-06T16:55:00Z</time></trkpt>
<trkpt lat="24.554879" lon="107.842094">
<time>2016-10-06T16:55:01Z</time></trkpt>
<trkpt lat="24.554969" lon="107.842044">
<time>2016-10-06T16:55:02Z</time></trkpt>
<trkpt lat="24.555089" lon="107.841994">
<time>2016-10-06T16:55:03Z</time></trkpt>
<trkpt lat="24.555189" lon="107.841954">
<time>2016-10-06T16:55:04Z</time></trkpt>
<trkpt lat="24.555319" lon="107.841924">
<time>2016-10-06T16:55:05Z</time></trkpt>
<trkpt lat="24.555479" lon="107.841904">
<time>2016-10-06T16:55:06Z</time></trkpt>
<trkpt lat="24.555679" lon="107.841904">
<time>2016-10-06T16:55:07Z</time></trkpt>
<trkpt lat="24.555969" lon="107.841914">
<time>2016-10-06T16:55:08Z</time></trkpt>
<trkpt lat="24.556339" lon="107.841934">
<time>2016-10-06T16:55:09Z</time></trkpt>
<trkpt lat="24.556479" lon="107.841944">
<time>2016-10-06T16:55:10Z</time></trkpt>
<trkpt lat="24.556639" lon="107.841924">
<time>2016-10-06T16:55:11Z</time></trkpt>
<trkpt lat="24.556709" lon="107.841914">
<time>2016-10-06T16:55:12Z</time></trkpt>
<trkpt lat="24.556789" lon="107.841884">
<time>2016-10-06T16:55:13Z</time></trkpt>
<trkpt lat="24.556859" lon="107.841843">
<time>2016-10-06T16:55:14Z</time></trkpt>
<trkpt lat="24.556919" lon="107.841803">
<time>2016-10-06T16:55:15Z</time></trkpt>
<trkpt lat="24.556979" lon="107.841753">
<time>2016-10-06T16:55:16Z</time></trkpt>
<trkpt lat="24.557028" lon="107.841693">
<time>2016-10-06T16:55:17Z</time></trkpt>
<trkpt lat="24.557058" lon="107.841643">
<time>2016-10-06T16:55:18Z</time></trkpt>
<trkpt lat="24.557098" lon="107.841563">
<time>2016-10-06T16:55:19Z</time></trkpt>
<trkpt lat="24.557158" lon="107.841412">
<time>2016-10-06T16:55:20Z</time></trkpt>
<trkpt lat="24.557238" lon="107.841162">
<time>2016-10-06T16:55:21Z</time></trkpt>
<trkpt lat="24.557347" lon="107.840721">
<time>2016-10-06T16:55:22Z</time></trkpt>
<trkpt lat="24.557466" lon="107.840049">
<time>2016-10-06T16:55:23Z</time></trkpt>
<trkpt lat="24.557495" lon="107.839829">
<time>2016-10-06T16:55:24Z</time></trkpt>
<trkpt lat="24.557513" lon="107.838867">
<time>2016-10-06T16:55:25Z</time></trkpt>
<trkpt lat="24.557513" lon="107.838747">
<time>2016-10-06T16:55:26Z</time></trkpt>
<trkpt lat="24.557503" lon="107.838626">
<time>2016-10-06T16:55:27Z</time></trkpt>
<trkpt lat="24.557493" lon="107.838526">
<time>2016-10-06T16:55:28Z</time></trkpt>
<trkpt lat="24.557483" lon="107.838426">
<time>2016-10-06T16:55:29Z</time></trkpt>
<trkpt lat="24.557452" lon="107.838286">
<time>2016-10-06T16:55:30Z</time></trkpt>
<trkpt lat="24.557402" lon="107.838095">
<time>2016-10-06T16:55:31Z</time></trkpt>
<trkpt lat="24.557231" lon="107.837343">
<time>2016-10-06T16:55:32Z</time></trkpt>
<trkpt lat="24.55717" lon="107.837063">
<time>2016-10-06T16:55:33Z</time></trkpt>
<trkpt lat="24.55715" lon="107.836922">
<time>2016-10-06T16:55:34Z</time></trkpt>
<trkpt lat="24.55714" lon="107.836772">
<time>2016-10-06T16:55:35Z</time></trkpt>
<trkpt lat="24.557129" lon="107.836612">
<time>2016-10-06T16:55:36Z</time></trkpt>
<trkpt lat="24.557169" lon="107.836271">
<time>2016-10-06T16:55:37Z</time></trkpt>
<trkpt lat="24.557208" lon="107.836091">
<time>2016-10-06T16:55:38Z</time></trkpt>
<trkpt lat="24.557268" lon="107.83586">
<time>2016-10-06T16:55:39Z</time></trkpt>
<trkpt lat="24.557368" lon="107.83566">
<time>2016-10-06T16:55:40Z</time></trkpt>
<trkpt lat="24.557547" lon="107.835329">
<time>2016-10-06T16:55:41Z</time></trkpt>
<trkpt lat="24.557717" lon="107.835128">
<time>2016-10-06T16:55:42Z</time></trkpt>
<trkpt lat="24.557896" lon="107.834948">
<time>2016-10-06T16:55:43Z</time></trkpt>
<trkpt lat="24.558336" lon="107.834567">
<time>2016-10-06T16:55:44Z</time></trkpt>
<trkpt lat="24.558465" lon="107.834437">
<time>2016-10-06T16:55:45Z</time></trkpt>
<trkpt lat="24.558515" lon="107.834367">
<time>2016-10-06T16:55:46Z</time></trkpt>
<trkpt lat="24.558565" lon="107.834286">
<time>2016-10-06T16:55:47Z</time></trkpt>
<trkpt lat="24.558615" lon="107.834196">
<time>2016-10-06T16:55:48Z</time></trkpt>
<trkpt lat="24.558655" lon="107.834096">
<time>2016-10-06T16:55:49Z</time></trkpt>
<trkpt lat="24.558695" lon="107.833976">
<time>2016-10-06T16:55:50Z</time></trkpt>
<trkpt lat="24.558704" lon="107.833876">
<time>2016-10-06T16:55:51Z</time></trkpt>
<trkpt lat="24.558714" lon="107.833785">
<time>2016-10-06T16:55:52Z</time></trkpt>
<trkpt lat="24.558704" lon="107.833675">
<time>2016-10-06T16:55:53Z</time></trkpt>
<trkpt lat="24.558694" lon="107.833555">
<time>2016-10-06T16:55:54Z</time></trkpt>
<trkpt lat="24.558684" lon="107.833455">
<time>2016-10-06T16:55:55Z</time></trkpt>
<trkpt lat="24.558663" lon="107.833334">
<time>2016-10-06T16:55:56Z</time></trkpt>
<trkpt lat="24.558643" lon="107.833234">
<time>2016-10-06T16:55:57Z</time></trkpt>
<trkpt lat="24.558613" lon="107.833094">
<time>2016-10-06T16:55:58Z</time></trkpt>
<trkpt lat="24.558563" lon="107.832923">
<time>2016-10-06T16:55:59Z</time></trkpt>
<trkpt lat="24.558442" lon="107.832633">
<time>2016-10-06T16:56:00Z</time></trkpt>
<trkpt lat="24.558402" lon="107.832553">
<time>2016-10-06T16:56:01Z</time></trkpt>
<trkpt lat="24.558352" lon="107.832462">
<time>2016-10-06T16:56:02Z</time></trkpt>
<trkpt lat="24.558272" lon="107.832352">
<time>2016-10-06T16:56:03Z</time></trkpt>
<trkpt lat="24.558141" lon="107.832202">
<time>2016-10-06T16:56:04Z</time></trkpt>
<trkpt lat="24.558031" lon="107.832112">
<time>2016-10-06T16:56:05Z</time></trkpt>
<trkpt lat="24.557921" lon="107.832021">
<time>2016-10-06T16:56:06Z</time></trkpt>
<trkpt lat="24.557821" lon="107.831961">
<time>2016-10-06T16:56:07Z</time></trkpt>
<trkpt lat="24.557651" lon="107.831871">
<time>2016-10-06T16:56:08Z</time></trkpt>
<trkpt lat="24.557581" lon="107.831841">
<time>2016-10-06T16:56:09Z</time></trkpt>
<trkpt lat="24.55742" lon="107.831771">
<time>2016-10-06T16:56:10Z</time></trkpt>
<trkpt lat="24.55732" lon="107.831731">
<time>2016-10-06T16:56:11Z</time></trkpt>
<trkpt lat="24.55719" lon="107.831661">
<time>2016-10-06T16:56:12Z</time></trkpt>
<trkpt lat="24.5571" lon="107.83161">
<time>2016-10-06T16:56:13Z</time></trkpt>
<trkpt lat="24.55704" lon="107.83156">
<time>2016-10-06T16:56:14Z</time></trkpt>
<trkpt lat="24.55698" lon="107.83151">
<time>2016-10-06T16:56:15Z</time></trkpt>
<trkpt lat="24.55692" lon="107.83143">
<time>2016-10-06T16:56:16Z</time></trkpt>
<trkpt lat="24.55688" lon="107.83136">
<time>2016-10-06T16:56:17Z</time></trkpt>
<trkpt lat="24.556849" lon="107.83129">
<time>2016-10-06T16:56:18Z</time></trkpt>
<trkpt lat="24.556829" lon="107.83119">
<time>2016-10-06T16:56:19Z</time></trkpt>
<trkpt lat="24.556819" lon="107.831089">
<time>2016-10-06T16:56:20Z</time></trkpt>
<trkpt lat="24.556809" lon="107.831009">
<time>2016-10-06T16:56:21Z</time></trkpt>
<trkpt lat="24.556819" lon="107.830919">
<time>2016-10-06T16:56:22Z</time></trkpt>
<trkpt lat="24.556839" lon="107.830839">
<time>2016-10-06T16:56:23Z</time></trkpt>
<trkpt lat="24.556869" lon="107.830759">
<time>2016-10-06T16:56:24Z</time></trkpt>
<trkpt lat="24.556898" lon="107.830678">
<time>2016-10-06T16:56:25Z</time></trkpt>
<trkpt lat="24.557018" lon="107.830428">
<time>2016-10-06T16:56:26Z</time></trkpt>
<trkpt lat="24.557347" lon="107.829846">
<time>2016-10-06T16:56:27Z</time></trkpt>
<trkpt lat="24.557536" lon="107.829486">
<time>2016-10-06T16:56:28Z</time></trkpt>
<trkpt lat="24.557606" lon="107.829295">
<time>2016-10-06T16:56:29Z</time></trkpt>
<trkpt lat="24.557665" lon="107.829095">
<time>2016-10-06T16:56:30Z</time></trkpt>
<trkpt lat="24.557705" lon="107.828924">
<time>2016-10-06T16:56:31Z</time></trkpt>
<trkpt lat="24.557725" lon="107.828784">
<time>2016-10-06T16:56:32Z</time></trkpt>
<trkpt lat="24.557745" lon="107.828654">
<time>2016-10-06T16:56:33Z</time></trkpt>
<trkpt lat="24.557754" lon="107.828543">
<time>2016-10-06T16:56:34Z</time></trkpt>
<trkpt lat="24.557754" lon="107.828423">
<time>2016-10-06T16:56:35Z</time></trkpt>
<trkpt lat="24.557764" lon="107.828293">
<time>2016-10-06T16:56:36Z</time></trkpt>
<trkpt lat="24.557754" lon="107.828183">
<time>2016-10-06T16:56:37Z</time></trkpt>
<trkpt lat="24.557743" lon="107.828032">
<time>2016-10-06T16:56:38Z</time></trkpt>
<trkpt lat="24.557723" lon="107.827902">
<time>2016-10-06T16:56:39Z</time></trkpt>
<trkpt lat="24.557693" lon="107.827742">
<time>2016-10-06T16:56:40Z</time></trkpt>
<trkpt lat="24.557592" lon="107.827331">
<time>2016-10-06T16:56:41Z</time></trkpt>
<trkpt lat="24.557461" lon="107.826799">
<time>2016-10-06T16:56:42Z</time></trkpt>
<trkpt lat="24.557431" lon="107.826619">
<time>2016-10-06T16:56:43Z</time></trkpt>
<trkpt lat="24.557421" lon="107.826539">
<time>2016-10-06T16:56:44Z</time></trkpt>
<trkpt lat="24.55741" lon="107.826439">
<time>2016-10-06T16:56:45Z</time></trkpt>
<trkpt lat="24.55742" lon="107.826348">
<time>2016-10-06T16:56:46Z</time></trkpt>
<trkpt lat="24.55743" lon="107.826268">
<time>2016-10-06T16:56:47Z</time></trkpt>
<trkpt lat="24.55746" lon="107.826188">
<time>2016-10-06T16:56:48Z</time></trkpt>
<trkpt lat="24.55749" lon="107.826118">
<time>2016-10-06T16:56:49Z</time></trkpt>
<trkpt lat="24.55754" lon="107.826048">
<time>2016-10-06T16:56:50Z</time></trkpt>
<trkpt lat="24.55759" lon="107.825988">
<time>2016-10-06T16:56:51Z</time></trkpt>
<trkpt lat="24.55764" lon="107.825947">
<time>2016-10-06T16:56:52Z</time></trkpt>
<trkpt lat="24.557709" lon="107.825907">
<time>2016-10-06T16:56:53Z</time></trkpt>
<trkpt lat="24.557739" lon="107.825887">
<time>2016-10-06T16:56:54Z</time></trkpt>
<trkpt lat="24.557779" lon="107.825867">
<time>2016-10-06T16:56:55Z</time></trkpt>
<trkpt lat="24.557869" lon="107.825837">
<time>2016-10-06T16:56:56Z</time></trkpt>
<trkpt lat="24.557949" lon="107.825817">
<time>2016-10-06T16:56:57Z</time></trkpt>
<trkpt lat="24.558089" lon="107.825797">
<time>2016-10-06T16:56:58Z</time></trkpt>
<trkpt lat="24.558319" lon="107.825777">
<time>2016-10-06T16:56:59Z</time></trkpt>
<trkpt lat="24.558909" lon="107.825727">
<time>2016-10-06T16:57:00Z</time></trkpt>
<trkpt lat="24.559119" lon="107.825697">
<time>2016-10-06T16:57:01Z</time></trkpt>
<trkpt lat="24.559259" lon="107.825657">
<time>2016-10-06T16:57:02Z</time></trkpt>
<trkpt lat="24.559369" lon="107.825627">
<time>2016-10-06T16:57:03Z</time></trkpt>
<trkpt lat="24.559469" lon="107.825576">
<time>2016-10-06T16:57:04Z</time></trkpt>
<trkpt lat="24.559599" lon="107.825506">
<time>2016-10-06T16:57:05Z</time></trkpt>
<trkpt lat="24.559779" lon="107.825386">
<time>2016-10-06T16:57:06Z</time></trkpt>
<trkpt lat="24.560208" lon="107.825025">
<time>2016-10-06T16:57:07Z</time></trkpt>
<trkpt lat="24.560428" lon="107.824845">
<time>2016-10-06T16:57:08Z</time></trkpt>
<trkpt lat="24.560588" lon="107.824734">
<time>2016-10-06T16:57:09Z</time></trkpt>
<trkpt lat="24.560717" lon="107.824654">
<time>2016-10-06T16:57:10Z</time></trkpt>
<trkpt lat="24.560837" lon="107.824604">
<time>2016-10-06T16:57:11Z</time></trkpt>
<trkpt lat="24.560957" lon="107.824564">
<time>2016-10-06T16:57:12Z</time></trkpt>
<trkpt lat="24.561067" lon="107.824544">
<time>2016-10-06T16:57:13Z</time></trkpt>
<trkpt lat="24.561257" lon="107.824534">
<time>2016-10-06T16:57:14Z</time></trkpt>
<trkpt lat="24.561417" lon="107.824524">
<time>2016-10-06T16:57:15Z</time></trkpt>
<trkpt lat="24.561677" lon="107.824514">
<time>2016-10-06T16:57:16Z</time></trkpt>
<trkpt lat="24.561827" lon="107.824494">
<time>2016-10-06T16:57:17Z</time></trkpt>
<trkpt lat="24.562007" lon="107.824454">
<time>2016-10-06T16:57:18Z</time></trkpt>
<trkpt lat="24.562247" lon="107.824384">
<time>2016-10-06T16:57:19Z</time></trkpt>
<trkpt lat="24.562457" lon="107.824303">
<time>2016-10-06T16:57:20Z</time></trkpt>
<trkpt lat="24.562737" lon="107.824183">
<time>2016-10-06T16:57:21Z</time></trkpt>
<trkpt lat="24.563216" lon="107.823942">
<time>2016-10-06T16:57:22Z</time></trkpt>
<trkpt lat="24.563436" lon="107.823812">
<time>2016-10-06T16:57:23Z</time></trkpt>
<trkpt lat="24.564185" lon="107.823281">
<time>2016-10-06T16:57:24Z</time></trkpt>
<trkpt lat="24.564465" lon="107.82311">
<time>2016-10-06T16:57:25Z</time></trkpt>
<trkpt lat="24.564665" lon="107.82299">
<time>2016-10-06T16:57:26Z</time></trkpt>
<trkpt lat="24.564874" lon="107.8229">
<time>2016-10-06T16:57:27Z</time></trkpt>
<trkpt lat="24.565134" lon="107.82281">
<time>2016-10-06T16:57:28Z</time></trkpt>
<trkpt lat="24.566134" lon="107.822509">
<time>2016-10-06T16:57:29Z</time></trkpt>
<trkpt lat="24.567203" lon="107.822178">
<time>2016-10-06T16:57:30Z</time></trkpt>
<trkpt lat="24.567573" lon="107.822068">
<time>2016-10-06T16:57:31Z</time></trkpt>
<trkpt lat="24.567803" lon="107.822018">
<time>2016-10-06T16:57:32Z</time></trkpt>
<trkpt lat="24.567983" lon="107.821988">
<time>2016-10-06T16:57:33Z</time></trkpt>
<trkpt lat="24.568643" lon="107.821907">
<time>2016-10-06T16:57:34Z</time></trkpt>
<trkpt lat="24.568793" lon="107.821887">
<time>2016-10-06T16:57:35Z</time></trkpt>
<trkpt lat="24.568953" lon="107.821867">
<time>2016-10-06T16:57:36Z</time></trkpt>
<trkpt lat="24.569193" lon="107.821797">
<time>2016-10-06T16:57:37Z</time></trkpt>
<trkpt lat="24.569413" lon="107.821717">
<time>2016-10-06T16:57:38Z</time></trkpt>
<trkpt lat="24.569712" lon="107.821587">
<time>2016-10-06T16:57:39Z</time></trkpt>
<trkpt lat="24.569942" lon="107.821456">
<time>2016-10-06T16:57:40Z</time></trkpt>
<trkpt lat="24.570272" lon="107.821256">
<time>2016-10-06T16:57:41Z</time></trkpt>
<trkpt lat="24.570342" lon="107.821206">
<time>2016-10-06T16:57:42Z</time></trkpt>
<trkpt lat="24.570422" lon="107.821146">
<time>2016-10-06T16:57:43Z</time></trkpt>
<trkpt lat="24.570581" lon="107.820975">
<time>2016-10-06T16:57:44Z</time></trkpt>
<trkpt lat="24.570641" lon="107.820895">
<time>2016-10-06T16:57:45Z</time></trkpt>
<trkpt lat="24.570681" lon="107.820825">
<time>2016-10-06T16:57:46Z</time></trkpt>
<trkpt lat="24.570711" lon="107.820755">
<time>2016-10-06T16:57:47Z</time></trkpt>
<trkpt lat="24.570751" lon="107.820634">
<time>2016-10-06T16:57:48Z</time></trkpt>
<trkpt lat="24.570781" lon="107.820544">
<time>2016-10-06T16:57:49Z</time></trkpt>
<trkpt lat="24.5708" lon="107.820324">
<time>2016-10-06T16:57:50Z</time></trkpt>
<trkpt lat="24.5708" lon="107.820244">
<time>2016-10-06T16:57:51Z</time></trkpt>
<trkpt lat="24.5708" lon="107.820173">
<time>2016-10-06T16:57:52Z</time></trkpt>
<trkpt lat="24.57078" lon="107.820083">
<time>2016-10-06T16:57:53Z</time></trkpt>
<trkpt lat="24.570759" lon="107.819983">
<time>2016-10-06T16:57:54Z</time></trkpt>
<trkpt lat="24.570719" lon="107.819853">
<time>2016-10-06T16:57:55Z</time></trkpt>
<trkpt lat="24.570689" lon="107.819752">
<time>2016-10-06T16:57:56Z</time></trkpt>
<trkpt lat="24.570629" lon="107.819612">
<time>2016-10-06T16:57:57Z</time></trkpt>
<trkpt lat="24.570548" lon="107.819432">
<time>2016-10-06T16:57:58Z</time></trkpt>
<trkpt lat="24.570247" lon="107.81875">
<time>2016-10-06T16:57:59Z</time></trkpt>
<trkpt lat="24.570117" lon="107.81847">
<time>2016-10-06T16:58:00Z</time></trkpt>
<trkpt lat="24.570046" lon="107.818289">
<time>2016-10-06T16:58:01Z</time></trkpt>
<trkpt lat="24.570016" lon="107.818169">
<time>2016-10-06T16:58:02Z</time></trkpt>
<trkpt lat="24.569996" lon="107.818059">
<time>2016-10-06T16:58:03Z</time></trkpt>
<trkpt lat="24.569976" lon="107.817958">
<time>2016-10-06T16:58:04Z</time></trkpt>
<trkpt lat="24.569975" lon="107.817868">
<time>2016-10-06T16:58:05Z</time></trkpt>
<trkpt lat="24.569975" lon="107.817748">
<time>2016-10-06T16:58:06Z</time></trkpt>
<trkpt lat="24.569985" lon="107.817608">
<time>2016-10-06T16:58:07Z</time></trkpt>
<trkpt lat="24.570015" lon="107.817497">
<time>2016-10-06T16:58:08Z</time></trkpt>
<trkpt lat="24.570045" lon="107.817407">
<time>2016-10-06T16:58:09Z</time></trkpt>
<trkpt lat="24.570074" lon="107.817307">
<time>2016-10-06T16:58:10Z</time></trkpt>
<trkpt lat="24.570134" lon="107.817187">
<time>2016-10-06T16:58:11Z</time></trkpt>
<trkpt lat="24.570214" lon="107.817056">
<time>2016-10-06T16:58:12Z</time></trkpt>
<trkpt lat="24.570344" lon="107.816876">
<time>2016-10-06T16:58:13Z</time></trkpt>
<trkpt lat="24.570623" lon="107.816525">
<time>2016-10-06T16:58:14Z</time></trkpt>
<trkpt lat="24.570892" lon="107.816134">
<time>2016-10-06T16:58:15Z</time></trkpt>
<trkpt lat="24.571491" lon="107.815362">
<time>2016-10-06T16:58:16Z</time></trkpt>
<trkpt lat="24.571591" lon="107.815232">
<time>2016-10-06T16:58:17Z</time></trkpt>
<trkpt lat="24.5717" lon="107.815022">
<time>2016-10-06T16:58:18Z</time></trkpt>
<trkpt lat="24.57174" lon="107.814931">
<time>2016-10-06T16:58:19Z</time></trkpt>
<trkpt lat="24.57176" lon="107.814851">
<time>2016-10-06T16:58:20Z</time></trkpt>
<trkpt lat="24.57179" lon="107.814771">
<time>2016-10-06T16:58:21Z</time></trkpt>
<trkpt lat="24.5718" lon="107.814681">
<time>2016-10-06T16:58:22Z</time></trkpt>
<trkpt lat="24.571819" lon="107.814551">
<time>2016-10-06T16:58:23Z</time></trkpt>
<trkpt lat="24.571848" lon="107.813889">
<time>2016-10-06T16:58:24Z</time></trkpt>
<trkpt lat="24.571888" lon="107.813638">
<time>2016-10-06T16:58:25Z</time></trkpt>
<trkpt lat="24.571918" lon="107.813518">
<time>2016-10-06T16:58:26Z</time></trkpt>
<trkpt lat="24.571947" lon="107.813438">
<time>2016-10-06T16:58:27Z</time></trkpt>
<trkpt lat="24.571997" lon="107.813328">
<time>2016-10-06T16:58:28Z</time></trkpt>
<trkpt lat="24.572047" lon="107.813238">
<time>2016-10-06T16:58:29Z</time></trkpt>
<trkpt lat="24.572097" lon="107.813157">
<time>2016-10-06T16:58:30Z</time></trkpt>
<trkpt lat="24.572187" lon="107.813037">
<time>2016-10-06T16:58:31Z</time></trkpt>
<trkpt lat="24.572326" lon="107.812897">
<time>2016-10-06T16:58:32Z</time></trkpt>
<trkpt lat="24.572516" lon="107.812716">
<time>2016-10-06T16:58:33Z</time></trkpt>
<trkpt lat="24.573295" lon="107.812095">
<time>2016-10-06T16:58:34Z</time></trkpt>
<trkpt lat="24.573545" lon="107.811874">
<time>2016-10-06T16:58:35Z</time></trkpt>
<trkpt lat="24.573694" lon="107.811724">
<time>2016-10-06T16:58:36Z</time></trkpt>
<trkpt lat="24.573714" lon="107.811704">
<time>2016-10-06T16:58:37Z</time></trkpt>
<trkpt lat="24.573864" lon="107.811554">
<time>2016-10-06T16:58:38Z</time></trkpt>
<trkpt lat="24.573964" lon="107.811403">
<time>2016-10-06T16:58:39Z</time></trkpt>
<trkpt lat="24.574064" lon="107.811263">
<time>2016-10-06T16:58:40Z</time></trkpt>
<trkpt lat="24.574462" lon="107.810652">
<time>2016-10-06T16:58:41Z</time></trkpt>
<trkpt lat="24.574532" lon="107.810561">
<time>2016-10-06T16:58:42Z</time></trkpt>
<trkpt lat="24.574602" lon="107.810481">
<time>2016-10-06T16:58:43Z</time></trkpt>
<trkpt lat="24.574682" lon="107.810411">
<time>2016-10-06T16:58:44Z</time></trkpt>
<trkpt lat="24.574772" lon="107.810341">
<time>2016-10-06T16:58:45Z</time></trkpt>
<trkpt lat="24.574912" lon="107.810261">
<time>2016-10-06T16:58:46Z</time></trkpt>
<trkpt lat="24.575261" lon="107.81006">
<time>2016-10-06T16:58:47Z</time></trkpt>
<trkpt lat="24.575381" lon="107.80998">
<time>2016-10-06T16:58:48Z</time></trkpt>
<trkpt lat="24.575511" lon="107.80988">
<time>2016-10-06T16:58:49Z</time></trkpt>
<trkpt lat="24.575591" lon="107.80979">
<time>2016-10-06T16:58:50Z</time></trkpt>
<trkpt lat="24.575651" lon="107.80972">
<time>2016-10-06T16:58:51Z</time></trkpt>
<trkpt lat="24.575701" lon="107.809649">
<time>2016-10-06T16:58:52Z</time></trkpt>
<trkpt lat="24.575751" lon="107.809559">
<time>2016-10-06T16:58:53Z</time></trkpt>
<trkpt lat="24.57579" lon="107.809469">
<time>2016-10-06T16:58:54Z</time></trkpt>
<trkpt lat="24.57583" lon="107.809359">
<time>2016-10-06T16:58:55Z</time></trkpt>
<trkpt lat="24.57586" lon="107.809279">
<time>2016-10-06T16:58:56Z</time></trkpt>
<trkpt lat="24.57588" lon="107.809158">
<time>2016-10-06T16:58:57Z</time></trkpt>
<trkpt lat="24.57591" lon="107.809008">
<time>2016-10-06T16:58:58Z</time></trkpt>
<trkpt lat="24.576018" lon="107.808296">
<time>2016-10-06T16:58:59Z</time></trkpt>
<trkpt lat="24.576108" lon="107.807875">
<time>2016-10-06T16:59:00Z</time></trkpt>
<trkpt lat="24.576147" lon="107.807705">
<time>2016-10-06T16:59:01Z</time></trkpt>
<trkpt lat="24.576237" lon="107.807424">
<time>2016-10-06T16:59:02Z</time></trkpt>
<trkpt lat="24.576446" lon="107.806823">
<time>2016-10-06T16:59:03Z</time></trkpt>
<trkpt lat="24.576555" lon="107.806462">
<time>2016-10-06T16:59:04Z</time></trkpt>
<trkpt lat="24.576605" lon="107.806252">
<time>2016-10-06T16:59:05Z</time></trkpt>
<trkpt lat="24.576694" lon="107.805891">
<time>2016-10-06T16:59:06Z</time></trkpt>
<trkpt lat="24.576764" lon="107.80554">
<time>2016-10-06T16:59:07Z</time></trkpt>
<trkpt lat="24.577001" lon="107.804087">
<time>2016-10-06T16:59:08Z</time></trkpt>
<trkpt lat="24.577169" lon="107.803045">
<time>2016-10-06T16:59:09Z</time></trkpt>
<trkpt lat="24.577268" lon="107.802424">
<time>2016-10-06T16:59:10Z</time></trkpt>
<trkpt lat="24.577288" lon="107.802253">
<time>2016-10-06T16:59:11Z</time></trkpt>
<trkpt lat="24.577288" lon="107.802153">
<time>2016-10-06T16:59:12Z</time></trkpt>
<trkpt lat="24.577288" lon="107.802053">
<time>2016-10-06T16:59:13Z</time></trkpt>
<trkpt lat="24.577277" lon="107.801943">
<time>2016-10-06T16:59:14Z</time></trkpt>
<trkpt lat="24.577267" lon="107.801832">
<time>2016-10-06T16:59:15Z</time></trkpt>
<trkpt lat="24.577247" lon="107.801712">
<time>2016-10-06T16:59:16Z</time></trkpt>
<trkpt lat="24.577217" lon="107.801572">
<time>2016-10-06T16:59:17Z</time></trkpt>
<trkpt lat="24.577176" lon="107.801452">
<time>2016-10-06T16:59:18Z</time></trkpt>
<trkpt lat="24.577066" lon="107.801141">
<time>2016-10-06T16:59:19Z</time></trkpt>
<trkpt lat="24.577006" lon="107.801001">
<time>2016-10-06T16:59:20Z</time></trkpt>
<trkpt lat="24.576976" lon="107.800881">
<time>2016-10-06T16:59:21Z</time></trkpt>
<trkpt lat="24.576955" lon="107.80079">
<time>2016-10-06T16:59:22Z</time></trkpt>
<trkpt lat="24.576935" lon="107.80067">
<time>2016-10-06T16:59:23Z</time></trkpt>
<trkpt lat="24.576925" lon="107.80056">
<time>2016-10-06T16:59:24Z</time></trkpt>
<trkpt lat="24.576925" lon="107.80043">
<time>2016-10-06T16:59:25Z</time></trkpt>
<trkpt lat="24.576945" lon="107.800349">
<time>2016-10-06T16:59:26Z</time></trkpt>
<trkpt lat="24.576964" lon="107.800249">
<time>2016-10-06T16:59:27Z</time></trkpt>
<trkpt lat="24.576984" lon="107.800179">
<time>2016-10-06T16:59:28Z</time></trkpt>
<trkpt lat="24.577004" lon="107.800109">
<time>2016-10-06T16:59:29Z</time></trkpt>
<trkpt lat="24.577054" lon="107.799999">
<time>2016-10-06T16:59:30Z</time></trkpt>
<trkpt lat="24.577124" lon="107.799888">
<time>2016-10-06T16:59:31Z</time></trkpt>
<trkpt lat="24.577184" lon="107.799798">
<time>2016-10-06T16:59:32Z</time></trkpt>
<trkpt lat="24.577463" lon="107.799438">
<time>2016-10-06T16:59:33Z</time></trkpt>
<trkpt lat="24.577892" lon="107.798876">
<time>2016-10-06T16:59:34Z</time></trkpt>
<trkpt lat="24.578341" lon="107.798295">
<time>2016-10-06T16:59:35Z</time></trkpt>
<trkpt lat="24.578631" lon="107.797904">
<time>2016-10-06T16:59:36Z</time></trkpt>
<trkpt lat="24.578711" lon="107.797784">
<time>2016-10-06T16:59:37Z</time></trkpt>
<trkpt lat="24.57877" lon="107.797694">
<time>2016-10-06T16:59:38Z</time></trkpt>
<trkpt lat="24.57886" lon="107.797524">
<time>2016-10-06T16:59:39Z</time></trkpt>
<trkpt lat="24.57891" lon="107.797383">
<time>2016-10-06T16:59:40Z</time></trkpt>
<trkpt lat="24.57897" lon="107.797233">
<time>2016-10-06T16:59:41Z</time></trkpt>
<trkpt lat="24.579029" lon="107.797023">
<time>2016-10-06T16:59:42Z</time></trkpt>
<trkpt lat="24.579089" lon="107.796692">
<time>2016-10-06T16:59:43Z</time></trkpt>
<trkpt lat="24.579158" lon="107.796371">
<time>2016-10-06T16:59:44Z</time></trkpt>
<trkpt lat="24.579198" lon="107.796191">
<time>2016-10-06T16:59:45Z</time></trkpt>
<trkpt lat="24.579238" lon="107.796021">
<time>2016-10-06T16:59:46Z</time></trkpt>
<trkpt lat="24.579347" lon="107.79571">
<time>2016-10-06T16:59:47Z</time></trkpt>
<trkpt lat="24.579526" lon="107.795239">
<time>2016-10-06T16:59:48Z</time></trkpt>
<trkpt lat="24.579616" lon="107.794999">
<time>2016-10-06T16:59:49Z</time></trkpt>
<trkpt lat="24.579646" lon="107.794898">
<time>2016-10-06T16:59:50Z</time></trkpt>
<trkpt lat="24.579656" lon="107.794838">
<time>2016-10-06T16:59:51Z</time></trkpt>
<trkpt lat="24.579676" lon="107.794738">
<time>2016-10-06T16:59:52Z</time></trkpt>
<trkpt lat="24.579676" lon="107.794658">
<time>2016-10-06T16:59:53Z</time></trkpt>
<trkpt lat="24.579675" lon="107.794548">
<time>2016-10-06T16:59:54Z</time></trkpt>
<trkpt lat="24.579665" lon="107.794478">
<time>2016-10-06T16:59:55Z</time></trkpt>
<trkpt lat="24.579655" lon="107.794397">
<time>2016-10-06T16:59:56Z</time></trkpt>
<trkpt lat="24.579625" lon="107.794207">
<time>2016-10-06T16:59:57Z</time></trkpt>
<trkpt lat="24.579444" lon="107.793335">
<time>2016-10-06T16:59:58Z</time></trkpt>
<trkpt lat="24.579323" lon="107.792744">
<time>2016-10-06T16:59:59Z</time></trkpt>
<trkpt lat="24.579282" lon="107.792614">
<time>2016-10-06T17:00:00Z</time></trkpt>
<trkpt lat="24.579242" lon="107.792474">
<time>2016-10-06T17:00:01Z</time></trkpt>
<trkpt lat="24.579192" lon="107.792314">
<time>2016-10-06T17:00:02Z</time></trkpt>
<trkpt lat="24.579122" lon="107.792153">
<time>2016-10-06T17:00:03Z</time></trkpt>
<trkpt lat="24.578881" lon="107.791602">
<time>2016-10-06T17:00:04Z</time></trkpt>
<trkpt lat="24.5787" lon="107.791232">
<time>2016-10-06T17:00:05Z</time></trkpt>
<trkpt lat="24.57863" lon="107.791061">
<time>2016-10-06T17:00:06Z</time></trkpt>
<trkpt lat="24.57854" lon="107.790901">
<time>2016-10-06T17:00:07Z</time></trkpt>
<trkpt lat="24.57844" lon="107.790771">
<time>2016-10-06T17:00:08Z</time></trkpt>
<trkpt lat="24.578279" lon="107.79057">
<time>2016-10-06T17:00:09Z</time></trkpt>
<trkpt lat="24.578149" lon="107.79043">
<time>2016-10-06T17:00:10Z</time></trkpt>
<trkpt lat="24.577789" lon="107.79012">
<time>2016-10-06T17:00:11Z</time></trkpt>
<trkpt lat="24.577168" lon="107.789589">
<time>2016-10-06T17:00:12Z</time></trkpt>
<trkpt lat="24.576968" lon="107.789418">
<time>2016-10-06T17:00:13Z</time></trkpt>
<trkpt lat="24.576847" lon="107.789308">
<time>2016-10-06T17:00:14Z</time></trkpt>
<trkpt lat="24.576727" lon="107.789178">
<time>2016-10-06T17:00:15Z</time></trkpt>
<trkpt lat="24.576637" lon="107.789048">
<time>2016-10-06T17:00:16Z</time></trkpt>
<trkpt lat="24.576577" lon="107.788968">
<time>2016-10-06T17:00:17Z</time></trkpt>
<trkpt lat="24.576527" lon="107.788877">
<time>2016-10-06T17:00:18Z</time></trkpt>
<trkpt lat="24.576446" lon="107.788717">
<time>2016-10-06T17:00:19Z</time></trkpt>
<trkpt lat="24.576316" lon="107.788437">
<time>2016-10-06T17:00:20Z</time></trkpt>
<trkpt lat="24.576246" lon="107.788296">
<time>2016-10-06T17:00:21Z</time></trkpt>
<trkpt lat="24.576196" lon="107.788196">
<time>2016-10-06T17:00:22Z</time></trkpt>
<trkpt lat="24.576126" lon="107.788106">
<time>2016-10-06T17:00:23Z</time></trkpt>
<trkpt lat="24.576085" lon="107.788056">
<time>2016-10-06T17:00:24Z</time></trkpt>
<trkpt lat="24.576025" lon="107.788006">
<time>2016-10-06T17:00:25Z</time></trkpt>
<trkpt lat="24.575945" lon="107.787956">
<time>2016-10-06T17:00:26Z</time></trkpt>
<trkpt lat="24.575885" lon="107.787916">
<time>2016-10-06T17:00:27Z</time></trkpt>
<trkpt lat="24.575815" lon="107.787876">
<time>2016-10-06T17:00:28Z</time></trkpt>
<trkpt lat="24.575755" lon="107.787856">
<time>2016-10-06T17:00:29Z</time></trkpt>
<trkpt lat="24.575655" lon="107.787826">
<time>2016-10-06T17:00:30Z</time></trkpt>
<trkpt lat="24.575535" lon="107.787796">
<time>2016-10-06T17:00:31Z</time></trkpt>
<trkpt lat="24.575425" lon="107.787776">
<time>2016-10-06T17:00:32Z</time></trkpt>
<trkpt lat="24.575305" lon="107.787776">
<time>2016-10-06T17:00:33Z</time></trkpt>
<trkpt lat="24.575135" lon="107.787786">
<time>2016-10-06T17:00:34Z</time></trkpt>
<trkpt lat="24.574955" lon="107.787836">
<time>2016-10-06T17:00:35Z</time></trkpt>
<trkpt lat="24.574755" lon="107.787926">
<time>2016-10-06T17:00:36Z</time></trkpt>
<trkpt lat="24.574086" lon="107.788246">
<time>2016-10-06T17:00:37Z</time></trkpt>
<trkpt lat="24.573516" lon="107.788517">
<time>2016-10-06T17:00:38Z</time></trkpt>
<trkpt lat="24.573336" lon="107.788587">
<time>2016-10-06T17:00:39Z</time></trkpt>
<trkpt lat="24.573206" lon="107.788627">
<time>2016-10-06T17:00:40Z</time></trkpt>
<trkpt lat="24.573096" lon="107.788647">
<time>2016-10-06T17:00:41Z</time></trkpt>
<trkpt lat="24.573016" lon="107.788657">
<time>2016-10-06T17:00:42Z</time></trkpt>
<trkpt lat="24.572926" lon="107.788657">
<time>2016-10-06T17:00:43Z</time></trkpt>
<trkpt lat="24.572856" lon="107.788657">
<time>2016-10-06T17:00:44Z</time></trkpt>
<trkpt lat="24.572766" lon="107.788647">
<time>2016-10-06T17:00:45Z</time></trkpt>
<trkpt lat="24.572666" lon="107.788617">
<time>2016-10-06T17:00:46Z</time></trkpt>
<trkpt lat="24.572576" lon="107.788587">
<time>2016-10-06T17:00:47Z</time></trkpt>
<trkpt lat="24.572496" lon="107.788537">
<time>2016-10-06T17:00:48Z</time></trkpt>
<trkpt lat="24.572426" lon="107.788497">
<time>2016-10-06T17:00:49Z</time></trkpt>
<trkpt lat="24.572326" lon="107.788417">
<time>2016-10-06T17:00:50Z</time></trkpt>
<trkpt lat="24.572206" lon="107.788307">
<time>2016-10-06T17:00:51Z</time></trkpt>
<trkpt lat="24.572135" lon="107.788226">
<time>2016-10-06T17:00:52Z</time></trkpt>
<trkpt lat="24.571935" lon="107.787966">
<time>2016-10-06T17:00:53Z</time></trkpt>
<trkpt lat="24.571825" lon="107.787836">
<time>2016-10-06T17:00:54Z</time></trkpt>
<trkpt lat="24.571755" lon="107.787766">
<time>2016-10-06T17:00:55Z</time></trkpt>
<trkpt lat="24.571695" lon="107.787716">
<time>2016-10-06T17:00:56Z</time></trkpt>
<trkpt lat="24.571635" lon="107.787676">
<time>2016-10-06T17:00:57Z</time></trkpt>
<trkpt lat="24.571575" lon="107.787646">
<time>2016-10-06T17:00:58Z</time></trkpt>
<trkpt lat="24.571515" lon="107.787615">
<time>2016-10-06T17:00:59Z</time></trkpt>
<trkpt lat="24.571454" lon="107.787605">
<time>2016-10-06T17:01:00Z</time></trkpt>
<trkpt lat="24.571374" lon="107.787595">
<time>2016-10-06T17:01:01Z</time></trkpt>
<trkpt lat="24.571294" lon="107.787605">
<time>2016-10-06T17:01:02Z</time></trkpt>
<trkpt lat="24.571234" lon="107.787615">
<time>2016-10-06T17:01:03Z</time></trkpt>
<trkpt lat="24.571105" lon="107.787656">
<time>2016-10-06T17:01:04Z</time></trkpt>
<trkpt lat="24.570665" lon="107.787886">
<time>2016-10-06T17:01:05Z</time></trkpt>
<trkpt lat="24.570465" lon="107.787986">
<time>2016-10-06T17:01:06Z</time></trkpt>
<trkpt lat="24.570365" lon="107.788026">
<time>2016-10-06T17:01:07Z</time></trkpt>
<trkpt lat="24.570295" lon="107.788056">
<time>2016-10-06T17:01:08Z</time></trkpt>
<trkpt lat="24.570235" lon="107.788066">
<time>2016-10-06T17:01:09Z</time></trkpt>
<trkpt lat="24.570175" lon="107.788076">
<time>2016-10-06T17:01:10Z</time></trkpt>
<trkpt lat="24.570115" lon="107.788076">
<time>2016-10-06T17:01:11Z</time></trkpt>
<trkpt lat="24.570055" lon="107.788076">
<time>2016-10-06T17:01:12Z</time></trkpt>
<trkpt lat="24.570005" lon="107.788066">
<time>2016-10-06T17:01:13Z</time></trkpt>
<trkpt lat="24.569975" lon="107.788056">
<time>2016-10-06T17:01:14Z</time></trkpt>
<trkpt lat="24.569925" lon="107.788036">
<time>2016-10-06T17:01:15Z</time></trkpt>
<trkpt lat="24.569875" lon="107.788016">
<time>2016-10-06T17:01:16Z</time></trkpt>
<trkpt lat="24.569825" lon="107.787976">
<time>2016-10-06T17:01:17Z</time></trkpt>
<trkpt lat="24.569765" lon="107.787926">
<time>2016-10-06T17:01:18Z</time></trkpt>
<trkpt lat="24.569725" lon="107.787886">
<time>2016-10-06T17:01:19Z</time></trkpt>
<trkpt lat="24.569675" lon="107.787826">
<time>2016-10-06T17:01:20Z</time></trkpt>
<trkpt lat="24.569635" lon="107.787756">
<time>2016-10-06T17:01:21Z</time></trkpt>
<trkpt lat="24.569614" lon="107.787706">
<time>2016-10-06T17:01:22Z</time></trkpt>
<trkpt lat="24.569584" lon="107.787626">
<time>2016-10-06T17:01:23Z</time></trkpt>
<trkpt lat="24.569554" lon="107.787535">
<time>2016-10-06T17:01:24Z</time></trkpt>
<trkpt lat="24.569524" lon="107.787455">
<time>2016-10-06T17:01:25Z</time></trkpt>
<trkpt lat="24.569494" lon="107.787315">
<time>2016-10-06T17:01:26Z</time></trkpt>
<trkpt lat="24.569444" lon="107.787105">
<time>2016-10-06T17:01:27Z</time></trkpt>
<trkpt lat="24.569413" lon="107.786994">
<time>2016-10-06T17:01:28Z</time></trkpt>
<trkpt lat="24.569393" lon="107.786914">
<time>2016-10-06T17:01:29Z</time></trkpt>
<trkpt lat="24.569353" lon="107.786824">
<time>2016-10-06T17:01:30Z</time></trkpt>
<trkpt lat="24.569313" lon="107.786744">
<time>2016-10-06T17:01:31Z</time></trkpt>
<trkpt lat="24.569273" lon="107.786674">
<time>2016-10-06T17:01:32Z</time></trkpt>
<trkpt lat="24.569223" lon="107.786584">
<time>2016-10-06T17:01:33Z</time></trkpt>
<trkpt lat="24.569183" lon="107.786544">
<time>2016-10-06T17:01:34Z</time></trkpt>
<trkpt lat="24.569123" lon="107.786474">
<time>2016-10-06T17:01:35Z</time></trkpt>
<trkpt lat="24.569073" lon="107.786424">
<time>2016-10-06T17:01:36Z</time></trkpt>
<trkpt lat="24.569023" lon="107.786383">
<time>2016-10-06T17:01:37Z</time></trkpt>
<trkpt lat="24.568963" lon="107.786333">
<time>2016-10-06T17:01:38Z</time></trkpt>
<trkpt lat="24.568712" lon="107.786163">
<time>2016-10-06T17:01:39Z</time></trkpt>
<trkpt lat="24.568352" lon="107.785923">
<time>2016-10-06T17:01:40Z</time></trkpt>
<trkpt lat="24.568282" lon="107.785883">
<time>2016-10-06T17:01:41Z</time></trkpt>
<trkpt lat="24.568232" lon="107.785843">
<time>2016-10-06T17:01:42Z</time></trkpt>
<trkpt lat="24.568162" lon="107.785813">
<time>2016-10-06T17:01:43Z</time></trkpt>
<trkpt lat="24.568092" lon="107.785793">
<time>2016-10-06T17:01:44Z</time></trkpt>
<trkpt lat="24.568012" lon="107.785762">
<time>2016-10-06T17:01:45Z</time></trkpt>
<trkpt lat="24.567962" lon="107.785752">
<time>2016-10-06T17:01:46Z</time></trkpt>
<trkpt lat="24.567882" lon="107.785742">
<time>2016-10-06T17:01:47Z</time></trkpt>
<trkpt lat="24.567792" lon="107.785742">
<time>2016-10-06T17:01:48Z</time></trkpt>
<trkpt lat="24.567692" lon="107.785762">
<time>2016-10-06T17:01:49Z</time></trkpt>
<trkpt lat="24.567552" lon="107.785793">
<time>2016-10-06T17:01:50Z</time></trkpt>
<trkpt lat="24.567392" lon="107.785853">
<time>2016-10-06T17:01:51Z</time></trkpt>
<trkpt lat="24.567232" lon="107.785903">
<time>2016-10-06T17:01:52Z</time></trkpt>
<trkpt lat="24.567152" lon="107.785923">
<time>2016-10-06T17:01:53Z</time></trkpt>
<trkpt lat="24.567092" lon="107.785933">
<time>2016-10-06T17:01:54Z</time></trkpt>
<trkpt lat="24.567032" lon="107.785933">
<time>2016-10-06T17:01:55Z</time></trkpt>
<trkpt lat="24.566962" lon="107.785933">
<time>2016-10-06T17:01:56Z</time></trkpt>
<trkpt lat="24.566882" lon="107.785923">
<time>2016-10-06T17:01:57Z</time></trkpt>
<trkpt lat="24.566792" lon="107.785893">
<time>2016-10-06T17:01:58Z</time></trkpt>
<trkpt lat="24.566732" lon="107.785863">
<time>2016-10-06T17:01:59Z</time></trkpt>
<trkpt lat="24.566652" lon="107.785823">
<time>2016-10-06T17:02:00Z</time></trkpt>
<trkpt lat="24.566582" lon="107.785763">
<time>2016-10-06T17:02:01Z</time></trkpt>
<trkpt lat="24.566511" lon="107.785712">
<time>2016-10-06T17:02:02Z</time></trkpt>
<trkpt lat="24.566301" lon="107.785552">
<time>2016-10-06T17:02:03Z</time></trkpt>
<trkpt lat="24.566241" lon="107.785512">
<time>2016-10-06T17:02:04Z</time></trkpt>
<trkpt lat="24.566191" lon="107.785482">
<time>2016-10-06T17:02:05Z</time></trkpt>
<trkpt lat="24.566101" lon="107.785432">
<time>2016-10-06T17:02:06Z</time></trkpt>
<trkpt lat="24.566031" lon="107.785412">
<time>2016-10-06T17:02:07Z</time></trkpt>
<trkpt lat="24.565951" lon="107.785392">
<time>2016-10-06T17:02:08Z</time></trkpt>
<trkpt lat="24.565861" lon="107.785372">
<time>2016-10-06T17:02:09Z</time></trkpt>
<trkpt lat="24.565681" lon="107.785352">
<time>2016-10-06T17:02:10Z</time></trkpt>
<trkpt lat="24.565531" lon="107.785352">
<time>2016-10-06T17:02:11Z</time></trkpt>
<trkpt lat="24.565351" lon="107.785342">
<time>2016-10-06T17:02:12Z</time></trkpt>
<trkpt lat="24.565221" lon="107.785332">
<time>2016-10-06T17:02:13Z</time></trkpt>
<trkpt lat="24.565161" lon="107.785322">
<time>2016-10-06T17:02:14Z</time></trkpt>
<trkpt lat="24.565091" lon="107.785302">
<time>2016-10-06T17:02:15Z</time></trkpt>
<trkpt lat="24.565031" lon="107.785282">
<time>2016-10-06T17:02:16Z</time></trkpt>
<trkpt lat="24.564971" lon="107.785252">
<time>2016-10-06T17:02:17Z</time></trkpt>
<trkpt lat="24.564911" lon="107.785212">
<time>2016-10-06T17:02:18Z</time></trkpt>
<trkpt lat="24.564861" lon="107.785182">
<time>2016-10-06T17:02:19Z</time></trkpt>
<trkpt lat="24.564821" lon="107.785142">
<time>2016-10-06T17:02:20Z</time></trkpt>
<trkpt lat="24.56478" lon="107.785102">
<time>2016-10-06T17:02:21Z</time></trkpt>
<trkpt lat="24.56475" lon="107.785051">
<time>2016-10-06T17:02:22Z</time></trkpt>
<trkpt lat="24.56471" lon="107.785001">
<time>2016-10-06T17:02:23Z</time></trkpt>
<trkpt lat="24.56467" lon="107.784911">
<time>2016-10-06T17:02:24Z</time></trkpt>
<trkpt lat="24.56456" lon="107.784681">
<time>2016-10-06T17:02:25Z</time></trkpt>
<trkpt lat="24.56442" lon="107.78438">
<time>2016-10-06T17:02:26Z</time></trkpt>
<trkpt lat="24.564339" lon="107.78424">
<time>2016-10-06T17:02:27Z</time></trkpt>
<trkpt lat="24.564289" lon="107.78415">
<time>2016-10-06T17:02:28Z</time></trkpt>
<trkpt lat="24.564229" lon="107.78407">
<time>2016-10-06T17:02:29Z</time></trkpt>
<trkpt lat="24.564159" lon="107.78399">
<time>2016-10-06T17:02:30Z</time></trkpt>
<trkpt lat="24.564089" lon="107.78391">
<time>2016-10-06T17:02:31Z</time></trkpt>
<trkpt lat="24.563969" lon="107.783809">
<time>2016-10-06T17:02:32Z</time></trkpt>
<trkpt lat="24.563839" lon="107.783729">
<time>2016-10-06T17:02:33Z</time></trkpt>
<trkpt lat="24.563739" lon="107.783689">
<time>2016-10-06T17:02:34Z</time></trkpt>
<trkpt lat="24.563648" lon="107.783659">
<time>2016-10-06T17:02:35Z</time></trkpt>
<trkpt lat="24.563568" lon="107.783629">
<time>2016-10-06T17:02:36Z</time></trkpt>
<trkpt lat="24.563358" lon="107.783599">
<time>2016-10-06T17:02:37Z</time></trkpt>
<trkpt lat="24.563118" lon="107.783569">
<time>2016-10-06T17:02:38Z</time></trkpt>
<trkpt lat="24.563018" lon="107.783549">
<time>2016-10-06T17:02:39Z</time></trkpt>
<trkpt lat="24.562938" lon="107.783529">
<time>2016-10-06T17:02:40Z</time></trkpt>
<trkpt lat="24.562878" lon="107.783519">
<time>2016-10-06T17:02:41Z</time></trkpt>
<trkpt lat="24.562818" lon="107.783489">
<time>2016-10-06T17:02:42Z</time></trkpt>
<trkpt lat="24.562748" lon="107.783459">
<time>2016-10-06T17:02:43Z</time></trkpt>
<trkpt lat="24.562688" lon="107.783429">
<time>2016-10-06T17:02:44Z</time></trkpt>
<trkpt lat="24.562618" lon="107.783379">
<time>2016-10-06T17:02:45Z</time></trkpt>
<trkpt lat="24.562548" lon="107.783319">
<time>2016-10-06T17:02:46Z</time></trkpt>
<trkpt lat="24.562478" lon="107.783249">
<time>2016-10-06T17:02:47Z</time></trkpt>
<trkpt lat="24.562428" lon="107.783189">
<time>2016-10-06T17:02:48Z</time></trkpt>
<trkpt lat="24.562378" lon="107.783108">
<time>2016-10-06T17:02:49Z</time></trkpt>
<trkpt lat="24.562338" lon="107.783038">
<time>2016-10-06T17:02:50Z</time></trkpt>
<trkpt lat="24.562197" lon="107.782778">
<time>2016-10-06T17:02:51Z</time></trkpt>
<trkpt lat="24.562087" lon="107.782588">
<time>2016-10-06T17:02:52Z</time></trkpt>
<trkpt lat="24.562037" lon="107.782497">
<time>2016-10-06T17:02:53Z</time></trkpt>
<trkpt lat="24.561917" lon="107.782327">
<time>2016-10-06T17:02:54Z</time></trkpt>
<trkpt lat="24.561847" lon="107.782247">
<time>2016-10-06T17:02:55Z</time></trkpt>
<trkpt lat="24.561776" lon="107.782167">
<time>2016-10-06T17:02:56Z</time></trkpt>
<trkpt lat="24.561676" lon="107.782067">
<time>2016-10-06T17:02:57Z</time></trkpt>
<trkpt lat="24.561566" lon="107.781967">
<time>2016-10-06T17:02:58Z</time></trkpt>
<trkpt lat="24.561406" lon="107.781846">
<time>2016-10-06T17:02:59Z</time></trkpt>
<trkpt lat="24.561106" lon="107.781606">
<time>2016-10-06T17:03:00Z</time></trkpt>
<trkpt lat="24.560986" lon="107.781526">
<time>2016-10-06T17:03:01Z</time></trkpt>
<trkpt lat="24.560905" lon="107.781486">
<time>2016-10-06T17:03:02Z</time></trkpt>
<trkpt lat="24.560845" lon="107.781456">
<time>2016-10-06T17:03:03Z</time></trkpt>
<trkpt lat="24.560785" lon="107.781426">
<time>2016-10-06T17:03:04Z</time></trkpt>
<trkpt lat="24.560735" lon="107.781416">
<time>2016-10-06T17:03:05Z</time></trkpt>
<trkpt lat="24.560685" lon="107.781406">
<time>2016-10-06T17:03:06Z</time></trkpt>
<trkpt lat="24.560625" lon="107.781396">
<time>2016-10-06T17:03:07Z</time></trkpt>
<trkpt lat="24.560575" lon="107.781396">
<time>2016-10-06T17:03:08Z</time></trkpt>
<trkpt lat="24.560515" lon="107.781396">
<time>2016-10-06T17:03:09Z</time></trkpt>
<trkpt lat="24.560455" lon="107.781406">
<time>2016-10-06T17:03:10Z</time></trkpt>
<trkpt lat="24.560375" lon="107.781426">
<time>2016-10-06T17:03:11Z</time></trkpt>
<trkpt lat="24.560305" lon="107.781456">
<time>2016-10-06T17:03:12Z</time></trkpt>
<trkpt lat="24.560245" lon="107.781486">
<time>2016-10-06T17:03:13Z</time></trkpt>
<trkpt lat="24.560165" lon="107.781536">
<time>2016-10-06T17:03:14Z</time></trkpt>
<trkpt lat="24.559986" lon="107.781676">
<time>2016-10-06T17:03:15Z</time></trkpt>
<trkpt lat="24.559616" lon="107.781977">
<time>2016-10-06T17:03:16Z</time></trkpt>
<trkpt lat="24.559546" lon="107.782037">
<time>2016-10-06T17:03:17Z</time></trkpt>
<trkpt lat="24.559476" lon="107.782077">
<time>2016-10-06T17:03:18Z</time></trkpt>
<trkpt lat="24.559416" lon="107.782107">
<time>2016-10-06T17:03:19Z</time></trkpt>
<trkpt lat="24.559346" lon="107.782137">
<time>2016-10-06T17:03:20Z</time></trkpt>
<trkpt lat="24.559256" lon="107.782167">
<time>2016-10-06T17:03:21Z</time></trkpt>
<trkpt lat="24.559176" lon="107.782177">
<time>2016-10-06T17:03:22Z</time></trkpt>
<trkpt lat="24.559106" lon="107.782177">
<time>2016-10-06T17:03:23Z</time></trkpt>
<trkpt lat="24.559046" lon="107.782177">
<time>2016-10-06T17:03:24Z</time></trkpt>
<trkpt lat="24.558986" lon="107.782167">
<time>2016-10-06T17:03:25Z</time></trkpt>
<trkpt lat="24.558936" lon="107.782147">
<time>2016-10-06T17:03:26Z</time></trkpt>
<trkpt lat="24.558866" lon="107.782107">
<time>2016-10-06T17:03:27Z</time></trkpt>
<trkpt lat="24.558796" lon="107.782077">
<time>2016-10-06T17:03:28Z</time></trkpt>
<trkpt lat="24.558716" lon="107.782017">
<time>2016-10-06T17:03:29Z</time></trkpt>
<trkpt lat="24.558476" lon="107.781837">
<time>2016-10-06T17:03:30Z</time></trkpt>
<trkpt lat="24.557895" lon="107.781386">
<time>2016-10-06T17:03:31Z</time></trkpt>
<trkpt lat="24.557805" lon="107.781306">
<time>2016-10-06T17:03:32Z</time></trkpt>
<trkpt lat="24.557735" lon="107.781236">
<time>2016-10-06T17:03:33Z</time></trkpt>
<trkpt lat="24.557675" lon="107.781166">
<time>2016-10-06T17:03:34Z</time></trkpt>
<trkpt lat="24.557635" lon="107.781106">
<time>2016-10-06T17:03:35Z</time></trkpt>
<trkpt lat="24.557615" lon="107.781045">
<time>2016-10-06T17:03:36Z</time></trkpt>
<trkpt lat="24.557585" lon="107.780985">
<time>2016-10-06T17:03:37Z</time></trkpt>
<trkpt lat="24.557564" lon="107.780915">
<time>2016-10-06T17:03:38Z</time></trkpt>
<trkpt lat="24.557554" lon="107.780855">
<time>2016-10-06T17:03:39Z</time></trkpt>
<trkpt lat="24.557544" lon="107.780785">
<time>2016-10-06T17:03:40Z</time></trkpt>
<trkpt lat="24.557534" lon="107.780705">
<time>2016-10-06T17:03:41Z</time></trkpt>
<trkpt lat="24.557544" lon="107.780605">
<time>2016-10-06T17:03:42Z</time></trkpt>
<trkpt lat="24.557554" lon="107.780505">
<time>2016-10-06T17:03:43Z</time></trkpt>
<trkpt lat="24.557614" lon="107.780174">
<time>2016-10-06T17:03:44Z</time></trkpt>
<trkpt lat="24.557743" lon="107.779493">
<time>2016-10-06T17:03:45Z</time></trkpt>
<trkpt lat="24.557763" lon="107.779383">
<time>2016-10-06T17:03:46Z</time></trkpt>
<trkpt lat="24.557773" lon="107.779283">
<time>2016-10-06T17:03:47Z</time></trkpt>
<trkpt lat="24.557782" lon="107.779163">
<time>2016-10-06T17:03:48Z</time></trkpt>
<trkpt lat="24.557782" lon="107.779082">
<time>2016-10-06T17:03:49Z</time></trkpt>
<trkpt lat="24.557772" lon="107.778972">
<time>2016-10-06T17:03:50Z</time></trkpt>
<trkpt lat="24.557762" lon="107.778842">
<time>2016-10-06T17:03:51Z</time></trkpt>
<trkpt lat="24.557742" lon="107.778682">
<time>2016-10-06T17:03:52Z</time></trkpt>
<trkpt lat="24.557712" lon="107.778542">
<time>2016-10-06T17:03:53Z</time></trkpt>
<trkpt lat="24.557681" lon="107.778341">
<time>2016-10-06T17:03:54Z</time></trkpt>
<trkpt lat="24.557591" lon="107.777871">
<time>2016-10-06T17:03:55Z</time></trkpt>
<trkpt lat="24.557521" lon="107.77753">
<time>2016-10-06T17:03:56Z</time></trkpt>
<trkpt lat="24.5575" lon="107.77739">
<time>2016-10-06T17:03:57Z</time></trkpt>
<trkpt lat="24.55748" lon="107.77727">
<time>2016-10-06T17:03:58Z</time></trkpt>
<trkpt lat="24.55748" lon="107.77714">
<time>2016-10-06T17:03:59Z</time></trkpt>
<trkpt lat="24.55748" lon="107.77704">
<time>2016-10-06T17:04:00Z</time></trkpt>
<trkpt lat="24.5575" lon="107.776939">
<time>2016-10-06T17:04:01Z</time></trkpt>
<trkpt lat="24.55752" lon="107.776839">
<time>2016-10-06T17:04:02Z</time></trkpt>
<trkpt lat="24.55755" lon="107.776759">
<time>2016-10-06T17:04:03Z</time></trkpt>
<trkpt lat="24.55759" lon="107.776669">
<time>2016-10-06T17:04:04Z</time></trkpt>
<trkpt lat="24.557659" lon="107.776549">
<time>2016-10-06T17:04:05Z</time></trkpt>
<trkpt lat="24.557709" lon="107.776489">
<time>2016-10-06T17:04:06Z</time></trkpt>
<trkpt lat="24.557769" lon="107.776419">
<time>2016-10-06T17:04:07Z</time></trkpt>
<trkpt lat="24.557839" lon="107.776349">
<time>2016-10-06T17:04:08Z</time></trkpt>
<trkpt lat="24.558039" lon="107.776158">
<time>2016-10-06T17:04:09Z</time></trkpt>
<trkpt lat="24.558149" lon="107.776048">
<time>2016-10-06T17:04:10Z</time></trkpt>
<trkpt lat="24.558249" lon="107.775948">
<time>2016-10-06T17:04:11Z</time></trkpt>
<trkpt lat="24.558319" lon="107.775848">
<time>2016-10-06T17:04:12Z</time></trkpt>
<trkpt lat="24.558349" lon="107.775798">
<time>2016-10-06T17:04:13Z</time></trkpt>
<trkpt lat="24.558389" lon="107.775728">
<time>2016-10-06T17:04:14Z</time></trkpt>
<trkpt lat="24.558419" lon="107.775638">
<time>2016-10-06T17:04:15Z</time></trkpt>
<trkpt lat="24.558438" lon="107.775567">
<time>2016-10-06T17:04:16Z</time></trkpt>
<trkpt lat="24.558448" lon="107.775487">
<time>2016-10-06T17:04:17Z</time></trkpt>
<trkpt lat="24.558458" lon="107.775417">
<time>2016-10-06T17:04:18Z</time></trkpt>
<trkpt lat="24.558448" lon="107.775347">
<time>2016-10-06T17:04:19Z</time></trkpt>
<trkpt lat="24.558448" lon="107.775277">
<time>2016-10-06T17:04:20Z</time></trkpt>
<trkpt lat="24.558428" lon="107.775217">
<time>2016-10-06T17:04:21Z</time></trkpt>
<trkpt lat="24.558408" lon="107.775157">
<time>2016-10-06T17:04:22Z</time></trkpt>
<trkpt lat="24.558378" lon="107.775097">
<time>2016-10-06T17:04:23Z</time></trkpt>
<trkpt lat="24.558348" lon="107.775047">
<time>2016-10-06T17:04:24Z</time></trkpt>
<trkpt lat="24.558308" lon="107.774987">
<time>2016-10-06T17:04:25Z</time></trkpt>
<trkpt lat="24.558248" lon="107.774937">
<time>2016-10-06T17:04:26Z</time></trkpt>
<trkpt lat="24.558188" lon="107.774887">
<time>2016-10-06T17:04:27Z</time></trkpt>
<trkpt lat="24.558118" lon="107.774847">
<time>2016-10-06T17:04:28Z</time></trkpt>
<trkpt lat="24.558058" lon="107.774816">
<time>2016-10-06T17:04:29Z</time></trkpt>
<trkpt lat="24.557978" lon="107.774796">
<time>2016-10-06T17:04:30Z</time></trkpt>
<trkpt lat="24.557908" lon="107.774786">
<time>2016-10-06T17:04:31Z</time></trkpt>
<trkpt lat="24.557838" lon="107.774776">
<time>2016-10-06T17:04:32Z</time></trkpt>
<trkpt lat="24.557768" lon="107.774776">
<time>2016-10-06T17:04:33Z</time></trkpt>
<trkpt lat="24.557708" lon="107.774786">
<time>2016-10-06T17:04:34Z</time></trkpt>
<trkpt lat="24.557628" lon="107.774817">
<time>2016-10-06T17:04:35Z</time></trkpt>
<trkpt lat="24.557418" lon="107.774897">
<time>2016-10-06T17:04:36Z</time></trkpt>
<trkpt lat="24.557038" lon="107.775107">
<time>2016-10-06T17:04:37Z</time></trkpt>
<trkpt lat="24.556598" lon="107.775367">
<time>2016-10-06T17:04:38Z</time></trkpt>
<trkpt lat="24.556068" lon="107.775768">
<time>2016-10-06T17:04:39Z</time></trkpt>
<trkpt lat="24.555919" lon="107.775858">
<time>2016-10-06T17:04:40Z</time></trkpt>
<trkpt lat="24.555739" lon="107.775948">
<time>2016-10-06T17:04:41Z</time></trkpt>
<trkpt lat="24.555579" lon="107.776008">
<time>2016-10-06T17:04:42Z</time></trkpt>
<trkpt lat="24.555449" lon="107.776058">
<time>2016-10-06T17:04:43Z</time></trkpt>
<trkpt lat="24.554259" lon="107.776399">
<time>2016-10-06T17:04:44Z</time></trkpt>
<trkpt lat="24.554019" lon="107.776489">
<time>2016-10-06T17:04:45Z</time></trkpt>
<trkpt lat="24.553849" lon="107.776599">
<time>2016-10-06T17:04:46Z</time></trkpt>
<trkpt lat="24.553679" lon="107.776699">
<time>2016-10-06T17:04:47Z</time></trkpt>
<trkpt lat="24.553549" lon="107.776809">
<time>2016-10-06T17:04:48Z</time></trkpt>
<trkpt lat="24.553359" lon="107.77693">
<time>2016-10-06T17:04:49Z</time></trkpt>
<trkpt lat="24.55323" lon="107.77701">
<time>2016-10-06T17:04:50Z</time></trkpt>
<trkpt lat="24.55305" lon="107.77709">
<time>2016-10-06T17:04:51Z</time></trkpt>
<trkpt lat="24.55283" lon="107.77718">
<time>2016-10-06T17:04:52Z</time></trkpt>
<trkpt lat="24.55233" lon="107.77733">
<time>2016-10-06T17:04:53Z</time></trkpt>
<trkpt lat="24.55214" lon="107.77742">
<time>2016-10-06T17:04:54Z</time></trkpt>
<trkpt lat="24.55196" lon="107.777531">
<time>2016-10-06T17:04:55Z</time></trkpt>
<trkpt lat="24.55176" lon="107.777691">
<time>2016-10-06T17:04:56Z</time></trkpt>
<trkpt lat="24.5515" lon="107.777931">
<time>2016-10-06T17:04:57Z</time></trkpt>
<trkpt lat="24.55137" lon="107.778041">
<time>2016-10-06T17:04:58Z</time></trkpt>
<trkpt lat="24.551231" lon="107.778151">
<time>2016-10-06T17:04:59Z</time></trkpt>
<trkpt lat="24.551031" lon="107.778282">
<time>2016-10-06T17:05:00Z</time></trkpt>
<trkpt lat="24.550871" lon="107.778372">
<time>2016-10-06T17:05:01Z</time></trkpt>
<trkpt lat="24.550661" lon="107.778452">
<time>2016-10-06T17:05:02Z</time></trkpt>
<trkpt lat="24.550471" lon="107.778512">
<time>2016-10-06T17:05:03Z</time></trkpt>
<trkpt lat="24.550291" lon="107.778552">
<time>2016-10-06T17:05:04Z</time></trkpt>
<trkpt lat="24.549821" lon="107.778642">
<time>2016-10-06T17:05:05Z</time></trkpt>
<trkpt lat="24.549671" lon="107.778682">
<time>2016-10-06T17:05:06Z</time></trkpt>
<trkpt lat="24.549511" lon="107.778742">
<time>2016-10-06T17:05:07Z</time></trkpt>
<trkpt lat="24.549361" lon="107.778823">
<time>2016-10-06T17:05:08Z</time></trkpt>
<trkpt lat="24.549161" lon="107.778933">
<time>2016-10-06T17:05:09Z</time></trkpt>
<trkpt lat="24.548921" lon="107.779063">
<time>2016-10-06T17:05:10Z</time></trkpt>
<trkpt lat="24.548692" lon="107.779203">
<time>2016-10-06T17:05:11Z</time></trkpt>
<trkpt lat="24.548542" lon="107.779273">
<time>2016-10-06T17:05:12Z</time></trkpt>
<trkpt lat="24.548422" lon="107.779313">
<time>2016-10-06T17:05:13Z</time></trkpt>
<trkpt lat="24.548282" lon="107.779343">
<time>2016-10-06T17:05:14Z</time></trkpt>
<trkpt lat="24.547642" lon="107.779474">
<time>2016-10-06T17:05:15Z</time></trkpt>
<trkpt lat="24.547502" lon="107.779514">
<time>2016-10-06T17:05:16Z</time></trkpt>
<trkpt lat="24.547342" lon="107.779614">
<time>2016-10-06T17:05:17Z</time></trkpt>
<trkpt lat="24.547202" lon="107.779714">
<time>2016-10-06T17:05:18Z</time></trkpt>
<trkpt lat="24.546942" lon="107.779954">
<time>2016-10-06T17:05:19Z</time></trkpt>
<trkpt lat="24.546732" lon="107.780155">
<time>2016-10-06T17:05:20Z</time></trkpt>
<trkpt lat="24.546613" lon="107.780245">
<time>2016-10-06T17:05:21Z</time></trkpt>
<trkpt lat="24.546493" lon="107.780325">
<time>2016-10-06T17:05:22Z</time></trkpt>
<trkpt lat="24.546363" lon="107.780385">
<time>2016-10-06T17:05:23Z</time></trkpt>
<trkpt lat="24.546173" lon="107.780455">
<time>2016-10-06T17:05:24Z</time></trkpt>
<trkpt lat="24.545753" lon="107.780565">
<time>2016-10-06T17:05:25Z</time></trkpt>
<trkpt lat="24.545583" lon="107.780625">
<time>2016-10-06T17:05:26Z</time></trkpt>
<trkpt lat="24.545423" lon="107.780696">
<time>2016-10-06T17:05:27Z</time></trkpt>
<trkpt lat="24.544943" lon="107.780996">
<time>2016-10-06T17:05:28Z</time></trkpt>
<trkpt lat="24.544314" lon="107.781417">
<time>2016-10-06T17:05:29Z</time></trkpt>
<trkpt lat="24.543914" lon="107.781687">
<time>2016-10-06T17:05:30Z</time></trkpt>
<trkpt lat="24.543734" lon="107.781827">
<time>2016-10-06T17:05:31Z</time></trkpt>
<trkpt lat="24.543594" lon="107.781958">
<time>2016-10-06T17:05:32Z</time></trkpt>
<trkpt lat="24.543484" lon="107.782078">
<time>2016-10-06T17:05:33Z</time></trkpt>
<trkpt lat="24.543065" lon="107.782659">
<time>2016-10-06T17:05:34Z</time></trkpt>
<trkpt lat="24.542915" lon="107.782859">
<time>2016-10-06T17:05:35Z</time></trkpt>
<trkpt lat="24.542825" lon="107.782949">
<time>2016-10-06T17:05:36Z</time></trkpt>
<trkpt lat="24.542766" lon="107.783009">
<time>2016-10-06T17:05:37Z</time></trkpt>
<trkpt lat="24.542676" lon="107.783079">
<time>2016-10-06T17:05:38Z</time></trkpt>
<trkpt lat="24.542606" lon="107.78312">
<time>2016-10-06T17:05:39Z</time></trkpt>
<trkpt lat="24.542526" lon="107.78315">
<time>2016-10-06T17:05:40Z</time></trkpt>
<trkpt lat="24.542456" lon="107.78318">
<time>2016-10-06T17:05:41Z</time></trkpt>
<trkpt lat="24.542366" lon="107.78319">
<time>2016-10-06T17:05:42Z</time></trkpt>
<trkpt lat="24.542256" lon="107.7832">
<time>2016-10-06T17:05:43Z</time></trkpt>
<trkpt lat="24.542106" lon="107.78319">
<time>2016-10-06T17:05:44Z</time></trkpt>
<trkpt lat="24.541786" lon="107.78317">
<time>2016-10-06T17:05:45Z</time></trkpt>
<trkpt lat="24.541646" lon="107.78315">
<time>2016-10-06T17:05:46Z</time></trkpt>
<trkpt lat="24.541536" lon="107.78314">
<time>2016-10-06T17:05:47Z</time></trkpt>
<trkpt lat="24.541426" lon="107.78312">
<time>2016-10-06T17:05:48Z</time></trkpt>
<trkpt lat="24.541335" lon="107.78309">
<time>2016-10-06T17:05:49Z</time></trkpt>
<trkpt lat="24.541275" lon="107.783059">
<time>2016-10-06T17:05:50Z</time></trkpt>
<trkpt lat="24.541185" lon="107.783019">
<time>2016-10-06T17:05:51Z</time></trkpt>
<trkpt lat="24.541115" lon="107.782959">
<time>2016-10-06T17:05:52Z</time></trkpt>
<trkpt lat="24.541065" lon="107.782909">
<time>2016-10-06T17:05:53Z</time></trkpt>
<trkpt lat="24.541015" lon="107.782839">
<time>2016-10-06T17:05:54Z</time></trkpt>
<trkpt lat="24.540955" lon="107.782739">
<time>2016-10-06T17:05:55Z</time></trkpt>
<trkpt lat="24.540905" lon="107.782609">
<time>2016-10-06T17:05:56Z</time></trkpt>
<trkpt lat="24.540814" lon="107.782288">
<time>2016-10-06T17:05:57Z</time></trkpt>
<trkpt lat="24.540694" lon="107.781818">
<time>2016-10-06T17:05:58Z</time></trkpt>
<trkpt lat="24.540593" lon="107.781417">
<time>2016-10-06T17:05:59Z</time></trkpt>
<trkpt lat="24.540563" lon="107.781277">
<time>2016-10-06T17:06:00Z</time></trkpt>
<trkpt lat="24.540543" lon="107.781116">
<time>2016-10-06T17:06:01Z</time></trkpt>
<trkpt lat="24.540543" lon="107.780976">
<time>2016-10-06T17:06:02Z</time></trkpt>
<trkpt lat="24.540563" lon="107.780846">
<time>2016-10-06T17:06:03Z</time></trkpt>
<trkpt lat="24.540582" lon="107.780726">
<time>2016-10-06T17:06:04Z</time></trkpt>
<trkpt lat="24.540622" lon="107.780546">
<time>2016-10-06T17:06:05Z</time></trkpt>
<trkpt lat="24.540702" lon="107.780255">
<time>2016-10-06T17:06:06Z</time></trkpt>
<trkpt lat="24.540732" lon="107.780115">
<time>2016-10-06T17:06:07Z</time></trkpt>
<trkpt lat="24.540752" lon="107.780015">
<time>2016-10-06T17:06:08Z</time></trkpt>
<trkpt lat="24.540752" lon="107.779905">
<time>2016-10-06T17:06:09Z</time></trkpt>
<trkpt lat="24.540751" lon="107.779835">
<time>2016-10-06T17:06:10Z</time></trkpt>
<trkpt lat="24.540731" lon="107.779744">
<time>2016-10-06T17:06:11Z</time></trkpt>
<trkpt lat="24.540721" lon="107.779674">
<time>2016-10-06T17:06:12Z</time></trkpt>
<trkpt lat="24.540691" lon="107.779604">
<time>2016-10-06T17:06:13Z</time></trkpt>
<trkpt lat="24.540661" lon="107.779534">
<time>2016-10-06T17:06:14Z</time></trkpt>
<trkpt lat="24.540611" lon="107.779444">
<time>2016-10-06T17:06:15Z</time></trkpt>
<trkpt lat="24.540541" lon="107.779354">
<time>2016-10-06T17:06:16Z</time></trkpt>
<trkpt lat="24.540491" lon="107.779294">
<time>2016-10-06T17:06:17Z</time></trkpt>
<trkpt lat="24.540381" lon="107.779184">
<time>2016-10-06T17:06:18Z</time></trkpt>
<trkpt lat="24.54023" lon="107.779063">
<time>2016-10-06T17:06:19Z</time></trkpt>
<trkpt lat="24.54016" lon="107.779003">
<time>2016-10-06T17:06:20Z</time></trkpt>
<trkpt lat="24.54008" lon="107.778943">
<time>2016-10-06T17:06:21Z</time></trkpt>
<trkpt lat="24.54" lon="107.778893">
<time>2016-10-06T17:06:22Z</time></trkpt>
<trkpt lat="24.53992" lon="107.778853">
<time>2016-10-06T17:06:23Z</time></trkpt>
<trkpt lat="24.53982" lon="107.778813">
<time>2016-10-06T17:06:24Z</time></trkpt>
<trkpt lat="24.53974" lon="107.778793">
<time>2016-10-06T17:06:25Z</time></trkpt>
<trkpt lat="24.53963" lon="107.778773">
<time>2016-10-06T17:06:26Z</time></trkpt>
<trkpt lat="24.53946" lon="107.778753">
<time>2016-10-06T17:06:27Z</time></trkpt>
<trkpt lat="24.53917" lon="107.778733">
<time>2016-10-06T17:06:28Z</time></trkpt>
<trkpt lat="24.53901" lon="107.778713">
<time>2016-10-06T17:06:29Z</time></trkpt>
<trkpt lat="24.53892" lon="107.778693">
<time>2016-10-06T17:06:30Z</time></trkpt>
<trkpt lat="24.53884" lon="107.778663">
<time>2016-10-06T17:06:31Z</time></trkpt>
<trkpt lat="24.53877" lon="107.778633">
<time>2016-10-06T17:06:32Z</time></trkpt>
<trkpt lat="24.53871" lon="107.778593">
<time>2016-10-06T17:06:33Z</time></trkpt>
<trkpt lat="24.53864" lon="107.778533">
<time>2016-10-06T17:06:34Z</time></trkpt>
<trkpt lat="24.53858" lon="107.778463">
<time>2016-10-06T17:06:35Z</time></trkpt>
<trkpt lat="24.538509" lon="107.778383">
<time>2016-10-06T17:06:36Z</time></trkpt>
<trkpt lat="24.538449" lon="107.778272">
<time>2016-10-06T17:06:37Z</time></trkpt>
<trkpt lat="24.538379" lon="107.778112">
<time>2016-10-06T17:06:38Z</time></trkpt>
<trkpt lat="24.538319" lon="107.777942">
<time>2016-10-06T17:06:39Z</time></trkpt>
<trkpt lat="24.538269" lon="107.777762">
<time>2016-10-06T17:06:40Z</time></trkpt>
<trkpt lat="24.538219" lon="107.777571">
<time>2016-10-06T17:06:41Z</time></trkpt>
<trkpt lat="24.538178" lon="107.777411">
<time>2016-10-06T17:06:42Z</time></trkpt>
<trkpt lat="24.538148" lon="107.777221">
<time>2016-10-06T17:06:43Z</time></trkpt>
<trkpt lat="24.538128" lon="107.777071">
<time>2016-10-06T17:06:44Z</time></trkpt>
<trkpt lat="24.538118" lon="107.77687">
<time>2016-10-06T17:06:45Z</time></trkpt>
<trkpt lat="24.538118" lon="107.77671">
<time>2016-10-06T17:06:46Z</time></trkpt>
<trkpt lat="24.538127" lon="107.77648">
<time>2016-10-06T17:06:47Z</time></trkpt>
<trkpt lat="24.538147" lon="107.776139">
<time>2016-10-06T17:06:48Z</time></trkpt>
<trkpt lat="24.538147" lon="107.776079">
<time>2016-10-06T17:06:49Z</time></trkpt>
<trkpt lat="24.538206" lon="107.775288">
<time>2016-10-06T17:06:50Z</time></trkpt>
<trkpt lat="24.538226" lon="107.774858">
<time>2016-10-06T17:06:51Z</time></trkpt>
<trkpt lat="24.538275" lon="107.774047">
<time>2016-10-06T17:06:52Z</time></trkpt>
<trkpt lat="24.538295" lon="107.773796">
<time>2016-10-06T17:06:53Z</time></trkpt>
<trkpt lat="24.538294" lon="107.773616">
<time>2016-10-06T17:06:54Z</time></trkpt>
<trkpt lat="24.538294" lon="107.773436">
<time>2016-10-06T17:06:55Z</time></trkpt>
<trkpt lat="24.538284" lon="107.773306">
<time>2016-10-06T17:06:56Z</time></trkpt>
<trkpt lat="24.538264" lon="107.773115">
<time>2016-10-06T17:06:57Z</time></trkpt>
<trkpt lat="24.538244" lon="107.772925">
<time>2016-10-06T17:06:58Z</time></trkpt>
<trkpt lat="24.538204" lon="107.772745">
<time>2016-10-06T17:06:59Z</time></trkpt>
<trkpt lat="24.538183" lon="107.772625">
<time>2016-10-06T17:07:00Z</time></trkpt>
<trkpt lat="24.538103" lon="107.772354">
<time>2016-10-06T17:07:01Z</time></trkpt>
<trkpt lat="24.538013" lon="107.772104">
<time>2016-10-06T17:07:02Z</time></trkpt>
<trkpt lat="24.537933" lon="107.771904">
<time>2016-10-06T17:07:03Z</time></trkpt>
<trkpt lat="24.537842" lon="107.771704">
<time>2016-10-06T17:07:04Z</time></trkpt>
<trkpt lat="24.537512" lon="107.770973">
<time>2016-10-06T17:07:05Z</time></trkpt>
<trkpt lat="24.537261" lon="107.770442">
<time>2016-10-06T17:07:06Z</time></trkpt>
<trkpt lat="24.537201" lon="107.770342">
<time>2016-10-06T17:07:07Z</time></trkpt>
<trkpt lat="24.537141" lon="107.770232">
<time>2016-10-06T17:07:08Z</time></trkpt>
<trkpt lat="24.537071" lon="107.770132">
<time>2016-10-06T17:07:09Z</time></trkpt>
<trkpt lat="24.536981" lon="107.770012">
<time>2016-10-06T17:07:10Z</time></trkpt>
<trkpt lat="24.536891" lon="107.769912">
<time>2016-10-06T17:07:11Z</time></trkpt>
<trkpt lat="24.536791" lon="107.769811">
<time>2016-10-06T17:07:12Z</time></trkpt>
<trkpt lat="24.53648" lon="107.769501">
<time>2016-10-06T17:07:13Z</time></trkpt>
<trkpt lat="24.5364" lon="107.769411">
<time>2016-10-06T17:07:14Z</time></trkpt>
<trkpt lat="24.53634" lon="107.769341">
<time>2016-10-06T17:07:15Z</time></trkpt>
<trkpt lat="24.5363" lon="107.769261">
<time>2016-10-06T17:07:16Z</time></trkpt>
<trkpt lat="24.53625" lon="107.769171">
<time>2016-10-06T17:07:17Z</time></trkpt>
<trkpt lat="24.53621" lon="107.769051">
<time>2016-10-06T17:07:18Z</time></trkpt>
<trkpt lat="24.53609" lon="107.76864">
<time>2016-10-06T17:07:19Z</time></trkpt>
<trkpt lat="24.536009" lon="107.76839">
<time>2016-10-06T17:07:20Z</time></trkpt>
<trkpt lat="24.535959" lon="107.76824">
<time>2016-10-06T17:07:21Z</time></trkpt>
<trkpt lat="24.535899" lon="107.76809">
<time>2016-10-06T17:07:22Z</time></trkpt>
<trkpt lat="24.535829" lon="107.767959">
<time>2016-10-06T17:07:23Z</time></trkpt>
<trkpt lat="24.535729" lon="107.767779">
<time>2016-10-06T17:07:24Z</time></trkpt>
<trkpt lat="24.535469" lon="107.767389">
<time>2016-10-06T17:07:25Z</time></trkpt>
<trkpt lat="24.535358" lon="107.767219">
<time>2016-10-06T17:07:26Z</time></trkpt>
<trkpt lat="24.535278" lon="107.767049">
<time>2016-10-06T17:07:27Z</time></trkpt>
<trkpt lat="24.535228" lon="107.766928">
<time>2016-10-06T17:07:28Z</time></trkpt>
<trkpt lat="24.535178" lon="107.766808">
<time>2016-10-06T17:07:29Z</time></trkpt>
<trkpt lat="24.535138" lon="107.766678">
<time>2016-10-06T17:07:30Z</time></trkpt>
<trkpt lat="24.535108" lon="107.766508">
<time>2016-10-06T17:07:31Z</time></trkpt>
<trkpt lat="24.535068" lon="107.766288">
<time>2016-10-06T17:07:32Z</time></trkpt>
<trkpt lat="24.535027" lon="107.765927">
<time>2016-10-06T17:07:33Z</time></trkpt>
<trkpt lat="24.534977" lon="107.765527">
<time>2016-10-06T17:07:34Z</time></trkpt>
<trkpt lat="24.534947" lon="107.765377">
<time>2016-10-06T17:07:35Z</time></trkpt>
<trkpt lat="24.534907" lon="107.765227">
<time>2016-10-06T17:07:36Z</time></trkpt>
<trkpt lat="24.534887" lon="107.765127">
<time>2016-10-06T17:07:37Z</time></trkpt>
<trkpt lat="24.534867" lon="107.765067">
<time>2016-10-06T17:07:38Z</time></trkpt>
<trkpt lat="24.534867" lon="107.765067">
<time>2016-10-06T17:07:39Z</time></trkpt>
<trkpt lat="24.534877" lon="107.764946">
<time>2016-10-06T17:07:40Z</time></trkpt>
<trkpt lat="24.534886" lon="107.764716">
<time>2016-10-06T17:07:41Z</time></trkpt>
<trkpt lat="24.534896" lon="107.764506">
<time>2016-10-06T17:07:42Z</time></trkpt>
<trkpt lat="24.534886" lon="107.763936">
<time>2016-10-06T17:07:43Z</time></trkpt>
<trkpt lat="24.534866" lon="107.763265">
<time>2016-10-06T17:07:44Z</time></trkpt>
<trkpt lat="24.534825" lon="107.762324">
<time>2016-10-06T17:07:45Z</time></trkpt>
<trkpt lat="24.534805" lon="107.761814">
<time>2016-10-06T17:07:46Z</time></trkpt>
<trkpt lat="24.534795" lon="107.761664">
<time>2016-10-06T17:07:47Z</time></trkpt>
<trkpt lat="24.534784" lon="107.761564">
<time>2016-10-06T17:07:48Z</time></trkpt>
<trkpt lat="24.534764" lon="107.761483">
<time>2016-10-06T17:07:49Z</time></trkpt>
<trkpt lat="24.534734" lon="107.761413">
<time>2016-10-06T17:07:50Z</time></trkpt>
<trkpt lat="24.534674" lon="107.761333">
<time>2016-10-06T17:07:51Z</time></trkpt>
<trkpt lat="24.534564" lon="107.761233">
<time>2016-10-06T17:07:52Z</time></trkpt>
<trkpt lat="24.534454" lon="107.761133">
<time>2016-10-06T17:07:53Z</time></trkpt>
<trkpt lat="24.534314" lon="107.761023">
<time>2016-10-06T17:07:54Z</time></trkpt>
<trkpt lat="24.534184" lon="107.760903">
<time>2016-10-06T17:07:55Z</time></trkpt>
<trkpt lat="24.534044" lon="107.760763">
<time>2016-10-06T17:07:56Z</time></trkpt>
<trkpt lat="24.533764" lon="107.760403">
<time>2016-10-06T17:07:57Z</time></trkpt>
<trkpt lat="24.533654" lon="107.760253">
<time>2016-10-06T17:07:58Z</time></trkpt>
<trkpt lat="24.533564" lon="107.760152">
<time>2016-10-06T17:07:59Z</time></trkpt>
<trkpt lat="24.533393" lon="107.759942">
<time>2016-10-06T17:08:00Z</time></trkpt>
<trkpt lat="24.533333" lon="107.759872">
<time>2016-10-06T17:08:01Z</time></trkpt>
<trkpt lat="24.533273" lon="107.759802">
<time>2016-10-06T17:08:02Z</time></trkpt>
<trkpt lat="24.533093" lon="107.759612">
<time>2016-10-06T17:08:03Z</time></trkpt>
<trkpt lat="24.532823" lon="107.759342">
<time>2016-10-06T17:08:04Z</time></trkpt>
<trkpt lat="24.532733" lon="107.759242">
<time>2016-10-06T17:08:05Z</time></trkpt>
<trkpt lat="24.532733" lon="107.759242">
<time>2016-10-06T17:08:06Z</time></trkpt>
<trkpt lat="24.532743" lon="107.759182">
<time>2016-10-06T17:08:07Z</time></trkpt>
<trkpt lat="24.532743" lon="107.759022">
<time>2016-10-06T17:08:08Z</time></trkpt>
<trkpt lat="24.532753" lon="107.758802">
<time>2016-10-06T17:08:09Z</time></trkpt>
<trkpt lat="24.532753" lon="107.758591">
<time>2016-10-06T17:08:10Z</time></trkpt>
<trkpt lat="24.532733" lon="107.758441">
<time>2016-10-06T17:08:11Z</time></trkpt>
<trkpt lat="24.532733" lon="107.758361">
<time>2016-10-06T17:08:12Z</time></trkpt>
<trkpt lat="24.532713" lon="107.758291">
<time>2016-10-06T17:08:13Z</time></trkpt>
<trkpt lat="24.532672" lon="107.758021">
<time>2016-10-06T17:08:14Z</time></trkpt>
<trkpt lat="24.532652" lon="107.757961">
<time>2016-10-06T17:08:15Z</time></trkpt>
<trkpt lat="24.532602" lon="107.757831">
<time>2016-10-06T17:08:16Z</time></trkpt>
<trkpt lat="24.532572" lon="107.757701">
<time>2016-10-06T17:08:17Z</time></trkpt>
<trkpt lat="24.532542" lon="107.757571">
<time>2016-10-06T17:08:18Z</time></trkpt>
<trkpt lat="24.532512" lon="107.757421">
<time>2016-10-06T17:08:19Z</time></trkpt>
<trkpt lat="24.532492" lon="107.75726">
<time>2016-10-06T17:08:20Z</time></trkpt>
<trkpt lat="24.532472" lon="107.75698">
<time>2016-10-06T17:08:21Z</time></trkpt>
<trkpt lat="24.532462" lon="107.75679">
<time>2016-10-06T17:08:22Z</time></trkpt>
<trkpt lat="24.532462" lon="107.75659">
<time>2016-10-06T17:08:23Z</time></trkpt>
<trkpt lat="24.532472" lon="107.75643">
<time>2016-10-06T17:08:24Z</time></trkpt>
<trkpt lat="24.532492" lon="107.75626">
<time>2016-10-06T17:08:25Z</time></trkpt>
<trkpt lat="24.532522" lon="107.75614">
<time>2016-10-06T17:08:26Z</time></trkpt>
<trkpt lat="24.532562" lon="107.75605">
<time>2016-10-06T17:08:27Z</time></trkpt>
<trkpt lat="24.532582" lon="107.75598">
<time>2016-10-06T17:08:28Z</time></trkpt>
<trkpt lat="24.532671" lon="107.75579">
<time>2016-10-06T17:08:29Z</time></trkpt>
<trkpt lat="24.532771" lon="107.755589">
<time>2016-10-06T17:08:30Z</time></trkpt>
<trkpt lat="24.532891" lon="107.755419">
<time>2016-10-06T17:08:31Z</time></trkpt>
<trkpt lat="24.533021" lon="107.755269">
<time>2016-10-06T17:08:32Z</time></trkpt>
<trkpt lat="24.533171" lon="107.755119">
<time>2016-10-06T17:08:33Z</time></trkpt>
<trkpt lat="24.533321" lon="107.754979">
<time>2016-10-06T17:08:34Z</time></trkpt>
<trkpt lat="24.533481" lon="107.754849">
<time>2016-10-06T17:08:35Z</time></trkpt>
<trkpt lat="24.533511" lon="107.754829">
<time>2016-10-06T17:08:36Z</time></trkpt>
<trkpt lat="24.533631" lon="107.754759">
<time>2016-10-06T17:08:37Z</time></trkpt>
<trkpt lat="24.533791" lon="107.754689">
<time>2016-10-06T17:08:38Z</time></trkpt>
<trkpt lat="24.533941" lon="107.754579">
<time>2016-10-06T17:08:39Z</time></trkpt>
<trkpt lat="24.534101" lon="107.754459">
<time>2016-10-06T17:08:40Z</time></trkpt>
<trkpt lat="24.534101" lon="107.754459">
<time>2016-10-06T17:08:41Z</time></trkpt>
<trkpt lat="24.534211" lon="107.754429">
<time>2016-10-06T17:08:42Z</time></trkpt>
<trkpt lat="24.534461" lon="107.754349">
<time>2016-10-06T17:08:43Z</time></trkpt>
<trkpt lat="24.534621" lon="107.754259">
<time>2016-10-06T17:08:44Z</time></trkpt>
<trkpt lat="24.534981" lon="107.754008">
<time>2016-10-06T17:08:45Z</time></trkpt>
<trkpt lat="24.535831" lon="107.753268">
<time>2016-10-06T17:08:46Z</time></trkpt>
<trkpt lat="24.536211" lon="107.752938">
<time>2016-10-06T17:08:47Z</time></trkpt>
<trkpt lat="24.536681" lon="107.752518">
<time>2016-10-06T17:08:48Z</time></trkpt>
<trkpt lat="24.536831" lon="107.752378">
<time>2016-10-06T17:08:49Z</time></trkpt>
<trkpt lat="24.537071" lon="107.752107">
<time>2016-10-06T17:08:50Z</time></trkpt>
<trkpt lat="24.537131" lon="107.752017">
<time>2016-10-06T17:08:51Z</time></trkpt>
<trkpt lat="24.537271" lon="107.751777">
<time>2016-10-06T17:08:52Z</time></trkpt>
<trkpt lat="24.537371" lon="107.751557">
<time>2016-10-06T17:08:53Z</time></trkpt>
<trkpt lat="24.537461" lon="107.751247">
<time>2016-10-06T17:08:54Z</time></trkpt>
<trkpt lat="24.537591" lon="107.750877">
<time>2016-10-06T17:08:55Z</time></trkpt>
<trkpt lat="24.537701" lon="107.750617">
<time>2016-10-06T17:08:56Z</time></trkpt>
<trkpt lat="24.537861" lon="107.750397">
<time>2016-10-06T17:08:57Z</time></trkpt>
<trkpt lat="24.538021" lon="107.750197">
<time>2016-10-06T17:08:58Z</time></trkpt>
<trkpt lat="24.538231" lon="107.750007">
<time>2016-10-06T17:08:59Z</time></trkpt>
<trkpt lat="24.538541" lon="107.749777">
<time>2016-10-06T17:09:00Z</time></trkpt>
<trkpt lat="24.539151" lon="107.749316">
<time>2016-10-06T17:09:01Z</time></trkpt>
<trkpt lat="24.539921" lon="107.748746">
<time>2016-10-06T17:09:02Z</time></trkpt>
<trkpt lat="24.540311" lon="107.748466">
<time>2016-10-06T17:09:03Z</time></trkpt>
<trkpt lat="24.540701" lon="107.748166">
<time>2016-10-06T17:09:04Z</time></trkpt>
<trkpt lat="24.540921" lon="107.747956">
<time>2016-10-06T17:09:05Z</time></trkpt>
<trkpt lat="24.541021" lon="107.747856">
<time>2016-10-06T17:09:06Z</time></trkpt>
<trkpt lat="24.541231" lon="107.747626">
<time>2016-10-06T17:09:07Z</time></trkpt>
<trkpt lat="24.541311" lon="107.747536">
<time>2016-10-06T17:09:08Z</time></trkpt>
<trkpt lat="24.541491" lon="107.747306">
<time>2016-10-06T17:09:09Z</time></trkpt>
<trkpt lat="24.541581" lon="107.747166">
<time>2016-10-06T17:09:10Z</time></trkpt>
<trkpt lat="24.541661" lon="107.747046">
<time>2016-10-06T17:09:11Z</time></trkpt>
<trkpt lat="24.541711" lon="107.746966">
<time>2016-10-06T17:09:12Z</time></trkpt>
<trkpt lat="24.541761" lon="107.746876">
<time>2016-10-06T17:09:13Z</time></trkpt>
<trkpt lat="24.541801" lon="107.746786">
<time>2016-10-06T17:09:14Z</time></trkpt>
<trkpt lat="24.541831" lon="107.746726">
<time>2016-10-06T17:09:15Z</time></trkpt>
<trkpt lat="24.541861" lon="107.746666">
<time>2016-10-06T17:09:16Z</time></trkpt>
<trkpt lat="24.541891" lon="107.746596">
<time>2016-10-06T17:09:17Z</time></trkpt>
<trkpt lat="24.541991" lon="107.746355">
<time>2016-10-06T17:09:18Z</time></trkpt>
<trkpt lat="24.542021" lon="107.746285">
<time>2016-10-06T17:09:19Z</time></trkpt>
<trkpt lat="24.542081" lon="107.746135">
<time>2016-10-06T17:09:20Z</time></trkpt>
<trkpt lat="24.542171" lon="107.745915">
<time>2016-10-06T17:09:21Z</time></trkpt>
<trkpt lat="24.542391" lon="107.745435">
<time>2016-10-06T17:09:22Z</time></trkpt>
<trkpt lat="24.542511" lon="107.745225">
<time>2016-10-06T17:09:23Z</time></trkpt>
<trkpt lat="24.542591" lon="107.745075">
<time>2016-10-06T17:09:24Z</time></trkpt>
<trkpt lat="24.542731" lon="107.744825">
<time>2016-10-06T17:09:25Z</time></trkpt>
<trkpt lat="24.542811" lon="107.744705">
<time>2016-10-06T17:09:26Z</time></trkpt>
<trkpt lat="24.542941" lon="107.744545">
<time>2016-10-06T17:09:27Z</time></trkpt>
<trkpt lat="24.543501" lon="107.744055">
<time>2016-10-06T17:09:28Z</time></trkpt>
<trkpt lat="24.543741" lon="107.743815">
<time>2016-10-06T17:09:29Z</time></trkpt>
<trkpt lat="24.543861" lon="107.743675">
<time>2016-10-06T17:09:30Z</time></trkpt>
<trkpt lat="24.544171" lon="107.743235">
<time>2016-10-06T17:09:31Z</time></trkpt>
<trkpt lat="24.544251" lon="107.743075">
<time>2016-10-06T17:09:32Z</time></trkpt>
<trkpt lat="24.544551" lon="107.742535">
<time>2016-10-06T17:09:33Z</time></trkpt>
<trkpt lat="24.544701" lon="107.742255">
<time>2016-10-06T17:09:34Z</time></trkpt>
<trkpt lat="24.544821" lon="107.742025">
<time>2016-10-06T17:09:35Z</time></trkpt>
<trkpt lat="24.545072" lon="107.741565">
<time>2016-10-06T17:09:36Z</time></trkpt>
<trkpt lat="24.545402" lon="107.740935">
<time>2016-10-06T17:09:37Z</time></trkpt>
<trkpt lat="24.545672" lon="107.740435">
<time>2016-10-06T17:09:38Z</time></trkpt>
<trkpt lat="24.545902" lon="107.740015">
<time>2016-10-06T17:09:39Z</time></trkpt>
<trkpt lat="24.546232" lon="107.739545">
<time>2016-10-06T17:09:40Z</time></trkpt>
<trkpt lat="24.546792" lon="107.738895">
<time>2016-10-06T17:09:41Z</time></trkpt>
<trkpt lat="24.547192" lon="107.738545">
<time>2016-10-06T17:09:42Z</time></trkpt>
<trkpt lat="24.547513" lon="107.738305">
<time>2016-10-06T17:09:43Z</time></trkpt>
<trkpt lat="24.547873" lon="107.738085">
<time>2016-10-06T17:09:44Z</time></trkpt>
<trkpt lat="24.548163" lon="107.737905">
<time>2016-10-06T17:09:45Z</time></trkpt>
<trkpt lat="24.548203" lon="107.737875">
<time>2016-10-06T17:09:46Z</time></trkpt>
<trkpt lat="24.548413" lon="107.737755">
<time>2016-10-06T17:09:47Z</time></trkpt>
<trkpt lat="24.548593" lon="107.737645">
<time>2016-10-06T17:09:48Z</time></trkpt>
<trkpt lat="24.548673" lon="107.737595">
<time>2016-10-06T17:09:49Z</time></trkpt>
<trkpt lat="24.548803" lon="107.737515">
<time>2016-10-06T17:09:50Z</time></trkpt>
<trkpt lat="24.549023" lon="107.737375">
<time>2016-10-06T17:09:51Z</time></trkpt>
<trkpt lat="24.549273" lon="107.737205">
<time>2016-10-06T17:09:52Z</time></trkpt>
<trkpt lat="24.549553" lon="107.736985">
<time>2016-10-06T17:09:53Z</time></trkpt>
<trkpt lat="24.549683" lon="107.736825">
<time>2016-10-06T17:09:54Z</time></trkpt>
<trkpt lat="24.549763" lon="107.736725">
<time>2016-10-06T17:09:55Z</time></trkpt>
<trkpt lat="24.550104" lon="107.736035">
<time>2016-10-06T17:09:56Z</time></trkpt>
<trkpt lat="24.550274" lon="107.735655">
<time>2016-10-06T17:09:57Z</time></trkpt>
<trkpt lat="24.550374" lon="107.735466">
<time>2016-10-06T17:09:58Z</time></trkpt>
<trkpt lat="24.550464" lon="107.735316">
<time>2016-10-06T17:09:59Z</time></trkpt>
<trkpt lat="24.550514" lon="107.735236">
<time>2016-10-06T17:10:00Z</time></trkpt>
<trkpt lat="24.550614" lon="107.735106">
<time>2016-10-06T17:10:01Z</time></trkpt>
<trkpt lat="24.550774" lon="107.734926">
<time>2016-10-06T17:10:02Z</time></trkpt>
<trkpt lat="24.550914" lon="107.734796">
<time>2016-10-06T17:10:03Z</time></trkpt>
<trkpt lat="24.551054" lon="107.734686">
<time>2016-10-06T17:10:04Z</time></trkpt>
<trkpt lat="24.551124" lon="107.734646">
<time>2016-10-06T17:10:05Z</time></trkpt>
<trkpt lat="24.551254" lon="107.734556">
<time>2016-10-06T17:10:06Z</time></trkpt>
<trkpt lat="24.551354" lon="107.734506">
<time>2016-10-06T17:10:07Z</time></trkpt>
<trkpt lat="24.551434" lon="107.734476">
<time>2016-10-06T17:10:08Z</time></trkpt>
<trkpt lat="24.551494" lon="107.734446">
<time>2016-10-06T17:10:09Z</time></trkpt>
<trkpt lat="24.551634" lon="107.734396">
<time>2016-10-06T17:10:10Z</time></trkpt>
<trkpt lat="24.552515" lon="107.734246">
<time>2016-10-06T17:10:11Z</time></trkpt>
<trkpt lat="24.553205" lon="107.734176">
<time>2016-10-06T17:10:12Z</time></trkpt>
<trkpt lat="24.553685" lon="107.734136">
<time>2016-10-06T17:10:13Z</time></trkpt>
<trkpt lat="24.554035" lon="107.734076">
<time>2016-10-06T17:10:14Z</time></trkpt>
<trkpt lat="24.554405" lon="107.733966">
<time>2016-10-06T17:10:15Z</time></trkpt>
<trkpt lat="24.554745" lon="107.733786">
<time>2016-10-06T17:10:16Z</time></trkpt>
<trkpt lat="24.554965" lon="107.733626">
<time>2016-10-06T17:10:17Z</time></trkpt>
<trkpt lat="24.555045" lon="107.733556">
<time>2016-10-06T17:10:18Z</time></trkpt>
<trkpt lat="24.555065" lon="107.733536">
<time>2016-10-06T17:10:19Z</time></trkpt>
<trkpt lat="24.555085" lon="107.733526">
<time>2016-10-06T17:10:20Z</time></trkpt>
<trkpt lat="24.555095" lon="107.733516">
<time>2016-10-06T17:10:21Z</time></trkpt>
<trkpt lat="24.555115" lon="107.733506">
<time>2016-10-06T17:10:22Z</time></trkpt>
<trkpt lat="24.555235" lon="107.733376">
<time>2016-10-06T17:10:23Z</time></trkpt>
<trkpt lat="24.555345" lon="107.733256">
<time>2016-10-06T17:10:24Z</time></trkpt>
<trkpt lat="24.555445" lon="107.733146">
<time>2016-10-06T17:10:25Z</time></trkpt>
<trkpt lat="24.555515" lon="107.733076">
<time>2016-10-06T17:10:26Z</time></trkpt>
<trkpt lat="24.555565" lon="107.733006">
<time>2016-10-06T17:10:27Z</time></trkpt>
<trkpt lat="24.555786" lon="107.732726">
<time>2016-10-06T17:10:28Z</time></trkpt>
<trkpt lat="24.556036" lon="107.732416">
<time>2016-10-06T17:10:29Z</time></trkpt>
<trkpt lat="24.556096" lon="107.732346">
<time>2016-10-06T17:10:30Z</time></trkpt>
<trkpt lat="24.556166" lon="107.732266">
<time>2016-10-06T17:10:31Z</time></trkpt>
<trkpt lat="24.556246" lon="107.732156">
<time>2016-10-06T17:10:32Z</time></trkpt>
<trkpt lat="24.556306" lon="107.732086">
<time>2016-10-06T17:10:33Z</time></trkpt>
<trkpt lat="24.556426" lon="107.731936">
<time>2016-10-06T17:10:34Z</time></trkpt>
<trkpt lat="24.556566" lon="107.731767">
<time>2016-10-06T17:10:35Z</time></trkpt>
<trkpt lat="24.556646" lon="107.731667">
<time>2016-10-06T17:10:36Z</time></trkpt>
<trkpt lat="24.556746" lon="107.731547">
<time>2016-10-06T17:10:37Z</time></trkpt>
<trkpt lat="24.556866" lon="107.731397">
<time>2016-10-06T17:10:38Z</time></trkpt>
<trkpt lat="24.556977" lon="107.731267">
<time>2016-10-06T17:10:39Z</time></trkpt>
<trkpt lat="24.557057" lon="107.731197">
<time>2016-10-06T17:10:40Z</time></trkpt>
<trkpt lat="24.557087" lon="107.731167">
<time>2016-10-06T17:10:41Z</time></trkpt>
<trkpt lat="24.557107" lon="107.731147">
<time>2016-10-06T17:10:42Z</time></trkpt>
<trkpt lat="24.557137" lon="107.731127">
<time>2016-10-06T17:10:43Z</time></trkpt>
<trkpt lat="24.557187" lon="107.731077">
<time>2016-10-06T17:10:44Z</time></trkpt>
<trkpt lat="24.557327" lon="107.730987">
<time>2016-10-06T17:10:45Z</time></trkpt>
<trkpt lat="24.557437" lon="107.730937">
<time>2016-10-06T17:10:46Z</time></trkpt>
<trkpt lat="24.557547" lon="107.730897">
<time>2016-10-06T17:10:47Z</time></trkpt>
<trkpt lat="24.557787" lon="107.730837">
<time>2016-10-06T17:10:48Z</time></trkpt>
<trkpt lat="24.557887" lon="107.730827">
<time>2016-10-06T17:10:49Z</time></trkpt>
<trkpt lat="24.558677" lon="107.730837">
<time>2016-10-06T17:10:50Z</time></trkpt>
<trkpt lat="24.558737" lon="107.730837">
<time>2016-10-06T17:10:51Z</time></trkpt>
<trkpt lat="24.558987" lon="107.730787">
<time>2016-10-06T17:10:52Z</time></trkpt>
<trkpt lat="24.559167" lon="107.730707">
<time>2016-10-06T17:10:53Z</time></trkpt>
<trkpt lat="24.559267" lon="107.730627">
<time>2016-10-06T17:10:54Z</time></trkpt>
<trkpt lat="24.559307" lon="107.730597">
<time>2016-10-06T17:10:55Z</time></trkpt>
<trkpt lat="24.559347" lon="107.730567">
<time>2016-10-06T17:10:56Z</time></trkpt>
<trkpt lat="24.559527" lon="107.730357">
<time>2016-10-06T17:10:57Z</time></trkpt>
<trkpt lat="24.559597" lon="107.730277">
<time>2016-10-06T17:10:58Z</time></trkpt>
<trkpt lat="24.559627" lon="107.730237">
<time>2016-10-06T17:10:59Z</time></trkpt>
<trkpt lat="24.559747" lon="107.730067">
<time>2016-10-06T17:11:00Z</time></trkpt>
<trkpt lat="24.559968" lon="107.729787">
<time>2016-10-06T17:11:01Z</time></trkpt>
<trkpt lat="24.560148" lon="107.729627">
<time>2016-10-06T17:11:02Z</time></trkpt>
<trkpt lat="24.560348" lon="107.729487">
<time>2016-10-06T17:11:03Z</time></trkpt>
<trkpt lat="24.560548" lon="107.729397">
<time>2016-10-06T17:11:04Z</time></trkpt>
<trkpt lat="24.560728" lon="107.729347">
<time>2016-10-06T17:11:05Z</time></trkpt>
<trkpt lat="24.560858" lon="107.729327">
<time>2016-10-06T17:11:06Z</time></trkpt>
<trkpt lat="24.560958" lon="107.729317">
<time>2016-10-06T17:11:07Z</time></trkpt>
<trkpt lat="24.561528" lon="107.729367">
<time>2016-10-06T17:11:08Z</time></trkpt>
<trkpt lat="24.561928" lon="107.729367">
<time>2016-10-06T17:11:09Z</time></trkpt>
<trkpt lat="24.562028" lon="107.729357">
<time>2016-10-06T17:11:10Z</time></trkpt>
<trkpt lat="24.562088" lon="107.729347">
<time>2016-10-06T17:11:11Z</time></trkpt>
<trkpt lat="24.562218" lon="107.729297">
<time>2016-10-06T17:11:12Z</time></trkpt>
<trkpt lat="24.562288" lon="107.729257">
<time>2016-10-06T17:11:13Z</time></trkpt>
<trkpt lat="24.562348" lon="107.729227">
<time>2016-10-06T17:11:14Z</time></trkpt>
<trkpt lat="24.562398" lon="107.729187">
<time>2016-10-06T17:11:15Z</time></trkpt>
<trkpt lat="24.562448" lon="107.729147">
<time>2016-10-06T17:11:16Z</time></trkpt>
<trkpt lat="24.562488" lon="107.729117">
<time>2016-10-06T17:11:17Z</time></trkpt>
<trkpt lat="24.562528" lon="107.729077">
<time>2016-10-06T17:11:18Z</time></trkpt>
<trkpt lat="24.562568" lon="107.729028">
<time>2016-10-06T17:11:19Z</time></trkpt>
<trkpt lat="24.562588" lon="107.728998">
<time>2016-10-06T17:11:20Z</time></trkpt>
<trkpt lat="24.562628" lon="107.728928">
<time>2016-10-06T17:11:21Z</time></trkpt>
<trkpt lat="24.562668" lon="107.728868">
<time>2016-10-06T17:11:22Z</time></trkpt>
<trkpt lat="24.562699" lon="107.728818">
<time>2016-10-06T17:11:23Z</time></trkpt>
<trkpt lat="24.562739" lon="107.728728">
<time>2016-10-06T17:11:24Z</time></trkpt>
<trkpt lat="24.562759" lon="107.728648">
<time>2016-10-06T17:11:25Z</time></trkpt>
<trkpt lat="24.562799" lon="107.728538">
<time>2016-10-06T17:11:26Z</time></trkpt>
<trkpt lat="24.562839" lon="107.728378">
<time>2016-10-06T17:11:27Z</time></trkpt>
<trkpt lat="24.562889" lon="107.728168">
<time>2016-10-06T17:11:28Z</time></trkpt>
<trkpt lat="24.562939" lon="107.727918">
<time>2016-10-06T17:11:29Z</time></trkpt>
<trkpt lat="24.562979" lon="107.727788">
<time>2016-10-06T17:11:30Z</time></trkpt>
<trkpt lat="24.563019" lon="107.727638">
<time>2016-10-06T17:11:31Z</time></trkpt>
<trkpt lat="24.563079" lon="107.727478">
<time>2016-10-06T17:11:32Z</time></trkpt>
<trkpt lat="24.56312" lon="107.727388">
<time>2016-10-06T17:11:33Z</time></trkpt>
<trkpt lat="24.56317" lon="107.727298">
<time>2016-10-06T17:11:34Z</time></trkpt>
<trkpt lat="24.5632" lon="107.727239">
<time>2016-10-06T17:11:35Z</time></trkpt>
<trkpt lat="24.56324" lon="107.727169">
<time>2016-10-06T17:11:36Z</time></trkpt>
<trkpt lat="24.56338" lon="107.726959">
<time>2016-10-06T17:11:37Z</time></trkpt>
<trkpt lat="24.56347" lon="107.726849">
<time>2016-10-06T17:11:38Z</time></trkpt>
<trkpt lat="24.56362" lon="107.726679">
<time>2016-10-06T17:11:39Z</time></trkpt>
<trkpt lat="24.56389" lon="107.726429">
<time>2016-10-06T17:11:40Z</time></trkpt>
<trkpt lat="24.56404" lon="107.726279">
<time>2016-10-06T17:11:41Z</time></trkpt>
<trkpt lat="24.564271" lon="107.726099">
<time>2016-10-06T17:11:42Z</time></trkpt>
<trkpt lat="24.564441" lon="107.725989">
<time>2016-10-06T17:11:43Z</time></trkpt>
<trkpt lat="24.564841" lon="107.725829">
<time>2016-10-06T17:11:44Z</time></trkpt>
<trkpt lat="24.564891" lon="107.725809">
<time>2016-10-06T17:11:45Z</time></trkpt>
<trkpt lat="24.565111" lon="107.725769">
<time>2016-10-06T17:11:46Z</time></trkpt>
<trkpt lat="24.565281" lon="107.725759">
<time>2016-10-06T17:11:47Z</time></trkpt>
<trkpt lat="24.565381" lon="107.725759">
<time>2016-10-06T17:11:48Z</time></trkpt>
<trkpt lat="24.565511" lon="107.725769">
<time>2016-10-06T17:11:49Z</time></trkpt>
<trkpt lat="24.565871" lon="107.725799">
<time>2016-10-06T17:11:50Z</time></trkpt>
<trkpt lat="24.566221" lon="107.725839">
<time>2016-10-06T17:11:51Z</time></trkpt>
<trkpt lat="24.566391" lon="107.725839">
<time>2016-10-06T17:11:52Z</time></trkpt>
<trkpt lat="24.566481" lon="107.725829">
<time>2016-10-06T17:11:53Z</time></trkpt>
<trkpt lat="24.566571" lon="107.725809">
<time>2016-10-06T17:11:54Z</time></trkpt>
<trkpt lat="24.566701" lon="107.725759">
<time>2016-10-06T17:11:55Z</time></trkpt>
<trkpt lat="24.566811" lon="107.725709">
<time>2016-10-06T17:11:56Z</time></trkpt>
<trkpt lat="24.566891" lon="107.725649">
<time>2016-10-06T17:11:57Z</time></trkpt>
<trkpt lat="24.566931" lon="107.725619">
<time>2016-10-06T17:11:58Z</time></trkpt>
<trkpt lat="24.566951" lon="107.725599">
<time>2016-10-06T17:11:59Z</time></trkpt>
<trkpt lat="24.566971" lon="107.725589">
<time>2016-10-06T17:12:00Z</time></trkpt>
<trkpt lat="24.567031" lon="107.725529">
<time>2016-10-06T17:12:01Z</time></trkpt>
<trkpt lat="24.567081" lon="107.725469">
<time>2016-10-06T17:12:02Z</time></trkpt>
<trkpt lat="24.567131" lon="107.72541">
<time>2016-10-06T17:12:03Z</time></trkpt>
<trkpt lat="24.567181" lon="107.72533">
<time>2016-10-06T17:12:04Z</time></trkpt>
<trkpt lat="24.567252" lon="107.72521">
<time>2016-10-06T17:12:05Z</time></trkpt>
<trkpt lat="24.567282" lon="107.72515">
<time>2016-10-06T17:12:06Z</time></trkpt>
<trkpt lat="24.567412" lon="107.72484">
<time>2016-10-06T17:12:07Z</time></trkpt>
<trkpt lat="24.567572" lon="107.72447">
<time>2016-10-06T17:12:08Z</time></trkpt>
<trkpt lat="24.567883" lon="107.723711">
<time>2016-10-06T17:12:09Z</time></trkpt>
<trkpt lat="24.568083" lon="107.723231">
<time>2016-10-06T17:12:10Z</time></trkpt>
<trkpt lat="24.568213" lon="107.722921">
<time>2016-10-06T17:12:11Z</time></trkpt>
<trkpt lat="24.568494" lon="107.722262">
<time>2016-10-06T17:12:12Z</time></trkpt>
<trkpt lat="24.568604" lon="107.721972">
<time>2016-10-06T17:12:13Z</time></trkpt>
<trkpt lat="24.568715" lon="107.721692">
<time>2016-10-06T17:12:14Z</time></trkpt>
<trkpt lat="24.568805" lon="107.721472">
<time>2016-10-06T17:12:15Z</time></trkpt>
<trkpt lat="24.568905" lon="107.721253">
<time>2016-10-06T17:12:16Z</time></trkpt>
<trkpt lat="24.568995" lon="107.721023">
<time>2016-10-06T17:12:17Z</time></trkpt>
<trkpt lat="24.569045" lon="107.720913">
<time>2016-10-06T17:12:18Z</time></trkpt>
<trkpt lat="24.569085" lon="107.720803">
<time>2016-10-06T17:12:19Z</time></trkpt>
<trkpt lat="24.569136" lon="107.720683">
<time>2016-10-06T17:12:20Z</time></trkpt>
<trkpt lat="24.569166" lon="107.720603">
<time>2016-10-06T17:12:21Z</time></trkpt>
<trkpt lat="24.569196" lon="107.720523">
<time>2016-10-06T17:12:22Z</time></trkpt>
<trkpt lat="24.569226" lon="107.720443">
<time>2016-10-06T17:12:23Z</time></trkpt>
<trkpt lat="24.569266" lon="107.720323">
<time>2016-10-06T17:12:24Z</time></trkpt>
<trkpt lat="24.569286" lon="107.720233">
<time>2016-10-06T17:12:25Z</time></trkpt>
<trkpt lat="24.569296" lon="107.720114">
<time>2016-10-06T17:12:26Z</time></trkpt>
<trkpt lat="24.569306" lon="107.719994">
<time>2016-10-06T17:12:27Z</time></trkpt>
<trkpt lat="24.569296" lon="107.719874">
<time>2016-10-06T17:12:28Z</time></trkpt>
<trkpt lat="24.569276" lon="107.719774">
<time>2016-10-06T17:12:29Z</time></trkpt>
<trkpt lat="24.569256" lon="107.719704">
<time>2016-10-06T17:12:30Z</time></trkpt>
<trkpt lat="24.569207" lon="107.719554">
<time>2016-10-06T17:12:31Z</time></trkpt>
<trkpt lat="24.569157" lon="107.719474">
<time>2016-10-06T17:12:32Z</time></trkpt>
<trkpt lat="24.569117" lon="107.719424">
<time>2016-10-06T17:12:33Z</time></trkpt>
<trkpt lat="24.568957" lon="107.719234">
<time>2016-10-06T17:12:34Z</time></trkpt>
<trkpt lat="24.568607" lon="107.718905">
<time>2016-10-06T17:12:35Z</time></trkpt>
<trkpt lat="24.568277" lon="107.718565">
<time>2016-10-06T17:12:36Z</time></trkpt>
<trkpt lat="24.568108" lon="107.718345">
<time>2016-10-06T17:12:37Z</time></trkpt>
<trkpt lat="24.567988" lon="107.718155">
<time>2016-10-06T17:12:38Z</time></trkpt>
<trkpt lat="24.567888" lon="107.717956">
<time>2016-10-06T17:12:39Z</time></trkpt>
<trkpt lat="24.567808" lon="107.717746">
<time>2016-10-06T17:12:40Z</time></trkpt>
<trkpt lat="24.567778" lon="107.717636">
<time>2016-10-06T17:12:41Z</time></trkpt>
<trkpt lat="24.567758" lon="107.717566">
<time>2016-10-06T17:12:42Z</time></trkpt>
<trkpt lat="24.567739" lon="107.717406">
<time>2016-10-06T17:12:43Z</time></trkpt>
<trkpt lat="24.567729" lon="107.717346">
<time>2016-10-06T17:12:44Z</time></trkpt>
<trkpt lat="24.567719" lon="107.717216">
<time>2016-10-06T17:12:45Z</time></trkpt>
<trkpt lat="24.567719" lon="107.717107">
<time>2016-10-06T17:12:46Z</time></trkpt>
<trkpt lat="24.567719" lon="107.717017">
<time>2016-10-06T17:12:47Z</time></trkpt>
<trkpt lat="24.567729" lon="107.716877">
<time>2016-10-06T17:12:48Z</time></trkpt>
<trkpt lat="24.567729" lon="107.716757">
<time>2016-10-06T17:12:49Z</time></trkpt>
<trkpt lat="24.567749" lon="107.716647">
<time>2016-10-06T17:12:50Z</time></trkpt>
<trkpt lat="24.567759" lon="107.716577">
<time>2016-10-06T17:12:51Z</time></trkpt>
<trkpt lat="24.56781" lon="107.716337">
<time>2016-10-06T17:12:52Z</time></trkpt>
<trkpt lat="24.56787" lon="107.716098">
<time>2016-10-06T17:12:53Z</time></trkpt>
<trkpt lat="24.5679" lon="107.715978">
<time>2016-10-06T17:12:54Z</time></trkpt>
<trkpt lat="24.56794" lon="107.715758">
<time>2016-10-06T17:12:55Z</time></trkpt>
<trkpt lat="24.56795" lon="107.715688">
<time>2016-10-06T17:12:56Z</time></trkpt>
<trkpt lat="24.567971" lon="107.715538">
<time>2016-10-06T17:12:57Z</time></trkpt>
<trkpt lat="24.567971" lon="107.715438">
<time>2016-10-06T17:12:58Z</time></trkpt>
<trkpt lat="24.567961" lon="107.715378">
<time>2016-10-06T17:12:59Z</time></trkpt>
<trkpt lat="24.567951" lon="107.715188">
<time>2016-10-06T17:13:00Z</time></trkpt>
<trkpt lat="24.567921" lon="107.715079">
<time>2016-10-06T17:13:01Z</time></trkpt>
<trkpt lat="24.567901" lon="107.714999">
<time>2016-10-06T17:13:02Z</time></trkpt>
<trkpt lat="24.567831" lon="107.714839">
<time>2016-10-06T17:13:03Z</time></trkpt>
<trkpt lat="24.567781" lon="107.714749">
<time>2016-10-06T17:13:04Z</time></trkpt>
<trkpt lat="24.567522" lon="107.714399">
<time>2016-10-06T17:13:05Z</time></trkpt>
<trkpt lat="24.567272" lon="107.71411">
<time>2016-10-06T17:13:06Z</time></trkpt>
<trkpt lat="24.567082" lon="107.71388">
<time>2016-10-06T17:13:07Z</time></trkpt>
<trkpt lat="24.566883" lon="107.71363">
<time>2016-10-06T17:13:08Z</time></trkpt>
<trkpt lat="24.566713" lon="107.713391">
<time>2016-10-06T17:13:09Z</time></trkpt>
<trkpt lat="24.566673" lon="107.713311">
<time>2016-10-06T17:13:10Z</time></trkpt>
<trkpt lat="24.566623" lon="107.713211">
<time>2016-10-06T17:13:11Z</time></trkpt>
<trkpt lat="24.566553" lon="107.713021">
<time>2016-10-06T17:13:12Z</time></trkpt>
<trkpt lat="24.566523" lon="107.712921">
<time>2016-10-06T17:13:13Z</time></trkpt>
<trkpt lat="24.566504" lon="107.712811">
<time>2016-10-06T17:13:14Z</time></trkpt>
<trkpt lat="24.566494" lon="107.712731">
<time>2016-10-06T17:13:15Z</time></trkpt>
<trkpt lat="24.566494" lon="107.712631">
<time>2016-10-06T17:13:16Z</time></trkpt>
<trkpt lat="24.566494" lon="107.712452">
<time>2016-10-06T17:13:17Z</time></trkpt>
<trkpt lat="24.566544" lon="107.712092">
<time>2016-10-06T17:13:18Z</time></trkpt>
<trkpt lat="24.566595" lon="107.711732">
<time>2016-10-06T17:13:19Z</time></trkpt>
<trkpt lat="24.566615" lon="107.711583">
<time>2016-10-06T17:13:20Z</time></trkpt>
<trkpt lat="24.566645" lon="107.711423">
<time>2016-10-06T17:13:21Z</time></trkpt>
<trkpt lat="24.566686" lon="107.711223">
<time>2016-10-06T17:13:22Z</time></trkpt>
<trkpt lat="24.566756" lon="107.710983">
<time>2016-10-06T17:13:23Z</time></trkpt>
<trkpt lat="24.566806" lon="107.710824">
<time>2016-10-06T17:13:24Z</time></trkpt>
<trkpt lat="24.566856" lon="107.710684">
<time>2016-10-06T17:13:25Z</time></trkpt>
<trkpt lat="24.566916" lon="107.710524">
<time>2016-10-06T17:13:26Z</time></trkpt>
<trkpt lat="24.567007" lon="107.710294">
<time>2016-10-06T17:13:27Z</time></trkpt>
<trkpt lat="24.567067" lon="107.710164">
<time>2016-10-06T17:13:28Z</time></trkpt>
<trkpt lat="24.567127" lon="107.710025">
<time>2016-10-06T17:13:29Z</time></trkpt>
<trkpt lat="24.567157" lon="107.709955">
<time>2016-10-06T17:13:30Z</time></trkpt>
<trkpt lat="24.567217" lon="107.709855">
<time>2016-10-06T17:13:31Z</time></trkpt>
<trkpt lat="24.567287" lon="107.709715">
<time>2016-10-06T17:13:32Z</time></trkpt>
<trkpt lat="24.567338" lon="107.709625">
<time>2016-10-06T17:13:33Z</time></trkpt>
<trkpt lat="24.567428" lon="107.709495">
<time>2016-10-06T17:13:34Z</time></trkpt>
<trkpt lat="24.567568" lon="107.709275">
<time>2016-10-06T17:13:35Z</time></trkpt>
<trkpt lat="24.567688" lon="107.709076">
<time>2016-10-06T17:13:36Z</time></trkpt>
<trkpt lat="24.567819" lon="107.708866">
<time>2016-10-06T17:13:37Z</time></trkpt>
<trkpt lat="24.567959" lon="107.708616">
<time>2016-10-06T17:13:38Z</time></trkpt>
<trkpt lat="24.568049" lon="107.708437">
<time>2016-10-06T17:13:39Z</time></trkpt>
<trkpt lat="24.56823" lon="107.708037">
<time>2016-10-06T17:13:40Z</time></trkpt>
<trkpt lat="24.56841" lon="107.707558">
<time>2016-10-06T17:13:41Z</time></trkpt>
<trkpt lat="24.568521" lon="107.707248">
<time>2016-10-06T17:13:42Z</time></trkpt>
<trkpt lat="24.568691" lon="107.706779">
<time>2016-10-06T17:13:43Z</time></trkpt>
<trkpt lat="24.568782" lon="107.706509">
<time>2016-10-06T17:13:44Z</time></trkpt>
<trkpt lat="24.568892" lon="107.706249">
<time>2016-10-06T17:13:45Z</time></trkpt>
<trkpt lat="24.568972" lon="107.70605">
<time>2016-10-06T17:13:46Z</time></trkpt>
<trkpt lat="24.569083" lon="107.70583">
<time>2016-10-06T17:13:47Z</time></trkpt>
<trkpt lat="24.569303" lon="107.7055">
<time>2016-10-06T17:13:48Z</time></trkpt>
<trkpt lat="24.569604" lon="107.705131">
<time>2016-10-06T17:13:49Z</time></trkpt>
<trkpt lat="24.569764" lon="107.704941">
<time>2016-10-06T17:13:50Z</time></trkpt>
<trkpt lat="24.569834" lon="107.704861">
<time>2016-10-06T17:13:51Z</time></trkpt>
<trkpt lat="24.569964" lon="107.704701">
<time>2016-10-06T17:13:52Z</time></trkpt>
<trkpt lat="24.570145" lon="107.704482">
<time>2016-10-06T17:13:53Z</time></trkpt>
<trkpt lat="24.570325" lon="107.704242">
<time>2016-10-06T17:13:54Z</time></trkpt>
<trkpt lat="24.570475" lon="107.704052">
<time>2016-10-06T17:13:55Z</time></trkpt>
<trkpt lat="24.570766" lon="107.703653">
<time>2016-10-06T17:13:56Z</time></trkpt>
<trkpt lat="24.570986" lon="107.703343">
<time>2016-10-06T17:13:57Z</time></trkpt>
<trkpt lat="24.571197" lon="107.703104">
<time>2016-10-06T17:13:58Z</time></trkpt>
<trkpt lat="24.571307" lon="107.702994">
<time>2016-10-06T17:13:59Z</time></trkpt>
<trkpt lat="24.571397" lon="107.702914">
<time>2016-10-06T17:14:00Z</time></trkpt>
<trkpt lat="24.571477" lon="107.702844">
<time>2016-10-06T17:14:01Z</time></trkpt>
<trkpt lat="24.571587" lon="107.702774">
<time>2016-10-06T17:14:02Z</time></trkpt>
<trkpt lat="24.571808" lon="107.702634">
<time>2016-10-06T17:14:03Z</time></trkpt>
<trkpt lat="24.572478" lon="107.702325">
<time>2016-10-06T17:14:04Z</time></trkpt>
<trkpt lat="24.572778" lon="107.702195">
<time>2016-10-06T17:14:05Z</time></trkpt>
<trkpt lat="24.572968" lon="107.702105">
<time>2016-10-06T17:14:06Z</time></trkpt>
<trkpt lat="24.573149" lon="107.702025">
<time>2016-10-06T17:14:07Z</time></trkpt>
<trkpt lat="24.573279" lon="107.701965">
<time>2016-10-06T17:14:08Z</time></trkpt>
<trkpt lat="24.573429" lon="107.701905">
<time>2016-10-06T17:14:09Z</time></trkpt>
<trkpt lat="24.573569" lon="107.701835">
<time>2016-10-06T17:14:10Z</time></trkpt>
<trkpt lat="24.573679" lon="107.701795">
<time>2016-10-06T17:14:11Z</time></trkpt>
<trkpt lat="24.573809" lon="107.701736">
<time>2016-10-06T17:14:12Z</time></trkpt>
<trkpt lat="24.573919" lon="107.701686">
<time>2016-10-06T17:14:13Z</time></trkpt>
<trkpt lat="24.574029" lon="107.701636">
<time>2016-10-06T17:14:14Z</time></trkpt>
<trkpt lat="24.574179" lon="107.701566">
<time>2016-10-06T17:14:15Z</time></trkpt>
<trkpt lat="24.574279" lon="107.701526">
<time>2016-10-06T17:14:16Z</time></trkpt>
<trkpt lat="24.574419" lon="107.701466">
<time>2016-10-06T17:14:17Z</time></trkpt>
<trkpt lat="24.5745" lon="107.701426">
<time>2016-10-06T17:14:18Z</time></trkpt>
<trkpt lat="24.57458" lon="107.701386">
<time>2016-10-06T17:14:19Z</time></trkpt>
<trkpt lat="24.57466" lon="107.701346">
<time>2016-10-06T17:14:20Z</time></trkpt>
<trkpt lat="24.57473" lon="107.701316">
<time>2016-10-06T17:14:21Z</time></trkpt>
<trkpt lat="24.57483" lon="107.701266">
<time>2016-10-06T17:14:22Z</time></trkpt>
<trkpt lat="24.57497" lon="107.701186">
<time>2016-10-06T17:14:23Z</time></trkpt>
<trkpt lat="24.5751" lon="107.701086">
<time>2016-10-06T17:14:24Z</time></trkpt>
<trkpt lat="24.57519" lon="107.701017">
<time>2016-10-06T17:14:25Z</time></trkpt>
<trkpt lat="24.57532" lon="107.700907">
<time>2016-10-06T17:14:26Z</time></trkpt>
<trkpt lat="24.575391" lon="107.700817">
<time>2016-10-06T17:14:27Z</time></trkpt>
<trkpt lat="24.575441" lon="107.700767">
<time>2016-10-06T17:14:28Z</time></trkpt>
<trkpt lat="24.575521" lon="107.700667">
<time>2016-10-06T17:14:29Z</time></trkpt>
<trkpt lat="24.575601" lon="107.700537">
<time>2016-10-06T17:14:30Z</time></trkpt>
<trkpt lat="24.575671" lon="107.700407">
<time>2016-10-06T17:14:31Z</time></trkpt>
<trkpt lat="24.575721" lon="107.700308">
<time>2016-10-06T17:14:32Z</time></trkpt>
<trkpt lat="24.575782" lon="107.700148">
<time>2016-10-06T17:14:33Z</time></trkpt>
<trkpt lat="24.575842" lon="107.699998">
<time>2016-10-06T17:14:34Z</time></trkpt>
<trkpt lat="24.576043" lon="107.699369">
<time>2016-10-06T17:14:35Z</time></trkpt>
<trkpt lat="24.576294" lon="107.69858">
<time>2016-10-06T17:14:36Z</time></trkpt>
<trkpt lat="24.576354" lon="107.698371">
<time>2016-10-06T17:14:37Z</time></trkpt>
<trkpt lat="24.576395" lon="107.698251">
<time>2016-10-06T17:14:38Z</time></trkpt>
<trkpt lat="24.576435" lon="107.698111">
<time>2016-10-06T17:14:39Z</time></trkpt>
<trkpt lat="24.576455" lon="107.698051">
<time>2016-10-06T17:14:40Z</time></trkpt>
<trkpt lat="24.576495" lon="107.697921">
<time>2016-10-06T17:14:41Z</time></trkpt>
<trkpt lat="24.576596" lon="107.697602">
<time>2016-10-06T17:14:42Z</time></trkpt>
<trkpt lat="24.576686" lon="107.697352">
<time>2016-10-06T17:14:43Z</time></trkpt>
<trkpt lat="24.576766" lon="107.697153">
<time>2016-10-06T17:14:44Z</time></trkpt>
<trkpt lat="24.576867" lon="107.696963">
<time>2016-10-06T17:14:45Z</time></trkpt>
<trkpt lat="24.576947" lon="107.696823">
<time>2016-10-06T17:14:46Z</time></trkpt>
<trkpt lat="24.577037" lon="107.696683">
<time>2016-10-06T17:14:47Z</time></trkpt>
<trkpt lat="24.577157" lon="107.696524">
<time>2016-10-06T17:14:48Z</time></trkpt>
<trkpt lat="24.577338" lon="107.696304">
<time>2016-10-06T17:14:49Z</time></trkpt>
<trkpt lat="24.577498" lon="107.696114">
<time>2016-10-06T17:14:50Z</time></trkpt>
<trkpt lat="24.577688" lon="107.695905">
<time>2016-10-06T17:14:51Z</time></trkpt>
<trkpt lat="24.577939" lon="107.695635">
<time>2016-10-06T17:14:52Z</time></trkpt>
<trkpt lat="24.578149" lon="107.695395">
<time>2016-10-06T17:14:53Z</time></trkpt>
<trkpt lat="24.5784" lon="107.695126">
<time>2016-10-06T17:14:54Z</time></trkpt>
<trkpt lat="24.57866" lon="107.694886">
<time>2016-10-06T17:14:55Z</time></trkpt>
<trkpt lat="24.579081" lon="107.694617">
<time>2016-10-06T17:14:56Z</time></trkpt>
<trkpt lat="24.579271" lon="107.694517">
<time>2016-10-06T17:14:57Z</time></trkpt>
<trkpt lat="24.579401" lon="107.694457">
<time>2016-10-06T17:14:58Z</time></trkpt>
<trkpt lat="24.579491" lon="107.694407">
<time>2016-10-06T17:14:59Z</time></trkpt>
<trkpt lat="24.579611" lon="107.694337">
<time>2016-10-06T17:15:00Z</time></trkpt>
<trkpt lat="24.579711" lon="107.694277">
<time>2016-10-06T17:15:01Z</time></trkpt>
<trkpt lat="24.579791" lon="107.694227">
<time>2016-10-06T17:15:02Z</time></trkpt>
<trkpt lat="24.579881" lon="107.694157">
<time>2016-10-06T17:15:03Z</time></trkpt>
<trkpt lat="24.579992" lon="107.694067">
<time>2016-10-06T17:15:04Z</time></trkpt>
<trkpt lat="24.580052" lon="107.694008">
<time>2016-10-06T17:15:05Z</time></trkpt>
<trkpt lat="24.580272" lon="107.693778">
<time>2016-10-06T17:15:06Z</time></trkpt>
<trkpt lat="24.580432" lon="107.693608">
<time>2016-10-06T17:15:07Z</time></trkpt>
<trkpt lat="24.580542" lon="107.693508">
<time>2016-10-06T17:15:08Z</time></trkpt>
<trkpt lat="24.580623" lon="107.693449">
<time>2016-10-06T17:15:09Z</time></trkpt>
<trkpt lat="24.580723" lon="107.693389">
<time>2016-10-06T17:15:10Z</time></trkpt>
<trkpt lat="24.580743" lon="107.693379">
<time>2016-10-06T17:15:11Z</time></trkpt>
<trkpt lat="24.580833" lon="107.693339">
<time>2016-10-06T17:15:12Z</time></trkpt>
<trkpt lat="24.580983" lon="107.693289">
<time>2016-10-06T17:15:13Z</time></trkpt>
<trkpt lat="24.581203" lon="107.693259">
<time>2016-10-06T17:15:14Z</time></trkpt>
<trkpt lat="24.581423" lon="107.693269">
<time>2016-10-06T17:15:15Z</time></trkpt>
<trkpt lat="24.582003" lon="107.693269">
<time>2016-10-06T17:15:16Z</time></trkpt>
<trkpt lat="24.582223" lon="107.693249">
<time>2016-10-06T17:15:17Z</time></trkpt>
<trkpt lat="24.582453" lon="107.693219">
<time>2016-10-06T17:15:18Z</time></trkpt>
<trkpt lat="24.582763" lon="107.693129">
<time>2016-10-06T17:15:19Z</time></trkpt>
<trkpt lat="24.583184" lon="107.692979">
<time>2016-10-06T17:15:20Z</time></trkpt>
<trkpt lat="24.583324" lon="107.692909">
<time>2016-10-06T17:15:21Z</time></trkpt>
<trkpt lat="24.583494" lon="107.692819">
<time>2016-10-06T17:15:22Z</time></trkpt>
<trkpt lat="24.583834" lon="107.69264">
<time>2016-10-06T17:15:23Z</time></trkpt>
<trkpt lat="24.584024" lon="107.69254">
<time>2016-10-06T17:15:24Z</time></trkpt>
<trkpt lat="24.584335" lon="107.69232">
<time>2016-10-06T17:15:25Z</time></trkpt>
<trkpt lat="24.584505" lon="107.69219">
<time>2016-10-06T17:15:26Z</time></trkpt>
<trkpt lat="24.584635" lon="107.692071">
<time>2016-10-06T17:15:27Z</time></trkpt>
<trkpt lat="24.584906" lon="107.691791">
<time>2016-10-06T17:15:28Z</time></trkpt>
<trkpt lat="24.585768" lon="107.690763">
<time>2016-10-06T17:15:29Z</time></trkpt>
<trkpt lat="24.586088" lon="107.690374">
<time>2016-10-06T17:15:30Z</time></trkpt>
<trkpt lat="24.586208" lon="107.690204">
<time>2016-10-06T17:15:31Z</time></trkpt>
<trkpt lat="24.586359" lon="107.689994">
<time>2016-10-06T17:15:32Z</time></trkpt>
<trkpt lat="24.58664" lon="107.689535">
<time>2016-10-06T17:15:33Z</time></trkpt>
<trkpt lat="24.5868" lon="107.689256">
<time>2016-10-06T17:15:34Z</time></trkpt>
<trkpt lat="24.587021" lon="107.688836">
<time>2016-10-06T17:15:35Z</time></trkpt>
<trkpt lat="24.587784" lon="107.687369">
<time>2016-10-06T17:15:36Z</time></trkpt>
<trkpt lat="24.588476" lon="107.686031">
<time>2016-10-06T17:15:37Z</time></trkpt>
<trkpt lat="24.588867" lon="107.685263">
<time>2016-10-06T17:15:38Z</time></trkpt>
<trkpt lat="24.589439" lon="107.684165">
<time>2016-10-06T17:15:39Z</time></trkpt>
<trkpt lat="24.58957" lon="107.683925">
<time>2016-10-06T17:15:40Z</time></trkpt>
<trkpt lat="24.589891" lon="107.683286">
<time>2016-10-06T17:15:41Z</time></trkpt>
<trkpt lat="24.590092" lon="107.682927">
<time>2016-10-06T17:15:42Z</time></trkpt>
<trkpt lat="24.590403" lon="107.682408">
<time>2016-10-06T17:15:43Z</time></trkpt>
<trkpt lat="24.590724" lon="107.681899">
<time>2016-10-06T17:15:44Z</time></trkpt>
<trkpt lat="24.591125" lon="107.68135">
<time>2016-10-06T17:15:45Z</time></trkpt>
<trkpt lat="24.591395" lon="107.681011">
<time>2016-10-06T17:15:46Z</time></trkpt>
<trkpt lat="24.591987" lon="107.680332">
<time>2016-10-06T17:15:47Z</time></trkpt>
<trkpt lat="24.592457" lon="107.679853">
<time>2016-10-06T17:15:48Z</time></trkpt>
<trkpt lat="24.592688" lon="107.679593">
<time>2016-10-06T17:15:49Z</time></trkpt>
<trkpt lat="24.592838" lon="107.679444">
<time>2016-10-06T17:15:50Z</time></trkpt>
<trkpt lat="24.592989" lon="107.679304">
<time>2016-10-06T17:15:51Z</time></trkpt>
<trkpt lat="24.593119" lon="107.679184">
<time>2016-10-06T17:15:52Z</time></trkpt>
<trkpt lat="24.593289" lon="107.679064">
<time>2016-10-06T17:15:53Z</time></trkpt>
<trkpt lat="24.593439" lon="107.678974">
<time>2016-10-06T17:15:54Z</time></trkpt>
<trkpt lat="24.593609" lon="107.678895">
<time>2016-10-06T17:15:55Z</time></trkpt>
<trkpt lat="24.59383" lon="107.678805">
<time>2016-10-06T17:15:56Z</time></trkpt>
<trkpt lat="24.59402" lon="107.678765">
<time>2016-10-06T17:15:57Z</time></trkpt>
<trkpt lat="24.59428" lon="107.678695">
<time>2016-10-06T17:15:58Z</time></trkpt>
<trkpt lat="24.59484" lon="107.678585">
<time>2016-10-06T17:15:59Z</time></trkpt>
<trkpt lat="24.59524" lon="107.678505">
<time>2016-10-06T17:16:00Z</time></trkpt>
<trkpt lat="24.59542" lon="107.678455">
<time>2016-10-06T17:16:01Z</time></trkpt>
<trkpt lat="24.59557" lon="107.678415">
<time>2016-10-06T17:16:02Z</time></trkpt>
<trkpt lat="24.595711" lon="107.678346">
<time>2016-10-06T17:16:03Z</time></trkpt>
<trkpt lat="24.595831" lon="107.678266">
<time>2016-10-06T17:16:04Z</time></trkpt>
<trkpt lat="24.595951" lon="107.678166">
<time>2016-10-06T17:16:05Z</time></trkpt>
<trkpt lat="24.596071" lon="107.678016">
<time>2016-10-06T17:16:06Z</time></trkpt>
<trkpt lat="24.596151" lon="107.677866">
<time>2016-10-06T17:16:07Z</time></trkpt>
<trkpt lat="24.596202" lon="107.677717">
<time>2016-10-06T17:16:08Z</time></trkpt>
<trkpt lat="24.596242" lon="107.677537">
<time>2016-10-06T17:16:09Z</time></trkpt>
<trkpt lat="24.596262" lon="107.677327">
<time>2016-10-06T17:16:10Z</time></trkpt>
<trkpt lat="24.596313" lon="107.676988">
<time>2016-10-06T17:16:11Z</time></trkpt>
<trkpt lat="24.596344" lon="107.676739">
<time>2016-10-06T17:16:12Z</time></trkpt>
<trkpt lat="24.596374" lon="107.676569">
<time>2016-10-06T17:16:13Z</time></trkpt>
<trkpt lat="24.596424" lon="107.676409">
<time>2016-10-06T17:16:14Z</time></trkpt>
<trkpt lat="24.596484" lon="107.67625">
<time>2016-10-06T17:16:15Z</time></trkpt>
<trkpt lat="24.596555" lon="107.67606">
<time>2016-10-06T17:16:16Z</time></trkpt>
<trkpt lat="24.596675" lon="107.67584">
<time>2016-10-06T17:16:17Z</time></trkpt>
<trkpt lat="24.596816" lon="107.675631">
<time>2016-10-06T17:16:18Z</time></trkpt>
<trkpt lat="24.597006" lon="107.675361">
<time>2016-10-06T17:16:19Z</time></trkpt>
<trkpt lat="24.597227" lon="107.675092">
<time>2016-10-06T17:16:20Z</time></trkpt>
<trkpt lat="24.597337" lon="107.674902">
<time>2016-10-06T17:16:21Z</time></trkpt>
<trkpt lat="24.597417" lon="107.674753">
<time>2016-10-06T17:16:22Z</time></trkpt>
<trkpt lat="24.597478" lon="107.674583">
<time>2016-10-06T17:16:23Z</time></trkpt>
<trkpt lat="24.597518" lon="107.674423">
<time>2016-10-06T17:16:24Z</time></trkpt>
<trkpt lat="24.597538" lon="107.674283">
<time>2016-10-06T17:16:25Z</time></trkpt>
<trkpt lat="24.597549" lon="107.674114">
<time>2016-10-06T17:16:26Z</time></trkpt>
<trkpt lat="24.597539" lon="107.673904">
<time>2016-10-06T17:16:27Z</time></trkpt>
<trkpt lat="24.597371" lon="107.672796">
<time>2016-10-06T17:16:28Z</time></trkpt>
<trkpt lat="24.597233" lon="107.671888">
<time>2016-10-06T17:16:29Z</time></trkpt>
<trkpt lat="24.597194" lon="107.671479">
<time>2016-10-06T17:16:30Z</time></trkpt>
<trkpt lat="24.597194" lon="107.67105">
<time>2016-10-06T17:16:31Z</time></trkpt>
<trkpt lat="24.597245" lon="107.670701">
<time>2016-10-06T17:16:32Z</time></trkpt>
<trkpt lat="24.597326" lon="107.670381">
<time>2016-10-06T17:16:33Z</time></trkpt>
<trkpt lat="24.597446" lon="107.670062">
<time>2016-10-06T17:16:34Z</time></trkpt>
<trkpt lat="24.597587" lon="107.669762">
<time>2016-10-06T17:16:35Z</time></trkpt>
<trkpt lat="24.599293" lon="107.666888">
<time>2016-10-06T17:16:36Z</time></trkpt>
<trkpt lat="24.600045" lon="107.665621">
<time>2016-10-06T17:16:37Z</time></trkpt>
<trkpt lat="24.600406" lon="107.665072">
<time>2016-10-06T17:16:38Z</time></trkpt>
<trkpt lat="24.600607" lon="107.664762">
<time>2016-10-06T17:16:39Z</time></trkpt>
<trkpt lat="24.600767" lon="107.664583">
<time>2016-10-06T17:16:40Z</time></trkpt>
<trkpt lat="24.600887" lon="107.664453">
<time>2016-10-06T17:16:41Z</time></trkpt>
<trkpt lat="24.601057" lon="107.664343">
<time>2016-10-06T17:16:42Z</time></trkpt>
<trkpt lat="24.601228" lon="107.664273">
<time>2016-10-06T17:16:43Z</time></trkpt>
<trkpt lat="24.601448" lon="107.664193">
<time>2016-10-06T17:16:44Z</time></trkpt>
<trkpt lat="24.601818" lon="107.664114">
<time>2016-10-06T17:16:45Z</time></trkpt>
<trkpt lat="24.602088" lon="107.664044">
<time>2016-10-06T17:16:46Z</time></trkpt>
<trkpt lat="24.602368" lon="107.663924">
<time>2016-10-06T17:16:47Z</time></trkpt>
<trkpt lat="24.602559" lon="107.663824">
<time>2016-10-06T17:16:48Z</time></trkpt>
<trkpt lat="24.602789" lon="107.663664">
<time>2016-10-06T17:16:49Z</time></trkpt>
<trkpt lat="24.602949" lon="107.663495">
<time>2016-10-06T17:16:50Z</time></trkpt>
<trkpt lat="24.60314" lon="107.663245">
<time>2016-10-06T17:16:51Z</time></trkpt>
<trkpt lat="24.603702" lon="107.662297">
<time>2016-10-06T17:16:52Z</time></trkpt>
<trkpt lat="24.604093" lon="107.661638">
<time>2016-10-06T17:16:53Z</time></trkpt>
<trkpt lat="24.604253" lon="107.661389">
<time>2016-10-06T17:16:54Z</time></trkpt>
<trkpt lat="24.604384" lon="107.661249">
<time>2016-10-06T17:16:55Z</time></trkpt>
<trkpt lat="24.604574" lon="107.66107">
<time>2016-10-06T17:16:56Z</time></trkpt>
<trkpt lat="24.604774" lon="107.6609">
<time>2016-10-06T17:16:57Z</time></trkpt>
<trkpt lat="24.605025" lon="107.66076">
<time>2016-10-06T17:16:58Z</time></trkpt>
<trkpt lat="24.605465" lon="107.660551">
<time>2016-10-06T17:16:59Z</time></trkpt>
<trkpt lat="24.605755" lon="107.660411">
<time>2016-10-06T17:17:00Z</time></trkpt>
<trkpt lat="24.605955" lon="107.660271">
<time>2016-10-06T17:17:01Z</time></trkpt>
<trkpt lat="24.606056" lon="107.660171">
<time>2016-10-06T17:17:02Z</time></trkpt>
<trkpt lat="24.606156" lon="107.660071">
<time>2016-10-06T17:17:03Z</time></trkpt>
<trkpt lat="24.606226" lon="107.659962">
<time>2016-10-06T17:17:04Z</time></trkpt>
<trkpt lat="24.606286" lon="107.659852">
<time>2016-10-06T17:17:05Z</time></trkpt>
<trkpt lat="24.606367" lon="107.659672">
<time>2016-10-06T17:17:06Z</time></trkpt>
<trkpt lat="24.606417" lon="107.659533">
<time>2016-10-06T17:17:07Z</time></trkpt>
<trkpt lat="24.606437" lon="107.659433">
<time>2016-10-06T17:17:08Z</time></trkpt>
<trkpt lat="24.606488" lon="107.659163">
<time>2016-10-06T17:17:09Z</time></trkpt>
<trkpt lat="24.60667" lon="107.657916">
<time>2016-10-06T17:17:10Z</time></trkpt>
<trkpt lat="24.606741" lon="107.657347">
<time>2016-10-06T17:17:11Z</time></trkpt>
<trkpt lat="24.606822" lon="107.656848">
<time>2016-10-06T17:17:12Z</time></trkpt>
<trkpt lat="24.606882" lon="107.656578">
<time>2016-10-06T17:17:13Z</time></trkpt>
<trkpt lat="24.606933" lon="107.656409">
<time>2016-10-06T17:17:14Z</time></trkpt>
<trkpt lat="24.606973" lon="107.656279">
<time>2016-10-06T17:17:15Z</time></trkpt>
<trkpt lat="24.607033" lon="107.656149">
<time>2016-10-06T17:17:16Z</time></trkpt>
<trkpt lat="24.607113" lon="107.656039">
<time>2016-10-06T17:17:17Z</time></trkpt>
<trkpt lat="24.607204" lon="107.65592">
<time>2016-10-06T17:17:18Z</time></trkpt>
<trkpt lat="24.607344" lon="107.65577">
<time>2016-10-06T17:17:19Z</time></trkpt>
<trkpt lat="24.607434" lon="107.6557">
<time>2016-10-06T17:17:20Z</time></trkpt>
<trkpt lat="24.607574" lon="107.6556">
<time>2016-10-06T17:17:21Z</time></trkpt>
<trkpt lat="24.607734" lon="107.65552">
<time>2016-10-06T17:17:22Z</time></trkpt>
<trkpt lat="24.607895" lon="107.655451">
<time>2016-10-06T17:17:23Z</time></trkpt>
<trkpt lat="24.608015" lon="107.655411">
<time>2016-10-06T17:17:24Z</time></trkpt>
<trkpt lat="24.608365" lon="107.655291">
<time>2016-10-06T17:17:25Z</time></trkpt>
<trkpt lat="24.608565" lon="107.655191">
<time>2016-10-06T17:17:26Z</time></trkpt>
<trkpt lat="24.608725" lon="107.655101">
<time>2016-10-06T17:17:27Z</time></trkpt>
<trkpt lat="24.608906" lon="107.654961">
<time>2016-10-06T17:17:28Z</time></trkpt>
<trkpt lat="24.609016" lon="107.654842">
<time>2016-10-06T17:17:29Z</time></trkpt>
<trkpt lat="24.609116" lon="107.654742">
<time>2016-10-06T17:17:30Z</time></trkpt>
<trkpt lat="24.609226" lon="107.654592">
<time>2016-10-06T17:17:31Z</time></trkpt>
<trkpt lat="24.609327" lon="107.654422">
<time>2016-10-06T17:17:32Z</time></trkpt>
<trkpt lat="24.609918" lon="107.653404">
<time>2016-10-06T17:17:33Z</time></trkpt>
<trkpt lat="24.61044" lon="107.652496">
<time>2016-10-06T17:17:34Z</time></trkpt>
<trkpt lat="24.610591" lon="107.652217">
<time>2016-10-06T17:17:35Z</time></trkpt>
<trkpt lat="24.610882" lon="107.651728">
<time>2016-10-06T17:17:36Z</time></trkpt>
<trkpt lat="24.611002" lon="107.651548">
<time>2016-10-06T17:17:37Z</time></trkpt>
<trkpt lat="24.611052" lon="107.651468">
<time>2016-10-06T17:17:38Z</time></trkpt>
<trkpt lat="24.611222" lon="107.651239">
<time>2016-10-06T17:17:39Z</time></trkpt>
<trkpt lat="24.611393" lon="107.651049">
<time>2016-10-06T17:17:40Z</time></trkpt>
<trkpt lat="24.611553" lon="107.650899">
<time>2016-10-06T17:17:41Z</time></trkpt>
<trkpt lat="24.611763" lon="107.650739">
<time>2016-10-06T17:17:42Z</time></trkpt>
<trkpt lat="24.611944" lon="107.65061">
<time>2016-10-06T17:17:43Z</time></trkpt>
<trkpt lat="24.612424" lon="107.65035">
<time>2016-10-06T17:17:44Z</time></trkpt>
<trkpt lat="24.612664" lon="107.65021">
<time>2016-10-06T17:17:45Z</time></trkpt>
<trkpt lat="24.612825" lon="107.650101">
<time>2016-10-06T17:17:46Z</time></trkpt>
<trkpt lat="24.612935" lon="107.650031">
<time>2016-10-06T17:17:47Z</time></trkpt>
<trkpt lat="24.613005" lon="107.649961">
<time>2016-10-06T17:17:48Z</time></trkpt>
<trkpt lat="24.613135" lon="107.649831">
<time>2016-10-06T17:17:49Z</time></trkpt>
<trkpt lat="24.613245" lon="107.649691">
<time>2016-10-06T17:17:50Z</time></trkpt>
<trkpt lat="24.613326" lon="107.649592">
<time>2016-10-06T17:17:51Z</time></trkpt>
<trkpt lat="24.613767" lon="107.648863">
<time>2016-10-06T17:17:52Z</time></trkpt>
<trkpt lat="24.613987" lon="107.648514">
<time>2016-10-06T17:17:53Z</time></trkpt>
<trkpt lat="24.614078" lon="107.648374">
<time>2016-10-06T17:17:54Z</time></trkpt>
<trkpt lat="24.61496" lon="107.647166">
<time>2016-10-06T17:17:55Z</time></trkpt>
<trkpt lat="24.615471" lon="107.646397">
<time>2016-10-06T17:17:56Z</time></trkpt>
<trkpt lat="24.615892" lon="107.645729">
<time>2016-10-06T17:17:57Z</time></trkpt>
<trkpt lat="24.616193" lon="107.645239">
<time>2016-10-06T17:17:58Z</time></trkpt>
<trkpt lat="24.616304" lon="107.64505">
<time>2016-10-06T17:17:59Z</time></trkpt>
<trkpt lat="24.616374" lon="107.64489">
<time>2016-10-06T17:18:00Z</time></trkpt>
<trkpt lat="24.616454" lon="107.6447">
<time>2016-10-06T17:18:01Z</time></trkpt>
<trkpt lat="24.616575" lon="107.644381">
<time>2016-10-06T17:18:02Z</time></trkpt>
<trkpt lat="24.616675" lon="107.644042">
<time>2016-10-06T17:18:03Z</time></trkpt>
<trkpt lat="24.616766" lon="107.643732">
<time>2016-10-06T17:18:04Z</time></trkpt>
<trkpt lat="24.616896" lon="107.643413">
<time>2016-10-06T17:18:05Z</time></trkpt>
<trkpt lat="24.616977" lon="107.643213">
<time>2016-10-06T17:18:06Z</time></trkpt>
<trkpt lat="24.617077" lon="107.643043">
<time>2016-10-06T17:18:07Z</time></trkpt>
<trkpt lat="24.617177" lon="107.642864">
<time>2016-10-06T17:18:08Z</time></trkpt>
<trkpt lat="24.617328" lon="107.642664">
<time>2016-10-06T17:18:09Z</time></trkpt>
<trkpt lat="24.617508" lon="107.642424">
<time>2016-10-06T17:18:10Z</time></trkpt>
<trkpt lat="24.617969" lon="107.641845">
<time>2016-10-06T17:18:11Z</time></trkpt>
<trkpt lat="24.61847" lon="107.641237">
<time>2016-10-06T17:18:12Z</time></trkpt>
<trkpt lat="24.618791" lon="107.640827">
<time>2016-10-06T17:18:13Z</time></trkpt>
<trkpt lat="24.618951" lon="107.640648">
<time>2016-10-06T17:18:14Z</time></trkpt>
<trkpt lat="24.619081" lon="107.640518">
<time>2016-10-06T17:18:15Z</time></trkpt>
<trkpt lat="24.619242" lon="107.640368">
<time>2016-10-06T17:18:16Z</time></trkpt>
<trkpt lat="24.619422" lon="107.640228">
<time>2016-10-06T17:18:17Z</time></trkpt>
<trkpt lat="24.619612" lon="107.640078">
<time>2016-10-06T17:18:18Z</time></trkpt>
<trkpt lat="24.619882" lon="107.639909">
<time>2016-10-06T17:18:19Z</time></trkpt>
<trkpt lat="24.620022" lon="107.639809">
<time>2016-10-06T17:18:20Z</time></trkpt>
<trkpt lat="24.620153" lon="107.639719">
<time>2016-10-06T17:18:21Z</time></trkpt>
<trkpt lat="24.620293" lon="107.639599">
<time>2016-10-06T17:18:22Z</time></trkpt>
<trkpt lat="24.620383" lon="107.639509">
<time>2016-10-06T17:18:23Z</time></trkpt>
<trkpt lat="24.620463" lon="107.63941">
<time>2016-10-06T17:18:24Z</time></trkpt>
<trkpt lat="24.620754" lon="107.63906">
<time>2016-10-06T17:18:25Z</time></trkpt>
<trkpt lat="24.620914" lon="107.63885">
<time>2016-10-06T17:18:26Z</time></trkpt>
<trkpt lat="24.621174" lon="107.638561">
<time>2016-10-06T17:18:27Z</time></trkpt>
<trkpt lat="24.621345" lon="107.638391">
<time>2016-10-06T17:18:28Z</time></trkpt>
<trkpt lat="24.621655" lon="107.638082">
<time>2016-10-06T17:18:29Z</time></trkpt>
<trkpt lat="24.621815" lon="107.637962">
<time>2016-10-06T17:18:30Z</time></trkpt>
<trkpt lat="24.622546" lon="107.637373">
<time>2016-10-06T17:18:31Z</time></trkpt>
<trkpt lat="24.623087" lon="107.636954">
<time>2016-10-06T17:18:32Z</time></trkpt>
<trkpt lat="24.623247" lon="107.636824">
<time>2016-10-06T17:18:33Z</time></trkpt>
<trkpt lat="24.623347" lon="107.636734">
<time>2016-10-06T17:18:34Z</time></trkpt>
<trkpt lat="24.623458" lon="107.636594">
<time>2016-10-06T17:18:35Z</time></trkpt>
<trkpt lat="24.623518" lon="107.636514">
<time>2016-10-06T17:18:36Z</time></trkpt>
<trkpt lat="24.623568" lon="107.636424">
<time>2016-10-06T17:18:37Z</time></trkpt>
<trkpt lat="24.623608" lon="107.636335">
<time>2016-10-06T17:18:38Z</time></trkpt>
<trkpt lat="24.623648" lon="107.636255">
<time>2016-10-06T17:18:39Z</time></trkpt>
<trkpt lat="24.623678" lon="107.636145">
<time>2016-10-06T17:18:40Z</time></trkpt>
<trkpt lat="24.623688" lon="107.636055">
<time>2016-10-06T17:18:41Z</time></trkpt>
<trkpt lat="24.623709" lon="107.635925">
<time>2016-10-06T17:18:42Z</time></trkpt>
<trkpt lat="24.623709" lon="107.635785">
<time>2016-10-06T17:18:43Z</time></trkpt>
<trkpt lat="24.623699" lon="107.635686">
<time>2016-10-06T17:18:44Z</time></trkpt>
<trkpt lat="24.623679" lon="107.635566">
<time>2016-10-06T17:18:45Z</time></trkpt>
<trkpt lat="24.623659" lon="107.635436">
<time>2016-10-06T17:18:46Z</time></trkpt>
<trkpt lat="24.62361" lon="107.635156">
<time>2016-10-06T17:18:47Z</time></trkpt>
<trkpt lat="24.62359" lon="107.635057">
<time>2016-10-06T17:18:48Z</time></trkpt>
<trkpt lat="24.62358" lon="107.634957">
<time>2016-10-06T17:18:49Z</time></trkpt>
<trkpt lat="24.62358" lon="107.634847">
<time>2016-10-06T17:18:50Z</time></trkpt>
<trkpt lat="24.62359" lon="107.634737">
<time>2016-10-06T17:18:51Z</time></trkpt>
<trkpt lat="24.623601" lon="107.634647">
<time>2016-10-06T17:18:52Z</time></trkpt>
<trkpt lat="24.623611" lon="107.634627">
<time>2016-10-06T17:18:53Z</time></trkpt>
<trkpt lat="24.623641" lon="107.634487">
<time>2016-10-06T17:18:54Z</time></trkpt>
<trkpt lat="24.623671" lon="107.634408">
<time>2016-10-06T17:18:55Z</time></trkpt>
<trkpt lat="24.623701" lon="107.634318">
<time>2016-10-06T17:18:56Z</time></trkpt>
<trkpt lat="24.623751" lon="107.634228">
<time>2016-10-06T17:18:57Z</time></trkpt>
<trkpt lat="24.623801" lon="107.634168">
<time>2016-10-06T17:18:58Z</time></trkpt>
<trkpt lat="24.623871" lon="107.634098">
<time>2016-10-06T17:18:59Z</time></trkpt>
<trkpt lat="24.623951" lon="107.634038">
<time>2016-10-06T17:19:00Z</time></trkpt>
<trkpt lat="24.624062" lon="107.633978">
<time>2016-10-06T17:19:01Z</time></trkpt>
<trkpt lat="24.624632" lon="107.633599">
<time>2016-10-06T17:19:02Z</time></trkpt>
<trkpt lat="24.625073" lon="107.633259">
<time>2016-10-06T17:19:03Z</time></trkpt>
<trkpt lat="24.625303" lon="107.63308">
<time>2016-10-06T17:19:04Z</time></trkpt>
<trkpt lat="24.625523" lon="107.63286">
<time>2016-10-06T17:19:05Z</time></trkpt>
<trkpt lat="24.625663" lon="107.63271">
<time>2016-10-06T17:19:06Z</time></trkpt>
<trkpt lat="24.625824" lon="107.63252">
<time>2016-10-06T17:19:07Z</time></trkpt>
<trkpt lat="24.625934" lon="107.632391">
<time>2016-10-06T17:19:08Z</time></trkpt>
<trkpt lat="24.626325" lon="107.631891">
<time>2016-10-06T17:19:09Z</time></trkpt>
<trkpt lat="24.627086" lon="107.630873">
<time>2016-10-06T17:19:10Z</time></trkpt>
<trkpt lat="24.627296" lon="107.630583">
<time>2016-10-06T17:19:11Z</time></trkpt>
<trkpt lat="24.627627" lon="107.630164">
<time>2016-10-06T17:19:12Z</time></trkpt>
<trkpt lat="24.627888" lon="107.629804">
<time>2016-10-06T17:19:13Z</time></trkpt>
<trkpt lat="24.628048" lon="107.629595">
<time>2016-10-06T17:19:14Z</time></trkpt>
<trkpt lat="24.628208" lon="107.629345">
<time>2016-10-06T17:19:15Z</time></trkpt>
<trkpt lat="24.628529" lon="107.628946">
<time>2016-10-06T17:19:16Z</time></trkpt>
<trkpt lat="24.628719" lon="107.628726">
<time>2016-10-06T17:19:17Z</time></trkpt>
<trkpt lat="24.628809" lon="107.628626">
<time>2016-10-06T17:19:18Z</time></trkpt>
<trkpt lat="24.629009" lon="107.628436">
<time>2016-10-06T17:19:19Z</time></trkpt>
<trkpt lat="24.62922" lon="107.628276">
<time>2016-10-06T17:19:20Z</time></trkpt>
<trkpt lat="24.62939" lon="107.628147">
<time>2016-10-06T17:19:21Z</time></trkpt>
<trkpt lat="24.6297" lon="107.627917">
<time>2016-10-06T17:19:22Z</time></trkpt>
<trkpt lat="24.630591" lon="107.627208">
<time>2016-10-06T17:19:23Z</time></trkpt>
<trkpt lat="24.631262" lon="107.626669">
<time>2016-10-06T17:19:24Z</time></trkpt>
<trkpt lat="24.631862" lon="107.626179">
<time>2016-10-06T17:19:25Z</time></trkpt>
<trkpt lat="24.632373" lon="107.62577">
<time>2016-10-06T17:19:26Z</time></trkpt>
<trkpt lat="24.632944" lon="107.62529">
<time>2016-10-06T17:19:27Z</time></trkpt>
<trkpt lat="24.633104" lon="107.625121">
<time>2016-10-06T17:19:28Z</time></trkpt>
<trkpt lat="24.633204" lon="107.624991">
<time>2016-10-06T17:19:29Z</time></trkpt>
<trkpt lat="24.633224" lon="107.624971">
<time>2016-10-06T17:19:30Z</time></trkpt>
<trkpt lat="24.633284" lon="107.624871">
<time>2016-10-06T17:19:31Z</time></trkpt>
<trkpt lat="24.633344" lon="107.624761">
<time>2016-10-06T17:19:32Z</time></trkpt>
<trkpt lat="24.633394" lon="107.624641">
<time>2016-10-06T17:19:33Z</time></trkpt>
<trkpt lat="24.633455" lon="107.624471">
<time>2016-10-06T17:19:34Z</time></trkpt>
<trkpt lat="24.633515" lon="107.624302">
<time>2016-10-06T17:19:35Z</time></trkpt>
<trkpt lat="24.633595" lon="107.624052">
<time>2016-10-06T17:19:36Z</time></trkpt>
<trkpt lat="24.633746" lon="107.623552">
<time>2016-10-06T17:19:37Z</time></trkpt>
<trkpt lat="24.633866" lon="107.623163">
<time>2016-10-06T17:19:38Z</time></trkpt>
<trkpt lat="24.633956" lon="107.622883">
<time>2016-10-06T17:19:39Z</time></trkpt>
<trkpt lat="24.634037" lon="107.622634">
<time>2016-10-06T17:19:40Z</time></trkpt>
<trkpt lat="24.634047" lon="107.622604">
<time>2016-10-06T17:19:41Z</time></trkpt>
<trkpt lat="24.634117" lon="107.622444">
<time>2016-10-06T17:19:42Z</time></trkpt>
<trkpt lat="24.634187" lon="107.622294">
<time>2016-10-06T17:19:43Z</time></trkpt>
<trkpt lat="24.634267" lon="107.622164">
<time>2016-10-06T17:19:44Z</time></trkpt>
<trkpt lat="24.634367" lon="107.622054">
<time>2016-10-06T17:19:45Z</time></trkpt>
<trkpt lat="24.634457" lon="107.621944">
<time>2016-10-06T17:19:46Z</time></trkpt>
<trkpt lat="24.634568" lon="107.621845">
<time>2016-10-06T17:19:47Z</time></trkpt>
<trkpt lat="24.634938" lon="107.621565">
<time>2016-10-06T17:19:48Z</time></trkpt>
<trkpt lat="24.635478" lon="107.621175">
<time>2016-10-06T17:19:49Z</time></trkpt>
<trkpt lat="24.635829" lon="107.620906">
<time>2016-10-06T17:19:50Z</time></trkpt>
<trkpt lat="24.636369" lon="107.620466">
<time>2016-10-06T17:19:51Z</time></trkpt>
<trkpt lat="24.636769" lon="107.620126">
<time>2016-10-06T17:19:52Z</time></trkpt>
<trkpt lat="24.63742" lon="107.619587">
<time>2016-10-06T17:19:53Z</time></trkpt>
<trkpt lat="24.63789" lon="107.619247">
<time>2016-10-06T17:19:54Z</time></trkpt>
<trkpt lat="24.638481" lon="107.618898">
<time>2016-10-06T17:19:55Z</time></trkpt>
<trkpt lat="24.639281" lon="107.618448">
<time>2016-10-06T17:19:56Z</time></trkpt>
<trkpt lat="24.640612" lon="107.617689">
<time>2016-10-06T17:19:57Z</time></trkpt>
<trkpt lat="24.640862" lon="107.617529">
<time>2016-10-06T17:19:58Z</time></trkpt>
<trkpt lat="24.641092" lon="107.617359">
<time>2016-10-06T17:19:59Z</time></trkpt>
<trkpt lat="24.641293" lon="107.617179">
<time>2016-10-06T17:20:00Z</time></trkpt>
<trkpt lat="24.641533" lon="107.61692">
<time>2016-10-06T17:20:01Z</time></trkpt>
<trkpt lat="24.642154" lon="107.61613">
<time>2016-10-06T17:20:02Z</time></trkpt>
<trkpt lat="24.642564" lon="107.615601">
<time>2016-10-06T17:20:03Z</time></trkpt>
<trkpt lat="24.643185" lon="107.614802">
<time>2016-10-06T17:20:04Z</time></trkpt>
<trkpt lat="24.643695" lon="107.614182">
<time>2016-10-06T17:20:05Z</time></trkpt>
<trkpt lat="24.643865" lon="107.613932">
<time>2016-10-06T17:20:06Z</time></trkpt>
<trkpt lat="24.643966" lon="107.613802">
<time>2016-10-06T17:20:07Z</time></trkpt>
<trkpt lat="24.644076" lon="107.613633">
<time>2016-10-06T17:20:08Z</time></trkpt>
<trkpt lat="24.644166" lon="107.613453">
<time>2016-10-06T17:20:09Z</time></trkpt>
<trkpt lat="24.644266" lon="107.613233">
<time>2016-10-06T17:20:10Z</time></trkpt>
<trkpt lat="24.644446" lon="107.612743">
<time>2016-10-06T17:20:11Z</time></trkpt>
<trkpt lat="24.644537" lon="107.612494">
<time>2016-10-06T17:20:12Z</time></trkpt>
<trkpt lat="24.645018" lon="107.611125">
<time>2016-10-06T17:20:13Z</time></trkpt>
<trkpt lat="24.645549" lon="107.609626">
<time>2016-10-06T17:20:14Z</time></trkpt>
<trkpt lat="24.645739" lon="107.609126">
<time>2016-10-06T17:20:15Z</time></trkpt>
<trkpt lat="24.645869" lon="107.608846">
<time>2016-10-06T17:20:16Z</time></trkpt>
<trkpt lat="24.646079" lon="107.608417">
<time>2016-10-06T17:20:17Z</time></trkpt>
<trkpt lat="24.647" lon="107.606907">
<time>2016-10-06T17:20:18Z</time></trkpt>
<trkpt lat="24.647441" lon="107.606158">
<time>2016-10-06T17:20:19Z</time></trkpt>
<trkpt lat="24.648041" lon="107.605188">
<time>2016-10-06T17:20:20Z</time></trkpt>
<trkpt lat="24.648331" lon="107.604759">
<time>2016-10-06T17:20:21Z</time></trkpt>
<trkpt lat="24.648622" lon="107.604449">
<time>2016-10-06T17:20:22Z</time></trkpt>
<trkpt lat="24.648962" lon="107.604149">
<time>2016-10-06T17:20:23Z</time></trkpt>
<trkpt lat="24.650762" lon="107.602599">
<time>2016-10-06T17:20:24Z</time></trkpt>
<trkpt lat="24.651003" lon="107.60239">
<time>2016-10-06T17:20:25Z</time></trkpt>
<trkpt lat="24.652973" lon="107.60069">
<time>2016-10-06T17:20:26Z</time></trkpt>
<trkpt lat="24.653503" lon="107.60024">
<time>2016-10-06T17:20:27Z</time></trkpt>
<trkpt lat="24.654083" lon="107.59973">
<time>2016-10-06T17:20:28Z</time></trkpt>
<trkpt lat="24.654323" lon="107.59951">
<time>2016-10-06T17:20:29Z</time></trkpt>
<trkpt lat="24.654483" lon="107.59932">
<time>2016-10-06T17:20:30Z</time></trkpt>
<trkpt lat="24.654654" lon="107.59908">
<time>2016-10-06T17:20:31Z</time></trkpt>
<trkpt lat="24.654804" lon="107.59883">
<time>2016-10-06T17:20:32Z</time></trkpt>
<trkpt lat="24.654984" lon="107.598471">
<time>2016-10-06T17:20:33Z</time></trkpt>
<trkpt lat="24.656404" lon="107.595271">
<time>2016-10-06T17:20:34Z</time></trkpt>
<trkpt lat="24.656534" lon="107.594981">
<time>2016-10-06T17:20:35Z</time></trkpt>
<trkpt lat="24.656774" lon="107.594461">
<time>2016-10-06T17:20:36Z</time></trkpt>
<trkpt lat="24.657144" lon="107.593591">
<time>2016-10-06T17:20:37Z</time></trkpt>
<trkpt lat="24.657214" lon="107.593381">
<time>2016-10-06T17:20:38Z</time></trkpt>
<trkpt lat="24.657264" lon="107.593201">
<time>2016-10-06T17:20:39Z</time></trkpt>
<trkpt lat="24.657304" lon="107.592981">
<time>2016-10-06T17:20:40Z</time></trkpt>
<trkpt lat="24.657324" lon="107.592761">
<time>2016-10-06T17:20:41Z</time></trkpt>
<trkpt lat="24.657334" lon="107.592711">
<time>2016-10-06T17:20:42Z</time></trkpt>
<trkpt lat="24.657344" lon="107.592421">
<time>2016-10-06T17:20:43Z</time></trkpt>
<trkpt lat="24.657334" lon="107.592181">
<time>2016-10-06T17:20:44Z</time></trkpt>
<trkpt lat="24.657294" lon="107.591881">
<time>2016-10-06T17:20:45Z</time></trkpt>
<trkpt lat="24.657224" lon="107.591561">
<time>2016-10-06T17:20:46Z</time></trkpt>
<trkpt lat="24.657094" lon="107.591061">
<time>2016-10-06T17:20:47Z</time></trkpt>
<trkpt lat="24.657014" lon="107.590661">
<time>2016-10-06T17:20:48Z</time></trkpt>
<trkpt lat="24.656974" lon="107.590261">
<time>2016-10-06T17:20:49Z</time></trkpt>
<trkpt lat="24.656964" lon="107.589801">
<time>2016-10-06T17:20:50Z</time></trkpt>
<trkpt lat="24.657014" lon="107.589441">
<time>2016-10-06T17:20:51Z</time></trkpt>
<trkpt lat="24.657174" lon="107.588751">
<time>2016-10-06T17:20:52Z</time></trkpt>
<trkpt lat="24.657763" lon="107.58706">
<time>2016-10-06T17:20:53Z</time></trkpt>
<trkpt lat="24.658003" lon="107.58603">
<time>2016-10-06T17:20:54Z</time></trkpt>
<trkpt lat="24.658143" lon="107.585159">
<time>2016-10-06T17:20:55Z</time></trkpt>
<trkpt lat="24.658212" lon="107.584629">
<time>2016-10-06T17:20:56Z</time></trkpt>
<trkpt lat="24.658272" lon="107.584249">
<time>2016-10-06T17:20:57Z</time></trkpt>
<trkpt lat="24.658362" lon="107.583819">
<time>2016-10-06T17:20:58Z</time></trkpt>
<trkpt lat="24.658482" lon="107.583379">
<time>2016-10-06T17:20:59Z</time></trkpt>
<trkpt lat="24.658552" lon="107.583128">
<time>2016-10-06T17:21:00Z</time></trkpt>
<trkpt lat="24.658592" lon="107.582928">
<time>2016-10-06T17:21:01Z</time></trkpt>
<trkpt lat="24.658611" lon="107.582698">
<time>2016-10-06T17:21:02Z</time></trkpt>
<trkpt lat="24.658601" lon="107.582488">
<time>2016-10-06T17:21:03Z</time></trkpt>
<trkpt lat="24.658561" lon="107.582188">
<time>2016-10-06T17:21:04Z</time></trkpt>
<trkpt lat="24.658491" lon="107.581768">
<time>2016-10-06T17:21:05Z</time></trkpt>
<trkpt lat="24.6581" lon="107.580007">
<time>2016-10-06T17:21:06Z</time></trkpt>
<trkpt lat="24.65801" lon="107.579637">
<time>2016-10-06T17:21:07Z</time></trkpt>
<trkpt lat="24.65792" lon="107.579406">
<time>2016-10-06T17:21:08Z</time></trkpt>
<trkpt lat="24.657809" lon="107.579216">
<time>2016-10-06T17:21:09Z</time></trkpt>
<trkpt lat="24.657719" lon="107.579076">
<time>2016-10-06T17:21:10Z</time></trkpt>
<trkpt lat="24.657589" lon="107.578956">
<time>2016-10-06T17:21:11Z</time></trkpt>
<trkpt lat="24.657439" lon="107.578826">
<time>2016-10-06T17:21:12Z</time></trkpt>
<trkpt lat="24.657209" lon="107.578686">
<time>2016-10-06T17:21:13Z</time></trkpt>
<trkpt lat="24.656839" lon="107.578506">
<time>2016-10-06T17:21:14Z</time></trkpt>
<trkpt lat="24.656599" lon="107.578366">
<time>2016-10-06T17:21:15Z</time></trkpt>
<trkpt lat="24.656439" lon="107.578256">
<time>2016-10-06T17:21:16Z</time></trkpt>
<trkpt lat="24.656249" lon="107.578056">
<time>2016-10-06T17:21:17Z</time></trkpt>
<trkpt lat="24.656088" lon="107.577845">
<time>2016-10-06T17:21:18Z</time></trkpt>
<trkpt lat="24.655678" lon="107.577245">
<time>2016-10-06T17:21:19Z</time></trkpt>
<trkpt lat="24.655117" lon="107.576324">
<time>2016-10-06T17:21:20Z</time></trkpt>
<trkpt lat="24.654637" lon="107.575554">
<time>2016-10-06T17:21:21Z</time></trkpt>
<trkpt lat="24.654527" lon="107.575353">
<time>2016-10-06T17:21:22Z</time></trkpt>
<trkpt lat="24.654446" lon="107.575163">
<time>2016-10-06T17:21:23Z</time></trkpt>
<trkpt lat="24.654386" lon="107.574943">
<time>2016-10-06T17:21:24Z</time></trkpt>
<trkpt lat="24.654346" lon="107.574663">
<time>2016-10-06T17:21:25Z</time></trkpt>
<trkpt lat="24.654316" lon="107.574333">
<time>2016-10-06T17:21:26Z</time></trkpt>
<trkpt lat="24.654305" lon="107.573972">
<time>2016-10-06T17:21:27Z</time></trkpt>
<trkpt lat="24.654285" lon="107.573302">
<time>2016-10-06T17:21:28Z</time></trkpt>
<trkpt lat="24.654254" lon="107.572971">
<time>2016-10-06T17:21:29Z</time></trkpt>
<trkpt lat="24.654214" lon="107.572701">
<time>2016-10-06T17:21:30Z</time></trkpt>
<trkpt lat="24.654134" lon="107.572451">
<time>2016-10-06T17:21:31Z</time></trkpt>
<trkpt lat="24.654024" lon="107.572231">
<time>2016-10-06T17:21:32Z</time></trkpt>
<trkpt lat="24.653894" lon="107.57204">
<time>2016-10-06T17:21:33Z</time></trkpt>
<trkpt lat="24.653703" lon="107.57184">
<time>2016-10-06T17:21:34Z</time></trkpt>
<trkpt lat="24.653453" lon="107.57169">
<time>2016-10-06T17:21:35Z</time></trkpt>
<trkpt lat="24.652943" lon="107.57136">
<time>2016-10-06T17:21:36Z</time></trkpt>
<trkpt lat="24.652823" lon="107.57127">
<time>2016-10-06T17:21:37Z</time></trkpt>
<trkpt lat="24.652713" lon="107.57117">
<time>2016-10-06T17:21:38Z</time></trkpt>
<trkpt lat="24.652643" lon="107.571069">
<time>2016-10-06T17:21:39Z</time></trkpt>
<trkpt lat="24.652602" lon="107.570979">
<time>2016-10-06T17:21:40Z</time></trkpt>
<trkpt lat="24.652492" lon="107.570749">
<time>2016-10-06T17:21:41Z</time></trkpt>
<trkpt lat="24.652412" lon="107.570289">
<time>2016-10-06T17:21:42Z</time></trkpt>
<trkpt lat="24.652391" lon="107.569618">
<time>2016-10-06T17:21:43Z</time></trkpt>
<trkpt lat="24.65237" lon="107.568376">
<time>2016-10-06T17:21:44Z</time></trkpt>
<trkpt lat="24.652409" lon="107.567636">
<time>2016-10-06T17:21:45Z</time></trkpt>
<trkpt lat="24.652488" lon="107.567125">
<time>2016-10-06T17:21:46Z</time></trkpt>
<trkpt lat="24.652588" lon="107.566664">
<time>2016-10-06T17:21:47Z</time></trkpt>
<trkpt lat="24.652907" lon="107.565743">
<time>2016-10-06T17:21:48Z</time></trkpt>
<trkpt lat="24.653644" lon="107.563941">
<time>2016-10-06T17:21:49Z</time></trkpt>
<trkpt lat="24.653923" lon="107.562959">
<time>2016-10-06T17:21:50Z</time></trkpt>
<trkpt lat="24.654151" lon="107.561757">
<time>2016-10-06T17:21:51Z</time></trkpt>
<trkpt lat="24.6542" lon="107.561187">
<time>2016-10-06T17:21:52Z</time></trkpt>
<trkpt lat="24.65429" lon="107.560796">
<time>2016-10-06T17:21:53Z</time></trkpt>
<trkpt lat="24.654369" lon="107.560526">
<time>2016-10-06T17:21:54Z</time></trkpt>
<trkpt lat="24.654499" lon="107.560275">
<time>2016-10-06T17:21:55Z</time></trkpt>
<trkpt lat="24.654619" lon="107.560095">
<time>2016-10-06T17:21:56Z</time></trkpt>
<trkpt lat="24.654819" lon="107.559895">
<time>2016-10-06T17:21:57Z</time></trkpt>
<trkpt lat="24.655058" lon="107.559714">
<time>2016-10-06T17:21:58Z</time></trkpt>
<trkpt lat="24.655358" lon="107.559534">
<time>2016-10-06T17:21:59Z</time></trkpt>
<trkpt lat="24.655818" lon="107.559243">
<time>2016-10-06T17:22:00Z</time></trkpt>
<trkpt lat="24.656017" lon="107.559073">
<time>2016-10-06T17:22:01Z</time></trkpt>
<trkpt lat="24.656177" lon="107.558883">
<time>2016-10-06T17:22:02Z</time></trkpt>
<trkpt lat="24.656356" lon="107.558552">
<time>2016-10-06T17:22:03Z</time></trkpt>
<trkpt lat="24.656446" lon="107.558302">
<time>2016-10-06T17:22:04Z</time></trkpt>
<trkpt lat="24.656506" lon="107.558021">
<time>2016-10-06T17:22:05Z</time></trkpt>
<trkpt lat="24.656575" lon="107.557491">
<time>2016-10-06T17:22:06Z</time></trkpt>
<trkpt lat="24.656634" lon="107.55693">
<time>2016-10-06T17:22:07Z</time></trkpt>
<trkpt lat="24.656743" lon="107.556469">
<time>2016-10-06T17:22:08Z</time></trkpt>
<trkpt lat="24.656912" lon="107.556048">
<time>2016-10-06T17:22:09Z</time></trkpt>
<trkpt lat="24.657212" lon="107.555507">
<time>2016-10-06T17:22:10Z</time></trkpt>
<trkpt lat="24.658627" lon="107.553002">
<time>2016-10-06T17:22:11Z</time></trkpt>
<trkpt lat="24.659245" lon="107.55195">
<time>2016-10-06T17:22:12Z</time></trkpt>
<trkpt lat="24.659335" lon="107.55175">
<time>2016-10-06T17:22:13Z</time></trkpt>
<trkpt lat="24.659534" lon="107.551329">
<time>2016-10-06T17:22:14Z</time></trkpt>
<trkpt lat="24.659614" lon="107.551099">
<time>2016-10-06T17:22:15Z</time></trkpt>
<trkpt lat="24.659673" lon="107.550858">
<time>2016-10-06T17:22:16Z</time></trkpt>
<trkpt lat="24.659693" lon="107.550628">
<time>2016-10-06T17:22:17Z</time></trkpt>
<trkpt lat="24.659712" lon="107.550387">
<time>2016-10-06T17:22:18Z</time></trkpt>
<trkpt lat="24.659702" lon="107.550147">
<time>2016-10-06T17:22:19Z</time></trkpt>
<trkpt lat="24.659672" lon="107.549926">
<time>2016-10-06T17:22:20Z</time></trkpt>
<trkpt lat="24.65954" lon="107.549215">
<time>2016-10-06T17:22:21Z</time></trkpt>
<trkpt lat="24.659399" lon="107.548433">
<time>2016-10-06T17:22:22Z</time></trkpt>
<trkpt lat="24.659278" lon="107.547942">
<time>2016-10-06T17:22:23Z</time></trkpt>
<trkpt lat="24.659107" lon="107.547461">
<time>2016-10-06T17:22:24Z</time></trkpt>
<trkpt lat="24.658896" lon="107.54694">
<time>2016-10-06T17:22:25Z</time></trkpt>
<trkpt lat="24.658705" lon="107.54651">
<time>2016-10-06T17:22:26Z</time></trkpt>
<trkpt lat="24.658564" lon="107.546079">
<time>2016-10-06T17:22:27Z</time></trkpt>
<trkpt lat="24.658493" lon="107.545748">
<time>2016-10-06T17:22:28Z</time></trkpt>
<trkpt lat="24.658382" lon="107.545217">
<time>2016-10-06T17:22:29Z</time></trkpt>
<trkpt lat="24.658302" lon="107.544986">
<time>2016-10-06T17:22:30Z</time></trkpt>
<trkpt lat="24.658221" lon="107.544816">
<time>2016-10-06T17:22:31Z</time></trkpt>
<trkpt lat="24.658141" lon="107.544676">
<time>2016-10-06T17:22:32Z</time></trkpt>
<trkpt lat="24.658041" lon="107.544545">
<time>2016-10-06T17:22:33Z</time></trkpt>
<trkpt lat="24.658001" lon="107.544495">
<time>2016-10-06T17:22:34Z</time></trkpt>
<trkpt lat="24.657891" lon="107.544385">
<time>2016-10-06T17:22:35Z</time></trkpt>
<trkpt lat="24.65773" lon="107.544265">
<time>2016-10-06T17:22:36Z</time></trkpt>
<trkpt lat="24.65737" lon="107.544074">
<time>2016-10-06T17:22:37Z</time></trkpt>
<trkpt lat="24.65716" lon="107.543954">
<time>2016-10-06T17:22:38Z</time></trkpt>
<trkpt lat="24.657029" lon="107.543874">
<time>2016-10-06T17:22:39Z</time></trkpt>
<trkpt lat="24.656889" lon="107.543764">
<time>2016-10-06T17:22:40Z</time></trkpt>
<trkpt lat="24.656779" lon="107.543663">
<time>2016-10-06T17:22:41Z</time></trkpt>
<trkpt lat="24.656699" lon="107.543533">
<time>2016-10-06T17:22:42Z</time></trkpt>
<trkpt lat="24.656648" lon="107.543413">
<time>2016-10-06T17:22:43Z</time></trkpt>
<trkpt lat="24.656548" lon="107.543112">
<time>2016-10-06T17:22:44Z</time></trkpt>
<trkpt lat="24.656114" lon="107.541258">
<time>2016-10-06T17:22:45Z</time></trkpt>
<trkpt lat="24.65571" lon="107.539554">
<time>2016-10-06T17:22:46Z</time></trkpt>
<trkpt lat="24.655639" lon="107.539143">
<time>2016-10-06T17:22:47Z</time></trkpt>
<trkpt lat="24.655618" lon="107.538862">
<time>2016-10-06T17:22:48Z</time></trkpt>
<trkpt lat="24.655628" lon="107.538732">
<time>2016-10-06T17:22:49Z</time></trkpt>
<trkpt lat="24.655658" lon="107.538602">
<time>2016-10-06T17:22:50Z</time></trkpt>
<trkpt lat="24.655717" lon="107.538441">
<time>2016-10-06T17:22:51Z</time></trkpt>
<trkpt lat="24.655787" lon="107.538291">
<time>2016-10-06T17:22:52Z</time></trkpt>
<trkpt lat="24.655857" lon="107.538201">
<time>2016-10-06T17:22:53Z</time></trkpt>
<trkpt lat="24.655927" lon="107.538121">
<time>2016-10-06T17:22:54Z</time></trkpt>
<trkpt lat="24.656036" lon="107.53802">
<time>2016-10-06T17:22:55Z</time></trkpt>
<trkpt lat="24.656096" lon="107.53796">
<time>2016-10-06T17:22:56Z</time></trkpt>
<trkpt lat="24.656166" lon="107.53792">
<time>2016-10-06T17:22:57Z</time></trkpt>
<trkpt lat="24.656226" lon="107.53788">
<time>2016-10-06T17:22:58Z</time></trkpt>
<trkpt lat="24.656326" lon="107.53784">
<time>2016-10-06T17:22:59Z</time></trkpt>
<trkpt lat="24.656406" lon="107.53781">
<time>2016-10-06T17:23:00Z</time></trkpt>
<trkpt lat="24.656486" lon="107.53779">
<time>2016-10-06T17:23:01Z</time></trkpt>
<trkpt lat="24.656546" lon="107.53778">
<time>2016-10-06T17:23:02Z</time></trkpt>
<trkpt lat="24.656636" lon="107.53777">
<time>2016-10-06T17:23:03Z</time></trkpt>
<trkpt lat="24.656726" lon="107.53777">
<time>2016-10-06T17:23:04Z</time></trkpt>
<trkpt lat="24.656816" lon="107.53778">
<time>2016-10-06T17:23:05Z</time></trkpt>
<trkpt lat="24.656916" lon="107.5378">
<time>2016-10-06T17:23:06Z</time></trkpt>
<trkpt lat="24.657246" lon="107.53787">
<time>2016-10-06T17:23:07Z</time></trkpt>
<trkpt lat="24.657346" lon="107.53788">
<time>2016-10-06T17:23:08Z</time></trkpt>
<trkpt lat="24.657426" lon="107.53788">
<time>2016-10-06T17:23:09Z</time></trkpt>
<trkpt lat="24.657496" lon="107.53788">
<time>2016-10-06T17:23:10Z</time></trkpt>
<trkpt lat="24.657586" lon="107.53786">
<time>2016-10-06T17:23:11Z</time></trkpt>
<trkpt lat="24.657636" lon="107.53784">
<time>2016-10-06T17:23:12Z</time></trkpt>
<trkpt lat="24.657696" lon="107.53781">
<time>2016-10-06T17:23:13Z</time></trkpt>
<trkpt lat="24.657776" lon="107.53775">
<time>2016-10-06T17:23:14Z</time></trkpt>
<trkpt lat="24.657836" lon="107.537699">
<time>2016-10-06T17:23:15Z</time></trkpt>
<trkpt lat="24.657896" lon="107.537629">
<time>2016-10-06T17:23:16Z</time></trkpt>
<trkpt lat="24.657925" lon="107.537579">
<time>2016-10-06T17:23:17Z</time></trkpt>
<trkpt lat="24.657965" lon="107.537509">
<time>2016-10-06T17:23:18Z</time></trkpt>
<trkpt lat="24.657985" lon="107.537449">
<time>2016-10-06T17:23:19Z</time></trkpt>
<trkpt lat="24.658005" lon="107.537389">
<time>2016-10-06T17:23:20Z</time></trkpt>
<trkpt lat="24.658025" lon="107.537298">
<time>2016-10-06T17:23:21Z</time></trkpt>
<trkpt lat="24.658025" lon="107.537228">
<time>2016-10-06T17:23:22Z</time></trkpt>
<trkpt lat="24.658025" lon="107.537158">
<time>2016-10-06T17:23:23Z</time></trkpt>
<trkpt lat="24.658004" lon="107.537068">
<time>2016-10-06T17:23:24Z</time></trkpt>
<trkpt lat="24.657974" lon="107.536978">
<time>2016-10-06T17:23:25Z</time></trkpt>
<trkpt lat="24.657944" lon="107.536917">
<time>2016-10-06T17:23:26Z</time></trkpt>
<trkpt lat="24.657904" lon="107.536837">
<time>2016-10-06T17:23:27Z</time></trkpt>
<trkpt lat="24.657844" lon="107.536757">
<time>2016-10-06T17:23:28Z</time></trkpt>
<trkpt lat="24.657743" lon="107.536667">
<time>2016-10-06T17:23:29Z</time></trkpt>
<trkpt lat="24.657593" lon="107.536567">
<time>2016-10-06T17:23:30Z</time></trkpt>
<trkpt lat="24.657293" lon="107.536396">
<time>2016-10-06T17:23:31Z</time></trkpt>
<trkpt lat="24.656141" lon="107.535765">
<time>2016-10-06T17:23:32Z</time></trkpt>
<trkpt lat="24.655861" lon="107.535594">
<time>2016-10-06T17:23:33Z</time></trkpt>
<trkpt lat="24.655671" lon="107.535474">
<time>2016-10-06T17:23:34Z</time></trkpt>
<trkpt lat="24.65558" lon="107.535384">
<time>2016-10-06T17:23:35Z</time></trkpt>
<trkpt lat="24.65548" lon="107.535264">
<time>2016-10-06T17:23:36Z</time></trkpt>
<trkpt lat="24.65541" lon="107.535153">
<time>2016-10-06T17:23:37Z</time></trkpt>
<trkpt lat="24.655359" lon="107.535013">
<time>2016-10-06T17:23:38Z</time></trkpt>
<trkpt lat="24.655329" lon="107.534842">
<time>2016-10-06T17:23:39Z</time></trkpt>
<trkpt lat="24.655318" lon="107.534612">
<time>2016-10-06T17:23:40Z</time></trkpt>
<trkpt lat="24.655308" lon="107.534351">
<time>2016-10-06T17:23:41Z</time></trkpt>
<trkpt lat="24.655298" lon="107.534221">
<time>2016-10-06T17:23:42Z</time></trkpt>
<trkpt lat="24.655287" lon="107.534151">
<time>2016-10-06T17:23:43Z</time></trkpt>
<trkpt lat="24.655267" lon="107.53407">
<time>2016-10-06T17:23:44Z</time></trkpt>
<trkpt lat="24.655227" lon="107.53398">
<time>2016-10-06T17:23:45Z</time></trkpt>
<trkpt lat="24.655177" lon="107.53387">
<time>2016-10-06T17:23:46Z</time></trkpt>
<trkpt lat="24.655076" lon="107.53373">
<time>2016-10-06T17:23:47Z</time></trkpt>
<trkpt lat="24.654896" lon="107.533509">
<time>2016-10-06T17:23:48Z</time></trkpt>
<trkpt lat="24.654836" lon="107.533429">
<time>2016-10-06T17:23:49Z</time></trkpt>
<trkpt lat="24.654785" lon="107.533359">
<time>2016-10-06T17:23:50Z</time></trkpt>
<trkpt lat="24.654735" lon="107.533268">
<time>2016-10-06T17:23:51Z</time></trkpt>
<trkpt lat="24.654705" lon="107.533198">
<time>2016-10-06T17:23:52Z</time></trkpt>
<trkpt lat="24.654695" lon="107.533108">
<time>2016-10-06T17:23:53Z</time></trkpt>
<trkpt lat="24.654685" lon="107.533028">
<time>2016-10-06T17:23:54Z</time></trkpt>
<trkpt lat="24.654684" lon="107.532958">
<time>2016-10-06T17:23:55Z</time></trkpt>
<trkpt lat="24.654684" lon="107.532877">
<time>2016-10-06T17:23:56Z</time></trkpt>
<trkpt lat="24.654714" lon="107.532767">
<time>2016-10-06T17:23:57Z</time></trkpt>
<trkpt lat="24.654744" lon="107.532677">
<time>2016-10-06T17:23:58Z</time></trkpt>
<trkpt lat="24.654803" lon="107.532567">
<time>2016-10-06T17:23:59Z</time></trkpt>
<trkpt lat="24.654933" lon="107.532366">
<time>2016-10-06T17:24:00Z</time></trkpt>
<trkpt lat="24.655003" lon="107.532246">
<time>2016-10-06T17:24:01Z</time></trkpt>
<trkpt lat="24.655052" lon="107.532146">
<time>2016-10-06T17:24:02Z</time></trkpt>
<trkpt lat="24.655082" lon="107.532035">
<time>2016-10-06T17:24:03Z</time></trkpt>
<trkpt lat="24.655102" lon="107.531935">
<time>2016-10-06T17:24:04Z</time></trkpt>
<trkpt lat="24.655131" lon="107.531574">
<time>2016-10-06T17:24:05Z</time></trkpt>
<trkpt lat="24.655141" lon="107.531434">
<time>2016-10-06T17:24:06Z</time></trkpt>
<trkpt lat="24.65517" lon="107.531303">
<time>2016-10-06T17:24:07Z</time></trkpt>
<trkpt lat="24.6552" lon="107.531193">
<time>2016-10-06T17:24:08Z</time></trkpt>
<trkpt lat="24.65525" lon="107.531043">
<time>2016-10-06T17:24:09Z</time></trkpt>
<trkpt lat="24.655329" lon="107.530902">
<time>2016-10-06T17:24:10Z</time></trkpt>
<trkpt lat="24.655429" lon="107.530772">
<time>2016-10-06T17:24:11Z</time></trkpt>
<trkpt lat="24.655568" lon="107.530521">
<time>2016-10-06T17:24:12Z</time></trkpt>
<trkpt lat="24.655618" lon="107.530351">
<time>2016-10-06T17:24:13Z</time></trkpt>
<trkpt lat="24.655608" lon="107.5302">
<time>2016-10-06T17:24:14Z</time></trkpt>
<trkpt lat="24.655577" lon="107.53004">
<time>2016-10-06T17:24:15Z</time></trkpt>
<trkpt lat="24.655517" lon="107.52992">
<time>2016-10-06T17:24:16Z</time></trkpt>
<trkpt lat="24.655366" lon="107.529689">
<time>2016-10-06T17:24:17Z</time></trkpt>
<trkpt lat="24.655246" lon="107.529488">
<time>2016-10-06T17:24:18Z</time></trkpt>
<trkpt lat="24.655185" lon="107.529308">
<time>2016-10-06T17:24:19Z</time></trkpt>
<trkpt lat="24.655195" lon="107.529158">
<time>2016-10-06T17:24:20Z</time></trkpt>
<trkpt lat="24.655234" lon="107.528947">
<time>2016-10-06T17:24:21Z</time></trkpt>
<trkpt lat="24.655324" lon="107.528686">
<time>2016-10-06T17:24:22Z</time></trkpt>
<trkpt lat="24.655353" lon="107.528556">
<time>2016-10-06T17:24:23Z</time></trkpt>
<trkpt lat="24.655373" lon="107.528446">
<time>2016-10-06T17:24:24Z</time></trkpt>
<trkpt lat="24.655373" lon="107.528355">
<time>2016-10-06T17:24:25Z</time></trkpt>
<trkpt lat="24.655363" lon="107.528245">
<time>2016-10-06T17:24:26Z</time></trkpt>
<trkpt lat="24.655312" lon="107.528125">
<time>2016-10-06T17:24:27Z</time></trkpt>
<trkpt lat="24.655262" lon="107.528004">
<time>2016-10-06T17:24:28Z</time></trkpt>
<trkpt lat="24.655101" lon="107.527804">
<time>2016-10-06T17:24:29Z</time></trkpt>
<trkpt lat="24.655041" lon="107.527714">
<time>2016-10-06T17:24:30Z</time></trkpt>
<trkpt lat="24.654981" lon="107.527603">
<time>2016-10-06T17:24:31Z</time></trkpt>
<trkpt lat="24.654951" lon="107.527513">
<time>2016-10-06T17:24:32Z</time></trkpt>
<trkpt lat="24.65492" lon="107.527403">
<time>2016-10-06T17:24:33Z</time></trkpt>
<trkpt lat="24.65491" lon="107.527273">
<time>2016-10-06T17:24:34Z</time></trkpt>
<trkpt lat="24.654899" lon="107.527082">
<time>2016-10-06T17:24:35Z</time></trkpt>
<trkpt lat="24.654878" lon="107.52641">
<time>2016-10-06T17:24:36Z</time></trkpt>
<trkpt lat="24.654876" lon="107.525879">
<time>2016-10-06T17:24:37Z</time></trkpt>
<trkpt lat="24.654845" lon="107.525498">
<time>2016-10-06T17:24:38Z</time></trkpt>
<trkpt lat="24.654835" lon="107.525417">
<time>2016-10-06T17:24:39Z</time></trkpt>
<trkpt lat="24.654805" lon="107.525317">
<time>2016-10-06T17:24:40Z</time></trkpt>
<trkpt lat="24.654755" lon="107.525217">
<time>2016-10-06T17:24:41Z</time></trkpt>
<trkpt lat="24.654694" lon="107.525137">
<time>2016-10-06T17:24:42Z</time></trkpt>
<trkpt lat="24.654644" lon="107.525066">
<time>2016-10-06T17:24:43Z</time></trkpt>
<trkpt lat="24.654544" lon="107.524996">
<time>2016-10-06T17:24:44Z</time></trkpt>
<trkpt lat="24.654464" lon="107.524946">
<time>2016-10-06T17:24:45Z</time></trkpt>
<trkpt lat="24.654354" lon="107.524896">
<time>2016-10-06T17:24:46Z</time></trkpt>
<trkpt lat="24.654184" lon="107.524846">
<time>2016-10-06T17:24:47Z</time></trkpt>
<trkpt lat="24.654033" lon="107.524816">
<time>2016-10-06T17:24:48Z</time></trkpt>
<trkpt lat="24.653533" lon="107.524715">
<time>2016-10-06T17:24:49Z</time></trkpt>
<trkpt lat="24.653283" lon="107.524645">
<time>2016-10-06T17:24:50Z</time></trkpt>
<trkpt lat="24.652793" lon="107.524525">
<time>2016-10-06T17:24:51Z</time></trkpt>
<trkpt lat="24.652612" lon="107.524435">
<time>2016-10-06T17:24:52Z</time></trkpt>
<trkpt lat="24.652472" lon="107.524294">
<time>2016-10-06T17:24:53Z</time></trkpt>
<trkpt lat="24.652412" lon="107.524204">
<time>2016-10-06T17:24:54Z</time></trkpt>
<trkpt lat="24.652362" lon="107.524114">
<time>2016-10-06T17:24:55Z</time></trkpt>
<trkpt lat="24.652321" lon="107.523963">
<time>2016-10-06T17:24:56Z</time></trkpt>
<trkpt lat="24.652311" lon="107.523833">
<time>2016-10-06T17:24:57Z</time></trkpt>
<trkpt lat="24.65232" lon="107.523693">
<time>2016-10-06T17:24:58Z</time></trkpt>
<trkpt lat="24.65235" lon="107.523572">
<time>2016-10-06T17:24:59Z</time></trkpt>
<trkpt lat="24.65239" lon="107.523462">
<time>2016-10-06T17:25:00Z</time></trkpt>
<trkpt lat="24.652489" lon="107.523322">
<time>2016-10-06T17:25:01Z</time></trkpt>
<trkpt lat="24.652599" lon="107.523221">
<time>2016-10-06T17:25:02Z</time></trkpt>
<trkpt lat="24.652709" lon="107.523151">
<time>2016-10-06T17:25:03Z</time></trkpt>
<trkpt lat="24.652859" lon="107.523081">
<time>2016-10-06T17:25:04Z</time></trkpt>
<trkpt lat="24.653418" lon="107.52294">
<time>2016-10-06T17:25:05Z</time></trkpt>
<trkpt lat="24.654148" lon="107.52278">
<time>2016-10-06T17:25:06Z</time></trkpt>
<trkpt lat="24.654518" lon="107.52268">
<time>2016-10-06T17:25:07Z</time></trkpt>
<trkpt lat="24.654658" lon="107.522619">
<time>2016-10-06T17:25:08Z</time></trkpt>
<trkpt lat="24.654757" lon="107.522559">
<time>2016-10-06T17:25:09Z</time></trkpt>
<trkpt lat="24.654837" lon="107.522499">
<time>2016-10-06T17:25:10Z</time></trkpt>
<trkpt lat="24.654897" lon="107.522429">
<time>2016-10-06T17:25:11Z</time></trkpt>
<trkpt lat="24.654947" lon="107.522359">
<time>2016-10-06T17:25:12Z</time></trkpt>
<trkpt lat="24.654997" lon="107.522268">
<time>2016-10-06T17:25:13Z</time></trkpt>
<trkpt lat="24.655036" lon="107.522188">
<time>2016-10-06T17:25:14Z</time></trkpt>
<trkpt lat="24.655056" lon="107.522118">
<time>2016-10-06T17:25:15Z</time></trkpt>
<trkpt lat="24.655076" lon="107.522028">
<time>2016-10-06T17:25:16Z</time></trkpt>
<trkpt lat="24.655086" lon="107.521938">
<time>2016-10-06T17:25:17Z</time></trkpt>
<trkpt lat="24.655095" lon="107.521817">
<time>2016-10-06T17:25:18Z</time></trkpt>
<trkpt lat="24.655105" lon="107.521677">
<time>2016-10-06T17:25:19Z</time></trkpt>
<trkpt lat="24.655114" lon="107.521346">
<time>2016-10-06T17:25:20Z</time></trkpt>
<trkpt lat="24.655152" lon="107.520694">
<time>2016-10-06T17:25:21Z</time></trkpt>
<trkpt lat="24.655171" lon="107.520333">
<time>2016-10-06T17:25:22Z</time></trkpt>
<trkpt lat="24.65518" lon="107.520022">
<time>2016-10-06T17:25:23Z</time></trkpt>
<trkpt lat="24.65519" lon="107.519721">
<time>2016-10-06T17:25:24Z</time></trkpt>
<trkpt lat="24.655179" lon="107.519571">
<time>2016-10-06T17:25:25Z</time></trkpt>
<trkpt lat="24.655169" lon="107.51945">
<time>2016-10-06T17:25:26Z</time></trkpt>
<trkpt lat="24.655148" lon="107.51931">
<time>2016-10-06T17:25:27Z</time></trkpt>
<trkpt lat="24.655118" lon="107.519159">
<time>2016-10-06T17:25:28Z</time></trkpt>
<trkpt lat="24.655088" lon="107.519029">
<time>2016-10-06T17:25:29Z</time></trkpt>
<trkpt lat="24.655037" lon="107.518839">
<time>2016-10-06T17:25:30Z</time></trkpt>
<trkpt lat="24.654987" lon="107.518668">
<time>2016-10-06T17:25:31Z</time></trkpt>
<trkpt lat="24.654926" lon="107.518508">
<time>2016-10-06T17:25:32Z</time></trkpt>
<trkpt lat="24.654866" lon="107.518367">
<time>2016-10-06T17:25:33Z</time></trkpt>
<trkpt lat="24.654775" lon="107.518227">
<time>2016-10-06T17:25:34Z</time></trkpt>
<trkpt lat="24.654735" lon="107.518177">
<time>2016-10-06T17:25:35Z</time></trkpt>
<trkpt lat="24.654685" lon="107.518126">
<time>2016-10-06T17:25:36Z</time></trkpt>
<trkpt lat="24.654625" lon="107.518066">
<time>2016-10-06T17:25:37Z</time></trkpt>
<trkpt lat="24.654545" lon="107.518026">
<time>2016-10-06T17:25:38Z</time></trkpt>
<trkpt lat="24.654475" lon="107.517986">
<time>2016-10-06T17:25:39Z</time></trkpt>
<trkpt lat="24.654395" lon="107.517966">
<time>2016-10-06T17:25:40Z</time></trkpt>
<trkpt lat="24.654345" lon="107.517946">
<time>2016-10-06T17:25:41Z</time></trkpt>
<trkpt lat="24.654285" lon="107.517926">
<time>2016-10-06T17:25:42Z</time></trkpt>
<trkpt lat="24.654185" lon="107.517926">
<time>2016-10-06T17:25:43Z</time></trkpt>
<trkpt lat="24.654075" lon="107.517936">
<time>2016-10-06T17:25:44Z</time></trkpt>
<trkpt lat="24.653985" lon="107.517956">
<time>2016-10-06T17:25:45Z</time></trkpt>
<trkpt lat="24.653915" lon="107.517986">
<time>2016-10-06T17:25:46Z</time></trkpt>
<trkpt lat="24.653835" lon="107.518026">
<time>2016-10-06T17:25:47Z</time></trkpt>
<trkpt lat="24.653775" lon="107.518056">
<time>2016-10-06T17:25:48Z</time></trkpt>
<trkpt lat="24.653715" lon="107.518106">
<time>2016-10-06T17:25:49Z</time></trkpt>
<trkpt lat="24.653655" lon="107.518167">
<time>2016-10-06T17:25:50Z</time></trkpt>
<trkpt lat="24.653585" lon="107.518237">
<time>2016-10-06T17:25:51Z</time></trkpt>
<trkpt lat="24.653516" lon="107.518337">
<time>2016-10-06T17:25:52Z</time></trkpt>
<trkpt lat="24.653466" lon="107.518417">
<time>2016-10-06T17:25:53Z</time></trkpt>
<trkpt lat="24.653406" lon="107.518538">
<time>2016-10-06T17:25:54Z</time></trkpt>
<trkpt lat="24.653367" lon="107.518618">
<time>2016-10-06T17:25:55Z</time></trkpt>
<trkpt lat="24.653327" lon="107.518728">
<time>2016-10-06T17:25:56Z</time></trkpt>
<trkpt lat="24.653257" lon="107.518859">
<time>2016-10-06T17:25:57Z</time></trkpt>
<trkpt lat="24.653198" lon="107.518969">
<time>2016-10-06T17:25:58Z</time></trkpt>
<trkpt lat="24.653118" lon="107.519099">
<time>2016-10-06T17:25:59Z</time></trkpt>
<trkpt lat="24.653008" lon="107.51923">
<time>2016-10-06T17:26:00Z</time></trkpt>
<trkpt lat="24.652928" lon="107.51931">
<time>2016-10-06T17:26:01Z</time></trkpt>
<trkpt lat="24.652849" lon="107.51938">
<time>2016-10-06T17:26:02Z</time></trkpt>
<trkpt lat="24.652769" lon="107.51942">
<time>2016-10-06T17:26:03Z</time></trkpt>
<trkpt lat="24.652669" lon="107.51946">
<time>2016-10-06T17:26:04Z</time></trkpt>
<trkpt lat="24.652579" lon="107.519491">
<time>2016-10-06T17:26:05Z</time></trkpt>
<trkpt lat="24.652509" lon="107.519511">
<time>2016-10-06T17:26:06Z</time></trkpt>
<trkpt lat="24.652419" lon="107.519511">
<time>2016-10-06T17:26:07Z</time></trkpt>
<trkpt lat="24.652349" lon="107.519501">
<time>2016-10-06T17:26:08Z</time></trkpt>
<trkpt lat="24.652279" lon="107.519491">
<time>2016-10-06T17:26:09Z</time></trkpt>
<trkpt lat="24.652199" lon="107.519471">
<time>2016-10-06T17:26:10Z</time></trkpt>
<trkpt lat="24.652139" lon="107.51945">
<time>2016-10-06T17:26:11Z</time></trkpt>
<trkpt lat="24.652049" lon="107.51941">
<time>2016-10-06T17:26:12Z</time></trkpt>
<trkpt lat="24.651949" lon="107.51937">
<time>2016-10-06T17:26:13Z</time></trkpt>
<trkpt lat="24.651838" lon="107.5193">
<time>2016-10-06T17:26:14Z</time></trkpt>
<trkpt lat="24.651147" lon="107.518899">
<time>2016-10-06T17:26:15Z</time></trkpt>
<trkpt lat="24.650757" lon="107.518678">
<time>2016-10-06T17:26:16Z</time></trkpt>
<trkpt lat="24.650647" lon="107.518628">
<time>2016-10-06T17:26:17Z</time></trkpt>
<trkpt lat="24.650577" lon="107.518618">
<time>2016-10-06T17:26:18Z</time></trkpt>
<trkpt lat="24.650526" lon="107.518608">
<time>2016-10-06T17:26:19Z</time></trkpt>
<trkpt lat="24.650466" lon="107.518598">
<time>2016-10-06T17:26:20Z</time></trkpt>
<trkpt lat="24.650406" lon="107.518598">
<time>2016-10-06T17:26:21Z</time></trkpt>
<trkpt lat="24.650356" lon="107.518598">
<time>2016-10-06T17:26:22Z</time></trkpt>
<trkpt lat="24.650286" lon="107.518608">
<time>2016-10-06T17:26:23Z</time></trkpt>
<trkpt lat="24.650187" lon="107.518618">
<time>2016-10-06T17:26:24Z</time></trkpt>
<trkpt lat="24.649967" lon="107.518638">
<time>2016-10-06T17:26:25Z</time></trkpt>
<trkpt lat="24.649687" lon="107.518688">
<time>2016-10-06T17:26:26Z</time></trkpt>
<trkpt lat="24.649457" lon="107.518729">
<time>2016-10-06T17:26:27Z</time></trkpt>
<trkpt lat="24.649337" lon="107.518749">
<time>2016-10-06T17:26:28Z</time></trkpt>
<trkpt lat="24.649267" lon="107.518749">
<time>2016-10-06T17:26:29Z</time></trkpt>
<trkpt lat="24.649177" lon="107.518739">
<time>2016-10-06T17:26:30Z</time></trkpt>
<trkpt lat="24.649107" lon="107.518729">
<time>2016-10-06T17:26:31Z</time></trkpt>
<trkpt lat="24.649047" lon="107.518708">
<time>2016-10-06T17:26:32Z</time></trkpt>
<trkpt lat="24.648987" lon="107.518688">
<time>2016-10-06T17:26:33Z</time></trkpt>
<trkpt lat="24.648917" lon="107.518638">
<time>2016-10-06T17:26:34Z</time></trkpt>
<trkpt lat="24.648846" lon="107.518578">
<time>2016-10-06T17:26:35Z</time></trkpt>
<trkpt lat="24.648766" lon="107.518518">
<time>2016-10-06T17:26:36Z</time></trkpt>
<trkpt lat="24.648445" lon="107.518167">
<time>2016-10-06T17:26:37Z</time></trkpt>
<trkpt lat="24.648044" lon="107.517776">
<time>2016-10-06T17:26:38Z</time></trkpt>
<trkpt lat="24.647894" lon="107.517605">
<time>2016-10-06T17:26:39Z</time></trkpt>
<trkpt lat="24.647823" lon="107.517545">
<time>2016-10-06T17:26:40Z</time></trkpt>
<trkpt lat="24.647763" lon="107.517475">
<time>2016-10-06T17:26:41Z</time></trkpt>
<trkpt lat="24.647723" lon="107.517405">
<time>2016-10-06T17:26:42Z</time></trkpt>
<trkpt lat="24.647693" lon="107.517355">
<time>2016-10-06T17:26:43Z</time></trkpt>
<trkpt lat="24.647663" lon="107.517284">
<time>2016-10-06T17:26:44Z</time></trkpt>
<trkpt lat="24.647582" lon="107.517034">
<time>2016-10-06T17:26:45Z</time></trkpt>
<trkpt lat="24.64741" lon="107.516492">
<time>2016-10-06T17:26:46Z</time></trkpt>
<trkpt lat="24.647289" lon="107.516121">
<time>2016-10-06T17:26:47Z</time></trkpt>
<trkpt lat="24.647219" lon="107.51592">
<time>2016-10-06T17:26:48Z</time></trkpt>
<trkpt lat="24.647169" lon="107.51583">
<time>2016-10-06T17:26:49Z</time></trkpt>
<trkpt lat="24.647128" lon="107.51577">
<time>2016-10-06T17:26:50Z</time></trkpt>
<trkpt lat="24.647088" lon="107.51571">
<time>2016-10-06T17:26:51Z</time></trkpt>
<trkpt lat="24.647038" lon="107.51566">
<time>2016-10-06T17:26:52Z</time></trkpt>
<trkpt lat="24.646938" lon="107.515559">
<time>2016-10-06T17:26:53Z</time></trkpt>
<trkpt lat="24.646808" lon="107.515449">
<time>2016-10-06T17:26:54Z</time></trkpt>
<trkpt lat="24.646647" lon="107.515329">
<time>2016-10-06T17:26:55Z</time></trkpt>
<trkpt lat="24.646457" lon="107.515198">
<time>2016-10-06T17:26:56Z</time></trkpt>
<trkpt lat="24.646066" lon="107.514927">
<time>2016-10-06T17:26:57Z</time></trkpt>
<trkpt lat="24.645755" lon="107.514717">
<time>2016-10-06T17:26:58Z</time></trkpt>
<trkpt lat="24.645625" lon="107.514627">
<time>2016-10-06T17:26:59Z</time></trkpt>
<trkpt lat="24.645505" lon="107.514536">
<time>2016-10-06T17:27:00Z</time></trkpt>
<trkpt lat="24.645425" lon="107.514476">
<time>2016-10-06T17:27:01Z</time></trkpt>
<trkpt lat="24.645244" lon="107.514316">
<time>2016-10-06T17:27:02Z</time></trkpt>
<trkpt lat="24.644753" lon="107.513824">
<time>2016-10-06T17:27:03Z</time></trkpt>
<trkpt lat="24.644271" lon="107.513263">
<time>2016-10-06T17:27:04Z</time></trkpt>
<trkpt lat="24.64394" lon="107.512901">
<time>2016-10-06T17:27:05Z</time></trkpt>
<trkpt lat="24.64386" lon="107.512821">
<time>2016-10-06T17:27:06Z</time></trkpt>
<trkpt lat="24.64379" lon="107.512761">
<time>2016-10-06T17:27:07Z</time></trkpt>
<trkpt lat="24.6437" lon="107.512701">
<time>2016-10-06T17:27:08Z</time></trkpt>
<trkpt lat="24.643609" lon="107.512661">
<time>2016-10-06T17:27:09Z</time></trkpt>
<trkpt lat="24.643529" lon="107.512631">
<time>2016-10-06T17:27:10Z</time></trkpt>
<trkpt lat="24.643439" lon="107.512611">
<time>2016-10-06T17:27:11Z</time></trkpt>
<trkpt lat="24.643339" lon="107.512581">
<time>2016-10-06T17:27:12Z</time></trkpt>
<trkpt lat="24.643239" lon="107.51256">
<time>2016-10-06T17:27:13Z</time></trkpt>
<trkpt lat="24.643149" lon="107.51255">
<time>2016-10-06T17:27:14Z</time></trkpt>
<trkpt lat="24.643059" lon="107.51254">
<time>2016-10-06T17:27:15Z</time></trkpt>
<trkpt lat="24.642889" lon="107.51253">
<time>2016-10-06T17:27:16Z</time></trkpt>
<trkpt lat="24.642399" lon="107.51248">
<time>2016-10-06T17:27:17Z</time></trkpt>
<trkpt lat="24.642189" lon="107.51246">
<time>2016-10-06T17:27:18Z</time></trkpt>
<trkpt lat="24.642089" lon="107.51244">
<time>2016-10-06T17:27:19Z</time></trkpt>
<trkpt lat="24.641999" lon="107.51242">
<time>2016-10-06T17:27:20Z</time></trkpt>
<trkpt lat="24.641909" lon="107.5124">
<time>2016-10-06T17:27:21Z</time></trkpt>
<trkpt lat="24.641809" lon="107.51236">
<time>2016-10-06T17:27:22Z</time></trkpt>
<trkpt lat="24.641708" lon="107.51232">
<time>2016-10-06T17:27:23Z</time></trkpt>
<trkpt lat="24.641628" lon="107.51227">
<time>2016-10-06T17:27:24Z</time></trkpt>
<trkpt lat="24.641508" lon="107.512199">
<time>2016-10-06T17:27:25Z</time></trkpt>
<trkpt lat="24.641398" lon="107.512109">
<time>2016-10-06T17:27:26Z</time></trkpt>
<trkpt lat="24.641117" lon="107.511889">
<time>2016-10-06T17:27:27Z</time></trkpt>
<trkpt lat="24.640716" lon="107.511548">
<time>2016-10-06T17:27:28Z</time></trkpt>
<trkpt lat="24.640466" lon="107.511327">
<time>2016-10-06T17:27:29Z</time></trkpt>
<trkpt lat="24.640245" lon="107.511126">
<time>2016-10-06T17:27:30Z</time></trkpt>
<trkpt lat="24.640175" lon="107.511036">
<time>2016-10-06T17:27:31Z</time></trkpt>
<trkpt lat="24.640135" lon="107.510986">
<time>2016-10-06T17:27:32Z</time></trkpt>
<trkpt lat="24.640094" lon="107.510916">
<time>2016-10-06T17:27:33Z</time></trkpt>
<trkpt lat="24.640064" lon="107.510835">
<time>2016-10-06T17:27:34Z</time></trkpt>
<trkpt lat="24.640044" lon="107.510765">
<time>2016-10-06T17:27:35Z</time></trkpt>
<trkpt lat="24.640034" lon="107.510715">
<time>2016-10-06T17:27:36Z</time></trkpt>
<trkpt lat="24.640024" lon="107.510635">
<time>2016-10-06T17:27:37Z</time></trkpt>
<trkpt lat="24.640023" lon="107.510565">
<time>2016-10-06T17:27:38Z</time></trkpt>
<trkpt lat="24.640013" lon="107.510474">
<time>2016-10-06T17:27:39Z</time></trkpt>
<trkpt lat="24.640041" lon="107.509822">
<time>2016-10-06T17:27:40Z</time></trkpt>
<trkpt lat="24.640051" lon="107.509762">
<time>2016-10-06T17:27:41Z</time></trkpt>
<trkpt lat="24.64006" lon="107.509592">
<time>2016-10-06T17:27:42Z</time></trkpt>
<trkpt lat="24.64007" lon="107.509361">
<time>2016-10-06T17:27:43Z</time></trkpt>
<trkpt lat="24.640069" lon="107.50918">
<time>2016-10-06T17:27:44Z</time></trkpt>
<trkpt lat="24.640059" lon="107.50909">
<time>2016-10-06T17:27:45Z</time></trkpt>
<trkpt lat="24.640039" lon="107.50901">
<time>2016-10-06T17:27:46Z</time></trkpt>
<trkpt lat="24.640019" lon="107.50894">
<time>2016-10-06T17:27:47Z</time></trkpt>
<trkpt lat="24.639998" lon="107.508869">
<time>2016-10-06T17:27:48Z</time></trkpt>
<trkpt lat="24.639958" lon="107.508789">
<time>2016-10-06T17:27:49Z</time></trkpt>
<trkpt lat="24.639918" lon="107.508719">
<time>2016-10-06T17:27:50Z</time></trkpt>
<trkpt lat="24.639878" lon="107.508659">
<time>2016-10-06T17:27:51Z</time></trkpt>
<trkpt lat="24.639828" lon="107.508589">
<time>2016-10-06T17:27:52Z</time></trkpt>
<trkpt lat="24.639757" lon="107.508498">
<time>2016-10-06T17:27:53Z</time></trkpt>
<trkpt lat="24.639697" lon="107.508428">
<time>2016-10-06T17:27:54Z</time></trkpt>
<trkpt lat="24.639647" lon="107.508368">
<time>2016-10-06T17:27:55Z</time></trkpt>
<trkpt lat="24.639356" lon="107.508057">
<time>2016-10-06T17:27:56Z</time></trkpt>
<trkpt lat="24.639165" lon="107.507836">
<time>2016-10-06T17:27:57Z</time></trkpt>
<trkpt lat="24.639075" lon="107.507736">
<time>2016-10-06T17:27:58Z</time></trkpt>
<trkpt lat="24.638985" lon="107.507596">
<time>2016-10-06T17:27:59Z</time></trkpt>
<trkpt lat="24.638914" lon="107.507495">
<time>2016-10-06T17:28:00Z</time></trkpt>
<trkpt lat="24.638864" lon="107.507385">
<time>2016-10-06T17:28:01Z</time></trkpt>
<trkpt lat="24.638834" lon="107.507285">
<time>2016-10-06T17:28:02Z</time></trkpt>
<trkpt lat="24.638803" lon="107.507184">
<time>2016-10-06T17:28:03Z</time></trkpt>
<trkpt lat="24.638783" lon="107.507064">
<time>2016-10-06T17:28:04Z</time></trkpt>
<trkpt lat="24.638773" lon="107.506944">
<time>2016-10-06T17:28:05Z</time></trkpt>
<trkpt lat="24.638772" lon="107.506863">
<time>2016-10-06T17:28:06Z</time></trkpt>
<trkpt lat="24.638782" lon="107.506783">
<time>2016-10-06T17:28:07Z</time></trkpt>
<trkpt lat="24.638792" lon="107.506713">
<time>2016-10-06T17:28:08Z</time></trkpt>
<trkpt lat="24.638802" lon="107.506633">
<time>2016-10-06T17:28:09Z</time></trkpt>
<trkpt lat="24.638822" lon="107.506572">
<time>2016-10-06T17:28:10Z</time></trkpt>
<trkpt lat="24.638851" lon="107.506452">
<time>2016-10-06T17:28:11Z</time></trkpt>
<trkpt lat="24.638901" lon="107.506362">
<time>2016-10-06T17:28:12Z</time></trkpt>
<trkpt lat="24.638911" lon="107.506332">
<time>2016-10-06T17:28:13Z</time></trkpt>
<trkpt lat="24.638951" lon="107.506261">
<time>2016-10-06T17:28:14Z</time></trkpt>
<trkpt lat="24.63899" lon="107.506191">
<time>2016-10-06T17:28:15Z</time></trkpt>
<trkpt lat="24.63904" lon="107.506121">
<time>2016-10-06T17:28:16Z</time></trkpt>
<trkpt lat="24.63914" lon="107.506011">
<time>2016-10-06T17:28:17Z</time></trkpt>
<trkpt lat="24.63921" lon="107.50593">
<time>2016-10-06T17:28:18Z</time></trkpt>
<trkpt lat="24.639279" lon="107.50587">
<time>2016-10-06T17:28:19Z</time></trkpt>
<trkpt lat="24.639339" lon="107.50581">
<time>2016-10-06T17:28:20Z</time></trkpt>
<trkpt lat="24.639479" lon="107.50569">
<time>2016-10-06T17:28:21Z</time></trkpt>
<trkpt lat="24.639788" lon="107.505449">
<time>2016-10-06T17:28:22Z</time></trkpt>
<trkpt lat="24.639968" lon="107.505308">
<time>2016-10-06T17:28:23Z</time></trkpt>
<trkpt lat="24.640068" lon="107.505218">
<time>2016-10-06T17:28:24Z</time></trkpt>
<trkpt lat="24.640137" lon="107.505138">
<time>2016-10-06T17:28:25Z</time></trkpt>
<trkpt lat="24.640207" lon="107.505058">
<time>2016-10-06T17:28:26Z</time></trkpt>
<trkpt lat="24.640347" lon="107.504867">
<time>2016-10-06T17:28:27Z</time></trkpt>
<trkpt lat="24.640406" lon="107.504777">
<time>2016-10-06T17:28:28Z</time></trkpt>
<trkpt lat="24.640446" lon="107.504706">
<time>2016-10-06T17:28:29Z</time></trkpt>
<trkpt lat="24.640496" lon="107.504606">
<time>2016-10-06T17:28:30Z</time></trkpt>
<trkpt lat="24.640536" lon="107.504526">
<time>2016-10-06T17:28:31Z</time></trkpt>
<trkpt lat="24.640555" lon="107.504446">
<time>2016-10-06T17:28:32Z</time></trkpt>
<trkpt lat="24.640635" lon="107.504235">
<time>2016-10-06T17:28:33Z</time></trkpt>
<trkpt lat="24.640803" lon="107.503764">
<time>2016-10-06T17:28:34Z</time></trkpt>
<trkpt lat="24.640932" lon="107.503433">
<time>2016-10-06T17:28:35Z</time></trkpt>
<trkpt lat="24.641101" lon="107.503061">
<time>2016-10-06T17:28:36Z</time></trkpt>
<trkpt lat="24.64126" lon="107.50275">
<time>2016-10-06T17:28:37Z</time></trkpt>
<trkpt lat="24.64136" lon="107.50256">
<time>2016-10-06T17:28:38Z</time></trkpt>
<trkpt lat="24.641429" lon="107.502449">
<time>2016-10-06T17:28:39Z</time></trkpt>
<trkpt lat="24.641549" lon="107.502259">
<time>2016-10-06T17:28:40Z</time></trkpt>
<trkpt lat="24.641728" lon="107.501978">
<time>2016-10-06T17:28:41Z</time></trkpt>
<trkpt lat="24.641847" lon="107.501757">
<time>2016-10-06T17:28:42Z</time></trkpt>
<trkpt lat="24.641887" lon="107.501657">
<time>2016-10-06T17:28:43Z</time></trkpt>
<trkpt lat="24.641907" lon="107.501587">
<time>2016-10-06T17:28:44Z</time></trkpt>
<trkpt lat="24.641927" lon="107.501527">
<time>2016-10-06T17:28:45Z</time></trkpt>
<trkpt lat="24.641926" lon="107.501476">
<time>2016-10-06T17:28:46Z</time></trkpt>
<trkpt lat="24.641936" lon="107.501406">
<time>2016-10-06T17:28:47Z</time></trkpt>
<trkpt lat="24.641936" lon="107.501346">
<time>2016-10-06T17:28:48Z</time></trkpt>
<trkpt lat="24.641926" lon="107.501286">
<time>2016-10-06T17:28:49Z</time></trkpt>
<trkpt lat="24.641906" lon="107.501226">
<time>2016-10-06T17:28:50Z</time></trkpt>
<trkpt lat="24.641875" lon="107.501145">
<time>2016-10-06T17:28:51Z</time></trkpt>
<trkpt lat="24.641845" lon="107.501095">
<time>2016-10-06T17:28:52Z</time></trkpt>
<trkpt lat="24.641805" lon="107.501045">
<time>2016-10-06T17:28:53Z</time></trkpt>
<trkpt lat="24.641775" lon="107.501005">
<time>2016-10-06T17:28:54Z</time></trkpt>
<trkpt lat="24.641735" lon="107.500975">
<time>2016-10-06T17:28:55Z</time></trkpt>
<trkpt lat="24.641695" lon="107.500945">
<time>2016-10-06T17:28:56Z</time></trkpt>
<trkpt lat="24.641635" lon="107.500905">
<time>2016-10-06T17:28:57Z</time></trkpt>
<trkpt lat="24.641575" lon="107.500885">
<time>2016-10-06T17:28:58Z</time></trkpt>
<trkpt lat="24.641505" lon="107.500864">
<time>2016-10-06T17:28:59Z</time></trkpt>
<trkpt lat="24.641435" lon="107.500854">
<time>2016-10-06T17:29:00Z</time></trkpt>
<trkpt lat="24.641365" lon="107.500844">
<time>2016-10-06T17:29:01Z</time></trkpt>
<trkpt lat="24.641284" lon="107.500834">
<time>2016-10-06T17:29:02Z</time></trkpt>
<trkpt lat="24.641204" lon="107.500834">
<time>2016-10-06T17:29:03Z</time></trkpt>
<trkpt lat="24.640985" lon="107.500844">
<time>2016-10-06T17:29:04Z</time></trkpt>
<trkpt lat="24.640764" lon="107.500834">
<time>2016-10-06T17:29:05Z</time></trkpt>
<trkpt lat="24.640674" lon="107.500824">
<time>2016-10-06T17:29:06Z</time></trkpt>
<trkpt lat="24.640594" lon="107.500814">
<time>2016-10-06T17:29:07Z</time></trkpt>
<trkpt lat="24.640504" lon="107.500784">
<time>2016-10-06T17:29:08Z</time></trkpt>
<trkpt lat="24.640444" lon="107.500764">
<time>2016-10-06T17:29:09Z</time></trkpt>
<trkpt lat="24.640374" lon="107.500744">
<time>2016-10-06T17:29:10Z</time></trkpt>
<trkpt lat="24.640274" lon="107.500694">
<time>2016-10-06T17:29:11Z</time></trkpt>
<trkpt lat="24.640034" lon="107.500564">
<time>2016-10-06T17:29:12Z</time></trkpt>
<trkpt lat="24.639823" lon="107.500463">
<time>2016-10-06T17:29:13Z</time></trkpt>
<trkpt lat="24.639653" lon="107.500403">
<time>2016-10-06T17:29:14Z</time></trkpt>
<trkpt lat="24.639533" lon="107.500363">
<time>2016-10-06T17:29:15Z</time></trkpt>
<trkpt lat="24.639403" lon="107.500343">
<time>2016-10-06T17:29:16Z</time></trkpt>
<trkpt lat="24.639273" lon="107.500323">
<time>2016-10-06T17:29:17Z</time></trkpt>
<trkpt lat="24.639143" lon="107.500313">
<time>2016-10-06T17:29:18Z</time></trkpt>
<trkpt lat="24.639053" lon="107.500313">
<time>2016-10-06T17:29:19Z</time></trkpt>
<trkpt lat="24.638933" lon="107.500323">
<time>2016-10-06T17:29:20Z</time></trkpt>
<trkpt lat="24.638803" lon="107.500333">
<time>2016-10-06T17:29:21Z</time></trkpt>
<trkpt lat="24.638613" lon="107.500353">
<time>2016-10-06T17:29:22Z</time></trkpt>
<trkpt lat="24.638473" lon="107.500373">
<time>2016-10-06T17:29:23Z</time></trkpt>
<trkpt lat="24.638383" lon="107.500373">
<time>2016-10-06T17:29:24Z</time></trkpt>
<trkpt lat="24.638323" lon="107.500363">
<time>2016-10-06T17:29:25Z</time></trkpt>
<trkpt lat="24.638263" lon="107.500353">
<time>2016-10-06T17:29:26Z</time></trkpt>
<trkpt lat="24.638203" lon="107.500333">
<time>2016-10-06T17:29:27Z</time></trkpt>
<trkpt lat="24.638133" lon="107.500303">
<time>2016-10-06T17:29:28Z</time></trkpt>
<trkpt lat="24.638073" lon="107.500263">
<time>2016-10-06T17:29:29Z</time></trkpt>
<trkpt lat="24.638013" lon="107.500213">
<time>2016-10-06T17:29:30Z</time></trkpt>
<trkpt lat="24.637972" lon="107.500172">
<time>2016-10-06T17:29:31Z</time></trkpt>
<trkpt lat="24.637942" lon="107.500132">
<time>2016-10-06T17:29:32Z</time></trkpt>
<trkpt lat="24.637912" lon="107.500082">
<time>2016-10-06T17:29:33Z</time></trkpt>
<trkpt lat="24.637882" lon="107.500012">
<time>2016-10-06T17:29:34Z</time></trkpt>
<trkpt lat="24.637872" lon="107.499982">
<time>2016-10-06T17:29:35Z</time></trkpt>
<trkpt lat="24.637852" lon="107.499902">
<time>2016-10-06T17:29:36Z</time></trkpt>
<trkpt lat="24.637831" lon="107.499821">
<time>2016-10-06T17:29:37Z</time></trkpt>
<trkpt lat="24.637831" lon="107.499721">
<time>2016-10-06T17:29:38Z</time></trkpt>
<trkpt lat="24.637841" lon="107.499601">
<time>2016-10-06T17:29:39Z</time></trkpt>
<trkpt lat="24.637938" lon="107.498708">
<time>2016-10-06T17:29:40Z</time></trkpt>
<trkpt lat="24.637967" lon="107.498397">
<time>2016-10-06T17:29:41Z</time></trkpt>
<trkpt lat="24.638074" lon="107.497514">
<time>2016-10-06T17:29:42Z</time></trkpt>
<trkpt lat="24.638142" lon="107.496772">
<time>2016-10-06T17:29:43Z</time></trkpt>
<trkpt lat="24.638142" lon="107.496692">
<time>2016-10-06T17:29:44Z</time></trkpt>
<trkpt lat="24.638142" lon="107.496601">
<time>2016-10-06T17:29:45Z</time></trkpt>
<trkpt lat="24.638131" lon="107.496521">
<time>2016-10-06T17:29:46Z</time></trkpt>
<trkpt lat="24.638121" lon="107.496451">
<time>2016-10-06T17:29:47Z</time></trkpt>
<trkpt lat="24.638101" lon="107.496381">
<time>2016-10-06T17:29:48Z</time></trkpt>
<trkpt lat="24.638071" lon="107.4963">
<time>2016-10-06T17:29:49Z</time></trkpt>
<trkpt lat="24.638041" lon="107.49624">
<time>2016-10-06T17:29:50Z</time></trkpt>
<trkpt lat="24.63799" lon="107.49617">
<time>2016-10-06T17:29:51Z</time></trkpt>
<trkpt lat="24.63793" lon="107.49611">
<time>2016-10-06T17:29:52Z</time></trkpt>
<trkpt lat="24.63785" lon="107.49604">
<time>2016-10-06T17:29:53Z</time></trkpt>
<trkpt lat="24.63772" lon="107.495969">
<time>2016-10-06T17:29:54Z</time></trkpt>
<trkpt lat="24.63756" lon="107.495899">
<time>2016-10-06T17:29:55Z</time></trkpt>
<trkpt lat="24.637259" lon="107.495759">
<time>2016-10-06T17:29:56Z</time></trkpt>
<trkpt lat="24.637149" lon="107.495709">
<time>2016-10-06T17:29:57Z</time></trkpt>
<trkpt lat="24.637039" lon="107.495638">
<time>2016-10-06T17:29:58Z</time></trkpt>
<trkpt lat="24.636928" lon="107.495538">
<time>2016-10-06T17:29:59Z</time></trkpt>
<trkpt lat="24.636838" lon="107.495428">
<time>2016-10-06T17:30:00Z</time></trkpt>
<trkpt lat="24.636738" lon="107.495277">
<time>2016-10-06T17:30:01Z</time></trkpt>
<trkpt lat="24.636446" lon="107.494675">
<time>2016-10-06T17:30:02Z</time></trkpt>
<trkpt lat="24.636114" lon="107.494114">
<time>2016-10-06T17:30:03Z</time></trkpt>
<trkpt lat="24.635823" lon="107.493702">
<time>2016-10-06T17:30:04Z</time></trkpt>
<trkpt lat="24.635692" lon="107.493512">
<time>2016-10-06T17:30:05Z</time></trkpt>
<trkpt lat="24.635652" lon="107.493401">
<time>2016-10-06T17:30:06Z</time></trkpt>
<trkpt lat="24.635622" lon="107.493291">
<time>2016-10-06T17:30:07Z</time></trkpt>
<trkpt lat="24.635601" lon="107.493181">
<time>2016-10-06T17:30:08Z</time></trkpt>
<trkpt lat="24.635601" lon="107.49307">
<time>2016-10-06T17:30:09Z</time></trkpt>
<trkpt lat="24.635611" lon="107.49298">
<time>2016-10-06T17:30:10Z</time></trkpt>
<trkpt lat="24.63565" lon="107.49286">
<time>2016-10-06T17:30:11Z</time></trkpt>
<trkpt lat="24.6357" lon="107.492739">
<time>2016-10-06T17:30:12Z</time></trkpt>
<trkpt lat="24.635819" lon="107.492529">
<time>2016-10-06T17:30:13Z</time></trkpt>
<trkpt lat="24.635919" lon="107.492348">
<time>2016-10-06T17:30:14Z</time></trkpt>
<trkpt lat="24.635959" lon="107.492228">
<time>2016-10-06T17:30:15Z</time></trkpt>
<trkpt lat="24.635968" lon="107.492148">
<time>2016-10-06T17:30:16Z</time></trkpt>
<trkpt lat="24.635968" lon="107.492057">
<time>2016-10-06T17:30:17Z</time></trkpt>
<trkpt lat="24.635958" lon="107.491927">
<time>2016-10-06T17:30:18Z</time></trkpt>
<trkpt lat="24.635907" lon="107.491806">
<time>2016-10-06T17:30:19Z</time></trkpt>
<trkpt lat="24.635827" lon="107.491666">
<time>2016-10-06T17:30:20Z</time></trkpt>
<trkpt lat="24.635656" lon="107.491475">
<time>2016-10-06T17:30:21Z</time></trkpt>
<trkpt lat="24.635255" lon="107.491054">
<time>2016-10-06T17:30:22Z</time></trkpt>
<trkpt lat="24.634944" lon="107.490723">
<time>2016-10-06T17:30:23Z</time></trkpt>
<trkpt lat="24.634743" lon="107.490512">
<time>2016-10-06T17:30:24Z</time></trkpt>
<trkpt lat="24.634633" lon="107.490432">
<time>2016-10-06T17:30:25Z</time></trkpt>
<trkpt lat="24.634533" lon="107.490372">
<time>2016-10-06T17:30:26Z</time></trkpt>
<trkpt lat="24.634443" lon="107.490342">
<time>2016-10-06T17:30:27Z</time></trkpt>
<trkpt lat="24.634373" lon="107.490332">
<time>2016-10-06T17:30:28Z</time></trkpt>
<trkpt lat="24.634303" lon="107.490332">
<time>2016-10-06T17:30:29Z</time></trkpt>
<trkpt lat="24.634233" lon="107.490332">
<time>2016-10-06T17:30:30Z</time></trkpt>
<trkpt lat="24.634143" lon="107.490352">
<time>2016-10-06T17:30:31Z</time></trkpt>
<trkpt lat="24.634053" lon="107.490372">
<time>2016-10-06T17:30:32Z</time></trkpt>
<trkpt lat="24.634003" lon="107.490392">
<time>2016-10-06T17:30:33Z</time></trkpt>
<trkpt lat="24.633933" lon="107.490432">
<time>2016-10-06T17:30:34Z</time></trkpt>
<trkpt lat="24.633793" lon="107.490523">
<time>2016-10-06T17:30:35Z</time></trkpt>
<trkpt lat="24.633594" lon="107.490673">
<time>2016-10-06T17:30:36Z</time></trkpt>
<trkpt lat="24.633514" lon="107.490723">
<time>2016-10-06T17:30:37Z</time></trkpt>
<trkpt lat="24.633434" lon="107.490763">
<time>2016-10-06T17:30:38Z</time></trkpt>
<trkpt lat="24.633344" lon="107.490803">
<time>2016-10-06T17:30:39Z</time></trkpt>
<trkpt lat="24.633254" lon="107.490814">
<time>2016-10-06T17:30:40Z</time></trkpt>
<trkpt lat="24.633184" lon="107.490824">
<time>2016-10-06T17:30:41Z</time></trkpt>
<trkpt lat="24.633104" lon="107.490814">
<time>2016-10-06T17:30:42Z</time></trkpt>
<trkpt lat="24.633024" lon="107.490803">
<time>2016-10-06T17:30:43Z</time></trkpt>
<trkpt lat="24.632954" lon="107.490773">
<time>2016-10-06T17:30:44Z</time></trkpt>
<trkpt lat="24.632884" lon="107.490733">
<time>2016-10-06T17:30:45Z</time></trkpt>
<trkpt lat="24.632824" lon="107.490683">
<time>2016-10-06T17:30:46Z</time></trkpt>
<trkpt lat="24.632764" lon="107.490613">
<time>2016-10-06T17:30:47Z</time></trkpt>
<trkpt lat="24.632713" lon="107.490553">
<time>2016-10-06T17:30:48Z</time></trkpt>
<trkpt lat="24.632563" lon="107.490292">
<time>2016-10-06T17:30:49Z</time></trkpt>
<trkpt lat="24.632211" lon="107.48966">
<time>2016-10-06T17:30:50Z</time></trkpt>
<trkpt lat="24.63209" lon="107.489479">
<time>2016-10-06T17:30:51Z</time></trkpt>
<trkpt lat="24.63198" lon="107.489359">
<time>2016-10-06T17:30:52Z</time></trkpt>
<trkpt lat="24.63192" lon="107.489309">
<time>2016-10-06T17:30:53Z</time></trkpt>
<trkpt lat="24.63185" lon="107.489259">
<time>2016-10-06T17:30:54Z</time></trkpt>
<trkpt lat="24.631789" lon="107.489229">
<time>2016-10-06T17:30:55Z</time></trkpt>
<trkpt lat="24.631729" lon="107.489209">
<time>2016-10-06T17:30:56Z</time></trkpt>
<trkpt lat="24.631679" lon="107.489199">
<time>2016-10-06T17:30:57Z</time></trkpt>
<trkpt lat="24.631609" lon="107.489189">
<time>2016-10-06T17:30:58Z</time></trkpt>
<trkpt lat="24.631549" lon="107.489189">
<time>2016-10-06T17:30:59Z</time></trkpt>
<trkpt lat="24.631489" lon="107.489199">
<time>2016-10-06T17:31:00Z</time></trkpt>
<trkpt lat="24.631439" lon="107.489199">
<time>2016-10-06T17:31:01Z</time></trkpt>
<trkpt lat="24.631379" lon="107.489219">
<time>2016-10-06T17:31:02Z</time></trkpt>
<trkpt lat="24.63125" lon="107.489279">
<time>2016-10-06T17:31:03Z</time></trkpt>
<trkpt lat="24.63107" lon="107.489409">
<time>2016-10-06T17:31:04Z</time></trkpt>
<trkpt lat="24.63089" lon="107.48953">
<time>2016-10-06T17:31:05Z</time></trkpt>
<trkpt lat="24.630561" lon="107.48976">
<time>2016-10-06T17:31:06Z</time></trkpt>
<trkpt lat="24.630341" lon="107.489931">
<time>2016-10-06T17:31:07Z</time></trkpt>
<trkpt lat="24.630132" lon="107.490061">
<time>2016-10-06T17:31:08Z</time></trkpt>
<trkpt lat="24.630092" lon="107.490071">
<time>2016-10-06T17:31:09Z</time></trkpt>
<trkpt lat="24.630012" lon="107.490111">
<time>2016-10-06T17:31:10Z</time></trkpt>
<trkpt lat="24.629892" lon="107.490162">
<time>2016-10-06T17:31:11Z</time></trkpt>
<trkpt lat="24.629732" lon="107.490192">
<time>2016-10-06T17:31:12Z</time></trkpt>
<trkpt lat="24.629442" lon="107.490222">
<time>2016-10-06T17:31:13Z</time></trkpt>
<trkpt lat="24.628552" lon="107.490262">
<time>2016-10-06T17:31:14Z</time></trkpt>
<trkpt lat="24.628352" lon="107.490282">
<time>2016-10-06T17:31:15Z</time></trkpt>
<trkpt lat="24.628152" lon="107.490282">
<time>2016-10-06T17:31:16Z</time></trkpt>
<trkpt lat="24.628062" lon="107.490262">
<time>2016-10-06T17:31:17Z</time></trkpt>
<trkpt lat="24.627972" lon="107.490242">
<time>2016-10-06T17:31:18Z</time></trkpt>
<trkpt lat="24.627902" lon="107.490212">
<time>2016-10-06T17:31:19Z</time></trkpt>
<trkpt lat="24.627832" lon="107.490172">
<time>2016-10-06T17:31:20Z</time></trkpt>
<trkpt lat="24.627742" lon="107.490102">
<time>2016-10-06T17:31:21Z</time></trkpt>
<trkpt lat="24.627682" lon="107.490011">
<time>2016-10-06T17:31:22Z</time></trkpt>
<trkpt lat="24.627611" lon="107.489911">
<time>2016-10-06T17:31:23Z</time></trkpt>
<trkpt lat="24.627561" lon="107.489761">
<time>2016-10-06T17:31:24Z</time></trkpt>
<trkpt lat="24.627157" lon="107.488376">
<time>2016-10-06T17:31:25Z</time></trkpt>
<trkpt lat="24.626995" lon="107.487885">
<time>2016-10-06T17:31:26Z</time></trkpt>
<trkpt lat="24.626885" lon="107.487644">
<time>2016-10-06T17:31:27Z</time></trkpt>
<trkpt lat="24.626784" lon="107.487534">
<time>2016-10-06T17:31:28Z</time></trkpt>
<trkpt lat="24.626674" lon="107.487443">
<time>2016-10-06T17:31:29Z</time></trkpt>
<trkpt lat="24.626574" lon="107.487373">
<time>2016-10-06T17:31:30Z</time></trkpt>
<trkpt lat="24.626474" lon="107.487333">
<time>2016-10-06T17:31:31Z</time></trkpt>
<trkpt lat="24.626394" lon="107.487303">
<time>2016-10-06T17:31:32Z</time></trkpt>
<trkpt lat="24.626333" lon="107.487283">
<time>2016-10-06T17:31:33Z</time></trkpt>
<trkpt lat="24.626223" lon="107.487273">
<time>2016-10-06T17:31:34Z</time></trkpt>
<trkpt lat="24.626113" lon="107.487273">
<time>2016-10-06T17:31:35Z</time></trkpt>
<trkpt lat="24.626003" lon="107.487283">
<time>2016-10-06T17:31:36Z</time></trkpt>
<trkpt lat="24.625584" lon="107.487353">
<time>2016-10-06T17:31:37Z</time></trkpt>
<trkpt lat="24.625094" lon="107.487433">
<time>2016-10-06T17:31:38Z</time></trkpt>
<trkpt lat="24.624514" lon="107.487574">
<time>2016-10-06T17:31:39Z</time></trkpt>
<trkpt lat="24.623925" lon="107.487724">
<time>2016-10-06T17:31:40Z</time></trkpt>
<trkpt lat="24.623435" lon="107.487885">
<time>2016-10-06T17:31:41Z</time></trkpt>
<trkpt lat="24.623125" lon="107.487945">
<time>2016-10-06T17:31:42Z</time></trkpt>
<trkpt lat="24.622955" lon="107.487955">
<time>2016-10-06T17:31:43Z</time></trkpt>
<trkpt lat="24.622845" lon="107.487945">
<time>2016-10-06T17:31:44Z</time></trkpt>
<trkpt lat="24.622745" lon="107.487925">
<time>2016-10-06T17:31:45Z</time></trkpt>
<trkpt lat="24.622625" lon="107.487885">
<time>2016-10-06T17:31:46Z</time></trkpt>
<trkpt lat="24.622515" lon="107.487835">
<time>2016-10-06T17:31:47Z</time></trkpt>
<trkpt lat="24.622405" lon="107.487775">
<time>2016-10-06T17:31:48Z</time></trkpt>
<trkpt lat="24.622275" lon="107.487694">
<time>2016-10-06T17:31:49Z</time></trkpt>
<trkpt lat="24.622094" lon="107.487584">
<time>2016-10-06T17:31:50Z</time></trkpt>
<trkpt lat="24.621192" lon="107.487002">
<time>2016-10-06T17:31:51Z</time></trkpt>
<trkpt lat="24.620641" lon="107.486651">
<time>2016-10-06T17:31:52Z</time></trkpt>
<trkpt lat="24.62003" lon="107.48624">
<time>2016-10-06T17:31:53Z</time></trkpt>
<trkpt lat="24.61982" lon="107.4861">
<time>2016-10-06T17:31:54Z</time></trkpt>
<trkpt lat="24.619669" lon="107.485979">
<time>2016-10-06T17:31:55Z</time></trkpt>
<trkpt lat="24.619569" lon="107.485879">
<time>2016-10-06T17:31:56Z</time></trkpt>
<trkpt lat="24.619469" lon="107.485749">
<time>2016-10-06T17:31:57Z</time></trkpt>
<trkpt lat="24.619338" lon="107.485558">
<time>2016-10-06T17:31:58Z</time></trkpt>
<trkpt lat="24.619087" lon="107.485107">
<time>2016-10-06T17:31:59Z</time></trkpt>
<trkpt lat="24.618936" lon="107.484836">
<time>2016-10-06T17:32:00Z</time></trkpt>
<trkpt lat="24.618534" lon="107.484124">
<time>2016-10-06T17:32:01Z</time></trkpt>
<trkpt lat="24.618353" lon="107.483783">
<time>2016-10-06T17:32:02Z</time></trkpt>
<trkpt lat="24.618242" lon="107.483612">
<time>2016-10-06T17:32:03Z</time></trkpt>
<trkpt lat="24.618182" lon="107.483532">
<time>2016-10-06T17:32:04Z</time></trkpt>
<trkpt lat="24.618102" lon="107.483432">
<time>2016-10-06T17:32:05Z</time></trkpt>
<trkpt lat="24.618022" lon="107.483351">
<time>2016-10-06T17:32:06Z</time></trkpt>
<trkpt lat="24.617911" lon="107.483251">
<time>2016-10-06T17:32:07Z</time></trkpt>
<trkpt lat="24.617801" lon="107.483171">
<time>2016-10-06T17:32:08Z</time></trkpt>
<trkpt lat="24.617611" lon="107.48305">
<time>2016-10-06T17:32:09Z</time></trkpt>
<trkpt lat="24.616558" lon="107.482328">
<time>2016-10-06T17:32:10Z</time></trkpt>
<trkpt lat="24.615817" lon="107.481847">
<time>2016-10-06T17:32:11Z</time></trkpt>
<trkpt lat="24.615436" lon="107.481576">
<time>2016-10-06T17:32:12Z</time></trkpt>
<trkpt lat="24.615326" lon="107.481486">
<time>2016-10-06T17:32:13Z</time></trkpt>
<trkpt lat="24.615266" lon="107.481416">
<time>2016-10-06T17:32:14Z</time></trkpt>
<trkpt lat="24.615195" lon="107.481325">
<time>2016-10-06T17:32:15Z</time></trkpt>
<trkpt lat="24.615135" lon="107.481235">
<time>2016-10-06T17:32:16Z</time></trkpt>
<trkpt lat="24.615055" lon="107.481115">
<time>2016-10-06T17:32:17Z</time></trkpt>
<trkpt lat="24.614995" lon="107.481014">
<time>2016-10-06T17:32:18Z</time></trkpt>
<trkpt lat="24.614924" lon="107.480894">
<time>2016-10-06T17:32:19Z</time></trkpt>
<trkpt lat="24.614713" lon="107.480443">
<time>2016-10-06T17:32:20Z</time></trkpt>
<trkpt lat="24.614522" lon="107.480022">
<time>2016-10-06T17:32:21Z</time></trkpt>
<trkpt lat="24.614451" lon="107.479891">
<time>2016-10-06T17:32:22Z</time></trkpt>
<trkpt lat="24.614411" lon="107.479821">
<time>2016-10-06T17:32:23Z</time></trkpt>
<trkpt lat="24.614341" lon="107.479731">
<time>2016-10-06T17:32:24Z</time></trkpt>
<trkpt lat="24.614301" lon="107.47967">
<time>2016-10-06T17:32:25Z</time></trkpt>
<trkpt lat="24.61424" lon="107.4796">
<time>2016-10-06T17:32:26Z</time></trkpt>
<trkpt lat="24.61417" lon="107.47953">
<time>2016-10-06T17:32:27Z</time></trkpt>
<trkpt lat="24.613769" lon="107.479069">
<time>2016-10-06T17:32:28Z</time></trkpt>
<trkpt lat="24.613227" lon="107.478447">
<time>2016-10-06T17:32:29Z</time></trkpt>
<trkpt lat="24.612765" lon="107.477915">
<time>2016-10-06T17:32:30Z</time></trkpt>
<trkpt lat="24.612364" lon="107.477454">
<time>2016-10-06T17:32:31Z</time></trkpt>
<trkpt lat="24.612033" lon="107.477073">
<time>2016-10-06T17:32:32Z</time></trkpt>
<trkpt lat="24.611923" lon="107.476943">
<time>2016-10-06T17:32:33Z</time></trkpt>
<trkpt lat="24.611802" lon="107.476792">
<time>2016-10-06T17:32:34Z</time></trkpt>
<trkpt lat="24.611692" lon="107.476652">
<time>2016-10-06T17:32:35Z</time></trkpt>
<trkpt lat="24.611622" lon="107.476551">
<time>2016-10-06T17:32:36Z</time></trkpt>
<trkpt lat="24.611501" lon="107.476361">
<time>2016-10-06T17:32:37Z</time></trkpt>
<trkpt lat="24.61141" lon="107.47616">
<time>2016-10-06T17:32:38Z</time></trkpt>
<trkpt lat="24.61137" lon="107.47607">
<time>2016-10-06T17:32:39Z</time></trkpt>
<trkpt lat="24.61134" lon="107.47597">
<time>2016-10-06T17:32:40Z</time></trkpt>
<trkpt lat="24.611309" lon="107.475809">
<time>2016-10-06T17:32:41Z</time></trkpt>
<trkpt lat="24.611279" lon="107.475619">
<time>2016-10-06T17:32:42Z</time></trkpt>
<trkpt lat="24.611248" lon="107.475197">
<time>2016-10-06T17:32:43Z</time></trkpt>
<trkpt lat="24.611225" lon="107.474285">
<time>2016-10-06T17:32:44Z</time></trkpt>
<trkpt lat="24.611194" lon="107.473874">
<time>2016-10-06T17:32:45Z</time></trkpt>
<trkpt lat="24.611133" lon="107.473643">
<time>2016-10-06T17:32:46Z</time></trkpt>
<trkpt lat="24.611063" lon="107.473432">
<time>2016-10-06T17:32:47Z</time></trkpt>
<trkpt lat="24.610962" lon="107.473262">
<time>2016-10-06T17:32:48Z</time></trkpt>
<trkpt lat="24.610862" lon="107.473071">
<time>2016-10-06T17:32:49Z</time></trkpt>
<trkpt lat="24.610731" lon="107.472921">
<time>2016-10-06T17:32:50Z</time></trkpt>
<trkpt lat="24.610571" lon="107.47277">
<time>2016-10-06T17:32:51Z</time></trkpt>
<trkpt lat="24.609839" lon="107.472119">
<time>2016-10-06T17:32:52Z</time></trkpt>
<trkpt lat="24.609518" lon="107.471818">
<time>2016-10-06T17:32:53Z</time></trkpt>
<trkpt lat="24.609327" lon="107.471577">
<time>2016-10-06T17:32:54Z</time></trkpt>
<trkpt lat="24.609217" lon="107.471417">
<time>2016-10-06T17:32:55Z</time></trkpt>
<trkpt lat="24.609096" lon="107.471156">
<time>2016-10-06T17:32:56Z</time></trkpt>
<trkpt lat="24.608835" lon="107.470614">
<time>2016-10-06T17:32:57Z</time></trkpt>
<trkpt lat="24.608141" lon="107.469191">
<time>2016-10-06T17:32:58Z</time></trkpt>
<trkpt lat="24.60791" lon="107.468719">
<time>2016-10-06T17:32:59Z</time></trkpt>
<trkpt lat="24.607457" lon="107.467977">
<time>2016-10-06T17:33:00Z</time></trkpt>
<trkpt lat="24.607196" lon="107.467616">
<time>2016-10-06T17:33:01Z</time></trkpt>
<trkpt lat="24.607006" lon="107.467386">
<time>2016-10-06T17:33:02Z</time></trkpt>
<trkpt lat="24.605241" lon="107.465541">
<time>2016-10-06T17:33:03Z</time></trkpt>
<trkpt lat="24.604378" lon="107.464558">
<time>2016-10-06T17:33:04Z</time></trkpt>
<trkpt lat="24.603816" lon="107.463846">
<time>2016-10-06T17:33:05Z</time></trkpt>
<trkpt lat="24.603465" lon="107.463385">
<time>2016-10-06T17:33:06Z</time></trkpt>
<trkpt lat="24.603254" lon="107.463124">
<time>2016-10-06T17:33:07Z</time></trkpt>
<trkpt lat="24.603034" lon="107.462884">
<time>2016-10-06T17:33:08Z</time></trkpt>
<trkpt lat="24.602783" lon="107.462643">
<time>2016-10-06T17:33:09Z</time></trkpt>
<trkpt lat="24.602603" lon="107.462493">
<time>2016-10-06T17:33:10Z</time></trkpt>
<trkpt lat="24.602513" lon="107.462413">
<time>2016-10-06T17:33:11Z</time></trkpt>
<trkpt lat="24.602212" lon="107.462222">
<time>2016-10-06T17:33:12Z</time></trkpt>
<trkpt lat="24.601892" lon="107.462022">
<time>2016-10-06T17:33:13Z</time></trkpt>
<trkpt lat="24.601771" lon="107.461931">
<time>2016-10-06T17:33:14Z</time></trkpt>
<trkpt lat="24.601621" lon="107.461771">
<time>2016-10-06T17:33:15Z</time></trkpt>
<trkpt lat="24.601551" lon="107.461681">
<time>2016-10-06T17:33:16Z</time></trkpt>
<trkpt lat="24.60147" lon="107.46153">
<time>2016-10-06T17:33:17Z</time></trkpt>
<trkpt lat="24.60143" lon="107.46144">
<time>2016-10-06T17:33:18Z</time></trkpt>
<trkpt lat="24.6014" lon="107.46135">
<time>2016-10-06T17:33:19Z</time></trkpt>
<trkpt lat="24.60138" lon="107.46123">
<time>2016-10-06T17:33:20Z</time></trkpt>
<trkpt lat="24.601309" lon="107.460839">
<time>2016-10-06T17:33:21Z</time></trkpt>
<trkpt lat="24.601157" lon="107.460287">
<time>2016-10-06T17:33:22Z</time></trkpt>
<trkpt lat="24.601087" lon="107.460087">
<time>2016-10-06T17:33:23Z</time></trkpt>
<trkpt lat="24.601036" lon="107.459946">
<time>2016-10-06T17:33:24Z</time></trkpt>
<trkpt lat="24.600906" lon="107.459696">
<time>2016-10-06T17:33:25Z</time></trkpt>
<trkpt lat="24.600685" lon="107.459355">
<time>2016-10-06T17:33:26Z</time></trkpt>
<trkpt lat="24.600564" lon="107.459114">
<time>2016-10-06T17:33:27Z</time></trkpt>
<trkpt lat="24.600494" lon="107.458954">
<time>2016-10-06T17:33:28Z</time></trkpt>
<trkpt lat="24.600454" lon="107.458834">
<time>2016-10-06T17:33:29Z</time></trkpt>
<trkpt lat="24.600423" lon="107.458713">
<time>2016-10-06T17:33:30Z</time></trkpt>
<trkpt lat="24.600423" lon="107.458613">
<time>2016-10-06T17:33:31Z</time></trkpt>
<trkpt lat="24.600413" lon="107.458533">
<time>2016-10-06T17:33:32Z</time></trkpt>
<trkpt lat="24.600432" lon="107.458423">
<time>2016-10-06T17:33:33Z</time></trkpt>
<trkpt lat="24.600482" lon="107.458202">
<time>2016-10-06T17:33:34Z</time></trkpt>
<trkpt lat="24.600492" lon="107.458072">
<time>2016-10-06T17:33:35Z</time></trkpt>
<trkpt lat="24.600481" lon="107.457992">
<time>2016-10-06T17:33:36Z</time></trkpt>
<trkpt lat="24.600471" lon="107.457901">
<time>2016-10-06T17:33:37Z</time></trkpt>
<trkpt lat="24.600441" lon="107.457821">
<time>2016-10-06T17:33:38Z</time></trkpt>
<trkpt lat="24.600401" lon="107.457741">
<time>2016-10-06T17:33:39Z</time></trkpt>
<trkpt lat="24.600361" lon="107.457681">
<time>2016-10-06T17:33:40Z</time></trkpt>
<trkpt lat="24.600311" lon="107.457621">
<time>2016-10-06T17:33:41Z</time></trkpt>
<trkpt lat="24.60006" lon="107.45735">
<time>2016-10-06T17:33:42Z</time></trkpt>
<trkpt lat="24.599849" lon="107.45713">
<time>2016-10-06T17:33:43Z</time></trkpt>
<trkpt lat="24.599719" lon="107.456969">
<time>2016-10-06T17:33:44Z</time></trkpt>
<trkpt lat="24.599528" lon="107.456729">
<time>2016-10-06T17:33:45Z</time></trkpt>
<trkpt lat="24.599277" lon="107.456388">
<time>2016-10-06T17:33:46Z</time></trkpt>
<trkpt lat="24.599097" lon="107.456177">
<time>2016-10-06T17:33:47Z</time></trkpt>
<trkpt lat="24.598947" lon="107.456037">
<time>2016-10-06T17:33:48Z</time></trkpt>
<trkpt lat="24.598766" lon="107.455887">
<time>2016-10-06T17:33:49Z</time></trkpt>
<trkpt lat="24.598616" lon="107.455766">
<time>2016-10-06T17:33:50Z</time></trkpt>
<trkpt lat="24.598476" lon="107.455636">
<time>2016-10-06T17:33:51Z</time></trkpt>
<trkpt lat="24.598365" lon="107.455506">
<time>2016-10-06T17:33:52Z</time></trkpt>
<trkpt lat="24.598275" lon="107.455406">
<time>2016-10-06T17:33:53Z</time></trkpt>
<trkpt lat="24.598175" lon="107.455275">
<time>2016-10-06T17:33:54Z</time></trkpt>
<trkpt lat="24.598125" lon="107.455165">
<time>2016-10-06T17:33:55Z</time></trkpt>
<trkpt lat="24.598074" lon="107.455075">
<time>2016-10-06T17:33:56Z</time></trkpt>
<trkpt lat="24.598004" lon="107.454884">
<time>2016-10-06T17:33:57Z</time></trkpt>
<trkpt lat="24.597803" lon="107.454333">
<time>2016-10-06T17:33:58Z</time></trkpt>
<trkpt lat="24.597672" lon="107.453942">
<time>2016-10-06T17:33:59Z</time></trkpt>
<trkpt lat="24.597571" lon="107.453722">
<time>2016-10-06T17:34:00Z</time></trkpt>
<trkpt lat="24.597501" lon="107.453571">
<time>2016-10-06T17:34:01Z</time></trkpt>
<trkpt lat="24.597441" lon="107.453451">
<time>2016-10-06T17:34:02Z</time></trkpt>
<trkpt lat="24.59737" lon="107.453331">
<time>2016-10-06T17:34:03Z</time></trkpt>
<trkpt lat="24.5973" lon="107.453221">
<time>2016-10-06T17:34:04Z</time></trkpt>
<trkpt lat="24.597059" lon="107.4529">
<time>2016-10-06T17:34:05Z</time></trkpt>
<trkpt lat="24.596919" lon="107.452679">
<time>2016-10-06T17:34:06Z</time></trkpt>
<trkpt lat="24.596858" lon="107.452559">
<time>2016-10-06T17:34:07Z</time></trkpt>
<trkpt lat="24.596828" lon="107.452449">
<time>2016-10-06T17:34:08Z</time></trkpt>
<trkpt lat="24.596808" lon="107.452339">
<time>2016-10-06T17:34:09Z</time></trkpt>
<trkpt lat="24.596808" lon="107.452258">
<time>2016-10-06T17:34:10Z</time></trkpt>
<trkpt lat="24.596808" lon="107.452178">
<time>2016-10-06T17:34:11Z</time></trkpt>
<trkpt lat="24.596827" lon="107.452108">
<time>2016-10-06T17:34:12Z</time></trkpt>
<trkpt lat="24.596847" lon="107.452028">
<time>2016-10-06T17:34:13Z</time></trkpt>
<trkpt lat="24.596887" lon="107.451928">
<time>2016-10-06T17:34:14Z</time></trkpt>
<trkpt lat="24.597046" lon="107.451547">
<time>2016-10-06T17:34:15Z</time></trkpt>
<trkpt lat="24.597275" lon="107.451026">
<time>2016-10-06T17:34:16Z</time></trkpt>
<trkpt lat="24.597374" lon="107.450715">
<time>2016-10-06T17:34:17Z</time></trkpt>
<trkpt lat="24.597404" lon="107.450575">
<time>2016-10-06T17:34:18Z</time></trkpt>
<trkpt lat="24.597424" lon="107.450374">
<time>2016-10-06T17:34:19Z</time></trkpt>
<trkpt lat="24.597423" lon="107.450264">
<time>2016-10-06T17:34:20Z</time></trkpt>
<trkpt lat="24.597403" lon="107.450114">
<time>2016-10-06T17:34:21Z</time></trkpt>
<trkpt lat="24.597383" lon="107.449973">
<time>2016-10-06T17:34:22Z</time></trkpt>
<trkpt lat="24.597342" lon="107.449853">
<time>2016-10-06T17:34:23Z</time></trkpt>
<trkpt lat="24.597312" lon="107.449773">
<time>2016-10-06T17:34:24Z</time></trkpt>
<trkpt lat="24.597232" lon="107.449623">
<time>2016-10-06T17:34:25Z</time></trkpt>
<trkpt lat="24.597192" lon="107.449552">
<time>2016-10-06T17:34:26Z</time></trkpt>
<trkpt lat="24.597152" lon="107.449472">
<time>2016-10-06T17:34:27Z</time></trkpt>
<trkpt lat="24.59665" lon="107.448741">
<time>2016-10-06T17:34:28Z</time></trkpt>
<trkpt lat="24.595877" lon="107.447508">
<time>2016-10-06T17:34:29Z</time></trkpt>
<trkpt lat="24.595466" lon="107.446877">
<time>2016-10-06T17:34:30Z</time></trkpt>
<trkpt lat="24.595305" lon="107.446626">
<time>2016-10-06T17:34:31Z</time></trkpt>
<trkpt lat="24.595195" lon="107.446396">
<time>2016-10-06T17:34:32Z</time></trkpt>
<trkpt lat="24.595165" lon="107.446296">
<time>2016-10-06T17:34:33Z</time></trkpt>
<trkpt lat="24.595134" lon="107.446095">
<time>2016-10-06T17:34:34Z</time></trkpt>
<trkpt lat="24.595134" lon="107.446005">
<time>2016-10-06T17:34:35Z</time></trkpt>
<trkpt lat="24.595144" lon="107.445895">
<time>2016-10-06T17:34:36Z</time></trkpt>
<trkpt lat="24.595164" lon="107.445815">
<time>2016-10-06T17:34:37Z</time></trkpt>
<trkpt lat="24.595204" lon="107.445745">
<time>2016-10-06T17:34:38Z</time></trkpt>
<trkpt lat="24.595223" lon="107.445684">
<time>2016-10-06T17:34:39Z</time></trkpt>
<trkpt lat="24.595303" lon="107.445554">
<time>2016-10-06T17:34:40Z</time></trkpt>
<trkpt lat="24.595543" lon="107.445244">
<time>2016-10-06T17:34:41Z</time></trkpt>
<trkpt lat="24.595612" lon="107.445123">
<time>2016-10-06T17:34:42Z</time></trkpt>
<trkpt lat="24.595652" lon="107.445013">
<time>2016-10-06T17:34:43Z</time></trkpt>
<trkpt lat="24.595672" lon="107.444933">
<time>2016-10-06T17:34:44Z</time></trkpt>
<trkpt lat="24.595682" lon="107.444833">
<time>2016-10-06T17:34:45Z</time></trkpt>
<trkpt lat="24.595682" lon="107.444763">
<time>2016-10-06T17:34:46Z</time></trkpt>
<trkpt lat="24.595682" lon="107.444703">
<time>2016-10-06T17:34:47Z</time></trkpt>
<trkpt lat="24.595671" lon="107.444662">
<time>2016-10-06T17:34:48Z</time></trkpt>
<trkpt lat="24.595621" lon="107.444452">
<time>2016-10-06T17:34:49Z</time></trkpt>
<trkpt lat="24.595349" lon="107.44338">
<time>2016-10-06T17:34:50Z</time></trkpt>
<trkpt lat="24.595178" lon="107.442739">
<time>2016-10-06T17:34:51Z</time></trkpt>
<trkpt lat="24.595087" lon="107.442438">
<time>2016-10-06T17:34:52Z</time></trkpt>
<trkpt lat="24.595037" lon="107.442238">
<time>2016-10-06T17:34:53Z</time></trkpt>
<trkpt lat="24.594986" lon="107.442078">
<time>2016-10-06T17:34:54Z</time></trkpt>
<trkpt lat="24.594946" lon="107.442007">
<time>2016-10-06T17:34:55Z</time></trkpt>
<trkpt lat="24.594896" lon="107.441917">
<time>2016-10-06T17:34:56Z</time></trkpt>
<trkpt lat="24.594866" lon="107.441857">
<time>2016-10-06T17:34:57Z</time></trkpt>
<trkpt lat="24.594816" lon="107.441797">
<time>2016-10-06T17:34:58Z</time></trkpt>
<trkpt lat="24.594736" lon="107.441717">
<time>2016-10-06T17:34:59Z</time></trkpt>
<trkpt lat="24.594666" lon="107.441657">
<time>2016-10-06T17:35:00Z</time></trkpt>
<trkpt lat="24.594605" lon="107.441617">
<time>2016-10-06T17:35:01Z</time></trkpt>
<trkpt lat="24.594515" lon="107.441557">
<time>2016-10-06T17:35:02Z</time></trkpt>
<trkpt lat="24.594405" lon="107.441507">
<time>2016-10-06T17:35:03Z</time></trkpt>
<trkpt lat="24.594295" lon="107.441446">
<time>2016-10-06T17:35:04Z</time></trkpt>
<trkpt lat="24.593765" lon="107.441196">
<time>2016-10-06T17:35:05Z</time></trkpt>
<trkpt lat="24.593544" lon="107.441096">
<time>2016-10-06T17:35:06Z</time></trkpt>
<trkpt lat="24.593294" lon="107.440986">
<time>2016-10-06T17:35:07Z</time></trkpt>
<trkpt lat="24.593134" lon="107.440886">
<time>2016-10-06T17:35:08Z</time></trkpt>
<trkpt lat="24.592994" lon="107.440755">
<time>2016-10-06T17:35:09Z</time></trkpt>
<trkpt lat="24.592934" lon="107.440665">
<time>2016-10-06T17:35:10Z</time></trkpt>
<trkpt lat="24.592893" lon="107.440585">
<time>2016-10-06T17:35:11Z</time></trkpt>
<trkpt lat="24.592863" lon="107.440475">
<time>2016-10-06T17:35:12Z</time></trkpt>
<trkpt lat="24.592853" lon="107.440415">
<time>2016-10-06T17:35:13Z</time></trkpt>
<trkpt lat="24.592863" lon="107.440355">
<time>2016-10-06T17:35:14Z</time></trkpt>
<trkpt lat="24.592863" lon="107.440294">
<time>2016-10-06T17:35:15Z</time></trkpt>
<trkpt lat="24.592873" lon="107.440254">
<time>2016-10-06T17:35:16Z</time></trkpt>
<trkpt lat="24.592883" lon="107.440194">
<time>2016-10-06T17:35:17Z</time></trkpt>
<trkpt lat="24.592932" lon="107.440044">
<time>2016-10-06T17:35:18Z</time></trkpt>
<trkpt lat="24.592992" lon="107.439874">
<time>2016-10-06T17:35:19Z</time></trkpt>
<trkpt lat="24.593042" lon="107.439764">
<time>2016-10-06T17:35:20Z</time></trkpt>
<trkpt lat="24.593072" lon="107.439653">
<time>2016-10-06T17:35:21Z</time></trkpt>
<trkpt lat="24.593102" lon="107.439553">
<time>2016-10-06T17:35:22Z</time></trkpt>
<trkpt lat="24.593111" lon="107.439453">
<time>2016-10-06T17:35:23Z</time></trkpt>
<trkpt lat="24.593121" lon="107.439363">
<time>2016-10-06T17:35:24Z</time></trkpt>
<trkpt lat="24.593121" lon="107.439253">
<time>2016-10-06T17:35:25Z</time></trkpt>
<trkpt lat="24.593111" lon="107.439152">
<time>2016-10-06T17:35:26Z</time></trkpt>
<trkpt lat="24.593091" lon="107.439062">
<time>2016-10-06T17:35:27Z</time></trkpt>
<trkpt lat="24.593071" lon="107.438992">
<time>2016-10-06T17:35:28Z</time></trkpt>
<trkpt lat="24.59303" lon="107.438892">
<time>2016-10-06T17:35:29Z</time></trkpt>
<trkpt lat="24.59298" lon="107.438782">
<time>2016-10-06T17:35:30Z</time></trkpt>
<trkpt lat="24.59291" lon="107.438662">
<time>2016-10-06T17:35:31Z</time></trkpt>
<trkpt lat="24.59283" lon="107.438551">
<time>2016-10-06T17:35:32Z</time></trkpt>
<trkpt lat="24.59276" lon="107.438461">
<time>2016-10-06T17:35:33Z</time></trkpt>
<trkpt lat="24.592659" lon="107.438351">
<time>2016-10-06T17:35:34Z</time></trkpt>
<trkpt lat="24.592499" lon="107.438171">
<time>2016-10-06T17:35:35Z</time></trkpt>
<trkpt lat="24.592419" lon="107.438091">
<time>2016-10-06T17:35:36Z</time></trkpt>
<trkpt lat="24.592319" lon="107.438001">
<time>2016-10-06T17:35:37Z</time></trkpt>
<trkpt lat="24.592199" lon="107.43792">
<time>2016-10-06T17:35:38Z</time></trkpt>
<trkpt lat="24.591988" lon="107.43779">
<time>2016-10-06T17:35:39Z</time></trkpt>
<trkpt lat="24.591808" lon="107.43769">
<time>2016-10-06T17:35:40Z</time></trkpt>
<trkpt lat="24.591718" lon="107.43765">
<time>2016-10-06T17:35:41Z</time></trkpt>
<trkpt lat="24.591608" lon="107.43761">
<time>2016-10-06T17:35:42Z</time></trkpt>
<trkpt lat="24.591538" lon="107.43758">
<time>2016-10-06T17:35:43Z</time></trkpt>
<trkpt lat="24.591418" lon="107.43756">
<time>2016-10-06T17:35:44Z</time></trkpt>
<trkpt lat="24.591308" lon="107.43754">
<time>2016-10-06T17:35:45Z</time></trkpt>
<trkpt lat="24.591228" lon="107.43752">
<time>2016-10-06T17:35:46Z</time></trkpt>
<trkpt lat="24.591138" lon="107.43751">
<time>2016-10-06T17:35:47Z</time></trkpt>
<trkpt lat="24.591018" lon="107.4375">
<time>2016-10-06T17:35:48Z</time></trkpt>
<trkpt lat="24.590428" lon="107.43748">
<time>2016-10-06T17:35:49Z</time></trkpt>
<trkpt lat="24.588938" lon="107.43744">
<time>2016-10-06T17:35:50Z</time></trkpt>
<trkpt lat="24.588708" lon="107.43743">
<time>2016-10-06T17:35:51Z</time></trkpt>
<trkpt lat="24.588607" lon="107.43742">
<time>2016-10-06T17:35:52Z</time></trkpt>
<trkpt lat="24.588507" lon="107.43739">
<time>2016-10-06T17:35:53Z</time></trkpt>
<trkpt lat="24.588427" lon="107.43736">
<time>2016-10-06T17:35:54Z</time></trkpt>
<trkpt lat="24.588357" lon="107.43733">
<time>2016-10-06T17:35:55Z</time></trkpt>
<trkpt lat="24.588287" lon="107.4373">
<time>2016-10-06T17:35:56Z</time></trkpt>
<trkpt lat="24.588227" lon="107.43726">
<time>2016-10-06T17:35:57Z</time></trkpt>
<trkpt lat="24.588137" lon="107.437189">
<time>2016-10-06T17:35:58Z</time></trkpt>
<trkpt lat="24.588057" lon="107.437119">
<time>2016-10-06T17:35:59Z</time></trkpt>
<trkpt lat="24.587987" lon="107.437029">
<time>2016-10-06T17:36:00Z</time></trkpt>
<trkpt lat="24.587917" lon="107.436919">
<time>2016-10-06T17:36:01Z</time></trkpt>
<trkpt lat="24.587856" lon="107.436829">
<time>2016-10-06T17:36:02Z</time></trkpt>
<trkpt lat="24.587836" lon="107.436759">
<time>2016-10-06T17:36:03Z</time></trkpt>
<trkpt lat="24.587806" lon="107.436659">
<time>2016-10-06T17:36:04Z</time></trkpt>
<trkpt lat="24.587786" lon="107.436568">
<time>2016-10-06T17:36:05Z</time></trkpt>
<trkpt lat="24.587766" lon="107.436488">
<time>2016-10-06T17:36:06Z</time></trkpt>
<trkpt lat="24.587756" lon="107.436408">
<time>2016-10-06T17:36:07Z</time></trkpt>
<trkpt lat="24.587756" lon="107.436348">
<time>2016-10-06T17:36:08Z</time></trkpt>
<trkpt lat="24.587755" lon="107.436278">
<time>2016-10-06T17:36:09Z</time></trkpt>
<trkpt lat="24.587755" lon="107.435937">
<time>2016-10-06T17:36:10Z</time></trkpt>
<trkpt lat="24.587755" lon="107.435717">
<time>2016-10-06T17:36:11Z</time></trkpt>
<trkpt lat="24.587744" lon="107.435587">
<time>2016-10-06T17:36:12Z</time></trkpt>
<trkpt lat="24.587714" lon="107.435447">
<time>2016-10-06T17:36:13Z</time></trkpt>
<trkpt lat="24.587704" lon="107.435367">
<time>2016-10-06T17:36:14Z</time></trkpt>
<trkpt lat="24.587684" lon="107.435296">
<time>2016-10-06T17:36:15Z</time></trkpt>
<trkpt lat="24.587664" lon="107.435236">
<time>2016-10-06T17:36:16Z</time></trkpt>
<trkpt lat="24.587634" lon="107.435156">
<time>2016-10-06T17:36:17Z</time></trkpt>
<trkpt lat="24.587583" lon="107.435056">
<time>2016-10-06T17:36:18Z</time></trkpt>
<trkpt lat="24.587543" lon="107.434986">
<time>2016-10-06T17:36:19Z</time></trkpt>
<trkpt lat="24.587493" lon="107.434916">
<time>2016-10-06T17:36:20Z</time></trkpt>
<trkpt lat="24.587443" lon="107.434836">
<time>2016-10-06T17:36:21Z</time></trkpt>
<trkpt lat="24.587383" lon="107.434756">
<time>2016-10-06T17:36:22Z</time></trkpt>
<trkpt lat="24.587193" lon="107.434525">
<time>2016-10-06T17:36:23Z</time></trkpt>
<trkpt lat="24.586702" lon="107.433924">
<time>2016-10-06T17:36:24Z</time></trkpt>
<trkpt lat="24.586421" lon="107.433574">
<time>2016-10-06T17:36:25Z</time></trkpt>
<trkpt lat="24.5861" lon="107.433193">
<time>2016-10-06T17:36:26Z</time></trkpt>
<trkpt lat="24.58575" lon="107.432763">
<time>2016-10-06T17:36:27Z</time></trkpt>
<trkpt lat="24.585519" lon="107.432482">
<time>2016-10-06T17:36:28Z</time></trkpt>
<trkpt lat="24.585289" lon="107.432242">
<time>2016-10-06T17:36:29Z</time></trkpt>
<trkpt lat="24.585069" lon="107.432072">
<time>2016-10-06T17:36:30Z</time></trkpt>
<trkpt lat="24.584918" lon="107.431972">
<time>2016-10-06T17:36:31Z</time></trkpt>
<trkpt lat="24.584788" lon="107.431912">
<time>2016-10-06T17:36:32Z</time></trkpt>
<trkpt lat="24.584688" lon="107.431872">
<time>2016-10-06T17:36:33Z</time></trkpt>
<trkpt lat="24.584568" lon="107.431822">
<time>2016-10-06T17:36:34Z</time></trkpt>
<trkpt lat="24.584428" lon="107.431782">
<time>2016-10-06T17:36:35Z</time></trkpt>
<trkpt lat="24.584298" lon="107.431762">
<time>2016-10-06T17:36:36Z</time></trkpt>
<trkpt lat="24.584168" lon="107.431751">
<time>2016-10-06T17:36:37Z</time></trkpt>
<trkpt lat="24.584028" lon="107.431752">
<time>2016-10-06T17:36:38Z</time></trkpt>
<trkpt lat="24.583868" lon="107.431762">
<time>2016-10-06T17:36:39Z</time></trkpt>
<trkpt lat="24.583648" lon="107.431792">
<time>2016-10-06T17:36:40Z</time></trkpt>
<trkpt lat="24.583448" lon="107.431822">
<time>2016-10-06T17:36:41Z</time></trkpt>
<trkpt lat="24.583338" lon="107.431842">
<time>2016-10-06T17:36:42Z</time></trkpt>
<trkpt lat="24.583118" lon="107.431842">
<time>2016-10-06T17:36:43Z</time></trkpt>
<trkpt lat="24.582988" lon="107.431812">
<time>2016-10-06T17:36:44Z</time></trkpt>
<trkpt lat="24.582888" lon="107.431782">
<time>2016-10-06T17:36:45Z</time></trkpt>
<trkpt lat="24.582768" lon="107.431742">
<time>2016-10-06T17:36:46Z</time></trkpt>
<trkpt lat="24.582688" lon="107.431681">
<time>2016-10-06T17:36:47Z</time></trkpt>
<trkpt lat="24.582608" lon="107.431631">
<time>2016-10-06T17:36:48Z</time></trkpt>
<trkpt lat="24.582518" lon="107.431531">
<time>2016-10-06T17:36:49Z</time></trkpt>
<trkpt lat="24.582437" lon="107.431441">
<time>2016-10-06T17:36:50Z</time></trkpt>
<trkpt lat="24.582367" lon="107.431331">
<time>2016-10-06T17:36:51Z</time></trkpt>
<trkpt lat="24.582287" lon="107.431201">
<time>2016-10-06T17:36:52Z</time></trkpt>
<trkpt lat="24.582207" lon="107.431041">
<time>2016-10-06T17:36:53Z</time></trkpt>
<trkpt lat="24.582137" lon="107.4309">
<time>2016-10-06T17:36:54Z</time></trkpt>
<trkpt lat="24.581896" lon="107.43035">
<time>2016-10-06T17:36:55Z</time></trkpt>
<trkpt lat="24.581555" lon="107.429669">
<time>2016-10-06T17:36:56Z</time></trkpt>
<trkpt lat="24.581134" lon="107.429048">
<time>2016-10-06T17:36:57Z</time></trkpt>
<trkpt lat="24.580202" lon="107.427917">
<time>2016-10-06T17:36:58Z</time></trkpt>
<trkpt lat="24.580192" lon="107.427907">
<time>2016-10-06T17:36:59Z</time></trkpt>
<trkpt lat="24.580082" lon="107.427787">
<time>2016-10-06T17:37:00Z</time></trkpt>
<trkpt lat="24.579641" lon="107.427306">
<time>2016-10-06T17:37:01Z</time></trkpt>
<trkpt lat="24.579241" lon="107.426896">
<time>2016-10-06T17:37:02Z</time></trkpt>
<trkpt lat="24.579161" lon="107.426826">
<time>2016-10-06T17:37:03Z</time></trkpt>
<trkpt lat="24.578941" lon="107.426615">
<time>2016-10-06T17:37:04Z</time></trkpt>
<trkpt lat="24.5785" lon="107.426155">
<time>2016-10-06T17:37:05Z</time></trkpt>
<trkpt lat="24.57823" lon="107.425905">
<time>2016-10-06T17:37:06Z</time></trkpt>
<trkpt lat="24.578029" lon="107.425694">
<time>2016-10-06T17:37:07Z</time></trkpt>
<trkpt lat="24.577849" lon="107.425554">
<time>2016-10-06T17:37:08Z</time></trkpt>
<trkpt lat="24.577729" lon="107.425474">
<time>2016-10-06T17:37:09Z</time></trkpt>
<trkpt lat="24.577589" lon="107.425444">
<time>2016-10-06T17:37:10Z</time></trkpt>
<trkpt lat="24.577429" lon="107.425444">
<time>2016-10-06T17:37:11Z</time></trkpt>
<trkpt lat="24.577299" lon="107.425484">
<time>2016-10-06T17:37:12Z</time></trkpt>
<trkpt lat="24.577219" lon="107.425524">
<time>2016-10-06T17:37:13Z</time></trkpt>
<trkpt lat="24.577089" lon="107.425634">
<time>2016-10-06T17:37:14Z</time></trkpt>
<trkpt lat="24.57678" lon="107.425945">
<time>2016-10-06T17:37:15Z</time></trkpt>
<trkpt lat="24.57639" lon="107.426345">
<time>2016-10-06T17:37:16Z</time></trkpt>
<trkpt lat="24.57618" lon="107.426555">
<time>2016-10-06T17:37:17Z</time></trkpt>
<trkpt lat="24.57603" lon="107.426686">
<time>2016-10-06T17:37:18Z</time></trkpt>
<trkpt lat="24.57596" lon="107.426726">
<time>2016-10-06T17:37:19Z</time></trkpt>
<trkpt lat="24.57591" lon="107.426746">
<time>2016-10-06T17:37:20Z</time></trkpt>
<trkpt lat="24.57586" lon="107.426756">
<time>2016-10-06T17:37:21Z</time></trkpt>
<trkpt lat="24.575771" lon="107.426776">
<time>2016-10-06T17:37:22Z</time></trkpt>
<trkpt lat="24.57572" lon="107.426776">
<time>2016-10-06T17:37:23Z</time></trkpt>
<trkpt lat="24.57564" lon="107.426776">
<time>2016-10-06T17:37:24Z</time></trkpt>
<trkpt lat="24.57557" lon="107.426756">
<time>2016-10-06T17:37:25Z</time></trkpt>
<trkpt lat="24.57527" lon="107.426636">
<time>2016-10-06T17:37:26Z</time></trkpt>
<trkpt lat="24.57478" lon="107.426425">
<time>2016-10-06T17:37:27Z</time></trkpt>
<trkpt lat="24.57431" lon="107.426205">
<time>2016-10-06T17:37:28Z</time></trkpt>
<trkpt lat="24.573969" lon="107.426045">
<time>2016-10-06T17:37:29Z</time></trkpt>
<trkpt lat="24.573779" lon="107.425905">
<time>2016-10-06T17:37:30Z</time></trkpt>
<trkpt lat="24.573599" lon="107.425695">
<time>2016-10-06T17:37:31Z</time></trkpt>
<trkpt lat="24.573499" lon="107.425514">
<time>2016-10-06T17:37:32Z</time></trkpt>
<trkpt lat="24.573449" lon="107.425404">
<time>2016-10-06T17:37:33Z</time></trkpt>
<trkpt lat="24.573408" lon="107.425194">
<time>2016-10-06T17:37:34Z</time></trkpt>
<trkpt lat="24.573277" lon="107.424053">
<time>2016-10-06T17:37:35Z</time></trkpt>
<trkpt lat="24.573206" lon="107.423052">
<time>2016-10-06T17:37:36Z</time></trkpt>
<trkpt lat="24.573195" lon="107.422111">
<time>2016-10-06T17:37:37Z</time></trkpt>
<trkpt lat="24.573215" lon="107.422001">
<time>2016-10-06T17:37:38Z</time></trkpt>
<trkpt lat="24.573314" lon="107.421551">
<time>2016-10-06T17:37:39Z</time></trkpt>
<trkpt lat="24.573534" lon="107.42097">
<time>2016-10-06T17:37:40Z</time></trkpt>
<trkpt lat="24.573783" lon="107.420349">
<time>2016-10-06T17:37:41Z</time></trkpt>
<trkpt lat="24.573963" lon="107.419929">
<time>2016-10-06T17:37:42Z</time></trkpt>
<trkpt lat="24.574122" lon="107.419519">
<time>2016-10-06T17:37:43Z</time></trkpt>
<trkpt lat="24.574282" lon="107.419118">
<time>2016-10-06T17:37:44Z</time></trkpt>
<trkpt lat="24.574421" lon="107.418758">
<time>2016-10-06T17:37:45Z</time></trkpt>
<trkpt lat="24.574481" lon="107.418548">
<time>2016-10-06T17:37:46Z</time></trkpt>
<trkpt lat="24.574481" lon="107.418388">
<time>2016-10-06T17:37:47Z</time></trkpt>
<trkpt lat="24.574471" lon="107.418288">
<time>2016-10-06T17:37:48Z</time></trkpt>
<trkpt lat="24.574441" lon="107.418198">
<time>2016-10-06T17:37:49Z</time></trkpt>
<trkpt lat="24.574411" lon="107.418118">
<time>2016-10-06T17:37:50Z</time></trkpt>
<trkpt lat="24.574351" lon="107.418028">
<time>2016-10-06T17:37:51Z</time></trkpt>
<trkpt lat="24.574311" lon="107.417978">
<time>2016-10-06T17:37:52Z</time></trkpt>
<trkpt lat="24.574261" lon="107.417928">
<time>2016-10-06T17:37:53Z</time></trkpt>
<trkpt lat="24.574151" lon="107.417848">
<time>2016-10-06T17:37:54Z</time></trkpt>
<trkpt lat="24.574011" lon="107.417788">
<time>2016-10-06T17:37:55Z</time></trkpt>
<trkpt lat="24.57359" lon="107.417697">
<time>2016-10-06T17:37:56Z</time></trkpt>
<trkpt lat="24.5734" lon="107.417647">
<time>2016-10-06T17:37:57Z</time></trkpt>
<trkpt lat="24.57328" lon="107.417617">
<time>2016-10-06T17:37:58Z</time></trkpt>
<trkpt lat="24.57287" lon="107.417417">
<time>2016-10-06T17:37:59Z</time></trkpt>
<trkpt lat="24.57238" lon="107.417127">
<time>2016-10-06T17:38:00Z</time></trkpt>
<trkpt lat="24.57231" lon="107.417097">
<time>2016-10-06T17:38:01Z</time></trkpt>
<trkpt lat="24.5722" lon="107.417047">
<time>2016-10-06T17:38:02Z</time></trkpt>
<trkpt lat="24.571379" lon="107.416767">
<time>2016-10-06T17:38:03Z</time></trkpt>
<trkpt lat="24.571029" lon="107.416637">
<time>2016-10-06T17:38:04Z</time></trkpt>
<trkpt lat="24.570759" lon="107.416547">
<time>2016-10-06T17:38:05Z</time></trkpt>
<trkpt lat="24.570459" lon="107.416447">
<time>2016-10-06T17:38:06Z</time></trkpt>
<trkpt lat="24.570299" lon="107.416397">
<time>2016-10-06T17:38:07Z</time></trkpt>
<trkpt lat="24.569989" lon="107.416287">
<time>2016-10-06T17:38:08Z</time></trkpt>
<trkpt lat="24.569849" lon="107.416247">
<time>2016-10-06T17:38:09Z</time></trkpt>
<trkpt lat="24.569689" lon="107.416217">
<time>2016-10-06T17:38:10Z</time></trkpt>
<trkpt lat="24.569529" lon="107.416187">
<time>2016-10-06T17:38:11Z</time></trkpt>
<trkpt lat="24.569239" lon="107.416167">
<time>2016-10-06T17:38:12Z</time></trkpt>
<trkpt lat="24.569079" lon="107.416167">
<time>2016-10-06T17:38:13Z</time></trkpt>
<trkpt lat="24.568909" lon="107.416177">
<time>2016-10-06T17:38:14Z</time></trkpt>
<trkpt lat="24.568719" lon="107.416207">
<time>2016-10-06T17:38:15Z</time></trkpt>
<trkpt lat="24.568539" lon="107.416247">
<time>2016-10-06T17:38:16Z</time></trkpt>
<trkpt lat="24.568359" lon="107.416287">
<time>2016-10-06T17:38:17Z</time></trkpt>
<trkpt lat="24.568189" lon="107.416307">
<time>2016-10-06T17:38:18Z</time></trkpt>
<trkpt lat="24.568079" lon="107.416297">
<time>2016-10-06T17:38:19Z</time></trkpt>
<trkpt lat="24.567989" lon="107.416267">
<time>2016-10-06T17:38:20Z</time></trkpt>
<trkpt lat="24.567899" lon="107.416227">
<time>2016-10-06T17:38:21Z</time></trkpt>
<trkpt lat="24.567869" lon="107.416197">
<time>2016-10-06T17:38:22Z</time></trkpt>
<trkpt lat="24.567829" lon="107.416147">
<time>2016-10-06T17:38:23Z</time></trkpt>
<trkpt lat="24.567719" lon="107.415967">
<time>2016-10-06T17:38:24Z</time></trkpt>
<trkpt lat="24.567398" lon="107.415386">
<time>2016-10-06T17:38:25Z</time></trkpt>
<trkpt lat="24.567068" lon="107.414816">
<time>2016-10-06T17:38:26Z</time></trkpt>
<trkpt lat="24.566827" lon="107.414386">
<time>2016-10-06T17:38:27Z</time></trkpt>
<trkpt lat="24.566407" lon="107.413645">
<time>2016-10-06T17:38:28Z</time></trkpt>
<trkpt lat="24.565966" lon="107.412865">
<time>2016-10-06T17:38:29Z</time></trkpt>
<trkpt lat="24.565706" lon="107.412415">
<time>2016-10-06T17:38:30Z</time></trkpt>
<trkpt lat="24.565606" lon="107.412165">
<time>2016-10-06T17:38:31Z</time></trkpt>
<trkpt lat="24.565596" lon="107.412145">
<time>2016-10-06T17:38:32Z</time></trkpt>
<trkpt lat="24.565575" lon="107.412015">
<time>2016-10-06T17:38:33Z</time></trkpt>
<trkpt lat="24.565575" lon="107.411845">
<time>2016-10-06T17:38:34Z</time></trkpt>
<trkpt lat="24.565615" lon="107.411705">
<time>2016-10-06T17:38:35Z</time></trkpt>
<trkpt lat="24.565665" lon="107.411615">
<time>2016-10-06T17:38:36Z</time></trkpt>
<trkpt lat="24.565715" lon="107.411515">
<time>2016-10-06T17:38:37Z</time></trkpt>
<trkpt lat="24.566135" lon="107.410924">
<time>2016-10-06T17:38:38Z</time></trkpt>
<trkpt lat="24.566295" lon="107.410714">
<time>2016-10-06T17:38:39Z</time></trkpt>
<trkpt lat="24.566674" lon="107.410194">
<time>2016-10-06T17:38:40Z</time></trkpt>
<trkpt lat="24.566914" lon="107.409914">
<time>2016-10-06T17:38:41Z</time></trkpt>
<trkpt lat="24.567284" lon="107.409544">
<time>2016-10-06T17:38:42Z</time></trkpt>
<trkpt lat="24.567404" lon="107.409434">
<time>2016-10-06T17:38:43Z</time></trkpt>
<trkpt lat="24.567964" lon="107.409024">
<time>2016-10-06T17:38:44Z</time></trkpt>
<trkpt lat="24.568604" lon="107.408544">
<time>2016-10-06T17:38:45Z</time></trkpt>
<trkpt lat="24.569174" lon="107.408153">
<time>2016-10-06T17:38:46Z</time></trkpt>
<trkpt lat="24.569524" lon="107.407873">
<time>2016-10-06T17:38:47Z</time></trkpt>
<trkpt lat="24.569883" lon="107.407563">
<time>2016-10-06T17:38:48Z</time></trkpt>
<trkpt lat="24.570043" lon="107.407423">
<time>2016-10-06T17:38:49Z</time></trkpt>
<trkpt lat="24.570153" lon="107.407313">
<time>2016-10-06T17:38:50Z</time></trkpt>
<trkpt lat="24.570433" lon="107.406983">
<time>2016-10-06T17:38:51Z</time></trkpt>
<trkpt lat="24.570773" lon="107.406513">
<time>2016-10-06T17:38:52Z</time></trkpt>
<trkpt lat="24.570943" lon="107.406183">
<time>2016-10-06T17:38:53Z</time></trkpt>
<trkpt lat="24.571023" lon="107.405973">
<time>2016-10-06T17:38:54Z</time></trkpt>
<trkpt lat="24.571063" lon="107.405823">
<time>2016-10-06T17:38:55Z</time></trkpt>
<trkpt lat="24.571123" lon="107.405623">
<time>2016-10-06T17:38:56Z</time></trkpt>
<trkpt lat="24.571123" lon="107.405623">
<time>2016-10-06T17:38:57Z</time></trkpt>
<trkpt lat="24.571143" lon="107.405593">
<time>2016-10-06T17:38:58Z</time></trkpt>
<trkpt lat="24.571163" lon="107.405533">
<time>2016-10-06T17:38:59Z</time></trkpt>
<trkpt lat="24.571183" lon="107.405473">
<time>2016-10-06T17:39:00Z</time></trkpt>
<trkpt lat="24.571183" lon="107.405463">
<time>2016-10-06T17:39:01Z</time></trkpt>
<trkpt lat="24.571183" lon="107.405423">
<time>2016-10-06T17:39:02Z</time></trkpt>
<trkpt lat="24.571283" lon="107.405123">
<time>2016-10-06T17:39:03Z</time></trkpt>
<trkpt lat="24.571413" lon="107.404773">
<time>2016-10-06T17:39:04Z</time></trkpt>
<trkpt lat="24.571562" lon="107.404293">
<time>2016-10-06T17:39:05Z</time></trkpt>
<trkpt lat="24.571742" lon="107.403773">
<time>2016-10-06T17:39:06Z</time></trkpt>
<trkpt lat="24.571832" lon="107.403343">
<time>2016-10-06T17:39:07Z</time></trkpt>
<trkpt lat="24.571842" lon="107.403113">
<time>2016-10-06T17:39:08Z</time></trkpt>
<trkpt lat="24.571832" lon="107.402943">
<time>2016-10-06T17:39:09Z</time></trkpt>
<trkpt lat="24.571792" lon="107.402753">
<time>2016-10-06T17:39:10Z</time></trkpt>
<trkpt lat="24.571752" lon="107.402643">
<time>2016-10-06T17:39:11Z</time></trkpt>
<trkpt lat="24.571662" lon="107.402473">
<time>2016-10-06T17:39:12Z</time></trkpt>
<trkpt lat="24.571432" lon="107.402083">
<time>2016-10-06T17:39:13Z</time></trkpt>
<trkpt lat="24.571262" lon="107.401823">
<time>2016-10-06T17:39:14Z</time></trkpt>
<trkpt lat="24.571072" lon="107.401493">
<time>2016-10-06T17:39:15Z</time></trkpt>
<trkpt lat="24.570902" lon="107.401163">
<time>2016-10-06T17:39:16Z</time></trkpt>
<trkpt lat="24.570842" lon="107.400943">
<time>2016-10-06T17:39:17Z</time></trkpt>
<trkpt lat="24.570812" lon="107.400853">
<time>2016-10-06T17:39:18Z</time></trkpt>
<trkpt lat="24.570832" lon="107.400063">
<time>2016-10-06T17:39:19Z</time></trkpt>
<trkpt lat="24.570842" lon="107.399893">
<time>2016-10-06T17:39:20Z</time></trkpt>
<trkpt lat="24.570842" lon="107.399723">
<time>2016-10-06T17:39:21Z</time></trkpt>
<trkpt lat="24.570872" lon="107.399263">
<time>2016-10-06T17:39:22Z</time></trkpt>
<trkpt lat="24.570882" lon="107.398784">
<time>2016-10-06T17:39:23Z</time></trkpt>
<trkpt lat="24.570862" lon="107.398624">
<time>2016-10-06T17:39:24Z</time></trkpt>
<trkpt lat="24.570832" lon="107.398534">
<time>2016-10-06T17:39:25Z</time></trkpt>
<trkpt lat="24.570792" lon="107.398424">
<time>2016-10-06T17:39:26Z</time></trkpt>
<trkpt lat="24.570742" lon="107.398344">
<time>2016-10-06T17:39:27Z</time></trkpt>
<trkpt lat="24.570671" lon="107.398274">
<time>2016-10-06T17:39:28Z</time></trkpt>
<trkpt lat="24.570581" lon="107.398204">
<time>2016-10-06T17:39:29Z</time></trkpt>
<trkpt lat="24.570431" lon="107.398144">
<time>2016-10-06T17:39:30Z</time></trkpt>
<trkpt lat="24.570221" lon="107.398134">
<time>2016-10-06T17:39:31Z</time></trkpt>
<trkpt lat="24.570041" lon="107.398204">
<time>2016-10-06T17:39:32Z</time></trkpt>
<trkpt lat="24.569921" lon="107.398274">
<time>2016-10-06T17:39:33Z</time></trkpt>
<trkpt lat="24.569821" lon="107.398334">
<time>2016-10-06T17:39:34Z</time></trkpt>
<trkpt lat="24.569761" lon="107.398394">
<time>2016-10-06T17:39:35Z</time></trkpt>
<trkpt lat="24.569681" lon="107.398474">
<time>2016-10-06T17:39:36Z</time></trkpt>
<trkpt lat="24.569451" lon="107.398704">
<time>2016-10-06T17:39:37Z</time></trkpt>
<trkpt lat="24.569271" lon="107.398884">
<time>2016-10-06T17:39:38Z</time></trkpt>
<trkpt lat="24.569151" lon="107.398964">
<time>2016-10-06T17:39:39Z</time></trkpt>
<trkpt lat="24.568951" lon="107.399094">
<time>2016-10-06T17:39:40Z</time></trkpt>
<trkpt lat="24.568811" lon="107.399154">
<time>2016-10-06T17:39:41Z</time></trkpt>
<trkpt lat="24.568701" lon="107.399204">
<time>2016-10-06T17:39:42Z</time></trkpt>
<trkpt lat="24.568591" lon="107.399244">
<time>2016-10-06T17:39:43Z</time></trkpt>
<trkpt lat="24.567461" lon="107.399584">
<time>2016-10-06T17:39:44Z</time></trkpt>
<trkpt lat="24.566671" lon="107.399824">
<time>2016-10-06T17:39:45Z</time></trkpt>
<trkpt lat="24.566451" lon="107.399884">
<time>2016-10-06T17:39:46Z</time></trkpt>
<trkpt lat="24.566271" lon="107.399924">
<time>2016-10-06T17:39:47Z</time></trkpt>
<trkpt lat="24.566061" lon="107.399984">
<time>2016-10-06T17:39:48Z</time></trkpt>
<trkpt lat="24.565871" lon="107.400024">
<time>2016-10-06T17:39:49Z</time></trkpt>
<trkpt lat="24.565731" lon="107.400024">
<time>2016-10-06T17:39:50Z</time></trkpt>
<trkpt lat="24.563871" lon="107.399984">
<time>2016-10-06T17:39:51Z</time></trkpt>
<trkpt lat="24.563031" lon="107.399944">
<time>2016-10-06T17:39:52Z</time></trkpt>
<trkpt lat="24.562561" lon="107.399894">
<time>2016-10-06T17:39:53Z</time></trkpt>
<trkpt lat="24.561501" lon="107.399634">
<time>2016-10-06T17:39:54Z</time></trkpt>
<trkpt lat="24.559971" lon="107.399054">
<time>2016-10-06T17:39:55Z</time></trkpt>
<trkpt lat="24.559811" lon="107.398914">
<time>2016-10-06T17:39:56Z</time></trkpt>
<trkpt lat="24.559681" lon="107.398724">
<time>2016-10-06T17:39:57Z</time></trkpt>
<trkpt lat="24.559531" lon="107.398454">
<time>2016-10-06T17:39:58Z</time></trkpt>
<trkpt lat="24.55941" lon="107.398234">
<time>2016-10-06T17:39:59Z</time></trkpt>
<trkpt lat="24.55915" lon="107.397915">
<time>2016-10-06T17:40:00Z</time></trkpt>
<trkpt lat="24.55869" lon="107.397555">
<time>2016-10-06T17:40:01Z</time></trkpt>
<trkpt lat="24.55778" lon="107.396825">
<time>2016-10-06T17:40:02Z</time></trkpt>
<trkpt lat="24.55695" lon="107.396055">
<time>2016-10-06T17:40:03Z</time></trkpt>
<trkpt lat="24.55631" lon="107.395386">
<time>2016-10-06T17:40:04Z</time></trkpt>
<trkpt lat="24.55589" lon="107.394936">
<time>2016-10-06T17:40:05Z</time></trkpt>
<trkpt lat="24.55565" lon="107.394746">
<time>2016-10-06T17:40:06Z</time></trkpt>
<trkpt lat="24.55553" lon="107.394676">
<time>2016-10-06T17:40:07Z</time></trkpt>
<trkpt lat="24.5554" lon="107.394616">
<time>2016-10-06T17:40:08Z</time></trkpt>
<trkpt lat="24.55519" lon="107.394546">
<time>2016-10-06T17:40:09Z</time></trkpt>
<trkpt lat="24.55506" lon="107.394516">
<time>2016-10-06T17:40:10Z</time></trkpt>
<trkpt lat="24.55498" lon="107.394506">
<time>2016-10-06T17:40:11Z</time></trkpt>
<trkpt lat="24.55423" lon="107.394516">
<time>2016-10-06T17:40:12Z</time></trkpt>
<trkpt lat="24.5529" lon="107.394596">
<time>2016-10-06T17:40:13Z</time></trkpt>
<trkpt lat="24.55263" lon="107.394576">
<time>2016-10-06T17:40:14Z</time></trkpt>
<trkpt lat="24.55251" lon="107.394556">
<time>2016-10-06T17:40:15Z</time></trkpt>
<trkpt lat="24.55241" lon="107.394536">
<time>2016-10-06T17:40:16Z</time></trkpt>
<trkpt lat="24.55211" lon="107.394376">
<time>2016-10-06T17:40:17Z</time></trkpt>
<trkpt lat="24.55126" lon="107.393677">
<time>2016-10-06T17:40:18Z</time></trkpt>
<trkpt lat="24.55109" lon="107.393517">
<time>2016-10-06T17:40:19Z</time></trkpt>
<trkpt lat="24.55092" lon="107.393187">
<time>2016-10-06T17:40:20Z</time></trkpt>
<trkpt lat="24.55059" lon="107.392138">
<time>2016-10-06T17:40:21Z</time></trkpt>
<trkpt lat="24.550311" lon="107.391318">
<time>2016-10-06T17:40:22Z</time></trkpt>
<trkpt lat="24.550181" lon="107.391158">
<time>2016-10-06T17:40:23Z</time></trkpt>
<trkpt lat="24.550051" lon="107.391048">
<time>2016-10-06T17:40:24Z</time></trkpt>
<trkpt lat="24.549821" lon="107.390948">
<time>2016-10-06T17:40:25Z</time></trkpt>
<trkpt lat="24.549311" lon="107.390938">
<time>2016-10-06T17:40:26Z</time></trkpt>
<trkpt lat="24.54871" lon="107.390948">
<time>2016-10-06T17:40:27Z</time></trkpt>
<trkpt lat="24.54823" lon="107.390859">
<time>2016-10-06T17:40:28Z</time></trkpt>
<trkpt lat="24.54807" lon="107.390789">
<time>2016-10-06T17:40:29Z</time></trkpt>
<trkpt lat="24.547811" lon="107.390559">
<time>2016-10-06T17:40:30Z</time></trkpt>
<trkpt lat="24.547711" lon="107.390389">
<time>2016-10-06T17:40:31Z</time></trkpt>
<trkpt lat="24.547611" lon="107.390139">
<time>2016-10-06T17:40:32Z</time></trkpt>
<trkpt lat="24.547431" lon="107.38942">
<time>2016-10-06T17:40:33Z</time></trkpt>
<trkpt lat="24.547331" lon="107.38914">
<time>2016-10-06T17:40:34Z</time></trkpt>
<trkpt lat="24.547171" lon="107.38888">
<time>2016-10-06T17:40:35Z</time></trkpt>
<trkpt lat="24.547021" lon="107.38873">
<time>2016-10-06T17:40:36Z</time></trkpt>
<trkpt lat="24.546751" lon="107.38857">
<time>2016-10-06T17:40:37Z</time></trkpt>
<trkpt lat="24.546051" lon="107.38845">
<time>2016-10-06T17:40:38Z</time></trkpt>
<trkpt lat="24.544801" lon="107.388261">
<time>2016-10-06T17:40:39Z</time></trkpt>
<trkpt lat="24.543391" lon="107.388031">
<time>2016-10-06T17:40:40Z</time></trkpt>
<trkpt lat="24.542601" lon="107.387821">
<time>2016-10-06T17:40:41Z</time></trkpt>
<trkpt lat="24.542241" lon="107.387631">
<time>2016-10-06T17:40:42Z</time></trkpt>
<trkpt lat="24.542111" lon="107.387531">
<time>2016-10-06T17:40:43Z</time></trkpt>
<trkpt lat="24.541771" lon="107.387152">
<time>2016-10-06T17:40:44Z</time></trkpt>
<trkpt lat="24.541361" lon="107.386482">
<time>2016-10-06T17:40:45Z</time></trkpt>
<trkpt lat="24.541282" lon="107.386342">
<time>2016-10-06T17:40:46Z</time></trkpt>
<trkpt lat="24.541232" lon="107.386282">
<time>2016-10-06T17:40:47Z</time></trkpt>
<trkpt lat="24.541142" lon="107.386142">
<time>2016-10-06T17:40:48Z</time></trkpt>
<trkpt lat="24.541052" lon="107.386043">
<time>2016-10-06T17:40:49Z</time></trkpt>
<trkpt lat="24.540962" lon="107.385963">
<time>2016-10-06T17:40:50Z</time></trkpt>
<trkpt lat="24.540882" lon="107.385903">
<time>2016-10-06T17:40:51Z</time></trkpt>
<trkpt lat="24.540562" lon="107.385723">
<time>2016-10-06T17:40:52Z</time></trkpt>
<trkpt lat="24.540442" lon="107.385693">
<time>2016-10-06T17:40:53Z</time></trkpt>
<trkpt lat="24.540232" lon="107.385663">
<time>2016-10-06T17:40:54Z</time></trkpt>
<trkpt lat="24.540172" lon="107.385663">
<time>2016-10-06T17:40:55Z</time></trkpt>
<trkpt lat="24.540092" lon="107.385663">
<time>2016-10-06T17:40:56Z</time></trkpt>
<trkpt lat="24.539982" lon="107.385673">
<time>2016-10-06T17:40:57Z</time></trkpt>
<trkpt lat="24.539852" lon="107.385683">
<time>2016-10-06T17:40:58Z</time></trkpt>
<trkpt lat="24.539732" lon="107.385713">
<time>2016-10-06T17:40:59Z</time></trkpt>
<trkpt lat="24.538391" lon="107.386123">
<time>2016-10-06T17:41:00Z</time></trkpt>
<trkpt lat="24.537181" lon="107.386482">
<time>2016-10-06T17:41:01Z</time></trkpt>
<trkpt lat="24.536931" lon="107.386552">
<time>2016-10-06T17:41:02Z</time></trkpt>
<trkpt lat="24.536381" lon="107.386722">
<time>2016-10-06T17:41:03Z</time></trkpt>
<trkpt lat="24.535901" lon="107.386862">
<time>2016-10-06T17:41:04Z</time></trkpt>
<trkpt lat="24.535631" lon="107.386912">
<time>2016-10-06T17:41:05Z</time></trkpt>
<trkpt lat="24.535451" lon="107.386922">
<time>2016-10-06T17:41:06Z</time></trkpt>
<trkpt lat="24.535201" lon="107.386902">
<time>2016-10-06T17:41:07Z</time></trkpt>
<trkpt lat="24.535101" lon="107.386882">
<time>2016-10-06T17:41:08Z</time></trkpt>
<trkpt lat="24.535041" lon="107.386862">
<time>2016-10-06T17:41:09Z</time></trkpt>
<trkpt lat="24.534981" lon="107.386842">
<time>2016-10-06T17:41:10Z</time></trkpt>
<trkpt lat="24.533971" lon="107.386403">
<time>2016-10-06T17:41:11Z</time></trkpt>
<trkpt lat="24.533381" lon="107.386143">
<time>2016-10-06T17:41:12Z</time></trkpt>
<trkpt lat="24.533121" lon="107.386033">
<time>2016-10-06T17:41:13Z</time></trkpt>
<trkpt lat="24.532901" lon="107.385973">
<time>2016-10-06T17:41:14Z</time></trkpt>
<trkpt lat="24.532691" lon="107.385923">
<time>2016-10-06T17:41:15Z</time></trkpt>
<trkpt lat="24.532081" lon="107.385863">
<time>2016-10-06T17:41:16Z</time></trkpt>
<trkpt lat="24.531841" lon="107.385863">
<time>2016-10-06T17:41:17Z</time></trkpt>
<trkpt lat="24.531571" lon="107.385863">
<time>2016-10-06T17:41:18Z</time></trkpt>
<trkpt lat="24.531461" lon="107.385873">
<time>2016-10-06T17:41:19Z</time></trkpt>
<trkpt lat="24.531381" lon="107.385873">
<time>2016-10-06T17:41:20Z</time></trkpt>
<trkpt lat="24.53058" lon="107.386033">
<time>2016-10-06T17:41:21Z</time></trkpt>
<trkpt lat="24.53037" lon="107.386073">
<time>2016-10-06T17:41:22Z</time></trkpt>
<trkpt lat="24.52978" lon="107.386193">
<time>2016-10-06T17:41:23Z</time></trkpt>
<trkpt lat="24.52956" lon="107.386223">
<time>2016-10-06T17:41:24Z</time></trkpt>
<trkpt lat="24.52934" lon="107.386263">
<time>2016-10-06T17:41:25Z</time></trkpt>
<trkpt lat="24.52913" lon="107.386293">
<time>2016-10-06T17:41:26Z</time></trkpt>
<trkpt lat="24.52876" lon="107.386333">
<time>2016-10-06T17:41:27Z</time></trkpt>
<trkpt lat="24.52841" lon="107.386383">
<time>2016-10-06T17:41:28Z</time></trkpt>
<trkpt lat="24.5282" lon="107.386423">
<time>2016-10-06T17:41:29Z</time></trkpt>
<trkpt lat="24.52804" lon="107.386483">
<time>2016-10-06T17:41:30Z</time></trkpt>
<trkpt lat="24.52784" lon="107.386573">
<time>2016-10-06T17:41:31Z</time></trkpt>
<trkpt lat="24.52763" lon="107.386733">
<time>2016-10-06T17:41:32Z</time></trkpt>
<trkpt lat="24.52751" lon="107.386843">
<time>2016-10-06T17:41:33Z</time></trkpt>
<trkpt lat="24.52741" lon="107.386993">
<time>2016-10-06T17:41:34Z</time></trkpt>
<trkpt lat="24.52737" lon="107.387052">
<time>2016-10-06T17:41:35Z</time></trkpt>
<trkpt lat="24.527299" lon="107.387172">
<time>2016-10-06T17:41:36Z</time></trkpt>
<trkpt lat="24.527239" lon="107.387302">
<time>2016-10-06T17:41:37Z</time></trkpt>
<trkpt lat="24.527149" lon="107.387522">
<time>2016-10-06T17:41:38Z</time></trkpt>
<trkpt lat="24.527099" lon="107.387672">
<time>2016-10-06T17:41:39Z</time></trkpt>
<trkpt lat="24.527009" lon="107.388012">
<time>2016-10-06T17:41:40Z</time></trkpt>
<trkpt lat="24.526989" lon="107.388132">
<time>2016-10-06T17:41:41Z</time></trkpt>
<trkpt lat="24.526969" lon="107.388272">
<time>2016-10-06T17:41:42Z</time></trkpt>
<trkpt lat="24.526929" lon="107.388581">
<time>2016-10-06T17:41:43Z</time></trkpt>
<trkpt lat="24.526919" lon="107.388871">
<time>2016-10-06T17:41:44Z</time></trkpt>
<trkpt lat="24.526949" lon="107.389161">
<time>2016-10-06T17:41:45Z</time></trkpt>
<trkpt lat="24.526978" lon="107.389461">
<time>2016-10-06T17:41:46Z</time></trkpt>
<trkpt lat="24.526988" lon="107.38976">
<time>2016-10-06T17:41:47Z</time></trkpt>
<trkpt lat="24.526948" lon="107.39001">
<time>2016-10-06T17:41:48Z</time></trkpt>
<trkpt lat="24.526898" lon="107.39016">
<time>2016-10-06T17:41:49Z</time></trkpt>
<trkpt lat="24.526808" lon="107.39033">
<time>2016-10-06T17:41:50Z</time></trkpt>
<trkpt lat="24.526648" lon="107.3905">
<time>2016-10-06T17:41:51Z</time></trkpt>
<trkpt lat="24.526558" lon="107.39055">
<time>2016-10-06T17:41:52Z</time></trkpt>
<trkpt lat="24.526368" lon="107.39065">
<time>2016-10-06T17:41:53Z</time></trkpt>
<trkpt lat="24.525928" lon="107.39086">
<time>2016-10-06T17:41:54Z</time></trkpt>
<trkpt lat="24.525458" lon="107.3911">
<time>2016-10-06T17:41:55Z</time></trkpt>
<trkpt lat="24.525208" lon="107.39121">
<time>2016-10-06T17:41:56Z</time></trkpt>
<trkpt lat="24.525008" lon="107.39127">
<time>2016-10-06T17:41:57Z</time></trkpt>
<trkpt lat="24.524818" lon="107.39133">
<time>2016-10-06T17:41:58Z</time></trkpt>
<trkpt lat="24.524598" lon="107.39135">
<time>2016-10-06T17:41:59Z</time></trkpt>
<trkpt lat="24.523877" lon="107.39136">
<time>2016-10-06T17:42:00Z</time></trkpt>
<trkpt lat="24.523657" lon="107.39134">
<time>2016-10-06T17:42:01Z</time></trkpt>
<trkpt lat="24.523627" lon="107.39134">
<time>2016-10-06T17:42:02Z</time></trkpt>
<trkpt lat="24.523517" lon="107.39132">
<time>2016-10-06T17:42:03Z</time></trkpt>
<trkpt lat="24.523327" lon="107.39127">
<time>2016-10-06T17:42:04Z</time></trkpt>
<trkpt lat="24.523277" lon="107.39125">
<time>2016-10-06T17:42:05Z</time></trkpt>
<trkpt lat="24.523177" lon="107.39121">
<time>2016-10-06T17:42:06Z</time></trkpt>
<trkpt lat="24.523097" lon="107.39117">
<time>2016-10-06T17:42:07Z</time></trkpt>
<trkpt lat="24.523027" lon="107.39113">
<time>2016-10-06T17:42:08Z</time></trkpt>
<trkpt lat="24.522917" lon="107.39106">
<time>2016-10-06T17:42:09Z</time></trkpt>
<trkpt lat="24.522887" lon="107.39104">
<time>2016-10-06T17:42:10Z</time></trkpt>
<trkpt lat="24.522717" lon="107.39089">
<time>2016-10-06T17:42:11Z</time></trkpt>
<trkpt lat="24.522607" lon="107.39078">
<time>2016-10-06T17:42:12Z</time></trkpt>
<trkpt lat="24.522507" lon="107.39067">
<time>2016-10-06T17:42:13Z</time></trkpt>
<trkpt lat="24.522378" lon="107.39053">
<time>2016-10-06T17:42:14Z</time></trkpt>
<trkpt lat="24.522208" lon="107.39033">
<time>2016-10-06T17:42:15Z</time></trkpt>
<trkpt lat="24.521908" lon="107.389961">
<time>2016-10-06T17:42:16Z</time></trkpt>
<trkpt lat="24.520658" lon="107.388452">
<time>2016-10-06T17:42:17Z</time></trkpt>
<trkpt lat="24.519638" lon="107.387213">
<time>2016-10-06T17:42:18Z</time></trkpt>
<trkpt lat="24.519299" lon="107.386793">
<time>2016-10-06T17:42:19Z</time></trkpt>
<trkpt lat="24.518959" lon="107.386394">
<time>2016-10-06T17:42:20Z</time></trkpt>
<trkpt lat="24.518539" lon="107.385884">
<time>2016-10-06T17:42:21Z</time></trkpt>
<trkpt lat="24.518049" lon="107.385305">
<time>2016-10-06T17:42:22Z</time></trkpt>
<trkpt lat="24.518029" lon="107.385275">
<time>2016-10-06T17:42:23Z</time></trkpt>
<trkpt lat="24.518029" lon="107.385275">
<time>2016-10-06T17:42:24Z</time></trkpt>
<trkpt lat="24.51738" lon="107.384236">
<time>2016-10-06T17:42:25Z</time></trkpt>
<trkpt lat="24.51713" lon="107.383726">
<time>2016-10-06T17:42:26Z</time></trkpt>
<trkpt lat="24.51683" lon="107.383127">
<time>2016-10-06T17:42:27Z</time></trkpt>
<trkpt lat="24.516311" lon="107.382038">
<time>2016-10-06T17:42:28Z</time></trkpt>
<trkpt lat="24.515931" lon="107.381249">
<time>2016-10-06T17:42:29Z</time></trkpt>
<trkpt lat="24.515752" lon="107.380919">
<time>2016-10-06T17:42:30Z</time></trkpt>
<trkpt lat="24.515682" lon="107.380809">
<time>2016-10-06T17:42:31Z</time></trkpt>
<trkpt lat="24.515592" lon="107.38054">
<time>2016-10-06T17:42:32Z</time></trkpt>
<trkpt lat="24.515522" lon="107.38021">
<time>2016-10-06T17:42:33Z</time></trkpt>
<trkpt lat="24.515433" lon="107.378851">
<time>2016-10-06T17:42:34Z</time></trkpt>
<trkpt lat="24.515383" lon="107.378522">
<time>2016-10-06T17:42:35Z</time></trkpt>
<trkpt lat="24.515224" lon="107.377453">
<time>2016-10-06T17:42:36Z</time></trkpt>
<trkpt lat="24.515115" lon="107.376764">
<time>2016-10-06T17:42:37Z</time></trkpt>
<trkpt lat="24.514946" lon="107.375795">
<time>2016-10-06T17:42:38Z</time></trkpt>
<trkpt lat="24.514946" lon="107.375666">
<time>2016-10-06T17:42:39Z</time></trkpt>
<trkpt lat="24.514896" lon="107.374996">
<time>2016-10-06T17:42:40Z</time></trkpt>
<trkpt lat="24.514866" lon="107.374837">
<time>2016-10-06T17:42:41Z</time></trkpt>
<trkpt lat="24.514817" lon="107.374687">
<time>2016-10-06T17:42:42Z</time></trkpt>
<trkpt lat="24.514787" lon="107.374607">
<time>2016-10-06T17:42:43Z</time></trkpt>
<trkpt lat="24.514717" lon="107.374487">
<time>2016-10-06T17:42:44Z</time></trkpt>
<trkpt lat="24.514597" lon="107.374317">
<time>2016-10-06T17:42:45Z</time></trkpt>
<trkpt lat="24.514167" lon="107.373678">
<time>2016-10-06T17:42:46Z</time></trkpt>
<trkpt lat="24.513678" lon="107.372909">
<time>2016-10-06T17:42:47Z</time></trkpt>
<trkpt lat="24.513269" lon="107.37226">
<time>2016-10-06T17:42:48Z</time></trkpt>
<trkpt lat="24.513089" lon="107.371921">
<time>2016-10-06T17:42:49Z</time></trkpt>
<trkpt lat="24.51269" lon="107.371162">
<time>2016-10-06T17:42:50Z</time></trkpt>
<trkpt lat="24.51237" lon="107.370563">
<time>2016-10-06T17:42:51Z</time></trkpt>
<trkpt lat="24.512321" lon="107.370483">
<time>2016-10-06T17:42:52Z</time></trkpt>
<trkpt lat="24.512241" lon="107.370333">
<time>2016-10-06T17:42:53Z</time></trkpt>
<trkpt lat="24.512021" lon="107.370004">
<time>2016-10-06T17:42:54Z</time></trkpt>
<trkpt lat="24.511961" lon="107.369914">
<time>2016-10-06T17:42:55Z</time></trkpt>
<trkpt lat="24.511721" lon="107.369595">
<time>2016-10-06T17:42:56Z</time></trkpt>
<trkpt lat="24.511292" lon="107.368995">
<time>2016-10-06T17:42:57Z</time></trkpt>
<trkpt lat="24.511022" lon="107.368636">
<time>2016-10-06T17:42:58Z</time></trkpt>
<trkpt lat="24.510523" lon="107.367957">
<time>2016-10-06T17:42:59Z</time></trkpt>
<trkpt lat="24.510363" lon="107.367738">
<time>2016-10-06T17:43:00Z</time></trkpt>
<trkpt lat="24.510124" lon="107.367428">
<time>2016-10-06T17:43:01Z</time></trkpt>
<trkpt lat="24.509904" lon="107.367159">
<time>2016-10-06T17:43:02Z</time></trkpt>
<trkpt lat="24.509674" lon="107.366899">
<time>2016-10-06T17:43:03Z</time></trkpt>
<trkpt lat="24.509674" lon="107.366899">
<time>2016-10-06T17:43:04Z</time></trkpt>
<trkpt lat="24.509524" lon="107.366989">
<time>2016-10-06T17:43:05Z</time></trkpt>
<trkpt lat="24.509244" lon="107.367139">
<time>2016-10-06T17:43:06Z</time></trkpt>
<trkpt lat="24.509004" lon="107.367258">
<time>2016-10-06T17:43:07Z</time></trkpt>
<trkpt lat="24.508794" lon="107.367378">
<time>2016-10-06T17:43:08Z</time></trkpt>
<trkpt lat="24.508754" lon="107.367408">
<time>2016-10-06T17:43:09Z</time></trkpt>
<trkpt lat="24.508583" lon="107.367508">
<time>2016-10-06T17:43:10Z</time></trkpt>
<trkpt lat="24.508553" lon="107.367528">
<time>2016-10-06T17:43:11Z</time></trkpt>
<trkpt lat="24.508263" lon="107.367738">
<time>2016-10-06T17:43:12Z</time></trkpt>
<trkpt lat="24.508263" lon="107.367738">
<time>2016-10-06T17:43:13Z</time></trkpt>
<trkpt lat="24.508043" lon="107.367388">
<time>2016-10-06T17:43:14Z</time></trkpt>
<trkpt lat="24.507654" lon="107.366789">
<time>2016-10-06T17:43:15Z</time></trkpt>
<trkpt lat="24.507305" lon="107.36612">
<time>2016-10-06T17:43:16Z</time></trkpt>
<trkpt lat="24.507215" lon="107.365881">
<time>2016-10-06T17:43:17Z</time></trkpt>
<trkpt lat="24.506936" lon="107.365452">
<time>2016-10-06T17:43:18Z</time></trkpt>
<trkpt lat="24.506426" lon="107.364893">
<time>2016-10-06T17:43:19Z</time></trkpt>
<trkpt lat="24.506027" lon="107.364513">
<time>2016-10-06T17:43:20Z</time></trkpt>
<trkpt lat="24.505727" lon="107.364264">
<time>2016-10-06T17:43:21Z</time></trkpt>
<trkpt lat="24.505477" lon="107.364074">
<time>2016-10-06T17:43:22Z</time></trkpt>
<trkpt lat="24.504888" lon="107.363645">
<time>2016-10-06T17:43:23Z</time></trkpt>
<trkpt lat="24.504738" lon="107.363525">
<time>2016-10-06T17:43:24Z</time></trkpt>
<trkpt lat="24.504608" lon="107.363405">
<time>2016-10-06T17:43:25Z</time></trkpt>
<trkpt lat="24.504488" lon="107.363226">
<time>2016-10-06T17:43:26Z</time></trkpt>
<trkpt lat="24.504408" lon="107.363066">
<time>2016-10-06T17:43:27Z</time></trkpt>
<trkpt lat="24.504369" lon="107.362926">
<time>2016-10-06T17:43:28Z</time></trkpt>
<trkpt lat="24.504339" lon="107.362806">
<time>2016-10-06T17:43:29Z</time></trkpt>
<trkpt lat="24.504329" lon="107.362677">
<time>2016-10-06T17:43:30Z</time></trkpt>
<trkpt lat="24.504329" lon="107.362597">
<time>2016-10-06T17:43:31Z</time></trkpt>
<trkpt lat="24.5044" lon="107.362207">
<time>2016-10-06T17:43:32Z</time></trkpt>
<trkpt lat="24.50448" lon="107.361778">
<time>2016-10-06T17:43:33Z</time></trkpt>
<trkpt lat="24.50451" lon="107.361559">
<time>2016-10-06T17:43:34Z</time></trkpt>
<trkpt lat="24.50451" lon="107.361539">
<time>2016-10-06T17:43:35Z</time></trkpt>
<trkpt lat="24.504511" lon="107.361369">
<time>2016-10-06T17:43:36Z</time></trkpt>
<trkpt lat="24.504481" lon="107.361119">
<time>2016-10-06T17:43:37Z</time></trkpt>
<trkpt lat="24.504312" lon="107.36061">
<time>2016-10-06T17:43:38Z</time></trkpt>
<trkpt lat="24.504212" lon="107.360391">
<time>2016-10-06T17:43:39Z</time></trkpt>
<trkpt lat="24.504122" lon="107.360231">
<time>2016-10-06T17:43:40Z</time></trkpt>
<trkpt lat="24.504062" lon="107.360161">
<time>2016-10-06T17:43:41Z</time></trkpt>
<trkpt lat="24.503992" lon="107.360101">
<time>2016-10-06T17:43:42Z</time></trkpt>
<trkpt lat="24.503942" lon="107.360062">
<time>2016-10-06T17:43:43Z</time></trkpt>
<trkpt lat="24.503872" lon="107.360022">
<time>2016-10-06T17:43:44Z</time></trkpt>
<trkpt lat="24.503822" lon="107.360002">
<time>2016-10-06T17:43:45Z</time></trkpt>
<trkpt lat="24.503752" lon="107.359982">
<time>2016-10-06T17:43:46Z</time></trkpt>
<trkpt lat="24.503632" lon="107.359972">
<time>2016-10-06T17:43:47Z</time></trkpt>
<trkpt lat="24.503552" lon="107.359972">
<time>2016-10-06T17:43:48Z</time></trkpt>
<trkpt lat="24.503372" lon="107.360012">
<time>2016-10-06T17:43:49Z</time></trkpt>
<trkpt lat="24.503132" lon="107.360082">
<time>2016-10-06T17:43:50Z</time></trkpt>
<trkpt lat="24.502942" lon="107.360101">
<time>2016-10-06T17:43:51Z</time></trkpt>
<trkpt lat="24.502852" lon="107.360102">
<time>2016-10-06T17:43:52Z</time></trkpt>
<trkpt lat="24.502742" lon="107.360092">
<time>2016-10-06T17:43:53Z</time></trkpt>
<trkpt lat="24.502662" lon="107.360062">
<time>2016-10-06T17:43:54Z</time></trkpt>
<trkpt lat="24.502552" lon="107.360022">
<time>2016-10-06T17:43:55Z</time></trkpt>
<trkpt lat="24.502402" lon="107.359932">
<time>2016-10-06T17:43:56Z</time></trkpt>
<trkpt lat="24.502302" lon="107.359862">
<time>2016-10-06T17:43:57Z</time></trkpt>
<trkpt lat="24.501753" lon="107.359453">
<time>2016-10-06T17:43:58Z</time></trkpt>
<trkpt lat="24.501713" lon="107.359433">
<time>2016-10-06T17:43:59Z</time></trkpt>
<trkpt lat="24.501663" lon="107.359423">
<time>2016-10-06T17:44:00Z</time></trkpt>
<trkpt lat="24.501583" lon="107.359403">
<time>2016-10-06T17:44:01Z</time></trkpt>
<trkpt lat="24.501383" lon="107.359403">
<time>2016-10-06T17:44:02Z</time></trkpt>
<trkpt lat="24.501203" lon="107.359433">
<time>2016-10-06T17:44:03Z</time></trkpt>
<trkpt lat="24.500963" lon="107.359473">
<time>2016-10-06T17:44:04Z</time></trkpt>
<trkpt lat="24.500813" lon="107.359503">
<time>2016-10-06T17:44:05Z</time></trkpt>
<trkpt lat="24.500673" lon="107.359523">
<time>2016-10-06T17:44:06Z</time></trkpt>
<trkpt lat="24.500543" lon="107.359553">
<time>2016-10-06T17:44:07Z</time></trkpt>
<trkpt lat="24.500433" lon="107.359573">
<time>2016-10-06T17:44:08Z</time></trkpt>
<trkpt lat="24.500343" lon="107.359583">
<time>2016-10-06T17:44:09Z</time></trkpt>
<trkpt lat="24.500272" lon="107.359593">
<time>2016-10-06T17:44:10Z</time></trkpt>
<trkpt lat="24.500232" lon="107.359603">
<time>2016-10-06T17:44:11Z</time></trkpt>
<trkpt lat="24.500152" lon="107.359603">
<time>2016-10-06T17:44:12Z</time></trkpt>
<trkpt lat="24.500072" lon="107.359603">
<time>2016-10-06T17:44:13Z</time></trkpt>
<trkpt lat="24.499992" lon="107.359593">
<time>2016-10-06T17:44:14Z</time></trkpt>
<trkpt lat="24.499952" lon="107.359583">
<time>2016-10-06T17:44:15Z</time></trkpt>
<trkpt lat="24.499892" lon="107.359563">
<time>2016-10-06T17:44:16Z</time></trkpt>
<trkpt lat="24.499843" lon="107.359543">
<time>2016-10-06T17:44:17Z</time></trkpt>
<trkpt lat="24.499783" lon="107.359513">
<time>2016-10-06T17:44:18Z</time></trkpt>
<trkpt lat="24.499743" lon="107.359483">
<time>2016-10-06T17:44:19Z</time></trkpt>
<trkpt lat="24.499683" lon="107.359443">
<time>2016-10-06T17:44:20Z</time></trkpt>
<trkpt lat="24.499633" lon="107.359393">
<time>2016-10-06T17:44:21Z</time></trkpt>
<trkpt lat="24.499583" lon="107.359323">
<time>2016-10-06T17:44:22Z</time></trkpt>
<trkpt lat="24.499543" lon="107.359253">
<time>2016-10-06T17:44:23Z</time></trkpt>
<trkpt lat="24.499513" lon="107.359173">
<time>2016-10-06T17:44:24Z</time></trkpt>
<trkpt lat="24.499483" lon="107.359054">
<time>2016-10-06T17:44:25Z</time></trkpt>
<trkpt lat="24.499473" lon="107.358924">
<time>2016-10-06T17:44:26Z</time></trkpt>
<trkpt lat="24.499484" lon="107.358794">
<time>2016-10-06T17:44:27Z</time></trkpt>
<trkpt lat="24.499494" lon="107.358664">
<time>2016-10-06T17:44:28Z</time></trkpt>
<trkpt lat="24.499544" lon="107.358375">
<time>2016-10-06T17:44:29Z</time></trkpt>
<trkpt lat="24.499564" lon="107.358255">
<time>2016-10-06T17:44:30Z</time></trkpt>
<trkpt lat="24.499575" lon="107.358125">
<time>2016-10-06T17:44:31Z</time></trkpt>
<trkpt lat="24.499575" lon="107.357986">
<time>2016-10-06T17:44:32Z</time></trkpt>
<trkpt lat="24.499565" lon="107.357766">
<time>2016-10-06T17:44:33Z</time></trkpt>
<trkpt lat="24.499485" lon="107.357607">
<time>2016-10-06T17:44:34Z</time></trkpt>
<trkpt lat="24.499395" lon="107.357487">
<time>2016-10-06T17:44:35Z</time></trkpt>
<trkpt lat="24.499355" lon="107.357427">
<time>2016-10-06T17:44:36Z</time></trkpt>
<trkpt lat="24.499326" lon="107.357387">
<time>2016-10-06T17:44:37Z</time></trkpt>
<trkpt lat="24.499276" lon="107.357337">
<time>2016-10-06T17:44:38Z</time></trkpt>
<trkpt lat="24.499206" lon="107.357277">
<time>2016-10-06T17:44:39Z</time></trkpt>
<trkpt lat="24.499146" lon="107.357237">
<time>2016-10-06T17:44:40Z</time></trkpt>
<trkpt lat="24.499076" lon="107.357197">
<time>2016-10-06T17:44:41Z</time></trkpt>
<trkpt lat="24.499016" lon="107.357167">
<time>2016-10-06T17:44:42Z</time></trkpt>
<trkpt lat="24.498956" lon="107.357147">
<time>2016-10-06T17:44:43Z</time></trkpt>
<trkpt lat="24.498896" lon="107.357127">
<time>2016-10-06T17:44:44Z</time></trkpt>
<trkpt lat="24.498846" lon="107.357118">
<time>2016-10-06T17:44:45Z</time></trkpt>
<trkpt lat="24.498786" lon="107.357108">
<time>2016-10-06T17:44:46Z</time></trkpt>
<trkpt lat="24.498596" lon="107.357098">
<time>2016-10-06T17:44:47Z</time></trkpt>
<trkpt lat="24.498386" lon="107.357098">
<time>2016-10-06T17:44:48Z</time></trkpt>
<trkpt lat="24.498266" lon="107.357118">
<time>2016-10-06T17:44:49Z</time></trkpt>
<trkpt lat="24.498126" lon="107.357138">
<time>2016-10-06T17:44:50Z</time></trkpt>
<trkpt lat="24.498006" lon="107.357148">
<time>2016-10-06T17:44:51Z</time></trkpt>
<trkpt lat="24.497916" lon="107.357167">
<time>2016-10-06T17:44:52Z</time></trkpt>
<trkpt lat="24.497776" lon="107.357187">
<time>2016-10-06T17:44:53Z</time></trkpt>
<trkpt lat="24.497636" lon="107.357237">
<time>2016-10-06T17:44:54Z</time></trkpt>
<trkpt lat="24.497495" lon="107.357297">
<time>2016-10-06T17:44:55Z</time></trkpt>
<trkpt lat="24.497345" lon="107.357367">
<time>2016-10-06T17:44:56Z</time></trkpt>
<trkpt lat="24.497215" lon="107.357447">
<time>2016-10-06T17:44:57Z</time></trkpt>
<trkpt lat="24.497085" lon="107.357537">
<time>2016-10-06T17:44:58Z</time></trkpt>
<trkpt lat="24.496494" lon="107.358066">
<time>2016-10-06T17:44:59Z</time></trkpt>
<trkpt lat="24.496244" lon="107.358225">
<time>2016-10-06T17:45:00Z</time></trkpt>
<trkpt lat="24.496054" lon="107.358295">
<time>2016-10-06T17:45:01Z</time></trkpt>
<trkpt lat="24.495824" lon="107.358365">
<time>2016-10-06T17:45:02Z</time></trkpt>
<trkpt lat="24.495623" lon="107.358395">
<time>2016-10-06T17:45:03Z</time></trkpt>
<trkpt lat="24.495433" lon="107.358415">
<time>2016-10-06T17:45:04Z</time></trkpt>
<trkpt lat="24.494333" lon="107.358425">
<time>2016-10-06T17:45:05Z</time></trkpt>
<trkpt lat="24.492463" lon="107.358485">
<time>2016-10-06T17:45:06Z</time></trkpt>
<trkpt lat="24.492233" lon="107.358485">
<time>2016-10-06T17:45:07Z</time></trkpt>
<trkpt lat="24.491893" lon="107.358455">
<time>2016-10-06T17:45:08Z</time></trkpt>
<trkpt lat="24.491593" lon="107.358425">
<time>2016-10-06T17:45:09Z</time></trkpt>
<trkpt lat="24.490673" lon="107.358246">
<time>2016-10-06T17:45:10Z</time></trkpt>
<trkpt lat="24.489093" lon="107.357887">
<time>2016-10-06T17:45:11Z</time></trkpt>
<trkpt lat="24.488863" lon="107.357847">
<time>2016-10-06T17:45:12Z</time></trkpt>
<trkpt lat="24.487423" lon="107.357547">
<time>2016-10-06T17:45:13Z</time></trkpt>
<trkpt lat="24.487233" lon="107.357497">
<time>2016-10-06T17:45:14Z</time></trkpt>
<trkpt lat="24.487014" lon="107.357448">
<time>2016-10-06T17:45:15Z</time></trkpt>
<trkpt lat="24.486814" lon="107.357398">
<time>2016-10-06T17:45:16Z</time></trkpt>
<trkpt lat="24.486614" lon="107.357338">
<time>2016-10-06T17:45:17Z</time></trkpt>
<trkpt lat="24.486414" lon="107.357258">
<time>2016-10-06T17:45:18Z</time></trkpt>
<trkpt lat="24.486234" lon="107.357178">
<time>2016-10-06T17:45:19Z</time></trkpt>
<trkpt lat="24.485724" lon="107.356889">
<time>2016-10-06T17:45:20Z</time></trkpt>
<trkpt lat="24.485334" lon="107.356649">
<time>2016-10-06T17:45:21Z</time></trkpt>
<trkpt lat="24.485175" lon="107.356549">
<time>2016-10-06T17:45:22Z</time></trkpt>
<trkpt lat="24.484765" lon="107.35637">
<time>2016-10-06T17:45:23Z</time></trkpt>
<trkpt lat="24.484465" lon="107.35625">
<time>2016-10-06T17:45:24Z</time></trkpt>
<trkpt lat="24.484155" lon="107.35614">
<time>2016-10-06T17:45:25Z</time></trkpt>
<trkpt lat="24.483605" lon="107.355981">
<time>2016-10-06T17:45:26Z</time></trkpt>
<trkpt lat="24.483405" lon="107.355921">
<time>2016-10-06T17:45:27Z</time></trkpt>
<trkpt lat="24.482635" lon="107.355681">
<time>2016-10-06T17:45:28Z</time></trkpt>
<trkpt lat="24.481606" lon="107.355322">
<time>2016-10-06T17:45:29Z</time></trkpt>
<trkpt lat="24.481136" lon="107.355142">
<time>2016-10-06T17:45:30Z</time></trkpt>
<trkpt lat="24.480716" lon="107.354933">
<time>2016-10-06T17:45:31Z</time></trkpt>
<trkpt lat="24.479927" lon="107.354524">
<time>2016-10-06T17:45:32Z</time></trkpt>
<trkpt lat="24.479477" lon="107.354294">
<time>2016-10-06T17:45:33Z</time></trkpt>
<trkpt lat="24.479227" lon="107.354254">
<time>2016-10-06T17:45:34Z</time></trkpt>
<trkpt lat="24.479057" lon="107.354244">
<time>2016-10-06T17:45:35Z</time></trkpt>
<trkpt lat="24.478817" lon="107.354304">
<time>2016-10-06T17:45:36Z</time></trkpt>
<trkpt lat="24.477646" lon="107.354793">
<time>2016-10-06T17:45:37Z</time></trkpt>
<trkpt lat="24.476985" lon="107.355083">
<time>2016-10-06T17:45:38Z</time></trkpt>
<trkpt lat="24.476815" lon="107.355143">
<time>2016-10-06T17:45:39Z</time></trkpt>
<trkpt lat="24.476705" lon="107.355173">
<time>2016-10-06T17:45:40Z</time></trkpt>
<trkpt lat="24.476595" lon="107.355193">
<time>2016-10-06T17:45:41Z</time></trkpt>
<trkpt lat="24.476435" lon="107.355193">
<time>2016-10-06T17:45:42Z</time></trkpt>
<trkpt lat="24.476225" lon="107.355153">
<time>2016-10-06T17:45:43Z</time></trkpt>
<trkpt lat="24.475925" lon="107.355043">
<time>2016-10-06T17:45:44Z</time></trkpt>
<trkpt lat="24.475755" lon="107.354963">
<time>2016-10-06T17:45:45Z</time></trkpt>
<trkpt lat="24.475575" lon="107.354873">
<time>2016-10-06T17:45:46Z</time></trkpt>
<trkpt lat="24.475386" lon="107.354784">
<time>2016-10-06T17:45:47Z</time></trkpt>
<trkpt lat="24.475206" lon="107.354684">
<time>2016-10-06T17:45:48Z</time></trkpt>
<trkpt lat="24.475036" lon="107.354594">
<time>2016-10-06T17:45:49Z</time></trkpt>
<trkpt lat="24.474866" lon="107.354514">
<time>2016-10-06T17:45:50Z</time></trkpt>
<trkpt lat="24.474696" lon="107.354444">
<time>2016-10-06T17:45:51Z</time></trkpt>
<trkpt lat="24.474496" lon="107.354374">
<time>2016-10-06T17:45:52Z</time></trkpt>
<trkpt lat="24.474316" lon="107.354325">
<time>2016-10-06T17:45:53Z</time></trkpt>
<trkpt lat="24.474126" lon="107.354285">
<time>2016-10-06T17:45:54Z</time></trkpt>
<trkpt lat="24.473756" lon="107.354215">
<time>2016-10-06T17:45:55Z</time></trkpt>
<trkpt lat="24.473596" lon="107.354185">
<time>2016-10-06T17:45:56Z</time></trkpt>
<trkpt lat="24.472866" lon="107.354045">
<time>2016-10-06T17:45:57Z</time></trkpt>
<trkpt lat="24.472616" lon="107.353985">
<time>2016-10-06T17:45:58Z</time></trkpt>
<trkpt lat="24.472426" lon="107.353925">
<time>2016-10-06T17:45:59Z</time></trkpt>
<trkpt lat="24.472246" lon="107.353836">
<time>2016-10-06T17:46:00Z</time></trkpt>
<trkpt lat="24.471977" lon="107.353676">
<time>2016-10-06T17:46:01Z</time></trkpt>
<trkpt lat="24.471677" lon="107.353456">
<time>2016-10-06T17:46:02Z</time></trkpt>
<trkpt lat="24.471327" lon="107.353217">
<time>2016-10-06T17:46:03Z</time></trkpt>
<trkpt lat="24.471018" lon="107.352988">
<time>2016-10-06T17:46:04Z</time></trkpt>
<trkpt lat="24.470488" lon="107.352598">
<time>2016-10-06T17:46:05Z</time></trkpt>
<trkpt lat="24.469839" lon="107.352149">
<time>2016-10-06T17:46:06Z</time></trkpt>
<trkpt lat="24.469569" lon="107.35195">
<time>2016-10-06T17:46:07Z</time></trkpt>
<trkpt lat="24.469439" lon="107.35188">
<time>2016-10-06T17:46:08Z</time></trkpt>
<trkpt lat="24.469279" lon="107.3518">
<time>2016-10-06T17:46:09Z</time></trkpt>
<trkpt lat="24.469039" lon="107.35173">
<time>2016-10-06T17:46:10Z</time></trkpt>
<trkpt lat="24.468889" lon="107.3517">
<time>2016-10-06T17:46:11Z</time></trkpt>
<trkpt lat="24.468779" lon="107.35169">
<time>2016-10-06T17:46:12Z</time></trkpt>
<trkpt lat="24.468629" lon="107.3517">
<time>2016-10-06T17:46:13Z</time></trkpt>
<trkpt lat="24.468489" lon="107.35172">
<time>2016-10-06T17:46:14Z</time></trkpt>
<trkpt lat="24.468319" lon="107.35175">
<time>2016-10-06T17:46:15Z</time></trkpt>
<trkpt lat="24.467889" lon="107.35187">
<time>2016-10-06T17:46:16Z</time></trkpt>
<trkpt lat="24.467599" lon="107.35194">
<time>2016-10-06T17:46:17Z</time></trkpt>
<trkpt lat="24.467359" lon="107.35198">
<time>2016-10-06T17:46:18Z</time></trkpt>
<trkpt lat="24.467228" lon="107.35199">
<time>2016-10-06T17:46:19Z</time></trkpt>
<trkpt lat="24.467038" lon="107.352">
<time>2016-10-06T17:46:20Z</time></trkpt>
<trkpt lat="24.466658" lon="107.352">
<time>2016-10-06T17:46:21Z</time></trkpt>
<trkpt lat="24.465898" lon="107.35199">
<time>2016-10-06T17:46:22Z</time></trkpt>
<trkpt lat="24.465708" lon="107.352">
<time>2016-10-06T17:46:23Z</time></trkpt>
<trkpt lat="24.465548" lon="107.35203">
<time>2016-10-06T17:46:24Z</time></trkpt>
<trkpt lat="24.465328" lon="107.35207">
<time>2016-10-06T17:46:25Z</time></trkpt>
<trkpt lat="24.465038" lon="107.35214">
<time>2016-10-06T17:46:26Z</time></trkpt>
<trkpt lat="24.464708" lon="107.352239">
<time>2016-10-06T17:46:27Z</time></trkpt>
<trkpt lat="24.463697" lon="107.352549">
<time>2016-10-06T17:46:28Z</time></trkpt>
<trkpt lat="24.463487" lon="107.352619">
<time>2016-10-06T17:46:29Z</time></trkpt>
<trkpt lat="24.463297" lon="107.352738">
<time>2016-10-06T17:46:30Z</time></trkpt>
<trkpt lat="24.463166" lon="107.352858">
<time>2016-10-06T17:46:31Z</time></trkpt>
<trkpt lat="24.463046" lon="107.353038">
<time>2016-10-06T17:46:32Z</time></trkpt>
<trkpt lat="24.462996" lon="107.353267">
<time>2016-10-06T17:46:33Z</time></trkpt>
<trkpt lat="24.462953" lon="107.354655">
<time>2016-10-06T17:46:34Z</time></trkpt>
<trkpt lat="24.462933" lon="107.354734">
<time>2016-10-06T17:46:35Z</time></trkpt>
<trkpt lat="24.462913" lon="107.354854">
<time>2016-10-06T17:46:36Z</time></trkpt>
<trkpt lat="24.462853" lon="107.355034">
<time>2016-10-06T17:46:37Z</time></trkpt>
<trkpt lat="24.462773" lon="107.355203">
<time>2016-10-06T17:46:38Z</time></trkpt>
<trkpt lat="24.462662" lon="107.355323">
<time>2016-10-06T17:46:39Z</time></trkpt>
<trkpt lat="24.462442" lon="107.355493">
<time>2016-10-06T17:46:40Z</time></trkpt>
<trkpt lat="24.462222" lon="107.355613">
<time>2016-10-06T17:46:41Z</time></trkpt>
<trkpt lat="24.461761" lon="107.355862">
<time>2016-10-06T17:46:42Z</time></trkpt>
<trkpt lat="24.461531" lon="107.355982">
<time>2016-10-06T17:46:43Z</time></trkpt>
<trkpt lat="24.461401" lon="107.356052">
<time>2016-10-06T17:46:44Z</time></trkpt>
<trkpt lat="24.461281" lon="107.356122">
<time>2016-10-06T17:46:45Z</time></trkpt>
<trkpt lat="24.461121" lon="107.356251">
<time>2016-10-06T17:46:46Z</time></trkpt>
<trkpt lat="24.461" lon="107.356381">
<time>2016-10-06T17:46:47Z</time></trkpt>
<trkpt lat="24.46091" lon="107.356491">
<time>2016-10-06T17:46:48Z</time></trkpt>
<trkpt lat="24.46083" lon="107.356601">
<time>2016-10-06T17:46:49Z</time></trkpt>
<trkpt lat="24.46075" lon="107.35677">
<time>2016-10-06T17:46:50Z</time></trkpt>
<trkpt lat="24.46068" lon="107.35692">
<time>2016-10-06T17:46:51Z</time></trkpt>
<trkpt lat="24.460579" lon="107.357209">
<time>2016-10-06T17:46:52Z</time></trkpt>
<trkpt lat="24.460388" lon="107.357788">
<time>2016-10-06T17:46:53Z</time></trkpt>
<trkpt lat="24.460278" lon="107.358118">
<time>2016-10-06T17:46:54Z</time></trkpt>
<trkpt lat="24.460218" lon="107.358287">
<time>2016-10-06T17:46:55Z</time></trkpt>
<trkpt lat="24.460117" lon="107.358557">
<time>2016-10-06T17:46:56Z</time></trkpt>
<trkpt lat="24.459987" lon="107.358936">
<time>2016-10-06T17:46:57Z</time></trkpt>
<trkpt lat="24.459846" lon="107.359305">
<time>2016-10-06T17:46:58Z</time></trkpt>
<trkpt lat="24.459675" lon="107.359834">
<time>2016-10-06T17:46:59Z</time></trkpt>
<trkpt lat="24.459485" lon="107.360244">
<time>2016-10-06T17:47:00Z</time></trkpt>
<trkpt lat="24.459324" lon="107.360493">
<time>2016-10-06T17:47:01Z</time></trkpt>
<trkpt lat="24.459104" lon="107.360723">
<time>2016-10-06T17:47:02Z</time></trkpt>
<trkpt lat="24.458303" lon="107.361392">
<time>2016-10-06T17:47:03Z</time></trkpt>
<trkpt lat="24.457652" lon="107.361901">
<time>2016-10-06T17:47:04Z</time></trkpt>
<trkpt lat="24.456801" lon="107.36251">
<time>2016-10-06T17:47:05Z</time></trkpt>
<trkpt lat="24.45621" lon="107.362889">
<time>2016-10-06T17:47:06Z</time></trkpt>
<trkpt lat="24.45598" lon="107.363079">
<time>2016-10-06T17:47:07Z</time></trkpt>
<trkpt lat="24.45585" lon="107.363198">
<time>2016-10-06T17:47:08Z</time></trkpt>
<trkpt lat="24.45574" lon="107.363308">
<time>2016-10-06T17:47:09Z</time></trkpt>
<trkpt lat="24.455399" lon="107.363698">
<time>2016-10-06T17:47:10Z</time></trkpt>
<trkpt lat="24.455219" lon="107.363877">
<time>2016-10-06T17:47:11Z</time></trkpt>
<trkpt lat="24.454979" lon="107.364057">
<time>2016-10-06T17:47:12Z</time></trkpt>
<trkpt lat="24.454858" lon="107.364137">
<time>2016-10-06T17:47:13Z</time></trkpt>
<trkpt lat="24.454708" lon="107.364217">
<time>2016-10-06T17:47:14Z</time></trkpt>
<trkpt lat="24.454538" lon="107.364287">
<time>2016-10-06T17:47:15Z</time></trkpt>
<trkpt lat="24.454328" lon="107.364346">
<time>2016-10-06T17:47:16Z</time></trkpt>
<trkpt lat="24.453858" lon="107.364446">
<time>2016-10-06T17:47:17Z</time></trkpt>
<trkpt lat="24.453438" lon="107.364596">
<time>2016-10-06T17:47:18Z</time></trkpt>
<trkpt lat="24.452927" lon="107.364816">
<time>2016-10-06T17:47:19Z</time></trkpt>
<trkpt lat="24.452667" lon="107.364965">
<time>2016-10-06T17:47:20Z</time></trkpt>
<trkpt lat="24.452036" lon="107.365305">
<time>2016-10-06T17:47:21Z</time></trkpt>
<trkpt lat="24.451696" lon="107.365505">
<time>2016-10-06T17:47:22Z</time></trkpt>
<trkpt lat="24.451005" lon="107.365894">
<time>2016-10-06T17:47:23Z</time></trkpt>
<trkpt lat="24.450615" lon="107.366203">
<time>2016-10-06T17:47:24Z</time></trkpt>
<trkpt lat="24.450034" lon="107.366812">
<time>2016-10-06T17:47:25Z</time></trkpt>
<trkpt lat="24.449724" lon="107.367152">
<time>2016-10-06T17:47:26Z</time></trkpt>
<trkpt lat="24.449403" lon="107.367471">
<time>2016-10-06T17:47:27Z</time></trkpt>
<trkpt lat="24.449273" lon="107.367571">
<time>2016-10-06T17:47:28Z</time></trkpt>
<trkpt lat="24.449143" lon="107.367651">
<time>2016-10-06T17:47:29Z</time></trkpt>
<trkpt lat="24.449003" lon="107.367711">
<time>2016-10-06T17:47:30Z</time></trkpt>
<trkpt lat="24.448923" lon="107.367731">
<time>2016-10-06T17:47:31Z</time></trkpt>
<trkpt lat="24.448853" lon="107.367751">
<time>2016-10-06T17:47:32Z</time></trkpt>
<trkpt lat="24.448723" lon="107.367761">
<time>2016-10-06T17:47:33Z</time></trkpt>
<trkpt lat="24.448593" lon="107.367761">
<time>2016-10-06T17:47:34Z</time></trkpt>
<trkpt lat="24.448123" lon="107.367721">
<time>2016-10-06T17:47:35Z</time></trkpt>
<trkpt lat="24.447923" lon="107.367721">
<time>2016-10-06T17:47:36Z</time></trkpt>
<trkpt lat="24.447773" lon="107.367731">
<time>2016-10-06T17:47:37Z</time></trkpt>
<trkpt lat="24.447592" lon="107.367781">
<time>2016-10-06T17:47:38Z</time></trkpt>
<trkpt lat="24.447442" lon="107.367831">
<time>2016-10-06T17:47:39Z</time></trkpt>
<trkpt lat="24.447142" lon="107.367971">
<time>2016-10-06T17:47:40Z</time></trkpt>
<trkpt lat="24.446582" lon="107.36828">
<time>2016-10-06T17:47:41Z</time></trkpt>
<trkpt lat="24.446251" lon="107.36848">
<time>2016-10-06T17:47:42Z</time></trkpt>
<trkpt lat="24.445811" lon="107.36871">
<time>2016-10-06T17:47:43Z</time></trkpt>
<trkpt lat="24.445371" lon="107.368879">
<time>2016-10-06T17:47:44Z</time></trkpt>
<trkpt lat="24.445031" lon="107.368989">
<time>2016-10-06T17:47:45Z</time></trkpt>
<trkpt lat="24.44454" lon="107.369099">
<time>2016-10-06T17:47:46Z</time></trkpt>
<trkpt lat="24.44426" lon="107.369199">
<time>2016-10-06T17:47:47Z</time></trkpt>
<trkpt lat="24.44414" lon="107.369269">
<time>2016-10-06T17:47:48Z</time></trkpt>
<trkpt lat="24.44393" lon="107.369399">
<time>2016-10-06T17:47:49Z</time></trkpt>
<trkpt lat="24.44375" lon="107.369538">
<time>2016-10-06T17:47:50Z</time></trkpt>
<trkpt lat="24.443429" lon="107.369818">
<time>2016-10-06T17:47:51Z</time></trkpt>
<trkpt lat="24.443329" lon="107.369908">
<time>2016-10-06T17:47:52Z</time></trkpt>
<trkpt lat="24.443079" lon="107.370078">
<time>2016-10-06T17:47:53Z</time></trkpt>
<trkpt lat="24.442809" lon="107.370217">
<time>2016-10-06T17:47:54Z</time></trkpt>
<trkpt lat="24.442599" lon="107.370287">
<time>2016-10-06T17:47:55Z</time></trkpt>
<trkpt lat="24.441988" lon="107.370447">
<time>2016-10-06T17:47:56Z</time></trkpt>
<trkpt lat="24.441718" lon="107.370537">
<time>2016-10-06T17:47:57Z</time></trkpt>
<trkpt lat="24.441418" lon="107.370687">
<time>2016-10-06T17:47:58Z</time></trkpt>
<trkpt lat="24.441128" lon="107.370867">
<time>2016-10-06T17:47:59Z</time></trkpt>
<trkpt lat="24.440607" lon="107.371246">
<time>2016-10-06T17:48:00Z</time></trkpt>
<trkpt lat="24.440337" lon="107.371416">
<time>2016-10-06T17:48:01Z</time></trkpt>
<trkpt lat="24.440257" lon="107.371456">
<time>2016-10-06T17:48:02Z</time></trkpt>
<trkpt lat="24.440127" lon="107.371506">
<time>2016-10-06T17:48:03Z</time></trkpt>
<trkpt lat="24.440047" lon="107.371526">
<time>2016-10-06T17:48:04Z</time></trkpt>
<trkpt lat="24.439907" lon="107.371546">
<time>2016-10-06T17:48:05Z</time></trkpt>
<trkpt lat="24.439647" lon="107.371576">
<time>2016-10-06T17:48:06Z</time></trkpt>
<trkpt lat="24.439277" lon="107.371586">
<time>2016-10-06T17:48:07Z</time></trkpt>
<trkpt lat="24.438446" lon="107.371586">
<time>2016-10-06T17:48:08Z</time></trkpt>
<trkpt lat="24.436356" lon="107.371626">
<time>2016-10-06T17:48:09Z</time></trkpt>
<trkpt lat="24.436216" lon="107.371636">
<time>2016-10-06T17:48:10Z</time></trkpt>
<trkpt lat="24.436076" lon="107.371656">
<time>2016-10-06T17:48:11Z</time></trkpt>
<trkpt lat="24.435966" lon="107.371686">
<time>2016-10-06T17:48:12Z</time></trkpt>
<trkpt lat="24.435886" lon="107.371716">
<time>2016-10-06T17:48:13Z</time></trkpt>
<trkpt lat="24.435786" lon="107.371775">
<time>2016-10-06T17:48:14Z</time></trkpt>
<trkpt lat="24.435695" lon="107.371865">
<time>2016-10-06T17:48:15Z</time></trkpt>
<trkpt lat="24.435615" lon="107.371975">
<time>2016-10-06T17:48:16Z</time></trkpt>
<trkpt lat="24.435555" lon="107.372075">
<time>2016-10-06T17:48:17Z</time></trkpt>
<trkpt lat="24.435405" lon="107.372454">
<time>2016-10-06T17:48:18Z</time></trkpt>
<trkpt lat="24.435365" lon="107.372564">
<time>2016-10-06T17:48:19Z</time></trkpt>
<trkpt lat="24.435315" lon="107.372684">
<time>2016-10-06T17:48:20Z</time></trkpt>
<trkpt lat="24.435244" lon="107.372784">
<time>2016-10-06T17:48:21Z</time></trkpt>
<trkpt lat="24.435194" lon="107.372854">
<time>2016-10-06T17:48:22Z</time></trkpt>
<trkpt lat="24.435124" lon="107.372914">
<time>2016-10-06T17:48:23Z</time></trkpt>
<trkpt lat="24.434994" lon="107.373004">
<time>2016-10-06T17:48:24Z</time></trkpt>
<trkpt lat="24.434884" lon="107.373044">
<time>2016-10-06T17:48:25Z</time></trkpt>
<trkpt lat="24.434774" lon="107.373074">
<time>2016-10-06T17:48:26Z</time></trkpt>
<trkpt lat="24.434624" lon="107.373124">
<time>2016-10-06T17:48:27Z</time></trkpt>
<trkpt lat="24.434504" lon="107.373144">
<time>2016-10-06T17:48:28Z</time></trkpt>
<trkpt lat="24.434394" lon="107.373154">
<time>2016-10-06T17:48:29Z</time></trkpt>
<trkpt lat="24.434314" lon="107.373144">
<time>2016-10-06T17:48:30Z</time></trkpt>
<trkpt lat="24.434214" lon="107.373134">
<time>2016-10-06T17:48:31Z</time></trkpt>
<trkpt lat="24.434134" lon="107.373114">
<time>2016-10-06T17:48:32Z</time></trkpt>
<trkpt lat="24.434044" lon="107.373074">
<time>2016-10-06T17:48:33Z</time></trkpt>
<trkpt lat="24.433924" lon="107.373004">
<time>2016-10-06T17:48:34Z</time></trkpt>
<trkpt lat="24.433844" lon="107.372944">
<time>2016-10-06T17:48:35Z</time></trkpt>
<trkpt lat="24.433754" lon="107.372874">
<time>2016-10-06T17:48:36Z</time></trkpt>
<trkpt lat="24.433624" lon="107.372764">
<time>2016-10-06T17:48:37Z</time></trkpt>
<trkpt lat="24.433494" lon="107.372674">
<time>2016-10-06T17:48:38Z</time></trkpt>
<trkpt lat="24.433384" lon="107.372604">
<time>2016-10-06T17:48:39Z</time></trkpt>
<trkpt lat="24.433284" lon="107.372554">
<time>2016-10-06T17:48:40Z</time></trkpt>
<trkpt lat="24.433174" lon="107.372514">
<time>2016-10-06T17:48:41Z</time></trkpt>
<trkpt lat="24.433084" lon="107.372485">
<time>2016-10-06T17:48:42Z</time></trkpt>
<trkpt lat="24.432984" lon="107.372475">
<time>2016-10-06T17:48:43Z</time></trkpt>
<trkpt lat="24.432894" lon="107.372455">
<time>2016-10-06T17:48:44Z</time></trkpt>
<trkpt lat="24.432774" lon="107.372445">
<time>2016-10-06T17:48:45Z</time></trkpt>
<trkpt lat="24.432674" lon="107.372445">
<time>2016-10-06T17:48:46Z</time></trkpt>
<trkpt lat="24.432604" lon="107.372455">
<time>2016-10-06T17:48:47Z</time></trkpt>
<trkpt lat="24.432514" lon="107.372465">
<time>2016-10-06T17:48:48Z</time></trkpt>
<trkpt lat="24.432444" lon="107.372475">
<time>2016-10-06T17:48:49Z</time></trkpt>
<trkpt lat="24.432294" lon="107.372525">
<time>2016-10-06T17:48:50Z</time></trkpt>
<trkpt lat="24.432234" lon="107.372554">
<time>2016-10-06T17:48:51Z</time></trkpt>
<trkpt lat="24.432134" lon="107.372644">
<time>2016-10-06T17:48:52Z</time></trkpt>
<trkpt lat="24.432044" lon="107.372764">
<time>2016-10-06T17:48:53Z</time></trkpt>
<trkpt lat="24.431994" lon="107.372884">
<time>2016-10-06T17:48:54Z</time></trkpt>
<trkpt lat="24.431964" lon="107.372974">
<time>2016-10-06T17:48:55Z</time></trkpt>
<trkpt lat="24.431953" lon="107.373094">
<time>2016-10-06T17:48:56Z</time></trkpt>
<trkpt lat="24.431943" lon="107.373463">
<time>2016-10-06T17:48:57Z</time></trkpt>
<trkpt lat="24.431923" lon="107.373583">
<time>2016-10-06T17:48:58Z</time></trkpt>
<trkpt lat="24.431913" lon="107.373673">
<time>2016-10-06T17:48:59Z</time></trkpt>
<trkpt lat="24.431883" lon="107.373773">
<time>2016-10-06T17:49:00Z</time></trkpt>
<trkpt lat="24.431853" lon="107.373853">
<time>2016-10-06T17:49:01Z</time></trkpt>
<trkpt lat="24.431803" lon="107.373913">
<time>2016-10-06T17:49:02Z</time></trkpt>
<trkpt lat="24.431722" lon="107.374012">
<time>2016-10-06T17:49:03Z</time></trkpt>
<trkpt lat="24.431622" lon="107.374092">
<time>2016-10-06T17:49:04Z</time></trkpt>
<trkpt lat="24.431522" lon="107.374132">
<time>2016-10-06T17:49:05Z</time></trkpt>
<trkpt lat="24.431452" lon="107.374152">
<time>2016-10-06T17:49:06Z</time></trkpt>
<trkpt lat="24.431362" lon="107.374162">
<time>2016-10-06T17:49:07Z</time></trkpt>
<trkpt lat="24.431252" lon="107.374152">
<time>2016-10-06T17:49:08Z</time></trkpt>
<trkpt lat="24.431162" lon="107.374132">
<time>2016-10-06T17:49:09Z</time></trkpt>
<trkpt lat="24.431092" lon="107.374112">
<time>2016-10-06T17:49:10Z</time></trkpt>
<trkpt lat="24.430572" lon="107.373883">
<time>2016-10-06T17:49:11Z</time></trkpt>
<trkpt lat="24.429423" lon="107.373304">
<time>2016-10-06T17:49:12Z</time></trkpt>
<trkpt lat="24.429113" lon="107.373164">
<time>2016-10-06T17:49:13Z</time></trkpt>
<trkpt lat="24.428913" lon="107.373124">
<time>2016-10-06T17:49:14Z</time></trkpt>
<trkpt lat="24.428713" lon="107.373134">
<time>2016-10-06T17:49:15Z</time></trkpt>
<trkpt lat="24.428523" lon="107.373234">
<time>2016-10-06T17:49:16Z</time></trkpt>
<trkpt lat="24.428342" lon="107.373453">
<time>2016-10-06T17:49:17Z</time></trkpt>
<trkpt lat="24.428262" lon="107.373773">
<time>2016-10-06T17:49:18Z</time></trkpt>
<trkpt lat="24.428212" lon="107.374122">
<time>2016-10-06T17:49:19Z</time></trkpt>
<trkpt lat="24.428171" lon="107.374292">
<time>2016-10-06T17:49:20Z</time></trkpt>
<trkpt lat="24.428121" lon="107.374382">
<time>2016-10-06T17:49:21Z</time></trkpt>
<trkpt lat="24.428061" lon="107.374462">
<time>2016-10-06T17:49:22Z</time></trkpt>
<trkpt lat="24.427941" lon="107.374592">
<time>2016-10-06T17:49:23Z</time></trkpt>
<trkpt lat="24.427851" lon="107.374642">
<time>2016-10-06T17:49:24Z</time></trkpt>
<trkpt lat="24.427741" lon="107.374692">
<time>2016-10-06T17:49:25Z</time></trkpt>
<trkpt lat="24.427631" lon="107.374702">
<time>2016-10-06T17:49:26Z</time></trkpt>
<trkpt lat="24.427521" lon="107.374702">
<time>2016-10-06T17:49:27Z</time></trkpt>
<trkpt lat="24.427401" lon="107.374692">
<time>2016-10-06T17:49:28Z</time></trkpt>
<trkpt lat="24.427291" lon="107.374642">
<time>2016-10-06T17:49:29Z</time></trkpt>
<trkpt lat="24.426911" lon="107.374492">
<time>2016-10-06T17:49:30Z</time></trkpt>
<trkpt lat="24.426771" lon="107.374422">
<time>2016-10-06T17:49:31Z</time></trkpt>
<trkpt lat="24.426461" lon="107.374242">
<time>2016-10-06T17:49:32Z</time></trkpt>
<trkpt lat="24.426261" lon="107.374093">
<time>2016-10-06T17:49:33Z</time></trkpt>
<trkpt lat="24.426161" lon="107.374013">
<time>2016-10-06T17:49:34Z</time></trkpt>
<trkpt lat="24.425811" lon="107.373693">
<time>2016-10-06T17:49:35Z</time></trkpt>
<trkpt lat="24.425492" lon="107.373334">
<time>2016-10-06T17:49:36Z</time></trkpt>
<trkpt lat="24.425382" lon="107.373244">
<time>2016-10-06T17:49:37Z</time></trkpt>
<trkpt lat="24.425302" lon="107.373184">
<time>2016-10-06T17:49:38Z</time></trkpt>
<trkpt lat="24.425212" lon="107.373144">
<time>2016-10-06T17:49:39Z</time></trkpt>
<trkpt lat="24.425132" lon="107.373114">
<time>2016-10-06T17:49:40Z</time></trkpt>
<trkpt lat="24.425022" lon="107.373104">
<time>2016-10-06T17:49:41Z</time></trkpt>
<trkpt lat="24.424912" lon="107.373104">
<time>2016-10-06T17:49:42Z</time></trkpt>
<trkpt lat="24.424812" lon="107.373134">
<time>2016-10-06T17:49:43Z</time></trkpt>
<trkpt lat="24.424712" lon="107.373174">
<time>2016-10-06T17:49:44Z</time></trkpt>
<trkpt lat="24.424632" lon="107.373224">
<time>2016-10-06T17:49:45Z</time></trkpt>
<trkpt lat="24.424552" lon="107.373294">
<time>2016-10-06T17:49:46Z</time></trkpt>
<trkpt lat="24.424291" lon="107.373573">
<time>2016-10-06T17:49:47Z</time></trkpt>
<trkpt lat="24.423981" lon="107.373933">
<time>2016-10-06T17:49:48Z</time></trkpt>
<trkpt lat="24.4234" lon="107.374582">
<time>2016-10-06T17:49:49Z</time></trkpt>
<trkpt lat="24.42302" lon="107.375002">
<time>2016-10-06T17:49:50Z</time></trkpt>
<trkpt lat="24.42293" lon="107.375071">
<time>2016-10-06T17:49:51Z</time></trkpt>
<trkpt lat="24.422829" lon="107.375151">
<time>2016-10-06T17:49:52Z</time></trkpt>
<trkpt lat="24.422759" lon="107.375201">
<time>2016-10-06T17:49:53Z</time></trkpt>
<trkpt lat="24.422699" lon="107.375231">
<time>2016-10-06T17:49:54Z</time></trkpt>
<trkpt lat="24.422619" lon="107.375261">
<time>2016-10-06T17:49:55Z</time></trkpt>
<trkpt lat="24.422529" lon="107.375291">
<time>2016-10-06T17:49:56Z</time></trkpt>
<trkpt lat="24.422439" lon="107.375311">
<time>2016-10-06T17:49:57Z</time></trkpt>
<trkpt lat="24.422359" lon="107.375311">
<time>2016-10-06T17:49:58Z</time></trkpt>
<trkpt lat="24.422249" lon="107.375301">
<time>2016-10-06T17:49:59Z</time></trkpt>
<trkpt lat="24.422159" lon="107.375291">
<time>2016-10-06T17:50:00Z</time></trkpt>
<trkpt lat="24.422029" lon="107.375251">
<time>2016-10-06T17:50:01Z</time></trkpt>
<trkpt lat="24.421909" lon="107.375191">
<time>2016-10-06T17:50:02Z</time></trkpt>
<trkpt lat="24.421719" lon="107.375092">
<time>2016-10-06T17:50:03Z</time></trkpt>
<trkpt lat="24.421599" lon="107.375002">
<time>2016-10-06T17:50:04Z</time></trkpt>
<trkpt lat="24.421469" lon="107.374912">
<time>2016-10-06T17:50:05Z</time></trkpt>
<trkpt lat="24.421259" lon="107.374782">
<time>2016-10-06T17:50:06Z</time></trkpt>
<trkpt lat="24.421079" lon="107.374662">
<time>2016-10-06T17:50:07Z</time></trkpt>
<trkpt lat="24.42091" lon="107.374562">
<time>2016-10-06T17:50:08Z</time></trkpt>
<trkpt lat="24.4207" lon="107.374432">
<time>2016-10-06T17:50:09Z</time></trkpt>
<trkpt lat="24.42057" lon="107.374353">
<time>2016-10-06T17:50:10Z</time></trkpt>
<trkpt lat="24.42047" lon="107.374313">
<time>2016-10-06T17:50:11Z</time></trkpt>
<trkpt lat="24.4204" lon="107.374283">
<time>2016-10-06T17:50:12Z</time></trkpt>
<trkpt lat="24.42029" lon="107.374253">
<time>2016-10-06T17:50:13Z</time></trkpt>
<trkpt lat="24.42022" lon="107.374243">
<time>2016-10-06T17:50:14Z</time></trkpt>
<trkpt lat="24.42014" lon="107.374253">
<time>2016-10-06T17:50:15Z</time></trkpt>
<trkpt lat="24.42001" lon="107.374273">
<time>2016-10-06T17:50:16Z</time></trkpt>
<trkpt lat="24.41995" lon="107.374293">
<time>2016-10-06T17:50:17Z</time></trkpt>
<trkpt lat="24.41988" lon="107.374333">
<time>2016-10-06T17:50:18Z</time></trkpt>
<trkpt lat="24.419799" lon="107.374383">
<time>2016-10-06T17:50:19Z</time></trkpt>
<trkpt lat="24.419729" lon="107.374453">
<time>2016-10-06T17:50:20Z</time></trkpt>
<trkpt lat="24.419649" lon="107.374572">
<time>2016-10-06T17:50:21Z</time></trkpt>
<trkpt lat="24.419569" lon="107.374702">
<time>2016-10-06T17:50:22Z</time></trkpt>
<trkpt lat="24.419499" lon="107.374862">
<time>2016-10-06T17:50:23Z</time></trkpt>
<trkpt lat="24.419449" lon="107.374992">
<time>2016-10-06T17:50:24Z</time></trkpt>
<trkpt lat="24.419359" lon="107.375281">
<time>2016-10-06T17:50:25Z</time></trkpt>
<trkpt lat="24.419128" lon="107.375951">
<time>2016-10-06T17:50:26Z</time></trkpt>
<trkpt lat="24.418957" lon="107.37642">
<time>2016-10-06T17:50:27Z</time></trkpt>
<trkpt lat="24.418877" lon="107.37658">
<time>2016-10-06T17:50:28Z</time></trkpt>
<trkpt lat="24.418737" lon="107.376799">
<time>2016-10-06T17:50:29Z</time></trkpt>
<trkpt lat="24.418597" lon="107.376959">
<time>2016-10-06T17:50:30Z</time></trkpt>
<trkpt lat="24.418427" lon="107.377109">
<time>2016-10-06T17:50:31Z</time></trkpt>
<trkpt lat="24.418247" lon="107.377219">
<time>2016-10-06T17:50:32Z</time></trkpt>
<trkpt lat="24.416665" lon="107.378178">
<time>2016-10-06T17:50:33Z</time></trkpt>
<trkpt lat="24.416455" lon="107.378278">
<time>2016-10-06T17:50:34Z</time></trkpt>
<trkpt lat="24.416355" lon="107.378318">
<time>2016-10-06T17:50:35Z</time></trkpt>
<trkpt lat="24.416265" lon="107.378348">
<time>2016-10-06T17:50:36Z</time></trkpt>
<trkpt lat="24.416205" lon="107.378358">
<time>2016-10-06T17:50:37Z</time></trkpt>
<trkpt lat="24.416145" lon="107.378358">
<time>2016-10-06T17:50:38Z</time></trkpt>
<trkpt lat="24.416085" lon="107.378348">
<time>2016-10-06T17:50:39Z</time></trkpt>
<trkpt lat="24.416035" lon="107.378338">
<time>2016-10-06T17:50:40Z</time></trkpt>
<trkpt lat="24.415985" lon="107.378328">
<time>2016-10-06T17:50:41Z</time></trkpt>
<trkpt lat="24.415925" lon="107.378298">
<time>2016-10-06T17:50:42Z</time></trkpt>
<trkpt lat="24.415855" lon="107.378258">
<time>2016-10-06T17:50:43Z</time></trkpt>
<trkpt lat="24.415785" lon="107.378208">
<time>2016-10-06T17:50:44Z</time></trkpt>
<trkpt lat="24.415725" lon="107.378148">
<time>2016-10-06T17:50:45Z</time></trkpt>
<trkpt lat="24.415665" lon="107.378068">
<time>2016-10-06T17:50:46Z</time></trkpt>
<trkpt lat="24.415585" lon="107.377918">
<time>2016-10-06T17:50:47Z</time></trkpt>
<trkpt lat="24.415505" lon="107.377738">
<time>2016-10-06T17:50:48Z</time></trkpt>
<trkpt lat="24.415386" lon="107.377409">
<time>2016-10-06T17:50:49Z</time></trkpt>
<trkpt lat="24.415286" lon="107.377209">
<time>2016-10-06T17:50:50Z</time></trkpt>
<trkpt lat="24.415226" lon="107.377109">
<time>2016-10-06T17:50:51Z</time></trkpt>
<trkpt lat="24.415126" lon="107.376979">
<time>2016-10-06T17:50:52Z</time></trkpt>
<trkpt lat="24.415046" lon="107.37691">
<time>2016-10-06T17:50:53Z</time></trkpt>
<trkpt lat="24.414936" lon="107.37682">
<time>2016-10-06T17:50:54Z</time></trkpt>
<trkpt lat="24.414836" lon="107.37676">
<time>2016-10-06T17:50:55Z</time></trkpt>
<trkpt lat="24.414746" lon="107.37672">
<time>2016-10-06T17:50:56Z</time></trkpt>
<trkpt lat="24.414666" lon="107.37669">
<time>2016-10-06T17:50:57Z</time></trkpt>
<trkpt lat="24.414576" lon="107.37666">
<time>2016-10-06T17:50:58Z</time></trkpt>
<trkpt lat="24.414466" lon="107.37664">
<time>2016-10-06T17:50:59Z</time></trkpt>
<trkpt lat="24.414306" lon="107.37662">
<time>2016-10-06T17:51:00Z</time></trkpt>
<trkpt lat="24.413506" lon="107.37651">
<time>2016-10-06T17:51:01Z</time></trkpt>
<trkpt lat="24.412786" lon="107.37641">
<time>2016-10-06T17:51:02Z</time></trkpt>
<trkpt lat="24.412636" lon="107.3764">
<time>2016-10-06T17:51:03Z</time></trkpt>
<trkpt lat="24.412536" lon="107.37641">
<time>2016-10-06T17:51:04Z</time></trkpt>
<trkpt lat="24.412436" lon="107.37642">
<time>2016-10-06T17:51:05Z</time></trkpt>
<trkpt lat="24.412326" lon="107.37646">
<time>2016-10-06T17:51:06Z</time></trkpt>
<trkpt lat="24.412226" lon="107.37651">
<time>2016-10-06T17:51:07Z</time></trkpt>
<trkpt lat="24.412116" lon="107.3766">
<time>2016-10-06T17:51:08Z</time></trkpt>
<trkpt lat="24.412046" lon="107.37669">
<time>2016-10-06T17:51:09Z</time></trkpt>
<trkpt lat="24.411965" lon="107.3768">
<time>2016-10-06T17:51:10Z</time></trkpt>
<trkpt lat="24.411885" lon="107.37698">
<time>2016-10-06T17:51:11Z</time></trkpt>
<trkpt lat="24.411825" lon="107.377149">
<time>2016-10-06T17:51:12Z</time></trkpt>
<trkpt lat="24.411755" lon="107.377289">
<time>2016-10-06T17:51:13Z</time></trkpt>
<trkpt lat="24.411665" lon="107.377429">
<time>2016-10-06T17:51:14Z</time></trkpt>
<trkpt lat="24.411615" lon="107.377489">
<time>2016-10-06T17:51:15Z</time></trkpt>
<trkpt lat="24.411555" lon="107.377559">
<time>2016-10-06T17:51:16Z</time></trkpt>
<trkpt lat="24.411485" lon="107.377609">
<time>2016-10-06T17:51:17Z</time></trkpt>
<trkpt lat="24.411405" lon="107.377649">
<time>2016-10-06T17:51:18Z</time></trkpt>
<trkpt lat="24.411305" lon="107.377679">
<time>2016-10-06T17:51:19Z</time></trkpt>
<trkpt lat="24.411214" lon="107.377689">
<time>2016-10-06T17:51:20Z</time></trkpt>
<trkpt lat="24.411114" lon="107.377689">
<time>2016-10-06T17:51:21Z</time></trkpt>
<trkpt lat="24.411034" lon="107.377679">
<time>2016-10-06T17:51:22Z</time></trkpt>
<trkpt lat="24.410894" lon="107.377649">
<time>2016-10-06T17:51:23Z</time></trkpt>
<trkpt lat="24.410764" lon="107.377619">
<time>2016-10-06T17:51:24Z</time></trkpt>
<trkpt lat="24.410604" lon="107.377579">
<time>2016-10-06T17:51:25Z</time></trkpt>
<trkpt lat="24.410524" lon="107.377559">
<time>2016-10-06T17:51:26Z</time></trkpt>
<trkpt lat="24.410454" lon="107.377559">
<time>2016-10-06T17:51:27Z</time></trkpt>
<trkpt lat="24.410394" lon="107.377559">
<time>2016-10-06T17:51:28Z</time></trkpt>
<trkpt lat="24.410334" lon="107.377559">
<time>2016-10-06T17:51:29Z</time></trkpt>
<trkpt lat="24.410214" lon="107.377579">
<time>2016-10-06T17:51:30Z</time></trkpt>
<trkpt lat="24.410094" lon="107.377619">
<time>2016-10-06T17:51:31Z</time></trkpt>
<trkpt lat="24.409974" lon="107.377669">
<time>2016-10-06T17:51:32Z</time></trkpt>
<trkpt lat="24.409864" lon="107.377749">
<time>2016-10-06T17:51:33Z</time></trkpt>
<trkpt lat="24.409664" lon="107.377919">
<time>2016-10-06T17:51:34Z</time></trkpt>
<trkpt lat="24.409494" lon="107.378078">
<time>2016-10-06T17:51:35Z</time></trkpt>
<trkpt lat="24.409394" lon="107.378158">
<time>2016-10-06T17:51:36Z</time></trkpt>
<trkpt lat="24.409304" lon="107.378218">
<time>2016-10-06T17:51:37Z</time></trkpt>
<trkpt lat="24.409184" lon="107.378268">
<time>2016-10-06T17:51:38Z</time></trkpt>
<trkpt lat="24.409093" lon="107.378288">
<time>2016-10-06T17:51:39Z</time></trkpt>
<trkpt lat="24.408983" lon="107.378288">
<time>2016-10-06T17:51:40Z</time></trkpt>
<trkpt lat="24.408913" lon="107.378278">
<time>2016-10-06T17:51:41Z</time></trkpt>
<trkpt lat="24.408843" lon="107.378258">
<time>2016-10-06T17:51:42Z</time></trkpt>
<trkpt lat="24.408773" lon="107.378228">
<time>2016-10-06T17:51:43Z</time></trkpt>
<trkpt lat="24.408664" lon="107.378138">
<time>2016-10-06T17:51:44Z</time></trkpt>
<trkpt lat="24.408584" lon="107.378048">
<time>2016-10-06T17:51:45Z</time></trkpt>
<trkpt lat="24.408504" lon="107.377899">
<time>2016-10-06T17:51:46Z</time></trkpt>
<trkpt lat="24.408444" lon="107.377759">
<time>2016-10-06T17:51:47Z</time></trkpt>
<trkpt lat="24.408324" lon="107.377469">
<time>2016-10-06T17:51:48Z</time></trkpt>
<trkpt lat="24.408254" lon="107.377339">
<time>2016-10-06T17:51:49Z</time></trkpt>
<trkpt lat="24.408204" lon="107.377259">
<time>2016-10-06T17:51:50Z</time></trkpt>
<trkpt lat="24.408134" lon="107.37719">
<time>2016-10-06T17:51:51Z</time></trkpt>
<trkpt lat="24.408064" lon="107.37712">
<time>2016-10-06T17:51:52Z</time></trkpt>
<trkpt lat="24.407974" lon="107.37706">
<time>2016-10-06T17:51:53Z</time></trkpt>
<trkpt lat="24.407874" lon="107.37703">
<time>2016-10-06T17:51:54Z</time></trkpt>
<trkpt lat="24.407784" lon="107.37701">
<time>2016-10-06T17:51:55Z</time></trkpt>
<trkpt lat="24.407694" lon="107.377">
<time>2016-10-06T17:51:56Z</time></trkpt>
<trkpt lat="24.407604" lon="107.37701">
<time>2016-10-06T17:51:57Z</time></trkpt>
<trkpt lat="24.407534" lon="107.37702">
<time>2016-10-06T17:51:58Z</time></trkpt>
<trkpt lat="24.407474" lon="107.37704">
<time>2016-10-06T17:51:59Z</time></trkpt>
<trkpt lat="24.407384" lon="107.37708">
<time>2016-10-06T17:52:00Z</time></trkpt>
<trkpt lat="24.407294" lon="107.37713">
<time>2016-10-06T17:52:01Z</time></trkpt>
<trkpt lat="24.407144" lon="107.37724">
<time>2016-10-06T17:52:02Z</time></trkpt>
<trkpt lat="24.406603" lon="107.377649">
<time>2016-10-06T17:52:03Z</time></trkpt>
<trkpt lat="24.406273" lon="107.377899">
<time>2016-10-06T17:52:04Z</time></trkpt>
<trkpt lat="24.406173" lon="107.377949">
<time>2016-10-06T17:52:05Z</time></trkpt>
<trkpt lat="24.406073" lon="107.377979">
<time>2016-10-06T17:52:06Z</time></trkpt>
<trkpt lat="24.405983" lon="107.377989">
<time>2016-10-06T17:52:07Z</time></trkpt>
<trkpt lat="24.405893" lon="107.377989">
<time>2016-10-06T17:52:08Z</time></trkpt>
<trkpt lat="24.405793" lon="107.377979">
<time>2016-10-06T17:52:09Z</time></trkpt>
<trkpt lat="24.405713" lon="107.377949">
<time>2016-10-06T17:52:10Z</time></trkpt>
<trkpt lat="24.405623" lon="107.377889">
<time>2016-10-06T17:52:11Z</time></trkpt>
<trkpt lat="24.405533" lon="107.377809">
<time>2016-10-06T17:52:12Z</time></trkpt>
<trkpt lat="24.405443" lon="107.377679">
<time>2016-10-06T17:52:13Z</time></trkpt>
<trkpt lat="24.405353" lon="107.377529">
<time>2016-10-06T17:52:14Z</time></trkpt>
<trkpt lat="24.405223" lon="107.3773">
<time>2016-10-06T17:52:15Z</time></trkpt>
<trkpt lat="24.405123" lon="107.37715">
<time>2016-10-06T17:52:16Z</time></trkpt>
<trkpt lat="24.405024" lon="107.37706">
<time>2016-10-06T17:52:17Z</time></trkpt>
<trkpt lat="24.404914" lon="107.37698">
<time>2016-10-06T17:52:18Z</time></trkpt>
<trkpt lat="24.404814" lon="107.37693">
<time>2016-10-06T17:52:19Z</time></trkpt>
<trkpt lat="24.404694" lon="107.37689">
<time>2016-10-06T17:52:20Z</time></trkpt>
<trkpt lat="24.404564" lon="107.37687">
<time>2016-10-06T17:52:21Z</time></trkpt>
<trkpt lat="24.404384" lon="107.37687">
<time>2016-10-06T17:52:22Z</time></trkpt>
<trkpt lat="24.404173" lon="107.37687">
<time>2016-10-06T17:52:23Z</time></trkpt>
<trkpt lat="24.403993" lon="107.37687">
<time>2016-10-06T17:52:24Z</time></trkpt>
<trkpt lat="24.403773" lon="107.37684">
<time>2016-10-06T17:52:25Z</time></trkpt>
<trkpt lat="24.403553" lon="107.37678">
<time>2016-10-06T17:52:26Z</time></trkpt>
<trkpt lat="24.403373" lon="107.37669">
<time>2016-10-06T17:52:27Z</time></trkpt>
<trkpt lat="24.403204" lon="107.376581">
<time>2016-10-06T17:52:28Z</time></trkpt>
<trkpt lat="24.402764" lon="107.376241">
<time>2016-10-06T17:52:29Z</time></trkpt>
<trkpt lat="24.402534" lon="107.376091">
<time>2016-10-06T17:52:30Z</time></trkpt>
<trkpt lat="24.402434" lon="107.376041">
<time>2016-10-06T17:52:31Z</time></trkpt>
<trkpt lat="24.402334" lon="107.376011">
<time>2016-10-06T17:52:32Z</time></trkpt>
<trkpt lat="24.402224" lon="107.375991">
<time>2016-10-06T17:52:33Z</time></trkpt>
<trkpt lat="24.402144" lon="107.375981">
<time>2016-10-06T17:52:34Z</time></trkpt>
<trkpt lat="24.401984" lon="107.375971">
<time>2016-10-06T17:52:35Z</time></trkpt>
<trkpt lat="24.401774" lon="107.376001">
<time>2016-10-06T17:52:36Z</time></trkpt>
<trkpt lat="24.401564" lon="107.376061">
<time>2016-10-06T17:52:37Z</time></trkpt>
<trkpt lat="24.400873" lon="107.376331">
<time>2016-10-06T17:52:38Z</time></trkpt>
<trkpt lat="24.399813" lon="107.376771">
<time>2016-10-06T17:52:39Z</time></trkpt>
<trkpt lat="24.399502" lon="107.37692">
<time>2016-10-06T17:52:40Z</time></trkpt>
<trkpt lat="24.398942" lon="107.37725">
<time>2016-10-06T17:52:41Z</time></trkpt>
<trkpt lat="24.398842" lon="107.37729">
<time>2016-10-06T17:52:42Z</time></trkpt>
<trkpt lat="24.398722" lon="107.37733">
<time>2016-10-06T17:52:43Z</time></trkpt>
<trkpt lat="24.398632" lon="107.37736">
<time>2016-10-06T17:52:44Z</time></trkpt>
<trkpt lat="24.398502" lon="107.37738">
<time>2016-10-06T17:52:45Z</time></trkpt>
<trkpt lat="24.398352" lon="107.37738">
<time>2016-10-06T17:52:46Z</time></trkpt>
<trkpt lat="24.398192" lon="107.37738">
<time>2016-10-06T17:52:47Z</time></trkpt>
<trkpt lat="24.398012" lon="107.37736">
<time>2016-10-06T17:52:48Z</time></trkpt>
<trkpt lat="24.397872" lon="107.37737">
<time>2016-10-06T17:52:49Z</time></trkpt>
<trkpt lat="24.397771" lon="107.37738">
<time>2016-10-06T17:52:50Z</time></trkpt>
<trkpt lat="24.397691" lon="107.37741">
<time>2016-10-06T17:52:51Z</time></trkpt>
<trkpt lat="24.397631" lon="107.37745">
<time>2016-10-06T17:52:52Z</time></trkpt>
<trkpt lat="24.397551" lon="107.37749">
<time>2016-10-06T17:52:53Z</time></trkpt>
<trkpt lat="24.397471" lon="107.37756">
<time>2016-10-06T17:52:54Z</time></trkpt>
<trkpt lat="24.397301" lon="107.377719">
<time>2016-10-06T17:52:55Z</time></trkpt>
<trkpt lat="24.396871" lon="107.378199">
<time>2016-10-06T17:52:56Z</time></trkpt>
<trkpt lat="24.39654" lon="107.378568">
<time>2016-10-06T17:52:57Z</time></trkpt>
<trkpt lat="24.395279" lon="107.379967">
<time>2016-10-06T17:52:58Z</time></trkpt>
<trkpt lat="24.394958" lon="107.380297">
<time>2016-10-06T17:52:59Z</time></trkpt>
<trkpt lat="24.394808" lon="107.380436">
<time>2016-10-06T17:53:00Z</time></trkpt>
<trkpt lat="24.394748" lon="107.380486">
<time>2016-10-06T17:53:01Z</time></trkpt>
<trkpt lat="24.394668" lon="107.380536">
<time>2016-10-06T17:53:02Z</time></trkpt>
<trkpt lat="24.394578" lon="107.380566">
<time>2016-10-06T17:53:03Z</time></trkpt>
<trkpt lat="24.394478" lon="107.380586">
<time>2016-10-06T17:53:04Z</time></trkpt>
<trkpt lat="24.394398" lon="107.380596">
<time>2016-10-06T17:53:05Z</time></trkpt>
<trkpt lat="24.394298" lon="107.380596">
<time>2016-10-06T17:53:06Z</time></trkpt>
<trkpt lat="24.394208" lon="107.380576">
<time>2016-10-06T17:53:07Z</time></trkpt>
<trkpt lat="24.394128" lon="107.380556">
<time>2016-10-06T17:53:08Z</time></trkpt>
<trkpt lat="24.394048" lon="107.380516">
<time>2016-10-06T17:53:09Z</time></trkpt>
<trkpt lat="24.393958" lon="107.380446">
<time>2016-10-06T17:53:10Z</time></trkpt>
<trkpt lat="24.393878" lon="107.380377">
<time>2016-10-06T17:53:11Z</time></trkpt>
<trkpt lat="24.393508" lon="107.379967">
<time>2016-10-06T17:53:12Z</time></trkpt>
<trkpt lat="24.393388" lon="107.379847">
<time>2016-10-06T17:53:13Z</time></trkpt>
<trkpt lat="24.393288" lon="107.379767">
<time>2016-10-06T17:53:14Z</time></trkpt>
<trkpt lat="24.393228" lon="107.379727">
<time>2016-10-06T17:53:15Z</time></trkpt>
<trkpt lat="24.393158" lon="107.379687">
<time>2016-10-06T17:53:16Z</time></trkpt>
<trkpt lat="24.393068" lon="107.379657">
<time>2016-10-06T17:53:17Z</time></trkpt>
<trkpt lat="24.392978" lon="107.379637">
<time>2016-10-06T17:53:18Z</time></trkpt>
<trkpt lat="24.392878" lon="107.379617">
<time>2016-10-06T17:53:19Z</time></trkpt>
<trkpt lat="24.392798" lon="107.379607">
<time>2016-10-06T17:53:20Z</time></trkpt>
<trkpt lat="24.392698" lon="107.379617">
<time>2016-10-06T17:53:21Z</time></trkpt>
<trkpt lat="24.392558" lon="107.379637">
<time>2016-10-06T17:53:22Z</time></trkpt>
<trkpt lat="24.392438" lon="107.379667">
<time>2016-10-06T17:53:23Z</time></trkpt>
<trkpt lat="24.392338" lon="107.379707">
<time>2016-10-06T17:53:24Z</time></trkpt>
<trkpt lat="24.391188" lon="107.380187">
<time>2016-10-06T17:53:25Z</time></trkpt>
<trkpt lat="24.389717" lon="107.380856">
<time>2016-10-06T17:53:26Z</time></trkpt>
<trkpt lat="24.389126" lon="107.381146">
<time>2016-10-06T17:53:27Z</time></trkpt>
<trkpt lat="24.388836" lon="107.381326">
<time>2016-10-06T17:53:28Z</time></trkpt>
<trkpt lat="24.388126" lon="107.381785">
<time>2016-10-06T17:53:29Z</time></trkpt>
<trkpt lat="24.387745" lon="107.382025">
<time>2016-10-06T17:53:30Z</time></trkpt>
<trkpt lat="24.387225" lon="107.382345">
<time>2016-10-06T17:53:31Z</time></trkpt>
<trkpt lat="24.386885" lon="107.382515">
<time>2016-10-06T17:53:32Z</time></trkpt>
<trkpt lat="24.386605" lon="107.382644">
<time>2016-10-06T17:53:33Z</time></trkpt>
<trkpt lat="24.386215" lon="107.382784">
<time>2016-10-06T17:53:34Z</time></trkpt>
<trkpt lat="24.385724" lon="107.382904">
<time>2016-10-06T17:53:35Z</time></trkpt>
<trkpt lat="24.385144" lon="107.383004">
<time>2016-10-06T17:53:36Z</time></trkpt>
<trkpt lat="24.384264" lon="107.383154">
<time>2016-10-06T17:53:37Z</time></trkpt>
<trkpt lat="24.383343" lon="107.383374">
<time>2016-10-06T17:53:38Z</time></trkpt>
<trkpt lat="24.381643" lon="107.383943">
<time>2016-10-06T17:53:39Z</time></trkpt>
<trkpt lat="24.381312" lon="107.384043">
<time>2016-10-06T17:53:40Z</time></trkpt>
<trkpt lat="24.381122" lon="107.384073">
<time>2016-10-06T17:53:41Z</time></trkpt>
<trkpt lat="24.380962" lon="107.384093">
<time>2016-10-06T17:53:42Z</time></trkpt>
<trkpt lat="24.380882" lon="107.384083">
<time>2016-10-06T17:53:43Z</time></trkpt>
<trkpt lat="24.380792" lon="107.384073">
<time>2016-10-06T17:53:44Z</time></trkpt>
<trkpt lat="24.380662" lon="107.384033">
<time>2016-10-06T17:53:45Z</time></trkpt>
<trkpt lat="24.380492" lon="107.383944">
<time>2016-10-06T17:53:46Z</time></trkpt>
<trkpt lat="24.380282" lon="107.383814">
<time>2016-10-06T17:53:47Z</time></trkpt>
<trkpt lat="24.380062" lon="107.383684">
<time>2016-10-06T17:53:48Z</time></trkpt>
<trkpt lat="24.379882" lon="107.383604">
<time>2016-10-06T17:53:49Z</time></trkpt>
<trkpt lat="24.379742" lon="107.383554">
<time>2016-10-06T17:53:50Z</time></trkpt>
<trkpt lat="24.379662" lon="107.383534">
<time>2016-10-06T17:53:51Z</time></trkpt>
<trkpt lat="24.379542" lon="107.383524">
<time>2016-10-06T17:53:52Z</time></trkpt>
<trkpt lat="24.379422" lon="107.383514">
<time>2016-10-06T17:53:53Z</time></trkpt>
<trkpt lat="24.378572" lon="107.383504">
<time>2016-10-06T17:53:54Z</time></trkpt>
<trkpt lat="24.377602" lon="107.383504">
<time>2016-10-06T17:53:55Z</time></trkpt>
<trkpt lat="24.377292" lon="107.383524">
<time>2016-10-06T17:53:56Z</time></trkpt>
<trkpt lat="24.376972" lon="107.383584">
<time>2016-10-06T17:53:57Z</time></trkpt>
<trkpt lat="24.376161" lon="107.383774">
<time>2016-10-06T17:53:58Z</time></trkpt>
<trkpt lat="24.375741" lon="107.383844">
<time>2016-10-06T17:53:59Z</time></trkpt>
<trkpt lat="24.375481" lon="107.383864">
<time>2016-10-06T17:54:00Z</time></trkpt>
<trkpt lat="24.375251" lon="107.383884">
<time>2016-10-06T17:54:01Z</time></trkpt>
<trkpt lat="24.375021" lon="107.383874">
<time>2016-10-06T17:54:02Z</time></trkpt>
<trkpt lat="24.374881" lon="107.383854">
<time>2016-10-06T17:54:03Z</time></trkpt>
<trkpt lat="24.374761" lon="107.383824">
<time>2016-10-06T17:54:04Z</time></trkpt>
<trkpt lat="24.374631" lon="107.383774">
<time>2016-10-06T17:54:05Z</time></trkpt>
<trkpt lat="24.374521" lon="107.383714">
<time>2016-10-06T17:54:06Z</time></trkpt>
<trkpt lat="24.374441" lon="107.383664">
<time>2016-10-06T17:54:07Z</time></trkpt>
<trkpt lat="24.374361" lon="107.383594">
<time>2016-10-06T17:54:08Z</time></trkpt>
<trkpt lat="24.374241" lon="107.383464">
<time>2016-10-06T17:54:09Z</time></trkpt>
<trkpt lat="24.373921" lon="107.383075">
<time>2016-10-06T17:54:10Z</time></trkpt>
<trkpt lat="24.373821" lon="107.382975">
<time>2016-10-06T17:54:11Z</time></trkpt>
<trkpt lat="24.373771" lon="107.382925">
<time>2016-10-06T17:54:12Z</time></trkpt>
<trkpt lat="24.373691" lon="107.382885">
<time>2016-10-06T17:54:13Z</time></trkpt>
<trkpt lat="24.373621" lon="107.382835">
<time>2016-10-06T17:54:14Z</time></trkpt>
<trkpt lat="24.373541" lon="107.382815">
<time>2016-10-06T17:54:15Z</time></trkpt>
<trkpt lat="24.373471" lon="107.382795">
<time>2016-10-06T17:54:16Z</time></trkpt>
<trkpt lat="24.373381" lon="107.382775">
<time>2016-10-06T17:54:17Z</time></trkpt>
<trkpt lat="24.373301" lon="107.382775">
<time>2016-10-06T17:54:18Z</time></trkpt>
<trkpt lat="24.373201" lon="107.382795">
<time>2016-10-06T17:54:19Z</time></trkpt>
<trkpt lat="24.373091" lon="107.382835">
<time>2016-10-06T17:54:20Z</time></trkpt>
<trkpt lat="24.372971" lon="107.382905">
<time>2016-10-06T17:54:21Z</time></trkpt>
<trkpt lat="24.372841" lon="107.383015">
<time>2016-10-06T17:54:22Z</time></trkpt>
<trkpt lat="24.372651" lon="107.383205">
<time>2016-10-06T17:54:23Z</time></trkpt>
<trkpt lat="24.372511" lon="107.383335">
<time>2016-10-06T17:54:24Z</time></trkpt>
<trkpt lat="24.37236" lon="107.383444">
<time>2016-10-06T17:54:25Z</time></trkpt>
<trkpt lat="24.3723" lon="107.383474">
<time>2016-10-06T17:54:26Z</time></trkpt>
<trkpt lat="24.37223" lon="107.383504">
<time>2016-10-06T17:54:27Z</time></trkpt>
<trkpt lat="24.37215" lon="107.383514">
<time>2016-10-06T17:54:28Z</time></trkpt>
<trkpt lat="24.37207" lon="107.383524">
<time>2016-10-06T17:54:29Z</time></trkpt>
<trkpt lat="24.372" lon="107.383514">
<time>2016-10-06T17:54:30Z</time></trkpt>
<trkpt lat="24.37192" lon="107.383504">
<time>2016-10-06T17:54:31Z</time></trkpt>
<trkpt lat="24.37184" lon="107.383484">
<time>2016-10-06T17:54:32Z</time></trkpt>
<trkpt lat="24.37177" lon="107.383464">
<time>2016-10-06T17:54:33Z</time></trkpt>
<trkpt lat="24.37172" lon="107.383435">
<time>2016-10-06T17:54:34Z</time></trkpt>
<trkpt lat="24.37156" lon="107.383335">
<time>2016-10-06T17:54:35Z</time></trkpt>
<trkpt lat="24.37129" lon="107.383145">
<time>2016-10-06T17:54:36Z</time></trkpt>
<trkpt lat="24.37109" lon="107.383035">
<time>2016-10-06T17:54:37Z</time></trkpt>
<trkpt lat="24.37097" lon="107.382985">
<time>2016-10-06T17:54:38Z</time></trkpt>
<trkpt lat="24.37083" lon="107.382955">
<time>2016-10-06T17:54:39Z</time></trkpt>
<trkpt lat="24.37071" lon="107.382935">
<time>2016-10-06T17:54:40Z</time></trkpt>
<trkpt lat="24.37058" lon="107.382935">
<time>2016-10-06T17:54:41Z</time></trkpt>
<trkpt lat="24.37047" lon="107.382955">
<time>2016-10-06T17:54:42Z</time></trkpt>
<trkpt lat="24.37032" lon="107.382995">
<time>2016-10-06T17:54:43Z</time></trkpt>
<trkpt lat="24.36997" lon="107.383125">
<time>2016-10-06T17:54:44Z</time></trkpt>
<trkpt lat="24.36941" lon="107.383365">
<time>2016-10-06T17:54:45Z</time></trkpt>
<trkpt lat="24.36913" lon="107.383465">
<time>2016-10-06T17:54:46Z</time></trkpt>
<trkpt lat="24.368989" lon="107.383495">
<time>2016-10-06T17:54:47Z</time></trkpt>
<trkpt lat="24.368849" lon="107.383505">
<time>2016-10-06T17:54:48Z</time></trkpt>
<trkpt lat="24.368739" lon="107.383505">
<time>2016-10-06T17:54:49Z</time></trkpt>
<trkpt lat="24.368619" lon="107.383495">
<time>2016-10-06T17:54:50Z</time></trkpt>
<trkpt lat="24.368549" lon="107.383475">
<time>2016-10-06T17:54:51Z</time></trkpt>
<trkpt lat="24.368459" lon="107.383445">
<time>2016-10-06T17:54:52Z</time></trkpt>
<trkpt lat="24.368349" lon="107.383375">
<time>2016-10-06T17:54:53Z</time></trkpt>
<trkpt lat="24.368239" lon="107.383295">
<time>2016-10-06T17:54:54Z</time></trkpt>
<trkpt lat="24.368029" lon="107.383125">
<time>2016-10-06T17:54:55Z</time></trkpt>
<trkpt lat="24.367839" lon="107.382965">
<time>2016-10-06T17:54:56Z</time></trkpt>
<trkpt lat="24.36772" lon="107.382875">
<time>2016-10-06T17:54:57Z</time></trkpt>
<trkpt lat="24.36758" lon="107.382805">
<time>2016-10-06T17:54:58Z</time></trkpt>
<trkpt lat="24.36743" lon="107.382765">
<time>2016-10-06T17:54:59Z</time></trkpt>
<trkpt lat="24.367309" lon="107.382755">
<time>2016-10-06T17:55:00Z</time></trkpt>
<trkpt lat="24.367159" lon="107.382765">
<time>2016-10-06T17:55:01Z</time></trkpt>
<trkpt lat="24.367019" lon="107.382785">
<time>2016-10-06T17:55:02Z</time></trkpt>
<trkpt lat="24.366669" lon="107.382895">
<time>2016-10-06T17:55:03Z</time></trkpt>
<trkpt lat="24.366559" lon="107.382915">
<time>2016-10-06T17:55:04Z</time></trkpt>
<trkpt lat="24.366439" lon="107.382935">
<time>2016-10-06T17:55:05Z</time></trkpt>
<trkpt lat="24.366369" lon="107.382945">
<time>2016-10-06T17:55:06Z</time></trkpt>
<trkpt lat="24.366299" lon="107.382945">
<time>2016-10-06T17:55:07Z</time></trkpt>
<trkpt lat="24.366219" lon="107.382935">
<time>2016-10-06T17:55:08Z</time></trkpt>
<trkpt lat="24.366149" lon="107.382915">
<time>2016-10-06T17:55:09Z</time></trkpt>
<trkpt lat="24.366099" lon="107.382895">
<time>2016-10-06T17:55:10Z</time></trkpt>
<trkpt lat="24.366009" lon="107.382845">
<time>2016-10-06T17:55:11Z</time></trkpt>
<trkpt lat="24.365899" lon="107.382766">
<time>2016-10-06T17:55:12Z</time></trkpt>
<trkpt lat="24.365599" lon="107.382506">
<time>2016-10-06T17:55:13Z</time></trkpt>
<trkpt lat="24.365539" lon="107.382456">
<time>2016-10-06T17:55:14Z</time></trkpt>
<trkpt lat="24.365459" lon="107.382406">
<time>2016-10-06T17:55:15Z</time></trkpt>
<trkpt lat="24.365359" lon="107.382366">
<time>2016-10-06T17:55:16Z</time></trkpt>
<trkpt lat="24.365259" lon="107.382336">
<time>2016-10-06T17:55:17Z</time></trkpt>
<trkpt lat="24.365179" lon="107.382326">
<time>2016-10-06T17:55:18Z</time></trkpt>
<trkpt lat="24.365109" lon="107.382326">
<time>2016-10-06T17:55:19Z</time></trkpt>
<trkpt lat="24.365039" lon="107.382336">
<time>2016-10-06T17:55:20Z</time></trkpt>
<trkpt lat="24.364929" lon="107.382366">
<time>2016-10-06T17:55:21Z</time></trkpt>
<trkpt lat="24.364729" lon="107.382436">
<time>2016-10-06T17:55:22Z</time></trkpt>
<trkpt lat="24.364619" lon="107.382466">
<time>2016-10-06T17:55:23Z</time></trkpt>
<trkpt lat="24.364499" lon="107.382486">
<time>2016-10-06T17:55:24Z</time></trkpt>
<trkpt lat="24.364349" lon="107.382486">
<time>2016-10-06T17:55:25Z</time></trkpt>
<trkpt lat="24.364259" lon="107.382476">
<time>2016-10-06T17:55:26Z</time></trkpt>
<trkpt lat="24.364139" lon="107.382446">
<time>2016-10-06T17:55:27Z</time></trkpt>
<trkpt lat="24.364059" lon="107.382406">
<time>2016-10-06T17:55:28Z</time></trkpt>
<trkpt lat="24.363949" lon="107.382326">
<time>2016-10-06T17:55:29Z</time></trkpt>
<trkpt lat="24.363799" lon="107.382196">
<time>2016-10-06T17:55:30Z</time></trkpt>
<trkpt lat="24.363609" lon="107.382026">
<time>2016-10-06T17:55:31Z</time></trkpt>
<trkpt lat="24.363489" lon="107.381937">
<time>2016-10-06T17:55:32Z</time></trkpt>
<trkpt lat="24.363359" lon="107.381867">
<time>2016-10-06T17:55:33Z</time></trkpt>
<trkpt lat="24.363229" lon="107.381827">
<time>2016-10-06T17:55:34Z</time></trkpt>
<trkpt lat="24.363069" lon="107.381797">
<time>2016-10-06T17:55:35Z</time></trkpt>
<trkpt lat="24.362859" lon="107.381787">
<time>2016-10-06T17:55:36Z</time></trkpt>
<trkpt lat="24.362609" lon="107.381787">
<time>2016-10-06T17:55:37Z</time></trkpt>
<trkpt lat="24.362289" lon="107.381817">
<time>2016-10-06T17:55:38Z</time></trkpt>
<trkpt lat="24.362049" lon="107.381867">
<time>2016-10-06T17:55:39Z</time></trkpt>
<trkpt lat="24.361849" lon="107.381927">
<time>2016-10-06T17:55:40Z</time></trkpt>
<trkpt lat="24.361578" lon="107.382037">
<time>2016-10-06T17:55:41Z</time></trkpt>
<trkpt lat="24.357616" lon="107.384035">
<time>2016-10-06T17:55:42Z</time></trkpt>
<trkpt lat="24.357296" lon="107.384145">
<time>2016-10-06T17:55:43Z</time></trkpt>
<trkpt lat="24.356876" lon="107.384265">
<time>2016-10-06T17:55:44Z</time></trkpt>
<trkpt lat="24.356455" lon="107.384354">
<time>2016-10-06T17:55:45Z</time></trkpt>
<trkpt lat="24.356045" lon="107.384394">
<time>2016-10-06T17:55:46Z</time></trkpt>
<trkpt lat="24.355505" lon="107.384404">
<time>2016-10-06T17:55:47Z</time></trkpt>
<trkpt lat="24.353024" lon="107.384365">
<time>2016-10-06T17:55:48Z</time></trkpt>
<trkpt lat="24.349013" lon="107.384295">
<time>2016-10-06T17:55:49Z</time></trkpt>
<trkpt lat="24.348503" lon="107.384275">
<time>2016-10-06T17:55:50Z</time></trkpt>
<trkpt lat="24.347993" lon="107.384305">
<time>2016-10-06T17:55:51Z</time></trkpt>
<trkpt lat="24.347473" lon="107.384405">
<time>2016-10-06T17:55:52Z</time></trkpt>
<trkpt lat="24.347193" lon="107.384465">
<time>2016-10-06T17:55:53Z</time></trkpt>
<trkpt lat="24.346833" lon="107.384575">
<time>2016-10-06T17:55:54Z</time></trkpt>
<trkpt lat="24.345982" lon="107.384964">
<time>2016-10-06T17:55:55Z</time></trkpt>
<trkpt lat="24.344651" lon="107.385804">
<time>2016-10-06T17:55:56Z</time></trkpt>
<trkpt lat="24.344101" lon="107.386164">
<time>2016-10-06T17:55:57Z</time></trkpt>
<trkpt lat="24.343891" lon="107.386323">
<time>2016-10-06T17:55:58Z</time></trkpt>
<trkpt lat="24.343791" lon="107.386413">
<time>2016-10-06T17:55:59Z</time></trkpt>
<trkpt lat="24.343701" lon="107.386503">
<time>2016-10-06T17:56:00Z</time></trkpt>
<trkpt lat="24.343691" lon="107.386513">
<time>2016-10-06T17:56:01Z</time></trkpt>
<trkpt lat="24.343601" lon="107.386643">
<time>2016-10-06T17:56:02Z</time></trkpt>
<trkpt lat="24.34353" lon="107.386753">
<time>2016-10-06T17:56:03Z</time></trkpt>
<trkpt lat="24.34346" lon="107.386903">
<time>2016-10-06T17:56:04Z</time></trkpt>
<trkpt lat="24.34341" lon="107.387053">
<time>2016-10-06T17:56:05Z</time></trkpt>
<trkpt lat="24.34333" lon="107.387303">
<time>2016-10-06T17:56:06Z</time></trkpt>
<trkpt lat="24.3432" lon="107.387822">
<time>2016-10-06T17:56:07Z</time></trkpt>
<trkpt lat="24.34315" lon="107.387972">
<time>2016-10-06T17:56:08Z</time></trkpt>
<trkpt lat="24.34312" lon="107.388062">
<time>2016-10-06T17:56:09Z</time></trkpt>
<trkpt lat="24.34307" lon="107.388162">
<time>2016-10-06T17:56:10Z</time></trkpt>
<trkpt lat="24.343" lon="107.388282">
<time>2016-10-06T17:56:11Z</time></trkpt>
<trkpt lat="24.34294" lon="107.388362">
<time>2016-10-06T17:56:12Z</time></trkpt>
<trkpt lat="24.342799" lon="107.388502">
<time>2016-10-06T17:56:13Z</time></trkpt>
<trkpt lat="24.342659" lon="107.388602">
<time>2016-10-06T17:56:14Z</time></trkpt>
<trkpt lat="24.342539" lon="107.388662">
<time>2016-10-06T17:56:15Z</time></trkpt>
<trkpt lat="24.342459" lon="107.388692">
<time>2016-10-06T17:56:16Z</time></trkpt>
<trkpt lat="24.342289" lon="107.388712">
<time>2016-10-06T17:56:17Z</time></trkpt>
<trkpt lat="24.342169" lon="107.388712">
<time>2016-10-06T17:56:18Z</time></trkpt>
<trkpt lat="24.342049" lon="107.388702">
<time>2016-10-06T17:56:19Z</time></trkpt>
<trkpt lat="24.341949" lon="107.388672">
<time>2016-10-06T17:56:20Z</time></trkpt>
<trkpt lat="24.341839" lon="107.388632">
<time>2016-10-06T17:56:21Z</time></trkpt>
<trkpt lat="24.341739" lon="107.388572">
<time>2016-10-06T17:56:22Z</time></trkpt>
<trkpt lat="24.341629" lon="107.388492">
<time>2016-10-06T17:56:23Z</time></trkpt>
<trkpt lat="24.341519" lon="107.388392">
<time>2016-10-06T17:56:24Z</time></trkpt>
<trkpt lat="24.341409" lon="107.388262">
<time>2016-10-06T17:56:25Z</time></trkpt>
<trkpt lat="24.341159" lon="107.387922">
<time>2016-10-06T17:56:26Z</time></trkpt>
<trkpt lat="24.340969" lon="107.387672">
<time>2016-10-06T17:56:27Z</time></trkpt>
<trkpt lat="24.340829" lon="107.387503">
<time>2016-10-06T17:56:28Z</time></trkpt>
<trkpt lat="24.340699" lon="107.387373">
<time>2016-10-06T17:56:29Z</time></trkpt>
<trkpt lat="24.340599" lon="107.387283">
<time>2016-10-06T17:56:30Z</time></trkpt>
<trkpt lat="24.340549" lon="107.387233">
<time>2016-10-06T17:56:31Z</time></trkpt>
<trkpt lat="24.340429" lon="107.387153">
<time>2016-10-06T17:56:32Z</time></trkpt>
<trkpt lat="24.340259" lon="107.387053">
<time>2016-10-06T17:56:33Z</time></trkpt>
<trkpt lat="24.340099" lon="107.386973">
<time>2016-10-06T17:56:34Z</time></trkpt>
<trkpt lat="24.339839" lon="107.386873">
<time>2016-10-06T17:56:35Z</time></trkpt>
<trkpt lat="24.339519" lon="107.386793">
<time>2016-10-06T17:56:36Z</time></trkpt>
<trkpt lat="24.339299" lon="107.386743">
<time>2016-10-06T17:56:37Z</time></trkpt>
<trkpt lat="24.339109" lon="107.386723">
<time>2016-10-06T17:56:38Z</time></trkpt>
<trkpt lat="24.338969" lon="107.386723">
<time>2016-10-06T17:56:39Z</time></trkpt>
<trkpt lat="24.338869" lon="107.386743">
<time>2016-10-06T17:56:40Z</time></trkpt>
<trkpt lat="24.338749" lon="107.386773">
<time>2016-10-06T17:56:41Z</time></trkpt>
<trkpt lat="24.338619" lon="107.386833">
<time>2016-10-06T17:56:42Z</time></trkpt>
<trkpt lat="24.338509" lon="107.386903">
<time>2016-10-06T17:56:43Z</time></trkpt>
<trkpt lat="24.338409" lon="107.386993">
<time>2016-10-06T17:56:44Z</time></trkpt>
<trkpt lat="24.338309" lon="107.387093">
<time>2016-10-06T17:56:45Z</time></trkpt>
<trkpt lat="24.338179" lon="107.387263">
<time>2016-10-06T17:56:46Z</time></trkpt>
<trkpt lat="24.336517" lon="107.389711">
<time>2016-10-06T17:56:47Z</time></trkpt>
<trkpt lat="24.336257" lon="107.390061">
<time>2016-10-06T17:56:48Z</time></trkpt>
<trkpt lat="24.336177" lon="107.390141">
<time>2016-10-06T17:56:49Z</time></trkpt>
<trkpt lat="24.336087" lon="107.390211">
<time>2016-10-06T17:56:50Z</time></trkpt>
<trkpt lat="24.336007" lon="107.390251">
<time>2016-10-06T17:56:51Z</time></trkpt>
<trkpt lat="24.335907" lon="107.390281">
<time>2016-10-06T17:56:52Z</time></trkpt>
<trkpt lat="24.335817" lon="107.390301">
<time>2016-10-06T17:56:53Z</time></trkpt>
<trkpt lat="24.335727" lon="107.390301">
<time>2016-10-06T17:56:54Z</time></trkpt>
<trkpt lat="24.335647" lon="107.390281">
<time>2016-10-06T17:56:55Z</time></trkpt>
<trkpt lat="24.335557" lon="107.390241">
<time>2016-10-06T17:56:56Z</time></trkpt>
<trkpt lat="24.335437" lon="107.390171">
<time>2016-10-06T17:56:57Z</time></trkpt>
<trkpt lat="24.335327" lon="107.390051">
<time>2016-10-06T17:56:58Z</time></trkpt>
<trkpt lat="24.335257" lon="107.389951">
<time>2016-10-06T17:56:59Z</time></trkpt>
<trkpt lat="24.335207" lon="107.389831">
<time>2016-10-06T17:57:00Z</time></trkpt>
<trkpt lat="24.335167" lon="107.389721">
<time>2016-10-06T17:57:01Z</time></trkpt>
<trkpt lat="24.335137" lon="107.389611">
<time>2016-10-06T17:57:02Z</time></trkpt>
<trkpt lat="24.335127" lon="107.389491">
<time>2016-10-06T17:57:03Z</time></trkpt>
<trkpt lat="24.335127" lon="107.389331">
<time>2016-10-06T17:57:04Z</time></trkpt>
<trkpt lat="24.335137" lon="107.389112">
<time>2016-10-06T17:57:05Z</time></trkpt>
<trkpt lat="24.335217" lon="107.388722">
<time>2016-10-06T17:57:06Z</time></trkpt>
<trkpt lat="24.335247" lon="107.388502">
<time>2016-10-06T17:57:07Z</time></trkpt>
<trkpt lat="24.335267" lon="107.388312">
<time>2016-10-06T17:57:08Z</time></trkpt>
<trkpt lat="24.335257" lon="107.388112">
<time>2016-10-06T17:57:09Z</time></trkpt>
<trkpt lat="24.335237" lon="107.387933">
<time>2016-10-06T17:57:10Z</time></trkpt>
<trkpt lat="24.335187" lon="107.387783">
<time>2016-10-06T17:57:11Z</time></trkpt>
<trkpt lat="24.335118" lon="107.387593">
<time>2016-10-06T17:57:12Z</time></trkpt>
<trkpt lat="24.335028" lon="107.387443">
<time>2016-10-06T17:57:13Z</time></trkpt>
<trkpt lat="24.334938" lon="107.387313">
<time>2016-10-06T17:57:14Z</time></trkpt>
<trkpt lat="24.334788" lon="107.387153">
<time>2016-10-06T17:57:15Z</time></trkpt>
<trkpt lat="24.334708" lon="107.387093">
<time>2016-10-06T17:57:16Z</time></trkpt>
<trkpt lat="24.334618" lon="107.387043">
<time>2016-10-06T17:57:17Z</time></trkpt>
<trkpt lat="24.334518" lon="107.387013">
<time>2016-10-06T17:57:18Z</time></trkpt>
<trkpt lat="24.334428" lon="107.386993">
<time>2016-10-06T17:57:19Z</time></trkpt>
<trkpt lat="24.334338" lon="107.386993">
<time>2016-10-06T17:57:20Z</time></trkpt>
<trkpt lat="24.334238" lon="107.387003">
<time>2016-10-06T17:57:21Z</time></trkpt>
<trkpt lat="24.334147" lon="107.387033">
<time>2016-10-06T17:57:22Z</time></trkpt>
<trkpt lat="24.334037" lon="107.387093">
<time>2016-10-06T17:57:23Z</time></trkpt>
<trkpt lat="24.333957" lon="107.387163">
<time>2016-10-06T17:57:24Z</time></trkpt>
<trkpt lat="24.333867" lon="107.387233">
<time>2016-10-06T17:57:25Z</time></trkpt>
<trkpt lat="24.333767" lon="107.387373">
<time>2016-10-06T17:57:26Z</time></trkpt>
<trkpt lat="24.333537" lon="107.387723">
<time>2016-10-06T17:57:27Z</time></trkpt>
<trkpt lat="24.333447" lon="107.387853">
<time>2016-10-06T17:57:28Z</time></trkpt>
<trkpt lat="24.333407" lon="107.387903">
<time>2016-10-06T17:57:29Z</time></trkpt>
<trkpt lat="24.333337" lon="107.387973">
<time>2016-10-06T17:57:30Z</time></trkpt>
<trkpt lat="24.333237" lon="107.388073">
<time>2016-10-06T17:57:31Z</time></trkpt>
<trkpt lat="24.333207" lon="107.388103">
<time>2016-10-06T17:57:32Z</time></trkpt>
<trkpt lat="24.333087" lon="107.388182">
<time>2016-10-06T17:57:33Z</time></trkpt>
<trkpt lat="24.332917" lon="107.388272">
<time>2016-10-06T17:57:34Z</time></trkpt>
<trkpt lat="24.332716" lon="107.388342">
<time>2016-10-06T17:57:35Z</time></trkpt>
<trkpt lat="24.332436" lon="107.388432">
<time>2016-10-06T17:57:36Z</time></trkpt>
<trkpt lat="24.331886" lon="107.388572">
<time>2016-10-06T17:57:37Z</time></trkpt>
<trkpt lat="24.330045" lon="107.389032">
<time>2016-10-06T17:57:38Z</time></trkpt>
<trkpt lat="24.329605" lon="107.389162">
<time>2016-10-06T17:57:39Z</time></trkpt>
<trkpt lat="24.329475" lon="107.389192">
<time>2016-10-06T17:57:40Z</time></trkpt>
<trkpt lat="24.329375" lon="107.389222">
<time>2016-10-06T17:57:41Z</time></trkpt>
<trkpt lat="24.329275" lon="107.389242">
<time>2016-10-06T17:57:42Z</time></trkpt>
<trkpt lat="24.327534" lon="107.389692">
<time>2016-10-06T17:57:43Z</time></trkpt>
<trkpt lat="24.325664" lon="107.390111">
<time>2016-10-06T17:57:44Z</time></trkpt>
<trkpt lat="24.324403" lon="107.390431">
<time>2016-10-06T17:57:45Z</time></trkpt>
<trkpt lat="24.323703" lon="107.390651">
<time>2016-10-06T17:57:46Z</time></trkpt>
<trkpt lat="24.323363" lon="107.390771">
<time>2016-10-06T17:57:47Z</time></trkpt>
<trkpt lat="24.323203" lon="107.390811">
<time>2016-10-06T17:57:48Z</time></trkpt>
<trkpt lat="24.323043" lon="107.390851">
<time>2016-10-06T17:57:49Z</time></trkpt>
<trkpt lat="24.322853" lon="107.390881">
<time>2016-10-06T17:57:50Z</time></trkpt>
<trkpt lat="24.322532" lon="107.390901">
<time>2016-10-06T17:57:51Z</time></trkpt>
<trkpt lat="24.322332" lon="107.390891">
<time>2016-10-06T17:57:52Z</time></trkpt>
<trkpt lat="24.322172" lon="107.390891">
<time>2016-10-06T17:57:53Z</time></trkpt>
<trkpt lat="24.320142" lon="107.390831">
<time>2016-10-06T17:57:54Z</time></trkpt>
<trkpt lat="24.318801" lon="107.390891">
<time>2016-10-06T17:57:55Z</time></trkpt>
<trkpt lat="24.317401" lon="107.390991">
<time>2016-10-06T17:57:56Z</time></trkpt>
<trkpt lat="24.317281" lon="107.391001">
<time>2016-10-06T17:57:57Z</time></trkpt>
<trkpt lat="24.313559" lon="107.391261">
<time>2016-10-06T17:57:58Z</time></trkpt>
<trkpt lat="24.313129" lon="107.391301">
<time>2016-10-06T17:57:59Z</time></trkpt>
<trkpt lat="24.312649" lon="107.391391">
<time>2016-10-06T17:58:00Z</time></trkpt>
<trkpt lat="24.312349" lon="107.391481">
<time>2016-10-06T17:58:01Z</time></trkpt>
<trkpt lat="24.312089" lon="107.391571">
<time>2016-10-06T17:58:02Z</time></trkpt>
<trkpt lat="24.311869" lon="107.391671">
<time>2016-10-06T17:58:03Z</time></trkpt>
<trkpt lat="24.311379" lon="107.391901">
<time>2016-10-06T17:58:04Z</time></trkpt>
<trkpt lat="24.311179" lon="107.392001">
<time>2016-10-06T17:58:05Z</time></trkpt>
<trkpt lat="24.309948" lon="107.392591">
<time>2016-10-06T17:58:06Z</time></trkpt>
<trkpt lat="24.308647" lon="107.393231">
<time>2016-10-06T17:58:07Z</time></trkpt>
<trkpt lat="24.308367" lon="107.39335">
<time>2016-10-06T17:58:08Z</time></trkpt>
<trkpt lat="24.308157" lon="107.39342">
<time>2016-10-06T17:58:09Z</time></trkpt>
<trkpt lat="24.307867" lon="107.39346">
<time>2016-10-06T17:58:10Z</time></trkpt>
<trkpt lat="24.307497" lon="107.39349">
<time>2016-10-06T17:58:11Z</time></trkpt>
<trkpt lat="24.307387" lon="107.3935">
<time>2016-10-06T17:58:12Z</time></trkpt>
<trkpt lat="24.306547" lon="107.393461">
<time>2016-10-06T17:58:13Z</time></trkpt>
<trkpt lat="24.305596" lon="107.393391">
<time>2016-10-06T17:58:14Z</time></trkpt>
<trkpt lat="24.305336" lon="107.393371">
<time>2016-10-06T17:58:15Z</time></trkpt>
<trkpt lat="24.305146" lon="107.393361">
<time>2016-10-06T17:58:16Z</time></trkpt>
<trkpt lat="24.304996" lon="107.393381">
<time>2016-10-06T17:58:17Z</time></trkpt>
<trkpt lat="24.304806" lon="107.393411">
<time>2016-10-06T17:58:18Z</time></trkpt>
<trkpt lat="24.304606" lon="107.393491">
<time>2016-10-06T17:58:19Z</time></trkpt>
<trkpt lat="24.304406" lon="107.393611">
<time>2016-10-06T17:58:20Z</time></trkpt>
<trkpt lat="24.304046" lon="107.39388">
<time>2016-10-06T17:58:21Z</time></trkpt>
<trkpt lat="24.303846" lon="107.39402">
<time>2016-10-06T17:58:22Z</time></trkpt>
<trkpt lat="24.303656" lon="107.39412">
<time>2016-10-06T17:58:23Z</time></trkpt>
<trkpt lat="24.303496" lon="107.39417">
<time>2016-10-06T17:58:24Z</time></trkpt>
<trkpt lat="24.303315" lon="107.3942">
<time>2016-10-06T17:58:25Z</time></trkpt>
<trkpt lat="24.303205" lon="107.39421">
<time>2016-10-06T17:58:26Z</time></trkpt>
<trkpt lat="24.303105" lon="107.39421">
<time>2016-10-06T17:58:27Z</time></trkpt>
<trkpt lat="24.302975" lon="107.39418">
<time>2016-10-06T17:58:28Z</time></trkpt>
<trkpt lat="24.302815" lon="107.39414">
<time>2016-10-06T17:58:29Z</time></trkpt>
<trkpt lat="24.302685" lon="107.39408">
<time>2016-10-06T17:58:30Z</time></trkpt>
<trkpt lat="24.302355" lon="107.393911">
<time>2016-10-06T17:58:31Z</time></trkpt>
<trkpt lat="24.301525" lon="107.393411">
<time>2016-10-06T17:58:32Z</time></trkpt>
<trkpt lat="24.301295" lon="107.393281">
<time>2016-10-06T17:58:33Z</time></trkpt>
<trkpt lat="24.301025" lon="107.393181">
<time>2016-10-06T17:58:34Z</time></trkpt>
<trkpt lat="24.300845" lon="107.393131">
<time>2016-10-06T17:58:35Z</time></trkpt>
<trkpt lat="24.300625" lon="107.393091">
<time>2016-10-06T17:58:36Z</time></trkpt>
<trkpt lat="24.300385" lon="107.393081">
<time>2016-10-06T17:58:37Z</time></trkpt>
<trkpt lat="24.299955" lon="107.393101">
<time>2016-10-06T17:58:38Z</time></trkpt>
<trkpt lat="24.298504" lon="107.393231">
<time>2016-10-06T17:58:39Z</time></trkpt>
<trkpt lat="24.297504" lon="107.393321">
<time>2016-10-06T17:58:40Z</time></trkpt>
<trkpt lat="24.297184" lon="107.393371">
<time>2016-10-06T17:58:41Z</time></trkpt>
<trkpt lat="24.296853" lon="107.393451">
<time>2016-10-06T17:58:42Z</time></trkpt>
<trkpt lat="24.296293" lon="107.393631">
<time>2016-10-06T17:58:43Z</time></trkpt>
<trkpt lat="24.295803" lon="107.393851">
<time>2016-10-06T17:58:44Z</time></trkpt>
<trkpt lat="24.294292" lon="107.394601">
<time>2016-10-06T17:58:45Z</time></trkpt>
<trkpt lat="24.293642" lon="107.394921">
<time>2016-10-06T17:58:46Z</time></trkpt>
<trkpt lat="24.293472" lon="107.39499">
<time>2016-10-06T17:58:47Z</time></trkpt>
<trkpt lat="24.293352" lon="107.39504">
<time>2016-10-06T17:58:48Z</time></trkpt>
<trkpt lat="24.293222" lon="107.39508">
<time>2016-10-06T17:58:49Z</time></trkpt>
<trkpt lat="24.293062" lon="107.39511">
<time>2016-10-06T17:58:50Z</time></trkpt>
<trkpt lat="24.292952" lon="107.39512">
<time>2016-10-06T17:58:51Z</time></trkpt>
<trkpt lat="24.292842" lon="107.39511">
<time>2016-10-06T17:58:52Z</time></trkpt>
<trkpt lat="24.292672" lon="107.39509">
<time>2016-10-06T17:58:53Z</time></trkpt>
<trkpt lat="24.292542" lon="107.395061">
<time>2016-10-06T17:58:54Z</time></trkpt>
<trkpt lat="24.292412" lon="107.395021">
<time>2016-10-06T17:58:55Z</time></trkpt>
<trkpt lat="24.290921" lon="107.394461">
<time>2016-10-06T17:58:56Z</time></trkpt>
<trkpt lat="24.290631" lon="107.394361">
<time>2016-10-06T17:58:57Z</time></trkpt>
<trkpt lat="24.290421" lon="107.394321">
<time>2016-10-06T17:58:58Z</time></trkpt>
<trkpt lat="24.290251" lon="107.394301">
<time>2016-10-06T17:58:59Z</time></trkpt>
<trkpt lat="24.290191" lon="107.394291">
<time>2016-10-06T17:59:00Z</time></trkpt>
<trkpt lat="24.290041" lon="107.394281">
<time>2016-10-06T17:59:01Z</time></trkpt>
<trkpt lat="24.28784" lon="107.394361">
<time>2016-10-06T17:59:02Z</time></trkpt>
<trkpt lat="24.28656" lon="107.394401">
<time>2016-10-06T17:59:03Z</time></trkpt>
<trkpt lat="24.28571" lon="107.394351">
<time>2016-10-06T17:59:04Z</time></trkpt>
<trkpt lat="24.284549" lon="107.394241">
<time>2016-10-06T17:59:05Z</time></trkpt>
<trkpt lat="24.284309" lon="107.394231">
<time>2016-10-06T17:59:06Z</time></trkpt>
<trkpt lat="24.284079" lon="107.394251">
<time>2016-10-06T17:59:07Z</time></trkpt>
<trkpt lat="24.283879" lon="107.394301">
<time>2016-10-06T17:59:08Z</time></trkpt>
<trkpt lat="24.283699" lon="107.394391">
<time>2016-10-06T17:59:09Z</time></trkpt>
<trkpt lat="24.283519" lon="107.394491">
<time>2016-10-06T17:59:10Z</time></trkpt>
<trkpt lat="24.283109" lon="107.394801">
<time>2016-10-06T17:59:11Z</time></trkpt>
<trkpt lat="24.282498" lon="107.395241">
<time>2016-10-06T17:59:12Z</time></trkpt>
<trkpt lat="24.282298" lon="107.395361">
<time>2016-10-06T17:59:13Z</time></trkpt>
<trkpt lat="24.282148" lon="107.395441">
<time>2016-10-06T17:59:14Z</time></trkpt>
<trkpt lat="24.281968" lon="107.395511">
<time>2016-10-06T17:59:15Z</time></trkpt>
<trkpt lat="24.281808" lon="107.395551">
<time>2016-10-06T17:59:16Z</time></trkpt>
<trkpt lat="24.281648" lon="107.395581">
<time>2016-10-06T17:59:17Z</time></trkpt>
<trkpt lat="24.281168" lon="107.395641">
<time>2016-10-06T17:59:18Z</time></trkpt>
<trkpt lat="24.280748" lon="107.395671">
<time>2016-10-06T17:59:19Z</time></trkpt>
<trkpt lat="24.280187" lon="107.395721">
<time>2016-10-06T17:59:20Z</time></trkpt>
<trkpt lat="24.279247" lon="107.395791">
<time>2016-10-06T17:59:21Z</time></trkpt>
<trkpt lat="24.278727" lon="107.395871">
<time>2016-10-06T17:59:22Z</time></trkpt>
<trkpt lat="24.278017" lon="107.396011">
<time>2016-10-06T17:59:23Z</time></trkpt>
<trkpt lat="24.276336" lon="107.396421">
<time>2016-10-06T17:59:24Z</time></trkpt>
<trkpt lat="24.272605" lon="107.397291">
<time>2016-10-06T17:59:25Z</time></trkpt>
<trkpt lat="24.271754" lon="107.397481">
<time>2016-10-06T17:59:26Z</time></trkpt>
<trkpt lat="24.271234" lon="107.397641">
<time>2016-10-06T17:59:27Z</time></trkpt>
<trkpt lat="24.270394" lon="107.398001">
<time>2016-10-06T17:59:28Z</time></trkpt>
<trkpt lat="24.269894" lon="107.398371">
<time>2016-10-06T17:59:29Z</time></trkpt>
<trkpt lat="24.269074" lon="107.39889">
<time>2016-10-06T17:59:30Z</time></trkpt>
<trkpt lat="24.268603" lon="107.39914">
<time>2016-10-06T17:59:31Z</time></trkpt>
<trkpt lat="24.268303" lon="107.39927">
<time>2016-10-06T17:59:32Z</time></trkpt>
<trkpt lat="24.267753" lon="107.39946">
<time>2016-10-06T17:59:33Z</time></trkpt>
<trkpt lat="24.267593" lon="107.39952">
<time>2016-10-06T17:59:34Z</time></trkpt>
<trkpt lat="24.266383" lon="107.39992">
<time>2016-10-06T17:59:35Z</time></trkpt>
<trkpt lat="24.265362" lon="107.40033">
<time>2016-10-06T17:59:36Z</time></trkpt>
<trkpt lat="24.264492" lon="107.40073">
<time>2016-10-06T17:59:37Z</time></trkpt>
<trkpt lat="24.263352" lon="107.40124">
<time>2016-10-06T17:59:38Z</time></trkpt>
<trkpt lat="24.263002" lon="107.4014">
<time>2016-10-06T17:59:39Z</time></trkpt>
<trkpt lat="24.262722" lon="107.40157">
<time>2016-10-06T17:59:40Z</time></trkpt>
<trkpt lat="24.262572" lon="107.40167">
<time>2016-10-06T17:59:41Z</time></trkpt>
<trkpt lat="24.262401" lon="107.40182">
<time>2016-10-06T17:59:42Z</time></trkpt>
<trkpt lat="24.262091" lon="107.40213">
<time>2016-10-06T17:59:43Z</time></trkpt>
<trkpt lat="24.261761" lon="107.4025">
<time>2016-10-06T17:59:44Z</time></trkpt>
<trkpt lat="24.261591" lon="107.40271">
<time>2016-10-06T17:59:45Z</time></trkpt>
<trkpt lat="24.261411" lon="107.40299">
<time>2016-10-06T17:59:46Z</time></trkpt>
<trkpt lat="24.261281" lon="107.40319">
<time>2016-10-06T17:59:47Z</time></trkpt>
<trkpt lat="24.261111" lon="107.40346">
<time>2016-10-06T17:59:48Z</time></trkpt>
<trkpt lat="24.260901" lon="107.40386">
<time>2016-10-06T17:59:49Z</time></trkpt>
<trkpt lat="24.260771" lon="107.40415">
<time>2016-10-06T17:59:50Z</time></trkpt>
<trkpt lat="24.260691" lon="107.40436">
<time>2016-10-06T17:59:51Z</time></trkpt>
<trkpt lat="24.260631" lon="107.40459">
<time>2016-10-06T17:59:52Z</time></trkpt>
<trkpt lat="24.260572" lon="107.40485">
<time>2016-10-06T17:59:53Z</time></trkpt>
<trkpt lat="24.260532" lon="107.40512">
<time>2016-10-06T17:59:54Z</time></trkpt>
<trkpt lat="24.260492" lon="107.40532">
<time>2016-10-06T17:59:55Z</time></trkpt>
<trkpt lat="24.260442" lon="107.40549">
<time>2016-10-06T17:59:56Z</time></trkpt>
<trkpt lat="24.260372" lon="107.4057">
<time>2016-10-06T17:59:57Z</time></trkpt>
<trkpt lat="24.260292" lon="107.40586">
<time>2016-10-06T17:59:58Z</time></trkpt>
<trkpt lat="24.260182" lon="107.40602">
<time>2016-10-06T17:59:59Z</time></trkpt>
<trkpt lat="24.260062" lon="107.40616">
<time>2016-10-06T18:00:00Z</time></trkpt>
<trkpt lat="24.259962" lon="107.40625">
<time>2016-10-06T18:00:01Z</time></trkpt>
<trkpt lat="24.259812" lon="107.40638">
<time>2016-10-06T18:00:02Z</time></trkpt>
<trkpt lat="24.256142" lon="107.408861">
<time>2016-10-06T18:00:03Z</time></trkpt>
<trkpt lat="24.255552" lon="107.409261">
<time>2016-10-06T18:00:04Z</time></trkpt>
<trkpt lat="24.254512" lon="107.409952">
<time>2016-10-06T18:00:05Z</time></trkpt>
<trkpt lat="24.254342" lon="107.410062">
<time>2016-10-06T18:00:06Z</time></trkpt>
<trkpt lat="24.250992" lon="107.412303">
<time>2016-10-06T18:00:07Z</time></trkpt>
<trkpt lat="24.250002" lon="107.412993">
<time>2016-10-06T18:00:08Z</time></trkpt>
<trkpt lat="24.249812" lon="107.413123">
<time>2016-10-06T18:00:09Z</time></trkpt>
<trkpt lat="24.249732" lon="107.413163">
<time>2016-10-06T18:00:10Z</time></trkpt>
<trkpt lat="24.249632" lon="107.413233">
<time>2016-10-06T18:00:11Z</time></trkpt>
<trkpt lat="24.249542" lon="107.413283">
<time>2016-10-06T18:00:12Z</time></trkpt>
<trkpt lat="24.249452" lon="107.413323">
<time>2016-10-06T18:00:13Z</time></trkpt>
<trkpt lat="24.249272" lon="107.413403">
<time>2016-10-06T18:00:14Z</time></trkpt>
<trkpt lat="24.248832" lon="107.413513">
<time>2016-10-06T18:00:15Z</time></trkpt>
<trkpt lat="24.248702" lon="107.413543">
<time>2016-10-06T18:00:16Z</time></trkpt>
<trkpt lat="24.248432" lon="107.413593">
<time>2016-10-06T18:00:17Z</time></trkpt>
<trkpt lat="24.248322" lon="107.413613">
<time>2016-10-06T18:00:18Z</time></trkpt>
<trkpt lat="24.248141" lon="107.413643">
<time>2016-10-06T18:00:19Z</time></trkpt>
<trkpt lat="24.247821" lon="107.413713">
<time>2016-10-06T18:00:20Z</time></trkpt>
<trkpt lat="24.247571" lon="107.413773">
<time>2016-10-06T18:00:21Z</time></trkpt>
<trkpt lat="24.247361" lon="107.413823">
<time>2016-10-06T18:00:22Z</time></trkpt>
<trkpt lat="24.247251" lon="107.413863">
<time>2016-10-06T18:00:23Z</time></trkpt>
<trkpt lat="24.247111" lon="107.413913">
<time>2016-10-06T18:00:24Z</time></trkpt>
<trkpt lat="24.246871" lon="107.414044">
<time>2016-10-06T18:00:25Z</time></trkpt>
<trkpt lat="24.246061" lon="107.414534">
<time>2016-10-06T18:00:26Z</time></trkpt>
<trkpt lat="24.245301" lon="107.414994">
<time>2016-10-06T18:00:27Z</time></trkpt>
<trkpt lat="24.244372" lon="107.415565">
<time>2016-10-06T18:00:28Z</time></trkpt>
<trkpt lat="24.243682" lon="107.415985">
<time>2016-10-06T18:00:29Z</time></trkpt>
<trkpt lat="24.243652" lon="107.416005">
<time>2016-10-06T18:00:30Z</time></trkpt>
<trkpt lat="24.242852" lon="107.416495">
<time>2016-10-06T18:00:31Z</time></trkpt>
<trkpt lat="24.242632" lon="107.416635">
<time>2016-10-06T18:00:32Z</time></trkpt>
<trkpt lat="24.242402" lon="107.416765">
<time>2016-10-06T18:00:33Z</time></trkpt>
<trkpt lat="24.242182" lon="107.416895">
<time>2016-10-06T18:00:34Z</time></trkpt>
<trkpt lat="24.242032" lon="107.416996">
<time>2016-10-06T18:00:35Z</time></trkpt>
<trkpt lat="24.241832" lon="107.417126">
<time>2016-10-06T18:00:36Z</time></trkpt>
<trkpt lat="24.241542" lon="107.417346">
<time>2016-10-06T18:00:37Z</time></trkpt>
<trkpt lat="24.241232" lon="107.417586">
<time>2016-10-06T18:00:38Z</time></trkpt>
<trkpt lat="24.240772" lon="107.417996">
<time>2016-10-06T18:00:39Z</time></trkpt>
<trkpt lat="24.240143" lon="107.418577">
<time>2016-10-06T18:00:40Z</time></trkpt>
<trkpt lat="24.240023" lon="107.418697">
<time>2016-10-06T18:00:41Z</time></trkpt>
<trkpt lat="24.239583" lon="107.419087">
<time>2016-10-06T18:00:42Z</time></trkpt>
<trkpt lat="24.239493" lon="107.419177">
<time>2016-10-06T18:00:43Z</time></trkpt>
<trkpt lat="24.239093" lon="107.419498">
<time>2016-10-06T18:00:44Z</time></trkpt>
<trkpt lat="24.238933" lon="107.419598">
<time>2016-10-06T18:00:45Z</time></trkpt>
<trkpt lat="24.238743" lon="107.419678">
<time>2016-10-06T18:00:46Z</time></trkpt>
<trkpt lat="24.238663" lon="107.419698">
<time>2016-10-06T18:00:47Z</time></trkpt>
<trkpt lat="24.238513" lon="107.419728">
<time>2016-10-06T18:00:48Z</time></trkpt>
<trkpt lat="24.238203" lon="107.419778">
<time>2016-10-06T18:00:49Z</time></trkpt>
<trkpt lat="24.237803" lon="107.419828">
<time>2016-10-06T18:00:50Z</time></trkpt>
<trkpt lat="24.237593" lon="107.419878">
<time>2016-10-06T18:00:51Z</time></trkpt>
<trkpt lat="24.237413" lon="107.419958">
<time>2016-10-06T18:00:52Z</time></trkpt>
<trkpt lat="24.237233" lon="107.420058">
<time>2016-10-06T18:00:53Z</time></trkpt>
<trkpt lat="24.237033" lon="107.420218">
<time>2016-10-06T18:00:54Z</time></trkpt>
<trkpt lat="24.236883" lon="107.420388">
<time>2016-10-06T18:00:55Z</time></trkpt>
<trkpt lat="24.236064" lon="107.421439">
<time>2016-10-06T18:00:56Z</time></trkpt>
<trkpt lat="24.235015" lon="107.422831">
<time>2016-10-06T18:00:57Z</time></trkpt>
<trkpt lat="24.234156" lon="107.423892">
<time>2016-10-06T18:00:58Z</time></trkpt>
<trkpt lat="24.233666" lon="107.424372">
<time>2016-10-06T18:00:59Z</time></trkpt>
<trkpt lat="24.232867" lon="107.425013">
<time>2016-10-06T18:01:00Z</time></trkpt>
<trkpt lat="24.232467" lon="107.425343">
<time>2016-10-06T18:01:01Z</time></trkpt>
<trkpt lat="24.232327" lon="107.425433">
<time>2016-10-06T18:01:02Z</time></trkpt>
<trkpt lat="24.231737" lon="107.425834">
<time>2016-10-06T18:01:03Z</time></trkpt>
<trkpt lat="24.231667" lon="107.425874">
<time>2016-10-06T18:01:04Z</time></trkpt>
<trkpt lat="24.230778" lon="107.426314">
<time>2016-10-06T18:01:05Z</time></trkpt>
<trkpt lat="24.230258" lon="107.426565">
<time>2016-10-06T18:01:06Z</time></trkpt>
<trkpt lat="24.229778" lon="107.426765">
<time>2016-10-06T18:01:07Z</time></trkpt>
<trkpt lat="24.229118" lon="107.426955">
<time>2016-10-06T18:01:08Z</time></trkpt>
<trkpt lat="24.228288" lon="107.427085">
<time>2016-10-06T18:01:09Z</time></trkpt>
<trkpt lat="24.227677" lon="107.427166">
<time>2016-10-06T18:01:10Z</time></trkpt>
<trkpt lat="24.226457" lon="107.427316">
<time>2016-10-06T18:01:11Z</time></trkpt>
<trkpt lat="24.226107" lon="107.427366">
<time>2016-10-06T18:01:12Z</time></trkpt>
<trkpt lat="24.225677" lon="107.427356">
<time>2016-10-06T18:01:13Z</time></trkpt>
<trkpt lat="24.225357" lon="107.427276">
<time>2016-10-06T18:01:14Z</time></trkpt>
<trkpt lat="24.225247" lon="107.427236">
<time>2016-10-06T18:01:15Z</time></trkpt>
<trkpt lat="24.224996" lon="107.427126">
<time>2016-10-06T18:01:16Z</time></trkpt>
<trkpt lat="24.224306" lon="107.426695">
<time>2016-10-06T18:01:17Z</time></trkpt>
<trkpt lat="24.224165" lon="107.426585">
<time>2016-10-06T18:01:18Z</time></trkpt>
<trkpt lat="24.224035" lon="107.426465">
<time>2016-10-06T18:01:19Z</time></trkpt>
<trkpt lat="24.223835" lon="107.426255">
<time>2016-10-06T18:01:20Z</time></trkpt>
<trkpt lat="24.223685" lon="107.426045">
<time>2016-10-06T18:01:21Z</time></trkpt>
<trkpt lat="24.223664" lon="107.426004">
<time>2016-10-06T18:01:22Z</time></trkpt>
<trkpt lat="24.223514" lon="107.425714">
<time>2016-10-06T18:01:23Z</time></trkpt>
<trkpt lat="24.223353" lon="107.425224">
<time>2016-10-06T18:01:24Z</time></trkpt>
<trkpt lat="24.223083" lon="107.424653">
<time>2016-10-06T18:01:25Z</time></trkpt>
<trkpt lat="24.222962" lon="107.424483">
<time>2016-10-06T18:01:26Z</time></trkpt>
<trkpt lat="24.222862" lon="107.424363">
<time>2016-10-06T18:01:27Z</time></trkpt>
<trkpt lat="24.222732" lon="107.424243">
<time>2016-10-06T18:01:28Z</time></trkpt>
<trkpt lat="24.222191" lon="107.423892">
<time>2016-10-06T18:01:29Z</time></trkpt>
<trkpt lat="24.221931" lon="107.423772">
<time>2016-10-06T18:01:30Z</time></trkpt>
<trkpt lat="24.221611" lon="107.423632">
<time>2016-10-06T18:01:31Z</time></trkpt>
<trkpt lat="24.22111" lon="107.423472">
<time>2016-10-06T18:01:32Z</time></trkpt>
<trkpt lat="24.22031" lon="107.423322">
<time>2016-10-06T18:01:33Z</time></trkpt>
<trkpt lat="24.21982" lon="107.423232">
<time>2016-10-06T18:01:34Z</time></trkpt>
<trkpt lat="24.218549" lon="107.422922">
<time>2016-10-06T18:01:35Z</time></trkpt>
<trkpt lat="24.217588" lon="107.422511">
<time>2016-10-06T18:01:36Z</time></trkpt>
<trkpt lat="24.216717" lon="107.421941">
<time>2016-10-06T18:01:37Z</time></trkpt>
<trkpt lat="24.215906" lon="107.42138">
<time>2016-10-06T18:01:38Z</time></trkpt>
<trkpt lat="24.215816" lon="107.42129">
<time>2016-10-06T18:01:39Z</time></trkpt>
<trkpt lat="24.215736" lon="107.4212">
<time>2016-10-06T18:01:40Z</time></trkpt>
<trkpt lat="24.215666" lon="107.42109">
<time>2016-10-06T18:01:41Z</time></trkpt>
<trkpt lat="24.215606" lon="107.421">
<time>2016-10-06T18:01:42Z</time></trkpt>
<trkpt lat="24.215415" lon="107.42036">
<time>2016-10-06T18:01:43Z</time></trkpt>
<trkpt lat="24.215184" lon="107.419219">
<time>2016-10-06T18:01:44Z</time></trkpt>
<trkpt lat="24.215053" lon="107.418608">
<time>2016-10-06T18:01:45Z</time></trkpt>
<trkpt lat="24.214913" lon="107.418168">
<time>2016-10-06T18:01:46Z</time></trkpt>
<trkpt lat="24.214832" lon="107.418008">
<time>2016-10-06T18:01:47Z</time></trkpt>
<trkpt lat="24.214742" lon="107.417868">
<time>2016-10-06T18:01:48Z</time></trkpt>
<trkpt lat="24.214622" lon="107.417728">
<time>2016-10-06T18:01:49Z</time></trkpt>
<trkpt lat="24.214512" lon="107.417638">
<time>2016-10-06T18:01:50Z</time></trkpt>
<trkpt lat="24.214352" lon="107.417557">
<time>2016-10-06T18:01:51Z</time></trkpt>
<trkpt lat="24.214192" lon="107.417497">
<time>2016-10-06T18:01:52Z</time></trkpt>
<trkpt lat="24.214032" lon="107.417467">
<time>2016-10-06T18:01:53Z</time></trkpt>
<trkpt lat="24.213802" lon="107.417477">
<time>2016-10-06T18:01:54Z</time></trkpt>
<trkpt lat="24.213242" lon="107.417658">
<time>2016-10-06T18:01:55Z</time></trkpt>
<trkpt lat="24.211462" lon="107.418398">
<time>2016-10-06T18:01:56Z</time></trkpt>
<trkpt lat="24.211312" lon="107.418448">
<time>2016-10-06T18:01:57Z</time></trkpt>
<trkpt lat="24.211191" lon="107.418478">
<time>2016-10-06T18:01:58Z</time></trkpt>
<trkpt lat="24.211071" lon="107.418488">
<time>2016-10-06T18:01:59Z</time></trkpt>
<trkpt lat="24.210911" lon="107.418468">
<time>2016-10-06T18:02:00Z</time></trkpt>
<trkpt lat="24.210821" lon="107.418428">
<time>2016-10-06T18:02:01Z</time></trkpt>
<trkpt lat="24.210701" lon="107.418348">
<time>2016-10-06T18:02:02Z</time></trkpt>
<trkpt lat="24.210561" lon="107.418168">
<time>2016-10-06T18:02:03Z</time></trkpt>
<trkpt lat="24.210481" lon="107.417988">
<time>2016-10-06T18:02:04Z</time></trkpt>
<trkpt lat="24.2102" lon="107.417388">
<time>2016-10-06T18:02:05Z</time></trkpt>
<trkpt lat="24.21006" lon="107.417057">
<time>2016-10-06T18:02:06Z</time></trkpt>
<trkpt lat="24.20994" lon="107.416817">
<time>2016-10-06T18:02:07Z</time></trkpt>
<trkpt lat="24.209839" lon="107.416717">
<time>2016-10-06T18:02:08Z</time></trkpt>
<trkpt lat="24.209709" lon="107.416607">
<time>2016-10-06T18:02:09Z</time></trkpt>
<trkpt lat="24.209589" lon="107.416527">
<time>2016-10-06T18:02:10Z</time></trkpt>
<trkpt lat="24.209449" lon="107.416487">
<time>2016-10-06T18:02:11Z</time></trkpt>
<trkpt lat="24.209239" lon="107.416467">
<time>2016-10-06T18:02:12Z</time></trkpt>
<trkpt lat="24.208989" lon="107.416507">
<time>2016-10-06T18:02:13Z</time></trkpt>
<trkpt lat="24.207229" lon="107.417118">
<time>2016-10-06T18:02:14Z</time></trkpt>
<trkpt lat="24.206679" lon="107.417338">
<time>2016-10-06T18:02:15Z</time></trkpt>
<trkpt lat="24.206619" lon="107.417368">
<time>2016-10-06T18:02:16Z</time></trkpt>
<trkpt lat="24.206619" lon="107.417368">
<time>2016-10-06T18:02:17Z</time></trkpt>
<trkpt lat="24.206579" lon="107.417328">
<time>2016-10-06T18:02:18Z</time></trkpt>
<trkpt lat="24.206549" lon="107.417308">
<time>2016-10-06T18:02:19Z</time></trkpt>
<trkpt lat="24.206519" lon="107.417298">
<time>2016-10-06T18:02:20Z</time></trkpt>
<trkpt lat="24.206509" lon="107.417298">
<time>2016-10-06T18:02:21Z</time></trkpt>
<trkpt lat="24.206469" lon="107.417298">
<time>2016-10-06T18:02:22Z</time></trkpt>
<trkpt lat="24.206439" lon="107.417308">
<time>2016-10-06T18:02:23Z</time></trkpt>
<trkpt lat="24.206299" lon="107.417368">
<time>2016-10-06T18:02:24Z</time></trkpt>
<trkpt lat="24.206099" lon="107.417428">
<time>2016-10-06T18:02:25Z</time></trkpt>
<trkpt lat="24.205939" lon="107.417498">
<time>2016-10-06T18:02:26Z</time></trkpt>
<trkpt lat="24.205679" lon="107.417548">
<time>2016-10-06T18:02:27Z</time></trkpt>
<trkpt lat="24.205549" lon="107.417598">
<time>2016-10-06T18:02:28Z</time></trkpt>
<trkpt lat="24.205489" lon="107.417628">
<time>2016-10-06T18:02:29Z</time></trkpt>
<trkpt lat="24.205338" lon="107.417688">
<time>2016-10-06T18:02:30Z</time></trkpt>
<trkpt lat="24.205088" lon="107.417768">
<time>2016-10-06T18:02:31Z</time></trkpt>
<trkpt lat="24.204848" lon="107.417868">
<time>2016-10-06T18:02:32Z</time></trkpt>
<trkpt lat="24.204658" lon="107.417928">
<time>2016-10-06T18:02:33Z</time></trkpt>
<trkpt lat="24.204428" lon="107.417998">
<time>2016-10-06T18:02:34Z</time></trkpt>
<trkpt lat="24.204208" lon="107.418058">
<time>2016-10-06T18:02:35Z</time></trkpt>
<trkpt lat="24.204188" lon="107.418058">
<time>2016-10-06T18:02:36Z</time></trkpt>
<trkpt lat="24.203978" lon="107.418148">
<time>2016-10-06T18:02:37Z</time></trkpt>
<trkpt lat="24.203788" lon="107.418198">
<time>2016-10-06T18:02:38Z</time></trkpt>
<trkpt lat="24.203618" lon="107.418259">
<time>2016-10-06T18:02:39Z</time></trkpt>
<trkpt lat="24.203418" lon="107.418269">
<time>2016-10-06T18:02:40Z</time></trkpt>
<trkpt lat="24.203338" lon="107.418279">
<time>2016-10-06T18:02:41Z</time></trkpt>
<trkpt lat="24.203318" lon="107.418279">
<time>2016-10-06T18:02:42Z</time></trkpt>
<trkpt lat="24.203308" lon="107.418279">
<time>2016-10-06T18:02:43Z</time></trkpt>
<trkpt lat="24.203208" lon="107.418279">
<time>2016-10-06T18:02:44Z</time></trkpt>
<trkpt lat="24.203108" lon="107.418269">
<time>2016-10-06T18:02:45Z</time></trkpt>
<trkpt lat="24.203018" lon="107.418239">
<time>2016-10-06T18:02:46Z</time></trkpt>
<trkpt lat="24.202898" lon="107.418209">
<time>2016-10-06T18:02:47Z</time></trkpt>
<trkpt lat="24.202808" lon="107.418169">
<time>2016-10-06T18:02:48Z</time></trkpt>
<trkpt lat="24.202718" lon="107.418139">
<time>2016-10-06T18:02:49Z</time></trkpt>
<trkpt lat="24.202648" lon="107.418108">
<time>2016-10-06T18:02:50Z</time></trkpt>
<trkpt lat="24.202578" lon="107.418078">
<time>2016-10-06T18:02:51Z</time></trkpt>
<trkpt lat="24.202528" lon="107.418038">
<time>2016-10-06T18:02:52Z</time></trkpt>
<trkpt lat="24.202458" lon="107.417998">
<time>2016-10-06T18:02:53Z</time></trkpt>
<trkpt lat="24.202388" lon="107.417958">
<time>2016-10-06T18:02:54Z</time></trkpt>
<trkpt lat="24.202298" lon="107.417918">
<time>2016-10-06T18:02:55Z</time></trkpt>
<trkpt lat="24.202197" lon="107.417858">
<time>2016-10-06T18:02:56Z</time></trkpt>
<trkpt lat="24.202117" lon="107.417848">
<time>2016-10-06T18:02:57Z</time></trkpt>
<trkpt lat="24.202017" lon="107.417828">
<time>2016-10-06T18:02:58Z</time></trkpt>
<trkpt lat="24.201907" lon="107.417818">
<time>2016-10-06T18:02:59Z</time></trkpt>
<trkpt lat="24.201797" lon="107.417838">
<time>2016-10-06T18:03:00Z</time></trkpt>
<trkpt lat="24.201727" lon="107.417888">
<time>2016-10-06T18:03:01Z</time></trkpt>
<trkpt lat="24.201677" lon="107.417908">
<time>2016-10-06T18:03:02Z</time></trkpt>
<trkpt lat="24.201657" lon="107.417918">
<time>2016-10-06T18:03:03Z</time></trkpt>
<trkpt lat="24.201587" lon="107.417958">
<time>2016-10-06T18:03:04Z</time></trkpt>
<trkpt lat="24.201537" lon="107.417988">
<time>2016-10-06T18:03:05Z</time></trkpt>
<trkpt lat="24.201477" lon="107.418029">
<time>2016-10-06T18:03:06Z</time></trkpt>
<trkpt lat="24.201407" lon="107.418079">
<time>2016-10-06T18:03:07Z</time></trkpt>
<trkpt lat="24.201337" lon="107.418109">
<time>2016-10-06T18:03:08Z</time></trkpt>
<trkpt lat="24.201277" lon="107.418149">
<time>2016-10-06T18:03:09Z</time></trkpt>
<trkpt lat="24.201197" lon="107.418199">
<time>2016-10-06T18:03:10Z</time></trkpt>
<trkpt lat="24.201147" lon="107.418229">
<time>2016-10-06T18:03:11Z</time></trkpt>
<trkpt lat="24.201137" lon="107.418239">
<time>2016-10-06T18:03:12Z</time></trkpt>
<trkpt lat="24.201057" lon="107.418289">
<time>2016-10-06T18:03:13Z</time></trkpt>
<trkpt lat="24.201007" lon="107.418339">
<time>2016-10-06T18:03:14Z</time></trkpt>
<trkpt lat="24.200987" lon="107.418359">
<time>2016-10-06T18:03:15Z</time></trkpt>
<trkpt lat="24.200987" lon="107.418359">
<time>2016-10-06T18:03:16Z</time></trkpt>
<trkpt lat="24.200997" lon="107.418379">
<time>2016-10-06T18:03:17Z</time></trkpt>
<trkpt lat="24.201168" lon="107.418699">
<time>2016-10-06T18:03:18Z</time></trkpt>
<trkpt lat="24.201308" lon="107.419119">
<time>2016-10-06T18:03:19Z</time></trkpt>
<trkpt lat="24.201399" lon="107.41953">
<time>2016-10-06T18:03:20Z</time></trkpt>
<trkpt lat="24.201399" lon="107.41972">
<time>2016-10-06T18:03:21Z</time></trkpt>
<trkpt lat="24.201359" lon="107.42002">
<time>2016-10-06T18:03:22Z</time></trkpt>
<trkpt lat="24.20123" lon="107.4205">
<time>2016-10-06T18:03:23Z</time></trkpt>
<trkpt lat="24.20109" lon="107.420841">
<time>2016-10-06T18:03:24Z</time></trkpt>
<trkpt lat="24.201" lon="107.421011">
<time>2016-10-06T18:03:25Z</time></trkpt>
<trkpt lat="24.20091" lon="107.421131">
<time>2016-10-06T18:03:26Z</time></trkpt>
<trkpt lat="24.20077" lon="107.421241">
<time>2016-10-06T18:03:27Z</time></trkpt>
<trkpt lat="24.20056" lon="107.421341">
<time>2016-10-06T18:03:28Z</time></trkpt>
<trkpt lat="24.2003" lon="107.421451">
<time>2016-10-06T18:03:29Z</time></trkpt>
<trkpt lat="24.2" lon="107.421551">
<time>2016-10-06T18:03:30Z</time></trkpt>
<trkpt lat="24.19982" lon="107.421611">
<time>2016-10-06T18:03:31Z</time></trkpt>
<trkpt lat="24.19967" lon="107.421722">
<time>2016-10-06T18:03:32Z</time></trkpt>
<trkpt lat="24.19952" lon="107.421842">
<time>2016-10-06T18:03:33Z</time></trkpt>
<trkpt lat="24.19934" lon="107.422032">
<time>2016-10-06T18:03:34Z</time></trkpt>
<trkpt lat="24.199241" lon="107.422242">
<time>2016-10-06T18:03:35Z</time></trkpt>
<trkpt lat="24.199241" lon="107.422242">
<time>2016-10-06T18:03:36Z</time></trkpt>
<trkpt lat="24.198631" lon="107.422392">
<time>2016-10-06T18:03:37Z</time></trkpt>
<trkpt lat="24.19786" lon="107.422642">
<time>2016-10-06T18:03:38Z</time></trkpt>
<trkpt lat="24.197751" lon="107.422693">
<time>2016-10-06T18:03:39Z</time></trkpt>
<trkpt lat="24.196801" lon="107.423103">
<time>2016-10-06T18:03:40Z</time></trkpt>
<trkpt lat="24.196451" lon="107.423253">
<time>2016-10-06T18:03:41Z</time></trkpt>
<trkpt lat="24.196251" lon="107.423293">
<time>2016-10-06T18:03:42Z</time></trkpt>
<trkpt lat="24.196081" lon="107.423293">
<time>2016-10-06T18:03:43Z</time></trkpt>
<trkpt lat="24.19593" lon="107.423263">
<time>2016-10-06T18:03:44Z</time></trkpt>
<trkpt lat="24.19574" lon="107.423173">
<time>2016-10-06T18:03:45Z</time></trkpt>
<trkpt lat="24.19563" lon="107.423053">
<time>2016-10-06T18:03:46Z</time></trkpt>
<trkpt lat="24.19552" lon="107.422873">
<time>2016-10-06T18:03:47Z</time></trkpt>
<trkpt lat="24.19547" lon="107.422753">
<time>2016-10-06T18:03:48Z</time></trkpt>
<trkpt lat="24.195449" lon="107.422583">
<time>2016-10-06T18:03:49Z</time></trkpt>
<trkpt lat="24.195449" lon="107.422432">
<time>2016-10-06T18:03:50Z</time></trkpt>
<trkpt lat="24.195499" lon="107.422232">
<time>2016-10-06T18:03:51Z</time></trkpt>
<trkpt lat="24.195589" lon="107.422042">
<time>2016-10-06T18:03:52Z</time></trkpt>
<trkpt lat="24.195739" lon="107.421672">
<time>2016-10-06T18:03:53Z</time></trkpt>
<trkpt lat="24.195789" lon="107.421562">
<time>2016-10-06T18:03:54Z</time></trkpt>
<trkpt lat="24.195818" lon="107.421432">
<time>2016-10-06T18:03:55Z</time></trkpt>
<trkpt lat="24.195838" lon="107.421251">
<time>2016-10-06T18:03:56Z</time></trkpt>
<trkpt lat="24.195858" lon="107.421131">
<time>2016-10-06T18:03:57Z</time></trkpt>
<trkpt lat="24.195848" lon="107.421041">
<time>2016-10-06T18:03:58Z</time></trkpt>
<trkpt lat="24.195838" lon="107.420961">
<time>2016-10-06T18:03:59Z</time></trkpt>
<trkpt lat="24.195818" lon="107.420861">
<time>2016-10-06T18:04:00Z</time></trkpt>
<trkpt lat="24.195778" lon="107.420771">
<time>2016-10-06T18:04:01Z</time></trkpt>
<trkpt lat="24.195617" lon="107.420431">
<time>2016-10-06T18:04:02Z</time></trkpt>
<trkpt lat="24.195387" lon="107.41995">
<time>2016-10-06T18:04:03Z</time></trkpt>
<trkpt lat="24.195256" lon="107.41955">
<time>2016-10-06T18:04:04Z</time></trkpt>
<trkpt lat="24.195206" lon="107.4193">
<time>2016-10-06T18:04:05Z</time></trkpt>
<trkpt lat="24.195196" lon="107.41908">
<time>2016-10-06T18:04:06Z</time></trkpt>
<trkpt lat="24.195196" lon="107.418879">
<time>2016-10-06T18:04:07Z</time></trkpt>
<trkpt lat="24.195205" lon="107.418699">
<time>2016-10-06T18:04:08Z</time></trkpt>
<trkpt lat="24.195245" lon="107.418469">
<time>2016-10-06T18:04:09Z</time></trkpt>
<trkpt lat="24.195295" lon="107.418279">
<time>2016-10-06T18:04:10Z</time></trkpt>
<trkpt lat="24.195694" lon="107.416878">
<time>2016-10-06T18:04:11Z</time></trkpt>
<trkpt lat="24.195824" lon="107.416368">
<time>2016-10-06T18:04:12Z</time></trkpt>
<trkpt lat="24.195854" lon="107.416238">
<time>2016-10-06T18:04:13Z</time></trkpt>
<trkpt lat="24.195863" lon="107.416038">
<time>2016-10-06T18:04:14Z</time></trkpt>
<trkpt lat="24.195843" lon="107.415877">
<time>2016-10-06T18:04:15Z</time></trkpt>
<trkpt lat="24.195803" lon="107.415747">
<time>2016-10-06T18:04:16Z</time></trkpt>
<trkpt lat="24.195753" lon="107.415647">
<time>2016-10-06T18:04:17Z</time></trkpt>
<trkpt lat="24.195673" lon="107.415547">
<time>2016-10-06T18:04:18Z</time></trkpt>
<trkpt lat="24.195503" lon="107.415377">
<time>2016-10-06T18:04:19Z</time></trkpt>
<trkpt lat="24.194542" lon="107.414687">
<time>2016-10-06T18:04:20Z</time></trkpt>
<trkpt lat="24.194302" lon="107.414507">
<time>2016-10-06T18:04:21Z</time></trkpt>
<trkpt lat="24.194171" lon="107.414347">
<time>2016-10-06T18:04:22Z</time></trkpt>
<trkpt lat="24.194061" lon="107.414137">
<time>2016-10-06T18:04:23Z</time></trkpt>
<trkpt lat="24.194001" lon="107.413956">
<time>2016-10-06T18:04:24Z</time></trkpt>
<trkpt lat="24.193981" lon="107.413746">
<time>2016-10-06T18:04:25Z</time></trkpt>
<trkpt lat="24.193991" lon="107.413506">
<time>2016-10-06T18:04:26Z</time></trkpt>
<trkpt lat="24.1942" lon="107.411896">
<time>2016-10-06T18:04:27Z</time></trkpt>
<trkpt lat="24.194339" lon="107.410965">
<time>2016-10-06T18:04:28Z</time></trkpt>
<trkpt lat="24.194509" lon="107.410295">
<time>2016-10-06T18:04:29Z</time></trkpt>
<trkpt lat="24.194619" lon="107.409975">
<time>2016-10-06T18:04:30Z</time></trkpt>
<trkpt lat="24.194739" lon="107.409665">
<time>2016-10-06T18:04:31Z</time></trkpt>
<trkpt lat="24.195078" lon="107.409005">
<time>2016-10-06T18:04:32Z</time></trkpt>
<trkpt lat="24.195478" lon="107.408264">
<time>2016-10-06T18:04:33Z</time></trkpt>
<trkpt lat="24.195608" lon="107.408004">
<time>2016-10-06T18:04:34Z</time></trkpt>
<trkpt lat="24.195858" lon="107.407604">
<time>2016-10-06T18:04:35Z</time></trkpt>
<trkpt lat="24.195998" lon="107.407474">
<time>2016-10-06T18:04:36Z</time></trkpt>
<trkpt lat="24.196058" lon="107.407404">
<time>2016-10-06T18:04:37Z</time></trkpt>
<trkpt lat="24.196268" lon="107.407254">
<time>2016-10-06T18:04:38Z</time></trkpt>
<trkpt lat="24.196478" lon="107.407124">
<time>2016-10-06T18:04:39Z</time></trkpt>
<trkpt lat="24.196738" lon="107.406974">
<time>2016-10-06T18:04:40Z</time></trkpt>
<trkpt lat="24.196858" lon="107.406894">
<time>2016-10-06T18:04:41Z</time></trkpt>
<trkpt lat="24.196948" lon="107.406804">
<time>2016-10-06T18:04:42Z</time></trkpt>
<trkpt lat="24.197038" lon="107.406674">
<time>2016-10-06T18:04:43Z</time></trkpt>
<trkpt lat="24.197098" lon="107.406554">
<time>2016-10-06T18:04:44Z</time></trkpt>
<trkpt lat="24.197158" lon="107.406414">
<time>2016-10-06T18:04:45Z</time></trkpt>
<trkpt lat="24.197188" lon="107.406244">
<time>2016-10-06T18:04:46Z</time></trkpt>
<trkpt lat="24.197228" lon="107.406044">
<time>2016-10-06T18:04:47Z</time></trkpt>
<trkpt lat="24.197248" lon="107.405844">
<time>2016-10-06T18:04:48Z</time></trkpt>
<trkpt lat="24.197238" lon="107.405604">
<time>2016-10-06T18:04:49Z</time></trkpt>
<trkpt lat="24.197228" lon="107.405464">
<time>2016-10-06T18:04:50Z</time></trkpt>
<trkpt lat="24.197188" lon="107.405364">
<time>2016-10-06T18:04:51Z</time></trkpt>
<trkpt lat="24.197128" lon="107.405264">
<time>2016-10-06T18:04:52Z</time></trkpt>
<trkpt lat="24.197048" lon="107.405174">
<time>2016-10-06T18:04:53Z</time></trkpt>
<trkpt lat="24.196968" lon="107.405114">
<time>2016-10-06T18:04:54Z</time></trkpt>
<trkpt lat="24.196908" lon="107.405074">
<time>2016-10-06T18:04:55Z</time></trkpt>
<trkpt lat="24.196627" lon="107.404974">
<time>2016-10-06T18:04:56Z</time></trkpt>
<trkpt lat="24.196107" lon="107.404844">
<time>2016-10-06T18:04:57Z</time></trkpt>
<trkpt lat="24.195647" lon="107.404744">
<time>2016-10-06T18:04:58Z</time></trkpt>
<trkpt lat="24.195227" lon="107.404614">
<time>2016-10-06T18:04:59Z</time></trkpt>
<trkpt lat="24.195037" lon="107.404514">
<time>2016-10-06T18:05:00Z</time></trkpt>
<trkpt lat="24.194937" lon="107.404444">
<time>2016-10-06T18:05:01Z</time></trkpt>
<trkpt lat="24.194777" lon="107.404284">
<time>2016-10-06T18:05:02Z</time></trkpt>
<trkpt lat="24.194676" lon="107.404134">
<time>2016-10-06T18:05:03Z</time></trkpt>
<trkpt lat="24.194576" lon="107.403804">
<time>2016-10-06T18:05:04Z</time></trkpt>
<trkpt lat="24.194556" lon="107.403624">
<time>2016-10-06T18:05:05Z</time></trkpt>
<trkpt lat="24.194596" lon="107.403314">
<time>2016-10-06T18:05:06Z</time></trkpt>
<trkpt lat="24.194746" lon="107.403024">
<time>2016-10-06T18:05:07Z</time></trkpt>
<trkpt lat="24.194906" lon="107.402834">
<time>2016-10-06T18:05:08Z</time></trkpt>
<trkpt lat="24.195076" lon="107.402714">
<time>2016-10-06T18:05:09Z</time></trkpt>
<trkpt lat="24.195166" lon="107.402654">
<time>2016-10-06T18:05:10Z</time></trkpt>
<trkpt lat="24.195516" lon="107.402524">
<time>2016-10-06T18:05:11Z</time></trkpt>
<trkpt lat="24.195706" lon="107.402464">
<time>2016-10-06T18:05:12Z</time></trkpt>
<trkpt lat="24.195937" lon="107.402384">
<time>2016-10-06T18:05:13Z</time></trkpt>
<trkpt lat="24.196077" lon="107.402264">
<time>2016-10-06T18:05:14Z</time></trkpt>
<trkpt lat="24.196147" lon="107.402184">
<time>2016-10-06T18:05:15Z</time></trkpt>
<trkpt lat="24.196207" lon="107.402094">
<time>2016-10-06T18:05:16Z</time></trkpt>
<trkpt lat="24.196247" lon="107.401994">
<time>2016-10-06T18:05:17Z</time></trkpt>
<trkpt lat="24.196257" lon="107.401794">
<time>2016-10-06T18:05:18Z</time></trkpt>
<trkpt lat="24.196227" lon="107.401604">
<time>2016-10-06T18:05:19Z</time></trkpt>
<trkpt lat="24.196146" lon="107.401464">
<time>2016-10-06T18:05:20Z</time></trkpt>
<trkpt lat="24.196046" lon="107.401354">
<time>2016-10-06T18:05:21Z</time></trkpt>
<trkpt lat="24.195936" lon="107.401294">
<time>2016-10-06T18:05:22Z</time></trkpt>
<trkpt lat="24.195626" lon="107.401244">
<time>2016-10-06T18:05:23Z</time></trkpt>
<trkpt lat="24.194916" lon="107.401314">
<time>2016-10-06T18:05:24Z</time></trkpt>
<trkpt lat="24.194406" lon="107.401334">
<time>2016-10-06T18:05:25Z</time></trkpt>
<trkpt lat="24.194316" lon="107.401324">
<time>2016-10-06T18:05:26Z</time></trkpt>
<trkpt lat="24.194226" lon="107.401304">
<time>2016-10-06T18:05:27Z</time></trkpt>
<trkpt lat="24.194136" lon="107.401254">
<time>2016-10-06T18:05:28Z</time></trkpt>
<trkpt lat="24.194036" lon="107.401164">
<time>2016-10-06T18:05:29Z</time></trkpt>
<trkpt lat="24.193966" lon="107.401064">
<time>2016-10-06T18:05:30Z</time></trkpt>
<trkpt lat="24.193895" lon="107.400924">
<time>2016-10-06T18:05:31Z</time></trkpt>
<trkpt lat="24.193825" lon="107.400634">
<time>2016-10-06T18:05:32Z</time></trkpt>
<trkpt lat="24.193715" lon="107.400174">
<time>2016-10-06T18:05:33Z</time></trkpt>
<trkpt lat="24.193665" lon="107.400014">
<time>2016-10-06T18:05:34Z</time></trkpt>
<trkpt lat="24.193605" lon="107.399894">
<time>2016-10-06T18:05:35Z</time></trkpt>
<trkpt lat="24.193355" lon="107.399555">
<time>2016-10-06T18:05:36Z</time></trkpt>
<trkpt lat="24.192865" lon="107.398975">
<time>2016-10-06T18:05:37Z</time></trkpt>
<trkpt lat="24.192505" lon="107.398515">
<time>2016-10-06T18:05:38Z</time></trkpt>
<trkpt lat="24.192395" lon="107.398355">
<time>2016-10-06T18:05:39Z</time></trkpt>
<trkpt lat="24.192365" lon="107.398295">
<time>2016-10-06T18:05:40Z</time></trkpt>
<trkpt lat="24.192335" lon="107.398265">
<time>2016-10-06T18:05:41Z</time></trkpt>
<trkpt lat="24.192305" lon="107.398185">
<time>2016-10-06T18:05:42Z</time></trkpt>
<trkpt lat="24.192235" lon="107.397985">
<time>2016-10-06T18:05:43Z</time></trkpt>
<trkpt lat="24.192185" lon="107.397735">
<time>2016-10-06T18:05:44Z</time></trkpt>
<trkpt lat="24.192135" lon="107.397465">
<time>2016-10-06T18:05:45Z</time></trkpt>
<trkpt lat="24.192095" lon="107.397255">
<time>2016-10-06T18:05:46Z</time></trkpt>
<trkpt lat="24.192045" lon="107.397025">
<time>2016-10-06T18:05:47Z</time></trkpt>
<trkpt lat="24.191995" lon="107.396905">
<time>2016-10-06T18:05:48Z</time></trkpt>
<trkpt lat="24.191925" lon="107.396815">
<time>2016-10-06T18:05:49Z</time></trkpt>
<trkpt lat="24.191845" lon="107.396735">
<time>2016-10-06T18:05:50Z</time></trkpt>
<trkpt lat="24.191764" lon="107.396645">
<time>2016-10-06T18:05:51Z</time></trkpt>
<trkpt lat="24.191274" lon="107.396256">
<time>2016-10-06T18:05:52Z</time></trkpt>
<trkpt lat="24.190764" lon="107.395866">
<time>2016-10-06T18:05:53Z</time></trkpt>
<trkpt lat="24.190514" lon="107.395666">
<time>2016-10-06T18:05:54Z</time></trkpt>
<trkpt lat="24.190394" lon="107.395536">
<time>2016-10-06T18:05:55Z</time></trkpt>
<trkpt lat="24.190334" lon="107.395446">
<time>2016-10-06T18:05:56Z</time></trkpt>
<trkpt lat="24.190284" lon="107.395356">
<time>2016-10-06T18:05:57Z</time></trkpt>
<trkpt lat="24.190274" lon="107.395346">
<time>2016-10-06T18:05:58Z</time></trkpt>
<trkpt lat="24.190204" lon="107.395156">
<time>2016-10-06T18:05:59Z</time></trkpt>
<trkpt lat="24.190164" lon="107.394996">
<time>2016-10-06T18:06:00Z</time></trkpt>
<trkpt lat="24.190084" lon="107.394546">
<time>2016-10-06T18:06:01Z</time></trkpt>
<trkpt lat="24.190014" lon="107.394307">
<time>2016-10-06T18:06:02Z</time></trkpt>
<trkpt lat="24.189934" lon="107.394127">
<time>2016-10-06T18:06:03Z</time></trkpt>
<trkpt lat="24.189834" lon="107.393907">
<time>2016-10-06T18:06:04Z</time></trkpt>
<trkpt lat="24.189784" lon="107.393777">
<time>2016-10-06T18:06:05Z</time></trkpt>
<trkpt lat="24.189764" lon="107.393687">
<time>2016-10-06T18:06:06Z</time></trkpt>
<trkpt lat="24.189744" lon="107.393567">
<time>2016-10-06T18:06:07Z</time></trkpt>
<trkpt lat="24.189744" lon="107.393467">
<time>2016-10-06T18:06:08Z</time></trkpt>
<trkpt lat="24.189754" lon="107.393367">
<time>2016-10-06T18:06:09Z</time></trkpt>
<trkpt lat="24.189794" lon="107.393217">
<time>2016-10-06T18:06:10Z</time></trkpt>
<trkpt lat="24.189864" lon="107.393027">
<time>2016-10-06T18:06:11Z</time></trkpt>
<trkpt lat="24.189924" lon="107.392887">
<time>2016-10-06T18:06:12Z</time></trkpt>
<trkpt lat="24.189964" lon="107.392747">
<time>2016-10-06T18:06:13Z</time></trkpt>
<trkpt lat="24.189984" lon="107.392607">
<time>2016-10-06T18:06:14Z</time></trkpt>
<trkpt lat="24.189974" lon="107.392508">
<time>2016-10-06T18:06:15Z</time></trkpt>
<trkpt lat="24.189954" lon="107.392408">
<time>2016-10-06T18:06:16Z</time></trkpt>
<trkpt lat="24.189924" lon="107.392328">
<time>2016-10-06T18:06:17Z</time></trkpt>
<trkpt lat="24.189854" lon="107.392208">
<time>2016-10-06T18:06:18Z</time></trkpt>
<trkpt lat="24.189794" lon="107.392118">
<time>2016-10-06T18:06:19Z</time></trkpt>
<trkpt lat="24.189374" lon="107.391508">
<time>2016-10-06T18:06:20Z</time></trkpt>
<trkpt lat="24.189224" lon="107.391298">
<time>2016-10-06T18:06:21Z</time></trkpt>
<trkpt lat="24.189134" lon="107.391058">
<time>2016-10-06T18:06:22Z</time></trkpt>
<trkpt lat="24.189114" lon="107.390889">
<time>2016-10-06T18:06:23Z</time></trkpt>
<trkpt lat="24.189145" lon="107.390569">
<time>2016-10-06T18:06:24Z</time></trkpt>
<trkpt lat="24.189195" lon="107.390329">
<time>2016-10-06T18:06:25Z</time></trkpt>
<trkpt lat="24.189195" lon="107.390169">
<time>2016-10-06T18:06:26Z</time></trkpt>
<trkpt lat="24.189165" lon="107.389999">
<time>2016-10-06T18:06:27Z</time></trkpt>
<trkpt lat="24.188965" lon="107.38947">
<time>2016-10-06T18:06:28Z</time></trkpt>
<trkpt lat="24.188945" lon="107.38938">
<time>2016-10-06T18:06:29Z</time></trkpt>
<trkpt lat="24.188945" lon="107.3892">
<time>2016-10-06T18:06:30Z</time></trkpt>
<trkpt lat="24.188985" lon="107.38902">
<time>2016-10-06T18:06:31Z</time></trkpt>
<trkpt lat="24.189075" lon="107.38882">
<time>2016-10-06T18:06:32Z</time></trkpt>
<trkpt lat="24.189165" lon="107.38864">
<time>2016-10-06T18:06:33Z</time></trkpt>
<trkpt lat="24.189235" lon="107.38841">
<time>2016-10-06T18:06:34Z</time></trkpt>
<trkpt lat="24.189255" lon="107.38828">
<time>2016-10-06T18:06:35Z</time></trkpt>
<trkpt lat="24.189256" lon="107.388131">
<time>2016-10-06T18:06:36Z</time></trkpt>
<trkpt lat="24.189176" lon="107.387711">
<time>2016-10-06T18:06:37Z</time></trkpt>
<trkpt lat="24.189146" lon="107.387521">
<time>2016-10-06T18:06:38Z</time></trkpt>
<trkpt lat="24.189136" lon="107.387271">
<time>2016-10-06T18:06:39Z</time></trkpt>
<trkpt lat="24.189156" lon="107.387111">
<time>2016-10-06T18:06:40Z</time></trkpt>
<trkpt lat="24.189256" lon="107.386572">
<time>2016-10-06T18:06:41Z</time></trkpt>
<trkpt lat="24.189276" lon="107.386382">
<time>2016-10-06T18:06:42Z</time></trkpt>
<trkpt lat="24.189246" lon="107.386112">
<time>2016-10-06T18:06:43Z</time></trkpt>
<trkpt lat="24.189227" lon="107.386002">
<time>2016-10-06T18:06:44Z</time></trkpt>
<trkpt lat="24.189177" lon="107.385872">
<time>2016-10-06T18:06:45Z</time></trkpt>
<trkpt lat="24.189097" lon="107.385713">
<time>2016-10-06T18:06:46Z</time></trkpt>
<trkpt lat="24.188857" lon="107.385363">
<time>2016-10-06T18:06:47Z</time></trkpt>
<trkpt lat="24.188657" lon="107.385063">
<time>2016-10-06T18:06:48Z</time></trkpt>
<trkpt lat="24.188597" lon="107.384943">
<time>2016-10-06T18:06:49Z</time></trkpt>
<trkpt lat="24.188537" lon="107.384783">
<time>2016-10-06T18:06:50Z</time></trkpt>
<trkpt lat="24.188497" lon="107.384564">
<time>2016-10-06T18:06:51Z</time></trkpt>
<trkpt lat="24.188487" lon="107.384454">
<time>2016-10-06T18:06:52Z</time></trkpt>
<trkpt lat="24.188487" lon="107.384324">
<time>2016-10-06T18:06:53Z</time></trkpt>
<trkpt lat="24.188578" lon="107.383754">
<time>2016-10-06T18:06:54Z</time></trkpt>
<trkpt lat="24.188598" lon="107.383565">
<time>2016-10-06T18:06:55Z</time></trkpt>
<trkpt lat="24.188588" lon="107.383365">
<time>2016-10-06T18:06:56Z</time></trkpt>
<trkpt lat="24.188578" lon="107.383305">
<time>2016-10-06T18:06:57Z</time></trkpt>
<trkpt lat="24.188548" lon="107.383165">
<time>2016-10-06T18:06:58Z</time></trkpt>
<trkpt lat="24.188448" lon="107.382835">
<time>2016-10-06T18:06:59Z</time></trkpt>
<trkpt lat="24.188428" lon="107.382705">
<time>2016-10-06T18:07:00Z</time></trkpt>
<trkpt lat="24.188408" lon="107.382546">
<time>2016-10-06T18:07:01Z</time></trkpt>
<trkpt lat="24.188408" lon="107.382476">
<time>2016-10-06T18:07:02Z</time></trkpt>
<trkpt lat="24.188428" lon="107.382376">
<time>2016-10-06T18:07:03Z</time></trkpt>
<trkpt lat="24.188488" lon="107.382216">
<time>2016-10-06T18:07:04Z</time></trkpt>
<trkpt lat="24.188589" lon="107.382026">
<time>2016-10-06T18:07:05Z</time></trkpt>
<trkpt lat="24.189109" lon="107.381087">
<time>2016-10-06T18:07:06Z</time></trkpt>
<trkpt lat="24.189761" lon="107.379968">
<time>2016-10-06T18:07:07Z</time></trkpt>
<trkpt lat="24.189831" lon="107.379819">
<time>2016-10-06T18:07:08Z</time></trkpt>
<trkpt lat="24.189891" lon="107.379599">
<time>2016-10-06T18:07:09Z</time></trkpt>
<trkpt lat="24.189911" lon="107.379439">
<time>2016-10-06T18:07:10Z</time></trkpt>
<trkpt lat="24.189901" lon="107.379269">
<time>2016-10-06T18:07:11Z</time></trkpt>
<trkpt lat="24.189861" lon="107.379139">
<time>2016-10-06T18:07:12Z</time></trkpt>
<trkpt lat="24.189731" lon="107.37896">
<time>2016-10-06T18:07:13Z</time></trkpt>
<trkpt lat="24.189651" lon="107.37889">
<time>2016-10-06T18:07:14Z</time></trkpt>
<trkpt lat="24.189561" lon="107.37883">
<time>2016-10-06T18:07:15Z</time></trkpt>
<trkpt lat="24.189461" lon="107.37878">
<time>2016-10-06T18:07:16Z</time></trkpt>
<trkpt lat="24.189301" lon="107.37874">
<time>2016-10-06T18:07:17Z</time></trkpt>
<trkpt lat="24.188251" lon="107.37874">
<time>2016-10-06T18:07:18Z</time></trkpt>
<trkpt lat="24.187771" lon="107.37874">
<time>2016-10-06T18:07:19Z</time></trkpt>
<trkpt lat="24.187451" lon="107.37875">
<time>2016-10-06T18:07:20Z</time></trkpt>
<trkpt lat="24.18723" lon="107.37879">
<time>2016-10-06T18:07:21Z</time></trkpt>
<trkpt lat="24.18693" lon="107.37895">
<time>2016-10-06T18:07:22Z</time></trkpt>
<trkpt lat="24.18669" lon="107.379209">
<time>2016-10-06T18:07:23Z</time></trkpt>
<trkpt lat="24.18656" lon="107.379389">
<time>2016-10-06T18:07:24Z</time></trkpt>
<trkpt lat="24.186339" lon="107.379559">
<time>2016-10-06T18:07:25Z</time></trkpt>
<trkpt lat="24.186189" lon="107.379629">
<time>2016-10-06T18:07:26Z</time></trkpt>
<trkpt lat="24.186059" lon="107.379649">
<time>2016-10-06T18:07:27Z</time></trkpt>
<trkpt lat="24.185869" lon="107.379629">
<time>2016-10-06T18:07:28Z</time></trkpt>
<trkpt lat="24.185649" lon="107.379549">
<time>2016-10-06T18:07:29Z</time></trkpt>
<trkpt lat="24.185399" lon="107.379449">
<time>2016-10-06T18:07:30Z</time></trkpt>
<trkpt lat="24.185249" lon="107.379419">
<time>2016-10-06T18:07:31Z</time></trkpt>
<trkpt lat="24.185199" lon="107.379409">
<time>2016-10-06T18:07:32Z</time></trkpt>
<trkpt lat="24.184989" lon="107.379409">
<time>2016-10-06T18:07:33Z</time></trkpt>
<trkpt lat="24.184789" lon="107.379449">
<time>2016-10-06T18:07:34Z</time></trkpt>
<trkpt lat="24.184609" lon="107.379519">
<time>2016-10-06T18:07:35Z</time></trkpt>
<trkpt lat="24.184549" lon="107.379549">
<time>2016-10-06T18:07:36Z</time></trkpt>
<trkpt lat="24.184439" lon="107.379609">
<time>2016-10-06T18:07:37Z</time></trkpt>
<trkpt lat="24.184369" lon="107.379639">
<time>2016-10-06T18:07:38Z</time></trkpt>
<trkpt lat="24.184239" lon="107.379679">
<time>2016-10-06T18:07:39Z</time></trkpt>
<trkpt lat="24.184189" lon="107.379699">
<time>2016-10-06T18:07:40Z</time></trkpt>
<trkpt lat="24.184138" lon="107.379709">
<time>2016-10-06T18:07:41Z</time></trkpt>
<trkpt lat="24.184038" lon="107.379719">
<time>2016-10-06T18:07:42Z</time></trkpt>
<trkpt lat="24.183978" lon="107.379709">
<time>2016-10-06T18:07:43Z</time></trkpt>
<trkpt lat="24.183918" lon="107.379699">
<time>2016-10-06T18:07:44Z</time></trkpt>
<trkpt lat="24.183848" lon="107.379689">
<time>2016-10-06T18:07:45Z</time></trkpt>
<trkpt lat="24.183788" lon="107.379659">
<time>2016-10-06T18:07:46Z</time></trkpt>
<trkpt lat="24.183728" lon="107.379629">
<time>2016-10-06T18:07:47Z</time></trkpt>
<trkpt lat="24.183658" lon="107.379569">
<time>2016-10-06T18:07:48Z</time></trkpt>
<trkpt lat="24.183608" lon="107.379509">
<time>2016-10-06T18:07:49Z</time></trkpt>
<trkpt lat="24.183558" lon="107.379439">
<time>2016-10-06T18:07:50Z</time></trkpt>
<trkpt lat="24.183529" lon="107.379359">
<time>2016-10-06T18:07:51Z</time></trkpt>
<trkpt lat="24.183509" lon="107.379289">
<time>2016-10-06T18:07:52Z</time></trkpt>
<trkpt lat="24.183499" lon="107.37923">
<time>2016-10-06T18:07:53Z</time></trkpt>
<trkpt lat="24.183489" lon="107.37913">
<time>2016-10-06T18:07:54Z</time></trkpt>
<trkpt lat="24.183499" lon="107.37901">
<time>2016-10-06T18:07:55Z</time></trkpt>
<trkpt lat="24.183519" lon="107.37888">
<time>2016-10-06T18:07:56Z</time></trkpt>
<trkpt lat="24.183569" lon="107.37873">
<time>2016-10-06T18:07:57Z</time></trkpt>
<trkpt lat="24.18381" lon="107.378111">
<time>2016-10-06T18:07:58Z</time></trkpt>
<trkpt lat="24.18397" lon="107.377631">
<time>2016-10-06T18:07:59Z</time></trkpt>
<trkpt lat="24.18402" lon="107.377442">
<time>2016-10-06T18:08:00Z</time></trkpt>
<trkpt lat="24.18404" lon="107.377252">
<time>2016-10-06T18:08:01Z</time></trkpt>
<trkpt lat="24.184021" lon="107.377072">
<time>2016-10-06T18:08:02Z</time></trkpt>
<trkpt lat="24.183971" lon="107.376932">
<time>2016-10-06T18:08:03Z</time></trkpt>
<trkpt lat="24.183901" lon="107.376763">
<time>2016-10-06T18:08:04Z</time></trkpt>
<trkpt lat="24.183801" lon="107.376643">
<time>2016-10-06T18:08:05Z</time></trkpt>
<trkpt lat="24.183721" lon="107.376553">
<time>2016-10-06T18:08:06Z</time></trkpt>
<trkpt lat="24.183611" lon="107.376463">
<time>2016-10-06T18:08:07Z</time></trkpt>
<trkpt lat="24.183501" lon="107.376413">
<time>2016-10-06T18:08:08Z</time></trkpt>
<trkpt lat="24.183231" lon="107.376303">
<time>2016-10-06T18:08:09Z</time></trkpt>
<trkpt lat="24.183111" lon="107.376243">
<time>2016-10-06T18:08:10Z</time></trkpt>
<trkpt lat="24.182991" lon="107.376173">
<time>2016-10-06T18:08:11Z</time></trkpt>
<trkpt lat="24.182891" lon="107.376103">
<time>2016-10-06T18:08:12Z</time></trkpt>
<trkpt lat="24.182811" lon="107.376044">
<time>2016-10-06T18:08:13Z</time></trkpt>
<trkpt lat="24.182731" lon="107.375934">
<time>2016-10-06T18:08:14Z</time></trkpt>
<trkpt lat="24.182691" lon="107.375874">
<time>2016-10-06T18:08:15Z</time></trkpt>
<trkpt lat="24.182661" lon="107.375814">
<time>2016-10-06T18:08:16Z</time></trkpt>
<trkpt lat="24.182641" lon="107.375724">
<time>2016-10-06T18:08:17Z</time></trkpt>
<trkpt lat="24.182621" lon="107.375624">
<time>2016-10-06T18:08:18Z</time></trkpt>
<trkpt lat="24.182621" lon="107.375524">
<time>2016-10-06T18:08:19Z</time></trkpt>
<trkpt lat="24.182641" lon="107.375404">
<time>2016-10-06T18:08:20Z</time></trkpt>
<trkpt lat="24.182672" lon="107.375295">
<time>2016-10-06T18:08:21Z</time></trkpt>
<trkpt lat="24.182732" lon="107.375185">
<time>2016-10-06T18:08:22Z</time></trkpt>
<trkpt lat="24.182802" lon="107.375085">
<time>2016-10-06T18:08:23Z</time></trkpt>
<trkpt lat="24.182882" lon="107.374995">
<time>2016-10-06T18:08:24Z</time></trkpt>
<trkpt lat="24.183062" lon="107.374775">
<time>2016-10-06T18:08:25Z</time></trkpt>
<trkpt lat="24.183293" lon="107.374526">
<time>2016-10-06T18:08:26Z</time></trkpt>
<trkpt lat="24.183603" lon="107.374006">
<time>2016-10-06T18:08:27Z</time></trkpt>
<trkpt lat="24.183693" lon="107.373767">
<time>2016-10-06T18:08:28Z</time></trkpt>
<trkpt lat="24.183804" lon="107.373347">
<time>2016-10-06T18:08:29Z</time></trkpt>
<trkpt lat="24.183874" lon="107.372888">
<time>2016-10-06T18:08:30Z</time></trkpt>
<trkpt lat="24.183875" lon="107.372738">
<time>2016-10-06T18:08:31Z</time></trkpt>
<trkpt lat="24.183825" lon="107.372568">
<time>2016-10-06T18:08:32Z</time></trkpt>
<trkpt lat="24.183765" lon="107.372429">
<time>2016-10-06T18:08:33Z</time></trkpt>
<trkpt lat="24.183695" lon="107.372349">
<time>2016-10-06T18:08:34Z</time></trkpt>
<trkpt lat="24.183515" lon="107.372209">
<time>2016-10-06T18:08:35Z</time></trkpt>
<trkpt lat="24.183295" lon="107.372089">
<time>2016-10-06T18:08:36Z</time></trkpt>
<trkpt lat="24.183115" lon="107.371989">
<time>2016-10-06T18:08:37Z</time></trkpt>
<trkpt lat="24.182945" lon="107.371859">
<time>2016-10-06T18:08:38Z</time></trkpt>
<trkpt lat="24.182795" lon="107.37159">
<time>2016-10-06T18:08:39Z</time></trkpt>
<trkpt lat="24.182706" lon="107.37119">
<time>2016-10-06T18:08:40Z</time></trkpt>
<trkpt lat="24.182676" lon="107.370981">
<time>2016-10-06T18:08:41Z</time></trkpt>
<trkpt lat="24.182616" lon="107.370691">
<time>2016-10-06T18:08:42Z</time></trkpt>
<trkpt lat="24.182506" lon="107.370531">
<time>2016-10-06T18:08:43Z</time></trkpt>
<trkpt lat="24.182266" lon="107.370282">
<time>2016-10-06T18:08:44Z</time></trkpt>
<trkpt lat="24.182027" lon="107.370112">
<time>2016-10-06T18:08:45Z</time></trkpt>
<trkpt lat="24.181857" lon="107.369942">
<time>2016-10-06T18:08:46Z</time></trkpt>
<trkpt lat="24.181757" lon="107.369723">
<time>2016-10-06T18:08:47Z</time></trkpt>
<trkpt lat="24.181747" lon="107.369463">
<time>2016-10-06T18:08:48Z</time></trkpt>
<trkpt lat="24.181818" lon="107.369204">
<time>2016-10-06T18:08:49Z</time></trkpt>
<trkpt lat="24.181958" lon="107.368854">
<time>2016-10-06T18:08:50Z</time></trkpt>
<trkpt lat="24.182149" lon="107.368285">
<time>2016-10-06T18:08:51Z</time></trkpt>
<trkpt lat="24.182279" lon="107.367766">
<time>2016-10-06T18:08:52Z</time></trkpt>
<trkpt lat="24.18231" lon="107.367486">
<time>2016-10-06T18:08:53Z</time></trkpt>
<trkpt lat="24.18226" lon="107.367017">
<time>2016-10-06T18:08:54Z</time></trkpt>
<trkpt lat="24.182141" lon="107.366538">
<time>2016-10-06T18:08:55Z</time></trkpt>
<trkpt lat="24.182051" lon="107.366328">
<time>2016-10-06T18:08:56Z</time></trkpt>
<trkpt lat="24.181951" lon="107.366178">
<time>2016-10-06T18:08:57Z</time></trkpt>
<trkpt lat="24.181831" lon="107.366089">
<time>2016-10-06T18:08:58Z</time></trkpt>
<trkpt lat="24.181711" lon="107.366039">
<time>2016-10-06T18:08:59Z</time></trkpt>
<trkpt lat="24.181431" lon="107.365979">
<time>2016-10-06T18:09:00Z</time></trkpt>
<trkpt lat="24.181031" lon="107.365909">
<time>2016-10-06T18:09:01Z</time></trkpt>
<trkpt lat="24.180931" lon="107.365879">
<time>2016-10-06T18:09:02Z</time></trkpt>
<trkpt lat="24.180851" lon="107.365849">
<time>2016-10-06T18:09:03Z</time></trkpt>
<trkpt lat="24.180781" lon="107.365809">
<time>2016-10-06T18:09:04Z</time></trkpt>
<trkpt lat="24.180701" lon="107.365739">
<time>2016-10-06T18:09:05Z</time></trkpt>
<trkpt lat="24.180631" lon="107.365669">
<time>2016-10-06T18:09:06Z</time></trkpt>
<trkpt lat="24.180601" lon="107.365619">
<time>2016-10-06T18:09:07Z</time></trkpt>
<trkpt lat="24.180571" lon="107.36557">
<time>2016-10-06T18:09:08Z</time></trkpt>
<trkpt lat="24.180521" lon="107.36549">
<time>2016-10-06T18:09:09Z</time></trkpt>
<trkpt lat="24.180492" lon="107.3654">
<time>2016-10-06T18:09:10Z</time></trkpt>
<trkpt lat="24.180462" lon="107.36529">
<time>2016-10-06T18:09:11Z</time></trkpt>
<trkpt lat="24.180432" lon="107.36517">
<time>2016-10-06T18:09:12Z</time></trkpt>
<trkpt lat="24.180402" lon="107.364881">
<time>2016-10-06T18:09:13Z</time></trkpt>
<trkpt lat="24.180363" lon="107.364521">
<time>2016-10-06T18:09:14Z</time></trkpt>
<trkpt lat="24.180323" lon="107.364362">
<time>2016-10-06T18:09:15Z</time></trkpt>
<trkpt lat="24.180263" lon="107.364242">
<time>2016-10-06T18:09:16Z</time></trkpt>
<trkpt lat="24.180193" lon="107.364162">
<time>2016-10-06T18:09:17Z</time></trkpt>
<trkpt lat="24.180113" lon="107.364082">
<time>2016-10-06T18:09:18Z</time></trkpt>
<trkpt lat="24.180003" lon="107.364022">
<time>2016-10-06T18:09:19Z</time></trkpt>
<trkpt lat="24.179843" lon="107.364002">
<time>2016-10-06T18:09:20Z</time></trkpt>
<trkpt lat="24.179733" lon="107.364012">
<time>2016-10-06T18:09:21Z</time></trkpt>
<trkpt lat="24.179613" lon="107.364052">
<time>2016-10-06T18:09:22Z</time></trkpt>
<trkpt lat="24.179493" lon="107.364112">
<time>2016-10-06T18:09:23Z</time></trkpt>
<trkpt lat="24.179333" lon="107.364252">
<time>2016-10-06T18:09:24Z</time></trkpt>
<trkpt lat="24.179182" lon="107.364422">
<time>2016-10-06T18:09:25Z</time></trkpt>
<trkpt lat="24.179062" lon="107.364541">
<time>2016-10-06T18:09:26Z</time></trkpt>
<trkpt lat="24.178892" lon="107.364711">
<time>2016-10-06T18:09:27Z</time></trkpt>
<trkpt lat="24.178691" lon="107.364921">
<time>2016-10-06T18:09:28Z</time></trkpt>
<trkpt lat="24.178451" lon="107.36514">
<time>2016-10-06T18:09:29Z</time></trkpt>
<trkpt lat="24.178391" lon="107.36517">
<time>2016-10-06T18:09:30Z</time></trkpt>
<trkpt lat="24.178311" lon="107.3652">
<time>2016-10-06T18:09:31Z</time></trkpt>
<trkpt lat="24.178191" lon="107.36522">
<time>2016-10-06T18:09:32Z</time></trkpt>
<trkpt lat="24.178121" lon="107.36522">
<time>2016-10-06T18:09:33Z</time></trkpt>
<trkpt lat="24.178001" lon="107.3652">
<time>2016-10-06T18:09:34Z</time></trkpt>
<trkpt lat="24.177841" lon="107.365101">
<time>2016-10-06T18:09:35Z</time></trkpt>
<trkpt lat="24.177771" lon="107.365041">
<time>2016-10-06T18:09:36Z</time></trkpt>
<trkpt lat="24.177711" lon="107.364941">
<time>2016-10-06T18:09:37Z</time></trkpt>
<trkpt lat="24.177631" lon="107.364731">
<time>2016-10-06T18:09:38Z</time></trkpt>
<trkpt lat="24.177611" lon="107.364502">
<time>2016-10-06T18:09:39Z</time></trkpt>
<trkpt lat="24.177563" lon="107.363124">
<time>2016-10-06T18:09:40Z</time></trkpt>
<trkpt lat="24.177564" lon="107.362914">
<time>2016-10-06T18:09:41Z</time></trkpt>
<trkpt lat="24.177614" lon="107.362645">
<time>2016-10-06T18:09:42Z</time></trkpt>
<trkpt lat="24.177684" lon="107.362415">
<time>2016-10-06T18:09:43Z</time></trkpt>
<trkpt lat="24.177795" lon="107.362136">
<time>2016-10-06T18:09:44Z</time></trkpt>
<trkpt lat="24.178116" lon="107.361417">
<time>2016-10-06T18:09:45Z</time></trkpt>
<trkpt lat="24.178427" lon="107.360678">
<time>2016-10-06T18:09:46Z</time></trkpt>
<trkpt lat="24.178467" lon="107.360509">
<time>2016-10-06T18:09:47Z</time></trkpt>
<trkpt lat="24.178497" lon="107.360289">
<time>2016-10-06T18:09:48Z</time></trkpt>
<trkpt lat="24.178488" lon="107.360189">
<time>2016-10-06T18:09:49Z</time></trkpt>
<trkpt lat="24.178458" lon="107.35998">
<time>2016-10-06T18:09:50Z</time></trkpt>
<trkpt lat="24.178418" lon="107.35987">
<time>2016-10-06T18:09:51Z</time></trkpt>
<trkpt lat="24.178328" lon="107.35966">
<time>2016-10-06T18:09:52Z</time></trkpt>
<trkpt lat="24.178268" lon="107.359581">
<time>2016-10-06T18:09:53Z</time></trkpt>
<trkpt lat="24.178099" lon="107.359291">
<time>2016-10-06T18:09:54Z</time></trkpt>
<trkpt lat="24.17766" lon="107.358543">
<time>2016-10-06T18:09:55Z</time></trkpt>
<trkpt lat="24.1775" lon="107.358123">
<time>2016-10-06T18:09:56Z</time></trkpt>
<trkpt lat="24.17747" lon="107.357974">
<time>2016-10-06T18:09:57Z</time></trkpt>
<trkpt lat="24.177431" lon="107.357684">
<time>2016-10-06T18:09:58Z</time></trkpt>
<trkpt lat="24.177431" lon="107.357505">
<time>2016-10-06T18:09:59Z</time></trkpt>
<trkpt lat="24.177432" lon="107.357075">
<time>2016-10-06T18:10:00Z</time></trkpt>
<trkpt lat="24.177433" lon="107.356237">
<time>2016-10-06T18:10:01Z</time></trkpt>
<trkpt lat="24.177433" lon="107.355968">
<time>2016-10-06T18:10:02Z</time></trkpt>
<trkpt lat="24.177415" lon="107.355179">
<time>2016-10-06T18:10:03Z</time></trkpt>
<trkpt lat="24.177355" lon="107.3546">
<time>2016-10-06T18:10:04Z</time></trkpt>
<trkpt lat="24.177326" lon="107.354471">
<time>2016-10-06T18:10:05Z</time></trkpt>
<trkpt lat="24.177276" lon="107.354291">
<time>2016-10-06T18:10:06Z</time></trkpt>
<trkpt lat="24.177196" lon="107.354111">
<time>2016-10-06T18:10:07Z</time></trkpt>
<trkpt lat="24.177027" lon="107.353782">
<time>2016-10-06T18:10:08Z</time></trkpt>
<trkpt lat="24.176787" lon="107.353383">
<time>2016-10-06T18:10:09Z</time></trkpt>
<trkpt lat="24.176039" lon="107.352066">
<time>2016-10-06T18:10:10Z</time></trkpt>
<trkpt lat="24.175869" lon="107.351746">
<time>2016-10-06T18:10:11Z</time></trkpt>
<trkpt lat="24.17581" lon="107.351477">
<time>2016-10-06T18:10:12Z</time></trkpt>
<trkpt lat="24.1758" lon="107.351287">
<time>2016-10-06T18:10:13Z</time></trkpt>
<trkpt lat="24.17583" lon="107.351048">
<time>2016-10-06T18:10:14Z</time></trkpt>
<trkpt lat="24.175891" lon="107.350898">
<time>2016-10-06T18:10:15Z</time></trkpt>
<trkpt lat="24.176111" lon="107.350509">
<time>2016-10-06T18:10:16Z</time></trkpt>
<trkpt lat="24.176242" lon="107.35032">
<time>2016-10-06T18:10:17Z</time></trkpt>
<trkpt lat="24.176613" lon="107.349721">
<time>2016-10-06T18:10:18Z</time></trkpt>
<trkpt lat="24.177024" lon="107.349072">
<time>2016-10-06T18:10:19Z</time></trkpt>
<trkpt lat="24.177215" lon="107.348633">
<time>2016-10-06T18:10:20Z</time></trkpt>
<trkpt lat="24.177265" lon="107.348503">
<time>2016-10-06T18:10:21Z</time></trkpt>
<trkpt lat="24.177295" lon="107.348374">
<time>2016-10-06T18:10:22Z</time></trkpt>
<trkpt lat="24.177436" lon="107.347785">
<time>2016-10-06T18:10:23Z</time></trkpt>
<trkpt lat="24.177507" lon="107.347426">
<time>2016-10-06T18:10:24Z</time></trkpt>
<trkpt lat="24.177618" lon="107.346867">
<time>2016-10-06T18:10:25Z</time></trkpt>
<trkpt lat="24.177729" lon="107.346328">
<time>2016-10-06T18:10:26Z</time></trkpt>
<trkpt lat="24.177759" lon="107.346139">
<time>2016-10-06T18:10:27Z</time></trkpt>
<trkpt lat="24.17777" lon="107.346019">
<time>2016-10-06T18:10:28Z</time></trkpt>
<trkpt lat="24.17778" lon="107.34573">
<time>2016-10-06T18:10:29Z</time></trkpt>
<trkpt lat="24.177771" lon="107.34539">
<time>2016-10-06T18:10:30Z</time></trkpt>
<trkpt lat="24.177761" lon="107.345211">
<time>2016-10-06T18:10:31Z</time></trkpt>
<trkpt lat="24.177741" lon="107.345021">
<time>2016-10-06T18:10:32Z</time></trkpt>
<trkpt lat="24.177574" lon="107.343674">
<time>2016-10-06T18:10:33Z</time></trkpt>
<trkpt lat="24.177416" lon="107.342278">
<time>2016-10-06T18:10:34Z</time></trkpt>
<trkpt lat="24.177386" lon="107.342028">
<time>2016-10-06T18:10:35Z</time></trkpt>
<trkpt lat="24.177377" lon="107.341729">
<time>2016-10-06T18:10:36Z</time></trkpt>
<trkpt lat="24.177387" lon="107.341549">
<time>2016-10-06T18:10:37Z</time></trkpt>
<trkpt lat="24.177408" lon="107.34143">
<time>2016-10-06T18:10:38Z</time></trkpt>
<trkpt lat="24.177438" lon="107.34124">
<time>2016-10-06T18:10:39Z</time></trkpt>
<trkpt lat="24.177478" lon="107.34106">
<time>2016-10-06T18:10:40Z</time></trkpt>
<trkpt lat="24.177579" lon="107.340721">
<time>2016-10-06T18:10:41Z</time></trkpt>
<trkpt lat="24.17773" lon="107.340352">
<time>2016-10-06T18:10:42Z</time></trkpt>
<trkpt lat="24.17788" lon="107.340083">
<time>2016-10-06T18:10:43Z</time></trkpt>
<trkpt lat="24.178141" lon="107.339823">
<time>2016-10-06T18:10:44Z</time></trkpt>
<trkpt lat="24.178531" lon="107.339604">
<time>2016-10-06T18:10:45Z</time></trkpt>
<trkpt lat="24.178672" lon="107.339494">
<time>2016-10-06T18:10:46Z</time></trkpt>
<trkpt lat="24.178732" lon="107.339414">
<time>2016-10-06T18:10:47Z</time></trkpt>
<trkpt lat="24.178812" lon="107.339255">
<time>2016-10-06T18:10:48Z</time></trkpt>
<trkpt lat="24.178842" lon="107.339105">
<time>2016-10-06T18:10:49Z</time></trkpt>
<trkpt lat="24.178853" lon="107.338965">
<time>2016-10-06T18:10:50Z</time></trkpt>
<trkpt lat="24.178853" lon="107.338836">
<time>2016-10-06T18:10:51Z</time></trkpt>
<trkpt lat="24.178843" lon="107.338656">
<time>2016-10-06T18:10:52Z</time></trkpt>
<trkpt lat="24.178833" lon="107.338476">
<time>2016-10-06T18:10:53Z</time></trkpt>
<trkpt lat="24.178804" lon="107.338277">
<time>2016-10-06T18:10:54Z</time></trkpt>
<trkpt lat="24.178764" lon="107.338057">
<time>2016-10-06T18:10:55Z</time></trkpt>
<trkpt lat="24.178705" lon="107.337848">
<time>2016-10-06T18:10:56Z</time></trkpt>
<trkpt lat="24.178615" lon="107.337648">
<time>2016-10-06T18:10:57Z</time></trkpt>
<trkpt lat="24.178037" lon="107.336551">
<time>2016-10-06T18:10:58Z</time></trkpt>
<trkpt lat="24.177399" lon="107.335304">
<time>2016-10-06T18:10:59Z</time></trkpt>
<trkpt lat="24.177259" lon="107.334965">
<time>2016-10-06T18:11:00Z</time></trkpt>
<trkpt lat="24.1772" lon="107.334616">
<time>2016-10-06T18:11:01Z</time></trkpt>
<trkpt lat="24.177201" lon="107.334287">
<time>2016-10-06T18:11:02Z</time></trkpt>
<trkpt lat="24.177251" lon="107.333898">
<time>2016-10-06T18:11:03Z</time></trkpt>
<trkpt lat="24.177352" lon="107.333588">
<time>2016-10-06T18:11:04Z</time></trkpt>
<trkpt lat="24.177593" lon="107.33301">
<time>2016-10-06T18:11:05Z</time></trkpt>
<trkpt lat="24.177905" lon="107.332242">
<time>2016-10-06T18:11:06Z</time></trkpt>
<trkpt lat="24.177935" lon="107.332112">
<time>2016-10-06T18:11:07Z</time></trkpt>
<trkpt lat="24.177965" lon="107.331992">
<time>2016-10-06T18:11:08Z</time></trkpt>
<trkpt lat="24.177965" lon="107.331863">
<time>2016-10-06T18:11:09Z</time></trkpt>
<trkpt lat="24.177936" lon="107.331693">
<time>2016-10-06T18:11:10Z</time></trkpt>
<trkpt lat="24.177906" lon="107.331563">
<time>2016-10-06T18:11:11Z</time></trkpt>
<trkpt lat="24.177866" lon="107.331483">
<time>2016-10-06T18:11:12Z</time></trkpt>
<trkpt lat="24.177836" lon="107.331414">
<time>2016-10-06T18:11:13Z</time></trkpt>
<trkpt lat="24.177766" lon="107.331314">
<time>2016-10-06T18:11:14Z</time></trkpt>
<trkpt lat="24.177657" lon="107.331194">
<time>2016-10-06T18:11:15Z</time></trkpt>
<trkpt lat="24.177557" lon="107.331124">
<time>2016-10-06T18:11:16Z</time></trkpt>
<trkpt lat="24.177467" lon="107.331074">
<time>2016-10-06T18:11:17Z</time></trkpt>
<trkpt lat="24.177187" lon="107.330975">
<time>2016-10-06T18:11:18Z</time></trkpt>
<trkpt lat="24.176967" lon="107.330915">
<time>2016-10-06T18:11:19Z</time></trkpt>
<trkpt lat="24.176917" lon="107.330905">
<time>2016-10-06T18:11:20Z</time></trkpt>
<trkpt lat="24.176197" lon="107.330745">
<time>2016-10-06T18:11:21Z</time></trkpt>
<trkpt lat="24.176047" lon="107.330705">
<time>2016-10-06T18:11:22Z</time></trkpt>
<trkpt lat="24.175937" lon="107.330656">
<time>2016-10-06T18:11:23Z</time></trkpt>
<trkpt lat="24.175777" lon="107.330546">
<time>2016-10-06T18:11:24Z</time></trkpt>
<trkpt lat="24.175647" lon="107.330406">
<time>2016-10-06T18:11:25Z</time></trkpt>
<trkpt lat="24.175587" lon="107.330306">
<time>2016-10-06T18:11:26Z</time></trkpt>
<trkpt lat="24.175528" lon="107.330167">
<time>2016-10-06T18:11:27Z</time></trkpt>
<trkpt lat="24.175498" lon="107.330017">
<time>2016-10-06T18:11:28Z</time></trkpt>
<trkpt lat="24.175498" lon="107.329888">
<time>2016-10-06T18:11:29Z</time></trkpt>
<trkpt lat="24.175509" lon="107.329578">
<time>2016-10-06T18:11:30Z</time></trkpt>
<trkpt lat="24.17562" lon="107.32905">
<time>2016-10-06T18:11:31Z</time></trkpt>
<trkpt lat="24.17566" lon="107.32887">
<time>2016-10-06T18:11:32Z</time></trkpt>
<trkpt lat="24.175781" lon="107.328252">
<time>2016-10-06T18:11:33Z</time></trkpt>
<trkpt lat="24.175832" lon="107.328002">
<time>2016-10-06T18:11:34Z</time></trkpt>
<trkpt lat="24.175862" lon="107.327803">
<time>2016-10-06T18:11:35Z</time></trkpt>
<trkpt lat="24.175883" lon="107.327633">
<time>2016-10-06T18:11:36Z</time></trkpt>
<trkpt lat="24.175873" lon="107.327314">
<time>2016-10-06T18:11:37Z</time></trkpt>
<trkpt lat="24.175824" lon="107.327045">
<time>2016-10-06T18:11:38Z</time></trkpt>
<trkpt lat="24.175754" lon="107.326815">
<time>2016-10-06T18:11:39Z</time></trkpt>
<trkpt lat="24.175575" lon="107.326346">
<time>2016-10-06T18:11:40Z</time></trkpt>
<trkpt lat="24.175445" lon="107.326067">
<time>2016-10-06T18:11:41Z</time></trkpt>
<trkpt lat="24.175256" lon="107.325748">
<time>2016-10-06T18:11:42Z</time></trkpt>
<trkpt lat="24.174847" lon="107.325289">
<time>2016-10-06T18:11:43Z</time></trkpt>
<trkpt lat="24.174487" lon="107.32495">
<time>2016-10-06T18:11:44Z</time></trkpt>
<trkpt lat="24.174367" lon="107.3248">
<time>2016-10-06T18:11:45Z</time></trkpt>
<trkpt lat="24.174298" lon="107.324681">
<time>2016-10-06T18:11:46Z</time></trkpt>
<trkpt lat="24.174258" lon="107.324571">
<time>2016-10-06T18:11:47Z</time></trkpt>
<trkpt lat="24.174218" lon="107.324431">
<time>2016-10-06T18:11:48Z</time></trkpt>
<trkpt lat="24.174208" lon="107.324311">
<time>2016-10-06T18:11:49Z</time></trkpt>
<trkpt lat="24.174189" lon="107.324072">
<time>2016-10-06T18:11:50Z</time></trkpt>
<trkpt lat="24.174179" lon="107.323713">
<time>2016-10-06T18:11:51Z</time></trkpt>
<trkpt lat="24.17416" lon="107.323603">
<time>2016-10-06T18:11:52Z</time></trkpt>
<trkpt lat="24.17412" lon="107.323404">
<time>2016-10-06T18:11:53Z</time></trkpt>
<trkpt lat="24.17409" lon="107.323324">
<time>2016-10-06T18:11:54Z</time></trkpt>
<trkpt lat="24.17406" lon="107.323234">
<time>2016-10-06T18:11:55Z</time></trkpt>
<trkpt lat="24.173951" lon="107.322965">
<time>2016-10-06T18:11:56Z</time></trkpt>
<trkpt lat="24.173572" lon="107.322346">
<time>2016-10-06T18:11:57Z</time></trkpt>
<trkpt lat="24.173392" lon="107.322147">
<time>2016-10-06T18:11:58Z</time></trkpt>
<trkpt lat="24.173222" lon="107.321967">
<time>2016-10-06T18:11:59Z</time></trkpt>
<trkpt lat="24.173182" lon="107.321927">
<time>2016-10-06T18:12:00Z</time></trkpt>
<trkpt lat="24.172893" lon="107.321738">
<time>2016-10-06T18:12:01Z</time></trkpt>
<trkpt lat="24.172513" lon="107.321558">
<time>2016-10-06T18:12:02Z</time></trkpt>
<trkpt lat="24.171753" lon="107.321269">
<time>2016-10-06T18:12:03Z</time></trkpt>
<trkpt lat="24.171433" lon="107.32109">
<time>2016-10-06T18:12:04Z</time></trkpt>
<trkpt lat="24.171353" lon="107.32102">
<time>2016-10-06T18:12:05Z</time></trkpt>
<trkpt lat="24.171304" lon="107.32095">
<time>2016-10-06T18:12:06Z</time></trkpt>
<trkpt lat="24.171274" lon="107.32089">
<time>2016-10-06T18:12:07Z</time></trkpt>
<trkpt lat="24.171244" lon="107.32083">
<time>2016-10-06T18:12:08Z</time></trkpt>
<trkpt lat="24.171204" lon="107.320721">
<time>2016-10-06T18:12:09Z</time></trkpt>
<trkpt lat="24.171184" lon="107.320621">
<time>2016-10-06T18:12:10Z</time></trkpt>
<trkpt lat="24.171174" lon="107.320471">
<time>2016-10-06T18:12:11Z</time></trkpt>
<trkpt lat="24.171165" lon="107.320322">
<time>2016-10-06T18:12:12Z</time></trkpt>
<trkpt lat="24.171146" lon="107.319863">
<time>2016-10-06T18:12:13Z</time></trkpt>
<trkpt lat="24.171157" lon="107.318895">
<time>2016-10-06T18:12:14Z</time></trkpt>
<trkpt lat="24.171159" lon="107.318327">
<time>2016-10-06T18:12:15Z</time></trkpt>
<trkpt lat="24.171139" lon="107.318187">
<time>2016-10-06T18:12:16Z</time></trkpt>
<trkpt lat="24.171129" lon="107.318137">
<time>2016-10-06T18:12:17Z</time></trkpt>
<trkpt lat="24.171109" lon="107.318047">
<time>2016-10-06T18:12:18Z</time></trkpt>
<trkpt lat="24.171089" lon="107.317987">
<time>2016-10-06T18:12:19Z</time></trkpt>
<trkpt lat="24.171069" lon="107.317938">
<time>2016-10-06T18:12:20Z</time></trkpt>
<trkpt lat="24.171019" lon="107.317858">
<time>2016-10-06T18:12:21Z</time></trkpt>
<trkpt lat="24.170959" lon="107.317788">
<time>2016-10-06T18:12:22Z</time></trkpt>
<trkpt lat="24.17086" lon="107.317688">
<time>2016-10-06T18:12:23Z</time></trkpt>
<trkpt lat="24.17072" lon="107.317618">
<time>2016-10-06T18:12:24Z</time></trkpt>
<trkpt lat="24.17062" lon="107.317568">
<time>2016-10-06T18:12:25Z</time></trkpt>
<trkpt lat="24.17046" lon="107.317519">
<time>2016-10-06T18:12:26Z</time></trkpt>
<trkpt lat="24.17021" lon="107.317449">
<time>2016-10-06T18:12:27Z</time></trkpt>
<trkpt lat="24.16891" lon="107.31705">
<time>2016-10-06T18:12:28Z</time></trkpt>
<trkpt lat="24.16872" lon="107.31698">
<time>2016-10-06T18:12:29Z</time></trkpt>
<trkpt lat="24.16858" lon="107.31692">
<time>2016-10-06T18:12:30Z</time></trkpt>
<trkpt lat="24.16847" lon="107.31686">
<time>2016-10-06T18:12:31Z</time></trkpt>
<trkpt lat="24.16832" lon="107.316761">
<time>2016-10-06T18:12:32Z</time></trkpt>
<trkpt lat="24.168151" lon="107.316611">
<time>2016-10-06T18:12:33Z</time></trkpt>
<trkpt lat="24.167402" lon="107.315833">
<time>2016-10-06T18:12:34Z</time></trkpt>
<trkpt lat="24.167132" lon="107.315594">
<time>2016-10-06T18:12:35Z</time></trkpt>
<trkpt lat="24.166962" lon="107.315464">
<time>2016-10-06T18:12:36Z</time></trkpt>
<trkpt lat="24.166663" lon="107.315264">
<time>2016-10-06T18:12:37Z</time></trkpt>
<trkpt lat="24.165963" lon="107.314806">
<time>2016-10-06T18:12:38Z</time></trkpt>
<trkpt lat="24.165803" lon="107.314706">
<time>2016-10-06T18:12:39Z</time></trkpt>
<trkpt lat="24.165693" lon="107.314656">
<time>2016-10-06T18:12:40Z</time></trkpt>
<trkpt lat="24.165603" lon="107.314616">
<time>2016-10-06T18:12:41Z</time></trkpt>
<trkpt lat="24.165503" lon="107.314586">
<time>2016-10-06T18:12:42Z</time></trkpt>
<trkpt lat="24.165423" lon="107.314566">
<time>2016-10-06T18:12:43Z</time></trkpt>
<trkpt lat="24.165333" lon="107.314546">
<time>2016-10-06T18:12:44Z</time></trkpt>
<trkpt lat="24.165253" lon="107.314546">
<time>2016-10-06T18:12:45Z</time></trkpt>
<trkpt lat="24.165173" lon="107.314546">
<time>2016-10-06T18:12:46Z</time></trkpt>
<trkpt lat="24.165083" lon="107.314546">
<time>2016-10-06T18:12:47Z</time></trkpt>
<trkpt lat="24.164983" lon="107.314566">
<time>2016-10-06T18:12:48Z</time></trkpt>
<trkpt lat="24.164873" lon="107.314596">
<time>2016-10-06T18:12:49Z</time></trkpt>
<trkpt lat="24.163151" lon="107.315105">
<time>2016-10-06T18:12:50Z</time></trkpt>
<trkpt lat="24.163021" lon="107.315145">
<time>2016-10-06T18:12:51Z</time></trkpt>
<trkpt lat="24.162921" lon="107.315165">
<time>2016-10-06T18:12:52Z</time></trkpt>
<trkpt lat="24.162831" lon="107.315175">
<time>2016-10-06T18:12:53Z</time></trkpt>
<trkpt lat="24.162721" lon="107.315175">
<time>2016-10-06T18:12:54Z</time></trkpt>
<trkpt lat="24.162621" lon="107.315155">
<time>2016-10-06T18:12:55Z</time></trkpt>
<trkpt lat="24.162521" lon="107.315125">
<time>2016-10-06T18:12:56Z</time></trkpt>
<trkpt lat="24.162421" lon="107.315085">
<time>2016-10-06T18:12:57Z</time></trkpt>
<trkpt lat="24.162311" lon="107.315025">
<time>2016-10-06T18:12:58Z</time></trkpt>
<trkpt lat="24.162211" lon="107.314965">
<time>2016-10-06T18:12:59Z</time></trkpt>
<trkpt lat="24.161102" lon="107.314217">
<time>2016-10-06T18:13:00Z</time></trkpt>
<trkpt lat="24.161022" lon="107.314147">
<time>2016-10-06T18:13:01Z</time></trkpt>
<trkpt lat="24.160952" lon="107.314078">
<time>2016-10-06T18:13:02Z</time></trkpt>
<trkpt lat="24.160912" lon="107.314028">
<time>2016-10-06T18:13:03Z</time></trkpt>
<trkpt lat="24.160883" lon="107.313988">
<time>2016-10-06T18:13:04Z</time></trkpt>
<trkpt lat="24.160813" lon="107.313858">
<time>2016-10-06T18:13:05Z</time></trkpt>
<trkpt lat="24.160743" lon="107.313689">
<time>2016-10-06T18:13:06Z</time></trkpt>
<trkpt lat="24.159133" lon="107.307833">
<time>2016-10-06T18:13:07Z</time></trkpt>
<trkpt lat="24.159014" lon="107.307424">
<time>2016-10-06T18:13:08Z</time></trkpt>
<trkpt lat="24.158984" lon="107.307294">
<time>2016-10-06T18:13:09Z</time></trkpt>
<trkpt lat="24.158974" lon="107.307214">
<time>2016-10-06T18:13:10Z</time></trkpt>
<trkpt lat="24.158974" lon="107.307145">
<time>2016-10-06T18:13:11Z</time></trkpt>
<trkpt lat="24.158975" lon="107.307055">
<time>2016-10-06T18:13:12Z</time></trkpt>
<trkpt lat="24.158985" lon="107.306965">
<time>2016-10-06T18:13:13Z</time></trkpt>
<trkpt lat="24.159005" lon="107.306865">
<time>2016-10-06T18:13:14Z</time></trkpt>
<trkpt lat="24.159025" lon="107.306776">
<time>2016-10-06T18:13:15Z</time></trkpt>
<trkpt lat="24.159055" lon="107.306686">
<time>2016-10-06T18:13:16Z</time></trkpt>
<trkpt lat="24.159146" lon="107.306516">
<time>2016-10-06T18:13:17Z</time></trkpt>
<trkpt lat="24.159296" lon="107.306287">
<time>2016-10-06T18:13:18Z</time></trkpt>
<trkpt lat="24.162314" lon="107.302426">
<time>2016-10-06T18:13:19Z</time></trkpt>
<trkpt lat="24.162394" lon="107.302306">
<time>2016-10-06T18:13:20Z</time></trkpt>
<trkpt lat="24.162425" lon="107.302216">
<time>2016-10-06T18:13:21Z</time></trkpt>
<trkpt lat="24.162455" lon="107.302096">
<time>2016-10-06T18:13:22Z</time></trkpt>
<trkpt lat="24.162465" lon="107.302007">
<time>2016-10-06T18:13:23Z</time></trkpt>
<trkpt lat="24.162455" lon="107.301897">
<time>2016-10-06T18:13:24Z</time></trkpt>
<trkpt lat="24.162435" lon="107.301797">
<time>2016-10-06T18:13:25Z</time></trkpt>
<trkpt lat="24.162405" lon="107.301717">
<time>2016-10-06T18:13:26Z</time></trkpt>
<trkpt lat="24.162375" lon="107.301647">
<time>2016-10-06T18:13:27Z</time></trkpt>
<trkpt lat="24.162336" lon="107.301578">
<time>2016-10-06T18:13:28Z</time></trkpt>
<trkpt lat="24.162306" lon="107.301538">
<time>2016-10-06T18:13:29Z</time></trkpt>
<trkpt lat="24.162256" lon="107.301498">
<time>2016-10-06T18:13:30Z</time></trkpt>
<trkpt lat="24.162196" lon="107.301448">
<time>2016-10-06T18:13:31Z</time></trkpt>
<trkpt lat="24.162126" lon="107.301408">
<time>2016-10-06T18:13:32Z</time></trkpt>
<trkpt lat="24.162036" lon="107.301358">
<time>2016-10-06T18:13:33Z</time></trkpt>
<trkpt lat="24.161776" lon="107.301238">
<time>2016-10-06T18:13:34Z</time></trkpt>
<trkpt lat="24.160357" lon="107.30057">
<time>2016-10-06T18:13:35Z</time></trkpt>
<trkpt lat="24.159737" lon="107.300251">
<time>2016-10-06T18:13:36Z</time></trkpt>
<trkpt lat="24.159317" lon="107.299981">
<time>2016-10-06T18:13:37Z</time></trkpt>
<trkpt lat="24.158528" lon="107.299463">
<time>2016-10-06T18:13:38Z</time></trkpt>
<trkpt lat="24.158198" lon="107.299223">
<time>2016-10-06T18:13:39Z</time></trkpt>
<trkpt lat="24.158078" lon="107.299094">
<time>2016-10-06T18:13:40Z</time></trkpt>
<trkpt lat="24.158008" lon="107.298984">
<time>2016-10-06T18:13:41Z</time></trkpt>
<trkpt lat="24.157958" lon="107.298844">
<time>2016-10-06T18:13:42Z</time></trkpt>
<trkpt lat="24.157939" lon="107.298724">
<time>2016-10-06T18:13:43Z</time></trkpt>
<trkpt lat="24.157939" lon="107.298635">
<time>2016-10-06T18:13:44Z</time></trkpt>
<trkpt lat="24.157959" lon="107.298535">
<time>2016-10-06T18:13:45Z</time></trkpt>
<trkpt lat="24.157979" lon="107.298435">
<time>2016-10-06T18:13:46Z</time></trkpt>
<trkpt lat="24.158039" lon="107.298315">
<time>2016-10-06T18:13:47Z</time></trkpt>
<trkpt lat="24.1581" lon="107.298196">
<time>2016-10-06T18:13:48Z</time></trkpt>
<trkpt lat="24.15827" lon="107.297956">
<time>2016-10-06T18:13:49Z</time></trkpt>
<trkpt lat="24.158992" lon="107.297018">
<time>2016-10-06T18:13:50Z</time></trkpt>
<trkpt lat="24.159022" lon="107.296968">
<time>2016-10-06T18:13:51Z</time></trkpt>
<trkpt lat="24.159072" lon="107.296918">
<time>2016-10-06T18:13:52Z</time></trkpt>
<trkpt lat="24.159132" lon="107.296878">
<time>2016-10-06T18:13:53Z</time></trkpt>
<trkpt lat="24.159182" lon="107.296839">
<time>2016-10-06T18:13:54Z</time></trkpt>
<trkpt lat="24.159292" lon="107.296779">
<time>2016-10-06T18:13:55Z</time></trkpt>
<trkpt lat="24.159342" lon="107.296749">
<time>2016-10-06T18:13:56Z</time></trkpt>
<trkpt lat="24.159393" lon="107.296729">
<time>2016-10-06T18:13:57Z</time></trkpt>
<trkpt lat="24.159453" lon="107.296719">
<time>2016-10-06T18:13:58Z</time></trkpt>
<trkpt lat="24.159513" lon="107.296709">
<time>2016-10-06T18:13:59Z</time></trkpt>
<trkpt lat="24.159573" lon="107.296699">
<time>2016-10-06T18:14:00Z</time></trkpt>
<trkpt lat="24.159903" lon="107.296679">
<time>2016-10-06T18:14:01Z</time></trkpt>
<trkpt lat="24.159993" lon="107.296669">
<time>2016-10-06T18:14:02Z</time></trkpt>
<trkpt lat="24.160103" lon="107.296649">
<time>2016-10-06T18:14:03Z</time></trkpt>
<trkpt lat="24.160163" lon="107.296629">
<time>2016-10-06T18:14:04Z</time></trkpt>
<trkpt lat="24.160243" lon="107.296599">
<time>2016-10-06T18:14:05Z</time></trkpt>
<trkpt lat="24.160313" lon="107.296559">
<time>2016-10-06T18:14:06Z</time></trkpt>
<trkpt lat="24.160393" lon="107.296509">
<time>2016-10-06T18:14:07Z</time></trkpt>
<trkpt lat="24.160473" lon="107.296439">
<time>2016-10-06T18:14:08Z</time></trkpt>
<trkpt lat="24.160544" lon="107.29636">
<time>2016-10-06T18:14:09Z</time></trkpt>
<trkpt lat="24.160634" lon="107.29624">
<time>2016-10-06T18:14:10Z</time></trkpt>
<trkpt lat="24.161376" lon="107.295222">
<time>2016-10-06T18:14:11Z</time></trkpt>
<trkpt lat="24.161466" lon="107.295082">
<time>2016-10-06T18:14:12Z</time></trkpt>
<trkpt lat="24.161526" lon="107.294973">
<time>2016-10-06T18:14:13Z</time></trkpt>
<trkpt lat="24.161576" lon="107.294853">
<time>2016-10-06T18:14:14Z</time></trkpt>
<trkpt lat="24.161617" lon="107.294723">
<time>2016-10-06T18:14:15Z</time></trkpt>
<trkpt lat="24.162552" lon="107.29152">
<time>2016-10-06T18:14:16Z</time></trkpt>
<trkpt lat="24.162813" lon="107.290602">
<time>2016-10-06T18:14:17Z</time></trkpt>
<trkpt lat="24.162864" lon="107.290372">
<time>2016-10-06T18:14:18Z</time></trkpt>
<trkpt lat="24.162894" lon="107.290203">
<time>2016-10-06T18:14:19Z</time></trkpt>
<trkpt lat="24.162904" lon="107.290113">
<time>2016-10-06T18:14:20Z</time></trkpt>
<trkpt lat="24.162914" lon="107.290003">
<time>2016-10-06T18:14:21Z</time></trkpt>
<trkpt lat="24.162905" lon="107.289863">
<time>2016-10-06T18:14:22Z</time></trkpt>
<trkpt lat="24.162905" lon="107.289764">
<time>2016-10-06T18:14:23Z</time></trkpt>
<trkpt lat="24.162895" lon="107.289654">
<time>2016-10-06T18:14:24Z</time></trkpt>
<trkpt lat="24.162875" lon="107.289544">
<time>2016-10-06T18:14:25Z</time></trkpt>
<trkpt lat="24.162845" lon="107.289444">
<time>2016-10-06T18:14:26Z</time></trkpt>
<trkpt lat="24.162656" lon="107.288796">
<time>2016-10-06T18:14:27Z</time></trkpt>
<trkpt lat="24.162626" lon="107.288686">
<time>2016-10-06T18:14:28Z</time></trkpt>
<trkpt lat="24.162596" lon="107.288576">
<time>2016-10-06T18:14:29Z</time></trkpt>
<trkpt lat="24.162587" lon="107.288486">
<time>2016-10-06T18:14:30Z</time></trkpt>
<trkpt lat="24.162567" lon="107.288356">
<time>2016-10-06T18:14:31Z</time></trkpt>
<trkpt lat="24.162567" lon="107.288227">
<time>2016-10-06T18:14:32Z</time></trkpt>
<trkpt lat="24.162567" lon="107.288107">
<time>2016-10-06T18:14:33Z</time></trkpt>
<trkpt lat="24.162587" lon="107.287867">
<time>2016-10-06T18:14:34Z</time></trkpt>
<trkpt lat="24.162759" lon="107.286909">
<time>2016-10-06T18:14:35Z</time></trkpt>
<trkpt lat="24.16282" lon="107.28641">
<time>2016-10-06T18:14:36Z</time></trkpt>
<trkpt lat="24.16283" lon="107.286191">
<time>2016-10-06T18:14:37Z</time></trkpt>
<trkpt lat="24.16282" lon="107.285941">
<time>2016-10-06T18:14:38Z</time></trkpt>
<trkpt lat="24.16279" lon="107.285722">
<time>2016-10-06T18:14:39Z</time></trkpt>
<trkpt lat="24.162731" lon="107.285472">
<time>2016-10-06T18:14:40Z</time></trkpt>
<trkpt lat="24.162631" lon="107.285183">
<time>2016-10-06T18:14:41Z</time></trkpt>
<trkpt lat="24.162542" lon="107.284843">
<time>2016-10-06T18:14:42Z</time></trkpt>
<trkpt lat="24.162512" lon="107.284634">
<time>2016-10-06T18:14:43Z</time></trkpt>
<trkpt lat="24.162492" lon="107.284424">
<time>2016-10-06T18:14:44Z</time></trkpt>
<trkpt lat="24.162492" lon="107.284175">
<time>2016-10-06T18:14:45Z</time></trkpt>
<trkpt lat="24.162523" lon="107.283805">
<time>2016-10-06T18:14:46Z</time></trkpt>
<trkpt lat="24.162523" lon="107.283516">
<time>2016-10-06T18:14:47Z</time></trkpt>
<trkpt lat="24.162504" lon="107.283286">
<time>2016-10-06T18:14:48Z</time></trkpt>
<trkpt lat="24.162474" lon="107.283077">
<time>2016-10-06T18:14:49Z</time></trkpt>
<trkpt lat="24.162424" lon="107.282887">
<time>2016-10-06T18:14:50Z</time></trkpt>
<trkpt lat="24.162344" lon="107.282677">
<time>2016-10-06T18:14:51Z</time></trkpt>
<trkpt lat="24.161596" lon="107.280841">
<time>2016-10-06T18:14:52Z</time></trkpt>
<trkpt lat="24.161537" lon="107.280641">
<time>2016-10-06T18:14:53Z</time></trkpt>
<trkpt lat="24.161487" lon="107.280462">
<time>2016-10-06T18:14:54Z</time></trkpt>
<trkpt lat="24.161477" lon="107.280292">
<time>2016-10-06T18:14:55Z</time></trkpt>
<trkpt lat="24.161477" lon="107.280152">
<time>2016-10-06T18:14:56Z</time></trkpt>
<trkpt lat="24.161487" lon="107.280022">
<time>2016-10-06T18:14:57Z</time></trkpt>
<trkpt lat="24.161508" lon="107.279853">
<time>2016-10-06T18:14:58Z</time></trkpt>
<trkpt lat="24.161588" lon="107.279463">
<time>2016-10-06T18:14:59Z</time></trkpt>
<trkpt lat="24.161628" lon="107.279314">
<time>2016-10-06T18:15:00Z</time></trkpt>
<trkpt lat="24.161658" lon="107.279134">
<time>2016-10-06T18:15:01Z</time></trkpt>
<trkpt lat="24.161679" lon="107.278974">
<time>2016-10-06T18:15:02Z</time></trkpt>
<trkpt lat="24.161679" lon="107.278795">
<time>2016-10-06T18:15:03Z</time></trkpt>
<trkpt lat="24.161669" lon="107.278625">
<time>2016-10-06T18:15:04Z</time></trkpt>
<trkpt lat="24.161629" lon="107.278485">
<time>2016-10-06T18:15:05Z</time></trkpt>
<trkpt lat="24.161599" lon="107.278375">
<time>2016-10-06T18:15:06Z</time></trkpt>
<trkpt lat="24.161549" lon="107.278245">
<time>2016-10-06T18:15:07Z</time></trkpt>
<trkpt lat="24.16127" lon="107.277667">
<time>2016-10-06T18:15:08Z</time></trkpt>
<trkpt lat="24.16122" lon="107.277517">
<time>2016-10-06T18:15:09Z</time></trkpt>
<trkpt lat="24.16121" lon="107.277417">
<time>2016-10-06T18:15:10Z</time></trkpt>
<trkpt lat="24.16121" lon="107.277317">
<time>2016-10-06T18:15:11Z</time></trkpt>
<trkpt lat="24.16123" lon="107.277217">
<time>2016-10-06T18:15:12Z</time></trkpt>
<trkpt lat="24.161261" lon="107.277127">
<time>2016-10-06T18:15:13Z</time></trkpt>
<trkpt lat="24.161311" lon="107.277038">
<time>2016-10-06T18:15:14Z</time></trkpt>
<trkpt lat="24.161371" lon="107.276958">
<time>2016-10-06T18:15:15Z</time></trkpt>
<trkpt lat="24.161461" lon="107.276878">
<time>2016-10-06T18:15:16Z</time></trkpt>
<trkpt lat="24.161581" lon="107.276788">
<time>2016-10-06T18:15:17Z</time></trkpt>
<trkpt lat="24.161711" lon="107.276728">
<time>2016-10-06T18:15:18Z</time></trkpt>
<trkpt lat="24.161861" lon="107.276668">
<time>2016-10-06T18:15:19Z</time></trkpt>
<trkpt lat="24.162502" lon="107.276399">
<time>2016-10-06T18:15:20Z</time></trkpt>
<trkpt lat="24.163122" lon="107.276149">
<time>2016-10-06T18:15:21Z</time></trkpt>
<trkpt lat="24.163393" lon="107.276019">
<time>2016-10-06T18:15:22Z</time></trkpt>
<trkpt lat="24.163513" lon="107.275939">
<time>2016-10-06T18:15:23Z</time></trkpt>
<trkpt lat="24.163653" lon="107.275829">
<time>2016-10-06T18:15:24Z</time></trkpt>
<trkpt lat="24.163783" lon="107.27571">
<time>2016-10-06T18:15:25Z</time></trkpt>
<trkpt lat="24.163883" lon="107.27558">
<time>2016-10-06T18:15:26Z</time></trkpt>
<trkpt lat="24.163974" lon="107.27544">
<time>2016-10-06T18:15:27Z</time></trkpt>
<trkpt lat="24.164144" lon="107.275131">
<time>2016-10-06T18:15:28Z</time></trkpt>
<trkpt lat="24.164264" lon="107.274861">
<time>2016-10-06T18:15:29Z</time></trkpt>
<trkpt lat="24.164365" lon="107.274621">
<time>2016-10-06T18:15:30Z</time></trkpt>
<trkpt lat="24.164415" lon="107.274422">
<time>2016-10-06T18:15:31Z</time></trkpt>
<trkpt lat="24.164445" lon="107.274232">
<time>2016-10-06T18:15:32Z</time></trkpt>
<trkpt lat="24.164445" lon="107.274102">
<time>2016-10-06T18:15:33Z</time></trkpt>
<trkpt lat="24.164425" lon="107.273923">
<time>2016-10-06T18:15:34Z</time></trkpt>
<trkpt lat="24.164385" lon="107.273763">
<time>2016-10-06T18:15:35Z</time></trkpt>
<trkpt lat="24.164316" lon="107.273573">
<time>2016-10-06T18:15:36Z</time></trkpt>
<trkpt lat="24.164226" lon="107.273393">
<time>2016-10-06T18:15:37Z</time></trkpt>
<trkpt lat="24.164116" lon="107.273224">
<time>2016-10-06T18:15:38Z</time></trkpt>
<trkpt lat="24.163856" lon="107.272884">
<time>2016-10-06T18:15:39Z</time></trkpt>
<trkpt lat="24.163626" lon="107.272615">
<time>2016-10-06T18:15:40Z</time></trkpt>
<trkpt lat="24.163486" lon="107.272475">
<time>2016-10-06T18:15:41Z</time></trkpt>
<trkpt lat="24.163376" lon="107.272385">
<time>2016-10-06T18:15:42Z</time></trkpt>
<trkpt lat="24.163216" lon="107.272265">
<time>2016-10-06T18:15:43Z</time></trkpt>
<trkpt lat="24.163067" lon="107.272165">
<time>2016-10-06T18:15:44Z</time></trkpt>
<trkpt lat="24.162897" lon="107.272075">
<time>2016-10-06T18:15:45Z</time></trkpt>
<trkpt lat="24.162747" lon="107.272006">
<time>2016-10-06T18:15:46Z</time></trkpt>
<trkpt lat="24.162617" lon="107.271966">
<time>2016-10-06T18:15:47Z</time></trkpt>
<trkpt lat="24.162477" lon="107.271926">
<time>2016-10-06T18:15:48Z</time></trkpt>
<trkpt lat="24.162296" lon="107.271876">
<time>2016-10-06T18:15:49Z</time></trkpt>
<trkpt lat="24.162106" lon="107.271856">
<time>2016-10-06T18:15:50Z</time></trkpt>
<trkpt lat="24.161916" lon="107.271836">
<time>2016-10-06T18:15:51Z</time></trkpt>
<trkpt lat="24.160736" lon="107.271856">
<time>2016-10-06T18:15:52Z</time></trkpt>
<trkpt lat="24.160406" lon="107.271846">
<time>2016-10-06T18:15:53Z</time></trkpt>
<trkpt lat="24.160276" lon="107.271826">
<time>2016-10-06T18:15:54Z</time></trkpt>
<trkpt lat="24.160156" lon="107.271786">
<time>2016-10-06T18:15:55Z</time></trkpt>
<trkpt lat="24.159976" lon="107.271696">
<time>2016-10-06T18:15:56Z</time></trkpt>
<trkpt lat="24.159826" lon="107.271616">
<time>2016-10-06T18:15:57Z</time></trkpt>
<trkpt lat="24.159256" lon="107.271237">
<time>2016-10-06T18:15:58Z</time></trkpt>
<trkpt lat="24.158856" lon="107.270977">
<time>2016-10-06T18:15:59Z</time></trkpt>
<trkpt lat="24.158056" lon="107.270558">
<time>2016-10-06T18:16:00Z</time></trkpt>
<trkpt lat="24.156096" lon="107.26956">
<time>2016-10-06T18:16:01Z</time></trkpt>
<trkpt lat="24.152966" lon="107.267982">
<time>2016-10-06T18:16:02Z</time></trkpt>
<trkpt lat="24.152636" lon="107.267802">
<time>2016-10-06T18:16:03Z</time></trkpt>
<trkpt lat="24.152466" lon="107.267702">
<time>2016-10-06T18:16:04Z</time></trkpt>
<trkpt lat="24.152316" lon="107.267573">
<time>2016-10-06T18:16:05Z</time></trkpt>
<trkpt lat="24.152176" lon="107.267453">
<time>2016-10-06T18:16:06Z</time></trkpt>
<trkpt lat="24.152056" lon="107.267313">
<time>2016-10-06T18:16:07Z</time></trkpt>
<trkpt lat="24.151946" lon="107.267103">
<time>2016-10-06T18:16:08Z</time></trkpt>
<trkpt lat="24.151717" lon="107.266544">
<time>2016-10-06T18:16:09Z</time></trkpt>
<trkpt lat="24.151517" lon="107.266154">
<time>2016-10-06T18:16:10Z</time></trkpt>
<trkpt lat="24.151337" lon="107.265695">
<time>2016-10-06T18:16:11Z</time></trkpt>
<trkpt lat="24.151008" lon="107.264896">
<time>2016-10-06T18:16:12Z</time></trkpt>
<trkpt lat="24.151008" lon="107.264896">
<time>2016-10-06T18:16:13Z</time></trkpt>
<trkpt lat="24.150938" lon="107.264756">
<time>2016-10-06T18:16:14Z</time></trkpt>
<trkpt lat="24.150848" lon="107.264626">
<time>2016-10-06T18:16:15Z</time></trkpt>
<trkpt lat="24.150808" lon="107.264577">
<time>2016-10-06T18:16:16Z</time></trkpt>
<trkpt lat="24.150758" lon="107.264537">
<time>2016-10-06T18:16:17Z</time></trkpt>
<trkpt lat="24.150718" lon="107.264507">
<time>2016-10-06T18:16:18Z</time></trkpt>
<trkpt lat="24.150668" lon="107.264477">
<time>2016-10-06T18:16:19Z</time></trkpt>
<trkpt lat="24.150618" lon="107.264457">
<time>2016-10-06T18:16:20Z</time></trkpt>
<trkpt lat="24.150538" lon="107.264437">
<time>2016-10-06T18:16:21Z</time></trkpt>
<trkpt lat="24.150448" lon="107.264427">
<time>2016-10-06T18:16:22Z</time></trkpt>
<trkpt lat="24.150098" lon="107.264427">
<time>2016-10-06T18:16:23Z</time></trkpt>
<trkpt lat="24.149978" lon="107.264417">
<time>2016-10-06T18:16:24Z</time></trkpt>
<trkpt lat="24.149918" lon="107.264407">
<time>2016-10-06T18:16:25Z</time></trkpt>
<trkpt lat="24.149848" lon="107.264377">
<time>2016-10-06T18:16:26Z</time></trkpt>
<trkpt lat="24.149798" lon="107.264347">
<time>2016-10-06T18:16:27Z</time></trkpt>
<trkpt lat="24.149728" lon="107.264307">
<time>2016-10-06T18:16:28Z</time></trkpt>
<trkpt lat="24.149678" lon="107.264257">
<time>2016-10-06T18:16:29Z</time></trkpt>
<trkpt lat="24.149638" lon="107.264197">
<time>2016-10-06T18:16:30Z</time></trkpt>
<trkpt lat="24.149608" lon="107.264137">
<time>2016-10-06T18:16:31Z</time></trkpt>
<trkpt lat="24.149578" lon="107.264077">
<time>2016-10-06T18:16:32Z</time></trkpt>
<trkpt lat="24.149548" lon="107.264007">
<time>2016-10-06T18:16:33Z</time></trkpt>
<trkpt lat="24.149538" lon="107.263917">
<time>2016-10-06T18:16:34Z</time></trkpt>
<trkpt lat="24.149528" lon="107.263808">
<time>2016-10-06T18:16:35Z</time></trkpt>
<trkpt lat="24.149528" lon="107.263588">
<time>2016-10-06T18:16:36Z</time></trkpt>
<trkpt lat="24.149599" lon="107.26203">
<time>2016-10-06T18:16:37Z</time></trkpt>
<trkpt lat="24.149609" lon="107.26174">
<time>2016-10-06T18:16:38Z</time></trkpt>
<trkpt lat="24.149599" lon="107.2616">
<time>2016-10-06T18:16:39Z</time></trkpt>
<trkpt lat="24.149589" lon="107.26152">
<time>2016-10-06T18:16:40Z</time></trkpt>
<trkpt lat="24.149559" lon="107.26144">
<time>2016-10-06T18:16:41Z</time></trkpt>
<trkpt lat="24.149509" lon="107.26135">
<time>2016-10-06T18:16:42Z</time></trkpt>
<trkpt lat="24.149449" lon="107.261271">
<time>2016-10-06T18:16:43Z</time></trkpt>
<trkpt lat="24.149379" lon="107.261201">
<time>2016-10-06T18:16:44Z</time></trkpt>
<trkpt lat="24.149249" lon="107.261101">
<time>2016-10-06T18:16:45Z</time></trkpt>
<trkpt lat="24.148969" lon="107.260901">
<time>2016-10-06T18:16:46Z</time></trkpt>
<trkpt lat="24.148399" lon="107.260491">
<time>2016-10-06T18:16:47Z</time></trkpt>
<trkpt lat="24.148199" lon="107.260332">
<time>2016-10-06T18:16:48Z</time></trkpt>
<trkpt lat="24.148089" lon="107.260232">
<time>2016-10-06T18:16:49Z</time></trkpt>
<trkpt lat="24.148009" lon="107.260132">
<time>2016-10-06T18:16:50Z</time></trkpt>
<trkpt lat="24.147919" lon="107.260022">
<time>2016-10-06T18:16:51Z</time></trkpt>
<trkpt lat="24.147829" lon="107.259902">
<time>2016-10-06T18:16:52Z</time></trkpt>
<trkpt lat="24.147769" lon="107.259802">
<time>2016-10-06T18:16:53Z</time></trkpt>
<trkpt lat="24.14774" lon="107.259742">
<time>2016-10-06T18:16:54Z</time></trkpt>
<trkpt lat="24.14772" lon="107.259672">
<time>2016-10-06T18:16:55Z</time></trkpt>
<trkpt lat="24.14771" lon="107.259612">
<time>2016-10-06T18:16:56Z</time></trkpt>
<trkpt lat="24.14771" lon="107.259532">
<time>2016-10-06T18:16:57Z</time></trkpt>
<trkpt lat="24.14772" lon="107.259463">
<time>2016-10-06T18:16:58Z</time></trkpt>
<trkpt lat="24.14773" lon="107.259403">
<time>2016-10-06T18:16:59Z</time></trkpt>
<trkpt lat="24.14775" lon="107.259343">
<time>2016-10-06T18:17:00Z</time></trkpt>
<trkpt lat="24.14778" lon="107.259273">
<time>2016-10-06T18:17:01Z</time></trkpt>
<trkpt lat="24.14782" lon="107.259183">
<time>2016-10-06T18:17:02Z</time></trkpt>
<trkpt lat="24.14831" lon="107.258284">
<time>2016-10-06T18:17:03Z</time></trkpt>
<trkpt lat="24.148501" lon="107.257824">
<time>2016-10-06T18:17:04Z</time></trkpt>
<trkpt lat="24.148621" lon="107.257554">
<time>2016-10-06T18:17:05Z</time></trkpt>
<trkpt lat="24.148741" lon="107.257365">
<time>2016-10-06T18:17:06Z</time></trkpt>
<trkpt lat="24.148981" lon="107.257075">
<time>2016-10-06T18:17:07Z</time></trkpt>
<trkpt lat="24.149081" lon="107.256945">
<time>2016-10-06T18:17:08Z</time></trkpt>
<trkpt lat="24.149131" lon="107.256875">
<time>2016-10-06T18:17:09Z</time></trkpt>
<trkpt lat="24.149171" lon="107.256775">
<time>2016-10-06T18:17:10Z</time></trkpt>
<trkpt lat="24.149192" lon="107.256715">
<time>2016-10-06T18:17:11Z</time></trkpt>
<trkpt lat="24.149202" lon="107.256645">
<time>2016-10-06T18:17:12Z</time></trkpt>
<trkpt lat="24.149212" lon="107.256565">
<time>2016-10-06T18:17:13Z</time></trkpt>
<trkpt lat="24.149212" lon="107.256525">
<time>2016-10-06T18:17:14Z</time></trkpt>
<trkpt lat="24.149212" lon="107.256485">
<time>2016-10-06T18:17:15Z</time></trkpt>
<trkpt lat="24.149202" lon="107.256445">
<time>2016-10-06T18:17:16Z</time></trkpt>
<trkpt lat="24.149202" lon="107.256406">
<time>2016-10-06T18:17:17Z</time></trkpt>
<trkpt lat="24.149192" lon="107.256366">
<time>2016-10-06T18:17:18Z</time></trkpt>
<trkpt lat="24.149182" lon="107.256326">
<time>2016-10-06T18:17:19Z</time></trkpt>
<trkpt lat="24.149162" lon="107.256296">
<time>2016-10-06T18:17:20Z</time></trkpt>
<trkpt lat="24.149152" lon="107.256266">
<time>2016-10-06T18:17:21Z</time></trkpt>
<trkpt lat="24.149132" lon="107.256236">
<time>2016-10-06T18:17:22Z</time></trkpt>
<trkpt lat="24.149102" lon="107.256196">
<time>2016-10-06T18:17:23Z</time></trkpt>
<trkpt lat="24.149062" lon="107.256156">
<time>2016-10-06T18:17:24Z</time></trkpt>
<trkpt lat="24.149022" lon="107.256126">
<time>2016-10-06T18:17:25Z</time></trkpt>
<trkpt lat="24.148992" lon="107.256116">
<time>2016-10-06T18:17:26Z</time></trkpt>
<trkpt lat="24.148972" lon="107.256096">
<time>2016-10-06T18:17:27Z</time></trkpt>
<trkpt lat="24.148942" lon="107.256086">
<time>2016-10-06T18:17:28Z</time></trkpt>
<trkpt lat="24.148892" lon="107.256066">
<time>2016-10-06T18:17:29Z</time></trkpt>
<trkpt lat="24.148832" lon="107.256046">
<time>2016-10-06T18:17:30Z</time></trkpt>
<trkpt lat="24.148522" lon="107.255966">
<time>2016-10-06T18:17:31Z</time></trkpt>
<trkpt lat="24.148412" lon="107.255936">
<time>2016-10-06T18:17:32Z</time></trkpt>
<trkpt lat="24.148301" lon="107.255896">
<time>2016-10-06T18:17:33Z</time></trkpt>
<trkpt lat="24.148201" lon="107.255856">
<time>2016-10-06T18:17:34Z</time></trkpt>
<trkpt lat="24.148111" lon="107.255816">
<time>2016-10-06T18:17:35Z</time></trkpt>
<trkpt lat="24.147991" lon="107.255756">
<time>2016-10-06T18:17:36Z</time></trkpt>
<trkpt lat="24.147801" lon="107.255636">
<time>2016-10-06T18:17:37Z</time></trkpt>
<trkpt lat="24.147161" lon="107.255257">
<time>2016-10-06T18:17:38Z</time></trkpt>
<trkpt lat="24.146361" lon="107.254827">
<time>2016-10-06T18:17:39Z</time></trkpt>
<trkpt lat="24.146301" lon="107.254797">
<time>2016-10-06T18:17:40Z</time></trkpt>
<trkpt lat="24.145721" lon="107.254447">
<time>2016-10-06T18:17:41Z</time></trkpt>
<trkpt lat="24.145551" lon="107.254328">
<time>2016-10-06T18:17:42Z</time></trkpt>
<trkpt lat="24.145421" lon="107.254228">
<time>2016-10-06T18:17:43Z</time></trkpt>
<trkpt lat="24.145301" lon="107.254128">
<time>2016-10-06T18:17:44Z</time></trkpt>
<trkpt lat="24.145251" lon="107.254088">
<time>2016-10-06T18:17:45Z</time></trkpt>
<trkpt lat="24.145101" lon="107.253938">
<time>2016-10-06T18:17:46Z</time></trkpt>
<trkpt lat="24.144981" lon="107.253798">
<time>2016-10-06T18:17:47Z</time></trkpt>
<trkpt lat="24.144891" lon="107.253688">
<time>2016-10-06T18:17:48Z</time></trkpt>
<trkpt lat="24.144671" lon="107.253368">
<time>2016-10-06T18:17:49Z</time></trkpt>
<trkpt lat="24.144241" lon="107.252779">
<time>2016-10-06T18:17:50Z</time></trkpt>
<trkpt lat="24.143581" lon="107.25185">
<time>2016-10-06T18:17:51Z</time></trkpt>
<trkpt lat="24.143061" lon="107.25112">
<time>2016-10-06T18:17:52Z</time></trkpt>
<trkpt lat="24.142981" lon="107.25101">
<time>2016-10-06T18:17:53Z</time></trkpt>
<trkpt lat="24.142871" lon="107.25087">
<time>2016-10-06T18:17:54Z</time></trkpt>
<trkpt lat="24.142831" lon="107.25082">
<time>2016-10-06T18:17:55Z</time></trkpt>
<trkpt lat="24.142711" lon="107.250641">
<time>2016-10-06T18:17:56Z</time></trkpt>
<trkpt lat="24.142251" lon="107.250001">
<time>2016-10-06T18:17:57Z</time></trkpt>
<trkpt lat="24.14165" lon="107.249132">
<time>2016-10-06T18:17:58Z</time></trkpt>
<trkpt lat="24.14152" lon="107.248932">
<time>2016-10-06T18:17:59Z</time></trkpt>
<trkpt lat="24.14111" lon="107.248332">
<time>2016-10-06T18:18:00Z</time></trkpt>
<trkpt lat="24.14056" lon="107.247573">
<time>2016-10-06T18:18:01Z</time></trkpt>
<trkpt lat="24.14055" lon="107.247553">
<time>2016-10-06T18:18:02Z</time></trkpt>
<trkpt lat="24.14052" lon="107.247503">
<time>2016-10-06T18:18:03Z</time></trkpt>
<trkpt lat="24.14028" lon="107.247213">
<time>2016-10-06T18:18:04Z</time></trkpt>
<trkpt lat="24.14019" lon="107.247103">
<time>2016-10-06T18:18:05Z</time></trkpt>
<trkpt lat="24.14008" lon="107.246993">
<time>2016-10-06T18:18:06Z</time></trkpt>
<trkpt lat="24.13992" lon="107.246843">
<time>2016-10-06T18:18:07Z</time></trkpt>
<trkpt lat="24.1397" lon="107.246643">
<time>2016-10-06T18:18:08Z</time></trkpt>
<trkpt lat="24.13944" lon="107.246433">
<time>2016-10-06T18:18:09Z</time></trkpt>
<trkpt lat="24.13932" lon="107.246333">
<time>2016-10-06T18:18:10Z</time></trkpt>
<trkpt lat="24.13919" lon="107.246253">
<time>2016-10-06T18:18:11Z</time></trkpt>
<trkpt lat="24.13905" lon="107.246184">
<time>2016-10-06T18:18:12Z</time></trkpt>
<trkpt lat="24.13889" lon="107.246144">
<time>2016-10-06T18:18:13Z</time></trkpt>
<trkpt lat="24.138729" lon="107.246114">
<time>2016-10-06T18:18:14Z</time></trkpt>
<trkpt lat="24.138459" lon="107.246074">
<time>2016-10-06T18:18:15Z</time></trkpt>
<trkpt lat="24.138179" lon="107.246004">
<time>2016-10-06T18:18:16Z</time></trkpt>
<trkpt lat="24.137939" lon="107.245944">
<time>2016-10-06T18:18:17Z</time></trkpt>
<trkpt lat="24.137619" lon="107.245834">
<time>2016-10-06T18:18:18Z</time></trkpt>
<trkpt lat="24.137059" lon="107.245634">
<time>2016-10-06T18:18:19Z</time></trkpt>
<trkpt lat="24.136859" lon="107.245574">
<time>2016-10-06T18:18:20Z</time></trkpt>
<trkpt lat="24.136779" lon="107.245534">
<time>2016-10-06T18:18:21Z</time></trkpt>
<trkpt lat="24.136709" lon="107.245504">
<time>2016-10-06T18:18:22Z</time></trkpt>
<trkpt lat="24.136499" lon="107.245394">
<time>2016-10-06T18:18:23Z</time></trkpt>
<trkpt lat="24.136288" lon="107.245284">
<time>2016-10-06T18:18:24Z</time></trkpt>
<trkpt lat="24.135948" lon="107.245074">
<time>2016-10-06T18:18:25Z</time></trkpt>
<trkpt lat="24.135708" lon="107.244924">
<time>2016-10-06T18:18:26Z</time></trkpt>
<trkpt lat="24.135458" lon="107.244734">
<time>2016-10-06T18:18:27Z</time></trkpt>
<trkpt lat="24.135308" lon="107.244604">
<time>2016-10-06T18:18:28Z</time></trkpt>
<trkpt lat="24.134137" lon="107.243425">
<time>2016-10-06T18:18:29Z</time></trkpt>
<trkpt lat="24.134007" lon="107.243305">
<time>2016-10-06T18:18:30Z</time></trkpt>
<trkpt lat="24.133017" lon="107.242436">
<time>2016-10-06T18:18:31Z</time></trkpt>
<trkpt lat="24.132276" lon="107.241886">
<time>2016-10-06T18:18:32Z</time></trkpt>
<trkpt lat="24.132076" lon="107.241746">
<time>2016-10-06T18:18:33Z</time></trkpt>
<trkpt lat="24.131916" lon="107.241646">
<time>2016-10-06T18:18:34Z</time></trkpt>
<trkpt lat="24.131796" lon="107.241596">
<time>2016-10-06T18:18:35Z</time></trkpt>
<trkpt lat="24.131656" lon="107.241546">
<time>2016-10-06T18:18:36Z</time></trkpt>
<trkpt lat="24.131516" lon="107.241526">
<time>2016-10-06T18:18:37Z</time></trkpt>
<trkpt lat="24.131366" lon="107.241506">
<time>2016-10-06T18:18:38Z</time></trkpt>
<trkpt lat="24.131196" lon="107.241516">
<time>2016-10-06T18:18:39Z</time></trkpt>
<trkpt lat="24.131056" lon="107.241536">
<time>2016-10-06T18:18:40Z</time></trkpt>
<trkpt lat="24.130886" lon="107.241566">
<time>2016-10-06T18:18:41Z</time></trkpt>
<trkpt lat="24.130446" lon="107.241696">
<time>2016-10-06T18:18:42Z</time></trkpt>
<trkpt lat="24.129835" lon="107.241926">
<time>2016-10-06T18:18:43Z</time></trkpt>
<trkpt lat="24.129295" lon="107.242186">
<time>2016-10-06T18:18:44Z</time></trkpt>
<trkpt lat="24.128805" lon="107.242496">
<time>2016-10-06T18:18:45Z</time></trkpt>
<trkpt lat="24.128335" lon="107.242806">
<time>2016-10-06T18:18:46Z</time></trkpt>
<trkpt lat="24.128195" lon="107.242886">
<time>2016-10-06T18:18:47Z</time></trkpt>
<trkpt lat="24.128015" lon="107.242976">
<time>2016-10-06T18:18:48Z</time></trkpt>
<trkpt lat="24.127825" lon="107.243036">
<time>2016-10-06T18:18:49Z</time></trkpt>
<trkpt lat="24.127635" lon="107.243076">
<time>2016-10-06T18:18:50Z</time></trkpt>
<trkpt lat="24.127405" lon="107.243106">
<time>2016-10-06T18:18:51Z</time></trkpt>
<trkpt lat="24.127094" lon="107.243136">
<time>2016-10-06T18:18:52Z</time></trkpt>
<trkpt lat="24.126874" lon="107.243146">
<time>2016-10-06T18:18:53Z</time></trkpt>
<trkpt lat="24.126654" lon="107.243136">
<time>2016-10-06T18:18:54Z</time></trkpt>
<trkpt lat="24.126444" lon="107.243096">
<time>2016-10-06T18:18:55Z</time></trkpt>
<trkpt lat="24.126334" lon="107.243056">
<time>2016-10-06T18:18:56Z</time></trkpt>
<trkpt lat="24.126234" lon="107.243016">
<time>2016-10-06T18:18:57Z</time></trkpt>
<trkpt lat="24.126034" lon="107.242906">
<time>2016-10-06T18:18:58Z</time></trkpt>
<trkpt lat="24.125854" lon="107.242766">
<time>2016-10-06T18:18:59Z</time></trkpt>
<trkpt lat="24.125744" lon="107.242666">
<time>2016-10-06T18:19:00Z</time></trkpt>
<trkpt lat="24.125614" lon="107.242506">
<time>2016-10-06T18:19:01Z</time></trkpt>
<trkpt lat="24.125514" lon="107.242356">
<time>2016-10-06T18:19:02Z</time></trkpt>
<trkpt lat="24.125414" lon="107.242156">
<time>2016-10-06T18:19:03Z</time></trkpt>
<trkpt lat="24.125264" lon="107.241846">
<time>2016-10-06T18:19:04Z</time></trkpt>
<trkpt lat="24.125153" lon="107.241646">
<time>2016-10-06T18:19:05Z</time></trkpt>
<trkpt lat="24.125093" lon="107.241556">
<time>2016-10-06T18:19:06Z</time></trkpt>
<trkpt lat="24.125043" lon="107.241496">
<time>2016-10-06T18:19:07Z</time></trkpt>
<trkpt lat="24.124983" lon="107.241426">
<time>2016-10-06T18:19:08Z</time></trkpt>
<trkpt lat="24.124923" lon="107.241376">
<time>2016-10-06T18:19:09Z</time></trkpt>
<trkpt lat="24.124843" lon="107.241336">
<time>2016-10-06T18:19:10Z</time></trkpt>
<trkpt lat="24.124763" lon="107.241306">
<time>2016-10-06T18:19:11Z</time></trkpt>
<trkpt lat="24.124673" lon="107.241296">
<time>2016-10-06T18:19:12Z</time></trkpt>
<trkpt lat="24.124603" lon="107.241296">
<time>2016-10-06T18:19:13Z</time></trkpt>
<trkpt lat="24.124523" lon="107.241306">
<time>2016-10-06T18:19:14Z</time></trkpt>
<trkpt lat="24.124443" lon="107.241326">
<time>2016-10-06T18:19:15Z</time></trkpt>
<trkpt lat="24.124373" lon="107.241356">
<time>2016-10-06T18:19:16Z</time></trkpt>
<trkpt lat="24.124293" lon="107.241396">
<time>2016-10-06T18:19:17Z</time></trkpt>
<trkpt lat="24.123093" lon="107.242196">
<time>2016-10-06T18:19:18Z</time></trkpt>
<trkpt lat="24.122733" lon="107.242466">
<time>2016-10-06T18:19:19Z</time></trkpt>
<trkpt lat="24.122472" lon="107.242696">
<time>2016-10-06T18:19:20Z</time></trkpt>
<trkpt lat="24.122282" lon="107.242866">
<time>2016-10-06T18:19:21Z</time></trkpt>
<trkpt lat="24.122142" lon="107.243016">
<time>2016-10-06T18:19:22Z</time></trkpt>
<trkpt lat="24.121202" lon="107.244155">
<time>2016-10-06T18:19:23Z</time></trkpt>
<trkpt lat="24.121112" lon="107.244245">
<time>2016-10-06T18:19:24Z</time></trkpt>
<trkpt lat="24.120962" lon="107.244395">
<time>2016-10-06T18:19:25Z</time></trkpt>
<trkpt lat="24.120762" lon="107.244565">
<time>2016-10-06T18:19:26Z</time></trkpt>
<trkpt lat="24.120742" lon="107.244585">
<time>2016-10-06T18:19:27Z</time></trkpt>
<trkpt lat="24.120742" lon="107.244585">
<time>2016-10-06T18:19:28Z</time></trkpt>
<trkpt lat="24.120552" lon="107.244705">
<time>2016-10-06T18:19:29Z</time></trkpt>
<trkpt lat="24.120412" lon="107.244775">
<time>2016-10-06T18:19:30Z</time></trkpt>
<trkpt lat="24.120282" lon="107.244825">
<time>2016-10-06T18:19:31Z</time></trkpt>
<trkpt lat="24.120152" lon="107.244855">
<time>2016-10-06T18:19:32Z</time></trkpt>
<trkpt lat="24.120032" lon="107.244865">
<time>2016-10-06T18:19:33Z</time></trkpt>
<trkpt lat="24.119902" lon="107.244855">
<time>2016-10-06T18:19:34Z</time></trkpt>
<trkpt lat="24.119451" lon="107.244815">
<time>2016-10-06T18:19:35Z</time></trkpt>
<trkpt lat="24.117891" lon="107.244565">
<time>2016-10-06T18:19:36Z</time></trkpt>
<trkpt lat="24.117571" lon="107.244515">
<time>2016-10-06T18:19:37Z</time></trkpt>
<trkpt lat="24.11581" lon="107.244236">
<time>2016-10-06T18:19:38Z</time></trkpt>
<trkpt lat="24.11554" lon="107.244196">
<time>2016-10-06T18:19:39Z</time></trkpt>
<trkpt lat="24.11528" lon="107.244176">
<time>2016-10-06T18:19:40Z</time></trkpt>
<trkpt lat="24.115029" lon="107.244156">
<time>2016-10-06T18:19:41Z</time></trkpt>
<trkpt lat="24.114789" lon="107.244156">
<time>2016-10-06T18:19:42Z</time></trkpt>
<trkpt lat="24.114399" lon="107.244186">
<time>2016-10-06T18:19:43Z</time></trkpt>
<trkpt lat="24.114129" lon="107.244216">
<time>2016-10-06T18:19:44Z</time></trkpt>
<trkpt lat="24.113919" lon="107.244246">
<time>2016-10-06T18:19:45Z</time></trkpt>
<trkpt lat="24.113679" lon="107.244266">
<time>2016-10-06T18:19:46Z</time></trkpt>
<trkpt lat="24.113479" lon="107.244266">
<time>2016-10-06T18:19:47Z</time></trkpt>
<trkpt lat="24.113289" lon="107.244246">
<time>2016-10-06T18:19:48Z</time></trkpt>
<trkpt lat="24.113119" lon="107.244216">
<time>2016-10-06T18:19:49Z</time></trkpt>
<trkpt lat="24.112979" lon="107.244176">
<time>2016-10-06T18:19:50Z</time></trkpt>
<trkpt lat="24.112849" lon="107.244116">
<time>2016-10-06T18:19:51Z</time></trkpt>
<trkpt lat="24.112698" lon="107.244026">
<time>2016-10-06T18:19:52Z</time></trkpt>
<trkpt lat="24.112488" lon="107.243866">
<time>2016-10-06T18:19:53Z</time></trkpt>
<trkpt lat="24.112248" lon="107.243666">
<time>2016-10-06T18:19:54Z</time></trkpt>
<trkpt lat="24.112068" lon="107.243526">
<time>2016-10-06T18:19:55Z</time></trkpt>
<trkpt lat="24.111938" lon="107.243436">
<time>2016-10-06T18:19:56Z</time></trkpt>
<trkpt lat="24.111788" lon="107.243336">
<time>2016-10-06T18:19:57Z</time></trkpt>
<trkpt lat="24.111628" lon="107.243256">
<time>2016-10-06T18:19:58Z</time></trkpt>
<trkpt lat="24.111418" lon="107.243186">
<time>2016-10-06T18:19:59Z</time></trkpt>
<trkpt lat="24.111228" lon="107.243146">
<time>2016-10-06T18:20:00Z</time></trkpt>
<trkpt lat="24.110908" lon="107.243096">
<time>2016-10-06T18:20:01Z</time></trkpt>
<trkpt lat="24.109417" lon="107.242857">
<time>2016-10-06T18:20:02Z</time></trkpt>
<trkpt lat="24.109117" lon="107.242777">
<time>2016-10-06T18:20:03Z</time></trkpt>
<trkpt lat="24.108837" lon="107.242667">
<time>2016-10-06T18:20:04Z</time></trkpt>
<trkpt lat="24.108677" lon="107.242567">
<time>2016-10-06T18:20:05Z</time></trkpt>
<trkpt lat="24.108537" lon="107.242467">
<time>2016-10-06T18:20:06Z</time></trkpt>
<trkpt lat="24.108326" lon="107.242277">
<time>2016-10-06T18:20:07Z</time></trkpt>
<trkpt lat="24.108146" lon="107.242137">
<time>2016-10-06T18:20:08Z</time></trkpt>
<trkpt lat="24.107976" lon="107.242017">
<time>2016-10-06T18:20:09Z</time></trkpt>
<trkpt lat="24.107816" lon="107.241917">
<time>2016-10-06T18:20:10Z</time></trkpt>
<trkpt lat="24.107646" lon="107.241847">
<time>2016-10-06T18:20:11Z</time></trkpt>
<trkpt lat="24.107466" lon="107.241777">
<time>2016-10-06T18:20:12Z</time></trkpt>
<trkpt lat="24.107026" lon="107.241657">
<time>2016-10-06T18:20:13Z</time></trkpt>
<trkpt lat="24.105935" lon="107.241407">
<time>2016-10-06T18:20:14Z</time></trkpt>
<trkpt lat="24.105615" lon="107.241347">
<time>2016-10-06T18:20:15Z</time></trkpt>
<trkpt lat="24.105425" lon="107.241337">
<time>2016-10-06T18:20:16Z</time></trkpt>
<trkpt lat="24.105235" lon="107.241347">
<time>2016-10-06T18:20:17Z</time></trkpt>
<trkpt lat="24.105095" lon="107.241377">
<time>2016-10-06T18:20:18Z</time></trkpt>
<trkpt lat="24.104955" lon="107.241437">
<time>2016-10-06T18:20:19Z</time></trkpt>
<trkpt lat="24.104935" lon="107.241457">
<time>2016-10-06T18:20:20Z</time></trkpt>
<trkpt lat="24.104805" lon="107.241537">
<time>2016-10-06T18:20:21Z</time></trkpt>
<trkpt lat="24.104725" lon="107.241607">
<time>2016-10-06T18:20:22Z</time></trkpt>
<trkpt lat="24.104635" lon="107.241697">
<time>2016-10-06T18:20:23Z</time></trkpt>
<trkpt lat="24.104485" lon="107.241907">
<time>2016-10-06T18:20:24Z</time></trkpt>
<trkpt lat="24.104065" lon="107.242537">
<time>2016-10-06T18:20:25Z</time></trkpt>
<trkpt lat="24.103845" lon="107.242827">
<time>2016-10-06T18:20:26Z</time></trkpt>
<trkpt lat="24.103835" lon="107.242847">
<time>2016-10-06T18:20:27Z</time></trkpt>
<trkpt lat="24.103745" lon="107.242957">
<time>2016-10-06T18:20:28Z</time></trkpt>
<trkpt lat="24.103635" lon="107.243047">
<time>2016-10-06T18:20:29Z</time></trkpt>
<trkpt lat="24.103465" lon="107.243167">
<time>2016-10-06T18:20:30Z</time></trkpt>
<trkpt lat="24.103374" lon="107.243217">
<time>2016-10-06T18:20:31Z</time></trkpt>
<trkpt lat="24.103264" lon="107.243247">
<time>2016-10-06T18:20:32Z</time></trkpt>
<trkpt lat="24.103104" lon="107.243287">
<time>2016-10-06T18:20:33Z</time></trkpt>
<trkpt lat="24.102894" lon="107.243307">
<time>2016-10-06T18:20:34Z</time></trkpt>
<trkpt lat="24.102364" lon="107.243297">
<time>2016-10-06T18:20:35Z</time></trkpt>
<trkpt lat="24.102114" lon="107.243287">
<time>2016-10-06T18:20:36Z</time></trkpt>
<trkpt lat="24.101854" lon="107.243347">
<time>2016-10-06T18:20:37Z</time></trkpt>
<trkpt lat="24.101564" lon="107.243447">
<time>2016-10-06T18:20:38Z</time></trkpt>
<trkpt lat="24.101304" lon="107.243577">
<time>2016-10-06T18:20:39Z</time></trkpt>
<trkpt lat="24.101134" lon="107.243707">
<time>2016-10-06T18:20:40Z</time></trkpt>
<trkpt lat="24.100813" lon="107.243987">
<time>2016-10-06T18:20:41Z</time></trkpt>
<trkpt lat="24.098653" lon="107.245826">
<time>2016-10-06T18:20:42Z</time></trkpt>
<trkpt lat="24.098232" lon="107.246206">
<time>2016-10-06T18:20:43Z</time></trkpt>
<trkpt lat="24.097992" lon="107.246476">
<time>2016-10-06T18:20:44Z</time></trkpt>
<trkpt lat="24.097842" lon="107.246675">
<time>2016-10-06T18:20:45Z</time></trkpt>
<trkpt lat="24.097732" lon="107.246855">
<time>2016-10-06T18:20:46Z</time></trkpt>
<trkpt lat="24.097432" lon="107.247375">
<time>2016-10-06T18:20:47Z</time></trkpt>
<trkpt lat="24.097192" lon="107.247745">
<time>2016-10-06T18:20:48Z</time></trkpt>
<trkpt lat="24.097092" lon="107.247895">
<time>2016-10-06T18:20:49Z</time></trkpt>
<trkpt lat="24.096982" lon="107.247995">
<time>2016-10-06T18:20:50Z</time></trkpt>
<trkpt lat="24.096872" lon="107.248095">
<time>2016-10-06T18:20:51Z</time></trkpt>
<trkpt lat="24.096732" lon="107.248195">
<time>2016-10-06T18:20:52Z</time></trkpt>
<trkpt lat="24.096532" lon="107.248315">
<time>2016-10-06T18:20:53Z</time></trkpt>
<trkpt lat="24.096271" lon="107.248435">
<time>2016-10-06T18:20:54Z</time></trkpt>
<trkpt lat="24.096001" lon="107.248554">
<time>2016-10-06T18:20:55Z</time></trkpt>
<trkpt lat="24.095621" lon="107.248754">
<time>2016-10-06T18:20:56Z</time></trkpt>
<trkpt lat="24.095281" lon="107.248954">
<time>2016-10-06T18:20:57Z</time></trkpt>
<trkpt lat="24.094761" lon="107.249344">
<time>2016-10-06T18:20:58Z</time></trkpt>
<trkpt lat="24.094" lon="107.250004">
<time>2016-10-06T18:20:59Z</time></trkpt>
<trkpt lat="24.09379" lon="107.250164">
<time>2016-10-06T18:21:00Z</time></trkpt>
<trkpt lat="24.09364" lon="107.250263">
<time>2016-10-06T18:21:01Z</time></trkpt>
<trkpt lat="24.09355" lon="107.250313">
<time>2016-10-06T18:21:02Z</time></trkpt>
<trkpt lat="24.09351" lon="107.250333">
<time>2016-10-06T18:21:03Z</time></trkpt>
<trkpt lat="24.09338" lon="107.250393">
<time>2016-10-06T18:21:04Z</time></trkpt>
<trkpt lat="24.09325" lon="107.250443">
<time>2016-10-06T18:21:05Z</time></trkpt>
<trkpt lat="24.09312" lon="107.250483">
<time>2016-10-06T18:21:06Z</time></trkpt>
<trkpt lat="24.09304" lon="107.250493">
<time>2016-10-06T18:21:07Z</time></trkpt>
<trkpt lat="24.09292" lon="107.250503">
<time>2016-10-06T18:21:08Z</time></trkpt>
<trkpt lat="24.09276" lon="107.250503">
<time>2016-10-06T18:21:09Z</time></trkpt>
<trkpt lat="24.09263" lon="107.250483">
<time>2016-10-06T18:21:10Z</time></trkpt>
<trkpt lat="24.09242" lon="107.250443">
<time>2016-10-06T18:21:11Z</time></trkpt>
<trkpt lat="24.092179" lon="107.250393">
<time>2016-10-06T18:21:12Z</time></trkpt>
<trkpt lat="24.091889" lon="107.250304">
<time>2016-10-06T18:21:13Z</time></trkpt>
<trkpt lat="24.091749" lon="107.250254">
<time>2016-10-06T18:21:14Z</time></trkpt>
<trkpt lat="24.091589" lon="107.250194">
<time>2016-10-06T18:21:15Z</time></trkpt>
<trkpt lat="24.091449" lon="107.250124">
<time>2016-10-06T18:21:16Z</time></trkpt>
<trkpt lat="24.091249" lon="107.250004">
<time>2016-10-06T18:21:17Z</time></trkpt>
<trkpt lat="24.091049" lon="107.249874">
<time>2016-10-06T18:21:18Z</time></trkpt>
<trkpt lat="24.090779" lon="107.249634">
<time>2016-10-06T18:21:19Z</time></trkpt>
<trkpt lat="24.090249" lon="107.249124">
<time>2016-10-06T18:21:20Z</time></trkpt>
<trkpt lat="24.089829" lon="107.248725">
<time>2016-10-06T18:21:21Z</time></trkpt>
<trkpt lat="24.089799" lon="107.248695">
<time>2016-10-06T18:21:22Z</time></trkpt>
<trkpt lat="24.089589" lon="107.248505">
<time>2016-10-06T18:21:23Z</time></trkpt>
<trkpt lat="24.089429" lon="107.248395">
<time>2016-10-06T18:21:24Z</time></trkpt>
<trkpt lat="24.089288" lon="107.248325">
<time>2016-10-06T18:21:25Z</time></trkpt>
<trkpt lat="24.089118" lon="107.248265">
<time>2016-10-06T18:21:26Z</time></trkpt>
<trkpt lat="24.088918" lon="107.248225">
<time>2016-10-06T18:21:27Z</time></trkpt>
<trkpt lat="24.088568" lon="107.248185">
<time>2016-10-06T18:21:28Z</time></trkpt>
<trkpt lat="24.087478" lon="107.248045">
<time>2016-10-06T18:21:29Z</time></trkpt>
<trkpt lat="24.087218" lon="107.247995">
<time>2016-10-06T18:21:30Z</time></trkpt>
<trkpt lat="24.086948" lon="107.247925">
<time>2016-10-06T18:21:31Z</time></trkpt>
<trkpt lat="24.086537" lon="107.247785">
<time>2016-10-06T18:21:32Z</time></trkpt>
<trkpt lat="24.085777" lon="107.247486">
<time>2016-10-06T18:21:33Z</time></trkpt>
<trkpt lat="24.085587" lon="107.247426">
<time>2016-10-06T18:21:34Z</time></trkpt>
<trkpt lat="24.085437" lon="107.247406">
<time>2016-10-06T18:21:35Z</time></trkpt>
<trkpt lat="24.085317" lon="107.247396">
<time>2016-10-06T18:21:36Z</time></trkpt>
<trkpt lat="24.085197" lon="107.247396">
<time>2016-10-06T18:21:37Z</time></trkpt>
<trkpt lat="24.084987" lon="107.247426">
<time>2016-10-06T18:21:38Z</time></trkpt>
<trkpt lat="24.084807" lon="107.247496">
<time>2016-10-06T18:21:39Z</time></trkpt>
<trkpt lat="24.084597" lon="107.247606">
<time>2016-10-06T18:21:40Z</time></trkpt>
<trkpt lat="24.084436" lon="107.247736">
<time>2016-10-06T18:21:41Z</time></trkpt>
<trkpt lat="24.084236" lon="107.247955">
<time>2016-10-06T18:21:42Z</time></trkpt>
<trkpt lat="24.084076" lon="107.248135">
<time>2016-10-06T18:21:43Z</time></trkpt>
<trkpt lat="24.083956" lon="107.248265">
<time>2016-10-06T18:21:44Z</time></trkpt>
<trkpt lat="24.083766" lon="107.248455">
<time>2016-10-06T18:21:45Z</time></trkpt>
<trkpt lat="24.083616" lon="107.248575">
<time>2016-10-06T18:21:46Z</time></trkpt>
<trkpt lat="24.083466" lon="107.248655">
<time>2016-10-06T18:21:47Z</time></trkpt>
<trkpt lat="24.083336" lon="107.248705">
<time>2016-10-06T18:21:48Z</time></trkpt>
<trkpt lat="24.083086" lon="107.248765">
<time>2016-10-06T18:21:49Z</time></trkpt>
<trkpt lat="24.082796" lon="107.248805">
<time>2016-10-06T18:21:50Z</time></trkpt>
<trkpt lat="24.082476" lon="107.248835">
<time>2016-10-06T18:21:51Z</time></trkpt>
<trkpt lat="24.082085" lon="107.248895">
<time>2016-10-06T18:21:52Z</time></trkpt>
<trkpt lat="24.081745" lon="107.248995">
<time>2016-10-06T18:21:53Z</time></trkpt>
<trkpt lat="24.081625" lon="107.249065">
<time>2016-10-06T18:21:54Z</time></trkpt>
<trkpt lat="24.081435" lon="107.249175">
<time>2016-10-06T18:21:55Z</time></trkpt>
<trkpt lat="24.081295" lon="107.249275">
<time>2016-10-06T18:21:56Z</time></trkpt>
<trkpt lat="24.081085" lon="107.249475">
<time>2016-10-06T18:21:57Z</time></trkpt>
<trkpt lat="24.080895" lon="107.249675">
<time>2016-10-06T18:21:58Z</time></trkpt>
<trkpt lat="24.080615" lon="107.250004">
<time>2016-10-06T18:21:59Z</time></trkpt>
<trkpt lat="24.080524" lon="107.250104">
<time>2016-10-06T18:22:00Z</time></trkpt>
<trkpt lat="24.080314" lon="107.250334">
<time>2016-10-06T18:22:01Z</time></trkpt>
<trkpt lat="24.079854" lon="107.250804">
<time>2016-10-06T18:22:02Z</time></trkpt>
<trkpt lat="24.079654" lon="107.251004">
<time>2016-10-06T18:22:03Z</time></trkpt>
<trkpt lat="24.079214" lon="107.251353">
<time>2016-10-06T18:22:04Z</time></trkpt>
<trkpt lat="24.078803" lon="107.251623">
<time>2016-10-06T18:22:05Z</time></trkpt>
<trkpt lat="24.078323" lon="107.251913">
<time>2016-10-06T18:22:06Z</time></trkpt>
<trkpt lat="24.077293" lon="107.252493">
<time>2016-10-06T18:22:07Z</time></trkpt>
<trkpt lat="24.077002" lon="107.252653">
<time>2016-10-06T18:22:08Z</time></trkpt>
<trkpt lat="24.076532" lon="107.252822">
<time>2016-10-06T18:22:09Z</time></trkpt>
<trkpt lat="24.076322" lon="107.252862">
<time>2016-10-06T18:22:10Z</time></trkpt>
<trkpt lat="24.076132" lon="107.252882">
<time>2016-10-06T18:22:11Z</time></trkpt>
<trkpt lat="24.075872" lon="107.252892">
<time>2016-10-06T18:22:12Z</time></trkpt>
<trkpt lat="24.075662" lon="107.252882">
<time>2016-10-06T18:22:13Z</time></trkpt>
<trkpt lat="24.075412" lon="107.252843">
<time>2016-10-06T18:22:14Z</time></trkpt>
<trkpt lat="24.075202" lon="107.252793">
<time>2016-10-06T18:22:15Z</time></trkpt>
<trkpt lat="24.075042" lon="107.252723">
<time>2016-10-06T18:22:16Z</time></trkpt>
<trkpt lat="24.074371" lon="107.252373">
<time>2016-10-06T18:22:17Z</time></trkpt>
<trkpt lat="24.073521" lon="107.251843">
<time>2016-10-06T18:22:18Z</time></trkpt>
<trkpt lat="24.072701" lon="107.251324">
<time>2016-10-06T18:22:19Z</time></trkpt>
<trkpt lat="24.071891" lon="107.250814">
<time>2016-10-06T18:22:20Z</time></trkpt>
<trkpt lat="24.07127" lon="107.250425">
<time>2016-10-06T18:22:21Z</time></trkpt>
<trkpt lat="24.07069" lon="107.250005">
<time>2016-10-06T18:22:22Z</time></trkpt>
<trkpt lat="24.07053" lon="107.249865">
<time>2016-10-06T18:22:23Z</time></trkpt>
<trkpt lat="24.0695" lon="107.248986">
<time>2016-10-06T18:22:24Z</time></trkpt>
<trkpt lat="24.06882" lon="107.248416">
<time>2016-10-06T18:22:25Z</time></trkpt>
<trkpt lat="24.06823" lon="107.247886">
<time>2016-10-06T18:22:26Z</time></trkpt>
<trkpt lat="24.068089" lon="107.247736">
<time>2016-10-06T18:22:27Z</time></trkpt>
<trkpt lat="24.067989" lon="107.247607">
<time>2016-10-06T18:22:28Z</time></trkpt>
<trkpt lat="24.067929" lon="107.247497">
<time>2016-10-06T18:22:29Z</time></trkpt>
<trkpt lat="24.067799" lon="107.247197">
<time>2016-10-06T18:22:30Z</time></trkpt>
<trkpt lat="24.067719" lon="107.246967">
<time>2016-10-06T18:22:31Z</time></trkpt>
<trkpt lat="24.067599" lon="107.246607">
<time>2016-10-06T18:22:32Z</time></trkpt>
<trkpt lat="24.067549" lon="107.246507">
<time>2016-10-06T18:22:33Z</time></trkpt>
<trkpt lat="24.067489" lon="107.246387">
<time>2016-10-06T18:22:34Z</time></trkpt>
<trkpt lat="24.067409" lon="107.246257">
<time>2016-10-06T18:22:35Z</time></trkpt>
<trkpt lat="24.067329" lon="107.246147">
<time>2016-10-06T18:22:36Z</time></trkpt>
<trkpt lat="24.067189" lon="107.245997">
<time>2016-10-06T18:22:37Z</time></trkpt>
<trkpt lat="24.067099" lon="107.245917">
<time>2016-10-06T18:22:38Z</time></trkpt>
<trkpt lat="24.066889" lon="107.245778">
<time>2016-10-06T18:22:39Z</time></trkpt>
<trkpt lat="24.066799" lon="107.245738">
<time>2016-10-06T18:22:40Z</time></trkpt>
<trkpt lat="24.066339" lon="107.245588">
<time>2016-10-06T18:22:41Z</time></trkpt>
<trkpt lat="24.065068" lon="107.245188">
<time>2016-10-06T18:22:42Z</time></trkpt>
<trkpt lat="24.064918" lon="107.245118">
<time>2016-10-06T18:22:43Z</time></trkpt>
<trkpt lat="24.064288" lon="107.244608">
<time>2016-10-06T18:22:44Z</time></trkpt>
<trkpt lat="24.063457" lon="107.243889">
<time>2016-10-06T18:22:45Z</time></trkpt>
<trkpt lat="24.063217" lon="107.243689">
<time>2016-10-06T18:22:46Z</time></trkpt>
<trkpt lat="24.063077" lon="107.243569">
<time>2016-10-06T18:22:47Z</time></trkpt>
<trkpt lat="24.062907" lon="107.243369">
<time>2016-10-06T18:22:48Z</time></trkpt>
<trkpt lat="24.062767" lon="107.243099">
<time>2016-10-06T18:22:49Z</time></trkpt>
<trkpt lat="24.062607" lon="107.242739">
<time>2016-10-06T18:22:50Z</time></trkpt>
<trkpt lat="24.062497" lon="107.242529">
<time>2016-10-06T18:22:51Z</time></trkpt>
<trkpt lat="24.062447" lon="107.242419">
<time>2016-10-06T18:22:52Z</time></trkpt>
<trkpt lat="24.062407" lon="107.242369">
<time>2016-10-06T18:22:53Z</time></trkpt>
<trkpt lat="24.062307" lon="107.242239">
<time>2016-10-06T18:22:54Z</time></trkpt>
<trkpt lat="24.062207" lon="107.242159">
<time>2016-10-06T18:22:55Z</time></trkpt>
<trkpt lat="24.062127" lon="107.242099">
<time>2016-10-06T18:22:56Z</time></trkpt>
<trkpt lat="24.062027" lon="107.242059">
<time>2016-10-06T18:22:57Z</time></trkpt>
<trkpt lat="24.061957" lon="107.242039">
<time>2016-10-06T18:22:58Z</time></trkpt>
<trkpt lat="24.061867" lon="107.242019">
<time>2016-10-06T18:22:59Z</time></trkpt>
<trkpt lat="24.061767" lon="107.242009">
<time>2016-10-06T18:23:00Z</time></trkpt>
<trkpt lat="24.061697" lon="107.242009">
<time>2016-10-06T18:23:01Z</time></trkpt>
<trkpt lat="24.061606" lon="107.242019">
<time>2016-10-06T18:23:02Z</time></trkpt>
<trkpt lat="24.061496" lon="107.242039">
<time>2016-10-06T18:23:03Z</time></trkpt>
<trkpt lat="24.061366" lon="107.242089">
<time>2016-10-06T18:23:04Z</time></trkpt>
<trkpt lat="24.060696" lon="107.242389">
<time>2016-10-06T18:23:05Z</time></trkpt>
<trkpt lat="24.059986" lon="107.242709">
<time>2016-10-06T18:23:06Z</time></trkpt>
<trkpt lat="24.059526" lon="107.242899">
<time>2016-10-06T18:23:07Z</time></trkpt>
<trkpt lat="24.059056" lon="107.243049">
<time>2016-10-06T18:23:08Z</time></trkpt>
<trkpt lat="24.058815" lon="107.243109">
<time>2016-10-06T18:23:09Z</time></trkpt>
<trkpt lat="24.058435" lon="107.243209">
<time>2016-10-06T18:23:10Z</time></trkpt>
<trkpt lat="24.057515" lon="107.243399">
<time>2016-10-06T18:23:11Z</time></trkpt>
<trkpt lat="24.057055" lon="107.243479">
<time>2016-10-06T18:23:12Z</time></trkpt>
<trkpt lat="24.056995" lon="107.243489">
<time>2016-10-06T18:23:13Z</time></trkpt>
<trkpt lat="24.056805" lon="107.243539">
<time>2016-10-06T18:23:14Z</time></trkpt>
<trkpt lat="24.056695" lon="107.243569">
<time>2016-10-06T18:23:15Z</time></trkpt>
<trkpt lat="24.056454" lon="107.243589">
<time>2016-10-06T18:23:16Z</time></trkpt>
<trkpt lat="24.056184" lon="107.243589">
<time>2016-10-06T18:23:17Z</time></trkpt>
<trkpt lat="24.055854" lon="107.243469">
<time>2016-10-06T18:23:18Z</time></trkpt>
<trkpt lat="24.055644" lon="107.243319">
<time>2016-10-06T18:23:19Z</time></trkpt>
<trkpt lat="24.055264" lon="107.242899">
<time>2016-10-06T18:23:20Z</time></trkpt>
<trkpt lat="24.055124" lon="107.24275">
<time>2016-10-06T18:23:21Z</time></trkpt>
<trkpt lat="24.054974" lon="107.24259">
<time>2016-10-06T18:23:22Z</time></trkpt>
<trkpt lat="24.054824" lon="107.24246">
<time>2016-10-06T18:23:23Z</time></trkpt>
<trkpt lat="24.054263" lon="107.24217">
<time>2016-10-06T18:23:24Z</time></trkpt>
<trkpt lat="24.053903" lon="107.24193">
<time>2016-10-06T18:23:25Z</time></trkpt>
<trkpt lat="24.053573" lon="107.24165">
<time>2016-10-06T18:23:26Z</time></trkpt>
<trkpt lat="24.053323" lon="107.24134">
<time>2016-10-06T18:23:27Z</time></trkpt>
<trkpt lat="24.053073" lon="107.24106">
<time>2016-10-06T18:23:28Z</time></trkpt>
<trkpt lat="24.052893" lon="107.24091">
<time>2016-10-06T18:23:29Z</time></trkpt>
<trkpt lat="24.052672" lon="107.24077">
<time>2016-10-06T18:23:30Z</time></trkpt>
<trkpt lat="24.052542" lon="107.24071">
<time>2016-10-06T18:23:31Z</time></trkpt>
<trkpt lat="24.052102" lon="107.24061">
<time>2016-10-06T18:23:32Z</time></trkpt>
<trkpt lat="24.051522" lon="107.2405">
<time>2016-10-06T18:23:33Z</time></trkpt>
<trkpt lat="24.051212" lon="107.240341">
<time>2016-10-06T18:23:34Z</time></trkpt>
<trkpt lat="24.051062" lon="107.240211">
<time>2016-10-06T18:23:35Z</time></trkpt>
<trkpt lat="24.050982" lon="107.240111">
<time>2016-10-06T18:23:36Z</time></trkpt>
<trkpt lat="24.050922" lon="107.240041">
<time>2016-10-06T18:23:37Z</time></trkpt>
<trkpt lat="24.050841" lon="107.239881">
<time>2016-10-06T18:23:38Z</time></trkpt>
<trkpt lat="24.050451" lon="107.238921">
<time>2016-10-06T18:23:39Z</time></trkpt>
<trkpt lat="24.050321" lon="107.238681">
<time>2016-10-06T18:23:40Z</time></trkpt>
<trkpt lat="24.050121" lon="107.238361">
<time>2016-10-06T18:23:41Z</time></trkpt>
<trkpt lat="24.049861" lon="107.238041">
<time>2016-10-06T18:23:42Z</time></trkpt>
<trkpt lat="24.04946" lon="107.237651">
<time>2016-10-06T18:23:43Z</time></trkpt>
<trkpt lat="24.04922" lon="107.237351">
<time>2016-10-06T18:23:44Z</time></trkpt>
<trkpt lat="24.04912" lon="107.237161">
<time>2016-10-06T18:23:45Z</time></trkpt>
<trkpt lat="24.04905" lon="107.236931">
<time>2016-10-06T18:23:46Z</time></trkpt>
<trkpt lat="24.04901" lon="107.236761">
<time>2016-10-06T18:23:47Z</time></trkpt>
<trkpt lat="24.048859" lon="107.234932">
<time>2016-10-06T18:23:48Z</time></trkpt>
<trkpt lat="24.048819" lon="107.234502">
<time>2016-10-06T18:23:49Z</time></trkpt>
<trkpt lat="24.048799" lon="107.234332">
<time>2016-10-06T18:23:50Z</time></trkpt>
<trkpt lat="24.048769" lon="107.234162">
<time>2016-10-06T18:23:51Z</time></trkpt>
<trkpt lat="24.048719" lon="107.233992">
<time>2016-10-06T18:23:52Z</time></trkpt>
<trkpt lat="24.048679" lon="107.233842">
<time>2016-10-06T18:23:53Z</time></trkpt>
<trkpt lat="24.048598" lon="107.233662">
<time>2016-10-06T18:23:54Z</time></trkpt>
<trkpt lat="24.048398" lon="107.233362">
<time>2016-10-06T18:23:55Z</time></trkpt>
<trkpt lat="24.047978" lon="107.232872">
<time>2016-10-06T18:23:56Z</time></trkpt>
<trkpt lat="24.047798" lon="107.232602">
<time>2016-10-06T18:23:57Z</time></trkpt>
<trkpt lat="24.047697" lon="107.232432">
<time>2016-10-06T18:23:58Z</time></trkpt>
<trkpt lat="24.047577" lon="107.232162">
<time>2016-10-06T18:23:59Z</time></trkpt>
<trkpt lat="24.047477" lon="107.231882">
<time>2016-10-06T18:24:00Z</time></trkpt>
<trkpt lat="24.047447" lon="107.231742">
<time>2016-10-06T18:24:01Z</time></trkpt>
<trkpt lat="24.047407" lon="107.231582">
<time>2016-10-06T18:24:02Z</time></trkpt>
<trkpt lat="24.047276" lon="107.230472">
<time>2016-10-06T18:24:03Z</time></trkpt>
<trkpt lat="24.047075" lon="107.228631">
<time>2016-10-06T18:24:04Z</time></trkpt>
<trkpt lat="24.047055" lon="107.228291">
<time>2016-10-06T18:24:05Z</time></trkpt>
<trkpt lat="24.047105" lon="107.227921">
<time>2016-10-06T18:24:06Z</time></trkpt>
<trkpt lat="24.047194" lon="107.227631">
<time>2016-10-06T18:24:07Z</time></trkpt>
<trkpt lat="24.047254" lon="107.227341">
<time>2016-10-06T18:24:08Z</time></trkpt>
<trkpt lat="24.047274" lon="107.227211">
<time>2016-10-06T18:24:09Z</time></trkpt>
<trkpt lat="24.047274" lon="107.227201">
<time>2016-10-06T18:24:10Z</time></trkpt>
<trkpt lat="24.047294" lon="107.227001">
<time>2016-10-06T18:24:11Z</time></trkpt>
<trkpt lat="24.047284" lon="107.226701">
<time>2016-10-06T18:24:12Z</time></trkpt>
<trkpt lat="24.046812" lon="107.22438">
<time>2016-10-06T18:24:13Z</time></trkpt>
<trkpt lat="24.04645" lon="107.22264">
<time>2016-10-06T18:24:14Z</time></trkpt>
<trkpt lat="24.04628" lon="107.221839">
<time>2016-10-06T18:24:15Z</time></trkpt>
<trkpt lat="24.046229" lon="107.221689">
<time>2016-10-06T18:24:16Z</time></trkpt>
<trkpt lat="24.046189" lon="107.221599">
<time>2016-10-06T18:24:17Z</time></trkpt>
<trkpt lat="24.046149" lon="107.221509">
<time>2016-10-06T18:24:18Z</time></trkpt>
<trkpt lat="24.046079" lon="107.221399">
<time>2016-10-06T18:24:19Z</time></trkpt>
<trkpt lat="24.045999" lon="107.221309">
<time>2016-10-06T18:24:20Z</time></trkpt>
<trkpt lat="24.045859" lon="107.221189">
<time>2016-10-06T18:24:21Z</time></trkpt>
<trkpt lat="24.045699" lon="107.221119">
<time>2016-10-06T18:24:22Z</time></trkpt>
<trkpt lat="24.045599" lon="107.221079">
<time>2016-10-06T18:24:23Z</time></trkpt>
<trkpt lat="24.045248" lon="107.221019">
<time>2016-10-06T18:24:24Z</time></trkpt>
<trkpt lat="24.045018" lon="107.220969">
<time>2016-10-06T18:24:25Z</time></trkpt>
<trkpt lat="24.044808" lon="107.220889">
<time>2016-10-06T18:24:26Z</time></trkpt>
<trkpt lat="24.044658" lon="107.220819">
<time>2016-10-06T18:24:27Z</time></trkpt>
<trkpt lat="24.044538" lon="107.220739">
<time>2016-10-06T18:24:28Z</time></trkpt>
<trkpt lat="24.044438" lon="107.220629">
<time>2016-10-06T18:24:29Z</time></trkpt>
<trkpt lat="24.044287" lon="107.220429">
<time>2016-10-06T18:24:30Z</time></trkpt>
<trkpt lat="24.044207" lon="107.220279">
<time>2016-10-06T18:24:31Z</time></trkpt>
<trkpt lat="24.044077" lon="107.219939">
<time>2016-10-06T18:24:32Z</time></trkpt>
<trkpt lat="24.043987" lon="107.219689">
<time>2016-10-06T18:24:33Z</time></trkpt>
<trkpt lat="24.043926" lon="107.219559">
<time>2016-10-06T18:24:34Z</time></trkpt>
<trkpt lat="24.043836" lon="107.219358">
<time>2016-10-06T18:24:35Z</time></trkpt>
<trkpt lat="24.043746" lon="107.219238">
<time>2016-10-06T18:24:36Z</time></trkpt>
<trkpt lat="24.043666" lon="107.219138">
<time>2016-10-06T18:24:37Z</time></trkpt>
<trkpt lat="24.043285" lon="107.218778">
<time>2016-10-06T18:24:38Z</time></trkpt>
<trkpt lat="24.043155" lon="107.218638">
<time>2016-10-06T18:24:39Z</time></trkpt>
<trkpt lat="24.043035" lon="107.218488">
<time>2016-10-06T18:24:40Z</time></trkpt>
<trkpt lat="24.042945" lon="107.218378">
<time>2016-10-06T18:24:41Z</time></trkpt>
<trkpt lat="24.042885" lon="107.218268">
<time>2016-10-06T18:24:42Z</time></trkpt>
<trkpt lat="24.042684" lon="107.217858">
<time>2016-10-06T18:24:43Z</time></trkpt>
<trkpt lat="24.042233" lon="107.216937">
<time>2016-10-06T18:24:44Z</time></trkpt>
<trkpt lat="24.041932" lon="107.216387">
<time>2016-10-06T18:24:45Z</time></trkpt>
<trkpt lat="24.041692" lon="107.216007">
<time>2016-10-06T18:24:46Z</time></trkpt>
<trkpt lat="24.041471" lon="107.215687">
<time>2016-10-06T18:24:47Z</time></trkpt>
<trkpt lat="24.041241" lon="107.215376">
<time>2016-10-06T18:24:48Z</time></trkpt>
<trkpt lat="24.04088" lon="107.214996">
<time>2016-10-06T18:24:49Z</time></trkpt>
<trkpt lat="24.04052" lon="107.214716">
<time>2016-10-06T18:24:50Z</time></trkpt>
<trkpt lat="24.04039" lon="107.214646">
<time>2016-10-06T18:24:51Z</time></trkpt>
<trkpt lat="24.04027" lon="107.214576">
<time>2016-10-06T18:24:52Z</time></trkpt>
<trkpt lat="24.04012" lon="107.214516">
<time>2016-10-06T18:24:53Z</time></trkpt>
<trkpt lat="24.039869" lon="107.214426">
<time>2016-10-06T18:24:54Z</time></trkpt>
<trkpt lat="24.039629" lon="107.214356">
<time>2016-10-06T18:24:55Z</time></trkpt>
<trkpt lat="24.039409" lon="107.214286">
<time>2016-10-06T18:24:56Z</time></trkpt>
<trkpt lat="24.038779" lon="107.214096">
<time>2016-10-06T18:24:57Z</time></trkpt>
<trkpt lat="24.037348" lon="107.213685">
<time>2016-10-06T18:24:58Z</time></trkpt>
<trkpt lat="24.036527" lon="107.213465">
<time>2016-10-06T18:24:59Z</time></trkpt>
<trkpt lat="24.035846" lon="107.213255">
<time>2016-10-06T18:25:00Z</time></trkpt>
<trkpt lat="24.035236" lon="107.213065">
<time>2016-10-06T18:25:01Z</time></trkpt>
<trkpt lat="24.034736" lon="107.212935">
<time>2016-10-06T18:25:02Z</time></trkpt>
<trkpt lat="24.034365" lon="107.212825">
<time>2016-10-06T18:25:03Z</time></trkpt>
<trkpt lat="24.033775" lon="107.212665">
<time>2016-10-06T18:25:04Z</time></trkpt>
<trkpt lat="24.033535" lon="107.212585">
<time>2016-10-06T18:25:05Z</time></trkpt>
<trkpt lat="24.033304" lon="107.212505">
<time>2016-10-06T18:25:06Z</time></trkpt>
<trkpt lat="24.033134" lon="107.212415">
<time>2016-10-06T18:25:07Z</time></trkpt>
<trkpt lat="24.032954" lon="107.212305">
<time>2016-10-06T18:25:08Z</time></trkpt>
<trkpt lat="24.032714" lon="107.212094">
<time>2016-10-06T18:25:09Z</time></trkpt>
<trkpt lat="24.031812" lon="107.211034">
<time>2016-10-06T18:25:10Z</time></trkpt>
<trkpt lat="24.0309" lon="107.210013">
<time>2016-10-06T18:25:11Z</time></trkpt>
<trkpt lat="24.030179" lon="107.209393">
<time>2016-10-06T18:25:12Z</time></trkpt>
<trkpt lat="24.030029" lon="107.209242">
<time>2016-10-06T18:25:13Z</time></trkpt>
<trkpt lat="24.029909" lon="107.209102">
<time>2016-10-06T18:25:14Z</time></trkpt>
<trkpt lat="24.029809" lon="107.208962">
<time>2016-10-06T18:25:15Z</time></trkpt>
<trkpt lat="24.029748" lon="107.208862">
<time>2016-10-06T18:25:16Z</time></trkpt>
<trkpt lat="24.029638" lon="107.208632">
<time>2016-10-06T18:25:17Z</time></trkpt>
<trkpt lat="24.029437" lon="107.208101">
<time>2016-10-06T18:25:18Z</time></trkpt>
<trkpt lat="24.029367" lon="107.207911">
<time>2016-10-06T18:25:19Z</time></trkpt>
<trkpt lat="24.029187" lon="107.207561">
<time>2016-10-06T18:25:20Z</time></trkpt>
<trkpt lat="24.029126" lon="107.207461">
<time>2016-10-06T18:25:21Z</time></trkpt>
<trkpt lat="24.028966" lon="107.207251">
<time>2016-10-06T18:25:22Z</time></trkpt>
<trkpt lat="24.028866" lon="107.207131">
<time>2016-10-06T18:25:23Z</time></trkpt>
<trkpt lat="24.028736" lon="107.207011">
<time>2016-10-06T18:25:24Z</time></trkpt>
<trkpt lat="24.028405" lon="107.20671">
<time>2016-10-06T18:25:25Z</time></trkpt>
<trkpt lat="24.027604" lon="107.20599">
<time>2016-10-06T18:25:26Z</time></trkpt>
<trkpt lat="24.027333" lon="107.205739">
<time>2016-10-06T18:25:27Z</time></trkpt>
<trkpt lat="24.027133" lon="107.205489">
<time>2016-10-06T18:25:28Z</time></trkpt>
<trkpt lat="24.027063" lon="107.205369">
<time>2016-10-06T18:25:29Z</time></trkpt>
<trkpt lat="24.026972" lon="107.205159">
<time>2016-10-06T18:25:30Z</time></trkpt>
<trkpt lat="24.026962" lon="107.205119">
<time>2016-10-06T18:25:31Z</time></trkpt>
<trkpt lat="24.026942" lon="107.205009">
<time>2016-10-06T18:25:32Z</time></trkpt>
<trkpt lat="24.026912" lon="107.204839">
<time>2016-10-06T18:25:33Z</time></trkpt>
<trkpt lat="24.026911" lon="107.204398">
<time>2016-10-06T18:25:34Z</time></trkpt>
<trkpt lat="24.026941" lon="107.203958">
<time>2016-10-06T18:25:35Z</time></trkpt>
<trkpt lat="24.02695" lon="107.203748">
<time>2016-10-06T18:25:36Z</time></trkpt>
<trkpt lat="24.02698" lon="107.203487">
<time>2016-10-06T18:25:37Z</time></trkpt>
<trkpt lat="24.02702" lon="107.203307">
<time>2016-10-06T18:25:38Z</time></trkpt>
<trkpt lat="24.027179" lon="107.202676">
<time>2016-10-06T18:25:39Z</time></trkpt>
<trkpt lat="24.027348" lon="107.202006">
<time>2016-10-06T18:25:40Z</time></trkpt>
<trkpt lat="24.027487" lon="107.201435">
<time>2016-10-06T18:25:41Z</time></trkpt>
<trkpt lat="24.027537" lon="107.201235">
<time>2016-10-06T18:25:42Z</time></trkpt>
<trkpt lat="24.027557" lon="107.201055">
<time>2016-10-06T18:25:43Z</time></trkpt>
<trkpt lat="24.027566" lon="107.200845">
<time>2016-10-06T18:25:44Z</time></trkpt>
<trkpt lat="24.027556" lon="107.200644">
<time>2016-10-06T18:25:45Z</time></trkpt>
<trkpt lat="24.027546" lon="107.200524">
<time>2016-10-06T18:25:46Z</time></trkpt>
<trkpt lat="24.027526" lon="107.200424">
<time>2016-10-06T18:25:47Z</time></trkpt>
<trkpt lat="24.027465" lon="107.200224">
<time>2016-10-06T18:25:48Z</time></trkpt>
<trkpt lat="24.027275" lon="107.199713">
<time>2016-10-06T18:25:49Z</time></trkpt>
<trkpt lat="24.027244" lon="107.199623">
<time>2016-10-06T18:25:50Z</time></trkpt>
<trkpt lat="24.027164" lon="107.199413">
<time>2016-10-06T18:25:51Z</time></trkpt>
<trkpt lat="24.027144" lon="107.199313">
<time>2016-10-06T18:25:52Z</time></trkpt>
<trkpt lat="24.027134" lon="107.199223">
<time>2016-10-06T18:25:53Z</time></trkpt>
<trkpt lat="24.027134" lon="107.199113">
<time>2016-10-06T18:25:54Z</time></trkpt>
<trkpt lat="24.027153" lon="107.199003">
<time>2016-10-06T18:25:55Z</time></trkpt>
<trkpt lat="24.027173" lon="107.198902">
<time>2016-10-06T18:25:56Z</time></trkpt>
<trkpt lat="24.027203" lon="107.198822">
<time>2016-10-06T18:25:57Z</time></trkpt>
<trkpt lat="24.027483" lon="107.198342">
<time>2016-10-06T18:25:58Z</time></trkpt>
<trkpt lat="24.027952" lon="107.197591">
<time>2016-10-06T18:25:59Z</time></trkpt>
<trkpt lat="24.028161" lon="107.19719">
<time>2016-10-06T18:26:00Z</time></trkpt>
<trkpt lat="24.028221" lon="107.19696">
<time>2016-10-06T18:26:01Z</time></trkpt>
<trkpt lat="24.028261" lon="107.19684">
<time>2016-10-06T18:26:02Z</time></trkpt>
<trkpt lat="24.02843" lon="107.196309">
<time>2016-10-06T18:26:03Z</time></trkpt>
<trkpt lat="24.028569" lon="107.196019">
<time>2016-10-06T18:26:04Z</time></trkpt>
<trkpt lat="24.029418" lon="107.194848">
<time>2016-10-06T18:26:05Z</time></trkpt>
<trkpt lat="24.029787" lon="107.194187">
<time>2016-10-06T18:26:06Z</time></trkpt>
<trkpt lat="24.030056" lon="107.193616">
<time>2016-10-06T18:26:07Z</time></trkpt>
<trkpt lat="24.030186" lon="107.193266">
<time>2016-10-06T18:26:08Z</time></trkpt>
<trkpt lat="24.030345" lon="107.192745">
<time>2016-10-06T18:26:09Z</time></trkpt>
<trkpt lat="24.030385" lon="107.192565">
<time>2016-10-06T18:26:10Z</time></trkpt>
<trkpt lat="24.030444" lon="107.192375">
<time>2016-10-06T18:26:11Z</time></trkpt>
<trkpt lat="24.030544" lon="107.192154">
<time>2016-10-06T18:26:12Z</time></trkpt>
<trkpt lat="24.030634" lon="107.191994">
<time>2016-10-06T18:26:13Z</time></trkpt>
<trkpt lat="24.030793" lon="107.191764">
<time>2016-10-06T18:26:14Z</time></trkpt>
<trkpt lat="24.031203" lon="107.191363">
<time>2016-10-06T18:26:15Z</time></trkpt>
<trkpt lat="24.031842" lon="107.190742">
<time>2016-10-06T18:26:16Z</time></trkpt>
<trkpt lat="24.032282" lon="107.190312">
<time>2016-10-06T18:26:17Z</time></trkpt>
<trkpt lat="24.032611" lon="107.189991">
<time>2016-10-06T18:26:18Z</time></trkpt>
<trkpt lat="24.032851" lon="107.189721">
<time>2016-10-06T18:26:19Z</time></trkpt>
<trkpt lat="24.032961" lon="107.189561">
<time>2016-10-06T18:26:20Z</time></trkpt>
<trkpt lat="24.033001" lon="107.189491">
<time>2016-10-06T18:26:21Z</time></trkpt>
<trkpt lat="24.03304" lon="107.189401">
<time>2016-10-06T18:26:22Z</time></trkpt>
<trkpt lat="24.03306" lon="107.189341">
<time>2016-10-06T18:26:23Z</time></trkpt>
<trkpt lat="24.03309" lon="107.18923">
<time>2016-10-06T18:26:24Z</time></trkpt>
<trkpt lat="24.03309" lon="107.18917">
<time>2016-10-06T18:26:25Z</time></trkpt>
<trkpt lat="24.0331" lon="107.18911">
<time>2016-10-06T18:26:26Z</time></trkpt>
<trkpt lat="24.0331" lon="107.189">
<time>2016-10-06T18:26:27Z</time></trkpt>
<trkpt lat="24.0331" lon="107.1889">
<time>2016-10-06T18:26:28Z</time></trkpt>
<trkpt lat="24.033079" lon="107.1888">
<time>2016-10-06T18:26:29Z</time></trkpt>
<trkpt lat="24.033039" lon="107.18866">
<time>2016-10-06T18:26:30Z</time></trkpt>
<trkpt lat="24.032989" lon="107.18856">
<time>2016-10-06T18:26:31Z</time></trkpt>
<trkpt lat="24.032939" lon="107.188469">
<time>2016-10-06T18:26:32Z</time></trkpt>
<trkpt lat="24.032838" lon="107.188319">
<time>2016-10-06T18:26:33Z</time></trkpt>
<trkpt lat="24.032768" lon="107.188239">
<time>2016-10-06T18:26:34Z</time></trkpt>
<trkpt lat="24.032578" lon="107.188049">
<time>2016-10-06T18:26:35Z</time></trkpt>
<trkpt lat="24.032357" lon="107.187829">
<time>2016-10-06T18:26:36Z</time></trkpt>
<trkpt lat="24.032287" lon="107.187749">
<time>2016-10-06T18:26:37Z</time></trkpt>
<trkpt lat="24.032057" lon="107.187478">
<time>2016-10-06T18:26:38Z</time></trkpt>
<trkpt lat="24.031695" lon="107.186887">
<time>2016-10-06T18:26:39Z</time></trkpt>
<trkpt lat="24.031495" lon="107.186517">
<time>2016-10-06T18:26:40Z</time></trkpt>
<trkpt lat="24.031435" lon="107.186407">
<time>2016-10-06T18:26:41Z</time></trkpt>
<trkpt lat="24.031364" lon="107.186257">
<time>2016-10-06T18:26:42Z</time></trkpt>
<trkpt lat="24.031304" lon="107.186096">
<time>2016-10-06T18:26:43Z</time></trkpt>
<trkpt lat="24.031264" lon="107.185966">
<time>2016-10-06T18:26:44Z</time></trkpt>
<trkpt lat="24.031223" lon="107.185826">
<time>2016-10-06T18:26:45Z</time></trkpt>
<trkpt lat="24.031193" lon="107.185606">
<time>2016-10-06T18:26:46Z</time></trkpt>
<trkpt lat="24.03101" lon="107.184164">
<time>2016-10-06T18:26:47Z</time></trkpt>
<trkpt lat="24.030797" lon="107.182111">
<time>2016-10-06T18:26:48Z</time></trkpt>
<trkpt lat="24.030654" lon="107.180679">
<time>2016-10-06T18:26:49Z</time></trkpt>
<trkpt lat="24.030623" lon="107.179968">
<time>2016-10-06T18:26:50Z</time></trkpt>
<trkpt lat="24.030622" lon="107.179617">
<time>2016-10-06T18:26:51Z</time></trkpt>
<trkpt lat="24.030651" lon="107.179167">
<time>2016-10-06T18:26:52Z</time></trkpt>
<trkpt lat="24.030661" lon="107.178826">
<time>2016-10-06T18:26:53Z</time></trkpt>
<trkpt lat="24.03064" lon="107.178476">
<time>2016-10-06T18:26:54Z</time></trkpt>
<trkpt lat="24.03061" lon="107.178296">
<time>2016-10-06T18:26:55Z</time></trkpt>
<trkpt lat="24.030579" lon="107.178165">
<time>2016-10-06T18:26:56Z</time></trkpt>
<trkpt lat="24.030489" lon="107.177935">
<time>2016-10-06T18:26:57Z</time></trkpt>
<trkpt lat="24.030368" lon="107.177705">
<time>2016-10-06T18:26:58Z</time></trkpt>
<trkpt lat="24.030258" lon="107.177534">
<time>2016-10-06T18:26:59Z</time></trkpt>
<trkpt lat="24.030088" lon="107.177334">
<time>2016-10-06T18:27:00Z</time></trkpt>
<trkpt lat="24.028644" lon="107.176022">
<time>2016-10-06T18:27:01Z</time></trkpt>
<trkpt lat="24.027632" lon="107.175151">
<time>2016-10-06T18:27:02Z</time></trkpt>
<trkpt lat="24.026791" lon="107.17459">
<time>2016-10-06T18:27:03Z</time></trkpt>
<trkpt lat="24.02647" lon="107.17438">
<time>2016-10-06T18:27:04Z</time></trkpt>
<trkpt lat="24.02607" lon="107.174">
<time>2016-10-06T18:27:05Z</time></trkpt>
<trkpt lat="24.025759" lon="107.173599">
<time>2016-10-06T18:27:06Z</time></trkpt>
<trkpt lat="24.025568" lon="107.173329">
<time>2016-10-06T18:27:07Z</time></trkpt>
<trkpt lat="24.025478" lon="107.173178">
<time>2016-10-06T18:27:08Z</time></trkpt>
<trkpt lat="24.025408" lon="107.173038">
<time>2016-10-06T18:27:09Z</time></trkpt>
<trkpt lat="24.025307" lon="107.172788">
<time>2016-10-06T18:27:10Z</time></trkpt>
<trkpt lat="24.025277" lon="107.172668">
<time>2016-10-06T18:27:11Z</time></trkpt>
<trkpt lat="24.025247" lon="107.172567">
<time>2016-10-06T18:27:12Z</time></trkpt>
<trkpt lat="24.025226" lon="107.172477">
<time>2016-10-06T18:27:13Z</time></trkpt>
<trkpt lat="24.025186" lon="107.172187">
<time>2016-10-06T18:27:14Z</time></trkpt>
<trkpt lat="24.025145" lon="107.171866">
<time>2016-10-06T18:27:15Z</time></trkpt>
<trkpt lat="24.025105" lon="107.171606">
<time>2016-10-06T18:27:16Z</time></trkpt>
<trkpt lat="24.025074" lon="107.171506">
<time>2016-10-06T18:27:17Z</time></trkpt>
<trkpt lat="24.025044" lon="107.171426">
<time>2016-10-06T18:27:18Z</time></trkpt>
<trkpt lat="24.024974" lon="107.171256">
<time>2016-10-06T18:27:19Z</time></trkpt>
<trkpt lat="24.024944" lon="107.171175">
<time>2016-10-06T18:27:20Z</time></trkpt>
<trkpt lat="24.024904" lon="107.171105">
<time>2016-10-06T18:27:21Z</time></trkpt>
<trkpt lat="24.024864" lon="107.171045">
<time>2016-10-06T18:27:22Z</time></trkpt>
<trkpt lat="24.024793" lon="107.170955">
<time>2016-10-06T18:27:23Z</time></trkpt>
<trkpt lat="24.024242" lon="107.170344">
<time>2016-10-06T18:27:24Z</time></trkpt>
<trkpt lat="24.023651" lon="107.169723">
<time>2016-10-06T18:27:25Z</time></trkpt>
<trkpt lat="24.02351" lon="107.169573">
<time>2016-10-06T18:27:26Z</time></trkpt>
<trkpt lat="24.022939" lon="107.168982">
<time>2016-10-06T18:27:27Z</time></trkpt>
<trkpt lat="24.022768" lon="107.168782">
<time>2016-10-06T18:27:28Z</time></trkpt>
<trkpt lat="24.022417" lon="107.168331">
<time>2016-10-06T18:27:29Z</time></trkpt>
<trkpt lat="24.022016" lon="107.167731">
<time>2016-10-06T18:27:30Z</time></trkpt>
<trkpt lat="24.021484" lon="107.166929">
<time>2016-10-06T18:27:31Z</time></trkpt>
<trkpt lat="24.021394" lon="107.166799">
<time>2016-10-06T18:27:32Z</time></trkpt>
<trkpt lat="24.021224" lon="107.166639">
<time>2016-10-06T18:27:33Z</time></trkpt>
<trkpt lat="24.021013" lon="107.166519">
<time>2016-10-06T18:27:34Z</time></trkpt>
<trkpt lat="24.020903" lon="107.166479">
<time>2016-10-06T18:27:35Z</time></trkpt>
<trkpt lat="24.020793" lon="107.166459">
<time>2016-10-06T18:27:36Z</time></trkpt>
<trkpt lat="24.020713" lon="107.166449">
<time>2016-10-06T18:27:37Z</time></trkpt>
<trkpt lat="24.020593" lon="107.166439">
<time>2016-10-06T18:27:38Z</time></trkpt>
<trkpt lat="24.020493" lon="107.166449">
<time>2016-10-06T18:27:39Z</time></trkpt>
<trkpt lat="24.020233" lon="107.166499">
<time>2016-10-06T18:27:40Z</time></trkpt>
<trkpt lat="24.019353" lon="107.166729">
<time>2016-10-06T18:27:41Z</time></trkpt>
<trkpt lat="24.018673" lon="107.16693">
<time>2016-10-06T18:27:42Z</time></trkpt>
<trkpt lat="24.018023" lon="107.16709">
<time>2016-10-06T18:27:43Z</time></trkpt>
<trkpt lat="24.017353" lon="107.16726">
<time>2016-10-06T18:27:44Z</time></trkpt>
<trkpt lat="24.016783" lon="107.16743">
<time>2016-10-06T18:27:45Z</time></trkpt>
<trkpt lat="24.016283" lon="107.167651">
<time>2016-10-06T18:27:46Z</time></trkpt>
<trkpt lat="24.015864" lon="107.167881">
<time>2016-10-06T18:27:47Z</time></trkpt>
<trkpt lat="24.015374" lon="107.168212">
<time>2016-10-06T18:27:48Z</time></trkpt>
<trkpt lat="24.015024" lon="107.168472">
<time>2016-10-06T18:27:49Z</time></trkpt>
<trkpt lat="24.014825" lon="107.168632">
<time>2016-10-06T18:27:50Z</time></trkpt>
<trkpt lat="24.014675" lon="107.168752">
<time>2016-10-06T18:27:51Z</time></trkpt>
<trkpt lat="24.014505" lon="107.168883">
<time>2016-10-06T18:27:52Z</time></trkpt>
<trkpt lat="24.014295" lon="107.169023">
<time>2016-10-06T18:27:53Z</time></trkpt>
<trkpt lat="24.013896" lon="107.169363">
<time>2016-10-06T18:27:54Z</time></trkpt>
<trkpt lat="24.013536" lon="107.169684">
<time>2016-10-06T18:27:55Z</time></trkpt>
<trkpt lat="24.013336" lon="107.169874">
<time>2016-10-06T18:27:56Z</time></trkpt>
<trkpt lat="24.013157" lon="107.170034">
<time>2016-10-06T18:27:57Z</time></trkpt>
<trkpt lat="24.013077" lon="107.170095">
<time>2016-10-06T18:27:58Z</time></trkpt>
<trkpt lat="24.013007" lon="107.170145">
<time>2016-10-06T18:27:59Z</time></trkpt>
<trkpt lat="24.012917" lon="107.170195">
<time>2016-10-06T18:28:00Z</time></trkpt>
<trkpt lat="24.012757" lon="107.170265">
<time>2016-10-06T18:28:01Z</time></trkpt>
<trkpt lat="24.012717" lon="107.170295">
<time>2016-10-06T18:28:02Z</time></trkpt>
<trkpt lat="24.012167" lon="107.170435">
<time>2016-10-06T18:28:03Z</time></trkpt>
<trkpt lat="24.010947" lon="107.170716">
<time>2016-10-06T18:28:04Z</time></trkpt>
<trkpt lat="24.010617" lon="107.170786">
<time>2016-10-06T18:28:05Z</time></trkpt>
<trkpt lat="24.009897" lon="107.170856">
<time>2016-10-06T18:28:06Z</time></trkpt>
<trkpt lat="24.009807" lon="107.170856">
<time>2016-10-06T18:28:07Z</time></trkpt>
<trkpt lat="24.009657" lon="107.170856">
<time>2016-10-06T18:28:08Z</time></trkpt>
<trkpt lat="24.009106" lon="107.170826">
<time>2016-10-06T18:28:09Z</time></trkpt>
<trkpt lat="24.008956" lon="107.170806">
<time>2016-10-06T18:28:10Z</time></trkpt>
<trkpt lat="24.008786" lon="107.170786">
<time>2016-10-06T18:28:11Z</time></trkpt>
<trkpt lat="24.008686" lon="107.170756">
<time>2016-10-06T18:28:12Z</time></trkpt>
<trkpt lat="24.008616" lon="107.170726">
<time>2016-10-06T18:28:13Z</time></trkpt>
<trkpt lat="24.008576" lon="107.170716">
<time>2016-10-06T18:28:14Z</time></trkpt>
<trkpt lat="24.008506" lon="107.170686">
<time>2016-10-06T18:28:15Z</time></trkpt>
<trkpt lat="24.008426" lon="107.170626">
<time>2016-10-06T18:28:16Z</time></trkpt>
<trkpt lat="24.008366" lon="107.170575">
<time>2016-10-06T18:28:17Z</time></trkpt>
<trkpt lat="24.008305" lon="107.170495">
<time>2016-10-06T18:28:18Z</time></trkpt>
<trkpt lat="24.008255" lon="107.170415">
<time>2016-10-06T18:28:19Z</time></trkpt>
<trkpt lat="24.008205" lon="107.170285">
<time>2016-10-06T18:28:20Z</time></trkpt>
<trkpt lat="24.008185" lon="107.170225">
<time>2016-10-06T18:28:21Z</time></trkpt>
<trkpt lat="24.008165" lon="107.170175">
<time>2016-10-06T18:28:22Z</time></trkpt>
<trkpt lat="24.008155" lon="107.170125">
<time>2016-10-06T18:28:23Z</time></trkpt>
<trkpt lat="24.008145" lon="107.170075">
<time>2016-10-06T18:28:24Z</time></trkpt>
<trkpt lat="24.008094" lon="107.169584">
<time>2016-10-06T18:28:25Z</time></trkpt>
<trkpt lat="24.008063" lon="107.169284">
<time>2016-10-06T18:28:26Z</time></trkpt>
<trkpt lat="24.008033" lon="107.169013">
<time>2016-10-06T18:28:27Z</time></trkpt>
<trkpt lat="24.008002" lon="107.168783">
<time>2016-10-06T18:28:28Z</time></trkpt>
<trkpt lat="24.007992" lon="107.168683">
<time>2016-10-06T18:28:29Z</time></trkpt>
<trkpt lat="24.007972" lon="107.168593">
<time>2016-10-06T18:28:30Z</time></trkpt>
<trkpt lat="24.007952" lon="107.168512">
<time>2016-10-06T18:28:31Z</time></trkpt>
<trkpt lat="24.007911" lon="107.168432">
<time>2016-10-06T18:28:32Z</time></trkpt>
<trkpt lat="24.007891" lon="107.168382">
<time>2016-10-06T18:28:33Z</time></trkpt>
<trkpt lat="24.007851" lon="107.168322">
<time>2016-10-06T18:28:34Z</time></trkpt>
<trkpt lat="24.007821" lon="107.168282">
<time>2016-10-06T18:28:35Z</time></trkpt>
<trkpt lat="24.007771" lon="107.168232">
<time>2016-10-06T18:28:36Z</time></trkpt>
<trkpt lat="24.007731" lon="107.168192">
<time>2016-10-06T18:28:37Z</time></trkpt>
<trkpt lat="24.007681" lon="107.168162">
<time>2016-10-06T18:28:38Z</time></trkpt>
<trkpt lat="24.007621" lon="107.168132">
<time>2016-10-06T18:28:39Z</time></trkpt>
<trkpt lat="24.007521" lon="107.168092">
<time>2016-10-06T18:28:40Z</time></trkpt>
<trkpt lat="24.007481" lon="107.168072">
<time>2016-10-06T18:28:41Z</time></trkpt>
<trkpt lat="24.00743" lon="107.168072">
<time>2016-10-06T18:28:42Z</time></trkpt>
<trkpt lat="24.00736" lon="107.168062">
<time>2016-10-06T18:28:43Z</time></trkpt>
<trkpt lat="24.00686" lon="107.168022">
<time>2016-10-06T18:28:44Z</time></trkpt>
<trkpt lat="24.00672" lon="107.168002">
<time>2016-10-06T18:28:45Z</time></trkpt>
<trkpt lat="24.00655" lon="107.167972">
<time>2016-10-06T18:28:46Z</time></trkpt>
<trkpt lat="24.00645" lon="107.167942">
<time>2016-10-06T18:28:47Z</time></trkpt>
<trkpt lat="24.00638" lon="107.167902">
<time>2016-10-06T18:28:48Z</time></trkpt>
<trkpt lat="24.00628" lon="107.167852">
<time>2016-10-06T18:28:49Z</time></trkpt>
<trkpt lat="24.006199" lon="107.167791">
<time>2016-10-06T18:28:50Z</time></trkpt>
<trkpt lat="24.006049" lon="107.167671">
<time>2016-10-06T18:28:51Z</time></trkpt>
<trkpt lat="24.005999" lon="107.167621">
<time>2016-10-06T18:28:52Z</time></trkpt>
<trkpt lat="24.005909" lon="107.167531">
<time>2016-10-06T18:28:53Z</time></trkpt>
<trkpt lat="24.005648" lon="107.167241">
<time>2016-10-06T18:28:54Z</time></trkpt>
<trkpt lat="24.005197" lon="107.16672">
<time>2016-10-06T18:28:55Z</time></trkpt>
<trkpt lat="24.004976" lon="107.16647">
<time>2016-10-06T18:28:56Z</time></trkpt>
<trkpt lat="24.004776" lon="107.166219">
<time>2016-10-06T18:28:57Z</time></trkpt>
<trkpt lat="24.004565" lon="107.165969">
<time>2016-10-06T18:28:58Z</time></trkpt>
<trkpt lat="24.004335" lon="107.165698">
<time>2016-10-06T18:28:59Z</time></trkpt>
<trkpt lat="24.004224" lon="107.165558">
<time>2016-10-06T18:29:00Z</time></trkpt>
<trkpt lat="24.004004" lon="107.165278">
<time>2016-10-06T18:29:01Z</time></trkpt>
<trkpt lat="24.003883" lon="107.165108">
<time>2016-10-06T18:29:02Z</time></trkpt>
<trkpt lat="24.003823" lon="107.164997">
<time>2016-10-06T18:29:03Z</time></trkpt>
<trkpt lat="24.003763" lon="107.164847">
<time>2016-10-06T18:29:04Z</time></trkpt>
<trkpt lat="24.003753" lon="107.164727">
<time>2016-10-06T18:29:05Z</time></trkpt>
<trkpt lat="24.003742" lon="107.164597">
<time>2016-10-06T18:29:06Z</time></trkpt>
<trkpt lat="24.003752" lon="107.164487">
<time>2016-10-06T18:29:07Z</time></trkpt>
<trkpt lat="24.003792" lon="107.164337">
<time>2016-10-06T18:29:08Z</time></trkpt>
<trkpt lat="24.003822" lon="107.164246">
<time>2016-10-06T18:29:09Z</time></trkpt>
<trkpt lat="24.003872" lon="107.164146">
<time>2016-10-06T18:29:10Z</time></trkpt>
<trkpt lat="24.003921" lon="107.164066">
<time>2016-10-06T18:29:11Z</time></trkpt>
<trkpt lat="24.004001" lon="107.163966">
<time>2016-10-06T18:29:12Z</time></trkpt>
<trkpt lat="24.004291" lon="107.163645">
<time>2016-10-06T18:29:13Z</time></trkpt>
<trkpt lat="24.004381" lon="107.163525">
<time>2016-10-06T18:29:14Z</time></trkpt>
<trkpt lat="24.00444" lon="107.163435">
<time>2016-10-06T18:29:15Z</time></trkpt>
<trkpt lat="24.0045" lon="107.163305">
<time>2016-10-06T18:29:16Z</time></trkpt>
<trkpt lat="24.00455" lon="107.163185">
<time>2016-10-06T18:29:17Z</time></trkpt>
<trkpt lat="24.00457" lon="107.163075">
<time>2016-10-06T18:29:18Z</time></trkpt>
<trkpt lat="24.00458" lon="107.162995">
<time>2016-10-06T18:29:19Z</time></trkpt>
<trkpt lat="24.004579" lon="107.162884">
<time>2016-10-06T18:29:20Z</time></trkpt>
<trkpt lat="24.004569" lon="107.162804">
<time>2016-10-06T18:29:21Z</time></trkpt>
<trkpt lat="24.004559" lon="107.162704">
<time>2016-10-06T18:29:22Z</time></trkpt>
<trkpt lat="24.004539" lon="107.162604">
<time>2016-10-06T18:29:23Z</time></trkpt>
<trkpt lat="24.004509" lon="107.162514">
<time>2016-10-06T18:29:24Z</time></trkpt>
<trkpt lat="24.004459" lon="107.162414">
<time>2016-10-06T18:29:25Z</time></trkpt>
<trkpt lat="24.004398" lon="107.162314">
<time>2016-10-06T18:29:26Z</time></trkpt>
<trkpt lat="24.004268" lon="107.162123">
<time>2016-10-06T18:29:27Z</time></trkpt>
<trkpt lat="24.004158" lon="107.161983">
<time>2016-10-06T18:29:28Z</time></trkpt>
<trkpt lat="24.003767" lon="107.161502">
<time>2016-10-06T18:29:29Z</time></trkpt>
<trkpt lat="24.003696" lon="107.161402">
<time>2016-10-06T18:29:30Z</time></trkpt>
<trkpt lat="24.003365" lon="107.160952">
<time>2016-10-06T18:29:31Z</time></trkpt>
<trkpt lat="24.003255" lon="107.160741">
<time>2016-10-06T18:29:32Z</time></trkpt>
<trkpt lat="24.002934" lon="107.16011">
<time>2016-10-06T18:29:33Z</time></trkpt>
<trkpt lat="24.002723" lon="107.15959">
<time>2016-10-06T18:29:34Z</time></trkpt>
<trkpt lat="24.002541" lon="107.158949">
<time>2016-10-06T18:29:35Z</time></trkpt>
<trkpt lat="24.00243" lon="107.158538">
<time>2016-10-06T18:29:36Z</time></trkpt>
<trkpt lat="24.002199" lon="107.157617">
<time>2016-10-06T18:29:37Z</time></trkpt>
<trkpt lat="24.002138" lon="107.157407">
<time>2016-10-06T18:29:38Z</time></trkpt>
<trkpt lat="24.002047" lon="107.156896">
<time>2016-10-06T18:29:39Z</time></trkpt>
<trkpt lat="24.002017" lon="107.156716">
<time>2016-10-06T18:29:40Z</time></trkpt>
<trkpt lat="24.001997" lon="107.156505">
<time>2016-10-06T18:29:41Z</time></trkpt>
<trkpt lat="24.001996" lon="107.156105">
<time>2016-10-06T18:29:42Z</time></trkpt>
<trkpt lat="24.002004" lon="107.155003">
<time>2016-10-06T18:29:43Z</time></trkpt>
<trkpt lat="24.001992" lon="107.153942">
<time>2016-10-06T18:29:44Z</time></trkpt>
<trkpt lat="24.00201" lon="107.153021">
<time>2016-10-06T18:29:45Z</time></trkpt>
<trkpt lat="24.002" lon="107.15275">
<time>2016-10-06T18:29:46Z</time></trkpt>
<trkpt lat="24.001959" lon="107.15253">
<time>2016-10-06T18:29:47Z</time></trkpt>
<trkpt lat="24.001939" lon="107.15243">
<time>2016-10-06T18:29:48Z</time></trkpt>
<trkpt lat="24.001899" lon="107.15233">
<time>2016-10-06T18:29:49Z</time></trkpt>
<trkpt lat="24.001869" lon="107.152259">
<time>2016-10-06T18:29:50Z</time></trkpt>
<trkpt lat="24.001829" lon="107.152199">
<time>2016-10-06T18:29:51Z</time></trkpt>
<trkpt lat="24.001788" lon="107.152139">
<time>2016-10-06T18:29:52Z</time></trkpt>
<trkpt lat="24.001728" lon="107.152079">
<time>2016-10-06T18:29:53Z</time></trkpt>
<trkpt lat="24.001638" lon="107.151999">
<time>2016-10-06T18:29:54Z</time></trkpt>
<trkpt lat="24.001568" lon="107.151939">
<time>2016-10-06T18:29:55Z</time></trkpt>
<trkpt lat="24.001468" lon="107.151869">
<time>2016-10-06T18:29:56Z</time></trkpt>
<trkpt lat="24.001388" lon="107.151829">
<time>2016-10-06T18:29:57Z</time></trkpt>
<trkpt lat="24.001278" lon="107.151779">
<time>2016-10-06T18:29:58Z</time></trkpt>
<trkpt lat="24.001188" lon="107.151749">
<time>2016-10-06T18:29:59Z</time></trkpt>
<trkpt lat="24.000997" lon="107.151689">
<time>2016-10-06T18:30:00Z</time></trkpt>
<trkpt lat="24.000837" lon="107.151609">
<time>2016-10-06T18:30:01Z</time></trkpt>
<trkpt lat="24.000617" lon="107.151479">
<time>2016-10-06T18:30:02Z</time></trkpt>
<trkpt lat="24.000497" lon="107.151388">
<time>2016-10-06T18:30:03Z</time></trkpt>
<trkpt lat="24.000396" lon="107.151278">
<time>2016-10-06T18:30:04Z</time></trkpt>
<trkpt lat="24.000296" lon="107.151128">
<time>2016-10-06T18:30:05Z</time></trkpt>
<trkpt lat="24.000206" lon="107.150918">
<time>2016-10-06T18:30:06Z</time></trkpt>
<trkpt lat="24.000155" lon="107.150798">
<time>2016-10-06T18:30:07Z</time></trkpt>
<trkpt lat="24.000105" lon="107.150577">
<time>2016-10-06T18:30:08Z</time></trkpt>
<trkpt lat="24.000035" lon="107.150347">
<time>2016-10-06T18:30:09Z</time></trkpt>
<trkpt lat="24.000014" lon="107.150217">
<time>2016-10-06T18:30:10Z</time></trkpt>
<trkpt lat="23.999944" lon="107.149936">
<time>2016-10-06T18:30:11Z</time></trkpt>
<trkpt lat="23.999893" lon="107.149736">
<time>2016-10-06T18:30:12Z</time></trkpt>
<trkpt lat="23.999833" lon="107.149556">
<time>2016-10-06T18:30:13Z</time></trkpt>
<trkpt lat="23.999753" lon="107.149326">
<time>2016-10-06T18:30:14Z</time></trkpt>
<trkpt lat="23.999662" lon="107.149135">
<time>2016-10-06T18:30:15Z</time></trkpt>
<trkpt lat="23.999451" lon="107.148725">
<time>2016-10-06T18:30:16Z</time></trkpt>
<trkpt lat="23.998869" lon="107.147644">
<time>2016-10-06T18:30:17Z</time></trkpt>
<trkpt lat="23.998769" lon="107.147463">
<time>2016-10-06T18:30:18Z</time></trkpt>
<trkpt lat="23.998689" lon="107.147353">
<time>2016-10-06T18:30:19Z</time></trkpt>
<trkpt lat="23.998639" lon="107.147293">
<time>2016-10-06T18:30:20Z</time></trkpt>
<trkpt lat="23.998619" lon="107.147273">
<time>2016-10-06T18:30:21Z</time></trkpt>
<trkpt lat="23.998558" lon="107.147213">
<time>2016-10-06T18:30:22Z</time></trkpt>
<trkpt lat="23.998498" lon="107.147173">
<time>2016-10-06T18:30:23Z</time></trkpt>
<trkpt lat="23.998428" lon="107.147133">
<time>2016-10-06T18:30:24Z</time></trkpt>
<trkpt lat="23.998358" lon="107.147093">
<time>2016-10-06T18:30:25Z</time></trkpt>
<trkpt lat="23.998308" lon="107.147083">
<time>2016-10-06T18:30:26Z</time></trkpt>
<trkpt lat="23.998248" lon="107.147063">
<time>2016-10-06T18:30:27Z</time></trkpt>
<trkpt lat="23.998178" lon="107.147053">
<time>2016-10-06T18:30:28Z</time></trkpt>
<trkpt lat="23.998078" lon="107.147063">
<time>2016-10-06T18:30:29Z</time></trkpt>
<trkpt lat="23.997998" lon="107.147073">
<time>2016-10-06T18:30:30Z</time></trkpt>
<trkpt lat="23.997908" lon="107.147103">
<time>2016-10-06T18:30:31Z</time></trkpt>
<trkpt lat="23.997848" lon="107.147133">
<time>2016-10-06T18:30:32Z</time></trkpt>
<trkpt lat="23.997788" lon="107.147173">
<time>2016-10-06T18:30:33Z</time></trkpt>
<trkpt lat="23.997738" lon="107.147213">
<time>2016-10-06T18:30:34Z</time></trkpt>
<trkpt lat="23.997678" lon="107.147273">
<time>2016-10-06T18:30:35Z</time></trkpt>
<trkpt lat="23.997608" lon="107.147353">
<time>2016-10-06T18:30:36Z</time></trkpt>
<trkpt lat="23.997469" lon="107.147513">
<time>2016-10-06T18:30:37Z</time></trkpt>
<trkpt lat="23.997289" lon="107.147714">
<time>2016-10-06T18:30:38Z</time></trkpt>
<trkpt lat="23.997099" lon="107.147924">
<time>2016-10-06T18:30:39Z</time></trkpt>
<trkpt lat="23.996929" lon="107.148074">
<time>2016-10-06T18:30:40Z</time></trkpt>
<trkpt lat="23.996839" lon="107.148144">
<time>2016-10-06T18:30:41Z</time></trkpt>
<trkpt lat="23.996709" lon="107.148214">
<time>2016-10-06T18:30:42Z</time></trkpt>
<trkpt lat="23.996559" lon="107.148305">
<time>2016-10-06T18:30:43Z</time></trkpt>
<trkpt lat="23.99604" lon="107.148515">
<time>2016-10-06T18:30:44Z</time></trkpt>
<trkpt lat="23.99585" lon="107.148565">
<time>2016-10-06T18:30:45Z</time></trkpt>
<trkpt lat="23.99569" lon="107.148595">
<time>2016-10-06T18:30:46Z</time></trkpt>
<trkpt lat="23.99558" lon="107.148615">
<time>2016-10-06T18:30:47Z</time></trkpt>
<trkpt lat="23.99547" lon="107.148625">
<time>2016-10-06T18:30:48Z</time></trkpt>
<trkpt lat="23.99535" lon="107.148615">
<time>2016-10-06T18:30:49Z</time></trkpt>
<trkpt lat="23.995249" lon="107.148605">
<time>2016-10-06T18:30:50Z</time></trkpt>
<trkpt lat="23.995159" lon="107.148585">
<time>2016-10-06T18:30:51Z</time></trkpt>
<trkpt lat="23.995069" lon="107.148555">
<time>2016-10-06T18:30:52Z</time></trkpt>
<trkpt lat="23.994989" lon="107.148515">
<time>2016-10-06T18:30:53Z</time></trkpt>
<trkpt lat="23.994869" lon="107.148445">
<time>2016-10-06T18:30:54Z</time></trkpt>
<trkpt lat="23.994569" lon="107.148235">
<time>2016-10-06T18:30:55Z</time></trkpt>
<trkpt lat="23.994298" lon="107.148014">
<time>2016-10-06T18:30:56Z</time></trkpt>
<trkpt lat="23.994128" lon="107.147854">
<time>2016-10-06T18:30:57Z</time></trkpt>
<trkpt lat="23.993967" lon="107.147674">
<time>2016-10-06T18:30:58Z</time></trkpt>
<trkpt lat="23.993717" lon="107.147363">
<time>2016-10-06T18:30:59Z</time></trkpt>
<trkpt lat="23.993205" lon="107.146603">
<time>2016-10-06T18:31:00Z</time></trkpt>
<trkpt lat="23.992934" lon="107.146192">
<time>2016-10-06T18:31:01Z</time></trkpt>
<trkpt lat="23.992784" lon="107.145942">
<time>2016-10-06T18:31:02Z</time></trkpt>
<trkpt lat="23.992694" lon="107.145782">
<time>2016-10-06T18:31:03Z</time></trkpt>
<trkpt lat="23.992623" lon="107.145611">
<time>2016-10-06T18:31:04Z</time></trkpt>
<trkpt lat="23.992573" lon="107.145451">
<time>2016-10-06T18:31:05Z</time></trkpt>
<trkpt lat="23.992543" lon="107.145321">
<time>2016-10-06T18:31:06Z</time></trkpt>
<trkpt lat="23.992522" lon="107.145151">
<time>2016-10-06T18:31:07Z</time></trkpt>
<trkpt lat="23.992502" lon="107.144961">
<time>2016-10-06T18:31:08Z</time></trkpt>
<trkpt lat="23.992492" lon="107.14466">
<time>2016-10-06T18:31:09Z</time></trkpt>
<trkpt lat="23.992471" lon="107.1444">
<time>2016-10-06T18:31:10Z</time></trkpt>
<trkpt lat="23.992461" lon="107.1443">
<time>2016-10-06T18:31:11Z</time></trkpt>
<trkpt lat="23.992431" lon="107.14421">
<time>2016-10-06T18:31:12Z</time></trkpt>
<trkpt lat="23.992401" lon="107.14411">
<time>2016-10-06T18:31:13Z</time></trkpt>
<trkpt lat="23.99236" lon="107.144029">
<time>2016-10-06T18:31:14Z</time></trkpt>
<trkpt lat="23.99232" lon="107.143959">
<time>2016-10-06T18:31:15Z</time></trkpt>
<trkpt lat="23.99229" lon="107.143899">
<time>2016-10-06T18:31:16Z</time></trkpt>
<trkpt lat="23.99225" lon="107.143839">
<time>2016-10-06T18:31:17Z</time></trkpt>
<trkpt lat="23.99219" lon="107.143779">
<time>2016-10-06T18:31:18Z</time></trkpt>
<trkpt lat="23.99214" lon="107.143729">
<time>2016-10-06T18:31:19Z</time></trkpt>
<trkpt lat="23.99208" lon="107.143679">
<time>2016-10-06T18:31:20Z</time></trkpt>
<trkpt lat="23.99203" lon="107.143649">
<time>2016-10-06T18:31:21Z</time></trkpt>
<trkpt lat="23.99199" lon="107.143629">
<time>2016-10-06T18:31:22Z</time></trkpt>
<trkpt lat="23.99195" lon="107.143609">
<time>2016-10-06T18:31:23Z</time></trkpt>
<trkpt lat="23.99191" lon="107.143599">
<time>2016-10-06T18:31:24Z</time></trkpt>
<trkpt lat="23.991849" lon="107.143579">
<time>2016-10-06T18:31:25Z</time></trkpt>
<trkpt lat="23.991789" lon="107.143559">
<time>2016-10-06T18:31:26Z</time></trkpt>
<trkpt lat="23.991729" lon="107.143549">
<time>2016-10-06T18:31:27Z</time></trkpt>
<trkpt lat="23.991679" lon="107.143539">
<time>2016-10-06T18:31:28Z</time></trkpt>
<trkpt lat="23.991629" lon="107.143529">
<time>2016-10-06T18:31:29Z</time></trkpt>
<trkpt lat="23.991579" lon="107.143529">
<time>2016-10-06T18:31:30Z</time></trkpt>
<trkpt lat="23.991159" lon="107.143509">
<time>2016-10-06T18:31:31Z</time></trkpt>
<trkpt lat="23.991099" lon="107.143499">
<time>2016-10-06T18:31:32Z</time></trkpt>
<trkpt lat="23.991029" lon="107.143479">
<time>2016-10-06T18:31:33Z</time></trkpt>
<trkpt lat="23.990959" lon="107.143459">
<time>2016-10-06T18:31:34Z</time></trkpt>
<trkpt lat="23.990899" lon="107.143439">
<time>2016-10-06T18:31:35Z</time></trkpt>
<trkpt lat="23.990839" lon="107.143409">
<time>2016-10-06T18:31:36Z</time></trkpt>
<trkpt lat="23.990779" lon="107.143369">
<time>2016-10-06T18:31:37Z</time></trkpt>
<trkpt lat="23.990719" lon="107.143329">
<time>2016-10-06T18:31:38Z</time></trkpt>
<trkpt lat="23.990658" lon="107.143269">
<time>2016-10-06T18:31:39Z</time></trkpt>
<trkpt lat="23.990608" lon="107.143219">
<time>2016-10-06T18:31:40Z</time></trkpt>
<trkpt lat="23.990538" lon="107.143128">
<time>2016-10-06T18:31:41Z</time></trkpt>
<trkpt lat="23.990468" lon="107.143018">
<time>2016-10-06T18:31:42Z</time></trkpt>
<trkpt lat="23.990408" lon="107.142928">
<time>2016-10-06T18:31:43Z</time></trkpt>
<trkpt lat="23.990287" lon="107.142698">
<time>2016-10-06T18:31:44Z</time></trkpt>
<trkpt lat="23.990227" lon="107.142608">
<time>2016-10-06T18:31:45Z</time></trkpt>
<trkpt lat="23.990167" lon="107.142528">
<time>2016-10-06T18:31:46Z</time></trkpt>
<trkpt lat="23.990127" lon="107.142478">
<time>2016-10-06T18:31:47Z</time></trkpt>
<trkpt lat="23.990077" lon="107.142438">
<time>2016-10-06T18:31:48Z</time></trkpt>
<trkpt lat="23.990037" lon="107.142408">
<time>2016-10-06T18:31:49Z</time></trkpt>
<trkpt lat="23.989987" lon="107.142378">
<time>2016-10-06T18:31:50Z</time></trkpt>
<trkpt lat="23.989937" lon="107.142358">
<time>2016-10-06T18:31:51Z</time></trkpt>
<trkpt lat="23.989887" lon="107.142338">
<time>2016-10-06T18:31:52Z</time></trkpt>
<trkpt lat="23.989827" lon="107.142318">
<time>2016-10-06T18:31:53Z</time></trkpt>
<trkpt lat="23.989776" lon="107.142307">
<time>2016-10-06T18:31:54Z</time></trkpt>
<trkpt lat="23.989736" lon="107.142308">
<time>2016-10-06T18:31:55Z</time></trkpt>
<trkpt lat="23.989696" lon="107.142308">
<time>2016-10-06T18:31:56Z</time></trkpt>
<trkpt lat="23.989646" lon="107.142318">
<time>2016-10-06T18:31:57Z</time></trkpt>
<trkpt lat="23.989586" lon="107.142328">
<time>2016-10-06T18:31:58Z</time></trkpt>
<trkpt lat="23.989526" lon="107.142338">
<time>2016-10-06T18:31:59Z</time></trkpt>
<trkpt lat="23.989466" lon="107.142368">
<time>2016-10-06T18:32:00Z</time></trkpt>
<trkpt lat="23.989406" lon="107.142398">
<time>2016-10-06T18:32:01Z</time></trkpt>
<trkpt lat="23.989347" lon="107.142448">
<time>2016-10-06T18:32:02Z</time></trkpt>
<trkpt lat="23.989207" lon="107.142568">
<time>2016-10-06T18:32:03Z</time></trkpt>
<trkpt lat="23.988997" lon="107.142738">
<time>2016-10-06T18:32:04Z</time></trkpt>
<trkpt lat="23.988867" lon="107.142818">
<time>2016-10-06T18:32:05Z</time></trkpt>
<trkpt lat="23.988807" lon="107.142838">
<time>2016-10-06T18:32:06Z</time></trkpt>
<trkpt lat="23.988757" lon="107.142848">
<time>2016-10-06T18:32:07Z</time></trkpt>
<trkpt lat="23.988697" lon="107.142858">
<time>2016-10-06T18:32:08Z</time></trkpt>
<trkpt lat="23.988647" lon="107.142858">
<time>2016-10-06T18:32:09Z</time></trkpt>
<trkpt lat="23.988597" lon="107.142848">
<time>2016-10-06T18:32:10Z</time></trkpt>
<trkpt lat="23.988547" lon="107.142838">
<time>2016-10-06T18:32:11Z</time></trkpt>
<trkpt lat="23.988497" lon="107.142818">
<time>2016-10-06T18:32:12Z</time></trkpt>
<trkpt lat="23.988437" lon="107.142798">
<time>2016-10-06T18:32:13Z</time></trkpt>
<trkpt lat="23.988387" lon="107.142758">
<time>2016-10-06T18:32:14Z</time></trkpt>
<trkpt lat="23.988347" lon="107.142708">
<time>2016-10-06T18:32:15Z</time></trkpt>
<trkpt lat="23.988296" lon="107.142648">
<time>2016-10-06T18:32:16Z</time></trkpt>
<trkpt lat="23.988256" lon="107.142578">
<time>2016-10-06T18:32:17Z</time></trkpt>
<trkpt lat="23.988216" lon="107.142468">
<time>2016-10-06T18:32:18Z</time></trkpt>
<trkpt lat="23.988196" lon="107.142368">
<time>2016-10-06T18:32:19Z</time></trkpt>
<trkpt lat="23.988196" lon="107.142288">
<time>2016-10-06T18:32:20Z</time></trkpt>
<trkpt lat="23.988186" lon="107.142167">
<time>2016-10-06T18:32:21Z</time></trkpt>
<trkpt lat="23.988215" lon="107.141847">
<time>2016-10-06T18:32:22Z</time></trkpt>
<trkpt lat="23.988194" lon="107.141467">
<time>2016-10-06T18:32:23Z</time></trkpt>
<trkpt lat="23.987943" lon="107.140856">
<time>2016-10-06T18:32:24Z</time></trkpt>
<trkpt lat="23.987833" lon="107.140445">
<time>2016-10-06T18:32:25Z</time></trkpt>
<trkpt lat="23.987882" lon="107.140045">
<time>2016-10-06T18:32:26Z</time></trkpt>
<trkpt lat="23.988061" lon="107.139574">
<time>2016-10-06T18:32:27Z</time></trkpt>
<trkpt lat="23.988131" lon="107.139054">
<time>2016-10-06T18:32:28Z</time></trkpt>
<trkpt lat="23.98813" lon="107.138613">
<time>2016-10-06T18:32:29Z</time></trkpt>
<trkpt lat="23.988179" lon="107.138273">
<time>2016-10-06T18:32:30Z</time></trkpt>
<trkpt lat="23.988269" lon="107.137983">
<time>2016-10-06T18:32:31Z</time></trkpt>
<trkpt lat="23.988678" lon="107.137322">
<time>2016-10-06T18:32:32Z</time></trkpt>
<trkpt lat="23.988917" lon="107.136801">
<time>2016-10-06T18:32:33Z</time></trkpt>
<trkpt lat="23.989446" lon="107.13544">
<time>2016-10-06T18:32:34Z</time></trkpt>
<trkpt lat="23.989595" lon="107.13511">
<time>2016-10-06T18:32:35Z</time></trkpt>
<trkpt lat="23.989795" lon="107.134699">
<time>2016-10-06T18:32:36Z</time></trkpt>
<trkpt lat="23.989924" lon="107.134429">
<time>2016-10-06T18:32:37Z</time></trkpt>
<trkpt lat="23.990074" lon="107.134159">
<time>2016-10-06T18:32:38Z</time></trkpt>
<trkpt lat="23.990184" lon="107.133959">
<time>2016-10-06T18:32:39Z</time></trkpt>
<trkpt lat="23.990493" lon="107.133348">
<time>2016-10-06T18:32:40Z</time></trkpt>
<trkpt lat="23.990513" lon="107.133318">
<time>2016-10-06T18:32:41Z</time></trkpt>
<trkpt lat="23.990643" lon="107.133018">
<time>2016-10-06T18:32:42Z</time></trkpt>
<trkpt lat="23.990722" lon="107.132827">
<time>2016-10-06T18:32:43Z</time></trkpt>
<trkpt lat="23.990782" lon="107.132647">
<time>2016-10-06T18:32:44Z</time></trkpt>
<trkpt lat="23.990832" lon="107.132467">
<time>2016-10-06T18:32:45Z</time></trkpt>
<trkpt lat="23.990971" lon="107.131877">
<time>2016-10-06T18:32:46Z</time></trkpt>
<trkpt lat="23.990981" lon="107.131837">
<time>2016-10-06T18:32:47Z</time></trkpt>
<trkpt lat="23.991011" lon="107.131726">
<time>2016-10-06T18:32:48Z</time></trkpt>
<trkpt lat="23.991051" lon="107.131566">
<time>2016-10-06T18:32:49Z</time></trkpt>
<trkpt lat="23.991101" lon="107.131426">
<time>2016-10-06T18:32:50Z</time></trkpt>
<trkpt lat="23.99114" lon="107.131306">
<time>2016-10-06T18:32:51Z</time></trkpt>
<trkpt lat="23.99121" lon="107.131146">
<time>2016-10-06T18:32:52Z</time></trkpt>
<trkpt lat="23.99127" lon="107.130996">
<time>2016-10-06T18:32:53Z</time></trkpt>
<trkpt lat="23.99134" lon="107.130856">
<time>2016-10-06T18:32:54Z</time></trkpt>
<trkpt lat="23.99153" lon="107.130535">
<time>2016-10-06T18:32:55Z</time></trkpt>
<trkpt lat="23.991899" lon="107.129935">
<time>2016-10-06T18:32:56Z</time></trkpt>
<trkpt lat="23.992049" lon="107.129695">
<time>2016-10-06T18:32:57Z</time></trkpt>
<trkpt lat="23.992109" lon="107.129595">
<time>2016-10-06T18:32:58Z</time></trkpt>
<trkpt lat="23.992168" lon="107.129484">
<time>2016-10-06T18:32:59Z</time></trkpt>
<trkpt lat="23.992228" lon="107.129384">
<time>2016-10-06T18:33:00Z</time></trkpt>
<trkpt lat="23.992288" lon="107.129274">
<time>2016-10-06T18:33:01Z</time></trkpt>
<trkpt lat="23.992308" lon="107.129224">
<time>2016-10-06T18:33:02Z</time></trkpt>
<trkpt lat="23.992368" lon="107.129114">
<time>2016-10-06T18:33:03Z</time></trkpt>
<trkpt lat="23.992388" lon="107.129044">
<time>2016-10-06T18:33:04Z</time></trkpt>
<trkpt lat="23.992428" lon="107.128974">
<time>2016-10-06T18:33:05Z</time></trkpt>
<trkpt lat="23.992458" lon="107.128884">
<time>2016-10-06T18:33:06Z</time></trkpt>
<trkpt lat="23.992488" lon="107.128764">
<time>2016-10-06T18:33:07Z</time></trkpt>
<trkpt lat="23.992517" lon="107.128584">
<time>2016-10-06T18:33:08Z</time></trkpt>
<trkpt lat="23.992537" lon="107.128464">
<time>2016-10-06T18:33:09Z</time></trkpt>
<trkpt lat="23.992557" lon="107.128353">
<time>2016-10-06T18:33:10Z</time></trkpt>
<trkpt lat="23.992577" lon="107.128253">
<time>2016-10-06T18:33:11Z</time></trkpt>
<trkpt lat="23.992577" lon="107.128213">
<time>2016-10-06T18:33:12Z</time></trkpt>
<trkpt lat="23.992587" lon="107.128173">
<time>2016-10-06T18:33:13Z</time></trkpt>
<trkpt lat="23.992587" lon="107.128103">
<time>2016-10-06T18:33:14Z</time></trkpt>
<trkpt lat="23.992587" lon="107.128053">
<time>2016-10-06T18:33:15Z</time></trkpt>
<trkpt lat="23.992587" lon="107.128013">
<time>2016-10-06T18:33:16Z</time></trkpt>
<trkpt lat="23.992587" lon="107.127963">
<time>2016-10-06T18:33:17Z</time></trkpt>
<trkpt lat="23.992586" lon="107.127903">
<time>2016-10-06T18:33:18Z</time></trkpt>
<trkpt lat="23.992576" lon="107.127793">
<time>2016-10-06T18:33:19Z</time></trkpt>
<trkpt lat="23.992576" lon="107.127753">
<time>2016-10-06T18:33:20Z</time></trkpt>
<trkpt lat="23.992556" lon="107.127653">
<time>2016-10-06T18:33:21Z</time></trkpt>
<trkpt lat="23.992546" lon="107.127613">
<time>2016-10-06T18:33:22Z</time></trkpt>
<trkpt lat="23.992516" lon="107.127523">
<time>2016-10-06T18:33:23Z</time></trkpt>
<trkpt lat="23.992506" lon="107.127483">
<time>2016-10-06T18:33:24Z</time></trkpt>
<trkpt lat="23.992496" lon="107.127433">
<time>2016-10-06T18:33:25Z</time></trkpt>
<trkpt lat="23.992456" lon="107.127353">
<time>2016-10-06T18:33:26Z</time></trkpt>
<trkpt lat="23.992446" lon="107.127313">
<time>2016-10-06T18:33:27Z</time></trkpt>
<trkpt lat="23.992426" lon="107.127273">
<time>2016-10-06T18:33:28Z</time></trkpt>
<trkpt lat="23.992406" lon="107.127223">
<time>2016-10-06T18:33:29Z</time></trkpt>
<trkpt lat="23.992365" lon="107.127153">
<time>2016-10-06T18:33:30Z</time></trkpt>
<trkpt lat="23.992325" lon="107.127083">
<time>2016-10-06T18:33:31Z</time></trkpt>
<trkpt lat="23.992275" lon="107.126992">
<time>2016-10-06T18:33:32Z</time></trkpt>
<trkpt lat="23.992175" lon="107.126822">
<time>2016-10-06T18:33:33Z</time></trkpt>
<trkpt lat="23.992135" lon="107.126752">
<time>2016-10-06T18:33:34Z</time></trkpt>
<trkpt lat="23.992075" lon="107.126662">
<time>2016-10-06T18:33:35Z</time></trkpt>
<trkpt lat="23.992045" lon="107.126602">
<time>2016-10-06T18:33:36Z</time></trkpt>
<trkpt lat="23.991974" lon="107.126472">
<time>2016-10-06T18:33:37Z</time></trkpt>
<trkpt lat="23.991934" lon="107.126382">
<time>2016-10-06T18:33:38Z</time></trkpt>
<trkpt lat="23.991894" lon="107.126312">
<time>2016-10-06T18:33:39Z</time></trkpt>
<trkpt lat="23.991854" lon="107.126232">
<time>2016-10-06T18:33:40Z</time></trkpt>
<trkpt lat="23.991824" lon="107.126162">
<time>2016-10-06T18:33:41Z</time></trkpt>
<trkpt lat="23.991804" lon="107.126112">
<time>2016-10-06T18:33:42Z</time></trkpt>
<trkpt lat="23.991784" lon="107.126082">
<time>2016-10-06T18:33:43Z</time></trkpt>
<trkpt lat="23.991764" lon="107.126032">
<time>2016-10-06T18:33:44Z</time></trkpt>
<trkpt lat="23.991724" lon="107.125932">
<time>2016-10-06T18:33:45Z</time></trkpt>
<trkpt lat="23.991673" lon="107.125802">
<time>2016-10-06T18:33:46Z</time></trkpt>
<trkpt lat="23.991643" lon="107.125722">
<time>2016-10-06T18:33:47Z</time></trkpt>
<trkpt lat="23.991583" lon="107.125581">
<time>2016-10-06T18:33:48Z</time></trkpt>
<trkpt lat="23.991503" lon="107.125391">
<time>2016-10-06T18:33:49Z</time></trkpt>
<trkpt lat="23.991483" lon="107.125331">
<time>2016-10-06T18:33:50Z</time></trkpt>
<trkpt lat="23.991453" lon="107.125271">
<time>2016-10-06T18:33:51Z</time></trkpt>
<trkpt lat="23.991423" lon="107.125191">
<time>2016-10-06T18:33:52Z</time></trkpt>
<trkpt lat="23.991403" lon="107.125131">
<time>2016-10-06T18:33:53Z</time></trkpt>
<trkpt lat="23.991382" lon="107.125081">
<time>2016-10-06T18:33:54Z</time></trkpt>
<trkpt lat="23.991382" lon="107.125071">
<time>2016-10-06T18:33:55Z</time></trkpt>
<trkpt lat="23.991372" lon="107.125061">
<time>2016-10-06T18:33:56Z</time></trkpt>
<trkpt lat="23.991372" lon="107.125051">
<time>2016-10-06T18:33:57Z</time></trkpt>
<trkpt lat="23.991362" lon="107.125031">
<time>2016-10-06T18:33:58Z</time></trkpt>
<trkpt lat="23.991362" lon="107.125021">
<time>2016-10-06T18:33:59Z</time></trkpt>
<trkpt lat="23.991352" lon="107.125011">
<time>2016-10-06T18:34:00Z</time></trkpt>
<trkpt lat="23.991342" lon="107.124971">
<time>2016-10-06T18:34:01Z</time></trkpt>
<trkpt lat="23.991322" lon="107.124921">
<time>2016-10-06T18:34:02Z</time></trkpt>
<trkpt lat="23.991292" lon="107.124851">
<time>2016-10-06T18:34:03Z</time></trkpt>
<trkpt lat="23.991262" lon="107.124771">
<time>2016-10-06T18:34:04Z</time></trkpt>
<trkpt lat="23.991212" lon="107.124671">
<time>2016-10-06T18:34:05Z</time></trkpt>
<trkpt lat="23.991162" lon="107.124551">
<time>2016-10-06T18:34:06Z</time></trkpt>
<trkpt lat="23.991102" lon="107.124431">
<time>2016-10-06T18:34:07Z</time></trkpt>
<trkpt lat="23.991011" lon="107.124271">
<time>2016-10-06T18:34:08Z</time></trkpt>
<trkpt lat="23.990921" lon="107.124141">
<time>2016-10-06T18:34:09Z</time></trkpt>
<trkpt lat="23.990811" lon="107.124">
<time>2016-10-06T18:34:10Z</time></trkpt>
<trkpt lat="23.990701" lon="107.12389">
<time>2016-10-06T18:34:11Z</time></trkpt>
<trkpt lat="23.990541" lon="107.12374">
<time>2016-10-06T18:34:12Z</time></trkpt>
<trkpt lat="23.99038" lon="107.1236">
<time>2016-10-06T18:34:13Z</time></trkpt>
<trkpt lat="23.99013" lon="107.1234">
<time>2016-10-06T18:34:14Z</time></trkpt>
<trkpt lat="23.98996" lon="107.12325">
<time>2016-10-06T18:34:15Z</time></trkpt>
<trkpt lat="23.98979" lon="107.12309">
<time>2016-10-06T18:34:16Z</time></trkpt>
<trkpt lat="23.989699" lon="107.12299">
<time>2016-10-06T18:34:17Z</time></trkpt>
<trkpt lat="23.989599" lon="107.12287">
<time>2016-10-06T18:34:18Z</time></trkpt>
<trkpt lat="23.989519" lon="107.12276">
<time>2016-10-06T18:34:19Z</time></trkpt>
<trkpt lat="23.989449" lon="107.12264">
<time>2016-10-06T18:34:20Z</time></trkpt>
<trkpt lat="23.989349" lon="107.12246">
<time>2016-10-06T18:34:21Z</time></trkpt>
<trkpt lat="23.989278" lon="107.12231">
<time>2016-10-06T18:34:22Z</time></trkpt>
<trkpt lat="23.989248" lon="107.122249">
<time>2016-10-06T18:34:23Z</time></trkpt>
<trkpt lat="23.989158" lon="107.121979">
<time>2016-10-06T18:34:24Z</time></trkpt>
<trkpt lat="23.989088" lon="107.121749">
<time>2016-10-06T18:34:25Z</time></trkpt>
<trkpt lat="23.988987" lon="107.121419">
<time>2016-10-06T18:34:26Z</time></trkpt>
<trkpt lat="23.988817" lon="107.120819">
<time>2016-10-06T18:34:27Z</time></trkpt>
<trkpt lat="23.988636" lon="107.120138">
<time>2016-10-06T18:34:28Z</time></trkpt>
<trkpt lat="23.988585" lon="107.119848">
<time>2016-10-06T18:34:29Z</time></trkpt>
<trkpt lat="23.988535" lon="107.119508">
<time>2016-10-06T18:34:30Z</time></trkpt>
<trkpt lat="23.988505" lon="107.119238">
<time>2016-10-06T18:34:31Z</time></trkpt>
<trkpt lat="23.988475" lon="107.118988">
<time>2016-10-06T18:34:32Z</time></trkpt>
<trkpt lat="23.988454" lon="107.118818">
<time>2016-10-06T18:34:33Z</time></trkpt>
<trkpt lat="23.988434" lon="107.118628">
<time>2016-10-06T18:34:34Z</time></trkpt>
<trkpt lat="23.988374" lon="107.117937">
<time>2016-10-06T18:34:35Z</time></trkpt>
<trkpt lat="23.988353" lon="107.117787">
<time>2016-10-06T18:34:36Z</time></trkpt>
<trkpt lat="23.988333" lon="107.117687">
<time>2016-10-06T18:34:37Z</time></trkpt>
<trkpt lat="23.988313" lon="107.117617">
<time>2016-10-06T18:34:38Z</time></trkpt>
<trkpt lat="23.988273" lon="107.117497">
<time>2016-10-06T18:34:39Z</time></trkpt>
<trkpt lat="23.988243" lon="107.117447">
<time>2016-10-06T18:34:40Z</time></trkpt>
<trkpt lat="23.988213" lon="107.117377">
<time>2016-10-06T18:34:41Z</time></trkpt>
<trkpt lat="23.988173" lon="107.117327">
<time>2016-10-06T18:34:42Z</time></trkpt>
<trkpt lat="23.988133" lon="107.117267">
<time>2016-10-06T18:34:43Z</time></trkpt>
<trkpt lat="23.988043" lon="107.117177">
<time>2016-10-06T18:34:44Z</time></trkpt>
<trkpt lat="23.987983" lon="107.117127">
<time>2016-10-06T18:34:45Z</time></trkpt>
<trkpt lat="23.987923" lon="107.117087">
<time>2016-10-06T18:34:46Z</time></trkpt>
<trkpt lat="23.987772" lon="107.116997">
<time>2016-10-06T18:34:47Z</time></trkpt>
<trkpt lat="23.987632" lon="107.116927">
<time>2016-10-06T18:34:48Z</time></trkpt>
<trkpt lat="23.987542" lon="107.116877">
<time>2016-10-06T18:34:49Z</time></trkpt>
<trkpt lat="23.987482" lon="107.116837">
<time>2016-10-06T18:34:50Z</time></trkpt>
<trkpt lat="23.987442" lon="107.116817">
<time>2016-10-06T18:34:51Z</time></trkpt>
<trkpt lat="23.987372" lon="107.116767">
<time>2016-10-06T18:34:52Z</time></trkpt>
<trkpt lat="23.987272" lon="107.116687">
<time>2016-10-06T18:34:53Z</time></trkpt>
<trkpt lat="23.987172" lon="107.116577">
<time>2016-10-06T18:34:54Z</time></trkpt>
<trkpt lat="23.987102" lon="107.116507">
<time>2016-10-06T18:34:55Z</time></trkpt>
<trkpt lat="23.987022" lon="107.116397">
<time>2016-10-06T18:34:56Z</time></trkpt>
<trkpt lat="23.986971" lon="107.116327">
<time>2016-10-06T18:34:57Z</time></trkpt>
<trkpt lat="23.986651" lon="107.115837">
<time>2016-10-06T18:34:58Z</time></trkpt>
<trkpt lat="23.986461" lon="107.115537">
<time>2016-10-06T18:34:59Z</time></trkpt>
<trkpt lat="23.98633" lon="107.115337">
<time>2016-10-06T18:35:00Z</time></trkpt>
<trkpt lat="23.98621" lon="107.115146">
<time>2016-10-06T18:35:01Z</time></trkpt>
<trkpt lat="23.98617" lon="107.115066">
<time>2016-10-06T18:35:02Z</time></trkpt>
<trkpt lat="23.98612" lon="107.114966">
<time>2016-10-06T18:35:03Z</time></trkpt>
<trkpt lat="23.98609" lon="107.114906">
<time>2016-10-06T18:35:04Z</time></trkpt>
<trkpt lat="23.98605" lon="107.114826">
<time>2016-10-06T18:35:05Z</time></trkpt>
<trkpt lat="23.98604" lon="107.114776">
<time>2016-10-06T18:35:06Z</time></trkpt>
<trkpt lat="23.98602" lon="107.114716">
<time>2016-10-06T18:35:07Z</time></trkpt>
<trkpt lat="23.98601" lon="107.114656">
<time>2016-10-06T18:35:08Z</time></trkpt>
<trkpt lat="23.985989" lon="107.114536">
<time>2016-10-06T18:35:09Z</time></trkpt>
<trkpt lat="23.985989" lon="107.114486">
<time>2016-10-06T18:35:10Z</time></trkpt>
<trkpt lat="23.985989" lon="107.114426">
<time>2016-10-06T18:35:11Z</time></trkpt>
<trkpt lat="23.985989" lon="107.114366">
<time>2016-10-06T18:35:12Z</time></trkpt>
<trkpt lat="23.985999" lon="107.114316">
<time>2016-10-06T18:35:13Z</time></trkpt>
<trkpt lat="23.986009" lon="107.114266">
<time>2016-10-06T18:35:14Z</time></trkpt>
<trkpt lat="23.986019" lon="107.114196">
<time>2016-10-06T18:35:15Z</time></trkpt>
<trkpt lat="23.986039" lon="107.114116">
<time>2016-10-06T18:35:16Z</time></trkpt>
<trkpt lat="23.986059" lon="107.114046">
<time>2016-10-06T18:35:17Z</time></trkpt>
<trkpt lat="23.986079" lon="107.113956">
<time>2016-10-06T18:35:18Z</time></trkpt>
<trkpt lat="23.986119" lon="107.113866">
<time>2016-10-06T18:35:19Z</time></trkpt>
<trkpt lat="23.986478" lon="107.112916">
<time>2016-10-06T18:35:20Z</time></trkpt>
<trkpt lat="23.986508" lon="107.112816">
<time>2016-10-06T18:35:21Z</time></trkpt>
<trkpt lat="23.986538" lon="107.112726">
<time>2016-10-06T18:35:22Z</time></trkpt>
<trkpt lat="23.986568" lon="107.112616">
<time>2016-10-06T18:35:23Z</time></trkpt>
<trkpt lat="23.986598" lon="107.112496">
<time>2016-10-06T18:35:24Z</time></trkpt>
<trkpt lat="23.986638" lon="107.112326">
<time>2016-10-06T18:35:25Z</time></trkpt>
<trkpt lat="23.986658" lon="107.112176">
<time>2016-10-06T18:35:26Z</time></trkpt>
<trkpt lat="23.986747" lon="107.111126">
<time>2016-10-06T18:35:27Z</time></trkpt>
<trkpt lat="23.986787" lon="107.110826">
<time>2016-10-06T18:35:28Z</time></trkpt>
<trkpt lat="23.986827" lon="107.110585">
<time>2016-10-06T18:35:29Z</time></trkpt>
<trkpt lat="23.986857" lon="107.110435">
<time>2016-10-06T18:35:30Z</time></trkpt>
<trkpt lat="23.986887" lon="107.110345">
<time>2016-10-06T18:35:31Z</time></trkpt>
<trkpt lat="23.986917" lon="107.110255">
<time>2016-10-06T18:35:32Z</time></trkpt>
<trkpt lat="23.986957" lon="107.110135">
<time>2016-10-06T18:35:33Z</time></trkpt>
<trkpt lat="23.987126" lon="107.109725">
<time>2016-10-06T18:35:34Z</time></trkpt>
<trkpt lat="23.987186" lon="107.109575">
<time>2016-10-06T18:35:35Z</time></trkpt>
<trkpt lat="23.987226" lon="107.109445">
<time>2016-10-06T18:35:36Z</time></trkpt>
<trkpt lat="23.987256" lon="107.109325">
<time>2016-10-06T18:35:37Z</time></trkpt>
<trkpt lat="23.987266" lon="107.109245">
<time>2016-10-06T18:35:38Z</time></trkpt>
<trkpt lat="23.987276" lon="107.109175">
<time>2016-10-06T18:35:39Z</time></trkpt>
<trkpt lat="23.987276" lon="107.109125">
<time>2016-10-06T18:35:40Z</time></trkpt>
<trkpt lat="23.987266" lon="107.109055">
<time>2016-10-06T18:35:41Z</time></trkpt>
<trkpt lat="23.987256" lon="107.108965">
<time>2016-10-06T18:35:42Z</time></trkpt>
<trkpt lat="23.987246" lon="107.108915">
<time>2016-10-06T18:35:43Z</time></trkpt>
<trkpt lat="23.987216" lon="107.108845">
<time>2016-10-06T18:35:44Z</time></trkpt>
<trkpt lat="23.987196" lon="107.108795">
<time>2016-10-06T18:35:45Z</time></trkpt>
<trkpt lat="23.987166" lon="107.108735">
<time>2016-10-06T18:35:46Z</time></trkpt>
<trkpt lat="23.987126" lon="107.108675">
<time>2016-10-06T18:35:47Z</time></trkpt>
<trkpt lat="23.987086" lon="107.108625">
<time>2016-10-06T18:35:48Z</time></trkpt>
<trkpt lat="23.987036" lon="107.108565">
<time>2016-10-06T18:35:49Z</time></trkpt>
<trkpt lat="23.986996" lon="107.108535">
<time>2016-10-06T18:35:50Z</time></trkpt>
<trkpt lat="23.986935" lon="107.108485">
<time>2016-10-06T18:35:51Z</time></trkpt>
<trkpt lat="23.986845" lon="107.108425">
<time>2016-10-06T18:35:52Z</time></trkpt>
<trkpt lat="23.986775" lon="107.108395">
<time>2016-10-06T18:35:53Z</time></trkpt>
<trkpt lat="23.986765" lon="107.108395">
<time>2016-10-06T18:35:54Z</time></trkpt>
<trkpt lat="23.986725" lon="107.108375">
<time>2016-10-06T18:35:55Z</time></trkpt>
<trkpt lat="23.986675" lon="107.108355">
<time>2016-10-06T18:35:56Z</time></trkpt>
<trkpt lat="23.986345" lon="107.108275">
<time>2016-10-06T18:35:57Z</time></trkpt>
<trkpt lat="23.985615" lon="107.108105">
<time>2016-10-06T18:35:58Z</time></trkpt>
<trkpt lat="23.984754" lon="107.107905">
<time>2016-10-06T18:35:59Z</time></trkpt>
<trkpt lat="23.984464" lon="107.107835">
<time>2016-10-06T18:36:00Z</time></trkpt>
<trkpt lat="23.984154" lon="107.107755">
<time>2016-10-06T18:36:01Z</time></trkpt>
<trkpt lat="23.983944" lon="107.107685">
<time>2016-10-06T18:36:02Z</time></trkpt>
<trkpt lat="23.983684" lon="107.107606">
<time>2016-10-06T18:36:03Z</time></trkpt>
<trkpt lat="23.983273" lon="107.107436">
<time>2016-10-06T18:36:04Z</time></trkpt>
<trkpt lat="23.982753" lon="107.107226">
<time>2016-10-06T18:36:05Z</time></trkpt>
<trkpt lat="23.982613" lon="107.107176">
<time>2016-10-06T18:36:06Z</time></trkpt>
<trkpt lat="23.982423" lon="107.107126">
<time>2016-10-06T18:36:07Z</time></trkpt>
<trkpt lat="23.982133" lon="107.107076">
<time>2016-10-06T18:36:08Z</time></trkpt>
<trkpt lat="23.981943" lon="107.107056">
<time>2016-10-06T18:36:09Z</time></trkpt>
<trkpt lat="23.981502" lon="107.107016">
<time>2016-10-06T18:36:10Z</time></trkpt>
<trkpt lat="23.981312" lon="107.106996">
<time>2016-10-06T18:36:11Z</time></trkpt>
<trkpt lat="23.981102" lon="107.106936">
<time>2016-10-06T18:36:12Z</time></trkpt>
<trkpt lat="23.980962" lon="107.106866">
<time>2016-10-06T18:36:13Z</time></trkpt>
<trkpt lat="23.980832" lon="107.106766">
<time>2016-10-06T18:36:14Z</time></trkpt>
<trkpt lat="23.980722" lon="107.106656">
<time>2016-10-06T18:36:15Z</time></trkpt>
<trkpt lat="23.980662" lon="107.106566">
<time>2016-10-06T18:36:16Z</time></trkpt>
<trkpt lat="23.980612" lon="107.106466">
<time>2016-10-06T18:36:17Z</time></trkpt>
<trkpt lat="23.980552" lon="107.106346">
<time>2016-10-06T18:36:18Z</time></trkpt>
<trkpt lat="23.980532" lon="107.106236">
<time>2016-10-06T18:36:19Z</time></trkpt>
<trkpt lat="23.980511" lon="107.106126">
<time>2016-10-06T18:36:20Z</time></trkpt>
<trkpt lat="23.980501" lon="107.105986">
<time>2016-10-06T18:36:21Z</time></trkpt>
<trkpt lat="23.980491" lon="107.105896">
<time>2016-10-06T18:36:22Z</time></trkpt>
<trkpt lat="23.980501" lon="107.105746">
<time>2016-10-06T18:36:23Z</time></trkpt>
<trkpt lat="23.980601" lon="107.104986">
<time>2016-10-06T18:36:24Z</time></trkpt>
<trkpt lat="23.980611" lon="107.104836">
<time>2016-10-06T18:36:25Z</time></trkpt>
<trkpt lat="23.980621" lon="107.104716">
<time>2016-10-06T18:36:26Z</time></trkpt>
<trkpt lat="23.980621" lon="107.104586">
<time>2016-10-06T18:36:27Z</time></trkpt>
<trkpt lat="23.980601" lon="107.104506">
<time>2016-10-06T18:36:28Z</time></trkpt>
<trkpt lat="23.980581" lon="107.104406">
<time>2016-10-06T18:36:29Z</time></trkpt>
<trkpt lat="23.980551" lon="107.104326">
<time>2016-10-06T18:36:30Z</time></trkpt>
<trkpt lat="23.980511" lon="107.104256">
<time>2016-10-06T18:36:31Z</time></trkpt>
<trkpt lat="23.980461" lon="107.104186">
<time>2016-10-06T18:36:32Z</time></trkpt>
<trkpt lat="23.98041" lon="107.104126">
<time>2016-10-06T18:36:33Z</time></trkpt>
<trkpt lat="23.98035" lon="107.104056">
<time>2016-10-06T18:36:34Z</time></trkpt>
<trkpt lat="23.98028" lon="107.104016">
<time>2016-10-06T18:36:35Z</time></trkpt>
<trkpt lat="23.98021" lon="107.103976">
<time>2016-10-06T18:36:36Z</time></trkpt>
<trkpt lat="23.98013" lon="107.103936">
<time>2016-10-06T18:36:37Z</time></trkpt>
<trkpt lat="23.98004" lon="107.103906">
<time>2016-10-06T18:36:38Z</time></trkpt>
<trkpt lat="23.97965" lon="107.103806">
<time>2016-10-06T18:36:39Z</time></trkpt>
<trkpt lat="23.97957" lon="107.103776">
<time>2016-10-06T18:36:40Z</time></trkpt>
<trkpt lat="23.97947" lon="107.103726">
<time>2016-10-06T18:36:41Z</time></trkpt>
<trkpt lat="23.97937" lon="107.103656">
<time>2016-10-06T18:36:42Z</time></trkpt>
<trkpt lat="23.97931" lon="107.103606">
<time>2016-10-06T18:36:43Z</time></trkpt>
<trkpt lat="23.97924" lon="107.103546">
<time>2016-10-06T18:36:44Z</time></trkpt>
<trkpt lat="23.97917" lon="107.103456">
<time>2016-10-06T18:36:45Z</time></trkpt>
<trkpt lat="23.97912" lon="107.103376">
<time>2016-10-06T18:36:46Z</time></trkpt>
<trkpt lat="23.97906" lon="107.103286">
<time>2016-10-06T18:36:47Z</time></trkpt>
<trkpt lat="23.978899" lon="107.102956">
<time>2016-10-06T18:36:48Z</time></trkpt>
<trkpt lat="23.978669" lon="107.102486">
<time>2016-10-06T18:36:49Z</time></trkpt>
<trkpt lat="23.978609" lon="107.102386">
<time>2016-10-06T18:36:50Z</time></trkpt>
<trkpt lat="23.978529" lon="107.102256">
<time>2016-10-06T18:36:51Z</time></trkpt>
<trkpt lat="23.978459" lon="107.102157">
<time>2016-10-06T18:36:52Z</time></trkpt>
<trkpt lat="23.978359" lon="107.102047">
<time>2016-10-06T18:36:53Z</time></trkpt>
<trkpt lat="23.978269" lon="107.101967">
<time>2016-10-06T18:36:54Z</time></trkpt>
<trkpt lat="23.978139" lon="107.101867">
<time>2016-10-06T18:36:55Z</time></trkpt>
<trkpt lat="23.978019" lon="107.101807">
<time>2016-10-06T18:36:56Z</time></trkpt>
<trkpt lat="23.977868" lon="107.101727">
<time>2016-10-06T18:36:57Z</time></trkpt>
<trkpt lat="23.977598" lon="107.101627">
<time>2016-10-06T18:36:58Z</time></trkpt>
<trkpt lat="23.977298" lon="107.101547">
<time>2016-10-06T18:36:59Z</time></trkpt>
<trkpt lat="23.976568" lon="107.101367">
<time>2016-10-06T18:37:00Z</time></trkpt>
<trkpt lat="23.975347" lon="107.101097">
<time>2016-10-06T18:37:01Z</time></trkpt>
<trkpt lat="23.975137" lon="107.101037">
<time>2016-10-06T18:37:02Z</time></trkpt>
<trkpt lat="23.974927" lon="107.100957">
<time>2016-10-06T18:37:03Z</time></trkpt>
<trkpt lat="23.974787" lon="107.100887">
<time>2016-10-06T18:37:04Z</time></trkpt>
<trkpt lat="23.974677" lon="107.100827">
<time>2016-10-06T18:37:05Z</time></trkpt>
<trkpt lat="23.974567" lon="107.100747">
<time>2016-10-06T18:37:06Z</time></trkpt>
<trkpt lat="23.974487" lon="107.100677">
<time>2016-10-06T18:37:07Z</time></trkpt>
<trkpt lat="23.974397" lon="107.100587">
<time>2016-10-06T18:37:08Z</time></trkpt>
<trkpt lat="23.974297" lon="107.100477">
<time>2016-10-06T18:37:09Z</time></trkpt>
<trkpt lat="23.974177" lon="107.100317">
<time>2016-10-06T18:37:10Z</time></trkpt>
<trkpt lat="23.974056" lon="107.100107">
<time>2016-10-06T18:37:11Z</time></trkpt>
<trkpt lat="23.973866" lon="107.099738">
<time>2016-10-06T18:37:12Z</time></trkpt>
<trkpt lat="23.973376" lon="107.098728">
<time>2016-10-06T18:37:13Z</time></trkpt>
<trkpt lat="23.972945" lon="107.097818">
<time>2016-10-06T18:37:14Z</time></trkpt>
<trkpt lat="23.972715" lon="107.097379">
<time>2016-10-06T18:37:15Z</time></trkpt>
<trkpt lat="23.972575" lon="107.097169">
<time>2016-10-06T18:37:16Z</time></trkpt>
<trkpt lat="23.972445" lon="107.097039">
<time>2016-10-06T18:37:17Z</time></trkpt>
<trkpt lat="23.972365" lon="107.096959">
<time>2016-10-06T18:37:18Z</time></trkpt>
<trkpt lat="23.972265" lon="107.096899">
<time>2016-10-06T18:37:19Z</time></trkpt>
<trkpt lat="23.972175" lon="107.096849">
<time>2016-10-06T18:37:20Z</time></trkpt>
<trkpt lat="23.972085" lon="107.096809">
<time>2016-10-06T18:37:21Z</time></trkpt>
<trkpt lat="23.971975" lon="107.096749">
<time>2016-10-06T18:37:22Z</time></trkpt>
<trkpt lat="23.971645" lon="107.096629">
<time>2016-10-06T18:37:23Z</time></trkpt>
<trkpt lat="23.970984" lon="107.096379">
<time>2016-10-06T18:37:24Z</time></trkpt>
<trkpt lat="23.970864" lon="107.096329">
<time>2016-10-06T18:37:25Z</time></trkpt>
<trkpt lat="23.970714" lon="107.096279">
<time>2016-10-06T18:37:26Z</time></trkpt>
<trkpt lat="23.970594" lon="107.096229">
<time>2016-10-06T18:37:27Z</time></trkpt>
<trkpt lat="23.970454" lon="107.096199">
<time>2016-10-06T18:37:28Z</time></trkpt>
<trkpt lat="23.970344" lon="107.096169">
<time>2016-10-06T18:37:29Z</time></trkpt>
<trkpt lat="23.970234" lon="107.096149">
<time>2016-10-06T18:37:30Z</time></trkpt>
<trkpt lat="23.970144" lon="107.096139">
<time>2016-10-06T18:37:31Z</time></trkpt>
<trkpt lat="23.970064" lon="107.096129">
<time>2016-10-06T18:37:32Z</time></trkpt>
<trkpt lat="23.969924" lon="107.096129">
<time>2016-10-06T18:37:33Z</time></trkpt>
<trkpt lat="23.969654" lon="107.096109">
<time>2016-10-06T18:37:34Z</time></trkpt>
<trkpt lat="23.969524" lon="107.096099">
<time>2016-10-06T18:37:35Z</time></trkpt>
<trkpt lat="23.969424" lon="107.096079">
<time>2016-10-06T18:37:36Z</time></trkpt>
<trkpt lat="23.969304" lon="107.096049">
<time>2016-10-06T18:37:37Z</time></trkpt>
<trkpt lat="23.969194" lon="107.09602">
<time>2016-10-06T18:37:38Z</time></trkpt>
<trkpt lat="23.969084" lon="107.09598">
<time>2016-10-06T18:37:39Z</time></trkpt>
<trkpt lat="23.969074" lon="107.09597">
<time>2016-10-06T18:37:40Z</time></trkpt>
<trkpt lat="23.968924" lon="107.09591">
<time>2016-10-06T18:37:41Z</time></trkpt>
<trkpt lat="23.968824" lon="107.09586">
<time>2016-10-06T18:37:42Z</time></trkpt>
<trkpt lat="23.968753" lon="107.09582">
<time>2016-10-06T18:37:43Z</time></trkpt>
<trkpt lat="23.968683" lon="107.09578">
<time>2016-10-06T18:37:44Z</time></trkpt>
<trkpt lat="23.968373" lon="107.09557">
<time>2016-10-06T18:37:45Z</time></trkpt>
<trkpt lat="23.967983" lon="107.09532">
<time>2016-10-06T18:37:46Z</time></trkpt>
<trkpt lat="23.967903" lon="107.09527">
<time>2016-10-06T18:37:47Z</time></trkpt>
<trkpt lat="23.967503" lon="107.09502">
<time>2016-10-06T18:37:48Z</time></trkpt>
<trkpt lat="23.967383" lon="107.09495">
<time>2016-10-06T18:37:49Z</time></trkpt>
<trkpt lat="23.967023" lon="107.09471">
<time>2016-10-06T18:37:50Z</time></trkpt>
<trkpt lat="23.966763" lon="107.094531">
<time>2016-10-06T18:37:51Z</time></trkpt>
<trkpt lat="23.966673" lon="107.094461">
<time>2016-10-06T18:37:52Z</time></trkpt>
<trkpt lat="23.966502" lon="107.094351">
<time>2016-10-06T18:37:53Z</time></trkpt>
<trkpt lat="23.966312" lon="107.094241">
<time>2016-10-06T18:37:54Z</time></trkpt>
<trkpt lat="23.966192" lon="107.094141">
<time>2016-10-06T18:37:55Z</time></trkpt>
<trkpt lat="23.966102" lon="107.094081">
<time>2016-10-06T18:37:56Z</time></trkpt>
<trkpt lat="23.966002" lon="107.094011">
<time>2016-10-06T18:37:57Z</time></trkpt>
<trkpt lat="23.965732" lon="107.093841">
<time>2016-10-06T18:37:58Z</time></trkpt>
<trkpt lat="23.965182" lon="107.093471">
<time>2016-10-06T18:37:59Z</time></trkpt>
<trkpt lat="23.965132" lon="107.093431">
<time>2016-10-06T18:38:00Z</time></trkpt>
<trkpt lat="23.964532" lon="107.093062">
<time>2016-10-06T18:38:01Z</time></trkpt>
<trkpt lat="23.964422" lon="107.093002">
<time>2016-10-06T18:38:02Z</time></trkpt>
<trkpt lat="23.964422" lon="107.092992">
<time>2016-10-06T18:38:03Z</time></trkpt>
<trkpt lat="23.964322" lon="107.092932">
<time>2016-10-06T18:38:04Z</time></trkpt>
<trkpt lat="23.964212" lon="107.092842">
<time>2016-10-06T18:38:05Z</time></trkpt>
<trkpt lat="23.964082" lon="107.092702">
<time>2016-10-06T18:38:06Z</time></trkpt>
<trkpt lat="23.964001" lon="107.092612">
<time>2016-10-06T18:38:07Z</time></trkpt>
<trkpt lat="23.963941" lon="107.092542">
<time>2016-10-06T18:38:08Z</time></trkpt>
<trkpt lat="23.963861" lon="107.092432">
<time>2016-10-06T18:38:09Z</time></trkpt>
<trkpt lat="23.963781" lon="107.092322">
<time>2016-10-06T18:38:10Z</time></trkpt>
<trkpt lat="23.963721" lon="107.092212">
<time>2016-10-06T18:38:11Z</time></trkpt>
<trkpt lat="23.963371" lon="107.091563">
<time>2016-10-06T18:38:12Z</time></trkpt>
<trkpt lat="23.962821" lon="107.090534">
<time>2016-10-06T18:38:13Z</time></trkpt>
<trkpt lat="23.962241" lon="107.089435">
<time>2016-10-06T18:38:14Z</time></trkpt>
<trkpt lat="23.962071" lon="107.089175">
<time>2016-10-06T18:38:15Z</time></trkpt>
<trkpt lat="23.961861" lon="107.088915">
<time>2016-10-06T18:38:16Z</time></trkpt>
<trkpt lat="23.961781" lon="107.088835">
<time>2016-10-06T18:38:17Z</time></trkpt>
<trkpt lat="23.961691" lon="107.088735">
<time>2016-10-06T18:38:18Z</time></trkpt>
<trkpt lat="23.961551" lon="107.088615">
<time>2016-10-06T18:38:19Z</time></trkpt>
<trkpt lat="23.961431" lon="107.088505">
<time>2016-10-06T18:38:20Z</time></trkpt>
<trkpt lat="23.961091" lon="107.088246">
<time>2016-10-06T18:38:21Z</time></trkpt>
<trkpt lat="23.960911" lon="107.088116">
<time>2016-10-06T18:38:22Z</time></trkpt>
<trkpt lat="23.960771" lon="107.088026">
<time>2016-10-06T18:38:23Z</time></trkpt>
<trkpt lat="23.960631" lon="107.087956">
<time>2016-10-06T18:38:24Z</time></trkpt>
<trkpt lat="23.960461" lon="107.087906">
<time>2016-10-06T18:38:25Z</time></trkpt>
<trkpt lat="23.960321" lon="107.087866">
<time>2016-10-06T18:38:26Z</time></trkpt>
<trkpt lat="23.960201" lon="107.087846">
<time>2016-10-06T18:38:27Z</time></trkpt>
<trkpt lat="23.960071" lon="107.087836">
<time>2016-10-06T18:38:28Z</time></trkpt>
<trkpt lat="23.959941" lon="107.087826">
<time>2016-10-06T18:38:29Z</time></trkpt>
<trkpt lat="23.959851" lon="107.087826">
<time>2016-10-06T18:38:30Z</time></trkpt>
<trkpt lat="23.959751" lon="107.087826">
<time>2016-10-06T18:38:31Z</time></trkpt>
<trkpt lat="23.95964" lon="107.087846">
<time>2016-10-06T18:38:32Z</time></trkpt>
<trkpt lat="23.95951" lon="107.087876">
<time>2016-10-06T18:38:33Z</time></trkpt>
<trkpt lat="23.95944" lon="107.087896">
<time>2016-10-06T18:38:34Z</time></trkpt>
<trkpt lat="23.95937" lon="107.087936">
<time>2016-10-06T18:38:35Z</time></trkpt>
<trkpt lat="23.95931" lon="107.087976">
<time>2016-10-06T18:38:36Z</time></trkpt>
<trkpt lat="23.95923" lon="107.088016">
<time>2016-10-06T18:38:37Z</time></trkpt>
<trkpt lat="23.95915" lon="107.088086">
<time>2016-10-06T18:38:38Z</time></trkpt>
<trkpt lat="23.95904" lon="107.088186">
<time>2016-10-06T18:38:39Z</time></trkpt>
<trkpt lat="23.95896" lon="107.088286">
<time>2016-10-06T18:38:40Z</time></trkpt>
<trkpt lat="23.95888" lon="107.088396">
<time>2016-10-06T18:38:41Z</time></trkpt>
<trkpt lat="23.95882" lon="107.088496">
<time>2016-10-06T18:38:42Z</time></trkpt>
<trkpt lat="23.95876" lon="107.088615">
<time>2016-10-06T18:38:43Z</time></trkpt>
<trkpt lat="23.95869" lon="107.088805">
<time>2016-10-06T18:38:44Z</time></trkpt>
<trkpt lat="23.95847" lon="107.089475">
<time>2016-10-06T18:38:45Z</time></trkpt>
<trkpt lat="23.95839" lon="107.089725">
<time>2016-10-06T18:38:46Z</time></trkpt>
<trkpt lat="23.958329" lon="107.089884">
<time>2016-10-06T18:38:47Z</time></trkpt>
<trkpt lat="23.958249" lon="107.090074">
<time>2016-10-06T18:38:48Z</time></trkpt>
<trkpt lat="23.958239" lon="107.090094">
<time>2016-10-06T18:38:49Z</time></trkpt>
<trkpt lat="23.958189" lon="107.090184">
<time>2016-10-06T18:38:50Z</time></trkpt>
<trkpt lat="23.958159" lon="107.090224">
<time>2016-10-06T18:38:51Z</time></trkpt>
<trkpt lat="23.958129" lon="107.090264">
<time>2016-10-06T18:38:52Z</time></trkpt>
<trkpt lat="23.958079" lon="107.090314">
<time>2016-10-06T18:38:53Z</time></trkpt>
<trkpt lat="23.958039" lon="107.090344">
<time>2016-10-06T18:38:54Z</time></trkpt>
<trkpt lat="23.957979" lon="107.090394">
<time>2016-10-06T18:38:55Z</time></trkpt>
<trkpt lat="23.957929" lon="107.090424">
<time>2016-10-06T18:38:56Z</time></trkpt>
<trkpt lat="23.957879" lon="107.090454">
<time>2016-10-06T18:38:57Z</time></trkpt>
<trkpt lat="23.957809" lon="107.090484">
<time>2016-10-06T18:38:58Z</time></trkpt>
<trkpt lat="23.957729" lon="107.090504">
<time>2016-10-06T18:38:59Z</time></trkpt>
<trkpt lat="23.957669" lon="107.090514">
<time>2016-10-06T18:39:00Z</time></trkpt>
<trkpt lat="23.957599" lon="107.090534">
<time>2016-10-06T18:39:01Z</time></trkpt>
<trkpt lat="23.957509" lon="107.090544">
<time>2016-10-06T18:39:02Z</time></trkpt>
<trkpt lat="23.957379" lon="107.090554">
<time>2016-10-06T18:39:03Z</time></trkpt>
<trkpt lat="23.957269" lon="107.090554">
<time>2016-10-06T18:39:04Z</time></trkpt>
<trkpt lat="23.957209" lon="107.090544">
<time>2016-10-06T18:39:05Z</time></trkpt>
<trkpt lat="23.957149" lon="107.090524">
<time>2016-10-06T18:39:06Z</time></trkpt>
<trkpt lat="23.957089" lon="107.090514">
<time>2016-10-06T18:39:07Z</time></trkpt>
<trkpt lat="23.957049" lon="107.090494">
<time>2016-10-06T18:39:08Z</time></trkpt>
<trkpt lat="23.956999" lon="107.090464">
<time>2016-10-06T18:39:09Z</time></trkpt>
<trkpt lat="23.956959" lon="107.090434">
<time>2016-10-06T18:39:10Z</time></trkpt>
<trkpt lat="23.956929" lon="107.090404">
<time>2016-10-06T18:39:11Z</time></trkpt>
<trkpt lat="23.956889" lon="107.090364">
<time>2016-10-06T18:39:12Z</time></trkpt>
<trkpt lat="23.956829" lon="107.090294">
<time>2016-10-06T18:39:13Z</time></trkpt>
<trkpt lat="23.956759" lon="107.090194">
<time>2016-10-06T18:39:14Z</time></trkpt>
<trkpt lat="23.956489" lon="107.089765">
<time>2016-10-06T18:39:15Z</time></trkpt>
<trkpt lat="23.956279" lon="107.089415">
<time>2016-10-06T18:39:16Z</time></trkpt>
<trkpt lat="23.956199" lon="107.089245">
<time>2016-10-06T18:39:17Z</time></trkpt>
<trkpt lat="23.956149" lon="107.089095">
<time>2016-10-06T18:39:18Z</time></trkpt>
<trkpt lat="23.956019" lon="107.088745">
<time>2016-10-06T18:39:19Z</time></trkpt>
<trkpt lat="23.955929" lon="107.088476">
<time>2016-10-06T18:39:20Z</time></trkpt>
<trkpt lat="23.955889" lon="107.088336">
<time>2016-10-06T18:39:21Z</time></trkpt>
<trkpt lat="23.955879" lon="107.088216">
<time>2016-10-06T18:39:22Z</time></trkpt>
<trkpt lat="23.955879" lon="107.088136">
<time>2016-10-06T18:39:23Z</time></trkpt>
<trkpt lat="23.955889" lon="107.088076">
<time>2016-10-06T18:39:24Z</time></trkpt>
<trkpt lat="23.955899" lon="107.088006">
<time>2016-10-06T18:39:25Z</time></trkpt>
<trkpt lat="23.955939" lon="107.087866">
<time>2016-10-06T18:39:26Z</time></trkpt>
<trkpt lat="23.956009" lon="107.087706">
<time>2016-10-06T18:39:27Z</time></trkpt>
<trkpt lat="23.956189" lon="107.087257">
<time>2016-10-06T18:39:28Z</time></trkpt>
<trkpt lat="23.956329" lon="107.086887">
<time>2016-10-06T18:39:29Z</time></trkpt>
<trkpt lat="23.9564" lon="107.086627">
<time>2016-10-06T18:39:30Z</time></trkpt>
<trkpt lat="23.95645" lon="107.086368">
<time>2016-10-06T18:39:31Z</time></trkpt>
<trkpt lat="23.95647" lon="107.086138">
<time>2016-10-06T18:39:32Z</time></trkpt>
<trkpt lat="23.95649" lon="107.085948">
<time>2016-10-06T18:39:33Z</time></trkpt>
<trkpt lat="23.9565" lon="107.085609">
<time>2016-10-06T18:39:34Z</time></trkpt>
<trkpt lat="23.95651" lon="107.084869">
<time>2016-10-06T18:39:35Z</time></trkpt>
<trkpt lat="23.95651" lon="107.08435">
<time>2016-10-06T18:39:36Z</time></trkpt>
<trkpt lat="23.9565" lon="107.08422">
<time>2016-10-06T18:39:37Z</time></trkpt>
<trkpt lat="23.956491" lon="107.08412">
<time>2016-10-06T18:39:38Z</time></trkpt>
<trkpt lat="23.956451" lon="107.08387">
<time>2016-10-06T18:39:39Z</time></trkpt>
<trkpt lat="23.956231" lon="107.082952">
<time>2016-10-06T18:39:40Z</time></trkpt>
<trkpt lat="23.955981" lon="107.081883">
<time>2016-10-06T18:39:41Z</time></trkpt>
<trkpt lat="23.955892" lon="107.081423">
<time>2016-10-06T18:39:42Z</time></trkpt>
<trkpt lat="23.955842" lon="107.081064">
<time>2016-10-06T18:39:43Z</time></trkpt>
<trkpt lat="23.955822" lon="107.080924">
<time>2016-10-06T18:39:44Z</time></trkpt>
<trkpt lat="23.955812" lon="107.080784">
<time>2016-10-06T18:39:45Z</time></trkpt>
<trkpt lat="23.955792" lon="107.080585">
<time>2016-10-06T18:39:46Z</time></trkpt>
<trkpt lat="23.955762" lon="107.079975">
<time>2016-10-06T18:39:47Z</time></trkpt>
<trkpt lat="23.955733" lon="107.079506">
<time>2016-10-06T18:39:48Z</time></trkpt>
<trkpt lat="23.955713" lon="107.079346">
<time>2016-10-06T18:39:49Z</time></trkpt>
<trkpt lat="23.955683" lon="107.079146">
<time>2016-10-06T18:39:50Z</time></trkpt>
<trkpt lat="23.955633" lon="107.079007">
<time>2016-10-06T18:39:51Z</time></trkpt>
<trkpt lat="23.955573" lon="107.078887">
<time>2016-10-06T18:39:52Z</time></trkpt>
<trkpt lat="23.955503" lon="107.078767">
<time>2016-10-06T18:39:53Z</time></trkpt>
<trkpt lat="23.955413" lon="107.078647">
<time>2016-10-06T18:39:54Z</time></trkpt>
<trkpt lat="23.955283" lon="107.078497">
<time>2016-10-06T18:39:55Z</time></trkpt>
<trkpt lat="23.954983" lon="107.078158">
<time>2016-10-06T18:39:56Z</time></trkpt>
<trkpt lat="23.954743" lon="107.077898">
<time>2016-10-06T18:39:57Z</time></trkpt>
<trkpt lat="23.954633" lon="107.077778">
<time>2016-10-06T18:39:58Z</time></trkpt>
<trkpt lat="23.954544" lon="107.077669">
<time>2016-10-06T18:39:59Z</time></trkpt>
<trkpt lat="23.954464" lon="107.077539">
<time>2016-10-06T18:40:00Z</time></trkpt>
<trkpt lat="23.954394" lon="107.077409">
<time>2016-10-06T18:40:01Z</time></trkpt>
<trkpt lat="23.954334" lon="107.077249">
<time>2016-10-06T18:40:02Z</time></trkpt>
<trkpt lat="23.954264" lon="107.07701">
<time>2016-10-06T18:40:03Z</time></trkpt>
<trkpt lat="23.954124" lon="107.076211">
<time>2016-10-06T18:40:04Z</time></trkpt>
<trkpt lat="23.954035" lon="107.075672">
<time>2016-10-06T18:40:05Z</time></trkpt>
<trkpt lat="23.953945" lon="107.075093">
<time>2016-10-06T18:40:06Z</time></trkpt>
<trkpt lat="23.953925" lon="107.074923">
<time>2016-10-06T18:40:07Z</time></trkpt>
<trkpt lat="23.953916" lon="107.074763">
<time>2016-10-06T18:40:08Z</time></trkpt>
<trkpt lat="23.953906" lon="107.074613">
<time>2016-10-06T18:40:09Z</time></trkpt>
<trkpt lat="23.953916" lon="107.074444">
<time>2016-10-06T18:40:10Z</time></trkpt>
<trkpt lat="23.953926" lon="107.074324">
<time>2016-10-06T18:40:11Z</time></trkpt>
<trkpt lat="23.953946" lon="107.074124">
<time>2016-10-06T18:40:12Z</time></trkpt>
<trkpt lat="23.954047" lon="107.073565">
<time>2016-10-06T18:40:13Z</time></trkpt>
<trkpt lat="23.954077" lon="107.073325">
<time>2016-10-06T18:40:14Z</time></trkpt>
<trkpt lat="23.954087" lon="107.073136">
<time>2016-10-06T18:40:15Z</time></trkpt>
<trkpt lat="23.954077" lon="107.072926">
<time>2016-10-06T18:40:16Z</time></trkpt>
<trkpt lat="23.954057" lon="107.072746">
<time>2016-10-06T18:40:17Z</time></trkpt>
<trkpt lat="23.954028" lon="107.072607">
<time>2016-10-06T18:40:18Z</time></trkpt>
<trkpt lat="23.953998" lon="107.072427">
<time>2016-10-06T18:40:19Z</time></trkpt>
<trkpt lat="23.953788" lon="107.071628">
<time>2016-10-06T18:40:20Z</time></trkpt>
<trkpt lat="23.953719" lon="107.071259">
<time>2016-10-06T18:40:21Z</time></trkpt>
<trkpt lat="23.953689" lon="107.071099">
<time>2016-10-06T18:40:22Z</time></trkpt>
<trkpt lat="23.953679" lon="107.07098">
<time>2016-10-06T18:40:23Z</time></trkpt>
<trkpt lat="23.953679" lon="107.07087">
<time>2016-10-06T18:40:24Z</time></trkpt>
<trkpt lat="23.953689" lon="107.07071">
<time>2016-10-06T18:40:25Z</time></trkpt>
<trkpt lat="23.95371" lon="107.07053">
<time>2016-10-06T18:40:26Z</time></trkpt>
<trkpt lat="23.95378" lon="107.070081">
<time>2016-10-06T18:40:27Z</time></trkpt>
<trkpt lat="23.95382" lon="107.069901">
<time>2016-10-06T18:40:28Z</time></trkpt>
<trkpt lat="23.953871" lon="107.069722">
<time>2016-10-06T18:40:29Z</time></trkpt>
<trkpt lat="23.953921" lon="107.069582">
<time>2016-10-06T18:40:30Z</time></trkpt>
<trkpt lat="23.953961" lon="107.069472">
<time>2016-10-06T18:40:31Z</time></trkpt>
<trkpt lat="23.954121" lon="107.069103">
<time>2016-10-06T18:40:32Z</time></trkpt>
<trkpt lat="23.954242" lon="107.068843">
<time>2016-10-06T18:40:33Z</time></trkpt>
<trkpt lat="23.954312" lon="107.068674">
<time>2016-10-06T18:40:34Z</time></trkpt>
<trkpt lat="23.954412" lon="107.068394">
<time>2016-10-06T18:40:35Z</time></trkpt>
<trkpt lat="23.954543" lon="107.067965">
<time>2016-10-06T18:40:36Z</time></trkpt>
<trkpt lat="23.954603" lon="107.067696">
<time>2016-10-06T18:40:37Z</time></trkpt>
<trkpt lat="23.954643" lon="107.067506">
<time>2016-10-06T18:40:38Z</time></trkpt>
<trkpt lat="23.954643" lon="107.067486">
<time>2016-10-06T18:40:39Z</time></trkpt>
<trkpt lat="23.954664" lon="107.067346">
<time>2016-10-06T18:40:40Z</time></trkpt>
<trkpt lat="23.954664" lon="107.067117">
<time>2016-10-06T18:40:41Z</time></trkpt>
<trkpt lat="23.954644" lon="107.066897">
<time>2016-10-06T18:40:42Z</time></trkpt>
<trkpt lat="23.954614" lon="107.066728">
<time>2016-10-06T18:40:43Z</time></trkpt>
<trkpt lat="23.954564" lon="107.066528">
<time>2016-10-06T18:40:44Z</time></trkpt>
<trkpt lat="23.954475" lon="107.066249">
<time>2016-10-06T18:40:45Z</time></trkpt>
<trkpt lat="23.954395" lon="107.066009">
<time>2016-10-06T18:40:46Z</time></trkpt>
<trkpt lat="23.954305" lon="107.065779">
<time>2016-10-06T18:40:47Z</time></trkpt>
<trkpt lat="23.954225" lon="107.06563">
<time>2016-10-06T18:40:48Z</time></trkpt>
<trkpt lat="23.954156" lon="107.06551">
<time>2016-10-06T18:40:49Z</time></trkpt>
<trkpt lat="23.954046" lon="107.06537">
<time>2016-10-06T18:40:50Z</time></trkpt>
<trkpt lat="23.953936" lon="107.065271">
<time>2016-10-06T18:40:51Z</time></trkpt>
<trkpt lat="23.953826" lon="107.065181">
<time>2016-10-06T18:40:52Z</time></trkpt>
<trkpt lat="23.953806" lon="107.065171">
<time>2016-10-06T18:40:53Z</time></trkpt>
<trkpt lat="23.953666" lon="107.065091">
<time>2016-10-06T18:40:54Z</time></trkpt>
<trkpt lat="23.953516" lon="107.065021">
<time>2016-10-06T18:40:55Z</time></trkpt>
<trkpt lat="23.953356" lon="107.064971">
<time>2016-10-06T18:40:56Z</time></trkpt>
<trkpt lat="23.953256" lon="107.064941">
<time>2016-10-06T18:40:57Z</time></trkpt>
<trkpt lat="23.953046" lon="107.064901">
<time>2016-10-06T18:40:58Z</time></trkpt>
<trkpt lat="23.952916" lon="107.064881">
<time>2016-10-06T18:40:59Z</time></trkpt>
<trkpt lat="23.952806" lon="107.064861">
<time>2016-10-06T18:41:00Z</time></trkpt>
<trkpt lat="23.952766" lon="107.064861">
<time>2016-10-06T18:41:01Z</time></trkpt>
<trkpt lat="23.952726" lon="107.064861">
<time>2016-10-06T18:41:02Z</time></trkpt>
<trkpt lat="23.952676" lon="107.064861">
<time>2016-10-06T18:41:03Z</time></trkpt>
<trkpt lat="23.952626" lon="107.064871">
<time>2016-10-06T18:41:04Z</time></trkpt>
<trkpt lat="23.952556" lon="107.064881">
<time>2016-10-06T18:41:05Z</time></trkpt>
<trkpt lat="23.952486" lon="107.064911">
<time>2016-10-06T18:41:06Z</time></trkpt>
<trkpt lat="23.952426" lon="107.064931">
<time>2016-10-06T18:41:07Z</time></trkpt>
<trkpt lat="23.952366" lon="107.064961">
<time>2016-10-06T18:41:08Z</time></trkpt>
<trkpt lat="23.952245" lon="107.065041">
<time>2016-10-06T18:41:09Z</time></trkpt>
<trkpt lat="23.952145" lon="107.065121">
<time>2016-10-06T18:41:10Z</time></trkpt>
<trkpt lat="23.951875" lon="107.06536">
<time>2016-10-06T18:41:11Z</time></trkpt>
<trkpt lat="23.951154" lon="107.065999">
<time>2016-10-06T18:41:12Z</time></trkpt>
<trkpt lat="23.950863" lon="107.066229">
<time>2016-10-06T18:41:13Z</time></trkpt>
<trkpt lat="23.950693" lon="107.066358">
<time>2016-10-06T18:41:14Z</time></trkpt>
<trkpt lat="23.950433" lon="107.066518">
<time>2016-10-06T18:41:15Z</time></trkpt>
<trkpt lat="23.949892" lon="107.066877">
<time>2016-10-06T18:41:16Z</time></trkpt>
<trkpt lat="23.949742" lon="107.066957">
<time>2016-10-06T18:41:17Z</time></trkpt>
<trkpt lat="23.949622" lon="107.067017">
<time>2016-10-06T18:41:18Z</time></trkpt>
<trkpt lat="23.949582" lon="107.067027">
<time>2016-10-06T18:41:19Z</time></trkpt>
<trkpt lat="23.949522" lon="107.067037">
<time>2016-10-06T18:41:20Z</time></trkpt>
<trkpt lat="23.949462" lon="107.067057">
<time>2016-10-06T18:41:21Z</time></trkpt>
<trkpt lat="23.949392" lon="107.067067">
<time>2016-10-06T18:41:22Z</time></trkpt>
<trkpt lat="23.949342" lon="107.067067">
<time>2016-10-06T18:41:23Z</time></trkpt>
<trkpt lat="23.949292" lon="107.067067">
<time>2016-10-06T18:41:24Z</time></trkpt>
<trkpt lat="23.949182" lon="107.067047">
<time>2016-10-06T18:41:25Z</time></trkpt>
<trkpt lat="23.949092" lon="107.067027">
<time>2016-10-06T18:41:26Z</time></trkpt>
<trkpt lat="23.949002" lon="107.067007">
<time>2016-10-06T18:41:27Z</time></trkpt>
<trkpt lat="23.948662" lon="107.066907">
<time>2016-10-06T18:41:28Z</time></trkpt>
<trkpt lat="23.948282" lon="107.066798">
<time>2016-10-06T18:41:29Z</time></trkpt>
<trkpt lat="23.948222" lon="107.066778">
<time>2016-10-06T18:41:30Z</time></trkpt>
<trkpt lat="23.948172" lon="107.066758">
<time>2016-10-06T18:41:31Z</time></trkpt>
<trkpt lat="23.948152" lon="107.066748">
<time>2016-10-06T18:41:32Z</time></trkpt>
<trkpt lat="23.948062" lon="107.066698">
<time>2016-10-06T18:41:33Z</time></trkpt>
<trkpt lat="23.947962" lon="107.066638">
<time>2016-10-06T18:41:34Z</time></trkpt>
<trkpt lat="23.947902" lon="107.066578">
<time>2016-10-06T18:41:35Z</time></trkpt>
<trkpt lat="23.947852" lon="107.066528">
<time>2016-10-06T18:41:36Z</time></trkpt>
<trkpt lat="23.947792" lon="107.066458">
<time>2016-10-06T18:41:37Z</time></trkpt>
<trkpt lat="23.947742" lon="107.066389">
<time>2016-10-06T18:41:38Z</time></trkpt>
<trkpt lat="23.947672" lon="107.066269">
<time>2016-10-06T18:41:39Z</time></trkpt>
<trkpt lat="23.947602" lon="107.066139">
<time>2016-10-06T18:41:40Z</time></trkpt>
<trkpt lat="23.947452" lon="107.06583">
<time>2016-10-06T18:41:41Z</time></trkpt>
<trkpt lat="23.946774" lon="107.064493">
<time>2016-10-06T18:41:42Z</time></trkpt>
<trkpt lat="23.946405" lon="107.063774">
<time>2016-10-06T18:41:43Z</time></trkpt>
<trkpt lat="23.946076" lon="107.063086">
<time>2016-10-06T18:41:44Z</time></trkpt>
<trkpt lat="23.946036" lon="107.062976">
<time>2016-10-06T18:41:45Z</time></trkpt>
<trkpt lat="23.945986" lon="107.062816">
<time>2016-10-06T18:41:46Z</time></trkpt>
<trkpt lat="23.945956" lon="107.062676">
<time>2016-10-06T18:41:47Z</time></trkpt>
<trkpt lat="23.945936" lon="107.062557">
<time>2016-10-06T18:41:48Z</time></trkpt>
<trkpt lat="23.945926" lon="107.062407">
<time>2016-10-06T18:41:49Z</time></trkpt>
<trkpt lat="23.945877" lon="107.061739">
<time>2016-10-06T18:41:50Z</time></trkpt>
<trkpt lat="23.945829" lon="107.060721">
<time>2016-10-06T18:41:51Z</time></trkpt>
<trkpt lat="23.945761" lon="107.059424">
<time>2016-10-06T18:41:52Z</time></trkpt>
<trkpt lat="23.945741" lon="107.059164">
<time>2016-10-06T18:41:53Z</time></trkpt>
<trkpt lat="23.945721" lon="107.059005">
<time>2016-10-06T18:41:54Z</time></trkpt>
<trkpt lat="23.945692" lon="107.058885">
<time>2016-10-06T18:41:55Z</time></trkpt>
<trkpt lat="23.945652" lon="107.058755">
<time>2016-10-06T18:41:56Z</time></trkpt>
<trkpt lat="23.945602" lon="107.058636">
<time>2016-10-06T18:41:57Z</time></trkpt>
<trkpt lat="23.945552" lon="107.058526">
<time>2016-10-06T18:41:58Z</time></trkpt>
<trkpt lat="23.945482" lon="107.058426">
<time>2016-10-06T18:41:59Z</time></trkpt>
<trkpt lat="23.945402" lon="107.058297">
<time>2016-10-06T18:42:00Z</time></trkpt>
<trkpt lat="23.945253" lon="107.058107">
<time>2016-10-06T18:42:01Z</time></trkpt>
<trkpt lat="23.945163" lon="107.057987">
<time>2016-10-06T18:42:02Z</time></trkpt>
<trkpt lat="23.945123" lon="107.057927">
<time>2016-10-06T18:42:03Z</time></trkpt>
<trkpt lat="23.945093" lon="107.057848">
<time>2016-10-06T18:42:04Z</time></trkpt>
<trkpt lat="23.945063" lon="107.057788">
<time>2016-10-06T18:42:05Z</time></trkpt>
<trkpt lat="23.945033" lon="107.057718">
<time>2016-10-06T18:42:06Z</time></trkpt>
<trkpt lat="23.945013" lon="107.057658">
<time>2016-10-06T18:42:07Z</time></trkpt>
<trkpt lat="23.944993" lon="107.057588">
<time>2016-10-06T18:42:08Z</time></trkpt>
<trkpt lat="23.944983" lon="107.057508">
<time>2016-10-06T18:42:09Z</time></trkpt>
<trkpt lat="23.944974" lon="107.057419">
<time>2016-10-06T18:42:10Z</time></trkpt>
<trkpt lat="23.944964" lon="107.057369">
<time>2016-10-06T18:42:11Z</time></trkpt>
<trkpt lat="23.944964" lon="107.057259">
<time>2016-10-06T18:42:12Z</time></trkpt>
<trkpt lat="23.944974" lon="107.05694">
<time>2016-10-06T18:42:13Z</time></trkpt>
<trkpt lat="23.944965" lon="107.05677">
<time>2016-10-06T18:42:14Z</time></trkpt>
<trkpt lat="23.944955" lon="107.056621">
<time>2016-10-06T18:42:15Z</time></trkpt>
<trkpt lat="23.944935" lon="107.056461">
<time>2016-10-06T18:42:16Z</time></trkpt>
<trkpt lat="23.944906" lon="107.056212">
<time>2016-10-06T18:42:17Z</time></trkpt>
<trkpt lat="23.944866" lon="107.055982">
<time>2016-10-06T18:42:18Z</time></trkpt>
<trkpt lat="23.944777" lon="107.055583">
<time>2016-10-06T18:42:19Z</time></trkpt>
<trkpt lat="23.944687" lon="107.055134">
<time>2016-10-06T18:42:20Z</time></trkpt>
<trkpt lat="23.944558" lon="107.054536">
<time>2016-10-06T18:42:21Z</time></trkpt>
<trkpt lat="23.944489" lon="107.054257">
<time>2016-10-06T18:42:22Z</time></trkpt>
<trkpt lat="23.944449" lon="107.054087">
<time>2016-10-06T18:42:23Z</time></trkpt>
<trkpt lat="23.944409" lon="107.053967">
<time>2016-10-06T18:42:24Z</time></trkpt>
<trkpt lat="23.944379" lon="107.053878">
<time>2016-10-06T18:42:25Z</time></trkpt>
<trkpt lat="23.94433" lon="107.053758">
<time>2016-10-06T18:42:26Z</time></trkpt>
<trkpt lat="23.94428" lon="107.053648">
<time>2016-10-06T18:42:27Z</time></trkpt>
<trkpt lat="23.94417" lon="107.053409">
<time>2016-10-06T18:42:28Z</time></trkpt>
<trkpt lat="23.94407" lon="107.053189">
<time>2016-10-06T18:42:29Z</time></trkpt>
<trkpt lat="23.944011" lon="107.05304">
<time>2016-10-06T18:42:30Z</time></trkpt>
<trkpt lat="23.943861" lon="107.052571">
<time>2016-10-06T18:42:31Z</time></trkpt>
<trkpt lat="23.943792" lon="107.052352">
<time>2016-10-06T18:42:32Z</time></trkpt>
<trkpt lat="23.943762" lon="107.052262">
<time>2016-10-06T18:42:33Z</time></trkpt>
<trkpt lat="23.943742" lon="107.052202">
<time>2016-10-06T18:42:34Z</time></trkpt>
<trkpt lat="23.943712" lon="107.052142">
<time>2016-10-06T18:42:35Z</time></trkpt>
<trkpt lat="23.943672" lon="107.052072">
<time>2016-10-06T18:42:36Z</time></trkpt>
<trkpt lat="23.943652" lon="107.052023">
<time>2016-10-06T18:42:37Z</time></trkpt>
<trkpt lat="23.943603" lon="107.051943">
<time>2016-10-06T18:42:38Z</time></trkpt>
<trkpt lat="23.943493" lon="107.051773">
<time>2016-10-06T18:42:39Z</time></trkpt>
<trkpt lat="23.942994" lon="107.051075">
<time>2016-10-06T18:42:40Z</time></trkpt>
<trkpt lat="23.942585" lon="107.050467">
<time>2016-10-06T18:42:41Z</time></trkpt>
<trkpt lat="23.942475" lon="107.050277">
<time>2016-10-06T18:42:42Z</time></trkpt>
<trkpt lat="23.942356" lon="107.050008">
<time>2016-10-06T18:42:43Z</time></trkpt>
<trkpt lat="23.942306" lon="107.049849">
<time>2016-10-06T18:42:44Z</time></trkpt>
<trkpt lat="23.942266" lon="107.049679">
<time>2016-10-06T18:42:45Z</time></trkpt>
<trkpt lat="23.942247" lon="107.049519">
<time>2016-10-06T18:42:46Z</time></trkpt>
<trkpt lat="23.942237" lon="107.04939">
<time>2016-10-06T18:42:47Z</time></trkpt>
<trkpt lat="23.942237" lon="107.04928">
<time>2016-10-06T18:42:48Z</time></trkpt>
<trkpt lat="23.942247" lon="107.04918">
<time>2016-10-06T18:42:49Z</time></trkpt>
<trkpt lat="23.942247" lon="107.049101">
<time>2016-10-06T18:42:50Z</time></trkpt>
<trkpt lat="23.942268" lon="107.049001">
<time>2016-10-06T18:42:51Z</time></trkpt>
<trkpt lat="23.942278" lon="107.048911">
<time>2016-10-06T18:42:52Z</time></trkpt>
<trkpt lat="23.942328" lon="107.048722">
<time>2016-10-06T18:42:53Z</time></trkpt>
<trkpt lat="23.942399" lon="107.048522">
<time>2016-10-06T18:42:54Z</time></trkpt>
<trkpt lat="23.942559" lon="107.048123">
<time>2016-10-06T18:42:55Z</time></trkpt>
<trkpt lat="23.943173" lon="107.046628">
<time>2016-10-06T18:42:56Z</time></trkpt>
<trkpt lat="23.943525" lon="107.04577">
<time>2016-10-06T18:42:57Z</time></trkpt>
<trkpt lat="23.943846" lon="107.044942">
<time>2016-10-06T18:42:58Z</time></trkpt>
<trkpt lat="23.943937" lon="107.044673">
<time>2016-10-06T18:42:59Z</time></trkpt>
<trkpt lat="23.945064" lon="107.041493">
<time>2016-10-06T18:43:00Z</time></trkpt>
<trkpt lat="23.945074" lon="107.041463">
<time>2016-10-06T18:43:01Z</time></trkpt>
<trkpt lat="23.946051" lon="107.038742">
<time>2016-10-06T18:43:02Z</time></trkpt>
<trkpt lat="23.946263" lon="107.038143">
<time>2016-10-06T18:43:03Z</time></trkpt>
<trkpt lat="23.946545" lon="107.037336">
<time>2016-10-06T18:43:04Z</time></trkpt>
<trkpt lat="23.946736" lon="107.036788">
<time>2016-10-06T18:43:05Z</time></trkpt>
<trkpt lat="23.946786" lon="107.036608">
<time>2016-10-06T18:43:06Z</time></trkpt>
<trkpt lat="23.946807" lon="107.036509">
<time>2016-10-06T18:43:07Z</time></trkpt>
<trkpt lat="23.946827" lon="107.036439">
<time>2016-10-06T18:43:08Z</time></trkpt>
<trkpt lat="23.946827" lon="107.036379">
<time>2016-10-06T18:43:09Z</time></trkpt>
<trkpt lat="23.946837" lon="107.036319">
<time>2016-10-06T18:43:10Z</time></trkpt>
<trkpt lat="23.946837" lon="107.03626">
<time>2016-10-06T18:43:11Z</time></trkpt>
<trkpt lat="23.946837" lon="107.0362">
<time>2016-10-06T18:43:12Z</time></trkpt>
<trkpt lat="23.946837" lon="107.03615">
<time>2016-10-06T18:43:13Z</time></trkpt>
<trkpt lat="23.946838" lon="107.03609">
<time>2016-10-06T18:43:14Z</time></trkpt>
<trkpt lat="23.946828" lon="107.03603">
<time>2016-10-06T18:43:15Z</time></trkpt>
<trkpt lat="23.946818" lon="107.03598">
<time>2016-10-06T18:43:16Z</time></trkpt>
<trkpt lat="23.946818" lon="107.035941">
<time>2016-10-06T18:43:17Z</time></trkpt>
<trkpt lat="23.946798" lon="107.035871">
<time>2016-10-06T18:43:18Z</time></trkpt>
<trkpt lat="23.946788" lon="107.035801">
<time>2016-10-06T18:43:19Z</time></trkpt>
<trkpt lat="23.946758" lon="107.035711">
<time>2016-10-06T18:43:20Z</time></trkpt>
<trkpt lat="23.946699" lon="107.035562">
<time>2016-10-06T18:43:21Z</time></trkpt>
<trkpt lat="23.946639" lon="107.035452">
<time>2016-10-06T18:43:22Z</time></trkpt>
<trkpt lat="23.946559" lon="107.035273">
<time>2016-10-06T18:43:23Z</time></trkpt>
<trkpt lat="23.94646" lon="107.035123">
<time>2016-10-06T18:43:24Z</time></trkpt>
<trkpt lat="23.94642" lon="107.035063">
<time>2016-10-06T18:43:25Z</time></trkpt>
<trkpt lat="23.94638" lon="107.035014">
<time>2016-10-06T18:43:26Z</time></trkpt>
<trkpt lat="23.94634" lon="107.034974">
<time>2016-10-06T18:43:27Z</time></trkpt>
<trkpt lat="23.9463" lon="107.034934">
<time>2016-10-06T18:43:28Z</time></trkpt>
<trkpt lat="23.94625" lon="107.034904">
<time>2016-10-06T18:43:29Z</time></trkpt>
<trkpt lat="23.94621" lon="107.034864">
<time>2016-10-06T18:43:30Z</time></trkpt>
<trkpt lat="23.94616" lon="107.034844">
<time>2016-10-06T18:43:31Z</time></trkpt>
<trkpt lat="23.94612" lon="107.034824">
<time>2016-10-06T18:43:32Z</time></trkpt>
<trkpt lat="23.94606" lon="107.034804">
<time>2016-10-06T18:43:33Z</time></trkpt>
<trkpt lat="23.94602" lon="107.034794">
<time>2016-10-06T18:43:34Z</time></trkpt>
<trkpt lat="23.94598" lon="107.034794">
<time>2016-10-06T18:43:35Z</time></trkpt>
<trkpt lat="23.94594" lon="107.034794">
<time>2016-10-06T18:43:36Z</time></trkpt>
<trkpt lat="23.94589" lon="107.034794">
<time>2016-10-06T18:43:37Z</time></trkpt>
<trkpt lat="23.94583" lon="107.034804">
<time>2016-10-06T18:43:38Z</time></trkpt>
<trkpt lat="23.94577" lon="107.034814">
<time>2016-10-06T18:43:39Z</time></trkpt>
<trkpt lat="23.9457" lon="107.034834">
<time>2016-10-06T18:43:40Z</time></trkpt>
<trkpt lat="23.94564" lon="107.034864">
<time>2016-10-06T18:43:41Z</time></trkpt>
<trkpt lat="23.94556" lon="107.034904">
<time>2016-10-06T18:43:42Z</time></trkpt>
<trkpt lat="23.94536" lon="107.035014">
<time>2016-10-06T18:43:43Z</time></trkpt>
<trkpt lat="23.945219" lon="107.035074">
<time>2016-10-06T18:43:44Z</time></trkpt>
<trkpt lat="23.945159" lon="107.035103">
<time>2016-10-06T18:43:45Z</time></trkpt>
<trkpt lat="23.945069" lon="107.035133">
<time>2016-10-06T18:43:46Z</time></trkpt>
<trkpt lat="23.944989" lon="107.035153">
<time>2016-10-06T18:43:47Z</time></trkpt>
<trkpt lat="23.944949" lon="107.035163">
<time>2016-10-06T18:43:48Z</time></trkpt>
<trkpt lat="23.944899" lon="107.035163">
<time>2016-10-06T18:43:49Z</time></trkpt>
<trkpt lat="23.944859" lon="107.035163">
<time>2016-10-06T18:43:50Z</time></trkpt>
<trkpt lat="23.944799" lon="107.035163">
<time>2016-10-06T18:43:51Z</time></trkpt>
<trkpt lat="23.944739" lon="107.035153">
<time>2016-10-06T18:43:52Z</time></trkpt>
<trkpt lat="23.944689" lon="107.035143">
<time>2016-10-06T18:43:53Z</time></trkpt>
<trkpt lat="23.944629" lon="107.035123">
<time>2016-10-06T18:43:54Z</time></trkpt>
<trkpt lat="23.944579" lon="107.035093">
<time>2016-10-06T18:43:55Z</time></trkpt>
<trkpt lat="23.944519" lon="107.035064">
<time>2016-10-06T18:43:56Z</time></trkpt>
<trkpt lat="23.944479" lon="107.035034">
<time>2016-10-06T18:43:57Z</time></trkpt>
<trkpt lat="23.944439" lon="107.035014">
<time>2016-10-06T18:43:58Z</time></trkpt>
<trkpt lat="23.944409" lon="107.034974">
<time>2016-10-06T18:43:59Z</time></trkpt>
<trkpt lat="23.944359" lon="107.034934">
<time>2016-10-06T18:44:00Z</time></trkpt>
<trkpt lat="23.94433" lon="107.034884">
<time>2016-10-06T18:44:01Z</time></trkpt>
<trkpt lat="23.94429" lon="107.034824">
<time>2016-10-06T18:44:02Z</time></trkpt>
<trkpt lat="23.94425" lon="107.034745">
<time>2016-10-06T18:44:03Z</time></trkpt>
<trkpt lat="23.94421" lon="107.034655">
<time>2016-10-06T18:44:04Z</time></trkpt>
<trkpt lat="23.94418" lon="107.034555">
<time>2016-10-06T18:44:05Z</time></trkpt>
<trkpt lat="23.944141" lon="107.034436">
<time>2016-10-06T18:44:06Z</time></trkpt>
<trkpt lat="23.943933" lon="107.033539">
<time>2016-10-06T18:44:07Z</time></trkpt>
<trkpt lat="23.943903" lon="107.033399">
<time>2016-10-06T18:44:08Z</time></trkpt>
<trkpt lat="23.943883" lon="107.033339">
<time>2016-10-06T18:44:09Z</time></trkpt>
<trkpt lat="23.943873" lon="107.03331">
<time>2016-10-06T18:44:10Z</time></trkpt>
<trkpt lat="23.943853" lon="107.03324">
<time>2016-10-06T18:44:11Z</time></trkpt>
<trkpt lat="23.943824" lon="107.03317">
<time>2016-10-06T18:44:12Z</time></trkpt>
<trkpt lat="23.943794" lon="107.03311">
<time>2016-10-06T18:44:13Z</time></trkpt>
<trkpt lat="23.943764" lon="107.03306">
<time>2016-10-06T18:44:14Z</time></trkpt>
<trkpt lat="23.943734" lon="107.033011">
<time>2016-10-06T18:44:15Z</time></trkpt>
<trkpt lat="23.943674" lon="107.032941">
<time>2016-10-06T18:44:16Z</time></trkpt>
<trkpt lat="23.943614" lon="107.032871">
<time>2016-10-06T18:44:17Z</time></trkpt>
<trkpt lat="23.943584" lon="107.032841">
<time>2016-10-06T18:44:18Z</time></trkpt>
<trkpt lat="23.943544" lon="107.032801">
<time>2016-10-06T18:44:19Z</time></trkpt>
<trkpt lat="23.943494" lon="107.032771">
<time>2016-10-06T18:44:20Z</time></trkpt>
<trkpt lat="23.943454" lon="107.032751">
<time>2016-10-06T18:44:21Z</time></trkpt>
<trkpt lat="23.943414" lon="107.032722">
<time>2016-10-06T18:44:22Z</time></trkpt>
<trkpt lat="23.943365" lon="107.032702">
<time>2016-10-06T18:44:23Z</time></trkpt>
<trkpt lat="23.943305" lon="107.032672">
<time>2016-10-06T18:44:24Z</time></trkpt>
<trkpt lat="23.943245" lon="107.032662">
<time>2016-10-06T18:44:25Z</time></trkpt>
<trkpt lat="23.943185" lon="107.032652">
<time>2016-10-06T18:44:26Z</time></trkpt>
<trkpt lat="23.943145" lon="107.032642">
<time>2016-10-06T18:44:27Z</time></trkpt>
<trkpt lat="23.943085" lon="107.032642">
<time>2016-10-06T18:44:28Z</time></trkpt>
<trkpt lat="23.943015" lon="107.032642">
<time>2016-10-06T18:44:29Z</time></trkpt>
<trkpt lat="23.942954" lon="107.032652">
<time>2016-10-06T18:44:30Z</time></trkpt>
<trkpt lat="23.942894" lon="107.032662">
<time>2016-10-06T18:44:31Z</time></trkpt>
<trkpt lat="23.942834" lon="107.032672">
<time>2016-10-06T18:44:32Z</time></trkpt>
<trkpt lat="23.942774" lon="107.032692">
<time>2016-10-06T18:44:33Z</time></trkpt>
<trkpt lat="23.942734" lon="107.032712">
<time>2016-10-06T18:44:34Z</time></trkpt>
<trkpt lat="23.942684" lon="107.032741">
<time>2016-10-06T18:44:35Z</time></trkpt>
<trkpt lat="23.942634" lon="107.032761">
<time>2016-10-06T18:44:36Z</time></trkpt>
<trkpt lat="23.942574" lon="107.032801">
<time>2016-10-06T18:44:37Z</time></trkpt>
<trkpt lat="23.942524" lon="107.032831">
<time>2016-10-06T18:44:38Z</time></trkpt>
<trkpt lat="23.942464" lon="107.032881">
<time>2016-10-06T18:44:39Z</time></trkpt>
<trkpt lat="23.942303" lon="107.033001">
<time>2016-10-06T18:44:40Z</time></trkpt>
<trkpt lat="23.942193" lon="107.03307">
<time>2016-10-06T18:44:41Z</time></trkpt>
<trkpt lat="23.942133" lon="107.03311">
<time>2016-10-06T18:44:42Z</time></trkpt>
<trkpt lat="23.942083" lon="107.03313">
<time>2016-10-06T18:44:43Z</time></trkpt>
<trkpt lat="23.942033" lon="107.03315">
<time>2016-10-06T18:44:44Z</time></trkpt>
<trkpt lat="23.941993" lon="107.03316">
<time>2016-10-06T18:44:45Z</time></trkpt>
<trkpt lat="23.941933" lon="107.03317">
<time>2016-10-06T18:44:46Z</time></trkpt>
<trkpt lat="23.941873" lon="107.03318">
<time>2016-10-06T18:44:47Z</time></trkpt>
<trkpt lat="23.941813" lon="107.03317">
<time>2016-10-06T18:44:48Z</time></trkpt>
<trkpt lat="23.941753" lon="107.03317">
<time>2016-10-06T18:44:49Z</time></trkpt>
<trkpt lat="23.941713" lon="107.03316">
<time>2016-10-06T18:44:50Z</time></trkpt>
<trkpt lat="23.941663" lon="107.03314">
<time>2016-10-06T18:44:51Z</time></trkpt>
<trkpt lat="23.941603" lon="107.03312">
<time>2016-10-06T18:44:52Z</time></trkpt>
<trkpt lat="23.941543" lon="107.03309">
<time>2016-10-06T18:44:53Z</time></trkpt>
<trkpt lat="23.941493" lon="107.03307">
<time>2016-10-06T18:44:54Z</time></trkpt>
<trkpt lat="23.941453" lon="107.033041">
<time>2016-10-06T18:44:55Z</time></trkpt>
<trkpt lat="23.941413" lon="107.033011">
<time>2016-10-06T18:44:56Z</time></trkpt>
<trkpt lat="23.941363" lon="107.032961">
<time>2016-10-06T18:44:57Z</time></trkpt>
<trkpt lat="23.941303" lon="107.032901">
<time>2016-10-06T18:44:58Z</time></trkpt>
<trkpt lat="23.941233" lon="107.032801">
<time>2016-10-06T18:44:59Z</time></trkpt>
<trkpt lat="23.940665" lon="107.031934">
<time>2016-10-06T18:45:00Z</time></trkpt>
<trkpt lat="23.940506" lon="107.031685">
<time>2016-10-06T18:45:01Z</time></trkpt>
<trkpt lat="23.940436" lon="107.031605">
<time>2016-10-06T18:45:02Z</time></trkpt>
<trkpt lat="23.940376" lon="107.031546">
<time>2016-10-06T18:45:03Z</time></trkpt>
<trkpt lat="23.940316" lon="107.031486">
<time>2016-10-06T18:45:04Z</time></trkpt>
<trkpt lat="23.940256" lon="107.031446">
<time>2016-10-06T18:45:05Z</time></trkpt>
<trkpt lat="23.940197" lon="107.031396">
<time>2016-10-06T18:45:06Z</time></trkpt>
<trkpt lat="23.940117" lon="107.031346">
<time>2016-10-06T18:45:07Z</time></trkpt>
<trkpt lat="23.940057" lon="107.031317">
<time>2016-10-06T18:45:08Z</time></trkpt>
<trkpt lat="23.939987" lon="107.031287">
<time>2016-10-06T18:45:09Z</time></trkpt>
<trkpt lat="23.939907" lon="107.031267">
<time>2016-10-06T18:45:10Z</time></trkpt>
<trkpt lat="23.939817" lon="107.031247">
<time>2016-10-06T18:45:11Z</time></trkpt>
<trkpt lat="23.939627" lon="107.031197">
<time>2016-10-06T18:45:12Z</time></trkpt>
<trkpt lat="23.939397" lon="107.031157">
<time>2016-10-06T18:45:13Z</time></trkpt>
<trkpt lat="23.939217" lon="107.031117">
<time>2016-10-06T18:45:14Z</time></trkpt>
<trkpt lat="23.939057" lon="107.031067">
<time>2016-10-06T18:45:15Z</time></trkpt>
<trkpt lat="23.938887" lon="107.031008">
<time>2016-10-06T18:45:16Z</time></trkpt>
<trkpt lat="23.938677" lon="107.030918">
<time>2016-10-06T18:45:17Z</time></trkpt>
<trkpt lat="23.938537" lon="107.030868">
<time>2016-10-06T18:45:18Z</time></trkpt>
<trkpt lat="23.938167" lon="107.030719">
<time>2016-10-06T18:45:19Z</time></trkpt>
<trkpt lat="23.937558" lon="107.03045">
<time>2016-10-06T18:45:20Z</time></trkpt>
<trkpt lat="23.937378" lon="107.03037">
<time>2016-10-06T18:45:21Z</time></trkpt>
<trkpt lat="23.937248" lon="107.03029">
<time>2016-10-06T18:45:22Z</time></trkpt>
<trkpt lat="23.937148" lon="107.03022">
<time>2016-10-06T18:45:23Z</time></trkpt>
<trkpt lat="23.937058" lon="107.030151">
<time>2016-10-06T18:45:24Z</time></trkpt>
<trkpt lat="23.936989" lon="107.030091">
<time>2016-10-06T18:45:25Z</time></trkpt>
<trkpt lat="23.936919" lon="107.030011">
<time>2016-10-06T18:45:26Z</time></trkpt>
<trkpt lat="23.936849" lon="107.029922">
<time>2016-10-06T18:45:27Z</time></trkpt>
<trkpt lat="23.936769" lon="107.029802">
<time>2016-10-06T18:45:28Z</time></trkpt>
<trkpt lat="23.93661" lon="107.029563">
<time>2016-10-06T18:45:29Z</time></trkpt>
<trkpt lat="23.93656" lon="107.029473">
<time>2016-10-06T18:45:30Z</time></trkpt>
<trkpt lat="23.93648" lon="107.029354">
<time>2016-10-06T18:45:31Z</time></trkpt>
<trkpt lat="23.9364" lon="107.029264">
<time>2016-10-06T18:45:32Z</time></trkpt>
<trkpt lat="23.936371" lon="107.029224">
<time>2016-10-06T18:45:33Z</time></trkpt>
<trkpt lat="23.936331" lon="107.029174">
<time>2016-10-06T18:45:34Z</time></trkpt>
<trkpt lat="23.936251" lon="107.029094">
<time>2016-10-06T18:45:35Z</time></trkpt>
<trkpt lat="23.936161" lon="107.029025">
<time>2016-10-06T18:45:36Z</time></trkpt>
<trkpt lat="23.936081" lon="107.028965">
<time>2016-10-06T18:45:37Z</time></trkpt>
<trkpt lat="23.935981" lon="107.028885">
<time>2016-10-06T18:45:38Z</time></trkpt>
<trkpt lat="23.935312" lon="107.028417">
<time>2016-10-06T18:45:39Z</time></trkpt>
<trkpt lat="23.934493" lon="107.027829">
<time>2016-10-06T18:45:40Z</time></trkpt>
<trkpt lat="23.934214" lon="107.02762">
<time>2016-10-06T18:45:41Z</time></trkpt>
<trkpt lat="23.934154" lon="107.02757">
<time>2016-10-06T18:45:42Z</time></trkpt>
<trkpt lat="23.934084" lon="107.02751">
<time>2016-10-06T18:45:43Z</time></trkpt>
<trkpt lat="23.933974" lon="107.02742">
<time>2016-10-06T18:45:44Z</time></trkpt>
<trkpt lat="23.933795" lon="107.027231">
<time>2016-10-06T18:45:45Z</time></trkpt>
<trkpt lat="23.933665" lon="107.027092">
<time>2016-10-06T18:45:46Z</time></trkpt>
<trkpt lat="23.933615" lon="107.027042">
<time>2016-10-06T18:45:47Z</time></trkpt>
<trkpt lat="23.933545" lon="107.026992">
<time>2016-10-06T18:45:48Z</time></trkpt>
<trkpt lat="23.933505" lon="107.026962">
<time>2016-10-06T18:45:49Z</time></trkpt>
<trkpt lat="23.933425" lon="107.026912">
<time>2016-10-06T18:45:50Z</time></trkpt>
<trkpt lat="23.933385" lon="107.026882">
<time>2016-10-06T18:45:51Z</time></trkpt>
<trkpt lat="23.933306" lon="107.026853">
<time>2016-10-06T18:45:52Z</time></trkpt>
<trkpt lat="23.933256" lon="107.026833">
<time>2016-10-06T18:45:53Z</time></trkpt>
<trkpt lat="23.933186" lon="107.026813">
<time>2016-10-06T18:45:54Z</time></trkpt>
<trkpt lat="23.933136" lon="107.026793">
<time>2016-10-06T18:45:55Z</time></trkpt>
<trkpt lat="23.933056" lon="107.026773">
<time>2016-10-06T18:45:56Z</time></trkpt>
<trkpt lat="23.932976" lon="107.026763">
<time>2016-10-06T18:45:57Z</time></trkpt>
<trkpt lat="23.932886" lon="107.026753">
<time>2016-10-06T18:45:58Z</time></trkpt>
<trkpt lat="23.932786" lon="107.026743">
<time>2016-10-06T18:45:59Z</time></trkpt>
<trkpt lat="23.932736" lon="107.026733">
<time>2016-10-06T18:46:00Z</time></trkpt>
<trkpt lat="23.932706" lon="107.026733">
<time>2016-10-06T18:46:01Z</time></trkpt>
<trkpt lat="23.932646" lon="107.026733">
<time>2016-10-06T18:46:02Z</time></trkpt>
<trkpt lat="23.932596" lon="107.026733">
<time>2016-10-06T18:46:03Z</time></trkpt>
<trkpt lat="23.932546" lon="107.026733">
<time>2016-10-06T18:46:04Z</time></trkpt>
<trkpt lat="23.932485" lon="107.026743">
<time>2016-10-06T18:46:05Z</time></trkpt>
<trkpt lat="23.932445" lon="107.026753">
<time>2016-10-06T18:46:06Z</time></trkpt>
<trkpt lat="23.932405" lon="107.026753">
<time>2016-10-06T18:46:07Z</time></trkpt>
<trkpt lat="23.932335" lon="107.026773">
<time>2016-10-06T18:46:08Z</time></trkpt>
<trkpt lat="23.932295" lon="107.026783">
<time>2016-10-06T18:46:09Z</time></trkpt>
<trkpt lat="23.932235" lon="107.026813">
<time>2016-10-06T18:46:10Z</time></trkpt>
<trkpt lat="23.932195" lon="107.026823">
<time>2016-10-06T18:46:11Z</time></trkpt>
<trkpt lat="23.932105" lon="107.026882">
<time>2016-10-06T18:46:12Z</time></trkpt>
<trkpt lat="23.932065" lon="107.026902">
<time>2016-10-06T18:46:13Z</time></trkpt>
<trkpt lat="23.931995" lon="107.026952">
<time>2016-10-06T18:46:14Z</time></trkpt>
<trkpt lat="23.931905" lon="107.027022">
<time>2016-10-06T18:46:15Z</time></trkpt>
<trkpt lat="23.931854" lon="107.027062">
<time>2016-10-06T18:46:16Z</time></trkpt>
<trkpt lat="23.931804" lon="107.027102">
<time>2016-10-06T18:46:17Z</time></trkpt>
<trkpt lat="23.931694" lon="107.027191">
<time>2016-10-06T18:46:18Z</time></trkpt>
<trkpt lat="23.931373" lon="107.02746">
<time>2016-10-06T18:46:19Z</time></trkpt>
<trkpt lat="23.931032" lon="107.027749">
<time>2016-10-06T18:46:20Z</time></trkpt>
<trkpt lat="23.930912" lon="107.027839">
<time>2016-10-06T18:46:21Z</time></trkpt>
<trkpt lat="23.930832" lon="107.027909">
<time>2016-10-06T18:46:22Z</time></trkpt>
<trkpt lat="23.930772" lon="107.027949">
<time>2016-10-06T18:46:23Z</time></trkpt>
<trkpt lat="23.930711" lon="107.027989">
<time>2016-10-06T18:46:24Z</time></trkpt>
<trkpt lat="23.930671" lon="107.028019">
<time>2016-10-06T18:46:25Z</time></trkpt>
<trkpt lat="23.930641" lon="107.028028">
<time>2016-10-06T18:46:26Z</time></trkpt>
<trkpt lat="23.930611" lon="107.028048">
<time>2016-10-06T18:46:27Z</time></trkpt>
<trkpt lat="23.930571" lon="107.028068">
<time>2016-10-06T18:46:28Z</time></trkpt>
<trkpt lat="23.930521" lon="107.028098">
<time>2016-10-06T18:46:29Z</time></trkpt>
<trkpt lat="23.930481" lon="107.028118">
<time>2016-10-06T18:46:30Z</time></trkpt>
<trkpt lat="23.930431" lon="107.028138">
<time>2016-10-06T18:46:31Z</time></trkpt>
<trkpt lat="23.930401" lon="107.028158">
<time>2016-10-06T18:46:32Z</time></trkpt>
<trkpt lat="23.930321" lon="107.028188">
<time>2016-10-06T18:46:33Z</time></trkpt>
<trkpt lat="23.92994" lon="107.028318">
<time>2016-10-06T18:46:34Z</time></trkpt>
<trkpt lat="23.92989" lon="107.028347">
<time>2016-10-06T18:46:35Z</time></trkpt>
<trkpt lat="23.92982" lon="107.028367">
<time>2016-10-06T18:46:36Z</time></trkpt>
<trkpt lat="23.92979" lon="107.028387">
<time>2016-10-06T18:46:37Z</time></trkpt>
<trkpt lat="23.92975" lon="107.028407">
<time>2016-10-06T18:46:38Z</time></trkpt>
<trkpt lat="23.92971" lon="107.028427">
<time>2016-10-06T18:46:39Z</time></trkpt>
<trkpt lat="23.92967" lon="107.028457">
<time>2016-10-06T18:46:40Z</time></trkpt>
<trkpt lat="23.92964" lon="107.028467">
<time>2016-10-06T18:46:41Z</time></trkpt>
<trkpt lat="23.92962" lon="107.028487">
<time>2016-10-06T18:46:42Z</time></trkpt>
<trkpt lat="23.92958" lon="107.028517">
<time>2016-10-06T18:46:43Z</time></trkpt>
<trkpt lat="23.92954" lon="107.028547">
<time>2016-10-06T18:46:44Z</time></trkpt>
<trkpt lat="23.929499" lon="107.028577">
<time>2016-10-06T18:46:45Z</time></trkpt>
<trkpt lat="23.929479" lon="107.028607">
<time>2016-10-06T18:46:46Z</time></trkpt>
<trkpt lat="23.929449" lon="107.028636">
<time>2016-10-06T18:46:47Z</time></trkpt>
<trkpt lat="23.929429" lon="107.028656">
<time>2016-10-06T18:46:48Z</time></trkpt>
<trkpt lat="23.929389" lon="107.028706">
<time>2016-10-06T18:46:49Z</time></trkpt>
<trkpt lat="23.929349" lon="107.028756">
<time>2016-10-06T18:46:50Z</time></trkpt>
<trkpt lat="23.929319" lon="107.028796">
<time>2016-10-06T18:46:51Z</time></trkpt>
<trkpt lat="23.929259" lon="107.028886">
<time>2016-10-06T18:46:52Z</time></trkpt>
<trkpt lat="23.929038" lon="107.029254">
<time>2016-10-06T18:46:53Z</time></trkpt>
<trkpt lat="23.928967" lon="107.029354">
<time>2016-10-06T18:46:54Z</time></trkpt>
<trkpt lat="23.928887" lon="107.029473">
<time>2016-10-06T18:46:55Z</time></trkpt>
<trkpt lat="23.928807" lon="107.029583">
<time>2016-10-06T18:46:56Z</time></trkpt>
<trkpt lat="23.928756" lon="107.029653">
<time>2016-10-06T18:46:57Z</time></trkpt>
<trkpt lat="23.928696" lon="107.029713">
<time>2016-10-06T18:46:58Z</time></trkpt>
<trkpt lat="23.928576" lon="107.029852">
<time>2016-10-06T18:46:59Z</time></trkpt>
<trkpt lat="23.928315" lon="107.030111">
<time>2016-10-06T18:47:00Z</time></trkpt>
<trkpt lat="23.927713" lon="107.030669">
<time>2016-10-06T18:47:01Z</time></trkpt>
<trkpt lat="23.927523" lon="107.030839">
<time>2016-10-06T18:47:02Z</time></trkpt>
<trkpt lat="23.927503" lon="107.030859">
<time>2016-10-06T18:47:03Z</time></trkpt>
<trkpt lat="23.927403" lon="107.030938">
<time>2016-10-06T18:47:04Z</time></trkpt>
<trkpt lat="23.927362" lon="107.030978">
<time>2016-10-06T18:47:05Z</time></trkpt>
<trkpt lat="23.927332" lon="107.030998">
<time>2016-10-06T18:47:06Z</time></trkpt>
<trkpt lat="23.927302" lon="107.031018">
<time>2016-10-06T18:47:07Z</time></trkpt>
<trkpt lat="23.927232" lon="107.031058">
<time>2016-10-06T18:47:08Z</time></trkpt>
<trkpt lat="23.927212" lon="107.031068">
<time>2016-10-06T18:47:09Z</time></trkpt>
<trkpt lat="23.927202" lon="107.031078">
<time>2016-10-06T18:47:10Z</time></trkpt>
<trkpt lat="23.927152" lon="107.031098">
<time>2016-10-06T18:47:11Z</time></trkpt>
<trkpt lat="23.927122" lon="107.031108">
<time>2016-10-06T18:47:12Z</time></trkpt>
<trkpt lat="23.927102" lon="107.031118">
<time>2016-10-06T18:47:13Z</time></trkpt>
<trkpt lat="23.927052" lon="107.031128">
<time>2016-10-06T18:47:14Z</time></trkpt>
<trkpt lat="23.927032" lon="107.031128">
<time>2016-10-06T18:47:15Z</time></trkpt>
<trkpt lat="23.927012" lon="107.031138">
<time>2016-10-06T18:47:16Z</time></trkpt>
<trkpt lat="23.926992" lon="107.031138">
<time>2016-10-06T18:47:17Z</time></trkpt>
<trkpt lat="23.926962" lon="107.031138">
<time>2016-10-06T18:47:18Z</time></trkpt>
<trkpt lat="23.926902" lon="107.031138">
<time>2016-10-06T18:47:19Z</time></trkpt>
<trkpt lat="23.926892" lon="107.031138">
<time>2016-10-06T18:47:20Z</time></trkpt>
<trkpt lat="23.926872" lon="107.031138">
<time>2016-10-06T18:47:21Z</time></trkpt>
<trkpt lat="23.926862" lon="107.031138">
<time>2016-10-06T18:47:22Z</time></trkpt>
<trkpt lat="23.926822" lon="107.031128">
<time>2016-10-06T18:47:23Z</time></trkpt>
<trkpt lat="23.926782" lon="107.031118">
<time>2016-10-06T18:47:24Z</time></trkpt>
<trkpt lat="23.926772" lon="107.031108">
<time>2016-10-06T18:47:25Z</time></trkpt>
<trkpt lat="23.926752" lon="107.031108">
<time>2016-10-06T18:47:26Z</time></trkpt>
<trkpt lat="23.926722" lon="107.031088">
<time>2016-10-06T18:47:27Z</time></trkpt>
<trkpt lat="23.926692" lon="107.031078">
<time>2016-10-06T18:47:28Z</time></trkpt>
<trkpt lat="23.926672" lon="107.031068">
<time>2016-10-06T18:47:29Z</time></trkpt>
<trkpt lat="23.926632" lon="107.031038">
<time>2016-10-06T18:47:30Z</time></trkpt>
<trkpt lat="23.926612" lon="107.031018">
<time>2016-10-06T18:47:31Z</time></trkpt>
<trkpt lat="23.926572" lon="107.030988">
<time>2016-10-06T18:47:32Z</time></trkpt>
<trkpt lat="23.926552" lon="107.030978">
<time>2016-10-06T18:47:33Z</time></trkpt>
<trkpt lat="23.926542" lon="107.030958">
<time>2016-10-06T18:47:34Z</time></trkpt>
<trkpt lat="23.926502" lon="107.030929">
<time>2016-10-06T18:47:35Z</time></trkpt>
<trkpt lat="23.926492" lon="107.030909">
<time>2016-10-06T18:47:36Z</time></trkpt>
<trkpt lat="23.926462" lon="107.030879">
<time>2016-10-06T18:47:37Z</time></trkpt>
<trkpt lat="23.926412" lon="107.030819">
<time>2016-10-06T18:47:38Z</time></trkpt>
<trkpt lat="23.926393" lon="107.030779">
<time>2016-10-06T18:47:39Z</time></trkpt>
<trkpt lat="23.926353" lon="107.030729">
<time>2016-10-06T18:47:40Z</time></trkpt>
<trkpt lat="23.926263" lon="107.03061">
<time>2016-10-06T18:47:41Z</time></trkpt>
<trkpt lat="23.925725" lon="107.029803">
<time>2016-10-06T18:47:42Z</time></trkpt>
<trkpt lat="23.925645" lon="107.029683">
<time>2016-10-06T18:47:43Z</time></trkpt>
<trkpt lat="23.925585" lon="107.029603">
<time>2016-10-06T18:47:44Z</time></trkpt>
<trkpt lat="23.925555" lon="107.029573">
<time>2016-10-06T18:47:45Z</time></trkpt>
<trkpt lat="23.925525" lon="107.029533">
<time>2016-10-06T18:47:46Z</time></trkpt>
<trkpt lat="23.925475" lon="107.029484">
<time>2016-10-06T18:47:47Z</time></trkpt>
<trkpt lat="23.925446" lon="107.029444">
<time>2016-10-06T18:47:48Z</time></trkpt>
<trkpt lat="23.925416" lon="107.029424">
<time>2016-10-06T18:47:49Z</time></trkpt>
<trkpt lat="23.925376" lon="107.029384">
<time>2016-10-06T18:47:50Z</time></trkpt>
<trkpt lat="23.925336" lon="107.029354">
<time>2016-10-06T18:47:51Z</time></trkpt>
<trkpt lat="23.925306" lon="107.029334">
<time>2016-10-06T18:47:52Z</time></trkpt>
<trkpt lat="23.925266" lon="107.029304">
<time>2016-10-06T18:47:53Z</time></trkpt>
<trkpt lat="23.925226" lon="107.029284">
<time>2016-10-06T18:47:54Z</time></trkpt>
<trkpt lat="23.925186" lon="107.029264">
<time>2016-10-06T18:47:55Z</time></trkpt>
<trkpt lat="23.925136" lon="107.029244">
<time>2016-10-06T18:47:56Z</time></trkpt>
<trkpt lat="23.925096" lon="107.029225">
<time>2016-10-06T18:47:57Z</time></trkpt>
<trkpt lat="23.925036" lon="107.029205">
<time>2016-10-06T18:47:58Z</time></trkpt>
<trkpt lat="23.924946" lon="107.029185">
<time>2016-10-06T18:47:59Z</time></trkpt>
<trkpt lat="23.924906" lon="107.029185">
<time>2016-10-06T18:48:00Z</time></trkpt>
<trkpt lat="23.924866" lon="107.029175">
<time>2016-10-06T18:48:01Z</time></trkpt>
<trkpt lat="23.924826" lon="107.029175">
<time>2016-10-06T18:48:02Z</time></trkpt>
<trkpt lat="23.924766" lon="107.029175">
<time>2016-10-06T18:48:03Z</time></trkpt>
<trkpt lat="23.924726" lon="107.029175">
<time>2016-10-06T18:48:04Z</time></trkpt>
<trkpt lat="23.924686" lon="107.029175">
<time>2016-10-06T18:48:05Z</time></trkpt>
<trkpt lat="23.924636" lon="107.029175">
<time>2016-10-06T18:48:06Z</time></trkpt>
<trkpt lat="23.924566" lon="107.029185">
<time>2016-10-06T18:48:07Z</time></trkpt>
<trkpt lat="23.924466" lon="107.029195">
<time>2016-10-06T18:48:08Z</time></trkpt>
<trkpt lat="23.924246" lon="107.029245">
<time>2016-10-06T18:48:09Z</time></trkpt>
<trkpt lat="23.924116" lon="107.029264">
<time>2016-10-06T18:48:10Z</time></trkpt>
<trkpt lat="23.924055" lon="107.029264">
<time>2016-10-06T18:48:11Z</time></trkpt>
<trkpt lat="23.924005" lon="107.029274">
<time>2016-10-06T18:48:12Z</time></trkpt>
<trkpt lat="23.923955" lon="107.029274">
<time>2016-10-06T18:48:13Z</time></trkpt>
<trkpt lat="23.923875" lon="107.029274">
<time>2016-10-06T18:48:14Z</time></trkpt>
<trkpt lat="23.923815" lon="107.029274">
<time>2016-10-06T18:48:15Z</time></trkpt>
<trkpt lat="23.923765" lon="107.029264">
<time>2016-10-06T18:48:16Z</time></trkpt>
<trkpt lat="23.923695" lon="107.029245">
<time>2016-10-06T18:48:17Z</time></trkpt>
<trkpt lat="23.923655" lon="107.029245">
<time>2016-10-06T18:48:18Z</time></trkpt>
<trkpt lat="23.923625" lon="107.029235">
<time>2016-10-06T18:48:19Z</time></trkpt>
<trkpt lat="23.923575" lon="107.029215">
<time>2016-10-06T18:48:20Z</time></trkpt>
<trkpt lat="23.923525" lon="107.029195">
<time>2016-10-06T18:48:21Z</time></trkpt>
<trkpt lat="23.923475" lon="107.029175">
<time>2016-10-06T18:48:22Z</time></trkpt>
<trkpt lat="23.923426" lon="107.029145">
<time>2016-10-06T18:48:23Z</time></trkpt>
<trkpt lat="23.923386" lon="107.029135">
<time>2016-10-06T18:48:24Z</time></trkpt>
<trkpt lat="23.923336" lon="107.029105">
<time>2016-10-06T18:48:25Z</time></trkpt>
<trkpt lat="23.923286" lon="107.029065">
<time>2016-10-06T18:48:26Z</time></trkpt>
<trkpt lat="23.923216" lon="107.029015">
<time>2016-10-06T18:48:27Z</time></trkpt>
<trkpt lat="23.923136" lon="107.028956">
<time>2016-10-06T18:48:28Z</time></trkpt>
<trkpt lat="23.922916" lon="107.028776">
<time>2016-10-06T18:48:29Z</time></trkpt>
<trkpt lat="23.922237" lon="107.028238">
<time>2016-10-06T18:48:30Z</time></trkpt>
<trkpt lat="23.922128" lon="107.028149">
<time>2016-10-06T18:48:31Z</time></trkpt>
<trkpt lat="23.922068" lon="107.028109">
<time>2016-10-06T18:48:32Z</time></trkpt>
<trkpt lat="23.922008" lon="107.028079">
<time>2016-10-06T18:48:33Z</time></trkpt>
<trkpt lat="23.921918" lon="107.028029">
<time>2016-10-06T18:48:34Z</time></trkpt>
<trkpt lat="23.921828" lon="107.027989">
<time>2016-10-06T18:48:35Z</time></trkpt>
<trkpt lat="23.921688" lon="107.027929">
<time>2016-10-06T18:48:36Z</time></trkpt>
<trkpt lat="23.921588" lon="107.027899">
<time>2016-10-06T18:48:37Z</time></trkpt>
<trkpt lat="23.921508" lon="107.02787">
<time>2016-10-06T18:48:38Z</time></trkpt>
<trkpt lat="23.921468" lon="107.02786">
<time>2016-10-06T18:48:39Z</time></trkpt>
<trkpt lat="23.921418" lon="107.02785">
<time>2016-10-06T18:48:40Z</time></trkpt>
<trkpt lat="23.921378" lon="107.02784">
<time>2016-10-06T18:48:41Z</time></trkpt>
<trkpt lat="23.921328" lon="107.02784">
<time>2016-10-06T18:48:42Z</time></trkpt>
<trkpt lat="23.921268" lon="107.02783">
<time>2016-10-06T18:48:43Z</time></trkpt>
<trkpt lat="23.921228" lon="107.02783">
<time>2016-10-06T18:48:44Z</time></trkpt>
<trkpt lat="23.921188" lon="107.02783">
<time>2016-10-06T18:48:45Z</time></trkpt>
<trkpt lat="23.921138" lon="107.02783">
<time>2016-10-06T18:48:46Z</time></trkpt>
<trkpt lat="23.921088" lon="107.02783">
<time>2016-10-06T18:48:47Z</time></trkpt>
<trkpt lat="23.921028" lon="107.02784">
<time>2016-10-06T18:48:48Z</time></trkpt>
<trkpt lat="23.920968" lon="107.02785">
<time>2016-10-06T18:48:49Z</time></trkpt>
<trkpt lat="23.920868" lon="107.02787">
<time>2016-10-06T18:48:50Z</time></trkpt>
<trkpt lat="23.920808" lon="107.027889">
<time>2016-10-06T18:48:51Z</time></trkpt>
<trkpt lat="23.920728" lon="107.027909">
<time>2016-10-06T18:48:52Z</time></trkpt>
<trkpt lat="23.920638" lon="107.027939">
<time>2016-10-06T18:48:53Z</time></trkpt>
<trkpt lat="23.920557" lon="107.027979">
<time>2016-10-06T18:48:54Z</time></trkpt>
<trkpt lat="23.920467" lon="107.028019">
<time>2016-10-06T18:48:55Z</time></trkpt>
<trkpt lat="23.920337" lon="107.028089">
<time>2016-10-06T18:48:56Z</time></trkpt>
<trkpt lat="23.920247" lon="107.028139">
<time>2016-10-06T18:48:57Z</time></trkpt>
<trkpt lat="23.920217" lon="107.028159">
<time>2016-10-06T18:48:58Z</time></trkpt>
<trkpt lat="23.920197" lon="107.028169">
<time>2016-10-06T18:48:59Z</time></trkpt>
<trkpt lat="23.920157" lon="107.028198">
<time>2016-10-06T18:49:00Z</time></trkpt>
<trkpt lat="23.919986" lon="107.028318">
<time>2016-10-06T18:49:01Z</time></trkpt>
<trkpt lat="23.919936" lon="107.028348">
<time>2016-10-06T18:49:02Z</time></trkpt>
<trkpt lat="23.919846" lon="107.028398">
<time>2016-10-06T18:49:03Z</time></trkpt>
<trkpt lat="23.919776" lon="107.028438">
<time>2016-10-06T18:49:04Z</time></trkpt>
<trkpt lat="23.919746" lon="107.028458">
<time>2016-10-06T18:49:05Z</time></trkpt>
<trkpt lat="23.919696" lon="107.028477">
<time>2016-10-06T18:49:06Z</time></trkpt>
<trkpt lat="23.919656" lon="107.028497">
<time>2016-10-06T18:49:07Z</time></trkpt>
<trkpt lat="23.919576" lon="107.028527">
<time>2016-10-06T18:49:08Z</time></trkpt>
<trkpt lat="23.919526" lon="107.028537">
<time>2016-10-06T18:49:09Z</time></trkpt>
<trkpt lat="23.919466" lon="107.028557">
<time>2016-10-06T18:49:10Z</time></trkpt>
<trkpt lat="23.919446" lon="107.028557">
<time>2016-10-06T18:49:11Z</time></trkpt>
<trkpt lat="23.919405" lon="107.028567">
<time>2016-10-06T18:49:12Z</time></trkpt>
<trkpt lat="23.919365" lon="107.028567">
<time>2016-10-06T18:49:13Z</time></trkpt>
<trkpt lat="23.919325" lon="107.028577">
<time>2016-10-06T18:49:14Z</time></trkpt>
<trkpt lat="23.919295" lon="107.028577">
<time>2016-10-06T18:49:15Z</time></trkpt>
<trkpt lat="23.919275" lon="107.028577">
<time>2016-10-06T18:49:16Z</time></trkpt>
<trkpt lat="23.919245" lon="107.028577">
<time>2016-10-06T18:49:17Z</time></trkpt>
<trkpt lat="23.919195" lon="107.028577">
<time>2016-10-06T18:49:18Z</time></trkpt>
<trkpt lat="23.919165" lon="107.028577">
<time>2016-10-06T18:49:19Z</time></trkpt>
<trkpt lat="23.919155" lon="107.028577">
<time>2016-10-06T18:49:20Z</time></trkpt>
<trkpt lat="23.919125" lon="107.028567">
<time>2016-10-06T18:49:21Z</time></trkpt>
<trkpt lat="23.919085" lon="107.028567">
<time>2016-10-06T18:49:22Z</time></trkpt>
<trkpt lat="23.919075" lon="107.028567">
<time>2016-10-06T18:49:23Z</time></trkpt>
<trkpt lat="23.919055" lon="107.028557">
<time>2016-10-06T18:49:24Z</time></trkpt>
<trkpt lat="23.919025" lon="107.028557">
<time>2016-10-06T18:49:25Z</time></trkpt>
<trkpt lat="23.918985" lon="107.028547">
<time>2016-10-06T18:49:26Z</time></trkpt>
<trkpt lat="23.918975" lon="107.028547">
<time>2016-10-06T18:49:27Z</time></trkpt>
<trkpt lat="23.918955" lon="107.028537">
<time>2016-10-06T18:49:28Z</time></trkpt>
<trkpt lat="23.918845" lon="107.028517">
<time>2016-10-06T18:49:29Z</time></trkpt>
<trkpt lat="23.918725" lon="107.028487">
<time>2016-10-06T18:49:30Z</time></trkpt>
<trkpt lat="23.918675" lon="107.028478">
<time>2016-10-06T18:49:31Z</time></trkpt>
<trkpt lat="23.918655" lon="107.028478">
<time>2016-10-06T18:49:32Z</time></trkpt>
<trkpt lat="23.918645" lon="107.028468">
<time>2016-10-06T18:49:33Z</time></trkpt>
<trkpt lat="23.918625" lon="107.028468">
<time>2016-10-06T18:49:34Z</time></trkpt>
<trkpt lat="23.918555" lon="107.028458">
<time>2016-10-06T18:49:35Z</time></trkpt>
<trkpt lat="23.918525" lon="107.028458">
<time>2016-10-06T18:49:36Z</time></trkpt>
<trkpt lat="23.918475" lon="107.028458">
<time>2016-10-06T18:49:37Z</time></trkpt>
<trkpt lat="23.918455" lon="107.028458">
<time>2016-10-06T18:49:38Z</time></trkpt>
<trkpt lat="23.918435" lon="107.028458">
<time>2016-10-06T18:49:39Z</time></trkpt>
<trkpt lat="23.918385" lon="107.028448">
<time>2016-10-06T18:49:40Z</time></trkpt>
<trkpt lat="23.918375" lon="107.028448">
<time>2016-10-06T18:49:41Z</time></trkpt>
<trkpt lat="23.918365" lon="107.028448">
<time>2016-10-06T18:49:42Z</time></trkpt>
<trkpt lat="23.918285" lon="107.028458">
<time>2016-10-06T18:49:43Z</time></trkpt>
<trkpt lat="23.918265" lon="107.028458">
<time>2016-10-06T18:49:44Z</time></trkpt>
<trkpt lat="23.918255" lon="107.028468">
<time>2016-10-06T18:49:45Z</time></trkpt>
<trkpt lat="23.918235" lon="107.028468">
<time>2016-10-06T18:49:46Z</time></trkpt>
<trkpt lat="23.918175" lon="107.028478">
<time>2016-10-06T18:49:47Z</time></trkpt>
<trkpt lat="23.918115" lon="107.028497">
<time>2016-10-06T18:49:48Z</time></trkpt>
<trkpt lat="23.918105" lon="107.028497">
<time>2016-10-06T18:49:49Z</time></trkpt>
<trkpt lat="23.918085" lon="107.028507">
<time>2016-10-06T18:49:50Z</time></trkpt>
<trkpt lat="23.918075" lon="107.028507">
<time>2016-10-06T18:49:51Z</time></trkpt>
<trkpt lat="23.918005" lon="107.028537">
<time>2016-10-06T18:49:52Z</time></trkpt>
<trkpt lat="23.917985" lon="107.028547">
<time>2016-10-06T18:49:53Z</time></trkpt>
<trkpt lat="23.917965" lon="107.028547">
<time>2016-10-06T18:49:54Z</time></trkpt>
<trkpt lat="23.917885" lon="107.028597">
<time>2016-10-06T18:49:55Z</time></trkpt>
<trkpt lat="23.917504" lon="107.028787">
<time>2016-10-06T18:49:56Z</time></trkpt>
<trkpt lat="23.917354" lon="107.028836">
<time>2016-10-06T18:49:57Z</time></trkpt>
<trkpt lat="23.917334" lon="107.028846">
<time>2016-10-06T18:49:58Z</time></trkpt>
<trkpt lat="23.917324" lon="107.028846">
<time>2016-10-06T18:49:59Z</time></trkpt>
<trkpt lat="23.917284" lon="107.028856">
<time>2016-10-06T18:50:00Z</time></trkpt>
<trkpt lat="23.917244" lon="107.028866">
<time>2016-10-06T18:50:01Z</time></trkpt>
<trkpt lat="23.917214" lon="107.028876">
<time>2016-10-06T18:50:02Z</time></trkpt>
<trkpt lat="23.917184" lon="107.028886">
<time>2016-10-06T18:50:03Z</time></trkpt>
<trkpt lat="23.917124" lon="107.028896">
<time>2016-10-06T18:50:04Z</time></trkpt>
<trkpt lat="23.917064" lon="107.028906">
<time>2016-10-06T18:50:05Z</time></trkpt>
<trkpt lat="23.917034" lon="107.028906">
<time>2016-10-06T18:50:06Z</time></trkpt>
<trkpt lat="23.916994" lon="107.028916">
<time>2016-10-06T18:50:07Z</time></trkpt>
<trkpt lat="23.916974" lon="107.028916">
<time>2016-10-06T18:50:08Z</time></trkpt>
<trkpt lat="23.916944" lon="107.028916">
<time>2016-10-06T18:50:09Z</time></trkpt>
<trkpt lat="23.916864" lon="107.028916">
<time>2016-10-06T18:50:10Z</time></trkpt>
<trkpt lat="23.916774" lon="107.028916">
<time>2016-10-06T18:50:11Z</time></trkpt>
<trkpt lat="23.916713" lon="107.028916">
<time>2016-10-06T18:50:12Z</time></trkpt>
<trkpt lat="23.916663" lon="107.028916">
<time>2016-10-06T18:50:13Z</time></trkpt>
<trkpt lat="23.916413" lon="107.028916">
<time>2016-10-06T18:50:14Z</time></trkpt>
<trkpt lat="23.916143" lon="107.028896">
<time>2016-10-06T18:50:15Z</time></trkpt>
<trkpt lat="23.915613" lon="107.028866">
<time>2016-10-06T18:50:16Z</time></trkpt>
<trkpt lat="23.914613" lon="107.028817">
<time>2016-10-06T18:50:17Z</time></trkpt>
<trkpt lat="23.914603" lon="107.028817">
<time>2016-10-06T18:50:18Z</time></trkpt>
<trkpt lat="23.914043" lon="107.028807">
<time>2016-10-06T18:50:19Z</time></trkpt>
<trkpt lat="23.913753" lon="107.028797">
<time>2016-10-06T18:50:20Z</time></trkpt>
<trkpt lat="23.913573" lon="107.028767">
<time>2016-10-06T18:50:21Z</time></trkpt>
<trkpt lat="23.913413" lon="107.028717">
<time>2016-10-06T18:50:22Z</time></trkpt>
<trkpt lat="23.913283" lon="107.028657">
<time>2016-10-06T18:50:23Z</time></trkpt>
<trkpt lat="23.913203" lon="107.028607">
<time>2016-10-06T18:50:24Z</time></trkpt>
<trkpt lat="23.913113" lon="107.028538">
<time>2016-10-06T18:50:25Z</time></trkpt>
<trkpt lat="23.912963" lon="107.028438">
<time>2016-10-06T18:50:26Z</time></trkpt>
<trkpt lat="23.912873" lon="107.028378">
<time>2016-10-06T18:50:27Z</time></trkpt>
<trkpt lat="23.912783" lon="107.028328">
<time>2016-10-06T18:50:28Z</time></trkpt>
<trkpt lat="23.912684" lon="107.028279">
<time>2016-10-06T18:50:29Z</time></trkpt>
<trkpt lat="23.912574" lon="107.028249">
<time>2016-10-06T18:50:30Z</time></trkpt>
<trkpt lat="23.912464" lon="107.028239">
<time>2016-10-06T18:50:31Z</time></trkpt>
<trkpt lat="23.912314" lon="107.028229">
<time>2016-10-06T18:50:32Z</time></trkpt>
<trkpt lat="23.911983" lon="107.028259">
<time>2016-10-06T18:50:33Z</time></trkpt>
<trkpt lat="23.911863" lon="107.028269">
<time>2016-10-06T18:50:34Z</time></trkpt>
<trkpt lat="23.911633" lon="107.028299">
<time>2016-10-06T18:50:35Z</time></trkpt>
<trkpt lat="23.911133" lon="107.028358">
<time>2016-10-06T18:50:36Z</time></trkpt>
<trkpt lat="23.910963" lon="107.028368">
<time>2016-10-06T18:50:37Z</time></trkpt>
<trkpt lat="23.910773" lon="107.028368">
<time>2016-10-06T18:50:38Z</time></trkpt>
<trkpt lat="23.910613" lon="107.028348">
<time>2016-10-06T18:50:39Z</time></trkpt>
<trkpt lat="23.910453" lon="107.028299">
<time>2016-10-06T18:50:40Z</time></trkpt>
<trkpt lat="23.910293" lon="107.028239">
<time>2016-10-06T18:50:41Z</time></trkpt>
<trkpt lat="23.910143" lon="107.028149">
<time>2016-10-06T18:50:42Z</time></trkpt>
<trkpt lat="23.909873" lon="107.02797">
<time>2016-10-06T18:50:43Z</time></trkpt>
<trkpt lat="23.909244" lon="107.027531">
<time>2016-10-06T18:50:44Z</time></trkpt>
<trkpt lat="23.908885" lon="107.027282">
<time>2016-10-06T18:50:45Z</time></trkpt>
<trkpt lat="23.908625" lon="107.027103">
<time>2016-10-06T18:50:46Z</time></trkpt>
<trkpt lat="23.908415" lon="107.026953">
<time>2016-10-06T18:50:47Z</time></trkpt>
<trkpt lat="23.908126" lon="107.026744">
<time>2016-10-06T18:50:48Z</time></trkpt>
<trkpt lat="23.907946" lon="107.026595">
<time>2016-10-06T18:50:49Z</time></trkpt>
<trkpt lat="23.907797" lon="107.026445">
<time>2016-10-06T18:50:50Z</time></trkpt>
<trkpt lat="23.907677" lon="107.026306">
<time>2016-10-06T18:50:51Z</time></trkpt>
<trkpt lat="23.907567" lon="107.026156">
<time>2016-10-06T18:50:52Z</time></trkpt>
<trkpt lat="23.907487" lon="107.026037">
<time>2016-10-06T18:50:53Z</time></trkpt>
<trkpt lat="23.907438" lon="107.025927">
<time>2016-10-06T18:50:54Z</time></trkpt>
<trkpt lat="23.907378" lon="107.025818">
<time>2016-10-06T18:50:55Z</time></trkpt>
<trkpt lat="23.907308" lon="107.025648">
<time>2016-10-06T18:50:56Z</time></trkpt>
<trkpt lat="23.907299" lon="107.025628">
<time>2016-10-06T18:50:57Z</time></trkpt>
<trkpt lat="23.90711" lon="107.02521">
<time>2016-10-06T18:50:58Z</time></trkpt>
<trkpt lat="23.906941" lon="107.024831">
<time>2016-10-06T18:50:59Z</time></trkpt>
<trkpt lat="23.906781" lon="107.024463">
<time>2016-10-06T18:51:00Z</time></trkpt>
<trkpt lat="23.906662" lon="107.024203">
<time>2016-10-06T18:51:01Z</time></trkpt>
<trkpt lat="23.906572" lon="107.024054">
<time>2016-10-06T18:51:02Z</time></trkpt>
<trkpt lat="23.906483" lon="107.023934">
<time>2016-10-06T18:51:03Z</time></trkpt>
<trkpt lat="23.906373" lon="107.023815">
<time>2016-10-06T18:51:04Z</time></trkpt>
<trkpt lat="23.906243" lon="107.023705">
<time>2016-10-06T18:51:05Z</time></trkpt>
<trkpt lat="23.906094" lon="107.023606">
<time>2016-10-06T18:51:06Z</time></trkpt>
<trkpt lat="23.905954" lon="107.023526">
<time>2016-10-06T18:51:07Z</time></trkpt>
<trkpt lat="23.905774" lon="107.023446">
<time>2016-10-06T18:51:08Z</time></trkpt>
<trkpt lat="23.905444" lon="107.023307">
<time>2016-10-06T18:51:09Z</time></trkpt>
<trkpt lat="23.905034" lon="107.023147">
<time>2016-10-06T18:51:10Z</time></trkpt>
<trkpt lat="23.904715" lon="107.023008">
<time>2016-10-06T18:51:11Z</time></trkpt>
<trkpt lat="23.904455" lon="107.022878">
<time>2016-10-06T18:51:12Z</time></trkpt>
<trkpt lat="23.904255" lon="107.022759">
<time>2016-10-06T18:51:13Z</time></trkpt>
<trkpt lat="23.904065" lon="107.022659">
<time>2016-10-06T18:51:14Z</time></trkpt>
<trkpt lat="23.903816" lon="107.0225">
<time>2016-10-06T18:51:15Z</time></trkpt>
<trkpt lat="23.903576" lon="107.02234">
<time>2016-10-06T18:51:16Z</time></trkpt>
<trkpt lat="23.903476" lon="107.022281">
<time>2016-10-06T18:51:17Z</time></trkpt>
<trkpt lat="23.903396" lon="107.022251">
<time>2016-10-06T18:51:18Z</time></trkpt>
<trkpt lat="23.903296" lon="107.022221">
<time>2016-10-06T18:51:19Z</time></trkpt>
<trkpt lat="23.903216" lon="107.022211">
<time>2016-10-06T18:51:20Z</time></trkpt>
<trkpt lat="23.903096" lon="107.022211">
<time>2016-10-06T18:51:21Z</time></trkpt>
<trkpt lat="23.902976" lon="107.022231">
<time>2016-10-06T18:51:22Z</time></trkpt>
<trkpt lat="23.902846" lon="107.022271">
<time>2016-10-06T18:51:23Z</time></trkpt>
<trkpt lat="23.902686" lon="107.022331">
<time>2016-10-06T18:51:24Z</time></trkpt>
<trkpt lat="23.902535" lon="107.02238">
<time>2016-10-06T18:51:25Z</time></trkpt>
<trkpt lat="23.902405" lon="107.02241">
<time>2016-10-06T18:51:26Z</time></trkpt>
<trkpt lat="23.902295" lon="107.02243">
<time>2016-10-06T18:51:27Z</time></trkpt>
<trkpt lat="23.902175" lon="107.02242">
<time>2016-10-06T18:51:28Z</time></trkpt>
<trkpt lat="23.902085" lon="107.02241">
<time>2016-10-06T18:51:29Z</time></trkpt>
<trkpt lat="23.901935" lon="107.02237">
<time>2016-10-06T18:51:30Z</time></trkpt>
<trkpt lat="23.901635" lon="107.022311">
<time>2016-10-06T18:51:31Z</time></trkpt>
<trkpt lat="23.900975" lon="107.022171">
<time>2016-10-06T18:51:32Z</time></trkpt>
<trkpt lat="23.900486" lon="107.022052">
<time>2016-10-06T18:51:33Z</time></trkpt>
<trkpt lat="23.900076" lon="107.021972">
<time>2016-10-06T18:51:34Z</time></trkpt>
<trkpt lat="23.899956" lon="107.021962">
<time>2016-10-06T18:51:35Z</time></trkpt>
<trkpt lat="23.899886" lon="107.021962">
<time>2016-10-06T18:51:36Z</time></trkpt>
<trkpt lat="23.899806" lon="107.021972">
<time>2016-10-06T18:51:37Z</time></trkpt>
<trkpt lat="23.899735" lon="107.021992">
<time>2016-10-06T18:51:38Z</time></trkpt>
<trkpt lat="23.899655" lon="107.022012">
<time>2016-10-06T18:51:39Z</time></trkpt>
<trkpt lat="23.899555" lon="107.022062">
<time>2016-10-06T18:51:40Z</time></trkpt>
<trkpt lat="23.899455" lon="107.022141">
<time>2016-10-06T18:51:41Z</time></trkpt>
<trkpt lat="23.899365" lon="107.022211">
<time>2016-10-06T18:51:42Z</time></trkpt>
<trkpt lat="23.899284" lon="107.022311">
<time>2016-10-06T18:51:43Z</time></trkpt>
<trkpt lat="23.899154" lon="107.02247">
<time>2016-10-06T18:51:44Z</time></trkpt>
<trkpt lat="23.898953" lon="107.022759">
<time>2016-10-06T18:51:45Z</time></trkpt>
<trkpt lat="23.898752" lon="107.023038">
<time>2016-10-06T18:51:46Z</time></trkpt>
<trkpt lat="23.898652" lon="107.023168">
<time>2016-10-06T18:51:47Z</time></trkpt>
<trkpt lat="23.898562" lon="107.023267">
<time>2016-10-06T18:51:48Z</time></trkpt>
<trkpt lat="23.898471" lon="107.023337">
<time>2016-10-06T18:51:49Z</time></trkpt>
<trkpt lat="23.898371" lon="107.023407">
<time>2016-10-06T18:51:50Z</time></trkpt>
<trkpt lat="23.898271" lon="107.023447">
<time>2016-10-06T18:51:51Z</time></trkpt>
<trkpt lat="23.898151" lon="107.023477">
<time>2016-10-06T18:51:52Z</time></trkpt>
<trkpt lat="23.898031" lon="107.023477">
<time>2016-10-06T18:51:53Z</time></trkpt>
<trkpt lat="23.897911" lon="107.023447">
<time>2016-10-06T18:51:54Z</time></trkpt>
<trkpt lat="23.897751" lon="107.023377">
<time>2016-10-06T18:51:55Z</time></trkpt>
<trkpt lat="23.897561" lon="107.023277">
<time>2016-10-06T18:51:56Z</time></trkpt>
<trkpt lat="23.897421" lon="107.023188">
<time>2016-10-06T18:51:57Z</time></trkpt>
<trkpt lat="23.897312" lon="107.023088">
<time>2016-10-06T18:51:58Z</time></trkpt>
<trkpt lat="23.897232" lon="107.022988">
<time>2016-10-06T18:51:59Z</time></trkpt>
<trkpt lat="23.897172" lon="107.022879">
<time>2016-10-06T18:52:00Z</time></trkpt>
<trkpt lat="23.897142" lon="107.022789">
<time>2016-10-06T18:52:01Z</time></trkpt>
<trkpt lat="23.897132" lon="107.022729">
<time>2016-10-06T18:52:02Z</time></trkpt>
<trkpt lat="23.897123" lon="107.02269">
<time>2016-10-06T18:52:03Z</time></trkpt>
<trkpt lat="23.897123" lon="107.0226">
<time>2016-10-06T18:52:04Z</time></trkpt>
<trkpt lat="23.897133" lon="107.02248">
<time>2016-10-06T18:52:05Z</time></trkpt>
<trkpt lat="23.897154" lon="107.022351">
<time>2016-10-06T18:52:06Z</time></trkpt>
<trkpt lat="23.897204" lon="107.022181">
<time>2016-10-06T18:52:07Z</time></trkpt>
<trkpt lat="23.897295" lon="107.021922">
<time>2016-10-06T18:52:08Z</time></trkpt>
<trkpt lat="23.897355" lon="107.021673">
<time>2016-10-06T18:52:09Z</time></trkpt>
<trkpt lat="23.897376" lon="107.021474">
<time>2016-10-06T18:52:10Z</time></trkpt>
<trkpt lat="23.897367" lon="107.021255">
<time>2016-10-06T18:52:11Z</time></trkpt>
<trkpt lat="23.897337" lon="107.021115">
<time>2016-10-06T18:52:12Z</time></trkpt>
<trkpt lat="23.897268" lon="107.020916">
<time>2016-10-06T18:52:13Z</time></trkpt>
<trkpt lat="23.897178" lon="107.020787">
<time>2016-10-06T18:52:14Z</time></trkpt>
<trkpt lat="23.897098" lon="107.020687">
<time>2016-10-06T18:52:15Z</time></trkpt>
<trkpt lat="23.896998" lon="107.020577">
<time>2016-10-06T18:52:16Z</time></trkpt>
<trkpt lat="23.896849" lon="107.020468">
<time>2016-10-06T18:52:17Z</time></trkpt>
<trkpt lat="23.896589" lon="107.020298">
<time>2016-10-06T18:52:18Z</time></trkpt>
<trkpt lat="23.896579" lon="107.020298">
<time>2016-10-06T18:52:19Z</time></trkpt>
<trkpt lat="23.896279" lon="107.020109">
<time>2016-10-06T18:52:20Z</time></trkpt>
<trkpt lat="23.89597" lon="107.01993">
<time>2016-10-06T18:52:21Z</time></trkpt>
<trkpt lat="23.89593" lon="107.0199">
<time>2016-10-06T18:52:22Z</time></trkpt>
<trkpt lat="23.89558" lon="107.019681">
<time>2016-10-06T18:52:23Z</time></trkpt>
<trkpt lat="23.895391" lon="107.019571">
<time>2016-10-06T18:52:24Z</time></trkpt>
<trkpt lat="23.895251" lon="107.019472">
<time>2016-10-06T18:52:25Z</time></trkpt>
<trkpt lat="23.895131" lon="107.019382">
<time>2016-10-06T18:52:26Z</time></trkpt>
<trkpt lat="23.895011" lon="107.019262">
<time>2016-10-06T18:52:27Z</time></trkpt>
<trkpt lat="23.894952" lon="107.019183">
<time>2016-10-06T18:52:28Z</time></trkpt>
<trkpt lat="23.894842" lon="107.019033">
<time>2016-10-06T18:52:29Z</time></trkpt>
<trkpt lat="23.894742" lon="107.018864">
<time>2016-10-06T18:52:30Z</time></trkpt>
<trkpt lat="23.894603" lon="107.018605">
<time>2016-10-06T18:52:31Z</time></trkpt>
<trkpt lat="23.894513" lon="107.018445">
<time>2016-10-06T18:52:32Z</time></trkpt>
<trkpt lat="23.894424" lon="107.018336">
<time>2016-10-06T18:52:33Z</time></trkpt>
<trkpt lat="23.894334" lon="107.018246">
<time>2016-10-06T18:52:34Z</time></trkpt>
<trkpt lat="23.894254" lon="107.018167">
<time>2016-10-06T18:52:35Z</time></trkpt>
<trkpt lat="23.894154" lon="107.018107">
<time>2016-10-06T18:52:36Z</time></trkpt>
<trkpt lat="23.894054" lon="107.018057">
<time>2016-10-06T18:52:37Z</time></trkpt>
<trkpt lat="23.893934" lon="107.018017">
<time>2016-10-06T18:52:38Z</time></trkpt>
<trkpt lat="23.893824" lon="107.017987">
<time>2016-10-06T18:52:39Z</time></trkpt>
<trkpt lat="23.893264" lon="107.017918">
<time>2016-10-06T18:52:40Z</time></trkpt>
<trkpt lat="23.892904" lon="107.017868">
<time>2016-10-06T18:52:41Z</time></trkpt>
<trkpt lat="23.892775" lon="107.017828">
<time>2016-10-06T18:52:42Z</time></trkpt>
<trkpt lat="23.892625" lon="107.017778">
<time>2016-10-06T18:52:43Z</time></trkpt>
<trkpt lat="23.892515" lon="107.017718">
<time>2016-10-06T18:52:44Z</time></trkpt>
<trkpt lat="23.892385" lon="107.017639">
<time>2016-10-06T18:52:45Z</time></trkpt>
<trkpt lat="23.892295" lon="107.017579">
<time>2016-10-06T18:52:46Z</time></trkpt>
<trkpt lat="23.892195" lon="107.017489">
<time>2016-10-06T18:52:47Z</time></trkpt>
<trkpt lat="23.892076" lon="107.01736">
<time>2016-10-06T18:52:48Z</time></trkpt>
<trkpt lat="23.891677" lon="107.016951">
<time>2016-10-06T18:52:49Z</time></trkpt>
<trkpt lat="23.891567" lon="107.016832">
<time>2016-10-06T18:52:50Z</time></trkpt>
<trkpt lat="23.891397" lon="107.016642">
<time>2016-10-06T18:52:51Z</time></trkpt>
<trkpt lat="23.891298" lon="107.016523">
<time>2016-10-06T18:52:52Z</time></trkpt>
<trkpt lat="23.891148" lon="107.016403">
<time>2016-10-06T18:52:53Z</time></trkpt>
<trkpt lat="23.891038" lon="107.016334">
<time>2016-10-06T18:52:54Z</time></trkpt>
<trkpt lat="23.890908" lon="107.016274">
<time>2016-10-06T18:52:55Z</time></trkpt>
<trkpt lat="23.890778" lon="107.016234">
<time>2016-10-06T18:52:56Z</time></trkpt>
<trkpt lat="23.890568" lon="107.016194">
<time>2016-10-06T18:52:57Z</time></trkpt>
<trkpt lat="23.890488" lon="107.016164">
<time>2016-10-06T18:52:58Z</time></trkpt>
<trkpt lat="23.890388" lon="107.016144">
<time>2016-10-06T18:52:59Z</time></trkpt>
<trkpt lat="23.890179" lon="107.016045">
<time>2016-10-06T18:53:00Z</time></trkpt>
<trkpt lat="23.890049" lon="107.015955">
<time>2016-10-06T18:53:01Z</time></trkpt>
<trkpt lat="23.889929" lon="107.015846">
<time>2016-10-06T18:53:02Z</time></trkpt>
<trkpt lat="23.889849" lon="107.015736">
<time>2016-10-06T18:53:03Z</time></trkpt>
<trkpt lat="23.88975" lon="107.015587">
<time>2016-10-06T18:53:04Z</time></trkpt>
<trkpt lat="23.88966" lon="107.015447">
<time>2016-10-06T18:53:05Z</time></trkpt>
<trkpt lat="23.889521" lon="107.015238">
<time>2016-10-06T18:53:06Z</time></trkpt>
<trkpt lat="23.889401" lon="107.015108">
<time>2016-10-06T18:53:07Z</time></trkpt>
<trkpt lat="23.889281" lon="107.014999">
<time>2016-10-06T18:53:08Z</time></trkpt>
<trkpt lat="23.889142" lon="107.014909">
<time>2016-10-06T18:53:09Z</time></trkpt>
<trkpt lat="23.888792" lon="107.01475">
<time>2016-10-06T18:53:10Z</time></trkpt>
<trkpt lat="23.888642" lon="107.01467">
<time>2016-10-06T18:53:11Z</time></trkpt>
<trkpt lat="23.888532" lon="107.0146">
<time>2016-10-06T18:53:12Z</time></trkpt>
<trkpt lat="23.888442" lon="107.014531">
<time>2016-10-06T18:53:13Z</time></trkpt>
<trkpt lat="23.888343" lon="107.014441">
<time>2016-10-06T18:53:14Z</time></trkpt>
<trkpt lat="23.888233" lon="107.014302">
<time>2016-10-06T18:53:15Z</time></trkpt>
<trkpt lat="23.888153" lon="107.014162">
<time>2016-10-06T18:53:16Z</time></trkpt>
<trkpt lat="23.888094" lon="107.014023">
<time>2016-10-06T18:53:17Z</time></trkpt>
<trkpt lat="23.888044" lon="107.013883">
<time>2016-10-06T18:53:18Z</time></trkpt>
<trkpt lat="23.888014" lon="107.013744">
<time>2016-10-06T18:53:19Z</time></trkpt>
<trkpt lat="23.887965" lon="107.013555">
<time>2016-10-06T18:53:20Z</time></trkpt>
<trkpt lat="23.887896" lon="107.013365">
<time>2016-10-06T18:53:21Z</time></trkpt>
<trkpt lat="23.887826" lon="107.013186">
<time>2016-10-06T18:53:22Z</time></trkpt>
<trkpt lat="23.887687" lon="107.012957">
<time>2016-10-06T18:53:23Z</time></trkpt>
<trkpt lat="23.887607" lon="107.012847">
<time>2016-10-06T18:53:24Z</time></trkpt>
<trkpt lat="23.887497" lon="107.012738">
<time>2016-10-06T18:53:25Z</time></trkpt>
<trkpt lat="23.887358" lon="107.012618">
<time>2016-10-06T18:53:26Z</time></trkpt>
<trkpt lat="23.887208" lon="107.012519">
<time>2016-10-06T18:53:27Z</time></trkpt>
<trkpt lat="23.887038" lon="107.012429">
<time>2016-10-06T18:53:28Z</time></trkpt>
<trkpt lat="23.886858" lon="107.012329">
<time>2016-10-06T18:53:29Z</time></trkpt>
<trkpt lat="23.886678" lon="107.01224">
<time>2016-10-06T18:53:30Z</time></trkpt>
<trkpt lat="23.886509" lon="107.01217">
<time>2016-10-06T18:53:31Z</time></trkpt>
<trkpt lat="23.886279" lon="107.01208">
<time>2016-10-06T18:53:32Z</time></trkpt>
<trkpt lat="23.885799" lon="107.011941">
<time>2016-10-06T18:53:33Z</time></trkpt>
<trkpt lat="23.885419" lon="107.011851">
<time>2016-10-06T18:53:34Z</time></trkpt>
<trkpt lat="23.885249" lon="107.011791">
<time>2016-10-06T18:53:35Z</time></trkpt>
<trkpt lat="23.885059" lon="107.011722">
<time>2016-10-06T18:53:36Z</time></trkpt>
<trkpt lat="23.884919" lon="107.011662">
<time>2016-10-06T18:53:37Z</time></trkpt>
<trkpt lat="23.88468" lon="107.011533">
<time>2016-10-06T18:53:38Z</time></trkpt>
<trkpt lat="23.88442" lon="107.011383">
<time>2016-10-06T18:53:39Z</time></trkpt>
<trkpt lat="23.88415" lon="107.011244">
<time>2016-10-06T18:53:40Z</time></trkpt>
<trkpt lat="23.883951" lon="107.011164">
<time>2016-10-06T18:53:41Z</time></trkpt>
<trkpt lat="23.883801" lon="107.011114">
<time>2016-10-06T18:53:42Z</time></trkpt>
<trkpt lat="23.883611" lon="107.011044">
<time>2016-10-06T18:53:43Z</time></trkpt>
<trkpt lat="23.883361" lon="107.010965">
<time>2016-10-06T18:53:44Z</time></trkpt>
<trkpt lat="23.883181" lon="107.010895">
<time>2016-10-06T18:53:45Z</time></trkpt>
<trkpt lat="23.883041" lon="107.010825">
<time>2016-10-06T18:53:46Z</time></trkpt>
<trkpt lat="23.882911" lon="107.010746">
<time>2016-10-06T18:53:47Z</time></trkpt>
<trkpt lat="23.882792" lon="107.010656">
<time>2016-10-06T18:53:48Z</time></trkpt>
<trkpt lat="23.882612" lon="107.010517">
<time>2016-10-06T18:53:49Z</time></trkpt>
<trkpt lat="23.882502" lon="107.010407">
<time>2016-10-06T18:53:50Z</time></trkpt>
<trkpt lat="23.882373" lon="107.010268">
<time>2016-10-06T18:53:51Z</time></trkpt>
<trkpt lat="23.882153" lon="107.009999">
<time>2016-10-06T18:53:52Z</time></trkpt>
<trkpt lat="23.882054" lon="107.009879">
<time>2016-10-06T18:53:53Z</time></trkpt>
<trkpt lat="23.881964" lon="107.009799">
<time>2016-10-06T18:53:54Z</time></trkpt>
<trkpt lat="23.881864" lon="107.00975">
<time>2016-10-06T18:53:55Z</time></trkpt>
<trkpt lat="23.881754" lon="107.00972">
<time>2016-10-06T18:53:56Z</time></trkpt>
<trkpt lat="23.881664" lon="107.00971">
<time>2016-10-06T18:53:57Z</time></trkpt>
<trkpt lat="23.881554" lon="107.00973">
<time>2016-10-06T18:53:58Z</time></trkpt>
<trkpt lat="23.881464" lon="107.00975">
<time>2016-10-06T18:53:59Z</time></trkpt>
<trkpt lat="23.881374" lon="107.00979">
<time>2016-10-06T18:54:00Z</time></trkpt>
<trkpt lat="23.881283" lon="107.009849">
<time>2016-10-06T18:54:01Z</time></trkpt>
<trkpt lat="23.881213" lon="107.009899">
<time>2016-10-06T18:54:02Z</time></trkpt>
<trkpt lat="23.881083" lon="107.010019">
<time>2016-10-06T18:54:03Z</time></trkpt>
<trkpt lat="23.880912" lon="107.010168">
<time>2016-10-06T18:54:04Z</time></trkpt>
<trkpt lat="23.880802" lon="107.010258">
<time>2016-10-06T18:54:05Z</time></trkpt>
<trkpt lat="23.880682" lon="107.010327">
<time>2016-10-06T18:54:06Z</time></trkpt>
<trkpt lat="23.880562" lon="107.010387">
<time>2016-10-06T18:54:07Z</time></trkpt>
<trkpt lat="23.880421" lon="107.010437">
<time>2016-10-06T18:54:08Z</time></trkpt>
<trkpt lat="23.880241" lon="107.010487">
<time>2016-10-06T18:54:09Z</time></trkpt>
<trkpt lat="23.880091" lon="107.010517">
<time>2016-10-06T18:54:10Z</time></trkpt>
<trkpt lat="23.879911" lon="107.010537">
<time>2016-10-06T18:54:11Z</time></trkpt>
<trkpt lat="23.879731" lon="107.010547">
<time>2016-10-06T18:54:12Z</time></trkpt>
<trkpt lat="23.879561" lon="107.010537">
<time>2016-10-06T18:54:13Z</time></trkpt>
<trkpt lat="23.879411" lon="107.010507">
<time>2016-10-06T18:54:14Z</time></trkpt>
<trkpt lat="23.879281" lon="107.010457">
<time>2016-10-06T18:54:15Z</time></trkpt>
<trkpt lat="23.879141" lon="107.010397">
<time>2016-10-06T18:54:16Z</time></trkpt>
<trkpt lat="23.879031" lon="107.010328">
<time>2016-10-06T18:54:17Z</time></trkpt>
<trkpt lat="23.878801" lon="107.010198">
<time>2016-10-06T18:54:18Z</time></trkpt>
<trkpt lat="23.878282" lon="107.009889">
<time>2016-10-06T18:54:19Z</time></trkpt>
<trkpt lat="23.878012" lon="107.00977">
<time>2016-10-06T18:54:20Z</time></trkpt>
<trkpt lat="23.877892" lon="107.00974">
<time>2016-10-06T18:54:21Z</time></trkpt>
<trkpt lat="23.877742" lon="107.00971">
<time>2016-10-06T18:54:22Z</time></trkpt>
<trkpt lat="23.877592" lon="107.0097">
<time>2016-10-06T18:54:23Z</time></trkpt>
<trkpt lat="23.877432" lon="107.00971">
<time>2016-10-06T18:54:24Z</time></trkpt>
<trkpt lat="23.877262" lon="107.00974">
<time>2016-10-06T18:54:25Z</time></trkpt>
<trkpt lat="23.877132" lon="107.00978">
<time>2016-10-06T18:54:26Z</time></trkpt>
<trkpt lat="23.876992" lon="107.00983">
<time>2016-10-06T18:54:27Z</time></trkpt>
<trkpt lat="23.876842" lon="107.009889">
<time>2016-10-06T18:54:28Z</time></trkpt>
<trkpt lat="23.876721" lon="107.009949">
<time>2016-10-06T18:54:29Z</time></trkpt>
<trkpt lat="23.876571" lon="107.010039">
<time>2016-10-06T18:54:30Z</time></trkpt>
<trkpt lat="23.876521" lon="107.010059">
<time>2016-10-06T18:54:31Z</time></trkpt>
<trkpt lat="23.876361" lon="107.010138">
<time>2016-10-06T18:54:32Z</time></trkpt>
<trkpt lat="23.87618" lon="107.010198">
<time>2016-10-06T18:54:33Z</time></trkpt>
<trkpt lat="23.87598" lon="107.010248">
<time>2016-10-06T18:54:34Z</time></trkpt>
<trkpt lat="23.8758" lon="107.010278">
<time>2016-10-06T18:54:35Z</time></trkpt>
<trkpt lat="23.87561" lon="107.010288">
<time>2016-10-06T18:54:36Z</time></trkpt>
<trkpt lat="23.8753" lon="107.010298">
<time>2016-10-06T18:54:37Z</time></trkpt>
<trkpt lat="23.87509" lon="107.010298">
<time>2016-10-06T18:54:38Z</time></trkpt>
<trkpt lat="23.87493" lon="107.010318">
<time>2016-10-06T18:54:39Z</time></trkpt>
<trkpt lat="23.874799" lon="107.010358">
<time>2016-10-06T18:54:40Z</time></trkpt>
<trkpt lat="23.874709" lon="107.010388">
<time>2016-10-06T18:54:41Z</time></trkpt>
<trkpt lat="23.874619" lon="107.010427">
<time>2016-10-06T18:54:42Z</time></trkpt>
<trkpt lat="23.874529" lon="107.010487">
<time>2016-10-06T18:54:43Z</time></trkpt>
<trkpt lat="23.874399" lon="107.010567">
<time>2016-10-06T18:54:44Z</time></trkpt>
<trkpt lat="23.874148" lon="107.010726">
<time>2016-10-06T18:54:45Z</time></trkpt>
<trkpt lat="23.873998" lon="107.010816">
<time>2016-10-06T18:54:46Z</time></trkpt>
<trkpt lat="23.873878" lon="107.010866">
<time>2016-10-06T18:54:47Z</time></trkpt>
<trkpt lat="23.873747" lon="107.010896">
<time>2016-10-06T18:54:48Z</time></trkpt>
<trkpt lat="23.873607" lon="107.010916">
<time>2016-10-06T18:54:49Z</time></trkpt>
<trkpt lat="23.873477" lon="107.010925">
<time>2016-10-06T18:54:50Z</time></trkpt>
<trkpt lat="23.873367" lon="107.010916">
<time>2016-10-06T18:54:51Z</time></trkpt>
<trkpt lat="23.873237" lon="107.010896">
<time>2016-10-06T18:54:52Z</time></trkpt>
<trkpt lat="23.873087" lon="107.010856">
<time>2016-10-06T18:54:53Z</time></trkpt>
<trkpt lat="23.872947" lon="107.010816">
<time>2016-10-06T18:54:54Z</time></trkpt>
<trkpt lat="23.872638" lon="107.010716">
<time>2016-10-06T18:54:55Z</time></trkpt>
<trkpt lat="23.872048" lon="107.010547">
<time>2016-10-06T18:54:56Z</time></trkpt>
<trkpt lat="23.871778" lon="107.010477">
<time>2016-10-06T18:54:57Z</time></trkpt>
<trkpt lat="23.871708" lon="107.010467">
<time>2016-10-06T18:54:58Z</time></trkpt>
<trkpt lat="23.871488" lon="107.010437">
<time>2016-10-06T18:54:59Z</time></trkpt>
<trkpt lat="23.871288" lon="107.010428">
<time>2016-10-06T18:55:00Z</time></trkpt>
<trkpt lat="23.871128" lon="107.010438">
<time>2016-10-06T18:55:01Z</time></trkpt>
<trkpt lat="23.870658" lon="107.010467">
<time>2016-10-06T18:55:02Z</time></trkpt>
<trkpt lat="23.870458" lon="107.010457">
<time>2016-10-06T18:55:03Z</time></trkpt>
<trkpt lat="23.870308" lon="107.010438">
<time>2016-10-06T18:55:04Z</time></trkpt>
<trkpt lat="23.870148" lon="107.010398">
<time>2016-10-06T18:55:05Z</time></trkpt>
<trkpt lat="23.869948" lon="107.010328">
<time>2016-10-06T18:55:06Z</time></trkpt>
<trkpt lat="23.869788" lon="107.010248">
<time>2016-10-06T18:55:07Z</time></trkpt>
<trkpt lat="23.869548" lon="107.010109">
<time>2016-10-06T18:55:08Z</time></trkpt>
<trkpt lat="23.869049" lon="107.00982">
<time>2016-10-06T18:55:09Z</time></trkpt>
<trkpt lat="23.86832" lon="107.009382">
<time>2016-10-06T18:55:10Z</time></trkpt>
<trkpt lat="23.867791" lon="107.009043">
<time>2016-10-06T18:55:11Z</time></trkpt>
<trkpt lat="23.867441" lon="107.008814">
<time>2016-10-06T18:55:12Z</time></trkpt>
<trkpt lat="23.867112" lon="107.008575">
<time>2016-10-06T18:55:13Z</time></trkpt>
<trkpt lat="23.866862" lon="107.008386">
<time>2016-10-06T18:55:14Z</time></trkpt>
<trkpt lat="23.866573" lon="107.008147">
<time>2016-10-06T18:55:15Z</time></trkpt>
<trkpt lat="23.866413" lon="107.008007">
<time>2016-10-06T18:55:16Z</time></trkpt>
<trkpt lat="23.866024" lon="107.007629">
<time>2016-10-06T18:55:17Z</time></trkpt>
<trkpt lat="23.865775" lon="107.00738">
<time>2016-10-06T18:55:18Z</time></trkpt>
<trkpt lat="23.865546" lon="107.007111">
<time>2016-10-06T18:55:19Z</time></trkpt>
<trkpt lat="23.865336" lon="107.006842">
<time>2016-10-06T18:55:20Z</time></trkpt>
<trkpt lat="23.865207" lon="107.006633">
<time>2016-10-06T18:55:21Z</time></trkpt>
<trkpt lat="23.865108" lon="107.006453">
<time>2016-10-06T18:55:22Z</time></trkpt>
<trkpt lat="23.864998" lon="107.006185">
<time>2016-10-06T18:55:23Z</time></trkpt>
<trkpt lat="23.864899" lon="107.005856">
<time>2016-10-06T18:55:24Z</time></trkpt>
<trkpt lat="23.86482" lon="107.005497">
<time>2016-10-06T18:55:25Z</time></trkpt>
<trkpt lat="23.86481" lon="107.005467">
<time>2016-10-06T18:55:26Z</time></trkpt>
<trkpt lat="23.864751" lon="107.005149">
<time>2016-10-06T18:55:27Z</time></trkpt>
<trkpt lat="23.864712" lon="107.00494">
<time>2016-10-06T18:55:28Z</time></trkpt>
<trkpt lat="23.864683" lon="107.00471">
<time>2016-10-06T18:55:29Z</time></trkpt>
<trkpt lat="23.864654" lon="107.004402">
<time>2016-10-06T18:55:30Z</time></trkpt>
<trkpt lat="23.864654" lon="107.004123">
<time>2016-10-06T18:55:31Z</time></trkpt>
<trkpt lat="23.864655" lon="107.003914">
<time>2016-10-06T18:55:32Z</time></trkpt>
<trkpt lat="23.864686" lon="107.003665">
<time>2016-10-06T18:55:33Z</time></trkpt>
<trkpt lat="23.864758" lon="107.003007">
<time>2016-10-06T18:55:34Z</time></trkpt>
<trkpt lat="23.864779" lon="107.002768">
<time>2016-10-06T18:55:35Z</time></trkpt>
<trkpt lat="23.864769" lon="107.002499">
<time>2016-10-06T18:55:36Z</time></trkpt>
<trkpt lat="23.86474" lon="107.00225">
<time>2016-10-06T18:55:37Z</time></trkpt>
<trkpt lat="23.864681" lon="107.002041">
<time>2016-10-06T18:55:38Z</time></trkpt>
<trkpt lat="23.864631" lon="107.001872">
<time>2016-10-06T18:55:39Z</time></trkpt>
<trkpt lat="23.864552" lon="107.001692">
<time>2016-10-06T18:55:40Z</time></trkpt>
<trkpt lat="23.864452" lon="107.001493">
<time>2016-10-06T18:55:41Z</time></trkpt>
<trkpt lat="23.864164" lon="107.001035">
<time>2016-10-06T18:55:42Z</time></trkpt>
<trkpt lat="23.864014" lon="107.000826">
<time>2016-10-06T18:55:43Z</time></trkpt>
<trkpt lat="23.863944" lon="107.000746">
<time>2016-10-06T18:55:44Z</time></trkpt>
<trkpt lat="23.863835" lon="107.000647">
<time>2016-10-06T18:55:45Z</time></trkpt>
<trkpt lat="23.863725" lon="107.000557">
<time>2016-10-06T18:55:46Z</time></trkpt>
<trkpt lat="23.863595" lon="107.000477">
<time>2016-10-06T18:55:47Z</time></trkpt>
<trkpt lat="23.863485" lon="107.000438">
<time>2016-10-06T18:55:48Z</time></trkpt>
<trkpt lat="23.863365" lon="107.000418">
<time>2016-10-06T18:55:49Z</time></trkpt>
<trkpt lat="23.863255" lon="107.000408">
<time>2016-10-06T18:55:50Z</time></trkpt>
<trkpt lat="23.863115" lon="107.000408">
<time>2016-10-06T18:55:51Z</time></trkpt>
<trkpt lat="23.862935" lon="107.000418">
<time>2016-10-06T18:55:52Z</time></trkpt>
<trkpt lat="23.862635" lon="107.000448">
<time>2016-10-06T18:55:53Z</time></trkpt>
<trkpt lat="23.861804" lon="107.000557">
<time>2016-10-06T18:55:54Z</time></trkpt>
<trkpt lat="23.861474" lon="107.000607">
<time>2016-10-06T18:55:55Z</time></trkpt>
<trkpt lat="23.861224" lon="107.000627">
<time>2016-10-06T18:55:56Z</time></trkpt>
<trkpt lat="23.861064" lon="107.000627">
<time>2016-10-06T18:55:57Z</time></trkpt>
<trkpt lat="23.860984" lon="107.000627">
<time>2016-10-06T18:55:58Z</time></trkpt>
<trkpt lat="23.860864" lon="107.000607">
<time>2016-10-06T18:55:59Z</time></trkpt>
<trkpt lat="23.860704" lon="107.000577">
<time>2016-10-06T18:56:00Z</time></trkpt>
<trkpt lat="23.860564" lon="107.000517">
<time>2016-10-06T18:56:01Z</time></trkpt>
<trkpt lat="23.860404" lon="107.000448">
<time>2016-10-06T18:56:02Z</time></trkpt>
<trkpt lat="23.860294" lon="107.000378">
<time>2016-10-06T18:56:03Z</time></trkpt>
<trkpt lat="23.860085" lon="107.000238">
<time>2016-10-06T18:56:04Z</time></trkpt>
<trkpt lat="23.859855" lon="107.000079">
<time>2016-10-06T18:56:05Z</time></trkpt>
<trkpt lat="23.859715" lon="106.999989">
<time>2016-10-06T18:56:06Z</time></trkpt>
<trkpt lat="23.859446" lon="106.99981">
<time>2016-10-06T18:56:07Z</time></trkpt>
<trkpt lat="23.859126" lon="106.999581">
<time>2016-10-06T18:56:08Z</time></trkpt>
<trkpt lat="23.858847" lon="106.999382">
<time>2016-10-06T18:56:09Z</time></trkpt>
<trkpt lat="23.858597" lon="106.999183">
<time>2016-10-06T18:56:10Z</time></trkpt>
<trkpt lat="23.858298" lon="106.998894">
<time>2016-10-06T18:56:11Z</time></trkpt>
<trkpt lat="23.857989" lon="106.998565">
<time>2016-10-06T18:56:12Z</time></trkpt>
<trkpt lat="23.857769" lon="106.998346">
<time>2016-10-06T18:56:13Z</time></trkpt>
<trkpt lat="23.85757" lon="106.998187">
<time>2016-10-06T18:56:14Z</time></trkpt>
<trkpt lat="23.85742" lon="106.998097">
<time>2016-10-06T18:56:15Z</time></trkpt>
<trkpt lat="23.85721" lon="106.998018">
<time>2016-10-06T18:56:16Z</time></trkpt>
<trkpt lat="23.85706" lon="106.997978">
<time>2016-10-06T18:56:17Z</time></trkpt>
<trkpt lat="23.85683" lon="106.997928">
<time>2016-10-06T18:56:18Z</time></trkpt>
<trkpt lat="23.85645" lon="106.997878">
<time>2016-10-06T18:56:19Z</time></trkpt>
<trkpt lat="23.85611" lon="106.997818">
<time>2016-10-06T18:56:20Z</time></trkpt>
<trkpt lat="23.855781" lon="106.997749">
<time>2016-10-06T18:56:21Z</time></trkpt>
<trkpt lat="23.855591" lon="106.997689">
<time>2016-10-06T18:56:22Z</time></trkpt>
<trkpt lat="23.855101" lon="106.99748">
<time>2016-10-06T18:56:23Z</time></trkpt>
<trkpt lat="23.854841" lon="106.99738">
<time>2016-10-06T18:56:24Z</time></trkpt>
<trkpt lat="23.854561" lon="106.99732">
<time>2016-10-06T18:56:25Z</time></trkpt>
<trkpt lat="23.854141" lon="106.997241">
<time>2016-10-06T18:56:26Z</time></trkpt>
<trkpt lat="23.853852" lon="106.997171">
<time>2016-10-06T18:56:27Z</time></trkpt>
<trkpt lat="23.853622" lon="106.997091">
<time>2016-10-06T18:56:28Z</time></trkpt>
<trkpt lat="23.853432" lon="106.997002">
<time>2016-10-06T18:56:29Z</time></trkpt>
<trkpt lat="23.853272" lon="106.996912">
<time>2016-10-06T18:56:30Z</time></trkpt>
<trkpt lat="23.852923" lon="106.996673">
<time>2016-10-06T18:56:31Z</time></trkpt>
<trkpt lat="23.852424" lon="106.996305">
<time>2016-10-06T18:56:32Z</time></trkpt>
<trkpt lat="23.852184" lon="106.996155">
<time>2016-10-06T18:56:33Z</time></trkpt>
<trkpt lat="23.851914" lon="106.996016">
<time>2016-10-06T18:56:34Z</time></trkpt>
<trkpt lat="23.851275" lon="106.995817">
<time>2016-10-06T18:56:35Z</time></trkpt>
<trkpt lat="23.850655" lon="106.995647">
<time>2016-10-06T18:56:36Z</time></trkpt>
<trkpt lat="23.850415" lon="106.995617">
<time>2016-10-06T18:56:37Z</time></trkpt>
<trkpt lat="23.850245" lon="106.995608">
<time>2016-10-06T18:56:38Z</time></trkpt>
<trkpt lat="23.850095" lon="106.995627">
<time>2016-10-06T18:56:39Z</time></trkpt>
<trkpt lat="23.849945" lon="106.995667">
<time>2016-10-06T18:56:40Z</time></trkpt>
<trkpt lat="23.849754" lon="106.995767">
<time>2016-10-06T18:56:41Z</time></trkpt>
<trkpt lat="23.849604" lon="106.995896">
<time>2016-10-06T18:56:42Z</time></trkpt>
<trkpt lat="23.849413" lon="106.996155">
<time>2016-10-06T18:56:43Z</time></trkpt>
<trkpt lat="23.8489" lon="106.997092">
<time>2016-10-06T18:56:44Z</time></trkpt>
<trkpt lat="23.848739" lon="106.997381">
<time>2016-10-06T18:56:45Z</time></trkpt>
<trkpt lat="23.848609" lon="106.99758">
<time>2016-10-06T18:56:46Z</time></trkpt>
<trkpt lat="23.848498" lon="106.997679">
<time>2016-10-06T18:56:47Z</time></trkpt>
<trkpt lat="23.848398" lon="106.997739">
<time>2016-10-06T18:56:48Z</time></trkpt>
<trkpt lat="23.848288" lon="106.997779">
<time>2016-10-06T18:56:49Z</time></trkpt>
<trkpt lat="23.848178" lon="106.997779">
<time>2016-10-06T18:56:50Z</time></trkpt>
<trkpt lat="23.848058" lon="106.997759">
<time>2016-10-06T18:56:51Z</time></trkpt>
<trkpt lat="23.847968" lon="106.997699">
<time>2016-10-06T18:56:52Z</time></trkpt>
<trkpt lat="23.847908" lon="106.997649">
<time>2016-10-06T18:56:53Z</time></trkpt>
<trkpt lat="23.847838" lon="106.99758">
<time>2016-10-06T18:56:54Z</time></trkpt>
<trkpt lat="23.847769" lon="106.99747">
<time>2016-10-06T18:56:55Z</time></trkpt>
<trkpt lat="23.847709" lon="106.997361">
<time>2016-10-06T18:56:56Z</time></trkpt>
<trkpt lat="23.847619" lon="106.997142">
<time>2016-10-06T18:56:57Z</time></trkpt>
<trkpt lat="23.84753" lon="106.996932">
<time>2016-10-06T18:56:58Z</time></trkpt>
<trkpt lat="23.84744" lon="106.996813">
<time>2016-10-06T18:56:59Z</time></trkpt>
<trkpt lat="23.847361" lon="106.996733">
<time>2016-10-06T18:57:00Z</time></trkpt>
<trkpt lat="23.847261" lon="106.996673">
<time>2016-10-06T18:57:01Z</time></trkpt>
<trkpt lat="23.847131" lon="106.996614">
<time>2016-10-06T18:57:02Z</time></trkpt>
<trkpt lat="23.846981" lon="106.996594">
<time>2016-10-06T18:57:03Z</time></trkpt>
<trkpt lat="23.846671" lon="106.996584">
<time>2016-10-06T18:57:04Z</time></trkpt>
<trkpt lat="23.846441" lon="106.996564">
<time>2016-10-06T18:57:05Z</time></trkpt>
<trkpt lat="23.846251" lon="106.996514">
<time>2016-10-06T18:57:06Z</time></trkpt>
<trkpt lat="23.846081" lon="106.996444">
<time>2016-10-06T18:57:07Z</time></trkpt>
<trkpt lat="23.845931" lon="106.996345">
<time>2016-10-06T18:57:08Z</time></trkpt>
<trkpt lat="23.845792" lon="106.996225">
<time>2016-10-06T18:57:09Z</time></trkpt>
<trkpt lat="23.845512" lon="106.995936">
<time>2016-10-06T18:57:10Z</time></trkpt>
<trkpt lat="23.845303" lon="106.995757">
<time>2016-10-06T18:57:11Z</time></trkpt>
<trkpt lat="23.845163" lon="106.995668">
<time>2016-10-06T18:57:12Z</time></trkpt>
<trkpt lat="23.844963" lon="106.995588">
<time>2016-10-06T18:57:13Z</time></trkpt>
<trkpt lat="23.844723" lon="106.995538">
<time>2016-10-06T18:57:14Z</time></trkpt>
<trkpt lat="23.844203" lon="106.995478">
<time>2016-10-06T18:57:15Z</time></trkpt>
<trkpt lat="23.844003" lon="106.995429">
<time>2016-10-06T18:57:16Z</time></trkpt>
<trkpt lat="23.843874" lon="106.995379">
<time>2016-10-06T18:57:17Z</time></trkpt>
<trkpt lat="23.843784" lon="106.995339">
<time>2016-10-06T18:57:18Z</time></trkpt>
<trkpt lat="23.843574" lon="106.995209">
<time>2016-10-06T18:57:19Z</time></trkpt>
<trkpt lat="23.843085" lon="106.994841">
<time>2016-10-06T18:57:20Z</time></trkpt>
<trkpt lat="23.842955" lon="106.994781">
<time>2016-10-06T18:57:21Z</time></trkpt>
<trkpt lat="23.842795" lon="106.994731">
<time>2016-10-06T18:57:22Z</time></trkpt>
<trkpt lat="23.842615" lon="106.994692">
<time>2016-10-06T18:57:23Z</time></trkpt>
<trkpt lat="23.842485" lon="106.994682">
<time>2016-10-06T18:57:24Z</time></trkpt>
<trkpt lat="23.842365" lon="106.994692">
<time>2016-10-06T18:57:25Z</time></trkpt>
<trkpt lat="23.842235" lon="106.994712">
<time>2016-10-06T18:57:26Z</time></trkpt>
<trkpt lat="23.842005" lon="106.994751">
<time>2016-10-06T18:57:27Z</time></trkpt>
<trkpt lat="23.841464" lon="106.994851">
<time>2016-10-06T18:57:28Z</time></trkpt>
<trkpt lat="23.841054" lon="106.994941">
<time>2016-10-06T18:57:29Z</time></trkpt>
<trkpt lat="23.840884" lon="106.994951">
<time>2016-10-06T18:57:30Z</time></trkpt>
<trkpt lat="23.840764" lon="106.994951">
<time>2016-10-06T18:57:31Z</time></trkpt>
<trkpt lat="23.840624" lon="106.994921">
<time>2016-10-06T18:57:32Z</time></trkpt>
<trkpt lat="23.840524" lon="106.994891">
<time>2016-10-06T18:57:33Z</time></trkpt>
<trkpt lat="23.840414" lon="106.994841">
<time>2016-10-06T18:57:34Z</time></trkpt>
<trkpt lat="23.840314" lon="106.994781">
<time>2016-10-06T18:57:35Z</time></trkpt>
<trkpt lat="23.840224" lon="106.994712">
<time>2016-10-06T18:57:36Z</time></trkpt>
<trkpt lat="23.840154" lon="106.994642">
<time>2016-10-06T18:57:37Z</time></trkpt>
<trkpt lat="23.840095" lon="106.994572">
<time>2016-10-06T18:57:38Z</time></trkpt>
<trkpt lat="23.839975" lon="106.994403">
<time>2016-10-06T18:57:39Z</time></trkpt>
<trkpt lat="23.839736" lon="106.994074">
<time>2016-10-06T18:57:40Z</time></trkpt>
<trkpt lat="23.839656" lon="106.993975">
<time>2016-10-06T18:57:41Z</time></trkpt>
<trkpt lat="23.839527" lon="106.993865">
<time>2016-10-06T18:57:42Z</time></trkpt>
<trkpt lat="23.839407" lon="106.993785">
<time>2016-10-06T18:57:43Z</time></trkpt>
<trkpt lat="23.839307" lon="106.993736">
<time>2016-10-06T18:57:44Z</time></trkpt>
<trkpt lat="23.839177" lon="106.993696">
<time>2016-10-06T18:57:45Z</time></trkpt>
<trkpt lat="23.838877" lon="106.993606">
<time>2016-10-06T18:57:46Z</time></trkpt>
<trkpt lat="23.838657" lon="106.993526">
<time>2016-10-06T18:57:47Z</time></trkpt>
<trkpt lat="23.838517" lon="106.993467">
<time>2016-10-06T18:57:48Z</time></trkpt>
<trkpt lat="23.838348" lon="106.993357">
<time>2016-10-06T18:57:49Z</time></trkpt>
<trkpt lat="23.838218" lon="106.993218">
<time>2016-10-06T18:57:50Z</time></trkpt>
<trkpt lat="23.838089" lon="106.993088">
<time>2016-10-06T18:57:51Z</time></trkpt>
<trkpt lat="23.837969" lon="106.992959">
<time>2016-10-06T18:57:52Z</time></trkpt>
<trkpt lat="23.837819" lon="106.992829">
<time>2016-10-06T18:57:53Z</time></trkpt>
<trkpt lat="23.837679" lon="106.99274">
<time>2016-10-06T18:57:54Z</time></trkpt>
<trkpt lat="23.83756" lon="106.99267">
<time>2016-10-06T18:57:55Z</time></trkpt>
<trkpt lat="23.83715" lon="106.992501">
<time>2016-10-06T18:57:56Z</time></trkpt>
<trkpt lat="23.83697" lon="106.992401">
<time>2016-10-06T18:57:57Z</time></trkpt>
<trkpt lat="23.83685" lon="106.992311">
<time>2016-10-06T18:57:58Z</time></trkpt>
<trkpt lat="23.836731" lon="106.992212">
<time>2016-10-06T18:57:59Z</time></trkpt>
<trkpt lat="23.836461" lon="106.991923">
<time>2016-10-06T18:58:00Z</time></trkpt>
<trkpt lat="23.836272" lon="106.991774">
<time>2016-10-06T18:58:01Z</time></trkpt>
<trkpt lat="23.836152" lon="106.991704">
<time>2016-10-06T18:58:02Z</time></trkpt>
<trkpt lat="23.836022" lon="106.991634">
<time>2016-10-06T18:58:03Z</time></trkpt>
<trkpt lat="23.835892" lon="106.991594">
<time>2016-10-06T18:58:04Z</time></trkpt>
<trkpt lat="23.835782" lon="106.991574">
<time>2016-10-06T18:58:05Z</time></trkpt>
<trkpt lat="23.835632" lon="106.991564">
<time>2016-10-06T18:58:06Z</time></trkpt>
<trkpt lat="23.835472" lon="106.991564">
<time>2016-10-06T18:58:07Z</time></trkpt>
<trkpt lat="23.835082" lon="106.991604">
<time>2016-10-06T18:58:08Z</time></trkpt>
<trkpt lat="23.834231" lon="106.991714">
<time>2016-10-06T18:58:09Z</time></trkpt>
<trkpt lat="23.833731" lon="106.991784">
<time>2016-10-06T18:58:10Z</time></trkpt>
<trkpt lat="23.833521" lon="106.991833">
<time>2016-10-06T18:58:11Z</time></trkpt>
<trkpt lat="23.83332" lon="106.991893">
<time>2016-10-06T18:58:12Z</time></trkpt>
<trkpt lat="23.83278" lon="106.992083">
<time>2016-10-06T18:58:13Z</time></trkpt>
<trkpt lat="23.83269" lon="106.992112">
<time>2016-10-06T18:58:14Z</time></trkpt>
<trkpt lat="23.83261" lon="106.992122">
<time>2016-10-06T18:58:15Z</time></trkpt>
<trkpt lat="23.832509" lon="106.992132">
<time>2016-10-06T18:58:16Z</time></trkpt>
<trkpt lat="23.832409" lon="106.992132">
<time>2016-10-06T18:58:17Z</time></trkpt>
<trkpt lat="23.832339" lon="106.992122">
<time>2016-10-06T18:58:18Z</time></trkpt>
<trkpt lat="23.8322" lon="106.992083">
<time>2016-10-06T18:58:19Z</time></trkpt>
<trkpt lat="23.83208" lon="106.992023">
<time>2016-10-06T18:58:20Z</time></trkpt>
<trkpt lat="23.83198" lon="106.991953">
<time>2016-10-06T18:58:21Z</time></trkpt>
<trkpt lat="23.83189" lon="106.991873">
<time>2016-10-06T18:58:22Z</time></trkpt>
<trkpt lat="23.8318" lon="106.991754">
<time>2016-10-06T18:58:23Z</time></trkpt>
<trkpt lat="23.831751" lon="106.991664">
<time>2016-10-06T18:58:24Z</time></trkpt>
<trkpt lat="23.831681" lon="106.991525">
<time>2016-10-06T18:58:25Z</time></trkpt>
<trkpt lat="23.831513" lon="106.991007">
<time>2016-10-06T18:58:26Z</time></trkpt>
<trkpt lat="23.830968" lon="106.989264">
<time>2016-10-06T18:58:27Z</time></trkpt>
<trkpt lat="23.83078" lon="106.988636">
<time>2016-10-06T18:58:28Z</time></trkpt>
<trkpt lat="23.830611" lon="106.988268">
<time>2016-10-06T18:58:29Z</time></trkpt>
<trkpt lat="23.830252" lon="106.98778">
<time>2016-10-06T18:58:30Z</time></trkpt>
<trkpt lat="23.829803" lon="106.987282">
<time>2016-10-06T18:58:31Z</time></trkpt>
<trkpt lat="23.829614" lon="106.986993">
<time>2016-10-06T18:58:32Z</time></trkpt>
<trkpt lat="23.829574" lon="106.986873">
<time>2016-10-06T18:58:33Z</time></trkpt>
<trkpt lat="23.829545" lon="106.986794">
<time>2016-10-06T18:58:34Z</time></trkpt>
<trkpt lat="23.829455" lon="106.986565">
<time>2016-10-06T18:58:35Z</time></trkpt>
<trkpt lat="23.829367" lon="106.986077">
<time>2016-10-06T18:58:36Z</time></trkpt>
<trkpt lat="23.829238" lon="106.985589">
<time>2016-10-06T18:58:37Z</time></trkpt>
<trkpt lat="23.829119" lon="106.98514">
<time>2016-10-06T18:58:38Z</time></trkpt>
<trkpt lat="23.82898" lon="106.984832">
<time>2016-10-06T18:58:39Z</time></trkpt>
<trkpt lat="23.828721" lon="106.984612">
<time>2016-10-06T18:58:40Z</time></trkpt>
<trkpt lat="23.828391" lon="106.984453">
<time>2016-10-06T18:58:41Z</time></trkpt>
<trkpt lat="23.827492" lon="106.984144">
<time>2016-10-06T18:58:42Z</time></trkpt>
<trkpt lat="23.826912" lon="106.983995">
<time>2016-10-06T18:58:43Z</time></trkpt>
<trkpt lat="23.826562" lon="106.983935">
<time>2016-10-06T18:58:44Z</time></trkpt>
<trkpt lat="23.825692" lon="106.983925">
<time>2016-10-06T18:58:45Z</time></trkpt>
<trkpt lat="23.825082" lon="106.983905">
<time>2016-10-06T18:58:46Z</time></trkpt>
<trkpt lat="23.824802" lon="106.983816">
<time>2016-10-06T18:58:47Z</time></trkpt>
<trkpt lat="23.824512" lon="106.983646">
<time>2016-10-06T18:58:48Z</time></trkpt>
<trkpt lat="23.824223" lon="106.983308">
<time>2016-10-06T18:58:49Z</time></trkpt>
<trkpt lat="23.824094" lon="106.982989">
<time>2016-10-06T18:58:50Z</time></trkpt>
<trkpt lat="23.824074" lon="106.982959">
<time>2016-10-06T18:58:51Z</time></trkpt>
<trkpt lat="23.823926" lon="106.982312">
<time>2016-10-06T18:58:52Z</time></trkpt>
<trkpt lat="23.823887" lon="106.981963">
<time>2016-10-06T18:58:53Z</time></trkpt>
<trkpt lat="23.823928" lon="106.981595">
<time>2016-10-06T18:58:54Z</time></trkpt>
<trkpt lat="23.824049" lon="106.981246">
<time>2016-10-06T18:58:55Z</time></trkpt>
<trkpt lat="23.8243" lon="106.980927">
<time>2016-10-06T18:58:56Z</time></trkpt>
<trkpt lat="23.824491" lon="106.980738">
<time>2016-10-06T18:58:57Z</time></trkpt>
<trkpt lat="23.824731" lon="106.980588">
<time>2016-10-06T18:58:58Z</time></trkpt>
<trkpt lat="23.825022" lon="106.980499">
<time>2016-10-06T18:58:59Z</time></trkpt>
<trkpt lat="23.825372" lon="106.980419">
<time>2016-10-06T18:59:00Z</time></trkpt>
<trkpt lat="23.825502" lon="106.980369">
<time>2016-10-06T18:59:01Z</time></trkpt>
<trkpt lat="23.825643" lon="106.98029">
<time>2016-10-06T18:59:02Z</time></trkpt>
<trkpt lat="23.825783" lon="106.98019">
<time>2016-10-06T18:59:03Z</time></trkpt>
<trkpt lat="23.825903" lon="106.98008">
<time>2016-10-06T18:59:04Z</time></trkpt>
<trkpt lat="23.825984" lon="106.979931">
<time>2016-10-06T18:59:05Z</time></trkpt>
<trkpt lat="23.826044" lon="106.979791">
<time>2016-10-06T18:59:06Z</time></trkpt>
<trkpt lat="23.826075" lon="106.979642">
<time>2016-10-06T18:59:07Z</time></trkpt>
<trkpt lat="23.826085" lon="106.979493">
<time>2016-10-06T18:59:08Z</time></trkpt>
<trkpt lat="23.826075" lon="106.979483">
<time>2016-10-06T18:59:09Z</time></trkpt>
<trkpt lat="23.826056" lon="106.979343">
<time>2016-10-06T18:59:10Z</time></trkpt>
<trkpt lat="23.826026" lon="106.979214">
<time>2016-10-06T18:59:11Z</time></trkpt>
<trkpt lat="23.825957" lon="106.979015">
<time>2016-10-06T18:59:12Z</time></trkpt>
<trkpt lat="23.825857" lon="106.978765">
<time>2016-10-06T18:59:13Z</time></trkpt>
<trkpt lat="23.825638" lon="106.978367">
<time>2016-10-06T18:59:14Z</time></trkpt>
<trkpt lat="23.825359" lon="106.978108">
<time>2016-10-06T18:59:15Z</time></trkpt>
<trkpt lat="23.825119" lon="106.977939">
<time>2016-10-06T18:59:16Z</time></trkpt>
<trkpt lat="23.82474" lon="106.977819">
<time>2016-10-06T18:59:17Z</time></trkpt>
<trkpt lat="23.82435" lon="106.97773">
<time>2016-10-06T18:59:18Z</time></trkpt>
<trkpt lat="23.82399" lon="106.97757">
<time>2016-10-06T18:59:19Z</time></trkpt>
<trkpt lat="23.823801" lon="106.977381">
<time>2016-10-06T18:59:20Z</time></trkpt>
<trkpt lat="23.823681" lon="106.977132">
<time>2016-10-06T18:59:21Z</time></trkpt>
<trkpt lat="23.823652" lon="106.976913">
<time>2016-10-06T18:59:22Z</time></trkpt>
<trkpt lat="23.823693" lon="106.976654">
<time>2016-10-06T18:59:23Z</time></trkpt>
<trkpt lat="23.823793" lon="106.976464">
<time>2016-10-06T18:59:24Z</time></trkpt>
<trkpt lat="23.824034" lon="106.976225">
<time>2016-10-06T18:59:25Z</time></trkpt>
<trkpt lat="23.824425" lon="106.976026">
<time>2016-10-06T18:59:26Z</time></trkpt>
<trkpt lat="23.825036" lon="106.975777">
<time>2016-10-06T18:59:27Z</time></trkpt>
<trkpt lat="23.825446" lon="106.975558">
<time>2016-10-06T18:59:28Z</time></trkpt>
<trkpt lat="23.825787" lon="106.975289">
<time>2016-10-06T18:59:29Z</time></trkpt>
<trkpt lat="23.826219" lon="106.97488">
<time>2016-10-06T18:59:30Z</time></trkpt>
<trkpt lat="23.826499" lon="106.974591">
<time>2016-10-06T18:59:31Z</time></trkpt>
<trkpt lat="23.82666" lon="106.974332">
<time>2016-10-06T18:59:32Z</time></trkpt>
<trkpt lat="23.826711" lon="106.974103">
<time>2016-10-06T18:59:33Z</time></trkpt>
<trkpt lat="23.826692" lon="106.973884">
<time>2016-10-06T18:59:34Z</time></trkpt>
<trkpt lat="23.826552" lon="106.973635">
<time>2016-10-06T18:59:35Z</time></trkpt>
<trkpt lat="23.826293" lon="106.973436">
<time>2016-10-06T18:59:36Z</time></trkpt>
<trkpt lat="23.825983" lon="106.973167">
<time>2016-10-06T18:59:37Z</time></trkpt>
<trkpt lat="23.825824" lon="106.972978">
<time>2016-10-06T18:59:38Z</time></trkpt>
<trkpt lat="23.825674" lon="106.972739">
<time>2016-10-06T18:59:39Z</time></trkpt>
<trkpt lat="23.825585" lon="106.972509">
<time>2016-10-06T18:59:40Z</time></trkpt>
<trkpt lat="23.825436" lon="106.972061">
<time>2016-10-06T18:59:41Z</time></trkpt>
<trkpt lat="23.82503" lon="106.970786">
<time>2016-10-06T18:59:42Z</time></trkpt>
<trkpt lat="23.82491" lon="106.970487">
<time>2016-10-06T18:59:43Z</time></trkpt>
<trkpt lat="23.824761" lon="106.970268">
<time>2016-10-06T18:59:44Z</time></trkpt>
<trkpt lat="23.824591" lon="106.970098">
<time>2016-10-06T18:59:45Z</time></trkpt>
<trkpt lat="23.824532" lon="106.970039">
<time>2016-10-06T18:59:46Z</time></trkpt>
<trkpt lat="23.824272" lon="106.969889">
<time>2016-10-06T18:59:47Z</time></trkpt>
<trkpt lat="23.823922" lon="106.96975">
<time>2016-10-06T18:59:48Z</time></trkpt>
<trkpt lat="23.823652" lon="106.96961">
<time>2016-10-06T18:59:49Z</time></trkpt>
<trkpt lat="23.823443" lon="106.969431">
<time>2016-10-06T18:59:50Z</time></trkpt>
<trkpt lat="23.823263" lon="106.969232">
<time>2016-10-06T18:59:51Z</time></trkpt>
<trkpt lat="23.822964" lon="106.968863">
<time>2016-10-06T18:59:52Z</time></trkpt>
<trkpt lat="23.822725" lon="106.968624">
<time>2016-10-06T18:59:53Z</time></trkpt>
<trkpt lat="23.822395" lon="106.968534">
<time>2016-10-06T18:59:54Z</time></trkpt>
<trkpt lat="23.822155" lon="106.968554">
<time>2016-10-06T18:59:55Z</time></trkpt>
<trkpt lat="23.821644" lon="106.968654">
<time>2016-10-06T18:59:56Z</time></trkpt>
<trkpt lat="23.820854" lon="106.968843">
<time>2016-10-06T18:59:57Z</time></trkpt>
<trkpt lat="23.820463" lon="106.968863">
<time>2016-10-06T18:59:58Z</time></trkpt>
<trkpt lat="23.820174" lon="106.968744">
<time>2016-10-06T18:59:59Z</time></trkpt>
<trkpt lat="23.819994" lon="106.968554">
<time>2016-10-06T19:00:00Z</time></trkpt>
<trkpt lat="23.819905" lon="106.968255">
<time>2016-10-06T19:00:01Z</time></trkpt>
<trkpt lat="23.819866" lon="106.967986">
<time>2016-10-06T19:00:02Z</time></trkpt>
<trkpt lat="23.819917" lon="106.967369">
<time>2016-10-06T19:00:03Z</time></trkpt>
<trkpt lat="23.819919" lon="106.966841">
<time>2016-10-06T19:00:04Z</time></trkpt>
<trkpt lat="23.81987" lon="106.966442">
<time>2016-10-06T19:00:05Z</time></trkpt>
<trkpt lat="23.819761" lon="106.966173">
<time>2016-10-06T19:00:06Z</time></trkpt>
<trkpt lat="23.819521" lon="106.965904">
<time>2016-10-06T19:00:07Z</time></trkpt>
<trkpt lat="23.819082" lon="106.965625">
<time>2016-10-06T19:00:08Z</time></trkpt>
<trkpt lat="23.818063" lon="106.965077">
<time>2016-10-06T19:00:09Z</time></trkpt>
<trkpt lat="23.817743" lon="106.964948">
<time>2016-10-06T19:00:10Z</time></trkpt>
<trkpt lat="23.817683" lon="106.964918">
<time>2016-10-06T19:00:11Z</time></trkpt>
<trkpt lat="23.817503" lon="106.964888">
<time>2016-10-06T19:00:12Z</time></trkpt>
<trkpt lat="23.817173" lon="106.964928">
<time>2016-10-06T19:00:13Z</time></trkpt>
<trkpt lat="23.816893" lon="106.965067">
<time>2016-10-06T19:00:14Z</time></trkpt>
<trkpt lat="23.816271" lon="106.965615">
<time>2016-10-06T19:00:15Z</time></trkpt>
<trkpt lat="23.8159" lon="106.965785">
<time>2016-10-06T19:00:16Z</time></trkpt>
<trkpt lat="23.81554" lon="106.965824">
<time>2016-10-06T19:00:17Z</time></trkpt>
<trkpt lat="23.81513" lon="106.965765">
<time>2016-10-06T19:00:18Z</time></trkpt>
<trkpt lat="23.81474" lon="106.965735">
<time>2016-10-06T19:00:19Z</time></trkpt>
<trkpt lat="23.8143" lon="106.965795">
<time>2016-10-06T19:00:20Z</time></trkpt>
<trkpt lat="23.813819" lon="106.965924">
<time>2016-10-06T19:00:21Z</time></trkpt>
<trkpt lat="23.813309" lon="106.966064">
<time>2016-10-06T19:00:22Z</time></trkpt>
<trkpt lat="23.812799" lon="106.966074">
<time>2016-10-06T19:00:23Z</time></trkpt>
<trkpt lat="23.812099" lon="106.965904">
<time>2016-10-06T19:00:24Z</time></trkpt>
<trkpt lat="23.811729" lon="106.965745">
<time>2016-10-06T19:00:25Z</time></trkpt>
<trkpt lat="23.81142" lon="106.965516">
<time>2016-10-06T19:00:26Z</time></trkpt>
<trkpt lat="23.81121" lon="106.965217">
<time>2016-10-06T19:00:27Z</time></trkpt>
<trkpt lat="23.810892" lon="106.964639">
<time>2016-10-06T19:00:28Z</time></trkpt>
<trkpt lat="23.810583" lon="106.964051">
<time>2016-10-06T19:00:29Z</time></trkpt>
<trkpt lat="23.810354" lon="106.963722">
<time>2016-10-06T19:00:30Z</time></trkpt>
<trkpt lat="23.810224" lon="106.963623">
<time>2016-10-06T19:00:31Z</time></trkpt>
<trkpt lat="23.810154" lon="106.963573">
<time>2016-10-06T19:00:32Z</time></trkpt>
<trkpt lat="23.810084" lon="106.963523">
<time>2016-10-06T19:00:33Z</time></trkpt>
<trkpt lat="23.809145" lon="106.963035">
<time>2016-10-06T19:00:34Z</time></trkpt>
<trkpt lat="23.808536" lon="106.962646">
<time>2016-10-06T19:00:35Z</time></trkpt>
<trkpt lat="23.808187" lon="106.962317">
<time>2016-10-06T19:00:36Z</time></trkpt>
<trkpt lat="23.807958" lon="106.961998">
<time>2016-10-06T19:00:37Z</time></trkpt>
<trkpt lat="23.80743" lon="106.961161">
<time>2016-10-06T19:00:38Z</time></trkpt>
<trkpt lat="23.8073" lon="106.961002">
<time>2016-10-06T19:00:39Z</time></trkpt>
<trkpt lat="23.80722" lon="106.960912">
<time>2016-10-06T19:00:40Z</time></trkpt>
<trkpt lat="23.80715" lon="106.960843">
<time>2016-10-06T19:00:41Z</time></trkpt>
<trkpt lat="23.80707" lon="106.960783">
<time>2016-10-06T19:00:42Z</time></trkpt>
<trkpt lat="23.806981" lon="106.960723">
<time>2016-10-06T19:00:43Z</time></trkpt>
<trkpt lat="23.806831" lon="106.960643">
<time>2016-10-06T19:00:44Z</time></trkpt>
<trkpt lat="23.806711" lon="106.960593">
<time>2016-10-06T19:00:45Z</time></trkpt>
<trkpt lat="23.806561" lon="106.960563">
<time>2016-10-06T19:00:46Z</time></trkpt>
<trkpt lat="23.806411" lon="106.960534">
<time>2016-10-06T19:00:47Z</time></trkpt>
<trkpt lat="23.806281" lon="106.960534">
<time>2016-10-06T19:00:48Z</time></trkpt>
<trkpt lat="23.805461" lon="106.960554">
<time>2016-10-06T19:00:49Z</time></trkpt>
<trkpt lat="23.80525" lon="106.960534">
<time>2016-10-06T19:00:50Z</time></trkpt>
<trkpt lat="23.805071" lon="106.960504">
<time>2016-10-06T19:00:51Z</time></trkpt>
<trkpt lat="23.804851" lon="106.960424">
<time>2016-10-06T19:00:52Z</time></trkpt>
<trkpt lat="23.804671" lon="106.960334">
<time>2016-10-06T19:00:53Z</time></trkpt>
<trkpt lat="23.804241" lon="106.960045">
<time>2016-10-06T19:00:54Z</time></trkpt>
<trkpt lat="23.803712" lon="106.959657">
<time>2016-10-06T19:00:55Z</time></trkpt>
<trkpt lat="23.803393" lon="106.959477">
<time>2016-10-06T19:00:56Z</time></trkpt>
<trkpt lat="23.802563" lon="106.959159">
<time>2016-10-06T19:00:57Z</time></trkpt>
<trkpt lat="23.802163" lon="106.958949">
<time>2016-10-06T19:00:58Z</time></trkpt>
<trkpt lat="23.801874" lon="106.95864">
<time>2016-10-06T19:00:59Z</time></trkpt>
<trkpt lat="23.801705" lon="106.958311">
<time>2016-10-06T19:01:00Z</time></trkpt>
<trkpt lat="23.801506" lon="106.957803">
<time>2016-10-06T19:01:01Z</time></trkpt>
<trkpt lat="23.801347" lon="106.957454">
<time>2016-10-06T19:01:02Z</time></trkpt>
<trkpt lat="23.801138" lon="106.957175">
<time>2016-10-06T19:01:03Z</time></trkpt>
<trkpt lat="23.800818" lon="106.956956">
<time>2016-10-06T19:01:04Z</time></trkpt>
<trkpt lat="23.800398" lon="106.956846">
<time>2016-10-06T19:01:05Z</time></trkpt>
<trkpt lat="23.799698" lon="106.956587">
<time>2016-10-06T19:01:06Z</time></trkpt>
<trkpt lat="23.799379" lon="106.956398">
<time>2016-10-06T19:01:07Z</time></trkpt>
<trkpt lat="23.799069" lon="106.956149">
<time>2016-10-06T19:01:08Z</time></trkpt>
<trkpt lat="23.798271" lon="106.955361">
<time>2016-10-06T19:01:09Z</time></trkpt>
<trkpt lat="23.797782" lon="106.954933">
<time>2016-10-06T19:01:10Z</time></trkpt>
<trkpt lat="23.797163" lon="106.954405">
<time>2016-10-06T19:01:11Z</time></trkpt>
<trkpt lat="23.797013" lon="106.954265">
<time>2016-10-06T19:01:12Z</time></trkpt>
<trkpt lat="23.796514" lon="106.953836">
<time>2016-10-06T19:01:13Z</time></trkpt>
<trkpt lat="23.796394" lon="106.953737">
<time>2016-10-06T19:01:14Z</time></trkpt>
<trkpt lat="23.796384" lon="106.953727">
<time>2016-10-06T19:01:15Z</time></trkpt>
<trkpt lat="23.796234" lon="106.953607">
<time>2016-10-06T19:01:16Z</time></trkpt>
<trkpt lat="23.796065" lon="106.953518">
<time>2016-10-06T19:01:17Z</time></trkpt>
<trkpt lat="23.795935" lon="106.953458">
<time>2016-10-06T19:01:18Z</time></trkpt>
<trkpt lat="23.795795" lon="106.953418">
<time>2016-10-06T19:01:19Z</time></trkpt>
<trkpt lat="23.795625" lon="106.953398">
<time>2016-10-06T19:01:20Z</time></trkpt>
<trkpt lat="23.795435" lon="106.953418">
<time>2016-10-06T19:01:21Z</time></trkpt>
<trkpt lat="23.795244" lon="106.953468">
<time>2016-10-06T19:01:22Z</time></trkpt>
<trkpt lat="23.794794" lon="106.953617">
<time>2016-10-06T19:01:23Z</time></trkpt>
<trkpt lat="23.794544" lon="106.953677">
<time>2016-10-06T19:01:24Z</time></trkpt>
<trkpt lat="23.794464" lon="106.953687">
<time>2016-10-06T19:01:25Z</time></trkpt>
<trkpt lat="23.794354" lon="106.953687">
<time>2016-10-06T19:01:26Z</time></trkpt>
<trkpt lat="23.794244" lon="106.953677">
<time>2016-10-06T19:01:27Z</time></trkpt>
<trkpt lat="23.794084" lon="106.953627">
<time>2016-10-06T19:01:28Z</time></trkpt>
<trkpt lat="23.793834" lon="106.953488">
<time>2016-10-06T19:01:29Z</time></trkpt>
<trkpt lat="23.793484" lon="106.953278">
<time>2016-10-06T19:01:30Z</time></trkpt>
<trkpt lat="23.793325" lon="106.953189">
<time>2016-10-06T19:01:31Z</time></trkpt>
<trkpt lat="23.793215" lon="106.953139">
<time>2016-10-06T19:01:32Z</time></trkpt>
<trkpt lat="23.793015" lon="106.953049">
<time>2016-10-06T19:01:33Z</time></trkpt>
<trkpt lat="23.792875" lon="106.952999">
<time>2016-10-06T19:01:34Z</time></trkpt>
<trkpt lat="23.792695" lon="106.95295">
<time>2016-10-06T19:01:35Z</time></trkpt>
<trkpt lat="23.792555" lon="106.95291">
<time>2016-10-06T19:01:36Z</time></trkpt>
<trkpt lat="23.792405" lon="106.95288">
<time>2016-10-06T19:01:37Z</time></trkpt>
<trkpt lat="23.792185" lon="106.95285">
<time>2016-10-06T19:01:38Z</time></trkpt>
<trkpt lat="23.791985" lon="106.95281">
<time>2016-10-06T19:01:39Z</time></trkpt>
<trkpt lat="23.791875" lon="106.95277">
<time>2016-10-06T19:01:40Z</time></trkpt>
<trkpt lat="23.791775" lon="106.95272">
<time>2016-10-06T19:01:41Z</time></trkpt>
<trkpt lat="23.791675" lon="106.952651">
<time>2016-10-06T19:01:42Z</time></trkpt>
<trkpt lat="23.791595" lon="106.952571">
<time>2016-10-06T19:01:43Z</time></trkpt>
<trkpt lat="23.791546" lon="106.952481">
<time>2016-10-06T19:01:44Z</time></trkpt>
<trkpt lat="23.791516" lon="106.952421">
<time>2016-10-06T19:01:45Z</time></trkpt>
<trkpt lat="23.791396" lon="106.952122">
<time>2016-10-06T19:01:46Z</time></trkpt>
<trkpt lat="23.791307" lon="106.951913">
<time>2016-10-06T19:01:47Z</time></trkpt>
<trkpt lat="23.791217" lon="106.951753">
<time>2016-10-06T19:01:48Z</time></trkpt>
<trkpt lat="23.791137" lon="106.951614">
<time>2016-10-06T19:01:49Z</time></trkpt>
<trkpt lat="23.791018" lon="106.951474">
<time>2016-10-06T19:01:50Z</time></trkpt>
<trkpt lat="23.790898" lon="106.951395">
<time>2016-10-06T19:01:51Z</time></trkpt>
<trkpt lat="23.790778" lon="106.951315">
<time>2016-10-06T19:01:52Z</time></trkpt>
<trkpt lat="23.790508" lon="106.951195">
<time>2016-10-06T19:01:53Z</time></trkpt>
<trkpt lat="23.790328" lon="106.951115">
<time>2016-10-06T19:01:54Z</time></trkpt>
<trkpt lat="23.790168" lon="106.951046">
<time>2016-10-06T19:01:55Z</time></trkpt>
<trkpt lat="23.790068" lon="106.950996">
<time>2016-10-06T19:01:56Z</time></trkpt>
<trkpt lat="23.789969" lon="106.950916">
<time>2016-10-06T19:01:57Z</time></trkpt>
<trkpt lat="23.789869" lon="106.950806">
<time>2016-10-06T19:01:58Z</time></trkpt>
<trkpt lat="23.789819" lon="106.950697">
<time>2016-10-06T19:01:59Z</time></trkpt>
<trkpt lat="23.789759" lon="106.950537">
<time>2016-10-06T19:02:00Z</time></trkpt>
<trkpt lat="23.78975" lon="106.950428">
<time>2016-10-06T19:02:01Z</time></trkpt>
<trkpt lat="23.78976" lon="106.950288">
<time>2016-10-06T19:02:02Z</time></trkpt>
<trkpt lat="23.789871" lon="106.949939">
<time>2016-10-06T19:02:03Z</time></trkpt>
<trkpt lat="23.790052" lon="106.949341">
<time>2016-10-06T19:02:04Z</time></trkpt>
<trkpt lat="23.790083" lon="106.948982">
<time>2016-10-06T19:02:05Z</time></trkpt>
<trkpt lat="23.790073" lon="106.948823">
<time>2016-10-06T19:02:06Z</time></trkpt>
<trkpt lat="23.790044" lon="106.948673">
<time>2016-10-06T19:02:07Z</time></trkpt>
<trkpt lat="23.789974" lon="106.948484">
<time>2016-10-06T19:02:08Z</time></trkpt>
<trkpt lat="23.789894" lon="106.948334">
<time>2016-10-06T19:02:09Z</time></trkpt>
<trkpt lat="23.789765" lon="106.948135">
<time>2016-10-06T19:02:10Z</time></trkpt>
<trkpt lat="23.789495" lon="106.947915">
<time>2016-10-06T19:02:11Z</time></trkpt>
<trkpt lat="23.788646" lon="106.947357">
<time>2016-10-06T19:02:12Z</time></trkpt>
<trkpt lat="23.787897" lon="106.946908">
<time>2016-10-06T19:02:13Z</time></trkpt>
<trkpt lat="23.787507" lon="106.946729">
<time>2016-10-06T19:02:14Z</time></trkpt>
<trkpt lat="23.787127" lon="106.946619">
<time>2016-10-06T19:02:15Z</time></trkpt>
<trkpt lat="23.786387" lon="106.94647">
<time>2016-10-06T19:02:16Z</time></trkpt>
<trkpt lat="23.786087" lon="106.94641">
<time>2016-10-06T19:02:17Z</time></trkpt>
<trkpt lat="23.785807" lon="106.94626">
<time>2016-10-06T19:02:18Z</time></trkpt>
<trkpt lat="23.785588" lon="106.946051">
<time>2016-10-06T19:02:19Z</time></trkpt>
<trkpt lat="23.785408" lon="106.945802">
<time>2016-10-06T19:02:20Z</time></trkpt>
<trkpt lat="23.785179" lon="106.945363">
<time>2016-10-06T19:02:21Z</time></trkpt>
<trkpt lat="23.784452" lon="106.944007">
<time>2016-10-06T19:02:22Z</time></trkpt>
<trkpt lat="23.783973" lon="106.9431">
<time>2016-10-06T19:02:23Z</time></trkpt>
<trkpt lat="23.783674" lon="106.942591">
<time>2016-10-06T19:02:24Z</time></trkpt>
<trkpt lat="23.783584" lon="106.942491">
<time>2016-10-06T19:02:25Z</time></trkpt>
<trkpt lat="23.783484" lon="106.942392">
<time>2016-10-06T19:02:26Z</time></trkpt>
<trkpt lat="23.783325" lon="106.942272">
<time>2016-10-06T19:02:27Z</time></trkpt>
<trkpt lat="23.783205" lon="106.942202">
<time>2016-10-06T19:02:28Z</time></trkpt>
<trkpt lat="23.783095" lon="106.942162">
<time>2016-10-06T19:02:29Z</time></trkpt>
<trkpt lat="23.783005" lon="106.942142">
<time>2016-10-06T19:02:30Z</time></trkpt>
<trkpt lat="23.782945" lon="106.942132">
<time>2016-10-06T19:02:31Z</time></trkpt>
<trkpt lat="23.782805" lon="106.942112">
<time>2016-10-06T19:02:32Z</time></trkpt>
<trkpt lat="23.782625" lon="106.942112">
<time>2016-10-06T19:02:33Z</time></trkpt>
<trkpt lat="23.782134" lon="106.942132">
<time>2016-10-06T19:02:34Z</time></trkpt>
<trkpt lat="23.781614" lon="106.942152">
<time>2016-10-06T19:02:35Z</time></trkpt>
<trkpt lat="23.781194" lon="106.942083">
<time>2016-10-06T19:02:36Z</time></trkpt>
<trkpt lat="23.780794" lon="106.941993">
<time>2016-10-06T19:02:37Z</time></trkpt>
<trkpt lat="23.780654" lon="106.941973">
<time>2016-10-06T19:02:38Z</time></trkpt>
<trkpt lat="23.780554" lon="106.941983">
<time>2016-10-06T19:02:39Z</time></trkpt>
<trkpt lat="23.780484" lon="106.942003">
<time>2016-10-06T19:02:40Z</time></trkpt>
<trkpt lat="23.780394" lon="106.942033">
<time>2016-10-06T19:02:41Z</time></trkpt>
<trkpt lat="23.780324" lon="106.942073">
<time>2016-10-06T19:02:42Z</time></trkpt>
<trkpt lat="23.780264" lon="106.942113">
<time>2016-10-06T19:02:43Z</time></trkpt>
<trkpt lat="23.780174" lon="106.942192">
<time>2016-10-06T19:02:44Z</time></trkpt>
<trkpt lat="23.780084" lon="106.942302">
<time>2016-10-06T19:02:45Z</time></trkpt>
<trkpt lat="23.779893" lon="106.942521">
<time>2016-10-06T19:02:46Z</time></trkpt>
<trkpt lat="23.779763" lon="106.942641">
<time>2016-10-06T19:02:47Z</time></trkpt>
<trkpt lat="23.779552" lon="106.942781">
<time>2016-10-06T19:02:48Z</time></trkpt>
<trkpt lat="23.779392" lon="106.942861">
<time>2016-10-06T19:02:49Z</time></trkpt>
<trkpt lat="23.779232" lon="106.94292">
<time>2016-10-06T19:02:50Z</time></trkpt>
<trkpt lat="23.779002" lon="106.94296">
<time>2016-10-06T19:02:51Z</time></trkpt>
<trkpt lat="23.778752" lon="106.94298">
<time>2016-10-06T19:02:52Z</time></trkpt>
<trkpt lat="23.778612" lon="106.94296">
<time>2016-10-06T19:02:53Z</time></trkpt>
<trkpt lat="23.778522" lon="106.94293">
<time>2016-10-06T19:02:54Z</time></trkpt>
<trkpt lat="23.778332" lon="106.942841">
<time>2016-10-06T19:02:55Z</time></trkpt>
<trkpt lat="23.778172" lon="106.942711">
<time>2016-10-06T19:02:56Z</time></trkpt>
<trkpt lat="23.777973" lon="106.942462">
<time>2016-10-06T19:02:57Z</time></trkpt>
<trkpt lat="23.777843" lon="106.942292">
<time>2016-10-06T19:02:58Z</time></trkpt>
<trkpt lat="23.777673" lon="106.942033">
<time>2016-10-06T19:02:59Z</time></trkpt>
<trkpt lat="23.777554" lon="106.941903">
<time>2016-10-06T19:03:00Z</time></trkpt>
<trkpt lat="23.777424" lon="106.941794">
<time>2016-10-06T19:03:01Z</time></trkpt>
<trkpt lat="23.777264" lon="106.941694">
<time>2016-10-06T19:03:02Z</time></trkpt>
<trkpt lat="23.777064" lon="106.941624">
<time>2016-10-06T19:03:03Z</time></trkpt>
<trkpt lat="23.776654" lon="106.941544">
<time>2016-10-06T19:03:04Z</time></trkpt>
<trkpt lat="23.776154" lon="106.941385">
<time>2016-10-06T19:03:05Z</time></trkpt>
<trkpt lat="23.775914" lon="106.941245">
<time>2016-10-06T19:03:06Z</time></trkpt>
<trkpt lat="23.775595" lon="106.941046">
<time>2016-10-06T19:03:07Z</time></trkpt>
<trkpt lat="23.775295" lon="106.940906">
<time>2016-10-06T19:03:08Z</time></trkpt>
<trkpt lat="23.775065" lon="106.940896">
<time>2016-10-06T19:03:09Z</time></trkpt>
<trkpt lat="23.774815" lon="106.940946">
<time>2016-10-06T19:03:10Z</time></trkpt>
<trkpt lat="23.774404" lon="106.941106">
<time>2016-10-06T19:03:11Z</time></trkpt>
<trkpt lat="23.774124" lon="106.941166">
<time>2016-10-06T19:03:12Z</time></trkpt>
<trkpt lat="23.773824" lon="106.941166">
<time>2016-10-06T19:03:13Z</time></trkpt>
<trkpt lat="23.773564" lon="106.941076">
<time>2016-10-06T19:03:14Z</time></trkpt>
<trkpt lat="23.773314" lon="106.940916">
<time>2016-10-06T19:03:15Z</time></trkpt>
<trkpt lat="23.772835" lon="106.940448">
<time>2016-10-06T19:03:16Z</time></trkpt>
<trkpt lat="23.772525" lon="106.940198">
<time>2016-10-06T19:03:17Z</time></trkpt>
<trkpt lat="23.772435" lon="106.940138">
<time>2016-10-06T19:03:18Z</time></trkpt>
<trkpt lat="23.772345" lon="106.940089">
<time>2016-10-06T19:03:19Z</time></trkpt>
<trkpt lat="23.772235" lon="106.940049">
<time>2016-10-06T19:03:20Z</time></trkpt>
<trkpt lat="23.772145" lon="106.940019">
<time>2016-10-06T19:03:21Z</time></trkpt>
<trkpt lat="23.771965" lon="106.939999">
<time>2016-10-06T19:03:22Z</time></trkpt>
<trkpt lat="23.771825" lon="106.940009">
<time>2016-10-06T19:03:23Z</time></trkpt>
<trkpt lat="23.771665" lon="106.940029">
<time>2016-10-06T19:03:24Z</time></trkpt>
<trkpt lat="23.771125" lon="106.940148">
<time>2016-10-06T19:03:25Z</time></trkpt>
<trkpt lat="23.771015" lon="106.940158">
<time>2016-10-06T19:03:26Z</time></trkpt>
<trkpt lat="23.770955" lon="106.940148">
<time>2016-10-06T19:03:27Z</time></trkpt>
<trkpt lat="23.770895" lon="106.940138">
<time>2016-10-06T19:03:28Z</time></trkpt>
<trkpt lat="23.770795" lon="106.940099">
<time>2016-10-06T19:03:29Z</time></trkpt>
<trkpt lat="23.770715" lon="106.940049">
<time>2016-10-06T19:03:30Z</time></trkpt>
<trkpt lat="23.770655" lon="106.939999">
<time>2016-10-06T19:03:31Z</time></trkpt>
<trkpt lat="23.770595" lon="106.939939">
<time>2016-10-06T19:03:32Z</time></trkpt>
<trkpt lat="23.770545" lon="106.939879">
<time>2016-10-06T19:03:33Z</time></trkpt>
<trkpt lat="23.770475" lon="106.939779">
<time>2016-10-06T19:03:34Z</time></trkpt>
<trkpt lat="23.770376" lon="106.93954">
<time>2016-10-06T19:03:35Z</time></trkpt>
<trkpt lat="23.770286" lon="106.939241">
<time>2016-10-06T19:03:36Z</time></trkpt>
<trkpt lat="23.770217" lon="106.939031">
<time>2016-10-06T19:03:37Z</time></trkpt>
<trkpt lat="23.770127" lon="106.938832">
<time>2016-10-06T19:03:38Z</time></trkpt>
<trkpt lat="23.769987" lon="106.938633">
<time>2016-10-06T19:03:39Z</time></trkpt>
<trkpt lat="23.769838" lon="106.938483">
<time>2016-10-06T19:03:40Z</time></trkpt>
<trkpt lat="23.769718" lon="106.938373">
<time>2016-10-06T19:03:41Z</time></trkpt>
<trkpt lat="23.769598" lon="106.938303">
<time>2016-10-06T19:03:42Z</time></trkpt>
<trkpt lat="23.769378" lon="106.938184">
<time>2016-10-06T19:03:43Z</time></trkpt>
<trkpt lat="23.768998" lon="106.938014">
<time>2016-10-06T19:03:44Z</time></trkpt>
<trkpt lat="23.768958" lon="106.938004">
<time>2016-10-06T19:03:45Z</time></trkpt>
<trkpt lat="23.768958" lon="106.938004">
<time>2016-10-06T19:03:46Z</time></trkpt>
<trkpt lat="23.769109" lon="106.937705">
<time>2016-10-06T19:03:47Z</time></trkpt>
<trkpt lat="23.769249" lon="106.937456">
<time>2016-10-06T19:03:48Z</time></trkpt>
<trkpt lat="23.7694" lon="106.937156">
<time>2016-10-06T19:03:49Z</time></trkpt>
<trkpt lat="23.76955" lon="106.936867">
<time>2016-10-06T19:03:50Z</time></trkpt>
<trkpt lat="23.769681" lon="106.936628">
<time>2016-10-06T19:03:51Z</time></trkpt>
<trkpt lat="23.769801" lon="106.936408">
<time>2016-10-06T19:03:52Z</time></trkpt>
<trkpt lat="23.769901" lon="106.936219">
<time>2016-10-06T19:03:53Z</time></trkpt>
<trkpt lat="23.769982" lon="106.936079">
<time>2016-10-06T19:03:54Z</time></trkpt>
<trkpt lat="23.770092" lon="106.935969">
<time>2016-10-06T19:03:55Z</time></trkpt>
<trkpt lat="23.770192" lon="106.9359">
<time>2016-10-06T19:03:56Z</time></trkpt>
<trkpt lat="23.770312" lon="106.93583">
<time>2016-10-06T19:03:57Z</time></trkpt>
<trkpt lat="23.770583" lon="106.93571">
<time>2016-10-06T19:03:58Z</time></trkpt>
<trkpt lat="23.770803" lon="106.93563">
<time>2016-10-06T19:03:59Z</time></trkpt>
<trkpt lat="23.771013" lon="106.93554">
<time>2016-10-06T19:04:00Z</time></trkpt>
<trkpt lat="23.771163" lon="106.935471">
<time>2016-10-06T19:04:01Z</time></trkpt>
<trkpt lat="23.771363" lon="106.935351">
<time>2016-10-06T19:04:02Z</time></trkpt>
<trkpt lat="23.771544" lon="106.935241">
<time>2016-10-06T19:04:03Z</time></trkpt>
<trkpt lat="23.771914" lon="106.935012">
<time>2016-10-06T19:04:04Z</time></trkpt>
<trkpt lat="23.772104" lon="106.934882">
<time>2016-10-06T19:04:05Z</time></trkpt>
<trkpt lat="23.772174" lon="106.934812">
<time>2016-10-06T19:04:06Z</time></trkpt>
<trkpt lat="23.772265" lon="106.934702">
<time>2016-10-06T19:04:07Z</time></trkpt>
<trkpt lat="23.772325" lon="106.934573">
<time>2016-10-06T19:04:08Z</time></trkpt>
<trkpt lat="23.772355" lon="106.934473">
<time>2016-10-06T19:04:09Z</time></trkpt>
<trkpt lat="23.772365" lon="106.934363">
<time>2016-10-06T19:04:10Z</time></trkpt>
<trkpt lat="23.772355" lon="106.934214">
<time>2016-10-06T19:04:11Z</time></trkpt>
<trkpt lat="23.772326" lon="106.933884">
<time>2016-10-06T19:04:12Z</time></trkpt>
<trkpt lat="23.772286" lon="106.933625">
<time>2016-10-06T19:04:13Z</time></trkpt>
<trkpt lat="23.772277" lon="106.933455">
<time>2016-10-06T19:04:14Z</time></trkpt>
<trkpt lat="23.772267" lon="106.933266">
<time>2016-10-06T19:04:15Z</time></trkpt>
<trkpt lat="23.772277" lon="106.933066">
<time>2016-10-06T19:04:16Z</time></trkpt>
<trkpt lat="23.772278" lon="106.932867">
<time>2016-10-06T19:04:17Z</time></trkpt>
<trkpt lat="23.772308" lon="106.932528">
<time>2016-10-06T19:04:18Z</time></trkpt>
<trkpt lat="23.772328" lon="106.932278">
<time>2016-10-06T19:04:19Z</time></trkpt>
<trkpt lat="23.772359" lon="106.932019">
<time>2016-10-06T19:04:20Z</time></trkpt>
<trkpt lat="23.772389" lon="106.931789">
<time>2016-10-06T19:04:21Z</time></trkpt>
<trkpt lat="23.772399" lon="106.93164">
<time>2016-10-06T19:04:22Z</time></trkpt>
<trkpt lat="23.7724" lon="106.93152">
<time>2016-10-06T19:04:23Z</time></trkpt>
<trkpt lat="23.77239" lon="106.93141">
<time>2016-10-06T19:04:24Z</time></trkpt>
<trkpt lat="23.77234" lon="106.931251">
<time>2016-10-06T19:04:25Z</time></trkpt>
<trkpt lat="23.77229" lon="106.931111">
<time>2016-10-06T19:04:26Z</time></trkpt>
<trkpt lat="23.77224" lon="106.930991">
<time>2016-10-06T19:04:27Z</time></trkpt>
<trkpt lat="23.772211" lon="106.930881">
<time>2016-10-06T19:04:28Z</time></trkpt>
<trkpt lat="23.772191" lon="106.930792">
<time>2016-10-06T19:04:29Z</time></trkpt>
<trkpt lat="23.772171" lon="106.930682">
<time>2016-10-06T19:04:30Z</time></trkpt>
<trkpt lat="23.772171" lon="106.930592">
<time>2016-10-06T19:04:31Z</time></trkpt>
<trkpt lat="23.772181" lon="106.930512">
<time>2016-10-06T19:04:32Z</time></trkpt>
<trkpt lat="23.772201" lon="106.930403">
<time>2016-10-06T19:04:33Z</time></trkpt>
<trkpt lat="23.772231" lon="106.930303">
<time>2016-10-06T19:04:34Z</time></trkpt>
<trkpt lat="23.772292" lon="106.930183">
<time>2016-10-06T19:04:35Z</time></trkpt>
<trkpt lat="23.772402" lon="106.930033">
<time>2016-10-06T19:04:36Z</time></trkpt>
<trkpt lat="23.772492" lon="106.929894">
<time>2016-10-06T19:04:37Z</time></trkpt>
<trkpt lat="23.772522" lon="106.929774">
<time>2016-10-06T19:04:38Z</time></trkpt>
<trkpt lat="23.772522" lon="106.929674">
<time>2016-10-06T19:04:39Z</time></trkpt>
<trkpt lat="23.772512" lon="106.929564">
<time>2016-10-06T19:04:40Z</time></trkpt>
<trkpt lat="23.772473" lon="106.929425">
<time>2016-10-06T19:04:41Z</time></trkpt>
<trkpt lat="23.772423" lon="106.929325">
<time>2016-10-06T19:04:42Z</time></trkpt>
<trkpt lat="23.772383" lon="106.929275">
<time>2016-10-06T19:04:43Z</time></trkpt>
<trkpt lat="23.772313" lon="106.929205">
<time>2016-10-06T19:04:44Z</time></trkpt>
<trkpt lat="23.772213" lon="106.929145">
<time>2016-10-06T19:04:45Z</time></trkpt>
<trkpt lat="23.772083" lon="106.929085">
<time>2016-10-06T19:04:46Z</time></trkpt>
<trkpt lat="23.771843" lon="106.928976">
<time>2016-10-06T19:04:47Z</time></trkpt>
<trkpt lat="23.771663" lon="106.928886">
<time>2016-10-06T19:04:48Z</time></trkpt>
<trkpt lat="23.771533" lon="106.928786">
<time>2016-10-06T19:04:49Z</time></trkpt>
<trkpt lat="23.771433" lon="106.928696">
<time>2016-10-06T19:04:50Z</time></trkpt>
<trkpt lat="23.771344" lon="106.928567">
<time>2016-10-06T19:04:51Z</time></trkpt>
<trkpt lat="23.771294" lon="106.928467">
<time>2016-10-06T19:04:52Z</time></trkpt>
<trkpt lat="23.771264" lon="106.928357">
<time>2016-10-06T19:04:53Z</time></trkpt>
<trkpt lat="23.771234" lon="106.928197">
<time>2016-10-06T19:04:54Z</time></trkpt>
<trkpt lat="23.771224" lon="106.927968">
<time>2016-10-06T19:04:55Z</time></trkpt>
<trkpt lat="23.771225" lon="106.927808">
<time>2016-10-06T19:04:56Z</time></trkpt>
<trkpt lat="23.771205" lon="106.927639">
<time>2016-10-06T19:04:57Z</time></trkpt>
<trkpt lat="23.771195" lon="106.927619">
<time>2016-10-06T19:04:58Z</time></trkpt>
<trkpt lat="23.771155" lon="106.927469">
<time>2016-10-06T19:04:59Z</time></trkpt>
<trkpt lat="23.771105" lon="106.927339">
<time>2016-10-06T19:05:00Z</time></trkpt>
<trkpt lat="23.771035" lon="106.92719">
<time>2016-10-06T19:05:01Z</time></trkpt>
<trkpt lat="23.770955" lon="106.92704">
<time>2016-10-06T19:05:02Z</time></trkpt>
<trkpt lat="23.770916" lon="106.92691">
<time>2016-10-06T19:05:03Z</time></trkpt>
<trkpt lat="23.770906" lon="106.92678">
<time>2016-10-06T19:05:04Z</time></trkpt>
<trkpt lat="23.770916" lon="106.926671">
<time>2016-10-06T19:05:05Z</time></trkpt>
<trkpt lat="23.770936" lon="106.926541">
<time>2016-10-06T19:05:06Z</time></trkpt>
<trkpt lat="23.771006" lon="106.926391">
<time>2016-10-06T19:05:07Z</time></trkpt>
<trkpt lat="23.771137" lon="106.926152">
<time>2016-10-06T19:05:08Z</time></trkpt>
<trkpt lat="23.771357" lon="106.925793">
<time>2016-10-06T19:05:09Z</time></trkpt>
<trkpt lat="23.771417" lon="106.925693">
<time>2016-10-06T19:05:10Z</time></trkpt>
<trkpt lat="23.771628" lon="106.925343">
<time>2016-10-06T19:05:11Z</time></trkpt>
<trkpt lat="23.771848" lon="106.924984">
<time>2016-10-06T19:05:12Z</time></trkpt>
<trkpt lat="23.771938" lon="106.924804">
<time>2016-10-06T19:05:13Z</time></trkpt>
<trkpt lat="23.771999" lon="106.924675">
<time>2016-10-06T19:05:14Z</time></trkpt>
<trkpt lat="23.772039" lon="106.924555">
<time>2016-10-06T19:05:15Z</time></trkpt>
<trkpt lat="23.772049" lon="106.924515">
<time>2016-10-06T19:05:16Z</time></trkpt>
<trkpt lat="23.772069" lon="106.924395">
<time>2016-10-06T19:05:17Z</time></trkpt>
<trkpt lat="23.772079" lon="106.924256">
<time>2016-10-06T19:05:18Z</time></trkpt>
<trkpt lat="23.77206" lon="106.923876">
<time>2016-10-06T19:05:19Z</time></trkpt>
<trkpt lat="23.77207" lon="106.923477">
<time>2016-10-06T19:05:20Z</time></trkpt>
<trkpt lat="23.772131" lon="106.922988">
<time>2016-10-06T19:05:21Z</time></trkpt>
<trkpt lat="23.772211" lon="106.922659">
<time>2016-10-06T19:05:22Z</time></trkpt>
<trkpt lat="23.772311" lon="106.922429">
<time>2016-10-06T19:05:23Z</time></trkpt>
<trkpt lat="23.772432" lon="106.922259">
<time>2016-10-06T19:05:24Z</time></trkpt>
<trkpt lat="23.772552" lon="106.92211">
<time>2016-10-06T19:05:25Z</time></trkpt>
<trkpt lat="23.772632" lon="106.92203">
<time>2016-10-06T19:05:26Z</time></trkpt>
<trkpt lat="23.772712" lon="106.92199">
<time>2016-10-06T19:05:27Z</time></trkpt>
<trkpt lat="23.772812" lon="106.92195">
<time>2016-10-06T19:05:28Z</time></trkpt>
<trkpt lat="23.772982" lon="106.92188">
<time>2016-10-06T19:05:29Z</time></trkpt>
<trkpt lat="23.773102" lon="106.92183">
<time>2016-10-06T19:05:30Z</time></trkpt>
<trkpt lat="23.773182" lon="106.92178">
<time>2016-10-06T19:05:31Z</time></trkpt>
<trkpt lat="23.773262" lon="106.92171">
<time>2016-10-06T19:05:32Z</time></trkpt>
<trkpt lat="23.773352" lon="106.921601">
<time>2016-10-06T19:05:33Z</time></trkpt>
<trkpt lat="23.773443" lon="106.921451">
<time>2016-10-06T19:05:34Z</time></trkpt>
<trkpt lat="23.773643" lon="106.921081">
<time>2016-10-06T19:05:35Z</time></trkpt>
<trkpt lat="23.773703" lon="106.920962">
<time>2016-10-06T19:05:36Z</time></trkpt>
<trkpt lat="23.773733" lon="106.920882">
<time>2016-10-06T19:05:37Z</time></trkpt>
<trkpt lat="23.773753" lon="106.920772">
<time>2016-10-06T19:05:38Z</time></trkpt>
<trkpt lat="23.773744" lon="106.920672">
<time>2016-10-06T19:05:39Z</time></trkpt>
<trkpt lat="23.773734" lon="106.920582">
<time>2016-10-06T19:05:40Z</time></trkpt>
<trkpt lat="23.773694" lon="106.920463">
<time>2016-10-06T19:05:41Z</time></trkpt>
<trkpt lat="23.773584" lon="106.920253">
<time>2016-10-06T19:05:42Z</time></trkpt>
<trkpt lat="23.773544" lon="106.920143">
<time>2016-10-06T19:05:43Z</time></trkpt>
<trkpt lat="23.773514" lon="106.920033">
<time>2016-10-06T19:05:44Z</time></trkpt>
<trkpt lat="23.773514" lon="106.919924">
<time>2016-10-06T19:05:45Z</time></trkpt>
<trkpt lat="23.773524" lon="106.919784">
<time>2016-10-06T19:05:46Z</time></trkpt>
<trkpt lat="23.773585" lon="106.919414">
<time>2016-10-06T19:05:47Z</time></trkpt>
<trkpt lat="23.773625" lon="106.919135">
<time>2016-10-06T19:05:48Z</time></trkpt>
<trkpt lat="23.773796" lon="106.918117">
<time>2016-10-06T19:05:49Z</time></trkpt>
<trkpt lat="23.773806" lon="106.918007">
<time>2016-10-06T19:05:50Z</time></trkpt>
<trkpt lat="23.773816" lon="106.917967">
<time>2016-10-06T19:05:51Z</time></trkpt>
<trkpt lat="23.773866" lon="106.917827">
<time>2016-10-06T19:05:52Z</time></trkpt>
<trkpt lat="23.773936" lon="106.917637">
<time>2016-10-06T19:05:53Z</time></trkpt>
<trkpt lat="23.774037" lon="106.917468">
<time>2016-10-06T19:05:54Z</time></trkpt>
<trkpt lat="23.774137" lon="106.917338">
<time>2016-10-06T19:05:55Z</time></trkpt>
<trkpt lat="23.774217" lon="106.917248">
<time>2016-10-06T19:05:56Z</time></trkpt>
<trkpt lat="23.774377" lon="106.917088">
<time>2016-10-06T19:05:57Z</time></trkpt>
<trkpt lat="23.774557" lon="106.916909">
<time>2016-10-06T19:05:58Z</time></trkpt>
<trkpt lat="23.774757" lon="106.916729">
<time>2016-10-06T19:05:59Z</time></trkpt>
<trkpt lat="23.774848" lon="106.916649">
<time>2016-10-06T19:06:00Z</time></trkpt>
<trkpt lat="23.774958" lon="106.916509">
<time>2016-10-06T19:06:01Z</time></trkpt>
<trkpt lat="23.775058" lon="106.916339">
<time>2016-10-06T19:06:02Z</time></trkpt>
<trkpt lat="23.775108" lon="106.9162">
<time>2016-10-06T19:06:03Z</time></trkpt>
<trkpt lat="23.775138" lon="106.91607">
<time>2016-10-06T19:06:04Z</time></trkpt>
<trkpt lat="23.775168" lon="106.91593">
<time>2016-10-06T19:06:05Z</time></trkpt>
<trkpt lat="23.775249" lon="106.915411">
<time>2016-10-06T19:06:06Z</time></trkpt>
<trkpt lat="23.775309" lon="106.915121">
<time>2016-10-06T19:06:07Z</time></trkpt>
<trkpt lat="23.775359" lon="106.914972">
<time>2016-10-06T19:06:08Z</time></trkpt>
<trkpt lat="23.775409" lon="106.914892">
<time>2016-10-06T19:06:09Z</time></trkpt>
<trkpt lat="23.775479" lon="106.914792">
<time>2016-10-06T19:06:10Z</time></trkpt>
<trkpt lat="23.775589" lon="106.914692">
<time>2016-10-06T19:06:11Z</time></trkpt>
<trkpt lat="23.775769" lon="106.914572">
<time>2016-10-06T19:06:12Z</time></trkpt>
<trkpt lat="23.77592" lon="106.914462">
<time>2016-10-06T19:06:13Z</time></trkpt>
<trkpt lat="23.776" lon="106.914372">
<time>2016-10-06T19:06:14Z</time></trkpt>
<trkpt lat="23.77608" lon="106.914273">
<time>2016-10-06T19:06:15Z</time></trkpt>
<trkpt lat="23.77615" lon="106.914163">
<time>2016-10-06T19:06:16Z</time></trkpt>
<trkpt lat="23.77615" lon="106.914153">
<time>2016-10-06T19:06:17Z</time></trkpt>
<trkpt lat="23.77632" lon="106.913823">
<time>2016-10-06T19:06:18Z</time></trkpt>
<trkpt lat="23.776551" lon="106.913394">
<time>2016-10-06T19:06:19Z</time></trkpt>
<trkpt lat="23.776701" lon="106.913114">
<time>2016-10-06T19:06:20Z</time></trkpt>
<trkpt lat="23.776841" lon="106.912865">
<time>2016-10-06T19:06:21Z</time></trkpt>
<trkpt lat="23.776911" lon="106.912755">
<time>2016-10-06T19:06:22Z</time></trkpt>
<trkpt lat="23.777011" lon="106.912635">
<time>2016-10-06T19:06:23Z</time></trkpt>
<trkpt lat="23.777311" lon="106.912365">
<time>2016-10-06T19:06:24Z</time></trkpt>
<trkpt lat="23.777411" lon="106.912255">
<time>2016-10-06T19:06:25Z</time></trkpt>
<trkpt lat="23.777522" lon="106.912116">
<time>2016-10-06T19:06:26Z</time></trkpt>
<trkpt lat="23.777612" lon="106.911966">
<time>2016-10-06T19:06:27Z</time></trkpt>
<trkpt lat="23.777672" lon="106.911826">
<time>2016-10-06T19:06:28Z</time></trkpt>
<trkpt lat="23.777872" lon="106.911397">
<time>2016-10-06T19:06:29Z</time></trkpt>
<trkpt lat="23.777952" lon="106.911267">
<time>2016-10-06T19:06:30Z</time></trkpt>
<trkpt lat="23.778012" lon="106.911177">
<time>2016-10-06T19:06:31Z</time></trkpt>
<trkpt lat="23.778082" lon="106.911117">
<time>2016-10-06T19:06:32Z</time></trkpt>
<trkpt lat="23.778162" lon="106.911067">
<time>2016-10-06T19:06:33Z</time></trkpt>
<trkpt lat="23.778262" lon="106.911027">
<time>2016-10-06T19:06:34Z</time></trkpt>
<trkpt lat="23.778643" lon="106.910897">
<time>2016-10-06T19:06:35Z</time></trkpt>
<trkpt lat="23.778833" lon="106.910817">
<time>2016-10-06T19:06:36Z</time></trkpt>
<trkpt lat="23.778923" lon="106.910757">
<time>2016-10-06T19:06:37Z</time></trkpt>
<trkpt lat="23.778973" lon="106.910717">
<time>2016-10-06T19:06:38Z</time></trkpt>
<trkpt lat="23.779013" lon="106.910658">
<time>2016-10-06T19:06:39Z</time></trkpt>
<trkpt lat="23.779073" lon="106.910548">
<time>2016-10-06T19:06:40Z</time></trkpt>
<trkpt lat="23.779173" lon="106.910298">
<time>2016-10-06T19:06:41Z</time></trkpt>
<trkpt lat="23.779323" lon="106.909898">
<time>2016-10-06T19:06:42Z</time></trkpt>
<trkpt lat="23.779464" lon="106.909529">
<time>2016-10-06T19:06:43Z</time></trkpt>
<trkpt lat="23.779494" lon="106.909439">
<time>2016-10-06T19:06:44Z</time></trkpt>
<trkpt lat="23.779584" lon="106.909219">
<time>2016-10-06T19:06:45Z</time></trkpt>
<trkpt lat="23.779604" lon="106.909139">
<time>2016-10-06T19:06:46Z</time></trkpt>
<trkpt lat="23.779604" lon="106.909129">
<time>2016-10-06T19:06:47Z</time></trkpt>
<trkpt lat="23.779614" lon="106.90903">
<time>2016-10-06T19:06:48Z</time></trkpt>
<trkpt lat="23.779614" lon="106.90895">
<time>2016-10-06T19:06:49Z</time></trkpt>
<trkpt lat="23.779544" lon="106.90856">
<time>2016-10-06T19:06:50Z</time></trkpt>
<trkpt lat="23.779534" lon="106.90848">
<time>2016-10-06T19:06:51Z</time></trkpt>
<trkpt lat="23.779494" lon="106.9083">
<time>2016-10-06T19:06:52Z</time></trkpt>
<trkpt lat="23.779484" lon="106.908171">
<time>2016-10-06T19:06:53Z</time></trkpt>
<trkpt lat="23.779474" lon="106.908011">
<time>2016-10-06T19:06:54Z</time></trkpt>
<trkpt lat="23.779484" lon="106.907921">
<time>2016-10-06T19:06:55Z</time></trkpt>
<trkpt lat="23.779504" lon="106.907831">
<time>2016-10-06T19:06:56Z</time></trkpt>
<trkpt lat="23.779545" lon="106.907721">
<time>2016-10-06T19:06:57Z</time></trkpt>
<trkpt lat="23.779615" lon="106.907631">
<time>2016-10-06T19:06:58Z</time></trkpt>
<trkpt lat="23.779735" lon="106.907521">
<time>2016-10-06T19:06:59Z</time></trkpt>
<trkpt lat="23.779915" lon="106.907371">
<time>2016-10-06T19:07:00Z</time></trkpt>
<trkpt lat="23.780235" lon="106.907172">
<time>2016-10-06T19:07:01Z</time></trkpt>
<trkpt lat="23.780705" lon="106.906872">
<time>2016-10-06T19:07:02Z</time></trkpt>
<trkpt lat="23.781045" lon="106.906612">
<time>2016-10-06T19:07:03Z</time></trkpt>
<trkpt lat="23.781085" lon="106.906582">
<time>2016-10-06T19:07:04Z</time></trkpt>
<trkpt lat="23.781246" lon="106.906452">
<time>2016-10-06T19:07:05Z</time></trkpt>
<trkpt lat="23.781356" lon="106.906333">
<time>2016-10-06T19:07:06Z</time></trkpt>
<trkpt lat="23.781436" lon="106.906213">
<time>2016-10-06T19:07:07Z</time></trkpt>
<trkpt lat="23.781566" lon="106.905993">
<time>2016-10-06T19:07:08Z</time></trkpt>
<trkpt lat="23.781756" lon="106.905653">
<time>2016-10-06T19:07:09Z</time></trkpt>
<trkpt lat="23.781866" lon="106.905463">
<time>2016-10-06T19:07:10Z</time></trkpt>
<trkpt lat="23.781946" lon="106.905324">
<time>2016-10-06T19:07:11Z</time></trkpt>
<trkpt lat="23.782046" lon="106.905174">
<time>2016-10-06T19:07:12Z</time></trkpt>
<trkpt lat="23.782176" lon="106.904994">
<time>2016-10-06T19:07:13Z</time></trkpt>
<trkpt lat="23.782466" lon="106.904624">
<time>2016-10-06T19:07:14Z</time></trkpt>
<trkpt lat="23.782907" lon="106.904095">
<time>2016-10-06T19:07:15Z</time></trkpt>
<trkpt lat="23.783267" lon="106.903655">
<time>2016-10-06T19:07:16Z</time></trkpt>
<trkpt lat="23.783477" lon="106.903385">
<time>2016-10-06T19:07:17Z</time></trkpt>
<trkpt lat="23.783627" lon="106.903176">
<time>2016-10-06T19:07:18Z</time></trkpt>
<trkpt lat="23.783747" lon="106.902986">
<time>2016-10-06T19:07:19Z</time></trkpt>
<trkpt lat="23.783987" lon="106.902566">
<time>2016-10-06T19:07:20Z</time></trkpt>
<trkpt lat="23.784208" lon="106.902187">
<time>2016-10-06T19:07:21Z</time></trkpt>
<trkpt lat="23.784358" lon="106.901917">
<time>2016-10-06T19:07:22Z</time></trkpt>
<trkpt lat="23.784448" lon="106.901727">
<time>2016-10-06T19:07:23Z</time></trkpt>
<trkpt lat="23.784648" lon="106.901257">
<time>2016-10-06T19:07:24Z</time></trkpt>
<trkpt lat="23.784868" lon="106.900688">
<time>2016-10-06T19:07:25Z</time></trkpt>
<trkpt lat="23.785008" lon="106.900318">
<time>2016-10-06T19:07:26Z</time></trkpt>
<trkpt lat="23.785148" lon="106.899898">
<time>2016-10-06T19:07:27Z</time></trkpt>
<trkpt lat="23.785288" lon="106.899509">
<time>2016-10-06T19:07:28Z</time></trkpt>
<trkpt lat="23.785458" lon="106.899029">
<time>2016-10-06T19:07:29Z</time></trkpt>
<trkpt lat="23.785598" lon="106.898649">
<time>2016-10-06T19:07:30Z</time></trkpt>
<trkpt lat="23.785658" lon="106.898489">
<time>2016-10-06T19:07:31Z</time></trkpt>
<trkpt lat="23.785718" lon="106.89838">
<time>2016-10-06T19:07:32Z</time></trkpt>
<trkpt lat="23.785768" lon="106.89829">
<time>2016-10-06T19:07:33Z</time></trkpt>
<trkpt lat="23.785818" lon="106.89822">
<time>2016-10-06T19:07:34Z</time></trkpt>
<trkpt lat="23.785968" lon="106.89802">
<time>2016-10-06T19:07:35Z</time></trkpt>
<trkpt lat="23.786248" lon="106.89765">
<time>2016-10-06T19:07:36Z</time></trkpt>
<trkpt lat="23.786599" lon="106.8972">
<time>2016-10-06T19:07:37Z</time></trkpt>
<trkpt lat="23.787069" lon="106.896601">
<time>2016-10-06T19:07:38Z</time></trkpt>
<trkpt lat="23.787629" lon="106.895891">
<time>2016-10-06T19:07:39Z</time></trkpt>
<trkpt lat="23.787839" lon="106.895621">
<time>2016-10-06T19:07:40Z</time></trkpt>
<trkpt lat="23.787949" lon="106.895481">
<time>2016-10-06T19:07:41Z</time></trkpt>
<trkpt lat="23.788209" lon="106.895131">
<time>2016-10-06T19:07:42Z</time></trkpt>
<trkpt lat="23.788419" lon="106.894862">
<time>2016-10-06T19:07:43Z</time></trkpt>
<trkpt lat="23.788499" lon="106.894742">
<time>2016-10-06T19:07:44Z</time></trkpt>
<trkpt lat="23.788549" lon="106.894632">
<time>2016-10-06T19:07:45Z</time></trkpt>
<trkpt lat="23.788589" lon="106.894502">
<time>2016-10-06T19:07:46Z</time></trkpt>
<trkpt lat="23.788619" lon="106.894372">
<time>2016-10-06T19:07:47Z</time></trkpt>
<trkpt lat="23.788619" lon="106.894262">
<time>2016-10-06T19:07:48Z</time></trkpt>
<trkpt lat="23.788629" lon="106.894082">
<time>2016-10-06T19:07:49Z</time></trkpt>
<trkpt lat="23.788589" lon="106.893542">
<time>2016-10-06T19:07:50Z</time></trkpt>
<trkpt lat="23.788529" lon="106.892793">
<time>2016-10-06T19:07:51Z</time></trkpt>
<trkpt lat="23.788508" lon="106.892423">
<time>2016-10-06T19:07:52Z</time></trkpt>
<trkpt lat="23.788468" lon="106.891823">
<time>2016-10-06T19:07:53Z</time></trkpt>
<trkpt lat="23.788438" lon="106.891443">
<time>2016-10-06T19:07:54Z</time></trkpt>
<trkpt lat="23.788448" lon="106.891253">
<time>2016-10-06T19:07:55Z</time></trkpt>
<trkpt lat="23.788458" lon="106.891123">
<time>2016-10-06T19:07:56Z</time></trkpt>
<trkpt lat="23.788488" lon="106.891023">
<time>2016-10-06T19:07:57Z</time></trkpt>
<trkpt lat="23.788528" lon="106.890913">
<time>2016-10-06T19:07:58Z</time></trkpt>
<trkpt lat="23.788608" lon="106.890803">
<time>2016-10-06T19:07:59Z</time></trkpt>
<trkpt lat="23.788698" lon="106.890703">
<time>2016-10-06T19:08:00Z</time></trkpt>
<trkpt lat="23.788778" lon="106.890633">
<time>2016-10-06T19:08:01Z</time></trkpt>
<trkpt lat="23.789168" lon="106.890363">
<time>2016-10-06T19:08:02Z</time></trkpt>
<trkpt lat="23.789728" lon="106.889974">
<time>2016-10-06T19:08:03Z</time></trkpt>
<trkpt lat="23.789998" lon="106.889774">
<time>2016-10-06T19:08:04Z</time></trkpt>
<trkpt lat="23.790098" lon="106.889674">
<time>2016-10-06T19:08:05Z</time></trkpt>
<trkpt lat="23.790178" lon="106.889584">
<time>2016-10-06T19:08:06Z</time></trkpt>
<trkpt lat="23.790248" lon="106.889494">
<time>2016-10-06T19:08:07Z</time></trkpt>
<trkpt lat="23.790308" lon="106.889374">
<time>2016-10-06T19:08:08Z</time></trkpt>
<trkpt lat="23.790368" lon="106.889244">
<time>2016-10-06T19:08:09Z</time></trkpt>
<trkpt lat="23.790488" lon="106.888914">
<time>2016-10-06T19:08:10Z</time></trkpt>
<trkpt lat="23.790718" lon="106.888304">
<time>2016-10-06T19:08:11Z</time></trkpt>
<trkpt lat="23.790987" lon="106.887574">
<time>2016-10-06T19:08:12Z</time></trkpt>
<trkpt lat="23.790997" lon="106.887574">
<time>2016-10-06T19:08:13Z</time></trkpt>
<trkpt lat="23.791257" lon="106.886894">
<time>2016-10-06T19:08:14Z</time></trkpt>
<trkpt lat="23.791317" lon="106.886724">
<time>2016-10-06T19:08:15Z</time></trkpt>
<trkpt lat="23.791437" lon="106.886394">
<time>2016-10-06T19:08:16Z</time></trkpt>
<trkpt lat="23.791617" lon="106.885904">
<time>2016-10-06T19:08:17Z</time></trkpt>
<trkpt lat="23.791797" lon="106.885444">
<time>2016-10-06T19:08:18Z</time></trkpt>
<trkpt lat="23.791996" lon="106.884904">
<time>2016-10-06T19:08:19Z</time></trkpt>
<trkpt lat="23.792086" lon="106.884625">
<time>2016-10-06T19:08:20Z</time></trkpt>
<trkpt lat="23.792116" lon="106.884495">
<time>2016-10-06T19:08:21Z</time></trkpt>
<trkpt lat="23.792126" lon="106.884385">
<time>2016-10-06T19:08:22Z</time></trkpt>
<trkpt lat="23.792116" lon="106.884285">
<time>2016-10-06T19:08:23Z</time></trkpt>
<trkpt lat="23.792096" lon="106.884145">
<time>2016-10-06T19:08:24Z</time></trkpt>
<trkpt lat="23.792006" lon="106.883705">
<time>2016-10-06T19:08:25Z</time></trkpt>
<trkpt lat="23.791966" lon="106.883475">
<time>2016-10-06T19:08:26Z</time></trkpt>
<trkpt lat="23.791966" lon="106.883395">
<time>2016-10-06T19:08:27Z</time></trkpt>
<trkpt lat="23.791955" lon="106.883315">
<time>2016-10-06T19:08:28Z</time></trkpt>
<trkpt lat="23.791965" lon="106.883225">
<time>2016-10-06T19:08:29Z</time></trkpt>
<trkpt lat="23.791965" lon="106.883145">
<time>2016-10-06T19:08:30Z</time></trkpt>
<trkpt lat="23.791985" lon="106.883045">
<time>2016-10-06T19:08:31Z</time></trkpt>
<trkpt lat="23.792025" lon="106.882905">
<time>2016-10-06T19:08:32Z</time></trkpt>
<trkpt lat="23.792125" lon="106.882585">
<time>2016-10-06T19:08:33Z</time></trkpt>
<trkpt lat="23.792185" lon="106.882385">
<time>2016-10-06T19:08:34Z</time></trkpt>
<trkpt lat="23.792225" lon="106.882155">
<time>2016-10-06T19:08:35Z</time></trkpt>
<trkpt lat="23.792275" lon="106.881895">
<time>2016-10-06T19:08:36Z</time></trkpt>
<trkpt lat="23.792354" lon="106.881275">
<time>2016-10-06T19:08:37Z</time></trkpt>
<trkpt lat="23.792384" lon="106.881064">
<time>2016-10-06T19:08:38Z</time></trkpt>
<trkpt lat="23.792404" lon="106.880904">
<time>2016-10-06T19:08:39Z</time></trkpt>
<trkpt lat="23.792454" lon="106.880474">
<time>2016-10-06T19:08:40Z</time></trkpt>
<trkpt lat="23.792513" lon="106.880024">
<time>2016-10-06T19:08:41Z</time></trkpt>
<trkpt lat="23.792543" lon="106.879784">
<time>2016-10-06T19:08:42Z</time></trkpt>
<trkpt lat="23.792563" lon="106.879594">
<time>2016-10-06T19:08:43Z</time></trkpt>
<trkpt lat="23.792573" lon="106.879454">
<time>2016-10-06T19:08:44Z</time></trkpt>
<trkpt lat="23.792563" lon="106.879344">
<time>2016-10-06T19:08:45Z</time></trkpt>
<trkpt lat="23.792543" lon="106.879214">
<time>2016-10-06T19:08:46Z</time></trkpt>
<trkpt lat="23.792493" lon="106.878964">
<time>2016-10-06T19:08:47Z</time></trkpt>
<trkpt lat="23.792422" lon="106.878704">
<time>2016-10-06T19:08:48Z</time></trkpt>
<trkpt lat="23.792422" lon="106.878694">
<time>2016-10-06T19:08:49Z</time></trkpt>
<trkpt lat="23.792382" lon="106.878564">
<time>2016-10-06T19:08:50Z</time></trkpt>
<trkpt lat="23.792342" lon="106.878454">
<time>2016-10-06T19:08:51Z</time></trkpt>
<trkpt lat="23.792302" lon="106.878354">
<time>2016-10-06T19:08:52Z</time></trkpt>
<trkpt lat="23.792232" lon="106.878254">
<time>2016-10-06T19:08:53Z</time></trkpt>
<trkpt lat="23.792152" lon="106.878134">
<time>2016-10-06T19:08:54Z</time></trkpt>
<trkpt lat="23.791972" lon="106.877924">
<time>2016-10-06T19:08:55Z</time></trkpt>
<trkpt lat="23.791611" lon="106.877474">
<time>2016-10-06T19:08:56Z</time></trkpt>
<trkpt lat="23.791391" lon="106.877204">
<time>2016-10-06T19:08:57Z</time></trkpt>
<trkpt lat="23.79106" lon="106.876854">
<time>2016-10-06T19:08:58Z</time></trkpt>
<trkpt lat="23.79084" lon="106.876614">
<time>2016-10-06T19:08:59Z</time></trkpt>
<trkpt lat="23.790339" lon="106.876094">
<time>2016-10-06T19:09:00Z</time></trkpt>
<trkpt lat="23.789869" lon="106.875584">
<time>2016-10-06T19:09:01Z</time></trkpt>
<trkpt lat="23.789749" lon="106.875454">
<time>2016-10-06T19:09:02Z</time></trkpt>
<trkpt lat="23.789689" lon="106.875374">
<time>2016-10-06T19:09:03Z</time></trkpt>
<trkpt lat="23.789649" lon="106.875303">
<time>2016-10-06T19:09:04Z</time></trkpt>
<trkpt lat="23.789628" lon="106.875253">
<time>2016-10-06T19:09:05Z</time></trkpt>
<trkpt lat="23.789608" lon="106.875203">
<time>2016-10-06T19:09:06Z</time></trkpt>
<trkpt lat="23.789588" lon="106.875123">
<time>2016-10-06T19:09:07Z</time></trkpt>
<trkpt lat="23.789578" lon="106.875103">
<time>2016-10-06T19:09:08Z</time></trkpt>
<trkpt lat="23.789578" lon="106.875073">
<time>2016-10-06T19:09:09Z</time></trkpt>
<trkpt lat="23.789568" lon="106.875003">
<time>2016-10-06T19:09:10Z</time></trkpt>
<trkpt lat="23.789558" lon="106.874983">
<time>2016-10-06T19:09:11Z</time></trkpt>
<trkpt lat="23.789558" lon="106.874933">
<time>2016-10-06T19:09:12Z</time></trkpt>
<trkpt lat="23.789548" lon="106.874863">
<time>2016-10-06T19:09:13Z</time></trkpt>
<trkpt lat="23.789538" lon="106.874723">
<time>2016-10-06T19:09:14Z</time></trkpt>
<trkpt lat="23.789518" lon="106.874273">
<time>2016-10-06T19:09:15Z</time></trkpt>
<trkpt lat="23.789507" lon="106.873953">
<time>2016-10-06T19:09:16Z</time></trkpt>
<trkpt lat="23.789517" lon="106.873693">
<time>2016-10-06T19:09:17Z</time></trkpt>
<trkpt lat="23.789567" lon="106.873423">
<time>2016-10-06T19:09:18Z</time></trkpt>
<trkpt lat="23.789606" lon="106.873193">
<time>2016-10-06T19:09:19Z</time></trkpt>
<trkpt lat="23.789616" lon="106.873083">
<time>2016-10-06T19:09:20Z</time></trkpt>
<trkpt lat="23.789626" lon="106.872983">
<time>2016-10-06T19:09:21Z</time></trkpt>
<trkpt lat="23.789626" lon="106.872903">
<time>2016-10-06T19:09:22Z</time></trkpt>
<trkpt lat="23.789616" lon="106.872823">
<time>2016-10-06T19:09:23Z</time></trkpt>
<trkpt lat="23.789606" lon="106.872773">
<time>2016-10-06T19:09:24Z</time></trkpt>
<trkpt lat="23.789596" lon="106.872753">
<time>2016-10-06T19:09:25Z</time></trkpt>
<trkpt lat="23.789596" lon="106.872733">
<time>2016-10-06T19:09:26Z</time></trkpt>
<trkpt lat="23.789576" lon="106.872693">
<time>2016-10-06T19:09:27Z</time></trkpt>
<trkpt lat="23.789556" lon="106.872653">
<time>2016-10-06T19:09:28Z</time></trkpt>
<trkpt lat="23.789526" lon="106.872623">
<time>2016-10-06T19:09:29Z</time></trkpt>
<trkpt lat="23.789496" lon="106.872583">
<time>2016-10-06T19:09:30Z</time></trkpt>
<trkpt lat="23.789456" lon="106.872553">
<time>2016-10-06T19:09:31Z</time></trkpt>
<trkpt lat="23.789406" lon="106.872512">
<time>2016-10-06T19:09:32Z</time></trkpt>
<trkpt lat="23.789356" lon="106.872462">
<time>2016-10-06T19:09:33Z</time></trkpt>
<trkpt lat="23.789266" lon="106.872402">
<time>2016-10-06T19:09:34Z</time></trkpt>
<trkpt lat="23.788975" lon="106.872212">
<time>2016-10-06T19:09:35Z</time></trkpt>
<trkpt lat="23.788435" lon="106.871882">
<time>2016-10-06T19:09:36Z</time></trkpt>
<trkpt lat="23.788275" lon="106.871792">
<time>2016-10-06T19:09:37Z</time></trkpt>
<trkpt lat="23.788124" lon="106.871692">
<time>2016-10-06T19:09:38Z</time></trkpt>
<trkpt lat="23.787194" lon="106.871092">
<time>2016-10-06T19:09:39Z</time></trkpt>
<trkpt lat="23.787043" lon="106.870952">
<time>2016-10-06T19:09:40Z</time></trkpt>
<trkpt lat="23.786883" lon="106.870762">
<time>2016-10-06T19:09:41Z</time></trkpt>
<trkpt lat="23.786613" lon="106.870372">
<time>2016-10-06T19:09:42Z</time></trkpt>
<trkpt lat="23.786152" lon="106.869641">
<time>2016-10-06T19:09:43Z</time></trkpt>
<trkpt lat="23.78537" lon="106.868461">
<time>2016-10-06T19:09:44Z</time></trkpt>
<trkpt lat="23.784378" lon="106.86695">
<time>2016-10-06T19:09:45Z</time></trkpt>
<trkpt lat="23.783646" lon="106.865859">
<time>2016-10-06T19:09:46Z</time></trkpt>
<trkpt lat="23.783195" lon="106.865169">
<time>2016-10-06T19:09:47Z</time></trkpt>
<trkpt lat="23.783045" lon="106.864919">
<time>2016-10-06T19:09:48Z</time></trkpt>
<trkpt lat="23.782624" lon="106.864278">
<time>2016-10-06T19:09:49Z</time></trkpt>
<trkpt lat="23.782604" lon="106.864228">
<time>2016-10-06T19:09:50Z</time></trkpt>
<trkpt lat="23.782414" lon="106.863968">
<time>2016-10-06T19:09:51Z</time></trkpt>
<trkpt lat="23.782243" lon="106.863778">
<time>2016-10-06T19:09:52Z</time></trkpt>
<trkpt lat="23.782243" lon="106.863778">
<time>2016-10-06T19:09:53Z</time></trkpt>
<trkpt lat="23.782683" lon="106.863418">
<time>2016-10-06T19:09:54Z</time></trkpt>
<trkpt lat="23.782683" lon="106.863418">
<time>2016-10-06T19:09:55Z</time></trkpt>
<trkpt lat="23.782663" lon="106.863358">
<time>2016-10-06T19:09:56Z</time></trkpt>
<trkpt lat="23.782663" lon="106.863338">
<time>2016-10-06T19:09:57Z</time></trkpt>
<trkpt lat="23.782673" lon="106.863267">
<time>2016-10-06T19:09:58Z</time></trkpt>
<trkpt lat="23.782673" lon="106.863267">
<time>2016-10-06T19:09:59Z</time></trkpt>
<trkpt lat="23.782593" lon="106.863187">
<time>2016-10-06T19:10:00Z</time></trkpt>
<trkpt lat="23.782573" lon="106.863167">
<time>2016-10-06T19:10:01Z</time></trkpt>
<trkpt lat="23.782523" lon="106.863057">
<time>2016-10-06T19:10:02Z</time></trkpt>
<trkpt lat="23.782492" lon="106.862937">
<time>2016-10-06T19:10:03Z</time></trkpt>
<trkpt lat="23.782472" lon="106.862767">
<time>2016-10-06T19:10:04Z</time></trkpt>
<trkpt lat="23.782492" lon="106.862587">
<time>2016-10-06T19:10:05Z</time></trkpt>
<trkpt lat="23.782512" lon="106.862507">
<time>2016-10-06T19:10:06Z</time></trkpt>
<trkpt lat="23.782552" lon="106.862427">
<time>2016-10-06T19:10:07Z</time></trkpt>
<trkpt lat="23.782562" lon="106.862417">
<time>2016-10-06T19:10:08Z</time></trkpt>
<trkpt lat="23.782622" lon="106.862327">
<time>2016-10-06T19:10:09Z</time></trkpt>
<trkpt lat="23.782662" lon="106.862267">
<time>2016-10-06T19:10:10Z</time></trkpt>
<trkpt lat="23.782722" lon="106.862237">
<time>2016-10-06T19:10:11Z</time></trkpt>
<trkpt lat="23.782781" lon="106.862177">
<time>2016-10-06T19:10:12Z</time></trkpt>
<trkpt lat="23.782811" lon="106.862147">
<time>2016-10-06T19:10:13Z</time></trkpt>
<trkpt lat="23.782841" lon="106.862107">
<time>2016-10-06T19:10:14Z</time></trkpt>
<trkpt lat="23.782851" lon="106.862077">
<time>2016-10-06T19:10:15Z</time></trkpt>
<trkpt lat="23.782891" lon="106.862017">
<time>2016-10-06T19:10:16Z</time></trkpt>
<trkpt lat="23.782921" lon="106.861956">
<time>2016-10-06T19:10:17Z</time></trkpt>
<trkpt lat="23.783011" lon="106.861806">
<time>2016-10-06T19:10:18Z</time></trkpt>
<trkpt lat="23.783061" lon="106.861716">
<time>2016-10-06T19:10:19Z</time></trkpt>
<trkpt lat="23.783201" lon="106.861516">
<time>2016-10-06T19:10:20Z</time></trkpt>
<trkpt lat="23.783221" lon="106.861466">
<time>2016-10-06T19:10:21Z</time></trkpt>
<trkpt lat="23.783221" lon="106.861466">
<time>2016-10-06T19:10:22Z</time></trkpt>
<trkpt lat="23.783211" lon="106.861456">
<time>2016-10-06T19:10:23Z</time></trkpt>
<trkpt lat="23.783191" lon="106.861446">
<time>2016-10-06T19:10:24Z</time></trkpt>
<trkpt lat="23.783181" lon="106.861426">
<time>2016-10-06T19:10:25Z</time></trkpt>
<trkpt lat="23.782699" lon="106.860705">
<time>2016-10-06T19:10:26Z</time></trkpt>
<trkpt lat="23.781216" lon="106.858424">
<time>2016-10-06T19:10:27Z</time></trkpt>
<trkpt lat="23.776994" lon="106.851817">
<time>2016-10-06T19:10:28Z</time></trkpt>
<trkpt lat="23.773992" lon="106.850576">
<time>2016-10-06T19:10:29Z</time></trkpt>
<trkpt lat="23.773992" lon="106.850576">
<time>2016-10-06T19:10:30Z</time></trkpt>
<trkpt lat="23.774639" lon="106.848774">
<time>2016-10-06T19:10:31Z</time></trkpt>
<trkpt lat="23.775754" lon="106.845841">
<time>2016-10-06T19:10:32Z</time></trkpt>
<trkpt lat="23.776501" lon="106.844159">
<time>2016-10-06T19:10:33Z</time></trkpt>
<trkpt lat="23.77681" lon="106.843448">
<time>2016-10-06T19:10:34Z</time></trkpt>
<trkpt lat="23.77688" lon="106.843318">
<time>2016-10-06T19:10:35Z</time></trkpt>
<trkpt lat="23.778654" lon="106.839673">
<time>2016-10-06T19:10:36Z</time></trkpt>
<trkpt lat="23.779272" lon="106.838371">
<time>2016-10-06T19:10:37Z</time></trkpt>
<trkpt lat="23.77996" lon="106.83692">
<time>2016-10-06T19:10:38Z</time></trkpt>
<trkpt lat="23.781225" lon="106.834256">
<time>2016-10-06T19:10:39Z</time></trkpt>
<trkpt lat="23.781424" lon="106.833835">
<time>2016-10-06T19:10:40Z</time></trkpt>
<trkpt lat="23.782092" lon="106.832464">
<time>2016-10-06T19:10:41Z</time></trkpt>
<trkpt lat="23.782241" lon="106.832153">
<time>2016-10-06T19:10:42Z</time></trkpt>
<trkpt lat="23.782401" lon="106.831823">
<time>2016-10-06T19:10:43Z</time></trkpt>
<trkpt lat="23.78257" lon="106.831462">
<time>2016-10-06T19:10:44Z</time></trkpt>
<trkpt lat="23.783417" lon="106.82968">
<time>2016-10-06T19:10:45Z</time></trkpt>
<trkpt lat="23.783935" lon="106.828668">
<time>2016-10-06T19:10:46Z</time></trkpt>
<trkpt lat="23.78522" lon="106.825874">
<time>2016-10-06T19:10:47Z</time></trkpt>
<trkpt lat="23.78527" lon="106.825764">
<time>2016-10-06T19:10:48Z</time></trkpt>
<trkpt lat="23.786436" lon="106.823241">
<time>2016-10-06T19:10:49Z</time></trkpt>
<trkpt lat="23.787293" lon="106.821498">
<time>2016-10-06T19:10:50Z</time></trkpt>
<trkpt lat="23.787363" lon="106.821338">
<time>2016-10-06T19:10:51Z</time></trkpt>
<trkpt lat="23.787662" lon="106.820807">
<time>2016-10-06T19:10:52Z</time></trkpt>
<trkpt lat="23.787841" lon="106.820547">
<time>2016-10-06T19:10:53Z</time></trkpt>
<trkpt lat="23.787981" lon="106.820367">
<time>2016-10-06T19:10:54Z</time></trkpt>
<trkpt lat="23.788111" lon="106.820197">
<time>2016-10-06T19:10:55Z</time></trkpt>
<trkpt lat="23.788789" lon="106.819435">
<time>2016-10-06T19:10:56Z</time></trkpt>
<trkpt lat="23.789847" lon="106.818054">
<time>2016-10-06T19:10:57Z</time></trkpt>
<trkpt lat="23.790705" lon="106.816922">
<time>2016-10-06T19:10:58Z</time></trkpt>
<trkpt lat="23.791703" lon="106.81563">
<time>2016-10-06T19:10:59Z</time></trkpt>
<trkpt lat="23.79318" lon="106.813627">
<time>2016-10-06T19:11:00Z</time></trkpt>
<trkpt lat="23.793609" lon="106.813107">
<time>2016-10-06T19:11:01Z</time></trkpt>
<trkpt lat="23.793679" lon="106.813017">
<time>2016-10-06T19:11:02Z</time></trkpt>
<trkpt lat="23.793769" lon="106.812876">
<time>2016-10-06T19:11:03Z</time></trkpt>
<trkpt lat="23.793878" lon="106.812716">
<time>2016-10-06T19:11:04Z</time></trkpt>
<trkpt lat="23.793968" lon="106.812576">
<time>2016-10-06T19:11:05Z</time></trkpt>
<trkpt lat="23.794128" lon="106.812376">
<time>2016-10-06T19:11:06Z</time></trkpt>
<trkpt lat="23.794238" lon="106.812256">
<time>2016-10-06T19:11:07Z</time></trkpt>
<trkpt lat="23.794298" lon="106.812165">
<time>2016-10-06T19:11:08Z</time></trkpt>
<trkpt lat="23.794357" lon="106.812075">
<time>2016-10-06T19:11:09Z</time></trkpt>
<trkpt lat="23.794597" lon="106.811705">
<time>2016-10-06T19:11:10Z</time></trkpt>
<trkpt lat="23.794736" lon="106.811444">
<time>2016-10-06T19:11:11Z</time></trkpt>
<trkpt lat="23.794836" lon="106.811254">
<time>2016-10-06T19:11:12Z</time></trkpt>
<trkpt lat="23.794936" lon="106.811024">
<time>2016-10-06T19:11:13Z</time></trkpt>
<trkpt lat="23.794985" lon="106.810844">
<time>2016-10-06T19:11:14Z</time></trkpt>
<trkpt lat="23.795015" lon="106.810714">
<time>2016-10-06T19:11:15Z</time></trkpt>
<trkpt lat="23.795035" lon="106.810613">
<time>2016-10-06T19:11:16Z</time></trkpt>
<trkpt lat="23.795055" lon="106.810423">
<time>2016-10-06T19:11:17Z</time></trkpt>
<trkpt lat="23.795074" lon="106.810103">
<time>2016-10-06T19:11:18Z</time></trkpt>
<trkpt lat="23.795074" lon="106.810033">
<time>2016-10-06T19:11:19Z</time></trkpt>
<trkpt lat="23.795074" lon="106.809792">
<time>2016-10-06T19:11:20Z</time></trkpt>
<trkpt lat="23.795063" lon="106.809602">
<time>2016-10-06T19:11:21Z</time></trkpt>
<trkpt lat="23.795033" lon="106.809352">
<time>2016-10-06T19:11:22Z</time></trkpt>
<trkpt lat="23.794992" lon="106.809091">
<time>2016-10-06T19:11:23Z</time></trkpt>
<trkpt lat="23.79473" lon="106.80783">
<time>2016-10-06T19:11:24Z</time></trkpt>
<trkpt lat="23.794639" lon="106.807329">
<time>2016-10-06T19:11:25Z</time></trkpt>
<trkpt lat="23.794437" lon="106.806218">
<time>2016-10-06T19:11:26Z</time></trkpt>
<trkpt lat="23.794336" lon="106.805647">
<time>2016-10-06T19:11:27Z</time></trkpt>
<trkpt lat="23.794305" lon="106.805387">
<time>2016-10-06T19:11:28Z</time></trkpt>
<trkpt lat="23.794285" lon="106.805167">
<time>2016-10-06T19:11:29Z</time></trkpt>
<trkpt lat="23.794275" lon="106.804976">
<time>2016-10-06T19:11:30Z</time></trkpt>
<trkpt lat="23.794284" lon="106.804776">
<time>2016-10-06T19:11:31Z</time></trkpt>
<trkpt lat="23.794304" lon="106.804636">
<time>2016-10-06T19:11:32Z</time></trkpt>
<trkpt lat="23.794373" lon="106.804255">
<time>2016-10-06T19:11:33Z</time></trkpt>
<trkpt lat="23.794582" lon="106.803294">
<time>2016-10-06T19:11:34Z</time></trkpt>
<trkpt lat="23.79485" lon="106.802083">
<time>2016-10-06T19:11:35Z</time></trkpt>
<trkpt lat="23.795356" lon="106.79991">
<time>2016-10-06T19:11:36Z</time></trkpt>
<trkpt lat="23.795426" lon="106.79961">
<time>2016-10-06T19:11:37Z</time></trkpt>
<trkpt lat="23.795555" lon="106.799009">
<time>2016-10-06T19:11:38Z</time></trkpt>
<trkpt lat="23.795654" lon="106.798569">
<time>2016-10-06T19:11:39Z</time></trkpt>
<trkpt lat="23.796061" lon="106.796336">
<time>2016-10-06T19:11:40Z</time></trkpt>
<trkpt lat="23.796537" lon="106.793684">
<time>2016-10-06T19:11:41Z</time></trkpt>
<trkpt lat="23.796815" lon="106.792162">
<time>2016-10-06T19:11:42Z</time></trkpt>
<trkpt lat="23.797023" lon="106.791341">
<time>2016-10-06T19:11:43Z</time></trkpt>
<trkpt lat="23.797163" lon="106.790831">
<time>2016-10-06T19:11:44Z</time></trkpt>
<trkpt lat="23.797302" lon="106.79032">
<time>2016-10-06T19:11:45Z</time></trkpt>
<trkpt lat="23.79764" lon="106.789109">
<time>2016-10-06T19:11:46Z</time></trkpt>
<trkpt lat="23.79771" lon="106.788809">
<time>2016-10-06T19:11:47Z</time></trkpt>
<trkpt lat="23.79777" lon="106.788569">
<time>2016-10-06T19:11:48Z</time></trkpt>
<trkpt lat="23.797879" lon="106.788098">
<time>2016-10-06T19:11:49Z</time></trkpt>
<trkpt lat="23.797929" lon="106.787918">
<time>2016-10-06T19:11:50Z</time></trkpt>
<trkpt lat="23.797998" lon="106.787528">
<time>2016-10-06T19:11:51Z</time></trkpt>
<trkpt lat="23.798058" lon="106.787057">
<time>2016-10-06T19:11:52Z</time></trkpt>
<trkpt lat="23.798265" lon="106.785036">
<time>2016-10-06T19:11:53Z</time></trkpt>
<trkpt lat="23.798532" lon="106.782754">
<time>2016-10-06T19:11:54Z</time></trkpt>
<trkpt lat="23.798601" lon="106.781884">
<time>2016-10-06T19:11:55Z</time></trkpt>
<trkpt lat="23.79861" lon="106.781363">
<time>2016-10-06T19:11:56Z</time></trkpt>
<trkpt lat="23.79861" lon="106.780733">
<time>2016-10-06T19:11:57Z</time></trkpt>
<trkpt lat="23.798488" lon="106.779162">
<time>2016-10-06T19:11:58Z</time></trkpt>
<trkpt lat="23.798478" lon="106.779032">
<time>2016-10-06T19:11:59Z</time></trkpt>
<trkpt lat="23.798387" lon="106.778271">
<time>2016-10-06T19:12:00Z</time></trkpt>
<trkpt lat="23.798346" lon="106.777281">
<time>2016-10-06T19:12:01Z</time></trkpt>
<trkpt lat="23.798142" lon="106.773989">
<time>2016-10-06T19:12:02Z</time></trkpt>
<trkpt lat="23.797868" lon="106.769978">
<time>2016-10-06T19:12:03Z</time></trkpt>
<trkpt lat="23.797858" lon="106.769788">
<time>2016-10-06T19:12:04Z</time></trkpt>
<trkpt lat="23.797858" lon="106.769698">
<time>2016-10-06T19:12:05Z</time></trkpt>
<trkpt lat="23.797848" lon="106.769648">
<time>2016-10-06T19:12:06Z</time></trkpt>
<trkpt lat="23.797695" lon="106.765997">
<time>2016-10-06T19:12:07Z</time></trkpt>
<trkpt lat="23.797594" lon="106.763677">
<time>2016-10-06T19:12:08Z</time></trkpt>
<trkpt lat="23.797573" lon="106.762767">
<time>2016-10-06T19:12:09Z</time></trkpt>
<trkpt lat="23.797573" lon="106.762637">
<time>2016-10-06T19:12:10Z</time></trkpt>
<trkpt lat="23.797583" lon="106.762497">
<time>2016-10-06T19:12:11Z</time></trkpt>
<trkpt lat="23.797613" lon="106.762307">
<time>2016-10-06T19:12:12Z</time></trkpt>
<trkpt lat="23.797653" lon="106.762157">
<time>2016-10-06T19:12:13Z</time></trkpt>
<trkpt lat="23.797713" lon="106.761967">
<time>2016-10-06T19:12:14Z</time></trkpt>
<trkpt lat="23.797812" lon="106.761657">
<time>2016-10-06T19:12:15Z</time></trkpt>
<trkpt lat="23.798292" lon="106.760067">
<time>2016-10-06T19:12:16Z</time></trkpt>
<trkpt lat="23.799021" lon="106.757747">
<time>2016-10-06T19:12:17Z</time></trkpt>
<trkpt lat="23.79947" lon="106.756358">
<time>2016-10-06T19:12:18Z</time></trkpt>
<trkpt lat="23.7998" lon="106.755548">
<time>2016-10-06T19:12:19Z</time></trkpt>
<trkpt lat="23.80006" lon="106.754988">
<time>2016-10-06T19:12:20Z</time></trkpt>
<trkpt lat="23.80047" lon="106.754088">
<time>2016-10-06T19:12:21Z</time></trkpt>
<trkpt lat="23.80087" lon="106.753188">
<time>2016-10-06T19:12:22Z</time></trkpt>
<trkpt lat="23.80141" lon="106.751929">
<time>2016-10-06T19:12:23Z</time></trkpt>
<trkpt lat="23.80178" lon="106.751099">
<time>2016-10-06T19:12:24Z</time></trkpt>
<trkpt lat="23.80187" lon="106.750879">
<time>2016-10-06T19:12:25Z</time></trkpt>
<trkpt lat="23.80195" lon="106.750699">
<time>2016-10-06T19:12:26Z</time></trkpt>
<trkpt lat="23.80226" lon="106.75">
<time>2016-10-06T19:12:27Z</time></trkpt>
<trkpt lat="23.80263" lon="106.7492">
<time>2016-10-06T19:12:28Z</time></trkpt>
<trkpt lat="23.80279" lon="106.74885">
<time>2016-10-06T19:12:29Z</time></trkpt>
<trkpt lat="23.80287" lon="106.74869">
<time>2016-10-06T19:12:30Z</time></trkpt>
<trkpt lat="23.8031" lon="106.748241">
<time>2016-10-06T19:12:31Z</time></trkpt>
<trkpt lat="23.80356" lon="106.747401">
<time>2016-10-06T19:12:32Z</time></trkpt>
<trkpt lat="23.80371" lon="106.747131">
<time>2016-10-06T19:12:33Z</time></trkpt>
<trkpt lat="23.80513" lon="106.744693">
<time>2016-10-06T19:12:34Z</time></trkpt>
<trkpt lat="23.805791" lon="106.743444">
<time>2016-10-06T19:12:35Z</time></trkpt>
<trkpt lat="23.806251" lon="106.742515">
<time>2016-10-06T19:12:36Z</time></trkpt>
<trkpt lat="23.806311" lon="106.742365">
<time>2016-10-06T19:12:37Z</time></trkpt>
<trkpt lat="23.806361" lon="106.742245">
<time>2016-10-06T19:12:38Z</time></trkpt>
<trkpt lat="23.806411" lon="106.742065">
<time>2016-10-06T19:12:39Z</time></trkpt>
<trkpt lat="23.806471" lon="106.741845">
<time>2016-10-06T19:12:40Z</time></trkpt>
<trkpt lat="23.806531" lon="106.741515">
<time>2016-10-06T19:12:41Z</time></trkpt>
<trkpt lat="23.806571" lon="106.741206">
<time>2016-10-06T19:12:42Z</time></trkpt>
<trkpt lat="23.806571" lon="106.741186">
<time>2016-10-06T19:12:43Z</time></trkpt>
<trkpt lat="23.806601" lon="106.740836">
<time>2016-10-06T19:12:44Z</time></trkpt>
<trkpt lat="23.806692" lon="106.739287">
<time>2016-10-06T19:12:45Z</time></trkpt>
<trkpt lat="23.807065" lon="106.731226">
<time>2016-10-06T19:12:46Z</time></trkpt>
<trkpt lat="23.807157" lon="106.728829">
<time>2016-10-06T19:12:47Z</time></trkpt>
<trkpt lat="23.807197" lon="106.72812">
<time>2016-10-06T19:12:48Z</time></trkpt>
<trkpt lat="23.807248" lon="106.727711">
<time>2016-10-06T19:12:49Z</time></trkpt>
<trkpt lat="23.807258" lon="106.727671">
<time>2016-10-06T19:12:50Z</time></trkpt>
<trkpt lat="23.807308" lon="106.727401">
<time>2016-10-06T19:12:51Z</time></trkpt>
<trkpt lat="23.807368" lon="106.727162">
<time>2016-10-06T19:12:52Z</time></trkpt>
<trkpt lat="23.807418" lon="106.726962">
<time>2016-10-06T19:12:53Z</time></trkpt>
<trkpt lat="23.807479" lon="106.726722">
<time>2016-10-06T19:12:54Z</time></trkpt>
<trkpt lat="23.807569" lon="106.726473">
<time>2016-10-06T19:12:55Z</time></trkpt>
<trkpt lat="23.807709" lon="106.726183">
<time>2016-10-06T19:12:56Z</time></trkpt>
<trkpt lat="23.807869" lon="106.725913">
<time>2016-10-06T19:12:57Z</time></trkpt>
<trkpt lat="23.808781" lon="106.724446">
<time>2016-10-06T19:12:58Z</time></trkpt>
<trkpt lat="23.809432" lon="106.723447">
<time>2016-10-06T19:12:59Z</time></trkpt>
<trkpt lat="23.810914" lon="106.721191">
<time>2016-10-06T19:13:00Z</time></trkpt>
<trkpt lat="23.811255" lon="106.720651">
<time>2016-10-06T19:13:01Z</time></trkpt>
<trkpt lat="23.811676" lon="106.719993">
<time>2016-10-06T19:13:02Z</time></trkpt>
<trkpt lat="23.811806" lon="106.719813">
<time>2016-10-06T19:13:03Z</time></trkpt>
<trkpt lat="23.812106" lon="106.719414">
<time>2016-10-06T19:13:04Z</time></trkpt>
<trkpt lat="23.812627" lon="106.718864">
<time>2016-10-06T19:13:05Z</time></trkpt>
<trkpt lat="23.813738" lon="106.717806">
<time>2016-10-06T19:13:06Z</time></trkpt>
<trkpt lat="23.814419" lon="106.717157">
<time>2016-10-06T19:13:07Z</time></trkpt>
<trkpt lat="23.81475" lon="106.716848">
<time>2016-10-06T19:13:08Z</time></trkpt>
<trkpt lat="23.816903" lon="106.714841">
<time>2016-10-06T19:13:09Z</time></trkpt>
<trkpt lat="23.819126" lon="106.712705">
<time>2016-10-06T19:13:10Z</time></trkpt>
<trkpt lat="23.819617" lon="106.712106">
<time>2016-10-06T19:13:11Z</time></trkpt>
<trkpt lat="23.820098" lon="106.711488">
<time>2016-10-06T19:13:12Z</time></trkpt>
<trkpt lat="23.820519" lon="106.710869">
<time>2016-10-06T19:13:13Z</time></trkpt>
<trkpt lat="23.82093" lon="106.71017">
<time>2016-10-06T19:13:14Z</time></trkpt>
<trkpt lat="23.821812" lon="106.708623">
<time>2016-10-06T19:13:15Z</time></trkpt>
<trkpt lat="23.822123" lon="106.708074">
<time>2016-10-06T19:13:16Z</time></trkpt>
<trkpt lat="23.824429" lon="106.703913">
<time>2016-10-06T19:13:17Z</time></trkpt>
<trkpt lat="23.825071" lon="106.702796">
<time>2016-10-06T19:13:18Z</time></trkpt>
<trkpt lat="23.825131" lon="106.702696">
<time>2016-10-06T19:13:19Z</time></trkpt>
<trkpt lat="23.825733" lon="106.701638">
<time>2016-10-06T19:13:20Z</time></trkpt>
<trkpt lat="23.827559" lon="106.698445">
<time>2016-10-06T19:13:21Z</time></trkpt>
<trkpt lat="23.829686" lon="106.694604">
<time>2016-10-06T19:13:22Z</time></trkpt>
<trkpt lat="23.832154" lon="106.690095">
<time>2016-10-06T19:13:23Z</time></trkpt>
<trkpt lat="23.832776" lon="106.688988">
<time>2016-10-06T19:13:24Z</time></trkpt>
<trkpt lat="23.832776" lon="106.688988">
<time>2016-10-06T19:13:25Z</time></trkpt>
<trkpt lat="23.832916" lon="106.688908">
<time>2016-10-06T19:13:26Z</time></trkpt>
<trkpt lat="23.833328" lon="106.68818">
<time>2016-10-06T19:13:27Z</time></trkpt>
<trkpt lat="23.835174" lon="106.685058">
<time>2016-10-06T19:13:28Z</time></trkpt>
<trkpt lat="23.836227" lon="106.683452">
<time>2016-10-06T19:13:29Z</time></trkpt>
<trkpt lat="23.836789" lon="106.682684">
<time>2016-10-06T19:13:30Z</time></trkpt>
<trkpt lat="23.836829" lon="106.682624">
<time>2016-10-06T19:13:31Z</time></trkpt>
<trkpt lat="23.837541" lon="106.681627">
<time>2016-10-06T19:13:32Z</time></trkpt>
<trkpt lat="23.838193" lon="106.680739">
<time>2016-10-06T19:13:33Z</time></trkpt>
<trkpt lat="23.838694" lon="106.680041">
<time>2016-10-06T19:13:34Z</time></trkpt>
<trkpt lat="23.839286" lon="106.679343">
<time>2016-10-06T19:13:35Z</time></trkpt>
<trkpt lat="23.839837" lon="106.678704">
<time>2016-10-06T19:13:36Z</time></trkpt>
<trkpt lat="23.840579" lon="106.677946">
<time>2016-10-06T19:13:37Z</time></trkpt>
<trkpt lat="23.84084" lon="106.677697">
<time>2016-10-06T19:13:38Z</time></trkpt>
<trkpt lat="23.841581" lon="106.676989">
<time>2016-10-06T19:13:39Z</time></trkpt>
<trkpt lat="23.841621" lon="106.676949">
<time>2016-10-06T19:13:40Z</time></trkpt>
<trkpt lat="23.842543" lon="106.676111">
<time>2016-10-06T19:13:41Z</time></trkpt>
<trkpt lat="23.842583" lon="106.676081">
<time>2016-10-06T19:13:42Z</time></trkpt>
<trkpt lat="23.842623" lon="106.676031">
<time>2016-10-06T19:13:43Z</time></trkpt>
<trkpt lat="23.842693" lon="106.675971">
<time>2016-10-06T19:13:44Z</time></trkpt>
<trkpt lat="23.843305" lon="106.675443">
<time>2016-10-06T19:13:45Z</time></trkpt>
<trkpt lat="23.843455" lon="106.675343">
<time>2016-10-06T19:13:46Z</time></trkpt>
<trkpt lat="23.843575" lon="106.675243">
<time>2016-10-06T19:13:47Z</time></trkpt>
<trkpt lat="23.844156" lon="106.674824">
<time>2016-10-06T19:13:48Z</time></trkpt>
<trkpt lat="23.844487" lon="106.674585">
<time>2016-10-06T19:13:49Z</time></trkpt>
<trkpt lat="23.844667" lon="106.674465">
<time>2016-10-06T19:13:50Z</time></trkpt>
<trkpt lat="23.845318" lon="106.674036">
<time>2016-10-06T19:13:51Z</time></trkpt>
<trkpt lat="23.845368" lon="106.674006">
<time>2016-10-06T19:13:52Z</time></trkpt>
<trkpt lat="23.845488" lon="106.673937">
<time>2016-10-06T19:13:53Z</time></trkpt>
<trkpt lat="23.845889" lon="106.673697">
<time>2016-10-06T19:13:54Z</time></trkpt>
<trkpt lat="23.845969" lon="106.673647">
<time>2016-10-06T19:13:55Z</time></trkpt>
<trkpt lat="23.847291" lon="106.672949">
<time>2016-10-06T19:13:56Z</time></trkpt>
<trkpt lat="23.848302" lon="106.672411">
<time>2016-10-06T19:13:57Z</time></trkpt>
<trkpt lat="23.849003" lon="106.672031">
<time>2016-10-06T19:13:58Z</time></trkpt>
<trkpt lat="23.849604" lon="106.671712">
<time>2016-10-06T19:13:59Z</time></trkpt>
<trkpt lat="23.849834" lon="106.671593">
<time>2016-10-06T19:14:00Z</time></trkpt>
<trkpt lat="23.850015" lon="106.671493">
<time>2016-10-06T19:14:01Z</time></trkpt>
<trkpt lat="23.850345" lon="106.671283">
<time>2016-10-06T19:14:02Z</time></trkpt>
<trkpt lat="23.850706" lon="106.671024">
<time>2016-10-06T19:14:03Z</time></trkpt>
<trkpt lat="23.851056" lon="106.670755">
<time>2016-10-06T19:14:04Z</time></trkpt>
<trkpt lat="23.851818" lon="106.670146">
<time>2016-10-06T19:14:05Z</time></trkpt>
<trkpt lat="23.851918" lon="106.670067">
<time>2016-10-06T19:14:06Z</time></trkpt>
<trkpt lat="23.852239" lon="106.669817">
<time>2016-10-06T19:14:07Z</time></trkpt>
<trkpt lat="23.852459" lon="106.669648">
<time>2016-10-06T19:14:08Z</time></trkpt>
<trkpt lat="23.854392" lon="106.668162">
<time>2016-10-06T19:14:09Z</time></trkpt>
<trkpt lat="23.854463" lon="106.668112">
<time>2016-10-06T19:14:10Z</time></trkpt>
<trkpt lat="23.854693" lon="106.667922">
<time>2016-10-06T19:14:11Z</time></trkpt>
<trkpt lat="23.854843" lon="106.667793">
<time>2016-10-06T19:14:12Z</time></trkpt>
<trkpt lat="23.854873" lon="106.667763">
<time>2016-10-06T19:14:13Z</time></trkpt>
<trkpt lat="23.857188" lon="106.665917">
<time>2016-10-06T19:14:14Z</time></trkpt>
<trkpt lat="23.857258" lon="106.665798">
<time>2016-10-06T19:14:15Z</time></trkpt>
<trkpt lat="23.857258" lon="106.665798">
<time>2016-10-06T19:14:16Z</time></trkpt>
<trkpt lat="23.857629" lon="106.665509">
<time>2016-10-06T19:14:17Z</time></trkpt>
<trkpt lat="23.857839" lon="106.665329">
<time>2016-10-06T19:14:18Z</time></trkpt>
<trkpt lat="23.85815" lon="106.66509">
<time>2016-10-06T19:14:19Z</time></trkpt>
<trkpt lat="23.85822" lon="106.66503">
<time>2016-10-06T19:14:20Z</time></trkpt>
<trkpt lat="23.85857" lon="106.66475">
<time>2016-10-06T19:14:21Z</time></trkpt>
<trkpt lat="23.858761" lon="106.664601">
<time>2016-10-06T19:14:22Z</time></trkpt>
<trkpt lat="23.858991" lon="106.664421">
<time>2016-10-06T19:14:23Z</time></trkpt>
<trkpt lat="23.859182" lon="106.664272">
<time>2016-10-06T19:14:24Z</time></trkpt>
<trkpt lat="23.859182" lon="106.664272">
<time>2016-10-06T19:14:25Z</time></trkpt>
<trkpt lat="23.859312" lon="106.664242">
<time>2016-10-06T19:14:26Z</time></trkpt>
<trkpt lat="23.859552" lon="106.664062">
<time>2016-10-06T19:14:27Z</time></trkpt>
<trkpt lat="23.860193" lon="106.663554">
<time>2016-10-06T19:14:28Z</time></trkpt>
<trkpt lat="23.860304" lon="106.663474">
<time>2016-10-06T19:14:29Z</time></trkpt>
<trkpt lat="23.860394" lon="106.663394">
<time>2016-10-06T19:14:30Z</time></trkpt>
<trkpt lat="23.861015" lon="106.662905">
<time>2016-10-06T19:14:31Z</time></trkpt>
<trkpt lat="23.861235" lon="106.662736">
<time>2016-10-06T19:14:32Z</time></trkpt>
<trkpt lat="23.862147" lon="106.662028">
<time>2016-10-06T19:14:33Z</time></trkpt>
<trkpt lat="23.862227" lon="106.661958">
<time>2016-10-06T19:14:34Z</time></trkpt>
<trkpt lat="23.863179" lon="106.66121">
<time>2016-10-06T19:14:35Z</time></trkpt>
<trkpt lat="23.863199" lon="106.66119">
<time>2016-10-06T19:14:36Z</time></trkpt>
<trkpt lat="23.863249" lon="106.66115">
<time>2016-10-06T19:14:37Z</time></trkpt>
<trkpt lat="23.863299" lon="106.66111">
<time>2016-10-06T19:14:38Z</time></trkpt>
<trkpt lat="23.864531" lon="106.660122">
<time>2016-10-06T19:14:39Z</time></trkpt>
<trkpt lat="23.864642" lon="106.660033">
<time>2016-10-06T19:14:40Z</time></trkpt>
<trkpt lat="23.864822" lon="106.659893">
<time>2016-10-06T19:14:41Z</time></trkpt>
<trkpt lat="23.865453" lon="106.659384">
<time>2016-10-06T19:14:42Z</time></trkpt>
<trkpt lat="23.866185" lon="106.658806">
<time>2016-10-06T19:14:43Z</time></trkpt>
<trkpt lat="23.866205" lon="106.658796">
<time>2016-10-06T19:14:44Z</time></trkpt>
<trkpt lat="23.867006" lon="106.658158">
<time>2016-10-06T19:14:45Z</time></trkpt>
<trkpt lat="23.868048" lon="106.65736">
<time>2016-10-06T19:14:46Z</time></trkpt>
<trkpt lat="23.868338" lon="106.65714">
<time>2016-10-06T19:14:47Z</time></trkpt>
<trkpt lat="23.868489" lon="106.65702">
<time>2016-10-06T19:14:48Z</time></trkpt>
<trkpt lat="23.868709" lon="106.656891">
<time>2016-10-06T19:14:49Z</time></trkpt>
<trkpt lat="23.868959" lon="106.656761">
<time>2016-10-06T19:14:50Z</time></trkpt>
<trkpt lat="23.86906" lon="106.656611">
<time>2016-10-06T19:14:51Z</time></trkpt>
<trkpt lat="23.86906" lon="106.656611">
<time>2016-10-06T19:14:52Z</time></trkpt>
<trkpt lat="23.86947" lon="106.656362">
<time>2016-10-06T19:14:53Z</time></trkpt>
<trkpt lat="23.870552" lon="106.655744">
<time>2016-10-06T19:14:54Z</time></trkpt>
<trkpt lat="23.871854" lon="106.655006">
<time>2016-10-06T19:14:55Z</time></trkpt>
<trkpt lat="23.872124" lon="106.654856">
<time>2016-10-06T19:14:56Z</time></trkpt>
<trkpt lat="23.872334" lon="106.654736">
<time>2016-10-06T19:14:57Z</time></trkpt>
<trkpt lat="23.873125" lon="106.654287">
<time>2016-10-06T19:14:58Z</time></trkpt>
<trkpt lat="23.873506" lon="106.654078">
<time>2016-10-06T19:14:59Z</time></trkpt>
<trkpt lat="23.874037" lon="106.653759">
<time>2016-10-06T19:15:00Z</time></trkpt>
<trkpt lat="23.875028" lon="106.65317">
<time>2016-10-06T19:15:01Z</time></trkpt>
<trkpt lat="23.875779" lon="106.652721">
<time>2016-10-06T19:15:02Z</time></trkpt>
<trkpt lat="23.87625" lon="106.652452">
<time>2016-10-06T19:15:03Z</time></trkpt>
<trkpt lat="23.876981" lon="106.651993">
<time>2016-10-06T19:15:04Z</time></trkpt>
<trkpt lat="23.877732" lon="106.651514">
<time>2016-10-06T19:15:05Z</time></trkpt>
<trkpt lat="23.878223" lon="106.651235">
<time>2016-10-06T19:15:06Z</time></trkpt>
<trkpt lat="23.878743" lon="106.651015">
<time>2016-10-06T19:15:07Z</time></trkpt>
<trkpt lat="23.879034" lon="106.650946">
<time>2016-10-06T19:15:08Z</time></trkpt>
<trkpt lat="23.879314" lon="106.650866">
<time>2016-10-06T19:15:09Z</time></trkpt>
<trkpt lat="23.879864" lon="106.650786">
<time>2016-10-06T19:15:10Z</time></trkpt>
<trkpt lat="23.880895" lon="106.650616">
<time>2016-10-06T19:15:11Z</time></trkpt>
<trkpt lat="23.881425" lon="106.650536">
<time>2016-10-06T19:15:12Z</time></trkpt>
<trkpt lat="23.881816" lon="106.650437">
<time>2016-10-06T19:15:13Z</time></trkpt>
<trkpt lat="23.881906" lon="106.650417">
<time>2016-10-06T19:15:14Z</time></trkpt>
<trkpt lat="23.882396" lon="106.650307">
<time>2016-10-06T19:15:15Z</time></trkpt>
<trkpt lat="23.882436" lon="106.650297">
<time>2016-10-06T19:15:16Z</time></trkpt>
<trkpt lat="23.882917" lon="106.650117">
<time>2016-10-06T19:15:17Z</time></trkpt>
<trkpt lat="23.882987" lon="106.650088">
<time>2016-10-06T19:15:18Z</time></trkpt>
<trkpt lat="23.883527" lon="106.649838">
<time>2016-10-06T19:15:19Z</time></trkpt>
<trkpt lat="23.883888" lon="106.649639">
<time>2016-10-06T19:15:20Z</time></trkpt>
<trkpt lat="23.884118" lon="106.649509">
<time>2016-10-06T19:15:21Z</time></trkpt>
<trkpt lat="23.884649" lon="106.64917">
<time>2016-10-06T19:15:22Z</time></trkpt>
<trkpt lat="23.885991" lon="106.648182">
<time>2016-10-06T19:15:23Z</time></trkpt>
<trkpt lat="23.887243" lon="106.647254">
<time>2016-10-06T19:15:24Z</time></trkpt>
<trkpt lat="23.888175" lon="106.646576">
<time>2016-10-06T19:15:25Z</time></trkpt>
<trkpt lat="23.888616" lon="106.646247">
<time>2016-10-06T19:15:26Z</time></trkpt>
<trkpt lat="23.890499" lon="106.64485">
<time>2016-10-06T19:15:27Z</time></trkpt>
<trkpt lat="23.892462" lon="106.643394">
<time>2016-10-06T19:15:28Z</time></trkpt>
<trkpt lat="23.892812" lon="106.643134">
<time>2016-10-06T19:15:29Z</time></trkpt>
<trkpt lat="23.894485" lon="106.641897">
<time>2016-10-06T19:15:30Z</time></trkpt>
<trkpt lat="23.894836" lon="106.641638">
<time>2016-10-06T19:15:31Z</time></trkpt>
<trkpt lat="23.895547" lon="106.641119">
<time>2016-10-06T19:15:32Z</time></trkpt>
<trkpt lat="23.895587" lon="106.641079">
<time>2016-10-06T19:15:33Z</time></trkpt>
<trkpt lat="23.895907" lon="106.640849">
<time>2016-10-06T19:15:34Z</time></trkpt>
<trkpt lat="23.895978" lon="106.640799">
<time>2016-10-06T19:15:35Z</time></trkpt>
<trkpt lat="23.896939" lon="106.640081">
<time>2016-10-06T19:15:36Z</time></trkpt>
<trkpt lat="23.89753" lon="106.639652">
<time>2016-10-06T19:15:37Z</time></trkpt>
<trkpt lat="23.898071" lon="106.639253">
<time>2016-10-06T19:15:38Z</time></trkpt>
<trkpt lat="23.899112" lon="106.638495">
<time>2016-10-06T19:15:39Z</time></trkpt>
<trkpt lat="23.899112" lon="106.638495">
<time>2016-10-06T19:15:40Z</time></trkpt>
<trkpt lat="23.899172" lon="106.638505">
<time>2016-10-06T19:15:41Z</time></trkpt>
<trkpt lat="23.899412" lon="106.638534">
<time>2016-10-06T19:15:42Z</time></trkpt>
<trkpt lat="23.899592" lon="106.638564">
<time>2016-10-06T19:15:43Z</time></trkpt>
<trkpt lat="23.899812" lon="106.638594">
<time>2016-10-06T19:15:44Z</time></trkpt>
<trkpt lat="23.900643" lon="106.638694">
<time>2016-10-06T19:15:45Z</time></trkpt>
<trkpt lat="23.900963" lon="106.638744">
<time>2016-10-06T19:15:46Z</time></trkpt>
<trkpt lat="23.901313" lon="106.638804">
<time>2016-10-06T19:15:47Z</time></trkpt>
<trkpt lat="23.901393" lon="106.638814">
<time>2016-10-06T19:15:48Z</time></trkpt>
<trkpt lat="23.901693" lon="106.638864">
<time>2016-10-06T19:15:49Z</time></trkpt>
<trkpt lat="23.902303" lon="106.638963">
<time>2016-10-06T19:15:50Z</time></trkpt>
<trkpt lat="23.902963" lon="106.639103">
<time>2016-10-06T19:15:51Z</time></trkpt>
<trkpt lat="23.903343" lon="106.639213">
<time>2016-10-06T19:15:52Z</time></trkpt>
<trkpt lat="23.903673" lon="106.639332">
<time>2016-10-06T19:15:53Z</time></trkpt>
<trkpt lat="23.905042" lon="106.639921">
<time>2016-10-06T19:15:54Z</time></trkpt>
<trkpt lat="23.905712" lon="106.64022">
<time>2016-10-06T19:15:55Z</time></trkpt>
<trkpt lat="23.906012" lon="106.64033">
<time>2016-10-06T19:15:56Z</time></trkpt>
<trkpt lat="23.906292" lon="106.64041">
<time>2016-10-06T19:15:57Z</time></trkpt>
<trkpt lat="23.906462" lon="106.64044">
<time>2016-10-06T19:15:58Z</time></trkpt>
<trkpt lat="23.906662" lon="106.64046">
<time>2016-10-06T19:15:59Z</time></trkpt>
<trkpt lat="23.906772" lon="106.64047">
<time>2016-10-06T19:16:00Z</time></trkpt>
<trkpt lat="23.906972" lon="106.64046">
<time>2016-10-06T19:16:01Z</time></trkpt>
<trkpt lat="23.907222" lon="106.64044">
<time>2016-10-06T19:16:02Z</time></trkpt>
<trkpt lat="23.907673" lon="106.64039">
<time>2016-10-06T19:16:03Z</time></trkpt>
<trkpt lat="23.908263" lon="106.64031">
<time>2016-10-06T19:16:04Z</time></trkpt>
<trkpt lat="23.908543" lon="106.64027">
<time>2016-10-06T19:16:05Z</time></trkpt>
<trkpt lat="23.908793" lon="106.64025">
<time>2016-10-06T19:16:06Z</time></trkpt>
<trkpt lat="23.909003" lon="106.64025">
<time>2016-10-06T19:16:07Z</time></trkpt>
<trkpt lat="23.909224" lon="106.64026">
<time>2016-10-06T19:16:08Z</time></trkpt>
<trkpt lat="23.909404" lon="106.64028">
<time>2016-10-06T19:16:09Z</time></trkpt>
<trkpt lat="23.909584" lon="106.64031">
<time>2016-10-06T19:16:10Z</time></trkpt>
<trkpt lat="23.910074" lon="106.64037">
<time>2016-10-06T19:16:11Z</time></trkpt>
<trkpt lat="23.910634" lon="106.64042">
<time>2016-10-06T19:16:12Z</time></trkpt>
<trkpt lat="23.911094" lon="106.64043">
<time>2016-10-06T19:16:13Z</time></trkpt>
<trkpt lat="23.911484" lon="106.64043">
<time>2016-10-06T19:16:14Z</time></trkpt>
<trkpt lat="23.911884" lon="106.6404">
<time>2016-10-06T19:16:15Z</time></trkpt>
<trkpt lat="23.912134" lon="106.64038">
<time>2016-10-06T19:16:16Z</time></trkpt>
<trkpt lat="23.912655" lon="106.6403">
<time>2016-10-06T19:16:17Z</time></trkpt>
<trkpt lat="23.913115" lon="106.6402">
<time>2016-10-06T19:16:18Z</time></trkpt>
<trkpt lat="23.913115" lon="106.6402">
<time>2016-10-06T19:16:19Z</time></trkpt>
<trkpt lat="23.913145" lon="106.64021">
<time>2016-10-06T19:16:20Z</time></trkpt>
<trkpt lat="23.914446" lon="106.639901">
<time>2016-10-06T19:16:21Z</time></trkpt>
<trkpt lat="23.914606" lon="106.639861">
<time>2016-10-06T19:16:22Z</time></trkpt>
<trkpt lat="23.914806" lon="106.639821">
<time>2016-10-06T19:16:23Z</time></trkpt>
<trkpt lat="23.915717" lon="106.639611">
<time>2016-10-06T19:16:24Z</time></trkpt>
<trkpt lat="23.915737" lon="106.639591">
<time>2016-10-06T19:16:25Z</time></trkpt>
<trkpt lat="23.916197" lon="106.639511">
<time>2016-10-06T19:16:26Z</time></trkpt>
<trkpt lat="23.916368" lon="106.639492">
<time>2016-10-06T19:16:27Z</time></trkpt>
<trkpt lat="23.916528" lon="106.639472">
<time>2016-10-06T19:16:28Z</time></trkpt>
<trkpt lat="23.916668" lon="106.639462">
<time>2016-10-06T19:16:29Z</time></trkpt>
<trkpt lat="23.916738" lon="106.639452">
<time>2016-10-06T19:16:30Z</time></trkpt>
<trkpt lat="23.916848" lon="106.639452">
<time>2016-10-06T19:16:31Z</time></trkpt>
<trkpt lat="23.916938" lon="106.639462">
<time>2016-10-06T19:16:32Z</time></trkpt>
<trkpt lat="23.917038" lon="106.639472">
<time>2016-10-06T19:16:33Z</time></trkpt>
<trkpt lat="23.917138" lon="106.639481">
<time>2016-10-06T19:16:34Z</time></trkpt>
<trkpt lat="23.917218" lon="106.639501">
<time>2016-10-06T19:16:35Z</time></trkpt>
<trkpt lat="23.917338" lon="106.639521">
<time>2016-10-06T19:16:36Z</time></trkpt>
<trkpt lat="23.917608" lon="106.639591">
<time>2016-10-06T19:16:37Z</time></trkpt>
<trkpt lat="23.917868" lon="106.639671">
<time>2016-10-06T19:16:38Z</time></trkpt>
<trkpt lat="23.918108" lon="106.639731">
<time>2016-10-06T19:16:39Z</time></trkpt>
<trkpt lat="23.918328" lon="106.639791">
<time>2016-10-06T19:16:40Z</time></trkpt>
<trkpt lat="23.918508" lon="106.639821">
<time>2016-10-06T19:16:41Z</time></trkpt>
<trkpt lat="23.918718" lon="106.639861">
<time>2016-10-06T19:16:42Z</time></trkpt>
<trkpt lat="23.918928" lon="106.63988">
<time>2016-10-06T19:16:43Z</time></trkpt>
<trkpt lat="23.919188" lon="106.6399">
<time>2016-10-06T19:16:44Z</time></trkpt>
<trkpt lat="23.919488" lon="106.6399">
<time>2016-10-06T19:16:45Z</time></trkpt>
<trkpt lat="23.919698" lon="106.63988">
<time>2016-10-06T19:16:46Z</time></trkpt>
<trkpt lat="23.919948" lon="106.639831">
<time>2016-10-06T19:16:47Z</time></trkpt>
<trkpt lat="23.920209" lon="106.639791">
<time>2016-10-06T19:16:48Z</time></trkpt>
<trkpt lat="23.92167" lon="106.639451">
<time>2016-10-06T19:16:49Z</time></trkpt>
<trkpt lat="23.92188" lon="106.639421">
<time>2016-10-06T19:16:50Z</time></trkpt>
<trkpt lat="23.92206" lon="106.639381">
<time>2016-10-06T19:16:51Z</time></trkpt>
<trkpt lat="23.92234" lon="106.639342">
<time>2016-10-06T19:16:52Z</time></trkpt>
<trkpt lat="23.92262" lon="106.639332">
<time>2016-10-06T19:16:53Z</time></trkpt>
<trkpt lat="23.92282" lon="106.639322">
<time>2016-10-06T19:16:54Z</time></trkpt>
<trkpt lat="23.92302" lon="106.639322">
<time>2016-10-06T19:16:55Z</time></trkpt>
<trkpt lat="23.92323" lon="106.639342">
<time>2016-10-06T19:16:56Z</time></trkpt>
<trkpt lat="23.923481" lon="106.639361">
<time>2016-10-06T19:16:57Z</time></trkpt>
<trkpt lat="23.923681" lon="106.639401">
<time>2016-10-06T19:16:58Z</time></trkpt>
<trkpt lat="23.923831" lon="106.639421">
<time>2016-10-06T19:16:59Z</time></trkpt>
<trkpt lat="23.923881" lon="106.639441">
<time>2016-10-06T19:17:00Z</time></trkpt>
<trkpt lat="23.924041" lon="106.639471">
<time>2016-10-06T19:17:01Z</time></trkpt>
<trkpt lat="23.924181" lon="106.639511">
<time>2016-10-06T19:17:02Z</time></trkpt>
<trkpt lat="23.92552" lon="106.63992">
<time>2016-10-06T19:17:03Z</time></trkpt>
<trkpt lat="23.92952" lon="106.641137">
<time>2016-10-06T19:17:04Z</time></trkpt>
<trkpt lat="23.9296" lon="106.641157">
<time>2016-10-06T19:17:05Z</time></trkpt>
<trkpt lat="23.92969" lon="106.641187">
<time>2016-10-06T19:17:06Z</time></trkpt>
<trkpt lat="23.92989" lon="106.641227">
<time>2016-10-06T19:17:07Z</time></trkpt>
<trkpt lat="23.93006" lon="106.641267">
<time>2016-10-06T19:17:08Z</time></trkpt>
<trkpt lat="23.93026" lon="106.641287">
<time>2016-10-06T19:17:09Z</time></trkpt>
<trkpt lat="23.93047" lon="106.641307">
<time>2016-10-06T19:17:10Z</time></trkpt>
<trkpt lat="23.9307" lon="106.641317">
<time>2016-10-06T19:17:11Z</time></trkpt>
<trkpt lat="23.93086" lon="106.641307">
<time>2016-10-06T19:17:12Z</time></trkpt>
<trkpt lat="23.931111" lon="106.641287">
<time>2016-10-06T19:17:13Z</time></trkpt>
<trkpt lat="23.931301" lon="106.641247">
<time>2016-10-06T19:17:14Z</time></trkpt>
<trkpt lat="23.931501" lon="106.641187">
<time>2016-10-06T19:17:15Z</time></trkpt>
<trkpt lat="23.931631" lon="106.641147">
<time>2016-10-06T19:17:16Z</time></trkpt>
<trkpt lat="23.931781" lon="106.641097">
<time>2016-10-06T19:17:17Z</time></trkpt>
<trkpt lat="23.931921" lon="106.641027">
<time>2016-10-06T19:17:18Z</time></trkpt>
<trkpt lat="23.932051" lon="106.640957">
<time>2016-10-06T19:17:19Z</time></trkpt>
<trkpt lat="23.932202" lon="106.640868">
<time>2016-10-06T19:17:20Z</time></trkpt>
<trkpt lat="23.932332" lon="106.640788">
<time>2016-10-06T19:17:21Z</time></trkpt>
<trkpt lat="23.932452" lon="106.640698">
<time>2016-10-06T19:17:22Z</time></trkpt>
<trkpt lat="23.932622" lon="106.640568">
<time>2016-10-06T19:17:23Z</time></trkpt>
<trkpt lat="23.932763" lon="106.640429">
<time>2016-10-06T19:17:24Z</time></trkpt>
<trkpt lat="23.932853" lon="106.640329">
<time>2016-10-06T19:17:25Z</time></trkpt>
<trkpt lat="23.933053" lon="106.640089">
<time>2016-10-06T19:17:26Z</time></trkpt>
<trkpt lat="23.933364" lon="106.63963">
<time>2016-10-06T19:17:27Z</time></trkpt>
<trkpt lat="23.933555" lon="106.639281">
<time>2016-10-06T19:17:28Z</time></trkpt>
<trkpt lat="23.934006" lon="106.638303">
<time>2016-10-06T19:17:29Z</time></trkpt>
<trkpt lat="23.934267" lon="106.637715">
<time>2016-10-06T19:17:30Z</time></trkpt>
<trkpt lat="23.934438" lon="106.637355">
<time>2016-10-06T19:17:31Z</time></trkpt>
<trkpt lat="23.934599" lon="106.637016">
<time>2016-10-06T19:17:32Z</time></trkpt>
<trkpt lat="23.934779" lon="106.636657">
<time>2016-10-06T19:17:33Z</time></trkpt>
<trkpt lat="23.93491" lon="106.636428">
<time>2016-10-06T19:17:34Z</time></trkpt>
<trkpt lat="23.93502" lon="106.636218">
<time>2016-10-06T19:17:35Z</time></trkpt>
<trkpt lat="23.93514" lon="106.635998">
<time>2016-10-06T19:17:36Z</time></trkpt>
<trkpt lat="23.935261" lon="106.635849">
<time>2016-10-06T19:17:37Z</time></trkpt>
<trkpt lat="23.935391" lon="106.635669">
<time>2016-10-06T19:17:38Z</time></trkpt>
<trkpt lat="23.935531" lon="106.635519">
<time>2016-10-06T19:17:39Z</time></trkpt>
<trkpt lat="23.935732" lon="106.63532">
<time>2016-10-06T19:17:40Z</time></trkpt>
<trkpt lat="23.935962" lon="106.63511">
<time>2016-10-06T19:17:41Z</time></trkpt>
<trkpt lat="23.936192" lon="106.634931">
<time>2016-10-06T19:17:42Z</time></trkpt>
<trkpt lat="23.936433" lon="106.634771">
<time>2016-10-06T19:17:43Z</time></trkpt>
<trkpt lat="23.936683" lon="106.634631">
<time>2016-10-06T19:17:44Z</time></trkpt>
<trkpt lat="23.936983" lon="106.634492">
<time>2016-10-06T19:17:45Z</time></trkpt>
<trkpt lat="23.937324" lon="106.634372">
<time>2016-10-06T19:17:46Z</time></trkpt>
<trkpt lat="23.937634" lon="106.634292">
<time>2016-10-06T19:17:47Z</time></trkpt>
<trkpt lat="23.937904" lon="106.634232">
<time>2016-10-06T19:17:48Z</time></trkpt>
<trkpt lat="23.938214" lon="106.634202">
<time>2016-10-06T19:17:49Z</time></trkpt>
<trkpt lat="23.938564" lon="106.634192">
<time>2016-10-06T19:17:50Z</time></trkpt>
<trkpt lat="23.938965" lon="106.634232">
<time>2016-10-06T19:17:51Z</time></trkpt>
<trkpt lat="23.939345" lon="106.634302">
<time>2016-10-06T19:17:52Z</time></trkpt>
<trkpt lat="23.939735" lon="106.634412">
<time>2016-10-06T19:17:53Z</time></trkpt>
<trkpt lat="23.940155" lon="106.634541">
<time>2016-10-06T19:17:54Z</time></trkpt>
<trkpt lat="23.941324" lon="106.63498">
<time>2016-10-06T19:17:55Z</time></trkpt>
<trkpt lat="23.941624" lon="106.63508">
<time>2016-10-06T19:17:56Z</time></trkpt>
<trkpt lat="23.941904" lon="106.63517">
<time>2016-10-06T19:17:57Z</time></trkpt>
<trkpt lat="23.942154" lon="106.63523">
<time>2016-10-06T19:17:58Z</time></trkpt>
<trkpt lat="23.942364" lon="106.63526">
<time>2016-10-06T19:17:59Z</time></trkpt>
<trkpt lat="23.942565" lon="106.63528">
<time>2016-10-06T19:18:00Z</time></trkpt>
<trkpt lat="23.942715" lon="106.63528">
<time>2016-10-06T19:18:01Z</time></trkpt>
<trkpt lat="23.942935" lon="106.63527">
<time>2016-10-06T19:18:02Z</time></trkpt>
<trkpt lat="23.943055" lon="106.63526">
<time>2016-10-06T19:18:03Z</time></trkpt>
<trkpt lat="23.943265" lon="106.63522">
<time>2016-10-06T19:18:04Z</time></trkpt>
<trkpt lat="23.943515" lon="106.63516">
<time>2016-10-06T19:18:05Z</time></trkpt>
<trkpt lat="23.943725" lon="106.63508">
<time>2016-10-06T19:18:06Z</time></trkpt>
<trkpt lat="23.943885" lon="106.63502">
<time>2016-10-06T19:18:07Z</time></trkpt>
<trkpt lat="23.944016" lon="106.63495">
<time>2016-10-06T19:18:08Z</time></trkpt>
<trkpt lat="23.944116" lon="106.6349">
<time>2016-10-06T19:18:09Z</time></trkpt>
<trkpt lat="23.944216" lon="106.634851">
<time>2016-10-06T19:18:10Z</time></trkpt>
<trkpt lat="23.944326" lon="106.634781">
<time>2016-10-06T19:18:11Z</time></trkpt>
<trkpt lat="23.944436" lon="106.634711">
<time>2016-10-06T19:18:12Z</time></trkpt>
<trkpt lat="23.944526" lon="106.634631">
<time>2016-10-06T19:18:13Z</time></trkpt>
<trkpt lat="23.944636" lon="106.634541">
<time>2016-10-06T19:18:14Z</time></trkpt>
<trkpt lat="23.944747" lon="106.634451">
<time>2016-10-06T19:18:15Z</time></trkpt>
<trkpt lat="23.944837" lon="106.634352">
<time>2016-10-06T19:18:16Z</time></trkpt>
<trkpt lat="23.944947" lon="106.634232">
<time>2016-10-06T19:18:17Z</time></trkpt>
<trkpt lat="23.945057" lon="106.634102">
<time>2016-10-06T19:18:18Z</time></trkpt>
<trkpt lat="23.945117" lon="106.634022">
<time>2016-10-06T19:18:19Z</time></trkpt>
<trkpt lat="23.945137" lon="106.633992">
<time>2016-10-06T19:18:20Z</time></trkpt>
<trkpt lat="23.945208" lon="106.633903">
<time>2016-10-06T19:18:21Z</time></trkpt>
<trkpt lat="23.945238" lon="106.633853">
<time>2016-10-06T19:18:22Z</time></trkpt>
<trkpt lat="23.945328" lon="106.633733">
<time>2016-10-06T19:18:23Z</time></trkpt>
<trkpt lat="23.945418" lon="106.633603">
<time>2016-10-06T19:18:24Z</time></trkpt>
<trkpt lat="23.947052" lon="106.631168">
<time>2016-10-06T19:18:25Z</time></trkpt>
<trkpt lat="23.947263" lon="106.630899">
<time>2016-10-06T19:18:26Z</time></trkpt>
<trkpt lat="23.947403" lon="106.630709">
<time>2016-10-06T19:18:27Z</time></trkpt>
<trkpt lat="23.947694" lon="106.63038">
<time>2016-10-06T19:18:28Z</time></trkpt>
<trkpt lat="23.947914" lon="106.63015">
<time>2016-10-06T19:18:29Z</time></trkpt>
<trkpt lat="23.948174" lon="106.629911">
<time>2016-10-06T19:18:30Z</time></trkpt>
<trkpt lat="23.948174" lon="106.629911">
<time>2016-10-06T19:18:31Z</time></trkpt>
<trkpt lat="23.948275" lon="106.629821">
<time>2016-10-06T19:18:32Z</time></trkpt>
<trkpt lat="23.948635" lon="106.629492">
<time>2016-10-06T19:18:33Z</time></trkpt>
<trkpt lat="23.949016" lon="106.629172">
<time>2016-10-06T19:18:34Z</time></trkpt>
<trkpt lat="23.949356" lon="106.628953">
<time>2016-10-06T19:18:35Z</time></trkpt>
<trkpt lat="23.949807" lon="106.628673">
<time>2016-10-06T19:18:36Z</time></trkpt>
<trkpt lat="23.950277" lon="106.628434">
<time>2016-10-06T19:18:37Z</time></trkpt>
<trkpt lat="23.950277" lon="106.628424">
<time>2016-10-06T19:18:38Z</time></trkpt>
<trkpt lat="23.950357" lon="106.628384">
<time>2016-10-06T19:18:39Z</time></trkpt>
<trkpt lat="23.950768" lon="106.628204">
<time>2016-10-06T19:18:40Z</time></trkpt>
<trkpt lat="23.951258" lon="106.628024">
<time>2016-10-06T19:18:41Z</time></trkpt>
<trkpt lat="23.951759" lon="106.627875">
<time>2016-10-06T19:18:42Z</time></trkpt>
<trkpt lat="23.951769" lon="106.627865">
<time>2016-10-06T19:18:43Z</time></trkpt>
<trkpt lat="23.952129" lon="106.627785">
<time>2016-10-06T19:18:44Z</time></trkpt>
<trkpt lat="23.952569" lon="106.627685">
<time>2016-10-06T19:18:45Z</time></trkpt>
<trkpt lat="23.952629" lon="106.627675">
<time>2016-10-06T19:18:46Z</time></trkpt>
<trkpt lat="23.953069" lon="106.627615">
<time>2016-10-06T19:18:47Z</time></trkpt>
<trkpt lat="23.95325" lon="106.627585">
<time>2016-10-06T19:18:48Z</time></trkpt>
<trkpt lat="23.95491" lon="106.627475">
<time>2016-10-06T19:18:49Z</time></trkpt>
<trkpt lat="23.955391" lon="106.627445">
<time>2016-10-06T19:18:50Z</time></trkpt>
<trkpt lat="23.955721" lon="106.627405">
<time>2016-10-06T19:18:51Z</time></trkpt>
<trkpt lat="23.956051" lon="106.627345">
<time>2016-10-06T19:18:52Z</time></trkpt>
<trkpt lat="23.956311" lon="106.627286">
<time>2016-10-06T19:18:53Z</time></trkpt>
<trkpt lat="23.956601" lon="106.627176">
<time>2016-10-06T19:18:54Z</time></trkpt>
<trkpt lat="23.956972" lon="106.627036">
<time>2016-10-06T19:18:55Z</time></trkpt>
<trkpt lat="23.957322" lon="106.626856">
<time>2016-10-06T19:18:56Z</time></trkpt>
<trkpt lat="23.957672" lon="106.626657">
<time>2016-10-06T19:18:57Z</time></trkpt>
<trkpt lat="23.957973" lon="106.626447">
<time>2016-10-06T19:18:58Z</time></trkpt>
<trkpt lat="23.958293" lon="106.626188">
<time>2016-10-06T19:18:59Z</time></trkpt>
<trkpt lat="23.958774" lon="106.625758">
<time>2016-10-06T19:19:00Z</time></trkpt>
<trkpt lat="23.959235" lon="106.625319">
<time>2016-10-06T19:19:01Z</time></trkpt>
<trkpt lat="23.959575" lon="106.625">
<time>2016-10-06T19:19:02Z</time></trkpt>
<trkpt lat="23.959695" lon="106.62489">
<time>2016-10-06T19:19:03Z</time></trkpt>
<trkpt lat="23.959956" lon="106.62466">
<time>2016-10-06T19:19:04Z</time></trkpt>
<trkpt lat="23.960346" lon="106.624301">
<time>2016-10-06T19:19:05Z</time></trkpt>
<trkpt lat="23.960867" lon="106.623822">
<time>2016-10-06T19:19:06Z</time></trkpt>
<trkpt lat="23.960897" lon="106.623792">
<time>2016-10-06T19:19:07Z</time></trkpt>
<trkpt lat="23.961368" lon="106.623363">
<time>2016-10-06T19:19:08Z</time></trkpt>
<trkpt lat="23.961839" lon="106.622953">
<time>2016-10-06T19:19:09Z</time></trkpt>
<trkpt lat="23.961939" lon="106.622863">
<time>2016-10-06T19:19:10Z</time></trkpt>
<trkpt lat="23.962139" lon="106.622694">
<time>2016-10-06T19:19:11Z</time></trkpt>
<trkpt lat="23.962339" lon="106.622534">
<time>2016-10-06T19:19:12Z</time></trkpt>
<trkpt lat="23.96257" lon="106.622354">
<time>2016-10-06T19:19:13Z</time></trkpt>
<trkpt lat="23.96282" lon="106.622165">
<time>2016-10-06T19:19:14Z</time></trkpt>
<trkpt lat="23.9631" lon="106.621955">
<time>2016-10-06T19:19:15Z</time></trkpt>
<trkpt lat="23.963391" lon="106.621745">
<time>2016-10-06T19:19:16Z</time></trkpt>
<trkpt lat="23.963891" lon="106.621426">
<time>2016-10-06T19:19:17Z</time></trkpt>
<trkpt lat="23.964402" lon="106.621106">
<time>2016-10-06T19:19:18Z</time></trkpt>
<trkpt lat="23.965263" lon="106.620577">
<time>2016-10-06T19:19:19Z</time></trkpt>
<trkpt lat="23.965873" lon="106.620198">
<time>2016-10-06T19:19:20Z</time></trkpt>
<trkpt lat="23.966164" lon="106.620018">
<time>2016-10-06T19:19:21Z</time></trkpt>
<trkpt lat="23.966374" lon="106.619898">
<time>2016-10-06T19:19:22Z</time></trkpt>
<trkpt lat="23.966564" lon="106.619779">
<time>2016-10-06T19:19:23Z</time></trkpt>
<trkpt lat="23.966704" lon="106.619689">
<time>2016-10-06T19:19:24Z</time></trkpt>
<trkpt lat="23.966934" lon="106.619549">
<time>2016-10-06T19:19:25Z</time></trkpt>
<trkpt lat="23.967315" lon="106.619309">
<time>2016-10-06T19:19:26Z</time></trkpt>
<trkpt lat="23.967545" lon="106.61915">
<time>2016-10-06T19:19:27Z</time></trkpt>
<trkpt lat="23.967745" lon="106.619">
<time>2016-10-06T19:19:28Z</time></trkpt>
<trkpt lat="23.967845" lon="106.61891">
<time>2016-10-06T19:19:29Z</time></trkpt>
<trkpt lat="23.967966" lon="106.61881">
<time>2016-10-06T19:19:30Z</time></trkpt>
<trkpt lat="23.968086" lon="106.61869">
<time>2016-10-06T19:19:31Z</time></trkpt>
<trkpt lat="23.968226" lon="106.61854">
<time>2016-10-06T19:19:32Z</time></trkpt>
<trkpt lat="23.968396" lon="106.618321">
<time>2016-10-06T19:19:33Z</time></trkpt>
<trkpt lat="23.968436" lon="106.618271">
<time>2016-10-06T19:19:34Z</time></trkpt>
<trkpt lat="23.968566" lon="106.618081">
<time>2016-10-06T19:19:35Z</time></trkpt>
<trkpt lat="23.968687" lon="106.617881">
<time>2016-10-06T19:19:36Z</time></trkpt>
<trkpt lat="23.968807" lon="106.617662">
<time>2016-10-06T19:19:37Z</time></trkpt>
<trkpt lat="23.968907" lon="106.617442">
<time>2016-10-06T19:19:38Z</time></trkpt>
<trkpt lat="23.968987" lon="106.617223">
<time>2016-10-06T19:19:39Z</time></trkpt>
<trkpt lat="23.969058" lon="106.617003">
<time>2016-10-06T19:19:40Z</time></trkpt>
<trkpt lat="23.969128" lon="106.616723">
<time>2016-10-06T19:19:41Z</time></trkpt>
<trkpt lat="23.969178" lon="106.616484">
<time>2016-10-06T19:19:42Z</time></trkpt>
<trkpt lat="23.969239" lon="106.616154">
<time>2016-10-06T19:19:43Z</time></trkpt>
<trkpt lat="23.969299" lon="106.615745">
<time>2016-10-06T19:19:44Z</time></trkpt>
<trkpt lat="23.9694" lon="106.614936">
<time>2016-10-06T19:19:45Z</time></trkpt>
<trkpt lat="23.96946" lon="106.614397">
<time>2016-10-06T19:19:46Z</time></trkpt>
<trkpt lat="23.969621" lon="106.613079">
<time>2016-10-06T19:19:47Z</time></trkpt>
<trkpt lat="23.969672" lon="106.612659">
<time>2016-10-06T19:19:48Z</time></trkpt>
<trkpt lat="23.969752" lon="106.61226">
<time>2016-10-06T19:19:49Z</time></trkpt>
<trkpt lat="23.969832" lon="106.61192">
<time>2016-10-06T19:19:50Z</time></trkpt>
<trkpt lat="23.969932" lon="106.611611">
<time>2016-10-06T19:19:51Z</time></trkpt>
<trkpt lat="23.970053" lon="106.611271">
<time>2016-10-06T19:19:52Z</time></trkpt>
<trkpt lat="23.970163" lon="106.611011">
<time>2016-10-06T19:19:53Z</time></trkpt>
<trkpt lat="23.970283" lon="106.610772">
<time>2016-10-06T19:19:54Z</time></trkpt>
<trkpt lat="23.970393" lon="106.610552">
<time>2016-10-06T19:19:55Z</time></trkpt>
<trkpt lat="23.970554" lon="106.610292">
<time>2016-10-06T19:19:56Z</time></trkpt>
<trkpt lat="23.970674" lon="106.610102">
<time>2016-10-06T19:19:57Z</time></trkpt>
<trkpt lat="23.970824" lon="106.609893">
<time>2016-10-06T19:19:58Z</time></trkpt>
<trkpt lat="23.970944" lon="106.609763">
<time>2016-10-06T19:19:59Z</time></trkpt>
<trkpt lat="23.971084" lon="106.609583">
<time>2016-10-06T19:20:00Z</time></trkpt>
<trkpt lat="23.971325" lon="106.609313">
<time>2016-10-06T19:20:01Z</time></trkpt>
<trkpt lat="23.971585" lon="106.609054">
<time>2016-10-06T19:20:02Z</time></trkpt>
<trkpt lat="23.972015" lon="106.608634">
<time>2016-10-06T19:20:03Z</time></trkpt>
<trkpt lat="23.972506" lon="106.608155">
<time>2016-10-06T19:20:04Z</time></trkpt>
<trkpt lat="23.972836" lon="106.607845">
<time>2016-10-06T19:20:05Z</time></trkpt>
<trkpt lat="23.973347" lon="106.607336">
<time>2016-10-06T19:20:06Z</time></trkpt>
<trkpt lat="23.973627" lon="106.607086">
<time>2016-10-06T19:20:07Z</time></trkpt>
<trkpt lat="23.973877" lon="106.606886">
<time>2016-10-06T19:20:08Z</time></trkpt>
<trkpt lat="23.974167" lon="106.606686">
<time>2016-10-06T19:20:09Z</time></trkpt>
<trkpt lat="23.974427" lon="106.606527">
<time>2016-10-06T19:20:10Z</time></trkpt>
<trkpt lat="23.974658" lon="106.606397">
<time>2016-10-06T19:20:11Z</time></trkpt>
<trkpt lat="23.975038" lon="106.606217">
<time>2016-10-06T19:20:12Z</time></trkpt>
<trkpt lat="23.975248" lon="106.606147">
<time>2016-10-06T19:20:13Z</time></trkpt>
<trkpt lat="23.975438" lon="106.606087">
<time>2016-10-06T19:20:14Z</time></trkpt>
<trkpt lat="23.975598" lon="106.606027">
<time>2016-10-06T19:20:15Z</time></trkpt>
<trkpt lat="23.976048" lon="106.605927">
<time>2016-10-06T19:20:16Z</time></trkpt>
<trkpt lat="23.976619" lon="106.605837">
<time>2016-10-06T19:20:17Z</time></trkpt>
<trkpt lat="23.97893" lon="106.605497">
<time>2016-10-06T19:20:18Z</time></trkpt>
<trkpt lat="23.97966" lon="106.605398">
<time>2016-10-06T19:20:19Z</time></trkpt>
<trkpt lat="23.97984" lon="106.605378">
<time>2016-10-06T19:20:20Z</time></trkpt>
<trkpt lat="23.97999" lon="106.605358">
<time>2016-10-06T19:20:21Z</time></trkpt>
<trkpt lat="23.9801" lon="106.605338">
<time>2016-10-06T19:20:22Z</time></trkpt>
<trkpt lat="23.980241" lon="106.605318">
<time>2016-10-06T19:20:23Z</time></trkpt>
<trkpt lat="23.980391" lon="106.605288">
<time>2016-10-06T19:20:24Z</time></trkpt>
<trkpt lat="23.980621" lon="106.605218">
<time>2016-10-06T19:20:25Z</time></trkpt>
<trkpt lat="23.980921" lon="106.605128">
<time>2016-10-06T19:20:26Z</time></trkpt>
<trkpt lat="23.981251" lon="106.605008">
<time>2016-10-06T19:20:27Z</time></trkpt>
<trkpt lat="23.981441" lon="106.604918">
<time>2016-10-06T19:20:28Z</time></trkpt>
<trkpt lat="23.981591" lon="106.604848">
<time>2016-10-06T19:20:29Z</time></trkpt>
<trkpt lat="23.981701" lon="106.604788">
<time>2016-10-06T19:20:30Z</time></trkpt>
<trkpt lat="23.981952" lon="106.604648">
<time>2016-10-06T19:20:31Z</time></trkpt>
<trkpt lat="23.982322" lon="106.604408">
<time>2016-10-06T19:20:32Z</time></trkpt>
<trkpt lat="23.982562" lon="106.604219">
<time>2016-10-06T19:20:33Z</time></trkpt>
<trkpt lat="23.982592" lon="106.604199">
<time>2016-10-06T19:20:34Z</time></trkpt>
<trkpt lat="23.982972" lon="106.603839">
<time>2016-10-06T19:20:35Z</time></trkpt>
<trkpt lat="23.983132" lon="106.603679">
<time>2016-10-06T19:20:36Z</time></trkpt>
<trkpt lat="23.983303" lon="106.603479">
<time>2016-10-06T19:20:37Z</time></trkpt>
<trkpt lat="23.983503" lon="106.603229">
<time>2016-10-06T19:20:38Z</time></trkpt>
<trkpt lat="23.983913" lon="106.60267">
<time>2016-10-06T19:20:39Z</time></trkpt>
<trkpt lat="23.984093" lon="106.6024">
<time>2016-10-06T19:20:40Z</time></trkpt>
<trkpt lat="23.984344" lon="106.602051">
<time>2016-10-06T19:20:41Z</time></trkpt>
<trkpt lat="23.984484" lon="106.601861">
<time>2016-10-06T19:20:42Z</time></trkpt>
<trkpt lat="23.984614" lon="106.601701">
<time>2016-10-06T19:20:43Z</time></trkpt>
<trkpt lat="23.984744" lon="106.601531">
<time>2016-10-06T19:20:44Z</time></trkpt>
<trkpt lat="23.984864" lon="106.601391">
<time>2016-10-06T19:20:45Z</time></trkpt>
<trkpt lat="23.985074" lon="106.601181">
<time>2016-10-06T19:20:46Z</time></trkpt>
<trkpt lat="23.985324" lon="106.600941">
<time>2016-10-06T19:20:47Z</time></trkpt>
<trkpt lat="23.985995" lon="106.600312">
<time>2016-10-06T19:20:48Z</time></trkpt>
<trkpt lat="23.986265" lon="106.600062">
<time>2016-10-06T19:20:49Z</time></trkpt>
<trkpt lat="23.987045" lon="106.599343">
<time>2016-10-06T19:20:50Z</time></trkpt>
<trkpt lat="23.987706" lon="106.598753">
<time>2016-10-06T19:20:51Z</time></trkpt>
<trkpt lat="23.988216" lon="106.598263">
<time>2016-10-06T19:20:52Z</time></trkpt>
<trkpt lat="23.988356" lon="106.598124">
<time>2016-10-06T19:20:53Z</time></trkpt>
<trkpt lat="23.988696" lon="106.597794">
<time>2016-10-06T19:20:54Z</time></trkpt>
<trkpt lat="23.988977" lon="106.597514">
<time>2016-10-06T19:20:55Z</time></trkpt>
<trkpt lat="23.989097" lon="106.597374">
<time>2016-10-06T19:20:56Z</time></trkpt>
<trkpt lat="23.989157" lon="106.597304">
<time>2016-10-06T19:20:57Z</time></trkpt>
<trkpt lat="23.989197" lon="106.597254">
<time>2016-10-06T19:20:58Z</time></trkpt>
<trkpt lat="23.989367" lon="106.597034">
<time>2016-10-06T19:20:59Z</time></trkpt>
<trkpt lat="23.989617" lon="106.596694">
<time>2016-10-06T19:21:00Z</time></trkpt>
<trkpt lat="23.989817" lon="106.596395">
<time>2016-10-06T19:21:01Z</time></trkpt>
<trkpt lat="23.990037" lon="106.596045">
<time>2016-10-06T19:21:02Z</time></trkpt>
<trkpt lat="23.990427" lon="106.595355">
<time>2016-10-06T19:21:03Z</time></trkpt>
<trkpt lat="23.990888" lon="106.594466">
<time>2016-10-06T19:21:04Z</time></trkpt>
<trkpt lat="23.991338" lon="106.593596">
<time>2016-10-06T19:21:05Z</time></trkpt>
<trkpt lat="23.991958" lon="106.592397">
<time>2016-10-06T19:21:06Z</time></trkpt>
<trkpt lat="23.992308" lon="106.591707">
<time>2016-10-06T19:21:07Z</time></trkpt>
<trkpt lat="23.992688" lon="106.590967">
<time>2016-10-06T19:21:08Z</time></trkpt>
<trkpt lat="23.992848" lon="106.590677">
<time>2016-10-06T19:21:09Z</time></trkpt>
<trkpt lat="23.992968" lon="106.590487">
<time>2016-10-06T19:21:10Z</time></trkpt>
<trkpt lat="23.993078" lon="106.590307">
<time>2016-10-06T19:21:11Z</time></trkpt>
<trkpt lat="23.993198" lon="106.590157">
<time>2016-10-06T19:21:12Z</time></trkpt>
<trkpt lat="23.993368" lon="106.589947">
<time>2016-10-06T19:21:13Z</time></trkpt>
<trkpt lat="23.993508" lon="106.589797">
<time>2016-10-06T19:21:14Z</time></trkpt>
<trkpt lat="23.993608" lon="106.589688">
<time>2016-10-06T19:21:15Z</time></trkpt>
<trkpt lat="23.993748" lon="106.589558">
<time>2016-10-06T19:21:16Z</time></trkpt>
<trkpt lat="23.993898" lon="106.589438">
<time>2016-10-06T19:21:17Z</time></trkpt>
<trkpt lat="23.994048" lon="106.589338">
<time>2016-10-06T19:21:18Z</time></trkpt>
<trkpt lat="23.994188" lon="106.589248">
<time>2016-10-06T19:21:19Z</time></trkpt>
<trkpt lat="23.994348" lon="106.589148">
<time>2016-10-06T19:21:20Z</time></trkpt>
<trkpt lat="23.994458" lon="106.589098">
<time>2016-10-06T19:21:21Z</time></trkpt>
<trkpt lat="23.994719" lon="106.588988">
<time>2016-10-06T19:21:22Z</time></trkpt>
<trkpt lat="23.995059" lon="106.588868">
<time>2016-10-06T19:21:23Z</time></trkpt>
<trkpt lat="23.995299" lon="106.588788">
<time>2016-10-06T19:21:24Z</time></trkpt>
<trkpt lat="23.995569" lon="106.588728">
<time>2016-10-06T19:21:25Z</time></trkpt>
<trkpt lat="23.996339" lon="106.588528">
<time>2016-10-06T19:21:26Z</time></trkpt>
<trkpt lat="23.996639" lon="106.588448">
<time>2016-10-06T19:21:27Z</time></trkpt>
<trkpt lat="23.996819" lon="106.588368">
<time>2016-10-06T19:21:28Z</time></trkpt>
<trkpt lat="23.996979" lon="106.588288">
<time>2016-10-06T19:21:29Z</time></trkpt>
<trkpt lat="23.997169" lon="106.588188">
<time>2016-10-06T19:21:30Z</time></trkpt>
<trkpt lat="23.997399" lon="106.588048">
<time>2016-10-06T19:21:31Z</time></trkpt>
<trkpt lat="23.997539" lon="106.587958">
<time>2016-10-06T19:21:32Z</time></trkpt>
<trkpt lat="23.99772" lon="106.587808">
<time>2016-10-06T19:21:33Z</time></trkpt>
<trkpt lat="23.9979" lon="106.587648">
<time>2016-10-06T19:21:34Z</time></trkpt>
<trkpt lat="23.99805" lon="106.587498">
<time>2016-10-06T19:21:35Z</time></trkpt>
<trkpt lat="23.99818" lon="106.587358">
<time>2016-10-06T19:21:36Z</time></trkpt>
<trkpt lat="23.99828" lon="106.587228">
<time>2016-10-06T19:21:37Z</time></trkpt>
<trkpt lat="23.9984" lon="106.587068">
<time>2016-10-06T19:21:38Z</time></trkpt>
<trkpt lat="23.99859" lon="106.586788">
<time>2016-10-06T19:21:39Z</time></trkpt>
<trkpt lat="23.99879" lon="106.586448">
<time>2016-10-06T19:21:40Z</time></trkpt>
<trkpt lat="23.999379" lon="106.585448">
<time>2016-10-06T19:21:41Z</time></trkpt>
<trkpt lat="23.999709" lon="106.584858">
<time>2016-10-06T19:21:42Z</time></trkpt>
<trkpt lat="23.999879" lon="106.584578">
<time>2016-10-06T19:21:43Z</time></trkpt>
<trkpt lat="24.000009" lon="106.584368">
<time>2016-10-06T19:21:44Z</time></trkpt>
<trkpt lat="24.000199" lon="106.584068">
<time>2016-10-06T19:21:45Z</time></trkpt>
<trkpt lat="24.000429" lon="106.583768">
<time>2016-10-06T19:21:46Z</time></trkpt>
<trkpt lat="24.000619" lon="106.583548">
<time>2016-10-06T19:21:47Z</time></trkpt>
<trkpt lat="24.000779" lon="106.583378">
<time>2016-10-06T19:21:48Z</time></trkpt>
<trkpt lat="24.000909" lon="106.583238">
<time>2016-10-06T19:21:49Z</time></trkpt>
<trkpt lat="24.001099" lon="106.583068">
<time>2016-10-06T19:21:50Z</time></trkpt>
<trkpt lat="24.001649" lon="106.582588">
<time>2016-10-06T19:21:51Z</time></trkpt>
<trkpt lat="24.002319" lon="106.582038">
<time>2016-10-06T19:21:52Z</time></trkpt>
<trkpt lat="24.003059" lon="106.581498">
<time>2016-10-06T19:21:53Z</time></trkpt>
<trkpt lat="24.003639" lon="106.581078">
<time>2016-10-06T19:21:54Z</time></trkpt>
<trkpt lat="24.004099" lon="106.580708">
<time>2016-10-06T19:21:55Z</time></trkpt>
<trkpt lat="24.004919" lon="106.579767">
<time>2016-10-06T19:21:56Z</time></trkpt>
<trkpt lat="24.005489" lon="106.579087">
<time>2016-10-06T19:21:57Z</time></trkpt>
<trkpt lat="24.005998" lon="106.578427">
<time>2016-10-06T19:21:58Z</time></trkpt>
<trkpt lat="24.006358" lon="106.577987">
<time>2016-10-06T19:21:59Z</time></trkpt>
<trkpt lat="24.007048" lon="106.577227">
<time>2016-10-06T19:22:00Z</time></trkpt>
<trkpt lat="24.007648" lon="106.576626">
<time>2016-10-06T19:22:01Z</time></trkpt>
<trkpt lat="24.008837" lon="106.575606">
<time>2016-10-06T19:22:02Z</time></trkpt>
<trkpt lat="24.009307" lon="106.575176">
<time>2016-10-06T19:22:03Z</time></trkpt>
<trkpt lat="24.009787" lon="106.574686">
<time>2016-10-06T19:22:04Z</time></trkpt>
<trkpt lat="24.009967" lon="106.574516">
<time>2016-10-06T19:22:05Z</time></trkpt>
<trkpt lat="24.010117" lon="106.574365">
<time>2016-10-06T19:22:06Z</time></trkpt>
<trkpt lat="24.010257" lon="106.574205">
<time>2016-10-06T19:22:07Z</time></trkpt>
<trkpt lat="24.010407" lon="106.574025">
<time>2016-10-06T19:22:08Z</time></trkpt>
<trkpt lat="24.011875" lon="106.572184">
<time>2016-10-06T19:22:09Z</time></trkpt>
<trkpt lat="24.012495" lon="106.571584">
<time>2016-10-06T19:22:10Z</time></trkpt>
<trkpt lat="24.012585" lon="106.571514">
<time>2016-10-06T19:22:11Z</time></trkpt>
<trkpt lat="24.012695" lon="106.571414">
<time>2016-10-06T19:22:12Z</time></trkpt>
<trkpt lat="24.012775" lon="106.571364">
<time>2016-10-06T19:22:13Z</time></trkpt>
<trkpt lat="24.012905" lon="106.571284">
<time>2016-10-06T19:22:14Z</time></trkpt>
<trkpt lat="24.013005" lon="106.571224">
<time>2016-10-06T19:22:15Z</time></trkpt>
<trkpt lat="24.013075" lon="106.571184">
<time>2016-10-06T19:22:16Z</time></trkpt>
<trkpt lat="24.013155" lon="106.571144">
<time>2016-10-06T19:22:17Z</time></trkpt>
<trkpt lat="24.013285" lon="106.571083">
<time>2016-10-06T19:22:18Z</time></trkpt>
<trkpt lat="24.013435" lon="106.571033">
<time>2016-10-06T19:22:19Z</time></trkpt>
<trkpt lat="24.013585" lon="106.570993">
<time>2016-10-06T19:22:20Z</time></trkpt>
<trkpt lat="24.013715" lon="106.570963">
<time>2016-10-06T19:22:21Z</time></trkpt>
<trkpt lat="24.013875" lon="106.570943">
<time>2016-10-06T19:22:22Z</time></trkpt>
<trkpt lat="24.014065" lon="106.570913">
<time>2016-10-06T19:22:23Z</time></trkpt>
<trkpt lat="24.014435" lon="106.570953">
<time>2016-10-06T19:22:24Z</time></trkpt>
<trkpt lat="24.014595" lon="106.570963">
<time>2016-10-06T19:22:25Z</time></trkpt>
<trkpt lat="24.014856" lon="106.571023">
<time>2016-10-06T19:22:26Z</time></trkpt>
<trkpt lat="24.014996" lon="106.571043">
<time>2016-10-06T19:22:27Z</time></trkpt>
<trkpt lat="24.015126" lon="106.571063">
<time>2016-10-06T19:22:28Z</time></trkpt>
<trkpt lat="24.015266" lon="106.571063">
<time>2016-10-06T19:22:29Z</time></trkpt>
<trkpt lat="24.015406" lon="106.571063">
<time>2016-10-06T19:22:30Z</time></trkpt>
<trkpt lat="24.015566" lon="106.571043">
<time>2016-10-06T19:22:31Z</time></trkpt>
<trkpt lat="24.015686" lon="106.571033">
<time>2016-10-06T19:22:32Z</time></trkpt>
<trkpt lat="24.015786" lon="106.571003">
<time>2016-10-06T19:22:33Z</time></trkpt>
<trkpt lat="24.015926" lon="106.570963">
<time>2016-10-06T19:22:34Z</time></trkpt>
<trkpt lat="24.016206" lon="106.570873">
<time>2016-10-06T19:22:35Z</time></trkpt>
<trkpt lat="24.016716" lon="106.570653">
<time>2016-10-06T19:22:36Z</time></trkpt>
<trkpt lat="24.017006" lon="106.570523">
<time>2016-10-06T19:22:37Z</time></trkpt>
<trkpt lat="24.018866" lon="106.569642">
<time>2016-10-06T19:22:38Z</time></trkpt>
<trkpt lat="24.018866" lon="106.569642">
<time>2016-10-06T19:22:39Z</time></trkpt>
<trkpt lat="24.019156" lon="106.569682">
<time>2016-10-06T19:22:40Z</time></trkpt>
<trkpt lat="24.019336" lon="106.569742">
<time>2016-10-06T19:22:41Z</time></trkpt>
<trkpt lat="24.019526" lon="106.569832">
<time>2016-10-06T19:22:42Z</time></trkpt>
<trkpt lat="24.019596" lon="106.569882">
<time>2016-10-06T19:22:43Z</time></trkpt>
<trkpt lat="24.019616" lon="106.569892">
<time>2016-10-06T19:22:44Z</time></trkpt>
<trkpt lat="24.019727" lon="106.569972">
<time>2016-10-06T19:22:45Z</time></trkpt>
<trkpt lat="24.020748" lon="106.570993">
<time>2016-10-06T19:22:46Z</time></trkpt>
<trkpt lat="24.02198" lon="106.572254">
<time>2016-10-06T19:22:47Z</time></trkpt>
<trkpt lat="24.022641" lon="106.572944">
<time>2016-10-06T19:22:48Z</time></trkpt>
<trkpt lat="24.022851" lon="106.573134">
<time>2016-10-06T19:22:49Z</time></trkpt>
<trkpt lat="24.022991" lon="106.573244">
<time>2016-10-06T19:22:50Z</time></trkpt>
<trkpt lat="24.023111" lon="106.573324">
<time>2016-10-06T19:22:51Z</time></trkpt>
<trkpt lat="24.023231" lon="106.573384">
<time>2016-10-06T19:22:52Z</time></trkpt>
<trkpt lat="24.023362" lon="106.573444">
<time>2016-10-06T19:22:53Z</time></trkpt>
<trkpt lat="24.023492" lon="106.573494">
<time>2016-10-06T19:22:54Z</time></trkpt>
<trkpt lat="24.023632" lon="106.573524">
<time>2016-10-06T19:22:55Z</time></trkpt>
<trkpt lat="24.023752" lon="106.573554">
<time>2016-10-06T19:22:56Z</time></trkpt>
<trkpt lat="24.023892" lon="106.573574">
<time>2016-10-06T19:22:57Z</time></trkpt>
<trkpt lat="24.025073" lon="106.573704">
<time>2016-10-06T19:22:58Z</time></trkpt>
<trkpt lat="24.025263" lon="106.573724">
<time>2016-10-06T19:22:59Z</time></trkpt>
<trkpt lat="24.025413" lon="106.573754">
<time>2016-10-06T19:23:00Z</time></trkpt>
<trkpt lat="24.025533" lon="106.573794">
<time>2016-10-06T19:23:01Z</time></trkpt>
<trkpt lat="24.025643" lon="106.573834">
<time>2016-10-06T19:23:02Z</time></trkpt>
<trkpt lat="24.025753" lon="106.573884">
<time>2016-10-06T19:23:03Z</time></trkpt>
<trkpt lat="24.025853" lon="106.573944">
<time>2016-10-06T19:23:04Z</time></trkpt>
<trkpt lat="24.025913" lon="106.573984">
<time>2016-10-06T19:23:05Z</time></trkpt>
<trkpt lat="24.025913" lon="106.573984">
<time>2016-10-06T19:23:06Z</time></trkpt>
<trkpt lat="24.026043" lon="106.574025">
<time>2016-10-06T19:23:07Z</time></trkpt>
<trkpt lat="24.026133" lon="106.574015">
<time>2016-10-06T19:23:08Z</time></trkpt>
<trkpt lat="24.026213" lon="106.574004">
<time>2016-10-06T19:23:09Z</time></trkpt>
<trkpt lat="24.026303" lon="106.573964">
<time>2016-10-06T19:23:10Z</time></trkpt>
<trkpt lat="24.026443" lon="106.573774">
<time>2016-10-06T19:23:11Z</time></trkpt>
<trkpt lat="24.026753" lon="106.573344">
<time>2016-10-06T19:23:12Z</time></trkpt>
<trkpt lat="24.026903" lon="106.573104">
<time>2016-10-06T19:23:13Z</time></trkpt>
<trkpt lat="24.026983" lon="106.572924">
<time>2016-10-06T19:23:14Z</time></trkpt>
<trkpt lat="24.027023" lon="106.572784">
<time>2016-10-06T19:23:15Z</time></trkpt>
<trkpt lat="24.027042" lon="106.572644">
<time>2016-10-06T19:23:16Z</time></trkpt>
<trkpt lat="24.027042" lon="106.572514">
<time>2016-10-06T19:23:17Z</time></trkpt>
<trkpt lat="24.027032" lon="106.572384">
<time>2016-10-06T19:23:18Z</time></trkpt>
<trkpt lat="24.026972" lon="106.572173">
<time>2016-10-06T19:23:19Z</time></trkpt>
<trkpt lat="24.026852" lon="106.571933">
<time>2016-10-06T19:23:20Z</time></trkpt>
<trkpt lat="24.026531" lon="106.571353">
<time>2016-10-06T19:23:21Z</time></trkpt>
<trkpt lat="24.026461" lon="106.571163">
<time>2016-10-06T19:23:22Z</time></trkpt>
<trkpt lat="24.02641" lon="106.570953">
<time>2016-10-06T19:23:23Z</time></trkpt>
<trkpt lat="24.02638" lon="106.570713">
<time>2016-10-06T19:23:24Z</time></trkpt>
<trkpt lat="24.02638" lon="106.570512">
<time>2016-10-06T19:23:25Z</time></trkpt>
<trkpt lat="24.0264" lon="106.570332">
<time>2016-10-06T19:23:26Z</time></trkpt>
<trkpt lat="24.02643" lon="106.570172">
<time>2016-10-06T19:23:27Z</time></trkpt>
<trkpt lat="24.026489" lon="106.569942">
<time>2016-10-06T19:23:28Z</time></trkpt>
<trkpt lat="24.026829" lon="106.569282">
<time>2016-10-06T19:23:29Z</time></trkpt>
<trkpt lat="24.027178" lon="106.568561">
<time>2016-10-06T19:23:30Z</time></trkpt>
<trkpt lat="24.027647" lon="106.56765">
<time>2016-10-06T19:23:31Z</time></trkpt>
<trkpt lat="24.027907" lon="106.56722">
<time>2016-10-06T19:23:32Z</time></trkpt>
<trkpt lat="24.028286" lon="106.56675">
<time>2016-10-06T19:23:33Z</time></trkpt>
<trkpt lat="24.028826" lon="106.566229">
<time>2016-10-06T19:23:34Z</time></trkpt>
<trkpt lat="24.029136" lon="106.565809">
<time>2016-10-06T19:23:35Z</time></trkpt>
<trkpt lat="24.029465" lon="106.565198">
<time>2016-10-06T19:23:36Z</time></trkpt>
<trkpt lat="24.029874" lon="106.564367">
<time>2016-10-06T19:23:37Z</time></trkpt>
<trkpt lat="24.030044" lon="106.564007">
<time>2016-10-06T19:23:38Z</time></trkpt>
<trkpt lat="24.030263" lon="106.563567">
<time>2016-10-06T19:23:39Z</time></trkpt>
<trkpt lat="24.030383" lon="106.563326">
<time>2016-10-06T19:23:40Z</time></trkpt>
<trkpt lat="24.030463" lon="106.563116">
<time>2016-10-06T19:23:41Z</time></trkpt>
<trkpt lat="24.030532" lon="106.562916">
<time>2016-10-06T19:23:42Z</time></trkpt>
<trkpt lat="24.030602" lon="106.562686">
<time>2016-10-06T19:23:43Z</time></trkpt>
<trkpt lat="24.030632" lon="106.562566">
<time>2016-10-06T19:23:44Z</time></trkpt>
<trkpt lat="24.030652" lon="106.562455">
<time>2016-10-06T19:23:45Z</time></trkpt>
<trkpt lat="24.030672" lon="106.562285">
<time>2016-10-06T19:23:46Z</time></trkpt>
<trkpt lat="24.030671" lon="106.562115">
<time>2016-10-06T19:23:47Z</time></trkpt>
<trkpt lat="24.030671" lon="106.562105">
<time>2016-10-06T19:23:48Z</time></trkpt>
<trkpt lat="24.030671" lon="106.562105">
<time>2016-10-06T19:23:49Z</time></trkpt>
<trkpt lat="24.030721" lon="106.562045">
<time>2016-10-06T19:23:50Z</time></trkpt>
<trkpt lat="24.030751" lon="106.561995">
<time>2016-10-06T19:23:51Z</time></trkpt>
<trkpt lat="24.030771" lon="106.561905">
<time>2016-10-06T19:23:52Z</time></trkpt>
<trkpt lat="24.03084" lon="106.561364">
<time>2016-10-06T19:23:53Z</time></trkpt>
<trkpt lat="24.03085" lon="106.561334">
<time>2016-10-06T19:23:54Z</time></trkpt>
<trkpt lat="24.03113" lon="106.560874">
<time>2016-10-06T19:23:55Z</time></trkpt>
<trkpt lat="24.03127" lon="106.560764">
<time>2016-10-06T19:23:56Z</time></trkpt>
<trkpt lat="24.03144" lon="106.560663">
<time>2016-10-06T19:23:57Z</time></trkpt>
<trkpt lat="24.031949" lon="106.560413">
<time>2016-10-06T19:23:58Z</time></trkpt>
<trkpt lat="24.032159" lon="106.560293">
<time>2016-10-06T19:23:59Z</time></trkpt>
<trkpt lat="24.032399" lon="106.560143">
<time>2016-10-06T19:24:00Z</time></trkpt>
<trkpt lat="24.032599" lon="106.559953">
<time>2016-10-06T19:24:01Z</time></trkpt>
<trkpt lat="24.032749" lon="106.559752">
<time>2016-10-06T19:24:02Z</time></trkpt>
<trkpt lat="24.032858" lon="106.559492">
<time>2016-10-06T19:24:03Z</time></trkpt>
<trkpt lat="24.032918" lon="106.559202">
<time>2016-10-06T19:24:04Z</time></trkpt>
<trkpt lat="24.032947" lon="106.558661">
<time>2016-10-06T19:24:05Z</time></trkpt>
<trkpt lat="24.032977" lon="106.558381">
<time>2016-10-06T19:24:06Z</time></trkpt>
<trkpt lat="24.032986" lon="106.55824">
<time>2016-10-06T19:24:07Z</time></trkpt>
<trkpt lat="24.032986" lon="106.55815">
<time>2016-10-06T19:24:08Z</time></trkpt>
<trkpt lat="24.032996" lon="106.55805">
<time>2016-10-06T19:24:09Z</time></trkpt>
<trkpt lat="24.032996" lon="106.55799">
<time>2016-10-06T19:24:10Z</time></trkpt>
<trkpt lat="24.033035" lon="106.557369">
<time>2016-10-06T19:24:11Z</time></trkpt>
<trkpt lat="24.033074" lon="106.556859">
<time>2016-10-06T19:24:12Z</time></trkpt>
<trkpt lat="24.033114" lon="106.556528">
<time>2016-10-06T19:24:13Z</time></trkpt>
<trkpt lat="24.033114" lon="106.556528">
<time>2016-10-06T19:24:14Z</time></trkpt>
<trkpt lat="24.033144" lon="106.556488">
<time>2016-10-06T19:24:15Z</time></trkpt>
<trkpt lat="24.033184" lon="106.556438">
<time>2016-10-06T19:24:16Z</time></trkpt>
<trkpt lat="24.033224" lon="106.556408">
<time>2016-10-06T19:24:17Z</time></trkpt>
<trkpt lat="24.033294" lon="106.556378">
<time>2016-10-06T19:24:18Z</time></trkpt>
<trkpt lat="24.033294" lon="106.556378">
<time>2016-10-06T19:24:19Z</time></trkpt>
<trkpt lat="24.033344" lon="106.556388">
<time>2016-10-06T19:24:20Z</time></trkpt>
<trkpt lat="24.033534" lon="106.556398">
<time>2016-10-06T19:24:21Z</time></trkpt>
<trkpt lat="24.033744" lon="106.556388">
<time>2016-10-06T19:24:22Z</time></trkpt>
<trkpt lat="24.033944" lon="106.556368">
<time>2016-10-06T19:24:23Z</time></trkpt>
<trkpt lat="24.034204" lon="106.556318">
<time>2016-10-06T19:24:24Z</time></trkpt>
<trkpt lat="24.034394" lon="106.556268">
<time>2016-10-06T19:24:25Z</time></trkpt>
<trkpt lat="24.034584" lon="106.556188">
<time>2016-10-06T19:24:26Z</time></trkpt>
<trkpt lat="24.034714" lon="106.556138">
<time>2016-10-06T19:24:27Z</time></trkpt>
<trkpt lat="24.034854" lon="106.556078">
<time>2016-10-06T19:24:28Z</time></trkpt>
<trkpt lat="24.034964" lon="106.556018">
<time>2016-10-06T19:24:29Z</time></trkpt>
<trkpt lat="24.035144" lon="106.555917">
<time>2016-10-06T19:24:30Z</time></trkpt>
<trkpt lat="24.035263" lon="106.555847">
<time>2016-10-06T19:24:31Z</time></trkpt>
<trkpt lat="24.036253" lon="106.555106">
<time>2016-10-06T19:24:32Z</time></trkpt>
<trkpt lat="24.037252" lon="106.554375">
<time>2016-10-06T19:24:33Z</time></trkpt>
<trkpt lat="24.037951" lon="106.553854">
<time>2016-10-06T19:24:34Z</time></trkpt>
<trkpt lat="24.038751" lon="106.553274">
<time>2016-10-06T19:24:35Z</time></trkpt>
<trkpt lat="24.0395" lon="106.552693">
<time>2016-10-06T19:24:36Z</time></trkpt>
<trkpt lat="24.03972" lon="106.552512">
<time>2016-10-06T19:24:37Z</time></trkpt>
<trkpt lat="24.039839" lon="106.552402">
<time>2016-10-06T19:24:38Z</time></trkpt>
<trkpt lat="24.039909" lon="106.552322">
<time>2016-10-06T19:24:39Z</time></trkpt>
<trkpt lat="24.040049" lon="106.552172">
<time>2016-10-06T19:24:40Z</time></trkpt>
<trkpt lat="24.040259" lon="106.551921">
<time>2016-10-06T19:24:41Z</time></trkpt>
<trkpt lat="24.040358" lon="106.551781">
<time>2016-10-06T19:24:42Z</time></trkpt>
<trkpt lat="24.040448" lon="106.551651">
<time>2016-10-06T19:24:43Z</time></trkpt>
<trkpt lat="24.040518" lon="106.551521">
<time>2016-10-06T19:24:44Z</time></trkpt>
<trkpt lat="24.040608" lon="106.551351">
<time>2016-10-06T19:24:45Z</time></trkpt>
<trkpt lat="24.040648" lon="106.55126">
<time>2016-10-06T19:24:46Z</time></trkpt>
<trkpt lat="24.040687" lon="106.55113">
<time>2016-10-06T19:24:47Z</time></trkpt>
<trkpt lat="24.040717" lon="106.55106">
<time>2016-10-06T19:24:48Z</time></trkpt>
<trkpt lat="24.040737" lon="106.55097">
<time>2016-10-06T19:24:49Z</time></trkpt>
<trkpt lat="24.040767" lon="106.55086">
<time>2016-10-06T19:24:50Z</time></trkpt>
<trkpt lat="24.040787" lon="106.55073">
<time>2016-10-06T19:24:51Z</time></trkpt>
<trkpt lat="24.040826" lon="106.550429">
<time>2016-10-06T19:24:52Z</time></trkpt>
<trkpt lat="24.040856" lon="106.550129">
<time>2016-10-06T19:24:53Z</time></trkpt>
<trkpt lat="24.040884" lon="106.549508">
<time>2016-10-06T19:24:54Z</time></trkpt>
<trkpt lat="24.040904" lon="106.549067">
<time>2016-10-06T19:24:55Z</time></trkpt>
<trkpt lat="24.040923" lon="106.548686">
<time>2016-10-06T19:24:56Z</time></trkpt>
<trkpt lat="24.040932" lon="106.548396">
<time>2016-10-06T19:24:57Z</time></trkpt>
<trkpt lat="24.040942" lon="106.548035">
<time>2016-10-06T19:24:58Z</time></trkpt>
<trkpt lat="24.040961" lon="106.547775">
<time>2016-10-06T19:24:59Z</time></trkpt>
<trkpt lat="24.04097" lon="106.547384">
<time>2016-10-06T19:25:00Z</time></trkpt>
<trkpt lat="24.04098" lon="106.547084">
<time>2016-10-06T19:25:01Z</time></trkpt>
<trkpt lat="24.04098" lon="106.547023">
<time>2016-10-06T19:25:02Z</time></trkpt>
<trkpt lat="24.040979" lon="106.546983">
<time>2016-10-06T19:25:03Z</time></trkpt>
<trkpt lat="24.040979" lon="106.546863">
<time>2016-10-06T19:25:04Z</time></trkpt>
<trkpt lat="24.040969" lon="106.546783">
<time>2016-10-06T19:25:05Z</time></trkpt>
<trkpt lat="24.040949" lon="106.546693">
<time>2016-10-06T19:25:06Z</time></trkpt>
<trkpt lat="24.040929" lon="106.546613">
<time>2016-10-06T19:25:07Z</time></trkpt>
<trkpt lat="24.040919" lon="106.546553">
<time>2016-10-06T19:25:08Z</time></trkpt>
<trkpt lat="24.040888" lon="106.546472">
<time>2016-10-06T19:25:09Z</time></trkpt>
<trkpt lat="24.040858" lon="106.546402">
<time>2016-10-06T19:25:10Z</time></trkpt>
<trkpt lat="24.040828" lon="106.546332">
<time>2016-10-06T19:25:11Z</time></trkpt>
<trkpt lat="24.040768" lon="106.546222">
<time>2016-10-06T19:25:12Z</time></trkpt>
<trkpt lat="24.040698" lon="106.546132">
<time>2016-10-06T19:25:13Z</time></trkpt>
<trkpt lat="24.040607" lon="106.546032">
<time>2016-10-06T19:25:14Z</time></trkpt>
<trkpt lat="24.040487" lon="106.545912">
<time>2016-10-06T19:25:15Z</time></trkpt>
<trkpt lat="24.040277" lon="106.545741">
<time>2016-10-06T19:25:16Z</time></trkpt>
<trkpt lat="24.039445" lon="106.54511">
<time>2016-10-06T19:25:17Z</time></trkpt>
<trkpt lat="24.038693" lon="106.544529">
<time>2016-10-06T19:25:18Z</time></trkpt>
<trkpt lat="24.038513" lon="106.544369">
<time>2016-10-06T19:25:19Z</time></trkpt>
<trkpt lat="24.038393" lon="106.544219">
<time>2016-10-06T19:25:20Z</time></trkpt>
<trkpt lat="24.038282" lon="106.544068">
<time>2016-10-06T19:25:21Z</time></trkpt>
<trkpt lat="24.038182" lon="106.543838">
<time>2016-10-06T19:25:22Z</time></trkpt>
<trkpt lat="24.038051" lon="106.543517">
<time>2016-10-06T19:25:23Z</time></trkpt>
<trkpt lat="24.03798" lon="106.543307">
<time>2016-10-06T19:25:24Z</time></trkpt>
<trkpt lat="24.03795" lon="106.543187">
<time>2016-10-06T19:25:25Z</time></trkpt>
<trkpt lat="24.03793" lon="106.543087">
<time>2016-10-06T19:25:26Z</time></trkpt>
<trkpt lat="24.03792" lon="106.542976">
<time>2016-10-06T19:25:27Z</time></trkpt>
<trkpt lat="24.037929" lon="106.542846">
<time>2016-10-06T19:25:28Z</time></trkpt>
<trkpt lat="24.037959" lon="106.542706">
<time>2016-10-06T19:25:29Z</time></trkpt>
<trkpt lat="24.038009" lon="106.542535">
<time>2016-10-06T19:25:30Z</time></trkpt>
<trkpt lat="24.038098" lon="106.542295">
<time>2016-10-06T19:25:31Z</time></trkpt>
<trkpt lat="24.038168" lon="106.542155">
<time>2016-10-06T19:25:32Z</time></trkpt>
<trkpt lat="24.038238" lon="106.542024">
<time>2016-10-06T19:25:33Z</time></trkpt>
<trkpt lat="24.038318" lon="106.541894">
<time>2016-10-06T19:25:34Z</time></trkpt>
<trkpt lat="24.038687" lon="106.541473">
<time>2016-10-06T19:25:35Z</time></trkpt>
<trkpt lat="24.039355" lon="106.540702">
<time>2016-10-06T19:25:36Z</time></trkpt>
<trkpt lat="24.039545" lon="106.540501">
<time>2016-10-06T19:25:37Z</time></trkpt>
<trkpt lat="24.039625" lon="106.540441">
<time>2016-10-06T19:25:38Z</time></trkpt>
<trkpt lat="24.039695" lon="106.540381">
<time>2016-10-06T19:25:39Z</time></trkpt>
<trkpt lat="24.039885" lon="106.540231">
<time>2016-10-06T19:25:40Z</time></trkpt>
<trkpt lat="24.040094" lon="106.540091">
<time>2016-10-06T19:25:41Z</time></trkpt>
<trkpt lat="24.040344" lon="106.53995">
<time>2016-10-06T19:25:42Z</time></trkpt>
<trkpt lat="24.040624" lon="106.53977">
<time>2016-10-06T19:25:43Z</time></trkpt>
<trkpt lat="24.040824" lon="106.53964">
<time>2016-10-06T19:25:44Z</time></trkpt>
<trkpt lat="24.040953" lon="106.539529">
<time>2016-10-06T19:25:45Z</time></trkpt>
<trkpt lat="24.041123" lon="106.539369">
<time>2016-10-06T19:25:46Z</time></trkpt>
<trkpt lat="24.041273" lon="106.539199">
<time>2016-10-06T19:25:47Z</time></trkpt>
<trkpt lat="24.041422" lon="106.538998">
<time>2016-10-06T19:25:48Z</time></trkpt>
<trkpt lat="24.041602" lon="106.538718">
<time>2016-10-06T19:25:49Z</time></trkpt>
<trkpt lat="24.041761" lon="106.538467">
<time>2016-10-06T19:25:50Z</time></trkpt>
<trkpt lat="24.041991" lon="106.538127">
<time>2016-10-06T19:25:51Z</time></trkpt>
<trkpt lat="24.04218" lon="106.537926">
<time>2016-10-06T19:25:52Z</time></trkpt>
<trkpt lat="24.04238" lon="106.537766">
<time>2016-10-06T19:25:53Z</time></trkpt>
<trkpt lat="24.04261" lon="106.537646">
<time>2016-10-06T19:25:54Z</time></trkpt>
<trkpt lat="24.04289" lon="106.537515">
<time>2016-10-06T19:25:55Z</time></trkpt>
<trkpt lat="24.043579" lon="106.537235">
<time>2016-10-06T19:25:56Z</time></trkpt>
<trkpt lat="24.044729" lon="106.536774">
<time>2016-10-06T19:25:57Z</time></trkpt>
<trkpt lat="24.045638" lon="106.536413">
<time>2016-10-06T19:25:58Z</time></trkpt>
<trkpt lat="24.045638" lon="106.536413">
<time>2016-10-06T19:25:59Z</time></trkpt>
<trkpt lat="24.045678" lon="106.536413">
<time>2016-10-06T19:26:00Z</time></trkpt>
<trkpt lat="24.045728" lon="106.536383">
<time>2016-10-06T19:26:01Z</time></trkpt>
<trkpt lat="24.045798" lon="106.536353">
<time>2016-10-06T19:26:02Z</time></trkpt>
<trkpt lat="24.045818" lon="106.536333">
<time>2016-10-06T19:26:03Z</time></trkpt>
<trkpt lat="24.045978" lon="106.536252">
<time>2016-10-06T19:26:04Z</time></trkpt>
<trkpt lat="24.046188" lon="106.536142">
<time>2016-10-06T19:26:05Z</time></trkpt>
<trkpt lat="24.046388" lon="106.536032">
<time>2016-10-06T19:26:06Z</time></trkpt>
<trkpt lat="24.046557" lon="106.535912">
<time>2016-10-06T19:26:07Z</time></trkpt>
<trkpt lat="24.046807" lon="106.535741">
<time>2016-10-06T19:26:08Z</time></trkpt>
<trkpt lat="24.046917" lon="106.535661">
<time>2016-10-06T19:26:09Z</time></trkpt>
<trkpt lat="24.047027" lon="106.535571">
<time>2016-10-06T19:26:10Z</time></trkpt>
<trkpt lat="24.047157" lon="106.535461">
<time>2016-10-06T19:26:11Z</time></trkpt>
<trkpt lat="24.047446" lon="106.53518">
<time>2016-10-06T19:26:12Z</time></trkpt>
<trkpt lat="24.047536" lon="106.53509">
<time>2016-10-06T19:26:13Z</time></trkpt>
<trkpt lat="24.047616" lon="106.53502">
<time>2016-10-06T19:26:14Z</time></trkpt>
<trkpt lat="24.047676" lon="106.53495">
<time>2016-10-06T19:26:15Z</time></trkpt>
<trkpt lat="24.047875" lon="106.534709">
<time>2016-10-06T19:26:16Z</time></trkpt>
<trkpt lat="24.047985" lon="106.534559">
<time>2016-10-06T19:26:17Z</time></trkpt>
<trkpt lat="24.048025" lon="106.534499">
<time>2016-10-06T19:26:18Z</time></trkpt>
<trkpt lat="24.048074" lon="106.534418">
<time>2016-10-06T19:26:19Z</time></trkpt>
<trkpt lat="24.048154" lon="106.534308">
<time>2016-10-06T19:26:20Z</time></trkpt>
<trkpt lat="24.048184" lon="106.534248">
<time>2016-10-06T19:26:21Z</time></trkpt>
<trkpt lat="24.048244" lon="106.534158">
<time>2016-10-06T19:26:22Z</time></trkpt>
<trkpt lat="24.048294" lon="106.534068">
<time>2016-10-06T19:26:23Z</time></trkpt>
<trkpt lat="24.048343" lon="106.533977">
<time>2016-10-06T19:26:24Z</time></trkpt>
<trkpt lat="24.048393" lon="106.533877">
<time>2016-10-06T19:26:25Z</time></trkpt>
<trkpt lat="24.048453" lon="106.533747">
<time>2016-10-06T19:26:26Z</time></trkpt>
<trkpt lat="24.048513" lon="106.533607">
<time>2016-10-06T19:26:27Z</time></trkpt>
<trkpt lat="24.048562" lon="106.533456">
<time>2016-10-06T19:26:28Z</time></trkpt>
<trkpt lat="24.048612" lon="106.533306">
<time>2016-10-06T19:26:29Z</time></trkpt>
<trkpt lat="24.048681" lon="106.533055">
<time>2016-10-06T19:26:30Z</time></trkpt>
<trkpt lat="24.0488" lon="106.532604">
<time>2016-10-06T19:26:31Z</time></trkpt>
<trkpt lat="24.049603" lon="106.529507">
<time>2016-10-06T19:26:32Z</time></trkpt>
<trkpt lat="24.04994" lon="106.528234">
<time>2016-10-06T19:26:33Z</time></trkpt>
<trkpt lat="24.050227" lon="106.527142">
<time>2016-10-06T19:26:34Z</time></trkpt>
<trkpt lat="24.050593" lon="106.525708">
<time>2016-10-06T19:26:35Z</time></trkpt>
<trkpt lat="24.050692" lon="106.525327">
<time>2016-10-06T19:26:36Z</time></trkpt>
<trkpt lat="24.050762" lon="106.525097">
<time>2016-10-06T19:26:37Z</time></trkpt>
<trkpt lat="24.050851" lon="106.524786">
<time>2016-10-06T19:26:38Z</time></trkpt>
<trkpt lat="24.05097" lon="106.524425">
<time>2016-10-06T19:26:39Z</time></trkpt>
<trkpt lat="24.051089" lon="106.524114">
<time>2016-10-06T19:26:40Z</time></trkpt>
<trkpt lat="24.051248" lon="106.523753">
<time>2016-10-06T19:26:41Z</time></trkpt>
<trkpt lat="24.051318" lon="106.523633">
<time>2016-10-06T19:26:42Z</time></trkpt>
<trkpt lat="24.051477" lon="106.523272">
<time>2016-10-06T19:26:43Z</time></trkpt>
<trkpt lat="24.051825" lon="106.52261">
<time>2016-10-06T19:26:44Z</time></trkpt>
<trkpt lat="24.052194" lon="106.521989">
<time>2016-10-06T19:26:45Z</time></trkpt>
<trkpt lat="24.052533" lon="106.521487">
<time>2016-10-06T19:26:46Z</time></trkpt>
<trkpt lat="24.052672" lon="106.521287">
<time>2016-10-06T19:26:47Z</time></trkpt>
<trkpt lat="24.052881" lon="106.521006">
<time>2016-10-06T19:26:48Z</time></trkpt>
<trkpt lat="24.053071" lon="106.520776">
<time>2016-10-06T19:26:49Z</time></trkpt>
<trkpt lat="24.05324" lon="106.520595">
<time>2016-10-06T19:26:50Z</time></trkpt>
<trkpt lat="24.05341" lon="106.520415">
<time>2016-10-06T19:26:51Z</time></trkpt>
<trkpt lat="24.05365" lon="106.520194">
<time>2016-10-06T19:26:52Z</time></trkpt>
<trkpt lat="24.055186" lon="106.51872">
<time>2016-10-06T19:26:53Z</time></trkpt>
<trkpt lat="24.056274" lon="106.517657">
<time>2016-10-06T19:26:54Z</time></trkpt>
<trkpt lat="24.058029" lon="106.515742">
<time>2016-10-06T19:26:55Z</time></trkpt>
<trkpt lat="24.058687" lon="106.515">
<time>2016-10-06T19:26:56Z</time></trkpt>
<trkpt lat="24.058797" lon="106.51486">
<time>2016-10-06T19:26:57Z</time></trkpt>
<trkpt lat="24.058866" lon="106.51477">
<time>2016-10-06T19:26:58Z</time></trkpt>
<trkpt lat="24.058926" lon="106.514669">
<time>2016-10-06T19:26:59Z</time></trkpt>
<trkpt lat="24.058976" lon="106.514559">
<time>2016-10-06T19:27:00Z</time></trkpt>
<trkpt lat="24.059026" lon="106.514429">
<time>2016-10-06T19:27:01Z</time></trkpt>
<trkpt lat="24.059055" lon="106.514298">
<time>2016-10-06T19:27:02Z</time></trkpt>
<trkpt lat="24.059085" lon="106.514108">
<time>2016-10-06T19:27:03Z</time></trkpt>
<trkpt lat="24.059143" lon="106.513596">
<time>2016-10-06T19:27:04Z</time></trkpt>
<trkpt lat="24.059202" lon="106.513085">
<time>2016-10-06T19:27:05Z</time></trkpt>
<trkpt lat="24.059347" lon="106.511431">
<time>2016-10-06T19:27:06Z</time></trkpt>
<trkpt lat="24.059406" lon="106.510909">
<time>2016-10-06T19:27:07Z</time></trkpt>
<trkpt lat="24.059445" lon="106.510689">
<time>2016-10-06T19:27:08Z</time></trkpt>
<trkpt lat="24.059445" lon="106.510679">
<time>2016-10-06T19:27:09Z</time></trkpt>
<trkpt lat="24.059484" lon="106.510518">
<time>2016-10-06T19:27:10Z</time></trkpt>
<trkpt lat="24.059534" lon="106.510348">
<time>2016-10-06T19:27:11Z</time></trkpt>
<trkpt lat="24.059603" lon="106.510157">
<time>2016-10-06T19:27:12Z</time></trkpt>
<trkpt lat="24.059703" lon="106.509947">
<time>2016-10-06T19:27:13Z</time></trkpt>
<trkpt lat="24.059822" lon="106.509736">
<time>2016-10-06T19:27:14Z</time></trkpt>
<trkpt lat="24.059932" lon="106.509575">
<time>2016-10-06T19:27:15Z</time></trkpt>
<trkpt lat="24.060081" lon="106.509405">
<time>2016-10-06T19:27:16Z</time></trkpt>
<trkpt lat="24.060221" lon="106.509255">
<time>2016-10-06T19:27:17Z</time></trkpt>
<trkpt lat="24.06049" lon="106.509004">
<time>2016-10-06T19:27:18Z</time></trkpt>
<trkpt lat="24.061049" lon="106.508523">
<time>2016-10-06T19:27:19Z</time></trkpt>
<trkpt lat="24.062197" lon="106.50752">
<time>2016-10-06T19:27:20Z</time></trkpt>
<trkpt lat="24.062306" lon="106.507409">
<time>2016-10-06T19:27:21Z</time></trkpt>
<trkpt lat="24.062386" lon="106.507329">
<time>2016-10-06T19:27:22Z</time></trkpt>
<trkpt lat="24.062456" lon="106.507249">
<time>2016-10-06T19:27:23Z</time></trkpt>
<trkpt lat="24.062516" lon="106.507159">
<time>2016-10-06T19:27:24Z</time></trkpt>
<trkpt lat="24.062585" lon="106.507038">
<time>2016-10-06T19:27:25Z</time></trkpt>
<trkpt lat="24.062625" lon="106.506958">
<time>2016-10-06T19:27:26Z</time></trkpt>
<trkpt lat="24.062675" lon="106.506848">
<time>2016-10-06T19:27:27Z</time></trkpt>
<trkpt lat="24.062774" lon="106.506547">
<time>2016-10-06T19:27:28Z</time></trkpt>
<trkpt lat="24.062893" lon="106.506186">
<time>2016-10-06T19:27:29Z</time></trkpt>
<trkpt lat="24.062943" lon="106.506066">
<time>2016-10-06T19:27:30Z</time></trkpt>
<trkpt lat="24.062983" lon="106.505975">
<time>2016-10-06T19:27:31Z</time></trkpt>
<trkpt lat="24.063042" lon="106.505885">
<time>2016-10-06T19:27:32Z</time></trkpt>
<trkpt lat="24.063112" lon="106.505785">
<time>2016-10-06T19:27:33Z</time></trkpt>
<trkpt lat="24.063192" lon="106.505695">
<time>2016-10-06T19:27:34Z</time></trkpt>
<trkpt lat="24.063282" lon="106.505614">
<time>2016-10-06T19:27:35Z</time></trkpt>
<trkpt lat="24.063381" lon="106.505534">
<time>2016-10-06T19:27:36Z</time></trkpt>
<trkpt lat="24.063471" lon="106.505464">
<time>2016-10-06T19:27:37Z</time></trkpt>
<trkpt lat="24.063581" lon="106.505404">
<time>2016-10-06T19:27:38Z</time></trkpt>
<trkpt lat="24.063861" lon="106.505253">
<time>2016-10-06T19:27:39Z</time></trkpt>
<trkpt lat="24.06407" lon="106.505143">
<time>2016-10-06T19:27:40Z</time></trkpt>
<trkpt lat="24.0642" lon="106.505053">
<time>2016-10-06T19:27:41Z</time></trkpt>
<trkpt lat="24.06432" lon="106.504972">
<time>2016-10-06T19:27:42Z</time></trkpt>
<trkpt lat="24.06442" lon="106.504902">
<time>2016-10-06T19:27:43Z</time></trkpt>
<trkpt lat="24.06452" lon="106.504822">
<time>2016-10-06T19:27:44Z</time></trkpt>
<trkpt lat="24.06462" lon="106.504732">
<time>2016-10-06T19:27:45Z</time></trkpt>
<trkpt lat="24.064689" lon="106.504642">
<time>2016-10-06T19:27:46Z</time></trkpt>
<trkpt lat="24.064779" lon="106.504531">
<time>2016-10-06T19:27:47Z</time></trkpt>
<trkpt lat="24.064869" lon="106.504391">
<time>2016-10-06T19:27:48Z</time></trkpt>
<trkpt lat="24.064958" lon="106.50423">
<time>2016-10-06T19:27:49Z</time></trkpt>
<trkpt lat="24.065038" lon="106.50405">
<time>2016-10-06T19:27:50Z</time></trkpt>
<trkpt lat="24.065117" lon="106.503879">
<time>2016-10-06T19:27:51Z</time></trkpt>
<trkpt lat="24.065664" lon="106.502696">
<time>2016-10-06T19:27:52Z</time></trkpt>
<trkpt lat="24.065733" lon="106.502536">
<time>2016-10-06T19:27:53Z</time></trkpt>
<trkpt lat="24.065863" lon="106.502215">
<time>2016-10-06T19:27:54Z</time></trkpt>
<trkpt lat="24.065942" lon="106.502014">
<time>2016-10-06T19:27:55Z</time></trkpt>
<trkpt lat="24.066011" lon="106.501824">
<time>2016-10-06T19:27:56Z</time></trkpt>
<trkpt lat="24.066021" lon="106.501773">
<time>2016-10-06T19:27:57Z</time></trkpt>
<trkpt lat="24.066111" lon="106.501503">
<time>2016-10-06T19:27:58Z</time></trkpt>
<trkpt lat="24.06618" lon="106.501282">
<time>2016-10-06T19:27:59Z</time></trkpt>
<trkpt lat="24.066289" lon="106.500881">
<time>2016-10-06T19:28:00Z</time></trkpt>
<trkpt lat="24.066378" lon="106.50054">
<time>2016-10-06T19:28:01Z</time></trkpt>
<trkpt lat="24.066506" lon="106.500018">
<time>2016-10-06T19:28:02Z</time></trkpt>
<trkpt lat="24.066724" lon="106.499086">
<time>2016-10-06T19:28:03Z</time></trkpt>
<trkpt lat="24.066901" lon="106.498293">
<time>2016-10-06T19:28:04Z</time></trkpt>
<trkpt lat="24.067059" lon="106.497612">
<time>2016-10-06T19:28:05Z</time></trkpt>
<trkpt lat="24.067178" lon="106.4971">
<time>2016-10-06T19:28:06Z</time></trkpt>
<trkpt lat="24.067257" lon="106.496749">
<time>2016-10-06T19:28:07Z</time></trkpt>
<trkpt lat="24.067336" lon="106.496398">
<time>2016-10-06T19:28:08Z</time></trkpt>
<trkpt lat="24.067395" lon="106.496167">
<time>2016-10-06T19:28:09Z</time></trkpt>
<trkpt lat="24.067445" lon="106.495997">
<time>2016-10-06T19:28:10Z</time></trkpt>
<trkpt lat="24.067514" lon="106.495786">
<time>2016-10-06T19:28:11Z</time></trkpt>
<trkpt lat="24.067752" lon="106.495265">
<time>2016-10-06T19:28:12Z</time></trkpt>
<trkpt lat="24.067931" lon="106.494894">
<time>2016-10-06T19:28:13Z</time></trkpt>
<trkpt lat="24.06826" lon="106.494332">
<time>2016-10-06T19:28:14Z</time></trkpt>
<trkpt lat="24.068558" lon="106.493801">
<time>2016-10-06T19:28:15Z</time></trkpt>
<trkpt lat="24.068688" lon="106.4936">
<time>2016-10-06T19:28:16Z</time></trkpt>
<trkpt lat="24.068758" lon="106.4935">
<time>2016-10-06T19:28:17Z</time></trkpt>
<trkpt lat="24.068817" lon="106.49343">
<time>2016-10-06T19:28:18Z</time></trkpt>
<trkpt lat="24.068887" lon="106.493359">
<time>2016-10-06T19:28:19Z</time></trkpt>
<trkpt lat="24.068947" lon="106.493299">
<time>2016-10-06T19:28:20Z</time></trkpt>
<trkpt lat="24.069017" lon="106.493249">
<time>2016-10-06T19:28:21Z</time></trkpt>
<trkpt lat="24.069077" lon="106.493189">
<time>2016-10-06T19:28:22Z</time></trkpt>
<trkpt lat="24.069177" lon="106.493129">
<time>2016-10-06T19:28:23Z</time></trkpt>
<trkpt lat="24.069326" lon="106.493038">
<time>2016-10-06T19:28:24Z</time></trkpt>
<trkpt lat="24.069456" lon="106.492968">
<time>2016-10-06T19:28:25Z</time></trkpt>
<trkpt lat="24.069766" lon="106.492808">
<time>2016-10-06T19:28:26Z</time></trkpt>
<trkpt lat="24.070066" lon="106.492667">
<time>2016-10-06T19:28:27Z</time></trkpt>
<trkpt lat="24.070335" lon="106.492537">
<time>2016-10-06T19:28:28Z</time></trkpt>
<trkpt lat="24.071384" lon="106.491995">
<time>2016-10-06T19:28:29Z</time></trkpt>
<trkpt lat="24.071654" lon="106.491855">
<time>2016-10-06T19:28:30Z</time></trkpt>
<trkpt lat="24.071824" lon="106.491765">
<time>2016-10-06T19:28:31Z</time></trkpt>
<trkpt lat="24.072093" lon="106.491574">
<time>2016-10-06T19:28:32Z</time></trkpt>
<trkpt lat="24.072313" lon="106.491394">
<time>2016-10-06T19:28:33Z</time></trkpt>
<trkpt lat="24.072462" lon="106.491253">
<time>2016-10-06T19:28:34Z</time></trkpt>
<trkpt lat="24.072602" lon="106.491093">
<time>2016-10-06T19:28:35Z</time></trkpt>
<trkpt lat="24.072791" lon="106.490872">
<time>2016-10-06T19:28:36Z</time></trkpt>
<trkpt lat="24.072901" lon="106.490742">
<time>2016-10-06T19:28:37Z</time></trkpt>
<trkpt lat="24.072971" lon="106.490662">
<time>2016-10-06T19:28:38Z</time></trkpt>
<trkpt lat="24.073051" lon="106.490601">
<time>2016-10-06T19:28:39Z</time></trkpt>
<trkpt lat="24.073121" lon="106.490541">
<time>2016-10-06T19:28:40Z</time></trkpt>
<trkpt lat="24.0732" lon="106.490491">
<time>2016-10-06T19:28:41Z</time></trkpt>
<trkpt lat="24.07329" lon="106.490451">
<time>2016-10-06T19:28:42Z</time></trkpt>
<trkpt lat="24.0735" lon="106.490351">
<time>2016-10-06T19:28:43Z</time></trkpt>
<trkpt lat="24.07379" lon="106.49022">
<time>2016-10-06T19:28:44Z</time></trkpt>
<trkpt lat="24.07392" lon="106.49015">
<time>2016-10-06T19:28:45Z</time></trkpt>
<trkpt lat="24.07403" lon="106.49008">
<time>2016-10-06T19:28:46Z</time></trkpt>
<trkpt lat="24.074129" lon="106.49002">
<time>2016-10-06T19:28:47Z</time></trkpt>
<trkpt lat="24.074239" lon="106.489939">
<time>2016-10-06T19:28:48Z</time></trkpt>
<trkpt lat="24.074319" lon="106.489869">
<time>2016-10-06T19:28:49Z</time></trkpt>
<trkpt lat="24.074389" lon="106.489799">
<time>2016-10-06T19:28:50Z</time></trkpt>
<trkpt lat="24.074489" lon="106.489699">
<time>2016-10-06T19:28:51Z</time></trkpt>
<trkpt lat="24.074987" lon="106.489037">
<time>2016-10-06T19:28:52Z</time></trkpt>
<trkpt lat="24.075286" lon="106.488666">
<time>2016-10-06T19:28:53Z</time></trkpt>
<trkpt lat="24.075475" lon="106.488445">
<time>2016-10-06T19:28:54Z</time></trkpt>
<trkpt lat="24.075605" lon="106.488295">
<time>2016-10-06T19:28:55Z</time></trkpt>
<trkpt lat="24.075844" lon="106.488044">
<time>2016-10-06T19:28:56Z</time></trkpt>
<trkpt lat="24.075924" lon="106.487964">
<time>2016-10-06T19:28:57Z</time></trkpt>
<trkpt lat="24.075984" lon="106.487904">
<time>2016-10-06T19:28:58Z</time></trkpt>
<trkpt lat="24.076094" lon="106.487803">
<time>2016-10-06T19:28:59Z</time></trkpt>
<trkpt lat="24.076293" lon="106.487653">
<time>2016-10-06T19:29:00Z</time></trkpt>
<trkpt lat="24.076613" lon="106.487402">
<time>2016-10-06T19:29:01Z</time></trkpt>
<trkpt lat="24.077271" lon="106.486891">
<time>2016-10-06T19:29:02Z</time></trkpt>
<trkpt lat="24.077501" lon="106.48671">
<time>2016-10-06T19:29:03Z</time></trkpt>
<trkpt lat="24.077661" lon="106.48657">
<time>2016-10-06T19:29:04Z</time></trkpt>
<trkpt lat="24.07781" lon="106.486429">
<time>2016-10-06T19:29:05Z</time></trkpt>
<trkpt lat="24.078" lon="106.486219">
<time>2016-10-06T19:29:06Z</time></trkpt>
<trkpt lat="24.078259" lon="106.485918">
<time>2016-10-06T19:29:07Z</time></trkpt>
<trkpt lat="24.078478" lon="106.485647">
<time>2016-10-06T19:29:08Z</time></trkpt>
<trkpt lat="24.078598" lon="106.485487">
<time>2016-10-06T19:29:09Z</time></trkpt>
<trkpt lat="24.078668" lon="106.485386">
<time>2016-10-06T19:29:10Z</time></trkpt>
<trkpt lat="24.078747" lon="106.485246">
<time>2016-10-06T19:29:11Z</time></trkpt>
<trkpt lat="24.078847" lon="106.485045">
<time>2016-10-06T19:29:12Z</time></trkpt>
<trkpt lat="24.078966" lon="106.484775">
<time>2016-10-06T19:29:13Z</time></trkpt>
<trkpt lat="24.079105" lon="106.484484">
<time>2016-10-06T19:29:14Z</time></trkpt>
<trkpt lat="24.079463" lon="106.483782">
<time>2016-10-06T19:29:15Z</time></trkpt>
<trkpt lat="24.079652" lon="106.483491">
<time>2016-10-06T19:29:16Z</time></trkpt>
<trkpt lat="24.079822" lon="106.48326">
<time>2016-10-06T19:29:17Z</time></trkpt>
<trkpt lat="24.079971" lon="106.48306">
<time>2016-10-06T19:29:18Z</time></trkpt>
<trkpt lat="24.080171" lon="106.482839">
<time>2016-10-06T19:29:19Z</time></trkpt>
<trkpt lat="24.08038" lon="106.482619">
<time>2016-10-06T19:29:20Z</time></trkpt>
<trkpt lat="24.0805" lon="106.482498">
<time>2016-10-06T19:29:21Z</time></trkpt>
<trkpt lat="24.08065" lon="106.482368">
<time>2016-10-06T19:29:22Z</time></trkpt>
<trkpt lat="24.080789" lon="106.482248">
<time>2016-10-06T19:29:23Z</time></trkpt>
<trkpt lat="24.080929" lon="106.482137">
<time>2016-10-06T19:29:24Z</time></trkpt>
<trkpt lat="24.081069" lon="106.482047">
<time>2016-10-06T19:29:25Z</time></trkpt>
<trkpt lat="24.081289" lon="106.481897">
<time>2016-10-06T19:29:26Z</time></trkpt>
<trkpt lat="24.081888" lon="106.481485">
<time>2016-10-06T19:29:27Z</time></trkpt>
<trkpt lat="24.082037" lon="106.481375">
<time>2016-10-06T19:29:28Z</time></trkpt>
<trkpt lat="24.082147" lon="106.481285">
<time>2016-10-06T19:29:29Z</time></trkpt>
<trkpt lat="24.082237" lon="106.481185">
<time>2016-10-06T19:29:30Z</time></trkpt>
<trkpt lat="24.082356" lon="106.481014">
<time>2016-10-06T19:29:31Z</time></trkpt>
<trkpt lat="24.082486" lon="106.480793">
<time>2016-10-06T19:29:32Z</time></trkpt>
<trkpt lat="24.082655" lon="106.480503">
<time>2016-10-06T19:29:33Z</time></trkpt>
<trkpt lat="24.082854" lon="106.480162">
<time>2016-10-06T19:29:34Z</time></trkpt>
<trkpt lat="24.083093" lon="106.479841">
<time>2016-10-06T19:29:35Z</time></trkpt>
<trkpt lat="24.083263" lon="106.47964">
<time>2016-10-06T19:29:36Z</time></trkpt>
<trkpt lat="24.083353" lon="106.47954">
<time>2016-10-06T19:29:37Z</time></trkpt>
<trkpt lat="24.083412" lon="106.47948">
<time>2016-10-06T19:29:38Z</time></trkpt>
<trkpt lat="24.083482" lon="106.47941">
<time>2016-10-06T19:29:39Z</time></trkpt>
<trkpt lat="24.083622" lon="106.479279">
<time>2016-10-06T19:29:40Z</time></trkpt>
<trkpt lat="24.083851" lon="106.479079">
<time>2016-10-06T19:29:41Z</time></trkpt>
<trkpt lat="24.084201" lon="106.478798">
<time>2016-10-06T19:29:42Z</time></trkpt>
<trkpt lat="24.084251" lon="106.478758">
<time>2016-10-06T19:29:43Z</time></trkpt>
<trkpt lat="24.08437" lon="106.478668">
<time>2016-10-06T19:29:44Z</time></trkpt>
<trkpt lat="24.085778" lon="106.477554">
<time>2016-10-06T19:29:45Z</time></trkpt>
<trkpt lat="24.085958" lon="106.477404">
<time>2016-10-06T19:29:46Z</time></trkpt>
<trkpt lat="24.086027" lon="106.477344">
<time>2016-10-06T19:29:47Z</time></trkpt>
<trkpt lat="24.086127" lon="106.477244">
<time>2016-10-06T19:29:48Z</time></trkpt>
<trkpt lat="24.086187" lon="106.477173">
<time>2016-10-06T19:29:49Z</time></trkpt>
<trkpt lat="24.086247" lon="106.477103">
<time>2016-10-06T19:29:50Z</time></trkpt>
<trkpt lat="24.086326" lon="106.476983">
<time>2016-10-06T19:29:51Z</time></trkpt>
<trkpt lat="24.086396" lon="106.476873">
<time>2016-10-06T19:29:52Z</time></trkpt>
<trkpt lat="24.086456" lon="106.476762">
<time>2016-10-06T19:29:53Z</time></trkpt>
<trkpt lat="24.086496" lon="106.476662">
<time>2016-10-06T19:29:54Z</time></trkpt>
<trkpt lat="24.086535" lon="106.476552">
<time>2016-10-06T19:29:55Z</time></trkpt>
<trkpt lat="24.086565" lon="106.476431">
<time>2016-10-06T19:29:56Z</time></trkpt>
<trkpt lat="24.086585" lon="106.476311">
<time>2016-10-06T19:29:57Z</time></trkpt>
<trkpt lat="24.086584" lon="106.476171">
<time>2016-10-06T19:29:58Z</time></trkpt>
<trkpt lat="24.086574" lon="106.47604">
<time>2016-10-06T19:29:59Z</time></trkpt>
<trkpt lat="24.086543" lon="106.47585">
<time>2016-10-06T19:30:00Z</time></trkpt>
<trkpt lat="24.086442" lon="106.475389">
<time>2016-10-06T19:30:01Z</time></trkpt>
<trkpt lat="24.086412" lon="106.475228">
<time>2016-10-06T19:30:02Z</time></trkpt>
<trkpt lat="24.086371" lon="106.475088">
<time>2016-10-06T19:30:03Z</time></trkpt>
<trkpt lat="24.086361" lon="106.474937">
<time>2016-10-06T19:30:04Z</time></trkpt>
<trkpt lat="24.08635" lon="106.474777">
<time>2016-10-06T19:30:05Z</time></trkpt>
<trkpt lat="24.08636" lon="106.474627">
<time>2016-10-06T19:30:06Z</time></trkpt>
<trkpt lat="24.086389" lon="106.474476">
<time>2016-10-06T19:30:07Z</time></trkpt>
<trkpt lat="24.086429" lon="106.474336">
<time>2016-10-06T19:30:08Z</time></trkpt>
<trkpt lat="24.086479" lon="106.474205">
<time>2016-10-06T19:30:09Z</time></trkpt>
<trkpt lat="24.086548" lon="106.474085">
<time>2016-10-06T19:30:10Z</time></trkpt>
<trkpt lat="24.086638" lon="106.473945">
<time>2016-10-06T19:30:11Z</time></trkpt>
<trkpt lat="24.086957" lon="106.473484">
<time>2016-10-06T19:30:12Z</time></trkpt>
<trkpt lat="24.087306" lon="106.473012">
<time>2016-10-06T19:30:13Z</time></trkpt>
<trkpt lat="24.087495" lon="106.472701">
<time>2016-10-06T19:30:14Z</time></trkpt>
<trkpt lat="24.087664" lon="106.472411">
<time>2016-10-06T19:30:15Z</time></trkpt>
<trkpt lat="24.087863" lon="106.47201">
<time>2016-10-06T19:30:16Z</time></trkpt>
<trkpt lat="24.088351" lon="106.471117">
<time>2016-10-06T19:30:17Z</time></trkpt>
<trkpt lat="24.08854" lon="106.470776">
<time>2016-10-06T19:30:18Z</time></trkpt>
<trkpt lat="24.088909" lon="106.470215">
<time>2016-10-06T19:30:19Z</time></trkpt>
<trkpt lat="24.089546" lon="106.469303">
<time>2016-10-06T19:30:20Z</time></trkpt>
<trkpt lat="24.090184" lon="106.46841">
<time>2016-10-06T19:30:21Z</time></trkpt>
<trkpt lat="24.090314" lon="106.46821">
<time>2016-10-06T19:30:22Z</time></trkpt>
<trkpt lat="24.090513" lon="106.467939">
<time>2016-10-06T19:30:23Z</time></trkpt>
<trkpt lat="24.090653" lon="106.467769">
<time>2016-10-06T19:30:24Z</time></trkpt>
<trkpt lat="24.090793" lon="106.467638">
<time>2016-10-06T19:30:25Z</time></trkpt>
<trkpt lat="24.090922" lon="106.467528">
<time>2016-10-06T19:30:26Z</time></trkpt>
<trkpt lat="24.091062" lon="106.467428">
<time>2016-10-06T19:30:27Z</time></trkpt>
<trkpt lat="24.091402" lon="106.467187">
<time>2016-10-06T19:30:28Z</time></trkpt>
<trkpt lat="24.091921" lon="106.466846">
<time>2016-10-06T19:30:29Z</time></trkpt>
<trkpt lat="24.09229" lon="106.466556">
<time>2016-10-06T19:30:30Z</time></trkpt>
<trkpt lat="24.09251" lon="106.466385">
<time>2016-10-06T19:30:31Z</time></trkpt>
<trkpt lat="24.0926" lon="106.466305">
<time>2016-10-06T19:30:32Z</time></trkpt>
<trkpt lat="24.092999" lon="106.465974">
<time>2016-10-06T19:30:33Z</time></trkpt>
<trkpt lat="24.093189" lon="106.465814">
<time>2016-10-06T19:30:34Z</time></trkpt>
<trkpt lat="24.093279" lon="106.465733">
<time>2016-10-06T19:30:35Z</time></trkpt>
<trkpt lat="24.093408" lon="106.465603">
<time>2016-10-06T19:30:36Z</time></trkpt>
<trkpt lat="24.093518" lon="106.465473">
<time>2016-10-06T19:30:37Z</time></trkpt>
<trkpt lat="24.093598" lon="106.465363">
<time>2016-10-06T19:30:38Z</time></trkpt>
<trkpt lat="24.093717" lon="106.465182">
<time>2016-10-06T19:30:39Z</time></trkpt>
<trkpt lat="24.093956" lon="106.464781">
<time>2016-10-06T19:30:40Z</time></trkpt>
<trkpt lat="24.094345" lon="106.464129">
<time>2016-10-06T19:30:41Z</time></trkpt>
<trkpt lat="24.094464" lon="106.463919">
<time>2016-10-06T19:30:42Z</time></trkpt>
<trkpt lat="24.094524" lon="106.463789">
<time>2016-10-06T19:30:43Z</time></trkpt>
<trkpt lat="24.094574" lon="106.463678">
<time>2016-10-06T19:30:44Z</time></trkpt>
<trkpt lat="24.094623" lon="106.463558">
<time>2016-10-06T19:30:45Z</time></trkpt>
<trkpt lat="24.094653" lon="106.463448">
<time>2016-10-06T19:30:46Z</time></trkpt>
<trkpt lat="24.094693" lon="106.463328">
<time>2016-10-06T19:30:47Z</time></trkpt>
<trkpt lat="24.09496" lon="106.462255">
<time>2016-10-06T19:30:48Z</time></trkpt>
<trkpt lat="24.09504" lon="106.461944">
<time>2016-10-06T19:30:49Z</time></trkpt>
<trkpt lat="24.095099" lon="106.461784">
<time>2016-10-06T19:30:50Z</time></trkpt>
<trkpt lat="24.095149" lon="106.461664">
<time>2016-10-06T19:30:51Z</time></trkpt>
<trkpt lat="24.095208" lon="106.461513">
<time>2016-10-06T19:30:52Z</time></trkpt>
<trkpt lat="24.095268" lon="106.461393">
<time>2016-10-06T19:30:53Z</time></trkpt>
<trkpt lat="24.095358" lon="106.461243">
<time>2016-10-06T19:30:54Z</time></trkpt>
<trkpt lat="24.095448" lon="106.461112">
<time>2016-10-06T19:30:55Z</time></trkpt>
<trkpt lat="24.095547" lon="106.460982">
<time>2016-10-06T19:30:56Z</time></trkpt>
<trkpt lat="24.095797" lon="106.460661">
<time>2016-10-06T19:30:57Z</time></trkpt>
<trkpt lat="24.095916" lon="106.460521">
<time>2016-10-06T19:30:58Z</time></trkpt>
<trkpt lat="24.096006" lon="106.460391">
<time>2016-10-06T19:30:59Z</time></trkpt>
<trkpt lat="24.096076" lon="106.4603">
<time>2016-10-06T19:31:00Z</time></trkpt>
<trkpt lat="24.096156" lon="106.46016">
<time>2016-10-06T19:31:01Z</time></trkpt>
<trkpt lat="24.096225" lon="106.46003">
<time>2016-10-06T19:31:02Z</time></trkpt>
<trkpt lat="24.096335" lon="106.459779">
<time>2016-10-06T19:31:03Z</time></trkpt>
<trkpt lat="24.096424" lon="106.459579">
<time>2016-10-06T19:31:04Z</time></trkpt>
<trkpt lat="24.097459" lon="106.457223">
<time>2016-10-06T19:31:05Z</time></trkpt>
<trkpt lat="24.097658" lon="106.456913">
<time>2016-10-06T19:31:06Z</time></trkpt>
<trkpt lat="24.097868" lon="106.456712">
<time>2016-10-06T19:31:07Z</time></trkpt>
<trkpt lat="24.098088" lon="106.456572">
<time>2016-10-06T19:31:08Z</time></trkpt>
<trkpt lat="24.098438" lon="106.456492">
<time>2016-10-06T19:31:09Z</time></trkpt>
<trkpt lat="24.098678" lon="106.456502">
<time>2016-10-06T19:31:10Z</time></trkpt>
<trkpt lat="24.098818" lon="106.456532">
<time>2016-10-06T19:31:11Z</time></trkpt>
<trkpt lat="24.099529" lon="106.456732">
<time>2016-10-06T19:31:12Z</time></trkpt>
<trkpt lat="24.099709" lon="106.456732">
<time>2016-10-06T19:31:13Z</time></trkpt>
<trkpt lat="24.099869" lon="106.456702">
<time>2016-10-06T19:31:14Z</time></trkpt>
<trkpt lat="24.100049" lon="106.456662">
<time>2016-10-06T19:31:15Z</time></trkpt>
<trkpt lat="24.100229" lon="106.456572">
<time>2016-10-06T19:31:16Z</time></trkpt>
<trkpt lat="24.100398" lon="106.456461">
<time>2016-10-06T19:31:17Z</time></trkpt>
<trkpt lat="24.100618" lon="106.456211">
<time>2016-10-06T19:31:18Z</time></trkpt>
<trkpt lat="24.100907" lon="106.45567">
<time>2016-10-06T19:31:19Z</time></trkpt>
<trkpt lat="24.101325" lon="106.454698">
<time>2016-10-06T19:31:20Z</time></trkpt>
<trkpt lat="24.101484" lon="106.454277">
<time>2016-10-06T19:31:21Z</time></trkpt>
<trkpt lat="24.101792" lon="106.453405">
<time>2016-10-06T19:31:22Z</time></trkpt>
<trkpt lat="24.101971" lon="106.453074">
<time>2016-10-06T19:31:23Z</time></trkpt>
<trkpt lat="24.102211" lon="106.452763">
<time>2016-10-06T19:31:24Z</time></trkpt>
<trkpt lat="24.10255" lon="106.452473">
<time>2016-10-06T19:31:25Z</time></trkpt>
<trkpt lat="24.103438" lon="106.451611">
<time>2016-10-06T19:31:26Z</time></trkpt>
<trkpt lat="24.104017" lon="106.450769">
<time>2016-10-06T19:31:27Z</time></trkpt>
<trkpt lat="24.107129" lon="106.446301">
<time>2016-10-06T19:31:28Z</time></trkpt>
<trkpt lat="24.107887" lon="106.445369">
<time>2016-10-06T19:31:29Z</time></trkpt>
<trkpt lat="24.108127" lon="106.445128">
<time>2016-10-06T19:31:30Z</time></trkpt>
<trkpt lat="24.108826" lon="106.444447">
<time>2016-10-06T19:31:31Z</time></trkpt>
<trkpt lat="24.109075" lon="106.444187">
<time>2016-10-06T19:31:32Z</time></trkpt>
<trkpt lat="24.109135" lon="106.444107">
<time>2016-10-06T19:31:33Z</time></trkpt>
<trkpt lat="24.109445" lon="106.443686">
<time>2016-10-06T19:31:34Z</time></trkpt>
<trkpt lat="24.111041" lon="106.441262">
<time>2016-10-06T19:31:35Z</time></trkpt>
<trkpt lat="24.11112" lon="106.441171">
<time>2016-10-06T19:31:36Z</time></trkpt>
<trkpt lat="24.1112" lon="106.441081">
<time>2016-10-06T19:31:37Z</time></trkpt>
<trkpt lat="24.11127" lon="106.440971">
<time>2016-10-06T19:31:38Z</time></trkpt>
<trkpt lat="24.11134" lon="106.440871">
<time>2016-10-06T19:31:39Z</time></trkpt>
<trkpt lat="24.11141" lon="106.440751">
<time>2016-10-06T19:31:40Z</time></trkpt>
<trkpt lat="24.11146" lon="106.440641">
<time>2016-10-06T19:31:41Z</time></trkpt>
<trkpt lat="24.111509" lon="106.44051">
<time>2016-10-06T19:31:42Z</time></trkpt>
<trkpt lat="24.111559" lon="106.44038">
<time>2016-10-06T19:31:43Z</time></trkpt>
<trkpt lat="24.111679" lon="106.43999">
<time>2016-10-06T19:31:44Z</time></trkpt>
<trkpt lat="24.112017" lon="106.438828">
<time>2016-10-06T19:31:45Z</time></trkpt>
<trkpt lat="24.112235" lon="106.438087">
<time>2016-10-06T19:31:46Z</time></trkpt>
<trkpt lat="24.112305" lon="106.437846">
<time>2016-10-06T19:31:47Z</time></trkpt>
<trkpt lat="24.112345" lon="106.437646">
<time>2016-10-06T19:31:48Z</time></trkpt>
<trkpt lat="24.112434" lon="106.437145">
<time>2016-10-06T19:31:49Z</time></trkpt>
<trkpt lat="24.112444" lon="106.436995">
<time>2016-10-06T19:31:50Z</time></trkpt>
<trkpt lat="24.112453" lon="106.436775">
<time>2016-10-06T19:31:51Z</time></trkpt>
<trkpt lat="24.112453" lon="106.436484">
<time>2016-10-06T19:31:52Z</time></trkpt>
<trkpt lat="24.112482" lon="106.436054">
<time>2016-10-06T19:31:53Z</time></trkpt>
<trkpt lat="24.112522" lon="106.435713">
<time>2016-10-06T19:31:54Z</time></trkpt>
<trkpt lat="24.112611" lon="106.435343">
<time>2016-10-06T19:31:55Z</time></trkpt>
<trkpt lat="24.11273" lon="106.435012">
<time>2016-10-06T19:31:56Z</time></trkpt>
<trkpt lat="24.11283" lon="106.434842">
<time>2016-10-06T19:31:57Z</time></trkpt>
<trkpt lat="24.11298" lon="106.434712">
<time>2016-10-06T19:31:58Z</time></trkpt>
<trkpt lat="24.11327" lon="106.434561">
<time>2016-10-06T19:31:59Z</time></trkpt>
<trkpt lat="24.11371" lon="106.434491">
<time>2016-10-06T19:32:00Z</time></trkpt>
<trkpt lat="24.1142" lon="106.434521">
<time>2016-10-06T19:32:01Z</time></trkpt>
<trkpt lat="24.11431" lon="106.434521">
<time>2016-10-06T19:32:02Z</time></trkpt>
<trkpt lat="24.11442" lon="106.434511">
<time>2016-10-06T19:32:03Z</time></trkpt>
<trkpt lat="24.1145" lon="106.434491">
<time>2016-10-06T19:32:04Z</time></trkpt>
<trkpt lat="24.11458" lon="106.434461">
<time>2016-10-06T19:32:05Z</time></trkpt>
<trkpt lat="24.11466" lon="106.434431">
<time>2016-10-06T19:32:06Z</time></trkpt>
<trkpt lat="24.11472" lon="106.434391">
<time>2016-10-06T19:32:07Z</time></trkpt>
<trkpt lat="24.11479" lon="106.434351">
<time>2016-10-06T19:32:08Z</time></trkpt>
<trkpt lat="24.11487" lon="106.434291">
<time>2016-10-06T19:32:09Z</time></trkpt>
<trkpt lat="24.11496" lon="106.434211">
<time>2016-10-06T19:32:10Z</time></trkpt>
<trkpt lat="24.11507" lon="106.434101">
<time>2016-10-06T19:32:11Z</time></trkpt>
<trkpt lat="24.11523" lon="106.433921">
<time>2016-10-06T19:32:12Z</time></trkpt>
<trkpt lat="24.1154" lon="106.4337">
<time>2016-10-06T19:32:13Z</time></trkpt>
<trkpt lat="24.117137" lon="106.431397">
<time>2016-10-06T19:32:14Z</time></trkpt>
<trkpt lat="24.117496" lon="106.430937">
<time>2016-10-06T19:32:15Z</time></trkpt>
<trkpt lat="24.117656" lon="106.430736">
<time>2016-10-06T19:32:16Z</time></trkpt>
<trkpt lat="24.117806" lon="106.430566">
<time>2016-10-06T19:32:17Z</time></trkpt>
<trkpt lat="24.118016" lon="106.430346">
<time>2016-10-06T19:32:18Z</time></trkpt>
<trkpt lat="24.118166" lon="106.430206">
<time>2016-10-06T19:32:19Z</time></trkpt>
<trkpt lat="24.118515" lon="106.429915">
<time>2016-10-06T19:32:20Z</time></trkpt>
<trkpt lat="24.118805" lon="106.429655">
<time>2016-10-06T19:32:21Z</time></trkpt>
<trkpt lat="24.119045" lon="106.429445">
<time>2016-10-06T19:32:22Z</time></trkpt>
<trkpt lat="24.119135" lon="106.429345">
<time>2016-10-06T19:32:23Z</time></trkpt>
<trkpt lat="24.119235" lon="106.429225">
<time>2016-10-06T19:32:24Z</time></trkpt>
<trkpt lat="24.119344" lon="106.429084">
<time>2016-10-06T19:32:25Z</time></trkpt>
<trkpt lat="24.119414" lon="106.428944">
<time>2016-10-06T19:32:26Z</time></trkpt>
<trkpt lat="24.119524" lon="106.428724">
<time>2016-10-06T19:32:27Z</time></trkpt>
<trkpt lat="24.120093" lon="106.427453">
<time>2016-10-06T19:32:28Z</time></trkpt>
<trkpt lat="24.120202" lon="106.427222">
<time>2016-10-06T19:32:29Z</time></trkpt>
<trkpt lat="24.120302" lon="106.427042">
<time>2016-10-06T19:32:30Z</time></trkpt>
<trkpt lat="24.120402" lon="106.426862">
<time>2016-10-06T19:32:31Z</time></trkpt>
<trkpt lat="24.120532" lon="106.426662">
<time>2016-10-06T19:32:32Z</time></trkpt>
<trkpt lat="24.120682" lon="106.426432">
<time>2016-10-06T19:32:33Z</time></trkpt>
<trkpt lat="24.120801" lon="106.426261">
<time>2016-10-06T19:32:34Z</time></trkpt>
<trkpt lat="24.120901" lon="106.426141">
<time>2016-10-06T19:32:35Z</time></trkpt>
<trkpt lat="24.121001" lon="106.426011">
<time>2016-10-06T19:32:36Z</time></trkpt>
<trkpt lat="24.121091" lon="106.425901">
<time>2016-10-06T19:32:37Z</time></trkpt>
<trkpt lat="24.121581" lon="106.425401">
<time>2016-10-06T19:32:38Z</time></trkpt>
<trkpt lat="24.121671" lon="106.4253">
<time>2016-10-06T19:32:39Z</time></trkpt>
<trkpt lat="24.121741" lon="106.42522">
<time>2016-10-06T19:32:40Z</time></trkpt>
<trkpt lat="24.12181" lon="106.42512">
<time>2016-10-06T19:32:41Z</time></trkpt>
<trkpt lat="24.12187" lon="106.42502">
<time>2016-10-06T19:32:42Z</time></trkpt>
<trkpt lat="24.12192" lon="106.42493">
<time>2016-10-06T19:32:43Z</time></trkpt>
<trkpt lat="24.12197" lon="106.42482">
<time>2016-10-06T19:32:44Z</time></trkpt>
<trkpt lat="24.12205" lon="106.42462">
<time>2016-10-06T19:32:45Z</time></trkpt>
<trkpt lat="24.12218" lon="106.424279">
<time>2016-10-06T19:32:46Z</time></trkpt>
<trkpt lat="24.122269" lon="106.424059">
<time>2016-10-06T19:32:47Z</time></trkpt>
<trkpt lat="24.122369" lon="106.423849">
<time>2016-10-06T19:32:48Z</time></trkpt>
<trkpt lat="24.122469" lon="106.423679">
<time>2016-10-06T19:32:49Z</time></trkpt>
<trkpt lat="24.122579" lon="106.423529">
<time>2016-10-06T19:32:50Z</time></trkpt>
<trkpt lat="24.122699" lon="106.423389">
<time>2016-10-06T19:32:51Z</time></trkpt>
<trkpt lat="24.122909" lon="106.423158">
<time>2016-10-06T19:32:52Z</time></trkpt>
<trkpt lat="24.123508" lon="106.422528">
<time>2016-10-06T19:32:53Z</time></trkpt>
<trkpt lat="24.123778" lon="106.422218">
<time>2016-10-06T19:32:54Z</time></trkpt>
<trkpt lat="24.124068" lon="106.421907">
<time>2016-10-06T19:32:55Z</time></trkpt>
<trkpt lat="24.124507" lon="106.421387">
<time>2016-10-06T19:32:56Z</time></trkpt>
<trkpt lat="24.125177" lon="106.420556">
<time>2016-10-06T19:32:57Z</time></trkpt>
<trkpt lat="24.125806" lon="106.419746">
<time>2016-10-06T19:32:58Z</time></trkpt>
<trkpt lat="24.127195" lon="106.418015">
<time>2016-10-06T19:32:59Z</time></trkpt>
<trkpt lat="24.128914" lon="106.415853">
<time>2016-10-06T19:33:00Z</time></trkpt>
<trkpt lat="24.130833" lon="106.413422">
<time>2016-10-06T19:33:01Z</time></trkpt>
<trkpt lat="24.131383" lon="106.412742">
<time>2016-10-06T19:33:02Z</time></trkpt>
<trkpt lat="24.131753" lon="106.412262">
<time>2016-10-06T19:33:03Z</time></trkpt>
<trkpt lat="24.131913" lon="106.412042">
<time>2016-10-06T19:33:04Z</time></trkpt>
<trkpt lat="24.132063" lon="106.411842">
<time>2016-10-06T19:33:05Z</time></trkpt>
<trkpt lat="24.132183" lon="106.411662">
<time>2016-10-06T19:33:06Z</time></trkpt>
<trkpt lat="24.132313" lon="106.411471">
<time>2016-10-06T19:33:07Z</time></trkpt>
<trkpt lat="24.132423" lon="106.411291">
<time>2016-10-06T19:33:08Z</time></trkpt>
<trkpt lat="24.132543" lon="106.411091">
<time>2016-10-06T19:33:09Z</time></trkpt>
<trkpt lat="24.132673" lon="106.410841">
<time>2016-10-06T19:33:10Z</time></trkpt>
<trkpt lat="24.132773" lon="106.410661">
<time>2016-10-06T19:33:11Z</time></trkpt>
<trkpt lat="24.133552" lon="106.408961">
<time>2016-10-06T19:33:12Z</time></trkpt>
<trkpt lat="24.133782" lon="106.408461">
<time>2016-10-06T19:33:13Z</time></trkpt>
<trkpt lat="24.133972" lon="106.408001">
<time>2016-10-06T19:33:14Z</time></trkpt>
<trkpt lat="24.134202" lon="106.407481">
<time>2016-10-06T19:33:15Z</time></trkpt>
<trkpt lat="24.134342" lon="106.407201">
<time>2016-10-06T19:33:16Z</time></trkpt>
<trkpt lat="24.134372" lon="106.407151">
<time>2016-10-06T19:33:17Z</time></trkpt>
<trkpt lat="24.134442" lon="106.407021">
<time>2016-10-06T19:33:18Z</time></trkpt>
<trkpt lat="24.134522" lon="106.406891">
<time>2016-10-06T19:33:19Z</time></trkpt>
<trkpt lat="24.134602" lon="106.406801">
<time>2016-10-06T19:33:20Z</time></trkpt>
<trkpt lat="24.134672" lon="106.406721">
<time>2016-10-06T19:33:21Z</time></trkpt>
<trkpt lat="24.134732" lon="106.406661">
<time>2016-10-06T19:33:22Z</time></trkpt>
<trkpt lat="24.134802" lon="106.406611">
<time>2016-10-06T19:33:23Z</time></trkpt>
<trkpt lat="24.134822" lon="106.406591">
<time>2016-10-06T19:33:24Z</time></trkpt>
<trkpt lat="24.134892" lon="106.406551">
<time>2016-10-06T19:33:25Z</time></trkpt>
<trkpt lat="24.134982" lon="106.406511">
<time>2016-10-06T19:33:26Z</time></trkpt>
<trkpt lat="24.135052" lon="106.406481">
<time>2016-10-06T19:33:27Z</time></trkpt>
<trkpt lat="24.135102" lon="106.406461">
<time>2016-10-06T19:33:28Z</time></trkpt>
<trkpt lat="24.135142" lon="106.406451">
<time>2016-10-06T19:33:29Z</time></trkpt>
<trkpt lat="24.135192" lon="106.406441">
<time>2016-10-06T19:33:30Z</time></trkpt>
<trkpt lat="24.135222" lon="106.406431">
<time>2016-10-06T19:33:31Z</time></trkpt>
<trkpt lat="24.135252" lon="106.406421">
<time>2016-10-06T19:33:32Z</time></trkpt>
<trkpt lat="24.135312" lon="106.406421">
<time>2016-10-06T19:33:33Z</time></trkpt>
<trkpt lat="24.135382" lon="106.406411">
<time>2016-10-06T19:33:34Z</time></trkpt>
<trkpt lat="24.135432" lon="106.406411">
<time>2016-10-06T19:33:35Z</time></trkpt>
<trkpt lat="24.135512" lon="106.406421">
<time>2016-10-06T19:33:36Z</time></trkpt>
<trkpt lat="24.135622" lon="106.40644">
<time>2016-10-06T19:33:37Z</time></trkpt>
<trkpt lat="24.135742" lon="106.40647">
<time>2016-10-06T19:33:38Z</time></trkpt>
<trkpt lat="24.135902" lon="106.40653">
<time>2016-10-06T19:33:39Z</time></trkpt>
<trkpt lat="24.136082" lon="106.4066">
<time>2016-10-06T19:33:40Z</time></trkpt>
<trkpt lat="24.136312" lon="106.40672">
<time>2016-10-06T19:33:41Z</time></trkpt>
<trkpt lat="24.136492" lon="106.40681">
<time>2016-10-06T19:33:42Z</time></trkpt>
<trkpt lat="24.136733" lon="106.40691">
<time>2016-10-06T19:33:43Z</time></trkpt>
<trkpt lat="24.136933" lon="106.40699">
<time>2016-10-06T19:33:44Z</time></trkpt>
<trkpt lat="24.137073" lon="106.40703">
<time>2016-10-06T19:33:45Z</time></trkpt>
<trkpt lat="24.137163" lon="106.40705">
<time>2016-10-06T19:33:46Z</time></trkpt>
<trkpt lat="24.137253" lon="106.40707">
<time>2016-10-06T19:33:47Z</time></trkpt>
<trkpt lat="24.137353" lon="106.40708">
<time>2016-10-06T19:33:48Z</time></trkpt>
<trkpt lat="24.137493" lon="106.40709">
<time>2016-10-06T19:33:49Z</time></trkpt>
<trkpt lat="24.137693" lon="106.40709">
<time>2016-10-06T19:33:50Z</time></trkpt>
<trkpt lat="24.137753" lon="106.40709">
<time>2016-10-06T19:33:51Z</time></trkpt>
<trkpt lat="24.137793" lon="106.40709">
<time>2016-10-06T19:33:52Z</time></trkpt>
<trkpt lat="24.137873" lon="106.40708">
<time>2016-10-06T19:33:53Z</time></trkpt>
<trkpt lat="24.137943" lon="106.40707">
<time>2016-10-06T19:33:54Z</time></trkpt>
<trkpt lat="24.138033" lon="106.40705">
<time>2016-10-06T19:33:55Z</time></trkpt>
<trkpt lat="24.138173" lon="106.40702">
<time>2016-10-06T19:33:56Z</time></trkpt>
<trkpt lat="24.138383" lon="106.40694">
<time>2016-10-06T19:33:57Z</time></trkpt>
<trkpt lat="24.138573" lon="106.40686">
<time>2016-10-06T19:33:58Z</time></trkpt>
<trkpt lat="24.138763" lon="106.40676">
<time>2016-10-06T19:33:59Z</time></trkpt>
<trkpt lat="24.139103" lon="106.40656">
<time>2016-10-06T19:34:00Z</time></trkpt>
<trkpt lat="24.139363" lon="106.4064">
<time>2016-10-06T19:34:01Z</time></trkpt>
<trkpt lat="24.139513" lon="106.40629">
<time>2016-10-06T19:34:02Z</time></trkpt>
<trkpt lat="24.139673" lon="106.40617">
<time>2016-10-06T19:34:03Z</time></trkpt>
<trkpt lat="24.139773" lon="106.40607">
<time>2016-10-06T19:34:04Z</time></trkpt>
<trkpt lat="24.139883" lon="106.40595">
<time>2016-10-06T19:34:05Z</time></trkpt>
<trkpt lat="24.140013" lon="106.4058">
<time>2016-10-06T19:34:06Z</time></trkpt>
<trkpt lat="24.140093" lon="106.40569">
<time>2016-10-06T19:34:07Z</time></trkpt>
<trkpt lat="24.140163" lon="106.40557">
<time>2016-10-06T19:34:08Z</time></trkpt>
<trkpt lat="24.140223" lon="106.40547">
<time>2016-10-06T19:34:09Z</time></trkpt>
<trkpt lat="24.140273" lon="106.40537">
<time>2016-10-06T19:34:10Z</time></trkpt>
<trkpt lat="24.140333" lon="106.40525">
<time>2016-10-06T19:34:11Z</time></trkpt>
<trkpt lat="24.140383" lon="106.40513">
<time>2016-10-06T19:34:12Z</time></trkpt>
<trkpt lat="24.140433" lon="106.40497">
<time>2016-10-06T19:34:13Z</time></trkpt>
<trkpt lat="24.140473" lon="106.4048">
<time>2016-10-06T19:34:14Z</time></trkpt>
<trkpt lat="24.140523" lon="106.40454">
<time>2016-10-06T19:34:15Z</time></trkpt>
<trkpt lat="24.140583" lon="106.40407">
<time>2016-10-06T19:34:16Z</time></trkpt>
<trkpt lat="24.140613" lon="106.40388">
<time>2016-10-06T19:34:17Z</time></trkpt>
<trkpt lat="24.140643" lon="106.40374">
<time>2016-10-06T19:34:18Z</time></trkpt>
<trkpt lat="24.140673" lon="106.40361">
<time>2016-10-06T19:34:19Z</time></trkpt>
<trkpt lat="24.140703" lon="106.40352">
<time>2016-10-06T19:34:20Z</time></trkpt>
<trkpt lat="24.140743" lon="106.40341">
<time>2016-10-06T19:34:21Z</time></trkpt>
<trkpt lat="24.140793" lon="106.40333">
<time>2016-10-06T19:34:22Z</time></trkpt>
<trkpt lat="24.140843" lon="106.40324">
<time>2016-10-06T19:34:23Z</time></trkpt>
<trkpt lat="24.140903" lon="106.40314">
<time>2016-10-06T19:34:24Z</time></trkpt>
<trkpt lat="24.140973" lon="106.40306">
<time>2016-10-06T19:34:25Z</time></trkpt>
<trkpt lat="24.141033" lon="106.40297">
<time>2016-10-06T19:34:26Z</time></trkpt>
<trkpt lat="24.141123" lon="106.40288">
<time>2016-10-06T19:34:27Z</time></trkpt>
<trkpt lat="24.141233" lon="106.40277">
<time>2016-10-06T19:34:28Z</time></trkpt>
<trkpt lat="24.141863" lon="106.40219">
<time>2016-10-06T19:34:29Z</time></trkpt>
<trkpt lat="24.142874" lon="106.401251">
<time>2016-10-06T19:34:30Z</time></trkpt>
<trkpt lat="24.143854" lon="106.400301">
<time>2016-10-06T19:34:31Z</time></trkpt>
<trkpt lat="24.144044" lon="106.400101">
<time>2016-10-06T19:34:32Z</time></trkpt>
<trkpt lat="24.144164" lon="106.399971">
<time>2016-10-06T19:34:33Z</time></trkpt>
<trkpt lat="24.144254" lon="106.399861">
<time>2016-10-06T19:34:34Z</time></trkpt>
<trkpt lat="24.144404" lon="106.399681">
<time>2016-10-06T19:34:35Z</time></trkpt>
<trkpt lat="24.144554" lon="106.399481">
<time>2016-10-06T19:34:36Z</time></trkpt>
<trkpt lat="24.144674" lon="106.399301">
<time>2016-10-06T19:34:37Z</time></trkpt>
<trkpt lat="24.144824" lon="106.399081">
<time>2016-10-06T19:34:38Z</time></trkpt>
<trkpt lat="24.145034" lon="106.398731">
<time>2016-10-06T19:34:39Z</time></trkpt>
<trkpt lat="24.145375" lon="106.398161">
<time>2016-10-06T19:34:40Z</time></trkpt>
<trkpt lat="24.145805" lon="106.397462">
<time>2016-10-06T19:34:41Z</time></trkpt>
<trkpt lat="24.145955" lon="106.397212">
<time>2016-10-06T19:34:42Z</time></trkpt>
<trkpt lat="24.146085" lon="106.396972">
<time>2016-10-06T19:34:43Z</time></trkpt>
<trkpt lat="24.146195" lon="106.396752">
<time>2016-10-06T19:34:44Z</time></trkpt>
<trkpt lat="24.146285" lon="106.396532">
<time>2016-10-06T19:34:45Z</time></trkpt>
<trkpt lat="24.146385" lon="106.396292">
<time>2016-10-06T19:34:46Z</time></trkpt>
<trkpt lat="24.146495" lon="106.395982">
<time>2016-10-06T19:34:47Z</time></trkpt>
<trkpt lat="24.146615" lon="106.395592">
<time>2016-10-06T19:34:48Z</time></trkpt>
<trkpt lat="24.146895" lon="106.394783">
<time>2016-10-06T19:34:49Z</time></trkpt>
<trkpt lat="24.147106" lon="106.394173">
<time>2016-10-06T19:34:50Z</time></trkpt>
<trkpt lat="24.147326" lon="106.393493">
<time>2016-10-06T19:34:51Z</time></trkpt>
<trkpt lat="24.147366" lon="106.393373">
<time>2016-10-06T19:34:52Z</time></trkpt>
<trkpt lat="24.147486" lon="106.393034">
<time>2016-10-06T19:34:53Z</time></trkpt>
<trkpt lat="24.147626" lon="106.392704">
<time>2016-10-06T19:34:54Z</time></trkpt>
<trkpt lat="24.147907" lon="106.392064">
<time>2016-10-06T19:34:55Z</time></trkpt>
<trkpt lat="24.148077" lon="106.391704">
<time>2016-10-06T19:34:56Z</time></trkpt>
<trkpt lat="24.148207" lon="106.391445">
<time>2016-10-06T19:34:57Z</time></trkpt>
<trkpt lat="24.148507" lon="106.390885">
<time>2016-10-06T19:34:58Z</time></trkpt>
<trkpt lat="24.148577" lon="106.390765">
<time>2016-10-06T19:34:59Z</time></trkpt>
<trkpt lat="24.148637" lon="106.390615">
<time>2016-10-06T19:35:00Z</time></trkpt>
<trkpt lat="24.148687" lon="106.390475">
<time>2016-10-06T19:35:01Z</time></trkpt>
<trkpt lat="24.148727" lon="106.390375">
<time>2016-10-06T19:35:02Z</time></trkpt>
<trkpt lat="24.148747" lon="106.390275">
<time>2016-10-06T19:35:03Z</time></trkpt>
<trkpt lat="24.148777" lon="106.390176">
<time>2016-10-06T19:35:04Z</time></trkpt>
<trkpt lat="24.148798" lon="106.390016">
<time>2016-10-06T19:35:05Z</time></trkpt>
<trkpt lat="24.148808" lon="106.389756">
<time>2016-10-06T19:35:06Z</time></trkpt>
<trkpt lat="24.148838" lon="106.389376">
<time>2016-10-06T19:35:07Z</time></trkpt>
<trkpt lat="24.148868" lon="106.389126">
<time>2016-10-06T19:35:08Z</time></trkpt>
<trkpt lat="24.148928" lon="106.388876">
<time>2016-10-06T19:35:09Z</time></trkpt>
<trkpt lat="24.148988" lon="106.388667">
<time>2016-10-06T19:35:10Z</time></trkpt>
<trkpt lat="24.149058" lon="106.388487">
<time>2016-10-06T19:35:11Z</time></trkpt>
<trkpt lat="24.149148" lon="106.388287">
<time>2016-10-06T19:35:12Z</time></trkpt>
<trkpt lat="24.149289" lon="106.388037">
<time>2016-10-06T19:35:13Z</time></trkpt>
<trkpt lat="24.149769" lon="106.387208">
<time>2016-10-06T19:35:14Z</time></trkpt>
<trkpt lat="24.150019" lon="106.386748">
<time>2016-10-06T19:35:15Z</time></trkpt>
<trkpt lat="24.1504" lon="106.386109">
<time>2016-10-06T19:35:16Z</time></trkpt>
<trkpt lat="24.15047" lon="106.385969">
<time>2016-10-06T19:35:17Z</time></trkpt>
<trkpt lat="24.15053" lon="106.385839">
<time>2016-10-06T19:35:18Z</time></trkpt>
<trkpt lat="24.1506" lon="106.385639">
<time>2016-10-06T19:35:19Z</time></trkpt>
<trkpt lat="24.15066" lon="106.385449">
<time>2016-10-06T19:35:20Z</time></trkpt>
<trkpt lat="24.150701" lon="106.385269">
<time>2016-10-06T19:35:21Z</time></trkpt>
<trkpt lat="24.150751" lon="106.38502">
<time>2016-10-06T19:35:22Z</time></trkpt>
<trkpt lat="24.150791" lon="106.38476">
<time>2016-10-06T19:35:23Z</time></trkpt>
<trkpt lat="24.150831" lon="106.38452">
<time>2016-10-06T19:35:24Z</time></trkpt>
<trkpt lat="24.150861" lon="106.3844">
<time>2016-10-06T19:35:25Z</time></trkpt>
<trkpt lat="24.150901" lon="106.38429">
<time>2016-10-06T19:35:26Z</time></trkpt>
<trkpt lat="24.150941" lon="106.384161">
<time>2016-10-06T19:35:27Z</time></trkpt>
<trkpt lat="24.151001" lon="106.384031">
<time>2016-10-06T19:35:28Z</time></trkpt>
<trkpt lat="24.151061" lon="106.383921">
<time>2016-10-06T19:35:29Z</time></trkpt>
<trkpt lat="24.151122" lon="106.383821">
<time>2016-10-06T19:35:30Z</time></trkpt>
<trkpt lat="24.151202" lon="106.383721">
<time>2016-10-06T19:35:31Z</time></trkpt>
<trkpt lat="24.151262" lon="106.383641">
<time>2016-10-06T19:35:32Z</time></trkpt>
<trkpt lat="24.151412" lon="106.383481">
<time>2016-10-06T19:35:33Z</time></trkpt>
<trkpt lat="24.151582" lon="106.383311">
<time>2016-10-06T19:35:34Z</time></trkpt>
<trkpt lat="24.151772" lon="106.383122">
<time>2016-10-06T19:35:35Z</time></trkpt>
<trkpt lat="24.151973" lon="106.382882">
<time>2016-10-06T19:35:36Z</time></trkpt>
<trkpt lat="24.152163" lon="106.382652">
<time>2016-10-06T19:35:37Z</time></trkpt>
<trkpt lat="24.152293" lon="106.382472">
<time>2016-10-06T19:35:38Z</time></trkpt>
<trkpt lat="24.152423" lon="106.382292">
<time>2016-10-06T19:35:39Z</time></trkpt>
<trkpt lat="24.152513" lon="106.382153">
<time>2016-10-06T19:35:40Z</time></trkpt>
<trkpt lat="24.152623" lon="106.381973">
<time>2016-10-06T19:35:41Z</time></trkpt>
<trkpt lat="24.152693" lon="106.381853">
<time>2016-10-06T19:35:42Z</time></trkpt>
<trkpt lat="24.152774" lon="106.381703">
<time>2016-10-06T19:35:43Z</time></trkpt>
<trkpt lat="24.152874" lon="106.381523">
<time>2016-10-06T19:35:44Z</time></trkpt>
<trkpt lat="24.152934" lon="106.381383">
<time>2016-10-06T19:35:45Z</time></trkpt>
<trkpt lat="24.153144" lon="106.380954">
<time>2016-10-06T19:35:46Z</time></trkpt>
<trkpt lat="24.153245" lon="106.380754">
<time>2016-10-06T19:35:47Z</time></trkpt>
<trkpt lat="24.153375" lon="106.380534">
<time>2016-10-06T19:35:48Z</time></trkpt>
<trkpt lat="24.153455" lon="106.380394">
<time>2016-10-06T19:35:49Z</time></trkpt>
<trkpt lat="24.153625" lon="106.380155">
<time>2016-10-06T19:35:50Z</time></trkpt>
<trkpt lat="24.153735" lon="106.379985">
<time>2016-10-06T19:35:51Z</time></trkpt>
<trkpt lat="24.153835" lon="106.379865">
<time>2016-10-06T19:35:52Z</time></trkpt>
<trkpt lat="24.153906" lon="106.379765">
<time>2016-10-06T19:35:53Z</time></trkpt>
<trkpt lat="24.154076" lon="106.379565">
<time>2016-10-06T19:35:54Z</time></trkpt>
<trkpt lat="24.154286" lon="106.379346">
<time>2016-10-06T19:35:55Z</time></trkpt>
<trkpt lat="24.154516" lon="106.379096">
<time>2016-10-06T19:35:56Z</time></trkpt>
<trkpt lat="24.155207" lon="106.378377">
<time>2016-10-06T19:35:57Z</time></trkpt>
<trkpt lat="24.156038" lon="106.377498">
<time>2016-10-06T19:35:58Z</time></trkpt>
<trkpt lat="24.156209" lon="106.377298">
<time>2016-10-06T19:35:59Z</time></trkpt>
<trkpt lat="24.156319" lon="106.377158">
<time>2016-10-06T19:36:00Z</time></trkpt>
<trkpt lat="24.156419" lon="106.377018">
<time>2016-10-06T19:36:01Z</time></trkpt>
<trkpt lat="24.156499" lon="106.376909">
<time>2016-10-06T19:36:02Z</time></trkpt>
<trkpt lat="24.156569" lon="106.376779">
<time>2016-10-06T19:36:03Z</time></trkpt>
<trkpt lat="24.156649" lon="106.376619">
<time>2016-10-06T19:36:04Z</time></trkpt>
<trkpt lat="24.15674" lon="106.376409">
<time>2016-10-06T19:36:05Z</time></trkpt>
<trkpt lat="24.15684" lon="106.37613">
<time>2016-10-06T19:36:06Z</time></trkpt>
<trkpt lat="24.15693" lon="106.37578">
<time>2016-10-06T19:36:07Z</time></trkpt>
<trkpt lat="24.157001" lon="106.37544">
<time>2016-10-06T19:36:08Z</time></trkpt>
<trkpt lat="24.157051" lon="106.375171">
<time>2016-10-06T19:36:09Z</time></trkpt>
<trkpt lat="24.157091" lon="106.375001">
<time>2016-10-06T19:36:10Z</time></trkpt>
<trkpt lat="24.157161" lon="106.374781">
<time>2016-10-06T19:36:11Z</time></trkpt>
<trkpt lat="24.157221" lon="106.374602">
<time>2016-10-06T19:36:12Z</time></trkpt>
<trkpt lat="24.157282" lon="106.374412">
<time>2016-10-06T19:36:13Z</time></trkpt>
<trkpt lat="24.157362" lon="106.374222">
<time>2016-10-06T19:36:14Z</time></trkpt>
<trkpt lat="24.157442" lon="106.374022">
<time>2016-10-06T19:36:15Z</time></trkpt>
<trkpt lat="24.157522" lon="106.373853">
<time>2016-10-06T19:36:16Z</time></trkpt>
<trkpt lat="24.157592" lon="106.373713">
<time>2016-10-06T19:36:17Z</time></trkpt>
<trkpt lat="24.157653" lon="106.373583">
<time>2016-10-06T19:36:18Z</time></trkpt>
<trkpt lat="24.157733" lon="106.373463">
<time>2016-10-06T19:36:19Z</time></trkpt>
<trkpt lat="24.157793" lon="106.373343">
<time>2016-10-06T19:36:20Z</time></trkpt>
<trkpt lat="24.157883" lon="106.373203">
<time>2016-10-06T19:36:21Z</time></trkpt>
<trkpt lat="24.158093" lon="106.372894">
<time>2016-10-06T19:36:22Z</time></trkpt>
<trkpt lat="24.158334" lon="106.372554">
<time>2016-10-06T19:36:23Z</time></trkpt>
<trkpt lat="24.158985" lon="106.371586">
<time>2016-10-06T19:36:24Z</time></trkpt>
<trkpt lat="24.159556" lon="106.370787">
<time>2016-10-06T19:36:25Z</time></trkpt>
<trkpt lat="24.160057" lon="106.370068">
<time>2016-10-06T19:36:26Z</time></trkpt>
<trkpt lat="24.160268" lon="106.369798">
<time>2016-10-06T19:36:27Z</time></trkpt>
<trkpt lat="24.160378" lon="106.369659">
<time>2016-10-06T19:36:28Z</time></trkpt>
<trkpt lat="24.160458" lon="106.369579">
<time>2016-10-06T19:36:29Z</time></trkpt>
<trkpt lat="24.160608" lon="106.369439">
<time>2016-10-06T19:36:30Z</time></trkpt>
<trkpt lat="24.160708" lon="106.369359">
<time>2016-10-06T19:36:31Z</time></trkpt>
<trkpt lat="24.160808" lon="106.369289">
<time>2016-10-06T19:36:32Z</time></trkpt>
<trkpt lat="24.160969" lon="106.369179">
<time>2016-10-06T19:36:33Z</time></trkpt>
<trkpt lat="24.161089" lon="106.369119">
<time>2016-10-06T19:36:34Z</time></trkpt>
<trkpt lat="24.161299" lon="106.36902">
<time>2016-10-06T19:36:35Z</time></trkpt>
<trkpt lat="24.161479" lon="106.36895">
<time>2016-10-06T19:36:36Z</time></trkpt>
<trkpt lat="24.161849" lon="106.36883">
<time>2016-10-06T19:36:37Z</time></trkpt>
<trkpt lat="24.16197" lon="106.36879">
<time>2016-10-06T19:36:38Z</time></trkpt>
<trkpt lat="24.16208" lon="106.36875">
<time>2016-10-06T19:36:39Z</time></trkpt>
<trkpt lat="24.16219" lon="106.36872">
<time>2016-10-06T19:36:40Z</time></trkpt>
<trkpt lat="24.16228" lon="106.36867">
<time>2016-10-06T19:36:41Z</time></trkpt>
<trkpt lat="24.16236" lon="106.36864">
<time>2016-10-06T19:36:42Z</time></trkpt>
<trkpt lat="24.16243" lon="106.3686">
<time>2016-10-06T19:36:43Z</time></trkpt>
<trkpt lat="24.16249" lon="106.36857">
<time>2016-10-06T19:36:44Z</time></trkpt>
<trkpt lat="24.16255" lon="106.36853">
<time>2016-10-06T19:36:45Z</time></trkpt>
<trkpt lat="24.16261" lon="106.36849">
<time>2016-10-06T19:36:46Z</time></trkpt>
<trkpt lat="24.16266" lon="106.36845">
<time>2016-10-06T19:36:47Z</time></trkpt>
<trkpt lat="24.16272" lon="106.3684">
<time>2016-10-06T19:36:48Z</time></trkpt>
<trkpt lat="24.1628" lon="106.368331">
<time>2016-10-06T19:36:49Z</time></trkpt>
<trkpt lat="24.162871" lon="106.368261">
<time>2016-10-06T19:36:50Z</time></trkpt>
<trkpt lat="24.162951" lon="106.368181">
<time>2016-10-06T19:36:51Z</time></trkpt>
<trkpt lat="24.163001" lon="106.368121">
<time>2016-10-06T19:36:52Z</time></trkpt>
<trkpt lat="24.163071" lon="106.368021">
<time>2016-10-06T19:36:53Z</time></trkpt>
<trkpt lat="24.163141" lon="106.367931">
<time>2016-10-06T19:36:54Z</time></trkpt>
<trkpt lat="24.163211" lon="106.367821">
<time>2016-10-06T19:36:55Z</time></trkpt>
<trkpt lat="24.163321" lon="106.367652">
<time>2016-10-06T19:36:56Z</time></trkpt>
<trkpt lat="24.163702" lon="106.367053">
<time>2016-10-06T19:36:57Z</time></trkpt>
<trkpt lat="24.163933" lon="106.366753">
<time>2016-10-06T19:36:58Z</time></trkpt>
<trkpt lat="24.164183" lon="106.366384">
<time>2016-10-06T19:36:59Z</time></trkpt>
<trkpt lat="24.164574" lon="106.365865">
<time>2016-10-06T19:37:00Z</time></trkpt>
<trkpt lat="24.165035" lon="106.365315">
<time>2016-10-06T19:37:01Z</time></trkpt>
<trkpt lat="24.166217" lon="106.363898">
<time>2016-10-06T19:37:02Z</time></trkpt>
<trkpt lat="24.166398" lon="106.363668">
<time>2016-10-06T19:37:03Z</time></trkpt>
<trkpt lat="24.166668" lon="106.363339">
<time>2016-10-06T19:37:04Z</time></trkpt>
<trkpt lat="24.166829" lon="106.363149">
<time>2016-10-06T19:37:05Z</time></trkpt>
<trkpt lat="24.167149" lon="106.36276">
<time>2016-10-06T19:37:06Z</time></trkpt>
<trkpt lat="24.16728" lon="106.3626">
<time>2016-10-06T19:37:07Z</time></trkpt>
<trkpt lat="24.16742" lon="106.36241">
<time>2016-10-06T19:37:08Z</time></trkpt>
<trkpt lat="24.16753" lon="106.362241">
<time>2016-10-06T19:37:09Z</time></trkpt>
<trkpt lat="24.16763" lon="106.362051">
<time>2016-10-06T19:37:10Z</time></trkpt>
<trkpt lat="24.167721" lon="106.361851">
<time>2016-10-06T19:37:11Z</time></trkpt>
<trkpt lat="24.167811" lon="106.361632">
<time>2016-10-06T19:37:12Z</time></trkpt>
<trkpt lat="24.167911" lon="106.361372">
<time>2016-10-06T19:37:13Z</time></trkpt>
<trkpt lat="24.168032" lon="106.361043">
<time>2016-10-06T19:37:14Z</time></trkpt>
<trkpt lat="24.168122" lon="106.360843">
<time>2016-10-06T19:37:15Z</time></trkpt>
<trkpt lat="24.168223" lon="106.360644">
<time>2016-10-06T19:37:16Z</time></trkpt>
<trkpt lat="24.168303" lon="106.360514">
<time>2016-10-06T19:37:17Z</time></trkpt>
<trkpt lat="24.168343" lon="106.360444">
<time>2016-10-06T19:37:18Z</time></trkpt>
<trkpt lat="24.168373" lon="106.360394">
<time>2016-10-06T19:37:19Z</time></trkpt>
<trkpt lat="24.168433" lon="106.360314">
<time>2016-10-06T19:37:20Z</time></trkpt>
<trkpt lat="24.168483" lon="106.360234">
<time>2016-10-06T19:37:21Z</time></trkpt>
<trkpt lat="24.168583" lon="106.360115">
<time>2016-10-06T19:37:22Z</time></trkpt>
<trkpt lat="24.168664" lon="106.360025">
<time>2016-10-06T19:37:23Z</time></trkpt>
<trkpt lat="24.168754" lon="106.359915">
<time>2016-10-06T19:37:24Z</time></trkpt>
<trkpt lat="24.169125" lon="106.359496">
<time>2016-10-06T19:37:25Z</time></trkpt>
<trkpt lat="24.169766" lon="106.358707">
<time>2016-10-06T19:37:26Z</time></trkpt>
<trkpt lat="24.169956" lon="106.358448">
<time>2016-10-06T19:37:27Z</time></trkpt>
<trkpt lat="24.170147" lon="106.358168">
<time>2016-10-06T19:37:28Z</time></trkpt>
<trkpt lat="24.170297" lon="106.357909">
<time>2016-10-06T19:37:29Z</time></trkpt>
<trkpt lat="24.170458" lon="106.357599">
<time>2016-10-06T19:37:30Z</time></trkpt>
<trkpt lat="24.170558" lon="106.35736">
<time>2016-10-06T19:37:31Z</time></trkpt>
<trkpt lat="24.170709" lon="106.357">
<time>2016-10-06T19:37:32Z</time></trkpt>
<trkpt lat="24.17089" lon="106.356551">
<time>2016-10-06T19:37:33Z</time></trkpt>
<trkpt lat="24.17096" lon="106.356372">
<time>2016-10-06T19:37:34Z</time></trkpt>
<trkpt lat="24.17107" lon="106.356142">
<time>2016-10-06T19:37:35Z</time></trkpt>
<trkpt lat="24.171191" lon="106.355902">
<time>2016-10-06T19:37:36Z</time></trkpt>
<trkpt lat="24.171331" lon="106.355633">
<time>2016-10-06T19:37:37Z</time></trkpt>
<trkpt lat="24.171552" lon="106.355284">
<time>2016-10-06T19:37:38Z</time></trkpt>
<trkpt lat="24.171752" lon="106.355014">
<time>2016-10-06T19:37:39Z</time></trkpt>
<trkpt lat="24.172113" lon="106.354565">
<time>2016-10-06T19:37:40Z</time></trkpt>
<trkpt lat="24.172484" lon="106.354116">
<time>2016-10-06T19:37:41Z</time></trkpt>
<trkpt lat="24.172654" lon="106.353896">
<time>2016-10-06T19:37:42Z</time></trkpt>
<trkpt lat="24.172945" lon="106.353547">
<time>2016-10-06T19:37:43Z</time></trkpt>
<trkpt lat="24.173166" lon="106.353288">
<time>2016-10-06T19:37:44Z</time></trkpt>
<trkpt lat="24.173296" lon="106.353158">
<time>2016-10-06T19:37:45Z</time></trkpt>
<trkpt lat="24.173396" lon="106.353058">
<time>2016-10-06T19:37:46Z</time></trkpt>
<trkpt lat="24.173476" lon="106.352988">
<time>2016-10-06T19:37:47Z</time></trkpt>
<trkpt lat="24.173546" lon="106.352928">
<time>2016-10-06T19:37:48Z</time></trkpt>
<trkpt lat="24.173637" lon="106.352858">
<time>2016-10-06T19:37:49Z</time></trkpt>
<trkpt lat="24.173747" lon="106.352789">
<time>2016-10-06T19:37:50Z</time></trkpt>
<trkpt lat="24.173817" lon="106.352749">
<time>2016-10-06T19:37:51Z</time></trkpt>
<trkpt lat="24.173897" lon="106.352699">
<time>2016-10-06T19:37:52Z</time></trkpt>
<trkpt lat="24.174007" lon="106.352649">
<time>2016-10-06T19:37:53Z</time></trkpt>
<trkpt lat="24.174137" lon="106.352599">
<time>2016-10-06T19:37:54Z</time></trkpt>
<trkpt lat="24.174608" lon="106.352419">
<time>2016-10-06T19:37:55Z</time></trkpt>
<trkpt lat="24.174798" lon="106.352359">
<time>2016-10-06T19:37:56Z</time></trkpt>
<trkpt lat="24.174938" lon="106.35231">
<time>2016-10-06T19:37:57Z</time></trkpt>
<trkpt lat="24.175248" lon="106.35219">
<time>2016-10-06T19:37:58Z</time></trkpt>
<trkpt lat="24.175458" lon="106.3521">
<time>2016-10-06T19:37:59Z</time></trkpt>
<trkpt lat="24.175769" lon="106.352">
<time>2016-10-06T19:38:00Z</time></trkpt>
<trkpt lat="24.175949" lon="106.35194">
<time>2016-10-06T19:38:01Z</time></trkpt>
<trkpt lat="24.176269" lon="106.35182">
<time>2016-10-06T19:38:02Z</time></trkpt>
<trkpt lat="24.176379" lon="106.351791">
<time>2016-10-06T19:38:03Z</time></trkpt>
<trkpt lat="24.176539" lon="106.351731">
<time>2016-10-06T19:38:04Z</time></trkpt>
<trkpt lat="24.17675" lon="106.351651">
<time>2016-10-06T19:38:05Z</time></trkpt>
<trkpt lat="24.17686" lon="106.351621">
<time>2016-10-06T19:38:06Z</time></trkpt>
<trkpt lat="24.17699" lon="106.351581">
<time>2016-10-06T19:38:07Z</time></trkpt>
<trkpt lat="24.17712" lon="106.351551">
<time>2016-10-06T19:38:08Z</time></trkpt>
<trkpt lat="24.17728" lon="106.351511">
<time>2016-10-06T19:38:09Z</time></trkpt>
<trkpt lat="24.1774" lon="106.351491">
<time>2016-10-06T19:38:10Z</time></trkpt>
<trkpt lat="24.17764" lon="106.351451">
<time>2016-10-06T19:38:11Z</time></trkpt>
<trkpt lat="24.17778" lon="106.351431">
<time>2016-10-06T19:38:12Z</time></trkpt>
<trkpt lat="24.177871" lon="106.351421">
<time>2016-10-06T19:38:13Z</time></trkpt>
<trkpt lat="24.178011" lon="106.351411">
<time>2016-10-06T19:38:14Z</time></trkpt>
<trkpt lat="24.178261" lon="106.351401">
<time>2016-10-06T19:38:15Z</time></trkpt>
<trkpt lat="24.178401" lon="106.351391">
<time>2016-10-06T19:38:16Z</time></trkpt>
<trkpt lat="24.178641" lon="106.351381">
<time>2016-10-06T19:38:17Z</time></trkpt>
<trkpt lat="24.178931" lon="106.351361">
<time>2016-10-06T19:38:18Z</time></trkpt>
<trkpt lat="24.179071" lon="106.351341">
<time>2016-10-06T19:38:19Z</time></trkpt>
<trkpt lat="24.179241" lon="106.351321">
<time>2016-10-06T19:38:20Z</time></trkpt>
<trkpt lat="24.179361" lon="106.351291">
<time>2016-10-06T19:38:21Z</time></trkpt>
<trkpt lat="24.179682" lon="106.351212">
<time>2016-10-06T19:38:22Z</time></trkpt>
<trkpt lat="24.180372" lon="106.351042">
<time>2016-10-06T19:38:23Z</time></trkpt>
<trkpt lat="24.181113" lon="106.350852">
<time>2016-10-06T19:38:24Z</time></trkpt>
<trkpt lat="24.181533" lon="106.350742">
<time>2016-10-06T19:38:25Z</time></trkpt>
<trkpt lat="24.181733" lon="106.350673">
<time>2016-10-06T19:38:26Z</time></trkpt>
<trkpt lat="24.181843" lon="106.350633">
<time>2016-10-06T19:38:27Z</time></trkpt>
<trkpt lat="24.182024" lon="106.350533">
<time>2016-10-06T19:38:28Z</time></trkpt>
<trkpt lat="24.182114" lon="106.350473">
<time>2016-10-06T19:38:29Z</time></trkpt>
<trkpt lat="24.182204" lon="106.350413">
<time>2016-10-06T19:38:30Z</time></trkpt>
<trkpt lat="24.182314" lon="106.350323">
<time>2016-10-06T19:38:31Z</time></trkpt>
<trkpt lat="24.182374" lon="106.350253">
<time>2016-10-06T19:38:32Z</time></trkpt>
<trkpt lat="24.182444" lon="106.350184">
<time>2016-10-06T19:38:33Z</time></trkpt>
<trkpt lat="24.182565" lon="106.350034">
<time>2016-10-06T19:38:34Z</time></trkpt>
<trkpt lat="24.182655" lon="106.349914">
<time>2016-10-06T19:38:35Z</time></trkpt>
<trkpt lat="24.182835" lon="106.349655">
<time>2016-10-06T19:38:36Z</time></trkpt>
<trkpt lat="24.183016" lon="106.349375">
<time>2016-10-06T19:38:37Z</time></trkpt>
<trkpt lat="24.183217" lon="106.349066">
<time>2016-10-06T19:38:38Z</time></trkpt>
<trkpt lat="24.183327" lon="106.348886">
<time>2016-10-06T19:38:39Z</time></trkpt>
<trkpt lat="24.183427" lon="106.348727">
<time>2016-10-06T19:38:40Z</time></trkpt>
<trkpt lat="24.183608" lon="106.348417">
<time>2016-10-06T19:38:41Z</time></trkpt>
<trkpt lat="24.183708" lon="106.348248">
<time>2016-10-06T19:38:42Z</time></trkpt>
<trkpt lat="24.183809" lon="106.348058">
<time>2016-10-06T19:38:43Z</time></trkpt>
<trkpt lat="24.183949" lon="106.347759">
<time>2016-10-06T19:38:44Z</time></trkpt>
<trkpt lat="24.184401" lon="106.346781">
<time>2016-10-06T19:38:45Z</time></trkpt>
<trkpt lat="24.184582" lon="106.346412">
<time>2016-10-06T19:38:46Z</time></trkpt>
<trkpt lat="24.184672" lon="106.346242">
<time>2016-10-06T19:38:47Z</time></trkpt>
<trkpt lat="24.184822" lon="106.345992">
<time>2016-10-06T19:38:48Z</time></trkpt>
<trkpt lat="24.184923" lon="106.345853">
<time>2016-10-06T19:38:49Z</time></trkpt>
<trkpt lat="24.185063" lon="106.345683">
<time>2016-10-06T19:38:50Z</time></trkpt>
<trkpt lat="24.185193" lon="106.345533">
<time>2016-10-06T19:38:51Z</time></trkpt>
<trkpt lat="24.185294" lon="106.345404">
<time>2016-10-06T19:38:52Z</time></trkpt>
<trkpt lat="24.185354" lon="106.345304">
<time>2016-10-06T19:38:53Z</time></trkpt>
<trkpt lat="24.185444" lon="106.345174">
<time>2016-10-06T19:38:54Z</time></trkpt>
<trkpt lat="24.185504" lon="106.345074">
<time>2016-10-06T19:38:55Z</time></trkpt>
<trkpt lat="24.185575" lon="106.344935">
<time>2016-10-06T19:38:56Z</time></trkpt>
<trkpt lat="24.185735" lon="106.344625">
<time>2016-10-06T19:38:57Z</time></trkpt>
<trkpt lat="24.186277" lon="106.343528">
<time>2016-10-06T19:38:58Z</time></trkpt>
<trkpt lat="24.186508" lon="106.343059">
<time>2016-10-06T19:38:59Z</time></trkpt>
<trkpt lat="24.18701" lon="106.342041">
<time>2016-10-06T19:39:00Z</time></trkpt>
<trkpt lat="24.187211" lon="106.341622">
<time>2016-10-06T19:39:01Z</time></trkpt>
<trkpt lat="24.187291" lon="106.341472">
<time>2016-10-06T19:39:02Z</time></trkpt>
<trkpt lat="24.187342" lon="106.341393">
<time>2016-10-06T19:39:03Z</time></trkpt>
<trkpt lat="24.187362" lon="106.341343">
<time>2016-10-06T19:39:04Z</time></trkpt>
<trkpt lat="24.187412" lon="106.341253">
<time>2016-10-06T19:39:05Z</time></trkpt>
<trkpt lat="24.187492" lon="106.341073">
<time>2016-10-06T19:39:06Z</time></trkpt>
<trkpt lat="24.187613" lon="106.340874">
<time>2016-10-06T19:39:07Z</time></trkpt>
<trkpt lat="24.187653" lon="106.340784">
<time>2016-10-06T19:39:08Z</time></trkpt>
<trkpt lat="24.187713" lon="106.340684">
<time>2016-10-06T19:39:09Z</time></trkpt>
<trkpt lat="24.187773" lon="106.340564">
<time>2016-10-06T19:39:10Z</time></trkpt>
<trkpt lat="24.187914" lon="106.340335">
<time>2016-10-06T19:39:11Z</time></trkpt>
<trkpt lat="24.188044" lon="106.340135">
<time>2016-10-06T19:39:12Z</time></trkpt>
<trkpt lat="24.188225" lon="106.339876">
<time>2016-10-06T19:39:13Z</time></trkpt>
<trkpt lat="24.188355" lon="106.339676">
<time>2016-10-06T19:39:14Z</time></trkpt>
<trkpt lat="24.188536" lon="106.339437">
<time>2016-10-06T19:39:15Z</time></trkpt>
<trkpt lat="24.188676" lon="106.339267">
<time>2016-10-06T19:39:16Z</time></trkpt>
<trkpt lat="24.188786" lon="106.339128">
<time>2016-10-06T19:39:17Z</time></trkpt>
<trkpt lat="24.188907" lon="106.338958">
<time>2016-10-06T19:39:18Z</time></trkpt>
<trkpt lat="24.189147" lon="106.338589">
<time>2016-10-06T19:39:19Z</time></trkpt>
<trkpt lat="24.189258" lon="106.338419">
<time>2016-10-06T19:39:20Z</time></trkpt>
<trkpt lat="24.189368" lon="106.33826">
<time>2016-10-06T19:39:21Z</time></trkpt>
<trkpt lat="24.189438" lon="106.33817">
<time>2016-10-06T19:39:22Z</time></trkpt>
<trkpt lat="24.189518" lon="106.33809">
<time>2016-10-06T19:39:23Z</time></trkpt>
<trkpt lat="24.189609" lon="106.338">
<time>2016-10-06T19:39:24Z</time></trkpt>
<trkpt lat="24.189669" lon="106.33795">
<time>2016-10-06T19:39:25Z</time></trkpt>
<trkpt lat="24.189789" lon="106.33786">
<time>2016-10-06T19:39:26Z</time></trkpt>
<trkpt lat="24.189949" lon="106.337751">
<time>2016-10-06T19:39:27Z</time></trkpt>
<trkpt lat="24.19024" lon="106.337571">
<time>2016-10-06T19:39:28Z</time></trkpt>
<trkpt lat="24.19065" lon="106.337332">
<time>2016-10-06T19:39:29Z</time></trkpt>
<trkpt lat="24.190941" lon="106.337172">
<time>2016-10-06T19:39:30Z</time></trkpt>
<trkpt lat="24.191442" lon="106.336873">
<time>2016-10-06T19:39:31Z</time></trkpt>
<trkpt lat="24.191862" lon="106.336653">
<time>2016-10-06T19:39:32Z</time></trkpt>
<trkpt lat="24.191992" lon="106.336583">
<time>2016-10-06T19:39:33Z</time></trkpt>
<trkpt lat="24.192082" lon="106.336543">
<time>2016-10-06T19:39:34Z</time></trkpt>
<trkpt lat="24.192172" lon="106.336513">
<time>2016-10-06T19:39:35Z</time></trkpt>
<trkpt lat="24.192253" lon="106.336493">
<time>2016-10-06T19:39:36Z</time></trkpt>
<trkpt lat="24.192313" lon="106.336474">
<time>2016-10-06T19:39:37Z</time></trkpt>
<trkpt lat="24.192423" lon="106.336454">
<time>2016-10-06T19:39:38Z</time></trkpt>
<trkpt lat="24.192613" lon="106.336434">
<time>2016-10-06T19:39:39Z</time></trkpt>
<trkpt lat="24.193143" lon="106.336394">
<time>2016-10-06T19:39:40Z</time></trkpt>
<trkpt lat="24.193483" lon="106.336354">
<time>2016-10-06T19:39:41Z</time></trkpt>
<trkpt lat="24.193613" lon="106.336334">
<time>2016-10-06T19:39:42Z</time></trkpt>
<trkpt lat="24.193723" lon="106.336314">
<time>2016-10-06T19:39:43Z</time></trkpt>
<trkpt lat="24.193834" lon="106.336284">
<time>2016-10-06T19:39:44Z</time></trkpt>
<trkpt lat="24.193934" lon="106.336254">
<time>2016-10-06T19:39:45Z</time></trkpt>
<trkpt lat="24.194074" lon="106.336194">
<time>2016-10-06T19:39:46Z</time></trkpt>
<trkpt lat="24.194204" lon="106.336134">
<time>2016-10-06T19:39:47Z</time></trkpt>
<trkpt lat="24.194354" lon="106.336074">
<time>2016-10-06T19:39:48Z</time></trkpt>
<trkpt lat="24.194474" lon="106.336004">
<time>2016-10-06T19:39:49Z</time></trkpt>
<trkpt lat="24.194695" lon="106.335885">
<time>2016-10-06T19:39:50Z</time></trkpt>
<trkpt lat="24.194825" lon="106.335805">
<time>2016-10-06T19:39:51Z</time></trkpt>
<trkpt lat="24.194945" lon="106.335725">
<time>2016-10-06T19:39:52Z</time></trkpt>
<trkpt lat="24.195045" lon="106.335655">
<time>2016-10-06T19:39:53Z</time></trkpt>
<trkpt lat="24.195125" lon="106.335595">
<time>2016-10-06T19:39:54Z</time></trkpt>
<trkpt lat="24.195165" lon="106.335555">
<time>2016-10-06T19:39:55Z</time></trkpt>
<trkpt lat="24.195246" lon="106.335506">
<time>2016-10-06T19:39:56Z</time></trkpt>
<trkpt lat="24.195336" lon="106.335426">
<time>2016-10-06T19:39:57Z</time></trkpt>
<trkpt lat="24.195456" lon="106.335326">
<time>2016-10-06T19:39:58Z</time></trkpt>
<trkpt lat="24.195596" lon="106.335186">
<time>2016-10-06T19:39:59Z</time></trkpt>
<trkpt lat="24.195676" lon="106.335116">
<time>2016-10-06T19:40:00Z</time></trkpt>
<trkpt lat="24.195737" lon="106.335027">
<time>2016-10-06T19:40:01Z</time></trkpt>
<trkpt lat="24.195807" lon="106.334917">
<time>2016-10-06T19:40:02Z</time></trkpt>
<trkpt lat="24.195877" lon="106.334777">
<time>2016-10-06T19:40:03Z</time></trkpt>
<trkpt lat="24.195917" lon="106.334628">
<time>2016-10-06T19:40:04Z</time></trkpt>
<trkpt lat="24.195958" lon="106.334488">
<time>2016-10-06T19:40:05Z</time></trkpt>
<trkpt lat="24.195978" lon="106.334358">
<time>2016-10-06T19:40:06Z</time></trkpt>
<trkpt lat="24.195988" lon="106.334248">
<time>2016-10-06T19:40:07Z</time></trkpt>
<trkpt lat="24.196049" lon="106.3336">
<time>2016-10-06T19:40:08Z</time></trkpt>
<trkpt lat="24.19606" lon="106.33355">
<time>2016-10-06T19:40:09Z</time></trkpt>
<trkpt lat="24.1961" lon="106.333121">
<time>2016-10-06T19:40:10Z</time></trkpt>
<trkpt lat="24.196121" lon="106.332882">
<time>2016-10-06T19:40:11Z</time></trkpt>
<trkpt lat="24.196131" lon="106.332612">
<time>2016-10-06T19:40:12Z</time></trkpt>
<trkpt lat="24.196112" lon="106.332363">
<time>2016-10-06T19:40:13Z</time></trkpt>
<trkpt lat="24.196112" lon="106.332353">
<time>2016-10-06T19:40:14Z</time></trkpt>
<trkpt lat="24.196092" lon="106.332173">
<time>2016-10-06T19:40:15Z</time></trkpt>
<trkpt lat="24.196092" lon="106.332123">
<time>2016-10-06T19:40:16Z</time></trkpt>
<trkpt lat="24.196063" lon="106.331724">
<time>2016-10-06T19:40:17Z</time></trkpt>
<trkpt lat="24.196033" lon="106.331495">
<time>2016-10-06T19:40:18Z</time></trkpt>
<trkpt lat="24.195994" lon="106.331046">
<time>2016-10-06T19:40:19Z</time></trkpt>
<trkpt lat="24.195985" lon="106.330617">
<time>2016-10-06T19:40:20Z</time></trkpt>
<trkpt lat="24.196006" lon="106.330288">
<time>2016-10-06T19:40:21Z</time></trkpt>
<trkpt lat="24.196056" lon="106.330058">
<time>2016-10-06T19:40:22Z</time></trkpt>
<trkpt lat="24.196117" lon="106.329829">
<time>2016-10-06T19:40:23Z</time></trkpt>
<trkpt lat="24.196207" lon="106.3295">
<time>2016-10-06T19:40:24Z</time></trkpt>
<trkpt lat="24.196318" lon="106.32926">
<time>2016-10-06T19:40:25Z</time></trkpt>
<trkpt lat="24.196508" lon="106.328931">
<time>2016-10-06T19:40:26Z</time></trkpt>
<trkpt lat="24.19693" lon="106.328282">
<time>2016-10-06T19:40:27Z</time></trkpt>
<trkpt lat="24.197572" lon="106.327315">
<time>2016-10-06T19:40:28Z</time></trkpt>
<trkpt lat="24.198365" lon="106.326098">
<time>2016-10-06T19:40:29Z</time></trkpt>
<trkpt lat="24.198706" lon="106.325539">
<time>2016-10-06T19:40:30Z</time></trkpt>
<trkpt lat="24.198967" lon="106.32514">
<time>2016-10-06T19:40:31Z</time></trkpt>
<trkpt lat="24.199187" lon="106.324801">
<time>2016-10-06T19:40:32Z</time></trkpt>
<trkpt lat="24.199348" lon="106.324591">
<time>2016-10-06T19:40:33Z</time></trkpt>
<trkpt lat="24.199448" lon="106.324451">
<time>2016-10-06T19:40:34Z</time></trkpt>
<trkpt lat="24.199558" lon="106.324332">
<time>2016-10-06T19:40:35Z</time></trkpt>
<trkpt lat="24.199669" lon="106.324222">
<time>2016-10-06T19:40:36Z</time></trkpt>
<trkpt lat="24.199789" lon="106.324102">
<time>2016-10-06T19:40:37Z</time></trkpt>
<trkpt lat="24.20005" lon="106.323883">
<time>2016-10-06T19:40:38Z</time></trkpt>
<trkpt lat="24.200841" lon="106.323204">
<time>2016-10-06T19:40:39Z</time></trkpt>
<trkpt lat="24.201031" lon="106.323085">
<time>2016-10-06T19:40:40Z</time></trkpt>
<trkpt lat="24.201122" lon="106.323035">
<time>2016-10-06T19:40:41Z</time></trkpt>
<trkpt lat="24.201202" lon="106.323005">
<time>2016-10-06T19:40:42Z</time></trkpt>
<trkpt lat="24.201282" lon="106.322985">
<time>2016-10-06T19:40:43Z</time></trkpt>
<trkpt lat="24.201392" lon="106.322985">
<time>2016-10-06T19:40:44Z</time></trkpt>
<trkpt lat="24.201492" lon="106.322985">
<time>2016-10-06T19:40:45Z</time></trkpt>
<trkpt lat="24.201532" lon="106.322995">
<time>2016-10-06T19:40:46Z</time></trkpt>
<trkpt lat="24.201592" lon="106.323005">
<time>2016-10-06T19:40:47Z</time></trkpt>
<trkpt lat="24.201672" lon="106.323025">
<time>2016-10-06T19:40:48Z</time></trkpt>
<trkpt lat="24.201742" lon="106.323055">
<time>2016-10-06T19:40:49Z</time></trkpt>
<trkpt lat="24.201792" lon="106.323085">
<time>2016-10-06T19:40:50Z</time></trkpt>
<trkpt lat="24.201862" lon="106.323114">
<time>2016-10-06T19:40:51Z</time></trkpt>
<trkpt lat="24.201922" lon="106.323154">
<time>2016-10-06T19:40:52Z</time></trkpt>
<trkpt lat="24.201982" lon="106.323214">
<time>2016-10-06T19:40:53Z</time></trkpt>
<trkpt lat="24.202031" lon="106.323284">
<time>2016-10-06T19:40:54Z</time></trkpt>
<trkpt lat="24.202241" lon="106.323543">
<time>2016-10-06T19:40:55Z</time></trkpt>
<trkpt lat="24.202291" lon="106.323613">
<time>2016-10-06T19:40:56Z</time></trkpt>
<trkpt lat="24.202361" lon="106.323723">
<time>2016-10-06T19:40:57Z</time></trkpt>
<trkpt lat="24.20279" lon="106.324431">
<time>2016-10-06T19:40:58Z</time></trkpt>
<trkpt lat="24.203129" lon="106.32488">
<time>2016-10-06T19:40:59Z</time></trkpt>
<trkpt lat="24.203558" lon="106.325299">
<time>2016-10-06T19:41:00Z</time></trkpt>
<trkpt lat="24.203738" lon="106.325449">
<time>2016-10-06T19:41:01Z</time></trkpt>
<trkpt lat="24.203908" lon="106.325579">
<time>2016-10-06T19:41:02Z</time></trkpt>
<trkpt lat="24.204048" lon="106.325668">
<time>2016-10-06T19:41:03Z</time></trkpt>
<trkpt lat="24.204268" lon="106.325768">
<time>2016-10-06T19:41:04Z</time></trkpt>
<trkpt lat="24.204457" lon="106.325858">
<time>2016-10-06T19:41:05Z</time></trkpt>
<trkpt lat="24.204567" lon="106.325898">
<time>2016-10-06T19:41:06Z</time></trkpt>
<trkpt lat="24.204667" lon="106.325928">
<time>2016-10-06T19:41:07Z</time></trkpt>
<trkpt lat="24.204747" lon="106.325958">
<time>2016-10-06T19:41:08Z</time></trkpt>
<trkpt lat="24.204867" lon="106.325987">
<time>2016-10-06T19:41:09Z</time></trkpt>
<trkpt lat="24.204957" lon="106.325997">
<time>2016-10-06T19:41:10Z</time></trkpt>
<trkpt lat="24.205057" lon="106.325987">
<time>2016-10-06T19:41:11Z</time></trkpt>
<trkpt lat="24.205198" lon="106.325968">
<time>2016-10-06T19:41:12Z</time></trkpt>
<trkpt lat="24.205388" lon="106.325928">
<time>2016-10-06T19:41:13Z</time></trkpt>
<trkpt lat="24.205578" lon="106.325858">
<time>2016-10-06T19:41:14Z</time></trkpt>
<trkpt lat="24.205878" lon="106.325728">
<time>2016-10-06T19:41:15Z</time></trkpt>
<trkpt lat="24.206269" lon="106.325568">
<time>2016-10-06T19:41:16Z</time></trkpt>
<trkpt lat="24.206399" lon="106.325509">
<time>2016-10-06T19:41:17Z</time></trkpt>
<trkpt lat="24.206659" lon="106.325399">
<time>2016-10-06T19:41:18Z</time></trkpt>
<trkpt lat="24.20689" lon="106.325269">
<time>2016-10-06T19:41:19Z</time></trkpt>
<trkpt lat="24.20713" lon="106.325119">
<time>2016-10-06T19:41:20Z</time></trkpt>
<trkpt lat="24.207721" lon="106.32472">
<time>2016-10-06T19:41:21Z</time></trkpt>
<trkpt lat="24.208482" lon="106.324212">
<time>2016-10-06T19:41:22Z</time></trkpt>
<trkpt lat="24.208973" lon="106.323882">
<time>2016-10-06T19:41:23Z</time></trkpt>
<trkpt lat="24.209193" lon="106.323723">
<time>2016-10-06T19:41:24Z</time></trkpt>
<trkpt lat="24.209424" lon="106.323483">
<time>2016-10-06T19:41:25Z</time></trkpt>
<trkpt lat="24.209624" lon="106.323244">
<time>2016-10-06T19:41:26Z</time></trkpt>
<trkpt lat="24.209825" lon="106.322984">
<time>2016-10-06T19:41:27Z</time></trkpt>
<trkpt lat="24.209966" lon="106.322765">
<time>2016-10-06T19:41:28Z</time></trkpt>
<trkpt lat="24.210056" lon="106.322635">
<time>2016-10-06T19:41:29Z</time></trkpt>
<trkpt lat="24.210156" lon="106.322446">
<time>2016-10-06T19:41:30Z</time></trkpt>
<trkpt lat="24.210237" lon="106.322296">
<time>2016-10-06T19:41:31Z</time></trkpt>
<trkpt lat="24.210367" lon="106.322037">
<time>2016-10-06T19:41:32Z</time></trkpt>
<trkpt lat="24.210427" lon="106.321907">
<time>2016-10-06T19:41:33Z</time></trkpt>
<trkpt lat="24.210478" lon="106.321777">
<time>2016-10-06T19:41:34Z</time></trkpt>
<trkpt lat="24.210548" lon="106.321598">
<time>2016-10-06T19:41:35Z</time></trkpt>
<trkpt lat="24.210578" lon="106.321468">
<time>2016-10-06T19:41:36Z</time></trkpt>
<trkpt lat="24.210609" lon="106.321338">
<time>2016-10-06T19:41:37Z</time></trkpt>
<trkpt lat="24.210629" lon="106.321218">
<time>2016-10-06T19:41:38Z</time></trkpt>
<trkpt lat="24.210649" lon="106.321019">
<time>2016-10-06T19:41:39Z</time></trkpt>
<trkpt lat="24.21066" lon="106.32077">
<time>2016-10-06T19:41:40Z</time></trkpt>
<trkpt lat="24.210681" lon="106.320261">
<time>2016-10-06T19:41:41Z</time></trkpt>
<trkpt lat="24.210672" lon="106.319512">
<time>2016-10-06T19:41:42Z</time></trkpt>
<trkpt lat="24.210653" lon="106.318824">
<time>2016-10-06T19:41:43Z</time></trkpt>
<trkpt lat="24.210664" lon="106.318385">
<time>2016-10-06T19:41:44Z</time></trkpt>
<trkpt lat="24.210695" lon="106.317976">
<time>2016-10-06T19:41:45Z</time></trkpt>
<trkpt lat="24.210706" lon="106.317557">
<time>2016-10-06T19:41:46Z</time></trkpt>
<trkpt lat="24.210708" lon="106.31651">
<time>2016-10-06T19:41:47Z</time></trkpt>
<trkpt lat="24.210709" lon="106.315961">
<time>2016-10-06T19:41:48Z</time></trkpt>
<trkpt lat="24.21073" lon="106.315203">
<time>2016-10-06T19:41:49Z</time></trkpt>
<trkpt lat="24.210741" lon="106.314714">
<time>2016-10-06T19:41:50Z</time></trkpt>
<trkpt lat="24.210712" lon="106.314305">
<time>2016-10-06T19:41:51Z</time></trkpt>
<trkpt lat="24.210692" lon="106.313975">
<time>2016-10-06T19:41:52Z</time></trkpt>
<trkpt lat="24.210673" lon="106.313646">
<time>2016-10-06T19:41:53Z</time></trkpt>
<trkpt lat="24.210644" lon="106.313267">
<time>2016-10-06T19:41:54Z</time></trkpt>
<trkpt lat="24.210526" lon="106.31199">
<time>2016-10-06T19:41:55Z</time></trkpt>
<trkpt lat="24.210516" lon="106.31193">
<time>2016-10-06T19:41:56Z</time></trkpt>
<trkpt lat="24.210506" lon="106.31182">
<time>2016-10-06T19:41:57Z</time></trkpt>
<trkpt lat="24.210477" lon="106.311521">
<time>2016-10-06T19:41:58Z</time></trkpt>
<trkpt lat="24.210418" lon="106.311222">
<time>2016-10-06T19:41:59Z</time></trkpt>
<trkpt lat="24.210338" lon="106.310932">
<time>2016-10-06T19:42:00Z</time></trkpt>
<trkpt lat="24.210258" lon="106.310703">
<time>2016-10-06T19:42:01Z</time></trkpt>
<trkpt lat="24.210019" lon="106.310074">
<time>2016-10-06T19:42:02Z</time></trkpt>
<trkpt lat="24.20994" lon="106.309865">
<time>2016-10-06T19:42:03Z</time></trkpt>
<trkpt lat="24.20984" lon="106.309585">
<time>2016-10-06T19:42:04Z</time></trkpt>
<trkpt lat="24.209781" lon="106.309356">
<time>2016-10-06T19:42:05Z</time></trkpt>
<trkpt lat="24.209751" lon="106.309246">
<time>2016-10-06T19:42:06Z</time></trkpt>
<trkpt lat="24.209721" lon="106.309047">
<time>2016-10-06T19:42:07Z</time></trkpt>
<trkpt lat="24.209622" lon="106.308338">
<time>2016-10-06T19:42:08Z</time></trkpt>
<trkpt lat="24.209553" lon="106.307889">
<time>2016-10-06T19:42:09Z</time></trkpt>
<trkpt lat="24.209494" lon="106.30745">
<time>2016-10-06T19:42:10Z</time></trkpt>
<trkpt lat="24.209445" lon="106.307061">
<time>2016-10-06T19:42:11Z</time></trkpt>
<trkpt lat="24.209435" lon="106.306792">
<time>2016-10-06T19:42:12Z</time></trkpt>
<trkpt lat="24.209446" lon="106.306562">
<time>2016-10-06T19:42:13Z</time></trkpt>
<trkpt lat="24.209486" lon="106.306113">
<time>2016-10-06T19:42:14Z</time></trkpt>
<trkpt lat="24.209557" lon="106.305644">
<time>2016-10-06T19:42:15Z</time></trkpt>
<trkpt lat="24.209608" lon="106.305415">
<time>2016-10-06T19:42:16Z</time></trkpt>
<trkpt lat="24.209668" lon="106.305155">
<time>2016-10-06T19:42:17Z</time></trkpt>
<trkpt lat="24.209779" lon="106.304836">
<time>2016-10-06T19:42:18Z</time></trkpt>
<trkpt lat="24.209869" lon="106.304607">
<time>2016-10-06T19:42:19Z</time></trkpt>
<trkpt lat="24.20997" lon="106.304387">
<time>2016-10-06T19:42:20Z</time></trkpt>
<trkpt lat="24.21008" lon="106.304197">
<time>2016-10-06T19:42:21Z</time></trkpt>
<trkpt lat="24.21018" lon="106.304058">
<time>2016-10-06T19:42:22Z</time></trkpt>
<trkpt lat="24.210291" lon="106.303908">
<time>2016-10-06T19:42:23Z</time></trkpt>
<trkpt lat="24.210752" lon="106.303319">
<time>2016-10-06T19:42:24Z</time></trkpt>
<trkpt lat="24.211414" lon="106.302431">
<time>2016-10-06T19:42:25Z</time></trkpt>
<trkpt lat="24.211745" lon="106.301982">
<time>2016-10-06T19:42:26Z</time></trkpt>
<trkpt lat="24.212065" lon="106.301593">
<time>2016-10-06T19:42:27Z</time></trkpt>
<trkpt lat="24.212176" lon="106.301483">
<time>2016-10-06T19:42:28Z</time></trkpt>
<trkpt lat="24.212296" lon="106.301383">
<time>2016-10-06T19:42:29Z</time></trkpt>
<trkpt lat="24.212456" lon="106.301274">
<time>2016-10-06T19:42:30Z</time></trkpt>
<trkpt lat="24.212636" lon="106.301184">
<time>2016-10-06T19:42:31Z</time></trkpt>
<trkpt lat="24.212776" lon="106.301134">
<time>2016-10-06T19:42:32Z</time></trkpt>
<trkpt lat="24.212927" lon="106.301084">
<time>2016-10-06T19:42:33Z</time></trkpt>
<trkpt lat="24.213107" lon="106.301054">
<time>2016-10-06T19:42:34Z</time></trkpt>
<trkpt lat="24.213267" lon="106.301054">
<time>2016-10-06T19:42:35Z</time></trkpt>
<trkpt lat="24.213437" lon="106.301074">
<time>2016-10-06T19:42:36Z</time></trkpt>
<trkpt lat="24.213597" lon="106.301114">
<time>2016-10-06T19:42:37Z</time></trkpt>
<trkpt lat="24.213757" lon="106.301184">
<time>2016-10-06T19:42:38Z</time></trkpt>
<trkpt lat="24.213847" lon="106.301244">
<time>2016-10-06T19:42:39Z</time></trkpt>
<trkpt lat="24.213927" lon="106.301313">
<time>2016-10-06T19:42:40Z</time></trkpt>
<trkpt lat="24.214056" lon="106.301483">
<time>2016-10-06T19:42:41Z</time></trkpt>
<trkpt lat="24.214106" lon="106.301553">
<time>2016-10-06T19:42:42Z</time></trkpt>
<trkpt lat="24.214376" lon="106.301952">
<time>2016-10-06T19:42:43Z</time></trkpt>
<trkpt lat="24.215193" lon="106.303359">
<time>2016-10-06T19:42:44Z</time></trkpt>
<trkpt lat="24.215782" lon="106.304217">
<time>2016-10-06T19:42:45Z</time></trkpt>
<trkpt lat="24.216002" lon="106.304447">
<time>2016-10-06T19:42:46Z</time></trkpt>
<trkpt lat="24.216172" lon="106.304636">
<time>2016-10-06T19:42:47Z</time></trkpt>
<trkpt lat="24.216431" lon="106.304926">
<time>2016-10-06T19:42:48Z</time></trkpt>
<trkpt lat="24.21707" lon="106.305554">
<time>2016-10-06T19:42:49Z</time></trkpt>
<trkpt lat="24.21784" lon="106.306183">
<time>2016-10-06T19:42:50Z</time></trkpt>
<trkpt lat="24.218249" lon="106.306482">
<time>2016-10-06T19:42:51Z</time></trkpt>
<trkpt lat="24.218569" lon="106.306741">
<time>2016-10-06T19:42:52Z</time></trkpt>
<trkpt lat="24.218839" lon="106.306951">
<time>2016-10-06T19:42:53Z</time></trkpt>
<trkpt lat="24.219048" lon="106.307101">
<time>2016-10-06T19:42:54Z</time></trkpt>
<trkpt lat="24.219248" lon="106.30722">
<time>2016-10-06T19:42:55Z</time></trkpt>
<trkpt lat="24.219418" lon="106.3073">
<time>2016-10-06T19:42:56Z</time></trkpt>
<trkpt lat="24.219628" lon="106.30737">
<time>2016-10-06T19:42:57Z</time></trkpt>
<trkpt lat="24.219828" lon="106.30742">
<time>2016-10-06T19:42:58Z</time></trkpt>
<trkpt lat="24.219988" lon="106.30744">
<time>2016-10-06T19:42:59Z</time></trkpt>
<trkpt lat="24.220178" lon="106.30745">
<time>2016-10-06T19:43:00Z</time></trkpt>
<trkpt lat="24.220418" lon="106.30744">
<time>2016-10-06T19:43:01Z</time></trkpt>
<trkpt lat="24.220768" lon="106.3074">
<time>2016-10-06T19:43:02Z</time></trkpt>
<trkpt lat="24.221699" lon="106.30725">
<time>2016-10-06T19:43:03Z</time></trkpt>
<trkpt lat="24.222019" lon="106.3072">
<time>2016-10-06T19:43:04Z</time></trkpt>
<trkpt lat="24.22232" lon="106.30714">
<time>2016-10-06T19:43:05Z</time></trkpt>
<trkpt lat="24.22254" lon="106.30708">
<time>2016-10-06T19:43:06Z</time></trkpt>
<trkpt lat="24.22283" lon="106.306971">
<time>2016-10-06T19:43:07Z</time></trkpt>
<trkpt lat="24.223" lon="106.306891">
<time>2016-10-06T19:43:08Z</time></trkpt>
<trkpt lat="24.223331" lon="106.306721">
<time>2016-10-06T19:43:09Z</time></trkpt>
<trkpt lat="24.223631" lon="106.306532">
<time>2016-10-06T19:43:10Z</time></trkpt>
<trkpt lat="24.223811" lon="106.306382">
<time>2016-10-06T19:43:11Z</time></trkpt>
<trkpt lat="24.224032" lon="106.306212">
<time>2016-10-06T19:43:12Z</time></trkpt>
<trkpt lat="24.224142" lon="106.306103">
<time>2016-10-06T19:43:13Z</time></trkpt>
<trkpt lat="24.224373" lon="106.305833">
<time>2016-10-06T19:43:14Z</time></trkpt>
<trkpt lat="24.224493" lon="106.305673">
<time>2016-10-06T19:43:15Z</time></trkpt>
<trkpt lat="24.224603" lon="106.305514">
<time>2016-10-06T19:43:16Z</time></trkpt>
<trkpt lat="24.224704" lon="106.305354">
<time>2016-10-06T19:43:17Z</time></trkpt>
<trkpt lat="24.224774" lon="106.305224">
<time>2016-10-06T19:43:18Z</time></trkpt>
<trkpt lat="24.224834" lon="106.305125">
<time>2016-10-06T19:43:19Z</time></trkpt>
<trkpt lat="24.224894" lon="106.304985">
<time>2016-10-06T19:43:20Z</time></trkpt>
<trkpt lat="24.224945" lon="106.304825">
<time>2016-10-06T19:43:21Z</time></trkpt>
<trkpt lat="24.225005" lon="106.304636">
<time>2016-10-06T19:43:22Z</time></trkpt>
<trkpt lat="24.225065" lon="106.304386">
<time>2016-10-06T19:43:23Z</time></trkpt>
<trkpt lat="24.225116" lon="106.304027">
<time>2016-10-06T19:43:24Z</time></trkpt>
<trkpt lat="24.225197" lon="106.303478">
<time>2016-10-06T19:43:25Z</time></trkpt>
<trkpt lat="24.225491" lon="106.301532">
<time>2016-10-06T19:43:26Z</time></trkpt>
<trkpt lat="24.225551" lon="106.301303">
<time>2016-10-06T19:43:27Z</time></trkpt>
<trkpt lat="24.225641" lon="106.301053">
<time>2016-10-06T19:43:28Z</time></trkpt>
<trkpt lat="24.225722" lon="106.300854">
<time>2016-10-06T19:43:29Z</time></trkpt>
<trkpt lat="24.225792" lon="106.300714">
<time>2016-10-06T19:43:30Z</time></trkpt>
<trkpt lat="24.225872" lon="106.300534">
<time>2016-10-06T19:43:31Z</time></trkpt>
<trkpt lat="24.225973" lon="106.300375">
<time>2016-10-06T19:43:32Z</time></trkpt>
<trkpt lat="24.226103" lon="106.300155">
<time>2016-10-06T19:43:33Z</time></trkpt>
<trkpt lat="24.226414" lon="106.299696">
<time>2016-10-06T19:43:34Z</time></trkpt>
<trkpt lat="24.226564" lon="106.299467">
<time>2016-10-06T19:43:35Z</time></trkpt>
<trkpt lat="24.226705" lon="106.299237">
<time>2016-10-06T19:43:36Z</time></trkpt>
<trkpt lat="24.226775" lon="106.299107">
<time>2016-10-06T19:43:37Z</time></trkpt>
<trkpt lat="24.226855" lon="106.298978">
<time>2016-10-06T19:43:38Z</time></trkpt>
<trkpt lat="24.226906" lon="106.298868">
<time>2016-10-06T19:43:39Z</time></trkpt>
<trkpt lat="24.227036" lon="106.298588">
<time>2016-10-06T19:43:40Z</time></trkpt>
<trkpt lat="24.227086" lon="106.298469">
<time>2016-10-06T19:43:41Z</time></trkpt>
<trkpt lat="24.227117" lon="106.298339">
<time>2016-10-06T19:43:42Z</time></trkpt>
<trkpt lat="24.227177" lon="106.298139">
<time>2016-10-06T19:43:43Z</time></trkpt>
<trkpt lat="24.227247" lon="106.29789">
<time>2016-10-06T19:43:44Z</time></trkpt>
<trkpt lat="24.227318" lon="106.29768">
<time>2016-10-06T19:43:45Z</time></trkpt>
<trkpt lat="24.227388" lon="106.297491">
<time>2016-10-06T19:43:46Z</time></trkpt>
<trkpt lat="24.227498" lon="106.297251">
<time>2016-10-06T19:43:47Z</time></trkpt>
<trkpt lat="24.227609" lon="106.297082">
<time>2016-10-06T19:43:48Z</time></trkpt>
<trkpt lat="24.227729" lon="106.296942">
<time>2016-10-06T19:43:49Z</time></trkpt>
<trkpt lat="24.227859" lon="106.296792">
<time>2016-10-06T19:43:50Z</time></trkpt>
<trkpt lat="24.22801" lon="106.296652">
<time>2016-10-06T19:43:51Z</time></trkpt>
<trkpt lat="24.2282" lon="106.296473">
<time>2016-10-06T19:43:52Z</time></trkpt>
<trkpt lat="24.229152" lon="106.295654">
<time>2016-10-06T19:43:53Z</time></trkpt>
<trkpt lat="24.229532" lon="106.295335">
<time>2016-10-06T19:43:54Z</time></trkpt>
<trkpt lat="24.229793" lon="106.295085">
<time>2016-10-06T19:43:55Z</time></trkpt>
<trkpt lat="24.229903" lon="106.294956">
<time>2016-10-06T19:43:56Z</time></trkpt>
<trkpt lat="24.230013" lon="106.294836">
<time>2016-10-06T19:43:57Z</time></trkpt>
<trkpt lat="24.230134" lon="106.294646">
<time>2016-10-06T19:43:58Z</time></trkpt>
<trkpt lat="24.230234" lon="106.294477">
<time>2016-10-06T19:43:59Z</time></trkpt>
<trkpt lat="24.230354" lon="106.294267">
<time>2016-10-06T19:44:00Z</time></trkpt>
<trkpt lat="24.230485" lon="106.294008">
<time>2016-10-06T19:44:01Z</time></trkpt>
<trkpt lat="24.230906" lon="106.293039">
<time>2016-10-06T19:44:02Z</time></trkpt>
<trkpt lat="24.231057" lon="106.29271">
<time>2016-10-06T19:44:03Z</time></trkpt>
<trkpt lat="24.231388" lon="106.292271">
<time>2016-10-06T19:44:04Z</time></trkpt>
<trkpt lat="24.231989" lon="106.291732">
<time>2016-10-06T19:44:05Z</time></trkpt>
<trkpt lat="24.233341" lon="106.290494">
<time>2016-10-06T19:44:06Z</time></trkpt>
<trkpt lat="24.234012" lon="106.289975">
<time>2016-10-06T19:44:07Z</time></trkpt>
<trkpt lat="24.234303" lon="106.289815">
<time>2016-10-06T19:44:08Z</time></trkpt>
<trkpt lat="24.234553" lon="106.289745">
<time>2016-10-06T19:44:09Z</time></trkpt>
<trkpt lat="24.234813" lon="106.289676">
<time>2016-10-06T19:44:10Z</time></trkpt>
<trkpt lat="24.235023" lon="106.289586">
<time>2016-10-06T19:44:11Z</time></trkpt>
<trkpt lat="24.235283" lon="106.289456">
<time>2016-10-06T19:44:12Z</time></trkpt>
<trkpt lat="24.235654" lon="106.289246">
<time>2016-10-06T19:44:13Z</time></trkpt>
<trkpt lat="24.235924" lon="106.289117">
<time>2016-10-06T19:44:14Z</time></trkpt>
<trkpt lat="24.236225" lon="106.288977">
<time>2016-10-06T19:44:15Z</time></trkpt>
<trkpt lat="24.236345" lon="106.288927">
<time>2016-10-06T19:44:16Z</time></trkpt>
<trkpt lat="24.236445" lon="106.288887">
<time>2016-10-06T19:44:17Z</time></trkpt>
<trkpt lat="24.236555" lon="106.288857">
<time>2016-10-06T19:44:18Z</time></trkpt>
<trkpt lat="24.236735" lon="106.288817">
<time>2016-10-06T19:44:19Z</time></trkpt>
<trkpt lat="24.236835" lon="106.288797">
<time>2016-10-06T19:44:20Z</time></trkpt>
<trkpt lat="24.237035" lon="106.288767">
<time>2016-10-06T19:44:21Z</time></trkpt>
<trkpt lat="24.237625" lon="106.288677">
<time>2016-10-06T19:44:22Z</time></trkpt>
<trkpt lat="24.237936" lon="106.288627">
<time>2016-10-06T19:44:23Z</time></trkpt>
<trkpt lat="24.238186" lon="106.288577">
<time>2016-10-06T19:44:24Z</time></trkpt>
<trkpt lat="24.238376" lon="106.288527">
<time>2016-10-06T19:44:25Z</time></trkpt>
<trkpt lat="24.238396" lon="106.288527">
<time>2016-10-06T19:44:26Z</time></trkpt>
<trkpt lat="24.238466" lon="106.288498">
<time>2016-10-06T19:44:27Z</time></trkpt>
<trkpt lat="24.238536" lon="106.288478">
<time>2016-10-06T19:44:28Z</time></trkpt>
<trkpt lat="24.238636" lon="106.288438">
<time>2016-10-06T19:44:29Z</time></trkpt>
<trkpt lat="24.238716" lon="106.288398">
<time>2016-10-06T19:44:30Z</time></trkpt>
<trkpt lat="24.238816" lon="106.288338">
<time>2016-10-06T19:44:31Z</time></trkpt>
<trkpt lat="24.238897" lon="106.288278">
<time>2016-10-06T19:44:32Z</time></trkpt>
<trkpt lat="24.239117" lon="106.288118">
<time>2016-10-06T19:44:33Z</time></trkpt>
<trkpt lat="24.239167" lon="106.288078">
<time>2016-10-06T19:44:34Z</time></trkpt>
<trkpt lat="24.239307" lon="106.287958">
<time>2016-10-06T19:44:35Z</time></trkpt>
<trkpt lat="24.239387" lon="106.287889">
<time>2016-10-06T19:44:36Z</time></trkpt>
<trkpt lat="24.239608" lon="106.287699">
<time>2016-10-06T19:44:37Z</time></trkpt>
<trkpt lat="24.239778" lon="106.287559">
<time>2016-10-06T19:44:38Z</time></trkpt>
<trkpt lat="24.239798" lon="106.287539">
<time>2016-10-06T19:44:39Z</time></trkpt>
<trkpt lat="24.239818" lon="106.287519">
<time>2016-10-06T19:44:40Z</time></trkpt>
<trkpt lat="24.239868" lon="106.287479">
<time>2016-10-06T19:44:41Z</time></trkpt>
<trkpt lat="24.239928" lon="106.287419">
<time>2016-10-06T19:44:42Z</time></trkpt>
<trkpt lat="24.239948" lon="106.287409">
<time>2016-10-06T19:44:43Z</time></trkpt>
<trkpt lat="24.239958" lon="106.287399">
<time>2016-10-06T19:44:44Z</time></trkpt>
<trkpt lat="24.239988" lon="106.287379">
<time>2016-10-06T19:44:45Z</time></trkpt>
<trkpt lat="24.240048" lon="106.28732">
<time>2016-10-06T19:44:46Z</time></trkpt>
<trkpt lat="24.240078" lon="106.28729">
<time>2016-10-06T19:44:47Z</time></trkpt>
<trkpt lat="24.240098" lon="106.28727">
<time>2016-10-06T19:44:48Z</time></trkpt>
<trkpt lat="24.240189" lon="106.28719">
<time>2016-10-06T19:44:49Z</time></trkpt>
<trkpt lat="24.240389" lon="106.28701">
<time>2016-10-06T19:44:50Z</time></trkpt>
<trkpt lat="24.240569" lon="106.28685">
<time>2016-10-06T19:44:51Z</time></trkpt>
<trkpt lat="24.240689" lon="106.28677">
<time>2016-10-06T19:44:52Z</time></trkpt>
<trkpt lat="24.24091" lon="106.286591">
<time>2016-10-06T19:44:53Z</time></trkpt>
<trkpt lat="24.24135" lon="106.286201">
<time>2016-10-06T19:44:54Z</time></trkpt>
<trkpt lat="24.241481" lon="106.286042">
<time>2016-10-06T19:44:55Z</time></trkpt>
<trkpt lat="24.241581" lon="106.285912">
<time>2016-10-06T19:44:56Z</time></trkpt>
<trkpt lat="24.241681" lon="106.285772">
<time>2016-10-06T19:44:57Z</time></trkpt>
<trkpt lat="24.241771" lon="106.285622">
<time>2016-10-06T19:44:58Z</time></trkpt>
<trkpt lat="24.241821" lon="106.285543">
<time>2016-10-06T19:44:59Z</time></trkpt>
<trkpt lat="24.241862" lon="106.285453">
<time>2016-10-06T19:45:00Z</time></trkpt>
<trkpt lat="24.241892" lon="106.285403">
<time>2016-10-06T19:45:01Z</time></trkpt>
<trkpt lat="24.241962" lon="106.285273">
<time>2016-10-06T19:45:02Z</time></trkpt>
<trkpt lat="24.242042" lon="106.285123">
<time>2016-10-06T19:45:03Z</time></trkpt>
<trkpt lat="24.242082" lon="106.285033">
<time>2016-10-06T19:45:04Z</time></trkpt>
<trkpt lat="24.242122" lon="106.284974">
<time>2016-10-06T19:45:05Z</time></trkpt>
<trkpt lat="24.242162" lon="106.284904">
<time>2016-10-06T19:45:06Z</time></trkpt>
<trkpt lat="24.242192" lon="106.284834">
<time>2016-10-06T19:45:07Z</time></trkpt>
<trkpt lat="24.242223" lon="106.284784">
<time>2016-10-06T19:45:08Z</time></trkpt>
<trkpt lat="24.242253" lon="106.284734">
<time>2016-10-06T19:45:09Z</time></trkpt>
<trkpt lat="24.242293" lon="106.284654">
<time>2016-10-06T19:45:10Z</time></trkpt>
<trkpt lat="24.242373" lon="106.284524">
<time>2016-10-06T19:45:11Z</time></trkpt>
<trkpt lat="24.242433" lon="106.284414">
<time>2016-10-06T19:45:12Z</time></trkpt>
<trkpt lat="24.242553" lon="106.284235">
<time>2016-10-06T19:45:13Z</time></trkpt>
<trkpt lat="24.242614" lon="106.284145">
<time>2016-10-06T19:45:14Z</time></trkpt>
<trkpt lat="24.242694" lon="106.284035">
<time>2016-10-06T19:45:15Z</time></trkpt>
<trkpt lat="24.242814" lon="106.283885">
<time>2016-10-06T19:45:16Z</time></trkpt>
<trkpt lat="24.243004" lon="106.283686">
<time>2016-10-06T19:45:17Z</time></trkpt>
<trkpt lat="24.243155" lon="106.283546">
<time>2016-10-06T19:45:18Z</time></trkpt>
<trkpt lat="24.243255" lon="106.283466">
<time>2016-10-06T19:45:19Z</time></trkpt>
<trkpt lat="24.243355" lon="106.283386">
<time>2016-10-06T19:45:20Z</time></trkpt>
<trkpt lat="24.243415" lon="106.283336">
<time>2016-10-06T19:45:21Z</time></trkpt>
<trkpt lat="24.243505" lon="106.283276">
<time>2016-10-06T19:45:22Z</time></trkpt>
<trkpt lat="24.243675" lon="106.283166">
<time>2016-10-06T19:45:23Z</time></trkpt>
<trkpt lat="24.243745" lon="106.283117">
<time>2016-10-06T19:45:24Z</time></trkpt>
<trkpt lat="24.243805" lon="106.283077">
<time>2016-10-06T19:45:25Z</time></trkpt>
<trkpt lat="24.243865" lon="106.283037">
<time>2016-10-06T19:45:26Z</time></trkpt>
<trkpt lat="24.244076" lon="106.282907">
<time>2016-10-06T19:45:27Z</time></trkpt>
<trkpt lat="24.244386" lon="106.282727">
<time>2016-10-06T19:45:28Z</time></trkpt>
<trkpt lat="24.244716" lon="106.282527">
<time>2016-10-06T19:45:29Z</time></trkpt>
<trkpt lat="24.245017" lon="106.282348">
<time>2016-10-06T19:45:30Z</time></trkpt>
<trkpt lat="24.245157" lon="106.282268">
<time>2016-10-06T19:45:31Z</time></trkpt>
<trkpt lat="24.245287" lon="106.282168">
<time>2016-10-06T19:45:32Z</time></trkpt>
<trkpt lat="24.245437" lon="106.282058">
<time>2016-10-06T19:45:33Z</time></trkpt>
<trkpt lat="24.245517" lon="106.281988">
<time>2016-10-06T19:45:34Z</time></trkpt>
<trkpt lat="24.245858" lon="106.281649">
<time>2016-10-06T19:45:35Z</time></trkpt>
<trkpt lat="24.246479" lon="106.28096">
<time>2016-10-06T19:45:36Z</time></trkpt>
<trkpt lat="24.2468" lon="106.280511">
<time>2016-10-06T19:45:37Z</time></trkpt>
<trkpt lat="24.24692" lon="106.280211">
<time>2016-10-06T19:45:38Z</time></trkpt>
<trkpt lat="24.247" lon="106.279991">
<time>2016-10-06T19:45:39Z</time></trkpt>
<trkpt lat="24.247041" lon="106.279812">
<time>2016-10-06T19:45:40Z</time></trkpt>
<trkpt lat="24.247111" lon="106.279462">
<time>2016-10-06T19:45:41Z</time></trkpt>
<trkpt lat="24.247151" lon="106.279143">
<time>2016-10-06T19:45:42Z</time></trkpt>
<trkpt lat="24.247192" lon="106.278713">
<time>2016-10-06T19:45:43Z</time></trkpt>
<trkpt lat="24.247212" lon="106.278294">
<time>2016-10-06T19:45:44Z</time></trkpt>
<trkpt lat="24.247203" lon="106.277934">
<time>2016-10-06T19:45:45Z</time></trkpt>
<trkpt lat="24.247203" lon="106.277825">
<time>2016-10-06T19:45:46Z</time></trkpt>
<trkpt lat="24.247203" lon="106.277795">
<time>2016-10-06T19:45:47Z</time></trkpt>
<trkpt lat="24.247203" lon="106.277405">
<time>2016-10-06T19:45:48Z</time></trkpt>
<trkpt lat="24.247204" lon="106.277285">
<time>2016-10-06T19:45:49Z</time></trkpt>
<trkpt lat="24.247214" lon="106.277166">
<time>2016-10-06T19:45:50Z</time></trkpt>
<trkpt lat="24.247234" lon="106.277046">
<time>2016-10-06T19:45:51Z</time></trkpt>
<trkpt lat="24.247254" lon="106.276956">
<time>2016-10-06T19:45:52Z</time></trkpt>
<trkpt lat="24.247284" lon="106.276876">
<time>2016-10-06T19:45:53Z</time></trkpt>
<trkpt lat="24.247324" lon="106.276806">
<time>2016-10-06T19:45:54Z</time></trkpt>
<trkpt lat="24.247384" lon="106.276726">
<time>2016-10-06T19:45:55Z</time></trkpt>
<trkpt lat="24.247444" lon="106.276656">
<time>2016-10-06T19:45:56Z</time></trkpt>
<trkpt lat="24.247534" lon="106.276586">
<time>2016-10-06T19:45:57Z</time></trkpt>
<trkpt lat="24.247625" lon="106.276536">
<time>2016-10-06T19:45:58Z</time></trkpt>
<trkpt lat="24.247735" lon="106.276497">
<time>2016-10-06T19:45:59Z</time></trkpt>
<trkpt lat="24.247875" lon="106.276457">
<time>2016-10-06T19:46:00Z</time></trkpt>
<trkpt lat="24.248075" lon="106.276407">
<time>2016-10-06T19:46:01Z</time></trkpt>
<trkpt lat="24.248525" lon="106.276327">
<time>2016-10-06T19:46:02Z</time></trkpt>
<trkpt lat="24.248885" lon="106.276267">
<time>2016-10-06T19:46:03Z</time></trkpt>
<trkpt lat="24.249286" lon="106.276207">
<time>2016-10-06T19:46:04Z</time></trkpt>
<trkpt lat="24.249996" lon="106.276097">
<time>2016-10-06T19:46:05Z</time></trkpt>
<trkpt lat="24.250756" lon="106.276067">
<time>2016-10-06T19:46:06Z</time></trkpt>
<trkpt lat="24.251617" lon="106.276067">
<time>2016-10-06T19:46:07Z</time></trkpt>
<trkpt lat="24.252187" lon="106.276077">
<time>2016-10-06T19:46:08Z</time></trkpt>
<trkpt lat="24.252507" lon="106.276057">
<time>2016-10-06T19:46:09Z</time></trkpt>
<trkpt lat="24.252687" lon="106.276027">
<time>2016-10-06T19:46:10Z</time></trkpt>
<trkpt lat="24.252877" lon="106.275977">
<time>2016-10-06T19:46:11Z</time></trkpt>
<trkpt lat="24.253137" lon="106.275857">
<time>2016-10-06T19:46:12Z</time></trkpt>
<trkpt lat="24.253458" lon="106.275657">
<time>2016-10-06T19:46:13Z</time></trkpt>
<trkpt lat="24.253968" lon="106.275338">
<time>2016-10-06T19:46:14Z</time></trkpt>
<trkpt lat="24.254248" lon="106.275138">
<time>2016-10-06T19:46:15Z</time></trkpt>
<trkpt lat="24.254389" lon="106.275018">
<time>2016-10-06T19:46:16Z</time></trkpt>
<trkpt lat="24.254459" lon="106.274938">
<time>2016-10-06T19:46:17Z</time></trkpt>
<trkpt lat="24.254509" lon="106.274858">
<time>2016-10-06T19:46:18Z</time></trkpt>
<trkpt lat="24.254559" lon="106.274769">
<time>2016-10-06T19:46:19Z</time></trkpt>
<trkpt lat="24.254609" lon="106.274639">
<time>2016-10-06T19:46:20Z</time></trkpt>
<trkpt lat="24.254659" lon="106.274449">
<time>2016-10-06T19:46:21Z</time></trkpt>
<trkpt lat="24.25472" lon="106.274129">
<time>2016-10-06T19:46:22Z</time></trkpt>
<trkpt lat="24.25485" lon="106.27354">
<time>2016-10-06T19:46:23Z</time></trkpt>
<trkpt lat="24.254931" lon="106.273231">
<time>2016-10-06T19:46:24Z</time></trkpt>
<trkpt lat="24.254991" lon="106.273061">
<time>2016-10-06T19:46:25Z</time></trkpt>
<trkpt lat="24.255041" lon="106.272931">
<time>2016-10-06T19:46:26Z</time></trkpt>
<trkpt lat="24.255121" lon="106.272761">
<time>2016-10-06T19:46:27Z</time></trkpt>
<trkpt lat="24.255211" lon="106.272591">
<time>2016-10-06T19:46:28Z</time></trkpt>
<trkpt lat="24.255392" lon="106.272302">
<time>2016-10-06T19:46:29Z</time></trkpt>
<trkpt lat="24.255582" lon="106.271982">
<time>2016-10-06T19:46:30Z</time></trkpt>
<trkpt lat="24.255712" lon="106.271752">
<time>2016-10-06T19:46:31Z</time></trkpt>
<trkpt lat="24.255803" lon="106.271543">
<time>2016-10-06T19:46:32Z</time></trkpt>
<trkpt lat="24.255883" lon="106.271363">
<time>2016-10-06T19:46:33Z</time></trkpt>
<trkpt lat="24.256033" lon="106.270914">
<time>2016-10-06T19:46:34Z</time></trkpt>
<trkpt lat="24.256083" lon="106.270814">
<time>2016-10-06T19:46:35Z</time></trkpt>
<trkpt lat="24.256224" lon="106.270494">
<time>2016-10-06T19:46:36Z</time></trkpt>
<trkpt lat="24.256304" lon="106.270344">
<time>2016-10-06T19:46:37Z</time></trkpt>
<trkpt lat="24.256384" lon="106.270194">
<time>2016-10-06T19:46:38Z</time></trkpt>
<trkpt lat="24.256474" lon="106.270065">
<time>2016-10-06T19:46:39Z</time></trkpt>
<trkpt lat="24.256564" lon="106.269965">
<time>2016-10-06T19:46:40Z</time></trkpt>
<trkpt lat="24.256684" lon="106.269845">
<time>2016-10-06T19:46:41Z</time></trkpt>
<trkpt lat="24.256875" lon="106.269715">
<time>2016-10-06T19:46:42Z</time></trkpt>
<trkpt lat="24.257035" lon="106.269625">
<time>2016-10-06T19:46:43Z</time></trkpt>
<trkpt lat="24.257205" lon="106.269555">
<time>2016-10-06T19:46:44Z</time></trkpt>
<trkpt lat="24.257375" lon="106.269505">
<time>2016-10-06T19:46:45Z</time></trkpt>
<trkpt lat="24.257665" lon="106.269455">
<time>2016-10-06T19:46:46Z</time></trkpt>
<trkpt lat="24.257885" lon="106.269445">
<time>2016-10-06T19:46:47Z</time></trkpt>
<trkpt lat="24.258405" lon="106.269425">
<time>2016-10-06T19:46:48Z</time></trkpt>
<trkpt lat="24.258735" lon="106.269415">
<time>2016-10-06T19:46:49Z</time></trkpt>
<trkpt lat="24.258826" lon="106.269415">
<time>2016-10-06T19:46:50Z</time></trkpt>
<trkpt lat="24.258876" lon="106.269415">
<time>2016-10-06T19:46:51Z</time></trkpt>
<trkpt lat="24.259526" lon="106.269395">
<time>2016-10-06T19:46:52Z</time></trkpt>
<trkpt lat="24.259946" lon="106.269355">
<time>2016-10-06T19:46:53Z</time></trkpt>
<trkpt lat="24.260316" lon="106.269285">
<time>2016-10-06T19:46:54Z</time></trkpt>
<trkpt lat="24.260646" lon="106.269165">
<time>2016-10-06T19:46:55Z</time></trkpt>
<trkpt lat="24.260917" lon="106.269065">
<time>2016-10-06T19:46:56Z</time></trkpt>
<trkpt lat="24.261077" lon="106.268986">
<time>2016-10-06T19:46:57Z</time></trkpt>
<trkpt lat="24.261217" lon="106.268906">
<time>2016-10-06T19:46:58Z</time></trkpt>
<trkpt lat="24.261577" lon="106.268686">
<time>2016-10-06T19:46:59Z</time></trkpt>
<trkpt lat="24.261987" lon="106.268436">
<time>2016-10-06T19:47:00Z</time></trkpt>
<trkpt lat="24.262478" lon="106.268136">
<time>2016-10-06T19:47:01Z</time></trkpt>
<trkpt lat="24.262748" lon="106.268007">
<time>2016-10-06T19:47:02Z</time></trkpt>
<trkpt lat="24.262938" lon="106.267927">
<time>2016-10-06T19:47:03Z</time></trkpt>
<trkpt lat="24.263399" lon="106.267787">
<time>2016-10-06T19:47:04Z</time></trkpt>
<trkpt lat="24.264239" lon="106.267557">
<time>2016-10-06T19:47:05Z</time></trkpt>
<trkpt lat="24.264489" lon="106.267487">
<time>2016-10-06T19:47:06Z</time></trkpt>
<trkpt lat="24.264809" lon="106.267377">
<time>2016-10-06T19:47:07Z</time></trkpt>
<trkpt lat="24.264959" lon="106.267307">
<time>2016-10-06T19:47:08Z</time></trkpt>
<trkpt lat="24.26513" lon="106.267217">
<time>2016-10-06T19:47:09Z</time></trkpt>
<trkpt lat="24.26529" lon="106.267107">
<time>2016-10-06T19:47:10Z</time></trkpt>
<trkpt lat="24.26541" lon="106.266988">
<time>2016-10-06T19:47:11Z</time></trkpt>
<trkpt lat="24.26552" lon="106.266868">
<time>2016-10-06T19:47:12Z</time></trkpt>
<trkpt lat="24.26562" lon="106.266698">
<time>2016-10-06T19:47:13Z</time></trkpt>
<trkpt lat="24.26567" lon="106.266568">
<time>2016-10-06T19:47:14Z</time></trkpt>
<trkpt lat="24.26571" lon="106.266448">
<time>2016-10-06T19:47:15Z</time></trkpt>
<trkpt lat="24.26573" lon="106.266328">
<time>2016-10-06T19:47:16Z</time></trkpt>
<trkpt lat="24.265741" lon="106.266218">
<time>2016-10-06T19:47:17Z</time></trkpt>
<trkpt lat="24.265731" lon="106.266069">
<time>2016-10-06T19:47:18Z</time></trkpt>
<trkpt lat="24.265711" lon="106.265919">
<time>2016-10-06T19:47:19Z</time></trkpt>
<trkpt lat="24.265661" lon="106.265779">
<time>2016-10-06T19:47:20Z</time></trkpt>
<trkpt lat="24.265601" lon="106.265619">
<time>2016-10-06T19:47:21Z</time></trkpt>
<trkpt lat="24.265521" lon="106.265469">
<time>2016-10-06T19:47:22Z</time></trkpt>
<trkpt lat="24.265431" lon="106.265319">
<time>2016-10-06T19:47:23Z</time></trkpt>
<trkpt lat="24.265321" lon="106.265179">
<time>2016-10-06T19:47:24Z</time></trkpt>
<trkpt lat="24.265181" lon="106.26501">
<time>2016-10-06T19:47:25Z</time></trkpt>
<trkpt lat="24.264991" lon="106.26482">
<time>2016-10-06T19:47:26Z</time></trkpt>
<trkpt lat="24.264911" lon="106.26473">
<time>2016-10-06T19:47:27Z</time></trkpt>
<trkpt lat="24.264841" lon="106.26466">
<time>2016-10-06T19:47:28Z</time></trkpt>
<trkpt lat="24.264731" lon="106.26452">
<time>2016-10-06T19:47:29Z</time></trkpt>
<trkpt lat="24.264631" lon="106.26439">
<time>2016-10-06T19:47:30Z</time></trkpt>
<trkpt lat="24.264552" lon="106.26425">
<time>2016-10-06T19:47:31Z</time></trkpt>
<trkpt lat="24.264502" lon="106.264091">
<time>2016-10-06T19:47:32Z</time></trkpt>
<trkpt lat="24.264462" lon="106.263861">
<time>2016-10-06T19:47:33Z</time></trkpt>
<trkpt lat="24.264452" lon="106.263691">
<time>2016-10-06T19:47:34Z</time></trkpt>
<trkpt lat="24.264492" lon="106.263521">
<time>2016-10-06T19:47:35Z</time></trkpt>
<trkpt lat="24.264542" lon="106.263331">
<time>2016-10-06T19:47:36Z</time></trkpt>
<trkpt lat="24.264632" lon="106.263131">
<time>2016-10-06T19:47:37Z</time></trkpt>
<trkpt lat="24.264782" lon="106.262912">
<time>2016-10-06T19:47:38Z</time></trkpt>
<trkpt lat="24.264933" lon="106.262712">
<time>2016-10-06T19:47:39Z</time></trkpt>
<trkpt lat="24.265443" lon="106.262092">
<time>2016-10-06T19:47:40Z</time></trkpt>
<trkpt lat="24.265774" lon="106.261723">
<time>2016-10-06T19:47:41Z</time></trkpt>
<trkpt lat="24.266094" lon="106.261323">
<time>2016-10-06T19:47:42Z</time></trkpt>
<trkpt lat="24.266384" lon="106.260923">
<time>2016-10-06T19:47:43Z</time></trkpt>
<trkpt lat="24.266985" lon="106.260004">
<time>2016-10-06T19:47:44Z</time></trkpt>
<trkpt lat="24.267345" lon="106.259414">
<time>2016-10-06T19:47:45Z</time></trkpt>
<trkpt lat="24.267826" lon="106.258715">
<time>2016-10-06T19:47:46Z</time></trkpt>
<trkpt lat="24.268146" lon="106.258325">
<time>2016-10-06T19:47:47Z</time></trkpt>
<trkpt lat="24.268356" lon="106.258115">
<time>2016-10-06T19:47:48Z</time></trkpt>
<trkpt lat="24.268957" lon="106.257626">
<time>2016-10-06T19:47:49Z</time></trkpt>
<trkpt lat="24.269197" lon="106.257446">
<time>2016-10-06T19:47:50Z</time></trkpt>
<trkpt lat="24.269487" lon="106.257176">
<time>2016-10-06T19:47:51Z</time></trkpt>
<trkpt lat="24.269947" lon="106.256716">
<time>2016-10-06T19:47:52Z</time></trkpt>
<trkpt lat="24.270468" lon="106.256177">
<time>2016-10-06T19:47:53Z</time></trkpt>
<trkpt lat="24.271178" lon="106.255477">
<time>2016-10-06T19:47:54Z</time></trkpt>
<trkpt lat="24.271869" lon="106.254847">
<time>2016-10-06T19:47:55Z</time></trkpt>
<trkpt lat="24.272619" lon="106.254158">
<time>2016-10-06T19:47:56Z</time></trkpt>
<trkpt lat="24.27336" lon="106.253478">
<time>2016-10-06T19:47:57Z</time></trkpt>
<trkpt lat="24.27386" lon="106.253028">
<time>2016-10-06T19:47:58Z</time></trkpt>
<trkpt lat="24.27435" lon="106.252628">
<time>2016-10-06T19:47:59Z</time></trkpt>
<trkpt lat="24.274891" lon="106.252209">
<time>2016-10-06T19:48:00Z</time></trkpt>
<trkpt lat="24.275281" lon="106.251899">
<time>2016-10-06T19:48:01Z</time></trkpt>
<trkpt lat="24.275581" lon="106.251649">
<time>2016-10-06T19:48:02Z</time></trkpt>
<trkpt lat="24.276121" lon="106.251129">
<time>2016-10-06T19:48:03Z</time></trkpt>
<trkpt lat="24.276341" lon="106.250919">
<time>2016-10-06T19:48:04Z</time></trkpt>
<trkpt lat="24.276541" lon="106.250679">
<time>2016-10-06T19:48:05Z</time></trkpt>
<trkpt lat="24.276832" lon="106.250309">
<time>2016-10-06T19:48:06Z</time></trkpt>
<trkpt lat="24.277052" lon="106.249999">
<time>2016-10-06T19:48:07Z</time></trkpt>
<trkpt lat="24.277162" lon="106.249839">
<time>2016-10-06T19:48:08Z</time></trkpt>
<trkpt lat="24.277502" lon="106.24933">
<time>2016-10-06T19:48:09Z</time></trkpt>
<trkpt lat="24.277892" lon="106.24881">
<time>2016-10-06T19:48:10Z</time></trkpt>
<trkpt lat="24.278122" lon="106.24854">
<time>2016-10-06T19:48:11Z</time></trkpt>
<trkpt lat="24.278522" lon="106.24817">
<time>2016-10-06T19:48:12Z</time></trkpt>
<trkpt lat="24.279113" lon="106.24769">
<time>2016-10-06T19:48:13Z</time></trkpt>
<trkpt lat="24.279833" lon="106.2471">
<time>2016-10-06T19:48:14Z</time></trkpt>
<trkpt lat="24.279863" lon="106.24708">
<time>2016-10-06T19:48:15Z</time></trkpt>
<trkpt lat="24.280023" lon="106.24696">
<time>2016-10-06T19:48:16Z</time></trkpt>
<trkpt lat="24.280323" lon="106.24679">
<time>2016-10-06T19:48:17Z</time></trkpt>
<trkpt lat="24.280683" lon="106.24664">
<time>2016-10-06T19:48:18Z</time></trkpt>
<trkpt lat="24.280903" lon="106.24652">
<time>2016-10-06T19:48:19Z</time></trkpt>
<trkpt lat="24.281113" lon="106.24639">
<time>2016-10-06T19:48:20Z</time></trkpt>
<trkpt lat="24.281534" lon="106.24608">
<time>2016-10-06T19:48:21Z</time></trkpt>
<trkpt lat="24.282014" lon="106.24569">
<time>2016-10-06T19:48:22Z</time></trkpt>
<trkpt lat="24.282664" lon="106.24518">
<time>2016-10-06T19:48:23Z</time></trkpt>
<trkpt lat="24.282864" lon="106.245">
<time>2016-10-06T19:48:24Z</time></trkpt>
<trkpt lat="24.283124" lon="106.24474">
<time>2016-10-06T19:48:25Z</time></trkpt>
<trkpt lat="24.283364" lon="106.244461">
<time>2016-10-06T19:48:26Z</time></trkpt>
<trkpt lat="24.283744" lon="106.243991">
<time>2016-10-06T19:48:27Z</time></trkpt>
<trkpt lat="24.284034" lon="106.243671">
<time>2016-10-06T19:48:28Z</time></trkpt>
<trkpt lat="24.285765" lon="106.241901">
<time>2016-10-06T19:48:29Z</time></trkpt>
<trkpt lat="24.285765" lon="106.241901">
<time>2016-10-06T19:48:30Z</time></trkpt>
<trkpt lat="24.285795" lon="106.241891">
<time>2016-10-06T19:48:31Z</time></trkpt>
<trkpt lat="24.285835" lon="106.241841">
<time>2016-10-06T19:48:32Z</time></trkpt>
<trkpt lat="24.285875" lon="106.241791">
<time>2016-10-06T19:48:33Z</time></trkpt>
<trkpt lat="24.285895" lon="106.241751">
<time>2016-10-06T19:48:34Z</time></trkpt>
<trkpt lat="24.286195" lon="106.241391">
<time>2016-10-06T19:48:35Z</time></trkpt>
<trkpt lat="24.286405" lon="106.241161">
<time>2016-10-06T19:48:36Z</time></trkpt>
<trkpt lat="24.286405" lon="106.241161">
<time>2016-10-06T19:48:37Z</time></trkpt>
<trkpt lat="24.286685" lon="106.240731">
<time>2016-10-06T19:48:38Z</time></trkpt>
<trkpt lat="24.286695" lon="106.240731">
<time>2016-10-06T19:48:39Z</time></trkpt>
<trkpt lat="24.286935" lon="106.240431">
<time>2016-10-06T19:48:40Z</time></trkpt>
<trkpt lat="24.287095" lon="106.240201">
<time>2016-10-06T19:48:41Z</time></trkpt>
<trkpt lat="24.287235" lon="106.240001">
<time>2016-10-06T19:48:42Z</time></trkpt>
<trkpt lat="24.287365" lon="106.239791">
<time>2016-10-06T19:48:43Z</time></trkpt>
<trkpt lat="24.287425" lon="106.239641">
<time>2016-10-06T19:48:44Z</time></trkpt>
<trkpt lat="24.287485" lon="106.239441">
<time>2016-10-06T19:48:45Z</time></trkpt>
<trkpt lat="24.287545" lon="106.23915">
<time>2016-10-06T19:48:46Z</time></trkpt>
<trkpt lat="24.287675" lon="106.23875">
<time>2016-10-06T19:48:47Z</time></trkpt>
<trkpt lat="24.287845" lon="106.2383">
<time>2016-10-06T19:48:48Z</time></trkpt>
<trkpt lat="24.288104" lon="106.23777">
<time>2016-10-06T19:48:49Z</time></trkpt>
<trkpt lat="24.288334" lon="106.23727">
<time>2016-10-06T19:48:50Z</time></trkpt>
<trkpt lat="24.288414" lon="106.23709">
<time>2016-10-06T19:48:51Z</time></trkpt>
<trkpt lat="24.288514" lon="106.23694">
<time>2016-10-06T19:48:52Z</time></trkpt>
<trkpt lat="24.288654" lon="106.23677">
<time>2016-10-06T19:48:53Z</time></trkpt>
<trkpt lat="24.288774" lon="106.23666">
<time>2016-10-06T19:48:54Z</time></trkpt>
<trkpt lat="24.288924" lon="106.23653">
<time>2016-10-06T19:48:55Z</time></trkpt>
<trkpt lat="24.289204" lon="106.23633">
<time>2016-10-06T19:48:56Z</time></trkpt>
<trkpt lat="24.289384" lon="106.23619">
<time>2016-10-06T19:48:57Z</time></trkpt>
<trkpt lat="24.289474" lon="106.2361">
<time>2016-10-06T19:48:58Z</time></trkpt>
<trkpt lat="24.289574" lon="106.23601">
<time>2016-10-06T19:48:59Z</time></trkpt>
<trkpt lat="24.289684" lon="106.23587">
<time>2016-10-06T19:49:00Z</time></trkpt>
<trkpt lat="24.289844" lon="106.23567">
<time>2016-10-06T19:49:01Z</time></trkpt>
<trkpt lat="24.289994" lon="106.23546">
<time>2016-10-06T19:49:02Z</time></trkpt>
<trkpt lat="24.290134" lon="106.23527">
<time>2016-10-06T19:49:03Z</time></trkpt>
<trkpt lat="24.290234" lon="106.23508">
<time>2016-10-06T19:49:04Z</time></trkpt>
<trkpt lat="24.290284" lon="106.23498">
<time>2016-10-06T19:49:05Z</time></trkpt>
<trkpt lat="24.290334" lon="106.23488">
<time>2016-10-06T19:49:06Z</time></trkpt>
<trkpt lat="24.290444" lon="106.23465">
<time>2016-10-06T19:49:07Z</time></trkpt>
<trkpt lat="24.290624" lon="106.234269">
<time>2016-10-06T19:49:08Z</time></trkpt>
<trkpt lat="24.290694" lon="106.234109">
<time>2016-10-06T19:49:09Z</time></trkpt>
<trkpt lat="24.290954" lon="106.233699">
<time>2016-10-06T19:49:10Z</time></trkpt>
<trkpt lat="24.291154" lon="106.233359">
<time>2016-10-06T19:49:11Z</time></trkpt>
<trkpt lat="24.291553" lon="106.232669">
<time>2016-10-06T19:49:12Z</time></trkpt>
<trkpt lat="24.291743" lon="106.232359">
<time>2016-10-06T19:49:13Z</time></trkpt>
<trkpt lat="24.291933" lon="106.232099">
<time>2016-10-06T19:49:14Z</time></trkpt>
<trkpt lat="24.292133" lon="106.231849">
<time>2016-10-06T19:49:15Z</time></trkpt>
<trkpt lat="24.292323" lon="106.231628">
<time>2016-10-06T19:49:16Z</time></trkpt>
<trkpt lat="24.292673" lon="106.231238">
<time>2016-10-06T19:49:17Z</time></trkpt>
<trkpt lat="24.292773" lon="106.231118">
<time>2016-10-06T19:49:18Z</time></trkpt>
<trkpt lat="24.292823" lon="106.231038">
<time>2016-10-06T19:49:19Z</time></trkpt>
<trkpt lat="24.293113" lon="106.230468">
<time>2016-10-06T19:49:20Z</time></trkpt>
<trkpt lat="24.293193" lon="106.230278">
<time>2016-10-06T19:49:21Z</time></trkpt>
<trkpt lat="24.293193" lon="106.230278">
<time>2016-10-06T19:49:22Z</time></trkpt>
<trkpt lat="24.293403" lon="106.229848">
<time>2016-10-06T19:49:23Z</time></trkpt>
<trkpt lat="24.293482" lon="106.229678">
<time>2016-10-06T19:49:24Z</time></trkpt>
<trkpt lat="24.293542" lon="106.229538">
<time>2016-10-06T19:49:25Z</time></trkpt>
<trkpt lat="24.293582" lon="106.229417">
<time>2016-10-06T19:49:26Z</time></trkpt>
<trkpt lat="24.293642" lon="106.229287">
<time>2016-10-06T19:49:27Z</time></trkpt>
<trkpt lat="24.293732" lon="106.229137">
<time>2016-10-06T19:49:28Z</time></trkpt>
<trkpt lat="24.293862" lon="106.228947">
<time>2016-10-06T19:49:29Z</time></trkpt>
<trkpt lat="24.294042" lon="106.228747">
<time>2016-10-06T19:49:30Z</time></trkpt>
<trkpt lat="24.294122" lon="106.228647">
<time>2016-10-06T19:49:31Z</time></trkpt>
<trkpt lat="24.294182" lon="106.228577">
<time>2016-10-06T19:49:32Z</time></trkpt>
<trkpt lat="24.294272" lon="106.228437">
<time>2016-10-06T19:49:33Z</time></trkpt>
<trkpt lat="24.294502" lon="106.228057">
<time>2016-10-06T19:49:34Z</time></trkpt>
<trkpt lat="24.294722" lon="106.227717">
<time>2016-10-06T19:49:35Z</time></trkpt>
<trkpt lat="24.294772" lon="106.227637">
<time>2016-10-06T19:49:36Z</time></trkpt>
<trkpt lat="24.294861" lon="106.227496">
<time>2016-10-06T19:49:37Z</time></trkpt>
<trkpt lat="24.294951" lon="106.227376">
<time>2016-10-06T19:49:38Z</time></trkpt>
<trkpt lat="24.295081" lon="106.227196">
<time>2016-10-06T19:49:39Z</time></trkpt>
<trkpt lat="24.295261" lon="106.226986">
<time>2016-10-06T19:49:40Z</time></trkpt>
<trkpt lat="24.295301" lon="106.226916">
<time>2016-10-06T19:49:41Z</time></trkpt>
<trkpt lat="24.295311" lon="106.226906">
<time>2016-10-06T19:49:42Z</time></trkpt>
<trkpt lat="24.295511" lon="106.226656">
<time>2016-10-06T19:49:43Z</time></trkpt>
<trkpt lat="24.295841" lon="106.226236">
<time>2016-10-06T19:49:44Z</time></trkpt>
<trkpt lat="24.295871" lon="106.226206">
<time>2016-10-06T19:49:45Z</time></trkpt>
<trkpt lat="24.296101" lon="106.225985">
<time>2016-10-06T19:49:46Z</time></trkpt>
<trkpt lat="24.296261" lon="106.225815">
<time>2016-10-06T19:49:47Z</time></trkpt>
<trkpt lat="24.296401" lon="106.225685">
<time>2016-10-06T19:49:48Z</time></trkpt>
<trkpt lat="24.296451" lon="106.225635">
<time>2016-10-06T19:49:49Z</time></trkpt>
<trkpt lat="24.296491" lon="106.225585">
<time>2016-10-06T19:49:50Z</time></trkpt>
<trkpt lat="24.296631" lon="106.225445">
<time>2016-10-06T19:49:51Z</time></trkpt>
<trkpt lat="24.29713" lon="106.224995">
<time>2016-10-06T19:49:52Z</time></trkpt>
<trkpt lat="24.2973" lon="106.224845">
<time>2016-10-06T19:49:53Z</time></trkpt>
<trkpt lat="24.2976" lon="106.224625">
<time>2016-10-06T19:49:54Z</time></trkpt>
<trkpt lat="24.29823" lon="106.224184">
<time>2016-10-06T19:49:55Z</time></trkpt>
<trkpt lat="24.29834" lon="106.224114">
<time>2016-10-06T19:49:56Z</time></trkpt>
<trkpt lat="24.29838" lon="106.224084">
<time>2016-10-06T19:49:57Z</time></trkpt>
<trkpt lat="24.29844" lon="106.224064">
<time>2016-10-06T19:49:58Z</time></trkpt>
<trkpt lat="24.29864" lon="106.224024">
<time>2016-10-06T19:49:59Z</time></trkpt>
<trkpt lat="24.29872" lon="106.224004">
<time>2016-10-06T19:50:00Z</time></trkpt>
<trkpt lat="24.29876" lon="106.223994">
<time>2016-10-06T19:50:01Z</time></trkpt>
<trkpt lat="24.29896" lon="106.223924">
<time>2016-10-06T19:50:02Z</time></trkpt>
<trkpt lat="24.29896" lon="106.223924">
<time>2016-10-06T19:50:03Z</time></trkpt>
<trkpt lat="24.298859" lon="106.222463">
<time>2016-10-06T19:50:04Z</time></trkpt>
<trkpt lat="24.298829" lon="106.222163">
<time>2016-10-06T19:50:05Z</time></trkpt>
<trkpt lat="24.298768" lon="106.221572">
<time>2016-10-06T19:50:06Z</time></trkpt>
<trkpt lat="24.298758" lon="106.221502">
<time>2016-10-06T19:50:07Z</time></trkpt>
<trkpt lat="24.298958" lon="106.221312">
<time>2016-10-06T19:50:08Z</time></trkpt>
<trkpt lat="24.299208" lon="106.221082">
<time>2016-10-06T19:50:09Z</time></trkpt>
<trkpt lat="24.300247" lon="106.220211">
<time>2016-10-06T19:50:10Z</time></trkpt>
<trkpt lat="24.301567" lon="106.21912">
<time>2016-10-06T19:50:11Z</time></trkpt>
<trkpt lat="24.303026" lon="106.218129">
<time>2016-10-06T19:50:12Z</time></trkpt>
<trkpt lat="24.303746" lon="106.217549">
<time>2016-10-06T19:50:13Z</time></trkpt>
<trkpt lat="24.304245" lon="106.217008">
<time>2016-10-06T19:50:14Z</time></trkpt>
<trkpt lat="24.304865" lon="106.216117">
<time>2016-10-06T19:50:15Z</time></trkpt>
<trkpt lat="24.304915" lon="106.216047">
<time>2016-10-06T19:50:16Z</time></trkpt>
<trkpt lat="24.305484" lon="106.215206">
<time>2016-10-06T19:50:17Z</time></trkpt>
<trkpt lat="24.305774" lon="106.214826">
<time>2016-10-06T19:50:18Z</time></trkpt>
<trkpt lat="24.306053" lon="106.214596">
<time>2016-10-06T19:50:19Z</time></trkpt>
<trkpt lat="24.306293" lon="106.214476">
<time>2016-10-06T19:50:20Z</time></trkpt>
<trkpt lat="24.306543" lon="106.214405">
<time>2016-10-06T19:50:21Z</time></trkpt>
<trkpt lat="24.306983" lon="106.214355">
<time>2016-10-06T19:50:22Z</time></trkpt>
<trkpt lat="24.307594" lon="106.214325">
<time>2016-10-06T19:50:23Z</time></trkpt>
<trkpt lat="24.308084" lon="106.214325">
<time>2016-10-06T19:50:24Z</time></trkpt>
<trkpt lat="24.308934" lon="106.214325">
<time>2016-10-06T19:50:25Z</time></trkpt>
<trkpt lat="24.309424" lon="106.214275">
<time>2016-10-06T19:50:26Z</time></trkpt>
<trkpt lat="24.309724" lon="106.214245">
<time>2016-10-06T19:50:27Z</time></trkpt>
<trkpt lat="24.310124" lon="106.214135">
<time>2016-10-06T19:50:28Z</time></trkpt>
<trkpt lat="24.310524" lon="106.213975">
<time>2016-10-06T19:50:29Z</time></trkpt>
<trkpt lat="24.310754" lon="106.213845">
<time>2016-10-06T19:50:30Z</time></trkpt>
<trkpt lat="24.311104" lon="106.213594">
<time>2016-10-06T19:50:31Z</time></trkpt>
<trkpt lat="24.311344" lon="106.213384">
<time>2016-10-06T19:50:32Z</time></trkpt>
<trkpt lat="24.311633" lon="106.213084">
<time>2016-10-06T19:50:33Z</time></trkpt>
<trkpt lat="24.312013" lon="106.212623">
<time>2016-10-06T19:50:34Z</time></trkpt>
<trkpt lat="24.312263" lon="106.212293">
<time>2016-10-06T19:50:35Z</time></trkpt>
<trkpt lat="24.312942" lon="106.211362">
<time>2016-10-06T19:50:36Z</time></trkpt>
<trkpt lat="24.313281" lon="106.210941">
<time>2016-10-06T19:50:37Z</time></trkpt>
<trkpt lat="24.313481" lon="106.210731">
<time>2016-10-06T19:50:38Z</time></trkpt>
<trkpt lat="24.313701" lon="106.210531">
<time>2016-10-06T19:50:39Z</time></trkpt>
<trkpt lat="24.313931" lon="106.210381">
<time>2016-10-06T19:50:40Z</time></trkpt>
<trkpt lat="24.314471" lon="106.21015">
<time>2016-10-06T19:50:41Z</time></trkpt>
<trkpt lat="24.314471" lon="106.21015">
<time>2016-10-06T19:50:42Z</time></trkpt>
<trkpt lat="24.315331" lon="106.20983">
<time>2016-10-06T19:50:43Z</time></trkpt>
<trkpt lat="24.316191" lon="106.20954">
<time>2016-10-06T19:50:44Z</time></trkpt>
<trkpt lat="24.316601" lon="106.209419">
<time>2016-10-06T19:50:45Z</time></trkpt>
<trkpt lat="24.317141" lon="106.209239">
<time>2016-10-06T19:50:46Z</time></trkpt>
<trkpt lat="24.31739" lon="106.209159">
<time>2016-10-06T19:50:47Z</time></trkpt>
<trkpt lat="24.31755" lon="106.209079">
<time>2016-10-06T19:50:48Z</time></trkpt>
<trkpt lat="24.31778" lon="106.208969">
<time>2016-10-06T19:50:49Z</time></trkpt>
<trkpt lat="24.31793" lon="106.208869">
<time>2016-10-06T19:50:50Z</time></trkpt>
<trkpt lat="24.31813" lon="106.208708">
<time>2016-10-06T19:50:51Z</time></trkpt>
<trkpt lat="24.31832" lon="106.208508">
<time>2016-10-06T19:50:52Z</time></trkpt>
<trkpt lat="24.31852" lon="106.208318">
<time>2016-10-06T19:50:53Z</time></trkpt>
<trkpt lat="24.318959" lon="106.207867">
<time>2016-10-06T19:50:54Z</time></trkpt>
<trkpt lat="24.319489" lon="106.207357">
<time>2016-10-06T19:50:55Z</time></trkpt>
<trkpt lat="24.320338" lon="106.206506">
<time>2016-10-06T19:50:56Z</time></trkpt>
<trkpt lat="24.320558" lon="106.206255">
<time>2016-10-06T19:50:57Z</time></trkpt>
<trkpt lat="24.320827" lon="106.205885">
<time>2016-10-06T19:50:58Z</time></trkpt>
<trkpt lat="24.321007" lon="106.205594">
<time>2016-10-06T19:50:59Z</time></trkpt>
<trkpt lat="24.321107" lon="106.205394">
<time>2016-10-06T19:51:00Z</time></trkpt>
<trkpt lat="24.321156" lon="106.205264">
<time>2016-10-06T19:51:01Z</time></trkpt>
<trkpt lat="24.321206" lon="106.205154">
<time>2016-10-06T19:51:02Z</time></trkpt>
<trkpt lat="24.321246" lon="106.205044">
<time>2016-10-06T19:51:03Z</time></trkpt>
<trkpt lat="24.321276" lon="106.204914">
<time>2016-10-06T19:51:04Z</time></trkpt>
<trkpt lat="24.321336" lon="106.204663">
<time>2016-10-06T19:51:05Z</time></trkpt>
<trkpt lat="24.321405" lon="106.204333">
<time>2016-10-06T19:51:06Z</time></trkpt>
<trkpt lat="24.321782" lon="106.201679">
<time>2016-10-06T19:51:07Z</time></trkpt>
<trkpt lat="24.32197" lon="106.200808">
<time>2016-10-06T19:51:08Z</time></trkpt>
<trkpt lat="24.322189" lon="106.200067">
<time>2016-10-06T19:51:09Z</time></trkpt>
<trkpt lat="24.322309" lon="106.199806">
<time>2016-10-06T19:51:10Z</time></trkpt>
<trkpt lat="24.322539" lon="106.199536">
<time>2016-10-06T19:51:11Z</time></trkpt>
<trkpt lat="24.322878" lon="106.199215">
<time>2016-10-06T19:51:12Z</time></trkpt>
<trkpt lat="24.323048" lon="106.199125">
<time>2016-10-06T19:51:13Z</time></trkpt>
<trkpt lat="24.323298" lon="106.199035">
<time>2016-10-06T19:51:14Z</time></trkpt>
<trkpt lat="24.323648" lon="106.198955">
<time>2016-10-06T19:51:15Z</time></trkpt>
<trkpt lat="24.323908" lon="106.198915">
<time>2016-10-06T19:51:16Z</time></trkpt>
<trkpt lat="24.324128" lon="106.198885">
<time>2016-10-06T19:51:17Z</time></trkpt>
<trkpt lat="24.325398" lon="106.198755">
<time>2016-10-06T19:51:18Z</time></trkpt>
<trkpt lat="24.325618" lon="106.198715">
<time>2016-10-06T19:51:19Z</time></trkpt>
<trkpt lat="24.325748" lon="106.198664">
<time>2016-10-06T19:51:20Z</time></trkpt>
<trkpt lat="24.325888" lon="106.198604">
<time>2016-10-06T19:51:21Z</time></trkpt>
<trkpt lat="24.326128" lon="106.198484">
<time>2016-10-06T19:51:22Z</time></trkpt>
<trkpt lat="24.326358" lon="106.198284">
<time>2016-10-06T19:51:23Z</time></trkpt>
<trkpt lat="24.326528" lon="106.198094">
<time>2016-10-06T19:51:24Z</time></trkpt>
<trkpt lat="24.326727" lon="106.197813">
<time>2016-10-06T19:51:25Z</time></trkpt>
<trkpt lat="24.326877" lon="106.197573">
<time>2016-10-06T19:51:26Z</time></trkpt>
<trkpt lat="24.327156" lon="106.197092">
<time>2016-10-06T19:51:27Z</time></trkpt>
<trkpt lat="24.327346" lon="106.196782">
<time>2016-10-06T19:51:28Z</time></trkpt>
<trkpt lat="24.327815" lon="106.19594">
<time>2016-10-06T19:51:29Z</time></trkpt>
<trkpt lat="24.327875" lon="106.19593">
<time>2016-10-06T19:51:30Z</time></trkpt>
<trkpt lat="24.328295" lon="106.19589">
<time>2016-10-06T19:51:31Z</time></trkpt>
<trkpt lat="24.328865" lon="106.19573">
<time>2016-10-06T19:51:32Z</time></trkpt>
<trkpt lat="24.329105" lon="106.19569">
<time>2016-10-06T19:51:33Z</time></trkpt>
<trkpt lat="24.329535" lon="106.19561">
<time>2016-10-06T19:51:34Z</time></trkpt>
<trkpt lat="24.329975" lon="106.195509">
<time>2016-10-06T19:51:35Z</time></trkpt>
<trkpt lat="24.330185" lon="106.195479">
<time>2016-10-06T19:51:36Z</time></trkpt>
<trkpt lat="24.330695" lon="106.195379">
<time>2016-10-06T19:51:37Z</time></trkpt>
<trkpt lat="24.330935" lon="106.195329">
<time>2016-10-06T19:51:38Z</time></trkpt>
<trkpt lat="24.331075" lon="106.195299">
<time>2016-10-06T19:51:39Z</time></trkpt>
<trkpt lat="24.331205" lon="106.195269">
<time>2016-10-06T19:51:40Z</time></trkpt>
<trkpt lat="24.331325" lon="106.195239">
<time>2016-10-06T19:51:41Z</time></trkpt>
<trkpt lat="24.331435" lon="106.195199">
<time>2016-10-06T19:51:42Z</time></trkpt>
<trkpt lat="24.331544" lon="106.195149">
<time>2016-10-06T19:51:43Z</time></trkpt>
<trkpt lat="24.331644" lon="106.195099">
<time>2016-10-06T19:51:44Z</time></trkpt>
<trkpt lat="24.331724" lon="106.195049">
<time>2016-10-06T19:51:45Z</time></trkpt>
<trkpt lat="24.331824" lon="106.194989">
<time>2016-10-06T19:51:46Z</time></trkpt>
<trkpt lat="24.331914" lon="106.194918">
<time>2016-10-06T19:51:47Z</time></trkpt>
<trkpt lat="24.331984" lon="106.194858">
<time>2016-10-06T19:51:48Z</time></trkpt>
<trkpt lat="24.332054" lon="106.194798">
<time>2016-10-06T19:51:49Z</time></trkpt>
<trkpt lat="24.332104" lon="106.194738">
<time>2016-10-06T19:51:50Z</time></trkpt>
<trkpt lat="24.332164" lon="106.194678">
<time>2016-10-06T19:51:51Z</time></trkpt>
<trkpt lat="24.332214" lon="106.194618">
<time>2016-10-06T19:51:52Z</time></trkpt>
<trkpt lat="24.332284" lon="106.194488">
<time>2016-10-06T19:51:53Z</time></trkpt>
<trkpt lat="24.332363" lon="106.194317">
<time>2016-10-06T19:51:54Z</time></trkpt>
<trkpt lat="24.332433" lon="106.194107">
<time>2016-10-06T19:51:55Z</time></trkpt>
<trkpt lat="24.332582" lon="106.193586">
<time>2016-10-06T19:51:56Z</time></trkpt>
<trkpt lat="24.332731" lon="106.193075">
<time>2016-10-06T19:51:57Z</time></trkpt>
<trkpt lat="24.332931" lon="106.192505">
<time>2016-10-06T19:51:58Z</time></trkpt>
<trkpt lat="24.33302" lon="106.192194">
<time>2016-10-06T19:51:59Z</time></trkpt>
<trkpt lat="24.33313" lon="106.191894">
<time>2016-10-06T19:52:00Z</time></trkpt>
<trkpt lat="24.333209" lon="106.191603">
<time>2016-10-06T19:52:01Z</time></trkpt>
<trkpt lat="24.333299" lon="106.191212">
<time>2016-10-06T19:52:02Z</time></trkpt>
<trkpt lat="24.333318" lon="106.191052">
<time>2016-10-06T19:52:03Z</time></trkpt>
<trkpt lat="24.333328" lon="106.190872">
<time>2016-10-06T19:52:04Z</time></trkpt>
<trkpt lat="24.333327" lon="106.190581">
<time>2016-10-06T19:52:05Z</time></trkpt>
<trkpt lat="24.333346" lon="106.18998">
<time>2016-10-06T19:52:06Z</time></trkpt>
<trkpt lat="24.333356" lon="106.18959">
<time>2016-10-06T19:52:07Z</time></trkpt>
<trkpt lat="24.333374" lon="106.188828">
<time>2016-10-06T19:52:08Z</time></trkpt>
<trkpt lat="24.333404" lon="106.188608">
<time>2016-10-06T19:52:09Z</time></trkpt>
<trkpt lat="24.333454" lon="106.188418">
<time>2016-10-06T19:52:10Z</time></trkpt>
<trkpt lat="24.333533" lon="106.188177">
<time>2016-10-06T19:52:11Z</time></trkpt>
<trkpt lat="24.333653" lon="106.187887">
<time>2016-10-06T19:52:12Z</time></trkpt>
<trkpt lat="24.33442" lon="106.186094">
<time>2016-10-06T19:52:13Z</time></trkpt>
<trkpt lat="24.334689" lon="106.185503">
<time>2016-10-06T19:52:14Z</time></trkpt>
<trkpt lat="24.334888" lon="106.185142">
<time>2016-10-06T19:52:15Z</time></trkpt>
<trkpt lat="24.334998" lon="106.185002">
<time>2016-10-06T19:52:16Z</time></trkpt>
<trkpt lat="24.335208" lon="106.184791">
<time>2016-10-06T19:52:17Z</time></trkpt>
<trkpt lat="24.335398" lon="106.184621">
<time>2016-10-06T19:52:18Z</time></trkpt>
<trkpt lat="24.335717" lon="106.184361">
<time>2016-10-06T19:52:19Z</time></trkpt>
<trkpt lat="24.335757" lon="106.18433">
<time>2016-10-06T19:52:20Z</time></trkpt>
<trkpt lat="24.335917" lon="106.1842">
<time>2016-10-06T19:52:21Z</time></trkpt>
<trkpt lat="24.336137" lon="106.18406">
<time>2016-10-06T19:52:22Z</time></trkpt>
<trkpt lat="24.336337" lon="106.18397">
<time>2016-10-06T19:52:23Z</time></trkpt>
<trkpt lat="24.336557" lon="106.18391">
<time>2016-10-06T19:52:24Z</time></trkpt>
<trkpt lat="24.336997" lon="106.18383">
<time>2016-10-06T19:52:25Z</time></trkpt>
<trkpt lat="24.337187" lon="106.183789">
<time>2016-10-06T19:52:26Z</time></trkpt>
<trkpt lat="24.337257" lon="106.183779">
<time>2016-10-06T19:52:27Z</time></trkpt>
<trkpt lat="24.337327" lon="106.183749">
<time>2016-10-06T19:52:28Z</time></trkpt>
<trkpt lat="24.337447" lon="106.183709">
<time>2016-10-06T19:52:29Z</time></trkpt>
<trkpt lat="24.337517" lon="106.183689">
<time>2016-10-06T19:52:30Z</time></trkpt>
<trkpt lat="24.337707" lon="106.183589">
<time>2016-10-06T19:52:31Z</time></trkpt>
<trkpt lat="24.337856" lon="106.183479">
<time>2016-10-06T19:52:32Z</time></trkpt>
<trkpt lat="24.337976" lon="106.183349">
<time>2016-10-06T19:52:33Z</time></trkpt>
<trkpt lat="24.338106" lon="106.183158">
<time>2016-10-06T19:52:34Z</time></trkpt>
<trkpt lat="24.338216" lon="106.182938">
<time>2016-10-06T19:52:35Z</time></trkpt>
<trkpt lat="24.338395" lon="106.182467">
<time>2016-10-06T19:52:36Z</time></trkpt>
<trkpt lat="24.338534" lon="106.182066">
<time>2016-10-06T19:52:37Z</time></trkpt>
<trkpt lat="24.338604" lon="106.181876">
<time>2016-10-06T19:52:38Z</time></trkpt>
<trkpt lat="24.338693" lon="106.181626">
<time>2016-10-06T19:52:39Z</time></trkpt>
<trkpt lat="24.338773" lon="106.181415">
<time>2016-10-06T19:52:40Z</time></trkpt>
<trkpt lat="24.338853" lon="106.181255">
<time>2016-10-06T19:52:41Z</time></trkpt>
<trkpt lat="24.338952" lon="106.181105">
<time>2016-10-06T19:52:42Z</time></trkpt>
<trkpt lat="24.339072" lon="106.180974">
<time>2016-10-06T19:52:43Z</time></trkpt>
<trkpt lat="24.339312" lon="106.180774">
<time>2016-10-06T19:52:44Z</time></trkpt>
<trkpt lat="24.339642" lon="106.180533">
<time>2016-10-06T19:52:45Z</time></trkpt>
<trkpt lat="24.340271" lon="106.180073">
<time>2016-10-06T19:52:46Z</time></trkpt>
<trkpt lat="24.34115" lon="106.179421">
<time>2016-10-06T19:52:47Z</time></trkpt>
<trkpt lat="24.34135" lon="106.179251">
<time>2016-10-06T19:52:48Z</time></trkpt>
<trkpt lat="24.341599" lon="106.178981">
<time>2016-10-06T19:52:49Z</time></trkpt>
<trkpt lat="24.341849" lon="106.17866">
<time>2016-10-06T19:52:50Z</time></trkpt>
<trkpt lat="24.342278" lon="106.178009">
<time>2016-10-06T19:52:51Z</time></trkpt>
<trkpt lat="24.342447" lon="106.177798">
<time>2016-10-06T19:52:52Z</time></trkpt>
<trkpt lat="24.342547" lon="106.177698">
<time>2016-10-06T19:52:53Z</time></trkpt>
<trkpt lat="24.342657" lon="106.177618">
<time>2016-10-06T19:52:54Z</time></trkpt>
<trkpt lat="24.342767" lon="106.177558">
<time>2016-10-06T19:52:55Z</time></trkpt>
<trkpt lat="24.342887" lon="106.177508">
<time>2016-10-06T19:52:56Z</time></trkpt>
<trkpt lat="24.342947" lon="106.177488">
<time>2016-10-06T19:52:57Z</time></trkpt>
<trkpt lat="24.343657" lon="106.177287">
<time>2016-10-06T19:52:58Z</time></trkpt>
<trkpt lat="24.343817" lon="106.177217">
<time>2016-10-06T19:52:59Z</time></trkpt>
<trkpt lat="24.343937" lon="106.177157">
<time>2016-10-06T19:53:00Z</time></trkpt>
<trkpt lat="24.344076" lon="106.177037">
<time>2016-10-06T19:53:01Z</time></trkpt>
<trkpt lat="24.344206" lon="106.176887">
<time>2016-10-06T19:53:02Z</time></trkpt>
<trkpt lat="24.344466" lon="106.176476">
<time>2016-10-06T19:53:03Z</time></trkpt>
<trkpt lat="24.344775" lon="106.175955">
<time>2016-10-06T19:53:04Z</time></trkpt>
<trkpt lat="24.345134" lon="106.175404">
<time>2016-10-06T19:53:05Z</time></trkpt>
<trkpt lat="24.345184" lon="106.175344">
<time>2016-10-06T19:53:06Z</time></trkpt>
<trkpt lat="24.345283" lon="106.175213">
<time>2016-10-06T19:53:07Z</time></trkpt>
<trkpt lat="24.345413" lon="106.175073">
<time>2016-10-06T19:53:08Z</time></trkpt>
<trkpt lat="24.345673" lon="106.174843">
<time>2016-10-06T19:53:09Z</time></trkpt>
<trkpt lat="24.345992" lon="106.174602">
<time>2016-10-06T19:53:10Z</time></trkpt>
<trkpt lat="24.346542" lon="106.174181">
<time>2016-10-06T19:53:11Z</time></trkpt>
<trkpt lat="24.346712" lon="106.174031">
<time>2016-10-06T19:53:12Z</time></trkpt>
<trkpt lat="24.346811" lon="106.173931">
<time>2016-10-06T19:53:13Z</time></trkpt>
<trkpt lat="24.346901" lon="106.173831">
<time>2016-10-06T19:53:14Z</time></trkpt>
<trkpt lat="24.346951" lon="106.173771">
<time>2016-10-06T19:53:15Z</time></trkpt>
<trkpt lat="24.347001" lon="106.17368">
<time>2016-10-06T19:53:16Z</time></trkpt>
<trkpt lat="24.347091" lon="106.17345">
<time>2016-10-06T19:53:17Z</time></trkpt>
<trkpt lat="24.34713" lon="106.17333">
<time>2016-10-06T19:53:18Z</time></trkpt>
<trkpt lat="24.34722" lon="106.173059">
<time>2016-10-06T19:53:19Z</time></trkpt>
<trkpt lat="24.347389" lon="106.172488">
<time>2016-10-06T19:53:20Z</time></trkpt>
<trkpt lat="24.347757" lon="106.171196">
<time>2016-10-06T19:53:21Z</time></trkpt>
<trkpt lat="24.347896" lon="106.170715">
<time>2016-10-06T19:53:22Z</time></trkpt>
<trkpt lat="24.347975" lon="106.170454">
<time>2016-10-06T19:53:23Z</time></trkpt>
<trkpt lat="24.348035" lon="106.170304">
<time>2016-10-06T19:53:24Z</time></trkpt>
<trkpt lat="24.348095" lon="106.170204">
<time>2016-10-06T19:53:25Z</time></trkpt>
<trkpt lat="24.348165" lon="106.170084">
<time>2016-10-06T19:53:26Z</time></trkpt>
<trkpt lat="24.348225" lon="106.170014">
<time>2016-10-06T19:53:27Z</time></trkpt>
<trkpt lat="24.348284" lon="106.169953">
<time>2016-10-06T19:53:28Z</time></trkpt>
<trkpt lat="24.348334" lon="106.169903">
<time>2016-10-06T19:53:29Z</time></trkpt>
<trkpt lat="24.348404" lon="106.169853">
<time>2016-10-06T19:53:30Z</time></trkpt>
<trkpt lat="24.348474" lon="106.169813">
<time>2016-10-06T19:53:31Z</time></trkpt>
<trkpt lat="24.348544" lon="106.169783">
<time>2016-10-06T19:53:32Z</time></trkpt>
<trkpt lat="24.348614" lon="106.169763">
<time>2016-10-06T19:53:33Z</time></trkpt>
<trkpt lat="24.348684" lon="106.169743">
<time>2016-10-06T19:53:34Z</time></trkpt>
<trkpt lat="24.348764" lon="106.169723">
<time>2016-10-06T19:53:35Z</time></trkpt>
<trkpt lat="24.348954" lon="106.169693">
<time>2016-10-06T19:53:36Z</time></trkpt>
<trkpt lat="24.349124" lon="106.169683">
<time>2016-10-06T19:53:37Z</time></trkpt>
<trkpt lat="24.349334" lon="106.169683">
<time>2016-10-06T19:53:38Z</time></trkpt>
<trkpt lat="24.349474" lon="106.169673">
<time>2016-10-06T19:53:39Z</time></trkpt>
<trkpt lat="24.349604" lon="106.169663">
<time>2016-10-06T19:53:40Z</time></trkpt>
<trkpt lat="24.349744" lon="106.169623">
<time>2016-10-06T19:53:41Z</time></trkpt>
<trkpt lat="24.349964" lon="106.169553">
<time>2016-10-06T19:53:42Z</time></trkpt>
<trkpt lat="24.350094" lon="106.169503">
<time>2016-10-06T19:53:43Z</time></trkpt>
<trkpt lat="24.350204" lon="106.169432">
<time>2016-10-06T19:53:44Z</time></trkpt>
<trkpt lat="24.350314" lon="106.169362">
<time>2016-10-06T19:53:45Z</time></trkpt>
<trkpt lat="24.350554" lon="106.169172">
<time>2016-10-06T19:53:46Z</time></trkpt>
<trkpt lat="24.351173" lon="106.168601">
<time>2016-10-06T19:53:47Z</time></trkpt>
<trkpt lat="24.351352" lon="106.16842">
<time>2016-10-06T19:53:48Z</time></trkpt>
<trkpt lat="24.351522" lon="106.16821">
<time>2016-10-06T19:53:49Z</time></trkpt>
<trkpt lat="24.351632" lon="106.16803">
<time>2016-10-06T19:53:50Z</time></trkpt>
<trkpt lat="24.351711" lon="106.167849">
<time>2016-10-06T19:53:51Z</time></trkpt>
<trkpt lat="24.351801" lon="106.167499">
<time>2016-10-06T19:53:52Z</time></trkpt>
<trkpt lat="24.351979" lon="106.166326">
<time>2016-10-06T19:53:53Z</time></trkpt>
<trkpt lat="24.352097" lon="106.165565">
<time>2016-10-06T19:53:54Z</time></trkpt>
<trkpt lat="24.352157" lon="106.165335">
<time>2016-10-06T19:53:55Z</time></trkpt>
<trkpt lat="24.352207" lon="106.165214">
<time>2016-10-06T19:53:56Z</time></trkpt>
<trkpt lat="24.352256" lon="106.165094">
<time>2016-10-06T19:53:57Z</time></trkpt>
<trkpt lat="24.352326" lon="106.164994">
<time>2016-10-06T19:53:58Z</time></trkpt>
<trkpt lat="24.352406" lon="106.164904">
<time>2016-10-06T19:53:59Z</time></trkpt>
<trkpt lat="24.352466" lon="106.164874">
<time>2016-10-06T19:54:00Z</time></trkpt>
<trkpt lat="24.352556" lon="106.164804">
<time>2016-10-06T19:54:01Z</time></trkpt>
<trkpt lat="24.352776" lon="106.164703">
<time>2016-10-06T19:54:02Z</time></trkpt>
<trkpt lat="24.354025" lon="106.164042">
<time>2016-10-06T19:54:03Z</time></trkpt>
<trkpt lat="24.354964" lon="106.163541">
<time>2016-10-06T19:54:04Z</time></trkpt>
<trkpt lat="24.355184" lon="106.163411">
<time>2016-10-06T19:54:05Z</time></trkpt>
<trkpt lat="24.355344" lon="106.163271">
<time>2016-10-06T19:54:06Z</time></trkpt>
<trkpt lat="24.355464" lon="106.16313">
<time>2016-10-06T19:54:07Z</time></trkpt>
<trkpt lat="24.355593" lon="106.16294">
<time>2016-10-06T19:54:08Z</time></trkpt>
<trkpt lat="24.355843" lon="106.162549">
<time>2016-10-06T19:54:09Z</time></trkpt>
<trkpt lat="24.356341" lon="106.161708">
<time>2016-10-06T19:54:10Z</time></trkpt>
<trkpt lat="24.356491" lon="106.161497">
<time>2016-10-06T19:54:11Z</time></trkpt>
<trkpt lat="24.356641" lon="106.161347">
<time>2016-10-06T19:54:12Z</time></trkpt>
<trkpt lat="24.35677" lon="106.161227">
<time>2016-10-06T19:54:13Z</time></trkpt>
<trkpt lat="24.35702" lon="106.161056">
<time>2016-10-06T19:54:14Z</time></trkpt>
<trkpt lat="24.35763" lon="106.160716">
<time>2016-10-06T19:54:15Z</time></trkpt>
<trkpt lat="24.358469" lon="106.160275">
<time>2016-10-06T19:54:16Z</time></trkpt>
<trkpt lat="24.358709" lon="106.160125">
<time>2016-10-06T19:54:17Z</time></trkpt>
<trkpt lat="24.359029" lon="106.159894">
<time>2016-10-06T19:54:18Z</time></trkpt>
<trkpt lat="24.359318" lon="106.159614">
<time>2016-10-06T19:54:19Z</time></trkpt>
<trkpt lat="24.359538" lon="106.159353">
<time>2016-10-06T19:54:20Z</time></trkpt>
<trkpt lat="24.359767" lon="106.159063">
<time>2016-10-06T19:54:21Z</time></trkpt>
<trkpt lat="24.359977" lon="106.158792">
<time>2016-10-06T19:54:22Z</time></trkpt>
<trkpt lat="24.360206" lon="106.158461">
<time>2016-10-06T19:54:23Z</time></trkpt>
<trkpt lat="24.360346" lon="106.158211">
<time>2016-10-06T19:54:24Z</time></trkpt>
<trkpt lat="24.360505" lon="106.15783">
<time>2016-10-06T19:54:25Z</time></trkpt>
<trkpt lat="24.360784" lon="106.157079">
<time>2016-10-06T19:54:26Z</time></trkpt>
<trkpt lat="24.361013" lon="106.156538">
<time>2016-10-06T19:54:27Z</time></trkpt>
<trkpt lat="24.361133" lon="106.156317">
<time>2016-10-06T19:54:28Z</time></trkpt>
<trkpt lat="24.361262" lon="106.156167">
<time>2016-10-06T19:54:29Z</time></trkpt>
<trkpt lat="24.36233" lon="106.154604">
<time>2016-10-06T19:54:30Z</time></trkpt>
<trkpt lat="24.363178" lon="106.153622">
<time>2016-10-06T19:54:31Z</time></trkpt>
<trkpt lat="24.364516" lon="106.15238">
<time>2016-10-06T19:54:32Z</time></trkpt>
<trkpt lat="24.365565" lon="106.151669">
<time>2016-10-06T19:54:33Z</time></trkpt>
<trkpt lat="24.368343" lon="106.149645">
<time>2016-10-06T19:54:34Z</time></trkpt>
<trkpt lat="24.368702" lon="106.149335">
<time>2016-10-06T19:54:35Z</time></trkpt>
<trkpt lat="24.368952" lon="106.148994">
<time>2016-10-06T19:54:36Z</time></trkpt>
<trkpt lat="24.369111" lon="106.148804">
<time>2016-10-06T19:54:37Z</time></trkpt>
<trkpt lat="24.369361" lon="106.148533">
<time>2016-10-06T19:54:38Z</time></trkpt>
<trkpt lat="24.369551" lon="106.148363">
<time>2016-10-06T19:54:39Z</time></trkpt>
<trkpt lat="24.36981" lon="106.148142">
<time>2016-10-06T19:54:40Z</time></trkpt>
<trkpt lat="24.36994" lon="106.148042">
<time>2016-10-06T19:54:41Z</time></trkpt>
<trkpt lat="24.37008" lon="106.147962">
<time>2016-10-06T19:54:42Z</time></trkpt>
<trkpt lat="24.37039" lon="106.147802">
<time>2016-10-06T19:54:43Z</time></trkpt>
<trkpt lat="24.37076" lon="106.147652">
<time>2016-10-06T19:54:44Z</time></trkpt>
<trkpt lat="24.37097" lon="106.147561">
<time>2016-10-06T19:54:45Z</time></trkpt>
<trkpt lat="24.37121" lon="106.147431">
<time>2016-10-06T19:54:46Z</time></trkpt>
<trkpt lat="24.371399" lon="106.147291">
<time>2016-10-06T19:54:47Z</time></trkpt>
<trkpt lat="24.371569" lon="106.147151">
<time>2016-10-06T19:54:48Z</time></trkpt>
<trkpt lat="24.371749" lon="106.14699">
<time>2016-10-06T19:54:49Z</time></trkpt>
<trkpt lat="24.371949" lon="106.14677">
<time>2016-10-06T19:54:50Z</time></trkpt>
<trkpt lat="24.372128" lon="106.14656">
<time>2016-10-06T19:54:51Z</time></trkpt>
<trkpt lat="24.372268" lon="106.146339">
<time>2016-10-06T19:54:52Z</time></trkpt>
<trkpt lat="24.372448" lon="106.146049">
<time>2016-10-06T19:54:53Z</time></trkpt>
<trkpt lat="24.372657" lon="106.145748">
<time>2016-10-06T19:54:54Z</time></trkpt>
<trkpt lat="24.37598" lon="106.14089">
<time>2016-10-06T19:54:55Z</time></trkpt>
<trkpt lat="24.37605" lon="106.1407">
<time>2016-10-06T19:54:56Z</time></trkpt>
<trkpt lat="24.37614" lon="106.14053">
<time>2016-10-06T19:54:57Z</time></trkpt>
<trkpt lat="24.376269" lon="106.140339">
<time>2016-10-06T19:54:58Z</time></trkpt>
<trkpt lat="24.376429" lon="106.140109">
<time>2016-10-06T19:54:59Z</time></trkpt>
<trkpt lat="24.376938" lon="106.139378">
<time>2016-10-06T19:55:00Z</time></trkpt>
<trkpt lat="24.377277" lon="106.138877">
<time>2016-10-06T19:55:01Z</time></trkpt>
<trkpt lat="24.377517" lon="106.138516">
<time>2016-10-06T19:55:02Z</time></trkpt>
<trkpt lat="24.377836" lon="106.137966">
<time>2016-10-06T19:55:03Z</time></trkpt>
<trkpt lat="24.378015" lon="106.137635">
<time>2016-10-06T19:55:04Z</time></trkpt>
<trkpt lat="24.378165" lon="106.137365">
<time>2016-10-06T19:55:05Z</time></trkpt>
<trkpt lat="24.378275" lon="106.137184">
<time>2016-10-06T19:55:06Z</time></trkpt>
<trkpt lat="24.378365" lon="106.137064">
<time>2016-10-06T19:55:07Z</time></trkpt>
<trkpt lat="24.378495" lon="106.136904">
<time>2016-10-06T19:55:08Z</time></trkpt>
<trkpt lat="24.378694" lon="106.136724">
<time>2016-10-06T19:55:09Z</time></trkpt>
<trkpt lat="24.387355" lon="106.128322">
<time>2016-10-06T19:55:10Z</time></trkpt>
<trkpt lat="24.387744" lon="106.127871">
<time>2016-10-06T19:55:11Z</time></trkpt>
<trkpt lat="24.387884" lon="106.127711">
<time>2016-10-06T19:55:12Z</time></trkpt>
<trkpt lat="24.388084" lon="106.127521">
<time>2016-10-06T19:55:13Z</time></trkpt>
<trkpt lat="24.388284" lon="106.127341">
<time>2016-10-06T19:55:14Z</time></trkpt>
<trkpt lat="24.388594" lon="106.1271">
<time>2016-10-06T19:55:15Z</time></trkpt>
<trkpt lat="24.389323" lon="106.12658">
<time>2016-10-06T19:55:16Z</time></trkpt>
<trkpt lat="24.389923" lon="106.126139">
<time>2016-10-06T19:55:17Z</time></trkpt>
<trkpt lat="24.390642" lon="106.125609">
<time>2016-10-06T19:55:18Z</time></trkpt>
<trkpt lat="24.390932" lon="106.125408">
<time>2016-10-06T19:55:19Z</time></trkpt>
<trkpt lat="24.391152" lon="106.125258">
<time>2016-10-06T19:55:20Z</time></trkpt>
<trkpt lat="24.391222" lon="106.125208">
<time>2016-10-06T19:55:21Z</time></trkpt>
<trkpt lat="24.391372" lon="106.125108">
<time>2016-10-06T19:55:22Z</time></trkpt>
<trkpt lat="24.391492" lon="106.125008">
<time>2016-10-06T19:55:23Z</time></trkpt>
<trkpt lat="24.391762" lon="106.124808">
<time>2016-10-06T19:55:24Z</time></trkpt>
<trkpt lat="24.392002" lon="106.124647">
<time>2016-10-06T19:55:25Z</time></trkpt>
<trkpt lat="24.392161" lon="106.124497">
<time>2016-10-06T19:55:26Z</time></trkpt>
<trkpt lat="24.392221" lon="106.124417">
<time>2016-10-06T19:55:27Z</time></trkpt>
<trkpt lat="24.392291" lon="106.124317">
<time>2016-10-06T19:55:28Z</time></trkpt>
<trkpt lat="24.392361" lon="106.124187">
<time>2016-10-06T19:55:29Z</time></trkpt>
<trkpt lat="24.392471" lon="106.123927">
<time>2016-10-06T19:55:30Z</time></trkpt>
<trkpt lat="24.39274" lon="106.123086">
<time>2016-10-06T19:55:31Z</time></trkpt>
<trkpt lat="24.39282" lon="106.122835">
<time>2016-10-06T19:55:32Z</time></trkpt>
<trkpt lat="24.392949" lon="106.122595">
<time>2016-10-06T19:55:33Z</time></trkpt>
<trkpt lat="24.393179" lon="106.122275">
<time>2016-10-06T19:55:34Z</time></trkpt>
<trkpt lat="24.393289" lon="106.122145">
<time>2016-10-06T19:55:35Z</time></trkpt>
<trkpt lat="24.393449" lon="106.121995">
<time>2016-10-06T19:55:36Z</time></trkpt>
<trkpt lat="24.393509" lon="106.121955">
<time>2016-10-06T19:55:37Z</time></trkpt>
<trkpt lat="24.393699" lon="106.121834">
<time>2016-10-06T19:55:38Z</time></trkpt>
<trkpt lat="24.393749" lon="106.121794">
<time>2016-10-06T19:55:39Z</time></trkpt>
<trkpt lat="24.394179" lon="106.121574">
<time>2016-10-06T19:55:40Z</time></trkpt>
<trkpt lat="24.394539" lon="106.121424">
<time>2016-10-06T19:55:41Z</time></trkpt>
<trkpt lat="24.394899" lon="106.121274">
<time>2016-10-06T19:55:42Z</time></trkpt>
<trkpt lat="24.395139" lon="106.121194">
<time>2016-10-06T19:55:43Z</time></trkpt>
<trkpt lat="24.395299" lon="106.121164">
<time>2016-10-06T19:55:44Z</time></trkpt>
<trkpt lat="24.395509" lon="106.121144">
<time>2016-10-06T19:55:45Z</time></trkpt>
<trkpt lat="24.395899" lon="106.121104">
<time>2016-10-06T19:55:46Z</time></trkpt>
<trkpt lat="24.396129" lon="106.121074">
<time>2016-10-06T19:55:47Z</time></trkpt>
<trkpt lat="24.396259" lon="106.121043">
<time>2016-10-06T19:55:48Z</time></trkpt>
<trkpt lat="24.396339" lon="106.121033">
<time>2016-10-06T19:55:49Z</time></trkpt>
<trkpt lat="24.396389" lon="106.121003">
<time>2016-10-06T19:55:50Z</time></trkpt>
<trkpt lat="24.396499" lon="106.120953">
<time>2016-10-06T19:55:51Z</time></trkpt>
<trkpt lat="24.396579" lon="106.120883">
<time>2016-10-06T19:55:52Z</time></trkpt>
<trkpt lat="24.396688" lon="106.120773">
<time>2016-10-06T19:55:53Z</time></trkpt>
<trkpt lat="24.397208" lon="106.120163">
<time>2016-10-06T19:55:54Z</time></trkpt>
<trkpt lat="24.397498" lon="106.119832">
<time>2016-10-06T19:55:55Z</time></trkpt>
<trkpt lat="24.397797" lon="106.119512">
<time>2016-10-06T19:55:56Z</time></trkpt>
<trkpt lat="24.398037" lon="106.119322">
<time>2016-10-06T19:55:57Z</time></trkpt>
<trkpt lat="24.398397" lon="106.119092">
<time>2016-10-06T19:55:58Z</time></trkpt>
<trkpt lat="24.398587" lon="106.118941">
<time>2016-10-06T19:55:59Z</time></trkpt>
<trkpt lat="24.398677" lon="106.118841">
<time>2016-10-06T19:56:00Z</time></trkpt>
<trkpt lat="24.398747" lon="106.118721">
<time>2016-10-06T19:56:01Z</time></trkpt>
<trkpt lat="24.398797" lon="106.118581">
<time>2016-10-06T19:56:02Z</time></trkpt>
<trkpt lat="24.398847" lon="106.118381">
<time>2016-10-06T19:56:03Z</time></trkpt>
<trkpt lat="24.399066" lon="106.11738">
<time>2016-10-06T19:56:04Z</time></trkpt>
<trkpt lat="24.399136" lon="106.11711">
<time>2016-10-06T19:56:05Z</time></trkpt>
<trkpt lat="24.399215" lon="106.11691">
<time>2016-10-06T19:56:06Z</time></trkpt>
<trkpt lat="24.399295" lon="106.116759">
<time>2016-10-06T19:56:07Z</time></trkpt>
<trkpt lat="24.399385" lon="106.116619">
<time>2016-10-06T19:56:08Z</time></trkpt>
<trkpt lat="24.399485" lon="106.116499">
<time>2016-10-06T19:56:09Z</time></trkpt>
<trkpt lat="24.399605" lon="106.116399">
<time>2016-10-06T19:56:10Z</time></trkpt>
<trkpt lat="24.400125" lon="106.115959">
<time>2016-10-06T19:56:11Z</time></trkpt>
<trkpt lat="24.400605" lon="106.115548">
<time>2016-10-06T19:56:12Z</time></trkpt>
<trkpt lat="24.400844" lon="106.115328">
<time>2016-10-06T19:56:13Z</time></trkpt>
<trkpt lat="24.401024" lon="106.115118">
<time>2016-10-06T19:56:14Z</time></trkpt>
<trkpt lat="24.401214" lon="106.114788">
<time>2016-10-06T19:56:15Z</time></trkpt>
<trkpt lat="24.401434" lon="106.114398">
<time>2016-10-06T19:56:16Z</time></trkpt>
<trkpt lat="24.401643" lon="106.113997">
<time>2016-10-06T19:56:17Z</time></trkpt>
<trkpt lat="24.401753" lon="106.113627">
<time>2016-10-06T19:56:18Z</time></trkpt>
<trkpt lat="24.401803" lon="106.113247">
<time>2016-10-06T19:56:19Z</time></trkpt>
<trkpt lat="24.401822" lon="106.112426">
<time>2016-10-06T19:56:20Z</time></trkpt>
<trkpt lat="24.401842" lon="106.112096">
<time>2016-10-06T19:56:21Z</time></trkpt>
<trkpt lat="24.401872" lon="106.111816">
<time>2016-10-06T19:56:22Z</time></trkpt>
<trkpt lat="24.401992" lon="106.111516">
<time>2016-10-06T19:56:23Z</time></trkpt>
<trkpt lat="24.402122" lon="106.111305">
<time>2016-10-06T19:56:24Z</time></trkpt>
<trkpt lat="24.402252" lon="106.111165">
<time>2016-10-06T19:56:25Z</time></trkpt>
<trkpt lat="24.402451" lon="106.110985">
<time>2016-10-06T19:56:26Z</time></trkpt>
<trkpt lat="24.402771" lon="106.110795">
<time>2016-10-06T19:56:27Z</time></trkpt>
<trkpt lat="24.403011" lon="106.110625">
<time>2016-10-06T19:56:28Z</time></trkpt>
<trkpt lat="24.403151" lon="106.110475">
<time>2016-10-06T19:56:29Z</time></trkpt>
<trkpt lat="24.403311" lon="106.110235">
<time>2016-10-06T19:56:30Z</time></trkpt>
<trkpt lat="24.403441" lon="106.109995">
<time>2016-10-06T19:56:31Z</time></trkpt>
<trkpt lat="24.403551" lon="106.109845">
<time>2016-10-06T19:56:32Z</time></trkpt>
<trkpt lat="24.403711" lon="106.109705">
<time>2016-10-06T19:56:33Z</time></trkpt>
<trkpt lat="24.403941" lon="106.109554">
<time>2016-10-06T19:56:34Z</time></trkpt>
<trkpt lat="24.404271" lon="106.109384">
<time>2016-10-06T19:56:35Z</time></trkpt>
<trkpt lat="24.404651" lon="106.109154">
<time>2016-10-06T19:56:36Z</time></trkpt>
<trkpt lat="24.405001" lon="106.108884">
<time>2016-10-06T19:56:37Z</time></trkpt>
<trkpt lat="24.405491" lon="106.108434">
<time>2016-10-06T19:56:38Z</time></trkpt>
<trkpt lat="24.40583" lon="106.108074">
<time>2016-10-06T19:56:39Z</time></trkpt>
<trkpt lat="24.40613" lon="106.107673">
<time>2016-10-06T19:56:40Z</time></trkpt>
<trkpt lat="24.40641" lon="106.107273">
<time>2016-10-06T19:56:41Z</time></trkpt>
<trkpt lat="24.40653" lon="106.107123">
<time>2016-10-06T19:56:42Z</time></trkpt>
<trkpt lat="24.40672" lon="106.106903">
<time>2016-10-06T19:56:43Z</time></trkpt>
<trkpt lat="24.40692" lon="106.106723">
<time>2016-10-06T19:56:44Z</time></trkpt>
<trkpt lat="24.40769" lon="106.106073">
<time>2016-10-06T19:56:45Z</time></trkpt>
<trkpt lat="24.40789" lon="106.105883">
<time>2016-10-06T19:56:46Z</time></trkpt>
<trkpt lat="24.40798" lon="106.105793">
<time>2016-10-06T19:56:47Z</time></trkpt>
<trkpt lat="24.40805" lon="106.105703">
<time>2016-10-06T19:56:48Z</time></trkpt>
<trkpt lat="24.40814" lon="106.105512">
<time>2016-10-06T19:56:49Z</time></trkpt>
<trkpt lat="24.4082" lon="106.105332">
<time>2016-10-06T19:56:50Z</time></trkpt>
<trkpt lat="24.408339" lon="106.104732">
<time>2016-10-06T19:56:51Z</time></trkpt>
<trkpt lat="24.408479" lon="106.104012">
<time>2016-10-06T19:56:52Z</time></trkpt>
<trkpt lat="24.408519" lon="106.103882">
<time>2016-10-06T19:56:53Z</time></trkpt>
<trkpt lat="24.408569" lon="106.103762">
<time>2016-10-06T19:56:54Z</time></trkpt>
<trkpt lat="24.408609" lon="106.103662">
<time>2016-10-06T19:56:55Z</time></trkpt>
<trkpt lat="24.408729" lon="106.103512">
<time>2016-10-06T19:56:56Z</time></trkpt>
<trkpt lat="24.408899" lon="106.103342">
<time>2016-10-06T19:56:57Z</time></trkpt>
<trkpt lat="24.409209" lon="106.103092">
<time>2016-10-06T19:56:58Z</time></trkpt>
<trkpt lat="24.410259" lon="106.102321">
<time>2016-10-06T19:56:59Z</time></trkpt>
<trkpt lat="24.410599" lon="106.102081">
<time>2016-10-06T19:57:00Z</time></trkpt>
<trkpt lat="24.411219" lon="106.101721">
<time>2016-10-06T19:57:01Z</time></trkpt>
<trkpt lat="24.411659" lon="106.101501">
<time>2016-10-06T19:57:02Z</time></trkpt>
<trkpt lat="24.412009" lon="106.101331">
<time>2016-10-06T19:57:03Z</time></trkpt>
<trkpt lat="24.412509" lon="106.101031">
<time>2016-10-06T19:57:04Z</time></trkpt>
<trkpt lat="24.412769" lon="106.100891">
<time>2016-10-06T19:57:05Z</time></trkpt>
<trkpt lat="24.413239" lon="106.100621">
<time>2016-10-06T19:57:06Z</time></trkpt>
<trkpt lat="24.413519" lon="106.100441">
<time>2016-10-06T19:57:07Z</time></trkpt>
<trkpt lat="24.413719" lon="106.100261">
<time>2016-10-06T19:57:08Z</time></trkpt>
<trkpt lat="24.413899" lon="106.100061">
<time>2016-10-06T19:57:09Z</time></trkpt>
<trkpt lat="24.414039" lon="106.099861">
<time>2016-10-06T19:57:10Z</time></trkpt>
<trkpt lat="24.414259" lon="106.099501">
<time>2016-10-06T19:57:11Z</time></trkpt>
<trkpt lat="24.415329" lon="106.097811">
<time>2016-10-06T19:57:12Z</time></trkpt>
<trkpt lat="24.415949" lon="106.096941">
<time>2016-10-06T19:57:13Z</time></trkpt>
<trkpt lat="24.416409" lon="106.096351">
<time>2016-10-06T19:57:14Z</time></trkpt>
<trkpt lat="24.416669" lon="106.096031">
<time>2016-10-06T19:57:15Z</time></trkpt>
<trkpt lat="24.417059" lon="106.095581">
<time>2016-10-06T19:57:16Z</time></trkpt>
<trkpt lat="24.417269" lon="106.095371">
<time>2016-10-06T19:57:17Z</time></trkpt>
<trkpt lat="24.417369" lon="106.095291">
<time>2016-10-06T19:57:18Z</time></trkpt>
<trkpt lat="24.417459" lon="106.095221">
<time>2016-10-06T19:57:19Z</time></trkpt>
<trkpt lat="24.417869" lon="106.094931">
<time>2016-10-06T19:57:20Z</time></trkpt>
<trkpt lat="24.418239" lon="106.094721">
<time>2016-10-06T19:57:21Z</time></trkpt>
<trkpt lat="24.41853" lon="106.094571">
<time>2016-10-06T19:57:22Z</time></trkpt>
<trkpt lat="24.41897" lon="106.094421">
<time>2016-10-06T19:57:23Z</time></trkpt>
<trkpt lat="24.41923" lon="106.094331">
<time>2016-10-06T19:57:24Z</time></trkpt>
<trkpt lat="24.41947" lon="106.094231">
<time>2016-10-06T19:57:25Z</time></trkpt>
<trkpt lat="24.41966" lon="106.094121">
<time>2016-10-06T19:57:26Z</time></trkpt>
<trkpt lat="24.41982" lon="106.094001">
<time>2016-10-06T19:57:27Z</time></trkpt>
<trkpt lat="24.41999" lon="106.093831">
<time>2016-10-06T19:57:28Z</time></trkpt>
<trkpt lat="24.42018" lon="106.093621">
<time>2016-10-06T19:57:29Z</time></trkpt>
<trkpt lat="24.42097" lon="106.092581">
<time>2016-10-06T19:57:30Z</time></trkpt>
<trkpt lat="24.42175" lon="106.091531">
<time>2016-10-06T19:57:31Z</time></trkpt>
<trkpt lat="24.422241" lon="106.090892">
<time>2016-10-06T19:57:32Z</time></trkpt>
<trkpt lat="24.423041" lon="106.089792">
<time>2016-10-06T19:57:33Z</time></trkpt>
<trkpt lat="24.423791" lon="106.088772">
<time>2016-10-06T19:57:34Z</time></trkpt>
<trkpt lat="24.424102" lon="106.088363">
<time>2016-10-06T19:57:35Z</time></trkpt>
<trkpt lat="24.424522" lon="106.087813">
<time>2016-10-06T19:57:36Z</time></trkpt>
<trkpt lat="24.424692" lon="106.087543">
<time>2016-10-06T19:57:37Z</time></trkpt>
<trkpt lat="24.424902" lon="106.087073">
<time>2016-10-06T19:57:38Z</time></trkpt>
<trkpt lat="24.425012" lon="106.086773">
<time>2016-10-06T19:57:39Z</time></trkpt>
<trkpt lat="24.425423" lon="106.085604">
<time>2016-10-06T19:57:40Z</time></trkpt>
<trkpt lat="24.425693" lon="106.084864">
<time>2016-10-06T19:57:41Z</time></trkpt>
<trkpt lat="24.426134" lon="106.083815">
<time>2016-10-06T19:57:42Z</time></trkpt>
<trkpt lat="24.426254" lon="106.083505">
<time>2016-10-06T19:57:43Z</time></trkpt>
<trkpt lat="24.426514" lon="106.082896">
<time>2016-10-06T19:57:44Z</time></trkpt>
<trkpt lat="24.426705" lon="106.082516">
<time>2016-10-06T19:57:45Z</time></trkpt>
<trkpt lat="24.426765" lon="106.082406">
<time>2016-10-06T19:57:46Z</time></trkpt>
<trkpt lat="24.426845" lon="106.082286">
<time>2016-10-06T19:57:47Z</time></trkpt>
<trkpt lat="24.426995" lon="106.082096">
<time>2016-10-06T19:57:48Z</time></trkpt>
<trkpt lat="24.427345" lon="106.081757">
<time>2016-10-06T19:57:49Z</time></trkpt>
<trkpt lat="24.428126" lon="106.081017">
<time>2016-10-06T19:57:50Z</time></trkpt>
<trkpt lat="24.428436" lon="106.080717">
<time>2016-10-06T19:57:51Z</time></trkpt>
<trkpt lat="24.429097" lon="106.080128">
<time>2016-10-06T19:57:52Z</time></trkpt>
<trkpt lat="24.430187" lon="106.079248">
<time>2016-10-06T19:57:53Z</time></trkpt>
<trkpt lat="24.430418" lon="106.079069">
<time>2016-10-06T19:57:54Z</time></trkpt>
<trkpt lat="24.430708" lon="106.078829">
<time>2016-10-06T19:57:55Z</time></trkpt>
<trkpt lat="24.430918" lon="106.078639">
<time>2016-10-06T19:57:56Z</time></trkpt>
<trkpt lat="24.431108" lon="106.078419">
<time>2016-10-06T19:57:57Z</time></trkpt>
<trkpt lat="24.431268" lon="106.078179">
<time>2016-10-06T19:57:58Z</time></trkpt>
<trkpt lat="24.431479" lon="106.07781">
<time>2016-10-06T19:57:59Z</time></trkpt>
<trkpt lat="24.431829" lon="106.07718">
<time>2016-10-06T19:58:00Z</time></trkpt>
<trkpt lat="24.43206" lon="106.076791">
<time>2016-10-06T19:58:01Z</time></trkpt>
<trkpt lat="24.43233" lon="106.076321">
<time>2016-10-06T19:58:02Z</time></trkpt>
<trkpt lat="24.432651" lon="106.075812">
<time>2016-10-06T19:58:03Z</time></trkpt>
<trkpt lat="24.433081" lon="106.075202">
<time>2016-10-06T19:58:04Z</time></trkpt>
<trkpt lat="24.433572" lon="106.074583">
<time>2016-10-06T19:58:05Z</time></trkpt>
<trkpt lat="24.434513" lon="106.073504">
<time>2016-10-06T19:58:06Z</time></trkpt>
<trkpt lat="24.435274" lon="106.072565">
<time>2016-10-06T19:58:07Z</time></trkpt>
<trkpt lat="24.435965" lon="106.071677">
<time>2016-10-06T19:58:08Z</time></trkpt>
<trkpt lat="24.436766" lon="106.070718">
<time>2016-10-06T19:58:09Z</time></trkpt>
<trkpt lat="24.437367" lon="106.070069">
<time>2016-10-06T19:58:10Z</time></trkpt>
<trkpt lat="24.437678" lon="106.069729">
<time>2016-10-06T19:58:11Z</time></trkpt>
<trkpt lat="24.437878" lon="106.069519">
<time>2016-10-06T19:58:12Z</time></trkpt>
<trkpt lat="24.437898" lon="106.069499">
<time>2016-10-06T19:58:13Z</time></trkpt>
<trkpt lat="24.438068" lon="106.06931">
<time>2016-10-06T19:58:14Z</time></trkpt>
<trkpt lat="24.438599" lon="106.06874">
<time>2016-10-06T19:58:15Z</time></trkpt>
<trkpt lat="24.43967" lon="106.067622">
<time>2016-10-06T19:58:16Z</time></trkpt>
<trkpt lat="24.440401" lon="106.066933">
<time>2016-10-06T19:58:17Z</time></trkpt>
<trkpt lat="24.440582" lon="106.066763">
<time>2016-10-06T19:58:18Z</time></trkpt>
<trkpt lat="24.440892" lon="106.066484">
<time>2016-10-06T19:58:19Z</time></trkpt>
<trkpt lat="24.441102" lon="106.066274">
<time>2016-10-06T19:58:20Z</time></trkpt>
<trkpt lat="24.441793" lon="106.065665">
<time>2016-10-06T19:58:21Z</time></trkpt>
<trkpt lat="24.442124" lon="106.065375">
<time>2016-10-06T19:58:22Z</time></trkpt>
<trkpt lat="24.442364" lon="106.065235">
<time>2016-10-06T19:58:23Z</time></trkpt>
<trkpt lat="24.442544" lon="106.065126">
<time>2016-10-06T19:58:24Z</time></trkpt>
<trkpt lat="24.442724" lon="106.065046">
<time>2016-10-06T19:58:25Z</time></trkpt>
<trkpt lat="24.443035" lon="106.064936">
<time>2016-10-06T19:58:26Z</time></trkpt>
<trkpt lat="24.444175" lon="106.064606">
<time>2016-10-06T19:58:27Z</time></trkpt>
<trkpt lat="24.444465" lon="106.064487">
<time>2016-10-06T19:58:28Z</time></trkpt>
<trkpt lat="24.444596" lon="106.064387">
<time>2016-10-06T19:58:29Z</time></trkpt>
<trkpt lat="24.444716" lon="106.064267">
<time>2016-10-06T19:58:30Z</time></trkpt>
<trkpt lat="24.444806" lon="106.064137">
<time>2016-10-06T19:58:31Z</time></trkpt>
<trkpt lat="24.444876" lon="106.063997">
<time>2016-10-06T19:58:32Z</time></trkpt>
<trkpt lat="24.444926" lon="106.063848">
<time>2016-10-06T19:58:33Z</time></trkpt>
<trkpt lat="24.444936" lon="106.063798">
<time>2016-10-06T19:58:34Z</time></trkpt>
<trkpt lat="24.444967" lon="106.063688">
<time>2016-10-06T19:58:35Z</time></trkpt>
<trkpt lat="24.444967" lon="106.063498">
<time>2016-10-06T19:58:36Z</time></trkpt>
<trkpt lat="24.444928" lon="106.063029">
<time>2016-10-06T19:58:37Z</time></trkpt>
<trkpt lat="24.444868" lon="106.06266">
<time>2016-10-06T19:58:38Z</time></trkpt>
<trkpt lat="24.444749" lon="106.06218">
<time>2016-10-06T19:58:39Z</time></trkpt>
<trkpt lat="24.444719" lon="106.062081">
<time>2016-10-06T19:58:40Z</time></trkpt>
<trkpt lat="24.444579" lon="106.061701">
<time>2016-10-06T19:58:41Z</time></trkpt>
<trkpt lat="24.44434" lon="106.061162">
<time>2016-10-06T19:58:42Z</time></trkpt>
<trkpt lat="24.444081" lon="106.060623">
<time>2016-10-06T19:58:43Z</time></trkpt>
<trkpt lat="24.443911" lon="106.060254">
<time>2016-10-06T19:58:44Z</time></trkpt>
<trkpt lat="24.443822" lon="106.060064">
<time>2016-10-06T19:58:45Z</time></trkpt>
<trkpt lat="24.443772" lon="106.059964">
<time>2016-10-06T19:58:46Z</time></trkpt>
<trkpt lat="24.443772" lon="106.059944">
<time>2016-10-06T19:58:47Z</time></trkpt>
<trkpt lat="24.443712" lon="106.059805">
<time>2016-10-06T19:58:48Z</time></trkpt>
<trkpt lat="24.443612" lon="106.059585">
<time>2016-10-06T19:58:49Z</time></trkpt>
<trkpt lat="24.443553" lon="106.059346">
<time>2016-10-06T19:58:50Z</time></trkpt>
<trkpt lat="24.443533" lon="106.059146">
<time>2016-10-06T19:58:51Z</time></trkpt>
<trkpt lat="24.443543" lon="106.058926">
<time>2016-10-06T19:58:52Z</time></trkpt>
<trkpt lat="24.443614" lon="106.058697">
<time>2016-10-06T19:58:53Z</time></trkpt>
<trkpt lat="24.443704" lon="106.058487">
<time>2016-10-06T19:58:54Z</time></trkpt>
<trkpt lat="24.443804" lon="106.058337">
<time>2016-10-06T19:58:55Z</time></trkpt>
<trkpt lat="24.443905" lon="106.058208">
<time>2016-10-06T19:58:56Z</time></trkpt>
<trkpt lat="24.444015" lon="106.058078">
<time>2016-10-06T19:58:57Z</time></trkpt>
<trkpt lat="24.444285" lon="106.057789">
<time>2016-10-06T19:58:58Z</time></trkpt>
<trkpt lat="24.444606" lon="106.057419">
<time>2016-10-06T19:58:59Z</time></trkpt>
<trkpt lat="24.444847" lon="106.05711">
<time>2016-10-06T19:59:00Z</time></trkpt>
<trkpt lat="24.445027" lon="106.05683">
<time>2016-10-06T19:59:01Z</time></trkpt>
<trkpt lat="24.445488" lon="106.056132">
<time>2016-10-06T19:59:02Z</time></trkpt>
<trkpt lat="24.445649" lon="106.055902">
<time>2016-10-06T19:59:03Z</time></trkpt>
<trkpt lat="24.446" lon="106.055473">
<time>2016-10-06T19:59:04Z</time></trkpt>
<trkpt lat="24.44622" lon="106.055214">
<time>2016-10-06T19:59:05Z</time></trkpt>
<trkpt lat="24.44644" lon="106.054994">
<time>2016-10-06T19:59:06Z</time></trkpt>
<trkpt lat="24.446661" lon="106.054735">
<time>2016-10-06T19:59:07Z</time></trkpt>
<trkpt lat="24.446821" lon="106.054535">
<time>2016-10-06T19:59:08Z</time></trkpt>
<trkpt lat="24.446922" lon="106.054385">
<time>2016-10-06T19:59:09Z</time></trkpt>
<trkpt lat="24.447042" lon="106.054176">
<time>2016-10-06T19:59:10Z</time></trkpt>
<trkpt lat="24.447152" lon="106.053966">
<time>2016-10-06T19:59:11Z</time></trkpt>
<trkpt lat="24.447283" lon="106.053697">
<time>2016-10-06T19:59:12Z</time></trkpt>
<trkpt lat="24.447685" lon="106.052709">
<time>2016-10-06T19:59:13Z</time></trkpt>
<trkpt lat="24.447946" lon="106.05211">
<time>2016-10-06T19:59:14Z</time></trkpt>
<trkpt lat="24.448127" lon="106.051721">
<time>2016-10-06T19:59:15Z</time></trkpt>
<trkpt lat="24.448468" lon="106.051112">
<time>2016-10-06T19:59:16Z</time></trkpt>
<trkpt lat="24.448789" lon="106.050613">
<time>2016-10-06T19:59:17Z</time></trkpt>
<trkpt lat="24.4492" lon="106.050035">
<time>2016-10-06T19:59:18Z</time></trkpt>
<trkpt lat="24.449541" lon="106.049626">
<time>2016-10-06T19:59:19Z</time></trkpt>
<trkpt lat="24.449842" lon="106.049336">
<time>2016-10-06T19:59:20Z</time></trkpt>
<trkpt lat="24.450212" lon="106.048997">
<time>2016-10-06T19:59:21Z</time></trkpt>
<trkpt lat="24.450623" lon="106.048618">
<time>2016-10-06T19:59:22Z</time></trkpt>
<trkpt lat="24.450904" lon="106.048299">
<time>2016-10-06T19:59:23Z</time></trkpt>
<trkpt lat="24.451064" lon="106.048049">
<time>2016-10-06T19:59:24Z</time></trkpt>
<trkpt lat="24.451155" lon="106.047889">
<time>2016-10-06T19:59:25Z</time></trkpt>
<trkpt lat="24.451305" lon="106.04757">
<time>2016-10-06T19:59:26Z</time></trkpt>
<trkpt lat="24.451577" lon="106.046892">
<time>2016-10-06T19:59:27Z</time></trkpt>
<trkpt lat="24.451758" lon="106.046453">
<time>2016-10-06T19:59:28Z</time></trkpt>
<trkpt lat="24.451999" lon="106.046024">
<time>2016-10-06T19:59:29Z</time></trkpt>
<trkpt lat="24.45224" lon="106.045665">
<time>2016-10-06T19:59:30Z</time></trkpt>
<trkpt lat="24.45245" lon="106.045346">
<time>2016-10-06T19:59:31Z</time></trkpt>
<trkpt lat="24.453133" lon="106.044338">
<time>2016-10-06T19:59:32Z</time></trkpt>
<trkpt lat="24.454206" lon="106.042772">
<time>2016-10-06T19:59:33Z</time></trkpt>
<trkpt lat="24.454878" lon="106.041765">
<time>2016-10-06T19:59:34Z</time></trkpt>
<trkpt lat="24.455541" lon="106.040907">
<time>2016-10-06T19:59:35Z</time></trkpt>
<trkpt lat="24.456082" lon="106.040268">
<time>2016-10-06T19:59:36Z</time></trkpt>
<trkpt lat="24.456543" lon="106.0397">
<time>2016-10-06T19:59:37Z</time></trkpt>
<trkpt lat="24.456885" lon="106.039141">
<time>2016-10-06T19:59:38Z</time></trkpt>
<trkpt lat="24.457206" lon="106.038603">
<time>2016-10-06T19:59:39Z</time></trkpt>
<trkpt lat="24.457477" lon="106.038144">
<time>2016-10-06T19:59:40Z</time></trkpt>
<trkpt lat="24.457769" lon="106.037645">
<time>2016-10-06T19:59:41Z</time></trkpt>
<trkpt lat="24.45808" lon="106.037137">
<time>2016-10-06T19:59:42Z</time></trkpt>
<trkpt lat="24.458261" lon="106.036818">
<time>2016-10-06T19:59:43Z</time></trkpt>
<trkpt lat="24.458451" lon="106.036479">
<time>2016-10-06T19:59:44Z</time></trkpt>
<trkpt lat="24.458642" lon="106.036149">
<time>2016-10-06T19:59:45Z</time></trkpt>
<trkpt lat="24.458843" lon="106.03585">
<time>2016-10-06T19:59:46Z</time></trkpt>
<trkpt lat="24.459054" lon="106.035571">
<time>2016-10-06T19:59:47Z</time></trkpt>
<trkpt lat="24.459284" lon="106.035292">
<time>2016-10-06T19:59:48Z</time></trkpt>
<trkpt lat="24.459615" lon="106.034933">
<time>2016-10-06T19:59:49Z</time></trkpt>
<trkpt lat="24.460007" lon="106.034484">
<time>2016-10-06T19:59:50Z</time></trkpt>
<trkpt lat="24.460368" lon="106.033986">
<time>2016-10-06T19:59:51Z</time></trkpt>
<trkpt lat="24.460739" lon="106.033457">
<time>2016-10-06T19:59:52Z</time></trkpt>
<trkpt lat="24.46087" lon="106.033278">
<time>2016-10-06T19:59:53Z</time></trkpt>
<trkpt lat="24.46107" lon="106.032988">
<time>2016-10-06T19:59:54Z</time></trkpt>
<trkpt lat="24.461241" lon="106.032739">
<time>2016-10-06T19:59:55Z</time></trkpt>
<trkpt lat="24.461382" lon="106.03249">
<time>2016-10-06T19:59:56Z</time></trkpt>
<trkpt lat="24.461482" lon="106.03226">
<time>2016-10-06T19:59:57Z</time></trkpt>
<trkpt lat="24.461633" lon="106.031872">
<time>2016-10-06T19:59:58Z</time></trkpt>
<trkpt lat="24.461734" lon="106.031652">
<time>2016-10-06T19:59:59Z</time></trkpt>
<trkpt lat="24.461865" lon="106.031413">
<time>2016-10-06T20:00:00Z</time></trkpt>
<trkpt lat="24.461975" lon="106.031233">
<time>2016-10-06T20:00:01Z</time></trkpt>
<trkpt lat="24.462075" lon="106.031104">
<time>2016-10-06T20:00:02Z</time></trkpt>
<trkpt lat="24.462216" lon="106.030954">
<time>2016-10-06T20:00:03Z</time></trkpt>
<trkpt lat="24.462808" lon="106.030336">
<time>2016-10-06T20:00:04Z</time></trkpt>
<trkpt lat="24.463138" lon="106.030037">
<time>2016-10-06T20:00:05Z</time></trkpt>
<trkpt lat="24.463429" lon="106.029768">
<time>2016-10-06T20:00:06Z</time></trkpt>
<trkpt lat="24.464472" lon="106.02891">
<time>2016-10-06T20:00:07Z</time></trkpt>
<trkpt lat="24.464853" lon="106.028571">
<time>2016-10-06T20:00:08Z</time></trkpt>
<trkpt lat="24.464923" lon="106.028492">
<time>2016-10-06T20:00:09Z</time></trkpt>
<trkpt lat="24.464973" lon="106.028422">
<time>2016-10-06T20:00:10Z</time></trkpt>
<trkpt lat="24.465013" lon="106.028342">
<time>2016-10-06T20:00:11Z</time></trkpt>
<trkpt lat="24.465144" lon="106.028033">
<time>2016-10-06T20:00:12Z</time></trkpt>
<trkpt lat="24.465265" lon="106.027784">
<time>2016-10-06T20:00:13Z</time></trkpt>
<trkpt lat="24.465375" lon="106.027614">
<time>2016-10-06T20:00:14Z</time></trkpt>
<trkpt lat="24.465656" lon="106.027305">
<time>2016-10-06T20:00:15Z</time></trkpt>
<trkpt lat="24.466368" lon="106.026637">
<time>2016-10-06T20:00:16Z</time></trkpt>
<trkpt lat="24.46699" lon="106.026059">
<time>2016-10-06T20:00:17Z</time></trkpt>
<trkpt lat="24.467451" lon="106.02563">
<time>2016-10-06T20:00:18Z</time></trkpt>
<trkpt lat="24.467762" lon="106.025331">
<time>2016-10-06T20:00:19Z</time></trkpt>
<trkpt lat="24.468032" lon="106.025102">
<time>2016-10-06T20:00:20Z</time></trkpt>
<trkpt lat="24.468263" lon="106.024942">
<time>2016-10-06T20:00:21Z</time></trkpt>
<trkpt lat="24.468493" lon="106.024833">
<time>2016-10-06T20:00:22Z</time></trkpt>
<trkpt lat="24.468633" lon="106.024763">
<time>2016-10-06T20:00:23Z</time></trkpt>
<trkpt lat="24.468874" lon="106.024693">
<time>2016-10-06T20:00:24Z</time></trkpt>
<trkpt lat="24.469054" lon="106.024623">
<time>2016-10-06T20:00:25Z</time></trkpt>
<trkpt lat="24.469194" lon="106.024553">
<time>2016-10-06T20:00:26Z</time></trkpt>
<trkpt lat="24.469364" lon="106.024444">
<time>2016-10-06T20:00:27Z</time></trkpt>
<trkpt lat="24.469445" lon="106.024384">
<time>2016-10-06T20:00:28Z</time></trkpt>
<trkpt lat="24.469515" lon="106.024294">
<time>2016-10-06T20:00:29Z</time></trkpt>
<trkpt lat="24.469565" lon="106.024195">
<time>2016-10-06T20:00:30Z</time></trkpt>
<trkpt lat="24.469616" lon="106.023995">
<time>2016-10-06T20:00:31Z</time></trkpt>
<trkpt lat="24.469636" lon="106.023906">
<time>2016-10-06T20:00:32Z</time></trkpt>
<trkpt lat="24.469666" lon="106.023756">
<time>2016-10-06T20:00:33Z</time></trkpt>
<trkpt lat="24.469727" lon="106.023407">
<time>2016-10-06T20:00:34Z</time></trkpt>
<trkpt lat="24.469778" lon="106.023248">
<time>2016-10-06T20:00:35Z</time></trkpt>
<trkpt lat="24.469828" lon="106.023108">
<time>2016-10-06T20:00:36Z</time></trkpt>
<trkpt lat="24.469929" lon="106.022978">
<time>2016-10-06T20:00:37Z</time></trkpt>
<trkpt lat="24.470129" lon="106.022729">
<time>2016-10-06T20:00:38Z</time></trkpt>
<trkpt lat="24.47022" lon="106.022639">
<time>2016-10-06T20:00:39Z</time></trkpt>
<trkpt lat="24.4703" lon="106.02255">
<time>2016-10-06T20:00:40Z</time></trkpt>
<trkpt lat="24.47042" lon="106.02238">
<time>2016-10-06T20:00:41Z</time></trkpt>
<trkpt lat="24.470631" lon="106.022051">
<time>2016-10-06T20:00:42Z</time></trkpt>
<trkpt lat="24.470802" lon="106.021653">
<time>2016-10-06T20:00:43Z</time></trkpt>
<trkpt lat="24.470963" lon="106.021334">
<time>2016-10-06T20:00:44Z</time></trkpt>
<trkpt lat="24.471134" lon="106.021055">
<time>2016-10-06T20:00:45Z</time></trkpt>
<trkpt lat="24.471707" lon="106.020197">
<time>2016-10-06T20:00:46Z</time></trkpt>
<trkpt lat="24.471877" lon="106.019978">
<time>2016-10-06T20:00:47Z</time></trkpt>
<trkpt lat="24.472199" lon="106.019549">
<time>2016-10-06T20:00:48Z</time></trkpt>
<trkpt lat="24.47267" lon="106.018991">
<time>2016-10-06T20:00:49Z</time></trkpt>
<trkpt lat="24.473613" lon="106.017984">
<time>2016-10-06T20:00:50Z</time></trkpt>
<trkpt lat="24.474366" lon="106.017167">
<time>2016-10-06T20:00:51Z</time></trkpt>
<trkpt lat="24.475028" lon="106.016489">
<time>2016-10-06T20:00:52Z</time></trkpt>
<trkpt lat="24.475509" lon="106.015981">
<time>2016-10-06T20:00:53Z</time></trkpt>
<trkpt lat="24.475891" lon="106.015572">
<time>2016-10-06T20:00:54Z</time></trkpt>
<trkpt lat="24.476122" lon="106.015243">
<time>2016-10-06T20:00:55Z</time></trkpt>
<trkpt lat="24.476242" lon="106.015014">
<time>2016-10-06T20:00:56Z</time></trkpt>
<trkpt lat="24.476393" lon="106.014685">
<time>2016-10-06T20:00:57Z</time></trkpt>
<trkpt lat="24.476585" lon="106.014207">
<time>2016-10-06T20:00:58Z</time></trkpt>
<trkpt lat="24.476696" lon="106.013878">
<time>2016-10-06T20:00:59Z</time></trkpt>
<trkpt lat="24.477028" lon="106.012931">
<time>2016-10-06T20:01:00Z</time></trkpt>
<trkpt lat="24.477694" lon="106.010988">
<time>2016-10-06T20:01:01Z</time></trkpt>
<trkpt lat="24.477886" lon="106.010469">
<time>2016-10-06T20:01:02Z</time></trkpt>
<trkpt lat="24.477977" lon="106.01024">
<time>2016-10-06T20:01:03Z</time></trkpt>
<trkpt lat="24.478097" lon="106.010031">
<time>2016-10-06T20:01:04Z</time></trkpt>
<trkpt lat="24.478178" lon="106.009921">
<time>2016-10-06T20:01:05Z</time></trkpt>
<trkpt lat="24.478278" lon="106.009812">
<time>2016-10-06T20:01:06Z</time></trkpt>
<trkpt lat="24.478388" lon="106.009702">
<time>2016-10-06T20:01:07Z</time></trkpt>
<trkpt lat="24.478509" lon="106.009582">
<time>2016-10-06T20:01:08Z</time></trkpt>
<trkpt lat="24.478719" lon="106.009413">
<time>2016-10-06T20:01:09Z</time></trkpt>
<trkpt lat="24.478839" lon="106.009303">
<time>2016-10-06T20:01:10Z</time></trkpt>
<trkpt lat="24.47922" lon="106.008984">
<time>2016-10-06T20:01:11Z</time></trkpt>
<trkpt lat="24.479481" lon="106.008775">
<time>2016-10-06T20:01:12Z</time></trkpt>
<trkpt lat="24.479642" lon="106.008665">
<time>2016-10-06T20:01:13Z</time></trkpt>
<trkpt lat="24.479762" lon="106.008606">
<time>2016-10-06T20:01:14Z</time></trkpt>
<trkpt lat="24.479972" lon="106.008526">
<time>2016-10-06T20:01:15Z</time></trkpt>
<trkpt lat="24.480202" lon="106.008446">
<time>2016-10-06T20:01:16Z</time></trkpt>
<trkpt lat="24.480723" lon="106.008346">
<time>2016-10-06T20:01:17Z</time></trkpt>
<trkpt lat="24.481003" lon="106.008307">
<time>2016-10-06T20:01:18Z</time></trkpt>
<trkpt lat="24.481143" lon="106.008267">
<time>2016-10-06T20:01:19Z</time></trkpt>
<trkpt lat="24.481143" lon="106.008267">
<time>2016-10-06T20:01:20Z</time></trkpt>
<trkpt lat="24.481193" lon="106.008257">
<time>2016-10-06T20:01:21Z</time></trkpt>
<trkpt lat="24.481743" lon="106.008157">
<time>2016-10-06T20:01:22Z</time></trkpt>
<trkpt lat="24.482114" lon="106.008028">
<time>2016-10-06T20:01:23Z</time></trkpt>
<trkpt lat="24.482515" lon="106.007808">
<time>2016-10-06T20:01:24Z</time></trkpt>
<trkpt lat="24.482936" lon="106.00742">
<time>2016-10-06T20:01:25Z</time></trkpt>
<trkpt lat="24.483207" lon="106.007061">
<time>2016-10-06T20:01:26Z</time></trkpt>
<trkpt lat="24.483438" lon="106.006682">
<time>2016-10-06T20:01:27Z</time></trkpt>
<trkpt lat="24.483468" lon="106.006632">
<time>2016-10-06T20:01:28Z</time></trkpt>
<trkpt lat="24.48365" lon="106.006074">
<time>2016-10-06T20:01:29Z</time></trkpt>
<trkpt lat="24.483943" lon="106.005028">
<time>2016-10-06T20:01:30Z</time></trkpt>
<trkpt lat="24.484166" lon="106.004191">
<time>2016-10-06T20:01:31Z</time></trkpt>
<trkpt lat="24.484186" lon="106.004111">
<time>2016-10-06T20:01:32Z</time></trkpt>
<trkpt lat="24.484186" lon="106.004111">
<time>2016-10-06T20:01:33Z</time></trkpt>
<trkpt lat="24.484206" lon="106.004081">
<time>2016-10-06T20:01:34Z</time></trkpt>
<trkpt lat="24.484267" lon="106.003892">
<time>2016-10-06T20:01:35Z</time></trkpt>
<trkpt lat="24.484569" lon="106.003025">
<time>2016-10-06T20:01:36Z</time></trkpt>
<trkpt lat="24.484831" lon="106.002347">
<time>2016-10-06T20:01:37Z</time></trkpt>
<trkpt lat="24.484972" lon="106.002078">
<time>2016-10-06T20:01:38Z</time></trkpt>
<trkpt lat="24.485214" lon="106.001649">
<time>2016-10-06T20:01:39Z</time></trkpt>
<trkpt lat="24.485384" lon="106.00138">
<time>2016-10-06T20:01:40Z</time></trkpt>
<trkpt lat="24.485565" lon="106.001131">
<time>2016-10-06T20:01:41Z</time></trkpt>
<trkpt lat="24.485626" lon="106.001042">
<time>2016-10-06T20:01:42Z</time></trkpt>
<trkpt lat="24.485897" lon="106.000723">
<time>2016-10-06T20:01:43Z</time></trkpt>
<trkpt lat="24.485987" lon="106.000633">
<time>2016-10-06T20:01:44Z</time></trkpt>
<trkpt lat="24.486408" lon="106.000105">
<time>2016-10-06T20:01:45Z</time></trkpt>
<trkpt lat="24.486489" lon="106.000005">
<time>2016-10-06T20:01:46Z</time></trkpt>
<trkpt lat="24.486499" lon="105.999995">
<time>2016-10-06T20:01:47Z</time></trkpt>
<trkpt lat="24.486619" lon="105.999846">
<time>2016-10-06T20:01:48Z</time></trkpt>
<trkpt lat="24.48696" lon="105.999477">
<time>2016-10-06T20:01:49Z</time></trkpt>
<trkpt lat="24.487442" lon="105.998969">
<time>2016-10-06T20:01:50Z</time></trkpt>
<trkpt lat="24.487843" lon="105.99856">
<time>2016-10-06T20:01:51Z</time></trkpt>
<trkpt lat="24.488245" lon="105.998171">
<time>2016-10-06T20:01:52Z</time></trkpt>
<trkpt lat="24.488435" lon="105.997942">
<time>2016-10-06T20:01:53Z</time></trkpt>
<trkpt lat="24.488536" lon="105.997793">
<time>2016-10-06T20:01:54Z</time></trkpt>
<trkpt lat="24.488596" lon="105.997663">
<time>2016-10-06T20:01:55Z</time></trkpt>
<trkpt lat="24.488637" lon="105.997564">
<time>2016-10-06T20:01:56Z</time></trkpt>
<trkpt lat="24.488667" lon="105.997454">
<time>2016-10-06T20:01:57Z</time></trkpt>
<trkpt lat="24.488697" lon="105.997324">
<time>2016-10-06T20:01:58Z</time></trkpt>
<trkpt lat="24.488718" lon="105.997245">
<time>2016-10-06T20:01:59Z</time></trkpt>
<trkpt lat="24.488728" lon="105.997155">
<time>2016-10-06T20:02:00Z</time></trkpt>
<trkpt lat="24.488728" lon="105.997065">
<time>2016-10-06T20:02:01Z</time></trkpt>
<trkpt lat="24.488718" lon="105.996946">
<time>2016-10-06T20:02:02Z</time></trkpt>
<trkpt lat="24.488699" lon="105.996876">
<time>2016-10-06T20:02:03Z</time></trkpt>
<trkpt lat="24.488669" lon="105.996786">
<time>2016-10-06T20:02:04Z</time></trkpt>
<trkpt lat="24.488639" lon="105.996717">
<time>2016-10-06T20:02:05Z</time></trkpt>
<trkpt lat="24.488609" lon="105.996657">
<time>2016-10-06T20:02:06Z</time></trkpt>
<trkpt lat="24.48856" lon="105.996597">
<time>2016-10-06T20:02:07Z</time></trkpt>
<trkpt lat="24.48851" lon="105.996557">
<time>2016-10-06T20:02:08Z</time></trkpt>
<trkpt lat="24.48846" lon="105.996517">
<time>2016-10-06T20:02:09Z</time></trkpt>
<trkpt lat="24.48839" lon="105.996487">
<time>2016-10-06T20:02:10Z</time></trkpt>
<trkpt lat="24.48834" lon="105.996467">
<time>2016-10-06T20:02:11Z</time></trkpt>
<trkpt lat="24.48828" lon="105.996447">
<time>2016-10-06T20:02:12Z</time></trkpt>
<trkpt lat="24.48819" lon="105.996438">
<time>2016-10-06T20:02:13Z</time></trkpt>
<trkpt lat="24.48805" lon="105.996438">
<time>2016-10-06T20:02:14Z</time></trkpt>
<trkpt lat="24.48789" lon="105.996438">
<time>2016-10-06T20:02:15Z</time></trkpt>
<trkpt lat="24.48787" lon="105.996438">
<time>2016-10-06T20:02:16Z</time></trkpt>
<trkpt lat="24.48777" lon="105.996438">
<time>2016-10-06T20:02:17Z</time></trkpt>
<trkpt lat="24.48742" lon="105.996438">
<time>2016-10-06T20:02:18Z</time></trkpt>
<trkpt lat="24.48705" lon="105.996438">
<time>2016-10-06T20:02:19Z</time></trkpt>
<trkpt lat="24.48677" lon="105.996438">
<time>2016-10-06T20:02:20Z</time></trkpt>
<trkpt lat="24.4866" lon="105.996448">
<time>2016-10-06T20:02:21Z</time></trkpt>
<trkpt lat="24.48644" lon="105.996438">
<time>2016-10-06T20:02:22Z</time></trkpt>
<trkpt lat="24.48632" lon="105.996418">
<time>2016-10-06T20:02:23Z</time></trkpt>
<trkpt lat="24.48621" lon="105.996388">
<time>2016-10-06T20:02:24Z</time></trkpt>
<trkpt lat="24.48612" lon="105.996348">
<time>2016-10-06T20:02:25Z</time></trkpt>
<trkpt lat="24.48603" lon="105.996288">
<time>2016-10-06T20:02:26Z</time></trkpt>
<trkpt lat="24.48594" lon="105.996208">
<time>2016-10-06T20:02:27Z</time></trkpt>
<trkpt lat="24.48588" lon="105.996129">
<time>2016-10-06T20:02:28Z</time></trkpt>
<trkpt lat="24.485821" lon="105.996029">
<time>2016-10-06T20:02:29Z</time></trkpt>
<trkpt lat="24.485751" lon="105.99589">
<time>2016-10-06T20:02:30Z</time></trkpt>
<trkpt lat="24.485712" lon="105.99578">
<time>2016-10-06T20:02:31Z</time></trkpt>
<trkpt lat="24.485682" lon="105.99566">
<time>2016-10-06T20:02:32Z</time></trkpt>
<trkpt lat="24.485672" lon="105.995541">
<time>2016-10-06T20:02:33Z</time></trkpt>
<trkpt lat="24.485683" lon="105.995451">
<time>2016-10-06T20:02:34Z</time></trkpt>
<trkpt lat="24.485703" lon="105.995351">
<time>2016-10-06T20:02:35Z</time></trkpt>
<trkpt lat="24.485733" lon="105.995252">
<time>2016-10-06T20:02:36Z</time></trkpt>
<trkpt lat="24.485774" lon="105.995122">
<time>2016-10-06T20:02:37Z</time></trkpt>
<trkpt lat="24.485884" lon="105.994853">
<time>2016-10-06T20:02:38Z</time></trkpt>
<trkpt lat="24.486096" lon="105.994385">
<time>2016-10-06T20:02:39Z</time></trkpt>
<trkpt lat="24.486156" lon="105.994255">
<time>2016-10-06T20:02:40Z</time></trkpt>
<trkpt lat="24.486196" lon="105.994176">
<time>2016-10-06T20:02:41Z</time></trkpt>
<trkpt lat="24.486257" lon="105.994096">
<time>2016-10-06T20:02:42Z</time></trkpt>
<trkpt lat="24.486337" lon="105.993996">
<time>2016-10-06T20:02:43Z</time></trkpt>
<trkpt lat="24.486457" lon="105.993896">
<time>2016-10-06T20:02:44Z</time></trkpt>
<trkpt lat="24.486578" lon="105.993827">
<time>2016-10-06T20:02:45Z</time></trkpt>
<trkpt lat="24.486698" lon="105.993797">
<time>2016-10-06T20:02:46Z</time></trkpt>
<trkpt lat="24.486818" lon="105.993767">
<time>2016-10-06T20:02:47Z</time></trkpt>
<trkpt lat="24.487358" lon="105.993767">
<time>2016-10-06T20:02:48Z</time></trkpt>
<trkpt lat="24.487778" lon="105.993787">
<time>2016-10-06T20:02:49Z</time></trkpt>
<trkpt lat="24.487938" lon="105.993777">
<time>2016-10-06T20:02:50Z</time></trkpt>
<trkpt lat="24.488088" lon="105.993757">
<time>2016-10-06T20:02:51Z</time></trkpt>
<trkpt lat="24.488198" lon="105.993727">
<time>2016-10-06T20:02:52Z</time></trkpt>
<trkpt lat="24.488288" lon="105.993687">
<time>2016-10-06T20:02:53Z</time></trkpt>
<trkpt lat="24.488689" lon="105.993498">
<time>2016-10-06T20:02:54Z</time></trkpt>
<trkpt lat="24.48923" lon="105.993219">
<time>2016-10-06T20:02:55Z</time></trkpt>
<trkpt lat="24.490051" lon="105.99284">
<time>2016-10-06T20:02:56Z</time></trkpt>
<trkpt lat="24.491033" lon="105.992382">
<time>2016-10-06T20:02:57Z</time></trkpt>
<trkpt lat="24.491343" lon="105.992262">
<time>2016-10-06T20:02:58Z</time></trkpt>
<trkpt lat="24.491633" lon="105.992172">
<time>2016-10-06T20:02:59Z</time></trkpt>
<trkpt lat="24.492334" lon="105.992003">
<time>2016-10-06T20:03:00Z</time></trkpt>
<trkpt lat="24.492444" lon="105.991973">
<time>2016-10-06T20:03:01Z</time></trkpt>
<trkpt lat="24.492544" lon="105.991933">
<time>2016-10-06T20:03:02Z</time></trkpt>
<trkpt lat="24.492634" lon="105.991903">
<time>2016-10-06T20:03:03Z</time></trkpt>
<trkpt lat="24.492715" lon="105.991863">
<time>2016-10-06T20:03:04Z</time></trkpt>
<trkpt lat="24.492835" lon="105.991804">
<time>2016-10-06T20:03:05Z</time></trkpt>
<trkpt lat="24.492955" lon="105.991734">
<time>2016-10-06T20:03:06Z</time></trkpt>
<trkpt lat="24.493035" lon="105.991664">
<time>2016-10-06T20:03:07Z</time></trkpt>
<trkpt lat="24.493125" lon="105.991594">
<time>2016-10-06T20:03:08Z</time></trkpt>
<trkpt lat="24.493196" lon="105.991534">
<time>2016-10-06T20:03:09Z</time></trkpt>
<trkpt lat="24.493286" lon="105.991455">
<time>2016-10-06T20:03:10Z</time></trkpt>
<trkpt lat="24.493366" lon="105.991365">
<time>2016-10-06T20:03:11Z</time></trkpt>
<trkpt lat="24.493477" lon="105.991245">
<time>2016-10-06T20:03:12Z</time></trkpt>
<trkpt lat="24.493527" lon="105.991176">
<time>2016-10-06T20:03:13Z</time></trkpt>
<trkpt lat="24.493597" lon="105.991056">
<time>2016-10-06T20:03:14Z</time></trkpt>
<trkpt lat="24.493678" lon="105.990936">
<time>2016-10-06T20:03:15Z</time></trkpt>
<trkpt lat="24.493728" lon="105.990827">
<time>2016-10-06T20:03:16Z</time></trkpt>
<trkpt lat="24.493788" lon="105.990707">
<time>2016-10-06T20:03:17Z</time></trkpt>
<trkpt lat="24.493859" lon="105.990538">
<time>2016-10-06T20:03:18Z</time></trkpt>
<trkpt lat="24.49397" lon="105.990309">
<time>2016-10-06T20:03:19Z</time></trkpt>
<trkpt lat="24.49403" lon="105.990199">
<time>2016-10-06T20:03:20Z</time></trkpt>
<trkpt lat="24.49411" lon="105.990079">
<time>2016-10-06T20:03:21Z</time></trkpt>
<trkpt lat="24.494221" lon="105.98997">
<time>2016-10-06T20:03:22Z</time></trkpt>
<trkpt lat="24.494341" lon="105.98988">
<time>2016-10-06T20:03:23Z</time></trkpt>
<trkpt lat="24.494441" lon="105.98982">
<time>2016-10-06T20:03:24Z</time></trkpt>
<trkpt lat="24.494581" lon="105.989771">
<time>2016-10-06T20:03:25Z</time></trkpt>
<trkpt lat="24.494721" lon="105.989751">
<time>2016-10-06T20:03:26Z</time></trkpt>
<trkpt lat="24.494841" lon="105.989751">
<time>2016-10-06T20:03:27Z</time></trkpt>
<trkpt lat="24.494971" lon="105.98977">
<time>2016-10-06T20:03:28Z</time></trkpt>
<trkpt lat="24.495101" lon="105.9898">
<time>2016-10-06T20:03:29Z</time></trkpt>
<trkpt lat="24.495211" lon="105.98986">
<time>2016-10-06T20:03:30Z</time></trkpt>
<trkpt lat="24.495311" lon="105.98992">
<time>2016-10-06T20:03:31Z</time></trkpt>
<trkpt lat="24.495451" lon="105.99003">
<time>2016-10-06T20:03:32Z</time></trkpt>
<trkpt lat="24.496488" lon="105.991066">
<time>2016-10-06T20:03:33Z</time></trkpt>
<trkpt lat="24.496557" lon="105.991136">
<time>2016-10-06T20:03:34Z</time></trkpt>
<trkpt lat="24.496657" lon="105.991205">
<time>2016-10-06T20:03:35Z</time></trkpt>
<trkpt lat="24.496757" lon="105.991255">
<time>2016-10-06T20:03:36Z</time></trkpt>
<trkpt lat="24.496837" lon="105.991295">
<time>2016-10-06T20:03:37Z</time></trkpt>
<trkpt lat="24.496987" lon="105.991335">
<time>2016-10-06T20:03:38Z</time></trkpt>
<trkpt lat="24.497107" lon="105.991355">
<time>2016-10-06T20:03:39Z</time></trkpt>
<trkpt lat="24.497237" lon="105.991335">
<time>2016-10-06T20:03:40Z</time></trkpt>
<trkpt lat="24.497377" lon="105.991305">
<time>2016-10-06T20:03:41Z</time></trkpt>
<trkpt lat="24.497497" lon="105.991265">
<time>2016-10-06T20:03:42Z</time></trkpt>
<trkpt lat="24.497647" lon="105.991175">
<time>2016-10-06T20:03:43Z</time></trkpt>
<trkpt lat="24.497768" lon="105.991076">
<time>2016-10-06T20:03:44Z</time></trkpt>
<trkpt lat="24.497888" lon="105.990936">
<time>2016-10-06T20:03:45Z</time></trkpt>
<trkpt lat="24.499114" lon="105.989202">
<time>2016-10-06T20:03:46Z</time></trkpt>
<trkpt lat="24.499666" lon="105.988405">
<time>2016-10-06T20:03:47Z</time></trkpt>
<trkpt lat="24.499988" lon="105.987877">
<time>2016-10-06T20:03:48Z</time></trkpt>
<trkpt lat="24.499998" lon="105.987877">
<time>2016-10-06T20:03:49Z</time></trkpt>
<trkpt lat="24.5003" lon="105.987319">
<time>2016-10-06T20:03:50Z</time></trkpt>
<trkpt lat="24.500641" lon="105.986691">
<time>2016-10-06T20:03:51Z</time></trkpt>
<trkpt lat="24.500863" lon="105.986322">
<time>2016-10-06T20:03:52Z</time></trkpt>
<trkpt lat="24.500993" lon="105.986123">
<time>2016-10-06T20:03:53Z</time></trkpt>
<trkpt lat="24.501144" lon="105.985904">
<time>2016-10-06T20:03:54Z</time></trkpt>
<trkpt lat="24.501335" lon="105.985654">
<time>2016-10-06T20:03:55Z</time></trkpt>
<trkpt lat="24.501515" lon="105.985455">
<time>2016-10-06T20:03:56Z</time></trkpt>
<trkpt lat="24.501726" lon="105.985246">
<time>2016-10-06T20:03:57Z</time></trkpt>
<trkpt lat="24.501967" lon="105.985027">
<time>2016-10-06T20:03:58Z</time></trkpt>
<trkpt lat="24.502047" lon="105.984967">
<time>2016-10-06T20:03:59Z</time></trkpt>
<trkpt lat="24.502107" lon="105.984917">
<time>2016-10-06T20:04:00Z</time></trkpt>
<trkpt lat="24.502327" lon="105.984787">
<time>2016-10-06T20:04:01Z</time></trkpt>
<trkpt lat="24.502688" lon="105.984548">
<time>2016-10-06T20:04:02Z</time></trkpt>
<trkpt lat="24.502768" lon="105.984498">
<time>2016-10-06T20:04:03Z</time></trkpt>
<trkpt lat="24.502869" lon="105.984429">
<time>2016-10-06T20:04:04Z</time></trkpt>
<trkpt lat="24.502989" lon="105.984339">
<time>2016-10-06T20:04:05Z</time></trkpt>
<trkpt lat="24.503129" lon="105.984219">
<time>2016-10-06T20:04:06Z</time></trkpt>
<trkpt lat="24.50325" lon="105.9841">
<time>2016-10-06T20:04:07Z</time></trkpt>
<trkpt lat="24.50339" lon="105.98395">
<time>2016-10-06T20:04:08Z</time></trkpt>
<trkpt lat="24.503551" lon="105.983771">
<time>2016-10-06T20:04:09Z</time></trkpt>
<trkpt lat="24.504544" lon="105.982525">
<time>2016-10-06T20:04:10Z</time></trkpt>
<trkpt lat="24.504635" lon="105.982435">
<time>2016-10-06T20:04:11Z</time></trkpt>
<trkpt lat="24.504745" lon="105.982356">
<time>2016-10-06T20:04:12Z</time></trkpt>
<trkpt lat="24.504855" lon="105.982286">
<time>2016-10-06T20:04:13Z</time></trkpt>
<trkpt lat="24.504965" lon="105.982216">
<time>2016-10-06T20:04:14Z</time></trkpt>
<trkpt lat="24.505116" lon="105.982166">
<time>2016-10-06T20:04:15Z</time></trkpt>
<trkpt lat="24.505706" lon="105.981967">
<time>2016-10-06T20:04:16Z</time></trkpt>
<trkpt lat="24.507148" lon="105.981469">
<time>2016-10-06T20:04:17Z</time></trkpt>
<trkpt lat="24.507348" lon="105.981419">
<time>2016-10-06T20:04:18Z</time></trkpt>
<trkpt lat="24.507568" lon="105.981399">
<time>2016-10-06T20:04:19Z</time></trkpt>
<trkpt lat="24.508549" lon="105.981339">
<time>2016-10-06T20:04:20Z</time></trkpt>
<trkpt lat="24.508799" lon="105.981309">
<time>2016-10-06T20:04:21Z</time></trkpt>
<trkpt lat="24.508989" lon="105.981259">
<time>2016-10-06T20:04:22Z</time></trkpt>
<trkpt lat="24.509179" lon="105.981189">
<time>2016-10-06T20:04:23Z</time></trkpt>
<trkpt lat="24.509409" lon="105.98108">
<time>2016-10-06T20:04:24Z</time></trkpt>
<trkpt lat="24.510652" lon="105.980322">
<time>2016-10-06T20:04:25Z</time></trkpt>
<trkpt lat="24.511965" lon="105.979485">
<time>2016-10-06T20:04:26Z</time></trkpt>
<trkpt lat="24.512445" lon="105.979196">
<time>2016-10-06T20:04:27Z</time></trkpt>
<trkpt lat="24.512736" lon="105.978997">
<time>2016-10-06T20:04:28Z</time></trkpt>
<trkpt lat="24.512977" lon="105.978787">
<time>2016-10-06T20:04:29Z</time></trkpt>
<trkpt lat="24.51394" lon="105.977801">
<time>2016-10-06T20:04:30Z</time></trkpt>
<trkpt lat="24.515153" lon="105.976555">
<time>2016-10-06T20:04:31Z</time></trkpt>
<trkpt lat="24.516327" lon="105.975339">
<time>2016-10-06T20:04:32Z</time></trkpt>
<trkpt lat="24.516548" lon="105.975129">
<time>2016-10-06T20:04:33Z</time></trkpt>
<trkpt lat="24.516939" lon="105.97483">
<time>2016-10-06T20:04:34Z</time></trkpt>
<trkpt lat="24.518161" lon="105.973933">
<time>2016-10-06T20:04:35Z</time></trkpt>
<trkpt lat="24.518572" lon="105.973594">
<time>2016-10-06T20:04:36Z</time></trkpt>
<trkpt lat="24.518833" lon="105.973395">
<time>2016-10-06T20:04:37Z</time></trkpt>
<trkpt lat="24.519063" lon="105.973235">
<time>2016-10-06T20:04:38Z</time></trkpt>
<trkpt lat="24.519204" lon="105.973156">
<time>2016-10-06T20:04:39Z</time></trkpt>
<trkpt lat="24.519314" lon="105.973106">
<time>2016-10-06T20:04:40Z</time></trkpt>
<trkpt lat="24.519414" lon="105.973066">
<time>2016-10-06T20:04:41Z</time></trkpt>
<trkpt lat="24.519544" lon="105.973036">
<time>2016-10-06T20:04:42Z</time></trkpt>
<trkpt lat="24.519694" lon="105.973016">
<time>2016-10-06T20:04:43Z</time></trkpt>
<trkpt lat="24.519904" lon="105.972996">
<time>2016-10-06T20:04:44Z</time></trkpt>
<trkpt lat="24.520204" lon="105.972976">
<time>2016-10-06T20:04:45Z</time></trkpt>
<trkpt lat="24.520304" lon="105.972976">
<time>2016-10-06T20:04:46Z</time></trkpt>
<trkpt lat="24.520334" lon="105.972976">
<time>2016-10-06T20:04:47Z</time></trkpt>
<trkpt lat="24.520544" lon="105.972966">
<time>2016-10-06T20:04:48Z</time></trkpt>
<trkpt lat="24.520694" lon="105.972956">
<time>2016-10-06T20:04:49Z</time></trkpt>
<trkpt lat="24.521115" lon="105.972926">
<time>2016-10-06T20:04:50Z</time></trkpt>
<trkpt lat="24.521285" lon="105.972926">
<time>2016-10-06T20:04:51Z</time></trkpt>
<trkpt lat="24.521555" lon="105.972956">
<time>2016-10-06T20:04:52Z</time></trkpt>
<trkpt lat="24.521824" lon="105.973016">
<time>2016-10-06T20:04:53Z</time></trkpt>
<trkpt lat="24.522254" lon="105.973086">
<time>2016-10-06T20:04:54Z</time></trkpt>
<trkpt lat="24.522394" lon="105.973116">
<time>2016-10-06T20:04:55Z</time></trkpt>
<trkpt lat="24.522404" lon="105.973116">
<time>2016-10-06T20:04:56Z</time></trkpt>
<trkpt lat="24.522514" lon="105.973136">
<time>2016-10-06T20:04:57Z</time></trkpt>
<trkpt lat="24.522694" lon="105.973155">
<time>2016-10-06T20:04:58Z</time></trkpt>
<trkpt lat="24.522784" lon="105.973155">
<time>2016-10-06T20:04:59Z</time></trkpt>
<trkpt lat="24.522874" lon="105.973146">
<time>2016-10-06T20:05:00Z</time></trkpt>
<trkpt lat="24.523685" lon="105.973036">
<time>2016-10-06T20:05:01Z</time></trkpt>
<trkpt lat="24.523845" lon="105.973006">
<time>2016-10-06T20:05:02Z</time></trkpt>
<trkpt lat="24.524005" lon="105.972956">
<time>2016-10-06T20:05:03Z</time></trkpt>
<trkpt lat="24.524946" lon="105.972617">
<time>2016-10-06T20:05:04Z</time></trkpt>
<trkpt lat="24.525086" lon="105.972547">
<time>2016-10-06T20:05:05Z</time></trkpt>
<trkpt lat="24.525216" lon="105.972458">
<time>2016-10-06T20:05:06Z</time></trkpt>
<trkpt lat="24.525307" lon="105.972378">
<time>2016-10-06T20:05:07Z</time></trkpt>
<trkpt lat="24.525999" lon="105.97159">
<time>2016-10-06T20:05:08Z</time></trkpt>
<trkpt lat="24.526079" lon="105.971491">
<time>2016-10-06T20:05:09Z</time></trkpt>
<trkpt lat="24.526119" lon="105.971411">
<time>2016-10-06T20:05:10Z</time></trkpt>
<trkpt lat="24.52616" lon="105.971331">
<time>2016-10-06T20:05:11Z</time></trkpt>
<trkpt lat="24.52619" lon="105.971232">
<time>2016-10-06T20:05:12Z</time></trkpt>
<trkpt lat="24.526241" lon="105.971002">
<time>2016-10-06T20:05:13Z</time></trkpt>
<trkpt lat="24.526362" lon="105.970484">
<time>2016-10-06T20:05:14Z</time></trkpt>
<trkpt lat="24.526392" lon="105.970364">
<time>2016-10-06T20:05:15Z</time></trkpt>
<trkpt lat="24.526453" lon="105.970215">
<time>2016-10-06T20:05:16Z</time></trkpt>
<trkpt lat="24.526533" lon="105.970045">
<time>2016-10-06T20:05:17Z</time></trkpt>
<trkpt lat="24.526684" lon="105.969806">
<time>2016-10-06T20:05:18Z</time></trkpt>
<trkpt lat="24.526945" lon="105.969367">
<time>2016-10-06T20:05:19Z</time></trkpt>
<trkpt lat="24.526995" lon="105.969298">
<time>2016-10-06T20:05:20Z</time></trkpt>
<trkpt lat="24.527046" lon="105.969238">
<time>2016-10-06T20:05:21Z</time></trkpt>
<trkpt lat="24.527116" lon="105.969178">
<time>2016-10-06T20:05:22Z</time></trkpt>
<trkpt lat="24.527196" lon="105.969118">
<time>2016-10-06T20:05:23Z</time></trkpt>
<trkpt lat="24.527326" lon="105.969019">
<time>2016-10-06T20:05:24Z</time></trkpt>
<trkpt lat="24.527567" lon="105.968879">
<time>2016-10-06T20:05:25Z</time></trkpt>
<trkpt lat="24.527697" lon="105.968809">
<time>2016-10-06T20:05:26Z</time></trkpt>
<trkpt lat="24.527757" lon="105.968769">
<time>2016-10-06T20:05:27Z</time></trkpt>
<trkpt lat="24.527797" lon="105.968739">
<time>2016-10-06T20:05:28Z</time></trkpt>
<trkpt lat="24.527837" lon="105.9687">
<time>2016-10-06T20:05:29Z</time></trkpt>
<trkpt lat="24.527877" lon="105.96865">
<time>2016-10-06T20:05:30Z</time></trkpt>
<trkpt lat="24.527907" lon="105.96859">
<time>2016-10-06T20:05:31Z</time></trkpt>
<trkpt lat="24.527948" lon="105.96853">
<time>2016-10-06T20:05:32Z</time></trkpt>
<trkpt lat="24.528078" lon="105.968241">
<time>2016-10-06T20:05:33Z</time></trkpt>
<trkpt lat="24.52833" lon="105.967543">
<time>2016-10-06T20:05:34Z</time></trkpt>
<trkpt lat="24.528371" lon="105.967384">
<time>2016-10-06T20:05:35Z</time></trkpt>
<trkpt lat="24.528391" lon="105.967274">
<time>2016-10-06T20:05:36Z</time></trkpt>
<trkpt lat="24.528391" lon="105.967164">
<time>2016-10-06T20:05:37Z</time></trkpt>
<trkpt lat="24.528382" lon="105.967055">
<time>2016-10-06T20:05:38Z</time></trkpt>
<trkpt lat="24.528352" lon="105.966945">
<time>2016-10-06T20:05:39Z</time></trkpt>
<trkpt lat="24.528312" lon="105.966845">
<time>2016-10-06T20:05:40Z</time></trkpt>
<trkpt lat="24.528262" lon="105.966756">
<time>2016-10-06T20:05:41Z</time></trkpt>
<trkpt lat="24.528063" lon="105.966387">
<time>2016-10-06T20:05:42Z</time></trkpt>
<trkpt lat="24.528004" lon="105.966247">
<time>2016-10-06T20:05:43Z</time></trkpt>
<trkpt lat="24.527944" lon="105.966058">
<time>2016-10-06T20:05:44Z</time></trkpt>
<trkpt lat="24.527945" lon="105.965978">
<time>2016-10-06T20:05:45Z</time></trkpt>
<trkpt lat="24.527955" lon="105.965898">
<time>2016-10-06T20:05:46Z</time></trkpt>
<trkpt lat="24.527965" lon="105.965819">
<time>2016-10-06T20:05:47Z</time></trkpt>
<trkpt lat="24.528005" lon="105.965739">
<time>2016-10-06T20:05:48Z</time></trkpt>
<trkpt lat="24.528045" lon="105.965679">
<time>2016-10-06T20:05:49Z</time></trkpt>
<trkpt lat="24.528095" lon="105.965619">
<time>2016-10-06T20:05:50Z</time></trkpt>
<trkpt lat="24.528547" lon="105.965161">
<time>2016-10-06T20:05:51Z</time></trkpt>
<trkpt lat="24.528818" lon="105.964871">
<time>2016-10-06T20:05:52Z</time></trkpt>
<trkpt lat="24.529721" lon="105.963755">
<time>2016-10-06T20:05:53Z</time></trkpt>
<trkpt lat="24.529791" lon="105.963675">
<time>2016-10-06T20:05:54Z</time></trkpt>
<trkpt lat="24.529851" lon="105.963625">
<time>2016-10-06T20:05:55Z</time></trkpt>
<trkpt lat="24.529901" lon="105.963585">
<time>2016-10-06T20:05:56Z</time></trkpt>
<trkpt lat="24.529991" lon="105.963535">
<time>2016-10-06T20:05:57Z</time></trkpt>
<trkpt lat="24.530051" lon="105.963505">
<time>2016-10-06T20:05:58Z</time></trkpt>
<trkpt lat="24.530111" lon="105.963486">
<time>2016-10-06T20:05:59Z</time></trkpt>
<trkpt lat="24.530171" lon="105.963476">
<time>2016-10-06T20:06:00Z</time></trkpt>
<trkpt lat="24.530221" lon="105.963466">
<time>2016-10-06T20:06:01Z</time></trkpt>
<trkpt lat="24.530331" lon="105.963466">
<time>2016-10-06T20:06:02Z</time></trkpt>
<trkpt lat="24.530401" lon="105.963476">
<time>2016-10-06T20:06:03Z</time></trkpt>
<trkpt lat="24.530461" lon="105.963486">
<time>2016-10-06T20:06:04Z</time></trkpt>
<trkpt lat="24.530611" lon="105.963545">
<time>2016-10-06T20:06:05Z</time></trkpt>
<trkpt lat="24.530901" lon="105.963655">
<time>2016-10-06T20:06:06Z</time></trkpt>
<trkpt lat="24.531061" lon="105.963695">
<time>2016-10-06T20:06:07Z</time></trkpt>
<trkpt lat="24.531141" lon="105.963705">
<time>2016-10-06T20:06:08Z</time></trkpt>
<trkpt lat="24.531231" lon="105.963705">
<time>2016-10-06T20:06:09Z</time></trkpt>
<trkpt lat="24.531331" lon="105.963685">
<time>2016-10-06T20:06:10Z</time></trkpt>
<trkpt lat="24.531391" lon="105.963675">
<time>2016-10-06T20:06:11Z</time></trkpt>
<trkpt lat="24.531461" lon="105.963655">
<time>2016-10-06T20:06:12Z</time></trkpt>
<trkpt lat="24.531511" lon="105.963625">
<time>2016-10-06T20:06:13Z</time></trkpt>
<trkpt lat="24.531591" lon="105.963595">
<time>2016-10-06T20:06:14Z</time></trkpt>
<trkpt lat="24.531671" lon="105.963555">
<time>2016-10-06T20:06:15Z</time></trkpt>
<trkpt lat="24.531762" lon="105.963485">
<time>2016-10-06T20:06:16Z</time></trkpt>
<trkpt lat="24.531912" lon="105.963356">
<time>2016-10-06T20:06:17Z</time></trkpt>
<trkpt lat="24.533165" lon="105.962339">
<time>2016-10-06T20:06:18Z</time></trkpt>
<trkpt lat="24.534658" lon="105.961162">
<time>2016-10-06T20:06:19Z</time></trkpt>
<trkpt lat="24.535009" lon="105.960923">
<time>2016-10-06T20:06:20Z</time></trkpt>
<trkpt lat="24.535169" lon="105.960763">
<time>2016-10-06T20:06:21Z</time></trkpt>
<trkpt lat="24.53533" lon="105.960514">
<time>2016-10-06T20:06:22Z</time></trkpt>
<trkpt lat="24.535561" lon="105.960105">
<time>2016-10-06T20:06:23Z</time></trkpt>
<trkpt lat="24.535752" lon="105.959687">
<time>2016-10-06T20:06:24Z</time></trkpt>
<trkpt lat="24.535963" lon="105.959158">
<time>2016-10-06T20:06:25Z</time></trkpt>
<trkpt lat="24.536316" lon="105.958091">
<time>2016-10-06T20:06:26Z</time></trkpt>
<trkpt lat="24.536386" lon="105.957922">
<time>2016-10-06T20:06:27Z</time></trkpt>
<trkpt lat="24.536467" lon="105.957732">
<time>2016-10-06T20:06:28Z</time></trkpt>
<trkpt lat="24.536577" lon="105.957573">
<time>2016-10-06T20:06:29Z</time></trkpt>
<trkpt lat="24.536687" lon="105.957453">
<time>2016-10-06T20:06:30Z</time></trkpt>
<trkpt lat="24.536818" lon="105.957343">
<time>2016-10-06T20:06:31Z</time></trkpt>
<trkpt lat="24.536988" lon="105.957234">
<time>2016-10-06T20:06:32Z</time></trkpt>
<trkpt lat="24.537429" lon="105.956974">
<time>2016-10-06T20:06:33Z</time></trkpt>
<trkpt lat="24.537629" lon="105.956825">
<time>2016-10-06T20:06:34Z</time></trkpt>
<trkpt lat="24.537829" lon="105.956625">
<time>2016-10-06T20:06:35Z</time></trkpt>
<trkpt lat="24.538942" lon="105.955468">
<time>2016-10-06T20:06:36Z</time></trkpt>
<trkpt lat="24.539143" lon="105.955259">
<time>2016-10-06T20:06:37Z</time></trkpt>
<trkpt lat="24.539424" lon="105.9549">
<time>2016-10-06T20:06:38Z</time></trkpt>
<trkpt lat="24.539865" lon="105.954331">
<time>2016-10-06T20:06:39Z</time></trkpt>
<trkpt lat="24.540056" lon="105.954092">
<time>2016-10-06T20:06:40Z</time></trkpt>
<trkpt lat="24.540216" lon="105.953913">
<time>2016-10-06T20:06:41Z</time></trkpt>
<trkpt lat="24.540437" lon="105.953703">
<time>2016-10-06T20:06:42Z</time></trkpt>
<trkpt lat="24.542551" lon="105.951718">
<time>2016-10-06T20:06:43Z</time></trkpt>
<trkpt lat="24.542742" lon="105.951519">
<time>2016-10-06T20:06:44Z</time></trkpt>
<trkpt lat="24.542952" lon="105.951299">
<time>2016-10-06T20:06:45Z</time></trkpt>
<trkpt lat="24.543083" lon="105.95114">
<time>2016-10-06T20:06:46Z</time></trkpt>
<trkpt lat="24.543313" lon="105.950841">
<time>2016-10-06T20:06:47Z</time></trkpt>
<trkpt lat="24.544868" lon="105.948676">
<time>2016-10-06T20:06:48Z</time></trkpt>
<trkpt lat="24.545099" lon="105.948357">
<time>2016-10-06T20:06:49Z</time></trkpt>
<trkpt lat="24.54538" lon="105.948048">
<time>2016-10-06T20:06:50Z</time></trkpt>
<trkpt lat="24.54571" lon="105.947718">
<time>2016-10-06T20:06:51Z</time></trkpt>
<trkpt lat="24.546703" lon="105.946581">
<time>2016-10-06T20:06:52Z</time></trkpt>
<trkpt lat="24.546893" lon="105.946392">
<time>2016-10-06T20:06:53Z</time></trkpt>
<trkpt lat="24.547094" lon="105.946222">
<time>2016-10-06T20:06:54Z</time></trkpt>
<trkpt lat="24.547364" lon="105.945953">
<time>2016-10-06T20:06:55Z</time></trkpt>
<trkpt lat="24.547565" lon="105.945803">
<time>2016-10-06T20:06:56Z</time></trkpt>
<trkpt lat="24.547755" lon="105.945693">
<time>2016-10-06T20:06:57Z</time></trkpt>
<trkpt lat="24.547925" lon="105.945614">
<time>2016-10-06T20:06:58Z</time></trkpt>
<trkpt lat="24.548075" lon="105.945554">
<time>2016-10-06T20:06:59Z</time></trkpt>
<trkpt lat="24.548265" lon="105.945494">
<time>2016-10-06T20:07:00Z</time></trkpt>
<trkpt lat="24.548455" lon="105.945464">
<time>2016-10-06T20:07:01Z</time></trkpt>
<trkpt lat="24.548495" lon="105.945464">
<time>2016-10-06T20:07:02Z</time></trkpt>
<trkpt lat="24.548625" lon="105.945434">
<time>2016-10-06T20:07:03Z</time></trkpt>
<trkpt lat="24.548775" lon="105.945414">
<time>2016-10-06T20:07:04Z</time></trkpt>
<trkpt lat="24.548906" lon="105.945364">
<time>2016-10-06T20:07:05Z</time></trkpt>
<trkpt lat="24.549036" lon="105.945294">
<time>2016-10-06T20:07:06Z</time></trkpt>
<trkpt lat="24.549216" lon="105.945185">
<time>2016-10-06T20:07:07Z</time></trkpt>
<trkpt lat="24.549737" lon="105.944825">
<time>2016-10-06T20:07:08Z</time></trkpt>
<trkpt lat="24.550127" lon="105.944576">
<time>2016-10-06T20:07:09Z</time></trkpt>
<trkpt lat="24.550368" lon="105.944416">
<time>2016-10-06T20:07:10Z</time></trkpt>
<trkpt lat="24.550508" lon="105.944277">
<time>2016-10-06T20:07:11Z</time></trkpt>
<trkpt lat="24.550648" lon="105.944097">
<time>2016-10-06T20:07:12Z</time></trkpt>
<trkpt lat="24.55116" lon="105.943389">
<time>2016-10-06T20:07:13Z</time></trkpt>
<trkpt lat="24.551461" lon="105.943009">
<time>2016-10-06T20:07:14Z</time></trkpt>
<trkpt lat="24.551581" lon="105.94287">
<time>2016-10-06T20:07:15Z</time></trkpt>
<trkpt lat="24.551721" lon="105.94272">
<time>2016-10-06T20:07:16Z</time></trkpt>
<trkpt lat="24.552522" lon="105.942111">
<time>2016-10-06T20:07:17Z</time></trkpt>
<trkpt lat="24.552683" lon="105.941992">
<time>2016-10-06T20:07:18Z</time></trkpt>
<trkpt lat="24.552823" lon="105.941862">
<time>2016-10-06T20:07:19Z</time></trkpt>
<trkpt lat="24.552933" lon="105.941742">
<time>2016-10-06T20:07:20Z</time></trkpt>
<trkpt lat="24.553023" lon="105.941633">
<time>2016-10-06T20:07:21Z</time></trkpt>
<trkpt lat="24.553344" lon="105.941124">
<time>2016-10-06T20:07:22Z</time></trkpt>
<trkpt lat="24.554517" lon="105.939577">
<time>2016-10-06T20:07:23Z</time></trkpt>
<trkpt lat="24.554748" lon="105.939328">
<time>2016-10-06T20:07:24Z</time></trkpt>
<trkpt lat="24.554898" lon="105.939168">
<time>2016-10-06T20:07:25Z</time></trkpt>
<trkpt lat="24.555018" lon="105.939058">
<time>2016-10-06T20:07:26Z</time></trkpt>
<trkpt lat="24.555158" lon="105.938958">
<time>2016-10-06T20:07:27Z</time></trkpt>
<trkpt lat="24.555279" lon="105.938878">
<time>2016-10-06T20:07:28Z</time></trkpt>
<trkpt lat="24.555769" lon="105.938579">
<time>2016-10-06T20:07:29Z</time></trkpt>
<trkpt lat="24.555919" lon="105.938469">
<time>2016-10-06T20:07:30Z</time></trkpt>
<trkpt lat="24.55604" lon="105.93834">
<time>2016-10-06T20:07:31Z</time></trkpt>
<trkpt lat="24.55612" lon="105.93824">
<time>2016-10-06T20:07:32Z</time></trkpt>
<trkpt lat="24.55619" lon="105.93809">
<time>2016-10-06T20:07:33Z</time></trkpt>
<trkpt lat="24.55625" lon="105.937881">
<time>2016-10-06T20:07:34Z</time></trkpt>
<trkpt lat="24.556331" lon="105.937561">
<time>2016-10-06T20:07:35Z</time></trkpt>
<trkpt lat="24.556361" lon="105.937362">
<time>2016-10-06T20:07:36Z</time></trkpt>
<trkpt lat="24.556402" lon="105.937152">
<time>2016-10-06T20:07:37Z</time></trkpt>
<trkpt lat="24.556402" lon="105.937132">
<time>2016-10-06T20:07:38Z</time></trkpt>
<trkpt lat="24.556452" lon="105.936893">
<time>2016-10-06T20:07:39Z</time></trkpt>
<trkpt lat="24.556502" lon="105.936743">
<time>2016-10-06T20:07:40Z</time></trkpt>
<trkpt lat="24.556563" lon="105.936613">
<time>2016-10-06T20:07:41Z</time></trkpt>
<trkpt lat="24.556653" lon="105.936453">
<time>2016-10-06T20:07:42Z</time></trkpt>
<trkpt lat="24.556783" lon="105.936304">
<time>2016-10-06T20:07:43Z</time></trkpt>
<trkpt lat="24.556883" lon="105.936194">
<time>2016-10-06T20:07:44Z</time></trkpt>
<trkpt lat="24.557054" lon="105.936064">
<time>2016-10-06T20:07:45Z</time></trkpt>
<trkpt lat="24.557284" lon="105.935924">
<time>2016-10-06T20:07:46Z</time></trkpt>
<trkpt lat="24.557614" lon="105.935785">
<time>2016-10-06T20:07:47Z</time></trkpt>
<trkpt lat="24.558425" lon="105.935445">
<time>2016-10-06T20:07:48Z</time></trkpt>
<trkpt lat="24.558605" lon="105.935356">
<time>2016-10-06T20:07:49Z</time></trkpt>
<trkpt lat="24.558745" lon="105.935276">
<time>2016-10-06T20:07:50Z</time></trkpt>
<trkpt lat="24.558855" lon="105.935176">
<time>2016-10-06T20:07:51Z</time></trkpt>
<trkpt lat="24.558975" lon="105.935046">
<time>2016-10-06T20:07:52Z</time></trkpt>
<trkpt lat="24.559266" lon="105.934617">
<time>2016-10-06T20:07:53Z</time></trkpt>
<trkpt lat="24.559727" lon="105.933918">
<time>2016-10-06T20:07:54Z</time></trkpt>
<trkpt lat="24.560068" lon="105.933479">
<time>2016-10-06T20:07:55Z</time></trkpt>
<trkpt lat="24.560298" lon="105.93321">
<time>2016-10-06T20:07:56Z</time></trkpt>
<trkpt lat="24.560659" lon="105.9328">
<time>2016-10-06T20:07:57Z</time></trkpt>
<trkpt lat="24.560729" lon="105.93272">
<time>2016-10-06T20:07:58Z</time></trkpt>
<trkpt lat="24.56104" lon="105.932361">
<time>2016-10-06T20:07:59Z</time></trkpt>
<trkpt lat="24.56123" lon="105.932152">
<time>2016-10-06T20:08:00Z</time></trkpt>
<trkpt lat="24.56137" lon="105.932022">
<time>2016-10-06T20:08:01Z</time></trkpt>
<trkpt lat="24.562101" lon="105.931413">
<time>2016-10-06T20:08:02Z</time></trkpt>
<trkpt lat="24.562282" lon="105.931263">
<time>2016-10-06T20:08:03Z</time></trkpt>
<trkpt lat="24.562412" lon="105.931143">
<time>2016-10-06T20:08:04Z</time></trkpt>
<trkpt lat="24.562522" lon="105.931013">
<time>2016-10-06T20:08:05Z</time></trkpt>
<trkpt lat="24.562642" lon="105.930864">
<time>2016-10-06T20:08:06Z</time></trkpt>
<trkpt lat="24.563314" lon="105.929925">
<time>2016-10-06T20:08:07Z</time></trkpt>
<trkpt lat="24.563464" lon="105.929656">
<time>2016-10-06T20:08:08Z</time></trkpt>
<trkpt lat="24.563634" lon="105.929286">
<time>2016-10-06T20:08:09Z</time></trkpt>
<trkpt lat="24.563735" lon="105.929137">
<time>2016-10-06T20:08:10Z</time></trkpt>
<trkpt lat="24.563825" lon="105.929007">
<time>2016-10-06T20:08:11Z</time></trkpt>
<trkpt lat="24.563925" lon="105.928897">
<time>2016-10-06T20:08:12Z</time></trkpt>
<trkpt lat="24.564035" lon="105.928807">
<time>2016-10-06T20:08:13Z</time></trkpt>
<trkpt lat="24.564185" lon="105.928727">
<time>2016-10-06T20:08:14Z</time></trkpt>
<trkpt lat="24.564435" lon="105.928628">
<time>2016-10-06T20:08:15Z</time></trkpt>
<trkpt lat="24.564676" lon="105.928538">
<time>2016-10-06T20:08:16Z</time></trkpt>
<trkpt lat="24.564876" lon="105.928468">
<time>2016-10-06T20:08:17Z</time></trkpt>
<trkpt lat="24.565016" lon="105.928398">
<time>2016-10-06T20:08:18Z</time></trkpt>
<trkpt lat="24.565146" lon="105.928308">
<time>2016-10-06T20:08:19Z</time></trkpt>
<trkpt lat="24.565266" lon="105.928188">
<time>2016-10-06T20:08:20Z</time></trkpt>
<trkpt lat="24.565346" lon="105.928048">
<time>2016-10-06T20:08:21Z</time></trkpt>
<trkpt lat="24.565437" lon="105.927839">
<time>2016-10-06T20:08:22Z</time></trkpt>
<trkpt lat="24.565647" lon="105.92719">
<time>2016-10-06T20:08:23Z</time></trkpt>
<trkpt lat="24.565758" lon="105.92698">
<time>2016-10-06T20:08:24Z</time></trkpt>
<trkpt lat="24.565868" lon="105.9268">
<time>2016-10-06T20:08:25Z</time></trkpt>
<trkpt lat="24.566028" lon="105.926621">
<time>2016-10-06T20:08:26Z</time></trkpt>
<trkpt lat="24.566218" lon="105.926401">
<time>2016-10-06T20:08:27Z</time></trkpt>
<trkpt lat="24.56743" lon="105.925213">
<time>2016-10-06T20:08:28Z</time></trkpt>
<trkpt lat="24.568571" lon="105.924164">
<time>2016-10-06T20:08:29Z</time></trkpt>
<trkpt lat="24.568792" lon="105.924005">
<time>2016-10-06T20:08:30Z</time></trkpt>
<trkpt lat="24.568972" lon="105.923875">
<time>2016-10-06T20:08:31Z</time></trkpt>
<trkpt lat="24.569122" lon="105.923755">
<time>2016-10-06T20:08:32Z</time></trkpt>
<trkpt lat="24.569252" lon="105.923625">
<time>2016-10-06T20:08:33Z</time></trkpt>
<trkpt lat="24.569422" lon="105.923335">
<time>2016-10-06T20:08:34Z</time></trkpt>
<trkpt lat="24.570234" lon="105.921778">
<time>2016-10-06T20:08:35Z</time></trkpt>
<trkpt lat="24.570324" lon="105.921578">
<time>2016-10-06T20:08:36Z</time></trkpt>
<trkpt lat="24.570394" lon="105.921398">
<time>2016-10-06T20:08:37Z</time></trkpt>
<trkpt lat="24.570605" lon="105.920719">
<time>2016-10-06T20:08:38Z</time></trkpt>
<trkpt lat="24.570655" lon="105.920599">
<time>2016-10-06T20:08:39Z</time></trkpt>
<trkpt lat="24.570705" lon="105.920499">
<time>2016-10-06T20:08:40Z</time></trkpt>
<trkpt lat="24.570756" lon="105.920399">
<time>2016-10-06T20:08:41Z</time></trkpt>
<trkpt lat="24.570836" lon="105.920299">
<time>2016-10-06T20:08:42Z</time></trkpt>
<trkpt lat="24.570916" lon="105.92021">
<time>2016-10-06T20:08:43Z</time></trkpt>
<trkpt lat="24.570996" lon="105.92014">
<time>2016-10-06T20:08:44Z</time></trkpt>
<trkpt lat="24.571226" lon="105.91998">
<time>2016-10-06T20:08:45Z</time></trkpt>
<trkpt lat="24.571346" lon="105.91989">
<time>2016-10-06T20:08:46Z</time></trkpt>
<trkpt lat="24.571446" lon="105.91981">
<time>2016-10-06T20:08:47Z</time></trkpt>
<trkpt lat="24.571526" lon="105.91974">
<time>2016-10-06T20:08:48Z</time></trkpt>
<trkpt lat="24.571616" lon="105.91965">
<time>2016-10-06T20:08:49Z</time></trkpt>
<trkpt lat="24.571696" lon="105.91955">
<time>2016-10-06T20:08:50Z</time></trkpt>
<trkpt lat="24.571847" lon="105.919341">
<time>2016-10-06T20:08:51Z</time></trkpt>
<trkpt lat="24.572377" lon="105.918581">
<time>2016-10-06T20:08:52Z</time></trkpt>
<trkpt lat="24.572608" lon="105.918282">
<time>2016-10-06T20:08:53Z</time></trkpt>
<trkpt lat="24.572708" lon="105.918162">
<time>2016-10-06T20:08:54Z</time></trkpt>
<trkpt lat="24.572858" lon="105.918012">
<time>2016-10-06T20:08:55Z</time></trkpt>
<trkpt lat="24.573348" lon="105.917593">
<time>2016-10-06T20:08:56Z</time></trkpt>
<trkpt lat="24.574019" lon="105.917043">
<time>2016-10-06T20:08:57Z</time></trkpt>
<trkpt lat="24.574949" lon="105.916414">
<time>2016-10-06T20:08:58Z</time></trkpt>
<trkpt lat="24.57519" lon="105.916244">
<time>2016-10-06T20:08:59Z</time></trkpt>
<trkpt lat="24.57535" lon="105.916144">
<time>2016-10-06T20:09:00Z</time></trkpt>
<trkpt lat="24.57553" lon="105.915994">
<time>2016-10-06T20:09:01Z</time></trkpt>
<trkpt lat="24.577011" lon="105.914596">
<time>2016-10-06T20:09:02Z</time></trkpt>
<trkpt lat="24.577411" lon="105.914176">
<time>2016-10-06T20:09:03Z</time></trkpt>
<trkpt lat="24.577692" lon="105.913816">
<time>2016-10-06T20:09:04Z</time></trkpt>
<trkpt lat="24.577872" lon="105.913627">
<time>2016-10-06T20:09:05Z</time></trkpt>
<trkpt lat="24.577992" lon="105.913527">
<time>2016-10-06T20:09:06Z</time></trkpt>
<trkpt lat="24.578182" lon="105.913407">
<time>2016-10-06T20:09:07Z</time></trkpt>
<trkpt lat="24.578332" lon="105.913347">
<time>2016-10-06T20:09:08Z</time></trkpt>
<trkpt lat="24.578472" lon="105.913297">
<time>2016-10-06T20:09:09Z</time></trkpt>
<trkpt lat="24.578602" lon="105.913277">
<time>2016-10-06T20:09:10Z</time></trkpt>
<trkpt lat="24.578712" lon="105.913267">
<time>2016-10-06T20:09:11Z</time></trkpt>
<trkpt lat="24.578822" lon="105.913277">
<time>2016-10-06T20:09:12Z</time></trkpt>
<trkpt lat="24.578942" lon="105.913307">
<time>2016-10-06T20:09:13Z</time></trkpt>
<trkpt lat="24.579092" lon="105.913347">
<time>2016-10-06T20:09:14Z</time></trkpt>
<trkpt lat="24.579252" lon="105.913407">
<time>2016-10-06T20:09:15Z</time></trkpt>
<trkpt lat="24.579372" lon="105.913457">
<time>2016-10-06T20:09:16Z</time></trkpt>
<trkpt lat="24.579462" lon="105.913517">
<time>2016-10-06T20:09:17Z</time></trkpt>
<trkpt lat="24.579542" lon="105.913576">
<time>2016-10-06T20:09:18Z</time></trkpt>
<trkpt lat="24.579622" lon="105.913646">
<time>2016-10-06T20:09:19Z</time></trkpt>
<trkpt lat="24.579682" lon="105.913746">
<time>2016-10-06T20:09:20Z</time></trkpt>
<trkpt lat="24.579732" lon="105.913836">
<time>2016-10-06T20:09:21Z</time></trkpt>
<trkpt lat="24.579762" lon="105.913966">
<time>2016-10-06T20:09:22Z</time></trkpt>
<trkpt lat="24.579772" lon="105.914056">
<time>2016-10-06T20:09:23Z</time></trkpt>
<trkpt lat="24.579791" lon="105.914226">
<time>2016-10-06T20:09:24Z</time></trkpt>
<trkpt lat="24.579801" lon="105.914356">
<time>2016-10-06T20:09:25Z</time></trkpt>
<trkpt lat="24.579841" lon="105.914466">
<time>2016-10-06T20:09:26Z</time></trkpt>
<trkpt lat="24.579871" lon="105.914536">
<time>2016-10-06T20:09:27Z</time></trkpt>
<trkpt lat="24.579911" lon="105.914595">
<time>2016-10-06T20:09:28Z</time></trkpt>
<trkpt lat="24.579971" lon="105.914665">
<time>2016-10-06T20:09:29Z</time></trkpt>
<trkpt lat="24.580031" lon="105.914715">
<time>2016-10-06T20:09:30Z</time></trkpt>
<trkpt lat="24.580091" lon="105.914765">
<time>2016-10-06T20:09:31Z</time></trkpt>
<trkpt lat="24.580161" lon="105.914805">
<time>2016-10-06T20:09:32Z</time></trkpt>
<trkpt lat="24.580221" lon="105.914825">
<time>2016-10-06T20:09:33Z</time></trkpt>
<trkpt lat="24.580281" lon="105.914845">
<time>2016-10-06T20:09:34Z</time></trkpt>
<trkpt lat="24.580341" lon="105.914855">
<time>2016-10-06T20:09:35Z</time></trkpt>
<trkpt lat="24.580391" lon="105.914855">
<time>2016-10-06T20:09:36Z</time></trkpt>
<trkpt lat="24.580781" lon="105.914785">
<time>2016-10-06T20:09:37Z</time></trkpt>
<trkpt lat="24.580901" lon="105.914775">
<time>2016-10-06T20:09:38Z</time></trkpt>
<trkpt lat="24.581021" lon="105.914765">
<time>2016-10-06T20:09:39Z</time></trkpt>
<trkpt lat="24.581121" lon="105.914765">
<time>2016-10-06T20:09:40Z</time></trkpt>
<trkpt lat="24.581211" lon="105.914775">
<time>2016-10-06T20:09:41Z</time></trkpt>
<trkpt lat="24.581311" lon="105.914795">
<time>2016-10-06T20:09:42Z</time></trkpt>
<trkpt lat="24.582121" lon="105.914995">
<time>2016-10-06T20:09:43Z</time></trkpt>
<trkpt lat="24.582431" lon="105.915075">
<time>2016-10-06T20:09:44Z</time></trkpt>
<trkpt lat="24.582571" lon="105.915095">
<time>2016-10-06T20:09:45Z</time></trkpt>
<trkpt lat="24.582671" lon="105.915105">
<time>2016-10-06T20:09:46Z</time></trkpt>
<trkpt lat="24.582751" lon="105.915105">
<time>2016-10-06T20:09:47Z</time></trkpt>
<trkpt lat="24.582851" lon="105.915085">
<time>2016-10-06T20:09:48Z</time></trkpt>
<trkpt lat="24.582931" lon="105.915065">
<time>2016-10-06T20:09:49Z</time></trkpt>
<trkpt lat="24.583021" lon="105.915015">
<time>2016-10-06T20:09:50Z</time></trkpt>
<trkpt lat="24.583211" lon="105.914905">
<time>2016-10-06T20:09:51Z</time></trkpt>
<trkpt lat="24.583331" lon="105.914825">
<time>2016-10-06T20:09:52Z</time></trkpt>
<trkpt lat="24.583842" lon="105.914435">
<time>2016-10-06T20:09:53Z</time></trkpt>
<trkpt lat="24.583942" lon="105.914366">
<time>2016-10-06T20:09:54Z</time></trkpt>
<trkpt lat="24.584022" lon="105.914306">
<time>2016-10-06T20:09:55Z</time></trkpt>
<trkpt lat="24.584162" lon="105.914236">
<time>2016-10-06T20:09:56Z</time></trkpt>
<trkpt lat="24.584302" lon="105.914186">
<time>2016-10-06T20:09:57Z</time></trkpt>
<trkpt lat="24.584452" lon="105.914136">
<time>2016-10-06T20:09:58Z</time></trkpt>
<trkpt lat="24.584942" lon="105.914046">
<time>2016-10-06T20:09:59Z</time></trkpt>
<trkpt lat="24.585132" lon="105.914006">
<time>2016-10-06T20:10:00Z</time></trkpt>
<trkpt lat="24.585462" lon="105.913946">
<time>2016-10-06T20:10:01Z</time></trkpt>
<trkpt lat="24.585592" lon="105.913916">
<time>2016-10-06T20:10:02Z</time></trkpt>
<trkpt lat="24.585712" lon="105.913866">
<time>2016-10-06T20:10:03Z</time></trkpt>
<trkpt lat="24.585842" lon="105.913806">
<time>2016-10-06T20:10:04Z</time></trkpt>
<trkpt lat="24.585942" lon="105.913746">
<time>2016-10-06T20:10:05Z</time></trkpt>
<trkpt lat="24.586052" lon="105.913666">
<time>2016-10-06T20:10:06Z</time></trkpt>
<trkpt lat="24.586162" lon="105.913556">
<time>2016-10-06T20:10:07Z</time></trkpt>
<trkpt lat="24.586793" lon="105.912917">
<time>2016-10-06T20:10:08Z</time></trkpt>
<trkpt lat="24.587393" lon="105.912307">
<time>2016-10-06T20:10:09Z</time></trkpt>
<trkpt lat="24.587724" lon="105.911958">
<time>2016-10-06T20:10:10Z</time></trkpt>
<trkpt lat="24.588274" lon="105.911398">
<time>2016-10-06T20:10:11Z</time></trkpt>
<trkpt lat="24.588354" lon="105.911318">
<time>2016-10-06T20:10:12Z</time></trkpt>
<trkpt lat="24.588424" lon="105.911228">
<time>2016-10-06T20:10:13Z</time></trkpt>
<trkpt lat="24.588484" lon="105.911118">
<time>2016-10-06T20:10:14Z</time></trkpt>
<trkpt lat="24.588544" lon="105.911008">
<time>2016-10-06T20:10:15Z</time></trkpt>
<trkpt lat="24.588604" lon="105.910838">
<time>2016-10-06T20:10:16Z</time></trkpt>
<trkpt lat="24.588694" lon="105.910599">
<time>2016-10-06T20:10:17Z</time></trkpt>
<trkpt lat="24.588764" lon="105.910479">
<time>2016-10-06T20:10:18Z</time></trkpt>
<trkpt lat="24.588844" lon="105.910369">
<time>2016-10-06T20:10:19Z</time></trkpt>
<trkpt lat="24.588945" lon="105.910269">
<time>2016-10-06T20:10:20Z</time></trkpt>
<trkpt lat="24.589085" lon="105.910169">
<time>2016-10-06T20:10:21Z</time></trkpt>
<trkpt lat="24.589375" lon="105.909969">
<time>2016-10-06T20:10:22Z</time></trkpt>
<trkpt lat="24.589535" lon="105.909839">
<time>2016-10-06T20:10:23Z</time></trkpt>
<trkpt lat="24.589665" lon="105.909709">
<time>2016-10-06T20:10:24Z</time></trkpt>
<trkpt lat="24.589785" lon="105.909569">
<time>2016-10-06T20:10:25Z</time></trkpt>
<trkpt lat="24.590015" lon="105.90926">
<time>2016-10-06T20:10:26Z</time></trkpt>
<trkpt lat="24.590145" lon="105.90906">
<time>2016-10-06T20:10:27Z</time></trkpt>
<trkpt lat="24.590285" lon="105.90888">
<time>2016-10-06T20:10:28Z</time></trkpt>
<trkpt lat="24.590385" lon="105.90874">
<time>2016-10-06T20:10:29Z</time></trkpt>
<trkpt lat="24.590465" lon="105.90865">
<time>2016-10-06T20:10:30Z</time></trkpt>
<trkpt lat="24.590545" lon="105.90856">
<time>2016-10-06T20:10:31Z</time></trkpt>
<trkpt lat="24.590646" lon="105.90846">
<time>2016-10-06T20:10:32Z</time></trkpt>
<trkpt lat="24.590776" lon="105.90835">
<time>2016-10-06T20:10:33Z</time></trkpt>
<trkpt lat="24.591406" lon="105.90789">
<time>2016-10-06T20:10:34Z</time></trkpt>
<trkpt lat="24.591526" lon="105.907791">
<time>2016-10-06T20:10:35Z</time></trkpt>
<trkpt lat="24.591636" lon="105.907691">
<time>2016-10-06T20:10:36Z</time></trkpt>
<trkpt lat="24.591716" lon="105.907581">
<time>2016-10-06T20:10:37Z</time></trkpt>
<trkpt lat="24.591786" lon="105.907491">
<time>2016-10-06T20:10:38Z</time></trkpt>
<trkpt lat="24.591846" lon="105.907361">
<time>2016-10-06T20:10:39Z</time></trkpt>
<trkpt lat="24.591886" lon="105.907221">
<time>2016-10-06T20:10:40Z</time></trkpt>
<trkpt lat="24.591926" lon="105.907021">
<time>2016-10-06T20:10:41Z</time></trkpt>
<trkpt lat="24.592067" lon="105.905842">
<time>2016-10-06T20:10:42Z</time></trkpt>
<trkpt lat="24.592117" lon="105.905462">
<time>2016-10-06T20:10:43Z</time></trkpt>
<trkpt lat="24.592147" lon="105.905332">
<time>2016-10-06T20:10:44Z</time></trkpt>
<trkpt lat="24.592177" lon="105.905202">
<time>2016-10-06T20:10:45Z</time></trkpt>
<trkpt lat="24.592227" lon="105.905072">
<time>2016-10-06T20:10:46Z</time></trkpt>
<trkpt lat="24.592287" lon="105.904972">
<time>2016-10-06T20:10:47Z</time></trkpt>
<trkpt lat="24.592347" lon="105.904882">
<time>2016-10-06T20:10:48Z</time></trkpt>
<trkpt lat="24.592427" lon="105.904802">
<time>2016-10-06T20:10:49Z</time></trkpt>
<trkpt lat="24.592507" lon="105.904722">
<time>2016-10-06T20:10:50Z</time></trkpt>
<trkpt lat="24.592587" lon="105.904662">
<time>2016-10-06T20:10:51Z</time></trkpt>
<trkpt lat="24.592687" lon="105.904602">
<time>2016-10-06T20:10:52Z</time></trkpt>
<trkpt lat="24.592787" lon="105.904572">
<time>2016-10-06T20:10:53Z</time></trkpt>
<trkpt lat="24.592917" lon="105.904522">
<time>2016-10-06T20:10:54Z</time></trkpt>
<trkpt lat="24.593167" lon="105.904452">
<time>2016-10-06T20:10:55Z</time></trkpt>
<trkpt lat="24.593317" lon="105.904392">
<time>2016-10-06T20:10:56Z</time></trkpt>
<trkpt lat="24.593397" lon="105.904362">
<time>2016-10-06T20:10:57Z</time></trkpt>
<trkpt lat="24.593487" lon="105.904302">
<time>2016-10-06T20:10:58Z</time></trkpt>
<trkpt lat="24.593547" lon="105.904252">
<time>2016-10-06T20:10:59Z</time></trkpt>
<trkpt lat="24.593607" lon="105.904193">
<time>2016-10-06T20:11:00Z</time></trkpt>
<trkpt lat="24.593667" lon="105.904113">
<time>2016-10-06T20:11:01Z</time></trkpt>
<trkpt lat="24.593717" lon="105.904013">
<time>2016-10-06T20:11:02Z</time></trkpt>
<trkpt lat="24.593737" lon="105.903933">
<time>2016-10-06T20:11:03Z</time></trkpt>
<trkpt lat="24.593757" lon="105.903853">
<time>2016-10-06T20:11:04Z</time></trkpt>
<trkpt lat="24.593767" lon="105.903773">
<time>2016-10-06T20:11:05Z</time></trkpt>
<trkpt lat="24.593767" lon="105.903693">
<time>2016-10-06T20:11:06Z</time></trkpt>
<trkpt lat="24.593767" lon="105.903623">
<time>2016-10-06T20:11:07Z</time></trkpt>
<trkpt lat="24.593747" lon="105.903533">
<time>2016-10-06T20:11:08Z</time></trkpt>
<trkpt lat="24.593707" lon="105.903423">
<time>2016-10-06T20:11:09Z</time></trkpt>
<trkpt lat="24.593667" lon="105.903333">
<time>2016-10-06T20:11:10Z</time></trkpt>
<trkpt lat="24.593587" lon="105.903203">
<time>2016-10-06T20:11:11Z</time></trkpt>
<trkpt lat="24.593527" lon="105.903083">
<time>2016-10-06T20:11:12Z</time></trkpt>
<trkpt lat="24.593487" lon="105.902993">
<time>2016-10-06T20:11:13Z</time></trkpt>
<trkpt lat="24.593457" lon="105.902893">
<time>2016-10-06T20:11:14Z</time></trkpt>
<trkpt lat="24.593447" lon="105.902813">
<time>2016-10-06T20:11:15Z</time></trkpt>
<trkpt lat="24.593447" lon="105.902733">
<time>2016-10-06T20:11:16Z</time></trkpt>
<trkpt lat="24.593458" lon="105.902653">
<time>2016-10-06T20:11:17Z</time></trkpt>
<trkpt lat="24.593498" lon="105.902573">
<time>2016-10-06T20:11:18Z</time></trkpt>
<trkpt lat="24.593538" lon="105.902513">
<time>2016-10-06T20:11:19Z</time></trkpt>
<trkpt lat="24.593608" lon="105.902473">
<time>2016-10-06T20:11:20Z</time></trkpt>
<trkpt lat="24.593698" lon="105.902443">
<time>2016-10-06T20:11:21Z</time></trkpt>
<trkpt lat="24.593768" lon="105.902433">
<time>2016-10-06T20:11:22Z</time></trkpt>
<trkpt lat="24.593858" lon="105.902443">
<time>2016-10-06T20:11:23Z</time></trkpt>
<trkpt lat="24.593958" lon="105.902463">
<time>2016-10-06T20:11:24Z</time></trkpt>
<trkpt lat="24.594128" lon="105.902503">
<time>2016-10-06T20:11:25Z</time></trkpt>
<trkpt lat="24.594258" lon="105.902523">
<time>2016-10-06T20:11:26Z</time></trkpt>
<trkpt lat="24.594358" lon="105.902523">
<time>2016-10-06T20:11:27Z</time></trkpt>
<trkpt lat="24.594428" lon="105.902513">
<time>2016-10-06T20:11:28Z</time></trkpt>
<trkpt lat="24.594518" lon="105.902493">
<time>2016-10-06T20:11:29Z</time></trkpt>
<trkpt lat="24.594598" lon="105.902453">
<time>2016-10-06T20:11:30Z</time></trkpt>
<trkpt lat="24.594668" lon="105.902403">
<time>2016-10-06T20:11:31Z</time></trkpt>
<trkpt lat="24.594758" lon="105.902333">
<time>2016-10-06T20:11:32Z</time></trkpt>
<trkpt lat="24.594918" lon="105.902163">
<time>2016-10-06T20:11:33Z</time></trkpt>
<trkpt lat="24.595408" lon="105.901673">
<time>2016-10-06T20:11:34Z</time></trkpt>
<trkpt lat="24.595578" lon="105.901474">
<time>2016-10-06T20:11:35Z</time></trkpt>
<trkpt lat="24.595658" lon="105.901364">
<time>2016-10-06T20:11:36Z</time></trkpt>
<trkpt lat="24.595728" lon="105.901264">
<time>2016-10-06T20:11:37Z</time></trkpt>
<trkpt lat="24.595788" lon="105.901134">
<time>2016-10-06T20:11:38Z</time></trkpt>
<trkpt lat="24.595818" lon="105.901004">
<time>2016-10-06T20:11:39Z</time></trkpt>
<trkpt lat="24.595838" lon="105.900864">
<time>2016-10-06T20:11:40Z</time></trkpt>
<trkpt lat="24.595838" lon="105.900714">
<time>2016-10-06T20:11:41Z</time></trkpt>
<trkpt lat="24.595828" lon="105.900584">
<time>2016-10-06T20:11:42Z</time></trkpt>
<trkpt lat="24.595798" lon="105.900444">
<time>2016-10-06T20:11:43Z</time></trkpt>
<trkpt lat="24.595728" lon="105.900164">
<time>2016-10-06T20:11:44Z</time></trkpt>
<trkpt lat="24.595638" lon="105.899784">
<time>2016-10-06T20:11:45Z</time></trkpt>
<trkpt lat="24.595568" lon="105.899454">
<time>2016-10-06T20:11:46Z</time></trkpt>
<trkpt lat="24.595548" lon="105.899274">
<time>2016-10-06T20:11:47Z</time></trkpt>
<trkpt lat="24.595548" lon="105.899114">
<time>2016-10-06T20:11:48Z</time></trkpt>
<trkpt lat="24.595558" lon="105.898974">
<time>2016-10-06T20:11:49Z</time></trkpt>
<trkpt lat="24.595588" lon="105.898834">
<time>2016-10-06T20:11:50Z</time></trkpt>
<trkpt lat="24.595618" lon="105.898724">
<time>2016-10-06T20:11:51Z</time></trkpt>
<trkpt lat="24.595688" lon="105.898524">
<time>2016-10-06T20:11:52Z</time></trkpt>
<trkpt lat="24.595898" lon="105.898064">
<time>2016-10-06T20:11:53Z</time></trkpt>
<trkpt lat="24.596198" lon="105.897465">
<time>2016-10-06T20:11:54Z</time></trkpt>
<trkpt lat="24.596548" lon="105.896745">
<time>2016-10-06T20:11:55Z</time></trkpt>
<trkpt lat="24.596618" lon="105.896645">
<time>2016-10-06T20:11:56Z</time></trkpt>
<trkpt lat="24.596688" lon="105.896545">
<time>2016-10-06T20:11:57Z</time></trkpt>
<trkpt lat="24.596788" lon="105.896465">
<time>2016-10-06T20:11:58Z</time></trkpt>
<trkpt lat="24.596888" lon="105.896395">
<time>2016-10-06T20:11:59Z</time></trkpt>
<trkpt lat="24.597018" lon="105.896325">
<time>2016-10-06T20:12:00Z</time></trkpt>
<trkpt lat="24.597168" lon="105.896255">
<time>2016-10-06T20:12:01Z</time></trkpt>
<trkpt lat="24.598008" lon="105.895955">
<time>2016-10-06T20:12:02Z</time></trkpt>
<trkpt lat="24.598078" lon="105.895915">
<time>2016-10-06T20:12:03Z</time></trkpt>
<trkpt lat="24.598158" lon="105.895875">
<time>2016-10-06T20:12:04Z</time></trkpt>
<trkpt lat="24.598238" lon="105.895805">
<time>2016-10-06T20:12:05Z</time></trkpt>
<trkpt lat="24.598308" lon="105.895725">
<time>2016-10-06T20:12:06Z</time></trkpt>
<trkpt lat="24.598348" lon="105.895645">
<time>2016-10-06T20:12:07Z</time></trkpt>
<trkpt lat="24.598388" lon="105.895555">
<time>2016-10-06T20:12:08Z</time></trkpt>
<trkpt lat="24.598428" lon="105.895435">
<time>2016-10-06T20:12:09Z</time></trkpt>
<trkpt lat="24.598458" lon="105.895315">
<time>2016-10-06T20:12:10Z</time></trkpt>
<trkpt lat="24.598528" lon="105.894985">
<time>2016-10-06T20:12:11Z</time></trkpt>
<trkpt lat="24.598598" lon="105.894515">
<time>2016-10-06T20:12:12Z</time></trkpt>
<trkpt lat="24.598688" lon="105.893945">
<time>2016-10-06T20:12:13Z</time></trkpt>
<trkpt lat="24.598748" lon="105.893345">
<time>2016-10-06T20:12:14Z</time></trkpt>
<trkpt lat="24.598838" lon="105.892995">
<time>2016-10-06T20:12:15Z</time></trkpt>
<trkpt lat="24.599057" lon="105.892595">
<time>2016-10-06T20:12:16Z</time></trkpt>
<trkpt lat="24.599507" lon="105.891865">
<time>2016-10-06T20:12:17Z</time></trkpt>
<trkpt lat="24.599677" lon="105.891675">
<time>2016-10-06T20:12:18Z</time></trkpt>
<trkpt lat="24.599857" lon="105.891565">
<time>2016-10-06T20:12:19Z</time></trkpt>
<trkpt lat="24.600117" lon="105.891505">
<time>2016-10-06T20:12:20Z</time></trkpt>
<trkpt lat="24.600287" lon="105.891505">
<time>2016-10-06T20:12:21Z</time></trkpt>
<trkpt lat="24.600547" lon="105.891565">
<time>2016-10-06T20:12:22Z</time></trkpt>
<trkpt lat="24.600647" lon="105.891585">
<time>2016-10-06T20:12:23Z</time></trkpt>
<trkpt lat="24.600727" lon="105.891595">
<time>2016-10-06T20:12:24Z</time></trkpt>
<trkpt lat="24.600827" lon="105.891595">
<time>2016-10-06T20:12:25Z</time></trkpt>
<trkpt lat="24.600917" lon="105.891574">
<time>2016-10-06T20:12:26Z</time></trkpt>
<trkpt lat="24.600997" lon="105.891544">
<time>2016-10-06T20:12:27Z</time></trkpt>
<trkpt lat="24.601077" lon="105.891504">
<time>2016-10-06T20:12:28Z</time></trkpt>
<trkpt lat="24.601147" lon="105.891454">
<time>2016-10-06T20:12:29Z</time></trkpt>
<trkpt lat="24.601637" lon="105.891074">
<time>2016-10-06T20:12:30Z</time></trkpt>
<trkpt lat="24.602217" lon="105.890584">
<time>2016-10-06T20:12:31Z</time></trkpt>
<trkpt lat="24.602887" lon="105.890084">
<time>2016-10-06T20:12:32Z</time></trkpt>
<trkpt lat="24.602957" lon="105.890024">
<time>2016-10-06T20:12:33Z</time></trkpt>
<trkpt lat="24.603027" lon="105.889954">
<time>2016-10-06T20:12:34Z</time></trkpt>
<trkpt lat="24.603077" lon="105.889904">
<time>2016-10-06T20:12:35Z</time></trkpt>
<trkpt lat="24.603137" lon="105.889834">
<time>2016-10-06T20:12:36Z</time></trkpt>
<trkpt lat="24.603177" lon="105.889784">
<time>2016-10-06T20:12:37Z</time></trkpt>
<trkpt lat="24.603207" lon="105.889734">
<time>2016-10-06T20:12:38Z</time></trkpt>
<trkpt lat="24.603237" lon="105.889684">
<time>2016-10-06T20:12:39Z</time></trkpt>
<trkpt lat="24.603267" lon="105.889634">
<time>2016-10-06T20:12:40Z</time></trkpt>
<trkpt lat="24.603287" lon="105.889564">
<time>2016-10-06T20:12:41Z</time></trkpt>
<trkpt lat="24.603317" lon="105.889474">
<time>2016-10-06T20:12:42Z</time></trkpt>
<trkpt lat="24.603347" lon="105.889344">
<time>2016-10-06T20:12:43Z</time></trkpt>
<trkpt lat="24.603466" lon="105.888794">
<time>2016-10-06T20:12:44Z</time></trkpt>
<trkpt lat="24.603506" lon="105.888534">
<time>2016-10-06T20:12:45Z</time></trkpt>
<trkpt lat="24.603546" lon="105.888364">
<time>2016-10-06T20:12:46Z</time></trkpt>
<trkpt lat="24.603596" lon="105.888184">
<time>2016-10-06T20:12:47Z</time></trkpt>
<trkpt lat="24.603676" lon="105.888004">
<time>2016-10-06T20:12:48Z</time></trkpt>
<trkpt lat="24.603766" lon="105.887844">
<time>2016-10-06T20:12:49Z</time></trkpt>
<trkpt lat="24.603846" lon="105.887704">
<time>2016-10-06T20:12:50Z</time></trkpt>
<trkpt lat="24.603916" lon="105.887604">
<time>2016-10-06T20:12:51Z</time></trkpt>
<trkpt lat="24.604036" lon="105.887454">
<time>2016-10-06T20:12:52Z</time></trkpt>
<trkpt lat="24.604825" lon="105.886503">
<time>2016-10-06T20:12:53Z</time></trkpt>
<trkpt lat="24.604885" lon="105.886423">
<time>2016-10-06T20:12:54Z</time></trkpt>
<trkpt lat="24.604935" lon="105.886353">
<time>2016-10-06T20:12:55Z</time></trkpt>
<trkpt lat="24.604985" lon="105.886273">
<time>2016-10-06T20:12:56Z</time></trkpt>
<trkpt lat="24.605015" lon="105.886183">
<time>2016-10-06T20:12:57Z</time></trkpt>
<trkpt lat="24.605045" lon="105.886103">
<time>2016-10-06T20:12:58Z</time></trkpt>
<trkpt lat="24.605065" lon="105.886013">
<time>2016-10-06T20:12:59Z</time></trkpt>
<trkpt lat="24.605075" lon="105.885903">
<time>2016-10-06T20:13:00Z</time></trkpt>
<trkpt lat="24.605085" lon="105.885803">
<time>2016-10-06T20:13:01Z</time></trkpt>
<trkpt lat="24.605095" lon="105.885633">
<time>2016-10-06T20:13:02Z</time></trkpt>
<trkpt lat="24.605115" lon="105.885123">
<time>2016-10-06T20:13:03Z</time></trkpt>
<trkpt lat="24.605135" lon="105.884883">
<time>2016-10-06T20:13:04Z</time></trkpt>
<trkpt lat="24.605144" lon="105.884733">
<time>2016-10-06T20:13:05Z</time></trkpt>
<trkpt lat="24.605164" lon="105.884632">
<time>2016-10-06T20:13:06Z</time></trkpt>
<trkpt lat="24.605174" lon="105.884532">
<time>2016-10-06T20:13:07Z</time></trkpt>
<trkpt lat="24.605204" lon="105.884442">
<time>2016-10-06T20:13:08Z</time></trkpt>
<trkpt lat="24.605224" lon="105.884362">
<time>2016-10-06T20:13:09Z</time></trkpt>
<trkpt lat="24.605254" lon="105.884282">
<time>2016-10-06T20:13:10Z</time></trkpt>
<trkpt lat="24.605294" lon="105.884192">
<time>2016-10-06T20:13:11Z</time></trkpt>
<trkpt lat="24.605344" lon="105.884092">
<time>2016-10-06T20:13:12Z</time></trkpt>
<trkpt lat="24.605404" lon="105.884002">
<time>2016-10-06T20:13:13Z</time></trkpt>
<trkpt lat="24.605454" lon="105.883932">
<time>2016-10-06T20:13:14Z</time></trkpt>
<trkpt lat="24.605514" lon="105.883862">
<time>2016-10-06T20:13:15Z</time></trkpt>
<trkpt lat="24.605564" lon="105.883812">
<time>2016-10-06T20:13:16Z</time></trkpt>
<trkpt lat="24.605744" lon="105.883662">
<time>2016-10-06T20:13:17Z</time></trkpt>
<trkpt lat="24.606264" lon="105.883302">
<time>2016-10-06T20:13:18Z</time></trkpt>
<trkpt lat="24.606374" lon="105.883232">
<time>2016-10-06T20:13:19Z</time></trkpt>
<trkpt lat="24.606474" lon="105.883172">
<time>2016-10-06T20:13:20Z</time></trkpt>
<trkpt lat="24.606584" lon="105.883132">
<time>2016-10-06T20:13:21Z</time></trkpt>
<trkpt lat="24.607143" lon="105.882912">
<time>2016-10-06T20:13:22Z</time></trkpt>
<trkpt lat="24.607373" lon="105.882792">
<time>2016-10-06T20:13:23Z</time></trkpt>
<trkpt lat="24.607533" lon="105.882701">
<time>2016-10-06T20:13:24Z</time></trkpt>
<trkpt lat="24.607633" lon="105.882621">
<time>2016-10-06T20:13:25Z</time></trkpt>
<trkpt lat="24.607643" lon="105.882621">
<time>2016-10-06T20:13:26Z</time></trkpt>
<trkpt lat="24.607703" lon="105.882561">
<time>2016-10-06T20:13:27Z</time></trkpt>
<trkpt lat="24.607733" lon="105.882531">
<time>2016-10-06T20:13:28Z</time></trkpt>
<trkpt lat="24.607773" lon="105.882481">
<time>2016-10-06T20:13:29Z</time></trkpt>
<trkpt lat="24.607813" lon="105.882431">
<time>2016-10-06T20:13:30Z</time></trkpt>
<trkpt lat="24.607833" lon="105.882391">
<time>2016-10-06T20:13:31Z</time></trkpt>
<trkpt lat="24.607863" lon="105.882341">
<time>2016-10-06T20:13:32Z</time></trkpt>
<trkpt lat="24.607893" lon="105.882291">
<time>2016-10-06T20:13:33Z</time></trkpt>
<trkpt lat="24.607913" lon="105.882231">
<time>2016-10-06T20:13:34Z</time></trkpt>
<trkpt lat="24.607923" lon="105.882171">
<time>2016-10-06T20:13:35Z</time></trkpt>
<trkpt lat="24.607943" lon="105.882111">
<time>2016-10-06T20:13:36Z</time></trkpt>
<trkpt lat="24.607953" lon="105.882041">
<time>2016-10-06T20:13:37Z</time></trkpt>
<trkpt lat="24.607963" lon="105.881971">
<time>2016-10-06T20:13:38Z</time></trkpt>
<trkpt lat="24.607983" lon="105.881511">
<time>2016-10-06T20:13:39Z</time></trkpt>
<trkpt lat="24.608002" lon="105.881341">
<time>2016-10-06T20:13:40Z</time></trkpt>
<trkpt lat="24.608022" lon="105.881231">
<time>2016-10-06T20:13:41Z</time></trkpt>
<trkpt lat="24.608062" lon="105.881131">
<time>2016-10-06T20:13:42Z</time></trkpt>
<trkpt lat="24.608112" lon="105.881031">
<time>2016-10-06T20:13:43Z</time></trkpt>
<trkpt lat="24.608192" lon="105.880951">
<time>2016-10-06T20:13:44Z</time></trkpt>
<trkpt lat="24.608282" lon="105.88089">
<time>2016-10-06T20:13:45Z</time></trkpt>
<trkpt lat="24.608372" lon="105.88085">
<time>2016-10-06T20:13:46Z</time></trkpt>
<trkpt lat="24.608492" lon="105.88083">
<time>2016-10-06T20:13:47Z</time></trkpt>
<trkpt lat="24.608622" lon="105.88082">
<time>2016-10-06T20:13:48Z</time></trkpt>
<trkpt lat="24.608762" lon="105.88083">
<time>2016-10-06T20:13:49Z</time></trkpt>
<trkpt lat="24.608942" lon="105.88084">
<time>2016-10-06T20:13:50Z</time></trkpt>
<trkpt lat="24.609572" lon="105.88093">
<time>2016-10-06T20:13:51Z</time></trkpt>
<trkpt lat="24.610202" lon="105.88104">
<time>2016-10-06T20:13:52Z</time></trkpt>
<trkpt lat="24.610742" lon="105.88113">
<time>2016-10-06T20:13:53Z</time></trkpt>
<trkpt lat="24.611122" lon="105.88117">
<time>2016-10-06T20:13:54Z</time></trkpt>
<trkpt lat="24.611292" lon="105.88118">
<time>2016-10-06T20:13:55Z</time></trkpt>
<trkpt lat="24.611412" lon="105.88117">
<time>2016-10-06T20:13:56Z</time></trkpt>
<trkpt lat="24.611512" lon="105.88116">
<time>2016-10-06T20:13:57Z</time></trkpt>
<trkpt lat="24.611602" lon="105.88113">
<time>2016-10-06T20:13:58Z</time></trkpt>
<trkpt lat="24.611692" lon="105.88109">
<time>2016-10-06T20:13:59Z</time></trkpt>
<trkpt lat="24.611792" lon="105.88102">
<time>2016-10-06T20:14:00Z</time></trkpt>
<trkpt lat="24.611872" lon="105.88096">
<time>2016-10-06T20:14:01Z</time></trkpt>
<trkpt lat="24.611972" lon="105.88086">
<time>2016-10-06T20:14:02Z</time></trkpt>
<trkpt lat="24.612042" lon="105.88076">
<time>2016-10-06T20:14:03Z</time></trkpt>
<trkpt lat="24.612112" lon="105.88067">
<time>2016-10-06T20:14:04Z</time></trkpt>
<trkpt lat="24.612202" lon="105.88055">
<time>2016-10-06T20:14:05Z</time></trkpt>
<trkpt lat="24.612611" lon="105.8798">
<time>2016-10-06T20:14:06Z</time></trkpt>
<trkpt lat="24.612811" lon="105.879399">
<time>2016-10-06T20:14:07Z</time></trkpt>
<trkpt lat="24.613091" lon="105.878909">
<time>2016-10-06T20:14:08Z</time></trkpt>
<trkpt lat="24.613231" lon="105.878699">
<time>2016-10-06T20:14:09Z</time></trkpt>
<trkpt lat="24.613281" lon="105.878639">
<time>2016-10-06T20:14:10Z</time></trkpt>
<trkpt lat="24.613331" lon="105.878589">
<time>2016-10-06T20:14:11Z</time></trkpt>
<trkpt lat="24.613381" lon="105.878549">
<time>2016-10-06T20:14:12Z</time></trkpt>
<trkpt lat="24.61345" lon="105.878499">
<time>2016-10-06T20:14:13Z</time></trkpt>
<trkpt lat="24.61368" lon="105.878359">
<time>2016-10-06T20:14:14Z</time></trkpt>
<trkpt lat="24.61402" lon="105.878168">
<time>2016-10-06T20:14:15Z</time></trkpt>
<trkpt lat="24.61429" lon="105.878028">
<time>2016-10-06T20:14:16Z</time></trkpt>
<trkpt lat="24.61439" lon="105.877978">
<time>2016-10-06T20:14:17Z</time></trkpt>
<trkpt lat="24.61448" lon="105.877918">
<time>2016-10-06T20:14:18Z</time></trkpt>
<trkpt lat="24.61457" lon="105.877848">
<time>2016-10-06T20:14:19Z</time></trkpt>
<trkpt lat="24.61465" lon="105.877758">
<time>2016-10-06T20:14:20Z</time></trkpt>
<trkpt lat="24.61473" lon="105.877668">
<time>2016-10-06T20:14:21Z</time></trkpt>
<trkpt lat="24.61478" lon="105.877588">
<time>2016-10-06T20:14:22Z</time></trkpt>
<trkpt lat="24.61484" lon="105.877478">
<time>2016-10-06T20:14:23Z</time></trkpt>
<trkpt lat="24.6149" lon="105.877338">
<time>2016-10-06T20:14:24Z</time></trkpt>
<trkpt lat="24.615069" lon="105.876878">
<time>2016-10-06T20:14:25Z</time></trkpt>
<trkpt lat="24.615229" lon="105.876407">
<time>2016-10-06T20:14:26Z</time></trkpt>
<trkpt lat="24.615378" lon="105.875997">
<time>2016-10-06T20:14:27Z</time></trkpt>
<trkpt lat="24.615568" lon="105.875557">
<time>2016-10-06T20:14:28Z</time></trkpt>
<trkpt lat="24.615738" lon="105.875316">
<time>2016-10-06T20:14:29Z</time></trkpt>
<trkpt lat="24.615828" lon="105.875186">
<time>2016-10-06T20:14:30Z</time></trkpt>
<trkpt lat="24.615918" lon="105.875076">
<time>2016-10-06T20:14:31Z</time></trkpt>
<trkpt lat="24.616008" lon="105.875006">
<time>2016-10-06T20:14:32Z</time></trkpt>
<trkpt lat="24.616217" lon="105.874746">
<time>2016-10-06T20:14:33Z</time></trkpt>
<trkpt lat="24.616647" lon="105.874365">
<time>2016-10-06T20:14:34Z</time></trkpt>
<trkpt lat="24.617056" lon="105.873845">
<time>2016-10-06T20:14:35Z</time></trkpt>
<trkpt lat="24.617396" lon="105.873405">
<time>2016-10-06T20:14:36Z</time></trkpt>
<trkpt lat="24.617636" lon="105.872974">
<time>2016-10-06T20:14:37Z</time></trkpt>
<trkpt lat="24.618095" lon="105.872174">
<time>2016-10-06T20:14:38Z</time></trkpt>
<trkpt lat="24.618454" lon="105.871603">
<time>2016-10-06T20:14:39Z</time></trkpt>
<trkpt lat="24.618794" lon="105.871263">
<time>2016-10-06T20:14:40Z</time></trkpt>
<trkpt lat="24.619173" lon="105.870892">
<time>2016-10-06T20:14:41Z</time></trkpt>
<trkpt lat="24.619243" lon="105.870822">
<time>2016-10-06T20:14:42Z</time></trkpt>
<trkpt lat="24.619443" lon="105.870602">
<time>2016-10-06T20:14:43Z</time></trkpt>
<trkpt lat="24.619563" lon="105.870332">
<time>2016-10-06T20:14:44Z</time></trkpt>
<trkpt lat="24.619613" lon="105.870152">
<time>2016-10-06T20:14:45Z</time></trkpt>
<trkpt lat="24.619682" lon="105.869881">
<time>2016-10-06T20:14:46Z</time></trkpt>
<trkpt lat="24.619752" lon="105.869611">
<time>2016-10-06T20:14:47Z</time></trkpt>
<trkpt lat="24.619832" lon="105.869351">
<time>2016-10-06T20:14:48Z</time></trkpt>
<trkpt lat="24.619951" lon="105.86903">
<time>2016-10-06T20:14:49Z</time></trkpt>
<trkpt lat="24.620171" lon="105.86851">
<time>2016-10-06T20:14:50Z</time></trkpt>
<trkpt lat="24.62037" lon="105.868059">
<time>2016-10-06T20:14:51Z</time></trkpt>
<trkpt lat="24.62059" lon="105.867649">
<time>2016-10-06T20:14:52Z</time></trkpt>
<trkpt lat="24.62077" lon="105.867419">
<time>2016-10-06T20:14:53Z</time></trkpt>
<trkpt lat="24.621019" lon="105.867158">
<time>2016-10-06T20:14:54Z</time></trkpt>
<trkpt lat="24.621429" lon="105.866828">
<time>2016-10-06T20:14:55Z</time></trkpt>
<trkpt lat="24.621649" lon="105.866628">
<time>2016-10-06T20:14:56Z</time></trkpt>
<trkpt lat="24.621928" lon="105.866357">
<time>2016-10-06T20:14:57Z</time></trkpt>
<trkpt lat="24.622048" lon="105.866187">
<time>2016-10-06T20:14:58Z</time></trkpt>
<trkpt lat="24.622108" lon="105.866117">
<time>2016-10-06T20:14:59Z</time></trkpt>
<trkpt lat="24.622158" lon="105.866017">
<time>2016-10-06T20:15:00Z</time></trkpt>
<trkpt lat="24.622198" lon="105.865887">
<time>2016-10-06T20:15:01Z</time></trkpt>
<trkpt lat="24.622197" lon="105.865687">
<time>2016-10-06T20:15:02Z</time></trkpt>
<trkpt lat="24.622177" lon="105.865496">
<time>2016-10-06T20:15:03Z</time></trkpt>
<trkpt lat="24.622117" lon="105.865366">
<time>2016-10-06T20:15:04Z</time></trkpt>
<trkpt lat="24.622107" lon="105.865356">
<time>2016-10-06T20:15:05Z</time></trkpt>
<trkpt lat="24.622047" lon="105.865246">
<time>2016-10-06T20:15:06Z</time></trkpt>
<trkpt lat="24.622047" lon="105.865236">
<time>2016-10-06T20:15:07Z</time></trkpt>
<trkpt lat="24.621947" lon="105.865106">
<time>2016-10-06T20:15:08Z</time></trkpt>
<trkpt lat="24.621897" lon="105.865016">
<time>2016-10-06T20:15:09Z</time></trkpt>
<trkpt lat="24.621837" lon="105.864936">
<time>2016-10-06T20:15:10Z</time></trkpt>
<trkpt lat="24.621706" lon="105.864786">
<time>2016-10-06T20:15:11Z</time></trkpt>
<trkpt lat="24.621536" lon="105.864605">
<time>2016-10-06T20:15:12Z</time></trkpt>
<trkpt lat="24.621476" lon="105.864515">
<time>2016-10-06T20:15:13Z</time></trkpt>
<trkpt lat="24.621436" lon="105.864435">
<time>2016-10-06T20:15:14Z</time></trkpt>
<trkpt lat="24.621406" lon="105.864365">
<time>2016-10-06T20:15:15Z</time></trkpt>
<trkpt lat="24.621386" lon="105.864285">
<time>2016-10-06T20:15:16Z</time></trkpt>
<trkpt lat="24.621376" lon="105.864215">
<time>2016-10-06T20:15:17Z</time></trkpt>
<trkpt lat="24.621385" lon="105.864135">
<time>2016-10-06T20:15:18Z</time></trkpt>
<trkpt lat="24.621405" lon="105.864055">
<time>2016-10-06T20:15:19Z</time></trkpt>
<trkpt lat="24.621425" lon="105.863985">
<time>2016-10-06T20:15:20Z</time></trkpt>
<trkpt lat="24.621475" lon="105.863915">
<time>2016-10-06T20:15:21Z</time></trkpt>
<trkpt lat="24.621515" lon="105.863875">
<time>2016-10-06T20:15:22Z</time></trkpt>
<trkpt lat="24.621565" lon="105.863825">
<time>2016-10-06T20:15:23Z</time></trkpt>
<trkpt lat="24.621615" lon="105.863805">
<time>2016-10-06T20:15:24Z</time></trkpt>
<trkpt lat="24.621685" lon="105.863775">
<time>2016-10-06T20:15:25Z</time></trkpt>
<trkpt lat="24.621755" lon="105.863764">
<time>2016-10-06T20:15:26Z</time></trkpt>
<trkpt lat="24.621805" lon="105.863754">
<time>2016-10-06T20:15:27Z</time></trkpt>
<trkpt lat="24.621875" lon="105.863754">
<time>2016-10-06T20:15:28Z</time></trkpt>
<trkpt lat="24.622065" lon="105.863754">
<time>2016-10-06T20:15:29Z</time></trkpt>
<trkpt lat="24.622515" lon="105.863774">
<time>2016-10-06T20:15:30Z</time></trkpt>
<trkpt lat="24.622715" lon="105.863734">
<time>2016-10-06T20:15:31Z</time></trkpt>
<trkpt lat="24.622935" lon="105.863664">
<time>2016-10-06T20:15:32Z</time></trkpt>
<trkpt lat="24.623125" lon="105.863524">
<time>2016-10-06T20:15:33Z</time></trkpt>
<trkpt lat="24.623265" lon="105.863364">
<time>2016-10-06T20:15:34Z</time></trkpt>
<trkpt lat="24.623484" lon="105.863024">
<time>2016-10-06T20:15:35Z</time></trkpt>
<trkpt lat="24.623783" lon="105.862473">
<time>2016-10-06T20:15:36Z</time></trkpt>
<trkpt lat="24.624212" lon="105.861692">
<time>2016-10-06T20:15:37Z</time></trkpt>
<trkpt lat="24.624791" lon="105.860661">
<time>2016-10-06T20:15:38Z</time></trkpt>
<trkpt lat="24.624961" lon="105.86037">
<time>2016-10-06T20:15:39Z</time></trkpt>
<trkpt lat="24.62532" lon="105.859779">
<time>2016-10-06T20:15:40Z</time></trkpt>
<trkpt lat="24.626188" lon="105.858678">
<time>2016-10-06T20:15:41Z</time></trkpt>
<trkpt lat="24.628095" lon="105.856345">
<time>2016-10-06T20:15:42Z</time></trkpt>
<trkpt lat="24.628224" lon="105.856124">
<time>2016-10-06T20:15:43Z</time></trkpt>
<trkpt lat="24.628284" lon="105.855914">
<time>2016-10-06T20:15:44Z</time></trkpt>
<trkpt lat="24.628333" lon="105.855453">
<time>2016-10-06T20:15:45Z</time></trkpt>
<trkpt lat="24.628423" lon="105.854943">
<time>2016-10-06T20:15:46Z</time></trkpt>
<trkpt lat="24.628462" lon="105.854342">
<time>2016-10-06T20:15:47Z</time></trkpt>
<trkpt lat="24.628718" lon="105.852028">
<time>2016-10-06T20:15:48Z</time></trkpt>
<trkpt lat="24.628797" lon="105.851417">
<time>2016-10-06T20:15:49Z</time></trkpt>
<trkpt lat="24.628817" lon="105.851287">
<time>2016-10-06T20:15:50Z</time></trkpt>
<trkpt lat="24.628837" lon="105.851187">
<time>2016-10-06T20:15:51Z</time></trkpt>
<trkpt lat="24.628867" lon="105.851107">
<time>2016-10-06T20:15:52Z</time></trkpt>
<trkpt lat="24.628906" lon="105.851007">
<time>2016-10-06T20:15:53Z</time></trkpt>
<trkpt lat="24.628956" lon="105.850917">
<time>2016-10-06T20:15:54Z</time></trkpt>
<trkpt lat="24.629056" lon="105.850776">
<time>2016-10-06T20:15:55Z</time></trkpt>
<trkpt lat="24.629774" lon="105.849785">
<time>2016-10-06T20:15:56Z</time></trkpt>
<trkpt lat="24.630124" lon="105.849314">
<time>2016-10-06T20:15:57Z</time></trkpt>
<trkpt lat="24.630253" lon="105.849174">
<time>2016-10-06T20:15:58Z</time></trkpt>
<trkpt lat="24.630393" lon="105.849044">
<time>2016-10-06T20:15:59Z</time></trkpt>
<trkpt lat="24.630563" lon="105.848903">
<time>2016-10-06T20:16:00Z</time></trkpt>
<trkpt lat="24.630683" lon="105.848823">
<time>2016-10-06T20:16:01Z</time></trkpt>
<trkpt lat="24.630803" lon="105.848753">
<time>2016-10-06T20:16:02Z</time></trkpt>
<trkpt lat="24.630933" lon="105.848693">
<time>2016-10-06T20:16:03Z</time></trkpt>
<trkpt lat="24.631462" lon="105.848503">
<time>2016-10-06T20:16:04Z</time></trkpt>
<trkpt lat="24.631642" lon="105.848443">
<time>2016-10-06T20:16:05Z</time></trkpt>
<trkpt lat="24.631782" lon="105.848373">
<time>2016-10-06T20:16:06Z</time></trkpt>
<trkpt lat="24.631902" lon="105.848292">
<time>2016-10-06T20:16:07Z</time></trkpt>
<trkpt lat="24.632032" lon="105.848182">
<time>2016-10-06T20:16:08Z</time></trkpt>
<trkpt lat="24.632132" lon="105.848082">
<time>2016-10-06T20:16:09Z</time></trkpt>
<trkpt lat="24.632211" lon="105.847942">
<time>2016-10-06T20:16:10Z</time></trkpt>
<trkpt lat="24.632301" lon="105.847731">
<time>2016-10-06T20:16:11Z</time></trkpt>
<trkpt lat="24.632411" lon="105.847401">
<time>2016-10-06T20:16:12Z</time></trkpt>
<trkpt lat="24.632599" lon="105.84672">
<time>2016-10-06T20:16:13Z</time></trkpt>
<trkpt lat="24.632728" lon="105.846089">
<time>2016-10-06T20:16:14Z</time></trkpt>
<trkpt lat="24.632867" lon="105.845448">
<time>2016-10-06T20:16:15Z</time></trkpt>
<trkpt lat="24.632927" lon="105.845157">
<time>2016-10-06T20:16:16Z</time></trkpt>
<trkpt lat="24.632957" lon="105.845057">
<time>2016-10-06T20:16:17Z</time></trkpt>
<trkpt lat="24.632976" lon="105.844977">
<time>2016-10-06T20:16:18Z</time></trkpt>
<trkpt lat="24.633006" lon="105.844867">
<time>2016-10-06T20:16:19Z</time></trkpt>
<trkpt lat="24.633046" lon="105.844757">
<time>2016-10-06T20:16:20Z</time></trkpt>
<trkpt lat="24.633076" lon="105.844676">
<time>2016-10-06T20:16:21Z</time></trkpt>
<trkpt lat="24.633126" lon="105.844576">
<time>2016-10-06T20:16:22Z</time></trkpt>
<trkpt lat="24.633196" lon="105.844446">
<time>2016-10-06T20:16:23Z</time></trkpt>
<trkpt lat="24.633275" lon="105.844296">
<time>2016-10-06T20:16:24Z</time></trkpt>
<trkpt lat="24.633385" lon="105.844146">
<time>2016-10-06T20:16:25Z</time></trkpt>
<trkpt lat="24.633475" lon="105.844025">
<time>2016-10-06T20:16:26Z</time></trkpt>
<trkpt lat="24.633575" lon="105.843915">
<time>2016-10-06T20:16:27Z</time></trkpt>
<trkpt lat="24.633664" lon="105.843825">
<time>2016-10-06T20:16:28Z</time></trkpt>
<trkpt lat="24.633784" lon="105.843735">
<time>2016-10-06T20:16:29Z</time></trkpt>
<trkpt lat="24.633924" lon="105.843635">
<time>2016-10-06T20:16:30Z</time></trkpt>
<trkpt lat="24.634064" lon="105.843555">
<time>2016-10-06T20:16:31Z</time></trkpt>
<trkpt lat="24.634244" lon="105.843444">
<time>2016-10-06T20:16:32Z</time></trkpt>
<trkpt lat="24.634424" lon="105.843324">
<time>2016-10-06T20:16:33Z</time></trkpt>
<trkpt lat="24.634583" lon="105.843194">
<time>2016-10-06T20:16:34Z</time></trkpt>
<trkpt lat="24.634763" lon="105.843044">
<time>2016-10-06T20:16:35Z</time></trkpt>
<trkpt lat="24.634903" lon="105.842913">
<time>2016-10-06T20:16:36Z</time></trkpt>
<trkpt lat="24.634983" lon="105.842823">
<time>2016-10-06T20:16:37Z</time></trkpt>
<trkpt lat="24.635063" lon="105.842723">
<time>2016-10-06T20:16:38Z</time></trkpt>
<trkpt lat="24.635132" lon="105.842623">
<time>2016-10-06T20:16:39Z</time></trkpt>
<trkpt lat="24.635212" lon="105.842493">
<time>2016-10-06T20:16:40Z</time></trkpt>
<trkpt lat="24.635481" lon="105.841932">
<time>2016-10-06T20:16:41Z</time></trkpt>
<trkpt lat="24.63573" lon="105.841441">
<time>2016-10-06T20:16:42Z</time></trkpt>
<trkpt lat="24.63586" lon="105.84111">
<time>2016-10-06T20:16:43Z</time></trkpt>
<trkpt lat="24.635939" lon="105.84093">
<time>2016-10-06T20:16:44Z</time></trkpt>
<trkpt lat="24.636009" lon="105.84073">
<time>2016-10-06T20:16:45Z</time></trkpt>
<trkpt lat="24.636079" lon="105.840499">
<time>2016-10-06T20:16:46Z</time></trkpt>
<trkpt lat="24.636108" lon="105.840369">
<time>2016-10-06T20:16:47Z</time></trkpt>
<trkpt lat="24.636138" lon="105.840169">
<time>2016-10-06T20:16:48Z</time></trkpt>
<trkpt lat="24.636168" lon="105.840019">
<time>2016-10-06T20:16:49Z</time></trkpt>
<trkpt lat="24.636218" lon="105.839858">
<time>2016-10-06T20:16:50Z</time></trkpt>
<trkpt lat="24.636267" lon="105.839708">
<time>2016-10-06T20:16:51Z</time></trkpt>
<trkpt lat="24.636317" lon="105.839598">
<time>2016-10-06T20:16:52Z</time></trkpt>
<trkpt lat="24.636367" lon="105.839498">
<time>2016-10-06T20:16:53Z</time></trkpt>
<trkpt lat="24.636437" lon="105.839407">
<time>2016-10-06T20:16:54Z</time></trkpt>
<trkpt lat="24.636756" lon="105.838997">
<time>2016-10-06T20:16:55Z</time></trkpt>
<trkpt lat="24.637095" lon="105.838596">
<time>2016-10-06T20:16:56Z</time></trkpt>
<trkpt lat="24.637345" lon="105.838306">
<time>2016-10-06T20:16:57Z</time></trkpt>
<trkpt lat="24.637524" lon="105.838105">
<time>2016-10-06T20:16:58Z</time></trkpt>
<trkpt lat="24.637624" lon="105.838005">
<time>2016-10-06T20:16:59Z</time></trkpt>
<trkpt lat="24.637734" lon="105.837915">
<time>2016-10-06T20:17:00Z</time></trkpt>
<trkpt lat="24.637844" lon="105.837835">
<time>2016-10-06T20:17:01Z</time></trkpt>
<trkpt lat="24.638154" lon="105.837644">
<time>2016-10-06T20:17:02Z</time></trkpt>
<trkpt lat="24.638283" lon="105.837574">
<time>2016-10-06T20:17:03Z</time></trkpt>
<trkpt lat="24.638423" lon="105.837474">
<time>2016-10-06T20:17:04Z</time></trkpt>
<trkpt lat="24.638523" lon="105.837404">
<time>2016-10-06T20:17:05Z</time></trkpt>
<trkpt lat="24.638663" lon="105.837264">
<time>2016-10-06T20:17:06Z</time></trkpt>
<trkpt lat="24.639072" lon="105.836813">
<time>2016-10-06T20:17:07Z</time></trkpt>
<trkpt lat="24.63983" lon="105.835941">
<time>2016-10-06T20:17:08Z</time></trkpt>
<trkpt lat="24.640279" lon="105.8354">
<time>2016-10-06T20:17:09Z</time></trkpt>
<trkpt lat="24.640459" lon="105.83514">
<time>2016-10-06T20:17:10Z</time></trkpt>
<trkpt lat="24.640609" lon="105.834879">
<time>2016-10-06T20:17:11Z</time></trkpt>
<trkpt lat="24.640758" lon="105.834519">
<time>2016-10-06T20:17:12Z</time></trkpt>
<trkpt lat="24.640937" lon="105.833988">
<time>2016-10-06T20:17:13Z</time></trkpt>
<trkpt lat="24.641145" lon="105.832996">
<time>2016-10-06T20:17:14Z</time></trkpt>
<trkpt lat="24.641443" lon="105.831664">
<time>2016-10-06T20:17:15Z</time></trkpt>
<trkpt lat="24.641601" lon="105.830692">
<time>2016-10-06T20:17:16Z</time></trkpt>
<trkpt lat="24.64163" lon="105.830552">
<time>2016-10-06T20:17:17Z</time></trkpt>
<trkpt lat="24.64165" lon="105.830391">
<time>2016-10-06T20:17:18Z</time></trkpt>
<trkpt lat="24.64164" lon="105.830211">
<time>2016-10-06T20:17:19Z</time></trkpt>
<trkpt lat="24.6416" lon="105.830071">
<time>2016-10-06T20:17:20Z</time></trkpt>
<trkpt lat="24.641479" lon="105.82981">
<time>2016-10-06T20:17:21Z</time></trkpt>
<trkpt lat="24.641319" lon="105.82964">
<time>2016-10-06T20:17:22Z</time></trkpt>
<trkpt lat="24.640918" lon="105.829179">
<time>2016-10-06T20:17:23Z</time></trkpt>
<trkpt lat="24.640747" lon="105.828939">
<time>2016-10-06T20:17:24Z</time></trkpt>
<trkpt lat="24.640667" lon="105.828799">
<time>2016-10-06T20:17:25Z</time></trkpt>
<trkpt lat="24.640567" lon="105.828638">
<time>2016-10-06T20:17:26Z</time></trkpt>
<trkpt lat="24.640517" lon="105.828538">
<time>2016-10-06T20:17:27Z</time></trkpt>
<trkpt lat="24.640486" lon="105.828448">
<time>2016-10-06T20:17:28Z</time></trkpt>
<trkpt lat="24.640456" lon="105.828348">
<time>2016-10-06T20:17:29Z</time></trkpt>
<trkpt lat="24.640446" lon="105.828218">
<time>2016-10-06T20:17:30Z</time></trkpt>
<trkpt lat="24.640446" lon="105.828027">
<time>2016-10-06T20:17:31Z</time></trkpt>
<trkpt lat="24.640455" lon="105.827837">
<time>2016-10-06T20:17:32Z</time></trkpt>
<trkpt lat="24.640475" lon="105.827606">
<time>2016-10-06T20:17:33Z</time></trkpt>
<trkpt lat="24.640563" lon="105.826805">
<time>2016-10-06T20:17:34Z</time></trkpt>
<trkpt lat="24.640612" lon="105.826294">
<time>2016-10-06T20:17:35Z</time></trkpt>
<trkpt lat="24.640622" lon="105.826234">
<time>2016-10-06T20:17:36Z</time></trkpt>
<trkpt lat="24.640642" lon="105.826154">
<time>2016-10-06T20:17:37Z</time></trkpt>
<trkpt lat="24.640662" lon="105.826084">
<time>2016-10-06T20:17:38Z</time></trkpt>
<trkpt lat="24.640702" lon="105.825994">
<time>2016-10-06T20:17:39Z</time></trkpt>
<trkpt lat="24.640772" lon="105.825843">
<time>2016-10-06T20:17:40Z</time></trkpt>
<trkpt lat="24.640851" lon="105.825703">
<time>2016-10-06T20:17:41Z</time></trkpt>
<trkpt lat="24.640901" lon="105.825623">
<time>2016-10-06T20:17:42Z</time></trkpt>
<trkpt lat="24.640961" lon="105.825563">
<time>2016-10-06T20:17:43Z</time></trkpt>
<trkpt lat="24.641041" lon="105.825483">
<time>2016-10-06T20:17:44Z</time></trkpt>
<trkpt lat="24.641171" lon="105.825372">
<time>2016-10-06T20:17:45Z</time></trkpt>
<trkpt lat="24.64134" lon="105.825242">
<time>2016-10-06T20:17:46Z</time></trkpt>
<trkpt lat="24.64202" lon="105.824761">
<time>2016-10-06T20:17:47Z</time></trkpt>
<trkpt lat="24.642139" lon="105.824671">
<time>2016-10-06T20:17:48Z</time></trkpt>
<trkpt lat="24.642239" lon="105.824591">
<time>2016-10-06T20:17:49Z</time></trkpt>
<trkpt lat="24.642319" lon="105.824501">
<time>2016-10-06T20:17:50Z</time></trkpt>
<trkpt lat="24.642399" lon="105.824401">
<time>2016-10-06T20:17:51Z</time></trkpt>
<trkpt lat="24.642479" lon="105.8243">
<time>2016-10-06T20:17:52Z</time></trkpt>
<trkpt lat="24.642539" lon="105.82421">
<time>2016-10-06T20:17:53Z</time></trkpt>
<trkpt lat="24.642598" lon="105.82409">
<time>2016-10-06T20:17:54Z</time></trkpt>
<trkpt lat="24.642658" lon="105.82398">
<time>2016-10-06T20:17:55Z</time></trkpt>
<trkpt lat="24.642708" lon="105.82387">
<time>2016-10-06T20:17:56Z</time></trkpt>
<trkpt lat="24.642768" lon="105.823739">
<time>2016-10-06T20:17:57Z</time></trkpt>
<trkpt lat="24.642857" lon="105.823449">
<time>2016-10-06T20:17:58Z</time></trkpt>
<trkpt lat="24.643086" lon="105.822718">
<time>2016-10-06T20:17:59Z</time></trkpt>
<trkpt lat="24.643344" lon="105.821976">
<time>2016-10-06T20:18:00Z</time></trkpt>
<trkpt lat="24.643533" lon="105.821475">
<time>2016-10-06T20:18:01Z</time></trkpt>
<trkpt lat="24.643722" lon="105.820924">
<time>2016-10-06T20:18:02Z</time></trkpt>
<trkpt lat="24.643981" lon="105.820283">
<time>2016-10-06T20:18:03Z</time></trkpt>
<trkpt lat="24.64418" lon="105.819812">
<time>2016-10-06T20:18:04Z</time></trkpt>
<trkpt lat="24.644399" lon="105.819331">
<time>2016-10-06T20:18:05Z</time></trkpt>
<trkpt lat="24.645545" lon="105.816877">
<time>2016-10-06T20:18:06Z</time></trkpt>
<trkpt lat="24.646302" lon="105.815174">
<time>2016-10-06T20:18:07Z</time></trkpt>
<trkpt lat="24.646411" lon="105.814934">
<time>2016-10-06T20:18:08Z</time></trkpt>
<trkpt lat="24.646491" lon="105.814733">
<time>2016-10-06T20:18:09Z</time></trkpt>
<trkpt lat="24.64657" lon="105.814483">
<time>2016-10-06T20:18:10Z</time></trkpt>
<trkpt lat="24.64664" lon="105.814162">
<time>2016-10-06T20:18:11Z</time></trkpt>
<trkpt lat="24.646679" lon="105.813862">
<time>2016-10-06T20:18:12Z</time></trkpt>
<trkpt lat="24.646709" lon="105.813571">
<time>2016-10-06T20:18:13Z</time></trkpt>
<trkpt lat="24.646718" lon="105.813331">
<time>2016-10-06T20:18:14Z</time></trkpt>
<trkpt lat="24.646737" lon="105.81284">
<time>2016-10-06T20:18:15Z</time></trkpt>
<trkpt lat="24.646767" lon="105.812499">
<time>2016-10-06T20:18:16Z</time></trkpt>
<trkpt lat="24.646826" lon="105.812139">
<time>2016-10-06T20:18:17Z</time></trkpt>
<trkpt lat="24.646886" lon="105.811858">
<time>2016-10-06T20:18:18Z</time></trkpt>
<trkpt lat="24.646975" lon="105.811528">
<time>2016-10-06T20:18:19Z</time></trkpt>
<trkpt lat="24.647045" lon="105.811307">
<time>2016-10-06T20:18:20Z</time></trkpt>
<trkpt lat="24.647094" lon="105.811167">
<time>2016-10-06T20:18:21Z</time></trkpt>
<trkpt lat="24.647154" lon="105.811037">
<time>2016-10-06T20:18:22Z</time></trkpt>
<trkpt lat="24.647323" lon="105.810706">
<time>2016-10-06T20:18:23Z</time></trkpt>
<trkpt lat="24.648081" lon="105.809214">
<time>2016-10-06T20:18:24Z</time></trkpt>
<trkpt lat="24.648509" lon="105.808282">
<time>2016-10-06T20:18:25Z</time></trkpt>
<trkpt lat="24.649077" lon="105.8071">
<time>2016-10-06T20:18:26Z</time></trkpt>
<trkpt lat="24.649207" lon="105.80686">
<time>2016-10-06T20:18:27Z</time></trkpt>
<trkpt lat="24.649316" lon="105.80666">
<time>2016-10-06T20:18:28Z</time></trkpt>
<trkpt lat="24.649396" lon="105.806499">
<time>2016-10-06T20:18:29Z</time></trkpt>
<trkpt lat="24.649396" lon="105.806499">
<time>2016-10-06T20:18:30Z</time></trkpt>
<trkpt lat="24.650123" lon="105.804977">
<time>2016-10-06T20:18:31Z</time></trkpt>
<trkpt lat="24.650283" lon="105.804786">
<time>2016-10-06T20:18:32Z</time></trkpt>
<trkpt lat="24.650333" lon="105.804726">
<time>2016-10-06T20:18:33Z</time></trkpt>
<trkpt lat="24.650393" lon="105.804666">
<time>2016-10-06T20:18:34Z</time></trkpt>
<trkpt lat="24.650463" lon="105.804596">
<time>2016-10-06T20:18:35Z</time></trkpt>
<trkpt lat="24.650503" lon="105.804566">
<time>2016-10-06T20:18:36Z</time></trkpt>
<trkpt lat="24.650563" lon="105.804526">
<time>2016-10-06T20:18:37Z</time></trkpt>
<trkpt lat="24.650633" lon="105.804486">
<time>2016-10-06T20:18:38Z</time></trkpt>
<trkpt lat="24.650702" lon="105.804456">
<time>2016-10-06T20:18:39Z</time></trkpt>
<trkpt lat="24.650762" lon="105.804436">
<time>2016-10-06T20:18:40Z</time></trkpt>
<trkpt lat="24.650822" lon="105.804426">
<time>2016-10-06T20:18:41Z</time></trkpt>
<trkpt lat="24.650882" lon="105.804416">
<time>2016-10-06T20:18:42Z</time></trkpt>
<trkpt lat="24.650932" lon="105.804426">
<time>2016-10-06T20:18:43Z</time></trkpt>
<trkpt lat="24.650992" lon="105.804436">
<time>2016-10-06T20:18:44Z</time></trkpt>
<trkpt lat="24.651072" lon="105.804456">
<time>2016-10-06T20:18:45Z</time></trkpt>
<trkpt lat="24.651283" lon="105.804506">
<time>2016-10-06T20:18:46Z</time></trkpt>
<trkpt lat="24.651403" lon="105.804546">
<time>2016-10-06T20:18:47Z</time></trkpt>
<trkpt lat="24.651413" lon="105.804546">
<time>2016-10-06T20:18:48Z</time></trkpt>
<trkpt lat="24.651603" lon="105.804606">
<time>2016-10-06T20:18:49Z</time></trkpt>
<trkpt lat="24.651783" lon="105.804666">
<time>2016-10-06T20:18:50Z</time></trkpt>
<trkpt lat="24.651813" lon="105.804676">
<time>2016-10-06T20:18:51Z</time></trkpt>
<trkpt lat="24.651843" lon="105.804686">
<time>2016-10-06T20:18:52Z</time></trkpt>
<trkpt lat="24.651893" lon="105.804686">
<time>2016-10-06T20:18:53Z</time></trkpt>
<trkpt lat="24.651963" lon="105.804696">
<time>2016-10-06T20:18:54Z</time></trkpt>
<trkpt lat="24.652033" lon="105.804706">
<time>2016-10-06T20:18:55Z</time></trkpt>
<trkpt lat="24.652283" lon="105.804696">
<time>2016-10-06T20:18:56Z</time></trkpt>
<trkpt lat="24.652373" lon="105.804696">
<time>2016-10-06T20:18:57Z</time></trkpt>
<trkpt lat="24.652453" lon="105.804706">
<time>2016-10-06T20:18:58Z</time></trkpt>
<trkpt lat="24.652643" lon="105.804756">
<time>2016-10-06T20:18:59Z</time></trkpt>
<trkpt lat="24.652803" lon="105.804796">
<time>2016-10-06T20:19:00Z</time></trkpt>
<trkpt lat="24.652893" lon="105.804806">
<time>2016-10-06T20:19:01Z</time></trkpt>
<trkpt lat="24.653003" lon="105.804816">
<time>2016-10-06T20:19:02Z</time></trkpt>
<trkpt lat="24.653093" lon="105.804796">
<time>2016-10-06T20:19:03Z</time></trkpt>
<trkpt lat="24.653183" lon="105.804776">
<time>2016-10-06T20:19:04Z</time></trkpt>
<trkpt lat="24.653263" lon="105.804746">
<time>2016-10-06T20:19:05Z</time></trkpt>
<trkpt lat="24.653353" lon="105.804686">
<time>2016-10-06T20:19:06Z</time></trkpt>
<trkpt lat="24.653443" lon="105.804616">
<time>2016-10-06T20:19:07Z</time></trkpt>
<trkpt lat="24.653503" lon="105.804556">
<time>2016-10-06T20:19:08Z</time></trkpt>
<trkpt lat="24.653593" lon="105.804456">
<time>2016-10-06T20:19:09Z</time></trkpt>
<trkpt lat="24.653782" lon="105.804185">
<time>2016-10-06T20:19:10Z</time></trkpt>
<trkpt lat="24.654071" lon="105.803795">
<time>2016-10-06T20:19:11Z</time></trkpt>
<trkpt lat="24.654181" lon="105.803654">
<time>2016-10-06T20:19:12Z</time></trkpt>
<trkpt lat="24.654431" lon="105.803304">
<time>2016-10-06T20:19:13Z</time></trkpt>
<trkpt lat="24.65457" lon="105.803134">
<time>2016-10-06T20:19:14Z</time></trkpt>
<trkpt lat="24.65478" lon="105.802893">
<time>2016-10-06T20:19:15Z</time></trkpt>
<trkpt lat="24.65484" lon="105.802823">
<time>2016-10-06T20:19:16Z</time></trkpt>
<trkpt lat="24.65487" lon="105.802763">
<time>2016-10-06T20:19:17Z</time></trkpt>
<trkpt lat="24.65491" lon="105.802703">
<time>2016-10-06T20:19:18Z</time></trkpt>
<trkpt lat="24.654969" lon="105.802583">
<time>2016-10-06T20:19:19Z</time></trkpt>
<trkpt lat="24.655019" lon="105.802473">
<time>2016-10-06T20:19:20Z</time></trkpt>
<trkpt lat="24.655079" lon="105.802332">
<time>2016-10-06T20:19:21Z</time></trkpt>
<trkpt lat="24.655119" lon="105.802242">
<time>2016-10-06T20:19:22Z</time></trkpt>
<trkpt lat="24.655179" lon="105.802132">
<time>2016-10-06T20:19:23Z</time></trkpt>
<trkpt lat="24.655248" lon="105.802012">
<time>2016-10-06T20:19:24Z</time></trkpt>
<trkpt lat="24.655338" lon="105.801882">
<time>2016-10-06T20:19:25Z</time></trkpt>
<trkpt lat="24.655508" lon="105.801671">
<time>2016-10-06T20:19:26Z</time></trkpt>
<trkpt lat="24.655737" lon="105.801391">
<time>2016-10-06T20:19:27Z</time></trkpt>
<trkpt lat="24.655827" lon="105.801271">
<time>2016-10-06T20:19:28Z</time></trkpt>
<trkpt lat="24.655997" lon="105.80108">
<time>2016-10-06T20:19:29Z</time></trkpt>
<trkpt lat="24.656107" lon="105.80096">
<time>2016-10-06T20:19:30Z</time></trkpt>
<trkpt lat="24.656246" lon="105.80075">
<time>2016-10-06T20:19:31Z</time></trkpt>
<trkpt lat="24.656436" lon="105.800509">
<time>2016-10-06T20:19:32Z</time></trkpt>
<trkpt lat="24.656596" lon="105.800339">
<time>2016-10-06T20:19:33Z</time></trkpt>
<trkpt lat="24.656665" lon="105.800279">
<time>2016-10-06T20:19:34Z</time></trkpt>
<trkpt lat="24.656745" lon="105.800219">
<time>2016-10-06T20:19:35Z</time></trkpt>
<trkpt lat="24.656845" lon="105.800169">
<time>2016-10-06T20:19:36Z</time></trkpt>
<trkpt lat="24.656925" lon="105.800129">
<time>2016-10-06T20:19:37Z</time></trkpt>
<trkpt lat="24.657115" lon="105.800049">
<time>2016-10-06T20:19:38Z</time></trkpt>
<trkpt lat="24.657605" lon="105.799868">
<time>2016-10-06T20:19:39Z</time></trkpt>
<trkpt lat="24.658294" lon="105.799598">
<time>2016-10-06T20:19:40Z</time></trkpt>
<trkpt lat="24.658774" lon="105.799428">
<time>2016-10-06T20:19:41Z</time></trkpt>
<trkpt lat="24.659134" lon="105.799287">
<time>2016-10-06T20:19:42Z</time></trkpt>
<trkpt lat="24.660223" lon="105.798867">
<time>2016-10-06T20:19:43Z</time></trkpt>
<trkpt lat="24.660653" lon="105.798707">
<time>2016-10-06T20:19:44Z</time></trkpt>
<trkpt lat="24.661003" lon="105.798576">
<time>2016-10-06T20:19:45Z</time></trkpt>
<trkpt lat="24.661183" lon="105.798526">
<time>2016-10-06T20:19:46Z</time></trkpt>
<trkpt lat="24.661273" lon="105.798506">
<time>2016-10-06T20:19:47Z</time></trkpt>
<trkpt lat="24.661373" lon="105.798496">
<time>2016-10-06T20:19:48Z</time></trkpt>
<trkpt lat="24.661523" lon="105.798496">
<time>2016-10-06T20:19:49Z</time></trkpt>
<trkpt lat="24.661643" lon="105.798496">
<time>2016-10-06T20:19:50Z</time></trkpt>
<trkpt lat="24.661733" lon="105.798516">
<time>2016-10-06T20:19:51Z</time></trkpt>
<trkpt lat="24.661793" lon="105.798526">
<time>2016-10-06T20:19:52Z</time></trkpt>
<trkpt lat="24.661863" lon="105.798536">
<time>2016-10-06T20:19:53Z</time></trkpt>
<trkpt lat="24.661973" lon="105.798576">
<time>2016-10-06T20:19:54Z</time></trkpt>
<trkpt lat="24.662113" lon="105.798636">
<time>2016-10-06T20:19:55Z</time></trkpt>
<trkpt lat="24.662213" lon="105.798676">
<time>2016-10-06T20:19:56Z</time></trkpt>
<trkpt lat="24.662293" lon="105.798676">
<time>2016-10-06T20:19:57Z</time></trkpt>
<trkpt lat="24.662373" lon="105.798676">
<time>2016-10-06T20:19:58Z</time></trkpt>
<trkpt lat="24.662443" lon="105.798656">
<time>2016-10-06T20:19:59Z</time></trkpt>
<trkpt lat="24.662523" lon="105.798626">
<time>2016-10-06T20:20:00Z</time></trkpt>
<trkpt lat="24.662603" lon="105.798576">
<time>2016-10-06T20:20:01Z</time></trkpt>
<trkpt lat="24.662703" lon="105.798466">
<time>2016-10-06T20:20:02Z</time></trkpt>
<trkpt lat="24.662782" lon="105.798366">
<time>2016-10-06T20:20:03Z</time></trkpt>
<trkpt lat="24.662852" lon="105.798266">
<time>2016-10-06T20:20:04Z</time></trkpt>
<trkpt lat="24.662892" lon="105.798186">
<time>2016-10-06T20:20:05Z</time></trkpt>
<trkpt lat="24.662932" lon="105.798095">
<time>2016-10-06T20:20:06Z</time></trkpt>
<trkpt lat="24.662982" lon="105.797945">
<time>2016-10-06T20:20:07Z</time></trkpt>
<trkpt lat="24.663141" lon="105.797485">
<time>2016-10-06T20:20:08Z</time></trkpt>
<trkpt lat="24.663191" lon="105.797284">
<time>2016-10-06T20:20:09Z</time></trkpt>
<trkpt lat="24.66332" lon="105.796703">
<time>2016-10-06T20:20:10Z</time></trkpt>
<trkpt lat="24.663369" lon="105.796563">
<time>2016-10-06T20:20:11Z</time></trkpt>
<trkpt lat="24.663449" lon="105.796453">
<time>2016-10-06T20:20:12Z</time></trkpt>
<trkpt lat="24.663549" lon="105.796313">
<time>2016-10-06T20:20:13Z</time></trkpt>
<trkpt lat="24.663649" lon="105.796183">
<time>2016-10-06T20:20:14Z</time></trkpt>
<trkpt lat="24.663759" lon="105.796042">
<time>2016-10-06T20:20:15Z</time></trkpt>
<trkpt lat="24.663858" lon="105.795912">
<time>2016-10-06T20:20:16Z</time></trkpt>
<trkpt lat="24.664068" lon="105.795732">
<time>2016-10-06T20:20:17Z</time></trkpt>
<trkpt lat="24.664308" lon="105.795582">
<time>2016-10-06T20:20:18Z</time></trkpt>
<trkpt lat="24.664538" lon="105.795462">
<time>2016-10-06T20:20:19Z</time></trkpt>
<trkpt lat="24.664748" lon="105.795351">
<time>2016-10-06T20:20:20Z</time></trkpt>
<trkpt lat="24.664937" lon="105.795281">
<time>2016-10-06T20:20:21Z</time></trkpt>
<trkpt lat="24.665187" lon="105.795221">
<time>2016-10-06T20:20:22Z</time></trkpt>
<trkpt lat="24.665497" lon="105.795161">
<time>2016-10-06T20:20:23Z</time></trkpt>
<trkpt lat="24.665747" lon="105.795091">
<time>2016-10-06T20:20:24Z</time></trkpt>
<trkpt lat="24.665827" lon="105.795081">
<time>2016-10-06T20:20:25Z</time></trkpt>
<trkpt lat="24.665917" lon="105.795051">
<time>2016-10-06T20:20:26Z</time></trkpt>
<trkpt lat="24.665997" lon="105.795021">
<time>2016-10-06T20:20:27Z</time></trkpt>
<trkpt lat="24.666057" lon="105.794981">
<time>2016-10-06T20:20:28Z</time></trkpt>
<trkpt lat="24.666117" lon="105.794941">
<time>2016-10-06T20:20:29Z</time></trkpt>
<trkpt lat="24.666177" lon="105.794891">
<time>2016-10-06T20:20:30Z</time></trkpt>
<trkpt lat="24.666227" lon="105.794841">
<time>2016-10-06T20:20:31Z</time></trkpt>
<trkpt lat="24.666287" lon="105.794771">
<time>2016-10-06T20:20:32Z</time></trkpt>
<trkpt lat="24.666346" lon="105.79468">
<time>2016-10-06T20:20:33Z</time></trkpt>
<trkpt lat="24.666396" lon="105.7946">
<time>2016-10-06T20:20:34Z</time></trkpt>
<trkpt lat="24.666446" lon="105.7945">
<time>2016-10-06T20:20:35Z</time></trkpt>
<trkpt lat="24.666506" lon="105.79439">
<time>2016-10-06T20:20:36Z</time></trkpt>
<trkpt lat="24.666676" lon="105.79407">
<time>2016-10-06T20:20:37Z</time></trkpt>
<trkpt lat="24.666865" lon="105.793669">
<time>2016-10-06T20:20:38Z</time></trkpt>
<trkpt lat="24.667064" lon="105.793369">
<time>2016-10-06T20:20:39Z</time></trkpt>
<trkpt lat="24.667254" lon="105.793158">
<time>2016-10-06T20:20:40Z</time></trkpt>
<trkpt lat="24.667494" lon="105.792978">
<time>2016-10-06T20:20:41Z</time></trkpt>
<trkpt lat="24.667744" lon="105.792818">
<time>2016-10-06T20:20:42Z</time></trkpt>
<trkpt lat="24.668033" lon="105.792708">
<time>2016-10-06T20:20:43Z</time></trkpt>
<trkpt lat="24.668073" lon="105.792708">
<time>2016-10-06T20:20:44Z</time></trkpt>
<trkpt lat="24.668243" lon="105.792668">
<time>2016-10-06T20:20:45Z</time></trkpt>
<trkpt lat="24.668483" lon="105.792638">
<time>2016-10-06T20:20:46Z</time></trkpt>
<trkpt lat="24.669473" lon="105.792547">
<time>2016-10-06T20:20:47Z</time></trkpt>
<trkpt lat="24.669493" lon="105.792537">
<time>2016-10-06T20:20:48Z</time></trkpt>
<trkpt lat="24.669493" lon="105.792537">
<time>2016-10-06T20:20:49Z</time></trkpt>
<trkpt lat="24.669533" lon="105.792527">
<time>2016-10-06T20:20:50Z</time></trkpt>
<trkpt lat="24.669543" lon="105.792517">
<time>2016-10-06T20:20:51Z</time></trkpt>
<trkpt lat="24.669553" lon="105.792507">
<time>2016-10-06T20:20:52Z</time></trkpt>
<trkpt lat="24.669553" lon="105.792497">
<time>2016-10-06T20:20:53Z</time></trkpt>
<trkpt lat="24.669583" lon="105.792457">
<time>2016-10-06T20:20:54Z</time></trkpt>
<trkpt lat="24.669583" lon="105.792427">
<time>2016-10-06T20:20:55Z</time></trkpt>
<trkpt lat="24.669593" lon="105.792407">
<time>2016-10-06T20:20:56Z</time></trkpt>
<trkpt lat="24.669603" lon="105.792377">
<time>2016-10-06T20:20:57Z</time></trkpt>
<trkpt lat="24.669603" lon="105.792347">
<time>2016-10-06T20:20:58Z</time></trkpt>
<trkpt lat="24.669603" lon="105.792307">
<time>2016-10-06T20:20:59Z</time></trkpt>
<trkpt lat="24.669512" lon="105.791696">
<time>2016-10-06T20:21:00Z</time></trkpt>
<trkpt lat="24.669381" lon="105.791105">
<time>2016-10-06T20:21:01Z</time></trkpt>
<trkpt lat="24.66926" lon="105.790635">
<time>2016-10-06T20:21:02Z</time></trkpt>
<trkpt lat="24.669098" lon="105.789233">
<time>2016-10-06T20:21:03Z</time></trkpt>
<trkpt lat="24.669087" lon="105.788572">
<time>2016-10-06T20:21:04Z</time></trkpt>
<trkpt lat="24.669137" lon="105.788342">
<time>2016-10-06T20:21:05Z</time></trkpt>
<trkpt lat="24.669317" lon="105.787952">
<time>2016-10-06T20:21:06Z</time></trkpt>
<trkpt lat="24.669436" lon="105.787641">
<time>2016-10-06T20:21:07Z</time></trkpt>
<trkpt lat="24.669595" lon="105.787151">
<time>2016-10-06T20:21:08Z</time></trkpt>
<trkpt lat="24.669725" lon="105.78687">
<time>2016-10-06T20:21:09Z</time></trkpt>
<trkpt lat="24.669885" lon="105.78667">
<time>2016-10-06T20:21:10Z</time></trkpt>
<trkpt lat="24.670055" lon="105.78643">
<time>2016-10-06T20:21:11Z</time></trkpt>
<trkpt lat="24.670264" lon="105.786129">
<time>2016-10-06T20:21:12Z</time></trkpt>
<trkpt lat="24.670424" lon="105.785769">
<time>2016-10-06T20:21:13Z</time></trkpt>
<trkpt lat="24.670613" lon="105.785248">
<time>2016-10-06T20:21:14Z</time></trkpt>
<trkpt lat="24.670892" lon="105.784457">
<time>2016-10-06T20:21:15Z</time></trkpt>
<trkpt lat="24.670962" lon="105.784157">
<time>2016-10-06T20:21:16Z</time></trkpt>
<trkpt lat="24.671001" lon="105.783927">
<time>2016-10-06T20:21:17Z</time></trkpt>
<trkpt lat="24.671011" lon="105.783677">
<time>2016-10-06T20:21:18Z</time></trkpt>
<trkpt lat="24.670981" lon="105.783466">
<time>2016-10-06T20:21:19Z</time></trkpt>
<trkpt lat="24.6709" lon="105.783076">
<time>2016-10-06T20:21:20Z</time></trkpt>
<trkpt lat="24.67083" lon="105.782605">
<time>2016-10-06T20:21:21Z</time></trkpt>
<trkpt lat="24.670809" lon="105.782195">
<time>2016-10-06T20:21:22Z</time></trkpt>
<trkpt lat="24.670829" lon="105.781785">
<time>2016-10-06T20:21:23Z</time></trkpt>
<trkpt lat="24.670898" lon="105.781304">
<time>2016-10-06T20:21:24Z</time></trkpt>
<trkpt lat="24.670988" lon="105.780944">
<time>2016-10-06T20:21:25Z</time></trkpt>
<trkpt lat="24.671057" lon="105.780653">
<time>2016-10-06T20:21:26Z</time></trkpt>
<trkpt lat="24.671177" lon="105.780433">
<time>2016-10-06T20:21:27Z</time></trkpt>
<trkpt lat="24.671357" lon="105.780113">
<time>2016-10-06T20:21:28Z</time></trkpt>
<trkpt lat="24.671496" lon="105.779893">
<time>2016-10-06T20:21:29Z</time></trkpt>
<trkpt lat="24.671526" lon="105.779793">
<time>2016-10-06T20:21:30Z</time></trkpt>
<trkpt lat="24.671586" lon="105.779572">
<time>2016-10-06T20:21:31Z</time></trkpt>
<trkpt lat="24.671626" lon="105.779252">
<time>2016-10-06T20:21:32Z</time></trkpt>
<trkpt lat="24.671695" lon="105.779002">
<time>2016-10-06T20:21:33Z</time></trkpt>
<trkpt lat="24.671954" lon="105.778321">
<time>2016-10-06T20:21:34Z</time></trkpt>
<trkpt lat="24.672054" lon="105.778041">
<time>2016-10-06T20:21:35Z</time></trkpt>
<trkpt lat="24.672094" lon="105.777781">
<time>2016-10-06T20:21:36Z</time></trkpt>
<trkpt lat="24.672173" lon="105.77724">
<time>2016-10-06T20:21:37Z</time></trkpt>
<trkpt lat="24.672183" lon="105.77707">
<time>2016-10-06T20:21:38Z</time></trkpt>
<trkpt lat="24.672183" lon="105.77683">
<time>2016-10-06T20:21:39Z</time></trkpt>
<trkpt lat="24.672173" lon="105.77669">
<time>2016-10-06T20:21:40Z</time></trkpt>
<trkpt lat="24.672173" lon="105.77656">
<time>2016-10-06T20:21:41Z</time></trkpt>
<trkpt lat="24.672182" lon="105.776309">
<time>2016-10-06T20:21:42Z</time></trkpt>
<trkpt lat="24.672222" lon="105.776069">
<time>2016-10-06T20:21:43Z</time></trkpt>
<trkpt lat="24.672222" lon="105.775929">
<time>2016-10-06T20:21:44Z</time></trkpt>
<trkpt lat="24.672202" lon="105.775779">
<time>2016-10-06T20:21:45Z</time></trkpt>
<trkpt lat="24.672121" lon="105.775479">
<time>2016-10-06T20:21:46Z</time></trkpt>
<trkpt lat="24.672091" lon="105.775179">
<time>2016-10-06T20:21:47Z</time></trkpt>
<trkpt lat="24.672091" lon="105.774978">
<time>2016-10-06T20:21:48Z</time></trkpt>
<trkpt lat="24.672171" lon="105.774708">
<time>2016-10-06T20:21:49Z</time></trkpt>
<trkpt lat="24.67226" lon="105.774418">
<time>2016-10-06T20:21:50Z</time></trkpt>
<trkpt lat="24.67234" lon="105.774168">
<time>2016-10-06T20:21:51Z</time></trkpt>
<trkpt lat="24.67239" lon="105.773908">
<time>2016-10-06T20:21:52Z</time></trkpt>
<trkpt lat="24.672469" lon="105.773497">
<time>2016-10-06T20:21:53Z</time></trkpt>
<trkpt lat="24.672649" lon="105.772687">
<time>2016-10-06T20:21:54Z</time></trkpt>
<trkpt lat="24.672828" lon="105.771946">
<time>2016-10-06T20:21:55Z</time></trkpt>
<trkpt lat="24.672898" lon="105.771746">
<time>2016-10-06T20:21:56Z</time></trkpt>
<trkpt lat="24.673018" lon="105.771526">
<time>2016-10-06T20:21:57Z</time></trkpt>
<trkpt lat="24.673167" lon="105.771296">
<time>2016-10-06T20:21:58Z</time></trkpt>
<trkpt lat="24.673217" lon="105.771146">
<time>2016-10-06T20:21:59Z</time></trkpt>
<trkpt lat="24.673237" lon="105.770985">
<time>2016-10-06T20:22:00Z</time></trkpt>
<trkpt lat="24.673247" lon="105.770765">
<time>2016-10-06T20:22:01Z</time></trkpt>
<trkpt lat="24.673247" lon="105.770575">
<time>2016-10-06T20:22:02Z</time></trkpt>
<trkpt lat="24.673257" lon="105.770365">
<time>2016-10-06T20:22:03Z</time></trkpt>
<trkpt lat="24.673326" lon="105.769975">
<time>2016-10-06T20:22:04Z</time></trkpt>
<trkpt lat="24.673326" lon="105.769925">
<time>2016-10-06T20:22:05Z</time></trkpt>
<trkpt lat="24.673326" lon="105.769855">
<time>2016-10-06T20:22:06Z</time></trkpt>
<trkpt lat="24.673316" lon="105.769755">
<time>2016-10-06T20:22:07Z</time></trkpt>
<trkpt lat="24.673286" lon="105.769665">
<time>2016-10-06T20:22:08Z</time></trkpt>
<trkpt lat="24.673256" lon="105.769595">
<time>2016-10-06T20:22:09Z</time></trkpt>
<trkpt lat="24.673206" lon="105.769515">
<time>2016-10-06T20:22:10Z</time></trkpt>
<trkpt lat="24.673156" lon="105.769435">
<time>2016-10-06T20:22:11Z</time></trkpt>
<trkpt lat="24.673076" lon="105.769344">
<time>2016-10-06T20:22:12Z</time></trkpt>
<trkpt lat="24.672956" lon="105.769224">
<time>2016-10-06T20:22:13Z</time></trkpt>
<trkpt lat="24.672936" lon="105.769204">
<time>2016-10-06T20:22:14Z</time></trkpt>
<trkpt lat="24.672866" lon="105.769134">
<time>2016-10-06T20:22:15Z</time></trkpt>
<trkpt lat="24.672836" lon="105.769084">
<time>2016-10-06T20:22:16Z</time></trkpt>
<trkpt lat="24.672805" lon="105.769024">
<time>2016-10-06T20:22:17Z</time></trkpt>
<trkpt lat="24.672795" lon="105.768974">
<time>2016-10-06T20:22:18Z</time></trkpt>
<trkpt lat="24.672775" lon="105.768924">
<time>2016-10-06T20:22:19Z</time></trkpt>
<trkpt lat="24.672765" lon="105.768854">
<time>2016-10-06T20:22:20Z</time></trkpt>
<trkpt lat="24.672735" lon="105.768244">
<time>2016-10-06T20:22:21Z</time></trkpt>
<trkpt lat="24.672694" lon="105.767393">
<time>2016-10-06T20:22:22Z</time></trkpt>
<trkpt lat="24.672694" lon="105.767393">
<time>2016-10-06T20:22:23Z</time></trkpt>
<trkpt lat="24.672724" lon="105.767373">
<time>2016-10-06T20:22:24Z</time></trkpt>
<trkpt lat="24.672794" lon="105.767293">
<time>2016-10-06T20:22:25Z</time></trkpt>
<trkpt lat="24.672874" lon="105.767173">
<time>2016-10-06T20:22:26Z</time></trkpt>
<trkpt lat="24.672944" lon="105.766983">
<time>2016-10-06T20:22:27Z</time></trkpt>
<trkpt lat="24.673004" lon="105.766723">
<time>2016-10-06T20:22:28Z</time></trkpt>
<trkpt lat="24.673133" lon="105.766193">
<time>2016-10-06T20:22:29Z</time></trkpt>
<trkpt lat="24.673173" lon="105.766093">
<time>2016-10-06T20:22:30Z</time></trkpt>
<trkpt lat="24.673263" lon="105.765783">
<time>2016-10-06T20:22:31Z</time></trkpt>
<trkpt lat="24.673333" lon="105.765603">
<time>2016-10-06T20:22:32Z</time></trkpt>
<trkpt lat="24.673403" lon="105.765473">
<time>2016-10-06T20:22:33Z</time></trkpt>
<trkpt lat="24.673493" lon="105.765362">
<time>2016-10-06T20:22:34Z</time></trkpt>
<trkpt lat="24.673653" lon="105.765172">
<time>2016-10-06T20:22:35Z</time></trkpt>
<trkpt lat="24.674042" lon="105.764702">
<time>2016-10-06T20:22:36Z</time></trkpt>
<trkpt lat="24.674382" lon="105.764252">
<time>2016-10-06T20:22:37Z</time></trkpt>
<trkpt lat="24.674881" lon="105.763422">
<time>2016-10-06T20:22:38Z</time></trkpt>
<trkpt lat="24.67601" lon="105.761511">
<time>2016-10-06T20:22:39Z</time></trkpt>
<trkpt lat="24.67674" lon="105.760311">
<time>2016-10-06T20:22:40Z</time></trkpt>
<trkpt lat="24.677459" lon="105.75929">
<time>2016-10-06T20:22:41Z</time></trkpt>
<trkpt lat="24.677699" lon="105.7589">
<time>2016-10-06T20:22:42Z</time></trkpt>
<trkpt lat="24.677859" lon="105.75858">
<time>2016-10-06T20:22:43Z</time></trkpt>
<trkpt lat="24.678119" lon="105.75797">
<time>2016-10-06T20:22:44Z</time></trkpt>
<trkpt lat="24.678308" lon="105.75746">
<time>2016-10-06T20:22:45Z</time></trkpt>
<trkpt lat="24.678418" lon="105.75699">
<time>2016-10-06T20:22:46Z</time></trkpt>
<trkpt lat="24.678548" lon="105.75595">
<time>2016-10-06T20:22:47Z</time></trkpt>
<trkpt lat="24.678628" lon="105.75554">
<time>2016-10-06T20:22:48Z</time></trkpt>
<trkpt lat="24.678678" lon="105.75542">
<time>2016-10-06T20:22:49Z</time></trkpt>
<trkpt lat="24.678738" lon="105.75533">
<time>2016-10-06T20:22:50Z</time></trkpt>
<trkpt lat="24.678808" lon="105.75522">
<time>2016-10-06T20:22:51Z</time></trkpt>
<trkpt lat="24.678908" lon="105.75512">
<time>2016-10-06T20:22:52Z</time></trkpt>
<trkpt lat="24.679018" lon="105.75504">
<time>2016-10-06T20:22:53Z</time></trkpt>
<trkpt lat="24.679178" lon="105.75495">
<time>2016-10-06T20:22:54Z</time></trkpt>
<trkpt lat="24.679977" lon="105.75461">
<time>2016-10-06T20:22:55Z</time></trkpt>
<trkpt lat="24.680137" lon="105.75454">
<time>2016-10-06T20:22:56Z</time></trkpt>
<trkpt lat="24.680347" lon="105.75445">
<time>2016-10-06T20:22:57Z</time></trkpt>
<trkpt lat="24.680937" lon="105.75419">
<time>2016-10-06T20:22:58Z</time></trkpt>
<trkpt lat="24.681077" lon="105.7541">
<time>2016-10-06T20:22:59Z</time></trkpt>
<trkpt lat="24.681177" lon="105.75401">
<time>2016-10-06T20:23:00Z</time></trkpt>
<trkpt lat="24.681267" lon="105.75389">
<time>2016-10-06T20:23:01Z</time></trkpt>
<trkpt lat="24.681317" lon="105.75376">
<time>2016-10-06T20:23:02Z</time></trkpt>
<trkpt lat="24.681357" lon="105.75361">
<time>2016-10-06T20:23:03Z</time></trkpt>
<trkpt lat="24.681367" lon="105.75343">
<time>2016-10-06T20:23:04Z</time></trkpt>
<trkpt lat="24.681377" lon="105.75305">
<time>2016-10-06T20:23:05Z</time></trkpt>
<trkpt lat="24.681357" lon="105.75244">
<time>2016-10-06T20:23:06Z</time></trkpt>
<trkpt lat="24.681347" lon="105.75207">
<time>2016-10-06T20:23:07Z</time></trkpt>
<trkpt lat="24.681367" lon="105.75169">
<time>2016-10-06T20:23:08Z</time></trkpt>
<trkpt lat="24.681437" lon="105.75146">
<time>2016-10-06T20:23:09Z</time></trkpt>
<trkpt lat="24.681497" lon="105.75131">
<time>2016-10-06T20:23:10Z</time></trkpt>
<trkpt lat="24.681627" lon="105.75108">
<time>2016-10-06T20:23:11Z</time></trkpt>
<trkpt lat="24.681757" lon="105.75084">
<time>2016-10-06T20:23:12Z</time></trkpt>
<trkpt lat="24.681817" lon="105.75072">
<time>2016-10-06T20:23:13Z</time></trkpt>
<trkpt lat="24.681897" lon="105.75059">
<time>2016-10-06T20:23:14Z</time></trkpt>
<trkpt lat="24.681976" lon="105.75042">
<time>2016-10-06T20:23:15Z</time></trkpt>
<trkpt lat="24.682016" lon="105.75033">
<time>2016-10-06T20:23:16Z</time></trkpt>
<trkpt lat="24.682076" lon="105.75018">
<time>2016-10-06T20:23:17Z</time></trkpt>
<trkpt lat="24.682096" lon="105.75011">
<time>2016-10-06T20:23:18Z</time></trkpt>
<trkpt lat="24.682116" lon="105.75001">
<time>2016-10-06T20:23:19Z</time></trkpt>
<trkpt lat="24.682186" lon="105.749751">
<time>2016-10-06T20:23:20Z</time></trkpt>
<trkpt lat="24.682226" lon="105.749511">
<time>2016-10-06T20:23:21Z</time></trkpt>
<trkpt lat="24.682296" lon="105.749021">
<time>2016-10-06T20:23:22Z</time></trkpt>
<trkpt lat="24.682366" lon="105.748761">
<time>2016-10-06T20:23:23Z</time></trkpt>
<trkpt lat="24.682416" lon="105.748541">
<time>2016-10-06T20:23:24Z</time></trkpt>
<trkpt lat="24.682506" lon="105.748291">
<time>2016-10-06T20:23:25Z</time></trkpt>
<trkpt lat="24.682726" lon="105.747891">
<time>2016-10-06T20:23:26Z</time></trkpt>
<trkpt lat="24.682906" lon="105.747671">
<time>2016-10-06T20:23:27Z</time></trkpt>
<trkpt lat="24.683036" lon="105.747531">
<time>2016-10-06T20:23:28Z</time></trkpt>
<trkpt lat="24.683986" lon="105.746481">
<time>2016-10-06T20:23:29Z</time></trkpt>
<trkpt lat="24.684496" lon="105.745992">
<time>2016-10-06T20:23:30Z</time></trkpt>
<trkpt lat="24.684916" lon="105.745612">
<time>2016-10-06T20:23:31Z</time></trkpt>
<trkpt lat="24.685196" lon="105.745412">
<time>2016-10-06T20:23:32Z</time></trkpt>
<trkpt lat="24.685556" lon="105.745202">
<time>2016-10-06T20:23:33Z</time></trkpt>
<trkpt lat="24.686026" lon="105.744962">
<time>2016-10-06T20:23:34Z</time></trkpt>
<trkpt lat="24.686766" lon="105.744682">
<time>2016-10-06T20:23:35Z</time></trkpt>
<trkpt lat="24.687916" lon="105.744212">
<time>2016-10-06T20:23:36Z</time></trkpt>
<trkpt lat="24.688356" lon="105.744012">
<time>2016-10-06T20:23:37Z</time></trkpt>
<trkpt lat="24.688586" lon="105.743872">
<time>2016-10-06T20:23:38Z</time></trkpt>
<trkpt lat="24.688776" lon="105.743732">
<time>2016-10-06T20:23:39Z</time></trkpt>
<trkpt lat="24.688876" lon="105.743632">
<time>2016-10-06T20:23:40Z</time></trkpt>
<trkpt lat="24.688996" lon="105.743512">
<time>2016-10-06T20:23:41Z</time></trkpt>
<trkpt lat="24.689096" lon="105.743373">
<time>2016-10-06T20:23:42Z</time></trkpt>
<trkpt lat="24.689206" lon="105.743193">
<time>2016-10-06T20:23:43Z</time></trkpt>
<trkpt lat="24.689316" lon="105.742993">
<time>2016-10-06T20:23:44Z</time></trkpt>
<trkpt lat="24.689456" lon="105.742663">
<time>2016-10-06T20:23:45Z</time></trkpt>
<trkpt lat="24.689757" lon="105.741943">
<time>2016-10-06T20:23:46Z</time></trkpt>
<trkpt lat="24.689947" lon="105.741583">
<time>2016-10-06T20:23:47Z</time></trkpt>
<trkpt lat="24.690067" lon="105.741384">
<time>2016-10-06T20:23:48Z</time></trkpt>
<trkpt lat="24.690187" lon="105.741224">
<time>2016-10-06T20:23:49Z</time></trkpt>
<trkpt lat="24.690487" lon="105.740884">
<time>2016-10-06T20:23:50Z</time></trkpt>
<trkpt lat="24.691267" lon="105.740004">
<time>2016-10-06T20:23:51Z</time></trkpt>
<trkpt lat="24.691537" lon="105.739665">
<time>2016-10-06T20:23:52Z</time></trkpt>
<trkpt lat="24.691627" lon="105.739525">
<time>2016-10-06T20:23:53Z</time></trkpt>
<trkpt lat="24.691657" lon="105.739415">
<time>2016-10-06T20:23:54Z</time></trkpt>
<trkpt lat="24.691657" lon="105.739295">
<time>2016-10-06T20:23:55Z</time></trkpt>
<trkpt lat="24.691657" lon="105.739155">
<time>2016-10-06T20:23:56Z</time></trkpt>
<trkpt lat="24.691627" lon="105.739025">
<time>2016-10-06T20:23:57Z</time></trkpt>
<trkpt lat="24.691547" lon="105.738845">
<time>2016-10-06T20:23:58Z</time></trkpt>
<trkpt lat="24.691447" lon="105.738655">
<time>2016-10-06T20:23:59Z</time></trkpt>
<trkpt lat="24.691377" lon="105.738505">
<time>2016-10-06T20:24:00Z</time></trkpt>
<trkpt lat="24.690418" lon="105.736787">
<time>2016-10-06T20:24:01Z</time></trkpt>
<trkpt lat="24.690328" lon="105.736607">
<time>2016-10-06T20:24:02Z</time></trkpt>
<trkpt lat="24.690278" lon="105.736457">
<time>2016-10-06T20:24:03Z</time></trkpt>
<trkpt lat="24.690248" lon="105.736317">
<time>2016-10-06T20:24:04Z</time></trkpt>
<trkpt lat="24.690248" lon="105.736197">
<time>2016-10-06T20:24:05Z</time></trkpt>
<trkpt lat="24.690268" lon="105.736047">
<time>2016-10-06T20:24:06Z</time></trkpt>
<trkpt lat="24.69089" lon="105.73269">
<time>2016-10-06T20:24:07Z</time></trkpt>
<trkpt lat="24.69092" lon="105.732371">
<time>2016-10-06T20:24:08Z</time></trkpt>
<trkpt lat="24.69092" lon="105.732081">
<time>2016-10-06T20:24:09Z</time></trkpt>
<trkpt lat="24.69088" lon="105.731761">
<time>2016-10-06T20:24:10Z</time></trkpt>
<trkpt lat="24.690811" lon="105.731392">
<time>2016-10-06T20:24:11Z</time></trkpt>
<trkpt lat="24.690701" lon="105.731062">
<time>2016-10-06T20:24:12Z</time></trkpt>
<trkpt lat="24.690611" lon="105.730742">
<time>2016-10-06T20:24:13Z</time></trkpt>
<trkpt lat="24.690461" lon="105.730203">
<time>2016-10-06T20:24:14Z</time></trkpt>
<trkpt lat="24.690401" lon="105.729973">
<time>2016-10-06T20:24:15Z</time></trkpt>
<trkpt lat="24.690292" lon="105.729523">
<time>2016-10-06T20:24:16Z</time></trkpt>
<trkpt lat="24.690272" lon="105.729374">
<time>2016-10-06T20:24:17Z</time></trkpt>
<trkpt lat="24.690282" lon="105.729234">
<time>2016-10-06T20:24:18Z</time></trkpt>
<trkpt lat="24.690312" lon="105.729084">
<time>2016-10-06T20:24:19Z</time></trkpt>
<trkpt lat="24.690342" lon="105.728974">
<time>2016-10-06T20:24:20Z</time></trkpt>
<trkpt lat="24.690412" lon="105.728864">
<time>2016-10-06T20:24:21Z</time></trkpt>
<trkpt lat="24.690522" lon="105.728714">
<time>2016-10-06T20:24:22Z</time></trkpt>
<trkpt lat="24.690622" lon="105.728644">
<time>2016-10-06T20:24:23Z</time></trkpt>
<trkpt lat="24.690732" lon="105.728585">
<time>2016-10-06T20:24:24Z</time></trkpt>
<trkpt lat="24.690982" lon="105.728495">
<time>2016-10-06T20:24:25Z</time></trkpt>
<trkpt lat="24.691823" lon="105.728285">
<time>2016-10-06T20:24:26Z</time></trkpt>
<trkpt lat="24.692293" lon="105.728125">
<time>2016-10-06T20:24:27Z</time></trkpt>
<trkpt lat="24.692473" lon="105.728045">
<time>2016-10-06T20:24:28Z</time></trkpt>
<trkpt lat="24.692583" lon="105.727975">
<time>2016-10-06T20:24:29Z</time></trkpt>
<trkpt lat="24.692713" lon="105.727865">
<time>2016-10-06T20:24:30Z</time></trkpt>
<trkpt lat="24.692833" lon="105.727745">
<time>2016-10-06T20:24:31Z</time></trkpt>
<trkpt lat="24.693083" lon="105.727466">
<time>2016-10-06T20:24:32Z</time></trkpt>
<trkpt lat="24.693483" lon="105.726966">
<time>2016-10-06T20:24:33Z</time></trkpt>
<trkpt lat="24.693654" lon="105.726796">
<time>2016-10-06T20:24:34Z</time></trkpt>
<trkpt lat="24.693754" lon="105.726697">
<time>2016-10-06T20:24:35Z</time></trkpt>
<trkpt lat="24.693904" lon="105.726617">
<time>2016-10-06T20:24:36Z</time></trkpt>
<trkpt lat="24.694014" lon="105.726577">
<time>2016-10-06T20:24:37Z</time></trkpt>
<trkpt lat="24.694124" lon="105.726547">
<time>2016-10-06T20:24:38Z</time></trkpt>
<trkpt lat="24.694254" lon="105.726537">
<time>2016-10-06T20:24:39Z</time></trkpt>
<trkpt lat="24.694374" lon="105.726537">
<time>2016-10-06T20:24:40Z</time></trkpt>
<trkpt lat="24.694564" lon="105.726577">
<time>2016-10-06T20:24:41Z</time></trkpt>
<trkpt lat="24.694754" lon="105.726607">
<time>2016-10-06T20:24:42Z</time></trkpt>
<trkpt lat="24.694934" lon="105.726607">
<time>2016-10-06T20:24:43Z</time></trkpt>
<trkpt lat="24.695024" lon="105.726587">
<time>2016-10-06T20:24:44Z</time></trkpt>
<trkpt lat="24.695174" lon="105.726557">
<time>2016-10-06T20:24:45Z</time></trkpt>
<trkpt lat="24.695274" lon="105.726497">
<time>2016-10-06T20:24:46Z</time></trkpt>
<trkpt lat="24.695354" lon="105.726447">
<time>2016-10-06T20:24:47Z</time></trkpt>
<trkpt lat="24.695414" lon="105.726417">
<time>2016-10-06T20:24:48Z</time></trkpt>
<trkpt lat="24.695474" lon="105.726357">
<time>2016-10-06T20:24:49Z</time></trkpt>
<trkpt lat="24.695514" lon="105.726297">
<time>2016-10-06T20:24:50Z</time></trkpt>
<trkpt lat="24.695564" lon="105.726227">
<time>2016-10-06T20:24:51Z</time></trkpt>
<trkpt lat="24.695604" lon="105.726157">
<time>2016-10-06T20:24:52Z</time></trkpt>
<trkpt lat="24.695644" lon="105.726047">
<time>2016-10-06T20:24:53Z</time></trkpt>
<trkpt lat="24.695674" lon="105.725917">
<time>2016-10-06T20:24:54Z</time></trkpt>
<trkpt lat="24.695694" lon="105.725788">
<time>2016-10-06T20:24:55Z</time></trkpt>
<trkpt lat="24.695694" lon="105.725628">
<time>2016-10-06T20:24:56Z</time></trkpt>
<trkpt lat="24.695685" lon="105.725408">
<time>2016-10-06T20:24:57Z</time></trkpt>
<trkpt lat="24.695665" lon="105.725128">
<time>2016-10-06T20:24:58Z</time></trkpt>
<trkpt lat="24.695516" lon="105.72422">
<time>2016-10-06T20:24:59Z</time></trkpt>
<trkpt lat="24.695307" lon="105.722921">
<time>2016-10-06T20:25:00Z</time></trkpt>
<trkpt lat="24.695237" lon="105.722462">
<time>2016-10-06T20:25:01Z</time></trkpt>
<trkpt lat="24.695217" lon="105.722352">
<time>2016-10-06T20:25:02Z</time></trkpt>
<trkpt lat="24.695187" lon="105.722082">
<time>2016-10-06T20:25:03Z</time></trkpt>
<trkpt lat="24.695198" lon="105.721923">
<time>2016-10-06T20:25:04Z</time></trkpt>
<trkpt lat="24.695218" lon="105.721783">
<time>2016-10-06T20:25:05Z</time></trkpt>
<trkpt lat="24.695248" lon="105.721653">
<time>2016-10-06T20:25:06Z</time></trkpt>
<trkpt lat="24.695318" lon="105.721493">
<time>2016-10-06T20:25:07Z</time></trkpt>
<trkpt lat="24.695418" lon="105.721284">
<time>2016-10-06T20:25:08Z</time></trkpt>
<trkpt lat="24.695769" lon="105.720644">
<time>2016-10-06T20:25:09Z</time></trkpt>
<trkpt lat="24.69628" lon="105.719626">
<time>2016-10-06T20:25:10Z</time></trkpt>
<trkpt lat="24.69639" lon="105.719366">
<time>2016-10-06T20:25:11Z</time></trkpt>
<trkpt lat="24.69649" lon="105.719017">
<time>2016-10-06T20:25:12Z</time></trkpt>
<trkpt lat="24.696531" lon="105.718807">
<time>2016-10-06T20:25:13Z</time></trkpt>
<trkpt lat="24.696581" lon="105.718537">
<time>2016-10-06T20:25:14Z</time></trkpt>
<trkpt lat="24.696611" lon="105.718138">
<time>2016-10-06T20:25:15Z</time></trkpt>
<trkpt lat="24.696703" lon="105.71699">
<time>2016-10-06T20:25:16Z</time></trkpt>
<trkpt lat="24.696723" lon="105.716421">
<time>2016-10-06T20:25:17Z</time></trkpt>
<trkpt lat="24.696674" lon="105.715732">
<time>2016-10-06T20:25:18Z</time></trkpt>
<trkpt lat="24.696615" lon="105.714714">
<time>2016-10-06T20:25:19Z</time></trkpt>
<trkpt lat="24.696616" lon="105.713725">
<time>2016-10-06T20:25:20Z</time></trkpt>
<trkpt lat="24.696687" lon="105.712707">
<time>2016-10-06T20:25:21Z</time></trkpt>
<trkpt lat="24.696718" lon="105.712158">
<time>2016-10-06T20:25:22Z</time></trkpt>
<trkpt lat="24.69679" lon="105.71076">
<time>2016-10-06T20:25:23Z</time></trkpt>
<trkpt lat="24.696921" lon="105.709872">
<time>2016-10-06T20:25:24Z</time></trkpt>
<trkpt lat="24.697032" lon="105.709373">
<time>2016-10-06T20:25:25Z</time></trkpt>
<trkpt lat="24.697112" lon="105.709163">
<time>2016-10-06T20:25:26Z</time></trkpt>
<trkpt lat="24.697393" lon="105.708494">
<time>2016-10-06T20:25:27Z</time></trkpt>
<trkpt lat="24.697463" lon="105.708235">
<time>2016-10-06T20:25:28Z</time></trkpt>
<trkpt lat="24.697483" lon="105.708045">
<time>2016-10-06T20:25:29Z</time></trkpt>
<trkpt lat="24.697494" lon="105.707846">
<time>2016-10-06T20:25:30Z</time></trkpt>
<trkpt lat="24.697464" lon="105.707556">
<time>2016-10-06T20:25:31Z</time></trkpt>
<trkpt lat="24.697365" lon="105.706748">
<time>2016-10-06T20:25:32Z</time></trkpt>
<trkpt lat="24.697296" lon="105.706259">
<time>2016-10-06T20:25:33Z</time></trkpt>
<trkpt lat="24.697286" lon="105.705879">
<time>2016-10-06T20:25:34Z</time></trkpt>
<trkpt lat="24.697317" lon="105.70555">
<time>2016-10-06T20:25:35Z</time></trkpt>
<trkpt lat="24.697438" lon="105.704732">
<time>2016-10-06T20:25:36Z</time></trkpt>
<trkpt lat="24.697569" lon="105.703923">
<time>2016-10-06T20:25:37Z</time></trkpt>
<trkpt lat="24.697639" lon="105.703634">
<time>2016-10-06T20:25:38Z</time></trkpt>
<trkpt lat="24.69771" lon="105.703434">
<time>2016-10-06T20:25:39Z</time></trkpt>
<trkpt lat="24.69779" lon="105.703304">
<time>2016-10-06T20:25:40Z</time></trkpt>
<trkpt lat="24.69795" lon="105.703085">
<time>2016-10-06T20:25:41Z</time></trkpt>
<trkpt lat="24.698241" lon="105.702775">
<time>2016-10-06T20:25:42Z</time></trkpt>
<trkpt lat="24.698391" lon="105.702586">
<time>2016-10-06T20:25:43Z</time></trkpt>
<trkpt lat="24.698551" lon="105.702356">
<time>2016-10-06T20:25:44Z</time></trkpt>
<trkpt lat="24.698662" lon="105.702167">
<time>2016-10-06T20:25:45Z</time></trkpt>
<trkpt lat="24.698782" lon="105.701827">
<time>2016-10-06T20:25:46Z</time></trkpt>
<trkpt lat="24.699435" lon="105.699792">
<time>2016-10-06T20:25:47Z</time></trkpt>
<trkpt lat="24.699767" lon="105.698834">
<time>2016-10-06T20:25:48Z</time></trkpt>
<trkpt lat="24.700139" lon="105.697676">
<time>2016-10-06T20:25:49Z</time></trkpt>
<trkpt lat="24.700359" lon="105.697127">
<time>2016-10-06T20:25:50Z</time></trkpt>
<trkpt lat="24.70044" lon="105.696987">
<time>2016-10-06T20:25:51Z</time></trkpt>
<trkpt lat="24.70055" lon="105.696848">
<time>2016-10-06T20:25:52Z</time></trkpt>
<trkpt lat="24.7007" lon="105.696688">
<time>2016-10-06T20:25:53Z</time></trkpt>
<trkpt lat="24.70087" lon="105.696508">
<time>2016-10-06T20:25:54Z</time></trkpt>
<trkpt lat="24.700931" lon="105.696389">
<time>2016-10-06T20:25:55Z</time></trkpt>
<trkpt lat="24.700971" lon="105.696289">
<time>2016-10-06T20:25:56Z</time></trkpt>
<trkpt lat="24.700991" lon="105.696209">
<time>2016-10-06T20:25:57Z</time></trkpt>
<trkpt lat="24.701001" lon="105.696119">
<time>2016-10-06T20:25:58Z</time></trkpt>
<trkpt lat="24.701001" lon="105.69604">
<time>2016-10-06T20:25:59Z</time></trkpt>
<trkpt lat="24.700991" lon="105.69595">
<time>2016-10-06T20:26:00Z</time></trkpt>
<trkpt lat="24.700962" lon="105.69579">
<time>2016-10-06T20:26:01Z</time></trkpt>
<trkpt lat="24.700922" lon="105.69566">
<time>2016-10-06T20:26:02Z</time></trkpt>
<trkpt lat="24.700822" lon="105.695401">
<time>2016-10-06T20:26:03Z</time></trkpt>
<trkpt lat="24.700603" lon="105.694922">
<time>2016-10-06T20:26:04Z</time></trkpt>
<trkpt lat="24.700513" lon="105.694613">
<time>2016-10-06T20:26:05Z</time></trkpt>
<trkpt lat="24.700484" lon="105.694423">
<time>2016-10-06T20:26:06Z</time></trkpt>
<trkpt lat="24.700474" lon="105.694253">
<time>2016-10-06T20:26:07Z</time></trkpt>
<trkpt lat="24.700495" lon="105.693884">
<time>2016-10-06T20:26:08Z</time></trkpt>
<trkpt lat="24.700627" lon="105.692647">
<time>2016-10-06T20:26:09Z</time></trkpt>
<trkpt lat="24.700667" lon="105.692428">
<time>2016-10-06T20:26:10Z</time></trkpt>
<trkpt lat="24.700698" lon="105.692208">
<time>2016-10-06T20:26:11Z</time></trkpt>
<trkpt lat="24.700788" lon="105.691879">
<time>2016-10-06T20:26:12Z</time></trkpt>
<trkpt lat="24.700889" lon="105.691599">
<time>2016-10-06T20:26:13Z</time></trkpt>
<trkpt lat="24.700969" lon="105.69141">
<time>2016-10-06T20:26:14Z</time></trkpt>
<trkpt lat="24.701079" lon="105.69117">
<time>2016-10-06T20:26:15Z</time></trkpt>
<trkpt lat="24.70126" lon="105.690831">
<time>2016-10-06T20:26:16Z</time></trkpt>
<trkpt lat="24.702544" lon="105.688507">
<time>2016-10-06T20:26:17Z</time></trkpt>
<trkpt lat="24.703226" lon="105.68719">
<time>2016-10-06T20:26:18Z</time></trkpt>
<trkpt lat="24.703327" lon="105.68692">
<time>2016-10-06T20:26:19Z</time></trkpt>
<trkpt lat="24.703387" lon="105.686721">
<time>2016-10-06T20:26:20Z</time></trkpt>
<trkpt lat="24.703407" lon="105.686621">
<time>2016-10-06T20:26:21Z</time></trkpt>
<trkpt lat="24.703428" lon="105.686402">
<time>2016-10-06T20:26:22Z</time></trkpt>
<trkpt lat="24.703459" lon="105.685813">
<time>2016-10-06T20:26:23Z</time></trkpt>
<trkpt lat="24.703489" lon="105.685514">
<time>2016-10-06T20:26:24Z</time></trkpt>
<trkpt lat="24.70354" lon="105.685304">
<time>2016-10-06T20:26:25Z</time></trkpt>
<trkpt lat="24.7036" lon="105.685105">
<time>2016-10-06T20:26:26Z</time></trkpt>
<trkpt lat="24.703901" lon="105.684426">
<time>2016-10-06T20:26:27Z</time></trkpt>
<trkpt lat="24.703992" lon="105.684217">
<time>2016-10-06T20:26:28Z</time></trkpt>
<trkpt lat="24.704252" lon="105.683698">
<time>2016-10-06T20:26:29Z</time></trkpt>
<trkpt lat="24.704563" lon="105.683229">
<time>2016-10-06T20:26:30Z</time></trkpt>
<trkpt lat="24.705235" lon="105.682311">
<time>2016-10-06T20:26:31Z</time></trkpt>
<trkpt lat="24.705516" lon="105.681972">
<time>2016-10-06T20:26:32Z</time></trkpt>
<trkpt lat="24.705816" lon="105.681523">
<time>2016-10-06T20:26:33Z</time></trkpt>
<trkpt lat="24.706298" lon="105.680765">
<time>2016-10-06T20:26:34Z</time></trkpt>
<trkpt lat="24.706529" lon="105.680366">
<time>2016-10-06T20:26:35Z</time></trkpt>
<trkpt lat="24.706539" lon="105.680346">
<time>2016-10-06T20:26:36Z</time></trkpt>
<trkpt lat="24.706789" lon="105.679977">
<time>2016-10-06T20:26:37Z</time></trkpt>
<trkpt lat="24.70696" lon="105.679728">
<time>2016-10-06T20:26:38Z</time></trkpt>
<trkpt lat="24.70717" lon="105.679379">
<time>2016-10-06T20:26:39Z</time></trkpt>
<trkpt lat="24.707261" lon="105.679259">
<time>2016-10-06T20:26:40Z</time></trkpt>
<trkpt lat="24.707341" lon="105.679179">
<time>2016-10-06T20:26:41Z</time></trkpt>
<trkpt lat="24.707421" lon="105.679119">
<time>2016-10-06T20:26:42Z</time></trkpt>
<trkpt lat="24.707471" lon="105.679089">
<time>2016-10-06T20:26:43Z</time></trkpt>
<trkpt lat="24.707491" lon="105.679079">
<time>2016-10-06T20:26:44Z</time></trkpt>
<trkpt lat="24.707571" lon="105.679039">
<time>2016-10-06T20:26:45Z</time></trkpt>
<trkpt lat="24.707741" lon="105.678979">
<time>2016-10-06T20:26:46Z</time></trkpt>
<trkpt lat="24.707911" lon="105.67893">
<time>2016-10-06T20:26:47Z</time></trkpt>
<trkpt lat="24.708001" lon="105.67889">
<time>2016-10-06T20:26:48Z</time></trkpt>
<trkpt lat="24.708111" lon="105.67881">
<time>2016-10-06T20:26:49Z</time></trkpt>
<trkpt lat="24.708192" lon="105.67873">
<time>2016-10-06T20:26:50Z</time></trkpt>
<trkpt lat="24.708242" lon="105.67866">
<time>2016-10-06T20:26:51Z</time></trkpt>
<trkpt lat="24.708272" lon="105.67859">
<time>2016-10-06T20:26:52Z</time></trkpt>
<trkpt lat="24.708282" lon="105.67857">
<time>2016-10-06T20:26:53Z</time></trkpt>
<trkpt lat="24.708302" lon="105.678491">
<time>2016-10-06T20:26:54Z</time></trkpt>
<trkpt lat="24.708302" lon="105.678391">
<time>2016-10-06T20:26:55Z</time></trkpt>
<trkpt lat="24.708302" lon="105.678301">
<time>2016-10-06T20:26:56Z</time></trkpt>
<trkpt lat="24.708273" lon="105.678211">
<time>2016-10-06T20:26:57Z</time></trkpt>
<trkpt lat="24.708233" lon="105.678122">
<time>2016-10-06T20:26:58Z</time></trkpt>
<trkpt lat="24.708093" lon="105.677912">
<time>2016-10-06T20:26:59Z</time></trkpt>
<trkpt lat="24.707923" lon="105.677713">
<time>2016-10-06T20:27:00Z</time></trkpt>
<trkpt lat="24.707854" lon="105.677603">
<time>2016-10-06T20:27:01Z</time></trkpt>
<trkpt lat="24.707814" lon="105.677523">
<time>2016-10-06T20:27:02Z</time></trkpt>
<trkpt lat="24.707794" lon="105.677443">
<time>2016-10-06T20:27:03Z</time></trkpt>
<trkpt lat="24.707784" lon="105.677354">
<time>2016-10-06T20:27:04Z</time></trkpt>
<trkpt lat="24.707794" lon="105.677284">
<time>2016-10-06T20:27:05Z</time></trkpt>
<trkpt lat="24.707824" lon="105.677184">
<time>2016-10-06T20:27:06Z</time></trkpt>
<trkpt lat="24.707925" lon="105.676974">
<time>2016-10-06T20:27:07Z</time></trkpt>
<trkpt lat="24.708055" lon="105.676795">
<time>2016-10-06T20:27:08Z</time></trkpt>
<trkpt lat="24.708135" lon="105.676665">
<time>2016-10-06T20:27:09Z</time></trkpt>
<trkpt lat="24.708196" lon="105.676506">
<time>2016-10-06T20:27:10Z</time></trkpt>
<trkpt lat="24.708216" lon="105.676366">
<time>2016-10-06T20:27:11Z</time></trkpt>
<trkpt lat="24.708216" lon="105.676236">
<time>2016-10-06T20:27:12Z</time></trkpt>
<trkpt lat="24.708216" lon="105.676226">
<time>2016-10-06T20:27:13Z</time></trkpt>
<trkpt lat="24.708187" lon="105.675997">
<time>2016-10-06T20:27:14Z</time></trkpt>
<trkpt lat="24.708117" lon="105.675777">
<time>2016-10-06T20:27:15Z</time></trkpt>
<trkpt lat="24.708028" lon="105.675538">
<time>2016-10-06T20:27:16Z</time></trkpt>
<trkpt lat="24.707958" lon="105.675219">
<time>2016-10-06T20:27:17Z</time></trkpt>
<trkpt lat="24.707879" lon="105.67488">
<time>2016-10-06T20:27:18Z</time></trkpt>
<trkpt lat="24.707809" lon="105.67468">
<time>2016-10-06T20:27:19Z</time></trkpt>
<trkpt lat="24.70778" lon="105.674491">
<time>2016-10-06T20:27:20Z</time></trkpt>
<trkpt lat="24.70777" lon="105.674311">
<time>2016-10-06T20:27:21Z</time></trkpt>
<trkpt lat="24.70779" lon="105.674112">
<time>2016-10-06T20:27:22Z</time></trkpt>
<trkpt lat="24.707881" lon="105.673743">
<time>2016-10-06T20:27:23Z</time></trkpt>
<trkpt lat="24.707942" lon="105.673413">
<time>2016-10-06T20:27:24Z</time></trkpt>
<trkpt lat="24.707972" lon="105.673174">
<time>2016-10-06T20:27:25Z</time></trkpt>
<trkpt lat="24.707983" lon="105.672765">
<time>2016-10-06T20:27:26Z</time></trkpt>
<trkpt lat="24.708014" lon="105.672007">
<time>2016-10-06T20:27:27Z</time></trkpt>
<trkpt lat="24.707985" lon="105.671818">
<time>2016-10-06T20:27:28Z</time></trkpt>
<trkpt lat="24.707985" lon="105.671658">
<time>2016-10-06T20:27:29Z</time></trkpt>
<trkpt lat="24.707995" lon="105.671518">
<time>2016-10-06T20:27:30Z</time></trkpt>
<trkpt lat="24.708015" lon="105.671399">
<time>2016-10-06T20:27:31Z</time></trkpt>
<trkpt lat="24.708056" lon="105.671269">
<time>2016-10-06T20:27:32Z</time></trkpt>
<trkpt lat="24.708096" lon="105.671189">
<time>2016-10-06T20:27:33Z</time></trkpt>
<trkpt lat="24.708166" lon="105.671119">
<time>2016-10-06T20:27:34Z</time></trkpt>
<trkpt lat="24.708216" lon="105.671059">
<time>2016-10-06T20:27:35Z</time></trkpt>
<trkpt lat="24.708286" lon="105.67101">
<time>2016-10-06T20:27:36Z</time></trkpt>
<trkpt lat="24.708346" lon="105.67097">
<time>2016-10-06T20:27:37Z</time></trkpt>
<trkpt lat="24.708576" lon="105.67088">
<time>2016-10-06T20:27:38Z</time></trkpt>
<trkpt lat="24.708787" lon="105.67077">
<time>2016-10-06T20:27:39Z</time></trkpt>
<trkpt lat="24.708897" lon="105.67068">
<time>2016-10-06T20:27:40Z</time></trkpt>
<trkpt lat="24.708957" lon="105.670621">
<time>2016-10-06T20:27:41Z</time></trkpt>
<trkpt lat="24.709017" lon="105.670521">
<time>2016-10-06T20:27:42Z</time></trkpt>
<trkpt lat="24.709107" lon="105.670321">
<time>2016-10-06T20:27:43Z</time></trkpt>
<trkpt lat="24.709198" lon="105.670152">
<time>2016-10-06T20:27:44Z</time></trkpt>
<trkpt lat="24.709258" lon="105.670062">
<time>2016-10-06T20:27:45Z</time></trkpt>
<trkpt lat="24.709298" lon="105.670012">
<time>2016-10-06T20:27:46Z</time></trkpt>
<trkpt lat="24.709358" lon="105.669962">
<time>2016-10-06T20:27:47Z</time></trkpt>
<trkpt lat="24.709418" lon="105.669932">
<time>2016-10-06T20:27:48Z</time></trkpt>
<trkpt lat="24.709478" lon="105.669912">
<time>2016-10-06T20:27:49Z</time></trkpt>
<trkpt lat="24.709548" lon="105.669902">
<time>2016-10-06T20:27:50Z</time></trkpt>
<trkpt lat="24.709648" lon="105.669892">
<time>2016-10-06T20:27:51Z</time></trkpt>
<trkpt lat="24.709828" lon="105.669882">
<time>2016-10-06T20:27:52Z</time></trkpt>
<trkpt lat="24.709958" lon="105.669882">
<time>2016-10-06T20:27:53Z</time></trkpt>
<trkpt lat="24.710018" lon="105.669862">
<time>2016-10-06T20:27:54Z</time></trkpt>
<trkpt lat="24.710068" lon="105.669832">
<time>2016-10-06T20:27:55Z</time></trkpt>
<trkpt lat="24.710118" lon="105.669793">
<time>2016-10-06T20:27:56Z</time></trkpt>
<trkpt lat="24.710149" lon="105.669753">
<time>2016-10-06T20:27:57Z</time></trkpt>
<trkpt lat="24.710189" lon="105.669663">
<time>2016-10-06T20:27:58Z</time></trkpt>
<trkpt lat="24.710199" lon="105.669593">
<time>2016-10-06T20:27:59Z</time></trkpt>
<trkpt lat="24.710199" lon="105.669513">
<time>2016-10-06T20:28:00Z</time></trkpt>
<trkpt lat="24.710179" lon="105.669404">
<time>2016-10-06T20:28:01Z</time></trkpt>
<trkpt lat="24.710139" lon="105.669284">
<time>2016-10-06T20:28:02Z</time></trkpt>
<trkpt lat="24.71001" lon="105.669054">
<time>2016-10-06T20:28:03Z</time></trkpt>
<trkpt lat="24.709791" lon="105.668636">
<time>2016-10-06T20:28:04Z</time></trkpt>
<trkpt lat="24.709671" lon="105.668376">
<time>2016-10-06T20:28:05Z</time></trkpt>
<trkpt lat="24.709621" lon="105.668237">
<time>2016-10-06T20:28:06Z</time></trkpt>
<trkpt lat="24.709612" lon="105.668097">
<time>2016-10-06T20:28:07Z</time></trkpt>
<trkpt lat="24.709612" lon="105.667987">
<time>2016-10-06T20:28:08Z</time></trkpt>
<trkpt lat="24.709632" lon="105.667907">
<time>2016-10-06T20:28:09Z</time></trkpt>
<trkpt lat="24.709662" lon="105.667838">
<time>2016-10-06T20:28:10Z</time></trkpt>
<trkpt lat="24.709702" lon="105.667758">
<time>2016-10-06T20:28:11Z</time></trkpt>
<trkpt lat="24.709743" lon="105.667698">
<time>2016-10-06T20:28:12Z</time></trkpt>
<trkpt lat="24.709793" lon="105.667628">
<time>2016-10-06T20:28:13Z</time></trkpt>
<trkpt lat="24.709993" lon="105.667399">
<time>2016-10-06T20:28:14Z</time></trkpt>
<trkpt lat="24.710874" lon="105.666651">
<time>2016-10-06T20:28:15Z</time></trkpt>
<trkpt lat="24.711165" lon="105.666371">
<time>2016-10-06T20:28:16Z</time></trkpt>
<trkpt lat="24.711255" lon="105.666262">
<time>2016-10-06T20:28:17Z</time></trkpt>
<trkpt lat="24.711336" lon="105.666072">
<time>2016-10-06T20:28:18Z</time></trkpt>
<trkpt lat="24.711396" lon="105.665922">
<time>2016-10-06T20:28:19Z</time></trkpt>
<trkpt lat="24.711426" lon="105.665733">
<time>2016-10-06T20:28:20Z</time></trkpt>
<trkpt lat="24.711457" lon="105.665474">
<time>2016-10-06T20:28:21Z</time></trkpt>
<trkpt lat="24.711488" lon="105.664815">
<time>2016-10-06T20:28:22Z</time></trkpt>
<trkpt lat="24.711508" lon="105.664646">
<time>2016-10-06T20:28:23Z</time></trkpt>
<trkpt lat="24.711549" lon="105.664446">
<time>2016-10-06T20:28:24Z</time></trkpt>
<trkpt lat="24.711639" lon="105.664207">
<time>2016-10-06T20:28:25Z</time></trkpt>
<trkpt lat="24.711759" lon="105.664037">
<time>2016-10-06T20:28:26Z</time></trkpt>
<trkpt lat="24.71188" lon="105.663888">
<time>2016-10-06T20:28:27Z</time></trkpt>
<trkpt lat="24.71223" lon="105.663588">
<time>2016-10-06T20:28:28Z</time></trkpt>
<trkpt lat="24.712581" lon="105.663309">
<time>2016-10-06T20:28:29Z</time></trkpt>
<trkpt lat="24.712581" lon="105.663309">
<time>2016-10-06T20:28:30Z</time></trkpt>
<trkpt lat="24.712432" lon="105.662591">
<time>2016-10-06T20:28:31Z</time></trkpt>
<trkpt lat="24.712422" lon="105.662551">
<time>2016-10-06T20:28:32Z</time></trkpt>
<trkpt lat="24.712402" lon="105.662501">
<time>2016-10-06T20:28:33Z</time></trkpt>
<trkpt lat="24.712382" lon="105.662461">
<time>2016-10-06T20:28:34Z</time></trkpt>
<trkpt lat="24.712353" lon="105.662411">
<time>2016-10-06T20:28:35Z</time></trkpt>
<trkpt lat="24.712313" lon="105.662351">
<time>2016-10-06T20:28:36Z</time></trkpt>
<trkpt lat="24.712273" lon="105.662312">
<time>2016-10-06T20:28:37Z</time></trkpt>
<trkpt lat="24.712223" lon="105.662262">
<time>2016-10-06T20:28:38Z</time></trkpt>
<trkpt lat="24.712183" lon="105.662222">
<time>2016-10-06T20:28:39Z</time></trkpt>
<trkpt lat="24.712133" lon="105.662172">
<time>2016-10-06T20:28:40Z</time></trkpt>
<trkpt lat="24.712093" lon="105.662122">
<time>2016-10-06T20:28:41Z</time></trkpt>
<trkpt lat="24.712053" lon="105.662072">
<time>2016-10-06T20:28:42Z</time></trkpt>
<trkpt lat="24.712023" lon="105.662032">
<time>2016-10-06T20:28:43Z</time></trkpt>
<trkpt lat="24.712003" lon="105.661982">
<time>2016-10-06T20:28:44Z</time></trkpt>
<trkpt lat="24.711983" lon="105.661932">
<time>2016-10-06T20:28:45Z</time></trkpt>
<trkpt lat="24.711964" lon="105.661873">
<time>2016-10-06T20:28:46Z</time></trkpt>
<trkpt lat="24.711954" lon="105.661833">
<time>2016-10-06T20:28:47Z</time></trkpt>
<trkpt lat="24.711954" lon="105.661823">
<time>2016-10-06T20:28:48Z</time></trkpt>
<trkpt lat="24.711944" lon="105.661763">
<time>2016-10-06T20:28:49Z</time></trkpt>
<trkpt lat="24.711934" lon="105.661703">
<time>2016-10-06T20:28:50Z</time></trkpt>
<trkpt lat="24.711924" lon="105.661643">
<time>2016-10-06T20:28:51Z</time></trkpt>
<trkpt lat="24.711924" lon="105.661573">
<time>2016-10-06T20:28:52Z</time></trkpt>
<trkpt lat="24.711924" lon="105.661563">
<time>2016-10-06T20:28:53Z</time></trkpt>
<trkpt lat="24.711914" lon="105.661524">
<time>2016-10-06T20:28:54Z</time></trkpt>
<trkpt lat="24.711914" lon="105.661484">
<time>2016-10-06T20:28:55Z</time></trkpt>
<trkpt lat="24.711904" lon="105.661444">
<time>2016-10-06T20:28:56Z</time></trkpt>
<trkpt lat="24.711894" lon="105.661414">
<time>2016-10-06T20:28:57Z</time></trkpt>
<trkpt lat="24.711884" lon="105.661374">
<time>2016-10-06T20:28:58Z</time></trkpt>
<trkpt lat="24.711865" lon="105.661344">
<time>2016-10-06T20:28:59Z</time></trkpt>
<trkpt lat="24.711835" lon="105.661314">
<time>2016-10-06T20:29:00Z</time></trkpt>
<trkpt lat="24.711805" lon="105.661294">
<time>2016-10-06T20:29:01Z</time></trkpt>
<trkpt lat="24.711765" lon="105.661274">
<time>2016-10-06T20:29:02Z</time></trkpt>
<trkpt lat="24.711725" lon="105.661254">
<time>2016-10-06T20:29:03Z</time></trkpt>
<trkpt lat="24.711685" lon="105.661234">
<time>2016-10-06T20:29:04Z</time></trkpt>
<trkpt lat="24.711635" lon="105.661224">
<time>2016-10-06T20:29:05Z</time></trkpt>
<trkpt lat="24.711595" lon="105.661214">
<time>2016-10-06T20:29:06Z</time></trkpt>
<trkpt lat="24.711495" lon="105.661194">
<time>2016-10-06T20:29:07Z</time></trkpt>
<trkpt lat="24.711435" lon="105.661184">
<time>2016-10-06T20:29:08Z</time></trkpt>
<trkpt lat="24.711385" lon="105.661164">
<time>2016-10-06T20:29:09Z</time></trkpt>
<trkpt lat="24.711335" lon="105.661154">
<time>2016-10-06T20:29:10Z</time></trkpt>
<trkpt lat="24.711285" lon="105.661145">
<time>2016-10-06T20:29:11Z</time></trkpt>
<trkpt lat="24.711235" lon="105.661125">
<time>2016-10-06T20:29:12Z</time></trkpt>
<trkpt lat="24.711185" lon="105.661115">
<time>2016-10-06T20:29:13Z</time></trkpt>
<trkpt lat="24.711135" lon="105.661095">
<time>2016-10-06T20:29:14Z</time></trkpt>
<trkpt lat="24.711095" lon="105.661075">
<time>2016-10-06T20:29:15Z</time></trkpt>
<trkpt lat="24.711055" lon="105.661055">
<time>2016-10-06T20:29:16Z</time></trkpt>
<trkpt lat="24.711005" lon="105.661035">
<time>2016-10-06T20:29:17Z</time></trkpt>
<trkpt lat="24.710965" lon="105.661015">
<time>2016-10-06T20:29:18Z</time></trkpt>
<trkpt lat="24.710925" lon="105.660985">
<time>2016-10-06T20:29:19Z</time></trkpt>
<trkpt lat="24.710885" lon="105.660965">
<time>2016-10-06T20:29:20Z</time></trkpt>
<trkpt lat="24.710845" lon="105.660935">
<time>2016-10-06T20:29:21Z</time></trkpt>
<trkpt lat="24.710805" lon="105.660905">
<time>2016-10-06T20:29:22Z</time></trkpt>
<trkpt lat="24.710775" lon="105.660875">
<time>2016-10-06T20:29:23Z</time></trkpt>
<trkpt lat="24.710746" lon="105.660845">
<time>2016-10-06T20:29:24Z</time></trkpt>
<trkpt lat="24.710716" lon="105.660815">
<time>2016-10-06T20:29:25Z</time></trkpt>
<trkpt lat="24.710686" lon="105.660785">
<time>2016-10-06T20:29:26Z</time></trkpt>
<trkpt lat="24.710656" lon="105.660756">
<time>2016-10-06T20:29:27Z</time></trkpt>
<trkpt lat="24.710636" lon="105.660726">
<time>2016-10-06T20:29:28Z</time></trkpt>
<trkpt lat="24.710606" lon="105.660686">
<time>2016-10-06T20:29:29Z</time></trkpt>
<trkpt lat="24.710586" lon="105.660656">
<time>2016-10-06T20:29:30Z</time></trkpt>
<trkpt lat="24.710566" lon="105.660616">
<time>2016-10-06T20:29:31Z</time></trkpt>
<trkpt lat="24.710546" lon="105.660576">
<time>2016-10-06T20:29:32Z</time></trkpt>
<trkpt lat="24.710526" lon="105.660536">
<time>2016-10-06T20:29:33Z</time></trkpt>
<trkpt lat="24.710506" lon="105.660496">
<time>2016-10-06T20:29:34Z</time></trkpt>
<trkpt lat="24.710496" lon="105.660456">
<time>2016-10-06T20:29:35Z</time></trkpt>
<trkpt lat="24.710476" lon="105.660416">
<time>2016-10-06T20:29:36Z</time></trkpt>
<trkpt lat="24.710466" lon="105.660377">
<time>2016-10-06T20:29:37Z</time></trkpt>
<trkpt lat="24.710457" lon="105.660337">
<time>2016-10-06T20:29:38Z</time></trkpt>
<trkpt lat="24.710457" lon="105.660297">
<time>2016-10-06T20:29:39Z</time></trkpt>
<trkpt lat="24.710457" lon="105.660257">
<time>2016-10-06T20:29:40Z</time></trkpt>
<trkpt lat="24.710447" lon="105.660217">
<time>2016-10-06T20:29:41Z</time></trkpt>
<trkpt lat="24.710447" lon="105.660177">
<time>2016-10-06T20:29:42Z</time></trkpt>
<trkpt lat="24.710457" lon="105.660137">
<time>2016-10-06T20:29:43Z</time></trkpt>
<trkpt lat="24.710457" lon="105.660097">
<time>2016-10-06T20:29:44Z</time></trkpt>
<trkpt lat="24.710467" lon="105.660057">
<time>2016-10-06T20:29:45Z</time></trkpt>
<trkpt lat="24.710477" lon="105.660017">
<time>2016-10-06T20:29:46Z</time></trkpt>
<trkpt lat="24.710477" lon="105.659987">
<time>2016-10-06T20:29:47Z</time></trkpt>
<trkpt lat="24.710487" lon="105.659948">
<time>2016-10-06T20:29:48Z</time></trkpt>
<trkpt lat="24.710497" lon="105.659918">
<time>2016-10-06T20:29:49Z</time></trkpt>
<trkpt lat="24.710517" lon="105.659878">
<time>2016-10-06T20:29:50Z</time></trkpt>
<trkpt lat="24.710527" lon="105.659848">
<time>2016-10-06T20:29:51Z</time></trkpt>
<trkpt lat="24.710537" lon="105.659818">
<time>2016-10-06T20:29:52Z</time></trkpt>
<trkpt lat="24.710558" lon="105.659778">
<time>2016-10-06T20:29:53Z</time></trkpt>
<trkpt lat="24.710578" lon="105.659748">
<time>2016-10-06T20:29:54Z</time></trkpt>
<trkpt lat="24.710598" lon="105.659708">
<time>2016-10-06T20:29:55Z</time></trkpt>
<trkpt lat="24.710628" lon="105.659658">
<time>2016-10-06T20:29:56Z</time></trkpt>
<trkpt lat="24.710648" lon="105.659618">
<time>2016-10-06T20:29:57Z</time></trkpt>
<trkpt lat="24.710678" lon="105.659579">
<time>2016-10-06T20:29:58Z</time></trkpt>
<trkpt lat="24.710708" lon="105.659549">
<time>2016-10-06T20:29:59Z</time></trkpt>
<trkpt lat="24.710738" lon="105.659509">
<time>2016-10-06T20:30:00Z</time></trkpt>
<trkpt lat="24.710778" lon="105.659479">
<time>2016-10-06T20:30:01Z</time></trkpt>
<trkpt lat="24.710808" lon="105.659439">
<time>2016-10-06T20:30:02Z</time></trkpt>
<trkpt lat="24.710868" lon="105.659399">
<time>2016-10-06T20:30:03Z</time></trkpt>
<trkpt lat="24.710918" lon="105.659359">
<time>2016-10-06T20:30:04Z</time></trkpt>
<trkpt lat="24.710978" lon="105.659329">
<time>2016-10-06T20:30:05Z</time></trkpt>
<trkpt lat="24.711038" lon="105.659289">
<time>2016-10-06T20:30:06Z</time></trkpt>
<trkpt lat="24.711098" lon="105.659269">
<time>2016-10-06T20:30:07Z</time></trkpt>
<trkpt lat="24.711159" lon="105.659239">
<time>2016-10-06T20:30:08Z</time></trkpt>
<trkpt lat="24.711219" lon="105.659219">
<time>2016-10-06T20:30:09Z</time></trkpt>
<trkpt lat="24.711279" lon="105.659199">
<time>2016-10-06T20:30:10Z</time></trkpt>
<trkpt lat="24.711349" lon="105.659179">
<time>2016-10-06T20:30:11Z</time></trkpt>
<trkpt lat="24.711409" lon="105.65916">
<time>2016-10-06T20:30:12Z</time></trkpt>
<trkpt lat="24.711469" lon="105.65915">
<time>2016-10-06T20:30:13Z</time></trkpt>
<trkpt lat="24.711599" lon="105.65912">
<time>2016-10-06T20:30:14Z</time></trkpt>
<trkpt lat="24.711669" lon="105.6591">
<time>2016-10-06T20:30:15Z</time></trkpt>
<trkpt lat="24.711729" lon="105.65909">
<time>2016-10-06T20:30:16Z</time></trkpt>
<trkpt lat="24.711789" lon="105.65907">
<time>2016-10-06T20:30:17Z</time></trkpt>
<trkpt lat="24.711849" lon="105.65905">
<time>2016-10-06T20:30:18Z</time></trkpt>
<trkpt lat="24.711919" lon="105.65903">
<time>2016-10-06T20:30:19Z</time></trkpt>
<trkpt lat="24.711979" lon="105.65901">
<time>2016-10-06T20:30:20Z</time></trkpt>
<trkpt lat="24.712039" lon="105.65898">
<time>2016-10-06T20:30:21Z</time></trkpt>
<trkpt lat="24.712099" lon="105.65895">
<time>2016-10-06T20:30:22Z</time></trkpt>
<trkpt lat="24.712159" lon="105.65892">
<time>2016-10-06T20:30:23Z</time></trkpt>
<trkpt lat="24.712209" lon="105.65889">
<time>2016-10-06T20:30:24Z</time></trkpt>
<trkpt lat="24.712269" lon="105.65885">
<time>2016-10-06T20:30:25Z</time></trkpt>
<trkpt lat="24.712319" lon="105.65881">
<time>2016-10-06T20:30:26Z</time></trkpt>
<trkpt lat="24.712359" lon="105.65878">
<time>2016-10-06T20:30:27Z</time></trkpt>
<trkpt lat="24.712409" lon="105.658731">
<time>2016-10-06T20:30:28Z</time></trkpt>
<trkpt lat="24.71245" lon="105.658691">
<time>2016-10-06T20:30:29Z</time></trkpt>
<trkpt lat="24.7125" lon="105.658651">
<time>2016-10-06T20:30:30Z</time></trkpt>
<trkpt lat="24.71254" lon="105.658601">
<time>2016-10-06T20:30:31Z</time></trkpt>
<trkpt lat="24.71258" lon="105.658551">
<time>2016-10-06T20:30:32Z</time></trkpt>
<trkpt lat="24.71262" lon="105.658511">
<time>2016-10-06T20:30:33Z</time></trkpt>
<trkpt lat="24.71266" lon="105.658461">
<time>2016-10-06T20:30:34Z</time></trkpt>
<trkpt lat="24.7127" lon="105.658411">
<time>2016-10-06T20:30:35Z</time></trkpt>
<trkpt lat="24.71274" lon="105.658361">
<time>2016-10-06T20:30:36Z</time></trkpt>
<trkpt lat="24.71278" lon="105.658322">
<time>2016-10-06T20:30:37Z</time></trkpt>
<trkpt lat="24.71282" lon="105.658272">
<time>2016-10-06T20:30:38Z</time></trkpt>
<trkpt lat="24.71285" lon="105.658222">
<time>2016-10-06T20:30:39Z</time></trkpt>
<trkpt lat="24.712951" lon="105.658092">
<time>2016-10-06T20:30:40Z</time></trkpt>
<trkpt lat="24.712981" lon="105.658062">
<time>2016-10-06T20:30:41Z</time></trkpt>
<trkpt lat="24.713001" lon="105.658032">
<time>2016-10-06T20:30:42Z</time></trkpt>
<trkpt lat="24.713021" lon="105.658012">
<time>2016-10-06T20:30:43Z</time></trkpt>
<trkpt lat="24.713051" lon="105.657982">
<time>2016-10-06T20:30:44Z</time></trkpt>
<trkpt lat="24.713081" lon="105.657952">
<time>2016-10-06T20:30:45Z</time></trkpt>
<trkpt lat="24.713101" lon="105.657933">
<time>2016-10-06T20:30:46Z</time></trkpt>
<trkpt lat="24.713131" lon="105.657913">
<time>2016-10-06T20:30:47Z</time></trkpt>
<trkpt lat="24.713181" lon="105.657883">
<time>2016-10-06T20:30:48Z</time></trkpt>
<trkpt lat="24.713241" lon="105.657863">
<time>2016-10-06T20:30:49Z</time></trkpt>
<trkpt lat="24.713301" lon="105.657843">
<time>2016-10-06T20:30:50Z</time></trkpt>
<trkpt lat="24.713361" lon="105.657833">
<time>2016-10-06T20:30:51Z</time></trkpt>
<trkpt lat="24.713421" lon="105.657823">
<time>2016-10-06T20:30:52Z</time></trkpt>
<trkpt lat="24.713481" lon="105.657813">
<time>2016-10-06T20:30:53Z</time></trkpt>
<trkpt lat="24.713601" lon="105.657803">
<time>2016-10-06T20:30:54Z</time></trkpt>
<trkpt lat="24.713631" lon="105.657803">
<time>2016-10-06T20:30:55Z</time></trkpt>
<trkpt lat="24.713671" lon="105.657803">
<time>2016-10-06T20:30:56Z</time></trkpt>
<trkpt lat="24.713741" lon="105.657793">
<time>2016-10-06T20:30:57Z</time></trkpt>
<trkpt lat="24.713781" lon="105.657783">
<time>2016-10-06T20:30:58Z</time></trkpt>
<trkpt lat="24.713811" lon="105.657783">
<time>2016-10-06T20:30:59Z</time></trkpt>
<trkpt lat="24.713871" lon="105.657773">
<time>2016-10-06T20:31:00Z</time></trkpt>
<trkpt lat="24.713941" lon="105.657763">
<time>2016-10-06T20:31:01Z</time></trkpt>
<trkpt lat="24.714001" lon="105.657743">
<time>2016-10-06T20:31:02Z</time></trkpt>
<trkpt lat="24.714071" lon="105.657733">
<time>2016-10-06T20:31:03Z</time></trkpt>
<trkpt lat="24.714131" lon="105.657723">
<time>2016-10-06T20:31:04Z</time></trkpt>
<trkpt lat="24.714161" lon="105.657713">
<time>2016-10-06T20:31:05Z</time></trkpt>
<trkpt lat="24.714201" lon="105.657703">
<time>2016-10-06T20:31:06Z</time></trkpt>
<trkpt lat="24.714231" lon="105.657693">
<time>2016-10-06T20:31:07Z</time></trkpt>
<trkpt lat="24.714271" lon="105.657683">
<time>2016-10-06T20:31:08Z</time></trkpt>
<trkpt lat="24.714301" lon="105.657673">
<time>2016-10-06T20:31:09Z</time></trkpt>
<trkpt lat="24.714341" lon="105.657663">
<time>2016-10-06T20:31:10Z</time></trkpt>
<trkpt lat="24.714371" lon="105.657643">
<time>2016-10-06T20:31:11Z</time></trkpt>
<trkpt lat="24.714401" lon="105.657623">
<time>2016-10-06T20:31:12Z</time></trkpt>
<trkpt lat="24.714442" lon="105.657593">
<time>2016-10-06T20:31:13Z</time></trkpt>
<trkpt lat="24.714482" lon="105.657563">
<time>2016-10-06T20:31:14Z</time></trkpt>
<trkpt lat="24.714512" lon="105.657533">
<time>2016-10-06T20:31:15Z</time></trkpt>
<trkpt lat="24.714542" lon="105.657494">
<time>2016-10-06T20:31:16Z</time></trkpt>
<trkpt lat="24.714562" lon="105.657464">
<time>2016-10-06T20:31:17Z</time></trkpt>
<trkpt lat="24.714582" lon="105.657424">
<time>2016-10-06T20:31:18Z</time></trkpt>
<trkpt lat="24.714602" lon="105.657374">
<time>2016-10-06T20:31:19Z</time></trkpt>
<trkpt lat="24.714602" lon="105.657334">
<time>2016-10-06T20:31:20Z</time></trkpt>
<trkpt lat="24.714612" lon="105.657294">
<time>2016-10-06T20:31:21Z</time></trkpt>
<trkpt lat="24.714602" lon="105.657254">
<time>2016-10-06T20:31:22Z</time></trkpt>
<trkpt lat="24.714592" lon="105.657214">
<time>2016-10-06T20:31:23Z</time></trkpt>
<trkpt lat="24.714582" lon="105.657174">
<time>2016-10-06T20:31:24Z</time></trkpt>
<trkpt lat="24.714562" lon="105.657134">
<time>2016-10-06T20:31:25Z</time></trkpt>
<trkpt lat="24.714542" lon="105.657095">
<time>2016-10-06T20:31:26Z</time></trkpt>
<trkpt lat="24.714523" lon="105.657055">
<time>2016-10-06T20:31:27Z</time></trkpt>
<trkpt lat="24.714503" lon="105.657015">
<time>2016-10-06T20:31:28Z</time></trkpt>
<trkpt lat="24.714463" lon="105.656965">
<time>2016-10-06T20:31:29Z</time></trkpt>
<trkpt lat="24.714433" lon="105.656915">
<time>2016-10-06T20:31:30Z</time></trkpt>
<trkpt lat="24.714393" lon="105.656865">
<time>2016-10-06T20:31:31Z</time></trkpt>
<trkpt lat="24.714363" lon="105.656815">
<time>2016-10-06T20:31:32Z</time></trkpt>
<trkpt lat="24.714333" lon="105.656765">
<time>2016-10-06T20:31:33Z</time></trkpt>
<trkpt lat="24.714303" lon="105.656716">
<time>2016-10-06T20:31:34Z</time></trkpt>
<trkpt lat="24.714283" lon="105.656676">
<time>2016-10-06T20:31:35Z</time></trkpt>
<trkpt lat="24.714283" lon="105.656666">
<time>2016-10-06T20:31:36Z</time></trkpt>
<trkpt lat="24.714253" lon="105.656606">
<time>2016-10-06T20:31:37Z</time></trkpt>
<trkpt lat="24.714233" lon="105.656556">
<time>2016-10-06T20:31:38Z</time></trkpt>
<trkpt lat="24.714224" lon="105.656516">
<time>2016-10-06T20:31:39Z</time></trkpt>
<trkpt lat="24.714224" lon="105.656506">
<time>2016-10-06T20:31:40Z</time></trkpt>
<trkpt lat="24.714214" lon="105.656456">
<time>2016-10-06T20:31:41Z</time></trkpt>
<trkpt lat="24.714204" lon="105.656396">
<time>2016-10-06T20:31:42Z</time></trkpt>
<trkpt lat="24.714194" lon="105.656346">
<time>2016-10-06T20:31:43Z</time></trkpt>
<trkpt lat="24.714194" lon="105.656287">
<time>2016-10-06T20:31:44Z</time></trkpt>
<trkpt lat="24.714194" lon="105.656237">
<time>2016-10-06T20:31:45Z</time></trkpt>
<trkpt lat="24.714194" lon="105.656177">
<time>2016-10-06T20:31:46Z</time></trkpt>
<trkpt lat="24.714194" lon="105.656137">
<time>2016-10-06T20:31:47Z</time></trkpt>
<trkpt lat="24.714204" lon="105.656087">
<time>2016-10-06T20:31:48Z</time></trkpt>
<trkpt lat="24.714204" lon="105.656047">
<time>2016-10-06T20:31:49Z</time></trkpt>
<trkpt lat="24.714214" lon="105.656007">
<time>2016-10-06T20:31:50Z</time></trkpt>
<trkpt lat="24.714225" lon="105.655967">
<time>2016-10-06T20:31:51Z</time></trkpt>
<trkpt lat="24.714235" lon="105.655918">
<time>2016-10-06T20:31:52Z</time></trkpt>
<trkpt lat="24.714255" lon="105.655878">
<time>2016-10-06T20:31:53Z</time></trkpt>
<trkpt lat="24.714265" lon="105.655838">
<time>2016-10-06T20:31:54Z</time></trkpt>
<trkpt lat="24.714285" lon="105.655798">
<time>2016-10-06T20:31:55Z</time></trkpt>
<trkpt lat="24.714305" lon="105.655758">
<time>2016-10-06T20:31:56Z</time></trkpt>
<trkpt lat="24.714335" lon="105.655718">
<time>2016-10-06T20:31:57Z</time></trkpt>
<trkpt lat="24.714365" lon="105.655688">
<time>2016-10-06T20:31:58Z</time></trkpt>
<trkpt lat="24.714395" lon="105.655648">
<time>2016-10-06T20:31:59Z</time></trkpt>
<trkpt lat="24.714425" lon="105.655618">
<time>2016-10-06T20:32:00Z</time></trkpt>
<trkpt lat="24.714455" lon="105.655588">
<time>2016-10-06T20:32:01Z</time></trkpt>
<trkpt lat="24.714495" lon="105.655568">
<time>2016-10-06T20:32:02Z</time></trkpt>
<trkpt lat="24.714535" lon="105.655548">
<time>2016-10-06T20:32:03Z</time></trkpt>
<trkpt lat="24.714565" lon="105.655528">
<time>2016-10-06T20:32:04Z</time></trkpt>
<trkpt lat="24.714605" lon="105.655509">
<time>2016-10-06T20:32:05Z</time></trkpt>
<trkpt lat="24.714645" lon="105.655499">
<time>2016-10-06T20:32:06Z</time></trkpt>
<trkpt lat="24.714685" lon="105.655489">
<time>2016-10-06T20:32:07Z</time></trkpt>
<trkpt lat="24.714735" lon="105.655479">
<time>2016-10-06T20:32:08Z</time></trkpt>
<trkpt lat="24.714775" lon="105.655469">
<time>2016-10-06T20:32:09Z</time></trkpt>
<trkpt lat="24.714815" lon="105.655459">
<time>2016-10-06T20:32:10Z</time></trkpt>
<trkpt lat="24.714886" lon="105.655439">
<time>2016-10-06T20:32:11Z</time></trkpt>
<trkpt lat="24.714946" lon="105.655419">
<time>2016-10-06T20:32:12Z</time></trkpt>
<trkpt lat="24.715006" lon="105.655399">
<time>2016-10-06T20:32:13Z</time></trkpt>
<trkpt lat="24.715016" lon="105.655399">
<time>2016-10-06T20:32:14Z</time></trkpt>
<trkpt lat="24.715086" lon="105.655369">
<time>2016-10-06T20:32:15Z</time></trkpt>
<trkpt lat="24.715156" lon="105.655349">
<time>2016-10-06T20:32:16Z</time></trkpt>
<trkpt lat="24.715286" lon="105.655299">
<time>2016-10-06T20:32:17Z</time></trkpt>
<trkpt lat="24.715346" lon="105.655269">
<time>2016-10-06T20:32:18Z</time></trkpt>
<trkpt lat="24.715456" lon="105.655229">
<time>2016-10-06T20:32:19Z</time></trkpt>
<trkpt lat="24.715516" lon="105.655209">
<time>2016-10-06T20:32:20Z</time></trkpt>
<trkpt lat="24.715566" lon="105.655189">
<time>2016-10-06T20:32:21Z</time></trkpt>
<trkpt lat="24.715626" lon="105.655169">
<time>2016-10-06T20:32:22Z</time></trkpt>
<trkpt lat="24.715676" lon="105.655139">
<time>2016-10-06T20:32:23Z</time></trkpt>
<trkpt lat="24.715726" lon="105.655109">
<time>2016-10-06T20:32:24Z</time></trkpt>
<trkpt lat="24.715776" lon="105.65508">
<time>2016-10-06T20:32:25Z</time></trkpt>
<trkpt lat="24.715826" lon="105.65505">
<time>2016-10-06T20:32:26Z</time></trkpt>
<trkpt lat="24.715866" lon="105.65502">
<time>2016-10-06T20:32:27Z</time></trkpt>
<trkpt lat="24.715916" lon="105.65499">
<time>2016-10-06T20:32:28Z</time></trkpt>
<trkpt lat="24.715996" lon="105.65492">
<time>2016-10-06T20:32:29Z</time></trkpt>
<trkpt lat="24.716046" lon="105.65488">
<time>2016-10-06T20:32:30Z</time></trkpt>
<trkpt lat="24.716087" lon="105.65485">
<time>2016-10-06T20:32:31Z</time></trkpt>
<trkpt lat="24.716137" lon="105.65482">
<time>2016-10-06T20:32:32Z</time></trkpt>
<trkpt lat="24.716187" lon="105.65479">
<time>2016-10-06T20:32:33Z</time></trkpt>
<trkpt lat="24.716237" lon="105.65476">
<time>2016-10-06T20:32:34Z</time></trkpt>
<trkpt lat="24.716287" lon="105.65474">
<time>2016-10-06T20:32:35Z</time></trkpt>
<trkpt lat="24.716337" lon="105.65471">
<time>2016-10-06T20:32:36Z</time></trkpt>
<trkpt lat="24.716387" lon="105.65469">
<time>2016-10-06T20:32:37Z</time></trkpt>
<trkpt lat="24.716437" lon="105.654671">
<time>2016-10-06T20:32:38Z</time></trkpt>
<trkpt lat="24.716497" lon="105.654651">
<time>2016-10-06T20:32:39Z</time></trkpt>
<trkpt lat="24.716507" lon="105.654651">
<time>2016-10-06T20:32:40Z</time></trkpt>
<trkpt lat="24.716547" lon="105.654631">
<time>2016-10-06T20:32:41Z</time></trkpt>
<trkpt lat="24.716597" lon="105.654621">
<time>2016-10-06T20:32:42Z</time></trkpt>
<trkpt lat="24.716647" lon="105.654601">
<time>2016-10-06T20:32:43Z</time></trkpt>
<trkpt lat="24.716697" lon="105.654591">
<time>2016-10-06T20:32:44Z</time></trkpt>
<trkpt lat="24.716747" lon="105.654571">
<time>2016-10-06T20:32:45Z</time></trkpt>
<trkpt lat="24.716797" lon="105.654571">
<time>2016-10-06T20:32:46Z</time></trkpt>
<trkpt lat="24.716847" lon="105.654561">
<time>2016-10-06T20:32:47Z</time></trkpt>
<trkpt lat="24.716897" lon="105.654561">
<time>2016-10-06T20:32:48Z</time></trkpt>
<trkpt lat="24.716947" lon="105.654561">
<time>2016-10-06T20:32:49Z</time></trkpt>
<trkpt lat="24.717007" lon="105.654571">
<time>2016-10-06T20:32:50Z</time></trkpt>
<trkpt lat="24.717057" lon="105.654601">
<time>2016-10-06T20:32:51Z</time></trkpt>
<trkpt lat="24.717117" lon="105.654621">
<time>2016-10-06T20:32:52Z</time></trkpt>
<trkpt lat="24.717177" lon="105.654661">
<time>2016-10-06T20:32:53Z</time></trkpt>
<trkpt lat="24.717237" lon="105.65469">
<time>2016-10-06T20:32:54Z</time></trkpt>
<trkpt lat="24.717287" lon="105.65473">
<time>2016-10-06T20:32:55Z</time></trkpt>
<trkpt lat="24.717337" lon="105.65478">
<time>2016-10-06T20:32:56Z</time></trkpt>
<trkpt lat="24.717387" lon="105.65482">
<time>2016-10-06T20:32:57Z</time></trkpt>
<trkpt lat="24.717426" lon="105.65487">
<time>2016-10-06T20:32:58Z</time></trkpt>
<trkpt lat="24.717476" lon="105.65491">
<time>2016-10-06T20:32:59Z</time></trkpt>
<trkpt lat="24.717516" lon="105.65495">
<time>2016-10-06T20:33:00Z</time></trkpt>
<trkpt lat="24.717556" lon="105.65499">
<time>2016-10-06T20:33:01Z</time></trkpt>
<trkpt lat="24.717606" lon="105.65504">
<time>2016-10-06T20:33:02Z</time></trkpt>
<trkpt lat="24.717646" lon="105.655079">
<time>2016-10-06T20:33:03Z</time></trkpt>
<trkpt lat="24.717696" lon="105.655119">
<time>2016-10-06T20:33:04Z</time></trkpt>
<trkpt lat="24.717736" lon="105.655149">
<time>2016-10-06T20:33:05Z</time></trkpt>
<trkpt lat="24.717766" lon="105.655169">
<time>2016-10-06T20:33:06Z</time></trkpt>
<trkpt lat="24.717796" lon="105.655189">
<time>2016-10-06T20:33:07Z</time></trkpt>
<trkpt lat="24.717816" lon="105.655209">
<time>2016-10-06T20:33:08Z</time></trkpt>
<trkpt lat="24.717846" lon="105.655219">
<time>2016-10-06T20:33:09Z</time></trkpt>
<trkpt lat="24.717876" lon="105.655239">
<time>2016-10-06T20:33:10Z</time></trkpt>
<trkpt lat="24.717906" lon="105.655249">
<time>2016-10-06T20:33:11Z</time></trkpt>
<trkpt lat="24.717926" lon="105.655249">
<time>2016-10-06T20:33:12Z</time></trkpt>
<trkpt lat="24.717956" lon="105.655259">
<time>2016-10-06T20:33:13Z</time></trkpt>
<trkpt lat="24.717996" lon="105.655259">
<time>2016-10-06T20:33:14Z</time></trkpt>
<trkpt lat="24.718026" lon="105.655249">
<time>2016-10-06T20:33:15Z</time></trkpt>
<trkpt lat="24.718056" lon="105.655239">
<time>2016-10-06T20:33:16Z</time></trkpt>
<trkpt lat="24.718096" lon="105.655229">
<time>2016-10-06T20:33:17Z</time></trkpt>
<trkpt lat="24.718126" lon="105.655209">
<time>2016-10-06T20:33:18Z</time></trkpt>
<trkpt lat="24.718166" lon="105.655189">
<time>2016-10-06T20:33:19Z</time></trkpt>
<trkpt lat="24.718196" lon="105.655169">
<time>2016-10-06T20:33:20Z</time></trkpt>
<trkpt lat="24.718226" lon="105.655159">
<time>2016-10-06T20:33:21Z</time></trkpt>
<trkpt lat="24.718266" lon="105.655139">
<time>2016-10-06T20:33:22Z</time></trkpt>
<trkpt lat="24.718306" lon="105.655119">
<time>2016-10-06T20:33:23Z</time></trkpt>
<trkpt lat="24.718346" lon="105.655109">
<time>2016-10-06T20:33:24Z</time></trkpt>
<trkpt lat="24.718376" lon="105.655089">
<time>2016-10-06T20:33:25Z</time></trkpt>
<trkpt lat="24.718416" lon="105.655079">
<time>2016-10-06T20:33:26Z</time></trkpt>
<trkpt lat="24.718456" lon="105.655059">
<time>2016-10-06T20:33:27Z</time></trkpt>
<trkpt lat="24.718526" lon="105.65504">
<time>2016-10-06T20:33:28Z</time></trkpt>
<trkpt lat="24.718646" lon="105.655">
<time>2016-10-06T20:33:29Z</time></trkpt>
<trkpt lat="24.718706" lon="105.65497">
<time>2016-10-06T20:33:30Z</time></trkpt>
<trkpt lat="24.718766" lon="105.65495">
<time>2016-10-06T20:33:31Z</time></trkpt>
<trkpt lat="24.718826" lon="105.65493">
<time>2016-10-06T20:33:32Z</time></trkpt>
<trkpt lat="24.718886" lon="105.65491">
<time>2016-10-06T20:33:33Z</time></trkpt>
<trkpt lat="24.718946" lon="105.6549">
<time>2016-10-06T20:33:34Z</time></trkpt>
<trkpt lat="24.719006" lon="105.65488">
<time>2016-10-06T20:33:35Z</time></trkpt>
<trkpt lat="24.719036" lon="105.65488">
<time>2016-10-06T20:33:36Z</time></trkpt>
<trkpt lat="24.719066" lon="105.65487">
<time>2016-10-06T20:33:37Z</time></trkpt>
<trkpt lat="24.719096" lon="105.65487">
<time>2016-10-06T20:33:38Z</time></trkpt>
<trkpt lat="24.719126" lon="105.65486">
<time>2016-10-06T20:33:39Z</time></trkpt>
<trkpt lat="24.719156" lon="105.65486">
<time>2016-10-06T20:33:40Z</time></trkpt>
<trkpt lat="24.719186" lon="105.65486">
<time>2016-10-06T20:33:41Z</time></trkpt>
<trkpt lat="24.719216" lon="105.65487">
<time>2016-10-06T20:33:42Z</time></trkpt>
<trkpt lat="24.719236" lon="105.65488">
<time>2016-10-06T20:33:43Z</time></trkpt>
<trkpt lat="24.719266" lon="105.65489">
<time>2016-10-06T20:33:44Z</time></trkpt>
<trkpt lat="24.719296" lon="105.65491">
<time>2016-10-06T20:33:45Z</time></trkpt>
<trkpt lat="24.719326" lon="105.65493">
<time>2016-10-06T20:33:46Z</time></trkpt>
<trkpt lat="24.719356" lon="105.65495">
<time>2016-10-06T20:33:47Z</time></trkpt>
<trkpt lat="24.719376" lon="105.65498">
<time>2016-10-06T20:33:48Z</time></trkpt>
<trkpt lat="24.719406" lon="105.65501">
<time>2016-10-06T20:33:49Z</time></trkpt>
<trkpt lat="24.719426" lon="105.655039">
<time>2016-10-06T20:33:50Z</time></trkpt>
<trkpt lat="24.719446" lon="105.655069">
<time>2016-10-06T20:33:51Z</time></trkpt>
<trkpt lat="24.719476" lon="105.655119">
<time>2016-10-06T20:33:52Z</time></trkpt>
<trkpt lat="24.719496" lon="105.655159">
<time>2016-10-06T20:33:53Z</time></trkpt>
<trkpt lat="24.719516" lon="105.655209">
<time>2016-10-06T20:33:54Z</time></trkpt>
<trkpt lat="24.719536" lon="105.655249">
<time>2016-10-06T20:33:55Z</time></trkpt>
<trkpt lat="24.719546" lon="105.655299">
<time>2016-10-06T20:33:56Z</time></trkpt>
<trkpt lat="24.719565" lon="105.655349">
<time>2016-10-06T20:33:57Z</time></trkpt>
<trkpt lat="24.719575" lon="105.655389">
<time>2016-10-06T20:33:58Z</time></trkpt>
<trkpt lat="24.719595" lon="105.655438">
<time>2016-10-06T20:33:59Z</time></trkpt>
<trkpt lat="24.719605" lon="105.655488">
<time>2016-10-06T20:34:00Z</time></trkpt>
<trkpt lat="24.719615" lon="105.655538">
<time>2016-10-06T20:34:01Z</time></trkpt>
<trkpt lat="24.719635" lon="105.655648">
<time>2016-10-06T20:34:02Z</time></trkpt>
<trkpt lat="24.719645" lon="105.655698">
<time>2016-10-06T20:34:03Z</time></trkpt>
<trkpt lat="24.719665" lon="105.655748">
<time>2016-10-06T20:34:04Z</time></trkpt>
<trkpt lat="24.719675" lon="105.655798">
<time>2016-10-06T20:34:05Z</time></trkpt>
<trkpt lat="24.719685" lon="105.655847">
<time>2016-10-06T20:34:06Z</time></trkpt>
<trkpt lat="24.719704" lon="105.655907">
<time>2016-10-06T20:34:07Z</time></trkpt>
<trkpt lat="24.719724" lon="105.655957">
<time>2016-10-06T20:34:08Z</time></trkpt>
<trkpt lat="24.719744" lon="105.656007">
<time>2016-10-06T20:34:09Z</time></trkpt>
<trkpt lat="24.719774" lon="105.656057">
<time>2016-10-06T20:34:10Z</time></trkpt>
<trkpt lat="24.719804" lon="105.656097">
<time>2016-10-06T20:34:11Z</time></trkpt>
<trkpt lat="24.719834" lon="105.656137">
<time>2016-10-06T20:34:12Z</time></trkpt>
<trkpt lat="24.719864" lon="105.656177">
<time>2016-10-06T20:34:13Z</time></trkpt>
<trkpt lat="24.719904" lon="105.656207">
<time>2016-10-06T20:34:14Z</time></trkpt>
<trkpt lat="24.719934" lon="105.656236">
<time>2016-10-06T20:34:15Z</time></trkpt>
<trkpt lat="24.719974" lon="105.656256">
<time>2016-10-06T20:34:16Z</time></trkpt>
<trkpt lat="24.720014" lon="105.656266">
<time>2016-10-06T20:34:17Z</time></trkpt>
<trkpt lat="24.720054" lon="105.656286">
<time>2016-10-06T20:34:18Z</time></trkpt>
<trkpt lat="24.720094" lon="105.656296">
<time>2016-10-06T20:34:19Z</time></trkpt>
<trkpt lat="24.720134" lon="105.656306">
<time>2016-10-06T20:34:20Z</time></trkpt>
<trkpt lat="24.720184" lon="105.656316">
<time>2016-10-06T20:34:21Z</time></trkpt>
<trkpt lat="24.720224" lon="105.656316">
<time>2016-10-06T20:34:22Z</time></trkpt>
<trkpt lat="24.720274" lon="105.656326">
<time>2016-10-06T20:34:23Z</time></trkpt>
<trkpt lat="24.720314" lon="105.656336">
<time>2016-10-06T20:34:24Z</time></trkpt>
<trkpt lat="24.720364" lon="105.656346">
<time>2016-10-06T20:34:25Z</time></trkpt>
<trkpt lat="24.720414" lon="105.656346">
<time>2016-10-06T20:34:26Z</time></trkpt>
<trkpt lat="24.720464" lon="105.656346">
<time>2016-10-06T20:34:27Z</time></trkpt>
<trkpt lat="24.720504" lon="105.656356">
<time>2016-10-06T20:34:28Z</time></trkpt>
<trkpt lat="24.720554" lon="105.656356">
<time>2016-10-06T20:34:29Z</time></trkpt>
<trkpt lat="24.720604" lon="105.656356">
<time>2016-10-06T20:34:30Z</time></trkpt>
<trkpt lat="24.720664" lon="105.656346">
<time>2016-10-06T20:34:31Z</time></trkpt>
<trkpt lat="24.720724" lon="105.656336">
<time>2016-10-06T20:34:32Z</time></trkpt>
<trkpt lat="24.720844" lon="105.656326">
<time>2016-10-06T20:34:33Z</time></trkpt>
<trkpt lat="24.720904" lon="105.656316">
<time>2016-10-06T20:34:34Z</time></trkpt>
<trkpt lat="24.720964" lon="105.656316">
<time>2016-10-06T20:34:35Z</time></trkpt>
<trkpt lat="24.721024" lon="105.656316">
<time>2016-10-06T20:34:36Z</time></trkpt>
<trkpt lat="24.721074" lon="105.656316">
<time>2016-10-06T20:34:37Z</time></trkpt>
<trkpt lat="24.721134" lon="105.656326">
<time>2016-10-06T20:34:38Z</time></trkpt>
<trkpt lat="24.721194" lon="105.656336">
<time>2016-10-06T20:34:39Z</time></trkpt>
<trkpt lat="24.721254" lon="105.656356">
<time>2016-10-06T20:34:40Z</time></trkpt>
<trkpt lat="24.721304" lon="105.656376">
<time>2016-10-06T20:34:41Z</time></trkpt>
<trkpt lat="24.721363" lon="105.656406">
<time>2016-10-06T20:34:42Z</time></trkpt>
<trkpt lat="24.721413" lon="105.656426">
<time>2016-10-06T20:34:43Z</time></trkpt>
<trkpt lat="24.721473" lon="105.656456">
<time>2016-10-06T20:34:44Z</time></trkpt>
<trkpt lat="24.721533" lon="105.656486">
<time>2016-10-06T20:34:45Z</time></trkpt>
<trkpt lat="24.721583" lon="105.656506">
<time>2016-10-06T20:34:46Z</time></trkpt>
<trkpt lat="24.721633" lon="105.656536">
<time>2016-10-06T20:34:47Z</time></trkpt>
<trkpt lat="24.721693" lon="105.656556">
<time>2016-10-06T20:34:48Z</time></trkpt>
<trkpt lat="24.721743" lon="105.656576">
<time>2016-10-06T20:34:49Z</time></trkpt>
<trkpt lat="24.721793" lon="105.656595">
<time>2016-10-06T20:34:50Z</time></trkpt>
<trkpt lat="24.721853" lon="105.656615">
<time>2016-10-06T20:34:51Z</time></trkpt>
<trkpt lat="24.721913" lon="105.656625">
<time>2016-10-06T20:34:52Z</time></trkpt>
<trkpt lat="24.721963" lon="105.656625">
<time>2016-10-06T20:34:53Z</time></trkpt>
<trkpt lat="24.722003" lon="105.656635">
<time>2016-10-06T20:34:54Z</time></trkpt>
<trkpt lat="24.722053" lon="105.656635">
<time>2016-10-06T20:34:55Z</time></trkpt>
<trkpt lat="24.722093" lon="105.656625">
<time>2016-10-06T20:34:56Z</time></trkpt>
<trkpt lat="24.722133" lon="105.656625">
<time>2016-10-06T20:34:57Z</time></trkpt>
<trkpt lat="24.722183" lon="105.656615">
<time>2016-10-06T20:34:58Z</time></trkpt>
<trkpt lat="24.722223" lon="105.656605">
<time>2016-10-06T20:34:59Z</time></trkpt>
<trkpt lat="24.722263" lon="105.656595">
<time>2016-10-06T20:35:00Z</time></trkpt>
<trkpt lat="24.722303" lon="105.656576">
<time>2016-10-06T20:35:01Z</time></trkpt>
<trkpt lat="24.722353" lon="105.656556">
<time>2016-10-06T20:35:02Z</time></trkpt>
<trkpt lat="24.722393" lon="105.656536">
<time>2016-10-06T20:35:03Z</time></trkpt>
<trkpt lat="24.722443" lon="105.656506">
<time>2016-10-06T20:35:04Z</time></trkpt>
<trkpt lat="24.722483" lon="105.656476">
<time>2016-10-06T20:35:05Z</time></trkpt>
<trkpt lat="24.722523" lon="105.656446">
<time>2016-10-06T20:35:06Z</time></trkpt>
<trkpt lat="24.722573" lon="105.656416">
<time>2016-10-06T20:35:07Z</time></trkpt>
<trkpt lat="24.722613" lon="105.656376">
<time>2016-10-06T20:35:08Z</time></trkpt>
<trkpt lat="24.722714" lon="105.656296">
<time>2016-10-06T20:35:09Z</time></trkpt>
<trkpt lat="24.722764" lon="105.656256">
<time>2016-10-06T20:35:10Z</time></trkpt>
<trkpt lat="24.722814" lon="105.656216">
<time>2016-10-06T20:35:11Z</time></trkpt>
<trkpt lat="24.722874" lon="105.656186">
<time>2016-10-06T20:35:12Z</time></trkpt>
<trkpt lat="24.722934" lon="105.656147">
<time>2016-10-06T20:35:13Z</time></trkpt>
<trkpt lat="24.722984" lon="105.656127">
<time>2016-10-06T20:35:14Z</time></trkpt>
<trkpt lat="24.723044" lon="105.656107">
<time>2016-10-06T20:35:15Z</time></trkpt>
<trkpt lat="24.723104" lon="105.656097">
<time>2016-10-06T20:35:16Z</time></trkpt>
<trkpt lat="24.723164" lon="105.656097">
<time>2016-10-06T20:35:17Z</time></trkpt>
<trkpt lat="24.723214" lon="105.656107">
<time>2016-10-06T20:35:18Z</time></trkpt>
<trkpt lat="24.723274" lon="105.656127">
<time>2016-10-06T20:35:19Z</time></trkpt>
<trkpt lat="24.723334" lon="105.656147">
<time>2016-10-06T20:35:20Z</time></trkpt>
<trkpt lat="24.723394" lon="105.656176">
<time>2016-10-06T20:35:21Z</time></trkpt>
<trkpt lat="24.723454" lon="105.656206">
<time>2016-10-06T20:35:22Z</time></trkpt>
<trkpt lat="24.723504" lon="105.656236">
<time>2016-10-06T20:35:23Z</time></trkpt>
<trkpt lat="24.723564" lon="105.656256">
<time>2016-10-06T20:35:24Z</time></trkpt>
<trkpt lat="24.723624" lon="105.656286">
<time>2016-10-06T20:35:25Z</time></trkpt>
<trkpt lat="24.723694" lon="105.656306">
<time>2016-10-06T20:35:26Z</time></trkpt>
<trkpt lat="24.723754" lon="105.656326">
<time>2016-10-06T20:35:27Z</time></trkpt>
<trkpt lat="24.723813" lon="105.656346">
<time>2016-10-06T20:35:28Z</time></trkpt>
<trkpt lat="24.723883" lon="105.656356">
<time>2016-10-06T20:35:29Z</time></trkpt>
<trkpt lat="24.723943" lon="105.656366">
<time>2016-10-06T20:35:30Z</time></trkpt>
<trkpt lat="24.724013" lon="105.656376">
<time>2016-10-06T20:35:31Z</time></trkpt>
<trkpt lat="24.724073" lon="105.656386">
<time>2016-10-06T20:35:32Z</time></trkpt>
<trkpt lat="24.724143" lon="105.656386">
<time>2016-10-06T20:35:33Z</time></trkpt>
<trkpt lat="24.724213" lon="105.656386">
<time>2016-10-06T20:35:34Z</time></trkpt>
<trkpt lat="24.724283" lon="105.656376">
<time>2016-10-06T20:35:35Z</time></trkpt>
<trkpt lat="24.724413" lon="105.656376">
<time>2016-10-06T20:35:36Z</time></trkpt>
<trkpt lat="24.724483" lon="105.656376">
<time>2016-10-06T20:35:37Z</time></trkpt>
<trkpt lat="24.724553" lon="105.656376">
<time>2016-10-06T20:35:38Z</time></trkpt>
<trkpt lat="24.724623" lon="105.656376">
<time>2016-10-06T20:35:39Z</time></trkpt>
<trkpt lat="24.724693" lon="105.656376">
<time>2016-10-06T20:35:40Z</time></trkpt>
<trkpt lat="24.724763" lon="105.656386">
<time>2016-10-06T20:35:41Z</time></trkpt>
<trkpt lat="24.724823" lon="105.656386">
<time>2016-10-06T20:35:42Z</time></trkpt>
<trkpt lat="24.724893" lon="105.656396">
<time>2016-10-06T20:35:43Z</time></trkpt>
<trkpt lat="24.724963" lon="105.656396">
<time>2016-10-06T20:35:44Z</time></trkpt>
<trkpt lat="24.725023" lon="105.656386">
<time>2016-10-06T20:35:45Z</time></trkpt>
<trkpt lat="24.725093" lon="105.656366">
<time>2016-10-06T20:35:46Z</time></trkpt>
<trkpt lat="24.725163" lon="105.656336">
<time>2016-10-06T20:35:47Z</time></trkpt>
<trkpt lat="24.725183" lon="105.656326">
<time>2016-10-06T20:35:48Z</time></trkpt>
<trkpt lat="24.725193" lon="105.656316">
<time>2016-10-06T20:35:49Z</time></trkpt>
<trkpt lat="24.725213" lon="105.656306">
<time>2016-10-06T20:35:50Z</time></trkpt>
<trkpt lat="24.725233" lon="105.656296">
<time>2016-10-06T20:35:51Z</time></trkpt>
<trkpt lat="24.725244" lon="105.656286">
<time>2016-10-06T20:35:52Z</time></trkpt>
<trkpt lat="24.725254" lon="105.656266">
<time>2016-10-06T20:35:53Z</time></trkpt>
<trkpt lat="24.725264" lon="105.656256">
<time>2016-10-06T20:35:54Z</time></trkpt>
<trkpt lat="24.725274" lon="105.656236">
<time>2016-10-06T20:35:55Z</time></trkpt>
<trkpt lat="24.725274" lon="105.656206">
<time>2016-10-06T20:35:56Z</time></trkpt>
<trkpt lat="24.725274" lon="105.656186">
<time>2016-10-06T20:35:57Z</time></trkpt>
<trkpt lat="24.725264" lon="105.656156">
<time>2016-10-06T20:35:58Z</time></trkpt>
<trkpt lat="24.725254" lon="105.656127">
<time>2016-10-06T20:35:59Z</time></trkpt>
<trkpt lat="24.725234" lon="105.656097">
<time>2016-10-06T20:36:00Z</time></trkpt>
<trkpt lat="24.725214" lon="105.656067">
<time>2016-10-06T20:36:01Z</time></trkpt>
<trkpt lat="24.725194" lon="105.656047">
<time>2016-10-06T20:36:02Z</time></trkpt>
<trkpt lat="24.725174" lon="105.656017">
<time>2016-10-06T20:36:03Z</time></trkpt>
<trkpt lat="24.725124" lon="105.655987">
<time>2016-10-06T20:36:04Z</time></trkpt>
<trkpt lat="24.725084" lon="105.655957">
<time>2016-10-06T20:36:05Z</time></trkpt>
<trkpt lat="24.725034" lon="105.655937">
<time>2016-10-06T20:36:06Z</time></trkpt>
<trkpt lat="24.724984" lon="105.655927">
<time>2016-10-06T20:36:07Z</time></trkpt>
<trkpt lat="24.724934" lon="105.655927">
<time>2016-10-06T20:36:08Z</time></trkpt>
<trkpt lat="24.724874" lon="105.655917">
<time>2016-10-06T20:36:09Z</time></trkpt>
<trkpt lat="24.724774" lon="105.655917">
<time>2016-10-06T20:36:10Z</time></trkpt>
<trkpt lat="24.724694" lon="105.655907">
<time>2016-10-06T20:36:11Z</time></trkpt>
<trkpt lat="24.724614" lon="105.655897">
<time>2016-10-06T20:36:12Z</time></trkpt>
<trkpt lat="24.724534" lon="105.655887">
<time>2016-10-06T20:36:13Z</time></trkpt>
<trkpt lat="24.724454" lon="105.655867">
<time>2016-10-06T20:36:14Z</time></trkpt>
<trkpt lat="24.724374" lon="105.655847">
<time>2016-10-06T20:36:15Z</time></trkpt>
<trkpt lat="24.724294" lon="105.655817">
<time>2016-10-06T20:36:16Z</time></trkpt>
<trkpt lat="24.724214" lon="105.655797">
<time>2016-10-06T20:36:17Z</time></trkpt>
<trkpt lat="24.724135" lon="105.655767">
<time>2016-10-06T20:36:18Z</time></trkpt>
<trkpt lat="24.724075" lon="105.655738">
<time>2016-10-06T20:36:19Z</time></trkpt>
<trkpt lat="24.724005" lon="105.655708">
<time>2016-10-06T20:36:20Z</time></trkpt>
<trkpt lat="24.723945" lon="105.655688">
<time>2016-10-06T20:36:21Z</time></trkpt>
<trkpt lat="24.723875" lon="105.655658">
<time>2016-10-06T20:36:22Z</time></trkpt>
<trkpt lat="24.723815" lon="105.655618">
<time>2016-10-06T20:36:23Z</time></trkpt>
<trkpt lat="24.723755" lon="105.655588">
<time>2016-10-06T20:36:24Z</time></trkpt>
<trkpt lat="24.723695" lon="105.655548">
<time>2016-10-06T20:36:25Z</time></trkpt>
<trkpt lat="24.723645" lon="105.655518">
<time>2016-10-06T20:36:26Z</time></trkpt>
<trkpt lat="24.723595" lon="105.655478">
<time>2016-10-06T20:36:27Z</time></trkpt>
<trkpt lat="24.723555" lon="105.655448">
<time>2016-10-06T20:36:28Z</time></trkpt>
<trkpt lat="24.723505" lon="105.655418">
<time>2016-10-06T20:36:29Z</time></trkpt>
<trkpt lat="24.723465" lon="105.655378">
<time>2016-10-06T20:36:30Z</time></trkpt>
<trkpt lat="24.723415" lon="105.655349">
<time>2016-10-06T20:36:31Z</time></trkpt>
<trkpt lat="24.723355" lon="105.655319">
<time>2016-10-06T20:36:32Z</time></trkpt>
<trkpt lat="24.723305" lon="105.655279">
<time>2016-10-06T20:36:33Z</time></trkpt>
<trkpt lat="24.723246" lon="105.655249">
<time>2016-10-06T20:36:34Z</time></trkpt>
<trkpt lat="24.723186" lon="105.655229">
<time>2016-10-06T20:36:35Z</time></trkpt>
<trkpt lat="24.723166" lon="105.655219">
<time>2016-10-06T20:36:36Z</time></trkpt>
<trkpt lat="24.723146" lon="105.655209">
<time>2016-10-06T20:36:37Z</time></trkpt>
<trkpt lat="24.723126" lon="105.655199">
<time>2016-10-06T20:36:38Z</time></trkpt>
<trkpt lat="24.723106" lon="105.655179">
<time>2016-10-06T20:36:39Z</time></trkpt>
<trkpt lat="24.723106" lon="105.655159">
<time>2016-10-06T20:36:40Z</time></trkpt>
<trkpt lat="24.723096" lon="105.655139">
<time>2016-10-06T20:36:41Z</time></trkpt>
<trkpt lat="24.723096" lon="105.655129">
<time>2016-10-06T20:36:42Z</time></trkpt>
<trkpt lat="24.723106" lon="105.655119">
<time>2016-10-06T20:36:43Z</time></trkpt>
<trkpt lat="24.723106" lon="105.655109">
<time>2016-10-06T20:36:44Z</time></trkpt>
<trkpt lat="24.723106" lon="105.655099">
<time>2016-10-06T20:36:45Z</time></trkpt>
<trkpt lat="24.723116" lon="105.655089">
<time>2016-10-06T20:36:46Z</time></trkpt>
<trkpt lat="24.723116" lon="105.655079">
<time>2016-10-06T20:36:47Z</time></trkpt>
<trkpt lat="24.723126" lon="105.655069">
<time>2016-10-06T20:36:48Z</time></trkpt>
<trkpt lat="24.723136" lon="105.655059">
<time>2016-10-06T20:36:49Z</time></trkpt>
<trkpt lat="24.723156" lon="105.655039">
<time>2016-10-06T20:36:50Z</time></trkpt>
<trkpt lat="24.723176" lon="105.655029">
<time>2016-10-06T20:36:51Z</time></trkpt>
<trkpt lat="24.723196" lon="105.655019">
<time>2016-10-06T20:36:52Z</time></trkpt>
<trkpt lat="24.723226" lon="105.655019">
<time>2016-10-06T20:36:53Z</time></trkpt>
<trkpt lat="24.723246" lon="105.655019">
<time>2016-10-06T20:36:54Z</time></trkpt>
<trkpt lat="24.723266" lon="105.655009">
<time>2016-10-06T20:36:55Z</time></trkpt>
<trkpt lat="24.723286" lon="105.655009">
<time>2016-10-06T20:36:56Z</time></trkpt>
<trkpt lat="24.723346" lon="105.655019">
<time>2016-10-06T20:36:57Z</time></trkpt>
<trkpt lat="24.723396" lon="105.655019">
<time>2016-10-06T20:36:58Z</time></trkpt>
<trkpt lat="24.723446" lon="105.655029">
<time>2016-10-06T20:36:59Z</time></trkpt>
<trkpt lat="24.723486" lon="105.655039">
<time>2016-10-06T20:37:00Z</time></trkpt>
<trkpt lat="24.723536" lon="105.655049">
<time>2016-10-06T20:37:01Z</time></trkpt>
<trkpt lat="24.723586" lon="105.655069">
<time>2016-10-06T20:37:02Z</time></trkpt>
<trkpt lat="24.723636" lon="105.655089">
<time>2016-10-06T20:37:03Z</time></trkpt>
<trkpt lat="24.723676" lon="105.655109">
<time>2016-10-06T20:37:04Z</time></trkpt>
<trkpt lat="24.723726" lon="105.655129">
<time>2016-10-06T20:37:05Z</time></trkpt>
<trkpt lat="24.723776" lon="105.655149">
<time>2016-10-06T20:37:06Z</time></trkpt>
<trkpt lat="24.723876" lon="105.655199">
<time>2016-10-06T20:37:07Z</time></trkpt>
<trkpt lat="24.723916" lon="105.655219">
<time>2016-10-06T20:37:08Z</time></trkpt>
<trkpt lat="24.723966" lon="105.655239">
<time>2016-10-06T20:37:09Z</time></trkpt>
<trkpt lat="24.724015" lon="105.655259">
<time>2016-10-06T20:37:10Z</time></trkpt>
<trkpt lat="24.724065" lon="105.655279">
<time>2016-10-06T20:37:11Z</time></trkpt>
<trkpt lat="24.724125" lon="105.655299">
<time>2016-10-06T20:37:12Z</time></trkpt>
<trkpt lat="24.724185" lon="105.655309">
<time>2016-10-06T20:37:13Z</time></trkpt>
<trkpt lat="24.724255" lon="105.655329">
<time>2016-10-06T20:37:14Z</time></trkpt>
<trkpt lat="24.724315" lon="105.655339">
<time>2016-10-06T20:37:15Z</time></trkpt>
<trkpt lat="24.724375" lon="105.655348">
<time>2016-10-06T20:37:16Z</time></trkpt>
<trkpt lat="24.724435" lon="105.655358">
<time>2016-10-06T20:37:17Z</time></trkpt>
<trkpt lat="24.724505" lon="105.655368">
<time>2016-10-06T20:37:18Z</time></trkpt>
<trkpt lat="24.724565" lon="105.655378">
<time>2016-10-06T20:37:19Z</time></trkpt>
<trkpt lat="24.724625" lon="105.655388">
<time>2016-10-06T20:37:20Z</time></trkpt>
<trkpt lat="24.724675" lon="105.655398">
<time>2016-10-06T20:37:21Z</time></trkpt>
<trkpt lat="24.724725" lon="105.655398">
<time>2016-10-06T20:37:22Z</time></trkpt>
<trkpt lat="24.724775" lon="105.655408">
<time>2016-10-06T20:37:23Z</time></trkpt>
<trkpt lat="24.724835" lon="105.655408">
<time>2016-10-06T20:37:24Z</time></trkpt>
<trkpt lat="24.724885" lon="105.655408">
<time>2016-10-06T20:37:25Z</time></trkpt>
<trkpt lat="24.724935" lon="105.655398">
<time>2016-10-06T20:37:26Z</time></trkpt>
<trkpt lat="24.724985" lon="105.655388">
<time>2016-10-06T20:37:27Z</time></trkpt>
<trkpt lat="24.725045" lon="105.655378">
<time>2016-10-06T20:37:28Z</time></trkpt>
<trkpt lat="24.725105" lon="105.655348">
<time>2016-10-06T20:37:29Z</time></trkpt>
<trkpt lat="24.725155" lon="105.655329">
<time>2016-10-06T20:37:30Z</time></trkpt>
<trkpt lat="24.725215" lon="105.655299">
<time>2016-10-06T20:37:31Z</time></trkpt>
<trkpt lat="24.725275" lon="105.655269">
<time>2016-10-06T20:37:32Z</time></trkpt>
<trkpt lat="24.725335" lon="105.655239">
<time>2016-10-06T20:37:33Z</time></trkpt>
<trkpt lat="24.725395" lon="105.655209">
<time>2016-10-06T20:37:34Z</time></trkpt>
<trkpt lat="24.725456" lon="105.655189">
<time>2016-10-06T20:37:35Z</time></trkpt>
<trkpt lat="24.725496" lon="105.655179">
<time>2016-10-06T20:37:36Z</time></trkpt>
<trkpt lat="24.725526" lon="105.655169">
<time>2016-10-06T20:37:37Z</time></trkpt>
<trkpt lat="24.725556" lon="105.655159">
<time>2016-10-06T20:37:38Z</time></trkpt>
<trkpt lat="24.725586" lon="105.655139">
<time>2016-10-06T20:37:39Z</time></trkpt>
<trkpt lat="24.725616" lon="105.655129">
<time>2016-10-06T20:37:40Z</time></trkpt>
<trkpt lat="24.725646" lon="105.655119">
<time>2016-10-06T20:37:41Z</time></trkpt>
<trkpt lat="24.725676" lon="105.655099">
<time>2016-10-06T20:37:42Z</time></trkpt>
<trkpt lat="24.725696" lon="105.655079">
<time>2016-10-06T20:37:43Z</time></trkpt>
<trkpt lat="24.725716" lon="105.655049">
<time>2016-10-06T20:37:44Z</time></trkpt>
<trkpt lat="24.725726" lon="105.655019">
<time>2016-10-06T20:37:45Z</time></trkpt>
<trkpt lat="24.725736" lon="105.654989">
<time>2016-10-06T20:37:46Z</time></trkpt>
<trkpt lat="24.725746" lon="105.654959">
<time>2016-10-06T20:37:47Z</time></trkpt>
<trkpt lat="24.725756" lon="105.654919">
<time>2016-10-06T20:37:48Z</time></trkpt>
<trkpt lat="24.725756" lon="105.65488">
<time>2016-10-06T20:37:49Z</time></trkpt>
<trkpt lat="24.725766" lon="105.65485">
<time>2016-10-06T20:37:50Z</time></trkpt>
<trkpt lat="24.725766" lon="105.65481">
<time>2016-10-06T20:37:51Z</time></trkpt>
<trkpt lat="24.725776" lon="105.65473">
<time>2016-10-06T20:37:52Z</time></trkpt>
<trkpt lat="24.725786" lon="105.65466">
<time>2016-10-06T20:37:53Z</time></trkpt>
<trkpt lat="24.725787" lon="105.65459">
<time>2016-10-06T20:37:54Z</time></trkpt>
<trkpt lat="24.725787" lon="105.65452">
<time>2016-10-06T20:37:55Z</time></trkpt>
<trkpt lat="24.725797" lon="105.654451">
<time>2016-10-06T20:37:56Z</time></trkpt>
<trkpt lat="24.725787" lon="105.654381">
<time>2016-10-06T20:37:57Z</time></trkpt>
<trkpt lat="24.725787" lon="105.654311">
<time>2016-10-06T20:37:58Z</time></trkpt>
<trkpt lat="24.725767" lon="105.654241">
<time>2016-10-06T20:37:59Z</time></trkpt>
<trkpt lat="24.725757" lon="105.654181">
<time>2016-10-06T20:38:00Z</time></trkpt>
<trkpt lat="24.725747" lon="105.654131">
<time>2016-10-06T20:38:01Z</time></trkpt>
<trkpt lat="24.725728" lon="105.654072">
<time>2016-10-06T20:38:02Z</time></trkpt>
<trkpt lat="24.725688" lon="105.653962">
<time>2016-10-06T20:38:03Z</time></trkpt>
<trkpt lat="24.725678" lon="105.653902">
<time>2016-10-06T20:38:04Z</time></trkpt>
<trkpt lat="24.725658" lon="105.653852">
<time>2016-10-06T20:38:05Z</time></trkpt>
<trkpt lat="24.725648" lon="105.653792">
<time>2016-10-06T20:38:06Z</time></trkpt>
<trkpt lat="24.725638" lon="105.653732">
<time>2016-10-06T20:38:07Z</time></trkpt>
<trkpt lat="24.725628" lon="105.653663">
<time>2016-10-06T20:38:08Z</time></trkpt>
<trkpt lat="24.725628" lon="105.653593">
<time>2016-10-06T20:38:09Z</time></trkpt>
<trkpt lat="24.725629" lon="105.653533">
<time>2016-10-06T20:38:10Z</time></trkpt>
<trkpt lat="24.725639" lon="105.653463">
<time>2016-10-06T20:38:11Z</time></trkpt>
<trkpt lat="24.725639" lon="105.653393">
<time>2016-10-06T20:38:12Z</time></trkpt>
<trkpt lat="24.725649" lon="105.653333">
<time>2016-10-06T20:38:13Z</time></trkpt>
<trkpt lat="24.725659" lon="105.653264">
<time>2016-10-06T20:38:14Z</time></trkpt>
<trkpt lat="24.725669" lon="105.653194">
<time>2016-10-06T20:38:15Z</time></trkpt>
<trkpt lat="24.725679" lon="105.653124">
<time>2016-10-06T20:38:16Z</time></trkpt>
<trkpt lat="24.725699" lon="105.653054">
<time>2016-10-06T20:38:17Z</time></trkpt>
<trkpt lat="24.72571" lon="105.652984">
<time>2016-10-06T20:38:18Z</time></trkpt>
<trkpt lat="24.72572" lon="105.652914">
<time>2016-10-06T20:38:19Z</time></trkpt>
<trkpt lat="24.72574" lon="105.652845">
<time>2016-10-06T20:38:20Z</time></trkpt>
<trkpt lat="24.72577" lon="105.652705">
<time>2016-10-06T20:38:21Z</time></trkpt>
<trkpt lat="24.72578" lon="105.652655">
<time>2016-10-06T20:38:22Z</time></trkpt>
<trkpt lat="24.72579" lon="105.652605">
<time>2016-10-06T20:38:23Z</time></trkpt>
<trkpt lat="24.72579" lon="105.652565">
<time>2016-10-06T20:38:24Z</time></trkpt>
<trkpt lat="24.7258" lon="105.652515">
<time>2016-10-06T20:38:25Z</time></trkpt>
<trkpt lat="24.7258" lon="105.652476">
<time>2016-10-06T20:38:26Z</time></trkpt>
<trkpt lat="24.725801" lon="105.652426">
<time>2016-10-06T20:38:27Z</time></trkpt>
<trkpt lat="24.725801" lon="105.652386">
<time>2016-10-06T20:38:28Z</time></trkpt>
<trkpt lat="24.725791" lon="105.652346">
<time>2016-10-06T20:38:29Z</time></trkpt>
<trkpt lat="24.725771" lon="105.652296">
<time>2016-10-06T20:38:30Z</time></trkpt>
<trkpt lat="24.725751" lon="105.652246">
<time>2016-10-06T20:38:31Z</time></trkpt>
<trkpt lat="24.725721" lon="105.652206">
<time>2016-10-06T20:38:32Z</time></trkpt>
<trkpt lat="24.725691" lon="105.652166">
<time>2016-10-06T20:38:33Z</time></trkpt>
<trkpt lat="24.725661" lon="105.652116">
<time>2016-10-06T20:38:34Z</time></trkpt>
<trkpt lat="24.725631" lon="105.652077">
<time>2016-10-06T20:38:35Z</time></trkpt>
<trkpt lat="24.725591" lon="105.652037">
<time>2016-10-06T20:38:36Z</time></trkpt>
<trkpt lat="24.725561" lon="105.651997">
<time>2016-10-06T20:38:37Z</time></trkpt>
<trkpt lat="24.725531" lon="105.651957">
<time>2016-10-06T20:38:38Z</time></trkpt>
<trkpt lat="24.725512" lon="105.651917">
<time>2016-10-06T20:38:39Z</time></trkpt>
<trkpt lat="24.725482" lon="105.651877">
<time>2016-10-06T20:38:40Z</time></trkpt>
<trkpt lat="24.725462" lon="105.651827">
<time>2016-10-06T20:38:41Z</time></trkpt>
<trkpt lat="24.725442" lon="105.651787">
<time>2016-10-06T20:38:42Z</time></trkpt>
<trkpt lat="24.725432" lon="105.651747">
<time>2016-10-06T20:38:43Z</time></trkpt>
<trkpt lat="24.725412" lon="105.651697">
<time>2016-10-06T20:38:44Z</time></trkpt>
<trkpt lat="24.725402" lon="105.651658">
<time>2016-10-06T20:38:45Z</time></trkpt>
<trkpt lat="24.725392" lon="105.651618">
<time>2016-10-06T20:38:46Z</time></trkpt>
<trkpt lat="24.725382" lon="105.651578">
<time>2016-10-06T20:38:47Z</time></trkpt>
<trkpt lat="24.725382" lon="105.651538">
<time>2016-10-06T20:38:48Z</time></trkpt>
<trkpt lat="24.725372" lon="105.651498">
<time>2016-10-06T20:38:49Z</time></trkpt>
<trkpt lat="24.725372" lon="105.651458">
<time>2016-10-06T20:38:50Z</time></trkpt>
<trkpt lat="24.725362" lon="105.651418">
<time>2016-10-06T20:38:51Z</time></trkpt>
<trkpt lat="24.725362" lon="105.651378">
<time>2016-10-06T20:38:52Z</time></trkpt>
<trkpt lat="24.725363" lon="105.651338">
<time>2016-10-06T20:38:53Z</time></trkpt>
<trkpt lat="24.725363" lon="105.651298">
<time>2016-10-06T20:38:54Z</time></trkpt>
<trkpt lat="24.725363" lon="105.651229">
<time>2016-10-06T20:38:55Z</time></trkpt>
<trkpt lat="24.725373" lon="105.651189">
<time>2016-10-06T20:38:56Z</time></trkpt>
<trkpt lat="24.725373" lon="105.651159">
<time>2016-10-06T20:38:57Z</time></trkpt>
<trkpt lat="24.725363" lon="105.651119">
<time>2016-10-06T20:38:58Z</time></trkpt>
<trkpt lat="24.725363" lon="105.651079">
<time>2016-10-06T20:38:59Z</time></trkpt>
<trkpt lat="24.725363" lon="105.651049">
<time>2016-10-06T20:39:00Z</time></trkpt>
<trkpt lat="24.725353" lon="105.651009">
<time>2016-10-06T20:39:01Z</time></trkpt>
<trkpt lat="24.725343" lon="105.650959">
<time>2016-10-06T20:39:02Z</time></trkpt>
<trkpt lat="24.725323" lon="105.650919">
<time>2016-10-06T20:39:03Z</time></trkpt>
<trkpt lat="24.725313" lon="105.650879">
<time>2016-10-06T20:39:04Z</time></trkpt>
<trkpt lat="24.725293" lon="105.65084">
<time>2016-10-06T20:39:05Z</time></trkpt>
<trkpt lat="24.725274" lon="105.6508">
<time>2016-10-06T20:39:06Z</time></trkpt>
<trkpt lat="24.725244" lon="105.65076">
<time>2016-10-06T20:39:07Z</time></trkpt>
<trkpt lat="24.725224" lon="105.65072">
<time>2016-10-06T20:39:08Z</time></trkpt>
<trkpt lat="24.725184" lon="105.65065">
<time>2016-10-06T20:39:09Z</time></trkpt>
<trkpt lat="24.725154" lon="105.65061">
<time>2016-10-06T20:39:10Z</time></trkpt>
<trkpt lat="24.725134" lon="105.65057">
<time>2016-10-06T20:39:11Z</time></trkpt>
<trkpt lat="24.725114" lon="105.65054">
<time>2016-10-06T20:39:12Z</time></trkpt>
<trkpt lat="24.725104" lon="105.6505">
<time>2016-10-06T20:39:13Z</time></trkpt>
<trkpt lat="24.725094" lon="105.65046">
<time>2016-10-06T20:39:14Z</time></trkpt>
<trkpt lat="24.725084" lon="105.650421">
<time>2016-10-06T20:39:15Z</time></trkpt>
<trkpt lat="24.725074" lon="105.650381">
<time>2016-10-06T20:39:16Z</time></trkpt>
<trkpt lat="24.725074" lon="105.650341">
<time>2016-10-06T20:39:17Z</time></trkpt>
<trkpt lat="24.725084" lon="105.650301">
<time>2016-10-06T20:39:18Z</time></trkpt>
<trkpt lat="24.725084" lon="105.650261">
<time>2016-10-06T20:39:19Z</time></trkpt>
<trkpt lat="24.725095" lon="105.650221">
<time>2016-10-06T20:39:20Z</time></trkpt>
<trkpt lat="24.725105" lon="105.650181">
<time>2016-10-06T20:39:21Z</time></trkpt>
<trkpt lat="24.725115" lon="105.650141">
<time>2016-10-06T20:39:22Z</time></trkpt>
<trkpt lat="24.725125" lon="105.650101">
<time>2016-10-06T20:39:23Z</time></trkpt>
<trkpt lat="24.725145" lon="105.650051">
<time>2016-10-06T20:39:24Z</time></trkpt>
<trkpt lat="24.725165" lon="105.649992">
<time>2016-10-06T20:39:25Z</time></trkpt>
<trkpt lat="24.725185" lon="105.649932">
<time>2016-10-06T20:39:26Z</time></trkpt>
<trkpt lat="24.725215" lon="105.649882">
<time>2016-10-06T20:39:27Z</time></trkpt>
<trkpt lat="24.725235" lon="105.649832">
<time>2016-10-06T20:39:28Z</time></trkpt>
<trkpt lat="24.725265" lon="105.649782">
<time>2016-10-06T20:39:29Z</time></trkpt>
<trkpt lat="24.725295" lon="105.649732">
<time>2016-10-06T20:39:30Z</time></trkpt>
<trkpt lat="24.725326" lon="105.649682">
<time>2016-10-06T20:39:31Z</time></trkpt>
<trkpt lat="24.725386" lon="105.649613">
<time>2016-10-06T20:39:32Z</time></trkpt>
<trkpt lat="24.725446" lon="105.649543">
<time>2016-10-06T20:39:33Z</time></trkpt>
<trkpt lat="24.725506" lon="105.649483">
<time>2016-10-06T20:39:34Z</time></trkpt>
<trkpt lat="24.725576" lon="105.649413">
<time>2016-10-06T20:39:35Z</time></trkpt>
<trkpt lat="24.725646" lon="105.649353">
<time>2016-10-06T20:39:36Z</time></trkpt>
<trkpt lat="24.725716" lon="105.649293">
<time>2016-10-06T20:39:37Z</time></trkpt>
<trkpt lat="24.725786" lon="105.649233">
<time>2016-10-06T20:39:38Z</time></trkpt>
<trkpt lat="24.725846" lon="105.649174">
<time>2016-10-06T20:39:39Z</time></trkpt>
<trkpt lat="24.725886" lon="105.649134">
<time>2016-10-06T20:39:40Z</time></trkpt>
<trkpt lat="24.725917" lon="105.649104">
<time>2016-10-06T20:39:41Z</time></trkpt>
<trkpt lat="24.725947" lon="105.649074">
<time>2016-10-06T20:39:42Z</time></trkpt>
<trkpt lat="24.725977" lon="105.649034">
<time>2016-10-06T20:39:43Z</time></trkpt>
<trkpt lat="24.726007" lon="105.648994">
<time>2016-10-06T20:39:44Z</time></trkpt>
<trkpt lat="24.726047" lon="105.648964">
<time>2016-10-06T20:39:45Z</time></trkpt>
<trkpt lat="24.726077" lon="105.648924">
<time>2016-10-06T20:39:46Z</time></trkpt>
<trkpt lat="24.726107" lon="105.648884">
<time>2016-10-06T20:39:47Z</time></trkpt>
<trkpt lat="24.726137" lon="105.648834">
<time>2016-10-06T20:39:48Z</time></trkpt>
<trkpt lat="24.726177" lon="105.648784">
<time>2016-10-06T20:39:49Z</time></trkpt>
<trkpt lat="24.726217" lon="105.648735">
<time>2016-10-06T20:39:50Z</time></trkpt>
<trkpt lat="24.726247" lon="105.648675">
<time>2016-10-06T20:39:51Z</time></trkpt>
<trkpt lat="24.726277" lon="105.648625">
<time>2016-10-06T20:39:52Z</time></trkpt>
<trkpt lat="24.726307" lon="105.648565">
<time>2016-10-06T20:39:53Z</time></trkpt>
<trkpt lat="24.726328" lon="105.648505">
<time>2016-10-06T20:39:54Z</time></trkpt>
<trkpt lat="24.726338" lon="105.648445">
<time>2016-10-06T20:39:55Z</time></trkpt>
<trkpt lat="24.726348" lon="105.648405">
<time>2016-10-06T20:39:56Z</time></trkpt>
<trkpt lat="24.726358" lon="105.648356">
<time>2016-10-06T20:39:57Z</time></trkpt>
<trkpt lat="24.726368" lon="105.648306">
<time>2016-10-06T20:39:58Z</time></trkpt>
<trkpt lat="24.726368" lon="105.648256">
<time>2016-10-06T20:39:59Z</time></trkpt>
<trkpt lat="24.726368" lon="105.648206">
<time>2016-10-06T20:40:00Z</time></trkpt>
<trkpt lat="24.726368" lon="105.648156">
<time>2016-10-06T20:40:01Z</time></trkpt>
<trkpt lat="24.726368" lon="105.648106">
<time>2016-10-06T20:40:02Z</time></trkpt>
<trkpt lat="24.726358" lon="105.648056">
<time>2016-10-06T20:40:03Z</time></trkpt>
<trkpt lat="24.726358" lon="105.647986">
<time>2016-10-06T20:40:04Z</time></trkpt>
<trkpt lat="24.726359" lon="105.647927">
<time>2016-10-06T20:40:05Z</time></trkpt>
<trkpt lat="24.726349" lon="105.647867">
<time>2016-10-06T20:40:06Z</time></trkpt>
<trkpt lat="24.726349" lon="105.647807">
<time>2016-10-06T20:40:07Z</time></trkpt>
<trkpt lat="24.726339" lon="105.647747">
<time>2016-10-06T20:40:08Z</time></trkpt>
<trkpt lat="24.726339" lon="105.647687">
<time>2016-10-06T20:40:09Z</time></trkpt>
<trkpt lat="24.726329" lon="105.647627">
<time>2016-10-06T20:40:10Z</time></trkpt>
<trkpt lat="24.726329" lon="105.647567">
<time>2016-10-06T20:40:11Z</time></trkpt>
<trkpt lat="24.726319" lon="105.647478">
<time>2016-10-06T20:40:12Z</time></trkpt>
<trkpt lat="24.726309" lon="105.647398">
<time>2016-10-06T20:40:13Z</time></trkpt>
<trkpt lat="24.72629" lon="105.647318">
<time>2016-10-06T20:40:14Z</time></trkpt>
<trkpt lat="24.72628" lon="105.647238">
<time>2016-10-06T20:40:15Z</time></trkpt>
<trkpt lat="24.72627" lon="105.647158">
<time>2016-10-06T20:40:16Z</time></trkpt>
<trkpt lat="24.72624" lon="105.646989">
<time>2016-10-06T20:40:17Z</time></trkpt>
<trkpt lat="24.72623" lon="105.646909">
<time>2016-10-06T20:40:18Z</time></trkpt>
<trkpt lat="24.72622" lon="105.646849">
<time>2016-10-06T20:40:19Z</time></trkpt>
<trkpt lat="24.726211" lon="105.646799">
<time>2016-10-06T20:40:20Z</time></trkpt>
<trkpt lat="24.726201" lon="105.646739">
<time>2016-10-06T20:40:21Z</time></trkpt>
<trkpt lat="24.726201" lon="105.646689">
<time>2016-10-06T20:40:22Z</time></trkpt>
<trkpt lat="24.726191" lon="105.64663">
<time>2016-10-06T20:40:23Z</time></trkpt>
<trkpt lat="24.726191" lon="105.64658">
<time>2016-10-06T20:40:24Z</time></trkpt>
<trkpt lat="24.726191" lon="105.64652">
<time>2016-10-06T20:40:25Z</time></trkpt>
<trkpt lat="24.726201" lon="105.64647">
<time>2016-10-06T20:40:26Z</time></trkpt>
<trkpt lat="24.726211" lon="105.64638">
<time>2016-10-06T20:40:27Z</time></trkpt>
<trkpt lat="24.726231" lon="105.64629">
<time>2016-10-06T20:40:28Z</time></trkpt>
<trkpt lat="24.726262" lon="105.646201">
<time>2016-10-06T20:40:29Z</time></trkpt>
<trkpt lat="24.726292" lon="105.646111">
<time>2016-10-06T20:40:30Z</time></trkpt>
<trkpt lat="24.726322" lon="105.646021">
<time>2016-10-06T20:40:31Z</time></trkpt>
<trkpt lat="24.726362" lon="105.645931">
<time>2016-10-06T20:40:32Z</time></trkpt>
<trkpt lat="24.726402" lon="105.645841">
<time>2016-10-06T20:40:33Z</time></trkpt>
<trkpt lat="24.726432" lon="105.645752">
<time>2016-10-06T20:40:34Z</time></trkpt>
<trkpt lat="24.726472" lon="105.645672">
<time>2016-10-06T20:40:35Z</time></trkpt>
<trkpt lat="24.726503" lon="105.645582">
<time>2016-10-06T20:40:36Z</time></trkpt>
<trkpt lat="24.726533" lon="105.645492">
<time>2016-10-06T20:40:37Z</time></trkpt>
<trkpt lat="24.726563" lon="105.645403">
<time>2016-10-06T20:40:38Z</time></trkpt>
<trkpt lat="24.726593" lon="105.645323">
<time>2016-10-06T20:40:39Z</time></trkpt>
<trkpt lat="24.726633" lon="105.645233">
<time>2016-10-06T20:40:40Z</time></trkpt>
<trkpt lat="24.726673" lon="105.645153">
<time>2016-10-06T20:40:41Z</time></trkpt>
<trkpt lat="24.726713" lon="105.645073">
<time>2016-10-06T20:40:42Z</time></trkpt>
<trkpt lat="24.726744" lon="105.645013">
<time>2016-10-06T20:40:43Z</time></trkpt>
<trkpt lat="24.726784" lon="105.644954">
<time>2016-10-06T20:40:44Z</time></trkpt>
<trkpt lat="24.726824" lon="105.644894">
<time>2016-10-06T20:40:45Z</time></trkpt>
<trkpt lat="24.726864" lon="105.644834">
<time>2016-10-06T20:40:46Z</time></trkpt>
<trkpt lat="24.726914" lon="105.644784">
<time>2016-10-06T20:40:47Z</time></trkpt>
<trkpt lat="24.726954" lon="105.644724">
<time>2016-10-06T20:40:48Z</time></trkpt>
<trkpt lat="24.727004" lon="105.644674">
<time>2016-10-06T20:40:49Z</time></trkpt>
<trkpt lat="24.727054" lon="105.644624">
<time>2016-10-06T20:40:50Z</time></trkpt>
<trkpt lat="24.727124" lon="105.644554">
<time>2016-10-06T20:40:51Z</time></trkpt>
<trkpt lat="24.727255" lon="105.644425">
<time>2016-10-06T20:40:52Z</time></trkpt>
<trkpt lat="24.727325" lon="105.644365">
<time>2016-10-06T20:40:53Z</time></trkpt>
<trkpt lat="24.727385" lon="105.644295">
<time>2016-10-06T20:40:54Z</time></trkpt>
<trkpt lat="24.727455" lon="105.644225">
<time>2016-10-06T20:40:55Z</time></trkpt>
<trkpt lat="24.727505" lon="105.644155">
<time>2016-10-06T20:40:56Z</time></trkpt>
<trkpt lat="24.727555" lon="105.644086">
<time>2016-10-06T20:40:57Z</time></trkpt>
<trkpt lat="24.727595" lon="105.644026">
<time>2016-10-06T20:40:58Z</time></trkpt>
<trkpt lat="24.727625" lon="105.643956">
<time>2016-10-06T20:40:59Z</time></trkpt>
<trkpt lat="24.727655" lon="105.643896">
<time>2016-10-06T20:41:00Z</time></trkpt>
<trkpt lat="24.727686" lon="105.643826">
<time>2016-10-06T20:41:01Z</time></trkpt>
<trkpt lat="24.727716" lon="105.643766">
<time>2016-10-06T20:41:02Z</time></trkpt>
<trkpt lat="24.727746" lon="105.643696">
<time>2016-10-06T20:41:03Z</time></trkpt>
<trkpt lat="24.727776" lon="105.643627">
<time>2016-10-06T20:41:04Z</time></trkpt>
<trkpt lat="24.727816" lon="105.643567">
<time>2016-10-06T20:41:05Z</time></trkpt>
<trkpt lat="24.727836" lon="105.643537">
<time>2016-10-06T20:41:06Z</time></trkpt>
<trkpt lat="24.727856" lon="105.643497">
<time>2016-10-06T20:41:07Z</time></trkpt>
<trkpt lat="24.727876" lon="105.643467">
<time>2016-10-06T20:41:08Z</time></trkpt>
<trkpt lat="24.727896" lon="105.643437">
<time>2016-10-06T20:41:09Z</time></trkpt>
<trkpt lat="24.727916" lon="105.643417">
<time>2016-10-06T20:41:10Z</time></trkpt>
<trkpt lat="24.727946" lon="105.643387">
<time>2016-10-06T20:41:11Z</time></trkpt>
<trkpt lat="24.727966" lon="105.643367">
<time>2016-10-06T20:41:12Z</time></trkpt>
<trkpt lat="24.727996" lon="105.643347">
<time>2016-10-06T20:41:13Z</time></trkpt>
<trkpt lat="24.728046" lon="105.643327">
<time>2016-10-06T20:41:14Z</time></trkpt>
<trkpt lat="24.728086" lon="105.643307">
<time>2016-10-06T20:41:15Z</time></trkpt>
<trkpt lat="24.728136" lon="105.643297">
<time>2016-10-06T20:41:16Z</time></trkpt>
<trkpt lat="24.728186" lon="105.643297">
<time>2016-10-06T20:41:17Z</time></trkpt>
<trkpt lat="24.728236" lon="105.643287">
<time>2016-10-06T20:41:18Z</time></trkpt>
<trkpt lat="24.728296" lon="105.643287">
<time>2016-10-06T20:41:19Z</time></trkpt>
<trkpt lat="24.728346" lon="105.643277">
<time>2016-10-06T20:41:20Z</time></trkpt>
<trkpt lat="24.728396" lon="105.643267">
<time>2016-10-06T20:41:21Z</time></trkpt>
<trkpt lat="24.728436" lon="105.643257">
<time>2016-10-06T20:41:22Z</time></trkpt>
<trkpt lat="24.728476" lon="105.643247">
<time>2016-10-06T20:41:23Z</time></trkpt>
<trkpt lat="24.728516" lon="105.643237">
<time>2016-10-06T20:41:24Z</time></trkpt>
<trkpt lat="24.728556" lon="105.643217">
<time>2016-10-06T20:41:25Z</time></trkpt>
<trkpt lat="24.728597" lon="105.643198">
<time>2016-10-06T20:41:26Z</time></trkpt>
<trkpt lat="24.728637" lon="105.643178">
<time>2016-10-06T20:41:27Z</time></trkpt>
<trkpt lat="24.728677" lon="105.643148">
<time>2016-10-06T20:41:28Z</time></trkpt>
<trkpt lat="24.728707" lon="105.643118">
<time>2016-10-06T20:41:29Z</time></trkpt>
<trkpt lat="24.728757" lon="105.643078">
<time>2016-10-06T20:41:30Z</time></trkpt>
<trkpt lat="24.728797" lon="105.643038">
<time>2016-10-06T20:41:31Z</time></trkpt>
<trkpt lat="24.728837" lon="105.642998">
<time>2016-10-06T20:41:32Z</time></trkpt>
<trkpt lat="24.728887" lon="105.642948">
<time>2016-10-06T20:41:33Z</time></trkpt>
<trkpt lat="24.728927" lon="105.642898">
<time>2016-10-06T20:41:34Z</time></trkpt>
<trkpt lat="24.728967" lon="105.642858">
<time>2016-10-06T20:41:35Z</time></trkpt>
<trkpt lat="24.729017" lon="105.642818">
<time>2016-10-06T20:41:36Z</time></trkpt>
<trkpt lat="24.729067" lon="105.642788">
<time>2016-10-06T20:41:37Z</time></trkpt>
<trkpt lat="24.729097" lon="105.642769">
<time>2016-10-06T20:41:38Z</time></trkpt>
<trkpt lat="24.729137" lon="105.642749">
<time>2016-10-06T20:41:39Z</time></trkpt>
<trkpt lat="24.729177" lon="105.642729">
<time>2016-10-06T20:41:40Z</time></trkpt>
<trkpt lat="24.729207" lon="105.642709">
<time>2016-10-06T20:41:41Z</time></trkpt>
<trkpt lat="24.729247" lon="105.642689">
<time>2016-10-06T20:41:42Z</time></trkpt>
<trkpt lat="24.729287" lon="105.642669">
<time>2016-10-06T20:41:43Z</time></trkpt>
<trkpt lat="24.729317" lon="105.642649">
<time>2016-10-06T20:41:44Z</time></trkpt>
<trkpt lat="24.729357" lon="105.642629">
<time>2016-10-06T20:41:45Z</time></trkpt>
<trkpt lat="24.729377" lon="105.642609">
<time>2016-10-06T20:41:46Z</time></trkpt>
<trkpt lat="24.729407" lon="105.642579">
<time>2016-10-06T20:41:47Z</time></trkpt>
<trkpt lat="24.729438" lon="105.642549">
<time>2016-10-06T20:41:48Z</time></trkpt>
<trkpt lat="24.729458" lon="105.642519">
<time>2016-10-06T20:41:49Z</time></trkpt>
<trkpt lat="24.729478" lon="105.642489">
<time>2016-10-06T20:41:50Z</time></trkpt>
<trkpt lat="24.729498" lon="105.642449">
<time>2016-10-06T20:41:51Z</time></trkpt>
<trkpt lat="24.729518" lon="105.642419">
<time>2016-10-06T20:41:52Z</time></trkpt>
<trkpt lat="24.729538" lon="105.642379">
<time>2016-10-06T20:41:53Z</time></trkpt>
<trkpt lat="24.729558" lon="105.642339">
<time>2016-10-06T20:41:54Z</time></trkpt>
<trkpt lat="24.729578" lon="105.64229">
<time>2016-10-06T20:41:55Z</time></trkpt>
<trkpt lat="24.729588" lon="105.64225">
<time>2016-10-06T20:41:56Z</time></trkpt>
<trkpt lat="24.729608" lon="105.64221">
<time>2016-10-06T20:41:57Z</time></trkpt>
<trkpt lat="24.729628" lon="105.64217">
<time>2016-10-06T20:41:58Z</time></trkpt>
<trkpt lat="24.729658" lon="105.64213">
<time>2016-10-06T20:41:59Z</time></trkpt>
<trkpt lat="24.729678" lon="105.6421">
<time>2016-10-06T20:42:00Z</time></trkpt>
<trkpt lat="24.729708" lon="105.64207">
<time>2016-10-06T20:42:01Z</time></trkpt>
<trkpt lat="24.729738" lon="105.64206">
<time>2016-10-06T20:42:02Z</time></trkpt>
<trkpt lat="24.729768" lon="105.64204">
<time>2016-10-06T20:42:03Z</time></trkpt>
<trkpt lat="24.729798" lon="105.64203">
<time>2016-10-06T20:42:04Z</time></trkpt>
<trkpt lat="24.729828" lon="105.64202">
<time>2016-10-06T20:42:05Z</time></trkpt>
<trkpt lat="24.729858" lon="105.64202">
<time>2016-10-06T20:42:06Z</time></trkpt>
<trkpt lat="24.729888" lon="105.64201">
<time>2016-10-06T20:42:07Z</time></trkpt>
<trkpt lat="24.729958" lon="105.64201">
<time>2016-10-06T20:42:08Z</time></trkpt>
<trkpt lat="24.729988" lon="105.642">
<time>2016-10-06T20:42:09Z</time></trkpt>
<trkpt lat="24.730028" lon="105.642">
<time>2016-10-06T20:42:10Z</time></trkpt>
<trkpt lat="24.730158" lon="105.64197">
<time>2016-10-06T20:42:11Z</time></trkpt>
<trkpt lat="24.730188" lon="105.64197">
<time>2016-10-06T20:42:12Z</time></trkpt>
<trkpt lat="24.730218" lon="105.64196">
<time>2016-10-06T20:42:13Z</time></trkpt>
<trkpt lat="24.730268" lon="105.64196">
<time>2016-10-06T20:42:14Z</time></trkpt>
<trkpt lat="24.730298" lon="105.64195">
<time>2016-10-06T20:42:15Z</time></trkpt>
<trkpt lat="24.730318" lon="105.64195">
<time>2016-10-06T20:42:16Z</time></trkpt>
<trkpt lat="24.730349" lon="105.64194">
<time>2016-10-06T20:42:17Z</time></trkpt>
<trkpt lat="24.730369" lon="105.64194">
<time>2016-10-06T20:42:18Z</time></trkpt>
<trkpt lat="24.730389" lon="105.64193">
<time>2016-10-06T20:42:19Z</time></trkpt>
<trkpt lat="24.730409" lon="105.64192">
<time>2016-10-06T20:42:20Z</time></trkpt>
<trkpt lat="24.730439" lon="105.64189">
<time>2016-10-06T20:42:21Z</time></trkpt>
<trkpt lat="24.730469" lon="105.641861">
<time>2016-10-06T20:42:22Z</time></trkpt>
<trkpt lat="24.730499" lon="105.641831">
<time>2016-10-06T20:42:23Z</time></trkpt>
<trkpt lat="24.730519" lon="105.641791">
<time>2016-10-06T20:42:24Z</time></trkpt>
<trkpt lat="24.730569" lon="105.641711">
<time>2016-10-06T20:42:25Z</time></trkpt>
<trkpt lat="24.730599" lon="105.641671">
<time>2016-10-06T20:42:26Z</time></trkpt>
<trkpt lat="24.730619" lon="105.641641">
<time>2016-10-06T20:42:27Z</time></trkpt>
<trkpt lat="24.730669" lon="105.641591">
<time>2016-10-06T20:42:28Z</time></trkpt>
<trkpt lat="24.730729" lon="105.641551">
<time>2016-10-06T20:42:29Z</time></trkpt>
<trkpt lat="24.730799" lon="105.641521">
<time>2016-10-06T20:42:30Z</time></trkpt>
<trkpt lat="24.730869" lon="105.641501">
<time>2016-10-06T20:42:31Z</time></trkpt>
<trkpt lat="24.730939" lon="105.641481">
<time>2016-10-06T20:42:32Z</time></trkpt>
<trkpt lat="24.731019" lon="105.641471">
<time>2016-10-06T20:42:33Z</time></trkpt>
<trkpt lat="24.731099" lon="105.641471">
<time>2016-10-06T20:42:34Z</time></trkpt>
<trkpt lat="24.731179" lon="105.641471">
<time>2016-10-06T20:42:35Z</time></trkpt>
<trkpt lat="24.731229" lon="105.641471">
<time>2016-10-06T20:42:36Z</time></trkpt>
<trkpt lat="24.731269" lon="105.641481">
<time>2016-10-06T20:42:37Z</time></trkpt>
<trkpt lat="24.731319" lon="105.641481">
<time>2016-10-06T20:42:38Z</time></trkpt>
<trkpt lat="24.731369" lon="105.641481">
<time>2016-10-06T20:42:39Z</time></trkpt>
<trkpt lat="24.731419" lon="105.641481">
<time>2016-10-06T20:42:40Z</time></trkpt>
<trkpt lat="24.731459" lon="105.641481">
<time>2016-10-06T20:42:41Z</time></trkpt>
<trkpt lat="24.731509" lon="105.641471">
<time>2016-10-06T20:42:42Z</time></trkpt>
<trkpt lat="24.731549" lon="105.641461">
<time>2016-10-06T20:42:43Z</time></trkpt>
<trkpt lat="24.731609" lon="105.641431">
<time>2016-10-06T20:42:44Z</time></trkpt>
<trkpt lat="24.731659" lon="105.641402">
<time>2016-10-06T20:42:45Z</time></trkpt>
<trkpt lat="24.731719" lon="105.641362">
<time>2016-10-06T20:42:46Z</time></trkpt>
<trkpt lat="24.731769" lon="105.641312">
<time>2016-10-06T20:42:47Z</time></trkpt>
<trkpt lat="24.73182" lon="105.641272">
<time>2016-10-06T20:42:48Z</time></trkpt>
<trkpt lat="24.73187" lon="105.641222">
<time>2016-10-06T20:42:49Z</time></trkpt>
<trkpt lat="24.73192" lon="105.641172">
<time>2016-10-06T20:42:50Z</time></trkpt>
<trkpt lat="24.73198" lon="105.641132">
<time>2016-10-06T20:42:51Z</time></trkpt>
<trkpt lat="24.73203" lon="105.641092">
<time>2016-10-06T20:42:52Z</time></trkpt>
<trkpt lat="24.73208" lon="105.641062">
<time>2016-10-06T20:42:53Z</time></trkpt>
<trkpt lat="24.73213" lon="105.641022">
<time>2016-10-06T20:42:54Z</time></trkpt>
<trkpt lat="24.73218" lon="105.640992">
<time>2016-10-06T20:42:55Z</time></trkpt>
<trkpt lat="24.73223" lon="105.640962">
<time>2016-10-06T20:42:56Z</time></trkpt>
<trkpt lat="24.73234" lon="105.640913">
<time>2016-10-06T20:42:57Z</time></trkpt>
<trkpt lat="24.7324" lon="105.640883">
<time>2016-10-06T20:42:58Z</time></trkpt>
<trkpt lat="24.73247" lon="105.640843">
<time>2016-10-06T20:42:59Z</time></trkpt>
<trkpt lat="24.73254" lon="105.640803">
<time>2016-10-06T20:43:00Z</time></trkpt>
<trkpt lat="24.73261" lon="105.640753">
<time>2016-10-06T20:43:01Z</time></trkpt>
<trkpt lat="24.73268" lon="105.640703">
<time>2016-10-06T20:43:02Z</time></trkpt>
<trkpt lat="24.73274" lon="105.640653">
<time>2016-10-06T20:43:03Z</time></trkpt>
<trkpt lat="24.732801" lon="105.640603">
<time>2016-10-06T20:43:04Z</time></trkpt>
<trkpt lat="24.732861" lon="105.640543">
<time>2016-10-06T20:43:05Z</time></trkpt>
<trkpt lat="24.732921" lon="105.640484">
<time>2016-10-06T20:43:06Z</time></trkpt>
<trkpt lat="24.732991" lon="105.640404">
<time>2016-10-06T20:43:07Z</time></trkpt>
<trkpt lat="24.733061" lon="105.640304">
<time>2016-10-06T20:43:08Z</time></trkpt>
<trkpt lat="24.733121" lon="105.640204">
<time>2016-10-06T20:43:09Z</time></trkpt>
<trkpt lat="24.733181" lon="105.640104">
<time>2016-10-06T20:43:10Z</time></trkpt>
<trkpt lat="24.733231" lon="105.640005">
<time>2016-10-06T20:43:11Z</time></trkpt>
<trkpt lat="24.733282" lon="105.639895">
<time>2016-10-06T20:43:12Z</time></trkpt>
<trkpt lat="24.733332" lon="105.639775">
<time>2016-10-06T20:43:13Z</time></trkpt>
<trkpt lat="24.733382" lon="105.639665">
<time>2016-10-06T20:43:14Z</time></trkpt>
<trkpt lat="24.733412" lon="105.639595">
<time>2016-10-06T20:43:15Z</time></trkpt>
<trkpt lat="24.733442" lon="105.639526">
<time>2016-10-06T20:43:16Z</time></trkpt>
<trkpt lat="24.733472" lon="105.639456">
<time>2016-10-06T20:43:17Z</time></trkpt>
<trkpt lat="24.733492" lon="105.639376">
<time>2016-10-06T20:43:18Z</time></trkpt>
<trkpt lat="24.733513" lon="105.639306">
<time>2016-10-06T20:43:19Z</time></trkpt>
<trkpt lat="24.733523" lon="105.639236">
<time>2016-10-06T20:43:20Z</time></trkpt>
<trkpt lat="24.733533" lon="105.639166">
<time>2016-10-06T20:43:21Z</time></trkpt>
<trkpt lat="24.733543" lon="105.639087">
<time>2016-10-06T20:43:22Z</time></trkpt>
<trkpt lat="24.733533" lon="105.639017">
<time>2016-10-06T20:43:23Z</time></trkpt>
<trkpt lat="24.733523" lon="105.638947">
<time>2016-10-06T20:43:24Z</time></trkpt>
<trkpt lat="24.733503" lon="105.638867">
<time>2016-10-06T20:43:25Z</time></trkpt>
<trkpt lat="24.733503" lon="105.638847">
<time>2016-10-06T20:43:26Z</time></trkpt>
<trkpt lat="24.733483" lon="105.638797">
<time>2016-10-06T20:43:27Z</time></trkpt>
<trkpt lat="24.733463" lon="105.638727">
<time>2016-10-06T20:43:28Z</time></trkpt>
<trkpt lat="24.733434" lon="105.638658">
<time>2016-10-06T20:43:29Z</time></trkpt>
<trkpt lat="24.733404" lon="105.638578">
<time>2016-10-06T20:43:30Z</time></trkpt>
<trkpt lat="24.733364" lon="105.638518">
<time>2016-10-06T20:43:31Z</time></trkpt>
<trkpt lat="24.733324" lon="105.638428">
<time>2016-10-06T20:43:32Z</time></trkpt>
<trkpt lat="24.733314" lon="105.638388">
<time>2016-10-06T20:43:33Z</time></trkpt>
<trkpt lat="24.733294" lon="105.638348">
<time>2016-10-06T20:43:34Z</time></trkpt>
<trkpt lat="24.733274" lon="105.638308">
<time>2016-10-06T20:43:35Z</time></trkpt>
<trkpt lat="24.733264" lon="105.638278">
<time>2016-10-06T20:43:36Z</time></trkpt>
<trkpt lat="24.733264" lon="105.638258">
<time>2016-10-06T20:43:37Z</time></trkpt>
<trkpt lat="24.733244" lon="105.638219">
<time>2016-10-06T20:43:38Z</time></trkpt>
<trkpt lat="24.733234" lon="105.638179">
<time>2016-10-06T20:43:39Z</time></trkpt>
<trkpt lat="24.733224" lon="105.638139">
<time>2016-10-06T20:43:40Z</time></trkpt>
<trkpt lat="24.733224" lon="105.638099">
<time>2016-10-06T20:43:41Z</time></trkpt>
<trkpt lat="24.733215" lon="105.638049">
<time>2016-10-06T20:43:42Z</time></trkpt>
<trkpt lat="24.733215" lon="105.638009">
<time>2016-10-06T20:43:43Z</time></trkpt>
<trkpt lat="24.733215" lon="105.637969">
<time>2016-10-06T20:43:44Z</time></trkpt>
<trkpt lat="24.733215" lon="105.637929">
<time>2016-10-06T20:43:45Z</time></trkpt>
<trkpt lat="24.733215" lon="105.637889">
<time>2016-10-06T20:43:46Z</time></trkpt>
<trkpt lat="24.733215" lon="105.637849">
<time>2016-10-06T20:43:47Z</time></trkpt>
<trkpt lat="24.733225" lon="105.637799">
<time>2016-10-06T20:43:48Z</time></trkpt>
<trkpt lat="24.733225" lon="105.63776">
<time>2016-10-06T20:43:49Z</time></trkpt>
<trkpt lat="24.733235" lon="105.63771">
<time>2016-10-06T20:43:50Z</time></trkpt>
<trkpt lat="24.733245" lon="105.63766">
<time>2016-10-06T20:43:51Z</time></trkpt>
<trkpt lat="24.733255" lon="105.63762">
<time>2016-10-06T20:43:52Z</time></trkpt>
<trkpt lat="24.733265" lon="105.63757">
<time>2016-10-06T20:43:53Z</time></trkpt>
<trkpt lat="24.733285" lon="105.63753">
<time>2016-10-06T20:43:54Z</time></trkpt>
<trkpt lat="24.733295" lon="105.63749">
<time>2016-10-06T20:43:55Z</time></trkpt>
<trkpt lat="24.733315" lon="105.63745">
<time>2016-10-06T20:43:56Z</time></trkpt>
<trkpt lat="24.733346" lon="105.63738">
<time>2016-10-06T20:43:57Z</time></trkpt>
<trkpt lat="24.733356" lon="105.63735">
<time>2016-10-06T20:43:58Z</time></trkpt>
<trkpt lat="24.733366" lon="105.63731">
<time>2016-10-06T20:43:59Z</time></trkpt>
<trkpt lat="24.733376" lon="105.637281">
<time>2016-10-06T20:44:00Z</time></trkpt>
<trkpt lat="24.733386" lon="105.637241">
<time>2016-10-06T20:44:01Z</time></trkpt>
<trkpt lat="24.733396" lon="105.637211">
<time>2016-10-06T20:44:02Z</time></trkpt>
<trkpt lat="24.733396" lon="105.637161">
<time>2016-10-06T20:44:03Z</time></trkpt>
<trkpt lat="24.733396" lon="105.637101">
<time>2016-10-06T20:44:04Z</time></trkpt>
<trkpt lat="24.733386" lon="105.637051">
<time>2016-10-06T20:44:05Z</time></trkpt>
<trkpt lat="24.733386" lon="105.637001">
<time>2016-10-06T20:44:06Z</time></trkpt>
<trkpt lat="24.733366" lon="105.636891">
<time>2016-10-06T20:44:07Z</time></trkpt>
<trkpt lat="24.733356" lon="105.636842">
<time>2016-10-06T20:44:08Z</time></trkpt>
<trkpt lat="24.733346" lon="105.636782">
<time>2016-10-06T20:44:09Z</time></trkpt>
<trkpt lat="24.733347" lon="105.636742">
<time>2016-10-06T20:44:10Z</time></trkpt>
<trkpt lat="24.733347" lon="105.636702">
<time>2016-10-06T20:44:11Z</time></trkpt>
<trkpt lat="24.733347" lon="105.636652">
<time>2016-10-06T20:44:12Z</time></trkpt>
<trkpt lat="24.733347" lon="105.636612">
<time>2016-10-06T20:44:13Z</time></trkpt>
<trkpt lat="24.733357" lon="105.636572">
<time>2016-10-06T20:44:14Z</time></trkpt>
<trkpt lat="24.733367" lon="105.636532">
<time>2016-10-06T20:44:15Z</time></trkpt>
<trkpt lat="24.733377" lon="105.636492">
<time>2016-10-06T20:44:16Z</time></trkpt>
<trkpt lat="24.733387" lon="105.636442">
<time>2016-10-06T20:44:17Z</time></trkpt>
<trkpt lat="24.733397" lon="105.636392">
<time>2016-10-06T20:44:18Z</time></trkpt>
<trkpt lat="24.733417" lon="105.636353">
<time>2016-10-06T20:44:19Z</time></trkpt>
<trkpt lat="24.733437" lon="105.636303">
<time>2016-10-06T20:44:20Z</time></trkpt>
<trkpt lat="24.733457" lon="105.636253">
<time>2016-10-06T20:44:21Z</time></trkpt>
<trkpt lat="24.733467" lon="105.636203">
<time>2016-10-06T20:44:22Z</time></trkpt>
<trkpt lat="24.733477" lon="105.636153">
<time>2016-10-06T20:44:23Z</time></trkpt>
<trkpt lat="24.733488" lon="105.636103">
<time>2016-10-06T20:44:24Z</time></trkpt>
<trkpt lat="24.733498" lon="105.636053">
<time>2016-10-06T20:44:25Z</time></trkpt>
<trkpt lat="24.733498" lon="105.635993">
<time>2016-10-06T20:44:26Z</time></trkpt>
<trkpt lat="24.733498" lon="105.635933">
<time>2016-10-06T20:44:27Z</time></trkpt>
<trkpt lat="24.733478" lon="105.635874">
<time>2016-10-06T20:44:28Z</time></trkpt>
<trkpt lat="24.733468" lon="105.635824">
<time>2016-10-06T20:44:29Z</time></trkpt>
<trkpt lat="24.733438" lon="105.635764">
<time>2016-10-06T20:44:30Z</time></trkpt>
<trkpt lat="24.733418" lon="105.635704">
<time>2016-10-06T20:44:31Z</time></trkpt>
<trkpt lat="24.733378" lon="105.635654">
<time>2016-10-06T20:44:32Z</time></trkpt>
<trkpt lat="24.733348" lon="105.635604">
<time>2016-10-06T20:44:33Z</time></trkpt>
<trkpt lat="24.733318" lon="105.635574">
<time>2016-10-06T20:44:34Z</time></trkpt>
<trkpt lat="24.733288" lon="105.635544">
<time>2016-10-06T20:44:35Z</time></trkpt>
<trkpt lat="24.733258" lon="105.635524">
<time>2016-10-06T20:44:36Z</time></trkpt>
<trkpt lat="24.733238" lon="105.635494">
<time>2016-10-06T20:44:37Z</time></trkpt>
<trkpt lat="24.733208" lon="105.635464">
<time>2016-10-06T20:44:38Z</time></trkpt>
<trkpt lat="24.733189" lon="105.635435">
<time>2016-10-06T20:44:39Z</time></trkpt>
<trkpt lat="24.733169" lon="105.635405">
<time>2016-10-06T20:44:40Z</time></trkpt>
<trkpt lat="24.733149" lon="105.635375">
<time>2016-10-06T20:44:41Z</time></trkpt>
<trkpt lat="24.733129" lon="105.635335">
<time>2016-10-06T20:44:42Z</time></trkpt>
<trkpt lat="24.733119" lon="105.635295">
<time>2016-10-06T20:44:43Z</time></trkpt>
<trkpt lat="24.733119" lon="105.635255">
<time>2016-10-06T20:44:44Z</time></trkpt>
<trkpt lat="24.733119" lon="105.635205">
<time>2016-10-06T20:44:45Z</time></trkpt>
<trkpt lat="24.733119" lon="105.635165">
<time>2016-10-06T20:44:46Z</time></trkpt>
<trkpt lat="24.733119" lon="105.635125">
<time>2016-10-06T20:44:47Z</time></trkpt>
<trkpt lat="24.733119" lon="105.635075">
<time>2016-10-06T20:44:48Z</time></trkpt>
<trkpt lat="24.733129" lon="105.635035">
<time>2016-10-06T20:44:49Z</time></trkpt>
<trkpt lat="24.733139" lon="105.634985">
<time>2016-10-06T20:44:50Z</time></trkpt>
<trkpt lat="24.733139" lon="105.634936">
<time>2016-10-06T20:44:51Z</time></trkpt>
<trkpt lat="24.733149" lon="105.634886">
<time>2016-10-06T20:44:52Z</time></trkpt>
<trkpt lat="24.733169" lon="105.634836">
<time>2016-10-06T20:44:53Z</time></trkpt>
<trkpt lat="24.733179" lon="105.634786">
<time>2016-10-06T20:44:54Z</time></trkpt>
<trkpt lat="24.73319" lon="105.634746">
<time>2016-10-06T20:44:55Z</time></trkpt>
<trkpt lat="24.73321" lon="105.634696">
<time>2016-10-06T20:44:56Z</time></trkpt>
<trkpt lat="24.73322" lon="105.634656">
<time>2016-10-06T20:44:57Z</time></trkpt>
<trkpt lat="24.73324" lon="105.634616">
<time>2016-10-06T20:44:58Z</time></trkpt>
<trkpt lat="24.73325" lon="105.634576">
<time>2016-10-06T20:44:59Z</time></trkpt>
<trkpt lat="24.73327" lon="105.634536">
<time>2016-10-06T20:45:00Z</time></trkpt>
<trkpt lat="24.73329" lon="105.634497">
<time>2016-10-06T20:45:01Z</time></trkpt>
<trkpt lat="24.7333" lon="105.634457">
<time>2016-10-06T20:45:02Z</time></trkpt>
<trkpt lat="24.73332" lon="105.634417">
<time>2016-10-06T20:45:03Z</time></trkpt>
<trkpt lat="24.73333" lon="105.634377">
<time>2016-10-06T20:45:04Z</time></trkpt>
<trkpt lat="24.73334" lon="105.634337">
<time>2016-10-06T20:45:05Z</time></trkpt>
<trkpt lat="24.73335" lon="105.634297">
<time>2016-10-06T20:45:06Z</time></trkpt>
<trkpt lat="24.73335" lon="105.634257">
<time>2016-10-06T20:45:07Z</time></trkpt>
<trkpt lat="24.73335" lon="105.634217">
<time>2016-10-06T20:45:08Z</time></trkpt>
<trkpt lat="24.73335" lon="105.634177">
<time>2016-10-06T20:45:09Z</time></trkpt>
<trkpt lat="24.73335" lon="105.634137">
<time>2016-10-06T20:45:10Z</time></trkpt>
<trkpt lat="24.73335" lon="105.634097">
<time>2016-10-06T20:45:11Z</time></trkpt>
<trkpt lat="24.733351" lon="105.634047">
<time>2016-10-06T20:45:12Z</time></trkpt>
<trkpt lat="24.733341" lon="105.634008">
<time>2016-10-06T20:45:13Z</time></trkpt>
<trkpt lat="24.733341" lon="105.633978">
<time>2016-10-06T20:45:14Z</time></trkpt>
<trkpt lat="24.733331" lon="105.633938">
<time>2016-10-06T20:45:15Z</time></trkpt>
<trkpt lat="24.733331" lon="105.633908">
<time>2016-10-06T20:45:16Z</time></trkpt>
<trkpt lat="24.733321" lon="105.633878">
<time>2016-10-06T20:45:17Z</time></trkpt>
<trkpt lat="24.733311" lon="105.633848">
<time>2016-10-06T20:45:18Z</time></trkpt>
<trkpt lat="24.733301" lon="105.633818">
<time>2016-10-06T20:45:19Z</time></trkpt>
<trkpt lat="24.733291" lon="105.633798">
<time>2016-10-06T20:45:20Z</time></trkpt>
<trkpt lat="24.733271" lon="105.633768">
<time>2016-10-06T20:45:21Z</time></trkpt>
<trkpt lat="24.733251" lon="105.633748">
<time>2016-10-06T20:45:22Z</time></trkpt>
<trkpt lat="24.733241" lon="105.633738">
<time>2016-10-06T20:45:23Z</time></trkpt>
<trkpt lat="24.733221" lon="105.633718">
<time>2016-10-06T20:45:24Z</time></trkpt>
<trkpt lat="24.733191" lon="105.633708">
<time>2016-10-06T20:45:25Z</time></trkpt>
<trkpt lat="24.733171" lon="105.633698">
<time>2016-10-06T20:45:26Z</time></trkpt>
<trkpt lat="24.733151" lon="105.633688">
<time>2016-10-06T20:45:27Z</time></trkpt>
<trkpt lat="24.733121" lon="105.633688">
<time>2016-10-06T20:45:28Z</time></trkpt>
<trkpt lat="24.733101" lon="105.633678">
<time>2016-10-06T20:45:29Z</time></trkpt>
<trkpt lat="24.733071" lon="105.633678">
<time>2016-10-06T20:45:30Z</time></trkpt>
<trkpt lat="24.733031" lon="105.633668">
<time>2016-10-06T20:45:31Z</time></trkpt>
<trkpt lat="24.733001" lon="105.633668">
<time>2016-10-06T20:45:32Z</time></trkpt>
<trkpt lat="24.732971" lon="105.633678">
<time>2016-10-06T20:45:33Z</time></trkpt>
<trkpt lat="24.732941" lon="105.633678">
<time>2016-10-06T20:45:34Z</time></trkpt>
<trkpt lat="24.732911" lon="105.633688">
<time>2016-10-06T20:45:35Z</time></trkpt>
<trkpt lat="24.732881" lon="105.633708">
<time>2016-10-06T20:45:36Z</time></trkpt>
<trkpt lat="24.732851" lon="105.633718">
<time>2016-10-06T20:45:37Z</time></trkpt>
<trkpt lat="24.732821" lon="105.633748">
<time>2016-10-06T20:45:38Z</time></trkpt>
<trkpt lat="24.732791" lon="105.633778">
<time>2016-10-06T20:45:39Z</time></trkpt>
<trkpt lat="24.732761" lon="105.633808">
<time>2016-10-06T20:45:40Z</time></trkpt>
<trkpt lat="24.732731" lon="105.633848">
<time>2016-10-06T20:45:41Z</time></trkpt>
<trkpt lat="24.732711" lon="105.633878">
<time>2016-10-06T20:45:42Z</time></trkpt>
<trkpt lat="24.732681" lon="105.633918">
<time>2016-10-06T20:45:43Z</time></trkpt>
<trkpt lat="24.732661" lon="105.633968">
<time>2016-10-06T20:45:44Z</time></trkpt>
<trkpt lat="24.732631" lon="105.634008">
<time>2016-10-06T20:45:45Z</time></trkpt>
<trkpt lat="24.732611" lon="105.634047">
<time>2016-10-06T20:45:46Z</time></trkpt>
<trkpt lat="24.732581" lon="105.634087">
<time>2016-10-06T20:45:47Z</time></trkpt>
<trkpt lat="24.73255" lon="105.634117">
<time>2016-10-06T20:45:48Z</time></trkpt>
<trkpt lat="24.73253" lon="105.634157">
<time>2016-10-06T20:45:49Z</time></trkpt>
<trkpt lat="24.73249" lon="105.634187">
<time>2016-10-06T20:45:50Z</time></trkpt>
<trkpt lat="24.73246" lon="105.634217">
<time>2016-10-06T20:45:51Z</time></trkpt>
<trkpt lat="24.73242" lon="105.634237">
<time>2016-10-06T20:45:52Z</time></trkpt>
<trkpt lat="24.73239" lon="105.634257">
<time>2016-10-06T20:45:53Z</time></trkpt>
<trkpt lat="24.73236" lon="105.634277">
<time>2016-10-06T20:45:54Z</time></trkpt>
<trkpt lat="24.73232" lon="105.634287">
<time>2016-10-06T20:45:55Z</time></trkpt>
<trkpt lat="24.73229" lon="105.634287">
<time>2016-10-06T20:45:56Z</time></trkpt>
<trkpt lat="24.73226" lon="105.634287">
<time>2016-10-06T20:45:57Z</time></trkpt>
<trkpt lat="24.73222" lon="105.634287">
<time>2016-10-06T20:45:58Z</time></trkpt>
<trkpt lat="24.73219" lon="105.634287">
<time>2016-10-06T20:45:59Z</time></trkpt>
<trkpt lat="24.73216" lon="105.634277">
<time>2016-10-06T20:46:00Z</time></trkpt>
<trkpt lat="24.73213" lon="105.634257">
<time>2016-10-06T20:46:01Z</time></trkpt>
<trkpt lat="24.73211" lon="105.634247">
<time>2016-10-06T20:46:02Z</time></trkpt>
<trkpt lat="24.73209" lon="105.634237">
<time>2016-10-06T20:46:03Z</time></trkpt>
<trkpt lat="24.73207" lon="105.634227">
<time>2016-10-06T20:46:04Z</time></trkpt>
<trkpt lat="24.73205" lon="105.634207">
<time>2016-10-06T20:46:05Z</time></trkpt>
<trkpt lat="24.73204" lon="105.634187">
<time>2016-10-06T20:46:06Z</time></trkpt>
<trkpt lat="24.73202" lon="105.634167">
<time>2016-10-06T20:46:07Z</time></trkpt>
<trkpt lat="24.73201" lon="105.634147">
<time>2016-10-06T20:46:08Z</time></trkpt>
<trkpt lat="24.732001" lon="105.634127">
<time>2016-10-06T20:46:09Z</time></trkpt>
<trkpt lat="24.731981" lon="105.634097">
<time>2016-10-06T20:46:10Z</time></trkpt>
<trkpt lat="24.731971" lon="105.634048">
<time>2016-10-06T20:46:11Z</time></trkpt>
<trkpt lat="24.731971" lon="105.634008">
<time>2016-10-06T20:46:12Z</time></trkpt>
<trkpt lat="24.731971" lon="105.633968">
<time>2016-10-06T20:46:13Z</time></trkpt>
<trkpt lat="24.731971" lon="105.633918">
<time>2016-10-06T20:46:14Z</time></trkpt>
<trkpt lat="24.731981" lon="105.633878">
<time>2016-10-06T20:46:15Z</time></trkpt>
<trkpt lat="24.731991" lon="105.633828">
<time>2016-10-06T20:46:16Z</time></trkpt>
<trkpt lat="24.732001" lon="105.633778">
<time>2016-10-06T20:46:17Z</time></trkpt>
<trkpt lat="24.732021" lon="105.633718">
<time>2016-10-06T20:46:18Z</time></trkpt>
<trkpt lat="24.732031" lon="105.633658">
<time>2016-10-06T20:46:19Z</time></trkpt>
<trkpt lat="24.732051" lon="105.633608">
<time>2016-10-06T20:46:20Z</time></trkpt>
<trkpt lat="24.732071" lon="105.633549">
<time>2016-10-06T20:46:21Z</time></trkpt>
<trkpt lat="24.732101" lon="105.633499">
<time>2016-10-06T20:46:22Z</time></trkpt>
<trkpt lat="24.732121" lon="105.633449">
<time>2016-10-06T20:46:23Z</time></trkpt>
<trkpt lat="24.732152" lon="105.633399">
<time>2016-10-06T20:46:24Z</time></trkpt>
<trkpt lat="24.732182" lon="105.633349">
<time>2016-10-06T20:46:25Z</time></trkpt>
<trkpt lat="24.732232" lon="105.633289">
<time>2016-10-06T20:46:26Z</time></trkpt>
<trkpt lat="24.732282" lon="105.633229">
<time>2016-10-06T20:46:27Z</time></trkpt>
<trkpt lat="24.732332" lon="105.633179">
<time>2016-10-06T20:46:28Z</time></trkpt>
<trkpt lat="24.732392" lon="105.633129">
<time>2016-10-06T20:46:29Z</time></trkpt>
<trkpt lat="24.732452" lon="105.633079">
<time>2016-10-06T20:46:30Z</time></trkpt>
<trkpt lat="24.732512" lon="105.63303">
<time>2016-10-06T20:46:31Z</time></trkpt>
<trkpt lat="24.732582" lon="105.63299">
<time>2016-10-06T20:46:32Z</time></trkpt>
<trkpt lat="24.732642" lon="105.63294">
<time>2016-10-06T20:46:33Z</time></trkpt>
<trkpt lat="24.732692" lon="105.63291">
<time>2016-10-06T20:46:34Z</time></trkpt>
<trkpt lat="24.732742" lon="105.63287">
<time>2016-10-06T20:46:35Z</time></trkpt>
<trkpt lat="24.732792" lon="105.63283">
<time>2016-10-06T20:46:36Z</time></trkpt>
<trkpt lat="24.732832" lon="105.63279">
<time>2016-10-06T20:46:37Z</time></trkpt>
<trkpt lat="24.732872" lon="105.63275">
<time>2016-10-06T20:46:38Z</time></trkpt>
<trkpt lat="24.732912" lon="105.63271">
<time>2016-10-06T20:46:39Z</time></trkpt>
<trkpt lat="24.732943" lon="105.63266">
<time>2016-10-06T20:46:40Z</time></trkpt>
<trkpt lat="24.732963" lon="105.63261">
<time>2016-10-06T20:46:41Z</time></trkpt>
<trkpt lat="24.732983" lon="105.632561">
<time>2016-10-06T20:46:42Z</time></trkpt>
<trkpt lat="24.732993" lon="105.632511">
<time>2016-10-06T20:46:43Z</time></trkpt>
<trkpt lat="24.733003" lon="105.632451">
<time>2016-10-06T20:46:44Z</time></trkpt>
<trkpt lat="24.733003" lon="105.632401">
<time>2016-10-06T20:46:45Z</time></trkpt>
<trkpt lat="24.733003" lon="105.632341">
<time>2016-10-06T20:46:46Z</time></trkpt>
<trkpt lat="24.733003" lon="105.632281">
<time>2016-10-06T20:46:47Z</time></trkpt>
<trkpt lat="24.732993" lon="105.632161">
<time>2016-10-06T20:46:48Z</time></trkpt>
<trkpt lat="24.732993" lon="105.632091">
<time>2016-10-06T20:46:49Z</time></trkpt>
<trkpt lat="24.732993" lon="105.632022">
<time>2016-10-06T20:46:50Z</time></trkpt>
<trkpt lat="24.732994" lon="105.631962">
<time>2016-10-06T20:46:51Z</time></trkpt>
<trkpt lat="24.732994" lon="105.631892">
<time>2016-10-06T20:46:52Z</time></trkpt>
<trkpt lat="24.732994" lon="105.631832">
<time>2016-10-06T20:46:53Z</time></trkpt>
<trkpt lat="24.732994" lon="105.631772">
<time>2016-10-06T20:46:54Z</time></trkpt>
<trkpt lat="24.733004" lon="105.631702">
<time>2016-10-06T20:46:55Z</time></trkpt>
<trkpt lat="24.733004" lon="105.631642">
<time>2016-10-06T20:46:56Z</time></trkpt>
<trkpt lat="24.733024" lon="105.631563">
<time>2016-10-06T20:46:57Z</time></trkpt>
<trkpt lat="24.733034" lon="105.631483">
<time>2016-10-06T20:46:58Z</time></trkpt>
<trkpt lat="24.733054" lon="105.631393">
<time>2016-10-06T20:46:59Z</time></trkpt>
<trkpt lat="24.733074" lon="105.631313">
<time>2016-10-06T20:47:00Z</time></trkpt>
<trkpt lat="24.733095" lon="105.631233">
<time>2016-10-06T20:47:01Z</time></trkpt>
<trkpt lat="24.733125" lon="105.631153">
<time>2016-10-06T20:47:02Z</time></trkpt>
<trkpt lat="24.733155" lon="105.631084">
<time>2016-10-06T20:47:03Z</time></trkpt>
<trkpt lat="24.733185" lon="105.631004">
<time>2016-10-06T20:47:04Z</time></trkpt>
<trkpt lat="24.733225" lon="105.630914">
<time>2016-10-06T20:47:05Z</time></trkpt>
<trkpt lat="24.733275" lon="105.630824">
<time>2016-10-06T20:47:06Z</time></trkpt>
<trkpt lat="24.733325" lon="105.630734">
<time>2016-10-06T20:47:07Z</time></trkpt>
<trkpt lat="24.733375" lon="105.630654">
<time>2016-10-06T20:47:08Z</time></trkpt>
<trkpt lat="24.733435" lon="105.630575">
<time>2016-10-06T20:47:09Z</time></trkpt>
<trkpt lat="24.733496" lon="105.630485">
<time>2016-10-06T20:47:10Z</time></trkpt>
<trkpt lat="24.733546" lon="105.630405">
<time>2016-10-06T20:47:11Z</time></trkpt>
<trkpt lat="24.733606" lon="105.630325">
<time>2016-10-06T20:47:12Z</time></trkpt>
<trkpt lat="24.733666" lon="105.630235">
<time>2016-10-06T20:47:13Z</time></trkpt>
<trkpt lat="24.733726" lon="105.630145">
<time>2016-10-06T20:47:14Z</time></trkpt>
<trkpt lat="24.733786" lon="105.630056">
<time>2016-10-06T20:47:15Z</time></trkpt>
<trkpt lat="24.733836" lon="105.629966">
<time>2016-10-06T20:47:16Z</time></trkpt>
<trkpt lat="24.733896" lon="105.629876">
<time>2016-10-06T20:47:17Z</time></trkpt>
<trkpt lat="24.734007" lon="105.629696">
<time>2016-10-06T20:47:18Z</time></trkpt>
<trkpt lat="24.734067" lon="105.629606">
<time>2016-10-06T20:47:19Z</time></trkpt>
<trkpt lat="24.734127" lon="105.629507">
<time>2016-10-06T20:47:20Z</time></trkpt>
<trkpt lat="24.734197" lon="105.629417">
<time>2016-10-06T20:47:21Z</time></trkpt>
<trkpt lat="24.734257" lon="105.629317">
<time>2016-10-06T20:47:22Z</time></trkpt>
<trkpt lat="24.734317" lon="105.629217">
<time>2016-10-06T20:47:23Z</time></trkpt>
<trkpt lat="24.734387" lon="105.629127">
<time>2016-10-06T20:47:24Z</time></trkpt>
<trkpt lat="24.734447" lon="105.629037">
<time>2016-10-06T20:47:25Z</time></trkpt>
<trkpt lat="24.734518" lon="105.628938">
<time>2016-10-06T20:47:26Z</time></trkpt>
<trkpt lat="24.734578" lon="105.628848">
<time>2016-10-06T20:47:27Z</time></trkpt>
<trkpt lat="24.734638" lon="105.628768">
<time>2016-10-06T20:47:28Z</time></trkpt>
<trkpt lat="24.734698" lon="105.628688">
<time>2016-10-06T20:47:29Z</time></trkpt>
<trkpt lat="24.734758" lon="105.628608">
<time>2016-10-06T20:47:30Z</time></trkpt>
<trkpt lat="24.734818" lon="105.628538">
<time>2016-10-06T20:47:31Z</time></trkpt>
<trkpt lat="24.734878" lon="105.628459">
<time>2016-10-06T20:47:32Z</time></trkpt>
<trkpt lat="24.734938" lon="105.628389">
<time>2016-10-06T20:47:33Z</time></trkpt>
<trkpt lat="24.735008" lon="105.628309">
<time>2016-10-06T20:47:34Z</time></trkpt>
<trkpt lat="24.735068" lon="105.628229">
<time>2016-10-06T20:47:35Z</time></trkpt>
<trkpt lat="24.735129" lon="105.628149">
<time>2016-10-06T20:47:36Z</time></trkpt>
<trkpt lat="24.735199" lon="105.628069">
<time>2016-10-06T20:47:37Z</time></trkpt>
<trkpt lat="24.735269" lon="105.627989">
<time>2016-10-06T20:47:38Z</time></trkpt>
<trkpt lat="24.735339" lon="105.62791">
<time>2016-10-06T20:47:39Z</time></trkpt>
<trkpt lat="24.735409" lon="105.62783">
<time>2016-10-06T20:47:40Z</time></trkpt>
<trkpt lat="24.735479" lon="105.62775">
<time>2016-10-06T20:47:41Z</time></trkpt>
<trkpt lat="24.735559" lon="105.62768">
<time>2016-10-06T20:47:42Z</time></trkpt>
<trkpt lat="24.735629" lon="105.62761">
<time>2016-10-06T20:47:43Z</time></trkpt>
<trkpt lat="24.735699" lon="105.62755">
<time>2016-10-06T20:47:44Z</time></trkpt>
<trkpt lat="24.735769" lon="105.62749">
<time>2016-10-06T20:47:45Z</time></trkpt>
<trkpt lat="24.735839" lon="105.62743">
<time>2016-10-06T20:47:46Z</time></trkpt>
<trkpt lat="24.73598" lon="105.627311">
<time>2016-10-06T20:47:47Z</time></trkpt>
<trkpt lat="24.73605" lon="105.627251">
<time>2016-10-06T20:47:48Z</time></trkpt>
<trkpt lat="24.73612" lon="105.627191">
<time>2016-10-06T20:47:49Z</time></trkpt>
<trkpt lat="24.73619" lon="105.627131">
<time>2016-10-06T20:47:50Z</time></trkpt>
<trkpt lat="24.73627" lon="105.627051">
<time>2016-10-06T20:47:51Z</time></trkpt>
<trkpt lat="24.73635" lon="105.626971">
<time>2016-10-06T20:47:52Z</time></trkpt>
<trkpt lat="24.73644" lon="105.626881">
<time>2016-10-06T20:47:53Z</time></trkpt>
<trkpt lat="24.73652" lon="105.626792">
<time>2016-10-06T20:47:54Z</time></trkpt>
<trkpt lat="24.73659" lon="105.626702">
<time>2016-10-06T20:47:55Z</time></trkpt>
<trkpt lat="24.73667" lon="105.626612">
<time>2016-10-06T20:47:56Z</time></trkpt>
<trkpt lat="24.73675" lon="105.626522">
<time>2016-10-06T20:47:57Z</time></trkpt>
<trkpt lat="24.736911" lon="105.626332">
<time>2016-10-06T20:47:58Z</time></trkpt>
<trkpt lat="24.736991" lon="105.626233">
<time>2016-10-06T20:47:59Z</time></trkpt>
<trkpt lat="24.737071" lon="105.626133">
<time>2016-10-06T20:48:00Z</time></trkpt>
<trkpt lat="24.737161" lon="105.626033">
<time>2016-10-06T20:48:01Z</time></trkpt>
<trkpt lat="24.737241" lon="105.625933">
<time>2016-10-06T20:48:02Z</time></trkpt>
<trkpt lat="24.737311" lon="105.625833">
<time>2016-10-06T20:48:03Z</time></trkpt>
<trkpt lat="24.737391" lon="105.625724">
<time>2016-10-06T20:48:04Z</time></trkpt>
<trkpt lat="24.737462" lon="105.625614">
<time>2016-10-06T20:48:05Z</time></trkpt>
<trkpt lat="24.737542" lon="105.625494">
<time>2016-10-06T20:48:06Z</time></trkpt>
<trkpt lat="24.737622" lon="105.625374">
<time>2016-10-06T20:48:07Z</time></trkpt>
<trkpt lat="24.737702" lon="105.625244">
<time>2016-10-06T20:48:08Z</time></trkpt>
<trkpt lat="24.737772" lon="105.625115">
<time>2016-10-06T20:48:09Z</time></trkpt>
<trkpt lat="24.737822" lon="105.625005">
<time>2016-10-06T20:48:10Z</time></trkpt>
<trkpt lat="24.737842" lon="105.624985">
<time>2016-10-06T20:48:11Z</time></trkpt>
<trkpt lat="24.737912" lon="105.624855">
<time>2016-10-06T20:48:12Z</time></trkpt>
<trkpt lat="24.737983" lon="105.624715">
<time>2016-10-06T20:48:13Z</time></trkpt>
<trkpt lat="24.738053" lon="105.624586">
<time>2016-10-06T20:48:14Z</time></trkpt>
<trkpt lat="24.738103" lon="105.624496">
<time>2016-10-06T20:48:15Z</time></trkpt>
<trkpt lat="24.738153" lon="105.624396">
<time>2016-10-06T20:48:16Z</time></trkpt>
<trkpt lat="24.738203" lon="105.624306">
<time>2016-10-06T20:48:17Z</time></trkpt>
<trkpt lat="24.738253" lon="105.624216">
<time>2016-10-06T20:48:18Z</time></trkpt>
<trkpt lat="24.738313" lon="105.624126">
<time>2016-10-06T20:48:19Z</time></trkpt>
<trkpt lat="24.738373" lon="105.624037">
<time>2016-10-06T20:48:20Z</time></trkpt>
<trkpt lat="24.738423" lon="105.623947">
<time>2016-10-06T20:48:21Z</time></trkpt>
<trkpt lat="24.738494" lon="105.623867">
<time>2016-10-06T20:48:22Z</time></trkpt>
<trkpt lat="24.738534" lon="105.623807">
<time>2016-10-06T20:48:23Z</time></trkpt>
<trkpt lat="24.738574" lon="105.623757">
<time>2016-10-06T20:48:24Z</time></trkpt>
<trkpt lat="24.738654" lon="105.623657">
<time>2016-10-06T20:48:25Z</time></trkpt>
<trkpt lat="24.738694" lon="105.623597">
<time>2016-10-06T20:48:26Z</time></trkpt>
<trkpt lat="24.738734" lon="105.623547">
<time>2016-10-06T20:48:27Z</time></trkpt>
<trkpt lat="24.738774" lon="105.623498">
<time>2016-10-06T20:48:28Z</time></trkpt>
<trkpt lat="24.738814" lon="105.623438">
<time>2016-10-06T20:48:29Z</time></trkpt>
<trkpt lat="24.738864" lon="105.623358">
<time>2016-10-06T20:48:30Z</time></trkpt>
<trkpt lat="24.738904" lon="105.623268">
<time>2016-10-06T20:48:31Z</time></trkpt>
<trkpt lat="24.738954" lon="105.623178">
<time>2016-10-06T20:48:32Z</time></trkpt>
<trkpt lat="24.738994" lon="105.623088">
<time>2016-10-06T20:48:33Z</time></trkpt>
<trkpt lat="24.739025" lon="105.622988">
<time>2016-10-06T20:48:34Z</time></trkpt>
<trkpt lat="24.739065" lon="105.622899">
<time>2016-10-06T20:48:35Z</time></trkpt>
<trkpt lat="24.739095" lon="105.622799">
<time>2016-10-06T20:48:36Z</time></trkpt>
<trkpt lat="24.739125" lon="105.622699">
<time>2016-10-06T20:48:37Z</time></trkpt>
<trkpt lat="24.739145" lon="105.622609">
<time>2016-10-06T20:48:38Z</time></trkpt>
<trkpt lat="24.739195" lon="105.622429">
<time>2016-10-06T20:48:39Z</time></trkpt>
<trkpt lat="24.739225" lon="105.62234">
<time>2016-10-06T20:48:40Z</time></trkpt>
<trkpt lat="24.739255" lon="105.62225">
<time>2016-10-06T20:48:41Z</time></trkpt>
<trkpt lat="24.739285" lon="105.62216">
<time>2016-10-06T20:48:42Z</time></trkpt>
<trkpt lat="24.739316" lon="105.62207">
<time>2016-10-06T20:48:43Z</time></trkpt>
<trkpt lat="24.739356" lon="105.62199">
<time>2016-10-06T20:48:44Z</time></trkpt>
<trkpt lat="24.739396" lon="105.6219">
<time>2016-10-06T20:48:45Z</time></trkpt>
<trkpt lat="24.739446" lon="105.62181">
<time>2016-10-06T20:48:46Z</time></trkpt>
<trkpt lat="24.739506" lon="105.621721">
<time>2016-10-06T20:48:47Z</time></trkpt>
<trkpt lat="24.739566" lon="105.621641">
<time>2016-10-06T20:48:48Z</time></trkpt>
<trkpt lat="24.739626" lon="105.621551">
<time>2016-10-06T20:48:49Z</time></trkpt>
<trkpt lat="24.739686" lon="105.621471">
<time>2016-10-06T20:48:50Z</time></trkpt>
<trkpt lat="24.739756" lon="105.621391">
<time>2016-10-06T20:48:51Z</time></trkpt>
<trkpt lat="24.739786" lon="105.621361">
<time>2016-10-06T20:48:52Z</time></trkpt>
<trkpt lat="24.739826" lon="105.621311">
<time>2016-10-06T20:48:53Z</time></trkpt>
<trkpt lat="24.739936" lon="105.621191">
<time>2016-10-06T20:48:54Z</time></trkpt>
<trkpt lat="24.739997" lon="105.621122">
<time>2016-10-06T20:48:55Z</time></trkpt>
<trkpt lat="24.740047" lon="105.621062">
<time>2016-10-06T20:48:56Z</time></trkpt>
<trkpt lat="24.740107" lon="105.620992">
<time>2016-10-06T20:48:57Z</time></trkpt>
<trkpt lat="24.740157" lon="105.620922">
<time>2016-10-06T20:48:58Z</time></trkpt>
<trkpt lat="24.740207" lon="105.620862">
<time>2016-10-06T20:48:59Z</time></trkpt>
<trkpt lat="24.740257" lon="105.620792">
<time>2016-10-06T20:49:00Z</time></trkpt>
<trkpt lat="24.740297" lon="105.620722">
<time>2016-10-06T20:49:01Z</time></trkpt>
<trkpt lat="24.740347" lon="105.620642">
<time>2016-10-06T20:49:02Z</time></trkpt>
<trkpt lat="24.740387" lon="105.620572">
<time>2016-10-06T20:49:03Z</time></trkpt>
<trkpt lat="24.740427" lon="105.620493">
<time>2016-10-06T20:49:04Z</time></trkpt>
<trkpt lat="24.740457" lon="105.620413">
<time>2016-10-06T20:49:05Z</time></trkpt>
<trkpt lat="24.740487" lon="105.620333">
<time>2016-10-06T20:49:06Z</time></trkpt>
<trkpt lat="24.740517" lon="105.620253">
<time>2016-10-06T20:49:07Z</time></trkpt>
<trkpt lat="24.740547" lon="105.620173">
<time>2016-10-06T20:49:08Z</time></trkpt>
<trkpt lat="24.740568" lon="105.620103">
<time>2016-10-06T20:49:09Z</time></trkpt>
<trkpt lat="24.740588" lon="105.620033">
<time>2016-10-06T20:49:10Z</time></trkpt>
<trkpt lat="24.740618" lon="105.619894">
<time>2016-10-06T20:49:11Z</time></trkpt>
<trkpt lat="24.740638" lon="105.619834">
<time>2016-10-06T20:49:12Z</time></trkpt>
<trkpt lat="24.740658" lon="105.619764">
<time>2016-10-06T20:49:13Z</time></trkpt>
<trkpt lat="24.740678" lon="105.619694">
<time>2016-10-06T20:49:14Z</time></trkpt>
<trkpt lat="24.740708" lon="105.619634">
<time>2016-10-06T20:49:15Z</time></trkpt>
<trkpt lat="24.740738" lon="105.619554">
<time>2016-10-06T20:49:16Z</time></trkpt>
<trkpt lat="24.740768" lon="105.619474">
<time>2016-10-06T20:49:17Z</time></trkpt>
<trkpt lat="24.740858" lon="105.619354">
<time>2016-10-06T20:49:18Z</time></trkpt>
<trkpt lat="24.740948" lon="105.619275">
<time>2016-10-06T20:49:19Z</time></trkpt>
<trkpt lat="24.741108" lon="105.619125">
<time>2016-10-06T20:49:20Z</time></trkpt>
<trkpt lat="24.741108" lon="105.619125">
<time>2016-10-06T20:49:21Z</time></trkpt>
<trkpt lat="24.741059" lon="105.619015">
<time>2016-10-06T20:49:22Z</time></trkpt>
<trkpt lat="24.741039" lon="105.618925">
<time>2016-10-06T20:49:23Z</time></trkpt>
<trkpt lat="24.741019" lon="105.618795">
<time>2016-10-06T20:49:24Z</time></trkpt>
<trkpt lat="24.741009" lon="105.618705">
<time>2016-10-06T20:49:25Z</time></trkpt>
<trkpt lat="24.741009" lon="105.618655">
<time>2016-10-06T20:49:26Z</time></trkpt>
<trkpt lat="24.741019" lon="105.618596">
<time>2016-10-06T20:49:27Z</time></trkpt>
<trkpt lat="24.741029" lon="105.618546">
<time>2016-10-06T20:49:28Z</time></trkpt>
<trkpt lat="24.741049" lon="105.618486">
<time>2016-10-06T20:49:29Z</time></trkpt>
<trkpt lat="24.741099" lon="105.618366">
<time>2016-10-06T20:49:30Z</time></trkpt>
<trkpt lat="24.741209" lon="105.618166">
<time>2016-10-06T20:49:31Z</time></trkpt>
<trkpt lat="24.74164" lon="105.617397">
<time>2016-10-06T20:49:32Z</time></trkpt>
<trkpt lat="24.74183" lon="105.617018">
<time>2016-10-06T20:49:33Z</time></trkpt>
<trkpt lat="24.741911" lon="105.616798">
<time>2016-10-06T20:49:34Z</time></trkpt>
<trkpt lat="24.741941" lon="105.616639">
<time>2016-10-06T20:49:35Z</time></trkpt>
<trkpt lat="24.741961" lon="105.616499">
<time>2016-10-06T20:49:36Z</time></trkpt>
<trkpt lat="24.741961" lon="105.616369">
<time>2016-10-06T20:49:37Z</time></trkpt>
<trkpt lat="24.741941" lon="105.616249">
<time>2016-10-06T20:49:38Z</time></trkpt>
<trkpt lat="24.741921" lon="105.616159">
<time>2016-10-06T20:49:39Z</time></trkpt>
<trkpt lat="24.741881" lon="105.616059">
<time>2016-10-06T20:49:40Z</time></trkpt>
<trkpt lat="24.741831" lon="105.61596">
<time>2016-10-06T20:49:41Z</time></trkpt>
<trkpt lat="24.741762" lon="105.61584">
<time>2016-10-06T20:49:42Z</time></trkpt>
<trkpt lat="24.741692" lon="105.61576">
<time>2016-10-06T20:49:43Z</time></trkpt>
<trkpt lat="24.741612" lon="105.61569">
<time>2016-10-06T20:49:44Z</time></trkpt>
<trkpt lat="24.741532" lon="105.61563">
<time>2016-10-06T20:49:45Z</time></trkpt>
<trkpt lat="24.741432" lon="105.61559">
<time>2016-10-06T20:49:46Z</time></trkpt>
<trkpt lat="24.741342" lon="105.61556">
<time>2016-10-06T20:49:47Z</time></trkpt>
<trkpt lat="24.741232" lon="105.61555">
<time>2016-10-06T20:49:48Z</time></trkpt>
<trkpt lat="24.741112" lon="105.61556">
<time>2016-10-06T20:49:49Z</time></trkpt>
<trkpt lat="24.740652" lon="105.61564">
<time>2016-10-06T20:49:50Z</time></trkpt>
<trkpt lat="24.740462" lon="105.61564">
<time>2016-10-06T20:49:51Z</time></trkpt>
<trkpt lat="24.740292" lon="105.61562">
<time>2016-10-06T20:49:52Z</time></trkpt>
<trkpt lat="24.740172" lon="105.61558">
<time>2016-10-06T20:49:53Z</time></trkpt>
<trkpt lat="24.739902" lon="105.61548">
<time>2016-10-06T20:49:54Z</time></trkpt>
<trkpt lat="24.739732" lon="105.615371">
<time>2016-10-06T20:49:55Z</time></trkpt>
<trkpt lat="24.739532" lon="105.615211">
<time>2016-10-06T20:49:56Z</time></trkpt>
<trkpt lat="24.739412" lon="105.615071">
<time>2016-10-06T20:49:57Z</time></trkpt>
<trkpt lat="24.739292" lon="105.614931">
<time>2016-10-06T20:49:58Z</time></trkpt>
<trkpt lat="24.739193" lon="105.614751">
<time>2016-10-06T20:49:59Z</time></trkpt>
<trkpt lat="24.739083" lon="105.614492">
<time>2016-10-06T20:50:00Z</time></trkpt>
<trkpt lat="24.738883" lon="105.614003">
<time>2016-10-06T20:50:01Z</time></trkpt>
<trkpt lat="24.738853" lon="105.613923">
<time>2016-10-06T20:50:02Z</time></trkpt>
<trkpt lat="24.738833" lon="105.613843">
<time>2016-10-06T20:50:03Z</time></trkpt>
<trkpt lat="24.738823" lon="105.613773">
<time>2016-10-06T20:50:04Z</time></trkpt>
<trkpt lat="24.738823" lon="105.613653">
<time>2016-10-06T20:50:05Z</time></trkpt>
<trkpt lat="24.738824" lon="105.613613">
<time>2016-10-06T20:50:06Z</time></trkpt>
<trkpt lat="24.738834" lon="105.613533">
<time>2016-10-06T20:50:07Z</time></trkpt>
<trkpt lat="24.738844" lon="105.613453">
<time>2016-10-06T20:50:08Z</time></trkpt>
<trkpt lat="24.738864" lon="105.613363">
<time>2016-10-06T20:50:09Z</time></trkpt>
<trkpt lat="24.738894" lon="105.613304">
<time>2016-10-06T20:50:10Z</time></trkpt>
<trkpt lat="24.738954" lon="105.613184">
<time>2016-10-06T20:50:11Z</time></trkpt>
<trkpt lat="24.739024" lon="105.613064">
<time>2016-10-06T20:50:12Z</time></trkpt>
<trkpt lat="24.739084" lon="105.612954">
<time>2016-10-06T20:50:13Z</time></trkpt>
<trkpt lat="24.739114" lon="105.612894">
<time>2016-10-06T20:50:14Z</time></trkpt>
<trkpt lat="24.739134" lon="105.612824">
<time>2016-10-06T20:50:15Z</time></trkpt>
<trkpt lat="24.739154" lon="105.612734">
<time>2016-10-06T20:50:16Z</time></trkpt>
<trkpt lat="24.739174" lon="105.612624">
<time>2016-10-06T20:50:17Z</time></trkpt>
<trkpt lat="24.739174" lon="105.612564">
<time>2016-10-06T20:50:18Z</time></trkpt>
<trkpt lat="24.739164" lon="105.612465">
<time>2016-10-06T20:50:19Z</time></trkpt>
<trkpt lat="24.739144" lon="105.612365">
<time>2016-10-06T20:50:20Z</time></trkpt>
<trkpt lat="24.739115" lon="105.612275">
<time>2016-10-06T20:50:21Z</time></trkpt>
<trkpt lat="24.739075" lon="105.612185">
<time>2016-10-06T20:50:22Z</time></trkpt>
<trkpt lat="24.739015" lon="105.612075">
<time>2016-10-06T20:50:23Z</time></trkpt>
<trkpt lat="24.738885" lon="105.611835">
<time>2016-10-06T20:50:24Z</time></trkpt>
<trkpt lat="24.738645" lon="105.611436">
<time>2016-10-06T20:50:25Z</time></trkpt>
<trkpt lat="24.738405" lon="105.610997">
<time>2016-10-06T20:50:26Z</time></trkpt>
<trkpt lat="24.738236" lon="105.610607">
<time>2016-10-06T20:50:27Z</time></trkpt>
<trkpt lat="24.737886" lon="105.609598">
<time>2016-10-06T20:50:28Z</time></trkpt>
<trkpt lat="24.737826" lon="105.609449">
<time>2016-10-06T20:50:29Z</time></trkpt>
<trkpt lat="24.737757" lon="105.609339">
<time>2016-10-06T20:50:30Z</time></trkpt>
<trkpt lat="24.737647" lon="105.609179">
<time>2016-10-06T20:50:31Z</time></trkpt>
<trkpt lat="24.737507" lon="105.609039">
<time>2016-10-06T20:50:32Z</time></trkpt>
<trkpt lat="24.737347" lon="105.608899">
<time>2016-10-06T20:50:33Z</time></trkpt>
<trkpt lat="24.737127" lon="105.608709">
<time>2016-10-06T20:50:34Z</time></trkpt>
<trkpt lat="24.737017" lon="105.60857">
<time>2016-10-06T20:50:35Z</time></trkpt>
<trkpt lat="24.736947" lon="105.60845">
<time>2016-10-06T20:50:36Z</time></trkpt>
<trkpt lat="24.736897" lon="105.60835">
<time>2016-10-06T20:50:37Z</time></trkpt>
<trkpt lat="24.736648" lon="105.607741">
<time>2016-10-06T20:50:38Z</time></trkpt>
<trkpt lat="24.736558" lon="105.607521">
<time>2016-10-06T20:50:39Z</time></trkpt>
<trkpt lat="24.736478" lon="105.607371">
<time>2016-10-06T20:50:40Z</time></trkpt>
<trkpt lat="24.736378" lon="105.607231">
<time>2016-10-06T20:50:41Z</time></trkpt>
<trkpt lat="24.736278" lon="105.607111">
<time>2016-10-06T20:50:42Z</time></trkpt>
<trkpt lat="24.736138" lon="105.606991">
<time>2016-10-06T20:50:43Z</time></trkpt>
<trkpt lat="24.736018" lon="105.606892">
<time>2016-10-06T20:50:44Z</time></trkpt>
<trkpt lat="24.735968" lon="105.606842">
<time>2016-10-06T20:50:45Z</time></trkpt>
<trkpt lat="24.735938" lon="105.606802">
<time>2016-10-06T20:50:46Z</time></trkpt>
<trkpt lat="24.735918" lon="105.606762">
<time>2016-10-06T20:50:47Z</time></trkpt>
<trkpt lat="24.735898" lon="105.606712">
<time>2016-10-06T20:50:48Z</time></trkpt>
<trkpt lat="24.735888" lon="105.606672">
<time>2016-10-06T20:50:49Z</time></trkpt>
<trkpt lat="24.735878" lon="105.606612">
<time>2016-10-06T20:50:50Z</time></trkpt>
<trkpt lat="24.735878" lon="105.606572">
<time>2016-10-06T20:50:51Z</time></trkpt>
<trkpt lat="24.735878" lon="105.606562">
<time>2016-10-06T20:50:52Z</time></trkpt>
<trkpt lat="24.735878" lon="105.606562">
<time>2016-10-06T20:50:53Z</time></trkpt>
<trkpt lat="24.735508" lon="105.606482">
<time>2016-10-06T20:50:54Z</time></trkpt>
<trkpt lat="24.735328" lon="105.606432">
<time>2016-10-06T20:50:55Z</time></trkpt>
<trkpt lat="24.735188" lon="105.606362">
<time>2016-10-06T20:50:56Z</time></trkpt>
<trkpt lat="24.735108" lon="105.606312">
<time>2016-10-06T20:50:57Z</time></trkpt>
<trkpt lat="24.735068" lon="105.606272">
<time>2016-10-06T20:50:58Z</time></trkpt>
<trkpt lat="24.735048" lon="105.606222">
<time>2016-10-06T20:50:59Z</time></trkpt>
<trkpt lat="24.735038" lon="105.606172">
<time>2016-10-06T20:51:00Z</time></trkpt>
<trkpt lat="24.735029" lon="105.606122">
<time>2016-10-06T20:51:01Z</time></trkpt>
<trkpt lat="24.735019" lon="105.606063">
<time>2016-10-06T20:51:02Z</time></trkpt>
<trkpt lat="24.735009" lon="105.606013">
<time>2016-10-06T20:51:03Z</time></trkpt>
<trkpt lat="24.734999" lon="105.605943">
<time>2016-10-06T20:51:04Z</time></trkpt>
<trkpt lat="24.734989" lon="105.605883">
<time>2016-10-06T20:51:05Z</time></trkpt>
<trkpt lat="24.734979" lon="105.605823">
<time>2016-10-06T20:51:06Z</time></trkpt>
<trkpt lat="24.734979" lon="105.605763">
<time>2016-10-06T20:51:07Z</time></trkpt>
<trkpt lat="24.734969" lon="105.605703">
<time>2016-10-06T20:51:08Z</time></trkpt>
<trkpt lat="24.734959" lon="105.605633">
<time>2016-10-06T20:51:09Z</time></trkpt>
<trkpt lat="24.734949" lon="105.605573">
<time>2016-10-06T20:51:10Z</time></trkpt>
<trkpt lat="24.734939" lon="105.605513">
<time>2016-10-06T20:51:11Z</time></trkpt>
<trkpt lat="24.734929" lon="105.605463">
<time>2016-10-06T20:51:12Z</time></trkpt>
<trkpt lat="24.734919" lon="105.605413">
<time>2016-10-06T20:51:13Z</time></trkpt>
<trkpt lat="24.734909" lon="105.605363">
<time>2016-10-06T20:51:14Z</time></trkpt>
<trkpt lat="24.734869" lon="105.605213">
<time>2016-10-06T20:51:15Z</time></trkpt>
<trkpt lat="24.734859" lon="105.605163">
<time>2016-10-06T20:51:16Z</time></trkpt>
<trkpt lat="24.734849" lon="105.605114">
<time>2016-10-06T20:51:17Z</time></trkpt>
<trkpt lat="24.734829" lon="105.605034">
<time>2016-10-06T20:51:18Z</time></trkpt>
<trkpt lat="24.734809" lon="105.604954">
<time>2016-10-06T20:51:19Z</time></trkpt>
<trkpt lat="24.734799" lon="105.604864">
<time>2016-10-06T20:51:20Z</time></trkpt>
<trkpt lat="24.734789" lon="105.604784">
<time>2016-10-06T20:51:21Z</time></trkpt>
<trkpt lat="24.734779" lon="105.604704">
<time>2016-10-06T20:51:22Z</time></trkpt>
<trkpt lat="24.734769" lon="105.604614">
<time>2016-10-06T20:51:23Z</time></trkpt>
<trkpt lat="24.734759" lon="105.604574">
<time>2016-10-06T20:51:24Z</time></trkpt>
<trkpt lat="24.734759" lon="105.604534">
<time>2016-10-06T20:51:25Z</time></trkpt>
<trkpt lat="24.734739" lon="105.604444">
<time>2016-10-06T20:51:26Z</time></trkpt>
<trkpt lat="24.734729" lon="105.604394">
<time>2016-10-06T20:51:27Z</time></trkpt>
<trkpt lat="24.734719" lon="105.604334">
<time>2016-10-06T20:51:28Z</time></trkpt>
<trkpt lat="24.734699" lon="105.604274">
<time>2016-10-06T20:51:29Z</time></trkpt>
<trkpt lat="24.734689" lon="105.604224">
<time>2016-10-06T20:51:30Z</time></trkpt>
<trkpt lat="24.734669" lon="105.604175">
<time>2016-10-06T20:51:31Z</time></trkpt>
<trkpt lat="24.734639" lon="105.604115">
<time>2016-10-06T20:51:32Z</time></trkpt>
<trkpt lat="24.734619" lon="105.604065">
<time>2016-10-06T20:51:33Z</time></trkpt>
<trkpt lat="24.734589" lon="105.604025">
<time>2016-10-06T20:51:34Z</time></trkpt>
<trkpt lat="24.734559" lon="105.603985">
<time>2016-10-06T20:51:35Z</time></trkpt>
<trkpt lat="24.734539" lon="105.603955">
<time>2016-10-06T20:51:36Z</time></trkpt>
<trkpt lat="24.73451" lon="105.603915">
<time>2016-10-06T20:51:37Z</time></trkpt>
<trkpt lat="24.73448" lon="105.603885">
<time>2016-10-06T20:51:38Z</time></trkpt>
<trkpt lat="24.73445" lon="105.603845">
<time>2016-10-06T20:51:39Z</time></trkpt>
<trkpt lat="24.73443" lon="105.603815">
<time>2016-10-06T20:51:40Z</time></trkpt>
<trkpt lat="24.7344" lon="105.603775">
<time>2016-10-06T20:51:41Z</time></trkpt>
<trkpt lat="24.73438" lon="105.603745">
<time>2016-10-06T20:51:42Z</time></trkpt>
<trkpt lat="24.73436" lon="105.603705">
<time>2016-10-06T20:51:43Z</time></trkpt>
<trkpt lat="24.73435" lon="105.603665">
<time>2016-10-06T20:51:44Z</time></trkpt>
<trkpt lat="24.73434" lon="105.603635">
<time>2016-10-06T20:51:45Z</time></trkpt>
<trkpt lat="24.73433" lon="105.603595">
<time>2016-10-06T20:51:46Z</time></trkpt>
<trkpt lat="24.73432" lon="105.603555">
<time>2016-10-06T20:51:47Z</time></trkpt>
<trkpt lat="24.7343" lon="105.603475">
<time>2016-10-06T20:51:48Z</time></trkpt>
<trkpt lat="24.73429" lon="105.603435">
<time>2016-10-06T20:51:49Z</time></trkpt>
<trkpt lat="24.73427" lon="105.603365">
<time>2016-10-06T20:51:50Z</time></trkpt>
<trkpt lat="24.73425" lon="105.603305">
<time>2016-10-06T20:51:51Z</time></trkpt>
<trkpt lat="24.73423" lon="105.603245">
<time>2016-10-06T20:51:52Z</time></trkpt>
<trkpt lat="24.73422" lon="105.603185">
<time>2016-10-06T20:51:53Z</time></trkpt>
<trkpt lat="24.7342" lon="105.603126">
<time>2016-10-06T20:51:54Z</time></trkpt>
<trkpt lat="24.73418" lon="105.603066">
<time>2016-10-06T20:51:55Z</time></trkpt>
<trkpt lat="24.73416" lon="105.603006">
<time>2016-10-06T20:51:56Z</time></trkpt>
<trkpt lat="24.73415" lon="105.602946">
<time>2016-10-06T20:51:57Z</time></trkpt>
<trkpt lat="24.73413" lon="105.602866">
<time>2016-10-06T20:51:58Z</time></trkpt>
<trkpt lat="24.73412" lon="105.602796">
<time>2016-10-06T20:51:59Z</time></trkpt>
<trkpt lat="24.73411" lon="105.602716">
<time>2016-10-06T20:52:00Z</time></trkpt>
<trkpt lat="24.73411" lon="105.602646">
<time>2016-10-06T20:52:01Z</time></trkpt>
<trkpt lat="24.7341" lon="105.602566">
<time>2016-10-06T20:52:02Z</time></trkpt>
<trkpt lat="24.7341" lon="105.602486">
<time>2016-10-06T20:52:03Z</time></trkpt>
<trkpt lat="24.7341" lon="105.602416">
<time>2016-10-06T20:52:04Z</time></trkpt>
<trkpt lat="24.7341" lon="105.602336">
<time>2016-10-06T20:52:05Z</time></trkpt>
<trkpt lat="24.73411" lon="105.602296">
<time>2016-10-06T20:52:06Z</time></trkpt>
<trkpt lat="24.73411" lon="105.602256">
<time>2016-10-06T20:52:07Z</time></trkpt>
<trkpt lat="24.73411" lon="105.602206">
<time>2016-10-06T20:52:08Z</time></trkpt>
<trkpt lat="24.73412" lon="105.602166">
<time>2016-10-06T20:52:09Z</time></trkpt>
<trkpt lat="24.73412" lon="105.602126">
<time>2016-10-06T20:52:10Z</time></trkpt>
<trkpt lat="24.73413" lon="105.602086">
<time>2016-10-06T20:52:11Z</time></trkpt>
<trkpt lat="24.73415" lon="105.602037">
<time>2016-10-06T20:52:12Z</time></trkpt>
<trkpt lat="24.73417" lon="105.601997">
<time>2016-10-06T20:52:13Z</time></trkpt>
<trkpt lat="24.73418" lon="105.601987">
<time>2016-10-06T20:52:14Z</time></trkpt>
<trkpt lat="24.73419" lon="105.601967">
<time>2016-10-06T20:52:15Z</time></trkpt>
<trkpt lat="24.7342" lon="105.601947">
<time>2016-10-06T20:52:16Z</time></trkpt>
<trkpt lat="24.73421" lon="105.601937">
<time>2016-10-06T20:52:17Z</time></trkpt>
<trkpt lat="24.73422" lon="105.601917">
<time>2016-10-06T20:52:18Z</time></trkpt>
<trkpt lat="24.73424" lon="105.601907">
<time>2016-10-06T20:52:19Z</time></trkpt>
<trkpt lat="24.73425" lon="105.601897">
<time>2016-10-06T20:52:20Z</time></trkpt>
<trkpt lat="24.73427" lon="105.601887">
<time>2016-10-06T20:52:21Z</time></trkpt>
<trkpt lat="24.73429" lon="105.601887">
<time>2016-10-06T20:52:22Z</time></trkpt>
<trkpt lat="24.73431" lon="105.601887">
<time>2016-10-06T20:52:23Z</time></trkpt>
<trkpt lat="24.73433" lon="105.601897">
<time>2016-10-06T20:52:24Z</time></trkpt>
<trkpt lat="24.73436" lon="105.601907">
<time>2016-10-06T20:52:25Z</time></trkpt>
<trkpt lat="24.73438" lon="105.601917">
<time>2016-10-06T20:52:26Z</time></trkpt>
<trkpt lat="24.7344" lon="105.601937">
<time>2016-10-06T20:52:27Z</time></trkpt>
<trkpt lat="24.73442" lon="105.601957">
<time>2016-10-06T20:52:28Z</time></trkpt>
<trkpt lat="24.73444" lon="105.601967">
<time>2016-10-06T20:52:29Z</time></trkpt>
<trkpt lat="24.73447" lon="105.602007">
<time>2016-10-06T20:52:30Z</time></trkpt>
<trkpt lat="24.73449" lon="105.602037">
<time>2016-10-06T20:52:31Z</time></trkpt>
<trkpt lat="24.73452" lon="105.602076">
<time>2016-10-06T20:52:32Z</time></trkpt>
<trkpt lat="24.73454" lon="105.602116">
<time>2016-10-06T20:52:33Z</time></trkpt>
<trkpt lat="24.73456" lon="105.602146">
<time>2016-10-06T20:52:34Z</time></trkpt>
<trkpt lat="24.73458" lon="105.602186">
<time>2016-10-06T20:52:35Z</time></trkpt>
<trkpt lat="24.7346" lon="105.602216">
<time>2016-10-06T20:52:36Z</time></trkpt>
<trkpt lat="24.73462" lon="105.602246">
<time>2016-10-06T20:52:37Z</time></trkpt>
<trkpt lat="24.73464" lon="105.602276">
<time>2016-10-06T20:52:38Z</time></trkpt>
<trkpt lat="24.73467" lon="105.602306">
<time>2016-10-06T20:52:39Z</time></trkpt>
<trkpt lat="24.7347" lon="105.602326">
<time>2016-10-06T20:52:40Z</time></trkpt>
<trkpt lat="24.73473" lon="105.602346">
<time>2016-10-06T20:52:41Z</time></trkpt>
<trkpt lat="24.73476" lon="105.602366">
<time>2016-10-06T20:52:42Z</time></trkpt>
<trkpt lat="24.73479" lon="105.602376">
<time>2016-10-06T20:52:43Z</time></trkpt>
<trkpt lat="24.73483" lon="105.602396">
<time>2016-10-06T20:52:44Z</time></trkpt>
<trkpt lat="24.73487" lon="105.602406">
<time>2016-10-06T20:52:45Z</time></trkpt>
<trkpt lat="24.73488" lon="105.602406">
<time>2016-10-06T20:52:46Z</time></trkpt>
<trkpt lat="24.73489" lon="105.602406">
<time>2016-10-06T20:52:47Z</time></trkpt>
<trkpt lat="24.73491" lon="105.602406">
<time>2016-10-06T20:52:48Z</time></trkpt>
<trkpt lat="24.73492" lon="105.602406">
<time>2016-10-06T20:52:49Z</time></trkpt>
<trkpt lat="24.73494" lon="105.602406">
<time>2016-10-06T20:52:50Z</time></trkpt>
<trkpt lat="24.73495" lon="105.602406">
<time>2016-10-06T20:52:51Z</time></trkpt>
<trkpt lat="24.73496" lon="105.602406">
<time>2016-10-06T20:52:52Z</time></trkpt>
<trkpt lat="24.73498" lon="105.602406">
<time>2016-10-06T20:52:53Z</time></trkpt>
<trkpt lat="24.735" lon="105.602386">
<time>2016-10-06T20:52:54Z</time></trkpt>
<trkpt lat="24.73502" lon="105.602366">
<time>2016-10-06T20:52:55Z</time></trkpt>
<trkpt lat="24.73504" lon="105.602326">
<time>2016-10-06T20:52:56Z</time></trkpt>
<trkpt lat="24.73505" lon="105.602296">
<time>2016-10-06T20:52:57Z</time></trkpt>
<trkpt lat="24.73506" lon="105.602256">
<time>2016-10-06T20:52:58Z</time></trkpt>
<trkpt lat="24.73506" lon="105.602206">
<time>2016-10-06T20:52:59Z</time></trkpt>
<trkpt lat="24.73507" lon="105.602166">
<time>2016-10-06T20:53:00Z</time></trkpt>
<trkpt lat="24.73507" lon="105.602126">
<time>2016-10-06T20:53:01Z</time></trkpt>
<trkpt lat="24.73506" lon="105.602086">
<time>2016-10-06T20:53:02Z</time></trkpt>
<trkpt lat="24.73506" lon="105.602036">
<time>2016-10-06T20:53:03Z</time></trkpt>
<trkpt lat="24.73506" lon="105.602007">
<time>2016-10-06T20:53:04Z</time></trkpt>
<trkpt lat="24.73505" lon="105.601967">
<time>2016-10-06T20:53:05Z</time></trkpt>
<trkpt lat="24.73504" lon="105.601927">
<time>2016-10-06T20:53:06Z</time></trkpt>
<trkpt lat="24.73504" lon="105.601887">
<time>2016-10-06T20:53:07Z</time></trkpt>
<trkpt lat="24.73504" lon="105.601857">
<time>2016-10-06T20:53:08Z</time></trkpt>
<trkpt lat="24.73503" lon="105.601817">
<time>2016-10-06T20:53:09Z</time></trkpt>
<trkpt lat="24.73503" lon="105.601747">
<time>2016-10-06T20:53:10Z</time></trkpt>
<trkpt lat="24.73504" lon="105.601667">
<time>2016-10-06T20:53:11Z</time></trkpt>
<trkpt lat="24.73505" lon="105.601597">
<time>2016-10-06T20:53:12Z</time></trkpt>
<trkpt lat="24.73507" lon="105.601517">
<time>2016-10-06T20:53:13Z</time></trkpt>
<trkpt lat="24.73509" lon="105.601447">
<time>2016-10-06T20:53:14Z</time></trkpt>
<trkpt lat="24.73512" lon="105.601377">
<time>2016-10-06T20:53:15Z</time></trkpt>
<trkpt lat="24.73516" lon="105.601307">
<time>2016-10-06T20:53:16Z</time></trkpt>
<trkpt lat="24.7352" lon="105.601247">
<time>2016-10-06T20:53:17Z</time></trkpt>
<trkpt lat="24.73524" lon="105.601197">
<time>2016-10-06T20:53:18Z</time></trkpt>
<trkpt lat="24.73529" lon="105.601147">
<time>2016-10-06T20:53:19Z</time></trkpt>
<trkpt lat="24.73533" lon="105.601097">
<time>2016-10-06T20:53:20Z</time></trkpt>
<trkpt lat="24.73539" lon="105.601057">
<time>2016-10-06T20:53:21Z</time></trkpt>
<trkpt lat="24.73544" lon="105.601017">
<time>2016-10-06T20:53:22Z</time></trkpt>
<trkpt lat="24.73549" lon="105.600967">
<time>2016-10-06T20:53:23Z</time></trkpt>
<trkpt lat="24.73555" lon="105.600927">
<time>2016-10-06T20:53:24Z</time></trkpt>
<trkpt lat="24.7356" lon="105.600887">
<time>2016-10-06T20:53:25Z</time></trkpt>
<trkpt lat="24.73565" lon="105.600838">
<time>2016-10-06T20:53:26Z</time></trkpt>
<trkpt lat="24.73569" lon="105.600798">
<time>2016-10-06T20:53:27Z</time></trkpt>
<trkpt lat="24.735731" lon="105.600748">
<time>2016-10-06T20:53:28Z</time></trkpt>
<trkpt lat="24.735771" lon="105.600698">
<time>2016-10-06T20:53:29Z</time></trkpt>
<trkpt lat="24.735811" lon="105.600648">
<time>2016-10-06T20:53:30Z</time></trkpt>
<trkpt lat="24.735841" lon="105.600588">
<time>2016-10-06T20:53:31Z</time></trkpt>
<trkpt lat="24.735871" lon="105.600538">
<time>2016-10-06T20:53:32Z</time></trkpt>
<trkpt lat="24.735891" lon="105.600478">
<time>2016-10-06T20:53:33Z</time></trkpt>
<trkpt lat="24.735901" lon="105.600438">
<time>2016-10-06T20:53:34Z</time></trkpt>
<trkpt lat="24.735911" lon="105.600388">
<time>2016-10-06T20:53:35Z</time></trkpt>
<trkpt lat="24.735921" lon="105.600348">
<time>2016-10-06T20:53:36Z</time></trkpt>
<trkpt lat="24.735921" lon="105.600308">
<time>2016-10-06T20:53:37Z</time></trkpt>
<trkpt lat="24.735921" lon="105.600258">
<time>2016-10-06T20:53:38Z</time></trkpt>
<trkpt lat="24.735921" lon="105.600218">
<time>2016-10-06T20:53:39Z</time></trkpt>
<trkpt lat="24.735921" lon="105.600168">
<time>2016-10-06T20:53:40Z</time></trkpt>
<trkpt lat="24.735921" lon="105.600128">
<time>2016-10-06T20:53:41Z</time></trkpt>
<trkpt lat="24.735911" lon="105.600078">
<time>2016-10-06T20:53:42Z</time></trkpt>
<trkpt lat="24.735901" lon="105.600028">
<time>2016-10-06T20:53:43Z</time></trkpt>
<trkpt lat="24.735891" lon="105.599978">
<time>2016-10-06T20:53:44Z</time></trkpt>
<trkpt lat="24.735871" lon="105.599928">
<time>2016-10-06T20:53:45Z</time></trkpt>
<trkpt lat="24.735851" lon="105.599878">
<time>2016-10-06T20:53:46Z</time></trkpt>
<trkpt lat="24.735841" lon="105.599828">
<time>2016-10-06T20:53:47Z</time></trkpt>
<trkpt lat="24.735821" lon="105.599778">
<time>2016-10-06T20:53:48Z</time></trkpt>
<trkpt lat="24.735811" lon="105.599728">
<time>2016-10-06T20:53:49Z</time></trkpt>
<trkpt lat="24.735801" lon="105.599688">
<time>2016-10-06T20:53:50Z</time></trkpt>
<trkpt lat="24.735791" lon="105.599648">
<time>2016-10-06T20:53:51Z</time></trkpt>
<trkpt lat="24.735781" lon="105.599608">
<time>2016-10-06T20:53:52Z</time></trkpt>
<trkpt lat="24.735781" lon="105.599569">
<time>2016-10-06T20:53:53Z</time></trkpt>
<trkpt lat="24.735771" lon="105.599529">
<time>2016-10-06T20:53:54Z</time></trkpt>
<trkpt lat="24.735761" lon="105.599489">
<time>2016-10-06T20:53:55Z</time></trkpt>
<trkpt lat="24.735761" lon="105.599449">
<time>2016-10-06T20:53:56Z</time></trkpt>
<trkpt lat="24.735761" lon="105.599409">
<time>2016-10-06T20:53:57Z</time></trkpt>
<trkpt lat="24.735761" lon="105.599369">
<time>2016-10-06T20:53:58Z</time></trkpt>
<trkpt lat="24.735761" lon="105.599329">
<time>2016-10-06T20:53:59Z</time></trkpt>
<trkpt lat="24.735761" lon="105.599299">
<time>2016-10-06T20:54:00Z</time></trkpt>
<trkpt lat="24.735761" lon="105.599219">
<time>2016-10-06T20:54:01Z</time></trkpt>
<trkpt lat="24.735761" lon="105.599189">
<time>2016-10-06T20:54:02Z</time></trkpt>
<trkpt lat="24.735761" lon="105.599149">
<time>2016-10-06T20:54:03Z</time></trkpt>
<trkpt lat="24.735761" lon="105.599119">
<time>2016-10-06T20:54:04Z</time></trkpt>
<trkpt lat="24.735761" lon="105.599059">
<time>2016-10-06T20:54:05Z</time></trkpt>
<trkpt lat="24.735751" lon="105.599009">
<time>2016-10-06T20:54:06Z</time></trkpt>
<trkpt lat="24.735751" lon="105.598959">
<time>2016-10-06T20:54:07Z</time></trkpt>
<trkpt lat="24.735741" lon="105.598909">
<time>2016-10-06T20:54:08Z</time></trkpt>
<trkpt lat="24.735731" lon="105.598859">
<time>2016-10-06T20:54:09Z</time></trkpt>
<trkpt lat="24.735721" lon="105.598799">
<time>2016-10-06T20:54:10Z</time></trkpt>
<trkpt lat="24.735701" lon="105.598749">
<time>2016-10-06T20:54:11Z</time></trkpt>
<trkpt lat="24.735691" lon="105.598709">
<time>2016-10-06T20:54:12Z</time></trkpt>
<trkpt lat="24.735661" lon="105.598639">
<time>2016-10-06T20:54:13Z</time></trkpt>
<trkpt lat="24.735641" lon="105.598579">
<time>2016-10-06T20:54:14Z</time></trkpt>
<trkpt lat="24.735611" lon="105.598519">
<time>2016-10-06T20:54:15Z</time></trkpt>
<trkpt lat="24.735581" lon="105.598459">
<time>2016-10-06T20:54:16Z</time></trkpt>
<trkpt lat="24.735541" lon="105.598399">
<time>2016-10-06T20:54:17Z</time></trkpt>
<trkpt lat="24.735511" lon="105.598339">
<time>2016-10-06T20:54:18Z</time></trkpt>
<trkpt lat="24.735481" lon="105.59828">
<time>2016-10-06T20:54:19Z</time></trkpt>
<trkpt lat="24.735441" lon="105.59822">
<time>2016-10-06T20:54:20Z</time></trkpt>
<trkpt lat="24.735411" lon="105.59816">
<time>2016-10-06T20:54:21Z</time></trkpt>
<trkpt lat="24.735381" lon="105.5981">
<time>2016-10-06T20:54:22Z</time></trkpt>
<trkpt lat="24.735361" lon="105.59804">
<time>2016-10-06T20:54:23Z</time></trkpt>
<trkpt lat="24.735331" lon="105.59798">
<time>2016-10-06T20:54:24Z</time></trkpt>
<trkpt lat="24.735311" lon="105.59792">
<time>2016-10-06T20:54:25Z</time></trkpt>
<trkpt lat="24.735291" lon="105.59786">
<time>2016-10-06T20:54:26Z</time></trkpt>
<trkpt lat="24.735271" lon="105.59779">
<time>2016-10-06T20:54:27Z</time></trkpt>
<trkpt lat="24.735261" lon="105.59773">
<time>2016-10-06T20:54:28Z</time></trkpt>
<trkpt lat="24.735261" lon="105.59765">
<time>2016-10-06T20:54:29Z</time></trkpt>
<trkpt lat="24.735271" lon="105.59757">
<time>2016-10-06T20:54:30Z</time></trkpt>
<trkpt lat="24.735271" lon="105.59748">
<time>2016-10-06T20:54:31Z</time></trkpt>
<trkpt lat="24.735281" lon="105.5974">
<time>2016-10-06T20:54:32Z</time></trkpt>
<trkpt lat="24.735301" lon="105.59732">
<time>2016-10-06T20:54:33Z</time></trkpt>
<trkpt lat="24.735311" lon="105.59723">
<time>2016-10-06T20:54:34Z</time></trkpt>
<trkpt lat="24.735311" lon="105.59715">
<time>2016-10-06T20:54:35Z</time></trkpt>
<trkpt lat="24.735311" lon="105.59707">
<time>2016-10-06T20:54:36Z</time></trkpt>
<trkpt lat="24.735301" lon="105.59699">
<time>2016-10-06T20:54:37Z</time></trkpt>
<trkpt lat="24.735291" lon="105.5969">
<time>2016-10-06T20:54:38Z</time></trkpt>
<trkpt lat="24.735271" lon="105.596821">
<time>2016-10-06T20:54:39Z</time></trkpt>
<trkpt lat="24.735251" lon="105.596741">
<time>2016-10-06T20:54:40Z</time></trkpt>
<trkpt lat="24.735221" lon="105.596661">
<time>2016-10-06T20:54:41Z</time></trkpt>
<trkpt lat="24.735201" lon="105.596571">
<time>2016-10-06T20:54:42Z</time></trkpt>
<trkpt lat="24.735181" lon="105.596491">
<time>2016-10-06T20:54:43Z</time></trkpt>
<trkpt lat="24.735161" lon="105.596401">
<time>2016-10-06T20:54:44Z</time></trkpt>
<trkpt lat="24.735151" lon="105.596351">
<time>2016-10-06T20:54:45Z</time></trkpt>
<trkpt lat="24.735151" lon="105.596301">
<time>2016-10-06T20:54:46Z</time></trkpt>
<trkpt lat="24.735151" lon="105.596261">
<time>2016-10-06T20:54:47Z</time></trkpt>
<trkpt lat="24.735151" lon="105.596211">
<time>2016-10-06T20:54:48Z</time></trkpt>
<trkpt lat="24.735161" lon="105.596161">
<time>2016-10-06T20:54:49Z</time></trkpt>
<trkpt lat="24.735161" lon="105.596121">
<time>2016-10-06T20:54:50Z</time></trkpt>
<trkpt lat="24.735171" lon="105.596081">
<time>2016-10-06T20:54:51Z</time></trkpt>
<trkpt lat="24.735191" lon="105.596041">
<time>2016-10-06T20:54:52Z</time></trkpt>
<trkpt lat="24.735221" lon="105.595981">
<time>2016-10-06T20:54:53Z</time></trkpt>
<trkpt lat="24.735261" lon="105.595921">
<time>2016-10-06T20:54:54Z</time></trkpt>
<trkpt lat="24.735311" lon="105.595871">
<time>2016-10-06T20:54:55Z</time></trkpt>
<trkpt lat="24.735371" lon="105.595831">
<time>2016-10-06T20:54:56Z</time></trkpt>
<trkpt lat="24.735431" lon="105.595791">
<time>2016-10-06T20:54:57Z</time></trkpt>
<trkpt lat="24.735491" lon="105.595761">
<time>2016-10-06T20:54:58Z</time></trkpt>
<trkpt lat="24.735561" lon="105.595731">
<time>2016-10-06T20:54:59Z</time></trkpt>
<trkpt lat="24.735631" lon="105.595711">
<time>2016-10-06T20:55:00Z</time></trkpt>
<trkpt lat="24.735691" lon="105.595691">
<time>2016-10-06T20:55:01Z</time></trkpt>
<trkpt lat="24.735761" lon="105.595681">
<time>2016-10-06T20:55:02Z</time></trkpt>
<trkpt lat="24.735831" lon="105.595671">
<time>2016-10-06T20:55:03Z</time></trkpt>
<trkpt lat="24.735961" lon="105.595651">
<time>2016-10-06T20:55:04Z</time></trkpt>
<trkpt lat="24.736031" lon="105.595641">
<time>2016-10-06T20:55:05Z</time></trkpt>
<trkpt lat="24.736091" lon="105.595621">
<time>2016-10-06T20:55:06Z</time></trkpt>
<trkpt lat="24.736161" lon="105.595611">
<time>2016-10-06T20:55:07Z</time></trkpt>
<trkpt lat="24.736241" lon="105.595581">
<time>2016-10-06T20:55:08Z</time></trkpt>
<trkpt lat="24.736311" lon="105.595551">
<time>2016-10-06T20:55:09Z</time></trkpt>
<trkpt lat="24.736391" lon="105.595511">
<time>2016-10-06T20:55:10Z</time></trkpt>
<trkpt lat="24.736461" lon="105.595461">
<time>2016-10-06T20:55:11Z</time></trkpt>
<trkpt lat="24.736541" lon="105.595411">
<time>2016-10-06T20:55:12Z</time></trkpt>
<trkpt lat="24.736601" lon="105.595361">
<time>2016-10-06T20:55:13Z</time></trkpt>
<trkpt lat="24.736671" lon="105.595291">
<time>2016-10-06T20:55:14Z</time></trkpt>
<trkpt lat="24.736731" lon="105.595231">
<time>2016-10-06T20:55:15Z</time></trkpt>
<trkpt lat="24.736781" lon="105.595171">
<time>2016-10-06T20:55:16Z</time></trkpt>
<trkpt lat="24.736821" lon="105.595102">
<time>2016-10-06T20:55:17Z</time></trkpt>
<trkpt lat="24.736861" lon="105.595032">
<time>2016-10-06T20:55:18Z</time></trkpt>
<trkpt lat="24.736901" lon="105.594962">
<time>2016-10-06T20:55:19Z</time></trkpt>
<trkpt lat="24.736931" lon="105.594892">
<time>2016-10-06T20:55:20Z</time></trkpt>
<trkpt lat="24.736961" lon="105.594822">
<time>2016-10-06T20:55:21Z</time></trkpt>
<trkpt lat="24.736981" lon="105.594742">
<time>2016-10-06T20:55:22Z</time></trkpt>
<trkpt lat="24.737001" lon="105.594672">
<time>2016-10-06T20:55:23Z</time></trkpt>
<trkpt lat="24.737021" lon="105.594602">
<time>2016-10-06T20:55:24Z</time></trkpt>
<trkpt lat="24.737031" lon="105.594542">
<time>2016-10-06T20:55:25Z</time></trkpt>
<trkpt lat="24.737041" lon="105.594482">
<time>2016-10-06T20:55:26Z</time></trkpt>
<trkpt lat="24.737051" lon="105.594422">
<time>2016-10-06T20:55:27Z</time></trkpt>
<trkpt lat="24.737051" lon="105.594362">
<time>2016-10-06T20:55:28Z</time></trkpt>
<trkpt lat="24.737061" lon="105.594292">
<time>2016-10-06T20:55:29Z</time></trkpt>
<trkpt lat="24.737061" lon="105.594232">
<time>2016-10-06T20:55:30Z</time></trkpt>
<trkpt lat="24.737071" lon="105.594172">
<time>2016-10-06T20:55:31Z</time></trkpt>
<trkpt lat="24.737071" lon="105.594092">
<time>2016-10-06T20:55:32Z</time></trkpt>
<trkpt lat="24.737071" lon="105.594022">
<time>2016-10-06T20:55:33Z</time></trkpt>
<trkpt lat="24.737071" lon="105.593952">
<time>2016-10-06T20:55:34Z</time></trkpt>
<trkpt lat="24.737071" lon="105.593882">
<time>2016-10-06T20:55:35Z</time></trkpt>
<trkpt lat="24.737061" lon="105.593812">
<time>2016-10-06T20:55:36Z</time></trkpt>
<trkpt lat="24.737051" lon="105.593742">
<time>2016-10-06T20:55:37Z</time></trkpt>
<trkpt lat="24.737041" lon="105.593672">
<time>2016-10-06T20:55:38Z</time></trkpt>
<trkpt lat="24.737021" lon="105.593602">
<time>2016-10-06T20:55:39Z</time></trkpt>
<trkpt lat="24.736991" lon="105.593532">
<time>2016-10-06T20:55:40Z</time></trkpt>
<trkpt lat="24.736961" lon="105.593472">
<time>2016-10-06T20:55:41Z</time></trkpt>
<trkpt lat="24.736921" lon="105.593412">
<time>2016-10-06T20:55:42Z</time></trkpt>
<trkpt lat="24.736881" lon="105.593362">
<time>2016-10-06T20:55:43Z</time></trkpt>
<trkpt lat="24.736841" lon="105.593302">
<time>2016-10-06T20:55:44Z</time></trkpt>
<trkpt lat="24.736791" lon="105.593262">
<time>2016-10-06T20:55:45Z</time></trkpt>
<trkpt lat="24.736741" lon="105.593223">
<time>2016-10-06T20:55:46Z</time></trkpt>
<trkpt lat="24.736691" lon="105.593183">
<time>2016-10-06T20:55:47Z</time></trkpt>
<trkpt lat="24.736631" lon="105.593153">
<time>2016-10-06T20:55:48Z</time></trkpt>
<trkpt lat="24.736581" lon="105.593133">
<time>2016-10-06T20:55:49Z</time></trkpt>
<trkpt lat="24.736511" lon="105.593113">
<time>2016-10-06T20:55:50Z</time></trkpt>
<trkpt lat="24.736451" lon="105.593093">
<time>2016-10-06T20:55:51Z</time></trkpt>
<trkpt lat="24.736391" lon="105.593083">
<time>2016-10-06T20:55:52Z</time></trkpt>
<trkpt lat="24.736321" lon="105.593073">
<time>2016-10-06T20:55:53Z</time></trkpt>
<trkpt lat="24.736261" lon="105.593073">
<time>2016-10-06T20:55:54Z</time></trkpt>
<trkpt lat="24.736191" lon="105.593063">
<time>2016-10-06T20:55:55Z</time></trkpt>
<trkpt lat="24.736111" lon="105.593053">
<time>2016-10-06T20:55:56Z</time></trkpt>
<trkpt lat="24.736021" lon="105.593043">
<time>2016-10-06T20:55:57Z</time></trkpt>
<trkpt lat="24.735941" lon="105.593033">
<time>2016-10-06T20:55:58Z</time></trkpt>
<trkpt lat="24.735861" lon="105.593023">
<time>2016-10-06T20:55:59Z</time></trkpt>
<trkpt lat="24.735781" lon="105.593003">
<time>2016-10-06T20:56:00Z</time></trkpt>
<trkpt lat="24.735691" lon="105.592983">
<time>2016-10-06T20:56:01Z</time></trkpt>
<trkpt lat="24.735621" lon="105.592963">
<time>2016-10-06T20:56:02Z</time></trkpt>
<trkpt lat="24.735541" lon="105.592943">
<time>2016-10-06T20:56:03Z</time></trkpt>
<trkpt lat="24.735501" lon="105.592923">
<time>2016-10-06T20:56:04Z</time></trkpt>
<trkpt lat="24.735471" lon="105.592913">
<time>2016-10-06T20:56:05Z</time></trkpt>
<trkpt lat="24.735441" lon="105.592903">
<time>2016-10-06T20:56:06Z</time></trkpt>
<trkpt lat="24.735401" lon="105.592883">
<time>2016-10-06T20:56:07Z</time></trkpt>
<trkpt lat="24.735371" lon="105.592873">
<time>2016-10-06T20:56:08Z</time></trkpt>
<trkpt lat="24.735331" lon="105.592853">
<time>2016-10-06T20:56:09Z</time></trkpt>
<trkpt lat="24.735291" lon="105.592833">
<time>2016-10-06T20:56:10Z</time></trkpt>
<trkpt lat="24.735261" lon="105.592823">
<time>2016-10-06T20:56:11Z</time></trkpt>
<trkpt lat="24.735221" lon="105.592793">
<time>2016-10-06T20:56:12Z</time></trkpt>
<trkpt lat="24.735181" lon="105.592773">
<time>2016-10-06T20:56:13Z</time></trkpt>
<trkpt lat="24.735141" lon="105.592753">
<time>2016-10-06T20:56:14Z</time></trkpt>
<trkpt lat="24.735101" lon="105.592723">
<time>2016-10-06T20:56:15Z</time></trkpt>
<trkpt lat="24.735071" lon="105.592703">
<time>2016-10-06T20:56:16Z</time></trkpt>
<trkpt lat="24.735051" lon="105.592673">
<time>2016-10-06T20:56:17Z</time></trkpt>
<trkpt lat="24.735031" lon="105.592633">
<time>2016-10-06T20:56:18Z</time></trkpt>
<trkpt lat="24.735011" lon="105.592603">
<time>2016-10-06T20:56:19Z</time></trkpt>
<trkpt lat="24.735011" lon="105.592573">
<time>2016-10-06T20:56:20Z</time></trkpt>
<trkpt lat="24.735011" lon="105.592543">
<time>2016-10-06T20:56:21Z</time></trkpt>
<trkpt lat="24.735021" lon="105.592513">
<time>2016-10-06T20:56:22Z</time></trkpt>
<trkpt lat="24.735031" lon="105.592473">
<time>2016-10-06T20:56:23Z</time></trkpt>
<trkpt lat="24.735041" lon="105.592443">
<time>2016-10-06T20:56:24Z</time></trkpt>
<trkpt lat="24.735061" lon="105.592413">
<time>2016-10-06T20:56:25Z</time></trkpt>
<trkpt lat="24.735071" lon="105.592383">
<time>2016-10-06T20:56:26Z</time></trkpt>
<trkpt lat="24.735091" lon="105.592363">
<time>2016-10-06T20:56:27Z</time></trkpt>
<trkpt lat="24.735131" lon="105.592323">
<time>2016-10-06T20:56:28Z</time></trkpt>
<trkpt lat="24.735161" lon="105.592293">
<time>2016-10-06T20:56:29Z</time></trkpt>
<trkpt lat="24.735201" lon="105.592263">
<time>2016-10-06T20:56:30Z</time></trkpt>
<trkpt lat="24.735231" lon="105.592233">
<time>2016-10-06T20:56:31Z</time></trkpt>
<trkpt lat="24.735261" lon="105.592203">
<time>2016-10-06T20:56:32Z</time></trkpt>
<trkpt lat="24.735291" lon="105.592173">
<time>2016-10-06T20:56:33Z</time></trkpt>
<trkpt lat="24.735311" lon="105.592143">
<time>2016-10-06T20:56:34Z</time></trkpt>
<trkpt lat="24.735331" lon="105.592113">
<time>2016-10-06T20:56:35Z</time></trkpt>
<trkpt lat="24.735331" lon="105.592083">
<time>2016-10-06T20:56:36Z</time></trkpt>
<trkpt lat="24.735331" lon="105.592043">
<time>2016-10-06T20:56:37Z</time></trkpt>
<trkpt lat="24.735331" lon="105.592013">
<time>2016-10-06T20:56:38Z</time></trkpt>
<trkpt lat="24.735321" lon="105.591973">
<time>2016-10-06T20:56:39Z</time></trkpt>
<trkpt lat="24.735321" lon="105.591933">
<time>2016-10-06T20:56:40Z</time></trkpt>
<trkpt lat="24.735301" lon="105.591903">
<time>2016-10-06T20:56:41Z</time></trkpt>
<trkpt lat="24.735291" lon="105.591863">
<time>2016-10-06T20:56:42Z</time></trkpt>
<trkpt lat="24.735261" lon="105.591763">
<time>2016-10-06T20:56:43Z</time></trkpt>
<trkpt lat="24.735241" lon="105.591713">
<time>2016-10-06T20:56:44Z</time></trkpt>
<trkpt lat="24.735221" lon="105.591653">
<time>2016-10-06T20:56:45Z</time></trkpt>
<trkpt lat="24.735211" lon="105.591603">
<time>2016-10-06T20:56:46Z</time></trkpt>
<trkpt lat="24.735191" lon="105.591553">
<time>2016-10-06T20:56:47Z</time></trkpt>
<trkpt lat="24.735181" lon="105.591493">
<time>2016-10-06T20:56:48Z</time></trkpt>
<trkpt lat="24.735161" lon="105.591443">
<time>2016-10-06T20:56:49Z</time></trkpt>
<trkpt lat="24.735151" lon="105.591383">
<time>2016-10-06T20:56:50Z</time></trkpt>
<trkpt lat="24.735151" lon="105.591353">
<time>2016-10-06T20:56:51Z</time></trkpt>
<trkpt lat="24.735141" lon="105.591313">
<time>2016-10-06T20:56:52Z</time></trkpt>
<trkpt lat="24.735141" lon="105.591283">
<time>2016-10-06T20:56:53Z</time></trkpt>
<trkpt lat="24.735141" lon="105.591243">
<time>2016-10-06T20:56:54Z</time></trkpt>
<trkpt lat="24.735141" lon="105.591213">
<time>2016-10-06T20:56:55Z</time></trkpt>
<trkpt lat="24.735141" lon="105.591173">
<time>2016-10-06T20:56:56Z</time></trkpt>
<trkpt lat="24.735151" lon="105.591143">
<time>2016-10-06T20:56:57Z</time></trkpt>
<trkpt lat="24.735151" lon="105.591104">
<time>2016-10-06T20:56:58Z</time></trkpt>
<trkpt lat="24.735171" lon="105.591064">
<time>2016-10-06T20:56:59Z</time></trkpt>
<trkpt lat="24.735201" lon="105.591014">
<time>2016-10-06T20:57:00Z</time></trkpt>
<trkpt lat="24.735231" lon="105.590974">
<time>2016-10-06T20:57:01Z</time></trkpt>
<trkpt lat="24.735261" lon="105.590934">
<time>2016-10-06T20:57:02Z</time></trkpt>
<trkpt lat="24.735301" lon="105.590904">
<time>2016-10-06T20:57:03Z</time></trkpt>
<trkpt lat="24.735341" lon="105.590874">
<time>2016-10-06T20:57:04Z</time></trkpt>
<trkpt lat="24.735391" lon="105.590844">
<time>2016-10-06T20:57:05Z</time></trkpt>
<trkpt lat="24.735431" lon="105.590824">
<time>2016-10-06T20:57:06Z</time></trkpt>
<trkpt lat="24.735481" lon="105.590794">
<time>2016-10-06T20:57:07Z</time></trkpt>
<trkpt lat="24.735541" lon="105.590784">
<time>2016-10-06T20:57:08Z</time></trkpt>
<trkpt lat="24.735591" lon="105.590764">
<time>2016-10-06T20:57:09Z</time></trkpt>
<trkpt lat="24.735651" lon="105.590764">
<time>2016-10-06T20:57:10Z</time></trkpt>
<trkpt lat="24.735711" lon="105.590754">
<time>2016-10-06T20:57:11Z</time></trkpt>
<trkpt lat="24.735761" lon="105.590754">
<time>2016-10-06T20:57:12Z</time></trkpt>
<trkpt lat="24.735821" lon="105.590744">
<time>2016-10-06T20:57:13Z</time></trkpt>
<trkpt lat="24.735871" lon="105.590744">
<time>2016-10-06T20:57:14Z</time></trkpt>
<trkpt lat="24.735921" lon="105.590744">
<time>2016-10-06T20:57:15Z</time></trkpt>
<trkpt lat="24.735971" lon="105.590734">
<time>2016-10-06T20:57:16Z</time></trkpt>
<trkpt lat="24.736021" lon="105.590734">
<time>2016-10-06T20:57:17Z</time></trkpt>
<trkpt lat="24.736071" lon="105.590724">
<time>2016-10-06T20:57:18Z</time></trkpt>
<trkpt lat="24.736121" lon="105.590724">
<time>2016-10-06T20:57:19Z</time></trkpt>
<trkpt lat="24.736171" lon="105.590714">
<time>2016-10-06T20:57:20Z</time></trkpt>
<trkpt lat="24.736221" lon="105.590704">
<time>2016-10-06T20:57:21Z</time></trkpt>
<trkpt lat="24.736271" lon="105.590694">
<time>2016-10-06T20:57:22Z</time></trkpt>
<trkpt lat="24.736301" lon="105.590684">
<time>2016-10-06T20:57:23Z</time></trkpt>
<trkpt lat="24.736341" lon="105.590674">
<time>2016-10-06T20:57:24Z</time></trkpt>
<trkpt lat="24.736381" lon="105.590664">
<time>2016-10-06T20:57:25Z</time></trkpt>
<trkpt lat="24.736421" lon="105.590644">
<time>2016-10-06T20:57:26Z</time></trkpt>
<trkpt lat="24.736461" lon="105.590634">
<time>2016-10-06T20:57:27Z</time></trkpt>
<trkpt lat="24.736491" lon="105.590614">
<time>2016-10-06T20:57:28Z</time></trkpt>
<trkpt lat="24.736531" lon="105.590594">
<time>2016-10-06T20:57:29Z</time></trkpt>
<trkpt lat="24.736561" lon="105.590564">
<time>2016-10-06T20:57:30Z</time></trkpt>
<trkpt lat="24.736591" lon="105.590544">
<time>2016-10-06T20:57:31Z</time></trkpt>
<trkpt lat="24.736621" lon="105.590524">
<time>2016-10-06T20:57:32Z</time></trkpt>
<trkpt lat="24.736641" lon="105.590504">
<time>2016-10-06T20:57:33Z</time></trkpt>
<trkpt lat="24.736661" lon="105.590474">
<time>2016-10-06T20:57:34Z</time></trkpt>
<trkpt lat="24.736681" lon="105.590444">
<time>2016-10-06T20:57:35Z</time></trkpt>
<trkpt lat="24.736701" lon="105.590424">
<time>2016-10-06T20:57:36Z</time></trkpt>
<trkpt lat="24.736721" lon="105.590394">
<time>2016-10-06T20:57:37Z</time></trkpt>
<trkpt lat="24.736731" lon="105.590364">
<time>2016-10-06T20:57:38Z</time></trkpt>
<trkpt lat="24.736741" lon="105.590314">
<time>2016-10-06T20:57:39Z</time></trkpt>
<trkpt lat="24.736751" lon="105.590274">
<time>2016-10-06T20:57:40Z</time></trkpt>
<trkpt lat="24.736751" lon="105.590234">
<time>2016-10-06T20:57:41Z</time></trkpt>
<trkpt lat="24.736741" lon="105.590184">
<time>2016-10-06T20:57:42Z</time></trkpt>
<trkpt lat="24.736731" lon="105.590144">
<time>2016-10-06T20:57:43Z</time></trkpt>
<trkpt lat="24.736721" lon="105.590094">
<time>2016-10-06T20:57:44Z</time></trkpt>
<trkpt lat="24.736711" lon="105.590054">
<time>2016-10-06T20:57:45Z</time></trkpt>
<trkpt lat="24.736691" lon="105.590014">
<time>2016-10-06T20:57:46Z</time></trkpt>
<trkpt lat="24.736661" lon="105.589964">
<time>2016-10-06T20:57:47Z</time></trkpt>
<trkpt lat="24.736631" lon="105.589914">
<time>2016-10-06T20:57:48Z</time></trkpt>
<trkpt lat="24.736601" lon="105.589874">
<time>2016-10-06T20:57:49Z</time></trkpt>
<trkpt lat="24.736571" lon="105.589834">
<time>2016-10-06T20:57:50Z</time></trkpt>
<trkpt lat="24.736531" lon="105.589804">
<time>2016-10-06T20:57:51Z</time></trkpt>
<trkpt lat="24.736491" lon="105.589764">
<time>2016-10-06T20:57:52Z</time></trkpt>
<trkpt lat="24.736451" lon="105.589734">
<time>2016-10-06T20:57:53Z</time></trkpt>
<trkpt lat="24.736411" lon="105.589704">
<time>2016-10-06T20:57:54Z</time></trkpt>
<trkpt lat="24.736371" lon="105.589674">
<time>2016-10-06T20:57:55Z</time></trkpt>
<trkpt lat="24.736331" lon="105.589644">
<time>2016-10-06T20:57:56Z</time></trkpt>
<trkpt lat="24.736291" lon="105.589614">
<time>2016-10-06T20:57:57Z</time></trkpt>
<trkpt lat="24.736251" lon="105.589584">
<time>2016-10-06T20:57:58Z</time></trkpt>
<trkpt lat="24.736211" lon="105.589554">
<time>2016-10-06T20:57:59Z</time></trkpt>
<trkpt lat="24.736181" lon="105.589524">
<time>2016-10-06T20:58:00Z</time></trkpt>
<trkpt lat="24.736141" lon="105.589494">
<time>2016-10-06T20:58:01Z</time></trkpt>
<trkpt lat="24.736121" lon="105.589454">
<time>2016-10-06T20:58:02Z</time></trkpt>
<trkpt lat="24.736091" lon="105.589414">
<time>2016-10-06T20:58:03Z</time></trkpt>
<trkpt lat="24.736071" lon="105.589374">
<time>2016-10-06T20:58:04Z</time></trkpt>
<trkpt lat="24.736061" lon="105.589334">
<time>2016-10-06T20:58:05Z</time></trkpt>
<trkpt lat="24.736041" lon="105.589294">
<time>2016-10-06T20:58:06Z</time></trkpt>
<trkpt lat="24.736031" lon="105.589254">
<time>2016-10-06T20:58:07Z</time></trkpt>
<trkpt lat="24.736021" lon="105.589204">
<time>2016-10-06T20:58:08Z</time></trkpt>
<trkpt lat="24.736011" lon="105.589154">
<time>2016-10-06T20:58:09Z</time></trkpt>
<trkpt lat="24.736011" lon="105.589114">
<time>2016-10-06T20:58:10Z</time></trkpt>
<trkpt lat="24.736001" lon="105.589054">
<time>2016-10-06T20:58:11Z</time></trkpt>
<trkpt lat="24.736001" lon="105.589004">
<time>2016-10-06T20:58:12Z</time></trkpt>
<trkpt lat="24.736001" lon="105.588954">
<time>2016-10-06T20:58:13Z</time></trkpt>
<trkpt lat="24.736001" lon="105.588894">
<time>2016-10-06T20:58:14Z</time></trkpt>
<trkpt lat="24.736011" lon="105.588844">
<time>2016-10-06T20:58:15Z</time></trkpt>
<trkpt lat="24.736021" lon="105.588794">
<time>2016-10-06T20:58:16Z</time></trkpt>
<trkpt lat="24.736031" lon="105.588744">
<time>2016-10-06T20:58:17Z</time></trkpt>
<trkpt lat="24.736051" lon="105.588694">
<time>2016-10-06T20:58:18Z</time></trkpt>
<trkpt lat="24.736081" lon="105.588624">
<time>2016-10-06T20:58:19Z</time></trkpt>
<trkpt lat="24.73611" lon="105.588564">
<time>2016-10-06T20:58:20Z</time></trkpt>
<trkpt lat="24.73616" lon="105.588504">
<time>2016-10-06T20:58:21Z</time></trkpt>
<trkpt lat="24.7362" lon="105.588444">
<time>2016-10-06T20:58:22Z</time></trkpt>
<trkpt lat="24.73625" lon="105.588394">
<time>2016-10-06T20:58:23Z</time></trkpt>
<trkpt lat="24.73631" lon="105.588344">
<time>2016-10-06T20:58:24Z</time></trkpt>
<trkpt lat="24.73636" lon="105.588294">
<time>2016-10-06T20:58:25Z</time></trkpt>
<trkpt lat="24.73641" lon="105.588234">
<time>2016-10-06T20:58:26Z</time></trkpt>
<trkpt lat="24.73659" lon="105.588074">
<time>2016-10-06T20:58:27Z</time></trkpt>
<trkpt lat="24.73671" lon="105.587964">
<time>2016-10-06T20:58:28Z</time></trkpt>
<trkpt lat="24.73676" lon="105.587914">
<time>2016-10-06T20:58:29Z</time></trkpt>
<trkpt lat="24.73682" lon="105.587864">
<time>2016-10-06T20:58:30Z</time></trkpt>
<trkpt lat="24.73692" lon="105.587774">
<time>2016-10-06T20:58:31Z</time></trkpt>
<trkpt lat="24.73696" lon="105.587744">
<time>2016-10-06T20:58:32Z</time></trkpt>
<trkpt lat="24.73699" lon="105.587704">
<time>2016-10-06T20:58:33Z</time></trkpt>
<trkpt lat="24.73702" lon="105.587674">
<time>2016-10-06T20:58:34Z</time></trkpt>
<trkpt lat="24.73705" lon="105.587634">
<time>2016-10-06T20:58:35Z</time></trkpt>
<trkpt lat="24.73708" lon="105.587604">
<time>2016-10-06T20:58:36Z</time></trkpt>
<trkpt lat="24.7371" lon="105.587564">
<time>2016-10-06T20:58:37Z</time></trkpt>
<trkpt lat="24.73712" lon="105.587514">
<time>2016-10-06T20:58:38Z</time></trkpt>
<trkpt lat="24.73713" lon="105.587485">
<time>2016-10-06T20:58:39Z</time></trkpt>
<trkpt lat="24.73713" lon="105.587455">
<time>2016-10-06T20:58:40Z</time></trkpt>
<trkpt lat="24.73714" lon="105.587415">
<time>2016-10-06T20:58:41Z</time></trkpt>
<trkpt lat="24.73714" lon="105.587385">
<time>2016-10-06T20:58:42Z</time></trkpt>
<trkpt lat="24.73714" lon="105.587355">
<time>2016-10-06T20:58:43Z</time></trkpt>
<trkpt lat="24.73713" lon="105.587315">
<time>2016-10-06T20:58:44Z</time></trkpt>
<trkpt lat="24.73713" lon="105.587285">
<time>2016-10-06T20:58:45Z</time></trkpt>
<trkpt lat="24.73712" lon="105.587255">
<time>2016-10-06T20:58:46Z</time></trkpt>
<trkpt lat="24.7371" lon="105.587215">
<time>2016-10-06T20:58:47Z</time></trkpt>
<trkpt lat="24.73709" lon="105.587175">
<time>2016-10-06T20:58:48Z</time></trkpt>
<trkpt lat="24.73707" lon="105.587145">
<time>2016-10-06T20:58:49Z</time></trkpt>
<trkpt lat="24.73704" lon="105.587075">
<time>2016-10-06T20:58:50Z</time></trkpt>
<trkpt lat="24.73702" lon="105.587045">
<time>2016-10-06T20:58:51Z</time></trkpt>
<trkpt lat="24.73701" lon="105.587005">
<time>2016-10-06T20:58:52Z</time></trkpt>
<trkpt lat="24.73699" lon="105.586975">
<time>2016-10-06T20:58:53Z</time></trkpt>
<trkpt lat="24.73698" lon="105.586935">
<time>2016-10-06T20:58:54Z</time></trkpt>
<trkpt lat="24.73698" lon="105.586905">
<time>2016-10-06T20:58:55Z</time></trkpt>
<trkpt lat="24.73697" lon="105.586865">
<time>2016-10-06T20:58:56Z</time></trkpt>
<trkpt lat="24.73697" lon="105.586825">
<time>2016-10-06T20:58:57Z</time></trkpt>
<trkpt lat="24.73697" lon="105.586785">
<time>2016-10-06T20:58:58Z</time></trkpt>
<trkpt lat="24.73698" lon="105.586755">
<time>2016-10-06T20:58:59Z</time></trkpt>
<trkpt lat="24.73698" lon="105.586715">
<time>2016-10-06T20:59:00Z</time></trkpt>
<trkpt lat="24.73699" lon="105.586685">
<time>2016-10-06T20:59:01Z</time></trkpt>
<trkpt lat="24.73702" lon="105.586635">
<time>2016-10-06T20:59:02Z</time></trkpt>
<trkpt lat="24.73704" lon="105.586585">
<time>2016-10-06T20:59:03Z</time></trkpt>
<trkpt lat="24.73708" lon="105.586545">
<time>2016-10-06T20:59:04Z</time></trkpt>
<trkpt lat="24.73712" lon="105.586505">
<time>2016-10-06T20:59:05Z</time></trkpt>
<trkpt lat="24.73716" lon="105.586465">
<time>2016-10-06T20:59:06Z</time></trkpt>
<trkpt lat="24.7372" lon="105.586425">
<time>2016-10-06T20:59:07Z</time></trkpt>
<trkpt lat="24.73725" lon="105.586395">
<time>2016-10-06T20:59:08Z</time></trkpt>
<trkpt lat="24.73729" lon="105.586355">
<time>2016-10-06T20:59:09Z</time></trkpt>
<trkpt lat="24.73734" lon="105.586325">
<time>2016-10-06T20:59:10Z</time></trkpt>
<trkpt lat="24.73738" lon="105.586285">
<time>2016-10-06T20:59:11Z</time></trkpt>
<trkpt lat="24.7375" lon="105.586185">
<time>2016-10-06T20:59:12Z</time></trkpt>
<trkpt lat="24.73755" lon="105.586155">
<time>2016-10-06T20:59:13Z</time></trkpt>
<trkpt lat="24.73759" lon="105.586125">
<time>2016-10-06T20:59:14Z</time></trkpt>
<trkpt lat="24.73763" lon="105.586085">
<time>2016-10-06T20:59:15Z</time></trkpt>
<trkpt lat="24.73767" lon="105.586065">
<time>2016-10-06T20:59:16Z</time></trkpt>
<trkpt lat="24.73775" lon="105.586005">
<time>2016-10-06T20:59:17Z</time></trkpt>
<trkpt lat="24.73779" lon="105.585975">
<time>2016-10-06T20:59:18Z</time></trkpt>
<trkpt lat="24.73783" lon="105.585945">
<time>2016-10-06T20:59:19Z</time></trkpt>
<trkpt lat="24.73787" lon="105.585915">
<time>2016-10-06T20:59:20Z</time></trkpt>
<trkpt lat="24.7379" lon="105.585885">
<time>2016-10-06T20:59:21Z</time></trkpt>
<trkpt lat="24.73794" lon="105.585855">
<time>2016-10-06T20:59:22Z</time></trkpt>
<trkpt lat="24.737969" lon="105.585825">
<time>2016-10-06T20:59:23Z</time></trkpt>
<trkpt lat="24.737999" lon="105.585795">
<time>2016-10-06T20:59:24Z</time></trkpt>
<trkpt lat="24.738019" lon="105.585765">
<time>2016-10-06T20:59:25Z</time></trkpt>
<trkpt lat="24.738049" lon="105.585735">
<time>2016-10-06T20:59:26Z</time></trkpt>
<trkpt lat="24.738069" lon="105.585705">
<time>2016-10-06T20:59:27Z</time></trkpt>
<trkpt lat="24.738089" lon="105.585665">
<time>2016-10-06T20:59:28Z</time></trkpt>
<trkpt lat="24.738109" lon="105.585635">
<time>2016-10-06T20:59:29Z</time></trkpt>
<trkpt lat="24.738119" lon="105.585595">
<time>2016-10-06T20:59:30Z</time></trkpt>
<trkpt lat="24.738139" lon="105.585555">
<time>2016-10-06T20:59:31Z</time></trkpt>
<trkpt lat="24.738139" lon="105.585525">
<time>2016-10-06T20:59:32Z</time></trkpt>
<trkpt lat="24.738149" lon="105.585485">
<time>2016-10-06T20:59:33Z</time></trkpt>
<trkpt lat="24.738159" lon="105.585445">
<time>2016-10-06T20:59:34Z</time></trkpt>
<trkpt lat="24.738159" lon="105.585405">
<time>2016-10-06T20:59:35Z</time></trkpt>
<trkpt lat="24.738169" lon="105.585365">
<time>2016-10-06T20:59:36Z</time></trkpt>
<trkpt lat="24.738169" lon="105.585325">
<time>2016-10-06T20:59:37Z</time></trkpt>
<trkpt lat="24.738169" lon="105.585245">
<time>2016-10-06T20:59:38Z</time></trkpt>
<trkpt lat="24.738179" lon="105.585205">
<time>2016-10-06T20:59:39Z</time></trkpt>
<trkpt lat="24.738179" lon="105.585155">
<time>2016-10-06T20:59:40Z</time></trkpt>
<trkpt lat="24.738179" lon="105.585115">
<time>2016-10-06T20:59:41Z</time></trkpt>
<trkpt lat="24.738189" lon="105.585075">
<time>2016-10-06T20:59:42Z</time></trkpt>
<trkpt lat="24.738199" lon="105.585035">
<time>2016-10-06T20:59:43Z</time></trkpt>
<trkpt lat="24.738209" lon="105.585005">
<time>2016-10-06T20:59:44Z</time></trkpt>
<trkpt lat="24.738229" lon="105.584965">
<time>2016-10-06T20:59:45Z</time></trkpt>
<trkpt lat="24.738259" lon="105.584915">
<time>2016-10-06T20:59:46Z</time></trkpt>
<trkpt lat="24.738299" lon="105.584865">
<time>2016-10-06T20:59:47Z</time></trkpt>
<trkpt lat="24.738349" lon="105.584825">
<time>2016-10-06T20:59:48Z</time></trkpt>
<trkpt lat="24.738409" lon="105.584785">
<time>2016-10-06T20:59:49Z</time></trkpt>
<trkpt lat="24.738459" lon="105.584745">
<time>2016-10-06T20:59:50Z</time></trkpt>
<trkpt lat="24.738529" lon="105.584715">
<time>2016-10-06T20:59:51Z</time></trkpt>
<trkpt lat="24.738589" lon="105.584685">
<time>2016-10-06T20:59:52Z</time></trkpt>
<trkpt lat="24.738649" lon="105.584655">
<time>2016-10-06T20:59:53Z</time></trkpt>
<trkpt lat="24.738699" lon="105.584625">
<time>2016-10-06T20:59:54Z</time></trkpt>
<trkpt lat="24.738759" lon="105.584605">
<time>2016-10-06T20:59:55Z</time></trkpt>
<trkpt lat="24.738799" lon="105.584575">
<time>2016-10-06T20:59:56Z</time></trkpt>
<trkpt lat="24.738849" lon="105.584545">
<time>2016-10-06T20:59:57Z</time></trkpt>
<trkpt lat="24.738899" lon="105.584515">
<time>2016-10-06T20:59:58Z</time></trkpt>
<trkpt lat="24.738939" lon="105.584475">
<time>2016-10-06T20:59:59Z</time></trkpt>
<trkpt lat="24.738979" lon="105.584445">
<time>2016-10-06T21:00:00Z</time></trkpt>
<trkpt lat="24.739019" lon="105.584405">
<time>2016-10-06T21:00:01Z</time></trkpt>
<trkpt lat="24.739059" lon="105.584355">
<time>2016-10-06T21:00:02Z</time></trkpt>
<trkpt lat="24.739099" lon="105.584295">
<time>2016-10-06T21:00:03Z</time></trkpt>
<trkpt lat="24.739129" lon="105.584245">
<time>2016-10-06T21:00:04Z</time></trkpt>
<trkpt lat="24.739169" lon="105.584185">
<time>2016-10-06T21:00:05Z</time></trkpt>
<trkpt lat="24.739199" lon="105.584115">
<time>2016-10-06T21:00:06Z</time></trkpt>
<trkpt lat="24.739219" lon="105.584055">
<time>2016-10-06T21:00:07Z</time></trkpt>
<trkpt lat="24.739249" lon="105.583985">
<time>2016-10-06T21:00:08Z</time></trkpt>
<trkpt lat="24.739269" lon="105.583925">
<time>2016-10-06T21:00:09Z</time></trkpt>
<trkpt lat="24.739309" lon="105.583815">
<time>2016-10-06T21:00:10Z</time></trkpt>
<trkpt lat="24.739338" lon="105.583715">
<time>2016-10-06T21:00:11Z</time></trkpt>
<trkpt lat="24.739368" lon="105.583615">
<time>2016-10-06T21:00:12Z</time></trkpt>
<trkpt lat="24.739398" lon="105.583505">
<time>2016-10-06T21:00:13Z</time></trkpt>
<trkpt lat="24.739428" lon="105.583405">
<time>2016-10-06T21:00:14Z</time></trkpt>
<trkpt lat="24.739478" lon="105.583195">
<time>2016-10-06T21:00:15Z</time></trkpt>
<trkpt lat="24.739498" lon="105.583095">
<time>2016-10-06T21:00:16Z</time></trkpt>
<trkpt lat="24.739528" lon="105.582995">
<time>2016-10-06T21:00:17Z</time></trkpt>
<trkpt lat="24.739558" lon="105.582905">
<time>2016-10-06T21:00:18Z</time></trkpt>
<trkpt lat="24.739578" lon="105.582805">
<time>2016-10-06T21:00:19Z</time></trkpt>
<trkpt lat="24.739608" lon="105.582715">
<time>2016-10-06T21:00:20Z</time></trkpt>
<trkpt lat="24.739648" lon="105.582625">
<time>2016-10-06T21:00:21Z</time></trkpt>
<trkpt lat="24.739678" lon="105.582535">
<time>2016-10-06T21:00:22Z</time></trkpt>
<trkpt lat="24.739718" lon="105.582445">
<time>2016-10-06T21:00:23Z</time></trkpt>
<trkpt lat="24.739758" lon="105.582355">
<time>2016-10-06T21:00:24Z</time></trkpt>
<trkpt lat="24.739798" lon="105.582275">
<time>2016-10-06T21:00:25Z</time></trkpt>
<trkpt lat="24.739848" lon="105.582195">
<time>2016-10-06T21:00:26Z</time></trkpt>
<trkpt lat="24.739888" lon="105.582125">
<time>2016-10-06T21:00:27Z</time></trkpt>
<trkpt lat="24.739938" lon="105.582055">
<time>2016-10-06T21:00:28Z</time></trkpt>
<trkpt lat="24.739988" lon="105.581985">
<time>2016-10-06T21:00:29Z</time></trkpt>
<trkpt lat="24.740048" lon="105.581925">
<time>2016-10-06T21:00:30Z</time></trkpt>
<trkpt lat="24.740107" lon="105.581855">
<time>2016-10-06T21:00:31Z</time></trkpt>
<trkpt lat="24.740167" lon="105.581795">
<time>2016-10-06T21:00:32Z</time></trkpt>
<trkpt lat="24.740217" lon="105.581745">
<time>2016-10-06T21:00:33Z</time></trkpt>
<trkpt lat="24.740277" lon="105.581705">
<time>2016-10-06T21:00:34Z</time></trkpt>
<trkpt lat="24.740327" lon="105.581655">
<time>2016-10-06T21:00:35Z</time></trkpt>
<trkpt lat="24.740387" lon="105.581615">
<time>2016-10-06T21:00:36Z</time></trkpt>
<trkpt lat="24.740447" lon="105.581565">
<time>2016-10-06T21:00:37Z</time></trkpt>
<trkpt lat="24.740507" lon="105.581525">
<time>2016-10-06T21:00:38Z</time></trkpt>
<trkpt lat="24.740567" lon="105.581485">
<time>2016-10-06T21:00:39Z</time></trkpt>
<trkpt lat="24.740627" lon="105.581455">
<time>2016-10-06T21:00:40Z</time></trkpt>
<trkpt lat="24.740677" lon="105.581415">
<time>2016-10-06T21:00:41Z</time></trkpt>
<trkpt lat="24.740727" lon="105.581385">
<time>2016-10-06T21:00:42Z</time></trkpt>
<trkpt lat="24.740787" lon="105.581355">
<time>2016-10-06T21:00:43Z</time></trkpt>
<trkpt lat="24.740837" lon="105.581325">
<time>2016-10-06T21:00:44Z</time></trkpt>
<trkpt lat="24.740887" lon="105.581305">
<time>2016-10-06T21:00:45Z</time></trkpt>
<trkpt lat="24.740947" lon="105.581275">
<time>2016-10-06T21:00:46Z</time></trkpt>
<trkpt lat="24.740997" lon="105.581255">
<time>2016-10-06T21:00:47Z</time></trkpt>
<trkpt lat="24.741057" lon="105.581235">
<time>2016-10-06T21:00:48Z</time></trkpt>
<trkpt lat="24.741117" lon="105.581215">
<time>2016-10-06T21:00:49Z</time></trkpt>
<trkpt lat="24.741177" lon="105.581205">
<time>2016-10-06T21:00:50Z</time></trkpt>
<trkpt lat="24.741247" lon="105.581185">
<time>2016-10-06T21:00:51Z</time></trkpt>
<trkpt lat="24.741307" lon="105.581175">
<time>2016-10-06T21:00:52Z</time></trkpt>
<trkpt lat="24.741377" lon="105.581175">
<time>2016-10-06T21:00:53Z</time></trkpt>
<trkpt lat="24.741507" lon="105.581155">
<time>2016-10-06T21:00:54Z</time></trkpt>
<trkpt lat="24.741577" lon="105.581145">
<time>2016-10-06T21:00:55Z</time></trkpt>
<trkpt lat="24.741607" lon="105.581145">
<time>2016-10-06T21:00:56Z</time></trkpt>
<trkpt lat="24.741647" lon="105.581135">
<time>2016-10-06T21:00:57Z</time></trkpt>
<trkpt lat="24.741677" lon="105.581125">
<time>2016-10-06T21:00:58Z</time></trkpt>
<trkpt lat="24.741717" lon="105.581125">
<time>2016-10-06T21:00:59Z</time></trkpt>
<trkpt lat="24.741747" lon="105.581115">
<time>2016-10-06T21:01:00Z</time></trkpt>
<trkpt lat="24.741787" lon="105.581095">
<time>2016-10-06T21:01:01Z</time></trkpt>
<trkpt lat="24.741817" lon="105.581085">
<time>2016-10-06T21:01:02Z</time></trkpt>
<trkpt lat="24.741857" lon="105.581065">
<time>2016-10-06T21:01:03Z</time></trkpt>
<trkpt lat="24.741887" lon="105.581055">
<time>2016-10-06T21:01:04Z</time></trkpt>
<trkpt lat="24.741917" lon="105.581025">
<time>2016-10-06T21:01:05Z</time></trkpt>
<trkpt lat="24.741947" lon="105.581005">
<time>2016-10-06T21:01:06Z</time></trkpt>
<trkpt lat="24.741977" lon="105.580985">
<time>2016-10-06T21:01:07Z</time></trkpt>
<trkpt lat="24.742007" lon="105.580955">
<time>2016-10-06T21:01:08Z</time></trkpt>
<trkpt lat="24.742027" lon="105.580925">
<time>2016-10-06T21:01:09Z</time></trkpt>
<trkpt lat="24.742047" lon="105.580895">
<time>2016-10-06T21:01:10Z</time></trkpt>
<trkpt lat="24.742067" lon="105.580855">
<time>2016-10-06T21:01:11Z</time></trkpt>
<trkpt lat="24.742077" lon="105.580815">
<time>2016-10-06T21:01:12Z</time></trkpt>
<trkpt lat="24.742087" lon="105.580775">
<time>2016-10-06T21:01:13Z</time></trkpt>
<trkpt lat="24.742087" lon="105.580735">
<time>2016-10-06T21:01:14Z</time></trkpt>
<trkpt lat="24.742087" lon="105.580685">
<time>2016-10-06T21:01:15Z</time></trkpt>
<trkpt lat="24.742077" lon="105.580645">
<time>2016-10-06T21:01:16Z</time></trkpt>
<trkpt lat="24.742077" lon="105.580595">
<time>2016-10-06T21:01:17Z</time></trkpt>
<trkpt lat="24.742067" lon="105.580545">
<time>2016-10-06T21:01:18Z</time></trkpt>
<trkpt lat="24.742047" lon="105.580445">
<time>2016-10-06T21:01:19Z</time></trkpt>
<trkpt lat="24.742036" lon="105.580395">
<time>2016-10-06T21:01:20Z</time></trkpt>
<trkpt lat="24.742026" lon="105.580335">
<time>2016-10-06T21:01:21Z</time></trkpt>
<trkpt lat="24.742016" lon="105.580285">
<time>2016-10-06T21:01:22Z</time></trkpt>
<trkpt lat="24.742016" lon="105.580235">
<time>2016-10-06T21:01:23Z</time></trkpt>
<trkpt lat="24.742016" lon="105.580185">
<time>2016-10-06T21:01:24Z</time></trkpt>
<trkpt lat="24.742016" lon="105.580135">
<time>2016-10-06T21:01:25Z</time></trkpt>
<trkpt lat="24.742026" lon="105.580095">
<time>2016-10-06T21:01:26Z</time></trkpt>
<trkpt lat="24.742056" lon="105.580025">
<time>2016-10-06T21:01:27Z</time></trkpt>
<trkpt lat="24.742096" lon="105.579965">
<time>2016-10-06T21:01:28Z</time></trkpt>
<trkpt lat="24.742156" lon="105.579905">
<time>2016-10-06T21:01:29Z</time></trkpt>
<trkpt lat="24.742216" lon="105.579855">
<time>2016-10-06T21:01:30Z</time></trkpt>
<trkpt lat="24.742286" lon="105.579815">
<time>2016-10-06T21:01:31Z</time></trkpt>
<trkpt lat="24.742356" lon="105.579764">
<time>2016-10-06T21:01:32Z</time></trkpt>
<trkpt lat="24.742436" lon="105.579724">
<time>2016-10-06T21:01:33Z</time></trkpt>
<trkpt lat="24.742516" lon="105.579684">
<time>2016-10-06T21:01:34Z</time></trkpt>
<trkpt lat="24.742606" lon="105.579644">
<time>2016-10-06T21:01:35Z</time></trkpt>
<trkpt lat="24.742686" lon="105.579604">
<time>2016-10-06T21:01:36Z</time></trkpt>
<trkpt lat="24.742776" lon="105.579554">
<time>2016-10-06T21:01:37Z</time></trkpt>
<trkpt lat="24.742856" lon="105.579514">
<time>2016-10-06T21:01:38Z</time></trkpt>
<trkpt lat="24.742936" lon="105.579464">
<time>2016-10-06T21:01:39Z</time></trkpt>
<trkpt lat="24.743006" lon="105.579414">
<time>2016-10-06T21:01:40Z</time></trkpt>
<trkpt lat="24.743086" lon="105.579364">
<time>2016-10-06T21:01:41Z</time></trkpt>
<trkpt lat="24.743146" lon="105.579304">
<time>2016-10-06T21:01:42Z</time></trkpt>
<trkpt lat="24.743216" lon="105.579234">
<time>2016-10-06T21:01:43Z</time></trkpt>
<trkpt lat="24.743276" lon="105.579164">
<time>2016-10-06T21:01:44Z</time></trkpt>
<trkpt lat="24.743336" lon="105.579084">
<time>2016-10-06T21:01:45Z</time></trkpt>
<trkpt lat="24.743395" lon="105.579004">
<time>2016-10-06T21:01:46Z</time></trkpt>
<trkpt lat="24.743455" lon="105.578924">
<time>2016-10-06T21:01:47Z</time></trkpt>
<trkpt lat="24.743505" lon="105.578834">
<time>2016-10-06T21:01:48Z</time></trkpt>
<trkpt lat="24.743565" lon="105.578744">
<time>2016-10-06T21:01:49Z</time></trkpt>
<trkpt lat="24.743655" lon="105.578594">
<time>2016-10-06T21:01:50Z</time></trkpt>
<trkpt lat="24.743695" lon="105.578534">
<time>2016-10-06T21:01:51Z</time></trkpt>
<trkpt lat="24.743735" lon="105.578474">
<time>2016-10-06T21:01:52Z</time></trkpt>
<trkpt lat="24.743775" lon="105.578404">
<time>2016-10-06T21:01:53Z</time></trkpt>
<trkpt lat="24.743815" lon="105.578354">
<time>2016-10-06T21:01:54Z</time></trkpt>
<trkpt lat="24.743855" lon="105.578294">
<time>2016-10-06T21:01:55Z</time></trkpt>
<trkpt lat="24.743905" lon="105.578234">
<time>2016-10-06T21:01:56Z</time></trkpt>
<trkpt lat="24.743955" lon="105.578184">
<time>2016-10-06T21:01:57Z</time></trkpt>
<trkpt lat="24.744015" lon="105.578124">
<time>2016-10-06T21:01:58Z</time></trkpt>
<trkpt lat="24.744085" lon="105.578064">
<time>2016-10-06T21:01:59Z</time></trkpt>
<trkpt lat="24.744155" lon="105.578014">
<time>2016-10-06T21:02:00Z</time></trkpt>
<trkpt lat="24.744225" lon="105.577954">
<time>2016-10-06T21:02:01Z</time></trkpt>
<trkpt lat="24.744305" lon="105.577904">
<time>2016-10-06T21:02:02Z</time></trkpt>
<trkpt lat="24.744375" lon="105.577854">
<time>2016-10-06T21:02:03Z</time></trkpt>
<trkpt lat="24.744445" lon="105.577794">
<time>2016-10-06T21:02:04Z</time></trkpt>
<trkpt lat="24.744514" lon="105.577744">
<time>2016-10-06T21:02:05Z</time></trkpt>
<trkpt lat="24.744574" lon="105.577694">
<time>2016-10-06T21:02:06Z</time></trkpt>
<trkpt lat="24.744624" lon="105.577644">
<time>2016-10-06T21:02:07Z</time></trkpt>
<trkpt lat="24.744734" lon="105.577544">
<time>2016-10-06T21:02:08Z</time></trkpt>
<trkpt lat="24.744784" lon="105.577494">
<time>2016-10-06T21:02:09Z</time></trkpt>
<trkpt lat="24.744844" lon="105.577444">
<time>2016-10-06T21:02:10Z</time></trkpt>
<trkpt lat="24.744894" lon="105.577394">
<time>2016-10-06T21:02:11Z</time></trkpt>
<trkpt lat="24.744954" lon="105.577354">
<time>2016-10-06T21:02:12Z</time></trkpt>
<trkpt lat="24.744984" lon="105.577334">
<time>2016-10-06T21:02:13Z</time></trkpt>
<trkpt lat="24.745024" lon="105.577314">
<time>2016-10-06T21:02:14Z</time></trkpt>
<trkpt lat="24.745054" lon="105.577294">
<time>2016-10-06T21:02:15Z</time></trkpt>
<trkpt lat="24.745094" lon="105.577284">
<time>2016-10-06T21:02:16Z</time></trkpt>
<trkpt lat="24.745124" lon="105.577264">
<time>2016-10-06T21:02:17Z</time></trkpt>
<trkpt lat="24.745164" lon="105.577254">
<time>2016-10-06T21:02:18Z</time></trkpt>
<trkpt lat="24.745194" lon="105.577234">
<time>2016-10-06T21:02:19Z</time></trkpt>
<trkpt lat="24.745234" lon="105.577224">
<time>2016-10-06T21:02:20Z</time></trkpt>
<trkpt lat="24.745314" lon="105.577204">
<time>2016-10-06T21:02:21Z</time></trkpt>
<trkpt lat="24.745394" lon="105.577174">
<time>2016-10-06T21:02:22Z</time></trkpt>
<trkpt lat="24.745484" lon="105.577164">
<time>2016-10-06T21:02:23Z</time></trkpt>
<trkpt lat="24.745564" lon="105.577144">
<time>2016-10-06T21:02:24Z</time></trkpt>
<trkpt lat="24.745654" lon="105.577134">
<time>2016-10-06T21:02:25Z</time></trkpt>
<trkpt lat="24.745824" lon="105.577104">
<time>2016-10-06T21:02:26Z</time></trkpt>
<trkpt lat="24.745904" lon="105.577094">
<time>2016-10-06T21:02:27Z</time></trkpt>
<trkpt lat="24.746004" lon="105.577074">
<time>2016-10-06T21:02:28Z</time></trkpt>
<trkpt lat="24.746114" lon="105.577054">
<time>2016-10-06T21:02:29Z</time></trkpt>
<trkpt lat="24.746214" lon="105.577024">
<time>2016-10-06T21:02:30Z</time></trkpt>
<trkpt lat="24.746314" lon="105.577004">
<time>2016-10-06T21:02:31Z</time></trkpt>
<trkpt lat="24.746414" lon="105.576974">
<time>2016-10-06T21:02:32Z</time></trkpt>
<trkpt lat="24.746514" lon="105.576944">
<time>2016-10-06T21:02:33Z</time></trkpt>
<trkpt lat="24.746614" lon="105.576914">
<time>2016-10-06T21:02:34Z</time></trkpt>
<trkpt lat="24.746714" lon="105.576874">
<time>2016-10-06T21:02:35Z</time></trkpt>
<trkpt lat="24.746814" lon="105.576834">
<time>2016-10-06T21:02:36Z</time></trkpt>
<trkpt lat="24.746904" lon="105.576794">
<time>2016-10-06T21:02:37Z</time></trkpt>
<trkpt lat="24.747004" lon="105.576754">
<time>2016-10-06T21:02:38Z</time></trkpt>
<trkpt lat="24.747104" lon="105.576704">
<time>2016-10-06T21:02:39Z</time></trkpt>
<trkpt lat="24.747193" lon="105.576654">
<time>2016-10-06T21:02:40Z</time></trkpt>
<trkpt lat="24.747283" lon="105.576594">
<time>2016-10-06T21:02:41Z</time></trkpt>
<trkpt lat="24.747373" lon="105.576544">
<time>2016-10-06T21:02:42Z</time></trkpt>
<trkpt lat="24.747463" lon="105.576483">
<time>2016-10-06T21:02:43Z</time></trkpt>
<trkpt lat="24.747553" lon="105.576423">
<time>2016-10-06T21:02:44Z</time></trkpt>
<trkpt lat="24.747633" lon="105.576363">
<time>2016-10-06T21:02:45Z</time></trkpt>
<trkpt lat="24.747713" lon="105.576303">
<time>2016-10-06T21:02:46Z</time></trkpt>
<trkpt lat="24.747793" lon="105.576243">
<time>2016-10-06T21:02:47Z</time></trkpt>
<trkpt lat="24.747873" lon="105.576193">
<time>2016-10-06T21:02:48Z</time></trkpt>
<trkpt lat="24.747963" lon="105.576133">
<time>2016-10-06T21:02:49Z</time></trkpt>
<trkpt lat="24.748043" lon="105.576093">
<time>2016-10-06T21:02:50Z</time></trkpt>
<trkpt lat="24.748133" lon="105.576043">
<time>2016-10-06T21:02:51Z</time></trkpt>
<trkpt lat="24.748193" lon="105.576023">
<time>2016-10-06T21:02:52Z</time></trkpt>
<trkpt lat="24.748263" lon="105.575993">
<time>2016-10-06T21:02:53Z</time></trkpt>
<trkpt lat="24.748333" lon="105.575973">
<time>2016-10-06T21:02:54Z</time></trkpt>
<trkpt lat="24.748403" lon="105.575963">
<time>2016-10-06T21:02:55Z</time></trkpt>
<trkpt lat="24.748463" lon="105.575943">
<time>2016-10-06T21:02:56Z</time></trkpt>
<trkpt lat="24.748533" lon="105.575923">
<time>2016-10-06T21:02:57Z</time></trkpt>
<trkpt lat="24.748753" lon="105.575883">
<time>2016-10-06T21:02:58Z</time></trkpt>
<trkpt lat="24.748833" lon="105.575863">
<time>2016-10-06T21:02:59Z</time></trkpt>
<trkpt lat="24.748913" lon="105.575843">
<time>2016-10-06T21:03:00Z</time></trkpt>
<trkpt lat="24.748993" lon="105.575833">
<time>2016-10-06T21:03:01Z</time></trkpt>
<trkpt lat="24.749073" lon="105.575813">
<time>2016-10-06T21:03:02Z</time></trkpt>
<trkpt lat="24.749153" lon="105.575793">
<time>2016-10-06T21:03:03Z</time></trkpt>
<trkpt lat="24.749233" lon="105.575763">
<time>2016-10-06T21:03:04Z</time></trkpt>
<trkpt lat="24.749313" lon="105.575743">
<time>2016-10-06T21:03:05Z</time></trkpt>
<trkpt lat="24.749403" lon="105.575713">
<time>2016-10-06T21:03:06Z</time></trkpt>
<trkpt lat="24.749493" lon="105.575683">
<time>2016-10-06T21:03:07Z</time></trkpt>
<trkpt lat="24.749573" lon="105.575653">
<time>2016-10-06T21:03:08Z</time></trkpt>
<trkpt lat="24.749662" lon="105.575623">
<time>2016-10-06T21:03:09Z</time></trkpt>
<trkpt lat="24.749752" lon="105.575593">
<time>2016-10-06T21:03:10Z</time></trkpt>
<trkpt lat="24.749832" lon="105.575553">
<time>2016-10-06T21:03:11Z</time></trkpt>
<trkpt lat="24.749922" lon="105.575513">
<time>2016-10-06T21:03:12Z</time></trkpt>
<trkpt lat="24.750002" lon="105.575473">
<time>2016-10-06T21:03:13Z</time></trkpt>
<trkpt lat="24.750012" lon="105.575473">
<time>2016-10-06T21:03:14Z</time></trkpt>
<trkpt lat="24.750092" lon="105.575433">
<time>2016-10-06T21:03:15Z</time></trkpt>
<trkpt lat="24.750192" lon="105.575383">
<time>2016-10-06T21:03:16Z</time></trkpt>
<trkpt lat="24.750282" lon="105.575333">
<time>2016-10-06T21:03:17Z</time></trkpt>
<trkpt lat="24.750372" lon="105.575293">
<time>2016-10-06T21:03:18Z</time></trkpt>
<trkpt lat="24.750552" lon="105.575193">
<time>2016-10-06T21:03:19Z</time></trkpt>
<trkpt lat="24.750642" lon="105.575143">
<time>2016-10-06T21:03:20Z</time></trkpt>
<trkpt lat="24.750732" lon="105.575093">
<time>2016-10-06T21:03:21Z</time></trkpt>
<trkpt lat="24.750862" lon="105.575023">
<time>2016-10-06T21:03:22Z</time></trkpt>
<trkpt lat="24.750922" lon="105.574993">
<time>2016-10-06T21:03:23Z</time></trkpt>
<trkpt lat="24.750992" lon="105.574953">
<time>2016-10-06T21:03:24Z</time></trkpt>
<trkpt lat="24.751282" lon="105.574853">
<time>2016-10-06T21:03:25Z</time></trkpt>
<trkpt lat="24.751332" lon="105.574833">
<time>2016-10-06T21:03:26Z</time></trkpt>
<trkpt lat="24.751332" lon="105.574833">
<time>2016-10-06T21:03:27Z</time></trkpt>
<trkpt lat="24.751322" lon="105.574783">
<time>2016-10-06T21:03:28Z</time></trkpt>
<trkpt lat="24.751322" lon="105.574723">
<time>2016-10-06T21:03:29Z</time></trkpt>
<trkpt lat="24.751322" lon="105.574663">
<time>2016-10-06T21:03:30Z</time></trkpt>
<trkpt lat="24.751341" lon="105.574573">
<time>2016-10-06T21:03:31Z</time></trkpt>
<trkpt lat="24.751371" lon="105.574503">
<time>2016-10-06T21:03:32Z</time></trkpt>
<trkpt lat="24.751411" lon="105.574423">
<time>2016-10-06T21:03:33Z</time></trkpt>
<trkpt lat="24.751481" lon="105.574323">
<time>2016-10-06T21:03:34Z</time></trkpt>
<trkpt lat="24.751511" lon="105.574283">
<time>2016-10-06T21:03:35Z</time></trkpt>
<trkpt lat="24.751581" lon="105.574242">
<time>2016-10-06T21:03:36Z</time></trkpt>
<trkpt lat="24.751641" lon="105.574202">
<time>2016-10-06T21:03:37Z</time></trkpt>
<trkpt lat="24.751731" lon="105.574162">
<time>2016-10-06T21:03:38Z</time></trkpt>
<trkpt lat="24.751821" lon="105.574132">
<time>2016-10-06T21:03:39Z</time></trkpt>
<trkpt lat="24.751951" lon="105.574102">
<time>2016-10-06T21:03:40Z</time></trkpt>
<trkpt lat="24.752141" lon="105.574042">
<time>2016-10-06T21:03:41Z</time></trkpt>
<trkpt lat="24.752291" lon="105.573982">
<time>2016-10-06T21:03:42Z</time></trkpt>
<trkpt lat="24.752451" lon="105.573902">
<time>2016-10-06T21:03:43Z</time></trkpt>
<trkpt lat="24.752571" lon="105.573822">
<time>2016-10-06T21:03:44Z</time></trkpt>
<trkpt lat="24.752631" lon="105.573782">
<time>2016-10-06T21:03:45Z</time></trkpt>
<trkpt lat="24.752681" lon="105.573732">
<time>2016-10-06T21:03:46Z</time></trkpt>
<trkpt lat="24.752731" lon="105.573672">
<time>2016-10-06T21:03:47Z</time></trkpt>
<trkpt lat="24.75278" lon="105.573602">
<time>2016-10-06T21:03:48Z</time></trkpt>
<trkpt lat="24.75281" lon="105.573552">
<time>2016-10-06T21:03:49Z</time></trkpt>
<trkpt lat="24.75286" lon="105.573462">
<time>2016-10-06T21:03:50Z</time></trkpt>
<trkpt lat="24.75302" lon="105.573122">
<time>2016-10-06T21:03:51Z</time></trkpt>
<trkpt lat="24.75307" lon="105.572992">
<time>2016-10-06T21:03:52Z</time></trkpt>
<trkpt lat="24.75311" lon="105.572862">
<time>2016-10-06T21:03:53Z</time></trkpt>
<trkpt lat="24.75314" lon="105.572702">
<time>2016-10-06T21:03:54Z</time></trkpt>
<trkpt lat="24.753149" lon="105.572502">
<time>2016-10-06T21:03:55Z</time></trkpt>
<trkpt lat="24.753139" lon="105.572352">
<time>2016-10-06T21:03:56Z</time></trkpt>
<trkpt lat="24.753139" lon="105.572281">
<time>2016-10-06T21:03:57Z</time></trkpt>
<trkpt lat="24.753048" lon="105.570781">
<time>2016-10-06T21:03:58Z</time></trkpt>
<trkpt lat="24.753027" lon="105.57041">
<time>2016-10-06T21:03:59Z</time></trkpt>
<trkpt lat="24.753017" lon="105.57033">
<time>2016-10-06T21:04:00Z</time></trkpt>
<trkpt lat="24.753007" lon="105.57023">
<time>2016-10-06T21:04:01Z</time></trkpt>
<trkpt lat="24.752876" lon="105.56973">
<time>2016-10-06T21:04:02Z</time></trkpt>
<trkpt lat="24.752816" lon="105.56944">
<time>2016-10-06T21:04:03Z</time></trkpt>
<trkpt lat="24.752776" lon="105.56919">
<time>2016-10-06T21:04:04Z</time></trkpt>
<trkpt lat="24.752776" lon="105.56912">
<time>2016-10-06T21:04:05Z</time></trkpt>
<trkpt lat="24.752776" lon="105.56906">
<time>2016-10-06T21:04:06Z</time></trkpt>
<trkpt lat="24.752796" lon="105.569">
<time>2016-10-06T21:04:07Z</time></trkpt>
<trkpt lat="24.752826" lon="105.56893">
<time>2016-10-06T21:04:08Z</time></trkpt>
<trkpt lat="24.752856" lon="105.568879">
<time>2016-10-06T21:04:09Z</time></trkpt>
<trkpt lat="24.752895" lon="105.568819">
<time>2016-10-06T21:04:10Z</time></trkpt>
<trkpt lat="24.752945" lon="105.568769">
<time>2016-10-06T21:04:11Z</time></trkpt>
<trkpt lat="24.753075" lon="105.568649">
<time>2016-10-06T21:04:12Z</time></trkpt>
<trkpt lat="24.753765" lon="105.568169">
<time>2016-10-06T21:04:13Z</time></trkpt>
<trkpt lat="24.754354" lon="105.567749">
<time>2016-10-06T21:04:14Z</time></trkpt>
<trkpt lat="24.754604" lon="105.567528">
<time>2016-10-06T21:04:15Z</time></trkpt>
<trkpt lat="24.754724" lon="105.567398">
<time>2016-10-06T21:04:16Z</time></trkpt>
<trkpt lat="24.754774" lon="105.567318">
<time>2016-10-06T21:04:17Z</time></trkpt>
<trkpt lat="24.754813" lon="105.567238">
<time>2016-10-06T21:04:18Z</time></trkpt>
<trkpt lat="24.754843" lon="105.567178">
<time>2016-10-06T21:04:19Z</time></trkpt>
<trkpt lat="24.754863" lon="105.567118">
<time>2016-10-06T21:04:20Z</time></trkpt>
<trkpt lat="24.754883" lon="105.566988">
<time>2016-10-06T21:04:21Z</time></trkpt>
<trkpt lat="24.754933" lon="105.566518">
<time>2016-10-06T21:04:22Z</time></trkpt>
<trkpt lat="24.754952" lon="105.566027">
<time>2016-10-06T21:04:23Z</time></trkpt>
<trkpt lat="24.754961" lon="105.565617">
<time>2016-10-06T21:04:24Z</time></trkpt>
<trkpt lat="24.754931" lon="105.565377">
<time>2016-10-06T21:04:25Z</time></trkpt>
<trkpt lat="24.754811" lon="105.565067">
<time>2016-10-06T21:04:26Z</time></trkpt>
<trkpt lat="24.75445" lon="105.564436">
<time>2016-10-06T21:04:27Z</time></trkpt>
<trkpt lat="24.75435" lon="105.564206">
<time>2016-10-06T21:04:28Z</time></trkpt>
<trkpt lat="24.754329" lon="105.564126">
<time>2016-10-06T21:04:29Z</time></trkpt>
<trkpt lat="24.754309" lon="105.564056">
<time>2016-10-06T21:04:30Z</time></trkpt>
<trkpt lat="24.754299" lon="105.563956">
<time>2016-10-06T21:04:31Z</time></trkpt>
<trkpt lat="24.754309" lon="105.563885">
<time>2016-10-06T21:04:32Z</time></trkpt>
<trkpt lat="24.754329" lon="105.563815">
<time>2016-10-06T21:04:33Z</time></trkpt>
<trkpt lat="24.754349" lon="105.563755">
<time>2016-10-06T21:04:34Z</time></trkpt>
<trkpt lat="24.754389" lon="105.563695">
<time>2016-10-06T21:04:35Z</time></trkpt>
<trkpt lat="24.754419" lon="105.563645">
<time>2016-10-06T21:04:36Z</time></trkpt>
<trkpt lat="24.754499" lon="105.563565">
<time>2016-10-06T21:04:37Z</time></trkpt>
<trkpt lat="24.754569" lon="105.563505">
<time>2016-10-06T21:04:38Z</time></trkpt>
<trkpt lat="24.755008" lon="105.563175">
<time>2016-10-06T21:04:39Z</time></trkpt>
<trkpt lat="24.755268" lon="105.562965">
<time>2016-10-06T21:04:40Z</time></trkpt>
<trkpt lat="24.755398" lon="105.562834">
<time>2016-10-06T21:04:41Z</time></trkpt>
<trkpt lat="24.755507" lon="105.562654">
<time>2016-10-06T21:04:42Z</time></trkpt>
<trkpt lat="24.755597" lon="105.562444">
<time>2016-10-06T21:04:43Z</time></trkpt>
<trkpt lat="24.755667" lon="105.562224">
<time>2016-10-06T21:04:44Z</time></trkpt>
<trkpt lat="24.755856" lon="105.561483">
<time>2016-10-06T21:04:45Z</time></trkpt>
<trkpt lat="24.756055" lon="105.560953">
<time>2016-10-06T21:04:46Z</time></trkpt>
<trkpt lat="24.756493" lon="105.559861">
<time>2016-10-06T21:04:47Z</time></trkpt>
<trkpt lat="24.756861" lon="105.55858">
<time>2016-10-06T21:04:48Z</time></trkpt>
<trkpt lat="24.75704" lon="105.558099">
<time>2016-10-06T21:04:49Z</time></trkpt>
<trkpt lat="24.757319" lon="105.557569">
<time>2016-10-06T21:04:50Z</time></trkpt>
<trkpt lat="24.757629" lon="105.557018">
<time>2016-10-06T21:04:51Z</time></trkpt>
<trkpt lat="24.757937" lon="105.556317">
<time>2016-10-06T21:04:52Z</time></trkpt>
<trkpt lat="24.757977" lon="105.556217">
<time>2016-10-06T21:04:53Z</time></trkpt>
<trkpt lat="24.758037" lon="105.556057">
<time>2016-10-06T21:04:54Z</time></trkpt>
<trkpt lat="24.758077" lon="105.555887">
<time>2016-10-06T21:04:55Z</time></trkpt>
<trkpt lat="24.758106" lon="105.555716">
<time>2016-10-06T21:04:56Z</time></trkpt>
<trkpt lat="24.758126" lon="105.555506">
<time>2016-10-06T21:04:57Z</time></trkpt>
<trkpt lat="24.758136" lon="105.555306">
<time>2016-10-06T21:04:58Z</time></trkpt>
<trkpt lat="24.758115" lon="105.555006">
<time>2016-10-06T21:04:59Z</time></trkpt>
<trkpt lat="24.758054" lon="105.554395">
<time>2016-10-06T21:05:00Z</time></trkpt>
<trkpt lat="24.757993" lon="105.553854">
<time>2016-10-06T21:05:01Z</time></trkpt>
<trkpt lat="24.757943" lon="105.553624">
<time>2016-10-06T21:05:02Z</time></trkpt>
<trkpt lat="24.757902" lon="105.553454">
<time>2016-10-06T21:05:03Z</time></trkpt>
<trkpt lat="24.757842" lon="105.553313">
<time>2016-10-06T21:05:04Z</time></trkpt>
<trkpt lat="24.757772" lon="105.553183">
<time>2016-10-06T21:05:05Z</time></trkpt>
<trkpt lat="24.757682" lon="105.553083">
<time>2016-10-06T21:05:06Z</time></trkpt>
<trkpt lat="24.757572" lon="105.552973">
<time>2016-10-06T21:05:07Z</time></trkpt>
<trkpt lat="24.757241" lon="105.552673">
<time>2016-10-06T21:05:08Z</time></trkpt>
<trkpt lat="24.757181" lon="105.552602">
<time>2016-10-06T21:05:09Z</time></trkpt>
<trkpt lat="24.757061" lon="105.552442">
<time>2016-10-06T21:05:10Z</time></trkpt>
<trkpt lat="24.757" lon="105.552332">
<time>2016-10-06T21:05:11Z</time></trkpt>
<trkpt lat="24.75696" lon="105.552262">
<time>2016-10-06T21:05:12Z</time></trkpt>
<trkpt lat="24.75693" lon="105.552172">
<time>2016-10-06T21:05:13Z</time></trkpt>
<trkpt lat="24.75692" lon="105.552112">
<time>2016-10-06T21:05:14Z</time></trkpt>
<trkpt lat="24.75691" lon="105.552032">
<time>2016-10-06T21:05:15Z</time></trkpt>
<trkpt lat="24.75691" lon="105.551972">
<time>2016-10-06T21:05:16Z</time></trkpt>
<trkpt lat="24.75692" lon="105.551901">
<time>2016-10-06T21:05:17Z</time></trkpt>
<trkpt lat="24.756949" lon="105.551811">
<time>2016-10-06T21:05:18Z</time></trkpt>
<trkpt lat="24.756979" lon="105.551741">
<time>2016-10-06T21:05:19Z</time></trkpt>
<trkpt lat="24.757079" lon="105.551561">
<time>2016-10-06T21:05:20Z</time></trkpt>
<trkpt lat="24.757278" lon="105.551291">
<time>2016-10-06T21:05:21Z</time></trkpt>
<trkpt lat="24.757448" lon="105.5511">
<time>2016-10-06T21:05:22Z</time></trkpt>
<trkpt lat="24.757638" lon="105.55089">
<time>2016-10-06T21:05:23Z</time></trkpt>
<trkpt lat="24.757857" lon="105.55071">
<time>2016-10-06T21:05:24Z</time></trkpt>
<trkpt lat="24.758127" lon="105.550509">
<time>2016-10-06T21:05:25Z</time></trkpt>
<trkpt lat="24.758417" lon="105.550339">
<time>2016-10-06T21:05:26Z</time></trkpt>
<trkpt lat="24.758816" lon="105.550139">
<time>2016-10-06T21:05:27Z</time></trkpt>
<trkpt lat="24.758916" lon="105.550069">
<time>2016-10-06T21:05:28Z</time></trkpt>
<trkpt lat="24.758956" lon="105.550029">
<time>2016-10-06T21:05:29Z</time></trkpt>
<trkpt lat="24.759006" lon="105.549979">
<time>2016-10-06T21:05:30Z</time></trkpt>
<trkpt lat="24.759056" lon="105.549908">
<time>2016-10-06T21:05:31Z</time></trkpt>
<trkpt lat="24.759106" lon="105.549838">
<time>2016-10-06T21:05:32Z</time></trkpt>
<trkpt lat="24.759125" lon="105.549778">
<time>2016-10-06T21:05:33Z</time></trkpt>
<trkpt lat="24.759145" lon="105.549718">
<time>2016-10-06T21:05:34Z</time></trkpt>
<trkpt lat="24.759155" lon="105.549638">
<time>2016-10-06T21:05:35Z</time></trkpt>
<trkpt lat="24.759155" lon="105.549558">
<time>2016-10-06T21:05:36Z</time></trkpt>
<trkpt lat="24.759145" lon="105.549468">
<time>2016-10-06T21:05:37Z</time></trkpt>
<trkpt lat="24.759125" lon="105.549358">
<time>2016-10-06T21:05:38Z</time></trkpt>
<trkpt lat="24.758933" lon="105.548376">
<time>2016-10-06T21:05:39Z</time></trkpt>
<trkpt lat="24.758802" lon="105.547875">
<time>2016-10-06T21:05:40Z</time></trkpt>
<trkpt lat="24.758611" lon="105.547355">
<time>2016-10-06T21:05:41Z</time></trkpt>
<trkpt lat="24.75841" lon="105.546954">
<time>2016-10-06T21:05:42Z</time></trkpt>
<trkpt lat="24.75834" lon="105.546854">
<time>2016-10-06T21:05:43Z</time></trkpt>
<trkpt lat="24.757999" lon="105.546513">
<time>2016-10-06T21:05:44Z</time></trkpt>
<trkpt lat="24.757658" lon="105.546213">
<time>2016-10-06T21:05:45Z</time></trkpt>
<trkpt lat="24.757288" lon="105.545942">
<time>2016-10-06T21:05:46Z</time></trkpt>
<trkpt lat="24.756817" lon="105.545562">
<time>2016-10-06T21:05:47Z</time></trkpt>
<trkpt lat="24.756537" lon="105.545301">
<time>2016-10-06T21:05:48Z</time></trkpt>
<trkpt lat="24.756416" lon="105.545161">
<time>2016-10-06T21:05:49Z</time></trkpt>
<trkpt lat="24.756306" lon="105.545001">
<time>2016-10-06T21:05:50Z</time></trkpt>
<trkpt lat="24.756266" lon="105.544901">
<time>2016-10-06T21:05:51Z</time></trkpt>
<trkpt lat="24.756246" lon="105.54482">
<time>2016-10-06T21:05:52Z</time></trkpt>
<trkpt lat="24.756235" lon="105.54475">
<time>2016-10-06T21:05:53Z</time></trkpt>
<trkpt lat="24.756235" lon="105.54468">
<time>2016-10-06T21:05:54Z</time></trkpt>
<trkpt lat="24.756255" lon="105.5446">
<time>2016-10-06T21:05:55Z</time></trkpt>
<trkpt lat="24.756285" lon="105.5445">
<time>2016-10-06T21:05:56Z</time></trkpt>
<trkpt lat="24.756335" lon="105.5444">
<time>2016-10-06T21:05:57Z</time></trkpt>
<trkpt lat="24.756414" lon="105.54429">
<time>2016-10-06T21:05:58Z</time></trkpt>
<trkpt lat="24.756504" lon="105.544199">
<time>2016-10-06T21:05:59Z</time></trkpt>
<trkpt lat="24.756644" lon="105.544079">
<time>2016-10-06T21:06:00Z</time></trkpt>
<trkpt lat="24.756704" lon="105.544029">
<time>2016-10-06T21:06:01Z</time></trkpt>
<trkpt lat="24.756774" lon="105.543949">
<time>2016-10-06T21:06:02Z</time></trkpt>
<trkpt lat="24.756824" lon="105.543859">
<time>2016-10-06T21:06:03Z</time></trkpt>
<trkpt lat="24.756883" lon="105.543739">
<time>2016-10-06T21:06:04Z</time></trkpt>
<trkpt lat="24.757022" lon="105.543368">
<time>2016-10-06T21:06:05Z</time></trkpt>
<trkpt lat="24.757142" lon="105.543007">
<time>2016-10-06T21:06:06Z</time></trkpt>
<trkpt lat="24.757271" lon="105.542536">
<time>2016-10-06T21:06:07Z</time></trkpt>
<trkpt lat="24.7573" lon="105.542416">
<time>2016-10-06T21:06:08Z</time></trkpt>
<trkpt lat="24.75734" lon="105.542176">
<time>2016-10-06T21:06:09Z</time></trkpt>
<trkpt lat="24.75735" lon="105.542026">
<time>2016-10-06T21:06:10Z</time></trkpt>
<trkpt lat="24.757349" lon="105.541895">
<time>2016-10-06T21:06:11Z</time></trkpt>
<trkpt lat="24.757359" lon="105.541635">
<time>2016-10-06T21:06:12Z</time></trkpt>
<trkpt lat="24.757368" lon="105.541525">
<time>2016-10-06T21:06:13Z</time></trkpt>
<trkpt lat="24.757388" lon="105.541414">
<time>2016-10-06T21:06:14Z</time></trkpt>
<trkpt lat="24.757428" lon="105.541314">
<time>2016-10-06T21:06:15Z</time></trkpt>
<trkpt lat="24.757458" lon="105.541264">
<time>2016-10-06T21:06:16Z</time></trkpt>
<trkpt lat="24.757478" lon="105.541244">
<time>2016-10-06T21:06:17Z</time></trkpt>
<trkpt lat="24.757478" lon="105.541244">
<time>2016-10-06T21:06:18Z</time></trkpt>
<trkpt lat="24.757207" lon="105.540954">
<time>2016-10-06T21:06:19Z</time></trkpt>
<trkpt lat="24.756946" lon="105.540613">
<time>2016-10-06T21:06:20Z</time></trkpt>
<trkpt lat="24.756906" lon="105.540543">
<time>2016-10-06T21:06:21Z</time></trkpt>
<trkpt lat="24.756866" lon="105.540463">
<time>2016-10-06T21:06:22Z</time></trkpt>
<trkpt lat="24.756826" lon="105.540393">
<time>2016-10-06T21:06:23Z</time></trkpt>
<trkpt lat="24.756776" lon="105.540322">
<time>2016-10-06T21:06:24Z</time></trkpt>
<trkpt lat="24.756736" lon="105.540252">
<time>2016-10-06T21:06:25Z</time></trkpt>
<trkpt lat="24.756695" lon="105.540182">
<time>2016-10-06T21:06:26Z</time></trkpt>
<trkpt lat="24.756645" lon="105.540112">
<time>2016-10-06T21:06:27Z</time></trkpt>
<trkpt lat="24.756595" lon="105.540052">
<time>2016-10-06T21:06:28Z</time></trkpt>
<trkpt lat="24.756555" lon="105.539992">
<time>2016-10-06T21:06:29Z</time></trkpt>
<trkpt lat="24.756505" lon="105.539942">
<time>2016-10-06T21:06:30Z</time></trkpt>
<trkpt lat="24.756465" lon="105.539882">
<time>2016-10-06T21:06:31Z</time></trkpt>
<trkpt lat="24.756415" lon="105.539832">
<time>2016-10-06T21:06:32Z</time></trkpt>
<trkpt lat="24.756365" lon="105.539781">
<time>2016-10-06T21:06:33Z</time></trkpt>
<trkpt lat="24.756314" lon="105.539741">
<time>2016-10-06T21:06:34Z</time></trkpt>
<trkpt lat="24.756264" lon="105.539691">
<time>2016-10-06T21:06:35Z</time></trkpt>
<trkpt lat="24.756204" lon="105.539651">
<time>2016-10-06T21:06:36Z</time></trkpt>
<trkpt lat="24.756154" lon="105.539611">
<time>2016-10-06T21:06:37Z</time></trkpt>
<trkpt lat="24.756104" lon="105.539571">
<time>2016-10-06T21:06:38Z</time></trkpt>
<trkpt lat="24.756044" lon="105.539531">
<time>2016-10-06T21:06:39Z</time></trkpt>
<trkpt lat="24.755994" lon="105.539491">
<time>2016-10-06T21:06:40Z</time></trkpt>
<trkpt lat="24.755944" lon="105.539461">
<time>2016-10-06T21:06:41Z</time></trkpt>
<trkpt lat="24.755884" lon="105.539421">
<time>2016-10-06T21:06:42Z</time></trkpt>
<trkpt lat="24.755834" lon="105.539381">
<time>2016-10-06T21:06:43Z</time></trkpt>
<trkpt lat="24.755784" lon="105.539341">
<time>2016-10-06T21:06:44Z</time></trkpt>
<trkpt lat="24.755743" lon="105.539301">
<time>2016-10-06T21:06:45Z</time></trkpt>
<trkpt lat="24.755703" lon="105.539261">
<time>2016-10-06T21:06:46Z</time></trkpt>
<trkpt lat="24.755663" lon="105.53922">
<time>2016-10-06T21:06:47Z</time></trkpt>
<trkpt lat="24.755623" lon="105.53918">
<time>2016-10-06T21:06:48Z</time></trkpt>
<trkpt lat="24.755583" lon="105.53914">
<time>2016-10-06T21:06:49Z</time></trkpt>
<trkpt lat="24.755553" lon="105.5391">
<time>2016-10-06T21:06:50Z</time></trkpt>
<trkpt lat="24.755473" lon="105.53901">
<time>2016-10-06T21:06:51Z</time></trkpt>
<trkpt lat="24.755423" lon="105.53895">
<time>2016-10-06T21:06:52Z</time></trkpt>
<trkpt lat="24.755383" lon="105.5389">
<time>2016-10-06T21:06:53Z</time></trkpt>
<trkpt lat="24.755332" lon="105.53885">
<time>2016-10-06T21:06:54Z</time></trkpt>
<trkpt lat="24.755272" lon="105.5388">
<time>2016-10-06T21:06:55Z</time></trkpt>
<trkpt lat="24.755222" lon="105.53875">
<time>2016-10-06T21:06:56Z</time></trkpt>
<trkpt lat="24.755172" lon="105.538699">
<time>2016-10-06T21:06:57Z</time></trkpt>
<trkpt lat="24.755112" lon="105.538659">
<time>2016-10-06T21:06:58Z</time></trkpt>
<trkpt lat="24.755052" lon="105.538629">
<time>2016-10-06T21:06:59Z</time></trkpt>
<trkpt lat="24.755012" lon="105.538609">
<time>2016-10-06T21:07:00Z</time></trkpt>
<trkpt lat="24.754972" lon="105.538589">
<time>2016-10-06T21:07:01Z</time></trkpt>
<trkpt lat="24.754932" lon="105.538579">
<time>2016-10-06T21:07:02Z</time></trkpt>
<trkpt lat="24.754892" lon="105.538559">
<time>2016-10-06T21:07:03Z</time></trkpt>
<trkpt lat="24.754852" lon="105.538549">
<time>2016-10-06T21:07:04Z</time></trkpt>
<trkpt lat="24.754772" lon="105.538519">
<time>2016-10-06T21:07:05Z</time></trkpt>
<trkpt lat="24.754732" lon="105.538509">
<time>2016-10-06T21:07:06Z</time></trkpt>
<trkpt lat="24.754672" lon="105.538489">
<time>2016-10-06T21:07:07Z</time></trkpt>
<trkpt lat="24.754612" lon="105.538459">
<time>2016-10-06T21:07:08Z</time></trkpt>
<trkpt lat="24.754542" lon="105.538429">
<time>2016-10-06T21:07:09Z</time></trkpt>
<trkpt lat="24.754491" lon="105.538399">
<time>2016-10-06T21:07:10Z</time></trkpt>
<trkpt lat="24.754431" lon="105.538359">
<time>2016-10-06T21:07:11Z</time></trkpt>
<trkpt lat="24.754381" lon="105.538319">
<time>2016-10-06T21:07:12Z</time></trkpt>
<trkpt lat="24.754331" lon="105.538279">
<time>2016-10-06T21:07:13Z</time></trkpt>
<trkpt lat="24.754291" lon="105.538229">
<time>2016-10-06T21:07:14Z</time></trkpt>
<trkpt lat="24.754241" lon="105.538158">
<time>2016-10-06T21:07:15Z</time></trkpt>
<trkpt lat="24.754201" lon="105.538088">
<time>2016-10-06T21:07:16Z</time></trkpt>
<trkpt lat="24.754171" lon="105.538008">
<time>2016-10-06T21:07:17Z</time></trkpt>
<trkpt lat="24.75414" lon="105.537918">
<time>2016-10-06T21:07:18Z</time></trkpt>
<trkpt lat="24.75412" lon="105.537828">
<time>2016-10-06T21:07:19Z</time></trkpt>
<trkpt lat="24.7541" lon="105.537738">
<time>2016-10-06T21:07:20Z</time></trkpt>
<trkpt lat="24.75408" lon="105.537648">
<time>2016-10-06T21:07:21Z</time></trkpt>
<trkpt lat="24.75405" lon="105.537557">
<time>2016-10-06T21:07:22Z</time></trkpt>
<trkpt lat="24.754019" lon="105.537447">
<time>2016-10-06T21:07:23Z</time></trkpt>
<trkpt lat="24.753989" lon="105.537337">
<time>2016-10-06T21:07:24Z</time></trkpt>
<trkpt lat="24.753959" lon="105.537227">
<time>2016-10-06T21:07:25Z</time></trkpt>
<trkpt lat="24.753919" lon="105.537116">
<time>2016-10-06T21:07:26Z</time></trkpt>
<trkpt lat="24.753888" lon="105.537006">
<time>2016-10-06T21:07:27Z</time></trkpt>
<trkpt lat="24.753848" lon="105.536896">
<time>2016-10-06T21:07:28Z</time></trkpt>
<trkpt lat="24.753818" lon="105.536786">
<time>2016-10-06T21:07:29Z</time></trkpt>
<trkpt lat="24.753797" lon="105.536676">
<time>2016-10-06T21:07:30Z</time></trkpt>
<trkpt lat="24.753767" lon="105.536545">
<time>2016-10-06T21:07:31Z</time></trkpt>
<trkpt lat="24.753747" lon="105.536405">
<time>2016-10-06T21:07:32Z</time></trkpt>
<trkpt lat="24.753737" lon="105.536275">
<time>2016-10-06T21:07:33Z</time></trkpt>
<trkpt lat="24.753716" lon="105.536135">
<time>2016-10-06T21:07:34Z</time></trkpt>
<trkpt lat="24.753706" lon="105.535994">
<time>2016-10-06T21:07:35Z</time></trkpt>
<trkpt lat="24.753686" lon="105.535864">
<time>2016-10-06T21:07:36Z</time></trkpt>
<trkpt lat="24.753665" lon="105.535724">
<time>2016-10-06T21:07:37Z</time></trkpt>
<trkpt lat="24.753645" lon="105.535593">
<time>2016-10-06T21:07:38Z</time></trkpt>
<trkpt lat="24.753635" lon="105.535513">
<time>2016-10-06T21:07:39Z</time></trkpt>
<trkpt lat="24.753615" lon="105.535443">
<time>2016-10-06T21:07:40Z</time></trkpt>
<trkpt lat="24.753594" lon="105.535373">
<time>2016-10-06T21:07:41Z</time></trkpt>
<trkpt lat="24.753574" lon="105.535303">
<time>2016-10-06T21:07:42Z</time></trkpt>
<trkpt lat="24.753564" lon="105.535243">
<time>2016-10-06T21:07:43Z</time></trkpt>
<trkpt lat="24.753534" lon="105.535173">
<time>2016-10-06T21:07:44Z</time></trkpt>
<trkpt lat="24.753514" lon="105.535103">
<time>2016-10-06T21:07:45Z</time></trkpt>
<trkpt lat="24.753494" lon="105.535032">
<time>2016-10-06T21:07:46Z</time></trkpt>
<trkpt lat="24.753463" lon="105.534942">
<time>2016-10-06T21:07:47Z</time></trkpt>
<trkpt lat="24.753423" lon="105.534852">
<time>2016-10-06T21:07:48Z</time></trkpt>
<trkpt lat="24.753383" lon="105.534762">
<time>2016-10-06T21:07:49Z</time></trkpt>
<trkpt lat="24.753353" lon="105.534672">
<time>2016-10-06T21:07:50Z</time></trkpt>
<trkpt lat="24.753302" lon="105.534581">
<time>2016-10-06T21:07:51Z</time></trkpt>
<trkpt lat="24.753262" lon="105.534501">
<time>2016-10-06T21:07:52Z</time></trkpt>
<trkpt lat="24.753212" lon="105.534411">
<time>2016-10-06T21:07:53Z</time></trkpt>
<trkpt lat="24.753162" lon="105.534331">
<time>2016-10-06T21:07:54Z</time></trkpt>
<trkpt lat="24.753122" lon="105.534281">
<time>2016-10-06T21:07:55Z</time></trkpt>
<trkpt lat="24.753082" lon="105.534231">
<time>2016-10-06T21:07:56Z</time></trkpt>
<trkpt lat="24.753052" lon="105.534181">
<time>2016-10-06T21:07:57Z</time></trkpt>
<trkpt lat="24.753011" lon="105.534131">
<time>2016-10-06T21:07:58Z</time></trkpt>
<trkpt lat="24.752971" lon="105.53408">
<time>2016-10-06T21:07:59Z</time></trkpt>
<trkpt lat="24.752941" lon="105.53403">
<time>2016-10-06T21:08:00Z</time></trkpt>
<trkpt lat="24.752911" lon="105.53397">
<time>2016-10-06T21:08:01Z</time></trkpt>
<trkpt lat="24.752881" lon="105.53392">
<time>2016-10-06T21:08:02Z</time></trkpt>
<trkpt lat="24.752851" lon="105.53386">
<time>2016-10-06T21:08:03Z</time></trkpt>
<trkpt lat="24.752831" lon="105.5338">
<time>2016-10-06T21:08:04Z</time></trkpt>
<trkpt lat="24.75282" lon="105.53374">
<time>2016-10-06T21:08:05Z</time></trkpt>
<trkpt lat="24.75281" lon="105.53368">
<time>2016-10-06T21:08:06Z</time></trkpt>
<trkpt lat="24.7528" lon="105.533609">
<time>2016-10-06T21:08:07Z</time></trkpt>
<trkpt lat="24.75279" lon="105.533549">
<time>2016-10-06T21:08:08Z</time></trkpt>
<trkpt lat="24.75279" lon="105.533489">
<time>2016-10-06T21:08:09Z</time></trkpt>
<trkpt lat="24.75279" lon="105.533419">
<time>2016-10-06T21:08:10Z</time></trkpt>
<trkpt lat="24.75279" lon="105.533369">
<time>2016-10-06T21:08:11Z</time></trkpt>
<trkpt lat="24.752789" lon="105.533329">
<time>2016-10-06T21:08:12Z</time></trkpt>
<trkpt lat="24.752799" lon="105.533279">
<time>2016-10-06T21:08:13Z</time></trkpt>
<trkpt lat="24.752799" lon="105.533239">
<time>2016-10-06T21:08:14Z</time></trkpt>
<trkpt lat="24.752809" lon="105.533189">
<time>2016-10-06T21:08:15Z</time></trkpt>
<trkpt lat="24.752819" lon="105.533098">
<time>2016-10-06T21:08:16Z</time></trkpt>
<trkpt lat="24.752829" lon="105.533048">
<time>2016-10-06T21:08:17Z</time></trkpt>
<trkpt lat="24.752829" lon="105.533008">
<time>2016-10-06T21:08:18Z</time></trkpt>
<trkpt lat="24.752839" lon="105.532958">
<time>2016-10-06T21:08:19Z</time></trkpt>
<trkpt lat="24.752838" lon="105.532918">
<time>2016-10-06T21:08:20Z</time></trkpt>
<trkpt lat="24.752838" lon="105.532878">
<time>2016-10-06T21:08:21Z</time></trkpt>
<trkpt lat="24.752848" lon="105.532828">
<time>2016-10-06T21:08:22Z</time></trkpt>
<trkpt lat="24.752848" lon="105.532788">
<time>2016-10-06T21:08:23Z</time></trkpt>
<trkpt lat="24.752838" lon="105.532738">
<time>2016-10-06T21:08:24Z</time></trkpt>
<trkpt lat="24.752838" lon="105.532698">
<time>2016-10-06T21:08:25Z</time></trkpt>
<trkpt lat="24.752828" lon="105.532647">
<time>2016-10-06T21:08:26Z</time></trkpt>
<trkpt lat="24.752828" lon="105.532597">
<time>2016-10-06T21:08:27Z</time></trkpt>
<trkpt lat="24.752817" lon="105.532537">
<time>2016-10-06T21:08:28Z</time></trkpt>
<trkpt lat="24.752807" lon="105.532487">
<time>2016-10-06T21:08:29Z</time></trkpt>
<trkpt lat="24.752797" lon="105.532437">
<time>2016-10-06T21:08:30Z</time></trkpt>
<trkpt lat="24.752787" lon="105.532387">
<time>2016-10-06T21:08:31Z</time></trkpt>
<trkpt lat="24.752777" lon="105.532337">
<time>2016-10-06T21:08:32Z</time></trkpt>
<trkpt lat="24.752777" lon="105.532287">
<time>2016-10-06T21:08:33Z</time></trkpt>
<trkpt lat="24.752777" lon="105.532237">
<time>2016-10-06T21:08:34Z</time></trkpt>
<trkpt lat="24.752777" lon="105.532197">
<time>2016-10-06T21:08:35Z</time></trkpt>
<trkpt lat="24.752786" lon="105.532106">
<time>2016-10-06T21:08:36Z</time></trkpt>
<trkpt lat="24.752786" lon="105.532066">
<time>2016-10-06T21:08:37Z</time></trkpt>
<trkpt lat="24.752786" lon="105.532016">
<time>2016-10-06T21:08:38Z</time></trkpt>
<trkpt lat="24.752786" lon="105.531976">
<time>2016-10-06T21:08:39Z</time></trkpt>
<trkpt lat="24.752776" lon="105.531936">
<time>2016-10-06T21:08:40Z</time></trkpt>
<trkpt lat="24.752766" lon="105.531896">
<time>2016-10-06T21:08:41Z</time></trkpt>
<trkpt lat="24.752756" lon="105.531846">
<time>2016-10-06T21:08:42Z</time></trkpt>
<trkpt lat="24.752736" lon="105.531806">
<time>2016-10-06T21:08:43Z</time></trkpt>
<trkpt lat="24.752716" lon="105.531766">
<time>2016-10-06T21:08:44Z</time></trkpt>
<trkpt lat="24.752695" lon="105.531726">
<time>2016-10-06T21:08:45Z</time></trkpt>
<trkpt lat="24.752675" lon="105.531685">
<time>2016-10-06T21:08:46Z</time></trkpt>
<trkpt lat="24.752625" lon="105.531605">
<time>2016-10-06T21:08:47Z</time></trkpt>
<trkpt lat="24.752585" lon="105.531535">
<time>2016-10-06T21:08:48Z</time></trkpt>
<trkpt lat="24.752535" lon="105.531465">
<time>2016-10-06T21:08:49Z</time></trkpt>
<trkpt lat="24.752505" lon="105.531385">
<time>2016-10-06T21:08:50Z</time></trkpt>
<trkpt lat="24.752464" lon="105.531315">
<time>2016-10-06T21:08:51Z</time></trkpt>
<trkpt lat="24.752384" lon="105.531164">
<time>2016-10-06T21:08:52Z</time></trkpt>
<trkpt lat="24.752344" lon="105.531094">
<time>2016-10-06T21:08:53Z</time></trkpt>
<trkpt lat="24.752314" lon="105.531024">
<time>2016-10-06T21:08:54Z</time></trkpt>
<trkpt lat="24.752253" lon="105.530924">
<time>2016-10-06T21:08:55Z</time></trkpt>
<trkpt lat="24.752203" lon="105.530824">
<time>2016-10-06T21:08:56Z</time></trkpt>
<trkpt lat="24.752093" lon="105.530633">
<time>2016-10-06T21:08:57Z</time></trkpt>
<trkpt lat="24.752032" lon="105.530533">
<time>2016-10-06T21:08:58Z</time></trkpt>
<trkpt lat="24.751982" lon="105.530433">
<time>2016-10-06T21:08:59Z</time></trkpt>
<trkpt lat="24.751932" lon="105.530333">
<time>2016-10-06T21:09:00Z</time></trkpt>
<trkpt lat="24.751882" lon="105.530232">
<time>2016-10-06T21:09:01Z</time></trkpt>
<trkpt lat="24.751852" lon="105.530172">
<time>2016-10-06T21:09:02Z</time></trkpt>
<trkpt lat="24.751831" lon="105.530112">
<time>2016-10-06T21:09:03Z</time></trkpt>
<trkpt lat="24.751801" lon="105.530042">
<time>2016-10-06T21:09:04Z</time></trkpt>
<trkpt lat="24.751781" lon="105.529982">
<time>2016-10-06T21:09:05Z</time></trkpt>
<trkpt lat="24.751761" lon="105.529912">
<time>2016-10-06T21:09:06Z</time></trkpt>
<trkpt lat="24.751751" lon="105.529852">
<time>2016-10-06T21:09:07Z</time></trkpt>
<trkpt lat="24.751741" lon="105.529781">
<time>2016-10-06T21:09:08Z</time></trkpt>
<trkpt lat="24.75173" lon="105.529711">
<time>2016-10-06T21:09:09Z</time></trkpt>
<trkpt lat="24.75173" lon="105.529651">
<time>2016-10-06T21:09:10Z</time></trkpt>
<trkpt lat="24.75173" lon="105.529591">
<time>2016-10-06T21:09:11Z</time></trkpt>
<trkpt lat="24.75174" lon="105.529531">
<time>2016-10-06T21:09:12Z</time></trkpt>
<trkpt lat="24.75174" lon="105.529461">
<time>2016-10-06T21:09:13Z</time></trkpt>
<trkpt lat="24.75176" lon="105.529401">
<time>2016-10-06T21:09:14Z</time></trkpt>
<trkpt lat="24.751769" lon="105.52934">
<time>2016-10-06T21:09:15Z</time></trkpt>
<trkpt lat="24.751789" lon="105.52928">
<time>2016-10-06T21:09:16Z</time></trkpt>
<trkpt lat="24.751809" lon="105.52922">
<time>2016-10-06T21:09:17Z</time></trkpt>
<trkpt lat="24.751839" lon="105.52913">
<time>2016-10-06T21:09:18Z</time></trkpt>
<trkpt lat="24.751869" lon="105.52905">
<time>2016-10-06T21:09:19Z</time></trkpt>
<trkpt lat="24.751908" lon="105.52897">
<time>2016-10-06T21:09:20Z</time></trkpt>
<trkpt lat="24.751948" lon="105.528889">
<time>2016-10-06T21:09:21Z</time></trkpt>
<trkpt lat="24.751998" lon="105.528809">
<time>2016-10-06T21:09:22Z</time></trkpt>
<trkpt lat="24.752038" lon="105.528739">
<time>2016-10-06T21:09:23Z</time></trkpt>
<trkpt lat="24.752088" lon="105.528659">
<time>2016-10-06T21:09:24Z</time></trkpt>
<trkpt lat="24.752147" lon="105.528589">
<time>2016-10-06T21:09:25Z</time></trkpt>
<trkpt lat="24.752197" lon="105.528529">
<time>2016-10-06T21:09:26Z</time></trkpt>
<trkpt lat="24.752247" lon="105.528469">
<time>2016-10-06T21:09:27Z</time></trkpt>
<trkpt lat="24.752297" lon="105.528408">
<time>2016-10-06T21:09:28Z</time></trkpt>
<trkpt lat="24.752347" lon="105.528348">
<time>2016-10-06T21:09:29Z</time></trkpt>
<trkpt lat="24.752407" lon="105.528288">
<time>2016-10-06T21:09:30Z</time></trkpt>
<trkpt lat="24.752466" lon="105.528228">
<time>2016-10-06T21:09:31Z</time></trkpt>
<trkpt lat="24.752516" lon="105.528168">
<time>2016-10-06T21:09:32Z</time></trkpt>
<trkpt lat="24.752716" lon="105.527967">
<time>2016-10-06T21:09:33Z</time></trkpt>
<trkpt lat="24.752786" lon="105.527897">
<time>2016-10-06T21:09:34Z</time></trkpt>
<trkpt lat="24.752855" lon="105.527827">
<time>2016-10-06T21:09:35Z</time></trkpt>
<trkpt lat="24.752915" lon="105.527757">
<time>2016-10-06T21:09:36Z</time></trkpt>
<trkpt lat="24.752985" lon="105.527687">
<time>2016-10-06T21:09:37Z</time></trkpt>
<trkpt lat="24.753055" lon="105.527617">
<time>2016-10-06T21:09:38Z</time></trkpt>
<trkpt lat="24.753125" lon="105.527556">
<time>2016-10-06T21:09:39Z</time></trkpt>
<trkpt lat="24.753204" lon="105.527486">
<time>2016-10-06T21:09:40Z</time></trkpt>
<trkpt lat="24.753274" lon="105.527426">
<time>2016-10-06T21:09:41Z</time></trkpt>
<trkpt lat="24.753354" lon="105.527366">
<time>2016-10-06T21:09:42Z</time></trkpt>
<trkpt lat="24.753424" lon="105.527296">
<time>2016-10-06T21:09:43Z</time></trkpt>
<trkpt lat="24.753504" lon="105.527236">
<time>2016-10-06T21:09:44Z</time></trkpt>
<trkpt lat="24.753584" lon="105.527166">
<time>2016-10-06T21:09:45Z</time></trkpt>
<trkpt lat="24.753663" lon="105.527085">
<time>2016-10-06T21:09:46Z</time></trkpt>
<trkpt lat="24.753753" lon="105.526995">
<time>2016-10-06T21:09:47Z</time></trkpt>
<trkpt lat="24.753773" lon="105.526965">
<time>2016-10-06T21:09:48Z</time></trkpt>
<trkpt lat="24.753803" lon="105.526945">
<time>2016-10-06T21:09:49Z</time></trkpt>
<trkpt lat="24.753833" lon="105.526915">
<time>2016-10-06T21:09:50Z</time></trkpt>
<trkpt lat="24.753853" lon="105.526895">
<time>2016-10-06T21:09:51Z</time></trkpt>
<trkpt lat="24.753883" lon="105.526875">
<time>2016-10-06T21:09:52Z</time></trkpt>
<trkpt lat="24.753913" lon="105.526865">
<time>2016-10-06T21:09:53Z</time></trkpt>
<trkpt lat="24.753933" lon="105.526855">
<time>2016-10-06T21:09:54Z</time></trkpt>
<trkpt lat="24.753963" lon="105.526855">
<time>2016-10-06T21:09:55Z</time></trkpt>
<trkpt lat="24.753983" lon="105.526865">
<time>2016-10-06T21:09:56Z</time></trkpt>
<trkpt lat="24.753993" lon="105.526875">
<time>2016-10-06T21:09:57Z</time></trkpt>
<trkpt lat="24.754013" lon="105.526885">
<time>2016-10-06T21:09:58Z</time></trkpt>
<trkpt lat="24.754023" lon="105.526895">
<time>2016-10-06T21:09:59Z</time></trkpt>
<trkpt lat="24.754033" lon="105.526915">
<time>2016-10-06T21:10:00Z</time></trkpt>
<trkpt lat="24.754053" lon="105.526925">
<time>2016-10-06T21:10:01Z</time></trkpt>
<trkpt lat="24.754063" lon="105.526945">
<time>2016-10-06T21:10:02Z</time></trkpt>
<trkpt lat="24.754063" lon="105.526965">
<time>2016-10-06T21:10:03Z</time></trkpt>
<trkpt lat="24.754083" lon="105.527005">
<time>2016-10-06T21:10:04Z</time></trkpt>
<trkpt lat="24.754083" lon="105.527045">
<time>2016-10-06T21:10:05Z</time></trkpt>
<trkpt lat="24.754083" lon="105.527085">
<time>2016-10-06T21:10:06Z</time></trkpt>
<trkpt lat="24.754084" lon="105.527135">
<time>2016-10-06T21:10:07Z</time></trkpt>
<trkpt lat="24.754064" lon="105.527176">
<time>2016-10-06T21:10:08Z</time></trkpt>
<trkpt lat="24.754054" lon="105.527226">
<time>2016-10-06T21:10:09Z</time></trkpt>
<trkpt lat="24.754034" lon="105.527266">
<time>2016-10-06T21:10:10Z</time></trkpt>
<trkpt lat="24.754014" lon="105.527306">
<time>2016-10-06T21:10:11Z</time></trkpt>
<trkpt lat="24.753994" lon="105.527376">
<time>2016-10-06T21:10:12Z</time></trkpt>
<trkpt lat="24.753964" lon="105.527436">
<time>2016-10-06T21:10:13Z</time></trkpt>
<trkpt lat="24.753934" lon="105.527496">
<time>2016-10-06T21:10:14Z</time></trkpt>
<trkpt lat="24.753905" lon="105.527556">
<time>2016-10-06T21:10:15Z</time></trkpt>
<trkpt lat="24.753875" lon="105.527617">
<time>2016-10-06T21:10:16Z</time></trkpt>
<trkpt lat="24.753835" lon="105.527677">
<time>2016-10-06T21:10:17Z</time></trkpt>
<trkpt lat="24.753805" lon="105.527747">
<time>2016-10-06T21:10:18Z</time></trkpt>
<trkpt lat="24.753765" lon="105.527817">
<time>2016-10-06T21:10:19Z</time></trkpt>
<trkpt lat="24.753735" lon="105.527857">
<time>2016-10-06T21:10:20Z</time></trkpt>
<trkpt lat="24.753716" lon="105.527897">
<time>2016-10-06T21:10:21Z</time></trkpt>
<trkpt lat="24.753686" lon="105.527947">
<time>2016-10-06T21:10:22Z</time></trkpt>
<trkpt lat="24.753666" lon="105.527987">
<time>2016-10-06T21:10:23Z</time></trkpt>
<trkpt lat="24.753656" lon="105.528038">
<time>2016-10-06T21:10:24Z</time></trkpt>
<trkpt lat="24.753646" lon="105.528078">
<time>2016-10-06T21:10:25Z</time></trkpt>
<trkpt lat="24.753646" lon="105.528118">
<time>2016-10-06T21:10:26Z</time></trkpt>
<trkpt lat="24.753666" lon="105.528148">
<time>2016-10-06T21:10:27Z</time></trkpt>
<trkpt lat="24.753676" lon="105.528168">
<time>2016-10-06T21:10:28Z</time></trkpt>
<trkpt lat="24.753686" lon="105.528188">
<time>2016-10-06T21:10:29Z</time></trkpt>
<trkpt lat="24.753706" lon="105.528198">
<time>2016-10-06T21:10:30Z</time></trkpt>
<trkpt lat="24.753726" lon="105.528208">
<time>2016-10-06T21:10:31Z</time></trkpt>
<trkpt lat="24.753746" lon="105.528218">
<time>2016-10-06T21:10:32Z</time></trkpt>
<trkpt lat="24.753766" lon="105.528228">
<time>2016-10-06T21:10:33Z</time></trkpt>
<trkpt lat="24.753786" lon="105.528238">
<time>2016-10-06T21:10:34Z</time></trkpt>
<trkpt lat="24.753806" lon="105.528238">
<time>2016-10-06T21:10:35Z</time></trkpt>
<trkpt lat="24.753856" lon="105.528248">
<time>2016-10-06T21:10:36Z</time></trkpt>
<trkpt lat="24.753906" lon="105.528228">
<time>2016-10-06T21:10:37Z</time></trkpt>
<trkpt lat="24.753946" lon="105.528208">
<time>2016-10-06T21:10:38Z</time></trkpt>
<trkpt lat="24.753996" lon="105.528178">
<time>2016-10-06T21:10:39Z</time></trkpt>
<trkpt lat="24.754036" lon="105.528138">
<time>2016-10-06T21:10:40Z</time></trkpt>
<trkpt lat="24.754076" lon="105.528098">
<time>2016-10-06T21:10:41Z</time></trkpt>
<trkpt lat="24.754116" lon="105.528058">
<time>2016-10-06T21:10:42Z</time></trkpt>
<trkpt lat="24.754156" lon="105.528007">
<time>2016-10-06T21:10:43Z</time></trkpt>
<trkpt lat="24.754216" lon="105.527917">
<time>2016-10-06T21:10:44Z</time></trkpt>
<trkpt lat="24.754285" lon="105.527837">
<time>2016-10-06T21:10:45Z</time></trkpt>
<trkpt lat="24.754345" lon="105.527757">
<time>2016-10-06T21:10:46Z</time></trkpt>
<trkpt lat="24.754395" lon="105.527667">
<time>2016-10-06T21:10:47Z</time></trkpt>
<trkpt lat="24.754455" lon="105.527586">
<time>2016-10-06T21:10:48Z</time></trkpt>
<trkpt lat="24.754504" lon="105.527506">
<time>2016-10-06T21:10:49Z</time></trkpt>
<trkpt lat="24.754554" lon="105.527416">
<time>2016-10-06T21:10:50Z</time></trkpt>
<trkpt lat="24.754604" lon="105.527336">
<time>2016-10-06T21:10:51Z</time></trkpt>
<trkpt lat="24.754644" lon="105.527256">
<time>2016-10-06T21:10:52Z</time></trkpt>
<trkpt lat="24.754684" lon="105.527186">
<time>2016-10-06T21:10:53Z</time></trkpt>
<trkpt lat="24.754713" lon="105.527105">
<time>2016-10-06T21:10:54Z</time></trkpt>
<trkpt lat="24.754753" lon="105.527025">
<time>2016-10-06T21:10:55Z</time></trkpt>
<trkpt lat="24.754783" lon="105.526945">
<time>2016-10-06T21:10:56Z</time></trkpt>
<trkpt lat="24.754813" lon="105.526865">
<time>2016-10-06T21:10:57Z</time></trkpt>
<trkpt lat="24.754843" lon="105.526785">
<time>2016-10-06T21:10:58Z</time></trkpt>
<trkpt lat="24.754862" lon="105.526704">
<time>2016-10-06T21:10:59Z</time></trkpt>
<trkpt lat="24.754892" lon="105.526614">
<time>2016-10-06T21:11:00Z</time></trkpt>
<trkpt lat="24.754912" lon="105.526524">
<time>2016-10-06T21:11:01Z</time></trkpt>
<trkpt lat="24.754932" lon="105.526424">
<time>2016-10-06T21:11:02Z</time></trkpt>
<trkpt lat="24.754951" lon="105.526334">
<time>2016-10-06T21:11:03Z</time></trkpt>
<trkpt lat="24.754971" lon="105.526243">
<time>2016-10-06T21:11:04Z</time></trkpt>
<trkpt lat="24.755001" lon="105.526153">
<time>2016-10-06T21:11:05Z</time></trkpt>
<trkpt lat="24.755031" lon="105.526063">
<time>2016-10-06T21:11:06Z</time></trkpt>
<trkpt lat="24.75508" lon="105.525973">
<time>2016-10-06T21:11:07Z</time></trkpt>
<trkpt lat="24.75509" lon="105.525943">
<time>2016-10-06T21:11:08Z</time></trkpt>
<trkpt lat="24.75511" lon="105.525913">
<time>2016-10-06T21:11:09Z</time></trkpt>
<trkpt lat="24.75513" lon="105.525883">
<time>2016-10-06T21:11:10Z</time></trkpt>
<trkpt lat="24.75515" lon="105.525863">
<time>2016-10-06T21:11:11Z</time></trkpt>
<trkpt lat="24.75517" lon="105.525843">
<time>2016-10-06T21:11:12Z</time></trkpt>
<trkpt lat="24.75519" lon="105.525822">
<time>2016-10-06T21:11:13Z</time></trkpt>
<trkpt lat="24.75522" lon="105.525802">
<time>2016-10-06T21:11:14Z</time></trkpt>
<trkpt lat="24.75524" lon="105.525792">
<time>2016-10-06T21:11:15Z</time></trkpt>
<trkpt lat="24.75526" lon="105.525792">
<time>2016-10-06T21:11:16Z</time></trkpt>
<trkpt lat="24.75529" lon="105.525782">
<time>2016-10-06T21:11:17Z</time></trkpt>
<trkpt lat="24.75531" lon="105.525782">
<time>2016-10-06T21:11:18Z</time></trkpt>
<trkpt lat="24.75533" lon="105.525782">
<time>2016-10-06T21:11:19Z</time></trkpt>
<trkpt lat="24.75535" lon="105.525792">
<time>2016-10-06T21:11:20Z</time></trkpt>
<trkpt lat="24.75538" lon="105.525792">
<time>2016-10-06T21:11:21Z</time></trkpt>
<trkpt lat="24.7554" lon="105.525802">
<time>2016-10-06T21:11:22Z</time></trkpt>
<trkpt lat="24.75541" lon="105.525812">
<time>2016-10-06T21:11:23Z</time></trkpt>
<trkpt lat="24.75545" lon="105.525843">
<time>2016-10-06T21:11:24Z</time></trkpt>
<trkpt lat="24.75548" lon="105.525893">
<time>2016-10-06T21:11:25Z</time></trkpt>
<trkpt lat="24.75549" lon="105.525943">
<time>2016-10-06T21:11:26Z</time></trkpt>
<trkpt lat="24.7555" lon="105.526003">
<time>2016-10-06T21:11:27Z</time></trkpt>
<trkpt lat="24.755501" lon="105.526063">
<time>2016-10-06T21:11:28Z</time></trkpt>
<trkpt lat="24.755501" lon="105.526133">
<time>2016-10-06T21:11:29Z</time></trkpt>
<trkpt lat="24.755491" lon="105.526203">
<time>2016-10-06T21:11:30Z</time></trkpt>
<trkpt lat="24.755481" lon="105.526273">
<time>2016-10-06T21:11:31Z</time></trkpt>
<trkpt lat="24.755471" lon="105.526404">
<time>2016-10-06T21:11:32Z</time></trkpt>
<trkpt lat="24.755452" lon="105.526524">
<time>2016-10-06T21:11:33Z</time></trkpt>
<trkpt lat="24.755432" lon="105.526634">
<time>2016-10-06T21:11:34Z</time></trkpt>
<trkpt lat="24.755402" lon="105.526745">
<time>2016-10-06T21:11:35Z</time></trkpt>
<trkpt lat="24.755383" lon="105.526855">
<time>2016-10-06T21:11:36Z</time></trkpt>
<trkpt lat="24.755363" lon="105.526955">
<time>2016-10-06T21:11:37Z</time></trkpt>
<trkpt lat="24.755333" lon="105.527065">
<time>2016-10-06T21:11:38Z</time></trkpt>
<trkpt lat="24.755304" lon="105.527166">
<time>2016-10-06T21:11:39Z</time></trkpt>
<trkpt lat="24.755264" lon="105.527286">
<time>2016-10-06T21:11:40Z</time></trkpt>
<trkpt lat="24.755214" lon="105.527406">
<time>2016-10-06T21:11:41Z</time></trkpt>
<trkpt lat="24.755174" lon="105.527536">
<time>2016-10-06T21:11:42Z</time></trkpt>
<trkpt lat="24.755125" lon="105.527657">
<time>2016-10-06T21:11:43Z</time></trkpt>
<trkpt lat="24.755075" lon="105.527777">
<time>2016-10-06T21:11:44Z</time></trkpt>
<trkpt lat="24.755025" lon="105.527907">
<time>2016-10-06T21:11:45Z</time></trkpt>
<trkpt lat="24.754976" lon="105.528017">
<time>2016-10-06T21:11:46Z</time></trkpt>
<trkpt lat="24.754926" lon="105.528138">
<time>2016-10-06T21:11:47Z</time></trkpt>
<trkpt lat="24.754896" lon="105.528208">
<time>2016-10-06T21:11:48Z</time></trkpt>
<trkpt lat="24.754866" lon="105.528268">
<time>2016-10-06T21:11:49Z</time></trkpt>
<trkpt lat="24.754837" lon="105.528338">
<time>2016-10-06T21:11:50Z</time></trkpt>
<trkpt lat="24.754817" lon="105.528408">
<time>2016-10-06T21:11:51Z</time></trkpt>
<trkpt lat="24.754787" lon="105.528478">
<time>2016-10-06T21:11:52Z</time></trkpt>
<trkpt lat="24.754767" lon="105.528549">
<time>2016-10-06T21:11:53Z</time></trkpt>
<trkpt lat="24.754747" lon="105.528629">
<time>2016-10-06T21:11:54Z</time></trkpt>
<trkpt lat="24.754728" lon="105.528719">
<time>2016-10-06T21:11:55Z</time></trkpt>
<trkpt lat="24.754718" lon="105.528759">
<time>2016-10-06T21:11:56Z</time></trkpt>
<trkpt lat="24.754708" lon="105.528799">
<time>2016-10-06T21:11:57Z</time></trkpt>
<trkpt lat="24.754708" lon="105.528849">
<time>2016-10-06T21:11:58Z</time></trkpt>
<trkpt lat="24.754698" lon="105.528889">
<time>2016-10-06T21:11:59Z</time></trkpt>
<trkpt lat="24.754708" lon="105.528929">
<time>2016-10-06T21:12:00Z</time></trkpt>
<trkpt lat="24.754708" lon="105.52896">
<time>2016-10-06T21:12:01Z</time></trkpt>
<trkpt lat="24.754718" lon="105.52899">
<time>2016-10-06T21:12:02Z</time></trkpt>
<trkpt lat="24.754738" lon="105.52901">
<time>2016-10-06T21:12:03Z</time></trkpt>
<trkpt lat="24.754758" lon="105.52903">
<time>2016-10-06T21:12:04Z</time></trkpt>
<trkpt lat="24.754778" lon="105.52903">
<time>2016-10-06T21:12:05Z</time></trkpt>
<trkpt lat="24.754798" lon="105.52904">
<time>2016-10-06T21:12:06Z</time></trkpt>
<trkpt lat="24.754828" lon="105.52904">
<time>2016-10-06T21:12:07Z</time></trkpt>
<trkpt lat="24.754858" lon="105.52904">
<time>2016-10-06T21:12:08Z</time></trkpt>
<trkpt lat="24.754878" lon="105.52904">
<time>2016-10-06T21:12:09Z</time></trkpt>
<trkpt lat="24.754908" lon="105.52904">
<time>2016-10-06T21:12:10Z</time></trkpt>
<trkpt lat="24.754938" lon="105.52903">
<time>2016-10-06T21:12:11Z</time></trkpt>
<trkpt lat="24.754988" lon="105.52902">
<time>2016-10-06T21:12:12Z</time></trkpt>
<trkpt lat="24.755028" lon="105.52901">
<time>2016-10-06T21:12:13Z</time></trkpt>
<trkpt lat="24.755068" lon="105.529">
<time>2016-10-06T21:12:14Z</time></trkpt>
<trkpt lat="24.755108" lon="105.52898">
<time>2016-10-06T21:12:15Z</time></trkpt>
<trkpt lat="24.755148" lon="105.528959">
<time>2016-10-06T21:12:16Z</time></trkpt>
<trkpt lat="24.755188" lon="105.528939">
<time>2016-10-06T21:12:17Z</time></trkpt>
<trkpt lat="24.755218" lon="105.528919">
<time>2016-10-06T21:12:18Z</time></trkpt>
<trkpt lat="24.755258" lon="105.528899">
<time>2016-10-06T21:12:19Z</time></trkpt>
<trkpt lat="24.755318" lon="105.528859">
<time>2016-10-06T21:12:20Z</time></trkpt>
<trkpt lat="24.755368" lon="105.528809">
<time>2016-10-06T21:12:21Z</time></trkpt>
<trkpt lat="24.755418" lon="105.528769">
<time>2016-10-06T21:12:22Z</time></trkpt>
<trkpt lat="24.755468" lon="105.528719">
<time>2016-10-06T21:12:23Z</time></trkpt>
<trkpt lat="24.755517" lon="105.528669">
<time>2016-10-06T21:12:24Z</time></trkpt>
<trkpt lat="24.755567" lon="105.528609">
<time>2016-10-06T21:12:25Z</time></trkpt>
<trkpt lat="24.755617" lon="105.528559">
<time>2016-10-06T21:12:26Z</time></trkpt>
<trkpt lat="24.755657" lon="105.528498">
<time>2016-10-06T21:12:27Z</time></trkpt>
<trkpt lat="24.755717" lon="105.528418">
<time>2016-10-06T21:12:28Z</time></trkpt>
<trkpt lat="24.755767" lon="105.528328">
<time>2016-10-06T21:12:29Z</time></trkpt>
<trkpt lat="24.755806" lon="105.528238">
<time>2016-10-06T21:12:30Z</time></trkpt>
<trkpt lat="24.755856" lon="105.528148">
<time>2016-10-06T21:12:31Z</time></trkpt>
<trkpt lat="24.755886" lon="105.528057">
<time>2016-10-06T21:12:32Z</time></trkpt>
<trkpt lat="24.755926" lon="105.527957">
<time>2016-10-06T21:12:33Z</time></trkpt>
<trkpt lat="24.755955" lon="105.527867">
<time>2016-10-06T21:12:34Z</time></trkpt>
<trkpt lat="24.755985" lon="105.527767">
<time>2016-10-06T21:12:35Z</time></trkpt>
<trkpt lat="24.755995" lon="105.527687">
<time>2016-10-06T21:12:36Z</time></trkpt>
<trkpt lat="24.756015" lon="105.527616">
<time>2016-10-06T21:12:37Z</time></trkpt>
<trkpt lat="24.756034" lon="105.527536">
<time>2016-10-06T21:12:38Z</time></trkpt>
<trkpt lat="24.756044" lon="105.527466">
<time>2016-10-06T21:12:39Z</time></trkpt>
<trkpt lat="24.756064" lon="105.527386">
<time>2016-10-06T21:12:40Z</time></trkpt>
<trkpt lat="24.756084" lon="105.527316">
<time>2016-10-06T21:12:41Z</time></trkpt>
<trkpt lat="24.756114" lon="105.527246">
<time>2016-10-06T21:12:42Z</time></trkpt>
<trkpt lat="24.756133" lon="105.527165">
<time>2016-10-06T21:12:43Z</time></trkpt>
<trkpt lat="24.756163" lon="105.527105">
<time>2016-10-06T21:12:44Z</time></trkpt>
<trkpt lat="24.756193" lon="105.527055">
<time>2016-10-06T21:12:45Z</time></trkpt>
<trkpt lat="24.756223" lon="105.526995">
<time>2016-10-06T21:12:46Z</time></trkpt>
<trkpt lat="24.756253" lon="105.526935">
<time>2016-10-06T21:12:47Z</time></trkpt>
<trkpt lat="24.756293" lon="105.526885">
<time>2016-10-06T21:12:48Z</time></trkpt>
<trkpt lat="24.756333" lon="105.526835">
<time>2016-10-06T21:12:49Z</time></trkpt>
<trkpt lat="24.756372" lon="105.526785">
<time>2016-10-06T21:12:50Z</time></trkpt>
<trkpt lat="24.756412" lon="105.526734">
<time>2016-10-06T21:12:51Z</time></trkpt>
<trkpt lat="24.756452" lon="105.526684">
<time>2016-10-06T21:12:52Z</time></trkpt>
<trkpt lat="24.756492" lon="105.526644">
<time>2016-10-06T21:12:53Z</time></trkpt>
<trkpt lat="24.756532" lon="105.526604">
<time>2016-10-06T21:12:54Z</time></trkpt>
<trkpt lat="24.756572" lon="105.526564">
<time>2016-10-06T21:12:55Z</time></trkpt>
<trkpt lat="24.756622" lon="105.526524">
<time>2016-10-06T21:12:56Z</time></trkpt>
<trkpt lat="24.756662" lon="105.526484">
<time>2016-10-06T21:12:57Z</time></trkpt>
<trkpt lat="24.756712" lon="105.526454">
<time>2016-10-06T21:12:58Z</time></trkpt>
<trkpt lat="24.756761" lon="105.526424">
<time>2016-10-06T21:12:59Z</time></trkpt>
<trkpt lat="24.756811" lon="105.526404">
<time>2016-10-06T21:13:00Z</time></trkpt>
<trkpt lat="24.756851" lon="105.526374">
<time>2016-10-06T21:13:01Z</time></trkpt>
<trkpt lat="24.756901" lon="105.526354">
<time>2016-10-06T21:13:02Z</time></trkpt>
<trkpt lat="24.756941" lon="105.526324">
<time>2016-10-06T21:13:03Z</time></trkpt>
<trkpt lat="24.756981" lon="105.526303">
<time>2016-10-06T21:13:04Z</time></trkpt>
<trkpt lat="24.757031" lon="105.526273">
<time>2016-10-06T21:13:05Z</time></trkpt>
<trkpt lat="24.757061" lon="105.526243">
<time>2016-10-06T21:13:06Z</time></trkpt>
<trkpt lat="24.757101" lon="105.526203">
<time>2016-10-06T21:13:07Z</time></trkpt>
<trkpt lat="24.757131" lon="105.526173">
<time>2016-10-06T21:13:08Z</time></trkpt>
<trkpt lat="24.757161" lon="105.526123">
<time>2016-10-06T21:13:09Z</time></trkpt>
<trkpt lat="24.757191" lon="105.526083">
<time>2016-10-06T21:13:10Z</time></trkpt>
<trkpt lat="24.75721" lon="105.526033">
<time>2016-10-06T21:13:11Z</time></trkpt>
<trkpt lat="24.75723" lon="105.525983">
<time>2016-10-06T21:13:12Z</time></trkpt>
<trkpt lat="24.75725" lon="105.525923">
<time>2016-10-06T21:13:13Z</time></trkpt>
<trkpt lat="24.75726" lon="105.525873">
<time>2016-10-06T21:13:14Z</time></trkpt>
<trkpt lat="24.75728" lon="105.525822">
<time>2016-10-06T21:13:15Z</time></trkpt>
<trkpt lat="24.75729" lon="105.525772">
<time>2016-10-06T21:13:16Z</time></trkpt>
<trkpt lat="24.7573" lon="105.525722">
<time>2016-10-06T21:13:17Z</time></trkpt>
<trkpt lat="24.757309" lon="105.525672">
<time>2016-10-06T21:13:18Z</time></trkpt>
<trkpt lat="24.757319" lon="105.525622">
<time>2016-10-06T21:13:19Z</time></trkpt>
<trkpt lat="24.757329" lon="105.525562">
<time>2016-10-06T21:13:20Z</time></trkpt>
<trkpt lat="24.757339" lon="105.525512">
<time>2016-10-06T21:13:21Z</time></trkpt>
<trkpt lat="24.757339" lon="105.525462">
<time>2016-10-06T21:13:22Z</time></trkpt>
<trkpt lat="24.757339" lon="105.525411">
<time>2016-10-06T21:13:23Z</time></trkpt>
<trkpt lat="24.757339" lon="105.525351">
<time>2016-10-06T21:13:24Z</time></trkpt>
<trkpt lat="24.757338" lon="105.525281">
<time>2016-10-06T21:13:25Z</time></trkpt>
<trkpt lat="24.757338" lon="105.525221">
<time>2016-10-06T21:13:26Z</time></trkpt>
<trkpt lat="24.757338" lon="105.525161">
<time>2016-10-06T21:13:27Z</time></trkpt>
<trkpt lat="24.757338" lon="105.525091">
<time>2016-10-06T21:13:28Z</time></trkpt>
<trkpt lat="24.757348" lon="105.525031">
<time>2016-10-06T21:13:29Z</time></trkpt>
<trkpt lat="24.757358" lon="105.52497">
<time>2016-10-06T21:13:30Z</time></trkpt>
<trkpt lat="24.757367" lon="105.52492">
<time>2016-10-06T21:13:31Z</time></trkpt>
<trkpt lat="24.757387" lon="105.52487">
<time>2016-10-06T21:13:32Z</time></trkpt>
<trkpt lat="24.757407" lon="105.52483">
<time>2016-10-06T21:13:33Z</time></trkpt>
<trkpt lat="24.757427" lon="105.52479">
<time>2016-10-06T21:13:34Z</time></trkpt>
<trkpt lat="24.757447" lon="105.52475">
<time>2016-10-06T21:13:35Z</time></trkpt>
<trkpt lat="24.757467" lon="105.52471">
<time>2016-10-06T21:13:36Z</time></trkpt>
<trkpt lat="24.757487" lon="105.52467">
<time>2016-10-06T21:13:37Z</time></trkpt>
<trkpt lat="24.757497" lon="105.52462">
<time>2016-10-06T21:13:38Z</time></trkpt>
<trkpt lat="24.757516" lon="105.52458">
<time>2016-10-06T21:13:39Z</time></trkpt>
<trkpt lat="24.757526" lon="105.524529">
<time>2016-10-06T21:13:40Z</time></trkpt>
<trkpt lat="24.757536" lon="105.524489">
<time>2016-10-06T21:13:41Z</time></trkpt>
<trkpt lat="24.757536" lon="105.524439">
<time>2016-10-06T21:13:42Z</time></trkpt>
<trkpt lat="24.757536" lon="105.524389">
<time>2016-10-06T21:13:43Z</time></trkpt>
<trkpt lat="24.757526" lon="105.524349">
<time>2016-10-06T21:13:44Z</time></trkpt>
<trkpt lat="24.757516" lon="105.524309">
<time>2016-10-06T21:13:45Z</time></trkpt>
<trkpt lat="24.757506" lon="105.524269">
<time>2016-10-06T21:13:46Z</time></trkpt>
<trkpt lat="24.757486" lon="105.524229">
<time>2016-10-06T21:13:47Z</time></trkpt>
<trkpt lat="24.757455" lon="105.524199">
<time>2016-10-06T21:13:48Z</time></trkpt>
<trkpt lat="24.757425" lon="105.524179">
<time>2016-10-06T21:13:49Z</time></trkpt>
<trkpt lat="24.757385" lon="105.524159">
<time>2016-10-06T21:13:50Z</time></trkpt>
<trkpt lat="24.757345" lon="105.524139">
<time>2016-10-06T21:13:51Z</time></trkpt>
<trkpt lat="24.757295" lon="105.524129">
<time>2016-10-06T21:13:52Z</time></trkpt>
<trkpt lat="24.757255" lon="105.524118">
<time>2016-10-06T21:13:53Z</time></trkpt>
<trkpt lat="24.757205" lon="105.524108">
<time>2016-10-06T21:13:54Z</time></trkpt>
<trkpt lat="24.757165" lon="105.524098">
<time>2016-10-06T21:13:55Z</time></trkpt>
<trkpt lat="24.757105" lon="105.524088">
<time>2016-10-06T21:13:56Z</time></trkpt>
<trkpt lat="24.757055" lon="105.524078">
<time>2016-10-06T21:13:57Z</time></trkpt>
<trkpt lat="24.757005" lon="105.524078">
<time>2016-10-06T21:13:58Z</time></trkpt>
<trkpt lat="24.756955" lon="105.524068">
<time>2016-10-06T21:13:59Z</time></trkpt>
<trkpt lat="24.756905" lon="105.524058">
<time>2016-10-06T21:14:00Z</time></trkpt>
<trkpt lat="24.756855" lon="105.524058">
<time>2016-10-06T21:14:01Z</time></trkpt>
<trkpt lat="24.756805" lon="105.524058">
<time>2016-10-06T21:14:02Z</time></trkpt>
<trkpt lat="24.756755" lon="105.524058">
<time>2016-10-06T21:14:03Z</time></trkpt>
<trkpt lat="24.756705" lon="105.524068">
<time>2016-10-06T21:14:04Z</time></trkpt>
<trkpt lat="24.756655" lon="105.524068">
<time>2016-10-06T21:14:05Z</time></trkpt>
<trkpt lat="24.756595" lon="105.524078">
<time>2016-10-06T21:14:06Z</time></trkpt>
<trkpt lat="24.756545" lon="105.524088">
<time>2016-10-06T21:14:07Z</time></trkpt>
<trkpt lat="24.756495" lon="105.524098">
<time>2016-10-06T21:14:08Z</time></trkpt>
<trkpt lat="24.756445" lon="105.524109">
<time>2016-10-06T21:14:09Z</time></trkpt>
<trkpt lat="24.756335" lon="105.524139">
<time>2016-10-06T21:14:10Z</time></trkpt>
<trkpt lat="24.756275" lon="105.524149">
<time>2016-10-06T21:14:11Z</time></trkpt>
<trkpt lat="24.756215" lon="105.524169">
<time>2016-10-06T21:14:12Z</time></trkpt>
<trkpt lat="24.756046" lon="105.524199">
<time>2016-10-06T21:14:13Z</time></trkpt>
<trkpt lat="24.755986" lon="105.524219">
<time>2016-10-06T21:14:14Z</time></trkpt>
<trkpt lat="24.755926" lon="105.524229">
<time>2016-10-06T21:14:15Z</time></trkpt>
<trkpt lat="24.755866" lon="105.524249">
<time>2016-10-06T21:14:16Z</time></trkpt>
<trkpt lat="24.755806" lon="105.524259">
<time>2016-10-06T21:14:17Z</time></trkpt>
<trkpt lat="24.755746" lon="105.524279">
<time>2016-10-06T21:14:18Z</time></trkpt>
<trkpt lat="24.755686" lon="105.524289">
<time>2016-10-06T21:14:19Z</time></trkpt>
<trkpt lat="24.755626" lon="105.524309">
<time>2016-10-06T21:14:20Z</time></trkpt>
<trkpt lat="24.755566" lon="105.524329">
<time>2016-10-06T21:14:21Z</time></trkpt>
<trkpt lat="24.755506" lon="105.524349">
<time>2016-10-06T21:14:22Z</time></trkpt>
<trkpt lat="24.755446" lon="105.524369">
<time>2016-10-06T21:14:23Z</time></trkpt>
<trkpt lat="24.755386" lon="105.524389">
<time>2016-10-06T21:14:24Z</time></trkpt>
<trkpt lat="24.755306" lon="105.524419">
<time>2016-10-06T21:14:25Z</time></trkpt>
<trkpt lat="24.755236" lon="105.524449">
<time>2016-10-06T21:14:26Z</time></trkpt>
<trkpt lat="24.755156" lon="105.524489">
<time>2016-10-06T21:14:27Z</time></trkpt>
<trkpt lat="24.755076" lon="105.52452">
<time>2016-10-06T21:14:28Z</time></trkpt>
<trkpt lat="24.755007" lon="105.52455">
<time>2016-10-06T21:14:29Z</time></trkpt>
<trkpt lat="24.754927" lon="105.52458">
<time>2016-10-06T21:14:30Z</time></trkpt>
<trkpt lat="24.754847" lon="105.5246">
<time>2016-10-06T21:14:31Z</time></trkpt>
<trkpt lat="24.754777" lon="105.52463">
<time>2016-10-06T21:14:32Z</time></trkpt>
<trkpt lat="24.754727" lon="105.52464">
<time>2016-10-06T21:14:33Z</time></trkpt>
<trkpt lat="24.754677" lon="105.52465">
<time>2016-10-06T21:14:34Z</time></trkpt>
<trkpt lat="24.754637" lon="105.52466">
<time>2016-10-06T21:14:35Z</time></trkpt>
<trkpt lat="24.754537" lon="105.52468">
<time>2016-10-06T21:14:36Z</time></trkpt>
<trkpt lat="24.754497" lon="105.52469">
<time>2016-10-06T21:14:37Z</time></trkpt>
<trkpt lat="24.754447" lon="105.5247">
<time>2016-10-06T21:14:38Z</time></trkpt>
<trkpt lat="24.754397" lon="105.52472">
<time>2016-10-06T21:14:39Z</time></trkpt>
<trkpt lat="24.754347" lon="105.52473">
<time>2016-10-06T21:14:40Z</time></trkpt>
<trkpt lat="24.754287" lon="105.52475">
<time>2016-10-06T21:14:41Z</time></trkpt>
<trkpt lat="24.754237" lon="105.52477">
<time>2016-10-06T21:14:42Z</time></trkpt>
<trkpt lat="24.754177" lon="105.52479">
<time>2016-10-06T21:14:43Z</time></trkpt>
<trkpt lat="24.754127" lon="105.52481">
<time>2016-10-06T21:14:44Z</time></trkpt>
<trkpt lat="24.754077" lon="105.52483">
<time>2016-10-06T21:14:45Z</time></trkpt>
<trkpt lat="24.754017" lon="105.52486">
<time>2016-10-06T21:14:46Z</time></trkpt>
<trkpt lat="24.753968" lon="105.52488">
<time>2016-10-06T21:14:47Z</time></trkpt>
<trkpt lat="24.753918" lon="105.5249">
<time>2016-10-06T21:14:48Z</time></trkpt>
<trkpt lat="24.753868" lon="105.524931">
<time>2016-10-06T21:14:49Z</time></trkpt>
<trkpt lat="24.753818" lon="105.524951">
<time>2016-10-06T21:14:50Z</time></trkpt>
<trkpt lat="24.753778" lon="105.524971">
<time>2016-10-06T21:14:51Z</time></trkpt>
<trkpt lat="24.753728" lon="105.525001">
<time>2016-10-06T21:14:52Z</time></trkpt>
<trkpt lat="24.753678" lon="105.525021">
<time>2016-10-06T21:14:53Z</time></trkpt>
<trkpt lat="24.753638" lon="105.525051">
<time>2016-10-06T21:14:54Z</time></trkpt>
<trkpt lat="24.753588" lon="105.525081">
<time>2016-10-06T21:14:55Z</time></trkpt>
<trkpt lat="24.753528" lon="105.525121">
<time>2016-10-06T21:14:56Z</time></trkpt>
<trkpt lat="24.753468" lon="105.525161">
<time>2016-10-06T21:14:57Z</time></trkpt>
<trkpt lat="24.753408" lon="105.525211">
<time>2016-10-06T21:14:58Z</time></trkpt>
<trkpt lat="24.753349" lon="105.525251">
<time>2016-10-06T21:14:59Z</time></trkpt>
<trkpt lat="24.753289" lon="105.525301">
<time>2016-10-06T21:15:00Z</time></trkpt>
<trkpt lat="24.753219" lon="105.525341">
<time>2016-10-06T21:15:01Z</time></trkpt>
<trkpt lat="24.753159" lon="105.525382">
<time>2016-10-06T21:15:02Z</time></trkpt>
<trkpt lat="24.753099" lon="105.525422">
<time>2016-10-06T21:15:03Z</time></trkpt>
<trkpt lat="24.753039" lon="105.525452">
<time>2016-10-06T21:15:04Z</time></trkpt>
<trkpt lat="24.752989" lon="105.525482">
<time>2016-10-06T21:15:05Z</time></trkpt>
<trkpt lat="24.752929" lon="105.525512">
<time>2016-10-06T21:15:06Z</time></trkpt>
<trkpt lat="24.752869" lon="105.525532">
<time>2016-10-06T21:15:07Z</time></trkpt>
<trkpt lat="24.752809" lon="105.525562">
<time>2016-10-06T21:15:08Z</time></trkpt>
<trkpt lat="24.752749" lon="105.525582">
<time>2016-10-06T21:15:09Z</time></trkpt>
<trkpt lat="24.75269" lon="105.525602">
<time>2016-10-06T21:15:10Z</time></trkpt>
<trkpt lat="24.75263" lon="105.525612">
<time>2016-10-06T21:15:11Z</time></trkpt>
<trkpt lat="24.7526" lon="105.525622">
<time>2016-10-06T21:15:12Z</time></trkpt>
<trkpt lat="24.75257" lon="105.525632">
<time>2016-10-06T21:15:13Z</time></trkpt>
<trkpt lat="24.75254" lon="105.525632">
<time>2016-10-06T21:15:14Z</time></trkpt>
<trkpt lat="24.75251" lon="105.525642">
<time>2016-10-06T21:15:15Z</time></trkpt>
<trkpt lat="24.75248" lon="105.525642">
<time>2016-10-06T21:15:16Z</time></trkpt>
<trkpt lat="24.75245" lon="105.525642">
<time>2016-10-06T21:15:17Z</time></trkpt>
<trkpt lat="24.75242" lon="105.525642">
<time>2016-10-06T21:15:18Z</time></trkpt>
<trkpt lat="24.75239" lon="105.525642">
<time>2016-10-06T21:15:19Z</time></trkpt>
<trkpt lat="24.75234" lon="105.525632">
<time>2016-10-06T21:15:20Z</time></trkpt>
<trkpt lat="24.75228" lon="105.525622">
<time>2016-10-06T21:15:21Z</time></trkpt>
<trkpt lat="24.75223" lon="105.525602">
<time>2016-10-06T21:15:22Z</time></trkpt>
<trkpt lat="24.75218" lon="105.525582">
<time>2016-10-06T21:15:23Z</time></trkpt>
<trkpt lat="24.752129" lon="105.525552">
<time>2016-10-06T21:15:24Z</time></trkpt>
<trkpt lat="24.752079" lon="105.525522">
<time>2016-10-06T21:15:25Z</time></trkpt>
<trkpt lat="24.752039" lon="105.525482">
<time>2016-10-06T21:15:26Z</time></trkpt>
<trkpt lat="24.751999" lon="105.525442">
<time>2016-10-06T21:15:27Z</time></trkpt>
<trkpt lat="24.751969" lon="105.525402">
<time>2016-10-06T21:15:28Z</time></trkpt>
<trkpt lat="24.751939" lon="105.525372">
<time>2016-10-06T21:15:29Z</time></trkpt>
<trkpt lat="24.751919" lon="105.525332">
<time>2016-10-06T21:15:30Z</time></trkpt>
<trkpt lat="24.751899" lon="105.525281">
<time>2016-10-06T21:15:31Z</time></trkpt>
<trkpt lat="24.751869" lon="105.525241">
<time>2016-10-06T21:15:32Z</time></trkpt>
<trkpt lat="24.751849" lon="105.525201">
<time>2016-10-06T21:15:33Z</time></trkpt>
<trkpt lat="24.751828" lon="105.525151">
<time>2016-10-06T21:15:34Z</time></trkpt>
<trkpt lat="24.751808" lon="105.525111">
<time>2016-10-06T21:15:35Z</time></trkpt>
<trkpt lat="24.751798" lon="105.525081">
<time>2016-10-06T21:15:36Z</time></trkpt>
<trkpt lat="24.751788" lon="105.525041">
<time>2016-10-06T21:15:37Z</time></trkpt>
<trkpt lat="24.751768" lon="105.525011">
<time>2016-10-06T21:15:38Z</time></trkpt>
<trkpt lat="24.751758" lon="105.524971">
<time>2016-10-06T21:15:39Z</time></trkpt>
<trkpt lat="24.751748" lon="105.524941">
<time>2016-10-06T21:15:40Z</time></trkpt>
<trkpt lat="24.751738" lon="105.524901">
<time>2016-10-06T21:15:41Z</time></trkpt>
<trkpt lat="24.751728" lon="105.52487">
<time>2016-10-06T21:15:42Z</time></trkpt>
<trkpt lat="24.751718" lon="105.52483">
<time>2016-10-06T21:15:43Z</time></trkpt>
<trkpt lat="24.751717" lon="105.52479">
<time>2016-10-06T21:15:44Z</time></trkpt>
<trkpt lat="24.751717" lon="105.52475">
<time>2016-10-06T21:15:45Z</time></trkpt>
<trkpt lat="24.751717" lon="105.52471">
<time>2016-10-06T21:15:46Z</time></trkpt>
<trkpt lat="24.751717" lon="105.52467">
<time>2016-10-06T21:15:47Z</time></trkpt>
<trkpt lat="24.751727" lon="105.52463">
<time>2016-10-06T21:15:48Z</time></trkpt>
<trkpt lat="24.751727" lon="105.52459">
<time>2016-10-06T21:15:49Z</time></trkpt>
<trkpt lat="24.751737" lon="105.52455">
<time>2016-10-06T21:15:50Z</time></trkpt>
<trkpt lat="24.751747" lon="105.52452">
<time>2016-10-06T21:15:51Z</time></trkpt>
<trkpt lat="24.751767" lon="105.52447">
<time>2016-10-06T21:15:52Z</time></trkpt>
<trkpt lat="24.751796" lon="105.524419">
<time>2016-10-06T21:15:53Z</time></trkpt>
<trkpt lat="24.751816" lon="105.524369">
<time>2016-10-06T21:15:54Z</time></trkpt>
<trkpt lat="24.751856" lon="105.524329">
<time>2016-10-06T21:15:55Z</time></trkpt>
<trkpt lat="24.751886" lon="105.524279">
<time>2016-10-06T21:15:56Z</time></trkpt>
<trkpt lat="24.751966" lon="105.524179">
<time>2016-10-06T21:15:57Z</time></trkpt>
<trkpt lat="24.752006" lon="105.524129">
<time>2016-10-06T21:15:58Z</time></trkpt>
<trkpt lat="24.752045" lon="105.524069">
<time>2016-10-06T21:15:59Z</time></trkpt>
<trkpt lat="24.752085" lon="105.524018">
<time>2016-10-06T21:16:00Z</time></trkpt>
<trkpt lat="24.752115" lon="105.523958">
<time>2016-10-06T21:16:01Z</time></trkpt>
<trkpt lat="24.752155" lon="105.523898">
<time>2016-10-06T21:16:02Z</time></trkpt>
<trkpt lat="24.752175" lon="105.523858">
<time>2016-10-06T21:16:03Z</time></trkpt>
<trkpt lat="24.752175" lon="105.523848">
<time>2016-10-06T21:16:04Z</time></trkpt>
<trkpt lat="24.752195" lon="105.523808">
<time>2016-10-06T21:16:05Z</time></trkpt>
<trkpt lat="24.752205" lon="105.523778">
<time>2016-10-06T21:16:06Z</time></trkpt>
<trkpt lat="24.752195" lon="105.523748">
<time>2016-10-06T21:16:07Z</time></trkpt>
<trkpt lat="24.752185" lon="105.523748">
<time>2016-10-06T21:16:08Z</time></trkpt>
<trkpt lat="24.752155" lon="105.523748">
<time>2016-10-06T21:16:09Z</time></trkpt>
<trkpt lat="24.752115" lon="105.523758">
<time>2016-10-06T21:16:10Z</time></trkpt>
<trkpt lat="24.752075" lon="105.523768">
<time>2016-10-06T21:16:11Z</time></trkpt>
<trkpt lat="24.752025" lon="105.523788">
<time>2016-10-06T21:16:12Z</time></trkpt>
<trkpt lat="24.751965" lon="105.523818">
<time>2016-10-06T21:16:13Z</time></trkpt>
<trkpt lat="24.751915" lon="105.523838">
<time>2016-10-06T21:16:14Z</time></trkpt>
<trkpt lat="24.751875" lon="105.523848">
<time>2016-10-06T21:16:15Z</time></trkpt>
<trkpt lat="24.751855" lon="105.523858">
<time>2016-10-06T21:16:16Z</time></trkpt>
<trkpt lat="24.751825" lon="105.523868">
<time>2016-10-06T21:16:17Z</time></trkpt>
<trkpt lat="24.751805" lon="105.523868">
<time>2016-10-06T21:16:18Z</time></trkpt>
<trkpt lat="24.751785" lon="105.523878">
<time>2016-10-06T21:16:19Z</time></trkpt>
<trkpt lat="24.751765" lon="105.523878">
<time>2016-10-06T21:16:20Z</time></trkpt>
<trkpt lat="24.751745" lon="105.523878">
<time>2016-10-06T21:16:21Z</time></trkpt>
<trkpt lat="24.751735" lon="105.523878">
<time>2016-10-06T21:16:22Z</time></trkpt>
<trkpt lat="24.751725" lon="105.523878">
<time>2016-10-06T21:16:23Z</time></trkpt>
<trkpt lat="24.751715" lon="105.523868">
<time>2016-10-06T21:16:24Z</time></trkpt>
<trkpt lat="24.751715" lon="105.523858">
<time>2016-10-06T21:16:25Z</time></trkpt>
<trkpt lat="24.751715" lon="105.523848">
<time>2016-10-06T21:16:26Z</time></trkpt>
<trkpt lat="24.751715" lon="105.523838">
<time>2016-10-06T21:16:27Z</time></trkpt>
<trkpt lat="24.751725" lon="105.523818">
<time>2016-10-06T21:16:28Z</time></trkpt>
<trkpt lat="24.751725" lon="105.523798">
<time>2016-10-06T21:16:29Z</time></trkpt>
<trkpt lat="24.751735" lon="105.523788">
<time>2016-10-06T21:16:30Z</time></trkpt>
<trkpt lat="24.751745" lon="105.523768">
<time>2016-10-06T21:16:31Z</time></trkpt>
<trkpt lat="24.751755" lon="105.523748">
<time>2016-10-06T21:16:32Z</time></trkpt>
<trkpt lat="24.751784" lon="105.523698">
<time>2016-10-06T21:16:33Z</time></trkpt>
<trkpt lat="24.751814" lon="105.523648">
<time>2016-10-06T21:16:34Z</time></trkpt>
<trkpt lat="24.751854" lon="105.523598">
<time>2016-10-06T21:16:35Z</time></trkpt>
<trkpt lat="24.751884" lon="105.523567">
<time>2016-10-06T21:16:36Z</time></trkpt>
<trkpt lat="24.751914" lon="105.523527">
<time>2016-10-06T21:16:37Z</time></trkpt>
<trkpt lat="24.751954" lon="105.523497">
<time>2016-10-06T21:16:38Z</time></trkpt>
<trkpt lat="24.751994" lon="105.523467">
<time>2016-10-06T21:16:39Z</time></trkpt>
<trkpt lat="24.752024" lon="105.523427">
<time>2016-10-06T21:16:40Z</time></trkpt>
<trkpt lat="24.752074" lon="105.523387">
<time>2016-10-06T21:16:41Z</time></trkpt>
<trkpt lat="24.752123" lon="105.523347">
<time>2016-10-06T21:16:42Z</time></trkpt>
<trkpt lat="24.752173" lon="105.523297">
<time>2016-10-06T21:16:43Z</time></trkpt>
<trkpt lat="24.752223" lon="105.523257">
<time>2016-10-06T21:16:44Z</time></trkpt>
<trkpt lat="24.752273" lon="105.523207">
<time>2016-10-06T21:16:45Z</time></trkpt>
<trkpt lat="24.752323" lon="105.523156">
<time>2016-10-06T21:16:46Z</time></trkpt>
<trkpt lat="24.752363" lon="105.523096">
<time>2016-10-06T21:16:47Z</time></trkpt>
<trkpt lat="24.752413" lon="105.523046">
<time>2016-10-06T21:16:48Z</time></trkpt>
<trkpt lat="24.752443" lon="105.522996">
<time>2016-10-06T21:16:49Z</time></trkpt>
<trkpt lat="24.752512" lon="105.522906">
<time>2016-10-06T21:16:50Z</time></trkpt>
<trkpt lat="24.752542" lon="105.522856">
<time>2016-10-06T21:16:51Z</time></trkpt>
<trkpt lat="24.752572" lon="105.522816">
<time>2016-10-06T21:16:52Z</time></trkpt>
<trkpt lat="24.752612" lon="105.522776">
<time>2016-10-06T21:16:53Z</time></trkpt>
<trkpt lat="24.752652" lon="105.522735">
<time>2016-10-06T21:16:54Z</time></trkpt>
<trkpt lat="24.752692" lon="105.522705">
<time>2016-10-06T21:16:55Z</time></trkpt>
<trkpt lat="24.752732" lon="105.522685">
<time>2016-10-06T21:16:56Z</time></trkpt>
<trkpt lat="24.752772" lon="105.522675">
<time>2016-10-06T21:16:57Z</time></trkpt>
<trkpt lat="24.752812" lon="105.522655">
<time>2016-10-06T21:16:58Z</time></trkpt>
<trkpt lat="24.752852" lon="105.522645">
<time>2016-10-06T21:16:59Z</time></trkpt>
<trkpt lat="24.752892" lon="105.522645">
<time>2016-10-06T21:17:00Z</time></trkpt>
<trkpt lat="24.752931" lon="105.522635">
<time>2016-10-06T21:17:01Z</time></trkpt>
<trkpt lat="24.752981" lon="105.522635">
<time>2016-10-06T21:17:02Z</time></trkpt>
<trkpt lat="24.753022" lon="105.522645">
<time>2016-10-06T21:17:03Z</time></trkpt>
<trkpt lat="24.753082" lon="105.522655">
<time>2016-10-06T21:17:04Z</time></trkpt>
<trkpt lat="24.753132" lon="105.522665">
<time>2016-10-06T21:17:05Z</time></trkpt>
<trkpt lat="24.753192" lon="105.522685">
<time>2016-10-06T21:17:06Z</time></trkpt>
<trkpt lat="24.753242" lon="105.522705">
<time>2016-10-06T21:17:07Z</time></trkpt>
<trkpt lat="24.753302" lon="105.522725">
<time>2016-10-06T21:17:08Z</time></trkpt>
<trkpt lat="24.753352" lon="105.522745">
<time>2016-10-06T21:17:09Z</time></trkpt>
<trkpt lat="24.753412" lon="105.522766">
<time>2016-10-06T21:17:10Z</time></trkpt>
<trkpt lat="24.753462" lon="105.522786">
<time>2016-10-06T21:17:11Z</time></trkpt>
<trkpt lat="24.753502" lon="105.522786">
<time>2016-10-06T21:17:12Z</time></trkpt>
<trkpt lat="24.753542" lon="105.522796">
<time>2016-10-06T21:17:13Z</time></trkpt>
<trkpt lat="24.753582" lon="105.522796">
<time>2016-10-06T21:17:14Z</time></trkpt>
<trkpt lat="24.753612" lon="105.522806">
<time>2016-10-06T21:17:15Z</time></trkpt>
<trkpt lat="24.753652" lon="105.522806">
<time>2016-10-06T21:17:16Z</time></trkpt>
<trkpt lat="24.753692" lon="105.522796">
<time>2016-10-06T21:17:17Z</time></trkpt>
<trkpt lat="24.753732" lon="105.522796">
<time>2016-10-06T21:17:18Z</time></trkpt>
<trkpt lat="24.753772" lon="105.522796">
<time>2016-10-06T21:17:19Z</time></trkpt>
<trkpt lat="24.753812" lon="105.522786">
<time>2016-10-06T21:17:20Z</time></trkpt>
<trkpt lat="24.753852" lon="105.522786">
<time>2016-10-06T21:17:21Z</time></trkpt>
<trkpt lat="24.753892" lon="105.522776">
<time>2016-10-06T21:17:22Z</time></trkpt>
<trkpt lat="24.753932" lon="105.522765">
<time>2016-10-06T21:17:23Z</time></trkpt>
<trkpt lat="24.753962" lon="105.522745">
<time>2016-10-06T21:17:24Z</time></trkpt>
<trkpt lat="24.754002" lon="105.522735">
<time>2016-10-06T21:17:25Z</time></trkpt>
<trkpt lat="24.754032" lon="105.522715">
<time>2016-10-06T21:17:26Z</time></trkpt>
<trkpt lat="24.754062" lon="105.522695">
<time>2016-10-06T21:17:27Z</time></trkpt>
<trkpt lat="24.754101" lon="105.522655">
<time>2016-10-06T21:17:28Z</time></trkpt>
<trkpt lat="24.754131" lon="105.522615">
<time>2016-10-06T21:17:29Z</time></trkpt>
<trkpt lat="24.754161" lon="105.522565">
<time>2016-10-06T21:17:30Z</time></trkpt>
<trkpt lat="24.754191" lon="105.522515">
<time>2016-10-06T21:17:31Z</time></trkpt>
<trkpt lat="24.754211" lon="105.522465">
<time>2016-10-06T21:17:32Z</time></trkpt>
<trkpt lat="24.754231" lon="105.522405">
<time>2016-10-06T21:17:33Z</time></trkpt>
<trkpt lat="24.754241" lon="105.522344">
<time>2016-10-06T21:17:34Z</time></trkpt>
<trkpt lat="24.75426" lon="105.522284">
<time>2016-10-06T21:17:35Z</time></trkpt>
<trkpt lat="24.75428" lon="105.522194">
<time>2016-10-06T21:17:36Z</time></trkpt>
<trkpt lat="24.75429" lon="105.522094">
<time>2016-10-06T21:17:37Z</time></trkpt>
<trkpt lat="24.75431" lon="105.522004">
<time>2016-10-06T21:17:38Z</time></trkpt>
<trkpt lat="24.754319" lon="105.521903">
<time>2016-10-06T21:17:39Z</time></trkpt>
<trkpt lat="24.754329" lon="105.521813">
<time>2016-10-06T21:17:40Z</time></trkpt>
<trkpt lat="24.754349" lon="105.521723">
<time>2016-10-06T21:17:41Z</time></trkpt>
<trkpt lat="24.754359" lon="105.521623">
<time>2016-10-06T21:17:42Z</time></trkpt>
<trkpt lat="24.754378" lon="105.521533">
<time>2016-10-06T21:17:43Z</time></trkpt>
<trkpt lat="24.754388" lon="105.521452">
<time>2016-10-06T21:17:44Z</time></trkpt>
<trkpt lat="24.754408" lon="105.521382">
<time>2016-10-06T21:17:45Z</time></trkpt>
<trkpt lat="24.754428" lon="105.521302">
<time>2016-10-06T21:17:46Z</time></trkpt>
<trkpt lat="24.754448" lon="105.521222">
<time>2016-10-06T21:17:47Z</time></trkpt>
<trkpt lat="24.754477" lon="105.521152">
<time>2016-10-06T21:17:48Z</time></trkpt>
<trkpt lat="24.754507" lon="105.521082">
<time>2016-10-06T21:17:49Z</time></trkpt>
<trkpt lat="24.754537" lon="105.521011">
<time>2016-10-06T21:17:50Z</time></trkpt>
<trkpt lat="24.754577" lon="105.520951">
<time>2016-10-06T21:17:51Z</time></trkpt>
<trkpt lat="24.754617" lon="105.520891">
<time>2016-10-06T21:17:52Z</time></trkpt>
<trkpt lat="24.754646" lon="105.520841">
<time>2016-10-06T21:17:53Z</time></trkpt>
<trkpt lat="24.754686" lon="105.520791">
<time>2016-10-06T21:17:54Z</time></trkpt>
<trkpt lat="24.754776" lon="105.520691">
<time>2016-10-06T21:17:55Z</time></trkpt>
<trkpt lat="24.754816" lon="105.52064">
<time>2016-10-06T21:17:56Z</time></trkpt>
<trkpt lat="24.754846" lon="105.52059">
<time>2016-10-06T21:17:57Z</time></trkpt>
<trkpt lat="24.754886" lon="105.52054">
<time>2016-10-06T21:17:58Z</time></trkpt>
<trkpt lat="24.754925" lon="105.52048">
<time>2016-10-06T21:17:59Z</time></trkpt>
<trkpt lat="24.754955" lon="105.52042">
<time>2016-10-06T21:18:00Z</time></trkpt>
<trkpt lat="24.754995" lon="105.52035">
<time>2016-10-06T21:18:01Z</time></trkpt>
<trkpt lat="24.755055" lon="105.520219">
<time>2016-10-06T21:18:02Z</time></trkpt>
<trkpt lat="24.755084" lon="105.520149">
<time>2016-10-06T21:18:03Z</time></trkpt>
<trkpt lat="24.755124" lon="105.520089">
<time>2016-10-06T21:18:04Z</time></trkpt>
<trkpt lat="24.755164" lon="105.520029">
<time>2016-10-06T21:18:05Z</time></trkpt>
<trkpt lat="24.755194" lon="105.519989">
<time>2016-10-06T21:18:06Z</time></trkpt>
<trkpt lat="24.755224" lon="105.519949">
<time>2016-10-06T21:18:07Z</time></trkpt>
<trkpt lat="24.755244" lon="105.519909">
<time>2016-10-06T21:18:08Z</time></trkpt>
<trkpt lat="24.755274" lon="105.519869">
<time>2016-10-06T21:18:09Z</time></trkpt>
<trkpt lat="24.755304" lon="105.519828">
<time>2016-10-06T21:18:10Z</time></trkpt>
<trkpt lat="24.755323" lon="105.519788">
<time>2016-10-06T21:18:11Z</time></trkpt>
<trkpt lat="24.755343" lon="105.519748">
<time>2016-10-06T21:18:12Z</time></trkpt>
<trkpt lat="24.755363" lon="105.519708">
<time>2016-10-06T21:18:13Z</time></trkpt>
<trkpt lat="24.755373" lon="105.519658">
<time>2016-10-06T21:18:14Z</time></trkpt>
<trkpt lat="24.755383" lon="105.519618">
<time>2016-10-06T21:18:15Z</time></trkpt>
<trkpt lat="24.755383" lon="105.519568">
<time>2016-10-06T21:18:16Z</time></trkpt>
<trkpt lat="24.755383" lon="105.519518">
<time>2016-10-06T21:18:17Z</time></trkpt>
<trkpt lat="24.755383" lon="105.519468">
<time>2016-10-06T21:18:18Z</time></trkpt>
<trkpt lat="24.755382" lon="105.519417">
<time>2016-10-06T21:18:19Z</time></trkpt>
<trkpt lat="24.755382" lon="105.519367">
<time>2016-10-06T21:18:20Z</time></trkpt>
<trkpt lat="24.755382" lon="105.519317">
<time>2016-10-06T21:18:21Z</time></trkpt>
<trkpt lat="24.755382" lon="105.519267">
<time>2016-10-06T21:18:22Z</time></trkpt>
<trkpt lat="24.755382" lon="105.519227">
<time>2016-10-06T21:18:23Z</time></trkpt>
<trkpt lat="24.755392" lon="105.519177">
<time>2016-10-06T21:18:24Z</time></trkpt>
<trkpt lat="24.755392" lon="105.519127">
<time>2016-10-06T21:18:25Z</time></trkpt>
<trkpt lat="24.755382" lon="105.519087">
<time>2016-10-06T21:18:26Z</time></trkpt>
<trkpt lat="24.755381" lon="105.519037">
<time>2016-10-06T21:18:27Z</time></trkpt>
<trkpt lat="24.755371" lon="105.518996">
<time>2016-10-06T21:18:28Z</time></trkpt>
<trkpt lat="24.755351" lon="105.518946">
<time>2016-10-06T21:18:29Z</time></trkpt>
<trkpt lat="24.755341" lon="105.518936">
<time>2016-10-06T21:18:30Z</time></trkpt>
<trkpt lat="24.755341" lon="105.518926">
<time>2016-10-06T21:18:31Z</time></trkpt>
<trkpt lat="24.755331" lon="105.518916">
<time>2016-10-06T21:18:32Z</time></trkpt>
<trkpt lat="24.755321" lon="105.518906">
<time>2016-10-06T21:18:33Z</time></trkpt>
<trkpt lat="24.755311" lon="105.518896">
<time>2016-10-06T21:18:34Z</time></trkpt>
<trkpt lat="24.755301" lon="105.518886">
<time>2016-10-06T21:18:35Z</time></trkpt>
<trkpt lat="24.755291" lon="105.518886">
<time>2016-10-06T21:18:36Z</time></trkpt>
<trkpt lat="24.755281" lon="105.518876">
<time>2016-10-06T21:18:37Z</time></trkpt>
<trkpt lat="24.755261" lon="105.518876">
<time>2016-10-06T21:18:38Z</time></trkpt>
<trkpt lat="24.755241" lon="105.518876">
<time>2016-10-06T21:18:39Z</time></trkpt>
<trkpt lat="24.755221" lon="105.518876">
<time>2016-10-06T21:18:40Z</time></trkpt>
<trkpt lat="24.755201" lon="105.518886">
<time>2016-10-06T21:18:41Z</time></trkpt>
<trkpt lat="24.755181" lon="105.518896">
<time>2016-10-06T21:18:42Z</time></trkpt>
<trkpt lat="24.755161" lon="105.518906">
<time>2016-10-06T21:18:43Z</time></trkpt>
<trkpt lat="24.755141" lon="105.518916">
<time>2016-10-06T21:18:44Z</time></trkpt>
<trkpt lat="24.755081" lon="105.518966">
<time>2016-10-06T21:18:45Z</time></trkpt>
<trkpt lat="24.755021" lon="105.519007">
<time>2016-10-06T21:18:46Z</time></trkpt>
<trkpt lat="24.754971" lon="105.519057">
<time>2016-10-06T21:18:47Z</time></trkpt>
<trkpt lat="24.754932" lon="105.519107">
<time>2016-10-06T21:18:48Z</time></trkpt>
<trkpt lat="24.754882" lon="105.519167">
<time>2016-10-06T21:18:49Z</time></trkpt>
<trkpt lat="24.754842" lon="105.519217">
<time>2016-10-06T21:18:50Z</time></trkpt>
<trkpt lat="24.754802" lon="105.519277">
<time>2016-10-06T21:18:51Z</time></trkpt>
<trkpt lat="24.754762" lon="105.519327">
<time>2016-10-06T21:18:52Z</time></trkpt>
<trkpt lat="24.754712" lon="105.519377">
<time>2016-10-06T21:18:53Z</time></trkpt>
<trkpt lat="24.754663" lon="105.519428">
<time>2016-10-06T21:18:54Z</time></trkpt>
<trkpt lat="24.754613" lon="105.519478">
<time>2016-10-06T21:18:55Z</time></trkpt>
<trkpt lat="24.754563" lon="105.519528">
<time>2016-10-06T21:18:56Z</time></trkpt>
<trkpt lat="24.754503" lon="105.519568">
<time>2016-10-06T21:18:57Z</time></trkpt>
<trkpt lat="24.754453" lon="105.519608">
<time>2016-10-06T21:18:58Z</time></trkpt>
<trkpt lat="24.754393" lon="105.519648">
<time>2016-10-06T21:18:59Z</time></trkpt>
<trkpt lat="24.754333" lon="105.519678">
<time>2016-10-06T21:19:00Z</time></trkpt>
<trkpt lat="24.754263" lon="105.519728">
<time>2016-10-06T21:19:01Z</time></trkpt>
<trkpt lat="24.754104" lon="105.519808">
<time>2016-10-06T21:19:02Z</time></trkpt>
<trkpt lat="24.754024" lon="105.519859">
<time>2016-10-06T21:19:03Z</time></trkpt>
<trkpt lat="24.753954" lon="105.519909">
<time>2016-10-06T21:19:04Z</time></trkpt>
<trkpt lat="24.753874" lon="105.519969">
<time>2016-10-06T21:19:05Z</time></trkpt>
<trkpt lat="24.753794" lon="105.520039">
<time>2016-10-06T21:19:06Z</time></trkpt>
<trkpt lat="24.753705" lon="105.520129">
<time>2016-10-06T21:19:07Z</time></trkpt>
<trkpt lat="24.753675" lon="105.520159">
<time>2016-10-06T21:19:08Z</time></trkpt>
<trkpt lat="24.753645" lon="105.520199">
<time>2016-10-06T21:19:09Z</time></trkpt>
<trkpt lat="24.753615" lon="105.52023">
<time>2016-10-06T21:19:10Z</time></trkpt>
<trkpt lat="24.753595" lon="105.52027">
<time>2016-10-06T21:19:11Z</time></trkpt>
<trkpt lat="24.753565" lon="105.52029">
<time>2016-10-06T21:19:12Z</time></trkpt>
<trkpt lat="24.753545" lon="105.52031">
<time>2016-10-06T21:19:13Z</time></trkpt>
<trkpt lat="24.753515" lon="105.52032">
<time>2016-10-06T21:19:14Z</time></trkpt>
<trkpt lat="24.753505" lon="105.52031">
<time>2016-10-06T21:19:15Z</time></trkpt>
<trkpt lat="24.753485" lon="105.5203">
<time>2016-10-06T21:19:16Z</time></trkpt>
<trkpt lat="24.753475" lon="105.52028">
<time>2016-10-06T21:19:17Z</time></trkpt>
<trkpt lat="24.753465" lon="105.52025">
<time>2016-10-06T21:19:18Z</time></trkpt>
<trkpt lat="24.753465" lon="105.520219">
<time>2016-10-06T21:19:19Z</time></trkpt>
<trkpt lat="24.753465" lon="105.520179">
<time>2016-10-06T21:19:20Z</time></trkpt>
<trkpt lat="24.753455" lon="105.520139">
<time>2016-10-06T21:19:21Z</time></trkpt>
<trkpt lat="24.753464" lon="105.520109">
<time>2016-10-06T21:19:22Z</time></trkpt>
<trkpt lat="24.753464" lon="105.520069">
<time>2016-10-06T21:19:23Z</time></trkpt>
<trkpt lat="24.753474" lon="105.519999">
<time>2016-10-06T21:19:24Z</time></trkpt>
<trkpt lat="24.753494" lon="105.519939">
<time>2016-10-06T21:19:25Z</time></trkpt>
<trkpt lat="24.753524" lon="105.519889">
<time>2016-10-06T21:19:26Z</time></trkpt>
<trkpt lat="24.753554" lon="105.519839">
<time>2016-10-06T21:19:27Z</time></trkpt>
<trkpt lat="24.753594" lon="105.519788">
<time>2016-10-06T21:19:28Z</time></trkpt>
<trkpt lat="24.753633" lon="105.519748">
<time>2016-10-06T21:19:29Z</time></trkpt>
<trkpt lat="24.753673" lon="105.519708">
<time>2016-10-06T21:19:30Z</time></trkpt>
<trkpt lat="24.753713" lon="105.519668">
<time>2016-10-06T21:19:31Z</time></trkpt>
<trkpt lat="24.753753" lon="105.519618">
<time>2016-10-06T21:19:32Z</time></trkpt>
<trkpt lat="24.753803" lon="105.519568">
<time>2016-10-06T21:19:33Z</time></trkpt>
<trkpt lat="24.753853" lon="105.519518">
<time>2016-10-06T21:19:34Z</time></trkpt>
<trkpt lat="24.753893" lon="105.519468">
<time>2016-10-06T21:19:35Z</time></trkpt>
<trkpt lat="24.753932" lon="105.519408">
<time>2016-10-06T21:19:36Z</time></trkpt>
<trkpt lat="24.753972" lon="105.519357">
<time>2016-10-06T21:19:37Z</time></trkpt>
<trkpt lat="24.754012" lon="105.519297">
<time>2016-10-06T21:19:38Z</time></trkpt>
<trkpt lat="24.754052" lon="105.519237">
<time>2016-10-06T21:19:39Z</time></trkpt>
<trkpt lat="24.754092" lon="105.519147">
<time>2016-10-06T21:19:40Z</time></trkpt>
<trkpt lat="24.754132" lon="105.519067">
<time>2016-10-06T21:19:41Z</time></trkpt>
<trkpt lat="24.754161" lon="105.518987">
<time>2016-10-06T21:19:42Z</time></trkpt>
<trkpt lat="24.754201" lon="105.518896">
<time>2016-10-06T21:19:43Z</time></trkpt>
<trkpt lat="24.754231" lon="105.518806">
<time>2016-10-06T21:19:44Z</time></trkpt>
<trkpt lat="24.754271" lon="105.518726">
<time>2016-10-06T21:19:45Z</time></trkpt>
<trkpt lat="24.75432" lon="105.518646">
<time>2016-10-06T21:19:46Z</time></trkpt>
<trkpt lat="24.75437" lon="105.518565">
<time>2016-10-06T21:19:47Z</time></trkpt>
<trkpt lat="24.7544" lon="105.518525">
<time>2016-10-06T21:19:48Z</time></trkpt>
<trkpt lat="24.75444" lon="105.518485">
<time>2016-10-06T21:19:49Z</time></trkpt>
<trkpt lat="24.75447" lon="105.518445">
<time>2016-10-06T21:19:50Z</time></trkpt>
<trkpt lat="24.7545" lon="105.518395">
<time>2016-10-06T21:19:51Z</time></trkpt>
<trkpt lat="24.75453" lon="105.518355">
<time>2016-10-06T21:19:52Z</time></trkpt>
<trkpt lat="24.754559" lon="105.518305">
<time>2016-10-06T21:19:53Z</time></trkpt>
<trkpt lat="24.754579" lon="105.518245">
<time>2016-10-06T21:19:54Z</time></trkpt>
<trkpt lat="24.754589" lon="105.518195">
<time>2016-10-06T21:19:55Z</time></trkpt>
<trkpt lat="24.754589" lon="105.518175">
<time>2016-10-06T21:19:56Z</time></trkpt>
<trkpt lat="24.754589" lon="105.518164">
<time>2016-10-06T21:19:57Z</time></trkpt>
<trkpt lat="24.754589" lon="105.518144">
<time>2016-10-06T21:19:58Z</time></trkpt>
<trkpt lat="24.754589" lon="105.518134">
<time>2016-10-06T21:19:59Z</time></trkpt>
<trkpt lat="24.754589" lon="105.518114">
<time>2016-10-06T21:20:00Z</time></trkpt>
<trkpt lat="24.754579" lon="105.518104">
<time>2016-10-06T21:20:01Z</time></trkpt>
<trkpt lat="24.754579" lon="105.518094">
<time>2016-10-06T21:20:02Z</time></trkpt>
<trkpt lat="24.754569" lon="105.518084">
<time>2016-10-06T21:20:03Z</time></trkpt>
<trkpt lat="24.754559" lon="105.518074">
<time>2016-10-06T21:20:04Z</time></trkpt>
<trkpt lat="24.754549" lon="105.518064">
<time>2016-10-06T21:20:05Z</time></trkpt>
<trkpt lat="24.754539" lon="105.518064">
<time>2016-10-06T21:20:06Z</time></trkpt>
<trkpt lat="24.754529" lon="105.518054">
<time>2016-10-06T21:20:07Z</time></trkpt>
<trkpt lat="24.754509" lon="105.518054">
<time>2016-10-06T21:20:08Z</time></trkpt>
<trkpt lat="24.754499" lon="105.518054">
<time>2016-10-06T21:20:09Z</time></trkpt>
<trkpt lat="24.754489" lon="105.518054">
<time>2016-10-06T21:20:10Z</time></trkpt>
<trkpt lat="24.754469" lon="105.518054">
<time>2016-10-06T21:20:11Z</time></trkpt>
<trkpt lat="24.754439" lon="105.518054">
<time>2016-10-06T21:20:12Z</time></trkpt>
<trkpt lat="24.754409" lon="105.518064">
<time>2016-10-06T21:20:13Z</time></trkpt>
<trkpt lat="24.754379" lon="105.518084">
<time>2016-10-06T21:20:14Z</time></trkpt>
<trkpt lat="24.754349" lon="105.518094">
<time>2016-10-06T21:20:15Z</time></trkpt>
<trkpt lat="24.754329" lon="105.518114">
<time>2016-10-06T21:20:16Z</time></trkpt>
<trkpt lat="24.754299" lon="105.518144">
<time>2016-10-06T21:20:17Z</time></trkpt>
<trkpt lat="24.754249" lon="105.518185">
<time>2016-10-06T21:20:18Z</time></trkpt>
<trkpt lat="24.754189" lon="105.518235">
<time>2016-10-06T21:20:19Z</time></trkpt>
<trkpt lat="24.754129" lon="105.518275">
<time>2016-10-06T21:20:20Z</time></trkpt>
<trkpt lat="24.754059" lon="105.518315">
<time>2016-10-06T21:20:21Z</time></trkpt>
<trkpt lat="24.75399" lon="105.518355">
<time>2016-10-06T21:20:22Z</time></trkpt>
<trkpt lat="24.75392" lon="105.518395">
<time>2016-10-06T21:20:23Z</time></trkpt>
<trkpt lat="24.75391" lon="105.518405">
<time>2016-10-06T21:20:24Z</time></trkpt>
<trkpt lat="24.75385" lon="105.518435">
<time>2016-10-06T21:20:25Z</time></trkpt>
<trkpt lat="24.75377" lon="105.518485">
<time>2016-10-06T21:20:26Z</time></trkpt>
<trkpt lat="24.75369" lon="105.518535">
<time>2016-10-06T21:20:27Z</time></trkpt>
<trkpt lat="24.75362" lon="105.518586">
<time>2016-10-06T21:20:28Z</time></trkpt>
<trkpt lat="24.75359" lon="105.518606">
<time>2016-10-06T21:20:29Z</time></trkpt>
<trkpt lat="24.75356" lon="105.518626">
<time>2016-10-06T21:20:30Z</time></trkpt>
<trkpt lat="24.75353" lon="105.518636">
<time>2016-10-06T21:20:31Z</time></trkpt>
<trkpt lat="24.7535" lon="105.518646">
<time>2016-10-06T21:20:32Z</time></trkpt>
<trkpt lat="24.75347" lon="105.518646">
<time>2016-10-06T21:20:33Z</time></trkpt>
<trkpt lat="24.75345" lon="105.518636">
<time>2016-10-06T21:20:34Z</time></trkpt>
<trkpt lat="24.75344" lon="105.518626">
<time>2016-10-06T21:20:35Z</time></trkpt>
<trkpt lat="24.75343" lon="105.518606">
<time>2016-10-06T21:20:36Z</time></trkpt>
<trkpt lat="24.75341" lon="105.518586">
<time>2016-10-06T21:20:37Z</time></trkpt>
<trkpt lat="24.75341" lon="105.518555">
<time>2016-10-06T21:20:38Z</time></trkpt>
<trkpt lat="24.7534" lon="105.518535">
<time>2016-10-06T21:20:39Z</time></trkpt>
<trkpt lat="24.75339" lon="105.518505">
<time>2016-10-06T21:20:40Z</time></trkpt>
<trkpt lat="24.75339" lon="105.518475">
<time>2016-10-06T21:20:41Z</time></trkpt>
<trkpt lat="24.75339" lon="105.518445">
<time>2016-10-06T21:20:42Z</time></trkpt>
<trkpt lat="24.75339" lon="105.518405">
<time>2016-10-06T21:20:43Z</time></trkpt>
<trkpt lat="24.75339" lon="105.518365">
<time>2016-10-06T21:20:44Z</time></trkpt>
<trkpt lat="24.75339" lon="105.518335">
<time>2016-10-06T21:20:45Z</time></trkpt>
<trkpt lat="24.753389" lon="105.518295">
<time>2016-10-06T21:20:46Z</time></trkpt>
<trkpt lat="24.753399" lon="105.518265">
<time>2016-10-06T21:20:47Z</time></trkpt>
<trkpt lat="24.753399" lon="105.518225">
<time>2016-10-06T21:20:48Z</time></trkpt>
<trkpt lat="24.753409" lon="105.518195">
<time>2016-10-06T21:20:49Z</time></trkpt>
<trkpt lat="24.753409" lon="105.518155">
<time>2016-10-06T21:20:50Z</time></trkpt>
<trkpt lat="24.753409" lon="105.518134">
<time>2016-10-06T21:20:51Z</time></trkpt>
<trkpt lat="24.753399" lon="105.518104">
<time>2016-10-06T21:20:52Z</time></trkpt>
<trkpt lat="24.753399" lon="105.518074">
<time>2016-10-06T21:20:53Z</time></trkpt>
<trkpt lat="24.753399" lon="105.518054">
<time>2016-10-06T21:20:54Z</time></trkpt>
<trkpt lat="24.753389" lon="105.518024">
<time>2016-10-06T21:20:55Z</time></trkpt>
<trkpt lat="24.753379" lon="105.518004">
<time>2016-10-06T21:20:56Z</time></trkpt>
<trkpt lat="24.753369" lon="105.517984">
<time>2016-10-06T21:20:57Z</time></trkpt>
<trkpt lat="24.753358" lon="105.517964">
<time>2016-10-06T21:20:58Z</time></trkpt>
<trkpt lat="24.753338" lon="105.517954">
<time>2016-10-06T21:20:59Z</time></trkpt>
<trkpt lat="24.753318" lon="105.517944">
<time>2016-10-06T21:21:00Z</time></trkpt>
<trkpt lat="24.753298" lon="105.517934">
<time>2016-10-06T21:21:01Z</time></trkpt>
<trkpt lat="24.753278" lon="105.517934">
<time>2016-10-06T21:21:02Z</time></trkpt>
<trkpt lat="24.753258" lon="105.517924">
<time>2016-10-06T21:21:03Z</time></trkpt>
<trkpt lat="24.753238" lon="105.517924">
<time>2016-10-06T21:21:04Z</time></trkpt>
<trkpt lat="24.753208" lon="105.517924">
<time>2016-10-06T21:21:05Z</time></trkpt>
<trkpt lat="24.753188" lon="105.517924">
<time>2016-10-06T21:21:06Z</time></trkpt>
<trkpt lat="24.753158" lon="105.517934">
<time>2016-10-06T21:21:07Z</time></trkpt>
<trkpt lat="24.753128" lon="105.517934">
<time>2016-10-06T21:21:08Z</time></trkpt>
<trkpt lat="24.753098" lon="105.517944">
<time>2016-10-06T21:21:09Z</time></trkpt>
<trkpt lat="24.753078" lon="105.517954">
<time>2016-10-06T21:21:10Z</time></trkpt>
<trkpt lat="24.753048" lon="105.517954">
<time>2016-10-06T21:21:11Z</time></trkpt>
<trkpt lat="24.753018" lon="105.517964">
<time>2016-10-06T21:21:12Z</time></trkpt>
<trkpt lat="24.752988" lon="105.517964">
<time>2016-10-06T21:21:13Z</time></trkpt>
<trkpt lat="24.752968" lon="105.517964">
<time>2016-10-06T21:21:14Z</time></trkpt>
<trkpt lat="24.752929" lon="105.517964">
<time>2016-10-06T21:21:15Z</time></trkpt>
<trkpt lat="24.752888" lon="105.517954">
<time>2016-10-06T21:21:16Z</time></trkpt>
<trkpt lat="24.752858" lon="105.517944">
<time>2016-10-06T21:21:17Z</time></trkpt>
<trkpt lat="24.752818" lon="105.517934">
<time>2016-10-06T21:21:18Z</time></trkpt>
<trkpt lat="24.752788" lon="105.517914">
<time>2016-10-06T21:21:19Z</time></trkpt>
<trkpt lat="24.752748" lon="105.517894">
<time>2016-10-06T21:21:20Z</time></trkpt>
<trkpt lat="24.752718" lon="105.517864">
<time>2016-10-06T21:21:21Z</time></trkpt>
<trkpt lat="24.752678" lon="105.517844">
<time>2016-10-06T21:21:22Z</time></trkpt>
<trkpt lat="24.752618" lon="105.517794">
<time>2016-10-06T21:21:23Z</time></trkpt>
<trkpt lat="24.752558" lon="105.517744">
<time>2016-10-06T21:21:24Z</time></trkpt>
<trkpt lat="24.752498" lon="105.517693">
<time>2016-10-06T21:21:25Z</time></trkpt>
<trkpt lat="24.752438" lon="105.517633">
<time>2016-10-06T21:21:26Z</time></trkpt>
<trkpt lat="24.752387" lon="105.517573">
<time>2016-10-06T21:21:27Z</time></trkpt>
<trkpt lat="24.752337" lon="105.517513">
<time>2016-10-06T21:21:28Z</time></trkpt>
<trkpt lat="24.752287" lon="105.517453">
<time>2016-10-06T21:21:29Z</time></trkpt>
<trkpt lat="24.752237" lon="105.517393">
<time>2016-10-06T21:21:30Z</time></trkpt>
<trkpt lat="24.752187" lon="105.517323">
<time>2016-10-06T21:21:31Z</time></trkpt>
<trkpt lat="24.752147" lon="105.517262">
<time>2016-10-06T21:21:32Z</time></trkpt>
<trkpt lat="24.752096" lon="105.517192">
<time>2016-10-06T21:21:33Z</time></trkpt>
<trkpt lat="24.752056" lon="105.517132">
<time>2016-10-06T21:21:34Z</time></trkpt>
<trkpt lat="24.751966" lon="105.517002">
<time>2016-10-06T21:21:35Z</time></trkpt>
<trkpt lat="24.751926" lon="105.516932">
<time>2016-10-06T21:21:36Z</time></trkpt>
<trkpt lat="24.751875" lon="105.516871">
<time>2016-10-06T21:21:37Z</time></trkpt>
<trkpt lat="24.751825" lon="105.516791">
<time>2016-10-06T21:21:38Z</time></trkpt>
<trkpt lat="24.751765" lon="105.516721">
<time>2016-10-06T21:21:39Z</time></trkpt>
<trkpt lat="24.751715" lon="105.516651">
<time>2016-10-06T21:21:40Z</time></trkpt>
<trkpt lat="24.751655" lon="105.516581">
<time>2016-10-06T21:21:41Z</time></trkpt>
<trkpt lat="24.751584" lon="105.516521">
<time>2016-10-06T21:21:42Z</time></trkpt>
<trkpt lat="24.751524" lon="105.51646">
<time>2016-10-06T21:21:43Z</time></trkpt>
<trkpt lat="24.751444" lon="105.51641">
<time>2016-10-06T21:21:44Z</time></trkpt>
<trkpt lat="24.751374" lon="105.51637">
<time>2016-10-06T21:21:45Z</time></trkpt>
<trkpt lat="24.751324" lon="105.51635">
<time>2016-10-06T21:21:46Z</time></trkpt>
<trkpt lat="24.751284" lon="105.51634">
<time>2016-10-06T21:21:47Z</time></trkpt>
<trkpt lat="24.751234" lon="105.51632">
<time>2016-10-06T21:21:48Z</time></trkpt>
<trkpt lat="24.751194" lon="105.51631">
<time>2016-10-06T21:21:49Z</time></trkpt>
<trkpt lat="24.751144" lon="105.51631">
<time>2016-10-06T21:21:50Z</time></trkpt>
<trkpt lat="24.751104" lon="105.51631">
<time>2016-10-06T21:21:51Z</time></trkpt>
<trkpt lat="24.751054" lon="105.51632">
<time>2016-10-06T21:21:52Z</time></trkpt>
<trkpt lat="24.751014" lon="105.51633">
<time>2016-10-06T21:21:53Z</time></trkpt>
<trkpt lat="24.750974" lon="105.51634">
<time>2016-10-06T21:21:54Z</time></trkpt>
<trkpt lat="24.750934" lon="105.51637">
<time>2016-10-06T21:21:55Z</time></trkpt>
<trkpt lat="24.750904" lon="105.51639">
<time>2016-10-06T21:21:56Z</time></trkpt>
<trkpt lat="24.750864" lon="105.51642">
<time>2016-10-06T21:21:57Z</time></trkpt>
<trkpt lat="24.750834" lon="105.516461">
<time>2016-10-06T21:21:58Z</time></trkpt>
<trkpt lat="24.750794" lon="105.516491">
<time>2016-10-06T21:21:59Z</time></trkpt>
<trkpt lat="24.750765" lon="105.516521">
<time>2016-10-06T21:22:00Z</time></trkpt>
<trkpt lat="24.750725" lon="105.516551">
<time>2016-10-06T21:22:01Z</time></trkpt>
<trkpt lat="24.750675" lon="105.516591">
<time>2016-10-06T21:22:02Z</time></trkpt>
<trkpt lat="24.750625" lon="105.516631">
<time>2016-10-06T21:22:03Z</time></trkpt>
<trkpt lat="24.750575" lon="105.516661">
<time>2016-10-06T21:22:04Z</time></trkpt>
<trkpt lat="24.750525" lon="105.516681">
<time>2016-10-06T21:22:05Z</time></trkpt>
<trkpt lat="24.750475" lon="105.516711">
<time>2016-10-06T21:22:06Z</time></trkpt>
<trkpt lat="24.750415" lon="105.516721">
<time>2016-10-06T21:22:07Z</time></trkpt>
<trkpt lat="24.750365" lon="105.516741">
<time>2016-10-06T21:22:08Z</time></trkpt>
<trkpt lat="24.750305" lon="105.516751">
<time>2016-10-06T21:22:09Z</time></trkpt>
<trkpt lat="24.750265" lon="105.516761">
<time>2016-10-06T21:22:10Z</time></trkpt>
<trkpt lat="24.750225" lon="105.516761">
<time>2016-10-06T21:22:11Z</time></trkpt>
<trkpt lat="24.750185" lon="105.516761">
<time>2016-10-06T21:22:12Z</time></trkpt>
<trkpt lat="24.750145" lon="105.516771">
<time>2016-10-06T21:22:13Z</time></trkpt>
<trkpt lat="24.750105" lon="105.516771">
<time>2016-10-06T21:22:14Z</time></trkpt>
<trkpt lat="24.750065" lon="105.516771">
<time>2016-10-06T21:22:15Z</time></trkpt>
<trkpt lat="24.750025" lon="105.516761">
<time>2016-10-06T21:22:16Z</time></trkpt>
<trkpt lat="24.750015" lon="105.516761">
<time>2016-10-06T21:22:17Z</time></trkpt>
<trkpt lat="24.749925" lon="105.516761">
<time>2016-10-06T21:22:18Z</time></trkpt>
<trkpt lat="24.749865" lon="105.516751">
<time>2016-10-06T21:22:19Z</time></trkpt>
<trkpt lat="24.749805" lon="105.516751">
<time>2016-10-06T21:22:20Z</time></trkpt>
<trkpt lat="24.749745" lon="105.516751">
<time>2016-10-06T21:22:21Z</time></trkpt>
<trkpt lat="24.749685" lon="105.516751">
<time>2016-10-06T21:22:22Z</time></trkpt>
<trkpt lat="24.749625" lon="105.516751">
<time>2016-10-06T21:22:23Z</time></trkpt>
<trkpt lat="24.749565" lon="105.516751">
<time>2016-10-06T21:22:24Z</time></trkpt>
<trkpt lat="24.749505" lon="105.516761">
<time>2016-10-06T21:22:25Z</time></trkpt>
<trkpt lat="24.749455" lon="105.516771">
<time>2016-10-06T21:22:26Z</time></trkpt>
<trkpt lat="24.749395" lon="105.516781">
<time>2016-10-06T21:22:27Z</time></trkpt>
<trkpt lat="24.749345" lon="105.516791">
<time>2016-10-06T21:22:28Z</time></trkpt>
<trkpt lat="24.749295" lon="105.516811">
<time>2016-10-06T21:22:29Z</time></trkpt>
<trkpt lat="24.749246" lon="105.516831">
<time>2016-10-06T21:22:30Z</time></trkpt>
<trkpt lat="24.749196" lon="105.516862">
<time>2016-10-06T21:22:31Z</time></trkpt>
<trkpt lat="24.749146" lon="105.516892">
<time>2016-10-06T21:22:32Z</time></trkpt>
<trkpt lat="24.749106" lon="105.516932">
<time>2016-10-06T21:22:33Z</time></trkpt>
<trkpt lat="24.749076" lon="105.516962">
<time>2016-10-06T21:22:34Z</time></trkpt>
<trkpt lat="24.749066" lon="105.516962">
<time>2016-10-06T21:22:35Z</time></trkpt>
<trkpt lat="24.749036" lon="105.517002">
<time>2016-10-06T21:22:36Z</time></trkpt>
<trkpt lat="24.749006" lon="105.517052">
<time>2016-10-06T21:22:37Z</time></trkpt>
<trkpt lat="24.748986" lon="105.517092">
<time>2016-10-06T21:22:38Z</time></trkpt>
<trkpt lat="24.748956" lon="105.517142">
<time>2016-10-06T21:22:39Z</time></trkpt>
<trkpt lat="24.748937" lon="105.517192">
<time>2016-10-06T21:22:40Z</time></trkpt>
<trkpt lat="24.748907" lon="105.517243">
<time>2016-10-06T21:22:41Z</time></trkpt>
<trkpt lat="24.748887" lon="105.517293">
<time>2016-10-06T21:22:42Z</time></trkpt>
<trkpt lat="24.748867" lon="105.517343">
<time>2016-10-06T21:22:43Z</time></trkpt>
<trkpt lat="24.748847" lon="105.517393">
<time>2016-10-06T21:22:44Z</time></trkpt>
<trkpt lat="24.748827" lon="105.517453">
<time>2016-10-06T21:22:45Z</time></trkpt>
<trkpt lat="24.748807" lon="105.517503">
<time>2016-10-06T21:22:46Z</time></trkpt>
<trkpt lat="24.748788" lon="105.517553">
<time>2016-10-06T21:22:47Z</time></trkpt>
<trkpt lat="24.748768" lon="105.517613">
<time>2016-10-06T21:22:48Z</time></trkpt>
<trkpt lat="24.748758" lon="105.517664">
<time>2016-10-06T21:22:49Z</time></trkpt>
<trkpt lat="24.748738" lon="105.517724">
<time>2016-10-06T21:22:50Z</time></trkpt>
<trkpt lat="24.748728" lon="105.517794">
<time>2016-10-06T21:22:51Z</time></trkpt>
<trkpt lat="24.748719" lon="105.517874">
<time>2016-10-06T21:22:52Z</time></trkpt>
<trkpt lat="24.748709" lon="105.517954">
<time>2016-10-06T21:22:53Z</time></trkpt>
<trkpt lat="24.748699" lon="105.518034">
<time>2016-10-06T21:22:54Z</time></trkpt>
<trkpt lat="24.748679" lon="105.518105">
<time>2016-10-06T21:22:55Z</time></trkpt>
<trkpt lat="24.748669" lon="105.518185">
<time>2016-10-06T21:22:56Z</time></trkpt>
<trkpt lat="24.74864" lon="105.518255">
<time>2016-10-06T21:22:57Z</time></trkpt>
<trkpt lat="24.74861" lon="105.518315">
<time>2016-10-06T21:22:58Z</time></trkpt>
<trkpt lat="24.74859" lon="105.518355">
<time>2016-10-06T21:22:59Z</time></trkpt>
<trkpt lat="24.74856" lon="105.518385">
<time>2016-10-06T21:23:00Z</time></trkpt>
<trkpt lat="24.74854" lon="105.518415">
<time>2016-10-06T21:23:01Z</time></trkpt>
<trkpt lat="24.74851" lon="105.518445">
<time>2016-10-06T21:23:02Z</time></trkpt>
<trkpt lat="24.74848" lon="105.518476">
<time>2016-10-06T21:23:03Z</time></trkpt>
<trkpt lat="24.74844" lon="105.518506">
<time>2016-10-06T21:23:04Z</time></trkpt>
<trkpt lat="24.74841" lon="105.518526">
<time>2016-10-06T21:23:05Z</time></trkpt>
<trkpt lat="24.74838" lon="105.518556">
<time>2016-10-06T21:23:06Z</time></trkpt>
<trkpt lat="24.748341" lon="105.518576">
<time>2016-10-06T21:23:07Z</time></trkpt>
<trkpt lat="24.748311" lon="105.518596">
<time>2016-10-06T21:23:08Z</time></trkpt>
<trkpt lat="24.748271" lon="105.518616">
<time>2016-10-06T21:23:09Z</time></trkpt>
<trkpt lat="24.748241" lon="105.518636">
<time>2016-10-06T21:23:10Z</time></trkpt>
<trkpt lat="24.748201" lon="105.518646">
<time>2016-10-06T21:23:11Z</time></trkpt>
<trkpt lat="24.748171" lon="105.518666">
<time>2016-10-06T21:23:12Z</time></trkpt>
<trkpt lat="24.748131" lon="105.518676">
<time>2016-10-06T21:23:13Z</time></trkpt>
<trkpt lat="24.748091" lon="105.518686">
<time>2016-10-06T21:23:14Z</time></trkpt>
<trkpt lat="24.748041" lon="105.518706">
<time>2016-10-06T21:23:15Z</time></trkpt>
<trkpt lat="24.747981" lon="105.518726">
<time>2016-10-06T21:23:16Z</time></trkpt>
<trkpt lat="24.747921" lon="105.518736">
<time>2016-10-06T21:23:17Z</time></trkpt>
<trkpt lat="24.747861" lon="105.518756">
<time>2016-10-06T21:23:18Z</time></trkpt>
<trkpt lat="24.747801" lon="105.518766">
<time>2016-10-06T21:23:19Z</time></trkpt>
<trkpt lat="24.747681" lon="105.518786">
<time>2016-10-06T21:23:20Z</time></trkpt>
<trkpt lat="24.747621" lon="105.518796">
<time>2016-10-06T21:23:21Z</time></trkpt>
<trkpt lat="24.747551" lon="105.518816">
<time>2016-10-06T21:23:22Z</time></trkpt>
<trkpt lat="24.747481" lon="105.518836">
<time>2016-10-06T21:23:23Z</time></trkpt>
<trkpt lat="24.747411" lon="105.518856">
<time>2016-10-06T21:23:24Z</time></trkpt>
<trkpt lat="24.747351" lon="105.518877">
<time>2016-10-06T21:23:25Z</time></trkpt>
<trkpt lat="24.747292" lon="105.518907">
<time>2016-10-06T21:23:26Z</time></trkpt>
<trkpt lat="24.747242" lon="105.518947">
<time>2016-10-06T21:23:27Z</time></trkpt>
<trkpt lat="24.747192" lon="105.518997">
<time>2016-10-06T21:23:28Z</time></trkpt>
<trkpt lat="24.747182" lon="105.519007">
<time>2016-10-06T21:23:29Z</time></trkpt>
<trkpt lat="24.747162" lon="105.519047">
<time>2016-10-06T21:23:30Z</time></trkpt>
<trkpt lat="24.747152" lon="105.519047">
<time>2016-10-06T21:23:31Z</time></trkpt>
<trkpt lat="24.747132" lon="105.519107">
<time>2016-10-06T21:23:32Z</time></trkpt>
<trkpt lat="24.747112" lon="105.519177">
<time>2016-10-06T21:23:33Z</time></trkpt>
<trkpt lat="24.747102" lon="105.519247">
<time>2016-10-06T21:23:34Z</time></trkpt>
<trkpt lat="24.747093" lon="105.519318">
<time>2016-10-06T21:23:35Z</time></trkpt>
<trkpt lat="24.747073" lon="105.519388">
<time>2016-10-06T21:23:36Z</time></trkpt>
<trkpt lat="24.747053" lon="105.519458">
<time>2016-10-06T21:23:37Z</time></trkpt>
<trkpt lat="24.747033" lon="105.519518">
<time>2016-10-06T21:23:38Z</time></trkpt>
<trkpt lat="24.746993" lon="105.519558">
<time>2016-10-06T21:23:39Z</time></trkpt>
<trkpt lat="24.746973" lon="105.519578">
<time>2016-10-06T21:23:40Z</time></trkpt>
<trkpt lat="24.746953" lon="105.519588">
<time>2016-10-06T21:23:41Z</time></trkpt>
<trkpt lat="24.746933" lon="105.519598">
<time>2016-10-06T21:23:42Z</time></trkpt>
<trkpt lat="24.746913" lon="105.519608">
<time>2016-10-06T21:23:43Z</time></trkpt>
<trkpt lat="24.746884" lon="105.519618">
<time>2016-10-06T21:23:44Z</time></trkpt>
<trkpt lat="24.746864" lon="105.519628">
<time>2016-10-06T21:23:45Z</time></trkpt>
<trkpt lat="24.746834" lon="105.519628">
<time>2016-10-06T21:23:46Z</time></trkpt>
<trkpt lat="24.746814" lon="105.519628">
<time>2016-10-06T21:23:47Z</time></trkpt>
<trkpt lat="24.746764" lon="105.519628">
<time>2016-10-06T21:23:48Z</time></trkpt>
<trkpt lat="24.746714" lon="105.519628">
<time>2016-10-06T21:23:49Z</time></trkpt>
<trkpt lat="24.746674" lon="105.519618">
<time>2016-10-06T21:23:50Z</time></trkpt>
<trkpt lat="24.746623" lon="105.519598">
<time>2016-10-06T21:23:51Z</time></trkpt>
<trkpt lat="24.746583" lon="105.519588">
<time>2016-10-06T21:23:52Z</time></trkpt>
<trkpt lat="24.746533" lon="105.519568">
<time>2016-10-06T21:23:53Z</time></trkpt>
<trkpt lat="24.746493" lon="105.519548">
<time>2016-10-06T21:23:54Z</time></trkpt>
<trkpt lat="24.746443" lon="105.519538">
<time>2016-10-06T21:23:55Z</time></trkpt>
<trkpt lat="24.746393" lon="105.519528">
<time>2016-10-06T21:23:56Z</time></trkpt>
<trkpt lat="24.746343" lon="105.519528">
<time>2016-10-06T21:23:57Z</time></trkpt>
<trkpt lat="24.746293" lon="105.519518">
<time>2016-10-06T21:23:58Z</time></trkpt>
<trkpt lat="24.746243" lon="105.519518">
<time>2016-10-06T21:23:59Z</time></trkpt>
<trkpt lat="24.746193" lon="105.519518">
<time>2016-10-06T21:24:00Z</time></trkpt>
<trkpt lat="24.746143" lon="105.519518">
<time>2016-10-06T21:24:01Z</time></trkpt>
<trkpt lat="24.746093" lon="105.519518">
<time>2016-10-06T21:24:02Z</time></trkpt>
<trkpt lat="24.746043" lon="105.519508">
<time>2016-10-06T21:24:03Z</time></trkpt>
<trkpt lat="24.745983" lon="105.519498">
<time>2016-10-06T21:24:04Z</time></trkpt>
<trkpt lat="24.745933" lon="105.519488">
<time>2016-10-06T21:24:05Z</time></trkpt>
<trkpt lat="24.745883" lon="105.519478">
<time>2016-10-06T21:24:06Z</time></trkpt>
<trkpt lat="24.745833" lon="105.519458">
<time>2016-10-06T21:24:07Z</time></trkpt>
<trkpt lat="24.745783" lon="105.519438">
<time>2016-10-06T21:24:08Z</time></trkpt>
<trkpt lat="24.745743" lon="105.519408">
<time>2016-10-06T21:24:09Z</time></trkpt>
<trkpt lat="24.745693" lon="105.519388">
<time>2016-10-06T21:24:10Z</time></trkpt>
<trkpt lat="24.745653" lon="105.519358">
<time>2016-10-06T21:24:11Z</time></trkpt>
<trkpt lat="24.745613" lon="105.519328">
<time>2016-10-06T21:24:12Z</time></trkpt>
<trkpt lat="24.745573" lon="105.519308">
<time>2016-10-06T21:24:13Z</time></trkpt>
<trkpt lat="24.745543" lon="105.519278">
<time>2016-10-06T21:24:14Z</time></trkpt>
<trkpt lat="24.745513" lon="105.519248">
<time>2016-10-06T21:24:15Z</time></trkpt>
<trkpt lat="24.745482" lon="105.519217">
<time>2016-10-06T21:24:16Z</time></trkpt>
<trkpt lat="24.745452" lon="105.519187">
<time>2016-10-06T21:24:17Z</time></trkpt>
<trkpt lat="24.745432" lon="105.519167">
<time>2016-10-06T21:24:18Z</time></trkpt>
<trkpt lat="24.745422" lon="105.519157">
<time>2016-10-06T21:24:19Z</time></trkpt>
<trkpt lat="24.745392" lon="105.519117">
<time>2016-10-06T21:24:20Z</time></trkpt>
<trkpt lat="24.745372" lon="105.519087">
<time>2016-10-06T21:24:21Z</time></trkpt>
<trkpt lat="24.745352" lon="105.519047">
<time>2016-10-06T21:24:22Z</time></trkpt>
<trkpt lat="24.745332" lon="105.519017">
<time>2016-10-06T21:24:23Z</time></trkpt>
<trkpt lat="24.745322" lon="105.518977">
<time>2016-10-06T21:24:24Z</time></trkpt>
<trkpt lat="24.745302" lon="105.518937">
<time>2016-10-06T21:24:25Z</time></trkpt>
<trkpt lat="24.745292" lon="105.518897">
<time>2016-10-06T21:24:26Z</time></trkpt>
<trkpt lat="24.745282" lon="105.518867">
<time>2016-10-06T21:24:27Z</time></trkpt>
<trkpt lat="24.745271" lon="105.518827">
<time>2016-10-06T21:24:28Z</time></trkpt>
<trkpt lat="24.745271" lon="105.518786">
<time>2016-10-06T21:24:29Z</time></trkpt>
<trkpt lat="24.745271" lon="105.518756">
<time>2016-10-06T21:24:30Z</time></trkpt>
<trkpt lat="24.745271" lon="105.518726">
<time>2016-10-06T21:24:31Z</time></trkpt>
<trkpt lat="24.745271" lon="105.518696">
<time>2016-10-06T21:24:32Z</time></trkpt>
<trkpt lat="24.745281" lon="105.518666">
<time>2016-10-06T21:24:33Z</time></trkpt>
<trkpt lat="24.745281" lon="105.518636">
<time>2016-10-06T21:24:34Z</time></trkpt>
<trkpt lat="24.745291" lon="105.518596">
<time>2016-10-06T21:24:35Z</time></trkpt>
<trkpt lat="24.745301" lon="105.518566">
<time>2016-10-06T21:24:36Z</time></trkpt>
<trkpt lat="24.74532" lon="105.518486">
<time>2016-10-06T21:24:37Z</time></trkpt>
<trkpt lat="24.74536" lon="105.518406">
<time>2016-10-06T21:24:38Z</time></trkpt>
<trkpt lat="24.7454" lon="105.518325">
<time>2016-10-06T21:24:39Z</time></trkpt>
<trkpt lat="24.74545" lon="105.518245">
<time>2016-10-06T21:24:40Z</time></trkpt>
<trkpt lat="24.7455" lon="105.518175">
<time>2016-10-06T21:24:41Z</time></trkpt>
<trkpt lat="24.745559" lon="105.518105">
<time>2016-10-06T21:24:42Z</time></trkpt>
<trkpt lat="24.745619" lon="105.518045">
<time>2016-10-06T21:24:43Z</time></trkpt>
<trkpt lat="24.745679" lon="105.517974">
<time>2016-10-06T21:24:44Z</time></trkpt>
<trkpt lat="24.745749" lon="105.517904">
<time>2016-10-06T21:24:45Z</time></trkpt>
<trkpt lat="24.745819" lon="105.517844">
<time>2016-10-06T21:24:46Z</time></trkpt>
<trkpt lat="24.745888" lon="105.517774">
<time>2016-10-06T21:24:47Z</time></trkpt>
<trkpt lat="24.745958" lon="105.517714">
<time>2016-10-06T21:24:48Z</time></trkpt>
<trkpt lat="24.746028" lon="105.517654">
<time>2016-10-06T21:24:49Z</time></trkpt>
<trkpt lat="24.746098" lon="105.517583">
<time>2016-10-06T21:24:50Z</time></trkpt>
<trkpt lat="24.746168" lon="105.517523">
<time>2016-10-06T21:24:51Z</time></trkpt>
<trkpt lat="24.746307" lon="105.517403">
<time>2016-10-06T21:24:52Z</time></trkpt>
<trkpt lat="24.746377" lon="105.517353">
<time>2016-10-06T21:24:53Z</time></trkpt>
<trkpt lat="24.746437" lon="105.517293">
<time>2016-10-06T21:24:54Z</time></trkpt>
<trkpt lat="24.746467" lon="105.517263">
<time>2016-10-06T21:24:55Z</time></trkpt>
<trkpt lat="24.746497" lon="105.517233">
<time>2016-10-06T21:24:56Z</time></trkpt>
<trkpt lat="24.746557" lon="105.517172">
<time>2016-10-06T21:24:57Z</time></trkpt>
<trkpt lat="24.746616" lon="105.517102">
<time>2016-10-06T21:24:58Z</time></trkpt>
<trkpt lat="24.746656" lon="105.517032">
<time>2016-10-06T21:24:59Z</time></trkpt>
<trkpt lat="24.746696" lon="105.516952">
<time>2016-10-06T21:25:00Z</time></trkpt>
<trkpt lat="24.746726" lon="105.516902">
<time>2016-10-06T21:25:01Z</time></trkpt>
<trkpt lat="24.746746" lon="105.516852">
<time>2016-10-06T21:25:02Z</time></trkpt>
<trkpt lat="24.746756" lon="105.516792">
<time>2016-10-06T21:25:03Z</time></trkpt>
<trkpt lat="24.746775" lon="105.516741">
<time>2016-10-06T21:25:04Z</time></trkpt>
<trkpt lat="24.746785" lon="105.516681">
<time>2016-10-06T21:25:05Z</time></trkpt>
<trkpt lat="24.746795" lon="105.516621">
<time>2016-10-06T21:25:06Z</time></trkpt>
<trkpt lat="24.746825" lon="105.516511">
<time>2016-10-06T21:25:07Z</time></trkpt>
<trkpt lat="24.746835" lon="105.516451">
<time>2016-10-06T21:25:08Z</time></trkpt>
<trkpt lat="24.746864" lon="105.51632">
<time>2016-10-06T21:25:09Z</time></trkpt>
<trkpt lat="24.746874" lon="105.51626">
<time>2016-10-06T21:25:10Z</time></trkpt>
<trkpt lat="24.746884" lon="105.51619">
<time>2016-10-06T21:25:11Z</time></trkpt>
<trkpt lat="24.746894" lon="105.51613">
<time>2016-10-06T21:25:12Z</time></trkpt>
<trkpt lat="24.746903" lon="105.51607">
<time>2016-10-06T21:25:13Z</time></trkpt>
<trkpt lat="24.746913" lon="105.516">
<time>2016-10-06T21:25:14Z</time></trkpt>
<trkpt lat="24.746913" lon="105.515929">
<time>2016-10-06T21:25:15Z</time></trkpt>
<trkpt lat="24.746913" lon="105.515849">
<time>2016-10-06T21:25:16Z</time></trkpt>
<trkpt lat="24.746923" lon="105.515779">
<time>2016-10-06T21:25:17Z</time></trkpt>
<trkpt lat="24.746922" lon="105.515699">
<time>2016-10-06T21:25:18Z</time></trkpt>
<trkpt lat="24.746922" lon="105.515629">
<time>2016-10-06T21:25:19Z</time></trkpt>
<trkpt lat="24.746932" lon="105.515558">
<time>2016-10-06T21:25:20Z</time></trkpt>
<trkpt lat="24.746942" lon="105.515488">
<time>2016-10-06T21:25:21Z</time></trkpt>
<trkpt lat="24.746962" lon="105.515418">
<time>2016-10-06T21:25:22Z</time></trkpt>
<trkpt lat="24.746971" lon="105.515368">
<time>2016-10-06T21:25:23Z</time></trkpt>
<trkpt lat="24.746991" lon="105.515328">
<time>2016-10-06T21:25:24Z</time></trkpt>
<trkpt lat="24.747021" lon="105.515288">
<time>2016-10-06T21:25:25Z</time></trkpt>
<trkpt lat="24.747041" lon="105.515248">
<time>2016-10-06T21:25:26Z</time></trkpt>
<trkpt lat="24.747071" lon="105.515208">
<time>2016-10-06T21:25:27Z</time></trkpt>
<trkpt lat="24.747091" lon="105.515167">
<time>2016-10-06T21:25:28Z</time></trkpt>
<trkpt lat="24.747121" lon="105.515127">
<time>2016-10-06T21:25:29Z</time></trkpt>
<trkpt lat="24.747151" lon="105.515087">
<time>2016-10-06T21:25:30Z</time></trkpt>
<trkpt lat="24.747181" lon="105.515057">
<time>2016-10-06T21:25:31Z</time></trkpt>
<trkpt lat="24.7472" lon="105.515027">
<time>2016-10-06T21:25:32Z</time></trkpt>
<trkpt lat="24.74723" lon="105.514997">
<time>2016-10-06T21:25:33Z</time></trkpt>
<trkpt lat="24.74725" lon="105.514977">
<time>2016-10-06T21:25:34Z</time></trkpt>
<trkpt lat="24.74728" lon="105.514947">
<time>2016-10-06T21:25:35Z</time></trkpt>
<trkpt lat="24.74731" lon="105.514927">
<time>2016-10-06T21:25:36Z</time></trkpt>
<trkpt lat="24.74734" lon="105.514907">
<time>2016-10-06T21:25:37Z</time></trkpt>
<trkpt lat="24.74737" lon="105.514887">
<time>2016-10-06T21:25:38Z</time></trkpt>
<trkpt lat="24.7474" lon="105.514887">
<time>2016-10-06T21:25:39Z</time></trkpt>
<trkpt lat="24.74742" lon="105.514877">
<time>2016-10-06T21:25:40Z</time></trkpt>
<trkpt lat="24.74745" lon="105.514867">
<time>2016-10-06T21:25:41Z</time></trkpt>
<trkpt lat="24.74748" lon="105.514867">
<time>2016-10-06T21:25:42Z</time></trkpt>
<trkpt lat="24.74751" lon="105.514857">
<time>2016-10-06T21:25:43Z</time></trkpt>
<trkpt lat="24.74754" lon="105.514857">
<time>2016-10-06T21:25:44Z</time></trkpt>
<trkpt lat="24.74756" lon="105.514847">
<time>2016-10-06T21:25:45Z</time></trkpt>
<trkpt lat="24.74759" lon="105.514837">
<time>2016-10-06T21:25:46Z</time></trkpt>
<trkpt lat="24.74761" lon="105.514817">
<time>2016-10-06T21:25:47Z</time></trkpt>
<trkpt lat="24.74764" lon="105.514787">
<time>2016-10-06T21:25:48Z</time></trkpt>
<trkpt lat="24.74766" lon="105.514766">
<time>2016-10-06T21:25:49Z</time></trkpt>
<trkpt lat="24.74767" lon="105.514736">
<time>2016-10-06T21:25:50Z</time></trkpt>
<trkpt lat="24.74769" lon="105.514696">
<time>2016-10-06T21:25:51Z</time></trkpt>
<trkpt lat="24.747699" lon="105.514666">
<time>2016-10-06T21:25:52Z</time></trkpt>
<trkpt lat="24.747709" lon="105.514626">
<time>2016-10-06T21:25:53Z</time></trkpt>
<trkpt lat="24.747719" lon="105.514596">
<time>2016-10-06T21:25:54Z</time></trkpt>
<trkpt lat="24.747719" lon="105.514546">
<time>2016-10-06T21:25:55Z</time></trkpt>
<trkpt lat="24.747729" lon="105.514486">
<time>2016-10-06T21:25:56Z</time></trkpt>
<trkpt lat="24.747729" lon="105.514436">
<time>2016-10-06T21:25:57Z</time></trkpt>
<trkpt lat="24.747719" lon="105.514396">
<time>2016-10-06T21:25:58Z</time></trkpt>
<trkpt lat="24.747708" lon="105.514345">
<time>2016-10-06T21:25:59Z</time></trkpt>
<trkpt lat="24.747698" lon="105.514295">
<time>2016-10-06T21:26:00Z</time></trkpt>
<trkpt lat="24.747678" lon="105.514245">
<time>2016-10-06T21:26:01Z</time></trkpt>
<trkpt lat="24.747668" lon="105.514205">
<time>2016-10-06T21:26:02Z</time></trkpt>
<trkpt lat="24.747628" lon="105.514125">
<time>2016-10-06T21:26:03Z</time></trkpt>
<trkpt lat="24.747578" lon="105.514045">
<time>2016-10-06T21:26:04Z</time></trkpt>
<trkpt lat="24.747527" lon="105.513975">
<time>2016-10-06T21:26:05Z</time></trkpt>
<trkpt lat="24.747467" lon="105.513904">
<time>2016-10-06T21:26:06Z</time></trkpt>
<trkpt lat="24.747407" lon="105.513844">
<time>2016-10-06T21:26:07Z</time></trkpt>
<trkpt lat="24.747337" lon="105.513774">
<time>2016-10-06T21:26:08Z</time></trkpt>
<trkpt lat="24.747277" lon="105.513714">
<time>2016-10-06T21:26:09Z</time></trkpt>
<trkpt lat="24.747217" lon="105.513644">
<time>2016-10-06T21:26:10Z</time></trkpt>
<trkpt lat="24.747156" lon="105.513584">
<time>2016-10-06T21:26:11Z</time></trkpt>
<trkpt lat="24.747096" lon="105.513523">
<time>2016-10-06T21:26:12Z</time></trkpt>
<trkpt lat="24.746986" lon="105.513403">
<time>2016-10-06T21:26:13Z</time></trkpt>
<trkpt lat="24.746926" lon="105.513343">
<time>2016-10-06T21:26:14Z</time></trkpt>
<trkpt lat="24.746875" lon="105.513283">
<time>2016-10-06T21:26:15Z</time></trkpt>
<trkpt lat="24.746815" lon="105.513223">
<time>2016-10-06T21:26:16Z</time></trkpt>
<trkpt lat="24.746755" lon="105.513173">
<time>2016-10-06T21:26:17Z</time></trkpt>
<trkpt lat="24.746685" lon="105.513092">
<time>2016-10-06T21:26:18Z</time></trkpt>
<trkpt lat="24.746605" lon="105.513022">
<time>2016-10-06T21:26:19Z</time></trkpt>
<trkpt lat="24.746525" lon="105.512952">
<time>2016-10-06T21:26:20Z</time></trkpt>
<trkpt lat="24.746444" lon="105.512892">
<time>2016-10-06T21:26:21Z</time></trkpt>
<trkpt lat="24.746364" lon="105.512822">
<time>2016-10-06T21:26:22Z</time></trkpt>
<trkpt lat="24.746294" lon="105.512751">
<time>2016-10-06T21:26:23Z</time></trkpt>
<trkpt lat="24.746214" lon="105.512671">
<time>2016-10-06T21:26:24Z</time></trkpt>
<trkpt lat="24.746144" lon="105.512601">
<time>2016-10-06T21:26:25Z</time></trkpt>
<trkpt lat="24.746103" lon="105.512541">
<time>2016-10-06T21:26:26Z</time></trkpt>
<trkpt lat="24.746053" lon="105.512491">
<time>2016-10-06T21:26:27Z</time></trkpt>
<trkpt lat="24.746013" lon="105.512431">
<time>2016-10-06T21:26:28Z</time></trkpt>
<trkpt lat="24.745973" lon="105.512381">
<time>2016-10-06T21:26:29Z</time></trkpt>
<trkpt lat="24.745933" lon="105.51232">
<time>2016-10-06T21:26:30Z</time></trkpt>
<trkpt lat="24.745893" lon="105.51226">
<time>2016-10-06T21:26:31Z</time></trkpt>
<trkpt lat="24.745852" lon="105.51219">
<time>2016-10-06T21:26:32Z</time></trkpt>
<trkpt lat="24.745822" lon="105.51213">
<time>2016-10-06T21:26:33Z</time></trkpt>
<trkpt lat="24.745792" lon="105.51207">
<time>2016-10-06T21:26:34Z</time></trkpt>
<trkpt lat="24.745762" lon="105.51202">
<time>2016-10-06T21:26:35Z</time></trkpt>
<trkpt lat="24.745742" lon="105.51196">
<time>2016-10-06T21:26:36Z</time></trkpt>
<trkpt lat="24.745712" lon="105.511899">
<time>2016-10-06T21:26:37Z</time></trkpt>
<trkpt lat="24.745691" lon="105.511839">
<time>2016-10-06T21:26:38Z</time></trkpt>
<trkpt lat="24.745681" lon="105.511779">
<time>2016-10-06T21:26:39Z</time></trkpt>
<trkpt lat="24.745671" lon="105.511719">
<time>2016-10-06T21:26:40Z</time></trkpt>
<trkpt lat="24.745661" lon="105.511649">
<time>2016-10-06T21:26:41Z</time></trkpt>
<trkpt lat="24.745661" lon="105.511569">
<time>2016-10-06T21:26:42Z</time></trkpt>
<trkpt lat="24.74567" lon="105.511478">
<time>2016-10-06T21:26:43Z</time></trkpt>
<trkpt lat="24.74569" lon="105.511388">
<time>2016-10-06T21:26:44Z</time></trkpt>
<trkpt lat="24.74571" lon="105.511298">
<time>2016-10-06T21:26:45Z</time></trkpt>
<trkpt lat="24.74574" lon="105.511208">
<time>2016-10-06T21:26:46Z</time></trkpt>
<trkpt lat="24.745769" lon="105.511127">
<time>2016-10-06T21:26:47Z</time></trkpt>
<trkpt lat="24.745789" lon="105.511037">
<time>2016-10-06T21:26:48Z</time></trkpt>
<trkpt lat="24.745819" lon="105.510947">
<time>2016-10-06T21:26:49Z</time></trkpt>
<trkpt lat="24.745829" lon="105.510887">
<time>2016-10-06T21:26:50Z</time></trkpt>
<trkpt lat="24.745838" lon="105.510827">
<time>2016-10-06T21:26:51Z</time></trkpt>
<trkpt lat="24.745848" lon="105.510767">
<time>2016-10-06T21:26:52Z</time></trkpt>
<trkpt lat="24.745858" lon="105.510706">
<time>2016-10-06T21:26:53Z</time></trkpt>
<trkpt lat="24.745868" lon="105.510646">
<time>2016-10-06T21:26:54Z</time></trkpt>
<trkpt lat="24.745878" lon="105.510586">
<time>2016-10-06T21:26:55Z</time></trkpt>
<trkpt lat="24.745897" lon="105.510466">
<time>2016-10-06T21:26:56Z</time></trkpt>
<trkpt lat="24.745907" lon="105.510365">
<time>2016-10-06T21:26:57Z</time></trkpt>
<trkpt lat="24.745927" lon="105.510265">
<time>2016-10-06T21:26:58Z</time></trkpt>
<trkpt lat="24.745946" lon="105.510165">
<time>2016-10-06T21:26:59Z</time></trkpt>
<trkpt lat="24.745956" lon="105.510065">
<time>2016-10-06T21:27:00Z</time></trkpt>
<trkpt lat="24.745986" lon="105.509964">
<time>2016-10-06T21:27:01Z</time></trkpt>
<trkpt lat="24.746006" lon="105.509864">
<time>2016-10-06T21:27:02Z</time></trkpt>
<trkpt lat="24.746035" lon="105.509774">
<time>2016-10-06T21:27:03Z</time></trkpt>
<trkpt lat="24.746065" lon="105.509674">
<time>2016-10-06T21:27:04Z</time></trkpt>
<trkpt lat="24.746085" lon="105.509604">
<time>2016-10-06T21:27:05Z</time></trkpt>
<trkpt lat="24.746115" lon="105.509533">
<time>2016-10-06T21:27:06Z</time></trkpt>
<trkpt lat="24.746144" lon="105.509463">
<time>2016-10-06T21:27:07Z</time></trkpt>
<trkpt lat="24.746174" lon="105.509393">
<time>2016-10-06T21:27:08Z</time></trkpt>
<trkpt lat="24.746214" lon="105.509333">
<time>2016-10-06T21:27:09Z</time></trkpt>
<trkpt lat="24.746244" lon="105.509263">
<time>2016-10-06T21:27:10Z</time></trkpt>
<trkpt lat="24.746284" lon="105.509203">
<time>2016-10-06T21:27:11Z</time></trkpt>
<trkpt lat="24.746333" lon="105.509132">
<time>2016-10-06T21:27:12Z</time></trkpt>
<trkpt lat="24.746363" lon="105.509082">
<time>2016-10-06T21:27:13Z</time></trkpt>
<trkpt lat="24.746403" lon="105.509032">
<time>2016-10-06T21:27:14Z</time></trkpt>
<trkpt lat="24.746453" lon="105.508992">
<time>2016-10-06T21:27:15Z</time></trkpt>
<trkpt lat="24.746493" lon="105.508942">
<time>2016-10-06T21:27:16Z</time></trkpt>
<trkpt lat="24.746543" lon="105.508902">
<time>2016-10-06T21:27:17Z</time></trkpt>
<trkpt lat="24.746593" lon="105.508862">
<time>2016-10-06T21:27:18Z</time></trkpt>
<trkpt lat="24.746642" lon="105.508832">
<time>2016-10-06T21:27:19Z</time></trkpt>
<trkpt lat="24.746692" lon="105.508812">
<time>2016-10-06T21:27:20Z</time></trkpt>
<trkpt lat="24.746742" lon="105.508801">
<time>2016-10-06T21:27:21Z</time></trkpt>
<trkpt lat="24.746782" lon="105.508781">
<time>2016-10-06T21:27:22Z</time></trkpt>
<trkpt lat="24.746832" lon="105.508781">
<time>2016-10-06T21:27:23Z</time></trkpt>
<trkpt lat="24.746872" lon="105.508771">
<time>2016-10-06T21:27:24Z</time></trkpt>
<trkpt lat="24.746922" lon="105.508771">
<time>2016-10-06T21:27:25Z</time></trkpt>
<trkpt lat="24.747012" lon="105.508761">
<time>2016-10-06T21:27:26Z</time></trkpt>
<trkpt lat="24.747062" lon="105.508751">
<time>2016-10-06T21:27:27Z</time></trkpt>
<trkpt lat="24.747102" lon="105.508751">
<time>2016-10-06T21:27:28Z</time></trkpt>
<trkpt lat="24.747132" lon="105.508741">
<time>2016-10-06T21:27:29Z</time></trkpt>
<trkpt lat="24.747162" lon="105.508731">
<time>2016-10-06T21:27:30Z</time></trkpt>
<trkpt lat="24.747192" lon="105.508731">
<time>2016-10-06T21:27:31Z</time></trkpt>
<trkpt lat="24.747232" lon="105.508721">
<time>2016-10-06T21:27:32Z</time></trkpt>
<trkpt lat="24.747262" lon="105.508701">
<time>2016-10-06T21:27:33Z</time></trkpt>
<trkpt lat="24.747292" lon="105.508691">
<time>2016-10-06T21:27:34Z</time></trkpt>
<trkpt lat="24.747322" lon="105.508671">
<time>2016-10-06T21:27:35Z</time></trkpt>
<trkpt lat="24.747342" lon="105.508661">
<time>2016-10-06T21:27:36Z</time></trkpt>
<trkpt lat="24.747362" lon="105.508641">
<time>2016-10-06T21:27:37Z</time></trkpt>
<trkpt lat="24.747382" lon="105.508631">
<time>2016-10-06T21:27:38Z</time></trkpt>
<trkpt lat="24.747402" lon="105.508611">
<time>2016-10-06T21:27:39Z</time></trkpt>
<trkpt lat="24.747422" lon="105.508591">
<time>2016-10-06T21:27:40Z</time></trkpt>
<trkpt lat="24.747442" lon="105.508571">
<time>2016-10-06T21:27:41Z</time></trkpt>
<trkpt lat="24.747452" lon="105.508551">
<time>2016-10-06T21:27:42Z</time></trkpt>
<trkpt lat="24.747472" lon="105.508521">
<time>2016-10-06T21:27:43Z</time></trkpt>
<trkpt lat="24.747481" lon="105.508501">
<time>2016-10-06T21:27:44Z</time></trkpt>
<trkpt lat="24.747491" lon="105.508481">
<time>2016-10-06T21:27:45Z</time></trkpt>
<trkpt lat="24.747491" lon="105.508451">
<time>2016-10-06T21:27:46Z</time></trkpt>
<trkpt lat="24.747501" lon="105.50843">
<time>2016-10-06T21:27:47Z</time></trkpt>
<trkpt lat="24.747511" lon="105.5084">
<time>2016-10-06T21:27:48Z</time></trkpt>
<trkpt lat="24.747511" lon="105.50837">
<time>2016-10-06T21:27:49Z</time></trkpt>
<trkpt lat="24.747511" lon="105.50835">
<time>2016-10-06T21:27:50Z</time></trkpt>
<trkpt lat="24.747511" lon="105.50832">
<time>2016-10-06T21:27:51Z</time></trkpt>
<trkpt lat="24.747511" lon="105.50828">
<time>2016-10-06T21:27:52Z</time></trkpt>
<trkpt lat="24.747511" lon="105.50823">
<time>2016-10-06T21:27:53Z</time></trkpt>
<trkpt lat="24.747501" lon="105.50819">
<time>2016-10-06T21:27:54Z</time></trkpt>
<trkpt lat="24.74749" lon="105.50815">
<time>2016-10-06T21:27:55Z</time></trkpt>
<trkpt lat="24.74748" lon="105.50811">
<time>2016-10-06T21:27:56Z</time></trkpt>
<trkpt lat="24.74747" lon="105.50806">
<time>2016-10-06T21:27:57Z</time></trkpt>
<trkpt lat="24.74746" lon="105.508019">
<time>2016-10-06T21:27:58Z</time></trkpt>
<trkpt lat="24.74744" lon="105.507979">
<time>2016-10-06T21:27:59Z</time></trkpt>
<trkpt lat="24.74742" lon="105.507919">
<time>2016-10-06T21:28:00Z</time></trkpt>
<trkpt lat="24.7474" lon="105.507859">
<time>2016-10-06T21:28:01Z</time></trkpt>
<trkpt lat="24.747379" lon="105.507799">
<time>2016-10-06T21:28:02Z</time></trkpt>
<trkpt lat="24.747349" lon="105.507739">
<time>2016-10-06T21:28:03Z</time></trkpt>
<trkpt lat="24.747329" lon="105.507689">
<time>2016-10-06T21:28:04Z</time></trkpt>
<trkpt lat="24.747299" lon="105.507628">
<time>2016-10-06T21:28:05Z</time></trkpt>
<trkpt lat="24.747269" lon="105.507578">
<time>2016-10-06T21:28:06Z</time></trkpt>
<trkpt lat="24.747239" lon="105.507518">
<time>2016-10-06T21:28:07Z</time></trkpt>
<trkpt lat="24.747198" lon="105.507448">
<time>2016-10-06T21:28:08Z</time></trkpt>
<trkpt lat="24.747148" lon="105.507388">
<time>2016-10-06T21:28:09Z</time></trkpt>
<trkpt lat="24.747098" lon="105.507318">
<time>2016-10-06T21:28:10Z</time></trkpt>
<trkpt lat="24.747048" lon="105.507258">
<time>2016-10-06T21:28:11Z</time></trkpt>
<trkpt lat="24.746998" lon="105.507187">
<time>2016-10-06T21:28:12Z</time></trkpt>
<trkpt lat="24.746947" lon="105.507127">
<time>2016-10-06T21:28:13Z</time></trkpt>
<trkpt lat="24.746897" lon="105.507067">
<time>2016-10-06T21:28:14Z</time></trkpt>
<trkpt lat="24.746847" lon="105.507007">
<time>2016-10-06T21:28:15Z</time></trkpt>
<trkpt lat="24.746787" lon="105.506937">
<time>2016-10-06T21:28:16Z</time></trkpt>
<trkpt lat="24.746737" lon="105.506877">
<time>2016-10-06T21:28:17Z</time></trkpt>
<trkpt lat="24.746686" lon="105.506806">
<time>2016-10-06T21:28:18Z</time></trkpt>
<trkpt lat="24.746636" lon="105.506736">
<time>2016-10-06T21:28:19Z</time></trkpt>
<trkpt lat="24.746576" lon="105.506666">
<time>2016-10-06T21:28:20Z</time></trkpt>
<trkpt lat="24.746526" lon="105.506606">
<time>2016-10-06T21:28:21Z</time></trkpt>
<trkpt lat="24.746375" lon="105.506405">
<time>2016-10-06T21:28:22Z</time></trkpt>
<trkpt lat="24.746335" lon="105.506335">
<time>2016-10-06T21:28:23Z</time></trkpt>
<trkpt lat="24.746285" lon="105.506275">
<time>2016-10-06T21:28:24Z</time></trkpt>
<trkpt lat="24.746235" lon="105.506215">
<time>2016-10-06T21:28:25Z</time></trkpt>
<trkpt lat="24.746185" lon="105.506145">
<time>2016-10-06T21:28:26Z</time></trkpt>
<trkpt lat="24.746134" lon="105.506085">
<time>2016-10-06T21:28:27Z</time></trkpt>
<trkpt lat="24.746084" lon="105.506024">
<time>2016-10-06T21:28:28Z</time></trkpt>
<trkpt lat="24.745994" lon="105.505894">
<time>2016-10-06T21:28:29Z</time></trkpt>
<trkpt lat="24.745944" lon="105.505844">
<time>2016-10-06T21:28:30Z</time></trkpt>
<trkpt lat="24.745904" lon="105.505784">
<time>2016-10-06T21:28:31Z</time></trkpt>
<trkpt lat="24.745863" lon="105.505714">
<time>2016-10-06T21:28:32Z</time></trkpt>
<trkpt lat="24.745833" lon="105.505653">
<time>2016-10-06T21:28:33Z</time></trkpt>
<trkpt lat="24.745803" lon="105.505583">
<time>2016-10-06T21:28:34Z</time></trkpt>
<trkpt lat="24.745773" lon="105.505513">
<time>2016-10-06T21:28:35Z</time></trkpt>
<trkpt lat="24.745762" lon="105.505433">
<time>2016-10-06T21:28:36Z</time></trkpt>
<trkpt lat="24.745752" lon="105.505363">
<time>2016-10-06T21:28:37Z</time></trkpt>
<trkpt lat="24.745752" lon="105.505293">
<time>2016-10-06T21:28:38Z</time></trkpt>
<trkpt lat="24.745762" lon="105.505232">
<time>2016-10-06T21:28:39Z</time></trkpt>
<trkpt lat="24.745772" lon="105.505162">
<time>2016-10-06T21:28:40Z</time></trkpt>
<trkpt lat="24.745791" lon="105.505102">
<time>2016-10-06T21:28:41Z</time></trkpt>
<trkpt lat="24.745821" lon="105.505052">
<time>2016-10-06T21:28:42Z</time></trkpt>
<trkpt lat="24.745851" lon="105.505002">
<time>2016-10-06T21:28:43Z</time></trkpt>
<trkpt lat="24.745891" lon="105.504972">
<time>2016-10-06T21:28:44Z</time></trkpt>
<trkpt lat="24.745921" lon="105.504952">
<time>2016-10-06T21:28:45Z</time></trkpt>
<trkpt lat="24.745971" lon="105.504942">
<time>2016-10-06T21:28:46Z</time></trkpt>
<trkpt lat="24.746021" lon="105.504942">
<time>2016-10-06T21:28:47Z</time></trkpt>
<trkpt lat="24.746061" lon="105.504942">
<time>2016-10-06T21:28:48Z</time></trkpt>
<trkpt lat="24.746121" lon="105.504942">
<time>2016-10-06T21:28:49Z</time></trkpt>
<trkpt lat="24.746171" lon="105.504952">
<time>2016-10-06T21:28:50Z</time></trkpt>
<trkpt lat="24.746221" lon="105.504962">
<time>2016-10-06T21:28:51Z</time></trkpt>
<trkpt lat="24.746271" lon="105.504972">
<time>2016-10-06T21:28:52Z</time></trkpt>
<trkpt lat="24.746291" lon="105.504972">
<time>2016-10-06T21:28:53Z</time></trkpt>
<trkpt lat="24.746311" lon="105.504982">
<time>2016-10-06T21:28:54Z</time></trkpt>
<trkpt lat="24.746341" lon="105.504982">
<time>2016-10-06T21:28:55Z</time></trkpt>
<trkpt lat="24.746361" lon="105.504982">
<time>2016-10-06T21:28:56Z</time></trkpt>
<trkpt lat="24.746381" lon="105.504982">
<time>2016-10-06T21:28:57Z</time></trkpt>
<trkpt lat="24.746401" lon="105.504982">
<time>2016-10-06T21:28:58Z</time></trkpt>
<trkpt lat="24.746431" lon="105.504982">
<time>2016-10-06T21:28:59Z</time></trkpt>
<trkpt lat="24.746451" lon="105.504972">
<time>2016-10-06T21:29:00Z</time></trkpt>
<trkpt lat="24.746471" lon="105.504972">
<time>2016-10-06T21:29:01Z</time></trkpt>
<trkpt lat="24.746491" lon="105.504962">
<time>2016-10-06T21:29:02Z</time></trkpt>
<trkpt lat="24.746511" lon="105.504952">
<time>2016-10-06T21:29:03Z</time></trkpt>
<trkpt lat="24.746531" lon="105.504942">
<time>2016-10-06T21:29:04Z</time></trkpt>
<trkpt lat="24.746551" lon="105.504932">
<time>2016-10-06T21:29:05Z</time></trkpt>
<trkpt lat="24.746571" lon="105.504922">
<time>2016-10-06T21:29:06Z</time></trkpt>
<trkpt lat="24.746581" lon="105.504901">
<time>2016-10-06T21:29:07Z</time></trkpt>
<trkpt lat="24.746591" lon="105.504891">
<time>2016-10-06T21:29:08Z</time></trkpt>
<trkpt lat="24.746611" lon="105.504861">
<time>2016-10-06T21:29:09Z</time></trkpt>
<trkpt lat="24.746611" lon="105.504821">
<time>2016-10-06T21:29:10Z</time></trkpt>
<trkpt lat="24.74661" lon="105.504781">
<time>2016-10-06T21:29:11Z</time></trkpt>
<trkpt lat="24.7466" lon="105.504731">
<time>2016-10-06T21:29:12Z</time></trkpt>
<trkpt lat="24.74658" lon="105.504691">
<time>2016-10-06T21:29:13Z</time></trkpt>
<trkpt lat="24.74656" lon="105.504641">
<time>2016-10-06T21:29:14Z</time></trkpt>
<trkpt lat="24.74653" lon="105.504601">
<time>2016-10-06T21:29:15Z</time></trkpt>
<trkpt lat="24.74651" lon="105.504551">
<time>2016-10-06T21:29:16Z</time></trkpt>
<trkpt lat="24.74645" lon="105.50447">
<time>2016-10-06T21:29:17Z</time></trkpt>
<trkpt lat="24.746389" lon="105.50439">
<time>2016-10-06T21:29:18Z</time></trkpt>
<trkpt lat="24.746339" lon="105.50432">
<time>2016-10-06T21:29:19Z</time></trkpt>
<trkpt lat="24.746279" lon="105.50425">
<time>2016-10-06T21:29:20Z</time></trkpt>
<trkpt lat="24.746219" lon="105.50419">
<time>2016-10-06T21:29:21Z</time></trkpt>
<trkpt lat="24.746169" lon="105.504129">
<time>2016-10-06T21:29:22Z</time></trkpt>
<trkpt lat="24.746108" lon="105.504059">
<time>2016-10-06T21:29:23Z</time></trkpt>
<trkpt lat="24.746058" lon="105.503929">
<time>2016-10-06T21:29:24Z</time></trkpt>
<trkpt lat="24.746028" lon="105.503849">
<time>2016-10-06T21:29:25Z</time></trkpt>
<trkpt lat="24.746017" lon="105.503738">
<time>2016-10-06T21:29:26Z</time></trkpt>
<trkpt lat="24.746027" lon="105.503658">
<time>2016-10-06T21:29:27Z</time></trkpt>
<trkpt lat="24.745997" lon="105.503578">
<time>2016-10-06T21:29:28Z</time></trkpt>
<trkpt lat="24.745957" lon="105.503508">
<time>2016-10-06T21:29:29Z</time></trkpt>
<trkpt lat="24.745906" lon="105.503388">
<time>2016-10-06T21:29:30Z</time></trkpt>
<trkpt lat="24.745896" lon="105.503287">
<time>2016-10-06T21:29:31Z</time></trkpt>
<trkpt lat="24.745886" lon="105.503147">
<time>2016-10-06T21:29:32Z</time></trkpt>
<trkpt lat="24.745875" lon="105.502977">
<time>2016-10-06T21:29:33Z</time></trkpt>
<trkpt lat="24.745903" lon="105.502325">
<time>2016-10-06T21:29:34Z</time></trkpt>
<trkpt lat="24.745892" lon="105.501874">
<time>2016-10-06T21:29:35Z</time></trkpt>
<trkpt lat="24.745881" lon="105.501623">
<time>2016-10-06T21:29:36Z</time></trkpt>
<trkpt lat="24.74588" lon="105.501412">
<time>2016-10-06T21:29:37Z</time></trkpt>
<trkpt lat="24.745869" lon="105.500921">
<time>2016-10-06T21:29:38Z</time></trkpt>
<trkpt lat="24.745878" lon="105.500721">
<time>2016-10-06T21:29:39Z</time></trkpt>
<trkpt lat="24.745888" lon="105.50055">
<time>2016-10-06T21:29:40Z</time></trkpt>
<trkpt lat="24.745907" lon="105.5004">
<time>2016-10-06T21:29:41Z</time></trkpt>
<trkpt lat="24.745947" lon="105.500249">
<time>2016-10-06T21:29:42Z</time></trkpt>
<trkpt lat="24.746036" lon="105.500019">
<time>2016-10-06T21:29:43Z</time></trkpt>
<trkpt lat="24.746185" lon="105.499668">
<time>2016-10-06T21:29:44Z</time></trkpt>
<trkpt lat="24.746265" lon="105.499447">
<time>2016-10-06T21:29:45Z</time></trkpt>
<trkpt lat="24.746274" lon="105.499347">
<time>2016-10-06T21:29:46Z</time></trkpt>
<trkpt lat="24.746264" lon="105.499217">
<time>2016-10-06T21:29:47Z</time></trkpt>
<trkpt lat="24.746234" lon="105.499116">
<time>2016-10-06T21:29:48Z</time></trkpt>
<trkpt lat="24.746203" lon="105.499056">
<time>2016-10-06T21:29:49Z</time></trkpt>
<trkpt lat="24.746153" lon="105.498956">
<time>2016-10-06T21:29:50Z</time></trkpt>
<trkpt lat="24.746163" lon="105.498916">
<time>2016-10-06T21:29:51Z</time></trkpt>
<trkpt lat="24.746402" lon="105.498465">
<time>2016-10-06T21:29:52Z</time></trkpt>
<trkpt lat="24.74669" lon="105.498004">
<time>2016-10-06T21:29:53Z</time></trkpt>
<trkpt lat="24.746899" lon="105.497623">
<time>2016-10-06T21:29:54Z</time></trkpt>
<trkpt lat="24.747038" lon="105.497432">
<time>2016-10-06T21:29:55Z</time></trkpt>
<trkpt lat="24.747217" lon="105.497101">
<time>2016-10-06T21:29:56Z</time></trkpt>
<trkpt lat="24.747337" lon="105.496861">
<time>2016-10-06T21:29:57Z</time></trkpt>
<trkpt lat="24.747495" lon="105.496269">
<time>2016-10-06T21:29:58Z</time></trkpt>
<trkpt lat="24.747534" lon="105.495928">
<time>2016-10-06T21:29:59Z</time></trkpt>
<trkpt lat="24.747553" lon="105.495547">
<time>2016-10-06T21:30:00Z</time></trkpt>
<trkpt lat="24.747471" lon="105.494825">
<time>2016-10-06T21:30:01Z</time></trkpt>
<trkpt lat="24.747158" lon="105.493883">
<time>2016-10-06T21:30:02Z</time></trkpt>
<trkpt lat="24.746795" lon="105.493041">
<time>2016-10-06T21:30:03Z</time></trkpt>
<trkpt lat="24.746574" lon="105.49264">
<time>2016-10-06T21:30:04Z</time></trkpt>
<trkpt lat="24.746202" lon="105.492088">
<time>2016-10-06T21:30:05Z</time></trkpt>
<trkpt lat="24.745831" lon="105.491707">
<time>2016-10-06T21:30:06Z</time></trkpt>
<trkpt lat="24.74539" lon="105.491326">
<time>2016-10-06T21:30:07Z</time></trkpt>
<trkpt lat="24.744929" lon="105.490955">
<time>2016-10-06T21:30:08Z</time></trkpt>
<trkpt lat="24.744528" lon="105.490564">
<time>2016-10-06T21:30:09Z</time></trkpt>
<trkpt lat="24.744237" lon="105.490264">
<time>2016-10-06T21:30:10Z</time></trkpt>
<trkpt lat="24.743916" lon="105.489863">
<time>2016-10-06T21:30:11Z</time></trkpt>
<trkpt lat="24.743665" lon="105.489482">
<time>2016-10-06T21:30:12Z</time></trkpt>
<trkpt lat="24.743534" lon="105.489181">
<time>2016-10-06T21:30:13Z</time></trkpt>
<trkpt lat="24.743443" lon="105.48881">
<time>2016-10-06T21:30:14Z</time></trkpt>
<trkpt lat="24.743382" lon="105.488419">
<time>2016-10-06T21:30:15Z</time></trkpt>
<trkpt lat="24.74337" lon="105.488018">
<time>2016-10-06T21:30:16Z</time></trkpt>
<trkpt lat="24.743409" lon="105.487707">
<time>2016-10-06T21:30:17Z</time></trkpt>
<trkpt lat="24.743508" lon="105.487266">
<time>2016-10-06T21:30:18Z</time></trkpt>
<trkpt lat="24.743845" lon="105.486133">
<time>2016-10-06T21:30:19Z</time></trkpt>
<trkpt lat="24.744003" lon="105.485431">
<time>2016-10-06T21:30:20Z</time></trkpt>
<trkpt lat="24.744119" lon="105.484188">
<time>2016-10-06T21:30:21Z</time></trkpt>
<trkpt lat="24.744306" lon="105.483256">
<time>2016-10-06T21:30:22Z</time></trkpt>
<trkpt lat="24.744734" lon="105.482414">
<time>2016-10-06T21:30:23Z</time></trkpt>
<trkpt lat="24.746279" lon="105.480669">
<time>2016-10-06T21:30:24Z</time></trkpt>
<trkpt lat="24.747315" lon="105.479476">
<time>2016-10-06T21:30:25Z</time></trkpt>
<trkpt lat="24.747505" lon="105.479306">
<time>2016-10-06T21:30:26Z</time></trkpt>
<trkpt lat="24.747854" lon="105.478985">
<time>2016-10-06T21:30:27Z</time></trkpt>
<trkpt lat="24.748343" lon="105.478714">
<time>2016-10-06T21:30:28Z</time></trkpt>
<trkpt lat="24.749012" lon="105.478504">
<time>2016-10-06T21:30:29Z</time></trkpt>
<trkpt lat="24.749671" lon="105.478263">
<time>2016-10-06T21:30:30Z</time></trkpt>
<trkpt lat="24.750021" lon="105.478113">
<time>2016-10-06T21:30:31Z</time></trkpt>
<trkpt lat="24.750201" lon="105.478013">
<time>2016-10-06T21:30:32Z</time></trkpt>
<trkpt lat="24.75038" lon="105.477902">
<time>2016-10-06T21:30:33Z</time></trkpt>
<trkpt lat="24.75052" lon="105.477782">
<time>2016-10-06T21:30:34Z</time></trkpt>
<trkpt lat="24.75064" lon="105.477692">
<time>2016-10-06T21:30:35Z</time></trkpt>
<trkpt lat="24.750739" lon="105.477592">
<time>2016-10-06T21:30:36Z</time></trkpt>
<trkpt lat="24.750849" lon="105.477481">
<time>2016-10-06T21:30:37Z</time></trkpt>
<trkpt lat="24.750959" lon="105.477341">
<time>2016-10-06T21:30:38Z</time></trkpt>
<trkpt lat="24.751108" lon="105.47715">
<time>2016-10-06T21:30:39Z</time></trkpt>
<trkpt lat="24.751218" lon="105.47699">
<time>2016-10-06T21:30:40Z</time></trkpt>
<trkpt lat="24.751367" lon="105.476729">
<time>2016-10-06T21:30:41Z</time></trkpt>
<trkpt lat="24.751576" lon="105.476369">
<time>2016-10-06T21:30:42Z</time></trkpt>
<trkpt lat="24.751795" lon="105.476018">
<time>2016-10-06T21:30:43Z</time></trkpt>
<trkpt lat="24.752044" lon="105.475637">
<time>2016-10-06T21:30:44Z</time></trkpt>
<trkpt lat="24.752203" lon="105.475406">
<time>2016-10-06T21:30:45Z</time></trkpt>
<trkpt lat="24.752393" lon="105.475166">
<time>2016-10-06T21:30:46Z</time></trkpt>
<trkpt lat="24.752642" lon="105.474875">
<time>2016-10-06T21:30:47Z</time></trkpt>
<trkpt lat="24.752971" lon="105.474554">
<time>2016-10-06T21:30:48Z</time></trkpt>
<trkpt lat="24.75316" lon="105.474384">
<time>2016-10-06T21:30:49Z</time></trkpt>
<trkpt lat="24.75339" lon="105.474203">
<time>2016-10-06T21:30:50Z</time></trkpt>
<trkpt lat="24.753759" lon="105.473943">
<time>2016-10-06T21:30:51Z</time></trkpt>
<trkpt lat="24.754088" lon="105.473752">
<time>2016-10-06T21:30:52Z</time></trkpt>
<trkpt lat="24.754658" lon="105.473472">
<time>2016-10-06T21:30:53Z</time></trkpt>
<trkpt lat="24.755367" lon="105.473181">
<time>2016-10-06T21:30:54Z</time></trkpt>
<trkpt lat="24.755786" lon="105.473">
<time>2016-10-06T21:30:55Z</time></trkpt>
<trkpt lat="24.756056" lon="105.47287">
<time>2016-10-06T21:30:56Z</time></trkpt>
<trkpt lat="24.756305" lon="105.47274">
<time>2016-10-06T21:30:57Z</time></trkpt>
<trkpt lat="24.756495" lon="105.47262">
<time>2016-10-06T21:30:58Z</time></trkpt>
<trkpt lat="24.756695" lon="105.472469">
<time>2016-10-06T21:30:59Z</time></trkpt>
<trkpt lat="24.756854" lon="105.472329">
<time>2016-10-06T21:31:00Z</time></trkpt>
<trkpt lat="24.757014" lon="105.472168">
<time>2016-10-06T21:31:01Z</time></trkpt>
<trkpt lat="24.757143" lon="105.472028">
<time>2016-10-06T21:31:02Z</time></trkpt>
<trkpt lat="24.757273" lon="105.471858">
<time>2016-10-06T21:31:03Z</time></trkpt>
<trkpt lat="24.757373" lon="105.471707">
<time>2016-10-06T21:31:04Z</time></trkpt>
<trkpt lat="24.757472" lon="105.471557">
<time>2016-10-06T21:31:05Z</time></trkpt>
<trkpt lat="24.757661" lon="105.471196">
<time>2016-10-06T21:31:06Z</time></trkpt>
<trkpt lat="24.75784" lon="105.470775">
<time>2016-10-06T21:31:07Z</time></trkpt>
<trkpt lat="24.758038" lon="105.470244">
<time>2016-10-06T21:31:08Z</time></trkpt>
<trkpt lat="24.758207" lon="105.469793">
<time>2016-10-06T21:31:09Z</time></trkpt>
<trkpt lat="24.758326" lon="105.469492">
<time>2016-10-06T21:31:10Z</time></trkpt>
<trkpt lat="24.758496" lon="105.469152">
<time>2016-10-06T21:31:11Z</time></trkpt>
<trkpt lat="24.758645" lon="105.468891">
<time>2016-10-06T21:31:12Z</time></trkpt>
<trkpt lat="24.758844" lon="105.46857">
<time>2016-10-06T21:31:13Z</time></trkpt>
<trkpt lat="24.759113" lon="105.46824">
<time>2016-10-06T21:31:14Z</time></trkpt>
<trkpt lat="24.759332" lon="105.467999">
<time>2016-10-06T21:31:15Z</time></trkpt>
<trkpt lat="24.759552" lon="105.467768">
<time>2016-10-06T21:31:16Z</time></trkpt>
<trkpt lat="24.759971" lon="105.467398">
<time>2016-10-06T21:31:17Z</time></trkpt>
<trkpt lat="24.76039" lon="105.467067">
<time>2016-10-06T21:31:18Z</time></trkpt>
<trkpt lat="24.761018" lon="105.466556">
<time>2016-10-06T21:31:19Z</time></trkpt>
<trkpt lat="24.761587" lon="105.466075">
<time>2016-10-06T21:31:20Z</time></trkpt>
<trkpt lat="24.761916" lon="105.465784">
<time>2016-10-06T21:31:21Z</time></trkpt>
<trkpt lat="24.762076" lon="105.465604">
<time>2016-10-06T21:31:22Z</time></trkpt>
<trkpt lat="24.762205" lon="105.465413">
<time>2016-10-06T21:31:23Z</time></trkpt>
<trkpt lat="24.762365" lon="105.465143">
<time>2016-10-06T21:31:24Z</time></trkpt>
<trkpt lat="24.762494" lon="105.464822">
<time>2016-10-06T21:31:25Z</time></trkpt>
<trkpt lat="24.762563" lon="105.464571">
<time>2016-10-06T21:31:26Z</time></trkpt>
<trkpt lat="24.762593" lon="105.464341">
<time>2016-10-06T21:31:27Z</time></trkpt>
<trkpt lat="24.762612" lon="105.46399">
<time>2016-10-06T21:31:28Z</time></trkpt>
<trkpt lat="24.762611" lon="105.46366">
<time>2016-10-06T21:31:29Z</time></trkpt>
<trkpt lat="24.762559" lon="105.462878">
<time>2016-10-06T21:31:30Z</time></trkpt>
<trkpt lat="24.762538" lon="105.462698">
<time>2016-10-06T21:31:31Z</time></trkpt>
<trkpt lat="24.762498" lon="105.462527">
<time>2016-10-06T21:31:32Z</time></trkpt>
<trkpt lat="24.762447" lon="105.462307">
<time>2016-10-06T21:31:33Z</time></trkpt>
<trkpt lat="24.762377" lon="105.462126">
<time>2016-10-06T21:31:34Z</time></trkpt>
<trkpt lat="24.762226" lon="105.461806">
<time>2016-10-06T21:31:35Z</time></trkpt>
<trkpt lat="24.762086" lon="105.461585">
<time>2016-10-06T21:31:36Z</time></trkpt>
<trkpt lat="24.761955" lon="105.461395">
<time>2016-10-06T21:31:37Z</time></trkpt>
<trkpt lat="24.761775" lon="105.461185">
<time>2016-10-06T21:31:38Z</time></trkpt>
<trkpt lat="24.761253" lon="105.460563">
<time>2016-10-06T21:31:39Z</time></trkpt>
<trkpt lat="24.760852" lon="105.459972">
<time>2016-10-06T21:31:40Z</time></trkpt>
<trkpt lat="24.760631" lon="105.459591">
<time>2016-10-06T21:31:41Z</time></trkpt>
<trkpt lat="24.7605" lon="105.459191">
<time>2016-10-06T21:31:42Z</time></trkpt>
<trkpt lat="24.760419" lon="105.45886">
<time>2016-10-06T21:31:43Z</time></trkpt>
<trkpt lat="24.760338" lon="105.458349">
<time>2016-10-06T21:31:44Z</time></trkpt>
<trkpt lat="24.760316" lon="105.457788">
<time>2016-10-06T21:31:45Z</time></trkpt>
<trkpt lat="24.760425" lon="105.457097">
<time>2016-10-06T21:31:46Z</time></trkpt>
<trkpt lat="24.760673" lon="105.456285">
<time>2016-10-06T21:31:47Z</time></trkpt>
<trkpt lat="24.760673" lon="105.456285">
<time>2016-10-06T21:31:48Z</time></trkpt>
<trkpt lat="24.761001" lon="105.455414">
<time>2016-10-06T21:31:49Z</time></trkpt>
<trkpt lat="24.761299" lon="105.454692">
<time>2016-10-06T21:31:50Z</time></trkpt>
<trkpt lat="24.761458" lon="105.454262">
<time>2016-10-06T21:31:51Z</time></trkpt>
<trkpt lat="24.761736" lon="105.45338">
<time>2016-10-06T21:31:52Z</time></trkpt>
<trkpt lat="24.761825" lon="105.453059">
<time>2016-10-06T21:31:53Z</time></trkpt>
<trkpt lat="24.761845" lon="105.452879">
<time>2016-10-06T21:31:54Z</time></trkpt>
<trkpt lat="24.761844" lon="105.452709">
<time>2016-10-06T21:31:55Z</time></trkpt>
<trkpt lat="24.761824" lon="105.452549">
<time>2016-10-06T21:31:56Z</time></trkpt>
<trkpt lat="24.761804" lon="105.452408">
<time>2016-10-06T21:31:57Z</time></trkpt>
<trkpt lat="24.761743" lon="105.452278">
<time>2016-10-06T21:31:58Z</time></trkpt>
<trkpt lat="24.761643" lon="105.452128">
<time>2016-10-06T21:31:59Z</time></trkpt>
<trkpt lat="24.761543" lon="105.452008">
<time>2016-10-06T21:32:00Z</time></trkpt>
<trkpt lat="24.761272" lon="105.451777">
<time>2016-10-06T21:32:01Z</time></trkpt>
<trkpt lat="24.760852" lon="105.451457">
<time>2016-10-06T21:32:02Z</time></trkpt>
<trkpt lat="24.760671" lon="105.451337">
<time>2016-10-06T21:32:03Z</time></trkpt>
<trkpt lat="24.760501" lon="105.451256">
<time>2016-10-06T21:32:04Z</time></trkpt>
<trkpt lat="24.760291" lon="105.451136">
<time>2016-10-06T21:32:05Z</time></trkpt>
<trkpt lat="24.7595" lon="105.450786">
<time>2016-10-06T21:32:06Z</time></trkpt>
<trkpt lat="24.75936" lon="105.450686">
<time>2016-10-06T21:32:07Z</time></trkpt>
<trkpt lat="24.75919" lon="105.450555">
<time>2016-10-06T21:32:08Z</time></trkpt>
<trkpt lat="24.75919" lon="105.450555">
<time>2016-10-06T21:32:09Z</time></trkpt>
<trkpt lat="24.758999" lon="105.450345">
<time>2016-10-06T21:32:10Z</time></trkpt>
<trkpt lat="24.758929" lon="105.450235">
<time>2016-10-06T21:32:11Z</time></trkpt>
<trkpt lat="24.758869" lon="105.450115">
<time>2016-10-06T21:32:12Z</time></trkpt>
<trkpt lat="24.758798" lon="105.449954">
<time>2016-10-06T21:32:13Z</time></trkpt>
<trkpt lat="24.758748" lon="105.449774">
<time>2016-10-06T21:32:14Z</time></trkpt>
<trkpt lat="24.758698" lon="105.449554">
<time>2016-10-06T21:32:15Z</time></trkpt>
<trkpt lat="24.758677" lon="105.449424">
<time>2016-10-06T21:32:16Z</time></trkpt>
<trkpt lat="24.758657" lon="105.449153">
<time>2016-10-06T21:32:17Z</time></trkpt>
<trkpt lat="24.758657" lon="105.449023">
<time>2016-10-06T21:32:18Z</time></trkpt>
<trkpt lat="24.758666" lon="105.448903">
<time>2016-10-06T21:32:19Z</time></trkpt>
<trkpt lat="24.758696" lon="105.448682">
<time>2016-10-06T21:32:20Z</time></trkpt>
<trkpt lat="24.758725" lon="105.448542">
<time>2016-10-06T21:32:21Z</time></trkpt>
<trkpt lat="24.758755" lon="105.448422">
<time>2016-10-06T21:32:22Z</time></trkpt>
<trkpt lat="24.758795" lon="105.448302">
<time>2016-10-06T21:32:23Z</time></trkpt>
<trkpt lat="24.758795" lon="105.448302">
<time>2016-10-06T21:32:24Z</time></trkpt>
<trkpt lat="24.758835" lon="105.448212">
<time>2016-10-06T21:32:25Z</time></trkpt>
<trkpt lat="24.758994" lon="105.447951">
<time>2016-10-06T21:32:26Z</time></trkpt>
<trkpt lat="24.759254" lon="105.447671">
<time>2016-10-06T21:32:27Z</time></trkpt>
<trkpt lat="24.759603" lon="105.4474">
<time>2016-10-06T21:32:28Z</time></trkpt>
<trkpt lat="24.760392" lon="105.44693">
<time>2016-10-06T21:32:29Z</time></trkpt>
<trkpt lat="24.761091" lon="105.446469">
<time>2016-10-06T21:32:30Z</time></trkpt>
<trkpt lat="24.7619" lon="105.445968">
<time>2016-10-06T21:32:31Z</time></trkpt>
<trkpt lat="24.762499" lon="105.445638">
<time>2016-10-06T21:32:32Z</time></trkpt>
<trkpt lat="24.762939" lon="105.445427">
<time>2016-10-06T21:32:33Z</time></trkpt>
<trkpt lat="24.763289" lon="105.445287">
<time>2016-10-06T21:32:34Z</time></trkpt>
<trkpt lat="24.763648" lon="105.445117">
<time>2016-10-06T21:32:35Z</time></trkpt>
<trkpt lat="24.763988" lon="105.444937">
<time>2016-10-06T21:32:36Z</time></trkpt>
<trkpt lat="24.764177" lon="105.444736">
<time>2016-10-06T21:32:37Z</time></trkpt>
<trkpt lat="24.764327" lon="105.444476">
<time>2016-10-06T21:32:38Z</time></trkpt>
<trkpt lat="24.764436" lon="105.444276">
<time>2016-10-06T21:32:39Z</time></trkpt>
<trkpt lat="24.764516" lon="105.444085">
<time>2016-10-06T21:32:40Z</time></trkpt>
<trkpt lat="24.764605" lon="105.443775">
<time>2016-10-06T21:32:41Z</time></trkpt>
<trkpt lat="24.764734" lon="105.443144">
<time>2016-10-06T21:32:42Z</time></trkpt>
<trkpt lat="24.765061" lon="105.441542">
<time>2016-10-06T21:32:43Z</time></trkpt>
<trkpt lat="24.76521" lon="105.440821">
<time>2016-10-06T21:32:44Z</time></trkpt>
<trkpt lat="24.765389" lon="105.440451">
<time>2016-10-06T21:32:45Z</time></trkpt>
<trkpt lat="24.765619" lon="105.44009">
<time>2016-10-06T21:32:46Z</time></trkpt>
<trkpt lat="24.765848" lon="105.43986">
<time>2016-10-06T21:32:47Z</time></trkpt>
<trkpt lat="24.766188" lon="105.43963">
<time>2016-10-06T21:32:48Z</time></trkpt>
<trkpt lat="24.766447" lon="105.4395">
<time>2016-10-06T21:32:49Z</time></trkpt>
<trkpt lat="24.766737" lon="105.439349">
<time>2016-10-06T21:32:50Z</time></trkpt>
<trkpt lat="24.767017" lon="105.439099">
<time>2016-10-06T21:32:51Z</time></trkpt>
<trkpt lat="24.767176" lon="105.438909">
<time>2016-10-06T21:32:52Z</time></trkpt>
<trkpt lat="24.767416" lon="105.438488">
<time>2016-10-06T21:32:53Z</time></trkpt>
<trkpt lat="24.767416" lon="105.438488">
<time>2016-10-06T21:32:54Z</time></trkpt>
<trkpt lat="24.767444" lon="105.437427">
<time>2016-10-06T21:32:55Z</time></trkpt>
<trkpt lat="24.767483" lon="105.436756">
<time>2016-10-06T21:32:56Z</time></trkpt>
<trkpt lat="24.767532" lon="105.436496">
<time>2016-10-06T21:32:57Z</time></trkpt>
<trkpt lat="24.767572" lon="105.436316">
<time>2016-10-06T21:32:58Z</time></trkpt>
<trkpt lat="24.767651" lon="105.436066">
<time>2016-10-06T21:32:59Z</time></trkpt>
<trkpt lat="24.767801" lon="105.435725">
<time>2016-10-06T21:33:00Z</time></trkpt>
<trkpt lat="24.768578" lon="105.434254">
<time>2016-10-06T21:33:01Z</time></trkpt>
<trkpt lat="24.768818" lon="105.433824">
<time>2016-10-06T21:33:02Z</time></trkpt>
<trkpt lat="24.769007" lon="105.433533">
<time>2016-10-06T21:33:03Z</time></trkpt>
<trkpt lat="24.769147" lon="105.433333">
<time>2016-10-06T21:33:04Z</time></trkpt>
<trkpt lat="24.769247" lon="105.433223">
<time>2016-10-06T21:33:05Z</time></trkpt>
<trkpt lat="24.769427" lon="105.433063">
<time>2016-10-06T21:33:06Z</time></trkpt>
<trkpt lat="24.769846" lon="105.432753">
<time>2016-10-06T21:33:07Z</time></trkpt>
<trkpt lat="24.771065" lon="105.431952">
<time>2016-10-06T21:33:08Z</time></trkpt>
<trkpt lat="24.771624" lon="105.431501">
<time>2016-10-06T21:33:09Z</time></trkpt>
<trkpt lat="24.771844" lon="105.431281">
<time>2016-10-06T21:33:10Z</time></trkpt>
<trkpt lat="24.772033" lon="105.431051">
<time>2016-10-06T21:33:11Z</time></trkpt>
<trkpt lat="24.772173" lon="105.430761">
<time>2016-10-06T21:33:12Z</time></trkpt>
<trkpt lat="24.772293" lon="105.430431">
<time>2016-10-06T21:33:13Z</time></trkpt>
<trkpt lat="24.772372" lon="105.43012">
<time>2016-10-06T21:33:14Z</time></trkpt>
<trkpt lat="24.772441" lon="105.42949">
<time>2016-10-06T21:33:15Z</time></trkpt>
<trkpt lat="24.772441" lon="105.42947">
<time>2016-10-06T21:33:16Z</time></trkpt>
<trkpt lat="24.772389" lon="105.428039">
<time>2016-10-06T21:33:17Z</time></trkpt>
<trkpt lat="24.772378" lon="105.426998">
<time>2016-10-06T21:33:18Z</time></trkpt>
<trkpt lat="24.772407" lon="105.426488">
<time>2016-10-06T21:33:19Z</time></trkpt>
<trkpt lat="24.772567" lon="105.426088">
<time>2016-10-06T21:33:20Z</time></trkpt>
<trkpt lat="24.772716" lon="105.425778">
<time>2016-10-06T21:33:21Z</time></trkpt>
<trkpt lat="24.772946" lon="105.425387">
<time>2016-10-06T21:33:22Z</time></trkpt>
<trkpt lat="24.773815" lon="105.424337">
<time>2016-10-06T21:33:23Z</time></trkpt>
<trkpt lat="24.774334" lon="105.423767">
<time>2016-10-06T21:33:24Z</time></trkpt>
<trkpt lat="24.774943" lon="105.423026">
<time>2016-10-06T21:33:25Z</time></trkpt>
<trkpt lat="24.775123" lon="105.422646">
<time>2016-10-06T21:33:26Z</time></trkpt>
<trkpt lat="24.775212" lon="105.422326">
<time>2016-10-06T21:33:27Z</time></trkpt>
<trkpt lat="24.775232" lon="105.421966">
<time>2016-10-06T21:33:28Z</time></trkpt>
<trkpt lat="24.775192" lon="105.421686">
<time>2016-10-06T21:33:29Z</time></trkpt>
<trkpt lat="24.775091" lon="105.421426">
<time>2016-10-06T21:33:30Z</time></trkpt>
<trkpt lat="24.774861" lon="105.421036">
<time>2016-10-06T21:33:31Z</time></trkpt>
<trkpt lat="24.77368" lon="105.419495">
<time>2016-10-06T21:33:32Z</time></trkpt>
<trkpt lat="24.773269" lon="105.418935">
<time>2016-10-06T21:33:33Z</time></trkpt>
<trkpt lat="24.773069" lon="105.418645">
<time>2016-10-06T21:33:34Z</time></trkpt>
<trkpt lat="24.772869" lon="105.418215">
<time>2016-10-06T21:33:35Z</time></trkpt>
<trkpt lat="24.772067" lon="105.416335">
<time>2016-10-06T21:33:36Z</time></trkpt>
<trkpt lat="24.771847" lon="105.415895">
<time>2016-10-06T21:33:37Z</time></trkpt>
<trkpt lat="24.771637" lon="105.415585">
<time>2016-10-06T21:33:38Z</time></trkpt>
<trkpt lat="24.771436" lon="105.415365">
<time>2016-10-06T21:33:39Z</time></trkpt>
<trkpt lat="24.770796" lon="105.414865">
<time>2016-10-06T21:33:40Z</time></trkpt>
<trkpt lat="24.770486" lon="105.414565">
<time>2016-10-06T21:33:41Z</time></trkpt>
<trkpt lat="24.770316" lon="105.414275">
<time>2016-10-06T21:33:42Z</time></trkpt>
<trkpt lat="24.770246" lon="105.414065">
<time>2016-10-06T21:33:43Z</time></trkpt>
<trkpt lat="24.770195" lon="105.413785">
<time>2016-10-06T21:33:44Z</time></trkpt>
<trkpt lat="24.770215" lon="105.413515">
<time>2016-10-06T21:33:45Z</time></trkpt>
<trkpt lat="24.770355" lon="105.413145">
<time>2016-10-06T21:33:46Z</time></trkpt>
<trkpt lat="24.770665" lon="105.412585">
<time>2016-10-06T21:33:47Z</time></trkpt>
<trkpt lat="24.770864" lon="105.412115">
<time>2016-10-06T21:33:48Z</time></trkpt>
<trkpt lat="24.770934" lon="105.411765">
<time>2016-10-06T21:33:49Z</time></trkpt>
<trkpt lat="24.770964" lon="105.411405">
<time>2016-10-06T21:33:50Z</time></trkpt>
<trkpt lat="24.770874" lon="105.411035">
<time>2016-10-06T21:33:51Z</time></trkpt>
<trkpt lat="24.770774" lon="105.410745">
<time>2016-10-06T21:33:52Z</time></trkpt>
<trkpt lat="24.770133" lon="105.409476">
<time>2016-10-06T21:33:53Z</time></trkpt>
<trkpt lat="24.769412" lon="105.408116">
<time>2016-10-06T21:33:54Z</time></trkpt>
<trkpt lat="24.769352" lon="105.407876">
<time>2016-10-06T21:33:55Z</time></trkpt>
<trkpt lat="24.769312" lon="105.407597">
<time>2016-10-06T21:33:56Z</time></trkpt>
<trkpt lat="24.769352" lon="105.407267">
<time>2016-10-06T21:33:57Z</time></trkpt>
<trkpt lat="24.769512" lon="105.406887">
<time>2016-10-06T21:33:58Z</time></trkpt>
<trkpt lat="24.769692" lon="105.406607">
<time>2016-10-06T21:33:59Z</time></trkpt>
<trkpt lat="24.770142" lon="105.406137">
<time>2016-10-06T21:34:00Z</time></trkpt>
<trkpt lat="24.770352" lon="105.405867">
<time>2016-10-06T21:34:01Z</time></trkpt>
<trkpt lat="24.770491" lon="105.405627">
<time>2016-10-06T21:34:02Z</time></trkpt>
<trkpt lat="24.770631" lon="105.405327">
<time>2016-10-06T21:34:03Z</time></trkpt>
<trkpt lat="24.770731" lon="105.405078">
<time>2016-10-06T21:34:04Z</time></trkpt>
<trkpt lat="24.770851" lon="105.404538">
<time>2016-10-06T21:34:05Z</time></trkpt>
<trkpt lat="24.77206" lon="105.398132">
<time>2016-10-06T21:34:06Z</time></trkpt>
<trkpt lat="24.77211" lon="105.397653">
<time>2016-10-06T21:34:07Z</time></trkpt>
<trkpt lat="24.77214" lon="105.397263">
<time>2016-10-06T21:34:08Z</time></trkpt>
<trkpt lat="24.77211" lon="105.396923">
<time>2016-10-06T21:34:09Z</time></trkpt>
<trkpt lat="24.77205" lon="105.396634">
<time>2016-10-06T21:34:10Z</time></trkpt>
<trkpt lat="24.77189" lon="105.396174">
<time>2016-10-06T21:34:11Z</time></trkpt>
<trkpt lat="24.770941" lon="105.393847">
<time>2016-10-06T21:34:12Z</time></trkpt>
<trkpt lat="24.770771" lon="105.393217">
<time>2016-10-06T21:34:13Z</time></trkpt>
<trkpt lat="24.770711" lon="105.392858">
<time>2016-10-06T21:34:14Z</time></trkpt>
<trkpt lat="24.770691" lon="105.392518">
<time>2016-10-06T21:34:15Z</time></trkpt>
<trkpt lat="24.770681" lon="105.392169">
<time>2016-10-06T21:34:16Z</time></trkpt>
<trkpt lat="24.770752" lon="105.39112">
<time>2016-10-06T21:34:17Z</time></trkpt>
<trkpt lat="24.771023" lon="105.387445">
<time>2016-10-06T21:34:18Z</time></trkpt>
<trkpt lat="24.771225" lon="105.38379">
<time>2016-10-06T21:34:19Z</time></trkpt>
<trkpt lat="24.771186" lon="105.382851">
<time>2016-10-06T21:34:20Z</time></trkpt>
<trkpt lat="24.770986" lon="105.382162">
<time>2016-10-06T21:34:21Z</time></trkpt>
<trkpt lat="24.770287" lon="105.380875">
<time>2016-10-06T21:34:22Z</time></trkpt>
<trkpt lat="24.769619" lon="105.379287">
<time>2016-10-06T21:34:23Z</time></trkpt>
<trkpt lat="24.769459" lon="105.378489">
<time>2016-10-06T21:34:24Z</time></trkpt>
<trkpt lat="24.76943" lon="105.37788">
<time>2016-10-06T21:34:25Z</time></trkpt>
<trkpt lat="24.76954" lon="105.377341">
<time>2016-10-06T21:34:26Z</time></trkpt>
<trkpt lat="24.769861" lon="105.376872">
<time>2016-10-06T21:34:27Z</time></trkpt>
<trkpt lat="24.771122" lon="105.375574">
<time>2016-10-06T21:34:28Z</time></trkpt>
<trkpt lat="24.771272" lon="105.375394">
<time>2016-10-06T21:34:29Z</time></trkpt>
<trkpt lat="24.771372" lon="105.375255">
<time>2016-10-06T21:34:30Z</time></trkpt>
<trkpt lat="24.771512" lon="105.375005">
<time>2016-10-06T21:34:31Z</time></trkpt>
<trkpt lat="24.771592" lon="105.374905">
<time>2016-10-06T21:34:32Z</time></trkpt>
<trkpt lat="24.771663" lon="105.374776">
<time>2016-10-06T21:34:33Z</time></trkpt>
<trkpt lat="24.771713" lon="105.374656">
<time>2016-10-06T21:34:34Z</time></trkpt>
<trkpt lat="24.771763" lon="105.374516">
<time>2016-10-06T21:34:35Z</time></trkpt>
<trkpt lat="24.771823" lon="105.374257">
<time>2016-10-06T21:34:36Z</time></trkpt>
<trkpt lat="24.771823" lon="105.374257">
<time>2016-10-06T21:34:37Z</time></trkpt>
<trkpt lat="24.771863" lon="105.373917">
<time>2016-10-06T21:34:38Z</time></trkpt>
<trkpt lat="24.772004" lon="105.373209">
<time>2016-10-06T21:34:39Z</time></trkpt>
<trkpt lat="24.772145" lon="105.37269">
<time>2016-10-06T21:34:40Z</time></trkpt>
<trkpt lat="24.772305" lon="105.3723">
<time>2016-10-06T21:34:41Z</time></trkpt>
<trkpt lat="24.772495" lon="105.371931">
<time>2016-10-06T21:34:42Z</time></trkpt>
<trkpt lat="24.772776" lon="105.371492">
<time>2016-10-06T21:34:43Z</time></trkpt>
<trkpt lat="24.773307" lon="105.370744">
<time>2016-10-06T21:34:44Z</time></trkpt>
<trkpt lat="24.773587" lon="105.370275">
<time>2016-10-06T21:34:45Z</time></trkpt>
<trkpt lat="24.773717" lon="105.370025">
<time>2016-10-06T21:34:46Z</time></trkpt>
<trkpt lat="24.773828" lon="105.369776">
<time>2016-10-06T21:34:47Z</time></trkpt>
<trkpt lat="24.773918" lon="105.369496">
<time>2016-10-06T21:34:48Z</time></trkpt>
<trkpt lat="24.774048" lon="105.369087">
<time>2016-10-06T21:34:49Z</time></trkpt>
<trkpt lat="24.774119" lon="105.368828">
<time>2016-10-06T21:34:50Z</time></trkpt>
<trkpt lat="24.774119" lon="105.368578">
<time>2016-10-06T21:34:51Z</time></trkpt>
<trkpt lat="24.774099" lon="105.368359">
<time>2016-10-06T21:34:52Z</time></trkpt>
<trkpt lat="24.77406" lon="105.368149">
<time>2016-10-06T21:34:53Z</time></trkpt>
<trkpt lat="24.77398" lon="105.36794">
<time>2016-10-06T21:34:54Z</time></trkpt>
<trkpt lat="24.77388" lon="105.36776">
<time>2016-10-06T21:34:55Z</time></trkpt>
<trkpt lat="24.77377" lon="105.36759">
<time>2016-10-06T21:34:56Z</time></trkpt>
<trkpt lat="24.773461" lon="105.367181">
<time>2016-10-06T21:34:57Z</time></trkpt>
<trkpt lat="24.773291" lon="105.366952">
<time>2016-10-06T21:34:58Z</time></trkpt>
<trkpt lat="24.773181" lon="105.366722">
<time>2016-10-06T21:34:59Z</time></trkpt>
<trkpt lat="24.773112" lon="105.366553">
<time>2016-10-06T21:35:00Z</time></trkpt>
<trkpt lat="24.773062" lon="105.366383">
<time>2016-10-06T21:35:01Z</time></trkpt>
<trkpt lat="24.773032" lon="105.366193">
<time>2016-10-06T21:35:02Z</time></trkpt>
<trkpt lat="24.773032" lon="105.365944">
<time>2016-10-06T21:35:03Z</time></trkpt>
<trkpt lat="24.773053" lon="105.365784">
<time>2016-10-06T21:35:04Z</time></trkpt>
<trkpt lat="24.773133" lon="105.365595">
<time>2016-10-06T21:35:05Z</time></trkpt>
<trkpt lat="24.773233" lon="105.365425">
<time>2016-10-06T21:35:06Z</time></trkpt>
<trkpt lat="24.773353" lon="105.365266">
<time>2016-10-06T21:35:07Z</time></trkpt>
<trkpt lat="24.773473" lon="105.365156">
<time>2016-10-06T21:35:08Z</time></trkpt>
<trkpt lat="24.773874" lon="105.364866">
<time>2016-10-06T21:35:09Z</time></trkpt>
<trkpt lat="24.775205" lon="105.363899">
<time>2016-10-06T21:35:10Z</time></trkpt>
<trkpt lat="24.775505" lon="105.363629">
<time>2016-10-06T21:35:11Z</time></trkpt>
<trkpt lat="24.775525" lon="105.363609">
<time>2016-10-06T21:35:12Z</time></trkpt>
<trkpt lat="24.776286" lon="105.362771">
<time>2016-10-06T21:35:13Z</time></trkpt>
<trkpt lat="24.776456" lon="105.362612">
<time>2016-10-06T21:35:14Z</time></trkpt>
<trkpt lat="24.776637" lon="105.362482">
<time>2016-10-06T21:35:15Z</time></trkpt>
<trkpt lat="24.776877" lon="105.362352">
<time>2016-10-06T21:35:16Z</time></trkpt>
<trkpt lat="24.777067" lon="105.362282">
<time>2016-10-06T21:35:17Z</time></trkpt>
<trkpt lat="24.777437" lon="105.362183">
<time>2016-10-06T21:35:18Z</time></trkpt>
<trkpt lat="24.778847" lon="105.361873">
<time>2016-10-06T21:35:19Z</time></trkpt>
<trkpt lat="24.779267" lon="105.361754">
<time>2016-10-06T21:35:20Z</time></trkpt>
<trkpt lat="24.779498" lon="105.361624">
<time>2016-10-06T21:35:21Z</time></trkpt>
<trkpt lat="24.779688" lon="105.361484">
<time>2016-10-06T21:35:22Z</time></trkpt>
<trkpt lat="24.779808" lon="105.361335">
<time>2016-10-06T21:35:23Z</time></trkpt>
<trkpt lat="24.779858" lon="105.361275">
<time>2016-10-06T21:35:24Z</time></trkpt>
<trkpt lat="24.779978" lon="105.361045">
<time>2016-10-06T21:35:25Z</time></trkpt>
<trkpt lat="24.780049" lon="105.360806">
<time>2016-10-06T21:35:26Z</time></trkpt>
<trkpt lat="24.780099" lon="105.360546">
<time>2016-10-06T21:35:27Z</time></trkpt>
<trkpt lat="24.780089" lon="105.360257">
<time>2016-10-06T21:35:28Z</time></trkpt>
<trkpt lat="24.78001" lon="105.359968">
<time>2016-10-06T21:35:29Z</time></trkpt>
<trkpt lat="24.779701" lon="105.35918">
<time>2016-10-06T21:35:30Z</time></trkpt>
<trkpt lat="24.778884" lon="105.357205">
<time>2016-10-06T21:35:31Z</time></trkpt>
<trkpt lat="24.778575" lon="105.356556">
<time>2016-10-06T21:35:32Z</time></trkpt>
<trkpt lat="24.778535" lon="105.356417">
<time>2016-10-06T21:35:33Z</time></trkpt>
<trkpt lat="24.778515" lon="105.356307">
<time>2016-10-06T21:35:34Z</time></trkpt>
<trkpt lat="24.778496" lon="105.356207">
<time>2016-10-06T21:35:35Z</time></trkpt>
<trkpt lat="24.778496" lon="105.356187">
<time>2016-10-06T21:35:36Z</time></trkpt>
<trkpt lat="24.778476" lon="105.356068">
<time>2016-10-06T21:35:37Z</time></trkpt>
<trkpt lat="24.778466" lon="105.355938">
<time>2016-10-06T21:35:38Z</time></trkpt>
<trkpt lat="24.778466" lon="105.355788">
<time>2016-10-06T21:35:39Z</time></trkpt>
<trkpt lat="24.778456" lon="105.355619">
<time>2016-10-06T21:35:40Z</time></trkpt>
<trkpt lat="24.778457" lon="105.35513">
<time>2016-10-06T21:35:41Z</time></trkpt>
<trkpt lat="24.778428" lon="105.354572">
<time>2016-10-06T21:35:42Z</time></trkpt>
<trkpt lat="24.778399" lon="105.353804">
<time>2016-10-06T21:35:43Z</time></trkpt>
<trkpt lat="24.778313" lon="105.351679">
<time>2016-10-06T21:35:44Z</time></trkpt>
<trkpt lat="24.778294" lon="105.351151">
<time>2016-10-06T21:35:45Z</time></trkpt>
<trkpt lat="24.778265" lon="105.350383">
<time>2016-10-06T21:35:46Z</time></trkpt>
<trkpt lat="24.778265" lon="105.350313">
<time>2016-10-06T21:35:47Z</time></trkpt>
<trkpt lat="24.778265" lon="105.350263">
<time>2016-10-06T21:35:48Z</time></trkpt>
<trkpt lat="24.778256" lon="105.349864">
<time>2016-10-06T21:35:49Z</time></trkpt>
<trkpt lat="24.778296" lon="105.349645">
<time>2016-10-06T21:35:50Z</time></trkpt>
<trkpt lat="24.778306" lon="105.349615">
<time>2016-10-06T21:35:51Z</time></trkpt>
<trkpt lat="24.778316" lon="105.349595">
<time>2016-10-06T21:35:52Z</time></trkpt>
<trkpt lat="24.779188" lon="105.348707">
<time>2016-10-06T21:35:53Z</time></trkpt>
<trkpt lat="24.78108" lon="105.347032">
<time>2016-10-06T21:35:54Z</time></trkpt>
<trkpt lat="24.781631" lon="105.346543">
<time>2016-10-06T21:35:55Z</time></trkpt>
<trkpt lat="24.781811" lon="105.346414">
<time>2016-10-06T21:35:56Z</time></trkpt>
<trkpt lat="24.781982" lon="105.346254">
<time>2016-10-06T21:35:57Z</time></trkpt>
<trkpt lat="24.782232" lon="105.346025">
<time>2016-10-06T21:35:58Z</time></trkpt>
<trkpt lat="24.782993" lon="105.345337">
<time>2016-10-06T21:35:59Z</time></trkpt>
<trkpt lat="24.783624" lon="105.344748">
<time>2016-10-06T21:36:00Z</time></trkpt>
<trkpt lat="24.783834" lon="105.344539">
<time>2016-10-06T21:36:01Z</time></trkpt>
<trkpt lat="24.783925" lon="105.344399">
<time>2016-10-06T21:36:02Z</time></trkpt>
<trkpt lat="24.783945" lon="105.344309">
<time>2016-10-06T21:36:03Z</time></trkpt>
<trkpt lat="24.784005" lon="105.34406">
<time>2016-10-06T21:36:04Z</time></trkpt>
<trkpt lat="24.784026" lon="105.343771">
<time>2016-10-06T21:36:05Z</time></trkpt>
<trkpt lat="24.784117" lon="105.342953">
<time>2016-10-06T21:36:06Z</time></trkpt>
<trkpt lat="24.784168" lon="105.342325">
<time>2016-10-06T21:36:07Z</time></trkpt>
<trkpt lat="24.784261" lon="105.341069">
<time>2016-10-06T21:36:08Z</time></trkpt>
<trkpt lat="24.784332" lon="105.340201">
<time>2016-10-06T21:36:09Z</time></trkpt>
<trkpt lat="24.784342" lon="105.340141">
<time>2016-10-06T21:36:10Z</time></trkpt>
<trkpt lat="24.784414" lon="105.339184">
<time>2016-10-06T21:36:11Z</time></trkpt>
<trkpt lat="24.784456" lon="105.338397">
<time>2016-10-06T21:36:12Z</time></trkpt>
<trkpt lat="24.784466" lon="105.338177">
<time>2016-10-06T21:36:13Z</time></trkpt>
<trkpt lat="24.784466" lon="105.338117">
<time>2016-10-06T21:36:14Z</time></trkpt>
<trkpt lat="24.784487" lon="105.337748">
<time>2016-10-06T21:36:15Z</time></trkpt>
<trkpt lat="24.784561" lon="105.335435">
<time>2016-10-06T21:36:16Z</time></trkpt>
<trkpt lat="24.784602" lon="105.334917">
<time>2016-10-06T21:36:17Z</time></trkpt>
<trkpt lat="24.784714" lon="105.33378">
<time>2016-10-06T21:36:18Z</time></trkpt>
<trkpt lat="24.784877" lon="105.332135">
<time>2016-10-06T21:36:19Z</time></trkpt>
<trkpt lat="24.784877" lon="105.332115">
<time>2016-10-06T21:36:20Z</time></trkpt>
<trkpt lat="24.785172" lon="105.329842">
<time>2016-10-06T21:36:21Z</time></trkpt>
<trkpt lat="24.785971" lon="105.324857">
<time>2016-10-06T21:36:22Z</time></trkpt>
<trkpt lat="24.786021" lon="105.324847">
<time>2016-10-06T21:36:23Z</time></trkpt>
<trkpt lat="24.786081" lon="105.324817">
<time>2016-10-06T21:36:24Z</time></trkpt>
<trkpt lat="24.786121" lon="105.324777">
<time>2016-10-06T21:36:25Z</time></trkpt>
<trkpt lat="24.786171" lon="105.324707">
<time>2016-10-06T21:36:26Z</time></trkpt>
<trkpt lat="24.786191" lon="105.324658">
<time>2016-10-06T21:36:27Z</time></trkpt>
<trkpt lat="24.786201" lon="105.324618">
<time>2016-10-06T21:36:28Z</time></trkpt>
<trkpt lat="24.786202" lon="105.324568">
<time>2016-10-06T21:36:29Z</time></trkpt>
<trkpt lat="24.786192" lon="105.324528">
<time>2016-10-06T21:36:30Z</time></trkpt>
<trkpt lat="24.786192" lon="105.324498">
<time>2016-10-06T21:36:31Z</time></trkpt>
<trkpt lat="24.786182" lon="105.324468">
<time>2016-10-06T21:36:32Z</time></trkpt>
<trkpt lat="24.786162" lon="105.324438">
<time>2016-10-06T21:36:33Z</time></trkpt>
<trkpt lat="24.786142" lon="105.324408">
<time>2016-10-06T21:36:34Z</time></trkpt>
<trkpt lat="24.786112" lon="105.324378">
<time>2016-10-06T21:36:35Z</time></trkpt>
<trkpt lat="24.786092" lon="105.324359">
<time>2016-10-06T21:36:36Z</time></trkpt>
<trkpt lat="24.786052" lon="105.324349">
<time>2016-10-06T21:36:37Z</time></trkpt>
<trkpt lat="24.786032" lon="105.324339">
<time>2016-10-06T21:36:38Z</time></trkpt>
<trkpt lat="24.786245" lon="105.322873">
<time>2016-10-06T21:36:39Z</time></trkpt>
<trkpt lat="24.78667" lon="105.320321">
<time>2016-10-06T21:36:40Z</time></trkpt>
<trkpt lat="24.7867" lon="105.320101">
<time>2016-10-06T21:36:41Z</time></trkpt>
<trkpt lat="24.786721" lon="105.319852">
<time>2016-10-06T21:36:42Z</time></trkpt>
<trkpt lat="24.786721" lon="105.319623">
<time>2016-10-06T21:36:43Z</time></trkpt>
<trkpt lat="24.786721" lon="105.319374">
<time>2016-10-06T21:36:44Z</time></trkpt>
<trkpt lat="24.786712" lon="105.319224">
<time>2016-10-06T21:36:45Z</time></trkpt>
<trkpt lat="24.786692" lon="105.319104">
<time>2016-10-06T21:36:46Z</time></trkpt>
<trkpt lat="24.786652" lon="105.318975">
<time>2016-10-06T21:36:47Z</time></trkpt>
<trkpt lat="24.786563" lon="105.318805">
<time>2016-10-06T21:36:48Z</time></trkpt>
<trkpt lat="24.786453" lon="105.318686">
<time>2016-10-06T21:36:49Z</time></trkpt>
<trkpt lat="24.786333" lon="105.318596">
<time>2016-10-06T21:36:50Z</time></trkpt>
<trkpt lat="24.786193" lon="105.318506">
<time>2016-10-06T21:36:51Z</time></trkpt>
<trkpt lat="24.785823" lon="105.318367">
<time>2016-10-06T21:36:52Z</time></trkpt>
<trkpt lat="24.785254" lon="105.318107">
<time>2016-10-06T21:36:53Z</time></trkpt>
<trkpt lat="24.785064" lon="105.317998">
<time>2016-10-06T21:36:54Z</time></trkpt>
<trkpt lat="24.784825" lon="105.317828">
<time>2016-10-06T21:36:55Z</time></trkpt>
<trkpt lat="24.784246" lon="105.31729">
<time>2016-10-06T21:36:56Z</time></trkpt>
<trkpt lat="24.78216" lon="105.315216">
<time>2016-10-06T21:36:57Z</time></trkpt>
<trkpt lat="24.781341" lon="105.314399">
<time>2016-10-06T21:36:58Z</time></trkpt>
<trkpt lat="24.781202" lon="105.314299">
<time>2016-10-06T21:36:59Z</time></trkpt>
<trkpt lat="24.781082" lon="105.314189">
<time>2016-10-06T21:37:00Z</time></trkpt>
<trkpt lat="24.780942" lon="105.31411">
<time>2016-10-06T21:37:01Z</time></trkpt>
<trkpt lat="24.780742" lon="105.31402">
<time>2016-10-06T21:37:02Z</time></trkpt>
<trkpt lat="24.780472" lon="105.31388">
<time>2016-10-06T21:37:03Z</time></trkpt>
<trkpt lat="24.780353" lon="105.313801">
<time>2016-10-06T21:37:04Z</time></trkpt>
<trkpt lat="24.780253" lon="105.313711">
<time>2016-10-06T21:37:05Z</time></trkpt>
<trkpt lat="24.780183" lon="105.313591">
<time>2016-10-06T21:37:06Z</time></trkpt>
<trkpt lat="24.780123" lon="105.313432">
<time>2016-10-06T21:37:07Z</time></trkpt>
<trkpt lat="24.780113" lon="105.313292">
<time>2016-10-06T21:37:08Z</time></trkpt>
<trkpt lat="24.780134" lon="105.313153">
<time>2016-10-06T21:37:09Z</time></trkpt>
<trkpt lat="24.780184" lon="105.312923">
<time>2016-10-06T21:37:10Z</time></trkpt>
<trkpt lat="24.780365" lon="105.312385">
<time>2016-10-06T21:37:11Z</time></trkpt>
<trkpt lat="24.780878" lon="105.310869">
<time>2016-10-06T21:37:12Z</time></trkpt>
<trkpt lat="24.781452" lon="105.308875">
<time>2016-10-06T21:37:13Z</time></trkpt>
<trkpt lat="24.781714" lon="105.307689">
<time>2016-10-06T21:37:14Z</time></trkpt>
<trkpt lat="24.781794" lon="105.30732">
<time>2016-10-06T21:37:15Z</time></trkpt>
<trkpt lat="24.782409" lon="105.304468">
<time>2016-10-06T21:37:16Z</time></trkpt>
<trkpt lat="24.7825" lon="105.304059">
<time>2016-10-06T21:37:17Z</time></trkpt>
<trkpt lat="24.78253" lon="105.3039">
<time>2016-10-06T21:37:18Z</time></trkpt>
<trkpt lat="24.782551" lon="105.30376">
<time>2016-10-06T21:37:19Z</time></trkpt>
<trkpt lat="24.782551" lon="105.30364">
<time>2016-10-06T21:37:20Z</time></trkpt>
<trkpt lat="24.782541" lon="105.303541">
<time>2016-10-06T21:37:21Z</time></trkpt>
<trkpt lat="24.782531" lon="105.303441">
<time>2016-10-06T21:37:22Z</time></trkpt>
<trkpt lat="24.782491" lon="105.303361">
<time>2016-10-06T21:37:23Z</time></trkpt>
<trkpt lat="24.782431" lon="105.303251">
<time>2016-10-06T21:37:24Z</time></trkpt>
<trkpt lat="24.782332" lon="105.303122">
<time>2016-10-06T21:37:25Z</time></trkpt>
<trkpt lat="24.782202" lon="105.303012">
<time>2016-10-06T21:37:26Z</time></trkpt>
<trkpt lat="24.782052" lon="105.302902">
<time>2016-10-06T21:37:27Z</time></trkpt>
<trkpt lat="24.781143" lon="105.302314">
<time>2016-10-06T21:37:28Z</time></trkpt>
<trkpt lat="24.780134" lon="105.301706">
<time>2016-10-06T21:37:29Z</time></trkpt>
<trkpt lat="24.779865" lon="105.301507">
<time>2016-10-06T21:37:30Z</time></trkpt>
<trkpt lat="24.779725" lon="105.301357">
<time>2016-10-06T21:37:31Z</time></trkpt>
<trkpt lat="24.779645" lon="105.301247">
<time>2016-10-06T21:37:32Z</time></trkpt>
<trkpt lat="24.779585" lon="105.301088">
<time>2016-10-06T21:37:33Z</time></trkpt>
<trkpt lat="24.779546" lon="105.300908">
<time>2016-10-06T21:37:34Z</time></trkpt>
<trkpt lat="24.779546" lon="105.300659">
<time>2016-10-06T21:37:35Z</time></trkpt>
<trkpt lat="24.779627" lon="105.30024">
<time>2016-10-06T21:37:36Z</time></trkpt>
<trkpt lat="24.779869" lon="105.298954">
<time>2016-10-06T21:37:37Z</time></trkpt>
<trkpt lat="24.77997" lon="105.298465">
<time>2016-10-06T21:37:38Z</time></trkpt>
<trkpt lat="24.780131" lon="105.297937">
<time>2016-10-06T21:37:39Z</time></trkpt>
<trkpt lat="24.780693" lon="105.296181">
<time>2016-10-06T21:37:40Z</time></trkpt>
<trkpt lat="24.780844" lon="105.295713">
<time>2016-10-06T21:37:41Z</time></trkpt>
<trkpt lat="24.781075" lon="105.295124">
<time>2016-10-06T21:37:42Z</time></trkpt>
<trkpt lat="24.781346" lon="105.294586">
<time>2016-10-06T21:37:43Z</time></trkpt>
<trkpt lat="24.781607" lon="105.294107">
<time>2016-10-06T21:37:44Z</time></trkpt>
<trkpt lat="24.781687" lon="105.293917">
<time>2016-10-06T21:37:45Z</time></trkpt>
<trkpt lat="24.781727" lon="105.293698">
<time>2016-10-06T21:37:46Z</time></trkpt>
<trkpt lat="24.781738" lon="105.293479">
<time>2016-10-06T21:37:47Z</time></trkpt>
<trkpt lat="24.781728" lon="105.29306">
<time>2016-10-06T21:37:48Z</time></trkpt>
<trkpt lat="24.781621" lon="105.290955">
<time>2016-10-06T21:37:49Z</time></trkpt>
<trkpt lat="24.781592" lon="105.290257">
<time>2016-10-06T21:37:50Z</time></trkpt>
<trkpt lat="24.781613" lon="105.289998">
<time>2016-10-06T21:37:51Z</time></trkpt>
<trkpt lat="24.781613" lon="105.289858">
<time>2016-10-06T21:37:52Z</time></trkpt>
<trkpt lat="24.781633" lon="105.289748">
<time>2016-10-06T21:37:53Z</time></trkpt>
<trkpt lat="24.781674" lon="105.289479">
<time>2016-10-06T21:37:54Z</time></trkpt>
<trkpt lat="24.781754" lon="105.28899">
<time>2016-10-06T21:37:55Z</time></trkpt>
<trkpt lat="24.781835" lon="105.288442">
<time>2016-10-06T21:37:56Z</time></trkpt>
<trkpt lat="24.781845" lon="105.288222">
<time>2016-10-06T21:37:57Z</time></trkpt>
<trkpt lat="24.781826" lon="105.287923">
<time>2016-10-06T21:37:58Z</time></trkpt>
<trkpt lat="24.781766" lon="105.287524">
<time>2016-10-06T21:37:59Z</time></trkpt>
<trkpt lat="24.781667" lon="105.286945">
<time>2016-10-06T21:38:00Z</time></trkpt>
<trkpt lat="24.781647" lon="105.286736">
<time>2016-10-06T21:38:01Z</time></trkpt>
<trkpt lat="24.781628" lon="105.286526">
<time>2016-10-06T21:38:02Z</time></trkpt>
<trkpt lat="24.781668" lon="105.286287">
<time>2016-10-06T21:38:03Z</time></trkpt>
<trkpt lat="24.781718" lon="105.286068">
<time>2016-10-06T21:38:04Z</time></trkpt>
<trkpt lat="24.781768" lon="105.285948">
<time>2016-10-06T21:38:05Z</time></trkpt>
<trkpt lat="24.781829" lon="105.285798">
<time>2016-10-06T21:38:06Z</time></trkpt>
<trkpt lat="24.781919" lon="105.285668">
<time>2016-10-06T21:38:07Z</time></trkpt>
<trkpt lat="24.782099" lon="105.285429">
<time>2016-10-06T21:38:08Z</time></trkpt>
<trkpt lat="24.782299" lon="105.285249">
<time>2016-10-06T21:38:09Z</time></trkpt>
<trkpt lat="24.78249" lon="105.28507">
<time>2016-10-06T21:38:10Z</time></trkpt>
<trkpt lat="24.78263" lon="105.2849">
<time>2016-10-06T21:38:11Z</time></trkpt>
<trkpt lat="24.78277" lon="105.284671">
<time>2016-10-06T21:38:12Z</time></trkpt>
<trkpt lat="24.78286" lon="105.284402">
<time>2016-10-06T21:38:13Z</time></trkpt>
<trkpt lat="24.783052" lon="105.283593">
<time>2016-10-06T21:38:14Z</time></trkpt>
<trkpt lat="24.783062" lon="105.283394">
<time>2016-10-06T21:38:15Z</time></trkpt>
<trkpt lat="24.783052" lon="105.283224">
<time>2016-10-06T21:38:16Z</time></trkpt>
<trkpt lat="24.783022" lon="105.283085">
<time>2016-10-06T21:38:17Z</time></trkpt>
<trkpt lat="24.782972" lon="105.282935">
<time>2016-10-06T21:38:18Z</time></trkpt>
<trkpt lat="24.782803" lon="105.282566">
<time>2016-10-06T21:38:19Z</time></trkpt>
<trkpt lat="24.782673" lon="105.282267">
<time>2016-10-06T21:38:20Z</time></trkpt>
<trkpt lat="24.782633" lon="105.282067">
<time>2016-10-06T21:38:21Z</time></trkpt>
<trkpt lat="24.782614" lon="105.281808">
<time>2016-10-06T21:38:22Z</time></trkpt>
<trkpt lat="24.782644" lon="105.281548">
<time>2016-10-06T21:38:23Z</time></trkpt>
<trkpt lat="24.782835" lon="105.281079">
<time>2016-10-06T21:38:24Z</time></trkpt>
<trkpt lat="24.783226" lon="105.280122">
<time>2016-10-06T21:38:25Z</time></trkpt>
<trkpt lat="24.783286" lon="105.279902">
<time>2016-10-06T21:38:26Z</time></trkpt>
<trkpt lat="24.783286" lon="105.279653">
<time>2016-10-06T21:38:27Z</time></trkpt>
<trkpt lat="24.783237" lon="105.279403">
<time>2016-10-06T21:38:28Z</time></trkpt>
<trkpt lat="24.783117" lon="105.279174">
<time>2016-10-06T21:38:29Z</time></trkpt>
<trkpt lat="24.782897" lon="105.278884">
<time>2016-10-06T21:38:30Z</time></trkpt>
<trkpt lat="24.782048" lon="105.277917">
<time>2016-10-06T21:38:31Z</time></trkpt>
<trkpt lat="24.781989" lon="105.277817">
<time>2016-10-06T21:38:32Z</time></trkpt>
<trkpt lat="24.781959" lon="105.277757">
<time>2016-10-06T21:38:33Z</time></trkpt>
<trkpt lat="24.781899" lon="105.277557">
<time>2016-10-06T21:38:34Z</time></trkpt>
<trkpt lat="24.781929" lon="105.277258">
<time>2016-10-06T21:38:35Z</time></trkpt>
<trkpt lat="24.781999" lon="105.277058">
<time>2016-10-06T21:38:36Z</time></trkpt>
<trkpt lat="24.78218" lon="105.276809">
<time>2016-10-06T21:38:37Z</time></trkpt>
<trkpt lat="24.78236" lon="105.27655">
<time>2016-10-06T21:38:38Z</time></trkpt>
<trkpt lat="24.78245" lon="105.27635">
<time>2016-10-06T21:38:39Z</time></trkpt>
<trkpt lat="24.78252" lon="105.276091">
<time>2016-10-06T21:38:40Z</time></trkpt>
<trkpt lat="24.782541" lon="105.275851">
<time>2016-10-06T21:38:41Z</time></trkpt>
<trkpt lat="24.782541" lon="105.275592">
<time>2016-10-06T21:38:42Z</time></trkpt>
<trkpt lat="24.782511" lon="105.275342">
<time>2016-10-06T21:38:43Z</time></trkpt>
<trkpt lat="24.782442" lon="105.275003">
<time>2016-10-06T21:38:44Z</time></trkpt>
<trkpt lat="24.782432" lon="105.274833">
<time>2016-10-06T21:38:45Z</time></trkpt>
<trkpt lat="24.782442" lon="105.274674">
<time>2016-10-06T21:38:46Z</time></trkpt>
<trkpt lat="24.782512" lon="105.274474">
<time>2016-10-06T21:38:47Z</time></trkpt>
<trkpt lat="24.782652" lon="105.274244">
<time>2016-10-06T21:38:48Z</time></trkpt>
<trkpt lat="24.782802" lon="105.274005">
<time>2016-10-06T21:38:49Z</time></trkpt>
<trkpt lat="24.782893" lon="105.273795">
<time>2016-10-06T21:38:50Z</time></trkpt>
<trkpt lat="24.782933" lon="105.273576">
<time>2016-10-06T21:38:51Z</time></trkpt>
<trkpt lat="24.782983" lon="105.273117">
<time>2016-10-06T21:38:52Z</time></trkpt>
<trkpt lat="24.783024" lon="105.272518">
<time>2016-10-06T21:38:53Z</time></trkpt>
<trkpt lat="24.783044" lon="105.272388">
<time>2016-10-06T21:38:54Z</time></trkpt>
<trkpt lat="24.783094" lon="105.272239">
<time>2016-10-06T21:38:55Z</time></trkpt>
<trkpt lat="24.783134" lon="105.272129">
<time>2016-10-06T21:38:56Z</time></trkpt>
<trkpt lat="24.783184" lon="105.272039">
<time>2016-10-06T21:38:57Z</time></trkpt>
<trkpt lat="24.783254" lon="105.271959">
<time>2016-10-06T21:38:58Z</time></trkpt>
<trkpt lat="24.783324" lon="105.271899">
<time>2016-10-06T21:38:59Z</time></trkpt>
<trkpt lat="24.783635" lon="105.27171">
<time>2016-10-06T21:39:00Z</time></trkpt>
<trkpt lat="24.784025" lon="105.27152">
<time>2016-10-06T21:39:01Z</time></trkpt>
<trkpt lat="24.784145" lon="105.27144">
<time>2016-10-06T21:39:02Z</time></trkpt>
<trkpt lat="24.784205" lon="105.27138">
<time>2016-10-06T21:39:03Z</time></trkpt>
<trkpt lat="24.784285" lon="105.27128">
<time>2016-10-06T21:39:04Z</time></trkpt>
<trkpt lat="24.784315" lon="105.271211">
<time>2016-10-06T21:39:05Z</time></trkpt>
<trkpt lat="24.784345" lon="105.271121">
<time>2016-10-06T21:39:06Z</time></trkpt>
<trkpt lat="24.784355" lon="105.271031">
<time>2016-10-06T21:39:07Z</time></trkpt>
<trkpt lat="24.784345" lon="105.270941">
<time>2016-10-06T21:39:08Z</time></trkpt>
<trkpt lat="24.784325" lon="105.270861">
<time>2016-10-06T21:39:09Z</time></trkpt>
<trkpt lat="24.784285" lon="105.270771">
<time>2016-10-06T21:39:10Z</time></trkpt>
<trkpt lat="24.784216" lon="105.270672">
<time>2016-10-06T21:39:11Z</time></trkpt>
<trkpt lat="24.783976" lon="105.270432">
<time>2016-10-06T21:39:12Z</time></trkpt>
<trkpt lat="24.783326" lon="105.269863">
<time>2016-10-06T21:39:13Z</time></trkpt>
<trkpt lat="24.783146" lon="105.269713">
<time>2016-10-06T21:39:14Z</time></trkpt>
<trkpt lat="24.783076" lon="105.269654">
<time>2016-10-06T21:39:15Z</time></trkpt>
<trkpt lat="24.783037" lon="105.269604">
<time>2016-10-06T21:39:16Z</time></trkpt>
<trkpt lat="24.782997" lon="105.269544">
<time>2016-10-06T21:39:17Z</time></trkpt>
<trkpt lat="24.782967" lon="105.269474">
<time>2016-10-06T21:39:18Z</time></trkpt>
<trkpt lat="24.782957" lon="105.269384">
<time>2016-10-06T21:39:19Z</time></trkpt>
<trkpt lat="24.782957" lon="105.269314">
<time>2016-10-06T21:39:20Z</time></trkpt>
<trkpt lat="24.782977" lon="105.269244">
<time>2016-10-06T21:39:21Z</time></trkpt>
<trkpt lat="24.782997" lon="105.269185">
<time>2016-10-06T21:39:22Z</time></trkpt>
<trkpt lat="24.783037" lon="105.269115">
<time>2016-10-06T21:39:23Z</time></trkpt>
<trkpt lat="24.783277" lon="105.268815">
<time>2016-10-06T21:39:24Z</time></trkpt>
<trkpt lat="24.783498" lon="105.268296">
<time>2016-10-06T21:39:25Z</time></trkpt>
<trkpt lat="24.783558" lon="105.268206">
<time>2016-10-06T21:39:26Z</time></trkpt>
<trkpt lat="24.783608" lon="105.268146">
<time>2016-10-06T21:39:27Z</time></trkpt>
<trkpt lat="24.783678" lon="105.268087">
<time>2016-10-06T21:39:28Z</time></trkpt>
<trkpt lat="24.783718" lon="105.268057">
<time>2016-10-06T21:39:29Z</time></trkpt>
<trkpt lat="24.783758" lon="105.268047">
<time>2016-10-06T21:39:30Z</time></trkpt>
<trkpt lat="24.783798" lon="105.268047">
<time>2016-10-06T21:39:31Z</time></trkpt>
<trkpt lat="24.783838" lon="105.268047">
<time>2016-10-06T21:39:32Z</time></trkpt>
<trkpt lat="24.783888" lon="105.268067">
<time>2016-10-06T21:39:33Z</time></trkpt>
<trkpt lat="24.783948" lon="105.268097">
<time>2016-10-06T21:39:34Z</time></trkpt>
<trkpt lat="24.783988" lon="105.268136">
<time>2016-10-06T21:39:35Z</time></trkpt>
<trkpt lat="24.784088" lon="105.268256">
<time>2016-10-06T21:39:36Z</time></trkpt>
<trkpt lat="24.784167" lon="105.268346">
<time>2016-10-06T21:39:37Z</time></trkpt>
<trkpt lat="24.784297" lon="105.268446">
<time>2016-10-06T21:39:38Z</time></trkpt>
<trkpt lat="24.784397" lon="105.268476">
<time>2016-10-06T21:39:39Z</time></trkpt>
<trkpt lat="24.784767" lon="105.268496">
<time>2016-10-06T21:39:40Z</time></trkpt>
<trkpt lat="24.785077" lon="105.268496">
<time>2016-10-06T21:39:41Z</time></trkpt>
<trkpt lat="24.785217" lon="105.268486">
<time>2016-10-06T21:39:42Z</time></trkpt>
<trkpt lat="24.785287" lon="105.268456">
<time>2016-10-06T21:39:43Z</time></trkpt>
<trkpt lat="24.785407" lon="105.268406">
<time>2016-10-06T21:39:44Z</time></trkpt>
<trkpt lat="24.785557" lon="105.268326">
<time>2016-10-06T21:39:45Z</time></trkpt>
<trkpt lat="24.785697" lon="105.268196">
<time>2016-10-06T21:39:46Z</time></trkpt>
<trkpt lat="24.785828" lon="105.268056">
<time>2016-10-06T21:39:47Z</time></trkpt>
<trkpt lat="24.785958" lon="105.267887">
<time>2016-10-06T21:39:48Z</time></trkpt>
<trkpt lat="24.786088" lon="105.267667">
<time>2016-10-06T21:39:49Z</time></trkpt>
<trkpt lat="24.786158" lon="105.267527">
<time>2016-10-06T21:39:50Z</time></trkpt>
<trkpt lat="24.786338" lon="105.267088">
<time>2016-10-06T21:39:51Z</time></trkpt>
<trkpt lat="24.786749" lon="105.26612">
<time>2016-10-06T21:39:52Z</time></trkpt>
<trkpt lat="24.78724" lon="105.265082">
<time>2016-10-06T21:39:53Z</time></trkpt>
<trkpt lat="24.78739" lon="105.264752">
<time>2016-10-06T21:39:54Z</time></trkpt>
<trkpt lat="24.78746" lon="105.264663">
<time>2016-10-06T21:39:55Z</time></trkpt>
<trkpt lat="24.78757" lon="105.264543">
<time>2016-10-06T21:39:56Z</time></trkpt>
<trkpt lat="24.7878" lon="105.264313">
<time>2016-10-06T21:39:57Z</time></trkpt>
<trkpt lat="24.78812" lon="105.264004">
<time>2016-10-06T21:39:58Z</time></trkpt>
<trkpt lat="24.78818" lon="105.263924">
<time>2016-10-06T21:39:59Z</time></trkpt>
<trkpt lat="24.78825" lon="105.263774">
<time>2016-10-06T21:40:00Z</time></trkpt>
<trkpt lat="24.788301" lon="105.263624">
<time>2016-10-06T21:40:01Z</time></trkpt>
<trkpt lat="24.788371" lon="105.263395">
<time>2016-10-06T21:40:02Z</time></trkpt>
<trkpt lat="24.788391" lon="105.263325">
<time>2016-10-06T21:40:03Z</time></trkpt>
<trkpt lat="24.788461" lon="105.263185">
<time>2016-10-06T21:40:04Z</time></trkpt>
<trkpt lat="24.788551" lon="105.263045">
<time>2016-10-06T21:40:05Z</time></trkpt>
<trkpt lat="24.788651" lon="105.262925">
<time>2016-10-06T21:40:06Z</time></trkpt>
<trkpt lat="24.788821" lon="105.262746">
<time>2016-10-06T21:40:07Z</time></trkpt>
<trkpt lat="24.789001" lon="105.262616">
<time>2016-10-06T21:40:08Z</time></trkpt>
<trkpt lat="24.789341" lon="105.262476">
<time>2016-10-06T21:40:09Z</time></trkpt>
<trkpt lat="24.789521" lon="105.262386">
<time>2016-10-06T21:40:10Z</time></trkpt>
<trkpt lat="24.789591" lon="105.262336">
<time>2016-10-06T21:40:11Z</time></trkpt>
<trkpt lat="24.789681" lon="105.262266">
<time>2016-10-06T21:40:12Z</time></trkpt>
<trkpt lat="24.789841" lon="105.262137">
<time>2016-10-06T21:40:13Z</time></trkpt>
<trkpt lat="24.790281" lon="105.261797">
<time>2016-10-06T21:40:14Z</time></trkpt>
<trkpt lat="24.790391" lon="105.261737">
<time>2016-10-06T21:40:15Z</time></trkpt>
<trkpt lat="24.790531" lon="105.261697">
<time>2016-10-06T21:40:16Z</time></trkpt>
<trkpt lat="24.790711" lon="105.261667">
<time>2016-10-06T21:40:17Z</time></trkpt>
<trkpt lat="24.790981" lon="105.261657">
<time>2016-10-06T21:40:18Z</time></trkpt>
<trkpt lat="24.791241" lon="105.261667">
<time>2016-10-06T21:40:19Z</time></trkpt>
<trkpt lat="24.791381" lon="105.261687">
<time>2016-10-06T21:40:20Z</time></trkpt>
<trkpt lat="24.791461" lon="105.261727">
<time>2016-10-06T21:40:21Z</time></trkpt>
<trkpt lat="24.791551" lon="105.261777">
<time>2016-10-06T21:40:22Z</time></trkpt>
<trkpt lat="24.791651" lon="105.261867">
<time>2016-10-06T21:40:23Z</time></trkpt>
<trkpt lat="24.791731" lon="105.261947">
<time>2016-10-06T21:40:24Z</time></trkpt>
<trkpt lat="24.791841" lon="105.262037">
<time>2016-10-06T21:40:25Z</time></trkpt>
<trkpt lat="24.791931" lon="105.262077">
<time>2016-10-06T21:40:26Z</time></trkpt>
<trkpt lat="24.792031" lon="105.262097">
<time>2016-10-06T21:40:27Z</time></trkpt>
<trkpt lat="24.792141" lon="105.262087">
<time>2016-10-06T21:40:28Z</time></trkpt>
<trkpt lat="24.792191" lon="105.262087">
<time>2016-10-06T21:40:29Z</time></trkpt>
<trkpt lat="24.792391" lon="105.262037">
<time>2016-10-06T21:40:30Z</time></trkpt>
<trkpt lat="24.792891" lon="105.261857">
<time>2016-10-06T21:40:31Z</time></trkpt>
<trkpt lat="24.793041" lon="105.261807">
<time>2016-10-06T21:40:32Z</time></trkpt>
<trkpt lat="24.793351" lon="105.261687">
<time>2016-10-06T21:40:33Z</time></trkpt>
<trkpt lat="24.793461" lon="105.261657">
<time>2016-10-06T21:40:34Z</time></trkpt>
<trkpt lat="24.793571" lon="105.261637">
<time>2016-10-06T21:40:35Z</time></trkpt>
<trkpt lat="24.793641" lon="105.261637">
<time>2016-10-06T21:40:36Z</time></trkpt>
<trkpt lat="24.793731" lon="105.261647">
<time>2016-10-06T21:40:37Z</time></trkpt>
<trkpt lat="24.793861" lon="105.261687">
<time>2016-10-06T21:40:38Z</time></trkpt>
<trkpt lat="24.793961" lon="105.261727">
<time>2016-10-06T21:40:39Z</time></trkpt>
<trkpt lat="24.794071" lon="105.261797">
<time>2016-10-06T21:40:40Z</time></trkpt>
<trkpt lat="24.794271" lon="105.261967">
<time>2016-10-06T21:40:41Z</time></trkpt>
<trkpt lat="24.794431" lon="105.262117">
<time>2016-10-06T21:40:42Z</time></trkpt>
<trkpt lat="24.794541" lon="105.262206">
<time>2016-10-06T21:40:43Z</time></trkpt>
<trkpt lat="24.794641" lon="105.262256">
<time>2016-10-06T21:40:44Z</time></trkpt>
<trkpt lat="24.794741" lon="105.262276">
<time>2016-10-06T21:40:45Z</time></trkpt>
<trkpt lat="24.794931" lon="105.262266">
<time>2016-10-06T21:40:46Z</time></trkpt>
<trkpt lat="24.795271" lon="105.262196">
<time>2016-10-06T21:40:47Z</time></trkpt>
<trkpt lat="24.795451" lon="105.262116">
<time>2016-10-06T21:40:48Z</time></trkpt>
<trkpt lat="24.795551" lon="105.262037">
<time>2016-10-06T21:40:49Z</time></trkpt>
<trkpt lat="24.795641" lon="105.261927">
<time>2016-10-06T21:40:50Z</time></trkpt>
<trkpt lat="24.795751" lon="105.261767">
<time>2016-10-06T21:40:51Z</time></trkpt>
<trkpt lat="24.795851" lon="105.261667">
<time>2016-10-06T21:40:52Z</time></trkpt>
<trkpt lat="24.795991" lon="105.261577">
<time>2016-10-06T21:40:53Z</time></trkpt>
<trkpt lat="24.796171" lon="105.261527">
<time>2016-10-06T21:40:54Z</time></trkpt>
<trkpt lat="24.796331" lon="105.261507">
<time>2016-10-06T21:40:55Z</time></trkpt>
<trkpt lat="24.796441" lon="105.261457">
<time>2016-10-06T21:40:56Z</time></trkpt>
<trkpt lat="24.796521" lon="105.261368">
<time>2016-10-06T21:40:57Z</time></trkpt>
<trkpt lat="24.796611" lon="105.261238">
<time>2016-10-06T21:40:58Z</time></trkpt>
<trkpt lat="24.796681" lon="105.261078">
<time>2016-10-06T21:40:59Z</time></trkpt>
<trkpt lat="24.796771" lon="105.260938">
<time>2016-10-06T21:41:00Z</time></trkpt>
<trkpt lat="24.796841" lon="105.260858">
<time>2016-10-06T21:41:01Z</time></trkpt>
<trkpt lat="24.796941" lon="105.260779">
<time>2016-10-06T21:41:02Z</time></trkpt>
<trkpt lat="24.797031" lon="105.260719">
<time>2016-10-06T21:41:03Z</time></trkpt>
<trkpt lat="24.797161" lon="105.260679">
<time>2016-10-06T21:41:04Z</time></trkpt>
<trkpt lat="24.797271" lon="105.260669">
<time>2016-10-06T21:41:05Z</time></trkpt>
<trkpt lat="24.797371" lon="105.260679">
<time>2016-10-06T21:41:06Z</time></trkpt>
<trkpt lat="24.797521" lon="105.260709">
<time>2016-10-06T21:41:07Z</time></trkpt>
<trkpt lat="24.797691" lon="105.260779">
<time>2016-10-06T21:41:08Z</time></trkpt>
<trkpt lat="24.797871" lon="105.260838">
<time>2016-10-06T21:41:09Z</time></trkpt>
<trkpt lat="24.797971" lon="105.260868">
<time>2016-10-06T21:41:10Z</time></trkpt>
<trkpt lat="24.798061" lon="105.260868">
<time>2016-10-06T21:41:11Z</time></trkpt>
<trkpt lat="24.798171" lon="105.260858">
<time>2016-10-06T21:41:12Z</time></trkpt>
<trkpt lat="24.798271" lon="105.260828">
<time>2016-10-06T21:41:13Z</time></trkpt>
<trkpt lat="24.798481" lon="105.260729">
<time>2016-10-06T21:41:14Z</time></trkpt>
<trkpt lat="24.798641" lon="105.260679">
<time>2016-10-06T21:41:15Z</time></trkpt>
<trkpt lat="24.798751" lon="105.260659">
<time>2016-10-06T21:41:16Z</time></trkpt>
<trkpt lat="24.798831" lon="105.260649">
<time>2016-10-06T21:41:17Z</time></trkpt>
<trkpt lat="24.798951" lon="105.260669">
<time>2016-10-06T21:41:18Z</time></trkpt>
<trkpt lat="24.799071" lon="105.260709">
<time>2016-10-06T21:41:19Z</time></trkpt>
<trkpt lat="24.799161" lon="105.260758">
<time>2016-10-06T21:41:20Z</time></trkpt>
<trkpt lat="24.799261" lon="105.260818">
<time>2016-10-06T21:41:21Z</time></trkpt>
<trkpt lat="24.799461" lon="105.260958">
<time>2016-10-06T21:41:22Z</time></trkpt>
<trkpt lat="24.799611" lon="105.261048">
<time>2016-10-06T21:41:23Z</time></trkpt>
<trkpt lat="24.799741" lon="105.261098">
<time>2016-10-06T21:41:24Z</time></trkpt>
<trkpt lat="24.799871" lon="105.261128">
<time>2016-10-06T21:41:25Z</time></trkpt>
<trkpt lat="24.799981" lon="105.261148">
<time>2016-10-06T21:41:26Z</time></trkpt>
<trkpt lat="24.800141" lon="105.261148">
<time>2016-10-06T21:41:27Z</time></trkpt>
<trkpt lat="24.800341" lon="105.261138">
<time>2016-10-06T21:41:28Z</time></trkpt>
<trkpt lat="24.800611" lon="105.261138">
<time>2016-10-06T21:41:29Z</time></trkpt>
<trkpt lat="24.800791" lon="105.261158">
<time>2016-10-06T21:41:30Z</time></trkpt>
<trkpt lat="24.801041" lon="105.261198">
<time>2016-10-06T21:41:31Z</time></trkpt>
<trkpt lat="24.801231" lon="105.261258">
<time>2016-10-06T21:41:32Z</time></trkpt>
<trkpt lat="24.801431" lon="105.261317">
<time>2016-10-06T21:41:33Z</time></trkpt>
<trkpt lat="24.801521" lon="105.261337">
<time>2016-10-06T21:41:34Z</time></trkpt>
<trkpt lat="24.801591" lon="105.261347">
<time>2016-10-06T21:41:35Z</time></trkpt>
<trkpt lat="24.801641" lon="105.261347">
<time>2016-10-06T21:41:36Z</time></trkpt>
<trkpt lat="24.801701" lon="105.261347">
<time>2016-10-06T21:41:37Z</time></trkpt>
<trkpt lat="24.801761" lon="105.261337">
<time>2016-10-06T21:41:38Z</time></trkpt>
<trkpt lat="24.801811" lon="105.261317">
<time>2016-10-06T21:41:39Z</time></trkpt>
<trkpt lat="24.801861" lon="105.261298">
<time>2016-10-06T21:41:40Z</time></trkpt>
<trkpt lat="24.801911" lon="105.261258">
<time>2016-10-06T21:41:41Z</time></trkpt>
<trkpt lat="24.801971" lon="105.261218">
<time>2016-10-06T21:41:42Z</time></trkpt>
<trkpt lat="24.802131" lon="105.261048">
<time>2016-10-06T21:41:43Z</time></trkpt>
<trkpt lat="24.802281" lon="105.260928">
<time>2016-10-06T21:41:44Z</time></trkpt>
<trkpt lat="24.802401" lon="105.260848">
<time>2016-10-06T21:41:45Z</time></trkpt>
<trkpt lat="24.802571" lon="105.260778">
<time>2016-10-06T21:41:46Z</time></trkpt>
<trkpt lat="24.802731" lon="105.260748">
<time>2016-10-06T21:41:47Z</time></trkpt>
<trkpt lat="24.802881" lon="105.260758">
<time>2016-10-06T21:41:48Z</time></trkpt>
<trkpt lat="24.803091" lon="105.260788">
<time>2016-10-06T21:41:49Z</time></trkpt>
<trkpt lat="24.803461" lon="105.260868">
<time>2016-10-06T21:41:50Z</time></trkpt>
<trkpt lat="24.803631" lon="105.260888">
<time>2016-10-06T21:41:51Z</time></trkpt>
<trkpt lat="24.803721" lon="105.260898">
<time>2016-10-06T21:41:52Z</time></trkpt>
<trkpt lat="24.803821" lon="105.260898">
<time>2016-10-06T21:41:53Z</time></trkpt>
<trkpt lat="24.803931" lon="105.260878">
<time>2016-10-06T21:41:54Z</time></trkpt>
<trkpt lat="24.804041" lon="105.260848">
<time>2016-10-06T21:41:55Z</time></trkpt>
<trkpt lat="24.804131" lon="105.260808">
<time>2016-10-06T21:41:56Z</time></trkpt>
<trkpt lat="24.804201" lon="105.260778">
<time>2016-10-06T21:41:57Z</time></trkpt>
<trkpt lat="24.804261" lon="105.260738">
<time>2016-10-06T21:41:58Z</time></trkpt>
<trkpt lat="24.804301" lon="105.260698">
<time>2016-10-06T21:41:59Z</time></trkpt>
<trkpt lat="24.804371" lon="105.260628">
<time>2016-10-06T21:42:00Z</time></trkpt>
<trkpt lat="24.804601" lon="105.260389">
<time>2016-10-06T21:42:01Z</time></trkpt>
<trkpt lat="24.805261" lon="105.25982">
<time>2016-10-06T21:42:02Z</time></trkpt>
<trkpt lat="24.805791" lon="105.25935">
<time>2016-10-06T21:42:03Z</time></trkpt>
<trkpt lat="24.805891" lon="105.259261">
<time>2016-10-06T21:42:04Z</time></trkpt>
<trkpt lat="24.805961" lon="105.259221">
<time>2016-10-06T21:42:05Z</time></trkpt>
<trkpt lat="24.806021" lon="105.259181">
<time>2016-10-06T21:42:06Z</time></trkpt>
<trkpt lat="24.806081" lon="105.259151">
<time>2016-10-06T21:42:07Z</time></trkpt>
<trkpt lat="24.806151" lon="105.259121">
<time>2016-10-06T21:42:08Z</time></trkpt>
<trkpt lat="24.806271" lon="105.259101">
<time>2016-10-06T21:42:09Z</time></trkpt>
<trkpt lat="24.806401" lon="105.259081">
<time>2016-10-06T21:42:10Z</time></trkpt>
<trkpt lat="24.806481" lon="105.259061">
<time>2016-10-06T21:42:11Z</time></trkpt>
<trkpt lat="24.806561" lon="105.259041">
<time>2016-10-06T21:42:12Z</time></trkpt>
<trkpt lat="24.806641" lon="105.259001">
<time>2016-10-06T21:42:13Z</time></trkpt>
<trkpt lat="24.806691" lon="105.258971">
<time>2016-10-06T21:42:14Z</time></trkpt>
<trkpt lat="24.806761" lon="105.258921">
<time>2016-10-06T21:42:15Z</time></trkpt>
<trkpt lat="24.806811" lon="105.258881">
<time>2016-10-06T21:42:16Z</time></trkpt>
<trkpt lat="24.806851" lon="105.258851">
<time>2016-10-06T21:42:17Z</time></trkpt>
<trkpt lat="24.806932" lon="105.258781">
<time>2016-10-06T21:42:18Z</time></trkpt>
<trkpt lat="24.807022" lon="105.258671">
<time>2016-10-06T21:42:19Z</time></trkpt>
<trkpt lat="24.807132" lon="105.258542">
<time>2016-10-06T21:42:20Z</time></trkpt>
<trkpt lat="24.807172" lon="105.258472">
<time>2016-10-06T21:42:21Z</time></trkpt>
<trkpt lat="24.807222" lon="105.258382">
<time>2016-10-06T21:42:22Z</time></trkpt>
<trkpt lat="24.807272" lon="105.258272">
<time>2016-10-06T21:42:23Z</time></trkpt>
<trkpt lat="24.807322" lon="105.258142">
<time>2016-10-06T21:42:24Z</time></trkpt>
<trkpt lat="24.807492" lon="105.257513">
<time>2016-10-06T21:42:25Z</time></trkpt>
<trkpt lat="24.807532" lon="105.257403">
<time>2016-10-06T21:42:26Z</time></trkpt>
<trkpt lat="24.807572" lon="105.257343">
<time>2016-10-06T21:42:27Z</time></trkpt>
<trkpt lat="24.807622" lon="105.257253">
<time>2016-10-06T21:42:28Z</time></trkpt>
<trkpt lat="24.807682" lon="105.257184">
<time>2016-10-06T21:42:29Z</time></trkpt>
<trkpt lat="24.807762" lon="105.257124">
<time>2016-10-06T21:42:30Z</time></trkpt>
<trkpt lat="24.807872" lon="105.257044">
<time>2016-10-06T21:42:31Z</time></trkpt>
<trkpt lat="24.808052" lon="105.256944">
<time>2016-10-06T21:42:32Z</time></trkpt>
<trkpt lat="24.808312" lon="105.256824">
<time>2016-10-06T21:42:33Z</time></trkpt>
<trkpt lat="24.808392" lon="105.256794">
<time>2016-10-06T21:42:34Z</time></trkpt>
<trkpt lat="24.808472" lon="105.256764">
<time>2016-10-06T21:42:35Z</time></trkpt>
<trkpt lat="24.808562" lon="105.256764">
<time>2016-10-06T21:42:36Z</time></trkpt>
<trkpt lat="24.808652" lon="105.256774">
<time>2016-10-06T21:42:37Z</time></trkpt>
<trkpt lat="24.808762" lon="105.256794">
<time>2016-10-06T21:42:38Z</time></trkpt>
<trkpt lat="24.808972" lon="105.256894">
<time>2016-10-06T21:42:39Z</time></trkpt>
<trkpt lat="24.809122" lon="105.256944">
<time>2016-10-06T21:42:40Z</time></trkpt>
<trkpt lat="24.809182" lon="105.256954">
<time>2016-10-06T21:42:41Z</time></trkpt>
<trkpt lat="24.809242" lon="105.256964">
<time>2016-10-06T21:42:42Z</time></trkpt>
<trkpt lat="24.809332" lon="105.256964">
<time>2016-10-06T21:42:43Z</time></trkpt>
<trkpt lat="24.809422" lon="105.256954">
<time>2016-10-06T21:42:44Z</time></trkpt>
<trkpt lat="24.809472" lon="105.256944">
<time>2016-10-06T21:42:45Z</time></trkpt>
<trkpt lat="24.809572" lon="105.256924">
<time>2016-10-06T21:42:46Z</time></trkpt>
<trkpt lat="24.809692" lon="105.256874">
<time>2016-10-06T21:42:47Z</time></trkpt>
<trkpt lat="24.809822" lon="105.256794">
<time>2016-10-06T21:42:48Z</time></trkpt>
<trkpt lat="24.810062" lon="105.256624">
<time>2016-10-06T21:42:49Z</time></trkpt>
<trkpt lat="24.810222" lon="105.256494">
<time>2016-10-06T21:42:50Z</time></trkpt>
<trkpt lat="24.810322" lon="105.256414">
<time>2016-10-06T21:42:51Z</time></trkpt>
<trkpt lat="24.810442" lon="105.256305">
<time>2016-10-06T21:42:52Z</time></trkpt>
<trkpt lat="24.810502" lon="105.256225">
<time>2016-10-06T21:42:53Z</time></trkpt>
<trkpt lat="24.810562" lon="105.256135">
<time>2016-10-06T21:42:54Z</time></trkpt>
<trkpt lat="24.810612" lon="105.256055">
<time>2016-10-06T21:42:55Z</time></trkpt>
<trkpt lat="24.810662" lon="105.255955">
<time>2016-10-06T21:42:56Z</time></trkpt>
<trkpt lat="24.810702" lon="105.255865">
<time>2016-10-06T21:42:57Z</time></trkpt>
<trkpt lat="24.810752" lon="105.255765">
<time>2016-10-06T21:42:58Z</time></trkpt>
<trkpt lat="24.810782" lon="105.255676">
<time>2016-10-06T21:42:59Z</time></trkpt>
<trkpt lat="24.810812" lon="105.255586">
<time>2016-10-06T21:43:00Z</time></trkpt>
<trkpt lat="24.810832" lon="105.255516">
<time>2016-10-06T21:43:01Z</time></trkpt>
<trkpt lat="24.810852" lon="105.255386">
<time>2016-10-06T21:43:02Z</time></trkpt>
<trkpt lat="24.810883" lon="105.255256">
<time>2016-10-06T21:43:03Z</time></trkpt>
<trkpt lat="24.810903" lon="105.255176">
<time>2016-10-06T21:43:04Z</time></trkpt>
<trkpt lat="24.810923" lon="105.255106">
<time>2016-10-06T21:43:05Z</time></trkpt>
<trkpt lat="24.810943" lon="105.255036">
<time>2016-10-06T21:43:06Z</time></trkpt>
<trkpt lat="24.810983" lon="105.254956">
<time>2016-10-06T21:43:07Z</time></trkpt>
<trkpt lat="24.811063" lon="105.254837">
<time>2016-10-06T21:43:08Z</time></trkpt>
<trkpt lat="24.811103" lon="105.254777">
<time>2016-10-06T21:43:09Z</time></trkpt>
<trkpt lat="24.811283" lon="105.254567">
<time>2016-10-06T21:43:10Z</time></trkpt>
<trkpt lat="24.811343" lon="105.254467">
<time>2016-10-06T21:43:11Z</time></trkpt>
<trkpt lat="24.811383" lon="105.254387">
<time>2016-10-06T21:43:12Z</time></trkpt>
<trkpt lat="24.811413" lon="105.254277">
<time>2016-10-06T21:43:13Z</time></trkpt>
<trkpt lat="24.811433" lon="105.254158">
<time>2016-10-06T21:43:14Z</time></trkpt>
<trkpt lat="24.811483" lon="105.253678">
<time>2016-10-06T21:43:15Z</time></trkpt>
<trkpt lat="24.811503" lon="105.253588">
<time>2016-10-06T21:43:16Z</time></trkpt>
<trkpt lat="24.811523" lon="105.253518">
<time>2016-10-06T21:43:17Z</time></trkpt>
<trkpt lat="24.811553" lon="105.253448">
<time>2016-10-06T21:43:18Z</time></trkpt>
<trkpt lat="24.811583" lon="105.253369">
<time>2016-10-06T21:43:19Z</time></trkpt>
<trkpt lat="24.811633" lon="105.253309">
<time>2016-10-06T21:43:20Z</time></trkpt>
<trkpt lat="24.811703" lon="105.253239">
<time>2016-10-06T21:43:21Z</time></trkpt>
<trkpt lat="24.811763" lon="105.253189">
<time>2016-10-06T21:43:22Z</time></trkpt>
<trkpt lat="24.811823" lon="105.253149">
<time>2016-10-06T21:43:23Z</time></trkpt>
<trkpt lat="24.811873" lon="105.253119">
<time>2016-10-06T21:43:24Z</time></trkpt>
<trkpt lat="24.811963" lon="105.253089">
<time>2016-10-06T21:43:25Z</time></trkpt>
<trkpt lat="24.812193" lon="105.253059">
<time>2016-10-06T21:43:26Z</time></trkpt>
<trkpt lat="24.812303" lon="105.253039">
<time>2016-10-06T21:43:27Z</time></trkpt>
<trkpt lat="24.812413" lon="105.253009">
<time>2016-10-06T21:43:28Z</time></trkpt>
<trkpt lat="24.812493" lon="105.252979">
<time>2016-10-06T21:43:29Z</time></trkpt>
<trkpt lat="24.812603" lon="105.252939">
<time>2016-10-06T21:43:30Z</time></trkpt>
<trkpt lat="24.812693" lon="105.252899">
<time>2016-10-06T21:43:31Z</time></trkpt>
<trkpt lat="24.812773" lon="105.252859">
<time>2016-10-06T21:43:32Z</time></trkpt>
<trkpt lat="24.812873" lon="105.252789">
<time>2016-10-06T21:43:33Z</time></trkpt>
<trkpt lat="24.812953" lon="105.252719">
<time>2016-10-06T21:43:34Z</time></trkpt>
<trkpt lat="24.813013" lon="105.252659">
<time>2016-10-06T21:43:35Z</time></trkpt>
<trkpt lat="24.813053" lon="105.252619">
<time>2016-10-06T21:43:36Z</time></trkpt>
<trkpt lat="24.813113" lon="105.25253">
<time>2016-10-06T21:43:37Z</time></trkpt>
<trkpt lat="24.813243" lon="105.2523">
<time>2016-10-06T21:43:38Z</time></trkpt>
<trkpt lat="24.813293" lon="105.25224">
<time>2016-10-06T21:43:39Z</time></trkpt>
<trkpt lat="24.813343" lon="105.25218">
<time>2016-10-06T21:43:40Z</time></trkpt>
<trkpt lat="24.813393" lon="105.25214">
<time>2016-10-06T21:43:41Z</time></trkpt>
<trkpt lat="24.813463" lon="105.25212">
<time>2016-10-06T21:43:42Z</time></trkpt>
<trkpt lat="24.813523" lon="105.2521">
<time>2016-10-06T21:43:43Z</time></trkpt>
<trkpt lat="24.813593" lon="105.25209">
<time>2016-10-06T21:43:44Z</time></trkpt>
<trkpt lat="24.813693" lon="105.2521">
<time>2016-10-06T21:43:45Z</time></trkpt>
<trkpt lat="24.813893" lon="105.25209">
<time>2016-10-06T21:43:46Z</time></trkpt>
<trkpt lat="24.813983" lon="105.25208">
<time>2016-10-06T21:43:47Z</time></trkpt>
<trkpt lat="24.814063" lon="105.25206">
<time>2016-10-06T21:43:48Z</time></trkpt>
<trkpt lat="24.814183" lon="105.25201">
<time>2016-10-06T21:43:49Z</time></trkpt>
<trkpt lat="24.814283" lon="105.25196">
<time>2016-10-06T21:43:50Z</time></trkpt>
<trkpt lat="24.814393" lon="105.25189">
<time>2016-10-06T21:43:51Z</time></trkpt>
<trkpt lat="24.814633" lon="105.25172">
<time>2016-10-06T21:43:52Z</time></trkpt>
<trkpt lat="24.814833" lon="105.251581">
<time>2016-10-06T21:43:53Z</time></trkpt>
<trkpt lat="24.814913" lon="105.251531">
<time>2016-10-06T21:43:54Z</time></trkpt>
<trkpt lat="24.814983" lon="105.251491">
<time>2016-10-06T21:43:55Z</time></trkpt>
<trkpt lat="24.815063" lon="105.251471">
<time>2016-10-06T21:43:56Z</time></trkpt>
<trkpt lat="24.815153" lon="105.251451">
<time>2016-10-06T21:43:57Z</time></trkpt>
<trkpt lat="24.815273" lon="105.251451">
<time>2016-10-06T21:43:58Z</time></trkpt>
<trkpt lat="24.815643" lon="105.251451">
<time>2016-10-06T21:43:59Z</time></trkpt>
<trkpt lat="24.816143" lon="105.251451">
<time>2016-10-06T21:44:00Z</time></trkpt>
<trkpt lat="24.816343" lon="105.251441">
<time>2016-10-06T21:44:01Z</time></trkpt>
<trkpt lat="24.816653" lon="105.251441">
<time>2016-10-06T21:44:02Z</time></trkpt>
<trkpt lat="24.816733" lon="105.251451">
<time>2016-10-06T21:44:03Z</time></trkpt>
<trkpt lat="24.816793" lon="105.251471">
<time>2016-10-06T21:44:04Z</time></trkpt>
<trkpt lat="24.816923" lon="105.251491">
<time>2016-10-06T21:44:05Z</time></trkpt>
<trkpt lat="24.817033" lon="105.251521">
<time>2016-10-06T21:44:06Z</time></trkpt>
<trkpt lat="24.817073" lon="105.251541">
<time>2016-10-06T21:44:07Z</time></trkpt>
<trkpt lat="24.817243" lon="105.251601">
<time>2016-10-06T21:44:08Z</time></trkpt>
<trkpt lat="24.817433" lon="105.25168">
<time>2016-10-06T21:44:09Z</time></trkpt>
<trkpt lat="24.817663" lon="105.25178">
<time>2016-10-06T21:44:10Z</time></trkpt>
<trkpt lat="24.817833" lon="105.25186">
<time>2016-10-06T21:44:11Z</time></trkpt>
<trkpt lat="24.817893" lon="105.25188">
<time>2016-10-06T21:44:12Z</time></trkpt>
<trkpt lat="24.817933" lon="105.25189">
<time>2016-10-06T21:44:13Z</time></trkpt>
<trkpt lat="24.818013" lon="105.25191">
<time>2016-10-06T21:44:14Z</time></trkpt>
<trkpt lat="24.818053" lon="105.25192">
<time>2016-10-06T21:44:15Z</time></trkpt>
<trkpt lat="24.818103" lon="105.25193">
<time>2016-10-06T21:44:16Z</time></trkpt>
<trkpt lat="24.818183" lon="105.25194">
<time>2016-10-06T21:44:17Z</time></trkpt>
<trkpt lat="24.818233" lon="105.25194">
<time>2016-10-06T21:44:18Z</time></trkpt>
<trkpt lat="24.818303" lon="105.25193">
<time>2016-10-06T21:44:19Z</time></trkpt>
<trkpt lat="24.818353" lon="105.25192">
<time>2016-10-06T21:44:20Z</time></trkpt>
<trkpt lat="24.818433" lon="105.2519">
<time>2016-10-06T21:44:21Z</time></trkpt>
<trkpt lat="24.818503" lon="105.25188">
<time>2016-10-06T21:44:22Z</time></trkpt>
<trkpt lat="24.818573" lon="105.25185">
<time>2016-10-06T21:44:23Z</time></trkpt>
<trkpt lat="24.818663" lon="105.2518">
<time>2016-10-06T21:44:24Z</time></trkpt>
<trkpt lat="24.818853" lon="105.25171">
<time>2016-10-06T21:44:25Z</time></trkpt>
<trkpt lat="24.818983" lon="105.25164">
<time>2016-10-06T21:44:26Z</time></trkpt>
<trkpt lat="24.819073" lon="105.25158">
<time>2016-10-06T21:44:27Z</time></trkpt>
<trkpt lat="24.819133" lon="105.251531">
<time>2016-10-06T21:44:28Z</time></trkpt>
<trkpt lat="24.819193" lon="105.251471">
<time>2016-10-06T21:44:29Z</time></trkpt>
<trkpt lat="24.819233" lon="105.251411">
<time>2016-10-06T21:44:30Z</time></trkpt>
<trkpt lat="24.819263" lon="105.251361">
<time>2016-10-06T21:44:31Z</time></trkpt>
<trkpt lat="24.819283" lon="105.251281">
<time>2016-10-06T21:44:32Z</time></trkpt>
<trkpt lat="24.819303" lon="105.251171">
<time>2016-10-06T21:44:33Z</time></trkpt>
<trkpt lat="24.819373" lon="105.250422">
<time>2016-10-06T21:44:34Z</time></trkpt>
<trkpt lat="24.819403" lon="105.250012">
<time>2016-10-06T21:44:35Z</time></trkpt>
<trkpt lat="24.819423" lon="105.249832">
<time>2016-10-06T21:44:36Z</time></trkpt>
<trkpt lat="24.819433" lon="105.249763">
<time>2016-10-06T21:44:37Z</time></trkpt>
<trkpt lat="24.819453" lon="105.249693">
<time>2016-10-06T21:44:38Z</time></trkpt>
<trkpt lat="24.819473" lon="105.249623">
<time>2016-10-06T21:44:39Z</time></trkpt>
<trkpt lat="24.819493" lon="105.249553">
<time>2016-10-06T21:44:40Z</time></trkpt>
<trkpt lat="24.819523" lon="105.249503">
<time>2016-10-06T21:44:41Z</time></trkpt>
<trkpt lat="24.819553" lon="105.249443">
<time>2016-10-06T21:44:42Z</time></trkpt>
<trkpt lat="24.819583" lon="105.249393">
<time>2016-10-06T21:44:43Z</time></trkpt>
<trkpt lat="24.819633" lon="105.249333">
<time>2016-10-06T21:44:44Z</time></trkpt>
<trkpt lat="24.819683" lon="105.249273">
<time>2016-10-06T21:44:45Z</time></trkpt>
<trkpt lat="24.819763" lon="105.249203">
<time>2016-10-06T21:44:46Z</time></trkpt>
<trkpt lat="24.819973" lon="105.249033">
<time>2016-10-06T21:44:47Z</time></trkpt>
<trkpt lat="24.820213" lon="105.248834">
<time>2016-10-06T21:44:48Z</time></trkpt>
<trkpt lat="24.820323" lon="105.248764">
<time>2016-10-06T21:44:49Z</time></trkpt>
<trkpt lat="24.820403" lon="105.248724">
<time>2016-10-06T21:44:50Z</time></trkpt>
<trkpt lat="24.820473" lon="105.248694">
<time>2016-10-06T21:44:51Z</time></trkpt>
<trkpt lat="24.820523" lon="105.248684">
<time>2016-10-06T21:44:52Z</time></trkpt>
<trkpt lat="24.820573" lon="105.248684">
<time>2016-10-06T21:44:53Z</time></trkpt>
<trkpt lat="24.820613" lon="105.248684">
<time>2016-10-06T21:44:54Z</time></trkpt>
<trkpt lat="24.820683" lon="105.248694">
<time>2016-10-06T21:44:55Z</time></trkpt>
<trkpt lat="24.820733" lon="105.248714">
<time>2016-10-06T21:44:56Z</time></trkpt>
<trkpt lat="24.820793" lon="105.248744">
<time>2016-10-06T21:44:57Z</time></trkpt>
<trkpt lat="24.820933" lon="105.248794">
<time>2016-10-06T21:44:58Z</time></trkpt>
<trkpt lat="24.821523" lon="105.249083">
<time>2016-10-06T21:44:59Z</time></trkpt>
<trkpt lat="24.822173" lon="105.249373">
<time>2016-10-06T21:45:00Z</time></trkpt>
<trkpt lat="24.822393" lon="105.249483">
<time>2016-10-06T21:45:01Z</time></trkpt>
<trkpt lat="24.822513" lon="105.249533">
<time>2016-10-06T21:45:02Z</time></trkpt>
<trkpt lat="24.822603" lon="105.249563">
<time>2016-10-06T21:45:03Z</time></trkpt>
<trkpt lat="24.822683" lon="105.249583">
<time>2016-10-06T21:45:04Z</time></trkpt>
<trkpt lat="24.822763" lon="105.249593">
<time>2016-10-06T21:45:05Z</time></trkpt>
<trkpt lat="24.822813" lon="105.249603">
<time>2016-10-06T21:45:06Z</time></trkpt>
<trkpt lat="24.822893" lon="105.249603">
<time>2016-10-06T21:45:07Z</time></trkpt>
<trkpt lat="24.822993" lon="105.249593">
<time>2016-10-06T21:45:08Z</time></trkpt>
<trkpt lat="24.823413" lon="105.249543">
<time>2016-10-06T21:45:09Z</time></trkpt>
<trkpt lat="24.823653" lon="105.249513">
<time>2016-10-06T21:45:10Z</time></trkpt>
<trkpt lat="24.823763" lon="105.249503">
<time>2016-10-06T21:45:11Z</time></trkpt>
<trkpt lat="24.823823" lon="105.249503">
<time>2016-10-06T21:45:12Z</time></trkpt>
<trkpt lat="24.823882" lon="105.249513">
<time>2016-10-06T21:45:13Z</time></trkpt>
<trkpt lat="24.823942" lon="105.249523">
<time>2016-10-06T21:45:14Z</time></trkpt>
<trkpt lat="24.823992" lon="105.249543">
<time>2016-10-06T21:45:15Z</time></trkpt>
<trkpt lat="24.824062" lon="105.249573">
<time>2016-10-06T21:45:16Z</time></trkpt>
<trkpt lat="24.824162" lon="105.249643">
<time>2016-10-06T21:45:17Z</time></trkpt>
<trkpt lat="24.824392" lon="105.249812">
<time>2016-10-06T21:45:18Z</time></trkpt>
<trkpt lat="24.824472" lon="105.249862">
<time>2016-10-06T21:45:19Z</time></trkpt>
<trkpt lat="24.824542" lon="105.249882">
<time>2016-10-06T21:45:20Z</time></trkpt>
<trkpt lat="24.824602" lon="105.249892">
<time>2016-10-06T21:45:21Z</time></trkpt>
<trkpt lat="24.824672" lon="105.249902">
<time>2016-10-06T21:45:22Z</time></trkpt>
<trkpt lat="24.824732" lon="105.249902">
<time>2016-10-06T21:45:23Z</time></trkpt>
<trkpt lat="24.824792" lon="105.249882">
<time>2016-10-06T21:45:24Z</time></trkpt>
<trkpt lat="24.824902" lon="105.249842">
<time>2016-10-06T21:45:25Z</time></trkpt>
<trkpt lat="24.825352" lon="105.249662">
<time>2016-10-06T21:45:26Z</time></trkpt>
<trkpt lat="24.825552" lon="105.249573">
<time>2016-10-06T21:45:27Z</time></trkpt>
<trkpt lat="24.825892" lon="105.249403">
<time>2016-10-06T21:45:28Z</time></trkpt>
<trkpt lat="24.826062" lon="105.249323">
<time>2016-10-06T21:45:29Z</time></trkpt>
<trkpt lat="24.826212" lon="105.249223">
<time>2016-10-06T21:45:30Z</time></trkpt>
<trkpt lat="24.826362" lon="105.249093">
<time>2016-10-06T21:45:31Z</time></trkpt>
<trkpt lat="24.826762" lon="105.248703">
<time>2016-10-06T21:45:32Z</time></trkpt>
<trkpt lat="24.826882" lon="105.248564">
<time>2016-10-06T21:45:33Z</time></trkpt>
<trkpt lat="24.826942" lon="105.248484">
<time>2016-10-06T21:45:34Z</time></trkpt>
<trkpt lat="24.826992" lon="105.248384">
<time>2016-10-06T21:45:35Z</time></trkpt>
<trkpt lat="24.827022" lon="105.248284">
<time>2016-10-06T21:45:36Z</time></trkpt>
<trkpt lat="24.827032" lon="105.248204">
<time>2016-10-06T21:45:37Z</time></trkpt>
<trkpt lat="24.827032" lon="105.248094">
<time>2016-10-06T21:45:38Z</time></trkpt>
<trkpt lat="24.827022" lon="105.248014">
<time>2016-10-06T21:45:39Z</time></trkpt>
<trkpt lat="24.827002" lon="105.247934">
<time>2016-10-06T21:45:40Z</time></trkpt>
<trkpt lat="24.826962" lon="105.247834">
<time>2016-10-06T21:45:41Z</time></trkpt>
<trkpt lat="24.826812" lon="105.247535">
<time>2016-10-06T21:45:42Z</time></trkpt>
<trkpt lat="24.826742" lon="105.247375">
<time>2016-10-06T21:45:43Z</time></trkpt>
<trkpt lat="24.826702" lon="105.247275">
<time>2016-10-06T21:45:44Z</time></trkpt>
<trkpt lat="24.826692" lon="105.247165">
<time>2016-10-06T21:45:45Z</time></trkpt>
<trkpt lat="24.826692" lon="105.247055">
<time>2016-10-06T21:45:46Z</time></trkpt>
<trkpt lat="24.826722" lon="105.246955">
<time>2016-10-06T21:45:47Z</time></trkpt>
<trkpt lat="24.826752" lon="105.246875">
<time>2016-10-06T21:45:48Z</time></trkpt>
<trkpt lat="24.826812" lon="105.246795">
<time>2016-10-06T21:45:49Z</time></trkpt>
<trkpt lat="24.826862" lon="105.246746">
<time>2016-10-06T21:45:50Z</time></trkpt>
<trkpt lat="24.826932" lon="105.246706">
<time>2016-10-06T21:45:51Z</time></trkpt>
<trkpt lat="24.827002" lon="105.246676">
<time>2016-10-06T21:45:52Z</time></trkpt>
<trkpt lat="24.827072" lon="105.246666">
<time>2016-10-06T21:45:53Z</time></trkpt>
<trkpt lat="24.827132" lon="105.246656">
<time>2016-10-06T21:45:54Z</time></trkpt>
<trkpt lat="24.827282" lon="105.246666">
<time>2016-10-06T21:45:55Z</time></trkpt>
<trkpt lat="24.827522" lon="105.246656">
<time>2016-10-06T21:45:56Z</time></trkpt>
<trkpt lat="24.827642" lon="105.246646">
<time>2016-10-06T21:45:57Z</time></trkpt>
<trkpt lat="24.827732" lon="105.246626">
<time>2016-10-06T21:45:58Z</time></trkpt>
<trkpt lat="24.827812" lon="105.246586">
<time>2016-10-06T21:45:59Z</time></trkpt>
<trkpt lat="24.827892" lon="105.246546">
<time>2016-10-06T21:46:00Z</time></trkpt>
<trkpt lat="24.827972" lon="105.246486">
<time>2016-10-06T21:46:01Z</time></trkpt>
<trkpt lat="24.828142" lon="105.246316">
<time>2016-10-06T21:46:02Z</time></trkpt>
<trkpt lat="24.828382" lon="105.246086">
<time>2016-10-06T21:46:03Z</time></trkpt>
<trkpt lat="24.828582" lon="105.245886">
<time>2016-10-06T21:46:04Z</time></trkpt>
<trkpt lat="24.828722" lon="105.245726">
<time>2016-10-06T21:46:05Z</time></trkpt>
<trkpt lat="24.828832" lon="105.245567">
<time>2016-10-06T21:46:06Z</time></trkpt>
<trkpt lat="24.828912" lon="105.245417">
<time>2016-10-06T21:46:07Z</time></trkpt>
<trkpt lat="24.829092" lon="105.245057">
<time>2016-10-06T21:46:08Z</time></trkpt>
<trkpt lat="24.829182" lon="105.244887">
<time>2016-10-06T21:46:09Z</time></trkpt>
<trkpt lat="24.829262" lon="105.244757">
<time>2016-10-06T21:46:10Z</time></trkpt>
<trkpt lat="24.829332" lon="105.244647">
<time>2016-10-06T21:46:11Z</time></trkpt>
<trkpt lat="24.829502" lon="105.244418">
<time>2016-10-06T21:46:12Z</time></trkpt>
<trkpt lat="24.829622" lon="105.244248">
<time>2016-10-06T21:46:13Z</time></trkpt>
<trkpt lat="24.829762" lon="105.244088">
<time>2016-10-06T21:46:14Z</time></trkpt>
<trkpt lat="24.829882" lon="105.243948">
<time>2016-10-06T21:46:15Z</time></trkpt>
<trkpt lat="24.829992" lon="105.243858">
<time>2016-10-06T21:46:16Z</time></trkpt>
<trkpt lat="24.830102" lon="105.243768">
<time>2016-10-06T21:46:17Z</time></trkpt>
<trkpt lat="24.830222" lon="105.243698">
<time>2016-10-06T21:46:18Z</time></trkpt>
<trkpt lat="24.830342" lon="105.243628">
<time>2016-10-06T21:46:19Z</time></trkpt>
<trkpt lat="24.830942" lon="105.243369">
<time>2016-10-06T21:46:20Z</time></trkpt>
<trkpt lat="24.831082" lon="105.243299">
<time>2016-10-06T21:46:21Z</time></trkpt>
<trkpt lat="24.831162" lon="105.243249">
<time>2016-10-06T21:46:22Z</time></trkpt>
<trkpt lat="24.831192" lon="105.243229">
<time>2016-10-06T21:46:23Z</time></trkpt>
<trkpt lat="24.831222" lon="105.243199">
<time>2016-10-06T21:46:24Z</time></trkpt>
<trkpt lat="24.831252" lon="105.243169">
<time>2016-10-06T21:46:25Z</time></trkpt>
<trkpt lat="24.831292" lon="105.243119">
<time>2016-10-06T21:46:26Z</time></trkpt>
<trkpt lat="24.831322" lon="105.243069">
<time>2016-10-06T21:46:27Z</time></trkpt>
<trkpt lat="24.831342" lon="105.243019">
<time>2016-10-06T21:46:28Z</time></trkpt>
<trkpt lat="24.831362" lon="105.242979">
<time>2016-10-06T21:46:29Z</time></trkpt>
<trkpt lat="24.831372" lon="105.242929">
<time>2016-10-06T21:46:30Z</time></trkpt>
<trkpt lat="24.831372" lon="105.242879">
<time>2016-10-06T21:46:31Z</time></trkpt>
<trkpt lat="24.831372" lon="105.242829">
<time>2016-10-06T21:46:32Z</time></trkpt>
<trkpt lat="24.831372" lon="105.242789">
<time>2016-10-06T21:46:33Z</time></trkpt>
<trkpt lat="24.831362" lon="105.242739">
<time>2016-10-06T21:46:34Z</time></trkpt>
<trkpt lat="24.831342" lon="105.242689">
<time>2016-10-06T21:46:35Z</time></trkpt>
<trkpt lat="24.831322" lon="105.242649">
<time>2016-10-06T21:46:36Z</time></trkpt>
<trkpt lat="24.831312" lon="105.242609">
<time>2016-10-06T21:46:37Z</time></trkpt>
<trkpt lat="24.831282" lon="105.242559">
<time>2016-10-06T21:46:38Z</time></trkpt>
<trkpt lat="24.831242" lon="105.242509">
<time>2016-10-06T21:46:39Z</time></trkpt>
<trkpt lat="24.831202" lon="105.242459">
<time>2016-10-06T21:46:40Z</time></trkpt>
<trkpt lat="24.831142" lon="105.242399">
<time>2016-10-06T21:46:41Z</time></trkpt>
<trkpt lat="24.830802" lon="105.24207">
<time>2016-10-06T21:46:42Z</time></trkpt>
<trkpt lat="24.830452" lon="105.24173">
<time>2016-10-06T21:46:43Z</time></trkpt>
<trkpt lat="24.830301" lon="105.24156">
<time>2016-10-06T21:46:44Z</time></trkpt>
<trkpt lat="24.830211" lon="105.24137">
<time>2016-10-06T21:46:45Z</time></trkpt>
<trkpt lat="24.830181" lon="105.24128">
<time>2016-10-06T21:46:46Z</time></trkpt>
<trkpt lat="24.830161" lon="105.24117">
<time>2016-10-06T21:46:47Z</time></trkpt>
<trkpt lat="24.830161" lon="105.241051">
<time>2016-10-06T21:46:48Z</time></trkpt>
<trkpt lat="24.830171" lon="105.240901">
<time>2016-10-06T21:46:49Z</time></trkpt>
<trkpt lat="24.830201" lon="105.240781">
<time>2016-10-06T21:46:50Z</time></trkpt>
<trkpt lat="24.830251" lon="105.240661">
<time>2016-10-06T21:46:51Z</time></trkpt>
<trkpt lat="24.830321" lon="105.240561">
<time>2016-10-06T21:46:52Z</time></trkpt>
<trkpt lat="24.830401" lon="105.240471">
<time>2016-10-06T21:46:53Z</time></trkpt>
<trkpt lat="24.830481" lon="105.240401">
<time>2016-10-06T21:46:54Z</time></trkpt>
<trkpt lat="24.830591" lon="105.240341">
<time>2016-10-06T21:46:55Z</time></trkpt>
<trkpt lat="24.830671" lon="105.240291">
<time>2016-10-06T21:46:56Z</time></trkpt>
<trkpt lat="24.830751" lon="105.240261">
<time>2016-10-06T21:46:57Z</time></trkpt>
<trkpt lat="24.831131" lon="105.240131">
<time>2016-10-06T21:46:58Z</time></trkpt>
<trkpt lat="24.831221" lon="105.240101">
<time>2016-10-06T21:46:59Z</time></trkpt>
<trkpt lat="24.831491" lon="105.240011">
<time>2016-10-06T21:47:00Z</time></trkpt>
<trkpt lat="24.831591" lon="105.239971">
<time>2016-10-06T21:47:01Z</time></trkpt>
<trkpt lat="24.831681" lon="105.239931">
<time>2016-10-06T21:47:02Z</time></trkpt>
<trkpt lat="24.831771" lon="105.239891">
<time>2016-10-06T21:47:03Z</time></trkpt>
<trkpt lat="24.831851" lon="105.239831">
<time>2016-10-06T21:47:04Z</time></trkpt>
<trkpt lat="24.831971" lon="105.239751">
<time>2016-10-06T21:47:05Z</time></trkpt>
<trkpt lat="24.832061" lon="105.239671">
<time>2016-10-06T21:47:06Z</time></trkpt>
<trkpt lat="24.832261" lon="105.239512">
<time>2016-10-06T21:47:07Z</time></trkpt>
<trkpt lat="24.832351" lon="105.239452">
<time>2016-10-06T21:47:08Z</time></trkpt>
<trkpt lat="24.832461" lon="105.239392">
<time>2016-10-06T21:47:09Z</time></trkpt>
<trkpt lat="24.832561" lon="105.239342">
<time>2016-10-06T21:47:10Z</time></trkpt>
<trkpt lat="24.832681" lon="105.239322">
<time>2016-10-06T21:47:11Z</time></trkpt>
<trkpt lat="24.832791" lon="105.239302">
<time>2016-10-06T21:47:12Z</time></trkpt>
<trkpt lat="24.832871" lon="105.239302">
<time>2016-10-06T21:47:13Z</time></trkpt>
<trkpt lat="24.833011" lon="105.239302">
<time>2016-10-06T21:47:14Z</time></trkpt>
<trkpt lat="24.833141" lon="105.239322">
<time>2016-10-06T21:47:15Z</time></trkpt>
<trkpt lat="24.833231" lon="105.239332">
<time>2016-10-06T21:47:16Z</time></trkpt>
<trkpt lat="24.833341" lon="105.239352">
<time>2016-10-06T21:47:17Z</time></trkpt>
<trkpt lat="24.833401" lon="105.239362">
<time>2016-10-06T21:47:18Z</time></trkpt>
<trkpt lat="24.833431" lon="105.239362">
<time>2016-10-06T21:47:19Z</time></trkpt>
<trkpt lat="24.833471" lon="105.239362">
<time>2016-10-06T21:47:20Z</time></trkpt>
<trkpt lat="24.833511" lon="105.239352">
<time>2016-10-06T21:47:21Z</time></trkpt>
<trkpt lat="24.833551" lon="105.239352">
<time>2016-10-06T21:47:22Z</time></trkpt>
<trkpt lat="24.833631" lon="105.239332">
<time>2016-10-06T21:47:23Z</time></trkpt>
<trkpt lat="24.833711" lon="105.239302">
<time>2016-10-06T21:47:24Z</time></trkpt>
<trkpt lat="24.833741" lon="105.239282">
<time>2016-10-06T21:47:25Z</time></trkpt>
<trkpt lat="24.833801" lon="105.239252">
<time>2016-10-06T21:47:26Z</time></trkpt>
<trkpt lat="24.833911" lon="105.239162">
<time>2016-10-06T21:47:27Z</time></trkpt>
<trkpt lat="24.83435" lon="105.238732">
<time>2016-10-06T21:47:28Z</time></trkpt>
<trkpt lat="24.83456" lon="105.238562">
<time>2016-10-06T21:47:29Z</time></trkpt>
<trkpt lat="24.83474" lon="105.238432">
<time>2016-10-06T21:47:30Z</time></trkpt>
<trkpt lat="24.83505" lon="105.238252">
<time>2016-10-06T21:47:31Z</time></trkpt>
<trkpt lat="24.83522" lon="105.238162">
<time>2016-10-06T21:47:32Z</time></trkpt>
<trkpt lat="24.83538" lon="105.238082">
<time>2016-10-06T21:47:33Z</time></trkpt>
<trkpt lat="24.8355" lon="105.238032">
<time>2016-10-06T21:47:34Z</time></trkpt>
<trkpt lat="24.8356" lon="105.238002">
<time>2016-10-06T21:47:35Z</time></trkpt>
<trkpt lat="24.83563" lon="105.238002">
<time>2016-10-06T21:47:36Z</time></trkpt>
<trkpt lat="24.83571" lon="105.237982">
<time>2016-10-06T21:47:37Z</time></trkpt>
<trkpt lat="24.8358" lon="105.237972">
<time>2016-10-06T21:47:38Z</time></trkpt>
<trkpt lat="24.83589" lon="105.237982">
<time>2016-10-06T21:47:39Z</time></trkpt>
<trkpt lat="24.83609" lon="105.237982">
<time>2016-10-06T21:47:40Z</time></trkpt>
<trkpt lat="24.83616" lon="105.237972">
<time>2016-10-06T21:47:41Z</time></trkpt>
<trkpt lat="24.83623" lon="105.237952">
<time>2016-10-06T21:47:42Z</time></trkpt>
<trkpt lat="24.83629" lon="105.237922">
<time>2016-10-06T21:47:43Z</time></trkpt>
<trkpt lat="24.83633" lon="105.237893">
<time>2016-10-06T21:47:44Z</time></trkpt>
<trkpt lat="24.83637" lon="105.237853">
<time>2016-10-06T21:47:45Z</time></trkpt>
<trkpt lat="24.8364" lon="105.237803">
<time>2016-10-06T21:47:46Z</time></trkpt>
<trkpt lat="24.83643" lon="105.237713">
<time>2016-10-06T21:47:47Z</time></trkpt>
<trkpt lat="24.83644" lon="105.237683">
<time>2016-10-06T21:47:48Z</time></trkpt>
<trkpt lat="24.83647" lon="105.237553">
<time>2016-10-06T21:47:49Z</time></trkpt>
<trkpt lat="24.83649" lon="105.237363">
<time>2016-10-06T21:47:50Z</time></trkpt>
<trkpt lat="24.83652" lon="105.237243">
<time>2016-10-06T21:47:51Z</time></trkpt>
<trkpt lat="24.83655" lon="105.237143">
<time>2016-10-06T21:47:52Z</time></trkpt>
<trkpt lat="24.8366" lon="105.237063">
<time>2016-10-06T21:47:53Z</time></trkpt>
<trkpt lat="24.83665" lon="105.237003">
<time>2016-10-06T21:47:54Z</time></trkpt>
<trkpt lat="24.83672" lon="105.236933">
<time>2016-10-06T21:47:55Z</time></trkpt>
<trkpt lat="24.836789" lon="105.236883">
<time>2016-10-06T21:47:56Z</time></trkpt>
<trkpt lat="24.836979" lon="105.236793">
<time>2016-10-06T21:47:57Z</time></trkpt>
<trkpt lat="24.837169" lon="105.236713">
<time>2016-10-06T21:47:58Z</time></trkpt>
<trkpt lat="24.837239" lon="105.236683">
<time>2016-10-06T21:47:59Z</time></trkpt>
<trkpt lat="24.837289" lon="105.236643">
<time>2016-10-06T21:48:00Z</time></trkpt>
<trkpt lat="24.837379" lon="105.236543">
<time>2016-10-06T21:48:01Z</time></trkpt>
<trkpt lat="24.837429" lon="105.236453">
<time>2016-10-06T21:48:02Z</time></trkpt>
<trkpt lat="24.837479" lon="105.236353">
<time>2016-10-06T21:48:03Z</time></trkpt>
<trkpt lat="24.837679" lon="105.235824">
<time>2016-10-06T21:48:04Z</time></trkpt>
<trkpt lat="24.837789" lon="105.235564">
<time>2016-10-06T21:48:05Z</time></trkpt>
<trkpt lat="24.837859" lon="105.235444">
<time>2016-10-06T21:48:06Z</time></trkpt>
<trkpt lat="24.837929" lon="105.235354">
<time>2016-10-06T21:48:07Z</time></trkpt>
<trkpt lat="24.838009" lon="105.235284">
<time>2016-10-06T21:48:08Z</time></trkpt>
<trkpt lat="24.838089" lon="105.235234">
<time>2016-10-06T21:48:09Z</time></trkpt>
<trkpt lat="24.838339" lon="105.235174">
<time>2016-10-06T21:48:10Z</time></trkpt>
<trkpt lat="24.838439" lon="105.235134">
<time>2016-10-06T21:48:11Z</time></trkpt>
<trkpt lat="24.838519" lon="105.235094">
<time>2016-10-06T21:48:12Z</time></trkpt>
<trkpt lat="24.838589" lon="105.235044">
<time>2016-10-06T21:48:13Z</time></trkpt>
<trkpt lat="24.838708" lon="105.234894">
<time>2016-10-06T21:48:14Z</time></trkpt>
<trkpt lat="24.838798" lon="105.234744">
<time>2016-10-06T21:48:15Z</time></trkpt>
<trkpt lat="24.838908" lon="105.234584">
<time>2016-10-06T21:48:16Z</time></trkpt>
<trkpt lat="24.839028" lon="105.234434">
<time>2016-10-06T21:48:17Z</time></trkpt>
<trkpt lat="24.839208" lon="105.234275">
<time>2016-10-06T21:48:18Z</time></trkpt>
<trkpt lat="24.839478" lon="105.234055">
<time>2016-10-06T21:48:19Z</time></trkpt>
<trkpt lat="24.839608" lon="105.233925">
<time>2016-10-06T21:48:20Z</time></trkpt>
<trkpt lat="24.839698" lon="105.233785">
<time>2016-10-06T21:48:21Z</time></trkpt>
<trkpt lat="24.839748" lon="105.233685">
<time>2016-10-06T21:48:22Z</time></trkpt>
<trkpt lat="24.839798" lon="105.233555">
<time>2016-10-06T21:48:23Z</time></trkpt>
<trkpt lat="24.839828" lon="105.233415">
<time>2016-10-06T21:48:24Z</time></trkpt>
<trkpt lat="24.839868" lon="105.233245">
<time>2016-10-06T21:48:25Z</time></trkpt>
<trkpt lat="24.839907" lon="105.233085">
<time>2016-10-06T21:48:26Z</time></trkpt>
<trkpt lat="24.839967" lon="105.232955">
<time>2016-10-06T21:48:27Z</time></trkpt>
<trkpt lat="24.840037" lon="105.232855">
<time>2016-10-06T21:48:28Z</time></trkpt>
<trkpt lat="24.840117" lon="105.232775">
<time>2016-10-06T21:48:29Z</time></trkpt>
<trkpt lat="24.840267" lon="105.232675">
<time>2016-10-06T21:48:30Z</time></trkpt>
<trkpt lat="24.840497" lon="105.232565">
<time>2016-10-06T21:48:31Z</time></trkpt>
<trkpt lat="24.840627" lon="105.232505">
<time>2016-10-06T21:48:32Z</time></trkpt>
<trkpt lat="24.840727" lon="105.232435">
<time>2016-10-06T21:48:33Z</time></trkpt>
<trkpt lat="24.840797" lon="105.232385">
<time>2016-10-06T21:48:34Z</time></trkpt>
<trkpt lat="24.840857" lon="105.232295">
<time>2016-10-06T21:48:35Z</time></trkpt>
<trkpt lat="24.840917" lon="105.232195">
<time>2016-10-06T21:48:36Z</time></trkpt>
<trkpt lat="24.841287" lon="105.231546">
<time>2016-10-06T21:48:37Z</time></trkpt>
<trkpt lat="24.841566" lon="105.231126">
<time>2016-10-06T21:48:38Z</time></trkpt>
<trkpt lat="24.841666" lon="105.231006">
<time>2016-10-06T21:48:39Z</time></trkpt>
<trkpt lat="24.841836" lon="105.230846">
<time>2016-10-06T21:48:40Z</time></trkpt>
<trkpt lat="24.842066" lon="105.230646">
<time>2016-10-06T21:48:41Z</time></trkpt>
<trkpt lat="24.842156" lon="105.230546">
<time>2016-10-06T21:48:42Z</time></trkpt>
<trkpt lat="24.842216" lon="105.230456">
<time>2016-10-06T21:48:43Z</time></trkpt>
<trkpt lat="24.842266" lon="105.230376">
<time>2016-10-06T21:48:44Z</time></trkpt>
<trkpt lat="24.842286" lon="105.230326">
<time>2016-10-06T21:48:45Z</time></trkpt>
<trkpt lat="24.842316" lon="105.230236">
<time>2016-10-06T21:48:46Z</time></trkpt>
<trkpt lat="24.842395" lon="105.229996">
<time>2016-10-06T21:48:47Z</time></trkpt>
<trkpt lat="24.842435" lon="105.229886">
<time>2016-10-06T21:48:48Z</time></trkpt>
<trkpt lat="24.842485" lon="105.229806">
<time>2016-10-06T21:48:49Z</time></trkpt>
<trkpt lat="24.842545" lon="105.229746">
<time>2016-10-06T21:48:50Z</time></trkpt>
<trkpt lat="24.842635" lon="105.229686">
<time>2016-10-06T21:48:51Z</time></trkpt>
<trkpt lat="24.842695" lon="105.229666">
<time>2016-10-06T21:48:52Z</time></trkpt>
<trkpt lat="24.842765" lon="105.229646">
<time>2016-10-06T21:48:53Z</time></trkpt>
<trkpt lat="24.842825" lon="105.229646">
<time>2016-10-06T21:48:54Z</time></trkpt>
<trkpt lat="24.842885" lon="105.229636">
<time>2016-10-06T21:48:55Z</time></trkpt>
<trkpt lat="24.843115" lon="105.229646">
<time>2016-10-06T21:48:56Z</time></trkpt>
<trkpt lat="24.843335" lon="105.229656">
<time>2016-10-06T21:48:57Z</time></trkpt>
<trkpt lat="24.843545" lon="105.229616">
<time>2016-10-06T21:48:58Z</time></trkpt>
<trkpt lat="24.843665" lon="105.229576">
<time>2016-10-06T21:48:59Z</time></trkpt>
<trkpt lat="24.843815" lon="105.229496">
<time>2016-10-06T21:49:00Z</time></trkpt>
<trkpt lat="24.844115" lon="105.229346">
<time>2016-10-06T21:49:01Z</time></trkpt>
<trkpt lat="24.844205" lon="105.229306">
<time>2016-10-06T21:49:02Z</time></trkpt>
<trkpt lat="24.844275" lon="105.229286">
<time>2016-10-06T21:49:03Z</time></trkpt>
<trkpt lat="24.844365" lon="105.229246">
<time>2016-10-06T21:49:04Z</time></trkpt>
<trkpt lat="24.844495" lon="105.229216">
<time>2016-10-06T21:49:05Z</time></trkpt>
<trkpt lat="24.844605" lon="105.229206">
<time>2016-10-06T21:49:06Z</time></trkpt>
<trkpt lat="24.844745" lon="105.229196">
<time>2016-10-06T21:49:07Z</time></trkpt>
<trkpt lat="24.844855" lon="105.229206">
<time>2016-10-06T21:49:08Z</time></trkpt>
<trkpt lat="24.844995" lon="105.229236">
<time>2016-10-06T21:49:09Z</time></trkpt>
<trkpt lat="24.845095" lon="105.229246">
<time>2016-10-06T21:49:10Z</time></trkpt>
<trkpt lat="24.845365" lon="105.229326">
<time>2016-10-06T21:49:11Z</time></trkpt>
<trkpt lat="24.845435" lon="105.229336">
<time>2016-10-06T21:49:12Z</time></trkpt>
<trkpt lat="24.845505" lon="105.229346">
<time>2016-10-06T21:49:13Z</time></trkpt>
<trkpt lat="24.845565" lon="105.229346">
<time>2016-10-06T21:49:14Z</time></trkpt>
<trkpt lat="24.845625" lon="105.229346">
<time>2016-10-06T21:49:15Z</time></trkpt>
<trkpt lat="24.845685" lon="105.229326">
<time>2016-10-06T21:49:16Z</time></trkpt>
<trkpt lat="24.845745" lon="105.229306">
<time>2016-10-06T21:49:17Z</time></trkpt>
<trkpt lat="24.845785" lon="105.229276">
<time>2016-10-06T21:49:18Z</time></trkpt>
<trkpt lat="24.845825" lon="105.229246">
<time>2016-10-06T21:49:19Z</time></trkpt>
<trkpt lat="24.845855" lon="105.229216">
<time>2016-10-06T21:49:20Z</time></trkpt>
<trkpt lat="24.845875" lon="105.229186">
<time>2016-10-06T21:49:21Z</time></trkpt>
<trkpt lat="24.845895" lon="105.229136">
<time>2016-10-06T21:49:22Z</time></trkpt>
<trkpt lat="24.845914" lon="105.229076">
<time>2016-10-06T21:49:23Z</time></trkpt>
<trkpt lat="24.845954" lon="105.228936">
<time>2016-10-06T21:49:24Z</time></trkpt>
<trkpt lat="24.846004" lon="105.228736">
<time>2016-10-06T21:49:25Z</time></trkpt>
<trkpt lat="24.846054" lon="105.228597">
<time>2016-10-06T21:49:26Z</time></trkpt>
<trkpt lat="24.846164" lon="105.228417">
<time>2016-10-06T21:49:27Z</time></trkpt>
<trkpt lat="24.846324" lon="105.228217">
<time>2016-10-06T21:49:28Z</time></trkpt>
<trkpt lat="24.846454" lon="105.228027">
<time>2016-10-06T21:49:29Z</time></trkpt>
<trkpt lat="24.846524" lon="105.227847">
<time>2016-10-06T21:49:30Z</time></trkpt>
<trkpt lat="24.846823" lon="105.226747">
<time>2016-10-06T21:49:31Z</time></trkpt>
<trkpt lat="24.846992" lon="105.226287">
<time>2016-10-06T21:49:32Z</time></trkpt>
<trkpt lat="24.847192" lon="105.225807">
<time>2016-10-06T21:49:33Z</time></trkpt>
<trkpt lat="24.847232" lon="105.225537">
<time>2016-10-06T21:49:34Z</time></trkpt>
<trkpt lat="24.847232" lon="105.225377">
<time>2016-10-06T21:49:35Z</time></trkpt>
<trkpt lat="24.847222" lon="105.225207">
<time>2016-10-06T21:49:36Z</time></trkpt>
<trkpt lat="24.847221" lon="105.225027">
<time>2016-10-06T21:49:37Z</time></trkpt>
<trkpt lat="24.847251" lon="105.224837">
<time>2016-10-06T21:49:38Z</time></trkpt>
<trkpt lat="24.847291" lon="105.224687">
<time>2016-10-06T21:49:39Z</time></trkpt>
<trkpt lat="24.847351" lon="105.224547">
<time>2016-10-06T21:49:40Z</time></trkpt>
<trkpt lat="24.847471" lon="105.224347">
<time>2016-10-06T21:49:41Z</time></trkpt>
<trkpt lat="24.847571" lon="105.224227">
<time>2016-10-06T21:49:42Z</time></trkpt>
<trkpt lat="24.847631" lon="105.224107">
<time>2016-10-06T21:49:43Z</time></trkpt>
<trkpt lat="24.847671" lon="105.224027">
<time>2016-10-06T21:49:44Z</time></trkpt>
<trkpt lat="24.84769" lon="105.223977">
<time>2016-10-06T21:49:45Z</time></trkpt>
<trkpt lat="24.8477" lon="105.223917">
<time>2016-10-06T21:49:46Z</time></trkpt>
<trkpt lat="24.84771" lon="105.223847">
<time>2016-10-06T21:49:47Z</time></trkpt>
<trkpt lat="24.84772" lon="105.223787">
<time>2016-10-06T21:49:48Z</time></trkpt>
<trkpt lat="24.84772" lon="105.223727">
<time>2016-10-06T21:49:49Z</time></trkpt>
<trkpt lat="24.84772" lon="105.223677">
<time>2016-10-06T21:49:50Z</time></trkpt>
<trkpt lat="24.84772" lon="105.223577">
<time>2016-10-06T21:49:51Z</time></trkpt>
<trkpt lat="24.84771" lon="105.223487">
<time>2016-10-06T21:49:52Z</time></trkpt>
<trkpt lat="24.84771" lon="105.223427">
<time>2016-10-06T21:49:53Z</time></trkpt>
<trkpt lat="24.84771" lon="105.223377">
<time>2016-10-06T21:49:54Z</time></trkpt>
<trkpt lat="24.84771" lon="105.223347">
<time>2016-10-06T21:49:55Z</time></trkpt>
<trkpt lat="24.84771" lon="105.223327">
<time>2016-10-06T21:49:56Z</time></trkpt>
<trkpt lat="24.84772" lon="105.223317">
<time>2016-10-06T21:49:57Z</time></trkpt>
<trkpt lat="24.84772" lon="105.223277">
<time>2016-10-06T21:49:58Z</time></trkpt>
<trkpt lat="24.84773" lon="105.223257">
<time>2016-10-06T21:49:59Z</time></trkpt>
<trkpt lat="24.84773" lon="105.223247">
<time>2016-10-06T21:50:00Z</time></trkpt>
<trkpt lat="24.84773" lon="105.223237">
<time>2016-10-06T21:50:01Z</time></trkpt>
<trkpt lat="24.84774" lon="105.223227">
<time>2016-10-06T21:50:02Z</time></trkpt>
<trkpt lat="24.84774" lon="105.223207">
<time>2016-10-06T21:50:03Z</time></trkpt>
<trkpt lat="24.84775" lon="105.223167">
<time>2016-10-06T21:50:04Z</time></trkpt>
<trkpt lat="24.84776" lon="105.223137">
<time>2016-10-06T21:50:05Z</time></trkpt>
<trkpt lat="24.84778" lon="105.223117">
<time>2016-10-06T21:50:06Z</time></trkpt>
<trkpt lat="24.8478" lon="105.223078">
<time>2016-10-06T21:50:07Z</time></trkpt>
<trkpt lat="24.84781" lon="105.223048">
<time>2016-10-06T21:50:08Z</time></trkpt>
<trkpt lat="24.84787" lon="105.222968">
<time>2016-10-06T21:50:09Z</time></trkpt>
<trkpt lat="24.84794" lon="105.222878">
<time>2016-10-06T21:50:10Z</time></trkpt>
<trkpt lat="24.847969" lon="105.222828">
<time>2016-10-06T21:50:11Z</time></trkpt>
<trkpt lat="24.848009" lon="105.222768">
<time>2016-10-06T21:50:12Z</time></trkpt>
<trkpt lat="24.848039" lon="105.222708">
<time>2016-10-06T21:50:13Z</time></trkpt>
<trkpt lat="24.848069" lon="105.222648">
<time>2016-10-06T21:50:14Z</time></trkpt>
<trkpt lat="24.848109" lon="105.222558">
<time>2016-10-06T21:50:15Z</time></trkpt>
<trkpt lat="24.848139" lon="105.222458">
<time>2016-10-06T21:50:16Z</time></trkpt>
<trkpt lat="24.848169" lon="105.222288">
<time>2016-10-06T21:50:17Z</time></trkpt>
<trkpt lat="24.848219" lon="105.222038">
<time>2016-10-06T21:50:18Z</time></trkpt>
<trkpt lat="24.848298" lon="105.221588">
<time>2016-10-06T21:50:19Z</time></trkpt>
<trkpt lat="24.848398" lon="105.221018">
<time>2016-10-06T21:50:20Z</time></trkpt>
<trkpt lat="24.848457" lon="105.220698">
<time>2016-10-06T21:50:21Z</time></trkpt>
<trkpt lat="24.848527" lon="105.220438">
<time>2016-10-06T21:50:22Z</time></trkpt>
<trkpt lat="24.848677" lon="105.219938">
<time>2016-10-06T21:50:23Z</time></trkpt>
<trkpt lat="24.848816" lon="105.219518">
<time>2016-10-06T21:50:24Z</time></trkpt>
<trkpt lat="24.848956" lon="105.219158">
<time>2016-10-06T21:50:25Z</time></trkpt>
<trkpt lat="24.849016" lon="105.219058">
<time>2016-10-06T21:50:26Z</time></trkpt>
<trkpt lat="24.849066" lon="105.218958">
<time>2016-10-06T21:50:27Z</time></trkpt>
<trkpt lat="24.849146" lon="105.218848">
<time>2016-10-06T21:50:28Z</time></trkpt>
<trkpt lat="24.849315" lon="105.218627">
<time>2016-10-06T21:50:29Z</time></trkpt>
<trkpt lat="24.849645" lon="105.218227">
<time>2016-10-06T21:50:30Z</time></trkpt>
<trkpt lat="24.849775" lon="105.218027">
<time>2016-10-06T21:50:31Z</time></trkpt>
<trkpt lat="24.849865" lon="105.217877">
<time>2016-10-06T21:50:32Z</time></trkpt>
<trkpt lat="24.849964" lon="105.217687">
<time>2016-10-06T21:50:33Z</time></trkpt>
<trkpt lat="24.850353" lon="105.216777">
<time>2016-10-06T21:50:34Z</time></trkpt>
<trkpt lat="24.850493" lon="105.216437">
<time>2016-10-06T21:50:35Z</time></trkpt>
<trkpt lat="24.850583" lon="105.216277">
<time>2016-10-06T21:50:36Z</time></trkpt>
<trkpt lat="24.850643" lon="105.216187">
<time>2016-10-06T21:50:37Z</time></trkpt>
<trkpt lat="24.850733" lon="105.216067">
<time>2016-10-06T21:50:38Z</time></trkpt>
<trkpt lat="24.850852" lon="105.215977">
<time>2016-10-06T21:50:39Z</time></trkpt>
<trkpt lat="24.850962" lon="105.215907">
<time>2016-10-06T21:50:40Z</time></trkpt>
<trkpt lat="24.851052" lon="105.215877">
<time>2016-10-06T21:50:41Z</time></trkpt>
<trkpt lat="24.851182" lon="105.215837">
<time>2016-10-06T21:50:42Z</time></trkpt>
<trkpt lat="24.851352" lon="105.215817">
<time>2016-10-06T21:50:43Z</time></trkpt>
<trkpt lat="24.851512" lon="105.215777">
<time>2016-10-06T21:50:44Z</time></trkpt>
<trkpt lat="24.851612" lon="105.215737">
<time>2016-10-06T21:50:45Z</time></trkpt>
<trkpt lat="24.851702" lon="105.215667">
<time>2016-10-06T21:50:46Z</time></trkpt>
<trkpt lat="24.851772" lon="105.215567">
<time>2016-10-06T21:50:47Z</time></trkpt>
<trkpt lat="24.851832" lon="105.215447">
<time>2016-10-06T21:50:48Z</time></trkpt>
<trkpt lat="24.851872" lon="105.215327">
<time>2016-10-06T21:50:49Z</time></trkpt>
<trkpt lat="24.851961" lon="105.215007">
<time>2016-10-06T21:50:50Z</time></trkpt>
<trkpt lat="24.852091" lon="105.214637">
<time>2016-10-06T21:50:51Z</time></trkpt>
<trkpt lat="24.852171" lon="105.214477">
<time>2016-10-06T21:50:52Z</time></trkpt>
<trkpt lat="24.85228" lon="105.214317">
<time>2016-10-06T21:50:53Z</time></trkpt>
<trkpt lat="24.85237" lon="105.214227">
<time>2016-10-06T21:50:54Z</time></trkpt>
<trkpt lat="24.85245" lon="105.214137">
<time>2016-10-06T21:50:55Z</time></trkpt>
<trkpt lat="24.85258" lon="105.214017">
<time>2016-10-06T21:50:56Z</time></trkpt>
<trkpt lat="24.85269" lon="105.213907">
<time>2016-10-06T21:50:57Z</time></trkpt>
<trkpt lat="24.85277" lon="105.213817">
<time>2016-10-06T21:50:58Z</time></trkpt>
<trkpt lat="24.85286" lon="105.213697">
<time>2016-10-06T21:50:59Z</time></trkpt>
<trkpt lat="24.852959" lon="105.213527">
<time>2016-10-06T21:51:00Z</time></trkpt>
<trkpt lat="24.853059" lon="105.213317">
<time>2016-10-06T21:51:01Z</time></trkpt>
<trkpt lat="24.853069" lon="105.213286">
<time>2016-10-06T21:51:02Z</time></trkpt>
<trkpt lat="24.853378" lon="105.212546">
<time>2016-10-06T21:51:03Z</time></trkpt>
<trkpt lat="24.853488" lon="105.212286">
<time>2016-10-06T21:51:04Z</time></trkpt>
<trkpt lat="24.853548" lon="105.212086">
<time>2016-10-06T21:51:05Z</time></trkpt>
<trkpt lat="24.853617" lon="105.211816">
<time>2016-10-06T21:51:06Z</time></trkpt>
<trkpt lat="24.853667" lon="105.211556">
<time>2016-10-06T21:51:07Z</time></trkpt>
<trkpt lat="24.853707" lon="105.211406">
<time>2016-10-06T21:51:08Z</time></trkpt>
<trkpt lat="24.853747" lon="105.211276">
<time>2016-10-06T21:51:09Z</time></trkpt>
<trkpt lat="24.853816" lon="105.211136">
<time>2016-10-06T21:51:10Z</time></trkpt>
<trkpt lat="24.853916" lon="105.211016">
<time>2016-10-06T21:51:11Z</time></trkpt>
<trkpt lat="24.854116" lon="105.210796">
<time>2016-10-06T21:51:12Z</time></trkpt>
<trkpt lat="24.854156" lon="105.210756">
<time>2016-10-06T21:51:13Z</time></trkpt>
<trkpt lat="24.854196" lon="105.210706">
<time>2016-10-06T21:51:14Z</time></trkpt>
<trkpt lat="24.854226" lon="105.210666">
<time>2016-10-06T21:51:15Z</time></trkpt>
<trkpt lat="24.854246" lon="105.210616">
<time>2016-10-06T21:51:16Z</time></trkpt>
<trkpt lat="24.854286" lon="105.210526">
<time>2016-10-06T21:51:17Z</time></trkpt>
<trkpt lat="24.854316" lon="105.210446">
<time>2016-10-06T21:51:18Z</time></trkpt>
<trkpt lat="24.854315" lon="105.210406">
<time>2016-10-06T21:51:19Z</time></trkpt>
<trkpt lat="24.854325" lon="105.210356">
<time>2016-10-06T21:51:20Z</time></trkpt>
<trkpt lat="24.854325" lon="105.210296">
<time>2016-10-06T21:51:21Z</time></trkpt>
<trkpt lat="24.854315" lon="105.210236">
<time>2016-10-06T21:51:22Z</time></trkpt>
<trkpt lat="24.854295" lon="105.210186">
<time>2016-10-06T21:51:23Z</time></trkpt>
<trkpt lat="24.854275" lon="105.210106">
<time>2016-10-06T21:51:24Z</time></trkpt>
<trkpt lat="24.854185" lon="105.209865">
<time>2016-10-06T21:51:25Z</time></trkpt>
<trkpt lat="24.854125" lon="105.209655">
<time>2016-10-06T21:51:26Z</time></trkpt>
<trkpt lat="24.854104" lon="105.209585">
<time>2016-10-06T21:51:27Z</time></trkpt>
<trkpt lat="24.854094" lon="105.209555">
<time>2016-10-06T21:51:28Z</time></trkpt>
<trkpt lat="24.854084" lon="105.209505">
<time>2016-10-06T21:51:29Z</time></trkpt>
<trkpt lat="24.854084" lon="105.209465">
<time>2016-10-06T21:51:30Z</time></trkpt>
<trkpt lat="24.854094" lon="105.209415">
<time>2016-10-06T21:51:31Z</time></trkpt>
<trkpt lat="24.854104" lon="105.209365">
<time>2016-10-06T21:51:32Z</time></trkpt>
<trkpt lat="24.854124" lon="105.209315">
<time>2016-10-06T21:51:33Z</time></trkpt>
<trkpt lat="24.854144" lon="105.209275">
<time>2016-10-06T21:51:34Z</time></trkpt>
<trkpt lat="24.854174" lon="105.209235">
<time>2016-10-06T21:51:35Z</time></trkpt>
<trkpt lat="24.854204" lon="105.209215">
<time>2016-10-06T21:51:36Z</time></trkpt>
<trkpt lat="24.854224" lon="105.209185">
<time>2016-10-06T21:51:37Z</time></trkpt>
<trkpt lat="24.854264" lon="105.209175">
<time>2016-10-06T21:51:38Z</time></trkpt>
<trkpt lat="24.854304" lon="105.209155">
<time>2016-10-06T21:51:39Z</time></trkpt>
<trkpt lat="24.854354" lon="105.209145">
<time>2016-10-06T21:51:40Z</time></trkpt>
<trkpt lat="24.854414" lon="105.209135">
<time>2016-10-06T21:51:41Z</time></trkpt>
<trkpt lat="24.854604" lon="105.209125">
<time>2016-10-06T21:51:42Z</time></trkpt>
<trkpt lat="24.854874" lon="105.209095">
<time>2016-10-06T21:51:43Z</time></trkpt>
<trkpt lat="24.855024" lon="105.209065">
<time>2016-10-06T21:51:44Z</time></trkpt>
<trkpt lat="24.855084" lon="105.209045">
<time>2016-10-06T21:51:45Z</time></trkpt>
<trkpt lat="24.855224" lon="105.208995">
<time>2016-10-06T21:51:46Z</time></trkpt>
<trkpt lat="24.855473" lon="105.208905">
<time>2016-10-06T21:51:47Z</time></trkpt>
<trkpt lat="24.857162" lon="105.208115">
<time>2016-10-06T21:51:48Z</time></trkpt>
<trkpt lat="24.858052" lon="105.207684">
<time>2016-10-06T21:51:49Z</time></trkpt>
<trkpt lat="24.858791" lon="105.207344">
<time>2016-10-06T21:51:50Z</time></trkpt>
<trkpt lat="24.859041" lon="105.207224">
<time>2016-10-06T21:51:51Z</time></trkpt>
<trkpt lat="24.859091" lon="105.207194">
<time>2016-10-06T21:51:52Z</time></trkpt>
<trkpt lat="24.859141" lon="105.207164">
<time>2016-10-06T21:51:53Z</time></trkpt>
<trkpt lat="24.859191" lon="105.207134">
<time>2016-10-06T21:51:54Z</time></trkpt>
<trkpt lat="24.859201" lon="105.207134">
<time>2016-10-06T21:51:55Z</time></trkpt>
<trkpt lat="24.859221" lon="105.207114">
<time>2016-10-06T21:51:56Z</time></trkpt>
<trkpt lat="24.859231" lon="105.207114">
<time>2016-10-06T21:51:57Z</time></trkpt>
<trkpt lat="24.85936" lon="105.207024">
<time>2016-10-06T21:51:58Z</time></trkpt>
<trkpt lat="24.85944" lon="105.206964">
<time>2016-10-06T21:51:59Z</time></trkpt>
<trkpt lat="24.85961" lon="105.206844">
<time>2016-10-06T21:52:00Z</time></trkpt>
<trkpt lat="24.85979" lon="105.206664">
<time>2016-10-06T21:52:01Z</time></trkpt>
<trkpt lat="24.85987" lon="105.206574">
<time>2016-10-06T21:52:02Z</time></trkpt>
<trkpt lat="24.85998" lon="105.206454">
<time>2016-10-06T21:52:03Z</time></trkpt>
<trkpt lat="24.860089" lon="105.206334">
<time>2016-10-06T21:52:04Z</time></trkpt>
<trkpt lat="24.860289" lon="105.206074">
<time>2016-10-06T21:52:05Z</time></trkpt>
<trkpt lat="24.860558" lon="105.205673">
<time>2016-10-06T21:52:06Z</time></trkpt>
<trkpt lat="24.861367" lon="105.204523">
<time>2016-10-06T21:52:07Z</time></trkpt>
<trkpt lat="24.861995" lon="105.203622">
<time>2016-10-06T21:52:08Z</time></trkpt>
<trkpt lat="24.862215" lon="105.203302">
<time>2016-10-06T21:52:09Z</time></trkpt>
<trkpt lat="24.862335" lon="105.203122">
<time>2016-10-06T21:52:10Z</time></trkpt>
<trkpt lat="24.862464" lon="105.202952">
<time>2016-10-06T21:52:11Z</time></trkpt>
<trkpt lat="24.863243" lon="105.201861">
<time>2016-10-06T21:52:12Z</time></trkpt>
<trkpt lat="24.863313" lon="105.201761">
<time>2016-10-06T21:52:13Z</time></trkpt>
<trkpt lat="24.863632" lon="105.201311">
<time>2016-10-06T21:52:14Z</time></trkpt>
<trkpt lat="24.863762" lon="105.201131">
<time>2016-10-06T21:52:15Z</time></trkpt>
<trkpt lat="24.86454" lon="105.20004">
<time>2016-10-06T21:52:16Z</time></trkpt>
<trkpt lat="24.864959" lon="105.19946">
<time>2016-10-06T21:52:17Z</time></trkpt>
<trkpt lat="24.865099" lon="105.19926">
<time>2016-10-06T21:52:18Z</time></trkpt>
<trkpt lat="24.865158" lon="105.19917">
<time>2016-10-06T21:52:19Z</time></trkpt>
<trkpt lat="24.865208" lon="105.19908">
<time>2016-10-06T21:52:20Z</time></trkpt>
<trkpt lat="24.865238" lon="105.19903">
<time>2016-10-06T21:52:21Z</time></trkpt>
<trkpt lat="24.865278" lon="105.198929">
<time>2016-10-06T21:52:22Z</time></trkpt>
<trkpt lat="24.865288" lon="105.198879">
<time>2016-10-06T21:52:23Z</time></trkpt>
<trkpt lat="24.865308" lon="105.198799">
<time>2016-10-06T21:52:24Z</time></trkpt>
<trkpt lat="24.865328" lon="105.198639">
<time>2016-10-06T21:52:25Z</time></trkpt>
<trkpt lat="24.865327" lon="105.198509">
<time>2016-10-06T21:52:26Z</time></trkpt>
<trkpt lat="24.865307" lon="105.198319">
<time>2016-10-06T21:52:27Z</time></trkpt>
<trkpt lat="24.865257" lon="105.198189">
<time>2016-10-06T21:52:28Z</time></trkpt>
<trkpt lat="24.865187" lon="105.197999">
<time>2016-10-06T21:52:29Z</time></trkpt>
<trkpt lat="24.864976" lon="105.197599">
<time>2016-10-06T21:52:30Z</time></trkpt>
<trkpt lat="24.864645" lon="105.196898">
<time>2016-10-06T21:52:31Z</time></trkpt>
<trkpt lat="24.864504" lon="105.196618">
<time>2016-10-06T21:52:32Z</time></trkpt>
<trkpt lat="24.864354" lon="105.196388">
<time>2016-10-06T21:52:33Z</time></trkpt>
<trkpt lat="24.864344" lon="105.196378">
<time>2016-10-06T21:52:34Z</time></trkpt>
<trkpt lat="24.864214" lon="105.196218">
<time>2016-10-06T21:52:35Z</time></trkpt>
<trkpt lat="24.863903" lon="105.195898">
<time>2016-10-06T21:52:36Z</time></trkpt>
<trkpt lat="24.863082" lon="105.195077">
<time>2016-10-06T21:52:37Z</time></trkpt>
<trkpt lat="24.862702" lon="105.194687">
<time>2016-10-06T21:52:38Z</time></trkpt>
<trkpt lat="24.862611" lon="105.194577">
<time>2016-10-06T21:52:39Z</time></trkpt>
<trkpt lat="24.862571" lon="105.194507">
<time>2016-10-06T21:52:40Z</time></trkpt>
<trkpt lat="24.862541" lon="105.194427">
<time>2016-10-06T21:52:41Z</time></trkpt>
<trkpt lat="24.862491" lon="105.194326">
<time>2016-10-06T21:52:42Z</time></trkpt>
<trkpt lat="24.862451" lon="105.194206">
<time>2016-10-06T21:52:43Z</time></trkpt>
<trkpt lat="24.86239" lon="105.193936">
<time>2016-10-06T21:52:44Z</time></trkpt>
<trkpt lat="24.862209" lon="105.192935">
<time>2016-10-06T21:52:45Z</time></trkpt>
<trkpt lat="24.862098" lon="105.192355">
<time>2016-10-06T21:52:46Z</time></trkpt>
<trkpt lat="24.862058" lon="105.192215">
<time>2016-10-06T21:52:47Z</time></trkpt>
<trkpt lat="24.862027" lon="105.192105">
<time>2016-10-06T21:52:48Z</time></trkpt>
<trkpt lat="24.861987" lon="105.191995">
<time>2016-10-06T21:52:49Z</time></trkpt>
<trkpt lat="24.861947" lon="105.191905">
<time>2016-10-06T21:52:50Z</time></trkpt>
<trkpt lat="24.861907" lon="105.191855">
<time>2016-10-06T21:52:51Z</time></trkpt>
<trkpt lat="24.861867" lon="105.191795">
<time>2016-10-06T21:52:52Z</time></trkpt>
<trkpt lat="24.861807" lon="105.191734">
<time>2016-10-06T21:52:53Z</time></trkpt>
<trkpt lat="24.861737" lon="105.191674">
<time>2016-10-06T21:52:54Z</time></trkpt>
<trkpt lat="24.861667" lon="105.191624">
<time>2016-10-06T21:52:55Z</time></trkpt>
<trkpt lat="24.861587" lon="105.191574">
<time>2016-10-06T21:52:56Z</time></trkpt>
<trkpt lat="24.861366" lon="105.191474">
<time>2016-10-06T21:52:57Z</time></trkpt>
<trkpt lat="24.861186" lon="105.191374">
<time>2016-10-06T21:52:58Z</time></trkpt>
<trkpt lat="24.860826" lon="105.191164">
<time>2016-10-06T21:52:59Z</time></trkpt>
<trkpt lat="24.860606" lon="105.190954">
<time>2016-10-06T21:53:00Z</time></trkpt>
<trkpt lat="24.860205" lon="105.190554">
<time>2016-10-06T21:53:01Z</time></trkpt>
<trkpt lat="24.859373" lon="105.189433">
<time>2016-10-06T21:53:02Z</time></trkpt>
<trkpt lat="24.859052" lon="105.188972">
<time>2016-10-06T21:53:03Z</time></trkpt>
<trkpt lat="24.858982" lon="105.188872">
<time>2016-10-06T21:53:04Z</time></trkpt>
<trkpt lat="24.858922" lon="105.188782">
<time>2016-10-06T21:53:05Z</time></trkpt>
<trkpt lat="24.858872" lon="105.188692">
<time>2016-10-06T21:53:06Z</time></trkpt>
<trkpt lat="24.858842" lon="105.188602">
<time>2016-10-06T21:53:07Z</time></trkpt>
<trkpt lat="24.858822" lon="105.188502">
<time>2016-10-06T21:53:08Z</time></trkpt>
<trkpt lat="24.858821" lon="105.188402">
<time>2016-10-06T21:53:09Z</time></trkpt>
<trkpt lat="24.858831" lon="105.188212">
<time>2016-10-06T21:53:10Z</time></trkpt>
<trkpt lat="24.85897" lon="105.187441">
<time>2016-10-06T21:53:11Z</time></trkpt>
<trkpt lat="24.859178" lon="105.18635">
<time>2016-10-06T21:53:12Z</time></trkpt>
<trkpt lat="24.859435" lon="105.185009">
<time>2016-10-06T21:53:13Z</time></trkpt>
<trkpt lat="24.859564" lon="105.184378">
<time>2016-10-06T21:53:14Z</time></trkpt>
<trkpt lat="24.859624" lon="105.184178">
<time>2016-10-06T21:53:15Z</time></trkpt>
<trkpt lat="24.859674" lon="105.184038">
<time>2016-10-06T21:53:16Z</time></trkpt>
<trkpt lat="24.859763" lon="105.183828">
<time>2016-10-06T21:53:17Z</time></trkpt>
<trkpt lat="24.860012" lon="105.183277">
<time>2016-10-06T21:53:18Z</time></trkpt>
<trkpt lat="24.860411" lon="105.182437">
<time>2016-10-06T21:53:19Z</time></trkpt>
<trkpt lat="24.86055" lon="105.182176">
<time>2016-10-06T21:53:20Z</time></trkpt>
<trkpt lat="24.86063" lon="105.181996">
<time>2016-10-06T21:53:21Z</time></trkpt>
<trkpt lat="24.860709" lon="105.181766">
<time>2016-10-06T21:53:22Z</time></trkpt>
<trkpt lat="24.860729" lon="105.181656">
<time>2016-10-06T21:53:23Z</time></trkpt>
<trkpt lat="24.860729" lon="105.181586">
<time>2016-10-06T21:53:24Z</time></trkpt>
<trkpt lat="24.860739" lon="105.181546">
<time>2016-10-06T21:53:25Z</time></trkpt>
<trkpt lat="24.860729" lon="105.181406">
<time>2016-10-06T21:53:26Z</time></trkpt>
<trkpt lat="24.860688" lon="105.181025">
<time>2016-10-06T21:53:27Z</time></trkpt>
<trkpt lat="24.860688" lon="105.180825">
<time>2016-10-06T21:53:28Z</time></trkpt>
<trkpt lat="24.860707" lon="105.180625">
<time>2016-10-06T21:53:29Z</time></trkpt>
<trkpt lat="24.860747" lon="105.180445">
<time>2016-10-06T21:53:30Z</time></trkpt>
<trkpt lat="24.860797" lon="105.180295">
<time>2016-10-06T21:53:31Z</time></trkpt>
<trkpt lat="24.860886" lon="105.180084">
<time>2016-10-06T21:53:32Z</time></trkpt>
<trkpt lat="24.861305" lon="105.179224">
<time>2016-10-06T21:53:33Z</time></trkpt>
<trkpt lat="24.861474" lon="105.178863">
<time>2016-10-06T21:53:34Z</time></trkpt>
<trkpt lat="24.861544" lon="105.178733">
<time>2016-10-06T21:53:35Z</time></trkpt>
<trkpt lat="24.861653" lon="105.178563">
<time>2016-10-06T21:53:36Z</time></trkpt>
<trkpt lat="24.861763" lon="105.178413">
<time>2016-10-06T21:53:37Z</time></trkpt>
<trkpt lat="24.861943" lon="105.178183">
<time>2016-10-06T21:53:38Z</time></trkpt>
<trkpt lat="24.862102" lon="105.177942">
<time>2016-10-06T21:53:39Z</time></trkpt>
<trkpt lat="24.862242" lon="105.177692">
<time>2016-10-06T21:53:40Z</time></trkpt>
<trkpt lat="24.862331" lon="105.177552">
<time>2016-10-06T21:53:41Z</time></trkpt>
<trkpt lat="24.862421" lon="105.177442">
<time>2016-10-06T21:53:42Z</time></trkpt>
<trkpt lat="24.862551" lon="105.177292">
<time>2016-10-06T21:53:43Z</time></trkpt>
<trkpt lat="24.8628" lon="105.177071">
<time>2016-10-06T21:53:44Z</time></trkpt>
<trkpt lat="24.86299" lon="105.176891">
<time>2016-10-06T21:53:45Z</time></trkpt>
<trkpt lat="24.86312" lon="105.176721">
<time>2016-10-06T21:53:46Z</time></trkpt>
<trkpt lat="24.86318" lon="105.176621">
<time>2016-10-06T21:53:47Z</time></trkpt>
<trkpt lat="24.863219" lon="105.176541">
<time>2016-10-06T21:53:48Z</time></trkpt>
<trkpt lat="24.863299" lon="105.176341">
<time>2016-10-06T21:53:49Z</time></trkpt>
<trkpt lat="24.863538" lon="105.17574">
<time>2016-10-06T21:53:50Z</time></trkpt>
<trkpt lat="24.863618" lon="105.17558">
<time>2016-10-06T21:53:51Z</time></trkpt>
<trkpt lat="24.863687" lon="105.17547">
<time>2016-10-06T21:53:52Z</time></trkpt>
<trkpt lat="24.863777" lon="105.17535">
<time>2016-10-06T21:53:53Z</time></trkpt>
<trkpt lat="24.863877" lon="105.17524">
<time>2016-10-06T21:53:54Z</time></trkpt>
<trkpt lat="24.863997" lon="105.175129">
<time>2016-10-06T21:53:55Z</time></trkpt>
<trkpt lat="24.864286" lon="105.174899">
<time>2016-10-06T21:53:56Z</time></trkpt>
<trkpt lat="24.864506" lon="105.174669">
<time>2016-10-06T21:53:57Z</time></trkpt>
<trkpt lat="24.864675" lon="105.174469">
<time>2016-10-06T21:53:58Z</time></trkpt>
<trkpt lat="24.865334" lon="105.173548">
<time>2016-10-06T21:53:59Z</time></trkpt>
<trkpt lat="24.865982" lon="105.172647">
<time>2016-10-06T21:54:00Z</time></trkpt>
<trkpt lat="24.86672" lon="105.171676">
<time>2016-10-06T21:54:01Z</time></trkpt>
<trkpt lat="24.867109" lon="105.171195">
<time>2016-10-06T21:54:02Z</time></trkpt>
<trkpt lat="24.867298" lon="105.170965">
<time>2016-10-06T21:54:03Z</time></trkpt>
<trkpt lat="24.867408" lon="105.170765">
<time>2016-10-06T21:54:04Z</time></trkpt>
<trkpt lat="24.867468" lon="105.170575">
<time>2016-10-06T21:54:05Z</time></trkpt>
<trkpt lat="24.867507" lon="105.170345">
<time>2016-10-06T21:54:06Z</time></trkpt>
<trkpt lat="24.867556" lon="105.169894">
<time>2016-10-06T21:54:07Z</time></trkpt>
<trkpt lat="24.867616" lon="105.169454">
<time>2016-10-06T21:54:08Z</time></trkpt>
<trkpt lat="24.867695" lon="105.169183">
<time>2016-10-06T21:54:09Z</time></trkpt>
<trkpt lat="24.867804" lon="105.168873">
<time>2016-10-06T21:54:10Z</time></trkpt>
<trkpt lat="24.867964" lon="105.168443">
<time>2016-10-06T21:54:11Z</time></trkpt>
<trkpt lat="24.868043" lon="105.168182">
<time>2016-10-06T21:54:12Z</time></trkpt>
<trkpt lat="24.868083" lon="105.167932">
<time>2016-10-06T21:54:13Z</time></trkpt>
<trkpt lat="24.868102" lon="105.167642">
<time>2016-10-06T21:54:14Z</time></trkpt>
<trkpt lat="24.868151" lon="105.167252">
<time>2016-10-06T21:54:15Z</time></trkpt>
<trkpt lat="24.868211" lon="105.166881">
<time>2016-10-06T21:54:16Z</time></trkpt>
<trkpt lat="24.868419" lon="105.166271">
<time>2016-10-06T21:54:17Z</time></trkpt>
<trkpt lat="24.868529" lon="105.16599">
<time>2016-10-06T21:54:18Z</time></trkpt>
<trkpt lat="24.868698" lon="105.16571">
<time>2016-10-06T21:54:19Z</time></trkpt>
<trkpt lat="24.868898" lon="105.16544">
<time>2016-10-06T21:54:20Z</time></trkpt>
<trkpt lat="24.869347" lon="105.164909">
<time>2016-10-06T21:54:21Z</time></trkpt>
<trkpt lat="24.869606" lon="105.164609">
<time>2016-10-06T21:54:22Z</time></trkpt>
<trkpt lat="24.869696" lon="105.164509">
<time>2016-10-06T21:54:23Z</time></trkpt>
<trkpt lat="24.869786" lon="105.164389">
<time>2016-10-06T21:54:24Z</time></trkpt>
<trkpt lat="24.869846" lon="105.164279">
<time>2016-10-06T21:54:25Z</time></trkpt>
<trkpt lat="24.869915" lon="105.164128">
<time>2016-10-06T21:54:26Z</time></trkpt>
<trkpt lat="24.869965" lon="105.163988">
<time>2016-10-06T21:54:27Z</time></trkpt>
<trkpt lat="24.870005" lon="105.163808">
<time>2016-10-06T21:54:28Z</time></trkpt>
<trkpt lat="24.870084" lon="105.163358">
<time>2016-10-06T21:54:29Z</time></trkpt>
<trkpt lat="24.870133" lon="105.163027">
<time>2016-10-06T21:54:30Z</time></trkpt>
<trkpt lat="24.870153" lon="105.162927">
<time>2016-10-06T21:54:31Z</time></trkpt>
<trkpt lat="24.870163" lon="105.162807">
<time>2016-10-06T21:54:32Z</time></trkpt>
<trkpt lat="24.870163" lon="105.162697">
<time>2016-10-06T21:54:33Z</time></trkpt>
<trkpt lat="24.870162" lon="105.162607">
<time>2016-10-06T21:54:34Z</time></trkpt>
<trkpt lat="24.870142" lon="105.162507">
<time>2016-10-06T21:54:35Z</time></trkpt>
<trkpt lat="24.870092" lon="105.162357">
<time>2016-10-06T21:54:36Z</time></trkpt>
<trkpt lat="24.870042" lon="105.162257">
<time>2016-10-06T21:54:37Z</time></trkpt>
<trkpt lat="24.869781" lon="105.161836">
<time>2016-10-06T21:54:38Z</time></trkpt>
<trkpt lat="24.869269" lon="105.161025">
<time>2016-10-06T21:54:39Z</time></trkpt>
<trkpt lat="24.869169" lon="105.160825">
<time>2016-10-06T21:54:40Z</time></trkpt>
<trkpt lat="24.869139" lon="105.160745">
<time>2016-10-06T21:54:41Z</time></trkpt>
<trkpt lat="24.869109" lon="105.160655">
<time>2016-10-06T21:54:42Z</time></trkpt>
<trkpt lat="24.869089" lon="105.160545">
<time>2016-10-06T21:54:43Z</time></trkpt>
<trkpt lat="24.869068" lon="105.160375">
<time>2016-10-06T21:54:44Z</time></trkpt>
<trkpt lat="24.869037" lon="105.159914">
<time>2016-10-06T21:54:45Z</time></trkpt>
<trkpt lat="24.869037" lon="105.159634">
<time>2016-10-06T21:54:46Z</time></trkpt>
<trkpt lat="24.869066" lon="105.159364">
<time>2016-10-06T21:54:47Z</time></trkpt>
<trkpt lat="24.869216" lon="105.158873">
<time>2016-10-06T21:54:48Z</time></trkpt>
<trkpt lat="24.869643" lon="105.157482">
<time>2016-10-06T21:54:49Z</time></trkpt>
<trkpt lat="24.869812" lon="105.156982">
<time>2016-10-06T21:54:50Z</time></trkpt>
<trkpt lat="24.870121" lon="105.156361">
<time>2016-10-06T21:54:51Z</time></trkpt>
<trkpt lat="24.87033" lon="105.155861">
<time>2016-10-06T21:54:52Z</time></trkpt>
<trkpt lat="24.870688" lon="105.15481">
<time>2016-10-06T21:54:53Z</time></trkpt>
<trkpt lat="24.871265" lon="105.153518">
<time>2016-10-06T21:54:54Z</time></trkpt>
<trkpt lat="24.871335" lon="105.153388">
<time>2016-10-06T21:54:55Z</time></trkpt>
<trkpt lat="24.871445" lon="105.153208">
<time>2016-10-06T21:54:56Z</time></trkpt>
<trkpt lat="24.871525" lon="105.153028">
<time>2016-10-06T21:54:57Z</time></trkpt>
<trkpt lat="24.871584" lon="105.152858">
<time>2016-10-06T21:54:58Z</time></trkpt>
<trkpt lat="24.871694" lon="105.152688">
<time>2016-10-06T21:54:59Z</time></trkpt>
<trkpt lat="24.871834" lon="105.152507">
<time>2016-10-06T21:55:00Z</time></trkpt>
<trkpt lat="24.871943" lon="105.152397">
<time>2016-10-06T21:55:01Z</time></trkpt>
<trkpt lat="24.872283" lon="105.152147">
<time>2016-10-06T21:55:02Z</time></trkpt>
<trkpt lat="24.872622" lon="105.151907">
<time>2016-10-06T21:55:03Z</time></trkpt>
<trkpt lat="24.872812" lon="105.151717">
<time>2016-10-06T21:55:04Z</time></trkpt>
<trkpt lat="24.872992" lon="105.151527">
<time>2016-10-06T21:55:05Z</time></trkpt>
<trkpt lat="24.873381" lon="105.150896">
<time>2016-10-06T21:55:06Z</time></trkpt>
<trkpt lat="24.87355" lon="105.150666">
<time>2016-10-06T21:55:07Z</time></trkpt>
<trkpt lat="24.873829" lon="105.150316">
<time>2016-10-06T21:55:08Z</time></trkpt>
<trkpt lat="24.873979" lon="105.150105">
<time>2016-10-06T21:55:09Z</time></trkpt>
<trkpt lat="24.874099" lon="105.149905">
<time>2016-10-06T21:55:10Z</time></trkpt>
<trkpt lat="24.874188" lon="105.149725">
<time>2016-10-06T21:55:11Z</time></trkpt>
<trkpt lat="24.874338" lon="105.149475">
<time>2016-10-06T21:55:12Z</time></trkpt>
<trkpt lat="24.874448" lon="105.149325">
<time>2016-10-06T21:55:13Z</time></trkpt>
<trkpt lat="24.874597" lon="105.149205">
<time>2016-10-06T21:55:14Z</time></trkpt>
<trkpt lat="24.874707" lon="105.149125">
<time>2016-10-06T21:55:15Z</time></trkpt>
<trkpt lat="24.874877" lon="105.149024">
<time>2016-10-06T21:55:16Z</time></trkpt>
<trkpt lat="24.875406" lon="105.148704">
<time>2016-10-06T21:55:17Z</time></trkpt>
<trkpt lat="24.875496" lon="105.148634">
<time>2016-10-06T21:55:18Z</time></trkpt>
<trkpt lat="24.875576" lon="105.148574">
<time>2016-10-06T21:55:19Z</time></trkpt>
<trkpt lat="24.875656" lon="105.148494">
<time>2016-10-06T21:55:20Z</time></trkpt>
<trkpt lat="24.875726" lon="105.148364">
<time>2016-10-06T21:55:21Z</time></trkpt>
<trkpt lat="24.875786" lon="105.148214">
<time>2016-10-06T21:55:22Z</time></trkpt>
<trkpt lat="24.875815" lon="105.148004">
<time>2016-10-06T21:55:23Z</time></trkpt>
<trkpt lat="24.875815" lon="105.147743">
<time>2016-10-06T21:55:24Z</time></trkpt>
<trkpt lat="24.875804" lon="105.147563">
<time>2016-10-06T21:55:25Z</time></trkpt>
<trkpt lat="24.875784" lon="105.147253">
<time>2016-10-06T21:55:26Z</time></trkpt>
<trkpt lat="24.875804" lon="105.147183">
<time>2016-10-06T21:55:27Z</time></trkpt>
<trkpt lat="24.875834" lon="105.147113">
<time>2016-10-06T21:55:28Z</time></trkpt>
<trkpt lat="24.875844" lon="105.147093">
<time>2016-10-06T21:55:29Z</time></trkpt>
<trkpt lat="24.875864" lon="105.147033">
<time>2016-10-06T21:55:30Z</time></trkpt>
<trkpt lat="24.875903" lon="105.146973">
<time>2016-10-06T21:55:31Z</time></trkpt>
<trkpt lat="24.875943" lon="105.146903">
<time>2016-10-06T21:55:32Z</time></trkpt>
<trkpt lat="24.876043" lon="105.146783">
<time>2016-10-06T21:55:33Z</time></trkpt>
<trkpt lat="24.876183" lon="105.146622">
<time>2016-10-06T21:55:34Z</time></trkpt>
<trkpt lat="24.876283" lon="105.146502">
<time>2016-10-06T21:55:35Z</time></trkpt>
<trkpt lat="24.876362" lon="105.146362">
<time>2016-10-06T21:55:36Z</time></trkpt>
<trkpt lat="24.876442" lon="105.146202">
<time>2016-10-06T21:55:37Z</time></trkpt>
<trkpt lat="24.876602" lon="105.145862">
<time>2016-10-06T21:55:38Z</time></trkpt>
<trkpt lat="24.87692" lon="105.145181">
<time>2016-10-06T21:55:39Z</time></trkpt>
<trkpt lat="24.87704" lon="105.144981">
<time>2016-10-06T21:55:40Z</time></trkpt>
<trkpt lat="24.8772" lon="105.144781">
<time>2016-10-06T21:55:41Z</time></trkpt>
<trkpt lat="24.877379" lon="105.144581">
<time>2016-10-06T21:55:42Z</time></trkpt>
<trkpt lat="24.877519" lon="105.144401">
<time>2016-10-06T21:55:43Z</time></trkpt>
<trkpt lat="24.877629" lon="105.144241">
<time>2016-10-06T21:55:44Z</time></trkpt>
<trkpt lat="24.877698" lon="105.144081">
<time>2016-10-06T21:55:45Z</time></trkpt>
<trkpt lat="24.877788" lon="105.14385">
<time>2016-10-06T21:55:46Z</time></trkpt>
<trkpt lat="24.877897" lon="105.14337">
<time>2016-10-06T21:55:47Z</time></trkpt>
<trkpt lat="24.877947" lon="105.14321">
<time>2016-10-06T21:55:48Z</time></trkpt>
<trkpt lat="24.878007" lon="105.1431">
<time>2016-10-06T21:55:49Z</time></trkpt>
<trkpt lat="24.878047" lon="105.14304">
<time>2016-10-06T21:55:50Z</time></trkpt>
<trkpt lat="24.878097" lon="105.143">
<time>2016-10-06T21:55:51Z</time></trkpt>
<trkpt lat="24.878167" lon="105.14296">
<time>2016-10-06T21:55:52Z</time></trkpt>
<trkpt lat="24.878246" lon="105.14294">
<time>2016-10-06T21:55:53Z</time></trkpt>
<trkpt lat="24.878296" lon="105.14294">
<time>2016-10-06T21:55:54Z</time></trkpt>
<trkpt lat="24.878346" lon="105.14294">
<time>2016-10-06T21:55:55Z</time></trkpt>
<trkpt lat="24.878386" lon="105.14294">
<time>2016-10-06T21:55:56Z</time></trkpt>
<trkpt lat="24.878736" lon="105.14299">
<time>2016-10-06T21:55:57Z</time></trkpt>
<trkpt lat="24.879277" lon="105.14309">
<time>2016-10-06T21:55:58Z</time></trkpt>
<trkpt lat="24.879407" lon="105.14311">
<time>2016-10-06T21:55:59Z</time></trkpt>
<trkpt lat="24.879457" lon="105.14311">
<time>2016-10-06T21:56:00Z</time></trkpt>
<trkpt lat="24.879517" lon="105.14311">
<time>2016-10-06T21:56:01Z</time></trkpt>
<trkpt lat="24.879587" lon="105.14309">
<time>2016-10-06T21:56:02Z</time></trkpt>
<trkpt lat="24.879656" lon="105.14305">
<time>2016-10-06T21:56:03Z</time></trkpt>
<trkpt lat="24.879706" lon="105.14302">
<time>2016-10-06T21:56:04Z</time></trkpt>
<trkpt lat="24.879746" lon="105.14299">
<time>2016-10-06T21:56:05Z</time></trkpt>
<trkpt lat="24.879796" lon="105.14294">
<time>2016-10-06T21:56:06Z</time></trkpt>
<trkpt lat="24.879836" lon="105.1429">
<time>2016-10-06T21:56:07Z</time></trkpt>
<trkpt lat="24.879876" lon="105.14283">
<time>2016-10-06T21:56:08Z</time></trkpt>
<trkpt lat="24.879916" lon="105.14277">
<time>2016-10-06T21:56:09Z</time></trkpt>
<trkpt lat="24.879966" lon="105.142669">
<time>2016-10-06T21:56:10Z</time></trkpt>
<trkpt lat="24.880016" lon="105.142539">
<time>2016-10-06T21:56:11Z</time></trkpt>
<trkpt lat="24.880026" lon="105.142529">
<time>2016-10-06T21:56:12Z</time></trkpt>
<trkpt lat="24.880514" lon="105.141299">
<time>2016-10-06T21:56:13Z</time></trkpt>
<trkpt lat="24.880603" lon="105.141078">
<time>2016-10-06T21:56:14Z</time></trkpt>
<trkpt lat="24.880693" lon="105.140908">
<time>2016-10-06T21:56:15Z</time></trkpt>
<trkpt lat="24.880842" lon="105.140648">
<time>2016-10-06T21:56:16Z</time></trkpt>
<trkpt lat="24.880972" lon="105.140418">
<time>2016-10-06T21:56:17Z</time></trkpt>
<trkpt lat="24.881012" lon="105.140348">
<time>2016-10-06T21:56:18Z</time></trkpt>
<trkpt lat="24.881102" lon="105.140158">
<time>2016-10-06T21:56:19Z</time></trkpt>
<trkpt lat="24.881181" lon="105.139978">
<time>2016-10-06T21:56:20Z</time></trkpt>
<trkpt lat="24.881271" lon="105.139748">
<time>2016-10-06T21:56:21Z</time></trkpt>
<trkpt lat="24.8814" lon="105.139377">
<time>2016-10-06T21:56:22Z</time></trkpt>
<trkpt lat="24.88155" lon="105.139047">
<time>2016-10-06T21:56:23Z</time></trkpt>
<trkpt lat="24.881699" lon="105.138767">
<time>2016-10-06T21:56:24Z</time></trkpt>
<trkpt lat="24.881899" lon="105.138477">
<time>2016-10-06T21:56:25Z</time></trkpt>
<trkpt lat="24.882089" lon="105.138217">
<time>2016-10-06T21:56:26Z</time></trkpt>
<trkpt lat="24.882807" lon="105.137396">
<time>2016-10-06T21:56:27Z</time></trkpt>
<trkpt lat="24.883087" lon="105.137086">
<time>2016-10-06T21:56:28Z</time></trkpt>
<trkpt lat="24.883296" lon="105.136876">
<time>2016-10-06T21:56:29Z</time></trkpt>
<trkpt lat="24.883416" lon="105.136766">
<time>2016-10-06T21:56:30Z</time></trkpt>
<trkpt lat="24.883666" lon="105.136566">
<time>2016-10-06T21:56:31Z</time></trkpt>
<trkpt lat="24.883886" lon="105.136406">
<time>2016-10-06T21:56:32Z</time></trkpt>
<trkpt lat="24.884095" lon="105.136255">
<time>2016-10-06T21:56:33Z</time></trkpt>
<trkpt lat="24.884445" lon="105.136045">
<time>2016-10-06T21:56:34Z</time></trkpt>
<trkpt lat="24.884765" lon="105.135865">
<time>2016-10-06T21:56:35Z</time></trkpt>
<trkpt lat="24.884935" lon="105.135785">
<time>2016-10-06T21:56:36Z</time></trkpt>
<trkpt lat="24.885224" lon="105.135655">
<time>2016-10-06T21:56:37Z</time></trkpt>
<trkpt lat="24.885444" lon="105.135535">
<time>2016-10-06T21:56:38Z</time></trkpt>
<trkpt lat="24.885544" lon="105.135485">
<time>2016-10-06T21:56:39Z</time></trkpt>
<trkpt lat="24.885644" lon="105.135425">
<time>2016-10-06T21:56:40Z</time></trkpt>
<trkpt lat="24.885734" lon="105.135365">
<time>2016-10-06T21:56:41Z</time></trkpt>
<trkpt lat="24.885824" lon="105.135285">
<time>2016-10-06T21:56:42Z</time></trkpt>
<trkpt lat="24.885924" lon="105.135175">
<time>2016-10-06T21:56:43Z</time></trkpt>
<trkpt lat="24.886023" lon="105.135035">
<time>2016-10-06T21:56:44Z</time></trkpt>
<trkpt lat="24.886103" lon="105.134925">
<time>2016-10-06T21:56:45Z</time></trkpt>
<trkpt lat="24.886193" lon="105.134785">
<time>2016-10-06T21:56:46Z</time></trkpt>
<trkpt lat="24.886333" lon="105.134514">
<time>2016-10-06T21:56:47Z</time></trkpt>
<trkpt lat="24.887011" lon="105.133124">
<time>2016-10-06T21:56:48Z</time></trkpt>
<trkpt lat="24.887539" lon="105.132073">
<time>2016-10-06T21:56:49Z</time></trkpt>
<trkpt lat="24.887609" lon="105.131933">
<time>2016-10-06T21:56:50Z</time></trkpt>
<trkpt lat="24.887689" lon="105.131803">
<time>2016-10-06T21:56:51Z</time></trkpt>
<trkpt lat="24.887768" lon="105.131673">
<time>2016-10-06T21:56:52Z</time></trkpt>
<trkpt lat="24.887898" lon="105.131503">
<time>2016-10-06T21:56:53Z</time></trkpt>
<trkpt lat="24.888248" lon="105.131063">
<time>2016-10-06T21:56:54Z</time></trkpt>
<trkpt lat="24.888437" lon="105.130843">
<time>2016-10-06T21:56:55Z</time></trkpt>
<trkpt lat="24.888537" lon="105.130743">
<time>2016-10-06T21:56:56Z</time></trkpt>
<trkpt lat="24.888627" lon="105.130673">
<time>2016-10-06T21:56:57Z</time></trkpt>
<trkpt lat="24.888747" lon="105.130603">
<time>2016-10-06T21:56:58Z</time></trkpt>
<trkpt lat="24.888837" lon="105.130573">
<time>2016-10-06T21:56:59Z</time></trkpt>
<trkpt lat="24.888957" lon="105.130553">
<time>2016-10-06T21:57:00Z</time></trkpt>
<trkpt lat="24.889097" lon="105.130543">
<time>2016-10-06T21:57:01Z</time></trkpt>
<trkpt lat="24.889297" lon="105.130513">
<time>2016-10-06T21:57:02Z</time></trkpt>
<trkpt lat="24.889417" lon="105.130473">
<time>2016-10-06T21:57:03Z</time></trkpt>
<trkpt lat="24.889517" lon="105.130433">
<time>2016-10-06T21:57:04Z</time></trkpt>
<trkpt lat="24.889616" lon="105.130353">
<time>2016-10-06T21:57:05Z</time></trkpt>
<trkpt lat="24.889696" lon="105.130263">
<time>2016-10-06T21:57:06Z</time></trkpt>
<trkpt lat="24.889756" lon="105.130143">
<time>2016-10-06T21:57:07Z</time></trkpt>
<trkpt lat="24.889806" lon="105.130043">
<time>2016-10-06T21:57:08Z</time></trkpt>
<trkpt lat="24.889836" lon="105.129912">
<time>2016-10-06T21:57:09Z</time></trkpt>
<trkpt lat="24.889876" lon="105.129732">
<time>2016-10-06T21:57:10Z</time></trkpt>
<trkpt lat="24.889925" lon="105.129352">
<time>2016-10-06T21:57:11Z</time></trkpt>
<trkpt lat="24.890223" lon="105.127422">
<time>2016-10-06T21:57:12Z</time></trkpt>
<trkpt lat="24.890302" lon="105.126942">
<time>2016-10-06T21:57:13Z</time></trkpt>
<trkpt lat="24.890411" lon="105.126522">
<time>2016-10-06T21:57:14Z</time></trkpt>
<trkpt lat="24.89095" lon="105.125011">
<time>2016-10-06T21:57:15Z</time></trkpt>
<trkpt lat="24.891189" lon="105.124231">
<time>2016-10-06T21:57:16Z</time></trkpt>
<trkpt lat="24.891328" lon="105.123871">
<time>2016-10-06T21:57:17Z</time></trkpt>
<trkpt lat="24.891478" lon="105.123591">
<time>2016-10-06T21:57:18Z</time></trkpt>
<trkpt lat="24.892177" lon="105.122651">
<time>2016-10-06T21:57:19Z</time></trkpt>
<trkpt lat="24.892327" lon="105.122441">
<time>2016-10-06T21:57:20Z</time></trkpt>
<trkpt lat="24.892366" lon="105.122361">
<time>2016-10-06T21:57:21Z</time></trkpt>
<trkpt lat="24.892366" lon="105.122291">
<time>2016-10-06T21:57:22Z</time></trkpt>
<trkpt lat="24.892366" lon="105.122171">
<time>2016-10-06T21:57:23Z</time></trkpt>
<trkpt lat="24.892356" lon="105.122101">
<time>2016-10-06T21:57:24Z</time></trkpt>
<trkpt lat="24.892316" lon="105.122011">
<time>2016-10-06T21:57:25Z</time></trkpt>
<trkpt lat="24.892236" lon="105.121841">
<time>2016-10-06T21:57:26Z</time></trkpt>
<trkpt lat="24.892026" lon="105.121511">
<time>2016-10-06T21:57:27Z</time></trkpt>
<trkpt lat="24.891915" lon="105.121301">
<time>2016-10-06T21:57:28Z</time></trkpt>
<trkpt lat="24.891815" lon="105.121111">
<time>2016-10-06T21:57:29Z</time></trkpt>
<trkpt lat="24.891765" lon="105.120991">
<time>2016-10-06T21:57:30Z</time></trkpt>
<trkpt lat="24.891745" lon="105.120911">
<time>2016-10-06T21:57:31Z</time></trkpt>
<trkpt lat="24.891735" lon="105.120821">
<time>2016-10-06T21:57:32Z</time></trkpt>
<trkpt lat="24.891755" lon="105.120711">
<time>2016-10-06T21:57:33Z</time></trkpt>
<trkpt lat="24.891785" lon="105.120611">
<time>2016-10-06T21:57:34Z</time></trkpt>
<trkpt lat="24.891835" lon="105.120511">
<time>2016-10-06T21:57:35Z</time></trkpt>
<trkpt lat="24.891895" lon="105.120451">
<time>2016-10-06T21:57:36Z</time></trkpt>
<trkpt lat="24.891964" lon="105.120391">
<time>2016-10-06T21:57:37Z</time></trkpt>
<trkpt lat="24.892054" lon="105.120341">
<time>2016-10-06T21:57:38Z</time></trkpt>
<trkpt lat="24.892204" lon="105.120311">
<time>2016-10-06T21:57:39Z</time></trkpt>
<trkpt lat="24.892324" lon="105.120301">
<time>2016-10-06T21:57:40Z</time></trkpt>
<trkpt lat="24.892474" lon="105.120291">
<time>2016-10-06T21:57:41Z</time></trkpt>
<trkpt lat="24.893254" lon="105.120281">
<time>2016-10-06T21:57:42Z</time></trkpt>
<trkpt lat="24.893654" lon="105.120291">
<time>2016-10-06T21:57:43Z</time></trkpt>
<trkpt lat="24.893834" lon="105.120271">
<time>2016-10-06T21:57:44Z</time></trkpt>
<trkpt lat="24.893984" lon="105.120231">
<time>2016-10-06T21:57:45Z</time></trkpt>
<trkpt lat="24.894104" lon="105.120191">
<time>2016-10-06T21:57:46Z</time></trkpt>
<trkpt lat="24.894204" lon="105.120141">
<time>2016-10-06T21:57:47Z</time></trkpt>
<trkpt lat="24.894284" lon="105.120071">
<time>2016-10-06T21:57:48Z</time></trkpt>
<trkpt lat="24.894384" lon="105.119991">
<time>2016-10-06T21:57:49Z</time></trkpt>
<trkpt lat="24.894434" lon="105.119921">
<time>2016-10-06T21:57:50Z</time></trkpt>
<trkpt lat="24.894484" lon="105.119821">
<time>2016-10-06T21:57:51Z</time></trkpt>
<trkpt lat="24.894514" lon="105.119721">
<time>2016-10-06T21:57:52Z</time></trkpt>
<trkpt lat="24.894533" lon="105.119611">
<time>2016-10-06T21:57:53Z</time></trkpt>
<trkpt lat="24.894553" lon="105.119441">
<time>2016-10-06T21:57:54Z</time></trkpt>
<trkpt lat="24.894553" lon="105.118871">
<time>2016-10-06T21:57:55Z</time></trkpt>
<trkpt lat="24.894562" lon="105.118671">
<time>2016-10-06T21:57:56Z</time></trkpt>
<trkpt lat="24.894572" lon="105.118581">
<time>2016-10-06T21:57:57Z</time></trkpt>
<trkpt lat="24.894612" lon="105.118471">
<time>2016-10-06T21:57:58Z</time></trkpt>
<trkpt lat="24.894662" lon="105.118371">
<time>2016-10-06T21:57:59Z</time></trkpt>
<trkpt lat="24.894742" lon="105.118281">
<time>2016-10-06T21:58:00Z</time></trkpt>
<trkpt lat="24.894822" lon="105.118221">
<time>2016-10-06T21:58:01Z</time></trkpt>
<trkpt lat="24.894922" lon="105.118161">
<time>2016-10-06T21:58:02Z</time></trkpt>
<trkpt lat="24.895032" lon="105.118121">
<time>2016-10-06T21:58:03Z</time></trkpt>
<trkpt lat="24.895981" lon="105.117791">
<time>2016-10-06T21:58:04Z</time></trkpt>
<trkpt lat="24.896071" lon="105.117741">
<time>2016-10-06T21:58:05Z</time></trkpt>
<trkpt lat="24.896141" lon="105.117691">
<time>2016-10-06T21:58:06Z</time></trkpt>
<trkpt lat="24.896201" lon="105.117641">
<time>2016-10-06T21:58:07Z</time></trkpt>
<trkpt lat="24.896231" lon="105.117561">
<time>2016-10-06T21:58:08Z</time></trkpt>
<trkpt lat="24.896261" lon="105.117481">
<time>2016-10-06T21:58:09Z</time></trkpt>
<trkpt lat="24.896261" lon="105.117401">
<time>2016-10-06T21:58:10Z</time></trkpt>
<trkpt lat="24.896241" lon="105.117321">
<time>2016-10-06T21:58:11Z</time></trkpt>
<trkpt lat="24.896201" lon="105.117241">
<time>2016-10-06T21:58:12Z</time></trkpt>
<trkpt lat="24.896141" lon="105.117151">
<time>2016-10-06T21:58:13Z</time></trkpt>
<trkpt lat="24.89568" lon="105.116621">
<time>2016-10-06T21:58:14Z</time></trkpt>
<trkpt lat="24.89561" lon="105.116521">
<time>2016-10-06T21:58:15Z</time></trkpt>
<trkpt lat="24.89557" lon="105.116441">
<time>2016-10-06T21:58:16Z</time></trkpt>
<trkpt lat="24.89555" lon="105.116351">
<time>2016-10-06T21:58:17Z</time></trkpt>
<trkpt lat="24.89555" lon="105.116281">
<time>2016-10-06T21:58:18Z</time></trkpt>
<trkpt lat="24.89557" lon="105.116201">
<time>2016-10-06T21:58:19Z</time></trkpt>
<trkpt lat="24.8956" lon="105.116121">
<time>2016-10-06T21:58:20Z</time></trkpt>
<trkpt lat="24.89566" lon="105.116041">
<time>2016-10-06T21:58:21Z</time></trkpt>
<trkpt lat="24.89574" lon="105.115971">
<time>2016-10-06T21:58:22Z</time></trkpt>
<trkpt lat="24.89597" lon="105.115801">
<time>2016-10-06T21:58:23Z</time></trkpt>
<trkpt lat="24.896689" lon="105.115291">
<time>2016-10-06T21:58:24Z</time></trkpt>
<trkpt lat="24.896789" lon="105.115221">
<time>2016-10-06T21:58:25Z</time></trkpt>
<trkpt lat="24.896859" lon="105.115131">
<time>2016-10-06T21:58:26Z</time></trkpt>
<trkpt lat="24.896909" lon="105.115051">
<time>2016-10-06T21:58:27Z</time></trkpt>
<trkpt lat="24.896949" lon="105.114961">
<time>2016-10-06T21:58:28Z</time></trkpt>
<trkpt lat="24.896969" lon="105.114851">
<time>2016-10-06T21:58:29Z</time></trkpt>
<trkpt lat="24.896979" lon="105.114711">
<time>2016-10-06T21:58:30Z</time></trkpt>
<trkpt lat="24.896979" lon="105.114581">
<time>2016-10-06T21:58:31Z</time></trkpt>
<trkpt lat="24.896939" lon="105.114441">
<time>2016-10-06T21:58:32Z</time></trkpt>
<trkpt lat="24.896888" lon="105.114291">
<time>2016-10-06T21:58:33Z</time></trkpt>
<trkpt lat="24.896808" lon="105.114101">
<time>2016-10-06T21:58:34Z</time></trkpt>
<trkpt lat="24.896688" lon="105.113832">
<time>2016-10-06T21:58:35Z</time></trkpt>
<trkpt lat="24.896558" lon="105.113582">
<time>2016-10-06T21:58:36Z</time></trkpt>
<trkpt lat="24.896498" lon="105.113402">
<time>2016-10-06T21:58:37Z</time></trkpt>
<trkpt lat="24.896458" lon="105.113252">
<time>2016-10-06T21:58:38Z</time></trkpt>
<trkpt lat="24.896438" lon="105.113102">
<time>2016-10-06T21:58:39Z</time></trkpt>
<trkpt lat="24.896447" lon="105.112972">
<time>2016-10-06T21:58:40Z</time></trkpt>
<trkpt lat="24.896477" lon="105.112842">
<time>2016-10-06T21:58:41Z</time></trkpt>
<trkpt lat="24.896517" lon="105.112762">
<time>2016-10-06T21:58:42Z</time></trkpt>
<trkpt lat="24.896567" lon="105.112662">
<time>2016-10-06T21:58:43Z</time></trkpt>
<trkpt lat="24.896647" lon="105.112562">
<time>2016-10-06T21:58:44Z</time></trkpt>
<trkpt lat="24.896717" lon="105.112492">
<time>2016-10-06T21:58:45Z</time></trkpt>
<trkpt lat="24.897527" lon="105.111942">
<time>2016-10-06T21:58:46Z</time></trkpt>
<trkpt lat="24.897716" lon="105.111802">
<time>2016-10-06T21:58:47Z</time></trkpt>
<trkpt lat="24.897836" lon="105.111702">
<time>2016-10-06T21:58:48Z</time></trkpt>
<trkpt lat="24.897906" lon="105.111632">
<time>2016-10-06T21:58:49Z</time></trkpt>
<trkpt lat="24.897966" lon="105.111522">
<time>2016-10-06T21:58:50Z</time></trkpt>
<trkpt lat="24.898006" lon="105.111412">
<time>2016-10-06T21:58:51Z</time></trkpt>
<trkpt lat="24.898026" lon="105.111292">
<time>2016-10-06T21:58:52Z</time></trkpt>
<trkpt lat="24.898036" lon="105.111152">
<time>2016-10-06T21:58:53Z</time></trkpt>
<trkpt lat="24.898026" lon="105.111052">
<time>2016-10-06T21:58:54Z</time></trkpt>
<trkpt lat="24.897996" lon="105.110932">
<time>2016-10-06T21:58:55Z</time></trkpt>
<trkpt lat="24.897946" lon="105.110802">
<time>2016-10-06T21:58:56Z</time></trkpt>
<trkpt lat="24.897655" lon="105.110243">
<time>2016-10-06T21:58:57Z</time></trkpt>
<trkpt lat="24.897365" lon="105.109673">
<time>2016-10-06T21:58:58Z</time></trkpt>
<trkpt lat="24.897245" lon="105.109423">
<time>2016-10-06T21:58:59Z</time></trkpt>
<trkpt lat="24.897195" lon="105.109283">
<time>2016-10-06T21:59:00Z</time></trkpt>
<trkpt lat="24.897175" lon="105.109183">
<time>2016-10-06T21:59:01Z</time></trkpt>
<trkpt lat="24.897165" lon="105.109083">
<time>2016-10-06T21:59:02Z</time></trkpt>
<trkpt lat="24.897175" lon="105.108973">
<time>2016-10-06T21:59:03Z</time></trkpt>
<trkpt lat="24.897195" lon="105.108863">
<time>2016-10-06T21:59:04Z</time></trkpt>
<trkpt lat="24.897245" lon="105.108743">
<time>2016-10-06T21:59:05Z</time></trkpt>
<trkpt lat="24.897354" lon="105.108584">
<time>2016-10-06T21:59:06Z</time></trkpt>
<trkpt lat="24.897484" lon="105.108434">
<time>2016-10-06T21:59:07Z</time></trkpt>
<trkpt lat="24.897704" lon="105.108254">
<time>2016-10-06T21:59:08Z</time></trkpt>
<trkpt lat="24.898074" lon="105.107934">
<time>2016-10-06T21:59:09Z</time></trkpt>
<trkpt lat="24.899483" lon="105.106714">
<time>2016-10-06T21:59:10Z</time></trkpt>
<trkpt lat="24.899953" lon="105.106325">
<time>2016-10-06T21:59:11Z</time></trkpt>
<trkpt lat="24.900443" lon="105.105945">
<time>2016-10-06T21:59:12Z</time></trkpt>
<trkpt lat="24.900753" lon="105.105705">
<time>2016-10-06T21:59:13Z</time></trkpt>
<trkpt lat="24.901002" lon="105.105535">
<time>2016-10-06T21:59:14Z</time></trkpt>
<trkpt lat="24.901272" lon="105.105395">
<time>2016-10-06T21:59:15Z</time></trkpt>
<trkpt lat="24.901482" lon="105.105335">
<time>2016-10-06T21:59:16Z</time></trkpt>
<trkpt lat="24.901582" lon="105.105315">
<time>2016-10-06T21:59:17Z</time></trkpt>
<trkpt lat="24.901692" lon="105.105295">
<time>2016-10-06T21:59:18Z</time></trkpt>
<trkpt lat="24.901792" lon="105.105275">
<time>2016-10-06T21:59:19Z</time></trkpt>
<trkpt lat="24.902062" lon="105.105265">
<time>2016-10-06T21:59:20Z</time></trkpt>
<trkpt lat="24.902262" lon="105.105235">
<time>2016-10-06T21:59:21Z</time></trkpt>
<trkpt lat="24.902432" lon="105.105205">
<time>2016-10-06T21:59:22Z</time></trkpt>
<trkpt lat="24.902592" lon="105.105145">
<time>2016-10-06T21:59:23Z</time></trkpt>
<trkpt lat="24.902712" lon="105.105085">
<time>2016-10-06T21:59:24Z</time></trkpt>
<trkpt lat="24.902822" lon="105.105015">
<time>2016-10-06T21:59:25Z</time></trkpt>
<trkpt lat="24.902962" lon="105.104895">
<time>2016-10-06T21:59:26Z</time></trkpt>
<trkpt lat="24.904071" lon="105.103936">
<time>2016-10-06T21:59:27Z</time></trkpt>
<trkpt lat="24.904301" lon="105.103726">
<time>2016-10-06T21:59:28Z</time></trkpt>
<trkpt lat="24.904531" lon="105.103486">
<time>2016-10-06T21:59:29Z</time></trkpt>
<trkpt lat="24.904531" lon="105.103237">
<time>2016-10-06T21:59:30Z</time></trkpt>
<trkpt lat="24.904531" lon="105.103087">
<time>2016-10-06T21:59:31Z</time></trkpt>
<trkpt lat="24.904501" lon="105.102877">
<time>2016-10-06T21:59:32Z</time></trkpt>
<trkpt lat="24.904401" lon="105.102187">
<time>2016-10-06T21:59:33Z</time></trkpt>
<trkpt lat="24.904361" lon="105.101898">
<time>2016-10-06T21:59:34Z</time></trkpt>
<trkpt lat="24.904361" lon="105.101768">
<time>2016-10-06T21:59:35Z</time></trkpt>
<trkpt lat="24.904361" lon="105.101648">
<time>2016-10-06T21:59:36Z</time></trkpt>
<trkpt lat="24.904391" lon="105.101528">
<time>2016-10-06T21:59:37Z</time></trkpt>
<trkpt lat="24.904431" lon="105.101408">
<time>2016-10-06T21:59:38Z</time></trkpt>
<trkpt lat="24.904481" lon="105.101308">
<time>2016-10-06T21:59:39Z</time></trkpt>
<trkpt lat="24.90455" lon="105.101218">
<time>2016-10-06T21:59:40Z</time></trkpt>
<trkpt lat="24.90464" lon="105.101118">
<time>2016-10-06T21:59:41Z</time></trkpt>
<trkpt lat="24.90472" lon="105.101048">
<time>2016-10-06T21:59:42Z</time></trkpt>
<trkpt lat="24.90482" lon="105.100988">
<time>2016-10-06T21:59:43Z</time></trkpt>
<trkpt lat="24.90492" lon="105.100938">
<time>2016-10-06T21:59:44Z</time></trkpt>
<trkpt lat="24.90499" lon="105.100928">
<time>2016-10-06T21:59:45Z</time></trkpt>
<trkpt lat="24.90505" lon="105.100908">
<time>2016-10-06T21:59:46Z</time></trkpt>
<trkpt lat="24.90518" lon="105.100908">
<time>2016-10-06T21:59:47Z</time></trkpt>
<trkpt lat="24.90526" lon="105.100908">
<time>2016-10-06T21:59:48Z</time></trkpt>
<trkpt lat="24.90542" lon="105.100928">
<time>2016-10-06T21:59:49Z</time></trkpt>
<trkpt lat="24.90572" lon="105.100998">
<time>2016-10-06T21:59:50Z</time></trkpt>
<trkpt lat="24.90626" lon="105.101108">
<time>2016-10-06T21:59:51Z</time></trkpt>
<trkpt lat="24.90646" lon="105.101148">
<time>2016-10-06T21:59:52Z</time></trkpt>
<trkpt lat="24.90659" lon="105.101188">
<time>2016-10-06T21:59:53Z</time></trkpt>
<trkpt lat="24.90673" lon="105.101238">
<time>2016-10-06T21:59:54Z</time></trkpt>
<trkpt lat="24.90686" lon="105.101288">
<time>2016-10-06T21:59:55Z</time></trkpt>
<trkpt lat="24.907" lon="105.101348">
<time>2016-10-06T21:59:56Z</time></trkpt>
<trkpt lat="24.90795" lon="105.101887">
<time>2016-10-06T21:59:57Z</time></trkpt>
<trkpt lat="24.9081" lon="105.101967">
<time>2016-10-06T21:59:58Z</time></trkpt>
<trkpt lat="24.90821" lon="105.102007">
<time>2016-10-06T21:59:59Z</time></trkpt>
<trkpt lat="24.90835" lon="105.102047">
<time>2016-10-06T22:00:00Z</time></trkpt>
<trkpt lat="24.90851" lon="105.102077">
<time>2016-10-06T22:00:01Z</time></trkpt>
<trkpt lat="24.9087" lon="105.102097">
<time>2016-10-06T22:00:02Z</time></trkpt>
<trkpt lat="24.90891" lon="105.102117">
<time>2016-10-06T22:00:03Z</time></trkpt>
<trkpt lat="24.90924" lon="105.102157">
<time>2016-10-06T22:00:04Z</time></trkpt>
<trkpt lat="24.90937" lon="105.102187">
<time>2016-10-06T22:00:05Z</time></trkpt>
<trkpt lat="24.90949" lon="105.102217">
<time>2016-10-06T22:00:06Z</time></trkpt>
<trkpt lat="24.90959" lon="105.102247">
<time>2016-10-06T22:00:07Z</time></trkpt>
<trkpt lat="24.90971" lon="105.102307">
<time>2016-10-06T22:00:08Z</time></trkpt>
<trkpt lat="24.90987" lon="105.102397">
<time>2016-10-06T22:00:09Z</time></trkpt>
<trkpt lat="24.91002" lon="105.102477">
<time>2016-10-06T22:00:10Z</time></trkpt>
<trkpt lat="24.91013" lon="105.102517">
<time>2016-10-06T22:00:11Z</time></trkpt>
<trkpt lat="24.91024" lon="105.102557">
<time>2016-10-06T22:00:12Z</time></trkpt>
<trkpt lat="24.91034" lon="105.102577">
<time>2016-10-06T22:00:13Z</time></trkpt>
<trkpt lat="24.91045" lon="105.102567">
<time>2016-10-06T22:00:14Z</time></trkpt>
<trkpt lat="24.91057" lon="105.102547">
<time>2016-10-06T22:00:15Z</time></trkpt>
<trkpt lat="24.9107" lon="105.102507">
<time>2016-10-06T22:00:16Z</time></trkpt>
<trkpt lat="24.91094" lon="105.102407">
<time>2016-10-06T22:00:17Z</time></trkpt>
<trkpt lat="24.91119" lon="105.102287">
<time>2016-10-06T22:00:18Z</time></trkpt>
<trkpt lat="24.91133" lon="105.102227">
<time>2016-10-06T22:00:19Z</time></trkpt>
<trkpt lat="24.91142" lon="105.102207">
<time>2016-10-06T22:00:20Z</time></trkpt>
<trkpt lat="24.91151" lon="105.102197">
<time>2016-10-06T22:00:21Z</time></trkpt>
<trkpt lat="24.91165" lon="105.102187">
<time>2016-10-06T22:00:22Z</time></trkpt>
<trkpt lat="24.91174" lon="105.102157">
<time>2016-10-06T22:00:23Z</time></trkpt>
<trkpt lat="24.91185" lon="105.102097">
<time>2016-10-06T22:00:24Z</time></trkpt>
<trkpt lat="24.91202" lon="105.101997">
<time>2016-10-06T22:00:25Z</time></trkpt>
<trkpt lat="24.91219" lon="105.101887">
<time>2016-10-06T22:00:26Z</time></trkpt>
<trkpt lat="24.91239" lon="105.101797">
<time>2016-10-06T22:00:27Z</time></trkpt>
<trkpt lat="24.91254" lon="105.101747">
<time>2016-10-06T22:00:28Z</time></trkpt>
<trkpt lat="24.91267" lon="105.101707">
<time>2016-10-06T22:00:29Z</time></trkpt>
<trkpt lat="24.91277" lon="105.101707">
<time>2016-10-06T22:00:30Z</time></trkpt>
<trkpt lat="24.91286" lon="105.101707">
<time>2016-10-06T22:00:31Z</time></trkpt>
<trkpt lat="24.91296" lon="105.101727">
<time>2016-10-06T22:00:32Z</time></trkpt>
<trkpt lat="24.91316" lon="105.101747">
<time>2016-10-06T22:00:33Z</time></trkpt>
<trkpt lat="24.9133" lon="105.101757">
<time>2016-10-06T22:00:34Z</time></trkpt>
<trkpt lat="24.91352" lon="105.101737">
<time>2016-10-06T22:00:35Z</time></trkpt>
<trkpt lat="24.913819" lon="105.101687">
<time>2016-10-06T22:00:36Z</time></trkpt>
<trkpt lat="24.914319" lon="105.101607">
<time>2016-10-06T22:00:37Z</time></trkpt>
<trkpt lat="24.914549" lon="105.101557">
<time>2016-10-06T22:00:38Z</time></trkpt>
<trkpt lat="24.914679" lon="105.101537">
<time>2016-10-06T22:00:39Z</time></trkpt>
<trkpt lat="24.914779" lon="105.101557">
<time>2016-10-06T22:00:40Z</time></trkpt>
<trkpt lat="24.914849" lon="105.101577">
<time>2016-10-06T22:00:41Z</time></trkpt>
<trkpt lat="24.914919" lon="105.101607">
<time>2016-10-06T22:00:42Z</time></trkpt>
<trkpt lat="24.914989" lon="105.101657">
<time>2016-10-06T22:00:43Z</time></trkpt>
<trkpt lat="24.915269" lon="105.101917">
<time>2016-10-06T22:00:44Z</time></trkpt>
<trkpt lat="24.915389" lon="105.102047">
<time>2016-10-06T22:00:45Z</time></trkpt>
<trkpt lat="24.915449" lon="105.102137">
<time>2016-10-06T22:00:46Z</time></trkpt>
<trkpt lat="24.915479" lon="105.102187">
<time>2016-10-06T22:00:47Z</time></trkpt>
<trkpt lat="24.915519" lon="105.102267">
<time>2016-10-06T22:00:48Z</time></trkpt>
<trkpt lat="24.915569" lon="105.102387">
<time>2016-10-06T22:00:49Z</time></trkpt>
<trkpt lat="24.915589" lon="105.102467">
<time>2016-10-06T22:00:50Z</time></trkpt>
<trkpt lat="24.915619" lon="105.102517">
<time>2016-10-06T22:00:51Z</time></trkpt>
<trkpt lat="24.915649" lon="105.102567">
<time>2016-10-06T22:00:52Z</time></trkpt>
<trkpt lat="24.915679" lon="105.102596">
<time>2016-10-06T22:00:53Z</time></trkpt>
<trkpt lat="24.915719" lon="105.102616">
<time>2016-10-06T22:00:54Z</time></trkpt>
<trkpt lat="24.915759" lon="105.102636">
<time>2016-10-06T22:00:55Z</time></trkpt>
<trkpt lat="24.915809" lon="105.102626">
<time>2016-10-06T22:00:56Z</time></trkpt>
<trkpt lat="24.915869" lon="105.102606">
<time>2016-10-06T22:00:57Z</time></trkpt>
<trkpt lat="24.915919" lon="105.102576">
<time>2016-10-06T22:00:58Z</time></trkpt>
<trkpt lat="24.915949" lon="105.102517">
<time>2016-10-06T22:00:59Z</time></trkpt>
<trkpt lat="24.915989" lon="105.102437">
<time>2016-10-06T22:01:00Z</time></trkpt>
<trkpt lat="24.916019" lon="105.102347">
<time>2016-10-06T22:01:01Z</time></trkpt>
<trkpt lat="24.916059" lon="105.102207">
<time>2016-10-06T22:01:02Z</time></trkpt>
<trkpt lat="24.916109" lon="105.102097">
<time>2016-10-06T22:01:03Z</time></trkpt>
<trkpt lat="24.916169" lon="105.101987">
<time>2016-10-06T22:01:04Z</time></trkpt>
<trkpt lat="24.916229" lon="105.101917">
<time>2016-10-06T22:01:05Z</time></trkpt>
<trkpt lat="24.916319" lon="105.101847">
<time>2016-10-06T22:01:06Z</time></trkpt>
<trkpt lat="24.916409" lon="105.101807">
<time>2016-10-06T22:01:07Z</time></trkpt>
<trkpt lat="24.916479" lon="105.101797">
<time>2016-10-06T22:01:08Z</time></trkpt>
<trkpt lat="24.916549" lon="105.101787">
<time>2016-10-06T22:01:09Z</time></trkpt>
<trkpt lat="24.916679" lon="105.101807">
<time>2016-10-06T22:01:10Z</time></trkpt>
<trkpt lat="24.916749" lon="105.101827">
<time>2016-10-06T22:01:11Z</time></trkpt>
<trkpt lat="24.916819" lon="105.101837">
<time>2016-10-06T22:01:12Z</time></trkpt>
<trkpt lat="24.916889" lon="105.101847">
<time>2016-10-06T22:01:13Z</time></trkpt>
<trkpt lat="24.916939" lon="105.101837">
<time>2016-10-06T22:01:14Z</time></trkpt>
<trkpt lat="24.916989" lon="105.101817">
<time>2016-10-06T22:01:15Z</time></trkpt>
<trkpt lat="24.917039" lon="105.101807">
<time>2016-10-06T22:01:16Z</time></trkpt>
<trkpt lat="24.917219" lon="105.101717">
<time>2016-10-06T22:01:17Z</time></trkpt>
<trkpt lat="24.917269" lon="105.101697">
<time>2016-10-06T22:01:18Z</time></trkpt>
<trkpt lat="24.917319" lon="105.101677">
<time>2016-10-06T22:01:19Z</time></trkpt>
<trkpt lat="24.917349" lon="105.101677">
<time>2016-10-06T22:01:20Z</time></trkpt>
<trkpt lat="24.917379" lon="105.101677">
<time>2016-10-06T22:01:21Z</time></trkpt>
<trkpt lat="24.917409" lon="105.101677">
<time>2016-10-06T22:01:22Z</time></trkpt>
<trkpt lat="24.917439" lon="105.101677">
<time>2016-10-06T22:01:23Z</time></trkpt>
<trkpt lat="24.917459" lon="105.101687">
<time>2016-10-06T22:01:24Z</time></trkpt>
<trkpt lat="24.917489" lon="105.101697">
<time>2016-10-06T22:01:25Z</time></trkpt>
<trkpt lat="24.917519" lon="105.101717">
<time>2016-10-06T22:01:26Z</time></trkpt>
<trkpt lat="24.917539" lon="105.101737">
<time>2016-10-06T22:01:27Z</time></trkpt>
<trkpt lat="24.917669" lon="105.101847">
<time>2016-10-06T22:01:28Z</time></trkpt>
<trkpt lat="24.917719" lon="105.101887">
<time>2016-10-06T22:01:29Z</time></trkpt>
<trkpt lat="24.917759" lon="105.101917">
<time>2016-10-06T22:01:30Z</time></trkpt>
<trkpt lat="24.917779" lon="105.101917">
<time>2016-10-06T22:01:31Z</time></trkpt>
<trkpt lat="24.917799" lon="105.101927">
<time>2016-10-06T22:01:32Z</time></trkpt>
<trkpt lat="24.917839" lon="105.101927">
<time>2016-10-06T22:01:33Z</time></trkpt>
<trkpt lat="24.917869" lon="105.101927">
<time>2016-10-06T22:01:34Z</time></trkpt>
<trkpt lat="24.917909" lon="105.101927">
<time>2016-10-06T22:01:35Z</time></trkpt>
<trkpt lat="24.917999" lon="105.101897">
<time>2016-10-06T22:01:36Z</time></trkpt>
<trkpt lat="24.918139" lon="105.101857">
<time>2016-10-06T22:01:37Z</time></trkpt>
<trkpt lat="24.918179" lon="105.101847">
<time>2016-10-06T22:01:38Z</time></trkpt>
<trkpt lat="24.918209" lon="105.101847">
<time>2016-10-06T22:01:39Z</time></trkpt>
<trkpt lat="24.918229" lon="105.101847">
<time>2016-10-06T22:01:40Z</time></trkpt>
<trkpt lat="24.918259" lon="105.101847">
<time>2016-10-06T22:01:41Z</time></trkpt>
<trkpt lat="24.918289" lon="105.101847">
<time>2016-10-06T22:01:42Z</time></trkpt>
<trkpt lat="24.918309" lon="105.101857">
<time>2016-10-06T22:01:43Z</time></trkpt>
<trkpt lat="24.918339" lon="105.101867">
<time>2016-10-06T22:01:44Z</time></trkpt>
<trkpt lat="24.918359" lon="105.101877">
<time>2016-10-06T22:01:45Z</time></trkpt>
<trkpt lat="24.918419" lon="105.101927">
<time>2016-10-06T22:01:46Z</time></trkpt>
<trkpt lat="24.918489" lon="105.101987">
<time>2016-10-06T22:01:47Z</time></trkpt>
<trkpt lat="24.918559" lon="105.102037">
<time>2016-10-06T22:01:48Z</time></trkpt>
<trkpt lat="24.918609" lon="105.102057">
<time>2016-10-06T22:01:49Z</time></trkpt>
<trkpt lat="24.918659" lon="105.102057">
<time>2016-10-06T22:01:50Z</time></trkpt>
<trkpt lat="24.918739" lon="105.102047">
<time>2016-10-06T22:01:51Z</time></trkpt>
<trkpt lat="24.919019" lon="105.102007">
<time>2016-10-06T22:01:52Z</time></trkpt>
<trkpt lat="24.919129" lon="105.101997">
<time>2016-10-06T22:01:53Z</time></trkpt>
<trkpt lat="24.919379" lon="105.101977">
<time>2016-10-06T22:01:54Z</time></trkpt>
<trkpt lat="24.919599" lon="105.101937">
<time>2016-10-06T22:01:55Z</time></trkpt>
<trkpt lat="24.919809" lon="105.101927">
<time>2016-10-06T22:01:56Z</time></trkpt>
<trkpt lat="24.919949" lon="105.101937">
<time>2016-10-06T22:01:57Z</time></trkpt>
<trkpt lat="24.920089" lon="105.101957">
<time>2016-10-06T22:01:58Z</time></trkpt>
<trkpt lat="24.920429" lon="105.102027">
<time>2016-10-06T22:01:59Z</time></trkpt>
<trkpt lat="24.920599" lon="105.102047">
<time>2016-10-06T22:02:00Z</time></trkpt>
<trkpt lat="24.920699" lon="105.102057">
<time>2016-10-06T22:02:01Z</time></trkpt>
<trkpt lat="24.920729" lon="105.102057">
<time>2016-10-06T22:02:02Z</time></trkpt>
<trkpt lat="24.920769" lon="105.102057">
<time>2016-10-06T22:02:03Z</time></trkpt>
<trkpt lat="24.920809" lon="105.102047">
<time>2016-10-06T22:02:04Z</time></trkpt>
<trkpt lat="24.920859" lon="105.102037">
<time>2016-10-06T22:02:05Z</time></trkpt>
<trkpt lat="24.920919" lon="105.102007">
<time>2016-10-06T22:02:06Z</time></trkpt>
<trkpt lat="24.921099" lon="105.101927">
<time>2016-10-06T22:02:07Z</time></trkpt>
<trkpt lat="24.921099" lon="105.101927">
<time>2016-10-06T22:02:08Z</time></trkpt>
<trkpt lat="24.921159" lon="105.101957">
<time>2016-10-06T22:02:09Z</time></trkpt>
<trkpt lat="24.921259" lon="105.101987">
<time>2016-10-06T22:02:10Z</time></trkpt>
<trkpt lat="24.921429" lon="105.102017">
<time>2016-10-06T22:02:11Z</time></trkpt>
<trkpt lat="24.921809" lon="105.102027">
<time>2016-10-06T22:02:12Z</time></trkpt>
<trkpt lat="24.922858" lon="105.101977">
<time>2016-10-06T22:02:13Z</time></trkpt>
<trkpt lat="24.923098" lon="105.101987">
<time>2016-10-06T22:02:14Z</time></trkpt>
<trkpt lat="24.923218" lon="105.101957">
<time>2016-10-06T22:02:15Z</time></trkpt>
<trkpt lat="24.923308" lon="105.101937">
<time>2016-10-06T22:02:16Z</time></trkpt>
<trkpt lat="24.923638" lon="105.101857">
<time>2016-10-06T22:02:17Z</time></trkpt>
<trkpt lat="24.924068" lon="105.101727">
<time>2016-10-06T22:02:18Z</time></trkpt>
<trkpt lat="24.924078" lon="105.101727">
<time>2016-10-06T22:02:19Z</time></trkpt>
<trkpt lat="24.924208" lon="105.101737">
<time>2016-10-06T22:02:20Z</time></trkpt>
<trkpt lat="24.924518" lon="105.101827">
<time>2016-10-06T22:02:21Z</time></trkpt>
<trkpt lat="24.924778" lon="105.101897">
<time>2016-10-06T22:02:22Z</time></trkpt>
<trkpt lat="24.924878" lon="105.101997">
<time>2016-10-06T22:02:23Z</time></trkpt>
<trkpt lat="24.925048" lon="105.102476">
<time>2016-10-06T22:02:24Z</time></trkpt>
<trkpt lat="24.925028" lon="105.102686">
<time>2016-10-06T22:02:25Z</time></trkpt>
<trkpt lat="24.925048" lon="105.103066">
<time>2016-10-06T22:02:26Z</time></trkpt>
<trkpt lat="24.925099" lon="105.103286">
<time>2016-10-06T22:02:27Z</time></trkpt>
<trkpt lat="24.925139" lon="105.103435">
<time>2016-10-06T22:02:28Z</time></trkpt>
<trkpt lat="24.925179" lon="105.103595">
<time>2016-10-06T22:02:29Z</time></trkpt>
<trkpt lat="24.925279" lon="105.103845">
<time>2016-10-06T22:02:30Z</time></trkpt>
<trkpt lat="24.925299" lon="105.103895">
<time>2016-10-06T22:02:31Z</time></trkpt>
<trkpt lat="24.925309" lon="105.103945">
<time>2016-10-06T22:02:32Z</time></trkpt>
<trkpt lat="24.925309" lon="105.104015">
<time>2016-10-06T22:02:33Z</time></trkpt>
<trkpt lat="24.925299" lon="105.104065">
<time>2016-10-06T22:02:34Z</time></trkpt>
<trkpt lat="24.925269" lon="105.104135">
<time>2016-10-06T22:02:35Z</time></trkpt>
<trkpt lat="24.925229" lon="105.104185">
<time>2016-10-06T22:02:36Z</time></trkpt>
<trkpt lat="24.925139" lon="105.104255">
<time>2016-10-06T22:02:37Z</time></trkpt>
<trkpt lat="24.925009" lon="105.104355">
<time>2016-10-06T22:02:38Z</time></trkpt>
<trkpt lat="24.924879" lon="105.104495">
<time>2016-10-06T22:02:39Z</time></trkpt>
<trkpt lat="24.924769" lon="105.104635">
<time>2016-10-06T22:02:40Z</time></trkpt>
<trkpt lat="24.924679" lon="105.104765">
<time>2016-10-06T22:02:41Z</time></trkpt>
<trkpt lat="24.924599" lon="105.104844">
<time>2016-10-06T22:02:42Z</time></trkpt>
<trkpt lat="24.924579" lon="105.104884">
<time>2016-10-06T22:02:43Z</time></trkpt>
<trkpt lat="24.924579" lon="105.104924">
<time>2016-10-06T22:02:44Z</time></trkpt>
<trkpt lat="24.924579" lon="105.104944">
<time>2016-10-06T22:02:45Z</time></trkpt>
<trkpt lat="24.924599" lon="105.104954">
<time>2016-10-06T22:02:46Z</time></trkpt>
<trkpt lat="24.924629" lon="105.104954">
<time>2016-10-06T22:02:47Z</time></trkpt>
<trkpt lat="24.924729" lon="105.104904">
<time>2016-10-06T22:02:48Z</time></trkpt>
<trkpt lat="24.924809" lon="105.104884">
<time>2016-10-06T22:02:49Z</time></trkpt>
<trkpt lat="24.924999" lon="105.104854">
<time>2016-10-06T22:02:50Z</time></trkpt>
<trkpt lat="24.925149" lon="105.104834">
<time>2016-10-06T22:02:51Z</time></trkpt>
<trkpt lat="24.925209" lon="105.104814">
<time>2016-10-06T22:02:52Z</time></trkpt>
<trkpt lat="24.925289" lon="105.104774">
<time>2016-10-06T22:02:53Z</time></trkpt>
<trkpt lat="24.925349" lon="105.104735">
<time>2016-10-06T22:02:54Z</time></trkpt>
<trkpt lat="24.925389" lon="105.104715">
<time>2016-10-06T22:02:55Z</time></trkpt>
<trkpt lat="24.925399" lon="105.104725">
<time>2016-10-06T22:02:56Z</time></trkpt>
<trkpt lat="24.925409" lon="105.104745">
<time>2016-10-06T22:02:57Z</time></trkpt>
<trkpt lat="24.925399" lon="105.104784">
<time>2016-10-06T22:02:58Z</time></trkpt>
<trkpt lat="24.925359" lon="105.104844">
<time>2016-10-06T22:02:59Z</time></trkpt>
<trkpt lat="24.925229" lon="105.105034">
<time>2016-10-06T22:03:00Z</time></trkpt>
<trkpt lat="24.925179" lon="105.105144">
<time>2016-10-06T22:03:01Z</time></trkpt>
<trkpt lat="24.925149" lon="105.105204">
<time>2016-10-06T22:03:02Z</time></trkpt>
<trkpt lat="24.925139" lon="105.105274">
<time>2016-10-06T22:03:03Z</time></trkpt>
<trkpt lat="24.925139" lon="105.105324">
<time>2016-10-06T22:03:04Z</time></trkpt>
<trkpt lat="24.925149" lon="105.105394">
<time>2016-10-06T22:03:05Z</time></trkpt>
<trkpt lat="24.925169" lon="105.105424">
<time>2016-10-06T22:03:06Z</time></trkpt>
<trkpt lat="24.925209" lon="105.105464">
<time>2016-10-06T22:03:07Z</time></trkpt>
<trkpt lat="24.925259" lon="105.105464">
<time>2016-10-06T22:03:08Z</time></trkpt>
<trkpt lat="24.925299" lon="105.105454">
<time>2016-10-06T22:03:09Z</time></trkpt>
<trkpt lat="24.925319" lon="105.105434">
<time>2016-10-06T22:03:10Z</time></trkpt>
<trkpt lat="24.925329" lon="105.105374">
<time>2016-10-06T22:03:11Z</time></trkpt>
<trkpt lat="24.925349" lon="105.105284">
<time>2016-10-06T22:03:12Z</time></trkpt>
<trkpt lat="24.925379" lon="105.105214">
<time>2016-10-06T22:03:13Z</time></trkpt>
<trkpt lat="24.925459" lon="105.105164">
<time>2016-10-06T22:03:14Z</time></trkpt>
<trkpt lat="24.925849" lon="105.104994">
<time>2016-10-06T22:03:15Z</time></trkpt>
<trkpt lat="24.925949" lon="105.104914">
<time>2016-10-06T22:03:16Z</time></trkpt>
<trkpt lat="24.926109" lon="105.104794">
<time>2016-10-06T22:03:17Z</time></trkpt>
<trkpt lat="24.926189" lon="105.104744">
<time>2016-10-06T22:03:18Z</time></trkpt>
<trkpt lat="24.926409" lon="105.104704">
<time>2016-10-06T22:03:19Z</time></trkpt>
<trkpt lat="24.926549" lon="105.104675">
<time>2016-10-06T22:03:20Z</time></trkpt>
<trkpt lat="24.926589" lon="105.104684">
<time>2016-10-06T22:03:21Z</time></trkpt>
<trkpt lat="24.926819" lon="105.104724">
<time>2016-10-06T22:03:22Z</time></trkpt>
<trkpt lat="24.926819" lon="105.104724">
<time>2016-10-06T22:03:23Z</time></trkpt>
<trkpt lat="24.926829" lon="105.104804">
<time>2016-10-06T22:03:24Z</time></trkpt>
<trkpt lat="24.926849" lon="105.104904">
<time>2016-10-06T22:03:25Z</time></trkpt>
<trkpt lat="24.926859" lon="105.104974">
<time>2016-10-06T22:03:26Z</time></trkpt>
<trkpt lat="24.926869" lon="105.105044">
<time>2016-10-06T22:03:27Z</time></trkpt>
<trkpt lat="24.926929" lon="105.105274">
<time>2016-10-06T22:03:28Z</time></trkpt>
<trkpt lat="24.926979" lon="105.105444">
<time>2016-10-06T22:03:29Z</time></trkpt>
<trkpt lat="24.927059" lon="105.105734">
<time>2016-10-06T22:03:30Z</time></trkpt>
<trkpt lat="24.927099" lon="105.105854">
<time>2016-10-06T22:03:31Z</time></trkpt>
<trkpt lat="24.927139" lon="105.106024">
<time>2016-10-06T22:03:32Z</time></trkpt>
<trkpt lat="24.927149" lon="105.106064">
<time>2016-10-06T22:03:33Z</time></trkpt>
<trkpt lat="24.927159" lon="105.106104">
<time>2016-10-06T22:03:34Z</time></trkpt>
<trkpt lat="24.927199" lon="105.106174">
<time>2016-10-06T22:03:35Z</time></trkpt>
<trkpt lat="24.927229" lon="105.106243">
<time>2016-10-06T22:03:36Z</time></trkpt>
<trkpt lat="24.927269" lon="105.106313">
<time>2016-10-06T22:03:37Z</time></trkpt>
<trkpt lat="24.92732" lon="105.106383">
<time>2016-10-06T22:03:38Z</time></trkpt>
<trkpt lat="24.92739" lon="105.106473">
<time>2016-10-06T22:03:39Z</time></trkpt>
<trkpt lat="24.92742" lon="105.106503">
<time>2016-10-06T22:03:40Z</time></trkpt>
<trkpt lat="24.92745" lon="105.106533">
<time>2016-10-06T22:03:41Z</time></trkpt>
<trkpt lat="24.92748" lon="105.106563">
<time>2016-10-06T22:03:42Z</time></trkpt>
<trkpt lat="24.92751" lon="105.106583">
<time>2016-10-06T22:03:43Z</time></trkpt>
<trkpt lat="24.92754" lon="105.106603">
<time>2016-10-06T22:03:44Z</time></trkpt>
<trkpt lat="24.92756" lon="105.106623">
<time>2016-10-06T22:03:45Z</time></trkpt>
<trkpt lat="24.92759" lon="105.106633">
<time>2016-10-06T22:03:46Z</time></trkpt>
<trkpt lat="24.92763" lon="105.106643">
<time>2016-10-06T22:03:47Z</time></trkpt>
<trkpt lat="24.92766" lon="105.106653">
<time>2016-10-06T22:03:48Z</time></trkpt>
<trkpt lat="24.92775" lon="105.106653">
<time>2016-10-06T22:03:49Z</time></trkpt>
<trkpt lat="24.92783" lon="105.106663">
<time>2016-10-06T22:03:50Z</time></trkpt>
<trkpt lat="24.92788" lon="105.106673">
<time>2016-10-06T22:03:51Z</time></trkpt>
<trkpt lat="24.92792" lon="105.106673">
<time>2016-10-06T22:03:52Z</time></trkpt>
<trkpt lat="24.92797" lon="105.106673">
<time>2016-10-06T22:03:53Z</time></trkpt>
<trkpt lat="24.92803" lon="105.106663">
<time>2016-10-06T22:03:54Z</time></trkpt>
<trkpt lat="24.92806" lon="105.106663">
<time>2016-10-06T22:03:55Z</time></trkpt>
<trkpt lat="24.92809" lon="105.106653">
<time>2016-10-06T22:03:56Z</time></trkpt>
<trkpt lat="24.92811" lon="105.106633">
<time>2016-10-06T22:03:57Z</time></trkpt>
<trkpt lat="24.92814" lon="105.106613">
<time>2016-10-06T22:03:58Z</time></trkpt>
<trkpt lat="24.928169" lon="105.106583">
<time>2016-10-06T22:03:59Z</time></trkpt>
<trkpt lat="24.928199" lon="105.106553">
<time>2016-10-06T22:04:00Z</time></trkpt>
<trkpt lat="24.928219" lon="105.106523">
<time>2016-10-06T22:04:01Z</time></trkpt>
<trkpt lat="24.928229" lon="105.106503">
<time>2016-10-06T22:04:02Z</time></trkpt>
<trkpt lat="24.928239" lon="105.106473">
<time>2016-10-06T22:04:03Z</time></trkpt>
<trkpt lat="24.928249" lon="105.106373">
<time>2016-10-06T22:04:04Z</time></trkpt>
<trkpt lat="24.928259" lon="105.106343">
<time>2016-10-06T22:04:05Z</time></trkpt>
<trkpt lat="24.928289" lon="105.106263">
<time>2016-10-06T22:04:06Z</time></trkpt>
<trkpt lat="24.928299" lon="105.106243">
<time>2016-10-06T22:04:07Z</time></trkpt>
<trkpt lat="24.928309" lon="105.106223">
<time>2016-10-06T22:04:08Z</time></trkpt>
<trkpt lat="24.928329" lon="105.106203">
<time>2016-10-06T22:04:09Z</time></trkpt>
<trkpt lat="24.928359" lon="105.106183">
<time>2016-10-06T22:04:10Z</time></trkpt>
<trkpt lat="24.928389" lon="105.106163">
<time>2016-10-06T22:04:11Z</time></trkpt>
<trkpt lat="24.928459" lon="105.106133">
<time>2016-10-06T22:04:12Z</time></trkpt>
<trkpt lat="24.928529" lon="105.106074">
<time>2016-10-06T22:04:13Z</time></trkpt>
<trkpt lat="24.928569" lon="105.106054">
<time>2016-10-06T22:04:14Z</time></trkpt>
<trkpt lat="24.928609" lon="105.106044">
<time>2016-10-06T22:04:15Z</time></trkpt>
<trkpt lat="24.928639" lon="105.106034">
<time>2016-10-06T22:04:16Z</time></trkpt>
<trkpt lat="24.928679" lon="105.106024">
<time>2016-10-06T22:04:17Z</time></trkpt>
<trkpt lat="24.928709" lon="105.106024">
<time>2016-10-06T22:04:18Z</time></trkpt>
<trkpt lat="24.928749" lon="105.106034">
<time>2016-10-06T22:04:19Z</time></trkpt>
<trkpt lat="24.928789" lon="105.106044">
<time>2016-10-06T22:04:20Z</time></trkpt>
<trkpt lat="24.928819" lon="105.106064">
<time>2016-10-06T22:04:21Z</time></trkpt>
<trkpt lat="24.928839" lon="105.106074">
<time>2016-10-06T22:04:22Z</time></trkpt>
<trkpt lat="24.928949" lon="105.106143">
<time>2016-10-06T22:04:23Z</time></trkpt>
<trkpt lat="24.929039" lon="105.106213">
<time>2016-10-06T22:04:24Z</time></trkpt>
<trkpt lat="24.929059" lon="105.106223">
<time>2016-10-06T22:04:25Z</time></trkpt>
<trkpt lat="24.929089" lon="105.106233">
<time>2016-10-06T22:04:26Z</time></trkpt>
<trkpt lat="24.929139" lon="105.106253">
<time>2016-10-06T22:04:27Z</time></trkpt>
<trkpt lat="24.929159" lon="105.106263">
<time>2016-10-06T22:04:28Z</time></trkpt>
<trkpt lat="24.929179" lon="105.106263">
<time>2016-10-06T22:04:29Z</time></trkpt>
<trkpt lat="24.929209" lon="105.106273">
<time>2016-10-06T22:04:30Z</time></trkpt>
<trkpt lat="24.929239" lon="105.106273">
<time>2016-10-06T22:04:31Z</time></trkpt>
<trkpt lat="24.929259" lon="105.106263">
<time>2016-10-06T22:04:32Z</time></trkpt>
<trkpt lat="24.929289" lon="105.106263">
<time>2016-10-06T22:04:33Z</time></trkpt>
<trkpt lat="24.929309" lon="105.106253">
<time>2016-10-06T22:04:34Z</time></trkpt>
<trkpt lat="24.929339" lon="105.106233">
<time>2016-10-06T22:04:35Z</time></trkpt>
<trkpt lat="24.929359" lon="105.106223">
<time>2016-10-06T22:04:36Z</time></trkpt>
<trkpt lat="24.929399" lon="105.106193">
<time>2016-10-06T22:04:37Z</time></trkpt>
<trkpt lat="24.929419" lon="105.106183">
<time>2016-10-06T22:04:38Z</time></trkpt>
<trkpt lat="24.929449" lon="105.106163">
<time>2016-10-06T22:04:39Z</time></trkpt>
<trkpt lat="24.929469" lon="105.106163">
<time>2016-10-06T22:04:40Z</time></trkpt>
<trkpt lat="24.929479" lon="105.106163">
<time>2016-10-06T22:04:41Z</time></trkpt>
<trkpt lat="24.929489" lon="105.106163">
<time>2016-10-06T22:04:42Z</time></trkpt>
<trkpt lat="24.929499" lon="105.106173">
<time>2016-10-06T22:04:43Z</time></trkpt>
<trkpt lat="24.929509" lon="105.106173">
<time>2016-10-06T22:04:44Z</time></trkpt>
<trkpt lat="24.929519" lon="105.106183">
<time>2016-10-06T22:04:45Z</time></trkpt>
<trkpt lat="24.929529" lon="105.106203">
<time>2016-10-06T22:04:46Z</time></trkpt>
<trkpt lat="24.929549" lon="105.106253">
<time>2016-10-06T22:04:47Z</time></trkpt>
<trkpt lat="24.929569" lon="105.106293">
<time>2016-10-06T22:04:48Z</time></trkpt>
<trkpt lat="24.929599" lon="105.106383">
<time>2016-10-06T22:04:49Z</time></trkpt>
<trkpt lat="24.929609" lon="105.106423">
<time>2016-10-06T22:04:50Z</time></trkpt>
<trkpt lat="24.929629" lon="105.106463">
<time>2016-10-06T22:04:51Z</time></trkpt>
<trkpt lat="24.929659" lon="105.106513">
<time>2016-10-06T22:04:52Z</time></trkpt>
<trkpt lat="24.929739" lon="105.106693">
<time>2016-10-06T22:04:53Z</time></trkpt>
<trkpt lat="24.929829" lon="105.106863">
<time>2016-10-06T22:04:54Z</time></trkpt>
<trkpt lat="24.929889" lon="105.106983">
<time>2016-10-06T22:04:55Z</time></trkpt>
<trkpt lat="24.929919" lon="105.107043">
<time>2016-10-06T22:04:56Z</time></trkpt>
<trkpt lat="24.92997" lon="105.107123">
<time>2016-10-06T22:04:57Z</time></trkpt>
<trkpt lat="24.92999" lon="105.107163">
<time>2016-10-06T22:04:58Z</time></trkpt>
<trkpt lat="24.93001" lon="105.107193">
<time>2016-10-06T22:04:59Z</time></trkpt>
<trkpt lat="24.93004" lon="105.107273">
<time>2016-10-06T22:05:00Z</time></trkpt>
<trkpt lat="24.93005" lon="105.107303">
<time>2016-10-06T22:05:01Z</time></trkpt>
<trkpt lat="24.93005" lon="105.107343">
<time>2016-10-06T22:05:02Z</time></trkpt>
<trkpt lat="24.93006" lon="105.107363">
<time>2016-10-06T22:05:03Z</time></trkpt>
<trkpt lat="24.93006" lon="105.107383">
<time>2016-10-06T22:05:04Z</time></trkpt>
<trkpt lat="24.93005" lon="105.107473">
<time>2016-10-06T22:05:05Z</time></trkpt>
<trkpt lat="24.93006" lon="105.107513">
<time>2016-10-06T22:05:06Z</time></trkpt>
<trkpt lat="24.93007" lon="105.107543">
<time>2016-10-06T22:05:07Z</time></trkpt>
<trkpt lat="24.93008" lon="105.107583">
<time>2016-10-06T22:05:08Z</time></trkpt>
<trkpt lat="24.93009" lon="105.107623">
<time>2016-10-06T22:05:09Z</time></trkpt>
<trkpt lat="24.93011" lon="105.107653">
<time>2016-10-06T22:05:10Z</time></trkpt>
<trkpt lat="24.93013" lon="105.107673">
<time>2016-10-06T22:05:11Z</time></trkpt>
<trkpt lat="24.93015" lon="105.107703">
<time>2016-10-06T22:05:12Z</time></trkpt>
<trkpt lat="24.93017" lon="105.107732">
<time>2016-10-06T22:05:13Z</time></trkpt>
<trkpt lat="24.93019" lon="105.107752">
<time>2016-10-06T22:05:14Z</time></trkpt>
<trkpt lat="24.93021" lon="105.107772">
<time>2016-10-06T22:05:15Z</time></trkpt>
<trkpt lat="24.93024" lon="105.107792">
<time>2016-10-06T22:05:16Z</time></trkpt>
<trkpt lat="24.93031" lon="105.107832">
<time>2016-10-06T22:05:17Z</time></trkpt>
<trkpt lat="24.93037" lon="105.107872">
<time>2016-10-06T22:05:18Z</time></trkpt>
<trkpt lat="24.93042" lon="105.107892">
<time>2016-10-06T22:05:19Z</time></trkpt>
<trkpt lat="24.93048" lon="105.107922">
<time>2016-10-06T22:05:20Z</time></trkpt>
<trkpt lat="24.93054" lon="105.107942">
<time>2016-10-06T22:05:21Z</time></trkpt>
<trkpt lat="24.93063" lon="105.107932">
<time>2016-10-06T22:05:22Z</time></trkpt>
<trkpt lat="24.93075" lon="105.107892">
<time>2016-10-06T22:05:23Z</time></trkpt>
<trkpt lat="24.93075" lon="105.107892">
<time>2016-10-06T22:05:24Z</time></trkpt>
<trkpt lat="24.93085" lon="105.107952">
<time>2016-10-06T22:05:25Z</time></trkpt>
<trkpt lat="24.93141" lon="105.108232">
<time>2016-10-06T22:05:26Z</time></trkpt>
<trkpt lat="24.93159" lon="105.108322">
<time>2016-10-06T22:05:27Z</time></trkpt>
<trkpt lat="24.93172" lon="105.108422">
<time>2016-10-06T22:05:28Z</time></trkpt>
<trkpt lat="24.93181" lon="105.108522">
<time>2016-10-06T22:05:29Z</time></trkpt>
<trkpt lat="24.9319" lon="105.108652">
<time>2016-10-06T22:05:30Z</time></trkpt>
<trkpt lat="24.932" lon="105.108812">
<time>2016-10-06T22:05:31Z</time></trkpt>
<trkpt lat="24.93209" lon="105.109002">
<time>2016-10-06T22:05:32Z</time></trkpt>
<trkpt lat="24.932501" lon="105.109971">
<time>2016-10-06T22:05:33Z</time></trkpt>
<trkpt lat="24.932721" lon="105.110511">
<time>2016-10-06T22:05:34Z</time></trkpt>
<trkpt lat="24.932781" lon="105.110671">
<time>2016-10-06T22:05:35Z</time></trkpt>
<trkpt lat="24.932811" lon="105.110761">
<time>2016-10-06T22:05:36Z</time></trkpt>
<trkpt lat="24.932831" lon="105.110871">
<time>2016-10-06T22:05:37Z</time></trkpt>
<trkpt lat="24.932882" lon="105.111131">
<time>2016-10-06T22:05:38Z</time></trkpt>
<trkpt lat="24.932922" lon="105.111231">
<time>2016-10-06T22:05:39Z</time></trkpt>
<trkpt lat="24.932972" lon="105.111331">
<time>2016-10-06T22:05:40Z</time></trkpt>
<trkpt lat="24.933032" lon="105.111431">
<time>2016-10-06T22:05:41Z</time></trkpt>
<trkpt lat="24.933102" lon="105.111531">
<time>2016-10-06T22:05:42Z</time></trkpt>
<trkpt lat="24.933152" lon="105.111601">
<time>2016-10-06T22:05:43Z</time></trkpt>
<trkpt lat="24.933242" lon="105.111681">
<time>2016-10-06T22:05:44Z</time></trkpt>
<trkpt lat="24.933362" lon="105.111771">
<time>2016-10-06T22:05:45Z</time></trkpt>
<trkpt lat="24.933602" lon="105.11192">
<time>2016-10-06T22:05:46Z</time></trkpt>
<trkpt lat="24.933762" lon="105.11202">
<time>2016-10-06T22:05:47Z</time></trkpt>
<trkpt lat="24.933872" lon="105.1121">
<time>2016-10-06T22:05:48Z</time></trkpt>
<trkpt lat="24.934012" lon="105.11226">
<time>2016-10-06T22:05:49Z</time></trkpt>
<trkpt lat="24.934192" lon="105.11244">
<time>2016-10-06T22:05:50Z</time></trkpt>
<trkpt lat="24.934372" lon="105.11268">
<time>2016-10-06T22:05:51Z</time></trkpt>
<trkpt lat="24.934803" lon="105.11339">
<time>2016-10-06T22:05:52Z</time></trkpt>
<trkpt lat="24.934923" lon="105.11358">
<time>2016-10-06T22:05:53Z</time></trkpt>
<trkpt lat="24.935023" lon="105.11367">
<time>2016-10-06T22:05:54Z</time></trkpt>
<trkpt lat="24.935073" lon="105.11371">
<time>2016-10-06T22:05:55Z</time></trkpt>
<trkpt lat="24.935133" lon="105.11374">
<time>2016-10-06T22:05:56Z</time></trkpt>
<trkpt lat="24.935283" lon="105.11377">
<time>2016-10-06T22:05:57Z</time></trkpt>
<trkpt lat="24.935363" lon="105.11379">
<time>2016-10-06T22:05:58Z</time></trkpt>
<trkpt lat="24.935453" lon="105.1138">
<time>2016-10-06T22:05:59Z</time></trkpt>
<trkpt lat="24.935523" lon="105.11382">
<time>2016-10-06T22:06:00Z</time></trkpt>
<trkpt lat="24.935593" lon="105.11385">
<time>2016-10-06T22:06:01Z</time></trkpt>
<trkpt lat="24.935763" lon="105.11396">
<time>2016-10-06T22:06:02Z</time></trkpt>
<trkpt lat="24.936363" lon="105.11438">
<time>2016-10-06T22:06:03Z</time></trkpt>
<trkpt lat="24.936824" lon="105.11469">
<time>2016-10-06T22:06:04Z</time></trkpt>
<trkpt lat="24.937244" lon="105.114999">
<time>2016-10-06T22:06:05Z</time></trkpt>
<trkpt lat="24.937534" lon="105.115239">
<time>2016-10-06T22:06:06Z</time></trkpt>
<trkpt lat="24.937734" lon="105.115419">
<time>2016-10-06T22:06:07Z</time></trkpt>
<trkpt lat="24.937734" lon="105.115419">
<time>2016-10-06T22:06:08Z</time></trkpt>
<trkpt lat="24.937754" lon="105.115439">
<time>2016-10-06T22:06:09Z</time></trkpt>
<trkpt lat="24.937814" lon="105.115459">
<time>2016-10-06T22:06:10Z</time></trkpt>
<trkpt lat="24.937864" lon="105.115469">
<time>2016-10-06T22:06:11Z</time></trkpt>
<trkpt lat="24.937914" lon="105.115489">
<time>2016-10-06T22:06:12Z</time></trkpt>
<trkpt lat="24.937964" lon="105.115489">
<time>2016-10-06T22:06:13Z</time></trkpt>
<trkpt lat="24.938004" lon="105.115499">
<time>2016-10-06T22:06:14Z</time></trkpt>
<trkpt lat="24.938044" lon="105.115499">
<time>2016-10-06T22:06:15Z</time></trkpt>
<trkpt lat="24.938084" lon="105.115499">
<time>2016-10-06T22:06:16Z</time></trkpt>
<trkpt lat="24.938114" lon="105.115489">
<time>2016-10-06T22:06:17Z</time></trkpt>
<trkpt lat="24.938154" lon="105.115479">
<time>2016-10-06T22:06:18Z</time></trkpt>
<trkpt lat="24.938194" lon="105.115469">
<time>2016-10-06T22:06:19Z</time></trkpt>
<trkpt lat="24.938234" lon="105.115459">
<time>2016-10-06T22:06:20Z</time></trkpt>
<trkpt lat="24.938264" lon="105.115439">
<time>2016-10-06T22:06:21Z</time></trkpt>
<trkpt lat="24.938304" lon="105.115419">
<time>2016-10-06T22:06:22Z</time></trkpt>
<trkpt lat="24.938344" lon="105.115379">
<time>2016-10-06T22:06:23Z</time></trkpt>
<trkpt lat="24.938384" lon="105.115339">
<time>2016-10-06T22:06:24Z</time></trkpt>
<trkpt lat="24.938414" lon="105.115319">
<time>2016-10-06T22:06:25Z</time></trkpt>
<trkpt lat="24.938434" lon="105.115289">
<time>2016-10-06T22:06:26Z</time></trkpt>
<trkpt lat="24.938534" lon="105.115179">
<time>2016-10-06T22:06:27Z</time></trkpt>
<trkpt lat="24.938542" lon="105.113">
<time>2016-10-06T22:06:28Z</time></trkpt>
<trkpt lat="24.938532" lon="105.11293">
<time>2016-10-06T22:06:29Z</time></trkpt>
<trkpt lat="24.938282" lon="105.11249">
<time>2016-10-06T22:06:30Z</time></trkpt>
<trkpt lat="24.937531" lon="105.111151">
<time>2016-10-06T22:06:31Z</time></trkpt>
<trkpt lat="24.93684" lon="105.109681">
<time>2016-10-06T22:06:32Z</time></trkpt>
<trkpt lat="24.93655" lon="105.108872">
<time>2016-10-06T22:06:33Z</time></trkpt>
<trkpt lat="24.936429" lon="105.108382">
<time>2016-10-06T22:06:34Z</time></trkpt>
<trkpt lat="24.936149" lon="105.107113">
<time>2016-10-06T22:06:35Z</time></trkpt>
<trkpt lat="24.936149" lon="105.107113">
<time>2016-10-06T22:06:36Z</time></trkpt>
<trkpt lat="24.936679" lon="105.106913">
<time>2016-10-06T22:06:37Z</time></trkpt>
<trkpt lat="24.937678" lon="105.106563">
<time>2016-10-06T22:06:38Z</time></trkpt>
<trkpt lat="24.938768" lon="105.106203">
<time>2016-10-06T22:06:39Z</time></trkpt>
<trkpt lat="24.939888" lon="105.105873">
<time>2016-10-06T22:06:40Z</time></trkpt>
<trkpt lat="24.940997" lon="105.105553">
<time>2016-10-06T22:06:41Z</time></trkpt>
<trkpt lat="24.941747" lon="105.105333">
<time>2016-10-06T22:06:42Z</time></trkpt>
<trkpt lat="24.942137" lon="105.105223">
<time>2016-10-06T22:06:43Z</time></trkpt>
<trkpt lat="24.943277" lon="105.104894">
<time>2016-10-06T22:06:44Z</time></trkpt>
<trkpt lat="24.944396" lon="105.104554">
<time>2016-10-06T22:06:45Z</time></trkpt>
<trkpt lat="24.945546" lon="105.104214">
<time>2016-10-06T22:06:46Z</time></trkpt>
<trkpt lat="24.946506" lon="105.103964">
<time>2016-10-06T22:06:47Z</time></trkpt>
<trkpt lat="24.946506" lon="105.103964">
<time>2016-10-06T22:06:48Z</time></trkpt>
<trkpt lat="24.946486" lon="105.103854">
<time>2016-10-06T22:06:49Z</time></trkpt>
<trkpt lat="24.946486" lon="105.103754">
<time>2016-10-06T22:06:50Z</time></trkpt>
<trkpt lat="24.946486" lon="105.103674">
<time>2016-10-06T22:06:51Z</time></trkpt>
<trkpt lat="24.946496" lon="105.103574">
<time>2016-10-06T22:06:52Z</time></trkpt>
<trkpt lat="24.946516" lon="105.103464">
<time>2016-10-06T22:06:53Z</time></trkpt>
<trkpt lat="24.946546" lon="105.103345">
<time>2016-10-06T22:06:54Z</time></trkpt>
<trkpt lat="24.946586" lon="105.103235">
<time>2016-10-06T22:06:55Z</time></trkpt>
<trkpt lat="24.946726" lon="105.102965">
<time>2016-10-06T22:06:56Z</time></trkpt>
<trkpt lat="24.946875" lon="105.102735">
<time>2016-10-06T22:06:57Z</time></trkpt>
<trkpt lat="24.947055" lon="105.102515">
<time>2016-10-06T22:06:58Z</time></trkpt>
<trkpt lat="24.947245" lon="105.102325">
<time>2016-10-06T22:06:59Z</time></trkpt>
<trkpt lat="24.947605" lon="105.102006">
<time>2016-10-06T22:07:00Z</time></trkpt>
<trkpt lat="24.947675" lon="105.101926">
<time>2016-10-06T22:07:01Z</time></trkpt>
<trkpt lat="24.947725" lon="105.101846">
<time>2016-10-06T22:07:02Z</time></trkpt>
<trkpt lat="24.947755" lon="105.101766">
<time>2016-10-06T22:07:03Z</time></trkpt>
<trkpt lat="24.947765" lon="105.101696">
<time>2016-10-06T22:07:04Z</time></trkpt>
<trkpt lat="24.947755" lon="105.101616">
<time>2016-10-06T22:07:05Z</time></trkpt>
<trkpt lat="24.947745" lon="105.101556">
<time>2016-10-06T22:07:06Z</time></trkpt>
<trkpt lat="24.947705" lon="105.101466">
<time>2016-10-06T22:07:07Z</time></trkpt>
<trkpt lat="24.947655" lon="105.101406">
<time>2016-10-06T22:07:08Z</time></trkpt>
<trkpt lat="24.947615" lon="105.101366">
<time>2016-10-06T22:07:09Z</time></trkpt>
<trkpt lat="24.947535" lon="105.101316">
<time>2016-10-06T22:07:10Z</time></trkpt>
<trkpt lat="24.947475" lon="105.101286">
<time>2016-10-06T22:07:11Z</time></trkpt>
<trkpt lat="24.947385" lon="105.101266">
<time>2016-10-06T22:07:12Z</time></trkpt>
<trkpt lat="24.947155" lon="105.101216">
<time>2016-10-06T22:07:13Z</time></trkpt>
<trkpt lat="24.946975" lon="105.101196">
<time>2016-10-06T22:07:14Z</time></trkpt>
<trkpt lat="24.946695" lon="105.101116">
<time>2016-10-06T22:07:15Z</time></trkpt>
<trkpt lat="24.946555" lon="105.101066">
<time>2016-10-06T22:07:16Z</time></trkpt>
<trkpt lat="24.946465" lon="105.101016">
<time>2016-10-06T22:07:17Z</time></trkpt>
<trkpt lat="24.946365" lon="105.100926">
<time>2016-10-06T22:07:18Z</time></trkpt>
<trkpt lat="24.946285" lon="105.100817">
<time>2016-10-06T22:07:19Z</time></trkpt>
<trkpt lat="24.946235" lon="105.100697">
<time>2016-10-06T22:07:20Z</time></trkpt>
<trkpt lat="24.946195" lon="105.100567">
<time>2016-10-06T22:07:21Z</time></trkpt>
<trkpt lat="24.946195" lon="105.100437">
<time>2016-10-06T22:07:22Z</time></trkpt>
<trkpt lat="24.946225" lon="105.100297">
<time>2016-10-06T22:07:23Z</time></trkpt>
<trkpt lat="24.946275" lon="105.100157">
<time>2016-10-06T22:07:24Z</time></trkpt>
<trkpt lat="24.946335" lon="105.100057">
<time>2016-10-06T22:07:25Z</time></trkpt>
<trkpt lat="24.946625" lon="105.099767">
<time>2016-10-06T22:07:26Z</time></trkpt>
<trkpt lat="24.946855" lon="105.099548">
<time>2016-10-06T22:07:27Z</time></trkpt>
<trkpt lat="24.947075" lon="105.099378">
<time>2016-10-06T22:07:28Z</time></trkpt>
<trkpt lat="24.947285" lon="105.099248">
<time>2016-10-06T22:07:29Z</time></trkpt>
<trkpt lat="24.947385" lon="105.099168">
<time>2016-10-06T22:07:30Z</time></trkpt>
<trkpt lat="24.947445" lon="105.099098">
<time>2016-10-06T22:07:31Z</time></trkpt>
<trkpt lat="24.947494" lon="105.099018">
<time>2016-10-06T22:07:32Z</time></trkpt>
<trkpt lat="24.947574" lon="105.098868">
<time>2016-10-06T22:07:33Z</time></trkpt>
<trkpt lat="24.947704" lon="105.098648">
<time>2016-10-06T22:07:34Z</time></trkpt>
<trkpt lat="24.947904" lon="105.098379">
<time>2016-10-06T22:07:35Z</time></trkpt>
<trkpt lat="24.947934" lon="105.098319">
<time>2016-10-06T22:07:36Z</time></trkpt>
<trkpt lat="24.947954" lon="105.098249">
<time>2016-10-06T22:07:37Z</time></trkpt>
<trkpt lat="24.947954" lon="105.098189">
<time>2016-10-06T22:07:38Z</time></trkpt>
<trkpt lat="24.947944" lon="105.098109">
<time>2016-10-06T22:07:39Z</time></trkpt>
<trkpt lat="24.947924" lon="105.098049">
<time>2016-10-06T22:07:40Z</time></trkpt>
<trkpt lat="24.947894" lon="105.097999">
<time>2016-10-06T22:07:41Z</time></trkpt>
<trkpt lat="24.947854" lon="105.097959">
<time>2016-10-06T22:07:42Z</time></trkpt>
<trkpt lat="24.947804" lon="105.097929">
<time>2016-10-06T22:07:43Z</time></trkpt>
<trkpt lat="24.947744" lon="105.097899">
<time>2016-10-06T22:07:44Z</time></trkpt>
<trkpt lat="24.947674" lon="105.097889">
<time>2016-10-06T22:07:45Z</time></trkpt>
<trkpt lat="24.947574" lon="105.097879">
<time>2016-10-06T22:07:46Z</time></trkpt>
<trkpt lat="24.947444" lon="105.097869">
<time>2016-10-06T22:07:47Z</time></trkpt>
<trkpt lat="24.947214" lon="105.097849">
<time>2016-10-06T22:07:48Z</time></trkpt>
<trkpt lat="24.947154" lon="105.097839">
<time>2016-10-06T22:07:49Z</time></trkpt>
<trkpt lat="24.947114" lon="105.097829">
<time>2016-10-06T22:07:50Z</time></trkpt>
<trkpt lat="24.947054" lon="105.097799">
<time>2016-10-06T22:07:51Z</time></trkpt>
<trkpt lat="24.947034" lon="105.097779">
<time>2016-10-06T22:07:52Z</time></trkpt>
<trkpt lat="24.947014" lon="105.097749">
<time>2016-10-06T22:07:53Z</time></trkpt>
<trkpt lat="24.946994" lon="105.097699">
<time>2016-10-06T22:07:54Z</time></trkpt>
<trkpt lat="24.946974" lon="105.097639">
<time>2016-10-06T22:07:55Z</time></trkpt>
<trkpt lat="24.946974" lon="105.09759">
<time>2016-10-06T22:07:56Z</time></trkpt>
<trkpt lat="24.946964" lon="105.09753">
<time>2016-10-06T22:07:57Z</time></trkpt>
<trkpt lat="24.946974" lon="105.09747">
<time>2016-10-06T22:07:58Z</time></trkpt>
<trkpt lat="24.946994" lon="105.09739">
<time>2016-10-06T22:07:59Z</time></trkpt>
<trkpt lat="24.947044" lon="105.0972">
<time>2016-10-06T22:08:00Z</time></trkpt>
<trkpt lat="24.947074" lon="105.09709">
<time>2016-10-06T22:08:01Z</time></trkpt>
<trkpt lat="24.947084" lon="105.09706">
<time>2016-10-06T22:08:02Z</time></trkpt>
<trkpt lat="24.947094" lon="105.09698">
<time>2016-10-06T22:08:03Z</time></trkpt>
<trkpt lat="24.947094" lon="105.09692">
<time>2016-10-06T22:08:04Z</time></trkpt>
<trkpt lat="24.947074" lon="105.09685">
<time>2016-10-06T22:08:05Z</time></trkpt>
<trkpt lat="24.947054" lon="105.09677">
<time>2016-10-06T22:08:06Z</time></trkpt>
<trkpt lat="24.946974" lon="105.096591">
<time>2016-10-06T22:08:07Z</time></trkpt>
<trkpt lat="24.946974" lon="105.096581">
<time>2016-10-06T22:08:08Z</time></trkpt>
<trkpt lat="24.946894" lon="105.096391">
<time>2016-10-06T22:08:09Z</time></trkpt>
<trkpt lat="24.946794" lon="105.096121">
<time>2016-10-06T22:08:10Z</time></trkpt>
<trkpt lat="24.946654" lon="105.095811">
<time>2016-10-06T22:08:11Z</time></trkpt>
<trkpt lat="24.946484" lon="105.095442">
<time>2016-10-06T22:08:12Z</time></trkpt>
<trkpt lat="24.946324" lon="105.095162">
<time>2016-10-06T22:08:13Z</time></trkpt>
<trkpt lat="24.946224" lon="105.095042">
<time>2016-10-06T22:08:14Z</time></trkpt>
<trkpt lat="24.946074" lon="105.094922">
<time>2016-10-06T22:08:15Z</time></trkpt>
<trkpt lat="24.945754" lon="105.094723">
<time>2016-10-06T22:08:16Z</time></trkpt>
<trkpt lat="24.945554" lon="105.094613">
<time>2016-10-06T22:08:17Z</time></trkpt>
<trkpt lat="24.945314" lon="105.094483">
<time>2016-10-06T22:08:18Z</time></trkpt>
<trkpt lat="24.945005" lon="105.094303">
<time>2016-10-06T22:08:19Z</time></trkpt>
<trkpt lat="24.944785" lon="105.094133">
<time>2016-10-06T22:08:20Z</time></trkpt>
<trkpt lat="24.944585" lon="105.093964">
<time>2016-10-06T22:08:21Z</time></trkpt>
<trkpt lat="24.944255" lon="105.093564">
<time>2016-10-06T22:08:22Z</time></trkpt>
<trkpt lat="24.943975" lon="105.093225">
<time>2016-10-06T22:08:23Z</time></trkpt>
<trkpt lat="24.943725" lon="105.092915">
<time>2016-10-06T22:08:24Z</time></trkpt>
<trkpt lat="24.943605" lon="105.092735">
<time>2016-10-06T22:08:25Z</time></trkpt>
<trkpt lat="24.943515" lon="105.092555">
<time>2016-10-06T22:08:26Z</time></trkpt>
<trkpt lat="24.943475" lon="105.092446">
<time>2016-10-06T22:08:27Z</time></trkpt>
<trkpt lat="24.943445" lon="105.092306">
<time>2016-10-06T22:08:28Z</time></trkpt>
<trkpt lat="24.943435" lon="105.092136">
<time>2016-10-06T22:08:29Z</time></trkpt>
<trkpt lat="24.943435" lon="105.092036">
<time>2016-10-06T22:08:30Z</time></trkpt>
<trkpt lat="24.943455" lon="105.091956">
<time>2016-10-06T22:08:31Z</time></trkpt>
<trkpt lat="24.943475" lon="105.091856">
<time>2016-10-06T22:08:32Z</time></trkpt>
<trkpt lat="24.943505" lon="105.091796">
<time>2016-10-06T22:08:33Z</time></trkpt>
<trkpt lat="24.943575" lon="105.091647">
<time>2016-10-06T22:08:34Z</time></trkpt>
<trkpt lat="24.943705" lon="105.091457">
<time>2016-10-06T22:08:35Z</time></trkpt>
<trkpt lat="24.944285" lon="105.090738">
<time>2016-10-06T22:08:36Z</time></trkpt>
<trkpt lat="24.944405" lon="105.090598">
<time>2016-10-06T22:08:37Z</time></trkpt>
<trkpt lat="24.944595" lon="105.090428">
<time>2016-10-06T22:08:38Z</time></trkpt>
<trkpt lat="24.944755" lon="105.090308">
<time>2016-10-06T22:08:39Z</time></trkpt>
<trkpt lat="24.945075" lon="105.090168">
<time>2016-10-06T22:08:40Z</time></trkpt>
<trkpt lat="24.945775" lon="105.089829">
<time>2016-10-06T22:08:41Z</time></trkpt>
<trkpt lat="24.945965" lon="105.089759">
<time>2016-10-06T22:08:42Z</time></trkpt>
<trkpt lat="24.946095" lon="105.089719">
<time>2016-10-06T22:08:43Z</time></trkpt>
<trkpt lat="24.946245" lon="105.089689">
<time>2016-10-06T22:08:44Z</time></trkpt>
<trkpt lat="24.946365" lon="105.089689">
<time>2016-10-06T22:08:45Z</time></trkpt>
<trkpt lat="24.946535" lon="105.089679">
<time>2016-10-06T22:08:46Z</time></trkpt>
<trkpt lat="24.946945" lon="105.089689">
<time>2016-10-06T22:08:47Z</time></trkpt>
<trkpt lat="24.946945" lon="105.089689">
<time>2016-10-06T22:08:48Z</time></trkpt>
<trkpt lat="24.947235" lon="105.089579">
<time>2016-10-06T22:08:49Z</time></trkpt>
<trkpt lat="24.947505" lon="105.089439">
<time>2016-10-06T22:08:50Z</time></trkpt>
<trkpt lat="24.948145" lon="105.0889">
<time>2016-10-06T22:08:51Z</time></trkpt>
<trkpt lat="24.948345" lon="105.08875">
<time>2016-10-06T22:08:52Z</time></trkpt>
<trkpt lat="24.948735" lon="105.088491">
<time>2016-10-06T22:08:53Z</time></trkpt>
<trkpt lat="24.949305" lon="105.088491">
<time>2016-10-06T22:08:54Z</time></trkpt>
<trkpt lat="24.949835" lon="105.08861">
<time>2016-10-06T22:08:55Z</time></trkpt>
<trkpt lat="24.950365" lon="105.0887">
<time>2016-10-06T22:08:56Z</time></trkpt>
<trkpt lat="24.950585" lon="105.088491">
<time>2016-10-06T22:08:57Z</time></trkpt>
<trkpt lat="24.950675" lon="105.088301">
<time>2016-10-06T22:08:58Z</time></trkpt>
<trkpt lat="24.950745" lon="105.088191">
<time>2016-10-06T22:08:59Z</time></trkpt>
<trkpt lat="24.950825" lon="105.088051">
<time>2016-10-06T22:09:00Z</time></trkpt>
<trkpt lat="24.951085" lon="105.087372">
<time>2016-10-06T22:09:01Z</time></trkpt>
<trkpt lat="24.951455" lon="105.086963">
<time>2016-10-06T22:09:02Z</time></trkpt>
<trkpt lat="24.953025" lon="105.087083">
<time>2016-10-06T22:09:03Z</time></trkpt>
<trkpt lat="24.953675" lon="105.087003">
<time>2016-10-06T22:09:04Z</time></trkpt>
<trkpt lat="24.954545" lon="105.086593">
<time>2016-10-06T22:09:05Z</time></trkpt>
<trkpt lat="24.955405" lon="105.086214">
<time>2016-10-06T22:09:06Z</time></trkpt>
<trkpt lat="24.955685" lon="105.085884">
<time>2016-10-06T22:09:07Z</time></trkpt>
<trkpt lat="24.955965" lon="105.085565">
<time>2016-10-06T22:09:08Z</time></trkpt>
<trkpt lat="24.956365" lon="105.085046">
<time>2016-10-06T22:09:09Z</time></trkpt>
<trkpt lat="24.956975" lon="105.084816">
<time>2016-10-06T22:09:10Z</time></trkpt>
<trkpt lat="24.958335" lon="105.084496">
<time>2016-10-06T22:09:11Z</time></trkpt>
<trkpt lat="24.959105" lon="105.084287">
<time>2016-10-06T22:09:12Z</time></trkpt>
<trkpt lat="24.959425" lon="105.084227">
<time>2016-10-06T22:09:13Z</time></trkpt>
<trkpt lat="24.960015" lon="105.084407">
<time>2016-10-06T22:09:14Z</time></trkpt>
<trkpt lat="24.960575" lon="105.084546">
<time>2016-10-06T22:09:15Z</time></trkpt>
<trkpt lat="24.961205" lon="105.084576">
<time>2016-10-06T22:09:16Z</time></trkpt>
<trkpt lat="24.961825" lon="105.084227">
<time>2016-10-06T22:09:17Z</time></trkpt>
<trkpt lat="24.962865" lon="105.083668">
<time>2016-10-06T22:09:18Z</time></trkpt>
<trkpt lat="24.963985" lon="105.083378">
<time>2016-10-06T22:09:19Z</time></trkpt>
<trkpt lat="24.964245" lon="105.083298">
<time>2016-10-06T22:09:20Z</time></trkpt>
<trkpt lat="24.965315" lon="105.082969">
<time>2016-10-06T22:09:21Z</time></trkpt>
<trkpt lat="24.965605" lon="105.082889">
<time>2016-10-06T22:09:22Z</time></trkpt>
<trkpt lat="24.966165" lon="105.082699">
<time>2016-10-06T22:09:23Z</time></trkpt>
<trkpt lat="24.966355" lon="105.082589">
<time>2016-10-06T22:09:24Z</time></trkpt>
<trkpt lat="24.966355" lon="105.082579">
<time>2016-10-06T22:09:25Z</time></trkpt>
<trkpt lat="24.966365" lon="105.082579">
<time>2016-10-06T22:09:26Z</time></trkpt>
<trkpt lat="24.966645" lon="105.0822">
<time>2016-10-06T22:09:27Z</time></trkpt>
<trkpt lat="24.966766" lon="105.08202">
<time>2016-10-06T22:09:28Z</time></trkpt>
<trkpt lat="24.967156" lon="105.081222">
<time>2016-10-06T22:09:29Z</time></trkpt>
<trkpt lat="24.967236" lon="105.080962">
<time>2016-10-06T22:09:30Z</time></trkpt>
<trkpt lat="24.967376" lon="105.080543">
<time>2016-10-06T22:09:31Z</time></trkpt>
<trkpt lat="24.967107" lon="105.079176">
<time>2016-10-06T22:09:32Z</time></trkpt>
<trkpt lat="24.966699" lon="105.077499">
<time>2016-10-06T22:09:33Z</time></trkpt>
<trkpt lat="24.966489" lon="105.07712">
<time>2016-10-06T22:09:34Z</time></trkpt>
<trkpt lat="24.966259" lon="105.076681">
<time>2016-10-06T22:09:35Z</time></trkpt>
<trkpt lat="24.96612" lon="105.075862">
<time>2016-10-06T22:09:36Z</time></trkpt>
<trkpt lat="24.965831" lon="105.075333">
<time>2016-10-06T22:09:37Z</time></trkpt>
<trkpt lat="24.965531" lon="105.074695">
<time>2016-10-06T22:09:38Z</time></trkpt>
<trkpt lat="24.965462" lon="105.073906">
<time>2016-10-06T22:09:39Z</time></trkpt>
<trkpt lat="24.965452" lon="105.073767">
<time>2016-10-06T22:09:40Z</time></trkpt>
<trkpt lat="24.965383" lon="105.073268">
<time>2016-10-06T22:09:41Z</time></trkpt>
<trkpt lat="24.965323" lon="105.072969">
<time>2016-10-06T22:09:42Z</time></trkpt>
<trkpt lat="24.965243" lon="105.072619">
<time>2016-10-06T22:09:43Z</time></trkpt>
<trkpt lat="24.965204" lon="105.07236">
<time>2016-10-06T22:09:44Z</time></trkpt>
<trkpt lat="24.965244" lon="105.0722">
<time>2016-10-06T22:09:45Z</time></trkpt>
<trkpt lat="24.965374" lon="105.071981">
<time>2016-10-06T22:09:46Z</time></trkpt>
<trkpt lat="24.965494" lon="105.071821">
<time>2016-10-06T22:09:47Z</time></trkpt>
<trkpt lat="24.965644" lon="105.071651">
<time>2016-10-06T22:09:48Z</time></trkpt>
<trkpt lat="24.965694" lon="105.071552">
<time>2016-10-06T22:09:49Z</time></trkpt>
<trkpt lat="24.965694" lon="105.071372">
<time>2016-10-06T22:09:50Z</time></trkpt>
<trkpt lat="24.965455" lon="105.070784">
<time>2016-10-06T22:09:51Z</time></trkpt>
<trkpt lat="24.965276" lon="105.070394">
<time>2016-10-06T22:09:52Z</time></trkpt>
<trkpt lat="24.965506" lon="105.069846">
<time>2016-10-06T22:09:53Z</time></trkpt>
<trkpt lat="24.965537" lon="105.069526">
<time>2016-10-06T22:09:54Z</time></trkpt>
<trkpt lat="24.965377" lon="105.068988">
<time>2016-10-06T22:09:55Z</time></trkpt>
<trkpt lat="24.964898" lon="105.068349">
<time>2016-10-06T22:09:56Z</time></trkpt>
<trkpt lat="24.964628" lon="105.06815">
<time>2016-10-06T22:09:57Z</time></trkpt>
<trkpt lat="24.964368" lon="105.06823">
<time>2016-10-06T22:09:58Z</time></trkpt>
<trkpt lat="24.964128" lon="105.068559">
<time>2016-10-06T22:09:59Z</time></trkpt>
<trkpt lat="24.963887" lon="105.068908">
<time>2016-10-06T22:10:00Z</time></trkpt>
<trkpt lat="24.963507" lon="105.069287">
<time>2016-10-06T22:10:01Z</time></trkpt>
<trkpt lat="24.963297" lon="105.069666">
<time>2016-10-06T22:10:02Z</time></trkpt>
<trkpt lat="24.963186" lon="105.070105">
<time>2016-10-06T22:10:03Z</time></trkpt>
<trkpt lat="24.963026" lon="105.070195">
<time>2016-10-06T22:10:04Z</time></trkpt>
<trkpt lat="24.962896" lon="105.070165">
<time>2016-10-06T22:10:05Z</time></trkpt>
<trkpt lat="24.962896" lon="105.069966">
<time>2016-10-06T22:10:06Z</time></trkpt>
<trkpt lat="24.963027" lon="105.069557">
<time>2016-10-06T22:10:07Z</time></trkpt>
<trkpt lat="24.963137" lon="105.069227">
<time>2016-10-06T22:10:08Z</time></trkpt>
<trkpt lat="24.963168" lon="105.068848">
<time>2016-10-06T22:10:09Z</time></trkpt>
<trkpt lat="24.963028" lon="105.068649">
<time>2016-10-06T22:10:10Z</time></trkpt>
<trkpt lat="24.962898" lon="105.06832">
<time>2016-10-06T22:10:11Z</time></trkpt>
<trkpt lat="24.962899" lon="105.067911">
<time>2016-10-06T22:10:12Z</time></trkpt>
<trkpt lat="24.96338" lon="105.066793">
<time>2016-10-06T22:10:13Z</time></trkpt>
<trkpt lat="24.9634" lon="105.066743">
<time>2016-10-06T22:10:14Z</time></trkpt>
<trkpt lat="24.96361" lon="105.066554">
<time>2016-10-06T22:10:15Z</time></trkpt>
<trkpt lat="24.964051" lon="105.066165">
<time>2016-10-06T22:10:16Z</time></trkpt>
<trkpt lat="24.964761" lon="105.065985">
<time>2016-10-06T22:10:17Z</time></trkpt>
<trkpt lat="24.965411" lon="105.066095">
<time>2016-10-06T22:10:18Z</time></trkpt>
<trkpt lat="24.965771" lon="105.066155">
<time>2016-10-06T22:10:19Z</time></trkpt>
<trkpt lat="24.965941" lon="105.066185">
<time>2016-10-06T22:10:20Z</time></trkpt>
<trkpt lat="24.966231" lon="105.065955">
<time>2016-10-06T22:10:21Z</time></trkpt>
<trkpt lat="24.966391" lon="105.065516">
<time>2016-10-06T22:10:22Z</time></trkpt>
<trkpt lat="24.966702" lon="105.065317">
<time>2016-10-06T22:10:23Z</time></trkpt>
<trkpt lat="24.967062" lon="105.065137">
<time>2016-10-06T22:10:24Z</time></trkpt>
<trkpt lat="24.967242" lon="105.064818">
<time>2016-10-06T22:10:25Z</time></trkpt>
<trkpt lat="24.967273" lon="105.06418">
<time>2016-10-06T22:10:26Z</time></trkpt>
<trkpt lat="24.967595" lon="105.063113">
<time>2016-10-06T22:10:27Z</time></trkpt>
<trkpt lat="24.967915" lon="105.062953">
<time>2016-10-06T22:10:28Z</time></trkpt>
<trkpt lat="24.968045" lon="105.062774">
<time>2016-10-06T22:10:29Z</time></trkpt>
<trkpt lat="24.968205" lon="105.062544">
<time>2016-10-06T22:10:30Z</time></trkpt>
<trkpt lat="24.968826" lon="105.061976">
<time>2016-10-06T22:10:31Z</time></trkpt>
<trkpt lat="24.968976" lon="105.061806">
<time>2016-10-06T22:10:32Z</time></trkpt>
<trkpt lat="24.969347" lon="105.061427">
<time>2016-10-06T22:10:33Z</time></trkpt>
<trkpt lat="24.969857" lon="105.060979">
<time>2016-10-06T22:10:34Z</time></trkpt>
<trkpt lat="24.970367" lon="105.061108">
<time>2016-10-06T22:10:35Z</time></trkpt>
<trkpt lat="24.970817" lon="105.061158">
<time>2016-10-06T22:10:36Z</time></trkpt>
<trkpt lat="24.970997" lon="105.061078">
<time>2016-10-06T22:10:37Z</time></trkpt>
<trkpt lat="24.971077" lon="105.061048">
<time>2016-10-06T22:10:38Z</time></trkpt>
<trkpt lat="24.971318" lon="105.060161">
<time>2016-10-06T22:10:39Z</time></trkpt>
<trkpt lat="24.971399" lon="105.059523">
<time>2016-10-06T22:10:40Z</time></trkpt>
<trkpt lat="24.97158" lon="105.059044">
<time>2016-10-06T22:10:41Z</time></trkpt>
<trkpt lat="24.971691" lon="105.058735">
<time>2016-10-06T22:10:42Z</time></trkpt>
<trkpt lat="24.971752" lon="105.057997">
<time>2016-10-06T22:10:43Z</time></trkpt>
<trkpt lat="24.971643" lon="105.05707">
<time>2016-10-06T22:10:44Z</time></trkpt>
<trkpt lat="24.971435" lon="105.056183">
<time>2016-10-06T22:10:45Z</time></trkpt>
<trkpt lat="24.971596" lon="105.055754">
<time>2016-10-06T22:10:46Z</time></trkpt>
<trkpt lat="24.971976" lon="105.055614">
<time>2016-10-06T22:10:47Z</time></trkpt>
<trkpt lat="24.972206" lon="105.055524">
<time>2016-10-06T22:10:48Z</time></trkpt>
<trkpt lat="24.972686" lon="105.055405">
<time>2016-10-06T22:10:49Z</time></trkpt>
<trkpt lat="24.972977" lon="105.055026">
<time>2016-10-06T22:10:50Z</time></trkpt>
<trkpt lat="24.972987" lon="105.054976">
<time>2016-10-06T22:10:51Z</time></trkpt>
<trkpt lat="24.973188" lon="105.054268">
<time>2016-10-06T22:10:52Z</time></trkpt>
<trkpt lat="24.97308" lon="105.053092">
<time>2016-10-06T22:10:53Z</time></trkpt>
<trkpt lat="24.972662" lon="105.052215">
<time>2016-10-06T22:10:54Z</time></trkpt>
<trkpt lat="24.972682" lon="105.052005">
<time>2016-10-06T22:10:55Z</time></trkpt>
<trkpt lat="24.972893" lon="105.051776">
<time>2016-10-06T22:10:56Z</time></trkpt>
<trkpt lat="24.973123" lon="105.051776">
<time>2016-10-06T22:10:57Z</time></trkpt>
<trkpt lat="24.973323" lon="105.051776">
<time>2016-10-06T22:10:58Z</time></trkpt>
<trkpt lat="24.973752" lon="105.051886">
<time>2016-10-06T22:10:59Z</time></trkpt>
<trkpt lat="24.974122" lon="105.051836">
<time>2016-10-06T22:11:00Z</time></trkpt>
<trkpt lat="24.974603" lon="105.051746">
<time>2016-10-06T22:11:01Z</time></trkpt>
<trkpt lat="24.974953" lon="105.051746">
<time>2016-10-06T22:11:02Z</time></trkpt>
<trkpt lat="24.975511" lon="105.052504">
<time>2016-10-06T22:11:03Z</time></trkpt>
<trkpt lat="24.976309" lon="105.053471">
<time>2016-10-06T22:11:04Z</time></trkpt>
<trkpt lat="24.976999" lon="105.05379">
<time>2016-10-06T22:11:05Z</time></trkpt>
<trkpt lat="24.977959" lon="105.053411">
<time>2016-10-06T22:11:06Z</time></trkpt>
<trkpt lat="24.97849" lon="105.052862">
<time>2016-10-06T22:11:07Z</time></trkpt>
<trkpt lat="24.978922" lon="105.051975">
<time>2016-10-06T22:11:08Z</time></trkpt>
<trkpt lat="24.980273" lon="105.051108">
<time>2016-10-06T22:11:09Z</time></trkpt>
<trkpt lat="24.980734" lon="105.05047">
<time>2016-10-06T22:11:10Z</time></trkpt>
<trkpt lat="24.981265" lon="105.049822">
<time>2016-10-06T22:11:11Z</time></trkpt>
<trkpt lat="24.981505" lon="105.049842">
<time>2016-10-06T22:11:12Z</time></trkpt>
<trkpt lat="24.981875" lon="105.050111">
<time>2016-10-06T22:11:13Z</time></trkpt>
<trkpt lat="24.982365" lon="105.050201">
<time>2016-10-06T22:11:14Z</time></trkpt>
<trkpt lat="24.982625" lon="105.050201">
<time>2016-10-06T22:11:15Z</time></trkpt>
<trkpt lat="24.983024" lon="105.050201">
<time>2016-10-06T22:11:16Z</time></trkpt>
<trkpt lat="24.983185" lon="105.049972">
<time>2016-10-06T22:11:17Z</time></trkpt>
<trkpt lat="24.983506" lon="105.049583">
<time>2016-10-06T22:11:18Z</time></trkpt>
<trkpt lat="24.983826" lon="105.049384">
<time>2016-10-06T22:11:19Z</time></trkpt>
<trkpt lat="24.984176" lon="105.049354">
<time>2016-10-06T22:11:20Z</time></trkpt>
<trkpt lat="24.984306" lon="105.049284">
<time>2016-10-06T22:11:21Z</time></trkpt>
<trkpt lat="24.984356" lon="105.049264">
<time>2016-10-06T22:11:22Z</time></trkpt>
<trkpt lat="24.984406" lon="105.049244">
<time>2016-10-06T22:11:23Z</time></trkpt>
<trkpt lat="24.984456" lon="105.049144">
<time>2016-10-06T22:11:24Z</time></trkpt>
<trkpt lat="24.984517" lon="105.049035">
<time>2016-10-06T22:11:25Z</time></trkpt>
<trkpt lat="24.984408" lon="105.048247">
<time>2016-10-06T22:11:26Z</time></trkpt>
<trkpt lat="24.983721" lon="105.047041">
<time>2016-10-06T22:11:27Z</time></trkpt>
<trkpt lat="24.983004" lon="105.045756">
<time>2016-10-06T22:11:28Z</time></trkpt>
<trkpt lat="24.982836" lon="105.044759">
<time>2016-10-06T22:11:29Z</time></trkpt>
<trkpt lat="24.982967" lon="105.044122">
<time>2016-10-06T22:11:30Z</time></trkpt>
<trkpt lat="24.983448" lon="105.043643">
<time>2016-10-06T22:11:31Z</time></trkpt>
<trkpt lat="24.984569" lon="105.043304">
<time>2016-10-06T22:11:32Z</time></trkpt>
<trkpt lat="24.984939" lon="105.042976">
<time>2016-10-06T22:11:33Z</time></trkpt>
<trkpt lat="24.984891" lon="105.042129">
<time>2016-10-06T22:11:34Z</time></trkpt>
<trkpt lat="24.984733" lon="105.041571">
<time>2016-10-06T22:11:35Z</time></trkpt>
<trkpt lat="24.985044" lon="105.040684">
<time>2016-10-06T22:11:36Z</time></trkpt>
<trkpt lat="24.985075" lon="105.040604">
<time>2016-10-06T22:11:37Z</time></trkpt>
<trkpt lat="24.985156" lon="105.039877">
<time>2016-10-06T22:11:38Z</time></trkpt>
<trkpt lat="24.985138" lon="105.03912">
<time>2016-10-06T22:11:39Z</time></trkpt>
<trkpt lat="24.98585" lon="105.038183">
<time>2016-10-06T22:11:40Z</time></trkpt>
<trkpt lat="24.986091" lon="105.037974">
<time>2016-10-06T22:11:41Z</time></trkpt>
<trkpt lat="24.986161" lon="105.037864">
<time>2016-10-06T22:11:42Z</time></trkpt>
<trkpt lat="24.986211" lon="105.037745">
<time>2016-10-06T22:11:43Z</time></trkpt>
<trkpt lat="24.986172" lon="105.037575">
<time>2016-10-06T22:11:44Z</time></trkpt>
<trkpt lat="24.986012" lon="105.037306">
<time>2016-10-06T22:11:45Z</time></trkpt>
<trkpt lat="24.985813" lon="105.037028">
<time>2016-10-06T22:11:46Z</time></trkpt>
<trkpt lat="24.985774" lon="105.036788">
<time>2016-10-06T22:11:47Z</time></trkpt>
<trkpt lat="24.985894" lon="105.036519">
<time>2016-10-06T22:11:48Z</time></trkpt>
<trkpt lat="24.986145" lon="105.036081">
<time>2016-10-06T22:11:49Z</time></trkpt>
<trkpt lat="24.986307" lon="105.035264">
<time>2016-10-06T22:11:50Z</time></trkpt>
<trkpt lat="24.986358" lon="105.034995">
<time>2016-10-06T22:11:51Z</time></trkpt>
<trkpt lat="24.986951" lon="105.03365">
<time>2016-10-06T22:11:52Z</time></trkpt>
<trkpt lat="24.987663" lon="105.032983">
<time>2016-10-06T22:11:53Z</time></trkpt>
<trkpt lat="24.988153" lon="105.032824">
<time>2016-10-06T22:11:54Z</time></trkpt>
<trkpt lat="24.988574" lon="105.032545">
<time>2016-10-06T22:11:55Z</time></trkpt>
<trkpt lat="24.988995" lon="105.032077">
<time>2016-10-06T22:11:56Z</time></trkpt>
<trkpt lat="24.989266" lon="105.031668">
<time>2016-10-06T22:11:57Z</time></trkpt>
<trkpt lat="24.989897" lon="105.031369">
<time>2016-10-06T22:11:58Z</time></trkpt>
<trkpt lat="24.990217" lon="105.031021">
<time>2016-10-06T22:11:59Z</time></trkpt>
<trkpt lat="24.990348" lon="105.030692">
<time>2016-10-06T22:12:00Z</time></trkpt>
<trkpt lat="24.990389" lon="105.030353">
<time>2016-10-06T22:12:01Z</time></trkpt>
<trkpt lat="24.990519" lon="105.030284">
<time>2016-10-06T22:12:02Z</time></trkpt>
<trkpt lat="24.990679" lon="105.030373">
<time>2016-10-06T22:12:03Z</time></trkpt>
<trkpt lat="24.990869" lon="105.030543">
<time>2016-10-06T22:12:04Z</time></trkpt>
<trkpt lat="24.991008" lon="105.030742">
<time>2016-10-06T22:12:05Z</time></trkpt>
<trkpt lat="24.991407" lon="105.03125">
<time>2016-10-06T22:12:06Z</time></trkpt>
<trkpt lat="24.991666" lon="105.031399">
<time>2016-10-06T22:12:07Z</time></trkpt>
<trkpt lat="24.992036" lon="105.031399">
<time>2016-10-06T22:12:08Z</time></trkpt>
<trkpt lat="24.992437" lon="105.03113">
<time>2016-10-06T22:12:09Z</time></trkpt>
<trkpt lat="24.992787" lon="105.031031">
<time>2016-10-06T22:12:10Z</time></trkpt>
<trkpt lat="24.993237" lon="105.031001">
<time>2016-10-06T22:12:11Z</time></trkpt>
<trkpt lat="24.993507" lon="105.03109">
<time>2016-10-06T22:12:12Z</time></trkpt>
<trkpt lat="24.993886" lon="105.031309">
<time>2016-10-06T22:12:13Z</time></trkpt>
<trkpt lat="24.994255" lon="105.031578">
<time>2016-10-06T22:12:14Z</time></trkpt>
<trkpt lat="24.994435" lon="105.031628">
<time>2016-10-06T22:12:15Z</time></trkpt>
<trkpt lat="24.994675" lon="105.031628">
<time>2016-10-06T22:12:16Z</time></trkpt>
<trkpt lat="24.994935" lon="105.031548">
<time>2016-10-06T22:12:17Z</time></trkpt>
<trkpt lat="24.995176" lon="105.031429">
<time>2016-10-06T22:12:18Z</time></trkpt>
<trkpt lat="24.995326" lon="105.031309">
<time>2016-10-06T22:12:19Z</time></trkpt>
<trkpt lat="24.995416" lon="105.03123">
<time>2016-10-06T22:12:20Z</time></trkpt>
<trkpt lat="24.995436" lon="105.03115">
<time>2016-10-06T22:12:21Z</time></trkpt>
<trkpt lat="24.995577" lon="105.030761">
<time>2016-10-06T22:12:22Z</time></trkpt>
<trkpt lat="24.9959" lon="105.029726">
<time>2016-10-06T22:12:23Z</time></trkpt>
<trkpt lat="24.99598" lon="105.029616">
<time>2016-10-06T22:12:24Z</time></trkpt>
<trkpt lat="24.996021" lon="105.029556">
<time>2016-10-06T22:12:25Z</time></trkpt>
<trkpt lat="24.996061" lon="105.029516">
<time>2016-10-06T22:12:26Z</time></trkpt>
<trkpt lat="24.996121" lon="105.029497">
<time>2016-10-06T22:12:27Z</time></trkpt>
<trkpt lat="24.996151" lon="105.029487">
<time>2016-10-06T22:12:28Z</time></trkpt>
<trkpt lat="24.996271" lon="105.029467">
<time>2016-10-06T22:12:29Z</time></trkpt>
<trkpt lat="24.996531" lon="105.029457">
<time>2016-10-06T22:12:30Z</time></trkpt>
<trkpt lat="24.997341" lon="105.029427">
<time>2016-10-06T22:12:31Z</time></trkpt>
<trkpt lat="24.997571" lon="105.029397">
<time>2016-10-06T22:12:32Z</time></trkpt>
<trkpt lat="24.997851" lon="105.029337">
<time>2016-10-06T22:12:33Z</time></trkpt>
<trkpt lat="24.998131" lon="105.029178">
<time>2016-10-06T22:12:34Z</time></trkpt>
<trkpt lat="24.998391" lon="105.029068">
<time>2016-10-06T22:12:35Z</time></trkpt>
<trkpt lat="24.998522" lon="105.028959">
<time>2016-10-06T22:12:36Z</time></trkpt>
<trkpt lat="24.998632" lon="105.028849">
<time>2016-10-06T22:12:37Z</time></trkpt>
<trkpt lat="24.998702" lon="105.02873">
<time>2016-10-06T22:12:38Z</time></trkpt>
<trkpt lat="24.998743" lon="105.02862">
<time>2016-10-06T22:12:39Z</time></trkpt>
<trkpt lat="24.998813" lon="105.028301">
<time>2016-10-06T22:12:40Z</time></trkpt>
<trkpt lat="24.998845" lon="105.027873">
<time>2016-10-06T22:12:41Z</time></trkpt>
<trkpt lat="24.998835" lon="105.027554">
<time>2016-10-06T22:12:42Z</time></trkpt>
<trkpt lat="24.998816" lon="105.027166">
<time>2016-10-06T22:12:43Z</time></trkpt>
<trkpt lat="24.998767" lon="105.026947">
<time>2016-10-06T22:12:44Z</time></trkpt>
<trkpt lat="24.998737" lon="105.026857">
<time>2016-10-06T22:12:45Z</time></trkpt>
<trkpt lat="24.998668" lon="105.026738">
<time>2016-10-06T22:12:46Z</time></trkpt>
<trkpt lat="24.998548" lon="105.026578">
<time>2016-10-06T22:12:47Z</time></trkpt>
<trkpt lat="24.998369" lon="105.026349">
<time>2016-10-06T22:12:48Z</time></trkpt>
<trkpt lat="24.998259" lon="105.02617">
<time>2016-10-06T22:12:49Z</time></trkpt>
<trkpt lat="24.99821" lon="105.02605">
<time>2016-10-06T22:12:50Z</time></trkpt>
<trkpt lat="24.99817" lon="105.025881">
<time>2016-10-06T22:12:51Z</time></trkpt>
<trkpt lat="24.99817" lon="105.025782">
<time>2016-10-06T22:12:52Z</time></trkpt>
<trkpt lat="24.998171" lon="105.025702">
<time>2016-10-06T22:12:53Z</time></trkpt>
<trkpt lat="24.998181" lon="105.025622">
<time>2016-10-06T22:12:54Z</time></trkpt>
<trkpt lat="24.998181" lon="105.025513">
<time>2016-10-06T22:12:55Z</time></trkpt>
<trkpt lat="24.998211" lon="105.025453">
<time>2016-10-06T22:12:56Z</time></trkpt>
<trkpt lat="24.998311" lon="105.025343">
<time>2016-10-06T22:12:57Z</time></trkpt>
<trkpt lat="24.998352" lon="105.025323">
<time>2016-10-06T22:12:58Z</time></trkpt>
<trkpt lat="24.998432" lon="105.025304">
<time>2016-10-06T22:12:59Z</time></trkpt>
<trkpt lat="24.998442" lon="105.025304">
<time>2016-10-06T22:13:00Z</time></trkpt>
<trkpt lat="24.998482" lon="105.025304">
<time>2016-10-06T22:13:01Z</time></trkpt>
<trkpt lat="24.998631" lon="105.025373">
<time>2016-10-06T22:13:02Z</time></trkpt>
<trkpt lat="24.998771" lon="105.025483">
<time>2016-10-06T22:13:03Z</time></trkpt>
<trkpt lat="24.998861" lon="105.025582">
<time>2016-10-06T22:13:04Z</time></trkpt>
<trkpt lat="24.99923" lon="105.025971">
<time>2016-10-06T22:13:05Z</time></trkpt>
<trkpt lat="24.999689" lon="105.026339">
<time>2016-10-06T22:13:06Z</time></trkpt>
<trkpt lat="24.999998" lon="105.026509">
<time>2016-10-06T22:13:07Z</time></trkpt>
<trkpt lat="25.000068" lon="105.026548">
<time>2016-10-06T22:13:08Z</time></trkpt>
<trkpt lat="25.000168" lon="105.026648">
<time>2016-10-06T22:13:09Z</time></trkpt>
<trkpt lat="25.000337" lon="105.026807">
<time>2016-10-06T22:13:10Z</time></trkpt>
<trkpt lat="25.000387" lon="105.026847">
<time>2016-10-06T22:13:11Z</time></trkpt>
<trkpt lat="25.000457" lon="105.026897">
<time>2016-10-06T22:13:12Z</time></trkpt>
<trkpt lat="25.000717" lon="105.026967">
<time>2016-10-06T22:13:13Z</time></trkpt>
<trkpt lat="25.000887" lon="105.026996">
<time>2016-10-06T22:13:14Z</time></trkpt>
<trkpt lat="25.001037" lon="105.026996">
<time>2016-10-06T22:13:15Z</time></trkpt>
<trkpt lat="25.001127" lon="105.026947">
<time>2016-10-06T22:13:16Z</time></trkpt>
<trkpt lat="25.001217" lon="105.026857">
<time>2016-10-06T22:13:17Z</time></trkpt>
<trkpt lat="25.001297" lon="105.026787">
<time>2016-10-06T22:13:18Z</time></trkpt>
<trkpt lat="25.001367" lon="105.026708">
<time>2016-10-06T22:13:19Z</time></trkpt>
<trkpt lat="25.001458" lon="105.026618">
<time>2016-10-06T22:13:20Z</time></trkpt>
<trkpt lat="25.001588" lon="105.026498">
<time>2016-10-06T22:13:21Z</time></trkpt>
<trkpt lat="25.001989" lon="105.0261">
<time>2016-10-06T22:13:22Z</time></trkpt>
<trkpt lat="25.002279" lon="105.025891">
<time>2016-10-06T22:13:23Z</time></trkpt>
<trkpt lat="25.00285" lon="105.025692">
<time>2016-10-06T22:13:24Z</time></trkpt>
<trkpt lat="25.00336" lon="105.025503">
<time>2016-10-06T22:13:25Z</time></trkpt>
<trkpt lat="25.003921" lon="105.025333">
<time>2016-10-06T22:13:26Z</time></trkpt>
<trkpt lat="25.004411" lon="105.025224">
<time>2016-10-06T22:13:27Z</time></trkpt>
<trkpt lat="25.004551" lon="105.025214">
<time>2016-10-06T22:13:28Z</time></trkpt>
<trkpt lat="25.004691" lon="105.025244">
<time>2016-10-06T22:13:29Z</time></trkpt>
<trkpt lat="25.004891" lon="105.025293">
<time>2016-10-06T22:13:30Z</time></trkpt>
<trkpt lat="25.004941" lon="105.025323">
<time>2016-10-06T22:13:31Z</time></trkpt>
<trkpt lat="25.004991" lon="105.025363">
<time>2016-10-06T22:13:32Z</time></trkpt>
<trkpt lat="25.00505" lon="105.025413">
<time>2016-10-06T22:13:33Z</time></trkpt>
<trkpt lat="25.0051" lon="105.025463">
<time>2016-10-06T22:13:34Z</time></trkpt>
<trkpt lat="25.00515" lon="105.025522">
<time>2016-10-06T22:13:35Z</time></trkpt>
<trkpt lat="25.0052" lon="105.025592">
<time>2016-10-06T22:13:36Z</time></trkpt>
<trkpt lat="25.00525" lon="105.025662">
<time>2016-10-06T22:13:37Z</time></trkpt>
<trkpt lat="25.0053" lon="105.025731">
<time>2016-10-06T22:13:38Z</time></trkpt>
<trkpt lat="25.005349" lon="105.025801">
<time>2016-10-06T22:13:39Z</time></trkpt>
<trkpt lat="25.005399" lon="105.025861">
<time>2016-10-06T22:13:40Z</time></trkpt>
<trkpt lat="25.005439" lon="105.025931">
<time>2016-10-06T22:13:41Z</time></trkpt>
<trkpt lat="25.005489" lon="105.02597">
<time>2016-10-06T22:13:42Z</time></trkpt>
<trkpt lat="25.005549" lon="105.026">
<time>2016-10-06T22:13:43Z</time></trkpt>
<trkpt lat="25.005659" lon="105.02599">
<time>2016-10-06T22:13:44Z</time></trkpt>
<trkpt lat="25.005739" lon="105.02597">
<time>2016-10-06T22:13:45Z</time></trkpt>
<trkpt lat="25.005889" lon="105.025931">
<time>2016-10-06T22:13:46Z</time></trkpt>
<trkpt lat="25.006099" lon="105.025751">
<time>2016-10-06T22:13:47Z</time></trkpt>
<trkpt lat="25.00617" lon="105.025492">
<time>2016-10-06T22:13:48Z</time></trkpt>
<trkpt lat="25.00618" lon="105.025473">
<time>2016-10-06T22:13:49Z</time></trkpt>
<trkpt lat="25.006191" lon="105.025313">
<time>2016-10-06T22:13:50Z</time></trkpt>
<trkpt lat="25.006181" lon="105.025154">
<time>2016-10-06T22:13:51Z</time></trkpt>
<trkpt lat="25.006151" lon="105.024994">
<time>2016-10-06T22:13:52Z</time></trkpt>
<trkpt lat="25.006122" lon="105.024835">
<time>2016-10-06T22:13:53Z</time></trkpt>
<trkpt lat="25.006072" lon="105.024686">
<time>2016-10-06T22:13:54Z</time></trkpt>
<trkpt lat="25.006023" lon="105.024526">
<time>2016-10-06T22:13:55Z</time></trkpt>
<trkpt lat="25.005933" lon="105.024287">
<time>2016-10-06T22:13:56Z</time></trkpt>
<trkpt lat="25.005844" lon="105.024058">
<time>2016-10-06T22:13:57Z</time></trkpt>
<trkpt lat="25.005765" lon="105.023829">
<time>2016-10-06T22:13:58Z</time></trkpt>
<trkpt lat="25.005685" lon="105.02359">
<time>2016-10-06T22:13:59Z</time></trkpt>
<trkpt lat="25.005606" lon="105.023351">
<time>2016-10-06T22:14:00Z</time></trkpt>
<trkpt lat="25.005547" lon="105.023102">
<time>2016-10-06T22:14:01Z</time></trkpt>
<trkpt lat="25.005507" lon="105.022834">
<time>2016-10-06T22:14:02Z</time></trkpt>
<trkpt lat="25.005478" lon="105.022535">
<time>2016-10-06T22:14:03Z</time></trkpt>
<trkpt lat="25.005469" lon="105.022276">
<time>2016-10-06T22:14:04Z</time></trkpt>
<trkpt lat="25.00548" lon="105.022007">
<time>2016-10-06T22:14:05Z</time></trkpt>
<trkpt lat="25.005501" lon="105.021738">
<time>2016-10-06T22:14:06Z</time></trkpt>
<trkpt lat="25.005551" lon="105.021499">
<time>2016-10-06T22:14:07Z</time></trkpt>
<trkpt lat="25.005632" lon="105.02128">
<time>2016-10-06T22:14:08Z</time></trkpt>
<trkpt lat="25.005742" lon="105.021111">
<time>2016-10-06T22:14:09Z</time></trkpt>
<trkpt lat="25.005873" lon="105.020991">
<time>2016-10-06T22:14:10Z</time></trkpt>
<trkpt lat="25.006053" lon="105.020942">
<time>2016-10-06T22:14:11Z</time></trkpt>
<trkpt lat="25.006063" lon="105.020942">
<time>2016-10-06T22:14:12Z</time></trkpt>
<trkpt lat="25.006073" lon="105.020942">
<time>2016-10-06T22:14:13Z</time></trkpt>
<trkpt lat="25.006083" lon="105.020942">
<time>2016-10-06T22:14:14Z</time></trkpt>
<trkpt lat="25.006093" lon="105.020942">
<time>2016-10-06T22:14:15Z</time></trkpt>
<trkpt lat="25.006163" lon="105.020951">
<time>2016-10-06T22:14:16Z</time></trkpt>
<trkpt lat="25.006223" lon="105.020981">
<time>2016-10-06T22:14:17Z</time></trkpt>
<trkpt lat="25.006272" lon="105.021011">
<time>2016-10-06T22:14:18Z</time></trkpt>
<trkpt lat="25.006332" lon="105.021051">
<time>2016-10-06T22:14:19Z</time></trkpt>
<trkpt lat="25.006382" lon="105.021091">
<time>2016-10-06T22:14:20Z</time></trkpt>
<trkpt lat="25.006432" lon="105.021141">
<time>2016-10-06T22:14:21Z</time></trkpt>
<trkpt lat="25.006482" lon="105.0212">
<time>2016-10-06T22:14:22Z</time></trkpt>
<trkpt lat="25.006532" lon="105.02126">
<time>2016-10-06T22:14:23Z</time></trkpt>
<trkpt lat="25.006671" lon="105.021429">
<time>2016-10-06T22:14:24Z</time></trkpt>
<trkpt lat="25.006801" lon="105.021609">
<time>2016-10-06T22:14:25Z</time></trkpt>
<trkpt lat="25.00693" lon="105.021778">
<time>2016-10-06T22:14:26Z</time></trkpt>
<trkpt lat="25.00705" lon="105.021947">
<time>2016-10-06T22:14:27Z</time></trkpt>
<trkpt lat="25.007179" lon="105.022107">
<time>2016-10-06T22:14:28Z</time></trkpt>
<trkpt lat="25.007309" lon="105.022266">
<time>2016-10-06T22:14:29Z</time></trkpt>
<trkpt lat="25.007458" lon="105.022415">
<time>2016-10-06T22:14:30Z</time></trkpt>
<trkpt lat="25.007608" lon="105.022555">
<time>2016-10-06T22:14:31Z</time></trkpt>
<trkpt lat="25.007648" lon="105.022584">
<time>2016-10-06T22:14:32Z</time></trkpt>
<trkpt lat="25.007698" lon="105.022624">
<time>2016-10-06T22:14:33Z</time></trkpt>
<trkpt lat="25.007738" lon="105.022654">
<time>2016-10-06T22:14:34Z</time></trkpt>
<trkpt lat="25.007788" lon="105.022684">
<time>2016-10-06T22:14:35Z</time></trkpt>
<trkpt lat="25.007838" lon="105.022714">
<time>2016-10-06T22:14:36Z</time></trkpt>
<trkpt lat="25.007877" lon="105.022744">
<time>2016-10-06T22:14:37Z</time></trkpt>
<trkpt lat="25.007927" lon="105.022764">
<time>2016-10-06T22:14:38Z</time></trkpt>
<trkpt lat="25.007967" lon="105.022774">
<time>2016-10-06T22:14:39Z</time></trkpt>
<trkpt lat="25.007977" lon="105.022784">
<time>2016-10-06T22:14:40Z</time></trkpt>
<trkpt lat="25.008107" lon="105.022823">
<time>2016-10-06T22:14:41Z</time></trkpt>
<trkpt lat="25.008247" lon="105.022843">
<time>2016-10-06T22:14:42Z</time></trkpt>
<trkpt lat="25.008377" lon="105.022843">
<time>2016-10-06T22:14:43Z</time></trkpt>
<trkpt lat="25.008517" lon="105.022843">
<time>2016-10-06T22:14:44Z</time></trkpt>
<trkpt lat="25.008657" lon="105.022823">
<time>2016-10-06T22:14:45Z</time></trkpt>
<trkpt lat="25.008807" lon="105.022794">
<time>2016-10-06T22:14:46Z</time></trkpt>
<trkpt lat="25.008947" lon="105.022754">
<time>2016-10-06T22:14:47Z</time></trkpt>
<trkpt lat="25.009087" lon="105.022724">
<time>2016-10-06T22:14:48Z</time></trkpt>
<trkpt lat="25.009327" lon="105.022664">
<time>2016-10-06T22:14:49Z</time></trkpt>
<trkpt lat="25.009558" lon="105.022604">
<time>2016-10-06T22:14:50Z</time></trkpt>
<trkpt lat="25.009778" lon="105.022535">
<time>2016-10-06T22:14:51Z</time></trkpt>
<trkpt lat="25.009998" lon="105.022445">
<time>2016-10-06T22:14:52Z</time></trkpt>
<trkpt lat="25.010208" lon="105.022355">
<time>2016-10-06T22:14:53Z</time></trkpt>
<trkpt lat="25.010228" lon="105.022345">
<time>2016-10-06T22:14:54Z</time></trkpt>
<trkpt lat="25.010409" lon="105.022246">
<time>2016-10-06T22:14:55Z</time></trkpt>
<trkpt lat="25.010589" lon="105.022106">
<time>2016-10-06T22:14:56Z</time></trkpt>
<trkpt lat="25.010759" lon="105.021947">
<time>2016-10-06T22:14:57Z</time></trkpt>
<trkpt lat="25.010819" lon="105.021877">
<time>2016-10-06T22:14:58Z</time></trkpt>
<trkpt lat="25.01087" lon="105.021798">
<time>2016-10-06T22:14:59Z</time></trkpt>
<trkpt lat="25.0109" lon="105.021768">
<time>2016-10-06T22:15:00Z</time></trkpt>
<trkpt lat="25.011282" lon="105.020852">
<time>2016-10-06T22:15:01Z</time></trkpt>
<trkpt lat="25.011302" lon="105.020812">
<time>2016-10-06T22:15:02Z</time></trkpt>
<trkpt lat="25.011594" lon="105.020244">
<time>2016-10-06T22:15:03Z</time></trkpt>
<trkpt lat="25.011664" lon="105.020135">
<time>2016-10-06T22:15:04Z</time></trkpt>
<trkpt lat="25.011734" lon="105.020105">
<time>2016-10-06T22:15:05Z</time></trkpt>
<trkpt lat="25.011854" lon="105.020055">
<time>2016-10-06T22:15:06Z</time></trkpt>
<trkpt lat="25.011985" lon="105.020015">
<time>2016-10-06T22:15:07Z</time></trkpt>
<trkpt lat="25.012115" lon="105.019975">
<time>2016-10-06T22:15:08Z</time></trkpt>
<trkpt lat="25.012245" lon="105.019945">
<time>2016-10-06T22:15:09Z</time></trkpt>
<trkpt lat="25.012375" lon="105.019936">
<time>2016-10-06T22:15:10Z</time></trkpt>
<trkpt lat="25.012495" lon="105.019926">
<time>2016-10-06T22:15:11Z</time></trkpt>
<trkpt lat="25.012625" lon="105.019926">
<time>2016-10-06T22:15:12Z</time></trkpt>
<trkpt lat="25.012745" lon="105.019935">
<time>2016-10-06T22:15:13Z</time></trkpt>
<trkpt lat="25.012925" lon="105.019975">
<time>2016-10-06T22:15:14Z</time></trkpt>
<trkpt lat="25.013094" lon="105.020035">
<time>2016-10-06T22:15:15Z</time></trkpt>
<trkpt lat="25.013264" lon="105.020105">
<time>2016-10-06T22:15:16Z</time></trkpt>
<trkpt lat="25.013424" lon="105.020194">
<time>2016-10-06T22:15:17Z</time></trkpt>
<trkpt lat="25.013494" lon="105.020224">
<time>2016-10-06T22:15:18Z</time></trkpt>
<trkpt lat="25.013763" lon="105.020364">
<time>2016-10-06T22:15:19Z</time></trkpt>
<trkpt lat="25.013933" lon="105.020443">
<time>2016-10-06T22:15:20Z</time></trkpt>
<trkpt lat="25.014093" lon="105.020513">
<time>2016-10-06T22:15:21Z</time></trkpt>
<trkpt lat="25.014263" lon="105.020573">
<time>2016-10-06T22:15:22Z</time></trkpt>
<trkpt lat="25.014423" lon="105.020622">
<time>2016-10-06T22:15:23Z</time></trkpt>
<trkpt lat="25.014582" lon="105.020662">
<time>2016-10-06T22:15:24Z</time></trkpt>
<trkpt lat="25.014752" lon="105.020692">
<time>2016-10-06T22:15:25Z</time></trkpt>
<trkpt lat="25.014922" lon="105.020732">
<time>2016-10-06T22:15:26Z</time></trkpt>
<trkpt lat="25.015092" lon="105.020762">
<time>2016-10-06T22:15:27Z</time></trkpt>
<trkpt lat="25.015272" lon="105.020802">
<time>2016-10-06T22:15:28Z</time></trkpt>
<trkpt lat="25.015442" lon="105.020851">
<time>2016-10-06T22:15:29Z</time></trkpt>
<trkpt lat="25.015522" lon="105.020871">
<time>2016-10-06T22:15:30Z</time></trkpt>
<trkpt lat="25.015592" lon="105.020891">
<time>2016-10-06T22:15:31Z</time></trkpt>
<trkpt lat="25.015662" lon="105.020921">
<time>2016-10-06T22:15:32Z</time></trkpt>
<trkpt lat="25.015731" lon="105.020951">
<time>2016-10-06T22:15:33Z</time></trkpt>
<trkpt lat="25.015801" lon="105.020991">
<time>2016-10-06T22:15:34Z</time></trkpt>
<trkpt lat="25.015861" lon="105.021031">
<time>2016-10-06T22:15:35Z</time></trkpt>
<trkpt lat="25.015921" lon="105.021071">
<time>2016-10-06T22:15:36Z</time></trkpt>
<trkpt lat="25.015961" lon="105.02113">
<time>2016-10-06T22:15:37Z</time></trkpt>
<trkpt lat="25.016011" lon="105.0212">
<time>2016-10-06T22:15:38Z</time></trkpt>
<trkpt lat="25.016051" lon="105.02128">
<time>2016-10-06T22:15:39Z</time></trkpt>
<trkpt lat="25.01608" lon="105.021369">
<time>2016-10-06T22:15:40Z</time></trkpt>
<trkpt lat="25.0161" lon="105.021459">
<time>2016-10-06T22:15:41Z</time></trkpt>
<trkpt lat="25.01612" lon="105.021558">
<time>2016-10-06T22:15:42Z</time></trkpt>
<trkpt lat="25.016139" lon="105.021648">
<time>2016-10-06T22:15:43Z</time></trkpt>
<trkpt lat="25.016159" lon="105.021748">
<time>2016-10-06T22:15:44Z</time></trkpt>
<trkpt lat="25.016179" lon="105.021847">
<time>2016-10-06T22:15:45Z</time></trkpt>
<trkpt lat="25.016209" lon="105.021987">
<time>2016-10-06T22:15:46Z</time></trkpt>
<trkpt lat="25.016258" lon="105.022116">
<time>2016-10-06T22:15:47Z</time></trkpt>
<trkpt lat="25.016308" lon="105.022236">
<time>2016-10-06T22:15:48Z</time></trkpt>
<trkpt lat="25.016367" lon="105.022355">
<time>2016-10-06T22:15:49Z</time></trkpt>
<trkpt lat="25.016437" lon="105.022475">
<time>2016-10-06T22:15:50Z</time></trkpt>
<trkpt lat="25.016507" lon="105.022584">
<time>2016-10-06T22:15:51Z</time></trkpt>
<trkpt lat="25.016557" lon="105.022674">
<time>2016-10-06T22:15:52Z</time></trkpt>
<trkpt lat="25.016576" lon="105.022694">
<time>2016-10-06T22:15:53Z</time></trkpt>
<trkpt lat="25.016656" lon="105.022803">
<time>2016-10-06T22:15:54Z</time></trkpt>
<trkpt lat="25.016726" lon="105.022893">
<time>2016-10-06T22:15:55Z</time></trkpt>
<trkpt lat="25.016796" lon="105.022982">
<time>2016-10-06T22:15:56Z</time></trkpt>
<trkpt lat="25.016865" lon="105.023072">
<time>2016-10-06T22:15:57Z</time></trkpt>
<trkpt lat="25.016935" lon="105.023152">
<time>2016-10-06T22:15:58Z</time></trkpt>
<trkpt lat="25.017015" lon="105.023231">
<time>2016-10-06T22:15:59Z</time></trkpt>
<trkpt lat="25.017095" lon="105.023311">
<time>2016-10-06T22:16:00Z</time></trkpt>
<trkpt lat="25.017174" lon="105.023391">
<time>2016-10-06T22:16:01Z</time></trkpt>
<trkpt lat="25.017254" lon="105.02346">
<time>2016-10-06T22:16:02Z</time></trkpt>
<trkpt lat="25.017404" lon="105.02358">
<time>2016-10-06T22:16:03Z</time></trkpt>
<trkpt lat="25.017554" lon="105.023689">
<time>2016-10-06T22:16:04Z</time></trkpt>
<trkpt lat="25.017713" lon="105.023789">
<time>2016-10-06T22:16:05Z</time></trkpt>
<trkpt lat="25.017883" lon="105.023869">
<time>2016-10-06T22:16:06Z</time></trkpt>
<trkpt lat="25.018053" lon="105.023938">
<time>2016-10-06T22:16:07Z</time></trkpt>
<trkpt lat="25.018233" lon="105.024008">
<time>2016-10-06T22:16:08Z</time></trkpt>
<trkpt lat="25.018403" lon="105.024048">
<time>2016-10-06T22:16:09Z</time></trkpt>
<trkpt lat="25.018572" lon="105.024078">
<time>2016-10-06T22:16:10Z</time></trkpt>
<trkpt lat="25.018582" lon="105.024088">
<time>2016-10-06T22:16:11Z</time></trkpt>
<trkpt lat="25.018672" lon="105.024098">
<time>2016-10-06T22:16:12Z</time></trkpt>
<trkpt lat="25.018762" lon="105.024108">
<time>2016-10-06T22:16:13Z</time></trkpt>
<trkpt lat="25.018852" lon="105.024108">
<time>2016-10-06T22:16:14Z</time></trkpt>
<trkpt lat="25.018942" lon="105.024108">
<time>2016-10-06T22:16:15Z</time></trkpt>
<trkpt lat="25.019032" lon="105.024098">
<time>2016-10-06T22:16:16Z</time></trkpt>
<trkpt lat="25.019122" lon="105.024088">
<time>2016-10-06T22:16:17Z</time></trkpt>
<trkpt lat="25.019212" lon="105.024078">
<time>2016-10-06T22:16:18Z</time></trkpt>
<trkpt lat="25.019292" lon="105.024058">
<time>2016-10-06T22:16:19Z</time></trkpt>
<trkpt lat="25.019352" lon="105.024038">
<time>2016-10-06T22:16:20Z</time></trkpt>
<trkpt lat="25.019443" lon="105.024008">
<time>2016-10-06T22:16:21Z</time></trkpt>
<trkpt lat="25.019583" lon="105.023938">
<time>2016-10-06T22:16:22Z</time></trkpt>
<trkpt lat="25.019713" lon="105.023859">
<time>2016-10-06T22:16:23Z</time></trkpt>
<trkpt lat="25.019843" lon="105.023759">
<time>2016-10-06T22:16:24Z</time></trkpt>
<trkpt lat="25.019963" lon="105.023649">
<time>2016-10-06T22:16:25Z</time></trkpt>
<trkpt lat="25.020074" lon="105.02354">
<time>2016-10-06T22:16:26Z</time></trkpt>
<trkpt lat="25.020184" lon="105.02341">
<time>2016-10-06T22:16:27Z</time></trkpt>
<trkpt lat="25.020204" lon="105.023381">
<time>2016-10-06T22:16:28Z</time></trkpt>
<trkpt lat="25.020284" lon="105.023281">
<time>2016-10-06T22:16:29Z</time></trkpt>
<trkpt lat="25.020385" lon="105.023122">
<time>2016-10-06T22:16:30Z</time></trkpt>
<trkpt lat="25.020485" lon="105.022942">
<time>2016-10-06T22:16:31Z</time></trkpt>
<trkpt lat="25.020566" lon="105.022773">
<time>2016-10-06T22:16:32Z</time></trkpt>
<trkpt lat="25.020646" lon="105.022594">
<time>2016-10-06T22:16:33Z</time></trkpt>
<trkpt lat="25.020727" lon="105.022405">
<time>2016-10-06T22:16:34Z</time></trkpt>
<trkpt lat="25.020797" lon="105.022225">
<time>2016-10-06T22:16:35Z</time></trkpt>
<trkpt lat="25.020878" lon="105.022036">
<time>2016-10-06T22:16:36Z</time></trkpt>
<trkpt lat="25.020958" lon="105.021847">
<time>2016-10-06T22:16:37Z</time></trkpt>
<trkpt lat="25.020989" lon="105.021767">
<time>2016-10-06T22:16:38Z</time></trkpt>
<trkpt lat="25.021009" lon="105.021728">
<time>2016-10-06T22:16:39Z</time></trkpt>
<trkpt lat="25.021029" lon="105.021688">
<time>2016-10-06T22:16:40Z</time></trkpt>
<trkpt lat="25.021059" lon="105.021608">
<time>2016-10-06T22:16:41Z</time></trkpt>
<trkpt lat="25.021099" lon="105.021518">
<time>2016-10-06T22:16:42Z</time></trkpt>
<trkpt lat="25.021129" lon="105.021439">
<time>2016-10-06T22:16:43Z</time></trkpt>
<trkpt lat="25.02116" lon="105.021359">
<time>2016-10-06T22:16:44Z</time></trkpt>
<trkpt lat="25.02118" lon="105.021269">
<time>2016-10-06T22:16:45Z</time></trkpt>
<trkpt lat="25.0212" lon="105.02119">
<time>2016-10-06T22:16:46Z</time></trkpt>
<trkpt lat="25.021211" lon="105.02103">
<time>2016-10-06T22:16:47Z</time></trkpt>
<trkpt lat="25.021211" lon="105.020861">
<time>2016-10-06T22:16:48Z</time></trkpt>
<trkpt lat="25.021202" lon="105.020702">
<time>2016-10-06T22:16:49Z</time></trkpt>
<trkpt lat="25.021172" lon="105.020533">
<time>2016-10-06T22:16:50Z</time></trkpt>
<trkpt lat="25.021152" lon="105.020363">
<time>2016-10-06T22:16:51Z</time></trkpt>
<trkpt lat="25.021123" lon="105.020194">
<time>2016-10-06T22:16:52Z</time></trkpt>
<trkpt lat="25.021113" lon="105.020025">
<time>2016-10-06T22:16:53Z</time></trkpt>
<trkpt lat="25.021104" lon="105.019855">
<time>2016-10-06T22:16:54Z</time></trkpt>
<trkpt lat="25.021114" lon="105.019746">
<time>2016-10-06T22:16:55Z</time></trkpt>
<trkpt lat="25.021125" lon="105.019626">
<time>2016-10-06T22:16:56Z</time></trkpt>
<trkpt lat="25.021155" lon="105.019507">
<time>2016-10-06T22:16:57Z</time></trkpt>
<trkpt lat="25.021185" lon="105.019397">
<time>2016-10-06T22:16:58Z</time></trkpt>
<trkpt lat="25.021226" lon="105.019288">
<time>2016-10-06T22:16:59Z</time></trkpt>
<trkpt lat="25.021276" lon="105.019178">
<time>2016-10-06T22:17:00Z</time></trkpt>
<trkpt lat="25.021326" lon="105.019069">
<time>2016-10-06T22:17:01Z</time></trkpt>
<trkpt lat="25.021386" lon="105.018969">
<time>2016-10-06T22:17:02Z</time></trkpt>
<trkpt lat="25.021457" lon="105.01888">
<time>2016-10-06T22:17:03Z</time></trkpt>
<trkpt lat="25.021527" lon="105.01879">
<time>2016-10-06T22:17:04Z</time></trkpt>
<trkpt lat="25.021597" lon="105.0187">
<time>2016-10-06T22:17:05Z</time></trkpt>
<trkpt lat="25.021657" lon="105.018611">
<time>2016-10-06T22:17:06Z</time></trkpt>
<trkpt lat="25.021718" lon="105.018521">
<time>2016-10-06T22:17:07Z</time></trkpt>
<trkpt lat="25.021768" lon="105.018432">
<time>2016-10-06T22:17:08Z</time></trkpt>
<trkpt lat="25.021808" lon="105.018332">
<time>2016-10-06T22:17:09Z</time></trkpt>
<trkpt lat="25.021818" lon="105.018222">
<time>2016-10-06T22:17:10Z</time></trkpt>
<trkpt lat="25.021819" lon="105.018153">
<time>2016-10-06T22:17:11Z</time></trkpt>
<trkpt lat="25.021819" lon="105.018093">
<time>2016-10-06T22:17:12Z</time></trkpt>
<trkpt lat="25.021819" lon="105.018023">
<time>2016-10-06T22:17:13Z</time></trkpt>
<trkpt lat="25.021809" lon="105.017954">
<time>2016-10-06T22:17:14Z</time></trkpt>
<trkpt lat="25.021809" lon="105.017894">
<time>2016-10-06T22:17:15Z</time></trkpt>
<trkpt lat="25.0218" lon="105.017834">
<time>2016-10-06T22:17:16Z</time></trkpt>
<trkpt lat="25.02181" lon="105.017774">
<time>2016-10-06T22:17:17Z</time></trkpt>
<trkpt lat="25.02182" lon="105.017725">
<time>2016-10-06T22:17:18Z</time></trkpt>
<trkpt lat="25.02186" lon="105.017655">
<time>2016-10-06T22:17:19Z</time></trkpt>
<trkpt lat="25.02191" lon="105.017595">
<time>2016-10-06T22:17:20Z</time></trkpt>
<trkpt lat="25.02198" lon="105.017555">
<time>2016-10-06T22:17:21Z</time></trkpt>
<trkpt lat="25.02206" lon="105.017515">
<time>2016-10-06T22:17:22Z</time></trkpt>
<trkpt lat="25.022161" lon="105.017486">
<time>2016-10-06T22:17:23Z</time></trkpt>
<trkpt lat="25.022251" lon="105.017466">
<time>2016-10-06T22:17:24Z</time></trkpt>
<trkpt lat="25.022351" lon="105.017446">
<time>2016-10-06T22:17:25Z</time></trkpt>
<trkpt lat="25.022451" lon="105.017426">
<time>2016-10-06T22:17:26Z</time></trkpt>
<trkpt lat="25.022581" lon="105.017396">
<time>2016-10-06T22:17:27Z</time></trkpt>
<trkpt lat="25.022701" lon="105.017366">
<time>2016-10-06T22:17:28Z</time></trkpt>
<trkpt lat="25.022811" lon="105.017336">
<time>2016-10-06T22:17:29Z</time></trkpt>
<trkpt lat="25.023341" lon="105.017147">
<time>2016-10-06T22:17:30Z</time></trkpt>
<trkpt lat="25.023652" lon="105.016818">
<time>2016-10-06T22:17:31Z</time></trkpt>
<trkpt lat="25.023883" lon="105.01647">
<time>2016-10-06T22:17:32Z</time></trkpt>
<trkpt lat="25.024034" lon="105.016221">
<time>2016-10-06T22:17:33Z</time></trkpt>
<trkpt lat="25.024285" lon="105.015992">
<time>2016-10-06T22:17:34Z</time></trkpt>
<trkpt lat="25.024325" lon="105.015982">
<time>2016-10-06T22:17:35Z</time></trkpt>
<trkpt lat="25.024415" lon="105.015962">
<time>2016-10-06T22:17:36Z</time></trkpt>
<trkpt lat="25.024505" lon="105.015952">
<time>2016-10-06T22:17:37Z</time></trkpt>
<trkpt lat="25.024595" lon="105.015942">
<time>2016-10-06T22:17:38Z</time></trkpt>
<trkpt lat="25.024645" lon="105.015932">
<time>2016-10-06T22:17:39Z</time></trkpt>
<trkpt lat="25.025565" lon="105.015813">
<time>2016-10-06T22:17:40Z</time></trkpt>
<trkpt lat="25.025585" lon="105.015803">
<time>2016-10-06T22:17:41Z</time></trkpt>
<trkpt lat="25.025625" lon="105.015793">
<time>2016-10-06T22:17:42Z</time></trkpt>
<trkpt lat="25.025986" lon="105.015594">
<time>2016-10-06T22:17:43Z</time></trkpt>
<trkpt lat="25.026056" lon="105.015554">
<time>2016-10-06T22:17:44Z</time></trkpt>
<trkpt lat="25.026448" lon="105.014847">
<time>2016-10-06T22:17:45Z</time></trkpt>
<trkpt lat="25.026669" lon="105.014449">
<time>2016-10-06T22:17:46Z</time></trkpt>
<trkpt lat="25.02672" lon="105.01421">
<time>2016-10-06T22:17:47Z</time></trkpt>
<trkpt lat="25.026831" lon="105.013712">
<time>2016-10-06T22:17:48Z</time></trkpt>
<trkpt lat="25.026892" lon="105.013443">
<time>2016-10-06T22:17:49Z</time></trkpt>
<trkpt lat="25.026953" lon="105.013184">
<time>2016-10-06T22:17:50Z</time></trkpt>
<trkpt lat="25.027074" lon="105.012686">
<time>2016-10-06T22:17:51Z</time></trkpt>
<trkpt lat="25.027135" lon="105.012437">
<time>2016-10-06T22:17:52Z</time></trkpt>
<trkpt lat="25.027185" lon="105.012198">
<time>2016-10-06T22:17:53Z</time></trkpt>
<trkpt lat="25.027236" lon="105.01195">
<time>2016-10-06T22:17:54Z</time></trkpt>
<trkpt lat="25.027277" lon="105.011701">
<time>2016-10-06T22:17:55Z</time></trkpt>
<trkpt lat="25.027318" lon="105.011412">
<time>2016-10-06T22:17:56Z</time></trkpt>
<trkpt lat="25.027349" lon="105.011123">
<time>2016-10-06T22:17:57Z</time></trkpt>
<trkpt lat="25.027369" lon="105.010824">
<time>2016-10-06T22:17:58Z</time></trkpt>
<trkpt lat="25.02739" lon="105.010526">
<time>2016-10-06T22:17:59Z</time></trkpt>
<trkpt lat="25.027411" lon="105.010227">
<time>2016-10-06T22:18:00Z</time></trkpt>
<trkpt lat="25.027432" lon="105.009918">
<time>2016-10-06T22:18:01Z</time></trkpt>
<trkpt lat="25.027473" lon="105.00961">
<time>2016-10-06T22:18:02Z</time></trkpt>
<trkpt lat="25.027514" lon="105.009311">
<time>2016-10-06T22:18:03Z</time></trkpt>
<trkpt lat="25.027544" lon="105.009172">
<time>2016-10-06T22:18:04Z</time></trkpt>
<trkpt lat="25.027575" lon="105.009032">
<time>2016-10-06T22:18:05Z</time></trkpt>
<trkpt lat="25.027605" lon="105.008903">
<time>2016-10-06T22:18:06Z</time></trkpt>
<trkpt lat="25.027646" lon="105.008774">
<time>2016-10-06T22:18:07Z</time></trkpt>
<trkpt lat="25.027696" lon="105.008644">
<time>2016-10-06T22:18:08Z</time></trkpt>
<trkpt lat="25.027746" lon="105.008525">
<time>2016-10-06T22:18:09Z</time></trkpt>
<trkpt lat="25.027807" lon="105.008415">
<time>2016-10-06T22:18:10Z</time></trkpt>
<trkpt lat="25.027877" lon="105.008316">
<time>2016-10-06T22:18:11Z</time></trkpt>
<trkpt lat="25.027957" lon="105.008216">
<time>2016-10-06T22:18:12Z</time></trkpt>
<trkpt lat="25.028047" lon="105.008126">
<time>2016-10-06T22:18:13Z</time></trkpt>
<trkpt lat="25.028148" lon="105.008047">
<time>2016-10-06T22:18:14Z</time></trkpt>
<trkpt lat="25.028248" lon="105.007977">
<time>2016-10-06T22:18:15Z</time></trkpt>
<trkpt lat="25.028358" lon="105.007907">
<time>2016-10-06T22:18:16Z</time></trkpt>
<trkpt lat="25.028478" lon="105.007848">
<time>2016-10-06T22:18:17Z</time></trkpt>
<trkpt lat="25.028598" lon="105.007788">
<time>2016-10-06T22:18:18Z</time></trkpt>
<trkpt lat="25.028719" lon="105.007728">
<time>2016-10-06T22:18:19Z</time></trkpt>
<trkpt lat="25.028919" lon="105.007629">
<time>2016-10-06T22:18:20Z</time></trkpt>
<trkpt lat="25.029119" lon="105.007529">
<time>2016-10-06T22:18:21Z</time></trkpt>
<trkpt lat="25.029319" lon="105.007429">
<time>2016-10-06T22:18:22Z</time></trkpt>
<trkpt lat="25.0295" lon="105.00732">
<time>2016-10-06T22:18:23Z</time></trkpt>
<trkpt lat="25.02967" lon="105.0072">
<time>2016-10-06T22:18:24Z</time></trkpt>
<trkpt lat="25.02982" lon="105.007061">
<time>2016-10-06T22:18:25Z</time></trkpt>
<trkpt lat="25.029941" lon="105.006902">
<time>2016-10-06T22:18:26Z</time></trkpt>
<trkpt lat="25.030031" lon="105.006733">
<time>2016-10-06T22:18:27Z</time></trkpt>
<trkpt lat="25.030072" lon="105.006613">
<time>2016-10-06T22:18:28Z</time></trkpt>
<trkpt lat="25.030102" lon="105.006484">
<time>2016-10-06T22:18:29Z</time></trkpt>
<trkpt lat="25.030123" lon="105.006354">
<time>2016-10-06T22:18:30Z</time></trkpt>
<trkpt lat="25.030133" lon="105.006215">
<time>2016-10-06T22:18:31Z</time></trkpt>
<trkpt lat="25.030154" lon="105.005936">
<time>2016-10-06T22:18:32Z</time></trkpt>
<trkpt lat="25.030174" lon="105.005797">
<time>2016-10-06T22:18:33Z</time></trkpt>
<trkpt lat="25.030195" lon="105.005647">
<time>2016-10-06T22:18:34Z</time></trkpt>
<trkpt lat="25.030225" lon="105.005498">
<time>2016-10-06T22:18:35Z</time></trkpt>
<trkpt lat="25.030256" lon="105.005349">
<time>2016-10-06T22:18:36Z</time></trkpt>
<trkpt lat="25.030296" lon="105.005209">
<time>2016-10-06T22:18:37Z</time></trkpt>
<trkpt lat="25.030316" lon="105.00514">
<time>2016-10-06T22:18:38Z</time></trkpt>
<trkpt lat="25.030336" lon="105.00506">
<time>2016-10-06T22:18:39Z</time></trkpt>
<trkpt lat="25.030367" lon="105.004921">
<time>2016-10-06T22:18:40Z</time></trkpt>
<trkpt lat="25.030397" lon="105.004771">
<time>2016-10-06T22:18:41Z</time></trkpt>
<trkpt lat="25.030408" lon="105.004632">
<time>2016-10-06T22:18:42Z</time></trkpt>
<trkpt lat="25.030398" lon="105.004493">
<time>2016-10-06T22:18:43Z</time></trkpt>
<trkpt lat="25.030378" lon="105.004413">
<time>2016-10-06T22:18:44Z</time></trkpt>
<trkpt lat="25.030359" lon="105.004323">
<time>2016-10-06T22:18:45Z</time></trkpt>
<trkpt lat="25.030329" lon="105.004234">
<time>2016-10-06T22:18:46Z</time></trkpt>
<trkpt lat="25.030289" lon="105.004144">
<time>2016-10-06T22:18:47Z</time></trkpt>
<trkpt lat="25.030249" lon="105.004064">
<time>2016-10-06T22:18:48Z</time></trkpt>
<trkpt lat="25.03021" lon="105.003975">
<time>2016-10-06T22:18:49Z</time></trkpt>
<trkpt lat="25.03017" lon="105.003895">
<time>2016-10-06T22:18:50Z</time></trkpt>
<trkpt lat="25.03012" lon="105.003816">
<time>2016-10-06T22:18:51Z</time></trkpt>
<trkpt lat="25.030041" lon="105.003656">
<time>2016-10-06T22:18:52Z</time></trkpt>
<trkpt lat="25.029971" lon="105.003507">
<time>2016-10-06T22:18:53Z</time></trkpt>
<trkpt lat="25.029902" lon="105.003358">
<time>2016-10-06T22:18:54Z</time></trkpt>
<trkpt lat="25.029832" lon="105.003208">
<time>2016-10-06T22:18:55Z</time></trkpt>
<trkpt lat="25.029773" lon="105.003049">
<time>2016-10-06T22:18:56Z</time></trkpt>
<trkpt lat="25.029723" lon="105.00288">
<time>2016-10-06T22:18:57Z</time></trkpt>
<trkpt lat="25.029684" lon="105.002711">
<time>2016-10-06T22:18:58Z</time></trkpt>
<trkpt lat="25.029644" lon="105.002531">
<time>2016-10-06T22:18:59Z</time></trkpt>
<trkpt lat="25.029625" lon="105.002362">
<time>2016-10-06T22:19:00Z</time></trkpt>
<trkpt lat="25.029615" lon="105.002193">
<time>2016-10-06T22:19:01Z</time></trkpt>
<trkpt lat="25.029616" lon="105.002024">
<time>2016-10-06T22:19:02Z</time></trkpt>
<trkpt lat="25.029636" lon="105.001854">
<time>2016-10-06T22:19:03Z</time></trkpt>
<trkpt lat="25.029667" lon="105.001705">
<time>2016-10-06T22:19:04Z</time></trkpt>
<trkpt lat="25.029717" lon="105.001556">
<time>2016-10-06T22:19:05Z</time></trkpt>
<trkpt lat="25.029778" lon="105.001436">
<time>2016-10-06T22:19:06Z</time></trkpt>
<trkpt lat="25.029868" lon="105.001337">
<time>2016-10-06T22:19:07Z</time></trkpt>
<trkpt lat="25.029948" lon="105.001277">
<time>2016-10-06T22:19:08Z</time></trkpt>
<trkpt lat="25.030048" lon="105.001227">
<time>2016-10-06T22:19:09Z</time></trkpt>
<trkpt lat="25.030148" lon="105.001197">
<time>2016-10-06T22:19:10Z</time></trkpt>
<trkpt lat="25.030258" lon="105.001167">
<time>2016-10-06T22:19:11Z</time></trkpt>
<trkpt lat="25.030378" lon="105.001148">
<time>2016-10-06T22:19:12Z</time></trkpt>
<trkpt lat="25.030498" lon="105.001118">
<time>2016-10-06T22:19:13Z</time></trkpt>
<trkpt lat="25.030609" lon="105.001088">
<time>2016-10-06T22:19:14Z</time></trkpt>
<trkpt lat="25.030729" lon="105.001048">
<time>2016-10-06T22:19:15Z</time></trkpt>
<trkpt lat="25.030809" lon="105.001018">
<time>2016-10-06T22:19:16Z</time></trkpt>
<trkpt lat="25.030879" lon="105.000978">
<time>2016-10-06T22:19:17Z</time></trkpt>
<trkpt lat="25.030959" lon="105.000928">
<time>2016-10-06T22:19:18Z</time></trkpt>
<trkpt lat="25.031029" lon="105.000869">
<time>2016-10-06T22:19:19Z</time></trkpt>
<trkpt lat="25.031089" lon="105.000819">
<time>2016-10-06T22:19:20Z</time></trkpt>
<trkpt lat="25.031159" lon="105.000749">
<time>2016-10-06T22:19:21Z</time></trkpt>
<trkpt lat="25.03121" lon="105.00069">
<time>2016-10-06T22:19:22Z</time></trkpt>
<trkpt lat="25.03127" lon="105.00062">
<time>2016-10-06T22:19:23Z</time></trkpt>
<trkpt lat="25.03134" lon="105.00051">
<time>2016-10-06T22:19:24Z</time></trkpt>
<trkpt lat="25.031391" lon="105.000401">
<time>2016-10-06T22:19:25Z</time></trkpt>
<trkpt lat="25.031441" lon="105.000281">
<time>2016-10-06T22:19:26Z</time></trkpt>
<trkpt lat="25.031441" lon="105.000271">
<time>2016-10-06T22:19:27Z</time></trkpt>
<trkpt lat="25.031562" lon="104.999993">
<time>2016-10-06T22:19:28Z</time></trkpt>
<trkpt lat="25.031683" lon="104.999724">
<time>2016-10-06T22:19:29Z</time></trkpt>
<trkpt lat="25.031884" lon="104.999216">
<time>2016-10-06T22:19:30Z</time></trkpt>
<trkpt lat="25.031965" lon="104.998808">
<time>2016-10-06T22:19:31Z</time></trkpt>
<trkpt lat="25.032176" lon="104.998549">
<time>2016-10-06T22:19:32Z</time></trkpt>
<trkpt lat="25.032297" lon="104.99838">
<time>2016-10-06T22:19:33Z</time></trkpt>
<trkpt lat="25.032658" lon="104.997952">
<time>2016-10-06T22:19:34Z</time></trkpt>
<trkpt lat="25.03335" lon="104.997295">
<time>2016-10-06T22:19:35Z</time></trkpt>
<trkpt lat="25.034031" lon="104.996807">
<time>2016-10-06T22:19:36Z</time></trkpt>
<trkpt lat="25.034362" lon="104.996687">
<time>2016-10-06T22:19:37Z</time></trkpt>
<trkpt lat="25.034962" lon="104.996379">
<time>2016-10-06T22:19:38Z</time></trkpt>
<trkpt lat="25.035293" lon="104.99609">
<time>2016-10-06T22:19:39Z</time></trkpt>
<trkpt lat="25.035514" lon="104.995881">
<time>2016-10-06T22:19:40Z</time></trkpt>
<trkpt lat="25.036174" lon="104.995752">
<time>2016-10-06T22:19:41Z</time></trkpt>
<trkpt lat="25.036904" lon="104.995742">
<time>2016-10-06T22:19:42Z</time></trkpt>
<trkpt lat="25.037264" lon="104.995811">
<time>2016-10-06T22:19:43Z</time></trkpt>
<trkpt lat="25.038142" lon="104.996239">
<time>2016-10-06T22:19:44Z</time></trkpt>
<trkpt lat="25.038382" lon="104.996478">
<time>2016-10-06T22:19:45Z</time></trkpt>
<trkpt lat="25.038491" lon="104.996568">
<time>2016-10-06T22:19:46Z</time></trkpt>
<trkpt lat="25.038621" lon="104.996588">
<time>2016-10-06T22:19:47Z</time></trkpt>
<trkpt lat="25.038671" lon="104.996548">
<time>2016-10-06T22:19:48Z</time></trkpt>
<trkpt lat="25.038672" lon="104.996468">
<time>2016-10-06T22:19:49Z</time></trkpt>
<trkpt lat="25.038402" lon="104.996219">
<time>2016-10-06T22:19:50Z</time></trkpt>
<trkpt lat="25.038223" lon="104.99605">
<time>2016-10-06T22:19:51Z</time></trkpt>
<trkpt lat="25.038073" lon="104.995931">
<time>2016-10-06T22:19:52Z</time></trkpt>
<trkpt lat="25.037994" lon="104.995811">
<time>2016-10-06T22:19:53Z</time></trkpt>
<trkpt lat="25.037974" lon="104.995602">
<time>2016-10-06T22:19:54Z</time></trkpt>
<trkpt lat="25.037995" lon="104.995443">
<time>2016-10-06T22:19:55Z</time></trkpt>
<trkpt lat="25.038065" lon="104.995234">
<time>2016-10-06T22:19:56Z</time></trkpt>
<trkpt lat="25.038457" lon="104.994756">
<time>2016-10-06T22:19:57Z</time></trkpt>
<trkpt lat="25.038788" lon="104.994537">
<time>2016-10-06T22:19:58Z</time></trkpt>
<trkpt lat="25.038948" lon="104.994398">
<time>2016-10-06T22:19:59Z</time></trkpt>
<trkpt lat="25.038958" lon="104.994398">
<time>2016-10-06T22:20:00Z</time></trkpt>
<trkpt lat="25.038958" lon="104.994398">
<time>2016-10-06T22:20:01Z</time></trkpt>
<trkpt lat="25.039099" lon="104.994019">
<time>2016-10-06T22:20:02Z</time></trkpt>
<trkpt lat="25.03917" lon="104.993551">
<time>2016-10-06T22:20:03Z</time></trkpt>
<trkpt lat="25.039181" lon="104.993362">
<time>2016-10-06T22:20:04Z</time></trkpt>
<trkpt lat="25.039162" lon="104.993163">
<time>2016-10-06T22:20:05Z</time></trkpt>
<trkpt lat="25.039003" lon="104.992625">
<time>2016-10-06T22:20:06Z</time></trkpt>
<trkpt lat="25.038725" lon="104.991998">
<time>2016-10-06T22:20:07Z</time></trkpt>
<trkpt lat="25.038626" lon="104.99169">
<time>2016-10-06T22:20:08Z</time></trkpt>
<trkpt lat="25.038557" lon="104.991351">
<time>2016-10-06T22:20:09Z</time></trkpt>
<trkpt lat="25.038538" lon="104.991182">
<time>2016-10-06T22:20:10Z</time></trkpt>
<trkpt lat="25.038538" lon="104.991003">
<time>2016-10-06T22:20:11Z</time></trkpt>
<trkpt lat="25.038609" lon="104.990834">
<time>2016-10-06T22:20:12Z</time></trkpt>
<trkpt lat="25.038739" lon="104.990704">
<time>2016-10-06T22:20:13Z</time></trkpt>
<trkpt lat="25.038889" lon="104.990614">
<time>2016-10-06T22:20:14Z</time></trkpt>
<trkpt lat="25.03923" lon="104.990525">
<time>2016-10-06T22:20:15Z</time></trkpt>
<trkpt lat="25.039699" lon="104.990614">
<time>2016-10-06T22:20:16Z</time></trkpt>
<trkpt lat="25.040019" lon="104.990714">
<time>2016-10-06T22:20:17Z</time></trkpt>
<trkpt lat="25.040547" lon="104.991192">
<time>2016-10-06T22:20:18Z</time></trkpt>
<trkpt lat="25.040996" lon="104.9917">
<time>2016-10-06T22:20:19Z</time></trkpt>
<trkpt lat="25.041444" lon="104.992207">
<time>2016-10-06T22:20:20Z</time></trkpt>
<trkpt lat="25.041883" lon="104.992705">
<time>2016-10-06T22:20:21Z</time></trkpt>
<trkpt lat="25.042351" lon="104.993332">
<time>2016-10-06T22:20:22Z</time></trkpt>
<trkpt lat="25.04261" lon="104.993601">
<time>2016-10-06T22:20:23Z</time></trkpt>
<trkpt lat="25.043119" lon="104.99389">
<time>2016-10-06T22:20:24Z</time></trkpt>
<trkpt lat="25.043548" lon="104.994069">
<time>2016-10-06T22:20:25Z</time></trkpt>
<trkpt lat="25.043978" lon="104.994248">
<time>2016-10-06T22:20:26Z</time></trkpt>
<trkpt lat="25.044606" lon="104.994706">
<time>2016-10-06T22:20:27Z</time></trkpt>
<trkpt lat="25.044866" lon="104.994875">
<time>2016-10-06T22:20:28Z</time></trkpt>
<trkpt lat="25.045354" lon="104.995343">
<time>2016-10-06T22:20:29Z</time></trkpt>
<trkpt lat="25.045843" lon="104.995811">
<time>2016-10-06T22:20:30Z</time></trkpt>
<trkpt lat="25.046152" lon="104.99602">
<time>2016-10-06T22:20:31Z</time></trkpt>
<trkpt lat="25.046512" lon="104.996179">
<time>2016-10-06T22:20:32Z</time></trkpt>
<trkpt lat="25.046512" lon="104.996179">
<time>2016-10-06T22:20:33Z</time></trkpt>
<trkpt lat="25.046512" lon="104.996149">
<time>2016-10-06T22:20:34Z</time></trkpt>
<trkpt lat="25.046562" lon="104.99609">
<time>2016-10-06T22:20:35Z</time></trkpt>
<trkpt lat="25.046612" lon="104.99609">
<time>2016-10-06T22:20:36Z</time></trkpt>
<trkpt lat="25.046692" lon="104.996129">
<time>2016-10-06T22:20:37Z</time></trkpt>
<trkpt lat="25.046762" lon="104.996199">
<time>2016-10-06T22:20:38Z</time></trkpt>
<trkpt lat="25.047081" lon="104.996368">
<time>2016-10-06T22:20:39Z</time></trkpt>
<trkpt lat="25.047541" lon="104.996518">
<time>2016-10-06T22:20:40Z</time></trkpt>
<trkpt lat="25.04771" lon="104.996538">
<time>2016-10-06T22:20:41Z</time></trkpt>
<trkpt lat="25.04818" lon="104.996607">
<time>2016-10-06T22:20:42Z</time></trkpt>
<trkpt lat="25.04859" lon="104.996607">
<time>2016-10-06T22:20:43Z</time></trkpt>
<trkpt lat="25.04899" lon="104.996687">
<time>2016-10-06T22:20:44Z</time></trkpt>
<trkpt lat="25.049749" lon="104.996946">
<time>2016-10-06T22:20:45Z</time></trkpt>
<trkpt lat="25.050039" lon="104.997075">
<time>2016-10-06T22:20:46Z</time></trkpt>
<trkpt lat="25.050218" lon="104.997294">
<time>2016-10-06T22:20:47Z</time></trkpt>
<trkpt lat="25.050427" lon="104.997443">
<time>2016-10-06T22:20:48Z</time></trkpt>
<trkpt lat="25.050767" lon="104.997702">
<time>2016-10-06T22:20:49Z</time></trkpt>
<trkpt lat="25.051216" lon="104.997971">
<time>2016-10-06T22:20:50Z</time></trkpt>
<trkpt lat="25.051585" lon="104.9982">
<time>2016-10-06T22:20:51Z</time></trkpt>
<trkpt lat="25.052162" lon="104.999066">
<time>2016-10-06T22:20:52Z</time></trkpt>
<trkpt lat="25.052511" lon="104.999394">
<time>2016-10-06T22:20:53Z</time></trkpt>
<trkpt lat="25.052761" lon="104.999434">
<time>2016-10-06T22:20:54Z</time></trkpt>
<trkpt lat="25.052931" lon="104.999295">
<time>2016-10-06T22:20:55Z</time></trkpt>
<trkpt lat="25.053042" lon="104.999175">
<time>2016-10-06T22:20:56Z</time></trkpt>
<trkpt lat="25.053172" lon="104.998986">
<time>2016-10-06T22:20:57Z</time></trkpt>
<trkpt lat="25.053114" lon="104.998479">
<time>2016-10-06T22:20:58Z</time></trkpt>
<trkpt lat="25.053114" lon="104.998469">
<time>2016-10-06T22:20:59Z</time></trkpt>
<trkpt lat="25.052845" lon="104.99814">
<time>2016-10-06T22:21:00Z</time></trkpt>
<trkpt lat="25.052546" lon="104.997931">
<time>2016-10-06T22:21:01Z</time></trkpt>
<trkpt lat="25.051797" lon="104.997483">
<time>2016-10-06T22:21:02Z</time></trkpt>
<trkpt lat="25.051198" lon="104.997145">
<time>2016-10-06T22:21:03Z</time></trkpt>
<trkpt lat="25.051019" lon="104.996946">
<time>2016-10-06T22:21:04Z</time></trkpt>
<trkpt lat="25.050919" lon="104.996756">
<time>2016-10-06T22:21:05Z</time></trkpt>
<trkpt lat="25.05081" lon="104.996557">
<time>2016-10-06T22:21:06Z</time></trkpt>
<trkpt lat="25.05073" lon="104.996428">
<time>2016-10-06T22:21:07Z</time></trkpt>
<trkpt lat="25.050611" lon="104.996328">
<time>2016-10-06T22:21:08Z</time></trkpt>
<trkpt lat="25.050431" lon="104.996259">
<time>2016-10-06T22:21:09Z</time></trkpt>
<trkpt lat="25.049692" lon="104.99604">
<time>2016-10-06T22:21:10Z</time></trkpt>
<trkpt lat="25.048104" lon="104.995373">
<time>2016-10-06T22:21:11Z</time></trkpt>
<trkpt lat="25.047635" lon="104.995184">
<time>2016-10-06T22:21:12Z</time></trkpt>
<trkpt lat="25.047575" lon="104.995154">
<time>2016-10-06T22:21:13Z</time></trkpt>
<trkpt lat="25.047135" lon="104.995044">
<time>2016-10-06T22:21:14Z</time></trkpt>
<trkpt lat="25.046855" lon="104.995024">
<time>2016-10-06T22:21:15Z</time></trkpt>
<trkpt lat="25.046665" lon="104.994995">
<time>2016-10-06T22:21:16Z</time></trkpt>
<trkpt lat="25.046106" lon="104.994835">
<time>2016-10-06T22:21:17Z</time></trkpt>
<trkpt lat="25.045746" lon="104.994616">
<time>2016-10-06T22:21:18Z</time></trkpt>
<trkpt lat="25.045737" lon="104.994596">
<time>2016-10-06T22:21:19Z</time></trkpt>
<trkpt lat="25.045717" lon="104.994407">
<time>2016-10-06T22:21:20Z</time></trkpt>
<trkpt lat="25.045767" lon="104.994347">
<time>2016-10-06T22:21:21Z</time></trkpt>
<trkpt lat="25.045847" lon="104.994298">
<time>2016-10-06T22:21:22Z</time></trkpt>
<trkpt lat="25.045917" lon="104.994288">
<time>2016-10-06T22:21:23Z</time></trkpt>
<trkpt lat="25.046017" lon="104.994288">
<time>2016-10-06T22:21:24Z</time></trkpt>
<trkpt lat="25.046137" lon="104.994298">
<time>2016-10-06T22:21:25Z</time></trkpt>
<trkpt lat="25.046277" lon="104.994337">
<time>2016-10-06T22:21:26Z</time></trkpt>
<trkpt lat="25.046957" lon="104.994527">
<time>2016-10-06T22:21:27Z</time></trkpt>
<trkpt lat="25.047226" lon="104.994586">
<time>2016-10-06T22:21:28Z</time></trkpt>
<trkpt lat="25.047486" lon="104.994676">
<time>2016-10-06T22:21:29Z</time></trkpt>
<trkpt lat="25.047676" lon="104.994716">
<time>2016-10-06T22:21:30Z</time></trkpt>
<trkpt lat="25.048046" lon="104.994815">
<time>2016-10-06T22:21:31Z</time></trkpt>
<trkpt lat="25.048305" lon="104.994865">
<time>2016-10-06T22:21:32Z</time></trkpt>
<trkpt lat="25.048436" lon="104.994815">
<time>2016-10-06T22:21:33Z</time></trkpt>
<trkpt lat="25.048576" lon="104.994736">
<time>2016-10-06T22:21:34Z</time></trkpt>
<trkpt lat="25.048726" lon="104.994676">
<time>2016-10-06T22:21:35Z</time></trkpt>
<trkpt lat="25.049006" lon="104.994676">
<time>2016-10-06T22:21:36Z</time></trkpt>
<trkpt lat="25.049186" lon="104.994736">
<time>2016-10-06T22:21:37Z</time></trkpt>
<trkpt lat="25.049475" lon="104.994965">
<time>2016-10-06T22:21:38Z</time></trkpt>
<trkpt lat="25.049655" lon="104.995044">
<time>2016-10-06T22:21:39Z</time></trkpt>
<trkpt lat="25.049685" lon="104.994994">
<time>2016-10-06T22:21:40Z</time></trkpt>
<trkpt lat="25.049685" lon="104.994875">
<time>2016-10-06T22:21:41Z</time></trkpt>
<trkpt lat="25.049635" lon="104.994795">
<time>2016-10-06T22:21:42Z</time></trkpt>
<trkpt lat="25.049576" lon="104.994736">
<time>2016-10-06T22:21:43Z</time></trkpt>
<trkpt lat="25.049436" lon="104.994616">
<time>2016-10-06T22:21:44Z</time></trkpt>
<trkpt lat="25.049107" lon="104.994347">
<time>2016-10-06T22:21:45Z</time></trkpt>
<trkpt lat="25.048867" lon="104.994238">
<time>2016-10-06T22:21:46Z</time></trkpt>
<trkpt lat="25.048637" lon="104.994198">
<time>2016-10-06T22:21:47Z</time></trkpt>
<trkpt lat="25.048447" lon="104.994188">
<time>2016-10-06T22:21:48Z</time></trkpt>
<trkpt lat="25.048368" lon="104.994168">
<time>2016-10-06T22:21:49Z</time></trkpt>
<trkpt lat="25.048308" lon="104.994178">
<time>2016-10-06T22:21:50Z</time></trkpt>
<trkpt lat="25.048238" lon="104.994178">
<time>2016-10-06T22:21:51Z</time></trkpt>
<trkpt lat="25.048178" lon="104.994158">
<time>2016-10-06T22:21:52Z</time></trkpt>
<trkpt lat="25.048148" lon="104.994148">
<time>2016-10-06T22:21:53Z</time></trkpt>
<trkpt lat="25.047968" lon="104.994059">
<time>2016-10-06T22:21:54Z</time></trkpt>
<trkpt lat="25.047858" lon="104.993949">
<time>2016-10-06T22:21:55Z</time></trkpt>
<trkpt lat="25.04747" lon="104.993521">
<time>2016-10-06T22:21:56Z</time></trkpt>
<trkpt lat="25.047141" lon="104.993213">
<time>2016-10-06T22:21:57Z</time></trkpt>
<trkpt lat="25.046492" lon="104.992904">
<time>2016-10-06T22:21:58Z</time></trkpt>
<trkpt lat="25.046412" lon="104.992834">
<time>2016-10-06T22:21:59Z</time></trkpt>
<trkpt lat="25.046362" lon="104.992775">
<time>2016-10-06T22:22:00Z</time></trkpt>
<trkpt lat="25.046342" lon="104.992675">
<time>2016-10-06T22:22:01Z</time></trkpt>
<trkpt lat="25.046342" lon="104.992615">
<time>2016-10-06T22:22:02Z</time></trkpt>
<trkpt lat="25.046373" lon="104.992565">
<time>2016-10-06T22:22:03Z</time></trkpt>
<trkpt lat="25.046423" lon="104.992546">
<time>2016-10-06T22:22:04Z</time></trkpt>
<trkpt lat="25.046523" lon="104.992516">
<time>2016-10-06T22:22:05Z</time></trkpt>
<trkpt lat="25.046933" lon="104.992456">
<time>2016-10-06T22:22:06Z</time></trkpt>
<trkpt lat="25.047313" lon="104.992446">
<time>2016-10-06T22:22:07Z</time></trkpt>
<trkpt lat="25.047453" lon="104.992456">
<time>2016-10-06T22:22:08Z</time></trkpt>
<trkpt lat="25.047533" lon="104.992466">
<time>2016-10-06T22:22:09Z</time></trkpt>
<trkpt lat="25.047892" lon="104.992615">
<time>2016-10-06T22:22:10Z</time></trkpt>
<trkpt lat="25.047902" lon="104.992625">
<time>2016-10-06T22:22:11Z</time></trkpt>
<trkpt lat="25.047992" lon="104.992655">
<time>2016-10-06T22:22:12Z</time></trkpt>
<trkpt lat="25.048072" lon="104.992645">
<time>2016-10-06T22:22:13Z</time></trkpt>
<trkpt lat="25.048122" lon="104.992625">
<time>2016-10-06T22:22:14Z</time></trkpt>
<trkpt lat="25.048152" lon="104.992605">
<time>2016-10-06T22:22:15Z</time></trkpt>
<trkpt lat="25.048162" lon="104.992555">
<time>2016-10-06T22:22:16Z</time></trkpt>
<trkpt lat="25.048173" lon="104.992486">
<time>2016-10-06T22:22:17Z</time></trkpt>
<trkpt lat="25.048173" lon="104.992446">
<time>2016-10-06T22:22:18Z</time></trkpt>
<trkpt lat="25.048173" lon="104.992416">
<time>2016-10-06T22:22:19Z</time></trkpt>
<trkpt lat="25.048143" lon="104.992356">
<time>2016-10-06T22:22:20Z</time></trkpt>
<trkpt lat="25.048083" lon="104.992287">
<time>2016-10-06T22:22:21Z</time></trkpt>
<trkpt lat="25.047744" lon="104.992137">
<time>2016-10-06T22:22:22Z</time></trkpt>
<trkpt lat="25.047724" lon="104.992137">
<time>2016-10-06T22:22:23Z</time></trkpt>
<trkpt lat="25.047125" lon="104.991908">
<time>2016-10-06T22:22:24Z</time></trkpt>
<trkpt lat="25.046535" lon="104.991709">
<time>2016-10-06T22:22:25Z</time></trkpt>
<trkpt lat="25.045946" lon="104.99153">
<time>2016-10-06T22:22:26Z</time></trkpt>
<trkpt lat="25.045836" lon="104.991431">
<time>2016-10-06T22:22:27Z</time></trkpt>
<trkpt lat="25.045787" lon="104.991291">
<time>2016-10-06T22:22:28Z</time></trkpt>
<trkpt lat="25.045807" lon="104.991012">
<time>2016-10-06T22:22:29Z</time></trkpt>
<trkpt lat="25.046122" lon="104.989609">
<time>2016-10-06T22:22:30Z</time></trkpt>
<trkpt lat="25.046203" lon="104.989151">
<time>2016-10-06T22:22:31Z</time></trkpt>
<trkpt lat="25.046213" lon="104.988972">
<time>2016-10-06T22:22:32Z</time></trkpt>
<trkpt lat="25.046174" lon="104.988812">
<time>2016-10-06T22:22:33Z</time></trkpt>
<trkpt lat="25.046084" lon="104.988663">
<time>2016-10-06T22:22:34Z</time></trkpt>
<trkpt lat="25.045586" lon="104.988275">
<time>2016-10-06T22:22:35Z</time></trkpt>
<trkpt lat="25.045107" lon="104.987876">
<time>2016-10-06T22:22:36Z</time></trkpt>
<trkpt lat="25.044638" lon="104.987488">
<time>2016-10-06T22:22:37Z</time></trkpt>
<trkpt lat="25.044359" lon="104.987289">
<time>2016-10-06T22:22:38Z</time></trkpt>
<trkpt lat="25.04391" lon="104.986801">
<time>2016-10-06T22:22:39Z</time></trkpt>
<trkpt lat="25.043621" lon="104.986413">
<time>2016-10-06T22:22:40Z</time></trkpt>
<trkpt lat="25.043363" lon="104.986015">
<time>2016-10-06T22:22:41Z</time></trkpt>
<trkpt lat="25.043184" lon="104.985646">
<time>2016-10-06T22:22:42Z</time></trkpt>
<trkpt lat="25.043114" lon="104.985457">
<time>2016-10-06T22:22:43Z</time></trkpt>
<trkpt lat="25.042966" lon="104.9848">
<time>2016-10-06T22:22:44Z</time></trkpt>
<trkpt lat="25.042928" lon="104.984133">
<time>2016-10-06T22:22:45Z</time></trkpt>
<trkpt lat="25.04298" lon="104.983605">
<time>2016-10-06T22:22:46Z</time></trkpt>
<trkpt lat="25.042941" lon="104.983347">
<time>2016-10-06T22:22:47Z</time></trkpt>
<trkpt lat="25.042861" lon="104.983088">
<time>2016-10-06T22:22:48Z</time></trkpt>
<trkpt lat="25.042384" lon="104.982271">
<time>2016-10-06T22:22:49Z</time></trkpt>
<trkpt lat="25.042205" lon="104.981953">
<time>2016-10-06T22:22:50Z</time></trkpt>
<trkpt lat="25.042037" lon="104.981385">
<time>2016-10-06T22:22:51Z</time></trkpt>
<trkpt lat="25.041878" lon="104.980838">
<time>2016-10-06T22:22:52Z</time></trkpt>
<trkpt lat="25.041799" lon="104.980668">
<time>2016-10-06T22:22:53Z</time></trkpt>
<trkpt lat="25.041609" lon="104.9804">
<time>2016-10-06T22:22:54Z</time></trkpt>
<trkpt lat="25.04149" lon="104.98029">
<time>2016-10-06T22:22:55Z</time></trkpt>
<trkpt lat="25.04136" lon="104.98023">
<time>2016-10-06T22:22:56Z</time></trkpt>
<trkpt lat="25.04121" lon="104.98024">
<time>2016-10-06T22:22:57Z</time></trkpt>
<trkpt lat="25.04105" lon="104.98032">
<time>2016-10-06T22:22:58Z</time></trkpt>
<trkpt lat="25.040699" lon="104.980629">
<time>2016-10-06T22:22:59Z</time></trkpt>
<trkpt lat="25.040358" lon="104.980947">
<time>2016-10-06T22:23:00Z</time></trkpt>
<trkpt lat="25.040208" lon="104.981057">
<time>2016-10-06T22:23:01Z</time></trkpt>
<trkpt lat="25.040058" lon="104.981067">
<time>2016-10-06T22:23:02Z</time></trkpt>
<trkpt lat="25.039978" lon="104.980977">
<time>2016-10-06T22:23:03Z</time></trkpt>
<trkpt lat="25.039978" lon="104.980828">
<time>2016-10-06T22:23:04Z</time></trkpt>
<trkpt lat="25.040049" lon="104.980708">
<time>2016-10-06T22:23:05Z</time></trkpt>
<trkpt lat="25.040319" lon="104.980569">
<time>2016-10-06T22:23:06Z</time></trkpt>
<trkpt lat="25.040951" lon="104.980061">
<time>2016-10-06T22:23:07Z</time></trkpt>
<trkpt lat="25.041041" lon="104.979932">
<time>2016-10-06T22:23:08Z</time></trkpt>
<trkpt lat="25.041101" lon="104.979762">
<time>2016-10-06T22:23:09Z</time></trkpt>
<trkpt lat="25.041102" lon="104.979593">
<time>2016-10-06T22:23:10Z</time></trkpt>
<trkpt lat="25.040844" lon="104.979006">
<time>2016-10-06T22:23:11Z</time></trkpt>
<trkpt lat="25.040595" lon="104.978428">
<time>2016-10-06T22:23:12Z</time></trkpt>
<trkpt lat="25.040536" lon="104.978219">
<time>2016-10-06T22:23:13Z</time></trkpt>
<trkpt lat="25.040546" lon="104.9781">
<time>2016-10-06T22:23:14Z</time></trkpt>
<trkpt lat="25.040687" lon="104.977821">
<time>2016-10-06T22:23:15Z</time></trkpt>
<trkpt lat="25.041099" lon="104.977194">
<time>2016-10-06T22:23:16Z</time></trkpt>
<trkpt lat="25.041209" lon="104.977074">
<time>2016-10-06T22:23:17Z</time></trkpt>
<trkpt lat="25.041349" lon="104.977004">
<time>2016-10-06T22:23:18Z</time></trkpt>
<trkpt lat="25.041899" lon="104.977134">
<time>2016-10-06T22:23:19Z</time></trkpt>
<trkpt lat="25.042448" lon="104.977263">
<time>2016-10-06T22:23:20Z</time></trkpt>
<trkpt lat="25.042728" lon="104.977383">
<time>2016-10-06T22:23:21Z</time></trkpt>
<trkpt lat="25.043336" lon="104.97795">
<time>2016-10-06T22:23:22Z</time></trkpt>
<trkpt lat="25.043436" lon="104.978">
<time>2016-10-06T22:23:23Z</time></trkpt>
<trkpt lat="25.043566" lon="104.97799">
<time>2016-10-06T22:23:24Z</time></trkpt>
<trkpt lat="25.043637" lon="104.97788">
<time>2016-10-06T22:23:25Z</time></trkpt>
<trkpt lat="25.043627" lon="104.977741">
<time>2016-10-06T22:23:26Z</time></trkpt>
<trkpt lat="25.043088" lon="104.977343">
<time>2016-10-06T22:23:27Z</time></trkpt>
<trkpt lat="25.042559" lon="104.976935">
<time>2016-10-06T22:23:28Z</time></trkpt>
<trkpt lat="25.042131" lon="104.976487">
<time>2016-10-06T22:23:29Z</time></trkpt>
<trkpt lat="25.041742" lon="104.975989">
<time>2016-10-06T22:23:30Z</time></trkpt>
<trkpt lat="25.041354" lon="104.975481">
<time>2016-10-06T22:23:31Z</time></trkpt>
<trkpt lat="25.040815" lon="104.975053">
<time>2016-10-06T22:23:32Z</time></trkpt>
<trkpt lat="25.040276" lon="104.974635">
<time>2016-10-06T22:23:33Z</time></trkpt>
<trkpt lat="25.039747" lon="104.974216">
<time>2016-10-06T22:23:34Z</time></trkpt>
<trkpt lat="25.039608" lon="104.974067">
<time>2016-10-06T22:23:35Z</time></trkpt>
<trkpt lat="25.039538" lon="104.973868">
<time>2016-10-06T22:23:36Z</time></trkpt>
<trkpt lat="25.039509" lon="104.973679">
<time>2016-10-06T22:23:37Z</time></trkpt>
<trkpt lat="25.039681" lon="104.972872">
<time>2016-10-06T22:23:38Z</time></trkpt>
<trkpt lat="25.039692" lon="104.972653">
<time>2016-10-06T22:23:39Z</time></trkpt>
<trkpt lat="25.039564" lon="104.972036">
<time>2016-10-06T22:23:40Z</time></trkpt>
<trkpt lat="25.039534" lon="104.971946">
<time>2016-10-06T22:23:41Z</time></trkpt>
<trkpt lat="25.039425" lon="104.971538">
<time>2016-10-06T22:23:42Z</time></trkpt>
<trkpt lat="25.039376" lon="104.971319">
<time>2016-10-06T22:23:43Z</time></trkpt>
<trkpt lat="25.039346" lon="104.971119">
<time>2016-10-06T22:23:44Z</time></trkpt>
<trkpt lat="25.039418" lon="104.970472">
<time>2016-10-06T22:23:45Z</time></trkpt>
<trkpt lat="25.03949" lon="104.969825">
<time>2016-10-06T22:23:46Z</time></trkpt>
<trkpt lat="25.039472" lon="104.969158">
<time>2016-10-06T22:23:47Z</time></trkpt>
<trkpt lat="25.039472" lon="104.968938">
<time>2016-10-06T22:23:48Z</time></trkpt>
<trkpt lat="25.039523" lon="104.968719">
<time>2016-10-06T22:23:49Z</time></trkpt>
<trkpt lat="25.039935" lon="104.967923">
<time>2016-10-06T22:23:50Z</time></trkpt>
<trkpt lat="25.040327" lon="104.967026">
<time>2016-10-06T22:23:51Z</time></trkpt>
<trkpt lat="25.040689" lon="104.96621">
<time>2016-10-06T22:23:52Z</time></trkpt>
<trkpt lat="25.04077" lon="104.96599">
<time>2016-10-06T22:23:53Z</time></trkpt>
<trkpt lat="25.044408" lon="104.962763">
<time>2016-10-06T22:23:54Z</time></trkpt>
<trkpt lat="25.047835" lon="104.959755">
<time>2016-10-06T22:23:55Z</time></trkpt>
<trkpt lat="25.049808" lon="104.95829">
<time>2016-10-06T22:23:56Z</time></trkpt>
<trkpt lat="25.051561" lon="104.957224">
<time>2016-10-06T22:23:57Z</time></trkpt>
<trkpt lat="25.053172" lon="104.956397">
<time>2016-10-06T22:23:58Z</time></trkpt>
<trkpt lat="25.059228" lon="104.953657">
<time>2016-10-06T22:23:59Z</time></trkpt>
<trkpt lat="25.059478" lon="104.953548">
<time>2016-10-06T22:24:00Z</time></trkpt>
<trkpt lat="25.067426" lon="104.94992">
<time>2016-10-06T22:24:01Z</time></trkpt>
<trkpt lat="25.068046" lon="104.949641">
<time>2016-10-06T22:24:02Z</time></trkpt>
<trkpt lat="25.068166" lon="104.949582">
<time>2016-10-06T22:24:03Z</time></trkpt>
<trkpt lat="25.068567" lon="104.949402">
<time>2016-10-06T22:24:04Z</time></trkpt>
<trkpt lat="25.068897" lon="104.949253">
<time>2016-10-06T22:24:05Z</time></trkpt>
<trkpt lat="25.071589" lon="104.948007">
<time>2016-10-06T22:24:06Z</time></trkpt>
<trkpt lat="25.071759" lon="104.947927">
<time>2016-10-06T22:24:07Z</time></trkpt>
<trkpt lat="25.07236" lon="104.947658">
<time>2016-10-06T22:24:08Z</time></trkpt>
<trkpt lat="25.07236" lon="104.947658">
<time>2016-10-06T22:24:09Z</time></trkpt>
<trkpt lat="25.07247" lon="104.947459">
<time>2016-10-06T22:24:10Z</time></trkpt>
<trkpt lat="25.07249" lon="104.947439">
<time>2016-10-06T22:24:11Z</time></trkpt>
<trkpt lat="25.07256" lon="104.947339">
<time>2016-10-06T22:24:12Z</time></trkpt>
<trkpt lat="25.072781" lon="104.94699">
<time>2016-10-06T22:24:13Z</time></trkpt>
<trkpt lat="25.072921" lon="104.946841">
<time>2016-10-06T22:24:14Z</time></trkpt>
<trkpt lat="25.073142" lon="104.946522">
<time>2016-10-06T22:24:15Z</time></trkpt>
<trkpt lat="25.073212" lon="104.946442">
<time>2016-10-06T22:24:16Z</time></trkpt>
<trkpt lat="25.073363" lon="104.946203">
<time>2016-10-06T22:24:17Z</time></trkpt>
<trkpt lat="25.073613" lon="104.945884">
<time>2016-10-06T22:24:18Z</time></trkpt>
<trkpt lat="25.073774" lon="104.945744">
<time>2016-10-06T22:24:19Z</time></trkpt>
<trkpt lat="25.073814" lon="104.945715">
<time>2016-10-06T22:24:20Z</time></trkpt>
<trkpt lat="25.073934" lon="104.945605">
<time>2016-10-06T22:24:21Z</time></trkpt>
<trkpt lat="25.074194" lon="104.945455">
<time>2016-10-06T22:24:22Z</time></trkpt>
<trkpt lat="25.074334" lon="104.945336">
<time>2016-10-06T22:24:23Z</time></trkpt>
<trkpt lat="25.074394" lon="104.945266">
<time>2016-10-06T22:24:24Z</time></trkpt>
<trkpt lat="25.074404" lon="104.945256">
<time>2016-10-06T22:24:25Z</time></trkpt>
<trkpt lat="25.074986" lon="104.944618">
<time>2016-10-06T22:24:26Z</time></trkpt>
<trkpt lat="25.075016" lon="104.944538">
<time>2016-10-06T22:24:27Z</time></trkpt>
<trkpt lat="25.075166" lon="104.944379">
<time>2016-10-06T22:24:28Z</time></trkpt>
<trkpt lat="25.075487" lon="104.94398">
<time>2016-10-06T22:24:29Z</time></trkpt>
<trkpt lat="25.075958" lon="104.943462">
<time>2016-10-06T22:24:30Z</time></trkpt>
<trkpt lat="25.076449" lon="104.942914">
<time>2016-10-06T22:24:31Z</time></trkpt>
<trkpt lat="25.0767" lon="104.942495">
<time>2016-10-06T22:24:32Z</time></trkpt>
<trkpt lat="25.07684" lon="104.942316">
<time>2016-10-06T22:24:33Z</time></trkpt>
<trkpt lat="25.07694" lon="104.942096">
<time>2016-10-06T22:24:34Z</time></trkpt>
<trkpt lat="25.077091" lon="104.941638">
<time>2016-10-06T22:24:35Z</time></trkpt>
<trkpt lat="25.077142" lon="104.941389">
<time>2016-10-06T22:24:36Z</time></trkpt>
<trkpt lat="25.077173" lon="104.940681">
<time>2016-10-06T22:24:37Z</time></trkpt>
<trkpt lat="25.077173" lon="104.940611">
<time>2016-10-06T22:24:38Z</time></trkpt>
<trkpt lat="25.077153" lon="104.940412">
<time>2016-10-06T22:24:39Z</time></trkpt>
<trkpt lat="25.077134" lon="104.939813">
<time>2016-10-06T22:24:40Z</time></trkpt>
<trkpt lat="25.077145" lon="104.939564">
<time>2016-10-06T22:24:41Z</time></trkpt>
<trkpt lat="25.077175" lon="104.939435">
<time>2016-10-06T22:24:42Z</time></trkpt>
<trkpt lat="25.077245" lon="104.939255">
<time>2016-10-06T22:24:43Z</time></trkpt>
<trkpt lat="25.077316" lon="104.939076">
<time>2016-10-06T22:24:44Z</time></trkpt>
<trkpt lat="25.077567" lon="104.938537">
<time>2016-10-06T22:24:45Z</time></trkpt>
<trkpt lat="25.077717" lon="104.938119">
<time>2016-10-06T22:24:46Z</time></trkpt>
<trkpt lat="25.077718" lon="104.938019">
<time>2016-10-06T22:24:47Z</time></trkpt>
<trkpt lat="25.077718" lon="104.937879">
<time>2016-10-06T22:24:48Z</time></trkpt>
<trkpt lat="25.077688" lon="104.93778">
<time>2016-10-06T22:24:49Z</time></trkpt>
<trkpt lat="25.077658" lon="104.93767">
<time>2016-10-06T22:24:50Z</time></trkpt>
<trkpt lat="25.077568" lon="104.937491">
<time>2016-10-06T22:24:51Z</time></trkpt>
<trkpt lat="25.077289" lon="104.937002">
<time>2016-10-06T22:24:52Z</time></trkpt>
<trkpt lat="25.077209" lon="104.936862">
<time>2016-10-06T22:24:53Z</time></trkpt>
<trkpt lat="25.07716" lon="104.936753">
<time>2016-10-06T22:24:54Z</time></trkpt>
<trkpt lat="25.07715" lon="104.936623">
<time>2016-10-06T22:24:55Z</time></trkpt>
<trkpt lat="25.07716" lon="104.936284">
<time>2016-10-06T22:24:56Z</time></trkpt>
<trkpt lat="25.077311" lon="104.935636">
<time>2016-10-06T22:24:57Z</time></trkpt>
<trkpt lat="25.077392" lon="104.935237">
<time>2016-10-06T22:24:58Z</time></trkpt>
<trkpt lat="25.077422" lon="104.935018">
<time>2016-10-06T22:24:59Z</time></trkpt>
<trkpt lat="25.077575" lon="104.933333">
<time>2016-10-06T22:25:00Z</time></trkpt>
<trkpt lat="25.077575" lon="104.933333">
<time>2016-10-06T22:25:01Z</time></trkpt>
<trkpt lat="25.078016" lon="104.932764">
<time>2016-10-06T22:25:02Z</time></trkpt>
<trkpt lat="25.078947" lon="104.931587">
<time>2016-10-06T22:25:03Z</time></trkpt>
<trkpt lat="25.079378" lon="104.931019">
<time>2016-10-06T22:25:04Z</time></trkpt>
<trkpt lat="25.079579" lon="104.930779">
<time>2016-10-06T22:25:05Z</time></trkpt>
<trkpt lat="25.079679" lon="104.93067">
<time>2016-10-06T22:25:06Z</time></trkpt>
<trkpt lat="25.079739" lon="104.93061">
<time>2016-10-06T22:25:07Z</time></trkpt>
<trkpt lat="25.079819" lon="104.93055">
<time>2016-10-06T22:25:08Z</time></trkpt>
<trkpt lat="25.080109" lon="104.930341">
<time>2016-10-06T22:25:09Z</time></trkpt>
<trkpt lat="25.0814" lon="104.929423">
<time>2016-10-06T22:25:10Z</time></trkpt>
<trkpt lat="25.082121" lon="104.928944">
<time>2016-10-06T22:25:11Z</time></trkpt>
<trkpt lat="25.082211" lon="104.928884">
<time>2016-10-06T22:25:12Z</time></trkpt>
<trkpt lat="25.083342" lon="104.928076">
<time>2016-10-06T22:25:13Z</time></trkpt>
<trkpt lat="25.084673" lon="104.927149">
<time>2016-10-06T22:25:14Z</time></trkpt>
<trkpt lat="25.085443" lon="104.92663">
<time>2016-10-06T22:25:15Z</time></trkpt>
<trkpt lat="25.085624" lon="104.92652">
<time>2016-10-06T22:25:16Z</time></trkpt>
<trkpt lat="25.085814" lon="104.92642">
<time>2016-10-06T22:25:17Z</time></trkpt>
<trkpt lat="25.086264" lon="104.926181">
<time>2016-10-06T22:25:18Z</time></trkpt>
<trkpt lat="25.086394" lon="104.926101">
<time>2016-10-06T22:25:19Z</time></trkpt>
<trkpt lat="25.086554" lon="104.926001">
<time>2016-10-06T22:25:20Z</time></trkpt>
<trkpt lat="25.086664" lon="104.925922">
<time>2016-10-06T22:25:21Z</time></trkpt>
<trkpt lat="25.086774" lon="104.925822">
<time>2016-10-06T22:25:22Z</time></trkpt>
<trkpt lat="25.086904" lon="104.925672">
<time>2016-10-06T22:25:23Z</time></trkpt>
<trkpt lat="25.086975" lon="104.925573">
<time>2016-10-06T22:25:24Z</time></trkpt>
<trkpt lat="25.087035" lon="104.925463">
<time>2016-10-06T22:25:25Z</time></trkpt>
<trkpt lat="25.087085" lon="104.925373">
<time>2016-10-06T22:25:26Z</time></trkpt>
<trkpt lat="25.087135" lon="104.925263">
<time>2016-10-06T22:25:27Z</time></trkpt>
<trkpt lat="25.087145" lon="104.925253">
<time>2016-10-06T22:25:28Z</time></trkpt>
<trkpt lat="25.087175" lon="104.925154">
<time>2016-10-06T22:25:29Z</time></trkpt>
<trkpt lat="25.087215" lon="104.925024">
<time>2016-10-06T22:25:30Z</time></trkpt>
<trkpt lat="25.087245" lon="104.924904">
<time>2016-10-06T22:25:31Z</time></trkpt>
<trkpt lat="25.087255" lon="104.924804">
<time>2016-10-06T22:25:32Z</time></trkpt>
<trkpt lat="25.087286" lon="104.924595">
<time>2016-10-06T22:25:33Z</time></trkpt>
<trkpt lat="25.087326" lon="104.924355">
<time>2016-10-06T22:25:34Z</time></trkpt>
<trkpt lat="25.087346" lon="104.924146">
<time>2016-10-06T22:25:35Z</time></trkpt>
<trkpt lat="25.087346" lon="104.924146">
<time>2016-10-06T22:25:36Z</time></trkpt>
<trkpt lat="25.087446" lon="104.924086">
<time>2016-10-06T22:25:37Z</time></trkpt>
<trkpt lat="25.087496" lon="104.924046">
<time>2016-10-06T22:25:38Z</time></trkpt>
<trkpt lat="25.087546" lon="104.924006">
<time>2016-10-06T22:25:39Z</time></trkpt>
<trkpt lat="25.087586" lon="104.923966">
<time>2016-10-06T22:25:40Z</time></trkpt>
<trkpt lat="25.087636" lon="104.923916">
<time>2016-10-06T22:25:41Z</time></trkpt>
<trkpt lat="25.087696" lon="104.923847">
<time>2016-10-06T22:25:42Z</time></trkpt>
<trkpt lat="25.087746" lon="104.923787">
<time>2016-10-06T22:25:43Z</time></trkpt>
<trkpt lat="25.087756" lon="104.923767">
<time>2016-10-06T22:25:44Z</time></trkpt>
<trkpt lat="25.087787" lon="104.923737">
<time>2016-10-06T22:25:45Z</time></trkpt>
<trkpt lat="25.088137" lon="104.923268">
<time>2016-10-06T22:25:46Z</time></trkpt>
<trkpt lat="25.088217" lon="104.923158">
<time>2016-10-06T22:25:47Z</time></trkpt>
<trkpt lat="25.088808" lon="104.92233">
<time>2016-10-06T22:25:48Z</time></trkpt>
<trkpt lat="25.089118" lon="104.921891">
<time>2016-10-06T22:25:49Z</time></trkpt>
<trkpt lat="25.089509" lon="104.921352">
<time>2016-10-06T22:25:50Z</time></trkpt>
<trkpt lat="25.089829" lon="104.920923">
<time>2016-10-06T22:25:51Z</time></trkpt>
<trkpt lat="25.090019" lon="104.920664">
<time>2016-10-06T22:25:52Z</time></trkpt>
<trkpt lat="25.09055" lon="104.919845">
<time>2016-10-06T22:25:53Z</time></trkpt>
<trkpt lat="25.090921" lon="104.919307">
<time>2016-10-06T22:25:54Z</time></trkpt>
<trkpt lat="25.091601" lon="104.918339">
<time>2016-10-06T22:25:55Z</time></trkpt>
<trkpt lat="25.092482" lon="104.917101">
<time>2016-10-06T22:25:56Z</time></trkpt>
<trkpt lat="25.092632" lon="104.916892">
<time>2016-10-06T22:25:57Z</time></trkpt>
<trkpt lat="25.093103" lon="104.916223">
<time>2016-10-06T22:25:58Z</time></trkpt>
<trkpt lat="25.093483" lon="104.915684">
<time>2016-10-06T22:25:59Z</time></trkpt>
<trkpt lat="25.093794" lon="104.915265">
<time>2016-10-06T22:26:00Z</time></trkpt>
<trkpt lat="25.093934" lon="104.915085">
<time>2016-10-06T22:26:01Z</time></trkpt>
<trkpt lat="25.094364" lon="104.914476">
<time>2016-10-06T22:26:02Z</time></trkpt>
<trkpt lat="25.094534" lon="104.914247">
<time>2016-10-06T22:26:03Z</time></trkpt>
<trkpt lat="25.095275" lon="104.913208">
<time>2016-10-06T22:26:04Z</time></trkpt>
<trkpt lat="25.095315" lon="104.913159">
<time>2016-10-06T22:26:05Z</time></trkpt>
<trkpt lat="25.095315" lon="104.913159">
<time>2016-10-06T22:26:06Z</time></trkpt>
<trkpt lat="25.095605" lon="104.912799">
<time>2016-10-06T22:26:07Z</time></trkpt>
<trkpt lat="25.095965" lon="104.91227">
<time>2016-10-06T22:26:08Z</time></trkpt>
<trkpt lat="25.096276" lon="104.911811">
<time>2016-10-06T22:26:09Z</time></trkpt>
<trkpt lat="25.096846" lon="104.910982">
<time>2016-10-06T22:26:10Z</time></trkpt>
<trkpt lat="25.097516" lon="104.910024">
<time>2016-10-06T22:26:11Z</time></trkpt>
<trkpt lat="25.097686" lon="104.909774">
<time>2016-10-06T22:26:12Z</time></trkpt>
<trkpt lat="25.097977" lon="104.909365">
<time>2016-10-06T22:26:13Z</time></trkpt>
<trkpt lat="25.099427" lon="104.907278">
<time>2016-10-06T22:26:14Z</time></trkpt>
<trkpt lat="25.099427" lon="104.907278">
<time>2016-10-06T22:26:15Z</time></trkpt>
<trkpt lat="25.099177" lon="104.906699">
<time>2016-10-06T22:26:16Z</time></trkpt>
<trkpt lat="25.099118" lon="104.906569">
<time>2016-10-06T22:26:17Z</time></trkpt>
<trkpt lat="25.099018" lon="104.90634">
<time>2016-10-06T22:26:18Z</time></trkpt>
<trkpt lat="25.098918" lon="104.90611">
<time>2016-10-06T22:26:19Z</time></trkpt>
<trkpt lat="25.098878" lon="104.90602">
<time>2016-10-06T22:26:20Z</time></trkpt>
<trkpt lat="25.098838" lon="104.90589">
<time>2016-10-06T22:26:21Z</time></trkpt>
<trkpt lat="25.098798" lon="104.90574">
<time>2016-10-06T22:26:22Z</time></trkpt>
<trkpt lat="25.098758" lon="104.905571">
<time>2016-10-06T22:26:23Z</time></trkpt>
<trkpt lat="25.098738" lon="104.905421">
<time>2016-10-06T22:26:24Z</time></trkpt>
<trkpt lat="25.098738" lon="104.905361">
<time>2016-10-06T22:26:25Z</time></trkpt>
<trkpt lat="25.098738" lon="104.905361">
<time>2016-10-06T22:26:26Z</time></trkpt>
<trkpt lat="25.098618" lon="104.905201">
<time>2016-10-06T22:26:27Z</time></trkpt>
<trkpt lat="25.098568" lon="104.904822">
<time>2016-10-06T22:26:28Z</time></trkpt>
<trkpt lat="25.098558" lon="104.904552">
<time>2016-10-06T22:26:29Z</time></trkpt>
<trkpt lat="25.098578" lon="104.904183">
<time>2016-10-06T22:26:30Z</time></trkpt>
<trkpt lat="25.098618" lon="104.903803">
<time>2016-10-06T22:26:31Z</time></trkpt>
<trkpt lat="25.098638" lon="104.903544">
<time>2016-10-06T22:26:32Z</time></trkpt>
<trkpt lat="25.098648" lon="104.903314">
<time>2016-10-06T22:26:33Z</time></trkpt>
<trkpt lat="25.098628" lon="104.903134">
<time>2016-10-06T22:26:34Z</time></trkpt>
<trkpt lat="25.098608" lon="104.902934">
<time>2016-10-06T22:26:35Z</time></trkpt>
<trkpt lat="25.098568" lon="104.902804">
<time>2016-10-06T22:26:36Z</time></trkpt>
<trkpt lat="25.098568" lon="104.902804">
<time>2016-10-06T22:26:37Z</time></trkpt>
<trkpt lat="25.098509" lon="104.902535">
<time>2016-10-06T22:26:38Z</time></trkpt>
<trkpt lat="25.098329" lon="104.901956">
<time>2016-10-06T22:26:39Z</time></trkpt>
<trkpt lat="25.098219" lon="104.901506">
<time>2016-10-06T22:26:40Z</time></trkpt>
<trkpt lat="25.098179" lon="104.901326">
<time>2016-10-06T22:26:41Z</time></trkpt>
<trkpt lat="25.098169" lon="104.901167">
<time>2016-10-06T22:26:42Z</time></trkpt>
<trkpt lat="25.098179" lon="104.900917">
<time>2016-10-06T22:26:43Z</time></trkpt>
<trkpt lat="25.098199" lon="104.900787">
<time>2016-10-06T22:26:44Z</time></trkpt>
<trkpt lat="25.098239" lon="104.900667">
<time>2016-10-06T22:26:45Z</time></trkpt>
<trkpt lat="25.098289" lon="104.900527">
<time>2016-10-06T22:26:46Z</time></trkpt>
<trkpt lat="25.098339" lon="104.900407">
<time>2016-10-06T22:26:47Z</time></trkpt>
<trkpt lat="25.098539" lon="104.900118">
<time>2016-10-06T22:26:48Z</time></trkpt>
<trkpt lat="25.098929" lon="104.899678">
<time>2016-10-06T22:26:49Z</time></trkpt>
<trkpt lat="25.099129" lon="104.899409">
<time>2016-10-06T22:26:50Z</time></trkpt>
<trkpt lat="25.099289" lon="104.899169">
<time>2016-10-06T22:26:51Z</time></trkpt>
<trkpt lat="25.099499" lon="104.898789">
<time>2016-10-06T22:26:52Z</time></trkpt>
<trkpt lat="25.099659" lon="104.89843">
<time>2016-10-06T22:26:53Z</time></trkpt>
<trkpt lat="25.099789" lon="104.8982">
<time>2016-10-06T22:26:54Z</time></trkpt>
<trkpt lat="25.100099" lon="104.89785">
<time>2016-10-06T22:26:55Z</time></trkpt>
<trkpt lat="25.100099" lon="104.89785">
<time>2016-10-06T22:26:56Z</time></trkpt>
<trkpt lat="25.100508" lon="104.897051">
<time>2016-10-06T22:26:57Z</time></trkpt>
<trkpt lat="25.100568" lon="104.896931">
<time>2016-10-06T22:26:58Z</time></trkpt>
<trkpt lat="25.100618" lon="104.896861">
<time>2016-10-06T22:26:59Z</time></trkpt>
<trkpt lat="25.100758" lon="104.896621">
<time>2016-10-06T22:27:00Z</time></trkpt>
<trkpt lat="25.100978" lon="104.896192">
<time>2016-10-06T22:27:01Z</time></trkpt>
<trkpt lat="25.101208" lon="104.895762">
<time>2016-10-06T22:27:02Z</time></trkpt>
<trkpt lat="25.101248" lon="104.895672">
<time>2016-10-06T22:27:03Z</time></trkpt>
<trkpt lat="25.101288" lon="104.895592">
<time>2016-10-06T22:27:04Z</time></trkpt>
<trkpt lat="25.101328" lon="104.895503">
<time>2016-10-06T22:27:05Z</time></trkpt>
<trkpt lat="25.101358" lon="104.895433">
<time>2016-10-06T22:27:06Z</time></trkpt>
<trkpt lat="25.101378" lon="104.895363">
<time>2016-10-06T22:27:07Z</time></trkpt>
<trkpt lat="25.101408" lon="104.895273">
<time>2016-10-06T22:27:08Z</time></trkpt>
<trkpt lat="25.101428" lon="104.895193">
<time>2016-10-06T22:27:09Z</time></trkpt>
<trkpt lat="25.101438" lon="104.895093">
<time>2016-10-06T22:27:10Z</time></trkpt>
<trkpt lat="25.101448" lon="104.895083">
<time>2016-10-06T22:27:11Z</time></trkpt>
<trkpt lat="25.101458" lon="104.894973">
<time>2016-10-06T22:27:12Z</time></trkpt>
<trkpt lat="25.101468" lon="104.894833">
<time>2016-10-06T22:27:13Z</time></trkpt>
<trkpt lat="25.101468" lon="104.894763">
<time>2016-10-06T22:27:14Z</time></trkpt>
<trkpt lat="25.101478" lon="104.894703">
<time>2016-10-06T22:27:15Z</time></trkpt>
<trkpt lat="25.101478" lon="104.894573">
<time>2016-10-06T22:27:16Z</time></trkpt>
<trkpt lat="25.101468" lon="104.894463">
<time>2016-10-06T22:27:17Z</time></trkpt>
<trkpt lat="25.101458" lon="104.894324">
<time>2016-10-06T22:27:18Z</time></trkpt>
<trkpt lat="25.101448" lon="104.894224">
<time>2016-10-06T22:27:19Z</time></trkpt>
<trkpt lat="25.101418" lon="104.894094">
<time>2016-10-06T22:27:20Z</time></trkpt>
<trkpt lat="25.101198" lon="104.893065">
<time>2016-10-06T22:27:21Z</time></trkpt>
<trkpt lat="25.101067" lon="104.892555">
<time>2016-10-06T22:27:22Z</time></trkpt>
<trkpt lat="25.100927" lon="104.891966">
<time>2016-10-06T22:27:23Z</time></trkpt>
<trkpt lat="25.100757" lon="104.890876">
<time>2016-10-06T22:27:24Z</time></trkpt>
<trkpt lat="25.100486" lon="104.889228">
<time>2016-10-06T22:27:25Z</time></trkpt>
<trkpt lat="25.100485" lon="104.886699">
<time>2016-10-06T22:27:26Z</time></trkpt>
<trkpt lat="25.100485" lon="104.886019">
<time>2016-10-06T22:27:27Z</time></trkpt>
<trkpt lat="25.100494" lon="104.88414">
<time>2016-10-06T22:27:28Z</time></trkpt>
<trkpt lat="25.100493" lon="104.88365">
<time>2016-10-06T22:27:29Z</time></trkpt>
<trkpt lat="25.100391" lon="104.880801">
<time>2016-10-06T22:27:30Z</time></trkpt>
<trkpt lat="25.100371" lon="104.880591">
<time>2016-10-06T22:27:31Z</time></trkpt>
<trkpt lat="25.100371" lon="104.880591">
<time>2016-10-06T22:27:32Z</time></trkpt>
<trkpt lat="25.100401" lon="104.880591">
<time>2016-10-06T22:27:33Z</time></trkpt>
<trkpt lat="25.100401" lon="104.880591">
<time>2016-10-06T22:27:34Z</time></trkpt>
<trkpt lat="25.100441" lon="104.880362">
<time>2016-10-06T22:27:35Z</time></trkpt>
<trkpt lat="25.100471" lon="104.880242">
<time>2016-10-06T22:27:36Z</time></trkpt>
<trkpt lat="25.100501" lon="104.880142">
<time>2016-10-06T22:27:37Z</time></trkpt>
<trkpt lat="25.100551" lon="104.880042">
<time>2016-10-06T22:27:38Z</time></trkpt>
<trkpt lat="25.100621" lon="104.879952">
<time>2016-10-06T22:27:39Z</time></trkpt>
<trkpt lat="25.10068" lon="104.879922">
<time>2016-10-06T22:27:40Z</time></trkpt>
<trkpt lat="25.10068" lon="104.879922">
<time>2016-10-06T22:27:41Z</time></trkpt>
<trkpt lat="25.10081" lon="104.879902">
<time>2016-10-06T22:27:42Z</time></trkpt>
<trkpt lat="25.10096" lon="104.879852">
<time>2016-10-06T22:27:43Z</time></trkpt>
<trkpt lat="25.10117" lon="104.879722">
<time>2016-10-06T22:27:44Z</time></trkpt>
<trkpt lat="25.10208" lon="104.879122">
<time>2016-10-06T22:27:45Z</time></trkpt>
<trkpt lat="25.104328" lon="104.877532">
<time>2016-10-06T22:27:46Z</time></trkpt>
<trkpt lat="25.105497" lon="104.876752">
<time>2016-10-06T22:27:47Z</time></trkpt>
<trkpt lat="25.105957" lon="104.876492">
<time>2016-10-06T22:27:48Z</time></trkpt>
<trkpt lat="25.106557" lon="104.876222">
<time>2016-10-06T22:27:49Z</time></trkpt>
<trkpt lat="25.107696" lon="104.875752">
<time>2016-10-06T22:27:50Z</time></trkpt>
<trkpt lat="25.108396" lon="104.875432">
<time>2016-10-06T22:27:51Z</time></trkpt>
<trkpt lat="25.108766" lon="104.875232">
<time>2016-10-06T22:27:52Z</time></trkpt>
<trkpt lat="25.109025" lon="104.875002">
<time>2016-10-06T22:27:53Z</time></trkpt>
<trkpt lat="25.109625" lon="104.874472">
<time>2016-10-06T22:27:54Z</time></trkpt>
<trkpt lat="25.110074" lon="104.873952">
<time>2016-10-06T22:27:55Z</time></trkpt>
<trkpt lat="25.110783" lon="104.872982">
<time>2016-10-06T22:27:56Z</time></trkpt>
<trkpt lat="25.110793" lon="104.872972">
<time>2016-10-06T22:27:57Z</time></trkpt>
<trkpt lat="25.111851" lon="104.871502">
<time>2016-10-06T22:27:58Z</time></trkpt>
<trkpt lat="25.113" lon="104.870092">
<time>2016-10-06T22:27:59Z</time></trkpt>
<trkpt lat="25.113859" lon="104.869171">
<time>2016-10-06T22:28:00Z</time></trkpt>
<trkpt lat="25.114068" lon="104.868951">
<time>2016-10-06T22:28:01Z</time></trkpt>
<trkpt lat="25.115427" lon="104.867621">
<time>2016-10-06T22:28:02Z</time></trkpt>
<trkpt lat="25.115477" lon="104.867541">
<time>2016-10-06T22:28:03Z</time></trkpt>
<trkpt lat="25.115686" lon="104.867251">
<time>2016-10-06T22:28:04Z</time></trkpt>
<trkpt lat="25.115796" lon="104.867071">
<time>2016-10-06T22:28:05Z</time></trkpt>
<trkpt lat="25.115876" lon="104.866851">
<time>2016-10-06T22:28:06Z</time></trkpt>
<trkpt lat="25.115915" lon="104.866651">
<time>2016-10-06T22:28:07Z</time></trkpt>
<trkpt lat="25.115935" lon="104.866381">
<time>2016-10-06T22:28:08Z</time></trkpt>
<trkpt lat="25.115915" lon="104.866101">
<time>2016-10-06T22:28:09Z</time></trkpt>
<trkpt lat="25.115613" lon="104.86492">
<time>2016-10-06T22:28:10Z</time></trkpt>
<trkpt lat="25.115613" lon="104.86492">
<time>2016-10-06T22:28:11Z</time></trkpt>
<trkpt lat="25.116853" lon="104.86446">
<time>2016-10-06T22:28:12Z</time></trkpt>
<trkpt lat="25.118202" lon="104.86377">
<time>2016-10-06T22:28:13Z</time></trkpt>
<trkpt lat="25.119151" lon="104.86313">
<time>2016-10-06T22:28:14Z</time></trkpt>
<trkpt lat="25.11925" lon="104.86307">
<time>2016-10-06T22:28:15Z</time></trkpt>
<trkpt lat="25.120439" lon="104.862129">
<time>2016-10-06T22:28:16Z</time></trkpt>
<trkpt lat="25.121398" lon="104.861359">
<time>2016-10-06T22:28:17Z</time></trkpt>
<trkpt lat="25.123525" lon="104.859658">
<time>2016-10-06T22:28:18Z</time></trkpt>
<trkpt lat="25.123575" lon="104.859618">
<time>2016-10-06T22:28:19Z</time></trkpt>
<trkpt lat="25.124814" lon="104.858627">
<time>2016-10-06T22:28:20Z</time></trkpt>
<trkpt lat="25.124974" lon="104.858497">
<time>2016-10-06T22:28:21Z</time></trkpt>
<trkpt lat="25.125463" lon="104.858097">
<time>2016-10-06T22:28:22Z</time></trkpt>
<trkpt lat="25.125503" lon="104.858067">
<time>2016-10-06T22:28:23Z</time></trkpt>
<trkpt lat="25.125563" lon="104.857997">
<time>2016-10-06T22:28:24Z</time></trkpt>
<trkpt lat="25.126012" lon="104.857637">
<time>2016-10-06T22:28:25Z</time></trkpt>
<trkpt lat="25.126851" lon="104.856966">
<time>2016-10-06T22:28:26Z</time></trkpt>
<trkpt lat="25.126901" lon="104.856926">
<time>2016-10-06T22:28:27Z</time></trkpt>
<trkpt lat="25.12739" lon="104.856526">
<time>2016-10-06T22:28:28Z</time></trkpt>
<trkpt lat="25.12766" lon="104.856316">
<time>2016-10-06T22:28:29Z</time></trkpt>
<trkpt lat="25.12771" lon="104.856236">
<time>2016-10-06T22:28:30Z</time></trkpt>
<trkpt lat="25.12783" lon="104.856136">
<time>2016-10-06T22:28:31Z</time></trkpt>
<trkpt lat="25.128149" lon="104.855836">
<time>2016-10-06T22:28:32Z</time></trkpt>
<trkpt lat="25.128608" lon="104.855275">
<time>2016-10-06T22:28:33Z</time></trkpt>
<trkpt lat="25.128828" lon="104.854985">
<time>2016-10-06T22:28:34Z</time></trkpt>
<trkpt lat="25.129028" lon="104.854765">
<time>2016-10-06T22:28:35Z</time></trkpt>
<trkpt lat="25.129127" lon="104.854645">
<time>2016-10-06T22:28:36Z</time></trkpt>
<trkpt lat="25.129137" lon="104.854625">
<time>2016-10-06T22:28:37Z</time></trkpt>
<trkpt lat="25.129227" lon="104.854505">
<time>2016-10-06T22:28:38Z</time></trkpt>
<trkpt lat="25.129267" lon="104.854445">
<time>2016-10-06T22:28:39Z</time></trkpt>
<trkpt lat="25.129367" lon="104.854325">
<time>2016-10-06T22:28:40Z</time></trkpt>
<trkpt lat="25.129477" lon="104.854165">
<time>2016-10-06T22:28:41Z</time></trkpt>
<trkpt lat="25.129586" lon="104.853924">
<time>2016-10-06T22:28:42Z</time></trkpt>
<trkpt lat="25.129656" lon="104.853724">
<time>2016-10-06T22:28:43Z</time></trkpt>
<trkpt lat="25.129765" lon="104.853484">
<time>2016-10-06T22:28:44Z</time></trkpt>
<trkpt lat="25.129885" lon="104.853234">
<time>2016-10-06T22:28:45Z</time></trkpt>
<trkpt lat="25.130035" lon="104.852994">
<time>2016-10-06T22:28:46Z</time></trkpt>
<trkpt lat="25.130324" lon="104.852614">
<time>2016-10-06T22:28:47Z</time></trkpt>
<trkpt lat="25.130853" lon="104.851983">
<time>2016-10-06T22:28:48Z</time></trkpt>
<trkpt lat="25.130993" lon="104.851783">
<time>2016-10-06T22:28:49Z</time></trkpt>
<trkpt lat="25.131112" lon="104.851583">
<time>2016-10-06T22:28:50Z</time></trkpt>
<trkpt lat="25.131242" lon="104.851323">
<time>2016-10-06T22:28:51Z</time></trkpt>
<trkpt lat="25.131322" lon="104.851102">
<time>2016-10-06T22:28:52Z</time></trkpt>
<trkpt lat="25.131371" lon="104.850922">
<time>2016-10-06T22:28:53Z</time></trkpt>
<trkpt lat="25.131471" lon="104.850672">
<time>2016-10-06T22:28:54Z</time></trkpt>
<trkpt lat="25.1316" lon="104.850392">
<time>2016-10-06T22:28:55Z</time></trkpt>
<trkpt lat="25.13175" lon="104.850172">
<time>2016-10-06T22:28:56Z</time></trkpt>
<trkpt lat="25.132987" lon="104.848531">
<time>2016-10-06T22:28:57Z</time></trkpt>
<trkpt lat="25.133306" lon="104.84813">
<time>2016-10-06T22:28:58Z</time></trkpt>
<trkpt lat="25.133706" lon="104.84769">
<time>2016-10-06T22:28:59Z</time></trkpt>
<trkpt lat="25.134005" lon="104.84739">
<time>2016-10-06T22:29:00Z</time></trkpt>
<trkpt lat="25.134105" lon="104.8473">
<time>2016-10-06T22:29:01Z</time></trkpt>
<trkpt lat="25.134195" lon="104.84723">
<time>2016-10-06T22:29:02Z</time></trkpt>
<trkpt lat="25.134295" lon="104.847179">
<time>2016-10-06T22:29:03Z</time></trkpt>
<trkpt lat="25.134405" lon="104.847109">
<time>2016-10-06T22:29:04Z</time></trkpt>
<trkpt lat="25.134594" lon="104.847019">
<time>2016-10-06T22:29:05Z</time></trkpt>
<trkpt lat="25.134794" lon="104.846929">
<time>2016-10-06T22:29:06Z</time></trkpt>
<trkpt lat="25.134974" lon="104.846809">
<time>2016-10-06T22:29:07Z</time></trkpt>
<trkpt lat="25.135124" lon="104.846659">
<time>2016-10-06T22:29:08Z</time></trkpt>
<trkpt lat="25.135263" lon="104.846469">
<time>2016-10-06T22:29:09Z</time></trkpt>
<trkpt lat="25.135353" lon="104.846309">
<time>2016-10-06T22:29:10Z</time></trkpt>
<trkpt lat="25.135403" lon="104.846209">
<time>2016-10-06T22:29:11Z</time></trkpt>
<trkpt lat="25.135533" lon="104.845988">
<time>2016-10-06T22:29:12Z</time></trkpt>
<trkpt lat="25.136091" lon="104.845298">
<time>2016-10-06T22:29:13Z</time></trkpt>
<trkpt lat="25.136471" lon="104.844848">
<time>2016-10-06T22:29:14Z</time></trkpt>
<trkpt lat="25.13656" lon="104.844737">
<time>2016-10-06T22:29:15Z</time></trkpt>
<trkpt lat="25.13658" lon="104.844727">
<time>2016-10-06T22:29:16Z</time></trkpt>
<trkpt lat="25.13683" lon="104.844447">
<time>2016-10-06T22:29:17Z</time></trkpt>
<trkpt lat="25.137069" lon="104.844137">
<time>2016-10-06T22:29:18Z</time></trkpt>
<trkpt lat="25.137458" lon="104.843646">
<time>2016-10-06T22:29:19Z</time></trkpt>
<trkpt lat="25.137528" lon="104.843576">
<time>2016-10-06T22:29:20Z</time></trkpt>
<trkpt lat="25.137638" lon="104.843426">
<time>2016-10-06T22:29:21Z</time></trkpt>
<trkpt lat="25.137688" lon="104.843356">
<time>2016-10-06T22:29:22Z</time></trkpt>
<trkpt lat="25.137728" lon="104.843296">
<time>2016-10-06T22:29:23Z</time></trkpt>
<trkpt lat="25.137788" lon="104.843186">
<time>2016-10-06T22:29:24Z</time></trkpt>
<trkpt lat="25.137837" lon="104.843096">
<time>2016-10-06T22:29:25Z</time></trkpt>
<trkpt lat="25.137897" lon="104.842986">
<time>2016-10-06T22:29:26Z</time></trkpt>
<trkpt lat="25.137987" lon="104.842796">
<time>2016-10-06T22:29:27Z</time></trkpt>
<trkpt lat="25.138116" lon="104.842536">
<time>2016-10-06T22:29:28Z</time></trkpt>
<trkpt lat="25.138176" lon="104.842425">
<time>2016-10-06T22:29:29Z</time></trkpt>
<trkpt lat="25.138246" lon="104.842325">
<time>2016-10-06T22:29:30Z</time></trkpt>
<trkpt lat="25.138336" lon="104.842195">
<time>2016-10-06T22:29:31Z</time></trkpt>
<trkpt lat="25.138525" lon="104.841955">
<time>2016-10-06T22:29:32Z</time></trkpt>
<trkpt lat="25.138615" lon="104.841855">
<time>2016-10-06T22:29:33Z</time></trkpt>
<trkpt lat="25.138695" lon="104.841745">
<time>2016-10-06T22:29:34Z</time></trkpt>
<trkpt lat="25.138785" lon="104.841615">
<time>2016-10-06T22:29:35Z</time></trkpt>
<trkpt lat="25.138834" lon="104.841525">
<time>2016-10-06T22:29:36Z</time></trkpt>
<trkpt lat="25.138884" lon="104.841425">
<time>2016-10-06T22:29:37Z</time></trkpt>
<trkpt lat="25.138934" lon="104.841324">
<time>2016-10-06T22:29:38Z</time></trkpt>
<trkpt lat="25.139014" lon="104.841134">
<time>2016-10-06T22:29:39Z</time></trkpt>
<trkpt lat="25.139113" lon="104.840914">
<time>2016-10-06T22:29:40Z</time></trkpt>
<trkpt lat="25.139233" lon="104.840634">
<time>2016-10-06T22:29:41Z</time></trkpt>
<trkpt lat="25.139273" lon="104.840544">
<time>2016-10-06T22:29:42Z</time></trkpt>
<trkpt lat="25.139323" lon="104.840454">
<time>2016-10-06T22:29:43Z</time></trkpt>
<trkpt lat="25.139392" lon="104.840314">
<time>2016-10-06T22:29:44Z</time></trkpt>
<trkpt lat="25.139442" lon="104.840233">
<time>2016-10-06T22:29:45Z</time></trkpt>
<trkpt lat="25.139492" lon="104.840153">
<time>2016-10-06T22:29:46Z</time></trkpt>
<trkpt lat="25.139552" lon="104.840063">
<time>2016-10-06T22:29:47Z</time></trkpt>
<trkpt lat="25.139672" lon="104.839913">
<time>2016-10-06T22:29:48Z</time></trkpt>
<trkpt lat="25.139791" lon="104.839793">
<time>2016-10-06T22:29:49Z</time></trkpt>
<trkpt lat="25.139911" lon="104.839693">
<time>2016-10-06T22:29:50Z</time></trkpt>
<trkpt lat="25.140011" lon="104.839623">
<time>2016-10-06T22:29:51Z</time></trkpt>
<trkpt lat="25.140171" lon="104.839503">
<time>2016-10-06T22:29:52Z</time></trkpt>
<trkpt lat="25.14039" lon="104.839363">
<time>2016-10-06T22:29:53Z</time></trkpt>
<trkpt lat="25.14062" lon="104.839212">
<time>2016-10-06T22:29:54Z</time></trkpt>
<trkpt lat="25.14085" lon="104.839062">
<time>2016-10-06T22:29:55Z</time></trkpt>
<trkpt lat="25.14101" lon="104.838952">
<time>2016-10-06T22:29:56Z</time></trkpt>
<trkpt lat="25.141179" lon="104.838842">
<time>2016-10-06T22:29:57Z</time></trkpt>
<trkpt lat="25.141239" lon="104.838792">
<time>2016-10-06T22:29:58Z</time></trkpt>
<trkpt lat="25.141309" lon="104.838742">
<time>2016-10-06T22:29:59Z</time></trkpt>
<trkpt lat="25.141379" lon="104.838672">
<time>2016-10-06T22:30:00Z</time></trkpt>
<trkpt lat="25.141449" lon="104.838602">
<time>2016-10-06T22:30:01Z</time></trkpt>
<trkpt lat="25.141509" lon="104.838532">
<time>2016-10-06T22:30:02Z</time></trkpt>
<trkpt lat="25.141589" lon="104.838442">
<time>2016-10-06T22:30:03Z</time></trkpt>
<trkpt lat="25.141678" lon="104.838302">
<time>2016-10-06T22:30:04Z</time></trkpt>
<trkpt lat="25.141758" lon="104.838171">
<time>2016-10-06T22:30:05Z</time></trkpt>
<trkpt lat="25.141878" lon="104.837951">
<time>2016-10-06T22:30:06Z</time></trkpt>
<trkpt lat="25.141968" lon="104.837801">
<time>2016-10-06T22:30:07Z</time></trkpt>
<trkpt lat="25.142047" lon="104.837641">
<time>2016-10-06T22:30:08Z</time></trkpt>
<trkpt lat="25.142137" lon="104.837461">
<time>2016-10-06T22:30:09Z</time></trkpt>
<trkpt lat="25.142237" lon="104.837281">
<time>2016-10-06T22:30:10Z</time></trkpt>
<trkpt lat="25.142326" lon="104.83712">
<time>2016-10-06T22:30:11Z</time></trkpt>
<trkpt lat="25.142406" lon="104.83696">
<time>2016-10-06T22:30:12Z</time></trkpt>
<trkpt lat="25.142506" lon="104.83678">
<time>2016-10-06T22:30:13Z</time></trkpt>
<trkpt lat="25.142605" lon="104.8366">
<time>2016-10-06T22:30:14Z</time></trkpt>
<trkpt lat="25.142745" lon="104.83635">
<time>2016-10-06T22:30:15Z</time></trkpt>
<trkpt lat="25.142884" lon="104.836079">
<time>2016-10-06T22:30:16Z</time></trkpt>
<trkpt lat="25.143004" lon="104.835859">
<time>2016-10-06T22:30:17Z</time></trkpt>
<trkpt lat="25.143054" lon="104.835769">
<time>2016-10-06T22:30:18Z</time></trkpt>
<trkpt lat="25.143123" lon="104.835659">
<time>2016-10-06T22:30:19Z</time></trkpt>
<trkpt lat="25.143153" lon="104.835619">
<time>2016-10-06T22:30:20Z</time></trkpt>
<trkpt lat="25.143223" lon="104.835529">
<time>2016-10-06T22:30:21Z</time></trkpt>
<trkpt lat="25.143313" lon="104.835449">
<time>2016-10-06T22:30:22Z</time></trkpt>
<trkpt lat="25.143383" lon="104.835409">
<time>2016-10-06T22:30:23Z</time></trkpt>
<trkpt lat="25.143473" lon="104.835379">
<time>2016-10-06T22:30:24Z</time></trkpt>
<trkpt lat="25.143563" lon="104.835359">
<time>2016-10-06T22:30:25Z</time></trkpt>
<trkpt lat="25.143633" lon="104.835349">
<time>2016-10-06T22:30:26Z</time></trkpt>
<trkpt lat="25.143923" lon="104.835319">
<time>2016-10-06T22:30:27Z</time></trkpt>
<trkpt lat="25.144203" lon="104.835279">
<time>2016-10-06T22:30:28Z</time></trkpt>
<trkpt lat="25.144433" lon="104.835249">
<time>2016-10-06T22:30:29Z</time></trkpt>
<trkpt lat="25.144653" lon="104.835219">
<time>2016-10-06T22:30:30Z</time></trkpt>
<trkpt lat="25.144882" lon="104.835189">
<time>2016-10-06T22:30:31Z</time></trkpt>
<trkpt lat="25.144962" lon="104.835179">
<time>2016-10-06T22:30:32Z</time></trkpt>
<trkpt lat="25.145102" lon="104.835159">
<time>2016-10-06T22:30:33Z</time></trkpt>
<trkpt lat="25.145282" lon="104.835139">
<time>2016-10-06T22:30:34Z</time></trkpt>
<trkpt lat="25.145432" lon="104.835118">
<time>2016-10-06T22:30:35Z</time></trkpt>
<trkpt lat="25.145562" lon="104.835098">
<time>2016-10-06T22:30:36Z</time></trkpt>
<trkpt lat="25.145662" lon="104.835088">
<time>2016-10-06T22:30:37Z</time></trkpt>
<trkpt lat="25.145732" lon="104.835078">
<time>2016-10-06T22:30:38Z</time></trkpt>
<trkpt lat="25.146342" lon="104.834998">
<time>2016-10-06T22:30:39Z</time></trkpt>
<trkpt lat="25.146882" lon="104.834928">
<time>2016-10-06T22:30:40Z</time></trkpt>
<trkpt lat="25.147312" lon="104.834868">
<time>2016-10-06T22:30:41Z</time></trkpt>
<trkpt lat="25.147482" lon="104.834848">
<time>2016-10-06T22:30:42Z</time></trkpt>
<trkpt lat="25.147702" lon="104.834808">
<time>2016-10-06T22:30:43Z</time></trkpt>
<trkpt lat="25.147911" lon="104.834738">
<time>2016-10-06T22:30:44Z</time></trkpt>
<trkpt lat="25.148101" lon="104.834658">
<time>2016-10-06T22:30:45Z</time></trkpt>
<trkpt lat="25.148281" lon="104.834558">
<time>2016-10-06T22:30:46Z</time></trkpt>
<trkpt lat="25.148421" lon="104.834458">
<time>2016-10-06T22:30:47Z</time></trkpt>
<trkpt lat="25.148551" lon="104.834328">
<time>2016-10-06T22:30:48Z</time></trkpt>
<trkpt lat="25.14871" lon="104.834147">
<time>2016-10-06T22:30:49Z</time></trkpt>
<trkpt lat="25.14896" lon="104.833807">
<time>2016-10-06T22:30:50Z</time></trkpt>
<trkpt lat="25.149249" lon="104.833417">
<time>2016-10-06T22:30:51Z</time></trkpt>
<trkpt lat="25.149369" lon="104.833247">
<time>2016-10-06T22:30:52Z</time></trkpt>
<trkpt lat="25.149598" lon="104.832906">
<time>2016-10-06T22:30:53Z</time></trkpt>
<trkpt lat="25.149668" lon="104.832806">
<time>2016-10-06T22:30:54Z</time></trkpt>
<trkpt lat="25.149738" lon="104.832736">
<time>2016-10-06T22:30:55Z</time></trkpt>
<trkpt lat="25.149827" lon="104.832666">
<time>2016-10-06T22:30:56Z</time></trkpt>
<trkpt lat="25.149927" lon="104.832606">
<time>2016-10-06T22:30:57Z</time></trkpt>
<trkpt lat="25.150007" lon="104.832566">
<time>2016-10-06T22:30:58Z</time></trkpt>
<trkpt lat="25.150087" lon="104.832546">
<time>2016-10-06T22:30:59Z</time></trkpt>
<trkpt lat="25.150157" lon="104.832536">
<time>2016-10-06T22:31:00Z</time></trkpt>
<trkpt lat="25.150257" lon="104.832526">
<time>2016-10-06T22:31:01Z</time></trkpt>
<trkpt lat="25.150527" lon="104.832536">
<time>2016-10-06T22:31:02Z</time></trkpt>
<trkpt lat="25.150647" lon="104.832526">
<time>2016-10-06T22:31:03Z</time></trkpt>
<trkpt lat="25.150787" lon="104.832516">
<time>2016-10-06T22:31:04Z</time></trkpt>
<trkpt lat="25.150907" lon="104.832486">
<time>2016-10-06T22:31:05Z</time></trkpt>
<trkpt lat="25.151047" lon="104.832426">
<time>2016-10-06T22:31:06Z</time></trkpt>
<trkpt lat="25.151187" lon="104.832336">
<time>2016-10-06T22:31:07Z</time></trkpt>
<trkpt lat="25.151486" lon="104.832175">
<time>2016-10-06T22:31:08Z</time></trkpt>
<trkpt lat="25.151826" lon="104.831995">
<time>2016-10-06T22:31:09Z</time></trkpt>
<trkpt lat="25.152106" lon="104.831825">
<time>2016-10-06T22:31:10Z</time></trkpt>
<trkpt lat="25.152246" lon="104.831735">
<time>2016-10-06T22:31:11Z</time></trkpt>
<trkpt lat="25.152355" lon="104.831625">
<time>2016-10-06T22:31:12Z</time></trkpt>
<trkpt lat="25.152435" lon="104.831525">
<time>2016-10-06T22:31:13Z</time></trkpt>
<trkpt lat="25.152575" lon="104.831345">
<time>2016-10-06T22:31:14Z</time></trkpt>
<trkpt lat="25.152635" lon="104.831264">
<time>2016-10-06T22:31:15Z</time></trkpt>
<trkpt lat="25.152725" lon="104.831194">
<time>2016-10-06T22:31:16Z</time></trkpt>
<trkpt lat="25.152814" lon="104.831134">
<time>2016-10-06T22:31:17Z</time></trkpt>
<trkpt lat="25.152904" lon="104.831094">
<time>2016-10-06T22:31:18Z</time></trkpt>
<trkpt lat="25.153004" lon="104.831064">
<time>2016-10-06T22:31:19Z</time></trkpt>
<trkpt lat="25.153134" lon="104.831034">
<time>2016-10-06T22:31:20Z</time></trkpt>
<trkpt lat="25.153564" lon="104.830954">
<time>2016-10-06T22:31:21Z</time></trkpt>
<trkpt lat="25.154064" lon="104.830854">
<time>2016-10-06T22:31:22Z</time></trkpt>
<trkpt lat="25.154244" lon="104.830824">
<time>2016-10-06T22:31:23Z</time></trkpt>
<trkpt lat="25.154434" lon="104.830824">
<time>2016-10-06T22:31:24Z</time></trkpt>
<trkpt lat="25.154644" lon="104.830864">
<time>2016-10-06T22:31:25Z</time></trkpt>
<trkpt lat="25.154814" lon="104.830934">
<time>2016-10-06T22:31:26Z</time></trkpt>
<trkpt lat="25.154954" lon="104.830994">
<time>2016-10-06T22:31:27Z</time></trkpt>
<trkpt lat="25.155264" lon="104.831114">
<time>2016-10-06T22:31:28Z</time></trkpt>
<trkpt lat="25.155574" lon="104.831264">
<time>2016-10-06T22:31:29Z</time></trkpt>
<trkpt lat="25.155855" lon="104.831374">
<time>2016-10-06T22:31:30Z</time></trkpt>
<trkpt lat="25.156115" lon="104.831505">
<time>2016-10-06T22:31:31Z</time></trkpt>
<trkpt lat="25.156395" lon="104.831625">
<time>2016-10-06T22:31:32Z</time></trkpt>
<trkpt lat="25.156635" lon="104.831715">
<time>2016-10-06T22:31:33Z</time></trkpt>
<trkpt lat="25.156825" lon="104.831755">
<time>2016-10-06T22:31:34Z</time></trkpt>
<trkpt lat="25.156985" lon="104.831755">
<time>2016-10-06T22:31:35Z</time></trkpt>
<trkpt lat="25.157145" lon="104.831725">
<time>2016-10-06T22:31:36Z</time></trkpt>
<trkpt lat="25.157315" lon="104.831665">
<time>2016-10-06T22:31:37Z</time></trkpt>
<trkpt lat="25.157465" lon="104.831605">
<time>2016-10-06T22:31:38Z</time></trkpt>
<trkpt lat="25.157605" lon="104.831555">
<time>2016-10-06T22:31:39Z</time></trkpt>
<trkpt lat="25.157645" lon="104.831535">
<time>2016-10-06T22:31:40Z</time></trkpt>
<trkpt lat="25.157695" lon="104.831535">
<time>2016-10-06T22:31:41Z</time></trkpt>
<trkpt lat="25.157745" lon="104.831525">
<time>2016-10-06T22:31:42Z</time></trkpt>
<trkpt lat="25.157785" lon="104.831535">
<time>2016-10-06T22:31:43Z</time></trkpt>
<trkpt lat="25.157815" lon="104.831545">
<time>2016-10-06T22:31:44Z</time></trkpt>
<trkpt lat="25.157855" lon="104.831555">
<time>2016-10-06T22:31:45Z</time></trkpt>
<trkpt lat="25.157905" lon="104.831575">
<time>2016-10-06T22:31:46Z</time></trkpt>
<trkpt lat="25.157935" lon="104.831595">
<time>2016-10-06T22:31:47Z</time></trkpt>
<trkpt lat="25.157995" lon="104.831645">
<time>2016-10-06T22:31:48Z</time></trkpt>
<trkpt lat="25.157995" lon="104.831645">
<time>2016-10-06T22:31:49Z</time></trkpt>
<trkpt lat="25.158085" lon="104.831474">
<time>2016-10-06T22:31:50Z</time></trkpt>
<trkpt lat="25.158304" lon="104.831134">
<time>2016-10-06T22:31:51Z</time></trkpt>
<trkpt lat="25.158603" lon="104.830704">
<time>2016-10-06T22:31:52Z</time></trkpt>
<trkpt lat="25.158993" lon="104.830423">
<time>2016-10-06T22:31:53Z</time></trkpt>
<trkpt lat="25.159043" lon="104.830373">
<time>2016-10-06T22:31:54Z</time></trkpt>
<trkpt lat="25.159262" lon="104.830043">
<time>2016-10-06T22:31:55Z</time></trkpt>
<trkpt lat="25.159502" lon="104.829863">
<time>2016-10-06T22:31:56Z</time></trkpt>
<trkpt lat="25.159551" lon="104.829793">
<time>2016-10-06T22:31:57Z</time></trkpt>
<trkpt lat="25.159691" lon="104.829603">
<time>2016-10-06T22:31:58Z</time></trkpt>
<trkpt lat="25.159721" lon="104.829492">
<time>2016-10-06T22:31:59Z</time></trkpt>
<trkpt lat="25.159721" lon="104.829362">
<time>2016-10-06T22:32:00Z</time></trkpt>
<trkpt lat="25.15977" lon="104.829072">
<time>2016-10-06T22:32:01Z</time></trkpt>
<trkpt lat="25.159989" lon="104.828632">
<time>2016-10-06T22:32:02Z</time></trkpt>
<trkpt lat="25.160039" lon="104.828481">
<time>2016-10-06T22:32:03Z</time></trkpt>
<trkpt lat="25.160148" lon="104.827971">
<time>2016-10-06T22:32:04Z</time></trkpt>
<trkpt lat="25.160188" lon="104.827741">
<time>2016-10-06T22:32:05Z</time></trkpt>
<trkpt lat="25.160197" lon="104.82741">
<time>2016-10-06T22:32:06Z</time></trkpt>
<trkpt lat="25.160186" lon="104.82717">
<time>2016-10-06T22:32:07Z</time></trkpt>
<trkpt lat="25.160176" lon="104.827">
<time>2016-10-06T22:32:08Z</time></trkpt>
<trkpt lat="25.160186" lon="104.82695">
<time>2016-10-06T22:32:09Z</time></trkpt>
<trkpt lat="25.160565" lon="104.826329">
<time>2016-10-06T22:32:10Z</time></trkpt>
<trkpt lat="25.160635" lon="104.826199">
<time>2016-10-06T22:32:11Z</time></trkpt>
<trkpt lat="25.160694" lon="104.826089">
<time>2016-10-06T22:32:12Z</time></trkpt>
<trkpt lat="25.160714" lon="104.825999">
<time>2016-10-06T22:32:13Z</time></trkpt>
<trkpt lat="25.160654" lon="104.825709">
<time>2016-10-06T22:32:14Z</time></trkpt>
<trkpt lat="25.160673" lon="104.825579">
<time>2016-10-06T22:32:15Z</time></trkpt>
<trkpt lat="25.160703" lon="104.825468">
<time>2016-10-06T22:32:16Z</time></trkpt>
<trkpt lat="25.160803" lon="104.825298">
<time>2016-10-06T22:32:17Z</time></trkpt>
<trkpt lat="25.160873" lon="104.825158">
<time>2016-10-06T22:32:18Z</time></trkpt>
<trkpt lat="25.160922" lon="104.825038">
<time>2016-10-06T22:32:19Z</time></trkpt>
<trkpt lat="25.160952" lon="104.824878">
<time>2016-10-06T22:32:20Z</time></trkpt>
<trkpt lat="25.160992" lon="104.824658">
<time>2016-10-06T22:32:21Z</time></trkpt>
<trkpt lat="25.161021" lon="104.824517">
<time>2016-10-06T22:32:22Z</time></trkpt>
<trkpt lat="25.161041" lon="104.824467">
<time>2016-10-06T22:32:23Z</time></trkpt>
<trkpt lat="25.161391" lon="104.824307">
<time>2016-10-06T22:32:24Z</time></trkpt>
<trkpt lat="25.161451" lon="104.824267">
<time>2016-10-06T22:32:25Z</time></trkpt>
<trkpt lat="25.161691" lon="104.824067">
<time>2016-10-06T22:32:26Z</time></trkpt>
<trkpt lat="25.16185" lon="104.823977">
<time>2016-10-06T22:32:27Z</time></trkpt>
<trkpt lat="25.16194" lon="104.823877">
<time>2016-10-06T22:32:28Z</time></trkpt>
<trkpt lat="25.16199" lon="104.823767">
<time>2016-10-06T22:32:29Z</time></trkpt>
<trkpt lat="25.16207" lon="104.823597">
<time>2016-10-06T22:32:30Z</time></trkpt>
<trkpt lat="25.1621" lon="104.823546">
<time>2016-10-06T22:32:31Z</time></trkpt>
<trkpt lat="25.16213" lon="104.823536">
<time>2016-10-06T22:32:32Z</time></trkpt>
<trkpt lat="25.162269" lon="104.823466">
<time>2016-10-06T22:32:33Z</time></trkpt>
<trkpt lat="25.162339" lon="104.823386">
<time>2016-10-06T22:32:34Z</time></trkpt>
<trkpt lat="25.162339" lon="104.823356">
<time>2016-10-06T22:32:35Z</time></trkpt>
<trkpt lat="25.162389" lon="104.823146">
<time>2016-10-06T22:32:36Z</time></trkpt>
<trkpt lat="25.162449" lon="104.823046">
<time>2016-10-06T22:32:37Z</time></trkpt>
<trkpt lat="25.162498" lon="104.822956">
<time>2016-10-06T22:32:38Z</time></trkpt>
<trkpt lat="25.162518" lon="104.822896">
<time>2016-10-06T22:32:39Z</time></trkpt>
<trkpt lat="25.162578" lon="104.822606">
<time>2016-10-06T22:32:40Z</time></trkpt>
<trkpt lat="25.162628" lon="104.822485">
<time>2016-10-06T22:32:41Z</time></trkpt>
<trkpt lat="25.162827" lon="104.822225">
<time>2016-10-06T22:32:42Z</time></trkpt>
<trkpt lat="25.163066" lon="104.821945">
<time>2016-10-06T22:32:43Z</time></trkpt>
<trkpt lat="25.163346" lon="104.821675">
<time>2016-10-06T22:32:44Z</time></trkpt>
<trkpt lat="25.163416" lon="104.821584">
<time>2016-10-06T22:32:45Z</time></trkpt>
<trkpt lat="25.163456" lon="104.821484">
<time>2016-10-06T22:32:46Z</time></trkpt>
<trkpt lat="25.163535" lon="104.821234">
<time>2016-10-06T22:32:47Z</time></trkpt>
<trkpt lat="25.163565" lon="104.821174">
<time>2016-10-06T22:32:48Z</time></trkpt>
<trkpt lat="25.163865" lon="104.820954">
<time>2016-10-06T22:32:49Z</time></trkpt>
<trkpt lat="25.164124" lon="104.820754">
<time>2016-10-06T22:32:50Z</time></trkpt>
<trkpt lat="25.164284" lon="104.820634">
<time>2016-10-06T22:32:51Z</time></trkpt>
<trkpt lat="25.164543" lon="104.820353">
<time>2016-10-06T22:32:52Z</time></trkpt>
<trkpt lat="25.164633" lon="104.820233">
<time>2016-10-06T22:32:53Z</time></trkpt>
<trkpt lat="25.164693" lon="104.820103">
<time>2016-10-06T22:32:54Z</time></trkpt>
<trkpt lat="25.164872" lon="104.819773">
<time>2016-10-06T22:32:55Z</time></trkpt>
<trkpt lat="25.165111" lon="104.819132">
<time>2016-10-06T22:32:56Z</time></trkpt>
<trkpt lat="25.165171" lon="104.819022">
<time>2016-10-06T22:32:57Z</time></trkpt>
<trkpt lat="25.165331" lon="104.818922">
<time>2016-10-06T22:32:58Z</time></trkpt>
<trkpt lat="25.16561" lon="104.818702">
<time>2016-10-06T22:32:59Z</time></trkpt>
<trkpt lat="25.16598" lon="104.818351">
<time>2016-10-06T22:33:00Z</time></trkpt>
<trkpt lat="25.166099" lon="104.818181">
<time>2016-10-06T22:33:01Z</time></trkpt>
<trkpt lat="25.166219" lon="104.817821">
<time>2016-10-06T22:33:02Z</time></trkpt>
<trkpt lat="25.166278" lon="104.81763">
<time>2016-10-06T22:33:03Z</time></trkpt>
<trkpt lat="25.166398" lon="104.81735">
<time>2016-10-06T22:33:04Z</time></trkpt>
<trkpt lat="25.166587" lon="104.81714">
<time>2016-10-06T22:33:05Z</time></trkpt>
<trkpt lat="25.166677" lon="104.81702">
<time>2016-10-06T22:33:06Z</time></trkpt>
<trkpt lat="25.166777" lon="104.81688">
<time>2016-10-06T22:33:07Z</time></trkpt>
<trkpt lat="25.166906" lon="104.81667">
<time>2016-10-06T22:33:08Z</time></trkpt>
<trkpt lat="25.167246" lon="104.816249">
<time>2016-10-06T22:33:09Z</time></trkpt>
<trkpt lat="25.167465" lon="104.815989">
<time>2016-10-06T22:33:10Z</time></trkpt>
<trkpt lat="25.167585" lon="104.815739">
<time>2016-10-06T22:33:11Z</time></trkpt>
<trkpt lat="25.167744" lon="104.815358">
<time>2016-10-06T22:33:12Z</time></trkpt>
<trkpt lat="25.167923" lon="104.814988">
<time>2016-10-06T22:33:13Z</time></trkpt>
<trkpt lat="25.168103" lon="104.814768">
<time>2016-10-06T22:33:14Z</time></trkpt>
<trkpt lat="25.168422" lon="104.814477">
<time>2016-10-06T22:33:15Z</time></trkpt>
<trkpt lat="25.168552" lon="104.814377">
<time>2016-10-06T22:33:16Z</time></trkpt>
<trkpt lat="25.168802" lon="104.814297">
<time>2016-10-06T22:33:17Z</time></trkpt>
<trkpt lat="25.169062" lon="104.814247">
<time>2016-10-06T22:33:18Z</time></trkpt>
<trkpt lat="25.169142" lon="104.814227">
<time>2016-10-06T22:33:19Z</time></trkpt>
<trkpt lat="25.169212" lon="104.814207">
<time>2016-10-06T22:33:20Z</time></trkpt>
<trkpt lat="25.169232" lon="104.814207">
<time>2016-10-06T22:33:21Z</time></trkpt>
<trkpt lat="25.169352" lon="104.814157">
<time>2016-10-06T22:33:22Z</time></trkpt>
<trkpt lat="25.169481" lon="104.814047">
<time>2016-10-06T22:33:23Z</time></trkpt>
<trkpt lat="25.169801" lon="104.813787">
<time>2016-10-06T22:33:24Z</time></trkpt>
<trkpt lat="25.169941" lon="104.813637">
<time>2016-10-06T22:33:25Z</time></trkpt>
<trkpt lat="25.17001" lon="104.813496">
<time>2016-10-06T22:33:26Z</time></trkpt>
<trkpt lat="25.17001" lon="104.813406">
<time>2016-10-06T22:33:27Z</time></trkpt>
<trkpt lat="25.16994" lon="104.813046">
<time>2016-10-06T22:33:28Z</time></trkpt>
<trkpt lat="25.169769" lon="104.812556">
<time>2016-10-06T22:33:29Z</time></trkpt>
<trkpt lat="25.169658" lon="104.812245">
<time>2016-10-06T22:33:30Z</time></trkpt>
<trkpt lat="25.169608" lon="104.812125">
<time>2016-10-06T22:33:31Z</time></trkpt>
<trkpt lat="25.169417" lon="104.811885">
<time>2016-10-06T22:33:32Z</time></trkpt>
<trkpt lat="25.169337" lon="104.811745">
<time>2016-10-06T22:33:33Z</time></trkpt>
<trkpt lat="25.169317" lon="104.811665">
<time>2016-10-06T22:33:34Z</time></trkpt>
<trkpt lat="25.169317" lon="104.811595">
<time>2016-10-06T22:33:35Z</time></trkpt>
<trkpt lat="25.169337" lon="104.811565">
<time>2016-10-06T22:33:36Z</time></trkpt>
<trkpt lat="25.169407" lon="104.811555">
<time>2016-10-06T22:33:37Z</time></trkpt>
<trkpt lat="25.169467" lon="104.811555">
<time>2016-10-06T22:33:38Z</time></trkpt>
<trkpt lat="25.169567" lon="104.811665">
<time>2016-10-06T22:33:39Z</time></trkpt>
<trkpt lat="25.169657" lon="104.811765">
<time>2016-10-06T22:33:40Z</time></trkpt>
<trkpt lat="25.169747" lon="104.811875">
<time>2016-10-06T22:33:41Z</time></trkpt>
<trkpt lat="25.169858" lon="104.811985">
<time>2016-10-06T22:33:42Z</time></trkpt>
<trkpt lat="25.169908" lon="104.812005">
<time>2016-10-06T22:33:43Z</time></trkpt>
<trkpt lat="25.169968" lon="104.812005">
<time>2016-10-06T22:33:44Z</time></trkpt>
<trkpt lat="25.170028" lon="104.812005">
<time>2016-10-06T22:33:45Z</time></trkpt>
<trkpt lat="25.170088" lon="104.811975">
<time>2016-10-06T22:33:46Z</time></trkpt>
<trkpt lat="25.170127" lon="104.811935">
<time>2016-10-06T22:33:47Z</time></trkpt>
<trkpt lat="25.170177" lon="104.811865">
<time>2016-10-06T22:33:48Z</time></trkpt>
<trkpt lat="25.170277" lon="104.811585">
<time>2016-10-06T22:33:49Z</time></trkpt>
<trkpt lat="25.170566" lon="104.811114">
<time>2016-10-06T22:33:50Z</time></trkpt>
<trkpt lat="25.170865" lon="104.810684">
<time>2016-10-06T22:33:51Z</time></trkpt>
<trkpt lat="25.170875" lon="104.810684">
<time>2016-10-06T22:33:52Z</time></trkpt>
<trkpt lat="25.170975" lon="104.810524">
<time>2016-10-06T22:33:53Z</time></trkpt>
<trkpt lat="25.171085" lon="104.810343">
<time>2016-10-06T22:33:54Z</time></trkpt>
<trkpt lat="25.171194" lon="104.810143">
<time>2016-10-06T22:33:55Z</time></trkpt>
<trkpt lat="25.171364" lon="104.809793">
<time>2016-10-06T22:33:56Z</time></trkpt>
<trkpt lat="25.171733" lon="104.809322">
<time>2016-10-06T22:33:57Z</time></trkpt>
<trkpt lat="25.171972" lon="104.809062">
<time>2016-10-06T22:33:58Z</time></trkpt>
<trkpt lat="25.172312" lon="104.808792">
<time>2016-10-06T22:33:59Z</time></trkpt>
<trkpt lat="25.172481" lon="104.808642">
<time>2016-10-06T22:34:00Z</time></trkpt>
<trkpt lat="25.172501" lon="104.808632">
<time>2016-10-06T22:34:01Z</time></trkpt>
<trkpt lat="25.172701" lon="104.808412">
<time>2016-10-06T22:34:02Z</time></trkpt>
<trkpt lat="25.172821" lon="104.808231">
<time>2016-10-06T22:34:03Z</time></trkpt>
<trkpt lat="25.17301" lon="104.807951">
<time>2016-10-06T22:34:04Z</time></trkpt>
<trkpt lat="25.17312" lon="104.807841">
<time>2016-10-06T22:34:05Z</time></trkpt>
<trkpt lat="25.17319" lon="104.807781">
<time>2016-10-06T22:34:06Z</time></trkpt>
<trkpt lat="25.17326" lon="104.807741">
<time>2016-10-06T22:34:07Z</time></trkpt>
<trkpt lat="25.17336" lon="104.807731">
<time>2016-10-06T22:34:08Z</time></trkpt>
<trkpt lat="25.1738" lon="104.807681">
<time>2016-10-06T22:34:09Z</time></trkpt>
<trkpt lat="25.17453" lon="104.807601">
<time>2016-10-06T22:34:10Z</time></trkpt>
<trkpt lat="25.174619" lon="104.807591">
<time>2016-10-06T22:34:11Z</time></trkpt>
<trkpt lat="25.174979" lon="104.807551">
<time>2016-10-06T22:34:12Z</time></trkpt>
<trkpt lat="25.175469" lon="104.807501">
<time>2016-10-06T22:34:13Z</time></trkpt>
<trkpt lat="25.175589" lon="104.807461">
<time>2016-10-06T22:34:14Z</time></trkpt>
<trkpt lat="25.175649" lon="104.807411">
<time>2016-10-06T22:34:15Z</time></trkpt>
<trkpt lat="25.175769" lon="104.807271">
<time>2016-10-06T22:34:16Z</time></trkpt>
<trkpt lat="25.175859" lon="104.80711">
<time>2016-10-06T22:34:17Z</time></trkpt>
<trkpt lat="25.175938" lon="104.807">
<time>2016-10-06T22:34:18Z</time></trkpt>
<trkpt lat="25.175948" lon="104.80699">
<time>2016-10-06T22:34:19Z</time></trkpt>
<trkpt lat="25.176018" lon="104.80695">
<time>2016-10-06T22:34:20Z</time></trkpt>
<trkpt lat="25.176118" lon="104.80689">
<time>2016-10-06T22:34:21Z</time></trkpt>
<trkpt lat="25.176228" lon="104.80688">
<time>2016-10-06T22:34:22Z</time></trkpt>
<trkpt lat="25.176298" lon="104.80688">
<time>2016-10-06T22:34:23Z</time></trkpt>
<trkpt lat="25.176468" lon="104.80685">
<time>2016-10-06T22:34:24Z</time></trkpt>
<trkpt lat="25.176598" lon="104.80681">
<time>2016-10-06T22:34:25Z</time></trkpt>
<trkpt lat="25.176668" lon="104.80676">
<time>2016-10-06T22:34:26Z</time></trkpt>
<trkpt lat="25.176728" lon="104.8067">
<time>2016-10-06T22:34:27Z</time></trkpt>
<trkpt lat="25.176758" lon="104.80667">
<time>2016-10-06T22:34:28Z</time></trkpt>
<trkpt lat="25.176828" lon="104.80658">
<time>2016-10-06T22:34:29Z</time></trkpt>
<trkpt lat="25.176897" lon="104.8065">
<time>2016-10-06T22:34:30Z</time></trkpt>
<trkpt lat="25.176977" lon="104.80644">
<time>2016-10-06T22:34:31Z</time></trkpt>
<trkpt lat="25.177067" lon="104.80641">
<time>2016-10-06T22:34:32Z</time></trkpt>
<trkpt lat="25.177577" lon="104.80633">
<time>2016-10-06T22:34:33Z</time></trkpt>
<trkpt lat="25.178017" lon="104.80625">
<time>2016-10-06T22:34:34Z</time></trkpt>
<trkpt lat="25.178277" lon="104.80623">
<time>2016-10-06T22:34:35Z</time></trkpt>
<trkpt lat="25.178537" lon="104.80622">
<time>2016-10-06T22:34:36Z</time></trkpt>
<trkpt lat="25.178577" lon="104.80622">
<time>2016-10-06T22:34:37Z</time></trkpt>
<trkpt lat="25.178687" lon="104.806179">
<time>2016-10-06T22:34:38Z</time></trkpt>
<trkpt lat="25.178757" lon="104.806129">
<time>2016-10-06T22:34:39Z</time></trkpt>
<trkpt lat="25.178936" lon="104.805939">
<time>2016-10-06T22:34:40Z</time></trkpt>
<trkpt lat="25.179086" lon="104.805759">
<time>2016-10-06T22:34:41Z</time></trkpt>
<trkpt lat="25.179166" lon="104.805689">
<time>2016-10-06T22:34:42Z</time></trkpt>
<trkpt lat="25.179206" lon="104.805659">
<time>2016-10-06T22:34:43Z</time></trkpt>
<trkpt lat="25.179316" lon="104.805629">
<time>2016-10-06T22:34:44Z</time></trkpt>
<trkpt lat="25.179376" lon="104.805619">
<time>2016-10-06T22:34:45Z</time></trkpt>
<trkpt lat="25.179426" lon="104.805569">
<time>2016-10-06T22:34:46Z</time></trkpt>
<trkpt lat="25.179446" lon="104.805519">
<time>2016-10-06T22:34:47Z</time></trkpt>
<trkpt lat="25.179456" lon="104.805449">
<time>2016-10-06T22:34:48Z</time></trkpt>
<trkpt lat="25.179495" lon="104.805339">
<time>2016-10-06T22:34:49Z</time></trkpt>
<trkpt lat="25.179575" lon="104.805149">
<time>2016-10-06T22:34:50Z</time></trkpt>
<trkpt lat="25.179675" lon="104.805008">
<time>2016-10-06T22:34:51Z</time></trkpt>
<trkpt lat="25.179874" lon="104.804808">
<time>2016-10-06T22:34:52Z</time></trkpt>
<trkpt lat="25.180074" lon="104.804588">
<time>2016-10-06T22:34:53Z</time></trkpt>
<trkpt lat="25.180234" lon="104.804498">
<time>2016-10-06T22:34:54Z</time></trkpt>
<trkpt lat="25.180294" lon="104.804458">
<time>2016-10-06T22:34:55Z</time></trkpt>
<trkpt lat="25.180384" lon="104.804448">
<time>2016-10-06T22:34:56Z</time></trkpt>
<trkpt lat="25.180504" lon="104.804418">
<time>2016-10-06T22:34:57Z</time></trkpt>
<trkpt lat="25.180644" lon="104.804338">
<time>2016-10-06T22:34:58Z</time></trkpt>
<trkpt lat="25.180953" lon="104.804178">
<time>2016-10-06T22:34:59Z</time></trkpt>
<trkpt lat="25.181233" lon="104.803988">
<time>2016-10-06T22:35:00Z</time></trkpt>
<trkpt lat="25.181553" lon="104.803887">
<time>2016-10-06T22:35:01Z</time></trkpt>
<trkpt lat="25.181693" lon="104.803817">
<time>2016-10-06T22:35:02Z</time></trkpt>
<trkpt lat="25.181743" lon="104.803807">
<time>2016-10-06T22:35:03Z</time></trkpt>
<trkpt lat="25.181813" lon="104.803807">
<time>2016-10-06T22:35:04Z</time></trkpt>
<trkpt lat="25.181873" lon="104.803807">
<time>2016-10-06T22:35:05Z</time></trkpt>
<trkpt lat="25.181933" lon="104.803807">
<time>2016-10-06T22:35:06Z</time></trkpt>
<trkpt lat="25.182043" lon="104.803787">
<time>2016-10-06T22:35:07Z</time></trkpt>
<trkpt lat="25.182152" lon="104.803727">
<time>2016-10-06T22:35:08Z</time></trkpt>
<trkpt lat="25.182332" lon="104.803587">
<time>2016-10-06T22:35:09Z</time></trkpt>
<trkpt lat="25.182512" lon="104.803397">
<time>2016-10-06T22:35:10Z</time></trkpt>
<trkpt lat="25.182812" lon="104.803197">
<time>2016-10-06T22:35:11Z</time></trkpt>
<trkpt lat="25.183041" lon="104.803097">
<time>2016-10-06T22:35:12Z</time></trkpt>
<trkpt lat="25.183481" lon="104.802907">
<time>2016-10-06T22:35:13Z</time></trkpt>
<trkpt lat="25.183701" lon="104.802857">
<time>2016-10-06T22:35:14Z</time></trkpt>
<trkpt lat="25.183931" lon="104.802857">
<time>2016-10-06T22:35:15Z</time></trkpt>
<trkpt lat="25.184261" lon="104.802907">
<time>2016-10-06T22:35:16Z</time></trkpt>
<trkpt lat="25.184461" lon="104.802937">
<time>2016-10-06T22:35:17Z</time></trkpt>
<trkpt lat="25.184471" lon="104.802937">
<time>2016-10-06T22:35:18Z</time></trkpt>
<trkpt lat="25.184551" lon="104.802937">
<time>2016-10-06T22:35:19Z</time></trkpt>
<trkpt lat="25.184651" lon="104.802937">
<time>2016-10-06T22:35:20Z</time></trkpt>
<trkpt lat="25.184731" lon="104.802917">
<time>2016-10-06T22:35:21Z</time></trkpt>
<trkpt lat="25.184921" lon="104.802826">
<time>2016-10-06T22:35:22Z</time></trkpt>
<trkpt lat="25.18526" lon="104.802626">
<time>2016-10-06T22:35:23Z</time></trkpt>
<trkpt lat="25.1859" lon="104.802306">
<time>2016-10-06T22:35:24Z</time></trkpt>
<trkpt lat="25.186509" lon="104.801966">
<time>2016-10-06T22:35:25Z</time></trkpt>
<trkpt lat="25.186919" lon="104.801746">
<time>2016-10-06T22:35:26Z</time></trkpt>
<trkpt lat="25.187179" lon="104.801605">
<time>2016-10-06T22:35:27Z</time></trkpt>
<trkpt lat="25.187259" lon="104.801575">
<time>2016-10-06T22:35:28Z</time></trkpt>
<trkpt lat="25.187359" lon="104.801555">
<time>2016-10-06T22:35:29Z</time></trkpt>
<trkpt lat="25.187489" lon="104.801555">
<time>2016-10-06T22:35:30Z</time></trkpt>
<trkpt lat="25.187919" lon="104.801585">
<time>2016-10-06T22:35:31Z</time></trkpt>
<trkpt lat="25.188019" lon="104.801565">
<time>2016-10-06T22:35:32Z</time></trkpt>
<trkpt lat="25.188139" lon="104.801555">
<time>2016-10-06T22:35:33Z</time></trkpt>
<trkpt lat="25.188169" lon="104.801555">
<time>2016-10-06T22:35:34Z</time></trkpt>
<trkpt lat="25.188249" lon="104.801555">
<time>2016-10-06T22:35:35Z</time></trkpt>
<trkpt lat="25.188408" lon="104.801515">
<time>2016-10-06T22:35:36Z</time></trkpt>
<trkpt lat="25.188578" lon="104.801405">
<time>2016-10-06T22:35:37Z</time></trkpt>
<trkpt lat="25.188938" lon="104.801205">
<time>2016-10-06T22:35:38Z</time></trkpt>
<trkpt lat="25.189128" lon="104.801015">
<time>2016-10-06T22:35:39Z</time></trkpt>
<trkpt lat="25.189277" lon="104.800815">
<time>2016-10-06T22:35:40Z</time></trkpt>
<trkpt lat="25.189387" lon="104.800705">
<time>2016-10-06T22:35:41Z</time></trkpt>
<trkpt lat="25.189567" lon="104.800585">
<time>2016-10-06T22:35:42Z</time></trkpt>
<trkpt lat="25.189727" lon="104.800464">
<time>2016-10-06T22:35:43Z</time></trkpt>
<trkpt lat="25.189887" lon="104.800424">
<time>2016-10-06T22:35:44Z</time></trkpt>
<trkpt lat="25.190156" lon="104.800294">
<time>2016-10-06T22:35:45Z</time></trkpt>
<trkpt lat="25.190326" lon="104.800234">
<time>2016-10-06T22:35:46Z</time></trkpt>
<trkpt lat="25.190396" lon="104.800174">
<time>2016-10-06T22:35:47Z</time></trkpt>
<trkpt lat="25.190446" lon="104.800124">
<time>2016-10-06T22:35:48Z</time></trkpt>
<trkpt lat="25.190506" lon="104.800094">
<time>2016-10-06T22:35:49Z</time></trkpt>
<trkpt lat="25.190606" lon="104.800074">
<time>2016-10-06T22:35:50Z</time></trkpt>
<trkpt lat="25.190716" lon="104.800004">
<time>2016-10-06T22:35:51Z</time></trkpt>
<trkpt lat="25.190796" lon="104.799954">
<time>2016-10-06T22:35:52Z</time></trkpt>
<trkpt lat="25.190876" lon="104.799854">
<time>2016-10-06T22:35:53Z</time></trkpt>
<trkpt lat="25.190936" lon="104.799784">
<time>2016-10-06T22:35:54Z</time></trkpt>
<trkpt lat="25.191025" lon="104.799674">
<time>2016-10-06T22:35:55Z</time></trkpt>
<trkpt lat="25.191075" lon="104.799644">
<time>2016-10-06T22:35:56Z</time></trkpt>
<trkpt lat="25.191115" lon="104.799634">
<time>2016-10-06T22:35:57Z</time></trkpt>
<trkpt lat="25.191135" lon="104.799634">
<time>2016-10-06T22:35:58Z</time></trkpt>
<trkpt lat="25.191235" lon="104.799604">
<time>2016-10-06T22:35:59Z</time></trkpt>
<trkpt lat="25.191385" lon="104.799554">
<time>2016-10-06T22:36:00Z</time></trkpt>
<trkpt lat="25.191545" lon="104.799424">
<time>2016-10-06T22:36:01Z</time></trkpt>
<trkpt lat="25.191605" lon="104.799364">
<time>2016-10-06T22:36:02Z</time></trkpt>
<trkpt lat="25.191635" lon="104.799344">
<time>2016-10-06T22:36:03Z</time></trkpt>
<trkpt lat="25.191685" lon="104.799334">
<time>2016-10-06T22:36:04Z</time></trkpt>
<trkpt lat="25.191795" lon="104.799334">
<time>2016-10-06T22:36:05Z</time></trkpt>
<trkpt lat="25.191875" lon="104.799334">
<time>2016-10-06T22:36:06Z</time></trkpt>
<trkpt lat="25.191945" lon="104.799334">
<time>2016-10-06T22:36:07Z</time></trkpt>
<trkpt lat="25.192015" lon="104.799273">
<time>2016-10-06T22:36:08Z</time></trkpt>
<trkpt lat="25.192244" lon="104.799083">
<time>2016-10-06T22:36:09Z</time></trkpt>
<trkpt lat="25.192394" lon="104.798983">
<time>2016-10-06T22:36:10Z</time></trkpt>
<trkpt lat="25.192504" lon="104.798903">
<time>2016-10-06T22:36:11Z</time></trkpt>
<trkpt lat="25.192564" lon="104.798843">
<time>2016-10-06T22:36:12Z</time></trkpt>
<trkpt lat="25.192644" lon="104.798753">
<time>2016-10-06T22:36:13Z</time></trkpt>
<trkpt lat="25.192714" lon="104.798643">
<time>2016-10-06T22:36:14Z</time></trkpt>
<trkpt lat="25.192823" lon="104.798493">
<time>2016-10-06T22:36:15Z</time></trkpt>
<trkpt lat="25.192883" lon="104.798433">
<time>2016-10-06T22:36:16Z</time></trkpt>
<trkpt lat="25.192933" lon="104.798333">
<time>2016-10-06T22:36:17Z</time></trkpt>
<trkpt lat="25.192963" lon="104.798283">
<time>2016-10-06T22:36:18Z</time></trkpt>
<trkpt lat="25.193013" lon="104.798233">
<time>2016-10-06T22:36:19Z</time></trkpt>
<trkpt lat="25.193143" lon="104.798223">
<time>2016-10-06T22:36:20Z</time></trkpt>
<trkpt lat="25.193263" lon="104.798203">
<time>2016-10-06T22:36:21Z</time></trkpt>
<trkpt lat="25.193333" lon="104.798163">
<time>2016-10-06T22:36:22Z</time></trkpt>
<trkpt lat="25.193403" lon="104.798093">
<time>2016-10-06T22:36:23Z</time></trkpt>
<trkpt lat="25.193483" lon="104.798073">
<time>2016-10-06T22:36:24Z</time></trkpt>
<trkpt lat="25.193583" lon="104.798053">
<time>2016-10-06T22:36:25Z</time></trkpt>
<trkpt lat="25.193663" lon="104.798043">
<time>2016-10-06T22:36:26Z</time></trkpt>
<trkpt lat="25.193763" lon="104.798003">
<time>2016-10-06T22:36:27Z</time></trkpt>
<trkpt lat="25.193862" lon="104.797942">
<time>2016-10-06T22:36:28Z</time></trkpt>
<trkpt lat="25.193962" lon="104.797852">
<time>2016-10-06T22:36:29Z</time></trkpt>
<trkpt lat="25.194002" lon="104.797742">
<time>2016-10-06T22:36:30Z</time></trkpt>
<trkpt lat="25.194042" lon="104.797652">
<time>2016-10-06T22:36:31Z</time></trkpt>
<trkpt lat="25.194092" lon="104.797592">
<time>2016-10-06T22:36:32Z</time></trkpt>
<trkpt lat="25.194342" lon="104.797492">
<time>2016-10-06T22:36:33Z</time></trkpt>
<trkpt lat="25.194412" lon="104.797462">
<time>2016-10-06T22:36:34Z</time></trkpt>
<trkpt lat="25.194492" lon="104.797422">
<time>2016-10-06T22:36:35Z</time></trkpt>
<trkpt lat="25.194542" lon="104.797372">
<time>2016-10-06T22:36:36Z</time></trkpt>
<trkpt lat="25.194591" lon="104.797342">
<time>2016-10-06T22:36:37Z</time></trkpt>
<trkpt lat="25.194671" lon="104.797332">
<time>2016-10-06T22:36:38Z</time></trkpt>
<trkpt lat="25.194821" lon="104.797292">
<time>2016-10-06T22:36:39Z</time></trkpt>
<trkpt lat="25.194911" lon="104.797282">
<time>2016-10-06T22:36:40Z</time></trkpt>
<trkpt lat="25.194941" lon="104.797272">
<time>2016-10-06T22:36:41Z</time></trkpt>
<trkpt lat="25.194961" lon="104.797272">
<time>2016-10-06T22:36:42Z</time></trkpt>
<trkpt lat="25.195031" lon="104.797222">
<time>2016-10-06T22:36:43Z</time></trkpt>
<trkpt lat="25.195141" lon="104.797112">
<time>2016-10-06T22:36:44Z</time></trkpt>
<trkpt lat="25.195291" lon="104.796952">
<time>2016-10-06T22:36:45Z</time></trkpt>
<trkpt lat="25.195371" lon="104.796822">
<time>2016-10-06T22:36:46Z</time></trkpt>
<trkpt lat="25.19541" lon="104.796722">
<time>2016-10-06T22:36:47Z</time></trkpt>
<trkpt lat="25.19546" lon="104.796601">
<time>2016-10-06T22:36:48Z</time></trkpt>
<trkpt lat="25.19549" lon="104.796581">
<time>2016-10-06T22:36:49Z</time></trkpt>
<trkpt lat="25.19554" lon="104.796561">
<time>2016-10-06T22:36:50Z</time></trkpt>
<trkpt lat="25.19564" lon="104.796541">
<time>2016-10-06T22:36:51Z</time></trkpt>
<trkpt lat="25.19572" lon="104.796521">
<time>2016-10-06T22:36:52Z</time></trkpt>
<trkpt lat="25.19581" lon="104.796491">
<time>2016-10-06T22:36:53Z</time></trkpt>
<trkpt lat="25.19589" lon="104.796441">
<time>2016-10-06T22:36:54Z</time></trkpt>
<trkpt lat="25.19599" lon="104.796331">
<time>2016-10-06T22:36:55Z</time></trkpt>
<trkpt lat="25.19604" lon="104.796281">
<time>2016-10-06T22:36:56Z</time></trkpt>
<trkpt lat="25.19607" lon="104.796261">
<time>2016-10-06T22:36:57Z</time></trkpt>
<trkpt lat="25.19611" lon="104.796241">
<time>2016-10-06T22:36:58Z</time></trkpt>
<trkpt lat="25.19616" lon="104.796231">
<time>2016-10-06T22:36:59Z</time></trkpt>
<trkpt lat="25.19634" lon="104.796211">
<time>2016-10-06T22:37:00Z</time></trkpt>
<trkpt lat="25.19658" lon="104.796161">
<time>2016-10-06T22:37:01Z</time></trkpt>
<trkpt lat="25.19674" lon="104.796141">
<time>2016-10-06T22:37:02Z</time></trkpt>
<trkpt lat="25.19681" lon="104.796131">
<time>2016-10-06T22:37:03Z</time></trkpt>
<trkpt lat="25.196859" lon="104.796111">
<time>2016-10-06T22:37:04Z</time></trkpt>
<trkpt lat="25.196919" lon="104.796091">
<time>2016-10-06T22:37:05Z</time></trkpt>
<trkpt lat="25.197059" lon="104.795961">
<time>2016-10-06T22:37:06Z</time></trkpt>
<trkpt lat="25.197169" lon="104.795891">
<time>2016-10-06T22:37:07Z</time></trkpt>
<trkpt lat="25.197319" lon="104.795821">
<time>2016-10-06T22:37:08Z</time></trkpt>
<trkpt lat="25.197409" lon="104.795791">
<time>2016-10-06T22:37:09Z</time></trkpt>
<trkpt lat="25.197589" lon="104.795731">
<time>2016-10-06T22:37:10Z</time></trkpt>
<trkpt lat="25.197749" lon="104.795651">
<time>2016-10-06T22:37:11Z</time></trkpt>
<trkpt lat="25.197759" lon="104.795641">
<time>2016-10-06T22:37:12Z</time></trkpt>
<trkpt lat="25.197849" lon="104.795591">
<time>2016-10-06T22:37:13Z</time></trkpt>
<trkpt lat="25.197979" lon="104.795561">
<time>2016-10-06T22:37:14Z</time></trkpt>
<trkpt lat="25.198089" lon="104.795531">
<time>2016-10-06T22:37:15Z</time></trkpt>
<trkpt lat="25.198148" lon="104.795501">
<time>2016-10-06T22:37:16Z</time></trkpt>
<trkpt lat="25.198218" lon="104.795441">
<time>2016-10-06T22:37:17Z</time></trkpt>
<trkpt lat="25.198398" lon="104.795321">
<time>2016-10-06T22:37:18Z</time></trkpt>
<trkpt lat="25.198598" lon="104.79523">
<time>2016-10-06T22:37:19Z</time></trkpt>
<trkpt lat="25.198808" lon="104.79515">
<time>2016-10-06T22:37:20Z</time></trkpt>
<trkpt lat="25.198888" lon="104.79511">
<time>2016-10-06T22:37:21Z</time></trkpt>
<trkpt lat="25.198958" lon="104.79505">
<time>2016-10-06T22:37:22Z</time></trkpt>
<trkpt lat="25.199078" lon="104.79493">
<time>2016-10-06T22:37:23Z</time></trkpt>
<trkpt lat="25.199197" lon="104.79485">
<time>2016-10-06T22:37:24Z</time></trkpt>
<trkpt lat="25.199277" lon="104.79482">
<time>2016-10-06T22:37:25Z</time></trkpt>
<trkpt lat="25.199327" lon="104.79482">
<time>2016-10-06T22:37:26Z</time></trkpt>
<trkpt lat="25.199417" lon="104.79481">
<time>2016-10-06T22:37:27Z</time></trkpt>
<trkpt lat="25.199617" lon="104.79479">
<time>2016-10-06T22:37:28Z</time></trkpt>
<trkpt lat="25.199787" lon="104.79478">
<time>2016-10-06T22:37:29Z</time></trkpt>
<trkpt lat="25.199907" lon="104.79472">
<time>2016-10-06T22:37:30Z</time></trkpt>
<trkpt lat="25.199967" lon="104.79469">
<time>2016-10-06T22:37:31Z</time></trkpt>
<trkpt lat="25.200007" lon="104.79464">
<time>2016-10-06T22:37:32Z</time></trkpt>
<trkpt lat="25.200037" lon="104.79459">
<time>2016-10-06T22:37:33Z</time></trkpt>
<trkpt lat="25.200077" lon="104.79451">
<time>2016-10-06T22:37:34Z</time></trkpt>
<trkpt lat="25.200117" lon="104.79447">
<time>2016-10-06T22:37:35Z</time></trkpt>
<trkpt lat="25.200257" lon="104.79429">
<time>2016-10-06T22:37:36Z</time></trkpt>
<trkpt lat="25.200307" lon="104.79426">
<time>2016-10-06T22:37:37Z</time></trkpt>
<trkpt lat="25.200356" lon="104.79424">
<time>2016-10-06T22:37:38Z</time></trkpt>
<trkpt lat="25.200506" lon="104.79423">
<time>2016-10-06T22:37:39Z</time></trkpt>
<trkpt lat="25.200906" lon="104.79423">
<time>2016-10-06T22:37:40Z</time></trkpt>
<trkpt lat="25.201206" lon="104.79421">
<time>2016-10-06T22:37:41Z</time></trkpt>
<trkpt lat="25.201256" lon="104.79421">
<time>2016-10-06T22:37:42Z</time></trkpt>
<trkpt lat="25.201256" lon="104.79421">
<time>2016-10-06T22:37:43Z</time></trkpt>
<trkpt lat="25.201256" lon="104.79423">
<time>2016-10-06T22:37:44Z</time></trkpt>
<trkpt lat="25.201266" lon="104.79424">
<time>2016-10-06T22:37:45Z</time></trkpt>
<trkpt lat="25.201276" lon="104.79426">
<time>2016-10-06T22:37:46Z</time></trkpt>
<trkpt lat="25.201297" lon="104.79428">
<time>2016-10-06T22:37:47Z</time></trkpt>
<trkpt lat="25.201357" lon="104.79433">
<time>2016-10-06T22:37:48Z</time></trkpt>
<trkpt lat="25.201437" lon="104.79441">
<time>2016-10-06T22:37:49Z</time></trkpt>
<trkpt lat="25.201487" lon="104.79444">
<time>2016-10-06T22:37:50Z</time></trkpt>
<trkpt lat="25.201547" lon="104.79448">
<time>2016-10-06T22:37:51Z</time></trkpt>
<trkpt lat="25.201577" lon="104.79449">
<time>2016-10-06T22:37:52Z</time></trkpt>
<trkpt lat="25.201647" lon="104.79451">
<time>2016-10-06T22:37:53Z</time></trkpt>
<trkpt lat="25.201717" lon="104.79453">
<time>2016-10-06T22:37:54Z</time></trkpt>
<trkpt lat="25.201787" lon="104.79454">
<time>2016-10-06T22:37:55Z</time></trkpt>
<trkpt lat="25.201827" lon="104.79453">
<time>2016-10-06T22:37:56Z</time></trkpt>
<trkpt lat="25.201867" lon="104.79453">
<time>2016-10-06T22:37:57Z</time></trkpt>
<trkpt lat="25.201947" lon="104.7945">
<time>2016-10-06T22:37:58Z</time></trkpt>
<trkpt lat="25.202017" lon="104.79447">
<time>2016-10-06T22:37:59Z</time></trkpt>
<trkpt lat="25.202097" lon="104.79445">
<time>2016-10-06T22:38:00Z</time></trkpt>
<trkpt lat="25.202167" lon="104.79443">
<time>2016-10-06T22:38:01Z</time></trkpt>
<trkpt lat="25.202387" lon="104.79439">
<time>2016-10-06T22:38:02Z</time></trkpt>
<trkpt lat="25.202537" lon="104.79437">
<time>2016-10-06T22:38:03Z</time></trkpt>
<trkpt lat="25.202647" lon="104.79437">
<time>2016-10-06T22:38:04Z</time></trkpt>
<trkpt lat="25.202817" lon="104.79437">
<time>2016-10-06T22:38:05Z</time></trkpt>
<trkpt lat="25.202907" lon="104.79436">
<time>2016-10-06T22:38:06Z</time></trkpt>
<trkpt lat="25.202977" lon="104.79434">
<time>2016-10-06T22:38:07Z</time></trkpt>
<trkpt lat="25.203207" lon="104.7943">
<time>2016-10-06T22:38:08Z</time></trkpt>
<trkpt lat="25.203476" lon="104.79422">
<time>2016-10-06T22:38:09Z</time></trkpt>
<trkpt lat="25.203686" lon="104.79417">
<time>2016-10-06T22:38:10Z</time></trkpt>
<trkpt lat="25.203726" lon="104.79415">
<time>2016-10-06T22:38:11Z</time></trkpt>
<trkpt lat="25.203786" lon="104.79412">
<time>2016-10-06T22:38:12Z</time></trkpt>
<trkpt lat="25.203846" lon="104.79408">
<time>2016-10-06T22:38:13Z</time></trkpt>
<trkpt lat="25.203926" lon="104.794009">
<time>2016-10-06T22:38:14Z</time></trkpt>
<trkpt lat="25.204016" lon="104.793929">
<time>2016-10-06T22:38:15Z</time></trkpt>
<trkpt lat="25.204116" lon="104.793849">
<time>2016-10-06T22:38:16Z</time></trkpt>
<trkpt lat="25.204186" lon="104.793799">
<time>2016-10-06T22:38:17Z</time></trkpt>
<trkpt lat="25.204226" lon="104.793769">
<time>2016-10-06T22:38:18Z</time></trkpt>
<trkpt lat="25.204266" lon="104.793749">
<time>2016-10-06T22:38:19Z</time></trkpt>
<trkpt lat="25.204316" lon="104.793719">
<time>2016-10-06T22:38:20Z</time></trkpt>
<trkpt lat="25.204376" lon="104.793699">
<time>2016-10-06T22:38:21Z</time></trkpt>
<trkpt lat="25.204446" lon="104.793679">
<time>2016-10-06T22:38:22Z</time></trkpt>
<trkpt lat="25.204576" lon="104.793659">
<time>2016-10-06T22:38:23Z</time></trkpt>
<trkpt lat="25.204745" lon="104.793619">
<time>2016-10-06T22:38:24Z</time></trkpt>
<trkpt lat="25.204865" lon="104.793609">
<time>2016-10-06T22:38:25Z</time></trkpt>
<trkpt lat="25.204935" lon="104.793609">
<time>2016-10-06T22:38:26Z</time></trkpt>
<trkpt lat="25.204995" lon="104.793619">
<time>2016-10-06T22:38:27Z</time></trkpt>
<trkpt lat="25.205045" lon="104.793629">
<time>2016-10-06T22:38:28Z</time></trkpt>
<trkpt lat="25.205116" lon="104.793659">
<time>2016-10-06T22:38:29Z</time></trkpt>
<trkpt lat="25.205186" lon="104.793689">
<time>2016-10-06T22:38:30Z</time></trkpt>
<trkpt lat="25.205246" lon="104.793719">
<time>2016-10-06T22:38:31Z</time></trkpt>
<trkpt lat="25.205286" lon="104.793749">
<time>2016-10-06T22:38:32Z</time></trkpt>
<trkpt lat="25.205346" lon="104.793799">
<time>2016-10-06T22:38:33Z</time></trkpt>
<trkpt lat="25.205376" lon="104.793839">
<time>2016-10-06T22:38:34Z</time></trkpt>
<trkpt lat="25.205416" lon="104.793859">
<time>2016-10-06T22:38:35Z</time></trkpt>
<trkpt lat="25.205436" lon="104.793869">
<time>2016-10-06T22:38:36Z</time></trkpt>
<trkpt lat="25.205496" lon="104.793889">
<time>2016-10-06T22:38:37Z</time></trkpt>
<trkpt lat="25.205536" lon="104.793899">
<time>2016-10-06T22:38:38Z</time></trkpt>
<trkpt lat="25.205596" lon="104.793909">
<time>2016-10-06T22:38:39Z</time></trkpt>
<trkpt lat="25.205686" lon="104.793909">
<time>2016-10-06T22:38:40Z</time></trkpt>
<trkpt lat="25.205776" lon="104.793879">
<time>2016-10-06T22:38:41Z</time></trkpt>
<trkpt lat="25.205826" lon="104.793869">
<time>2016-10-06T22:38:42Z</time></trkpt>
<trkpt lat="25.205906" lon="104.793829">
<time>2016-10-06T22:38:43Z</time></trkpt>
<trkpt lat="25.205966" lon="104.793799">
<time>2016-10-06T22:38:44Z</time></trkpt>
<trkpt lat="25.206056" lon="104.793739">
<time>2016-10-06T22:38:45Z</time></trkpt>
<trkpt lat="25.206195" lon="104.793639">
<time>2016-10-06T22:38:46Z</time></trkpt>
<trkpt lat="25.206415" lon="104.793469">
<time>2016-10-06T22:38:47Z</time></trkpt>
<trkpt lat="25.206585" lon="104.793329">
<time>2016-10-06T22:38:48Z</time></trkpt>
<trkpt lat="25.206765" lon="104.793139">
<time>2016-10-06T22:38:49Z</time></trkpt>
<trkpt lat="25.206835" lon="104.793069">
<time>2016-10-06T22:38:50Z</time></trkpt>
<trkpt lat="25.206914" lon="104.793009">
<time>2016-10-06T22:38:51Z</time></trkpt>
<trkpt lat="25.206994" lon="104.792949">
<time>2016-10-06T22:38:52Z</time></trkpt>
<trkpt lat="25.207214" lon="104.792799">
<time>2016-10-06T22:38:53Z</time></trkpt>
<trkpt lat="25.207294" lon="104.792749">
<time>2016-10-06T22:38:54Z</time></trkpt>
<trkpt lat="25.207344" lon="104.792719">
<time>2016-10-06T22:38:55Z</time></trkpt>
<trkpt lat="25.207384" lon="104.792699">
<time>2016-10-06T22:38:56Z</time></trkpt>
<trkpt lat="25.207434" lon="104.792679">
<time>2016-10-06T22:38:57Z</time></trkpt>
<trkpt lat="25.207514" lon="104.792659">
<time>2016-10-06T22:38:58Z</time></trkpt>
<trkpt lat="25.207574" lon="104.792649">
<time>2016-10-06T22:38:59Z</time></trkpt>
<trkpt lat="25.207624" lon="104.792649">
<time>2016-10-06T22:39:00Z</time></trkpt>
<trkpt lat="25.207694" lon="104.792649">
<time>2016-10-06T22:39:01Z</time></trkpt>
<trkpt lat="25.207734" lon="104.792659">
<time>2016-10-06T22:39:02Z</time></trkpt>
<trkpt lat="25.207784" lon="104.792669">
<time>2016-10-06T22:39:03Z</time></trkpt>
<trkpt lat="25.207844" lon="104.792699">
<time>2016-10-06T22:39:04Z</time></trkpt>
<trkpt lat="25.207914" lon="104.792759">
<time>2016-10-06T22:39:05Z</time></trkpt>
<trkpt lat="25.207974" lon="104.792819">
<time>2016-10-06T22:39:06Z</time></trkpt>
<trkpt lat="25.208034" lon="104.792889">
<time>2016-10-06T22:39:07Z</time></trkpt>
<trkpt lat="25.208124" lon="104.793029">
<time>2016-10-06T22:39:08Z</time></trkpt>
<trkpt lat="25.208175" lon="104.793109">
<time>2016-10-06T22:39:09Z</time></trkpt>
<trkpt lat="25.208215" lon="104.793169">
<time>2016-10-06T22:39:10Z</time></trkpt>
<trkpt lat="25.208295" lon="104.793249">
<time>2016-10-06T22:39:11Z</time></trkpt>
<trkpt lat="25.208385" lon="104.793349">
<time>2016-10-06T22:39:12Z</time></trkpt>
<trkpt lat="25.208455" lon="104.793419">
<time>2016-10-06T22:39:13Z</time></trkpt>
<trkpt lat="25.208545" lon="104.793499">
<time>2016-10-06T22:39:14Z</time></trkpt>
<trkpt lat="25.208816" lon="104.793719">
<time>2016-10-06T22:39:15Z</time></trkpt>
<trkpt lat="25.208906" lon="104.793809">
<time>2016-10-06T22:39:16Z</time></trkpt>
<trkpt lat="25.208946" lon="104.793859">
<time>2016-10-06T22:39:17Z</time></trkpt>
<trkpt lat="25.208976" lon="104.793879">
<time>2016-10-06T22:39:18Z</time></trkpt>
<trkpt lat="25.208996" lon="104.793929">
<time>2016-10-06T22:39:19Z</time></trkpt>
<trkpt lat="25.209026" lon="104.793969">
<time>2016-10-06T22:39:20Z</time></trkpt>
<trkpt lat="25.209066" lon="104.794079">
<time>2016-10-06T22:39:21Z</time></trkpt>
<trkpt lat="25.209116" lon="104.794219">
<time>2016-10-06T22:39:22Z</time></trkpt>
<trkpt lat="25.209207" lon="104.79453">
<time>2016-10-06T22:39:23Z</time></trkpt>
<trkpt lat="25.209327" lon="104.79491">
<time>2016-10-06T22:39:24Z</time></trkpt>
<trkpt lat="25.209458" lon="104.79535">
<time>2016-10-06T22:39:25Z</time></trkpt>
<trkpt lat="25.209569" lon="104.79567">
<time>2016-10-06T22:39:26Z</time></trkpt>
<trkpt lat="25.209639" lon="104.79584">
<time>2016-10-06T22:39:27Z</time></trkpt>
<trkpt lat="25.209659" lon="104.79587">
<time>2016-10-06T22:39:28Z</time></trkpt>
<trkpt lat="25.209679" lon="104.7959">
<time>2016-10-06T22:39:29Z</time></trkpt>
<trkpt lat="25.209709" lon="104.79593">
<time>2016-10-06T22:39:30Z</time></trkpt>
<trkpt lat="25.209749" lon="104.79596">
<time>2016-10-06T22:39:31Z</time></trkpt>
<trkpt lat="25.209859" lon="104.796031">
<time>2016-10-06T22:39:32Z</time></trkpt>
<trkpt lat="25.210159" lon="104.796231">
<time>2016-10-06T22:39:33Z</time></trkpt>
<trkpt lat="25.21038" lon="104.796371">
<time>2016-10-06T22:39:34Z</time></trkpt>
<trkpt lat="25.21042" lon="104.796381">
<time>2016-10-06T22:39:35Z</time></trkpt>
<trkpt lat="25.21045" lon="104.796391">
<time>2016-10-06T22:39:36Z</time></trkpt>
<trkpt lat="25.21048" lon="104.796401">
<time>2016-10-06T22:39:37Z</time></trkpt>
<trkpt lat="25.21052" lon="104.796411">
<time>2016-10-06T22:39:38Z</time></trkpt>
<trkpt lat="25.21057" lon="104.796411">
<time>2016-10-06T22:39:39Z</time></trkpt>
<trkpt lat="25.21062" lon="104.796401">
<time>2016-10-06T22:39:40Z</time></trkpt>
<trkpt lat="25.21071" lon="104.796361">
<time>2016-10-06T22:39:41Z</time></trkpt>
<trkpt lat="25.210989" lon="104.796251">
<time>2016-10-06T22:39:42Z</time></trkpt>
<trkpt lat="25.211209" lon="104.796131">
<time>2016-10-06T22:39:43Z</time></trkpt>
<trkpt lat="25.211259" lon="104.796111">
<time>2016-10-06T22:39:44Z</time></trkpt>
<trkpt lat="25.211289" lon="104.796101">
<time>2016-10-06T22:39:45Z</time></trkpt>
<trkpt lat="25.211329" lon="104.796091">
<time>2016-10-06T22:39:46Z</time></trkpt>
<trkpt lat="25.211359" lon="104.796091">
<time>2016-10-06T22:39:47Z</time></trkpt>
<trkpt lat="25.211399" lon="104.79608">
<time>2016-10-06T22:39:48Z</time></trkpt>
<trkpt lat="25.211439" lon="104.796091">
<time>2016-10-06T22:39:49Z</time></trkpt>
<trkpt lat="25.211619" lon="104.796111">
<time>2016-10-06T22:39:50Z</time></trkpt>
<trkpt lat="25.211839" lon="104.796161">
<time>2016-10-06T22:39:51Z</time></trkpt>
<trkpt lat="25.212019" lon="104.796181">
<time>2016-10-06T22:39:52Z</time></trkpt>
<trkpt lat="25.212149" lon="104.796191">
<time>2016-10-06T22:39:53Z</time></trkpt>
<trkpt lat="25.212259" lon="104.796181">
<time>2016-10-06T22:39:54Z</time></trkpt>
<trkpt lat="25.212329" lon="104.796171">
<time>2016-10-06T22:39:55Z</time></trkpt>
<trkpt lat="25.212419" lon="104.79614">
<time>2016-10-06T22:39:56Z</time></trkpt>
<trkpt lat="25.212529" lon="104.79608">
<time>2016-10-06T22:39:57Z</time></trkpt>
<trkpt lat="25.212619" lon="104.79604">
<time>2016-10-06T22:39:58Z</time></trkpt>
<trkpt lat="25.212689" lon="104.79602">
<time>2016-10-06T22:39:59Z</time></trkpt>
<trkpt lat="25.212829" lon="104.79599">
<time>2016-10-06T22:40:00Z</time></trkpt>
<trkpt lat="25.212989" lon="104.79595">
<time>2016-10-06T22:40:01Z</time></trkpt>
<trkpt lat="25.213169" lon="104.79591">
<time>2016-10-06T22:40:02Z</time></trkpt>
<trkpt lat="25.213289" lon="104.79587">
<time>2016-10-06T22:40:03Z</time></trkpt>
<trkpt lat="25.213349" lon="104.79586">
<time>2016-10-06T22:40:04Z</time></trkpt>
<trkpt lat="25.213389" lon="104.79586">
<time>2016-10-06T22:40:05Z</time></trkpt>
<trkpt lat="25.213449" lon="104.79586">
<time>2016-10-06T22:40:06Z</time></trkpt>
<trkpt lat="25.213489" lon="104.79587">
<time>2016-10-06T22:40:07Z</time></trkpt>
<trkpt lat="25.213529" lon="104.79589">
<time>2016-10-06T22:40:08Z</time></trkpt>
<trkpt lat="25.213599" lon="104.79592">
<time>2016-10-06T22:40:09Z</time></trkpt>
<trkpt lat="25.213669" lon="104.79596">
<time>2016-10-06T22:40:10Z</time></trkpt>
<trkpt lat="25.213789" lon="104.79606">
<time>2016-10-06T22:40:11Z</time></trkpt>
<trkpt lat="25.213869" lon="104.79614">
<time>2016-10-06T22:40:12Z</time></trkpt>
<trkpt lat="25.213899" lon="104.79618">
<time>2016-10-06T22:40:13Z</time></trkpt>
<trkpt lat="25.213959" lon="104.796281">
<time>2016-10-06T22:40:14Z</time></trkpt>
<trkpt lat="25.21405" lon="104.796421">
<time>2016-10-06T22:40:15Z</time></trkpt>
<trkpt lat="25.21419" lon="104.796621">
<time>2016-10-06T22:40:16Z</time></trkpt>
<trkpt lat="25.21437" lon="104.796871">
<time>2016-10-06T22:40:17Z</time></trkpt>
<trkpt lat="25.214511" lon="104.797051">
<time>2016-10-06T22:40:18Z</time></trkpt>
<trkpt lat="25.214691" lon="104.797291">
<time>2016-10-06T22:40:19Z</time></trkpt>
<trkpt lat="25.214821" lon="104.797481">
<time>2016-10-06T22:40:20Z</time></trkpt>
<trkpt lat="25.214932" lon="104.797641">
<time>2016-10-06T22:40:21Z</time></trkpt>
<trkpt lat="25.215082" lon="104.797822">
<time>2016-10-06T22:40:22Z</time></trkpt>
<trkpt lat="25.215282" lon="104.798052">
<time>2016-10-06T22:40:23Z</time></trkpt>
<trkpt lat="25.215382" lon="104.798152">
<time>2016-10-06T22:40:24Z</time></trkpt>
<trkpt lat="25.215412" lon="104.798182">
<time>2016-10-06T22:40:25Z</time></trkpt>
<trkpt lat="25.215472" lon="104.798222">
<time>2016-10-06T22:40:26Z</time></trkpt>
<trkpt lat="25.215512" lon="104.798242">
<time>2016-10-06T22:40:27Z</time></trkpt>
<trkpt lat="25.215573" lon="104.798272">
<time>2016-10-06T22:40:28Z</time></trkpt>
<trkpt lat="25.215713" lon="104.798332">
<time>2016-10-06T22:40:29Z</time></trkpt>
<trkpt lat="25.216113" lon="104.798492">
<time>2016-10-06T22:40:30Z</time></trkpt>
<trkpt lat="25.216393" lon="104.798592">
<time>2016-10-06T22:40:31Z</time></trkpt>
<trkpt lat="25.216573" lon="104.798642">
<time>2016-10-06T22:40:32Z</time></trkpt>
<trkpt lat="25.216603" lon="104.798652">
<time>2016-10-06T22:40:33Z</time></trkpt>
<trkpt lat="25.216643" lon="104.798652">
<time>2016-10-06T22:40:34Z</time></trkpt>
<trkpt lat="25.216693" lon="104.798652">
<time>2016-10-06T22:40:35Z</time></trkpt>
<trkpt lat="25.216763" lon="104.798632">
<time>2016-10-06T22:40:36Z</time></trkpt>
<trkpt lat="25.216893" lon="104.798582">
<time>2016-10-06T22:40:37Z</time></trkpt>
<trkpt lat="25.216993" lon="104.798552">
<time>2016-10-06T22:40:38Z</time></trkpt>
<trkpt lat="25.217173" lon="104.798502">
<time>2016-10-06T22:40:39Z</time></trkpt>
<trkpt lat="25.217583" lon="104.798392">
<time>2016-10-06T22:40:40Z</time></trkpt>
<trkpt lat="25.217843" lon="104.798342">
<time>2016-10-06T22:40:41Z</time></trkpt>
<trkpt lat="25.218163" lon="104.798272">
<time>2016-10-06T22:40:42Z</time></trkpt>
<trkpt lat="25.218542" lon="104.798202">
<time>2016-10-06T22:40:43Z</time></trkpt>
<trkpt lat="25.219202" lon="104.798062">
<time>2016-10-06T22:40:44Z</time></trkpt>
<trkpt lat="25.219342" lon="104.798042">
<time>2016-10-06T22:40:45Z</time></trkpt>
<trkpt lat="25.219412" lon="104.798021">
<time>2016-10-06T22:40:46Z</time></trkpt>
<trkpt lat="25.219472" lon="104.797991">
<time>2016-10-06T22:40:47Z</time></trkpt>
<trkpt lat="25.219532" lon="104.797961">
<time>2016-10-06T22:40:48Z</time></trkpt>
<trkpt lat="25.219602" lon="104.797921">
<time>2016-10-06T22:40:49Z</time></trkpt>
<trkpt lat="25.219602" lon="104.797921">
<time>2016-10-06T22:40:50Z</time></trkpt>
<trkpt lat="25.219612" lon="104.798001">
<time>2016-10-06T22:40:51Z</time></trkpt>
<trkpt lat="25.219632" lon="104.798072">
<time>2016-10-06T22:40:52Z</time></trkpt>
<trkpt lat="25.219662" lon="104.798122">
<time>2016-10-06T22:40:53Z</time></trkpt>
<trkpt lat="25.219702" lon="104.798152">
<time>2016-10-06T22:40:54Z</time></trkpt>
<trkpt lat="25.219772" lon="104.798172">
<time>2016-10-06T22:40:55Z</time></trkpt>
<trkpt lat="25.219842" lon="104.798182">
<time>2016-10-06T22:40:56Z</time></trkpt>
<trkpt lat="25.220102" lon="104.798182">
<time>2016-10-06T22:40:57Z</time></trkpt>
<trkpt lat="25.220242" lon="104.798182">
<time>2016-10-06T22:40:58Z</time></trkpt>
<trkpt lat="25.220312" lon="104.798192">
<time>2016-10-06T22:40:59Z</time></trkpt>
<trkpt lat="25.220372" lon="104.798212">
<time>2016-10-06T22:41:00Z</time></trkpt>
<trkpt lat="25.220432" lon="104.798252">
<time>2016-10-06T22:41:01Z</time></trkpt>
<trkpt lat="25.220473" lon="104.798302">
<time>2016-10-06T22:41:02Z</time></trkpt>
<trkpt lat="25.220513" lon="104.798372">
<time>2016-10-06T22:41:03Z</time></trkpt>
<trkpt lat="25.220573" lon="104.798492">
<time>2016-10-06T22:41:04Z</time></trkpt>
<trkpt lat="25.220643" lon="104.798702">
<time>2016-10-06T22:41:05Z</time></trkpt>
<trkpt lat="25.220693" lon="104.798812">
<time>2016-10-06T22:41:06Z</time></trkpt>
<trkpt lat="25.220764" lon="104.798932">
<time>2016-10-06T22:41:07Z</time></trkpt>
<trkpt lat="25.220824" lon="104.799022">
<time>2016-10-06T22:41:08Z</time></trkpt>
<trkpt lat="25.220914" lon="104.799132">
<time>2016-10-06T22:41:09Z</time></trkpt>
<trkpt lat="25.220974" lon="104.799212">
<time>2016-10-06T22:41:10Z</time></trkpt>
<trkpt lat="25.221024" lon="104.799262">
<time>2016-10-06T22:41:11Z</time></trkpt>
<trkpt lat="25.221064" lon="104.799292">
<time>2016-10-06T22:41:12Z</time></trkpt>
<trkpt lat="25.221124" lon="104.799332">
<time>2016-10-06T22:41:13Z</time></trkpt>
<trkpt lat="25.221224" lon="104.799372">
<time>2016-10-06T22:41:14Z</time></trkpt>
<trkpt lat="25.221254" lon="104.799372">
<time>2016-10-06T22:41:15Z</time></trkpt>
<trkpt lat="25.221504" lon="104.799442">
<time>2016-10-06T22:41:16Z</time></trkpt>
<trkpt lat="25.222385" lon="104.799643">
<time>2016-10-06T22:41:17Z</time></trkpt>
<trkpt lat="25.223145" lon="104.799823">
<time>2016-10-06T22:41:18Z</time></trkpt>
<trkpt lat="25.224205" lon="104.800033">
<time>2016-10-06T22:41:19Z</time></trkpt>
<trkpt lat="25.224385" lon="104.800073">
<time>2016-10-06T22:41:20Z</time></trkpt>
<trkpt lat="25.224655" lon="104.800113">
<time>2016-10-06T22:41:21Z</time></trkpt>
<trkpt lat="25.224886" lon="104.800143">
<time>2016-10-06T22:41:22Z</time></trkpt>
<trkpt lat="25.225096" lon="104.800163">
<time>2016-10-06T22:41:23Z</time></trkpt>
<trkpt lat="25.225346" lon="104.800163">
<time>2016-10-06T22:41:24Z</time></trkpt>
<trkpt lat="25.225716" lon="104.800153">
<time>2016-10-06T22:41:25Z</time></trkpt>
<trkpt lat="25.225875" lon="104.800133">
<time>2016-10-06T22:41:26Z</time></trkpt>
<trkpt lat="25.225995" lon="104.800103">
<time>2016-10-06T22:41:27Z</time></trkpt>
<trkpt lat="25.226255" lon="104.800043">
<time>2016-10-06T22:41:28Z</time></trkpt>
<trkpt lat="25.226455" lon="104.799993">
<time>2016-10-06T22:41:29Z</time></trkpt>
<trkpt lat="25.226645" lon="104.799963">
<time>2016-10-06T22:41:30Z</time></trkpt>
<trkpt lat="25.226975" lon="104.799923">
<time>2016-10-06T22:41:31Z</time></trkpt>
<trkpt lat="25.227355" lon="104.799883">
<time>2016-10-06T22:41:32Z</time></trkpt>
<trkpt lat="25.227605" lon="104.799852">
<time>2016-10-06T22:41:33Z</time></trkpt>
<trkpt lat="25.227735" lon="104.799842">
<time>2016-10-06T22:41:34Z</time></trkpt>
<trkpt lat="25.227795" lon="104.799852">
<time>2016-10-06T22:41:35Z</time></trkpt>
<trkpt lat="25.227855" lon="104.799852">
<time>2016-10-06T22:41:36Z</time></trkpt>
<trkpt lat="25.227925" lon="104.799872">
<time>2016-10-06T22:41:37Z</time></trkpt>
<trkpt lat="25.227985" lon="104.799902">
<time>2016-10-06T22:41:38Z</time></trkpt>
<trkpt lat="25.228045" lon="104.799923">
<time>2016-10-06T22:41:39Z</time></trkpt>
<trkpt lat="25.228185" lon="104.800003">
<time>2016-10-06T22:41:40Z</time></trkpt>
<trkpt lat="25.228345" lon="104.800083">
<time>2016-10-06T22:41:41Z</time></trkpt>
<trkpt lat="25.228425" lon="104.800123">
<time>2016-10-06T22:41:42Z</time></trkpt>
<trkpt lat="25.228496" lon="104.800143">
<time>2016-10-06T22:41:43Z</time></trkpt>
<trkpt lat="25.228596" lon="104.800163">
<time>2016-10-06T22:41:44Z</time></trkpt>
<trkpt lat="25.228746" lon="104.800153">
<time>2016-10-06T22:41:45Z</time></trkpt>
<trkpt lat="25.229035" lon="104.800113">
<time>2016-10-06T22:41:46Z</time></trkpt>
<trkpt lat="25.229165" lon="104.800113">
<time>2016-10-06T22:41:47Z</time></trkpt>
<trkpt lat="25.229265" lon="104.800123">
<time>2016-10-06T22:41:48Z</time></trkpt>
<trkpt lat="25.229356" lon="104.800143">
<time>2016-10-06T22:41:49Z</time></trkpt>
<trkpt lat="25.229426" lon="104.800173">
<time>2016-10-06T22:41:50Z</time></trkpt>
<trkpt lat="25.229496" lon="104.800223">
<time>2016-10-06T22:41:51Z</time></trkpt>
<trkpt lat="25.229586" lon="104.800313">
<time>2016-10-06T22:41:52Z</time></trkpt>
<trkpt lat="25.229756" lon="104.800473">
<time>2016-10-06T22:41:53Z</time></trkpt>
<trkpt lat="25.229866" lon="104.800593">
<time>2016-10-06T22:41:54Z</time></trkpt>
<trkpt lat="25.229966" lon="104.800723">
<time>2016-10-06T22:41:55Z</time></trkpt>
<trkpt lat="25.230057" lon="104.800843">
<time>2016-10-06T22:41:56Z</time></trkpt>
<trkpt lat="25.230147" lon="104.800933">
<time>2016-10-06T22:41:57Z</time></trkpt>
<trkpt lat="25.230217" lon="104.801003">
<time>2016-10-06T22:41:58Z</time></trkpt>
<trkpt lat="25.230267" lon="104.801043">
<time>2016-10-06T22:41:59Z</time></trkpt>
<trkpt lat="25.230337" lon="104.801083">
<time>2016-10-06T22:42:00Z</time></trkpt>
<trkpt lat="25.230477" lon="104.801163">
<time>2016-10-06T22:42:01Z</time></trkpt>
<trkpt lat="25.230607" lon="104.801223">
<time>2016-10-06T22:42:02Z</time></trkpt>
<trkpt lat="25.230727" lon="104.801263">
<time>2016-10-06T22:42:03Z</time></trkpt>
<trkpt lat="25.230947" lon="104.801313">
<time>2016-10-06T22:42:04Z</time></trkpt>
<trkpt lat="25.231308" lon="104.801383">
<time>2016-10-06T22:42:05Z</time></trkpt>
<trkpt lat="25.231438" lon="104.801403">
<time>2016-10-06T22:42:06Z</time></trkpt>
<trkpt lat="25.231548" lon="104.801403">
<time>2016-10-06T22:42:07Z</time></trkpt>
<trkpt lat="25.231728" lon="104.801403">
<time>2016-10-06T22:42:08Z</time></trkpt>
<trkpt lat="25.232208" lon="104.801363">
<time>2016-10-06T22:42:09Z</time></trkpt>
<trkpt lat="25.232368" lon="104.801343">
<time>2016-10-06T22:42:10Z</time></trkpt>
<trkpt lat="25.232427" lon="104.801333">
<time>2016-10-06T22:42:11Z</time></trkpt>
<trkpt lat="25.232527" lon="104.801303">
<time>2016-10-06T22:42:12Z</time></trkpt>
<trkpt lat="25.232777" lon="104.801203">
<time>2016-10-06T22:42:13Z</time></trkpt>
<trkpt lat="25.233027" lon="104.801113">
<time>2016-10-06T22:42:14Z</time></trkpt>
<trkpt lat="25.233397" lon="104.800973">
<time>2016-10-06T22:42:15Z</time></trkpt>
<trkpt lat="25.233577" lon="104.800913">
<time>2016-10-06T22:42:16Z</time></trkpt>
<trkpt lat="25.233757" lon="104.800853">
<time>2016-10-06T22:42:17Z</time></trkpt>
<trkpt lat="25.233957" lon="104.800803">
<time>2016-10-06T22:42:18Z</time></trkpt>
<trkpt lat="25.234416" lon="104.800693">
<time>2016-10-06T22:42:19Z</time></trkpt>
<trkpt lat="25.234506" lon="104.800673">
<time>2016-10-06T22:42:20Z</time></trkpt>
<trkpt lat="25.234626" lon="104.800623">
<time>2016-10-06T22:42:21Z</time></trkpt>
<trkpt lat="25.234706" lon="104.800563">
<time>2016-10-06T22:42:22Z</time></trkpt>
<trkpt lat="25.234836" lon="104.800453">
<time>2016-10-06T22:42:23Z</time></trkpt>
<trkpt lat="25.236264" lon="104.799062">
<time>2016-10-06T22:42:24Z</time></trkpt>
<trkpt lat="25.236404" lon="104.798931">
<time>2016-10-06T22:42:25Z</time></trkpt>
<trkpt lat="25.236473" lon="104.798871">
<time>2016-10-06T22:42:26Z</time></trkpt>
<trkpt lat="25.236533" lon="104.798831">
<time>2016-10-06T22:42:27Z</time></trkpt>
<trkpt lat="25.236593" lon="104.798791">
<time>2016-10-06T22:42:28Z</time></trkpt>
<trkpt lat="25.236663" lon="104.798761">
<time>2016-10-06T22:42:29Z</time></trkpt>
<trkpt lat="25.236733" lon="104.798751">
<time>2016-10-06T22:42:30Z</time></trkpt>
<trkpt lat="25.236803" lon="104.798741">
<time>2016-10-06T22:42:31Z</time></trkpt>
<trkpt lat="25.236883" lon="104.798741">
<time>2016-10-06T22:42:32Z</time></trkpt>
<trkpt lat="25.237093" lon="104.798741">
<time>2016-10-06T22:42:33Z</time></trkpt>
<trkpt lat="25.237303" lon="104.798751">
<time>2016-10-06T22:42:34Z</time></trkpt>
<trkpt lat="25.237843" lon="104.798761">
<time>2016-10-06T22:42:35Z</time></trkpt>
<trkpt lat="25.237943" lon="104.798761">
<time>2016-10-06T22:42:36Z</time></trkpt>
<trkpt lat="25.238023" lon="104.798751">
<time>2016-10-06T22:42:37Z</time></trkpt>
<trkpt lat="25.238083" lon="104.798741">
<time>2016-10-06T22:42:38Z</time></trkpt>
<trkpt lat="25.238133" lon="104.798721">
<time>2016-10-06T22:42:39Z</time></trkpt>
<trkpt lat="25.238183" lon="104.798681">
<time>2016-10-06T22:42:40Z</time></trkpt>
<trkpt lat="25.238243" lon="104.798621">
<time>2016-10-06T22:42:41Z</time></trkpt>
<trkpt lat="25.238293" lon="104.798551">
<time>2016-10-06T22:42:42Z</time></trkpt>
<trkpt lat="25.238353" lon="104.798471">
<time>2016-10-06T22:42:43Z</time></trkpt>
<trkpt lat="25.238433" lon="104.798331">
<time>2016-10-06T22:42:44Z</time></trkpt>
<trkpt lat="25.238502" lon="104.798231">
<time>2016-10-06T22:42:45Z</time></trkpt>
<trkpt lat="25.238552" lon="104.798171">
<time>2016-10-06T22:42:46Z</time></trkpt>
<trkpt lat="25.238602" lon="104.798111">
<time>2016-10-06T22:42:47Z</time></trkpt>
<trkpt lat="25.238652" lon="104.798061">
<time>2016-10-06T22:42:48Z</time></trkpt>
<trkpt lat="25.238722" lon="104.798021">
<time>2016-10-06T22:42:49Z</time></trkpt>
<trkpt lat="25.238782" lon="104.797991">
<time>2016-10-06T22:42:50Z</time></trkpt>
<trkpt lat="25.238942" lon="104.797921">
<time>2016-10-06T22:42:51Z</time></trkpt>
<trkpt lat="25.239222" lon="104.797821">
<time>2016-10-06T22:42:52Z</time></trkpt>
<trkpt lat="25.239801" lon="104.79761">
<time>2016-10-06T22:42:53Z</time></trkpt>
<trkpt lat="25.239921" lon="104.79758">
<time>2016-10-06T22:42:54Z</time></trkpt>
<trkpt lat="25.240011" lon="104.79757">
<time>2016-10-06T22:42:55Z</time></trkpt>
<trkpt lat="25.240191" lon="104.79756">
<time>2016-10-06T22:42:56Z</time></trkpt>
<trkpt lat="25.240571" lon="104.79755">
<time>2016-10-06T22:42:57Z</time></trkpt>
<trkpt lat="25.241511" lon="104.79754">
<time>2016-10-06T22:42:58Z</time></trkpt>
<trkpt lat="25.242031" lon="104.79755">
<time>2016-10-06T22:42:59Z</time></trkpt>
<trkpt lat="25.242371" lon="104.79756">
<time>2016-10-06T22:43:00Z</time></trkpt>
<trkpt lat="25.242371" lon="104.79756">
<time>2016-10-06T22:43:01Z</time></trkpt>
<trkpt lat="25.242441" lon="104.79747">
<time>2016-10-06T22:43:02Z</time></trkpt>
<trkpt lat="25.242521" lon="104.79739">
<time>2016-10-06T22:43:03Z</time></trkpt>
<trkpt lat="25.242611" lon="104.79729">
<time>2016-10-06T22:43:04Z</time></trkpt>
<trkpt lat="25.242791" lon="104.79711">
<time>2016-10-06T22:43:05Z</time></trkpt>
<trkpt lat="25.24319" lon="104.7967">
<time>2016-10-06T22:43:06Z</time></trkpt>
<trkpt lat="25.24327" lon="104.79663">
<time>2016-10-06T22:43:07Z</time></trkpt>
<trkpt lat="25.24333" lon="104.79657">
<time>2016-10-06T22:43:08Z</time></trkpt>
<trkpt lat="25.2434" lon="104.79653">
<time>2016-10-06T22:43:09Z</time></trkpt>
<trkpt lat="25.24346" lon="104.796489">
<time>2016-10-06T22:43:10Z</time></trkpt>
<trkpt lat="25.24354" lon="104.796449">
<time>2016-10-06T22:43:11Z</time></trkpt>
<trkpt lat="25.24361" lon="104.796419">
<time>2016-10-06T22:43:12Z</time></trkpt>
<trkpt lat="25.2437" lon="104.796399">
<time>2016-10-06T22:43:13Z</time></trkpt>
<trkpt lat="25.244719" lon="104.796149">
<time>2016-10-06T22:43:14Z</time></trkpt>
<trkpt lat="25.245149" lon="104.796039">
<time>2016-10-06T22:43:15Z</time></trkpt>
<trkpt lat="25.246099" lon="104.795799">
<time>2016-10-06T22:43:16Z</time></trkpt>
<trkpt lat="25.246828" lon="104.795619">
<time>2016-10-06T22:43:17Z</time></trkpt>
<trkpt lat="25.247218" lon="104.795519">
<time>2016-10-06T22:43:18Z</time></trkpt>
<trkpt lat="25.247358" lon="104.795479">
<time>2016-10-06T22:43:19Z</time></trkpt>
<trkpt lat="25.247458" lon="104.795449">
<time>2016-10-06T22:43:20Z</time></trkpt>
<trkpt lat="25.247528" lon="104.795419">
<time>2016-10-06T22:43:21Z</time></trkpt>
<trkpt lat="25.247608" lon="104.795369">
<time>2016-10-06T22:43:22Z</time></trkpt>
<trkpt lat="25.247718" lon="104.795319">
<time>2016-10-06T22:43:23Z</time></trkpt>
<trkpt lat="25.247858" lon="104.795238">
<time>2016-10-06T22:43:24Z</time></trkpt>
<trkpt lat="25.248178" lon="104.795038">
<time>2016-10-06T22:43:25Z</time></trkpt>
<trkpt lat="25.248557" lon="104.794818">
<time>2016-10-06T22:43:26Z</time></trkpt>
<trkpt lat="25.248747" lon="104.794688">
<time>2016-10-06T22:43:27Z</time></trkpt>
<trkpt lat="25.248877" lon="104.794598">
<time>2016-10-06T22:43:28Z</time></trkpt>
<trkpt lat="25.248997" lon="104.794508">
<time>2016-10-06T22:43:29Z</time></trkpt>
<trkpt lat="25.249286" lon="104.794258">
<time>2016-10-06T22:43:30Z</time></trkpt>
<trkpt lat="25.250005" lon="104.793647">
<time>2016-10-06T22:43:31Z</time></trkpt>
<trkpt lat="25.250105" lon="104.793567">
<time>2016-10-06T22:43:32Z</time></trkpt>
<trkpt lat="25.250235" lon="104.793467">
<time>2016-10-06T22:43:33Z</time></trkpt>
<trkpt lat="25.250355" lon="104.793397">
<time>2016-10-06T22:43:34Z</time></trkpt>
<trkpt lat="25.250555" lon="104.793297">
<time>2016-10-06T22:43:35Z</time></trkpt>
<trkpt lat="25.250765" lon="104.793207">
<time>2016-10-06T22:43:36Z</time></trkpt>
<trkpt lat="25.250915" lon="104.793127">
<time>2016-10-06T22:43:37Z</time></trkpt>
<trkpt lat="25.251035" lon="104.793037">
<time>2016-10-06T22:43:38Z</time></trkpt>
<trkpt lat="25.251214" lon="104.792877">
<time>2016-10-06T22:43:39Z</time></trkpt>
<trkpt lat="25.251364" lon="104.792747">
<time>2016-10-06T22:43:40Z</time></trkpt>
<trkpt lat="25.251604" lon="104.792517">
<time>2016-10-06T22:43:41Z</time></trkpt>
<trkpt lat="25.251734" lon="104.792407">
<time>2016-10-06T22:43:42Z</time></trkpt>
<trkpt lat="25.251814" lon="104.792357">
<time>2016-10-06T22:43:43Z</time></trkpt>
<trkpt lat="25.251884" lon="104.792327">
<time>2016-10-06T22:43:44Z</time></trkpt>
<trkpt lat="25.251973" lon="104.792297">
<time>2016-10-06T22:43:45Z</time></trkpt>
<trkpt lat="25.252063" lon="104.792277">
<time>2016-10-06T22:43:46Z</time></trkpt>
<trkpt lat="25.252143" lon="104.792257">
<time>2016-10-06T22:43:47Z</time></trkpt>
<trkpt lat="25.252493" lon="104.792226">
<time>2016-10-06T22:43:48Z</time></trkpt>
<trkpt lat="25.252803" lon="104.792196">
<time>2016-10-06T22:43:49Z</time></trkpt>
<trkpt lat="25.253023" lon="104.792176">
<time>2016-10-06T22:43:50Z</time></trkpt>
<trkpt lat="25.253243" lon="104.792146">
<time>2016-10-06T22:43:51Z</time></trkpt>
<trkpt lat="25.253303" lon="104.792136">
<time>2016-10-06T22:43:52Z</time></trkpt>
<trkpt lat="25.253373" lon="104.792116">
<time>2016-10-06T22:43:53Z</time></trkpt>
<trkpt lat="25.253433" lon="104.792106">
<time>2016-10-06T22:43:54Z</time></trkpt>
<trkpt lat="25.253473" lon="104.792086">
<time>2016-10-06T22:43:55Z</time></trkpt>
<trkpt lat="25.253633" lon="104.791996">
<time>2016-10-06T22:43:56Z</time></trkpt>
<trkpt lat="25.253783" lon="104.791916">
<time>2016-10-06T22:43:57Z</time></trkpt>
<trkpt lat="25.254023" lon="104.791766">
<time>2016-10-06T22:43:58Z</time></trkpt>
<trkpt lat="25.254163" lon="104.791676">
<time>2016-10-06T22:43:59Z</time></trkpt>
<trkpt lat="25.254293" lon="104.791596">
<time>2016-10-06T22:44:00Z</time></trkpt>
<trkpt lat="25.254592" lon="104.791416">
<time>2016-10-06T22:44:01Z</time></trkpt>
<trkpt lat="25.254732" lon="104.791336">
<time>2016-10-06T22:44:02Z</time></trkpt>
<trkpt lat="25.254912" lon="104.791236">
<time>2016-10-06T22:44:03Z</time></trkpt>
<trkpt lat="25.255012" lon="104.791186">
<time>2016-10-06T22:44:04Z</time></trkpt>
<trkpt lat="25.255162" lon="104.791126">
<time>2016-10-06T22:44:05Z</time></trkpt>
<trkpt lat="25.255292" lon="104.791076">
<time>2016-10-06T22:44:06Z</time></trkpt>
<trkpt lat="25.255422" lon="104.791026">
<time>2016-10-06T22:44:07Z</time></trkpt>
<trkpt lat="25.255612" lon="104.790976">
<time>2016-10-06T22:44:08Z</time></trkpt>
<trkpt lat="25.255732" lon="104.790946">
<time>2016-10-06T22:44:09Z</time></trkpt>
<trkpt lat="25.255962" lon="104.790916">
<time>2016-10-06T22:44:10Z</time></trkpt>
<trkpt lat="25.256502" lon="104.790876">
<time>2016-10-06T22:44:11Z</time></trkpt>
<trkpt lat="25.256841" lon="104.790846">
<time>2016-10-06T22:44:12Z</time></trkpt>
<trkpt lat="25.257351" lon="104.790816">
<time>2016-10-06T22:44:13Z</time></trkpt>
<trkpt lat="25.257691" lon="104.790786">
<time>2016-10-06T22:44:14Z</time></trkpt>
<trkpt lat="25.257991" lon="104.790765">
<time>2016-10-06T22:44:15Z</time></trkpt>
<trkpt lat="25.258281" lon="104.790745">
<time>2016-10-06T22:44:16Z</time></trkpt>
<trkpt lat="25.258591" lon="104.790725">
<time>2016-10-06T22:44:17Z</time></trkpt>
<trkpt lat="25.258911" lon="104.790695">
<time>2016-10-06T22:44:18Z</time></trkpt>
<trkpt lat="25.259041" lon="104.790665">
<time>2016-10-06T22:44:19Z</time></trkpt>
<trkpt lat="25.259231" lon="104.790625">
<time>2016-10-06T22:44:20Z</time></trkpt>
<trkpt lat="25.259371" lon="104.790585">
<time>2016-10-06T22:44:21Z</time></trkpt>
<trkpt lat="25.259501" lon="104.790535">
<time>2016-10-06T22:44:22Z</time></trkpt>
<trkpt lat="25.259641" lon="104.790475">
<time>2016-10-06T22:44:23Z</time></trkpt>
<trkpt lat="25.259891" lon="104.790365">
<time>2016-10-06T22:44:24Z</time></trkpt>
<trkpt lat="25.260091" lon="104.790275">
<time>2016-10-06T22:44:25Z</time></trkpt>
<trkpt lat="25.260331" lon="104.790155">
<time>2016-10-06T22:44:26Z</time></trkpt>
<trkpt lat="25.26063" lon="104.790015">
<time>2016-10-06T22:44:27Z</time></trkpt>
<trkpt lat="25.26093" lon="104.789875">
<time>2016-10-06T22:44:28Z</time></trkpt>
<trkpt lat="25.26126" lon="104.789725">
<time>2016-10-06T22:44:29Z</time></trkpt>
<trkpt lat="25.26161" lon="104.789565">
<time>2016-10-06T22:44:30Z</time></trkpt>
<trkpt lat="25.26189" lon="104.789435">
<time>2016-10-06T22:44:31Z</time></trkpt>
<trkpt lat="25.2621" lon="104.789345">
<time>2016-10-06T22:44:32Z</time></trkpt>
<trkpt lat="25.262249" lon="104.789295">
<time>2016-10-06T22:44:33Z</time></trkpt>
<trkpt lat="25.262379" lon="104.789255">
<time>2016-10-06T22:44:34Z</time></trkpt>
<trkpt lat="25.262549" lon="104.789225">
<time>2016-10-06T22:44:35Z</time></trkpt>
<trkpt lat="25.262699" lon="104.789205">
<time>2016-10-06T22:44:36Z</time></trkpt>
<trkpt lat="25.263389" lon="104.789194">
<time>2016-10-06T22:44:37Z</time></trkpt>
<trkpt lat="25.263569" lon="104.789194">
<time>2016-10-06T22:44:38Z</time></trkpt>
<trkpt lat="25.263809" lon="104.789194">
<time>2016-10-06T22:44:39Z</time></trkpt>
<trkpt lat="25.263979" lon="104.789184">
<time>2016-10-06T22:44:40Z</time></trkpt>
<trkpt lat="25.264129" lon="104.789164">
<time>2016-10-06T22:44:41Z</time></trkpt>
<trkpt lat="25.264229" lon="104.789144">
<time>2016-10-06T22:44:42Z</time></trkpt>
<trkpt lat="25.264409" lon="104.789114">
<time>2016-10-06T22:44:43Z</time></trkpt>
<trkpt lat="25.264629" lon="104.789074">
<time>2016-10-06T22:44:44Z</time></trkpt>
<trkpt lat="25.264789" lon="104.789034">
<time>2016-10-06T22:44:45Z</time></trkpt>
<trkpt lat="25.265009" lon="104.788974">
<time>2016-10-06T22:44:46Z</time></trkpt>
<trkpt lat="25.265239" lon="104.788904">
<time>2016-10-06T22:44:47Z</time></trkpt>
<trkpt lat="25.265469" lon="104.788834">
<time>2016-10-06T22:44:48Z</time></trkpt>
<trkpt lat="25.265659" lon="104.788764">
<time>2016-10-06T22:44:49Z</time></trkpt>
<trkpt lat="25.265829" lon="104.788694">
<time>2016-10-06T22:44:50Z</time></trkpt>
<trkpt lat="25.265969" lon="104.788634">
<time>2016-10-06T22:44:51Z</time></trkpt>
<trkpt lat="25.266079" lon="104.788574">
<time>2016-10-06T22:44:52Z</time></trkpt>
<trkpt lat="25.266198" lon="104.788494">
<time>2016-10-06T22:44:53Z</time></trkpt>
<trkpt lat="25.267167" lon="104.787764">
<time>2016-10-06T22:44:54Z</time></trkpt>
<trkpt lat="25.267687" lon="104.787403">
<time>2016-10-06T22:44:55Z</time></trkpt>
<trkpt lat="25.268287" lon="104.787033">
<time>2016-10-06T22:44:56Z</time></trkpt>
<trkpt lat="25.268606" lon="104.786823">
<time>2016-10-06T22:44:57Z</time></trkpt>
<trkpt lat="25.268876" lon="104.786663">
<time>2016-10-06T22:44:58Z</time></trkpt>
<trkpt lat="25.269216" lon="104.786453">
<time>2016-10-06T22:44:59Z</time></trkpt>
<trkpt lat="25.269356" lon="104.786373">
<time>2016-10-06T22:45:00Z</time></trkpt>
<trkpt lat="25.269506" lon="104.786263">
<time>2016-10-06T22:45:01Z</time></trkpt>
<trkpt lat="25.269695" lon="104.786113">
<time>2016-10-06T22:45:02Z</time></trkpt>
<trkpt lat="25.269855" lon="104.785963">
<time>2016-10-06T22:45:03Z</time></trkpt>
<trkpt lat="25.270085" lon="104.785723">
<time>2016-10-06T22:45:04Z</time></trkpt>
<trkpt lat="25.270085" lon="104.785713">
<time>2016-10-06T22:45:05Z</time></trkpt>
<trkpt lat="25.270345" lon="104.785463">
<time>2016-10-06T22:45:06Z</time></trkpt>
<trkpt lat="25.270564" lon="104.785262">
<time>2016-10-06T22:45:07Z</time></trkpt>
<trkpt lat="25.270754" lon="104.785132">
<time>2016-10-06T22:45:08Z</time></trkpt>
<trkpt lat="25.271014" lon="104.784942">
<time>2016-10-06T22:45:09Z</time></trkpt>
<trkpt lat="25.271364" lon="104.784702">
<time>2016-10-06T22:45:10Z</time></trkpt>
<trkpt lat="25.271663" lon="104.784532">
<time>2016-10-06T22:45:11Z</time></trkpt>
<trkpt lat="25.272073" lon="104.784302">
<time>2016-10-06T22:45:12Z</time></trkpt>
<trkpt lat="25.272373" lon="104.784142">
<time>2016-10-06T22:45:13Z</time></trkpt>
<trkpt lat="25.272793" lon="104.783922">
<time>2016-10-06T22:45:14Z</time></trkpt>
<trkpt lat="25.273092" lon="104.783752">
<time>2016-10-06T22:45:15Z</time></trkpt>
<trkpt lat="25.273452" lon="104.783542">
<time>2016-10-06T22:45:16Z</time></trkpt>
<trkpt lat="25.273632" lon="104.783422">
<time>2016-10-06T22:45:17Z</time></trkpt>
<trkpt lat="25.273712" lon="104.783352">
<time>2016-10-06T22:45:18Z</time></trkpt>
<trkpt lat="25.273792" lon="104.783282">
<time>2016-10-06T22:45:19Z</time></trkpt>
<trkpt lat="25.273942" lon="104.783132">
<time>2016-10-06T22:45:20Z</time></trkpt>
<trkpt lat="25.274231" lon="104.782752">
<time>2016-10-06T22:45:21Z</time></trkpt>
<trkpt lat="25.274491" lon="104.782401">
<time>2016-10-06T22:45:22Z</time></trkpt>
<trkpt lat="25.27482" lon="104.781971">
<time>2016-10-06T22:45:23Z</time></trkpt>
<trkpt lat="25.275809" lon="104.780651">
<time>2016-10-06T22:45:24Z</time></trkpt>
<trkpt lat="25.276038" lon="104.780331">
<time>2016-10-06T22:45:25Z</time></trkpt>
<trkpt lat="25.276288" lon="104.779991">
<time>2016-10-06T22:45:26Z</time></trkpt>
<trkpt lat="25.276458" lon="104.779791">
<time>2016-10-06T22:45:27Z</time></trkpt>
<trkpt lat="25.276598" lon="104.779611">
<time>2016-10-06T22:45:28Z</time></trkpt>
<trkpt lat="25.276748" lon="104.779481">
<time>2016-10-06T22:45:29Z</time></trkpt>
<trkpt lat="25.276997" lon="104.779291">
<time>2016-10-06T22:45:30Z</time></trkpt>
<trkpt lat="25.277587" lon="104.77896">
<time>2016-10-06T22:45:31Z</time></trkpt>
<trkpt lat="25.279256" lon="104.778">
<time>2016-10-06T22:45:32Z</time></trkpt>
<trkpt lat="25.279566" lon="104.77783">
<time>2016-10-06T22:45:33Z</time></trkpt>
<trkpt lat="25.279786" lon="104.77771">
<time>2016-10-06T22:45:34Z</time></trkpt>
<trkpt lat="25.280006" lon="104.77762">
<time>2016-10-06T22:45:35Z</time></trkpt>
<trkpt lat="25.281845" lon="104.77684">
<time>2016-10-06T22:45:36Z</time></trkpt>
<trkpt lat="25.282615" lon="104.7765">
<time>2016-10-06T22:45:37Z</time></trkpt>
<trkpt lat="25.283134" lon="104.7763">
<time>2016-10-06T22:45:38Z</time></trkpt>
<trkpt lat="25.283474" lon="104.77618">
<time>2016-10-06T22:45:39Z</time></trkpt>
<trkpt lat="25.283994" lon="104.77606">
<time>2016-10-06T22:45:40Z</time></trkpt>
<trkpt lat="25.284434" lon="104.77594">
<time>2016-10-06T22:45:41Z</time></trkpt>
<trkpt lat="25.284624" lon="104.77587">
<time>2016-10-06T22:45:42Z</time></trkpt>
<trkpt lat="25.284624" lon="104.77587">
<time>2016-10-06T22:45:43Z</time></trkpt>
<trkpt lat="25.285513" lon="104.77484">
<time>2016-10-06T22:45:44Z</time></trkpt>
<trkpt lat="25.285763" lon="104.77459">
<time>2016-10-06T22:45:45Z</time></trkpt>
<trkpt lat="25.286282" lon="104.7741">
<time>2016-10-06T22:45:46Z</time></trkpt>
<trkpt lat="25.286512" lon="104.77388">
<time>2016-10-06T22:45:47Z</time></trkpt>
<trkpt lat="25.286552" lon="104.77385">
<time>2016-10-06T22:45:48Z</time></trkpt>
<trkpt lat="25.286772" lon="104.77363">
<time>2016-10-06T22:45:49Z</time></trkpt>
<trkpt lat="25.286872" lon="104.77352">
<time>2016-10-06T22:45:50Z</time></trkpt>
<trkpt lat="25.286962" lon="104.77342">
<time>2016-10-06T22:45:51Z</time></trkpt>
<trkpt lat="25.287052" lon="104.77329">
<time>2016-10-06T22:45:52Z</time></trkpt>
<trkpt lat="25.287112" lon="104.7732">
<time>2016-10-06T22:45:53Z</time></trkpt>
<trkpt lat="25.287162" lon="104.77309">
<time>2016-10-06T22:45:54Z</time></trkpt>
<trkpt lat="25.287221" lon="104.77295">
<time>2016-10-06T22:45:55Z</time></trkpt>
<trkpt lat="25.287301" lon="104.77272">
<time>2016-10-06T22:45:56Z</time></trkpt>
<trkpt lat="25.287361" lon="104.77254">
<time>2016-10-06T22:45:57Z</time></trkpt>
<trkpt lat="25.287391" lon="104.77241">
<time>2016-10-06T22:45:58Z</time></trkpt>
<trkpt lat="25.287401" lon="104.7723">
<time>2016-10-06T22:45:59Z</time></trkpt>
<trkpt lat="25.287391" lon="104.77219">
<time>2016-10-06T22:46:00Z</time></trkpt>
<trkpt lat="25.287371" lon="104.77209">
<time>2016-10-06T22:46:01Z</time></trkpt>
<trkpt lat="25.287331" lon="104.77198">
<time>2016-10-06T22:46:02Z</time></trkpt>
<trkpt lat="25.28726" lon="104.77189">
<time>2016-10-06T22:46:03Z</time></trkpt>
<trkpt lat="25.28714" lon="104.77178">
<time>2016-10-06T22:46:04Z</time></trkpt>
<trkpt lat="25.2864" lon="104.77121">
<time>2016-10-06T22:46:05Z</time></trkpt>
<trkpt lat="25.285849" lon="104.77081">
<time>2016-10-06T22:46:06Z</time></trkpt>
<trkpt lat="25.285659" lon="104.77066">
<time>2016-10-06T22:46:07Z</time></trkpt>
<trkpt lat="25.285569" lon="104.77058">
<time>2016-10-06T22:46:08Z</time></trkpt>
<trkpt lat="25.285489" lon="104.7705">
<time>2016-10-06T22:46:09Z</time></trkpt>
<trkpt lat="25.285409" lon="104.77042">
<time>2016-10-06T22:46:10Z</time></trkpt>
<trkpt lat="25.285319" lon="104.77032">
<time>2016-10-06T22:46:11Z</time></trkpt>
<trkpt lat="25.285239" lon="104.77021">
<time>2016-10-06T22:46:12Z</time></trkpt>
<trkpt lat="25.285159" lon="104.77011">
<time>2016-10-06T22:46:13Z</time></trkpt>
<trkpt lat="25.284979" lon="104.76988">
<time>2016-10-06T22:46:14Z</time></trkpt>
<trkpt lat="25.284798" lon="104.76966">
<time>2016-10-06T22:46:15Z</time></trkpt>
<trkpt lat="25.284728" lon="104.76959">
<time>2016-10-06T22:46:16Z</time></trkpt>
<trkpt lat="25.284608" lon="104.76949">
<time>2016-10-06T22:46:17Z</time></trkpt>
<trkpt lat="25.284488" lon="104.76941">
<time>2016-10-06T22:46:18Z</time></trkpt>
<trkpt lat="25.284358" lon="104.76935">
<time>2016-10-06T22:46:19Z</time></trkpt>
<trkpt lat="25.284018" lon="104.76917">
<time>2016-10-06T22:46:20Z</time></trkpt>
<trkpt lat="25.283858" lon="104.76905">
<time>2016-10-06T22:46:21Z</time></trkpt>
<trkpt lat="25.283748" lon="104.76895">
<time>2016-10-06T22:46:22Z</time></trkpt>
<trkpt lat="25.283658" lon="104.76884">
<time>2016-10-06T22:46:23Z</time></trkpt>
<trkpt lat="25.283588" lon="104.76871">
<time>2016-10-06T22:46:24Z</time></trkpt>
<trkpt lat="25.283538" lon="104.7686">
<time>2016-10-06T22:46:25Z</time></trkpt>
<trkpt lat="25.283477" lon="104.76844">
<time>2016-10-06T22:46:26Z</time></trkpt>
<trkpt lat="25.283407" lon="104.76813">
<time>2016-10-06T22:46:27Z</time></trkpt>
<trkpt lat="25.283307" lon="104.76767">
<time>2016-10-06T22:46:28Z</time></trkpt>
<trkpt lat="25.283227" lon="104.767331">
<time>2016-10-06T22:46:29Z</time></trkpt>
<trkpt lat="25.283166" lon="104.767101">
<time>2016-10-06T22:46:30Z</time></trkpt>
<trkpt lat="25.283066" lon="104.766681">
<time>2016-10-06T22:46:31Z</time></trkpt>
<trkpt lat="25.282976" lon="104.766251">
<time>2016-10-06T22:46:32Z</time></trkpt>
<trkpt lat="25.282946" lon="104.766111">
<time>2016-10-06T22:46:33Z</time></trkpt>
<trkpt lat="25.282905" lon="104.765781">
<time>2016-10-06T22:46:34Z</time></trkpt>
<trkpt lat="25.282905" lon="104.765571">
<time>2016-10-06T22:46:35Z</time></trkpt>
<trkpt lat="25.283044" lon="104.764072">
<time>2016-10-06T22:46:36Z</time></trkpt>
<trkpt lat="25.283164" lon="104.763462">
<time>2016-10-06T22:46:37Z</time></trkpt>
<trkpt lat="25.284392" lon="104.758634">
<time>2016-10-06T22:46:38Z</time></trkpt>
<trkpt lat="25.284432" lon="104.758364">
<time>2016-10-06T22:46:39Z</time></trkpt>
<trkpt lat="25.284431" lon="104.758214">
<time>2016-10-06T22:46:40Z</time></trkpt>
<trkpt lat="25.284411" lon="104.758034">
<time>2016-10-06T22:46:41Z</time></trkpt>
<trkpt lat="25.284301" lon="104.757595">
<time>2016-10-06T22:46:42Z</time></trkpt>
<trkpt lat="25.283771" lon="104.755806">
<time>2016-10-06T22:46:43Z</time></trkpt>
<trkpt lat="25.28303" lon="104.753318">
<time>2016-10-06T22:46:44Z</time></trkpt>
<trkpt lat="25.28303" lon="104.753318">
<time>2016-10-06T22:46:45Z</time></trkpt>
<trkpt lat="25.28304" lon="104.753248">
<time>2016-10-06T22:46:46Z</time></trkpt>
<trkpt lat="25.28286" lon="104.752638">
<time>2016-10-06T22:46:47Z</time></trkpt>
<trkpt lat="25.282219" lon="104.75054">
<time>2016-10-06T22:46:48Z</time></trkpt>
<trkpt lat="25.282119" lon="104.750131">
<time>2016-10-06T22:46:49Z</time></trkpt>
<trkpt lat="25.282089" lon="104.750001">
<time>2016-10-06T22:46:50Z</time></trkpt>
<trkpt lat="25.281969" lon="104.749441">
<time>2016-10-06T22:46:51Z</time></trkpt>
<trkpt lat="25.281909" lon="104.749072">
<time>2016-10-06T22:46:52Z</time></trkpt>
<trkpt lat="25.281899" lon="104.749002">
<time>2016-10-06T22:46:53Z</time></trkpt>
<trkpt lat="25.281849" lon="104.748332">
<time>2016-10-06T22:46:54Z</time></trkpt>
<trkpt lat="25.281519" lon="104.744416">
<time>2016-10-06T22:46:55Z</time></trkpt>
<trkpt lat="25.28123" lon="104.741041">
<time>2016-10-06T22:46:56Z</time></trkpt>
<trkpt lat="25.2812" lon="104.740192">
<time>2016-10-06T22:46:57Z</time></trkpt>
<trkpt lat="25.28119" lon="104.740122">
<time>2016-10-06T22:46:58Z</time></trkpt>
<trkpt lat="25.2812" lon="104.740002">
<time>2016-10-06T22:46:59Z</time></trkpt>
<trkpt lat="25.28121" lon="104.739862">
<time>2016-10-06T22:47:00Z</time></trkpt>
<trkpt lat="25.28127" lon="104.739533">
<time>2016-10-06T22:47:01Z</time></trkpt>
<trkpt lat="25.281341" lon="104.739313">
<time>2016-10-06T22:47:02Z</time></trkpt>
<trkpt lat="25.281471" lon="104.738874">
<time>2016-10-06T22:47:03Z</time></trkpt>
<trkpt lat="25.281561" lon="104.738534">
<time>2016-10-06T22:47:04Z</time></trkpt>
<trkpt lat="25.281631" lon="104.738244">
<time>2016-10-06T22:47:05Z</time></trkpt>
<trkpt lat="25.281781" lon="104.737695">
<time>2016-10-06T22:47:06Z</time></trkpt>
<trkpt lat="25.281821" lon="104.737545">
<time>2016-10-06T22:47:07Z</time></trkpt>
<trkpt lat="25.281851" lon="104.737286">
<time>2016-10-06T22:47:08Z</time></trkpt>
<trkpt lat="25.281871" lon="104.737046">
<time>2016-10-06T22:47:09Z</time></trkpt>
<trkpt lat="25.281871" lon="104.736916">
<time>2016-10-06T22:47:10Z</time></trkpt>
<trkpt lat="25.281861" lon="104.736786">
<time>2016-10-06T22:47:11Z</time></trkpt>
<trkpt lat="25.281862" lon="104.736667">
<time>2016-10-06T22:47:12Z</time></trkpt>
<trkpt lat="25.281852" lon="104.736557">
<time>2016-10-06T22:47:13Z</time></trkpt>
<trkpt lat="25.281852" lon="104.736427">
<time>2016-10-06T22:47:14Z</time></trkpt>
<trkpt lat="25.281852" lon="104.736317">
<time>2016-10-06T22:47:15Z</time></trkpt>
<trkpt lat="25.281842" lon="104.736207">
<time>2016-10-06T22:47:16Z</time></trkpt>
<trkpt lat="25.281842" lon="104.736107">
<time>2016-10-06T22:47:17Z</time></trkpt>
<trkpt lat="25.281852" lon="104.735988">
<time>2016-10-06T22:47:18Z</time></trkpt>
<trkpt lat="25.281862" lon="104.735868">
<time>2016-10-06T22:47:19Z</time></trkpt>
<trkpt lat="25.281852" lon="104.735748">
<time>2016-10-06T22:47:20Z</time></trkpt>
<trkpt lat="25.281852" lon="104.735608">
<time>2016-10-06T22:47:21Z</time></trkpt>
<trkpt lat="25.281822" lon="104.735059">
<time>2016-10-06T22:47:22Z</time></trkpt>
<trkpt lat="25.281674" lon="104.731974">
<time>2016-10-06T22:47:23Z</time></trkpt>
<trkpt lat="25.281477" lon="104.727821">
<time>2016-10-06T22:47:24Z</time></trkpt>
<trkpt lat="25.281437" lon="104.727651">
<time>2016-10-06T22:47:25Z</time></trkpt>
<trkpt lat="25.281347" lon="104.727522">
<time>2016-10-06T22:47:26Z</time></trkpt>
<trkpt lat="25.281237" lon="104.727422">
<time>2016-10-06T22:47:27Z</time></trkpt>
<trkpt lat="25.281127" lon="104.727362">
<time>2016-10-06T22:47:28Z</time></trkpt>
<trkpt lat="25.281007" lon="104.727322">
<time>2016-10-06T22:47:29Z</time></trkpt>
<trkpt lat="25.280907" lon="104.727292">
<time>2016-10-06T22:47:30Z</time></trkpt>
<trkpt lat="25.280787" lon="104.727272">
<time>2016-10-06T22:47:31Z</time></trkpt>
<trkpt lat="25.280657" lon="104.727252">
<time>2016-10-06T22:47:32Z</time></trkpt>
<trkpt lat="25.280527" lon="104.727242">
<time>2016-10-06T22:47:33Z</time></trkpt>
<trkpt lat="25.280527" lon="104.727232">
<time>2016-10-06T22:47:34Z</time></trkpt>
<trkpt lat="25.276607" lon="104.727272">
<time>2016-10-06T22:47:35Z</time></trkpt>
<trkpt lat="25.276507" lon="104.727272">
<time>2016-10-06T22:47:36Z</time></trkpt>
<trkpt lat="25.276117" lon="104.727272">
<time>2016-10-06T22:47:37Z</time></trkpt>
<trkpt lat="25.276107" lon="104.727272">
<time>2016-10-06T22:47:38Z</time></trkpt>
<trkpt lat="25.276107" lon="104.727272">
<time>2016-10-06T22:47:39Z</time></trkpt>
<trkpt lat="25.275132" lon="104.721444">
<time>2016-10-06T22:47:40Z</time></trkpt>
<trkpt lat="25.275132" lon="104.721444">
<time>2016-10-06T22:47:41Z</time></trkpt>
<trkpt lat="25.275162" lon="104.721384">
<time>2016-10-06T22:47:42Z</time></trkpt>
<trkpt lat="25.276274" lon="104.718769">
<time>2016-10-06T22:47:43Z</time></trkpt>
<trkpt lat="25.276385" lon="104.71856">
<time>2016-10-06T22:47:44Z</time></trkpt>
<trkpt lat="25.276475" lon="104.71833">
<time>2016-10-06T22:47:45Z</time></trkpt>
<trkpt lat="25.276555" lon="104.718081">
<time>2016-10-06T22:47:46Z</time></trkpt>
<trkpt lat="25.276625" lon="104.717831">
<time>2016-10-06T22:47:47Z</time></trkpt>
<trkpt lat="25.276676" lon="104.717572">
<time>2016-10-06T22:47:48Z</time></trkpt>
<trkpt lat="25.276726" lon="104.717312">
<time>2016-10-06T22:47:49Z</time></trkpt>
<trkpt lat="25.276766" lon="104.717033">
<time>2016-10-06T22:47:50Z</time></trkpt>
<trkpt lat="25.276807" lon="104.716744">
<time>2016-10-06T22:47:51Z</time></trkpt>
<trkpt lat="25.276857" lon="104.716464">
<time>2016-10-06T22:47:52Z</time></trkpt>
<trkpt lat="25.276907" lon="104.716185">
<time>2016-10-06T22:47:53Z</time></trkpt>
<trkpt lat="25.276968" lon="104.715926">
<time>2016-10-06T22:47:54Z</time></trkpt>
<trkpt lat="25.277018" lon="104.715676">
<time>2016-10-06T22:47:55Z</time></trkpt>
<trkpt lat="25.277088" lon="104.715427">
<time>2016-10-06T22:47:56Z</time></trkpt>
<trkpt lat="25.277158" lon="104.715197">
<time>2016-10-06T22:47:57Z</time></trkpt>
<trkpt lat="25.277219" lon="104.714968">
<time>2016-10-06T22:47:58Z</time></trkpt>
<trkpt lat="25.277259" lon="104.714738">
<time>2016-10-06T22:47:59Z</time></trkpt>
<trkpt lat="25.277269" lon="104.714489">
<time>2016-10-06T22:48:00Z</time></trkpt>
<trkpt lat="25.27727" lon="104.714259">
<time>2016-10-06T22:48:01Z</time></trkpt>
<trkpt lat="25.27726" lon="104.71403">
<time>2016-10-06T22:48:02Z</time></trkpt>
<trkpt lat="25.27725" lon="104.71379">
<time>2016-10-06T22:48:03Z</time></trkpt>
<trkpt lat="25.27724" lon="104.713551">
<time>2016-10-06T22:48:04Z</time></trkpt>
<trkpt lat="25.277231" lon="104.713311">
<time>2016-10-06T22:48:05Z</time></trkpt>
<trkpt lat="25.277231" lon="104.713072">
<time>2016-10-06T22:48:06Z</time></trkpt>
<trkpt lat="25.277221" lon="104.712862">
<time>2016-10-06T22:48:07Z</time></trkpt>
<trkpt lat="25.277201" lon="104.712653">
<time>2016-10-06T22:48:08Z</time></trkpt>
<trkpt lat="25.277182" lon="104.712463">
<time>2016-10-06T22:48:09Z</time></trkpt>
<trkpt lat="25.277152" lon="104.712284">
<time>2016-10-06T22:48:10Z</time></trkpt>
<trkpt lat="25.277112" lon="104.712074">
<time>2016-10-06T22:48:11Z</time></trkpt>
<trkpt lat="25.277112" lon="104.711875">
<time>2016-10-06T22:48:12Z</time></trkpt>
<trkpt lat="25.277103" lon="104.711655">
<time>2016-10-06T22:48:13Z</time></trkpt>
<trkpt lat="25.277093" lon="104.711446">
<time>2016-10-06T22:48:14Z</time></trkpt>
<trkpt lat="25.277113" lon="104.711206">
<time>2016-10-06T22:48:15Z</time></trkpt>
<trkpt lat="25.277114" lon="104.710977">
<time>2016-10-06T22:48:16Z</time></trkpt>
<trkpt lat="25.277094" lon="104.710777">
<time>2016-10-06T22:48:17Z</time></trkpt>
<trkpt lat="25.277084" lon="104.710648">
<time>2016-10-06T22:48:18Z</time></trkpt>
<trkpt lat="25.277064" lon="104.710478">
<time>2016-10-06T22:48:19Z</time></trkpt>
<trkpt lat="25.277064" lon="104.710319">
<time>2016-10-06T22:48:20Z</time></trkpt>
<trkpt lat="25.277065" lon="104.710149">
<time>2016-10-06T22:48:21Z</time></trkpt>
<trkpt lat="25.277075" lon="104.709969">
<time>2016-10-06T22:48:22Z</time></trkpt>
<trkpt lat="25.277085" lon="104.70977">
<time>2016-10-06T22:48:23Z</time></trkpt>
<trkpt lat="25.277095" lon="104.70955">
<time>2016-10-06T22:48:24Z</time></trkpt>
<trkpt lat="25.277116" lon="104.709321">
<time>2016-10-06T22:48:25Z</time></trkpt>
<trkpt lat="25.277116" lon="104.709181">
<time>2016-10-06T22:48:26Z</time></trkpt>
<trkpt lat="25.277116" lon="104.709092">
<time>2016-10-06T22:48:27Z</time></trkpt>
<trkpt lat="25.277136" lon="104.708852">
<time>2016-10-06T22:48:28Z</time></trkpt>
<trkpt lat="25.277157" lon="104.708613">
<time>2016-10-06T22:48:29Z</time></trkpt>
<trkpt lat="25.277187" lon="104.708373">
<time>2016-10-06T22:48:30Z</time></trkpt>
<trkpt lat="25.277227" lon="104.708034">
<time>2016-10-06T22:48:31Z</time></trkpt>
<trkpt lat="25.277238" lon="104.707924">
<time>2016-10-06T22:48:32Z</time></trkpt>
<trkpt lat="25.277248" lon="104.707735">
<time>2016-10-06T22:48:33Z</time></trkpt>
<trkpt lat="25.277258" lon="104.707715">
<time>2016-10-06T22:48:34Z</time></trkpt>
<trkpt lat="25.277188" lon="104.707525">
<time>2016-10-06T22:48:35Z</time></trkpt>
<trkpt lat="25.277098" lon="104.707366">
<time>2016-10-06T22:48:36Z</time></trkpt>
<trkpt lat="25.276939" lon="104.707276">
<time>2016-10-06T22:48:37Z</time></trkpt>
<trkpt lat="25.276759" lon="104.707226">
<time>2016-10-06T22:48:38Z</time></trkpt>
<trkpt lat="25.276569" lon="104.707266">
<time>2016-10-06T22:48:39Z</time></trkpt>
<trkpt lat="25.276388" lon="104.707306">
<time>2016-10-06T22:48:40Z</time></trkpt>
<trkpt lat="25.276208" lon="104.707356">
<time>2016-10-06T22:48:41Z</time></trkpt>
<trkpt lat="25.276038" lon="104.707406">
<time>2016-10-06T22:48:42Z</time></trkpt>
<trkpt lat="25.275878" lon="104.707446">
<time>2016-10-06T22:48:43Z</time></trkpt>
<trkpt lat="25.275718" lon="104.707496">
<time>2016-10-06T22:48:44Z</time></trkpt>
<trkpt lat="25.275568" lon="104.707525">
<time>2016-10-06T22:48:45Z</time></trkpt>
<trkpt lat="25.275428" lon="104.707565">
<time>2016-10-06T22:48:46Z</time></trkpt>
<trkpt lat="25.275288" lon="104.707605">
<time>2016-10-06T22:48:47Z</time></trkpt>
<trkpt lat="25.275168" lon="104.707595">
<time>2016-10-06T22:48:48Z</time></trkpt>
<trkpt lat="25.275058" lon="104.707605">
<time>2016-10-06T22:48:49Z</time></trkpt>
<trkpt lat="25.274948" lon="104.707585">
<time>2016-10-06T22:48:50Z</time></trkpt>
<trkpt lat="25.274848" lon="104.707545">
<time>2016-10-06T22:48:51Z</time></trkpt>
<trkpt lat="25.274768" lon="104.707496">
<time>2016-10-06T22:48:52Z</time></trkpt>
<trkpt lat="25.274668" lon="104.707446">
<time>2016-10-06T22:48:53Z</time></trkpt>
<trkpt lat="25.274578" lon="104.707376">
<time>2016-10-06T22:48:54Z</time></trkpt>
<trkpt lat="25.274548" lon="104.707356">
<time>2016-10-06T22:48:55Z</time></trkpt>
<trkpt lat="25.274488" lon="104.707316">
<time>2016-10-06T22:48:56Z</time></trkpt>
<trkpt lat="25.274398" lon="104.707226">
<time>2016-10-06T22:48:57Z</time></trkpt>
<trkpt lat="25.274279" lon="104.707146">
<time>2016-10-06T22:48:58Z</time></trkpt>
<trkpt lat="25.274169" lon="104.707067">
<time>2016-10-06T22:48:59Z</time></trkpt>
<trkpt lat="25.274009" lon="104.706947">
<time>2016-10-06T22:49:00Z</time></trkpt>
<trkpt lat="25.273949" lon="104.706907">
<time>2016-10-06T22:49:01Z</time></trkpt>
<trkpt lat="25.273829" lon="104.706817">
<time>2016-10-06T22:49:02Z</time></trkpt>
<trkpt lat="25.273719" lon="104.706737">
<time>2016-10-06T22:49:03Z</time></trkpt>
<trkpt lat="25.273599" lon="104.706668">
<time>2016-10-06T22:49:04Z</time></trkpt>
<trkpt lat="25.273479" lon="104.706588">
<time>2016-10-06T22:49:05Z</time></trkpt>
<trkpt lat="25.273369" lon="104.706498">
<time>2016-10-06T22:49:06Z</time></trkpt>
<trkpt lat="25.27327" lon="104.706408">
<time>2016-10-06T22:49:07Z</time></trkpt>
<trkpt lat="25.27313" lon="104.706229">
<time>2016-10-06T22:49:08Z</time></trkpt>
<trkpt lat="25.27313" lon="104.706229">
<time>2016-10-06T22:49:09Z</time></trkpt>
<trkpt lat="25.27302" lon="104.70585">
<time>2016-10-06T22:49:10Z</time></trkpt>
<trkpt lat="25.273113" lon="104.703985">
<time>2016-10-06T22:49:11Z</time></trkpt>
<trkpt lat="25.273083" lon="104.703705">
<time>2016-10-06T22:49:12Z</time></trkpt>
<trkpt lat="25.272934" lon="104.703436">
<time>2016-10-06T22:49:13Z</time></trkpt>
<trkpt lat="25.272316" lon="104.702259">
<time>2016-10-06T22:49:14Z</time></trkpt>
<trkpt lat="25.271678" lon="104.700793">
<time>2016-10-06T22:49:15Z</time></trkpt>
<trkpt lat="25.27105" lon="104.699177">
<time>2016-10-06T22:49:16Z</time></trkpt>
<trkpt lat="25.270752" lon="104.69821">
<time>2016-10-06T22:49:17Z</time></trkpt>
<trkpt lat="25.270742" lon="104.697801">
<time>2016-10-06T22:49:18Z</time></trkpt>
<trkpt lat="25.270743" lon="104.697452">
<time>2016-10-06T22:49:19Z</time></trkpt>
<trkpt lat="25.270804" lon="104.696924">
<time>2016-10-06T22:49:20Z</time></trkpt>
<trkpt lat="25.270126" lon="104.695418">
<time>2016-10-06T22:49:21Z</time></trkpt>
<trkpt lat="25.270017" lon="104.695049">
<time>2016-10-06T22:49:22Z</time></trkpt>
<trkpt lat="25.270038" lon="104.694281">
<time>2016-10-06T22:49:23Z</time></trkpt>
<trkpt lat="25.270122" lon="104.692257">
<time>2016-10-06T22:49:24Z</time></trkpt>
<trkpt lat="25.270263" lon="104.691758">
<time>2016-10-06T22:49:25Z</time></trkpt>
<trkpt lat="25.270263" lon="104.691758">
<time>2016-10-06T22:49:26Z</time></trkpt>
<trkpt lat="25.270954" lon="104.69091">
<time>2016-10-06T22:49:27Z</time></trkpt>
<trkpt lat="25.272156" lon="104.689604">
<time>2016-10-06T22:49:28Z</time></trkpt>
<trkpt lat="25.272176" lon="104.689534">
<time>2016-10-06T22:49:29Z</time></trkpt>
<trkpt lat="25.272918" lon="104.688597">
<time>2016-10-06T22:49:30Z</time></trkpt>
<trkpt lat="25.27368" lon="104.687769">
<time>2016-10-06T22:49:31Z</time></trkpt>
<trkpt lat="25.274311" lon="104.686932">
<time>2016-10-06T22:49:32Z</time></trkpt>
<trkpt lat="25.274873" lon="104.686154">
<time>2016-10-06T22:49:33Z</time></trkpt>
<trkpt lat="25.275133" lon="104.685775">
<time>2016-10-06T22:49:34Z</time></trkpt>
<trkpt lat="25.275645" lon="104.685037">
<time>2016-10-06T22:49:35Z</time></trkpt>
<trkpt lat="25.276126" lon="104.684379">
<time>2016-10-06T22:49:36Z</time></trkpt>
<trkpt lat="25.276316" lon="104.68414">
<time>2016-10-06T22:49:37Z</time></trkpt>
<trkpt lat="25.276407" lon="104.68403">
<time>2016-10-06T22:49:38Z</time></trkpt>
<trkpt lat="25.276637" lon="104.683791">
<time>2016-10-06T22:49:39Z</time></trkpt>
<trkpt lat="25.277048" lon="104.683332">
<time>2016-10-06T22:49:40Z</time></trkpt>
<trkpt lat="25.277599" lon="104.682734">
<time>2016-10-06T22:49:41Z</time></trkpt>
<trkpt lat="25.27805" lon="104.682276">
<time>2016-10-06T22:49:42Z</time></trkpt>
<trkpt lat="25.278461" lon="104.681807">
<time>2016-10-06T22:49:43Z</time></trkpt>
<trkpt lat="25.278721" lon="104.681548">
<time>2016-10-06T22:49:44Z</time></trkpt>
<trkpt lat="25.278872" lon="104.681408">
<time>2016-10-06T22:49:45Z</time></trkpt>
<trkpt lat="25.278952" lon="104.681348">
<time>2016-10-06T22:49:46Z</time></trkpt>
<trkpt lat="25.279022" lon="104.681298">
<time>2016-10-06T22:49:47Z</time></trkpt>
<trkpt lat="25.279092" lon="104.681249">
<time>2016-10-06T22:49:48Z</time></trkpt>
<trkpt lat="25.279182" lon="104.681209">
<time>2016-10-06T22:49:49Z</time></trkpt>
<trkpt lat="25.279272" lon="104.681179">
<time>2016-10-06T22:49:50Z</time></trkpt>
<trkpt lat="25.279392" lon="104.681129">
<time>2016-10-06T22:49:51Z</time></trkpt>
<trkpt lat="25.279582" lon="104.681089">
<time>2016-10-06T22:49:52Z</time></trkpt>
<trkpt lat="25.279792" lon="104.681039">
<time>2016-10-06T22:49:53Z</time></trkpt>
<trkpt lat="25.279872" lon="104.681039">
<time>2016-10-06T22:49:54Z</time></trkpt>
<trkpt lat="25.280172" lon="104.680999">
<time>2016-10-06T22:49:55Z</time></trkpt>
<trkpt lat="25.280352" lon="104.680969">
<time>2016-10-06T22:49:56Z</time></trkpt>
<trkpt lat="25.280492" lon="104.680929">
<time>2016-10-06T22:49:57Z</time></trkpt>
<trkpt lat="25.280633" lon="104.68087">
<time>2016-10-06T22:49:58Z</time></trkpt>
<trkpt lat="25.280743" lon="104.68081">
<time>2016-10-06T22:49:59Z</time></trkpt>
<trkpt lat="25.280833" lon="104.68075">
<time>2016-10-06T22:50:00Z</time></trkpt>
<trkpt lat="25.280903" lon="104.68069">
<time>2016-10-06T22:50:01Z</time></trkpt>
<trkpt lat="25.281013" lon="104.68059">
<time>2016-10-06T22:50:02Z</time></trkpt>
<trkpt lat="25.281083" lon="104.680511">
<time>2016-10-06T22:50:03Z</time></trkpt>
<trkpt lat="25.281164" lon="104.680401">
<time>2016-10-06T22:50:04Z</time></trkpt>
<trkpt lat="25.281334" lon="104.680182">
<time>2016-10-06T22:50:05Z</time></trkpt>
<trkpt lat="25.281454" lon="104.680022">
<time>2016-10-06T22:50:06Z</time></trkpt>
<trkpt lat="25.281544" lon="104.679912">
<time>2016-10-06T22:50:07Z</time></trkpt>
<trkpt lat="25.281595" lon="104.679833">
<time>2016-10-06T22:50:08Z</time></trkpt>
<trkpt lat="25.281645" lon="104.679753">
<time>2016-10-06T22:50:09Z</time></trkpt>
<trkpt lat="25.281695" lon="104.679663">
<time>2016-10-06T22:50:10Z</time></trkpt>
<trkpt lat="25.281745" lon="104.679544">
<time>2016-10-06T22:50:11Z</time></trkpt>
<trkpt lat="25.281785" lon="104.679434">
<time>2016-10-06T22:50:12Z</time></trkpt>
<trkpt lat="25.281816" lon="104.679324">
<time>2016-10-06T22:50:13Z</time></trkpt>
<trkpt lat="25.281856" lon="104.679125">
<time>2016-10-06T22:50:14Z</time></trkpt>
<trkpt lat="25.281897" lon="104.678826">
<time>2016-10-06T22:50:15Z</time></trkpt>
<trkpt lat="25.281917" lon="104.678567">
<time>2016-10-06T22:50:16Z</time></trkpt>
<trkpt lat="25.281968" lon="104.678018">
<time>2016-10-06T22:50:17Z</time></trkpt>
<trkpt lat="25.282009" lon="104.677659">
<time>2016-10-06T22:50:18Z</time></trkpt>
<trkpt lat="25.282029" lon="104.67753">
<time>2016-10-06T22:50:19Z</time></trkpt>
<trkpt lat="25.282059" lon="104.67744">
<time>2016-10-06T22:50:20Z</time></trkpt>
<trkpt lat="25.282089" lon="104.67734">
<time>2016-10-06T22:50:21Z</time></trkpt>
<trkpt lat="25.282129" lon="104.67725">
<time>2016-10-06T22:50:22Z</time></trkpt>
<trkpt lat="25.28218" lon="104.677171">
<time>2016-10-06T22:50:23Z</time></trkpt>
<trkpt lat="25.28224" lon="104.677071">
<time>2016-10-06T22:50:24Z</time></trkpt>
<trkpt lat="25.28247" lon="104.676792">
<time>2016-10-06T22:50:25Z</time></trkpt>
<trkpt lat="25.282831" lon="104.676373">
<time>2016-10-06T22:50:26Z</time></trkpt>
<trkpt lat="25.283382" lon="104.675735">
<time>2016-10-06T22:50:27Z</time></trkpt>
<trkpt lat="25.283733" lon="104.675316">
<time>2016-10-06T22:50:28Z</time></trkpt>
<trkpt lat="25.284204" lon="104.674808">
<time>2016-10-06T22:50:29Z</time></trkpt>
<trkpt lat="25.284415" lon="104.674598">
<time>2016-10-06T22:50:30Z</time></trkpt>
<trkpt lat="25.284965" lon="104.67417">
<time>2016-10-06T22:50:31Z</time></trkpt>
<trkpt lat="25.285466" lon="104.673761">
<time>2016-10-06T22:50:32Z</time></trkpt>
<trkpt lat="25.285967" lon="104.673372">
<time>2016-10-06T22:50:33Z</time></trkpt>
<trkpt lat="25.286518" lon="104.672943">
<time>2016-10-06T22:50:34Z</time></trkpt>
<trkpt lat="25.286969" lon="104.672604">
<time>2016-10-06T22:50:35Z</time></trkpt>
<trkpt lat="25.287529" lon="104.672156">
<time>2016-10-06T22:50:36Z</time></trkpt>
<trkpt lat="25.28787" lon="104.671887">
<time>2016-10-06T22:50:37Z</time></trkpt>
<trkpt lat="25.28808" lon="104.671687">
<time>2016-10-06T22:50:38Z</time></trkpt>
<trkpt lat="25.288201" lon="104.671508">
<time>2016-10-06T22:50:39Z</time></trkpt>
<trkpt lat="25.288261" lon="104.671378">
<time>2016-10-06T22:50:40Z</time></trkpt>
<trkpt lat="25.288331" lon="104.671199">
<time>2016-10-06T22:50:41Z</time></trkpt>
<trkpt lat="25.288372" lon="104.671079">
<time>2016-10-06T22:50:42Z</time></trkpt>
<trkpt lat="25.288392" lon="104.670959">
<time>2016-10-06T22:50:43Z</time></trkpt>
<trkpt lat="25.288402" lon="104.67087">
<time>2016-10-06T22:50:44Z</time></trkpt>
<trkpt lat="25.288412" lon="104.67081">
<time>2016-10-06T22:50:45Z</time></trkpt>
<trkpt lat="25.288402" lon="104.67064">
<time>2016-10-06T22:50:46Z</time></trkpt>
<trkpt lat="25.288384" lon="104.670052">
<time>2016-10-06T22:50:47Z</time></trkpt>
<trkpt lat="25.288355" lon="104.669454">
<time>2016-10-06T22:50:48Z</time></trkpt>
<trkpt lat="25.288335" lon="104.669215">
<time>2016-10-06T22:50:49Z</time></trkpt>
<trkpt lat="25.288306" lon="104.669025">
<time>2016-10-06T22:50:50Z</time></trkpt>
<trkpt lat="25.288276" lon="104.668866">
<time>2016-10-06T22:50:51Z</time></trkpt>
<trkpt lat="25.288206" lon="104.668706">
<time>2016-10-06T22:50:52Z</time></trkpt>
<trkpt lat="25.288146" lon="104.668567">
<time>2016-10-06T22:50:53Z</time></trkpt>
<trkpt lat="25.288087" lon="104.668457">
<time>2016-10-06T22:50:54Z</time></trkpt>
<trkpt lat="25.287967" lon="104.668297">
<time>2016-10-06T22:50:55Z</time></trkpt>
<trkpt lat="25.287687" lon="104.667978">
<time>2016-10-06T22:50:56Z</time></trkpt>
<trkpt lat="25.287588" lon="104.667839">
<time>2016-10-06T22:50:57Z</time></trkpt>
<trkpt lat="25.287528" lon="104.667709">
<time>2016-10-06T22:50:58Z</time></trkpt>
<trkpt lat="25.287498" lon="104.66762">
<time>2016-10-06T22:50:59Z</time></trkpt>
<trkpt lat="25.287488" lon="104.66752">
<time>2016-10-06T22:51:00Z</time></trkpt>
<trkpt lat="25.287488" lon="104.66745">
<time>2016-10-06T22:51:01Z</time></trkpt>
<trkpt lat="25.287499" lon="104.66734">
<time>2016-10-06T22:51:02Z</time></trkpt>
<trkpt lat="25.287529" lon="104.667271">
<time>2016-10-06T22:51:03Z</time></trkpt>
<trkpt lat="25.287539" lon="104.667221">
<time>2016-10-06T22:51:04Z</time></trkpt>
<trkpt lat="25.287569" lon="104.667161">
<time>2016-10-06T22:51:05Z</time></trkpt>
<trkpt lat="25.287599" lon="104.667101">
<time>2016-10-06T22:51:06Z</time></trkpt>
<trkpt lat="25.287639" lon="104.667041">
<time>2016-10-06T22:51:07Z</time></trkpt>
<trkpt lat="25.287729" lon="104.666962">
<time>2016-10-06T22:51:08Z</time></trkpt>
<trkpt lat="25.28791" lon="104.666842">
<time>2016-10-06T22:51:09Z</time></trkpt>
<trkpt lat="25.28822" lon="104.666632">
<time>2016-10-06T22:51:10Z</time></trkpt>
<trkpt lat="25.2884" lon="104.666493">
<time>2016-10-06T22:51:11Z</time></trkpt>
<trkpt lat="25.288501" lon="104.666413">
<time>2016-10-06T22:51:12Z</time></trkpt>
<trkpt lat="25.288591" lon="104.666323">
<time>2016-10-06T22:51:13Z</time></trkpt>
<trkpt lat="25.288671" lon="104.666224">
<time>2016-10-06T22:51:14Z</time></trkpt>
<trkpt lat="25.288721" lon="104.666114">
<time>2016-10-06T22:51:15Z</time></trkpt>
<trkpt lat="25.288771" lon="104.665974">
<time>2016-10-06T22:51:16Z</time></trkpt>
<trkpt lat="25.288792" lon="104.665855">
<time>2016-10-06T22:51:17Z</time></trkpt>
<trkpt lat="25.288792" lon="104.665805">
<time>2016-10-06T22:51:18Z</time></trkpt>
<trkpt lat="25.288792" lon="104.665775">
<time>2016-10-06T22:51:19Z</time></trkpt>
<trkpt lat="25.288792" lon="104.665655">
<time>2016-10-06T22:51:20Z</time></trkpt>
<trkpt lat="25.288743" lon="104.665057">
<time>2016-10-06T22:51:21Z</time></trkpt>
<trkpt lat="25.288734" lon="104.664768">
<time>2016-10-06T22:51:22Z</time></trkpt>
<trkpt lat="25.288734" lon="104.664658">
<time>2016-10-06T22:51:23Z</time></trkpt>
<trkpt lat="25.288754" lon="104.664549">
<time>2016-10-06T22:51:24Z</time></trkpt>
<trkpt lat="25.288774" lon="104.664479">
<time>2016-10-06T22:51:25Z</time></trkpt>
<trkpt lat="25.288814" lon="104.664409">
<time>2016-10-06T22:51:26Z</time></trkpt>
<trkpt lat="25.288865" lon="104.664309">
<time>2016-10-06T22:51:27Z</time></trkpt>
<trkpt lat="25.288975" lon="104.66418">
<time>2016-10-06T22:51:28Z</time></trkpt>
<trkpt lat="25.289075" lon="104.66407">
<time>2016-10-06T22:51:29Z</time></trkpt>
<trkpt lat="25.289155" lon="104.663971">
<time>2016-10-06T22:51:30Z</time></trkpt>
<trkpt lat="25.289215" lon="104.663871">
<time>2016-10-06T22:51:31Z</time></trkpt>
<trkpt lat="25.289266" lon="104.663761">
<time>2016-10-06T22:51:32Z</time></trkpt>
<trkpt lat="25.289316" lon="104.663632">
<time>2016-10-06T22:51:33Z</time></trkpt>
<trkpt lat="25.289316" lon="104.663582">
<time>2016-10-06T22:51:34Z</time></trkpt>
<trkpt lat="25.289326" lon="104.663512">
<time>2016-10-06T22:51:35Z</time></trkpt>
<trkpt lat="25.289326" lon="104.663452">
<time>2016-10-06T22:51:36Z</time></trkpt>
<trkpt lat="25.289316" lon="104.663392">
<time>2016-10-06T22:51:37Z</time></trkpt>
<trkpt lat="25.289306" lon="104.663342">
<time>2016-10-06T22:51:38Z</time></trkpt>
<trkpt lat="25.289287" lon="104.663293">
<time>2016-10-06T22:51:39Z</time></trkpt>
<trkpt lat="25.289277" lon="104.663233">
<time>2016-10-06T22:51:40Z</time></trkpt>
<trkpt lat="25.289217" lon="104.663123">
<time>2016-10-06T22:51:41Z</time></trkpt>
<trkpt lat="25.288998" lon="104.662674">
<time>2016-10-06T22:51:42Z</time></trkpt>
<trkpt lat="25.288888" lon="104.662355">
<time>2016-10-06T22:51:43Z</time></trkpt>
<trkpt lat="25.288839" lon="104.662176">
<time>2016-10-06T22:51:44Z</time></trkpt>
<trkpt lat="25.288819" lon="104.662006">
<time>2016-10-06T22:51:45Z</time></trkpt>
<trkpt lat="25.28876" lon="104.661179">
<time>2016-10-06T22:51:46Z</time></trkpt>
<trkpt lat="25.288741" lon="104.66078">
<time>2016-10-06T22:51:47Z</time></trkpt>
<trkpt lat="25.288762" lon="104.660561">
<time>2016-10-06T22:51:48Z</time></trkpt>
<trkpt lat="25.288772" lon="104.660441">
<time>2016-10-06T22:51:49Z</time></trkpt>
<trkpt lat="25.288792" lon="104.660331">
<time>2016-10-06T22:51:50Z</time></trkpt>
<trkpt lat="25.288832" lon="104.660222">
<time>2016-10-06T22:51:51Z</time></trkpt>
<trkpt lat="25.288973" lon="104.659933">
<time>2016-10-06T22:51:52Z</time></trkpt>
<trkpt lat="25.289043" lon="104.659763">
<time>2016-10-06T22:51:53Z</time></trkpt>
<trkpt lat="25.289104" lon="104.659584">
<time>2016-10-06T22:51:54Z</time></trkpt>
<trkpt lat="25.289134" lon="104.659474">
<time>2016-10-06T22:51:55Z</time></trkpt>
<trkpt lat="25.289144" lon="104.659354">
<time>2016-10-06T22:51:56Z</time></trkpt>
<trkpt lat="25.289144" lon="104.659255">
<time>2016-10-06T22:51:57Z</time></trkpt>
<trkpt lat="25.289134" lon="104.659175">
<time>2016-10-06T22:51:58Z</time></trkpt>
<trkpt lat="25.289134" lon="104.659115">
<time>2016-10-06T22:51:59Z</time></trkpt>
<trkpt lat="25.289115" lon="104.659015">
<time>2016-10-06T22:52:00Z</time></trkpt>
<trkpt lat="25.289085" lon="104.658926">
<time>2016-10-06T22:52:01Z</time></trkpt>
<trkpt lat="25.289015" lon="104.658716">
<time>2016-10-06T22:52:02Z</time></trkpt>
<trkpt lat="25.288965" lon="104.658646">
<time>2016-10-06T22:52:03Z</time></trkpt>
<trkpt lat="25.288915" lon="104.658557">
<time>2016-10-06T22:52:04Z</time></trkpt>
<trkpt lat="25.288856" lon="104.658467">
<time>2016-10-06T22:52:05Z</time></trkpt>
<trkpt lat="25.288786" lon="104.658387">
<time>2016-10-06T22:52:06Z</time></trkpt>
<trkpt lat="25.288776" lon="104.658367">
<time>2016-10-06T22:52:07Z</time></trkpt>
<trkpt lat="25.288506" lon="104.658078">
<time>2016-10-06T22:52:08Z</time></trkpt>
<trkpt lat="25.288087" lon="104.65764">
<time>2016-10-06T22:52:09Z</time></trkpt>
<trkpt lat="25.287738" lon="104.657271">
<time>2016-10-06T22:52:10Z</time></trkpt>
<trkpt lat="25.287578" lon="104.657111">
<time>2016-10-06T22:52:11Z</time></trkpt>
<trkpt lat="25.287508" lon="104.657051">
<time>2016-10-06T22:52:12Z</time></trkpt>
<trkpt lat="25.287458" lon="104.657021">
<time>2016-10-06T22:52:13Z</time></trkpt>
<trkpt lat="25.287388" lon="104.656991">
<time>2016-10-06T22:52:14Z</time></trkpt>
<trkpt lat="25.287308" lon="104.656962">
<time>2016-10-06T22:52:15Z</time></trkpt>
<trkpt lat="25.287218" lon="104.656942">
<time>2016-10-06T22:52:16Z</time></trkpt>
<trkpt lat="25.287128" lon="104.656932">
<time>2016-10-06T22:52:17Z</time></trkpt>
<trkpt lat="25.286978" lon="104.656922">
<time>2016-10-06T22:52:18Z</time></trkpt>
<trkpt lat="25.286498" lon="104.656902">
<time>2016-10-06T22:52:19Z</time></trkpt>
<trkpt lat="25.286308" lon="104.656892">
<time>2016-10-06T22:52:20Z</time></trkpt>
<trkpt lat="25.286188" lon="104.656872">
<time>2016-10-06T22:52:21Z</time></trkpt>
<trkpt lat="25.286118" lon="104.656842">
<time>2016-10-06T22:52:22Z</time></trkpt>
<trkpt lat="25.286029" lon="104.656802">
<time>2016-10-06T22:52:23Z</time></trkpt>
<trkpt lat="25.285969" lon="104.656742">
<time>2016-10-06T22:52:24Z</time></trkpt>
<trkpt lat="25.285909" lon="104.656702">
<time>2016-10-06T22:52:25Z</time></trkpt>
<trkpt lat="25.285869" lon="104.656643">
<time>2016-10-06T22:52:26Z</time></trkpt>
<trkpt lat="25.285829" lon="104.656573">
<time>2016-10-06T22:52:27Z</time></trkpt>
<trkpt lat="25.285809" lon="104.656523">
<time>2016-10-06T22:52:28Z</time></trkpt>
<trkpt lat="25.285789" lon="104.656453">
<time>2016-10-06T22:52:29Z</time></trkpt>
<trkpt lat="25.285779" lon="104.656383">
<time>2016-10-06T22:52:30Z</time></trkpt>
<trkpt lat="25.285769" lon="104.656304">
<time>2016-10-06T22:52:31Z</time></trkpt>
<trkpt lat="25.28578" lon="104.656224">
<time>2016-10-06T22:52:32Z</time></trkpt>
<trkpt lat="25.28579" lon="104.656144">
<time>2016-10-06T22:52:33Z</time></trkpt>
<trkpt lat="25.28581" lon="104.656084">
<time>2016-10-06T22:52:34Z</time></trkpt>
<trkpt lat="25.28583" lon="104.656034">
<time>2016-10-06T22:52:35Z</time></trkpt>
<trkpt lat="25.28586" lon="104.655984">
<time>2016-10-06T22:52:36Z</time></trkpt>
<trkpt lat="25.28589" lon="104.655945">
<time>2016-10-06T22:52:37Z</time></trkpt>
<trkpt lat="25.28593" lon="104.655895">
<time>2016-10-06T22:52:38Z</time></trkpt>
<trkpt lat="25.28597" lon="104.655855">
<time>2016-10-06T22:52:39Z</time></trkpt>
<trkpt lat="25.28601" lon="104.655825">
<time>2016-10-06T22:52:40Z</time></trkpt>
<trkpt lat="25.28605" lon="104.655795">
<time>2016-10-06T22:52:41Z</time></trkpt>
<trkpt lat="25.286221" lon="104.655695">
<time>2016-10-06T22:52:42Z</time></trkpt>
<trkpt lat="25.286661" lon="104.655466">
<time>2016-10-06T22:52:43Z</time></trkpt>
<trkpt lat="25.286831" lon="104.655386">
<time>2016-10-06T22:52:44Z</time></trkpt>
<trkpt lat="25.286971" lon="104.655306">
<time>2016-10-06T22:52:45Z</time></trkpt>
<trkpt lat="25.287081" lon="104.655227">
<time>2016-10-06T22:52:46Z</time></trkpt>
<trkpt lat="25.287222" lon="104.655107">
<time>2016-10-06T22:52:47Z</time></trkpt>
<trkpt lat="25.287282" lon="104.655047">
<time>2016-10-06T22:52:48Z</time></trkpt>
<trkpt lat="25.287392" lon="104.654918">
<time>2016-10-06T22:52:49Z</time></trkpt>
<trkpt lat="25.287472" lon="104.654788">
<time>2016-10-06T22:52:50Z</time></trkpt>
<trkpt lat="25.287543" lon="104.654648">
<time>2016-10-06T22:52:51Z</time></trkpt>
<trkpt lat="25.287603" lon="104.654489">
<time>2016-10-06T22:52:52Z</time></trkpt>
<trkpt lat="25.287643" lon="104.654339">
<time>2016-10-06T22:52:53Z</time></trkpt>
<trkpt lat="25.287663" lon="104.65423">
<time>2016-10-06T22:52:54Z</time></trkpt>
<trkpt lat="25.287674" lon="104.6541">
<time>2016-10-06T22:52:55Z</time></trkpt>
<trkpt lat="25.287674" lon="104.654">
<time>2016-10-06T22:52:56Z</time></trkpt>
<trkpt lat="25.287674" lon="104.653861">
<time>2016-10-06T22:52:57Z</time></trkpt>
<trkpt lat="25.287664" lon="104.653791">
<time>2016-10-06T22:52:58Z</time></trkpt>
<trkpt lat="25.287634" lon="104.653661">
<time>2016-10-06T22:52:59Z</time></trkpt>
<trkpt lat="25.287605" lon="104.653552">
<time>2016-10-06T22:53:00Z</time></trkpt>
<trkpt lat="25.287555" lon="104.653392">
<time>2016-10-06T22:53:01Z</time></trkpt>
<trkpt lat="25.287356" lon="104.652844">
<time>2016-10-06T22:53:02Z</time></trkpt>
<trkpt lat="25.287127" lon="104.652265">
<time>2016-10-06T22:53:03Z</time></trkpt>
<trkpt lat="25.287027" lon="104.651976">
<time>2016-10-06T22:53:04Z</time></trkpt>
<trkpt lat="25.286988" lon="104.651837">
<time>2016-10-06T22:53:05Z</time></trkpt>
<trkpt lat="25.286978" lon="104.651727">
<time>2016-10-06T22:53:06Z</time></trkpt>
<trkpt lat="25.286978" lon="104.651647">
<time>2016-10-06T22:53:07Z</time></trkpt>
<trkpt lat="25.286978" lon="104.651498">
<time>2016-10-06T22:53:08Z</time></trkpt>
<trkpt lat="25.286998" lon="104.651398">
<time>2016-10-06T22:53:09Z</time></trkpt>
<trkpt lat="25.287008" lon="104.651348">
<time>2016-10-06T22:53:10Z</time></trkpt>
<trkpt lat="25.287059" lon="104.651208">
<time>2016-10-06T22:53:11Z</time></trkpt>
<trkpt lat="25.287229" lon="104.650839">
<time>2016-10-06T22:53:12Z</time></trkpt>
<trkpt lat="25.2874" lon="104.65048">
<time>2016-10-06T22:53:13Z</time></trkpt>
<trkpt lat="25.28747" lon="104.650291">
<time>2016-10-06T22:53:14Z</time></trkpt>
<trkpt lat="25.287531" lon="104.650121">
<time>2016-10-06T22:53:15Z</time></trkpt>
<trkpt lat="25.287591" lon="104.649902">
<time>2016-10-06T22:53:16Z</time></trkpt>
<trkpt lat="25.287722" lon="104.649374">
<time>2016-10-06T22:53:17Z</time></trkpt>
<trkpt lat="25.287792" lon="104.649114">
<time>2016-10-06T22:53:18Z</time></trkpt>
<trkpt lat="25.287863" lon="104.648855">
<time>2016-10-06T22:53:19Z</time></trkpt>
<trkpt lat="25.287903" lon="104.648725">
<time>2016-10-06T22:53:20Z</time></trkpt>
<trkpt lat="25.287973" lon="104.648556">
<time>2016-10-06T22:53:21Z</time></trkpt>
<trkpt lat="25.288024" lon="104.648446">
<time>2016-10-06T22:53:22Z</time></trkpt>
<trkpt lat="25.288104" lon="104.648317">
<time>2016-10-06T22:53:23Z</time></trkpt>
<trkpt lat="25.288204" lon="104.648177">
<time>2016-10-06T22:53:24Z</time></trkpt>
<trkpt lat="25.288525" lon="104.647748">
<time>2016-10-06T22:53:25Z</time></trkpt>
<trkpt lat="25.288705" lon="104.647479">
<time>2016-10-06T22:53:26Z</time></trkpt>
<trkpt lat="25.288796" lon="104.647329">
<time>2016-10-06T22:53:27Z</time></trkpt>
<trkpt lat="25.288866" lon="104.64721">
<time>2016-10-06T22:53:28Z</time></trkpt>
<trkpt lat="25.288896" lon="104.64713">
<time>2016-10-06T22:53:29Z</time></trkpt>
<trkpt lat="25.288926" lon="104.64705">
<time>2016-10-06T22:53:30Z</time></trkpt>
<trkpt lat="25.288936" lon="104.64698">
<time>2016-10-06T22:53:31Z</time></trkpt>
<trkpt lat="25.288936" lon="104.646871">
<time>2016-10-06T22:53:32Z</time></trkpt>
<trkpt lat="25.288947" lon="104.646801">
<time>2016-10-06T22:53:33Z</time></trkpt>
<trkpt lat="25.288927" lon="104.646691">
<time>2016-10-06T22:53:34Z</time></trkpt>
<trkpt lat="25.288897" lon="104.646591">
<time>2016-10-06T22:53:35Z</time></trkpt>
<trkpt lat="25.288857" lon="104.646502">
<time>2016-10-06T22:53:36Z</time></trkpt>
<trkpt lat="25.288817" lon="104.646422">
<time>2016-10-06T22:53:37Z</time></trkpt>
<trkpt lat="25.288757" lon="104.646332">
<time>2016-10-06T22:53:38Z</time></trkpt>
<trkpt lat="25.288588" lon="104.646133">
<time>2016-10-06T22:53:39Z</time></trkpt>
<trkpt lat="25.288079" lon="104.645594">
<time>2016-10-06T22:53:40Z</time></trkpt>
<trkpt lat="25.287659" lon="104.645145">
<time>2016-10-06T22:53:41Z</time></trkpt>
<trkpt lat="25.28745" lon="104.644936">
<time>2016-10-06T22:53:42Z</time></trkpt>
<trkpt lat="25.28732" lon="104.644806">
<time>2016-10-06T22:53:43Z</time></trkpt>
<trkpt lat="25.28718" lon="104.644707">
<time>2016-10-06T22:53:44Z</time></trkpt>
<trkpt lat="25.28706" lon="104.644627">
<time>2016-10-06T22:53:45Z</time></trkpt>
<trkpt lat="25.28691" lon="104.644567">
<time>2016-10-06T22:53:46Z</time></trkpt>
<trkpt lat="25.28678" lon="104.644527">
<time>2016-10-06T22:53:47Z</time></trkpt>
<trkpt lat="25.28662" lon="104.644507">
<time>2016-10-06T22:53:48Z</time></trkpt>
<trkpt lat="25.28586" lon="104.644437">
<time>2016-10-06T22:53:49Z</time></trkpt>
<trkpt lat="25.28537" lon="104.644378">
<time>2016-10-06T22:53:50Z</time></trkpt>
<trkpt lat="25.28507" lon="104.644358">
<time>2016-10-06T22:53:51Z</time></trkpt>
<trkpt lat="25.28485" lon="104.644338">
<time>2016-10-06T22:53:52Z</time></trkpt>
<trkpt lat="25.2846" lon="104.644358">
<time>2016-10-06T22:53:53Z</time></trkpt>
<trkpt lat="25.28414" lon="104.644417">
<time>2016-10-06T22:53:54Z</time></trkpt>
<trkpt lat="25.28366" lon="104.644467">
<time>2016-10-06T22:53:55Z</time></trkpt>
<trkpt lat="25.28314" lon="104.644537">
<time>2016-10-06T22:53:56Z</time></trkpt>
<trkpt lat="25.28302" lon="104.644547">
<time>2016-10-06T22:53:57Z</time></trkpt>
<trkpt lat="25.28292" lon="104.644537">
<time>2016-10-06T22:53:58Z</time></trkpt>
<trkpt lat="25.28285" lon="104.644517">
<time>2016-10-06T22:53:59Z</time></trkpt>
<trkpt lat="25.28282" lon="104.644507">
<time>2016-10-06T22:54:00Z</time></trkpt>
<trkpt lat="25.28278" lon="104.644467">
<time>2016-10-06T22:54:01Z</time></trkpt>
<trkpt lat="25.28276" lon="104.644457">
<time>2016-10-06T22:54:02Z</time></trkpt>
<trkpt lat="25.28275" lon="104.644437">
<time>2016-10-06T22:54:03Z</time></trkpt>
<trkpt lat="25.28273" lon="104.644418">
<time>2016-10-06T22:54:04Z</time></trkpt>
<trkpt lat="25.28271" lon="104.644378">
<time>2016-10-06T22:54:05Z</time></trkpt>
<trkpt lat="25.28269" lon="104.644338">
<time>2016-10-06T22:54:06Z</time></trkpt>
<trkpt lat="25.28268" lon="104.644298">
<time>2016-10-06T22:54:07Z</time></trkpt>
<trkpt lat="25.28268" lon="104.644258">
<time>2016-10-06T22:54:08Z</time></trkpt>
<trkpt lat="25.282681" lon="104.644218">
<time>2016-10-06T22:54:09Z</time></trkpt>
<trkpt lat="25.282681" lon="104.644178">
<time>2016-10-06T22:54:10Z</time></trkpt>
<trkpt lat="25.282691" lon="104.644138">
<time>2016-10-06T22:54:11Z</time></trkpt>
<trkpt lat="25.282711" lon="104.644098">
<time>2016-10-06T22:54:12Z</time></trkpt>
<trkpt lat="25.282731" lon="104.644068">
<time>2016-10-06T22:54:13Z</time></trkpt>
<trkpt lat="25.282761" lon="104.644029">
<time>2016-10-06T22:54:14Z</time></trkpt>
<trkpt lat="25.282781" lon="104.644009">
<time>2016-10-06T22:54:15Z</time></trkpt>
<trkpt lat="25.282811" lon="104.643989">
<time>2016-10-06T22:54:16Z</time></trkpt>
<trkpt lat="25.282831" lon="104.643979">
<time>2016-10-06T22:54:17Z</time></trkpt>
<trkpt lat="25.282871" lon="104.643959">
<time>2016-10-06T22:54:18Z</time></trkpt>
<trkpt lat="25.282911" lon="104.643949">
<time>2016-10-06T22:54:19Z</time></trkpt>
<trkpt lat="25.282951" lon="104.643949">
<time>2016-10-06T22:54:20Z</time></trkpt>
<trkpt lat="25.282991" lon="104.643949">
<time>2016-10-06T22:54:21Z</time></trkpt>
<trkpt lat="25.283051" lon="104.643959">
<time>2016-10-06T22:54:22Z</time></trkpt>
<trkpt lat="25.283101" lon="104.643969">
<time>2016-10-06T22:54:23Z</time></trkpt>
<trkpt lat="25.283181" lon="104.643989">
<time>2016-10-06T22:54:24Z</time></trkpt>
<trkpt lat="25.283451" lon="104.644058">
<time>2016-10-06T22:54:25Z</time></trkpt>
<trkpt lat="25.283651" lon="104.644088">
<time>2016-10-06T22:54:26Z</time></trkpt>
<trkpt lat="25.283761" lon="104.644098">
<time>2016-10-06T22:54:27Z</time></trkpt>
<trkpt lat="25.283891" lon="104.644088">
<time>2016-10-06T22:54:28Z</time></trkpt>
<trkpt lat="25.284021" lon="104.644068">
<time>2016-10-06T22:54:29Z</time></trkpt>
<trkpt lat="25.284131" lon="104.644048">
<time>2016-10-06T22:54:30Z</time></trkpt>
<trkpt lat="25.284271" lon="104.644019">
<time>2016-10-06T22:54:31Z</time></trkpt>
<trkpt lat="25.284501" lon="104.643929">
<time>2016-10-06T22:54:32Z</time></trkpt>
<trkpt lat="25.284791" lon="104.643789">
<time>2016-10-06T22:54:33Z</time></trkpt>
<trkpt lat="25.285092" lon="104.64363">
<time>2016-10-06T22:54:34Z</time></trkpt>
<trkpt lat="25.285252" lon="104.64352">
<time>2016-10-06T22:54:35Z</time></trkpt>
<trkpt lat="25.285422" lon="104.64337">
<time>2016-10-06T22:54:36Z</time></trkpt>
<trkpt lat="25.285532" lon="104.643281">
<time>2016-10-06T22:54:37Z</time></trkpt>
<trkpt lat="25.286153" lon="104.642652">
<time>2016-10-06T22:54:38Z</time></trkpt>
<trkpt lat="25.286554" lon="104.642233">
<time>2016-10-06T22:54:39Z</time></trkpt>
<trkpt lat="25.286754" lon="104.642024">
<time>2016-10-06T22:54:40Z</time></trkpt>
<trkpt lat="25.286814" lon="104.641954">
<time>2016-10-06T22:54:41Z</time></trkpt>
<trkpt lat="25.286845" lon="104.641894">
<time>2016-10-06T22:54:42Z</time></trkpt>
<trkpt lat="25.286865" lon="104.641854">
<time>2016-10-06T22:54:43Z</time></trkpt>
<trkpt lat="25.286885" lon="104.641804">
<time>2016-10-06T22:54:44Z</time></trkpt>
<trkpt lat="25.286885" lon="104.641735">
<time>2016-10-06T22:54:45Z</time></trkpt>
<trkpt lat="25.286885" lon="104.641665">
<time>2016-10-06T22:54:46Z</time></trkpt>
<trkpt lat="25.286875" lon="104.641605">
<time>2016-10-06T22:54:47Z</time></trkpt>
<trkpt lat="25.286855" lon="104.641565">
<time>2016-10-06T22:54:48Z</time></trkpt>
<trkpt lat="25.286825" lon="104.641515">
<time>2016-10-06T22:54:49Z</time></trkpt>
<trkpt lat="25.286795" lon="104.641485">
<time>2016-10-06T22:54:50Z</time></trkpt>
<trkpt lat="25.286745" lon="104.641445">
<time>2016-10-06T22:54:51Z</time></trkpt>
<trkpt lat="25.286715" lon="104.641415">
<time>2016-10-06T22:54:52Z</time></trkpt>
<trkpt lat="25.286665" lon="104.641406">
<time>2016-10-06T22:54:53Z</time></trkpt>
<trkpt lat="25.286615" lon="104.641396">
<time>2016-10-06T22:54:54Z</time></trkpt>
<trkpt lat="25.286555" lon="104.641406">
<time>2016-10-06T22:54:55Z</time></trkpt>
<trkpt lat="25.286495" lon="104.641416">
<time>2016-10-06T22:54:56Z</time></trkpt>
<trkpt lat="25.286415" lon="104.641445">
<time>2016-10-06T22:54:57Z</time></trkpt>
<trkpt lat="25.286315" lon="104.641525">
<time>2016-10-06T22:54:58Z</time></trkpt>
<trkpt lat="25.285894" lon="104.641914">
<time>2016-10-06T22:54:59Z</time></trkpt>
<trkpt lat="25.285444" lon="104.642353">
<time>2016-10-06T22:55:00Z</time></trkpt>
<trkpt lat="25.285023" lon="104.642752">
<time>2016-10-06T22:55:01Z</time></trkpt>
<trkpt lat="25.284913" lon="104.642842">
<time>2016-10-06T22:55:02Z</time></trkpt>
<trkpt lat="25.284833" lon="104.642902">
<time>2016-10-06T22:55:03Z</time></trkpt>
<trkpt lat="25.284743" lon="104.642941">
<time>2016-10-06T22:55:04Z</time></trkpt>
<trkpt lat="25.284663" lon="104.642961">
<time>2016-10-06T22:55:05Z</time></trkpt>
<trkpt lat="25.284583" lon="104.642971">
<time>2016-10-06T22:55:06Z</time></trkpt>
<trkpt lat="25.284533" lon="104.642971">
<time>2016-10-06T22:55:07Z</time></trkpt>
<trkpt lat="25.284453" lon="104.642951">
<time>2016-10-06T22:55:08Z</time></trkpt>
<trkpt lat="25.284373" lon="104.642922">
<time>2016-10-06T22:55:09Z</time></trkpt>
<trkpt lat="25.284293" lon="104.642882">
<time>2016-10-06T22:55:10Z</time></trkpt>
<trkpt lat="25.284223" lon="104.642832">
<time>2016-10-06T22:55:11Z</time></trkpt>
<trkpt lat="25.284183" lon="104.642802">
<time>2016-10-06T22:55:12Z</time></trkpt>
<trkpt lat="25.284143" lon="104.642752">
<time>2016-10-06T22:55:13Z</time></trkpt>
<trkpt lat="25.284103" lon="104.642682">
<time>2016-10-06T22:55:14Z</time></trkpt>
<trkpt lat="25.284073" lon="104.642612">
<time>2016-10-06T22:55:15Z</time></trkpt>
<trkpt lat="25.284053" lon="104.642533">
<time>2016-10-06T22:55:16Z</time></trkpt>
<trkpt lat="25.284044" lon="104.642453">
<time>2016-10-06T22:55:17Z</time></trkpt>
<trkpt lat="25.284024" lon="104.642233">
<time>2016-10-06T22:55:18Z</time></trkpt>
<trkpt lat="25.284014" lon="104.642014">
<time>2016-10-06T22:55:19Z</time></trkpt>
<trkpt lat="25.284015" lon="104.641705">
<time>2016-10-06T22:55:20Z</time></trkpt>
<trkpt lat="25.284026" lon="104.641096">
<time>2016-10-06T22:55:21Z</time></trkpt>
<trkpt lat="25.284026" lon="104.640877">
<time>2016-10-06T22:55:22Z</time></trkpt>
<trkpt lat="25.284036" lon="104.640767">
<time>2016-10-06T22:55:23Z</time></trkpt>
<trkpt lat="25.284056" lon="104.640678">
<time>2016-10-06T22:55:24Z</time></trkpt>
<trkpt lat="25.284076" lon="104.640598">
<time>2016-10-06T22:55:25Z</time></trkpt>
<trkpt lat="25.284177" lon="104.640289">
<time>2016-10-06T22:55:26Z</time></trkpt>
<trkpt lat="25.284468" lon="104.639541">
<time>2016-10-06T22:55:27Z</time></trkpt>
<trkpt lat="25.284659" lon="104.639012">
<time>2016-10-06T22:55:28Z</time></trkpt>
<trkpt lat="25.284729" lon="104.638842">
<time>2016-10-06T22:55:29Z</time></trkpt>
<trkpt lat="25.284789" lon="104.638733">
<time>2016-10-06T22:55:30Z</time></trkpt>
<trkpt lat="25.28485" lon="104.638663">
<time>2016-10-06T22:55:31Z</time></trkpt>
<trkpt lat="25.28491" lon="104.638593">
<time>2016-10-06T22:55:32Z</time></trkpt>
<trkpt lat="25.28497" lon="104.638533">
<time>2016-10-06T22:55:33Z</time></trkpt>
<trkpt lat="25.28502" lon="104.638503">
<time>2016-10-06T22:55:34Z</time></trkpt>
<trkpt lat="25.28507" lon="104.638473">
<time>2016-10-06T22:55:35Z</time></trkpt>
<trkpt lat="25.28516" lon="104.638453">
<time>2016-10-06T22:55:36Z</time></trkpt>
<trkpt lat="25.28528" lon="104.638453">
<time>2016-10-06T22:55:37Z</time></trkpt>
<trkpt lat="25.2854" lon="104.638473">
<time>2016-10-06T22:55:38Z</time></trkpt>
<trkpt lat="25.28558" lon="104.638513">
<time>2016-10-06T22:55:39Z</time></trkpt>
<trkpt lat="25.28609" lon="104.638673">
<time>2016-10-06T22:55:40Z</time></trkpt>
<trkpt lat="25.286359" lon="104.638762">
<time>2016-10-06T22:55:41Z</time></trkpt>
<trkpt lat="25.286449" lon="104.638782">
<time>2016-10-06T22:55:42Z</time></trkpt>
<trkpt lat="25.286539" lon="104.638782">
<time>2016-10-06T22:55:43Z</time></trkpt>
<trkpt lat="25.286599" lon="104.638782">
<time>2016-10-06T22:55:44Z</time></trkpt>
<trkpt lat="25.286659" lon="104.638772">
<time>2016-10-06T22:55:45Z</time></trkpt>
<trkpt lat="25.286719" lon="104.638772">
<time>2016-10-06T22:55:46Z</time></trkpt>
<trkpt lat="25.2868" lon="104.638743">
<time>2016-10-06T22:55:47Z</time></trkpt>
<trkpt lat="25.28686" lon="104.638713">
<time>2016-10-06T22:55:48Z</time></trkpt>
<trkpt lat="25.28691" lon="104.638683">
<time>2016-10-06T22:55:49Z</time></trkpt>
<trkpt lat="25.28696" lon="104.638633">
<time>2016-10-06T22:55:50Z</time></trkpt>
<trkpt lat="25.28699" lon="104.638583">
<time>2016-10-06T22:55:51Z</time></trkpt>
<trkpt lat="25.28705" lon="104.638503">
<time>2016-10-06T22:55:52Z</time></trkpt>
<trkpt lat="25.28707" lon="104.638443">
<time>2016-10-06T22:55:53Z</time></trkpt>
<trkpt lat="25.2871" lon="104.638354">
<time>2016-10-06T22:55:54Z</time></trkpt>
<trkpt lat="25.28712" lon="104.638234">
<time>2016-10-06T22:55:55Z</time></trkpt>
<trkpt lat="25.287121" lon="104.638114">
<time>2016-10-06T22:55:56Z</time></trkpt>
<trkpt lat="25.287101" lon="104.638014">
<time>2016-10-06T22:55:57Z</time></trkpt>
<trkpt lat="25.287071" lon="104.637915">
<time>2016-10-06T22:55:58Z</time></trkpt>
<trkpt lat="25.287031" lon="104.637795">
<time>2016-10-06T22:55:59Z</time></trkpt>
<trkpt lat="25.286981" lon="104.637655">
<time>2016-10-06T22:56:00Z</time></trkpt>
<trkpt lat="25.286782" lon="104.637117">
<time>2016-10-06T22:56:01Z</time></trkpt>
<trkpt lat="25.286593" lon="104.636628">
<time>2016-10-06T22:56:02Z</time></trkpt>
<trkpt lat="25.286493" lon="104.636349">
<time>2016-10-06T22:56:03Z</time></trkpt>
<trkpt lat="25.286433" lon="104.636179">
<time>2016-10-06T22:56:04Z</time></trkpt>
<trkpt lat="25.286384" lon="104.63599">
<time>2016-10-06T22:56:05Z</time></trkpt>
<trkpt lat="25.286354" lon="104.63583">
<time>2016-10-06T22:56:06Z</time></trkpt>
<trkpt lat="25.286344" lon="104.63569">
<time>2016-10-06T22:56:07Z</time></trkpt>
<trkpt lat="25.286344" lon="104.635551">
<time>2016-10-06T22:56:08Z</time></trkpt>
<trkpt lat="25.286386" lon="104.634693">
<time>2016-10-06T22:56:09Z</time></trkpt>
<trkpt lat="25.286426" lon="104.634144">
<time>2016-10-06T22:56:10Z</time></trkpt>
<trkpt lat="25.286437" lon="104.633925">
<time>2016-10-06T22:56:11Z</time></trkpt>
<trkpt lat="25.286457" lon="104.633805">
<time>2016-10-06T22:56:12Z</time></trkpt>
<trkpt lat="25.286477" lon="104.633735">
<time>2016-10-06T22:56:13Z</time></trkpt>
<trkpt lat="25.286507" lon="104.633595">
<time>2016-10-06T22:56:14Z</time></trkpt>
<trkpt lat="25.286557" lon="104.633436">
<time>2016-10-06T22:56:15Z</time></trkpt>
<trkpt lat="25.286838" lon="104.632797">
<time>2016-10-06T22:56:16Z</time></trkpt>
<trkpt lat="25.287049" lon="104.632329">
<time>2016-10-06T22:56:17Z</time></trkpt>
<trkpt lat="25.287089" lon="104.632249">
<time>2016-10-06T22:56:18Z</time></trkpt>
<trkpt lat="25.287159" lon="104.632139">
<time>2016-10-06T22:56:19Z</time></trkpt>
<trkpt lat="25.287219" lon="104.632069">
<time>2016-10-06T22:56:20Z</time></trkpt>
<trkpt lat="25.287259" lon="104.632029">
<time>2016-10-06T22:56:21Z</time></trkpt>
<trkpt lat="25.287299" lon="104.632009">
<time>2016-10-06T22:56:22Z</time></trkpt>
<trkpt lat="25.287339" lon="104.631999">
<time>2016-10-06T22:56:23Z</time></trkpt>
<trkpt lat="25.287369" lon="104.631999">
<time>2016-10-06T22:56:24Z</time></trkpt>
<trkpt lat="25.287409" lon="104.631999">
<time>2016-10-06T22:56:25Z</time></trkpt>
<trkpt lat="25.287449" lon="104.632009">
<time>2016-10-06T22:56:26Z</time></trkpt>
<trkpt lat="25.287489" lon="104.632019">
<time>2016-10-06T22:56:27Z</time></trkpt>
<trkpt lat="25.287529" lon="104.632039">
<time>2016-10-06T22:56:28Z</time></trkpt>
<trkpt lat="25.287559" lon="104.632069">
<time>2016-10-06T22:56:29Z</time></trkpt>
<trkpt lat="25.287589" lon="104.632099">
<time>2016-10-06T22:56:30Z</time></trkpt>
<trkpt lat="25.287609" lon="104.632139">
<time>2016-10-06T22:56:31Z</time></trkpt>
<trkpt lat="25.287619" lon="104.632159">
<time>2016-10-06T22:56:32Z</time></trkpt>
<trkpt lat="25.287639" lon="104.632209">
<time>2016-10-06T22:56:33Z</time></trkpt>
<trkpt lat="25.287649" lon="104.632239">
<time>2016-10-06T22:56:34Z</time></trkpt>
<trkpt lat="25.287649" lon="104.632289">
<time>2016-10-06T22:56:35Z</time></trkpt>
<trkpt lat="25.287659" lon="104.632338">
<time>2016-10-06T22:56:36Z</time></trkpt>
<trkpt lat="25.287649" lon="104.632458">
<time>2016-10-06T22:56:37Z</time></trkpt>
<trkpt lat="25.287608" lon="104.632728">
<time>2016-10-06T22:56:38Z</time></trkpt>
<trkpt lat="25.287507" lon="104.633466">
<time>2016-10-06T22:56:39Z</time></trkpt>
<trkpt lat="25.287447" lon="104.633845">
<time>2016-10-06T22:56:40Z</time></trkpt>
<trkpt lat="25.287417" lon="104.634074">
<time>2016-10-06T22:56:41Z</time></trkpt>
<trkpt lat="25.287396" lon="104.634254">
<time>2016-10-06T22:56:42Z</time></trkpt>
<trkpt lat="25.287386" lon="104.634413">
<time>2016-10-06T22:56:43Z</time></trkpt>
<trkpt lat="25.287396" lon="104.634543">
<time>2016-10-06T22:56:44Z</time></trkpt>
<trkpt lat="25.287406" lon="104.634643">
<time>2016-10-06T22:56:45Z</time></trkpt>
<trkpt lat="25.287426" lon="104.634723">
<time>2016-10-06T22:56:46Z</time></trkpt>
<trkpt lat="25.287455" lon="104.634783">
<time>2016-10-06T22:56:47Z</time></trkpt>
<trkpt lat="25.287495" lon="104.634872">
<time>2016-10-06T22:56:48Z</time></trkpt>
<trkpt lat="25.287525" lon="104.634932">
<time>2016-10-06T22:56:49Z</time></trkpt>
<trkpt lat="25.287565" lon="104.634982">
<time>2016-10-06T22:56:50Z</time></trkpt>
<trkpt lat="25.287615" lon="104.635032">
<time>2016-10-06T22:56:51Z</time></trkpt>
<trkpt lat="25.287705" lon="104.635102">
<time>2016-10-06T22:56:52Z</time></trkpt>
<trkpt lat="25.287795" lon="104.635142">
<time>2016-10-06T22:56:53Z</time></trkpt>
<trkpt lat="25.287865" lon="104.635152">
<time>2016-10-06T22:56:54Z</time></trkpt>
<trkpt lat="25.287915" lon="104.635162">
<time>2016-10-06T22:56:55Z</time></trkpt>
<trkpt lat="25.287975" lon="104.635162">
<time>2016-10-06T22:56:56Z</time></trkpt>
<trkpt lat="25.288095" lon="104.635162">
<time>2016-10-06T22:56:57Z</time></trkpt>
<trkpt lat="25.288215" lon="104.635142">
<time>2016-10-06T22:56:58Z</time></trkpt>
<trkpt lat="25.288395" lon="104.635102">
<time>2016-10-06T22:56:59Z</time></trkpt>
<trkpt lat="25.288935" lon="104.634962">
<time>2016-10-06T22:57:00Z</time></trkpt>
<trkpt lat="25.289486" lon="104.634812">
<time>2016-10-06T22:57:01Z</time></trkpt>
<trkpt lat="25.289716" lon="104.634743">
<time>2016-10-06T22:57:02Z</time></trkpt>
<trkpt lat="25.289806" lon="104.634703">
<time>2016-10-06T22:57:03Z</time></trkpt>
<trkpt lat="25.289896" lon="104.634663">
<time>2016-10-06T22:57:04Z</time></trkpt>
<trkpt lat="25.289966" lon="104.634633">
<time>2016-10-06T22:57:05Z</time></trkpt>
<trkpt lat="25.290016" lon="104.634593">
<time>2016-10-06T22:57:06Z</time></trkpt>
<trkpt lat="25.290106" lon="104.634523">
<time>2016-10-06T22:57:07Z</time></trkpt>
<trkpt lat="25.290206" lon="104.634443">
<time>2016-10-06T22:57:08Z</time></trkpt>
<trkpt lat="25.290356" lon="104.634294">
<time>2016-10-06T22:57:09Z</time></trkpt>
<trkpt lat="25.290447" lon="104.634174">
<time>2016-10-06T22:57:10Z</time></trkpt>
<trkpt lat="25.290697" lon="104.633835">
<time>2016-10-06T22:57:11Z</time></trkpt>
<trkpt lat="25.291138" lon="104.633236">
<time>2016-10-06T22:57:12Z</time></trkpt>
<trkpt lat="25.291459" lon="104.632807">
<time>2016-10-06T22:57:13Z</time></trkpt>
<trkpt lat="25.291679" lon="104.632498">
<time>2016-10-06T22:57:14Z</time></trkpt>
<trkpt lat="25.291829" lon="104.632298">
<time>2016-10-06T22:57:15Z</time></trkpt>
<trkpt lat="25.29207" lon="104.631989">
<time>2016-10-06T22:57:16Z</time></trkpt>
<trkpt lat="25.29228" lon="104.63174">
<time>2016-10-06T22:57:17Z</time></trkpt>
<trkpt lat="25.292711" lon="104.631281">
<time>2016-10-06T22:57:18Z</time></trkpt>
<trkpt lat="25.293031" lon="104.630962">
<time>2016-10-06T22:57:19Z</time></trkpt>
<trkpt lat="25.293291" lon="104.630732">
<time>2016-10-06T22:57:20Z</time></trkpt>
<trkpt lat="25.293442" lon="104.630612">
<time>2016-10-06T22:57:21Z</time></trkpt>
<trkpt lat="25.293632" lon="104.630463">
<time>2016-10-06T22:57:22Z</time></trkpt>
<trkpt lat="25.293852" lon="104.630313">
<time>2016-10-06T22:57:23Z</time></trkpt>
<trkpt lat="25.294072" lon="104.630163">
<time>2016-10-06T22:57:24Z</time></trkpt>
<trkpt lat="25.294222" lon="104.630054">
<time>2016-10-06T22:57:25Z</time></trkpt>
<trkpt lat="25.294353" lon="104.629944">
<time>2016-10-06T22:57:26Z</time></trkpt>
<trkpt lat="25.294453" lon="104.629834">
<time>2016-10-06T22:57:27Z</time></trkpt>
<trkpt lat="25.294523" lon="104.629754">
<time>2016-10-06T22:57:28Z</time></trkpt>
<trkpt lat="25.294593" lon="104.629665">
<time>2016-10-06T22:57:29Z</time></trkpt>
<trkpt lat="25.294673" lon="104.629535">
<time>2016-10-06T22:57:30Z</time></trkpt>
<trkpt lat="25.295014" lon="104.628976">
<time>2016-10-06T22:57:31Z</time></trkpt>
<trkpt lat="25.295274" lon="104.628567">
<time>2016-10-06T22:57:32Z</time></trkpt>
<trkpt lat="25.295395" lon="104.628407">
<time>2016-10-06T22:57:33Z</time></trkpt>
<trkpt lat="25.295455" lon="104.628318">
<time>2016-10-06T22:57:34Z</time></trkpt>
<trkpt lat="25.295505" lon="104.628268">
<time>2016-10-06T22:57:35Z</time></trkpt>
<trkpt lat="25.295585" lon="104.628188">
<time>2016-10-06T22:57:36Z</time></trkpt>
<trkpt lat="25.295675" lon="104.628088">
<time>2016-10-06T22:57:37Z</time></trkpt>
<trkpt lat="25.295835" lon="104.627948">
<time>2016-10-06T22:57:38Z</time></trkpt>
<trkpt lat="25.296055" lon="104.627769">
<time>2016-10-06T22:57:39Z</time></trkpt>
<trkpt lat="25.296306" lon="104.627559">
<time>2016-10-06T22:57:40Z</time></trkpt>
<trkpt lat="25.296476" lon="104.62741">
<time>2016-10-06T22:57:41Z</time></trkpt>
<trkpt lat="25.296606" lon="104.62728">
<time>2016-10-06T22:57:42Z</time></trkpt>
<trkpt lat="25.296676" lon="104.6272">
<time>2016-10-06T22:57:43Z</time></trkpt>
<trkpt lat="25.296746" lon="104.62711">
<time>2016-10-06T22:57:44Z</time></trkpt>
<trkpt lat="25.296846" lon="104.62698">
<time>2016-10-06T22:57:45Z</time></trkpt>
<trkpt lat="25.297027" lon="104.626731">
<time>2016-10-06T22:57:46Z</time></trkpt>
<trkpt lat="25.297187" lon="104.626502">
<time>2016-10-06T22:57:47Z</time></trkpt>
<trkpt lat="25.297317" lon="104.626342">
<time>2016-10-06T22:57:48Z</time></trkpt>
<trkpt lat="25.297407" lon="104.626252">
<time>2016-10-06T22:57:49Z</time></trkpt>
<trkpt lat="25.297548" lon="104.626092">
<time>2016-10-06T22:57:50Z</time></trkpt>
<trkpt lat="25.297838" lon="104.625783">
<time>2016-10-06T22:57:51Z</time></trkpt>
<trkpt lat="25.298098" lon="104.625554">
<time>2016-10-06T22:57:52Z</time></trkpt>
<trkpt lat="25.298228" lon="104.625444">
<time>2016-10-06T22:57:53Z</time></trkpt>
<trkpt lat="25.298339" lon="104.625354">
<time>2016-10-06T22:57:54Z</time></trkpt>
<trkpt lat="25.298469" lon="104.625264">
<time>2016-10-06T22:57:55Z</time></trkpt>
<trkpt lat="25.298579" lon="104.625194">
<time>2016-10-06T22:57:56Z</time></trkpt>
<trkpt lat="25.298709" lon="104.625115">
<time>2016-10-06T22:57:57Z</time></trkpt>
<trkpt lat="25.298899" lon="104.625005">
<time>2016-10-06T22:57:58Z</time></trkpt>
<trkpt lat="25.301971" lon="104.623737">
<time>2016-10-06T22:57:59Z</time></trkpt>
<trkpt lat="25.302281" lon="104.623598">
<time>2016-10-06T22:58:00Z</time></trkpt>
<trkpt lat="25.302551" lon="104.623448">
<time>2016-10-06T22:58:01Z</time></trkpt>
<trkpt lat="25.303402" lon="104.622839">
<time>2016-10-06T22:58:02Z</time></trkpt>
<trkpt lat="25.303782" lon="104.62255">
<time>2016-10-06T22:58:03Z</time></trkpt>
<trkpt lat="25.304212" lon="104.62229">
<time>2016-10-06T22:58:04Z</time></trkpt>
<trkpt lat="25.305543" lon="104.621632">
<time>2016-10-06T22:58:05Z</time></trkpt>
<trkpt lat="25.305753" lon="104.621492">
<time>2016-10-06T22:58:06Z</time></trkpt>
<trkpt lat="25.305923" lon="104.621362">
<time>2016-10-06T22:58:07Z</time></trkpt>
<trkpt lat="25.306074" lon="104.621232">
<time>2016-10-06T22:58:08Z</time></trkpt>
<trkpt lat="25.306184" lon="104.621093">
<time>2016-10-06T22:58:09Z</time></trkpt>
<trkpt lat="25.309068" lon="104.61725">
<time>2016-10-06T22:58:10Z</time></trkpt>
<trkpt lat="25.309268" lon="104.61703">
<time>2016-10-06T22:58:11Z</time></trkpt>
<trkpt lat="25.309508" lon="104.616831">
<time>2016-10-06T22:58:12Z</time></trkpt>
<trkpt lat="25.309808" lon="104.616581">
<time>2016-10-06T22:58:13Z</time></trkpt>
<trkpt lat="25.31246" lon="104.614874">
<time>2016-10-06T22:58:14Z</time></trkpt>
<trkpt lat="25.31255" lon="104.614814">
<time>2016-10-06T22:58:15Z</time></trkpt>
<trkpt lat="25.31265" lon="104.614754">
<time>2016-10-06T22:58:16Z</time></trkpt>
<trkpt lat="25.31276" lon="104.614694">
<time>2016-10-06T22:58:17Z</time></trkpt>
<trkpt lat="25.31287" lon="104.614624">
<time>2016-10-06T22:58:18Z</time></trkpt>
<trkpt lat="25.313" lon="104.614564">
<time>2016-10-06T22:58:19Z</time></trkpt>
<trkpt lat="25.31312" lon="104.614495">
<time>2016-10-06T22:58:20Z</time></trkpt>
<trkpt lat="25.31324" lon="104.614435">
<time>2016-10-06T22:58:21Z</time></trkpt>
<trkpt lat="25.31336" lon="104.614375">
<time>2016-10-06T22:58:22Z</time></trkpt>
<trkpt lat="25.31347" lon="104.614305">
<time>2016-10-06T22:58:23Z</time></trkpt>
<trkpt lat="25.313601" lon="104.614245">
<time>2016-10-06T22:58:24Z</time></trkpt>
<trkpt lat="25.313721" lon="104.614225">
<time>2016-10-06T22:58:25Z</time></trkpt>
<trkpt lat="25.313861" lon="104.614205">
<time>2016-10-06T22:58:26Z</time></trkpt>
<trkpt lat="25.314191" lon="104.614195">
<time>2016-10-06T22:58:27Z</time></trkpt>
<trkpt lat="25.314331" lon="104.614185">
<time>2016-10-06T22:58:28Z</time></trkpt>
<trkpt lat="25.314481" lon="104.614175">
<time>2016-10-06T22:58:29Z</time></trkpt>
<trkpt lat="25.314611" lon="104.614155">
<time>2016-10-06T22:58:30Z</time></trkpt>
<trkpt lat="25.314711" lon="104.614125">
<time>2016-10-06T22:58:31Z</time></trkpt>
<trkpt lat="25.314821" lon="104.614085">
<time>2016-10-06T22:58:32Z</time></trkpt>
<trkpt lat="25.314941" lon="104.614025">
<time>2016-10-06T22:58:33Z</time></trkpt>
<trkpt lat="25.315051" lon="104.613945">
<time>2016-10-06T22:58:34Z</time></trkpt>
<trkpt lat="25.315151" lon="104.613816">
<time>2016-10-06T22:58:35Z</time></trkpt>
<trkpt lat="25.315251" lon="104.613676">
<time>2016-10-06T22:58:36Z</time></trkpt>
<trkpt lat="25.315602" lon="104.612917">
<time>2016-10-06T22:58:37Z</time></trkpt>
<trkpt lat="25.315712" lon="104.612658">
<time>2016-10-06T22:58:38Z</time></trkpt>
<trkpt lat="25.315812" lon="104.612448">
<time>2016-10-06T22:58:39Z</time></trkpt>
<trkpt lat="25.315892" lon="104.612288">
<time>2016-10-06T22:58:40Z</time></trkpt>
<trkpt lat="25.316463" lon="104.611609">
<time>2016-10-06T22:58:41Z</time></trkpt>
<trkpt lat="25.317283" lon="104.610741">
<time>2016-10-06T22:58:42Z</time></trkpt>
<trkpt lat="25.317493" lon="104.610531">
<time>2016-10-06T22:58:43Z</time></trkpt>
<trkpt lat="25.317644" lon="104.610411">
<time>2016-10-06T22:58:44Z</time></trkpt>
<trkpt lat="25.317774" lon="104.610331">
<time>2016-10-06T22:58:45Z</time></trkpt>
<trkpt lat="25.318934" lon="104.609692">
<time>2016-10-06T22:58:46Z</time></trkpt>
<trkpt lat="25.319264" lon="104.609522">
<time>2016-10-06T22:58:47Z</time></trkpt>
<trkpt lat="25.319544" lon="104.609403">
<time>2016-10-06T22:58:48Z</time></trkpt>
<trkpt lat="25.319704" lon="104.609363">
<time>2016-10-06T22:58:49Z</time></trkpt>
<trkpt lat="25.319844" lon="104.609323">
<time>2016-10-06T22:58:50Z</time></trkpt>
<trkpt lat="25.320715" lon="104.609073">
<time>2016-10-06T22:58:51Z</time></trkpt>
<trkpt lat="25.321265" lon="104.608903">
<time>2016-10-06T22:58:52Z</time></trkpt>
<trkpt lat="25.321645" lon="104.608763">
<time>2016-10-06T22:58:53Z</time></trkpt>
<trkpt lat="25.321685" lon="104.608743">
<time>2016-10-06T22:58:54Z</time></trkpt>
<trkpt lat="25.321935" lon="104.608644">
<time>2016-10-06T22:58:55Z</time></trkpt>
<trkpt lat="25.322185" lon="104.608534">
<time>2016-10-06T22:58:56Z</time></trkpt>
<trkpt lat="25.322265" lon="104.608494">
<time>2016-10-06T22:58:57Z</time></trkpt>
<trkpt lat="25.322315" lon="104.608464">
<time>2016-10-06T22:58:58Z</time></trkpt>
<trkpt lat="25.322365" lon="104.608434">
<time>2016-10-06T22:58:59Z</time></trkpt>
<trkpt lat="25.322405" lon="104.608404">
<time>2016-10-06T22:59:00Z</time></trkpt>
<trkpt lat="25.322435" lon="104.608374">
<time>2016-10-06T22:59:01Z</time></trkpt>
<trkpt lat="25.322465" lon="104.608344">
<time>2016-10-06T22:59:02Z</time></trkpt>
<trkpt lat="25.322505" lon="104.608294">
<time>2016-10-06T22:59:03Z</time></trkpt>
<trkpt lat="25.322535" lon="104.608254">
<time>2016-10-06T22:59:04Z</time></trkpt>
<trkpt lat="25.322565" lon="104.608204">
<time>2016-10-06T22:59:05Z</time></trkpt>
<trkpt lat="25.322585" lon="104.608154">
<time>2016-10-06T22:59:06Z</time></trkpt>
<trkpt lat="25.322605" lon="104.608104">
<time>2016-10-06T22:59:07Z</time></trkpt>
<trkpt lat="25.322615" lon="104.608054">
<time>2016-10-06T22:59:08Z</time></trkpt>
<trkpt lat="25.322625" lon="104.608014">
<time>2016-10-06T22:59:09Z</time></trkpt>
<trkpt lat="25.322625" lon="104.607965">
<time>2016-10-06T22:59:10Z</time></trkpt>
<trkpt lat="25.322625" lon="104.607915">
<time>2016-10-06T22:59:11Z</time></trkpt>
<trkpt lat="25.322625" lon="104.607865">
<time>2016-10-06T22:59:12Z</time></trkpt>
<trkpt lat="25.322625" lon="104.607815">
<time>2016-10-06T22:59:13Z</time></trkpt>
<trkpt lat="25.322616" lon="104.607755">
<time>2016-10-06T22:59:14Z</time></trkpt>
<trkpt lat="25.322606" lon="104.607675">
<time>2016-10-06T22:59:15Z</time></trkpt>
<trkpt lat="25.322596" lon="104.607615">
<time>2016-10-06T22:59:16Z</time></trkpt>
<trkpt lat="25.322496" lon="104.606896">
<time>2016-10-06T22:59:17Z</time></trkpt>
<trkpt lat="25.322466" lon="104.606716">
<time>2016-10-06T22:59:18Z</time></trkpt>
<trkpt lat="25.322436" lon="104.606606">
<time>2016-10-06T22:59:19Z</time></trkpt>
<trkpt lat="25.322396" lon="104.606537">
<time>2016-10-06T22:59:20Z</time></trkpt>
<trkpt lat="25.322346" lon="104.606467">
<time>2016-10-06T22:59:21Z</time></trkpt>
<trkpt lat="25.322296" lon="104.606417">
<time>2016-10-06T22:59:22Z</time></trkpt>
<trkpt lat="25.322266" lon="104.606387">
<time>2016-10-06T22:59:23Z</time></trkpt>
<trkpt lat="25.322196" lon="104.606357">
<time>2016-10-06T22:59:24Z</time></trkpt>
<trkpt lat="25.322116" lon="104.606337">
<time>2016-10-06T22:59:25Z</time></trkpt>
<trkpt lat="25.322016" lon="104.606317">
<time>2016-10-06T22:59:26Z</time></trkpt>
<trkpt lat="25.321926" lon="104.606317">
<time>2016-10-06T22:59:27Z</time></trkpt>
<trkpt lat="25.321686" lon="104.606337">
<time>2016-10-06T22:59:28Z</time></trkpt>
<trkpt lat="25.321316" lon="104.606387">
<time>2016-10-06T22:59:29Z</time></trkpt>
<trkpt lat="25.321136" lon="104.606407">
<time>2016-10-06T22:59:30Z</time></trkpt>
<trkpt lat="25.321026" lon="104.606417">
<time>2016-10-06T22:59:31Z</time></trkpt>
<trkpt lat="25.320946" lon="104.606417">
<time>2016-10-06T22:59:32Z</time></trkpt>
<trkpt lat="25.320856" lon="104.606417">
<time>2016-10-06T22:59:33Z</time></trkpt>
<trkpt lat="25.320796" lon="104.606397">
<time>2016-10-06T22:59:34Z</time></trkpt>
<trkpt lat="25.320736" lon="104.606377">
<time>2016-10-06T22:59:35Z</time></trkpt>
<trkpt lat="25.320666" lon="104.606357">
<time>2016-10-06T22:59:36Z</time></trkpt>
<trkpt lat="25.320616" lon="104.606317">
<time>2016-10-06T22:59:37Z</time></trkpt>
<trkpt lat="25.320556" lon="104.606267">
<time>2016-10-06T22:59:38Z</time></trkpt>
<trkpt lat="25.320496" lon="104.606207">
<time>2016-10-06T22:59:39Z</time></trkpt>
<trkpt lat="25.320466" lon="104.606147">
<time>2016-10-06T22:59:40Z</time></trkpt>
<trkpt lat="25.320446" lon="104.606087">
<time>2016-10-06T22:59:41Z</time></trkpt>
<trkpt lat="25.320416" lon="104.605997">
<time>2016-10-06T22:59:42Z</time></trkpt>
<trkpt lat="25.320406" lon="104.605917">
<time>2016-10-06T22:59:43Z</time></trkpt>
<trkpt lat="25.320416" lon="104.605828">
<time>2016-10-06T22:59:44Z</time></trkpt>
<trkpt lat="25.320436" lon="104.605728">
<time>2016-10-06T22:59:45Z</time></trkpt>
<trkpt lat="25.320466" lon="104.605638">
<time>2016-10-06T22:59:46Z</time></trkpt>
<trkpt lat="25.320556" lon="104.605438">
<time>2016-10-06T22:59:47Z</time></trkpt>
<trkpt lat="25.320837" lon="104.604949">
<time>2016-10-06T22:59:48Z</time></trkpt>
<trkpt lat="25.321087" lon="104.604499">
<time>2016-10-06T22:59:49Z</time></trkpt>
<trkpt lat="25.321167" lon="104.604359">
<time>2016-10-06T22:59:50Z</time></trkpt>
<trkpt lat="25.321237" lon="104.60425">
<time>2016-10-06T22:59:51Z</time></trkpt>
<trkpt lat="25.321277" lon="104.60419">
<time>2016-10-06T22:59:52Z</time></trkpt>
<trkpt lat="25.321317" lon="104.60415">
<time>2016-10-06T22:59:53Z</time></trkpt>
<trkpt lat="25.321407" lon="104.60405">
<time>2016-10-06T22:59:54Z</time></trkpt>
<trkpt lat="25.321507" lon="104.60395">
<time>2016-10-06T22:59:55Z</time></trkpt>
<trkpt lat="25.321617" lon="104.60389">
<time>2016-10-06T22:59:56Z</time></trkpt>
<trkpt lat="25.321707" lon="104.60385">
<time>2016-10-06T22:59:57Z</time></trkpt>
<trkpt lat="25.321787" lon="104.60383">
<time>2016-10-06T22:59:58Z</time></trkpt>
<trkpt lat="25.321917" lon="104.6038">
<time>2016-10-06T22:59:59Z</time></trkpt>
<trkpt lat="25.322027" lon="104.60379">
<time>2016-10-06T23:00:00Z</time></trkpt>
<trkpt lat="25.322127" lon="104.6038">
<time>2016-10-06T23:00:01Z</time></trkpt>
<trkpt lat="25.322227" lon="104.60381">
<time>2016-10-06T23:00:02Z</time></trkpt>
<trkpt lat="25.322347" lon="104.60384">
<time>2016-10-06T23:00:03Z</time></trkpt>
<trkpt lat="25.322487" lon="104.60389">
<time>2016-10-06T23:00:04Z</time></trkpt>
<trkpt lat="25.323047" lon="104.6041">
<time>2016-10-06T23:00:05Z</time></trkpt>
<trkpt lat="25.323327" lon="104.6042">
<time>2016-10-06T23:00:06Z</time></trkpt>
<trkpt lat="25.323627" lon="104.604319">
<time>2016-10-06T23:00:07Z</time></trkpt>
<trkpt lat="25.323817" lon="104.604399">
<time>2016-10-06T23:00:08Z</time></trkpt>
<trkpt lat="25.323987" lon="104.604459">
<time>2016-10-06T23:00:09Z</time></trkpt>
<trkpt lat="25.324117" lon="104.604489">
<time>2016-10-06T23:00:10Z</time></trkpt>
<trkpt lat="25.324187" lon="104.604499">
<time>2016-10-06T23:00:11Z</time></trkpt>
<trkpt lat="25.324257" lon="104.604499">
<time>2016-10-06T23:00:12Z</time></trkpt>
<trkpt lat="25.324327" lon="104.604489">
<time>2016-10-06T23:00:13Z</time></trkpt>
<trkpt lat="25.324427" lon="104.604449">
<time>2016-10-06T23:00:14Z</time></trkpt>
<trkpt lat="25.324517" lon="104.604409">
<time>2016-10-06T23:00:15Z</time></trkpt>
<trkpt lat="25.324577" lon="104.604359">
<time>2016-10-06T23:00:16Z</time></trkpt>
<trkpt lat="25.324637" lon="104.604289">
<time>2016-10-06T23:00:17Z</time></trkpt>
<trkpt lat="25.324687" lon="104.604209">
<time>2016-10-06T23:00:18Z</time></trkpt>
<trkpt lat="25.324727" lon="104.6041">
<time>2016-10-06T23:00:19Z</time></trkpt>
<trkpt lat="25.324757" lon="104.604">
<time>2016-10-06T23:00:20Z</time></trkpt>
<trkpt lat="25.324757" lon="104.60388">
<time>2016-10-06T23:00:21Z</time></trkpt>
<trkpt lat="25.324747" lon="104.60377">
<time>2016-10-06T23:00:22Z</time></trkpt>
<trkpt lat="25.324727" lon="104.60366">
<time>2016-10-06T23:00:23Z</time></trkpt>
<trkpt lat="25.324658" lon="104.60344">
<time>2016-10-06T23:00:24Z</time></trkpt>
<trkpt lat="25.324508" lon="104.602921">
<time>2016-10-06T23:00:25Z</time></trkpt>
<trkpt lat="25.324478" lon="104.602781">
<time>2016-10-06T23:00:26Z</time></trkpt>
<trkpt lat="25.324458" lon="104.602681">
<time>2016-10-06T23:00:27Z</time></trkpt>
<trkpt lat="25.324458" lon="104.602571">
<time>2016-10-06T23:00:28Z</time></trkpt>
<trkpt lat="25.324468" lon="104.602472">
<time>2016-10-06T23:00:29Z</time></trkpt>
<trkpt lat="25.324498" lon="104.602372">
<time>2016-10-06T23:00:30Z</time></trkpt>
<trkpt lat="25.324548" lon="104.602272">
<time>2016-10-06T23:00:31Z</time></trkpt>
<trkpt lat="25.324608" lon="104.602192">
<time>2016-10-06T23:00:32Z</time></trkpt>
<trkpt lat="25.324688" lon="104.602112">
<time>2016-10-06T23:00:33Z</time></trkpt>
<trkpt lat="25.324838" lon="104.602002">
<time>2016-10-06T23:00:34Z</time></trkpt>
<trkpt lat="25.324958" lon="104.601922">
<time>2016-10-06T23:00:35Z</time></trkpt>
<trkpt lat="25.325448" lon="104.601643">
<time>2016-10-06T23:00:36Z</time></trkpt>
<trkpt lat="25.325808" lon="104.601423">
<time>2016-10-06T23:00:37Z</time></trkpt>
<trkpt lat="25.326118" lon="104.601233">
<time>2016-10-06T23:00:38Z</time></trkpt>
<trkpt lat="25.326268" lon="104.601113">
<time>2016-10-06T23:00:39Z</time></trkpt>
<trkpt lat="25.326418" lon="104.600963">
<time>2016-10-06T23:00:40Z</time></trkpt>
<trkpt lat="25.326538" lon="104.600823">
<time>2016-10-06T23:00:41Z</time></trkpt>
<trkpt lat="25.326689" lon="104.600624">
<time>2016-10-06T23:00:42Z</time></trkpt>
<trkpt lat="25.327079" lon="104.600084">
<time>2016-10-06T23:00:43Z</time></trkpt>
<trkpt lat="25.327899" lon="104.598925">
<time>2016-10-06T23:00:44Z</time></trkpt>
<trkpt lat="25.328109" lon="104.598616">
<time>2016-10-06T23:00:45Z</time></trkpt>
<trkpt lat="25.328199" lon="104.598486">
<time>2016-10-06T23:00:46Z</time></trkpt>
<trkpt lat="25.328239" lon="104.598406">
<time>2016-10-06T23:00:47Z</time></trkpt>
<trkpt lat="25.328279" lon="104.598316">
<time>2016-10-06T23:00:48Z</time></trkpt>
<trkpt lat="25.328319" lon="104.598196">
<time>2016-10-06T23:00:49Z</time></trkpt>
<trkpt lat="25.328329" lon="104.598106">
<time>2016-10-06T23:00:50Z</time></trkpt>
<trkpt lat="25.328349" lon="104.597996">
<time>2016-10-06T23:00:51Z</time></trkpt>
<trkpt lat="25.328349" lon="104.597866">
<time>2016-10-06T23:00:52Z</time></trkpt>
<trkpt lat="25.328349" lon="104.597736">
<time>2016-10-06T23:00:53Z</time></trkpt>
<trkpt lat="25.328339" lon="104.597547">
<time>2016-10-06T23:00:54Z</time></trkpt>
<trkpt lat="25.328319" lon="104.597367">
<time>2016-10-06T23:00:55Z</time></trkpt>
<trkpt lat="25.328319" lon="104.597267">
<time>2016-10-06T23:00:56Z</time></trkpt>
<trkpt lat="25.328319" lon="104.597097">
<time>2016-10-06T23:00:57Z</time></trkpt>
<trkpt lat="25.328329" lon="104.596967">
<time>2016-10-06T23:00:58Z</time></trkpt>
<trkpt lat="25.328349" lon="104.596867">
<time>2016-10-06T23:00:59Z</time></trkpt>
<trkpt lat="25.328379" lon="104.596737">
<time>2016-10-06T23:01:00Z</time></trkpt>
<trkpt lat="25.328419" lon="104.596578">
<time>2016-10-06T23:01:01Z</time></trkpt>
<trkpt lat="25.328469" lon="104.596408">
<time>2016-10-06T23:01:02Z</time></trkpt>
<trkpt lat="25.328749" lon="104.595618">
<time>2016-10-06T23:01:03Z</time></trkpt>
<trkpt lat="25.329069" lon="104.594699">
<time>2016-10-06T23:01:04Z</time></trkpt>
<trkpt lat="25.329139" lon="104.594469">
<time>2016-10-06T23:01:05Z</time></trkpt>
<trkpt lat="25.329179" lon="104.594319">
<time>2016-10-06T23:01:06Z</time></trkpt>
<trkpt lat="25.329209" lon="104.594169">
<time>2016-10-06T23:01:07Z</time></trkpt>
<trkpt lat="25.329229" lon="104.59403">
<time>2016-10-06T23:01:08Z</time></trkpt>
<trkpt lat="25.329239" lon="104.5939">
<time>2016-10-06T23:01:09Z</time></trkpt>
<trkpt lat="25.329249" lon="104.59344">
<time>2016-10-06T23:01:10Z</time></trkpt>
<trkpt lat="25.329249" lon="104.59278">
<time>2016-10-06T23:01:11Z</time></trkpt>
<trkpt lat="25.329259" lon="104.592601">
<time>2016-10-06T23:01:12Z</time></trkpt>
<trkpt lat="25.329269" lon="104.592491">
<time>2016-10-06T23:01:13Z</time></trkpt>
<trkpt lat="25.329279" lon="104.592411">
<time>2016-10-06T23:01:14Z</time></trkpt>
<trkpt lat="25.329299" lon="104.592301">
<time>2016-10-06T23:01:15Z</time></trkpt>
<trkpt lat="25.329329" lon="104.592221">
<time>2016-10-06T23:01:16Z</time></trkpt>
<trkpt lat="25.329379" lon="104.592061">
<time>2016-10-06T23:01:17Z</time></trkpt>
<trkpt lat="25.329499" lon="104.591751">
<time>2016-10-06T23:01:18Z</time></trkpt>
<trkpt lat="25.329959" lon="104.590672">
<time>2016-10-06T23:01:19Z</time></trkpt>
<trkpt lat="25.330289" lon="104.589902">
<time>2016-10-06T23:01:20Z</time></trkpt>
<trkpt lat="25.330439" lon="104.589622">
<time>2016-10-06T23:01:21Z</time></trkpt>
<trkpt lat="25.330958" lon="104.588683">
<time>2016-10-06T23:01:22Z</time></trkpt>
<trkpt lat="25.331368" lon="104.587963">
<time>2016-10-06T23:01:23Z</time></trkpt>
<trkpt lat="25.331538" lon="104.587673">
<time>2016-10-06T23:01:24Z</time></trkpt>
<trkpt lat="25.331628" lon="104.587533">
<time>2016-10-06T23:01:25Z</time></trkpt>
<trkpt lat="25.331698" lon="104.587453">
<time>2016-10-06T23:01:26Z</time></trkpt>
<trkpt lat="25.331758" lon="104.587383">
<time>2016-10-06T23:01:27Z</time></trkpt>
<trkpt lat="25.331818" lon="104.587333">
<time>2016-10-06T23:01:28Z</time></trkpt>
<trkpt lat="25.331888" lon="104.587293">
<time>2016-10-06T23:01:29Z</time></trkpt>
<trkpt lat="25.331948" lon="104.587263">
<time>2016-10-06T23:01:30Z</time></trkpt>
<trkpt lat="25.331978" lon="104.587253">
<time>2016-10-06T23:01:31Z</time></trkpt>
<trkpt lat="25.331998" lon="104.587243">
<time>2016-10-06T23:01:32Z</time></trkpt>
<trkpt lat="25.332068" lon="104.587223">
<time>2016-10-06T23:01:33Z</time></trkpt>
<trkpt lat="25.332118" lon="104.587213">
<time>2016-10-06T23:01:34Z</time></trkpt>
<trkpt lat="25.332158" lon="104.587203">
<time>2016-10-06T23:01:35Z</time></trkpt>
<trkpt lat="25.332198" lon="104.587203">
<time>2016-10-06T23:01:36Z</time></trkpt>
<trkpt lat="25.332248" lon="104.587203">
<time>2016-10-06T23:01:37Z</time></trkpt>
<trkpt lat="25.332368" lon="104.587213">
<time>2016-10-06T23:01:38Z</time></trkpt>
<trkpt lat="25.332438" lon="104.587223">
<time>2016-10-06T23:01:39Z</time></trkpt>
<trkpt lat="25.332538" lon="104.587253">
<time>2016-10-06T23:01:40Z</time></trkpt>
<trkpt lat="25.332608" lon="104.587273">
<time>2016-10-06T23:01:41Z</time></trkpt>
<trkpt lat="25.332648" lon="104.587283">
<time>2016-10-06T23:01:42Z</time></trkpt>
<trkpt lat="25.332738" lon="104.587323">
<time>2016-10-06T23:01:43Z</time></trkpt>
<trkpt lat="25.332778" lon="104.587333">
<time>2016-10-06T23:01:44Z</time></trkpt>
<trkpt lat="25.332808" lon="104.587343">
<time>2016-10-06T23:01:45Z</time></trkpt>
<trkpt lat="25.332848" lon="104.587363">
<time>2016-10-06T23:01:46Z</time></trkpt>
<trkpt lat="25.333058" lon="104.587443">
<time>2016-10-06T23:01:47Z</time></trkpt>
<trkpt lat="25.333338" lon="104.587553">
<time>2016-10-06T23:01:48Z</time></trkpt>
<trkpt lat="25.333518" lon="104.587633">
<time>2016-10-06T23:01:49Z</time></trkpt>
<trkpt lat="25.333678" lon="104.587693">
<time>2016-10-06T23:01:50Z</time></trkpt>
<trkpt lat="25.333828" lon="104.587743">
<time>2016-10-06T23:01:51Z</time></trkpt>
<trkpt lat="25.333988" lon="104.587783">
<time>2016-10-06T23:01:52Z</time></trkpt>
<trkpt lat="25.334109" lon="104.587813">
<time>2016-10-06T23:01:53Z</time></trkpt>
<trkpt lat="25.334269" lon="104.587833">
<time>2016-10-06T23:01:54Z</time></trkpt>
<trkpt lat="25.334379" lon="104.587833">
<time>2016-10-06T23:01:55Z</time></trkpt>
<trkpt lat="25.334529" lon="104.587813">
<time>2016-10-06T23:01:56Z</time></trkpt>
<trkpt lat="25.334729" lon="104.587773">
<time>2016-10-06T23:01:57Z</time></trkpt>
<trkpt lat="25.335009" lon="104.587703">
<time>2016-10-06T23:01:58Z</time></trkpt>
<trkpt lat="25.335629" lon="104.587533">
<time>2016-10-06T23:01:59Z</time></trkpt>
<trkpt lat="25.335779" lon="104.587503">
<time>2016-10-06T23:02:00Z</time></trkpt>
<trkpt lat="25.335889" lon="104.587483">
<time>2016-10-06T23:02:01Z</time></trkpt>
<trkpt lat="25.336019" lon="104.587463">
<time>2016-10-06T23:02:02Z</time></trkpt>
<trkpt lat="25.336159" lon="104.587463">
<time>2016-10-06T23:02:03Z</time></trkpt>
<trkpt lat="25.336279" lon="104.587473">
<time>2016-10-06T23:02:04Z</time></trkpt>
<trkpt lat="25.336389" lon="104.587493">
<time>2016-10-06T23:02:05Z</time></trkpt>
<trkpt lat="25.336519" lon="104.587533">
<time>2016-10-06T23:02:06Z</time></trkpt>
<trkpt lat="25.336639" lon="104.587573">
<time>2016-10-06T23:02:07Z</time></trkpt>
<trkpt lat="25.336749" lon="104.587633">
<time>2016-10-06T23:02:08Z</time></trkpt>
<trkpt lat="25.336849" lon="104.587693">
<time>2016-10-06T23:02:09Z</time></trkpt>
<trkpt lat="25.336949" lon="104.587773">
<time>2016-10-06T23:02:10Z</time></trkpt>
<trkpt lat="25.337019" lon="104.587843">
<time>2016-10-06T23:02:11Z</time></trkpt>
<trkpt lat="25.337109" lon="104.587933">
<time>2016-10-06T23:02:12Z</time></trkpt>
<trkpt lat="25.337169" lon="104.588013">
<time>2016-10-06T23:02:13Z</time></trkpt>
<trkpt lat="25.337229" lon="104.588083">
<time>2016-10-06T23:02:14Z</time></trkpt>
<trkpt lat="25.337269" lon="104.588143">
<time>2016-10-06T23:02:15Z</time></trkpt>
<trkpt lat="25.337319" lon="104.588233">
<time>2016-10-06T23:02:16Z</time></trkpt>
<trkpt lat="25.337369" lon="104.588343">
<time>2016-10-06T23:02:17Z</time></trkpt>
<trkpt lat="25.337429" lon="104.588483">
<time>2016-10-06T23:02:18Z</time></trkpt>
<trkpt lat="25.337499" lon="104.588733">
<time>2016-10-06T23:02:19Z</time></trkpt>
<trkpt lat="25.337609" lon="104.589192">
<time>2016-10-06T23:02:20Z</time></trkpt>
<trkpt lat="25.337729" lon="104.589742">
<time>2016-10-06T23:02:21Z</time></trkpt>
<trkpt lat="25.33777" lon="104.589932">
<time>2016-10-06T23:02:22Z</time></trkpt>
<trkpt lat="25.33783" lon="104.590072">
<time>2016-10-06T23:02:23Z</time></trkpt>
<trkpt lat="25.33788" lon="104.590172">
<time>2016-10-06T23:02:24Z</time></trkpt>
<trkpt lat="25.33792" lon="104.590252">
<time>2016-10-06T23:02:25Z</time></trkpt>
<trkpt lat="25.33798" lon="104.590342">
<time>2016-10-06T23:02:26Z</time></trkpt>
<trkpt lat="25.33808" lon="104.590442">
<time>2016-10-06T23:02:27Z</time></trkpt>
<trkpt lat="25.33816" lon="104.590502">
<time>2016-10-06T23:02:28Z</time></trkpt>
<trkpt lat="25.33823" lon="104.590532">
<time>2016-10-06T23:02:29Z</time></trkpt>
<trkpt lat="25.3383" lon="104.590562">
<time>2016-10-06T23:02:30Z</time></trkpt>
<trkpt lat="25.33841" lon="104.590592">
<time>2016-10-06T23:02:31Z</time></trkpt>
<trkpt lat="25.33847" lon="104.590602">
<time>2016-10-06T23:02:32Z</time></trkpt>
<trkpt lat="25.33851" lon="104.590602">
<time>2016-10-06T23:02:33Z</time></trkpt>
<trkpt lat="25.33861" lon="104.590602">
<time>2016-10-06T23:02:34Z</time></trkpt>
<trkpt lat="25.33873" lon="104.590572">
<time>2016-10-06T23:02:35Z</time></trkpt>
<trkpt lat="25.33883" lon="104.590542">
<time>2016-10-06T23:02:36Z</time></trkpt>
<trkpt lat="25.33893" lon="104.590482">
<time>2016-10-06T23:02:37Z</time></trkpt>
<trkpt lat="25.33904" lon="104.590372">
<time>2016-10-06T23:02:38Z</time></trkpt>
<trkpt lat="25.33913" lon="104.590252">
<time>2016-10-06T23:02:39Z</time></trkpt>
<trkpt lat="25.33924" lon="104.590022">
<time>2016-10-06T23:02:40Z</time></trkpt>
<trkpt lat="25.33959" lon="104.589152">
<time>2016-10-06T23:02:41Z</time></trkpt>
<trkpt lat="25.339909" lon="104.588413">
<time>2016-10-06T23:02:42Z</time></trkpt>
<trkpt lat="25.340339" lon="104.587613">
<time>2016-10-06T23:02:43Z</time></trkpt>
<trkpt lat="25.340539" lon="104.587273">
<time>2016-10-06T23:02:44Z</time></trkpt>
<trkpt lat="25.340959" lon="104.586563">
<time>2016-10-06T23:02:45Z</time></trkpt>
<trkpt lat="25.341219" lon="104.586134">
<time>2016-10-06T23:02:46Z</time></trkpt>
<trkpt lat="25.341329" lon="104.585904">
<time>2016-10-06T23:02:47Z</time></trkpt>
<trkpt lat="25.341389" lon="104.585724">
<time>2016-10-06T23:02:48Z</time></trkpt>
<trkpt lat="25.341438" lon="104.585544">
<time>2016-10-06T23:02:49Z</time></trkpt>
<trkpt lat="25.341508" lon="104.585194">
<time>2016-10-06T23:02:50Z</time></trkpt>
<trkpt lat="25.341927" lon="104.582824">
<time>2016-10-06T23:02:51Z</time></trkpt>
<trkpt lat="25.341967" lon="104.582534">
<time>2016-10-06T23:02:52Z</time></trkpt>
<trkpt lat="25.342037" lon="104.582265">
<time>2016-10-06T23:02:53Z</time></trkpt>
<trkpt lat="25.342117" lon="104.582065">
<time>2016-10-06T23:02:54Z</time></trkpt>
<trkpt lat="25.342197" lon="104.581895">
<time>2016-10-06T23:02:55Z</time></trkpt>
<trkpt lat="25.342306" lon="104.581745">
<time>2016-10-06T23:02:56Z</time></trkpt>
<trkpt lat="25.342636" lon="104.581345">
<time>2016-10-06T23:02:57Z</time></trkpt>
<trkpt lat="25.342876" lon="104.581055">
<time>2016-10-06T23:02:58Z</time></trkpt>
<trkpt lat="25.342996" lon="104.580885">
<time>2016-10-06T23:02:59Z</time></trkpt>
<trkpt lat="25.343076" lon="104.580745">
<time>2016-10-06T23:03:00Z</time></trkpt>
<trkpt lat="25.343126" lon="104.580635">
<time>2016-10-06T23:03:01Z</time></trkpt>
<trkpt lat="25.343156" lon="104.580525">
<time>2016-10-06T23:03:02Z</time></trkpt>
<trkpt lat="25.343186" lon="104.580405">
<time>2016-10-06T23:03:03Z</time></trkpt>
<trkpt lat="25.343206" lon="104.580235">
<time>2016-10-06T23:03:04Z</time></trkpt>
<trkpt lat="25.343205" lon="104.580005">
<time>2016-10-06T23:03:05Z</time></trkpt>
<trkpt lat="25.343145" lon="104.579275">
<time>2016-10-06T23:03:06Z</time></trkpt>
<trkpt lat="25.342943" lon="104.576985">
<time>2016-10-06T23:03:07Z</time></trkpt>
<trkpt lat="25.342802" lon="104.575384">
<time>2016-10-06T23:03:08Z</time></trkpt>
<trkpt lat="25.342721" lon="104.574444">
<time>2016-10-06T23:03:09Z</time></trkpt>
<trkpt lat="25.3427" lon="104.574064">
<time>2016-10-06T23:03:10Z</time></trkpt>
<trkpt lat="25.34271" lon="104.573784">
<time>2016-10-06T23:03:11Z</time></trkpt>
<trkpt lat="25.34272" lon="104.573584">
<time>2016-10-06T23:03:12Z</time></trkpt>
<trkpt lat="25.34276" lon="104.573314">
<time>2016-10-06T23:03:13Z</time></trkpt>
<trkpt lat="25.342829" lon="104.573074">
<time>2016-10-06T23:03:14Z</time></trkpt>
<trkpt lat="25.342899" lon="104.572824">
<time>2016-10-06T23:03:15Z</time></trkpt>
<trkpt lat="25.342979" lon="104.572634">
<time>2016-10-06T23:03:16Z</time></trkpt>
<trkpt lat="25.343099" lon="104.572374">
<time>2016-10-06T23:03:17Z</time></trkpt>
<trkpt lat="25.343289" lon="104.572073">
<time>2016-10-06T23:03:18Z</time></trkpt>
<trkpt lat="25.343508" lon="104.571763">
<time>2016-10-06T23:03:19Z</time></trkpt>
<trkpt lat="25.343778" lon="104.571383">
<time>2016-10-06T23:03:20Z</time></trkpt>
<trkpt lat="25.344277" lon="104.570683">
<time>2016-10-06T23:03:21Z</time></trkpt>
<trkpt lat="25.344806" lon="104.569942">
<time>2016-10-06T23:03:22Z</time></trkpt>
<trkpt lat="25.344966" lon="104.569722">
<time>2016-10-06T23:03:23Z</time></trkpt>
<trkpt lat="25.345066" lon="104.569592">
<time>2016-10-06T23:03:24Z</time></trkpt>
<trkpt lat="25.345166" lon="104.569492">
<time>2016-10-06T23:03:25Z</time></trkpt>
<trkpt lat="25.345256" lon="104.569422">
<time>2016-10-06T23:03:26Z</time></trkpt>
<trkpt lat="25.345366" lon="104.569352">
<time>2016-10-06T23:03:27Z</time></trkpt>
<trkpt lat="25.345486" lon="104.569302">
<time>2016-10-06T23:03:28Z</time></trkpt>
<trkpt lat="25.345666" lon="104.569252">
<time>2016-10-06T23:03:29Z</time></trkpt>
<trkpt lat="25.346156" lon="104.569202">
<time>2016-10-06T23:03:30Z</time></trkpt>
<trkpt lat="25.346306" lon="104.569182">
<time>2016-10-06T23:03:31Z</time></trkpt>
<trkpt lat="25.346506" lon="104.569132">
<time>2016-10-06T23:03:32Z</time></trkpt>
<trkpt lat="25.346626" lon="104.569082">
<time>2016-10-06T23:03:33Z</time></trkpt>
<trkpt lat="25.346785" lon="104.569002">
<time>2016-10-06T23:03:34Z</time></trkpt>
<trkpt lat="25.347265" lon="104.568732">
<time>2016-10-06T23:03:35Z</time></trkpt>
<trkpt lat="25.347975" lon="104.568312">
<time>2016-10-06T23:03:36Z</time></trkpt>
<trkpt lat="25.348375" lon="104.568091">
<time>2016-10-06T23:03:37Z</time></trkpt>
<trkpt lat="25.348564" lon="104.568001">
<time>2016-10-06T23:03:38Z</time></trkpt>
<trkpt lat="25.348704" lon="104.567941">
<time>2016-10-06T23:03:39Z</time></trkpt>
<trkpt lat="25.348804" lon="104.567911">
<time>2016-10-06T23:03:40Z</time></trkpt>
<trkpt lat="25.349174" lon="104.567841">
<time>2016-10-06T23:03:41Z</time></trkpt>
<trkpt lat="25.349804" lon="104.567741">
<time>2016-10-06T23:03:42Z</time></trkpt>
<trkpt lat="25.350044" lon="104.567691">
<time>2016-10-06T23:03:43Z</time></trkpt>
<trkpt lat="25.350214" lon="104.567661">
<time>2016-10-06T23:03:44Z</time></trkpt>
<trkpt lat="25.350354" lon="104.567641">
<time>2016-10-06T23:03:45Z</time></trkpt>
<trkpt lat="25.350454" lon="104.567621">
<time>2016-10-06T23:03:46Z</time></trkpt>
<trkpt lat="25.350594" lon="104.567571">
<time>2016-10-06T23:03:47Z</time></trkpt>
<trkpt lat="25.350744" lon="104.567521">
<time>2016-10-06T23:03:48Z</time></trkpt>
<trkpt lat="25.350894" lon="104.567441">
<time>2016-10-06T23:03:49Z</time></trkpt>
<trkpt lat="25.351054" lon="104.567341">
<time>2016-10-06T23:03:50Z</time></trkpt>
<trkpt lat="25.351194" lon="104.567231">
<time>2016-10-06T23:03:51Z</time></trkpt>
<trkpt lat="25.351314" lon="104.567121">
<time>2016-10-06T23:03:52Z</time></trkpt>
<trkpt lat="25.351424" lon="104.566991">
<time>2016-10-06T23:03:53Z</time></trkpt>
<trkpt lat="25.351583" lon="104.566781">
<time>2016-10-06T23:03:54Z</time></trkpt>
<trkpt lat="25.351853" lon="104.56643">
<time>2016-10-06T23:03:55Z</time></trkpt>
<trkpt lat="25.352322" lon="104.56578">
<time>2016-10-06T23:03:56Z</time></trkpt>
<trkpt lat="25.352322" lon="104.56577">
<time>2016-10-06T23:03:57Z</time></trkpt>
<trkpt lat="25.352632" lon="104.56536">
<time>2016-10-06T23:03:58Z</time></trkpt>
<trkpt lat="25.352971" lon="104.564859">
<time>2016-10-06T23:03:59Z</time></trkpt>
<trkpt lat="25.353101" lon="104.564639">
<time>2016-10-06T23:04:00Z</time></trkpt>
<trkpt lat="25.35325" lon="104.564379">
<time>2016-10-06T23:04:01Z</time></trkpt>
<trkpt lat="25.35341" lon="104.564049">
<time>2016-10-06T23:04:02Z</time></trkpt>
<trkpt lat="25.35353" lon="104.563758">
<time>2016-10-06T23:04:03Z</time></trkpt>
<trkpt lat="25.353679" lon="104.563368">
<time>2016-10-06T23:04:04Z</time></trkpt>
<trkpt lat="25.353788" lon="104.562988">
<time>2016-10-06T23:04:05Z</time></trkpt>
<trkpt lat="25.353948" lon="104.562347">
<time>2016-10-06T23:04:06Z</time></trkpt>
<trkpt lat="25.354126" lon="104.561607">
<time>2016-10-06T23:04:07Z</time></trkpt>
<trkpt lat="25.354206" lon="104.561316">
<time>2016-10-06T23:04:08Z</time></trkpt>
<trkpt lat="25.354316" lon="104.560996">
<time>2016-10-06T23:04:09Z</time></trkpt>
<trkpt lat="25.354375" lon="104.560816">
<time>2016-10-06T23:04:10Z</time></trkpt>
<trkpt lat="25.354425" lon="104.560686">
<time>2016-10-06T23:04:11Z</time></trkpt>
<trkpt lat="25.354525" lon="104.560486">
<time>2016-10-06T23:04:12Z</time></trkpt>
<trkpt lat="25.354624" lon="104.560255">
<time>2016-10-06T23:04:13Z</time></trkpt>
<trkpt lat="25.354844" lon="104.559815">
<time>2016-10-06T23:04:14Z</time></trkpt>
<trkpt lat="25.355023" lon="104.559505">
<time>2016-10-06T23:04:15Z</time></trkpt>
<trkpt lat="25.355263" lon="104.559134">
<time>2016-10-06T23:04:16Z</time></trkpt>
<trkpt lat="25.355522" lon="104.558784">
<time>2016-10-06T23:04:17Z</time></trkpt>
<trkpt lat="25.355762" lon="104.558474">
<time>2016-10-06T23:04:18Z</time></trkpt>
<trkpt lat="25.356211" lon="104.557953">
<time>2016-10-06T23:04:19Z</time></trkpt>
<trkpt lat="25.35656" lon="104.557543">
<time>2016-10-06T23:04:20Z</time></trkpt>
<trkpt lat="25.35676" lon="104.557272">
<time>2016-10-06T23:04:21Z</time></trkpt>
<trkpt lat="25.356949" lon="104.556992">
<time>2016-10-06T23:04:22Z</time></trkpt>
<trkpt lat="25.357119" lon="104.556692">
<time>2016-10-06T23:04:23Z</time></trkpt>
<trkpt lat="25.357268" lon="104.556411">
<time>2016-10-06T23:04:24Z</time></trkpt>
<trkpt lat="25.357368" lon="104.556171">
<time>2016-10-06T23:04:25Z</time></trkpt>
<trkpt lat="25.357468" lon="104.555891">
<time>2016-10-06T23:04:26Z</time></trkpt>
<trkpt lat="25.357587" lon="104.5555">
<time>2016-10-06T23:04:27Z</time></trkpt>
<trkpt lat="25.357706" lon="104.55503">
<time>2016-10-06T23:04:28Z</time></trkpt>
<trkpt lat="25.357915" lon="104.554129">
<time>2016-10-06T23:04:29Z</time></trkpt>
<trkpt lat="25.358063" lon="104.553528">
<time>2016-10-06T23:04:30Z</time></trkpt>
<trkpt lat="25.358133" lon="104.553238">
<time>2016-10-06T23:04:31Z</time></trkpt>
<trkpt lat="25.358183" lon="104.553087">
<time>2016-10-06T23:04:32Z</time></trkpt>
<trkpt lat="25.358252" lon="104.552917">
<time>2016-10-06T23:04:33Z</time></trkpt>
<trkpt lat="25.358531" lon="104.552286">
<time>2016-10-06T23:04:34Z</time></trkpt>
<trkpt lat="25.358691" lon="104.551946">
<time>2016-10-06T23:04:35Z</time></trkpt>
<trkpt lat="25.35876" lon="104.551776">
<time>2016-10-06T23:04:36Z</time></trkpt>
<trkpt lat="25.35881" lon="104.551625">
<time>2016-10-06T23:04:37Z</time></trkpt>
<trkpt lat="25.35887" lon="104.551435">
<time>2016-10-06T23:04:38Z</time></trkpt>
<trkpt lat="25.358909" lon="104.551245">
<time>2016-10-06T23:04:39Z</time></trkpt>
<trkpt lat="25.358969" lon="104.550925">
<time>2016-10-06T23:04:40Z</time></trkpt>
<trkpt lat="25.359057" lon="104.550163">
<time>2016-10-06T23:04:41Z</time></trkpt>
<trkpt lat="25.359215" lon="104.548962">
<time>2016-10-06T23:04:42Z</time></trkpt>
<trkpt lat="25.359294" lon="104.548371">
<time>2016-10-06T23:04:43Z</time></trkpt>
<trkpt lat="25.359323" lon="104.548181">
<time>2016-10-06T23:04:44Z</time></trkpt>
<trkpt lat="25.359353" lon="104.54807">
<time>2016-10-06T23:04:45Z</time></trkpt>
<trkpt lat="25.359383" lon="104.54797">
<time>2016-10-06T23:04:46Z</time></trkpt>
<trkpt lat="25.359443" lon="104.54782">
<time>2016-10-06T23:04:47Z</time></trkpt>
<trkpt lat="25.359532" lon="104.54766">
<time>2016-10-06T23:04:48Z</time></trkpt>
<trkpt lat="25.359811" lon="104.547209">
<time>2016-10-06T23:04:49Z</time></trkpt>
<trkpt lat="25.359931" lon="104.546999">
<time>2016-10-06T23:04:50Z</time></trkpt>
<trkpt lat="25.360011" lon="104.546869">
<time>2016-10-06T23:04:51Z</time></trkpt>
<trkpt lat="25.36007" lon="104.546728">
<time>2016-10-06T23:04:52Z</time></trkpt>
<trkpt lat="25.36014" lon="104.546568">
<time>2016-10-06T23:04:53Z</time></trkpt>
<trkpt lat="25.36019" lon="104.546408">
<time>2016-10-06T23:04:54Z</time></trkpt>
<trkpt lat="25.360239" lon="104.546198">
<time>2016-10-06T23:04:55Z</time></trkpt>
<trkpt lat="25.360259" lon="104.546017">
<time>2016-10-06T23:04:56Z</time></trkpt>
<trkpt lat="25.360259" lon="104.545817">
<time>2016-10-06T23:04:57Z</time></trkpt>
<trkpt lat="25.360258" lon="104.545577">
<time>2016-10-06T23:04:58Z</time></trkpt>
<trkpt lat="25.360135" lon="104.544004">
<time>2016-10-06T23:04:59Z</time></trkpt>
<trkpt lat="25.360001" lon="104.542422">
<time>2016-10-06T23:05:00Z</time></trkpt>
<trkpt lat="25.35996" lon="104.542081">
<time>2016-10-06T23:05:01Z</time></trkpt>
<trkpt lat="25.35996" lon="104.541881">
<time>2016-10-06T23:05:02Z</time></trkpt>
<trkpt lat="25.35997" lon="104.54173">
<time>2016-10-06T23:05:03Z</time></trkpt>
<trkpt lat="25.359989" lon="104.54159">
<time>2016-10-06T23:05:04Z</time></trkpt>
<trkpt lat="25.360029" lon="104.54146">
<time>2016-10-06T23:05:05Z</time></trkpt>
<trkpt lat="25.360168" lon="104.541139">
<time>2016-10-06T23:05:06Z</time></trkpt>
<trkpt lat="25.360318" lon="104.540799">
<time>2016-10-06T23:05:07Z</time></trkpt>
<trkpt lat="25.360377" lon="104.540608">
<time>2016-10-06T23:05:08Z</time></trkpt>
<trkpt lat="25.360417" lon="104.540468">
<time>2016-10-06T23:05:09Z</time></trkpt>
<trkpt lat="25.360437" lon="104.540328">
<time>2016-10-06T23:05:10Z</time></trkpt>
<trkpt lat="25.360446" lon="104.540138">
<time>2016-10-06T23:05:11Z</time></trkpt>
<trkpt lat="25.360426" lon="104.539977">
<time>2016-10-06T23:05:12Z</time></trkpt>
<trkpt lat="25.360375" lon="104.539747">
<time>2016-10-06T23:05:13Z</time></trkpt>
<trkpt lat="25.35987" lon="104.537543">
<time>2016-10-06T23:05:14Z</time></trkpt>
<trkpt lat="25.359819" lon="104.537332">
<time>2016-10-06T23:05:15Z</time></trkpt>
<trkpt lat="25.359779" lon="104.537182">
<time>2016-10-06T23:05:16Z</time></trkpt>
<trkpt lat="25.359739" lon="104.537072">
<time>2016-10-06T23:05:17Z</time></trkpt>
<trkpt lat="25.359689" lon="104.536962">
<time>2016-10-06T23:05:18Z</time></trkpt>
<trkpt lat="25.359618" lon="104.536842">
<time>2016-10-06T23:05:19Z</time></trkpt>
<trkpt lat="25.359558" lon="104.536761">
<time>2016-10-06T23:05:20Z</time></trkpt>
<trkpt lat="25.359468" lon="104.536671">
<time>2016-10-06T23:05:21Z</time></trkpt>
<trkpt lat="25.359077" lon="104.536311">
<time>2016-10-06T23:05:22Z</time></trkpt>
<trkpt lat="25.358596" lon="104.53587">
<time>2016-10-06T23:05:23Z</time></trkpt>
<trkpt lat="25.358435" lon="104.535709">
<time>2016-10-06T23:05:24Z</time></trkpt>
<trkpt lat="25.358285" lon="104.535529">
<time>2016-10-06T23:05:25Z</time></trkpt>
<trkpt lat="25.358184" lon="104.535389">
<time>2016-10-06T23:05:26Z</time></trkpt>
<trkpt lat="25.358064" lon="104.535198">
<time>2016-10-06T23:05:27Z</time></trkpt>
<trkpt lat="25.357903" lon="104.534888">
<time>2016-10-06T23:05:28Z</time></trkpt>
<trkpt lat="25.357833" lon="104.534727">
<time>2016-10-06T23:05:29Z</time></trkpt>
<trkpt lat="25.357782" lon="104.534557">
<time>2016-10-06T23:05:30Z</time></trkpt>
<trkpt lat="25.357712" lon="104.534267">
<time>2016-10-06T23:05:31Z</time></trkpt>
<trkpt lat="25.357671" lon="104.534076">
<time>2016-10-06T23:05:32Z</time></trkpt>
<trkpt lat="25.357651" lon="104.533956">
<time>2016-10-06T23:05:33Z</time></trkpt>
<trkpt lat="25.35763" lon="104.533726">
<time>2016-10-06T23:05:34Z</time></trkpt>
<trkpt lat="25.357619" lon="104.533335">
<time>2016-10-06T23:05:35Z</time></trkpt>
<trkpt lat="25.357619" lon="104.533074">
<time>2016-10-06T23:05:36Z</time></trkpt>
<trkpt lat="25.357598" lon="104.532864">
<time>2016-10-06T23:05:37Z</time></trkpt>
<trkpt lat="25.357568" lon="104.532734">
<time>2016-10-06T23:05:38Z</time></trkpt>
<trkpt lat="25.357497" lon="104.532573">
<time>2016-10-06T23:05:39Z</time></trkpt>
<trkpt lat="25.357427" lon="104.532453">
<time>2016-10-06T23:05:40Z</time></trkpt>
<trkpt lat="25.357337" lon="104.532323">
<time>2016-10-06T23:05:41Z</time></trkpt>
<trkpt lat="25.357216" lon="104.532212">
<time>2016-10-06T23:05:42Z</time></trkpt>
<trkpt lat="25.356966" lon="104.531982">
<time>2016-10-06T23:05:43Z</time></trkpt>
<trkpt lat="25.356836" lon="104.531862">
<time>2016-10-06T23:05:44Z</time></trkpt>
<trkpt lat="25.356745" lon="104.531752">
<time>2016-10-06T23:05:45Z</time></trkpt>
<trkpt lat="25.356655" lon="104.531621">
<time>2016-10-06T23:05:46Z</time></trkpt>
<trkpt lat="25.356595" lon="104.531491">
<time>2016-10-06T23:05:47Z</time></trkpt>
<trkpt lat="25.356554" lon="104.531371">
<time>2016-10-06T23:05:48Z</time></trkpt>
<trkpt lat="25.356514" lon="104.53123">
<time>2016-10-06T23:05:49Z</time></trkpt>
<trkpt lat="25.356494" lon="104.5311">
<time>2016-10-06T23:05:50Z</time></trkpt>
<trkpt lat="25.356492" lon="104.530679">
<time>2016-10-06T23:05:51Z</time></trkpt>
<trkpt lat="25.35649" lon="104.529607">
<time>2016-10-06T23:05:52Z</time></trkpt>
<trkpt lat="25.356488" lon="104.528966">
<time>2016-10-06T23:05:53Z</time></trkpt>
<trkpt lat="25.356497" lon="104.528735">
<time>2016-10-06T23:05:54Z</time></trkpt>
<trkpt lat="25.356527" lon="104.528405">
<time>2016-10-06T23:05:55Z</time></trkpt>
<trkpt lat="25.356576" lon="104.528204">
<time>2016-10-06T23:05:56Z</time></trkpt>
<trkpt lat="25.356625" lon="104.527984">
<time>2016-10-06T23:05:57Z</time></trkpt>
<trkpt lat="25.356715" lon="104.527743">
<time>2016-10-06T23:05:58Z</time></trkpt>
<trkpt lat="25.356864" lon="104.527372">
<time>2016-10-06T23:05:59Z</time></trkpt>
<trkpt lat="25.357053" lon="104.526901">
<time>2016-10-06T23:06:00Z</time></trkpt>
<trkpt lat="25.357172" lon="104.52657">
<time>2016-10-06T23:06:01Z</time></trkpt>
<trkpt lat="25.357231" lon="104.52634">
<time>2016-10-06T23:06:02Z</time></trkpt>
<trkpt lat="25.357261" lon="104.52616">
<time>2016-10-06T23:06:03Z</time></trkpt>
<trkpt lat="25.35727" lon="104.525989">
<time>2016-10-06T23:06:04Z</time></trkpt>
<trkpt lat="25.357259" lon="104.525408">
<time>2016-10-06T23:06:05Z</time></trkpt>
<trkpt lat="25.357247" lon="104.524967">
<time>2016-10-06T23:06:06Z</time></trkpt>
<trkpt lat="25.357257" lon="104.524766">
<time>2016-10-06T23:06:07Z</time></trkpt>
<trkpt lat="25.357276" lon="104.524606">
<time>2016-10-06T23:06:08Z</time></trkpt>
<trkpt lat="25.357326" lon="104.524436">
<time>2016-10-06T23:06:09Z</time></trkpt>
<trkpt lat="25.357395" lon="104.524235">
<time>2016-10-06T23:06:10Z</time></trkpt>
<trkpt lat="25.357664" lon="104.523624">
<time>2016-10-06T23:06:11Z</time></trkpt>
<trkpt lat="25.357743" lon="104.523453">
<time>2016-10-06T23:06:12Z</time></trkpt>
<trkpt lat="25.357793" lon="104.523303">
<time>2016-10-06T23:06:13Z</time></trkpt>
<trkpt lat="25.357823" lon="104.523153">
<time>2016-10-06T23:06:14Z</time></trkpt>
<trkpt lat="25.357842" lon="104.523002">
<time>2016-10-06T23:06:15Z</time></trkpt>
<trkpt lat="25.357852" lon="104.522852">
<time>2016-10-06T23:06:16Z</time></trkpt>
<trkpt lat="25.357841" lon="104.522712">
<time>2016-10-06T23:06:17Z</time></trkpt>
<trkpt lat="25.357831" lon="104.522602">
<time>2016-10-06T23:06:18Z</time></trkpt>
<trkpt lat="25.357781" lon="104.522411">
<time>2016-10-06T23:06:19Z</time></trkpt>
<trkpt lat="25.35773" lon="104.522281">
<time>2016-10-06T23:06:20Z</time></trkpt>
<trkpt lat="25.35764" lon="104.52208">
<time>2016-10-06T23:06:21Z</time></trkpt>
<trkpt lat="25.357057" lon="104.521098">
<time>2016-10-06T23:06:22Z</time></trkpt>
<trkpt lat="25.356986" lon="104.520948">
<time>2016-10-06T23:06:23Z</time></trkpt>
<trkpt lat="25.356936" lon="104.520817">
<time>2016-10-06T23:06:24Z</time></trkpt>
<trkpt lat="25.356896" lon="104.520677">
<time>2016-10-06T23:06:25Z</time></trkpt>
<trkpt lat="25.356885" lon="104.520527">
<time>2016-10-06T23:06:26Z</time></trkpt>
<trkpt lat="25.356885" lon="104.520366">
<time>2016-10-06T23:06:27Z</time></trkpt>
<trkpt lat="25.356952" lon="104.519254">
<time>2016-10-06T23:06:28Z</time></trkpt>
<trkpt lat="25.35699" lon="104.518672">
<time>2016-10-06T23:06:29Z</time></trkpt>
<trkpt lat="25.357019" lon="104.518492">
<time>2016-10-06T23:06:30Z</time></trkpt>
<trkpt lat="25.357059" lon="104.518342">
<time>2016-10-06T23:06:31Z</time></trkpt>
<trkpt lat="25.357109" lon="104.518191">
<time>2016-10-06T23:06:32Z</time></trkpt>
<trkpt lat="25.357178" lon="104.518081">
<time>2016-10-06T23:06:33Z</time></trkpt>
<trkpt lat="25.357258" lon="104.517971">
<time>2016-10-06T23:06:34Z</time></trkpt>
<trkpt lat="25.357358" lon="104.51788">
<time>2016-10-06T23:06:35Z</time></trkpt>
<trkpt lat="25.358176" lon="104.517209">
<time>2016-10-06T23:06:36Z</time></trkpt>
<trkpt lat="25.358375" lon="104.517028">
<time>2016-10-06T23:06:37Z</time></trkpt>
<trkpt lat="25.358485" lon="104.516908">
<time>2016-10-06T23:06:38Z</time></trkpt>
<trkpt lat="25.358565" lon="104.516798">
<time>2016-10-06T23:06:39Z</time></trkpt>
<trkpt lat="25.358635" lon="104.516677">
<time>2016-10-06T23:06:40Z</time></trkpt>
<trkpt lat="25.358694" lon="104.516527">
<time>2016-10-06T23:06:41Z</time></trkpt>
<trkpt lat="25.358753" lon="104.516286">
<time>2016-10-06T23:06:42Z</time></trkpt>
<trkpt lat="25.358882" lon="104.515645">
<time>2016-10-06T23:06:43Z</time></trkpt>
<trkpt lat="25.359226" lon="104.51381">
<time>2016-10-06T23:06:44Z</time></trkpt>
<trkpt lat="25.359295" lon="104.51347">
<time>2016-10-06T23:06:45Z</time></trkpt>
<trkpt lat="25.359335" lon="104.513289">
<time>2016-10-06T23:06:46Z</time></trkpt>
<trkpt lat="25.359374" lon="104.513129">
<time>2016-10-06T23:06:47Z</time></trkpt>
<trkpt lat="25.359434" lon="104.512938">
<time>2016-10-06T23:06:48Z</time></trkpt>
<trkpt lat="25.359553" lon="104.512627">
<time>2016-10-06T23:06:49Z</time></trkpt>
<trkpt lat="25.359761" lon="104.512106">
<time>2016-10-06T23:06:50Z</time></trkpt>
<trkpt lat="25.359871" lon="104.511815">
<time>2016-10-06T23:06:51Z</time></trkpt>
<trkpt lat="25.35993" lon="104.511645">
<time>2016-10-06T23:06:52Z</time></trkpt>
<trkpt lat="25.359989" lon="104.511424">
<time>2016-10-06T23:06:53Z</time></trkpt>
<trkpt lat="25.360019" lon="104.511274">
<time>2016-10-06T23:06:54Z</time></trkpt>
<trkpt lat="25.360039" lon="104.511114">
<time>2016-10-06T23:06:55Z</time></trkpt>
<trkpt lat="25.360048" lon="104.510943">
<time>2016-10-06T23:06:56Z</time></trkpt>
<trkpt lat="25.360046" lon="104.510091">
<time>2016-10-06T23:06:57Z</time></trkpt>
<trkpt lat="25.360044" lon="104.50951">
<time>2016-10-06T23:06:58Z</time></trkpt>
<trkpt lat="25.360043" lon="104.509209">
<time>2016-10-06T23:06:59Z</time></trkpt>
<trkpt lat="25.360042" lon="104.508848">
<time>2016-10-06T23:07:00Z</time></trkpt>
<trkpt lat="25.360031" lon="104.508667">
<time>2016-10-06T23:07:01Z</time></trkpt>
<trkpt lat="25.360021" lon="104.508527">
<time>2016-10-06T23:07:02Z</time></trkpt>
<trkpt lat="25.35998" lon="104.508367">
<time>2016-10-06T23:07:03Z</time></trkpt>
<trkpt lat="25.35995" lon="104.508256">
<time>2016-10-06T23:07:04Z</time></trkpt>
<trkpt lat="25.359578" lon="104.507444">
<time>2016-10-06T23:07:05Z</time></trkpt>
<trkpt lat="25.359477" lon="104.507144">
<time>2016-10-06T23:07:06Z</time></trkpt>
<trkpt lat="25.359446" lon="104.506973">
<time>2016-10-06T23:07:07Z</time></trkpt>
<trkpt lat="25.359426" lon="104.506843">
<time>2016-10-06T23:07:08Z</time></trkpt>
<trkpt lat="25.359425" lon="104.506662">
<time>2016-10-06T23:07:09Z</time></trkpt>
<trkpt lat="25.359445" lon="104.506402">
<time>2016-10-06T23:07:10Z</time></trkpt>
<trkpt lat="25.359454" lon="104.506231">
<time>2016-10-06T23:07:11Z</time></trkpt>
<trkpt lat="25.359454" lon="104.506101">
<time>2016-10-06T23:07:12Z</time></trkpt>
<trkpt lat="25.359453" lon="104.505991">
<time>2016-10-06T23:07:13Z</time></trkpt>
<trkpt lat="25.359423" lon="104.50588">
<time>2016-10-06T23:07:14Z</time></trkpt>
<trkpt lat="25.359393" lon="104.50579">
<time>2016-10-06T23:07:15Z</time></trkpt>
<trkpt lat="25.359342" lon="104.5057">
<time>2016-10-06T23:07:16Z</time></trkpt>
<trkpt lat="25.359282" lon="104.50559">
<time>2016-10-06T23:07:17Z</time></trkpt>
<trkpt lat="25.359192" lon="104.505489">
<time>2016-10-06T23:07:18Z</time></trkpt>
<trkpt lat="25.359071" lon="104.505369">
<time>2016-10-06T23:07:19Z</time></trkpt>
<trkpt lat="25.358781" lon="104.505138">
<time>2016-10-06T23:07:20Z</time></trkpt>
<trkpt lat="25.35847" lon="104.504888">
<time>2016-10-06T23:07:21Z</time></trkpt>
<trkpt lat="25.35839" lon="104.504798">
<time>2016-10-06T23:07:22Z</time></trkpt>
<trkpt lat="25.358309" lon="104.504707">
<time>2016-10-06T23:07:23Z</time></trkpt>
<trkpt lat="25.358239" lon="104.504607">
<time>2016-10-06T23:07:24Z</time></trkpt>
<trkpt lat="25.358189" lon="104.504507">
<time>2016-10-06T23:07:25Z</time></trkpt>
<trkpt lat="25.358148" lon="104.504397">
<time>2016-10-06T23:07:26Z</time></trkpt>
<trkpt lat="25.358108" lon="104.504246">
<time>2016-10-06T23:07:27Z</time></trkpt>
<trkpt lat="25.358087" lon="104.504096">
<time>2016-10-06T23:07:28Z</time></trkpt>
<trkpt lat="25.358097" lon="104.503955">
<time>2016-10-06T23:07:29Z</time></trkpt>
<trkpt lat="25.358117" lon="104.503775">
<time>2016-10-06T23:07:30Z</time></trkpt>
<trkpt lat="25.358195" lon="104.503414">
<time>2016-10-06T23:07:31Z</time></trkpt>
<trkpt lat="25.358294" lon="104.503033">
<time>2016-10-06T23:07:32Z</time></trkpt>
<trkpt lat="25.358364" lon="104.502842">
<time>2016-10-06T23:07:33Z</time></trkpt>
<trkpt lat="25.358443" lon="104.502612">
<time>2016-10-06T23:07:34Z</time></trkpt>
<trkpt lat="25.358542" lon="104.502391">
<time>2016-10-06T23:07:35Z</time></trkpt>
<trkpt lat="25.358612" lon="104.502271">
<time>2016-10-06T23:07:36Z</time></trkpt>
<trkpt lat="25.358692" lon="104.502131">
<time>2016-10-06T23:07:37Z</time></trkpt>
<trkpt lat="25.358791" lon="104.50198">
<time>2016-10-06T23:07:38Z</time></trkpt>
<trkpt lat="25.358921" lon="104.5018">
<time>2016-10-06T23:07:39Z</time></trkpt>
<trkpt lat="25.35904" lon="104.501649">
<time>2016-10-06T23:07:40Z</time></trkpt>
<trkpt lat="25.35916" lon="104.501529">
<time>2016-10-06T23:07:41Z</time></trkpt>
<trkpt lat="25.359379" lon="104.501298">
<time>2016-10-06T23:07:42Z</time></trkpt>
<trkpt lat="25.360127" lon="104.500617">
<time>2016-10-06T23:07:43Z</time></trkpt>
<trkpt lat="25.360267" lon="104.500486">
<time>2016-10-06T23:07:44Z</time></trkpt>
<trkpt lat="25.360526" lon="104.500236">
<time>2016-10-06T23:07:45Z</time></trkpt>
<trkpt lat="25.360606" lon="104.500145">
<time>2016-10-06T23:07:46Z</time></trkpt>
<trkpt lat="25.360666" lon="104.500065">
<time>2016-10-06T23:07:47Z</time></trkpt>
<trkpt lat="25.360706" lon="104.500015">
<time>2016-10-06T23:07:48Z</time></trkpt>
<trkpt lat="25.360775" lon="104.499895">
<time>2016-10-06T23:07:49Z</time></trkpt>
<trkpt lat="25.360835" lon="104.499774">
<time>2016-10-06T23:07:50Z</time></trkpt>
<trkpt lat="25.360865" lon="104.499674">
<time>2016-10-06T23:07:51Z</time></trkpt>
<trkpt lat="25.360894" lon="104.499574">
<time>2016-10-06T23:07:52Z</time></trkpt>
<trkpt lat="25.360983" lon="104.499083">
<time>2016-10-06T23:07:53Z</time></trkpt>
<trkpt lat="25.361022" lon="104.498812">
<time>2016-10-06T23:07:54Z</time></trkpt>
<trkpt lat="25.361052" lon="104.498722">
<time>2016-10-06T23:07:55Z</time></trkpt>
<trkpt lat="25.361091" lon="104.498601">
<time>2016-10-06T23:07:56Z</time></trkpt>
<trkpt lat="25.361131" lon="104.498501">
<time>2016-10-06T23:07:57Z</time></trkpt>
<trkpt lat="25.361191" lon="104.498401">
<time>2016-10-06T23:07:58Z</time></trkpt>
<trkpt lat="25.36128" lon="104.49828">
<time>2016-10-06T23:07:59Z</time></trkpt>
<trkpt lat="25.36151" lon="104.49801">
<time>2016-10-06T23:08:00Z</time></trkpt>
<trkpt lat="25.361749" lon="104.497759">
<time>2016-10-06T23:08:01Z</time></trkpt>
<trkpt lat="25.361928" lon="104.497569">
<time>2016-10-06T23:08:02Z</time></trkpt>
<trkpt lat="25.362028" lon="104.497428">
<time>2016-10-06T23:08:03Z</time></trkpt>
<trkpt lat="25.362118" lon="104.497298">
<time>2016-10-06T23:08:04Z</time></trkpt>
<trkpt lat="25.362197" lon="104.497127">
<time>2016-10-06T23:08:05Z</time></trkpt>
<trkpt lat="25.362256" lon="104.496897">
<time>2016-10-06T23:08:06Z</time></trkpt>
<trkpt lat="25.362276" lon="104.496746">
<time>2016-10-06T23:08:07Z</time></trkpt>
<trkpt lat="25.362364" lon="104.496245">
<time>2016-10-06T23:08:08Z</time></trkpt>
<trkpt lat="25.362424" lon="104.495954">
<time>2016-10-06T23:08:09Z</time></trkpt>
<trkpt lat="25.362503" lon="104.495714">
<time>2016-10-06T23:08:10Z</time></trkpt>
<trkpt lat="25.362622" lon="104.495503">
<time>2016-10-06T23:08:11Z</time></trkpt>
<trkpt lat="25.362762" lon="104.495363">
<time>2016-10-06T23:08:12Z</time></trkpt>
<trkpt lat="25.362922" lon="104.495232">
<time>2016-10-06T23:08:13Z</time></trkpt>
<trkpt lat="25.363061" lon="104.495162">
<time>2016-10-06T23:08:14Z</time></trkpt>
<trkpt lat="25.363231" lon="104.495122">
<time>2016-10-06T23:08:15Z</time></trkpt>
<trkpt lat="25.363501" lon="104.495102">
<time>2016-10-06T23:08:16Z</time></trkpt>
<trkpt lat="25.364642" lon="104.495252">
<time>2016-10-06T23:08:17Z</time></trkpt>
<trkpt lat="25.365402" lon="104.495353">
<time>2016-10-06T23:08:18Z</time></trkpt>
<trkpt lat="25.365662" lon="104.495363">
<time>2016-10-06T23:08:19Z</time></trkpt>
<trkpt lat="25.365862" lon="104.495313">
<time>2016-10-06T23:08:20Z</time></trkpt>
<trkpt lat="25.366062" lon="104.495252">
<time>2016-10-06T23:08:21Z</time></trkpt>
<trkpt lat="25.366252" lon="104.495142">
<time>2016-10-06T23:08:22Z</time></trkpt>
<trkpt lat="25.366991" lon="104.494761">
<time>2016-10-06T23:08:23Z</time></trkpt>
<trkpt lat="25.36742" lon="104.49454">
<time>2016-10-06T23:08:24Z</time></trkpt>
<trkpt lat="25.36759" lon="104.49443">
<time>2016-10-06T23:08:25Z</time></trkpt>
<trkpt lat="25.3677" lon="104.49436">
<time>2016-10-06T23:08:26Z</time></trkpt>
<trkpt lat="25.367819" lon="104.49421">
<time>2016-10-06T23:08:27Z</time></trkpt>
<trkpt lat="25.367869" lon="104.494069">
<time>2016-10-06T23:08:28Z</time></trkpt>
<trkpt lat="25.367898" lon="104.493919">
<time>2016-10-06T23:08:29Z</time></trkpt>
<trkpt lat="25.367908" lon="104.493758">
<time>2016-10-06T23:08:30Z</time></trkpt>
<trkpt lat="25.367847" lon="104.493498">
<time>2016-10-06T23:08:31Z</time></trkpt>
<trkpt lat="25.367584" lon="104.492555">
<time>2016-10-06T23:08:32Z</time></trkpt>
<trkpt lat="25.367513" lon="104.492275">
<time>2016-10-06T23:08:33Z</time></trkpt>
<trkpt lat="25.367372" lon="104.491803">
<time>2016-10-06T23:08:34Z</time></trkpt>
<trkpt lat="25.367251" lon="104.491513">
<time>2016-10-06T23:08:35Z</time></trkpt>
<trkpt lat="25.36708" lon="104.491192">
<time>2016-10-06T23:08:36Z</time></trkpt>
<trkpt lat="25.365935" lon="104.489557">
<time>2016-10-06T23:08:37Z</time></trkpt>
<trkpt lat="25.365563" lon="104.488976">
<time>2016-10-06T23:08:38Z</time></trkpt>
<trkpt lat="25.365392" lon="104.488665">
<time>2016-10-06T23:08:39Z</time></trkpt>
<trkpt lat="25.365281" lon="104.488394">
<time>2016-10-06T23:08:40Z</time></trkpt>
<trkpt lat="25.36519" lon="104.488044">
<time>2016-10-06T23:08:41Z</time></trkpt>
<trkpt lat="25.365139" lon="104.487743">
<time>2016-10-06T23:08:42Z</time></trkpt>
<trkpt lat="25.365108" lon="104.487372">
<time>2016-10-06T23:08:43Z</time></trkpt>
<trkpt lat="25.365147" lon="104.486891">
<time>2016-10-06T23:08:44Z</time></trkpt>
<trkpt lat="25.365165" lon="104.486319">
<time>2016-10-06T23:08:45Z</time></trkpt>
<trkpt lat="25.365134" lon="104.485788">
<time>2016-10-06T23:08:46Z</time></trkpt>
<trkpt lat="25.364867" lon="104.483672">
<time>2016-10-06T23:08:47Z</time></trkpt>
<trkpt lat="25.364836" lon="104.483281">
<time>2016-10-06T23:08:48Z</time></trkpt>
<trkpt lat="25.364805" lon="104.4829">
<time>2016-10-06T23:08:49Z</time></trkpt>
<trkpt lat="25.364815" lon="104.48286">
<time>2016-10-06T23:08:50Z</time></trkpt>
<trkpt lat="25.364844" lon="104.48262">
<time>2016-10-06T23:08:51Z</time></trkpt>
<trkpt lat="25.364894" lon="104.482389">
<time>2016-10-06T23:08:52Z</time></trkpt>
<trkpt lat="25.364963" lon="104.482159">
<time>2016-10-06T23:08:53Z</time></trkpt>
<trkpt lat="25.365907" lon="104.480184">
<time>2016-10-06T23:08:54Z</time></trkpt>
<trkpt lat="25.366882" lon="104.478168">
<time>2016-10-06T23:08:55Z</time></trkpt>
<trkpt lat="25.36719" lon="104.477517">
<time>2016-10-06T23:08:56Z</time></trkpt>
<trkpt lat="25.367319" lon="104.477246">
<time>2016-10-06T23:08:57Z</time></trkpt>
<trkpt lat="25.367398" lon="104.476986">
<time>2016-10-06T23:08:58Z</time></trkpt>
<trkpt lat="25.367428" lon="104.476785">
<time>2016-10-06T23:08:59Z</time></trkpt>
<trkpt lat="25.367427" lon="104.476514">
<time>2016-10-06T23:09:00Z</time></trkpt>
<trkpt lat="25.367315" lon="104.475642">
<time>2016-10-06T23:09:01Z</time></trkpt>
<trkpt lat="25.367223" lon="104.474931">
<time>2016-10-06T23:09:02Z</time></trkpt>
<trkpt lat="25.367201" lon="104.474279">
<time>2016-10-06T23:09:03Z</time></trkpt>
<trkpt lat="25.3672" lon="104.473908">
<time>2016-10-06T23:09:04Z</time></trkpt>
<trkpt lat="25.367248" lon="104.473156">
<time>2016-10-06T23:09:05Z</time></trkpt>
<trkpt lat="25.367317" lon="104.472705">
<time>2016-10-06T23:09:06Z</time></trkpt>
<trkpt lat="25.367405" lon="104.472124">
<time>2016-10-06T23:09:07Z</time></trkpt>
<trkpt lat="25.367424" lon="104.471883">
<time>2016-10-06T23:09:08Z</time></trkpt>
<trkpt lat="25.367424" lon="104.471693">
<time>2016-10-06T23:09:09Z</time></trkpt>
<trkpt lat="25.367393" lon="104.471482">
<time>2016-10-06T23:09:10Z</time></trkpt>
<trkpt lat="25.36713" lon="104.47047">
<time>2016-10-06T23:09:11Z</time></trkpt>
<trkpt lat="25.366999" lon="104.469979">
<time>2016-10-06T23:09:12Z</time></trkpt>
<trkpt lat="25.366725" lon="104.468606">
<time>2016-10-06T23:09:13Z</time></trkpt>
<trkpt lat="25.366492" lon="104.467273">
<time>2016-10-06T23:09:14Z</time></trkpt>
<trkpt lat="25.366431" lon="104.466802">
<time>2016-10-06T23:09:15Z</time></trkpt>
<trkpt lat="25.36642" lon="104.466451">
<time>2016-10-06T23:09:16Z</time></trkpt>
<trkpt lat="25.366459" lon="104.46606">
<time>2016-10-06T23:09:17Z</time></trkpt>
<trkpt lat="25.366576" lon="104.465248">
<time>2016-10-06T23:09:18Z</time></trkpt>
<trkpt lat="25.366576" lon="104.465248">
<time>2016-10-06T23:09:19Z</time></trkpt>
<trkpt lat="25.366616" lon="104.465128">
<time>2016-10-06T23:09:20Z</time></trkpt>
<trkpt lat="25.367128" lon="104.461791">
<time>2016-10-06T23:09:21Z</time></trkpt>
<trkpt lat="25.367591" lon="104.458804">
<time>2016-10-06T23:09:22Z</time></trkpt>
<trkpt lat="25.367669" lon="104.458303">
<time>2016-10-06T23:09:23Z</time></trkpt>
<trkpt lat="25.367729" lon="104.457993">
<time>2016-10-06T23:09:24Z</time></trkpt>
<trkpt lat="25.367778" lon="104.457833">
<time>2016-10-06T23:09:25Z</time></trkpt>
<trkpt lat="25.367788" lon="104.457823">
<time>2016-10-06T23:09:26Z</time></trkpt>
<trkpt lat="25.367838" lon="104.457712">
<time>2016-10-06T23:09:27Z</time></trkpt>
<trkpt lat="25.367918" lon="104.457602">
<time>2016-10-06T23:09:28Z</time></trkpt>
<trkpt lat="25.368007" lon="104.457512">
<time>2016-10-06T23:09:29Z</time></trkpt>
<trkpt lat="25.368117" lon="104.457442">
<time>2016-10-06T23:09:30Z</time></trkpt>
<trkpt lat="25.368197" lon="104.457412">
<time>2016-10-06T23:09:31Z</time></trkpt>
<trkpt lat="25.368267" lon="104.457382">
<time>2016-10-06T23:09:32Z</time></trkpt>
<trkpt lat="25.368367" lon="104.457362">
<time>2016-10-06T23:09:33Z</time></trkpt>
<trkpt lat="25.368367" lon="104.457362">
<time>2016-10-06T23:09:34Z</time></trkpt>
<trkpt lat="25.368467" lon="104.457372">
<time>2016-10-06T23:09:35Z</time></trkpt>
<trkpt lat="25.369007" lon="104.457442">
<time>2016-10-06T23:09:36Z</time></trkpt>
<trkpt lat="25.369108" lon="104.457452">
<time>2016-10-06T23:09:37Z</time></trkpt>
<trkpt lat="25.370178" lon="104.457592">
<time>2016-10-06T23:09:38Z</time></trkpt>
<trkpt lat="25.371088" lon="104.457702">
<time>2016-10-06T23:09:39Z</time></trkpt>
<trkpt lat="25.371379" lon="104.457742">
<time>2016-10-06T23:09:40Z</time></trkpt>
<trkpt lat="25.373079" lon="104.457983">
<time>2016-10-06T23:09:41Z</time></trkpt>
<trkpt lat="25.373239" lon="104.457993">
<time>2016-10-06T23:09:42Z</time></trkpt>
<trkpt lat="25.373429" lon="104.457963">
<time>2016-10-06T23:09:43Z</time></trkpt>
<trkpt lat="25.37399" lon="104.457973">
<time>2016-10-06T23:09:44Z</time></trkpt>
<trkpt lat="25.3743" lon="104.457953">
<time>2016-10-06T23:09:45Z</time></trkpt>
<trkpt lat="25.374369" lon="104.457943">
<time>2016-10-06T23:09:46Z</time></trkpt>
<trkpt lat="25.374649" lon="104.457902">
<time>2016-10-06T23:09:47Z</time></trkpt>
<trkpt lat="25.374959" lon="104.457832">
<time>2016-10-06T23:09:48Z</time></trkpt>
<trkpt lat="25.375269" lon="104.457772">
<time>2016-10-06T23:09:49Z</time></trkpt>
<trkpt lat="25.375459" lon="104.457732">
<time>2016-10-06T23:09:50Z</time></trkpt>
<trkpt lat="25.375809" lon="104.457672">
<time>2016-10-06T23:09:51Z</time></trkpt>
<trkpt lat="25.375939" lon="104.457622">
<time>2016-10-06T23:09:52Z</time></trkpt>
<trkpt lat="25.376299" lon="104.457492">
<time>2016-10-06T23:09:53Z</time></trkpt>
<trkpt lat="25.376409" lon="104.457451">
<time>2016-10-06T23:09:54Z</time></trkpt>
<trkpt lat="25.376678" lon="104.457341">
<time>2016-10-06T23:09:55Z</time></trkpt>
<trkpt lat="25.376798" lon="104.457291">
<time>2016-10-06T23:09:56Z</time></trkpt>
<trkpt lat="25.376938" lon="104.457261">
<time>2016-10-06T23:09:57Z</time></trkpt>
<trkpt lat="25.377128" lon="104.457231">
<time>2016-10-06T23:09:58Z</time></trkpt>
<trkpt lat="25.377308" lon="104.457221">
<time>2016-10-06T23:09:59Z</time></trkpt>
<trkpt lat="25.377508" lon="104.457221">
<time>2016-10-06T23:10:00Z</time></trkpt>
<trkpt lat="25.378119" lon="104.457291">
<time>2016-10-06T23:10:01Z</time></trkpt>
<trkpt lat="25.378159" lon="104.457301">
<time>2016-10-06T23:10:02Z</time></trkpt>
<trkpt lat="25.378299" lon="104.457301">
<time>2016-10-06T23:10:03Z</time></trkpt>
<trkpt lat="25.378929" lon="104.457301">
<time>2016-10-06T23:10:04Z</time></trkpt>
<trkpt lat="25.379599" lon="104.457371">
<time>2016-10-06T23:10:05Z</time></trkpt>
<trkpt lat="25.379849" lon="104.457401">
<time>2016-10-06T23:10:06Z</time></trkpt>
<trkpt lat="25.380239" lon="104.457441">
<time>2016-10-06T23:10:07Z</time></trkpt>
<trkpt lat="25.380469" lon="104.457451">
<time>2016-10-06T23:10:08Z</time></trkpt>
<trkpt lat="25.380609" lon="104.457431">
<time>2016-10-06T23:10:09Z</time></trkpt>
<trkpt lat="25.380759" lon="104.457401">
<time>2016-10-06T23:10:10Z</time></trkpt>
<trkpt lat="25.380909" lon="104.457351">
<time>2016-10-06T23:10:11Z</time></trkpt>
<trkpt lat="25.381578" lon="104.4569">
<time>2016-10-06T23:10:12Z</time></trkpt>
<trkpt lat="25.382088" lon="104.45658">
<time>2016-10-06T23:10:13Z</time></trkpt>
<trkpt lat="25.382267" lon="104.456479">
<time>2016-10-06T23:10:14Z</time></trkpt>
<trkpt lat="25.382407" lon="104.456409">
<time>2016-10-06T23:10:15Z</time></trkpt>
<trkpt lat="25.382497" lon="104.456379">
<time>2016-10-06T23:10:16Z</time></trkpt>
<trkpt lat="25.382647" lon="104.456339">
<time>2016-10-06T23:10:17Z</time></trkpt>
<trkpt lat="25.383637" lon="104.456209">
<time>2016-10-06T23:10:18Z</time></trkpt>
<trkpt lat="25.383667" lon="104.456199">
<time>2016-10-06T23:10:19Z</time></trkpt>
<trkpt lat="25.384107" lon="104.456129">
<time>2016-10-06T23:10:20Z</time></trkpt>
<trkpt lat="25.384357" lon="104.456058">
<time>2016-10-06T23:10:21Z</time></trkpt>
<trkpt lat="25.384627" lon="104.455968">
<time>2016-10-06T23:10:22Z</time></trkpt>
<trkpt lat="25.387095" lon="104.455026">
<time>2016-10-06T23:10:23Z</time></trkpt>
<trkpt lat="25.387305" lon="104.454936">
<time>2016-10-06T23:10:24Z</time></trkpt>
<trkpt lat="25.387544" lon="104.454866">
<time>2016-10-06T23:10:25Z</time></trkpt>
<trkpt lat="25.387654" lon="104.454836">
<time>2016-10-06T23:10:26Z</time></trkpt>
<trkpt lat="25.387754" lon="104.454826">
<time>2016-10-06T23:10:27Z</time></trkpt>
<trkpt lat="25.387814" lon="104.454836">
<time>2016-10-06T23:10:28Z</time></trkpt>
<trkpt lat="25.387884" lon="104.454846">
<time>2016-10-06T23:10:29Z</time></trkpt>
<trkpt lat="25.387955" lon="104.454866">
<time>2016-10-06T23:10:30Z</time></trkpt>
<trkpt lat="25.388025" lon="104.454886">
<time>2016-10-06T23:10:31Z</time></trkpt>
<trkpt lat="25.388095" lon="104.454936">
<time>2016-10-06T23:10:32Z</time></trkpt>
<trkpt lat="25.388195" lon="104.455026">
<time>2016-10-06T23:10:33Z</time></trkpt>
<trkpt lat="25.388305" lon="104.455177">
<time>2016-10-06T23:10:34Z</time></trkpt>
<trkpt lat="25.388667" lon="104.455738">
<time>2016-10-06T23:10:35Z</time></trkpt>
<trkpt lat="25.388757" lon="104.455878">
<time>2016-10-06T23:10:36Z</time></trkpt>
<trkpt lat="25.388837" lon="104.455978">
<time>2016-10-06T23:10:37Z</time></trkpt>
<trkpt lat="25.388978" lon="104.456078">
<time>2016-10-06T23:10:38Z</time></trkpt>
<trkpt lat="25.389108" lon="104.456168">
<time>2016-10-06T23:10:39Z</time></trkpt>
<trkpt lat="25.389368" lon="104.456289">
<time>2016-10-06T23:10:40Z</time></trkpt>
<trkpt lat="25.39128" lon="104.45705">
<time>2016-10-06T23:10:41Z</time></trkpt>
<trkpt lat="25.392752" lon="104.457641">
<time>2016-10-06T23:10:42Z</time></trkpt>
<trkpt lat="25.393383" lon="104.457892">
<time>2016-10-06T23:10:43Z</time></trkpt>
<trkpt lat="25.393583" lon="104.457962">
<time>2016-10-06T23:10:44Z</time></trkpt>
<trkpt lat="25.393783" lon="104.458012">
<time>2016-10-06T23:10:45Z</time></trkpt>
<trkpt lat="25.393923" lon="104.458022">
<time>2016-10-06T23:10:46Z</time></trkpt>
<trkpt lat="25.394013" lon="104.458022">
<time>2016-10-06T23:10:47Z</time></trkpt>
<trkpt lat="25.394043" lon="104.458022">
<time>2016-10-06T23:10:48Z</time></trkpt>
<trkpt lat="25.394133" lon="104.458012">
<time>2016-10-06T23:10:49Z</time></trkpt>
<trkpt lat="25.394353" lon="104.457982">
<time>2016-10-06T23:10:50Z</time></trkpt>
<trkpt lat="25.395063" lon="104.457821">
<time>2016-10-06T23:10:51Z</time></trkpt>
<trkpt lat="25.396622" lon="104.457471">
<time>2016-10-06T23:10:52Z</time></trkpt>
<trkpt lat="25.397872" lon="104.45719">
<time>2016-10-06T23:10:53Z</time></trkpt>
<trkpt lat="25.398222" lon="104.4571">
<time>2016-10-06T23:10:54Z</time></trkpt>
<trkpt lat="25.399051" lon="104.45691">
<time>2016-10-06T23:10:55Z</time></trkpt>
<trkpt lat="25.399361" lon="104.456839">
<time>2016-10-06T23:10:56Z</time></trkpt>
<trkpt lat="25.399991" lon="104.456699">
<time>2016-10-06T23:10:57Z</time></trkpt>
<trkpt lat="25.400181" lon="104.456659">
<time>2016-10-06T23:10:58Z</time></trkpt>
<trkpt lat="25.400331" lon="104.456639">
<time>2016-10-06T23:10:59Z</time></trkpt>
<trkpt lat="25.400481" lon="104.456639">
<time>2016-10-06T23:11:00Z</time></trkpt>
<trkpt lat="25.400581" lon="104.456649">
<time>2016-10-06T23:11:01Z</time></trkpt>
<trkpt lat="25.400691" lon="104.456659">
<time>2016-10-06T23:11:02Z</time></trkpt>
<trkpt lat="25.400801" lon="104.456679">
<time>2016-10-06T23:11:03Z</time></trkpt>
<trkpt lat="25.400981" lon="104.456719">
<time>2016-10-06T23:11:04Z</time></trkpt>
<trkpt lat="25.401832" lon="104.456959">
<time>2016-10-06T23:11:05Z</time></trkpt>
<trkpt lat="25.402482" lon="104.45714">
<time>2016-10-06T23:11:06Z</time></trkpt>
<trkpt lat="25.402853" lon="104.45724">
<time>2016-10-06T23:11:07Z</time></trkpt>
<trkpt lat="25.403353" lon="104.45737">
<time>2016-10-06T23:11:08Z</time></trkpt>
<trkpt lat="25.403914" lon="104.457531">
<time>2016-10-06T23:11:09Z</time></trkpt>
<trkpt lat="25.404474" lon="104.457671">
<time>2016-10-06T23:11:10Z</time></trkpt>
<trkpt lat="25.404584" lon="104.457701">
<time>2016-10-06T23:11:11Z</time></trkpt>
<trkpt lat="25.404714" lon="104.457711">
<time>2016-10-06T23:11:12Z</time></trkpt>
<trkpt lat="25.404804" lon="104.457711">
<time>2016-10-06T23:11:13Z</time></trkpt>
<trkpt lat="25.404894" lon="104.457701">
<time>2016-10-06T23:11:14Z</time></trkpt>
<trkpt lat="25.405014" lon="104.457671">
<time>2016-10-06T23:11:15Z</time></trkpt>
<trkpt lat="25.405964" lon="104.4574">
<time>2016-10-06T23:11:16Z</time></trkpt>
<trkpt lat="25.406473" lon="104.45724">
<time>2016-10-06T23:11:17Z</time></trkpt>
<trkpt lat="25.407073" lon="104.45707">
<time>2016-10-06T23:11:18Z</time></trkpt>
<trkpt lat="25.407273" lon="104.456999">
<time>2016-10-06T23:11:19Z</time></trkpt>
<trkpt lat="25.407503" lon="104.456909">
<time>2016-10-06T23:11:20Z</time></trkpt>
<trkpt lat="25.408172" lon="104.456599">
<time>2016-10-06T23:11:21Z</time></trkpt>
<trkpt lat="25.408362" lon="104.456518">
<time>2016-10-06T23:11:22Z</time></trkpt>
<trkpt lat="25.408572" lon="104.456438">
<time>2016-10-06T23:11:23Z</time></trkpt>
<trkpt lat="25.409011" lon="104.456067">
<time>2016-10-06T23:11:24Z</time></trkpt>
<trkpt lat="25.409121" lon="104.455807">
<time>2016-10-06T23:11:25Z</time></trkpt>
<trkpt lat="25.40917" lon="104.455496">
<time>2016-10-06T23:11:26Z</time></trkpt>
<trkpt lat="25.409067" lon="104.454184">
<time>2016-10-06T23:11:27Z</time></trkpt>
<trkpt lat="25.408953" lon="104.452441">
<time>2016-10-06T23:11:28Z</time></trkpt>
<trkpt lat="25.408911" lon="104.451469">
<time>2016-10-06T23:11:29Z</time></trkpt>
<trkpt lat="25.40891" lon="104.451138">
<time>2016-10-06T23:11:30Z</time></trkpt>
<trkpt lat="25.40893" lon="104.450908">
<time>2016-10-06T23:11:31Z</time></trkpt>
<trkpt lat="25.408999" lon="104.450387">
<time>2016-10-06T23:11:32Z</time></trkpt>
<trkpt lat="25.409136" lon="104.449415">
<time>2016-10-06T23:11:33Z</time></trkpt>
<trkpt lat="25.409314" lon="104.448213">
<time>2016-10-06T23:11:34Z</time></trkpt>
<trkpt lat="25.409363" lon="104.447883">
<time>2016-10-06T23:11:35Z</time></trkpt>
<trkpt lat="25.409392" lon="104.447382">
<time>2016-10-06T23:11:36Z</time></trkpt>
<trkpt lat="25.409411" lon="104.446691">
<time>2016-10-06T23:11:37Z</time></trkpt>
<trkpt lat="25.40944" lon="104.44626">
<time>2016-10-06T23:11:38Z</time></trkpt>
<trkpt lat="25.409469" lon="104.44596">
<time>2016-10-06T23:11:39Z</time></trkpt>
<trkpt lat="25.409499" lon="104.445709">
<time>2016-10-06T23:11:40Z</time></trkpt>
<trkpt lat="25.409549" lon="104.445489">
<time>2016-10-06T23:11:41Z</time></trkpt>
<trkpt lat="25.409678" lon="104.444958">
<time>2016-10-06T23:11:42Z</time></trkpt>
<trkpt lat="25.409787" lon="104.444578">
<time>2016-10-06T23:11:43Z</time></trkpt>
<trkpt lat="25.410025" lon="104.443706">
<time>2016-10-06T23:11:44Z</time></trkpt>
<trkpt lat="25.410293" lon="104.442715">
<time>2016-10-06T23:11:45Z</time></trkpt>
<trkpt lat="25.410433" lon="104.442254">
<time>2016-10-06T23:11:46Z</time></trkpt>
<trkpt lat="25.410512" lon="104.442054">
<time>2016-10-06T23:11:47Z</time></trkpt>
<trkpt lat="25.410572" lon="104.441914">
<time>2016-10-06T23:11:48Z</time></trkpt>
<trkpt lat="25.410612" lon="104.441844">
<time>2016-10-06T23:11:49Z</time></trkpt>
<trkpt lat="25.410672" lon="104.441743">
<time>2016-10-06T23:11:50Z</time></trkpt>
<trkpt lat="25.410901" lon="104.441413">
<time>2016-10-06T23:11:51Z</time></trkpt>
<trkpt lat="25.411021" lon="104.441253">
<time>2016-10-06T23:11:52Z</time></trkpt>
<trkpt lat="25.411111" lon="104.441123">
<time>2016-10-06T23:11:53Z</time></trkpt>
<trkpt lat="25.41119" lon="104.440992">
<time>2016-10-06T23:11:54Z</time></trkpt>
<trkpt lat="25.41128" lon="104.440822">
<time>2016-10-06T23:11:55Z</time></trkpt>
<trkpt lat="25.41134" lon="104.440632">
<time>2016-10-06T23:11:56Z</time></trkpt>
<trkpt lat="25.411399" lon="104.440412">
<time>2016-10-06T23:11:57Z</time></trkpt>
<trkpt lat="25.411618" lon="104.43945">
<time>2016-10-06T23:11:58Z</time></trkpt>
<trkpt lat="25.411677" lon="104.4392">
<time>2016-10-06T23:11:59Z</time></trkpt>
<trkpt lat="25.411777" lon="104.43891">
<time>2016-10-06T23:12:00Z</time></trkpt>
<trkpt lat="25.412026" lon="104.438319">
<time>2016-10-06T23:12:01Z</time></trkpt>
<trkpt lat="25.412026" lon="104.438319">
<time>2016-10-06T23:12:02Z</time></trkpt>
<trkpt lat="25.411956" lon="104.438269">
<time>2016-10-06T23:12:03Z</time></trkpt>
<trkpt lat="25.411926" lon="104.438249">
<time>2016-10-06T23:12:04Z</time></trkpt>
<trkpt lat="25.411906" lon="104.438219">
<time>2016-10-06T23:12:05Z</time></trkpt>
<trkpt lat="25.411886" lon="104.438189">
<time>2016-10-06T23:12:06Z</time></trkpt>
<trkpt lat="25.411775" lon="104.437989">
<time>2016-10-06T23:12:07Z</time></trkpt>
<trkpt lat="25.411645" lon="104.437808">
<time>2016-10-06T23:12:08Z</time></trkpt>
<trkpt lat="25.411625" lon="104.437768">
<time>2016-10-06T23:12:09Z</time></trkpt>
<trkpt lat="25.411615" lon="104.437738">
<time>2016-10-06T23:12:10Z</time></trkpt>
<trkpt lat="25.411605" lon="104.437698">
<time>2016-10-06T23:12:11Z</time></trkpt>
<trkpt lat="25.411605" lon="104.437658">
<time>2016-10-06T23:12:12Z</time></trkpt>
<trkpt lat="25.411605" lon="104.437598">
<time>2016-10-06T23:12:13Z</time></trkpt>
<trkpt lat="25.411615" lon="104.437548">
<time>2016-10-06T23:12:14Z</time></trkpt>
<trkpt lat="25.411634" lon="104.437488">
<time>2016-10-06T23:12:15Z</time></trkpt>
<trkpt lat="25.411704" lon="104.437248">
<time>2016-10-06T23:12:16Z</time></trkpt>
<trkpt lat="25.411724" lon="104.437168">
<time>2016-10-06T23:12:17Z</time></trkpt>
<trkpt lat="25.411734" lon="104.437097">
<time>2016-10-06T23:12:18Z</time></trkpt>
<trkpt lat="25.411734" lon="104.437027">
<time>2016-10-06T23:12:19Z</time></trkpt>
<trkpt lat="25.411734" lon="104.436967">
<time>2016-10-06T23:12:20Z</time></trkpt>
<trkpt lat="25.411724" lon="104.436937">
<time>2016-10-06T23:12:21Z</time></trkpt>
<trkpt lat="25.411714" lon="104.436897">
<time>2016-10-06T23:12:22Z</time></trkpt>
<trkpt lat="25.411703" lon="104.436857">
<time>2016-10-06T23:12:23Z</time></trkpt>
<trkpt lat="25.411673" lon="104.436797">
<time>2016-10-06T23:12:24Z</time></trkpt>
<trkpt lat="25.411643" lon="104.436767">
<time>2016-10-06T23:12:25Z</time></trkpt>
<trkpt lat="25.411603" lon="104.436727">
<time>2016-10-06T23:12:26Z</time></trkpt>
<trkpt lat="25.411573" lon="104.436707">
<time>2016-10-06T23:12:27Z</time></trkpt>
<trkpt lat="25.411543" lon="104.436687">
<time>2016-10-06T23:12:28Z</time></trkpt>
<trkpt lat="25.411503" lon="104.436667">
<time>2016-10-06T23:12:29Z</time></trkpt>
<trkpt lat="25.411453" lon="104.436657">
<time>2016-10-06T23:12:30Z</time></trkpt>
<trkpt lat="25.411413" lon="104.436657">
<time>2016-10-06T23:12:31Z</time></trkpt>
<trkpt lat="25.411393" lon="104.436647">
<time>2016-10-06T23:12:32Z</time></trkpt>
<trkpt lat="25.411363" lon="104.436627">
<time>2016-10-06T23:12:33Z</time></trkpt>
<trkpt lat="25.411343" lon="104.436617">
<time>2016-10-06T23:12:34Z</time></trkpt>
<trkpt lat="25.411303" lon="104.436587">
<time>2016-10-06T23:12:35Z</time></trkpt>
<trkpt lat="25.411283" lon="104.436547">
<time>2016-10-06T23:12:36Z</time></trkpt>
<trkpt lat="25.411263" lon="104.436517">
<time>2016-10-06T23:12:37Z</time></trkpt>
<trkpt lat="25.411243" lon="104.436487">
<time>2016-10-06T23:12:38Z</time></trkpt>
<trkpt lat="25.411243" lon="104.436457">
<time>2016-10-06T23:12:39Z</time></trkpt>
<trkpt lat="25.411233" lon="104.436417">
<time>2016-10-06T23:12:40Z</time></trkpt>
<trkpt lat="25.411233" lon="104.436387">
<time>2016-10-06T23:12:41Z</time></trkpt>
<trkpt lat="25.411243" lon="104.436357">
<time>2016-10-06T23:12:42Z</time></trkpt>
<trkpt lat="25.411253" lon="104.436327">
<time>2016-10-06T23:12:43Z</time></trkpt>
<trkpt lat="25.411262" lon="104.436286">
<time>2016-10-06T23:12:44Z</time></trkpt>
<trkpt lat="25.411362" lon="104.436116">
<time>2016-10-06T23:12:45Z</time></trkpt>
<trkpt lat="25.411402" lon="104.436036">
<time>2016-10-06T23:12:46Z</time></trkpt>
<trkpt lat="25.411452" lon="104.435966">
<time>2016-10-06T23:12:47Z</time></trkpt>
<trkpt lat="25.411502" lon="104.435916">
<time>2016-10-06T23:12:48Z</time></trkpt>
<trkpt lat="25.411542" lon="104.435886">
<time>2016-10-06T23:12:49Z</time></trkpt>
<trkpt lat="25.411582" lon="104.435866">
<time>2016-10-06T23:12:50Z</time></trkpt>
<trkpt lat="25.411642" lon="104.435816">
<time>2016-10-06T23:12:51Z</time></trkpt>
<trkpt lat="25.411672" lon="104.435786">
<time>2016-10-06T23:12:52Z</time></trkpt>
<trkpt lat="25.411692" lon="104.435766">
<time>2016-10-06T23:12:53Z</time></trkpt>
<trkpt lat="25.411742" lon="104.435696">
<time>2016-10-06T23:12:54Z</time></trkpt>
<trkpt lat="25.411762" lon="104.435646">
<time>2016-10-06T23:12:55Z</time></trkpt>
<trkpt lat="25.411791" lon="104.435576">
<time>2016-10-06T23:12:56Z</time></trkpt>
<trkpt lat="25.411801" lon="104.435536">
<time>2016-10-06T23:12:57Z</time></trkpt>
<trkpt lat="25.411801" lon="104.435506">
<time>2016-10-06T23:12:58Z</time></trkpt>
<trkpt lat="25.411801" lon="104.435466">
<time>2016-10-06T23:12:59Z</time></trkpt>
<trkpt lat="25.411791" lon="104.435405">
<time>2016-10-06T23:13:00Z</time></trkpt>
<trkpt lat="25.411791" lon="104.435355">
<time>2016-10-06T23:13:01Z</time></trkpt>
<trkpt lat="25.411761" lon="104.435235">
<time>2016-10-06T23:13:02Z</time></trkpt>
<trkpt lat="25.411751" lon="104.435185">
<time>2016-10-06T23:13:03Z</time></trkpt>
<trkpt lat="25.411751" lon="104.435145">
<time>2016-10-06T23:13:04Z</time></trkpt>
<trkpt lat="25.411761" lon="104.435065">
<time>2016-10-06T23:13:05Z</time></trkpt>
<trkpt lat="25.411781" lon="104.435025">
<time>2016-10-06T23:13:06Z</time></trkpt>
<trkpt lat="25.411791" lon="104.434995">
<time>2016-10-06T23:13:07Z</time></trkpt>
<trkpt lat="25.411801" lon="104.434975">
<time>2016-10-06T23:13:08Z</time></trkpt>
<trkpt lat="25.41183" lon="104.434945">
<time>2016-10-06T23:13:09Z</time></trkpt>
<trkpt lat="25.41187" lon="104.434915">
<time>2016-10-06T23:13:10Z</time></trkpt>
<trkpt lat="25.41191" lon="104.434895">
<time>2016-10-06T23:13:11Z</time></trkpt>
<trkpt lat="25.41195" lon="104.434885">
<time>2016-10-06T23:13:12Z</time></trkpt>
<trkpt lat="25.412" lon="104.434885">
<time>2016-10-06T23:13:13Z</time></trkpt>
<trkpt lat="25.41208" lon="104.434895">
<time>2016-10-06T23:13:14Z</time></trkpt>
<trkpt lat="25.412291" lon="104.434925">
<time>2016-10-06T23:13:15Z</time></trkpt>
<trkpt lat="25.412311" lon="104.434935">
<time>2016-10-06T23:13:16Z</time></trkpt>
<trkpt lat="25.412331" lon="104.434935">
<time>2016-10-06T23:13:17Z</time></trkpt>
<trkpt lat="25.412361" lon="104.434925">
<time>2016-10-06T23:13:18Z</time></trkpt>
<trkpt lat="25.412381" lon="104.434915">
<time>2016-10-06T23:13:19Z</time></trkpt>
<trkpt lat="25.412401" lon="104.434905">
<time>2016-10-06T23:13:20Z</time></trkpt>
<trkpt lat="25.41242" lon="104.434875">
<time>2016-10-06T23:13:21Z</time></trkpt>
<trkpt lat="25.41244" lon="104.434835">
<time>2016-10-06T23:13:22Z</time></trkpt>
<trkpt lat="25.41249" lon="104.434735">
<time>2016-10-06T23:13:23Z</time></trkpt>
<trkpt lat="25.41251" lon="104.434705">
<time>2016-10-06T23:13:24Z</time></trkpt>
<trkpt lat="25.41252" lon="104.434675">
<time>2016-10-06T23:13:25Z</time></trkpt>
<trkpt lat="25.41259" lon="104.434424">
<time>2016-10-06T23:13:26Z</time></trkpt>
<trkpt lat="25.412699" lon="104.434074">
<time>2016-10-06T23:13:27Z</time></trkpt>
<trkpt lat="25.412739" lon="104.433984">
<time>2016-10-06T23:13:28Z</time></trkpt>
<trkpt lat="25.412759" lon="104.433924">
<time>2016-10-06T23:13:29Z</time></trkpt>
<trkpt lat="25.412769" lon="104.433884">
<time>2016-10-06T23:13:30Z</time></trkpt>
<trkpt lat="25.412769" lon="104.433854">
<time>2016-10-06T23:13:31Z</time></trkpt>
<trkpt lat="25.412769" lon="104.433814">
<time>2016-10-06T23:13:32Z</time></trkpt>
<trkpt lat="25.412759" lon="104.433774">
<time>2016-10-06T23:13:33Z</time></trkpt>
<trkpt lat="25.412749" lon="104.433744">
<time>2016-10-06T23:13:34Z</time></trkpt>
<trkpt lat="25.412729" lon="104.433714">
<time>2016-10-06T23:13:35Z</time></trkpt>
<trkpt lat="25.412719" lon="104.433694">
<time>2016-10-06T23:13:36Z</time></trkpt>
<trkpt lat="25.412629" lon="104.433603">
<time>2016-10-06T23:13:37Z</time></trkpt>
<trkpt lat="25.412599" lon="104.433573">
<time>2016-10-06T23:13:38Z</time></trkpt>
<trkpt lat="25.412578" lon="104.433543">
<time>2016-10-06T23:13:39Z</time></trkpt>
<trkpt lat="25.412558" lon="104.433493">
<time>2016-10-06T23:13:40Z</time></trkpt>
<trkpt lat="25.412538" lon="104.433463">
<time>2016-10-06T23:13:41Z</time></trkpt>
<trkpt lat="25.412518" lon="104.433433">
<time>2016-10-06T23:13:42Z</time></trkpt>
<trkpt lat="25.412498" lon="104.433413">
<time>2016-10-06T23:13:43Z</time></trkpt>
<trkpt lat="25.412468" lon="104.433383">
<time>2016-10-06T23:13:44Z</time></trkpt>
<trkpt lat="25.412448" lon="104.433373">
<time>2016-10-06T23:13:45Z</time></trkpt>
<trkpt lat="25.412428" lon="104.433363">
<time>2016-10-06T23:13:46Z</time></trkpt>
<trkpt lat="25.412398" lon="104.433363">
<time>2016-10-06T23:13:47Z</time></trkpt>
<trkpt lat="25.412368" lon="104.433353">
<time>2016-10-06T23:13:48Z</time></trkpt>
<trkpt lat="25.412318" lon="104.433363">
<time>2016-10-06T23:13:49Z</time></trkpt>
<trkpt lat="25.412268" lon="104.433363">
<time>2016-10-06T23:13:50Z</time></trkpt>
<trkpt lat="25.412238" lon="104.433363">
<time>2016-10-06T23:13:51Z</time></trkpt>
<trkpt lat="25.412208" lon="104.433353">
<time>2016-10-06T23:13:52Z</time></trkpt>
<trkpt lat="25.412178" lon="104.433343">
<time>2016-10-06T23:13:53Z</time></trkpt>
<trkpt lat="25.412138" lon="104.433333">
<time>2016-10-06T23:13:54Z</time></trkpt>
<trkpt lat="25.412088" lon="104.433303">
<time>2016-10-06T23:13:55Z</time></trkpt>
<trkpt lat="25.412038" lon="104.433273">
<time>2016-10-06T23:13:56Z</time></trkpt>
<trkpt lat="25.411988" lon="104.433233">
<time>2016-10-06T23:13:57Z</time></trkpt>
<trkpt lat="25.411948" lon="104.433193">
<time>2016-10-06T23:13:58Z</time></trkpt>
<trkpt lat="25.411898" lon="104.433123">
<time>2016-10-06T23:13:59Z</time></trkpt>
<trkpt lat="25.411818" lon="104.433013">
<time>2016-10-06T23:14:00Z</time></trkpt>
<trkpt lat="25.411717" lon="104.432863">
<time>2016-10-06T23:14:01Z</time></trkpt>
<trkpt lat="25.411677" lon="104.432783">
<time>2016-10-06T23:14:02Z</time></trkpt>
<trkpt lat="25.411647" lon="104.432733">
<time>2016-10-06T23:14:03Z</time></trkpt>
<trkpt lat="25.411617" lon="104.432643">
<time>2016-10-06T23:14:04Z</time></trkpt>
<trkpt lat="25.411587" lon="104.432552">
<time>2016-10-06T23:14:05Z</time></trkpt>
<trkpt lat="25.411577" lon="104.432502">
<time>2016-10-06T23:14:06Z</time></trkpt>
<trkpt lat="25.411567" lon="104.432452">
<time>2016-10-06T23:14:07Z</time></trkpt>
<trkpt lat="25.411567" lon="104.432432">
<time>2016-10-06T23:14:08Z</time></trkpt>
<trkpt lat="25.411567" lon="104.432402">
<time>2016-10-06T23:14:09Z</time></trkpt>
<trkpt lat="25.411636" lon="104.431952">
<time>2016-10-06T23:14:10Z</time></trkpt>
<trkpt lat="25.411656" lon="104.431822">
<time>2016-10-06T23:14:11Z</time></trkpt>
<trkpt lat="25.411656" lon="104.431752">
<time>2016-10-06T23:14:12Z</time></trkpt>
<trkpt lat="25.411656" lon="104.431722">
<time>2016-10-06T23:14:13Z</time></trkpt>
<trkpt lat="25.411656" lon="104.431682">
<time>2016-10-06T23:14:14Z</time></trkpt>
<trkpt lat="25.411646" lon="104.431652">
<time>2016-10-06T23:14:15Z</time></trkpt>
<trkpt lat="25.411635" lon="104.431612">
<time>2016-10-06T23:14:16Z</time></trkpt>
<trkpt lat="25.411625" lon="104.431591">
<time>2016-10-06T23:14:17Z</time></trkpt>
<trkpt lat="25.411605" lon="104.431561">
<time>2016-10-06T23:14:18Z</time></trkpt>
<trkpt lat="25.411575" lon="104.431531">
<time>2016-10-06T23:14:19Z</time></trkpt>
<trkpt lat="25.411505" lon="104.431491">
<time>2016-10-06T23:14:20Z</time></trkpt>
<trkpt lat="25.411405" lon="104.431431">
<time>2016-10-06T23:14:21Z</time></trkpt>
<trkpt lat="25.411385" lon="104.431411">
<time>2016-10-06T23:14:22Z</time></trkpt>
<trkpt lat="25.411305" lon="104.431331">
<time>2016-10-06T23:14:23Z</time></trkpt>
<trkpt lat="25.411255" lon="104.431281">
<time>2016-10-06T23:14:24Z</time></trkpt>
<trkpt lat="25.411205" lon="104.431231">
<time>2016-10-06T23:14:25Z</time></trkpt>
<trkpt lat="25.411145" lon="104.431171">
<time>2016-10-06T23:14:26Z</time></trkpt>
<trkpt lat="25.411065" lon="104.431101">
<time>2016-10-06T23:14:27Z</time></trkpt>
<trkpt lat="25.411025" lon="104.431071">
<time>2016-10-06T23:14:28Z</time></trkpt>
<trkpt lat="25.411005" lon="104.431041">
<time>2016-10-06T23:14:29Z</time></trkpt>
<trkpt lat="25.410924" lon="104.430961">
<time>2016-10-06T23:14:30Z</time></trkpt>
<trkpt lat="25.410884" lon="104.430911">
<time>2016-10-06T23:14:31Z</time></trkpt>
<trkpt lat="25.410834" lon="104.430861">
<time>2016-10-06T23:14:32Z</time></trkpt>
<trkpt lat="25.410794" lon="104.430831">
<time>2016-10-06T23:14:33Z</time></trkpt>
<trkpt lat="25.410754" lon="104.430801">
<time>2016-10-06T23:14:34Z</time></trkpt>
<trkpt lat="25.410724" lon="104.430781">
<time>2016-10-06T23:14:35Z</time></trkpt>
<trkpt lat="25.410694" lon="104.430771">
<time>2016-10-06T23:14:36Z</time></trkpt>
<trkpt lat="25.410654" lon="104.430761">
<time>2016-10-06T23:14:37Z</time></trkpt>
<trkpt lat="25.410624" lon="104.430751">
<time>2016-10-06T23:14:38Z</time></trkpt>
<trkpt lat="25.410544" lon="104.430731">
<time>2016-10-06T23:14:39Z</time></trkpt>
<trkpt lat="25.410514" lon="104.430731">
<time>2016-10-06T23:14:40Z</time></trkpt>
<trkpt lat="25.410484" lon="104.430731">
<time>2016-10-06T23:14:41Z</time></trkpt>
<trkpt lat="25.410454" lon="104.430731">
<time>2016-10-06T23:14:42Z</time></trkpt>
<trkpt lat="25.410424" lon="104.430741">
<time>2016-10-06T23:14:43Z</time></trkpt>
<trkpt lat="25.410394" lon="104.430751">
<time>2016-10-06T23:14:44Z</time></trkpt>
<trkpt lat="25.410384" lon="104.430761">
<time>2016-10-06T23:14:45Z</time></trkpt>
<trkpt lat="25.410354" lon="104.430781">
<time>2016-10-06T23:14:46Z</time></trkpt>
<trkpt lat="25.410334" lon="104.430801">
<time>2016-10-06T23:14:47Z</time></trkpt>
<trkpt lat="25.410314" lon="104.430841">
<time>2016-10-06T23:14:48Z</time></trkpt>
<trkpt lat="25.410194" lon="104.431041">
<time>2016-10-06T23:14:49Z</time></trkpt>
<trkpt lat="25.410144" lon="104.431111">
<time>2016-10-06T23:14:50Z</time></trkpt>
<trkpt lat="25.410105" lon="104.431151">
<time>2016-10-06T23:14:51Z</time></trkpt>
<trkpt lat="25.410075" lon="104.431181">
<time>2016-10-06T23:14:52Z</time></trkpt>
<trkpt lat="25.410035" lon="104.431201">
<time>2016-10-06T23:14:53Z</time></trkpt>
<trkpt lat="25.409955" lon="104.431241">
<time>2016-10-06T23:14:54Z</time></trkpt>
<trkpt lat="25.409885" lon="104.431271">
<time>2016-10-06T23:14:55Z</time></trkpt>
<trkpt lat="25.409845" lon="104.431291">
<time>2016-10-06T23:14:56Z</time></trkpt>
<trkpt lat="25.409825" lon="104.431311">
<time>2016-10-06T23:14:57Z</time></trkpt>
<trkpt lat="25.409805" lon="104.431321">
<time>2016-10-06T23:14:58Z</time></trkpt>
<trkpt lat="25.409785" lon="104.431341">
<time>2016-10-06T23:14:59Z</time></trkpt>
<trkpt lat="25.409765" lon="104.431371">
<time>2016-10-06T23:15:00Z</time></trkpt>
<trkpt lat="25.409745" lon="104.431411">
<time>2016-10-06T23:15:01Z</time></trkpt>
<trkpt lat="25.409675" lon="104.431562">
<time>2016-10-06T23:15:02Z</time></trkpt>
<trkpt lat="25.409655" lon="104.431592">
<time>2016-10-06T23:15:03Z</time></trkpt>
<trkpt lat="25.409625" lon="104.431632">
<time>2016-10-06T23:15:04Z</time></trkpt>
<trkpt lat="25.409585" lon="104.431652">
<time>2016-10-06T23:15:05Z</time></trkpt>
<trkpt lat="25.409555" lon="104.431662">
<time>2016-10-06T23:15:06Z</time></trkpt>
<trkpt lat="25.409525" lon="104.431672">
<time>2016-10-06T23:15:07Z</time></trkpt>
<trkpt lat="25.409485" lon="104.431672">
<time>2016-10-06T23:15:08Z</time></trkpt>
<trkpt lat="25.409455" lon="104.431662">
<time>2016-10-06T23:15:09Z</time></trkpt>
<trkpt lat="25.409425" lon="104.431652">
<time>2016-10-06T23:15:10Z</time></trkpt>
<trkpt lat="25.409375" lon="104.431622">
<time>2016-10-06T23:15:11Z</time></trkpt>
<trkpt lat="25.409335" lon="104.431592">
<time>2016-10-06T23:15:12Z</time></trkpt>
<trkpt lat="25.409295" lon="104.431552">
<time>2016-10-06T23:15:13Z</time></trkpt>
<trkpt lat="25.409245" lon="104.431491">
<time>2016-10-06T23:15:14Z</time></trkpt>
<trkpt lat="25.409215" lon="104.431471">
<time>2016-10-06T23:15:15Z</time></trkpt>
<trkpt lat="25.409195" lon="104.431451">
<time>2016-10-06T23:15:16Z</time></trkpt>
<trkpt lat="25.409175" lon="104.431441">
<time>2016-10-06T23:15:17Z</time></trkpt>
<trkpt lat="25.409155" lon="104.431431">
<time>2016-10-06T23:15:18Z</time></trkpt>
<trkpt lat="25.409135" lon="104.431431">
<time>2016-10-06T23:15:19Z</time></trkpt>
<trkpt lat="25.409105" lon="104.431431">
<time>2016-10-06T23:15:20Z</time></trkpt>
<trkpt lat="25.409075" lon="104.431431">
<time>2016-10-06T23:15:21Z</time></trkpt>
<trkpt lat="25.409035" lon="104.431441">
<time>2016-10-06T23:15:22Z</time></trkpt>
<trkpt lat="25.409015" lon="104.431451">
<time>2016-10-06T23:15:23Z</time></trkpt>
<trkpt lat="25.408995" lon="104.431461">
<time>2016-10-06T23:15:24Z</time></trkpt>
<trkpt lat="25.408965" lon="104.431492">
<time>2016-10-06T23:15:25Z</time></trkpt>
<trkpt lat="25.408945" lon="104.431542">
<time>2016-10-06T23:15:26Z</time></trkpt>
<trkpt lat="25.408935" lon="104.431572">
<time>2016-10-06T23:15:27Z</time></trkpt>
<trkpt lat="25.408925" lon="104.431612">
<time>2016-10-06T23:15:28Z</time></trkpt>
<trkpt lat="25.408925" lon="104.431662">
<time>2016-10-06T23:15:29Z</time></trkpt>
<trkpt lat="25.408925" lon="104.431702">
<time>2016-10-06T23:15:30Z</time></trkpt>
<trkpt lat="25.408935" lon="104.431732">
<time>2016-10-06T23:15:31Z</time></trkpt>
<trkpt lat="25.408945" lon="104.431772">
<time>2016-10-06T23:15:32Z</time></trkpt>
<trkpt lat="25.408955" lon="104.431792">
<time>2016-10-06T23:15:33Z</time></trkpt>
<trkpt lat="25.408975" lon="104.431822">
<time>2016-10-06T23:15:34Z</time></trkpt>
<trkpt lat="25.408995" lon="104.431842">
<time>2016-10-06T23:15:35Z</time></trkpt>
<trkpt lat="25.409015" lon="104.431862">
<time>2016-10-06T23:15:36Z</time></trkpt>
<trkpt lat="25.409045" lon="104.431892">
<time>2016-10-06T23:15:37Z</time></trkpt>
<trkpt lat="25.409065" lon="104.431902">
<time>2016-10-06T23:15:38Z</time></trkpt>
<trkpt lat="25.409085" lon="104.431922">
<time>2016-10-06T23:15:39Z</time></trkpt>
<trkpt lat="25.409105" lon="104.431942">
<time>2016-10-06T23:15:40Z</time></trkpt>
<trkpt lat="25.409136" lon="104.431982">
<time>2016-10-06T23:15:41Z</time></trkpt>
<trkpt lat="25.409176" lon="104.432042">
<time>2016-10-06T23:15:42Z</time></trkpt>
<trkpt lat="25.409196" lon="104.432102">
<time>2016-10-06T23:15:43Z</time></trkpt>
<trkpt lat="25.409216" lon="104.432162">
<time>2016-10-06T23:15:44Z</time></trkpt>
<trkpt lat="25.409226" lon="104.432222">
<time>2016-10-06T23:15:45Z</time></trkpt>
<trkpt lat="25.409236" lon="104.432272">
<time>2016-10-06T23:15:46Z</time></trkpt>
<trkpt lat="25.409236" lon="104.432312">
<time>2016-10-06T23:15:47Z</time></trkpt>
<trkpt lat="25.409226" lon="104.432342">
<time>2016-10-06T23:15:48Z</time></trkpt>
<trkpt lat="25.409226" lon="104.432372">
<time>2016-10-06T23:15:49Z</time></trkpt>
<trkpt lat="25.409216" lon="104.432402">
<time>2016-10-06T23:15:50Z</time></trkpt>
<trkpt lat="25.409186" lon="104.432472">
<time>2016-10-06T23:15:51Z</time></trkpt>
<trkpt lat="25.409106" lon="104.432663">
<time>2016-10-06T23:15:52Z</time></trkpt>
<trkpt lat="25.409077" lon="104.432703">
<time>2016-10-06T23:15:53Z</time></trkpt>
<trkpt lat="25.409057" lon="104.432743">
<time>2016-10-06T23:15:54Z</time></trkpt>
<trkpt lat="25.409037" lon="104.432753">
<time>2016-10-06T23:15:55Z</time></trkpt>
<trkpt lat="25.409017" lon="104.432773">
<time>2016-10-06T23:15:56Z</time></trkpt>
<trkpt lat="25.408987" lon="104.432783">
<time>2016-10-06T23:15:57Z</time></trkpt>
<trkpt lat="25.408827" lon="104.432853">
<time>2016-10-06T23:15:58Z</time></trkpt>
<trkpt lat="25.408797" lon="104.432863">
<time>2016-10-06T23:15:59Z</time></trkpt>
<trkpt lat="25.408777" lon="104.432883">
<time>2016-10-06T23:16:00Z</time></trkpt>
<trkpt lat="25.408757" lon="104.432903">
<time>2016-10-06T23:16:01Z</time></trkpt>
<trkpt lat="25.408737" lon="104.432933">
<time>2016-10-06T23:16:02Z</time></trkpt>
<trkpt lat="25.408707" lon="104.432993">
<time>2016-10-06T23:16:03Z</time></trkpt>
<trkpt lat="25.408677" lon="104.433053">
<time>2016-10-06T23:16:04Z</time></trkpt>
<trkpt lat="25.408667" lon="104.433083">
<time>2016-10-06T23:16:05Z</time></trkpt>
<trkpt lat="25.408647" lon="104.433103">
<time>2016-10-06T23:16:06Z</time></trkpt>
<trkpt lat="25.408617" lon="104.433133">
<time>2016-10-06T23:16:07Z</time></trkpt>
<trkpt lat="25.408577" lon="104.433153">
<time>2016-10-06T23:16:08Z</time></trkpt>
<trkpt lat="25.408537" lon="104.433153">
<time>2016-10-06T23:16:09Z</time></trkpt>
<trkpt lat="25.408427" lon="104.433153">
<time>2016-10-06T23:16:10Z</time></trkpt>
<trkpt lat="25.408337" lon="104.433143">
<time>2016-10-06T23:16:11Z</time></trkpt>
<trkpt lat="25.408277" lon="104.433133">
<time>2016-10-06T23:16:12Z</time></trkpt>
<trkpt lat="25.408017" lon="104.433053">
<time>2016-10-06T23:16:13Z</time></trkpt>
<trkpt lat="25.407897" lon="104.433023">
<time>2016-10-06T23:16:14Z</time></trkpt>
<trkpt lat="25.407757" lon="104.433023">
<time>2016-10-06T23:16:15Z</time></trkpt>
<trkpt lat="25.407687" lon="104.433013">
<time>2016-10-06T23:16:16Z</time></trkpt>
<trkpt lat="25.407647" lon="104.433003">
<time>2016-10-06T23:16:17Z</time></trkpt>
<trkpt lat="25.407577" lon="104.432973">
<time>2016-10-06T23:16:18Z</time></trkpt>
<trkpt lat="25.407527" lon="104.432953">
<time>2016-10-06T23:16:19Z</time></trkpt>
<trkpt lat="25.407467" lon="104.432943">
<time>2016-10-06T23:16:20Z</time></trkpt>
<trkpt lat="25.407347" lon="104.432913">
<time>2016-10-06T23:16:21Z</time></trkpt>
<trkpt lat="25.407246" lon="104.432893">
<time>2016-10-06T23:16:22Z</time></trkpt>
<trkpt lat="25.407196" lon="104.432873">
<time>2016-10-06T23:16:23Z</time></trkpt>
<trkpt lat="25.407086" lon="104.432823">
<time>2016-10-06T23:16:24Z</time></trkpt>
<trkpt lat="25.406996" lon="104.432773">
<time>2016-10-06T23:16:25Z</time></trkpt>
<trkpt lat="25.406956" lon="104.432763">
<time>2016-10-06T23:16:26Z</time></trkpt>
<trkpt lat="25.406916" lon="104.432753">
<time>2016-10-06T23:16:27Z</time></trkpt>
<trkpt lat="25.406876" lon="104.432763">
<time>2016-10-06T23:16:28Z</time></trkpt>
<trkpt lat="25.406846" lon="104.432773">
<time>2016-10-06T23:16:29Z</time></trkpt>
<trkpt lat="25.406776" lon="104.432813">
<time>2016-10-06T23:16:30Z</time></trkpt>
<trkpt lat="25.406726" lon="104.432843">
<time>2016-10-06T23:16:31Z</time></trkpt>
<trkpt lat="25.406686" lon="104.432863">
<time>2016-10-06T23:16:32Z</time></trkpt>
<trkpt lat="25.406616" lon="104.432883">
<time>2016-10-06T23:16:33Z</time></trkpt>
<trkpt lat="25.406416" lon="104.432923">
<time>2016-10-06T23:16:34Z</time></trkpt>
<trkpt lat="25.406356" lon="104.432933">
<time>2016-10-06T23:16:35Z</time></trkpt>
<trkpt lat="25.406326" lon="104.432943">
<time>2016-10-06T23:16:36Z</time></trkpt>
<trkpt lat="25.406286" lon="104.432943">
<time>2016-10-06T23:16:37Z</time></trkpt>
<trkpt lat="25.406256" lon="104.432933">
<time>2016-10-06T23:16:38Z</time></trkpt>
<trkpt lat="25.406226" lon="104.432913">
<time>2016-10-06T23:16:39Z</time></trkpt>
<trkpt lat="25.406196" lon="104.432883">
<time>2016-10-06T23:16:40Z</time></trkpt>
<trkpt lat="25.406166" lon="104.432853">
<time>2016-10-06T23:16:41Z</time></trkpt>
<trkpt lat="25.406146" lon="104.432823">
<time>2016-10-06T23:16:42Z</time></trkpt>
<trkpt lat="25.406096" lon="104.432723">
<time>2016-10-06T23:16:43Z</time></trkpt>
<trkpt lat="25.406076" lon="104.432683">
<time>2016-10-06T23:16:44Z</time></trkpt>
<trkpt lat="25.406066" lon="104.432663">
<time>2016-10-06T23:16:45Z</time></trkpt>
<trkpt lat="25.406046" lon="104.432643">
<time>2016-10-06T23:16:46Z</time></trkpt>
<trkpt lat="25.406026" lon="104.432633">
<time>2016-10-06T23:16:47Z</time></trkpt>
<trkpt lat="25.405986" lon="104.432603">
<time>2016-10-06T23:16:48Z</time></trkpt>
<trkpt lat="25.405946" lon="104.432583">
<time>2016-10-06T23:16:49Z</time></trkpt>
<trkpt lat="25.405936" lon="104.432573">
<time>2016-10-06T23:16:50Z</time></trkpt>
<trkpt lat="25.405926" lon="104.432563">
<time>2016-10-06T23:16:51Z</time></trkpt>
<trkpt lat="25.405876" lon="104.432523">
<time>2016-10-06T23:16:52Z</time></trkpt>
<trkpt lat="25.405856" lon="104.432503">
<time>2016-10-06T23:16:53Z</time></trkpt>
<trkpt lat="25.405846" lon="104.432493">
<time>2016-10-06T23:16:54Z</time></trkpt>
<trkpt lat="25.405776" lon="104.432463">
<time>2016-10-06T23:16:55Z</time></trkpt>
<trkpt lat="25.405755" lon="104.432433">
<time>2016-10-06T23:16:56Z</time></trkpt>
<trkpt lat="25.405725" lon="104.432413">
<time>2016-10-06T23:16:57Z</time></trkpt>
<trkpt lat="25.405705" lon="104.432382">
<time>2016-10-06T23:16:58Z</time></trkpt>
<trkpt lat="25.405695" lon="104.432342">
<time>2016-10-06T23:16:59Z</time></trkpt>
<trkpt lat="25.405675" lon="104.432302">
<time>2016-10-06T23:17:00Z</time></trkpt>
<trkpt lat="25.405665" lon="104.432272">
<time>2016-10-06T23:17:01Z</time></trkpt>
<trkpt lat="25.405665" lon="104.432232">
<time>2016-10-06T23:17:02Z</time></trkpt>
<trkpt lat="25.405665" lon="104.432142">
<time>2016-10-06T23:17:03Z</time></trkpt>
<trkpt lat="25.405685" lon="104.431842">
<time>2016-10-06T23:17:04Z</time></trkpt>
<trkpt lat="25.405685" lon="104.431762">
<time>2016-10-06T23:17:05Z</time></trkpt>
<trkpt lat="25.405684" lon="104.431722">
<time>2016-10-06T23:17:06Z</time></trkpt>
<trkpt lat="25.405674" lon="104.431692">
<time>2016-10-06T23:17:07Z</time></trkpt>
<trkpt lat="25.405674" lon="104.431662">
<time>2016-10-06T23:17:08Z</time></trkpt>
<trkpt lat="25.405654" lon="104.431632">
<time>2016-10-06T23:17:09Z</time></trkpt>
<trkpt lat="25.405634" lon="104.431602">
<time>2016-10-06T23:17:10Z</time></trkpt>
<trkpt lat="25.405624" lon="104.431592">
<time>2016-10-06T23:17:11Z</time></trkpt>
<trkpt lat="25.405594" lon="104.431562">
<time>2016-10-06T23:17:12Z</time></trkpt>
<trkpt lat="25.405564" lon="104.431552">
<time>2016-10-06T23:17:13Z</time></trkpt>
<trkpt lat="25.405524" lon="104.431532">
<time>2016-10-06T23:17:14Z</time></trkpt>
<trkpt lat="25.405474" lon="104.431512">
<time>2016-10-06T23:17:15Z</time></trkpt>
<trkpt lat="25.405364" lon="104.431492">
<time>2016-10-06T23:17:16Z</time></trkpt>
<trkpt lat="25.405294" lon="104.431482">
<time>2016-10-06T23:17:17Z</time></trkpt>
<trkpt lat="25.405244" lon="104.431482">
<time>2016-10-06T23:17:18Z</time></trkpt>
<trkpt lat="25.405114" lon="104.431482">
<time>2016-10-06T23:17:19Z</time></trkpt>
<trkpt lat="25.405054" lon="104.431482">
<time>2016-10-06T23:17:20Z</time></trkpt>
<trkpt lat="25.404994" lon="104.431482">
<time>2016-10-06T23:17:21Z</time></trkpt>
<trkpt lat="25.404964" lon="104.431472">
<time>2016-10-06T23:17:22Z</time></trkpt>
<trkpt lat="25.404924" lon="104.431462">
<time>2016-10-06T23:17:23Z</time></trkpt>
<trkpt lat="25.404894" lon="104.431442">
<time>2016-10-06T23:17:24Z</time></trkpt>
<trkpt lat="25.404874" lon="104.431422">
<time>2016-10-06T23:17:25Z</time></trkpt>
<trkpt lat="25.404844" lon="104.431392">
<time>2016-10-06T23:17:26Z</time></trkpt>
<trkpt lat="25.404824" lon="104.431342">
<time>2016-10-06T23:17:27Z</time></trkpt>
<trkpt lat="25.404804" lon="104.431271">
<time>2016-10-06T23:17:28Z</time></trkpt>
<trkpt lat="25.404784" lon="104.431211">
<time>2016-10-06T23:17:29Z</time></trkpt>
<trkpt lat="25.404773" lon="104.431161">
<time>2016-10-06T23:17:30Z</time></trkpt>
<trkpt lat="25.404773" lon="104.431111">
<time>2016-10-06T23:17:31Z</time></trkpt>
<trkpt lat="25.404763" lon="104.431071">
<time>2016-10-06T23:17:32Z</time></trkpt>
<trkpt lat="25.404773" lon="104.431041">
<time>2016-10-06T23:17:33Z</time></trkpt>
<trkpt lat="25.404783" lon="104.430991">
<time>2016-10-06T23:17:34Z</time></trkpt>
<trkpt lat="25.404823" lon="104.430731">
<time>2016-10-06T23:17:35Z</time></trkpt>
<trkpt lat="25.404823" lon="104.430691">
<time>2016-10-06T23:17:36Z</time></trkpt>
<trkpt lat="25.404823" lon="104.430651">
<time>2016-10-06T23:17:37Z</time></trkpt>
<trkpt lat="25.404823" lon="104.430611">
<time>2016-10-06T23:17:38Z</time></trkpt>
<trkpt lat="25.404803" lon="104.430561">
<time>2016-10-06T23:17:39Z</time></trkpt>
<trkpt lat="25.404772" lon="104.430431">
<time>2016-10-06T23:17:40Z</time></trkpt>
<trkpt lat="25.404762" lon="104.430391">
<time>2016-10-06T23:17:41Z</time></trkpt>
<trkpt lat="25.404752" lon="104.430231">
<time>2016-10-06T23:17:42Z</time></trkpt>
<trkpt lat="25.404752" lon="104.43006">
<time>2016-10-06T23:17:43Z</time></trkpt>
<trkpt lat="25.404752" lon="104.42999">
<time>2016-10-06T23:17:44Z</time></trkpt>
<trkpt lat="25.404762" lon="104.42994">
<time>2016-10-06T23:17:45Z</time></trkpt>
<trkpt lat="25.404772" lon="104.42991">
<time>2016-10-06T23:17:46Z</time></trkpt>
<trkpt lat="25.404772" lon="104.42989">
<time>2016-10-06T23:17:47Z</time></trkpt>
<trkpt lat="25.404782" lon="104.42986">
<time>2016-10-06T23:17:48Z</time></trkpt>
<trkpt lat="25.404792" lon="104.42984">
<time>2016-10-06T23:17:49Z</time></trkpt>
<trkpt lat="25.404882" lon="104.42971">
<time>2016-10-06T23:17:50Z</time></trkpt>
<trkpt lat="25.404981" lon="104.42957">
<time>2016-10-06T23:17:51Z</time></trkpt>
<trkpt lat="25.405031" lon="104.42949">
<time>2016-10-06T23:17:52Z</time></trkpt>
<trkpt lat="25.405051" lon="104.42944">
<time>2016-10-06T23:17:53Z</time></trkpt>
<trkpt lat="25.405071" lon="104.42941">
<time>2016-10-06T23:17:54Z</time></trkpt>
<trkpt lat="25.405091" lon="104.42936">
<time>2016-10-06T23:17:55Z</time></trkpt>
<trkpt lat="25.405111" lon="104.4293">
<time>2016-10-06T23:17:56Z</time></trkpt>
<trkpt lat="25.405121" lon="104.42924">
<time>2016-10-06T23:17:57Z</time></trkpt>
<trkpt lat="25.405131" lon="104.42919">
<time>2016-10-06T23:17:58Z</time></trkpt>
<trkpt lat="25.405131" lon="104.42916">
<time>2016-10-06T23:17:59Z</time></trkpt>
<trkpt lat="25.405121" lon="104.42912">
<time>2016-10-06T23:18:00Z</time></trkpt>
<trkpt lat="25.405111" lon="104.429079">
<time>2016-10-06T23:18:01Z</time></trkpt>
<trkpt lat="25.405101" lon="104.429039">
<time>2016-10-06T23:18:02Z</time></trkpt>
<trkpt lat="25.405041" lon="104.428909">
<time>2016-10-06T23:18:03Z</time></trkpt>
<trkpt lat="25.40498" lon="104.428839">
<time>2016-10-06T23:18:04Z</time></trkpt>
<trkpt lat="25.40495" lon="104.428799">
<time>2016-10-06T23:18:05Z</time></trkpt>
<trkpt lat="25.4049" lon="104.428759">
<time>2016-10-06T23:18:06Z</time></trkpt>
<trkpt lat="25.40479" lon="104.428709">
<time>2016-10-06T23:18:07Z</time></trkpt>
<trkpt lat="25.40461" lon="104.428629">
<time>2016-10-06T23:18:08Z</time></trkpt>
<trkpt lat="25.40454" lon="104.428559">
<time>2016-10-06T23:18:09Z</time></trkpt>
<trkpt lat="25.40449" lon="104.428499">
<time>2016-10-06T23:18:10Z</time></trkpt>
<trkpt lat="25.404289" lon="104.428139">
<time>2016-10-06T23:18:11Z</time></trkpt>
<trkpt lat="25.404289" lon="104.428099">
<time>2016-10-06T23:18:12Z</time></trkpt>
<trkpt lat="25.404249" lon="104.428039">
<time>2016-10-06T23:18:13Z</time></trkpt>
<trkpt lat="25.404199" lon="104.427989">
<time>2016-10-06T23:18:14Z</time></trkpt>
<trkpt lat="25.404149" lon="104.427949">
<time>2016-10-06T23:18:15Z</time></trkpt>
<trkpt lat="25.404079" lon="104.427879">
<time>2016-10-06T23:18:16Z</time></trkpt>
<trkpt lat="25.404039" lon="104.427809">
<time>2016-10-06T23:18:17Z</time></trkpt>
<trkpt lat="25.403949" lon="104.427538">
<time>2016-10-06T23:18:18Z</time></trkpt>
<trkpt lat="25.403958" lon="104.427448">
<time>2016-10-06T23:18:19Z</time></trkpt>
<trkpt lat="25.403998" lon="104.427318">
<time>2016-10-06T23:18:20Z</time></trkpt>
<trkpt lat="25.403998" lon="104.427278">
<time>2016-10-06T23:18:21Z</time></trkpt>
<trkpt lat="25.404058" lon="104.427198">
<time>2016-10-06T23:18:22Z</time></trkpt>
<trkpt lat="25.404068" lon="104.427158">
<time>2016-10-06T23:18:23Z</time></trkpt>
<trkpt lat="25.404138" lon="104.427098">
<time>2016-10-06T23:18:24Z</time></trkpt>
<trkpt lat="25.404148" lon="104.427058">
<time>2016-10-06T23:18:25Z</time></trkpt>
<trkpt lat="25.404218" lon="104.427018">
<time>2016-10-06T23:18:26Z</time></trkpt>
<trkpt lat="25.404278" lon="104.426968">
<time>2016-10-06T23:18:27Z</time></trkpt>
<trkpt lat="25.404338" lon="104.426938">
<time>2016-10-06T23:18:28Z</time></trkpt>
<trkpt lat="25.404388" lon="104.426858">
<time>2016-10-06T23:18:29Z</time></trkpt>
<trkpt lat="25.404438" lon="104.426788">
<time>2016-10-06T23:18:30Z</time></trkpt>
<trkpt lat="25.404448" lon="104.426728">
<time>2016-10-06T23:18:31Z</time></trkpt>
<trkpt lat="25.404447" lon="104.426528">
<time>2016-10-06T23:18:32Z</time></trkpt>
<trkpt lat="25.404287" lon="104.426357">
<time>2016-10-06T23:18:33Z</time></trkpt>
<trkpt lat="25.404197" lon="104.426307">
<time>2016-10-06T23:18:34Z</time></trkpt>
<trkpt lat="25.404187" lon="104.426247">
<time>2016-10-06T23:18:35Z</time></trkpt>
<trkpt lat="25.404017" lon="104.426197">
<time>2016-10-06T23:18:36Z</time></trkpt>
<trkpt lat="25.403797" lon="104.426057">
<time>2016-10-06T23:18:37Z</time></trkpt>
<trkpt lat="25.403757" lon="104.425987">
<time>2016-10-06T23:18:38Z</time></trkpt>
<trkpt lat="25.403757" lon="104.425927">
<time>2016-10-06T23:18:39Z</time></trkpt>
<trkpt lat="25.403777" lon="104.425867">
<time>2016-10-06T23:18:40Z</time></trkpt>
<trkpt lat="25.403846" lon="104.425807">
<time>2016-10-06T23:18:41Z</time></trkpt>
<trkpt lat="25.404036" lon="104.425697">
<time>2016-10-06T23:18:42Z</time></trkpt>
<trkpt lat="25.404146" lon="104.425597">
<time>2016-10-06T23:18:43Z</time></trkpt>
<trkpt lat="25.404356" lon="104.425267">
<time>2016-10-06T23:18:44Z</time></trkpt>
<trkpt lat="25.404546" lon="104.425097">
<time>2016-10-06T23:18:45Z</time></trkpt>
<trkpt lat="25.404596" lon="104.425026">
<time>2016-10-06T23:18:46Z</time></trkpt>
<trkpt lat="25.404636" lon="104.424926">
<time>2016-10-06T23:18:47Z</time></trkpt>
<trkpt lat="25.404656" lon="104.424826">
<time>2016-10-06T23:18:48Z</time></trkpt>
<trkpt lat="25.404655" lon="104.424726">
<time>2016-10-06T23:18:49Z</time></trkpt>
<trkpt lat="25.404635" lon="104.424626">
<time>2016-10-06T23:18:50Z</time></trkpt>
<trkpt lat="25.404535" lon="104.424456">
<time>2016-10-06T23:18:51Z</time></trkpt>
<trkpt lat="25.404415" lon="104.424366">
<time>2016-10-06T23:18:52Z</time></trkpt>
<trkpt lat="25.404205" lon="104.424266">
<time>2016-10-06T23:18:53Z</time></trkpt>
<trkpt lat="25.404125" lon="104.424166">
<time>2016-10-06T23:18:54Z</time></trkpt>
<trkpt lat="25.404065" lon="104.424096">
<time>2016-10-06T23:18:55Z</time></trkpt>
<trkpt lat="25.403854" lon="104.423986">
<time>2016-10-06T23:18:56Z</time></trkpt>
<trkpt lat="25.403804" lon="104.423936">
<time>2016-10-06T23:18:57Z</time></trkpt>
<trkpt lat="25.403764" lon="104.423886">
<time>2016-10-06T23:18:58Z</time></trkpt>
<trkpt lat="25.403694" lon="104.423836">
<time>2016-10-06T23:18:59Z</time></trkpt>
<trkpt lat="25.403554" lon="104.423746">
<time>2016-10-06T23:19:00Z</time></trkpt>
<trkpt lat="25.403444" lon="104.423696">
<time>2016-10-06T23:19:01Z</time></trkpt>
<trkpt lat="25.403374" lon="104.423656">
<time>2016-10-06T23:19:02Z</time></trkpt>
<trkpt lat="25.403134" lon="104.423656">
<time>2016-10-06T23:19:03Z</time></trkpt>
<trkpt lat="25.402914" lon="104.423596">
<time>2016-10-06T23:19:04Z</time></trkpt>
<trkpt lat="25.402844" lon="104.423536">
<time>2016-10-06T23:19:05Z</time></trkpt>
<trkpt lat="25.402734" lon="104.423376">
<time>2016-10-06T23:19:06Z</time></trkpt>
<trkpt lat="25.402663" lon="104.423316">
<time>2016-10-06T23:19:07Z</time></trkpt>
<trkpt lat="25.402573" lon="104.423295">
<time>2016-10-06T23:19:08Z</time></trkpt>
<trkpt lat="25.402403" lon="104.423316">
<time>2016-10-06T23:19:09Z</time></trkpt>
<trkpt lat="25.402123" lon="104.423376">
<time>2016-10-06T23:19:10Z</time></trkpt>
<trkpt lat="25.401713" lon="104.423496">
<time>2016-10-06T23:19:11Z</time></trkpt>
<trkpt lat="25.401623" lon="104.423466">
<time>2016-10-06T23:19:12Z</time></trkpt>
<trkpt lat="25.401553" lon="104.423396">
<time>2016-10-06T23:19:13Z</time></trkpt>
<trkpt lat="25.401543" lon="104.423296">
<time>2016-10-06T23:19:14Z</time></trkpt>
<trkpt lat="25.401543" lon="104.423195">
<time>2016-10-06T23:19:15Z</time></trkpt>
<trkpt lat="25.401503" lon="104.423105">
<time>2016-10-06T23:19:16Z</time></trkpt>
<trkpt lat="25.401413" lon="104.423055">
<time>2016-10-06T23:19:17Z</time></trkpt>
<trkpt lat="25.401313" lon="104.423075">
<time>2016-10-06T23:19:18Z</time></trkpt>
<trkpt lat="25.401113" lon="104.423206">
<time>2016-10-06T23:19:19Z</time></trkpt>
<trkpt lat="25.401013" lon="104.423246">
<time>2016-10-06T23:19:20Z</time></trkpt>
<trkpt lat="25.400913" lon="104.423226">
<time>2016-10-06T23:19:21Z</time></trkpt>
<trkpt lat="25.400823" lon="104.423196">
<time>2016-10-06T23:19:22Z</time></trkpt>
<trkpt lat="25.400313" lon="104.422895">
<time>2016-10-06T23:19:23Z</time></trkpt>
<trkpt lat="25.399842" lon="104.422715">
<time>2016-10-06T23:19:24Z</time></trkpt>
<trkpt lat="25.399602" lon="104.422575">
<time>2016-10-06T23:19:25Z</time></trkpt>
<trkpt lat="25.399372" lon="104.422365">
<time>2016-10-06T23:19:26Z</time></trkpt>
<trkpt lat="25.399162" lon="104.422125">
<time>2016-10-06T23:19:27Z</time></trkpt>
<trkpt lat="25.398981" lon="104.421905">
<time>2016-10-06T23:19:28Z</time></trkpt>
<trkpt lat="25.398741" lon="104.421555">
<time>2016-10-06T23:19:29Z</time></trkpt>
<trkpt lat="25.398671" lon="104.421495">
<time>2016-10-06T23:19:30Z</time></trkpt>
<trkpt lat="25.398581" lon="104.421475">
<time>2016-10-06T23:19:31Z</time></trkpt>
<trkpt lat="25.398481" lon="104.421595">
<time>2016-10-06T23:19:32Z</time></trkpt>
<trkpt lat="25.398491" lon="104.421685">
<time>2016-10-06T23:19:33Z</time></trkpt>
<trkpt lat="25.398541" lon="104.421765">
<time>2016-10-06T23:19:34Z</time></trkpt>
<trkpt lat="25.398761" lon="104.421955">
<time>2016-10-06T23:19:35Z</time></trkpt>
<trkpt lat="25.398982" lon="104.422265">
<time>2016-10-06T23:19:36Z</time></trkpt>
<trkpt lat="25.399152" lon="104.422555">
<time>2016-10-06T23:19:37Z</time></trkpt>
<trkpt lat="25.399212" lon="104.422635">
<time>2016-10-06T23:19:38Z</time></trkpt>
<trkpt lat="25.399432" lon="104.422865">
<time>2016-10-06T23:19:39Z</time></trkpt>
<trkpt lat="25.399733" lon="104.423075">
<time>2016-10-06T23:19:40Z</time></trkpt>
<trkpt lat="25.399773" lon="104.423136">
<time>2016-10-06T23:19:41Z</time></trkpt>
<trkpt lat="25.399763" lon="104.423206">
<time>2016-10-06T23:19:42Z</time></trkpt>
<trkpt lat="25.399723" lon="104.423266">
<time>2016-10-06T23:19:43Z</time></trkpt>
<trkpt lat="25.399653" lon="104.423286">
<time>2016-10-06T23:19:44Z</time></trkpt>
<trkpt lat="25.399583" lon="104.423246">
<time>2016-10-06T23:19:45Z</time></trkpt>
<trkpt lat="25.399383" lon="104.423015">
<time>2016-10-06T23:19:46Z</time></trkpt>
<trkpt lat="25.399242" lon="104.422885">
<time>2016-10-06T23:19:47Z</time></trkpt>
<trkpt lat="25.398772" lon="104.422655">
<time>2016-10-06T23:19:48Z</time></trkpt>
<trkpt lat="25.398602" lon="104.422545">
<time>2016-10-06T23:19:49Z</time></trkpt>
<trkpt lat="25.398542" lon="104.422475">
<time>2016-10-06T23:19:50Z</time></trkpt>
<trkpt lat="25.398382" lon="104.422235">
<time>2016-10-06T23:19:51Z</time></trkpt>
<trkpt lat="25.398141" lon="104.421995">
<time>2016-10-06T23:19:52Z</time></trkpt>
<trkpt lat="25.398001" lon="104.421805">
<time>2016-10-06T23:19:53Z</time></trkpt>
<trkpt lat="25.397931" lon="104.421715">
<time>2016-10-06T23:19:54Z</time></trkpt>
<trkpt lat="25.397761" lon="104.421415">
<time>2016-10-06T23:19:55Z</time></trkpt>
<trkpt lat="25.397701" lon="104.421335">
<time>2016-10-06T23:19:56Z</time></trkpt>
<trkpt lat="25.397631" lon="104.421315">
<time>2016-10-06T23:19:57Z</time></trkpt>
<trkpt lat="25.397561" lon="104.421335">
<time>2016-10-06T23:19:58Z</time></trkpt>
<trkpt lat="25.397511" lon="104.421395">
<time>2016-10-06T23:19:59Z</time></trkpt>
<trkpt lat="25.397511" lon="104.421465">
<time>2016-10-06T23:20:00Z</time></trkpt>
<trkpt lat="25.397551" lon="104.421555">
<time>2016-10-06T23:20:01Z</time></trkpt>
<trkpt lat="25.397761" lon="104.421805">
<time>2016-10-06T23:20:02Z</time></trkpt>
<trkpt lat="25.397981" lon="104.422145">
<time>2016-10-06T23:20:03Z</time></trkpt>
<trkpt lat="25.398112" lon="104.422625">
<time>2016-10-06T23:20:04Z</time></trkpt>
<trkpt lat="25.398102" lon="104.422685">
<time>2016-10-06T23:20:05Z</time></trkpt>
<trkpt lat="25.397982" lon="104.422755">
<time>2016-10-06T23:20:06Z</time></trkpt>
<trkpt lat="25.397912" lon="104.422715">
<time>2016-10-06T23:20:07Z</time></trkpt>
<trkpt lat="25.397852" lon="104.422635">
<time>2016-10-06T23:20:08Z</time></trkpt>
<trkpt lat="25.397822" lon="104.422535">
<time>2016-10-06T23:20:09Z</time></trkpt>
<trkpt lat="25.397781" lon="104.422245">
<time>2016-10-06T23:20:10Z</time></trkpt>
<trkpt lat="25.397691" lon="104.422065">
<time>2016-10-06T23:20:11Z</time></trkpt>
<trkpt lat="25.397621" lon="104.421985">
<time>2016-10-06T23:20:12Z</time></trkpt>
<trkpt lat="25.397531" lon="104.421935">
<time>2016-10-06T23:20:13Z</time></trkpt>
<trkpt lat="25.397441" lon="104.421925">
<time>2016-10-06T23:20:14Z</time></trkpt>
<trkpt lat="25.397231" lon="104.421935">
<time>2016-10-06T23:20:15Z</time></trkpt>
<trkpt lat="25.396811" lon="104.422005">
<time>2016-10-06T23:20:16Z</time></trkpt>
<trkpt lat="25.396711" lon="104.422005">
<time>2016-10-06T23:20:17Z</time></trkpt>
<trkpt lat="25.396521" lon="104.421935">
<time>2016-10-06T23:20:18Z</time></trkpt>
<trkpt lat="25.396441" lon="104.421925">
<time>2016-10-06T23:20:19Z</time></trkpt>
<trkpt lat="25.396251" lon="104.421975">
<time>2016-10-06T23:20:20Z</time></trkpt>
<trkpt lat="25.396181" lon="104.422045">
<time>2016-10-06T23:20:21Z</time></trkpt>
<trkpt lat="25.396141" lon="104.422115">
<time>2016-10-06T23:20:22Z</time></trkpt>
<trkpt lat="25.396111" lon="104.422215">
<time>2016-10-06T23:20:23Z</time></trkpt>
<trkpt lat="25.396091" lon="104.422485">
<time>2016-10-06T23:20:24Z</time></trkpt>
<trkpt lat="25.396061" lon="104.422555">
<time>2016-10-06T23:20:25Z</time></trkpt>
<trkpt lat="25.396022" lon="104.422625">
<time>2016-10-06T23:20:26Z</time></trkpt>
<trkpt lat="25.395942" lon="104.422665">
<time>2016-10-06T23:20:27Z</time></trkpt>
<trkpt lat="25.395862" lon="104.422665">
<time>2016-10-06T23:20:28Z</time></trkpt>
<trkpt lat="25.395611" lon="104.422615">
<time>2016-10-06T23:20:29Z</time></trkpt>
<trkpt lat="25.395341" lon="104.422655">
<time>2016-10-06T23:20:30Z</time></trkpt>
<trkpt lat="25.394941" lon="104.422695">
<time>2016-10-06T23:20:31Z</time></trkpt>
<trkpt lat="25.394571" lon="104.422675">
<time>2016-10-06T23:20:32Z</time></trkpt>
<trkpt lat="25.394441" lon="104.422695">
<time>2016-10-06T23:20:33Z</time></trkpt>
<trkpt lat="25.394341" lon="104.422746">
<time>2016-10-06T23:20:34Z</time></trkpt>
<trkpt lat="25.394251" lon="104.422756">
<time>2016-10-06T23:20:35Z</time></trkpt>
<trkpt lat="25.394171" lon="104.422716">
<time>2016-10-06T23:20:36Z</time></trkpt>
<trkpt lat="25.393891" lon="104.422495">
<time>2016-10-06T23:20:37Z</time></trkpt>
<trkpt lat="25.393721" lon="104.422335">
<time>2016-10-06T23:20:38Z</time></trkpt>
<trkpt lat="25.39345" lon="104.421915">
<time>2016-10-06T23:20:39Z</time></trkpt>
<trkpt lat="25.39327" lon="104.421645">
<time>2016-10-06T23:20:40Z</time></trkpt>
<trkpt lat="25.39322" lon="104.421555">
<time>2016-10-06T23:20:41Z</time></trkpt>
<trkpt lat="25.39316" lon="104.421305">
<time>2016-10-06T23:20:42Z</time></trkpt>
<trkpt lat="25.393049" lon="104.421045">
<time>2016-10-06T23:20:43Z</time></trkpt>
<trkpt lat="25.392999" lon="104.420975">
<time>2016-10-06T23:20:44Z</time></trkpt>
<trkpt lat="25.392769" lon="104.420815">
<time>2016-10-06T23:20:45Z</time></trkpt>
<trkpt lat="25.392409" lon="104.420635">
<time>2016-10-06T23:20:46Z</time></trkpt>
<trkpt lat="25.392139" lon="104.420464">
<time>2016-10-06T23:20:47Z</time></trkpt>
<trkpt lat="25.392059" lon="104.420414">
<time>2016-10-06T23:20:48Z</time></trkpt>
<trkpt lat="25.391999" lon="104.420344">
<time>2016-10-06T23:20:49Z</time></trkpt>
<trkpt lat="25.391999" lon="104.420254">
<time>2016-10-06T23:20:50Z</time></trkpt>
<trkpt lat="25.392048" lon="104.420194">
<time>2016-10-06T23:20:51Z</time></trkpt>
<trkpt lat="25.392188" lon="104.420104">
<time>2016-10-06T23:20:52Z</time></trkpt>
<trkpt lat="25.392258" lon="104.420054">
<time>2016-10-06T23:20:53Z</time></trkpt>
<trkpt lat="25.392338" lon="104.419974">
<time>2016-10-06T23:20:54Z</time></trkpt>
<trkpt lat="25.392398" lon="104.419884">
<time>2016-10-06T23:20:55Z</time></trkpt>
<trkpt lat="25.392448" lon="104.419784">
<time>2016-10-06T23:20:56Z</time></trkpt>
<trkpt lat="25.392458" lon="104.419674">
<time>2016-10-06T23:20:57Z</time></trkpt>
<trkpt lat="25.392408" lon="104.419584">
<time>2016-10-06T23:20:58Z</time></trkpt>
<trkpt lat="25.392348" lon="104.419504">
<time>2016-10-06T23:20:59Z</time></trkpt>
<trkpt lat="25.392198" lon="104.419374">
<time>2016-10-06T23:21:00Z</time></trkpt>
<trkpt lat="25.391908" lon="104.419184">
<time>2016-10-06T23:21:01Z</time></trkpt>
<trkpt lat="25.391807" lon="104.419144">
<time>2016-10-06T23:21:02Z</time></trkpt>
<trkpt lat="25.391717" lon="104.419134">
<time>2016-10-06T23:21:03Z</time></trkpt>
<trkpt lat="25.391517" lon="104.419154">
<time>2016-10-06T23:21:04Z</time></trkpt>
<trkpt lat="25.391417" lon="104.419204">
<time>2016-10-06T23:21:05Z</time></trkpt>
<trkpt lat="25.391258" lon="104.419334">
<time>2016-10-06T23:21:06Z</time></trkpt>
<trkpt lat="25.391178" lon="104.419384">
<time>2016-10-06T23:21:07Z</time></trkpt>
<trkpt lat="25.390998" lon="104.419454">
<time>2016-10-06T23:21:08Z</time></trkpt>
<trkpt lat="25.390798" lon="104.419444">
<time>2016-10-06T23:21:09Z</time></trkpt>
<trkpt lat="25.390728" lon="104.419434">
<time>2016-10-06T23:21:10Z</time></trkpt>
<trkpt lat="25.390618" lon="104.419444">
<time>2016-10-06T23:21:11Z</time></trkpt>
<trkpt lat="25.390387" lon="104.419434">
<time>2016-10-06T23:21:12Z</time></trkpt>
<trkpt lat="25.390307" lon="104.419464">
<time>2016-10-06T23:21:13Z</time></trkpt>
<trkpt lat="25.390128" lon="104.419564">
<time>2016-10-06T23:21:14Z</time></trkpt>
<trkpt lat="25.389938" lon="104.419764">
<time>2016-10-06T23:21:15Z</time></trkpt>
<trkpt lat="25.389808" lon="104.419884">
<time>2016-10-06T23:21:16Z</time></trkpt>
<trkpt lat="25.389758" lon="104.419924">
<time>2016-10-06T23:21:17Z</time></trkpt>
<trkpt lat="25.389658" lon="104.420024">
<time>2016-10-06T23:21:18Z</time></trkpt>
<trkpt lat="25.389528" lon="104.420164">
<time>2016-10-06T23:21:19Z</time></trkpt>
<trkpt lat="25.389468" lon="104.420184">
<time>2016-10-06T23:21:20Z</time></trkpt>
<trkpt lat="25.389358" lon="104.420305">
<time>2016-10-06T23:21:21Z</time></trkpt>
<trkpt lat="25.389108" lon="104.420405">
<time>2016-10-06T23:21:22Z</time></trkpt>
<trkpt lat="25.388968" lon="104.420435">
<time>2016-10-06T23:21:23Z</time></trkpt>
<trkpt lat="25.388778" lon="104.420335">
<time>2016-10-06T23:21:24Z</time></trkpt>
<trkpt lat="25.388518" lon="104.420235">
<time>2016-10-06T23:21:25Z</time></trkpt>
<trkpt lat="25.388458" lon="104.420175">
<time>2016-10-06T23:21:26Z</time></trkpt>
<trkpt lat="25.388408" lon="104.420104">
<time>2016-10-06T23:21:27Z</time></trkpt>
<trkpt lat="25.388398" lon="104.419934">
<time>2016-10-06T23:21:28Z</time></trkpt>
<trkpt lat="25.388407" lon="104.419744">
<time>2016-10-06T23:21:29Z</time></trkpt>
<trkpt lat="25.388437" lon="104.419664">
<time>2016-10-06T23:21:30Z</time></trkpt>
<trkpt lat="25.388477" lon="104.419624">
<time>2016-10-06T23:21:31Z</time></trkpt>
<trkpt lat="25.388607" lon="104.419554">
<time>2016-10-06T23:21:32Z</time></trkpt>
<trkpt lat="25.388877" lon="104.419314">
<time>2016-10-06T23:21:33Z</time></trkpt>
<trkpt lat="25.388927" lon="104.419194">
<time>2016-10-06T23:21:34Z</time></trkpt>
<trkpt lat="25.388937" lon="104.419104">
<time>2016-10-06T23:21:35Z</time></trkpt>
<trkpt lat="25.388937" lon="104.418874">
<time>2016-10-06T23:21:36Z</time></trkpt>
<trkpt lat="25.388917" lon="104.418754">
<time>2016-10-06T23:21:37Z</time></trkpt>
<trkpt lat="25.388816" lon="104.418574">
<time>2016-10-06T23:21:38Z</time></trkpt>
<trkpt lat="25.388696" lon="104.418474">
<time>2016-10-06T23:21:39Z</time></trkpt>
<trkpt lat="25.388506" lon="104.418424">
<time>2016-10-06T23:21:40Z</time></trkpt>
<trkpt lat="25.388366" lon="104.418384">
<time>2016-10-06T23:21:41Z</time></trkpt>
<trkpt lat="25.388256" lon="104.418284">
<time>2016-10-06T23:21:42Z</time></trkpt>
<trkpt lat="25.388156" lon="104.418224">
<time>2016-10-06T23:21:43Z</time></trkpt>
<trkpt lat="25.388036" lon="104.418154">
<time>2016-10-06T23:21:44Z</time></trkpt>
<trkpt lat="25.387936" lon="104.418104">
<time>2016-10-06T23:21:45Z</time></trkpt>
<trkpt lat="25.387826" lon="104.418064">
<time>2016-10-06T23:21:46Z</time></trkpt>
<trkpt lat="25.387726" lon="104.418044">
<time>2016-10-06T23:21:47Z</time></trkpt>
<trkpt lat="25.387306" lon="104.417874">
<time>2016-10-06T23:21:48Z</time></trkpt>
<trkpt lat="25.387236" lon="104.417824">
<time>2016-10-06T23:21:49Z</time></trkpt>
<trkpt lat="25.387125" lon="104.417694">
<time>2016-10-06T23:21:50Z</time></trkpt>
<trkpt lat="25.386975" lon="104.417414">
<time>2016-10-06T23:21:51Z</time></trkpt>
<trkpt lat="25.386915" lon="104.417344">
<time>2016-10-06T23:21:52Z</time></trkpt>
<trkpt lat="25.386825" lon="104.417294">
<time>2016-10-06T23:21:53Z</time></trkpt>
<trkpt lat="25.386565" lon="104.417264">
<time>2016-10-06T23:21:54Z</time></trkpt>
<trkpt lat="25.386235" lon="104.417194">
<time>2016-10-06T23:21:55Z</time></trkpt>
<trkpt lat="25.386155" lon="104.417174">
<time>2016-10-06T23:21:56Z</time></trkpt>
<trkpt lat="25.386075" lon="104.417134">
<time>2016-10-06T23:21:57Z</time></trkpt>
<trkpt lat="25.385774" lon="104.416743">
<time>2016-10-06T23:21:58Z</time></trkpt>
<trkpt lat="25.385574" lon="104.416543">
<time>2016-10-06T23:21:59Z</time></trkpt>
<trkpt lat="25.385324" lon="104.416393">
<time>2016-10-06T23:22:00Z</time></trkpt>
<trkpt lat="25.385244" lon="104.416303">
<time>2016-10-06T23:22:01Z</time></trkpt>
<trkpt lat="25.385124" lon="104.416093">
<time>2016-10-06T23:22:02Z</time></trkpt>
<trkpt lat="25.385054" lon="104.416013">
<time>2016-10-06T23:22:03Z</time></trkpt>
<trkpt lat="25.384964" lon="104.415943">
<time>2016-10-06T23:22:04Z</time></trkpt>
<trkpt lat="25.384864" lon="104.415893">
<time>2016-10-06T23:22:05Z</time></trkpt>
<trkpt lat="25.384644" lon="104.415863">
<time>2016-10-06T23:22:06Z</time></trkpt>
<trkpt lat="25.384434" lon="104.415863">
<time>2016-10-06T23:22:07Z</time></trkpt>
<trkpt lat="25.384324" lon="104.415883">
<time>2016-10-06T23:22:08Z</time></trkpt>
<trkpt lat="25.384274" lon="104.415883">
<time>2016-10-06T23:22:09Z</time></trkpt>
<trkpt lat="25.384174" lon="104.415903">
<time>2016-10-06T23:22:10Z</time></trkpt>
<trkpt lat="25.384104" lon="104.415923">
<time>2016-10-06T23:22:11Z</time></trkpt>
<trkpt lat="25.383914" lon="104.415993">
<time>2016-10-06T23:22:12Z</time></trkpt>
<trkpt lat="25.383814" lon="104.416003">
<time>2016-10-06T23:22:13Z</time></trkpt>
<trkpt lat="25.383714" lon="104.415983">
<time>2016-10-06T23:22:14Z</time></trkpt>
<trkpt lat="25.383634" lon="104.415923">
<time>2016-10-06T23:22:15Z</time></trkpt>
<trkpt lat="25.383443" lon="104.415643">
<time>2016-10-06T23:22:16Z</time></trkpt>
<trkpt lat="25.383273" lon="104.415393">
<time>2016-10-06T23:22:17Z</time></trkpt>
<trkpt lat="25.383203" lon="104.415313">
<time>2016-10-06T23:22:18Z</time></trkpt>
<trkpt lat="25.383113" lon="104.415263">
<time>2016-10-06T23:22:19Z</time></trkpt>
<trkpt lat="25.382723" lon="104.415273">
<time>2016-10-06T23:22:20Z</time></trkpt>
<trkpt lat="25.382513" lon="104.415243">
<time>2016-10-06T23:22:21Z</time></trkpt>
<trkpt lat="25.382313" lon="104.415193">
<time>2016-10-06T23:22:22Z</time></trkpt>
<trkpt lat="25.382243" lon="104.415073">
<time>2016-10-06T23:22:23Z</time></trkpt>
<trkpt lat="25.382243" lon="104.415003">
<time>2016-10-06T23:22:24Z</time></trkpt>
<trkpt lat="25.382283" lon="104.414933">
<time>2016-10-06T23:22:25Z</time></trkpt>
<trkpt lat="25.382363" lon="104.414903">
<time>2016-10-06T23:22:26Z</time></trkpt>
<trkpt lat="25.382443" lon="104.414883">
<time>2016-10-06T23:22:27Z</time></trkpt>
<trkpt lat="25.382693" lon="104.414863">
<time>2016-10-06T23:22:28Z</time></trkpt>
<trkpt lat="25.382773" lon="104.414823">
<time>2016-10-06T23:22:29Z</time></trkpt>
<trkpt lat="25.382833" lon="104.414743">
<time>2016-10-06T23:22:30Z</time></trkpt>
<trkpt lat="25.382862" lon="104.414503">
<time>2016-10-06T23:22:31Z</time></trkpt>
<trkpt lat="25.383182" lon="104.414093">
<time>2016-10-06T23:22:32Z</time></trkpt>
<trkpt lat="25.383212" lon="104.413953">
<time>2016-10-06T23:22:33Z</time></trkpt>
<trkpt lat="25.383112" lon="104.413683">
<time>2016-10-06T23:22:34Z</time></trkpt>
<trkpt lat="25.383042" lon="104.413373">
<time>2016-10-06T23:22:35Z</time></trkpt>
<trkpt lat="25.383012" lon="104.413293">
<time>2016-10-06T23:22:36Z</time></trkpt>
<trkpt lat="25.382972" lon="104.413243">
<time>2016-10-06T23:22:37Z</time></trkpt>
<trkpt lat="25.382922" lon="104.413213">
<time>2016-10-06T23:22:38Z</time></trkpt>
<trkpt lat="25.382872" lon="104.413223">
<time>2016-10-06T23:22:39Z</time></trkpt>
<trkpt lat="25.382792" lon="104.413343">
<time>2016-10-06T23:22:40Z</time></trkpt>
<trkpt lat="25.382772" lon="104.413413">
<time>2016-10-06T23:22:41Z</time></trkpt>
<trkpt lat="25.382802" lon="104.413603">
<time>2016-10-06T23:22:42Z</time></trkpt>
<trkpt lat="25.382802" lon="104.413703">
<time>2016-10-06T23:22:43Z</time></trkpt>
<trkpt lat="25.382772" lon="104.413803">
<time>2016-10-06T23:22:44Z</time></trkpt>
<trkpt lat="25.382632" lon="104.413973">
<time>2016-10-06T23:22:45Z</time></trkpt>
<trkpt lat="25.382552" lon="104.414023">
<time>2016-10-06T23:22:46Z</time></trkpt>
<trkpt lat="25.382362" lon="104.414083">
<time>2016-10-06T23:22:47Z</time></trkpt>
<trkpt lat="25.382282" lon="104.414063">
<time>2016-10-06T23:22:48Z</time></trkpt>
<trkpt lat="25.382182" lon="104.414103">
<time>2016-10-06T23:22:49Z</time></trkpt>
<trkpt lat="25.381992" lon="104.414133">
<time>2016-10-06T23:22:50Z</time></trkpt>
<trkpt lat="25.381712" lon="104.414243">
<time>2016-10-06T23:22:51Z</time></trkpt>
<trkpt lat="25.381622" lon="104.414263">
<time>2016-10-06T23:22:52Z</time></trkpt>
<trkpt lat="25.381432" lon="104.414253">
<time>2016-10-06T23:22:53Z</time></trkpt>
<trkpt lat="25.381282" lon="104.414303">
<time>2016-10-06T23:22:54Z</time></trkpt>
<trkpt lat="25.381132" lon="104.414383">
<time>2016-10-06T23:22:55Z</time></trkpt>
<trkpt lat="25.381042" lon="104.414393">
<time>2016-10-06T23:22:56Z</time></trkpt>
<trkpt lat="25.380922" lon="104.414463">
<time>2016-10-06T23:22:57Z</time></trkpt>
<trkpt lat="25.380632" lon="104.414573">
<time>2016-10-06T23:22:58Z</time></trkpt>
<trkpt lat="25.380552" lon="104.414613">
<time>2016-10-06T23:22:59Z</time></trkpt>
<trkpt lat="25.380512" lon="104.414743">
<time>2016-10-06T23:23:00Z</time></trkpt>
<trkpt lat="25.380542" lon="104.414913">
<time>2016-10-06T23:23:01Z</time></trkpt>
<trkpt lat="25.380542" lon="104.414993">
<time>2016-10-06T23:23:02Z</time></trkpt>
<trkpt lat="25.380572" lon="104.415073">
<time>2016-10-06T23:23:03Z</time></trkpt>
<trkpt lat="25.380593" lon="104.415203">
<time>2016-10-06T23:23:04Z</time></trkpt>
<trkpt lat="25.380563" lon="104.415373">
<time>2016-10-06T23:23:05Z</time></trkpt>
<trkpt lat="25.380483" lon="104.415493">
<time>2016-10-06T23:23:06Z</time></trkpt>
<trkpt lat="25.380283" lon="104.415553">
<time>2016-10-06T23:23:07Z</time></trkpt>
<trkpt lat="25.380193" lon="104.415523">
<time>2016-10-06T23:23:08Z</time></trkpt>
<trkpt lat="25.379882" lon="104.415203">
<time>2016-10-06T23:23:09Z</time></trkpt>
<trkpt lat="25.379712" lon="104.415023">
<time>2016-10-06T23:23:10Z</time></trkpt>
<trkpt lat="25.379472" lon="104.414703">
<time>2016-10-06T23:23:11Z</time></trkpt>
<trkpt lat="25.379272" lon="104.414423">
<time>2016-10-06T23:23:12Z</time></trkpt>
<trkpt lat="25.378911" lon="104.414093">
<time>2016-10-06T23:23:13Z</time></trkpt>
<trkpt lat="25.378871" lon="104.414013">
<time>2016-10-06T23:23:14Z</time></trkpt>
<trkpt lat="25.378841" lon="104.413903">
<time>2016-10-06T23:23:15Z</time></trkpt>
<trkpt lat="25.378831" lon="104.413813">
<time>2016-10-06T23:23:16Z</time></trkpt>
<trkpt lat="25.378801" lon="104.413593">
<time>2016-10-06T23:23:17Z</time></trkpt>
<trkpt lat="25.378741" lon="104.413383">
<time>2016-10-06T23:23:18Z</time></trkpt>
<trkpt lat="25.378681" lon="104.413203">
<time>2016-10-06T23:23:19Z</time></trkpt>
<trkpt lat="25.378661" lon="104.413123">
<time>2016-10-06T23:23:20Z</time></trkpt>
<trkpt lat="25.378591" lon="104.412973">
<time>2016-10-06T23:23:21Z</time></trkpt>
<trkpt lat="25.378531" lon="104.412913">
<time>2016-10-06T23:23:22Z</time></trkpt>
<trkpt lat="25.378391" lon="104.412883">
<time>2016-10-06T23:23:23Z</time></trkpt>
<trkpt lat="25.378231" lon="104.412863">
<time>2016-10-06T23:23:24Z</time></trkpt>
<trkpt lat="25.378141" lon="104.412853">
<time>2016-10-06T23:23:25Z</time></trkpt>
<trkpt lat="25.378081" lon="104.412833">
<time>2016-10-06T23:23:26Z</time></trkpt>
<trkpt lat="25.37798" lon="104.412713">
<time>2016-10-06T23:23:27Z</time></trkpt>
<trkpt lat="25.37793" lon="104.412563">
<time>2016-10-06T23:23:28Z</time></trkpt>
<trkpt lat="25.37788" lon="104.412473">
<time>2016-10-06T23:23:29Z</time></trkpt>
<trkpt lat="25.37784" lon="104.412353">
<time>2016-10-06T23:23:30Z</time></trkpt>
<trkpt lat="25.37778" lon="104.412283">
<time>2016-10-06T23:23:31Z</time></trkpt>
<trkpt lat="25.37768" lon="104.412203">
<time>2016-10-06T23:23:32Z</time></trkpt>
<trkpt lat="25.37759" lon="104.412233">
<time>2016-10-06T23:23:33Z</time></trkpt>
<trkpt lat="25.37743" lon="104.412243">
<time>2016-10-06T23:23:34Z</time></trkpt>
<trkpt lat="25.37736" lon="104.412233">
<time>2016-10-06T23:23:35Z</time></trkpt>
<trkpt lat="25.37727" lon="104.412233">
<time>2016-10-06T23:23:36Z</time></trkpt>
<trkpt lat="25.37708" lon="104.412213">
<time>2016-10-06T23:23:37Z</time></trkpt>
<trkpt lat="25.37699" lon="104.412193">
<time>2016-10-06T23:23:38Z</time></trkpt>
<trkpt lat="25.37691" lon="104.412143">
<time>2016-10-06T23:23:39Z</time></trkpt>
<trkpt lat="25.37686" lon="104.412083">
<time>2016-10-06T23:23:40Z</time></trkpt>
<trkpt lat="25.37676" lon="104.412023">
<time>2016-10-06T23:23:41Z</time></trkpt>
<trkpt lat="25.37649" lon="104.411683">
<time>2016-10-06T23:23:42Z</time></trkpt>
<trkpt lat="25.37632" lon="104.411483">
<time>2016-10-06T23:23:43Z</time></trkpt>
<trkpt lat="25.376199" lon="104.411373">
<time>2016-10-06T23:23:44Z</time></trkpt>
<trkpt lat="25.376119" lon="104.411333">
<time>2016-10-06T23:23:45Z</time></trkpt>
<trkpt lat="25.375929" lon="104.411303">
<time>2016-10-06T23:23:46Z</time></trkpt>
<trkpt lat="25.375709" lon="104.411223">
<time>2016-10-06T23:23:47Z</time></trkpt>
<trkpt lat="25.375569" lon="104.411213">
<time>2016-10-06T23:23:48Z</time></trkpt>
<trkpt lat="25.375509" lon="104.411203">
<time>2016-10-06T23:23:49Z</time></trkpt>
<trkpt lat="25.375389" lon="104.411203">
<time>2016-10-06T23:23:50Z</time></trkpt>
<trkpt lat="25.375299" lon="104.411183">
<time>2016-10-06T23:23:51Z</time></trkpt>
<trkpt lat="25.375149" lon="104.411093">
<time>2016-10-06T23:23:52Z</time></trkpt>
<trkpt lat="25.374989" lon="104.411013">
<time>2016-10-06T23:23:53Z</time></trkpt>
<trkpt lat="25.374839" lon="104.410973">
<time>2016-10-06T23:23:54Z</time></trkpt>
<trkpt lat="25.374589" lon="104.410833">
<time>2016-10-06T23:23:55Z</time></trkpt>
<trkpt lat="25.374439" lon="104.410653">
<time>2016-10-06T23:23:56Z</time></trkpt>
<trkpt lat="25.374359" lon="104.410503">
<time>2016-10-06T23:23:57Z</time></trkpt>
<trkpt lat="25.374059" lon="104.410223">
<time>2016-10-06T23:23:58Z</time></trkpt>
<trkpt lat="25.373959" lon="104.410153">
<time>2016-10-06T23:23:59Z</time></trkpt>
<trkpt lat="25.373899" lon="104.410133">
<time>2016-10-06T23:24:00Z</time></trkpt>
<trkpt lat="25.373748" lon="104.410143">
<time>2016-10-06T23:24:01Z</time></trkpt>
<trkpt lat="25.373578" lon="104.410183">
<time>2016-10-06T23:24:02Z</time></trkpt>
<trkpt lat="25.373408" lon="104.410243">
<time>2016-10-06T23:24:03Z</time></trkpt>
<trkpt lat="25.373218" lon="104.410203">
<time>2016-10-06T23:24:04Z</time></trkpt>
<trkpt lat="25.372808" lon="104.410073">
<time>2016-10-06T23:24:05Z</time></trkpt>
<trkpt lat="25.372728" lon="104.410083">
<time>2016-10-06T23:24:06Z</time></trkpt>
<trkpt lat="25.372518" lon="104.410153">
<time>2016-10-06T23:24:07Z</time></trkpt>
<trkpt lat="25.372378" lon="104.410313">
<time>2016-10-06T23:24:08Z</time></trkpt>
<trkpt lat="25.372288" lon="104.410373">
<time>2016-10-06T23:24:09Z</time></trkpt>
<trkpt lat="25.372208" lon="104.410393">
<time>2016-10-06T23:24:10Z</time></trkpt>
<trkpt lat="25.371988" lon="104.410293">
<time>2016-10-06T23:24:11Z</time></trkpt>
<trkpt lat="25.371808" lon="104.410173">
<time>2016-10-06T23:24:12Z</time></trkpt>
<trkpt lat="25.371718" lon="104.410093">
<time>2016-10-06T23:24:13Z</time></trkpt>
<trkpt lat="25.371508" lon="104.409983">
<time>2016-10-06T23:24:14Z</time></trkpt>
<trkpt lat="25.371398" lon="104.409943">
<time>2016-10-06T23:24:15Z</time></trkpt>
<trkpt lat="25.371168" lon="104.409913">
<time>2016-10-06T23:24:16Z</time></trkpt>
<trkpt lat="25.371048" lon="104.409913">
<time>2016-10-06T23:24:17Z</time></trkpt>
<trkpt lat="25.370818" lon="104.409973">
<time>2016-10-06T23:24:18Z</time></trkpt>
<trkpt lat="25.370728" lon="104.410023">
<time>2016-10-06T23:24:19Z</time></trkpt>
<trkpt lat="25.370598" lon="104.410023">
<time>2016-10-06T23:24:20Z</time></trkpt>
<trkpt lat="25.370428" lon="104.409933">
<time>2016-10-06T23:24:21Z</time></trkpt>
<trkpt lat="25.370388" lon="104.409853">
<time>2016-10-06T23:24:22Z</time></trkpt>
<trkpt lat="25.370308" lon="104.409763">
<time>2016-10-06T23:24:23Z</time></trkpt>
<trkpt lat="25.369988" lon="104.409633">
<time>2016-10-06T23:24:24Z</time></trkpt>
<trkpt lat="25.369698" lon="104.409583">
<time>2016-10-06T23:24:25Z</time></trkpt>
<trkpt lat="25.369558" lon="104.409613">
<time>2016-10-06T23:24:26Z</time></trkpt>
<trkpt lat="25.369438" lon="104.409643">
<time>2016-10-06T23:24:27Z</time></trkpt>
<trkpt lat="25.369378" lon="104.409673">
<time>2016-10-06T23:24:28Z</time></trkpt>
<trkpt lat="25.369318" lon="104.409723">
<time>2016-10-06T23:24:29Z</time></trkpt>
<trkpt lat="25.369078" lon="104.410023">
<time>2016-10-06T23:24:30Z</time></trkpt>
<trkpt lat="25.368938" lon="104.410133">
<time>2016-10-06T23:24:31Z</time></trkpt>
<trkpt lat="25.368828" lon="104.410183">
<time>2016-10-06T23:24:32Z</time></trkpt>
<trkpt lat="25.368718" lon="104.410303">
<time>2016-10-06T23:24:33Z</time></trkpt>
<trkpt lat="25.368488" lon="104.410483">
<time>2016-10-06T23:24:34Z</time></trkpt>
<trkpt lat="25.368378" lon="104.410583">
<time>2016-10-06T23:24:35Z</time></trkpt>
<trkpt lat="25.368308" lon="104.410703">
<time>2016-10-06T23:24:36Z</time></trkpt>
<trkpt lat="25.368268" lon="104.410853">
<time>2016-10-06T23:24:37Z</time></trkpt>
<trkpt lat="25.368248" lon="104.411073">
<time>2016-10-06T23:24:38Z</time></trkpt>
<trkpt lat="25.368198" lon="104.411183">
<time>2016-10-06T23:24:39Z</time></trkpt>
<trkpt lat="25.368128" lon="104.411253">
<time>2016-10-06T23:24:40Z</time></trkpt>
<trkpt lat="25.367908" lon="104.411393">
<time>2016-10-06T23:24:41Z</time></trkpt>
<trkpt lat="25.367438" lon="104.411753">
<time>2016-10-06T23:24:42Z</time></trkpt>
<trkpt lat="25.367268" lon="104.411813">
<time>2016-10-06T23:24:43Z</time></trkpt>
<trkpt lat="25.366918" lon="104.411843">
<time>2016-10-06T23:24:44Z</time></trkpt>
<trkpt lat="25.366808" lon="104.411913">
<time>2016-10-06T23:24:45Z</time></trkpt>
<trkpt lat="25.366688" lon="104.412034">
<time>2016-10-06T23:24:46Z</time></trkpt>
<trkpt lat="25.366528" lon="104.412234">
<time>2016-10-06T23:24:47Z</time></trkpt>
<trkpt lat="25.366488" lon="104.412274">
<time>2016-10-06T23:24:48Z</time></trkpt>
<trkpt lat="25.366448" lon="104.412264">
<time>2016-10-06T23:24:49Z</time></trkpt>
<trkpt lat="25.366428" lon="104.412214">
<time>2016-10-06T23:24:50Z</time></trkpt>
<trkpt lat="25.366418" lon="104.412134">
<time>2016-10-06T23:24:51Z</time></trkpt>
<trkpt lat="25.366478" lon="104.411914">
<time>2016-10-06T23:24:52Z</time></trkpt>
<trkpt lat="25.366678" lon="104.411403">
<time>2016-10-06T23:24:53Z</time></trkpt>
<trkpt lat="25.366728" lon="104.411293">
<time>2016-10-06T23:24:54Z</time></trkpt>
<trkpt lat="25.366768" lon="104.411193">
<time>2016-10-06T23:24:55Z</time></trkpt>
<trkpt lat="25.366858" lon="104.411063">
<time>2016-10-06T23:24:56Z</time></trkpt>
<trkpt lat="25.366948" lon="104.410833">
<time>2016-10-06T23:24:57Z</time></trkpt>
<trkpt lat="25.366998" lon="104.410603">
<time>2016-10-06T23:24:58Z</time></trkpt>
<trkpt lat="25.367108" lon="104.410294">
<time>2016-10-06T23:24:59Z</time></trkpt>
<trkpt lat="25.367187" lon="104.410064">
<time>2016-10-06T23:25:00Z</time></trkpt>
<trkpt lat="25.367207" lon="104.409914">
<time>2016-10-06T23:25:01Z</time></trkpt>
<trkpt lat="25.367227" lon="104.409704">
<time>2016-10-06T23:25:02Z</time></trkpt>
<trkpt lat="25.367227" lon="104.409514">
<time>2016-10-06T23:25:03Z</time></trkpt>
<trkpt lat="25.367177" lon="104.409374">
<time>2016-10-06T23:25:04Z</time></trkpt>
<trkpt lat="25.367077" lon="104.409314">
<time>2016-10-06T23:25:05Z</time></trkpt>
<trkpt lat="25.366987" lon="104.409264">
<time>2016-10-06T23:25:06Z</time></trkpt>
<trkpt lat="25.366817" lon="104.409194">
<time>2016-10-06T23:25:07Z</time></trkpt>
<trkpt lat="25.366737" lon="104.409144">
<time>2016-10-06T23:25:08Z</time></trkpt>
<trkpt lat="25.366487" lon="104.408804">
<time>2016-10-06T23:25:09Z</time></trkpt>
<trkpt lat="25.366287" lon="104.408514">
<time>2016-10-06T23:25:10Z</time></trkpt>
<trkpt lat="25.366067" lon="104.408164">
<time>2016-10-06T23:25:11Z</time></trkpt>
<trkpt lat="25.365836" lon="104.407864">
<time>2016-10-06T23:25:12Z</time></trkpt>
<trkpt lat="25.365656" lon="104.407664">
<time>2016-10-06T23:25:13Z</time></trkpt>
<trkpt lat="25.365586" lon="104.407604">
<time>2016-10-06T23:25:14Z</time></trkpt>
<trkpt lat="25.365286" lon="104.407434">
<time>2016-10-06T23:25:15Z</time></trkpt>
<trkpt lat="25.365126" lon="104.407354">
<time>2016-10-06T23:25:16Z</time></trkpt>
<trkpt lat="25.364906" lon="104.407224">
<time>2016-10-06T23:25:17Z</time></trkpt>
<trkpt lat="25.364826" lon="104.407134">
<time>2016-10-06T23:25:18Z</time></trkpt>
<trkpt lat="25.364786" lon="104.407004">
<time>2016-10-06T23:25:19Z</time></trkpt>
<trkpt lat="25.364726" lon="104.406754">
<time>2016-10-06T23:25:20Z</time></trkpt>
<trkpt lat="25.364686" lon="104.406624">
<time>2016-10-06T23:25:21Z</time></trkpt>
<trkpt lat="25.364516" lon="104.406254">
<time>2016-10-06T23:25:22Z</time></trkpt>
<trkpt lat="25.364406" lon="104.406024">
<time>2016-10-06T23:25:23Z</time></trkpt>
<trkpt lat="25.364346" lon="104.405934">
<time>2016-10-06T23:25:24Z</time></trkpt>
<trkpt lat="25.364296" lon="104.405884">
<time>2016-10-06T23:25:25Z</time></trkpt>
<trkpt lat="25.364055" lon="104.405784">
<time>2016-10-06T23:25:26Z</time></trkpt>
<trkpt lat="25.363935" lon="104.405794">
<time>2016-10-06T23:25:27Z</time></trkpt>
<trkpt lat="25.363795" lon="104.405814">
<time>2016-10-06T23:25:28Z</time></trkpt>
<trkpt lat="25.363595" lon="104.405894">
<time>2016-10-06T23:25:29Z</time></trkpt>
<trkpt lat="25.363475" lon="104.405914">
<time>2016-10-06T23:25:30Z</time></trkpt>
<trkpt lat="25.363305" lon="104.406004">
<time>2016-10-06T23:25:31Z</time></trkpt>
<trkpt lat="25.363205" lon="104.406034">
<time>2016-10-06T23:25:32Z</time></trkpt>
<trkpt lat="25.363125" lon="104.406084">
<time>2016-10-06T23:25:33Z</time></trkpt>
<trkpt lat="25.362995" lon="104.406104">
<time>2016-10-06T23:25:34Z</time></trkpt>
<trkpt lat="25.362655" lon="104.406144">
<time>2016-10-06T23:25:35Z</time></trkpt>
<trkpt lat="25.362165" lon="104.406124">
<time>2016-10-06T23:25:36Z</time></trkpt>
<trkpt lat="25.361945" lon="104.406084">
<time>2016-10-06T23:25:37Z</time></trkpt>
<trkpt lat="25.361625" lon="104.405964">
<time>2016-10-06T23:25:38Z</time></trkpt>
<trkpt lat="25.361315" lon="104.405924">
<time>2016-10-06T23:25:39Z</time></trkpt>
<trkpt lat="25.360875" lon="104.405784">
<time>2016-10-06T23:25:40Z</time></trkpt>
<trkpt lat="25.360535" lon="104.405715">
<time>2016-10-06T23:25:41Z</time></trkpt>
<trkpt lat="25.360125" lon="104.405545">
<time>2016-10-06T23:25:42Z</time></trkpt>
<trkpt lat="25.359705" lon="104.405295">
<time>2016-10-06T23:25:43Z</time></trkpt>
<trkpt lat="25.359585" lon="104.405245">
<time>2016-10-06T23:25:44Z</time></trkpt>
<trkpt lat="25.359485" lon="104.405235">
<time>2016-10-06T23:25:45Z</time></trkpt>
<trkpt lat="25.359405" lon="104.405245">
<time>2016-10-06T23:25:46Z</time></trkpt>
<trkpt lat="25.359315" lon="104.405415">
<time>2016-10-06T23:25:47Z</time></trkpt>
<trkpt lat="25.359335" lon="104.405505">
<time>2016-10-06T23:25:48Z</time></trkpt>
<trkpt lat="25.359405" lon="104.405585">
<time>2016-10-06T23:25:49Z</time></trkpt>
<trkpt lat="25.359495" lon="104.405635">
<time>2016-10-06T23:25:50Z</time></trkpt>
<trkpt lat="25.359725" lon="104.405725">
<time>2016-10-06T23:25:51Z</time></trkpt>
<trkpt lat="25.360025" lon="104.405964">
<time>2016-10-06T23:25:52Z</time></trkpt>
<trkpt lat="25.360375" lon="104.406184">
<time>2016-10-06T23:25:53Z</time></trkpt>
<trkpt lat="25.360605" lon="104.406294">
<time>2016-10-06T23:25:54Z</time></trkpt>
<trkpt lat="25.360835" lon="104.406434">
<time>2016-10-06T23:25:55Z</time></trkpt>
<trkpt lat="25.361075" lon="104.406534">
<time>2016-10-06T23:25:56Z</time></trkpt>
<trkpt lat="25.361185" lon="104.406594">
<time>2016-10-06T23:25:57Z</time></trkpt>
<trkpt lat="25.361305" lon="104.406644">
<time>2016-10-06T23:25:58Z</time></trkpt>
<trkpt lat="25.361385" lon="104.406724">
<time>2016-10-06T23:25:59Z</time></trkpt>
<trkpt lat="25.361435" lon="104.406854">
<time>2016-10-06T23:26:00Z</time></trkpt>
<trkpt lat="25.361445" lon="104.406964">
<time>2016-10-06T23:26:01Z</time></trkpt>
<trkpt lat="25.361385" lon="104.407054">
<time>2016-10-06T23:26:02Z</time></trkpt>
<trkpt lat="25.361275" lon="104.407104">
<time>2016-10-06T23:26:03Z</time></trkpt>
<trkpt lat="25.361135" lon="104.407154">
<time>2016-10-06T23:26:04Z</time></trkpt>
<trkpt lat="25.360945" lon="104.407184">
<time>2016-10-06T23:26:05Z</time></trkpt>
<trkpt lat="25.360695" lon="104.407254">
<time>2016-10-06T23:26:06Z</time></trkpt>
<trkpt lat="25.360345" lon="104.407334">
<time>2016-10-06T23:26:07Z</time></trkpt>
<trkpt lat="25.360155" lon="104.407394">
<time>2016-10-06T23:26:08Z</time></trkpt>
<trkpt lat="25.360055" lon="104.407434">
<time>2016-10-06T23:26:09Z</time></trkpt>
<trkpt lat="25.359865" lon="104.407594">
<time>2016-10-06T23:26:10Z</time></trkpt>
<trkpt lat="25.359715" lon="104.407774">
<time>2016-10-06T23:26:11Z</time></trkpt>
<trkpt lat="25.359555" lon="104.407894">
<time>2016-10-06T23:26:12Z</time></trkpt>
<trkpt lat="25.359365" lon="104.407944">
<time>2016-10-06T23:26:13Z</time></trkpt>
<trkpt lat="25.359235" lon="104.407974">
<time>2016-10-06T23:26:14Z</time></trkpt>
<trkpt lat="25.359105" lon="104.408014">
<time>2016-10-06T23:26:15Z</time></trkpt>
<trkpt lat="25.358965" lon="104.408114">
<time>2016-10-06T23:26:16Z</time></trkpt>
<trkpt lat="25.358876" lon="104.408284">
<time>2016-10-06T23:26:17Z</time></trkpt>
<trkpt lat="25.358816" lon="104.408334">
<time>2016-10-06T23:26:18Z</time></trkpt>
<trkpt lat="25.358636" lon="104.408384">
<time>2016-10-06T23:26:19Z</time></trkpt>
<trkpt lat="25.358305" lon="104.408364">
<time>2016-10-06T23:26:20Z</time></trkpt>
<trkpt lat="25.358115" lon="104.408354">
<time>2016-10-06T23:26:21Z</time></trkpt>
<trkpt lat="25.357835" lon="104.408344">
<time>2016-10-06T23:26:22Z</time></trkpt>
<trkpt lat="25.357605" lon="104.408264">
<time>2016-10-06T23:26:23Z</time></trkpt>
<trkpt lat="25.357545" lon="104.408204">
<time>2016-10-06T23:26:24Z</time></trkpt>
<trkpt lat="25.357515" lon="104.408114">
<time>2016-10-06T23:26:25Z</time></trkpt>
<trkpt lat="25.357505" lon="104.408024">
<time>2016-10-06T23:26:26Z</time></trkpt>
<trkpt lat="25.357525" lon="104.407924">
<time>2016-10-06T23:26:27Z</time></trkpt>
<trkpt lat="25.357595" lon="104.407844">
<time>2016-10-06T23:26:28Z</time></trkpt>
<trkpt lat="25.357685" lon="104.407784">
<time>2016-10-06T23:26:29Z</time></trkpt>
<trkpt lat="25.357745" lon="104.407684">
<time>2016-10-06T23:26:30Z</time></trkpt>
<trkpt lat="25.357785" lon="104.407584">
<time>2016-10-06T23:26:31Z</time></trkpt>
<trkpt lat="25.357805" lon="104.407494">
<time>2016-10-06T23:26:32Z</time></trkpt>
<trkpt lat="25.357785" lon="104.407394">
<time>2016-10-06T23:26:33Z</time></trkpt>
<trkpt lat="25.357715" lon="104.407304">
<time>2016-10-06T23:26:34Z</time></trkpt>
<trkpt lat="25.357465" lon="104.407214">
<time>2016-10-06T23:26:35Z</time></trkpt>
<trkpt lat="25.357115" lon="104.407034">
<time>2016-10-06T23:26:36Z</time></trkpt>
<trkpt lat="25.356915" lon="104.406934">
<time>2016-10-06T23:26:37Z</time></trkpt>
<trkpt lat="25.356705" lon="104.406844">
<time>2016-10-06T23:26:38Z</time></trkpt>
<trkpt lat="25.356505" lon="104.406814">
<time>2016-10-06T23:26:39Z</time></trkpt>
<trkpt lat="25.355975" lon="104.406804">
<time>2016-10-06T23:26:40Z</time></trkpt>
<trkpt lat="25.355755" lon="104.406734">
<time>2016-10-06T23:26:41Z</time></trkpt>
<trkpt lat="25.355655" lon="104.406664">
<time>2016-10-06T23:26:42Z</time></trkpt>
<trkpt lat="25.355575" lon="104.406604">
<time>2016-10-06T23:26:43Z</time></trkpt>
<trkpt lat="25.355504" lon="104.406594">
<time>2016-10-06T23:26:44Z</time></trkpt>
<trkpt lat="25.355414" lon="104.406564">
<time>2016-10-06T23:26:45Z</time></trkpt>
<trkpt lat="25.355254" lon="104.406505">
<time>2016-10-06T23:26:46Z</time></trkpt>
<trkpt lat="25.355034" lon="104.406465">
<time>2016-10-06T23:26:47Z</time></trkpt>
<trkpt lat="25.354974" lon="104.406365">
<time>2016-10-06T23:26:48Z</time></trkpt>
<trkpt lat="25.354964" lon="104.406205">
<time>2016-10-06T23:26:49Z</time></trkpt>
<trkpt lat="25.355034" lon="104.406085">
<time>2016-10-06T23:26:50Z</time></trkpt>
<trkpt lat="25.355384" lon="104.406115">
<time>2016-10-06T23:26:51Z</time></trkpt>
<trkpt lat="25.355494" lon="104.406125">
<time>2016-10-06T23:26:52Z</time></trkpt>
<trkpt lat="25.355764" lon="104.406155">
<time>2016-10-06T23:26:53Z</time></trkpt>
<trkpt lat="25.356124" lon="104.406205">
<time>2016-10-06T23:26:54Z</time></trkpt>
<trkpt lat="25.356224" lon="104.406185">
<time>2016-10-06T23:26:55Z</time></trkpt>
<trkpt lat="25.356284" lon="104.406135">
<time>2016-10-06T23:26:56Z</time></trkpt>
<trkpt lat="25.356294" lon="104.406015">
<time>2016-10-06T23:26:57Z</time></trkpt>
<trkpt lat="25.356244" lon="104.405915">
<time>2016-10-06T23:26:58Z</time></trkpt>
<trkpt lat="25.356064" lon="104.405735">
<time>2016-10-06T23:26:59Z</time></trkpt>
<trkpt lat="25.356004" lon="104.405615">
<time>2016-10-06T23:27:00Z</time></trkpt>
<trkpt lat="25.355684" lon="104.405185">
<time>2016-10-06T23:27:01Z</time></trkpt>
<trkpt lat="25.355614" lon="104.405125">
<time>2016-10-06T23:27:02Z</time></trkpt>
<trkpt lat="25.355294" lon="104.404945">
<time>2016-10-06T23:27:03Z</time></trkpt>
<trkpt lat="25.354844" lon="104.404755">
<time>2016-10-06T23:27:04Z</time></trkpt>
<trkpt lat="25.354554" lon="104.404665">
<time>2016-10-06T23:27:05Z</time></trkpt>
<trkpt lat="25.354214" lon="104.404505">
<time>2016-10-06T23:27:06Z</time></trkpt>
<trkpt lat="25.354044" lon="104.404465">
<time>2016-10-06T23:27:07Z</time></trkpt>
<trkpt lat="25.353874" lon="104.404365">
<time>2016-10-06T23:27:08Z</time></trkpt>
<trkpt lat="25.353704" lon="104.404205">
<time>2016-10-06T23:27:09Z</time></trkpt>
<trkpt lat="25.353624" lon="104.404095">
<time>2016-10-06T23:27:10Z</time></trkpt>
<trkpt lat="25.353494" lon="104.403835">
<time>2016-10-06T23:27:11Z</time></trkpt>
<trkpt lat="25.353444" lon="104.403685">
<time>2016-10-06T23:27:12Z</time></trkpt>
<trkpt lat="25.353363" lon="104.403366">
<time>2016-10-06T23:27:13Z</time></trkpt>
<trkpt lat="25.353333" lon="104.403016">
<time>2016-10-06T23:27:14Z</time></trkpt>
<trkpt lat="25.353353" lon="104.402826">
<time>2016-10-06T23:27:15Z</time></trkpt>
<trkpt lat="25.353363" lon="104.402556">
<time>2016-10-06T23:27:16Z</time></trkpt>
<trkpt lat="25.353303" lon="104.402406">
<time>2016-10-06T23:27:17Z</time></trkpt>
<trkpt lat="25.353253" lon="104.402246">
<time>2016-10-06T23:27:18Z</time></trkpt>
<trkpt lat="25.353203" lon="104.402106">
<time>2016-10-06T23:27:19Z</time></trkpt>
<trkpt lat="25.353123" lon="104.402006">
<time>2016-10-06T23:27:20Z</time></trkpt>
<trkpt lat="25.353023" lon="104.401936">
<time>2016-10-06T23:27:21Z</time></trkpt>
<trkpt lat="25.352893" lon="104.401906">
<time>2016-10-06T23:27:22Z</time></trkpt>
<trkpt lat="25.352743" lon="104.401886">
<time>2016-10-06T23:27:23Z</time></trkpt>
<trkpt lat="25.352233" lon="104.401906">
<time>2016-10-06T23:27:24Z</time></trkpt>
<trkpt lat="25.351883" lon="104.401916">
<time>2016-10-06T23:27:25Z</time></trkpt>
<trkpt lat="25.351543" lon="104.401866">
<time>2016-10-06T23:27:26Z</time></trkpt>
<trkpt lat="25.351373" lon="104.401836">
<time>2016-10-06T23:27:27Z</time></trkpt>
<trkpt lat="25.351273" lon="104.401756">
<time>2016-10-06T23:27:28Z</time></trkpt>
<trkpt lat="25.351163" lon="104.401696">
<time>2016-10-06T23:27:29Z</time></trkpt>
<trkpt lat="25.351013" lon="104.401586">
<time>2016-10-06T23:27:30Z</time></trkpt>
<trkpt lat="25.350783" lon="104.401496">
<time>2016-10-06T23:27:31Z</time></trkpt>
<trkpt lat="25.350683" lon="104.401436">
<time>2016-10-06T23:27:32Z</time></trkpt>
<trkpt lat="25.350613" lon="104.401357">
<time>2016-10-06T23:27:33Z</time></trkpt>
<trkpt lat="25.350583" lon="104.401257">
<time>2016-10-06T23:27:34Z</time></trkpt>
<trkpt lat="25.350573" lon="104.401137">
<time>2016-10-06T23:27:35Z</time></trkpt>
<trkpt lat="25.350593" lon="104.401017">
<time>2016-10-06T23:27:36Z</time></trkpt>
<trkpt lat="25.350683" lon="104.400857">
<time>2016-10-06T23:27:37Z</time></trkpt>
<trkpt lat="25.350733" lon="104.400717">
<time>2016-10-06T23:27:38Z</time></trkpt>
<trkpt lat="25.350713" lon="104.400617">
<time>2016-10-06T23:27:39Z</time></trkpt>
<trkpt lat="25.350683" lon="104.400557">
<time>2016-10-06T23:27:40Z</time></trkpt>
<trkpt lat="25.350603" lon="104.400507">
<time>2016-10-06T23:27:41Z</time></trkpt>
<trkpt lat="25.350513" lon="104.400487">
<time>2016-10-06T23:27:42Z</time></trkpt>
<trkpt lat="25.350383" lon="104.400497">
<time>2016-10-06T23:27:43Z</time></trkpt>
<trkpt lat="25.350273" lon="104.400507">
<time>2016-10-06T23:27:44Z</time></trkpt>
<trkpt lat="25.350203" lon="104.400517">
<time>2016-10-06T23:27:45Z</time></trkpt>
<trkpt lat="25.350153" lon="104.400537">
<time>2016-10-06T23:27:46Z</time></trkpt>
<trkpt lat="25.350063" lon="104.400547">
<time>2016-10-06T23:27:47Z</time></trkpt>
<trkpt lat="25.349873" lon="104.400637">
<time>2016-10-06T23:27:48Z</time></trkpt>
<trkpt lat="25.349783" lon="104.400707">
<time>2016-10-06T23:27:49Z</time></trkpt>
<trkpt lat="25.349713" lon="104.400787">
<time>2016-10-06T23:27:50Z</time></trkpt>
<trkpt lat="25.349653" lon="104.400897">
<time>2016-10-06T23:27:51Z</time></trkpt>
<trkpt lat="25.349623" lon="104.401017">
<time>2016-10-06T23:27:52Z</time></trkpt>
<trkpt lat="25.349613" lon="104.401137">
<time>2016-10-06T23:27:53Z</time></trkpt>
<trkpt lat="25.349633" lon="104.401277">
<time>2016-10-06T23:27:54Z</time></trkpt>
<trkpt lat="25.349663" lon="104.401387">
<time>2016-10-06T23:27:55Z</time></trkpt>
<trkpt lat="25.349693" lon="104.401556">
<time>2016-10-06T23:27:56Z</time></trkpt>
<trkpt lat="25.349733" lon="104.401656">
<time>2016-10-06T23:27:57Z</time></trkpt>
<trkpt lat="25.349863" lon="104.401906">
<time>2016-10-06T23:27:58Z</time></trkpt>
<trkpt lat="25.349963" lon="104.401966">
<time>2016-10-06T23:27:59Z</time></trkpt>
<trkpt lat="25.350083" lon="104.401976">
<time>2016-10-06T23:28:00Z</time></trkpt>
<trkpt lat="25.350343" lon="104.401976">
<time>2016-10-06T23:28:01Z</time></trkpt>
<trkpt lat="25.350473" lon="104.401956">
<time>2016-10-06T23:28:02Z</time></trkpt>
<trkpt lat="25.350783" lon="104.402056">
<time>2016-10-06T23:28:03Z</time></trkpt>
<trkpt lat="25.350973" lon="104.402216">
<time>2016-10-06T23:28:04Z</time></trkpt>
<trkpt lat="25.351283" lon="104.402366">
<time>2016-10-06T23:28:05Z</time></trkpt>
<trkpt lat="25.351523" lon="104.402446">
<time>2016-10-06T23:28:06Z</time></trkpt>
<trkpt lat="25.351723" lon="104.402586">
<time>2016-10-06T23:28:07Z</time></trkpt>
<trkpt lat="25.351913" lon="104.402896">
<time>2016-10-06T23:28:08Z</time></trkpt>
<trkpt lat="25.351993" lon="104.402986">
<time>2016-10-06T23:28:09Z</time></trkpt>
<trkpt lat="25.352093" lon="104.403166">
<time>2016-10-06T23:28:10Z</time></trkpt>
<trkpt lat="25.352183" lon="104.403276">
<time>2016-10-06T23:28:11Z</time></trkpt>
<trkpt lat="25.352303" lon="104.403436">
<time>2016-10-06T23:28:12Z</time></trkpt>
<trkpt lat="25.352353" lon="104.403586">
<time>2016-10-06T23:28:13Z</time></trkpt>
<trkpt lat="25.352313" lon="104.403695">
<time>2016-10-06T23:28:14Z</time></trkpt>
<trkpt lat="25.352243" lon="104.403725">
<time>2016-10-06T23:28:15Z</time></trkpt>
<trkpt lat="25.352183" lon="104.403745">
<time>2016-10-06T23:28:16Z</time></trkpt>
<trkpt lat="25.352083" lon="104.403705">
<time>2016-10-06T23:28:17Z</time></trkpt>
<trkpt lat="25.352003" lon="104.403606">
<time>2016-10-06T23:28:18Z</time></trkpt>
<trkpt lat="25.351913" lon="104.403416">
<time>2016-10-06T23:28:19Z</time></trkpt>
<trkpt lat="25.351823" lon="104.403246">
<time>2016-10-06T23:28:20Z</time></trkpt>
<trkpt lat="25.351773" lon="104.403166">
<time>2016-10-06T23:28:21Z</time></trkpt>
<trkpt lat="25.351653" lon="104.402996">
<time>2016-10-06T23:28:22Z</time></trkpt>
<trkpt lat="25.351533" lon="104.402866">
<time>2016-10-06T23:28:23Z</time></trkpt>
<trkpt lat="25.351373" lon="104.402726">
<time>2016-10-06T23:28:24Z</time></trkpt>
<trkpt lat="25.351293" lon="104.402686">
<time>2016-10-06T23:28:25Z</time></trkpt>
<trkpt lat="25.351093" lon="104.402646">
<time>2016-10-06T23:28:26Z</time></trkpt>
<trkpt lat="25.350983" lon="104.402596">
<time>2016-10-06T23:28:27Z</time></trkpt>
<trkpt lat="25.350883" lon="104.402506">
<time>2016-10-06T23:28:28Z</time></trkpt>
<trkpt lat="25.350793" lon="104.402476">
<time>2016-10-06T23:28:29Z</time></trkpt>
<trkpt lat="25.350543" lon="104.402436">
<time>2016-10-06T23:28:30Z</time></trkpt>
<trkpt lat="25.350263" lon="104.402436">
<time>2016-10-06T23:28:31Z</time></trkpt>
<trkpt lat="25.349833" lon="104.402466">
<time>2016-10-06T23:28:32Z</time></trkpt>
<trkpt lat="25.349433" lon="104.402496">
<time>2016-10-06T23:28:33Z</time></trkpt>
<trkpt lat="25.349343" lon="104.402496">
<time>2016-10-06T23:28:34Z</time></trkpt>
<trkpt lat="25.349233" lon="104.402446">
<time>2016-10-06T23:28:35Z</time></trkpt>
<trkpt lat="25.349163" lon="104.402406">
<time>2016-10-06T23:28:36Z</time></trkpt>
<trkpt lat="25.349063" lon="104.402336">
<time>2016-10-06T23:28:37Z</time></trkpt>
<trkpt lat="25.349003" lon="104.402256">
<time>2016-10-06T23:28:38Z</time></trkpt>
<trkpt lat="25.348943" lon="104.402126">
<time>2016-10-06T23:28:39Z</time></trkpt>
<trkpt lat="25.348903" lon="104.402046">
<time>2016-10-06T23:28:40Z</time></trkpt>
<trkpt lat="25.348803" lon="104.401896">
<time>2016-10-06T23:28:41Z</time></trkpt>
<trkpt lat="25.348703" lon="104.401796">
<time>2016-10-06T23:28:42Z</time></trkpt>
<trkpt lat="25.348603" lon="104.401626">
<time>2016-10-06T23:28:43Z</time></trkpt>
<trkpt lat="25.348543" lon="104.401527">
<time>2016-10-06T23:28:44Z</time></trkpt>
<trkpt lat="25.348493" lon="104.401437">
<time>2016-10-06T23:28:45Z</time></trkpt>
<trkpt lat="25.348433" lon="104.401277">
<time>2016-10-06T23:28:46Z</time></trkpt>
<trkpt lat="25.348293" lon="104.401167">
<time>2016-10-06T23:28:47Z</time></trkpt>
<trkpt lat="25.348183" lon="104.401137">
<time>2016-10-06T23:28:48Z</time></trkpt>
<trkpt lat="25.348083" lon="104.401147">
<time>2016-10-06T23:28:49Z</time></trkpt>
<trkpt lat="25.348033" lon="104.401167">
<time>2016-10-06T23:28:50Z</time></trkpt>
<trkpt lat="25.347963" lon="104.401227">
<time>2016-10-06T23:28:51Z</time></trkpt>
<trkpt lat="25.347843" lon="104.401257">
<time>2016-10-06T23:28:52Z</time></trkpt>
<trkpt lat="25.347763" lon="104.401267">
<time>2016-10-06T23:28:53Z</time></trkpt>
<trkpt lat="25.347292" lon="104.401157">
<time>2016-10-06T23:28:54Z</time></trkpt>
<trkpt lat="25.347242" lon="104.401007">
<time>2016-10-06T23:28:55Z</time></trkpt>
<trkpt lat="25.347222" lon="104.400857">
<time>2016-10-06T23:28:56Z</time></trkpt>
<trkpt lat="25.347232" lon="104.400747">
<time>2016-10-06T23:28:57Z</time></trkpt>
<trkpt lat="25.347272" lon="104.400617">
<time>2016-10-06T23:28:58Z</time></trkpt>
<trkpt lat="25.347312" lon="104.400577">
<time>2016-10-06T23:28:59Z</time></trkpt>
<trkpt lat="25.347392" lon="104.400547">
<time>2016-10-06T23:29:00Z</time></trkpt>
<trkpt lat="25.347462" lon="104.400537">
<time>2016-10-06T23:29:01Z</time></trkpt>
<trkpt lat="25.347552" lon="104.400507">
<time>2016-10-06T23:29:02Z</time></trkpt>
<trkpt lat="25.347632" lon="104.400447">
<time>2016-10-06T23:29:03Z</time></trkpt>
<trkpt lat="25.347952" lon="104.400157">
<time>2016-10-06T23:29:04Z</time></trkpt>
<trkpt lat="25.348263" lon="104.399927">
<time>2016-10-06T23:29:05Z</time></trkpt>
<trkpt lat="25.348383" lon="104.399757">
<time>2016-10-06T23:29:06Z</time></trkpt>
<trkpt lat="25.348443" lon="104.399717">
<time>2016-10-06T23:29:07Z</time></trkpt>
<trkpt lat="25.348493" lon="104.399648">
<time>2016-10-06T23:29:08Z</time></trkpt>
<trkpt lat="25.348573" lon="104.399528">
<time>2016-10-06T23:29:09Z</time></trkpt>
<trkpt lat="25.348603" lon="104.399408">
<time>2016-10-06T23:29:10Z</time></trkpt>
<trkpt lat="25.348653" lon="104.399218">
<time>2016-10-06T23:29:11Z</time></trkpt>
<trkpt lat="25.348743" lon="104.399018">
<time>2016-10-06T23:29:12Z</time></trkpt>
<trkpt lat="25.348863" lon="104.398868">
<time>2016-10-06T23:29:13Z</time></trkpt>
<trkpt lat="25.348953" lon="104.398688">
<time>2016-10-06T23:29:14Z</time></trkpt>
<trkpt lat="25.349153" lon="104.398398">
<time>2016-10-06T23:29:15Z</time></trkpt>
<trkpt lat="25.349293" lon="104.398228">
<time>2016-10-06T23:29:16Z</time></trkpt>
<trkpt lat="25.349383" lon="104.398058">
<time>2016-10-06T23:29:17Z</time></trkpt>
<trkpt lat="25.349443" lon="104.397879">
<time>2016-10-06T23:29:18Z</time></trkpt>
<trkpt lat="25.349513" lon="104.397729">
<time>2016-10-06T23:29:19Z</time></trkpt>
<trkpt lat="25.349593" lon="104.397589">
<time>2016-10-06T23:29:20Z</time></trkpt>
<trkpt lat="25.349633" lon="104.397509">
<time>2016-10-06T23:29:21Z</time></trkpt>
<trkpt lat="25.349663" lon="104.397439">
<time>2016-10-06T23:29:22Z</time></trkpt>
<trkpt lat="25.349673" lon="104.397349">
<time>2016-10-06T23:29:23Z</time></trkpt>
<trkpt lat="25.349683" lon="104.397269">
<time>2016-10-06T23:29:24Z</time></trkpt>
<trkpt lat="25.349683" lon="104.397219">
<time>2016-10-06T23:29:25Z</time></trkpt>
<trkpt lat="25.349683" lon="104.397139">
<time>2016-10-06T23:29:26Z</time></trkpt>
<trkpt lat="25.349683" lon="104.397129">
<time>2016-10-06T23:29:27Z</time></trkpt>
<trkpt lat="25.349683" lon="104.397109">
<time>2016-10-06T23:29:28Z</time></trkpt>
<trkpt lat="25.349673" lon="104.397089">
<time>2016-10-06T23:29:29Z</time></trkpt>
<trkpt lat="25.349653" lon="104.397069">
<time>2016-10-06T23:29:30Z</time></trkpt>
<trkpt lat="25.349543" lon="104.397049">
<time>2016-10-06T23:29:31Z</time></trkpt>
<trkpt lat="25.349493" lon="104.397049">
<time>2016-10-06T23:29:32Z</time></trkpt>
<trkpt lat="25.349213" lon="104.396979">
<time>2016-10-06T23:29:33Z</time></trkpt>
<trkpt lat="25.348783" lon="104.396909">
<time>2016-10-06T23:29:34Z</time></trkpt>
<trkpt lat="25.348683" lon="104.396889">
<time>2016-10-06T23:29:35Z</time></trkpt>
<trkpt lat="25.348573" lon="104.396889">
<time>2016-10-06T23:29:36Z</time></trkpt>
<trkpt lat="25.348203" lon="104.396939">
<time>2016-10-06T23:29:37Z</time></trkpt>
<trkpt lat="25.348073" lon="104.396989">
<time>2016-10-06T23:29:38Z</time></trkpt>
<trkpt lat="25.347913" lon="104.397009">
<time>2016-10-06T23:29:39Z</time></trkpt>
<trkpt lat="25.347683" lon="104.396989">
<time>2016-10-06T23:29:40Z</time></trkpt>
<trkpt lat="25.347413" lon="104.396909">
<time>2016-10-06T23:29:41Z</time></trkpt>
<trkpt lat="25.347323" lon="104.396919">
<time>2016-10-06T23:29:42Z</time></trkpt>
<trkpt lat="25.347173" lon="104.396999">
<time>2016-10-06T23:29:43Z</time></trkpt>
<trkpt lat="25.347113" lon="104.397059">
<time>2016-10-06T23:29:44Z</time></trkpt>
<trkpt lat="25.346882" lon="104.397429">
<time>2016-10-06T23:29:45Z</time></trkpt>
<trkpt lat="25.346842" lon="104.397529">
<time>2016-10-06T23:29:46Z</time></trkpt>
<trkpt lat="25.346762" lon="104.397729">
<time>2016-10-06T23:29:47Z</time></trkpt>
<trkpt lat="25.346622" lon="104.397949">
<time>2016-10-06T23:29:48Z</time></trkpt>
<trkpt lat="25.346532" lon="104.397949">
<time>2016-10-06T23:29:49Z</time></trkpt>
<trkpt lat="25.346472" lon="104.397929">
<time>2016-10-06T23:29:50Z</time></trkpt>
<trkpt lat="25.346442" lon="104.397869">
<time>2016-10-06T23:29:51Z</time></trkpt>
<trkpt lat="25.346452" lon="104.397669">
<time>2016-10-06T23:29:52Z</time></trkpt>
<trkpt lat="25.346522" lon="104.397389">
<time>2016-10-06T23:29:53Z</time></trkpt>
<trkpt lat="25.346512" lon="104.397299">
<time>2016-10-06T23:29:54Z</time></trkpt>
<trkpt lat="25.346462" lon="104.397169">
<time>2016-10-06T23:29:55Z</time></trkpt>
<trkpt lat="25.346342" lon="104.397049">
<time>2016-10-06T23:29:56Z</time></trkpt>
<trkpt lat="25.346252" lon="104.396989">
<time>2016-10-06T23:29:57Z</time></trkpt>
<trkpt lat="25.346112" lon="104.396959">
<time>2016-10-06T23:29:58Z</time></trkpt>
<trkpt lat="25.345882" lon="104.396829">
<time>2016-10-06T23:29:59Z</time></trkpt>
<trkpt lat="25.345782" lon="104.396759">
<time>2016-10-06T23:30:00Z</time></trkpt>
<trkpt lat="25.345752" lon="104.396729">
<time>2016-10-06T23:30:01Z</time></trkpt>
<trkpt lat="25.345682" lon="104.396699">
<time>2016-10-06T23:30:02Z</time></trkpt>
<trkpt lat="25.345582" lon="104.396679">
<time>2016-10-06T23:30:03Z</time></trkpt>
<trkpt lat="25.345492" lon="104.396699">
<time>2016-10-06T23:30:04Z</time></trkpt>
<trkpt lat="25.345212" lon="104.396779">
<time>2016-10-06T23:30:05Z</time></trkpt>
<trkpt lat="25.345102" lon="104.396789">
<time>2016-10-06T23:30:06Z</time></trkpt>
<trkpt lat="25.345012" lon="104.396749">
<time>2016-10-06T23:30:07Z</time></trkpt>
<trkpt lat="25.344912" lon="104.39662">
<time>2016-10-06T23:30:08Z</time></trkpt>
<trkpt lat="25.344882" lon="104.39649">
<time>2016-10-06T23:30:09Z</time></trkpt>
<trkpt lat="25.344872" lon="104.39631">
<time>2016-10-06T23:30:10Z</time></trkpt>
<trkpt lat="25.344902" lon="104.39624">
<time>2016-10-06T23:30:11Z</time></trkpt>
<trkpt lat="25.344902" lon="104.39624">
<time>2016-10-06T23:30:12Z</time></trkpt>
<trkpt lat="25.344892" lon="104.39617">
<time>2016-10-06T23:30:13Z</time></trkpt>
<trkpt lat="25.344842" lon="104.39614">
<time>2016-10-06T23:30:14Z</time></trkpt>
<trkpt lat="25.344782" lon="104.39613">
<time>2016-10-06T23:30:15Z</time></trkpt>
<trkpt lat="25.344702" lon="104.39612">
<time>2016-10-06T23:30:16Z</time></trkpt>
<trkpt lat="25.344532" lon="104.3961">
<time>2016-10-06T23:30:17Z</time></trkpt>
<trkpt lat="25.344362" lon="104.39611">
<time>2016-10-06T23:30:18Z</time></trkpt>
<trkpt lat="25.344222" lon="104.39618">
<time>2016-10-06T23:30:19Z</time></trkpt>
<trkpt lat="25.343952" lon="104.3966">
<time>2016-10-06T23:30:20Z</time></trkpt>
<trkpt lat="25.343702" lon="104.396989">
<time>2016-10-06T23:30:21Z</time></trkpt>
<trkpt lat="25.343642" lon="104.397089">
<time>2016-10-06T23:30:22Z</time></trkpt>
<trkpt lat="25.343522" lon="104.397479">
<time>2016-10-06T23:30:23Z</time></trkpt>
<trkpt lat="25.343402" lon="104.397649">
<time>2016-10-06T23:30:24Z</time></trkpt>
<trkpt lat="25.343292" lon="104.397729">
<time>2016-10-06T23:30:25Z</time></trkpt>
<trkpt lat="25.343002" lon="104.397779">
<time>2016-10-06T23:30:26Z</time></trkpt>
<trkpt lat="25.342692" lon="104.397869">
<time>2016-10-06T23:30:27Z</time></trkpt>
<trkpt lat="25.342602" lon="104.397909">
<time>2016-10-06T23:30:28Z</time></trkpt>
<trkpt lat="25.342522" lon="104.397919">
<time>2016-10-06T23:30:29Z</time></trkpt>
<trkpt lat="25.342402" lon="104.397869">
<time>2016-10-06T23:30:30Z</time></trkpt>
<trkpt lat="25.341992" lon="104.397589">
<time>2016-10-06T23:30:31Z</time></trkpt>
<trkpt lat="25.341782" lon="104.397259">
<time>2016-10-06T23:30:32Z</time></trkpt>
<trkpt lat="25.341752" lon="104.397179">
<time>2016-10-06T23:30:33Z</time></trkpt>
<trkpt lat="25.341742" lon="104.397099">
<time>2016-10-06T23:30:34Z</time></trkpt>
<trkpt lat="25.341762" lon="104.397029">
<time>2016-10-06T23:30:35Z</time></trkpt>
<trkpt lat="25.341972" lon="104.39648">
<time>2016-10-06T23:30:36Z</time></trkpt>
<trkpt lat="25.342062" lon="104.39616">
<time>2016-10-06T23:30:37Z</time></trkpt>
<trkpt lat="25.342082" lon="104.39604">
<time>2016-10-06T23:30:38Z</time></trkpt>
<trkpt lat="25.342072" lon="104.39577">
<time>2016-10-06T23:30:39Z</time></trkpt>
<trkpt lat="25.341962" lon="104.3956">
<time>2016-10-06T23:30:40Z</time></trkpt>
<trkpt lat="25.341792" lon="104.395411">
<time>2016-10-06T23:30:41Z</time></trkpt>
<trkpt lat="25.341782" lon="104.395341">
<time>2016-10-06T23:30:42Z</time></trkpt>
<trkpt lat="25.341802" lon="104.395261">
<time>2016-10-06T23:30:43Z</time></trkpt>
<trkpt lat="25.341942" lon="104.394981">
<time>2016-10-06T23:30:44Z</time></trkpt>
<trkpt lat="25.341942" lon="104.394901">
<time>2016-10-06T23:30:45Z</time></trkpt>
<trkpt lat="25.341912" lon="104.394831">
<time>2016-10-06T23:30:46Z</time></trkpt>
<trkpt lat="25.341872" lon="104.394811">
<time>2016-10-06T23:30:47Z</time></trkpt>
<trkpt lat="25.341872" lon="104.394811">
<time>2016-10-06T23:30:48Z</time></trkpt>
<trkpt lat="25.341852" lon="104.394791">
<time>2016-10-06T23:30:49Z</time></trkpt>
<trkpt lat="25.341782" lon="104.394801">
<time>2016-10-06T23:30:50Z</time></trkpt>
<trkpt lat="25.341472" lon="104.394871">
<time>2016-10-06T23:30:51Z</time></trkpt>
<trkpt lat="25.341292" lon="104.394921">
<time>2016-10-06T23:30:52Z</time></trkpt>
<trkpt lat="25.341212" lon="104.394971">
<time>2016-10-06T23:30:53Z</time></trkpt>
<trkpt lat="25.341032" lon="104.395181">
<time>2016-10-06T23:30:54Z</time></trkpt>
<trkpt lat="25.340992" lon="104.395271">
<time>2016-10-06T23:30:55Z</time></trkpt>
<trkpt lat="25.340912" lon="104.39556">
<time>2016-10-06T23:30:56Z</time></trkpt>
<trkpt lat="25.340902" lon="104.39566">
<time>2016-10-06T23:30:57Z</time></trkpt>
<trkpt lat="25.340892" lon="104.39577">
<time>2016-10-06T23:30:58Z</time></trkpt>
<trkpt lat="25.340882" lon="104.39587">
<time>2016-10-06T23:30:59Z</time></trkpt>
<trkpt lat="25.340802" lon="104.39605">
<time>2016-10-06T23:31:00Z</time></trkpt>
<trkpt lat="25.340742" lon="104.39612">
<time>2016-10-06T23:31:01Z</time></trkpt>
<trkpt lat="25.340672" lon="104.39617">
<time>2016-10-06T23:31:02Z</time></trkpt>
<trkpt lat="25.340172" lon="104.39626">
<time>2016-10-06T23:31:03Z</time></trkpt>
<trkpt lat="25.340082" lon="104.39626">
<time>2016-10-06T23:31:04Z</time></trkpt>
<trkpt lat="25.340012" lon="104.39623">
<time>2016-10-06T23:31:05Z</time></trkpt>
<trkpt lat="25.339722" lon="104.39601">
<time>2016-10-06T23:31:06Z</time></trkpt>
<trkpt lat="25.339542" lon="104.39585">
<time>2016-10-06T23:31:07Z</time></trkpt>
<trkpt lat="25.339482" lon="104.39582">
<time>2016-10-06T23:31:08Z</time></trkpt>
<trkpt lat="25.339322" lon="104.39575">
<time>2016-10-06T23:31:09Z</time></trkpt>
<trkpt lat="25.339212" lon="104.39576">
<time>2016-10-06T23:31:10Z</time></trkpt>
<trkpt lat="25.339072" lon="104.39577">
<time>2016-10-06T23:31:11Z</time></trkpt>
<trkpt lat="25.338842" lon="104.39578">
<time>2016-10-06T23:31:12Z</time></trkpt>
<trkpt lat="25.338622" lon="104.39587">
<time>2016-10-06T23:31:13Z</time></trkpt>
<trkpt lat="25.338502" lon="104.39598">
<time>2016-10-06T23:31:14Z</time></trkpt>
<trkpt lat="25.338382" lon="104.39605">
<time>2016-10-06T23:31:15Z</time></trkpt>
<trkpt lat="25.338262" lon="104.3961">
<time>2016-10-06T23:31:16Z</time></trkpt>
<trkpt lat="25.338212" lon="104.39613">
<time>2016-10-06T23:31:17Z</time></trkpt>
<trkpt lat="25.338132" lon="104.39617">
<time>2016-10-06T23:31:18Z</time></trkpt>
<trkpt lat="25.338062" lon="104.39619">
<time>2016-10-06T23:31:19Z</time></trkpt>
<trkpt lat="25.337992" lon="104.39619">
<time>2016-10-06T23:31:20Z</time></trkpt>
<trkpt lat="25.337932" lon="104.39621">
<time>2016-10-06T23:31:21Z</time></trkpt>
<trkpt lat="25.337792" lon="104.39622">
<time>2016-10-06T23:31:22Z</time></trkpt>
<trkpt lat="25.337712" lon="104.39622">
<time>2016-10-06T23:31:23Z</time></trkpt>
<trkpt lat="25.337522" lon="104.39622">
<time>2016-10-06T23:31:24Z</time></trkpt>
<trkpt lat="25.337382" lon="104.39621">
<time>2016-10-06T23:31:25Z</time></trkpt>
<trkpt lat="25.337312" lon="104.39621">
<time>2016-10-06T23:31:26Z</time></trkpt>
<trkpt lat="25.337271" lon="104.39621">
<time>2016-10-06T23:31:27Z</time></trkpt>
<trkpt lat="25.337191" lon="104.39616">
<time>2016-10-06T23:31:28Z</time></trkpt>
<trkpt lat="25.337032" lon="104.39602">
<time>2016-10-06T23:31:29Z</time></trkpt>
<trkpt lat="25.336901" lon="104.39597">
<time>2016-10-06T23:31:30Z</time></trkpt>
<trkpt lat="25.336751" lon="104.39597">
<time>2016-10-06T23:31:31Z</time></trkpt>
<trkpt lat="25.336551" lon="104.39597">
<time>2016-10-06T23:31:32Z</time></trkpt>
<trkpt lat="25.336241" lon="104.39595">
<time>2016-10-06T23:31:33Z</time></trkpt>
<trkpt lat="25.336011" lon="104.39591">
<time>2016-10-06T23:31:34Z</time></trkpt>
<trkpt lat="25.335861" lon="104.39586">
<time>2016-10-06T23:31:35Z</time></trkpt>
<trkpt lat="25.335481" lon="104.395661">
<time>2016-10-06T23:31:36Z</time></trkpt>
<trkpt lat="25.335201" lon="104.395521">
<time>2016-10-06T23:31:37Z</time></trkpt>
<trkpt lat="25.335101" lon="104.395471">
<time>2016-10-06T23:31:38Z</time></trkpt>
<trkpt lat="25.335011" lon="104.395471">
<time>2016-10-06T23:31:39Z</time></trkpt>
<trkpt lat="25.334941" lon="104.395471">
<time>2016-10-06T23:31:40Z</time></trkpt>
<trkpt lat="25.334891" lon="104.395521">
<time>2016-10-06T23:31:41Z</time></trkpt>
<trkpt lat="25.334861" lon="104.395581">
<time>2016-10-06T23:31:42Z</time></trkpt>
<trkpt lat="25.334841" lon="104.395661">
<time>2016-10-06T23:31:43Z</time></trkpt>
<trkpt lat="25.334821" lon="104.395751">
<time>2016-10-06T23:31:44Z</time></trkpt>
<trkpt lat="25.334801" lon="104.395801">
<time>2016-10-06T23:31:45Z</time></trkpt>
<trkpt lat="25.334611" lon="104.39597">
<time>2016-10-06T23:31:46Z</time></trkpt>
<trkpt lat="25.334381" lon="104.39606">
<time>2016-10-06T23:31:47Z</time></trkpt>
<trkpt lat="25.334031" lon="104.39619">
<time>2016-10-06T23:31:48Z</time></trkpt>
<trkpt lat="25.333951" lon="104.39623">
<time>2016-10-06T23:31:49Z</time></trkpt>
<trkpt lat="25.333821" lon="104.39635">
<time>2016-10-06T23:31:50Z</time></trkpt>
<trkpt lat="25.333751" lon="104.39649">
<time>2016-10-06T23:31:51Z</time></trkpt>
<trkpt lat="25.333651" lon="104.39673">
<time>2016-10-06T23:31:52Z</time></trkpt>
<trkpt lat="25.333621" lon="104.39681">
<time>2016-10-06T23:31:53Z</time></trkpt>
<trkpt lat="25.333601" lon="104.39698">
<time>2016-10-06T23:31:54Z</time></trkpt>
<trkpt lat="25.333501" lon="104.39715">
<time>2016-10-06T23:31:55Z</time></trkpt>
<trkpt lat="25.333441" lon="104.39721">
<time>2016-10-06T23:31:56Z</time></trkpt>
<trkpt lat="25.333341" lon="104.39726">
<time>2016-10-06T23:31:57Z</time></trkpt>
<trkpt lat="25.333291" lon="104.39728">
<time>2016-10-06T23:31:58Z</time></trkpt>
<trkpt lat="25.332981" lon="104.39738">
<time>2016-10-06T23:31:59Z</time></trkpt>
<trkpt lat="25.332861" lon="104.397439">
<time>2016-10-06T23:32:00Z</time></trkpt>
<trkpt lat="25.332811" lon="104.397499">
<time>2016-10-06T23:32:01Z</time></trkpt>
<trkpt lat="25.332761" lon="104.397569">
<time>2016-10-06T23:32:02Z</time></trkpt>
<trkpt lat="25.332621" lon="104.397649">
<time>2016-10-06T23:32:03Z</time></trkpt>
<trkpt lat="25.332571" lon="104.397689">
<time>2016-10-06T23:32:04Z</time></trkpt>
<trkpt lat="25.332541" lon="104.397739">
<time>2016-10-06T23:32:05Z</time></trkpt>
<trkpt lat="25.332471" lon="104.397779">
<time>2016-10-06T23:32:06Z</time></trkpt>
<trkpt lat="25.332421" lon="104.397819">
<time>2016-10-06T23:32:07Z</time></trkpt>
<trkpt lat="25.332291" lon="104.397859">
<time>2016-10-06T23:32:08Z</time></trkpt>
<trkpt lat="25.332151" lon="104.397869">
<time>2016-10-06T23:32:09Z</time></trkpt>
<trkpt lat="25.332021" lon="104.397889">
<time>2016-10-06T23:32:10Z</time></trkpt>
<trkpt lat="25.331941" lon="104.397939">
<time>2016-10-06T23:32:11Z</time></trkpt>
<trkpt lat="25.331891" lon="104.397989">
<time>2016-10-06T23:32:12Z</time></trkpt>
<trkpt lat="25.331821" lon="104.398029">
<time>2016-10-06T23:32:13Z</time></trkpt>
<trkpt lat="25.331571" lon="104.398159">
<time>2016-10-06T23:32:14Z</time></trkpt>
<trkpt lat="25.331481" lon="104.398209">
<time>2016-10-06T23:32:15Z</time></trkpt>
<trkpt lat="25.331251" lon="104.398269">
<time>2016-10-06T23:32:16Z</time></trkpt>
<trkpt lat="25.331121" lon="104.398349">
<time>2016-10-06T23:32:17Z</time></trkpt>
<trkpt lat="25.330971" lon="104.398449">
<time>2016-10-06T23:32:18Z</time></trkpt>
<trkpt lat="25.330611" lon="104.398649">
<time>2016-10-06T23:32:19Z</time></trkpt>
<trkpt lat="25.3304" lon="104.398849">
<time>2016-10-06T23:32:20Z</time></trkpt>
<trkpt lat="25.33017" lon="104.398959">
<time>2016-10-06T23:32:21Z</time></trkpt>
<trkpt lat="25.33001" lon="104.398979">
<time>2016-10-06T23:32:22Z</time></trkpt>
<trkpt lat="25.32976" lon="104.398989">
<time>2016-10-06T23:32:23Z</time></trkpt>
<trkpt lat="25.32964" lon="104.398989">
<time>2016-10-06T23:32:24Z</time></trkpt>
<trkpt lat="25.32957" lon="104.398989">
<time>2016-10-06T23:32:25Z</time></trkpt>
<trkpt lat="25.32949" lon="104.398979">
<time>2016-10-06T23:32:26Z</time></trkpt>
<trkpt lat="25.3294" lon="104.398979">
<time>2016-10-06T23:32:27Z</time></trkpt>
<trkpt lat="25.3293" lon="104.398969">
<time>2016-10-06T23:32:28Z</time></trkpt>
<trkpt lat="25.32925" lon="104.398969">
<time>2016-10-06T23:32:29Z</time></trkpt>
<trkpt lat="25.32916" lon="104.398949">
<time>2016-10-06T23:32:30Z</time></trkpt>
<trkpt lat="25.32905" lon="104.398929">
<time>2016-10-06T23:32:31Z</time></trkpt>
<trkpt lat="25.3289" lon="104.398859">
<time>2016-10-06T23:32:32Z</time></trkpt>
<trkpt lat="25.32879" lon="104.398819">
<time>2016-10-06T23:32:33Z</time></trkpt>
<trkpt lat="25.32861" lon="104.398789">
<time>2016-10-06T23:32:34Z</time></trkpt>
<trkpt lat="25.3285" lon="104.398769">
<time>2016-10-06T23:32:35Z</time></trkpt>
<trkpt lat="25.3284" lon="104.398739">
<time>2016-10-06T23:32:36Z</time></trkpt>
<trkpt lat="25.32823" lon="104.398699">
<time>2016-10-06T23:32:37Z</time></trkpt>
<trkpt lat="25.32817" lon="104.398629">
<time>2016-10-06T23:32:38Z</time></trkpt>
<trkpt lat="25.32813" lon="104.398569">
<time>2016-10-06T23:32:39Z</time></trkpt>
<trkpt lat="25.3281" lon="104.398529">
<time>2016-10-06T23:32:40Z</time></trkpt>
<trkpt lat="25.32806" lon="104.398469">
<time>2016-10-06T23:32:41Z</time></trkpt>
<trkpt lat="25.32803" lon="104.398389">
<time>2016-10-06T23:32:42Z</time></trkpt>
<trkpt lat="25.32799" lon="104.398299">
<time>2016-10-06T23:32:43Z</time></trkpt>
<trkpt lat="25.32793" lon="104.398239">
<time>2016-10-06T23:32:44Z</time></trkpt>
<trkpt lat="25.32781" lon="104.398229">
<time>2016-10-06T23:32:45Z</time></trkpt>
<trkpt lat="25.32771" lon="104.398239">
<time>2016-10-06T23:32:46Z</time></trkpt>
<trkpt lat="25.32761" lon="104.398279">
<time>2016-10-06T23:32:47Z</time></trkpt>
<trkpt lat="25.32737" lon="104.398389">
<time>2016-10-06T23:32:48Z</time></trkpt>
<trkpt lat="25.32693" lon="104.398569">
<time>2016-10-06T23:32:49Z</time></trkpt>
<trkpt lat="25.32679" lon="104.398649">
<time>2016-10-06T23:32:50Z</time></trkpt>
<trkpt lat="25.32658" lon="104.398749">
<time>2016-10-06T23:32:51Z</time></trkpt>
<trkpt lat="25.32639" lon="104.398799">
<time>2016-10-06T23:32:52Z</time></trkpt>
<trkpt lat="25.32634" lon="104.398809">
<time>2016-10-06T23:32:53Z</time></trkpt>
<trkpt lat="25.32621" lon="104.398769">
<time>2016-10-06T23:32:54Z</time></trkpt>
<trkpt lat="25.32589" lon="104.398559">
<time>2016-10-06T23:32:55Z</time></trkpt>
<trkpt lat="25.32574" lon="104.398489">
<time>2016-10-06T23:32:56Z</time></trkpt>
<trkpt lat="25.32541" lon="104.398369">
<time>2016-10-06T23:32:57Z</time></trkpt>
<trkpt lat="25.32528" lon="104.398339">
<time>2016-10-06T23:32:58Z</time></trkpt>
<trkpt lat="25.32517" lon="104.398359">
<time>2016-10-06T23:32:59Z</time></trkpt>
<trkpt lat="25.325" lon="104.398459">
<time>2016-10-06T23:33:00Z</time></trkpt>
<trkpt lat="25.32485" lon="104.398519">
<time>2016-10-06T23:33:01Z</time></trkpt>
<trkpt lat="25.32467" lon="104.398569">
<time>2016-10-06T23:33:02Z</time></trkpt>
<trkpt lat="25.32439" lon="104.398579">
<time>2016-10-06T23:33:03Z</time></trkpt>
<trkpt lat="25.32423" lon="104.398549">
<time>2016-10-06T23:33:04Z</time></trkpt>
<trkpt lat="25.3241" lon="104.398499">
<time>2016-10-06T23:33:05Z</time></trkpt>
<trkpt lat="25.32395" lon="104.398349">
<time>2016-10-06T23:33:06Z</time></trkpt>
<trkpt lat="25.32387" lon="104.398199">
<time>2016-10-06T23:33:07Z</time></trkpt>
<trkpt lat="25.3237" lon="104.39783">
<time>2016-10-06T23:33:08Z</time></trkpt>
<trkpt lat="25.3236" lon="104.39762">
<time>2016-10-06T23:33:09Z</time></trkpt>
<trkpt lat="25.32349" lon="104.39745">
<time>2016-10-06T23:33:10Z</time></trkpt>
<trkpt lat="25.32339" lon="104.39734">
<time>2016-10-06T23:33:11Z</time></trkpt>
<trkpt lat="25.32327" lon="104.39734">
<time>2016-10-06T23:33:12Z</time></trkpt>
<trkpt lat="25.32318" lon="104.39735">
<time>2016-10-06T23:33:13Z</time></trkpt>
<trkpt lat="25.3231" lon="104.39735">
<time>2016-10-06T23:33:14Z</time></trkpt>
<trkpt lat="25.32299" lon="104.39732">
<time>2016-10-06T23:33:15Z</time></trkpt>
<trkpt lat="25.32291" lon="104.39726">
<time>2016-10-06T23:33:16Z</time></trkpt>
<trkpt lat="25.32285" lon="104.39722">
<time>2016-10-06T23:33:17Z</time></trkpt>
<trkpt lat="25.32276" lon="104.3972">
<time>2016-10-06T23:33:18Z</time></trkpt>
<trkpt lat="25.32259" lon="104.3972">
<time>2016-10-06T23:33:19Z</time></trkpt>
<trkpt lat="25.32245" lon="104.39718">
<time>2016-10-06T23:33:20Z</time></trkpt>
<trkpt lat="25.32233" lon="104.39718">
<time>2016-10-06T23:33:21Z</time></trkpt>
<trkpt lat="25.32216" lon="104.39725">
<time>2016-10-06T23:33:22Z</time></trkpt>
<trkpt lat="25.32182" lon="104.39753">
<time>2016-10-06T23:33:23Z</time></trkpt>
<trkpt lat="25.32176" lon="104.39757">
<time>2016-10-06T23:33:24Z</time></trkpt>
<trkpt lat="25.32171" lon="104.39763">
<time>2016-10-06T23:33:25Z</time></trkpt>
<trkpt lat="25.32154" lon="104.39774">
<time>2016-10-06T23:33:26Z</time></trkpt>
<trkpt lat="25.32144" lon="104.39784">
<time>2016-10-06T23:33:27Z</time></trkpt>
<trkpt lat="25.32129" lon="104.39803">
<time>2016-10-06T23:33:28Z</time></trkpt>
<trkpt lat="25.32123" lon="104.3981">
<time>2016-10-06T23:33:29Z</time></trkpt>
<trkpt lat="25.32106" lon="104.398219">
<time>2016-10-06T23:33:30Z</time></trkpt>
<trkpt lat="25.32091" lon="104.398219">
<time>2016-10-06T23:33:31Z</time></trkpt>
<trkpt lat="25.32075" lon="104.398199">
<time>2016-10-06T23:33:32Z</time></trkpt>
<trkpt lat="25.32057" lon="104.398229">
<time>2016-10-06T23:33:33Z</time></trkpt>
<trkpt lat="25.32054" lon="104.398249">
<time>2016-10-06T23:33:34Z</time></trkpt>
<trkpt lat="25.32051" lon="104.398289">
<time>2016-10-06T23:33:35Z</time></trkpt>
<trkpt lat="25.32043" lon="104.398639">
<time>2016-10-06T23:33:36Z</time></trkpt>
<trkpt lat="25.320229" lon="104.399049">
<time>2016-10-06T23:33:37Z</time></trkpt>
<trkpt lat="25.320159" lon="104.399139">
<time>2016-10-06T23:33:38Z</time></trkpt>
<trkpt lat="25.320099" lon="104.399159">
<time>2016-10-06T23:33:39Z</time></trkpt>
<trkpt lat="25.319989" lon="104.399239">
<time>2016-10-06T23:33:40Z</time></trkpt>
<trkpt lat="25.319889" lon="104.399279">
<time>2016-10-06T23:33:41Z</time></trkpt>
<trkpt lat="25.319779" lon="104.399279">
<time>2016-10-06T23:33:42Z</time></trkpt>
<trkpt lat="25.319619" lon="104.399239">
<time>2016-10-06T23:33:43Z</time></trkpt>
<trkpt lat="25.319439" lon="104.399179">
<time>2016-10-06T23:33:44Z</time></trkpt>
<trkpt lat="25.319239" lon="104.399229">
<time>2016-10-06T23:33:45Z</time></trkpt>
<trkpt lat="25.319029" lon="104.399279">
<time>2016-10-06T23:33:46Z</time></trkpt>
<trkpt lat="25.318849" lon="104.399289">
<time>2016-10-06T23:33:47Z</time></trkpt>
<trkpt lat="25.318639" lon="104.399279">
<time>2016-10-06T23:33:48Z</time></trkpt>
<trkpt lat="25.318549" lon="104.399249">
<time>2016-10-06T23:33:49Z</time></trkpt>
<trkpt lat="25.318469" lon="104.399209">
<time>2016-10-06T23:33:50Z</time></trkpt>
<trkpt lat="25.318379" lon="104.399129">
<time>2016-10-06T23:33:51Z</time></trkpt>
<trkpt lat="25.318229" lon="104.399059">
<time>2016-10-06T23:33:52Z</time></trkpt>
<trkpt lat="25.318169" lon="104.399059">
<time>2016-10-06T23:33:53Z</time></trkpt>
<trkpt lat="25.318109" lon="104.399079">
<time>2016-10-06T23:33:54Z</time></trkpt>
<trkpt lat="25.317929" lon="104.399209">
<time>2016-10-06T23:33:55Z</time></trkpt>
<trkpt lat="25.317799" lon="104.399259">
<time>2016-10-06T23:33:56Z</time></trkpt>
<trkpt lat="25.317749" lon="104.399289">
<time>2016-10-06T23:33:57Z</time></trkpt>
<trkpt lat="25.317659" lon="104.399409">
<time>2016-10-06T23:33:58Z</time></trkpt>
<trkpt lat="25.317549" lon="104.399599">
<time>2016-10-06T23:33:59Z</time></trkpt>
<trkpt lat="25.317509" lon="104.399659">
<time>2016-10-06T23:34:00Z</time></trkpt>
<trkpt lat="25.317369" lon="104.399769">
<time>2016-10-06T23:34:01Z</time></trkpt>
<trkpt lat="25.317309" lon="104.399779">
<time>2016-10-06T23:34:02Z</time></trkpt>
<trkpt lat="25.317279" lon="104.399769">
<time>2016-10-06T23:34:03Z</time></trkpt>
<trkpt lat="25.317199" lon="104.399689">
<time>2016-10-06T23:34:04Z</time></trkpt>
<trkpt lat="25.316999" lon="104.399379">
<time>2016-10-06T23:34:05Z</time></trkpt>
<trkpt lat="25.316959" lon="104.399339">
<time>2016-10-06T23:34:06Z</time></trkpt>
<trkpt lat="25.316819" lon="104.399299">
<time>2016-10-06T23:34:07Z</time></trkpt>
<trkpt lat="25.316679" lon="104.399259">
<time>2016-10-06T23:34:08Z</time></trkpt>
<trkpt lat="25.316529" lon="104.399189">
<time>2016-10-06T23:34:09Z</time></trkpt>
<trkpt lat="25.316489" lon="104.399179">
<time>2016-10-06T23:34:10Z</time></trkpt>
<trkpt lat="25.316409" lon="104.399229">
<time>2016-10-06T23:34:11Z</time></trkpt>
<trkpt lat="25.316339" lon="104.399389">
<time>2016-10-06T23:34:12Z</time></trkpt>
<trkpt lat="25.316289" lon="104.399429">
<time>2016-10-06T23:34:13Z</time></trkpt>
<trkpt lat="25.316039" lon="104.399579">
<time>2016-10-06T23:34:14Z</time></trkpt>
<trkpt lat="25.315869" lon="104.399839">
<time>2016-10-06T23:34:15Z</time></trkpt>
<trkpt lat="25.315739" lon="104.399909">
<time>2016-10-06T23:34:16Z</time></trkpt>
<trkpt lat="25.315619" lon="104.399929">
<time>2016-10-06T23:34:17Z</time></trkpt>
<trkpt lat="25.315519" lon="104.399929">
<time>2016-10-06T23:34:18Z</time></trkpt>
<trkpt lat="25.315459" lon="104.399909">
<time>2016-10-06T23:34:19Z</time></trkpt>
<trkpt lat="25.315359" lon="104.399909">
<time>2016-10-06T23:34:20Z</time></trkpt>
<trkpt lat="25.315219" lon="104.399909">
<time>2016-10-06T23:34:21Z</time></trkpt>
<trkpt lat="25.314979" lon="104.399969">
<time>2016-10-06T23:34:22Z</time></trkpt>
<trkpt lat="25.314849" lon="104.399959">
<time>2016-10-06T23:34:23Z</time></trkpt>
<trkpt lat="25.314779" lon="104.399959">
<time>2016-10-06T23:34:24Z</time></trkpt>
<trkpt lat="25.314729" lon="104.399929">
<time>2016-10-06T23:34:25Z</time></trkpt>
<trkpt lat="25.314649" lon="104.399919">
<time>2016-10-06T23:34:26Z</time></trkpt>
<trkpt lat="25.314319" lon="104.399729">
<time>2016-10-06T23:34:27Z</time></trkpt>
<trkpt lat="25.314199" lon="104.399709">
<time>2016-10-06T23:34:28Z</time></trkpt>
<trkpt lat="25.313909" lon="104.399739">
<time>2016-10-06T23:34:29Z</time></trkpt>
<trkpt lat="25.313859" lon="104.399769">
<time>2016-10-06T23:34:30Z</time></trkpt>
<trkpt lat="25.313799" lon="104.399889">
<time>2016-10-06T23:34:31Z</time></trkpt>
<trkpt lat="25.313739" lon="104.399939">
<time>2016-10-06T23:34:32Z</time></trkpt>
<trkpt lat="25.313709" lon="104.399959">
<time>2016-10-06T23:34:33Z</time></trkpt>
<trkpt lat="25.313569" lon="104.400049">
<time>2016-10-06T23:34:34Z</time></trkpt>
<trkpt lat="25.313369" lon="104.400229">
<time>2016-10-06T23:34:35Z</time></trkpt>
<trkpt lat="25.313309" lon="104.400249">
<time>2016-10-06T23:34:36Z</time></trkpt>
<trkpt lat="25.313079" lon="104.400289">
<time>2016-10-06T23:34:37Z</time></trkpt>
<trkpt lat="25.313019" lon="104.400319">
<time>2016-10-06T23:34:38Z</time></trkpt>
<trkpt lat="25.312969" lon="104.400349">
<time>2016-10-06T23:34:39Z</time></trkpt>
<trkpt lat="25.312829" lon="104.400508">
<time>2016-10-06T23:34:40Z</time></trkpt>
<trkpt lat="25.312769" lon="104.400538">
<time>2016-10-06T23:34:41Z</time></trkpt>
<trkpt lat="25.312509" lon="104.400588">
<time>2016-10-06T23:34:42Z</time></trkpt>
<trkpt lat="25.312419" lon="104.400588">
<time>2016-10-06T23:34:43Z</time></trkpt>
<trkpt lat="25.312239" lon="104.400588">
<time>2016-10-06T23:34:44Z</time></trkpt>
<trkpt lat="25.311949" lon="104.400508">
<time>2016-10-06T23:34:45Z</time></trkpt>
<trkpt lat="25.311799" lon="104.400488">
<time>2016-10-06T23:34:46Z</time></trkpt>
<trkpt lat="25.311669" lon="104.400479">
<time>2016-10-06T23:34:47Z</time></trkpt>
<trkpt lat="25.311589" lon="104.400479">
<time>2016-10-06T23:34:48Z</time></trkpt>
<trkpt lat="25.311509" lon="104.400459">
<time>2016-10-06T23:34:49Z</time></trkpt>
<trkpt lat="25.311439" lon="104.400409">
<time>2016-10-06T23:34:50Z</time></trkpt>
<trkpt lat="25.311379" lon="104.400329">
<time>2016-10-06T23:34:51Z</time></trkpt>
<trkpt lat="25.311329" lon="104.400219">
<time>2016-10-06T23:34:52Z</time></trkpt>
<trkpt lat="25.311239" lon="104.399979">
<time>2016-10-06T23:34:53Z</time></trkpt>
<trkpt lat="25.311159" lon="104.399599">
<time>2016-10-06T23:34:54Z</time></trkpt>
<trkpt lat="25.311089" lon="104.399249">
<time>2016-10-06T23:34:55Z</time></trkpt>
<trkpt lat="25.311079" lon="104.399079">
<time>2016-10-06T23:34:56Z</time></trkpt>
<trkpt lat="25.311099" lon="104.399049">
<time>2016-10-06T23:34:57Z</time></trkpt>
<trkpt lat="25.311139" lon="104.399069">
<time>2016-10-06T23:34:58Z</time></trkpt>
<trkpt lat="25.311189" lon="104.399109">
<time>2016-10-06T23:34:59Z</time></trkpt>
<trkpt lat="25.311239" lon="104.399199">
<time>2016-10-06T23:35:00Z</time></trkpt>
<trkpt lat="25.311449" lon="104.399749">
<time>2016-10-06T23:35:01Z</time></trkpt>
<trkpt lat="25.311569" lon="104.400039">
<time>2016-10-06T23:35:02Z</time></trkpt>
<trkpt lat="25.311709" lon="104.400269">
<time>2016-10-06T23:35:03Z</time></trkpt>
<trkpt lat="25.311789" lon="104.400339">
<time>2016-10-06T23:35:04Z</time></trkpt>
<trkpt lat="25.311879" lon="104.400379">
<time>2016-10-06T23:35:05Z</time></trkpt>
<trkpt lat="25.311969" lon="104.400389">
<time>2016-10-06T23:35:06Z</time></trkpt>
<trkpt lat="25.312079" lon="104.400369">
<time>2016-10-06T23:35:07Z</time></trkpt>
<trkpt lat="25.312269" lon="104.400309">
<time>2016-10-06T23:35:08Z</time></trkpt>
<trkpt lat="25.312449" lon="104.400209">
<time>2016-10-06T23:35:09Z</time></trkpt>
<trkpt lat="25.312509" lon="104.400059">
<time>2016-10-06T23:35:10Z</time></trkpt>
<trkpt lat="25.312559" lon="104.399939">
<time>2016-10-06T23:35:11Z</time></trkpt>
<trkpt lat="25.312639" lon="104.399859">
<time>2016-10-06T23:35:12Z</time></trkpt>
<trkpt lat="25.312719" lon="104.399749">
<time>2016-10-06T23:35:13Z</time></trkpt>
<trkpt lat="25.312829" lon="104.399649">
<time>2016-10-06T23:35:14Z</time></trkpt>
<trkpt lat="25.312889" lon="104.399519">
<time>2016-10-06T23:35:15Z</time></trkpt>
<trkpt lat="25.313039" lon="104.399059">
<time>2016-10-06T23:35:16Z</time></trkpt>
<trkpt lat="25.313129" lon="104.398889">
<time>2016-10-06T23:35:17Z</time></trkpt>
<trkpt lat="25.313239" lon="104.398769">
<time>2016-10-06T23:35:18Z</time></trkpt>
<trkpt lat="25.313599" lon="104.398589">
<time>2016-10-06T23:35:19Z</time></trkpt>
<trkpt lat="25.313629" lon="104.39854">
<time>2016-10-06T23:35:20Z</time></trkpt>
<trkpt lat="25.313629" lon="104.3985">
<time>2016-10-06T23:35:21Z</time></trkpt>
<trkpt lat="25.313599" lon="104.39846">
<time>2016-10-06T23:35:22Z</time></trkpt>
<trkpt lat="25.313339" lon="104.3983">
<time>2016-10-06T23:35:23Z</time></trkpt>
<trkpt lat="25.313099" lon="104.39819">
<time>2016-10-06T23:35:24Z</time></trkpt>
<trkpt lat="25.312699" lon="104.39806">
<time>2016-10-06T23:35:25Z</time></trkpt>
<trkpt lat="25.312319" lon="104.39793">
<time>2016-10-06T23:35:26Z</time></trkpt>
<trkpt lat="25.312099" lon="104.39785">
<time>2016-10-06T23:35:27Z</time></trkpt>
<trkpt lat="25.311799" lon="104.39783">
<time>2016-10-06T23:35:28Z</time></trkpt>
<trkpt lat="25.311369" lon="104.39812">
<time>2016-10-06T23:35:29Z</time></trkpt>
<trkpt lat="25.311159" lon="104.3982">
<time>2016-10-06T23:35:30Z</time></trkpt>
<trkpt lat="25.311099" lon="104.39818">
<time>2016-10-06T23:35:31Z</time></trkpt>
<trkpt lat="25.310869" lon="104.39804">
<time>2016-10-06T23:35:32Z</time></trkpt>
<trkpt lat="25.310629" lon="104.39798">
<time>2016-10-06T23:35:33Z</time></trkpt>
<trkpt lat="25.310459" lon="104.39791">
<time>2016-10-06T23:35:34Z</time></trkpt>
<trkpt lat="25.310109" lon="104.39787">
<time>2016-10-06T23:35:35Z</time></trkpt>
<trkpt lat="25.309839" lon="104.39777">
<time>2016-10-06T23:35:36Z</time></trkpt>
<trkpt lat="25.309449" lon="104.39768">
<time>2016-10-06T23:35:37Z</time></trkpt>
<trkpt lat="25.309159" lon="104.39758">
<time>2016-10-06T23:35:38Z</time></trkpt>
<trkpt lat="25.308859" lon="104.39751">
<time>2016-10-06T23:35:39Z</time></trkpt>
<trkpt lat="25.308759" lon="104.39747">
<time>2016-10-06T23:35:40Z</time></trkpt>
<trkpt lat="25.308459" lon="104.39744">
<time>2016-10-06T23:35:41Z</time></trkpt>
<trkpt lat="25.308379" lon="104.39744">
<time>2016-10-06T23:35:42Z</time></trkpt>
<trkpt lat="25.308179" lon="104.39746">
<time>2016-10-06T23:35:43Z</time></trkpt>
<trkpt lat="25.308039" lon="104.3975">
<time>2016-10-06T23:35:44Z</time></trkpt>
<trkpt lat="25.307888" lon="104.39759">
<time>2016-10-06T23:35:45Z</time></trkpt>
<trkpt lat="25.307768" lon="104.39767">
<time>2016-10-06T23:35:46Z</time></trkpt>
<trkpt lat="25.307598" lon="104.39779">
<time>2016-10-06T23:35:47Z</time></trkpt>
<trkpt lat="25.307468" lon="104.39788">
<time>2016-10-06T23:35:48Z</time></trkpt>
<trkpt lat="25.307338" lon="104.39796">
<time>2016-10-06T23:35:49Z</time></trkpt>
<trkpt lat="25.307168" lon="104.398">
<time>2016-10-06T23:35:50Z</time></trkpt>
<trkpt lat="25.307168" lon="104.398">
<time>2016-10-06T23:35:51Z</time></trkpt>
<trkpt lat="25.306888" lon="104.3977">
<time>2016-10-06T23:35:52Z</time></trkpt>
<trkpt lat="25.306458" lon="104.397291">
<time>2016-10-06T23:35:53Z</time></trkpt>
<trkpt lat="25.306388" lon="104.397201">
<time>2016-10-06T23:35:54Z</time></trkpt>
<trkpt lat="25.306328" lon="104.397091">
<time>2016-10-06T23:35:55Z</time></trkpt>
<trkpt lat="25.306298" lon="104.396991">
<time>2016-10-06T23:35:56Z</time></trkpt>
<trkpt lat="25.306288" lon="104.396891">
<time>2016-10-06T23:35:57Z</time></trkpt>
<trkpt lat="25.306278" lon="104.396501">
<time>2016-10-06T23:35:58Z</time></trkpt>
<trkpt lat="25.306259" lon="104.396411">
<time>2016-10-06T23:35:59Z</time></trkpt>
<trkpt lat="25.306209" lon="104.396331">
<time>2016-10-06T23:36:00Z</time></trkpt>
<trkpt lat="25.306139" lon="104.396271">
<time>2016-10-06T23:36:01Z</time></trkpt>
<trkpt lat="25.305939" lon="104.396151">
<time>2016-10-06T23:36:02Z</time></trkpt>
<trkpt lat="25.305699" lon="104.396052">
<time>2016-10-06T23:36:03Z</time></trkpt>
<trkpt lat="25.305229" lon="104.395892">
<time>2016-10-06T23:36:04Z</time></trkpt>
<trkpt lat="25.304949" lon="104.395762">
<time>2016-10-06T23:36:05Z</time></trkpt>
<trkpt lat="25.304579" lon="104.395472">
<time>2016-10-06T23:36:06Z</time></trkpt>
<trkpt lat="25.304479" lon="104.395352">
<time>2016-10-06T23:36:07Z</time></trkpt>
<trkpt lat="25.304399" lon="104.395202">
<time>2016-10-06T23:36:08Z</time></trkpt>
<trkpt lat="25.304379" lon="104.395102">
<time>2016-10-06T23:36:09Z</time></trkpt>
<trkpt lat="25.304309" lon="104.394623">
<time>2016-10-06T23:36:10Z</time></trkpt>
<trkpt lat="25.304309" lon="104.394433">
<time>2016-10-06T23:36:11Z</time></trkpt>
<trkpt lat="25.304289" lon="104.394073">
<time>2016-10-06T23:36:12Z</time></trkpt>
<trkpt lat="25.304289" lon="104.394073">
<time>2016-10-06T23:36:13Z</time></trkpt>
<trkpt lat="25.304489" lon="104.394113">
<time>2016-10-06T23:36:14Z</time></trkpt>
<trkpt lat="25.304579" lon="104.394153">
<time>2016-10-06T23:36:15Z</time></trkpt>
<trkpt lat="25.304619" lon="104.394183">
<time>2016-10-06T23:36:16Z</time></trkpt>
<trkpt lat="25.304649" lon="104.394263">
<time>2016-10-06T23:36:17Z</time></trkpt>
<trkpt lat="25.304649" lon="104.394483">
<time>2016-10-06T23:36:18Z</time></trkpt>
<trkpt lat="25.304689" lon="104.394643">
<time>2016-10-06T23:36:19Z</time></trkpt>
<trkpt lat="25.304749" lon="104.394693">
<time>2016-10-06T23:36:20Z</time></trkpt>
<trkpt lat="25.304839" lon="104.394723">
<time>2016-10-06T23:36:21Z</time></trkpt>
<trkpt lat="25.304889" lon="104.394782">
<time>2016-10-06T23:36:22Z</time></trkpt>
<trkpt lat="25.304929" lon="104.394862">
<time>2016-10-06T23:36:23Z</time></trkpt>
<trkpt lat="25.304959" lon="104.394992">
<time>2016-10-06T23:36:24Z</time></trkpt>
<trkpt lat="25.304989" lon="104.395182">
<time>2016-10-06T23:36:25Z</time></trkpt>
<trkpt lat="25.305019" lon="104.395252">
<time>2016-10-06T23:36:26Z</time></trkpt>
<trkpt lat="25.305059" lon="104.395302">
<time>2016-10-06T23:36:27Z</time></trkpt>
<trkpt lat="25.305119" lon="104.395322">
<time>2016-10-06T23:36:28Z</time></trkpt>
<trkpt lat="25.305189" lon="104.395342">
<time>2016-10-06T23:36:29Z</time></trkpt>
<trkpt lat="25.305349" lon="104.395342">
<time>2016-10-06T23:36:30Z</time></trkpt>
<trkpt lat="25.305439" lon="104.395332">
<time>2016-10-06T23:36:31Z</time></trkpt>
<trkpt lat="25.305819" lon="104.395272">
<time>2016-10-06T23:36:32Z</time></trkpt>
<trkpt lat="25.306089" lon="104.395192">
<time>2016-10-06T23:36:33Z</time></trkpt>
<trkpt lat="25.306229" lon="104.395172">
<time>2016-10-06T23:36:34Z</time></trkpt>
<trkpt lat="25.306299" lon="104.395152">
<time>2016-10-06T23:36:35Z</time></trkpt>
<trkpt lat="25.306409" lon="104.395052">
<time>2016-10-06T23:36:36Z</time></trkpt>
<trkpt lat="25.306519" lon="104.394912">
<time>2016-10-06T23:36:37Z</time></trkpt>
<trkpt lat="25.306549" lon="104.394832">
<time>2016-10-06T23:36:38Z</time></trkpt>
<trkpt lat="25.306579" lon="104.394742">
<time>2016-10-06T23:36:39Z</time></trkpt>
<trkpt lat="25.306579" lon="104.394663">
<time>2016-10-06T23:36:40Z</time></trkpt>
<trkpt lat="25.306549" lon="104.394543">
<time>2016-10-06T23:36:41Z</time></trkpt>
<trkpt lat="25.306519" lon="104.394513">
<time>2016-10-06T23:36:42Z</time></trkpt>
<trkpt lat="25.306459" lon="104.394503">
<time>2016-10-06T23:36:43Z</time></trkpt>
<trkpt lat="25.306419" lon="104.394523">
<time>2016-10-06T23:36:44Z</time></trkpt>
<trkpt lat="25.306289" lon="104.394613">
<time>2016-10-06T23:36:45Z</time></trkpt>
<trkpt lat="25.306169" lon="104.394663">
<time>2016-10-06T23:36:46Z</time></trkpt>
<trkpt lat="25.305909" lon="104.394832">
<time>2016-10-06T23:36:47Z</time></trkpt>
<trkpt lat="25.305769" lon="104.394882">
<time>2016-10-06T23:36:48Z</time></trkpt>
<trkpt lat="25.305699" lon="104.394882">
<time>2016-10-06T23:36:49Z</time></trkpt>
<trkpt lat="25.305569" lon="104.394852">
<time>2016-10-06T23:36:50Z</time></trkpt>
<trkpt lat="25.305449" lon="104.394802">
<time>2016-10-06T23:36:51Z</time></trkpt>
<trkpt lat="25.305359" lon="104.394713">
<time>2016-10-06T23:36:52Z</time></trkpt>
<trkpt lat="25.305299" lon="104.394593">
<time>2016-10-06T23:36:53Z</time></trkpt>
<trkpt lat="25.305199" lon="104.394183">
<time>2016-10-06T23:36:54Z</time></trkpt>
<trkpt lat="25.305169" lon="104.393923">
<time>2016-10-06T23:36:55Z</time></trkpt>
<trkpt lat="25.305239" lon="104.393783">
<time>2016-10-06T23:36:56Z</time></trkpt>
<trkpt lat="25.305339" lon="104.393753">
<time>2016-10-06T23:36:57Z</time></trkpt>
<trkpt lat="25.305399" lon="104.393683">
<time>2016-10-06T23:36:58Z</time></trkpt>
<trkpt lat="25.305429" lon="104.393583">
<time>2016-10-06T23:36:59Z</time></trkpt>
<trkpt lat="25.305429" lon="104.393434">
<time>2016-10-06T23:37:00Z</time></trkpt>
<trkpt lat="25.305369" lon="104.393194">
<time>2016-10-06T23:37:01Z</time></trkpt>
<trkpt lat="25.305359" lon="104.393024">
<time>2016-10-06T23:37:02Z</time></trkpt>
<trkpt lat="25.305389" lon="104.392864">
<time>2016-10-06T23:37:03Z</time></trkpt>
<trkpt lat="25.305479" lon="104.392604">
<time>2016-10-06T23:37:04Z</time></trkpt>
<trkpt lat="25.305479" lon="104.392494">
<time>2016-10-06T23:37:05Z</time></trkpt>
<trkpt lat="25.305479" lon="104.392424">
<time>2016-10-06T23:37:06Z</time></trkpt>
<trkpt lat="25.305459" lon="104.392345">
<time>2016-10-06T23:37:07Z</time></trkpt>
<trkpt lat="25.305409" lon="104.392265">
<time>2016-10-06T23:37:08Z</time></trkpt>
<trkpt lat="25.30512" lon="104.391825">
<time>2016-10-06T23:37:09Z</time></trkpt>
<trkpt lat="25.30502" lon="104.391595">
<time>2016-10-06T23:37:10Z</time></trkpt>
<trkpt lat="25.30499" lon="104.391335">
<time>2016-10-06T23:37:11Z</time></trkpt>
<trkpt lat="25.30501" lon="104.391076">
<time>2016-10-06T23:37:12Z</time></trkpt>
<trkpt lat="25.30502" lon="104.390786">
<time>2016-10-06T23:37:13Z</time></trkpt>
<trkpt lat="25.30502" lon="104.390466">
<time>2016-10-06T23:37:14Z</time></trkpt>
<trkpt lat="25.30503" lon="104.390366">
<time>2016-10-06T23:37:15Z</time></trkpt>
<trkpt lat="25.3051" lon="104.390197">
<time>2016-10-06T23:37:16Z</time></trkpt>
<trkpt lat="25.30517" lon="104.390087">
<time>2016-10-06T23:37:17Z</time></trkpt>
<trkpt lat="25.30521" lon="104.390007">
<time>2016-10-06T23:37:18Z</time></trkpt>
<trkpt lat="25.30523" lon="104.389927">
<time>2016-10-06T23:37:19Z</time></trkpt>
<trkpt lat="25.30522" lon="104.389857">
<time>2016-10-06T23:37:20Z</time></trkpt>
<trkpt lat="25.30518" lon="104.389787">
<time>2016-10-06T23:37:21Z</time></trkpt>
<trkpt lat="25.30494" lon="104.389497">
<time>2016-10-06T23:37:22Z</time></trkpt>
<trkpt lat="25.304841" lon="104.389317">
<time>2016-10-06T23:37:23Z</time></trkpt>
<trkpt lat="25.304811" lon="104.389218">
<time>2016-10-06T23:37:24Z</time></trkpt>
<trkpt lat="25.304801" lon="104.389018">
<time>2016-10-06T23:37:25Z</time></trkpt>
<trkpt lat="25.304831" lon="104.388918">
<time>2016-10-06T23:37:26Z</time></trkpt>
<trkpt lat="25.304891" lon="104.388828">
<time>2016-10-06T23:37:27Z</time></trkpt>
<trkpt lat="25.304961" lon="104.388748">
<time>2016-10-06T23:37:28Z</time></trkpt>
<trkpt lat="25.305151" lon="104.388668">
<time>2016-10-06T23:37:29Z</time></trkpt>
<trkpt lat="25.305231" lon="104.388658">
<time>2016-10-06T23:37:30Z</time></trkpt>
<trkpt lat="25.305401" lon="104.388688">
<time>2016-10-06T23:37:31Z</time></trkpt>
<trkpt lat="25.305741" lon="104.388848">
<time>2016-10-06T23:37:32Z</time></trkpt>
<trkpt lat="25.305771" lon="104.388828">
<time>2016-10-06T23:37:33Z</time></trkpt>
<trkpt lat="25.305831" lon="104.388748">
<time>2016-10-06T23:37:34Z</time></trkpt>
<trkpt lat="25.305881" lon="104.388588">
<time>2016-10-06T23:37:35Z</time></trkpt>
<trkpt lat="25.305911" lon="104.388298">
<time>2016-10-06T23:37:36Z</time></trkpt>
<trkpt lat="25.305931" lon="104.387889">
<time>2016-10-06T23:37:37Z</time></trkpt>
<trkpt lat="25.305971" lon="104.387519">
<time>2016-10-06T23:37:38Z</time></trkpt>
<trkpt lat="25.305962" lon="104.38722">
<time>2016-10-06T23:37:39Z</time></trkpt>
<trkpt lat="25.305982" lon="104.3871">
<time>2016-10-06T23:37:40Z</time></trkpt>
<trkpt lat="25.306012" lon="104.38704">
<time>2016-10-06T23:37:41Z</time></trkpt>
<trkpt lat="25.306102" lon="104.38699">
<time>2016-10-06T23:37:42Z</time></trkpt>
<trkpt lat="25.306152" lon="104.38693">
<time>2016-10-06T23:37:43Z</time></trkpt>
<trkpt lat="25.306182" lon="104.38686">
<time>2016-10-06T23:37:44Z</time></trkpt>
<trkpt lat="25.306192" lon="104.38677">
<time>2016-10-06T23:37:45Z</time></trkpt>
<trkpt lat="25.306292" lon="104.3866">
<time>2016-10-06T23:37:46Z</time></trkpt>
<trkpt lat="25.306322" lon="104.38653">
<time>2016-10-06T23:37:47Z</time></trkpt>
<trkpt lat="25.306402" lon="104.386301">
<time>2016-10-06T23:37:48Z</time></trkpt>
<trkpt lat="25.306512" lon="104.385991">
<time>2016-10-06T23:37:49Z</time></trkpt>
<trkpt lat="25.306703" lon="104.385582">
<time>2016-10-06T23:37:50Z</time></trkpt>
<trkpt lat="25.306763" lon="104.385402">
<time>2016-10-06T23:37:51Z</time></trkpt>
<trkpt lat="25.306813" lon="104.385102">
<time>2016-10-06T23:37:52Z</time></trkpt>
<trkpt lat="25.306863" lon="104.384912">
<time>2016-10-06T23:37:53Z</time></trkpt>
<trkpt lat="25.306993" lon="104.384603">
<time>2016-10-06T23:37:54Z</time></trkpt>
<trkpt lat="25.307123" lon="104.384313">
<time>2016-10-06T23:37:55Z</time></trkpt>
<trkpt lat="25.307134" lon="104.384073">
<time>2016-10-06T23:37:56Z</time></trkpt>
<trkpt lat="25.307054" lon="104.383604">
<time>2016-10-06T23:37:57Z</time></trkpt>
<trkpt lat="25.307034" lon="104.383504">
<time>2016-10-06T23:37:58Z</time></trkpt>
<trkpt lat="25.307044" lon="104.383334">
<time>2016-10-06T23:37:59Z</time></trkpt>
<trkpt lat="25.307074" lon="104.383254">
<time>2016-10-06T23:38:00Z</time></trkpt>
<trkpt lat="25.307154" lon="104.383125">
<time>2016-10-06T23:38:01Z</time></trkpt>
<trkpt lat="25.307264" lon="104.383005">
<time>2016-10-06T23:38:02Z</time></trkpt>
<trkpt lat="25.307494" lon="104.382805">
<time>2016-10-06T23:38:03Z</time></trkpt>
<trkpt lat="25.307575" lon="104.382705">
<time>2016-10-06T23:38:04Z</time></trkpt>
<trkpt lat="25.307595" lon="104.382645">
<time>2016-10-06T23:38:05Z</time></trkpt>
<trkpt lat="25.307595" lon="104.382595">
<time>2016-10-06T23:38:06Z</time></trkpt>
<trkpt lat="25.307585" lon="104.382485">
<time>2016-10-06T23:38:07Z</time></trkpt>
<trkpt lat="25.307445" lon="104.382196">
<time>2016-10-06T23:38:08Z</time></trkpt>
<trkpt lat="25.307415" lon="104.382056">
<time>2016-10-06T23:38:09Z</time></trkpt>
<trkpt lat="25.307435" lon="104.381966">
<time>2016-10-06T23:38:10Z</time></trkpt>
<trkpt lat="25.307555" lon="104.381676">
<time>2016-10-06T23:38:11Z</time></trkpt>
<trkpt lat="25.307575" lon="104.381557">
<time>2016-10-06T23:38:12Z</time></trkpt>
<trkpt lat="25.307575" lon="104.381497">
<time>2016-10-06T23:38:13Z</time></trkpt>
<trkpt lat="25.307536" lon="104.381377">
<time>2016-10-06T23:38:14Z</time></trkpt>
<trkpt lat="25.307426" lon="104.381157">
<time>2016-10-06T23:38:15Z</time></trkpt>
<trkpt lat="25.307396" lon="104.381047">
<time>2016-10-06T23:38:16Z</time></trkpt>
<trkpt lat="25.307406" lon="104.380947">
<time>2016-10-06T23:38:17Z</time></trkpt>
<trkpt lat="25.307436" lon="104.380848">
<time>2016-10-06T23:38:18Z</time></trkpt>
<trkpt lat="25.307666" lon="104.380418">
<time>2016-10-06T23:38:19Z</time></trkpt>
<trkpt lat="25.307706" lon="104.380268">
<time>2016-10-06T23:38:20Z</time></trkpt>
<trkpt lat="25.307706" lon="104.380189">
<time>2016-10-06T23:38:21Z</time></trkpt>
<trkpt lat="25.307677" lon="104.380149">
<time>2016-10-06T23:38:22Z</time></trkpt>
<trkpt lat="25.307617" lon="104.380049">
<time>2016-10-06T23:38:23Z</time></trkpt>
<trkpt lat="25.307497" lon="104.379759">
<time>2016-10-06T23:38:24Z</time></trkpt>
<trkpt lat="25.307487" lon="104.379679">
<time>2016-10-06T23:38:25Z</time></trkpt>
<trkpt lat="25.307507" lon="104.37934">
<time>2016-10-06T23:38:26Z</time></trkpt>
<trkpt lat="25.307527" lon="104.37922">
<time>2016-10-06T23:38:27Z</time></trkpt>
<trkpt lat="25.307617" lon="104.37904">
<time>2016-10-06T23:38:28Z</time></trkpt>
<trkpt lat="25.307728" lon="104.37894">
<time>2016-10-06T23:38:29Z</time></trkpt>
<trkpt lat="25.308008" lon="104.378791">
<time>2016-10-06T23:38:30Z</time></trkpt>
<trkpt lat="25.308058" lon="104.378771">
<time>2016-10-06T23:38:31Z</time></trkpt>
<trkpt lat="25.308318" lon="104.378661">
<time>2016-10-06T23:38:32Z</time></trkpt>
<trkpt lat="25.308408" lon="104.378571">
<time>2016-10-06T23:38:33Z</time></trkpt>
<trkpt lat="25.308458" lon="104.378481">
<time>2016-10-06T23:38:34Z</time></trkpt>
<trkpt lat="25.308528" lon="104.378361">
<time>2016-10-06T23:38:35Z</time></trkpt>
<trkpt lat="25.308708" lon="104.378151">
<time>2016-10-06T23:38:36Z</time></trkpt>
<trkpt lat="25.308758" lon="104.378002">
<time>2016-10-06T23:38:37Z</time></trkpt>
<trkpt lat="25.308779" lon="104.377892">
<time>2016-10-06T23:38:38Z</time></trkpt>
<trkpt lat="25.308829" lon="104.377712">
<time>2016-10-06T23:38:39Z</time></trkpt>
<trkpt lat="25.308879" lon="104.377602">
<time>2016-10-06T23:38:40Z</time></trkpt>
<trkpt lat="25.308929" lon="104.377482">
<time>2016-10-06T23:38:41Z</time></trkpt>
<trkpt lat="25.308949" lon="104.377403">
<time>2016-10-06T23:38:42Z</time></trkpt>
<trkpt lat="25.308989" lon="104.377303">
<time>2016-10-06T23:38:43Z</time></trkpt>
<trkpt lat="25.309019" lon="104.377203">
<time>2016-10-06T23:38:44Z</time></trkpt>
<trkpt lat="25.309109" lon="104.377023">
<time>2016-10-06T23:38:45Z</time></trkpt>
<trkpt lat="25.30932" lon="104.376664">
<time>2016-10-06T23:38:46Z</time></trkpt>
<trkpt lat="25.30947" lon="104.376524">
<time>2016-10-06T23:38:47Z</time></trkpt>
<trkpt lat="25.30956" lon="104.376444">
<time>2016-10-06T23:38:48Z</time></trkpt>
<trkpt lat="25.30966" lon="104.376304">
<time>2016-10-06T23:38:49Z</time></trkpt>
<trkpt lat="25.30973" lon="104.376164">
<time>2016-10-06T23:38:50Z</time></trkpt>
<trkpt lat="25.30978" lon="104.375965">
<time>2016-10-06T23:38:51Z</time></trkpt>
<trkpt lat="25.309871" lon="104.375865">
<time>2016-10-06T23:38:52Z</time></trkpt>
<trkpt lat="25.309981" lon="104.375755">
<time>2016-10-06T23:38:53Z</time></trkpt>
<trkpt lat="25.310061" lon="104.375695">
<time>2016-10-06T23:38:54Z</time></trkpt>
<trkpt lat="25.310161" lon="104.375675">
<time>2016-10-06T23:38:55Z</time></trkpt>
<trkpt lat="25.310221" lon="104.375635">
<time>2016-10-06T23:38:56Z</time></trkpt>
<trkpt lat="25.310281" lon="104.375525">
<time>2016-10-06T23:38:57Z</time></trkpt>
<trkpt lat="25.310351" lon="104.375366">
<time>2016-10-06T23:38:58Z</time></trkpt>
<trkpt lat="25.310381" lon="104.375236">
<time>2016-10-06T23:38:59Z</time></trkpt>
<trkpt lat="25.310391" lon="104.375006">
<time>2016-10-06T23:39:00Z</time></trkpt>
<trkpt lat="25.310391" lon="104.374966">
<time>2016-10-06T23:39:01Z</time></trkpt>
<trkpt lat="25.310422" lon="104.374817">
<time>2016-10-06T23:39:02Z</time></trkpt>
<trkpt lat="25.310422" lon="104.374677">
<time>2016-10-06T23:39:03Z</time></trkpt>
<trkpt lat="25.310302" lon="104.374248">
<time>2016-10-06T23:39:04Z</time></trkpt>
<trkpt lat="25.310142" lon="104.373968">
<time>2016-10-06T23:39:05Z</time></trkpt>
<trkpt lat="25.310063" lon="104.373768">
<time>2016-10-06T23:39:06Z</time></trkpt>
<trkpt lat="25.310023" lon="104.373569">
<time>2016-10-06T23:39:07Z</time></trkpt>
<trkpt lat="25.310023" lon="104.373369">
<time>2016-10-06T23:39:08Z</time></trkpt>
<trkpt lat="25.309993" lon="104.373209">
<time>2016-10-06T23:39:09Z</time></trkpt>
<trkpt lat="25.309884" lon="104.37286">
<time>2016-10-06T23:39:10Z</time></trkpt>
<trkpt lat="25.309854" lon="104.37266">
<time>2016-10-06T23:39:11Z</time></trkpt>
<trkpt lat="25.309864" lon="104.37253">
<time>2016-10-06T23:39:12Z</time></trkpt>
<trkpt lat="25.309884" lon="104.372461">
<time>2016-10-06T23:39:13Z</time></trkpt>
<trkpt lat="25.309954" lon="104.372391">
<time>2016-10-06T23:39:14Z</time></trkpt>
<trkpt lat="25.309964" lon="104.372301">
<time>2016-10-06T23:39:15Z</time></trkpt>
<trkpt lat="25.309974" lon="104.372211">
<time>2016-10-06T23:39:16Z</time></trkpt>
<trkpt lat="25.309974" lon="104.372161">
<time>2016-10-06T23:39:17Z</time></trkpt>
<trkpt lat="25.309954" lon="104.372031">
<time>2016-10-06T23:39:18Z</time></trkpt>
<trkpt lat="25.309905" lon="104.371902">
<time>2016-10-06T23:39:19Z</time></trkpt>
<trkpt lat="25.309875" lon="104.371742">
<time>2016-10-06T23:39:20Z</time></trkpt>
<trkpt lat="25.309855" lon="104.371682">
<time>2016-10-06T23:39:21Z</time></trkpt>
<trkpt lat="25.309705" lon="104.371402">
<time>2016-10-06T23:39:22Z</time></trkpt>
<trkpt lat="25.309645" lon="104.371293">
<time>2016-10-06T23:39:23Z</time></trkpt>
<trkpt lat="25.309595" lon="104.371153">
<time>2016-10-06T23:39:24Z</time></trkpt>
<trkpt lat="25.309556" lon="104.371013">
<time>2016-10-06T23:39:25Z</time></trkpt>
<trkpt lat="25.309566" lon="104.370953">
<time>2016-10-06T23:39:26Z</time></trkpt>
<trkpt lat="25.309546" lon="104.370863">
<time>2016-10-06T23:39:27Z</time></trkpt>
<trkpt lat="25.309556" lon="104.370773">
<time>2016-10-06T23:39:28Z</time></trkpt>
<trkpt lat="25.309556" lon="104.370724">
<time>2016-10-06T23:39:29Z</time></trkpt>
<trkpt lat="25.309456" lon="104.370544">
<time>2016-10-06T23:39:30Z</time></trkpt>
<trkpt lat="25.309336" lon="104.370354">
<time>2016-10-06T23:39:31Z</time></trkpt>
<trkpt lat="25.309247" lon="104.370075">
<time>2016-10-06T23:39:32Z</time></trkpt>
<trkpt lat="25.309207" lon="104.370015">
<time>2016-10-06T23:39:33Z</time></trkpt>
<trkpt lat="25.309197" lon="104.369865">
<time>2016-10-06T23:39:34Z</time></trkpt>
<trkpt lat="25.309237" lon="104.369715">
<time>2016-10-06T23:39:35Z</time></trkpt>
<trkpt lat="25.309297" lon="104.369616">
<time>2016-10-06T23:39:36Z</time></trkpt>
<trkpt lat="25.309337" lon="104.369536">
<time>2016-10-06T23:39:37Z</time></trkpt>
<trkpt lat="25.309367" lon="104.369456">
<time>2016-10-06T23:39:38Z</time></trkpt>
<trkpt lat="25.309387" lon="104.369386">
<time>2016-10-06T23:39:39Z</time></trkpt>
<trkpt lat="25.309428" lon="104.369336">
<time>2016-10-06T23:39:40Z</time></trkpt>
<trkpt lat="25.309448" lon="104.369296">
<time>2016-10-06T23:39:41Z</time></trkpt>
<trkpt lat="25.309518" lon="104.369236">
<time>2016-10-06T23:39:42Z</time></trkpt>
<trkpt lat="25.309668" lon="104.369216">
<time>2016-10-06T23:39:43Z</time></trkpt>
<trkpt lat="25.309848" lon="104.369246">
<time>2016-10-06T23:39:44Z</time></trkpt>
<trkpt lat="25.310038" lon="104.369296">
<time>2016-10-06T23:39:45Z</time></trkpt>
<trkpt lat="25.310278" lon="104.369316">
<time>2016-10-06T23:39:46Z</time></trkpt>
<trkpt lat="25.310498" lon="104.369286">
<time>2016-10-06T23:39:47Z</time></trkpt>
<trkpt lat="25.310628" lon="104.369226">
<time>2016-10-06T23:39:48Z</time></trkpt>
<trkpt lat="25.310918" lon="104.369027">
<time>2016-10-06T23:39:49Z</time></trkpt>
<trkpt lat="25.311118" lon="104.368877">
<time>2016-10-06T23:39:50Z</time></trkpt>
<trkpt lat="25.311379" lon="104.368627">
<time>2016-10-06T23:39:51Z</time></trkpt>
<trkpt lat="25.311499" lon="104.368567">
<time>2016-10-06T23:39:52Z</time></trkpt>
<trkpt lat="25.311609" lon="104.368527">
<time>2016-10-06T23:39:53Z</time></trkpt>
<trkpt lat="25.311729" lon="104.368478">
<time>2016-10-06T23:39:54Z</time></trkpt>
<trkpt lat="25.311769" lon="104.368468">
<time>2016-10-06T23:39:55Z</time></trkpt>
<trkpt lat="25.311819" lon="104.368398">
<time>2016-10-06T23:39:56Z</time></trkpt>
<trkpt lat="25.311949" lon="104.368268">
<time>2016-10-06T23:39:57Z</time></trkpt>
<trkpt lat="25.312109" lon="104.368178">
<time>2016-10-06T23:39:58Z</time></trkpt>
<trkpt lat="25.312239" lon="104.368038">
<time>2016-10-06T23:39:59Z</time></trkpt>
<trkpt lat="25.31253" lon="104.367849">
<time>2016-10-06T23:40:00Z</time></trkpt>
<trkpt lat="25.31274" lon="104.367699">
<time>2016-10-06T23:40:01Z</time></trkpt>
<trkpt lat="25.31283" lon="104.367609">
<time>2016-10-06T23:40:02Z</time></trkpt>
<trkpt lat="25.31292" lon="104.367539">
<time>2016-10-06T23:40:03Z</time></trkpt>
<trkpt lat="25.31298" lon="104.367499">
<time>2016-10-06T23:40:04Z</time></trkpt>
<trkpt lat="25.31309" lon="104.367459">
<time>2016-10-06T23:40:05Z</time></trkpt>
<trkpt lat="25.31317" lon="104.367439">
<time>2016-10-06T23:40:06Z</time></trkpt>
<trkpt lat="25.31323" lon="104.367439">
<time>2016-10-06T23:40:07Z</time></trkpt>
<trkpt lat="25.31337" lon="104.367509">
<time>2016-10-06T23:40:08Z</time></trkpt>
<trkpt lat="25.31344" lon="104.367529">
<time>2016-10-06T23:40:09Z</time></trkpt>
<trkpt lat="25.31351" lon="104.367559">
<time>2016-10-06T23:40:10Z</time></trkpt>
<trkpt lat="25.31359" lon="104.367529">
<time>2016-10-06T23:40:11Z</time></trkpt>
<trkpt lat="25.31376" lon="104.367469">
<time>2016-10-06T23:40:12Z</time></trkpt>
<trkpt lat="25.31376" lon="104.367469">
<time>2016-10-06T23:40:13Z</time></trkpt>
<trkpt lat="25.31375" lon="104.36727">
<time>2016-10-06T23:40:14Z</time></trkpt>
<trkpt lat="25.313861" lon="104.366691">
<time>2016-10-06T23:40:15Z</time></trkpt>
<trkpt lat="25.313901" lon="104.366491">
<time>2016-10-06T23:40:16Z</time></trkpt>
<trkpt lat="25.313922" lon="104.366312">
<time>2016-10-06T23:40:17Z</time></trkpt>
<trkpt lat="25.313882" lon="104.366142">
<time>2016-10-06T23:40:18Z</time></trkpt>
<trkpt lat="25.313792" lon="104.366002">
<time>2016-10-06T23:40:19Z</time></trkpt>
<trkpt lat="25.313682" lon="104.365882">
<time>2016-10-06T23:40:20Z</time></trkpt>
<trkpt lat="25.313552" lon="104.365813">
<time>2016-10-06T23:40:21Z</time></trkpt>
<trkpt lat="25.313402" lon="104.365823">
<time>2016-10-06T23:40:22Z</time></trkpt>
<trkpt lat="25.313232" lon="104.365922">
<time>2016-10-06T23:40:23Z</time></trkpt>
<trkpt lat="25.313002" lon="104.366142">
<time>2016-10-06T23:40:24Z</time></trkpt>
<trkpt lat="25.312772" lon="104.366132">
<time>2016-10-06T23:40:25Z</time></trkpt>
<trkpt lat="25.312702" lon="104.365892">
<time>2016-10-06T23:40:26Z</time></trkpt>
<trkpt lat="25.312662" lon="104.365653">
<time>2016-10-06T23:40:27Z</time></trkpt>
<trkpt lat="25.312633" lon="104.365463">
<time>2016-10-06T23:40:28Z</time></trkpt>
<trkpt lat="25.312563" lon="104.365294">
<time>2016-10-06T23:40:29Z</time></trkpt>
<trkpt lat="25.312473" lon="104.365154">
<time>2016-10-06T23:40:30Z</time></trkpt>
<trkpt lat="25.312353" lon="104.365064">
<time>2016-10-06T23:40:31Z</time></trkpt>
<trkpt lat="25.312013" lon="104.364815">
<time>2016-10-06T23:40:32Z</time></trkpt>
<trkpt lat="25.311684" lon="104.364415">
<time>2016-10-06T23:40:33Z</time></trkpt>
<trkpt lat="25.311544" lon="104.364435">
<time>2016-10-06T23:40:34Z</time></trkpt>
<trkpt lat="25.311424" lon="104.364395">
<time>2016-10-06T23:40:35Z</time></trkpt>
<trkpt lat="25.311304" lon="104.364335">
<time>2016-10-06T23:40:36Z</time></trkpt>
<trkpt lat="25.311184" lon="104.364226">
<time>2016-10-06T23:40:37Z</time></trkpt>
<trkpt lat="25.311094" lon="104.364086">
<time>2016-10-06T23:40:38Z</time></trkpt>
<trkpt lat="25.311135" lon="104.363437">
<time>2016-10-06T23:40:39Z</time></trkpt>
<trkpt lat="25.311086" lon="104.362918">
<time>2016-10-06T23:40:40Z</time></trkpt>
<trkpt lat="25.311046" lon="104.362769">
<time>2016-10-06T23:40:41Z</time></trkpt>
<trkpt lat="25.310976" lon="104.362649">
<time>2016-10-06T23:40:42Z</time></trkpt>
<trkpt lat="25.310846" lon="104.362589">
<time>2016-10-06T23:40:43Z</time></trkpt>
<trkpt lat="25.310556" lon="104.362599">
<time>2016-10-06T23:40:44Z</time></trkpt>
<trkpt lat="25.310426" lon="104.362509">
<time>2016-10-06T23:40:45Z</time></trkpt>
<trkpt lat="25.310097" lon="104.36199">
<time>2016-10-06T23:40:46Z</time></trkpt>
<trkpt lat="25.309997" lon="104.361791">
<time>2016-10-06T23:40:47Z</time></trkpt>
<trkpt lat="25.309878" lon="104.361182">
<time>2016-10-06T23:40:48Z</time></trkpt>
<trkpt lat="25.309799" lon="104.360803">
<time>2016-10-06T23:40:49Z</time></trkpt>
<trkpt lat="25.309789" lon="104.360723">
<time>2016-10-06T23:40:50Z</time></trkpt>
<trkpt lat="25.309799" lon="104.360623">
<time>2016-10-06T23:40:51Z</time></trkpt>
<trkpt lat="25.309889" lon="104.360324">
<time>2016-10-06T23:40:52Z</time></trkpt>
<trkpt lat="25.30995" lon="104.360164">
<time>2016-10-06T23:40:53Z</time></trkpt>
<trkpt lat="25.31005" lon="104.360014">
<time>2016-10-06T23:40:54Z</time></trkpt>
<trkpt lat="25.31017" lon="104.359855">
<time>2016-10-06T23:40:55Z</time></trkpt>
<trkpt lat="25.31031" lon="104.359685">
<time>2016-10-06T23:40:56Z</time></trkpt>
<trkpt lat="25.310491" lon="104.359535">
<time>2016-10-06T23:40:57Z</time></trkpt>
<trkpt lat="25.310881" lon="104.359256">
<time>2016-10-06T23:40:58Z</time></trkpt>
<trkpt lat="25.311061" lon="104.359096">
<time>2016-10-06T23:40:59Z</time></trkpt>
<trkpt lat="25.311332" lon="104.358857">
<time>2016-10-06T23:41:00Z</time></trkpt>
<trkpt lat="25.311452" lon="104.358737">
<time>2016-10-06T23:41:01Z</time></trkpt>
<trkpt lat="25.311752" lon="104.358458">
<time>2016-10-06T23:41:02Z</time></trkpt>
<trkpt lat="25.312093" lon="104.358188">
<time>2016-10-06T23:41:03Z</time></trkpt>
<trkpt lat="25.312233" lon="104.358048">
<time>2016-10-06T23:41:04Z</time></trkpt>
<trkpt lat="25.312313" lon="104.357869">
<time>2016-10-06T23:41:05Z</time></trkpt>
<trkpt lat="25.312324" lon="104.35746">
<time>2016-10-06T23:41:06Z</time></trkpt>
<trkpt lat="25.312374" lon="104.35727">
<time>2016-10-06T23:41:07Z</time></trkpt>
<trkpt lat="25.312495" lon="104.356901">
<time>2016-10-06T23:41:08Z</time></trkpt>
<trkpt lat="25.312515" lon="104.356731">
<time>2016-10-06T23:41:09Z</time></trkpt>
<trkpt lat="25.312505" lon="104.356572">
<time>2016-10-06T23:41:10Z</time></trkpt>
<trkpt lat="25.312446" lon="104.356402">
<time>2016-10-06T23:41:11Z</time></trkpt>
<trkpt lat="25.312446" lon="104.356302">
<time>2016-10-06T23:41:12Z</time></trkpt>
<trkpt lat="25.312376" lon="104.356222">
<time>2016-10-06T23:41:13Z</time></trkpt>
<trkpt lat="25.312176" lon="104.355953">
<time>2016-10-06T23:41:14Z</time></trkpt>
<trkpt lat="25.312016" lon="104.355873">
<time>2016-10-06T23:41:15Z</time></trkpt>
<trkpt lat="25.311746" lon="104.356103">
<time>2016-10-06T23:41:16Z</time></trkpt>
<trkpt lat="25.311495" lon="104.356492">
<time>2016-10-06T23:41:17Z</time></trkpt>
<trkpt lat="25.311345" lon="104.356642">
<time>2016-10-06T23:41:18Z</time></trkpt>
<trkpt lat="25.311155" lon="104.356741">
<time>2016-10-06T23:41:19Z</time></trkpt>
<trkpt lat="25.310925" lon="104.356781">
<time>2016-10-06T23:41:20Z</time></trkpt>
<trkpt lat="25.310875" lon="104.356761">
<time>2016-10-06T23:41:21Z</time></trkpt>
<trkpt lat="25.310475" lon="104.356811">
<time>2016-10-06T23:41:22Z</time></trkpt>
<trkpt lat="25.310265" lon="104.356771">
<time>2016-10-06T23:41:23Z</time></trkpt>
<trkpt lat="25.310085" lon="104.356672">
<time>2016-10-06T23:41:24Z</time></trkpt>
<trkpt lat="25.309755" lon="104.356382">
<time>2016-10-06T23:41:25Z</time></trkpt>
<trkpt lat="25.309646" lon="104.356193">
<time>2016-10-06T23:41:26Z</time></trkpt>
<trkpt lat="25.309546" lon="104.355764">
<time>2016-10-06T23:41:27Z</time></trkpt>
<trkpt lat="25.309427" lon="104.355594">
<time>2016-10-06T23:41:28Z</time></trkpt>
<trkpt lat="25.309237" lon="104.355524">
<time>2016-10-06T23:41:29Z</time></trkpt>
<trkpt lat="25.308687" lon="104.355454">
<time>2016-10-06T23:41:30Z</time></trkpt>
<trkpt lat="25.308497" lon="104.355394">
<time>2016-10-06T23:41:31Z</time></trkpt>
<trkpt lat="25.308347" lon="104.355285">
<time>2016-10-06T23:41:32Z</time></trkpt>
<trkpt lat="25.307968" lon="104.354816">
<time>2016-10-06T23:41:33Z</time></trkpt>
<trkpt lat="25.307828" lon="104.354676">
<time>2016-10-06T23:41:34Z</time></trkpt>
<trkpt lat="25.307688" lon="104.354566">
<time>2016-10-06T23:41:35Z</time></trkpt>
<trkpt lat="25.307538" lon="104.354506">
<time>2016-10-06T23:41:36Z</time></trkpt>
<trkpt lat="25.307008" lon="104.354377">
<time>2016-10-06T23:41:37Z</time></trkpt>
<trkpt lat="25.306838" lon="104.354317">
<time>2016-10-06T23:41:38Z</time></trkpt>
<trkpt lat="25.306739" lon="104.354207">
<time>2016-10-06T23:41:39Z</time></trkpt>
<trkpt lat="25.306709" lon="104.354057">
<time>2016-10-06T23:41:40Z</time></trkpt>
<trkpt lat="25.306739" lon="104.353858">
<time>2016-10-06T23:41:41Z</time></trkpt>
<trkpt lat="25.30689" lon="104.353399">
<time>2016-10-06T23:41:42Z</time></trkpt>
<trkpt lat="25.30696" lon="104.35315">
<time>2016-10-06T23:41:43Z</time></trkpt>
<trkpt lat="25.307191" lon="104.352691">
<time>2016-10-06T23:41:44Z</time></trkpt>
<trkpt lat="25.307262" lon="104.352252">
<time>2016-10-06T23:41:45Z</time></trkpt>
<trkpt lat="25.307252" lon="104.352042">
<time>2016-10-06T23:41:46Z</time></trkpt>
<trkpt lat="25.307152" lon="104.351872">
<time>2016-10-06T23:41:47Z</time></trkpt>
<trkpt lat="25.306993" lon="104.351743">
<time>2016-10-06T23:41:48Z</time></trkpt>
<trkpt lat="25.306773" lon="104.351643">
<time>2016-10-06T23:41:49Z</time></trkpt>
<trkpt lat="25.306503" lon="104.351573">
<time>2016-10-06T23:41:50Z</time></trkpt>
<trkpt lat="25.305873" lon="104.351493">
<time>2016-10-06T23:41:51Z</time></trkpt>
<trkpt lat="25.305183" lon="104.351453">
<time>2016-10-06T23:41:52Z</time></trkpt>
<trkpt lat="25.304473" lon="104.351444">
<time>2016-10-06T23:41:53Z</time></trkpt>
<trkpt lat="25.304143" lon="104.351434">
<time>2016-10-06T23:41:54Z</time></trkpt>
<trkpt lat="25.303563" lon="104.351374">
<time>2016-10-06T23:41:55Z</time></trkpt>
<trkpt lat="25.303303" lon="104.351344">
<time>2016-10-06T23:41:56Z</time></trkpt>
<trkpt lat="25.303003" lon="104.351354">
<time>2016-10-06T23:41:57Z</time></trkpt>
<trkpt lat="25.302813" lon="104.351533">
<time>2016-10-06T23:41:58Z</time></trkpt>
<trkpt lat="25.302602" lon="104.351723">
<time>2016-10-06T23:41:59Z</time></trkpt>
<trkpt lat="25.302382" lon="104.351913">
<time>2016-10-06T23:42:00Z</time></trkpt>
<trkpt lat="25.302132" lon="104.352022">
<time>2016-10-06T23:42:01Z</time></trkpt>
<trkpt lat="25.301692" lon="104.351873">
<time>2016-10-06T23:42:02Z</time></trkpt>
<trkpt lat="25.301462" lon="104.351803">
<time>2016-10-06T23:42:03Z</time></trkpt>
<trkpt lat="25.301232" lon="104.351813">
<time>2016-10-06T23:42:04Z</time></trkpt>
<trkpt lat="25.300742" lon="104.351913">
<time>2016-10-06T23:42:05Z</time></trkpt>
<trkpt lat="25.300512" lon="104.351913">
<time>2016-10-06T23:42:06Z</time></trkpt>
<trkpt lat="25.300292" lon="104.351853">
<time>2016-10-06T23:42:07Z</time></trkpt>
<trkpt lat="25.300092" lon="104.351813">
<time>2016-10-06T23:42:08Z</time></trkpt>
<trkpt lat="25.299842" lon="104.351643">
<time>2016-10-06T23:42:09Z</time></trkpt>
<trkpt lat="25.299353" lon="104.351424">
<time>2016-10-06T23:42:10Z</time></trkpt>
<trkpt lat="25.298833" lon="104.351214">
<time>2016-10-06T23:42:11Z</time></trkpt>
<trkpt lat="25.298723" lon="104.351164">
<time>2016-10-06T23:42:12Z</time></trkpt>
<trkpt lat="25.298623" lon="104.351134">
<time>2016-10-06T23:42:13Z</time></trkpt>
<trkpt lat="25.298493" lon="104.351065">
<time>2016-10-06T23:42:14Z</time></trkpt>
<trkpt lat="25.298313" lon="104.350995">
<time>2016-10-06T23:42:15Z</time></trkpt>
<trkpt lat="25.298033" lon="104.350835">
<time>2016-10-06T23:42:16Z</time></trkpt>
<trkpt lat="25.297684" lon="104.350686">
<time>2016-10-06T23:42:17Z</time></trkpt>
<trkpt lat="25.297314" lon="104.350516">
<time>2016-10-06T23:42:18Z</time></trkpt>
<trkpt lat="25.297014" lon="104.350316">
<time>2016-10-06T23:42:19Z</time></trkpt>
<trkpt lat="25.296795" lon="104.349967">
<time>2016-10-06T23:42:20Z</time></trkpt>
<trkpt lat="25.296675" lon="104.349738">
<time>2016-10-06T23:42:21Z</time></trkpt>
<trkpt lat="25.296516" lon="104.349279">
<time>2016-10-06T23:42:22Z</time></trkpt>
<trkpt lat="25.296416" lon="104.349059">
<time>2016-10-06T23:42:23Z</time></trkpt>
<trkpt lat="25.296187" lon="104.34888">
<time>2016-10-06T23:42:24Z</time></trkpt>
<trkpt lat="25.296027" lon="104.34869">
<time>2016-10-06T23:42:25Z</time></trkpt>
<trkpt lat="25.295957" lon="104.348521">
<time>2016-10-06T23:42:26Z</time></trkpt>
<trkpt lat="25.295987" lon="104.348371">
<time>2016-10-06T23:42:27Z</time></trkpt>
<trkpt lat="25.296098" lon="104.348221">
<time>2016-10-06T23:42:28Z</time></trkpt>
<trkpt lat="25.296278" lon="104.348072">
<time>2016-10-06T23:42:29Z</time></trkpt>
<trkpt lat="25.296749" lon="104.347752">
<time>2016-10-06T23:42:30Z</time></trkpt>
<trkpt lat="25.296989" lon="104.347563">
<time>2016-10-06T23:42:31Z</time></trkpt>
<trkpt lat="25.297209" lon="104.347363">
<time>2016-10-06T23:42:32Z</time></trkpt>
<trkpt lat="25.29733" lon="104.347004">
<time>2016-10-06T23:42:33Z</time></trkpt>
<trkpt lat="25.29739" lon="104.346725">
<time>2016-10-06T23:42:34Z</time></trkpt>
<trkpt lat="25.297431" lon="104.346465">
<time>2016-10-06T23:42:35Z</time></trkpt>
<trkpt lat="25.297552" lon="104.346066">
<time>2016-10-06T23:42:36Z</time></trkpt>
<trkpt lat="25.297862" lon="104.345618">
<time>2016-10-06T23:42:37Z</time></trkpt>
<trkpt lat="25.298003" lon="104.345378">
<time>2016-10-06T23:42:38Z</time></trkpt>
<trkpt lat="25.298244" lon="104.344859">
<time>2016-10-06T23:42:39Z</time></trkpt>
<trkpt lat="25.298465" lon="104.344351">
<time>2016-10-06T23:42:40Z</time></trkpt>
<trkpt lat="25.298735" lon="104.343872">
<time>2016-10-06T23:42:41Z</time></trkpt>
<trkpt lat="25.299046" lon="104.343393">
<time>2016-10-06T23:42:42Z</time></trkpt>
<trkpt lat="25.299427" lon="104.342894">
<time>2016-10-06T23:42:43Z</time></trkpt>
<trkpt lat="25.299818" lon="104.342385">
<time>2016-10-06T23:42:44Z</time></trkpt>
<trkpt lat="25.300009" lon="104.342116">
<time>2016-10-06T23:42:45Z</time></trkpt>
<trkpt lat="25.300049" lon="104.341837">
<time>2016-10-06T23:42:46Z</time></trkpt>
<trkpt lat="25.30003" lon="104.341677">
<time>2016-10-06T23:42:47Z</time></trkpt>
<trkpt lat="25.29991" lon="104.341478">
<time>2016-10-06T23:42:48Z</time></trkpt>
<trkpt lat="25.2997" lon="104.341348">
<time>2016-10-06T23:42:49Z</time></trkpt>
<trkpt lat="25.29951" lon="104.341218">
<time>2016-10-06T23:42:50Z</time></trkpt>
<trkpt lat="25.299441" lon="104.341089">
<time>2016-10-06T23:42:51Z</time></trkpt>
<trkpt lat="25.299401" lon="104.340879">
<time>2016-10-06T23:42:52Z</time></trkpt>
<trkpt lat="25.299371" lon="104.34065">
<time>2016-10-06T23:42:53Z</time></trkpt>
<trkpt lat="25.299382" lon="104.340231">
<time>2016-10-06T23:42:54Z</time></trkpt>
<trkpt lat="25.299503" lon="104.339961">
<time>2016-10-06T23:42:55Z</time></trkpt>
<trkpt lat="25.299393" lon="104.339752">
<time>2016-10-06T23:42:56Z</time></trkpt>
<trkpt lat="25.299114" lon="104.339313">
<time>2016-10-06T23:42:57Z</time></trkpt>
<trkpt lat="25.298765" lon="104.338834">
<time>2016-10-06T23:42:58Z</time></trkpt>
<trkpt lat="25.298395" lon="104.338395">
<time>2016-10-06T23:42:59Z</time></trkpt>
<trkpt lat="25.298246" lon="104.338186">
<time>2016-10-06T23:43:00Z</time></trkpt>
<trkpt lat="25.298136" lon="104.337946">
<time>2016-10-06T23:43:01Z</time></trkpt>
<trkpt lat="25.298067" lon="104.337657">
<time>2016-10-06T23:43:02Z</time></trkpt>
<trkpt lat="25.298017" lon="104.337348">
<time>2016-10-06T23:43:03Z</time></trkpt>
<trkpt lat="25.297968" lon="104.336749">
<time>2016-10-06T23:43:04Z</time></trkpt>
<trkpt lat="25.29791" lon="104.336131">
<time>2016-10-06T23:43:05Z</time></trkpt>
<trkpt lat="25.297841" lon="104.335483">
<time>2016-10-06T23:43:06Z</time></trkpt>
<trkpt lat="25.297801" lon="104.335153">
<time>2016-10-06T23:43:07Z</time></trkpt>
<trkpt lat="25.297692" lon="104.334615">
<time>2016-10-06T23:43:08Z</time></trkpt>
<trkpt lat="25.297623" lon="104.334365">
<time>2016-10-06T23:43:09Z</time></trkpt>
<trkpt lat="25.297424" lon="104.333867">
<time>2016-10-06T23:43:10Z</time></trkpt>
<trkpt lat="25.297235" lon="104.333378">
<time>2016-10-06T23:43:11Z</time></trkpt>
<trkpt lat="25.297165" lon="104.333149">
<time>2016-10-06T23:43:12Z</time></trkpt>
<trkpt lat="25.297146" lon="104.332929">
<time>2016-10-06T23:43:13Z</time></trkpt>
<trkpt lat="25.297166" lon="104.3327">
<time>2016-10-06T23:43:14Z</time></trkpt>
<trkpt lat="25.297246" lon="104.33248">
<time>2016-10-06T23:43:15Z</time></trkpt>
<trkpt lat="25.297377" lon="104.332261">
<time>2016-10-06T23:43:16Z</time></trkpt>
<trkpt lat="25.297557" lon="104.332061">
<time>2016-10-06T23:43:17Z</time></trkpt>
<trkpt lat="25.297778" lon="104.331922">
<time>2016-10-06T23:43:18Z</time></trkpt>
<trkpt lat="25.298028" lon="104.331832">
<time>2016-10-06T23:43:19Z</time></trkpt>
<trkpt lat="25.298278" lon="104.331782">
<time>2016-10-06T23:43:20Z</time></trkpt>
<trkpt lat="25.298838" lon="104.331802">
<time>2016-10-06T23:43:21Z</time></trkpt>
<trkpt lat="25.299108" lon="104.331802">
<time>2016-10-06T23:43:22Z</time></trkpt>
<trkpt lat="25.299668" lon="104.331752">
<time>2016-10-06T23:43:23Z</time></trkpt>
<trkpt lat="25.299928" lon="104.331692">
<time>2016-10-06T23:43:24Z</time></trkpt>
<trkpt lat="25.300128" lon="104.331563">
<time>2016-10-06T23:43:25Z</time></trkpt>
<trkpt lat="25.300249" lon="104.331383">
<time>2016-10-06T23:43:26Z</time></trkpt>
<trkpt lat="25.300359" lon="104.330994">
<time>2016-10-06T23:43:27Z</time></trkpt>
<trkpt lat="25.30034" lon="104.330715">
<time>2016-10-06T23:43:28Z</time></trkpt>
<trkpt lat="25.30031" lon="104.330515">
<time>2016-10-06T23:43:29Z</time></trkpt>
<trkpt lat="25.300301" lon="104.330296">
<time>2016-10-06T23:43:30Z</time></trkpt>
<trkpt lat="25.300351" lon="104.330046">
<time>2016-10-06T23:43:31Z</time></trkpt>
<trkpt lat="25.300372" lon="104.329767">
<time>2016-10-06T23:43:32Z</time></trkpt>
<trkpt lat="25.300443" lon="104.329348">
<time>2016-10-06T23:43:33Z</time></trkpt>
<trkpt lat="25.300544" lon="104.32876">
<time>2016-10-06T23:43:34Z</time></trkpt>
<trkpt lat="25.300554" lon="104.3285">
<time>2016-10-06T23:43:35Z</time></trkpt>
<trkpt lat="25.300445" lon="104.328271">
<time>2016-10-06T23:43:36Z</time></trkpt>
<trkpt lat="25.300255" lon="104.328111">
<time>2016-10-06T23:43:37Z</time></trkpt>
<trkpt lat="25.300045" lon="104.327972">
<time>2016-10-06T23:43:38Z</time></trkpt>
<trkpt lat="25.299826" lon="104.327782">
<time>2016-10-06T23:43:39Z</time></trkpt>
<trkpt lat="25.299616" lon="104.327662">
<time>2016-10-06T23:43:40Z</time></trkpt>
<trkpt lat="25.299396" lon="104.327493">
<time>2016-10-06T23:43:41Z</time></trkpt>
<trkpt lat="25.299226" lon="104.327313">
<time>2016-10-06T23:43:42Z</time></trkpt>
<trkpt lat="25.299127" lon="104.327074">
<time>2016-10-06T23:43:43Z</time></trkpt>
<trkpt lat="25.298988" lon="104.326496">
<time>2016-10-06T23:43:44Z</time></trkpt>
<trkpt lat="25.298829" lon="104.325897">
<time>2016-10-06T23:43:45Z</time></trkpt>
<trkpt lat="25.29879" lon="104.325608">
<time>2016-10-06T23:43:46Z</time></trkpt>
<trkpt lat="25.29879" lon="104.325348">
<time>2016-10-06T23:43:47Z</time></trkpt>
<trkpt lat="25.298861" lon="104.325109">
<time>2016-10-06T23:43:48Z</time></trkpt>
<trkpt lat="25.299001" lon="104.32491">
<time>2016-10-06T23:43:49Z</time></trkpt>
<trkpt lat="25.299372" lon="104.32455">
<time>2016-10-06T23:43:50Z</time></trkpt>
<trkpt lat="25.299542" lon="104.324381">
<time>2016-10-06T23:43:51Z</time></trkpt>
<trkpt lat="25.299692" lon="104.324191">
<time>2016-10-06T23:43:52Z</time></trkpt>
<trkpt lat="25.299763" lon="104.323972">
<time>2016-10-06T23:43:53Z</time></trkpt>
<trkpt lat="25.299733" lon="104.323723">
<time>2016-10-06T23:43:54Z</time></trkpt>
<trkpt lat="25.299594" lon="104.323144">
<time>2016-10-06T23:43:55Z</time></trkpt>
<trkpt lat="25.299545" lon="104.322845">
<time>2016-10-06T23:43:56Z</time></trkpt>
<trkpt lat="25.299516" lon="104.322546">
<time>2016-10-06T23:43:57Z</time></trkpt>
<trkpt lat="25.299516" lon="104.322256">
<time>2016-10-06T23:43:58Z</time></trkpt>
<trkpt lat="25.299526" lon="104.322196">
<time>2016-10-06T23:43:59Z</time></trkpt>
<trkpt lat="25.299526" lon="104.322196">
<time>2016-10-06T23:44:00Z</time></trkpt>
<trkpt lat="25.299927" lon="104.321817">
<time>2016-10-06T23:44:01Z</time></trkpt>
<trkpt lat="25.300077" lon="104.321618">
<time>2016-10-06T23:44:02Z</time></trkpt>
<trkpt lat="25.300198" lon="104.321069">
<time>2016-10-06T23:44:03Z</time></trkpt>
<trkpt lat="25.300399" lon="104.32088">
<time>2016-10-06T23:44:04Z</time></trkpt>
<trkpt lat="25.300399" lon="104.32088">
<time>2016-10-06T23:44:05Z</time></trkpt>
<trkpt lat="25.300359" lon="104.32064">
<time>2016-10-06T23:44:06Z</time></trkpt>
<trkpt lat="25.30026" lon="104.320331">
<time>2016-10-06T23:44:07Z</time></trkpt>
<trkpt lat="25.30022" lon="104.320231">
<time>2016-10-06T23:44:08Z</time></trkpt>
<trkpt lat="25.30008" lon="104.320042">
<time>2016-10-06T23:44:09Z</time></trkpt>
<trkpt lat="25.300021" lon="104.319902">
<time>2016-10-06T23:44:10Z</time></trkpt>
<trkpt lat="25.299941" lon="104.319753">
<time>2016-10-06T23:44:11Z</time></trkpt>
<trkpt lat="25.299831" lon="104.319623">
<time>2016-10-06T23:44:12Z</time></trkpt>
<trkpt lat="25.299731" lon="104.319543">
<time>2016-10-06T23:44:13Z</time></trkpt>
<trkpt lat="25.299642" lon="104.319433">
<time>2016-10-06T23:44:14Z</time></trkpt>
<trkpt lat="25.299552" lon="104.319304">
<time>2016-10-06T23:44:15Z</time></trkpt>
<trkpt lat="25.299442" lon="104.319044">
<time>2016-10-06T23:44:16Z</time></trkpt>
<trkpt lat="25.299333" lon="104.318695">
<time>2016-10-06T23:44:17Z</time></trkpt>
<trkpt lat="25.299264" lon="104.318316">
<time>2016-10-06T23:44:18Z</time></trkpt>
<trkpt lat="25.299244" lon="104.318067">
<time>2016-10-06T23:44:19Z</time></trkpt>
<trkpt lat="25.299224" lon="104.317877">
<time>2016-10-06T23:44:20Z</time></trkpt>
<trkpt lat="25.299165" lon="104.317728">
<time>2016-10-06T23:44:21Z</time></trkpt>
<trkpt lat="25.299105" lon="104.317668">
<time>2016-10-06T23:44:22Z</time></trkpt>
<trkpt lat="25.299035" lon="104.317618">
<time>2016-10-06T23:44:23Z</time></trkpt>
<trkpt lat="25.298945" lon="104.317588">
<time>2016-10-06T23:44:24Z</time></trkpt>
<trkpt lat="25.298495" lon="104.317548">
<time>2016-10-06T23:44:25Z</time></trkpt>
<trkpt lat="25.298265" lon="104.317508">
<time>2016-10-06T23:44:26Z</time></trkpt>
<trkpt lat="25.298085" lon="104.317459">
<time>2016-10-06T23:44:27Z</time></trkpt>
<trkpt lat="25.297975" lon="104.317399">
<time>2016-10-06T23:44:28Z</time></trkpt>
<trkpt lat="25.297845" lon="104.317359">
<time>2016-10-06T23:44:29Z</time></trkpt>
<trkpt lat="25.297805" lon="104.317329">
<time>2016-10-06T23:44:30Z</time></trkpt>
<trkpt lat="25.297735" lon="104.317269">
<time>2016-10-06T23:44:31Z</time></trkpt>
<trkpt lat="25.297656" lon="104.317139">
<time>2016-10-06T23:44:32Z</time></trkpt>
<trkpt lat="25.297477" lon="104.3167">
<time>2016-10-06T23:44:33Z</time></trkpt>
<trkpt lat="25.297477" lon="104.3167">
<time>2016-10-06T23:44:34Z</time></trkpt>
<trkpt lat="25.297937" lon="104.316272">
<time>2016-10-06T23:44:35Z</time></trkpt>
<trkpt lat="25.298378" lon="104.316002">
<time>2016-10-06T23:44:36Z</time></trkpt>
<trkpt lat="25.298608" lon="104.315932">
<time>2016-10-06T23:44:37Z</time></trkpt>
<trkpt lat="25.299058" lon="104.315813">
<time>2016-10-06T23:44:38Z</time></trkpt>
<trkpt lat="25.299469" lon="104.315693">
<time>2016-10-06T23:44:39Z</time></trkpt>
<trkpt lat="25.299649" lon="104.315603">
<time>2016-10-06T23:44:40Z</time></trkpt>
<trkpt lat="25.299799" lon="104.315483">
<time>2016-10-06T23:44:41Z</time></trkpt>
<trkpt lat="25.299909" lon="104.315334">
<time>2016-10-06T23:44:42Z</time></trkpt>
<trkpt lat="25.29998" lon="104.315134">
<time>2016-10-06T23:44:43Z</time></trkpt>
<trkpt lat="25.30003" lon="104.314895">
<time>2016-10-06T23:44:44Z</time></trkpt>
<trkpt lat="25.300061" lon="104.314326">
<time>2016-10-06T23:44:45Z</time></trkpt>
<trkpt lat="25.300082" lon="104.313738">
<time>2016-10-06T23:44:46Z</time></trkpt>
<trkpt lat="25.300063" lon="104.313159">
<time>2016-10-06T23:44:47Z</time></trkpt>
<trkpt lat="25.300024" lon="104.31288">
<time>2016-10-06T23:44:48Z</time></trkpt>
<trkpt lat="25.299964" lon="104.312621">
<time>2016-10-06T23:44:49Z</time></trkpt>
<trkpt lat="25.299885" lon="104.312371">
<time>2016-10-06T23:44:50Z</time></trkpt>
<trkpt lat="25.299785" lon="104.312142">
<time>2016-10-06T23:44:51Z</time></trkpt>
<trkpt lat="25.299546" lon="104.311723">
<time>2016-10-06T23:44:52Z</time></trkpt>
<trkpt lat="25.299287" lon="104.311374">
<time>2016-10-06T23:44:53Z</time></trkpt>
<trkpt lat="25.298917" lon="104.310885">
<time>2016-10-06T23:44:54Z</time></trkpt>
<trkpt lat="25.298818" lon="104.310725">
<time>2016-10-06T23:44:55Z</time></trkpt>
<trkpt lat="25.298748" lon="104.310546">
<time>2016-10-06T23:44:56Z</time></trkpt>
<trkpt lat="25.298688" lon="104.310356">
<time>2016-10-06T23:44:57Z</time></trkpt>
<trkpt lat="25.298589" lon="104.309967">
<time>2016-10-06T23:44:58Z</time></trkpt>
<trkpt lat="25.298549" lon="104.309817">
<time>2016-10-06T23:44:59Z</time></trkpt>
<trkpt lat="25.29848" lon="104.309568">
<time>2016-10-06T23:45:00Z</time></trkpt>
<trkpt lat="25.29839" lon="104.309388">
<time>2016-10-06T23:45:01Z</time></trkpt>
<trkpt lat="25.29828" lon="104.309229">
<time>2016-10-06T23:45:02Z</time></trkpt>
<trkpt lat="25.297901" lon="104.30877">
<time>2016-10-06T23:45:03Z</time></trkpt>
<trkpt lat="25.297781" lon="104.30861">
<time>2016-10-06T23:45:04Z</time></trkpt>
<trkpt lat="25.297682" lon="104.308421">
<time>2016-10-06T23:45:05Z</time></trkpt>
<trkpt lat="25.297592" lon="104.308221">
<time>2016-10-06T23:45:06Z</time></trkpt>
<trkpt lat="25.297433" lon="104.307772">
<time>2016-10-06T23:45:07Z</time></trkpt>
<trkpt lat="25.297234" lon="104.307284">
<time>2016-10-06T23:45:08Z</time></trkpt>
<trkpt lat="25.296995" lon="104.306785">
<time>2016-10-06T23:45:09Z</time></trkpt>
<trkpt lat="25.296736" lon="104.306296">
<time>2016-10-06T23:45:10Z</time></trkpt>
<trkpt lat="25.296486" lon="104.305827">
<time>2016-10-06T23:45:11Z</time></trkpt>
<trkpt lat="25.296297" lon="104.305378">
<time>2016-10-06T23:45:12Z</time></trkpt>
<trkpt lat="25.296247" lon="104.305169">
<time>2016-10-06T23:45:13Z</time></trkpt>
<trkpt lat="25.296228" lon="104.304969">
<time>2016-10-06T23:45:14Z</time></trkpt>
<trkpt lat="25.296238" lon="104.30478">
<time>2016-10-06T23:45:15Z</time></trkpt>
<trkpt lat="25.296349" lon="104.30439">
<time>2016-10-06T23:45:16Z</time></trkpt>
<trkpt lat="25.296419" lon="104.304201">
<time>2016-10-06T23:45:17Z</time></trkpt>
<trkpt lat="25.29665" lon="104.303612">
<time>2016-10-06T23:45:18Z</time></trkpt>
<trkpt lat="25.296881" lon="104.303044">
<time>2016-10-06T23:45:19Z</time></trkpt>
<trkpt lat="25.297002" lon="104.302644">
<time>2016-10-06T23:45:20Z</time></trkpt>
<trkpt lat="25.297042" lon="104.302445">
<time>2016-10-06T23:45:21Z</time></trkpt>
<trkpt lat="25.297063" lon="104.302225">
<time>2016-10-06T23:45:22Z</time></trkpt>
<trkpt lat="25.297033" lon="104.301816">
<time>2016-10-06T23:45:23Z</time></trkpt>
<trkpt lat="25.296954" lon="104.301657">
<time>2016-10-06T23:45:24Z</time></trkpt>
<trkpt lat="25.296824" lon="104.301507">
<time>2016-10-06T23:45:25Z</time></trkpt>
<trkpt lat="25.296654" lon="104.301417">
<time>2016-10-06T23:45:26Z</time></trkpt>
<trkpt lat="25.296504" lon="104.301308">
<time>2016-10-06T23:45:27Z</time></trkpt>
<trkpt lat="25.296314" lon="104.301088">
<time>2016-10-06T23:45:28Z</time></trkpt>
<trkpt lat="25.296165" lon="104.300869">
<time>2016-10-06T23:45:29Z</time></trkpt>
<trkpt lat="25.296015" lon="104.300699">
<time>2016-10-06T23:45:30Z</time></trkpt>
<trkpt lat="25.295716" lon="104.30033">
<time>2016-10-06T23:45:31Z</time></trkpt>
<trkpt lat="25.295416" lon="104.300001">
<time>2016-10-06T23:45:32Z</time></trkpt>
<trkpt lat="25.295317" lon="104.299811">
<time>2016-10-06T23:45:33Z</time></trkpt>
<trkpt lat="25.295137" lon="104.299382">
<time>2016-10-06T23:45:34Z</time></trkpt>
<trkpt lat="25.294928" lon="104.298933">
<time>2016-10-06T23:45:35Z</time></trkpt>
<trkpt lat="25.294858" lon="104.298683">
<time>2016-10-06T23:45:36Z</time></trkpt>
<trkpt lat="25.294789" lon="104.298434">
<time>2016-10-06T23:45:37Z</time></trkpt>
<trkpt lat="25.294749" lon="104.298205">
<time>2016-10-06T23:45:38Z</time></trkpt>
<trkpt lat="25.29472" lon="104.297965">
<time>2016-10-06T23:45:39Z</time></trkpt>
<trkpt lat="25.294791" lon="104.297227">
<time>2016-10-06T23:45:40Z</time></trkpt>
<trkpt lat="25.294801" lon="104.296987">
<time>2016-10-06T23:45:41Z</time></trkpt>
<trkpt lat="25.294812" lon="104.296279">
<time>2016-10-06T23:45:42Z</time></trkpt>
<trkpt lat="25.294853" lon="104.29585">
<time>2016-10-06T23:45:43Z</time></trkpt>
<trkpt lat="25.294853" lon="104.29581">
<time>2016-10-06T23:45:44Z</time></trkpt>
<trkpt lat="25.294924" lon="104.29545">
<time>2016-10-06T23:45:45Z</time></trkpt>
<trkpt lat="25.294974" lon="104.295271">
<time>2016-10-06T23:45:46Z</time></trkpt>
<trkpt lat="25.295064" lon="104.294862">
<time>2016-10-06T23:45:47Z</time></trkpt>
<trkpt lat="25.295085" lon="104.294782">
<time>2016-10-06T23:45:48Z</time></trkpt>
<trkpt lat="25.295175" lon="104.294333">
<time>2016-10-06T23:45:49Z</time></trkpt>
<trkpt lat="25.295226" lon="104.294053">
<time>2016-10-06T23:45:50Z</time></trkpt>
<trkpt lat="25.295266" lon="104.293874">
<time>2016-10-06T23:45:51Z</time></trkpt>
<trkpt lat="25.295326" lon="104.293724">
<time>2016-10-06T23:45:52Z</time></trkpt>
<trkpt lat="25.295386" lon="104.293594">
<time>2016-10-06T23:45:53Z</time></trkpt>
<trkpt lat="25.295487" lon="104.293445">
<time>2016-10-06T23:45:54Z</time></trkpt>
<trkpt lat="25.295597" lon="104.293175">
<time>2016-10-06T23:45:55Z</time></trkpt>
<trkpt lat="25.295747" lon="104.292916">
<time>2016-10-06T23:45:56Z</time></trkpt>
<trkpt lat="25.295878" lon="104.292846">
<time>2016-10-06T23:45:57Z</time></trkpt>
<trkpt lat="25.296028" lon="104.292786">
<time>2016-10-06T23:45:58Z</time></trkpt>
<trkpt lat="25.296458" lon="104.292636">
<time>2016-10-06T23:45:59Z</time></trkpt>
<trkpt lat="25.296588" lon="104.292556">
<time>2016-10-06T23:46:00Z</time></trkpt>
<trkpt lat="25.296718" lon="104.292447">
<time>2016-10-06T23:46:01Z</time></trkpt>
<trkpt lat="25.297129" lon="104.291988">
<time>2016-10-06T23:46:02Z</time></trkpt>
<trkpt lat="25.297279" lon="104.291838">
<time>2016-10-06T23:46:03Z</time></trkpt>
<trkpt lat="25.29761" lon="104.291558">
<time>2016-10-06T23:46:04Z</time></trkpt>
<trkpt lat="25.29806" lon="104.291209">
<time>2016-10-06T23:46:05Z</time></trkpt>
<trkpt lat="25.29816" lon="104.291109">
<time>2016-10-06T23:46:06Z</time></trkpt>
<trkpt lat="25.29828" lon="104.291059">
<time>2016-10-06T23:46:07Z</time></trkpt>
<trkpt lat="25.298371" lon="104.29097">
<time>2016-10-06T23:46:08Z</time></trkpt>
<trkpt lat="25.298411" lon="104.29082">
<time>2016-10-06T23:46:09Z</time></trkpt>
<trkpt lat="25.298261" lon="104.290481">
<time>2016-10-06T23:46:10Z</time></trkpt>
<trkpt lat="25.298042" lon="104.290111">
<time>2016-10-06T23:46:11Z</time></trkpt>
<trkpt lat="25.298132" lon="104.289982">
<time>2016-10-06T23:46:12Z</time></trkpt>
<trkpt lat="25.298252" lon="104.289882">
<time>2016-10-06T23:46:13Z</time></trkpt>
<trkpt lat="25.298382" lon="104.289812">
<time>2016-10-06T23:46:14Z</time></trkpt>
<trkpt lat="25.298782" lon="104.289662">
<time>2016-10-06T23:46:15Z</time></trkpt>
<trkpt lat="25.298983" lon="104.289602">
<time>2016-10-06T23:46:16Z</time></trkpt>
<trkpt lat="25.299413" lon="104.289562">
<time>2016-10-06T23:46:17Z</time></trkpt>
<trkpt lat="25.299613" lon="104.289473">
<time>2016-10-06T23:46:18Z</time></trkpt>
<trkpt lat="25.299773" lon="104.289323">
<time>2016-10-06T23:46:19Z</time></trkpt>
<trkpt lat="25.299913" lon="104.289133">
<time>2016-10-06T23:46:20Z</time></trkpt>
<trkpt lat="25.300024" lon="104.288914">
<time>2016-10-06T23:46:21Z</time></trkpt>
<trkpt lat="25.300134" lon="104.288684">
<time>2016-10-06T23:46:22Z</time></trkpt>
<trkpt lat="25.300375" lon="104.288185">
<time>2016-10-06T23:46:23Z</time></trkpt>
<trkpt lat="25.300555" lon="104.287656">
<time>2016-10-06T23:46:24Z</time></trkpt>
<trkpt lat="25.300616" lon="104.287377">
<time>2016-10-06T23:46:25Z</time></trkpt>
<trkpt lat="25.300697" lon="104.286838">
<time>2016-10-06T23:46:26Z</time></trkpt>
<trkpt lat="25.300787" lon="104.286329">
<time>2016-10-06T23:46:27Z</time></trkpt>
<trkpt lat="25.300868" lon="104.285839">
<time>2016-10-06T23:46:28Z</time></trkpt>
<trkpt lat="25.300918" lon="104.28539">
<time>2016-10-06T23:46:29Z</time></trkpt>
<trkpt lat="25.300989" lon="104.284851">
<time>2016-10-06T23:46:30Z</time></trkpt>
<trkpt lat="25.30106" lon="104.284342">
<time>2016-10-06T23:46:31Z</time></trkpt>
<trkpt lat="25.30109" lon="104.283913">
<time>2016-10-06T23:46:32Z</time></trkpt>
<trkpt lat="25.301091" lon="104.283803">
<time>2016-10-06T23:46:33Z</time></trkpt>
<trkpt lat="25.301101" lon="104.283534">
<time>2016-10-06T23:46:34Z</time></trkpt>
<trkpt lat="25.301101" lon="104.283534">
<time>2016-10-06T23:46:35Z</time></trkpt>
<trkpt lat="25.301121" lon="104.283374">
<time>2016-10-06T23:46:36Z</time></trkpt>
<trkpt lat="25.301101" lon="104.283114">
<time>2016-10-06T23:46:37Z</time></trkpt>
<trkpt lat="25.301002" lon="104.282755">
<time>2016-10-06T23:46:38Z</time></trkpt>
<trkpt lat="25.300962" lon="104.282555">
<time>2016-10-06T23:46:39Z</time></trkpt>
<trkpt lat="25.300942" lon="104.282336">
<time>2016-10-06T23:46:40Z</time></trkpt>
<trkpt lat="25.300933" lon="104.281827">
<time>2016-10-06T23:46:41Z</time></trkpt>
<trkpt lat="25.300873" lon="104.281457">
<time>2016-10-06T23:46:42Z</time></trkpt>
<trkpt lat="25.300854" lon="104.281198">
<time>2016-10-06T23:46:43Z</time></trkpt>
<trkpt lat="25.300814" lon="104.280988">
<time>2016-10-06T23:46:44Z</time></trkpt>
<trkpt lat="25.300774" lon="104.280818">
<time>2016-10-06T23:46:45Z</time></trkpt>
<trkpt lat="25.300815" lon="104.280389">
<time>2016-10-06T23:46:46Z</time></trkpt>
<trkpt lat="25.300845" lon="104.28011">
<time>2016-10-06T23:46:47Z</time></trkpt>
<trkpt lat="25.300925" lon="104.27988">
<time>2016-10-06T23:46:48Z</time></trkpt>
<trkpt lat="25.301166" lon="104.279481">
<time>2016-10-06T23:46:49Z</time></trkpt>
<trkpt lat="25.301556" lon="104.279161">
<time>2016-10-06T23:46:50Z</time></trkpt>
<trkpt lat="25.301947" lon="104.278802">
<time>2016-10-06T23:46:51Z</time></trkpt>
<trkpt lat="25.302027" lon="104.278712">
<time>2016-10-06T23:46:52Z</time></trkpt>
<trkpt lat="25.302087" lon="104.278622">
<time>2016-10-06T23:46:53Z</time></trkpt>
<trkpt lat="25.302237" lon="104.278223">
<time>2016-10-06T23:46:54Z</time></trkpt>
<trkpt lat="25.302528" lon="104.277753">
<time>2016-10-06T23:46:55Z</time></trkpt>
<trkpt lat="25.302598" lon="104.277624">
<time>2016-10-06T23:46:56Z</time></trkpt>
<trkpt lat="25.302668" lon="104.277284">
<time>2016-10-06T23:46:57Z</time></trkpt>
<trkpt lat="25.302708" lon="104.277204">
<time>2016-10-06T23:46:58Z</time></trkpt>
<trkpt lat="25.302768" lon="104.277134">
<time>2016-10-06T23:46:59Z</time></trkpt>
<trkpt lat="25.302858" lon="104.277094">
<time>2016-10-06T23:47:00Z</time></trkpt>
<trkpt lat="25.303269" lon="104.277004">
<time>2016-10-06T23:47:01Z</time></trkpt>
<trkpt lat="25.303319" lon="104.276974">
<time>2016-10-06T23:47:02Z</time></trkpt>
<trkpt lat="25.303329" lon="104.276945">
<time>2016-10-06T23:47:03Z</time></trkpt>
<trkpt lat="25.303299" lon="104.276815">
<time>2016-10-06T23:47:04Z</time></trkpt>
<trkpt lat="25.303019" lon="104.276326">
<time>2016-10-06T23:47:05Z</time></trkpt>
<trkpt lat="25.302989" lon="104.276216">
<time>2016-10-06T23:47:06Z</time></trkpt>
<trkpt lat="25.30306" lon="104.275826">
<time>2016-10-06T23:47:07Z</time></trkpt>
<trkpt lat="25.30314" lon="104.275607">
<time>2016-10-06T23:47:08Z</time></trkpt>
<trkpt lat="25.30323" lon="104.275427">
<time>2016-10-06T23:47:09Z</time></trkpt>
<trkpt lat="25.303531" lon="104.274928">
<time>2016-10-06T23:47:10Z</time></trkpt>
<trkpt lat="25.303671" lon="104.274618">
<time>2016-10-06T23:47:11Z</time></trkpt>
<trkpt lat="25.303681" lon="104.274398">
<time>2016-10-06T23:47:12Z</time></trkpt>
<trkpt lat="25.303681" lon="104.274169">
<time>2016-10-06T23:47:13Z</time></trkpt>
<trkpt lat="25.303682" lon="104.273939">
<time>2016-10-06T23:47:14Z</time></trkpt>
<trkpt lat="25.303692" lon="104.273809">
<time>2016-10-06T23:47:15Z</time></trkpt>
<trkpt lat="25.303662" lon="104.273689">
<time>2016-10-06T23:47:16Z</time></trkpt>
<trkpt lat="25.303612" lon="104.27359">
<time>2016-10-06T23:47:17Z</time></trkpt>
<trkpt lat="25.303532" lon="104.27349">
<time>2016-10-06T23:47:18Z</time></trkpt>
<trkpt lat="25.303252" lon="104.27324">
<time>2016-10-06T23:47:19Z</time></trkpt>
<trkpt lat="25.303172" lon="104.27315">
<time>2016-10-06T23:47:20Z</time></trkpt>
<trkpt lat="25.303122" lon="104.27305">
<time>2016-10-06T23:47:21Z</time></trkpt>
<trkpt lat="25.302883" lon="104.272511">
<time>2016-10-06T23:47:22Z</time></trkpt>
<trkpt lat="25.302753" lon="104.272271">
<time>2016-10-06T23:47:23Z</time></trkpt>
<trkpt lat="25.302703" lon="104.272142">
<time>2016-10-06T23:47:24Z</time></trkpt>
<trkpt lat="25.302644" lon="104.271882">
<time>2016-10-06T23:47:25Z</time></trkpt>
<trkpt lat="25.302584" lon="104.271752">
<time>2016-10-06T23:47:26Z</time></trkpt>
<trkpt lat="25.302504" lon="104.271662">
<time>2016-10-06T23:47:27Z</time></trkpt>
<trkpt lat="25.302414" lon="104.271592">
<time>2016-10-06T23:47:28Z</time></trkpt>
<trkpt lat="25.302154" lon="104.271343">
<time>2016-10-06T23:47:29Z</time></trkpt>
<trkpt lat="25.301814" lon="104.271073">
<time>2016-10-06T23:47:30Z</time></trkpt>
<trkpt lat="25.301644" lon="104.270933">
<time>2016-10-06T23:47:31Z</time></trkpt>
<trkpt lat="25.301315" lon="104.270594">
<time>2016-10-06T23:47:32Z</time></trkpt>
<trkpt lat="25.301215" lon="104.270394">
<time>2016-10-06T23:47:33Z</time></trkpt>
<trkpt lat="25.301185" lon="104.270304">
<time>2016-10-06T23:47:34Z</time></trkpt>
<trkpt lat="25.301155" lon="104.270114">
<time>2016-10-06T23:47:35Z</time></trkpt>
<trkpt lat="25.301145" lon="104.269675">
<time>2016-10-06T23:47:36Z</time></trkpt>
<trkpt lat="25.301136" lon="104.269325">
<time>2016-10-06T23:47:37Z</time></trkpt>
<trkpt lat="25.301106" lon="104.269136">
<time>2016-10-06T23:47:38Z</time></trkpt>
<trkpt lat="25.301116" lon="104.268656">
<time>2016-10-06T23:47:39Z</time></trkpt>
<trkpt lat="25.301116" lon="104.268387">
<time>2016-10-06T23:47:40Z</time></trkpt>
<trkpt lat="25.301126" lon="104.268247">
<time>2016-10-06T23:47:41Z</time></trkpt>
<trkpt lat="25.301117" lon="104.268127">
<time>2016-10-06T23:47:42Z</time></trkpt>
<trkpt lat="25.301127" lon="104.268127">
<time>2016-10-06T23:47:43Z</time></trkpt>
<trkpt lat="25.301157" lon="104.267997">
<time>2016-10-06T23:47:44Z</time></trkpt>
<trkpt lat="25.301287" lon="104.267717">
<time>2016-10-06T23:47:45Z</time></trkpt>
<trkpt lat="25.301387" lon="104.267567">
<time>2016-10-06T23:47:46Z</time></trkpt>
<trkpt lat="25.301487" lon="104.267448">
<time>2016-10-06T23:47:47Z</time></trkpt>
<trkpt lat="25.301557" lon="104.267398">
<time>2016-10-06T23:47:48Z</time></trkpt>
<trkpt lat="25.301607" lon="104.267368">
<time>2016-10-06T23:47:49Z</time></trkpt>
<trkpt lat="25.301667" lon="104.267318">
<time>2016-10-06T23:47:50Z</time></trkpt>
<trkpt lat="25.301797" lon="104.267188">
<time>2016-10-06T23:47:51Z</time></trkpt>
<trkpt lat="25.302007" lon="104.266938">
<time>2016-10-06T23:47:52Z</time></trkpt>
<trkpt lat="25.302097" lon="104.266888">
<time>2016-10-06T23:47:53Z</time></trkpt>
<trkpt lat="25.302278" lon="104.266708">
<time>2016-10-06T23:47:54Z</time></trkpt>
<trkpt lat="25.302328" lon="104.266679">
<time>2016-10-06T23:47:55Z</time></trkpt>
<trkpt lat="25.302398" lon="104.266639">
<time>2016-10-06T23:47:56Z</time></trkpt>
<trkpt lat="25.302598" lon="104.266609">
<time>2016-10-06T23:47:57Z</time></trkpt>
<trkpt lat="25.302778" lon="104.266569">
<time>2016-10-06T23:47:58Z</time></trkpt>
<trkpt lat="25.302938" lon="104.266519">
<time>2016-10-06T23:47:59Z</time></trkpt>
<trkpt lat="25.303048" lon="104.266469">
<time>2016-10-06T23:48:00Z</time></trkpt>
<trkpt lat="25.303128" lon="104.266419">
<time>2016-10-06T23:48:01Z</time></trkpt>
<trkpt lat="25.303408" lon="104.266269">
<time>2016-10-06T23:48:02Z</time></trkpt>
<trkpt lat="25.303488" lon="104.266189">
<time>2016-10-06T23:48:03Z</time></trkpt>
<trkpt lat="25.303538" lon="104.266109">
<time>2016-10-06T23:48:04Z</time></trkpt>
<trkpt lat="25.303618" lon="104.265929">
<time>2016-10-06T23:48:05Z</time></trkpt>
<trkpt lat="25.303678" lon="104.265769">
<time>2016-10-06T23:48:06Z</time></trkpt>
<trkpt lat="25.303718" lon="104.26564">
<time>2016-10-06T23:48:07Z</time></trkpt>
<trkpt lat="25.303959" lon="104.26536">
<time>2016-10-06T23:48:08Z</time></trkpt>
<trkpt lat="25.304139" lon="104.26515">
<time>2016-10-06T23:48:09Z</time></trkpt>
<trkpt lat="25.304409" lon="104.26502">
<time>2016-10-06T23:48:10Z</time></trkpt>
<trkpt lat="25.304789" lon="104.26491">
<time>2016-10-06T23:48:11Z</time></trkpt>
<trkpt lat="25.304949" lon="104.26488">
<time>2016-10-06T23:48:12Z</time></trkpt>
<trkpt lat="25.305149" lon="104.26489">
<time>2016-10-06T23:48:13Z</time></trkpt>
<trkpt lat="25.305499" lon="104.26494">
<time>2016-10-06T23:48:14Z</time></trkpt>
<trkpt lat="25.305679" lon="104.26492">
<time>2016-10-06T23:48:15Z</time></trkpt>
<trkpt lat="25.305869" lon="104.26484">
<time>2016-10-06T23:48:16Z</time></trkpt>
<trkpt lat="25.305949" lon="104.26481">
<time>2016-10-06T23:48:17Z</time></trkpt>
<trkpt lat="25.306349" lon="104.264751">
<time>2016-10-06T23:48:18Z</time></trkpt>
<trkpt lat="25.306429" lon="104.264741">
<time>2016-10-06T23:48:19Z</time></trkpt>
<trkpt lat="25.306669" lon="104.264681">
<time>2016-10-06T23:48:20Z</time></trkpt>
<trkpt lat="25.306899" lon="104.264681">
<time>2016-10-06T23:48:21Z</time></trkpt>
<trkpt lat="25.307229" lon="104.264631">
<time>2016-10-06T23:48:22Z</time></trkpt>
<trkpt lat="25.307369" lon="104.264561">
<time>2016-10-06T23:48:23Z</time></trkpt>
<trkpt lat="25.30743" lon="104.264501">
<time>2016-10-06T23:48:24Z</time></trkpt>
<trkpt lat="25.30752" lon="104.264361">
<time>2016-10-06T23:48:25Z</time></trkpt>
<trkpt lat="25.30762" lon="104.264121">
<time>2016-10-06T23:48:26Z</time></trkpt>
<trkpt lat="25.3077" lon="104.263971">
<time>2016-10-06T23:48:27Z</time></trkpt>
<trkpt lat="25.30783" lon="104.263861">
<time>2016-10-06T23:48:28Z</time></trkpt>
<trkpt lat="25.308" lon="104.263791">
<time>2016-10-06T23:48:29Z</time></trkpt>
<trkpt lat="25.30808" lon="104.263791">
<time>2016-10-06T23:48:30Z</time></trkpt>
<trkpt lat="25.30825" lon="104.263841">
<time>2016-10-06T23:48:31Z</time></trkpt>
<trkpt lat="25.30833" lon="104.263841">
<time>2016-10-06T23:48:32Z</time></trkpt>
<trkpt lat="25.3088" lon="104.263771">
<time>2016-10-06T23:48:33Z</time></trkpt>
<trkpt lat="25.30889" lon="104.263761">
<time>2016-10-06T23:48:34Z</time></trkpt>
<trkpt lat="25.30917" lon="104.263751">
<time>2016-10-06T23:48:35Z</time></trkpt>
<trkpt lat="25.30953" lon="104.263791">
<time>2016-10-06T23:48:36Z</time></trkpt>
<trkpt lat="25.3101" lon="104.263831">
<time>2016-10-06T23:48:37Z</time></trkpt>
<trkpt lat="25.31019" lon="104.263821">
<time>2016-10-06T23:48:38Z</time></trkpt>
<trkpt lat="25.3103" lon="104.263791">
<time>2016-10-06T23:48:39Z</time></trkpt>
<trkpt lat="25.3104" lon="104.263791">
<time>2016-10-06T23:48:40Z</time></trkpt>
<trkpt lat="25.31052" lon="104.263771">
<time>2016-10-06T23:48:41Z</time></trkpt>
<trkpt lat="25.31061" lon="104.263771">
<time>2016-10-06T23:48:42Z</time></trkpt>
<trkpt lat="25.3107" lon="104.263791">
<time>2016-10-06T23:48:43Z</time></trkpt>
<trkpt lat="25.31075" lon="104.263801">
<time>2016-10-06T23:48:44Z</time></trkpt>
<trkpt lat="25.31088" lon="104.263851">
<time>2016-10-06T23:48:45Z</time></trkpt>
<trkpt lat="25.31094" lon="104.263871">
<time>2016-10-06T23:48:46Z</time></trkpt>
<trkpt lat="25.31105" lon="104.263901">
<time>2016-10-06T23:48:47Z</time></trkpt>
<trkpt lat="25.31116" lon="104.263921">
<time>2016-10-06T23:48:48Z</time></trkpt>
<trkpt lat="25.31125" lon="104.263921">
<time>2016-10-06T23:48:49Z</time></trkpt>
<trkpt lat="25.31134" lon="104.263871">
<time>2016-10-06T23:48:50Z</time></trkpt>
<trkpt lat="25.31141" lon="104.263801">
<time>2016-10-06T23:48:51Z</time></trkpt>
<trkpt lat="25.31159" lon="104.263641">
<time>2016-10-06T23:48:52Z</time></trkpt>
<trkpt lat="25.31173" lon="104.263502">
<time>2016-10-06T23:48:53Z</time></trkpt>
<trkpt lat="25.311871" lon="104.263412">
<time>2016-10-06T23:48:54Z</time></trkpt>
<trkpt lat="25.311901" lon="104.263352">
<time>2016-10-06T23:48:55Z</time></trkpt>
<trkpt lat="25.311931" lon="104.263302">
<time>2016-10-06T23:48:56Z</time></trkpt>
<trkpt lat="25.311971" lon="104.263202">
<time>2016-10-06T23:48:57Z</time></trkpt>
<trkpt lat="25.312091" lon="104.262992">
<time>2016-10-06T23:48:58Z</time></trkpt>
<trkpt lat="25.312161" lon="104.262872">
<time>2016-10-06T23:48:59Z</time></trkpt>
<trkpt lat="25.312181" lon="104.262812">
<time>2016-10-06T23:49:00Z</time></trkpt>
<trkpt lat="25.312201" lon="104.262682">
<time>2016-10-06T23:49:01Z</time></trkpt>
<trkpt lat="25.312301" lon="104.262313">
<time>2016-10-06T23:49:02Z</time></trkpt>
<trkpt lat="25.312371" lon="104.262183">
<time>2016-10-06T23:49:03Z</time></trkpt>
<trkpt lat="25.312441" lon="104.262043">
<time>2016-10-06T23:49:04Z</time></trkpt>
<trkpt lat="25.312561" lon="104.261833">
<time>2016-10-06T23:49:05Z</time></trkpt>
<trkpt lat="25.312632" lon="104.261733">
<time>2016-10-06T23:49:06Z</time></trkpt>
<trkpt lat="25.312652" lon="104.261683">
<time>2016-10-06T23:49:07Z</time></trkpt>
<trkpt lat="25.312722" lon="104.261633">
<time>2016-10-06T23:49:08Z</time></trkpt>
<trkpt lat="25.312792" lon="104.261554">
<time>2016-10-06T23:49:09Z</time></trkpt>
<trkpt lat="25.312862" lon="104.261424">
<time>2016-10-06T23:49:10Z</time></trkpt>
<trkpt lat="25.312952" lon="104.261214">
<time>2016-10-06T23:49:11Z</time></trkpt>
<trkpt lat="25.313112" lon="104.260894">
<time>2016-10-06T23:49:12Z</time></trkpt>
<trkpt lat="25.313162" lon="104.260804">
<time>2016-10-06T23:49:13Z</time></trkpt>
<trkpt lat="25.313202" lon="104.260724">
<time>2016-10-06T23:49:14Z</time></trkpt>
<trkpt lat="25.313232" lon="104.260644">
<time>2016-10-06T23:49:15Z</time></trkpt>
<trkpt lat="25.313272" lon="104.260574">
<time>2016-10-06T23:49:16Z</time></trkpt>
<trkpt lat="25.313392" lon="104.260335">
<time>2016-10-06T23:49:17Z</time></trkpt>
<trkpt lat="25.313472" lon="104.260205">
<time>2016-10-06T23:49:18Z</time></trkpt>
<trkpt lat="25.313502" lon="104.260085">
<time>2016-10-06T23:49:19Z</time></trkpt>
<trkpt lat="25.313523" lon="104.259965">
<time>2016-10-06T23:49:20Z</time></trkpt>
<trkpt lat="25.313583" lon="104.259805">
<time>2016-10-06T23:49:21Z</time></trkpt>
<trkpt lat="25.313873" lon="104.259395">
<time>2016-10-06T23:49:22Z</time></trkpt>
<trkpt lat="25.314273" lon="104.258906">
<time>2016-10-06T23:49:23Z</time></trkpt>
<trkpt lat="25.314373" lon="104.258726">
<time>2016-10-06T23:49:24Z</time></trkpt>
<trkpt lat="25.314733" lon="104.258356">
<time>2016-10-06T23:49:25Z</time></trkpt>
<trkpt lat="25.314853" lon="104.258166">
<time>2016-10-06T23:49:26Z</time></trkpt>
<trkpt lat="25.315114" lon="104.257857">
<time>2016-10-06T23:49:27Z</time></trkpt>
<trkpt lat="25.315294" lon="104.257627">
<time>2016-10-06T23:49:28Z</time></trkpt>
<trkpt lat="25.315514" lon="104.257257">
<time>2016-10-06T23:49:29Z</time></trkpt>
<trkpt lat="25.315564" lon="104.257097">
<time>2016-10-06T23:49:30Z</time></trkpt>
<trkpt lat="25.315594" lon="104.256937">
<time>2016-10-06T23:49:31Z</time></trkpt>
<trkpt lat="25.315644" lon="104.256688">
<time>2016-10-06T23:49:32Z</time></trkpt>
<trkpt lat="25.315694" lon="104.256508">
<time>2016-10-06T23:49:33Z</time></trkpt>
<trkpt lat="25.315804" lon="104.256098">
<time>2016-10-06T23:49:34Z</time></trkpt>
<trkpt lat="25.315954" lon="104.255628">
<time>2016-10-06T23:49:35Z</time></trkpt>
<trkpt lat="25.316054" lon="104.255298">
<time>2016-10-06T23:49:36Z</time></trkpt>
<trkpt lat="25.316145" lon="104.255039">
<time>2016-10-06T23:49:37Z</time></trkpt>
<trkpt lat="25.316265" lon="104.254749">
<time>2016-10-06T23:49:38Z</time></trkpt>
<trkpt lat="25.316285" lon="104.254679">
<time>2016-10-06T23:49:39Z</time></trkpt>
<trkpt lat="25.316295" lon="104.254639">
<time>2016-10-06T23:49:40Z</time></trkpt>
<trkpt lat="25.316335" lon="104.254539">
<time>2016-10-06T23:49:41Z</time></trkpt>
<trkpt lat="25.316365" lon="104.254439">
<time>2016-10-06T23:49:42Z</time></trkpt>
<trkpt lat="25.316415" lon="104.254319">
<time>2016-10-06T23:49:43Z</time></trkpt>
<trkpt lat="25.316465" lon="104.254139">
<time>2016-10-06T23:49:44Z</time></trkpt>
<trkpt lat="25.316485" lon="104.254009">
<time>2016-10-06T23:49:45Z</time></trkpt>
<trkpt lat="25.316535" lon="104.253899">
<time>2016-10-06T23:49:46Z</time></trkpt>
<trkpt lat="25.316555" lon="104.253799">
<time>2016-10-06T23:49:47Z</time></trkpt>
<trkpt lat="25.316605" lon="104.253729">
<time>2016-10-06T23:49:48Z</time></trkpt>
<trkpt lat="25.316625" lon="104.25359">
<time>2016-10-06T23:49:49Z</time></trkpt>
<trkpt lat="25.316665" lon="104.25351">
<time>2016-10-06T23:49:50Z</time></trkpt>
<trkpt lat="25.316785" lon="104.25327">
<time>2016-10-06T23:49:51Z</time></trkpt>
<trkpt lat="25.316955" lon="104.25279">
<time>2016-10-06T23:49:52Z</time></trkpt>
<trkpt lat="25.317165" lon="104.2524">
<time>2016-10-06T23:49:53Z</time></trkpt>
<trkpt lat="25.317295" lon="104.25215">
<time>2016-10-06T23:49:54Z</time></trkpt>
<trkpt lat="25.317365" lon="104.25195">
<time>2016-10-06T23:49:55Z</time></trkpt>
<trkpt lat="25.317375" lon="104.251831">
<time>2016-10-06T23:49:56Z</time></trkpt>
<trkpt lat="25.317375" lon="104.251601">
<time>2016-10-06T23:49:57Z</time></trkpt>
<trkpt lat="25.317335" lon="104.251151">
<time>2016-10-06T23:49:58Z</time></trkpt>
<trkpt lat="25.317286" lon="104.250681">
<time>2016-10-06T23:49:59Z</time></trkpt>
<trkpt lat="25.317256" lon="104.250271">
<time>2016-10-06T23:50:00Z</time></trkpt>
<trkpt lat="25.317226" lon="104.250011">
<time>2016-10-06T23:50:01Z</time></trkpt>
<trkpt lat="25.317196" lon="104.249722">
<time>2016-10-06T23:50:02Z</time></trkpt>
<trkpt lat="25.317126" lon="104.249182">
<time>2016-10-06T23:50:03Z</time></trkpt>
<trkpt lat="25.317116" lon="104.248892">
<time>2016-10-06T23:50:04Z</time></trkpt>
<trkpt lat="25.317076" lon="104.248612">
<time>2016-10-06T23:50:05Z</time></trkpt>
<trkpt lat="25.316956" lon="104.248002">
<time>2016-10-06T23:50:06Z</time></trkpt>
<trkpt lat="25.316876" lon="104.247522">
<time>2016-10-06T23:50:07Z</time></trkpt>
<trkpt lat="25.316716" lon="104.247233">
<time>2016-10-06T23:50:08Z</time></trkpt>
<trkpt lat="25.316686" lon="104.247183">
<time>2016-10-06T23:50:09Z</time></trkpt>
<trkpt lat="25.316456" lon="104.246753">
<time>2016-10-06T23:50:10Z</time></trkpt>
<trkpt lat="25.316246" lon="104.246293">
<time>2016-10-06T23:50:11Z</time></trkpt>
<trkpt lat="25.315996" lon="104.245833">
<time>2016-10-06T23:50:12Z</time></trkpt>
<trkpt lat="25.315826" lon="104.245503">
<time>2016-10-06T23:50:13Z</time></trkpt>
<trkpt lat="25.315625" lon="104.245073">
<time>2016-10-06T23:50:14Z</time></trkpt>
<trkpt lat="25.315415" lon="104.244803">
<time>2016-10-06T23:50:15Z</time></trkpt>
<trkpt lat="25.315005" lon="104.244393">
<time>2016-10-06T23:50:16Z</time></trkpt>
<trkpt lat="25.314925" lon="104.244293">
<time>2016-10-06T23:50:17Z</time></trkpt>
<trkpt lat="25.314755" lon="104.243994">
<time>2016-10-06T23:50:18Z</time></trkpt>
<trkpt lat="25.314585" lon="104.243834">
<time>2016-10-06T23:50:19Z</time></trkpt>
<trkpt lat="25.314325" lon="104.243484">
<time>2016-10-06T23:50:20Z</time></trkpt>
<trkpt lat="25.314095" lon="104.243194">
<time>2016-10-06T23:50:21Z</time></trkpt>
<trkpt lat="25.313915" lon="104.242974">
<time>2016-10-06T23:50:22Z</time></trkpt>
<trkpt lat="25.313825" lon="104.242824">
<time>2016-10-06T23:50:23Z</time></trkpt>
<trkpt lat="25.313735" lon="104.242594">
<time>2016-10-06T23:50:24Z</time></trkpt>
<trkpt lat="25.313685" lon="104.242404">
<time>2016-10-06T23:50:25Z</time></trkpt>
<trkpt lat="25.313675" lon="104.242214">
<time>2016-10-06T23:50:26Z</time></trkpt>
<trkpt lat="25.313615" lon="104.241884">
<time>2016-10-06T23:50:27Z</time></trkpt>
<trkpt lat="25.313595" lon="104.241644">
<time>2016-10-06T23:50:28Z</time></trkpt>
<trkpt lat="25.313515" lon="104.241264">
<time>2016-10-06T23:50:29Z</time></trkpt>
<trkpt lat="25.313465" lon="104.241014">
<time>2016-10-06T23:50:30Z</time></trkpt>
<trkpt lat="25.313444" lon="104.240764">
<time>2016-10-06T23:50:31Z</time></trkpt>
<trkpt lat="25.313484" lon="104.240434">
<time>2016-10-06T23:50:32Z</time></trkpt>
<trkpt lat="25.313454" lon="104.240244">
<time>2016-10-06T23:50:33Z</time></trkpt>
<trkpt lat="25.313404" lon="104.240094">
<time>2016-10-06T23:50:34Z</time></trkpt>
<trkpt lat="25.313274" lon="104.239784">
<time>2016-10-06T23:50:35Z</time></trkpt>
<trkpt lat="25.313154" lon="104.239494">
<time>2016-10-06T23:50:36Z</time></trkpt>
<trkpt lat="25.312894" lon="104.239034">
<time>2016-10-06T23:50:37Z</time></trkpt>
<trkpt lat="25.312724" lon="104.238704">
<time>2016-10-06T23:50:38Z</time></trkpt>
<trkpt lat="25.312594" lon="104.238424">
<time>2016-10-06T23:50:39Z</time></trkpt>
<trkpt lat="25.312424" lon="104.238124">
<time>2016-10-06T23:50:40Z</time></trkpt>
<trkpt lat="25.312243" lon="104.237724">
<time>2016-10-06T23:50:41Z</time></trkpt>
<trkpt lat="25.312123" lon="104.237454">
<time>2016-10-06T23:50:42Z</time></trkpt>
<trkpt lat="25.311973" lon="104.237174">
<time>2016-10-06T23:50:43Z</time></trkpt>
<trkpt lat="25.311823" lon="104.236774">
<time>2016-10-06T23:50:44Z</time></trkpt>
<trkpt lat="25.311793" lon="104.236634">
<time>2016-10-06T23:50:45Z</time></trkpt>
<trkpt lat="25.311733" lon="104.236234">
<time>2016-10-06T23:50:46Z</time></trkpt>
<trkpt lat="25.311713" lon="104.235774">
<time>2016-10-06T23:50:47Z</time></trkpt>
<trkpt lat="25.311702" lon="104.235404">
<time>2016-10-06T23:50:48Z</time></trkpt>
<trkpt lat="25.311692" lon="104.235174">
<time>2016-10-06T23:50:49Z</time></trkpt>
<trkpt lat="25.311652" lon="104.234874">
<time>2016-10-06T23:50:50Z</time></trkpt>
<trkpt lat="25.311642" lon="104.234344">
<time>2016-10-06T23:50:51Z</time></trkpt>
<trkpt lat="25.311622" lon="104.233913">
<time>2016-10-06T23:50:52Z</time></trkpt>
<trkpt lat="25.311602" lon="104.233623">
<time>2016-10-06T23:50:53Z</time></trkpt>
<trkpt lat="25.311571" lon="104.233423">
<time>2016-10-06T23:50:54Z</time></trkpt>
<trkpt lat="25.311561" lon="104.233293">
<time>2016-10-06T23:50:55Z</time></trkpt>
<trkpt lat="25.311481" lon="104.233013">
<time>2016-10-06T23:50:56Z</time></trkpt>
<trkpt lat="25.311461" lon="104.232903">
<time>2016-10-06T23:50:57Z</time></trkpt>
<trkpt lat="25.311401" lon="104.232743">
<time>2016-10-06T23:50:58Z</time></trkpt>
<trkpt lat="25.311361" lon="104.232553">
<time>2016-10-06T23:50:59Z</time></trkpt>
<trkpt lat="25.311291" lon="104.232393">
<time>2016-10-06T23:51:00Z</time></trkpt>
<trkpt lat="25.311231" lon="104.232223">
<time>2016-10-06T23:51:01Z</time></trkpt>
<trkpt lat="25.311181" lon="104.232063">
<time>2016-10-06T23:51:02Z</time></trkpt>
<trkpt lat="25.311171" lon="104.232003">
<time>2016-10-06T23:51:03Z</time></trkpt>
<trkpt lat="25.31113" lon="104.231593">
<time>2016-10-06T23:51:04Z</time></trkpt>
<trkpt lat="25.31109" lon="104.231343">
<time>2016-10-06T23:51:05Z</time></trkpt>
<trkpt lat="25.31109" lon="104.231173">
<time>2016-10-06T23:51:06Z</time></trkpt>
<trkpt lat="25.31109" lon="104.230933">
<time>2016-10-06T23:51:07Z</time></trkpt>
<trkpt lat="25.31109" lon="104.230833">
<time>2016-10-06T23:51:08Z</time></trkpt>
<trkpt lat="25.31106" lon="104.230592">
<time>2016-10-06T23:51:09Z</time></trkpt>
<trkpt lat="25.31104" lon="104.230412">
<time>2016-10-06T23:51:10Z</time></trkpt>
<trkpt lat="25.31104" lon="104.230332">
<time>2016-10-06T23:51:11Z</time></trkpt>
<trkpt lat="25.311009" lon="104.230212">
<time>2016-10-06T23:51:12Z</time></trkpt>
<trkpt lat="25.310929" lon="104.229992">
<time>2016-10-06T23:51:13Z</time></trkpt>
<trkpt lat="25.310829" lon="104.229782">
<time>2016-10-06T23:51:14Z</time></trkpt>
<trkpt lat="25.310729" lon="104.229612">
<time>2016-10-06T23:51:15Z</time></trkpt>
<trkpt lat="25.310669" lon="104.229402">
<time>2016-10-06T23:51:16Z</time></trkpt>
<trkpt lat="25.310679" lon="104.229232">
<time>2016-10-06T23:51:17Z</time></trkpt>
<trkpt lat="25.310729" lon="104.229052">
<time>2016-10-06T23:51:18Z</time></trkpt>
<trkpt lat="25.310799" lon="104.228912">
<time>2016-10-06T23:51:19Z</time></trkpt>
<trkpt lat="25.310868" lon="104.228622">
<time>2016-10-06T23:51:20Z</time></trkpt>
<trkpt lat="25.310908" lon="104.228552">
<time>2016-10-06T23:51:21Z</time></trkpt>
<trkpt lat="25.310998" lon="104.228282">
<time>2016-10-06T23:51:22Z</time></trkpt>
<trkpt lat="25.310998" lon="104.228091">
<time>2016-10-06T23:51:23Z</time></trkpt>
<trkpt lat="25.311058" lon="104.227701">
<time>2016-10-06T23:51:24Z</time></trkpt>
<trkpt lat="25.311078" lon="104.227581">
<time>2016-10-06T23:51:25Z</time></trkpt>
<trkpt lat="25.311087" lon="104.227371">
<time>2016-10-06T23:51:26Z</time></trkpt>
<trkpt lat="25.311127" lon="104.226921">
<time>2016-10-06T23:51:27Z</time></trkpt>
<trkpt lat="25.311167" lon="104.226521">
<time>2016-10-06T23:51:28Z</time></trkpt>
<trkpt lat="25.311197" lon="104.226291">
<time>2016-10-06T23:51:29Z</time></trkpt>
<trkpt lat="25.311217" lon="104.22613">
<time>2016-10-06T23:51:30Z</time></trkpt>
<trkpt lat="25.311216" lon="104.22606">
<time>2016-10-06T23:51:31Z</time></trkpt>
<trkpt lat="25.311166" lon="104.22571">
<time>2016-10-06T23:51:32Z</time></trkpt>
<trkpt lat="25.311136" lon="104.22521">
<time>2016-10-06T23:51:33Z</time></trkpt>
<trkpt lat="25.311126" lon="104.22498">
<time>2016-10-06T23:51:34Z</time></trkpt>
<trkpt lat="25.311075" lon="104.22453">
<time>2016-10-06T23:51:35Z</time></trkpt>
<trkpt lat="25.311055" lon="104.224329">
<time>2016-10-06T23:51:36Z</time></trkpt>
<trkpt lat="25.311065" lon="104.224229">
<time>2016-10-06T23:51:37Z</time></trkpt>
<trkpt lat="25.311105" lon="104.223779">
<time>2016-10-06T23:51:38Z</time></trkpt>
<trkpt lat="25.311084" lon="104.223669">
<time>2016-10-06T23:51:39Z</time></trkpt>
<trkpt lat="25.311084" lon="104.223609">
<time>2016-10-06T23:51:40Z</time></trkpt>
<trkpt lat="25.311074" lon="104.223499">
<time>2016-10-06T23:51:41Z</time></trkpt>
<trkpt lat="25.311084" lon="104.223419">
<time>2016-10-06T23:51:42Z</time></trkpt>
<trkpt lat="25.311094" lon="104.223249">
<time>2016-10-06T23:51:43Z</time></trkpt>
<trkpt lat="25.311074" lon="104.223059">
<time>2016-10-06T23:51:44Z</time></trkpt>
<trkpt lat="25.311024" lon="104.222949">
<time>2016-10-06T23:51:45Z</time></trkpt>
<trkpt lat="25.310974" lon="104.222788">
<time>2016-10-06T23:51:46Z</time></trkpt>
<trkpt lat="25.310954" lon="104.222638">
<time>2016-10-06T23:51:47Z</time></trkpt>
<trkpt lat="25.310873" lon="104.222458">
<time>2016-10-06T23:51:48Z</time></trkpt>
<trkpt lat="25.310723" lon="104.222088">
<time>2016-10-06T23:51:49Z</time></trkpt>
<trkpt lat="25.310473" lon="104.221758">
<time>2016-10-06T23:51:50Z</time></trkpt>
<trkpt lat="25.310373" lon="104.221548">
<time>2016-10-06T23:51:51Z</time></trkpt>
<trkpt lat="25.310362" lon="104.221428">
<time>2016-10-06T23:51:52Z</time></trkpt>
<trkpt lat="25.310362" lon="104.221207">
<time>2016-10-06T23:51:53Z</time></trkpt>
<trkpt lat="25.310332" lon="104.221037">
<time>2016-10-06T23:51:54Z</time></trkpt>
<trkpt lat="25.310282" lon="104.220857">
<time>2016-10-06T23:51:55Z</time></trkpt>
<trkpt lat="25.310152" lon="104.220567">
<time>2016-10-06T23:51:56Z</time></trkpt>
<trkpt lat="25.310061" lon="104.220247">
<time>2016-10-06T23:51:57Z</time></trkpt>
<trkpt lat="25.310001" lon="104.220016">
<time>2016-10-06T23:51:58Z</time></trkpt>
<trkpt lat="25.309961" lon="104.219836">
<time>2016-10-06T23:51:59Z</time></trkpt>
<trkpt lat="25.30991" lon="104.219456">
<time>2016-10-06T23:52:00Z</time></trkpt>
<trkpt lat="25.30989" lon="104.219176">
<time>2016-10-06T23:52:01Z</time></trkpt>
<trkpt lat="25.30989" lon="104.218946">
<time>2016-10-06T23:52:02Z</time></trkpt>
<trkpt lat="25.3099" lon="104.218796">
<time>2016-10-06T23:52:03Z</time></trkpt>
<trkpt lat="25.3099" lon="104.218675">
<time>2016-10-06T23:52:04Z</time></trkpt>
<trkpt lat="25.309919" lon="104.218525">
<time>2016-10-06T23:52:05Z</time></trkpt>
<trkpt lat="25.309939" lon="104.218435">
<time>2016-10-06T23:52:06Z</time></trkpt>
<trkpt lat="25.309949" lon="104.218315">
<time>2016-10-06T23:52:07Z</time></trkpt>
<trkpt lat="25.310019" lon="104.218085">
<time>2016-10-06T23:52:08Z</time></trkpt>
<trkpt lat="25.310029" lon="104.217955">
<time>2016-10-06T23:52:09Z</time></trkpt>
<trkpt lat="25.309998" lon="104.217605">
<time>2016-10-06T23:52:10Z</time></trkpt>
<trkpt lat="25.309988" lon="104.217074">
<time>2016-10-06T23:52:11Z</time></trkpt>
<trkpt lat="25.309927" lon="104.216644">
<time>2016-10-06T23:52:12Z</time></trkpt>
<trkpt lat="25.309947" lon="104.216153">
<time>2016-10-06T23:52:13Z</time></trkpt>
<trkpt lat="25.310017" lon="104.215933">
<time>2016-10-06T23:52:14Z</time></trkpt>
<trkpt lat="25.310066" lon="104.215673">
<time>2016-10-06T23:52:15Z</time></trkpt>
<trkpt lat="25.310116" lon="104.215292">
<time>2016-10-06T23:52:16Z</time></trkpt>
<trkpt lat="25.310216" lon="104.215042">
<time>2016-10-06T23:52:17Z</time></trkpt>
<trkpt lat="25.310385" lon="104.214652">
<time>2016-10-06T23:52:18Z</time></trkpt>
<trkpt lat="25.310425" lon="104.214462">
<time>2016-10-06T23:52:19Z</time></trkpt>
<trkpt lat="25.310475" lon="104.214281">
<time>2016-10-06T23:52:20Z</time></trkpt>
<trkpt lat="25.310515" lon="104.214151">
<time>2016-10-06T23:52:21Z</time></trkpt>
<trkpt lat="25.310555" lon="104.214061">
<time>2016-10-06T23:52:22Z</time></trkpt>
<trkpt lat="25.310575" lon="104.214031">
<time>2016-10-06T23:52:23Z</time></trkpt>
<trkpt lat="25.310634" lon="104.213931">
<time>2016-10-06T23:52:24Z</time></trkpt>
<trkpt lat="25.310664" lon="104.213861">
<time>2016-10-06T23:52:25Z</time></trkpt>
<trkpt lat="25.310714" lon="104.213691">
<time>2016-10-06T23:52:26Z</time></trkpt>
<trkpt lat="25.310794" lon="104.21333">
<time>2016-10-06T23:52:27Z</time></trkpt>
<trkpt lat="25.310804" lon="104.21323">
<time>2016-10-06T23:52:28Z</time></trkpt>
<trkpt lat="25.310783" lon="104.21292">
<time>2016-10-06T23:52:29Z</time></trkpt>
<trkpt lat="25.310763" lon="104.21281">
<time>2016-10-06T23:52:30Z</time></trkpt>
<trkpt lat="25.310703" lon="104.21246">
<time>2016-10-06T23:52:31Z</time></trkpt>
<trkpt lat="25.310702" lon="104.212319">
<time>2016-10-06T23:52:32Z</time></trkpt>
<trkpt lat="25.310732" lon="104.212159">
<time>2016-10-06T23:52:33Z</time></trkpt>
<trkpt lat="25.310782" lon="104.211989">
<time>2016-10-06T23:52:34Z</time></trkpt>
<trkpt lat="25.310872" lon="104.211679">
<time>2016-10-06T23:52:35Z</time></trkpt>
<trkpt lat="25.310911" lon="104.211148">
<time>2016-10-06T23:52:36Z</time></trkpt>
<trkpt lat="25.310961" lon="104.210778">
<time>2016-10-06T23:52:37Z</time></trkpt>
<trkpt lat="25.311" lon="104.210347">
<time>2016-10-06T23:52:38Z</time></trkpt>
<trkpt lat="25.311" lon="104.210257">
<time>2016-10-06T23:52:39Z</time></trkpt>
<trkpt lat="25.311" lon="104.210257">
<time>2016-10-06T23:52:40Z</time></trkpt>
<trkpt lat="25.311269" lon="104.209306">
<time>2016-10-06T23:52:41Z</time></trkpt>
<trkpt lat="25.311338" lon="104.208625">
<time>2016-10-06T23:52:42Z</time></trkpt>
<trkpt lat="25.311327" lon="104.208165">
<time>2016-10-06T23:52:43Z</time></trkpt>
<trkpt lat="25.311226" lon="104.207584">
<time>2016-10-06T23:52:44Z</time></trkpt>
<trkpt lat="25.310583" lon="104.205532">
<time>2016-10-06T23:52:45Z</time></trkpt>
<trkpt lat="25.30994" lon="104.203509">
<time>2016-10-06T23:52:46Z</time></trkpt>
<trkpt lat="25.309549" lon="104.202247">
<time>2016-10-06T23:52:47Z</time></trkpt>
<trkpt lat="25.308956" lon="104.200355">
<time>2016-10-06T23:52:48Z</time></trkpt>
<trkpt lat="25.308071" lon="104.197691">
<time>2016-10-06T23:52:49Z</time></trkpt>
<trkpt lat="25.30764" lon="104.196529">
<time>2016-10-06T23:52:50Z</time></trkpt>
<trkpt lat="25.307479" lon="104.196289">
<time>2016-10-06T23:52:51Z</time></trkpt>
<trkpt lat="25.307188" lon="104.195818">
<time>2016-10-06T23:52:52Z</time></trkpt>
<trkpt lat="25.306337" lon="104.194767">
<time>2016-10-06T23:52:53Z</time></trkpt>
<trkpt lat="25.305675" lon="104.193936">
<time>2016-10-06T23:52:54Z</time></trkpt>
<trkpt lat="25.305254" lon="104.193485">
<time>2016-10-06T23:52:55Z</time></trkpt>
<trkpt lat="25.304954" lon="104.193094">
<time>2016-10-06T23:52:56Z</time></trkpt>
<trkpt lat="25.304623" lon="104.192523">
<time>2016-10-06T23:52:57Z</time></trkpt>
<trkpt lat="25.304432" lon="104.191923">
<time>2016-10-06T23:52:58Z</time></trkpt>
<trkpt lat="25.304221" lon="104.191382">
<time>2016-10-06T23:52:59Z</time></trkpt>
<trkpt lat="25.30385" lon="104.190721">
<time>2016-10-06T23:53:00Z</time></trkpt>
<trkpt lat="25.303558" lon="104.19005">
<time>2016-10-06T23:53:01Z</time></trkpt>
<trkpt lat="25.303136" lon="104.188848">
<time>2016-10-06T23:53:02Z</time></trkpt>
<trkpt lat="25.302825" lon="104.188327">
<time>2016-10-06T23:53:03Z</time></trkpt>
<trkpt lat="25.301994" lon="104.187445">
<time>2016-10-06T23:53:04Z</time></trkpt>
<trkpt lat="25.300872" lon="104.186324">
<time>2016-10-06T23:53:05Z</time></trkpt>
<trkpt lat="25.300401" lon="104.185963">
<time>2016-10-06T23:53:06Z</time></trkpt>
<trkpt lat="25.29977" lon="104.185713">
<time>2016-10-06T23:53:07Z</time></trkpt>
<trkpt lat="25.29972" lon="104.185693">
<time>2016-10-06T23:53:08Z</time></trkpt>
<trkpt lat="25.29959" lon="104.185693">
<time>2016-10-06T23:53:09Z</time></trkpt>
<trkpt lat="25.29943" lon="104.185703">
<time>2016-10-06T23:53:10Z</time></trkpt>
<trkpt lat="25.29943" lon="104.185703">
<time>2016-10-06T23:53:11Z</time></trkpt>
<trkpt lat="25.29942" lon="104.185632">
<time>2016-10-06T23:53:12Z</time></trkpt>
<trkpt lat="25.29939" lon="104.185492">
<time>2016-10-06T23:53:13Z</time></trkpt>
<trkpt lat="25.29935" lon="104.185392">
<time>2016-10-06T23:53:14Z</time></trkpt>
<trkpt lat="25.29928" lon="104.185282">
<time>2016-10-06T23:53:15Z</time></trkpt>
<trkpt lat="25.299219" lon="104.185182">
<time>2016-10-06T23:53:16Z</time></trkpt>
<trkpt lat="25.299049" lon="104.184931">
<time>2016-10-06T23:53:17Z</time></trkpt>
<trkpt lat="25.299019" lon="104.184801">
<time>2016-10-06T23:53:18Z</time></trkpt>
<trkpt lat="25.298948" lon="104.184651">
<time>2016-10-06T23:53:19Z</time></trkpt>
<trkpt lat="25.298888" lon="104.184541">
<time>2016-10-06T23:53:20Z</time></trkpt>
<trkpt lat="25.298788" lon="104.1844">
<time>2016-10-06T23:53:21Z</time></trkpt>
<trkpt lat="25.298728" lon="104.18435">
<time>2016-10-06T23:53:22Z</time></trkpt>
<trkpt lat="25.298638" lon="104.18431">
<time>2016-10-06T23:53:23Z</time></trkpt>
<trkpt lat="25.298578" lon="104.18433">
<time>2016-10-06T23:53:24Z</time></trkpt>
<trkpt lat="25.298418" lon="104.18435">
<time>2016-10-06T23:53:25Z</time></trkpt>
<trkpt lat="25.298258" lon="104.18438">
<time>2016-10-06T23:53:26Z</time></trkpt>
<trkpt lat="25.298098" lon="104.18445">
<time>2016-10-06T23:53:27Z</time></trkpt>
<trkpt lat="25.297988" lon="104.18444">
<time>2016-10-06T23:53:28Z</time></trkpt>
<trkpt lat="25.297878" lon="104.18443">
<time>2016-10-06T23:53:29Z</time></trkpt>
<trkpt lat="25.297718" lon="104.18443">
<time>2016-10-06T23:53:30Z</time></trkpt>
<trkpt lat="25.297428" lon="104.18434">
<time>2016-10-06T23:53:31Z</time></trkpt>
<trkpt lat="25.297138" lon="104.1842">
<time>2016-10-06T23:53:32Z</time></trkpt>
<trkpt lat="25.296737" lon="104.18405">
<time>2016-10-06T23:53:33Z</time></trkpt>
<trkpt lat="25.296607" lon="104.18397">
<time>2016-10-06T23:53:34Z</time></trkpt>
<trkpt lat="25.296557" lon="104.18394">
<time>2016-10-06T23:53:35Z</time></trkpt>
<trkpt lat="25.296487" lon="104.1839">
<time>2016-10-06T23:53:36Z</time></trkpt>
<trkpt lat="25.296197" lon="104.183679">
<time>2016-10-06T23:53:37Z</time></trkpt>
<trkpt lat="25.295796" lon="104.183369">
<time>2016-10-06T23:53:38Z</time></trkpt>
<trkpt lat="25.295656" lon="104.183279">
<time>2016-10-06T23:53:39Z</time></trkpt>
<trkpt lat="25.295436" lon="104.183229">
<time>2016-10-06T23:53:40Z</time></trkpt>
<trkpt lat="25.295376" lon="104.183208">
<time>2016-10-06T23:53:41Z</time></trkpt>
<trkpt lat="25.295296" lon="104.183198">
<time>2016-10-06T23:53:42Z</time></trkpt>
<trkpt lat="25.295216" lon="104.183188">
<time>2016-10-06T23:53:43Z</time></trkpt>
<trkpt lat="25.295126" lon="104.183208">
<time>2016-10-06T23:53:44Z</time></trkpt>
<trkpt lat="25.295026" lon="104.183198">
<time>2016-10-06T23:53:45Z</time></trkpt>
<trkpt lat="25.294946" lon="104.183208">
<time>2016-10-06T23:53:46Z</time></trkpt>
<trkpt lat="25.294786" lon="104.183188">
<time>2016-10-06T23:53:47Z</time></trkpt>
<trkpt lat="25.294696" lon="104.183208">
<time>2016-10-06T23:53:48Z</time></trkpt>
<trkpt lat="25.294475" lon="104.183128">
<time>2016-10-06T23:53:49Z</time></trkpt>
<trkpt lat="25.294425" lon="104.183108">
<time>2016-10-06T23:53:50Z</time></trkpt>
<trkpt lat="25.294365" lon="104.183078">
<time>2016-10-06T23:53:51Z</time></trkpt>
<trkpt lat="25.294225" lon="104.183028">
<time>2016-10-06T23:53:52Z</time></trkpt>
<trkpt lat="25.294195" lon="104.183028">
<time>2016-10-06T23:53:53Z</time></trkpt>
<trkpt lat="25.294065" lon="104.182998">
<time>2016-10-06T23:53:54Z</time></trkpt>
<trkpt lat="25.293925" lon="104.182958">
<time>2016-10-06T23:53:55Z</time></trkpt>
<trkpt lat="25.293725" lon="104.182838">
<time>2016-10-06T23:53:56Z</time></trkpt>
<trkpt lat="25.293635" lon="104.182788">
<time>2016-10-06T23:53:57Z</time></trkpt>
<trkpt lat="25.293595" lon="104.182768">
<time>2016-10-06T23:53:58Z</time></trkpt>
<trkpt lat="25.293535" lon="104.182738">
<time>2016-10-06T23:53:59Z</time></trkpt>
<trkpt lat="25.293435" lon="104.182688">
<time>2016-10-06T23:54:00Z</time></trkpt>
<trkpt lat="25.293284" lon="104.182577">
<time>2016-10-06T23:54:01Z</time></trkpt>
<trkpt lat="25.292804" lon="104.182397">
<time>2016-10-06T23:54:02Z</time></trkpt>
<trkpt lat="25.292694" lon="104.182337">
<time>2016-10-06T23:54:03Z</time></trkpt>
<trkpt lat="25.292624" lon="104.182317">
<time>2016-10-06T23:54:04Z</time></trkpt>
<trkpt lat="25.292514" lon="104.182277">
<time>2016-10-06T23:54:05Z</time></trkpt>
<trkpt lat="25.292414" lon="104.182197">
<time>2016-10-06T23:54:06Z</time></trkpt>
<trkpt lat="25.292333" lon="104.182127">
<time>2016-10-06T23:54:07Z</time></trkpt>
<trkpt lat="25.292223" lon="104.182017">
<time>2016-10-06T23:54:08Z</time></trkpt>
<trkpt lat="25.292163" lon="104.181916">
<time>2016-10-06T23:54:09Z</time></trkpt>
<trkpt lat="25.292103" lon="104.181806">
<time>2016-10-06T23:54:10Z</time></trkpt>
<trkpt lat="25.291982" lon="104.181586">
<time>2016-10-06T23:54:11Z</time></trkpt>
<trkpt lat="25.291882" lon="104.181315">
<time>2016-10-06T23:54:12Z</time></trkpt>
<trkpt lat="25.291691" lon="104.180905">
<time>2016-10-06T23:54:13Z</time></trkpt>
<trkpt lat="25.29154" lon="104.180524">
<time>2016-10-06T23:54:14Z</time></trkpt>
<trkpt lat="25.29134" lon="104.180093">
<time>2016-10-06T23:54:15Z</time></trkpt>
<trkpt lat="25.291089" lon="104.179602">
<time>2016-10-06T23:54:16Z</time></trkpt>
<trkpt lat="25.290958" lon="104.179412">
<time>2016-10-06T23:54:17Z</time></trkpt>
<trkpt lat="25.290938" lon="104.179312">
<time>2016-10-06T23:54:18Z</time></trkpt>
<trkpt lat="25.290818" lon="104.179041">
<time>2016-10-06T23:54:19Z</time></trkpt>
<trkpt lat="25.290697" lon="104.178861">
<time>2016-10-06T23:54:20Z</time></trkpt>
<trkpt lat="25.290687" lon="104.178771">
<time>2016-10-06T23:54:21Z</time></trkpt>
<trkpt lat="25.290657" lon="104.178691">
<time>2016-10-06T23:54:22Z</time></trkpt>
<trkpt lat="25.290567" lon="104.178541">
<time>2016-10-06T23:54:23Z</time></trkpt>
<trkpt lat="25.290436" lon="104.17832">
<time>2016-10-06T23:54:24Z</time></trkpt>
<trkpt lat="25.290216" lon="104.17801">
<time>2016-10-06T23:54:25Z</time></trkpt>
<trkpt lat="25.289965" lon="104.177649">
<time>2016-10-06T23:54:26Z</time></trkpt>
<trkpt lat="25.289694" lon="104.177298">
<time>2016-10-06T23:54:27Z</time></trkpt>
<trkpt lat="25.289354" lon="104.176978">
<time>2016-10-06T23:54:28Z</time></trkpt>
<trkpt lat="25.289003" lon="104.176657">
<time>2016-10-06T23:54:29Z</time></trkpt>
<trkpt lat="25.288893" lon="104.176537">
<time>2016-10-06T23:54:30Z</time></trkpt>
<trkpt lat="25.288813" lon="104.176457">
<time>2016-10-06T23:54:31Z</time></trkpt>
<trkpt lat="25.288713" lon="104.176387">
<time>2016-10-06T23:54:32Z</time></trkpt>
<trkpt lat="25.288532" lon="104.176176">
<time>2016-10-06T23:54:33Z</time></trkpt>
<trkpt lat="25.288472" lon="104.176056">
<time>2016-10-06T23:54:34Z</time></trkpt>
<trkpt lat="25.288382" lon="104.175946">
<time>2016-10-06T23:54:35Z</time></trkpt>
<trkpt lat="25.287981" lon="104.175495">
<time>2016-10-06T23:54:36Z</time></trkpt>
<trkpt lat="25.28775" lon="104.175285">
<time>2016-10-06T23:54:37Z</time></trkpt>
<trkpt lat="25.28743" lon="104.175034">
<time>2016-10-06T23:54:38Z</time></trkpt>
<trkpt lat="25.287089" lon="104.174724">
<time>2016-10-06T23:54:39Z</time></trkpt>
<trkpt lat="25.286819" lon="104.174433">
<time>2016-10-06T23:54:40Z</time></trkpt>
<trkpt lat="25.286618" lon="104.174153">
<time>2016-10-06T23:54:41Z</time></trkpt>
<trkpt lat="25.286398" lon="104.173772">
<time>2016-10-06T23:54:42Z</time></trkpt>
<trkpt lat="25.286137" lon="104.173361">
<time>2016-10-06T23:54:43Z</time></trkpt>
<trkpt lat="25.285846" lon="104.17282">
<time>2016-10-06T23:54:44Z</time></trkpt>
<trkpt lat="25.285765" lon="104.1727">
<time>2016-10-06T23:54:45Z</time></trkpt>
<trkpt lat="25.285725" lon="104.17262">
<time>2016-10-06T23:54:46Z</time></trkpt>
<trkpt lat="25.285545" lon="104.17229">
<time>2016-10-06T23:54:47Z</time></trkpt>
<trkpt lat="25.285404" lon="104.172009">
<time>2016-10-06T23:54:48Z</time></trkpt>
<trkpt lat="25.285123" lon="104.171598">
<time>2016-10-06T23:54:49Z</time></trkpt>
<trkpt lat="25.284993" lon="104.171368">
<time>2016-10-06T23:54:50Z</time></trkpt>
<trkpt lat="25.284963" lon="104.171268">
<time>2016-10-06T23:54:51Z</time></trkpt>
<trkpt lat="25.284852" lon="104.171077">
<time>2016-10-06T23:54:52Z</time></trkpt>
<trkpt lat="25.284752" lon="104.170877">
<time>2016-10-06T23:54:53Z</time></trkpt>
<trkpt lat="25.284662" lon="104.170677">
<time>2016-10-06T23:54:54Z</time></trkpt>
<trkpt lat="25.284441" lon="104.170186">
<time>2016-10-06T23:54:55Z</time></trkpt>
<trkpt lat="25.28434" lon="104.170036">
<time>2016-10-06T23:54:56Z</time></trkpt>
<trkpt lat="25.28427" lon="104.169805">
<time>2016-10-06T23:54:57Z</time></trkpt>
<trkpt lat="25.28421" lon="104.169695">
<time>2016-10-06T23:54:58Z</time></trkpt>
<trkpt lat="25.28418" lon="104.169605">
<time>2016-10-06T23:54:59Z</time></trkpt>
<trkpt lat="25.284109" lon="104.169475">
<time>2016-10-06T23:55:00Z</time></trkpt>
<trkpt lat="25.284049" lon="104.169344">
<time>2016-10-06T23:55:01Z</time></trkpt>
<trkpt lat="25.283919" lon="104.169164">
<time>2016-10-06T23:55:02Z</time></trkpt>
<trkpt lat="25.283818" lon="104.168863">
<time>2016-10-06T23:55:03Z</time></trkpt>
<trkpt lat="25.283738" lon="104.168783">
<time>2016-10-06T23:55:04Z</time></trkpt>
<trkpt lat="25.283698" lon="104.168703">
<time>2016-10-06T23:55:05Z</time></trkpt>
<trkpt lat="25.283557" lon="104.168443">
<time>2016-10-06T23:55:06Z</time></trkpt>
<trkpt lat="25.283417" lon="104.168112">
<time>2016-10-06T23:55:07Z</time></trkpt>
<trkpt lat="25.283366" lon="104.167962">
<time>2016-10-06T23:55:08Z</time></trkpt>
<trkpt lat="25.283336" lon="104.167892">
<time>2016-10-06T23:55:09Z</time></trkpt>
<trkpt lat="25.283276" lon="104.167812">
<time>2016-10-06T23:55:10Z</time></trkpt>
<trkpt lat="25.283186" lon="104.167621">
<time>2016-10-06T23:55:11Z</time></trkpt>
<trkpt lat="25.283095" lon="104.167381">
<time>2016-10-06T23:55:12Z</time></trkpt>
<trkpt lat="25.282985" lon="104.16717">
<time>2016-10-06T23:55:13Z</time></trkpt>
<trkpt lat="25.282955" lon="104.1671">
<time>2016-10-06T23:55:14Z</time></trkpt>
<trkpt lat="25.282915" lon="104.16699">
<time>2016-10-06T23:55:15Z</time></trkpt>
<trkpt lat="25.282784" lon="104.16668">
<time>2016-10-06T23:55:16Z</time></trkpt>
<trkpt lat="25.282744" lon="104.166639">
<time>2016-10-06T23:55:17Z</time></trkpt>
<trkpt lat="25.282663" lon="104.166429">
<time>2016-10-06T23:55:18Z</time></trkpt>
<trkpt lat="25.282613" lon="104.166349">
<time>2016-10-06T23:55:19Z</time></trkpt>
<trkpt lat="25.282533" lon="104.166219">
<time>2016-10-06T23:55:20Z</time></trkpt>
<trkpt lat="25.282483" lon="104.166088">
<time>2016-10-06T23:55:21Z</time></trkpt>
<trkpt lat="25.282463" lon="104.166048">
<time>2016-10-06T23:55:22Z</time></trkpt>
<trkpt lat="25.282383" lon="104.165988">
<time>2016-10-06T23:55:23Z</time></trkpt>
<trkpt lat="25.282122" lon="104.165588">
<time>2016-10-06T23:55:24Z</time></trkpt>
<trkpt lat="25.282052" lon="104.165467">
<time>2016-10-06T23:55:25Z</time></trkpt>
<trkpt lat="25.281961" lon="104.165347">
<time>2016-10-06T23:55:26Z</time></trkpt>
<trkpt lat="25.281871" lon="104.165217">
<time>2016-10-06T23:55:27Z</time></trkpt>
<trkpt lat="25.281831" lon="104.165127">
<time>2016-10-06T23:55:28Z</time></trkpt>
<trkpt lat="25.281731" lon="104.164966">
<time>2016-10-06T23:55:29Z</time></trkpt>
<trkpt lat="25.28164" lon="104.164806">
<time>2016-10-06T23:55:30Z</time></trkpt>
<trkpt lat="25.28155" lon="104.164516">
<time>2016-10-06T23:55:31Z</time></trkpt>
<trkpt lat="25.281459" lon="104.164335">
<time>2016-10-06T23:55:32Z</time></trkpt>
<trkpt lat="25.281379" lon="104.164175">
<time>2016-10-06T23:55:33Z</time></trkpt>
<trkpt lat="25.281329" lon="104.164115">
<time>2016-10-06T23:55:34Z</time></trkpt>
<trkpt lat="25.281309" lon="104.164005">
<time>2016-10-06T23:55:35Z</time></trkpt>
<trkpt lat="25.281148" lon="104.163734">
<time>2016-10-06T23:55:36Z</time></trkpt>
<trkpt lat="25.281108" lon="104.163624">
<time>2016-10-06T23:55:37Z</time></trkpt>
<trkpt lat="25.281058" lon="104.163544">
<time>2016-10-06T23:55:38Z</time></trkpt>
<trkpt lat="25.280988" lon="104.163464">
<time>2016-10-06T23:55:39Z</time></trkpt>
<trkpt lat="25.280907" lon="104.163263">
<time>2016-10-06T23:55:40Z</time></trkpt>
<trkpt lat="25.280847" lon="104.163173">
<time>2016-10-06T23:55:41Z</time></trkpt>
<trkpt lat="25.280737" lon="104.162963">
<time>2016-10-06T23:55:42Z</time></trkpt>
<trkpt lat="25.280647" lon="104.162823">
<time>2016-10-06T23:55:43Z</time></trkpt>
<trkpt lat="25.280606" lon="104.162712">
<time>2016-10-06T23:55:44Z</time></trkpt>
<trkpt lat="25.280566" lon="104.162592">
<time>2016-10-06T23:55:45Z</time></trkpt>
<trkpt lat="25.280476" lon="104.162402">
<time>2016-10-06T23:55:46Z</time></trkpt>
<trkpt lat="25.280195" lon="104.161871">
<time>2016-10-06T23:55:47Z</time></trkpt>
<trkpt lat="25.280095" lon="104.161791">
<time>2016-10-06T23:55:48Z</time></trkpt>
<trkpt lat="25.280095" lon="104.161791">
<time>2016-10-06T23:55:49Z</time></trkpt>
<trkpt lat="25.279803" lon="104.160689">
<time>2016-10-06T23:55:50Z</time></trkpt>
<trkpt lat="25.279721" lon="104.159938">
<time>2016-10-06T23:55:51Z</time></trkpt>
<trkpt lat="25.279739" lon="104.158906">
<time>2016-10-06T23:55:52Z</time></trkpt>
<trkpt lat="25.280114" lon="104.156271">
<time>2016-10-06T23:55:53Z</time></trkpt>
<trkpt lat="25.280361" lon="104.154348">
<time>2016-10-06T23:55:54Z</time></trkpt>
<trkpt lat="25.28051" lon="104.153717">
<time>2016-10-06T23:55:55Z</time></trkpt>
<trkpt lat="25.280719" lon="104.153256">
<time>2016-10-06T23:55:56Z</time></trkpt>
<trkpt lat="25.281108" lon="104.152725">
<time>2016-10-06T23:55:57Z</time></trkpt>
<trkpt lat="25.281997" lon="104.151883">
<time>2016-10-06T23:55:58Z</time></trkpt>
<trkpt lat="25.283714" lon="104.150231">
<time>2016-10-06T23:55:59Z</time></trkpt>
<trkpt lat="25.283903" lon="104.14986">
<time>2016-10-06T23:56:00Z</time></trkpt>
<trkpt lat="25.284072" lon="104.149279">
<time>2016-10-06T23:56:01Z</time></trkpt>
<trkpt lat="25.284102" lon="104.149069">
<time>2016-10-06T23:56:02Z</time></trkpt>
<trkpt lat="25.284102" lon="104.148858">
<time>2016-10-06T23:56:03Z</time></trkpt>
<trkpt lat="25.284091" lon="104.148778">
<time>2016-10-06T23:56:04Z</time></trkpt>
<trkpt lat="25.284061" lon="104.148538">
<time>2016-10-06T23:56:05Z</time></trkpt>
<trkpt lat="25.283858" lon="104.146925">
<time>2016-10-06T23:56:06Z</time></trkpt>
<trkpt lat="25.283717" lon="104.146164">
<time>2016-10-06T23:56:07Z</time></trkpt>
<trkpt lat="25.283556" lon="104.145633">
<time>2016-10-06T23:56:08Z</time></trkpt>
<trkpt lat="25.283305" lon="104.145042">
<time>2016-10-06T23:56:09Z</time></trkpt>
<trkpt lat="25.282844" lon="104.144181">
<time>2016-10-06T23:56:10Z</time></trkpt>
<trkpt lat="25.282322" lon="104.143199">
<time>2016-10-06T23:56:11Z</time></trkpt>
<trkpt lat="25.281911" lon="104.142398">
<time>2016-10-06T23:56:12Z</time></trkpt>
<trkpt lat="25.2817" lon="104.141918">
<time>2016-10-06T23:56:13Z</time></trkpt>
<trkpt lat="25.281609" lon="104.141517">
<time>2016-10-06T23:56:14Z</time></trkpt>
<trkpt lat="25.281568" lon="104.140966">
<time>2016-10-06T23:56:15Z</time></trkpt>
<trkpt lat="25.281477" lon="104.140375">
<time>2016-10-06T23:56:16Z</time></trkpt>
<trkpt lat="25.281267" lon="104.139814">
<time>2016-10-06T23:56:17Z</time></trkpt>
<trkpt lat="25.280935" lon="104.139133">
<time>2016-10-06T23:56:18Z</time></trkpt>
<trkpt lat="25.280414" lon="104.137902">
<time>2016-10-06T23:56:19Z</time></trkpt>
<trkpt lat="25.280082" lon="104.1369">
<time>2016-10-06T23:56:20Z</time></trkpt>
<trkpt lat="25.279841" lon="104.13639">
<time>2016-10-06T23:56:21Z</time></trkpt>
<trkpt lat="25.279471" lon="104.135879">
<time>2016-10-06T23:56:22Z</time></trkpt>
<trkpt lat="25.27898" lon="104.135298">
<time>2016-10-06T23:56:23Z</time></trkpt>
<trkpt lat="25.278539" lon="104.134778">
<time>2016-10-06T23:56:24Z</time></trkpt>
<trkpt lat="25.278238" lon="104.134287">
<time>2016-10-06T23:56:25Z</time></trkpt>
<trkpt lat="25.278027" lon="104.133736">
<time>2016-10-06T23:56:26Z</time></trkpt>
<trkpt lat="25.277857" lon="104.133176">
<time>2016-10-06T23:56:27Z</time></trkpt>
<trkpt lat="25.277616" lon="104.132815">
<time>2016-10-06T23:56:28Z</time></trkpt>
<trkpt lat="25.277286" lon="104.132575">
<time>2016-10-06T23:56:29Z</time></trkpt>
<trkpt lat="25.276766" lon="104.132405">
<time>2016-10-06T23:56:30Z</time></trkpt>
<trkpt lat="25.275835" lon="104.132174">
<time>2016-10-06T23:56:31Z</time></trkpt>
<trkpt lat="25.275345" lon="104.131904">
<time>2016-10-06T23:56:32Z</time></trkpt>
<trkpt lat="25.274964" lon="104.131504">
<time>2016-10-06T23:56:33Z</time></trkpt>
<trkpt lat="25.274694" lon="104.131013">
<time>2016-10-06T23:56:34Z</time></trkpt>
<trkpt lat="25.274543" lon="104.130382">
<time>2016-10-06T23:56:35Z</time></trkpt>
<trkpt lat="25.274432" lon="104.129751">
<time>2016-10-06T23:56:36Z</time></trkpt>
<trkpt lat="25.274291" lon="104.129361">
<time>2016-10-06T23:56:37Z</time></trkpt>
<trkpt lat="25.274281" lon="104.129191">
<time>2016-10-06T23:56:38Z</time></trkpt>
<trkpt lat="25.274201" lon="104.12885">
<time>2016-10-06T23:56:39Z</time></trkpt>
<trkpt lat="25.27406" lon="104.12856">
<time>2016-10-06T23:56:40Z</time></trkpt>
<trkpt lat="25.27398" lon="104.12841">
<time>2016-10-06T23:56:41Z</time></trkpt>
<trkpt lat="25.27386" lon="104.12822">
<time>2016-10-06T23:56:42Z</time></trkpt>
<trkpt lat="25.27372" lon="104.127989">
<time>2016-10-06T23:56:43Z</time></trkpt>
<trkpt lat="25.27366" lon="104.127919">
<time>2016-10-06T23:56:44Z</time></trkpt>
<trkpt lat="25.27363" lon="104.127849">
<time>2016-10-06T23:56:45Z</time></trkpt>
<trkpt lat="25.273589" lon="104.127789">
<time>2016-10-06T23:56:46Z</time></trkpt>
<trkpt lat="25.273569" lon="104.127719">
<time>2016-10-06T23:56:47Z</time></trkpt>
<trkpt lat="25.273369" lon="104.127399">
<time>2016-10-06T23:56:48Z</time></trkpt>
<trkpt lat="25.273329" lon="104.127289">
<time>2016-10-06T23:56:49Z</time></trkpt>
<trkpt lat="25.273309" lon="104.127088">
<time>2016-10-06T23:56:50Z</time></trkpt>
<trkpt lat="25.273329" lon="104.127018">
<time>2016-10-06T23:56:51Z</time></trkpt>
<trkpt lat="25.273338" lon="104.126718">
<time>2016-10-06T23:56:52Z</time></trkpt>
<trkpt lat="25.273358" lon="104.126318">
<time>2016-10-06T23:56:53Z</time></trkpt>
<trkpt lat="25.273377" lon="104.125947">
<time>2016-10-06T23:56:54Z</time></trkpt>
<trkpt lat="25.273487" lon="104.125577">
<time>2016-10-06T23:56:55Z</time></trkpt>
<trkpt lat="25.273556" lon="104.125267">
<time>2016-10-06T23:56:56Z</time></trkpt>
<trkpt lat="25.273606" lon="104.125146">
<time>2016-10-06T23:56:57Z</time></trkpt>
<trkpt lat="25.273636" lon="104.125016">
<time>2016-10-06T23:56:58Z</time></trkpt>
<trkpt lat="25.273656" lon="104.124886">
<time>2016-10-06T23:56:59Z</time></trkpt>
<trkpt lat="25.273716" lon="104.124706">
<time>2016-10-06T23:57:00Z</time></trkpt>
<trkpt lat="25.273766" lon="104.124546">
<time>2016-10-06T23:57:01Z</time></trkpt>
<trkpt lat="25.273795" lon="104.124366">
<time>2016-10-06T23:57:02Z</time></trkpt>
<trkpt lat="25.273855" lon="104.123905">
<time>2016-10-06T23:57:03Z</time></trkpt>
<trkpt lat="25.273925" lon="104.123595">
<time>2016-10-06T23:57:04Z</time></trkpt>
<trkpt lat="25.274044" lon="104.123094">
<time>2016-10-06T23:57:05Z</time></trkpt>
<trkpt lat="25.274064" lon="104.122854">
<time>2016-10-06T23:57:06Z</time></trkpt>
<trkpt lat="25.274074" lon="104.122604">
<time>2016-10-06T23:57:07Z</time></trkpt>
<trkpt lat="25.274013" lon="104.122103">
<time>2016-10-06T23:57:08Z</time></trkpt>
<trkpt lat="25.273943" lon="104.121853">
<time>2016-10-06T23:57:09Z</time></trkpt>
<trkpt lat="25.273762" lon="104.121373">
<time>2016-10-06T23:57:10Z</time></trkpt>
<trkpt lat="25.273692" lon="104.121113">
<time>2016-10-06T23:57:11Z</time></trkpt>
<trkpt lat="25.273632" lon="104.120642">
<time>2016-10-06T23:57:12Z</time></trkpt>
<trkpt lat="25.273661" lon="104.120342">
<time>2016-10-06T23:57:13Z</time></trkpt>
<trkpt lat="25.273741" lon="104.119771">
<time>2016-10-06T23:57:14Z</time></trkpt>
<trkpt lat="25.27383" lon="104.119041">
<time>2016-10-06T23:57:15Z</time></trkpt>
<trkpt lat="25.27397" lon="104.11852">
<time>2016-10-06T23:57:16Z</time></trkpt>
<trkpt lat="25.274069" lon="104.11811">
<time>2016-10-06T23:57:17Z</time></trkpt>
<trkpt lat="25.274129" lon="104.11784">
<time>2016-10-06T23:57:18Z</time></trkpt>
<trkpt lat="25.274089" lon="104.11762">
<time>2016-10-06T23:57:19Z</time></trkpt>
<trkpt lat="25.274059" lon="104.11758">
<time>2016-10-06T23:57:20Z</time></trkpt>
<trkpt lat="25.273949" lon="104.11745">
<time>2016-10-06T23:57:21Z</time></trkpt>
<trkpt lat="25.273818" lon="104.1173">
<time>2016-10-06T23:57:22Z</time></trkpt>
<trkpt lat="25.273738" lon="104.117219">
<time>2016-10-06T23:57:23Z</time></trkpt>
<trkpt lat="25.273628" lon="104.117099">
<time>2016-10-06T23:57:24Z</time></trkpt>
<trkpt lat="25.273578" lon="104.117029">
<time>2016-10-06T23:57:25Z</time></trkpt>
<trkpt lat="25.273458" lon="104.116849">
<time>2016-10-06T23:57:26Z</time></trkpt>
<trkpt lat="25.273408" lon="104.116799">
<time>2016-10-06T23:57:27Z</time></trkpt>
<trkpt lat="25.273408" lon="104.116799">
<time>2016-10-06T23:57:28Z</time></trkpt>
<trkpt lat="25.272898" lon="104.116399">
<time>2016-10-06T23:57:29Z</time></trkpt>
<trkpt lat="25.272687" lon="104.116039">
<time>2016-10-06T23:57:30Z</time></trkpt>
<trkpt lat="25.272627" lon="104.115598">
<time>2016-10-06T23:57:31Z</time></trkpt>
<trkpt lat="25.272636" lon="104.114488">
<time>2016-10-06T23:57:32Z</time></trkpt>
<trkpt lat="25.272635" lon="104.113667">
<time>2016-10-06T23:57:33Z</time></trkpt>
<trkpt lat="25.272565" lon="104.113177">
<time>2016-10-06T23:57:34Z</time></trkpt>
<trkpt lat="25.272375" lon="104.112697">
<time>2016-10-06T23:57:35Z</time></trkpt>
<trkpt lat="25.271984" lon="104.112216">
<time>2016-10-06T23:57:36Z</time></trkpt>
<trkpt lat="25.271524" lon="104.111906">
<time>2016-10-06T23:57:37Z</time></trkpt>
<trkpt lat="25.270964" lon="104.111766">
<time>2016-10-06T23:57:38Z</time></trkpt>
<trkpt lat="25.270384" lon="104.111686">
<time>2016-10-06T23:57:39Z</time></trkpt>
<trkpt lat="25.269914" lon="104.111496">
<time>2016-10-06T23:57:40Z</time></trkpt>
<trkpt lat="25.269514" lon="104.111136">
<time>2016-10-06T23:57:41Z</time></trkpt>
<trkpt lat="25.267722" lon="104.109295">
<time>2016-10-06T23:57:42Z</time></trkpt>
<trkpt lat="25.267252" lon="104.108925">
<time>2016-10-06T23:57:43Z</time></trkpt>
<trkpt lat="25.266742" lon="104.108775">
<time>2016-10-06T23:57:44Z</time></trkpt>
<trkpt lat="25.266092" lon="104.108835">
<time>2016-10-06T23:57:45Z</time></trkpt>
<trkpt lat="25.265382" lon="104.108975">
<time>2016-10-06T23:57:46Z</time></trkpt>
<trkpt lat="25.264872" lon="104.109065">
<time>2016-10-06T23:57:47Z</time></trkpt>
<trkpt lat="25.264342" lon="104.109055">
<time>2016-10-06T23:57:48Z</time></trkpt>
<trkpt lat="25.263262" lon="104.108775">
<time>2016-10-06T23:57:49Z</time></trkpt>
<trkpt lat="25.262032" lon="104.108405">
<time>2016-10-06T23:57:50Z</time></trkpt>
<trkpt lat="25.261902" lon="104.108315">
<time>2016-10-06T23:57:51Z</time></trkpt>
<trkpt lat="25.261612" lon="104.108145">
<time>2016-10-06T23:57:52Z</time></trkpt>
<trkpt lat="25.261381" lon="104.107845">
<time>2016-10-06T23:57:53Z</time></trkpt>
<trkpt lat="25.261231" lon="104.107415">
<time>2016-10-06T23:57:54Z</time></trkpt>
<trkpt lat="25.261141" lon="104.106745">
<time>2016-10-06T23:57:55Z</time></trkpt>
<trkpt lat="25.26104" lon="104.105844">
<time>2016-10-06T23:57:56Z</time></trkpt>
<trkpt lat="25.26095" lon="104.105454">
<time>2016-10-06T23:57:57Z</time></trkpt>
<trkpt lat="25.260319" lon="104.103214">
<time>2016-10-06T23:57:58Z</time></trkpt>
<trkpt lat="25.260049" lon="104.102334">
<time>2016-10-06T23:57:59Z</time></trkpt>
<trkpt lat="25.259799" lon="104.101804">
<time>2016-10-06T23:58:00Z</time></trkpt>
<trkpt lat="25.259409" lon="104.101394">
<time>2016-10-06T23:58:01Z</time></trkpt>
<trkpt lat="25.258809" lon="104.101054">
<time>2016-10-06T23:58:02Z</time></trkpt>
<trkpt lat="25.258319" lon="104.100754">
<time>2016-10-06T23:58:03Z</time></trkpt>
<trkpt lat="25.258029" lon="104.100414">
<time>2016-10-06T23:58:04Z</time></trkpt>
<trkpt lat="25.257338" lon="104.098974">
<time>2016-10-06T23:58:05Z</time></trkpt>
<trkpt lat="25.257108" lon="104.098394">
<time>2016-10-06T23:58:06Z</time></trkpt>
<trkpt lat="25.257028" lon="104.097934">
<time>2016-10-06T23:58:07Z</time></trkpt>
<trkpt lat="25.257018" lon="104.097024">
<time>2016-10-06T23:58:08Z</time></trkpt>
<trkpt lat="25.257008" lon="104.094905">
<time>2016-10-06T23:58:09Z</time></trkpt>
<trkpt lat="25.257058" lon="104.093745">
<time>2016-10-06T23:58:10Z</time></trkpt>
<trkpt lat="25.257148" lon="104.092835">
<time>2016-10-06T23:58:11Z</time></trkpt>
<trkpt lat="25.257188" lon="104.092425">
<time>2016-10-06T23:58:12Z</time></trkpt>
<trkpt lat="25.257359" lon="104.091346">
<time>2016-10-06T23:58:13Z</time></trkpt>
<trkpt lat="25.257439" lon="104.090556">
<time>2016-10-06T23:58:14Z</time></trkpt>
<trkpt lat="25.257349" lon="104.089926">
<time>2016-10-06T23:58:15Z</time></trkpt>
<trkpt lat="25.257349" lon="104.089916">
<time>2016-10-06T23:58:16Z</time></trkpt>
<trkpt lat="25.257069" lon="104.089357">
<time>2016-10-06T23:58:17Z</time></trkpt>
<trkpt lat="25.256189" lon="104.088267">
<time>2016-10-06T23:58:18Z</time></trkpt>
<trkpt lat="25.25554" lon="104.087498">
<time>2016-10-06T23:58:19Z</time></trkpt>
<trkpt lat="25.25562" lon="104.087098">
<time>2016-10-06T23:58:20Z</time></trkpt>
<trkpt lat="25.25562" lon="104.086658">
<time>2016-10-06T23:58:21Z</time></trkpt>
<trkpt lat="25.25559" lon="104.086518">
<time>2016-10-06T23:58:22Z</time></trkpt>
<trkpt lat="25.25543" lon="104.086309">
<time>2016-10-06T23:58:23Z</time></trkpt>
<trkpt lat="25.25519" lon="104.086109">
<time>2016-10-06T23:58:24Z</time></trkpt>
<trkpt lat="25.25509" lon="104.085859">
<time>2016-10-06T23:58:25Z</time></trkpt>
<trkpt lat="25.25505" lon="104.085759">
<time>2016-10-06T23:58:26Z</time></trkpt>
<trkpt lat="25.25501" lon="104.085669">
<time>2016-10-06T23:58:27Z</time></trkpt>
<trkpt lat="25.25501" lon="104.085659">
<time>2016-10-06T23:58:28Z</time></trkpt>
<trkpt lat="25.25494" lon="104.085529">
<time>2016-10-06T23:58:29Z</time></trkpt>
<trkpt lat="25.254901" lon="104.085419">
<time>2016-10-06T23:58:30Z</time></trkpt>
<trkpt lat="25.254821" lon="104.085279">
<time>2016-10-06T23:58:31Z</time></trkpt>
<trkpt lat="25.254801" lon="104.085199">
<time>2016-10-06T23:58:32Z</time></trkpt>
<trkpt lat="25.254781" lon="104.08501">
<time>2016-10-06T23:58:33Z</time></trkpt>
<trkpt lat="25.254771" lon="104.08484">
<time>2016-10-06T23:58:34Z</time></trkpt>
<trkpt lat="25.254771" lon="104.08462">
<time>2016-10-06T23:58:35Z</time></trkpt>
<trkpt lat="25.254741" lon="104.08433">
<time>2016-10-06T23:58:36Z</time></trkpt>
<trkpt lat="25.254661" lon="104.08404">
<time>2016-10-06T23:58:37Z</time></trkpt>
<trkpt lat="25.254591" lon="104.08391">
<time>2016-10-06T23:58:38Z</time></trkpt>
<trkpt lat="25.254521" lon="104.08386">
<time>2016-10-06T23:58:39Z</time></trkpt>
<trkpt lat="25.254502" lon="104.083391">
<time>2016-10-06T23:58:40Z</time></trkpt>
<trkpt lat="25.254682" lon="104.082791">
<time>2016-10-06T23:58:41Z</time></trkpt>
<trkpt lat="25.254922" lon="104.082422">
<time>2016-10-06T23:58:42Z</time></trkpt>
<trkpt lat="25.255012" lon="104.082272">
<time>2016-10-06T23:58:43Z</time></trkpt>
<trkpt lat="25.255562" lon="104.081852">
<time>2016-10-06T23:58:44Z</time></trkpt>
<trkpt lat="25.256123" lon="104.081702">
<time>2016-10-06T23:58:45Z</time></trkpt>
<trkpt lat="25.256313" lon="104.081602">
<time>2016-10-06T23:58:46Z</time></trkpt>
<trkpt lat="25.256333" lon="104.081602">
<time>2016-10-06T23:58:47Z</time></trkpt>
<trkpt lat="25.256443" lon="104.081602">
<time>2016-10-06T23:58:48Z</time></trkpt>
<trkpt lat="25.256533" lon="104.081602">
<time>2016-10-06T23:58:49Z</time></trkpt>
<trkpt lat="25.256593" lon="104.081602">
<time>2016-10-06T23:58:50Z</time></trkpt>
<trkpt lat="25.256673" lon="104.081622">
<time>2016-10-06T23:58:51Z</time></trkpt>
<trkpt lat="25.256963" lon="104.081822">
<time>2016-10-06T23:58:52Z</time></trkpt>
<trkpt lat="25.257192" lon="104.081992">
<time>2016-10-06T23:58:53Z</time></trkpt>
<trkpt lat="25.257322" lon="104.082072">
<time>2016-10-06T23:58:54Z</time></trkpt>
<trkpt lat="25.257402" lon="104.082092">
<time>2016-10-06T23:58:55Z</time></trkpt>
<trkpt lat="25.257512" lon="104.082082">
<time>2016-10-06T23:58:56Z</time></trkpt>
<trkpt lat="25.257572" lon="104.082082">
<time>2016-10-06T23:58:57Z</time></trkpt>
<trkpt lat="25.257732" lon="104.082022">
<time>2016-10-06T23:58:58Z</time></trkpt>
<trkpt lat="25.257812" lon="104.081922">
<time>2016-10-06T23:58:59Z</time></trkpt>
<trkpt lat="25.257883" lon="104.081772">
<time>2016-10-06T23:59:00Z</time></trkpt>
<trkpt lat="25.257933" lon="104.081712">
<time>2016-10-06T23:59:01Z</time></trkpt>
<trkpt lat="25.258253" lon="104.081482">
<time>2016-10-06T23:59:02Z</time></trkpt>
<trkpt lat="25.258373" lon="104.081402">
<time>2016-10-06T23:59:03Z</time></trkpt>
<trkpt lat="25.258453" lon="104.081352">
<time>2016-10-06T23:59:04Z</time></trkpt>
<trkpt lat="25.258513" lon="104.081303">
<time>2016-10-06T23:59:05Z</time></trkpt>
<trkpt lat="25.258563" lon="104.081253">
<time>2016-10-06T23:59:06Z</time></trkpt>
<trkpt lat="25.258683" lon="104.081173">
<time>2016-10-06T23:59:07Z</time></trkpt>
<trkpt lat="25.258753" lon="104.081083">
<time>2016-10-06T23:59:08Z</time></trkpt>
<trkpt lat="25.258803" lon="104.081033">
<time>2016-10-06T23:59:09Z</time></trkpt>
<trkpt lat="25.258863" lon="104.080783">
<time>2016-10-06T23:59:10Z</time></trkpt>
<trkpt lat="25.258893" lon="104.080663">
<time>2016-10-06T23:59:11Z</time></trkpt>
<trkpt lat="25.258933" lon="104.080493">
<time>2016-10-06T23:59:12Z</time></trkpt>
<trkpt lat="25.258944" lon="104.080353">
<time>2016-10-06T23:59:13Z</time></trkpt>
<trkpt lat="25.258964" lon="104.080234">
<time>2016-10-06T23:59:14Z</time></trkpt>
<trkpt lat="25.258934" lon="104.079884">
<time>2016-10-06T23:59:15Z</time></trkpt>
<trkpt lat="25.258974" lon="104.079774">
<time>2016-10-06T23:59:16Z</time></trkpt>
<trkpt lat="25.259094" lon="104.079564">
<time>2016-10-06T23:59:17Z</time></trkpt>
<trkpt lat="25.259184" lon="104.079484">
<time>2016-10-06T23:59:18Z</time></trkpt>
<trkpt lat="25.259434" lon="104.079374">
<time>2016-10-06T23:59:19Z</time></trkpt>
<trkpt lat="25.259574" lon="104.079274">
<time>2016-10-06T23:59:20Z</time></trkpt>
<trkpt lat="25.259664" lon="104.079115">
<time>2016-10-06T23:59:21Z</time></trkpt>
<trkpt lat="25.259805" lon="104.078995">
<time>2016-10-06T23:59:22Z</time></trkpt>
<trkpt lat="25.260275" lon="104.078655">
<time>2016-10-06T23:59:23Z</time></trkpt>
<trkpt lat="25.260645" lon="104.078535">
<time>2016-10-06T23:59:24Z</time></trkpt>
<trkpt lat="25.260805" lon="104.078455">
<time>2016-10-06T23:59:25Z</time></trkpt>
<trkpt lat="25.260855" lon="104.078395">
<time>2016-10-06T23:59:26Z</time></trkpt>
<trkpt lat="25.260935" lon="104.078245">
<time>2016-10-06T23:59:27Z</time></trkpt>
<trkpt lat="25.260935" lon="104.078235">
<time>2016-10-06T23:59:28Z</time></trkpt>
<trkpt lat="25.260935" lon="104.078146">
<time>2016-10-06T23:59:29Z</time></trkpt>
<trkpt lat="25.260955" lon="104.078056">
<time>2016-10-06T23:59:30Z</time></trkpt>
<trkpt lat="25.261005" lon="104.077976">
<time>2016-10-06T23:59:31Z</time></trkpt>
<trkpt lat="25.261036" lon="104.077806">
<time>2016-10-06T23:59:32Z</time></trkpt>
<trkpt lat="25.261086" lon="104.077656">
<time>2016-10-06T23:59:33Z</time></trkpt>
<trkpt lat="25.261186" lon="104.077506">
<time>2016-10-06T23:59:34Z</time></trkpt>
<trkpt lat="25.261356" lon="104.077227">
<time>2016-10-06T23:59:35Z</time></trkpt>
<trkpt lat="25.261436" lon="104.077047">
<time>2016-10-06T23:59:36Z</time></trkpt>
<trkpt lat="25.261446" lon="104.076867">
<time>2016-10-06T23:59:37Z</time></trkpt>
<trkpt lat="25.261406" lon="104.076677">
<time>2016-10-06T23:59:38Z</time></trkpt>
<trkpt lat="25.261407" lon="104.076587">
<time>2016-10-06T23:59:39Z</time></trkpt>
<trkpt lat="25.261477" lon="104.076437">
<time>2016-10-06T23:59:40Z</time></trkpt>
<trkpt lat="25.261587" lon="104.076398">
<time>2016-10-06T23:59:41Z</time></trkpt>
<trkpt lat="25.261587" lon="104.076398">
<time>2016-10-06T23:59:42Z</time></trkpt>
<trkpt lat="25.261627" lon="104.076208">
<time>2016-10-06T23:59:43Z</time></trkpt>
<trkpt lat="25.261798" lon="104.075549">
<time>2016-10-06T23:59:44Z</time></trkpt>
<trkpt lat="25.261838" lon="104.074819">
<time>2016-10-06T23:59:45Z</time></trkpt>
<trkpt lat="25.261739" lon="104.07403">
<time>2016-10-06T23:59:46Z</time></trkpt>
<trkpt lat="25.2614" lon="104.073022">
<time>2016-10-06T23:59:47Z</time></trkpt>
<trkpt lat="25.260971" lon="104.072313">
<time>2016-10-06T23:59:48Z</time></trkpt>
<trkpt lat="25.260431" lon="104.071704">
<time>2016-10-06T23:59:49Z</time></trkpt>
<trkpt lat="25.253471" lon="104.063597">
<time>2016-10-06T23:59:50Z</time></trkpt>
<trkpt lat="25.252492" lon="104.062868">
<time>2016-10-06T23:59:51Z</time></trkpt>
<trkpt lat="25.251973" lon="104.062379">
<time>2016-10-06T23:59:52Z</time></trkpt>
<trkpt lat="25.251255" lon="104.061221">
<time>2016-10-06T23:59:53Z</time></trkpt>
<trkpt lat="25.250008" lon="104.059335">
<time>2016-10-06T23:59:54Z</time></trkpt>
<trkpt lat="25.248372" lon="104.05688">
<time>2016-10-06T23:59:55Z</time></trkpt>
<trkpt lat="25.245858" lon="104.053148">
<time>2016-10-06T23:59:56Z</time></trkpt>
<trkpt lat="25.245281" lon="104.051971">
<time>2016-10-06T23:59:57Z</time></trkpt>
<trkpt lat="25.245281" lon="104.051971">
<time>2016-10-06T23:59:58Z</time></trkpt>
<trkpt lat="25.245252" lon="104.051422">
<time>2016-10-06T23:59:59Z</time></trkpt>
<trkpt lat="25.245253" lon="104.050624">
<time>2016-10-07T00:00:00Z</time></trkpt>
<trkpt lat="25.245253" lon="104.050624">
<time>2016-10-07T00:00:01Z</time></trkpt>
<trkpt lat="25.245323" lon="104.050564">
<time>2016-10-07T00:00:02Z</time></trkpt>
<trkpt lat="25.245574" lon="104.050404">
<time>2016-10-07T00:00:03Z</time></trkpt>
<trkpt lat="25.245704" lon="104.050344">
<time>2016-10-07T00:00:04Z</time></trkpt>
<trkpt lat="25.245704" lon="104.050344">
<time>2016-10-07T00:00:05Z</time></trkpt>
<trkpt lat="25.245684" lon="104.050185">
<time>2016-10-07T00:00:06Z</time></trkpt>
<trkpt lat="25.245684" lon="104.050045">
<time>2016-10-07T00:00:07Z</time></trkpt>
<trkpt lat="25.245705" lon="104.049836">
<time>2016-10-07T00:00:08Z</time></trkpt>
<trkpt lat="25.245745" lon="104.049686">
<time>2016-10-07T00:00:09Z</time></trkpt>
<trkpt lat="25.245795" lon="104.049546">
<time>2016-10-07T00:00:10Z</time></trkpt>
<trkpt lat="25.245876" lon="104.049437">
<time>2016-10-07T00:00:11Z</time></trkpt>
<trkpt lat="25.245956" lon="104.049217">
<time>2016-10-07T00:00:12Z</time></trkpt>
<trkpt lat="25.246027" lon="104.048898">
<time>2016-10-07T00:00:13Z</time></trkpt>
<trkpt lat="25.246067" lon="104.048648">
<time>2016-10-07T00:00:14Z</time></trkpt>
<trkpt lat="25.246098" lon="104.048489">
<time>2016-10-07T00:00:15Z</time></trkpt>
<trkpt lat="25.246128" lon="104.048249">
<time>2016-10-07T00:00:16Z</time></trkpt>
<trkpt lat="25.246168" lon="104.04806">
<time>2016-10-07T00:00:17Z</time></trkpt>
<trkpt lat="25.246199" lon="104.04782">
<time>2016-10-07T00:00:18Z</time></trkpt>
<trkpt lat="25.246199" lon="104.04782">
<time>2016-10-07T00:00:19Z</time></trkpt>
<trkpt lat="25.246249" lon="104.04781">
<time>2016-10-07T00:00:20Z</time></trkpt>
<trkpt lat="25.246309" lon="104.0478">
<time>2016-10-07T00:00:21Z</time></trkpt>
<trkpt lat="25.246359" lon="104.0478">
<time>2016-10-07T00:00:22Z</time></trkpt>
<trkpt lat="25.246419" lon="104.0478">
<time>2016-10-07T00:00:23Z</time></trkpt>
<trkpt lat="25.246479" lon="104.04781">
<time>2016-10-07T00:00:24Z</time></trkpt>
<trkpt lat="25.246579" lon="104.04782">
<time>2016-10-07T00:00:25Z</time></trkpt>
<trkpt lat="25.246639" lon="104.04783">
<time>2016-10-07T00:00:26Z</time></trkpt>
<trkpt lat="25.246709" lon="104.04784">
<time>2016-10-07T00:00:27Z</time></trkpt>
<trkpt lat="25.246939" lon="104.0479">
<time>2016-10-07T00:00:28Z</time></trkpt>
<trkpt lat="25.247029" lon="104.04792">
<time>2016-10-07T00:00:29Z</time></trkpt>
<trkpt lat="25.247229" lon="104.04796">
<time>2016-10-07T00:00:30Z</time></trkpt>
<trkpt lat="25.247359" lon="104.04799">
<time>2016-10-07T00:00:31Z</time></trkpt>
<trkpt lat="25.247469" lon="104.048">
<time>2016-10-07T00:00:32Z</time></trkpt>
<trkpt lat="25.247579" lon="104.04801">
<time>2016-10-07T00:00:33Z</time></trkpt>
<trkpt lat="25.247719" lon="104.04802">
<time>2016-10-07T00:00:34Z</time></trkpt>
<trkpt lat="25.247829" lon="104.04802">
<time>2016-10-07T00:00:35Z</time></trkpt>
<trkpt lat="25.247949" lon="104.04801">
<time>2016-10-07T00:00:36Z</time></trkpt>
<trkpt lat="25.248069" lon="104.048">
<time>2016-10-07T00:00:37Z</time></trkpt>
<trkpt lat="25.248189" lon="104.04798">
<time>2016-10-07T00:00:38Z</time></trkpt>
<trkpt lat="25.248309" lon="104.04795">
<time>2016-10-07T00:00:39Z</time></trkpt>
<trkpt lat="25.248399" lon="104.04793">
<time>2016-10-07T00:00:40Z</time></trkpt>
<trkpt lat="25.248489" lon="104.04789">
<time>2016-10-07T00:00:41Z</time></trkpt>
<trkpt lat="25.248599" lon="104.04785">
<time>2016-10-07T00:00:42Z</time></trkpt>
<trkpt lat="25.248749" lon="104.04779">
<time>2016-10-07T00:00:43Z</time></trkpt>
<trkpt lat="25.248839" lon="104.047741">
<time>2016-10-07T00:00:44Z</time></trkpt>
<trkpt lat="25.249039" lon="104.047641">
<time>2016-10-07T00:00:45Z</time></trkpt>
<trkpt lat="25.249139" lon="104.047601">
<time>2016-10-07T00:00:46Z</time></trkpt>
<trkpt lat="25.24925" lon="104.047561">
<time>2016-10-07T00:00:47Z</time></trkpt>
<trkpt lat="25.24935" lon="104.047521">
<time>2016-10-07T00:00:48Z</time></trkpt>
<trkpt lat="25.24945" lon="104.047491">
<time>2016-10-07T00:00:49Z</time></trkpt>
<trkpt lat="25.24954" lon="104.047471">
<time>2016-10-07T00:00:50Z</time></trkpt>
<trkpt lat="25.24963" lon="104.047451">
<time>2016-10-07T00:00:51Z</time></trkpt>
<trkpt lat="25.24973" lon="104.047441">
<time>2016-10-07T00:00:52Z</time></trkpt>
<trkpt lat="25.24983" lon="104.047441">
<time>2016-10-07T00:00:53Z</time></trkpt>
<trkpt lat="25.25" lon="104.047431">
<time>2016-10-07T00:00:54Z</time></trkpt>
<trkpt lat="25.25002" lon="104.047431">
<time>2016-10-07T00:00:55Z</time></trkpt>
<trkpt lat="25.25012" lon="104.047431">
<time>2016-10-07T00:00:56Z</time></trkpt>
<trkpt lat="25.2502" lon="104.047421">
<time>2016-10-07T00:00:57Z</time></trkpt>
<trkpt lat="25.25044" lon="104.047391">
<time>2016-10-07T00:00:58Z</time></trkpt>
<trkpt lat="25.2507" lon="104.047351">
<time>2016-10-07T00:00:59Z</time></trkpt>
<trkpt lat="25.25097" lon="104.047312">
<time>2016-10-07T00:01:00Z</time></trkpt>
<trkpt lat="25.2515" lon="104.047212">
<time>2016-10-07T00:01:01Z</time></trkpt>
<trkpt lat="25.25176" lon="104.047172">
<time>2016-10-07T00:01:02Z</time></trkpt>
<trkpt lat="25.25203" lon="104.047112">
<time>2016-10-07T00:01:03Z</time></trkpt>
<trkpt lat="25.252491" lon="104.047022">
<time>2016-10-07T00:01:04Z</time></trkpt>
<trkpt lat="25.252711" lon="104.046982">
<time>2016-10-07T00:01:05Z</time></trkpt>
<trkpt lat="25.252891" lon="104.046942">
<time>2016-10-07T00:01:06Z</time></trkpt>
<trkpt lat="25.253351" lon="104.046843">
<time>2016-10-07T00:01:07Z</time></trkpt>
<trkpt lat="25.253561" lon="104.046803">
<time>2016-10-07T00:01:08Z</time></trkpt>
<trkpt lat="25.253881" lon="104.046733">
<time>2016-10-07T00:01:09Z</time></trkpt>
<trkpt lat="25.254171" lon="104.046683">
<time>2016-10-07T00:01:10Z</time></trkpt>
<trkpt lat="25.254452" lon="104.046633">
<time>2016-10-07T00:01:11Z</time></trkpt>
<trkpt lat="25.254722" lon="104.046583">
<time>2016-10-07T00:01:12Z</time></trkpt>
<trkpt lat="25.255082" lon="104.046523">
<time>2016-10-07T00:01:13Z</time></trkpt>
<trkpt lat="25.255202" lon="104.046503">
<time>2016-10-07T00:01:14Z</time></trkpt>
<trkpt lat="25.255342" lon="104.046483">
<time>2016-10-07T00:01:15Z</time></trkpt>
<trkpt lat="25.255472" lon="104.046473">
<time>2016-10-07T00:01:16Z</time></trkpt>
<trkpt lat="25.255572" lon="104.046473">
<time>2016-10-07T00:01:17Z</time></trkpt>
<trkpt lat="25.255672" lon="104.046473">
<time>2016-10-07T00:01:18Z</time></trkpt>
<trkpt lat="25.255772" lon="104.046473">
<time>2016-10-07T00:01:19Z</time></trkpt>
<trkpt lat="25.255892" lon="104.046473">
<time>2016-10-07T00:01:20Z</time></trkpt>
<trkpt lat="25.255972" lon="104.046483">
<time>2016-10-07T00:01:21Z</time></trkpt>
<trkpt lat="25.256052" lon="104.046483">
<time>2016-10-07T00:01:22Z</time></trkpt>
<trkpt lat="25.256142" lon="104.046493">
<time>2016-10-07T00:01:23Z</time></trkpt>
<trkpt lat="25.256232" lon="104.046513">
<time>2016-10-07T00:01:24Z</time></trkpt>
<trkpt lat="25.256402" lon="104.046533">
<time>2016-10-07T00:01:25Z</time></trkpt>
<trkpt lat="25.256792" lon="104.046603">
<time>2016-10-07T00:01:26Z</time></trkpt>
<trkpt lat="25.256952" lon="104.046633">
<time>2016-10-07T00:01:27Z</time></trkpt>
<trkpt lat="25.257072" lon="104.046653">
<time>2016-10-07T00:01:28Z</time></trkpt>
<trkpt lat="25.257311" lon="104.046703">
<time>2016-10-07T00:01:29Z</time></trkpt>
<trkpt lat="25.257411" lon="104.046723">
<time>2016-10-07T00:01:30Z</time></trkpt>
<trkpt lat="25.257471" lon="104.046723">
<time>2016-10-07T00:01:31Z</time></trkpt>
<trkpt lat="25.257531" lon="104.046733">
<time>2016-10-07T00:01:32Z</time></trkpt>
<trkpt lat="25.257591" lon="104.046733">
<time>2016-10-07T00:01:33Z</time></trkpt>
<trkpt lat="25.257641" lon="104.046733">
<time>2016-10-07T00:01:34Z</time></trkpt>
<trkpt lat="25.257751" lon="104.046713">
<time>2016-10-07T00:01:35Z</time></trkpt>
<trkpt lat="25.257852" lon="104.046703">
<time>2016-10-07T00:01:36Z</time></trkpt>
<trkpt lat="25.257942" lon="104.046683">
<time>2016-10-07T00:01:37Z</time></trkpt>
<trkpt lat="25.258042" lon="104.046653">
<time>2016-10-07T00:01:38Z</time></trkpt>
<trkpt lat="25.258112" lon="104.046623">
<time>2016-10-07T00:01:39Z</time></trkpt>
<trkpt lat="25.258162" lon="104.046603">
<time>2016-10-07T00:01:40Z</time></trkpt>
<trkpt lat="25.258192" lon="104.046593">
<time>2016-10-07T00:01:41Z</time></trkpt>
<trkpt lat="25.258222" lon="104.046573">
<time>2016-10-07T00:01:42Z</time></trkpt>
<trkpt lat="25.258262" lon="104.046543">
<time>2016-10-07T00:01:43Z</time></trkpt>
<trkpt lat="25.258292" lon="104.046523">
<time>2016-10-07T00:01:44Z</time></trkpt>
<trkpt lat="25.258362" lon="104.046463">
<time>2016-10-07T00:01:45Z</time></trkpt>
<trkpt lat="25.258492" lon="104.046344">
<time>2016-10-07T00:01:46Z</time></trkpt>
<trkpt lat="25.258562" lon="104.046274">
<time>2016-10-07T00:01:47Z</time></trkpt>
<trkpt lat="25.258633" lon="104.046204">
<time>2016-10-07T00:01:48Z</time></trkpt>
<trkpt lat="25.258703" lon="104.046114">
<time>2016-10-07T00:01:49Z</time></trkpt>
<trkpt lat="25.258783" lon="104.046024">
<time>2016-10-07T00:01:50Z</time></trkpt>
<trkpt lat="25.258843" lon="104.045945">
<time>2016-10-07T00:01:51Z</time></trkpt>
<trkpt lat="25.258883" lon="104.045885">
<time>2016-10-07T00:01:52Z</time></trkpt>
<trkpt lat="25.258913" lon="104.045845">
<time>2016-10-07T00:01:53Z</time></trkpt>
<trkpt lat="25.259184" lon="104.045446">
<time>2016-10-07T00:01:54Z</time></trkpt>
<trkpt lat="25.259244" lon="104.045366">
<time>2016-10-07T00:01:55Z</time></trkpt>
<trkpt lat="25.259305" lon="104.045286">
<time>2016-10-07T00:01:56Z</time></trkpt>
<trkpt lat="25.259786" lon="104.044668">
<time>2016-10-07T00:01:57Z</time></trkpt>
<trkpt lat="25.259986" lon="104.044409">
<time>2016-10-07T00:01:58Z</time></trkpt>
<trkpt lat="25.260047" lon="104.044329">
<time>2016-10-07T00:01:59Z</time></trkpt>
<trkpt lat="25.260087" lon="104.044269">
<time>2016-10-07T00:02:00Z</time></trkpt>
<trkpt lat="25.260197" lon="104.044129">
<time>2016-10-07T00:02:01Z</time></trkpt>
<trkpt lat="25.260267" lon="104.04402">
<time>2016-10-07T00:02:02Z</time></trkpt>
<trkpt lat="25.260328" lon="104.04393">
<time>2016-10-07T00:02:03Z</time></trkpt>
<trkpt lat="25.260388" lon="104.04384">
<time>2016-10-07T00:02:04Z</time></trkpt>
<trkpt lat="25.260438" lon="104.04375">
<time>2016-10-07T00:02:05Z</time></trkpt>
<trkpt lat="25.260488" lon="104.043651">
<time>2016-10-07T00:02:06Z</time></trkpt>
<trkpt lat="25.260548" lon="104.043561">
<time>2016-10-07T00:02:07Z</time></trkpt>
<trkpt lat="25.260589" lon="104.043461">
<time>2016-10-07T00:02:08Z</time></trkpt>
<trkpt lat="25.260639" lon="104.043361">
<time>2016-10-07T00:02:09Z</time></trkpt>
<trkpt lat="25.260689" lon="104.043252">
<time>2016-10-07T00:02:10Z</time></trkpt>
<trkpt lat="25.260739" lon="104.043132">
<time>2016-10-07T00:02:11Z</time></trkpt>
<trkpt lat="25.26081" lon="104.042922">
<time>2016-10-07T00:02:12Z</time></trkpt>
<trkpt lat="25.26088" lon="104.042753">
<time>2016-10-07T00:02:13Z</time></trkpt>
<trkpt lat="25.261011" lon="104.042374">
<time>2016-10-07T00:02:14Z</time></trkpt>
<trkpt lat="25.261071" lon="104.042204">
<time>2016-10-07T00:02:15Z</time></trkpt>
<trkpt lat="25.261132" lon="104.042045">
<time>2016-10-07T00:02:16Z</time></trkpt>
<trkpt lat="25.261273" lon="104.041626">
<time>2016-10-07T00:02:17Z</time></trkpt>
<trkpt lat="25.261323" lon="104.041516">
<time>2016-10-07T00:02:18Z</time></trkpt>
<trkpt lat="25.261363" lon="104.041406">
<time>2016-10-07T00:02:19Z</time></trkpt>
<trkpt lat="25.261414" lon="104.041287">
<time>2016-10-07T00:02:20Z</time></trkpt>
<trkpt lat="25.261464" lon="104.041187">
<time>2016-10-07T00:02:21Z</time></trkpt>
<trkpt lat="25.261524" lon="104.041087">
<time>2016-10-07T00:02:22Z</time></trkpt>
<trkpt lat="25.261584" lon="104.040998">
<time>2016-10-07T00:02:23Z</time></trkpt>
<trkpt lat="25.261685" lon="104.040848">
<time>2016-10-07T00:02:24Z</time></trkpt>
<trkpt lat="25.261725" lon="104.040788">
<time>2016-10-07T00:02:25Z</time></trkpt>
<trkpt lat="25.261765" lon="104.040748">
<time>2016-10-07T00:02:26Z</time></trkpt>
<trkpt lat="25.261805" lon="104.040698">
<time>2016-10-07T00:02:27Z</time></trkpt>
<trkpt lat="25.261845" lon="104.040658">
<time>2016-10-07T00:02:28Z</time></trkpt>
<trkpt lat="25.261885" lon="104.040619">
<time>2016-10-07T00:02:29Z</time></trkpt>
<trkpt lat="25.261925" lon="104.040589">
<time>2016-10-07T00:02:30Z</time></trkpt>
<trkpt lat="25.261975" lon="104.040549">
<time>2016-10-07T00:02:31Z</time></trkpt>
<trkpt lat="25.262025" lon="104.040509">
<time>2016-10-07T00:02:32Z</time></trkpt>
<trkpt lat="25.262075" lon="104.040479">
<time>2016-10-07T00:02:33Z</time></trkpt>
<trkpt lat="25.262125" lon="104.040449">
<time>2016-10-07T00:02:34Z</time></trkpt>
<trkpt lat="25.262186" lon="104.040419">
<time>2016-10-07T00:02:35Z</time></trkpt>
<trkpt lat="25.262236" lon="104.040389">
<time>2016-10-07T00:02:36Z</time></trkpt>
<trkpt lat="25.262296" lon="104.040369">
<time>2016-10-07T00:02:37Z</time></trkpt>
<trkpt lat="25.262356" lon="104.040349">
<time>2016-10-07T00:02:38Z</time></trkpt>
<trkpt lat="25.262416" lon="104.040329">
<time>2016-10-07T00:02:39Z</time></trkpt>
<trkpt lat="25.262496" lon="104.040309">
<time>2016-10-07T00:02:40Z</time></trkpt>
<trkpt lat="25.262576" lon="104.040289">
<time>2016-10-07T00:02:41Z</time></trkpt>
<trkpt lat="25.262666" lon="104.040279">
<time>2016-10-07T00:02:42Z</time></trkpt>
<trkpt lat="25.262756" lon="104.040269">
<time>2016-10-07T00:02:43Z</time></trkpt>
<trkpt lat="25.262846" lon="104.040269">
<time>2016-10-07T00:02:44Z</time></trkpt>
<trkpt lat="25.262916" lon="104.040269">
<time>2016-10-07T00:02:45Z</time></trkpt>
<trkpt lat="25.262976" lon="104.040279">
<time>2016-10-07T00:02:46Z</time></trkpt>
<trkpt lat="25.263046" lon="104.040289">
<time>2016-10-07T00:02:47Z</time></trkpt>
<trkpt lat="25.263126" lon="104.040319">
<time>2016-10-07T00:02:48Z</time></trkpt>
<trkpt lat="25.263206" lon="104.040349">
<time>2016-10-07T00:02:49Z</time></trkpt>
<trkpt lat="25.263346" lon="104.040409">
<time>2016-10-07T00:02:50Z</time></trkpt>
<trkpt lat="25.263426" lon="104.040439">
<time>2016-10-07T00:02:51Z</time></trkpt>
<trkpt lat="25.263505" lon="104.040479">
<time>2016-10-07T00:02:52Z</time></trkpt>
<trkpt lat="25.263575" lon="104.040519">
<time>2016-10-07T00:02:53Z</time></trkpt>
<trkpt lat="25.263655" lon="104.040559">
<time>2016-10-07T00:02:54Z</time></trkpt>
<trkpt lat="25.263785" lon="104.040609">
<time>2016-10-07T00:02:55Z</time></trkpt>
<trkpt lat="25.264085" lon="104.040778">
<time>2016-10-07T00:02:56Z</time></trkpt>
<trkpt lat="25.264265" lon="104.040838">
<time>2016-10-07T00:02:57Z</time></trkpt>
<trkpt lat="25.264475" lon="104.040878">
<time>2016-10-07T00:02:58Z</time></trkpt>
<trkpt lat="25.264625" lon="104.040828">
<time>2016-10-07T00:02:59Z</time></trkpt>
<trkpt lat="25.264735" lon="104.040778">
<time>2016-10-07T00:03:00Z</time></trkpt>
<trkpt lat="25.264895" lon="104.040678">
<time>2016-10-07T00:03:01Z</time></trkpt>
<trkpt lat="25.265095" lon="104.040579">
<time>2016-10-07T00:03:02Z</time></trkpt>
<trkpt lat="25.265195" lon="104.040509">
<time>2016-10-07T00:03:03Z</time></trkpt>
<trkpt lat="25.265356" lon="104.040419">
<time>2016-10-07T00:03:04Z</time></trkpt>
<trkpt lat="25.265356" lon="104.040419">
<time>2016-10-07T00:03:05Z</time></trkpt>
<trkpt lat="25.265516" lon="104.04006">
<time>2016-10-07T00:03:06Z</time></trkpt>
<trkpt lat="25.265578" lon="104.039462">
<time>2016-10-07T00:03:07Z</time></trkpt>
<trkpt lat="25.265508" lon="104.039232">
<time>2016-10-07T00:03:08Z</time></trkpt>
<trkpt lat="25.26519" lon="104.038504">
<time>2016-10-07T00:03:09Z</time></trkpt>
<trkpt lat="25.265012" lon="104.037886">
<time>2016-10-07T00:03:10Z</time></trkpt>
<trkpt lat="25.265104" lon="104.036799">
<time>2016-10-07T00:03:11Z</time></trkpt>
<trkpt lat="25.265208" lon="104.035174">
<time>2016-10-07T00:03:12Z</time></trkpt>
<trkpt lat="25.264822" lon="104.033608">
<time>2016-10-07T00:03:13Z</time></trkpt>
<trkpt lat="25.264624" lon="104.032831">
<time>2016-10-07T00:03:14Z</time></trkpt>
<trkpt lat="25.264265" lon="104.032392">
<time>2016-10-07T00:03:15Z</time></trkpt>
<trkpt lat="25.263377" lon="104.031814">
<time>2016-10-07T00:03:16Z</time></trkpt>
<trkpt lat="25.263377" lon="104.031814">
<time>2016-10-07T00:03:17Z</time></trkpt>
<trkpt lat="25.264007" lon="104.031874">
<time>2016-10-07T00:03:18Z</time></trkpt>
<trkpt lat="25.264007" lon="104.031874">
<time>2016-10-07T00:03:19Z</time></trkpt>
<trkpt lat="25.263957" lon="104.031844">
<time>2016-10-07T00:03:20Z</time></trkpt>
<trkpt lat="25.263787" lon="104.031734">
<time>2016-10-07T00:03:21Z</time></trkpt>
<trkpt lat="25.263587" lon="104.031614">
<time>2016-10-07T00:03:22Z</time></trkpt>
<trkpt lat="25.263428" lon="104.031485">
<time>2016-10-07T00:03:23Z</time></trkpt>
<trkpt lat="25.263298" lon="104.031216">
<time>2016-10-07T00:03:24Z</time></trkpt>
<trkpt lat="25.263249" lon="104.031056">
<time>2016-10-07T00:03:25Z</time></trkpt>
<trkpt lat="25.26319" lon="104.030707">
<time>2016-10-07T00:03:26Z</time></trkpt>
<trkpt lat="25.263121" lon="104.030249">
<time>2016-10-07T00:03:27Z</time></trkpt>
<trkpt lat="25.263072" lon="104.02982">
<time>2016-10-07T00:03:28Z</time></trkpt>
<trkpt lat="25.263052" lon="104.029601">
<time>2016-10-07T00:03:29Z</time></trkpt>
<trkpt lat="25.263063" lon="104.029381">
<time>2016-10-07T00:03:30Z</time></trkpt>
<trkpt lat="25.263114" lon="104.028953">
<time>2016-10-07T00:03:31Z</time></trkpt>
<trkpt lat="25.263105" lon="104.028723">
<time>2016-10-07T00:03:32Z</time></trkpt>
<trkpt lat="25.263036" lon="104.028275">
<time>2016-10-07T00:03:33Z</time></trkpt>
<trkpt lat="25.263067" lon="104.027976">
<time>2016-10-07T00:03:34Z</time></trkpt>
<trkpt lat="25.263117" lon="104.027756">
<time>2016-10-07T00:03:35Z</time></trkpt>
<trkpt lat="25.263199" lon="104.027308">
<time>2016-10-07T00:03:36Z</time></trkpt>
<trkpt lat="25.263219" lon="104.027098">
<time>2016-10-07T00:03:37Z</time></trkpt>
<trkpt lat="25.26322" lon="104.026889">
<time>2016-10-07T00:03:38Z</time></trkpt>
<trkpt lat="25.26321" lon="104.02669">
<time>2016-10-07T00:03:39Z</time></trkpt>
<trkpt lat="25.263171" lon="104.0265">
<time>2016-10-07T00:03:40Z</time></trkpt>
<trkpt lat="25.263151" lon="104.026241">
<time>2016-10-07T00:03:41Z</time></trkpt>
<trkpt lat="25.263142" lon="104.026042">
<time>2016-10-07T00:03:42Z</time></trkpt>
<trkpt lat="25.263113" lon="104.025693">
<time>2016-10-07T00:03:43Z</time></trkpt>
<trkpt lat="25.263053" lon="104.025503">
<time>2016-10-07T00:03:44Z</time></trkpt>
<trkpt lat="25.262905" lon="104.025075">
<time>2016-10-07T00:03:45Z</time></trkpt>
<trkpt lat="25.262855" lon="104.024865">
<time>2016-10-07T00:03:46Z</time></trkpt>
<trkpt lat="25.262856" lon="104.024646">
<time>2016-10-07T00:03:47Z</time></trkpt>
<trkpt lat="25.262786" lon="104.024417">
<time>2016-10-07T00:03:48Z</time></trkpt>
<trkpt lat="25.262628" lon="104.023968">
<time>2016-10-07T00:03:49Z</time></trkpt>
<trkpt lat="25.262448" lon="104.023709">
<time>2016-10-07T00:03:50Z</time></trkpt>
<trkpt lat="25.26227" lon="104.023251">
<time>2016-10-07T00:03:51Z</time></trkpt>
<trkpt lat="25.262141" lon="104.022782">
<time>2016-10-07T00:03:52Z</time></trkpt>
<trkpt lat="25.262112" lon="104.022553">
<time>2016-10-07T00:03:53Z</time></trkpt>
<trkpt lat="25.262093" lon="104.022094">
<time>2016-10-07T00:03:54Z</time></trkpt>
<trkpt lat="25.262093" lon="104.021875">
<time>2016-10-07T00:03:55Z</time></trkpt>
<trkpt lat="25.262095" lon="104.021437">
<time>2016-10-07T00:03:56Z</time></trkpt>
<trkpt lat="25.262106" lon="104.020809">
<time>2016-10-07T00:03:57Z</time></trkpt>
<trkpt lat="25.262138" lon="104.02039">
<time>2016-10-07T00:03:58Z</time></trkpt>
<trkpt lat="25.262168" lon="104.020181">
<time>2016-10-07T00:03:59Z</time></trkpt>
<trkpt lat="25.262219" lon="104.019951">
<time>2016-10-07T00:04:00Z</time></trkpt>
<trkpt lat="25.26237" lon="104.019473">
<time>2016-10-07T00:04:01Z</time></trkpt>
<trkpt lat="25.262471" lon="104.019214">
<time>2016-10-07T00:04:02Z</time></trkpt>
<trkpt lat="25.262682" lon="104.018676">
<time>2016-10-07T00:04:03Z</time></trkpt>
<trkpt lat="25.262904" lon="104.018127">
<time>2016-10-07T00:04:04Z</time></trkpt>
<trkpt lat="25.263106" lon="104.017599">
<time>2016-10-07T00:04:05Z</time></trkpt>
<trkpt lat="25.263196" lon="104.01736">
<time>2016-10-07T00:04:06Z</time></trkpt>
<trkpt lat="25.263337" lon="104.016961">
<time>2016-10-07T00:04:07Z</time></trkpt>
<trkpt lat="25.263428" lon="104.016672">
<time>2016-10-07T00:04:08Z</time></trkpt>
<trkpt lat="25.263449" lon="104.016533">
<time>2016-10-07T00:04:09Z</time></trkpt>
<trkpt lat="25.263489" lon="104.016353">
<time>2016-10-07T00:04:10Z</time></trkpt>
<trkpt lat="25.26353" lon="104.016094">
<time>2016-10-07T00:04:11Z</time></trkpt>
<trkpt lat="25.26355" lon="104.015955">
<time>2016-10-07T00:04:12Z</time></trkpt>
<trkpt lat="25.263581" lon="104.015845">
<time>2016-10-07T00:04:13Z</time></trkpt>
<trkpt lat="25.263611" lon="104.015715">
<time>2016-10-07T00:04:14Z</time></trkpt>
<trkpt lat="25.263631" lon="104.015586">
<time>2016-10-07T00:04:15Z</time></trkpt>
<trkpt lat="25.263642" lon="104.015446">
<time>2016-10-07T00:04:16Z</time></trkpt>
<trkpt lat="25.263632" lon="104.015257">
<time>2016-10-07T00:04:17Z</time></trkpt>
<trkpt lat="25.263633" lon="104.015078">
<time>2016-10-07T00:04:18Z</time></trkpt>
<trkpt lat="25.263593" lon="104.014898">
<time>2016-10-07T00:04:19Z</time></trkpt>
<trkpt lat="25.263604" lon="104.014649">
<time>2016-10-07T00:04:20Z</time></trkpt>
<trkpt lat="25.263695" lon="104.01432">
<time>2016-10-07T00:04:21Z</time></trkpt>
<trkpt lat="25.263967" lon="104.013772">
<time>2016-10-07T00:04:22Z</time></trkpt>
<trkpt lat="25.264138" lon="104.013383">
<time>2016-10-07T00:04:23Z</time></trkpt>
<trkpt lat="25.26437" lon="104.012775">
<time>2016-10-07T00:04:24Z</time></trkpt>
<trkpt lat="25.264561" lon="104.012387">
<time>2016-10-07T00:04:25Z</time></trkpt>
<trkpt lat="25.264792" lon="104.012068">
<time>2016-10-07T00:04:26Z</time></trkpt>
<trkpt lat="25.264902" lon="104.011958">
<time>2016-10-07T00:04:27Z</time></trkpt>
<trkpt lat="25.265002" lon="104.011869">
<time>2016-10-07T00:04:28Z</time></trkpt>
<trkpt lat="25.265103" lon="104.011819">
<time>2016-10-07T00:04:29Z</time></trkpt>
<trkpt lat="25.265213" lon="104.011649">
<time>2016-10-07T00:04:30Z</time></trkpt>
<trkpt lat="25.265354" lon="104.011291">
<time>2016-10-07T00:04:31Z</time></trkpt>
<trkpt lat="25.265444" lon="104.011211">
<time>2016-10-07T00:04:32Z</time></trkpt>
<trkpt lat="25.265464" lon="104.011201">
<time>2016-10-07T00:04:33Z</time></trkpt>
<trkpt lat="25.265524" lon="104.011191">
<time>2016-10-07T00:04:34Z</time></trkpt>
<trkpt lat="25.265675" lon="104.011081">
<time>2016-10-07T00:04:35Z</time></trkpt>
<trkpt lat="25.265995" lon="104.010912">
<time>2016-10-07T00:04:36Z</time></trkpt>
<trkpt lat="25.266136" lon="104.010822">
<time>2016-10-07T00:04:37Z</time></trkpt>
<trkpt lat="25.266236" lon="104.010732">
<time>2016-10-07T00:04:38Z</time></trkpt>
<trkpt lat="25.266426" lon="104.010513">
<time>2016-10-07T00:04:39Z</time></trkpt>
<trkpt lat="25.266667" lon="104.010284">
<time>2016-10-07T00:04:40Z</time></trkpt>
<trkpt lat="25.266898" lon="104.010025">
<time>2016-10-07T00:04:41Z</time></trkpt>
<trkpt lat="25.267089" lon="104.009736">
<time>2016-10-07T00:04:42Z</time></trkpt>
<trkpt lat="25.267119" lon="104.009596">
<time>2016-10-07T00:04:43Z</time></trkpt>
<trkpt lat="25.26715" lon="104.009417">
<time>2016-10-07T00:04:44Z</time></trkpt>
<trkpt lat="25.267121" lon="104.008939">
<time>2016-10-07T00:04:45Z</time></trkpt>
<trkpt lat="25.267142" lon="104.00861">
<time>2016-10-07T00:04:46Z</time></trkpt>
<trkpt lat="25.267143" lon="104.00844">
<time>2016-10-07T00:04:47Z</time></trkpt>
<trkpt lat="25.267144" lon="104.007922">
<time>2016-10-07T00:04:48Z</time></trkpt>
<trkpt lat="25.267136" lon="104.007464">
<time>2016-10-07T00:04:49Z</time></trkpt>
<trkpt lat="25.267137" lon="104.007105">
<time>2016-10-07T00:04:50Z</time></trkpt>
<trkpt lat="25.267147" lon="104.006876">
<time>2016-10-07T00:04:51Z</time></trkpt>
<trkpt lat="25.267188" lon="104.006627">
<time>2016-10-07T00:04:52Z</time></trkpt>
<trkpt lat="25.267259" lon="104.006477">
<time>2016-10-07T00:04:53Z</time></trkpt>
<trkpt lat="25.267319" lon="104.006397">
<time>2016-10-07T00:04:54Z</time></trkpt>
<trkpt lat="25.267379" lon="104.006248">
<time>2016-10-07T00:04:55Z</time></trkpt>
<trkpt lat="25.2674" lon="104.006128">
<time>2016-10-07T00:04:56Z</time></trkpt>
<trkpt lat="25.26744" lon="104.005859">
<time>2016-10-07T00:04:57Z</time></trkpt>
<trkpt lat="25.267492" lon="104.005421">
<time>2016-10-07T00:04:58Z</time></trkpt>
<trkpt lat="25.267513" lon="104.005012">
<time>2016-10-07T00:04:59Z</time></trkpt>
<trkpt lat="25.267494" lon="104.004823">
<time>2016-10-07T00:05:00Z</time></trkpt>
<trkpt lat="25.267494" lon="104.004673">
<time>2016-10-07T00:05:01Z</time></trkpt>
<trkpt lat="25.267465" lon="104.004464">
<time>2016-10-07T00:05:02Z</time></trkpt>
<trkpt lat="25.267455" lon="104.004335">
<time>2016-10-07T00:05:03Z</time></trkpt>
<trkpt lat="25.267466" lon="104.004046">
<time>2016-10-07T00:05:04Z</time></trkpt>
<trkpt lat="25.267527" lon="104.003557">
<time>2016-10-07T00:05:05Z</time></trkpt>
<trkpt lat="25.267578" lon="104.003318">
<time>2016-10-07T00:05:06Z</time></trkpt>
<trkpt lat="25.267669" lon="104.00293">
<time>2016-10-07T00:05:07Z</time></trkpt>
<trkpt lat="25.26773" lon="104.0027">
<time>2016-10-07T00:05:08Z</time></trkpt>
<trkpt lat="25.267751" lon="104.002541">
<time>2016-10-07T00:05:09Z</time></trkpt>
<trkpt lat="25.267821" lon="104.002322">
<time>2016-10-07T00:05:10Z</time></trkpt>
<trkpt lat="25.267851" lon="104.002242">
<time>2016-10-07T00:05:11Z</time></trkpt>
<trkpt lat="25.267892" lon="104.002142">
<time>2016-10-07T00:05:12Z</time></trkpt>
<trkpt lat="25.267992" lon="104.001953">
<time>2016-10-07T00:05:13Z</time></trkpt>
<trkpt lat="25.268123" lon="104.001843">
<time>2016-10-07T00:05:14Z</time></trkpt>
<trkpt lat="25.268253" lon="104.001664">
<time>2016-10-07T00:05:15Z</time></trkpt>
<trkpt lat="25.268264" lon="104.001504">
<time>2016-10-07T00:05:16Z</time></trkpt>
<trkpt lat="25.268234" lon="104.001355">
<time>2016-10-07T00:05:17Z</time></trkpt>
<trkpt lat="25.268195" lon="104.001016">
<time>2016-10-07T00:05:18Z</time></trkpt>
<trkpt lat="25.268216" lon="104.000657">
<time>2016-10-07T00:05:19Z</time></trkpt>
<trkpt lat="25.268267" lon="104.000448">
<time>2016-10-07T00:05:20Z</time></trkpt>
<trkpt lat="25.268337" lon="104.000319">
<time>2016-10-07T00:05:21Z</time></trkpt>
<trkpt lat="25.268398" lon="104.000209">
<time>2016-10-07T00:05:22Z</time></trkpt>
<trkpt lat="25.268478" lon="104.000079">
<time>2016-10-07T00:05:23Z</time></trkpt>
<trkpt lat="25.268528" lon="104.0">
<time>2016-10-07T00:05:24Z</time></trkpt>
<trkpt lat="25.268558" lon="103.99996">
<time>2016-10-07T00:05:25Z</time></trkpt>
<trkpt lat="25.268699" lon="103.99985">
<time>2016-10-07T00:05:26Z</time></trkpt>
<trkpt lat="25.268849" lon="103.999641">
<time>2016-10-07T00:05:27Z</time></trkpt>
<trkpt lat="25.26903" lon="103.999482">
<time>2016-10-07T00:05:28Z</time></trkpt>
<trkpt lat="25.26918" lon="103.999472">
<time>2016-10-07T00:05:29Z</time></trkpt>
<trkpt lat="25.26977" lon="103.999521">
<time>2016-10-07T00:05:30Z</time></trkpt>
<trkpt lat="25.27004" lon="103.999511">
<time>2016-10-07T00:05:31Z</time></trkpt>
<trkpt lat="25.27015" lon="103.999491">
<time>2016-10-07T00:05:32Z</time></trkpt>
<trkpt lat="25.27022" lon="103.999482">
<time>2016-10-07T00:05:33Z</time></trkpt>
<trkpt lat="25.27028" lon="103.999472">
<time>2016-10-07T00:05:34Z</time></trkpt>
<trkpt lat="25.27035" lon="103.999462">
<time>2016-10-07T00:05:35Z</time></trkpt>
<trkpt lat="25.27043" lon="103.999372">
<time>2016-10-07T00:05:36Z</time></trkpt>
<trkpt lat="25.27051" lon="103.999342">
<time>2016-10-07T00:05:37Z</time></trkpt>
<trkpt lat="25.270581" lon="103.999272">
<time>2016-10-07T00:05:38Z</time></trkpt>
<trkpt lat="25.270741" lon="103.999163">
<time>2016-10-07T00:05:39Z</time></trkpt>
<trkpt lat="25.270851" lon="103.999103">
<time>2016-10-07T00:05:40Z</time></trkpt>
<trkpt lat="25.270921" lon="103.998993">
<time>2016-10-07T00:05:41Z</time></trkpt>
<trkpt lat="25.270942" lon="103.998724">
<time>2016-10-07T00:05:42Z</time></trkpt>
<trkpt lat="25.271023" lon="103.998475">
<time>2016-10-07T00:05:43Z</time></trkpt>
<trkpt lat="25.271244" lon="103.998047">
<time>2016-10-07T00:05:44Z</time></trkpt>
<trkpt lat="25.271485" lon="103.997678">
<time>2016-10-07T00:05:45Z</time></trkpt>
<trkpt lat="25.271586" lon="103.997508">
<time>2016-10-07T00:05:46Z</time></trkpt>
<trkpt lat="25.271637" lon="103.997219">
<time>2016-10-07T00:05:47Z</time></trkpt>
<trkpt lat="25.271617" lon="103.99713">
<time>2016-10-07T00:05:48Z</time></trkpt>
<trkpt lat="25.271708" lon="103.996741">
<time>2016-10-07T00:05:49Z</time></trkpt>
<trkpt lat="25.271729" lon="103.996562">
<time>2016-10-07T00:05:50Z</time></trkpt>
<trkpt lat="25.271729" lon="103.996382">
<time>2016-10-07T00:05:51Z</time></trkpt>
<trkpt lat="25.27171" lon="103.996083">
<time>2016-10-07T00:05:52Z</time></trkpt>
<trkpt lat="25.271732" lon="103.995595">
<time>2016-10-07T00:05:53Z</time></trkpt>
<trkpt lat="25.271712" lon="103.995495">
<time>2016-10-07T00:05:54Z</time></trkpt>
<trkpt lat="25.271712" lon="103.995406">
<time>2016-10-07T00:05:55Z</time></trkpt>
<trkpt lat="25.271733" lon="103.995296">
<time>2016-10-07T00:05:56Z</time></trkpt>
<trkpt lat="25.271753" lon="103.995137">
<time>2016-10-07T00:05:57Z</time></trkpt>
<trkpt lat="25.271744" lon="103.994987">
<time>2016-10-07T00:05:58Z</time></trkpt>
<trkpt lat="25.271624" lon="103.994728">
<time>2016-10-07T00:05:59Z</time></trkpt>
<trkpt lat="25.271535" lon="103.994549">
<time>2016-10-07T00:06:00Z</time></trkpt>
<trkpt lat="25.271426" lon="103.994369">
<time>2016-10-07T00:06:01Z</time></trkpt>
<trkpt lat="25.271227" lon="103.993971">
<time>2016-10-07T00:06:02Z</time></trkpt>
<trkpt lat="25.271087" lon="103.993782">
<time>2016-10-07T00:06:03Z</time></trkpt>
<trkpt lat="25.270928" lon="103.993622">
<time>2016-10-07T00:06:04Z</time></trkpt>
<trkpt lat="25.270439" lon="103.993184">
<time>2016-10-07T00:06:05Z</time></trkpt>
<trkpt lat="25.27031" lon="103.992915">
<time>2016-10-07T00:06:06Z</time></trkpt>
<trkpt lat="25.270201" lon="103.992656">
<time>2016-10-07T00:06:07Z</time></trkpt>
<trkpt lat="25.270141" lon="103.992416">
<time>2016-10-07T00:06:08Z</time></trkpt>
<trkpt lat="25.270122" lon="103.992197">
<time>2016-10-07T00:06:09Z</time></trkpt>
<trkpt lat="25.270163" lon="103.992028">
<time>2016-10-07T00:06:10Z</time></trkpt>
<trkpt lat="25.270263" lon="103.991898">
<time>2016-10-07T00:06:11Z</time></trkpt>
<trkpt lat="25.270413" lon="103.991818">
<time>2016-10-07T00:06:12Z</time></trkpt>
<trkpt lat="25.270583" lon="103.991779">
<time>2016-10-07T00:06:13Z</time></trkpt>
<trkpt lat="25.270933" lon="103.991769">
<time>2016-10-07T00:06:14Z</time></trkpt>
<trkpt lat="25.271463" lon="103.991779">
<time>2016-10-07T00:06:15Z</time></trkpt>
<trkpt lat="25.271713" lon="103.991858">
<time>2016-10-07T00:06:16Z</time></trkpt>
<trkpt lat="25.271993" lon="103.991958">
<time>2016-10-07T00:06:17Z</time></trkpt>
<trkpt lat="25.272273" lon="103.991958">
<time>2016-10-07T00:06:18Z</time></trkpt>
<trkpt lat="25.272753" lon="103.991918">
<time>2016-10-07T00:06:19Z</time></trkpt>
<trkpt lat="25.272773" lon="103.991918">
<time>2016-10-07T00:06:20Z</time></trkpt>
<trkpt lat="25.273233" lon="103.991838">
<time>2016-10-07T00:06:21Z</time></trkpt>
<trkpt lat="25.273423" lon="103.991788">
<time>2016-10-07T00:06:22Z</time></trkpt>
<trkpt lat="25.273584" lon="103.991719">
<time>2016-10-07T00:06:23Z</time></trkpt>
<trkpt lat="25.273684" lon="103.991619">
<time>2016-10-07T00:06:24Z</time></trkpt>
<trkpt lat="25.273744" lon="103.991499">
<time>2016-10-07T00:06:25Z</time></trkpt>
<trkpt lat="25.273745" lon="103.99136">
<time>2016-10-07T00:06:26Z</time></trkpt>
<trkpt lat="25.273685" lon="103.9912">
<time>2016-10-07T00:06:27Z</time></trkpt>
<trkpt lat="25.273526" lon="103.990892">
<time>2016-10-07T00:06:28Z</time></trkpt>
<trkpt lat="25.273317" lon="103.990712">
<time>2016-10-07T00:06:29Z</time></trkpt>
<trkpt lat="25.273038" lon="103.990443">
<time>2016-10-07T00:06:30Z</time></trkpt>
<trkpt lat="25.272938" lon="103.990274">
<time>2016-10-07T00:06:31Z</time></trkpt>
<trkpt lat="25.272869" lon="103.990104">
<time>2016-10-07T00:06:32Z</time></trkpt>
<trkpt lat="25.272819" lon="103.989935">
<time>2016-10-07T00:06:33Z</time></trkpt>
<trkpt lat="25.272809" lon="103.989785">
<time>2016-10-07T00:06:34Z</time></trkpt>
<trkpt lat="25.27283" lon="103.989536">
<time>2016-10-07T00:06:35Z</time></trkpt>
<trkpt lat="25.272791" lon="103.989367">
<time>2016-10-07T00:06:36Z</time></trkpt>
<trkpt lat="25.272732" lon="103.989038">
<time>2016-10-07T00:06:37Z</time></trkpt>
<trkpt lat="25.272683" lon="103.988629">
<time>2016-10-07T00:06:38Z</time></trkpt>
<trkpt lat="25.272703" lon="103.9885">
<time>2016-10-07T00:06:39Z</time></trkpt>
<trkpt lat="25.272765" lon="103.988071">
<time>2016-10-07T00:06:40Z</time></trkpt>
<trkpt lat="25.272876" lon="103.987733">
<time>2016-10-07T00:06:41Z</time></trkpt>
<trkpt lat="25.272976" lon="103.987553">
<time>2016-10-07T00:06:42Z</time></trkpt>
<trkpt lat="25.273308" lon="103.987035">
<time>2016-10-07T00:06:43Z</time></trkpt>
<trkpt lat="25.273619" lon="103.986527">
<time>2016-10-07T00:06:44Z</time></trkpt>
<trkpt lat="25.27384" lon="103.986208">
<time>2016-10-07T00:06:45Z</time></trkpt>
<trkpt lat="25.273961" lon="103.986068">
<time>2016-10-07T00:06:46Z</time></trkpt>
<trkpt lat="25.274101" lon="103.985949">
<time>2016-10-07T00:06:47Z</time></trkpt>
<trkpt lat="25.274251" lon="103.985849">
<time>2016-10-07T00:06:48Z</time></trkpt>
<trkpt lat="25.274412" lon="103.985779">
<time>2016-10-07T00:06:49Z</time></trkpt>
<trkpt lat="25.274602" lon="103.985719">
<time>2016-10-07T00:06:50Z</time></trkpt>
<trkpt lat="25.274792" lon="103.98568">
<time>2016-10-07T00:06:51Z</time></trkpt>
<trkpt lat="25.275192" lon="103.98561">
<time>2016-10-07T00:06:52Z</time></trkpt>
<trkpt lat="25.275382" lon="103.98555">
<time>2016-10-07T00:06:53Z</time></trkpt>
<trkpt lat="25.275563" lon="103.98548">
<time>2016-10-07T00:06:54Z</time></trkpt>
<trkpt lat="25.275873" lon="103.985291">
<time>2016-10-07T00:06:55Z</time></trkpt>
<trkpt lat="25.276144" lon="103.985141">
<time>2016-10-07T00:06:56Z</time></trkpt>
<trkpt lat="25.276344" lon="103.985032">
<time>2016-10-07T00:06:57Z</time></trkpt>
<trkpt lat="25.276534" lon="103.985012">
<time>2016-10-07T00:06:58Z</time></trkpt>
<trkpt lat="25.276654" lon="103.984902">
<time>2016-10-07T00:06:59Z</time></trkpt>
<trkpt lat="25.276775" lon="103.984723">
<time>2016-10-07T00:07:00Z</time></trkpt>
<trkpt lat="25.276835" lon="103.984533">
<time>2016-10-07T00:07:01Z</time></trkpt>
<trkpt lat="25.276776" lon="103.984165">
<time>2016-10-07T00:07:02Z</time></trkpt>
<trkpt lat="25.276757" lon="103.983896">
<time>2016-10-07T00:07:03Z</time></trkpt>
<trkpt lat="25.276808" lon="103.983686">
<time>2016-10-07T00:07:04Z</time></trkpt>
<trkpt lat="25.276908" lon="103.983507">
<time>2016-10-07T00:07:05Z</time></trkpt>
<trkpt lat="25.277129" lon="103.983188">
<time>2016-10-07T00:07:06Z</time></trkpt>
<trkpt lat="25.27737" lon="103.982959">
<time>2016-10-07T00:07:07Z</time></trkpt>
<trkpt lat="25.2775" lon="103.982879">
<time>2016-10-07T00:07:08Z</time></trkpt>
<trkpt lat="25.277641" lon="103.982799">
<time>2016-10-07T00:07:09Z</time></trkpt>
<trkpt lat="25.277751" lon="103.982769">
<time>2016-10-07T00:07:10Z</time></trkpt>
<trkpt lat="25.277871" lon="103.982779">
<time>2016-10-07T00:07:11Z</time></trkpt>
<trkpt lat="25.278" lon="103.982829">
<time>2016-10-07T00:07:12Z</time></trkpt>
<trkpt lat="25.27814" lon="103.982869">
<time>2016-10-07T00:07:13Z</time></trkpt>
<trkpt lat="25.27831" lon="103.982869">
<time>2016-10-07T00:07:14Z</time></trkpt>
<trkpt lat="25.278461" lon="103.98274">
<time>2016-10-07T00:07:15Z</time></trkpt>
<trkpt lat="25.278601" lon="103.98258">
<time>2016-10-07T00:07:16Z</time></trkpt>
<trkpt lat="25.278742" lon="103.982391">
<time>2016-10-07T00:07:17Z</time></trkpt>
<trkpt lat="25.279013" lon="103.982012">
<time>2016-10-07T00:07:18Z</time></trkpt>
<trkpt lat="25.279294" lon="103.981643">
<time>2016-10-07T00:07:19Z</time></trkpt>
<trkpt lat="25.279455" lon="103.981484">
<time>2016-10-07T00:07:20Z</time></trkpt>
<trkpt lat="25.279625" lon="103.981364">
<time>2016-10-07T00:07:21Z</time></trkpt>
<trkpt lat="25.279815" lon="103.981284">
<time>2016-10-07T00:07:22Z</time></trkpt>
<trkpt lat="25.280015" lon="103.981265">
<time>2016-10-07T00:07:23Z</time></trkpt>
<trkpt lat="25.280175" lon="103.981294">
<time>2016-10-07T00:07:24Z</time></trkpt>
<trkpt lat="25.280305" lon="103.981374">
<time>2016-10-07T00:07:25Z</time></trkpt>
<trkpt lat="25.280415" lon="103.981484">
<time>2016-10-07T00:07:26Z</time></trkpt>
<trkpt lat="25.280494" lon="103.981603">
<time>2016-10-07T00:07:27Z</time></trkpt>
<trkpt lat="25.280603" lon="103.981852">
<time>2016-10-07T00:07:28Z</time></trkpt>
<trkpt lat="25.280742" lon="103.982431">
<time>2016-10-07T00:07:29Z</time></trkpt>
<trkpt lat="25.280811" lon="103.9826">
<time>2016-10-07T00:07:30Z</time></trkpt>
<trkpt lat="25.280871" lon="103.98271">
<time>2016-10-07T00:07:31Z</time></trkpt>
<trkpt lat="25.280941" lon="103.982779">
<time>2016-10-07T00:07:32Z</time></trkpt>
<trkpt lat="25.281001" lon="103.982819">
<time>2016-10-07T00:07:33Z</time></trkpt>
<trkpt lat="25.281161" lon="103.982859">
<time>2016-10-07T00:07:34Z</time></trkpt>
<trkpt lat="25.28134" lon="103.982959">
<time>2016-10-07T00:07:35Z</time></trkpt>
<trkpt lat="25.28145" lon="103.983208">
<time>2016-10-07T00:07:36Z</time></trkpt>
<trkpt lat="25.281558" lon="103.983567">
<time>2016-10-07T00:07:37Z</time></trkpt>
<trkpt lat="25.281658" lon="103.983806">
<time>2016-10-07T00:07:38Z</time></trkpt>
<trkpt lat="25.281757" lon="103.983945">
<time>2016-10-07T00:07:39Z</time></trkpt>
<trkpt lat="25.281817" lon="103.983945">
<time>2016-10-07T00:07:40Z</time></trkpt>
<trkpt lat="25.281878" lon="103.983876">
<time>2016-10-07T00:07:41Z</time></trkpt>
<trkpt lat="25.281868" lon="103.983716">
<time>2016-10-07T00:07:42Z</time></trkpt>
<trkpt lat="25.281809" lon="103.983487">
<time>2016-10-07T00:07:43Z</time></trkpt>
<trkpt lat="25.28176" lon="103.983168">
<time>2016-10-07T00:07:44Z</time></trkpt>
<trkpt lat="25.28181" lon="103.982949">
<time>2016-10-07T00:07:45Z</time></trkpt>
<trkpt lat="25.281881" lon="103.982889">
<time>2016-10-07T00:07:46Z</time></trkpt>
<trkpt lat="25.281971" lon="103.982849">
<time>2016-10-07T00:07:47Z</time></trkpt>
<trkpt lat="25.2821" lon="103.982899">
<time>2016-10-07T00:07:48Z</time></trkpt>
<trkpt lat="25.28218" lon="103.983018">
<time>2016-10-07T00:07:49Z</time></trkpt>
<trkpt lat="25.282249" lon="103.983278">
<time>2016-10-07T00:07:50Z</time></trkpt>
<trkpt lat="25.282269" lon="103.983457">
<time>2016-10-07T00:07:51Z</time></trkpt>
<trkpt lat="25.282418" lon="103.983885">
<time>2016-10-07T00:07:52Z</time></trkpt>
<trkpt lat="25.282547" lon="103.984005">
<time>2016-10-07T00:07:53Z</time></trkpt>
<trkpt lat="25.282607" lon="103.984015">
<time>2016-10-07T00:07:54Z</time></trkpt>
<trkpt lat="25.282827" lon="103.984055">
<time>2016-10-07T00:07:55Z</time></trkpt>
<trkpt lat="25.282967" lon="103.984015">
<time>2016-10-07T00:07:56Z</time></trkpt>
<trkpt lat="25.283168" lon="103.983925">
<time>2016-10-07T00:07:57Z</time></trkpt>
<trkpt lat="25.283398" lon="103.983746">
<time>2016-10-07T00:07:58Z</time></trkpt>
<trkpt lat="25.283719" lon="103.983547">
<time>2016-10-07T00:07:59Z</time></trkpt>
<trkpt lat="25.283919" lon="103.983397">
<time>2016-10-07T00:08:00Z</time></trkpt>
<trkpt lat="25.28427" lon="103.983148">
<time>2016-10-07T00:08:01Z</time></trkpt>
<trkpt lat="25.284641" lon="103.982929">
<time>2016-10-07T00:08:02Z</time></trkpt>
<trkpt lat="25.284941" lon="103.982709">
<time>2016-10-07T00:08:03Z</time></trkpt>
<trkpt lat="25.285042" lon="103.98258">
<time>2016-10-07T00:08:04Z</time></trkpt>
<trkpt lat="25.285022" lon="103.98246">
<time>2016-10-07T00:08:05Z</time></trkpt>
<trkpt lat="25.284952" lon="103.982391">
<time>2016-10-07T00:08:06Z</time></trkpt>
<trkpt lat="25.284832" lon="103.9824">
<time>2016-10-07T00:08:07Z</time></trkpt>
<trkpt lat="25.284702" lon="103.98249">
<time>2016-10-07T00:08:08Z</time></trkpt>
<trkpt lat="25.284451" lon="103.98268">
<time>2016-10-07T00:08:09Z</time></trkpt>
<trkpt lat="25.284311" lon="103.982769">
<time>2016-10-07T00:08:10Z</time></trkpt>
<trkpt lat="25.284141" lon="103.982719">
<time>2016-10-07T00:08:11Z</time></trkpt>
<trkpt lat="25.284001" lon="103.98261">
<time>2016-10-07T00:08:12Z</time></trkpt>
<trkpt lat="25.283902" lon="103.98247">
<time>2016-10-07T00:08:13Z</time></trkpt>
<trkpt lat="25.283832" lon="103.982301">
<time>2016-10-07T00:08:14Z</time></trkpt>
<trkpt lat="25.283783" lon="103.982111">
<time>2016-10-07T00:08:15Z</time></trkpt>
<trkpt lat="25.283753" lon="103.981912">
<time>2016-10-07T00:08:16Z</time></trkpt>
<trkpt lat="25.283764" lon="103.981713">
<time>2016-10-07T00:08:17Z</time></trkpt>
<trkpt lat="25.283795" lon="103.981543">
<time>2016-10-07T00:08:18Z</time></trkpt>
<trkpt lat="25.283845" lon="103.981384">
<time>2016-10-07T00:08:19Z</time></trkpt>
<trkpt lat="25.283976" lon="103.981095">
<time>2016-10-07T00:08:20Z</time></trkpt>
<trkpt lat="25.284137" lon="103.980716">
<time>2016-10-07T00:08:21Z</time></trkpt>
<trkpt lat="25.284278" lon="103.980497">
<time>2016-10-07T00:08:22Z</time></trkpt>
<trkpt lat="25.284368" lon="103.980258">
<time>2016-10-07T00:08:23Z</time></trkpt>
<trkpt lat="25.284399" lon="103.980148">
<time>2016-10-07T00:08:24Z</time></trkpt>
<trkpt lat="25.284429" lon="103.979869">
<time>2016-10-07T00:08:25Z</time></trkpt>
<trkpt lat="25.28451" lon="103.97956">
<time>2016-10-07T00:08:26Z</time></trkpt>
<trkpt lat="25.284581" lon="103.979431">
<time>2016-10-07T00:08:27Z</time></trkpt>
<trkpt lat="25.284751" lon="103.979251">
<time>2016-10-07T00:08:28Z</time></trkpt>
<trkpt lat="25.284902" lon="103.979132">
<time>2016-10-07T00:08:29Z</time></trkpt>
<trkpt lat="25.284962" lon="103.979062">
<time>2016-10-07T00:08:30Z</time></trkpt>
<trkpt lat="25.285162" lon="103.978892">
<time>2016-10-07T00:08:31Z</time></trkpt>
<trkpt lat="25.285263" lon="103.978773">
<time>2016-10-07T00:08:32Z</time></trkpt>
<trkpt lat="25.285303" lon="103.978593">
<time>2016-10-07T00:08:33Z</time></trkpt>
<trkpt lat="25.285344" lon="103.978454">
<time>2016-10-07T00:08:34Z</time></trkpt>
<trkpt lat="25.285324" lon="103.978274">
<time>2016-10-07T00:08:35Z</time></trkpt>
<trkpt lat="25.285195" lon="103.977886">
<time>2016-10-07T00:08:36Z</time></trkpt>
<trkpt lat="25.285166" lon="103.977627">
<time>2016-10-07T00:08:37Z</time></trkpt>
<trkpt lat="25.285217" lon="103.977377">
<time>2016-10-07T00:08:38Z</time></trkpt>
<trkpt lat="25.285347" lon="103.977218">
<time>2016-10-07T00:08:39Z</time></trkpt>
<trkpt lat="25.285468" lon="103.977038">
<time>2016-10-07T00:08:40Z</time></trkpt>
<trkpt lat="25.285538" lon="103.976779">
<time>2016-10-07T00:08:41Z</time></trkpt>
<trkpt lat="25.28563" lon="103.976371">
<time>2016-10-07T00:08:42Z</time></trkpt>
<trkpt lat="25.285762" lon="103.975703">
<time>2016-10-07T00:08:43Z</time></trkpt>
<trkpt lat="25.285852" lon="103.975394">
<time>2016-10-07T00:08:44Z</time></trkpt>
<trkpt lat="25.285994" lon="103.974826">
<time>2016-10-07T00:08:45Z</time></trkpt>
<trkpt lat="25.286115" lon="103.974317">
<time>2016-10-07T00:08:46Z</time></trkpt>
<trkpt lat="25.286197" lon="103.973829">
<time>2016-10-07T00:08:47Z</time></trkpt>
<trkpt lat="25.286278" lon="103.97348">
<time>2016-10-07T00:08:48Z</time></trkpt>
<trkpt lat="25.286369" lon="103.973091">
<time>2016-10-07T00:08:49Z</time></trkpt>
<trkpt lat="25.28638" lon="103.972723">
<time>2016-10-07T00:08:50Z</time></trkpt>
<trkpt lat="25.28636" lon="103.972543">
<time>2016-10-07T00:08:51Z</time></trkpt>
<trkpt lat="25.286331" lon="103.972364">
<time>2016-10-07T00:08:52Z</time></trkpt>
<trkpt lat="25.286302" lon="103.972075">
<time>2016-10-07T00:08:53Z</time></trkpt>
<trkpt lat="25.286302" lon="103.971855">
<time>2016-10-07T00:08:54Z</time></trkpt>
<trkpt lat="25.286273" lon="103.971676">
<time>2016-10-07T00:08:55Z</time></trkpt>
<trkpt lat="25.286294" lon="103.971437">
<time>2016-10-07T00:08:56Z</time></trkpt>
<trkpt lat="25.286294" lon="103.971227">
<time>2016-10-07T00:08:57Z</time></trkpt>
<trkpt lat="25.286235" lon="103.970938">
<time>2016-10-07T00:08:58Z</time></trkpt>
<trkpt lat="25.286205" lon="103.970739">
<time>2016-10-07T00:08:59Z</time></trkpt>
<trkpt lat="25.286147" lon="103.97029">
<time>2016-10-07T00:09:00Z</time></trkpt>
<trkpt lat="25.286067" lon="103.970131">
<time>2016-10-07T00:09:01Z</time></trkpt>
<trkpt lat="25.286038" lon="103.969902">
<time>2016-10-07T00:09:02Z</time></trkpt>
<trkpt lat="25.285968" lon="103.969742">
<time>2016-10-07T00:09:03Z</time></trkpt>
<trkpt lat="25.285909" lon="103.969543">
<time>2016-10-07T00:09:04Z</time></trkpt>
<trkpt lat="25.285879" lon="103.969313">
<time>2016-10-07T00:09:05Z</time></trkpt>
<trkpt lat="25.28586" lon="103.969104">
<time>2016-10-07T00:09:06Z</time></trkpt>
<trkpt lat="25.28581" lon="103.968935">
<time>2016-10-07T00:09:07Z</time></trkpt>
<trkpt lat="25.285751" lon="103.968805">
<time>2016-10-07T00:09:08Z</time></trkpt>
<trkpt lat="25.285532" lon="103.968356">
<time>2016-10-07T00:09:09Z</time></trkpt>
<trkpt lat="25.285233" lon="103.967858">
<time>2016-10-07T00:09:10Z</time></trkpt>
<trkpt lat="25.285154" lon="103.967679">
<time>2016-10-07T00:09:11Z</time></trkpt>
<trkpt lat="25.284905" lon="103.96711">
<time>2016-10-07T00:09:12Z</time></trkpt>
<trkpt lat="25.284627" lon="103.966512">
<time>2016-10-07T00:09:13Z</time></trkpt>
<trkpt lat="25.284348" lon="103.965984">
<time>2016-10-07T00:09:14Z</time></trkpt>
<trkpt lat="25.284238" lon="103.965824">
<time>2016-10-07T00:09:15Z</time></trkpt>
<trkpt lat="25.284109" lon="103.965705">
<time>2016-10-07T00:09:16Z</time></trkpt>
<trkpt lat="25.283899" lon="103.965675">
<time>2016-10-07T00:09:17Z</time></trkpt>
<trkpt lat="25.283739" lon="103.965745">
<time>2016-10-07T00:09:18Z</time></trkpt>
<trkpt lat="25.283589" lon="103.965794">
<time>2016-10-07T00:09:19Z</time></trkpt>
<trkpt lat="25.283439" lon="103.965725">
<time>2016-10-07T00:09:20Z</time></trkpt>
<trkpt lat="25.283349" lon="103.965575">
<time>2016-10-07T00:09:21Z</time></trkpt>
<trkpt lat="25.28331" lon="103.965396">
<time>2016-10-07T00:09:22Z</time></trkpt>
<trkpt lat="25.28331" lon="103.965206">
<time>2016-10-07T00:09:23Z</time></trkpt>
<trkpt lat="25.283331" lon="103.965007">
<time>2016-10-07T00:09:24Z</time></trkpt>
<trkpt lat="25.283392" lon="103.964598">
<time>2016-10-07T00:09:25Z</time></trkpt>
<trkpt lat="25.283473" lon="103.964179">
<time>2016-10-07T00:09:26Z</time></trkpt>
<trkpt lat="25.283564" lon="103.96377">
<time>2016-10-07T00:09:27Z</time></trkpt>
<trkpt lat="25.283634" lon="103.963661">
<time>2016-10-07T00:09:28Z</time></trkpt>
<trkpt lat="25.283714" lon="103.963501">
<time>2016-10-07T00:09:29Z</time></trkpt>
<trkpt lat="25.283776" lon="103.963063">
<time>2016-10-07T00:09:30Z</time></trkpt>
<trkpt lat="25.283857" lon="103.962604">
<time>2016-10-07T00:09:31Z</time></trkpt>
<trkpt lat="25.283907" lon="103.962365">
<time>2016-10-07T00:09:32Z</time></trkpt>
<trkpt lat="25.284009" lon="103.961876">
<time>2016-10-07T00:09:33Z</time></trkpt>
<trkpt lat="25.28406" lon="103.961368">
<time>2016-10-07T00:09:34Z</time></trkpt>
<trkpt lat="25.284061" lon="103.961118">
<time>2016-10-07T00:09:35Z</time></trkpt>
<trkpt lat="25.284021" lon="103.960869">
<time>2016-10-07T00:09:36Z</time></trkpt>
<trkpt lat="25.283962" lon="103.96064">
<time>2016-10-07T00:09:37Z</time></trkpt>
<trkpt lat="25.283783" lon="103.960181">
<time>2016-10-07T00:09:38Z</time></trkpt>
<trkpt lat="25.283673" lon="103.959962">
<time>2016-10-07T00:09:39Z</time></trkpt>
<trkpt lat="25.283474" lon="103.959523">
<time>2016-10-07T00:09:40Z</time></trkpt>
<trkpt lat="25.283395" lon="103.959313">
<time>2016-10-07T00:09:41Z</time></trkpt>
<trkpt lat="25.283335" lon="103.959114">
<time>2016-10-07T00:09:42Z</time></trkpt>
<trkpt lat="25.283296" lon="103.958925">
<time>2016-10-07T00:09:43Z</time></trkpt>
<trkpt lat="25.283296" lon="103.958735">
<time>2016-10-07T00:09:44Z</time></trkpt>
<trkpt lat="25.283337" lon="103.958546">
<time>2016-10-07T00:09:45Z</time></trkpt>
<trkpt lat="25.283417" lon="103.958346">
<time>2016-10-07T00:09:46Z</time></trkpt>
<trkpt lat="25.283578" lon="103.958077">
<time>2016-10-07T00:09:47Z</time></trkpt>
<trkpt lat="25.283668" lon="103.957947">
<time>2016-10-07T00:09:48Z</time></trkpt>
<trkpt lat="25.283748" lon="103.957897">
<time>2016-10-07T00:09:49Z</time></trkpt>
<trkpt lat="25.283959" lon="103.957748">
<time>2016-10-07T00:09:50Z</time></trkpt>
<trkpt lat="25.284119" lon="103.957548">
<time>2016-10-07T00:09:51Z</time></trkpt>
<trkpt lat="25.28442" lon="103.95714">
<time>2016-10-07T00:09:52Z</time></trkpt>
<trkpt lat="25.284661" lon="103.956751">
<time>2016-10-07T00:09:53Z</time></trkpt>
<trkpt lat="25.284742" lon="103.956551">
<time>2016-10-07T00:09:54Z</time></trkpt>
<trkpt lat="25.284782" lon="103.956342">
<time>2016-10-07T00:09:55Z</time></trkpt>
<trkpt lat="25.284843" lon="103.956112">
<time>2016-10-07T00:09:56Z</time></trkpt>
<trkpt lat="25.284923" lon="103.955823">
<time>2016-10-07T00:09:57Z</time></trkpt>
<trkpt lat="25.285014" lon="103.955494">
<time>2016-10-07T00:09:58Z</time></trkpt>
<trkpt lat="25.285065" lon="103.955275">
<time>2016-10-07T00:09:59Z</time></trkpt>
<trkpt lat="25.285055" lon="103.955075">
<time>2016-10-07T00:10:00Z</time></trkpt>
<trkpt lat="25.284995" lon="103.954906">
<time>2016-10-07T00:10:01Z</time></trkpt>
<trkpt lat="25.284757" lon="103.954367">
<time>2016-10-07T00:10:02Z</time></trkpt>
<trkpt lat="25.284667" lon="103.954188">
<time>2016-10-07T00:10:03Z</time></trkpt>
<trkpt lat="25.284618" lon="103.953978">
<time>2016-10-07T00:10:04Z</time></trkpt>
<trkpt lat="25.284488" lon="103.953569">
<time>2016-10-07T00:10:05Z</time></trkpt>
<trkpt lat="25.284449" lon="103.95336">
<time>2016-10-07T00:10:06Z</time></trkpt>
<trkpt lat="25.284489" lon="103.95317">
<time>2016-10-07T00:10:07Z</time></trkpt>
<trkpt lat="25.2846" lon="103.953021">
<time>2016-10-07T00:10:08Z</time></trkpt>
<trkpt lat="25.28475" lon="103.952911">
<time>2016-10-07T00:10:09Z</time></trkpt>
<trkpt lat="25.28511" lon="103.952721">
<time>2016-10-07T00:10:10Z</time></trkpt>
<trkpt lat="25.285271" lon="103.952622">
<time>2016-10-07T00:10:11Z</time></trkpt>
<trkpt lat="25.285381" lon="103.952482">
<time>2016-10-07T00:10:12Z</time></trkpt>
<trkpt lat="25.285471" lon="103.952293">
<time>2016-10-07T00:10:13Z</time></trkpt>
<trkpt lat="25.285562" lon="103.952073">
<time>2016-10-07T00:10:14Z</time></trkpt>
<trkpt lat="25.285612" lon="103.951844">
<time>2016-10-07T00:10:15Z</time></trkpt>
<trkpt lat="25.285593" lon="103.951624">
<time>2016-10-07T00:10:16Z</time></trkpt>
<trkpt lat="25.285553" lon="103.951435">
<time>2016-10-07T00:10:17Z</time></trkpt>
<trkpt lat="25.285474" lon="103.951185">
<time>2016-10-07T00:10:18Z</time></trkpt>
<trkpt lat="25.285374" lon="103.950956">
<time>2016-10-07T00:10:19Z</time></trkpt>
<trkpt lat="25.285325" lon="103.950717">
<time>2016-10-07T00:10:20Z</time></trkpt>
<trkpt lat="25.285235" lon="103.950467">
<time>2016-10-07T00:10:21Z</time></trkpt>
<trkpt lat="25.285136" lon="103.950238">
<time>2016-10-07T00:10:22Z</time></trkpt>
<trkpt lat="25.285076" lon="103.950048">
<time>2016-10-07T00:10:23Z</time></trkpt>
<trkpt lat="25.284987" lon="103.949829">
<time>2016-10-07T00:10:24Z</time></trkpt>
<trkpt lat="25.284967" lon="103.949599">
<time>2016-10-07T00:10:25Z</time></trkpt>
<trkpt lat="25.284978" lon="103.949141">
<time>2016-10-07T00:10:26Z</time></trkpt>
<trkpt lat="25.284989" lon="103.948801">
<time>2016-10-07T00:10:27Z</time></trkpt>
<trkpt lat="25.285069" lon="103.948542">
<time>2016-10-07T00:10:28Z</time></trkpt>
<trkpt lat="25.285079" lon="103.948532">
<time>2016-10-07T00:10:29Z</time></trkpt>
<trkpt lat="25.28525" lon="103.948323">
<time>2016-10-07T00:10:30Z</time></trkpt>
<trkpt lat="25.28546" lon="103.948163">
<time>2016-10-07T00:10:31Z</time></trkpt>
<trkpt lat="25.28562" lon="103.948103">
<time>2016-10-07T00:10:32Z</time></trkpt>
<trkpt lat="25.285711" lon="103.947933">
<time>2016-10-07T00:10:33Z</time></trkpt>
<trkpt lat="25.285761" lon="103.947674">
<time>2016-10-07T00:10:34Z</time></trkpt>
<trkpt lat="25.285732" lon="103.947475">
<time>2016-10-07T00:10:35Z</time></trkpt>
<trkpt lat="25.285692" lon="103.947185">
<time>2016-10-07T00:10:36Z</time></trkpt>
<trkpt lat="25.285643" lon="103.946956">
<time>2016-10-07T00:10:37Z</time></trkpt>
<trkpt lat="25.285653" lon="103.946766">
<time>2016-10-07T00:10:38Z</time></trkpt>
<trkpt lat="25.285914" lon="103.946427">
<time>2016-10-07T00:10:39Z</time></trkpt>
<trkpt lat="25.286184" lon="103.946108">
<time>2016-10-07T00:10:40Z</time></trkpt>
<trkpt lat="25.286405" lon="103.945809">
<time>2016-10-07T00:10:41Z</time></trkpt>
<trkpt lat="25.286536" lon="103.945529">
<time>2016-10-07T00:10:42Z</time></trkpt>
<trkpt lat="25.286596" lon="103.94533">
<time>2016-10-07T00:10:43Z</time></trkpt>
<trkpt lat="25.286596" lon="103.94525">
<time>2016-10-07T00:10:44Z</time></trkpt>
<trkpt lat="25.286556" lon="103.94517">
<time>2016-10-07T00:10:45Z</time></trkpt>
<trkpt lat="25.286476" lon="103.94509">
<time>2016-10-07T00:10:46Z</time></trkpt>
<trkpt lat="25.286167" lon="103.944901">
<time>2016-10-07T00:10:47Z</time></trkpt>
<trkpt lat="25.285757" lon="103.944651">
<time>2016-10-07T00:10:48Z</time></trkpt>
<trkpt lat="25.285548" lon="103.944502">
<time>2016-10-07T00:10:49Z</time></trkpt>
<trkpt lat="25.285358" lon="103.944312">
<time>2016-10-07T00:10:50Z</time></trkpt>
<trkpt lat="25.285198" lon="103.944083">
<time>2016-10-07T00:10:51Z</time></trkpt>
<trkpt lat="25.285079" lon="103.943833">
<time>2016-10-07T00:10:52Z</time></trkpt>
<trkpt lat="25.284989" lon="103.943574">
<time>2016-10-07T00:10:53Z</time></trkpt>
<trkpt lat="25.28494" lon="103.943314">
<time>2016-10-07T00:10:54Z</time></trkpt>
<trkpt lat="25.28491" lon="103.943055">
<time>2016-10-07T00:10:55Z</time></trkpt>
<trkpt lat="25.284911" lon="103.942795">
<time>2016-10-07T00:10:56Z</time></trkpt>
<trkpt lat="25.284941" lon="103.942566">
<time>2016-10-07T00:10:57Z</time></trkpt>
<trkpt lat="25.284992" lon="103.942336">
<time>2016-10-07T00:10:58Z</time></trkpt>
<trkpt lat="25.285072" lon="103.942147">
<time>2016-10-07T00:10:59Z</time></trkpt>
<trkpt lat="25.285202" lon="103.941987">
<time>2016-10-07T00:11:00Z</time></trkpt>
<trkpt lat="25.285383" lon="103.941857">
<time>2016-10-07T00:11:01Z</time></trkpt>
<trkpt lat="25.285593" lon="103.941748">
<time>2016-10-07T00:11:02Z</time></trkpt>
<trkpt lat="25.285823" lon="103.941658">
<time>2016-10-07T00:11:03Z</time></trkpt>
<trkpt lat="25.286313" lon="103.941508">
<time>2016-10-07T00:11:04Z</time></trkpt>
<trkpt lat="25.286553" lon="103.941408">
<time>2016-10-07T00:11:05Z</time></trkpt>
<trkpt lat="25.286744" lon="103.941269">
<time>2016-10-07T00:11:06Z</time></trkpt>
<trkpt lat="25.286884" lon="103.941099">
<time>2016-10-07T00:11:07Z</time></trkpt>
<trkpt lat="25.286994" lon="103.9409">
<time>2016-10-07T00:11:08Z</time></trkpt>
<trkpt lat="25.287065" lon="103.9407">
<time>2016-10-07T00:11:09Z</time></trkpt>
<trkpt lat="25.287075" lon="103.94059">
<time>2016-10-07T00:11:10Z</time></trkpt>
<trkpt lat="25.287085" lon="103.940311">
<time>2016-10-07T00:11:11Z</time></trkpt>
<trkpt lat="25.287296" lon="103.939922">
<time>2016-10-07T00:11:12Z</time></trkpt>
<trkpt lat="25.287587" lon="103.939383">
<time>2016-10-07T00:11:13Z</time></trkpt>
<trkpt lat="25.287677" lon="103.939173">
<time>2016-10-07T00:11:14Z</time></trkpt>
<trkpt lat="25.287698" lon="103.938944">
<time>2016-10-07T00:11:15Z</time></trkpt>
<trkpt lat="25.287668" lon="103.938714">
<time>2016-10-07T00:11:16Z</time></trkpt>
<trkpt lat="25.287599" lon="103.938504">
<time>2016-10-07T00:11:17Z</time></trkpt>
<trkpt lat="25.287379" lon="103.938075">
<time>2016-10-07T00:11:18Z</time></trkpt>
<trkpt lat="25.28706" lon="103.937656">
<time>2016-10-07T00:11:19Z</time></trkpt>
<trkpt lat="25.286711" lon="103.937327">
<time>2016-10-07T00:11:20Z</time></trkpt>
<trkpt lat="25.286611" lon="103.937117">
<time>2016-10-07T00:11:21Z</time></trkpt>
<trkpt lat="25.286541" lon="103.936908">
<time>2016-10-07T00:11:22Z</time></trkpt>
<trkpt lat="25.286511" lon="103.936718">
<time>2016-10-07T00:11:23Z</time></trkpt>
<trkpt lat="25.286542" lon="103.936528">
<time>2016-10-07T00:11:24Z</time></trkpt>
<trkpt lat="25.286582" lon="103.936439">
<time>2016-10-07T00:11:25Z</time></trkpt>
<trkpt lat="25.286813" lon="103.936009">
<time>2016-10-07T00:11:26Z</time></trkpt>
<trkpt lat="25.286993" lon="103.93565">
<time>2016-10-07T00:11:27Z</time></trkpt>
<trkpt lat="25.287084" lon="103.935421">
<time>2016-10-07T00:11:28Z</time></trkpt>
<trkpt lat="25.287144" lon="103.935291">
<time>2016-10-07T00:11:29Z</time></trkpt>
<trkpt lat="25.287274" lon="103.934971">
<time>2016-10-07T00:11:30Z</time></trkpt>
<trkpt lat="25.287355" lon="103.934692">
<time>2016-10-07T00:11:31Z</time></trkpt>
<trkpt lat="25.287465" lon="103.934452">
<time>2016-10-07T00:11:32Z</time></trkpt>
<trkpt lat="25.287666" lon="103.934203">
<time>2016-10-07T00:11:33Z</time></trkpt>
<trkpt lat="25.287836" lon="103.933973">
<time>2016-10-07T00:11:34Z</time></trkpt>
<trkpt lat="25.288006" lon="103.933674">
<time>2016-10-07T00:11:35Z</time></trkpt>
<trkpt lat="25.288187" lon="103.933474">
<time>2016-10-07T00:11:36Z</time></trkpt>
<trkpt lat="25.288257" lon="103.933324">
<time>2016-10-07T00:11:37Z</time></trkpt>
<trkpt lat="25.288307" lon="103.933185">
<time>2016-10-07T00:11:38Z</time></trkpt>
<trkpt lat="25.288378" lon="103.932895">
<time>2016-10-07T00:11:39Z</time></trkpt>
<trkpt lat="25.288468" lon="103.932606">
<time>2016-10-07T00:11:40Z</time></trkpt>
<trkpt lat="25.288488" lon="103.932556">
<time>2016-10-07T00:11:41Z</time></trkpt>
<trkpt lat="25.288538" lon="103.932426">
<time>2016-10-07T00:11:42Z</time></trkpt>
<trkpt lat="25.288729" lon="103.931827">
<time>2016-10-07T00:11:43Z</time></trkpt>
<trkpt lat="25.28889" lon="103.931527">
<time>2016-10-07T00:11:44Z</time></trkpt>
<trkpt lat="25.289262" lon="103.92993">
<time>2016-10-07T00:11:45Z</time></trkpt>
<trkpt lat="25.289332" lon="103.929561">
<time>2016-10-07T00:11:46Z</time></trkpt>
<trkpt lat="25.289383" lon="103.929341">
<time>2016-10-07T00:11:47Z</time></trkpt>
<trkpt lat="25.289393" lon="103.929211">
<time>2016-10-07T00:11:48Z</time></trkpt>
<trkpt lat="25.289433" lon="103.929012">
<time>2016-10-07T00:11:49Z</time></trkpt>
<trkpt lat="25.289493" lon="103.928832">
<time>2016-10-07T00:11:50Z</time></trkpt>
<trkpt lat="25.289593" lon="103.928642">
<time>2016-10-07T00:11:51Z</time></trkpt>
<trkpt lat="25.289754" lon="103.928393">
<time>2016-10-07T00:11:52Z</time></trkpt>
<trkpt lat="25.289844" lon="103.928083">
<time>2016-10-07T00:11:53Z</time></trkpt>
<trkpt lat="25.289884" lon="103.927933">
<time>2016-10-07T00:11:54Z</time></trkpt>
<trkpt lat="25.289905" lon="103.927774">
<time>2016-10-07T00:11:55Z</time></trkpt>
<trkpt lat="25.289945" lon="103.927594">
<time>2016-10-07T00:11:56Z</time></trkpt>
<trkpt lat="25.289975" lon="103.927384">
<time>2016-10-07T00:11:57Z</time></trkpt>
<trkpt lat="25.289995" lon="103.927174">
<time>2016-10-07T00:11:58Z</time></trkpt>
<trkpt lat="25.290026" lon="103.926965">
<time>2016-10-07T00:11:59Z</time></trkpt>
<trkpt lat="25.290116" lon="103.926695">
<time>2016-10-07T00:12:00Z</time></trkpt>
<trkpt lat="25.290146" lon="103.926465">
<time>2016-10-07T00:12:01Z</time></trkpt>
<trkpt lat="25.290146" lon="103.926356">
<time>2016-10-07T00:12:02Z</time></trkpt>
<trkpt lat="25.290136" lon="103.926196">
<time>2016-10-07T00:12:03Z</time></trkpt>
<trkpt lat="25.290187" lon="103.926036">
<time>2016-10-07T00:12:04Z</time></trkpt>
<trkpt lat="25.290437" lon="103.925667">
<time>2016-10-07T00:12:05Z</time></trkpt>
<trkpt lat="25.290748" lon="103.925187">
<time>2016-10-07T00:12:06Z</time></trkpt>
<trkpt lat="25.290988" lon="103.924708">
<time>2016-10-07T00:12:07Z</time></trkpt>
<trkpt lat="25.291048" lon="103.924578">
<time>2016-10-07T00:12:08Z</time></trkpt>
<trkpt lat="25.291149" lon="103.924438">
<time>2016-10-07T00:12:09Z</time></trkpt>
<trkpt lat="25.291199" lon="103.924398">
<time>2016-10-07T00:12:10Z</time></trkpt>
<trkpt lat="25.291309" lon="103.924159">
<time>2016-10-07T00:12:11Z</time></trkpt>
<trkpt lat="25.291489" lon="103.923769">
<time>2016-10-07T00:12:12Z</time></trkpt>
<trkpt lat="25.2917" lon="103.92335">
<time>2016-10-07T00:12:13Z</time></trkpt>
<trkpt lat="25.29177" lon="103.9231">
<time>2016-10-07T00:12:14Z</time></trkpt>
<trkpt lat="25.29178" lon="103.92305">
<time>2016-10-07T00:12:15Z</time></trkpt>
<trkpt lat="25.29186" lon="103.9229">
<time>2016-10-07T00:12:16Z</time></trkpt>
<trkpt lat="25.292031" lon="103.922621">
<time>2016-10-07T00:12:17Z</time></trkpt>
<trkpt lat="25.292111" lon="103.922361">
<time>2016-10-07T00:12:18Z</time></trkpt>
<trkpt lat="25.292111" lon="103.922361">
<time>2016-10-07T00:12:19Z</time></trkpt>
<trkpt lat="25.292291" lon="103.921772">
<time>2016-10-07T00:12:20Z</time></trkpt>
<trkpt lat="25.292492" lon="103.920833">
<time>2016-10-07T00:12:21Z</time></trkpt>
<trkpt lat="25.292593" lon="103.919934">
<time>2016-10-07T00:12:22Z</time></trkpt>
<trkpt lat="25.29302" lon="103.909403">
<time>2016-10-07T00:12:23Z</time></trkpt>
<trkpt lat="25.293141" lon="103.907644">
<time>2016-10-07T00:12:24Z</time></trkpt>
<trkpt lat="25.293351" lon="103.906225">
<time>2016-10-07T00:12:25Z</time></trkpt>
<trkpt lat="25.293471" lon="103.905425">
<time>2016-10-07T00:12:26Z</time></trkpt>
<trkpt lat="25.294192" lon="103.902776">
<time>2016-10-07T00:12:27Z</time></trkpt>
<trkpt lat="25.296192" lon="103.896707">
<time>2016-10-07T00:12:28Z</time></trkpt>
<trkpt lat="25.297801" lon="103.891836">
<time>2016-10-07T00:12:29Z</time></trkpt>
<trkpt lat="25.298191" lon="103.890726">
<time>2016-10-07T00:12:30Z</time></trkpt>
<trkpt lat="25.298759" lon="103.888115">
<time>2016-10-07T00:12:31Z</time></trkpt>
<trkpt lat="25.298879" lon="103.887435">
<time>2016-10-07T00:12:32Z</time></trkpt>
<trkpt lat="25.299068" lon="103.884954">
<time>2016-10-07T00:12:33Z</time></trkpt>
<trkpt lat="25.299107" lon="103.883463">
<time>2016-10-07T00:12:34Z</time></trkpt>
<trkpt lat="25.299233" lon="103.878289">
<time>2016-10-07T00:12:35Z</time></trkpt>
<trkpt lat="25.299202" lon="103.877449">
<time>2016-10-07T00:12:36Z</time></trkpt>
<trkpt lat="25.29933" lon="103.875527">
<time>2016-10-07T00:12:37Z</time></trkpt>
<trkpt lat="25.29933" lon="103.875527">
<time>2016-10-07T00:12:38Z</time></trkpt>
<trkpt lat="25.29929" lon="103.875497">
<time>2016-10-07T00:12:39Z</time></trkpt>
<trkpt lat="25.29916" lon="103.875377">
<time>2016-10-07T00:12:40Z</time></trkpt>
<trkpt lat="25.29907" lon="103.875267">
<time>2016-10-07T00:12:41Z</time></trkpt>
<trkpt lat="25.29903" lon="103.875107">
<time>2016-10-07T00:12:42Z</time></trkpt>
<trkpt lat="25.29903" lon="103.875017">
<time>2016-10-07T00:12:43Z</time></trkpt>
<trkpt lat="25.299097" lon="103.872454">
<time>2016-10-07T00:12:44Z</time></trkpt>
<trkpt lat="25.299097" lon="103.872454">
<time>2016-10-07T00:12:45Z</time></trkpt>
<trkpt lat="25.299657" lon="103.872374">
<time>2016-10-07T00:12:46Z</time></trkpt>
<trkpt lat="25.299777" lon="103.872354">
<time>2016-10-07T00:12:47Z</time></trkpt>
<trkpt lat="25.300017" lon="103.872314">
<time>2016-10-07T00:12:48Z</time></trkpt>
<trkpt lat="25.300287" lon="103.872274">
<time>2016-10-07T00:12:49Z</time></trkpt>
<trkpt lat="25.300637" lon="103.872304">
<time>2016-10-07T00:12:50Z</time></trkpt>
<trkpt lat="25.300817" lon="103.872344">
<time>2016-10-07T00:12:51Z</time></trkpt>
<trkpt lat="25.301157" lon="103.872364">
<time>2016-10-07T00:12:52Z</time></trkpt>
<trkpt lat="25.301537" lon="103.872384">
<time>2016-10-07T00:12:53Z</time></trkpt>
<trkpt lat="25.302297" lon="103.872424">
<time>2016-10-07T00:12:54Z</time></trkpt>
<trkpt lat="25.302737" lon="103.872454">
<time>2016-10-07T00:12:55Z</time></trkpt>
<trkpt lat="25.302737" lon="103.872454">
<time>2016-10-07T00:12:56Z</time></trkpt>
<trkpt lat="25.302747" lon="103.872164">
<time>2016-10-07T00:12:57Z</time></trkpt>
<trkpt lat="25.302757" lon="103.871883">
<time>2016-10-07T00:12:58Z</time></trkpt>
<trkpt lat="25.302776" lon="103.871593">
<time>2016-10-07T00:12:59Z</time></trkpt>
<trkpt lat="25.302796" lon="103.871313">
<time>2016-10-07T00:13:00Z</time></trkpt>
<trkpt lat="25.302816" lon="103.871173">
<time>2016-10-07T00:13:01Z</time></trkpt>
<trkpt lat="25.302845" lon="103.870862">
<time>2016-10-07T00:13:02Z</time></trkpt>
<trkpt lat="25.302865" lon="103.870732">
<time>2016-10-07T00:13:03Z</time></trkpt>
<trkpt lat="25.302895" lon="103.870472">
<time>2016-10-07T00:13:04Z</time></trkpt>
<trkpt lat="25.302905" lon="103.870272">
<time>2016-10-07T00:13:05Z</time></trkpt>
<trkpt lat="25.302905" lon="103.870212">
<time>2016-10-07T00:13:06Z</time></trkpt>
<trkpt lat="25.302905" lon="103.870212">
<time>2016-10-07T00:13:07Z</time></trkpt>
<trkpt lat="25.303965" lon="103.870242">
<time>2016-10-07T00:13:08Z</time></trkpt>
<trkpt lat="25.303965" lon="103.870242">
<time>2016-10-07T00:13:09Z</time></trkpt>
<trkpt lat="25.303965" lon="103.870191">
<time>2016-10-07T00:13:10Z</time></trkpt>
<trkpt lat="25.303964" lon="103.870001">
<time>2016-10-07T00:13:11Z</time></trkpt>
<trkpt lat="25.303944" lon="103.869761">
<time>2016-10-07T00:13:12Z</time></trkpt>
<trkpt lat="25.303924" lon="103.869551">
<time>2016-10-07T00:13:13Z</time></trkpt>
<trkpt lat="25.303894" lon="103.869351">
<time>2016-10-07T00:13:14Z</time></trkpt>
<trkpt lat="25.303884" lon="103.86918">
<time>2016-10-07T00:13:15Z</time></trkpt>
<trkpt lat="25.303843" lon="103.86903">
<time>2016-10-07T00:13:16Z</time></trkpt>
<trkpt lat="25.303823" lon="103.86889">
<time>2016-10-07T00:13:17Z</time></trkpt>
<trkpt lat="25.303793" lon="103.8687">
<time>2016-10-07T00:13:18Z</time></trkpt>
<trkpt lat="25.303773" lon="103.86856">
<time>2016-10-07T00:13:19Z</time></trkpt>
<trkpt lat="25.303793" lon="103.868419">
<time>2016-10-07T00:13:20Z</time></trkpt>
<trkpt lat="25.303852" lon="103.868309">
<time>2016-10-07T00:13:21Z</time></trkpt>
<trkpt lat="25.303932" lon="103.868119">
<time>2016-10-07T00:13:22Z</time></trkpt>
<trkpt lat="25.304072" lon="103.867899">
<time>2016-10-07T00:13:23Z</time></trkpt>
<trkpt lat="25.304222" lon="103.867759">
<time>2016-10-07T00:13:24Z</time></trkpt>
<trkpt lat="25.304242" lon="103.867759">
<time>2016-10-07T00:13:25Z</time></trkpt>
<trkpt lat="25.304302" lon="103.867739">
<time>2016-10-07T00:13:26Z</time></trkpt>
<trkpt lat="25.304452" lon="103.867729">
<time>2016-10-07T00:13:27Z</time></trkpt>
<trkpt lat="25.304622" lon="103.867749">
<time>2016-10-07T00:13:28Z</time></trkpt>
<trkpt lat="25.304832" lon="103.867799">
<time>2016-10-07T00:13:29Z</time></trkpt>
<trkpt lat="25.304962" lon="103.867809">
<time>2016-10-07T00:13:30Z</time></trkpt>
<trkpt lat="25.305312" lon="103.867909">
<time>2016-10-07T00:13:31Z</time></trkpt>
<trkpt lat="25.305492" lon="103.867979">
<time>2016-10-07T00:13:32Z</time></trkpt>
<trkpt lat="25.305712" lon="103.868039">
<time>2016-10-07T00:13:33Z</time></trkpt>
<trkpt lat="25.305882" lon="103.868099">
<time>2016-10-07T00:13:34Z</time></trkpt>
<trkpt lat="25.305972" lon="103.868149">
<time>2016-10-07T00:13:35Z</time></trkpt>
<trkpt lat="25.306033" lon="103.868199">
<time>2016-10-07T00:13:36Z</time></trkpt>
<trkpt lat="25.306123" lon="103.868249">
<time>2016-10-07T00:13:37Z</time></trkpt>
<trkpt lat="25.306183" lon="103.868269">
<time>2016-10-07T00:13:38Z</time></trkpt>
<trkpt lat="25.306233" lon="103.868269">
<time>2016-10-07T00:13:39Z</time></trkpt>
<trkpt lat="25.306313" lon="103.868269">
<time>2016-10-07T00:13:40Z</time></trkpt>
<trkpt lat="25.306383" lon="103.868249">
<time>2016-10-07T00:13:41Z</time></trkpt>
<trkpt lat="25.306443" lon="103.868229">
<time>2016-10-07T00:13:42Z</time></trkpt>
<trkpt lat="25.306483" lon="103.868219">
<time>2016-10-07T00:13:43Z</time></trkpt>
<trkpt lat="25.306583" lon="103.868179">
<time>2016-10-07T00:13:44Z</time></trkpt>
<trkpt lat="25.306672" lon="103.868139">
<time>2016-10-07T00:13:45Z</time></trkpt>
<trkpt lat="25.306792" lon="103.868089">
<time>2016-10-07T00:13:46Z</time></trkpt>
<trkpt lat="25.306912" lon="103.868029">
<time>2016-10-07T00:13:47Z</time></trkpt>
<trkpt lat="25.307142" lon="103.867919">
<time>2016-10-07T00:13:48Z</time></trkpt>
<trkpt lat="25.307362" lon="103.867809">
<time>2016-10-07T00:13:49Z</time></trkpt>
<trkpt lat="25.307642" lon="103.867698">
<time>2016-10-07T00:13:50Z</time></trkpt>
<trkpt lat="25.307862" lon="103.867598">
<time>2016-10-07T00:13:51Z</time></trkpt>
<trkpt lat="25.308132" lon="103.867498">
<time>2016-10-07T00:13:52Z</time></trkpt>
<trkpt lat="25.308642" lon="103.867388">
<time>2016-10-07T00:13:53Z</time></trkpt>
<trkpt lat="25.309152" lon="103.867308">
<time>2016-10-07T00:13:54Z</time></trkpt>
<trkpt lat="25.309612" lon="103.867238">
<time>2016-10-07T00:13:55Z</time></trkpt>
<trkpt lat="25.310112" lon="103.867198">
<time>2016-10-07T00:13:56Z</time></trkpt>
<trkpt lat="25.310772" lon="103.867138">
<time>2016-10-07T00:13:57Z</time></trkpt>
<trkpt lat="25.311222" lon="103.867108">
<time>2016-10-07T00:13:58Z</time></trkpt>
<trkpt lat="25.311602" lon="103.867108">
<time>2016-10-07T00:13:59Z</time></trkpt>
<trkpt lat="25.311802" lon="103.867148">
<time>2016-10-07T00:14:00Z</time></trkpt>
<trkpt lat="25.311992" lon="103.867168">
<time>2016-10-07T00:14:01Z</time></trkpt>
<trkpt lat="25.312222" lon="103.867178">
<time>2016-10-07T00:14:02Z</time></trkpt>
<trkpt lat="25.312782" lon="103.867198">
<time>2016-10-07T00:14:03Z</time></trkpt>
<trkpt lat="25.313172" lon="103.867268">
<time>2016-10-07T00:14:04Z</time></trkpt>
<trkpt lat="25.313582" lon="103.867338">
<time>2016-10-07T00:14:05Z</time></trkpt>
<trkpt lat="25.313962" lon="103.867398">
<time>2016-10-07T00:14:06Z</time></trkpt>
<trkpt lat="25.314472" lon="103.867418">
<time>2016-10-07T00:14:07Z</time></trkpt>
<trkpt lat="25.314882" lon="103.867448">
<time>2016-10-07T00:14:08Z</time></trkpt>
<trkpt lat="25.315262" lon="103.867468">
<time>2016-10-07T00:14:09Z</time></trkpt>
<trkpt lat="25.315542" lon="103.867478">
<time>2016-10-07T00:14:10Z</time></trkpt>
<trkpt lat="25.315842" lon="103.867508">
<time>2016-10-07T00:14:11Z</time></trkpt>
<trkpt lat="25.316263" lon="103.867528">
<time>2016-10-07T00:14:12Z</time></trkpt>
<trkpt lat="25.316553" lon="103.867538">
<time>2016-10-07T00:14:13Z</time></trkpt>
<trkpt lat="25.317073" lon="103.867538">
<time>2016-10-07T00:14:14Z</time></trkpt>
<trkpt lat="25.317353" lon="103.867528">
<time>2016-10-07T00:14:15Z</time></trkpt>
<trkpt lat="25.317783" lon="103.867518">
<time>2016-10-07T00:14:16Z</time></trkpt>
<trkpt lat="25.318023" lon="103.867518">
<time>2016-10-07T00:14:17Z</time></trkpt>
<trkpt lat="25.318983" lon="103.867518">
<time>2016-10-07T00:14:18Z</time></trkpt>
<trkpt lat="25.319523" lon="103.867528">
<time>2016-10-07T00:14:19Z</time></trkpt>
<trkpt lat="25.320103" lon="103.867528">
<time>2016-10-07T00:14:20Z</time></trkpt>
<trkpt lat="25.320663" lon="103.867528">
<time>2016-10-07T00:14:21Z</time></trkpt>
<trkpt lat="25.320943" lon="103.867508">
<time>2016-10-07T00:14:22Z</time></trkpt>
<trkpt lat="25.321223" lon="103.867478">
<time>2016-10-07T00:14:23Z</time></trkpt>
<trkpt lat="25.321503" lon="103.867408">
<time>2016-10-07T00:14:24Z</time></trkpt>
<trkpt lat="25.321773" lon="103.867338">
<time>2016-10-07T00:14:25Z</time></trkpt>
<trkpt lat="25.322033" lon="103.867318">
<time>2016-10-07T00:14:26Z</time></trkpt>
<trkpt lat="25.322223" lon="103.867338">
<time>2016-10-07T00:14:27Z</time></trkpt>
<trkpt lat="25.322793" lon="103.867408">
<time>2016-10-07T00:14:28Z</time></trkpt>
<trkpt lat="25.323403" lon="103.867488">
<time>2016-10-07T00:14:29Z</time></trkpt>
<trkpt lat="25.324013" lon="103.867558">
<time>2016-10-07T00:14:30Z</time></trkpt>
<trkpt lat="25.324313" lon="103.867578">
<time>2016-10-07T00:14:31Z</time></trkpt>
<trkpt lat="25.324813" lon="103.867638">
<time>2016-10-07T00:14:32Z</time></trkpt>
<trkpt lat="25.324964" lon="103.867658">
<time>2016-10-07T00:14:33Z</time></trkpt>
<trkpt lat="25.325414" lon="103.867668">
<time>2016-10-07T00:14:34Z</time></trkpt>
<trkpt lat="25.325954" lon="103.867668">
<time>2016-10-07T00:14:35Z</time></trkpt>
<trkpt lat="25.326234" lon="103.867658">
<time>2016-10-07T00:14:36Z</time></trkpt>
<trkpt lat="25.326534" lon="103.867628">
<time>2016-10-07T00:14:37Z</time></trkpt>
<trkpt lat="25.327114" lon="103.867578">
<time>2016-10-07T00:14:38Z</time></trkpt>
<trkpt lat="25.327494" lon="103.867558">
<time>2016-10-07T00:14:39Z</time></trkpt>
<trkpt lat="25.328034" lon="103.867538">
<time>2016-10-07T00:14:40Z</time></trkpt>
<trkpt lat="25.328364" lon="103.867508">
<time>2016-10-07T00:14:41Z</time></trkpt>
<trkpt lat="25.328664" lon="103.867488">
<time>2016-10-07T00:14:42Z</time></trkpt>
<trkpt lat="25.329094" lon="103.867467">
<time>2016-10-07T00:14:43Z</time></trkpt>
<trkpt lat="25.329874" lon="103.867417">
<time>2016-10-07T00:14:44Z</time></trkpt>
<trkpt lat="25.330334" lon="103.867387">
<time>2016-10-07T00:14:45Z</time></trkpt>
<trkpt lat="25.330844" lon="103.867347">
<time>2016-10-07T00:14:46Z</time></trkpt>
<trkpt lat="25.331104" lon="103.867317">
<time>2016-10-07T00:14:47Z</time></trkpt>
<trkpt lat="25.331614" lon="103.867287">
<time>2016-10-07T00:14:48Z</time></trkpt>
<trkpt lat="25.331884" lon="103.867277">
<time>2016-10-07T00:14:49Z</time></trkpt>
<trkpt lat="25.332074" lon="103.867287">
<time>2016-10-07T00:14:50Z</time></trkpt>
<trkpt lat="25.332274" lon="103.867307">
<time>2016-10-07T00:14:51Z</time></trkpt>
<trkpt lat="25.332464" lon="103.867347">
<time>2016-10-07T00:14:52Z</time></trkpt>
<trkpt lat="25.332664" lon="103.867417">
<time>2016-10-07T00:14:53Z</time></trkpt>
<trkpt lat="25.332824" lon="103.867467">
<time>2016-10-07T00:14:54Z</time></trkpt>
<trkpt lat="25.333144" lon="103.867577">
<time>2016-10-07T00:14:55Z</time></trkpt>
<trkpt lat="25.333344" lon="103.867648">
<time>2016-10-07T00:14:56Z</time></trkpt>
<trkpt lat="25.333615" lon="103.867728">
<time>2016-10-07T00:14:57Z</time></trkpt>
<trkpt lat="25.333895" lon="103.867798">
<time>2016-10-07T00:14:58Z</time></trkpt>
<trkpt lat="25.334135" lon="103.867888">
<time>2016-10-07T00:14:59Z</time></trkpt>
<trkpt lat="25.334235" lon="103.867948">
<time>2016-10-07T00:15:00Z</time></trkpt>
<trkpt lat="25.334335" lon="103.867968">
<time>2016-10-07T00:15:01Z</time></trkpt>
<trkpt lat="25.334365" lon="103.867978">
<time>2016-10-07T00:15:02Z</time></trkpt>
<trkpt lat="25.334455" lon="103.868008">
<time>2016-10-07T00:15:03Z</time></trkpt>
<trkpt lat="25.334585" lon="103.868058">
<time>2016-10-07T00:15:04Z</time></trkpt>
<trkpt lat="25.334685" lon="103.868088">
<time>2016-10-07T00:15:05Z</time></trkpt>
<trkpt lat="25.334795" lon="103.868128">
<time>2016-10-07T00:15:06Z</time></trkpt>
<trkpt lat="25.334885" lon="103.868158">
<time>2016-10-07T00:15:07Z</time></trkpt>
<trkpt lat="25.335195" lon="103.868278">
<time>2016-10-07T00:15:08Z</time></trkpt>
<trkpt lat="25.335375" lon="103.868318">
<time>2016-10-07T00:15:09Z</time></trkpt>
<trkpt lat="25.335536" lon="103.868368">
<time>2016-10-07T00:15:10Z</time></trkpt>
<trkpt lat="25.335796" lon="103.868508">
<time>2016-10-07T00:15:11Z</time></trkpt>
<trkpt lat="25.336246" lon="103.868649">
<time>2016-10-07T00:15:12Z</time></trkpt>
<trkpt lat="25.336356" lon="103.868699">
<time>2016-10-07T00:15:13Z</time></trkpt>
<trkpt lat="25.336496" lon="103.868749">
<time>2016-10-07T00:15:14Z</time></trkpt>
<trkpt lat="25.336716" lon="103.868779">
<time>2016-10-07T00:15:15Z</time></trkpt>
<trkpt lat="25.336996" lon="103.868819">
<time>2016-10-07T00:15:16Z</time></trkpt>
<trkpt lat="25.337116" lon="103.868829">
<time>2016-10-07T00:15:17Z</time></trkpt>
<trkpt lat="25.337256" lon="103.868879">
<time>2016-10-07T00:15:18Z</time></trkpt>
<trkpt lat="25.337456" lon="103.868889">
<time>2016-10-07T00:15:19Z</time></trkpt>
<trkpt lat="25.337536" lon="103.868889">
<time>2016-10-07T00:15:20Z</time></trkpt>
<trkpt lat="25.337716" lon="103.868869">
<time>2016-10-07T00:15:21Z</time></trkpt>
<trkpt lat="25.338076" lon="103.868899">
<time>2016-10-07T00:15:22Z</time></trkpt>
<trkpt lat="25.338517" lon="103.868929">
<time>2016-10-07T00:15:23Z</time></trkpt>
<trkpt lat="25.339007" lon="103.868949">
<time>2016-10-07T00:15:24Z</time></trkpt>
<trkpt lat="25.339227" lon="103.868969">
<time>2016-10-07T00:15:25Z</time></trkpt>
<trkpt lat="25.339647" lon="103.869009">
<time>2016-10-07T00:15:26Z</time></trkpt>
<trkpt lat="25.339807" lon="103.869019">
<time>2016-10-07T00:15:27Z</time></trkpt>
<trkpt lat="25.339977" lon="103.869049">
<time>2016-10-07T00:15:28Z</time></trkpt>
<trkpt lat="25.340317" lon="103.869079">
<time>2016-10-07T00:15:29Z</time></trkpt>
<trkpt lat="25.340917" lon="103.869149">
<time>2016-10-07T00:15:30Z</time></trkpt>
<trkpt lat="25.341307" lon="103.869209">
<time>2016-10-07T00:15:31Z</time></trkpt>
<trkpt lat="25.341587" lon="103.869279">
<time>2016-10-07T00:15:32Z</time></trkpt>
<trkpt lat="25.341747" lon="103.869279">
<time>2016-10-07T00:15:33Z</time></trkpt>
<trkpt lat="25.342217" lon="103.869349">
<time>2016-10-07T00:15:34Z</time></trkpt>
<trkpt lat="25.342678" lon="103.869459">
<time>2016-10-07T00:15:35Z</time></trkpt>
<trkpt lat="25.343298" lon="103.869629">
<time>2016-10-07T00:15:36Z</time></trkpt>
<trkpt lat="25.343888" lon="103.86979">
<time>2016-10-07T00:15:37Z</time></trkpt>
<trkpt lat="25.344408" lon="103.86993">
<time>2016-10-07T00:15:38Z</time></trkpt>
<trkpt lat="25.344749" lon="103.87005">
<time>2016-10-07T00:15:39Z</time></trkpt>
<trkpt lat="25.345079" lon="103.87013">
<time>2016-10-07T00:15:40Z</time></trkpt>
<trkpt lat="25.345329" lon="103.87019">
<time>2016-10-07T00:15:41Z</time></trkpt>
<trkpt lat="25.345799" lon="103.87033">
<time>2016-10-07T00:15:42Z</time></trkpt>
<trkpt lat="25.346139" lon="103.87044">
<time>2016-10-07T00:15:43Z</time></trkpt>
<trkpt lat="25.346319" lon="103.87047">
<time>2016-10-07T00:15:44Z</time></trkpt>
<trkpt lat="25.346429" lon="103.8705">
<time>2016-10-07T00:15:45Z</time></trkpt>
<trkpt lat="25.346789" lon="103.87061">
<time>2016-10-07T00:15:46Z</time></trkpt>
<trkpt lat="25.34693" lon="103.87065">
<time>2016-10-07T00:15:47Z</time></trkpt>
<trkpt lat="25.34706" lon="103.870701">
<time>2016-10-07T00:15:48Z</time></trkpt>
<trkpt lat="25.34716" lon="103.870731">
<time>2016-10-07T00:15:49Z</time></trkpt>
<trkpt lat="25.34724" lon="103.870761">
<time>2016-10-07T00:15:50Z</time></trkpt>
<trkpt lat="25.34734" lon="103.870791">
<time>2016-10-07T00:15:51Z</time></trkpt>
<trkpt lat="25.34744" lon="103.870831">
<time>2016-10-07T00:15:52Z</time></trkpt>
<trkpt lat="25.34754" lon="103.870851">
<time>2016-10-07T00:15:53Z</time></trkpt>
<trkpt lat="25.34774" lon="103.870921">
<time>2016-10-07T00:15:54Z</time></trkpt>
<trkpt lat="25.34789" lon="103.871011">
<time>2016-10-07T00:15:55Z</time></trkpt>
<trkpt lat="25.34818" lon="103.871071">
<time>2016-10-07T00:15:56Z</time></trkpt>
<trkpt lat="25.34836" lon="103.871131">
<time>2016-10-07T00:15:57Z</time></trkpt>
<trkpt lat="25.34867" lon="103.871251">
<time>2016-10-07T00:15:58Z</time></trkpt>
<trkpt lat="25.348881" lon="103.871301">
<time>2016-10-07T00:15:59Z</time></trkpt>
<trkpt lat="25.348951" lon="103.871321">
<time>2016-10-07T00:16:00Z</time></trkpt>
<trkpt lat="25.348951" lon="103.871321">
<time>2016-10-07T00:16:01Z</time></trkpt>
<trkpt lat="25.350087" lon="103.868378">
<time>2016-10-07T00:16:02Z</time></trkpt>
<trkpt lat="25.350107" lon="103.868348">
<time>2016-10-07T00:16:03Z</time></trkpt>
<trkpt lat="25.350416" lon="103.867407">
<time>2016-10-07T00:16:04Z</time></trkpt>
<trkpt lat="25.350466" lon="103.867196">
<time>2016-10-07T00:16:05Z</time></trkpt>
<trkpt lat="25.350466" lon="103.867016">
<time>2016-10-07T00:16:06Z</time></trkpt>
<trkpt lat="25.350535" lon="103.866716">
<time>2016-10-07T00:16:07Z</time></trkpt>
<trkpt lat="25.350665" lon="103.866516">
<time>2016-10-07T00:16:08Z</time></trkpt>
<trkpt lat="25.351045" lon="103.866165">
<time>2016-10-07T00:16:09Z</time></trkpt>
<trkpt lat="25.351344" lon="103.865925">
<time>2016-10-07T00:16:10Z</time></trkpt>
<trkpt lat="25.351934" lon="103.865484">
<time>2016-10-07T00:16:11Z</time></trkpt>
<trkpt lat="25.352304" lon="103.865264">
<time>2016-10-07T00:16:12Z</time></trkpt>
<trkpt lat="25.352334" lon="103.865254">
<time>2016-10-07T00:16:13Z</time></trkpt>
<trkpt lat="25.352374" lon="103.865284">
<time>2016-10-07T00:16:14Z</time></trkpt>
<trkpt lat="25.352434" lon="103.865304">
<time>2016-10-07T00:16:15Z</time></trkpt>
<trkpt lat="25.352514" lon="103.865304">
<time>2016-10-07T00:16:16Z</time></trkpt>
<trkpt lat="25.352704" lon="103.865174">
<time>2016-10-07T00:16:17Z</time></trkpt>
<trkpt lat="25.353063" lon="103.864843">
<time>2016-10-07T00:16:18Z</time></trkpt>
<trkpt lat="25.353353" lon="103.864493">
<time>2016-10-07T00:16:19Z</time></trkpt>
<trkpt lat="25.353473" lon="103.864303">
<time>2016-10-07T00:16:20Z</time></trkpt>
<trkpt lat="25.353482" lon="103.864263">
<time>2016-10-07T00:16:21Z</time></trkpt>
<trkpt lat="25.353482" lon="103.864142">
<time>2016-10-07T00:16:22Z</time></trkpt>
<trkpt lat="25.353412" lon="103.863942">
<time>2016-10-07T00:16:23Z</time></trkpt>
<trkpt lat="25.353291" lon="103.863532">
<time>2016-10-07T00:16:24Z</time></trkpt>
<trkpt lat="25.353211" lon="103.863231">
<time>2016-10-07T00:16:25Z</time></trkpt>
<trkpt lat="25.353211" lon="103.863141">
<time>2016-10-07T00:16:26Z</time></trkpt>
<trkpt lat="25.353231" lon="103.863071">
<time>2016-10-07T00:16:27Z</time></trkpt>
<trkpt lat="25.353331" lon="103.863061">
<time>2016-10-07T00:16:28Z</time></trkpt>
<trkpt lat="25.353721" lon="103.863001">
<time>2016-10-07T00:16:29Z</time></trkpt>
<trkpt lat="25.353961" lon="103.863001">
<time>2016-10-07T00:16:30Z</time></trkpt>
<trkpt lat="25.355281" lon="103.862801">
<time>2016-10-07T00:16:31Z</time></trkpt>
<trkpt lat="25.356821" lon="103.8626">
<time>2016-10-07T00:16:32Z</time></trkpt>
<trkpt lat="25.356831" lon="103.8626">
<time>2016-10-07T00:16:33Z</time></trkpt>
<trkpt lat="25.357701" lon="103.86256">
<time>2016-10-07T00:16:34Z</time></trkpt>
<trkpt lat="25.359771" lon="103.86245">
<time>2016-10-07T00:16:35Z</time></trkpt>
<trkpt lat="25.360901" lon="103.86237">
<time>2016-10-07T00:16:36Z</time></trkpt>
<trkpt lat="25.361311" lon="103.86234">
<time>2016-10-07T00:16:37Z</time></trkpt>
<trkpt lat="25.361421" lon="103.86233">
<time>2016-10-07T00:16:38Z</time></trkpt>
<trkpt lat="25.361571" lon="103.8623">
<time>2016-10-07T00:16:39Z</time></trkpt>
<trkpt lat="25.361681" lon="103.86226">
<time>2016-10-07T00:16:40Z</time></trkpt>
<trkpt lat="25.361891" lon="103.86217">
<time>2016-10-07T00:16:41Z</time></trkpt>
<trkpt lat="25.361941" lon="103.86217">
<time>2016-10-07T00:16:42Z</time></trkpt>
<trkpt lat="25.361971" lon="103.86221">
<time>2016-10-07T00:16:43Z</time></trkpt>
<trkpt lat="25.362151" lon="103.86252">
<time>2016-10-07T00:16:44Z</time></trkpt>
<trkpt lat="25.362212" lon="103.86268">
<time>2016-10-07T00:16:45Z</time></trkpt>
<trkpt lat="25.362232" lon="103.86281">
<time>2016-10-07T00:16:46Z</time></trkpt>
<trkpt lat="25.362232" lon="103.862921">
<time>2016-10-07T00:16:47Z</time></trkpt>
<trkpt lat="25.362232" lon="103.863021">
<time>2016-10-07T00:16:48Z</time></trkpt>
<trkpt lat="25.362292" lon="103.863151">
<time>2016-10-07T00:16:49Z</time></trkpt>
<trkpt lat="25.362432" lon="103.863361">
<time>2016-10-07T00:16:50Z</time></trkpt>
<trkpt lat="25.362513" lon="103.863521">
<time>2016-10-07T00:16:51Z</time></trkpt>
<trkpt lat="25.362553" lon="103.863561">
<time>2016-10-07T00:16:52Z</time></trkpt>
<trkpt lat="25.362593" lon="103.863551">
<time>2016-10-07T00:16:53Z</time></trkpt>
<trkpt lat="25.362793" lon="103.863401">
<time>2016-10-07T00:16:54Z</time></trkpt>
<trkpt lat="25.363012" lon="103.863251">
<time>2016-10-07T00:16:55Z</time></trkpt>
<trkpt lat="25.363192" lon="103.863091">
<time>2016-10-07T00:16:56Z</time></trkpt>
<trkpt lat="25.363432" lon="103.862971">
<time>2016-10-07T00:16:57Z</time></trkpt>
<trkpt lat="25.363542" lon="103.8629">
<time>2016-10-07T00:16:58Z</time></trkpt>
<trkpt lat="25.363572" lon="103.86286">
<time>2016-10-07T00:16:59Z</time></trkpt>
<trkpt lat="25.363572" lon="103.86281">
<time>2016-10-07T00:17:00Z</time></trkpt>
<trkpt lat="25.363491" lon="103.86238">
<time>2016-10-07T00:17:01Z</time></trkpt>
<trkpt lat="25.363431" lon="103.862159">
<time>2016-10-07T00:17:02Z</time></trkpt>
<trkpt lat="25.363431" lon="103.862079">
<time>2016-10-07T00:17:03Z</time></trkpt>
<trkpt lat="25.363441" lon="103.861979">
<time>2016-10-07T00:17:04Z</time></trkpt>
<trkpt lat="25.363521" lon="103.861829">
<time>2016-10-07T00:17:05Z</time></trkpt>
<trkpt lat="25.3636" lon="103.861679">
<time>2016-10-07T00:17:06Z</time></trkpt>
<trkpt lat="25.36364" lon="103.861509">
<time>2016-10-07T00:17:07Z</time></trkpt>
<trkpt lat="25.3637" lon="103.861418">
<time>2016-10-07T00:17:08Z</time></trkpt>
<trkpt lat="25.36381" lon="103.861278">
<time>2016-10-07T00:17:09Z</time></trkpt>
<trkpt lat="25.363999" lon="103.860988">
<time>2016-10-07T00:17:10Z</time></trkpt>
<trkpt lat="25.364987" lon="103.859416">
<time>2016-10-07T00:17:11Z</time></trkpt>
<trkpt lat="25.365416" lon="103.858795">
<time>2016-10-07T00:17:12Z</time></trkpt>
<trkpt lat="25.365416" lon="103.858785">
<time>2016-10-07T00:17:13Z</time></trkpt>
<trkpt lat="25.365426" lon="103.858765">
<time>2016-10-07T00:17:14Z</time></trkpt>
<trkpt lat="25.365426" lon="103.858634">
<time>2016-10-07T00:17:15Z</time></trkpt>
<trkpt lat="25.365475" lon="103.858044">
<time>2016-10-07T00:17:16Z</time></trkpt>
<trkpt lat="25.365475" lon="103.858044">
<time>2016-10-07T00:17:17Z</time></trkpt>
<trkpt lat="25.370677" lon="103.858554">
<time>2016-10-07T00:17:18Z</time></trkpt>
<trkpt lat="25.371927" lon="103.858614">
<time>2016-10-07T00:17:19Z</time></trkpt>
<trkpt lat="25.372087" lon="103.858594">
<time>2016-10-07T00:17:20Z</time></trkpt>
<trkpt lat="25.372087" lon="103.858594">
<time>2016-10-07T00:17:21Z</time></trkpt>
<trkpt lat="25.371957" lon="103.858454">
<time>2016-10-07T00:17:22Z</time></trkpt>
<trkpt lat="25.371897" lon="103.858324">
<time>2016-10-07T00:17:23Z</time></trkpt>
<trkpt lat="25.371887" lon="103.858214">
<time>2016-10-07T00:17:24Z</time></trkpt>
<trkpt lat="25.371691" lon="103.854828">
<time>2016-10-07T00:17:25Z</time></trkpt>
<trkpt lat="25.371475" lon="103.851002">
<time>2016-10-07T00:17:26Z</time></trkpt>
<trkpt lat="25.371393" lon="103.8496">
<time>2016-10-07T00:17:27Z</time></trkpt>
<trkpt lat="25.371383" lon="103.84947">
<time>2016-10-07T00:17:28Z</time></trkpt>
<trkpt lat="25.371372" lon="103.84939">
<time>2016-10-07T00:17:29Z</time></trkpt>
<trkpt lat="25.371392" lon="103.84934">
<time>2016-10-07T00:17:30Z</time></trkpt>
<trkpt lat="25.371412" lon="103.8493">
<time>2016-10-07T00:17:31Z</time></trkpt>
<trkpt lat="25.371442" lon="103.849279">
<time>2016-10-07T00:17:32Z</time></trkpt>
<trkpt lat="25.371682" lon="103.849219">
<time>2016-10-07T00:17:33Z</time></trkpt>
<trkpt lat="25.372482" lon="103.849029">
<time>2016-10-07T00:17:34Z</time></trkpt>
<trkpt lat="25.372872" lon="103.848939">
<time>2016-10-07T00:17:35Z</time></trkpt>
<trkpt lat="25.372962" lon="103.848869">
<time>2016-10-07T00:17:36Z</time></trkpt>
<trkpt lat="25.373022" lon="103.848829">
<time>2016-10-07T00:17:37Z</time></trkpt>
<trkpt lat="25.373171" lon="103.848628">
<time>2016-10-07T00:17:38Z</time></trkpt>
<trkpt lat="25.373381" lon="103.848338">
<time>2016-10-07T00:17:39Z</time></trkpt>
<trkpt lat="25.373381" lon="103.848338">
<time>2016-10-07T00:17:40Z</time></trkpt>
<trkpt lat="25.373501" lon="103.848488">
<time>2016-10-07T00:17:41Z</time></trkpt>
<trkpt lat="25.373752" lon="103.848698">
<time>2016-10-07T00:17:42Z</time></trkpt>
<trkpt lat="25.374032" lon="103.848849">
<time>2016-10-07T00:17:43Z</time></trkpt>
<trkpt lat="25.374412" lon="103.849059">
<time>2016-10-07T00:17:44Z</time></trkpt>
<trkpt lat="25.374703" lon="103.849169">
<time>2016-10-07T00:17:45Z</time></trkpt>
<trkpt lat="25.374903" lon="103.849219">
<time>2016-10-07T00:17:46Z</time></trkpt>
<trkpt lat="25.375153" lon="103.849219">
<time>2016-10-07T00:17:47Z</time></trkpt>
<trkpt lat="25.375593" lon="103.849199">
<time>2016-10-07T00:17:48Z</time></trkpt>
<trkpt lat="25.376533" lon="103.849209">
<time>2016-10-07T00:17:49Z</time></trkpt>
<trkpt lat="25.378223" lon="103.849179">
<time>2016-10-07T00:17:50Z</time></trkpt>
<trkpt lat="25.378533" lon="103.849159">
<time>2016-10-07T00:17:51Z</time></trkpt>
<trkpt lat="25.378753" lon="103.849089">
<time>2016-10-07T00:17:52Z</time></trkpt>
<trkpt lat="25.378953" lon="103.849019">
<time>2016-10-07T00:17:53Z</time></trkpt>
<trkpt lat="25.379293" lon="103.848758">
<time>2016-10-07T00:17:54Z</time></trkpt>
<trkpt lat="25.379672" lon="103.848428">
<time>2016-10-07T00:17:55Z</time></trkpt>
<trkpt lat="25.379712" lon="103.848408">
<time>2016-10-07T00:17:56Z</time></trkpt>
<trkpt lat="25.380841" lon="103.847496">
<time>2016-10-07T00:17:57Z</time></trkpt>
<trkpt lat="25.3813" lon="103.847216">
<time>2016-10-07T00:17:58Z</time></trkpt>
<trkpt lat="25.38146" lon="103.847115">
<time>2016-10-07T00:17:59Z</time></trkpt>
<trkpt lat="25.382449" lon="103.846524">
<time>2016-10-07T00:18:00Z</time></trkpt>
<trkpt lat="25.384567" lon="103.845222">
<time>2016-10-07T00:18:01Z</time></trkpt>
<trkpt lat="25.385966" lon="103.844401">
<time>2016-10-07T00:18:02Z</time></trkpt>
<trkpt lat="25.386506" lon="103.84404">
<time>2016-10-07T00:18:03Z</time></trkpt>
<trkpt lat="25.386626" lon="103.84397">
<time>2016-10-07T00:18:04Z</time></trkpt>
<trkpt lat="25.387435" lon="103.843559">
<time>2016-10-07T00:18:05Z</time></trkpt>
<trkpt lat="25.388674" lon="103.843038">
<time>2016-10-07T00:18:06Z</time></trkpt>
<trkpt lat="25.388774" lon="103.842998">
<time>2016-10-07T00:18:07Z</time></trkpt>
<trkpt lat="25.389074" lon="103.842868">
<time>2016-10-07T00:18:08Z</time></trkpt>
<trkpt lat="25.389464" lon="103.842717">
<time>2016-10-07T00:18:09Z</time></trkpt>
<trkpt lat="25.389844" lon="103.842607">
<time>2016-10-07T00:18:10Z</time></trkpt>
<trkpt lat="25.390184" lon="103.842527">
<time>2016-10-07T00:18:11Z</time></trkpt>
<trkpt lat="25.390694" lon="103.842437">
<time>2016-10-07T00:18:12Z</time></trkpt>
<trkpt lat="25.391584" lon="103.842337">
<time>2016-10-07T00:18:13Z</time></trkpt>
<trkpt lat="25.391933" lon="103.842287">
<time>2016-10-07T00:18:14Z</time></trkpt>
<trkpt lat="25.392413" lon="103.842176">
<time>2016-10-07T00:18:15Z</time></trkpt>
<trkpt lat="25.393323" lon="103.842066">
<time>2016-10-07T00:18:16Z</time></trkpt>
<trkpt lat="25.395383" lon="103.841826">
<time>2016-10-07T00:18:17Z</time></trkpt>
<trkpt lat="25.395953" lon="103.841786">
<time>2016-10-07T00:18:18Z</time></trkpt>
<trkpt lat="25.396753" lon="103.841725">
<time>2016-10-07T00:18:19Z</time></trkpt>
<trkpt lat="25.397143" lon="103.841715">
<time>2016-10-07T00:18:20Z</time></trkpt>
<trkpt lat="25.397604" lon="103.841765">
<time>2016-10-07T00:18:21Z</time></trkpt>
<trkpt lat="25.398224" lon="103.841826">
<time>2016-10-07T00:18:22Z</time></trkpt>
<trkpt lat="25.398704" lon="103.841876">
<time>2016-10-07T00:18:23Z</time></trkpt>
<trkpt lat="25.400355" lon="103.842006">
<time>2016-10-07T00:18:24Z</time></trkpt>
<trkpt lat="25.400965" lon="103.842056">
<time>2016-10-07T00:18:25Z</time></trkpt>
<trkpt lat="25.401955" lon="103.842136">
<time>2016-10-07T00:18:26Z</time></trkpt>
<trkpt lat="25.402135" lon="103.842156">
<time>2016-10-07T00:18:27Z</time></trkpt>
<trkpt lat="25.402305" lon="103.842136">
<time>2016-10-07T00:18:28Z</time></trkpt>
<trkpt lat="25.402445" lon="103.842086">
<time>2016-10-07T00:18:29Z</time></trkpt>
<trkpt lat="25.402635" lon="103.842006">
<time>2016-10-07T00:18:30Z</time></trkpt>
<trkpt lat="25.402875" lon="103.841855">
<time>2016-10-07T00:18:31Z</time></trkpt>
<trkpt lat="25.403224" lon="103.841585">
<time>2016-10-07T00:18:32Z</time></trkpt>
<trkpt lat="25.403734" lon="103.841154">
<time>2016-10-07T00:18:33Z</time></trkpt>
<trkpt lat="25.404103" lon="103.840834">
<time>2016-10-07T00:18:34Z</time></trkpt>
<trkpt lat="25.404373" lon="103.840563">
<time>2016-10-07T00:18:35Z</time></trkpt>
<trkpt lat="25.404772" lon="103.840122">
<time>2016-10-07T00:18:36Z</time></trkpt>
<trkpt lat="25.40567" lon="103.83904">
<time>2016-10-07T00:18:37Z</time></trkpt>
<trkpt lat="25.406818" lon="103.837718">
<time>2016-10-07T00:18:38Z</time></trkpt>
<trkpt lat="25.407996" lon="103.836355">
<time>2016-10-07T00:18:39Z</time></trkpt>
<trkpt lat="25.408415" lon="103.835844">
<time>2016-10-07T00:18:40Z</time></trkpt>
<trkpt lat="25.408595" lon="103.835684">
<time>2016-10-07T00:18:41Z</time></trkpt>
<trkpt lat="25.408734" lon="103.835574">
<time>2016-10-07T00:18:42Z</time></trkpt>
<trkpt lat="25.408904" lon="103.835463">
<time>2016-10-07T00:18:43Z</time></trkpt>
<trkpt lat="25.409114" lon="103.835343">
<time>2016-10-07T00:18:44Z</time></trkpt>
<trkpt lat="25.409444" lon="103.835173">
<time>2016-10-07T00:18:45Z</time></trkpt>
<trkpt lat="25.411812" lon="103.833931">
<time>2016-10-07T00:18:46Z</time></trkpt>
<trkpt lat="25.414" lon="103.832788">
<time>2016-10-07T00:18:47Z</time></trkpt>
<trkpt lat="25.4149" lon="103.832327">
<time>2016-10-07T00:18:48Z</time></trkpt>
<trkpt lat="25.416029" lon="103.831736">
<time>2016-10-07T00:18:49Z</time></trkpt>
<trkpt lat="25.416209" lon="103.831646">
<time>2016-10-07T00:18:50Z</time></trkpt>
<trkpt lat="25.416678" lon="103.831406">
<time>2016-10-07T00:18:51Z</time></trkpt>
<trkpt lat="25.417797" lon="103.830804">
<time>2016-10-07T00:18:52Z</time></trkpt>
<trkpt lat="25.419036" lon="103.830193">
<time>2016-10-07T00:18:53Z</time></trkpt>
<trkpt lat="25.419226" lon="103.830123">
<time>2016-10-07T00:18:54Z</time></trkpt>
<trkpt lat="25.420745" lon="103.829402">
<time>2016-10-07T00:18:55Z</time></trkpt>
<trkpt lat="25.421135" lon="103.829151">
<time>2016-10-07T00:18:56Z</time></trkpt>
<trkpt lat="25.421315" lon="103.828951">
<time>2016-10-07T00:18:57Z</time></trkpt>
<trkpt lat="25.421554" lon="103.82861">
<time>2016-10-07T00:18:58Z</time></trkpt>
<trkpt lat="25.421873" lon="103.828119">
<time>2016-10-07T00:18:59Z</time></trkpt>
<trkpt lat="25.421963" lon="103.827989">
<time>2016-10-07T00:19:00Z</time></trkpt>
<trkpt lat="25.422013" lon="103.827929">
<time>2016-10-07T00:19:01Z</time></trkpt>
<trkpt lat="25.422592" lon="103.827428">
<time>2016-10-07T00:19:02Z</time></trkpt>
<trkpt lat="25.422961" lon="103.827107">
<time>2016-10-07T00:19:03Z</time></trkpt>
<trkpt lat="25.423581" lon="103.826576">
<time>2016-10-07T00:19:04Z</time></trkpt>
<trkpt lat="25.42372" lon="103.826366">
<time>2016-10-07T00:19:05Z</time></trkpt>
<trkpt lat="25.423899" lon="103.825925">
<time>2016-10-07T00:19:06Z</time></trkpt>
<trkpt lat="25.424148" lon="103.825244">
<time>2016-10-07T00:19:07Z</time></trkpt>
<trkpt lat="25.424228" lon="103.825033">
<time>2016-10-07T00:19:08Z</time></trkpt>
<trkpt lat="25.424298" lon="103.824863">
<time>2016-10-07T00:19:09Z</time></trkpt>
<trkpt lat="25.424397" lon="103.824663">
<time>2016-10-07T00:19:10Z</time></trkpt>
<trkpt lat="25.424547" lon="103.824462">
<time>2016-10-07T00:19:11Z</time></trkpt>
<trkpt lat="25.424906" lon="103.824121">
<time>2016-10-07T00:19:12Z</time></trkpt>
<trkpt lat="25.424946" lon="103.824051">
<time>2016-10-07T00:19:13Z</time></trkpt>
<trkpt lat="25.425236" lon="103.823781">
<time>2016-10-07T00:19:14Z</time></trkpt>
<trkpt lat="25.425895" lon="103.82321">
<time>2016-10-07T00:19:15Z</time></trkpt>
<trkpt lat="25.42942" lon="103.820154">
<time>2016-10-07T00:19:16Z</time></trkpt>
<trkpt lat="25.429809" lon="103.819953">
<time>2016-10-07T00:19:17Z</time></trkpt>
<trkpt lat="25.430569" lon="103.819623">
<time>2016-10-07T00:19:18Z</time></trkpt>
<trkpt lat="25.431479" lon="103.819282">
<time>2016-10-07T00:19:19Z</time></trkpt>
<trkpt lat="25.432448" lon="103.818831">
<time>2016-10-07T00:19:20Z</time></trkpt>
<trkpt lat="25.435236" lon="103.817529">
<time>2016-10-07T00:19:21Z</time></trkpt>
<trkpt lat="25.436485" lon="103.816948">
<time>2016-10-07T00:19:22Z</time></trkpt>
<trkpt lat="25.439304" lon="103.815635">
<time>2016-10-07T00:19:23Z</time></trkpt>
<trkpt lat="25.442042" lon="103.814333">
<time>2016-10-07T00:19:24Z</time></trkpt>
<trkpt lat="25.443411" lon="103.813681">
<time>2016-10-07T00:19:25Z</time></trkpt>
<trkpt lat="25.44505" lon="103.8129">
<time>2016-10-07T00:19:26Z</time></trkpt>
<trkpt lat="25.4454" lon="103.812739">
<time>2016-10-07T00:19:27Z</time></trkpt>
<trkpt lat="25.447818" lon="103.811587">
<time>2016-10-07T00:19:28Z</time></trkpt>
<trkpt lat="25.448358" lon="103.811347">
<time>2016-10-07T00:19:29Z</time></trkpt>
<trkpt lat="25.448768" lon="103.811247">
<time>2016-10-07T00:19:30Z</time></trkpt>
<trkpt lat="25.450038" lon="103.810936">
<time>2016-10-07T00:19:31Z</time></trkpt>
<trkpt lat="25.450827" lon="103.810686">
<time>2016-10-07T00:19:32Z</time></trkpt>
<trkpt lat="25.451247" lon="103.810565">
<time>2016-10-07T00:19:33Z</time></trkpt>
<trkpt lat="25.452047" lon="103.810325">
<time>2016-10-07T00:19:34Z</time></trkpt>
<trkpt lat="25.452577" lon="103.810195">
<time>2016-10-07T00:19:35Z</time></trkpt>
<trkpt lat="25.452937" lon="103.810195">
<time>2016-10-07T00:19:36Z</time></trkpt>
<trkpt lat="25.453617" lon="103.810145">
<time>2016-10-07T00:19:37Z</time></trkpt>
<trkpt lat="25.453817" lon="103.810135">
<time>2016-10-07T00:19:38Z</time></trkpt>
<trkpt lat="25.457168" lon="103.810034">
<time>2016-10-07T00:19:39Z</time></trkpt>
<trkpt lat="25.457228" lon="103.810034">
<time>2016-10-07T00:19:40Z</time></trkpt>
<trkpt lat="25.458048" lon="103.809994">
<time>2016-10-07T00:19:41Z</time></trkpt>
<trkpt lat="25.458328" lon="103.809954">
<time>2016-10-07T00:19:42Z</time></trkpt>
<trkpt lat="25.458418" lon="103.809934">
<time>2016-10-07T00:19:43Z</time></trkpt>
<trkpt lat="25.458708" lon="103.809854">
<time>2016-10-07T00:19:44Z</time></trkpt>
<trkpt lat="25.458948" lon="103.809774">
<time>2016-10-07T00:19:45Z</time></trkpt>
<trkpt lat="25.459128" lon="103.809714">
<time>2016-10-07T00:19:46Z</time></trkpt>
<trkpt lat="25.459178" lon="103.809704">
<time>2016-10-07T00:19:47Z</time></trkpt>
<trkpt lat="25.459178" lon="103.809704">
<time>2016-10-07T00:19:48Z</time></trkpt>
<trkpt lat="25.459338" lon="103.809663">
<time>2016-10-07T00:19:49Z</time></trkpt>
<trkpt lat="25.459468" lon="103.809623">
<time>2016-10-07T00:19:50Z</time></trkpt>
<trkpt lat="25.459948" lon="103.809453">
<time>2016-10-07T00:19:51Z</time></trkpt>
<trkpt lat="25.461337" lon="103.808962">
<time>2016-10-07T00:19:52Z</time></trkpt>
<trkpt lat="25.461977" lon="103.808732">
<time>2016-10-07T00:19:53Z</time></trkpt>
<trkpt lat="25.462057" lon="103.808712">
<time>2016-10-07T00:19:54Z</time></trkpt>
<trkpt lat="25.462497" lon="103.808551">
<time>2016-10-07T00:19:55Z</time></trkpt>
<trkpt lat="25.463406" lon="103.808221">
<time>2016-10-07T00:19:56Z</time></trkpt>
<trkpt lat="25.463676" lon="103.808131">
<time>2016-10-07T00:19:57Z</time></trkpt>
<trkpt lat="25.463676" lon="103.808131">
<time>2016-10-07T00:19:58Z</time></trkpt>
<trkpt lat="25.463936" lon="103.80804">
<time>2016-10-07T00:19:59Z</time></trkpt>
<trkpt lat="25.465416" lon="103.807509">
<time>2016-10-07T00:20:00Z</time></trkpt>
<trkpt lat="25.466785" lon="103.807019">
<time>2016-10-07T00:20:01Z</time></trkpt>
<trkpt lat="25.467545" lon="103.806758">
<time>2016-10-07T00:20:02Z</time></trkpt>
<trkpt lat="25.469024" lon="103.806217">
<time>2016-10-07T00:20:03Z</time></trkpt>
<trkpt lat="25.470334" lon="103.805736">
<time>2016-10-07T00:20:04Z</time></trkpt>
<trkpt lat="25.472193" lon="103.805065">
<time>2016-10-07T00:20:05Z</time></trkpt>
<trkpt lat="25.472413" lon="103.804985">
<time>2016-10-07T00:20:06Z</time></trkpt>
<trkpt lat="25.472593" lon="103.804915">
<time>2016-10-07T00:20:07Z</time></trkpt>
<trkpt lat="25.472863" lon="103.804825">
<time>2016-10-07T00:20:08Z</time></trkpt>
<trkpt lat="25.473233" lon="103.804684">
<time>2016-10-07T00:20:09Z</time></trkpt>
<trkpt lat="25.473583" lon="103.804564">
<time>2016-10-07T00:20:10Z</time></trkpt>
<trkpt lat="25.473713" lon="103.804514">
<time>2016-10-07T00:20:11Z</time></trkpt>
<trkpt lat="25.476352" lon="103.803562">
<time>2016-10-07T00:20:12Z</time></trkpt>
<trkpt lat="25.476712" lon="103.803432">
<time>2016-10-07T00:20:13Z</time></trkpt>
<trkpt lat="25.477182" lon="103.803302">
<time>2016-10-07T00:20:14Z</time></trkpt>
<trkpt lat="25.477322" lon="103.803282">
<time>2016-10-07T00:20:15Z</time></trkpt>
<trkpt lat="25.478232" lon="103.803091">
<time>2016-10-07T00:20:16Z</time></trkpt>
<trkpt lat="25.478792" lon="103.803011">
<time>2016-10-07T00:20:17Z</time></trkpt>
<trkpt lat="25.479612" lon="103.802881">
<time>2016-10-07T00:20:18Z</time></trkpt>
<trkpt lat="25.479682" lon="103.802871">
<time>2016-10-07T00:20:19Z</time></trkpt>
<trkpt lat="25.480602" lon="103.802771">
<time>2016-10-07T00:20:20Z</time></trkpt>
<trkpt lat="25.480772" lon="103.802751">
<time>2016-10-07T00:20:21Z</time></trkpt>
<trkpt lat="25.480772" lon="103.802751">
<time>2016-10-07T00:20:22Z</time></trkpt>
<trkpt lat="25.480792" lon="103.802711">
<time>2016-10-07T00:20:23Z</time></trkpt>
<trkpt lat="25.480802" lon="103.802691">
<time>2016-10-07T00:20:24Z</time></trkpt>
<trkpt lat="25.480871" lon="103.802581">
<time>2016-10-07T00:20:25Z</time></trkpt>
<trkpt lat="25.481041" lon="103.80231">
<time>2016-10-07T00:20:26Z</time></trkpt>
<trkpt lat="25.48123" lon="103.801779">
<time>2016-10-07T00:20:27Z</time></trkpt>
<trkpt lat="25.48123" lon="103.801769">
<time>2016-10-07T00:20:28Z</time></trkpt>
<trkpt lat="25.481389" lon="103.801338">
<time>2016-10-07T00:20:29Z</time></trkpt>
<trkpt lat="25.481708" lon="103.800427">
<time>2016-10-07T00:20:30Z</time></trkpt>
<trkpt lat="25.482266" lon="103.798864">
<time>2016-10-07T00:20:31Z</time></trkpt>
<trkpt lat="25.482724" lon="103.797572">
<time>2016-10-07T00:20:32Z</time></trkpt>
<trkpt lat="25.482963" lon="103.796891">
<time>2016-10-07T00:20:33Z</time></trkpt>
<trkpt lat="25.482973" lon="103.796841">
<time>2016-10-07T00:20:34Z</time></trkpt>
<trkpt lat="25.482983" lon="103.796811">
<time>2016-10-07T00:20:35Z</time></trkpt>
<trkpt lat="25.482993" lon="103.796781">
<time>2016-10-07T00:20:36Z</time></trkpt>
<trkpt lat="25.482993" lon="103.796771">
<time>2016-10-07T00:20:37Z</time></trkpt>
<trkpt lat="25.482993" lon="103.796771">
<time>2016-10-07T00:20:38Z</time></trkpt>
<trkpt lat="25.483013" lon="103.796771">
<time>2016-10-07T00:20:39Z</time></trkpt>
<trkpt lat="25.483053" lon="103.796751">
<time>2016-10-07T00:20:40Z</time></trkpt>
<trkpt lat="25.483053" lon="103.796751">
<time>2016-10-07T00:20:41Z</time></trkpt>
<trkpt lat="25.483062" lon="103.796661">
<time>2016-10-07T00:20:42Z</time></trkpt>
<trkpt lat="25.483062" lon="103.796661">
<time>2016-10-07T00:20:43Z</time></trkpt>
<trkpt lat="25.483242" lon="103.796611">
<time>2016-10-07T00:20:44Z</time></trkpt>
<trkpt lat="25.483472" lon="103.796551">
<time>2016-10-07T00:20:45Z</time></trkpt>
<trkpt lat="25.483922" lon="103.796421">
<time>2016-10-07T00:20:46Z</time></trkpt>
<trkpt lat="25.484952" lon="103.79614">
<time>2016-10-07T00:20:47Z</time></trkpt>
<trkpt lat="25.484952" lon="103.79614">
<time>2016-10-07T00:20:48Z</time></trkpt>
<trkpt lat="25.484902" lon="103.79596">
<time>2016-10-07T00:20:49Z</time></trkpt>
<trkpt lat="25.484872" lon="103.79576">
<time>2016-10-07T00:20:50Z</time></trkpt>
<trkpt lat="25.484881" lon="103.795409">
<time>2016-10-07T00:20:51Z</time></trkpt>
<trkpt lat="25.48493" lon="103.795008">
<time>2016-10-07T00:20:52Z</time></trkpt>
<trkpt lat="25.485631" lon="103.795048">
<time>2016-10-07T00:20:53Z</time></trkpt>
<trkpt lat="25.486211" lon="103.795099">
<time>2016-10-07T00:20:54Z</time></trkpt>
<trkpt lat="25.486281" lon="103.795058">
<time>2016-10-07T00:20:55Z</time></trkpt>
<trkpt lat="25.486391" lon="103.794988">
<time>2016-10-07T00:20:56Z</time></trkpt>
<trkpt lat="25.486441" lon="103.794948">
<time>2016-10-07T00:20:57Z</time></trkpt>
<trkpt lat="25.486461" lon="103.794918">
<time>2016-10-07T00:20:58Z</time></trkpt>
<trkpt lat="25.486501" lon="103.794878">
<time>2016-10-07T00:20:59Z</time></trkpt>
<trkpt lat="25.486521" lon="103.794838">
<time>2016-10-07T00:21:00Z</time></trkpt>
<trkpt lat="25.486531" lon="103.794798">
<time>2016-10-07T00:21:01Z</time></trkpt>
<trkpt lat="25.48655" lon="103.794728">
<time>2016-10-07T00:21:02Z</time></trkpt>
<trkpt lat="25.48656" lon="103.794658">
<time>2016-10-07T00:21:03Z</time></trkpt>
<trkpt lat="25.48657" lon="103.794598">
<time>2016-10-07T00:21:04Z</time></trkpt>
<trkpt lat="25.48656" lon="103.794518">
<time>2016-10-07T00:21:05Z</time></trkpt>
<trkpt lat="25.48646" lon="103.794127">
<time>2016-10-07T00:21:06Z</time></trkpt>
<trkpt lat="25.486349" lon="103.793646">
<time>2016-10-07T00:21:07Z</time></trkpt>
<trkpt lat="25.486298" lon="103.793396">
<time>2016-10-07T00:21:08Z</time></trkpt>
<trkpt lat="25.486288" lon="103.793306">
<time>2016-10-07T00:21:09Z</time></trkpt>
<trkpt lat="25.486268" lon="103.793126">
<time>2016-10-07T00:21:10Z</time></trkpt>
<trkpt lat="25.486298" lon="103.792875">
<time>2016-10-07T00:21:11Z</time></trkpt>
<trkpt lat="25.486337" lon="103.792645">
<time>2016-10-07T00:21:12Z</time></trkpt>
<trkpt lat="25.486407" lon="103.792415">
<time>2016-10-07T00:21:13Z</time></trkpt>
<trkpt lat="25.486467" lon="103.792204">
<time>2016-10-07T00:21:14Z</time></trkpt>
<trkpt lat="25.486636" lon="103.791924">
<time>2016-10-07T00:21:15Z</time></trkpt>
<trkpt lat="25.486956" lon="103.791453">
<time>2016-10-07T00:21:16Z</time></trkpt>
<trkpt lat="25.487185" lon="103.791123">
<time>2016-10-07T00:21:17Z</time></trkpt>
<trkpt lat="25.487525" lon="103.790562">
<time>2016-10-07T00:21:18Z</time></trkpt>
<trkpt lat="25.487545" lon="103.790522">
<time>2016-10-07T00:21:19Z</time></trkpt>
<trkpt lat="25.487654" lon="103.790402">
<time>2016-10-07T00:21:20Z</time></trkpt>
<trkpt lat="25.487864" lon="103.790081">
<time>2016-10-07T00:21:21Z</time></trkpt>
<trkpt lat="25.487964" lon="103.789921">
<time>2016-10-07T00:21:22Z</time></trkpt>
<trkpt lat="25.487964" lon="103.789921">
<time>2016-10-07T00:21:23Z</time></trkpt>
<trkpt lat="25.487994" lon="103.789921">
<time>2016-10-07T00:21:24Z</time></trkpt>
<trkpt lat="25.488964" lon="103.789921">
<time>2016-10-07T00:21:25Z</time></trkpt>
<trkpt lat="25.490665" lon="103.790001">
<time>2016-10-07T00:21:26Z</time></trkpt>
<trkpt lat="25.490865" lon="103.790041">
<time>2016-10-07T00:21:27Z</time></trkpt>
<trkpt lat="25.491745" lon="103.790061">
<time>2016-10-07T00:21:28Z</time></trkpt>
<trkpt lat="25.491965" lon="103.790071">
<time>2016-10-07T00:21:29Z</time></trkpt>
<trkpt lat="25.492155" lon="103.790091">
<time>2016-10-07T00:21:30Z</time></trkpt>
<trkpt lat="25.492255" lon="103.790111">
<time>2016-10-07T00:21:31Z</time></trkpt>
<trkpt lat="25.492496" lon="103.790131">
<time>2016-10-07T00:21:32Z</time></trkpt>
<trkpt lat="25.492666" lon="103.790161">
<time>2016-10-07T00:21:33Z</time></trkpt>
<trkpt lat="25.493046" lon="103.790221">
<time>2016-10-07T00:21:34Z</time></trkpt>
<trkpt lat="25.493236" lon="103.790251">
<time>2016-10-07T00:21:35Z</time></trkpt>
<trkpt lat="25.493236" lon="103.790251">
<time>2016-10-07T00:21:36Z</time></trkpt>
<trkpt lat="25.493295" lon="103.789911">
<time>2016-10-07T00:21:37Z</time></trkpt>
<trkpt lat="25.493484" lon="103.78905">
<time>2016-10-07T00:21:38Z</time></trkpt>
<trkpt lat="25.493673" lon="103.788199">
<time>2016-10-07T00:21:39Z</time></trkpt>
<trkpt lat="25.493872" lon="103.787227">
<time>2016-10-07T00:21:40Z</time></trkpt>
<trkpt lat="25.494002" lon="103.786927">
<time>2016-10-07T00:21:41Z</time></trkpt>
<trkpt lat="25.494311" lon="103.786576">
<time>2016-10-07T00:21:42Z</time></trkpt>
<trkpt lat="25.494371" lon="103.786516">
<time>2016-10-07T00:21:43Z</time></trkpt>
<trkpt lat="25.494561" lon="103.786306">
<time>2016-10-07T00:21:44Z</time></trkpt>
<trkpt lat="25.49553" lon="103.785325">
<time>2016-10-07T00:21:45Z</time></trkpt>
<trkpt lat="25.49554" lon="103.785315">
<time>2016-10-07T00:21:46Z</time></trkpt>
<trkpt lat="25.49555" lon="103.785305">
<time>2016-10-07T00:21:47Z</time></trkpt>
<trkpt lat="25.49591" lon="103.784944">
<time>2016-10-07T00:21:48Z</time></trkpt>
<trkpt lat="25.497888" lon="103.782932">
<time>2016-10-07T00:21:49Z</time></trkpt>
<trkpt lat="25.498697" lon="103.782121">
<time>2016-10-07T00:21:50Z</time></trkpt>
<trkpt lat="25.499077" lon="103.781731">
<time>2016-10-07T00:21:51Z</time></trkpt>
<trkpt lat="25.499516" lon="103.78128">
<time>2016-10-07T00:21:52Z</time></trkpt>
<trkpt lat="25.500016" lon="103.78077">
<time>2016-10-07T00:21:53Z</time></trkpt>
<trkpt lat="25.500835" lon="103.779939">
<time>2016-10-07T00:21:54Z</time></trkpt>
<trkpt lat="25.500895" lon="103.779879">
<time>2016-10-07T00:21:55Z</time></trkpt>
<trkpt lat="25.502074" lon="103.778737">
<time>2016-10-07T00:21:56Z</time></trkpt>
<trkpt lat="25.502614" lon="103.778207">
<time>2016-10-07T00:21:57Z</time></trkpt>
<trkpt lat="25.502684" lon="103.778147">
<time>2016-10-07T00:21:58Z</time></trkpt>
<trkpt lat="25.504323" lon="103.776775">
<time>2016-10-07T00:21:59Z</time></trkpt>
<trkpt lat="25.504723" lon="103.776465">
<time>2016-10-07T00:22:00Z</time></trkpt>
<trkpt lat="25.505172" lon="103.776115">
<time>2016-10-07T00:22:01Z</time></trkpt>
<trkpt lat="25.505152" lon="103.776085">
<time>2016-10-07T00:22:02Z</time></trkpt>
<trkpt lat="25.505142" lon="103.776045">
<time>2016-10-07T00:22:03Z</time></trkpt>
<trkpt lat="25.505132" lon="103.775975">
<time>2016-10-07T00:22:04Z</time></trkpt>
<trkpt lat="25.505132" lon="103.775925">
<time>2016-10-07T00:22:05Z</time></trkpt>
<trkpt lat="25.505142" lon="103.775875">
<time>2016-10-07T00:22:06Z</time></trkpt>
<trkpt lat="25.505162" lon="103.775814">
<time>2016-10-07T00:22:07Z</time></trkpt>
<trkpt lat="25.505192" lon="103.775764">
<time>2016-10-07T00:22:08Z</time></trkpt>
<trkpt lat="25.505222" lon="103.775724">
<time>2016-10-07T00:22:09Z</time></trkpt>
<trkpt lat="25.505242" lon="103.775714">
<time>2016-10-07T00:22:10Z</time></trkpt>
<trkpt lat="25.505282" lon="103.775684">
<time>2016-10-07T00:22:11Z</time></trkpt>
<trkpt lat="25.505312" lon="103.775674">
<time>2016-10-07T00:22:12Z</time></trkpt>
<trkpt lat="25.505322" lon="103.775664">
<time>2016-10-07T00:22:13Z</time></trkpt>
<trkpt lat="25.505342" lon="103.775654">
<time>2016-10-07T00:22:14Z</time></trkpt>
<trkpt lat="25.505362" lon="103.775654">
<time>2016-10-07T00:22:15Z</time></trkpt>
<trkpt lat="25.505622" lon="103.775304">
<time>2016-10-07T00:22:16Z</time></trkpt>
<trkpt lat="25.505642" lon="103.775284">
<time>2016-10-07T00:22:17Z</time></trkpt>
<trkpt lat="25.505782" lon="103.775024">
<time>2016-10-07T00:22:18Z</time></trkpt>
<trkpt lat="25.506001" lon="103.774653">
<time>2016-10-07T00:22:19Z</time></trkpt>
<trkpt lat="25.506351" lon="103.774183">
<time>2016-10-07T00:22:20Z</time></trkpt>
<trkpt lat="25.506381" lon="103.774143">
<time>2016-10-07T00:22:21Z</time></trkpt>
<trkpt lat="25.506411" lon="103.774103">
<time>2016-10-07T00:22:22Z</time></trkpt>
<trkpt lat="25.506461" lon="103.774033">
<time>2016-10-07T00:22:23Z</time></trkpt>
<trkpt lat="25.507" lon="103.773372">
<time>2016-10-07T00:22:24Z</time></trkpt>
<trkpt lat="25.50751" lon="103.772772">
<time>2016-10-07T00:22:25Z</time></trkpt>
<trkpt lat="25.50787" lon="103.772321">
<time>2016-10-07T00:22:26Z</time></trkpt>
<trkpt lat="25.508229" lon="103.771891">
<time>2016-10-07T00:22:27Z</time></trkpt>
<trkpt lat="25.508239" lon="103.771881">
<time>2016-10-07T00:22:28Z</time></trkpt>
<trkpt lat="25.508829" lon="103.771161">
<time>2016-10-07T00:22:29Z</time></trkpt>
<trkpt lat="25.509089" lon="103.77085">
<time>2016-10-07T00:22:30Z</time></trkpt>
<trkpt lat="25.509259" lon="103.77063">
<time>2016-10-07T00:22:31Z</time></trkpt>
<trkpt lat="25.509708" lon="103.7701">
<time>2016-10-07T00:22:32Z</time></trkpt>
<trkpt lat="25.509958" lon="103.76979">
<time>2016-10-07T00:22:33Z</time></trkpt>
<trkpt lat="25.509998" lon="103.76974">
<time>2016-10-07T00:22:34Z</time></trkpt>
<trkpt lat="25.510188" lon="103.769509">
<time>2016-10-07T00:22:35Z</time></trkpt>
<trkpt lat="25.510678" lon="103.768919">
<time>2016-10-07T00:22:36Z</time></trkpt>
<trkpt lat="25.510898" lon="103.768649">
<time>2016-10-07T00:22:37Z</time></trkpt>
<trkpt lat="25.511217" lon="103.768229">
<time>2016-10-07T00:22:38Z</time></trkpt>
<trkpt lat="25.511447" lon="103.767868">
<time>2016-10-07T00:22:39Z</time></trkpt>
<trkpt lat="25.511617" lon="103.767518">
<time>2016-10-07T00:22:40Z</time></trkpt>
<trkpt lat="25.512316" lon="103.765977">
<time>2016-10-07T00:22:41Z</time></trkpt>
<trkpt lat="25.512736" lon="103.764847">
<time>2016-10-07T00:22:42Z</time></trkpt>
<trkpt lat="25.512796" lon="103.764677">
<time>2016-10-07T00:22:43Z</time></trkpt>
<trkpt lat="25.513015" lon="103.764146">
<time>2016-10-07T00:22:44Z</time></trkpt>
<trkpt lat="25.513015" lon="103.764146">
<time>2016-10-07T00:22:45Z</time></trkpt>
<trkpt lat="25.513015" lon="103.764026">
<time>2016-10-07T00:22:46Z</time></trkpt>
<trkpt lat="25.513015" lon="103.764006">
<time>2016-10-07T00:22:47Z</time></trkpt>
<trkpt lat="25.513005" lon="103.763966">
<time>2016-10-07T00:22:48Z</time></trkpt>
<trkpt lat="25.512995" lon="103.763926">
<time>2016-10-07T00:22:49Z</time></trkpt>
<trkpt lat="25.512965" lon="103.763856">
<time>2016-10-07T00:22:50Z</time></trkpt>
<trkpt lat="25.512905" lon="103.763706">
<time>2016-10-07T00:22:51Z</time></trkpt>
<trkpt lat="25.512885" lon="103.763606">
<time>2016-10-07T00:22:52Z</time></trkpt>
<trkpt lat="25.512835" lon="103.763356">
<time>2016-10-07T00:22:53Z</time></trkpt>
<trkpt lat="25.512825" lon="103.763256">
<time>2016-10-07T00:22:54Z</time></trkpt>
<trkpt lat="25.512825" lon="103.763196">
<time>2016-10-07T00:22:55Z</time></trkpt>
<trkpt lat="25.512804" lon="103.762576">
<time>2016-10-07T00:22:56Z</time></trkpt>
<trkpt lat="25.512824" lon="103.760985">
<time>2016-10-07T00:22:57Z</time></trkpt>
<trkpt lat="25.512823" lon="103.760215">
<time>2016-10-07T00:22:58Z</time></trkpt>
<trkpt lat="25.512832" lon="103.756104">
<time>2016-10-07T00:22:59Z</time></trkpt>
<trkpt lat="25.512832" lon="103.756044">
<time>2016-10-07T00:23:00Z</time></trkpt>
<trkpt lat="25.512831" lon="103.750694">
<time>2016-10-07T00:23:01Z</time></trkpt>
<trkpt lat="25.512871" lon="103.750564">
<time>2016-10-07T00:23:02Z</time></trkpt>
<trkpt lat="25.512881" lon="103.750014">
<time>2016-10-07T00:23:03Z</time></trkpt>
<trkpt lat="25.51289" lon="103.748644">
<time>2016-10-07T00:23:04Z</time></trkpt>
<trkpt lat="25.51267" lon="103.747914">
<time>2016-10-07T00:23:05Z</time></trkpt>
<trkpt lat="25.51264" lon="103.747725">
<time>2016-10-07T00:23:06Z</time></trkpt>
<trkpt lat="25.51263" lon="103.747625">
<time>2016-10-07T00:23:07Z</time></trkpt>
<trkpt lat="25.51262" lon="103.747435">
<time>2016-10-07T00:23:08Z</time></trkpt>
<trkpt lat="25.51261" lon="103.747325">
<time>2016-10-07T00:23:09Z</time></trkpt>
<trkpt lat="25.51257" lon="103.747095">
<time>2016-10-07T00:23:10Z</time></trkpt>
<trkpt lat="25.51257" lon="103.747065">
<time>2016-10-07T00:23:11Z</time></trkpt>
<trkpt lat="25.51257" lon="103.747035">
<time>2016-10-07T00:23:12Z</time></trkpt>
<trkpt lat="25.51257" lon="103.747015">
<time>2016-10-07T00:23:13Z</time></trkpt>
<trkpt lat="25.51258" lon="103.747005">
<time>2016-10-07T00:23:14Z</time></trkpt>
<trkpt lat="25.51259" lon="103.746975">
<time>2016-10-07T00:23:15Z</time></trkpt>
<trkpt lat="25.51263" lon="103.746925">
<time>2016-10-07T00:23:16Z</time></trkpt>
<trkpt lat="25.51265" lon="103.746875">
<time>2016-10-07T00:23:17Z</time></trkpt>
<trkpt lat="25.51267" lon="103.746835">
<time>2016-10-07T00:23:18Z</time></trkpt>
<trkpt lat="25.51268" lon="103.746785">
<time>2016-10-07T00:23:19Z</time></trkpt>
<trkpt lat="25.51269" lon="103.746755">
<time>2016-10-07T00:23:20Z</time></trkpt>
<trkpt lat="25.51269" lon="103.746725">
<time>2016-10-07T00:23:21Z</time></trkpt>
<trkpt lat="25.51268" lon="103.746665">
<time>2016-10-07T00:23:22Z</time></trkpt>
<trkpt lat="25.51268" lon="103.746615">
<time>2016-10-07T00:23:23Z</time></trkpt>
<trkpt lat="25.51267" lon="103.746585">
<time>2016-10-07T00:23:24Z</time></trkpt>
<trkpt lat="25.51268" lon="103.746575">
<time>2016-10-07T00:23:25Z</time></trkpt>
<trkpt lat="25.51268" lon="103.746555">
<time>2016-10-07T00:23:26Z</time></trkpt>
<trkpt lat="25.5127" lon="103.746535">
<time>2016-10-07T00:23:27Z</time></trkpt>
<trkpt lat="25.51271" lon="103.746515">
<time>2016-10-07T00:23:28Z</time></trkpt>
<trkpt lat="25.51273" lon="103.746495">
<time>2016-10-07T00:23:29Z</time></trkpt>
<trkpt lat="25.512771" lon="103.746435">
<time>2016-10-07T00:23:30Z</time></trkpt>
<trkpt lat="25.512791" lon="103.746385">
<time>2016-10-07T00:23:31Z</time></trkpt>
<trkpt lat="25.512801" lon="103.746355">
<time>2016-10-07T00:23:32Z</time></trkpt>
<trkpt lat="25.512811" lon="103.746275">
<time>2016-10-07T00:23:33Z</time></trkpt>
<trkpt lat="25.512821" lon="103.746205">
<time>2016-10-07T00:23:34Z</time></trkpt>
<trkpt lat="25.512911" lon="103.743186">
<time>2016-10-07T00:23:35Z</time></trkpt>
<trkpt lat="25.512911" lon="103.741897">
<time>2016-10-07T00:23:36Z</time></trkpt>
<trkpt lat="25.512911" lon="103.741747">
<time>2016-10-07T00:23:37Z</time></trkpt>
<trkpt lat="25.512903" lon="103.73698">
<time>2016-10-07T00:23:38Z</time></trkpt>
<trkpt lat="25.512894" lon="103.734361">
<time>2016-10-07T00:23:39Z</time></trkpt>
<trkpt lat="25.512885" lon="103.732533">
<time>2016-10-07T00:23:40Z</time></trkpt>
<trkpt lat="25.512915" lon="103.731993">
<time>2016-10-07T00:23:41Z</time></trkpt>
<trkpt lat="25.512926" lon="103.731504">
<time>2016-10-07T00:23:42Z</time></trkpt>
<trkpt lat="25.512966" lon="103.731104">
<time>2016-10-07T00:23:43Z</time></trkpt>
<trkpt lat="25.513026" lon="103.730745">
<time>2016-10-07T00:23:44Z</time></trkpt>
<trkpt lat="25.513117" lon="103.730345">
<time>2016-10-07T00:23:45Z</time></trkpt>
<trkpt lat="25.513247" lon="103.729935">
<time>2016-10-07T00:23:46Z</time></trkpt>
<trkpt lat="25.513397" lon="103.729596">
<time>2016-10-07T00:23:47Z</time></trkpt>
<trkpt lat="25.513457" lon="103.729496">
<time>2016-10-07T00:23:48Z</time></trkpt>
<trkpt lat="25.513618" lon="103.729186">
<time>2016-10-07T00:23:49Z</time></trkpt>
<trkpt lat="25.513938" lon="103.728677">
<time>2016-10-07T00:23:50Z</time></trkpt>
<trkpt lat="25.514288" lon="103.728247">
<time>2016-10-07T00:23:51Z</time></trkpt>
<trkpt lat="25.514839" lon="103.727658">
<time>2016-10-07T00:23:52Z</time></trkpt>
<trkpt lat="25.51592" lon="103.726659">
<time>2016-10-07T00:23:53Z</time></trkpt>
<trkpt lat="25.51606" lon="103.726519">
<time>2016-10-07T00:23:54Z</time></trkpt>
<trkpt lat="25.51606" lon="103.726519">
<time>2016-10-07T00:23:55Z</time></trkpt>
<trkpt lat="25.515291" lon="103.72531">
<time>2016-10-07T00:23:56Z</time></trkpt>
<trkpt lat="25.514362" lon="103.723962">
<time>2016-10-07T00:23:57Z</time></trkpt>
<trkpt lat="25.513922" lon="103.723343">
<time>2016-10-07T00:23:58Z</time></trkpt>
<trkpt lat="25.513413" lon="103.722733">
<time>2016-10-07T00:23:59Z</time></trkpt>
<trkpt lat="25.512653" lon="103.721855">
<time>2016-10-07T00:24:00Z</time></trkpt>
<trkpt lat="25.511944" lon="103.721076">
<time>2016-10-07T00:24:01Z</time></trkpt>
<trkpt lat="25.510385" lon="103.719388">
<time>2016-10-07T00:24:02Z</time></trkpt>
<trkpt lat="25.509756" lon="103.718669">
<time>2016-10-07T00:24:03Z</time></trkpt>
<trkpt lat="25.509096" lon="103.71797">
<time>2016-10-07T00:24:04Z</time></trkpt>
<trkpt lat="25.509016" lon="103.71794">
<time>2016-10-07T00:24:05Z</time></trkpt>
<trkpt lat="25.508966" lon="103.71792">
<time>2016-10-07T00:24:06Z</time></trkpt>
<trkpt lat="25.508936" lon="103.71791">
<time>2016-10-07T00:24:07Z</time></trkpt>
<trkpt lat="25.508896" lon="103.7179">
<time>2016-10-07T00:24:08Z</time></trkpt>
<trkpt lat="25.508876" lon="103.71788">
<time>2016-10-07T00:24:09Z</time></trkpt>
<trkpt lat="25.508856" lon="103.71785">
<time>2016-10-07T00:24:10Z</time></trkpt>
<trkpt lat="25.508267" lon="103.717171">
<time>2016-10-07T00:24:11Z</time></trkpt>
<trkpt lat="25.507427" lon="103.716263">
<time>2016-10-07T00:24:12Z</time></trkpt>
<trkpt lat="25.507298" lon="103.716123">
<time>2016-10-07T00:24:13Z</time></trkpt>
<trkpt lat="25.506398" lon="103.715144">
<time>2016-10-07T00:24:14Z</time></trkpt>
<trkpt lat="25.505869" lon="103.714585">
<time>2016-10-07T00:24:15Z</time></trkpt>
<trkpt lat="25.505819" lon="103.714525">
<time>2016-10-07T00:24:16Z</time></trkpt>
<trkpt lat="25.50525" lon="103.713926">
<time>2016-10-07T00:24:17Z</time></trkpt>
<trkpt lat="25.50501" lon="103.713677">
<time>2016-10-07T00:24:18Z</time></trkpt>
<trkpt lat="25.503971" lon="103.712578">
<time>2016-10-07T00:24:19Z</time></trkpt>
<trkpt lat="25.503072" lon="103.71154">
<time>2016-10-07T00:24:20Z</time></trkpt>
<trkpt lat="25.502492" lon="103.710921">
<time>2016-10-07T00:24:21Z</time></trkpt>
<trkpt lat="25.502023" lon="103.710402">
<time>2016-10-07T00:24:22Z</time></trkpt>
<trkpt lat="25.501593" lon="103.709953">
<time>2016-10-07T00:24:23Z</time></trkpt>
<trkpt lat="25.501264" lon="103.709464">
<time>2016-10-07T00:24:24Z</time></trkpt>
<trkpt lat="25.500965" lon="103.708885">
<time>2016-10-07T00:24:25Z</time></trkpt>
<trkpt lat="25.500765" lon="103.708446">
<time>2016-10-07T00:24:26Z</time></trkpt>
<trkpt lat="25.500317" lon="103.707168">
<time>2016-10-07T00:24:27Z</time></trkpt>
<trkpt lat="25.500008" lon="103.7062">
<time>2016-10-07T00:24:28Z</time></trkpt>
<trkpt lat="25.499809" lon="103.70568">
<time>2016-10-07T00:24:29Z</time></trkpt>
<trkpt lat="25.499251" lon="103.704113">
<time>2016-10-07T00:24:30Z</time></trkpt>
<trkpt lat="25.498982" lon="103.703305">
<time>2016-10-07T00:24:31Z</time></trkpt>
<trkpt lat="25.498663" lon="103.702666">
<time>2016-10-07T00:24:32Z</time></trkpt>
<trkpt lat="25.498413" lon="103.702257">
<time>2016-10-07T00:24:33Z</time></trkpt>
<trkpt lat="25.498134" lon="103.701818">
<time>2016-10-07T00:24:34Z</time></trkpt>
<trkpt lat="25.497515" lon="103.701119">
<time>2016-10-07T00:24:35Z</time></trkpt>
<trkpt lat="25.496566" lon="103.700251">
<time>2016-10-07T00:24:36Z</time></trkpt>
<trkpt lat="25.495397" lon="103.699153">
<time>2016-10-07T00:24:37Z</time></trkpt>
<trkpt lat="25.494069" lon="103.697906">
<time>2016-10-07T00:24:38Z</time></trkpt>
<trkpt lat="25.49334" lon="103.697227">
<time>2016-10-07T00:24:39Z</time></trkpt>
<trkpt lat="25.49289" lon="103.696748">
<time>2016-10-07T00:24:40Z</time></trkpt>
<trkpt lat="25.492531" lon="103.696239">
<time>2016-10-07T00:24:41Z</time></trkpt>
<trkpt lat="25.492272" lon="103.69579">
<time>2016-10-07T00:24:42Z</time></trkpt>
<trkpt lat="25.492013" lon="103.695271">
<time>2016-10-07T00:24:43Z</time></trkpt>
<trkpt lat="25.491843" lon="103.694742">
<time>2016-10-07T00:24:44Z</time></trkpt>
<trkpt lat="25.491684" lon="103.694174">
<time>2016-10-07T00:24:45Z</time></trkpt>
<trkpt lat="25.491644" lon="103.694034">
<time>2016-10-07T00:24:46Z</time></trkpt>
<trkpt lat="25.491625" lon="103.693884">
<time>2016-10-07T00:24:47Z</time></trkpt>
<trkpt lat="25.491595" lon="103.693685">
<time>2016-10-07T00:24:48Z</time></trkpt>
<trkpt lat="25.491565" lon="103.693435">
<time>2016-10-07T00:24:49Z</time></trkpt>
<trkpt lat="25.491536" lon="103.693026">
<time>2016-10-07T00:24:50Z</time></trkpt>
<trkpt lat="25.491517" lon="103.692557">
<time>2016-10-07T00:24:51Z</time></trkpt>
<trkpt lat="25.491579" lon="103.691639">
<time>2016-10-07T00:24:52Z</time></trkpt>
<trkpt lat="25.491732" lon="103.689524">
<time>2016-10-07T00:24:53Z</time></trkpt>
<trkpt lat="25.491746" lon="103.687388">
<time>2016-10-07T00:24:54Z</time></trkpt>
<trkpt lat="25.491558" lon="103.686291">
<time>2016-10-07T00:24:55Z</time></trkpt>
<trkpt lat="25.491161" lon="103.684844">
<time>2016-10-07T00:24:56Z</time></trkpt>
<trkpt lat="25.490693" lon="103.683587">
<time>2016-10-07T00:24:57Z</time></trkpt>
<trkpt lat="25.490026" lon="103.681891">
<time>2016-10-07T00:24:58Z</time></trkpt>
<trkpt lat="25.489179" lon="103.679706">
<time>2016-10-07T00:24:59Z</time></trkpt>
<trkpt lat="25.488411" lon="103.678649">
<time>2016-10-07T00:25:00Z</time></trkpt>
<trkpt lat="25.488371" lon="103.678609">
<time>2016-10-07T00:25:01Z</time></trkpt>
<trkpt lat="25.488371" lon="103.678609">
<time>2016-10-07T00:25:02Z</time></trkpt>
<trkpt lat="25.488562" lon="103.67813">
<time>2016-10-07T00:25:03Z</time></trkpt>
<trkpt lat="25.488793" lon="103.677541">
<time>2016-10-07T00:25:04Z</time></trkpt>
<trkpt lat="25.488824" lon="103.677461">
<time>2016-10-07T00:25:05Z</time></trkpt>
<trkpt lat="25.488844" lon="103.677421">
<time>2016-10-07T00:25:06Z</time></trkpt>
<trkpt lat="25.488864" lon="103.677372">
<time>2016-10-07T00:25:07Z</time></trkpt>
<trkpt lat="25.488874" lon="103.677322">
<time>2016-10-07T00:25:08Z</time></trkpt>
<trkpt lat="25.488884" lon="103.677282">
<time>2016-10-07T00:25:09Z</time></trkpt>
<trkpt lat="25.488884" lon="103.677262">
<time>2016-10-07T00:25:10Z</time></trkpt>
<trkpt lat="25.488884" lon="103.677222">
<time>2016-10-07T00:25:11Z</time></trkpt>
<trkpt lat="25.488874" lon="103.677182">
<time>2016-10-07T00:25:12Z</time></trkpt>
<trkpt lat="25.488864" lon="103.677152">
<time>2016-10-07T00:25:13Z</time></trkpt>
<trkpt lat="25.488824" lon="103.677082">
<time>2016-10-07T00:25:14Z</time></trkpt>
<trkpt lat="25.488764" lon="103.677012">
<time>2016-10-07T00:25:15Z</time></trkpt>
<trkpt lat="25.488715" lon="103.676963">
<time>2016-10-07T00:25:16Z</time></trkpt>
<trkpt lat="25.488485" lon="103.676673">
<time>2016-10-07T00:25:17Z</time></trkpt>
<trkpt lat="25.488266" lon="103.676334">
<time>2016-10-07T00:25:18Z</time></trkpt>
<trkpt lat="25.487956" lon="103.675945">
<time>2016-10-07T00:25:19Z</time></trkpt>
<trkpt lat="25.487906" lon="103.675845">
<time>2016-10-07T00:25:20Z</time></trkpt>
<trkpt lat="25.487797" lon="103.675546">
<time>2016-10-07T00:25:21Z</time></trkpt>
<trkpt lat="25.487558" lon="103.675147">
<time>2016-10-07T00:25:22Z</time></trkpt>
<trkpt lat="25.487488" lon="103.674967">
<time>2016-10-07T00:25:23Z</time></trkpt>
<trkpt lat="25.487318" lon="103.674728">
<time>2016-10-07T00:25:24Z</time></trkpt>
<trkpt lat="25.487248" lon="103.674668">
<time>2016-10-07T00:25:25Z</time></trkpt>
<trkpt lat="25.487208" lon="103.674638">
<time>2016-10-07T00:25:26Z</time></trkpt>
<trkpt lat="25.487159" lon="103.674588">
<time>2016-10-07T00:25:27Z</time></trkpt>
<trkpt lat="25.487059" lon="103.674518">
<time>2016-10-07T00:25:28Z</time></trkpt>
<trkpt lat="25.486929" lon="103.674339">
<time>2016-10-07T00:25:29Z</time></trkpt>
<trkpt lat="25.486799" lon="103.674209">
<time>2016-10-07T00:25:30Z</time></trkpt>
<trkpt lat="25.486659" lon="103.674159">
<time>2016-10-07T00:25:31Z</time></trkpt>
<trkpt lat="25.486609" lon="103.674109">
<time>2016-10-07T00:25:32Z</time></trkpt>
<trkpt lat="25.486419" lon="103.67399">
<time>2016-10-07T00:25:33Z</time></trkpt>
<trkpt lat="25.48627" lon="103.67384">
<time>2016-10-07T00:25:34Z</time></trkpt>
<trkpt lat="25.48613" lon="103.67365">
<time>2016-10-07T00:25:35Z</time></trkpt>
<trkpt lat="25.48601" lon="103.673481">
<time>2016-10-07T00:25:36Z</time></trkpt>
<trkpt lat="25.485881" lon="103.673361">
<time>2016-10-07T00:25:37Z</time></trkpt>
<trkpt lat="25.485761" lon="103.673192">
<time>2016-10-07T00:25:38Z</time></trkpt>
<trkpt lat="25.485591" lon="103.673012">
<time>2016-10-07T00:25:39Z</time></trkpt>
<trkpt lat="25.485521" lon="103.672892">
<time>2016-10-07T00:25:40Z</time></trkpt>
<trkpt lat="25.485472" lon="103.672593">
<time>2016-10-07T00:25:41Z</time></trkpt>
<trkpt lat="25.485392" lon="103.672463">
<time>2016-10-07T00:25:42Z</time></trkpt>
<trkpt lat="25.485272" lon="103.672393">
<time>2016-10-07T00:25:43Z</time></trkpt>
<trkpt lat="25.485182" lon="103.672393">
<time>2016-10-07T00:25:44Z</time></trkpt>
<trkpt lat="25.485082" lon="103.672413">
<time>2016-10-07T00:25:45Z</time></trkpt>
<trkpt lat="25.484962" lon="103.672393">
<time>2016-10-07T00:25:46Z</time></trkpt>
<trkpt lat="25.484732" lon="103.672244">
<time>2016-10-07T00:25:47Z</time></trkpt>
<trkpt lat="25.484513" lon="103.672024">
<time>2016-10-07T00:25:48Z</time></trkpt>
<trkpt lat="25.484403" lon="103.671895">
<time>2016-10-07T00:25:49Z</time></trkpt>
<trkpt lat="25.484323" lon="103.671745">
<time>2016-10-07T00:25:50Z</time></trkpt>
<trkpt lat="25.484174" lon="103.671446">
<time>2016-10-07T00:25:51Z</time></trkpt>
<trkpt lat="25.484064" lon="103.671127">
<time>2016-10-07T00:25:52Z</time></trkpt>
<trkpt lat="25.483995" lon="103.670787">
<time>2016-10-07T00:25:53Z</time></trkpt>
<trkpt lat="25.483826" lon="103.670179">
<time>2016-10-07T00:25:54Z</time></trkpt>
<trkpt lat="25.483736" lon="103.670119">
<time>2016-10-07T00:25:55Z</time></trkpt>
<trkpt lat="25.483646" lon="103.670079">
<time>2016-10-07T00:25:56Z</time></trkpt>
<trkpt lat="25.483476" lon="103.670029">
<time>2016-10-07T00:25:57Z</time></trkpt>
<trkpt lat="25.483476" lon="103.670029">
<time>2016-10-07T00:25:58Z</time></trkpt>
<trkpt lat="25.483466" lon="103.670029">
<time>2016-10-07T00:25:59Z</time></trkpt>
<trkpt lat="25.483386" lon="103.669919">
<time>2016-10-07T00:26:00Z</time></trkpt>
<trkpt lat="25.483327" lon="103.66978">
<time>2016-10-07T00:26:01Z</time></trkpt>
<trkpt lat="25.483147" lon="103.66965">
<time>2016-10-07T00:26:02Z</time></trkpt>
<trkpt lat="25.482737" lon="103.66962">
<time>2016-10-07T00:26:03Z</time></trkpt>
<trkpt lat="25.482697" lon="103.66962">
<time>2016-10-07T00:26:04Z</time></trkpt>
<trkpt lat="25.482467" lon="103.66963">
<time>2016-10-07T00:26:05Z</time></trkpt>
<trkpt lat="25.482347" lon="103.66962">
<time>2016-10-07T00:26:06Z</time></trkpt>
<trkpt lat="25.482067" lon="103.66956">
<time>2016-10-07T00:26:07Z</time></trkpt>
<trkpt lat="25.481927" lon="103.66951">
<time>2016-10-07T00:26:08Z</time></trkpt>
<trkpt lat="25.481797" lon="103.669441">
<time>2016-10-07T00:26:09Z</time></trkpt>
<trkpt lat="25.481677" lon="103.669341">
<time>2016-10-07T00:26:10Z</time></trkpt>
<trkpt lat="25.481577" lon="103.669231">
<time>2016-10-07T00:26:11Z</time></trkpt>
<trkpt lat="25.481388" lon="103.668992">
<time>2016-10-07T00:26:12Z</time></trkpt>
<trkpt lat="25.481298" lon="103.668812">
<time>2016-10-07T00:26:13Z</time></trkpt>
<trkpt lat="25.481008" lon="103.668453">
<time>2016-10-07T00:26:14Z</time></trkpt>
<trkpt lat="25.480869" lon="103.668373">
<time>2016-10-07T00:26:15Z</time></trkpt>
<trkpt lat="25.480719" lon="103.668293">
<time>2016-10-07T00:26:16Z</time></trkpt>
<trkpt lat="25.480559" lon="103.668244">
<time>2016-10-07T00:26:17Z</time></trkpt>
<trkpt lat="25.480399" lon="103.668194">
<time>2016-10-07T00:26:18Z</time></trkpt>
<trkpt lat="25.480289" lon="103.668134">
<time>2016-10-07T00:26:19Z</time></trkpt>
<trkpt lat="25.480159" lon="103.668014">
<time>2016-10-07T00:26:20Z</time></trkpt>
<trkpt lat="25.480039" lon="103.667844">
<time>2016-10-07T00:26:21Z</time></trkpt>
<trkpt lat="25.47993" lon="103.667715">
<time>2016-10-07T00:26:22Z</time></trkpt>
<trkpt lat="25.4798" lon="103.667595">
<time>2016-10-07T00:26:23Z</time></trkpt>
<trkpt lat="25.47974" lon="103.667555">
<time>2016-10-07T00:26:24Z</time></trkpt>
<trkpt lat="25.47966" lon="103.667495">
<time>2016-10-07T00:26:25Z</time></trkpt>
<trkpt lat="25.47951" lon="103.667426">
<time>2016-10-07T00:26:26Z</time></trkpt>
<trkpt lat="25.47922" lon="103.667326">
<time>2016-10-07T00:26:27Z</time></trkpt>
<trkpt lat="25.47889" lon="103.667206">
<time>2016-10-07T00:26:28Z</time></trkpt>
<trkpt lat="25.47882" lon="103.667156">
<time>2016-10-07T00:26:29Z</time></trkpt>
<trkpt lat="25.47875" lon="103.667086">
<time>2016-10-07T00:26:30Z</time></trkpt>
<trkpt lat="25.478611" lon="103.666897">
<time>2016-10-07T00:26:31Z</time></trkpt>
<trkpt lat="25.478531" lon="103.666847">
<time>2016-10-07T00:26:32Z</time></trkpt>
<trkpt lat="25.478361" lon="103.666797">
<time>2016-10-07T00:26:33Z</time></trkpt>
<trkpt lat="25.478201" lon="103.666747">
<time>2016-10-07T00:26:34Z</time></trkpt>
<trkpt lat="25.477941" lon="103.666538">
<time>2016-10-07T00:26:35Z</time></trkpt>
<trkpt lat="25.477692" lon="103.666298">
<time>2016-10-07T00:26:36Z</time></trkpt>
<trkpt lat="25.477562" lon="103.666139">
<time>2016-10-07T00:26:37Z</time></trkpt>
<trkpt lat="25.477502" lon="103.666049">
<time>2016-10-07T00:26:38Z</time></trkpt>
<trkpt lat="25.477442" lon="103.665919">
<time>2016-10-07T00:26:39Z</time></trkpt>
<trkpt lat="25.477353" lon="103.66577">
<time>2016-10-07T00:26:40Z</time></trkpt>
<trkpt lat="25.477183" lon="103.66551">
<time>2016-10-07T00:26:41Z</time></trkpt>
<trkpt lat="25.476844" lon="103.665061">
<time>2016-10-07T00:26:42Z</time></trkpt>
<trkpt lat="25.476724" lon="103.664882">
<time>2016-10-07T00:26:43Z</time></trkpt>
<trkpt lat="25.476584" lon="103.664692">
<time>2016-10-07T00:26:44Z</time></trkpt>
<trkpt lat="25.476405" lon="103.664542">
<time>2016-10-07T00:26:45Z</time></trkpt>
<trkpt lat="25.476315" lon="103.664413">
<time>2016-10-07T00:26:46Z</time></trkpt>
<trkpt lat="25.476225" lon="103.664343">
<time>2016-10-07T00:26:47Z</time></trkpt>
<trkpt lat="25.476125" lon="103.664273">
<time>2016-10-07T00:26:48Z</time></trkpt>
<trkpt lat="25.475915" lon="103.664183">
<time>2016-10-07T00:26:49Z</time></trkpt>
<trkpt lat="25.475715" lon="103.664193">
<time>2016-10-07T00:26:50Z</time></trkpt>
<trkpt lat="25.475515" lon="103.664233">
<time>2016-10-07T00:26:51Z</time></trkpt>
<trkpt lat="25.475045" lon="103.664363">
<time>2016-10-07T00:26:52Z</time></trkpt>
<trkpt lat="25.474714" lon="103.664483">
<time>2016-10-07T00:26:53Z</time></trkpt>
<trkpt lat="25.474354" lon="103.664572">
<time>2016-10-07T00:26:54Z</time></trkpt>
<trkpt lat="25.474184" lon="103.664602">
<time>2016-10-07T00:26:55Z</time></trkpt>
<trkpt lat="25.473913" lon="103.664792">
<time>2016-10-07T00:26:56Z</time></trkpt>
<trkpt lat="25.473813" lon="103.664902">
<time>2016-10-07T00:26:57Z</time></trkpt>
<trkpt lat="25.473663" lon="103.665111">
<time>2016-10-07T00:26:58Z</time></trkpt>
<trkpt lat="25.473663" lon="103.665111">
<time>2016-10-07T00:26:59Z</time></trkpt>
<trkpt lat="25.47362" lon="103.66128">
<time>2016-10-07T00:27:00Z</time></trkpt>
<trkpt lat="25.473613" lon="103.659854">
<time>2016-10-07T00:27:01Z</time></trkpt>
<trkpt lat="25.473623" lon="103.659644">
<time>2016-10-07T00:27:02Z</time></trkpt>
<trkpt lat="25.473634" lon="103.659435">
<time>2016-10-07T00:27:03Z</time></trkpt>
<trkpt lat="25.473664" lon="103.659225">
<time>2016-10-07T00:27:04Z</time></trkpt>
<trkpt lat="25.473714" lon="103.659006">
<time>2016-10-07T00:27:05Z</time></trkpt>
<trkpt lat="25.473795" lon="103.658776">
<time>2016-10-07T00:27:06Z</time></trkpt>
<trkpt lat="25.47479" lon="103.655923">
<time>2016-10-07T00:27:07Z</time></trkpt>
<trkpt lat="25.474881" lon="103.655723">
<time>2016-10-07T00:27:08Z</time></trkpt>
<trkpt lat="25.475021" lon="103.655514">
<time>2016-10-07T00:27:09Z</time></trkpt>
<trkpt lat="25.475181" lon="103.655374">
<time>2016-10-07T00:27:10Z</time></trkpt>
<trkpt lat="25.475382" lon="103.655284">
<time>2016-10-07T00:27:11Z</time></trkpt>
<trkpt lat="25.475582" lon="103.655204">
<time>2016-10-07T00:27:12Z</time></trkpt>
<trkpt lat="25.475762" lon="103.655145">
<time>2016-10-07T00:27:13Z</time></trkpt>
<trkpt lat="25.478034" lon="103.654636">
<time>2016-10-07T00:27:14Z</time></trkpt>
<trkpt lat="25.478164" lon="103.654576">
<time>2016-10-07T00:27:15Z</time></trkpt>
<trkpt lat="25.478234" lon="103.654516">
<time>2016-10-07T00:27:16Z</time></trkpt>
<trkpt lat="25.478314" lon="103.654436">
<time>2016-10-07T00:27:17Z</time></trkpt>
<trkpt lat="25.478364" lon="103.654356">
<time>2016-10-07T00:27:18Z</time></trkpt>
<trkpt lat="25.478424" lon="103.654227">
<time>2016-10-07T00:27:19Z</time></trkpt>
<trkpt lat="25.478485" lon="103.654067">
<time>2016-10-07T00:27:20Z</time></trkpt>
<trkpt lat="25.478525" lon="103.653788">
<time>2016-10-07T00:27:21Z</time></trkpt>
<trkpt lat="25.478551" lon="103.650655">
<time>2016-10-07T00:27:22Z</time></trkpt>
<trkpt lat="25.478512" lon="103.650026">
<time>2016-10-07T00:27:23Z</time></trkpt>
<trkpt lat="25.478433" lon="103.649557">
<time>2016-10-07T00:27:24Z</time></trkpt>
<trkpt lat="25.478334" lon="103.649078">
<time>2016-10-07T00:27:25Z</time></trkpt>
<trkpt lat="25.478305" lon="103.648479">
<time>2016-10-07T00:27:26Z</time></trkpt>
<trkpt lat="25.478305" lon="103.64838">
<time>2016-10-07T00:27:27Z</time></trkpt>
<trkpt lat="25.478306" lon="103.647641">
<time>2016-10-07T00:27:28Z</time></trkpt>
<trkpt lat="25.478337" lon="103.647162">
<time>2016-10-07T00:27:29Z</time></trkpt>
<trkpt lat="25.478468" lon="103.646703">
<time>2016-10-07T00:27:30Z</time></trkpt>
<trkpt lat="25.478619" lon="103.646184">
<time>2016-10-07T00:27:31Z</time></trkpt>
<trkpt lat="25.47871" lon="103.645696">
<time>2016-10-07T00:27:32Z</time></trkpt>
<trkpt lat="25.478742" lon="103.644368">
<time>2016-10-07T00:27:33Z</time></trkpt>
<trkpt lat="25.478805" lon="103.642153">
<time>2016-10-07T00:27:34Z</time></trkpt>
<trkpt lat="25.478897" lon="103.641165">
<time>2016-10-07T00:27:35Z</time></trkpt>
<trkpt lat="25.478897" lon="103.640955">
<time>2016-10-07T00:27:36Z</time></trkpt>
<trkpt lat="25.478898" lon="103.640746">
<time>2016-10-07T00:27:37Z</time></trkpt>
<trkpt lat="25.478898" lon="103.640646">
<time>2016-10-07T00:27:38Z</time></trkpt>
<trkpt lat="25.478898" lon="103.640536">
<time>2016-10-07T00:27:39Z</time></trkpt>
<trkpt lat="25.478908" lon="103.640317">
<time>2016-10-07T00:27:40Z</time></trkpt>
<trkpt lat="25.478919" lon="103.640107">
<time>2016-10-07T00:27:41Z</time></trkpt>
<trkpt lat="25.478939" lon="103.639888">
<time>2016-10-07T00:27:42Z</time></trkpt>
<trkpt lat="25.478959" lon="103.639658">
<time>2016-10-07T00:27:43Z</time></trkpt>
<trkpt lat="25.47902" lon="103.639448">
<time>2016-10-07T00:27:44Z</time></trkpt>
<trkpt lat="25.4791" lon="103.639229">
<time>2016-10-07T00:27:45Z</time></trkpt>
<trkpt lat="25.47919" lon="103.638999">
<time>2016-10-07T00:27:46Z</time></trkpt>
<trkpt lat="25.479301" lon="103.63877">
<time>2016-10-07T00:27:47Z</time></trkpt>
<trkpt lat="25.479421" lon="103.63853">
<time>2016-10-07T00:27:48Z</time></trkpt>
<trkpt lat="25.479532" lon="103.638271">
<time>2016-10-07T00:27:49Z</time></trkpt>
<trkpt lat="25.479652" lon="103.638011">
<time>2016-10-07T00:27:50Z</time></trkpt>
<trkpt lat="25.479742" lon="103.637832">
<time>2016-10-07T00:27:51Z</time></trkpt>
<trkpt lat="25.479772" lon="103.637762">
<time>2016-10-07T00:27:52Z</time></trkpt>
<trkpt lat="25.479893" lon="103.637522">
<time>2016-10-07T00:27:53Z</time></trkpt>
<trkpt lat="25.480023" lon="103.637253">
<time>2016-10-07T00:27:54Z</time></trkpt>
<trkpt lat="25.480154" lon="103.637003">
<time>2016-10-07T00:27:55Z</time></trkpt>
<trkpt lat="25.480284" lon="103.636744">
<time>2016-10-07T00:27:56Z</time></trkpt>
<trkpt lat="25.480375" lon="103.636514">
<time>2016-10-07T00:27:57Z</time></trkpt>
<trkpt lat="25.480415" lon="103.636414">
<time>2016-10-07T00:27:58Z</time></trkpt>
<trkpt lat="25.480435" lon="103.636305">
<time>2016-10-07T00:27:59Z</time></trkpt>
<trkpt lat="25.480465" lon="103.635945">
<time>2016-10-07T00:28:00Z</time></trkpt>
<trkpt lat="25.480476" lon="103.635676">
<time>2016-10-07T00:28:01Z</time></trkpt>
<trkpt lat="25.480486" lon="103.635396">
<time>2016-10-07T00:28:02Z</time></trkpt>
<trkpt lat="25.480477" lon="103.635137">
<time>2016-10-07T00:28:03Z</time></trkpt>
<trkpt lat="25.480467" lon="103.635017">
<time>2016-10-07T00:28:04Z</time></trkpt>
<trkpt lat="25.480427" lon="103.634897">
<time>2016-10-07T00:28:05Z</time></trkpt>
<trkpt lat="25.480317" lon="103.634678">
<time>2016-10-07T00:28:06Z</time></trkpt>
<trkpt lat="25.480207" lon="103.634518">
<time>2016-10-07T00:28:07Z</time></trkpt>
<trkpt lat="25.480018" lon="103.634338">
<time>2016-10-07T00:28:08Z</time></trkpt>
<trkpt lat="25.479428" lon="103.633849">
<time>2016-10-07T00:28:09Z</time></trkpt>
<trkpt lat="25.478749" lon="103.63326">
<time>2016-10-07T00:28:10Z</time></trkpt>
<trkpt lat="25.478349" lon="103.632951">
<time>2016-10-07T00:28:11Z</time></trkpt>
<trkpt lat="25.476201" lon="103.630985">
<time>2016-10-07T00:28:12Z</time></trkpt>
<trkpt lat="25.475811" lon="103.630665">
<time>2016-10-07T00:28:13Z</time></trkpt>
<trkpt lat="25.475002" lon="103.629976">
<time>2016-10-07T00:28:14Z</time></trkpt>
<trkpt lat="25.474742" lon="103.629727">
<time>2016-10-07T00:28:15Z</time></trkpt>
<trkpt lat="25.474473" lon="103.629407">
<time>2016-10-07T00:28:16Z</time></trkpt>
<trkpt lat="25.474223" lon="103.629048">
<time>2016-10-07T00:28:17Z</time></trkpt>
<trkpt lat="25.473274" lon="103.62772">
<time>2016-10-07T00:28:18Z</time></trkpt>
<trkpt lat="25.471597" lon="103.625015">
<time>2016-10-07T00:28:19Z</time></trkpt>
<trkpt lat="25.471427" lon="103.624725">
<time>2016-10-07T00:28:20Z</time></trkpt>
<trkpt lat="25.471378" lon="103.624635">
<time>2016-10-07T00:28:21Z</time></trkpt>
<trkpt lat="25.471248" lon="103.624446">
<time>2016-10-07T00:28:22Z</time></trkpt>
<trkpt lat="25.471128" lon="103.624296">
<time>2016-10-07T00:28:23Z</time></trkpt>
<trkpt lat="25.467881" lon="103.620901">
<time>2016-10-07T00:28:24Z</time></trkpt>
<trkpt lat="25.467221" lon="103.620162">
<time>2016-10-07T00:28:25Z</time></trkpt>
<trkpt lat="25.466722" lon="103.619393">
<time>2016-10-07T00:28:26Z</time></trkpt>
<trkpt lat="25.465913" lon="103.618285">
<time>2016-10-07T00:28:27Z</time></trkpt>
<trkpt lat="25.464923" lon="103.616986">
<time>2016-10-07T00:28:28Z</time></trkpt>
<trkpt lat="25.464454" lon="103.616457">
<time>2016-10-07T00:28:29Z</time></trkpt>
<trkpt lat="25.463975" lon="103.615298">
<time>2016-10-07T00:28:30Z</time></trkpt>
<trkpt lat="25.462636" lon="103.612202">
<time>2016-10-07T00:28:31Z</time></trkpt>
<trkpt lat="25.462127" lon="103.610943">
<time>2016-10-07T00:28:32Z</time></trkpt>
<trkpt lat="25.462007" lon="103.610644">
<time>2016-10-07T00:28:33Z</time></trkpt>
<trkpt lat="25.461978" lon="103.609854">
<time>2016-10-07T00:28:34Z</time></trkpt>
<trkpt lat="25.461978" lon="103.609844">
<time>2016-10-07T00:28:35Z</time></trkpt>
<trkpt lat="25.46238" lon="103.606837">
<time>2016-10-07T00:28:36Z</time></trkpt>
<trkpt lat="25.462591" lon="103.604399">
<time>2016-10-07T00:28:37Z</time></trkpt>
<trkpt lat="25.462701" lon="103.60288">
<time>2016-10-07T00:28:38Z</time></trkpt>
<trkpt lat="25.462701" lon="103.601721">
<time>2016-10-07T00:28:39Z</time></trkpt>
<trkpt lat="25.462602" lon="103.600472">
<time>2016-10-07T00:28:40Z</time></trkpt>
<trkpt lat="25.462412" lon="103.599162">
<time>2016-10-07T00:28:41Z</time></trkpt>
<trkpt lat="25.462152" lon="103.597673">
<time>2016-10-07T00:28:42Z</time></trkpt>
<trkpt lat="25.461772" lon="103.595984">
<time>2016-10-07T00:28:43Z</time></trkpt>
<trkpt lat="25.460051" lon="103.591105">
<time>2016-10-07T00:28:44Z</time></trkpt>
<trkpt lat="25.45936" lon="103.588955">
<time>2016-10-07T00:28:45Z</time></trkpt>
<trkpt lat="25.45902" lon="103.587725">
<time>2016-10-07T00:28:46Z</time></trkpt>
<trkpt lat="25.458769" lon="103.585465">
<time>2016-10-07T00:28:47Z</time></trkpt>
<trkpt lat="25.458548" lon="103.584144">
<time>2016-10-07T00:28:48Z</time></trkpt>
<trkpt lat="25.458427" lon="103.583014">
<time>2016-10-07T00:28:49Z</time></trkpt>
<trkpt lat="25.458336" lon="103.581704">
<time>2016-10-07T00:28:50Z</time></trkpt>
<trkpt lat="25.458276" lon="103.581003">
<time>2016-10-07T00:28:51Z</time></trkpt>
<trkpt lat="25.458126" lon="103.580343">
<time>2016-10-07T00:28:52Z</time></trkpt>
<trkpt lat="25.457835" lon="103.579523">
<time>2016-10-07T00:28:53Z</time></trkpt>
<trkpt lat="25.457484" lon="103.578713">
<time>2016-10-07T00:28:54Z</time></trkpt>
<trkpt lat="25.457384" lon="103.578482">
<time>2016-10-07T00:28:55Z</time></trkpt>
<trkpt lat="25.457384" lon="103.578482">
<time>2016-10-07T00:28:56Z</time></trkpt>
<trkpt lat="25.457404" lon="103.578472">
<time>2016-10-07T00:28:57Z</time></trkpt>
<trkpt lat="25.457444" lon="103.578442">
<time>2016-10-07T00:28:58Z</time></trkpt>
<trkpt lat="25.457484" lon="103.578392">
<time>2016-10-07T00:28:59Z</time></trkpt>
<trkpt lat="25.457534" lon="103.578322">
<time>2016-10-07T00:29:00Z</time></trkpt>
<trkpt lat="25.457574" lon="103.578232">
<time>2016-10-07T00:29:01Z</time></trkpt>
<trkpt lat="25.457624" lon="103.578052">
<time>2016-10-07T00:29:02Z</time></trkpt>
<trkpt lat="25.457823" lon="103.576851">
<time>2016-10-07T00:29:03Z</time></trkpt>
<trkpt lat="25.458041" lon="103.575381">
<time>2016-10-07T00:29:04Z</time></trkpt>
<trkpt lat="25.458241" lon="103.57448">
<time>2016-10-07T00:29:05Z</time></trkpt>
<trkpt lat="25.45834" lon="103.57413">
<time>2016-10-07T00:29:06Z</time></trkpt>
<trkpt lat="25.4584" lon="103.574">
<time>2016-10-07T00:29:07Z</time></trkpt>
<trkpt lat="25.45861" lon="103.573729">
<time>2016-10-07T00:29:08Z</time></trkpt>
<trkpt lat="25.45912" lon="103.573229">
<time>2016-10-07T00:29:09Z</time></trkpt>
<trkpt lat="25.459599" lon="103.572769">
<time>2016-10-07T00:29:10Z</time></trkpt>
<trkpt lat="25.459679" lon="103.572689">
<time>2016-10-07T00:29:11Z</time></trkpt>
<trkpt lat="25.459829" lon="103.572578">
<time>2016-10-07T00:29:12Z</time></trkpt>
<trkpt lat="25.459909" lon="103.572528">
<time>2016-10-07T00:29:13Z</time></trkpt>
<trkpt lat="25.459999" lon="103.572508">
<time>2016-10-07T00:29:14Z</time></trkpt>
<trkpt lat="25.460099" lon="103.572498">
<time>2016-10-07T00:29:15Z</time></trkpt>
<trkpt lat="25.460219" lon="103.572488">
<time>2016-10-07T00:29:16Z</time></trkpt>
<trkpt lat="25.460369" lon="103.572518">
<time>2016-10-07T00:29:17Z</time></trkpt>
<trkpt lat="25.460709" lon="103.572608">
<time>2016-10-07T00:29:18Z</time></trkpt>
<trkpt lat="25.46181" lon="103.572879">
<time>2016-10-07T00:29:19Z</time></trkpt>
<trkpt lat="25.463351" lon="103.573259">
<time>2016-10-07T00:29:20Z</time></trkpt>
<trkpt lat="25.464682" lon="103.573599">
<time>2016-10-07T00:29:21Z</time></trkpt>
<trkpt lat="25.465662" lon="103.573859">
<time>2016-10-07T00:29:22Z</time></trkpt>
<trkpt lat="25.465972" lon="103.573929">
<time>2016-10-07T00:29:23Z</time></trkpt>
<trkpt lat="25.466492" lon="103.574019">
<time>2016-10-07T00:29:24Z</time></trkpt>
<trkpt lat="25.466582" lon="103.574019">
<time>2016-10-07T00:29:25Z</time></trkpt>
<trkpt lat="25.466662" lon="103.574009">
<time>2016-10-07T00:29:26Z</time></trkpt>
<trkpt lat="25.466922" lon="103.573909">
<time>2016-10-07T00:29:27Z</time></trkpt>
<trkpt lat="25.467522" lon="103.573699">
<time>2016-10-07T00:29:28Z</time></trkpt>
<trkpt lat="25.467652" lon="103.573689">
<time>2016-10-07T00:29:29Z</time></trkpt>
<trkpt lat="25.467732" lon="103.573689">
<time>2016-10-07T00:29:30Z</time></trkpt>
<trkpt lat="25.467842" lon="103.573709">
<time>2016-10-07T00:29:31Z</time></trkpt>
<trkpt lat="25.468293" lon="103.573789">
<time>2016-10-07T00:29:32Z</time></trkpt>
<trkpt lat="25.468563" lon="103.573839">
<time>2016-10-07T00:29:33Z</time></trkpt>
<trkpt lat="25.468753" lon="103.573869">
<time>2016-10-07T00:29:34Z</time></trkpt>
<trkpt lat="25.468983" lon="103.573849">
<time>2016-10-07T00:29:35Z</time></trkpt>
<trkpt lat="25.469393" lon="103.573699">
<time>2016-10-07T00:29:36Z</time></trkpt>
<trkpt lat="25.469823" lon="103.573529">
<time>2016-10-07T00:29:37Z</time></trkpt>
<trkpt lat="25.470063" lon="103.573429">
<time>2016-10-07T00:29:38Z</time></trkpt>
<trkpt lat="25.470153" lon="103.573379">
<time>2016-10-07T00:29:39Z</time></trkpt>
<trkpt lat="25.470243" lon="103.573329">
<time>2016-10-07T00:29:40Z</time></trkpt>
<trkpt lat="25.470343" lon="103.573249">
<time>2016-10-07T00:29:41Z</time></trkpt>
<trkpt lat="25.470443" lon="103.573159">
<time>2016-10-07T00:29:42Z</time></trkpt>
<trkpt lat="25.470552" lon="103.572938">
<time>2016-10-07T00:29:43Z</time></trkpt>
<trkpt lat="25.470862" lon="103.572118">
<time>2016-10-07T00:29:44Z</time></trkpt>
<trkpt lat="25.471281" lon="103.570967">
<time>2016-10-07T00:29:45Z</time></trkpt>
<trkpt lat="25.47145" lon="103.570616">
<time>2016-10-07T00:29:46Z</time></trkpt>
<trkpt lat="25.47157" lon="103.570356">
<time>2016-10-07T00:29:47Z</time></trkpt>
<trkpt lat="25.47165" lon="103.570176">
<time>2016-10-07T00:29:48Z</time></trkpt>
<trkpt lat="25.471639" lon="103.569766">
<time>2016-10-07T00:29:49Z</time></trkpt>
<trkpt lat="25.471599" lon="103.569475">
<time>2016-10-07T00:29:50Z</time></trkpt>
<trkpt lat="25.471407" lon="103.568154">
<time>2016-10-07T00:29:51Z</time></trkpt>
<trkpt lat="25.471396" lon="103.567483">
<time>2016-10-07T00:29:52Z</time></trkpt>
<trkpt lat="25.471406" lon="103.567113">
<time>2016-10-07T00:29:53Z</time></trkpt>
<trkpt lat="25.471456" lon="103.566873">
<time>2016-10-07T00:29:54Z</time></trkpt>
<trkpt lat="25.471555" lon="103.566542">
<time>2016-10-07T00:29:55Z</time></trkpt>
<trkpt lat="25.472203" lon="103.56454">
<time>2016-10-07T00:29:56Z</time></trkpt>
<trkpt lat="25.472681" lon="103.563078">
<time>2016-10-07T00:29:57Z</time></trkpt>
<trkpt lat="25.47278" lon="103.562798">
<time>2016-10-07T00:29:58Z</time></trkpt>
<trkpt lat="25.47287" lon="103.562528">
<time>2016-10-07T00:29:59Z</time></trkpt>
<trkpt lat="25.473" lon="103.562297">
<time>2016-10-07T00:30:00Z</time></trkpt>
<trkpt lat="25.473489" lon="103.561637">
<time>2016-10-07T00:30:01Z</time></trkpt>
<trkpt lat="25.473888" lon="103.561146">
<time>2016-10-07T00:30:02Z</time></trkpt>
<trkpt lat="25.474098" lon="103.560815">
<time>2016-10-07T00:30:03Z</time></trkpt>
<trkpt lat="25.474207" lon="103.560625">
<time>2016-10-07T00:30:04Z</time></trkpt>
<trkpt lat="25.474317" lon="103.560345">
<time>2016-10-07T00:30:05Z</time></trkpt>
<trkpt lat="25.474655" lon="103.559023">
<time>2016-10-07T00:30:06Z</time></trkpt>
<trkpt lat="25.474725" lon="103.558733">
<time>2016-10-07T00:30:07Z</time></trkpt>
<trkpt lat="25.474774" lon="103.558492">
<time>2016-10-07T00:30:08Z</time></trkpt>
<trkpt lat="25.474784" lon="103.558372">
<time>2016-10-07T00:30:09Z</time></trkpt>
<trkpt lat="25.474774" lon="103.558122">
<time>2016-10-07T00:30:10Z</time></trkpt>
<trkpt lat="25.474763" lon="103.557501">
<time>2016-10-07T00:30:11Z</time></trkpt>
<trkpt lat="25.474731" lon="103.55681">
<time>2016-10-07T00:30:12Z</time></trkpt>
<trkpt lat="25.474731" lon="103.556409">
<time>2016-10-07T00:30:13Z</time></trkpt>
<trkpt lat="25.47475" lon="103.556069">
<time>2016-10-07T00:30:14Z</time></trkpt>
<trkpt lat="25.474948" lon="103.554977">
<time>2016-10-07T00:30:15Z</time></trkpt>
<trkpt lat="25.475245" lon="103.553194">
<time>2016-10-07T00:30:16Z</time></trkpt>
<trkpt lat="25.475354" lon="103.552643">
<time>2016-10-07T00:30:17Z</time></trkpt>
<trkpt lat="25.475434" lon="103.552363">
<time>2016-10-07T00:30:18Z</time></trkpt>
<trkpt lat="25.475523" lon="103.552182">
<time>2016-10-07T00:30:19Z</time></trkpt>
<trkpt lat="25.475653" lon="103.551972">
<time>2016-10-07T00:30:20Z</time></trkpt>
<trkpt lat="25.475952" lon="103.551631">
<time>2016-10-07T00:30:21Z</time></trkpt>
<trkpt lat="25.476222" lon="103.551331">
<time>2016-10-07T00:30:22Z</time></trkpt>
<trkpt lat="25.476341" lon="103.55112">
<time>2016-10-07T00:30:23Z</time></trkpt>
<trkpt lat="25.476421" lon="103.55098">
<time>2016-10-07T00:30:24Z</time></trkpt>
<trkpt lat="25.476471" lon="103.55081">
<time>2016-10-07T00:30:25Z</time></trkpt>
<trkpt lat="25.476501" lon="103.55066">
<time>2016-10-07T00:30:26Z</time></trkpt>
<trkpt lat="25.47652" lon="103.550359">
<time>2016-10-07T00:30:27Z</time></trkpt>
<trkpt lat="25.476558" lon="103.549217">
<time>2016-10-07T00:30:28Z</time></trkpt>
<trkpt lat="25.476587" lon="103.548676">
<time>2016-10-07T00:30:29Z</time></trkpt>
<trkpt lat="25.476656" lon="103.548225">
<time>2016-10-07T00:30:30Z</time></trkpt>
<trkpt lat="25.476775" lon="103.547734">
<time>2016-10-07T00:30:31Z</time></trkpt>
<trkpt lat="25.476854" lon="103.547474">
<time>2016-10-07T00:30:32Z</time></trkpt>
<trkpt lat="25.477044" lon="103.547053">
<time>2016-10-07T00:30:33Z</time></trkpt>
<trkpt lat="25.477392" lon="103.546422">
<time>2016-10-07T00:30:34Z</time></trkpt>
<trkpt lat="25.477831" lon="103.54556">
<time>2016-10-07T00:30:35Z</time></trkpt>
<trkpt lat="25.47802" lon="103.545209">
<time>2016-10-07T00:30:36Z</time></trkpt>
<trkpt lat="25.4781" lon="103.545039">
<time>2016-10-07T00:30:37Z</time></trkpt>
<trkpt lat="25.478149" lon="103.544839">
<time>2016-10-07T00:30:38Z</time></trkpt>
<trkpt lat="25.478327" lon="103.543696">
<time>2016-10-07T00:30:39Z</time></trkpt>
<trkpt lat="25.478445" lon="103.543005">
<time>2016-10-07T00:30:40Z</time></trkpt>
<trkpt lat="25.478534" lon="103.542664">
<time>2016-10-07T00:30:41Z</time></trkpt>
<trkpt lat="25.478773" lon="103.541953">
<time>2016-10-07T00:30:42Z</time></trkpt>
<trkpt lat="25.478882" lon="103.541662">
<time>2016-10-07T00:30:43Z</time></trkpt>
<trkpt lat="25.478932" lon="103.541512">
<time>2016-10-07T00:30:44Z</time></trkpt>
<trkpt lat="25.478952" lon="103.541381">
<time>2016-10-07T00:30:45Z</time></trkpt>
<trkpt lat="25.479029" lon="103.540359">
<time>2016-10-07T00:30:46Z</time></trkpt>
<trkpt lat="25.479049" lon="103.540049">
<time>2016-10-07T00:30:47Z</time></trkpt>
<trkpt lat="25.479058" lon="103.539958">
<time>2016-10-07T00:30:48Z</time></trkpt>
<trkpt lat="25.479016" lon="103.539016">
<time>2016-10-07T00:30:49Z</time></trkpt>
<trkpt lat="25.478964" lon="103.537994">
<time>2016-10-07T00:30:50Z</time></trkpt>
<trkpt lat="25.478943" lon="103.537814">
<time>2016-10-07T00:30:51Z</time></trkpt>
<trkpt lat="25.478923" lon="103.537703">
<time>2016-10-07T00:30:52Z</time></trkpt>
<trkpt lat="25.478903" lon="103.537593">
<time>2016-10-07T00:30:53Z</time></trkpt>
<trkpt lat="25.478873" lon="103.537503">
<time>2016-10-07T00:30:54Z</time></trkpt>
<trkpt lat="25.478712" lon="103.537072">
<time>2016-10-07T00:30:55Z</time></trkpt>
<trkpt lat="25.478027" lon="103.535278">
<time>2016-10-07T00:30:56Z</time></trkpt>
<trkpt lat="25.477112" lon="103.533494">
<time>2016-10-07T00:30:57Z</time></trkpt>
<trkpt lat="25.476379" lon="103.532111">
<time>2016-10-07T00:30:58Z</time></trkpt>
<trkpt lat="25.476228" lon="103.5318">
<time>2016-10-07T00:30:59Z</time></trkpt>
<trkpt lat="25.475976" lon="103.531279">
<time>2016-10-07T00:31:00Z</time></trkpt>
<trkpt lat="25.475976" lon="103.531279">
<time>2016-10-07T00:31:01Z</time></trkpt>
<trkpt lat="25.476286" lon="103.530948">
<time>2016-10-07T00:31:02Z</time></trkpt>
<trkpt lat="25.476975" lon="103.530587">
<time>2016-10-07T00:31:03Z</time></trkpt>
<trkpt lat="25.477534" lon="103.530176">
<time>2016-10-07T00:31:04Z</time></trkpt>
<trkpt lat="25.478773" lon="103.529695">
<time>2016-10-07T00:31:05Z</time></trkpt>
<trkpt lat="25.480072" lon="103.529173">
<time>2016-10-07T00:31:06Z</time></trkpt>
<trkpt lat="25.480571" lon="103.528772">
<time>2016-10-07T00:31:07Z</time></trkpt>
<trkpt lat="25.480701" lon="103.528542">
<time>2016-10-07T00:31:08Z</time></trkpt>
<trkpt lat="25.480849" lon="103.52781">
<time>2016-10-07T00:31:09Z</time></trkpt>
<trkpt lat="25.481147" lon="103.526978">
<time>2016-10-07T00:31:10Z</time></trkpt>
<trkpt lat="25.481266" lon="103.526817">
<time>2016-10-07T00:31:11Z</time></trkpt>
<trkpt lat="25.481606" lon="103.526637">
<time>2016-10-07T00:31:12Z</time></trkpt>
<trkpt lat="25.481606" lon="103.526637">
<time>2016-10-07T00:31:13Z</time></trkpt>
<trkpt lat="25.481615" lon="103.526486">
<time>2016-10-07T00:31:14Z</time></trkpt>
<trkpt lat="25.481615" lon="103.526316">
<time>2016-10-07T00:31:15Z</time></trkpt>
<trkpt lat="25.481624" lon="103.526126">
<time>2016-10-07T00:31:16Z</time></trkpt>
<trkpt lat="25.481624" lon="103.525945">
<time>2016-10-07T00:31:17Z</time></trkpt>
<trkpt lat="25.481633" lon="103.525725">
<time>2016-10-07T00:31:18Z</time></trkpt>
<trkpt lat="25.481673" lon="103.525474">
<time>2016-10-07T00:31:19Z</time></trkpt>
<trkpt lat="25.481702" lon="103.525073">
<time>2016-10-07T00:31:20Z</time></trkpt>
<trkpt lat="25.481721" lon="103.524752">
<time>2016-10-07T00:31:21Z</time></trkpt>
<trkpt lat="25.48174" lon="103.524552">
<time>2016-10-07T00:31:22Z</time></trkpt>
<trkpt lat="25.48174" lon="103.524451">
<time>2016-10-07T00:31:23Z</time></trkpt>
<trkpt lat="25.481749" lon="103.524211">
<time>2016-10-07T00:31:24Z</time></trkpt>
<trkpt lat="25.481788" lon="103.523639">
<time>2016-10-07T00:31:25Z</time></trkpt>
<trkpt lat="25.481817" lon="103.523208">
<time>2016-10-07T00:31:26Z</time></trkpt>
<trkpt lat="25.481856" lon="103.522927">
<time>2016-10-07T00:31:27Z</time></trkpt>
<trkpt lat="25.481885" lon="103.522456">
<time>2016-10-07T00:31:28Z</time></trkpt>
<trkpt lat="25.481884" lon="103.522145">
<time>2016-10-07T00:31:29Z</time></trkpt>
<trkpt lat="25.481932" lon="103.521544">
<time>2016-10-07T00:31:30Z</time></trkpt>
<trkpt lat="25.481981" lon="103.521193">
<time>2016-10-07T00:31:31Z</time></trkpt>
<trkpt lat="25.482009" lon="103.520581">
<time>2016-10-07T00:31:32Z</time></trkpt>
<trkpt lat="25.482058" lon="103.519999">
<time>2016-10-07T00:31:33Z</time></trkpt>
<trkpt lat="25.482086" lon="103.519528">
<time>2016-10-07T00:31:34Z</time></trkpt>
<trkpt lat="25.482125" lon="103.519167">
<time>2016-10-07T00:31:35Z</time></trkpt>
<trkpt lat="25.482164" lon="103.518836">
<time>2016-10-07T00:31:36Z</time></trkpt>
<trkpt lat="25.482163" lon="103.518425">
<time>2016-10-07T00:31:37Z</time></trkpt>
<trkpt lat="25.482143" lon="103.518245">
<time>2016-10-07T00:31:38Z</time></trkpt>
<trkpt lat="25.482092" lon="103.517964">
<time>2016-10-07T00:31:39Z</time></trkpt>
<trkpt lat="25.482112" lon="103.517894">
<time>2016-10-07T00:31:40Z</time></trkpt>
<trkpt lat="25.482152" lon="103.517793">
<time>2016-10-07T00:31:41Z</time></trkpt>
<trkpt lat="25.482221" lon="103.517663">
<time>2016-10-07T00:31:42Z</time></trkpt>
<trkpt lat="25.482261" lon="103.517453">
<time>2016-10-07T00:31:43Z</time></trkpt>
<trkpt lat="25.48227" lon="103.517262">
<time>2016-10-07T00:31:44Z</time></trkpt>
<trkpt lat="25.48228" lon="103.517182">
<time>2016-10-07T00:31:45Z</time></trkpt>
<trkpt lat="25.482318" lon="103.516701">
<time>2016-10-07T00:31:46Z</time></trkpt>
<trkpt lat="25.482347" lon="103.516229">
<time>2016-10-07T00:31:47Z</time></trkpt>
<trkpt lat="25.482386" lon="103.515808">
<time>2016-10-07T00:31:48Z</time></trkpt>
<trkpt lat="25.482425" lon="103.515527">
<time>2016-10-07T00:31:49Z</time></trkpt>
<trkpt lat="25.482464" lon="103.515086">
<time>2016-10-07T00:31:50Z</time></trkpt>
<trkpt lat="25.482552" lon="103.514484">
<time>2016-10-07T00:31:51Z</time></trkpt>
<trkpt lat="25.482591" lon="103.514234">
<time>2016-10-07T00:31:52Z</time></trkpt>
<trkpt lat="25.482651" lon="103.513973">
<time>2016-10-07T00:31:53Z</time></trkpt>
<trkpt lat="25.48268" lon="103.513802">
<time>2016-10-07T00:31:54Z</time></trkpt>
<trkpt lat="25.48272" lon="103.513632">
<time>2016-10-07T00:31:55Z</time></trkpt>
<trkpt lat="25.482729" lon="103.513542">
<time>2016-10-07T00:31:56Z</time></trkpt>
<trkpt lat="25.482768" lon="103.513161">
<time>2016-10-07T00:31:57Z</time></trkpt>
<trkpt lat="25.482798" lon="103.513">
<time>2016-10-07T00:31:58Z</time></trkpt>
<trkpt lat="25.482848" lon="103.51293">
<time>2016-10-07T00:31:59Z</time></trkpt>
<trkpt lat="25.482827" lon="103.51284">
<time>2016-10-07T00:32:00Z</time></trkpt>
<trkpt lat="25.482817" lon="103.51282">
<time>2016-10-07T00:32:01Z</time></trkpt>
<trkpt lat="25.482817" lon="103.51282">
<time>2016-10-07T00:32:02Z</time></trkpt>
<trkpt lat="25.483418" lon="103.50946">
<time>2016-10-07T00:32:03Z</time></trkpt>
<trkpt lat="25.483446" lon="103.508788">
<time>2016-10-07T00:32:04Z</time></trkpt>
<trkpt lat="25.483324" lon="103.508116">
<time>2016-10-07T00:32:05Z</time></trkpt>
<trkpt lat="25.483032" lon="103.507424">
<time>2016-10-07T00:32:06Z</time></trkpt>
<trkpt lat="25.481595" lon="103.505319">
<time>2016-10-07T00:32:07Z</time></trkpt>
<trkpt lat="25.481133" lon="103.504606">
<time>2016-10-07T00:32:08Z</time></trkpt>
<trkpt lat="25.480861" lon="103.504185">
<time>2016-10-07T00:32:09Z</time></trkpt>
<trkpt lat="25.480639" lon="103.503513">
<time>2016-10-07T00:32:10Z</time></trkpt>
<trkpt lat="25.480517" lon="103.502631">
<time>2016-10-07T00:32:11Z</time></trkpt>
<trkpt lat="25.480525" lon="103.502069">
<time>2016-10-07T00:32:12Z</time></trkpt>
<trkpt lat="25.48073" lon="103.500535">
<time>2016-10-07T00:32:13Z</time></trkpt>
<trkpt lat="25.48073" lon="103.500535">
<time>2016-10-07T00:32:14Z</time></trkpt>
<trkpt lat="25.479019" lon="103.500264">
<time>2016-10-07T00:32:15Z</time></trkpt>
<trkpt lat="25.479019" lon="103.500264">
<time>2016-10-07T00:32:16Z</time></trkpt>
<trkpt lat="25.479078" lon="103.500023">
<time>2016-10-07T00:32:17Z</time></trkpt>
<trkpt lat="25.479355" lon="103.49889">
<time>2016-10-07T00:32:18Z</time></trkpt>
<trkpt lat="25.479355" lon="103.49889">
<time>2016-10-07T00:32:19Z</time></trkpt>
<trkpt lat="25.478894" lon="103.498609">
<time>2016-10-07T00:32:20Z</time></trkpt>
<trkpt lat="25.478854" lon="103.498579">
<time>2016-10-07T00:32:21Z</time></trkpt>
<trkpt lat="25.478804" lon="103.498549">
<time>2016-10-07T00:32:22Z</time></trkpt>
<trkpt lat="25.478804" lon="103.498549">
<time>2016-10-07T00:32:23Z</time></trkpt>
<trkpt lat="25.479361" lon="103.497626">
<time>2016-10-07T00:32:24Z</time></trkpt>
<trkpt lat="25.479819" lon="103.496884">
<time>2016-10-07T00:32:25Z</time></trkpt>
<trkpt lat="25.479968" lon="103.496634">
<time>2016-10-07T00:32:26Z</time></trkpt>
<trkpt lat="25.480098" lon="103.496443">
<time>2016-10-07T00:32:27Z</time></trkpt>
<trkpt lat="25.480148" lon="103.496353">
<time>2016-10-07T00:32:28Z</time></trkpt>
<trkpt lat="25.480177" lon="103.496283">
<time>2016-10-07T00:32:29Z</time></trkpt>
<trkpt lat="25.480247" lon="103.496132">
<time>2016-10-07T00:32:30Z</time></trkpt>
<trkpt lat="25.480277" lon="103.496042">
<time>2016-10-07T00:32:31Z</time></trkpt>
<trkpt lat="25.480296" lon="103.495942">
<time>2016-10-07T00:32:32Z</time></trkpt>
<trkpt lat="25.480306" lon="103.495851">
<time>2016-10-07T00:32:33Z</time></trkpt>
<trkpt lat="25.480306" lon="103.495771">
<time>2016-10-07T00:32:34Z</time></trkpt>
<trkpt lat="25.480285" lon="103.495631">
<time>2016-10-07T00:32:35Z</time></trkpt>
<trkpt lat="25.480164" lon="103.495089">
<time>2016-10-07T00:32:36Z</time></trkpt>
<trkpt lat="25.480073" lon="103.494718">
<time>2016-10-07T00:32:37Z</time></trkpt>
<trkpt lat="25.480012" lon="103.494457">
<time>2016-10-07T00:32:38Z</time></trkpt>
<trkpt lat="25.479961" lon="103.494277">
<time>2016-10-07T00:32:39Z</time></trkpt>
<trkpt lat="25.479931" lon="103.494106">
<time>2016-10-07T00:32:40Z</time></trkpt>
<trkpt lat="25.47988" lon="103.494006">
<time>2016-10-07T00:32:41Z</time></trkpt>
<trkpt lat="25.47987" lon="103.493986">
<time>2016-10-07T00:32:42Z</time></trkpt>
<trkpt lat="25.47975" lon="103.493815">
<time>2016-10-07T00:32:43Z</time></trkpt>
<trkpt lat="25.479689" lon="103.493715">
<time>2016-10-07T00:32:44Z</time></trkpt>
<trkpt lat="25.479398" lon="103.493284">
<time>2016-10-07T00:32:45Z</time></trkpt>
<trkpt lat="25.479368" lon="103.493204">
<time>2016-10-07T00:32:46Z</time></trkpt>
<trkpt lat="25.479338" lon="103.493113">
<time>2016-10-07T00:32:47Z</time></trkpt>
<trkpt lat="25.479327" lon="103.492953">
<time>2016-10-07T00:32:48Z</time></trkpt>
<trkpt lat="25.479357" lon="103.492843">
<time>2016-10-07T00:32:49Z</time></trkpt>
<trkpt lat="25.479397" lon="103.492773">
<time>2016-10-07T00:32:50Z</time></trkpt>
<trkpt lat="25.479486" lon="103.492642">
<time>2016-10-07T00:32:51Z</time></trkpt>
<trkpt lat="25.479725" lon="103.492381">
<time>2016-10-07T00:32:52Z</time></trkpt>
<trkpt lat="25.480194" lon="103.49187">
<time>2016-10-07T00:32:53Z</time></trkpt>
<trkpt lat="25.480892" lon="103.490977">
<time>2016-10-07T00:32:54Z</time></trkpt>
<trkpt lat="25.481191" lon="103.490626">
<time>2016-10-07T00:32:55Z</time></trkpt>
<trkpt lat="25.48144" lon="103.490335">
<time>2016-10-07T00:32:56Z</time></trkpt>
<trkpt lat="25.481589" lon="103.490165">
<time>2016-10-07T00:32:57Z</time></trkpt>
<trkpt lat="25.481719" lon="103.489974">
<time>2016-10-07T00:32:58Z</time></trkpt>
<trkpt lat="25.481828" lon="103.489814">
<time>2016-10-07T00:32:59Z</time></trkpt>
<trkpt lat="25.481908" lon="103.489633">
<time>2016-10-07T00:33:00Z</time></trkpt>
<trkpt lat="25.482166" lon="103.488851">
<time>2016-10-07T00:33:01Z</time></trkpt>
<trkpt lat="25.482225" lon="103.488661">
<time>2016-10-07T00:33:02Z</time></trkpt>
<trkpt lat="25.482265" lon="103.48846">
<time>2016-10-07T00:33:03Z</time></trkpt>
<trkpt lat="25.482284" lon="103.48831">
<time>2016-10-07T00:33:04Z</time></trkpt>
<trkpt lat="25.482293" lon="103.488039">
<time>2016-10-07T00:33:05Z</time></trkpt>
<trkpt lat="25.482283" lon="103.487828">
<time>2016-10-07T00:33:06Z</time></trkpt>
<trkpt lat="25.482273" lon="103.487788">
<time>2016-10-07T00:33:07Z</time></trkpt>
<trkpt lat="25.482242" lon="103.487578">
<time>2016-10-07T00:33:08Z</time></trkpt>
<trkpt lat="25.482069" lon="103.486775">
<time>2016-10-07T00:33:09Z</time></trkpt>
<trkpt lat="25.482039" lon="103.486535">
<time>2016-10-07T00:33:10Z</time></trkpt>
<trkpt lat="25.482018" lon="103.486394">
<time>2016-10-07T00:33:11Z</time></trkpt>
<trkpt lat="25.482018" lon="103.486194">
<time>2016-10-07T00:33:12Z</time></trkpt>
<trkpt lat="25.482027" lon="103.486093">
<time>2016-10-07T00:33:13Z</time></trkpt>
<trkpt lat="25.482106" lon="103.485542">
<time>2016-10-07T00:33:14Z</time></trkpt>
<trkpt lat="25.482302" lon="103.484369">
<time>2016-10-07T00:33:15Z</time></trkpt>
<trkpt lat="25.482411" lon="103.483767">
<time>2016-10-07T00:33:16Z</time></trkpt>
<trkpt lat="25.48247" lon="103.483516">
<time>2016-10-07T00:33:17Z</time></trkpt>
<trkpt lat="25.48253" lon="103.483386">
<time>2016-10-07T00:33:18Z</time></trkpt>
<trkpt lat="25.482599" lon="103.483246">
<time>2016-10-07T00:33:19Z</time></trkpt>
<trkpt lat="25.482659" lon="103.483165">
<time>2016-10-07T00:33:20Z</time></trkpt>
<trkpt lat="25.482729" lon="103.483105">
<time>2016-10-07T00:33:21Z</time></trkpt>
<trkpt lat="25.482819" lon="103.483045">
<time>2016-10-07T00:33:22Z</time></trkpt>
<trkpt lat="25.483328" lon="103.482774">
<time>2016-10-07T00:33:23Z</time></trkpt>
<trkpt lat="25.483438" lon="103.482714">
<time>2016-10-07T00:33:24Z</time></trkpt>
<trkpt lat="25.483498" lon="103.482654">
<time>2016-10-07T00:33:25Z</time></trkpt>
<trkpt lat="25.483548" lon="103.482594">
<time>2016-10-07T00:33:26Z</time></trkpt>
<trkpt lat="25.483617" lon="103.482493">
<time>2016-10-07T00:33:27Z</time></trkpt>
<trkpt lat="25.483677" lon="103.482393">
<time>2016-10-07T00:33:28Z</time></trkpt>
<trkpt lat="25.483717" lon="103.482303">
<time>2016-10-07T00:33:29Z</time></trkpt>
<trkpt lat="25.483757" lon="103.482193">
<time>2016-10-07T00:33:30Z</time></trkpt>
<trkpt lat="25.483885" lon="103.481721">
<time>2016-10-07T00:33:31Z</time></trkpt>
<trkpt lat="25.484172" lon="103.480478">
<time>2016-10-07T00:33:32Z</time></trkpt>
<trkpt lat="25.484409" lon="103.479375">
<time>2016-10-07T00:33:33Z</time></trkpt>
<trkpt lat="25.484478" lon="103.479054">
<time>2016-10-07T00:33:34Z</time></trkpt>
<trkpt lat="25.484724" lon="103.477791">
<time>2016-10-07T00:33:35Z</time></trkpt>
<trkpt lat="25.484852" lon="103.476878">
<time>2016-10-07T00:33:36Z</time></trkpt>
<trkpt lat="25.484949" lon="103.475946">
<time>2016-10-07T00:33:37Z</time></trkpt>
<trkpt lat="25.485067" lon="103.475033">
<time>2016-10-07T00:33:38Z</time></trkpt>
<trkpt lat="25.485135" lon="103.474462">
<time>2016-10-07T00:33:39Z</time></trkpt>
<trkpt lat="25.485174" lon="103.47394">
<time>2016-10-07T00:33:40Z</time></trkpt>
<trkpt lat="25.485182" lon="103.473489">
<time>2016-10-07T00:33:41Z</time></trkpt>
<trkpt lat="25.48515" lon="103.472717">
<time>2016-10-07T00:33:42Z</time></trkpt>
<trkpt lat="25.485129" lon="103.472226">
<time>2016-10-07T00:33:43Z</time></trkpt>
<trkpt lat="25.485088" lon="103.471955">
<time>2016-10-07T00:33:44Z</time></trkpt>
<trkpt lat="25.485007" lon="103.471604">
<time>2016-10-07T00:33:45Z</time></trkpt>
<trkpt lat="25.484926" lon="103.471243">
<time>2016-10-07T00:33:46Z</time></trkpt>
<trkpt lat="25.484815" lon="103.470943">
<time>2016-10-07T00:33:47Z</time></trkpt>
<trkpt lat="25.484684" lon="103.470652">
<time>2016-10-07T00:33:48Z</time></trkpt>
<trkpt lat="25.484534" lon="103.470401">
<time>2016-10-07T00:33:49Z</time></trkpt>
<trkpt lat="25.484383" lon="103.470181">
<time>2016-10-07T00:33:50Z</time></trkpt>
<trkpt lat="25.483109" lon="103.468657">
<time>2016-10-07T00:33:51Z</time></trkpt>
<trkpt lat="25.482326" lon="103.467595">
<time>2016-10-07T00:33:52Z</time></trkpt>
<trkpt lat="25.481643" lon="103.466672">
<time>2016-10-07T00:33:53Z</time></trkpt>
<trkpt lat="25.481201" lon="103.466011">
<time>2016-10-07T00:33:54Z</time></trkpt>
<trkpt lat="25.48099" lon="103.46571">
<time>2016-10-07T00:33:55Z</time></trkpt>
<trkpt lat="25.480488" lon="103.465068">
<time>2016-10-07T00:33:56Z</time></trkpt>
<trkpt lat="25.479776" lon="103.464116">
<time>2016-10-07T00:33:57Z</time></trkpt>
<trkpt lat="25.479505" lon="103.463735">
<time>2016-10-07T00:33:58Z</time></trkpt>
<trkpt lat="25.479243" lon="103.463264">
<time>2016-10-07T00:33:59Z</time></trkpt>
<trkpt lat="25.478651" lon="103.462222">
<time>2016-10-07T00:34:00Z</time></trkpt>
<trkpt lat="25.478379" lon="103.461721">
<time>2016-10-07T00:34:01Z</time></trkpt>
<trkpt lat="25.478219" lon="103.46144">
<time>2016-10-07T00:34:02Z</time></trkpt>
<trkpt lat="25.478118" lon="103.46132">
<time>2016-10-07T00:34:03Z</time></trkpt>
<trkpt lat="25.478098" lon="103.46129">
<time>2016-10-07T00:34:04Z</time></trkpt>
<trkpt lat="25.477968" lon="103.46115">
<time>2016-10-07T00:34:05Z</time></trkpt>
<trkpt lat="25.477437" lon="103.460678">
<time>2016-10-07T00:34:06Z</time></trkpt>
<trkpt lat="25.476695" lon="103.459947">
<time>2016-10-07T00:34:07Z</time></trkpt>
<trkpt lat="25.476554" lon="103.459807">
<time>2016-10-07T00:34:08Z</time></trkpt>
<trkpt lat="25.475632" lon="103.458995">
<time>2016-10-07T00:34:09Z</time></trkpt>
<trkpt lat="25.474699" lon="103.458093">
<time>2016-10-07T00:34:10Z</time></trkpt>
<trkpt lat="25.473476" lon="103.456971">
<time>2016-10-07T00:34:11Z</time></trkpt>
<trkpt lat="25.472364" lon="103.455938">
<time>2016-10-07T00:34:12Z</time></trkpt>
<trkpt lat="25.472193" lon="103.455788">
<time>2016-10-07T00:34:13Z</time></trkpt>
<trkpt lat="25.471291" lon="103.455057">
<time>2016-10-07T00:34:14Z</time></trkpt>
<trkpt lat="25.470069" lon="103.454115">
<time>2016-10-07T00:34:15Z</time></trkpt>
<trkpt lat="25.469137" lon="103.453454">
<time>2016-10-07T00:34:16Z</time></trkpt>
<trkpt lat="25.468225" lon="103.452752">
<time>2016-10-07T00:34:17Z</time></trkpt>
<trkpt lat="25.468005" lon="103.452592">
<time>2016-10-07T00:34:18Z</time></trkpt>
<trkpt lat="25.467845" lon="103.452452">
<time>2016-10-07T00:34:19Z</time></trkpt>
<trkpt lat="25.467313" lon="103.451921">
<time>2016-10-07T00:34:20Z</time></trkpt>
<trkpt lat="25.466411" lon="103.450949">
<time>2016-10-07T00:34:21Z</time></trkpt>
<trkpt lat="25.465469" lon="103.449997">
<time>2016-10-07T00:34:22Z</time></trkpt>
<trkpt lat="25.464847" lon="103.449356">
<time>2016-10-07T00:34:23Z</time></trkpt>
<trkpt lat="25.464476" lon="103.448985">
<time>2016-10-07T00:34:24Z</time></trkpt>
<trkpt lat="25.464166" lon="103.448715">
<time>2016-10-07T00:34:25Z</time></trkpt>
<trkpt lat="25.463815" lon="103.448434">
<time>2016-10-07T00:34:26Z</time></trkpt>
<trkpt lat="25.463645" lon="103.448284">
<time>2016-10-07T00:34:27Z</time></trkpt>
<trkpt lat="25.463344" lon="103.447923">
<time>2016-10-07T00:34:28Z</time></trkpt>
<trkpt lat="25.462441" lon="103.446821">
<time>2016-10-07T00:34:29Z</time></trkpt>
<trkpt lat="25.461529" lon="103.445599">
<time>2016-10-07T00:34:30Z</time></trkpt>
<trkpt lat="25.460907" lon="103.444768">
<time>2016-10-07T00:34:31Z</time></trkpt>
<trkpt lat="25.460366" lon="103.444127">
<time>2016-10-07T00:34:32Z</time></trkpt>
<trkpt lat="25.459985" lon="103.443767">
<time>2016-10-07T00:34:33Z</time></trkpt>
<trkpt lat="25.459624" lon="103.443356">
<time>2016-10-07T00:34:34Z</time></trkpt>
<trkpt lat="25.459433" lon="103.443146">
<time>2016-10-07T00:34:35Z</time></trkpt>
<trkpt lat="25.459323" lon="103.443015">
<time>2016-10-07T00:34:36Z</time></trkpt>
<trkpt lat="25.459263" lon="103.442915">
<time>2016-10-07T00:34:37Z</time></trkpt>
<trkpt lat="25.459213" lon="103.442825">
<time>2016-10-07T00:34:38Z</time></trkpt>
<trkpt lat="25.459163" lon="103.442705">
<time>2016-10-07T00:34:39Z</time></trkpt>
<trkpt lat="25.459012" lon="103.442224">
<time>2016-10-07T00:34:40Z</time></trkpt>
<trkpt lat="25.45868" lon="103.441293">
<time>2016-10-07T00:34:41Z</time></trkpt>
<trkpt lat="25.458308" lon="103.440462">
<time>2016-10-07T00:34:42Z</time></trkpt>
<trkpt lat="25.458117" lon="103.439861">
<time>2016-10-07T00:34:43Z</time></trkpt>
<trkpt lat="25.458027" lon="103.4395">
<time>2016-10-07T00:34:44Z</time></trkpt>
<trkpt lat="25.457986" lon="103.43931">
<time>2016-10-07T00:34:45Z</time></trkpt>
<trkpt lat="25.457966" lon="103.43922">
<time>2016-10-07T00:34:46Z</time></trkpt>
<trkpt lat="25.457956" lon="103.43911">
<time>2016-10-07T00:34:47Z</time></trkpt>
<trkpt lat="25.457976" lon="103.43902">
<time>2016-10-07T00:34:48Z</time></trkpt>
<trkpt lat="25.458015" lon="103.438779">
<time>2016-10-07T00:34:49Z</time></trkpt>
<trkpt lat="25.458115" lon="103.438389">
<time>2016-10-07T00:34:50Z</time></trkpt>
<trkpt lat="25.458214" lon="103.438008">
<time>2016-10-07T00:34:51Z</time></trkpt>
<trkpt lat="25.458383" lon="103.437497">
<time>2016-10-07T00:34:52Z</time></trkpt>
<trkpt lat="25.458413" lon="103.437427">
<time>2016-10-07T00:34:53Z</time></trkpt>
<trkpt lat="25.458553" lon="103.437027">
<time>2016-10-07T00:34:54Z</time></trkpt>
<trkpt lat="25.458682" lon="103.436666">
<time>2016-10-07T00:34:55Z</time></trkpt>
<trkpt lat="25.458881" lon="103.436066">
<time>2016-10-07T00:34:56Z</time></trkpt>
<trkpt lat="25.458941" lon="103.435795">
<time>2016-10-07T00:34:57Z</time></trkpt>
<trkpt lat="25.458951" lon="103.435765">
<time>2016-10-07T00:34:58Z</time></trkpt>
<trkpt lat="25.458981" lon="103.435675">
<time>2016-10-07T00:34:59Z</time></trkpt>
<trkpt lat="25.45903" lon="103.435525">
<time>2016-10-07T00:35:00Z</time></trkpt>
<trkpt lat="25.45906" lon="103.435395">
<time>2016-10-07T00:35:01Z</time></trkpt>
<trkpt lat="25.45909" lon="103.435245">
<time>2016-10-07T00:35:02Z</time></trkpt>
<trkpt lat="25.4591" lon="103.435024">
<time>2016-10-07T00:35:03Z</time></trkpt>
<trkpt lat="25.459089" lon="103.434834">
<time>2016-10-07T00:35:04Z</time></trkpt>
<trkpt lat="25.459079" lon="103.434674">
<time>2016-10-07T00:35:05Z</time></trkpt>
<trkpt lat="25.459038" lon="103.434333">
<time>2016-10-07T00:35:06Z</time></trkpt>
<trkpt lat="25.458988" lon="103.434053">
<time>2016-10-07T00:35:07Z</time></trkpt>
<trkpt lat="25.458948" lon="103.433893">
<time>2016-10-07T00:35:08Z</time></trkpt>
<trkpt lat="25.458928" lon="103.433753">
<time>2016-10-07T00:35:09Z</time></trkpt>
<trkpt lat="25.458927" lon="103.433603">
<time>2016-10-07T00:35:10Z</time></trkpt>
<trkpt lat="25.458937" lon="103.433472">
<time>2016-10-07T00:35:11Z</time></trkpt>
<trkpt lat="25.458987" lon="103.433122">
<time>2016-10-07T00:35:12Z</time></trkpt>
<trkpt lat="25.459115" lon="103.432251">
<time>2016-10-07T00:35:13Z</time></trkpt>
<trkpt lat="25.459175" lon="103.431941">
<time>2016-10-07T00:35:14Z</time></trkpt>
<trkpt lat="25.459254" lon="103.43147">
<time>2016-10-07T00:35:15Z</time></trkpt>
<trkpt lat="25.459294" lon="103.43116">
<time>2016-10-07T00:35:16Z</time></trkpt>
<trkpt lat="25.459314" lon="103.43096">
<time>2016-10-07T00:35:17Z</time></trkpt>
<trkpt lat="25.459333" lon="103.430569">
<time>2016-10-07T00:35:18Z</time></trkpt>
<trkpt lat="25.459323" lon="103.430469">
<time>2016-10-07T00:35:19Z</time></trkpt>
<trkpt lat="25.459293" lon="103.430309">
<time>2016-10-07T00:35:20Z</time></trkpt>
<trkpt lat="25.459102" lon="103.429699">
<time>2016-10-07T00:35:21Z</time></trkpt>
<trkpt lat="25.458801" lon="103.428698">
<time>2016-10-07T00:35:22Z</time></trkpt>
<trkpt lat="25.458349" lon="103.427166">
<time>2016-10-07T00:35:23Z</time></trkpt>
<trkpt lat="25.458037" lon="103.426095">
<time>2016-10-07T00:35:24Z</time></trkpt>
<trkpt lat="25.457897" lon="103.425645">
<time>2016-10-07T00:35:25Z</time></trkpt>
<trkpt lat="25.457566" lon="103.424835">
<time>2016-10-07T00:35:26Z</time></trkpt>
<trkpt lat="25.457164" lon="103.423834">
<time>2016-10-07T00:35:27Z</time></trkpt>
<trkpt lat="25.456713" lon="103.422693">
<time>2016-10-07T00:35:28Z</time></trkpt>
<trkpt lat="25.456302" lon="103.421703">
<time>2016-10-07T00:35:29Z</time></trkpt>
<trkpt lat="25.456092" lon="103.421172">
<time>2016-10-07T00:35:30Z</time></trkpt>
<trkpt lat="25.456001" lon="103.420872">
<time>2016-10-07T00:35:31Z</time></trkpt>
<trkpt lat="25.455971" lon="103.420772">
<time>2016-10-07T00:35:32Z</time></trkpt>
<trkpt lat="25.455951" lon="103.420662">
<time>2016-10-07T00:35:33Z</time></trkpt>
<trkpt lat="25.455931" lon="103.420552">
<time>2016-10-07T00:35:34Z</time></trkpt>
<trkpt lat="25.455931" lon="103.420472">
<time>2016-10-07T00:35:35Z</time></trkpt>
<trkpt lat="25.455931" lon="103.420452">
<time>2016-10-07T00:35:36Z</time></trkpt>
<trkpt lat="25.455921" lon="103.420332">
<time>2016-10-07T00:35:37Z</time></trkpt>
<trkpt lat="25.455921" lon="103.420222">
<time>2016-10-07T00:35:38Z</time></trkpt>
<trkpt lat="25.45595" lon="103.419702">
<time>2016-10-07T00:35:39Z</time></trkpt>
<trkpt lat="25.456049" lon="103.418791">
<time>2016-10-07T00:35:40Z</time></trkpt>
<trkpt lat="25.456139" lon="103.417881">
<time>2016-10-07T00:35:41Z</time></trkpt>
<trkpt lat="25.456218" lon="103.417001">
<time>2016-10-07T00:35:42Z</time></trkpt>
<trkpt lat="25.456218" lon="103.41665">
<time>2016-10-07T00:35:43Z</time></trkpt>
<trkpt lat="25.456197" lon="103.41632">
<time>2016-10-07T00:35:44Z</time></trkpt>
<trkpt lat="25.456167" lon="103.41616">
<time>2016-10-07T00:35:45Z</time></trkpt>
<trkpt lat="25.456127" lon="103.41601">
<time>2016-10-07T00:35:46Z</time></trkpt>
<trkpt lat="25.456077" lon="103.41589">
<time>2016-10-07T00:35:47Z</time></trkpt>
<trkpt lat="25.456047" lon="103.41583">
<time>2016-10-07T00:35:48Z</time></trkpt>
<trkpt lat="25.455997" lon="103.41574">
<time>2016-10-07T00:35:49Z</time></trkpt>
<trkpt lat="25.455817" lon="103.41547">
<time>2016-10-07T00:35:50Z</time></trkpt>
<trkpt lat="25.455166" lon="103.4146">
<time>2016-10-07T00:35:51Z</time></trkpt>
<trkpt lat="25.454976" lon="103.41431">
<time>2016-10-07T00:35:52Z</time></trkpt>
<trkpt lat="25.454926" lon="103.41421">
<time>2016-10-07T00:35:53Z</time></trkpt>
<trkpt lat="25.454896" lon="103.41412">
<time>2016-10-07T00:35:54Z</time></trkpt>
<trkpt lat="25.454886" lon="103.41406">
<time>2016-10-07T00:35:55Z</time></trkpt>
<trkpt lat="25.454825" lon="103.41358">
<time>2016-10-07T00:35:56Z</time></trkpt>
<trkpt lat="25.454725" lon="103.41265">
<time>2016-10-07T00:35:57Z</time></trkpt>
<trkpt lat="25.454715" lon="103.41244">
<time>2016-10-07T00:35:58Z</time></trkpt>
<trkpt lat="25.454725" lon="103.41223">
<time>2016-10-07T00:35:59Z</time></trkpt>
<trkpt lat="25.454774" lon="103.41197">
<time>2016-10-07T00:36:00Z</time></trkpt>
<trkpt lat="25.454874" lon="103.4116">
<time>2016-10-07T00:36:01Z</time></trkpt>
<trkpt lat="25.454924" lon="103.41143">
<time>2016-10-07T00:36:02Z</time></trkpt>
<trkpt lat="25.455054" lon="103.41109">
<time>2016-10-07T00:36:03Z</time></trkpt>
<trkpt lat="25.455384" lon="103.41037">
<time>2016-10-07T00:36:04Z</time></trkpt>
<trkpt lat="25.455554" lon="103.40999">
<time>2016-10-07T00:36:05Z</time></trkpt>
<trkpt lat="25.455594" lon="103.40987">
<time>2016-10-07T00:36:06Z</time></trkpt>
<trkpt lat="25.455614" lon="103.40978">
<time>2016-10-07T00:36:07Z</time></trkpt>
<trkpt lat="25.455634" lon="103.40964">
<time>2016-10-07T00:36:08Z</time></trkpt>
<trkpt lat="25.455633" lon="103.40953">
<time>2016-10-07T00:36:09Z</time></trkpt>
<trkpt lat="25.455593" lon="103.40926">
<time>2016-10-07T00:36:10Z</time></trkpt>
<trkpt lat="25.455393" lon="103.40835">
<time>2016-10-07T00:36:11Z</time></trkpt>
<trkpt lat="25.455353" lon="103.4081">
<time>2016-10-07T00:36:12Z</time></trkpt>
<trkpt lat="25.455343" lon="103.40799">
<time>2016-10-07T00:36:13Z</time></trkpt>
<trkpt lat="25.455343" lon="103.40792">
<time>2016-10-07T00:36:14Z</time></trkpt>
<trkpt lat="25.455343" lon="103.40769">
<time>2016-10-07T00:36:15Z</time></trkpt>
<trkpt lat="25.455382" lon="103.40686">
<time>2016-10-07T00:36:16Z</time></trkpt>
<trkpt lat="25.455362" lon="103.40673">
<time>2016-10-07T00:36:17Z</time></trkpt>
<trkpt lat="25.455352" lon="103.40666">
<time>2016-10-07T00:36:18Z</time></trkpt>
<trkpt lat="25.455312" lon="103.40654">
<time>2016-10-07T00:36:19Z</time></trkpt>
<trkpt lat="25.455252" lon="103.40643">
<time>2016-10-07T00:36:20Z</time></trkpt>
<trkpt lat="25.455062" lon="103.40617">
<time>2016-10-07T00:36:21Z</time></trkpt>
<trkpt lat="25.454942" lon="103.40598">
<time>2016-10-07T00:36:22Z</time></trkpt>
<trkpt lat="25.454902" lon="103.40588">
<time>2016-10-07T00:36:23Z</time></trkpt>
<trkpt lat="25.454832" lon="103.40568">
<time>2016-10-07T00:36:24Z</time></trkpt>
<trkpt lat="25.454752" lon="103.40525">
<time>2016-10-07T00:36:25Z</time></trkpt>
<trkpt lat="25.454692" lon="103.40492">
<time>2016-10-07T00:36:26Z</time></trkpt>
<trkpt lat="25.454672" lon="103.4047">
<time>2016-10-07T00:36:27Z</time></trkpt>
<trkpt lat="25.454682" lon="103.4046">
<time>2016-10-07T00:36:28Z</time></trkpt>
<trkpt lat="25.454692" lon="103.404491">
<time>2016-10-07T00:36:29Z</time></trkpt>
<trkpt lat="25.454732" lon="103.404381">
<time>2016-10-07T00:36:30Z</time></trkpt>
<trkpt lat="25.454822" lon="103.404191">
<time>2016-10-07T00:36:31Z</time></trkpt>
<trkpt lat="25.454962" lon="103.403941">
<time>2016-10-07T00:36:32Z</time></trkpt>
<trkpt lat="25.455042" lon="103.403791">
<time>2016-10-07T00:36:33Z</time></trkpt>
<trkpt lat="25.455082" lon="103.403701">
<time>2016-10-07T00:36:34Z</time></trkpt>
<trkpt lat="25.455102" lon="103.403611">
<time>2016-10-07T00:36:35Z</time></trkpt>
<trkpt lat="25.455122" lon="103.403501">
<time>2016-10-07T00:36:36Z</time></trkpt>
<trkpt lat="25.455152" lon="103.403261">
<time>2016-10-07T00:36:37Z</time></trkpt>
<trkpt lat="25.455202" lon="103.402631">
<time>2016-10-07T00:36:38Z</time></trkpt>
<trkpt lat="25.455211" lon="103.401732">
<time>2016-10-07T00:36:39Z</time></trkpt>
<trkpt lat="25.455241" lon="103.400842">
<time>2016-10-07T00:36:40Z</time></trkpt>
<trkpt lat="25.455271" lon="103.399912">
<time>2016-10-07T00:36:41Z</time></trkpt>
<trkpt lat="25.455291" lon="103.399563">
<time>2016-10-07T00:36:42Z</time></trkpt>
<trkpt lat="25.455331" lon="103.399273">
<time>2016-10-07T00:36:43Z</time></trkpt>
<trkpt lat="25.455401" lon="103.398833">
<time>2016-10-07T00:36:44Z</time></trkpt>
<trkpt lat="25.455411" lon="103.398603">
<time>2016-10-07T00:36:45Z</time></trkpt>
<trkpt lat="25.455391" lon="103.398413">
<time>2016-10-07T00:36:46Z</time></trkpt>
<trkpt lat="25.455382" lon="103.398113">
<time>2016-10-07T00:36:47Z</time></trkpt>
<trkpt lat="25.455342" lon="103.397904">
<time>2016-10-07T00:36:48Z</time></trkpt>
<trkpt lat="25.455312" lon="103.397734">
<time>2016-10-07T00:36:49Z</time></trkpt>
<trkpt lat="25.455262" lon="103.397524">
<time>2016-10-07T00:36:50Z</time></trkpt>
<trkpt lat="25.455202" lon="103.397384">
<time>2016-10-07T00:36:51Z</time></trkpt>
<trkpt lat="25.455102" lon="103.397214">
<time>2016-10-07T00:36:52Z</time></trkpt>
<trkpt lat="25.455022" lon="103.397074">
<time>2016-10-07T00:36:53Z</time></trkpt>
<trkpt lat="25.454672" lon="103.396555">
<time>2016-10-07T00:36:54Z</time></trkpt>
<trkpt lat="25.454612" lon="103.396455">
<time>2016-10-07T00:36:55Z</time></trkpt>
<trkpt lat="25.454522" lon="103.396225">
<time>2016-10-07T00:36:56Z</time></trkpt>
<trkpt lat="25.454432" lon="103.395915">
<time>2016-10-07T00:36:57Z</time></trkpt>
<trkpt lat="25.454372" lon="103.395615">
<time>2016-10-07T00:36:58Z</time></trkpt>
<trkpt lat="25.454192" lon="103.394996">
<time>2016-10-07T00:36:59Z</time></trkpt>
<trkpt lat="25.454162" lon="103.394846">
<time>2016-10-07T00:37:00Z</time></trkpt>
<trkpt lat="25.454132" lon="103.394716">
<time>2016-10-07T00:37:01Z</time></trkpt>
<trkpt lat="25.454112" lon="103.394536">
<time>2016-10-07T00:37:02Z</time></trkpt>
<trkpt lat="25.454112" lon="103.394326">
<time>2016-10-07T00:37:03Z</time></trkpt>
<trkpt lat="25.454122" lon="103.394156">
<time>2016-10-07T00:37:04Z</time></trkpt>
<trkpt lat="25.454192" lon="103.393767">
<time>2016-10-07T00:37:05Z</time></trkpt>
<trkpt lat="25.454412" lon="103.392778">
<time>2016-10-07T00:37:06Z</time></trkpt>
<trkpt lat="25.454482" lon="103.392498">
<time>2016-10-07T00:37:07Z</time></trkpt>
<trkpt lat="25.454563" lon="103.392098">
<time>2016-10-07T00:37:08Z</time></trkpt>
<trkpt lat="25.454603" lon="103.391928">
<time>2016-10-07T00:37:09Z</time></trkpt>
<trkpt lat="25.454633" lon="103.391838">
<time>2016-10-07T00:37:10Z</time></trkpt>
<trkpt lat="25.454653" lon="103.391778">
<time>2016-10-07T00:37:11Z</time></trkpt>
<trkpt lat="25.454673" lon="103.391729">
<time>2016-10-07T00:37:12Z</time></trkpt>
<trkpt lat="25.454683" lon="103.391689">
<time>2016-10-07T00:37:13Z</time></trkpt>
<trkpt lat="25.454713" lon="103.391639">
<time>2016-10-07T00:37:14Z</time></trkpt>
<trkpt lat="25.454743" lon="103.391599">
<time>2016-10-07T00:37:15Z</time></trkpt>
<trkpt lat="25.454773" lon="103.391559">
<time>2016-10-07T00:37:16Z</time></trkpt>
<trkpt lat="25.454783" lon="103.391539">
<time>2016-10-07T00:37:17Z</time></trkpt>
<trkpt lat="25.454813" lon="103.391519">
<time>2016-10-07T00:37:18Z</time></trkpt>
<trkpt lat="25.454843" lon="103.391479">
<time>2016-10-07T00:37:19Z</time></trkpt>
<trkpt lat="25.454893" lon="103.391439">
<time>2016-10-07T00:37:20Z</time></trkpt>
<trkpt lat="25.454943" lon="103.391399">
<time>2016-10-07T00:37:21Z</time></trkpt>
<trkpt lat="25.454993" lon="103.391359">
<time>2016-10-07T00:37:22Z</time></trkpt>
<trkpt lat="25.455043" lon="103.391329">
<time>2016-10-07T00:37:23Z</time></trkpt>
<trkpt lat="25.455133" lon="103.391289">
<time>2016-10-07T00:37:24Z</time></trkpt>
<trkpt lat="25.455233" lon="103.391239">
<time>2016-10-07T00:37:25Z</time></trkpt>
<trkpt lat="25.455743" lon="103.391029">
<time>2016-10-07T00:37:26Z</time></trkpt>
<trkpt lat="25.455923" lon="103.390949">
<time>2016-10-07T00:37:27Z</time></trkpt>
<trkpt lat="25.455973" lon="103.390919">
<time>2016-10-07T00:37:28Z</time></trkpt>
<trkpt lat="25.456013" lon="103.390889">
<time>2016-10-07T00:37:29Z</time></trkpt>
<trkpt lat="25.456043" lon="103.390849">
<time>2016-10-07T00:37:30Z</time></trkpt>
<trkpt lat="25.456063" lon="103.390819">
<time>2016-10-07T00:37:31Z</time></trkpt>
<trkpt lat="25.456073" lon="103.390789">
<time>2016-10-07T00:37:32Z</time></trkpt>
<trkpt lat="25.456083" lon="103.390769">
<time>2016-10-07T00:37:33Z</time></trkpt>
<trkpt lat="25.456094" lon="103.390739">
<time>2016-10-07T00:37:34Z</time></trkpt>
<trkpt lat="25.456094" lon="103.390709">
<time>2016-10-07T00:37:35Z</time></trkpt>
<trkpt lat="25.456094" lon="103.390669">
<time>2016-10-07T00:37:36Z</time></trkpt>
<trkpt lat="25.456084" lon="103.39062">
<time>2016-10-07T00:37:37Z</time></trkpt>
<trkpt lat="25.456074" lon="103.39056">
<time>2016-10-07T00:37:38Z</time></trkpt>
<trkpt lat="25.456054" lon="103.39049">
<time>2016-10-07T00:37:39Z</time></trkpt>
<trkpt lat="25.456044" lon="103.39044">
<time>2016-10-07T00:37:40Z</time></trkpt>
<trkpt lat="25.456034" lon="103.39042">
<time>2016-10-07T00:37:41Z</time></trkpt>
<trkpt lat="25.456004" lon="103.39032">
<time>2016-10-07T00:37:42Z</time></trkpt>
<trkpt lat="25.455934" lon="103.39013">
<time>2016-10-07T00:37:43Z</time></trkpt>
<trkpt lat="25.455674" lon="103.389461">
<time>2016-10-07T00:37:44Z</time></trkpt>
<trkpt lat="25.455674" lon="103.389461">
<time>2016-10-07T00:37:45Z</time></trkpt>
<trkpt lat="25.455784" lon="103.389411">
<time>2016-10-07T00:37:46Z</time></trkpt>
<trkpt lat="25.455894" lon="103.389371">
<time>2016-10-07T00:37:47Z</time></trkpt>
<trkpt lat="25.456044" lon="103.389291">
<time>2016-10-07T00:37:48Z</time></trkpt>
<trkpt lat="25.456464" lon="103.389071">
<time>2016-10-07T00:37:49Z</time></trkpt>
<trkpt lat="25.456554" lon="103.389041">
<time>2016-10-07T00:37:50Z</time></trkpt>
<trkpt lat="25.456634" lon="103.389011">
<time>2016-10-07T00:37:51Z</time></trkpt>
<trkpt lat="25.456714" lon="103.388991">
<time>2016-10-07T00:37:52Z</time></trkpt>
<trkpt lat="25.456814" lon="103.388971">
<time>2016-10-07T00:37:53Z</time></trkpt>
<trkpt lat="25.456915" lon="103.388951">
<time>2016-10-07T00:37:54Z</time></trkpt>
<trkpt lat="25.457015" lon="103.388921">
<time>2016-10-07T00:37:55Z</time></trkpt>
<trkpt lat="25.457125" lon="103.388891">
<time>2016-10-07T00:37:56Z</time></trkpt>
<trkpt lat="25.457215" lon="103.388851">
<time>2016-10-07T00:37:57Z</time></trkpt>
<trkpt lat="25.457345" lon="103.388771">
<time>2016-10-07T00:37:58Z</time></trkpt>
<trkpt lat="25.457515" lon="103.388652">
<time>2016-10-07T00:37:59Z</time></trkpt>
<trkpt lat="25.457775" lon="103.388442">
<time>2016-10-07T00:38:00Z</time></trkpt>
<trkpt lat="25.458205" lon="103.388112">
<time>2016-10-07T00:38:01Z</time></trkpt>
<trkpt lat="25.458375" lon="103.387972">
<time>2016-10-07T00:38:02Z</time></trkpt>
<trkpt lat="25.458485" lon="103.387882">
<time>2016-10-07T00:38:03Z</time></trkpt>
<trkpt lat="25.458596" lon="103.387752">
<time>2016-10-07T00:38:04Z</time></trkpt>
<trkpt lat="25.458706" lon="103.387603">
<time>2016-10-07T00:38:05Z</time></trkpt>
<trkpt lat="25.459006" lon="103.387203">
<time>2016-10-07T00:38:06Z</time></trkpt>
<trkpt lat="25.459276" lon="103.386843">
<time>2016-10-07T00:38:07Z</time></trkpt>
<trkpt lat="25.459566" lon="103.386504">
<time>2016-10-07T00:38:08Z</time></trkpt>
<trkpt lat="25.459877" lon="103.386144">
<time>2016-10-07T00:38:09Z</time></trkpt>
<trkpt lat="25.460808" lon="103.385026">
<time>2016-10-07T00:38:10Z</time></trkpt>
<trkpt lat="25.460898" lon="103.384906">
<time>2016-10-07T00:38:11Z</time></trkpt>
<trkpt lat="25.460968" lon="103.384786">
<time>2016-10-07T00:38:12Z</time></trkpt>
<trkpt lat="25.461038" lon="103.384636">
<time>2016-10-07T00:38:13Z</time></trkpt>
<trkpt lat="25.461218" lon="103.384267">
<time>2016-10-07T00:38:14Z</time></trkpt>
<trkpt lat="25.461469" lon="103.383687">
<time>2016-10-07T00:38:15Z</time></trkpt>
<trkpt lat="25.461529" lon="103.383517">
<time>2016-10-07T00:38:16Z</time></trkpt>
<trkpt lat="25.461549" lon="103.383418">
<time>2016-10-07T00:38:17Z</time></trkpt>
<trkpt lat="25.461569" lon="103.383298">
<time>2016-10-07T00:38:18Z</time></trkpt>
<trkpt lat="25.461589" lon="103.383158">
<time>2016-10-07T00:38:19Z</time></trkpt>
<trkpt lat="25.461599" lon="103.382988">
<time>2016-10-07T00:38:20Z</time></trkpt>
<trkpt lat="25.461599" lon="103.382918">
<time>2016-10-07T00:38:21Z</time></trkpt>
<trkpt lat="25.461609" lon="103.382848">
<time>2016-10-07T00:38:22Z</time></trkpt>
<trkpt lat="25.461619" lon="103.382788">
<time>2016-10-07T00:38:23Z</time></trkpt>
<trkpt lat="25.461639" lon="103.382729">
<time>2016-10-07T00:38:24Z</time></trkpt>
<trkpt lat="25.46165" lon="103.382679">
<time>2016-10-07T00:38:25Z</time></trkpt>
<trkpt lat="25.46168" lon="103.382609">
<time>2016-10-07T00:38:26Z</time></trkpt>
<trkpt lat="25.46171" lon="103.382559">
<time>2016-10-07T00:38:27Z</time></trkpt>
<trkpt lat="25.46174" lon="103.382509">
<time>2016-10-07T00:38:28Z</time></trkpt>
<trkpt lat="25.4618" lon="103.382409">
<time>2016-10-07T00:38:29Z</time></trkpt>
<trkpt lat="25.46204" lon="103.382049">
<time>2016-10-07T00:38:30Z</time></trkpt>
<trkpt lat="25.46217" lon="103.3818">
<time>2016-10-07T00:38:31Z</time></trkpt>
<trkpt lat="25.462341" lon="103.38141">
<time>2016-10-07T00:38:32Z</time></trkpt>
<trkpt lat="25.462461" lon="103.381101">
<time>2016-10-07T00:38:33Z</time></trkpt>
<trkpt lat="25.462551" lon="103.380851">
<time>2016-10-07T00:38:34Z</time></trkpt>
<trkpt lat="25.462621" lon="103.380701">
<time>2016-10-07T00:38:35Z</time></trkpt>
<trkpt lat="25.462691" lon="103.380581">
<time>2016-10-07T00:38:36Z</time></trkpt>
<trkpt lat="25.462762" lon="103.380482">
<time>2016-10-07T00:38:37Z</time></trkpt>
<trkpt lat="25.462882" lon="103.380322">
<time>2016-10-07T00:38:38Z</time></trkpt>
<trkpt lat="25.463142" lon="103.380032">
<time>2016-10-07T00:38:39Z</time></trkpt>
<trkpt lat="25.463412" lon="103.379713">
<time>2016-10-07T00:38:40Z</time></trkpt>
<trkpt lat="25.463532" lon="103.379593">
<time>2016-10-07T00:38:41Z</time></trkpt>
<trkpt lat="25.463613" lon="103.379493">
<time>2016-10-07T00:38:42Z</time></trkpt>
<trkpt lat="25.463673" lon="103.379413">
<time>2016-10-07T00:38:43Z</time></trkpt>
<trkpt lat="25.463763" lon="103.379283">
<time>2016-10-07T00:38:44Z</time></trkpt>
<trkpt lat="25.463853" lon="103.379154">
<time>2016-10-07T00:38:45Z</time></trkpt>
<trkpt lat="25.464023" lon="103.378874">
<time>2016-10-07T00:38:46Z</time></trkpt>
<trkpt lat="25.464264" lon="103.378455">
<time>2016-10-07T00:38:47Z</time></trkpt>
<trkpt lat="25.464404" lon="103.378255">
<time>2016-10-07T00:38:48Z</time></trkpt>
<trkpt lat="25.464584" lon="103.378045">
<time>2016-10-07T00:38:49Z</time></trkpt>
<trkpt lat="25.464844" lon="103.377796">
<time>2016-10-07T00:38:50Z</time></trkpt>
<trkpt lat="25.465836" lon="103.376857">
<time>2016-10-07T00:38:51Z</time></trkpt>
<trkpt lat="25.466596" lon="103.376168">
<time>2016-10-07T00:38:52Z</time></trkpt>
<trkpt lat="25.466887" lon="103.375889">
<time>2016-10-07T00:38:53Z</time></trkpt>
<trkpt lat="25.467137" lon="103.375629">
<time>2016-10-07T00:38:54Z</time></trkpt>
<trkpt lat="25.467377" lon="103.375389">
<time>2016-10-07T00:38:55Z</time></trkpt>
<trkpt lat="25.467588" lon="103.37521">
<time>2016-10-07T00:38:56Z</time></trkpt>
<trkpt lat="25.467828" lon="103.37501">
<time>2016-10-07T00:38:57Z</time></trkpt>
<trkpt lat="25.468388" lon="103.374641">
<time>2016-10-07T00:38:58Z</time></trkpt>
<trkpt lat="25.469019" lon="103.374321">
<time>2016-10-07T00:38:59Z</time></trkpt>
<trkpt lat="25.469109" lon="103.374261">
<time>2016-10-07T00:39:00Z</time></trkpt>
<trkpt lat="25.469189" lon="103.374191">
<time>2016-10-07T00:39:01Z</time></trkpt>
<trkpt lat="25.469269" lon="103.374121">
<time>2016-10-07T00:39:02Z</time></trkpt>
<trkpt lat="25.469339" lon="103.374051">
<time>2016-10-07T00:39:03Z</time></trkpt>
<trkpt lat="25.469439" lon="103.373942">
<time>2016-10-07T00:39:04Z</time></trkpt>
<trkpt lat="25.469539" lon="103.373862">
<time>2016-10-07T00:39:05Z</time></trkpt>
<trkpt lat="25.46961" lon="103.373802">
<time>2016-10-07T00:39:06Z</time></trkpt>
<trkpt lat="25.46973" lon="103.373732">
<time>2016-10-07T00:39:07Z</time></trkpt>
<trkpt lat="25.47033" lon="103.373413">
<time>2016-10-07T00:39:08Z</time></trkpt>
<trkpt lat="25.471081" lon="103.373063">
<time>2016-10-07T00:39:09Z</time></trkpt>
<trkpt lat="25.471181" lon="103.373033">
<time>2016-10-07T00:39:10Z</time></trkpt>
<trkpt lat="25.471251" lon="103.373013">
<time>2016-10-07T00:39:11Z</time></trkpt>
<trkpt lat="25.471311" lon="103.372993">
<time>2016-10-07T00:39:12Z</time></trkpt>
<trkpt lat="25.471391" lon="103.372983">
<time>2016-10-07T00:39:13Z</time></trkpt>
<trkpt lat="25.472011" lon="103.372963">
<time>2016-10-07T00:39:14Z</time></trkpt>
<trkpt lat="25.472171" lon="103.372943">
<time>2016-10-07T00:39:15Z</time></trkpt>
<trkpt lat="25.472261" lon="103.372923">
<time>2016-10-07T00:39:16Z</time></trkpt>
<trkpt lat="25.472301" lon="103.372913">
<time>2016-10-07T00:39:17Z</time></trkpt>
<trkpt lat="25.472371" lon="103.372883">
<time>2016-10-07T00:39:18Z</time></trkpt>
<trkpt lat="25.472431" lon="103.372843">
<time>2016-10-07T00:39:19Z</time></trkpt>
<trkpt lat="25.472481" lon="103.372804">
<time>2016-10-07T00:39:20Z</time></trkpt>
<trkpt lat="25.472532" lon="103.372744">
<time>2016-10-07T00:39:21Z</time></trkpt>
<trkpt lat="25.472582" lon="103.372654">
<time>2016-10-07T00:39:22Z</time></trkpt>
<trkpt lat="25.472602" lon="103.372584">
<time>2016-10-07T00:39:23Z</time></trkpt>
<trkpt lat="25.472622" lon="103.372504">
<time>2016-10-07T00:39:24Z</time></trkpt>
<trkpt lat="25.472632" lon="103.372444">
<time>2016-10-07T00:39:25Z</time></trkpt>
<trkpt lat="25.472632" lon="103.372384">
<time>2016-10-07T00:39:26Z</time></trkpt>
<trkpt lat="25.472612" lon="103.372304">
<time>2016-10-07T00:39:27Z</time></trkpt>
<trkpt lat="25.472572" lon="103.372175">
<time>2016-10-07T00:39:28Z</time></trkpt>
<trkpt lat="25.472512" lon="103.372045">
<time>2016-10-07T00:39:29Z</time></trkpt>
<trkpt lat="25.472442" lon="103.371895">
<time>2016-10-07T00:39:30Z</time></trkpt>
<trkpt lat="25.472393" lon="103.371785">
<time>2016-10-07T00:39:31Z</time></trkpt>
<trkpt lat="25.472353" lon="103.371656">
<time>2016-10-07T00:39:32Z</time></trkpt>
<trkpt lat="25.472313" lon="103.371526">
<time>2016-10-07T00:39:33Z</time></trkpt>
<trkpt lat="25.472163" lon="103.370937">
<time>2016-10-07T00:39:34Z</time></trkpt>
<trkpt lat="25.471865" lon="103.369579">
<time>2016-10-07T00:39:35Z</time></trkpt>
<trkpt lat="25.471567" lon="103.368142">
<time>2016-10-07T00:39:36Z</time></trkpt>
<trkpt lat="25.471537" lon="103.368032">
<time>2016-10-07T00:39:37Z</time></trkpt>
<trkpt lat="25.471527" lon="103.367962">
<time>2016-10-07T00:39:38Z</time></trkpt>
<trkpt lat="25.471487" lon="103.367873">
<time>2016-10-07T00:39:39Z</time></trkpt>
<trkpt lat="25.471407" lon="103.367733">
<time>2016-10-07T00:39:40Z</time></trkpt>
<trkpt lat="25.471277" lon="103.367503">
<time>2016-10-07T00:39:41Z</time></trkpt>
<trkpt lat="25.470389" lon="103.366066">
<time>2016-10-07T00:39:42Z</time></trkpt>
<trkpt lat="25.468872" lon="103.363481">
<time>2016-10-07T00:39:43Z</time></trkpt>
<trkpt lat="25.468423" lon="103.362663">
<time>2016-10-07T00:39:44Z</time></trkpt>
<trkpt lat="25.468363" lon="103.362543">
<time>2016-10-07T00:39:45Z</time></trkpt>
<trkpt lat="25.467745" lon="103.361356">
<time>2016-10-07T00:39:46Z</time></trkpt>
<trkpt lat="25.467615" lon="103.361017">
<time>2016-10-07T00:39:47Z</time></trkpt>
<trkpt lat="25.467495" lon="103.360747">
<time>2016-10-07T00:39:48Z</time></trkpt>
<trkpt lat="25.467456" lon="103.360628">
<time>2016-10-07T00:39:49Z</time></trkpt>
<trkpt lat="25.467406" lon="103.360528">
<time>2016-10-07T00:39:50Z</time></trkpt>
<trkpt lat="25.467356" lon="103.360418">
<time>2016-10-07T00:39:51Z</time></trkpt>
<trkpt lat="25.467236" lon="103.360228">
<time>2016-10-07T00:39:52Z</time></trkpt>
<trkpt lat="25.466927" lon="103.359769">
<time>2016-10-07T00:39:53Z</time></trkpt>
<trkpt lat="25.466737" lon="103.35949">
<time>2016-10-07T00:39:54Z</time></trkpt>
<trkpt lat="25.466607" lon="103.35931">
<time>2016-10-07T00:39:55Z</time></trkpt>
<trkpt lat="25.466358" lon="103.358961">
<time>2016-10-07T00:39:56Z</time></trkpt>
<trkpt lat="25.466258" lon="103.358802">
<time>2016-10-07T00:39:57Z</time></trkpt>
<trkpt lat="25.466178" lon="103.358662">
<time>2016-10-07T00:39:58Z</time></trkpt>
<trkpt lat="25.466118" lon="103.358542">
<time>2016-10-07T00:39:59Z</time></trkpt>
<trkpt lat="25.466039" lon="103.358323">
<time>2016-10-07T00:40:00Z</time></trkpt>
<trkpt lat="25.465879" lon="103.357864">
<time>2016-10-07T00:40:01Z</time></trkpt>
<trkpt lat="25.46577" lon="103.357554">
<time>2016-10-07T00:40:02Z</time></trkpt>
<trkpt lat="25.46566" lon="103.357325">
<time>2016-10-07T00:40:03Z</time></trkpt>
<trkpt lat="25.46555" lon="103.357095">
<time>2016-10-07T00:40:04Z</time></trkpt>
<trkpt lat="25.465491" lon="103.356936">
<time>2016-10-07T00:40:05Z</time></trkpt>
<trkpt lat="25.465451" lon="103.356746">
<time>2016-10-07T00:40:06Z</time></trkpt>
<trkpt lat="25.465431" lon="103.356557">
<time>2016-10-07T00:40:07Z</time></trkpt>
<trkpt lat="25.465411" lon="103.356377">
<time>2016-10-07T00:40:08Z</time></trkpt>
<trkpt lat="25.465392" lon="103.356217">
<time>2016-10-07T00:40:09Z</time></trkpt>
<trkpt lat="25.465343" lon="103.355479">
<time>2016-10-07T00:40:10Z</time></trkpt>
<trkpt lat="25.465313" lon="103.35517">
<time>2016-10-07T00:40:11Z</time></trkpt>
<trkpt lat="25.465284" lon="103.35497">
<time>2016-10-07T00:40:12Z</time></trkpt>
<trkpt lat="25.465234" lon="103.354821">
<time>2016-10-07T00:40:13Z</time></trkpt>
<trkpt lat="25.465184" lon="103.354711">
<time>2016-10-07T00:40:14Z</time></trkpt>
<trkpt lat="25.465104" lon="103.354601">
<time>2016-10-07T00:40:15Z</time></trkpt>
<trkpt lat="25.465004" lon="103.354491">
<time>2016-10-07T00:40:16Z</time></trkpt>
<trkpt lat="25.464854" lon="103.354362">
<time>2016-10-07T00:40:17Z</time></trkpt>
<trkpt lat="25.464665" lon="103.354252">
<time>2016-10-07T00:40:18Z</time></trkpt>
<trkpt lat="25.464465" lon="103.354142">
<time>2016-10-07T00:40:19Z</time></trkpt>
<trkpt lat="25.464205" lon="103.354033">
<time>2016-10-07T00:40:20Z</time></trkpt>
<trkpt lat="25.464055" lon="103.353963">
<time>2016-10-07T00:40:21Z</time></trkpt>
<trkpt lat="25.463905" lon="103.353913">
<time>2016-10-07T00:40:22Z</time></trkpt>
<trkpt lat="25.463755" lon="103.353873">
<time>2016-10-07T00:40:23Z</time></trkpt>
<trkpt lat="25.463575" lon="103.353843">
<time>2016-10-07T00:40:24Z</time></trkpt>
<trkpt lat="25.463155" lon="103.353793">
<time>2016-10-07T00:40:25Z</time></trkpt>
<trkpt lat="25.462995" lon="103.353763">
<time>2016-10-07T00:40:26Z</time></trkpt>
<trkpt lat="25.462885" lon="103.353723">
<time>2016-10-07T00:40:27Z</time></trkpt>
<trkpt lat="25.462805" lon="103.353693">
<time>2016-10-07T00:40:28Z</time></trkpt>
<trkpt lat="25.462725" lon="103.353644">
<time>2016-10-07T00:40:29Z</time></trkpt>
<trkpt lat="25.462645" lon="103.353574">
<time>2016-10-07T00:40:30Z</time></trkpt>
<trkpt lat="25.462565" lon="103.353494">
<time>2016-10-07T00:40:31Z</time></trkpt>
<trkpt lat="25.462356" lon="103.353244">
<time>2016-10-07T00:40:32Z</time></trkpt>
<trkpt lat="25.461466" lon="103.352636">
<time>2016-10-07T00:40:33Z</time></trkpt>
<trkpt lat="25.461226" lon="103.352506">
<time>2016-10-07T00:40:34Z</time></trkpt>
<trkpt lat="25.461017" lon="103.352397">
<time>2016-10-07T00:40:35Z</time></trkpt>
<trkpt lat="25.460757" lon="103.352297">
<time>2016-10-07T00:40:36Z</time></trkpt>
<trkpt lat="25.460537" lon="103.352227">
<time>2016-10-07T00:40:37Z</time></trkpt>
<trkpt lat="25.460417" lon="103.352187">
<time>2016-10-07T00:40:38Z</time></trkpt>
<trkpt lat="25.460317" lon="103.352157">
<time>2016-10-07T00:40:39Z</time></trkpt>
<trkpt lat="25.460187" lon="103.352107">
<time>2016-10-07T00:40:40Z</time></trkpt>
<trkpt lat="25.460067" lon="103.352047">
<time>2016-10-07T00:40:41Z</time></trkpt>
<trkpt lat="25.460007" lon="103.352017">
<time>2016-10-07T00:40:42Z</time></trkpt>
<trkpt lat="25.459947" lon="103.351978">
<time>2016-10-07T00:40:43Z</time></trkpt>
<trkpt lat="25.459897" lon="103.351948">
<time>2016-10-07T00:40:44Z</time></trkpt>
<trkpt lat="25.459847" lon="103.351918">
<time>2016-10-07T00:40:45Z</time></trkpt>
<trkpt lat="25.459777" lon="103.351838">
<time>2016-10-07T00:40:46Z</time></trkpt>
<trkpt lat="25.459677" lon="103.351718">
<time>2016-10-07T00:40:47Z</time></trkpt>
<trkpt lat="25.459677" lon="103.351708">
<time>2016-10-07T00:40:48Z</time></trkpt>
<trkpt lat="25.459588" lon="103.351589">
<time>2016-10-07T00:40:49Z</time></trkpt>
<trkpt lat="25.459418" lon="103.351309">
<time>2016-10-07T00:40:50Z</time></trkpt>
<trkpt lat="25.459238" lon="103.351">
<time>2016-10-07T00:40:51Z</time></trkpt>
<trkpt lat="25.459119" lon="103.35079">
<time>2016-10-07T00:40:52Z</time></trkpt>
<trkpt lat="25.459039" lon="103.350641">
<time>2016-10-07T00:40:53Z</time></trkpt>
<trkpt lat="25.458979" lon="103.350541">
<time>2016-10-07T00:40:54Z</time></trkpt>
<trkpt lat="25.45884" lon="103.350262">
<time>2016-10-07T00:40:55Z</time></trkpt>
<trkpt lat="25.45875" lon="103.350072">
<time>2016-10-07T00:40:56Z</time></trkpt>
<trkpt lat="25.4587" lon="103.349982">
<time>2016-10-07T00:40:57Z</time></trkpt>
<trkpt lat="25.45858" lon="103.349733">
<time>2016-10-07T00:40:58Z</time></trkpt>
<trkpt lat="25.458501" lon="103.349544">
<time>2016-10-07T00:40:59Z</time></trkpt>
<trkpt lat="25.458471" lon="103.349474">
<time>2016-10-07T00:41:00Z</time></trkpt>
<trkpt lat="25.458361" lon="103.349204">
<time>2016-10-07T00:41:01Z</time></trkpt>
<trkpt lat="25.458262" lon="103.348955">
<time>2016-10-07T00:41:02Z</time></trkpt>
<trkpt lat="25.458172" lon="103.348755">
<time>2016-10-07T00:41:03Z</time></trkpt>
<trkpt lat="25.458072" lon="103.348486">
<time>2016-10-07T00:41:04Z</time></trkpt>
<trkpt lat="25.457973" lon="103.348247">
<time>2016-10-07T00:41:05Z</time></trkpt>
<trkpt lat="25.457853" lon="103.347957">
<time>2016-10-07T00:41:06Z</time></trkpt>
<trkpt lat="25.457754" lon="103.347698">
<time>2016-10-07T00:41:07Z</time></trkpt>
<trkpt lat="25.457664" lon="103.347499">
<time>2016-10-07T00:41:08Z</time></trkpt>
<trkpt lat="25.457594" lon="103.347319">
<time>2016-10-07T00:41:09Z</time></trkpt>
<trkpt lat="25.457495" lon="103.34708">
<time>2016-10-07T00:41:10Z</time></trkpt>
<trkpt lat="25.457415" lon="103.34688">
<time>2016-10-07T00:41:11Z</time></trkpt>
<trkpt lat="25.457375" lon="103.34677">
<time>2016-10-07T00:41:12Z</time></trkpt>
<trkpt lat="25.457256" lon="103.346481">
<time>2016-10-07T00:41:13Z</time></trkpt>
<trkpt lat="25.457136" lon="103.346192">
<time>2016-10-07T00:41:14Z</time></trkpt>
<trkpt lat="25.457126" lon="103.346182">
<time>2016-10-07T00:41:15Z</time></trkpt>
<trkpt lat="25.457007" lon="103.345863">
<time>2016-10-07T00:41:16Z</time></trkpt>
<trkpt lat="25.456887" lon="103.345553">
<time>2016-10-07T00:41:17Z</time></trkpt>
<trkpt lat="25.456758" lon="103.345254">
<time>2016-10-07T00:41:18Z</time></trkpt>
<trkpt lat="25.456678" lon="103.345065">
<time>2016-10-07T00:41:19Z</time></trkpt>
<trkpt lat="25.456628" lon="103.344925">
<time>2016-10-07T00:41:20Z</time></trkpt>
<trkpt lat="25.456578" lon="103.344815">
<time>2016-10-07T00:41:21Z</time></trkpt>
<trkpt lat="25.456568" lon="103.344805">
<time>2016-10-07T00:41:22Z</time></trkpt>
<trkpt lat="25.456519" lon="103.344676">
<time>2016-10-07T00:41:23Z</time></trkpt>
<trkpt lat="25.456449" lon="103.344496">
<time>2016-10-07T00:41:24Z</time></trkpt>
<trkpt lat="25.456369" lon="103.344327">
<time>2016-10-07T00:41:25Z</time></trkpt>
<trkpt lat="25.45629" lon="103.344147">
<time>2016-10-07T00:41:26Z</time></trkpt>
<trkpt lat="25.45625" lon="103.344037">
<time>2016-10-07T00:41:27Z</time></trkpt>
<trkpt lat="25.45618" lon="103.343898">
<time>2016-10-07T00:41:28Z</time></trkpt>
<trkpt lat="25.45612" lon="103.343778">
<time>2016-10-07T00:41:29Z</time></trkpt>
<trkpt lat="25.45605" lon="103.343658">
<time>2016-10-07T00:41:30Z</time></trkpt>
<trkpt lat="25.45601" lon="103.343589">
<time>2016-10-07T00:41:31Z</time></trkpt>
<trkpt lat="25.455951" lon="103.343529">
<time>2016-10-07T00:41:32Z</time></trkpt>
<trkpt lat="25.455901" lon="103.343479">
<time>2016-10-07T00:41:33Z</time></trkpt>
<trkpt lat="25.455851" lon="103.343429">
<time>2016-10-07T00:41:34Z</time></trkpt>
<trkpt lat="25.455791" lon="103.343399">
<time>2016-10-07T00:41:35Z</time></trkpt>
<trkpt lat="25.455731" lon="103.343369">
<time>2016-10-07T00:41:36Z</time></trkpt>
<trkpt lat="25.455501" lon="103.343259">
<time>2016-10-07T00:41:37Z</time></trkpt>
<trkpt lat="25.455341" lon="103.34316">
<time>2016-10-07T00:41:38Z</time></trkpt>
<trkpt lat="25.455261" lon="103.3431">
<time>2016-10-07T00:41:39Z</time></trkpt>
<trkpt lat="25.455171" lon="103.34304">
<time>2016-10-07T00:41:40Z</time></trkpt>
<trkpt lat="25.455091" lon="103.34295">
<time>2016-10-07T00:41:41Z</time></trkpt>
<trkpt lat="25.455012" lon="103.34284">
<time>2016-10-07T00:41:42Z</time></trkpt>
<trkpt lat="25.454962" lon="103.342771">
<time>2016-10-07T00:41:43Z</time></trkpt>
<trkpt lat="25.454882" lon="103.342651">
<time>2016-10-07T00:41:44Z</time></trkpt>
<trkpt lat="25.454832" lon="103.342531">
<time>2016-10-07T00:41:45Z</time></trkpt>
<trkpt lat="25.454802" lon="103.342461">
<time>2016-10-07T00:41:46Z</time></trkpt>
<trkpt lat="25.454772" lon="103.342372">
<time>2016-10-07T00:41:47Z</time></trkpt>
<trkpt lat="25.454743" lon="103.342232">
<time>2016-10-07T00:41:48Z</time></trkpt>
<trkpt lat="25.454713" lon="103.342072">
<time>2016-10-07T00:41:49Z</time></trkpt>
<trkpt lat="25.454703" lon="103.341953">
<time>2016-10-07T00:41:50Z</time></trkpt>
<trkpt lat="25.454693" lon="103.341823">
<time>2016-10-07T00:41:51Z</time></trkpt>
<trkpt lat="25.454694" lon="103.341693">
<time>2016-10-07T00:41:52Z</time></trkpt>
<trkpt lat="25.454694" lon="103.341604">
<time>2016-10-07T00:41:53Z</time></trkpt>
<trkpt lat="25.454704" lon="103.341534">
<time>2016-10-07T00:41:54Z</time></trkpt>
<trkpt lat="25.454714" lon="103.341454">
<time>2016-10-07T00:41:55Z</time></trkpt>
<trkpt lat="25.454744" lon="103.341374">
<time>2016-10-07T00:41:56Z</time></trkpt>
<trkpt lat="25.454764" lon="103.341314">
<time>2016-10-07T00:41:57Z</time></trkpt>
<trkpt lat="25.454774" lon="103.341275">
<time>2016-10-07T00:41:58Z</time></trkpt>
<trkpt lat="25.454814" lon="103.341195">
<time>2016-10-07T00:41:59Z</time></trkpt>
<trkpt lat="25.454895" lon="103.341075">
<time>2016-10-07T00:42:00Z</time></trkpt>
<trkpt lat="25.455025" lon="103.340866">
<time>2016-10-07T00:42:01Z</time></trkpt>
<trkpt lat="25.455145" lon="103.340696">
<time>2016-10-07T00:42:02Z</time></trkpt>
<trkpt lat="25.455336" lon="103.340387">
<time>2016-10-07T00:42:03Z</time></trkpt>
<trkpt lat="25.455527" lon="103.340078">
<time>2016-10-07T00:42:04Z</time></trkpt>
<trkpt lat="25.455657" lon="103.339868">
<time>2016-10-07T00:42:05Z</time></trkpt>
<trkpt lat="25.455737" lon="103.339748">
<time>2016-10-07T00:42:06Z</time></trkpt>
<trkpt lat="25.455808" lon="103.339629">
<time>2016-10-07T00:42:07Z</time></trkpt>
<trkpt lat="25.455828" lon="103.339599">
<time>2016-10-07T00:42:08Z</time></trkpt>
<trkpt lat="25.455878" lon="103.339489">
<time>2016-10-07T00:42:09Z</time></trkpt>
<trkpt lat="25.455928" lon="103.339369">
<time>2016-10-07T00:42:10Z</time></trkpt>
<trkpt lat="25.455948" lon="103.33924">
<time>2016-10-07T00:42:11Z</time></trkpt>
<trkpt lat="25.455959" lon="103.33916">
<time>2016-10-07T00:42:12Z</time></trkpt>
<trkpt lat="25.455959" lon="103.33911">
<time>2016-10-07T00:42:13Z</time></trkpt>
<trkpt lat="25.455959" lon="103.33905">
<time>2016-10-07T00:42:14Z</time></trkpt>
<trkpt lat="25.455959" lon="103.339">
<time>2016-10-07T00:42:15Z</time></trkpt>
<trkpt lat="25.455949" lon="103.338931">
<time>2016-10-07T00:42:16Z</time></trkpt>
<trkpt lat="25.455939" lon="103.338851">
<time>2016-10-07T00:42:17Z</time></trkpt>
<trkpt lat="25.455899" lon="103.338691">
<time>2016-10-07T00:42:18Z</time></trkpt>
<trkpt lat="25.45582" lon="103.338422">
<time>2016-10-07T00:42:19Z</time></trkpt>
<trkpt lat="25.45572" lon="103.338113">
<time>2016-10-07T00:42:20Z</time></trkpt>
<trkpt lat="25.455631" lon="103.337814">
<time>2016-10-07T00:42:21Z</time></trkpt>
<trkpt lat="25.455541" lon="103.337534">
<time>2016-10-07T00:42:22Z</time></trkpt>
<trkpt lat="25.455462" lon="103.337255">
<time>2016-10-07T00:42:23Z</time></trkpt>
<trkpt lat="25.455422" lon="103.337125">
<time>2016-10-07T00:42:24Z</time></trkpt>
<trkpt lat="25.455353" lon="103.336876">
<time>2016-10-07T00:42:25Z</time></trkpt>
<trkpt lat="25.455263" lon="103.336607">
<time>2016-10-07T00:42:26Z</time></trkpt>
<trkpt lat="25.455174" lon="103.336308">
<time>2016-10-07T00:42:27Z</time></trkpt>
<trkpt lat="25.455074" lon="103.336028">
<time>2016-10-07T00:42:28Z</time></trkpt>
<trkpt lat="25.454935" lon="103.335599">
<time>2016-10-07T00:42:29Z</time></trkpt>
<trkpt lat="25.454835" lon="103.33529">
<time>2016-10-07T00:42:30Z</time></trkpt>
<trkpt lat="25.454726" lon="103.334961">
<time>2016-10-07T00:42:31Z</time></trkpt>
<trkpt lat="25.454636" lon="103.334712">
<time>2016-10-07T00:42:32Z</time></trkpt>
<trkpt lat="25.454607" lon="103.334642">
<time>2016-10-07T00:42:33Z</time></trkpt>
<trkpt lat="25.454577" lon="103.334562">
<time>2016-10-07T00:42:34Z</time></trkpt>
<trkpt lat="25.454487" lon="103.334433">
<time>2016-10-07T00:42:35Z</time></trkpt>
<trkpt lat="25.454447" lon="103.334373">
<time>2016-10-07T00:42:36Z</time></trkpt>
<trkpt lat="25.454397" lon="103.334313">
<time>2016-10-07T00:42:37Z</time></trkpt>
<trkpt lat="25.454327" lon="103.334263">
<time>2016-10-07T00:42:38Z</time></trkpt>
<trkpt lat="25.454277" lon="103.334213">
<time>2016-10-07T00:42:39Z</time></trkpt>
<trkpt lat="25.454157" lon="103.334153">
<time>2016-10-07T00:42:40Z</time></trkpt>
<trkpt lat="25.454008" lon="103.334083">
<time>2016-10-07T00:42:41Z</time></trkpt>
<trkpt lat="25.453868" lon="103.334034">
<time>2016-10-07T00:42:42Z</time></trkpt>
<trkpt lat="25.453698" lon="103.333964">
<time>2016-10-07T00:42:43Z</time></trkpt>
<trkpt lat="25.453518" lon="103.333884">
<time>2016-10-07T00:42:44Z</time></trkpt>
<trkpt lat="25.453288" lon="103.333804">
<time>2016-10-07T00:42:45Z</time></trkpt>
<trkpt lat="25.453078" lon="103.333705">
<time>2016-10-07T00:42:46Z</time></trkpt>
<trkpt lat="25.452878" lon="103.333595">
<time>2016-10-07T00:42:47Z</time></trkpt>
<trkpt lat="25.452768" lon="103.333525">
<time>2016-10-07T00:42:48Z</time></trkpt>
<trkpt lat="25.452688" lon="103.333445">
<time>2016-10-07T00:42:49Z</time></trkpt>
<trkpt lat="25.452579" lon="103.333346">
<time>2016-10-07T00:42:50Z</time></trkpt>
<trkpt lat="25.452509" lon="103.333276">
<time>2016-10-07T00:42:51Z</time></trkpt>
<trkpt lat="25.452419" lon="103.333176">
<time>2016-10-07T00:42:52Z</time></trkpt>
<trkpt lat="25.452319" lon="103.333056">
<time>2016-10-07T00:42:53Z</time></trkpt>
<trkpt lat="25.452119" lon="103.332817">
<time>2016-10-07T00:42:54Z</time></trkpt>
<trkpt lat="25.45201" lon="103.332697">
<time>2016-10-07T00:42:55Z</time></trkpt>
<trkpt lat="25.45179" lon="103.332448">
<time>2016-10-07T00:42:56Z</time></trkpt>
<trkpt lat="25.451571" lon="103.332169">
<time>2016-10-07T00:42:57Z</time></trkpt>
<trkpt lat="25.451441" lon="103.331999">
<time>2016-10-07T00:42:58Z</time></trkpt>
<trkpt lat="25.451331" lon="103.33187">
<time>2016-10-07T00:42:59Z</time></trkpt>
<trkpt lat="25.451241" lon="103.33176">
<time>2016-10-07T00:43:00Z</time></trkpt>
<trkpt lat="25.451151" lon="103.33165">
<time>2016-10-07T00:43:01Z</time></trkpt>
<trkpt lat="25.451022" lon="103.33151">
<time>2016-10-07T00:43:02Z</time></trkpt>
<trkpt lat="25.450872" lon="103.331351">
<time>2016-10-07T00:43:03Z</time></trkpt>
<trkpt lat="25.450722" lon="103.331161">
<time>2016-10-07T00:43:04Z</time></trkpt>
<trkpt lat="25.450523" lon="103.330892">
<time>2016-10-07T00:43:05Z</time></trkpt>
<trkpt lat="25.450333" lon="103.330683">
<time>2016-10-07T00:43:06Z</time></trkpt>
<trkpt lat="25.450213" lon="103.330523">
<time>2016-10-07T00:43:07Z</time></trkpt>
<trkpt lat="25.450114" lon="103.330384">
<time>2016-10-07T00:43:08Z</time></trkpt>
<trkpt lat="25.450054" lon="103.330284">
<time>2016-10-07T00:43:09Z</time></trkpt>
<trkpt lat="25.450014" lon="103.330184">
<time>2016-10-07T00:43:10Z</time></trkpt>
<trkpt lat="25.449964" lon="103.330084">
<time>2016-10-07T00:43:11Z</time></trkpt>
<trkpt lat="25.449914" lon="103.329985">
<time>2016-10-07T00:43:12Z</time></trkpt>
<trkpt lat="25.449795" lon="103.329715">
<time>2016-10-07T00:43:13Z</time></trkpt>
<trkpt lat="25.449715" lon="103.329536">
<time>2016-10-07T00:43:14Z</time></trkpt>
<trkpt lat="25.449665" lon="103.329416">
<time>2016-10-07T00:43:15Z</time></trkpt>
<trkpt lat="25.449606" lon="103.329277">
<time>2016-10-07T00:43:16Z</time></trkpt>
<trkpt lat="25.449546" lon="103.329157">
<time>2016-10-07T00:43:17Z</time></trkpt>
<trkpt lat="25.449476" lon="103.329017">
<time>2016-10-07T00:43:18Z</time></trkpt>
<trkpt lat="25.449436" lon="103.328927">
<time>2016-10-07T00:43:19Z</time></trkpt>
<trkpt lat="25.449337" lon="103.328738">
<time>2016-10-07T00:43:20Z</time></trkpt>
<trkpt lat="25.449137" lon="103.328349">
<time>2016-10-07T00:43:21Z</time></trkpt>
<trkpt lat="25.449067" lon="103.328189">
<time>2016-10-07T00:43:22Z</time></trkpt>
<trkpt lat="25.448948" lon="103.32792">
<time>2016-10-07T00:43:23Z</time></trkpt>
<trkpt lat="25.448819" lon="103.327621">
<time>2016-10-07T00:43:24Z</time></trkpt>
<trkpt lat="25.448739" lon="103.327461">
<time>2016-10-07T00:43:25Z</time></trkpt>
<trkpt lat="25.448689" lon="103.327342">
<time>2016-10-07T00:43:26Z</time></trkpt>
<trkpt lat="25.448609" lon="103.327172">
<time>2016-10-07T00:43:27Z</time></trkpt>
<trkpt lat="25.44856" lon="103.327053">
<time>2016-10-07T00:43:28Z</time></trkpt>
<trkpt lat="25.44849" lon="103.326893">
<time>2016-10-07T00:43:29Z</time></trkpt>
<trkpt lat="25.44846" lon="103.326813">
<time>2016-10-07T00:43:30Z</time></trkpt>
<trkpt lat="25.44839" lon="103.326654">
<time>2016-10-07T00:43:31Z</time></trkpt>
<trkpt lat="25.44835" lon="103.326564">
<time>2016-10-07T00:43:32Z</time></trkpt>
<trkpt lat="25.448281" lon="103.326384">
<time>2016-10-07T00:43:33Z</time></trkpt>
<trkpt lat="25.448231" lon="103.326265">
<time>2016-10-07T00:43:34Z</time></trkpt>
<trkpt lat="25.448181" lon="103.326145">
<time>2016-10-07T00:43:35Z</time></trkpt>
<trkpt lat="25.448121" lon="103.326015">
<time>2016-10-07T00:43:36Z</time></trkpt>
<trkpt lat="25.448042" lon="103.325826">
<time>2016-10-07T00:43:37Z</time></trkpt>
<trkpt lat="25.447972" lon="103.325636">
<time>2016-10-07T00:43:38Z</time></trkpt>
<trkpt lat="25.447932" lon="103.325517">
<time>2016-10-07T00:43:39Z</time></trkpt>
<trkpt lat="25.447873" lon="103.325327">
<time>2016-10-07T00:43:40Z</time></trkpt>
<trkpt lat="25.447783" lon="103.325008">
<time>2016-10-07T00:43:41Z</time></trkpt>
<trkpt lat="25.447724" lon="103.324749">
<time>2016-10-07T00:43:42Z</time></trkpt>
<trkpt lat="25.447704" lon="103.324639">
<time>2016-10-07T00:43:43Z</time></trkpt>
<trkpt lat="25.447664" lon="103.324509">
<time>2016-10-07T00:43:44Z</time></trkpt>
<trkpt lat="25.447624" lon="103.32437">
<time>2016-10-07T00:43:45Z</time></trkpt>
<trkpt lat="25.447595" lon="103.32427">
<time>2016-10-07T00:43:46Z</time></trkpt>
<trkpt lat="25.447565" lon="103.32417">
<time>2016-10-07T00:43:47Z</time></trkpt>
<trkpt lat="25.447545" lon="103.324131">
<time>2016-10-07T00:43:48Z</time></trkpt>
<trkpt lat="25.447515" lon="103.324061">
<time>2016-10-07T00:43:49Z</time></trkpt>
<trkpt lat="25.447475" lon="103.323991">
<time>2016-10-07T00:43:50Z</time></trkpt>
<trkpt lat="25.447425" lon="103.323941">
<time>2016-10-07T00:43:51Z</time></trkpt>
<trkpt lat="25.447375" lon="103.323901">
<time>2016-10-07T00:43:52Z</time></trkpt>
<trkpt lat="25.447335" lon="103.323861">
<time>2016-10-07T00:43:53Z</time></trkpt>
<trkpt lat="25.447255" lon="103.323811">
<time>2016-10-07T00:43:54Z</time></trkpt>
<trkpt lat="25.447195" lon="103.323771">
<time>2016-10-07T00:43:55Z</time></trkpt>
<trkpt lat="25.447126" lon="103.323732">
<time>2016-10-07T00:43:56Z</time></trkpt>
<trkpt lat="25.447066" lon="103.323702">
<time>2016-10-07T00:43:57Z</time></trkpt>
<trkpt lat="25.447016" lon="103.323672">
<time>2016-10-07T00:43:58Z</time></trkpt>
<trkpt lat="25.446966" lon="103.323632">
<time>2016-10-07T00:43:59Z</time></trkpt>
<trkpt lat="25.446926" lon="103.323582">
<time>2016-10-07T00:44:00Z</time></trkpt>
<trkpt lat="25.446896" lon="103.323532">
<time>2016-10-07T00:44:01Z</time></trkpt>
<trkpt lat="25.446866" lon="103.323452">
<time>2016-10-07T00:44:02Z</time></trkpt>
<trkpt lat="25.446836" lon="103.323343">
<time>2016-10-07T00:44:03Z</time></trkpt>
<trkpt lat="25.446786" lon="103.323223">
<time>2016-10-07T00:44:04Z</time></trkpt>
<trkpt lat="25.446747" lon="103.323113">
<time>2016-10-07T00:44:05Z</time></trkpt>
<trkpt lat="25.446707" lon="103.323014">
<time>2016-10-07T00:44:06Z</time></trkpt>
<trkpt lat="25.446677" lon="103.322944">
<time>2016-10-07T00:44:07Z</time></trkpt>
<trkpt lat="25.446617" lon="103.322824">
<time>2016-10-07T00:44:08Z</time></trkpt>
<trkpt lat="25.446587" lon="103.322784">
<time>2016-10-07T00:44:09Z</time></trkpt>
<trkpt lat="25.446457" lon="103.322635">
<time>2016-10-07T00:44:10Z</time></trkpt>
<trkpt lat="25.446388" lon="103.322545">
<time>2016-10-07T00:44:11Z</time></trkpt>
<trkpt lat="25.446338" lon="103.322485">
<time>2016-10-07T00:44:12Z</time></trkpt>
<trkpt lat="25.446298" lon="103.322415">
<time>2016-10-07T00:44:13Z</time></trkpt>
<trkpt lat="25.446248" lon="103.322315">
<time>2016-10-07T00:44:14Z</time></trkpt>
<trkpt lat="25.446208" lon="103.322166">
<time>2016-10-07T00:44:15Z</time></trkpt>
<trkpt lat="25.446189" lon="103.322026">
<time>2016-10-07T00:44:16Z</time></trkpt>
<trkpt lat="25.446179" lon="103.321887">
<time>2016-10-07T00:44:17Z</time></trkpt>
<trkpt lat="25.446189" lon="103.321727">
<time>2016-10-07T00:44:18Z</time></trkpt>
<trkpt lat="25.44622" lon="103.321458">
<time>2016-10-07T00:44:19Z</time></trkpt>
<trkpt lat="25.44622" lon="103.321268">
<time>2016-10-07T00:44:20Z</time></trkpt>
<trkpt lat="25.446201" lon="103.320919">
<time>2016-10-07T00:44:21Z</time></trkpt>
<trkpt lat="25.446182" lon="103.320351">
<time>2016-10-07T00:44:22Z</time></trkpt>
<trkpt lat="25.446173" lon="103.319942">
<time>2016-10-07T00:44:23Z</time></trkpt>
<trkpt lat="25.446153" lon="103.319533">
<time>2016-10-07T00:44:24Z</time></trkpt>
<trkpt lat="25.446124" lon="103.319064">
<time>2016-10-07T00:44:25Z</time></trkpt>
<trkpt lat="25.446095" lon="103.318536">
<time>2016-10-07T00:44:26Z</time></trkpt>
<trkpt lat="25.446076" lon="103.318236">
<time>2016-10-07T00:44:27Z</time></trkpt>
<trkpt lat="25.446056" lon="103.317838">
<time>2016-10-07T00:44:28Z</time></trkpt>
<trkpt lat="25.446057" lon="103.317658">
<time>2016-10-07T00:44:29Z</time></trkpt>
<trkpt lat="25.446047" lon="103.317419">
<time>2016-10-07T00:44:30Z</time></trkpt>
<trkpt lat="25.446048" lon="103.317209">
<time>2016-10-07T00:44:31Z</time></trkpt>
<trkpt lat="25.446018" lon="103.317">
<time>2016-10-07T00:44:32Z</time></trkpt>
<trkpt lat="25.445968" lon="103.31681">
<time>2016-10-07T00:44:33Z</time></trkpt>
<trkpt lat="25.445879" lon="103.316501">
<time>2016-10-07T00:44:34Z</time></trkpt>
<trkpt lat="25.445769" lon="103.316242">
<time>2016-10-07T00:44:35Z</time></trkpt>
<trkpt lat="25.44567" lon="103.316012">
<time>2016-10-07T00:44:36Z</time></trkpt>
<trkpt lat="25.44557" lon="103.315773">
<time>2016-10-07T00:44:37Z</time></trkpt>
<trkpt lat="25.44552" lon="103.315633">
<time>2016-10-07T00:44:38Z</time></trkpt>
<trkpt lat="25.445411" lon="103.315424">
<time>2016-10-07T00:44:39Z</time></trkpt>
<trkpt lat="25.445251" lon="103.315155">
<time>2016-10-07T00:44:40Z</time></trkpt>
<trkpt lat="25.445052" lon="103.314885">
<time>2016-10-07T00:44:41Z</time></trkpt>
<trkpt lat="25.444832" lon="103.314596">
<time>2016-10-07T00:44:42Z</time></trkpt>
<trkpt lat="25.444653" lon="103.314327">
<time>2016-10-07T00:44:43Z</time></trkpt>
<trkpt lat="25.444533" lon="103.314137">
<time>2016-10-07T00:44:44Z</time></trkpt>
<trkpt lat="25.444393" lon="103.313928">
<time>2016-10-07T00:44:45Z</time></trkpt>
<trkpt lat="25.444254" lon="103.313729">
<time>2016-10-07T00:44:46Z</time></trkpt>
<trkpt lat="25.444194" lon="103.313649">
<time>2016-10-07T00:44:47Z</time></trkpt>
<trkpt lat="25.444134" lon="103.313579">
<time>2016-10-07T00:44:48Z</time></trkpt>
<trkpt lat="25.444084" lon="103.313529">
<time>2016-10-07T00:44:49Z</time></trkpt>
<trkpt lat="25.444024" lon="103.313489">
<time>2016-10-07T00:44:50Z</time></trkpt>
<trkpt lat="25.443954" lon="103.313449">
<time>2016-10-07T00:44:51Z</time></trkpt>
<trkpt lat="25.443914" lon="103.313429">
<time>2016-10-07T00:44:52Z</time></trkpt>
<trkpt lat="25.443864" lon="103.313409">
<time>2016-10-07T00:44:53Z</time></trkpt>
<trkpt lat="25.443804" lon="103.313399">
<time>2016-10-07T00:44:54Z</time></trkpt>
<trkpt lat="25.443734" lon="103.313389">
<time>2016-10-07T00:44:55Z</time></trkpt>
<trkpt lat="25.443684" lon="103.313389">
<time>2016-10-07T00:44:56Z</time></trkpt>
<trkpt lat="25.443634" lon="103.313399">
<time>2016-10-07T00:44:57Z</time></trkpt>
<trkpt lat="25.443594" lon="103.313409">
<time>2016-10-07T00:44:58Z</time></trkpt>
<trkpt lat="25.443534" lon="103.313429">
<time>2016-10-07T00:44:59Z</time></trkpt>
<trkpt lat="25.443444" lon="103.313469">
<time>2016-10-07T00:45:00Z</time></trkpt>
<trkpt lat="25.443364" lon="103.313519">
<time>2016-10-07T00:45:01Z</time></trkpt>
<trkpt lat="25.443174" lon="103.313679">
<time>2016-10-07T00:45:02Z</time></trkpt>
<trkpt lat="25.442993" lon="103.313838">
<time>2016-10-07T00:45:03Z</time></trkpt>
<trkpt lat="25.442963" lon="103.313858">
<time>2016-10-07T00:45:04Z</time></trkpt>
<trkpt lat="25.442853" lon="103.313948">
<time>2016-10-07T00:45:05Z</time></trkpt>
<trkpt lat="25.442653" lon="103.314128">
<time>2016-10-07T00:45:06Z</time></trkpt>
<trkpt lat="25.442272" lon="103.314427">
<time>2016-10-07T00:45:07Z</time></trkpt>
<trkpt lat="25.442132" lon="103.314536">
<time>2016-10-07T00:45:08Z</time></trkpt>
<trkpt lat="25.441971" lon="103.314666">
<time>2016-10-07T00:45:09Z</time></trkpt>
<trkpt lat="25.441891" lon="103.314736">
<time>2016-10-07T00:45:10Z</time></trkpt>
<trkpt lat="25.441831" lon="103.314786">
<time>2016-10-07T00:45:11Z</time></trkpt>
<trkpt lat="25.441691" lon="103.314866">
<time>2016-10-07T00:45:12Z</time></trkpt>
<trkpt lat="25.441581" lon="103.314925">
<time>2016-10-07T00:45:13Z</time></trkpt>
<trkpt lat="25.441451" lon="103.314965">
<time>2016-10-07T00:45:14Z</time></trkpt>
<trkpt lat="25.441291" lon="103.314995">
<time>2016-10-07T00:45:15Z</time></trkpt>
<trkpt lat="25.440881" lon="103.315005">
<time>2016-10-07T00:45:16Z</time></trkpt>
<trkpt lat="25.44054" lon="103.315005">
<time>2016-10-07T00:45:17Z</time></trkpt>
<trkpt lat="25.44034" lon="103.315005">
<time>2016-10-07T00:45:18Z</time></trkpt>
<trkpt lat="25.44012" lon="103.314985">
<time>2016-10-07T00:45:19Z</time></trkpt>
<trkpt lat="25.43994" lon="103.314955">
<time>2016-10-07T00:45:20Z</time></trkpt>
<trkpt lat="25.43985" lon="103.314926">
<time>2016-10-07T00:45:21Z</time></trkpt>
<trkpt lat="25.43974" lon="103.314886">
<time>2016-10-07T00:45:22Z</time></trkpt>
<trkpt lat="25.439651" lon="103.314846">
<time>2016-10-07T00:45:23Z</time></trkpt>
<trkpt lat="25.439541" lon="103.314796">
<time>2016-10-07T00:45:24Z</time></trkpt>
<trkpt lat="25.439311" lon="103.314646">
<time>2016-10-07T00:45:25Z</time></trkpt>
<trkpt lat="25.438981" lon="103.314427">
<time>2016-10-07T00:45:26Z</time></trkpt>
<trkpt lat="25.438662" lon="103.314188">
<time>2016-10-07T00:45:27Z</time></trkpt>
<trkpt lat="25.438462" lon="103.314048">
<time>2016-10-07T00:45:28Z</time></trkpt>
<trkpt lat="25.438352" lon="103.313968">
<time>2016-10-07T00:45:29Z</time></trkpt>
<trkpt lat="25.438142" lon="103.313809">
<time>2016-10-07T00:45:30Z</time></trkpt>
<trkpt lat="25.437922" lon="103.313669">
<time>2016-10-07T00:45:31Z</time></trkpt>
<trkpt lat="25.437723" lon="103.313529">
<time>2016-10-07T00:45:32Z</time></trkpt>
<trkpt lat="25.437523" lon="103.31339">
<time>2016-10-07T00:45:33Z</time></trkpt>
<trkpt lat="25.437403" lon="103.31331">
<time>2016-10-07T00:45:34Z</time></trkpt>
<trkpt lat="25.437193" lon="103.31315">
<time>2016-10-07T00:45:35Z</time></trkpt>
<trkpt lat="25.436983" lon="103.313011">
<time>2016-10-07T00:45:36Z</time></trkpt>
<trkpt lat="25.436843" lon="103.312911">
<time>2016-10-07T00:45:37Z</time></trkpt>
<trkpt lat="25.436634" lon="103.312781">
<time>2016-10-07T00:45:38Z</time></trkpt>
<trkpt lat="25.436434" lon="103.312652">
<time>2016-10-07T00:45:39Z</time></trkpt>
<trkpt lat="25.436204" lon="103.312532">
<time>2016-10-07T00:45:40Z</time></trkpt>
<trkpt lat="25.436004" lon="103.312432">
<time>2016-10-07T00:45:41Z</time></trkpt>
<trkpt lat="25.435794" lon="103.312362">
<time>2016-10-07T00:45:42Z</time></trkpt>
<trkpt lat="25.435694" lon="103.312333">
<time>2016-10-07T00:45:43Z</time></trkpt>
<trkpt lat="25.435584" lon="103.312313">
<time>2016-10-07T00:45:44Z</time></trkpt>
<trkpt lat="25.435474" lon="103.312283">
<time>2016-10-07T00:45:45Z</time></trkpt>
<trkpt lat="25.435354" lon="103.312263">
<time>2016-10-07T00:45:46Z</time></trkpt>
<trkpt lat="25.435254" lon="103.312243">
<time>2016-10-07T00:45:47Z</time></trkpt>
<trkpt lat="25.435114" lon="103.312213">
<time>2016-10-07T00:45:48Z</time></trkpt>
<trkpt lat="25.434914" lon="103.312163">
<time>2016-10-07T00:45:49Z</time></trkpt>
<trkpt lat="25.434725" lon="103.312083">
<time>2016-10-07T00:45:50Z</time></trkpt>
<trkpt lat="25.434595" lon="103.311993">
<time>2016-10-07T00:45:51Z</time></trkpt>
<trkpt lat="25.434365" lon="103.311804">
<time>2016-10-07T00:45:52Z</time></trkpt>
<trkpt lat="25.434315" lon="103.311754">
<time>2016-10-07T00:45:53Z</time></trkpt>
<trkpt lat="25.434275" lon="103.311724">
<time>2016-10-07T00:45:54Z</time></trkpt>
<trkpt lat="25.434245" lon="103.311704">
<time>2016-10-07T00:45:55Z</time></trkpt>
<trkpt lat="25.434175" lon="103.311674">
<time>2016-10-07T00:45:56Z</time></trkpt>
<trkpt lat="25.434125" lon="103.311654">
<time>2016-10-07T00:45:57Z</time></trkpt>
<trkpt lat="25.434065" lon="103.311634">
<time>2016-10-07T00:45:58Z</time></trkpt>
<trkpt lat="25.434005" lon="103.311624">
<time>2016-10-07T00:45:59Z</time></trkpt>
<trkpt lat="25.433905" lon="103.311614">
<time>2016-10-07T00:46:00Z</time></trkpt>
<trkpt lat="25.433795" lon="103.311614">
<time>2016-10-07T00:46:01Z</time></trkpt>
<trkpt lat="25.433675" lon="103.311614">
<time>2016-10-07T00:46:02Z</time></trkpt>
<trkpt lat="25.433585" lon="103.311614">
<time>2016-10-07T00:46:03Z</time></trkpt>
<trkpt lat="25.433485" lon="103.311604">
<time>2016-10-07T00:46:04Z</time></trkpt>
<trkpt lat="25.433385" lon="103.311575">
<time>2016-10-07T00:46:05Z</time></trkpt>
<trkpt lat="25.433175" lon="103.311485">
<time>2016-10-07T00:46:06Z</time></trkpt>
<trkpt lat="25.432975" lon="103.311385">
<time>2016-10-07T00:46:07Z</time></trkpt>
<trkpt lat="25.432806" lon="103.311255">
<time>2016-10-07T00:46:08Z</time></trkpt>
<trkpt lat="25.432726" lon="103.311186">
<time>2016-10-07T00:46:09Z</time></trkpt>
<trkpt lat="25.432636" lon="103.311096">
<time>2016-10-07T00:46:10Z</time></trkpt>
<trkpt lat="25.432516" lon="103.310916">
<time>2016-10-07T00:46:11Z</time></trkpt>
<trkpt lat="25.432347" lon="103.310687">
<time>2016-10-07T00:46:12Z</time></trkpt>
<trkpt lat="25.432247" lon="103.310537">
<time>2016-10-07T00:46:13Z</time></trkpt>
<trkpt lat="25.432207" lon="103.310477">
<time>2016-10-07T00:46:14Z</time></trkpt>
<trkpt lat="25.432097" lon="103.310318">
<time>2016-10-07T00:46:15Z</time></trkpt>
<trkpt lat="25.431997" lon="103.310208">
<time>2016-10-07T00:46:16Z</time></trkpt>
<trkpt lat="25.431907" lon="103.310098">
<time>2016-10-07T00:46:17Z</time></trkpt>
<trkpt lat="25.431858" lon="103.310049">
<time>2016-10-07T00:46:18Z</time></trkpt>
<trkpt lat="25.431848" lon="103.310049">
<time>2016-10-07T00:46:19Z</time></trkpt>
<trkpt lat="25.431748" lon="103.309949">
<time>2016-10-07T00:46:20Z</time></trkpt>
<trkpt lat="25.431648" lon="103.309859">
<time>2016-10-07T00:46:21Z</time></trkpt>
<trkpt lat="25.431538" lon="103.309749">
<time>2016-10-07T00:46:22Z</time></trkpt>
<trkpt lat="25.431438" lon="103.30966">
<time>2016-10-07T00:46:23Z</time></trkpt>
<trkpt lat="25.431368" lon="103.30959">
<time>2016-10-07T00:46:24Z</time></trkpt>
<trkpt lat="25.431298" lon="103.30952">
<time>2016-10-07T00:46:25Z</time></trkpt>
<trkpt lat="25.431189" lon="103.30941">
<time>2016-10-07T00:46:26Z</time></trkpt>
<trkpt lat="25.431099" lon="103.309331">
<time>2016-10-07T00:46:27Z</time></trkpt>
<trkpt lat="25.431039" lon="103.309271">
<time>2016-10-07T00:46:28Z</time></trkpt>
<trkpt lat="25.430969" lon="103.309211">
<time>2016-10-07T00:46:29Z</time></trkpt>
<trkpt lat="25.430839" lon="103.309091">
<time>2016-10-07T00:46:30Z</time></trkpt>
<trkpt lat="25.430739" lon="103.308952">
<time>2016-10-07T00:46:31Z</time></trkpt>
<trkpt lat="25.43064" lon="103.308802">
<time>2016-10-07T00:46:32Z</time></trkpt>
<trkpt lat="25.43057" lon="103.308682">
<time>2016-10-07T00:46:33Z</time></trkpt>
<trkpt lat="25.4305" lon="103.308533">
<time>2016-10-07T00:46:34Z</time></trkpt>
<trkpt lat="25.43045" lon="103.308383">
<time>2016-10-07T00:46:35Z</time></trkpt>
<trkpt lat="25.4304" lon="103.308243">
<time>2016-10-07T00:46:36Z</time></trkpt>
<trkpt lat="25.430381" lon="103.308134">
<time>2016-10-07T00:46:37Z</time></trkpt>
<trkpt lat="25.430351" lon="103.307954">
<time>2016-10-07T00:46:38Z</time></trkpt>
<trkpt lat="25.430331" lon="103.307785">
<time>2016-10-07T00:46:39Z</time></trkpt>
<trkpt lat="25.430292" lon="103.307605">
<time>2016-10-07T00:46:40Z</time></trkpt>
<trkpt lat="25.430252" lon="103.307406">
<time>2016-10-07T00:46:41Z</time></trkpt>
<trkpt lat="25.430192" lon="103.307226">
<time>2016-10-07T00:46:42Z</time></trkpt>
<trkpt lat="25.430153" lon="103.307076">
<time>2016-10-07T00:46:43Z</time></trkpt>
<trkpt lat="25.430103" lon="103.306937">
<time>2016-10-07T00:46:44Z</time></trkpt>
<trkpt lat="25.430053" lon="103.306807">
<time>2016-10-07T00:46:45Z</time></trkpt>
<trkpt lat="25.430013" lon="103.306697">
<time>2016-10-07T00:46:46Z</time></trkpt>
<trkpt lat="25.429953" lon="103.306608">
<time>2016-10-07T00:46:47Z</time></trkpt>
<trkpt lat="25.429913" lon="103.306538">
<time>2016-10-07T00:46:48Z</time></trkpt>
<trkpt lat="25.429893" lon="103.306508">
<time>2016-10-07T00:46:49Z</time></trkpt>
<trkpt lat="25.429834" lon="103.306428">
<time>2016-10-07T00:46:50Z</time></trkpt>
<trkpt lat="25.429774" lon="103.306368">
<time>2016-10-07T00:46:51Z</time></trkpt>
<trkpt lat="25.429664" lon="103.306258">
<time>2016-10-07T00:46:52Z</time></trkpt>
<trkpt lat="25.429544" lon="103.306119">
<time>2016-10-07T00:46:53Z</time></trkpt>
<trkpt lat="25.429444" lon="103.305969">
<time>2016-10-07T00:46:54Z</time></trkpt>
<trkpt lat="25.429325" lon="103.30578">
<time>2016-10-07T00:46:55Z</time></trkpt>
<trkpt lat="25.429225" lon="103.30563">
<time>2016-10-07T00:46:56Z</time></trkpt>
<trkpt lat="25.429175" lon="103.30555">
<time>2016-10-07T00:46:57Z</time></trkpt>
<trkpt lat="25.429085" lon="103.305391">
<time>2016-10-07T00:46:58Z</time></trkpt>
<trkpt lat="25.428966" lon="103.305201">
<time>2016-10-07T00:46:59Z</time></trkpt>
<trkpt lat="25.428866" lon="103.305022">
<time>2016-10-07T00:47:00Z</time></trkpt>
<trkpt lat="25.428776" lon="103.304872">
<time>2016-10-07T00:47:01Z</time></trkpt>
<trkpt lat="25.428666" lon="103.304712">
<time>2016-10-07T00:47:02Z</time></trkpt>
<trkpt lat="25.428567" lon="103.304573">
<time>2016-10-07T00:47:03Z</time></trkpt>
<trkpt lat="25.428457" lon="103.304413">
<time>2016-10-07T00:47:04Z</time></trkpt>
<trkpt lat="25.428377" lon="103.304284">
<time>2016-10-07T00:47:05Z</time></trkpt>
<trkpt lat="25.428337" lon="103.304214">
<time>2016-10-07T00:47:06Z</time></trkpt>
<trkpt lat="25.428267" lon="103.304024">
<time>2016-10-07T00:47:07Z</time></trkpt>
<trkpt lat="25.428238" lon="103.303934">
<time>2016-10-07T00:47:08Z</time></trkpt>
<trkpt lat="25.428178" lon="103.303765">
<time>2016-10-07T00:47:09Z</time></trkpt>
<trkpt lat="25.428138" lon="103.303595">
<time>2016-10-07T00:47:10Z</time></trkpt>
<trkpt lat="25.428098" lon="103.303476">
<time>2016-10-07T00:47:11Z</time></trkpt>
<trkpt lat="25.428069" lon="103.303366">
<time>2016-10-07T00:47:12Z</time></trkpt>
<trkpt lat="25.428049" lon="103.303296">
<time>2016-10-07T00:47:13Z</time></trkpt>
<trkpt lat="25.427999" lon="103.303166">
<time>2016-10-07T00:47:14Z</time></trkpt>
<trkpt lat="25.427929" lon="103.303047">
<time>2016-10-07T00:47:15Z</time></trkpt>
<trkpt lat="25.427879" lon="103.302987">
<time>2016-10-07T00:47:16Z</time></trkpt>
<trkpt lat="25.427749" lon="103.302887">
<time>2016-10-07T00:47:17Z</time></trkpt>
<trkpt lat="25.427619" lon="103.302807">
<time>2016-10-07T00:47:18Z</time></trkpt>
<trkpt lat="25.427459" lon="103.302737">
<time>2016-10-07T00:47:19Z</time></trkpt>
<trkpt lat="25.42729" lon="103.302658">
<time>2016-10-07T00:47:20Z</time></trkpt>
<trkpt lat="25.4271" lon="103.302548">
<time>2016-10-07T00:47:21Z</time></trkpt>
<trkpt lat="25.42699" lon="103.302448">
<time>2016-10-07T00:47:22Z</time></trkpt>
<trkpt lat="25.42689" lon="103.302348">
<time>2016-10-07T00:47:23Z</time></trkpt>
<trkpt lat="25.42679" lon="103.302239">
<time>2016-10-07T00:47:24Z</time></trkpt>
<trkpt lat="25.42668" lon="103.302099">
<time>2016-10-07T00:47:25Z</time></trkpt>
<trkpt lat="25.426481" lon="103.30184">
<time>2016-10-07T00:47:26Z</time></trkpt>
<trkpt lat="25.426331" lon="103.30166">
<time>2016-10-07T00:47:27Z</time></trkpt>
<trkpt lat="25.426181" lon="103.301481">
<time>2016-10-07T00:47:28Z</time></trkpt>
<trkpt lat="25.426002" lon="103.301331">
<time>2016-10-07T00:47:29Z</time></trkpt>
<trkpt lat="25.425792" lon="103.301221">
<time>2016-10-07T00:47:30Z</time></trkpt>
<trkpt lat="25.425542" lon="103.301141">
<time>2016-10-07T00:47:31Z</time></trkpt>
<trkpt lat="25.425212" lon="103.301032">
<time>2016-10-07T00:47:32Z</time></trkpt>
<trkpt lat="25.424992" lon="103.300962">
<time>2016-10-07T00:47:33Z</time></trkpt>
<trkpt lat="25.424842" lon="103.300912">
<time>2016-10-07T00:47:34Z</time></trkpt>
<trkpt lat="25.424632" lon="103.300842">
<time>2016-10-07T00:47:35Z</time></trkpt>
<trkpt lat="25.424352" lon="103.300742">
<time>2016-10-07T00:47:36Z</time></trkpt>
<trkpt lat="25.424132" lon="103.300663">
<time>2016-10-07T00:47:37Z</time></trkpt>
<trkpt lat="25.423932" lon="103.300593">
<time>2016-10-07T00:47:38Z</time></trkpt>
<trkpt lat="25.423722" lon="103.300513">
<time>2016-10-07T00:47:39Z</time></trkpt>
<trkpt lat="25.423502" lon="103.300433">
<time>2016-10-07T00:47:40Z</time></trkpt>
<trkpt lat="25.423303" lon="103.300353">
<time>2016-10-07T00:47:41Z</time></trkpt>
<trkpt lat="25.423173" lon="103.300314">
<time>2016-10-07T00:47:42Z</time></trkpt>
<trkpt lat="25.422953" lon="103.300224">
<time>2016-10-07T00:47:43Z</time></trkpt>
<trkpt lat="25.422783" lon="103.300144">
<time>2016-10-07T00:47:44Z</time></trkpt>
<trkpt lat="25.422703" lon="103.300114">
<time>2016-10-07T00:47:45Z</time></trkpt>
<trkpt lat="25.422643" lon="103.300074">
<time>2016-10-07T00:47:46Z</time></trkpt>
<trkpt lat="25.422583" lon="103.300024">
<time>2016-10-07T00:47:47Z</time></trkpt>
<trkpt lat="25.422513" lon="103.299984">
<time>2016-10-07T00:47:48Z</time></trkpt>
<trkpt lat="25.422433" lon="103.299895">
<time>2016-10-07T00:47:49Z</time></trkpt>
<trkpt lat="25.422423" lon="103.299895">
<time>2016-10-07T00:47:50Z</time></trkpt>
<trkpt lat="25.422383" lon="103.299845">
<time>2016-10-07T00:47:51Z</time></trkpt>
<trkpt lat="25.422293" lon="103.299735">
<time>2016-10-07T00:47:52Z</time></trkpt>
<trkpt lat="25.422184" lon="103.299555">
<time>2016-10-07T00:47:53Z</time></trkpt>
<trkpt lat="25.422074" lon="103.299356">
<time>2016-10-07T00:47:54Z</time></trkpt>
<trkpt lat="25.422014" lon="103.299246">
<time>2016-10-07T00:47:55Z</time></trkpt>
<trkpt lat="25.421924" lon="103.299126">
<time>2016-10-07T00:47:56Z</time></trkpt>
<trkpt lat="25.421854" lon="103.299037">
<time>2016-10-07T00:47:57Z</time></trkpt>
<trkpt lat="25.421794" lon="103.298977">
<time>2016-10-07T00:47:58Z</time></trkpt>
<trkpt lat="25.421715" lon="103.298907">
<time>2016-10-07T00:47:59Z</time></trkpt>
<trkpt lat="25.421565" lon="103.298787">
<time>2016-10-07T00:48:00Z</time></trkpt>
<trkpt lat="25.421295" lon="103.298578">
<time>2016-10-07T00:48:01Z</time></trkpt>
<trkpt lat="25.421085" lon="103.298438">
<time>2016-10-07T00:48:02Z</time></trkpt>
<trkpt lat="25.420915" lon="103.298298">
<time>2016-10-07T00:48:03Z</time></trkpt>
<trkpt lat="25.420706" lon="103.298149">
<time>2016-10-07T00:48:04Z</time></trkpt>
<trkpt lat="25.420596" lon="103.298059">
<time>2016-10-07T00:48:05Z</time></trkpt>
<trkpt lat="25.420476" lon="103.297979">
<time>2016-10-07T00:48:06Z</time></trkpt>
<trkpt lat="25.420376" lon="103.297899">
<time>2016-10-07T00:48:07Z</time></trkpt>
<trkpt lat="25.420186" lon="103.29776">
<time>2016-10-07T00:48:08Z</time></trkpt>
<trkpt lat="25.420006" lon="103.29761">
<time>2016-10-07T00:48:09Z</time></trkpt>
<trkpt lat="25.419847" lon="103.29748">
<time>2016-10-07T00:48:10Z</time></trkpt>
<trkpt lat="25.419707" lon="103.297361">
<time>2016-10-07T00:48:11Z</time></trkpt>
<trkpt lat="25.419607" lon="103.297251">
<time>2016-10-07T00:48:12Z</time></trkpt>
<trkpt lat="25.419497" lon="103.297101">
<time>2016-10-07T00:48:13Z</time></trkpt>
<trkpt lat="25.419377" lon="103.296932">
<time>2016-10-07T00:48:14Z</time></trkpt>
<trkpt lat="25.419228" lon="103.296702">
<time>2016-10-07T00:48:15Z</time></trkpt>
<trkpt lat="25.419088" lon="103.296523">
<time>2016-10-07T00:48:16Z</time></trkpt>
<trkpt lat="25.418998" lon="103.296403">
<time>2016-10-07T00:48:17Z</time></trkpt>
<trkpt lat="25.418898" lon="103.296293">
<time>2016-10-07T00:48:18Z</time></trkpt>
<trkpt lat="25.418798" lon="103.296194">
<time>2016-10-07T00:48:19Z</time></trkpt>
<trkpt lat="25.418728" lon="103.296124">
<time>2016-10-07T00:48:20Z</time></trkpt>
<trkpt lat="25.418619" lon="103.296034">
<time>2016-10-07T00:48:21Z</time></trkpt>
<trkpt lat="25.418589" lon="103.296004">
<time>2016-10-07T00:48:22Z</time></trkpt>
<trkpt lat="25.418529" lon="103.295954">
<time>2016-10-07T00:48:23Z</time></trkpt>
<trkpt lat="25.418419" lon="103.295864">
<time>2016-10-07T00:48:24Z</time></trkpt>
<trkpt lat="25.418329" lon="103.295785">
<time>2016-10-07T00:48:25Z</time></trkpt>
<trkpt lat="25.418199" lon="103.295685">
<time>2016-10-07T00:48:26Z</time></trkpt>
<trkpt lat="25.417879" lon="103.295425">
<time>2016-10-07T00:48:27Z</time></trkpt>
<trkpt lat="25.41766" lon="103.295236">
<time>2016-10-07T00:48:28Z</time></trkpt>
<trkpt lat="25.41749" lon="103.295106">
<time>2016-10-07T00:48:29Z</time></trkpt>
<trkpt lat="25.41735" lon="103.294976">
<time>2016-10-07T00:48:30Z</time></trkpt>
<trkpt lat="25.41712" lon="103.294787">
<time>2016-10-07T00:48:31Z</time></trkpt>
<trkpt lat="25.41694" lon="103.294637">
<time>2016-10-07T00:48:32Z</time></trkpt>
<trkpt lat="25.41681" lon="103.294537">
<time>2016-10-07T00:48:33Z</time></trkpt>
<trkpt lat="25.416741" lon="103.294478">
<time>2016-10-07T00:48:34Z</time></trkpt>
<trkpt lat="25.416681" lon="103.294418">
<time>2016-10-07T00:48:35Z</time></trkpt>
<trkpt lat="25.416671" lon="103.294418">
<time>2016-10-07T00:48:36Z</time></trkpt>
<trkpt lat="25.416661" lon="103.294408">
<time>2016-10-07T00:48:37Z</time></trkpt>
<trkpt lat="25.416641" lon="103.294388">
<time>2016-10-07T00:48:38Z</time></trkpt>
<trkpt lat="25.416631" lon="103.294378">
<time>2016-10-07T00:48:39Z</time></trkpt>
<trkpt lat="25.416611" lon="103.294358">
<time>2016-10-07T00:48:40Z</time></trkpt>
<trkpt lat="25.416581" lon="103.294338">
<time>2016-10-07T00:48:41Z</time></trkpt>
<trkpt lat="25.416531" lon="103.294298">
<time>2016-10-07T00:48:42Z</time></trkpt>
<trkpt lat="25.416491" lon="103.294258">
<time>2016-10-07T00:48:43Z</time></trkpt>
<trkpt lat="25.416431" lon="103.294208">
<time>2016-10-07T00:48:44Z</time></trkpt>
<trkpt lat="25.416371" lon="103.294168">
<time>2016-10-07T00:48:45Z</time></trkpt>
<trkpt lat="25.416291" lon="103.294099">
<time>2016-10-07T00:48:46Z</time></trkpt>
<trkpt lat="25.416221" lon="103.294039">
<time>2016-10-07T00:48:47Z</time></trkpt>
<trkpt lat="25.416121" lon="103.293959">
<time>2016-10-07T00:48:48Z</time></trkpt>
<trkpt lat="25.416001" lon="103.293849">
<time>2016-10-07T00:48:49Z</time></trkpt>
<trkpt lat="25.415891" lon="103.293759">
<time>2016-10-07T00:48:50Z</time></trkpt>
<trkpt lat="25.415812" lon="103.293689">
<time>2016-10-07T00:48:51Z</time></trkpt>
<trkpt lat="25.415682" lon="103.29358">
<time>2016-10-07T00:48:52Z</time></trkpt>
<trkpt lat="25.415572" lon="103.29349">
<time>2016-10-07T00:48:53Z</time></trkpt>
<trkpt lat="25.415492" lon="103.29343">
<time>2016-10-07T00:48:54Z</time></trkpt>
<trkpt lat="25.415402" lon="103.29335">
<time>2016-10-07T00:48:55Z</time></trkpt>
<trkpt lat="25.415372" lon="103.29332">
<time>2016-10-07T00:48:56Z</time></trkpt>
<trkpt lat="25.415332" lon="103.29329">
<time>2016-10-07T00:48:57Z</time></trkpt>
<trkpt lat="25.415302" lon="103.29327">
<time>2016-10-07T00:48:58Z</time></trkpt>
<trkpt lat="25.415232" lon="103.293211">
<time>2016-10-07T00:48:59Z</time></trkpt>
<trkpt lat="25.415102" lon="103.293101">
<time>2016-10-07T00:49:00Z</time></trkpt>
<trkpt lat="25.414992" lon="103.293011">
<time>2016-10-07T00:49:01Z</time></trkpt>
<trkpt lat="25.414893" lon="103.292921">
<time>2016-10-07T00:49:02Z</time></trkpt>
<trkpt lat="25.414743" lon="103.292802">
<time>2016-10-07T00:49:03Z</time></trkpt>
<trkpt lat="25.414633" lon="103.292702">
<time>2016-10-07T00:49:04Z</time></trkpt>
<trkpt lat="25.414553" lon="103.292642">
<time>2016-10-07T00:49:05Z</time></trkpt>
<trkpt lat="25.414513" lon="103.292612">
<time>2016-10-07T00:49:06Z</time></trkpt>
<trkpt lat="25.414373" lon="103.292492">
<time>2016-10-07T00:49:07Z</time></trkpt>
<trkpt lat="25.414293" lon="103.292432">
<time>2016-10-07T00:49:08Z</time></trkpt>
<trkpt lat="25.414113" lon="103.292283">
<time>2016-10-07T00:49:09Z</time></trkpt>
<trkpt lat="25.413904" lon="103.292103">
<time>2016-10-07T00:49:10Z</time></trkpt>
<trkpt lat="25.413804" lon="103.292013">
<time>2016-10-07T00:49:11Z</time></trkpt>
<trkpt lat="25.413714" lon="103.291943">
<time>2016-10-07T00:49:12Z</time></trkpt>
<trkpt lat="25.413654" lon="103.291884">
<time>2016-10-07T00:49:13Z</time></trkpt>
<trkpt lat="25.413564" lon="103.291804">
<time>2016-10-07T00:49:14Z</time></trkpt>
<trkpt lat="25.413424" lon="103.291684">
<time>2016-10-07T00:49:15Z</time></trkpt>
<trkpt lat="25.413244" lon="103.291534">
<time>2016-10-07T00:49:16Z</time></trkpt>
<trkpt lat="25.412965" lon="103.291315">
<time>2016-10-07T00:49:17Z</time></trkpt>
<trkpt lat="25.412875" lon="103.291245">
<time>2016-10-07T00:49:18Z</time></trkpt>
<trkpt lat="25.412585" lon="103.291016">
<time>2016-10-07T00:49:19Z</time></trkpt>
<trkpt lat="25.412075" lon="103.290587">
<time>2016-10-07T00:49:20Z</time></trkpt>
<trkpt lat="25.411766" lon="103.290327">
<time>2016-10-07T00:49:21Z</time></trkpt>
<trkpt lat="25.411406" lon="103.290008">
<time>2016-10-07T00:49:22Z</time></trkpt>
<trkpt lat="25.411266" lon="103.289878">
<time>2016-10-07T00:49:23Z</time></trkpt>
<trkpt lat="25.410977" lon="103.289579">
<time>2016-10-07T00:49:24Z</time></trkpt>
<trkpt lat="25.410687" lon="103.289269">
<time>2016-10-07T00:49:25Z</time></trkpt>
<trkpt lat="25.410537" lon="103.28911">
<time>2016-10-07T00:49:26Z</time></trkpt>
<trkpt lat="25.410427" lon="103.28902">
<time>2016-10-07T00:49:27Z</time></trkpt>
<trkpt lat="25.410347" lon="103.28896">
<time>2016-10-07T00:49:28Z</time></trkpt>
<trkpt lat="25.410307" lon="103.28892">
<time>2016-10-07T00:49:29Z</time></trkpt>
<trkpt lat="25.410237" lon="103.28888">
<time>2016-10-07T00:49:30Z</time></trkpt>
<trkpt lat="25.410187" lon="103.28884">
<time>2016-10-07T00:49:31Z</time></trkpt>
<trkpt lat="25.410118" lon="103.288791">
<time>2016-10-07T00:49:32Z</time></trkpt>
<trkpt lat="25.409948" lon="103.288671">
<time>2016-10-07T00:49:33Z</time></trkpt>
<trkpt lat="25.409788" lon="103.288551">
<time>2016-10-07T00:49:34Z</time></trkpt>
<trkpt lat="25.409608" lon="103.288401">
<time>2016-10-07T00:49:35Z</time></trkpt>
<trkpt lat="25.409438" lon="103.288272">
<time>2016-10-07T00:49:36Z</time></trkpt>
<trkpt lat="25.409368" lon="103.288202">
<time>2016-10-07T00:49:37Z</time></trkpt>
<trkpt lat="25.409248" lon="103.288112">
<time>2016-10-07T00:49:38Z</time></trkpt>
<trkpt lat="25.409148" lon="103.288012">
<time>2016-10-07T00:49:39Z</time></trkpt>
<trkpt lat="25.408909" lon="103.287773">
<time>2016-10-07T00:49:40Z</time></trkpt>
<trkpt lat="25.408339" lon="103.287234">
<time>2016-10-07T00:49:41Z</time></trkpt>
<trkpt lat="25.40796" lon="103.286855">
<time>2016-10-07T00:49:42Z</time></trkpt>
<trkpt lat="25.4078" lon="103.286725">
<time>2016-10-07T00:49:43Z</time></trkpt>
<trkpt lat="25.40765" lon="103.286605">
<time>2016-10-07T00:49:44Z</time></trkpt>
<trkpt lat="25.40751" lon="103.286505">
<time>2016-10-07T00:49:45Z</time></trkpt>
<trkpt lat="25.40729" lon="103.286356">
<time>2016-10-07T00:49:46Z</time></trkpt>
<trkpt lat="25.40699" lon="103.286176">
<time>2016-10-07T00:49:47Z</time></trkpt>
<trkpt lat="25.406691" lon="103.286027">
<time>2016-10-07T00:49:48Z</time></trkpt>
<trkpt lat="25.406271" lon="103.285847">
<time>2016-10-07T00:49:49Z</time></trkpt>
<trkpt lat="25.405931" lon="103.285677">
<time>2016-10-07T00:49:50Z</time></trkpt>
<trkpt lat="25.405481" lon="103.285438">
<time>2016-10-07T00:49:51Z</time></trkpt>
<trkpt lat="25.404731" lon="103.285069">
<time>2016-10-07T00:49:52Z</time></trkpt>
<trkpt lat="25.403772" lon="103.28461">
<time>2016-10-07T00:49:53Z</time></trkpt>
<trkpt lat="25.402672" lon="103.284091">
<time>2016-10-07T00:49:54Z</time></trkpt>
<trkpt lat="25.401953" lon="103.283741">
<time>2016-10-07T00:49:55Z</time></trkpt>
<trkpt lat="25.401793" lon="103.283681">
<time>2016-10-07T00:49:56Z</time></trkpt>
<trkpt lat="25.401343" lon="103.283562">
<time>2016-10-07T00:49:57Z</time></trkpt>
<trkpt lat="25.400293" lon="103.283302">
<time>2016-10-07T00:49:58Z</time></trkpt>
<trkpt lat="25.400153" lon="103.283262">
<time>2016-10-07T00:49:59Z</time></trkpt>
<trkpt lat="25.399483" lon="103.283053">
<time>2016-10-07T00:50:00Z</time></trkpt>
<trkpt lat="25.398903" lon="103.282833">
<time>2016-10-07T00:50:01Z</time></trkpt>
<trkpt lat="25.398403" lon="103.282634">
<time>2016-10-07T00:50:02Z</time></trkpt>
<trkpt lat="25.398013" lon="103.282474">
<time>2016-10-07T00:50:03Z</time></trkpt>
<trkpt lat="25.397534" lon="103.282294">
<time>2016-10-07T00:50:04Z</time></trkpt>
<trkpt lat="25.397194" lon="103.282155">
<time>2016-10-07T00:50:05Z</time></trkpt>
<trkpt lat="25.396734" lon="103.281955">
<time>2016-10-07T00:50:06Z</time></trkpt>
<trkpt lat="25.396314" lon="103.281785">
<time>2016-10-07T00:50:07Z</time></trkpt>
<trkpt lat="25.396124" lon="103.281726">
<time>2016-10-07T00:50:08Z</time></trkpt>
<trkpt lat="25.396014" lon="103.281686">
<time>2016-10-07T00:50:09Z</time></trkpt>
<trkpt lat="25.395884" lon="103.281656">
<time>2016-10-07T00:50:10Z</time></trkpt>
<trkpt lat="25.395754" lon="103.281626">
<time>2016-10-07T00:50:11Z</time></trkpt>
<trkpt lat="25.395674" lon="103.281606">
<time>2016-10-07T00:50:12Z</time></trkpt>
<trkpt lat="25.395374" lon="103.281596">
<time>2016-10-07T00:50:13Z</time></trkpt>
<trkpt lat="25.395334" lon="103.281596">
<time>2016-10-07T00:50:14Z</time></trkpt>
<trkpt lat="25.395004" lon="103.281596">
<time>2016-10-07T00:50:15Z</time></trkpt>
<trkpt lat="25.394564" lon="103.281616">
<time>2016-10-07T00:50:16Z</time></trkpt>
<trkpt lat="25.394304" lon="103.281636">
<time>2016-10-07T00:50:17Z</time></trkpt>
<trkpt lat="25.394204" lon="103.281646">
<time>2016-10-07T00:50:18Z</time></trkpt>
<trkpt lat="25.394054" lon="103.281626">
<time>2016-10-07T00:50:19Z</time></trkpt>
<trkpt lat="25.393904" lon="103.281616">
<time>2016-10-07T00:50:20Z</time></trkpt>
<trkpt lat="25.393754" lon="103.281576">
<time>2016-10-07T00:50:21Z</time></trkpt>
<trkpt lat="25.393614" lon="103.281546">
<time>2016-10-07T00:50:22Z</time></trkpt>
<trkpt lat="25.393524" lon="103.281536">
<time>2016-10-07T00:50:23Z</time></trkpt>
<trkpt lat="25.393434" lon="103.281536">
<time>2016-10-07T00:50:24Z</time></trkpt>
<trkpt lat="25.393324" lon="103.281546">
<time>2016-10-07T00:50:25Z</time></trkpt>
<trkpt lat="25.393214" lon="103.281566">
<time>2016-10-07T00:50:26Z</time></trkpt>
<trkpt lat="25.392924" lon="103.281636">
<time>2016-10-07T00:50:27Z</time></trkpt>
<trkpt lat="25.392653" lon="103.281726">
<time>2016-10-07T00:50:28Z</time></trkpt>
<trkpt lat="25.392493" lon="103.281776">
<time>2016-10-07T00:50:29Z</time></trkpt>
<trkpt lat="25.392373" lon="103.281805">
<time>2016-10-07T00:50:30Z</time></trkpt>
<trkpt lat="25.392293" lon="103.281825">
<time>2016-10-07T00:50:31Z</time></trkpt>
<trkpt lat="25.392193" lon="103.281835">
<time>2016-10-07T00:50:32Z</time></trkpt>
<trkpt lat="25.392063" lon="103.281815">
<time>2016-10-07T00:50:33Z</time></trkpt>
<trkpt lat="25.391973" lon="103.281776">
<time>2016-10-07T00:50:34Z</time></trkpt>
<trkpt lat="25.391883" lon="103.281726">
<time>2016-10-07T00:50:35Z</time></trkpt>
<trkpt lat="25.391813" lon="103.281666">
<time>2016-10-07T00:50:36Z</time></trkpt>
<trkpt lat="25.391753" lon="103.281586">
<time>2016-10-07T00:50:37Z</time></trkpt>
<trkpt lat="25.391713" lon="103.281516">
<time>2016-10-07T00:50:38Z</time></trkpt>
<trkpt lat="25.391684" lon="103.281416">
<time>2016-10-07T00:50:39Z</time></trkpt>
<trkpt lat="25.391674" lon="103.281306">
<time>2016-10-07T00:50:40Z</time></trkpt>
<trkpt lat="25.391694" lon="103.281197">
<time>2016-10-07T00:50:41Z</time></trkpt>
<trkpt lat="25.391724" lon="103.281077">
<time>2016-10-07T00:50:42Z</time></trkpt>
<trkpt lat="25.391764" lon="103.281007">
<time>2016-10-07T00:50:43Z</time></trkpt>
<trkpt lat="25.391814" lon="103.280927">
<time>2016-10-07T00:50:44Z</time></trkpt>
<trkpt lat="25.391924" lon="103.280827">
<time>2016-10-07T00:50:45Z</time></trkpt>
<trkpt lat="25.392064" lon="103.280708">
<time>2016-10-07T00:50:46Z</time></trkpt>
<trkpt lat="25.392135" lon="103.280618">
<time>2016-10-07T00:50:47Z</time></trkpt>
<trkpt lat="25.392245" lon="103.280438">
<time>2016-10-07T00:50:48Z</time></trkpt>
<trkpt lat="25.392305" lon="103.280348">
<time>2016-10-07T00:50:49Z</time></trkpt>
<trkpt lat="25.392355" lon="103.280298">
<time>2016-10-07T00:50:50Z</time></trkpt>
<trkpt lat="25.392465" lon="103.280209">
<time>2016-10-07T00:50:51Z</time></trkpt>
<trkpt lat="25.392635" lon="103.280109">
<time>2016-10-07T00:50:52Z</time></trkpt>
<trkpt lat="25.392755" lon="103.280029">
<time>2016-10-07T00:50:53Z</time></trkpt>
<trkpt lat="25.392866" lon="103.279949">
<time>2016-10-07T00:50:54Z</time></trkpt>
<trkpt lat="25.392946" lon="103.279869">
<time>2016-10-07T00:50:55Z</time></trkpt>
<trkpt lat="25.393006" lon="103.279789">
<time>2016-10-07T00:50:56Z</time></trkpt>
<trkpt lat="25.393036" lon="103.279719">
<time>2016-10-07T00:50:57Z</time></trkpt>
<trkpt lat="25.393046" lon="103.27966">
<time>2016-10-07T00:50:58Z</time></trkpt>
<trkpt lat="25.393066" lon="103.27958">
<time>2016-10-07T00:50:59Z</time></trkpt>
<trkpt lat="25.393056" lon="103.27953">
<time>2016-10-07T00:51:00Z</time></trkpt>
<trkpt lat="25.393036" lon="103.27945">
<time>2016-10-07T00:51:01Z</time></trkpt>
<trkpt lat="25.392996" lon="103.27938">
<time>2016-10-07T00:51:02Z</time></trkpt>
<trkpt lat="25.392956" lon="103.27934">
<time>2016-10-07T00:51:03Z</time></trkpt>
<trkpt lat="25.392916" lon="103.2793">
<time>2016-10-07T00:51:04Z</time></trkpt>
<trkpt lat="25.392856" lon="103.27927">
<time>2016-10-07T00:51:05Z</time></trkpt>
<trkpt lat="25.392786" lon="103.27925">
<time>2016-10-07T00:51:06Z</time></trkpt>
<trkpt lat="25.392706" lon="103.27923">
<time>2016-10-07T00:51:07Z</time></trkpt>
<trkpt lat="25.392636" lon="103.27922">
<time>2016-10-07T00:51:08Z</time></trkpt>
<trkpt lat="25.392506" lon="103.27921">
<time>2016-10-07T00:51:09Z</time></trkpt>
<trkpt lat="25.392406" lon="103.2792">
<time>2016-10-07T00:51:10Z</time></trkpt>
<trkpt lat="25.392226" lon="103.27921">
<time>2016-10-07T00:51:11Z</time></trkpt>
<trkpt lat="25.392096" lon="103.27922">
<time>2016-10-07T00:51:12Z</time></trkpt>
<trkpt lat="25.391986" lon="103.27924">
<time>2016-10-07T00:51:13Z</time></trkpt>
<trkpt lat="25.391866" lon="103.27928">
<time>2016-10-07T00:51:14Z</time></trkpt>
<trkpt lat="25.391656" lon="103.27939">
<time>2016-10-07T00:51:15Z</time></trkpt>
<trkpt lat="25.391526" lon="103.27945">
<time>2016-10-07T00:51:16Z</time></trkpt>
<trkpt lat="25.391396" lon="103.27949">
<time>2016-10-07T00:51:17Z</time></trkpt>
<trkpt lat="25.391286" lon="103.27949">
<time>2016-10-07T00:51:18Z</time></trkpt>
<trkpt lat="25.391166" lon="103.27949">
<time>2016-10-07T00:51:19Z</time></trkpt>
<trkpt lat="25.391066" lon="103.27947">
<time>2016-10-07T00:51:20Z</time></trkpt>
<trkpt lat="25.390996" lon="103.27944">
<time>2016-10-07T00:51:21Z</time></trkpt>
<trkpt lat="25.390916" lon="103.27941">
<time>2016-10-07T00:51:22Z</time></trkpt>
<trkpt lat="25.390826" lon="103.27936">
<time>2016-10-07T00:51:23Z</time></trkpt>
<trkpt lat="25.390756" lon="103.27931">
<time>2016-10-07T00:51:24Z</time></trkpt>
<trkpt lat="25.390666" lon="103.27927">
<time>2016-10-07T00:51:25Z</time></trkpt>
<trkpt lat="25.390606" lon="103.27925">
<time>2016-10-07T00:51:26Z</time></trkpt>
<trkpt lat="25.390516" lon="103.27923">
<time>2016-10-07T00:51:27Z</time></trkpt>
<trkpt lat="25.390446" lon="103.27924">
<time>2016-10-07T00:51:28Z</time></trkpt>
<trkpt lat="25.390366" lon="103.27925">
<time>2016-10-07T00:51:29Z</time></trkpt>
<trkpt lat="25.390296" lon="103.27926">
<time>2016-10-07T00:51:30Z</time></trkpt>
<trkpt lat="25.390236" lon="103.27926">
<time>2016-10-07T00:51:31Z</time></trkpt>
<trkpt lat="25.390166" lon="103.27924">
<time>2016-10-07T00:51:32Z</time></trkpt>
<trkpt lat="25.389986" lon="103.279171">
<time>2016-10-07T00:51:33Z</time></trkpt>
<trkpt lat="25.389926" lon="103.279161">
<time>2016-10-07T00:51:34Z</time></trkpt>
<trkpt lat="25.389856" lon="103.279151">
<time>2016-10-07T00:51:35Z</time></trkpt>
<trkpt lat="25.389786" lon="103.279151">
<time>2016-10-07T00:51:36Z</time></trkpt>
<trkpt lat="25.389686" lon="103.279171">
<time>2016-10-07T00:51:37Z</time></trkpt>
<trkpt lat="25.389536" lon="103.27923">
<time>2016-10-07T00:51:38Z</time></trkpt>
<trkpt lat="25.389416" lon="103.27927">
<time>2016-10-07T00:51:39Z</time></trkpt>
<trkpt lat="25.389346" lon="103.27928">
<time>2016-10-07T00:51:40Z</time></trkpt>
<trkpt lat="25.389266" lon="103.27929">
<time>2016-10-07T00:51:41Z</time></trkpt>
<trkpt lat="25.389196" lon="103.27928">
<time>2016-10-07T00:51:42Z</time></trkpt>
<trkpt lat="25.389116" lon="103.27927">
<time>2016-10-07T00:51:43Z</time></trkpt>
<trkpt lat="25.388936" lon="103.27924">
<time>2016-10-07T00:51:44Z</time></trkpt>
<trkpt lat="25.388856" lon="103.279231">
<time>2016-10-07T00:51:45Z</time></trkpt>
<trkpt lat="25.388776" lon="103.279221">
<time>2016-10-07T00:51:46Z</time></trkpt>
<trkpt lat="25.388696" lon="103.279231">
<time>2016-10-07T00:51:47Z</time></trkpt>
<trkpt lat="25.388586" lon="103.27926">
<time>2016-10-07T00:51:48Z</time></trkpt>
<trkpt lat="25.388445" lon="103.27931">
<time>2016-10-07T00:51:49Z</time></trkpt>
<trkpt lat="25.388345" lon="103.27936">
<time>2016-10-07T00:51:50Z</time></trkpt>
<trkpt lat="25.388185" lon="103.27941">
<time>2016-10-07T00:51:51Z</time></trkpt>
<trkpt lat="25.388125" lon="103.27943">
<time>2016-10-07T00:51:52Z</time></trkpt>
<trkpt lat="25.388045" lon="103.27944">
<time>2016-10-07T00:51:53Z</time></trkpt>
<trkpt lat="25.387955" lon="103.27945">
<time>2016-10-07T00:51:54Z</time></trkpt>
<trkpt lat="25.387805" lon="103.27944">
<time>2016-10-07T00:51:55Z</time></trkpt>
<trkpt lat="25.387665" lon="103.27942">
<time>2016-10-07T00:51:56Z</time></trkpt>
<trkpt lat="25.387475" lon="103.27938">
<time>2016-10-07T00:51:57Z</time></trkpt>
<trkpt lat="25.387095" lon="103.279241">
<time>2016-10-07T00:51:58Z</time></trkpt>
<trkpt lat="25.386735" lon="103.279091">
<time>2016-10-07T00:51:59Z</time></trkpt>
<trkpt lat="25.386336" lon="103.278931">
<time>2016-10-07T00:52:00Z</time></trkpt>
<trkpt lat="25.385946" lon="103.278781">
<time>2016-10-07T00:52:01Z</time></trkpt>
<trkpt lat="25.385556" lon="103.278652">
<time>2016-10-07T00:52:02Z</time></trkpt>
<trkpt lat="25.385496" lon="103.278622">
<time>2016-10-07T00:52:03Z</time></trkpt>
<trkpt lat="25.385426" lon="103.278582">
<time>2016-10-07T00:52:04Z</time></trkpt>
<trkpt lat="25.385366" lon="103.278532">
<time>2016-10-07T00:52:05Z</time></trkpt>
<trkpt lat="25.385316" lon="103.278472">
<time>2016-10-07T00:52:06Z</time></trkpt>
<trkpt lat="25.385166" lon="103.278213">
<time>2016-10-07T00:52:07Z</time></trkpt>
<trkpt lat="25.385076" lon="103.278043">
<time>2016-10-07T00:52:08Z</time></trkpt>
<trkpt lat="25.384966" lon="103.277893">
<time>2016-10-07T00:52:09Z</time></trkpt>
<trkpt lat="25.384777" lon="103.277713">
<time>2016-10-07T00:52:10Z</time></trkpt>
<trkpt lat="25.384497" lon="103.277454">
<time>2016-10-07T00:52:11Z</time></trkpt>
<trkpt lat="25.384007" lon="103.276995">
<time>2016-10-07T00:52:12Z</time></trkpt>
<trkpt lat="25.383548" lon="103.276576">
<time>2016-10-07T00:52:13Z</time></trkpt>
<trkpt lat="25.383248" lon="103.276186">
<time>2016-10-07T00:52:14Z</time></trkpt>
<trkpt lat="25.383148" lon="103.276046">
<time>2016-10-07T00:52:15Z</time></trkpt>
<trkpt lat="25.383068" lon="103.275957">
<time>2016-10-07T00:52:16Z</time></trkpt>
<trkpt lat="25.382988" lon="103.275897">
<time>2016-10-07T00:52:17Z</time></trkpt>
<trkpt lat="25.382938" lon="103.275867">
<time>2016-10-07T00:52:18Z</time></trkpt>
<trkpt lat="25.382878" lon="103.275837">
<time>2016-10-07T00:52:19Z</time></trkpt>
<trkpt lat="25.382828" lon="103.275817">
<time>2016-10-07T00:52:20Z</time></trkpt>
<trkpt lat="25.382748" lon="103.275797">
<time>2016-10-07T00:52:21Z</time></trkpt>
<trkpt lat="25.382688" lon="103.275777">
<time>2016-10-07T00:52:22Z</time></trkpt>
<trkpt lat="25.382618" lon="103.275787">
<time>2016-10-07T00:52:23Z</time></trkpt>
<trkpt lat="25.382538" lon="103.275787">
<time>2016-10-07T00:52:24Z</time></trkpt>
<trkpt lat="25.382408" lon="103.275827">
<time>2016-10-07T00:52:25Z</time></trkpt>
<trkpt lat="25.382278" lon="103.275887">
<time>2016-10-07T00:52:26Z</time></trkpt>
<trkpt lat="25.382148" lon="103.275957">
<time>2016-10-07T00:52:27Z</time></trkpt>
<trkpt lat="25.381988" lon="103.276046">
<time>2016-10-07T00:52:28Z</time></trkpt>
<trkpt lat="25.381828" lon="103.276136">
<time>2016-10-07T00:52:29Z</time></trkpt>
<trkpt lat="25.381658" lon="103.276206">
<time>2016-10-07T00:52:30Z</time></trkpt>
<trkpt lat="25.381528" lon="103.276256">
<time>2016-10-07T00:52:31Z</time></trkpt>
<trkpt lat="25.381398" lon="103.276276">
<time>2016-10-07T00:52:32Z</time></trkpt>
<trkpt lat="25.381267" lon="103.276286">
<time>2016-10-07T00:52:33Z</time></trkpt>
<trkpt lat="25.381087" lon="103.276296">
<time>2016-10-07T00:52:34Z</time></trkpt>
<trkpt lat="25.380757" lon="103.276326">
<time>2016-10-07T00:52:35Z</time></trkpt>
<trkpt lat="25.380677" lon="103.276316">
<time>2016-10-07T00:52:36Z</time></trkpt>
<trkpt lat="25.380577" lon="103.276316">
<time>2016-10-07T00:52:37Z</time></trkpt>
<trkpt lat="25.380497" lon="103.276296">
<time>2016-10-07T00:52:38Z</time></trkpt>
<trkpt lat="25.380407" lon="103.276256">
<time>2016-10-07T00:52:39Z</time></trkpt>
<trkpt lat="25.380307" lon="103.276186">
<time>2016-10-07T00:52:40Z</time></trkpt>
<trkpt lat="25.380208" lon="103.276086">
<time>2016-10-07T00:52:41Z</time></trkpt>
<trkpt lat="25.380068" lon="103.275957">
<time>2016-10-07T00:52:42Z</time></trkpt>
<trkpt lat="25.379948" lon="103.275857">
<time>2016-10-07T00:52:43Z</time></trkpt>
<trkpt lat="25.379868" lon="103.275797">
<time>2016-10-07T00:52:44Z</time></trkpt>
<trkpt lat="25.379778" lon="103.275747">
<time>2016-10-07T00:52:45Z</time></trkpt>
<trkpt lat="25.379688" lon="103.275707">
<time>2016-10-07T00:52:46Z</time></trkpt>
<trkpt lat="25.379638" lon="103.275687">
<time>2016-10-07T00:52:47Z</time></trkpt>
<trkpt lat="25.379468" lon="103.275577">
<time>2016-10-07T00:52:48Z</time></trkpt>
<trkpt lat="25.379378" lon="103.275488">
<time>2016-10-07T00:52:49Z</time></trkpt>
<trkpt lat="25.379318" lon="103.275408">
<time>2016-10-07T00:52:50Z</time></trkpt>
<trkpt lat="25.379268" lon="103.275338">
<time>2016-10-07T00:52:51Z</time></trkpt>
<trkpt lat="25.379228" lon="103.275248">
<time>2016-10-07T00:52:52Z</time></trkpt>
<trkpt lat="25.379198" lon="103.275158">
<time>2016-10-07T00:52:53Z</time></trkpt>
<trkpt lat="25.379039" lon="103.274729">
<time>2016-10-07T00:52:54Z</time></trkpt>
<trkpt lat="25.378839" lon="103.27423">
<time>2016-10-07T00:52:55Z</time></trkpt>
<trkpt lat="25.378729" lon="103.27391">
<time>2016-10-07T00:52:56Z</time></trkpt>
<trkpt lat="25.37867" lon="103.273731">
<time>2016-10-07T00:52:57Z</time></trkpt>
<trkpt lat="25.37862" lon="103.273631">
<time>2016-10-07T00:52:58Z</time></trkpt>
<trkpt lat="25.37858" lon="103.273541">
<time>2016-10-07T00:52:59Z</time></trkpt>
<trkpt lat="25.37855" lon="103.273501">
<time>2016-10-07T00:53:00Z</time></trkpt>
<trkpt lat="25.37852" lon="103.273471">
<time>2016-10-07T00:53:01Z</time></trkpt>
<trkpt lat="25.37849" lon="103.273441">
<time>2016-10-07T00:53:02Z</time></trkpt>
<trkpt lat="25.37846" lon="103.273421">
<time>2016-10-07T00:53:03Z</time></trkpt>
<trkpt lat="25.37842" lon="103.273391">
<time>2016-10-07T00:53:04Z</time></trkpt>
<trkpt lat="25.37829" lon="103.273321">
<time>2016-10-07T00:53:05Z</time></trkpt>
<trkpt lat="25.37819" lon="103.273271">
<time>2016-10-07T00:53:06Z</time></trkpt>
<trkpt lat="25.37809" lon="103.273211">
<time>2016-10-07T00:53:07Z</time></trkpt>
<trkpt lat="25.37803" lon="103.273181">
<time>2016-10-07T00:53:08Z</time></trkpt>
<trkpt lat="25.37798" lon="103.273132">
<time>2016-10-07T00:53:09Z</time></trkpt>
<trkpt lat="25.37793" lon="103.273092">
<time>2016-10-07T00:53:10Z</time></trkpt>
<trkpt lat="25.37789" lon="103.273042">
<time>2016-10-07T00:53:11Z</time></trkpt>
<trkpt lat="25.37786" lon="103.272982">
<time>2016-10-07T00:53:12Z</time></trkpt>
<trkpt lat="25.37783" lon="103.272912">
<time>2016-10-07T00:53:13Z</time></trkpt>
<trkpt lat="25.3778" lon="103.272842">
<time>2016-10-07T00:53:14Z</time></trkpt>
<trkpt lat="25.37778" lon="103.272772">
<time>2016-10-07T00:53:15Z</time></trkpt>
<trkpt lat="25.37776" lon="103.272692">
<time>2016-10-07T00:53:16Z</time></trkpt>
<trkpt lat="25.37773" lon="103.272573">
<time>2016-10-07T00:53:17Z</time></trkpt>
<trkpt lat="25.377701" lon="103.272473">
<time>2016-10-07T00:53:18Z</time></trkpt>
<trkpt lat="25.377661" lon="103.272283">
<time>2016-10-07T00:53:19Z</time></trkpt>
<trkpt lat="25.377631" lon="103.272193">
<time>2016-10-07T00:53:20Z</time></trkpt>
<trkpt lat="25.377611" lon="103.272123">
<time>2016-10-07T00:53:21Z</time></trkpt>
<trkpt lat="25.377581" lon="103.272063">
<time>2016-10-07T00:53:22Z</time></trkpt>
<trkpt lat="25.377561" lon="103.272013">
<time>2016-10-07T00:53:23Z</time></trkpt>
<trkpt lat="25.377531" lon="103.271963">
<time>2016-10-07T00:53:24Z</time></trkpt>
<trkpt lat="25.377501" lon="103.271924">
<time>2016-10-07T00:53:25Z</time></trkpt>
<trkpt lat="25.377471" lon="103.271894">
<time>2016-10-07T00:53:26Z</time></trkpt>
<trkpt lat="25.377441" lon="103.271864">
<time>2016-10-07T00:53:27Z</time></trkpt>
<trkpt lat="25.377401" lon="103.271834">
<time>2016-10-07T00:53:28Z</time></trkpt>
<trkpt lat="25.377361" lon="103.271804">
<time>2016-10-07T00:53:29Z</time></trkpt>
<trkpt lat="25.377321" lon="103.271774">
<time>2016-10-07T00:53:30Z</time></trkpt>
<trkpt lat="25.376691" lon="103.271454">
<time>2016-10-07T00:53:31Z</time></trkpt>
<trkpt lat="25.376411" lon="103.271315">
<time>2016-10-07T00:53:32Z</time></trkpt>
<trkpt lat="25.376321" lon="103.271265">
<time>2016-10-07T00:53:33Z</time></trkpt>
<trkpt lat="25.376241" lon="103.271225">
<time>2016-10-07T00:53:34Z</time></trkpt>
<trkpt lat="25.376171" lon="103.271185">
<time>2016-10-07T00:53:35Z</time></trkpt>
<trkpt lat="25.376121" lon="103.271145">
<time>2016-10-07T00:53:36Z</time></trkpt>
<trkpt lat="25.376071" lon="103.271115">
<time>2016-10-07T00:53:37Z</time></trkpt>
<trkpt lat="25.376032" lon="103.271075">
<time>2016-10-07T00:53:38Z</time></trkpt>
<trkpt lat="25.375992" lon="103.271035">
<time>2016-10-07T00:53:39Z</time></trkpt>
<trkpt lat="25.375962" lon="103.270995">
<time>2016-10-07T00:53:40Z</time></trkpt>
<trkpt lat="25.375942" lon="103.270955">
<time>2016-10-07T00:53:41Z</time></trkpt>
<trkpt lat="25.375922" lon="103.270905">
<time>2016-10-07T00:53:42Z</time></trkpt>
<trkpt lat="25.375902" lon="103.270865">
<time>2016-10-07T00:53:43Z</time></trkpt>
<trkpt lat="25.375892" lon="103.270815">
<time>2016-10-07T00:53:44Z</time></trkpt>
<trkpt lat="25.375892" lon="103.270755">
<time>2016-10-07T00:53:45Z</time></trkpt>
<trkpt lat="25.375892" lon="103.270696">
<time>2016-10-07T00:53:46Z</time></trkpt>
<trkpt lat="25.375892" lon="103.270636">
<time>2016-10-07T00:53:47Z</time></trkpt>
<trkpt lat="25.375902" lon="103.270566">
<time>2016-10-07T00:53:48Z</time></trkpt>
<trkpt lat="25.375922" lon="103.270496">
<time>2016-10-07T00:53:49Z</time></trkpt>
<trkpt lat="25.375952" lon="103.270436">
<time>2016-10-07T00:53:50Z</time></trkpt>
<trkpt lat="25.375972" lon="103.270386">
<time>2016-10-07T00:53:51Z</time></trkpt>
<trkpt lat="25.376002" lon="103.270326">
<time>2016-10-07T00:53:52Z</time></trkpt>
<trkpt lat="25.376042" lon="103.270276">
<time>2016-10-07T00:53:53Z</time></trkpt>
<trkpt lat="25.376072" lon="103.270236">
<time>2016-10-07T00:53:54Z</time></trkpt>
<trkpt lat="25.376112" lon="103.270206">
<time>2016-10-07T00:53:55Z</time></trkpt>
<trkpt lat="25.376152" lon="103.270176">
<time>2016-10-07T00:53:56Z</time></trkpt>
<trkpt lat="25.376202" lon="103.270146">
<time>2016-10-07T00:53:57Z</time></trkpt>
<trkpt lat="25.376252" lon="103.270126">
<time>2016-10-07T00:53:58Z</time></trkpt>
<trkpt lat="25.376302" lon="103.270106">
<time>2016-10-07T00:53:59Z</time></trkpt>
<trkpt lat="25.376352" lon="103.270096">
<time>2016-10-07T00:54:00Z</time></trkpt>
<trkpt lat="25.376422" lon="103.270076">
<time>2016-10-07T00:54:01Z</time></trkpt>
<trkpt lat="25.376482" lon="103.270076">
<time>2016-10-07T00:54:02Z</time></trkpt>
<trkpt lat="25.376552" lon="103.270067">
<time>2016-10-07T00:54:03Z</time></trkpt>
<trkpt lat="25.376612" lon="103.270066">
<time>2016-10-07T00:54:04Z</time></trkpt>
<trkpt lat="25.376692" lon="103.270076">
<time>2016-10-07T00:54:05Z</time></trkpt>
<trkpt lat="25.376792" lon="103.270086">
<time>2016-10-07T00:54:06Z</time></trkpt>
<trkpt lat="25.377072" lon="103.270116">
<time>2016-10-07T00:54:07Z</time></trkpt>
<trkpt lat="25.377142" lon="103.270126">
<time>2016-10-07T00:54:08Z</time></trkpt>
<trkpt lat="25.377202" lon="103.270136">
<time>2016-10-07T00:54:09Z</time></trkpt>
<trkpt lat="25.377253" lon="103.270126">
<time>2016-10-07T00:54:10Z</time></trkpt>
<trkpt lat="25.377303" lon="103.270126">
<time>2016-10-07T00:54:11Z</time></trkpt>
<trkpt lat="25.377353" lon="103.270106">
<time>2016-10-07T00:54:12Z</time></trkpt>
<trkpt lat="25.377403" lon="103.270086">
<time>2016-10-07T00:54:13Z</time></trkpt>
<trkpt lat="25.377443" lon="103.270056">
<time>2016-10-07T00:54:14Z</time></trkpt>
<trkpt lat="25.377493" lon="103.270007">
<time>2016-10-07T00:54:15Z</time></trkpt>
<trkpt lat="25.377523" lon="103.269947">
<time>2016-10-07T00:54:16Z</time></trkpt>
<trkpt lat="25.377553" lon="103.269897">
<time>2016-10-07T00:54:17Z</time></trkpt>
<trkpt lat="25.377583" lon="103.269817">
<time>2016-10-07T00:54:18Z</time></trkpt>
<trkpt lat="25.377593" lon="103.269737">
<time>2016-10-07T00:54:19Z</time></trkpt>
<trkpt lat="25.377603" lon="103.269667">
<time>2016-10-07T00:54:20Z</time></trkpt>
<trkpt lat="25.377603" lon="103.269587">
<time>2016-10-07T00:54:21Z</time></trkpt>
<trkpt lat="25.377593" lon="103.269517">
<time>2016-10-07T00:54:22Z</time></trkpt>
<trkpt lat="25.377573" lon="103.269447">
<time>2016-10-07T00:54:23Z</time></trkpt>
<trkpt lat="25.377553" lon="103.269368">
<time>2016-10-07T00:54:24Z</time></trkpt>
<trkpt lat="25.377523" lon="103.269298">
<time>2016-10-07T00:54:25Z</time></trkpt>
<trkpt lat="25.377483" lon="103.269218">
<time>2016-10-07T00:54:26Z</time></trkpt>
<trkpt lat="25.377423" lon="103.269098">
<time>2016-10-07T00:54:27Z</time></trkpt>
<trkpt lat="25.377234" lon="103.268768">
<time>2016-10-07T00:54:28Z</time></trkpt>
<trkpt lat="25.377044" lon="103.268459">
<time>2016-10-07T00:54:29Z</time></trkpt>
<trkpt lat="25.376904" lon="103.268229">
<time>2016-10-07T00:54:30Z</time></trkpt>
<trkpt lat="25.376854" lon="103.268139">
<time>2016-10-07T00:54:31Z</time></trkpt>
<trkpt lat="25.376814" lon="103.268089">
<time>2016-10-07T00:54:32Z</time></trkpt>
<trkpt lat="25.376774" lon="103.26803">
<time>2016-10-07T00:54:33Z</time></trkpt>
<trkpt lat="25.376724" lon="103.26798">
<time>2016-10-07T00:54:34Z</time></trkpt>
<trkpt lat="25.376664" lon="103.26792">
<time>2016-10-07T00:54:35Z</time></trkpt>
<trkpt lat="25.376614" lon="103.26787">
<time>2016-10-07T00:54:36Z</time></trkpt>
<trkpt lat="25.376564" lon="103.26783">
<time>2016-10-07T00:54:37Z</time></trkpt>
<trkpt lat="25.376494" lon="103.26778">
<time>2016-10-07T00:54:38Z</time></trkpt>
<trkpt lat="25.376234" lon="103.2676">
<time>2016-10-07T00:54:39Z</time></trkpt>
<trkpt lat="25.375585" lon="103.267101">
<time>2016-10-07T00:54:40Z</time></trkpt>
<trkpt lat="25.375485" lon="103.267031">
<time>2016-10-07T00:54:41Z</time></trkpt>
<trkpt lat="25.375385" lon="103.266951">
<time>2016-10-07T00:54:42Z</time></trkpt>
<trkpt lat="25.375275" lon="103.266881">
<time>2016-10-07T00:54:43Z</time></trkpt>
<trkpt lat="25.374995" lon="103.266692">
<time>2016-10-07T00:54:44Z</time></trkpt>
<trkpt lat="25.374235" lon="103.266132">
<time>2016-10-07T00:54:45Z</time></trkpt>
<trkpt lat="25.374055" lon="103.265973">
<time>2016-10-07T00:54:46Z</time></trkpt>
<trkpt lat="25.373885" lon="103.265823">
<time>2016-10-07T00:54:47Z</time></trkpt>
<trkpt lat="25.372886" lon="103.264814">
<time>2016-10-07T00:54:48Z</time></trkpt>
<trkpt lat="25.372506" lon="103.264415">
<time>2016-10-07T00:54:49Z</time></trkpt>
<trkpt lat="25.371776" lon="103.263666">
<time>2016-10-07T00:54:50Z</time></trkpt>
<trkpt lat="25.371586" lon="103.263476">
<time>2016-10-07T00:54:51Z</time></trkpt>
<trkpt lat="25.371266" lon="103.263146">
<time>2016-10-07T00:54:52Z</time></trkpt>
<trkpt lat="25.371146" lon="103.263017">
<time>2016-10-07T00:54:53Z</time></trkpt>
<trkpt lat="25.371067" lon="103.262957">
<time>2016-10-07T00:54:54Z</time></trkpt>
<trkpt lat="25.370977" lon="103.262887">
<time>2016-10-07T00:54:55Z</time></trkpt>
<trkpt lat="25.370887" lon="103.262837">
<time>2016-10-07T00:54:56Z</time></trkpt>
<trkpt lat="25.370757" lon="103.262777">
<time>2016-10-07T00:54:57Z</time></trkpt>
<trkpt lat="25.370607" lon="103.262727">
<time>2016-10-07T00:54:58Z</time></trkpt>
<trkpt lat="25.370427" lon="103.262677">
<time>2016-10-07T00:54:59Z</time></trkpt>
<trkpt lat="25.370237" lon="103.262647">
<time>2016-10-07T00:55:00Z</time></trkpt>
<trkpt lat="25.370047" lon="103.262637">
<time>2016-10-07T00:55:01Z</time></trkpt>
<trkpt lat="25.369676" lon="103.262647">
<time>2016-10-07T00:55:02Z</time></trkpt>
<trkpt lat="25.369316" lon="103.262687">
<time>2016-10-07T00:55:03Z</time></trkpt>
<trkpt lat="25.369186" lon="103.262697">
<time>2016-10-07T00:55:04Z</time></trkpt>
<trkpt lat="25.369036" lon="103.262717">
<time>2016-10-07T00:55:05Z</time></trkpt>
<trkpt lat="25.368866" lon="103.262697">
<time>2016-10-07T00:55:06Z</time></trkpt>
<trkpt lat="25.368766" lon="103.262677">
<time>2016-10-07T00:55:07Z</time></trkpt>
<trkpt lat="25.368646" lon="103.262637">
<time>2016-10-07T00:55:08Z</time></trkpt>
<trkpt lat="25.368336" lon="103.262517">
<time>2016-10-07T00:55:09Z</time></trkpt>
<trkpt lat="25.368086" lon="103.262437">
<time>2016-10-07T00:55:10Z</time></trkpt>
<trkpt lat="25.368016" lon="103.262407">
<time>2016-10-07T00:55:11Z</time></trkpt>
<trkpt lat="25.367946" lon="103.262367">
<time>2016-10-07T00:55:12Z</time></trkpt>
<trkpt lat="25.367846" lon="103.262278">
<time>2016-10-07T00:55:13Z</time></trkpt>
<trkpt lat="25.367796" lon="103.262208">
<time>2016-10-07T00:55:14Z</time></trkpt>
<trkpt lat="25.367746" lon="103.262108">
<time>2016-10-07T00:55:15Z</time></trkpt>
<trkpt lat="25.367657" lon="103.261818">
<time>2016-10-07T00:55:16Z</time></trkpt>
<trkpt lat="25.367547" lon="103.261578">
<time>2016-10-07T00:55:17Z</time></trkpt>
<trkpt lat="25.367287" lon="103.261069">
<time>2016-10-07T00:55:18Z</time></trkpt>
<trkpt lat="25.367177" lon="103.260889">
<time>2016-10-07T00:55:19Z</time></trkpt>
<trkpt lat="25.367047" lon="103.260709">
<time>2016-10-07T00:55:20Z</time></trkpt>
<trkpt lat="25.366927" lon="103.26061">
<time>2016-10-07T00:55:21Z</time></trkpt>
<trkpt lat="25.366637" lon="103.26039">
<time>2016-10-07T00:55:22Z</time></trkpt>
<trkpt lat="25.366377" lon="103.26017">
<time>2016-10-07T00:55:23Z</time></trkpt>
<trkpt lat="25.366257" lon="103.26007">
<time>2016-10-07T00:55:24Z</time></trkpt>
<trkpt lat="25.366047" lon="103.25992">
<time>2016-10-07T00:55:25Z</time></trkpt>
<trkpt lat="25.365817" lon="103.259761">
<time>2016-10-07T00:55:26Z</time></trkpt>
<trkpt lat="25.365697" lon="103.259661">
<time>2016-10-07T00:55:27Z</time></trkpt>
<trkpt lat="25.365547" lon="103.259501">
<time>2016-10-07T00:55:28Z</time></trkpt>
<trkpt lat="25.365457" lon="103.259381">
<time>2016-10-07T00:55:29Z</time></trkpt>
<trkpt lat="25.365327" lon="103.259201">
<time>2016-10-07T00:55:30Z</time></trkpt>
<trkpt lat="25.365248" lon="103.259081">
<time>2016-10-07T00:55:31Z</time></trkpt>
<trkpt lat="25.365178" lon="103.259001">
<time>2016-10-07T00:55:32Z</time></trkpt>
<trkpt lat="25.365088" lon="103.258902">
<time>2016-10-07T00:55:33Z</time></trkpt>
<trkpt lat="25.364978" lon="103.258802">
<time>2016-10-07T00:55:34Z</time></trkpt>
<trkpt lat="25.364858" lon="103.258712">
<time>2016-10-07T00:55:35Z</time></trkpt>
<trkpt lat="25.364608" lon="103.258512">
<time>2016-10-07T00:55:36Z</time></trkpt>
<trkpt lat="25.364348" lon="103.258282">
<time>2016-10-07T00:55:37Z</time></trkpt>
<trkpt lat="25.363898" lon="103.257833">
<time>2016-10-07T00:55:38Z</time></trkpt>
<trkpt lat="25.363098" lon="103.257054">
<time>2016-10-07T00:55:39Z</time></trkpt>
<trkpt lat="25.362808" lon="103.256764">
<time>2016-10-07T00:55:40Z</time></trkpt>
<trkpt lat="25.362698" lon="103.256684">
<time>2016-10-07T00:55:41Z</time></trkpt>
<trkpt lat="25.362618" lon="103.256644">
<time>2016-10-07T00:55:42Z</time></trkpt>
<trkpt lat="25.362508" lon="103.256584">
<time>2016-10-07T00:55:43Z</time></trkpt>
<trkpt lat="25.362378" lon="103.256534">
<time>2016-10-07T00:55:44Z</time></trkpt>
<trkpt lat="25.362198" lon="103.256474">
<time>2016-10-07T00:55:45Z</time></trkpt>
<trkpt lat="25.362088" lon="103.256434">
<time>2016-10-07T00:55:46Z</time></trkpt>
<trkpt lat="25.361998" lon="103.256374">
<time>2016-10-07T00:55:47Z</time></trkpt>
<trkpt lat="25.361908" lon="103.256304">
<time>2016-10-07T00:55:48Z</time></trkpt>
<trkpt lat="25.361778" lon="103.256185">
<time>2016-10-07T00:55:49Z</time></trkpt>
<trkpt lat="25.361518" lon="103.255925">
<time>2016-10-07T00:55:50Z</time></trkpt>
<trkpt lat="25.361138" lon="103.255545">
<time>2016-10-07T00:55:51Z</time></trkpt>
<trkpt lat="25.360838" lon="103.255245">
<time>2016-10-07T00:55:52Z</time></trkpt>
<trkpt lat="25.360638" lon="103.255046">
<time>2016-10-07T00:55:53Z</time></trkpt>
<trkpt lat="25.360448" lon="103.254856">
<time>2016-10-07T00:55:54Z</time></trkpt>
<trkpt lat="25.360198" lon="103.254636">
<time>2016-10-07T00:55:55Z</time></trkpt>
<trkpt lat="25.359818" lon="103.254366">
<time>2016-10-07T00:55:56Z</time></trkpt>
<trkpt lat="25.359528" lon="103.254127">
<time>2016-10-07T00:55:57Z</time></trkpt>
<trkpt lat="25.358788" lon="103.253397">
<time>2016-10-07T00:55:58Z</time></trkpt>
<trkpt lat="25.358268" lon="103.252888">
<time>2016-10-07T00:55:59Z</time></trkpt>
<trkpt lat="25.357688" lon="103.252318">
<time>2016-10-07T00:56:00Z</time></trkpt>
<trkpt lat="25.357408" lon="103.252068">
<time>2016-10-07T00:56:01Z</time></trkpt>
<trkpt lat="25.357088" lon="103.251859">
<time>2016-10-07T00:56:02Z</time></trkpt>
<trkpt lat="25.356448" lon="103.251439">
<time>2016-10-07T00:56:03Z</time></trkpt>
<trkpt lat="25.356088" lon="103.251119">
<time>2016-10-07T00:56:04Z</time></trkpt>
<trkpt lat="25.355978" lon="103.251009">
<time>2016-10-07T00:56:05Z</time></trkpt>
<trkpt lat="25.355898" lon="103.250929">
<time>2016-10-07T00:56:06Z</time></trkpt>
<trkpt lat="25.355828" lon="103.250849">
<time>2016-10-07T00:56:07Z</time></trkpt>
<trkpt lat="25.355788" lon="103.250779">
<time>2016-10-07T00:56:08Z</time></trkpt>
<trkpt lat="25.355748" lon="103.25066">
<time>2016-10-07T00:56:09Z</time></trkpt>
<trkpt lat="25.355728" lon="103.25052">
<time>2016-10-07T00:56:10Z</time></trkpt>
<trkpt lat="25.355728" lon="103.25021">
<time>2016-10-07T00:56:11Z</time></trkpt>
<trkpt lat="25.355698" lon="103.25002">
<time>2016-10-07T00:56:12Z</time></trkpt>
<trkpt lat="25.355698" lon="103.24999">
<time>2016-10-07T00:56:13Z</time></trkpt>
<trkpt lat="25.355668" lon="103.2499">
<time>2016-10-07T00:56:14Z</time></trkpt>
<trkpt lat="25.355638" lon="103.24981">
<time>2016-10-07T00:56:15Z</time></trkpt>
<trkpt lat="25.355598" lon="103.24973">
<time>2016-10-07T00:56:16Z</time></trkpt>
<trkpt lat="25.355558" lon="103.24968">
<time>2016-10-07T00:56:17Z</time></trkpt>
<trkpt lat="25.355508" lon="103.24962">
<time>2016-10-07T00:56:18Z</time></trkpt>
<trkpt lat="25.355438" lon="103.24954">
<time>2016-10-07T00:56:19Z</time></trkpt>
<trkpt lat="25.355338" lon="103.24945">
<time>2016-10-07T00:56:20Z</time></trkpt>
<trkpt lat="25.355238" lon="103.249361">
<time>2016-10-07T00:56:21Z</time></trkpt>
<trkpt lat="25.355108" lon="103.249221">
<time>2016-10-07T00:56:22Z</time></trkpt>
<trkpt lat="25.354708" lon="103.248791">
<time>2016-10-07T00:56:23Z</time></trkpt>
<trkpt lat="25.354308" lon="103.248341">
<time>2016-10-07T00:56:24Z</time></trkpt>
<trkpt lat="25.354098" lon="103.248121">
<time>2016-10-07T00:56:25Z</time></trkpt>
<trkpt lat="25.354008" lon="103.248031">
<time>2016-10-07T00:56:26Z</time></trkpt>
<trkpt lat="25.353968" lon="103.247992">
<time>2016-10-07T00:56:27Z</time></trkpt>
<trkpt lat="25.353858" lon="103.247862">
<time>2016-10-07T00:56:28Z</time></trkpt>
<trkpt lat="25.353698" lon="103.247662">
<time>2016-10-07T00:56:29Z</time></trkpt>
<trkpt lat="25.353678" lon="103.247642">
<time>2016-10-07T00:56:30Z</time></trkpt>
<trkpt lat="25.353648" lon="103.247602">
<time>2016-10-07T00:56:31Z</time></trkpt>
<trkpt lat="25.353528" lon="103.247462">
<time>2016-10-07T00:56:32Z</time></trkpt>
<trkpt lat="25.353508" lon="103.247432">
<time>2016-10-07T00:56:33Z</time></trkpt>
<trkpt lat="25.352778" lon="103.246602">
<time>2016-10-07T00:56:34Z</time></trkpt>
<trkpt lat="25.352688" lon="103.246492">
<time>2016-10-07T00:56:35Z</time></trkpt>
<trkpt lat="25.352578" lon="103.246363">
<time>2016-10-07T00:56:36Z</time></trkpt>
<trkpt lat="25.352358" lon="103.246123">
<time>2016-10-07T00:56:37Z</time></trkpt>
<trkpt lat="25.352268" lon="103.246023">
<time>2016-10-07T00:56:38Z</time></trkpt>
<trkpt lat="25.352218" lon="103.245953">
<time>2016-10-07T00:56:39Z</time></trkpt>
<trkpt lat="25.352098" lon="103.245823">
<time>2016-10-07T00:56:40Z</time></trkpt>
<trkpt lat="25.351848" lon="103.245553">
<time>2016-10-07T00:56:41Z</time></trkpt>
<trkpt lat="25.351788" lon="103.245503">
<time>2016-10-07T00:56:42Z</time></trkpt>
<trkpt lat="25.351718" lon="103.245443">
<time>2016-10-07T00:56:43Z</time></trkpt>
<trkpt lat="25.351658" lon="103.245403">
<time>2016-10-07T00:56:44Z</time></trkpt>
<trkpt lat="25.351588" lon="103.245353">
<time>2016-10-07T00:56:45Z</time></trkpt>
<trkpt lat="25.351528" lon="103.245333">
<time>2016-10-07T00:56:46Z</time></trkpt>
<trkpt lat="25.351468" lon="103.245313">
<time>2016-10-07T00:56:47Z</time></trkpt>
<trkpt lat="25.351448" lon="103.245313">
<time>2016-10-07T00:56:48Z</time></trkpt>
<trkpt lat="25.351438" lon="103.245313">
<time>2016-10-07T00:56:49Z</time></trkpt>
<trkpt lat="25.351338" lon="103.245293">
<time>2016-10-07T00:56:50Z</time></trkpt>
<trkpt lat="25.351318" lon="103.245293">
<time>2016-10-07T00:56:51Z</time></trkpt>
<trkpt lat="25.351298" lon="103.245293">
<time>2016-10-07T00:56:52Z</time></trkpt>
<trkpt lat="25.351218" lon="103.245303">
<time>2016-10-07T00:56:53Z</time></trkpt>
<trkpt lat="25.351108" lon="103.245323">
<time>2016-10-07T00:56:54Z</time></trkpt>
<trkpt lat="25.351008" lon="103.245353">
<time>2016-10-07T00:56:55Z</time></trkpt>
<trkpt lat="25.350788" lon="103.245433">
<time>2016-10-07T00:56:56Z</time></trkpt>
<trkpt lat="25.350358" lon="103.245613">
<time>2016-10-07T00:56:57Z</time></trkpt>
<trkpt lat="25.349938" lon="103.245783">
<time>2016-10-07T00:56:58Z</time></trkpt>
<trkpt lat="25.349548" lon="103.245943">
<time>2016-10-07T00:56:59Z</time></trkpt>
<trkpt lat="25.349408" lon="103.246003">
<time>2016-10-07T00:57:00Z</time></trkpt>
<trkpt lat="25.349358" lon="103.246033">
<time>2016-10-07T00:57:01Z</time></trkpt>
<trkpt lat="25.348798" lon="103.246293">
<time>2016-10-07T00:57:02Z</time></trkpt>
<trkpt lat="25.348458" lon="103.246453">
<time>2016-10-07T00:57:03Z</time></trkpt>
<trkpt lat="25.347827" lon="103.246732">
<time>2016-10-07T00:57:04Z</time></trkpt>
<trkpt lat="25.347747" lon="103.246772">
<time>2016-10-07T00:57:05Z</time></trkpt>
<trkpt lat="25.347337" lon="103.246952">
<time>2016-10-07T00:57:06Z</time></trkpt>
<trkpt lat="25.347097" lon="103.247042">
<time>2016-10-07T00:57:07Z</time></trkpt>
<trkpt lat="25.346957" lon="103.247092">
<time>2016-10-07T00:57:08Z</time></trkpt>
<trkpt lat="25.346857" lon="103.247122">
<time>2016-10-07T00:57:09Z</time></trkpt>
<trkpt lat="25.346197" lon="103.247382">
<time>2016-10-07T00:57:10Z</time></trkpt>
<trkpt lat="25.346007" lon="103.247452">
<time>2016-10-07T00:57:11Z</time></trkpt>
<trkpt lat="25.345767" lon="103.247552">
<time>2016-10-07T00:57:12Z</time></trkpt>
<trkpt lat="25.345587" lon="103.247672">
<time>2016-10-07T00:57:13Z</time></trkpt>
<trkpt lat="25.345437" lon="103.247752">
<time>2016-10-07T00:57:14Z</time></trkpt>
<trkpt lat="25.345427" lon="103.247752">
<time>2016-10-07T00:57:15Z</time></trkpt>
<trkpt lat="25.345297" lon="103.247792">
<time>2016-10-07T00:57:16Z</time></trkpt>
<trkpt lat="25.345197" lon="103.247812">
<time>2016-10-07T00:57:17Z</time></trkpt>
<trkpt lat="25.345047" lon="103.247812">
<time>2016-10-07T00:57:18Z</time></trkpt>
<trkpt lat="25.344947" lon="103.247802">
<time>2016-10-07T00:57:19Z</time></trkpt>
<trkpt lat="25.344837" lon="103.247782">
<time>2016-10-07T00:57:20Z</time></trkpt>
<trkpt lat="25.344287" lon="103.247612">
<time>2016-10-07T00:57:21Z</time></trkpt>
<trkpt lat="25.343977" lon="103.247512">
<time>2016-10-07T00:57:22Z</time></trkpt>
<trkpt lat="25.343587" lon="103.247402">
<time>2016-10-07T00:57:23Z</time></trkpt>
<trkpt lat="25.343367" lon="103.247342">
<time>2016-10-07T00:57:24Z</time></trkpt>
<trkpt lat="25.343097" lon="103.247262">
<time>2016-10-07T00:57:25Z</time></trkpt>
<trkpt lat="25.342887" lon="103.247192">
<time>2016-10-07T00:57:26Z</time></trkpt>
<trkpt lat="25.342657" lon="103.247112">
<time>2016-10-07T00:57:27Z</time></trkpt>
<trkpt lat="25.342507" lon="103.247042">
<time>2016-10-07T00:57:28Z</time></trkpt>
<trkpt lat="25.342367" lon="103.246953">
<time>2016-10-07T00:57:29Z</time></trkpt>
<trkpt lat="25.342257" lon="103.246853">
<time>2016-10-07T00:57:30Z</time></trkpt>
<trkpt lat="25.342217" lon="103.246813">
<time>2016-10-07T00:57:31Z</time></trkpt>
<trkpt lat="25.342187" lon="103.246773">
<time>2016-10-07T00:57:32Z</time></trkpt>
<trkpt lat="25.342057" lon="103.246543">
<time>2016-10-07T00:57:33Z</time></trkpt>
<trkpt lat="25.341957" lon="103.246363">
<time>2016-10-07T00:57:34Z</time></trkpt>
<trkpt lat="25.341887" lon="103.246193">
<time>2016-10-07T00:57:35Z</time></trkpt>
<trkpt lat="25.341627" lon="103.245593">
<time>2016-10-07T00:57:36Z</time></trkpt>
<trkpt lat="25.341136" lon="103.244464">
<time>2016-10-07T00:57:37Z</time></trkpt>
<trkpt lat="25.340926" lon="103.243994">
<time>2016-10-07T00:57:38Z</time></trkpt>
<trkpt lat="25.340816" lon="103.243744">
<time>2016-10-07T00:57:39Z</time></trkpt>
<trkpt lat="25.340706" lon="103.243484">
<time>2016-10-07T00:57:40Z</time></trkpt>
<trkpt lat="25.340646" lon="103.243345">
<time>2016-10-07T00:57:41Z</time></trkpt>
<trkpt lat="25.340586" lon="103.243245">
<time>2016-10-07T00:57:42Z</time></trkpt>
<trkpt lat="25.340416" lon="103.242915">
<time>2016-10-07T00:57:43Z</time></trkpt>
<trkpt lat="25.339886" lon="103.241995">
<time>2016-10-07T00:57:44Z</time></trkpt>
<trkpt lat="25.339496" lon="103.241335">
<time>2016-10-07T00:57:45Z</time></trkpt>
<trkpt lat="25.338945" lon="103.240406">
<time>2016-10-07T00:57:46Z</time></trkpt>
<trkpt lat="25.338535" lon="103.239666">
<time>2016-10-07T00:57:47Z</time></trkpt>
<trkpt lat="25.338455" lon="103.239556">
<time>2016-10-07T00:57:48Z</time></trkpt>
<trkpt lat="25.338365" lon="103.239466">
<time>2016-10-07T00:57:49Z</time></trkpt>
<trkpt lat="25.338255" lon="103.239346">
<time>2016-10-07T00:57:50Z</time></trkpt>
<trkpt lat="25.337785" lon="103.238986">
<time>2016-10-07T00:57:51Z</time></trkpt>
<trkpt lat="25.337675" lon="103.238876">
<time>2016-10-07T00:57:52Z</time></trkpt>
<trkpt lat="25.337675" lon="103.238866">
<time>2016-10-07T00:57:53Z</time></trkpt>
<trkpt lat="25.337605" lon="103.238786">
<time>2016-10-07T00:57:54Z</time></trkpt>
<trkpt lat="25.337545" lon="103.238686">
<time>2016-10-07T00:57:55Z</time></trkpt>
<trkpt lat="25.337505" lon="103.238596">
<time>2016-10-07T00:57:56Z</time></trkpt>
<trkpt lat="25.337495" lon="103.238536">
<time>2016-10-07T00:57:57Z</time></trkpt>
<trkpt lat="25.337475" lon="103.238486">
<time>2016-10-07T00:57:58Z</time></trkpt>
<trkpt lat="25.337465" lon="103.238436">
<time>2016-10-07T00:57:59Z</time></trkpt>
<trkpt lat="25.337465" lon="103.238376">
<time>2016-10-07T00:58:00Z</time></trkpt>
<trkpt lat="25.337475" lon="103.238286">
<time>2016-10-07T00:58:01Z</time></trkpt>
<trkpt lat="25.337514" lon="103.238076">
<time>2016-10-07T00:58:02Z</time></trkpt>
<trkpt lat="25.337594" lon="103.237827">
<time>2016-10-07T00:58:03Z</time></trkpt>
<trkpt lat="25.337794" lon="103.237237">
<time>2016-10-07T00:58:04Z</time></trkpt>
<trkpt lat="25.337874" lon="103.236957">
<time>2016-10-07T00:58:05Z</time></trkpt>
<trkpt lat="25.337964" lon="103.236677">
<time>2016-10-07T00:58:06Z</time></trkpt>
<trkpt lat="25.338094" lon="103.236297">
<time>2016-10-07T00:58:07Z</time></trkpt>
<trkpt lat="25.338124" lon="103.236197">
<time>2016-10-07T00:58:08Z</time></trkpt>
<trkpt lat="25.338144" lon="103.236097">
<time>2016-10-07T00:58:09Z</time></trkpt>
<trkpt lat="25.338154" lon="103.235987">
<time>2016-10-07T00:58:10Z</time></trkpt>
<trkpt lat="25.338154" lon="103.235887">
<time>2016-10-07T00:58:11Z</time></trkpt>
<trkpt lat="25.338144" lon="103.235857">
<time>2016-10-07T00:58:12Z</time></trkpt>
<trkpt lat="25.338134" lon="103.235807">
<time>2016-10-07T00:58:13Z</time></trkpt>
<trkpt lat="25.338104" lon="103.235757">
<time>2016-10-07T00:58:14Z</time></trkpt>
<trkpt lat="25.338064" lon="103.235687">
<time>2016-10-07T00:58:15Z</time></trkpt>
<trkpt lat="25.337973" lon="103.235587">
<time>2016-10-07T00:58:16Z</time></trkpt>
<trkpt lat="25.337703" lon="103.235327">
<time>2016-10-07T00:58:17Z</time></trkpt>
<trkpt lat="25.337353" lon="103.235007">
<time>2016-10-07T00:58:18Z</time></trkpt>
<trkpt lat="25.337133" lon="103.234797">
<time>2016-10-07T00:58:19Z</time></trkpt>
<trkpt lat="25.336423" lon="103.234157">
<time>2016-10-07T00:58:20Z</time></trkpt>
<trkpt lat="25.335132" lon="103.233027">
<time>2016-10-07T00:58:21Z</time></trkpt>
<trkpt lat="25.334321" lon="103.232257">
<time>2016-10-07T00:58:22Z</time></trkpt>
<trkpt lat="25.333351" lon="103.231377">
<time>2016-10-07T00:58:23Z</time></trkpt>
<trkpt lat="25.333211" lon="103.231247">
<time>2016-10-07T00:58:24Z</time></trkpt>
<trkpt lat="25.33267" lon="103.230797">
<time>2016-10-07T00:58:25Z</time></trkpt>
<trkpt lat="25.33248" lon="103.230637">
<time>2016-10-07T00:58:26Z</time></trkpt>
<trkpt lat="25.33238" lon="103.230567">
<time>2016-10-07T00:58:27Z</time></trkpt>
<trkpt lat="25.33231" lon="103.230517">
<time>2016-10-07T00:58:28Z</time></trkpt>
<trkpt lat="25.33224" lon="103.230487">
<time>2016-10-07T00:58:29Z</time></trkpt>
<trkpt lat="25.33213" lon="103.230437">
<time>2016-10-07T00:58:30Z</time></trkpt>
<trkpt lat="25.33203" lon="103.230397">
<time>2016-10-07T00:58:31Z</time></trkpt>
<trkpt lat="25.33193" lon="103.230357">
<time>2016-10-07T00:58:32Z</time></trkpt>
<trkpt lat="25.3318" lon="103.230317">
<time>2016-10-07T00:58:33Z</time></trkpt>
<trkpt lat="25.33164" lon="103.230257">
<time>2016-10-07T00:58:34Z</time></trkpt>
<trkpt lat="25.33153" lon="103.230227">
<time>2016-10-07T00:58:35Z</time></trkpt>
<trkpt lat="25.33142" lon="103.230187">
<time>2016-10-07T00:58:36Z</time></trkpt>
<trkpt lat="25.3311" lon="103.230097">
<time>2016-10-07T00:58:37Z</time></trkpt>
<trkpt lat="25.330799" lon="103.230007">
<time>2016-10-07T00:58:38Z</time></trkpt>
<trkpt lat="25.330559" lon="103.229937">
<time>2016-10-07T00:58:39Z</time></trkpt>
<trkpt lat="25.330449" lon="103.229907">
<time>2016-10-07T00:58:40Z</time></trkpt>
<trkpt lat="25.330049" lon="103.229787">
<time>2016-10-07T00:58:41Z</time></trkpt>
<trkpt lat="25.329829" lon="103.229717">
<time>2016-10-07T00:58:42Z</time></trkpt>
<trkpt lat="25.329739" lon="103.229687">
<time>2016-10-07T00:58:43Z</time></trkpt>
<trkpt lat="25.329659" lon="103.229667">
<time>2016-10-07T00:58:44Z</time></trkpt>
<trkpt lat="25.329569" lon="103.229637">
<time>2016-10-07T00:58:45Z</time></trkpt>
<trkpt lat="25.329539" lon="103.229617">
<time>2016-10-07T00:58:46Z</time></trkpt>
<trkpt lat="25.329449" lon="103.229587">
<time>2016-10-07T00:58:47Z</time></trkpt>
<trkpt lat="25.329399" lon="103.229557">
<time>2016-10-07T00:58:48Z</time></trkpt>
<trkpt lat="25.329339" lon="103.229527">
<time>2016-10-07T00:58:49Z</time></trkpt>
<trkpt lat="25.329309" lon="103.229517">
<time>2016-10-07T00:58:50Z</time></trkpt>
<trkpt lat="25.329269" lon="103.229487">
<time>2016-10-07T00:58:51Z</time></trkpt>
<trkpt lat="25.329209" lon="103.229457">
<time>2016-10-07T00:58:52Z</time></trkpt>
<trkpt lat="25.329149" lon="103.229427">
<time>2016-10-07T00:58:53Z</time></trkpt>
<trkpt lat="25.329089" lon="103.229387">
<time>2016-10-07T00:58:54Z</time></trkpt>
<trkpt lat="25.329019" lon="103.229337">
<time>2016-10-07T00:58:55Z</time></trkpt>
<trkpt lat="25.328979" lon="103.229317">
<time>2016-10-07T00:58:56Z</time></trkpt>
<trkpt lat="25.328939" lon="103.229287">
<time>2016-10-07T00:58:57Z</time></trkpt>
<trkpt lat="25.328879" lon="103.229237">
<time>2016-10-07T00:58:58Z</time></trkpt>
<trkpt lat="25.328809" lon="103.229177">
<time>2016-10-07T00:58:59Z</time></trkpt>
<trkpt lat="25.328739" lon="103.229127">
<time>2016-10-07T00:59:00Z</time></trkpt>
<trkpt lat="25.328659" lon="103.229057">
<time>2016-10-07T00:59:01Z</time></trkpt>
<trkpt lat="25.328499" lon="103.228917">
<time>2016-10-07T00:59:02Z</time></trkpt>
<trkpt lat="25.327968" lon="103.228447">
<time>2016-10-07T00:59:03Z</time></trkpt>
<trkpt lat="25.327448" lon="103.227987">
<time>2016-10-07T00:59:04Z</time></trkpt>
<trkpt lat="25.327047" lon="103.227657">
<time>2016-10-07T00:59:05Z</time></trkpt>
<trkpt lat="25.326877" lon="103.227517">
<time>2016-10-07T00:59:06Z</time></trkpt>
<trkpt lat="25.326747" lon="103.227417">
<time>2016-10-07T00:59:07Z</time></trkpt>
<trkpt lat="25.326677" lon="103.227367">
<time>2016-10-07T00:59:08Z</time></trkpt>
<trkpt lat="25.326527" lon="103.226977">
<time>2016-10-07T00:59:09Z</time></trkpt>
<trkpt lat="25.326457" lon="103.226787">
<time>2016-10-07T00:59:10Z</time></trkpt>
<trkpt lat="25.326417" lon="103.226627">
<time>2016-10-07T00:59:11Z</time></trkpt>
<trkpt lat="25.326386" lon="103.226457">
<time>2016-10-07T00:59:12Z</time></trkpt>
<trkpt lat="25.326175" lon="103.225097">
<time>2016-10-07T00:59:13Z</time></trkpt>
<trkpt lat="25.326115" lon="103.224757">
<time>2016-10-07T00:59:14Z</time></trkpt>
<trkpt lat="25.326025" lon="103.224266">
<time>2016-10-07T00:59:15Z</time></trkpt>
<trkpt lat="25.325954" lon="103.224046">
<time>2016-10-07T00:59:16Z</time></trkpt>
<trkpt lat="25.325834" lon="103.223846">
<time>2016-10-07T00:59:17Z</time></trkpt>
<trkpt lat="25.325774" lon="103.223766">
<time>2016-10-07T00:59:18Z</time></trkpt>
<trkpt lat="25.325654" lon="103.223656">
<time>2016-10-07T00:59:19Z</time></trkpt>
<trkpt lat="25.325514" lon="103.223576">
<time>2016-10-07T00:59:20Z</time></trkpt>
<trkpt lat="25.325384" lon="103.223526">
<time>2016-10-07T00:59:21Z</time></trkpt>
<trkpt lat="25.325284" lon="103.223496">
<time>2016-10-07T00:59:22Z</time></trkpt>
<trkpt lat="25.325204" lon="103.223486">
<time>2016-10-07T00:59:23Z</time></trkpt>
<trkpt lat="25.325094" lon="103.223486">
<time>2016-10-07T00:59:24Z</time></trkpt>
<trkpt lat="25.324924" lon="103.223496">
<time>2016-10-07T00:59:25Z</time></trkpt>
<trkpt lat="25.324804" lon="103.223516">
<time>2016-10-07T00:59:26Z</time></trkpt>
<trkpt lat="25.324634" lon="103.223566">
<time>2016-10-07T00:59:27Z</time></trkpt>
<trkpt lat="25.324164" lon="103.223736">
<time>2016-10-07T00:59:28Z</time></trkpt>
<trkpt lat="25.323934" lon="103.223826">
<time>2016-10-07T00:59:29Z</time></trkpt>
<trkpt lat="25.323764" lon="103.223906">
<time>2016-10-07T00:59:30Z</time></trkpt>
<trkpt lat="25.323504" lon="103.224056">
<time>2016-10-07T00:59:31Z</time></trkpt>
<trkpt lat="25.323364" lon="103.224157">
<time>2016-10-07T00:59:32Z</time></trkpt>
<trkpt lat="25.323034" lon="103.224387">
<time>2016-10-07T00:59:33Z</time></trkpt>
<trkpt lat="25.322765" lon="103.224577">
<time>2016-10-07T00:59:34Z</time></trkpt>
<trkpt lat="25.322695" lon="103.224617">
<time>2016-10-07T00:59:35Z</time></trkpt>
<trkpt lat="25.322685" lon="103.224627">
<time>2016-10-07T00:59:36Z</time></trkpt>
<trkpt lat="25.322615" lon="103.224657">
<time>2016-10-07T00:59:37Z</time></trkpt>
<trkpt lat="25.322575" lon="103.224667">
<time>2016-10-07T00:59:38Z</time></trkpt>
<trkpt lat="25.322525" lon="103.224677">
<time>2016-10-07T00:59:39Z</time></trkpt>
<trkpt lat="25.322455" lon="103.224687">
<time>2016-10-07T00:59:40Z</time></trkpt>
<trkpt lat="25.322405" lon="103.224687">
<time>2016-10-07T00:59:41Z</time></trkpt>
<trkpt lat="25.322135" lon="103.224677">
<time>2016-10-07T00:59:42Z</time></trkpt>
<trkpt lat="25.321705" lon="103.224657">
<time>2016-10-07T00:59:43Z</time></trkpt>
<trkpt lat="25.320634" lon="103.224407">
<time>2016-10-07T00:59:44Z</time></trkpt>
<trkpt lat="25.318373" lon="103.223767">
<time>2016-10-07T00:59:45Z</time></trkpt>
<trkpt lat="25.317013" lon="103.223376">
<time>2016-10-07T00:59:46Z</time></trkpt>
<trkpt lat="25.316263" lon="103.223156">
<time>2016-10-07T00:59:47Z</time></trkpt>
<trkpt lat="25.316233" lon="103.223146">
<time>2016-10-07T00:59:48Z</time></trkpt>
<trkpt lat="25.315062" lon="103.222786">
<time>2016-10-07T00:59:49Z</time></trkpt>
<trkpt lat="25.314102" lon="103.222486">
<time>2016-10-07T00:59:50Z</time></trkpt>
<trkpt lat="25.313502" lon="103.222306">
<time>2016-10-07T00:59:51Z</time></trkpt>
<trkpt lat="25.312731" lon="103.222036">
<time>2016-10-07T00:59:52Z</time></trkpt>
<trkpt lat="25.311671" lon="103.221666">
<time>2016-10-07T00:59:53Z</time></trkpt>
<trkpt lat="25.311371" lon="103.221556">
<time>2016-10-07T00:59:54Z</time></trkpt>
<trkpt lat="25.310921" lon="103.221396">
<time>2016-10-07T00:59:55Z</time></trkpt>
<trkpt lat="25.310811" lon="103.221356">
<time>2016-10-07T00:59:56Z</time></trkpt>
<trkpt lat="25.31005" lon="103.221096">
<time>2016-10-07T00:59:57Z</time></trkpt>
<trkpt lat="25.30986" lon="103.221046">
<time>2016-10-07T00:59:58Z</time></trkpt>
<trkpt lat="25.30973" lon="103.221006">
<time>2016-10-07T00:59:59Z</time></trkpt>
<trkpt lat="25.30961" lon="103.220946">
<time>2016-10-07T01:00:00Z</time></trkpt>
<trkpt lat="25.30951" lon="103.220866">
<time>2016-10-07T01:00:01Z</time></trkpt>
<trkpt lat="25.30941" lon="103.220766">
<time>2016-10-07T01:00:02Z</time></trkpt>
<trkpt lat="25.30914" lon="103.220526">
<time>2016-10-07T01:00:03Z</time></trkpt>
<trkpt lat="25.308849" lon="103.220256">
<time>2016-10-07T01:00:04Z</time></trkpt>
<trkpt lat="25.308569" lon="103.219995">
<time>2016-10-07T01:00:05Z</time></trkpt>
<trkpt lat="25.308469" lon="103.219915">
<time>2016-10-07T01:00:06Z</time></trkpt>
<trkpt lat="25.308239" lon="103.219755">
<time>2016-10-07T01:00:07Z</time></trkpt>
<trkpt lat="25.306808" lon="103.218765">
<time>2016-10-07T01:00:08Z</time></trkpt>
<trkpt lat="25.306257" lon="103.218395">
<time>2016-10-07T01:00:09Z</time></trkpt>
<trkpt lat="25.306097" lon="103.218265">
<time>2016-10-07T01:00:10Z</time></trkpt>
<trkpt lat="25.305907" lon="103.218065">
<time>2016-10-07T01:00:11Z</time></trkpt>
<trkpt lat="25.305696" lon="103.217814">
<time>2016-10-07T01:00:12Z</time></trkpt>
<trkpt lat="25.305276" lon="103.217424">
<time>2016-10-07T01:00:13Z</time></trkpt>
<trkpt lat="25.305126" lon="103.217334">
<time>2016-10-07T01:00:14Z</time></trkpt>
<trkpt lat="25.305006" lon="103.217304">
<time>2016-10-07T01:00:15Z</time></trkpt>
<trkpt lat="25.304906" lon="103.217304">
<time>2016-10-07T01:00:16Z</time></trkpt>
<trkpt lat="25.304786" lon="103.217324">
<time>2016-10-07T01:00:17Z</time></trkpt>
<trkpt lat="25.303347" lon="103.218025">
<time>2016-10-07T01:00:18Z</time></trkpt>
<trkpt lat="25.303237" lon="103.218065">
<time>2016-10-07T01:00:19Z</time></trkpt>
<trkpt lat="25.302967" lon="103.218215">
<time>2016-10-07T01:00:20Z</time></trkpt>
<trkpt lat="25.302967" lon="103.218215">
<time>2016-10-07T01:00:21Z</time></trkpt>
<trkpt lat="25.302747" lon="103.218125">
<time>2016-10-07T01:00:22Z</time></trkpt>
<trkpt lat="25.302486" lon="103.218015">
<time>2016-10-07T01:00:23Z</time></trkpt>
<trkpt lat="25.302396" lon="103.217975">
<time>2016-10-07T01:00:24Z</time></trkpt>
<trkpt lat="25.302246" lon="103.217905">
<time>2016-10-07T01:00:25Z</time></trkpt>
<trkpt lat="25.302136" lon="103.217865">
<time>2016-10-07T01:00:26Z</time></trkpt>
<trkpt lat="25.301866" lon="103.217745">
<time>2016-10-07T01:00:27Z</time></trkpt>
<trkpt lat="25.301606" lon="103.217635">
<time>2016-10-07T01:00:28Z</time></trkpt>
<trkpt lat="25.301186" lon="103.217464">
<time>2016-10-07T01:00:29Z</time></trkpt>
<trkpt lat="25.300746" lon="103.217284">
<time>2016-10-07T01:00:30Z</time></trkpt>
<trkpt lat="25.300215" lon="103.217064">
<time>2016-10-07T01:00:31Z</time></trkpt>
<trkpt lat="25.300035" lon="103.216974">
<time>2016-10-07T01:00:32Z</time></trkpt>
<trkpt lat="25.299705" lon="103.216804">
<time>2016-10-07T01:00:33Z</time></trkpt>
<trkpt lat="25.299575" lon="103.216744">
<time>2016-10-07T01:00:34Z</time></trkpt>
<trkpt lat="25.299445" lon="103.216664">
<time>2016-10-07T01:00:35Z</time></trkpt>
<trkpt lat="25.299335" lon="103.216594">
<time>2016-10-07T01:00:36Z</time></trkpt>
<trkpt lat="25.299245" lon="103.216524">
<time>2016-10-07T01:00:37Z</time></trkpt>
<trkpt lat="25.299175" lon="103.216474">
<time>2016-10-07T01:00:38Z</time></trkpt>
<trkpt lat="25.299114" lon="103.216414">
<time>2016-10-07T01:00:39Z</time></trkpt>
<trkpt lat="25.299074" lon="103.216384">
<time>2016-10-07T01:00:40Z</time></trkpt>
<trkpt lat="25.298994" lon="103.216324">
<time>2016-10-07T01:00:41Z</time></trkpt>
<trkpt lat="25.298954" lon="103.216294">
<time>2016-10-07T01:00:42Z</time></trkpt>
<trkpt lat="25.298904" lon="103.216244">
<time>2016-10-07T01:00:43Z</time></trkpt>
<trkpt lat="25.298864" lon="103.216204">
<time>2016-10-07T01:00:44Z</time></trkpt>
<trkpt lat="25.298814" lon="103.216154">
<time>2016-10-07T01:00:45Z</time></trkpt>
<trkpt lat="25.298774" lon="103.216124">
<time>2016-10-07T01:00:46Z</time></trkpt>
<trkpt lat="25.298744" lon="103.216084">
<time>2016-10-07T01:00:47Z</time></trkpt>
<trkpt lat="25.298714" lon="103.216044">
<time>2016-10-07T01:00:48Z</time></trkpt>
<trkpt lat="25.298674" lon="103.216004">
<time>2016-10-07T01:00:49Z</time></trkpt>
<trkpt lat="25.298624" lon="103.215934">
<time>2016-10-07T01:00:50Z</time></trkpt>
<trkpt lat="25.298574" lon="103.215874">
<time>2016-10-07T01:00:51Z</time></trkpt>
<trkpt lat="25.298524" lon="103.215804">
<time>2016-10-07T01:00:52Z</time></trkpt>
<trkpt lat="25.298474" lon="103.215734">
<time>2016-10-07T01:00:53Z</time></trkpt>
<trkpt lat="25.298404" lon="103.215614">
<time>2016-10-07T01:00:54Z</time></trkpt>
<trkpt lat="25.298313" lon="103.215463">
<time>2016-10-07T01:00:55Z</time></trkpt>
<trkpt lat="25.298273" lon="103.215393">
<time>2016-10-07T01:00:56Z</time></trkpt>
<trkpt lat="25.298243" lon="103.215333">
<time>2016-10-07T01:00:57Z</time></trkpt>
<trkpt lat="25.298213" lon="103.215273">
<time>2016-10-07T01:00:58Z</time></trkpt>
<trkpt lat="25.298183" lon="103.215213">
<time>2016-10-07T01:00:59Z</time></trkpt>
<trkpt lat="25.298153" lon="103.215133">
<time>2016-10-07T01:01:00Z</time></trkpt>
<trkpt lat="25.298123" lon="103.215053">
<time>2016-10-07T01:01:01Z</time></trkpt>
<trkpt lat="25.298083" lon="103.214953">
<time>2016-10-07T01:01:02Z</time></trkpt>
<trkpt lat="25.298043" lon="103.214843">
<time>2016-10-07T01:01:03Z</time></trkpt>
<trkpt lat="25.298023" lon="103.214803">
<time>2016-10-07T01:01:04Z</time></trkpt>
<trkpt lat="25.297992" lon="103.214743">
<time>2016-10-07T01:01:05Z</time></trkpt>
<trkpt lat="25.297962" lon="103.214673">
<time>2016-10-07T01:01:06Z</time></trkpt>
<trkpt lat="25.297912" lon="103.214573">
<time>2016-10-07T01:01:07Z</time></trkpt>
<trkpt lat="25.297882" lon="103.214493">
<time>2016-10-07T01:01:08Z</time></trkpt>
<trkpt lat="25.297832" lon="103.214393">
<time>2016-10-07T01:01:09Z</time></trkpt>
<trkpt lat="25.297802" lon="103.214313">
<time>2016-10-07T01:01:10Z</time></trkpt>
<trkpt lat="25.297782" lon="103.214243">
<time>2016-10-07T01:01:11Z</time></trkpt>
<trkpt lat="25.297762" lon="103.214183">
<time>2016-10-07T01:01:12Z</time></trkpt>
<trkpt lat="25.297752" lon="103.214153">
<time>2016-10-07T01:01:13Z</time></trkpt>
<trkpt lat="25.297742" lon="103.214113">
<time>2016-10-07T01:01:14Z</time></trkpt>
<trkpt lat="25.297732" lon="103.214073">
<time>2016-10-07T01:01:15Z</time></trkpt>
<trkpt lat="25.297712" lon="103.214023">
<time>2016-10-07T01:01:16Z</time></trkpt>
<trkpt lat="25.297702" lon="103.213973">
<time>2016-10-07T01:01:17Z</time></trkpt>
<trkpt lat="25.297691" lon="103.213922">
<time>2016-10-07T01:01:18Z</time></trkpt>
<trkpt lat="25.297681" lon="103.213872">
<time>2016-10-07T01:01:19Z</time></trkpt>
<trkpt lat="25.297661" lon="103.213772">
<time>2016-10-07T01:01:20Z</time></trkpt>
<trkpt lat="25.297641" lon="103.213642">
<time>2016-10-07T01:01:21Z</time></trkpt>
<trkpt lat="25.297611" lon="103.213502">
<time>2016-10-07T01:01:22Z</time></trkpt>
<trkpt lat="25.297591" lon="103.213412">
<time>2016-10-07T01:01:23Z</time></trkpt>
<trkpt lat="25.297581" lon="103.213332">
<time>2016-10-07T01:01:24Z</time></trkpt>
<trkpt lat="25.297571" lon="103.213262">
<time>2016-10-07T01:01:25Z</time></trkpt>
<trkpt lat="25.297561" lon="103.213192">
<time>2016-10-07T01:01:26Z</time></trkpt>
<trkpt lat="25.297551" lon="103.213142">
<time>2016-10-07T01:01:27Z</time></trkpt>
<trkpt lat="25.29754" lon="103.213062">
<time>2016-10-07T01:01:28Z</time></trkpt>
<trkpt lat="25.29754" lon="103.212982">
<time>2016-10-07T01:01:29Z</time></trkpt>
<trkpt lat="25.29754" lon="103.212932">
<time>2016-10-07T01:01:30Z</time></trkpt>
<trkpt lat="25.29755" lon="103.212872">
<time>2016-10-07T01:01:31Z</time></trkpt>
<trkpt lat="25.29756" lon="103.212802">
<time>2016-10-07T01:01:32Z</time></trkpt>
<trkpt lat="25.29757" lon="103.212732">
<time>2016-10-07T01:01:33Z</time></trkpt>
<trkpt lat="25.29758" lon="103.212672">
<time>2016-10-07T01:01:34Z</time></trkpt>
<trkpt lat="25.29759" lon="103.212622">
<time>2016-10-07T01:01:35Z</time></trkpt>
<trkpt lat="25.29761" lon="103.212562">
<time>2016-10-07T01:01:36Z</time></trkpt>
<trkpt lat="25.29763" lon="103.212522">
<time>2016-10-07T01:01:37Z</time></trkpt>
<trkpt lat="25.29764" lon="103.212482">
<time>2016-10-07T01:01:38Z</time></trkpt>
<trkpt lat="25.29768" lon="103.212411">
<time>2016-10-07T01:01:39Z</time></trkpt>
<trkpt lat="25.29772" lon="103.212341">
<time>2016-10-07T01:01:40Z</time></trkpt>
<trkpt lat="25.297749" lon="103.212271">
<time>2016-10-07T01:01:41Z</time></trkpt>
<trkpt lat="25.297759" lon="103.212261">
<time>2016-10-07T01:01:42Z</time></trkpt>
<trkpt lat="25.297789" lon="103.212191">
<time>2016-10-07T01:01:43Z</time></trkpt>
<trkpt lat="25.297969" lon="103.211761">
<time>2016-10-07T01:01:44Z</time></trkpt>
<trkpt lat="25.298009" lon="103.211671">
<time>2016-10-07T01:01:45Z</time></trkpt>
<trkpt lat="25.298078" lon="103.211461">
<time>2016-10-07T01:01:46Z</time></trkpt>
<trkpt lat="25.298108" lon="103.211381">
<time>2016-10-07T01:01:47Z</time></trkpt>
<trkpt lat="25.298308" lon="103.21077">
<time>2016-10-07T01:01:48Z</time></trkpt>
<trkpt lat="25.298457" lon="103.21011">
<time>2016-10-07T01:01:49Z</time></trkpt>
<trkpt lat="25.298486" lon="103.20989">
<time>2016-10-07T01:01:50Z</time></trkpt>
<trkpt lat="25.298496" lon="103.209689">
<time>2016-10-07T01:01:51Z</time></trkpt>
<trkpt lat="25.298466" lon="103.209519">
<time>2016-10-07T01:01:52Z</time></trkpt>
<trkpt lat="25.298376" lon="103.209219">
<time>2016-10-07T01:01:53Z</time></trkpt>
<trkpt lat="25.298265" lon="103.209009">
<time>2016-10-07T01:01:54Z</time></trkpt>
<trkpt lat="25.298035" lon="103.208709">
<time>2016-10-07T01:01:55Z</time></trkpt>
<trkpt lat="25.297815" lon="103.208438">
<time>2016-10-07T01:01:56Z</time></trkpt>
<trkpt lat="25.297534" lon="103.208208">
<time>2016-10-07T01:01:57Z</time></trkpt>
<trkpt lat="25.297304" lon="103.208038">
<time>2016-10-07T01:01:58Z</time></trkpt>
<trkpt lat="25.297164" lon="103.207858">
<time>2016-10-07T01:01:59Z</time></trkpt>
<trkpt lat="25.297033" lon="103.207628">
<time>2016-10-07T01:02:00Z</time></trkpt>
<trkpt lat="25.296602" lon="103.206567">
<time>2016-10-07T01:02:01Z</time></trkpt>
<trkpt lat="25.296562" lon="103.206447">
<time>2016-10-07T01:02:02Z</time></trkpt>
<trkpt lat="25.296511" lon="103.206277">
<time>2016-10-07T01:02:03Z</time></trkpt>
<trkpt lat="25.296451" lon="103.206097">
<time>2016-10-07T01:02:04Z</time></trkpt>
<trkpt lat="25.296381" lon="103.205866">
<time>2016-10-07T01:02:05Z</time></trkpt>
<trkpt lat="25.296331" lon="103.205696">
<time>2016-10-07T01:02:06Z</time></trkpt>
<trkpt lat="25.29628" lon="103.205516">
<time>2016-10-07T01:02:07Z</time></trkpt>
<trkpt lat="25.29615" lon="103.205036">
<time>2016-10-07T01:02:08Z</time></trkpt>
<trkpt lat="25.296069" lon="103.204775">
<time>2016-10-07T01:02:09Z</time></trkpt>
<trkpt lat="25.296039" lon="103.204655">
<time>2016-10-07T01:02:10Z</time></trkpt>
<trkpt lat="25.295999" lon="103.204545">
<time>2016-10-07T01:02:11Z</time></trkpt>
<trkpt lat="25.295969" lon="103.204435">
<time>2016-10-07T01:02:12Z</time></trkpt>
<trkpt lat="25.295939" lon="103.204305">
<time>2016-10-07T01:02:13Z</time></trkpt>
<trkpt lat="25.295818" lon="103.203875">
<time>2016-10-07T01:02:14Z</time></trkpt>
<trkpt lat="25.295737" lon="103.203564">
<time>2016-10-07T01:02:15Z</time></trkpt>
<trkpt lat="25.295707" lon="103.203424">
<time>2016-10-07T01:02:16Z</time></trkpt>
<trkpt lat="25.295677" lon="103.203274">
<time>2016-10-07T01:02:17Z</time></trkpt>
<trkpt lat="25.295566" lon="103.202834">
<time>2016-10-07T01:02:18Z</time></trkpt>
<trkpt lat="25.295506" lon="103.202593">
<time>2016-10-07T01:02:19Z</time></trkpt>
<trkpt lat="25.295395" lon="103.202193">
<time>2016-10-07T01:02:20Z</time></trkpt>
<trkpt lat="25.295355" lon="103.202023">
<time>2016-10-07T01:02:21Z</time></trkpt>
<trkpt lat="25.295305" lon="103.201833">
<time>2016-10-07T01:02:22Z</time></trkpt>
<trkpt lat="25.295174" lon="103.201462">
<time>2016-10-07T01:02:23Z</time></trkpt>
<trkpt lat="25.295054" lon="103.201062">
<time>2016-10-07T01:02:24Z</time></trkpt>
<trkpt lat="25.294893" lon="103.200561">
<time>2016-10-07T01:02:25Z</time></trkpt>
<trkpt lat="25.294702" lon="103.199851">
<time>2016-10-07T01:02:26Z</time></trkpt>
<trkpt lat="25.294641" lon="103.19964">
<time>2016-10-07T01:02:27Z</time></trkpt>
<trkpt lat="25.294511" lon="103.19916">
<time>2016-10-07T01:02:28Z</time></trkpt>
<trkpt lat="25.29443" lon="103.19887">
<time>2016-10-07T01:02:29Z</time></trkpt>
<trkpt lat="25.29433" lon="103.198479">
<time>2016-10-07T01:02:30Z</time></trkpt>
<trkpt lat="25.294299" lon="103.198359">
<time>2016-10-07T01:02:31Z</time></trkpt>
<trkpt lat="25.294259" lon="103.198249">
<time>2016-10-07T01:02:32Z</time></trkpt>
<trkpt lat="25.294219" lon="103.198129">
<time>2016-10-07T01:02:33Z</time></trkpt>
<trkpt lat="25.294159" lon="103.198009">
<time>2016-10-07T01:02:34Z</time></trkpt>
<trkpt lat="25.294109" lon="103.197929">
<time>2016-10-07T01:02:35Z</time></trkpt>
<trkpt lat="25.294079" lon="103.197868">
<time>2016-10-07T01:02:36Z</time></trkpt>
<trkpt lat="25.294039" lon="103.197818">
<time>2016-10-07T01:02:37Z</time></trkpt>
<trkpt lat="25.293978" lon="103.197748">
<time>2016-10-07T01:02:38Z</time></trkpt>
<trkpt lat="25.293938" lon="103.197688">
<time>2016-10-07T01:02:39Z</time></trkpt>
<trkpt lat="25.293868" lon="103.197618">
<time>2016-10-07T01:02:40Z</time></trkpt>
<trkpt lat="25.293788" lon="103.197528">
<time>2016-10-07T01:02:41Z</time></trkpt>
<trkpt lat="25.293718" lon="103.197438">
<time>2016-10-07T01:02:42Z</time></trkpt>
<trkpt lat="25.293658" lon="103.197348">
<time>2016-10-07T01:02:43Z</time></trkpt>
<trkpt lat="25.293608" lon="103.197268">
<time>2016-10-07T01:02:44Z</time></trkpt>
<trkpt lat="25.293568" lon="103.197188">
<time>2016-10-07T01:02:45Z</time></trkpt>
<trkpt lat="25.293537" lon="103.197098">
<time>2016-10-07T01:02:46Z</time></trkpt>
<trkpt lat="25.293497" lon="103.196988">
<time>2016-10-07T01:02:47Z</time></trkpt>
<trkpt lat="25.293457" lon="103.196857">
<time>2016-10-07T01:02:48Z</time></trkpt>
<trkpt lat="25.293427" lon="103.196757">
<time>2016-10-07T01:02:49Z</time></trkpt>
<trkpt lat="25.293386" lon="103.196557">
<time>2016-10-07T01:02:50Z</time></trkpt>
<trkpt lat="25.293366" lon="103.196467">
<time>2016-10-07T01:02:51Z</time></trkpt>
<trkpt lat="25.293356" lon="103.196357">
<time>2016-10-07T01:02:52Z</time></trkpt>
<trkpt lat="25.293336" lon="103.196257">
<time>2016-10-07T01:02:53Z</time></trkpt>
<trkpt lat="25.293326" lon="103.196127">
<time>2016-10-07T01:02:54Z</time></trkpt>
<trkpt lat="25.293326" lon="103.196057">
<time>2016-10-07T01:02:55Z</time></trkpt>
<trkpt lat="25.293316" lon="103.195966">
<time>2016-10-07T01:02:56Z</time></trkpt>
<trkpt lat="25.293315" lon="103.195846">
<time>2016-10-07T01:02:57Z</time></trkpt>
<trkpt lat="25.293315" lon="103.195766">
<time>2016-10-07T01:02:58Z</time></trkpt>
<trkpt lat="25.293315" lon="103.195706">
<time>2016-10-07T01:02:59Z</time></trkpt>
<trkpt lat="25.293325" lon="103.195626">
<time>2016-10-07T01:03:00Z</time></trkpt>
<trkpt lat="25.293335" lon="103.195566">
<time>2016-10-07T01:03:01Z</time></trkpt>
<trkpt lat="25.293335" lon="103.195506">
<time>2016-10-07T01:03:02Z</time></trkpt>
<trkpt lat="25.293355" lon="103.195426">
<time>2016-10-07T01:03:03Z</time></trkpt>
<trkpt lat="25.293365" lon="103.195356">
<time>2016-10-07T01:03:04Z</time></trkpt>
<trkpt lat="25.293384" lon="103.195246">
<time>2016-10-07T01:03:05Z</time></trkpt>
<trkpt lat="25.293404" lon="103.195165">
<time>2016-10-07T01:03:06Z</time></trkpt>
<trkpt lat="25.293444" lon="103.195045">
<time>2016-10-07T01:03:07Z</time></trkpt>
<trkpt lat="25.293693" lon="103.194174">
<time>2016-10-07T01:03:08Z</time></trkpt>
<trkpt lat="25.293852" lon="103.193634">
<time>2016-10-07T01:03:09Z</time></trkpt>
<trkpt lat="25.293882" lon="103.193534">
<time>2016-10-07T01:03:10Z</time></trkpt>
<trkpt lat="25.293911" lon="103.193443">
<time>2016-10-07T01:03:11Z</time></trkpt>
<trkpt lat="25.293951" lon="103.193293">
<time>2016-10-07T01:03:12Z</time></trkpt>
<trkpt lat="25.293981" lon="103.193173">
<time>2016-10-07T01:03:13Z</time></trkpt>
<trkpt lat="25.294011" lon="103.193063">
<time>2016-10-07T01:03:14Z</time></trkpt>
<trkpt lat="25.29408" lon="103.192833">
<time>2016-10-07T01:03:15Z</time></trkpt>
<trkpt lat="25.294259" lon="103.192202">
<time>2016-10-07T01:03:16Z</time></trkpt>
<trkpt lat="25.294329" lon="103.191992">
<time>2016-10-07T01:03:17Z</time></trkpt>
<trkpt lat="25.294379" lon="103.191792">
<time>2016-10-07T01:03:18Z</time></trkpt>
<trkpt lat="25.294388" lon="103.191721">
<time>2016-10-07T01:03:19Z</time></trkpt>
<trkpt lat="25.294398" lon="103.191641">
<time>2016-10-07T01:03:20Z</time></trkpt>
<trkpt lat="25.294408" lon="103.191581">
<time>2016-10-07T01:03:21Z</time></trkpt>
<trkpt lat="25.294408" lon="103.191501">
<time>2016-10-07T01:03:22Z</time></trkpt>
<trkpt lat="25.294408" lon="103.191411">
<time>2016-10-07T01:03:23Z</time></trkpt>
<trkpt lat="25.294398" lon="103.191341">
<time>2016-10-07T01:03:24Z</time></trkpt>
<trkpt lat="25.294388" lon="103.191271">
<time>2016-10-07T01:03:25Z</time></trkpt>
<trkpt lat="25.294368" lon="103.191181">
<time>2016-10-07T01:03:26Z</time></trkpt>
<trkpt lat="25.294327" lon="103.191071">
<time>2016-10-07T01:03:27Z</time></trkpt>
<trkpt lat="25.294267" lon="103.19086">
<time>2016-10-07T01:03:28Z</time></trkpt>
<trkpt lat="25.294247" lon="103.19077">
<time>2016-10-07T01:03:29Z</time></trkpt>
<trkpt lat="25.294217" lon="103.19066">
<time>2016-10-07T01:03:30Z</time></trkpt>
<trkpt lat="25.294206" lon="103.19058">
<time>2016-10-07T01:03:31Z</time></trkpt>
<trkpt lat="25.294206" lon="103.19049">
<time>2016-10-07T01:03:32Z</time></trkpt>
<trkpt lat="25.294196" lon="103.19031">
<time>2016-10-07T01:03:33Z</time></trkpt>
<trkpt lat="25.294206" lon="103.190029">
<time>2016-10-07T01:03:34Z</time></trkpt>
<trkpt lat="25.294205" lon="103.189929">
<time>2016-10-07T01:03:35Z</time></trkpt>
<trkpt lat="25.294205" lon="103.189839">
<time>2016-10-07T01:03:36Z</time></trkpt>
<trkpt lat="25.294215" lon="103.189759">
<time>2016-10-07T01:03:37Z</time></trkpt>
<trkpt lat="25.294215" lon="103.189689">
<time>2016-10-07T01:03:38Z</time></trkpt>
<trkpt lat="25.294215" lon="103.189629">
<time>2016-10-07T01:03:39Z</time></trkpt>
<trkpt lat="25.294215" lon="103.189569">
<time>2016-10-07T01:03:40Z</time></trkpt>
<trkpt lat="25.294225" lon="103.189499">
<time>2016-10-07T01:03:41Z</time></trkpt>
<trkpt lat="25.294234" lon="103.189399">
<time>2016-10-07T01:03:42Z</time></trkpt>
<trkpt lat="25.294244" lon="103.189308">
<time>2016-10-07T01:03:43Z</time></trkpt>
<trkpt lat="25.294244" lon="103.189198">
<time>2016-10-07T01:03:44Z</time></trkpt>
<trkpt lat="25.294254" lon="103.189108">
<time>2016-10-07T01:03:45Z</time></trkpt>
<trkpt lat="25.294254" lon="103.189038">
<time>2016-10-07T01:03:46Z</time></trkpt>
<trkpt lat="25.294264" lon="103.188868">
<time>2016-10-07T01:03:47Z</time></trkpt>
<trkpt lat="25.294273" lon="103.188688">
<time>2016-10-07T01:03:48Z</time></trkpt>
<trkpt lat="25.294273" lon="103.188618">
<time>2016-10-07T01:03:49Z</time></trkpt>
<trkpt lat="25.294273" lon="103.188558">
<time>2016-10-07T01:03:50Z</time></trkpt>
<trkpt lat="25.294273" lon="103.188447">
<time>2016-10-07T01:03:51Z</time></trkpt>
<trkpt lat="25.294263" lon="103.188337">
<time>2016-10-07T01:03:52Z</time></trkpt>
<trkpt lat="25.294252" lon="103.188257">
<time>2016-10-07T01:03:53Z</time></trkpt>
<trkpt lat="25.294242" lon="103.188177">
<time>2016-10-07T01:03:54Z</time></trkpt>
<trkpt lat="25.294232" lon="103.188097">
<time>2016-10-07T01:03:55Z</time></trkpt>
<trkpt lat="25.294212" lon="103.187997">
<time>2016-10-07T01:03:56Z</time></trkpt>
<trkpt lat="25.294192" lon="103.187887">
<time>2016-10-07T01:03:57Z</time></trkpt>
<trkpt lat="25.294172" lon="103.187807">
<time>2016-10-07T01:03:58Z</time></trkpt>
<trkpt lat="25.294142" lon="103.187726">
<time>2016-10-07T01:03:59Z</time></trkpt>
<trkpt lat="25.294101" lon="103.187596">
<time>2016-10-07T01:04:00Z</time></trkpt>
<trkpt lat="25.294061" lon="103.187486">
<time>2016-10-07T01:04:01Z</time></trkpt>
<trkpt lat="25.294021" lon="103.187406">
<time>2016-10-07T01:04:02Z</time></trkpt>
<trkpt lat="25.293981" lon="103.187306">
<time>2016-10-07T01:04:03Z</time></trkpt>
<trkpt lat="25.293921" lon="103.187186">
<time>2016-10-07T01:04:04Z</time></trkpt>
<trkpt lat="25.29387" lon="103.187096">
<time>2016-10-07T01:04:05Z</time></trkpt>
<trkpt lat="25.29382" lon="103.187006">
<time>2016-10-07T01:04:06Z</time></trkpt>
<trkpt lat="25.29378" lon="103.186935">
<time>2016-10-07T01:04:07Z</time></trkpt>
<trkpt lat="25.29374" lon="103.186865">
<time>2016-10-07T01:04:08Z</time></trkpt>
<trkpt lat="25.29369" lon="103.186795">
<time>2016-10-07T01:04:09Z</time></trkpt>
<trkpt lat="25.29365" lon="103.186745">
<time>2016-10-07T01:04:10Z</time></trkpt>
<trkpt lat="25.2936" lon="103.186675">
<time>2016-10-07T01:04:11Z</time></trkpt>
<trkpt lat="25.293529" lon="103.186585">
<time>2016-10-07T01:04:12Z</time></trkpt>
<trkpt lat="25.293399" lon="103.186435">
<time>2016-10-07T01:04:13Z</time></trkpt>
<trkpt lat="25.293299" lon="103.186315">
<time>2016-10-07T01:04:14Z</time></trkpt>
<trkpt lat="25.293159" lon="103.186134">
<time>2016-10-07T01:04:15Z</time></trkpt>
<trkpt lat="25.293048" lon="103.185984">
<time>2016-10-07T01:04:16Z</time></trkpt>
<trkpt lat="25.292858" lon="103.185734">
<time>2016-10-07T01:04:17Z</time></trkpt>
<trkpt lat="25.292677" lon="103.185464">
<time>2016-10-07T01:04:18Z</time></trkpt>
<trkpt lat="25.292477" lon="103.185203">
<time>2016-10-07T01:04:19Z</time></trkpt>
<trkpt lat="25.292377" lon="103.185063">
<time>2016-10-07T01:04:20Z</time></trkpt>
<trkpt lat="25.292276" lon="103.184923">
<time>2016-10-07T01:04:21Z</time></trkpt>
<trkpt lat="25.292216" lon="103.184823">
<time>2016-10-07T01:04:22Z</time></trkpt>
<trkpt lat="25.292156" lon="103.184723">
<time>2016-10-07T01:04:23Z</time></trkpt>
<trkpt lat="25.292076" lon="103.184603">
<time>2016-10-07T01:04:24Z</time></trkpt>
<trkpt lat="25.292046" lon="103.184542">
<time>2016-10-07T01:04:25Z</time></trkpt>
<trkpt lat="25.292016" lon="103.184492">
<time>2016-10-07T01:04:26Z</time></trkpt>
<trkpt lat="25.291985" lon="103.184432">
<time>2016-10-07T01:04:27Z</time></trkpt>
<trkpt lat="25.291955" lon="103.184382">
<time>2016-10-07T01:04:28Z</time></trkpt>
<trkpt lat="25.291925" lon="103.184312">
<time>2016-10-07T01:04:29Z</time></trkpt>
<trkpt lat="25.291885" lon="103.184232">
<time>2016-10-07T01:04:30Z</time></trkpt>
<trkpt lat="25.291845" lon="103.184152">
<time>2016-10-07T01:04:31Z</time></trkpt>
<trkpt lat="25.291765" lon="103.184002">
<time>2016-10-07T01:04:32Z</time></trkpt>
<trkpt lat="25.291725" lon="103.183922">
<time>2016-10-07T01:04:33Z</time></trkpt>
<trkpt lat="25.291664" lon="103.183811">
<time>2016-10-07T01:04:34Z</time></trkpt>
<trkpt lat="25.291624" lon="103.183721">
<time>2016-10-07T01:04:35Z</time></trkpt>
<trkpt lat="25.291584" lon="103.183631">
<time>2016-10-07T01:04:36Z</time></trkpt>
<trkpt lat="25.291534" lon="103.183541">
<time>2016-10-07T01:04:37Z</time></trkpt>
<trkpt lat="25.291474" lon="103.183421">
<time>2016-10-07T01:04:38Z</time></trkpt>
<trkpt lat="25.291433" lon="103.183341">
<time>2016-10-07T01:04:39Z</time></trkpt>
<trkpt lat="25.291393" lon="103.183201">
<time>2016-10-07T01:04:40Z</time></trkpt>
<trkpt lat="25.291353" lon="103.183101">
<time>2016-10-07T01:04:41Z</time></trkpt>
<trkpt lat="25.291333" lon="103.18301">
<time>2016-10-07T01:04:42Z</time></trkpt>
<trkpt lat="25.291303" lon="103.18293">
<time>2016-10-07T01:04:43Z</time></trkpt>
<trkpt lat="25.291283" lon="103.18285">
<time>2016-10-07T01:04:44Z</time></trkpt>
<trkpt lat="25.291262" lon="103.18279">
<time>2016-10-07T01:04:45Z</time></trkpt>
<trkpt lat="25.291242" lon="103.1827">
<time>2016-10-07T01:04:46Z</time></trkpt>
<trkpt lat="25.291222" lon="103.18262">
<time>2016-10-07T01:04:47Z</time></trkpt>
<trkpt lat="25.291212" lon="103.18257">
<time>2016-10-07T01:04:48Z</time></trkpt>
<trkpt lat="25.291202" lon="103.18246">
<time>2016-10-07T01:04:49Z</time></trkpt>
<trkpt lat="25.291192" lon="103.18233">
<time>2016-10-07T01:04:50Z</time></trkpt>
<trkpt lat="25.291181" lon="103.182209">
<time>2016-10-07T01:04:51Z</time></trkpt>
<trkpt lat="25.291161" lon="103.182049">
<time>2016-10-07T01:04:52Z</time></trkpt>
<trkpt lat="25.291141" lon="103.181889">
<time>2016-10-07T01:04:53Z</time></trkpt>
<trkpt lat="25.291131" lon="103.181789">
<time>2016-10-07T01:04:54Z</time></trkpt>
<trkpt lat="25.2911" lon="103.181669">
<time>2016-10-07T01:04:55Z</time></trkpt>
<trkpt lat="25.29108" lon="103.181569">
<time>2016-10-07T01:04:56Z</time></trkpt>
<trkpt lat="25.29105" lon="103.181468">
<time>2016-10-07T01:04:57Z</time></trkpt>
<trkpt lat="25.29102" lon="103.181348">
<time>2016-10-07T01:04:58Z</time></trkpt>
<trkpt lat="25.29098" lon="103.181228">
<time>2016-10-07T01:04:59Z</time></trkpt>
<trkpt lat="25.290919" lon="103.181088">
<time>2016-10-07T01:05:00Z</time></trkpt>
<trkpt lat="25.290869" lon="103.180968">
<time>2016-10-07T01:05:01Z</time></trkpt>
<trkpt lat="25.290829" lon="103.180858">
<time>2016-10-07T01:05:02Z</time></trkpt>
<trkpt lat="25.290738" lon="103.180607">
<time>2016-10-07T01:05:03Z</time></trkpt>
<trkpt lat="25.290648" lon="103.180357">
<time>2016-10-07T01:05:04Z</time></trkpt>
<trkpt lat="25.290628" lon="103.180297">
<time>2016-10-07T01:05:05Z</time></trkpt>
<trkpt lat="25.290578" lon="103.180167">
<time>2016-10-07T01:05:06Z</time></trkpt>
<trkpt lat="25.290557" lon="103.180107">
<time>2016-10-07T01:05:07Z</time></trkpt>
<trkpt lat="25.290537" lon="103.180057">
<time>2016-10-07T01:05:08Z</time></trkpt>
<trkpt lat="25.290507" lon="103.179986">
<time>2016-10-07T01:05:09Z</time></trkpt>
<trkpt lat="25.290487" lon="103.179936">
<time>2016-10-07T01:05:10Z</time></trkpt>
<trkpt lat="25.290467" lon="103.179856">
<time>2016-10-07T01:05:11Z</time></trkpt>
<trkpt lat="25.290447" lon="103.179786">
<time>2016-10-07T01:05:12Z</time></trkpt>
<trkpt lat="25.290427" lon="103.179706">
<time>2016-10-07T01:05:13Z</time></trkpt>
<trkpt lat="25.290407" lon="103.179606">
<time>2016-10-07T01:05:14Z</time></trkpt>
<trkpt lat="25.290386" lon="103.179526">
<time>2016-10-07T01:05:15Z</time></trkpt>
<trkpt lat="25.290366" lon="103.179416">
<time>2016-10-07T01:05:16Z</time></trkpt>
<trkpt lat="25.290326" lon="103.179125">
<time>2016-10-07T01:05:17Z</time></trkpt>
<trkpt lat="25.290265" lon="103.178805">
<time>2016-10-07T01:05:18Z</time></trkpt>
<trkpt lat="25.290245" lon="103.178645">
<time>2016-10-07T01:05:19Z</time></trkpt>
<trkpt lat="25.290224" lon="103.178494">
<time>2016-10-07T01:05:20Z</time></trkpt>
<trkpt lat="25.290204" lon="103.178304">
<time>2016-10-07T01:05:21Z</time></trkpt>
<trkpt lat="25.290174" lon="103.178074">
<time>2016-10-07T01:05:22Z</time></trkpt>
<trkpt lat="25.290163" lon="103.177793">
<time>2016-10-07T01:05:23Z</time></trkpt>
<trkpt lat="25.290163" lon="103.177733">
<time>2016-10-07T01:05:24Z</time></trkpt>
<trkpt lat="25.290153" lon="103.177643">
<time>2016-10-07T01:05:25Z</time></trkpt>
<trkpt lat="25.290153" lon="103.177553">
<time>2016-10-07T01:05:26Z</time></trkpt>
<trkpt lat="25.290143" lon="103.177483">
<time>2016-10-07T01:05:27Z</time></trkpt>
<trkpt lat="25.290132" lon="103.177373">
<time>2016-10-07T01:05:28Z</time></trkpt>
<trkpt lat="25.290112" lon="103.177263">
<time>2016-10-07T01:05:29Z</time></trkpt>
<trkpt lat="25.290082" lon="103.177163">
<time>2016-10-07T01:05:30Z</time></trkpt>
<trkpt lat="25.290072" lon="103.177102">
<time>2016-10-07T01:05:31Z</time></trkpt>
<trkpt lat="25.290001" lon="103.176852">
<time>2016-10-07T01:05:32Z</time></trkpt>
<trkpt lat="25.289961" lon="103.176722">
<time>2016-10-07T01:05:33Z</time></trkpt>
<trkpt lat="25.289931" lon="103.176622">
<time>2016-10-07T01:05:34Z</time></trkpt>
<trkpt lat="25.289911" lon="103.176542">
<time>2016-10-07T01:05:35Z</time></trkpt>
<trkpt lat="25.289891" lon="103.176472">
<time>2016-10-07T01:05:36Z</time></trkpt>
<trkpt lat="25.28986" lon="103.176321">
<time>2016-10-07T01:05:37Z</time></trkpt>
<trkpt lat="25.28983" lon="103.176151">
<time>2016-10-07T01:05:38Z</time></trkpt>
<trkpt lat="25.28981" lon="103.176071">
<time>2016-10-07T01:05:39Z</time></trkpt>
<trkpt lat="25.2898" lon="103.175991">
<time>2016-10-07T01:05:40Z</time></trkpt>
<trkpt lat="25.289779" lon="103.175851">
<time>2016-10-07T01:05:41Z</time></trkpt>
<trkpt lat="25.289749" lon="103.175661">
<time>2016-10-07T01:05:42Z</time></trkpt>
<trkpt lat="25.289729" lon="103.17549">
<time>2016-10-07T01:05:43Z</time></trkpt>
<trkpt lat="25.289709" lon="103.17537">
<time>2016-10-07T01:05:44Z</time></trkpt>
<trkpt lat="25.289698" lon="103.17526">
<time>2016-10-07T01:05:45Z</time></trkpt>
<trkpt lat="25.289678" lon="103.17514">
<time>2016-10-07T01:05:46Z</time></trkpt>
<trkpt lat="25.289668" lon="103.17505">
<time>2016-10-07T01:05:47Z</time></trkpt>
<trkpt lat="25.289668" lon="103.17497">
<time>2016-10-07T01:05:48Z</time></trkpt>
<trkpt lat="25.289658" lon="103.174889">
<time>2016-10-07T01:05:49Z</time></trkpt>
<trkpt lat="25.289658" lon="103.174869">
<time>2016-10-07T01:05:50Z</time></trkpt>
<trkpt lat="25.289657" lon="103.174749">
<time>2016-10-07T01:05:51Z</time></trkpt>
<trkpt lat="25.289667" lon="103.174649">
<time>2016-10-07T01:05:52Z</time></trkpt>
<trkpt lat="25.289667" lon="103.174549">
<time>2016-10-07T01:05:53Z</time></trkpt>
<trkpt lat="25.289677" lon="103.174449">
<time>2016-10-07T01:05:54Z</time></trkpt>
<trkpt lat="25.289697" lon="103.174369">
<time>2016-10-07T01:05:55Z</time></trkpt>
<trkpt lat="25.289706" lon="103.174269">
<time>2016-10-07T01:05:56Z</time></trkpt>
<trkpt lat="25.289726" lon="103.174158">
<time>2016-10-07T01:05:57Z</time></trkpt>
<trkpt lat="25.289766" lon="103.173998">
<time>2016-10-07T01:05:58Z</time></trkpt>
<trkpt lat="25.289806" lon="103.173828">
<time>2016-10-07T01:05:59Z</time></trkpt>
<trkpt lat="25.289835" lon="103.173698">
<time>2016-10-07T01:06:00Z</time></trkpt>
<trkpt lat="25.289865" lon="103.173598">
<time>2016-10-07T01:06:01Z</time></trkpt>
<trkpt lat="25.289895" lon="103.173467">
<time>2016-10-07T01:06:02Z</time></trkpt>
<trkpt lat="25.290064" lon="103.172877">
<time>2016-10-07T01:06:03Z</time></trkpt>
<trkpt lat="25.290123" lon="103.172626">
<time>2016-10-07T01:06:04Z</time></trkpt>
<trkpt lat="25.290163" lon="103.172496">
<time>2016-10-07T01:06:05Z</time></trkpt>
<trkpt lat="25.290203" lon="103.172366">
<time>2016-10-07T01:06:06Z</time></trkpt>
<trkpt lat="25.290233" lon="103.172236">
<time>2016-10-07T01:06:07Z</time></trkpt>
<trkpt lat="25.290322" lon="103.171905">
<time>2016-10-07T01:06:08Z</time></trkpt>
<trkpt lat="25.290421" lon="103.171575">
<time>2016-10-07T01:06:09Z</time></trkpt>
<trkpt lat="25.290471" lon="103.171395">
<time>2016-10-07T01:06:10Z</time></trkpt>
<trkpt lat="25.290521" lon="103.171244">
<time>2016-10-07T01:06:11Z</time></trkpt>
<trkpt lat="25.2906" lon="103.170984">
<time>2016-10-07T01:06:12Z</time></trkpt>
<trkpt lat="25.2907" lon="103.170704">
<time>2016-10-07T01:06:13Z</time></trkpt>
<trkpt lat="25.290769" lon="103.170513">
<time>2016-10-07T01:06:14Z</time></trkpt>
<trkpt lat="25.290819" lon="103.170353">
<time>2016-10-07T01:06:15Z</time></trkpt>
<trkpt lat="25.290879" lon="103.170193">
<time>2016-10-07T01:06:16Z</time></trkpt>
<trkpt lat="25.291088" lon="103.169582">
<time>2016-10-07T01:06:17Z</time></trkpt>
<trkpt lat="25.291376" lon="103.168751">
<time>2016-10-07T01:06:18Z</time></trkpt>
<trkpt lat="25.291496" lon="103.1684">
<time>2016-10-07T01:06:19Z</time></trkpt>
<trkpt lat="25.291675" lon="103.16787">
<time>2016-10-07T01:06:20Z</time></trkpt>
<trkpt lat="25.291784" lon="103.167529">
<time>2016-10-07T01:06:21Z</time></trkpt>
<trkpt lat="25.291943" lon="103.167068">
<time>2016-10-07T01:06:22Z</time></trkpt>
<trkpt lat="25.291963" lon="103.166998">
<time>2016-10-07T01:06:23Z</time></trkpt>
<trkpt lat="25.291973" lon="103.166938">
<time>2016-10-07T01:06:24Z</time></trkpt>
<trkpt lat="25.291973" lon="103.166888">
<time>2016-10-07T01:06:25Z</time></trkpt>
<trkpt lat="25.291973" lon="103.166828">
<time>2016-10-07T01:06:26Z</time></trkpt>
<trkpt lat="25.291963" lon="103.166788">
<time>2016-10-07T01:06:27Z</time></trkpt>
<trkpt lat="25.291952" lon="103.166728">
<time>2016-10-07T01:06:28Z</time></trkpt>
<trkpt lat="25.291942" lon="103.166688">
<time>2016-10-07T01:06:29Z</time></trkpt>
<trkpt lat="25.291922" lon="103.166638">
<time>2016-10-07T01:06:30Z</time></trkpt>
<trkpt lat="25.291902" lon="103.166598">
<time>2016-10-07T01:06:31Z</time></trkpt>
<trkpt lat="25.291872" lon="103.166558">
<time>2016-10-07T01:06:32Z</time></trkpt>
<trkpt lat="25.291842" lon="103.166508">
<time>2016-10-07T01:06:33Z</time></trkpt>
<trkpt lat="25.291802" lon="103.166468">
<time>2016-10-07T01:06:34Z</time></trkpt>
<trkpt lat="25.291732" lon="103.166408">
<time>2016-10-07T01:06:35Z</time></trkpt>
<trkpt lat="25.291592" lon="103.166297">
<time>2016-10-07T01:06:36Z</time></trkpt>
<trkpt lat="25.291491" lon="103.166217">
<time>2016-10-07T01:06:37Z</time></trkpt>
<trkpt lat="25.291431" lon="103.166157">
<time>2016-10-07T01:06:38Z</time></trkpt>
<trkpt lat="25.291391" lon="103.166127">
<time>2016-10-07T01:06:39Z</time></trkpt>
<trkpt lat="25.291351" lon="103.166087">
<time>2016-10-07T01:06:40Z</time></trkpt>
<trkpt lat="25.291311" lon="103.166037">
<time>2016-10-07T01:06:41Z</time></trkpt>
<trkpt lat="25.291291" lon="103.165997">
<time>2016-10-07T01:06:42Z</time></trkpt>
<trkpt lat="25.291271" lon="103.165957">
<time>2016-10-07T01:06:43Z</time></trkpt>
<trkpt lat="25.291251" lon="103.165917">
<time>2016-10-07T01:06:44Z</time></trkpt>
<trkpt lat="25.291231" lon="103.165877">
<time>2016-10-07T01:06:45Z</time></trkpt>
<trkpt lat="25.291221" lon="103.165807">
<time>2016-10-07T01:06:46Z</time></trkpt>
<trkpt lat="25.291221" lon="103.165757">
<time>2016-10-07T01:06:47Z</time></trkpt>
<trkpt lat="25.29122" lon="103.165707">
<time>2016-10-07T01:06:48Z</time></trkpt>
<trkpt lat="25.29123" lon="103.165647">
<time>2016-10-07T01:06:49Z</time></trkpt>
<trkpt lat="25.29124" lon="103.165596">
<time>2016-10-07T01:06:50Z</time></trkpt>
<trkpt lat="25.29125" lon="103.165556">
<time>2016-10-07T01:06:51Z</time></trkpt>
<trkpt lat="25.29127" lon="103.165496">
<time>2016-10-07T01:06:52Z</time></trkpt>
<trkpt lat="25.29131" lon="103.165406">
<time>2016-10-07T01:06:53Z</time></trkpt>
<trkpt lat="25.291429" lon="103.165106">
<time>2016-10-07T01:06:54Z</time></trkpt>
<trkpt lat="25.291459" lon="103.164996">
<time>2016-10-07T01:06:55Z</time></trkpt>
<trkpt lat="25.291479" lon="103.164905">
<time>2016-10-07T01:06:56Z</time></trkpt>
<trkpt lat="25.291499" lon="103.164815">
<time>2016-10-07T01:06:57Z</time></trkpt>
<trkpt lat="25.291509" lon="103.164715">
<time>2016-10-07T01:06:58Z</time></trkpt>
<trkpt lat="25.291508" lon="103.164595">
<time>2016-10-07T01:06:59Z</time></trkpt>
<trkpt lat="25.291508" lon="103.164485">
<time>2016-10-07T01:07:00Z</time></trkpt>
<trkpt lat="25.291508" lon="103.164435">
<time>2016-10-07T01:07:01Z</time></trkpt>
<trkpt lat="25.291508" lon="103.164255">
<time>2016-10-07T01:07:02Z</time></trkpt>
<trkpt lat="25.291497" lon="103.164094">
<time>2016-10-07T01:07:03Z</time></trkpt>
<trkpt lat="25.291487" lon="103.163924">
<time>2016-10-07T01:07:04Z</time></trkpt>
<trkpt lat="25.291477" lon="103.163824">
<time>2016-10-07T01:07:05Z</time></trkpt>
<trkpt lat="25.291467" lon="103.163764">
<time>2016-10-07T01:07:06Z</time></trkpt>
<trkpt lat="25.291457" lon="103.163694">
<time>2016-10-07T01:07:07Z</time></trkpt>
<trkpt lat="25.291436" lon="103.163604">
<time>2016-10-07T01:07:08Z</time></trkpt>
<trkpt lat="25.291406" lon="103.163494">
<time>2016-10-07T01:07:09Z</time></trkpt>
<trkpt lat="25.291366" lon="103.163373">
<time>2016-10-07T01:07:10Z</time></trkpt>
<trkpt lat="25.291316" lon="103.163213">
<time>2016-10-07T01:07:11Z</time></trkpt>
<trkpt lat="25.291255" lon="103.162943">
<time>2016-10-07T01:07:12Z</time></trkpt>
<trkpt lat="25.291175" lon="103.162552">
<time>2016-10-07T01:07:13Z</time></trkpt>
<trkpt lat="25.291084" lon="103.162122">
<time>2016-10-07T01:07:14Z</time></trkpt>
<trkpt lat="25.291013" lon="103.161761">
<time>2016-10-07T01:07:15Z</time></trkpt>
<trkpt lat="25.290952" lon="103.16113">
<time>2016-10-07T01:07:16Z</time></trkpt>
<trkpt lat="25.290891" lon="103.16075">
<time>2016-10-07T01:07:17Z</time></trkpt>
<trkpt lat="25.290841" lon="103.160499">
<time>2016-10-07T01:07:18Z</time></trkpt>
<trkpt lat="25.29078" lon="103.160329">
<time>2016-10-07T01:07:19Z</time></trkpt>
<trkpt lat="25.29073" lon="103.160229">
<time>2016-10-07T01:07:20Z</time></trkpt>
<trkpt lat="25.29066" lon="103.160119">
<time>2016-10-07T01:07:21Z</time></trkpt>
<trkpt lat="25.290349" lon="103.159789">
<time>2016-10-07T01:07:22Z</time></trkpt>
<trkpt lat="25.290079" lon="103.159508">
<time>2016-10-07T01:07:23Z</time></trkpt>
<trkpt lat="25.289688" lon="103.159208">
<time>2016-10-07T01:07:24Z</time></trkpt>
<trkpt lat="25.289548" lon="103.159088">
<time>2016-10-07T01:07:25Z</time></trkpt>
<trkpt lat="25.289418" lon="103.159008">
<time>2016-10-07T01:07:26Z</time></trkpt>
<trkpt lat="25.289198" lon="103.158917">
<time>2016-10-07T01:07:27Z</time></trkpt>
<trkpt lat="25.289017" lon="103.158847">
<time>2016-10-07T01:07:28Z</time></trkpt>
<trkpt lat="25.288867" lon="103.158807">
<time>2016-10-07T01:07:29Z</time></trkpt>
<trkpt lat="25.288757" lon="103.158767">
<time>2016-10-07T01:07:30Z</time></trkpt>
<trkpt lat="25.288657" lon="103.158747">
<time>2016-10-07T01:07:31Z</time></trkpt>
<trkpt lat="25.288567" lon="103.158737">
<time>2016-10-07T01:07:32Z</time></trkpt>
<trkpt lat="25.288487" lon="103.158737">
<time>2016-10-07T01:07:33Z</time></trkpt>
<trkpt lat="25.288397" lon="103.158737">
<time>2016-10-07T01:07:34Z</time></trkpt>
<trkpt lat="25.288237" lon="103.158707">
<time>2016-10-07T01:07:35Z</time></trkpt>
<trkpt lat="25.287977" lon="103.158637">
<time>2016-10-07T01:07:36Z</time></trkpt>
<trkpt lat="25.287877" lon="103.158597">
<time>2016-10-07T01:07:37Z</time></trkpt>
<trkpt lat="25.287777" lon="103.158557">
<time>2016-10-07T01:07:38Z</time></trkpt>
<trkpt lat="25.287657" lon="103.158517">
<time>2016-10-07T01:07:39Z</time></trkpt>
<trkpt lat="25.287577" lon="103.158487">
<time>2016-10-07T01:07:40Z</time></trkpt>
<trkpt lat="25.287487" lon="103.158457">
<time>2016-10-07T01:07:41Z</time></trkpt>
<trkpt lat="25.287337" lon="103.158407">
<time>2016-10-07T01:07:42Z</time></trkpt>
<trkpt lat="25.287197" lon="103.158367">
<time>2016-10-07T01:07:43Z</time></trkpt>
<trkpt lat="25.287066" lon="103.158317">
<time>2016-10-07T01:07:44Z</time></trkpt>
<trkpt lat="25.286966" lon="103.158277">
<time>2016-10-07T01:07:45Z</time></trkpt>
<trkpt lat="25.286886" lon="103.158247">
<time>2016-10-07T01:07:46Z</time></trkpt>
<trkpt lat="25.286856" lon="103.158237">
<time>2016-10-07T01:07:47Z</time></trkpt>
<trkpt lat="25.286796" lon="103.158217">
<time>2016-10-07T01:07:48Z</time></trkpt>
<trkpt lat="25.286676" lon="103.158166">
<time>2016-10-07T01:07:49Z</time></trkpt>
<trkpt lat="25.286586" lon="103.158116">
<time>2016-10-07T01:07:50Z</time></trkpt>
<trkpt lat="25.286496" lon="103.158066">
<time>2016-10-07T01:07:51Z</time></trkpt>
<trkpt lat="25.286446" lon="103.158036">
<time>2016-10-07T01:07:52Z</time></trkpt>
<trkpt lat="25.286406" lon="103.158006">
<time>2016-10-07T01:07:53Z</time></trkpt>
<trkpt lat="25.286376" lon="103.157986">
<time>2016-10-07T01:07:54Z</time></trkpt>
<trkpt lat="25.286326" lon="103.157956">
<time>2016-10-07T01:07:55Z</time></trkpt>
<trkpt lat="25.286276" lon="103.157916">
<time>2016-10-07T01:07:56Z</time></trkpt>
<trkpt lat="25.286226" lon="103.157866">
<time>2016-10-07T01:07:57Z</time></trkpt>
<trkpt lat="25.286155" lon="103.157806">
<time>2016-10-07T01:07:58Z</time></trkpt>
<trkpt lat="25.286095" lon="103.157756">
<time>2016-10-07T01:07:59Z</time></trkpt>
<trkpt lat="25.286035" lon="103.157686">
<time>2016-10-07T01:08:00Z</time></trkpt>
<trkpt lat="25.285955" lon="103.157616">
<time>2016-10-07T01:08:01Z</time></trkpt>
<trkpt lat="25.285835" lon="103.157486">
<time>2016-10-07T01:08:02Z</time></trkpt>
<trkpt lat="25.285755" lon="103.157406">
<time>2016-10-07T01:08:03Z</time></trkpt>
<trkpt lat="25.285674" lon="103.157305">
<time>2016-10-07T01:08:04Z</time></trkpt>
<trkpt lat="25.285604" lon="103.157215">
<time>2016-10-07T01:08:05Z</time></trkpt>
<trkpt lat="25.285524" lon="103.157135">
<time>2016-10-07T01:08:06Z</time></trkpt>
<trkpt lat="25.285464" lon="103.157055">
<time>2016-10-07T01:08:07Z</time></trkpt>
<trkpt lat="25.285414" lon="103.156995">
<time>2016-10-07T01:08:08Z</time></trkpt>
<trkpt lat="25.285364" lon="103.156925">
<time>2016-10-07T01:08:09Z</time></trkpt>
<trkpt lat="25.285334" lon="103.156875">
<time>2016-10-07T01:08:10Z</time></trkpt>
<trkpt lat="25.285304" lon="103.156835">
<time>2016-10-07T01:08:11Z</time></trkpt>
<trkpt lat="25.285273" lon="103.156785">
<time>2016-10-07T01:08:12Z</time></trkpt>
<trkpt lat="25.285253" lon="103.156735">
<time>2016-10-07T01:08:13Z</time></trkpt>
<trkpt lat="25.285223" lon="103.156665">
<time>2016-10-07T01:08:14Z</time></trkpt>
<trkpt lat="25.285193" lon="103.156614">
<time>2016-10-07T01:08:15Z</time></trkpt>
<trkpt lat="25.285163" lon="103.156544">
<time>2016-10-07T01:08:16Z</time></trkpt>
<trkpt lat="25.285143" lon="103.156484">
<time>2016-10-07T01:08:17Z</time></trkpt>
<trkpt lat="25.285113" lon="103.156394">
<time>2016-10-07T01:08:18Z</time></trkpt>
<trkpt lat="25.285083" lon="103.156284">
<time>2016-10-07T01:08:19Z</time></trkpt>
<trkpt lat="25.285072" lon="103.156214">
<time>2016-10-07T01:08:20Z</time></trkpt>
<trkpt lat="25.285062" lon="103.156144">
<time>2016-10-07T01:08:21Z</time></trkpt>
<trkpt lat="25.285052" lon="103.156074">
<time>2016-10-07T01:08:22Z</time></trkpt>
<trkpt lat="25.285022" lon="103.155753">
<time>2016-10-07T01:08:23Z</time></trkpt>
<trkpt lat="25.285011" lon="103.155623">
<time>2016-10-07T01:08:24Z</time></trkpt>
<trkpt lat="25.284991" lon="103.155463">
<time>2016-10-07T01:08:25Z</time></trkpt>
<trkpt lat="25.28498" lon="103.155103">
<time>2016-10-07T01:08:26Z</time></trkpt>
<trkpt lat="25.28497" lon="103.154982">
<time>2016-10-07T01:08:27Z</time></trkpt>
<trkpt lat="25.28496" lon="103.154872">
<time>2016-10-07T01:08:28Z</time></trkpt>
<trkpt lat="25.28494" lon="103.154722">
<time>2016-10-07T01:08:29Z</time></trkpt>
<trkpt lat="25.284909" lon="103.154552">
<time>2016-10-07T01:08:30Z</time></trkpt>
<trkpt lat="25.284879" lon="103.154452">
<time>2016-10-07T01:08:31Z</time></trkpt>
<trkpt lat="25.284839" lon="103.154362">
<time>2016-10-07T01:08:32Z</time></trkpt>
<trkpt lat="25.284809" lon="103.154271">
<time>2016-10-07T01:08:33Z</time></trkpt>
<trkpt lat="25.284779" lon="103.154201">
<time>2016-10-07T01:08:34Z</time></trkpt>
<trkpt lat="25.284759" lon="103.154151">
<time>2016-10-07T01:08:35Z</time></trkpt>
<trkpt lat="25.284729" lon="103.154091">
<time>2016-10-07T01:08:36Z</time></trkpt>
<trkpt lat="25.284688" lon="103.154031">
<time>2016-10-07T01:08:37Z</time></trkpt>
<trkpt lat="25.284658" lon="103.153971">
<time>2016-10-07T01:08:38Z</time></trkpt>
<trkpt lat="25.284618" lon="103.153911">
<time>2016-10-07T01:08:39Z</time></trkpt>
<trkpt lat="25.284588" lon="103.153851">
<time>2016-10-07T01:08:40Z</time></trkpt>
<trkpt lat="25.284538" lon="103.153771">
<time>2016-10-07T01:08:41Z</time></trkpt>
<trkpt lat="25.284478" lon="103.153691">
<time>2016-10-07T01:08:42Z</time></trkpt>
<trkpt lat="25.284408" lon="103.153611">
<time>2016-10-07T01:08:43Z</time></trkpt>
<trkpt lat="25.284267" lon="103.15343">
<time>2016-10-07T01:08:44Z</time></trkpt>
<trkpt lat="25.283676" lon="103.152689">
<time>2016-10-07T01:08:45Z</time></trkpt>
<trkpt lat="25.283275" lon="103.152179">
<time>2016-10-07T01:08:46Z</time></trkpt>
<trkpt lat="25.283155" lon="103.152029">
<time>2016-10-07T01:08:47Z</time></trkpt>
<trkpt lat="25.283095" lon="103.151959">
<time>2016-10-07T01:08:48Z</time></trkpt>
<trkpt lat="25.283035" lon="103.151878">
<time>2016-10-07T01:08:49Z</time></trkpt>
<trkpt lat="25.282964" lon="103.151798">
<time>2016-10-07T01:08:50Z</time></trkpt>
<trkpt lat="25.282894" lon="103.151728">
<time>2016-10-07T01:08:51Z</time></trkpt>
<trkpt lat="25.282884" lon="103.151718">
<time>2016-10-07T01:08:52Z</time></trkpt>
<trkpt lat="25.282834" lon="103.151678">
<time>2016-10-07T01:08:53Z</time></trkpt>
<trkpt lat="25.282774" lon="103.151628">
<time>2016-10-07T01:08:54Z</time></trkpt>
<trkpt lat="25.282674" lon="103.151548">
<time>2016-10-07T01:08:55Z</time></trkpt>
<trkpt lat="25.282554" lon="103.151438">
<time>2016-10-07T01:08:56Z</time></trkpt>
<trkpt lat="25.282494" lon="103.151398">
<time>2016-10-07T01:08:57Z</time></trkpt>
<trkpt lat="25.282434" lon="103.151358">
<time>2016-10-07T01:08:58Z</time></trkpt>
<trkpt lat="25.282313" lon="103.151288">
<time>2016-10-07T01:08:59Z</time></trkpt>
<trkpt lat="25.282183" lon="103.151208">
<time>2016-10-07T01:09:00Z</time></trkpt>
<trkpt lat="25.282013" lon="103.151108">
<time>2016-10-07T01:09:01Z</time></trkpt>
<trkpt lat="25.281893" lon="103.151037">
<time>2016-10-07T01:09:02Z</time></trkpt>
<trkpt lat="25.281613" lon="103.150897">
<time>2016-10-07T01:09:03Z</time></trkpt>
<trkpt lat="25.281463" lon="103.150807">
<time>2016-10-07T01:09:04Z</time></trkpt>
<trkpt lat="25.281152" lon="103.150627">
<time>2016-10-07T01:09:05Z</time></trkpt>
<trkpt lat="25.280952" lon="103.150507">
<time>2016-10-07T01:09:06Z</time></trkpt>
<trkpt lat="25.280752" lon="103.150397">
<time>2016-10-07T01:09:07Z</time></trkpt>
<trkpt lat="25.280562" lon="103.150287">
<time>2016-10-07T01:09:08Z</time></trkpt>
<trkpt lat="25.280361" lon="103.150166">
<time>2016-10-07T01:09:09Z</time></trkpt>
<trkpt lat="25.280311" lon="103.150136">
<time>2016-10-07T01:09:10Z</time></trkpt>
<trkpt lat="25.280091" lon="103.150006">
<time>2016-10-07T01:09:11Z</time></trkpt>
<trkpt lat="25.279941" lon="103.149916">
<time>2016-10-07T01:09:12Z</time></trkpt>
<trkpt lat="25.279781" lon="103.149826">
<time>2016-10-07T01:09:13Z</time></trkpt>
<trkpt lat="25.279571" lon="103.149706">
<time>2016-10-07T01:09:14Z</time></trkpt>
<trkpt lat="25.27937" lon="103.149586">
<time>2016-10-07T01:09:15Z</time></trkpt>
<trkpt lat="25.27922" lon="103.149506">
<time>2016-10-07T01:09:16Z</time></trkpt>
<trkpt lat="25.27914" lon="103.149456">
<time>2016-10-07T01:09:17Z</time></trkpt>
<trkpt lat="25.27904" lon="103.149406">
<time>2016-10-07T01:09:18Z</time></trkpt>
<trkpt lat="25.27896" lon="103.149356">
<time>2016-10-07T01:09:19Z</time></trkpt>
<trkpt lat="25.27895" lon="103.149356">
<time>2016-10-07T01:09:20Z</time></trkpt>
<trkpt lat="25.27883" lon="103.149285">
<time>2016-10-07T01:09:21Z</time></trkpt>
<trkpt lat="25.27871" lon="103.149225">
<time>2016-10-07T01:09:22Z</time></trkpt>
<trkpt lat="25.27861" lon="103.149165">
<time>2016-10-07T01:09:23Z</time></trkpt>
<trkpt lat="25.278479" lon="103.149095">
<time>2016-10-07T01:09:24Z</time></trkpt>
<trkpt lat="25.278349" lon="103.149025">
<time>2016-10-07T01:09:25Z</time></trkpt>
<trkpt lat="25.278209" lon="103.148935">
<time>2016-10-07T01:09:26Z</time></trkpt>
<trkpt lat="25.277909" lon="103.148775">
<time>2016-10-07T01:09:27Z</time></trkpt>
<trkpt lat="25.277719" lon="103.148655">
<time>2016-10-07T01:09:28Z</time></trkpt>
<trkpt lat="25.277629" lon="103.148615">
<time>2016-10-07T01:09:29Z</time></trkpt>
<trkpt lat="25.277488" lon="103.148545">
<time>2016-10-07T01:09:30Z</time></trkpt>
<trkpt lat="25.277378" lon="103.148485">
<time>2016-10-07T01:09:31Z</time></trkpt>
<trkpt lat="25.277268" lon="103.148434">
<time>2016-10-07T01:09:32Z</time></trkpt>
<trkpt lat="25.277168" lon="103.148374">
<time>2016-10-07T01:09:33Z</time></trkpt>
<trkpt lat="25.277118" lon="103.148354">
<time>2016-10-07T01:09:34Z</time></trkpt>
<trkpt lat="25.277068" lon="103.148324">
<time>2016-10-07T01:09:35Z</time></trkpt>
<trkpt lat="25.277028" lon="103.148314">
<time>2016-10-07T01:09:36Z</time></trkpt>
<trkpt lat="25.276968" lon="103.148284">
<time>2016-10-07T01:09:37Z</time></trkpt>
<trkpt lat="25.276908" lon="103.148264">
<time>2016-10-07T01:09:38Z</time></trkpt>
<trkpt lat="25.276868" lon="103.148244">
<time>2016-10-07T01:09:39Z</time></trkpt>
<trkpt lat="25.276818" lon="103.148224">
<time>2016-10-07T01:09:40Z</time></trkpt>
<trkpt lat="25.276738" lon="103.148194">
<time>2016-10-07T01:09:41Z</time></trkpt>
<trkpt lat="25.276658" lon="103.148164">
<time>2016-10-07T01:09:42Z</time></trkpt>
<trkpt lat="25.276568" lon="103.148134">
<time>2016-10-07T01:09:43Z</time></trkpt>
<trkpt lat="25.276478" lon="103.148114">
<time>2016-10-07T01:09:44Z</time></trkpt>
<trkpt lat="25.276408" lon="103.148094">
<time>2016-10-07T01:09:45Z</time></trkpt>
<trkpt lat="25.276328" lon="103.148084">
<time>2016-10-07T01:09:46Z</time></trkpt>
<trkpt lat="25.276258" lon="103.148074">
<time>2016-10-07T01:09:47Z</time></trkpt>
<trkpt lat="25.276168" lon="103.148064">
<time>2016-10-07T01:09:48Z</time></trkpt>
<trkpt lat="25.276108" lon="103.148064">
<time>2016-10-07T01:09:49Z</time></trkpt>
<trkpt lat="25.276028" lon="103.148054">
<time>2016-10-07T01:09:50Z</time></trkpt>
<trkpt lat="25.275938" lon="103.148054">
<time>2016-10-07T01:09:51Z</time></trkpt>
<trkpt lat="25.275658" lon="103.148064">
<time>2016-10-07T01:09:52Z</time></trkpt>
<trkpt lat="25.275478" lon="103.148074">
<time>2016-10-07T01:09:53Z</time></trkpt>
<trkpt lat="25.275328" lon="103.148074">
<time>2016-10-07T01:09:54Z</time></trkpt>
<trkpt lat="25.275098" lon="103.148084">
<time>2016-10-07T01:09:55Z</time></trkpt>
<trkpt lat="25.274898" lon="103.148084">
<time>2016-10-07T01:09:56Z</time></trkpt>
<trkpt lat="25.274708" lon="103.148084">
<time>2016-10-07T01:09:57Z</time></trkpt>
<trkpt lat="25.274598" lon="103.148084">
<time>2016-10-07T01:09:58Z</time></trkpt>
<trkpt lat="25.274458" lon="103.148094">
<time>2016-10-07T01:09:59Z</time></trkpt>
<trkpt lat="25.274098" lon="103.148094">
<time>2016-10-07T01:10:00Z</time></trkpt>
<trkpt lat="25.273338" lon="103.148104">
<time>2016-10-07T01:10:01Z</time></trkpt>
<trkpt lat="25.273018" lon="103.148104">
<time>2016-10-07T01:10:02Z</time></trkpt>
<trkpt lat="25.272738" lon="103.148114">
<time>2016-10-07T01:10:03Z</time></trkpt>
<trkpt lat="25.272168" lon="103.148114">
<time>2016-10-07T01:10:04Z</time></trkpt>
<trkpt lat="25.271898" lon="103.148124">
<time>2016-10-07T01:10:05Z</time></trkpt>
<trkpt lat="25.271568" lon="103.148124">
<time>2016-10-07T01:10:06Z</time></trkpt>
<trkpt lat="25.270997" lon="103.148134">
<time>2016-10-07T01:10:07Z</time></trkpt>
<trkpt lat="25.270398" lon="103.148154">
<time>2016-10-07T01:10:08Z</time></trkpt>
<trkpt lat="25.269617" lon="103.148164">
<time>2016-10-07T01:10:09Z</time></trkpt>
<trkpt lat="25.269387" lon="103.148164">
<time>2016-10-07T01:10:10Z</time></trkpt>
<trkpt lat="25.269227" lon="103.148164">
<time>2016-10-07T01:10:11Z</time></trkpt>
<trkpt lat="25.269117" lon="103.148164">
<time>2016-10-07T01:10:12Z</time></trkpt>
<trkpt lat="25.269037" lon="103.148174">
<time>2016-10-07T01:10:13Z</time></trkpt>
<trkpt lat="25.268447" lon="103.148195">
<time>2016-10-07T01:10:14Z</time></trkpt>
<trkpt lat="25.267858" lon="103.148215">
<time>2016-10-07T01:10:15Z</time></trkpt>
<trkpt lat="25.267707" lon="103.148215">
<time>2016-10-07T01:10:16Z</time></trkpt>
<trkpt lat="25.267637" lon="103.148205">
<time>2016-10-07T01:10:17Z</time></trkpt>
<trkpt lat="25.267577" lon="103.148205">
<time>2016-10-07T01:10:18Z</time></trkpt>
<trkpt lat="25.267527" lon="103.148195">
<time>2016-10-07T01:10:19Z</time></trkpt>
<trkpt lat="25.267477" lon="103.148185">
<time>2016-10-07T01:10:20Z</time></trkpt>
<trkpt lat="25.267427" lon="103.148165">
<time>2016-10-07T01:10:21Z</time></trkpt>
<trkpt lat="25.267387" lon="103.148154">
<time>2016-10-07T01:10:22Z</time></trkpt>
<trkpt lat="25.267357" lon="103.148134">
<time>2016-10-07T01:10:23Z</time></trkpt>
<trkpt lat="25.267307" lon="103.148104">
<time>2016-10-07T01:10:24Z</time></trkpt>
<trkpt lat="25.267267" lon="103.148074">
<time>2016-10-07T01:10:25Z</time></trkpt>
<trkpt lat="25.267227" lon="103.148044">
<time>2016-10-07T01:10:26Z</time></trkpt>
<trkpt lat="25.267187" lon="103.148014">
<time>2016-10-07T01:10:27Z</time></trkpt>
<trkpt lat="25.267147" lon="103.147974">
<time>2016-10-07T01:10:28Z</time></trkpt>
<trkpt lat="25.267097" lon="103.147934">
<time>2016-10-07T01:10:29Z</time></trkpt>
<trkpt lat="25.267057" lon="103.147884">
<time>2016-10-07T01:10:30Z</time></trkpt>
<trkpt lat="25.267037" lon="103.147874">
<time>2016-10-07T01:10:31Z</time></trkpt>
<trkpt lat="25.267007" lon="103.147844">
<time>2016-10-07T01:10:32Z</time></trkpt>
<trkpt lat="25.266957" lon="103.147784">
<time>2016-10-07T01:10:33Z</time></trkpt>
<trkpt lat="25.266897" lon="103.147714">
<time>2016-10-07T01:10:34Z</time></trkpt>
<trkpt lat="25.266826" lon="103.147624">
<time>2016-10-07T01:10:35Z</time></trkpt>
<trkpt lat="25.266726" lon="103.147514">
<time>2016-10-07T01:10:36Z</time></trkpt>
<trkpt lat="25.266646" lon="103.147414">
<time>2016-10-07T01:10:37Z</time></trkpt>
<trkpt lat="25.266516" lon="103.147263">
<time>2016-10-07T01:10:38Z</time></trkpt>
<trkpt lat="25.266416" lon="103.147123">
<time>2016-10-07T01:10:39Z</time></trkpt>
<trkpt lat="25.266285" lon="103.146953">
<time>2016-10-07T01:10:40Z</time></trkpt>
<trkpt lat="25.266195" lon="103.146833">
<time>2016-10-07T01:10:41Z</time></trkpt>
<trkpt lat="25.266105" lon="103.146723">
<time>2016-10-07T01:10:42Z</time></trkpt>
<trkpt lat="25.266005" lon="103.146603">
<time>2016-10-07T01:10:43Z</time></trkpt>
<trkpt lat="25.265975" lon="103.146553">
<time>2016-10-07T01:10:44Z</time></trkpt>
<trkpt lat="25.265925" lon="103.146503">
<time>2016-10-07T01:10:45Z</time></trkpt>
<trkpt lat="25.265854" lon="103.146413">
<time>2016-10-07T01:10:46Z</time></trkpt>
<trkpt lat="25.265744" lon="103.146282">
<time>2016-10-07T01:10:47Z</time></trkpt>
<trkpt lat="25.265684" lon="103.146192">
<time>2016-10-07T01:10:48Z</time></trkpt>
<trkpt lat="25.265413" lon="103.145842">
<time>2016-10-07T01:10:49Z</time></trkpt>
<trkpt lat="25.265303" lon="103.145712">
<time>2016-10-07T01:10:50Z</time></trkpt>
<trkpt lat="25.265123" lon="103.145481">
<time>2016-10-07T01:10:51Z</time></trkpt>
<trkpt lat="25.265003" lon="103.145331">
<time>2016-10-07T01:10:52Z</time></trkpt>
<trkpt lat="25.264842" lon="103.145111">
<time>2016-10-07T01:10:53Z</time></trkpt>
<trkpt lat="25.264792" lon="103.145051">
<time>2016-10-07T01:10:54Z</time></trkpt>
<trkpt lat="25.264742" lon="103.144991">
<time>2016-10-07T01:10:55Z</time></trkpt>
<trkpt lat="25.264532" lon="103.144731">
<time>2016-10-07T01:10:56Z</time></trkpt>
<trkpt lat="25.264461" lon="103.144651">
<time>2016-10-07T01:10:57Z</time></trkpt>
<trkpt lat="25.264381" lon="103.14455">
<time>2016-10-07T01:10:58Z</time></trkpt>
<trkpt lat="25.26389" lon="103.14394">
<time>2016-10-07T01:10:59Z</time></trkpt>
<trkpt lat="25.26363" lon="103.143589">
<time>2016-10-07T01:11:00Z</time></trkpt>
<trkpt lat="25.263349" lon="103.143239">
<time>2016-10-07T01:11:01Z</time></trkpt>
<trkpt lat="25.263169" lon="103.143019">
<time>2016-10-07T01:11:02Z</time></trkpt>
<trkpt lat="25.263099" lon="103.142939">
<time>2016-10-07T01:11:03Z</time></trkpt>
<trkpt lat="25.262818" lon="103.142578">
<time>2016-10-07T01:11:04Z</time></trkpt>
<trkpt lat="25.262658" lon="103.142378">
<time>2016-10-07T01:11:05Z</time></trkpt>
<trkpt lat="25.262507" lon="103.142188">
<time>2016-10-07T01:11:06Z</time></trkpt>
<trkpt lat="25.262367" lon="103.142008">
<time>2016-10-07T01:11:07Z</time></trkpt>
<trkpt lat="25.262257" lon="103.141858">
<time>2016-10-07T01:11:08Z</time></trkpt>
<trkpt lat="25.262177" lon="103.141758">
<time>2016-10-07T01:11:09Z</time></trkpt>
<trkpt lat="25.262157" lon="103.141727">
<time>2016-10-07T01:11:10Z</time></trkpt>
<trkpt lat="25.262086" lon="103.141637">
<time>2016-10-07T01:11:11Z</time></trkpt>
<trkpt lat="25.262016" lon="103.141547">
<time>2016-10-07T01:11:12Z</time></trkpt>
<trkpt lat="25.261966" lon="103.141477">
<time>2016-10-07T01:11:13Z</time></trkpt>
<trkpt lat="25.261876" lon="103.141347">
<time>2016-10-07T01:11:14Z</time></trkpt>
<trkpt lat="25.261816" lon="103.141257">
<time>2016-10-07T01:11:15Z</time></trkpt>
<trkpt lat="25.261766" lon="103.141177">
<time>2016-10-07T01:11:16Z</time></trkpt>
<trkpt lat="25.261505" lon="103.140656">
<time>2016-10-07T01:11:17Z</time></trkpt>
<trkpt lat="25.261435" lon="103.140526">
<time>2016-10-07T01:11:18Z</time></trkpt>
<trkpt lat="25.261375" lon="103.140386">
<time>2016-10-07T01:11:19Z</time></trkpt>
<trkpt lat="25.261304" lon="103.140236">
<time>2016-10-07T01:11:20Z</time></trkpt>
<trkpt lat="25.261154" lon="103.139836">
<time>2016-10-07T01:11:21Z</time></trkpt>
<trkpt lat="25.261033" lon="103.139535">
<time>2016-10-07T01:11:22Z</time></trkpt>
<trkpt lat="25.260873" lon="103.139165">
<time>2016-10-07T01:11:23Z</time></trkpt>
<trkpt lat="25.260772" lon="103.138925">
<time>2016-10-07T01:11:24Z</time></trkpt>
<trkpt lat="25.260662" lon="103.138664">
<time>2016-10-07T01:11:25Z</time></trkpt>
<trkpt lat="25.260421" lon="103.138134">
<time>2016-10-07T01:11:26Z</time></trkpt>
<trkpt lat="25.260351" lon="103.137984">
<time>2016-10-07T01:11:27Z</time></trkpt>
<trkpt lat="25.260281" lon="103.137834">
<time>2016-10-07T01:11:28Z</time></trkpt>
<trkpt lat="25.26021" lon="103.137714">
<time>2016-10-07T01:11:29Z</time></trkpt>
<trkpt lat="25.26014" lon="103.137603">
<time>2016-10-07T01:11:30Z</time></trkpt>
<trkpt lat="25.26" lon="103.137353">
<time>2016-10-07T01:11:31Z</time></trkpt>
<trkpt lat="25.259729" lon="103.136923">
<time>2016-10-07T01:11:32Z</time></trkpt>
<trkpt lat="25.259599" lon="103.136703">
<time>2016-10-07T01:11:33Z</time></trkpt>
<trkpt lat="25.259308" lon="103.136232">
<time>2016-10-07T01:11:34Z</time></trkpt>
<trkpt lat="25.259248" lon="103.136132">
<time>2016-10-07T01:11:35Z</time></trkpt>
<trkpt lat="25.259208" lon="103.136072">
<time>2016-10-07T01:11:36Z</time></trkpt>
<trkpt lat="25.258937" lon="103.135632">
<time>2016-10-07T01:11:37Z</time></trkpt>
<trkpt lat="25.258807" lon="103.135412">
<time>2016-10-07T01:11:38Z</time></trkpt>
<trkpt lat="25.258727" lon="103.135281">
<time>2016-10-07T01:11:39Z</time></trkpt>
<trkpt lat="25.258657" lon="103.135171">
<time>2016-10-07T01:11:40Z</time></trkpt>
<trkpt lat="25.258586" lon="103.135061">
<time>2016-10-07T01:11:41Z</time></trkpt>
<trkpt lat="25.258526" lon="103.134951">
<time>2016-10-07T01:11:42Z</time></trkpt>
<trkpt lat="25.258456" lon="103.134811">
<time>2016-10-07T01:11:43Z</time></trkpt>
<trkpt lat="25.258406" lon="103.134701">
<time>2016-10-07T01:11:44Z</time></trkpt>
<trkpt lat="25.258376" lon="103.134591">
<time>2016-10-07T01:11:45Z</time></trkpt>
<trkpt lat="25.258336" lon="103.134481">
<time>2016-10-07T01:11:46Z</time></trkpt>
<trkpt lat="25.258295" lon="103.134331">
<time>2016-10-07T01:11:47Z</time></trkpt>
<trkpt lat="25.258265" lon="103.134201">
<time>2016-10-07T01:11:48Z</time></trkpt>
<trkpt lat="25.258225" lon="103.13404">
<time>2016-10-07T01:11:49Z</time></trkpt>
<trkpt lat="25.258165" lon="103.13378">
<time>2016-10-07T01:11:50Z</time></trkpt>
<trkpt lat="25.258004" lon="103.13309">
<time>2016-10-07T01:11:51Z</time></trkpt>
<trkpt lat="25.257913" lon="103.132669">
<time>2016-10-07T01:11:52Z</time></trkpt>
<trkpt lat="25.257803" lon="103.132189">
<time>2016-10-07T01:11:53Z</time></trkpt>
<trkpt lat="25.257702" lon="103.131749">
<time>2016-10-07T01:11:54Z</time></trkpt>
<trkpt lat="25.257561" lon="103.131108">
<time>2016-10-07T01:11:55Z</time></trkpt>
<trkpt lat="25.257521" lon="103.130888">
<time>2016-10-07T01:11:56Z</time></trkpt>
<trkpt lat="25.257481" lon="103.130698">
<time>2016-10-07T01:11:57Z</time></trkpt>
<trkpt lat="25.25741" lon="103.130378">
<time>2016-10-07T01:11:58Z</time></trkpt>
<trkpt lat="25.25735" lon="103.130147">
<time>2016-10-07T01:11:59Z</time></trkpt>
<trkpt lat="25.257289" lon="103.129887">
<time>2016-10-07T01:12:00Z</time></trkpt>
<trkpt lat="25.257219" lon="103.129607">
<time>2016-10-07T01:12:01Z</time></trkpt>
<trkpt lat="25.257088" lon="103.129057">
<time>2016-10-07T01:12:02Z</time></trkpt>
<trkpt lat="25.257018" lon="103.128716">
<time>2016-10-07T01:12:03Z</time></trkpt>
<trkpt lat="25.256968" lon="103.128516">
<time>2016-10-07T01:12:04Z</time></trkpt>
<trkpt lat="25.256877" lon="103.128136">
<time>2016-10-07T01:12:05Z</time></trkpt>
<trkpt lat="25.256807" lon="103.127826">
<time>2016-10-07T01:12:06Z</time></trkpt>
<trkpt lat="25.256767" lon="103.127636">
<time>2016-10-07T01:12:07Z</time></trkpt>
<trkpt lat="25.256666" lon="103.127235">
<time>2016-10-07T01:12:08Z</time></trkpt>
<trkpt lat="25.256586" lon="103.126875">
<time>2016-10-07T01:12:09Z</time></trkpt>
<trkpt lat="25.256535" lon="103.126635">
<time>2016-10-07T01:12:10Z</time></trkpt>
<trkpt lat="25.256515" lon="103.126485">
<time>2016-10-07T01:12:11Z</time></trkpt>
<trkpt lat="25.256495" lon="103.126345">
<time>2016-10-07T01:12:12Z</time></trkpt>
<trkpt lat="25.256475" lon="103.126185">
<time>2016-10-07T01:12:13Z</time></trkpt>
<trkpt lat="25.256455" lon="103.126065">
<time>2016-10-07T01:12:14Z</time></trkpt>
<trkpt lat="25.256445" lon="103.125935">
<time>2016-10-07T01:12:15Z</time></trkpt>
<trkpt lat="25.256445" lon="103.125855">
<time>2016-10-07T01:12:16Z</time></trkpt>
<trkpt lat="25.256444" lon="103.125755">
<time>2016-10-07T01:12:17Z</time></trkpt>
<trkpt lat="25.256454" lon="103.125675">
<time>2016-10-07T01:12:18Z</time></trkpt>
<trkpt lat="25.256464" lon="103.125594">
<time>2016-10-07T01:12:19Z</time></trkpt>
<trkpt lat="25.256474" lon="103.125514">
<time>2016-10-07T01:12:20Z</time></trkpt>
<trkpt lat="25.256494" lon="103.125404">
<time>2016-10-07T01:12:21Z</time></trkpt>
<trkpt lat="25.256514" lon="103.125344">
<time>2016-10-07T01:12:22Z</time></trkpt>
<trkpt lat="25.256524" lon="103.125264">
<time>2016-10-07T01:12:23Z</time></trkpt>
<trkpt lat="25.256544" lon="103.125204">
<time>2016-10-07T01:12:24Z</time></trkpt>
<trkpt lat="25.256564" lon="103.125144">
<time>2016-10-07T01:12:25Z</time></trkpt>
<trkpt lat="25.256584" lon="103.125094">
<time>2016-10-07T01:12:26Z</time></trkpt>
<trkpt lat="25.256594" lon="103.125044">
<time>2016-10-07T01:12:27Z</time></trkpt>
<trkpt lat="25.256604" lon="103.125024">
<time>2016-10-07T01:12:28Z</time></trkpt>
<trkpt lat="25.256604" lon="103.125004">
<time>2016-10-07T01:12:29Z</time></trkpt>
<trkpt lat="25.256634" lon="103.124934">
<time>2016-10-07T01:12:30Z</time></trkpt>
<trkpt lat="25.256653" lon="103.124874">
<time>2016-10-07T01:12:31Z</time></trkpt>
<trkpt lat="25.256673" lon="103.124814">
<time>2016-10-07T01:12:32Z</time></trkpt>
<trkpt lat="25.256693" lon="103.124744">
<time>2016-10-07T01:12:33Z</time></trkpt>
<trkpt lat="25.256723" lon="103.124674">
<time>2016-10-07T01:12:34Z</time></trkpt>
<trkpt lat="25.256753" lon="103.124594">
<time>2016-10-07T01:12:35Z</time></trkpt>
<trkpt lat="25.256783" lon="103.124514">
<time>2016-10-07T01:12:36Z</time></trkpt>
<trkpt lat="25.256803" lon="103.124464">
<time>2016-10-07T01:12:37Z</time></trkpt>
<trkpt lat="25.256833" lon="103.124414">
<time>2016-10-07T01:12:38Z</time></trkpt>
<trkpt lat="25.256853" lon="103.124354">
<time>2016-10-07T01:12:39Z</time></trkpt>
<trkpt lat="25.256883" lon="103.124284">
<time>2016-10-07T01:12:40Z</time></trkpt>
<trkpt lat="25.256903" lon="103.124224">
<time>2016-10-07T01:12:41Z</time></trkpt>
<trkpt lat="25.256913" lon="103.124154">
<time>2016-10-07T01:12:42Z</time></trkpt>
<trkpt lat="25.256923" lon="103.124114">
<time>2016-10-07T01:12:43Z</time></trkpt>
<trkpt lat="25.256933" lon="103.124054">
<time>2016-10-07T01:12:44Z</time></trkpt>
<trkpt lat="25.256942" lon="103.123984">
<time>2016-10-07T01:12:45Z</time></trkpt>
<trkpt lat="25.256962" lon="103.123914">
<time>2016-10-07T01:12:46Z</time></trkpt>
<trkpt lat="25.256972" lon="103.123854">
<time>2016-10-07T01:12:47Z</time></trkpt>
<trkpt lat="25.256982" lon="103.123794">
<time>2016-10-07T01:12:48Z</time></trkpt>
<trkpt lat="25.256992" lon="103.123734">
<time>2016-10-07T01:12:49Z</time></trkpt>
<trkpt lat="25.257002" lon="103.123673">
<time>2016-10-07T01:12:50Z</time></trkpt>
<trkpt lat="25.257002" lon="103.123613">
<time>2016-10-07T01:12:51Z</time></trkpt>
<trkpt lat="25.257002" lon="103.123543">
<time>2016-10-07T01:12:52Z</time></trkpt>
<trkpt lat="25.256992" lon="103.123403">
<time>2016-10-07T01:12:53Z</time></trkpt>
<trkpt lat="25.256962" lon="103.123203">
<time>2016-10-07T01:12:54Z</time></trkpt>
<trkpt lat="25.256861" lon="103.122743">
<time>2016-10-07T01:12:55Z</time></trkpt>
<trkpt lat="25.25675" lon="103.122123">
<time>2016-10-07T01:12:56Z</time></trkpt>
<trkpt lat="25.25666" lon="103.121402">
<time>2016-10-07T01:12:57Z</time></trkpt>
<trkpt lat="25.256569" lon="103.120772">
<time>2016-10-07T01:12:58Z</time></trkpt>
<trkpt lat="25.256539" lon="103.120292">
<time>2016-10-07T01:12:59Z</time></trkpt>
<trkpt lat="25.256518" lon="103.119612">
<time>2016-10-07T01:13:00Z</time></trkpt>
<trkpt lat="25.256518" lon="103.119142">
<time>2016-10-07T01:13:01Z</time></trkpt>
<trkpt lat="25.256527" lon="103.118862">
<time>2016-10-07T01:13:02Z</time></trkpt>
<trkpt lat="25.256517" lon="103.118722">
<time>2016-10-07T01:13:03Z</time></trkpt>
<trkpt lat="25.256507" lon="103.118631">
<time>2016-10-07T01:13:04Z</time></trkpt>
<trkpt lat="25.256507" lon="103.118561">
<time>2016-10-07T01:13:05Z</time></trkpt>
<trkpt lat="25.256497" lon="103.118431">
<time>2016-10-07T01:13:06Z</time></trkpt>
<trkpt lat="25.256487" lon="103.118301">
<time>2016-10-07T01:13:07Z</time></trkpt>
<trkpt lat="25.256487" lon="103.118191">
<time>2016-10-07T01:13:08Z</time></trkpt>
<trkpt lat="25.256477" lon="103.118101">
<time>2016-10-07T01:13:09Z</time></trkpt>
<trkpt lat="25.256477" lon="103.117981">
<time>2016-10-07T01:13:10Z</time></trkpt>
<trkpt lat="25.256466" lon="103.117861">
<time>2016-10-07T01:13:11Z</time></trkpt>
<trkpt lat="25.256456" lon="103.117571">
<time>2016-10-07T01:13:12Z</time></trkpt>
<trkpt lat="25.256446" lon="103.117441">
<time>2016-10-07T01:13:13Z</time></trkpt>
<trkpt lat="25.256446" lon="103.117381">
<time>2016-10-07T01:13:14Z</time></trkpt>
<trkpt lat="25.256436" lon="103.117321">
<time>2016-10-07T01:13:15Z</time></trkpt>
<trkpt lat="25.256426" lon="103.117271">
<time>2016-10-07T01:13:16Z</time></trkpt>
<trkpt lat="25.256406" lon="103.117221">
<time>2016-10-07T01:13:17Z</time></trkpt>
<trkpt lat="25.256406" lon="103.117211">
<time>2016-10-07T01:13:18Z</time></trkpt>
<trkpt lat="25.256396" lon="103.117181">
<time>2016-10-07T01:13:19Z</time></trkpt>
<trkpt lat="25.256356" lon="103.117111">
<time>2016-10-07T01:13:20Z</time></trkpt>
<trkpt lat="25.256326" lon="103.117051">
<time>2016-10-07T01:13:21Z</time></trkpt>
<trkpt lat="25.256296" lon="103.117001">
<time>2016-10-07T01:13:22Z</time></trkpt>
<trkpt lat="25.256266" lon="103.116961">
<time>2016-10-07T01:13:23Z</time></trkpt>
<trkpt lat="25.256216" lon="103.116901">
<time>2016-10-07T01:13:24Z</time></trkpt>
<trkpt lat="25.256146" lon="103.116831">
<time>2016-10-07T01:13:25Z</time></trkpt>
<trkpt lat="25.256085" lon="103.116751">
<time>2016-10-07T01:13:26Z</time></trkpt>
<trkpt lat="25.255985" lon="103.116641">
<time>2016-10-07T01:13:27Z</time></trkpt>
<trkpt lat="25.255495" lon="103.116091">
<time>2016-10-07T01:13:28Z</time></trkpt>
<trkpt lat="25.255275" lon="103.115831">
<time>2016-10-07T01:13:29Z</time></trkpt>
<trkpt lat="25.255044" lon="103.115551">
<time>2016-10-07T01:13:30Z</time></trkpt>
<trkpt lat="25.254974" lon="103.115461">
<time>2016-10-07T01:13:31Z</time></trkpt>
<trkpt lat="25.254884" lon="103.115351">
<time>2016-10-07T01:13:32Z</time></trkpt>
<trkpt lat="25.254814" lon="103.115261">
<time>2016-10-07T01:13:33Z</time></trkpt>
<trkpt lat="25.254714" lon="103.115121">
<time>2016-10-07T01:13:34Z</time></trkpt>
<trkpt lat="25.254704" lon="103.115101">
<time>2016-10-07T01:13:35Z</time></trkpt>
<trkpt lat="25.254344" lon="103.114611">
<time>2016-10-07T01:13:36Z</time></trkpt>
<trkpt lat="25.254234" lon="103.114461">
<time>2016-10-07T01:13:37Z</time></trkpt>
<trkpt lat="25.254113" lon="103.114301">
<time>2016-10-07T01:13:38Z</time></trkpt>
<trkpt lat="25.253953" lon="103.114091">
<time>2016-10-07T01:13:39Z</time></trkpt>
<trkpt lat="25.253683" lon="103.113701">
<time>2016-10-07T01:13:40Z</time></trkpt>
<trkpt lat="25.253483" lon="103.113431">
<time>2016-10-07T01:13:41Z</time></trkpt>
<trkpt lat="25.253323" lon="103.113231">
<time>2016-10-07T01:13:42Z</time></trkpt>
<trkpt lat="25.253203" lon="103.113051">
<time>2016-10-07T01:13:43Z</time></trkpt>
<trkpt lat="25.253173" lon="103.113021">
<time>2016-10-07T01:13:44Z</time></trkpt>
<trkpt lat="25.253082" lon="103.112881">
<time>2016-10-07T01:13:45Z</time></trkpt>
<trkpt lat="25.252962" lon="103.112721">
<time>2016-10-07T01:13:46Z</time></trkpt>
<trkpt lat="25.252782" lon="103.112471">
<time>2016-10-07T01:13:47Z</time></trkpt>
<trkpt lat="25.252622" lon="103.112291">
<time>2016-10-07T01:13:48Z</time></trkpt>
<trkpt lat="25.252452" lon="103.112071">
<time>2016-10-07T01:13:49Z</time></trkpt>
<trkpt lat="25.252192" lon="103.111781">
<time>2016-10-07T01:13:50Z</time></trkpt>
<trkpt lat="25.251901" lon="103.111471">
<time>2016-10-07T01:13:51Z</time></trkpt>
<trkpt lat="25.251871" lon="103.111431">
<time>2016-10-07T01:13:52Z</time></trkpt>
<trkpt lat="25.251701" lon="103.111261">
<time>2016-10-07T01:13:53Z</time></trkpt>
<trkpt lat="25.251211" lon="103.110781">
<time>2016-10-07T01:13:54Z</time></trkpt>
<trkpt lat="25.250771" lon="103.110341">
<time>2016-10-07T01:13:55Z</time></trkpt>
<trkpt lat="25.250511" lon="103.110101">
<time>2016-10-07T01:13:56Z</time></trkpt>
<trkpt lat="25.250401" lon="103.110011">
<time>2016-10-07T01:13:57Z</time></trkpt>
<trkpt lat="25.250351" lon="103.109961">
<time>2016-10-07T01:13:58Z</time></trkpt>
<trkpt lat="25.25027" lon="103.109911">
<time>2016-10-07T01:13:59Z</time></trkpt>
<trkpt lat="25.2502" lon="103.109861">
<time>2016-10-07T01:14:00Z</time></trkpt>
<trkpt lat="25.25013" lon="103.109831">
<time>2016-10-07T01:14:01Z</time></trkpt>
<trkpt lat="25.25008" lon="103.109801">
<time>2016-10-07T01:14:02Z</time></trkpt>
<trkpt lat="25.25004" lon="103.109781">
<time>2016-10-07T01:14:03Z</time></trkpt>
<trkpt lat="25.25002" lon="103.109771">
<time>2016-10-07T01:14:04Z</time></trkpt>
<trkpt lat="25.24998" lon="103.109751">
<time>2016-10-07T01:14:05Z</time></trkpt>
<trkpt lat="25.24994" lon="103.109721">
<time>2016-10-07T01:14:06Z</time></trkpt>
<trkpt lat="25.24987" lon="103.109681">
<time>2016-10-07T01:14:07Z</time></trkpt>
<trkpt lat="25.24978" lon="103.109641">
<time>2016-10-07T01:14:08Z</time></trkpt>
<trkpt lat="25.2497" lon="103.109611">
<time>2016-10-07T01:14:09Z</time></trkpt>
<trkpt lat="25.24962" lon="103.109581">
<time>2016-10-07T01:14:10Z</time></trkpt>
<trkpt lat="25.24953" lon="103.109551">
<time>2016-10-07T01:14:11Z</time></trkpt>
<trkpt lat="25.24944" lon="103.109531">
<time>2016-10-07T01:14:12Z</time></trkpt>
<trkpt lat="25.24937" lon="103.109521">
<time>2016-10-07T01:14:13Z</time></trkpt>
<trkpt lat="25.24931" lon="103.109511">
<time>2016-10-07T01:14:14Z</time></trkpt>
<trkpt lat="25.24926" lon="103.109501">
<time>2016-10-07T01:14:15Z</time></trkpt>
<trkpt lat="25.24919" lon="103.109491">
<time>2016-10-07T01:14:16Z</time></trkpt>
<trkpt lat="25.24914" lon="103.109491">
<time>2016-10-07T01:14:17Z</time></trkpt>
<trkpt lat="25.2491" lon="103.109491">
<time>2016-10-07T01:14:18Z</time></trkpt>
<trkpt lat="25.24903" lon="103.109491">
<time>2016-10-07T01:14:19Z</time></trkpt>
<trkpt lat="25.24895" lon="103.109491">
<time>2016-10-07T01:14:20Z</time></trkpt>
<trkpt lat="25.24746" lon="103.109511">
<time>2016-10-07T01:14:21Z</time></trkpt>
<trkpt lat="25.24741" lon="103.109511">
<time>2016-10-07T01:14:22Z</time></trkpt>
<trkpt lat="25.24733" lon="103.109511">
<time>2016-10-07T01:14:23Z</time></trkpt>
<trkpt lat="25.24727" lon="103.109501">
<time>2016-10-07T01:14:24Z</time></trkpt>
<trkpt lat="25.24716" lon="103.109491">
<time>2016-10-07T01:14:25Z</time></trkpt>
<trkpt lat="25.24704" lon="103.109471">
<time>2016-10-07T01:14:26Z</time></trkpt>
<trkpt lat="25.24685" lon="103.109451">
<time>2016-10-07T01:14:27Z</time></trkpt>
<trkpt lat="25.24674" lon="103.109411">
<time>2016-10-07T01:14:28Z</time></trkpt>
<trkpt lat="25.24661" lon="103.109361">
<time>2016-10-07T01:14:29Z</time></trkpt>
<trkpt lat="25.24656" lon="103.109331">
<time>2016-10-07T01:14:30Z</time></trkpt>
<trkpt lat="25.24647" lon="103.109281">
<time>2016-10-07T01:14:31Z</time></trkpt>
<trkpt lat="25.24639" lon="103.109241">
<time>2016-10-07T01:14:32Z</time></trkpt>
<trkpt lat="25.24631" lon="103.109191">
<time>2016-10-07T01:14:33Z</time></trkpt>
<trkpt lat="25.24626" lon="103.109161">
<time>2016-10-07T01:14:34Z</time></trkpt>
<trkpt lat="25.24617" lon="103.109111">
<time>2016-10-07T01:14:35Z</time></trkpt>
<trkpt lat="25.2461" lon="103.109061">
<time>2016-10-07T01:14:36Z</time></trkpt>
<trkpt lat="25.24607" lon="103.109041">
<time>2016-10-07T01:14:37Z</time></trkpt>
<trkpt lat="25.246" lon="103.109001">
<time>2016-10-07T01:14:38Z</time></trkpt>
<trkpt lat="25.24588" lon="103.108911">
<time>2016-10-07T01:14:39Z</time></trkpt>
<trkpt lat="25.24578" lon="103.108831">
<time>2016-10-07T01:14:40Z</time></trkpt>
<trkpt lat="25.24567" lon="103.108751">
<time>2016-10-07T01:14:41Z</time></trkpt>
<trkpt lat="25.24556" lon="103.108661">
<time>2016-10-07T01:14:42Z</time></trkpt>
<trkpt lat="25.2455" lon="103.108621">
<time>2016-10-07T01:14:43Z</time></trkpt>
<trkpt lat="25.24543" lon="103.108561">
<time>2016-10-07T01:14:44Z</time></trkpt>
<trkpt lat="25.24538" lon="103.108501">
<time>2016-10-07T01:14:45Z</time></trkpt>
<trkpt lat="25.24531" lon="103.108421">
<time>2016-10-07T01:14:46Z</time></trkpt>
<trkpt lat="25.24528" lon="103.108371">
<time>2016-10-07T01:14:47Z</time></trkpt>
<trkpt lat="25.245209" lon="103.108281">
<time>2016-10-07T01:14:48Z</time></trkpt>
<trkpt lat="25.245169" lon="103.108211">
<time>2016-10-07T01:14:49Z</time></trkpt>
<trkpt lat="25.245129" lon="103.108151">
<time>2016-10-07T01:14:50Z</time></trkpt>
<trkpt lat="25.245059" lon="103.108061">
<time>2016-10-07T01:14:51Z</time></trkpt>
<trkpt lat="25.245019" lon="103.107981">
<time>2016-10-07T01:14:52Z</time></trkpt>
<trkpt lat="25.244949" lon="103.107881">
<time>2016-10-07T01:14:53Z</time></trkpt>
<trkpt lat="25.244879" lon="103.107781">
<time>2016-10-07T01:14:54Z</time></trkpt>
<trkpt lat="25.244819" lon="103.107671">
<time>2016-10-07T01:14:55Z</time></trkpt>
<trkpt lat="25.244769" lon="103.107601">
<time>2016-10-07T01:14:56Z</time></trkpt>
<trkpt lat="25.244719" lon="103.107521">
<time>2016-10-07T01:14:57Z</time></trkpt>
<trkpt lat="25.244679" lon="103.107451">
<time>2016-10-07T01:14:58Z</time></trkpt>
<trkpt lat="25.244619" lon="103.107361">
<time>2016-10-07T01:14:59Z</time></trkpt>
<trkpt lat="25.244569" lon="103.107281">
<time>2016-10-07T01:15:00Z</time></trkpt>
<trkpt lat="25.244529" lon="103.107221">
<time>2016-10-07T01:15:01Z</time></trkpt>
<trkpt lat="25.244419" lon="103.107061">
<time>2016-10-07T01:15:02Z</time></trkpt>
<trkpt lat="25.244369" lon="103.107011">
<time>2016-10-07T01:15:03Z</time></trkpt>
<trkpt lat="25.244319" lon="103.106951">
<time>2016-10-07T01:15:04Z</time></trkpt>
<trkpt lat="25.244269" lon="103.106881">
<time>2016-10-07T01:15:05Z</time></trkpt>
<trkpt lat="25.244219" lon="103.106831">
<time>2016-10-07T01:15:06Z</time></trkpt>
<trkpt lat="25.244169" lon="103.106751">
<time>2016-10-07T01:15:07Z</time></trkpt>
<trkpt lat="25.244129" lon="103.106691">
<time>2016-10-07T01:15:08Z</time></trkpt>
<trkpt lat="25.244079" lon="103.106621">
<time>2016-10-07T01:15:09Z</time></trkpt>
<trkpt lat="25.244029" lon="103.106541">
<time>2016-10-07T01:15:10Z</time></trkpt>
<trkpt lat="25.244009" lon="103.106491">
<time>2016-10-07T01:15:11Z</time></trkpt>
<trkpt lat="25.243989" lon="103.106441">
<time>2016-10-07T01:15:12Z</time></trkpt>
<trkpt lat="25.243949" lon="103.106371">
<time>2016-10-07T01:15:13Z</time></trkpt>
<trkpt lat="25.243348" lon="103.105612">
<time>2016-10-07T01:15:14Z</time></trkpt>
<trkpt lat="25.243158" lon="103.105372">
<time>2016-10-07T01:15:15Z</time></trkpt>
<trkpt lat="25.242718" lon="103.104752">
<time>2016-10-07T01:15:16Z</time></trkpt>
<trkpt lat="25.242548" lon="103.104552">
<time>2016-10-07T01:15:17Z</time></trkpt>
<trkpt lat="25.242438" lon="103.104452">
<time>2016-10-07T01:15:18Z</time></trkpt>
<trkpt lat="25.242268" lon="103.104302">
<time>2016-10-07T01:15:19Z</time></trkpt>
<trkpt lat="25.241938" lon="103.104062">
<time>2016-10-07T01:15:20Z</time></trkpt>
<trkpt lat="25.241778" lon="103.103942">
<time>2016-10-07T01:15:21Z</time></trkpt>
<trkpt lat="25.241698" lon="103.103832">
<time>2016-10-07T01:15:22Z</time></trkpt>
<trkpt lat="25.241658" lon="103.103712">
<time>2016-10-07T01:15:23Z</time></trkpt>
<trkpt lat="25.241637" lon="103.103602">
<time>2016-10-07T01:15:24Z</time></trkpt>
<trkpt lat="25.241617" lon="103.103432">
<time>2016-10-07T01:15:25Z</time></trkpt>
<trkpt lat="25.241587" lon="103.103102">
<time>2016-10-07T01:15:26Z</time></trkpt>
<trkpt lat="25.241527" lon="103.102853">
<time>2016-10-07T01:15:27Z</time></trkpt>
<trkpt lat="25.241437" lon="103.102573">
<time>2016-10-07T01:15:28Z</time></trkpt>
<trkpt lat="25.241357" lon="103.102393">
<time>2016-10-07T01:15:29Z</time></trkpt>
<trkpt lat="25.241077" lon="103.101993">
<time>2016-10-07T01:15:30Z</time></trkpt>
<trkpt lat="25.240797" lon="103.101293">
<time>2016-10-07T01:15:31Z</time></trkpt>
<trkpt lat="25.240537" lon="103.100624">
<time>2016-10-07T01:15:32Z</time></trkpt>
<trkpt lat="25.240517" lon="103.100534">
<time>2016-10-07T01:15:33Z</time></trkpt>
<trkpt lat="25.240477" lon="103.100384">
<time>2016-10-07T01:15:34Z</time></trkpt>
<trkpt lat="25.240437" lon="103.100194">
<time>2016-10-07T01:15:35Z</time></trkpt>
<trkpt lat="25.240417" lon="103.100114">
<time>2016-10-07T01:15:36Z</time></trkpt>
<trkpt lat="25.240407" lon="103.100054">
<time>2016-10-07T01:15:37Z</time></trkpt>
<trkpt lat="25.240397" lon="103.099904">
<time>2016-10-07T01:15:38Z</time></trkpt>
<trkpt lat="25.240377" lon="103.099764">
<time>2016-10-07T01:15:39Z</time></trkpt>
<trkpt lat="25.240377" lon="103.099614">
<time>2016-10-07T01:15:40Z</time></trkpt>
<trkpt lat="25.240377" lon="103.099454">
<time>2016-10-07T01:15:41Z</time></trkpt>
<trkpt lat="25.240377" lon="103.099324">
<time>2016-10-07T01:15:42Z</time></trkpt>
<trkpt lat="25.240396" lon="103.099184">
<time>2016-10-07T01:15:43Z</time></trkpt>
<trkpt lat="25.240416" lon="103.099024">
<time>2016-10-07T01:15:44Z</time></trkpt>
<trkpt lat="25.240426" lon="103.098924">
<time>2016-10-07T01:15:45Z</time></trkpt>
<trkpt lat="25.240456" lon="103.098775">
<time>2016-10-07T01:15:46Z</time></trkpt>
<trkpt lat="25.240486" lon="103.098595">
<time>2016-10-07T01:15:47Z</time></trkpt>
<trkpt lat="25.240486" lon="103.098565">
<time>2016-10-07T01:15:48Z</time></trkpt>
<trkpt lat="25.240506" lon="103.098445">
<time>2016-10-07T01:15:49Z</time></trkpt>
<trkpt lat="25.240636" lon="103.097715">
<time>2016-10-07T01:15:50Z</time></trkpt>
<trkpt lat="25.240686" lon="103.097495">
<time>2016-10-07T01:15:51Z</time></trkpt>
<trkpt lat="25.240746" lon="103.097345">
<time>2016-10-07T01:15:52Z</time></trkpt>
<trkpt lat="25.240826" lon="103.097196">
<time>2016-10-07T01:15:53Z</time></trkpt>
<trkpt lat="25.241066" lon="103.096896">
<time>2016-10-07T01:15:54Z</time></trkpt>
<trkpt lat="25.241276" lon="103.096576">
<time>2016-10-07T01:15:55Z</time></trkpt>
<trkpt lat="25.241416" lon="103.096396">
<time>2016-10-07T01:15:56Z</time></trkpt>
<trkpt lat="25.241416" lon="103.096346">
<time>2016-10-07T01:15:57Z</time></trkpt>
<trkpt lat="25.241296" lon="103.095367">
<time>2016-10-07T01:15:58Z</time></trkpt>
<trkpt lat="25.241266" lon="103.095167">
<time>2016-10-07T01:15:59Z</time></trkpt>
<trkpt lat="25.241266" lon="103.094987">
<time>2016-10-07T01:16:00Z</time></trkpt>
<trkpt lat="25.241286" lon="103.094747">
<time>2016-10-07T01:16:01Z</time></trkpt>
<trkpt lat="25.241296" lon="103.094517">
<time>2016-10-07T01:16:02Z</time></trkpt>
<trkpt lat="25.241306" lon="103.094428">
<time>2016-10-07T01:16:03Z</time></trkpt>
<trkpt lat="25.241266" lon="103.094258">
<time>2016-10-07T01:16:04Z</time></trkpt>
<trkpt lat="25.241136" lon="103.093998">
<time>2016-10-07T01:16:05Z</time></trkpt>
<trkpt lat="25.240716" lon="103.093298">
<time>2016-10-07T01:16:06Z</time></trkpt>
<trkpt lat="25.240357" lon="103.092609">
<time>2016-10-07T01:16:07Z</time></trkpt>
<trkpt lat="25.240067" lon="103.09207">
<time>2016-10-07T01:16:08Z</time></trkpt>
<trkpt lat="25.240057" lon="103.09205">
<time>2016-10-07T01:16:09Z</time></trkpt>
<trkpt lat="25.239607" lon="103.09122">
<time>2016-10-07T01:16:10Z</time></trkpt>
<trkpt lat="25.239437" lon="103.090911">
<time>2016-10-07T01:16:11Z</time></trkpt>
<trkpt lat="25.239217" lon="103.090491">
<time>2016-10-07T01:16:12Z</time></trkpt>
<trkpt lat="25.239157" lon="103.090391">
<time>2016-10-07T01:16:13Z</time></trkpt>
<trkpt lat="25.239027" lon="103.090131">
<time>2016-10-07T01:16:14Z</time></trkpt>
<trkpt lat="25.238328" lon="103.088773">
<time>2016-10-07T01:16:15Z</time></trkpt>
<trkpt lat="25.238278" lon="103.088653">
<time>2016-10-07T01:16:16Z</time></trkpt>
<trkpt lat="25.238218" lon="103.088513">
<time>2016-10-07T01:16:17Z</time></trkpt>
<trkpt lat="25.238188" lon="103.088423">
<time>2016-10-07T01:16:18Z</time></trkpt>
<trkpt lat="25.238178" lon="103.088363">
<time>2016-10-07T01:16:19Z</time></trkpt>
<trkpt lat="25.238148" lon="103.088203">
<time>2016-10-07T01:16:20Z</time></trkpt>
<trkpt lat="25.238128" lon="103.088024">
<time>2016-10-07T01:16:21Z</time></trkpt>
<trkpt lat="25.238128" lon="103.087914">
<time>2016-10-07T01:16:22Z</time></trkpt>
<trkpt lat="25.238128" lon="103.087724">
<time>2016-10-07T01:16:23Z</time></trkpt>
<trkpt lat="25.238118" lon="103.087504">
<time>2016-10-07T01:16:24Z</time></trkpt>
<trkpt lat="25.238128" lon="103.086865">
<time>2016-10-07T01:16:25Z</time></trkpt>
<trkpt lat="25.238128" lon="103.086735">
<time>2016-10-07T01:16:26Z</time></trkpt>
<trkpt lat="25.238118" lon="103.086635">
<time>2016-10-07T01:16:27Z</time></trkpt>
<trkpt lat="25.238098" lon="103.086575">
<time>2016-10-07T01:16:28Z</time></trkpt>
<trkpt lat="25.238088" lon="103.086525">
<time>2016-10-07T01:16:29Z</time></trkpt>
<trkpt lat="25.238078" lon="103.086495">
<time>2016-10-07T01:16:30Z</time></trkpt>
<trkpt lat="25.238068" lon="103.086465">
<time>2016-10-07T01:16:31Z</time></trkpt>
<trkpt lat="25.238048" lon="103.086426">
<time>2016-10-07T01:16:32Z</time></trkpt>
<trkpt lat="25.238018" lon="103.086386">
<time>2016-10-07T01:16:33Z</time></trkpt>
<trkpt lat="25.237978" lon="103.086336">
<time>2016-10-07T01:16:34Z</time></trkpt>
<trkpt lat="25.237908" lon="103.086256">
<time>2016-10-07T01:16:35Z</time></trkpt>
<trkpt lat="25.237789" lon="103.086116">
<time>2016-10-07T01:16:36Z</time></trkpt>
<trkpt lat="25.237689" lon="103.086006">
<time>2016-10-07T01:16:37Z</time></trkpt>
<trkpt lat="25.237509" lon="103.085866">
<time>2016-10-07T01:16:38Z</time></trkpt>
<trkpt lat="25.237359" lon="103.085756">
<time>2016-10-07T01:16:39Z</time></trkpt>
<trkpt lat="25.237259" lon="103.085686">
<time>2016-10-07T01:16:40Z</time></trkpt>
<trkpt lat="25.237149" lon="103.085617">
<time>2016-10-07T01:16:41Z</time></trkpt>
<trkpt lat="25.237029" lon="103.085557">
<time>2016-10-07T01:16:42Z</time></trkpt>
<trkpt lat="25.236909" lon="103.085497">
<time>2016-10-07T01:16:43Z</time></trkpt>
<trkpt lat="25.236819" lon="103.085467">
<time>2016-10-07T01:16:44Z</time></trkpt>
<trkpt lat="25.236729" lon="103.085437">
<time>2016-10-07T01:16:45Z</time></trkpt>
<trkpt lat="25.236639" lon="103.085417">
<time>2016-10-07T01:16:46Z</time></trkpt>
<trkpt lat="25.236639" lon="103.085417">
<time>2016-10-07T01:16:47Z</time></trkpt>
<trkpt lat="25.236719" lon="103.085077">
<time>2016-10-07T01:16:48Z</time></trkpt>
<trkpt lat="25.236849" lon="103.084728">
<time>2016-10-07T01:16:49Z</time></trkpt>
<trkpt lat="25.236849" lon="103.084728">
<time>2016-10-07T01:16:50Z</time></trkpt>
<trkpt lat="25.224972" lon="103.080634">
<time>2016-10-07T01:16:51Z</time></trkpt>
<trkpt lat="25.224972" lon="103.080634">
<time>2016-10-07T01:16:52Z</time></trkpt>
<trkpt lat="25.224982" lon="103.080584">
<time>2016-10-07T01:16:53Z</time></trkpt>
<trkpt lat="25.225072" lon="103.080204">
<time>2016-10-07T01:16:54Z</time></trkpt>
<trkpt lat="25.225132" lon="103.079935">
<time>2016-10-07T01:16:55Z</time></trkpt>
<trkpt lat="25.225252" lon="103.079525">
<time>2016-10-07T01:16:56Z</time></trkpt>
<trkpt lat="25.225313" lon="103.079306">
<time>2016-10-07T01:16:57Z</time></trkpt>
<trkpt lat="25.225383" lon="103.078986">
<time>2016-10-07T01:16:58Z</time></trkpt>
<trkpt lat="25.225413" lon="103.078866">
<time>2016-10-07T01:16:59Z</time></trkpt>
<trkpt lat="25.225433" lon="103.078766">
<time>2016-10-07T01:17:00Z</time></trkpt>
<trkpt lat="25.225483" lon="103.078607">
<time>2016-10-07T01:17:01Z</time></trkpt>
<trkpt lat="25.225513" lon="103.078467">
<time>2016-10-07T01:17:02Z</time></trkpt>
<trkpt lat="25.225614" lon="103.078038">
<time>2016-10-07T01:17:03Z</time></trkpt>
<trkpt lat="25.225724" lon="103.077628">
<time>2016-10-07T01:17:04Z</time></trkpt>
<trkpt lat="25.225794" lon="103.077339">
<time>2016-10-07T01:17:05Z</time></trkpt>
<trkpt lat="25.225814" lon="103.077279">
<time>2016-10-07T01:17:06Z</time></trkpt>
<trkpt lat="25.225814" lon="103.077279">
<time>2016-10-07T01:17:07Z</time></trkpt>
<trkpt lat="25.225344" lon="103.077169">
<time>2016-10-07T01:17:08Z</time></trkpt>
<trkpt lat="25.225304" lon="103.077159">
<time>2016-10-07T01:17:09Z</time></trkpt>
<trkpt lat="25.224435" lon="103.07688">
<time>2016-10-07T01:17:10Z</time></trkpt>
<trkpt lat="25.221206" lon="103.075642">
<time>2016-10-07T01:17:11Z</time></trkpt>
<trkpt lat="25.221206" lon="103.075642">
<time>2016-10-07T01:17:12Z</time></trkpt>
<trkpt lat="25.220577" lon="103.074154">
<time>2016-10-07T01:17:13Z</time></trkpt>
<trkpt lat="25.219728" lon="103.073026">
<time>2016-10-07T01:17:14Z</time></trkpt>
<trkpt lat="25.219119" lon="103.072298">
<time>2016-10-07T01:17:15Z</time></trkpt>
<trkpt lat="25.218061" lon="103.070641">
<time>2016-10-07T01:17:16Z</time></trkpt>
<trkpt lat="25.217621" lon="103.070152">
<time>2016-10-07T01:17:17Z</time></trkpt>
<trkpt lat="25.217612" lon="103.069853">
<time>2016-10-07T01:17:18Z</time></trkpt>
<trkpt lat="25.216943" lon="103.068635">
<time>2016-10-07T01:17:19Z</time></trkpt>
<trkpt lat="25.216943" lon="103.068635">
<time>2016-10-07T01:17:20Z</time></trkpt>
<trkpt lat="25.217064" lon="103.068206">
<time>2016-10-07T01:17:21Z</time></trkpt>
<trkpt lat="25.217114" lon="103.068066">
<time>2016-10-07T01:17:22Z</time></trkpt>
<trkpt lat="25.217174" lon="103.067967">
<time>2016-10-07T01:17:23Z</time></trkpt>
<trkpt lat="25.217404" lon="103.067717">
<time>2016-10-07T01:17:24Z</time></trkpt>
<trkpt lat="25.217495" lon="103.067577">
<time>2016-10-07T01:17:25Z</time></trkpt>
<trkpt lat="25.217615" lon="103.067248">
<time>2016-10-07T01:17:26Z</time></trkpt>
<trkpt lat="25.217725" lon="103.066989">
<time>2016-10-07T01:17:27Z</time></trkpt>
<trkpt lat="25.217836" lon="103.066809">
<time>2016-10-07T01:17:28Z</time></trkpt>
<trkpt lat="25.217976" lon="103.06655">
<time>2016-10-07T01:17:29Z</time></trkpt>
<trkpt lat="25.218086" lon="103.06626">
<time>2016-10-07T01:17:30Z</time></trkpt>
<trkpt lat="25.218187" lon="103.066001">
<time>2016-10-07T01:17:31Z</time></trkpt>
<trkpt lat="25.218227" lon="103.065911">
<time>2016-10-07T01:17:32Z</time></trkpt>
<trkpt lat="25.218297" lon="103.065821">
<time>2016-10-07T01:17:33Z</time></trkpt>
<trkpt lat="25.218357" lon="103.065771">
<time>2016-10-07T01:17:34Z</time></trkpt>
<trkpt lat="25.218387" lon="103.065741">
<time>2016-10-07T01:17:35Z</time></trkpt>
<trkpt lat="25.218667" lon="103.065512">
<time>2016-10-07T01:17:36Z</time></trkpt>
<trkpt lat="25.218878" lon="103.065192">
<time>2016-10-07T01:17:37Z</time></trkpt>
<trkpt lat="25.218948" lon="103.065103">
<time>2016-10-07T01:17:38Z</time></trkpt>
<trkpt lat="25.219209" lon="103.064225">
<time>2016-10-07T01:17:39Z</time></trkpt>
<trkpt lat="25.21935" lon="103.063586">
<time>2016-10-07T01:17:40Z</time></trkpt>
<trkpt lat="25.21935" lon="103.063586">
<time>2016-10-07T01:17:41Z</time></trkpt>
<trkpt lat="25.2193" lon="103.063606">
<time>2016-10-07T01:17:42Z</time></trkpt>
<trkpt lat="25.21929" lon="103.063606">
<time>2016-10-07T01:17:43Z</time></trkpt>
<trkpt lat="25.21928" lon="103.063616">
<time>2016-10-07T01:17:44Z</time></trkpt>
<trkpt lat="25.21926" lon="103.063616">
<time>2016-10-07T01:17:45Z</time></trkpt>
<trkpt lat="25.21924" lon="103.063616">
<time>2016-10-07T01:17:46Z</time></trkpt>
<trkpt lat="25.2192" lon="103.063616">
<time>2016-10-07T01:17:47Z</time></trkpt>
<trkpt lat="25.21915" lon="103.063606">
<time>2016-10-07T01:17:48Z</time></trkpt>
<trkpt lat="25.21904" lon="103.063596">
<time>2016-10-07T01:17:49Z</time></trkpt>
<trkpt lat="25.21885" lon="103.063576">
<time>2016-10-07T01:17:50Z</time></trkpt>
<trkpt lat="25.21858" lon="103.063536">
<time>2016-10-07T01:17:51Z</time></trkpt>
<trkpt lat="25.21852" lon="103.063536">
<time>2016-10-07T01:17:52Z</time></trkpt>
<trkpt lat="25.21852" lon="103.063536">
<time>2016-10-07T01:17:53Z</time></trkpt>
<trkpt lat="25.218452" lon="103.062429">
<time>2016-10-07T01:17:54Z</time></trkpt>
<trkpt lat="25.218413" lon="103.061711">
<time>2016-10-07T01:17:55Z</time></trkpt>
<trkpt lat="25.218413" lon="103.061691">
<time>2016-10-07T01:17:56Z</time></trkpt>
<trkpt lat="25.218403" lon="103.061541">
<time>2016-10-07T01:17:57Z</time></trkpt>
<trkpt lat="25.218343" lon="103.061381">
<time>2016-10-07T01:17:58Z</time></trkpt>
<trkpt lat="25.218234" lon="103.061192">
<time>2016-10-07T01:17:59Z</time></trkpt>
<trkpt lat="25.217395" lon="103.060154">
<time>2016-10-07T01:18:00Z</time></trkpt>
<trkpt lat="25.217395" lon="103.060154">
<time>2016-10-07T01:18:01Z</time></trkpt>
<trkpt lat="25.217196" lon="103.059925">
<time>2016-10-07T01:18:02Z</time></trkpt>
<trkpt lat="25.217106" lon="103.059795">
<time>2016-10-07T01:18:03Z</time></trkpt>
<trkpt lat="25.217036" lon="103.059686">
<time>2016-10-07T01:18:04Z</time></trkpt>
<trkpt lat="25.216976" lon="103.059616">
<time>2016-10-07T01:18:05Z</time></trkpt>
<trkpt lat="25.216757" lon="103.059416">
<time>2016-10-07T01:18:06Z</time></trkpt>
<trkpt lat="25.216597" lon="103.059297">
<time>2016-10-07T01:18:07Z</time></trkpt>
<trkpt lat="25.216417" lon="103.059177">
<time>2016-10-07T01:18:08Z</time></trkpt>
<trkpt lat="25.216367" lon="103.059107">
<time>2016-10-07T01:18:09Z</time></trkpt>
<trkpt lat="25.216137" lon="103.058977">
<time>2016-10-07T01:18:10Z</time></trkpt>
<trkpt lat="25.215848" lon="103.058838">
<time>2016-10-07T01:18:11Z</time></trkpt>
<trkpt lat="25.215788" lon="103.058768">
<time>2016-10-07T01:18:12Z</time></trkpt>
<trkpt lat="25.215748" lon="103.058698">
<time>2016-10-07T01:18:13Z</time></trkpt>
<trkpt lat="25.215688" lon="103.058668">
<time>2016-10-07T01:18:14Z</time></trkpt>
<trkpt lat="25.215618" lon="103.058628">
<time>2016-10-07T01:18:15Z</time></trkpt>
<trkpt lat="25.215568" lon="103.058618">
<time>2016-10-07T01:18:16Z</time></trkpt>
<trkpt lat="25.215518" lon="103.058598">
<time>2016-10-07T01:18:17Z</time></trkpt>
<trkpt lat="25.215478" lon="103.058558">
<time>2016-10-07T01:18:18Z</time></trkpt>
<trkpt lat="25.215488" lon="103.058519">
<time>2016-10-07T01:18:19Z</time></trkpt>
<trkpt lat="25.215488" lon="103.058519">
<time>2016-10-07T01:18:20Z</time></trkpt>
<trkpt lat="25.214979" lon="103.058229">
<time>2016-10-07T01:18:21Z</time></trkpt>
<trkpt lat="25.214879" lon="103.058149">
<time>2016-10-07T01:18:22Z</time></trkpt>
<trkpt lat="25.214849" lon="103.05812">
<time>2016-10-07T01:18:23Z</time></trkpt>
<trkpt lat="25.214819" lon="103.05809">
<time>2016-10-07T01:18:24Z</time></trkpt>
<trkpt lat="25.214799" lon="103.05807">
<time>2016-10-07T01:18:25Z</time></trkpt>
<trkpt lat="25.214799" lon="103.05807">
<time>2016-10-07T01:18:26Z</time></trkpt>
<trkpt lat="25.214789" lon="103.058">
<time>2016-10-07T01:18:27Z</time></trkpt>
<trkpt lat="25.214739" lon="103.05791">
<time>2016-10-07T01:18:28Z</time></trkpt>
<trkpt lat="25.214649" lon="103.05778">
<time>2016-10-07T01:18:29Z</time></trkpt>
<trkpt lat="25.21453" lon="103.057601">
<time>2016-10-07T01:18:30Z</time></trkpt>
<trkpt lat="25.21449" lon="103.057541">
<time>2016-10-07T01:18:31Z</time></trkpt>
<trkpt lat="25.21443" lon="103.057451">
<time>2016-10-07T01:18:32Z</time></trkpt>
<trkpt lat="25.21441" lon="103.057411">
<time>2016-10-07T01:18:33Z</time></trkpt>
<trkpt lat="25.21434" lon="103.057242">
<time>2016-10-07T01:18:34Z</time></trkpt>
<trkpt lat="25.2143" lon="103.057122">
<time>2016-10-07T01:18:35Z</time></trkpt>
<trkpt lat="25.214291" lon="103.057062">
<time>2016-10-07T01:18:36Z</time></trkpt>
<trkpt lat="25.214261" lon="103.056963">
<time>2016-10-07T01:18:37Z</time></trkpt>
<trkpt lat="25.214231" lon="103.056813">
<time>2016-10-07T01:18:38Z</time></trkpt>
<trkpt lat="25.214221" lon="103.056723">
<time>2016-10-07T01:18:39Z</time></trkpt>
<trkpt lat="25.214211" lon="103.056643">
<time>2016-10-07T01:18:40Z</time></trkpt>
<trkpt lat="25.214202" lon="103.056504">
<time>2016-10-07T01:18:41Z</time></trkpt>
<trkpt lat="25.214202" lon="103.056414">
<time>2016-10-07T01:18:42Z</time></trkpt>
<trkpt lat="25.214192" lon="103.056284">
<time>2016-10-07T01:18:43Z</time></trkpt>
<trkpt lat="25.214172" lon="103.056105">
<time>2016-10-07T01:18:44Z</time></trkpt>
<trkpt lat="25.214132" lon="103.055975">
<time>2016-10-07T01:18:45Z</time></trkpt>
<trkpt lat="25.214063" lon="103.055806">
<time>2016-10-07T01:18:46Z</time></trkpt>
<trkpt lat="25.214003" lon="103.055686">
<time>2016-10-07T01:18:47Z</time></trkpt>
<trkpt lat="25.213913" lon="103.055566">
<time>2016-10-07T01:18:48Z</time></trkpt>
<trkpt lat="25.213853" lon="103.055486">
<time>2016-10-07T01:18:49Z</time></trkpt>
<trkpt lat="25.213783" lon="103.055407">
<time>2016-10-07T01:18:50Z</time></trkpt>
<trkpt lat="25.213764" lon="103.055367">
<time>2016-10-07T01:18:51Z</time></trkpt>
<trkpt lat="25.213734" lon="103.055317">
<time>2016-10-07T01:18:52Z</time></trkpt>
<trkpt lat="25.213674" lon="103.055117">
<time>2016-10-07T01:18:53Z</time></trkpt>
<trkpt lat="25.213654" lon="103.055028">
<time>2016-10-07T01:18:54Z</time></trkpt>
<trkpt lat="25.213614" lon="103.054848">
<time>2016-10-07T01:18:55Z</time></trkpt>
<trkpt lat="25.213575" lon="103.054719">
<time>2016-10-07T01:18:56Z</time></trkpt>
<trkpt lat="25.213545" lon="103.054619">
<time>2016-10-07T01:18:57Z</time></trkpt>
<trkpt lat="25.213485" lon="103.054509">
<time>2016-10-07T01:18:58Z</time></trkpt>
<trkpt lat="25.213445" lon="103.054459">
<time>2016-10-07T01:18:59Z</time></trkpt>
<trkpt lat="25.213395" lon="103.054409">
<time>2016-10-07T01:19:00Z</time></trkpt>
<trkpt lat="25.213295" lon="103.05432">
<time>2016-10-07T01:19:01Z</time></trkpt>
<trkpt lat="25.213246" lon="103.05427">
<time>2016-10-07T01:19:02Z</time></trkpt>
<trkpt lat="25.213196" lon="103.0542">
<time>2016-10-07T01:19:03Z</time></trkpt>
<trkpt lat="25.213106" lon="103.05407">
<time>2016-10-07T01:19:04Z</time></trkpt>
<trkpt lat="25.213006" lon="103.053871">
<time>2016-10-07T01:19:05Z</time></trkpt>
<trkpt lat="25.212907" lon="103.053721">
<time>2016-10-07T01:19:06Z</time></trkpt>
<trkpt lat="25.212697" lon="103.053253">
<time>2016-10-07T01:19:07Z</time></trkpt>
<trkpt lat="25.212668" lon="103.053203">
<time>2016-10-07T01:19:08Z</time></trkpt>
<trkpt lat="25.212638" lon="103.053143">
<time>2016-10-07T01:19:09Z</time></trkpt>
<trkpt lat="25.212458" lon="103.052894">
<time>2016-10-07T01:19:10Z</time></trkpt>
<trkpt lat="25.212319" lon="103.052664">
<time>2016-10-07T01:19:11Z</time></trkpt>
<trkpt lat="25.212179" lon="103.052385">
<time>2016-10-07T01:19:12Z</time></trkpt>
<trkpt lat="25.2119" lon="103.051986">
<time>2016-10-07T01:19:13Z</time></trkpt>
<trkpt lat="25.21185" lon="103.051916">
<time>2016-10-07T01:19:14Z</time></trkpt>
<trkpt lat="25.2118" lon="103.051866">
<time>2016-10-07T01:19:15Z</time></trkpt>
<trkpt lat="25.21173" lon="103.051827">
<time>2016-10-07T01:19:16Z</time></trkpt>
<trkpt lat="25.21142" lon="103.051737">
<time>2016-10-07T01:19:17Z</time></trkpt>
<trkpt lat="25.21112" lon="103.051647">
<time>2016-10-07T01:19:18Z</time></trkpt>
<trkpt lat="25.211001" lon="103.051627">
<time>2016-10-07T01:19:19Z</time></trkpt>
<trkpt lat="25.210891" lon="103.051607">
<time>2016-10-07T01:19:20Z</time></trkpt>
<trkpt lat="25.210801" lon="103.051577">
<time>2016-10-07T01:19:21Z</time></trkpt>
<trkpt lat="25.210741" lon="103.051537">
<time>2016-10-07T01:19:22Z</time></trkpt>
<trkpt lat="25.210691" lon="103.051498">
<time>2016-10-07T01:19:23Z</time></trkpt>
<trkpt lat="25.210641" lon="103.051438">
<time>2016-10-07T01:19:24Z</time></trkpt>
<trkpt lat="25.210531" lon="103.051218">
<time>2016-10-07T01:19:25Z</time></trkpt>
<trkpt lat="25.210481" lon="103.051139">
<time>2016-10-07T01:19:26Z</time></trkpt>
<trkpt lat="25.210442" lon="103.051079">
<time>2016-10-07T01:19:27Z</time></trkpt>
<trkpt lat="25.210402" lon="103.051029">
<time>2016-10-07T01:19:28Z</time></trkpt>
<trkpt lat="25.210332" lon="103.050959">
<time>2016-10-07T01:19:29Z</time></trkpt>
<trkpt lat="25.210232" lon="103.050859">
<time>2016-10-07T01:19:30Z</time></trkpt>
<trkpt lat="25.209703" lon="103.05049">
<time>2016-10-07T01:19:31Z</time></trkpt>
<trkpt lat="25.209583" lon="103.050401">
<time>2016-10-07T01:19:32Z</time></trkpt>
<trkpt lat="25.209493" lon="103.050291">
<time>2016-10-07T01:19:33Z</time></trkpt>
<trkpt lat="25.209423" lon="103.050201">
<time>2016-10-07T01:19:34Z</time></trkpt>
<trkpt lat="25.209383" lon="103.050161">
<time>2016-10-07T01:19:35Z</time></trkpt>
<trkpt lat="25.209234" lon="103.050062">
<time>2016-10-07T01:19:36Z</time></trkpt>
<trkpt lat="25.209174" lon="103.049992">
<time>2016-10-07T01:19:37Z</time></trkpt>
<trkpt lat="25.209114" lon="103.049932">
<time>2016-10-07T01:19:38Z</time></trkpt>
<trkpt lat="25.208994" lon="103.049773">
<time>2016-10-07T01:19:39Z</time></trkpt>
<trkpt lat="25.208954" lon="103.049733">
<time>2016-10-07T01:19:40Z</time></trkpt>
<trkpt lat="25.208904" lon="103.049683">
<time>2016-10-07T01:19:41Z</time></trkpt>
<trkpt lat="25.208864" lon="103.049653">
<time>2016-10-07T01:19:42Z</time></trkpt>
<trkpt lat="25.208775" lon="103.049603">
<time>2016-10-07T01:19:43Z</time></trkpt>
<trkpt lat="25.208755" lon="103.049583">
<time>2016-10-07T01:19:44Z</time></trkpt>
<trkpt lat="25.208745" lon="103.049563">
<time>2016-10-07T01:19:45Z</time></trkpt>
<trkpt lat="25.208695" lon="103.049434">
<time>2016-10-07T01:19:46Z</time></trkpt>
<trkpt lat="25.208665" lon="103.049384">
<time>2016-10-07T01:19:47Z</time></trkpt>
<trkpt lat="25.208655" lon="103.049344">
<time>2016-10-07T01:19:48Z</time></trkpt>
<trkpt lat="25.208635" lon="103.049234">
<time>2016-10-07T01:19:49Z</time></trkpt>
<trkpt lat="25.208636" lon="103.049115">
<time>2016-10-07T01:19:50Z</time></trkpt>
<trkpt lat="25.208636" lon="103.048935">
<time>2016-10-07T01:19:51Z</time></trkpt>
<trkpt lat="25.208636" lon="103.048875">
<time>2016-10-07T01:19:52Z</time></trkpt>
<trkpt lat="25.208656" lon="103.048736">
<time>2016-10-07T01:19:53Z</time></trkpt>
<trkpt lat="25.208677" lon="103.048516">
<time>2016-10-07T01:19:54Z</time></trkpt>
<trkpt lat="25.208677" lon="103.048516">
<time>2016-10-07T01:19:55Z</time></trkpt>
<trkpt lat="25.208547" lon="103.048466">
<time>2016-10-07T01:19:56Z</time></trkpt>
<trkpt lat="25.208297" lon="103.048387">
<time>2016-10-07T01:19:57Z</time></trkpt>
<trkpt lat="25.207927" lon="103.048237">
<time>2016-10-07T01:19:58Z</time></trkpt>
<trkpt lat="25.207458" lon="103.048018">
<time>2016-10-07T01:19:59Z</time></trkpt>
<trkpt lat="25.207028" lon="103.047709">
<time>2016-10-07T01:20:00Z</time></trkpt>
<trkpt lat="25.206589" lon="103.04733">
<time>2016-10-07T01:20:01Z</time></trkpt>
<trkpt lat="25.20609" lon="103.046782">
<time>2016-10-07T01:20:02Z</time></trkpt>
<trkpt lat="25.205622" lon="103.046253">
<time>2016-10-07T01:20:03Z</time></trkpt>
<trkpt lat="25.204834" lon="103.045236">
<time>2016-10-07T01:20:04Z</time></trkpt>
<trkpt lat="25.204415" lon="103.044558">
<time>2016-10-07T01:20:05Z</time></trkpt>
<trkpt lat="25.204216" lon="103.044229">
<time>2016-10-07T01:20:06Z</time></trkpt>
<trkpt lat="25.203788" lon="103.043362">
<time>2016-10-07T01:20:07Z</time></trkpt>
<trkpt lat="25.203221" lon="103.042176">
<time>2016-10-07T01:20:08Z</time></trkpt>
<trkpt lat="25.203171" lon="103.042086">
<time>2016-10-07T01:20:09Z</time></trkpt>
<trkpt lat="25.202683" lon="103.04108">
<time>2016-10-07T01:20:10Z</time></trkpt>
<trkpt lat="25.202215" lon="103.040123">
<time>2016-10-07T01:20:11Z</time></trkpt>
<trkpt lat="25.201728" lon="103.039056">
<time>2016-10-07T01:20:12Z</time></trkpt>
<trkpt lat="25.200713" lon="103.036824">
<time>2016-10-07T01:20:13Z</time></trkpt>
<trkpt lat="25.200325" lon="103.035977">
<time>2016-10-07T01:20:14Z</time></trkpt>
<trkpt lat="25.199947" lon="103.035159">
<time>2016-10-07T01:20:15Z</time></trkpt>
<trkpt lat="25.199559" lon="103.034342">
<time>2016-10-07T01:20:16Z</time></trkpt>
<trkpt lat="25.199331" lon="103.033854">
<time>2016-10-07T01:20:17Z</time></trkpt>
<trkpt lat="25.198853" lon="103.032828">
<time>2016-10-07T01:20:18Z</time></trkpt>
<trkpt lat="25.198356" lon="103.031761">
<time>2016-10-07T01:20:19Z</time></trkpt>
<trkpt lat="25.197153" lon="103.029211">
<time>2016-10-07T01:20:20Z</time></trkpt>
<trkpt lat="25.195294" lon="103.025165">
<time>2016-10-07T01:20:21Z</time></trkpt>
<trkpt lat="25.195065" lon="103.024677">
<time>2016-10-07T01:20:22Z</time></trkpt>
<trkpt lat="25.194767" lon="103.024">
<time>2016-10-07T01:20:23Z</time></trkpt>
<trkpt lat="25.193067" lon="103.020304">
<time>2016-10-07T01:20:24Z</time></trkpt>
<trkpt lat="25.191358" lon="103.016618">
<time>2016-10-07T01:20:25Z</time></trkpt>
<trkpt lat="25.189113" lon="103.011698">
<time>2016-10-07T01:20:26Z</time></trkpt>
<trkpt lat="25.187682" lon="103.00852">
<time>2016-10-07T01:20:27Z</time></trkpt>
<trkpt lat="25.186291" lon="103.005572">
<time>2016-10-07T01:20:28Z</time></trkpt>
<trkpt lat="25.186082" lon="103.005253">
<time>2016-10-07T01:20:29Z</time></trkpt>
<trkpt lat="25.184997" lon="103.00354">
<time>2016-10-07T01:20:30Z</time></trkpt>
<trkpt lat="25.183673" lon="103.001668">
<time>2016-10-07T01:20:31Z</time></trkpt>
<trkpt lat="25.182078" lon="103.000015">
<time>2016-10-07T01:20:32Z</time></trkpt>
<trkpt lat="25.182018" lon="102.999965">
<time>2016-10-07T01:20:33Z</time></trkpt>
<trkpt lat="25.181589" lon="102.999616">
<time>2016-10-07T01:20:34Z</time></trkpt>
<trkpt lat="25.1815" lon="102.999547">
<time>2016-10-07T01:20:35Z</time></trkpt>
<trkpt lat="25.180891" lon="102.999088">
<time>2016-10-07T01:20:36Z</time></trkpt>
<trkpt lat="25.180322" lon="102.99871">
<time>2016-10-07T01:20:37Z</time></trkpt>
<trkpt lat="25.179783" lon="102.998381">
<time>2016-10-07T01:20:38Z</time></trkpt>
<trkpt lat="25.179254" lon="102.998073">
<time>2016-10-07T01:20:39Z</time></trkpt>
<trkpt lat="25.178445" lon="102.997654">
<time>2016-10-07T01:20:40Z</time></trkpt>
<trkpt lat="25.177826" lon="102.997375">
<time>2016-10-07T01:20:41Z</time></trkpt>
<trkpt lat="25.176778" lon="102.996947">
<time>2016-10-07T01:20:42Z</time></trkpt>
<trkpt lat="25.176108" lon="102.996728">
<time>2016-10-07T01:20:43Z</time></trkpt>
<trkpt lat="25.17488" lon="102.99634">
<time>2016-10-07T01:20:44Z</time></trkpt>
<trkpt lat="25.173721" lon="102.995981">
<time>2016-10-07T01:20:45Z</time></trkpt>
<trkpt lat="25.172642" lon="102.995663">
<time>2016-10-07T01:20:46Z</time></trkpt>
<trkpt lat="25.172012" lon="102.995463">
<time>2016-10-07T01:20:47Z</time></trkpt>
<trkpt lat="25.170934" lon="102.995115">
<time>2016-10-07T01:20:48Z</time></trkpt>
<trkpt lat="25.169885" lon="102.994746">
<time>2016-10-07T01:20:49Z</time></trkpt>
<trkpt lat="25.169286" lon="102.994487">
<time>2016-10-07T01:20:50Z</time></trkpt>
<trkpt lat="25.168247" lon="102.994019">
<time>2016-10-07T01:20:51Z</time></trkpt>
<trkpt lat="25.166679" lon="102.993372">
<time>2016-10-07T01:20:52Z</time></trkpt>
<trkpt lat="25.166409" lon="102.993262">
<time>2016-10-07T01:20:53Z</time></trkpt>
<trkpt lat="25.16616" lon="102.993153">
<time>2016-10-07T01:20:54Z</time></trkpt>
<trkpt lat="25.16573" lon="102.993003">
<time>2016-10-07T01:20:55Z</time></trkpt>
<trkpt lat="25.164991" lon="102.992745">
<time>2016-10-07T01:20:56Z</time></trkpt>
<trkpt lat="25.164512" lon="102.992575">
<time>2016-10-07T01:20:57Z</time></trkpt>
<trkpt lat="25.164352" lon="102.992535">
<time>2016-10-07T01:20:58Z</time></trkpt>
<trkpt lat="25.163862" lon="102.992386">
<time>2016-10-07T01:20:59Z</time></trkpt>
<trkpt lat="25.163393" lon="102.992257">
<time>2016-10-07T01:21:00Z</time></trkpt>
<trkpt lat="25.162893" lon="102.992127">
<time>2016-10-07T01:21:01Z</time></trkpt>
<trkpt lat="25.162493" lon="102.992028">
<time>2016-10-07T01:21:02Z</time></trkpt>
<trkpt lat="25.161924" lon="102.991918">
<time>2016-10-07T01:21:03Z</time></trkpt>
<trkpt lat="25.161554" lon="102.991858">
<time>2016-10-07T01:21:04Z</time></trkpt>
<trkpt lat="25.161164" lon="102.991798">
<time>2016-10-07T01:21:05Z</time></trkpt>
<trkpt lat="25.160674" lon="102.991719">
<time>2016-10-07T01:21:06Z</time></trkpt>
<trkpt lat="25.160045" lon="102.991609">
<time>2016-10-07T01:21:07Z</time></trkpt>
<trkpt lat="25.157166" lon="102.991281">
<time>2016-10-07T01:21:08Z</time></trkpt>
<trkpt lat="25.155337" lon="102.990922">
<time>2016-10-07T01:21:09Z</time></trkpt>
<trkpt lat="25.153728" lon="102.990484">
<time>2016-10-07T01:21:10Z</time></trkpt>
<trkpt lat="25.15273" lon="102.990145">
<time>2016-10-07T01:21:11Z</time></trkpt>
<trkpt lat="25.151871" lon="102.989797">
<time>2016-10-07T01:21:12Z</time></trkpt>
<trkpt lat="25.151341" lon="102.989618">
<time>2016-10-07T01:21:13Z</time></trkpt>
<trkpt lat="25.150492" lon="102.989229">
<time>2016-10-07T01:21:14Z</time></trkpt>
<trkpt lat="25.149614" lon="102.988821">
<time>2016-10-07T01:21:15Z</time></trkpt>
<trkpt lat="25.149015" lon="102.988502">
<time>2016-10-07T01:21:16Z</time></trkpt>
<trkpt lat="25.147927" lon="102.987904">
<time>2016-10-07T01:21:17Z</time></trkpt>
<trkpt lat="25.147877" lon="102.987875">
<time>2016-10-07T01:21:18Z</time></trkpt>
<trkpt lat="25.147587" lon="102.987695">
<time>2016-10-07T01:21:19Z</time></trkpt>
<trkpt lat="25.146759" lon="102.987148">
<time>2016-10-07T01:21:20Z</time></trkpt>
<trkpt lat="25.14597" lon="102.986669">
<time>2016-10-07T01:21:21Z</time></trkpt>
<trkpt lat="25.145581" lon="102.98643">
<time>2016-10-07T01:21:22Z</time></trkpt>
<trkpt lat="25.144942" lon="102.986052">
<time>2016-10-07T01:21:23Z</time></trkpt>
<trkpt lat="25.144523" lon="102.985783">
<time>2016-10-07T01:21:24Z</time></trkpt>
<trkpt lat="25.143515" lon="102.985175">
<time>2016-10-07T01:21:25Z</time></trkpt>
<trkpt lat="25.142906" lon="102.984797">
<time>2016-10-07T01:21:26Z</time></trkpt>
<trkpt lat="25.141898" lon="102.984209">
<time>2016-10-07T01:21:27Z</time></trkpt>
<trkpt lat="25.141229" lon="102.983891">
<time>2016-10-07T01:21:28Z</time></trkpt>
<trkpt lat="25.14066" lon="102.983602">
<time>2016-10-07T01:21:29Z</time></trkpt>
<trkpt lat="25.14035" lon="102.983442">
<time>2016-10-07T01:21:30Z</time></trkpt>
<trkpt lat="25.140211" lon="102.983383">
<time>2016-10-07T01:21:31Z</time></trkpt>
<trkpt lat="25.139941" lon="102.983233">
<time>2016-10-07T01:21:32Z</time></trkpt>
<trkpt lat="25.139212" lon="102.982845">
<time>2016-10-07T01:21:33Z</time></trkpt>
<trkpt lat="25.138453" lon="102.982486">
<time>2016-10-07T01:21:34Z</time></trkpt>
<trkpt lat="25.137664" lon="102.982108">
<time>2016-10-07T01:21:35Z</time></trkpt>
<trkpt lat="25.136766" lon="102.981699">
<time>2016-10-07T01:21:36Z</time></trkpt>
<trkpt lat="25.135907" lon="102.981321">
<time>2016-10-07T01:21:37Z</time></trkpt>
<trkpt lat="25.135328" lon="102.981032">
<time>2016-10-07T01:21:38Z</time></trkpt>
<trkpt lat="25.13402" lon="102.980404">
<time>2016-10-07T01:21:39Z</time></trkpt>
<trkpt lat="25.132871" lon="102.979857">
<time>2016-10-07T01:21:40Z</time></trkpt>
<trkpt lat="25.132222" lon="102.979568">
<time>2016-10-07T01:21:41Z</time></trkpt>
<trkpt lat="25.131064" lon="102.97902">
<time>2016-10-07T01:21:42Z</time></trkpt>
<trkpt lat="25.130065" lon="102.978572">
<time>2016-10-07T01:21:43Z</time></trkpt>
<trkpt lat="25.128737" lon="102.977914">
<time>2016-10-07T01:21:44Z</time></trkpt>
<trkpt lat="25.127978" lon="102.977516">
<time>2016-10-07T01:21:45Z</time></trkpt>
<trkpt lat="25.127469" lon="102.977217">
<time>2016-10-07T01:21:46Z</time></trkpt>
<trkpt lat="25.126821" lon="102.976809">
<time>2016-10-07T01:21:47Z</time></trkpt>
<trkpt lat="25.126821" lon="102.976809">
<time>2016-10-07T01:21:48Z</time></trkpt>
<trkpt lat="25.126811" lon="102.976699">
<time>2016-10-07T01:21:49Z</time></trkpt>
<trkpt lat="25.126811" lon="102.976699">
<time>2016-10-07T01:21:50Z</time></trkpt>
<trkpt lat="25.126651" lon="102.976599">
<time>2016-10-07T01:21:51Z</time></trkpt>
<trkpt lat="25.126152" lon="102.976241">
<time>2016-10-07T01:21:52Z</time></trkpt>
<trkpt lat="25.125893" lon="102.976041">
<time>2016-10-07T01:21:53Z</time></trkpt>
<trkpt lat="25.125833" lon="102.976002">
<time>2016-10-07T01:21:54Z</time></trkpt>
<trkpt lat="25.125763" lon="102.975942">
<time>2016-10-07T01:21:55Z</time></trkpt>
<trkpt lat="25.125534" lon="102.975763">
<time>2016-10-07T01:21:56Z</time></trkpt>
<trkpt lat="25.125404" lon="102.975653">
<time>2016-10-07T01:21:57Z</time></trkpt>
<trkpt lat="25.125055" lon="102.975354">
<time>2016-10-07T01:21:58Z</time></trkpt>
<trkpt lat="25.124736" lon="102.975065">
<time>2016-10-07T01:21:59Z</time></trkpt>
<trkpt lat="25.123918" lon="102.974268">
<time>2016-10-07T01:22:00Z</time></trkpt>
<trkpt lat="25.122582" lon="102.972814">
<time>2016-10-07T01:22:01Z</time></trkpt>
<trkpt lat="25.122024" lon="102.972176">
<time>2016-10-07T01:22:02Z</time></trkpt>
<trkpt lat="25.121466" lon="102.971628">
<time>2016-10-07T01:22:03Z</time></trkpt>
<trkpt lat="25.121087" lon="102.97126">
<time>2016-10-07T01:22:04Z</time></trkpt>
<trkpt lat="25.120598" lon="102.970851">
<time>2016-10-07T01:22:05Z</time></trkpt>
<trkpt lat="25.120199" lon="102.970532">
<time>2016-10-07T01:22:06Z</time></trkpt>
<trkpt lat="25.11965" lon="102.970154">
<time>2016-10-07T01:22:07Z</time></trkpt>
<trkpt lat="25.118911" lon="102.969616">
<time>2016-10-07T01:22:08Z</time></trkpt>
<trkpt lat="25.117644" lon="102.968709">
<time>2016-10-07T01:22:09Z</time></trkpt>
<trkpt lat="25.117135" lon="102.96837">
<time>2016-10-07T01:22:10Z</time></trkpt>
<trkpt lat="25.116995" lon="102.968271">
<time>2016-10-07T01:22:11Z</time></trkpt>
<trkpt lat="25.116446" lon="102.967872">
<time>2016-10-07T01:22:12Z</time></trkpt>
<trkpt lat="25.115508" lon="102.967234">
<time>2016-10-07T01:22:13Z</time></trkpt>
<trkpt lat="25.114939" lon="102.966816">
<time>2016-10-07T01:22:14Z</time></trkpt>
<trkpt lat="25.114679" lon="102.966647">
<time>2016-10-07T01:22:15Z</time></trkpt>
<trkpt lat="25.11445" lon="102.966487">
<time>2016-10-07T01:22:16Z</time></trkpt>
<trkpt lat="25.113552" lon="102.965849">
<time>2016-10-07T01:22:17Z</time></trkpt>
<trkpt lat="25.112863" lon="102.965371">
<time>2016-10-07T01:22:18Z</time></trkpt>
<trkpt lat="25.111965" lon="102.964743">
<time>2016-10-07T01:22:19Z</time></trkpt>
<trkpt lat="25.111605" lon="102.964464">
<time>2016-10-07T01:22:20Z</time></trkpt>
<trkpt lat="25.111585" lon="102.964454">
<time>2016-10-07T01:22:21Z</time></trkpt>
<trkpt lat="25.111356" lon="102.964295">
<time>2016-10-07T01:22:22Z</time></trkpt>
<trkpt lat="25.10941" lon="102.9629">
<time>2016-10-07T01:22:23Z</time></trkpt>
<trkpt lat="25.107174" lon="102.961345">
<time>2016-10-07T01:22:24Z</time></trkpt>
<trkpt lat="25.105706" lon="102.960279">
<time>2016-10-07T01:22:25Z</time></trkpt>
<trkpt lat="25.104968" lon="102.959771">
<time>2016-10-07T01:22:26Z</time></trkpt>
<trkpt lat="25.104379" lon="102.959362">
<time>2016-10-07T01:22:27Z</time></trkpt>
<trkpt lat="25.104279" lon="102.959282">
<time>2016-10-07T01:22:28Z</time></trkpt>
<trkpt lat="25.102193" lon="102.957827">
<time>2016-10-07T01:22:29Z</time></trkpt>
<trkpt lat="25.100196" lon="102.956422">
<time>2016-10-07T01:22:30Z</time></trkpt>
<trkpt lat="25.09775" lon="102.954698">
<time>2016-10-07T01:22:31Z</time></trkpt>
<trkpt lat="25.095854" lon="102.953392">
<time>2016-10-07T01:22:32Z</time></trkpt>
<trkpt lat="25.093867" lon="102.951966">
<time>2016-10-07T01:22:33Z</time></trkpt>
<trkpt lat="25.09166" lon="102.950431">
<time>2016-10-07T01:22:34Z</time></trkpt>
<trkpt lat="25.090922" lon="102.949903">
<time>2016-10-07T01:22:35Z</time></trkpt>
<trkpt lat="25.089793" lon="102.949095">
<time>2016-10-07T01:22:36Z</time></trkpt>
<trkpt lat="25.089324" lon="102.948766">
<time>2016-10-07T01:22:37Z</time></trkpt>
<trkpt lat="25.088256" lon="102.947968">
<time>2016-10-07T01:22:38Z</time></trkpt>
<trkpt lat="25.087278" lon="102.947151">
<time>2016-10-07T01:22:39Z</time></trkpt>
<trkpt lat="25.085821" lon="102.945675">
<time>2016-10-07T01:22:40Z</time></trkpt>
<trkpt lat="25.085821" lon="102.945655">
<time>2016-10-07T01:22:41Z</time></trkpt>
<trkpt lat="25.085821" lon="102.945635">
<time>2016-10-07T01:22:42Z</time></trkpt>
<trkpt lat="25.085801" lon="102.945486">
<time>2016-10-07T01:22:43Z</time></trkpt>
<trkpt lat="25.085751" lon="102.945286">
<time>2016-10-07T01:22:44Z</time></trkpt>
<trkpt lat="25.085662" lon="102.945047">
<time>2016-10-07T01:22:45Z</time></trkpt>
<trkpt lat="25.085552" lon="102.944867">
<time>2016-10-07T01:22:46Z</time></trkpt>
<trkpt lat="25.085044" lon="102.944219">
<time>2016-10-07T01:22:47Z</time></trkpt>
<trkpt lat="25.084615" lon="102.943561">
<time>2016-10-07T01:22:48Z</time></trkpt>
<trkpt lat="25.084386" lon="102.943152">
<time>2016-10-07T01:22:49Z</time></trkpt>
<trkpt lat="25.084166" lon="102.942773">
<time>2016-10-07T01:22:50Z</time></trkpt>
<trkpt lat="25.083658" lon="102.941806">
<time>2016-10-07T01:22:51Z</time></trkpt>
<trkpt lat="25.083349" lon="102.941137">
<time>2016-10-07T01:22:52Z</time></trkpt>
<trkpt lat="25.083001" lon="102.940499">
<time>2016-10-07T01:22:53Z</time></trkpt>
<trkpt lat="25.082732" lon="102.939781">
<time>2016-10-07T01:22:54Z</time></trkpt>
<trkpt lat="25.082493" lon="102.939123">
<time>2016-10-07T01:22:55Z</time></trkpt>
<trkpt lat="25.082245" lon="102.938285">
<time>2016-10-07T01:22:56Z</time></trkpt>
<trkpt lat="25.082016" lon="102.937477">
<time>2016-10-07T01:22:57Z</time></trkpt>
<trkpt lat="25.081797" lon="102.936599">
<time>2016-10-07T01:22:58Z</time></trkpt>
<trkpt lat="25.0814" lon="102.934953">
<time>2016-10-07T01:22:59Z</time></trkpt>
<trkpt lat="25.080734" lon="102.932359">
<time>2016-10-07T01:23:00Z</time></trkpt>
<trkpt lat="25.080585" lon="102.93172">
<time>2016-10-07T01:23:01Z</time></trkpt>
<trkpt lat="25.080346" lon="102.930732">
<time>2016-10-07T01:23:02Z</time></trkpt>
<trkpt lat="25.080127" lon="102.929934">
<time>2016-10-07T01:23:03Z</time></trkpt>
<trkpt lat="25.079788" lon="102.929046">
<time>2016-10-07T01:23:04Z</time></trkpt>
<trkpt lat="25.07944" lon="102.928088">
<time>2016-10-07T01:23:05Z</time></trkpt>
<trkpt lat="25.076537" lon="102.92165">
<time>2016-10-07T01:23:06Z</time></trkpt>
<trkpt lat="25.07483" lon="102.918056">
<time>2016-10-07T01:23:07Z</time></trkpt>
<trkpt lat="25.074281" lon="102.916878">
<time>2016-10-07T01:23:08Z</time></trkpt>
<trkpt lat="25.073852" lon="102.915969">
<time>2016-10-07T01:23:09Z</time></trkpt>
<trkpt lat="25.073652" lon="102.91556">
<time>2016-10-07T01:23:10Z</time></trkpt>
<trkpt lat="25.072624" lon="102.913283">
<time>2016-10-07T01:23:11Z</time></trkpt>
<trkpt lat="25.072404" lon="102.912783">
<time>2016-10-07T01:23:12Z</time></trkpt>
<trkpt lat="25.071016" lon="102.909627">
<time>2016-10-07T01:23:13Z</time></trkpt>
<trkpt lat="25.070916" lon="102.909397">
<time>2016-10-07T01:23:14Z</time></trkpt>
<trkpt lat="25.070716" lon="102.908948">
<time>2016-10-07T01:23:15Z</time></trkpt>
<trkpt lat="25.070706" lon="102.908928">
<time>2016-10-07T01:23:16Z</time></trkpt>
<trkpt lat="25.069487" lon="102.906191">
<time>2016-10-07T01:23:17Z</time></trkpt>
<trkpt lat="25.069347" lon="102.905871">
<time>2016-10-07T01:23:18Z</time></trkpt>
<trkpt lat="25.069117" lon="102.905351">
<time>2016-10-07T01:23:19Z</time></trkpt>
<trkpt lat="25.068937" lon="102.904962">
<time>2016-10-07T01:23:20Z</time></trkpt>
<trkpt lat="25.068817" lon="102.904682">
<time>2016-10-07T01:23:21Z</time></trkpt>
<trkpt lat="25.068678" lon="102.904362">
<time>2016-10-07T01:23:22Z</time></trkpt>
<trkpt lat="25.068578" lon="102.904142">
<time>2016-10-07T01:23:23Z</time></trkpt>
<trkpt lat="25.068458" lon="102.903883">
<time>2016-10-07T01:23:24Z</time></trkpt>
<trkpt lat="25.068388" lon="102.903733">
<time>2016-10-07T01:23:25Z</time></trkpt>
<trkpt lat="25.068308" lon="102.903533">
<time>2016-10-07T01:23:26Z</time></trkpt>
<trkpt lat="25.068188" lon="102.903263">
<time>2016-10-07T01:23:27Z</time></trkpt>
<trkpt lat="25.068128" lon="102.903113">
<time>2016-10-07T01:23:28Z</time></trkpt>
<trkpt lat="25.067918" lon="102.902704">
<time>2016-10-07T01:23:29Z</time></trkpt>
<trkpt lat="25.067328" lon="102.902024">
<time>2016-10-07T01:23:30Z</time></trkpt>
<trkpt lat="25.067048" lon="102.901834">
<time>2016-10-07T01:23:31Z</time></trkpt>
<trkpt lat="25.066678" lon="102.901564">
<time>2016-10-07T01:23:32Z</time></trkpt>
<trkpt lat="25.066468" lon="102.901415">
<time>2016-10-07T01:23:33Z</time></trkpt>
<trkpt lat="25.066358" lon="102.901335">
<time>2016-10-07T01:23:34Z</time></trkpt>
<trkpt lat="25.066098" lon="102.901135">
<time>2016-10-07T01:23:35Z</time></trkpt>
<trkpt lat="25.065828" lon="102.900925">
<time>2016-10-07T01:23:36Z</time></trkpt>
<trkpt lat="25.065498" lon="102.900665">
<time>2016-10-07T01:23:37Z</time></trkpt>
<trkpt lat="25.065278" lon="102.900465">
<time>2016-10-07T01:23:38Z</time></trkpt>
<trkpt lat="25.065098" lon="102.900315">
<time>2016-10-07T01:23:39Z</time></trkpt>
<trkpt lat="25.064918" lon="102.900165">
<time>2016-10-07T01:23:40Z</time></trkpt>
<trkpt lat="25.064748" lon="102.900016">
<time>2016-10-07T01:23:41Z</time></trkpt>
<trkpt lat="25.064518" lon="102.899826">
<time>2016-10-07T01:23:42Z</time></trkpt>
<trkpt lat="25.064388" lon="102.899716">
<time>2016-10-07T01:23:43Z</time></trkpt>
<trkpt lat="25.064168" lon="102.899536">
<time>2016-10-07T01:23:44Z</time></trkpt>
<trkpt lat="25.064008" lon="102.899396">
<time>2016-10-07T01:23:45Z</time></trkpt>
<trkpt lat="25.063808" lon="102.899216">
<time>2016-10-07T01:23:46Z</time></trkpt>
<trkpt lat="25.063498" lon="102.898976">
<time>2016-10-07T01:23:47Z</time></trkpt>
<trkpt lat="25.063278" lon="102.898786">
<time>2016-10-07T01:23:48Z</time></trkpt>
<trkpt lat="25.062968" lon="102.898536">
<time>2016-10-07T01:23:49Z</time></trkpt>
<trkpt lat="25.062638" lon="102.898257">
<time>2016-10-07T01:23:50Z</time></trkpt>
<trkpt lat="25.062498" lon="102.898147">
<time>2016-10-07T01:23:51Z</time></trkpt>
<trkpt lat="25.062418" lon="102.898087">
<time>2016-10-07T01:23:52Z</time></trkpt>
<trkpt lat="25.062208" lon="102.897887">
<time>2016-10-07T01:23:53Z</time></trkpt>
<trkpt lat="25.062168" lon="102.897857">
<time>2016-10-07T01:23:54Z</time></trkpt>
<trkpt lat="25.062078" lon="102.897757">
<time>2016-10-07T01:23:55Z</time></trkpt>
<trkpt lat="25.061978" lon="102.897607">
<time>2016-10-07T01:23:56Z</time></trkpt>
<trkpt lat="25.061888" lon="102.897457">
<time>2016-10-07T01:23:57Z</time></trkpt>
<trkpt lat="25.061778" lon="102.897217">
<time>2016-10-07T01:23:58Z</time></trkpt>
<trkpt lat="25.061628" lon="102.896777">
<time>2016-10-07T01:23:59Z</time></trkpt>
<trkpt lat="25.061538" lon="102.896458">
<time>2016-10-07T01:24:00Z</time></trkpt>
<trkpt lat="25.061448" lon="102.896138">
<time>2016-10-07T01:24:01Z</time></trkpt>
<trkpt lat="25.061328" lon="102.895728">
<time>2016-10-07T01:24:02Z</time></trkpt>
<trkpt lat="25.061248" lon="102.895388">
<time>2016-10-07T01:24:03Z</time></trkpt>
<trkpt lat="25.061168" lon="102.895088">
<time>2016-10-07T01:24:04Z</time></trkpt>
<trkpt lat="25.060908" lon="102.894358">
<time>2016-10-07T01:24:05Z</time></trkpt>
<trkpt lat="25.060648" lon="102.893639">
<time>2016-10-07T01:24:06Z</time></trkpt>
<trkpt lat="25.060528" lon="102.893349">
<time>2016-10-07T01:24:07Z</time></trkpt>
<trkpt lat="25.060378" lon="102.892949">
<time>2016-10-07T01:24:08Z</time></trkpt>
<trkpt lat="25.059967" lon="102.891919">
<time>2016-10-07T01:24:09Z</time></trkpt>
<trkpt lat="25.059657" lon="102.891069">
<time>2016-10-07T01:24:10Z</time></trkpt>
<trkpt lat="25.059407" lon="102.890379">
<time>2016-10-07T01:24:11Z</time></trkpt>
<trkpt lat="25.059186" lon="102.88976">
<time>2016-10-07T01:24:12Z</time></trkpt>
<trkpt lat="25.059096" lon="102.88952">
<time>2016-10-07T01:24:13Z</time></trkpt>
<trkpt lat="25.058936" lon="102.8891">
<time>2016-10-07T01:24:14Z</time></trkpt>
<trkpt lat="25.058736" lon="102.88866">
<time>2016-10-07T01:24:15Z</time></trkpt>
<trkpt lat="25.058696" lon="102.88857">
<time>2016-10-07T01:24:16Z</time></trkpt>
<trkpt lat="25.058636" lon="102.88846">
<time>2016-10-07T01:24:17Z</time></trkpt>
<trkpt lat="25.058576" lon="102.88836">
<time>2016-10-07T01:24:18Z</time></trkpt>
<trkpt lat="25.058486" lon="102.8882">
<time>2016-10-07T01:24:19Z</time></trkpt>
<trkpt lat="25.058366" lon="102.88804">
<time>2016-10-07T01:24:20Z</time></trkpt>
<trkpt lat="25.058186" lon="102.88781">
<time>2016-10-07T01:24:21Z</time></trkpt>
<trkpt lat="25.057925" lon="102.88754">
<time>2016-10-07T01:24:22Z</time></trkpt>
<trkpt lat="25.057695" lon="102.8873">
<time>2016-10-07T01:24:23Z</time></trkpt>
<trkpt lat="25.057505" lon="102.88709">
<time>2016-10-07T01:24:24Z</time></trkpt>
<trkpt lat="25.057415" lon="102.88699">
<time>2016-10-07T01:24:25Z</time></trkpt>
<trkpt lat="25.057245" lon="102.88681">
<time>2016-10-07T01:24:26Z</time></trkpt>
<trkpt lat="25.057135" lon="102.88674">
<time>2016-10-07T01:24:27Z</time></trkpt>
<trkpt lat="25.057105" lon="102.88672">
<time>2016-10-07T01:24:28Z</time></trkpt>
<trkpt lat="25.057075" lon="102.8867">
<time>2016-10-07T01:24:29Z</time></trkpt>
<trkpt lat="25.057005" lon="102.88668">
<time>2016-10-07T01:24:30Z</time></trkpt>
<trkpt lat="25.056955" lon="102.88666">
<time>2016-10-07T01:24:31Z</time></trkpt>
<trkpt lat="25.056925" lon="102.88665">
<time>2016-10-07T01:24:32Z</time></trkpt>
<trkpt lat="25.056865" lon="102.88664">
<time>2016-10-07T01:24:33Z</time></trkpt>
<trkpt lat="25.056805" lon="102.88662">
<time>2016-10-07T01:24:34Z</time></trkpt>
<trkpt lat="25.056495" lon="102.88657">
<time>2016-10-07T01:24:35Z</time></trkpt>
<trkpt lat="25.056125" lon="102.88647">
<time>2016-10-07T01:24:36Z</time></trkpt>
<trkpt lat="25.055885" lon="102.8864">
<time>2016-10-07T01:24:37Z</time></trkpt>
<trkpt lat="25.055525" lon="102.88629">
<time>2016-10-07T01:24:38Z</time></trkpt>
<trkpt lat="25.055285" lon="102.88619">
<time>2016-10-07T01:24:39Z</time></trkpt>
<trkpt lat="25.054975" lon="102.88606">
<time>2016-10-07T01:24:40Z</time></trkpt>
<trkpt lat="25.054935" lon="102.88605">
<time>2016-10-07T01:24:41Z</time></trkpt>
<trkpt lat="25.054375" lon="102.88585">
<time>2016-10-07T01:24:42Z</time></trkpt>
<trkpt lat="25.054075" lon="102.88574">
<time>2016-10-07T01:24:43Z</time></trkpt>
<trkpt lat="25.053975" lon="102.88571">
<time>2016-10-07T01:24:44Z</time></trkpt>
<trkpt lat="25.053705" lon="102.8856">
<time>2016-10-07T01:24:45Z</time></trkpt>
<trkpt lat="25.053605" lon="102.88556">
<time>2016-10-07T01:24:46Z</time></trkpt>
<trkpt lat="25.053505" lon="102.88552">
<time>2016-10-07T01:24:47Z</time></trkpt>
<trkpt lat="25.053315" lon="102.88546">
<time>2016-10-07T01:24:48Z</time></trkpt>
<trkpt lat="25.053035" lon="102.88535">
<time>2016-10-07T01:24:49Z</time></trkpt>
<trkpt lat="25.052935" lon="102.88531">
<time>2016-10-07T01:24:50Z</time></trkpt>
<trkpt lat="25.052735" lon="102.88525">
<time>2016-10-07T01:24:51Z</time></trkpt>
<trkpt lat="25.052455" lon="102.88514">
<time>2016-10-07T01:24:52Z</time></trkpt>
<trkpt lat="25.052355" lon="102.88511">
<time>2016-10-07T01:24:53Z</time></trkpt>
<trkpt lat="25.052305" lon="102.8851">
<time>2016-10-07T01:24:54Z</time></trkpt>
<trkpt lat="25.051985" lon="102.88496">
<time>2016-10-07T01:24:55Z</time></trkpt>
<trkpt lat="25.051564" lon="102.88474">
<time>2016-10-07T01:24:56Z</time></trkpt>
<trkpt lat="25.051314" lon="102.8846">
<time>2016-10-07T01:24:57Z</time></trkpt>
<trkpt lat="25.051154" lon="102.88449">
<time>2016-10-07T01:24:58Z</time></trkpt>
<trkpt lat="25.051134" lon="102.88448">
<time>2016-10-07T01:24:59Z</time></trkpt>
<trkpt lat="25.050894" lon="102.88428">
<time>2016-10-07T01:25:00Z</time></trkpt>
<trkpt lat="25.050514" lon="102.88388">
<time>2016-10-07T01:25:01Z</time></trkpt>
<trkpt lat="25.050294" lon="102.88355">
<time>2016-10-07T01:25:02Z</time></trkpt>
<trkpt lat="25.050054" lon="102.88319">
<time>2016-10-07T01:25:03Z</time></trkpt>
<trkpt lat="25.049853" lon="102.8828">
<time>2016-10-07T01:25:04Z</time></trkpt>
<trkpt lat="25.049743" lon="102.88244">
<time>2016-10-07T01:25:05Z</time></trkpt>
<trkpt lat="25.049653" lon="102.88215">
<time>2016-10-07T01:25:06Z</time></trkpt>
<trkpt lat="25.049533" lon="102.881749">
<time>2016-10-07T01:25:07Z</time></trkpt>
<trkpt lat="25.049372" lon="102.881099">
<time>2016-10-07T01:25:08Z</time></trkpt>
<trkpt lat="25.049252" lon="102.880659">
<time>2016-10-07T01:25:09Z</time></trkpt>
<trkpt lat="25.049141" lon="102.880269">
<time>2016-10-07T01:25:10Z</time></trkpt>
<trkpt lat="25.049081" lon="102.880039">
<time>2016-10-07T01:25:11Z</time></trkpt>
<trkpt lat="25.048941" lon="102.879569">
<time>2016-10-07T01:25:12Z</time></trkpt>
<trkpt lat="25.04871" lon="102.878679">
<time>2016-10-07T01:25:13Z</time></trkpt>
<trkpt lat="25.04869" lon="102.878619">
<time>2016-10-07T01:25:14Z</time></trkpt>
<trkpt lat="25.04865" lon="102.878459">
<time>2016-10-07T01:25:15Z</time></trkpt>
<trkpt lat="25.04863" lon="102.878419">
<time>2016-10-07T01:25:16Z</time></trkpt>
<trkpt lat="25.0486" lon="102.878298">
<time>2016-10-07T01:25:17Z</time></trkpt>
<trkpt lat="25.04856" lon="102.878138">
<time>2016-10-07T01:25:18Z</time></trkpt>
<trkpt lat="25.048469" lon="102.877828">
<time>2016-10-07T01:25:19Z</time></trkpt>
<trkpt lat="25.048399" lon="102.877518">
<time>2016-10-07T01:25:20Z</time></trkpt>
<trkpt lat="25.048349" lon="102.877338">
<time>2016-10-07T01:25:21Z</time></trkpt>
<trkpt lat="25.048299" lon="102.877148">
<time>2016-10-07T01:25:22Z</time></trkpt>
<trkpt lat="25.048259" lon="102.877018">
<time>2016-10-07T01:25:23Z</time></trkpt>
<trkpt lat="25.048218" lon="102.876838">
<time>2016-10-07T01:25:24Z</time></trkpt>
<trkpt lat="25.048188" lon="102.876758">
<time>2016-10-07T01:25:25Z</time></trkpt>
<trkpt lat="25.048168" lon="102.876688">
<time>2016-10-07T01:25:26Z</time></trkpt>
<trkpt lat="25.048138" lon="102.876578">
<time>2016-10-07T01:25:27Z</time></trkpt>
<trkpt lat="25.048118" lon="102.876498">
<time>2016-10-07T01:25:28Z</time></trkpt>
<trkpt lat="25.048058" lon="102.876358">
<time>2016-10-07T01:25:29Z</time></trkpt>
<trkpt lat="25.047998" lon="102.876118">
<time>2016-10-07T01:25:30Z</time></trkpt>
<trkpt lat="25.047867" lon="102.875637">
<time>2016-10-07T01:25:31Z</time></trkpt>
<trkpt lat="25.047707" lon="102.875017">
<time>2016-10-07T01:25:32Z</time></trkpt>
<trkpt lat="25.047506" lon="102.874087">
<time>2016-10-07T01:25:33Z</time></trkpt>
<trkpt lat="25.047395" lon="102.873606">
<time>2016-10-07T01:25:34Z</time></trkpt>
<trkpt lat="25.047204" lon="102.872786">
<time>2016-10-07T01:25:35Z</time></trkpt>
<trkpt lat="25.047004" lon="102.871975">
<time>2016-10-07T01:25:36Z</time></trkpt>
<trkpt lat="25.046963" lon="102.871845">
<time>2016-10-07T01:25:37Z</time></trkpt>
<trkpt lat="25.046713" lon="102.871145">
<time>2016-10-07T01:25:38Z</time></trkpt>
<trkpt lat="25.046602" lon="102.870905">
<time>2016-10-07T01:25:39Z</time></trkpt>
<trkpt lat="25.046452" lon="102.870575">
<time>2016-10-07T01:25:40Z</time></trkpt>
<trkpt lat="25.046452" lon="102.870565">
<time>2016-10-07T01:25:41Z</time></trkpt>
<trkpt lat="25.046111" lon="102.869954">
<time>2016-10-07T01:25:42Z</time></trkpt>
<trkpt lat="25.04546" lon="102.868914">
<time>2016-10-07T01:25:43Z</time></trkpt>
<trkpt lat="25.044158" lon="102.866822">
<time>2016-10-07T01:25:44Z</time></trkpt>
<trkpt lat="25.043877" lon="102.866382">
<time>2016-10-07T01:25:45Z</time></trkpt>
<trkpt lat="25.042084" lon="102.863509">
<time>2016-10-07T01:25:46Z</time></trkpt>
<trkpt lat="25.041623" lon="102.862769">
<time>2016-10-07T01:25:47Z</time></trkpt>
<trkpt lat="25.041593" lon="102.862719">
<time>2016-10-07T01:25:48Z</time></trkpt>
<trkpt lat="25.041282" lon="102.862228">
<time>2016-10-07T01:25:49Z</time></trkpt>
<trkpt lat="25.041041" lon="102.861838">
<time>2016-10-07T01:25:50Z</time></trkpt>
<trkpt lat="25.038847" lon="102.858344">
<time>2016-10-07T01:25:51Z</time></trkpt>
<trkpt lat="25.038847" lon="102.858344">
<time>2016-10-07T01:25:52Z</time></trkpt>
<trkpt lat="25.039675" lon="102.857654">
<time>2016-10-07T01:25:53Z</time></trkpt>
<trkpt lat="25.039635" lon="102.857524">
<time>2016-10-07T01:25:54Z</time></trkpt>
<trkpt lat="25.039595" lon="102.857443">
<time>2016-10-07T01:25:55Z</time></trkpt>
<trkpt lat="25.039575" lon="102.857413">
<time>2016-10-07T01:25:56Z</time></trkpt>
<trkpt lat="25.039555" lon="102.857393">
<time>2016-10-07T01:25:57Z</time></trkpt>
<trkpt lat="25.039535" lon="102.857383">
<time>2016-10-07T01:25:58Z</time></trkpt>
<trkpt lat="25.039505" lon="102.857363">
<time>2016-10-07T01:25:59Z</time></trkpt>
<trkpt lat="25.039375" lon="102.857293">
<time>2016-10-07T01:26:00Z</time></trkpt>
<trkpt lat="25.039285" lon="102.857213">
<time>2016-10-07T01:26:01Z</time></trkpt>
<trkpt lat="25.039265" lon="102.857183">
<time>2016-10-07T01:26:02Z</time></trkpt>
<trkpt lat="25.038993" lon="102.856142">
<time>2016-10-07T01:26:03Z</time></trkpt>
<trkpt lat="25.039043" lon="102.855922">
<time>2016-10-07T01:26:04Z</time></trkpt>
<trkpt lat="25.039203" lon="102.855772">
<time>2016-10-07T01:26:05Z</time></trkpt>
<trkpt lat="25.039212" lon="102.855581">
<time>2016-10-07T01:26:06Z</time></trkpt>
<trkpt lat="25.038851" lon="102.854891">
<time>2016-10-07T01:26:07Z</time></trkpt>
<trkpt lat="25.038771" lon="102.85461">
<time>2016-10-07T01:26:08Z</time></trkpt>
<trkpt lat="25.03868" lon="102.85409">
<time>2016-10-07T01:26:09Z</time></trkpt>
<trkpt lat="25.0386" lon="102.853839">
<time>2016-10-07T01:26:10Z</time></trkpt>
<trkpt lat="25.0386" lon="102.853839">
<time>2016-10-07T01:26:11Z</time></trkpt>
<trkpt lat="25.038709" lon="102.853759">
<time>2016-10-07T01:26:12Z</time></trkpt>
<trkpt lat="25.038839" lon="102.853649">
<time>2016-10-07T01:26:13Z</time></trkpt>
<trkpt lat="25.039049" lon="102.853469">
<time>2016-10-07T01:26:14Z</time></trkpt>
<trkpt lat="25.039418" lon="102.853129">
<time>2016-10-07T01:26:15Z</time></trkpt>
<trkpt lat="25.039608" lon="102.852948">
<time>2016-10-07T01:26:16Z</time></trkpt>
<trkpt lat="25.039788" lon="102.852768">
<time>2016-10-07T01:26:17Z</time></trkpt>
<trkpt lat="25.039728" lon="102.852678">
<time>2016-10-07T01:26:18Z</time></trkpt>
<trkpt lat="25.039677" lon="102.852608">
<time>2016-10-07T01:26:19Z</time></trkpt>
<trkpt lat="25.039577" lon="102.852458">
<time>2016-10-07T01:26:20Z</time></trkpt>
<trkpt lat="25.039507" lon="102.852368">
<time>2016-10-07T01:26:21Z</time></trkpt>
<trkpt lat="25.039457" lon="102.852308">
<time>2016-10-07T01:26:22Z</time></trkpt>
<trkpt lat="25.039166" lon="102.851917">
<time>2016-10-07T01:26:23Z</time></trkpt>
<trkpt lat="25.039086" lon="102.851787">
<time>2016-10-07T01:26:24Z</time></trkpt>
<trkpt lat="25.038846" lon="102.851497">
<time>2016-10-07T01:26:25Z</time></trkpt>
<trkpt lat="25.038685" lon="102.851226">
<time>2016-10-07T01:26:26Z</time></trkpt>
<trkpt lat="25.038605" lon="102.851096">
<time>2016-10-07T01:26:27Z</time></trkpt>
<trkpt lat="25.038535" lon="102.850956">
<time>2016-10-07T01:26:28Z</time></trkpt>
<trkpt lat="25.038475" lon="102.850826">
<time>2016-10-07T01:26:29Z</time></trkpt>
<trkpt lat="25.038424" lon="102.850626">
<time>2016-10-07T01:26:30Z</time></trkpt>
<trkpt lat="25.038384" lon="102.850325">
<time>2016-10-07T01:26:31Z</time></trkpt>
<trkpt lat="25.038384" lon="102.850325">
<time>2016-10-07T01:26:32Z</time></trkpt>
<trkpt lat="25.038294" lon="102.850175">
<time>2016-10-07T01:26:33Z</time></trkpt>
<trkpt lat="25.038233" lon="102.850035">
<time>2016-10-07T01:26:34Z</time></trkpt>
<trkpt lat="25.038173" lon="102.849865">
<time>2016-10-07T01:26:35Z</time></trkpt>
<trkpt lat="25.038053" lon="102.849564">
<time>2016-10-07T01:26:36Z</time></trkpt>
<trkpt lat="25.038012" lon="102.849404">
<time>2016-10-07T01:26:37Z</time></trkpt>
<trkpt lat="25.037922" lon="102.849264">
<time>2016-10-07T01:26:38Z</time></trkpt>
<trkpt lat="25.037871" lon="102.848883">
<time>2016-10-07T01:26:39Z</time></trkpt>
<trkpt lat="25.037811" lon="102.848563">
<time>2016-10-07T01:26:40Z</time></trkpt>
<trkpt lat="25.03776" lon="102.848032">
<time>2016-10-07T01:26:41Z</time></trkpt>
<trkpt lat="25.03777" lon="102.847972">
<time>2016-10-07T01:26:42Z</time></trkpt>
<trkpt lat="25.037719" lon="102.847662">
<time>2016-10-07T01:26:43Z</time></trkpt>
<trkpt lat="25.037729" lon="102.847462">
<time>2016-10-07T01:26:44Z</time></trkpt>
<trkpt lat="25.037668" lon="102.846991">
<time>2016-10-07T01:26:45Z</time></trkpt>
<trkpt lat="25.037638" lon="102.846601">
<time>2016-10-07T01:26:46Z</time></trkpt>
<trkpt lat="25.037627" lon="102.84651">
<time>2016-10-07T01:26:47Z</time></trkpt>
<trkpt lat="25.037607" lon="102.84627">
<time>2016-10-07T01:26:48Z</time></trkpt>
<trkpt lat="25.037536" lon="102.8458">
<time>2016-10-07T01:26:49Z</time></trkpt>
<trkpt lat="25.037506" lon="102.845559">
<time>2016-10-07T01:26:50Z</time></trkpt>
<trkpt lat="25.037455" lon="102.845079">
<time>2016-10-07T01:26:51Z</time></trkpt>
<trkpt lat="25.037464" lon="102.844798">
<time>2016-10-07T01:26:52Z</time></trkpt>
<trkpt lat="25.037464" lon="102.844578">
<time>2016-10-07T01:26:53Z</time></trkpt>
<trkpt lat="25.037474" lon="102.844338">
<time>2016-10-07T01:26:54Z</time></trkpt>
<trkpt lat="25.037473" lon="102.844288">
<time>2016-10-07T01:26:55Z</time></trkpt>
<trkpt lat="25.037503" lon="102.843847">
<time>2016-10-07T01:26:56Z</time></trkpt>
<trkpt lat="25.037502" lon="102.843687">
<time>2016-10-07T01:26:57Z</time></trkpt>
<trkpt lat="25.037512" lon="102.843356">
<time>2016-10-07T01:26:58Z</time></trkpt>
<trkpt lat="25.037481" lon="102.842896">
<time>2016-10-07T01:26:59Z</time></trkpt>
<trkpt lat="25.03745" lon="102.842475">
<time>2016-10-07T01:27:00Z</time></trkpt>
<trkpt lat="25.03745" lon="102.842455">
<time>2016-10-07T01:27:01Z</time></trkpt>
<trkpt lat="25.03743" lon="102.842065">
<time>2016-10-07T01:27:02Z</time></trkpt>
<trkpt lat="25.037429" lon="102.841834">
<time>2016-10-07T01:27:03Z</time></trkpt>
<trkpt lat="25.037399" lon="102.841674">
<time>2016-10-07T01:27:04Z</time></trkpt>
<trkpt lat="25.037338" lon="102.841474">
<time>2016-10-07T01:27:05Z</time></trkpt>
<trkpt lat="25.037268" lon="102.841023">
<time>2016-10-07T01:27:06Z</time></trkpt>
<trkpt lat="25.037217" lon="102.840803">
<time>2016-10-07T01:27:07Z</time></trkpt>
<trkpt lat="25.037127" lon="102.840592">
<time>2016-10-07T01:27:08Z</time></trkpt>
<trkpt lat="25.036977" lon="102.840442">
<time>2016-10-07T01:27:09Z</time></trkpt>
<trkpt lat="25.036666" lon="102.840232">
<time>2016-10-07T01:27:10Z</time></trkpt>
<trkpt lat="25.036646" lon="102.840222">
<time>2016-10-07T01:27:11Z</time></trkpt>
<trkpt lat="25.035916" lon="102.839761">
<time>2016-10-07T01:27:12Z</time></trkpt>
<trkpt lat="25.035565" lon="102.839521">
<time>2016-10-07T01:27:13Z</time></trkpt>
<trkpt lat="25.035385" lon="102.839351">
<time>2016-10-07T01:27:14Z</time></trkpt>
<trkpt lat="25.035004" lon="102.83898">
<time>2016-10-07T01:27:15Z</time></trkpt>
<trkpt lat="25.034784" lon="102.83877">
<time>2016-10-07T01:27:16Z</time></trkpt>
<trkpt lat="25.034664" lon="102.83867">
<time>2016-10-07T01:27:17Z</time></trkpt>
<trkpt lat="25.034634" lon="102.83866">
<time>2016-10-07T01:27:18Z</time></trkpt>
<trkpt lat="25.034524" lon="102.83862">
<time>2016-10-07T01:27:19Z</time></trkpt>
<trkpt lat="25.033894" lon="102.83854">
<time>2016-10-07T01:27:20Z</time></trkpt>
<trkpt lat="25.033323" lon="102.83845">
<time>2016-10-07T01:27:21Z</time></trkpt>
<trkpt lat="25.032753" lon="102.838379">
<time>2016-10-07T01:27:22Z</time></trkpt>
<trkpt lat="25.032563" lon="102.838349">
<time>2016-10-07T01:27:23Z</time></trkpt>
<trkpt lat="25.032393" lon="102.838299">
<time>2016-10-07T01:27:24Z</time></trkpt>
<trkpt lat="25.032373" lon="102.838289">
<time>2016-10-07T01:27:25Z</time></trkpt>
<trkpt lat="25.031933" lon="102.838069">
<time>2016-10-07T01:27:26Z</time></trkpt>
<trkpt lat="25.031613" lon="102.837889">
<time>2016-10-07T01:27:27Z</time></trkpt>
<trkpt lat="25.031493" lon="102.837829">
<time>2016-10-07T01:27:28Z</time></trkpt>
<trkpt lat="25.031492" lon="102.837819">
<time>2016-10-07T01:27:29Z</time></trkpt>
<trkpt lat="25.031473" lon="102.837819">
<time>2016-10-07T01:27:30Z</time></trkpt>
<trkpt lat="25.031473" lon="102.837819">
<time>2016-10-07T01:27:31Z</time></trkpt>
<trkpt lat="25.031522" lon="102.837699">
<time>2016-10-07T01:27:32Z</time></trkpt>
<trkpt lat="25.031562" lon="102.837648">
<time>2016-10-07T01:27:33Z</time></trkpt>
<trkpt lat="25.031612" lon="102.837608">
<time>2016-10-07T01:27:34Z</time></trkpt>
<trkpt lat="25.031952" lon="102.837398">
<time>2016-10-07T01:27:35Z</time></trkpt>
<trkpt lat="25.032131" lon="102.837238">
<time>2016-10-07T01:27:36Z</time></trkpt>
<trkpt lat="25.032271" lon="102.837038">
<time>2016-10-07T01:27:37Z</time></trkpt>
<trkpt lat="25.032371" lon="102.836827">
<time>2016-10-07T01:27:38Z</time></trkpt>
<trkpt lat="25.03243" lon="102.836597">
<time>2016-10-07T01:27:39Z</time></trkpt>
<trkpt lat="25.03254" lon="102.836437">
<time>2016-10-07T01:27:40Z</time></trkpt>
<trkpt lat="25.032729" lon="102.836226">
<time>2016-10-07T01:27:41Z</time></trkpt>
<trkpt lat="25.033019" lon="102.836066">
<time>2016-10-07T01:27:42Z</time></trkpt>
<trkpt lat="25.033329" lon="102.835996">
<time>2016-10-07T01:27:43Z</time></trkpt>
<trkpt lat="25.033769" lon="102.835946">
<time>2016-10-07T01:27:44Z</time></trkpt>
<trkpt lat="25.033859" lon="102.835916">
<time>2016-10-07T01:27:45Z</time></trkpt>
<trkpt lat="25.033889" lon="102.835906">
<time>2016-10-07T01:27:46Z</time></trkpt>
<trkpt lat="25.034019" lon="102.835856">
<time>2016-10-07T01:27:47Z</time></trkpt>
<trkpt lat="25.034068" lon="102.835816">
<time>2016-10-07T01:27:48Z</time></trkpt>
<trkpt lat="25.034078" lon="102.835806">
<time>2016-10-07T01:27:49Z</time></trkpt>
<trkpt lat="25.034098" lon="102.835746">
<time>2016-10-07T01:27:50Z</time></trkpt>
<trkpt lat="25.034118" lon="102.835646">
<time>2016-10-07T01:27:51Z</time></trkpt>
<trkpt lat="25.034088" lon="102.835545">
<time>2016-10-07T01:27:52Z</time></trkpt>
<trkpt lat="25.034078" lon="102.835455">
<time>2016-10-07T01:27:53Z</time></trkpt>
<trkpt lat="25.034078" lon="102.835325">
<time>2016-10-07T01:27:54Z</time></trkpt>
<trkpt lat="25.034147" lon="102.835165">
<time>2016-10-07T01:27:55Z</time></trkpt>
<trkpt lat="25.034207" lon="102.834924">
<time>2016-10-07T01:27:56Z</time></trkpt>
<trkpt lat="25.034256" lon="102.834734">
<time>2016-10-07T01:27:57Z</time></trkpt>
<trkpt lat="25.034356" lon="102.834504">
<time>2016-10-07T01:27:58Z</time></trkpt>
<trkpt lat="25.034475" lon="102.834233">
<time>2016-10-07T01:27:59Z</time></trkpt>
<trkpt lat="25.034515" lon="102.834053">
<time>2016-10-07T01:28:00Z</time></trkpt>
<trkpt lat="25.034595" lon="102.833793">
<time>2016-10-07T01:28:01Z</time></trkpt>
<trkpt lat="25.034614" lon="102.833492">
<time>2016-10-07T01:28:02Z</time></trkpt>
<trkpt lat="25.034584" lon="102.833252">
<time>2016-10-07T01:28:03Z</time></trkpt>
<trkpt lat="25.034392" lon="102.832331">
<time>2016-10-07T01:28:04Z</time></trkpt>
<trkpt lat="25.034281" lon="102.83176">
<time>2016-10-07T01:28:05Z</time></trkpt>
<trkpt lat="25.03423" lon="102.831519">
<time>2016-10-07T01:28:06Z</time></trkpt>
<trkpt lat="25.03419" lon="102.831409">
<time>2016-10-07T01:28:07Z</time></trkpt>
<trkpt lat="25.03415" lon="102.831319">
<time>2016-10-07T01:28:08Z</time></trkpt>
<trkpt lat="25.03404" lon="102.831269">
<time>2016-10-07T01:28:09Z</time></trkpt>
<trkpt lat="25.03374" lon="102.831189">
<time>2016-10-07T01:28:10Z</time></trkpt>
<trkpt lat="25.03372" lon="102.831179">
<time>2016-10-07T01:28:11Z</time></trkpt>
<trkpt lat="25.03351" lon="102.831129">
<time>2016-10-07T01:28:12Z</time></trkpt>
<trkpt lat="25.03348" lon="102.831119">
<time>2016-10-07T01:28:13Z</time></trkpt>
<trkpt lat="25.03341" lon="102.831099">
<time>2016-10-07T01:28:14Z</time></trkpt>
<trkpt lat="25.03323" lon="102.831049">
<time>2016-10-07T01:28:15Z</time></trkpt>
<trkpt lat="25.03319" lon="102.831029">
<time>2016-10-07T01:28:16Z</time></trkpt>
<trkpt lat="25.03315" lon="102.830979">
<time>2016-10-07T01:28:17Z</time></trkpt>
<trkpt lat="25.033129" lon="102.830788">
<time>2016-10-07T01:28:18Z</time></trkpt>
<trkpt lat="25.033118" lon="102.830408">
<time>2016-10-07T01:28:19Z</time></trkpt>
<trkpt lat="25.033128" lon="102.829977">
<time>2016-10-07T01:28:20Z</time></trkpt>
<trkpt lat="25.033146" lon="102.829306">
<time>2016-10-07T01:28:21Z</time></trkpt>
<trkpt lat="25.033125" lon="102.828765">
<time>2016-10-07T01:28:22Z</time></trkpt>
<trkpt lat="25.033144" lon="102.827964">
<time>2016-10-07T01:28:23Z</time></trkpt>
<trkpt lat="25.033183" lon="102.827634">
<time>2016-10-07T01:28:24Z</time></trkpt>
<trkpt lat="25.033213" lon="102.827353">
<time>2016-10-07T01:28:25Z</time></trkpt>
<trkpt lat="25.033351" lon="102.826722">
<time>2016-10-07T01:28:26Z</time></trkpt>
<trkpt lat="25.033639" lon="102.825641">
<time>2016-10-07T01:28:27Z</time></trkpt>
<trkpt lat="25.033937" lon="102.824339">
<time>2016-10-07T01:28:28Z</time></trkpt>
<trkpt lat="25.034016" lon="102.823688">
<time>2016-10-07T01:28:29Z</time></trkpt>
<trkpt lat="25.033975" lon="102.823457">
<time>2016-10-07T01:28:30Z</time></trkpt>
<trkpt lat="25.033553" lon="102.822456">
<time>2016-10-07T01:28:31Z</time></trkpt>
<trkpt lat="25.033553" lon="102.822456">
<time>2016-10-07T01:28:32Z</time></trkpt>
<trkpt lat="25.034123" lon="102.822346">
<time>2016-10-07T01:28:33Z</time></trkpt>
<trkpt lat="25.034153" lon="102.822336">
<time>2016-10-07T01:28:34Z</time></trkpt>
<trkpt lat="25.034353" lon="102.822306">
<time>2016-10-07T01:28:35Z</time></trkpt>
<trkpt lat="25.034383" lon="102.822296">
<time>2016-10-07T01:28:36Z</time></trkpt>
<trkpt lat="25.034513" lon="102.822276">
<time>2016-10-07T01:28:37Z</time></trkpt>
<trkpt lat="25.034723" lon="102.822176">
<time>2016-10-07T01:28:38Z</time></trkpt>
<trkpt lat="25.034942" lon="102.821895">
<time>2016-10-07T01:28:39Z</time></trkpt>
<trkpt lat="25.035909" lon="102.820433">
<time>2016-10-07T01:28:40Z</time></trkpt>
<trkpt lat="25.036188" lon="102.819972">
<time>2016-10-07T01:28:41Z</time></trkpt>
<trkpt lat="25.036208" lon="102.819952">
<time>2016-10-07T01:28:42Z</time></trkpt>
<trkpt lat="25.036698" lon="102.819602">
<time>2016-10-07T01:28:43Z</time></trkpt>
<trkpt lat="25.036957" lon="102.819261">
<time>2016-10-07T01:28:44Z</time></trkpt>
<trkpt lat="25.037246" lon="102.8187">
<time>2016-10-07T01:28:45Z</time></trkpt>
<trkpt lat="25.037306" lon="102.81856">
<time>2016-10-07T01:28:46Z</time></trkpt>
<trkpt lat="25.037384" lon="102.817919">
<time>2016-10-07T01:28:47Z</time></trkpt>
<trkpt lat="25.037404" lon="102.817729">
<time>2016-10-07T01:28:48Z</time></trkpt>
<trkpt lat="25.037424" lon="102.817428">
<time>2016-10-07T01:28:49Z</time></trkpt>
<trkpt lat="25.037452" lon="102.816828">
<time>2016-10-07T01:28:50Z</time></trkpt>
<trkpt lat="25.037472" lon="102.816547">
<time>2016-10-07T01:28:51Z</time></trkpt>
<trkpt lat="25.037501" lon="102.816197">
<time>2016-10-07T01:28:52Z</time></trkpt>
<trkpt lat="25.037511" lon="102.816157">
<time>2016-10-07T01:28:53Z</time></trkpt>
<trkpt lat="25.037511" lon="102.816097">
<time>2016-10-07T01:28:54Z</time></trkpt>
<trkpt lat="25.037501" lon="102.816026">
<time>2016-10-07T01:28:55Z</time></trkpt>
<trkpt lat="25.037461" lon="102.815906">
<time>2016-10-07T01:28:56Z</time></trkpt>
<trkpt lat="25.037421" lon="102.815826">
<time>2016-10-07T01:28:57Z</time></trkpt>
<trkpt lat="25.0374" lon="102.815776">
<time>2016-10-07T01:28:58Z</time></trkpt>
<trkpt lat="25.03738" lon="102.815636">
<time>2016-10-07T01:28:59Z</time></trkpt>
<trkpt lat="25.03738" lon="102.815365">
<time>2016-10-07T01:29:00Z</time></trkpt>
<trkpt lat="25.037389" lon="102.815045">
<time>2016-10-07T01:29:01Z</time></trkpt>
<trkpt lat="25.037379" lon="102.814845">
<time>2016-10-07T01:29:02Z</time></trkpt>
<trkpt lat="25.037298" lon="102.814494">
<time>2016-10-07T01:29:03Z</time></trkpt>
<trkpt lat="25.037238" lon="102.814144">
<time>2016-10-07T01:29:04Z</time></trkpt>
<trkpt lat="25.037187" lon="102.813983">
<time>2016-10-07T01:29:05Z</time></trkpt>
<trkpt lat="25.037057" lon="102.813743">
<time>2016-10-07T01:29:06Z</time></trkpt>
<trkpt lat="25.036957" lon="102.813573">
<time>2016-10-07T01:29:07Z</time></trkpt>
<trkpt lat="25.036896" lon="102.813413">
<time>2016-10-07T01:29:08Z</time></trkpt>
<trkpt lat="25.036856" lon="102.813282">
<time>2016-10-07T01:29:09Z</time></trkpt>
<trkpt lat="25.036796" lon="102.813072">
<time>2016-10-07T01:29:10Z</time></trkpt>
<trkpt lat="25.036664" lon="102.812251">
<time>2016-10-07T01:29:11Z</time></trkpt>
<trkpt lat="25.036614" lon="102.812171">
<time>2016-10-07T01:29:12Z</time></trkpt>
<trkpt lat="25.036624" lon="102.812121">
<time>2016-10-07T01:29:13Z</time></trkpt>
<trkpt lat="25.036663" lon="102.81183">
<time>2016-10-07T01:29:14Z</time></trkpt>
<trkpt lat="25.036663" lon="102.81183">
<time>2016-10-07T01:29:15Z</time></trkpt>
<trkpt lat="25.036713" lon="102.81171">
<time>2016-10-07T01:29:16Z</time></trkpt>
<trkpt lat="25.036763" lon="102.81159">
<time>2016-10-07T01:29:17Z</time></trkpt>
<trkpt lat="25.036793" lon="102.81153">
<time>2016-10-07T01:29:18Z</time></trkpt>
<trkpt lat="25.036862" lon="102.8113">
<time>2016-10-07T01:29:19Z</time></trkpt>
<trkpt lat="25.036942" lon="102.811069">
<time>2016-10-07T01:29:20Z</time></trkpt>
<trkpt lat="25.037072" lon="102.810839">
<time>2016-10-07T01:29:21Z</time></trkpt>
<trkpt lat="25.037231" lon="102.810599">
<time>2016-10-07T01:29:22Z</time></trkpt>
<trkpt lat="25.037421" lon="102.810378">
<time>2016-10-07T01:29:23Z</time></trkpt>
<trkpt lat="25.03768" lon="102.810128">
<time>2016-10-07T01:29:24Z</time></trkpt>
<trkpt lat="25.03798" lon="102.809868">
<time>2016-10-07T01:29:25Z</time></trkpt>
<trkpt lat="25.038149" lon="102.809657">
<time>2016-10-07T01:29:26Z</time></trkpt>
<trkpt lat="25.038289" lon="102.809427">
<time>2016-10-07T01:29:27Z</time></trkpt>
<trkpt lat="25.038458" lon="102.809097">
<time>2016-10-07T01:29:28Z</time></trkpt>
<trkpt lat="25.038468" lon="102.809077">
<time>2016-10-07T01:29:29Z</time></trkpt>
<trkpt lat="25.038677" lon="102.808586">
<time>2016-10-07T01:29:30Z</time></trkpt>
<trkpt lat="25.038767" lon="102.808325">
<time>2016-10-07T01:29:31Z</time></trkpt>
<trkpt lat="25.038826" lon="102.808085">
<time>2016-10-07T01:29:32Z</time></trkpt>
<trkpt lat="25.038866" lon="102.807785">
<time>2016-10-07T01:29:33Z</time></trkpt>
<trkpt lat="25.038905" lon="102.807334">
<time>2016-10-07T01:29:34Z</time></trkpt>
<trkpt lat="25.038964" lon="102.806723">
<time>2016-10-07T01:29:35Z</time></trkpt>
<trkpt lat="25.039023" lon="102.806102">
<time>2016-10-07T01:29:36Z</time></trkpt>
<trkpt lat="25.039033" lon="102.805952">
<time>2016-10-07T01:29:37Z</time></trkpt>
<trkpt lat="25.039052" lon="102.805782">
<time>2016-10-07T01:29:38Z</time></trkpt>
<trkpt lat="25.039052" lon="102.805732">
<time>2016-10-07T01:29:39Z</time></trkpt>
<trkpt lat="25.039072" lon="102.805512">
<time>2016-10-07T01:29:40Z</time></trkpt>
<trkpt lat="25.03924" lon="102.80419">
<time>2016-10-07T01:29:41Z</time></trkpt>
<trkpt lat="25.039398" lon="102.803079">
<time>2016-10-07T01:29:42Z</time></trkpt>
<trkpt lat="25.039477" lon="102.802638">
<time>2016-10-07T01:29:43Z</time></trkpt>
<trkpt lat="25.039537" lon="102.802398">
<time>2016-10-07T01:29:44Z</time></trkpt>
<trkpt lat="25.039616" lon="102.802127">
<time>2016-10-07T01:29:45Z</time></trkpt>
<trkpt lat="25.039696" lon="102.801937">
<time>2016-10-07T01:29:46Z</time></trkpt>
<trkpt lat="25.039826" lon="102.801747">
<time>2016-10-07T01:29:47Z</time></trkpt>
<trkpt lat="25.039965" lon="102.801567">
<time>2016-10-07T01:29:48Z</time></trkpt>
<trkpt lat="25.040115" lon="102.801456">
<time>2016-10-07T01:29:49Z</time></trkpt>
<trkpt lat="25.040255" lon="102.801376">
<time>2016-10-07T01:29:50Z</time></trkpt>
<trkpt lat="25.040395" lon="102.801306">
<time>2016-10-07T01:29:51Z</time></trkpt>
<trkpt lat="25.040565" lon="102.801236">
<time>2016-10-07T01:29:52Z</time></trkpt>
<trkpt lat="25.040724" lon="102.801136">
<time>2016-10-07T01:29:53Z</time></trkpt>
<trkpt lat="25.040834" lon="102.801036">
<time>2016-10-07T01:29:54Z</time></trkpt>
<trkpt lat="25.040944" lon="102.800886">
<time>2016-10-07T01:29:55Z</time></trkpt>
<trkpt lat="25.041064" lon="102.800675">
<time>2016-10-07T01:29:56Z</time></trkpt>
<trkpt lat="25.041123" lon="102.800505">
<time>2016-10-07T01:29:57Z</time></trkpt>
<trkpt lat="25.041183" lon="102.800325">
<time>2016-10-07T01:29:58Z</time></trkpt>
<trkpt lat="25.041203" lon="102.800135">
<time>2016-10-07T01:29:59Z</time></trkpt>
<trkpt lat="25.041202" lon="102.799935">
<time>2016-10-07T01:30:00Z</time></trkpt>
<trkpt lat="25.041172" lon="102.799744">
<time>2016-10-07T01:30:01Z</time></trkpt>
<trkpt lat="25.041132" lon="102.799554">
<time>2016-10-07T01:30:02Z</time></trkpt>
<trkpt lat="25.041082" lon="102.799414">
<time>2016-10-07T01:30:03Z</time></trkpt>
<trkpt lat="25.040991" lon="102.799254">
<time>2016-10-07T01:30:04Z</time></trkpt>
<trkpt lat="25.040891" lon="102.799134">
<time>2016-10-07T01:30:05Z</time></trkpt>
<trkpt lat="25.040751" lon="102.798993">
<time>2016-10-07T01:30:06Z</time></trkpt>
<trkpt lat="25.040551" lon="102.798773">
<time>2016-10-07T01:30:07Z</time></trkpt>
<trkpt lat="25.04043" lon="102.798623">
<time>2016-10-07T01:30:08Z</time></trkpt>
<trkpt lat="25.04036" lon="102.798483">
<time>2016-10-07T01:30:09Z</time></trkpt>
<trkpt lat="25.04031" lon="102.798333">
<time>2016-10-07T01:30:10Z</time></trkpt>
<trkpt lat="25.04025" lon="102.798142">
<time>2016-10-07T01:30:11Z</time></trkpt>
<trkpt lat="25.040199" lon="102.797912">
<time>2016-10-07T01:30:12Z</time></trkpt>
<trkpt lat="25.040189" lon="102.797832">
<time>2016-10-07T01:30:13Z</time></trkpt>
<trkpt lat="25.040159" lon="102.797672">
<time>2016-10-07T01:30:14Z</time></trkpt>
<trkpt lat="25.040159" lon="102.797482">
<time>2016-10-07T01:30:15Z</time></trkpt>
<trkpt lat="25.040159" lon="102.797482">
<time>2016-10-07T01:30:16Z</time></trkpt>
<trkpt lat="25.039748" lon="102.797161">
<time>2016-10-07T01:30:17Z</time></trkpt>
<trkpt lat="25.039748" lon="102.797161">
<time>2016-10-07T01:30:18Z</time></trkpt>
<trkpt lat="25.039768" lon="102.796901">
<time>2016-10-07T01:30:19Z</time></trkpt>
<trkpt lat="25.039747" lon="102.796561">
<time>2016-10-07T01:30:20Z</time></trkpt>
<trkpt lat="25.039696" lon="102.796">
<time>2016-10-07T01:30:21Z</time></trkpt>
<trkpt lat="25.039676" lon="102.79575">
<time>2016-10-07T01:30:22Z</time></trkpt>
<trkpt lat="25.039645" lon="102.795419">
<time>2016-10-07T01:30:23Z</time></trkpt>
<trkpt lat="25.039615" lon="102.795099">
<time>2016-10-07T01:30:24Z</time></trkpt>
<trkpt lat="25.039574" lon="102.794648">
<time>2016-10-07T01:30:25Z</time></trkpt>
<trkpt lat="25.039564" lon="102.794548">
<time>2016-10-07T01:30:26Z</time></trkpt>
<trkpt lat="25.039504" lon="102.794228">
<time>2016-10-07T01:30:27Z</time></trkpt>
<trkpt lat="25.039484" lon="102.794118">
<time>2016-10-07T01:30:28Z</time></trkpt>
<trkpt lat="25.039383" lon="102.793717">
<time>2016-10-07T01:30:29Z</time></trkpt>
<trkpt lat="25.039292" lon="102.793387">
<time>2016-10-07T01:30:30Z</time></trkpt>
<trkpt lat="25.039272" lon="102.793317">
<time>2016-10-07T01:30:31Z</time></trkpt>
<trkpt lat="25.039192" lon="102.793087">
<time>2016-10-07T01:30:32Z</time></trkpt>
<trkpt lat="25.039112" lon="102.792796">
<time>2016-10-07T01:30:33Z</time></trkpt>
<trkpt lat="25.039021" lon="102.792546">
<time>2016-10-07T01:30:34Z</time></trkpt>
<trkpt lat="25.038871" lon="102.792086">
<time>2016-10-07T01:30:35Z</time></trkpt>
<trkpt lat="25.03875" lon="102.791735">
<time>2016-10-07T01:30:36Z</time></trkpt>
<trkpt lat="25.03874" lon="102.791715">
<time>2016-10-07T01:30:37Z</time></trkpt>
<trkpt lat="25.03866" lon="102.791545">
<time>2016-10-07T01:30:38Z</time></trkpt>
<trkpt lat="25.038579" lon="102.791235">
<time>2016-10-07T01:30:39Z</time></trkpt>
<trkpt lat="25.038519" lon="102.790925">
<time>2016-10-07T01:30:40Z</time></trkpt>
<trkpt lat="25.038469" lon="102.790614">
<time>2016-10-07T01:30:41Z</time></trkpt>
<trkpt lat="25.038428" lon="102.790224">
<time>2016-10-07T01:30:42Z</time></trkpt>
<trkpt lat="25.038397" lon="102.789733">
<time>2016-10-07T01:30:43Z</time></trkpt>
<trkpt lat="25.038386" lon="102.789053">
<time>2016-10-07T01:30:44Z</time></trkpt>
<trkpt lat="25.038386" lon="102.788492">
<time>2016-10-07T01:30:45Z</time></trkpt>
<trkpt lat="25.038385" lon="102.788192">
<time>2016-10-07T01:30:46Z</time></trkpt>
<trkpt lat="25.038384" lon="102.787531">
<time>2016-10-07T01:30:47Z</time></trkpt>
<trkpt lat="25.038383" lon="102.78632">
<time>2016-10-07T01:30:48Z</time></trkpt>
<trkpt lat="25.038392" lon="102.78599">
<time>2016-10-07T01:30:49Z</time></trkpt>
<trkpt lat="25.038402" lon="102.78576">
<time>2016-10-07T01:30:50Z</time></trkpt>
<trkpt lat="25.038402" lon="102.785509">
<time>2016-10-07T01:30:51Z</time></trkpt>
<trkpt lat="25.038402" lon="102.785379">
<time>2016-10-07T01:30:52Z</time></trkpt>
<trkpt lat="25.038401" lon="102.785159">
<time>2016-10-07T01:30:53Z</time></trkpt>
<trkpt lat="25.038401" lon="102.784649">
<time>2016-10-07T01:30:54Z</time></trkpt>
<trkpt lat="25.03841" lon="102.783978">
<time>2016-10-07T01:30:55Z</time></trkpt>
<trkpt lat="25.038407" lon="102.781887">
<time>2016-10-07T01:30:56Z</time></trkpt>
<trkpt lat="25.038396" lon="102.780826">
<time>2016-10-07T01:30:57Z</time></trkpt>
<trkpt lat="25.038386" lon="102.780476">
<time>2016-10-07T01:30:58Z</time></trkpt>
<trkpt lat="25.038405" lon="102.779615">
<time>2016-10-07T01:30:59Z</time></trkpt>
<trkpt lat="25.038405" lon="102.779495">
<time>2016-10-07T01:31:00Z</time></trkpt>
<trkpt lat="25.038404" lon="102.779155">
<time>2016-10-07T01:31:01Z</time></trkpt>
<trkpt lat="25.038414" lon="102.778564">
<time>2016-10-07T01:31:02Z</time></trkpt>
<trkpt lat="25.038343" lon="102.778364">
<time>2016-10-07T01:31:03Z</time></trkpt>
<trkpt lat="25.038343" lon="102.777754">
<time>2016-10-07T01:31:04Z</time></trkpt>
<trkpt lat="25.038352" lon="102.777484">
<time>2016-10-07T01:31:05Z</time></trkpt>
<trkpt lat="25.038342" lon="102.777253">
<time>2016-10-07T01:31:06Z</time></trkpt>
<trkpt lat="25.038342" lon="102.777063">
<time>2016-10-07T01:31:07Z</time></trkpt>
<trkpt lat="25.038342" lon="102.776903">
<time>2016-10-07T01:31:08Z</time></trkpt>
<trkpt lat="25.038322" lon="102.776753">
<time>2016-10-07T01:31:09Z</time></trkpt>
<trkpt lat="25.038312" lon="102.776703">
<time>2016-10-07T01:31:10Z</time></trkpt>
<trkpt lat="25.038291" lon="102.776553">
<time>2016-10-07T01:31:11Z</time></trkpt>
<trkpt lat="25.038201" lon="102.776143">
<time>2016-10-07T01:31:12Z</time></trkpt>
<trkpt lat="25.038201" lon="102.776143">
<time>2016-10-07T01:31:13Z</time></trkpt>
<trkpt lat="25.038111" lon="102.776053">
<time>2016-10-07T01:31:14Z</time></trkpt>
<trkpt lat="25.038041" lon="102.775963">
<time>2016-10-07T01:31:15Z</time></trkpt>
<trkpt lat="25.037981" lon="102.775833">
<time>2016-10-07T01:31:16Z</time></trkpt>
<trkpt lat="25.037981" lon="102.775813">
<time>2016-10-07T01:31:17Z</time></trkpt>
<trkpt lat="25.037961" lon="102.775733">
<time>2016-10-07T01:31:18Z</time></trkpt>
<trkpt lat="25.037951" lon="102.775663">
<time>2016-10-07T01:31:19Z</time></trkpt>
<trkpt lat="25.037951" lon="102.775583">
<time>2016-10-07T01:31:20Z</time></trkpt>
<trkpt lat="25.03795" lon="102.775513">
<time>2016-10-07T01:31:21Z</time></trkpt>
<trkpt lat="25.03796" lon="102.775432">
<time>2016-10-07T01:31:22Z</time></trkpt>
<trkpt lat="25.03797" lon="102.775402">
<time>2016-10-07T01:31:23Z</time></trkpt>
<trkpt lat="25.03799" lon="102.775312">
<time>2016-10-07T01:31:24Z</time></trkpt>
<trkpt lat="25.038" lon="102.775282">
<time>2016-10-07T01:31:25Z</time></trkpt>
<trkpt lat="25.03805" lon="102.775192">
<time>2016-10-07T01:31:26Z</time></trkpt>
<trkpt lat="25.03812" lon="102.775102">
<time>2016-10-07T01:31:27Z</time></trkpt>
<trkpt lat="25.03772" lon="102.775162">
<time>2016-10-07T01:31:28Z</time></trkpt>
<trkpt lat="25.03761" lon="102.775172">
<time>2016-10-07T01:31:29Z</time></trkpt>
<trkpt lat="25.0375" lon="102.775162">
<time>2016-10-07T01:31:30Z</time></trkpt>
<trkpt lat="25.03737" lon="102.775142">
<time>2016-10-07T01:31:31Z</time></trkpt>
<trkpt lat="25.03732" lon="102.775132">
<time>2016-10-07T01:31:32Z</time></trkpt>
<trkpt lat="25.03712" lon="102.775092">
<time>2016-10-07T01:31:33Z</time></trkpt>
<trkpt lat="25.03679" lon="102.775012">
<time>2016-10-07T01:31:34Z</time></trkpt>
<trkpt lat="25.03655" lon="102.774942">
<time>2016-10-07T01:31:35Z</time></trkpt>
<trkpt lat="25.03626" lon="102.774822">
<time>2016-10-07T01:31:36Z</time></trkpt>
<trkpt lat="25.03613" lon="102.774762">
<time>2016-10-07T01:31:37Z</time></trkpt>
<trkpt lat="25.03595" lon="102.774692">
<time>2016-10-07T01:31:38Z</time></trkpt>
<trkpt lat="25.03541" lon="102.774402">
<time>2016-10-07T01:31:39Z</time></trkpt>
<trkpt lat="25.034209" lon="102.773832">
<time>2016-10-07T01:31:40Z</time></trkpt>
<trkpt lat="25.034139" lon="102.773802">
<time>2016-10-07T01:31:41Z</time></trkpt>
<trkpt lat="25.034139" lon="102.773802">
<time>2016-10-07T01:31:42Z</time></trkpt>
<trkpt lat="25.034149" lon="102.773602">
<time>2016-10-07T01:31:43Z</time></trkpt>
<trkpt lat="25.034149" lon="102.773432">
<time>2016-10-07T01:31:44Z</time></trkpt>
<trkpt lat="25.034129" lon="102.773282">
<time>2016-10-07T01:31:45Z</time></trkpt>
<trkpt lat="25.034099" lon="102.773101">
<time>2016-10-07T01:31:46Z</time></trkpt>
<trkpt lat="25.034018" lon="102.772781">
<time>2016-10-07T01:31:47Z</time></trkpt>
<trkpt lat="25.033888" lon="102.772361">
<time>2016-10-07T01:31:48Z</time></trkpt>
<trkpt lat="25.033848" lon="102.772211">
<time>2016-10-07T01:31:49Z</time></trkpt>
<trkpt lat="25.033698" lon="102.771821">
<time>2016-10-07T01:31:50Z</time></trkpt>
<trkpt lat="25.033377" lon="102.770961">
<time>2016-10-07T01:31:51Z</time></trkpt>
<trkpt lat="25.033347" lon="102.770881">
<time>2016-10-07T01:31:52Z</time></trkpt>
<trkpt lat="25.033197" lon="102.77048">
<time>2016-10-07T01:31:53Z</time></trkpt>
<trkpt lat="25.033036" lon="102.77003">
<time>2016-10-07T01:31:54Z</time></trkpt>
<trkpt lat="25.032816" lon="102.76952">
<time>2016-10-07T01:31:55Z</time></trkpt>
<trkpt lat="25.032626" lon="102.76915">
<time>2016-10-07T01:31:56Z</time></trkpt>
<trkpt lat="25.032455" lon="102.76887">
<time>2016-10-07T01:31:57Z</time></trkpt>
<trkpt lat="25.032245" lon="102.76852">
<time>2016-10-07T01:31:58Z</time></trkpt>
<trkpt lat="25.032215" lon="102.76847">
<time>2016-10-07T01:31:59Z</time></trkpt>
<trkpt lat="25.031955" lon="102.76802">
<time>2016-10-07T01:32:00Z</time></trkpt>
<trkpt lat="25.031605" lon="102.76746">
<time>2016-10-07T01:32:01Z</time></trkpt>
<trkpt lat="25.031574" lon="102.7674">
<time>2016-10-07T01:32:02Z</time></trkpt>
<trkpt lat="25.031134" lon="102.766539">
<time>2016-10-07T01:32:03Z</time></trkpt>
<trkpt lat="25.031124" lon="102.766519">
<time>2016-10-07T01:32:04Z</time></trkpt>
<trkpt lat="25.031054" lon="102.766289">
<time>2016-10-07T01:32:05Z</time></trkpt>
<trkpt lat="25.031004" lon="102.765899">
<time>2016-10-07T01:32:06Z</time></trkpt>
<trkpt lat="25.030883" lon="102.764349">
<time>2016-10-07T01:32:07Z</time></trkpt>
<trkpt lat="25.030722" lon="102.762359">
<time>2016-10-07T01:32:08Z</time></trkpt>
<trkpt lat="25.030711" lon="102.762139">
<time>2016-10-07T01:32:09Z</time></trkpt>
<trkpt lat="25.030691" lon="102.761909">
<time>2016-10-07T01:32:10Z</time></trkpt>
<trkpt lat="25.030631" lon="102.760629">
<time>2016-10-07T01:32:11Z</time></trkpt>
<trkpt lat="25.03059" lon="102.759939">
<time>2016-10-07T01:32:12Z</time></trkpt>
<trkpt lat="25.03059" lon="102.759929">
<time>2016-10-07T01:32:13Z</time></trkpt>
<trkpt lat="25.03062" lon="102.759189">
<time>2016-10-07T01:32:14Z</time></trkpt>
<trkpt lat="25.03063" lon="102.758939">
<time>2016-10-07T01:32:15Z</time></trkpt>
<trkpt lat="25.030829" lon="102.757209">
<time>2016-10-07T01:32:16Z</time></trkpt>
<trkpt lat="25.030829" lon="102.757209">
<time>2016-10-07T01:32:17Z</time></trkpt>
<trkpt lat="25.030689" lon="102.757159">
<time>2016-10-07T01:32:18Z</time></trkpt>
<trkpt lat="25.028639" lon="102.755979">
<time>2016-10-07T01:32:19Z</time></trkpt>
<trkpt lat="25.027489" lon="102.75527">
<time>2016-10-07T01:32:20Z</time></trkpt>
<trkpt lat="25.027419" lon="102.75523">
<time>2016-10-07T01:32:21Z</time></trkpt>
<trkpt lat="25.027419" lon="102.75523">
<time>2016-10-07T01:32:22Z</time></trkpt>
<trkpt lat="25.027929" lon="102.75412">
<time>2016-10-07T01:32:23Z</time></trkpt>
<trkpt lat="25.028079" lon="102.7538">
<time>2016-10-07T01:32:24Z</time></trkpt>
<trkpt lat="25.028269" lon="102.75337">
<time>2016-10-07T01:32:25Z</time></trkpt>
<trkpt lat="25.028309" lon="102.75329">
<time>2016-10-07T01:32:26Z</time></trkpt>
<trkpt lat="25.028329" lon="102.75325">
<time>2016-10-07T01:32:27Z</time></trkpt>
<trkpt lat="25.028329" lon="102.75323">
<time>2016-10-07T01:32:28Z</time></trkpt>
<trkpt lat="25.028339" lon="102.7532">
<time>2016-10-07T01:32:29Z</time></trkpt>
<trkpt lat="25.028339" lon="102.75318">
<time>2016-10-07T01:32:30Z</time></trkpt>
<trkpt lat="25.028339" lon="102.75316">
<time>2016-10-07T01:32:31Z</time></trkpt>
<trkpt lat="25.028329" lon="102.7531">
<time>2016-10-07T01:32:32Z</time></trkpt>
<trkpt lat="25.028329" lon="102.75305">
<time>2016-10-07T01:32:33Z</time></trkpt>
<trkpt lat="25.028309" lon="102.75288">
<time>2016-10-07T01:32:34Z</time></trkpt>
<trkpt lat="25.028299" lon="102.75272">
<time>2016-10-07T01:32:35Z</time></trkpt>
<trkpt lat="25.028279" lon="102.75259">
<time>2016-10-07T01:32:36Z</time></trkpt>
<trkpt lat="25.028249" lon="102.75235">
<time>2016-10-07T01:32:37Z</time></trkpt>
<trkpt lat="25.028239" lon="102.752071">
<time>2016-10-07T01:32:38Z</time></trkpt>
<trkpt lat="25.028249" lon="102.751921">
<time>2016-10-07T01:32:39Z</time></trkpt>
<trkpt lat="25.028288" lon="102.751691">
<time>2016-10-07T01:32:40Z</time></trkpt>
<trkpt lat="25.028328" lon="102.751591">
<time>2016-10-07T01:32:41Z</time></trkpt>
<trkpt lat="25.028358" lon="102.751511">
<time>2016-10-07T01:32:42Z</time></trkpt>
<trkpt lat="25.028428" lon="102.751331">
<time>2016-10-07T01:32:43Z</time></trkpt>
<trkpt lat="25.028528" lon="102.751191">
<time>2016-10-07T01:32:44Z</time></trkpt>
<trkpt lat="25.028628" lon="102.751051">
<time>2016-10-07T01:32:45Z</time></trkpt>
<trkpt lat="25.029028" lon="102.750691">
<time>2016-10-07T01:32:46Z</time></trkpt>
<trkpt lat="25.029128" lon="102.750601">
<time>2016-10-07T01:32:47Z</time></trkpt>
<trkpt lat="25.029128" lon="102.750601">
<time>2016-10-07T01:32:48Z</time></trkpt>
<trkpt lat="25.029158" lon="102.750531">
<time>2016-10-07T01:32:49Z</time></trkpt>
<trkpt lat="25.029188" lon="102.750441">
<time>2016-10-07T01:32:50Z</time></trkpt>
<trkpt lat="25.029198" lon="102.750381">
<time>2016-10-07T01:32:51Z</time></trkpt>
<trkpt lat="25.029218" lon="102.750291">
<time>2016-10-07T01:32:52Z</time></trkpt>
<trkpt lat="25.029208" lon="102.750221">
<time>2016-10-07T01:32:53Z</time></trkpt>
<trkpt lat="25.029208" lon="102.750151">
<time>2016-10-07T01:32:54Z</time></trkpt>
<trkpt lat="25.029188" lon="102.750091">
<time>2016-10-07T01:32:55Z</time></trkpt>
<trkpt lat="25.029188" lon="102.750091">
<time>2016-10-07T01:32:56Z</time></trkpt>
<trkpt lat="25.029118" lon="102.750021">
<time>2016-10-07T01:32:57Z</time></trkpt>
<trkpt lat="25.028638" lon="102.749562">
<time>2016-10-07T01:32:58Z</time></trkpt>
<trkpt lat="25.028308" lon="102.749242">
<time>2016-10-07T01:32:59Z</time></trkpt>
<trkpt lat="25.028248" lon="102.749192">
<time>2016-10-07T01:33:00Z</time></trkpt>
<trkpt lat="25.027738" lon="102.748792">
<time>2016-10-07T01:33:01Z</time></trkpt>
<trkpt lat="25.027388" lon="102.748522">
<time>2016-10-07T01:33:02Z</time></trkpt>
<trkpt lat="25.027138" lon="102.748322">
<time>2016-10-07T01:33:03Z</time></trkpt>
<trkpt lat="25.027138" lon="102.748322">
<time>2016-10-07T01:33:04Z</time></trkpt>
<trkpt lat="25.027178" lon="102.748242">
<time>2016-10-07T01:33:05Z</time></trkpt>
<trkpt lat="25.027248" lon="102.748102">
<time>2016-10-07T01:33:06Z</time></trkpt>
<trkpt lat="25.027388" lon="102.747753">
<time>2016-10-07T01:33:07Z</time></trkpt>
<trkpt lat="25.027558" lon="102.747363">
<time>2016-10-07T01:33:08Z</time></trkpt>
<trkpt lat="25.027678" lon="102.746953">
<time>2016-10-07T01:33:09Z</time></trkpt>
<trkpt lat="25.027999" lon="102.745914">
<time>2016-10-07T01:33:10Z</time></trkpt>
<trkpt lat="25.028109" lon="102.745514">
<time>2016-10-07T01:33:11Z</time></trkpt>
<trkpt lat="25.028219" lon="102.745134">
<time>2016-10-07T01:33:12Z</time></trkpt>
<trkpt lat="25.028269" lon="102.744984">
<time>2016-10-07T01:33:13Z</time></trkpt>
<trkpt lat="25.028289" lon="102.744884">
<time>2016-10-07T01:33:14Z</time></trkpt>
<trkpt lat="25.028359" lon="102.744644">
<time>2016-10-07T01:33:15Z</time></trkpt>
<trkpt lat="25.028399" lon="102.744505">
<time>2016-10-07T01:33:16Z</time></trkpt>
<trkpt lat="25.028459" lon="102.744355">
<time>2016-10-07T01:33:17Z</time></trkpt>
<trkpt lat="25.028549" lon="102.744205">
<time>2016-10-07T01:33:18Z</time></trkpt>
<trkpt lat="25.028619" lon="102.744115">
<time>2016-10-07T01:33:19Z</time></trkpt>
<trkpt lat="25.028679" lon="102.744065">
<time>2016-10-07T01:33:20Z</time></trkpt>
<trkpt lat="25.028759" lon="102.744005">
<time>2016-10-07T01:33:21Z</time></trkpt>
<trkpt lat="25.028989" lon="102.743845">
<time>2016-10-07T01:33:22Z</time></trkpt>
<trkpt lat="25.028989" lon="102.743845">
<time>2016-10-07T01:33:23Z</time></trkpt>
<trkpt lat="25.029029" lon="102.743845">
<time>2016-10-07T01:33:24Z</time></trkpt>
<trkpt lat="25.029099" lon="102.743835">
<time>2016-10-07T01:33:25Z</time></trkpt>
<trkpt lat="25.029159" lon="102.743815">
<time>2016-10-07T01:33:26Z</time></trkpt>
<trkpt lat="25.029209" lon="102.743795">
<time>2016-10-07T01:33:27Z</time></trkpt>
<trkpt lat="25.029269" lon="102.743765">
<time>2016-10-07T01:33:28Z</time></trkpt>
<trkpt lat="25.029329" lon="102.743725">
<time>2016-10-07T01:33:29Z</time></trkpt>
<trkpt lat="25.029389" lon="102.743685">
<time>2016-10-07T01:33:30Z</time></trkpt>
<trkpt lat="25.029429" lon="102.743645">
<time>2016-10-07T01:33:31Z</time></trkpt>
<trkpt lat="25.029459" lon="102.743605">
<time>2016-10-07T01:33:32Z</time></trkpt>
<trkpt lat="25.029469" lon="102.743595">
<time>2016-10-07T01:33:33Z</time></trkpt>
<trkpt lat="25.029489" lon="102.743575">
<time>2016-10-07T01:33:34Z</time></trkpt>
<trkpt lat="25.029519" lon="102.743535">
<time>2016-10-07T01:33:35Z</time></trkpt>
<trkpt lat="25.029539" lon="102.743495">
<time>2016-10-07T01:33:36Z</time></trkpt>
<trkpt lat="25.029549" lon="102.743485">
<time>2016-10-07T01:33:37Z</time></trkpt>
<trkpt lat="25.029559" lon="102.743455">
<time>2016-10-07T01:33:38Z</time></trkpt>
<trkpt lat="25.029589" lon="102.743395">
<time>2016-10-07T01:33:39Z</time></trkpt>
<trkpt lat="25.029599" lon="102.743365">
<time>2016-10-07T01:33:40Z</time></trkpt>
<trkpt lat="25.029609" lon="102.743345">
<time>2016-10-07T01:33:41Z</time></trkpt>
<trkpt lat="25.029619" lon="102.743305">
<time>2016-10-07T01:33:42Z</time></trkpt>
<trkpt lat="25.029629" lon="102.743275">
<time>2016-10-07T01:33:43Z</time></trkpt>
<trkpt lat="25.029639" lon="102.743235">
<time>2016-10-07T01:33:44Z</time></trkpt>
<trkpt lat="25.029639" lon="102.743195">
<time>2016-10-07T01:33:45Z</time></trkpt>
<trkpt lat="25.029639" lon="102.743185">
<time>2016-10-07T01:33:46Z</time></trkpt>
<trkpt lat="25.029639" lon="102.743145">
<time>2016-10-07T01:33:47Z</time></trkpt>
<trkpt lat="25.029639" lon="102.743085">
<time>2016-10-07T01:33:48Z</time></trkpt>
<trkpt lat="25.029639" lon="102.743026">
<time>2016-10-07T01:33:49Z</time></trkpt>
<trkpt lat="25.029629" lon="102.742966">
<time>2016-10-07T01:33:50Z</time></trkpt>
<trkpt lat="25.029619" lon="102.742916">
<time>2016-10-07T01:33:51Z</time></trkpt>
<trkpt lat="25.029609" lon="102.742876">
<time>2016-10-07T01:33:52Z</time></trkpt>
<trkpt lat="25.029589" lon="102.742816">
<time>2016-10-07T01:33:53Z</time></trkpt>
<trkpt lat="25.029559" lon="102.742756">
<time>2016-10-07T01:33:54Z</time></trkpt>
<trkpt lat="25.029539" lon="102.742726">
<time>2016-10-07T01:33:55Z</time></trkpt>
<trkpt lat="25.029529" lon="102.742496">
<time>2016-10-07T01:33:56Z</time></trkpt>
<trkpt lat="25.029529" lon="102.742416">
<time>2016-10-07T01:33:57Z</time></trkpt>
<trkpt lat="25.029529" lon="102.742326">
<time>2016-10-07T01:33:58Z</time></trkpt>
<trkpt lat="25.029539" lon="102.742286">
<time>2016-10-07T01:33:59Z</time></trkpt>
<trkpt lat="25.029559" lon="102.742156">
<time>2016-10-07T01:34:00Z</time></trkpt>
<trkpt lat="25.029609" lon="102.742036">
<time>2016-10-07T01:34:01Z</time></trkpt>
<trkpt lat="25.029659" lon="102.741936">
<time>2016-10-07T01:34:02Z</time></trkpt>
<trkpt lat="25.029819" lon="102.741587">
<time>2016-10-07T01:34:03Z</time></trkpt>
<trkpt lat="25.029829" lon="102.741577">
<time>2016-10-07T01:34:04Z</time></trkpt>
<trkpt lat="25.029979" lon="102.741307">
<time>2016-10-07T01:34:05Z</time></trkpt>
<trkpt lat="25.030039" lon="102.741177">
<time>2016-10-07T01:34:06Z</time></trkpt>
<trkpt lat="25.030039" lon="102.741177">
<time>2016-10-07T01:34:07Z</time></trkpt>
<trkpt lat="25.030029" lon="102.741017">
<time>2016-10-07T01:34:08Z</time></trkpt>
<trkpt lat="25.030049" lon="102.740987">
<time>2016-10-07T01:34:09Z</time></trkpt>
<trkpt lat="25.030069" lon="102.740957">
<time>2016-10-07T01:34:10Z</time></trkpt>
<trkpt lat="25.030099" lon="102.740897">
<time>2016-10-07T01:34:11Z</time></trkpt>
<trkpt lat="25.030149" lon="102.740797">
<time>2016-10-07T01:34:12Z</time></trkpt>
<trkpt lat="25.030179" lon="102.740737">
<time>2016-10-07T01:34:13Z</time></trkpt>
<trkpt lat="25.030189" lon="102.740717">
<time>2016-10-07T01:34:14Z</time></trkpt>
<trkpt lat="25.030199" lon="102.740697">
<time>2016-10-07T01:34:15Z</time></trkpt>
<trkpt lat="25.030209" lon="102.740687">
<time>2016-10-07T01:34:16Z</time></trkpt>
<trkpt lat="25.030209" lon="102.740677">
<time>2016-10-07T01:34:17Z</time></trkpt>
<trkpt lat="25.030239" lon="102.740617">
<time>2016-10-07T01:34:18Z</time></trkpt>
<trkpt lat="25.030309" lon="102.740477">
<time>2016-10-07T01:34:19Z</time></trkpt>
<trkpt lat="25.03055" lon="102.739958">
<time>2016-10-07T01:34:20Z</time></trkpt>
<trkpt lat="25.03075" lon="102.739548">
<time>2016-10-07T01:34:21Z</time></trkpt>
<trkpt lat="25.03117" lon="102.738709">
<time>2016-10-07T01:34:22Z</time></trkpt>
<trkpt lat="25.0314" lon="102.738249">
<time>2016-10-07T01:34:23Z</time></trkpt>
<trkpt lat="25.03171" lon="102.73761">
<time>2016-10-07T01:34:24Z</time></trkpt>
<trkpt lat="25.03182" lon="102.73739">
<time>2016-10-07T01:34:25Z</time></trkpt>
<trkpt lat="25.032191" lon="102.736651">
<time>2016-10-07T01:34:26Z</time></trkpt>
<trkpt lat="25.032561" lon="102.735902">
<time>2016-10-07T01:34:27Z</time></trkpt>
<trkpt lat="25.032651" lon="102.735712">
<time>2016-10-07T01:34:28Z</time></trkpt>
<trkpt lat="25.032801" lon="102.735422">
<time>2016-10-07T01:34:29Z</time></trkpt>
<trkpt lat="25.032971" lon="102.735092">
<time>2016-10-07T01:34:30Z</time></trkpt>
<trkpt lat="25.033402" lon="102.734263">
<time>2016-10-07T01:34:31Z</time></trkpt>
<trkpt lat="25.033732" lon="102.733634">
<time>2016-10-07T01:34:32Z</time></trkpt>
<trkpt lat="25.034032" lon="102.733025">
<time>2016-10-07T01:34:33Z</time></trkpt>
<trkpt lat="25.034052" lon="102.732975">
<time>2016-10-07T01:34:34Z</time></trkpt>
<trkpt lat="25.034072" lon="102.732925">
<time>2016-10-07T01:34:35Z</time></trkpt>
<trkpt lat="25.034072" lon="102.732925">
<time>2016-10-07T01:34:36Z</time></trkpt>
<trkpt lat="25.034203" lon="102.732615">
<time>2016-10-07T01:34:37Z</time></trkpt>
<trkpt lat="25.034233" lon="102.732535">
<time>2016-10-07T01:34:38Z</time></trkpt>
<trkpt lat="25.034303" lon="102.732355">
<time>2016-10-07T01:34:39Z</time></trkpt>
<trkpt lat="25.034553" lon="102.731686">
<time>2016-10-07T01:34:40Z</time></trkpt>
<trkpt lat="25.034723" lon="102.731217">
<time>2016-10-07T01:34:41Z</time></trkpt>
<trkpt lat="25.035475" lon="102.729229">
<time>2016-10-07T01:34:42Z</time></trkpt>
<trkpt lat="25.035675" lon="102.72869">
<time>2016-10-07T01:34:43Z</time></trkpt>
<trkpt lat="25.035695" lon="102.72864">
<time>2016-10-07T01:34:44Z</time></trkpt>
<trkpt lat="25.035815" lon="102.72834">
<time>2016-10-07T01:34:45Z</time></trkpt>
<trkpt lat="25.036136" lon="102.727472">
<time>2016-10-07T01:34:46Z</time></trkpt>
<trkpt lat="25.036386" lon="102.726772">
<time>2016-10-07T01:34:47Z</time></trkpt>
<trkpt lat="25.036467" lon="102.726553">
<time>2016-10-07T01:34:48Z</time></trkpt>
<trkpt lat="25.036507" lon="102.726443">
<time>2016-10-07T01:34:49Z</time></trkpt>
<trkpt lat="25.036537" lon="102.726353">
<time>2016-10-07T01:34:50Z</time></trkpt>
<trkpt lat="25.036597" lon="102.726153">
<time>2016-10-07T01:34:51Z</time></trkpt>
<trkpt lat="25.036617" lon="102.726023">
<time>2016-10-07T01:34:52Z</time></trkpt>
<trkpt lat="25.036627" lon="102.725884">
<time>2016-10-07T01:34:53Z</time></trkpt>
<trkpt lat="25.036637" lon="102.725744">
<time>2016-10-07T01:34:54Z</time></trkpt>
<trkpt lat="25.036638" lon="102.724955">
<time>2016-10-07T01:34:55Z</time></trkpt>
<trkpt lat="25.036639" lon="102.724146">
<time>2016-10-07T01:34:56Z</time></trkpt>
<trkpt lat="25.036639" lon="102.724046">
<time>2016-10-07T01:34:57Z</time></trkpt>
<trkpt lat="25.036629" lon="102.723847">
<time>2016-10-07T01:34:58Z</time></trkpt>
<trkpt lat="25.0366" lon="102.723068">
<time>2016-10-07T01:34:59Z</time></trkpt>
<trkpt lat="25.036571" lon="102.72149">
<time>2016-10-07T01:35:00Z</time></trkpt>
<trkpt lat="25.036571" lon="102.721201">
<time>2016-10-07T01:35:01Z</time></trkpt>
<trkpt lat="25.036572" lon="102.720552">
<time>2016-10-07T01:35:02Z</time></trkpt>
<trkpt lat="25.036573" lon="102.719723">
<time>2016-10-07T01:35:03Z</time></trkpt>
<trkpt lat="25.036574" lon="102.719214">
<time>2016-10-07T01:35:04Z</time></trkpt>
<trkpt lat="25.036574" lon="102.718625">
<time>2016-10-07T01:35:05Z</time></trkpt>
<trkpt lat="25.036574" lon="102.718525">
<time>2016-10-07T01:35:06Z</time></trkpt>
<trkpt lat="25.036574" lon="102.718425">
<time>2016-10-07T01:35:07Z</time></trkpt>
<trkpt lat="25.036574" lon="102.718365">
<time>2016-10-07T01:35:08Z</time></trkpt>
<trkpt lat="25.036545" lon="102.717537">
<time>2016-10-07T01:35:09Z</time></trkpt>
<trkpt lat="25.036526" lon="102.716748">
<time>2016-10-07T01:35:10Z</time></trkpt>
<trkpt lat="25.036526" lon="102.716628">
<time>2016-10-07T01:35:11Z</time></trkpt>
<trkpt lat="25.036517" lon="102.716458">
<time>2016-10-07T01:35:12Z</time></trkpt>
<trkpt lat="25.036507" lon="102.716019">
<time>2016-10-07T01:35:13Z</time></trkpt>
<trkpt lat="25.036507" lon="102.71574">
<time>2016-10-07T01:35:14Z</time></trkpt>
<trkpt lat="25.036508" lon="102.71558">
<time>2016-10-07T01:35:15Z</time></trkpt>
<trkpt lat="25.036508" lon="102.71544">
<time>2016-10-07T01:35:16Z</time></trkpt>
<trkpt lat="25.036518" lon="102.71533">
<time>2016-10-07T01:35:17Z</time></trkpt>
<trkpt lat="25.036518" lon="102.71533">
<time>2016-10-07T01:35:18Z</time></trkpt>
<trkpt lat="25.036508" lon="102.715091">
<time>2016-10-07T01:35:19Z</time></trkpt>
<trkpt lat="25.036459" lon="102.714113">
<time>2016-10-07T01:35:20Z</time></trkpt>
<trkpt lat="25.036442" lon="102.712356">
<time>2016-10-07T01:35:21Z</time></trkpt>
<trkpt lat="25.036442" lon="102.711847">
<time>2016-10-07T01:35:22Z</time></trkpt>
<trkpt lat="25.036442" lon="102.711797">
<time>2016-10-07T01:35:23Z</time></trkpt>
<trkpt lat="25.036433" lon="102.711248">
<time>2016-10-07T01:35:24Z</time></trkpt>
<trkpt lat="25.036424" lon="102.710829">
<time>2016-10-07T01:35:25Z</time></trkpt>
<trkpt lat="25.036414" lon="102.710579">
<time>2016-10-07T01:35:26Z</time></trkpt>
<trkpt lat="25.036424" lon="102.710529">
<time>2016-10-07T01:35:27Z</time></trkpt>
<trkpt lat="25.036435" lon="102.71007">
<time>2016-10-07T01:35:28Z</time></trkpt>
<trkpt lat="25.036445" lon="102.71005">
<time>2016-10-07T01:35:29Z</time></trkpt>
<trkpt lat="25.036545" lon="102.709801">
<time>2016-10-07T01:35:30Z</time></trkpt>
<trkpt lat="25.036605" lon="102.709621">
<time>2016-10-07T01:35:31Z</time></trkpt>
<trkpt lat="25.036736" lon="102.709252">
<time>2016-10-07T01:35:32Z</time></trkpt>
<trkpt lat="25.036756" lon="102.709082">
<time>2016-10-07T01:35:33Z</time></trkpt>
<trkpt lat="25.036756" lon="102.709032">
<time>2016-10-07T01:35:34Z</time></trkpt>
<trkpt lat="25.036756" lon="102.709022">
<time>2016-10-07T01:35:35Z</time></trkpt>
<trkpt lat="25.036756" lon="102.708773">
<time>2016-10-07T01:35:36Z</time></trkpt>
<trkpt lat="25.036756" lon="102.708613">
<time>2016-10-07T01:35:37Z</time></trkpt>
<trkpt lat="25.036767" lon="102.708433">
<time>2016-10-07T01:35:38Z</time></trkpt>
<trkpt lat="25.036757" lon="102.708274">
<time>2016-10-07T01:35:39Z</time></trkpt>
<trkpt lat="25.036747" lon="102.708214">
<time>2016-10-07T01:35:40Z</time></trkpt>
<trkpt lat="25.036747" lon="102.708204">
<time>2016-10-07T01:35:41Z</time></trkpt>
<trkpt lat="25.036737" lon="102.708124">
<time>2016-10-07T01:35:42Z</time></trkpt>
<trkpt lat="25.036697" lon="102.707994">
<time>2016-10-07T01:35:43Z</time></trkpt>
<trkpt lat="25.036638" lon="102.707824">
<time>2016-10-07T01:35:44Z</time></trkpt>
<trkpt lat="25.036568" lon="102.707675">
<time>2016-10-07T01:35:45Z</time></trkpt>
<trkpt lat="25.036488" lon="102.707515">
<time>2016-10-07T01:35:46Z</time></trkpt>
<trkpt lat="25.036458" lon="102.707465">
<time>2016-10-07T01:35:47Z</time></trkpt>
<trkpt lat="25.036438" lon="102.707395">
<time>2016-10-07T01:35:48Z</time></trkpt>
<trkpt lat="25.036418" lon="102.707276">
<time>2016-10-07T01:35:49Z</time></trkpt>
<trkpt lat="25.036379" lon="102.707016">
<time>2016-10-07T01:35:50Z</time></trkpt>
<trkpt lat="25.036339" lon="102.706677">
<time>2016-10-07T01:35:51Z</time></trkpt>
<trkpt lat="25.03632" lon="102.706417">
<time>2016-10-07T01:35:52Z</time></trkpt>
<trkpt lat="25.03631" lon="102.706288">
<time>2016-10-07T01:35:53Z</time></trkpt>
<trkpt lat="25.03628" lon="102.705948">
<time>2016-10-07T01:35:54Z</time></trkpt>
<trkpt lat="25.036231" lon="102.705369">
<time>2016-10-07T01:35:55Z</time></trkpt>
<trkpt lat="25.036192" lon="102.70498">
<time>2016-10-07T01:35:56Z</time></trkpt>
<trkpt lat="25.036182" lon="102.704611">
<time>2016-10-07T01:35:57Z</time></trkpt>
<trkpt lat="25.036143" lon="102.704002">
<time>2016-10-07T01:35:58Z</time></trkpt>
<trkpt lat="25.036095" lon="102.703034">
<time>2016-10-07T01:35:59Z</time></trkpt>
<trkpt lat="25.036076" lon="102.702376">
<time>2016-10-07T01:36:00Z</time></trkpt>
<trkpt lat="25.036017" lon="102.701208">
<time>2016-10-07T01:36:01Z</time></trkpt>
<trkpt lat="25.035951" lon="102.698714">
<time>2016-10-07T01:36:02Z</time></trkpt>
<trkpt lat="25.035942" lon="102.698584">
<time>2016-10-07T01:36:03Z</time></trkpt>
<trkpt lat="25.035942" lon="102.698584">
<time>2016-10-07T01:36:04Z</time></trkpt>
<trkpt lat="25.035932" lon="102.698354">
<time>2016-10-07T01:36:05Z</time></trkpt>
<trkpt lat="25.035922" lon="102.698155">
<time>2016-10-07T01:36:06Z</time></trkpt>
<trkpt lat="25.035923" lon="102.697995">
<time>2016-10-07T01:36:07Z</time></trkpt>
<trkpt lat="25.035913" lon="102.697476">
<time>2016-10-07T01:36:08Z</time></trkpt>
<trkpt lat="25.035904" lon="102.697297">
<time>2016-10-07T01:36:09Z</time></trkpt>
<trkpt lat="25.035904" lon="102.696918">
<time>2016-10-07T01:36:10Z</time></trkpt>
<trkpt lat="25.035904" lon="102.696818">
<time>2016-10-07T01:36:11Z</time></trkpt>
<trkpt lat="25.035875" lon="102.696459">
<time>2016-10-07T01:36:12Z</time></trkpt>
<trkpt lat="25.035796" lon="102.69607">
<time>2016-10-07T01:36:13Z</time></trkpt>
<trkpt lat="25.035666" lon="102.69574">
<time>2016-10-07T01:36:14Z</time></trkpt>
<trkpt lat="25.035507" lon="102.695471">
<time>2016-10-07T01:36:15Z</time></trkpt>
<trkpt lat="25.035307" lon="102.695241">
<time>2016-10-07T01:36:16Z</time></trkpt>
<trkpt lat="25.035078" lon="102.695012">
<time>2016-10-07T01:36:17Z</time></trkpt>
<trkpt lat="25.034928" lon="102.694842">
<time>2016-10-07T01:36:18Z</time></trkpt>
<trkpt lat="25.034838" lon="102.694723">
<time>2016-10-07T01:36:19Z</time></trkpt>
<trkpt lat="25.034718" lon="102.694543">
<time>2016-10-07T01:36:20Z</time></trkpt>
<trkpt lat="25.034609" lon="102.694373">
<time>2016-10-07T01:36:21Z</time></trkpt>
<trkpt lat="25.034509" lon="102.694144">
<time>2016-10-07T01:36:22Z</time></trkpt>
<trkpt lat="25.034449" lon="102.693964">
<time>2016-10-07T01:36:23Z</time></trkpt>
<trkpt lat="25.03439" lon="102.693745">
<time>2016-10-07T01:36:24Z</time></trkpt>
<trkpt lat="25.03435" lon="102.693535">
<time>2016-10-07T01:36:25Z</time></trkpt>
<trkpt lat="25.034311" lon="102.693266">
<time>2016-10-07T01:36:26Z</time></trkpt>
<trkpt lat="25.034321" lon="102.693027">
<time>2016-10-07T01:36:27Z</time></trkpt>
<trkpt lat="25.034331" lon="102.692887">
<time>2016-10-07T01:36:28Z</time></trkpt>
<trkpt lat="25.034352" lon="102.692608">
<time>2016-10-07T01:36:29Z</time></trkpt>
<trkpt lat="25.034362" lon="102.692468">
<time>2016-10-07T01:36:30Z</time></trkpt>
<trkpt lat="25.034382" lon="102.692308">
<time>2016-10-07T01:36:31Z</time></trkpt>
<trkpt lat="25.034403" lon="102.692119">
<time>2016-10-07T01:36:32Z</time></trkpt>
<trkpt lat="25.034453" lon="102.69172">
<time>2016-10-07T01:36:33Z</time></trkpt>
<trkpt lat="25.034463" lon="102.69162">
<time>2016-10-07T01:36:34Z</time></trkpt>
<trkpt lat="25.034474" lon="102.69159">
<time>2016-10-07T01:36:35Z</time></trkpt>
<trkpt lat="25.034584" lon="102.691091">
<time>2016-10-07T01:36:36Z</time></trkpt>
<trkpt lat="25.034585" lon="102.690991">
<time>2016-10-07T01:36:37Z</time></trkpt>
<trkpt lat="25.034575" lon="102.690562">
<time>2016-10-07T01:36:38Z</time></trkpt>
<trkpt lat="25.034486" lon="102.689894">
<time>2016-10-07T01:36:39Z</time></trkpt>
<trkpt lat="25.034337" lon="102.689555">
<time>2016-10-07T01:36:40Z</time></trkpt>
<trkpt lat="25.034188" lon="102.689265">
<time>2016-10-07T01:36:41Z</time></trkpt>
<trkpt lat="25.033988" lon="102.688976">
<time>2016-10-07T01:36:42Z</time></trkpt>
<trkpt lat="25.033689" lon="102.688567">
<time>2016-10-07T01:36:43Z</time></trkpt>
<trkpt lat="25.033509" lon="102.688358">
<time>2016-10-07T01:36:44Z</time></trkpt>
<trkpt lat="25.033509" lon="102.688358">
<time>2016-10-07T01:36:45Z</time></trkpt>
<trkpt lat="25.03371" lon="102.687949">
<time>2016-10-07T01:36:46Z</time></trkpt>
<trkpt lat="25.03374" lon="102.687799">
<time>2016-10-07T01:36:47Z</time></trkpt>
<trkpt lat="25.03375" lon="102.687699">
<time>2016-10-07T01:36:48Z</time></trkpt>
<trkpt lat="25.033741" lon="102.687599">
<time>2016-10-07T01:36:49Z</time></trkpt>
<trkpt lat="25.033683" lon="102.686173">
<time>2016-10-07T01:36:50Z</time></trkpt>
<trkpt lat="25.033674" lon="102.685953">
<time>2016-10-07T01:36:51Z</time></trkpt>
<trkpt lat="25.033635" lon="102.685315">
<time>2016-10-07T01:36:52Z</time></trkpt>
<trkpt lat="25.033596" lon="102.684467">
<time>2016-10-07T01:36:53Z</time></trkpt>
<trkpt lat="25.033587" lon="102.684068">
<time>2016-10-07T01:36:54Z</time></trkpt>
<trkpt lat="25.033628" lon="102.683769">
<time>2016-10-07T01:36:55Z</time></trkpt>
<trkpt lat="25.033648" lon="102.683499">
<time>2016-10-07T01:36:56Z</time></trkpt>
<trkpt lat="25.033689" lon="102.68314">
<time>2016-10-07T01:36:57Z</time></trkpt>
<trkpt lat="25.033709" lon="102.682881">
<time>2016-10-07T01:36:58Z</time></trkpt>
<trkpt lat="25.03376" lon="102.682382">
<time>2016-10-07T01:36:59Z</time></trkpt>
<trkpt lat="25.033801" lon="102.681963">
<time>2016-10-07T01:37:00Z</time></trkpt>
<trkpt lat="25.033801" lon="102.681814">
<time>2016-10-07T01:37:01Z</time></trkpt>
<trkpt lat="25.033801" lon="102.681764">
<time>2016-10-07T01:37:02Z</time></trkpt>
<trkpt lat="25.033802" lon="102.681654">
<time>2016-10-07T01:37:03Z</time></trkpt>
<trkpt lat="25.033802" lon="102.681504">
<time>2016-10-07T01:37:04Z</time></trkpt>
<trkpt lat="25.033802" lon="102.681454">
<time>2016-10-07T01:37:05Z</time></trkpt>
<trkpt lat="25.033724" lon="102.680198">
<time>2016-10-07T01:37:06Z</time></trkpt>
<trkpt lat="25.033735" lon="102.679808">
<time>2016-10-07T01:37:07Z</time></trkpt>
<trkpt lat="25.033735" lon="102.679759">
<time>2016-10-07T01:37:08Z</time></trkpt>
<trkpt lat="25.033727" lon="102.67899">
<time>2016-10-07T01:37:09Z</time></trkpt>
<trkpt lat="25.033767" lon="102.678701">
<time>2016-10-07T01:37:10Z</time></trkpt>
<trkpt lat="25.033767" lon="102.678701">
<time>2016-10-07T01:37:11Z</time></trkpt>
<trkpt lat="25.033837" lon="102.678572">
<time>2016-10-07T01:37:12Z</time></trkpt>
<trkpt lat="25.034038" lon="102.678352">
<time>2016-10-07T01:37:13Z</time></trkpt>
<trkpt lat="25.034038" lon="102.678352">
<time>2016-10-07T01:37:14Z</time></trkpt>
<trkpt lat="25.033998" lon="102.678312">
<time>2016-10-07T01:37:15Z</time></trkpt>
<trkpt lat="25.03304" lon="102.677385">
<time>2016-10-07T01:37:16Z</time></trkpt>
<trkpt lat="25.032591" lon="102.676876">
<time>2016-10-07T01:37:17Z</time></trkpt>
<trkpt lat="25.032531" lon="102.676796">
<time>2016-10-07T01:37:18Z</time></trkpt>
<trkpt lat="25.032501" lon="102.676756">
<time>2016-10-07T01:37:19Z</time></trkpt>
<trkpt lat="25.032451" lon="102.676696">
<time>2016-10-07T01:37:20Z</time></trkpt>
<trkpt lat="25.032371" lon="102.676596">
<time>2016-10-07T01:37:21Z</time></trkpt>
<trkpt lat="25.031942" lon="102.676028">
<time>2016-10-07T01:37:22Z</time></trkpt>
<trkpt lat="25.031523" lon="102.675589">
<time>2016-10-07T01:37:23Z</time></trkpt>
<trkpt lat="25.031473" lon="102.675539">
<time>2016-10-07T01:37:24Z</time></trkpt>
<trkpt lat="25.031473" lon="102.675539">
<time>2016-10-07T01:37:25Z</time></trkpt>
<trkpt lat="25.031724" lon="102.67527">
<time>2016-10-07T01:37:26Z</time></trkpt>
<trkpt lat="25.031844" lon="102.67515">
<time>2016-10-07T01:37:27Z</time></trkpt>
<trkpt lat="25.031864" lon="102.67514">
<time>2016-10-07T01:37:28Z</time></trkpt>
<trkpt lat="25.031874" lon="102.67513">
<time>2016-10-07T01:37:29Z</time></trkpt>
<trkpt lat="25.031884" lon="102.67511">
<time>2016-10-07T01:37:30Z</time></trkpt>
<trkpt lat="25.031894" lon="102.6751">
<time>2016-10-07T01:37:31Z</time></trkpt>
<trkpt lat="25.031894" lon="102.67508">
<time>2016-10-07T01:37:32Z</time></trkpt>
<trkpt lat="25.031894" lon="102.67507">
<time>2016-10-07T01:37:33Z</time></trkpt>
<trkpt lat="25.031894" lon="102.67505">
<time>2016-10-07T01:37:34Z</time></trkpt>
<trkpt lat="25.031884" lon="102.67504">
<time>2016-10-07T01:37:35Z</time></trkpt>
<trkpt lat="25.031815" lon="102.674901">
<time>2016-10-07T01:37:36Z</time></trkpt>
<trkpt lat="25.031645" lon="102.674611">
<time>2016-10-07T01:37:37Z</time></trkpt>
<trkpt lat="25.031645" lon="102.674611">
<time>2016-10-07T01:37:38Z</time></trkpt>
<trkpt lat="25.031956" lon="102.674382">
<time>2016-10-07T01:37:39Z</time></trkpt>
<trkpt lat="25.032226" lon="102.674173">
<time>2016-10-07T01:37:40Z</time></trkpt>
<trkpt lat="25.032276" lon="102.674133">
<time>2016-10-07T01:37:41Z</time></trkpt>
<trkpt lat="25.032496" lon="102.673973">
<time>2016-10-07T01:37:42Z</time></trkpt>
<trkpt lat="25.032596" lon="102.673903">
<time>2016-10-07T01:37:43Z</time></trkpt>
<trkpt lat="25.032817" lon="102.673754">
<time>2016-10-07T01:37:44Z</time></trkpt>
<trkpt lat="25.033117" lon="102.673544">
<time>2016-10-07T01:37:45Z</time></trkpt>
<trkpt lat="25.033287" lon="102.673424">
<time>2016-10-07T01:37:46Z</time></trkpt>
<trkpt lat="25.033377" lon="102.673375">
<time>2016-10-07T01:37:47Z</time></trkpt>
<trkpt lat="25.033457" lon="102.673345">
<time>2016-10-07T01:37:48Z</time></trkpt>
<trkpt lat="25.033537" lon="102.673355">
<time>2016-10-07T01:37:49Z</time></trkpt>
<trkpt lat="25.033557" lon="102.673355">
<time>2016-10-07T01:37:50Z</time></trkpt>
<trkpt lat="25.033567" lon="102.673355">
<time>2016-10-07T01:37:51Z</time></trkpt>
<trkpt lat="25.033727" lon="102.673305">
<time>2016-10-07T01:37:52Z</time></trkpt>
<trkpt lat="25.033777" lon="102.673295">
<time>2016-10-07T01:37:53Z</time></trkpt>
<trkpt lat="25.033777" lon="102.673295">
<time>2016-10-07T01:37:54Z</time></trkpt>
<trkpt lat="25.033668" lon="102.673085">
<time>2016-10-07T01:37:55Z</time></trkpt>
<trkpt lat="25.033638" lon="102.673015">
<time>2016-10-07T01:37:56Z</time></trkpt>
<trkpt lat="25.033638" lon="102.672995">
<time>2016-10-07T01:37:57Z</time></trkpt>
<trkpt lat="25.033638" lon="102.672966">
<time>2016-10-07T01:37:58Z</time></trkpt>
<trkpt lat="25.033638" lon="102.672956">
<time>2016-10-07T01:37:59Z</time></trkpt>
<trkpt lat="25.033678" lon="102.672736">
<time>2016-10-07T01:38:00Z</time></trkpt>
<trkpt lat="25.033679" lon="102.672716">
<time>2016-10-07T01:38:01Z</time></trkpt>
<trkpt lat="25.033669" lon="102.672676">
<time>2016-10-07T01:38:02Z</time></trkpt>
<trkpt lat="25.033649" lon="102.672626">
<time>2016-10-07T01:38:03Z</time></trkpt>
<trkpt lat="25.033649" lon="102.672577">
<time>2016-10-07T01:38:04Z</time></trkpt>
<trkpt lat="25.033649" lon="102.672387">
<time>2016-10-07T01:38:05Z</time></trkpt>
<trkpt lat="25.033639" lon="102.672367">
<time>2016-10-07T01:38:06Z</time></trkpt>
<trkpt lat="25.033589" lon="102.672327">
<time>2016-10-07T01:38:07Z</time></trkpt>
<trkpt lat="25.033589" lon="102.672327">
<time>2016-10-07T01:38:08Z</time></trkpt>
<trkpt lat="25.0336" lon="102.672048">
<time>2016-10-07T01:38:09Z</time></trkpt>
<trkpt lat="25.03358" lon="102.671908">
<time>2016-10-07T01:38:10Z</time></trkpt>
<trkpt lat="25.03359" lon="102.671779">
<time>2016-10-07T01:38:11Z</time></trkpt>
<trkpt lat="25.033621" lon="102.671629">
<time>2016-10-07T01:38:12Z</time></trkpt>
<trkpt lat="25.033651" lon="102.671469">
<time>2016-10-07T01:38:13Z</time></trkpt>
<trkpt lat="25.033671" lon="102.671399">
<time>2016-10-07T01:38:14Z</time></trkpt>
<trkpt lat="25.033691" lon="102.67133">
<time>2016-10-07T01:38:15Z</time></trkpt>
<trkpt lat="25.033711" lon="102.67126">
<time>2016-10-07T01:38:16Z</time></trkpt>
<trkpt lat="25.033731" lon="102.67121">
<time>2016-10-07T01:38:17Z</time></trkpt>
<trkpt lat="25.033772" lon="102.6711">
<time>2016-10-07T01:38:18Z</time></trkpt>
<trkpt lat="25.033812" lon="102.671">
<time>2016-10-07T01:38:19Z</time></trkpt>
<trkpt lat="25.033852" lon="102.670951">
<time>2016-10-07T01:38:20Z</time></trkpt>
<trkpt lat="25.033882" lon="102.670921">
<time>2016-10-07T01:38:21Z</time></trkpt>
<trkpt lat="25.033902" lon="102.670901">
<time>2016-10-07T01:38:22Z</time></trkpt>
<trkpt lat="25.033972" lon="102.670851">
<time>2016-10-07T01:38:23Z</time></trkpt>
<trkpt lat="25.033972" lon="102.670851">
<time>2016-10-07T01:38:24Z</time></trkpt>
<trkpt lat="25.033764" lon="102.670113">
<time>2016-10-07T01:38:25Z</time></trkpt>
<trkpt lat="25.033525" lon="102.669265">
<time>2016-10-07T01:38:26Z</time></trkpt>
<trkpt lat="25.033495" lon="102.669165">
<time>2016-10-07T01:38:27Z</time></trkpt>
<trkpt lat="25.033327" lon="102.668567">
<time>2016-10-07T01:38:28Z</time></trkpt>
<trkpt lat="25.033287" lon="102.668427">
<time>2016-10-07T01:38:29Z</time></trkpt>
<trkpt lat="25.033108" lon="102.667808">
<time>2016-10-07T01:38:30Z</time></trkpt>
<trkpt lat="25.032939" lon="102.66723">
<time>2016-10-07T01:38:31Z</time></trkpt>
<trkpt lat="25.03278" lon="102.666721">
<time>2016-10-07T01:38:32Z</time></trkpt>
<trkpt lat="25.032552" lon="102.665983">
<time>2016-10-07T01:38:33Z</time></trkpt>
<trkpt lat="25.032542" lon="102.665963">
<time>2016-10-07T01:38:34Z</time></trkpt>
<trkpt lat="25.032273" lon="102.665095">
<time>2016-10-07T01:38:35Z</time></trkpt>
<trkpt lat="25.031856" lon="102.663798">
<time>2016-10-07T01:38:36Z</time></trkpt>
<trkpt lat="25.031031" lon="102.661175">
<time>2016-10-07T01:38:37Z</time></trkpt>
<trkpt lat="25.030842" lon="102.660556">
<time>2016-10-07T01:38:38Z</time></trkpt>
<trkpt lat="25.030832" lon="102.660507">
<time>2016-10-07T01:38:39Z</time></trkpt>
<trkpt lat="25.029958" lon="102.657654">
<time>2016-10-07T01:38:40Z</time></trkpt>
<trkpt lat="25.02959" lon="102.656437">
<time>2016-10-07T01:38:41Z</time></trkpt>
<trkpt lat="25.029371" lon="102.655708">
<time>2016-10-07T01:38:42Z</time></trkpt>
<trkpt lat="25.029033" lon="102.654591">
<time>2016-10-07T01:38:43Z</time></trkpt>
<trkpt lat="25.028725" lon="102.653613">
<time>2016-10-07T01:38:44Z</time></trkpt>
<trkpt lat="25.028655" lon="102.653404">
<time>2016-10-07T01:38:45Z</time></trkpt>
<trkpt lat="25.028606" lon="102.653244">
<time>2016-10-07T01:38:46Z</time></trkpt>
<trkpt lat="25.028576" lon="102.653134">
<time>2016-10-07T01:38:47Z</time></trkpt>
<trkpt lat="25.028536" lon="102.653005">
<time>2016-10-07T01:38:48Z</time></trkpt>
<trkpt lat="25.028198" lon="102.651957">
<time>2016-10-07T01:38:49Z</time></trkpt>
<trkpt lat="25.027124" lon="102.648475">
<time>2016-10-07T01:38:50Z</time></trkpt>
<trkpt lat="25.027094" lon="102.648395">
<time>2016-10-07T01:38:51Z</time></trkpt>
<trkpt lat="25.027015" lon="102.648146">
<time>2016-10-07T01:38:52Z</time></trkpt>
<trkpt lat="25.026925" lon="102.647867">
<time>2016-10-07T01:38:53Z</time></trkpt>
<trkpt lat="25.026826" lon="102.647567">
<time>2016-10-07T01:38:54Z</time></trkpt>
<trkpt lat="25.026756" lon="102.647418">
<time>2016-10-07T01:38:55Z</time></trkpt>
<trkpt lat="25.026667" lon="102.647218">
<time>2016-10-07T01:38:56Z</time></trkpt>
<trkpt lat="25.026627" lon="102.647138">
<time>2016-10-07T01:38:57Z</time></trkpt>
<trkpt lat="25.026457" lon="102.646789">
<time>2016-10-07T01:38:58Z</time></trkpt>
<trkpt lat="25.026447" lon="102.646779">
<time>2016-10-07T01:38:59Z</time></trkpt>
<trkpt lat="25.026208" lon="102.64634">
<time>2016-10-07T01:39:00Z</time></trkpt>
<trkpt lat="25.025939" lon="102.645881">
<time>2016-10-07T01:39:01Z</time></trkpt>
<trkpt lat="25.025919" lon="102.645841">
<time>2016-10-07T01:39:02Z</time></trkpt>
<trkpt lat="25.02554" lon="102.645193">
<time>2016-10-07T01:39:03Z</time></trkpt>
<trkpt lat="25.024683" lon="102.643706">
<time>2016-10-07T01:39:04Z</time></trkpt>
<trkpt lat="25.024603" lon="102.643576">
<time>2016-10-07T01:39:05Z</time></trkpt>
<trkpt lat="25.024603" lon="102.643576">
<time>2016-10-07T01:39:06Z</time></trkpt>
<trkpt lat="25.024623" lon="102.643496">
<time>2016-10-07T01:39:07Z</time></trkpt>
<trkpt lat="25.024643" lon="102.643406">
<time>2016-10-07T01:39:08Z</time></trkpt>
<trkpt lat="25.024643" lon="102.643406">
<time>2016-10-07T01:39:09Z</time></trkpt>
<trkpt lat="25.0222" lon="102.639195">
<time>2016-10-07T01:39:10Z</time></trkpt>
<trkpt lat="25.021562" lon="102.638078">
<time>2016-10-07T01:39:11Z</time></trkpt>
<trkpt lat="25.021213" lon="102.637469">
<time>2016-10-07T01:39:12Z</time></trkpt>
<trkpt lat="25.021003" lon="102.63712">
<time>2016-10-07T01:39:13Z</time></trkpt>
<trkpt lat="25.020774" lon="102.63672">
<time>2016-10-07T01:39:14Z</time></trkpt>
<trkpt lat="25.020076" lon="102.635513">
<time>2016-10-07T01:39:15Z</time></trkpt>
<trkpt lat="25.020046" lon="102.635463">
<time>2016-10-07T01:39:16Z</time></trkpt>
<trkpt lat="25.019427" lon="102.634395">
<time>2016-10-07T01:39:17Z</time></trkpt>
<trkpt lat="25.019318" lon="102.634205">
<time>2016-10-07T01:39:18Z</time></trkpt>
<trkpt lat="25.019258" lon="102.634115">
<time>2016-10-07T01:39:19Z</time></trkpt>
<trkpt lat="25.019088" lon="102.633836">
<time>2016-10-07T01:39:20Z</time></trkpt>
<trkpt lat="25.018919" lon="102.633576">
<time>2016-10-07T01:39:21Z</time></trkpt>
<trkpt lat="25.018739" lon="102.633337">
<time>2016-10-07T01:39:22Z</time></trkpt>
<trkpt lat="25.018599" lon="102.633147">
<time>2016-10-07T01:39:23Z</time></trkpt>
<trkpt lat="25.018459" lon="102.632978">
<time>2016-10-07T01:39:24Z</time></trkpt>
<trkpt lat="25.01833" lon="102.632818">
<time>2016-10-07T01:39:25Z</time></trkpt>
<trkpt lat="25.01818" lon="102.632668">
<time>2016-10-07T01:39:26Z</time></trkpt>
<trkpt lat="25.018" lon="102.632488">
<time>2016-10-07T01:39:27Z</time></trkpt>
<trkpt lat="25.01782" lon="102.632309">
<time>2016-10-07T01:39:28Z</time></trkpt>
<trkpt lat="25.017641" lon="102.632159">
<time>2016-10-07T01:39:29Z</time></trkpt>
<trkpt lat="25.017461" lon="102.632009">
<time>2016-10-07T01:39:30Z</time></trkpt>
<trkpt lat="25.017301" lon="102.63189">
<time>2016-10-07T01:39:31Z</time></trkpt>
<trkpt lat="25.017011" lon="102.63166">
<time>2016-10-07T01:39:32Z</time></trkpt>
<trkpt lat="25.016772" lon="102.6315">
<time>2016-10-07T01:39:33Z</time></trkpt>
<trkpt lat="25.016562" lon="102.631371">
<time>2016-10-07T01:39:34Z</time></trkpt>
<trkpt lat="25.016052" lon="102.631081">
<time>2016-10-07T01:39:35Z</time></trkpt>
<trkpt lat="25.015383" lon="102.630712">
<time>2016-10-07T01:39:36Z</time></trkpt>
<trkpt lat="25.014843" lon="102.630412">
<time>2016-10-07T01:39:37Z</time></trkpt>
<trkpt lat="25.014304" lon="102.630123">
<time>2016-10-07T01:39:38Z</time></trkpt>
<trkpt lat="25.013714" lon="102.629803">
<time>2016-10-07T01:39:39Z</time></trkpt>
<trkpt lat="25.013145" lon="102.629484">
<time>2016-10-07T01:39:40Z</time></trkpt>
<trkpt lat="25.012235" lon="102.628995">
<time>2016-10-07T01:39:41Z</time></trkpt>
<trkpt lat="25.011876" lon="102.628795">
<time>2016-10-07T01:39:42Z</time></trkpt>
<trkpt lat="25.010307" lon="102.627937">
<time>2016-10-07T01:39:43Z</time></trkpt>
<trkpt lat="25.009617" lon="102.627587">
<time>2016-10-07T01:39:44Z</time></trkpt>
<trkpt lat="25.009158" lon="102.627358">
<time>2016-10-07T01:39:45Z</time></trkpt>
<trkpt lat="25.008298" lon="102.627008">
<time>2016-10-07T01:39:46Z</time></trkpt>
<trkpt lat="25.007589" lon="102.626759">
<time>2016-10-07T01:39:47Z</time></trkpt>
<trkpt lat="25.006979" lon="102.626559">
<time>2016-10-07T01:39:48Z</time></trkpt>
<trkpt lat="25.00434" lon="102.62583">
<time>2016-10-07T01:39:49Z</time></trkpt>
<trkpt lat="25.003041" lon="102.625481">
<time>2016-10-07T01:39:50Z</time></trkpt>
<trkpt lat="25.002891" lon="102.625431">
<time>2016-10-07T01:39:51Z</time></trkpt>
<trkpt lat="25.002261" lon="102.625271">
<time>2016-10-07T01:39:52Z</time></trkpt>
<trkpt lat="25.001571" lon="102.625082">
<time>2016-10-07T01:39:53Z</time></trkpt>
<trkpt lat="25.001322" lon="102.625012">
<time>2016-10-07T01:39:54Z</time></trkpt>
<trkpt lat="25.000682" lon="102.624842">
<time>2016-10-07T01:39:55Z</time></trkpt>
<trkpt lat="25.000642" lon="102.624832">
<time>2016-10-07T01:39:56Z</time></trkpt>
<trkpt lat="25.000552" lon="102.624802">
<time>2016-10-07T01:39:57Z</time></trkpt>
<trkpt lat="25.000172" lon="102.624692">
<time>2016-10-07T01:39:58Z</time></trkpt>
<trkpt lat="25.000142" lon="102.624692">
<time>2016-10-07T01:39:59Z</time></trkpt>
<trkpt lat="25.000012" lon="102.624652">
<time>2016-10-07T01:40:00Z</time></trkpt>
<trkpt lat="24.999762" lon="102.624582">
<time>2016-10-07T01:40:01Z</time></trkpt>
<trkpt lat="24.999542" lon="102.624493">
<time>2016-10-07T01:40:02Z</time></trkpt>
<trkpt lat="24.999193" lon="102.624343">
<time>2016-10-07T01:40:03Z</time></trkpt>
<trkpt lat="24.998993" lon="102.624243">
<time>2016-10-07T01:40:04Z</time></trkpt>
<trkpt lat="24.998713" lon="102.624083">
<time>2016-10-07T01:40:05Z</time></trkpt>
<trkpt lat="24.998383" lon="102.623893">
<time>2016-10-07T01:40:06Z</time></trkpt>
<trkpt lat="24.998223" lon="102.623774">
<time>2016-10-07T01:40:07Z</time></trkpt>
<trkpt lat="24.997973" lon="102.623604">
<time>2016-10-07T01:40:08Z</time></trkpt>
<trkpt lat="24.997834" lon="102.623494">
<time>2016-10-07T01:40:09Z</time></trkpt>
<trkpt lat="24.997814" lon="102.623474">
<time>2016-10-07T01:40:10Z</time></trkpt>
<trkpt lat="24.997764" lon="102.623434">
<time>2016-10-07T01:40:11Z</time></trkpt>
<trkpt lat="24.997684" lon="102.623364">
<time>2016-10-07T01:40:12Z</time></trkpt>
<trkpt lat="24.997464" lon="102.623195">
<time>2016-10-07T01:40:13Z</time></trkpt>
<trkpt lat="24.997454" lon="102.623175">
<time>2016-10-07T01:40:14Z</time></trkpt>
<trkpt lat="24.997214" lon="102.622945">
<time>2016-10-07T01:40:15Z</time></trkpt>
<trkpt lat="24.997084" lon="102.622825">
<time>2016-10-07T01:40:16Z</time></trkpt>
<trkpt lat="24.996735" lon="102.622426">
<time>2016-10-07T01:40:17Z</time></trkpt>
<trkpt lat="24.996705" lon="102.622386">
<time>2016-10-07T01:40:18Z</time></trkpt>
<trkpt lat="24.996465" lon="102.622046">
<time>2016-10-07T01:40:19Z</time></trkpt>
<trkpt lat="24.996186" lon="102.621607">
<time>2016-10-07T01:40:20Z</time></trkpt>
<trkpt lat="24.996086" lon="102.621437">
<time>2016-10-07T01:40:21Z</time></trkpt>
<trkpt lat="24.996006" lon="102.621287">
<time>2016-10-07T01:40:22Z</time></trkpt>
<trkpt lat="24.995986" lon="102.621227">
<time>2016-10-07T01:40:23Z</time></trkpt>
<trkpt lat="24.995966" lon="102.621188">
<time>2016-10-07T01:40:24Z</time></trkpt>
<trkpt lat="24.995956" lon="102.621168">
<time>2016-10-07T01:40:25Z</time></trkpt>
<trkpt lat="24.995916" lon="102.621058">
<time>2016-10-07T01:40:26Z</time></trkpt>
<trkpt lat="24.995847" lon="102.620848">
<time>2016-10-07T01:40:27Z</time></trkpt>
<trkpt lat="24.995767" lon="102.620588">
<time>2016-10-07T01:40:28Z</time></trkpt>
<trkpt lat="24.995717" lon="102.620369">
<time>2016-10-07T01:40:29Z</time></trkpt>
<trkpt lat="24.995677" lon="102.620169">
<time>2016-10-07T01:40:30Z</time></trkpt>
<trkpt lat="24.995647" lon="102.619979">
<time>2016-10-07T01:40:31Z</time></trkpt>
<trkpt lat="24.995628" lon="102.619849">
<time>2016-10-07T01:40:32Z</time></trkpt>
<trkpt lat="24.995608" lon="102.61962">
<time>2016-10-07T01:40:33Z</time></trkpt>
<trkpt lat="24.995598" lon="102.61942">
<time>2016-10-07T01:40:34Z</time></trkpt>
<trkpt lat="24.995598" lon="102.61924">
<time>2016-10-07T01:40:35Z</time></trkpt>
<trkpt lat="24.995598" lon="102.61905">
<time>2016-10-07T01:40:36Z</time></trkpt>
<trkpt lat="24.995599" lon="102.618721">
<time>2016-10-07T01:40:37Z</time></trkpt>
<trkpt lat="24.995639" lon="102.617832">
<time>2016-10-07T01:40:38Z</time></trkpt>
<trkpt lat="24.99566" lon="102.617532">
<time>2016-10-07T01:40:39Z</time></trkpt>
<trkpt lat="24.99568" lon="102.617053">
<time>2016-10-07T01:40:40Z</time></trkpt>
<trkpt lat="24.995691" lon="102.616404">
<time>2016-10-07T01:40:41Z</time></trkpt>
<trkpt lat="24.995701" lon="102.616374">
<time>2016-10-07T01:40:42Z</time></trkpt>
<trkpt lat="24.995762" lon="102.614936">
<time>2016-10-07T01:40:43Z</time></trkpt>
<trkpt lat="24.995813" lon="102.613387">
<time>2016-10-07T01:40:44Z</time></trkpt>
<trkpt lat="24.995833" lon="102.612928">
<time>2016-10-07T01:40:45Z</time></trkpt>
<trkpt lat="24.995823" lon="102.612478">
<time>2016-10-07T01:40:46Z</time></trkpt>
<trkpt lat="24.995784" lon="102.612169">
<time>2016-10-07T01:40:47Z</time></trkpt>
<trkpt lat="24.995714" lon="102.611899">
<time>2016-10-07T01:40:48Z</time></trkpt>
<trkpt lat="24.995624" lon="102.611659">
<time>2016-10-07T01:40:49Z</time></trkpt>
<trkpt lat="24.995524" lon="102.611429">
<time>2016-10-07T01:40:50Z</time></trkpt>
<trkpt lat="24.995404" lon="102.61123">
<time>2016-10-07T01:40:51Z</time></trkpt>
<trkpt lat="24.995264" lon="102.61105">
<time>2016-10-07T01:40:52Z</time></trkpt>
<trkpt lat="24.995115" lon="102.61085">
<time>2016-10-07T01:40:53Z</time></trkpt>
<trkpt lat="24.994985" lon="102.61071">
<time>2016-10-07T01:40:54Z</time></trkpt>
<trkpt lat="24.994875" lon="102.61061">
<time>2016-10-07T01:40:55Z</time></trkpt>
<trkpt lat="24.994775" lon="102.61052">
<time>2016-10-07T01:40:56Z</time></trkpt>
<trkpt lat="24.994675" lon="102.61045">
<time>2016-10-07T01:40:57Z</time></trkpt>
<trkpt lat="24.994305" lon="102.610221">
<time>2016-10-07T01:40:58Z</time></trkpt>
<trkpt lat="24.994025" lon="102.610021">
<time>2016-10-07T01:40:59Z</time></trkpt>
<trkpt lat="24.993865" lon="102.609891">
<time>2016-10-07T01:41:00Z</time></trkpt>
<trkpt lat="24.993725" lon="102.609751">
<time>2016-10-07T01:41:01Z</time></trkpt>
<trkpt lat="24.993556" lon="102.609571">
<time>2016-10-07T01:41:02Z</time></trkpt>
<trkpt lat="24.993416" lon="102.609371">
<time>2016-10-07T01:41:03Z</time></trkpt>
<trkpt lat="24.993266" lon="102.609132">
<time>2016-10-07T01:41:04Z</time></trkpt>
<trkpt lat="24.992926" lon="102.608382">
<time>2016-10-07T01:41:05Z</time></trkpt>
<trkpt lat="24.992846" lon="102.608212">
<time>2016-10-07T01:41:06Z</time></trkpt>
<trkpt lat="24.992746" lon="102.608023">
<time>2016-10-07T01:41:07Z</time></trkpt>
<trkpt lat="24.992647" lon="102.607863">
<time>2016-10-07T01:41:08Z</time></trkpt>
<trkpt lat="24.992547" lon="102.607713">
<time>2016-10-07T01:41:09Z</time></trkpt>
<trkpt lat="24.992427" lon="102.607563">
<time>2016-10-07T01:41:10Z</time></trkpt>
<trkpt lat="24.992297" lon="102.607433">
<time>2016-10-07T01:41:11Z</time></trkpt>
<trkpt lat="24.992167" lon="102.607323">
<time>2016-10-07T01:41:12Z</time></trkpt>
<trkpt lat="24.992047" lon="102.607233">
<time>2016-10-07T01:41:13Z</time></trkpt>
<trkpt lat="24.991857" lon="102.607113">
<time>2016-10-07T01:41:14Z</time></trkpt>
<trkpt lat="24.991637" lon="102.606974">
<time>2016-10-07T01:41:15Z</time></trkpt>
<trkpt lat="24.991407" lon="102.606834">
<time>2016-10-07T01:41:16Z</time></trkpt>
<trkpt lat="24.991217" lon="102.606724">
<time>2016-10-07T01:41:17Z</time></trkpt>
<trkpt lat="24.991147" lon="102.606674">
<time>2016-10-07T01:41:18Z</time></trkpt>
<trkpt lat="24.991077" lon="102.606624">
<time>2016-10-07T01:41:19Z</time></trkpt>
<trkpt lat="24.991017" lon="102.606564">
<time>2016-10-07T01:41:20Z</time></trkpt>
<trkpt lat="24.990937" lon="102.606484">
<time>2016-10-07T01:41:21Z</time></trkpt>
<trkpt lat="24.990578" lon="102.606044">
<time>2016-10-07T01:41:22Z</time></trkpt>
<trkpt lat="24.990518" lon="102.605964">
<time>2016-10-07T01:41:23Z</time></trkpt>
<trkpt lat="24.990288" lon="102.605665">
<time>2016-10-07T01:41:24Z</time></trkpt>
<trkpt lat="24.990258" lon="102.605615">
<time>2016-10-07T01:41:25Z</time></trkpt>
<trkpt lat="24.989608" lon="102.604665">
<time>2016-10-07T01:41:26Z</time></trkpt>
<trkpt lat="24.989328" lon="102.604256">
<time>2016-10-07T01:41:27Z</time></trkpt>
<trkpt lat="24.988849" lon="102.603546">
<time>2016-10-07T01:41:28Z</time></trkpt>
<trkpt lat="24.988359" lon="102.602867">
<time>2016-10-07T01:41:29Z</time></trkpt>
<trkpt lat="24.988179" lon="102.602657">
<time>2016-10-07T01:41:30Z</time></trkpt>
<trkpt lat="24.987979" lon="102.602457">
<time>2016-10-07T01:41:31Z</time></trkpt>
<trkpt lat="24.987729" lon="102.602237">
<time>2016-10-07T01:41:32Z</time></trkpt>
<trkpt lat="24.987489" lon="102.602067">
<time>2016-10-07T01:41:33Z</time></trkpt>
<trkpt lat="24.987289" lon="102.601937">
<time>2016-10-07T01:41:34Z</time></trkpt>
<trkpt lat="24.986799" lon="102.601697">
<time>2016-10-07T01:41:35Z</time></trkpt>
<trkpt lat="24.98615" lon="102.601367">
<time>2016-10-07T01:41:36Z</time></trkpt>
<trkpt lat="24.98482" lon="102.600688">
<time>2016-10-07T01:41:37Z</time></trkpt>
<trkpt lat="24.98407" lon="102.600318">
<time>2016-10-07T01:41:38Z</time></trkpt>
<trkpt lat="24.98363" lon="102.600068">
<time>2016-10-07T01:41:39Z</time></trkpt>
<trkpt lat="24.98302" lon="102.599818">
<time>2016-10-07T01:41:40Z</time></trkpt>
<trkpt lat="24.98249" lon="102.599578">
<time>2016-10-07T01:41:41Z</time></trkpt>
<trkpt lat="24.98197" lon="102.599439">
<time>2016-10-07T01:41:42Z</time></trkpt>
<trkpt lat="24.981441" lon="102.599309">
<time>2016-10-07T01:41:43Z</time></trkpt>
<trkpt lat="24.981391" lon="102.599299">
<time>2016-10-07T01:41:44Z</time></trkpt>
<trkpt lat="24.980671" lon="102.599239">
<time>2016-10-07T01:41:45Z</time></trkpt>
<trkpt lat="24.979741" lon="102.599169">
<time>2016-10-07T01:41:46Z</time></trkpt>
<trkpt lat="24.979221" lon="102.599069">
<time>2016-10-07T01:41:47Z</time></trkpt>
<trkpt lat="24.979101" lon="102.599039">
<time>2016-10-07T01:41:48Z</time></trkpt>
<trkpt lat="24.978951" lon="102.599009">
<time>2016-10-07T01:41:49Z</time></trkpt>
<trkpt lat="24.978611" lon="102.598909">
<time>2016-10-07T01:41:50Z</time></trkpt>
<trkpt lat="24.978531" lon="102.598879">
<time>2016-10-07T01:41:51Z</time></trkpt>
<trkpt lat="24.978271" lon="102.598779">
<time>2016-10-07T01:41:52Z</time></trkpt>
<trkpt lat="24.977921" lon="102.598639">
<time>2016-10-07T01:41:53Z</time></trkpt>
<trkpt lat="24.977841" lon="102.598609">
<time>2016-10-07T01:41:54Z</time></trkpt>
<trkpt lat="24.977201" lon="102.598379">
<time>2016-10-07T01:41:55Z</time></trkpt>
<trkpt lat="24.976121" lon="102.597989">
<time>2016-10-07T01:41:56Z</time></trkpt>
<trkpt lat="24.975521" lon="102.597769">
<time>2016-10-07T01:41:57Z</time></trkpt>
<trkpt lat="24.974492" lon="102.59739">
<time>2016-10-07T01:41:58Z</time></trkpt>
<trkpt lat="24.974132" lon="102.59723">
<time>2016-10-07T01:41:59Z</time></trkpt>
<trkpt lat="24.973982" lon="102.59716">
<time>2016-10-07T01:42:00Z</time></trkpt>
<trkpt lat="24.973972" lon="102.59716">
<time>2016-10-07T01:42:01Z</time></trkpt>
<trkpt lat="24.973562" lon="102.59696">
<time>2016-10-07T01:42:02Z</time></trkpt>
<trkpt lat="24.973012" lon="102.59667">
<time>2016-10-07T01:42:03Z</time></trkpt>
<trkpt lat="24.972632" lon="102.59643">
<time>2016-10-07T01:42:04Z</time></trkpt>
<trkpt lat="24.971712" lon="102.59591">
<time>2016-10-07T01:42:05Z</time></trkpt>
<trkpt lat="24.970822" lon="102.59542">
<time>2016-10-07T01:42:06Z</time></trkpt>
<trkpt lat="24.970372" lon="102.59516">
<time>2016-10-07T01:42:07Z</time></trkpt>
<trkpt lat="24.969912" lon="102.5949">
<time>2016-10-07T01:42:08Z</time></trkpt>
<trkpt lat="24.969902" lon="102.59489">
<time>2016-10-07T01:42:09Z</time></trkpt>
<trkpt lat="24.969632" lon="102.59474">
<time>2016-10-07T01:42:10Z</time></trkpt>
<trkpt lat="24.968892" lon="102.59433">
<time>2016-10-07T01:42:11Z</time></trkpt>
<trkpt lat="24.968622" lon="102.594181">
<time>2016-10-07T01:42:12Z</time></trkpt>
<trkpt lat="24.968552" lon="102.594141">
<time>2016-10-07T01:42:13Z</time></trkpt>
<trkpt lat="24.967402" lon="102.593501">
<time>2016-10-07T01:42:14Z</time></trkpt>
<trkpt lat="24.967302" lon="102.593441">
<time>2016-10-07T01:42:15Z</time></trkpt>
<trkpt lat="24.966772" lon="102.593131">
<time>2016-10-07T01:42:16Z</time></trkpt>
<trkpt lat="24.966052" lon="102.592721">
<time>2016-10-07T01:42:17Z</time></trkpt>
<trkpt lat="24.966032" lon="102.592711">
<time>2016-10-07T01:42:18Z</time></trkpt>
<trkpt lat="24.965292" lon="102.592301">
<time>2016-10-07T01:42:19Z</time></trkpt>
<trkpt lat="24.965202" lon="102.592251">
<time>2016-10-07T01:42:20Z</time></trkpt>
<trkpt lat="24.964872" lon="102.592061">
<time>2016-10-07T01:42:21Z</time></trkpt>
<trkpt lat="24.964612" lon="102.591941">
<time>2016-10-07T01:42:22Z</time></trkpt>
<trkpt lat="24.964552" lon="102.591911">
<time>2016-10-07T01:42:23Z</time></trkpt>
<trkpt lat="24.964162" lon="102.591771">
<time>2016-10-07T01:42:24Z</time></trkpt>
<trkpt lat="24.963742" lon="102.591631">
<time>2016-10-07T01:42:25Z</time></trkpt>
<trkpt lat="24.963252" lon="102.591501">
<time>2016-10-07T01:42:26Z</time></trkpt>
<trkpt lat="24.962813" lon="102.591381">
<time>2016-10-07T01:42:27Z</time></trkpt>
<trkpt lat="24.962193" lon="102.591241">
<time>2016-10-07T01:42:28Z</time></trkpt>
<trkpt lat="24.961733" lon="102.591161">
<time>2016-10-07T01:42:29Z</time></trkpt>
<trkpt lat="24.960613" lon="102.590951">
<time>2016-10-07T01:42:30Z</time></trkpt>
<trkpt lat="24.959983" lon="102.590791">
<time>2016-10-07T01:42:31Z</time></trkpt>
<trkpt lat="24.959863" lon="102.590761">
<time>2016-10-07T01:42:32Z</time></trkpt>
<trkpt lat="24.959583" lon="102.590661">
<time>2016-10-07T01:42:33Z</time></trkpt>
<trkpt lat="24.959443" lon="102.590601">
<time>2016-10-07T01:42:34Z</time></trkpt>
<trkpt lat="24.959353" lon="102.590571">
<time>2016-10-07T01:42:35Z</time></trkpt>
<trkpt lat="24.959243" lon="102.590521">
<time>2016-10-07T01:42:36Z</time></trkpt>
<trkpt lat="24.959143" lon="102.590481">
<time>2016-10-07T01:42:37Z</time></trkpt>
<trkpt lat="24.958863" lon="102.590321">
<time>2016-10-07T01:42:38Z</time></trkpt>
<trkpt lat="24.958753" lon="102.590251">
<time>2016-10-07T01:42:39Z</time></trkpt>
<trkpt lat="24.958293" lon="102.590021">
<time>2016-10-07T01:42:40Z</time></trkpt>
<trkpt lat="24.957843" lon="102.589821">
<time>2016-10-07T01:42:41Z</time></trkpt>
<trkpt lat="24.957753" lon="102.589781">
<time>2016-10-07T01:42:42Z</time></trkpt>
<trkpt lat="24.957263" lon="102.589611">
<time>2016-10-07T01:42:43Z</time></trkpt>
<trkpt lat="24.956483" lon="102.589371">
<time>2016-10-07T01:42:44Z</time></trkpt>
<trkpt lat="24.955723" lon="102.589141">
<time>2016-10-07T01:42:45Z</time></trkpt>
<trkpt lat="24.955033" lon="102.588901">
<time>2016-10-07T01:42:46Z</time></trkpt>
<trkpt lat="24.954563" lon="102.588701">
<time>2016-10-07T01:42:47Z</time></trkpt>
<trkpt lat="24.954443" lon="102.588631">
<time>2016-10-07T01:42:48Z</time></trkpt>
<trkpt lat="24.954343" lon="102.588561">
<time>2016-10-07T01:42:49Z</time></trkpt>
<trkpt lat="24.954233" lon="102.588481">
<time>2016-10-07T01:42:50Z</time></trkpt>
<trkpt lat="24.954103" lon="102.588361">
<time>2016-10-07T01:42:51Z</time></trkpt>
<trkpt lat="24.954043" lon="102.588291">
<time>2016-10-07T01:42:52Z</time></trkpt>
<trkpt lat="24.953993" lon="102.588231">
<time>2016-10-07T01:42:53Z</time></trkpt>
<trkpt lat="24.953943" lon="102.588151">
<time>2016-10-07T01:42:54Z</time></trkpt>
<trkpt lat="24.953893" lon="102.588071">
<time>2016-10-07T01:42:55Z</time></trkpt>
<trkpt lat="24.953833" lon="102.587981">
<time>2016-10-07T01:42:56Z</time></trkpt>
<trkpt lat="24.953793" lon="102.587911">
<time>2016-10-07T01:42:57Z</time></trkpt>
<trkpt lat="24.953753" lon="102.587811">
<time>2016-10-07T01:42:58Z</time></trkpt>
<trkpt lat="24.953703" lon="102.587701">
<time>2016-10-07T01:42:59Z</time></trkpt>
<trkpt lat="24.953672" lon="102.587611">
<time>2016-10-07T01:43:00Z</time></trkpt>
<trkpt lat="24.953642" lon="102.587531">
<time>2016-10-07T01:43:01Z</time></trkpt>
<trkpt lat="24.953612" lon="102.587451">
<time>2016-10-07T01:43:02Z</time></trkpt>
<trkpt lat="24.953592" lon="102.587341">
<time>2016-10-07T01:43:03Z</time></trkpt>
<trkpt lat="24.953572" lon="102.587151">
<time>2016-10-07T01:43:04Z</time></trkpt>
<trkpt lat="24.953572" lon="102.586991">
<time>2016-10-07T01:43:05Z</time></trkpt>
<trkpt lat="24.953572" lon="102.586801">
<time>2016-10-07T01:43:06Z</time></trkpt>
<trkpt lat="24.953592" lon="102.586641">
<time>2016-10-07T01:43:07Z</time></trkpt>
<trkpt lat="24.953622" lon="102.586451">
<time>2016-10-07T01:43:08Z</time></trkpt>
<trkpt lat="24.953662" lon="102.586291">
<time>2016-10-07T01:43:09Z</time></trkpt>
<trkpt lat="24.953752" lon="102.586021">
<time>2016-10-07T01:43:10Z</time></trkpt>
<trkpt lat="24.954051" lon="102.58524">
<time>2016-10-07T01:43:11Z</time></trkpt>
<trkpt lat="24.954131" lon="102.58502">
<time>2016-10-07T01:43:12Z</time></trkpt>
<trkpt lat="24.954461" lon="102.58418">
<time>2016-10-07T01:43:13Z</time></trkpt>
<trkpt lat="24.954621" lon="102.58377">
<time>2016-10-07T01:43:14Z</time></trkpt>
<trkpt lat="24.95495" lon="102.58292">
<time>2016-10-07T01:43:15Z</time></trkpt>
<trkpt lat="24.95502" lon="102.58275">
<time>2016-10-07T01:43:16Z</time></trkpt>
<trkpt lat="24.955319" lon="102.582009">
<time>2016-10-07T01:43:17Z</time></trkpt>
<trkpt lat="24.955389" lon="102.581829">
<time>2016-10-07T01:43:18Z</time></trkpt>
<trkpt lat="24.955409" lon="102.581789">
<time>2016-10-07T01:43:19Z</time></trkpt>
<trkpt lat="24.955679" lon="102.581159">
<time>2016-10-07T01:43:20Z</time></trkpt>
<trkpt lat="24.955978" lon="102.580539">
<time>2016-10-07T01:43:21Z</time></trkpt>
<trkpt lat="24.956178" lon="102.580178">
<time>2016-10-07T01:43:22Z</time></trkpt>
<trkpt lat="24.956208" lon="102.580118">
<time>2016-10-07T01:43:23Z</time></trkpt>
<trkpt lat="24.956637" lon="102.579228">
<time>2016-10-07T01:43:24Z</time></trkpt>
<trkpt lat="24.957146" lon="102.577997">
<time>2016-10-07T01:43:25Z</time></trkpt>
<trkpt lat="24.957246" lon="102.577747">
<time>2016-10-07T01:43:26Z</time></trkpt>
<trkpt lat="24.957515" lon="102.577106">
<time>2016-10-07T01:43:27Z</time></trkpt>
<trkpt lat="24.957525" lon="102.577076">
<time>2016-10-07T01:43:28Z</time></trkpt>
<trkpt lat="24.957545" lon="102.577046">
<time>2016-10-07T01:43:29Z</time></trkpt>
<trkpt lat="24.957745" lon="102.576556">
<time>2016-10-07T01:43:30Z</time></trkpt>
<trkpt lat="24.957884" lon="102.576206">
<time>2016-10-07T01:43:31Z</time></trkpt>
<trkpt lat="24.957984" lon="102.575976">
<time>2016-10-07T01:43:32Z</time></trkpt>
<trkpt lat="24.958154" lon="102.575615">
<time>2016-10-07T01:43:33Z</time></trkpt>
<trkpt lat="24.958623" lon="102.574424">
<time>2016-10-07T01:43:34Z</time></trkpt>
<trkpt lat="24.958772" lon="102.573934">
<time>2016-10-07T01:43:35Z</time></trkpt>
<trkpt lat="24.958822" lon="102.573644">
<time>2016-10-07T01:43:36Z</time></trkpt>
<trkpt lat="24.958852" lon="102.573434">
<time>2016-10-07T01:43:37Z</time></trkpt>
<trkpt lat="24.958852" lon="102.573354">
<time>2016-10-07T01:43:38Z</time></trkpt>
<trkpt lat="24.958851" lon="102.573083">
<time>2016-10-07T01:43:39Z</time></trkpt>
<trkpt lat="24.958841" lon="102.572903">
<time>2016-10-07T01:43:40Z</time></trkpt>
<trkpt lat="24.958771" lon="102.572523">
<time>2016-10-07T01:43:41Z</time></trkpt>
<trkpt lat="24.95866" lon="102.572132">
<time>2016-10-07T01:43:42Z</time></trkpt>
<trkpt lat="24.9586" lon="102.571982">
<time>2016-10-07T01:43:43Z</time></trkpt>
<trkpt lat="24.95852" lon="102.571762">
<time>2016-10-07T01:43:44Z</time></trkpt>
<trkpt lat="24.95839" lon="102.571472">
<time>2016-10-07T01:43:45Z</time></trkpt>
<trkpt lat="24.958329" lon="102.571342">
<time>2016-10-07T01:43:46Z</time></trkpt>
<trkpt lat="24.958079" lon="102.570881">
<time>2016-10-07T01:43:47Z</time></trkpt>
<trkpt lat="24.957688" lon="102.57012">
<time>2016-10-07T01:43:48Z</time></trkpt>
<trkpt lat="24.957037" lon="102.568869">
<time>2016-10-07T01:43:49Z</time></trkpt>
<trkpt lat="24.956526" lon="102.567948">
<time>2016-10-07T01:43:50Z</time></trkpt>
<trkpt lat="24.956325" lon="102.567578">
<time>2016-10-07T01:43:51Z</time></trkpt>
<trkpt lat="24.956034" lon="102.566997">
<time>2016-10-07T01:43:52Z</time></trkpt>
<trkpt lat="24.955754" lon="102.566466">
<time>2016-10-07T01:43:53Z</time></trkpt>
<trkpt lat="24.954992" lon="102.565005">
<time>2016-10-07T01:43:54Z</time></trkpt>
<trkpt lat="24.954481" lon="102.564123">
<time>2016-10-07T01:43:55Z</time></trkpt>
<trkpt lat="24.95439" lon="102.563963">
<time>2016-10-07T01:43:56Z</time></trkpt>
<trkpt lat="24.95434" lon="102.563883">
<time>2016-10-07T01:43:57Z</time></trkpt>
<trkpt lat="24.95421" lon="102.563663">
<time>2016-10-07T01:43:58Z</time></trkpt>
<trkpt lat="24.95408" lon="102.563473">
<time>2016-10-07T01:43:59Z</time></trkpt>
<trkpt lat="24.953889" lon="102.563222">
<time>2016-10-07T01:44:00Z</time></trkpt>
<trkpt lat="24.953699" lon="102.563042">
<time>2016-10-07T01:44:01Z</time></trkpt>
<trkpt lat="24.953659" lon="102.563012">
<time>2016-10-07T01:44:02Z</time></trkpt>
<trkpt lat="24.953599" lon="102.562952">
<time>2016-10-07T01:44:03Z</time></trkpt>
<trkpt lat="24.953459" lon="102.562832">
<time>2016-10-07T01:44:04Z</time></trkpt>
<trkpt lat="24.953439" lon="102.562812">
<time>2016-10-07T01:44:05Z</time></trkpt>
<trkpt lat="24.953249" lon="102.562641">
<time>2016-10-07T01:44:06Z</time></trkpt>
<trkpt lat="24.953048" lon="102.562481">
<time>2016-10-07T01:44:07Z</time></trkpt>
<trkpt lat="24.952918" lon="102.562371">
<time>2016-10-07T01:44:08Z</time></trkpt>
<trkpt lat="24.952618" lon="102.562111">
<time>2016-10-07T01:44:09Z</time></trkpt>
<trkpt lat="24.952398" lon="102.56189">
<time>2016-10-07T01:44:10Z</time></trkpt>
<trkpt lat="24.952247" lon="102.56168">
<time>2016-10-07T01:44:11Z</time></trkpt>
<trkpt lat="24.952057" lon="102.56142">
<time>2016-10-07T01:44:12Z</time></trkpt>
<trkpt lat="24.951897" lon="102.561149">
<time>2016-10-07T01:44:13Z</time></trkpt>
<trkpt lat="24.951756" lon="102.560869">
<time>2016-10-07T01:44:14Z</time></trkpt>
<trkpt lat="24.951656" lon="102.560629">
<time>2016-10-07T01:44:15Z</time></trkpt>
<trkpt lat="24.951535" lon="102.560258">
<time>2016-10-07T01:44:16Z</time></trkpt>
<trkpt lat="24.951445" lon="102.559928">
<time>2016-10-07T01:44:17Z</time></trkpt>
<trkpt lat="24.951435" lon="102.559867">
<time>2016-10-07T01:44:18Z</time></trkpt>
<trkpt lat="24.951314" lon="102.559357">
<time>2016-10-07T01:44:19Z</time></trkpt>
<trkpt lat="24.951173" lon="102.558896">
<time>2016-10-07T01:44:20Z</time></trkpt>
<trkpt lat="24.951012" lon="102.558345">
<time>2016-10-07T01:44:21Z</time></trkpt>
<trkpt lat="24.950861" lon="102.557854">
<time>2016-10-07T01:44:22Z</time></trkpt>
<trkpt lat="24.950701" lon="102.557464">
<time>2016-10-07T01:44:23Z</time></trkpt>
<trkpt lat="24.95051" lon="102.557133">
<time>2016-10-07T01:44:24Z</time></trkpt>
<trkpt lat="24.95029" lon="102.556823">
<time>2016-10-07T01:44:25Z</time></trkpt>
<trkpt lat="24.950079" lon="102.556552">
<time>2016-10-07T01:44:26Z</time></trkpt>
<trkpt lat="24.949087" lon="102.55516">
<time>2016-10-07T01:44:27Z</time></trkpt>
<trkpt lat="24.948846" lon="102.554819">
<time>2016-10-07T01:44:28Z</time></trkpt>
<trkpt lat="24.948676" lon="102.554529">
<time>2016-10-07T01:44:29Z</time></trkpt>
<trkpt lat="24.948636" lon="102.554459">
<time>2016-10-07T01:44:30Z</time></trkpt>
<trkpt lat="24.948595" lon="102.554378">
<time>2016-10-07T01:44:31Z</time></trkpt>
<trkpt lat="24.948525" lon="102.554148">
<time>2016-10-07T01:44:32Z</time></trkpt>
<trkpt lat="24.948455" lon="102.553888">
<time>2016-10-07T01:44:33Z</time></trkpt>
<trkpt lat="24.948424" lon="102.553727">
<time>2016-10-07T01:44:34Z</time></trkpt>
<trkpt lat="24.948334" lon="102.553307">
<time>2016-10-07T01:44:35Z</time></trkpt>
<trkpt lat="24.948313" lon="102.553186">
<time>2016-10-07T01:44:36Z</time></trkpt>
<trkpt lat="24.948232" lon="102.552625">
<time>2016-10-07T01:44:37Z</time></trkpt>
<trkpt lat="24.948081" lon="102.551844">
<time>2016-10-07T01:44:38Z</time></trkpt>
<trkpt lat="24.94798" lon="102.551303">
<time>2016-10-07T01:44:39Z</time></trkpt>
<trkpt lat="24.947899" lon="102.550752">
<time>2016-10-07T01:44:40Z</time></trkpt>
<trkpt lat="24.947808" lon="102.550331">
<time>2016-10-07T01:44:41Z</time></trkpt>
<trkpt lat="24.947707" lon="102.54995">
<time>2016-10-07T01:44:42Z</time></trkpt>
<trkpt lat="24.947587" lon="102.54968">
<time>2016-10-07T01:44:43Z</time></trkpt>
<trkpt lat="24.947456" lon="102.549449">
<time>2016-10-07T01:44:44Z</time></trkpt>
<trkpt lat="24.947246" lon="102.549149">
<time>2016-10-07T01:44:45Z</time></trkpt>
<trkpt lat="24.946945" lon="102.548768">
<time>2016-10-07T01:44:46Z</time></trkpt>
<trkpt lat="24.946544" lon="102.548327">
<time>2016-10-07T01:44:47Z</time></trkpt>
<trkpt lat="24.946253" lon="102.547996">
<time>2016-10-07T01:44:48Z</time></trkpt>
<trkpt lat="24.946063" lon="102.547776">
<time>2016-10-07T01:44:49Z</time></trkpt>
<trkpt lat="24.945903" lon="102.547606">
<time>2016-10-07T01:44:50Z</time></trkpt>
<trkpt lat="24.945632" lon="102.547325">
<time>2016-10-07T01:44:51Z</time></trkpt>
<trkpt lat="24.945562" lon="102.547255">
<time>2016-10-07T01:44:52Z</time></trkpt>
<trkpt lat="24.94482" lon="102.546423">
<time>2016-10-07T01:44:53Z</time></trkpt>
<trkpt lat="24.944259" lon="102.545812">
<time>2016-10-07T01:44:54Z</time></trkpt>
<trkpt lat="24.943698" lon="102.54515">
<time>2016-10-07T01:44:55Z</time></trkpt>
<trkpt lat="24.943587" lon="102.54502">
<time>2016-10-07T01:44:56Z</time></trkpt>
<trkpt lat="24.943186" lon="102.544519">
<time>2016-10-07T01:44:57Z</time></trkpt>
<trkpt lat="24.942474" lon="102.543256">
<time>2016-10-07T01:44:58Z</time></trkpt>
<trkpt lat="24.942413" lon="102.543136">
<time>2016-10-07T01:44:59Z</time></trkpt>
<trkpt lat="24.942383" lon="102.543066">
<time>2016-10-07T01:45:00Z</time></trkpt>
<trkpt lat="24.942363" lon="102.543016">
<time>2016-10-07T01:45:01Z</time></trkpt>
<trkpt lat="24.942263" lon="102.542745">
<time>2016-10-07T01:45:02Z</time></trkpt>
<trkpt lat="24.942142" lon="102.542374">
<time>2016-10-07T01:45:03Z</time></trkpt>
<trkpt lat="24.942061" lon="102.542084">
<time>2016-10-07T01:45:04Z</time></trkpt>
<trkpt lat="24.942001" lon="102.541843">
<time>2016-10-07T01:45:05Z</time></trkpt>
<trkpt lat="24.94196" lon="102.541633">
<time>2016-10-07T01:45:06Z</time></trkpt>
<trkpt lat="24.94195" lon="102.541603">
<time>2016-10-07T01:45:07Z</time></trkpt>
<trkpt lat="24.941869" lon="102.541041">
<time>2016-10-07T01:45:08Z</time></trkpt>
<trkpt lat="24.941697" lon="102.540119">
<time>2016-10-07T01:45:09Z</time></trkpt>
<trkpt lat="24.941596" lon="102.539708">
<time>2016-10-07T01:45:10Z</time></trkpt>
<trkpt lat="24.941535" lon="102.539498">
<time>2016-10-07T01:45:11Z</time></trkpt>
<trkpt lat="24.941495" lon="102.539377">
<time>2016-10-07T01:45:12Z</time></trkpt>
<trkpt lat="24.941435" lon="102.539237">
<time>2016-10-07T01:45:13Z</time></trkpt>
<trkpt lat="24.941224" lon="102.538806">
<time>2016-10-07T01:45:14Z</time></trkpt>
<trkpt lat="24.940862" lon="102.538004">
<time>2016-10-07T01:45:15Z</time></trkpt>
<trkpt lat="24.940731" lon="102.537764">
<time>2016-10-07T01:45:16Z</time></trkpt>
<trkpt lat="24.940289" lon="102.536892">
<time>2016-10-07T01:45:17Z</time></trkpt>
<trkpt lat="24.939857" lon="102.536039">
<time>2016-10-07T01:45:18Z</time></trkpt>
<trkpt lat="24.939606" lon="102.535558">
<time>2016-10-07T01:45:19Z</time></trkpt>
<trkpt lat="24.939315" lon="102.534997">
<time>2016-10-07T01:45:20Z</time></trkpt>
<trkpt lat="24.938963" lon="102.534315">
<time>2016-10-07T01:45:21Z</time></trkpt>
<trkpt lat="24.938802" lon="102.533994">
<time>2016-10-07T01:45:22Z</time></trkpt>
<trkpt lat="24.93836" lon="102.533092">
<time>2016-10-07T01:45:23Z</time></trkpt>
<trkpt lat="24.938109" lon="102.532651">
<time>2016-10-07T01:45:24Z</time></trkpt>
<trkpt lat="24.937978" lon="102.53242">
<time>2016-10-07T01:45:25Z</time></trkpt>
<trkpt lat="24.937827" lon="102.532109">
<time>2016-10-07T01:45:26Z</time></trkpt>
<trkpt lat="24.937657" lon="102.531769">
<time>2016-10-07T01:45:27Z</time></trkpt>
<trkpt lat="24.937455" lon="102.531227">
<time>2016-10-07T01:45:28Z</time></trkpt>
<trkpt lat="24.937334" lon="102.530756">
<time>2016-10-07T01:45:29Z</time></trkpt>
<trkpt lat="24.937242" lon="102.530094">
<time>2016-10-07T01:45:30Z</time></trkpt>
<trkpt lat="24.937271" lon="102.529613">
<time>2016-10-07T01:45:31Z</time></trkpt>
<trkpt lat="24.93731" lon="102.529312">
<time>2016-10-07T01:45:32Z</time></trkpt>
<trkpt lat="24.93733" lon="102.529212">
<time>2016-10-07T01:45:33Z</time></trkpt>
<trkpt lat="24.937389" lon="102.528961">
<time>2016-10-07T01:45:34Z</time></trkpt>
<trkpt lat="24.937409" lon="102.528851">
<time>2016-10-07T01:45:35Z</time></trkpt>
<trkpt lat="24.937508" lon="102.52857">
<time>2016-10-07T01:45:36Z</time></trkpt>
<trkpt lat="24.937687" lon="102.528189">
<time>2016-10-07T01:45:37Z</time></trkpt>
<trkpt lat="24.937797" lon="102.527988">
<time>2016-10-07T01:45:38Z</time></trkpt>
<trkpt lat="24.937847" lon="102.527908">
<time>2016-10-07T01:45:39Z</time></trkpt>
<trkpt lat="24.938046" lon="102.527617">
<time>2016-10-07T01:45:40Z</time></trkpt>
<trkpt lat="24.938175" lon="102.527447">
<time>2016-10-07T01:45:41Z</time></trkpt>
<trkpt lat="24.938345" lon="102.527267">
<time>2016-10-07T01:45:42Z</time></trkpt>
<trkpt lat="24.939052" lon="102.526314">
<time>2016-10-07T01:45:43Z</time></trkpt>
<trkpt lat="24.939112" lon="102.526204">
<time>2016-10-07T01:45:44Z</time></trkpt>
<trkpt lat="24.939122" lon="102.526194">
<time>2016-10-07T01:45:45Z</time></trkpt>
<trkpt lat="24.939301" lon="102.525883">
<time>2016-10-07T01:45:46Z</time></trkpt>
<trkpt lat="24.93946" lon="102.525542">
<time>2016-10-07T01:45:47Z</time></trkpt>
<trkpt lat="24.939569" lon="102.525231">
<time>2016-10-07T01:45:48Z</time></trkpt>
<trkpt lat="24.939638" lon="102.52494">
<time>2016-10-07T01:45:49Z</time></trkpt>
<trkpt lat="24.939717" lon="102.524559">
<time>2016-10-07T01:45:50Z</time></trkpt>
<trkpt lat="24.939776" lon="102.524138">
<time>2016-10-07T01:45:51Z</time></trkpt>
<trkpt lat="24.939825" lon="102.523656">
<time>2016-10-07T01:45:52Z</time></trkpt>
<trkpt lat="24.939824" lon="102.523436">
<time>2016-10-07T01:45:53Z</time></trkpt>
<trkpt lat="24.939813" lon="102.523105">
<time>2016-10-07T01:45:54Z</time></trkpt>
<trkpt lat="24.939803" lon="102.522954">
<time>2016-10-07T01:45:55Z</time></trkpt>
<trkpt lat="24.939752" lon="102.522634">
<time>2016-10-07T01:45:56Z</time></trkpt>
<trkpt lat="24.939681" lon="102.522333">
<time>2016-10-07T01:45:57Z</time></trkpt>
<trkpt lat="24.93952" lon="102.521871">
<time>2016-10-07T01:45:58Z</time></trkpt>
<trkpt lat="24.939399" lon="102.52158">
<time>2016-10-07T01:45:59Z</time></trkpt>
<trkpt lat="24.939288" lon="102.52136">
<time>2016-10-07T01:46:00Z</time></trkpt>
<trkpt lat="24.939278" lon="102.52134">
<time>2016-10-07T01:46:01Z</time></trkpt>
<trkpt lat="24.939198" lon="102.521199">
<time>2016-10-07T01:46:02Z</time></trkpt>
<trkpt lat="24.939047" lon="102.520939">
<time>2016-10-07T01:46:03Z</time></trkpt>
<trkpt lat="24.938756" lon="102.520538">
<time>2016-10-07T01:46:04Z</time></trkpt>
<trkpt lat="24.938515" lon="102.520257">
<time>2016-10-07T01:46:05Z</time></trkpt>
<trkpt lat="24.938375" lon="102.520116">
<time>2016-10-07T01:46:06Z</time></trkpt>
<trkpt lat="24.938215" lon="102.519976">
<time>2016-10-07T01:46:07Z</time></trkpt>
<trkpt lat="24.937894" lon="102.519705">
<time>2016-10-07T01:46:08Z</time></trkpt>
<trkpt lat="24.937172" lon="102.519143">
<time>2016-10-07T01:46:09Z</time></trkpt>
<trkpt lat="24.936681" lon="102.518772">
<time>2016-10-07T01:46:10Z</time></trkpt>
<trkpt lat="24.936291" lon="102.518451">
<time>2016-10-07T01:46:11Z</time></trkpt>
<trkpt lat="24.936" lon="102.518221">
<time>2016-10-07T01:46:12Z</time></trkpt>
<trkpt lat="24.93579" lon="102.51805">
<time>2016-10-07T01:46:13Z</time></trkpt>
<trkpt lat="24.935489" lon="102.51783">
<time>2016-10-07T01:46:14Z</time></trkpt>
<trkpt lat="24.935168" lon="102.517539">
<time>2016-10-07T01:46:15Z</time></trkpt>
<trkpt lat="24.934978" lon="102.517378">
<time>2016-10-07T01:46:16Z</time></trkpt>
<trkpt lat="24.934837" lon="102.517238">
<time>2016-10-07T01:46:17Z</time></trkpt>
<trkpt lat="24.934737" lon="102.517118">
<time>2016-10-07T01:46:18Z</time></trkpt>
<trkpt lat="24.934406" lon="102.516726">
<time>2016-10-07T01:46:19Z</time></trkpt>
<trkpt lat="24.934054" lon="102.516205">
<time>2016-10-07T01:46:20Z</time></trkpt>
<trkpt lat="24.933854" lon="102.515914">
<time>2016-10-07T01:46:21Z</time></trkpt>
<trkpt lat="24.933613" lon="102.515543">
<time>2016-10-07T01:46:22Z</time></trkpt>
<trkpt lat="24.93291" lon="102.51447">
<time>2016-10-07T01:46:23Z</time></trkpt>
<trkpt lat="24.932377" lon="102.513707">
<time>2016-10-07T01:46:24Z</time></trkpt>
<trkpt lat="24.931383" lon="102.512223">
<time>2016-10-07T01:46:25Z</time></trkpt>
<trkpt lat="24.930479" lon="102.510849">
<time>2016-10-07T01:46:26Z</time></trkpt>
<trkpt lat="24.930188" lon="102.510357">
<time>2016-10-07T01:46:27Z</time></trkpt>
<trkpt lat="24.929937" lon="102.509916">
<time>2016-10-07T01:46:28Z</time></trkpt>
<trkpt lat="24.929916" lon="102.509876">
<time>2016-10-07T01:46:29Z</time></trkpt>
<trkpt lat="24.929906" lon="102.509836">
<time>2016-10-07T01:46:30Z</time></trkpt>
<trkpt lat="24.929776" lon="102.509575">
<time>2016-10-07T01:46:31Z</time></trkpt>
<trkpt lat="24.929574" lon="102.509103">
<time>2016-10-07T01:46:32Z</time></trkpt>
<trkpt lat="24.929514" lon="102.508943">
<time>2016-10-07T01:46:33Z</time></trkpt>
<trkpt lat="24.929474" lon="102.508853">
<time>2016-10-07T01:46:34Z</time></trkpt>
<trkpt lat="24.929443" lon="102.508732">
<time>2016-10-07T01:46:35Z</time></trkpt>
<trkpt lat="24.929413" lon="102.508652">
<time>2016-10-07T01:46:36Z</time></trkpt>
<trkpt lat="24.929362" lon="102.508482">
<time>2016-10-07T01:46:37Z</time></trkpt>
<trkpt lat="24.929322" lon="102.508271">
<time>2016-10-07T01:46:38Z</time></trkpt>
<trkpt lat="24.929261" lon="102.50805">
<time>2016-10-07T01:46:39Z</time></trkpt>
<trkpt lat="24.92919" lon="102.507759">
<time>2016-10-07T01:46:40Z</time></trkpt>
<trkpt lat="24.929109" lon="102.507398">
<time>2016-10-07T01:46:41Z</time></trkpt>
<trkpt lat="24.929028" lon="102.507057">
<time>2016-10-07T01:46:42Z</time></trkpt>
<trkpt lat="24.928816" lon="102.506144">
<time>2016-10-07T01:46:43Z</time></trkpt>
<trkpt lat="24.928643" lon="102.505362">
<time>2016-10-07T01:46:44Z</time></trkpt>
<trkpt lat="24.928532" lon="102.50487">
<time>2016-10-07T01:46:45Z</time></trkpt>
<trkpt lat="24.9284" lon="102.504299">
<time>2016-10-07T01:46:46Z</time></trkpt>
<trkpt lat="24.92838" lon="102.504188">
<time>2016-10-07T01:46:47Z</time></trkpt>
<trkpt lat="24.928329" lon="102.503968">
<time>2016-10-07T01:46:48Z</time></trkpt>
<trkpt lat="24.928278" lon="102.503737">
<time>2016-10-07T01:46:49Z</time></trkpt>
<trkpt lat="24.928258" lon="102.503657">
<time>2016-10-07T01:46:50Z</time></trkpt>
<trkpt lat="24.928238" lon="102.503556">
<time>2016-10-07T01:46:51Z</time></trkpt>
<trkpt lat="24.928116" lon="102.503045">
<time>2016-10-07T01:46:52Z</time></trkpt>
<trkpt lat="24.928035" lon="102.502653">
<time>2016-10-07T01:46:53Z</time></trkpt>
<trkpt lat="24.927934" lon="102.502172">
<time>2016-10-07T01:46:54Z</time></trkpt>
<trkpt lat="24.927914" lon="102.502092">
<time>2016-10-07T01:46:55Z</time></trkpt>
<trkpt lat="24.927822" lon="102.5016">
<time>2016-10-07T01:46:56Z</time></trkpt>
<trkpt lat="24.927812" lon="102.50154">
<time>2016-10-07T01:46:57Z</time></trkpt>
<trkpt lat="24.927761" lon="102.501159">
<time>2016-10-07T01:46:58Z</time></trkpt>
<trkpt lat="24.92773" lon="102.500838">
<time>2016-10-07T01:46:59Z</time></trkpt>
<trkpt lat="24.927709" lon="102.500517">
<time>2016-10-07T01:47:00Z</time></trkpt>
<trkpt lat="24.927688" lon="102.500236">
<time>2016-10-07T01:47:01Z</time></trkpt>
<trkpt lat="24.927688" lon="102.500095">
<time>2016-10-07T01:47:02Z</time></trkpt>
<trkpt lat="24.927677" lon="102.500025">
<time>2016-10-07T01:47:03Z</time></trkpt>
<trkpt lat="24.927625" lon="102.499233">
<time>2016-10-07T01:47:04Z</time></trkpt>
<trkpt lat="24.927532" lon="102.498149">
<time>2016-10-07T01:47:05Z</time></trkpt>
<trkpt lat="24.92749" lon="102.497658">
<time>2016-10-07T01:47:06Z</time></trkpt>
<trkpt lat="24.927427" lon="102.496665">
<time>2016-10-07T01:47:07Z</time></trkpt>
<trkpt lat="24.927416" lon="102.496364">
<time>2016-10-07T01:47:08Z</time></trkpt>
<trkpt lat="24.927406" lon="102.496203">
<time>2016-10-07T01:47:09Z</time></trkpt>
<trkpt lat="24.927395" lon="102.495932">
<time>2016-10-07T01:47:10Z</time></trkpt>
<trkpt lat="24.927404" lon="102.495712">
<time>2016-10-07T01:47:11Z</time></trkpt>
<trkpt lat="24.927404" lon="102.495491">
<time>2016-10-07T01:47:12Z</time></trkpt>
<trkpt lat="24.927413" lon="102.49518">
<time>2016-10-07T01:47:13Z</time></trkpt>
<trkpt lat="24.927423" lon="102.49508">
<time>2016-10-07T01:47:14Z</time></trkpt>
<trkpt lat="24.927432" lon="102.494969">
<time>2016-10-07T01:47:15Z</time></trkpt>
<trkpt lat="24.927442" lon="102.494889">
<time>2016-10-07T01:47:16Z</time></trkpt>
<trkpt lat="24.927462" lon="102.494819">
<time>2016-10-07T01:47:17Z</time></trkpt>
<trkpt lat="24.927491" lon="102.494688">
<time>2016-10-07T01:47:18Z</time></trkpt>
<trkpt lat="24.927531" lon="102.494548">
<time>2016-10-07T01:47:19Z</time></trkpt>
<trkpt lat="24.92762" lon="102.494277">
<time>2016-10-07T01:47:20Z</time></trkpt>
<trkpt lat="24.92762" lon="102.494267">
<time>2016-10-07T01:47:21Z</time></trkpt>
<trkpt lat="24.927689" lon="102.494066">
<time>2016-10-07T01:47:22Z</time></trkpt>
<trkpt lat="24.927769" lon="102.493886">
<time>2016-10-07T01:47:23Z</time></trkpt>
<trkpt lat="24.927828" lon="102.493725">
<time>2016-10-07T01:47:24Z</time></trkpt>
<trkpt lat="24.927918" lon="102.493545">
<time>2016-10-07T01:47:25Z</time></trkpt>
<trkpt lat="24.928037" lon="102.493314">
<time>2016-10-07T01:47:26Z</time></trkpt>
<trkpt lat="24.928156" lon="102.493083">
<time>2016-10-07T01:47:27Z</time></trkpt>
<trkpt lat="24.928375" lon="102.492542">
<time>2016-10-07T01:47:28Z</time></trkpt>
<trkpt lat="24.928395" lon="102.492502">
<time>2016-10-07T01:47:29Z</time></trkpt>
<trkpt lat="24.928514" lon="102.49216">
<time>2016-10-07T01:47:30Z</time></trkpt>
<trkpt lat="24.928533" lon="102.49211">
<time>2016-10-07T01:47:31Z</time></trkpt>
<trkpt lat="24.928593" lon="102.49193">
<time>2016-10-07T01:47:32Z</time></trkpt>
<trkpt lat="24.928712" lon="102.491649">
<time>2016-10-07T01:47:33Z</time></trkpt>
<trkpt lat="24.928712" lon="102.491639">
<time>2016-10-07T01:47:34Z</time></trkpt>
<trkpt lat="24.928871" lon="102.491288">
<time>2016-10-07T01:47:35Z</time></trkpt>
<trkpt lat="24.92898" lon="102.491037">
<time>2016-10-07T01:47:36Z</time></trkpt>
<trkpt lat="24.929" lon="102.490987">
<time>2016-10-07T01:47:37Z</time></trkpt>
<trkpt lat="24.92909" lon="102.490806">
<time>2016-10-07T01:47:38Z</time></trkpt>
<trkpt lat="24.929179" lon="102.490545">
<time>2016-10-07T01:47:39Z</time></trkpt>
<trkpt lat="24.929258" lon="102.490305">
<time>2016-10-07T01:47:40Z</time></trkpt>
<trkpt lat="24.929337" lon="102.489994">
<time>2016-10-07T01:47:41Z</time></trkpt>
<trkpt lat="24.929406" lon="102.489773">
<time>2016-10-07T01:47:42Z</time></trkpt>
<trkpt lat="24.929436" lon="102.489582">
<time>2016-10-07T01:47:43Z</time></trkpt>
<trkpt lat="24.929446" lon="102.489542">
<time>2016-10-07T01:47:44Z</time></trkpt>
<trkpt lat="24.929465" lon="102.489432">
<time>2016-10-07T01:47:45Z</time></trkpt>
<trkpt lat="24.929573" lon="102.488599">
<time>2016-10-07T01:47:46Z</time></trkpt>
<trkpt lat="24.929563" lon="102.488549">
<time>2016-10-07T01:47:47Z</time></trkpt>
<trkpt lat="24.929582" lon="102.488318">
<time>2016-10-07T01:47:48Z</time></trkpt>
<trkpt lat="24.929758" lon="102.487115">
<time>2016-10-07T01:47:49Z</time></trkpt>
<trkpt lat="24.929905" lon="102.485841">
<time>2016-10-07T01:47:50Z</time></trkpt>
<trkpt lat="24.929983" lon="102.485269">
<time>2016-10-07T01:47:51Z</time></trkpt>
<trkpt lat="24.93011" lon="102.484216">
<time>2016-10-07T01:47:52Z</time></trkpt>
<trkpt lat="24.930169" lon="102.483764">
<time>2016-10-07T01:47:53Z</time></trkpt>
<trkpt lat="24.930266" lon="102.483052">
<time>2016-10-07T01:47:54Z</time></trkpt>
<trkpt lat="24.930276" lon="102.483012">
<time>2016-10-07T01:47:55Z</time></trkpt>
<trkpt lat="24.930286" lon="102.482922">
<time>2016-10-07T01:47:56Z</time></trkpt>
<trkpt lat="24.930316" lon="102.482771">
<time>2016-10-07T01:47:57Z</time></trkpt>
<trkpt lat="24.930335" lon="102.482541">
<time>2016-10-07T01:47:58Z</time></trkpt>
<trkpt lat="24.930354" lon="102.48237">
<time>2016-10-07T01:47:59Z</time></trkpt>
<trkpt lat="24.930414" lon="102.482089">
<time>2016-10-07T01:48:00Z</time></trkpt>
<trkpt lat="24.930463" lon="102.481879">
<time>2016-10-07T01:48:01Z</time></trkpt>
<trkpt lat="24.930532" lon="102.481608">
<time>2016-10-07T01:48:02Z</time></trkpt>
<trkpt lat="24.930582" lon="102.481397">
<time>2016-10-07T01:48:03Z</time></trkpt>
<trkpt lat="24.930651" lon="102.481186">
<time>2016-10-07T01:48:04Z</time></trkpt>
<trkpt lat="24.930711" lon="102.481016">
<time>2016-10-07T01:48:05Z</time></trkpt>
<trkpt lat="24.93076" lon="102.480835">
<time>2016-10-07T01:48:06Z</time></trkpt>
<trkpt lat="24.930909" lon="102.480404">
<time>2016-10-07T01:48:07Z</time></trkpt>
<trkpt lat="24.931048" lon="102.480013">
<time>2016-10-07T01:48:08Z</time></trkpt>
<trkpt lat="24.931117" lon="102.479832">
<time>2016-10-07T01:48:09Z</time></trkpt>
<trkpt lat="24.932409" lon="102.477084">
<time>2016-10-07T01:48:10Z</time></trkpt>
<trkpt lat="24.932588" lon="102.476683">
<time>2016-10-07T01:48:11Z</time></trkpt>
<trkpt lat="24.932677" lon="102.476472">
<time>2016-10-07T01:48:12Z</time></trkpt>
<trkpt lat="24.932747" lon="102.476302">
<time>2016-10-07T01:48:13Z</time></trkpt>
<trkpt lat="24.932816" lon="102.476081">
<time>2016-10-07T01:48:14Z</time></trkpt>
<trkpt lat="24.932935" lon="102.47573">
<time>2016-10-07T01:48:15Z</time></trkpt>
<trkpt lat="24.933014" lon="102.475449">
<time>2016-10-07T01:48:16Z</time></trkpt>
<trkpt lat="24.933103" lon="102.475088">
<time>2016-10-07T01:48:17Z</time></trkpt>
<trkpt lat="24.933153" lon="102.474767">
<time>2016-10-07T01:48:18Z</time></trkpt>
<trkpt lat="24.933192" lon="102.474516">
<time>2016-10-07T01:48:19Z</time></trkpt>
<trkpt lat="24.933211" lon="102.474296">
<time>2016-10-07T01:48:20Z</time></trkpt>
<trkpt lat="24.93324" lon="102.474025">
<time>2016-10-07T01:48:21Z</time></trkpt>
<trkpt lat="24.933239" lon="102.473654">
<time>2016-10-07T01:48:22Z</time></trkpt>
<trkpt lat="24.933228" lon="102.473243">
<time>2016-10-07T01:48:23Z</time></trkpt>
<trkpt lat="24.933218" lon="102.473042">
<time>2016-10-07T01:48:24Z</time></trkpt>
<trkpt lat="24.933207" lon="102.472832">
<time>2016-10-07T01:48:25Z</time></trkpt>
<trkpt lat="24.933166" lon="102.472531">
<time>2016-10-07T01:48:26Z</time></trkpt>
<trkpt lat="24.933136" lon="102.47227">
<time>2016-10-07T01:48:27Z</time></trkpt>
<trkpt lat="24.933064" lon="102.471799">
<time>2016-10-07T01:48:28Z</time></trkpt>
<trkpt lat="24.933003" lon="102.471277">
<time>2016-10-07T01:48:29Z</time></trkpt>
<trkpt lat="24.932972" lon="102.471006">
<time>2016-10-07T01:48:30Z</time></trkpt>
<trkpt lat="24.932971" lon="102.470715">
<time>2016-10-07T01:48:31Z</time></trkpt>
<trkpt lat="24.932971" lon="102.470525">
<time>2016-10-07T01:48:32Z</time></trkpt>
<trkpt lat="24.93298" lon="102.470344">
<time>2016-10-07T01:48:33Z</time></trkpt>
<trkpt lat="24.933" lon="102.470194">
<time>2016-10-07T01:48:34Z</time></trkpt>
<trkpt lat="24.93302" lon="102.470074">
<time>2016-10-07T01:48:35Z</time></trkpt>
<trkpt lat="24.933039" lon="102.469953">
<time>2016-10-07T01:48:36Z</time></trkpt>
<trkpt lat="24.933059" lon="102.469843">
<time>2016-10-07T01:48:37Z</time></trkpt>
<trkpt lat="24.933079" lon="102.469713">
<time>2016-10-07T01:48:38Z</time></trkpt>
<trkpt lat="24.933118" lon="102.469582">
<time>2016-10-07T01:48:39Z</time></trkpt>
<trkpt lat="24.933148" lon="102.469462">
<time>2016-10-07T01:48:40Z</time></trkpt>
<trkpt lat="24.933178" lon="102.469342">
<time>2016-10-07T01:48:41Z</time></trkpt>
<trkpt lat="24.933217" lon="102.469221">
<time>2016-10-07T01:48:42Z</time></trkpt>
<trkpt lat="24.933297" lon="102.469001">
<time>2016-10-07T01:48:43Z</time></trkpt>
<trkpt lat="24.933376" lon="102.46883">
<time>2016-10-07T01:48:44Z</time></trkpt>
<trkpt lat="24.933436" lon="102.46869">
<time>2016-10-07T01:48:45Z</time></trkpt>
<trkpt lat="24.933506" lon="102.468529">
<time>2016-10-07T01:48:46Z</time></trkpt>
<trkpt lat="24.933545" lon="102.468409">
<time>2016-10-07T01:48:47Z</time></trkpt>
<trkpt lat="24.933595" lon="102.468269">
<time>2016-10-07T01:48:48Z</time></trkpt>
<trkpt lat="24.933634" lon="102.468078">
<time>2016-10-07T01:48:49Z</time></trkpt>
<trkpt lat="24.933684" lon="102.467888">
<time>2016-10-07T01:48:50Z</time></trkpt>
<trkpt lat="24.933723" lon="102.467667">
<time>2016-10-07T01:48:51Z</time></trkpt>
<trkpt lat="24.933753" lon="102.467486">
<time>2016-10-07T01:48:52Z</time></trkpt>
<trkpt lat="24.933762" lon="102.467346">
<time>2016-10-07T01:48:53Z</time></trkpt>
<trkpt lat="24.933772" lon="102.467176">
<time>2016-10-07T01:48:54Z</time></trkpt>
<trkpt lat="24.933772" lon="102.467025">
<time>2016-10-07T01:48:55Z</time></trkpt>
<trkpt lat="24.933761" lon="102.466905">
<time>2016-10-07T01:48:56Z</time></trkpt>
<trkpt lat="24.933741" lon="102.466784">
<time>2016-10-07T01:48:57Z</time></trkpt>
<trkpt lat="24.933721" lon="102.466664">
<time>2016-10-07T01:48:58Z</time></trkpt>
<trkpt lat="24.93369" lon="102.466514">
<time>2016-10-07T01:48:59Z</time></trkpt>
<trkpt lat="24.93366" lon="102.466393">
<time>2016-10-07T01:49:00Z</time></trkpt>
<trkpt lat="24.93363" lon="102.466273">
<time>2016-10-07T01:49:01Z</time></trkpt>
<trkpt lat="24.933549" lon="102.466073">
<time>2016-10-07T01:49:02Z</time></trkpt>
<trkpt lat="24.933469" lon="102.465902">
<time>2016-10-07T01:49:03Z</time></trkpt>
<trkpt lat="24.933238" lon="102.465531">
<time>2016-10-07T01:49:04Z</time></trkpt>
<trkpt lat="24.932756" lon="102.464899">
<time>2016-10-07T01:49:05Z</time></trkpt>
<trkpt lat="24.932225" lon="102.464197">
<time>2016-10-07T01:49:06Z</time></trkpt>
<trkpt lat="24.931984" lon="102.463937">
<time>2016-10-07T01:49:07Z</time></trkpt>
<trkpt lat="24.931874" lon="102.463796">
<time>2016-10-07T01:49:08Z</time></trkpt>
<trkpt lat="24.931583" lon="102.463415">
<time>2016-10-07T01:49:09Z</time></trkpt>
<trkpt lat="24.928022" lon="102.458954">
<time>2016-10-07T01:49:10Z</time></trkpt>
<trkpt lat="24.927691" lon="102.458563">
<time>2016-10-07T01:49:11Z</time></trkpt>
<trkpt lat="24.927551" lon="102.458383">
<time>2016-10-07T01:49:12Z</time></trkpt>
<trkpt lat="24.92739" lon="102.458162">
<time>2016-10-07T01:49:13Z</time></trkpt>
<trkpt lat="24.92722" lon="102.457911">
<time>2016-10-07T01:49:14Z</time></trkpt>
<trkpt lat="24.927119" lon="102.457741">
<time>2016-10-07T01:49:15Z</time></trkpt>
<trkpt lat="24.926999" lon="102.45748">
<time>2016-10-07T01:49:16Z</time></trkpt>
<trkpt lat="24.926908" lon="102.45731">
<time>2016-10-07T01:49:17Z</time></trkpt>
<trkpt lat="24.926858" lon="102.45718">
<time>2016-10-07T01:49:18Z</time></trkpt>
<trkpt lat="24.926757" lon="102.456889">
<time>2016-10-07T01:49:19Z</time></trkpt>
<trkpt lat="24.926677" lon="102.456668">
<time>2016-10-07T01:49:20Z</time></trkpt>
<trkpt lat="24.926616" lon="102.456448">
<time>2016-10-07T01:49:21Z</time></trkpt>
<trkpt lat="24.926566" lon="102.456207">
<time>2016-10-07T01:49:22Z</time></trkpt>
<trkpt lat="24.926505" lon="102.455937">
<time>2016-10-07T01:49:23Z</time></trkpt>
<trkpt lat="24.926373" lon="102.454744">
<time>2016-10-07T01:49:24Z</time></trkpt>
<trkpt lat="24.926373" lon="102.454714">
<time>2016-10-07T01:49:25Z</time></trkpt>
<trkpt lat="24.925975" lon="102.451306">
<time>2016-10-07T01:49:26Z</time></trkpt>
<trkpt lat="24.925944" lon="102.450975">
<time>2016-10-07T01:49:27Z</time></trkpt>
<trkpt lat="24.925914" lon="102.450674">
<time>2016-10-07T01:49:28Z</time></trkpt>
<trkpt lat="24.925883" lon="102.450394">
<time>2016-10-07T01:49:29Z</time></trkpt>
<trkpt lat="24.925873" lon="102.450173">
<time>2016-10-07T01:49:30Z</time></trkpt>
<trkpt lat="24.925852" lon="102.449973">
<time>2016-10-07T01:49:31Z</time></trkpt>
<trkpt lat="24.92575" lon="102.44891">
<time>2016-10-07T01:49:32Z</time></trkpt>
<trkpt lat="24.92569" lon="102.4487">
<time>2016-10-07T01:49:33Z</time></trkpt>
<trkpt lat="24.92568" lon="102.44864">
<time>2016-10-07T01:49:34Z</time></trkpt>
<trkpt lat="24.925649" lon="102.448369">
<time>2016-10-07T01:49:35Z</time></trkpt>
<trkpt lat="24.925639" lon="102.448299">
<time>2016-10-07T01:49:36Z</time></trkpt>
<trkpt lat="24.925608" lon="102.448039">
<time>2016-10-07T01:49:37Z</time></trkpt>
<trkpt lat="24.925578" lon="102.447748">
<time>2016-10-07T01:49:38Z</time></trkpt>
<trkpt lat="24.925496" lon="102.447086">
<time>2016-10-07T01:49:39Z</time></trkpt>
<trkpt lat="24.925495" lon="102.446626">
<time>2016-10-07T01:49:40Z</time></trkpt>
<trkpt lat="24.925564" lon="102.446094">
<time>2016-10-07T01:49:41Z</time></trkpt>
<trkpt lat="24.925703" lon="102.445593">
<time>2016-10-07T01:49:42Z</time></trkpt>
<trkpt lat="24.925972" lon="102.444922">
<time>2016-10-07T01:49:43Z</time></trkpt>
<trkpt lat="24.926411" lon="102.444241">
<time>2016-10-07T01:49:44Z</time></trkpt>
<trkpt lat="24.92669" lon="102.44392">
<time>2016-10-07T01:49:45Z</time></trkpt>
<trkpt lat="24.927439" lon="102.443158">
<time>2016-10-07T01:49:46Z</time></trkpt>
<trkpt lat="24.928117" lon="102.442267">
<time>2016-10-07T01:49:47Z</time></trkpt>
<trkpt lat="24.928306" lon="102.441946">
<time>2016-10-07T01:49:48Z</time></trkpt>
<trkpt lat="24.928516" lon="102.441525">
<time>2016-10-07T01:49:49Z</time></trkpt>
<trkpt lat="24.928625" lon="102.441235">
<time>2016-10-07T01:49:50Z</time></trkpt>
<trkpt lat="24.928705" lon="102.440964">
<time>2016-10-07T01:49:51Z</time></trkpt>
<trkpt lat="24.928804" lon="102.440413">
<time>2016-10-07T01:49:52Z</time></trkpt>
<trkpt lat="24.928813" lon="102.440113">
<time>2016-10-07T01:49:53Z</time></trkpt>
<trkpt lat="24.928812" lon="102.439712">
<time>2016-10-07T01:49:54Z</time></trkpt>
<trkpt lat="24.928772" lon="102.439281">
<time>2016-10-07T01:49:55Z</time></trkpt>
<trkpt lat="24.928467" lon="102.436667">
<time>2016-10-07T01:49:56Z</time></trkpt>
<trkpt lat="24.928386" lon="102.435945">
<time>2016-10-07T01:49:57Z</time></trkpt>
<trkpt lat="24.928346" lon="102.435595">
<time>2016-10-07T01:49:58Z</time></trkpt>
<trkpt lat="24.928154" lon="102.434163">
<time>2016-10-07T01:49:59Z</time></trkpt>
<trkpt lat="24.928052" lon="102.4328">
<time>2016-10-07T01:50:00Z</time></trkpt>
<trkpt lat="24.92798" lon="102.431539">
<time>2016-10-07T01:50:01Z</time></trkpt>
<trkpt lat="24.927928" lon="102.430397">
<time>2016-10-07T01:50:02Z</time></trkpt>
<trkpt lat="24.927906" lon="102.428805">
<time>2016-10-07T01:50:03Z</time></trkpt>
<trkpt lat="24.927906" lon="102.428544">
<time>2016-10-07T01:50:04Z</time></trkpt>
<trkpt lat="24.927934" lon="102.427343">
<time>2016-10-07T01:50:05Z</time></trkpt>
<trkpt lat="24.927963" lon="102.426131">
<time>2016-10-07T01:50:06Z</time></trkpt>
<trkpt lat="24.927973" lon="102.425701">
<time>2016-10-07T01:50:07Z</time></trkpt>
<trkpt lat="24.927992" lon="102.42534">
<time>2016-10-07T01:50:08Z</time></trkpt>
<trkpt lat="24.927992" lon="102.42528">
<time>2016-10-07T01:50:09Z</time></trkpt>
<trkpt lat="24.928148" lon="102.421677">
<time>2016-10-07T01:50:10Z</time></trkpt>
<trkpt lat="24.928197" lon="102.420375">
<time>2016-10-07T01:50:11Z</time></trkpt>
<trkpt lat="24.928217" lon="102.419935">
<time>2016-10-07T01:50:12Z</time></trkpt>
<trkpt lat="24.928196" lon="102.419074">
<time>2016-10-07T01:50:13Z</time></trkpt>
<trkpt lat="24.928135" lon="102.417663">
<time>2016-10-07T01:50:14Z</time></trkpt>
<trkpt lat="24.928105" lon="102.417153">
<time>2016-10-07T01:50:15Z</time></trkpt>
<trkpt lat="24.928004" lon="102.415812">
<time>2016-10-07T01:50:16Z</time></trkpt>
<trkpt lat="24.927823" lon="102.41425">
<time>2016-10-07T01:50:17Z</time></trkpt>
<trkpt lat="24.927782" lon="102.41346">
<time>2016-10-07T01:50:18Z</time></trkpt>
<trkpt lat="24.927782" lon="102.41346">
<time>2016-10-07T01:50:19Z</time></trkpt>
<trkpt lat="24.927862" lon="102.41347">
<time>2016-10-07T01:50:20Z</time></trkpt>
<trkpt lat="24.927862" lon="102.41347">
<time>2016-10-07T01:50:21Z</time></trkpt>
<trkpt lat="24.927712" lon="102.41286">
<time>2016-10-07T01:50:22Z</time></trkpt>
<trkpt lat="24.927692" lon="102.41273">
<time>2016-10-07T01:50:23Z</time></trkpt>
<trkpt lat="24.927682" lon="102.412609">
<time>2016-10-07T01:50:24Z</time></trkpt>
<trkpt lat="24.927672" lon="102.412419">
<time>2016-10-07T01:50:25Z</time></trkpt>
<trkpt lat="24.927662" lon="102.412269">
<time>2016-10-07T01:50:26Z</time></trkpt>
<trkpt lat="24.927661" lon="102.412129">
<time>2016-10-07T01:50:27Z</time></trkpt>
<trkpt lat="24.927671" lon="102.411929">
<time>2016-10-07T01:50:28Z</time></trkpt>
<trkpt lat="24.927681" lon="102.411749">
<time>2016-10-07T01:50:29Z</time></trkpt>
<trkpt lat="24.927691" lon="102.411639">
<time>2016-10-07T01:50:30Z</time></trkpt>
<trkpt lat="24.927711" lon="102.411529">
<time>2016-10-07T01:50:31Z</time></trkpt>
<trkpt lat="24.927761" lon="102.411379">
<time>2016-10-07T01:50:32Z</time></trkpt>
<trkpt lat="24.927971" lon="102.410749">
<time>2016-10-07T01:50:33Z</time></trkpt>
<trkpt lat="24.928031" lon="102.410598">
<time>2016-10-07T01:50:34Z</time></trkpt>
<trkpt lat="24.92843" lon="102.409688">
<time>2016-10-07T01:50:35Z</time></trkpt>
<trkpt lat="24.92859" lon="102.409348">
<time>2016-10-07T01:50:36Z</time></trkpt>
<trkpt lat="24.92923" lon="102.408287">
<time>2016-10-07T01:50:37Z</time></trkpt>
<trkpt lat="24.9294" lon="102.407937">
<time>2016-10-07T01:50:38Z</time></trkpt>
<trkpt lat="24.929629" lon="102.407477">
<time>2016-10-07T01:50:39Z</time></trkpt>
<trkpt lat="24.929659" lon="102.407427">
<time>2016-10-07T01:50:40Z</time></trkpt>
<trkpt lat="24.929969" lon="102.406727">
<time>2016-10-07T01:50:41Z</time></trkpt>
<trkpt lat="24.930079" lon="102.406467">
<time>2016-10-07T01:50:42Z</time></trkpt>
<trkpt lat="24.930289" lon="102.405777">
<time>2016-10-07T01:50:43Z</time></trkpt>
<trkpt lat="24.930409" lon="102.405137">
<time>2016-10-07T01:50:44Z</time></trkpt>
<trkpt lat="24.930748" lon="102.403296">
<time>2016-10-07T01:50:45Z</time></trkpt>
<trkpt lat="24.930768" lon="102.403176">
<time>2016-10-07T01:50:46Z</time></trkpt>
<trkpt lat="24.931338" lon="102.399576">
<time>2016-10-07T01:50:47Z</time></trkpt>
<trkpt lat="24.931458" lon="102.398836">
<time>2016-10-07T01:50:48Z</time></trkpt>
<trkpt lat="24.931538" lon="102.398286">
<time>2016-10-07T01:50:49Z</time></trkpt>
<trkpt lat="24.931638" lon="102.397506">
<time>2016-10-07T01:50:50Z</time></trkpt>
<trkpt lat="24.931808" lon="102.396107">
<time>2016-10-07T01:50:51Z</time></trkpt>
<trkpt lat="24.931818" lon="102.396057">
<time>2016-10-07T01:50:52Z</time></trkpt>
<trkpt lat="24.931819" lon="102.395557">
<time>2016-10-07T01:50:53Z</time></trkpt>
<trkpt lat="24.931779" lon="102.395157">
<time>2016-10-07T01:50:54Z</time></trkpt>
<trkpt lat="24.931629" lon="102.394297">
<time>2016-10-07T01:50:55Z</time></trkpt>
<trkpt lat="24.93099" lon="102.391888">
<time>2016-10-07T01:50:56Z</time></trkpt>
<trkpt lat="24.93099" lon="102.391888">
<time>2016-10-07T01:50:57Z</time></trkpt>
<trkpt lat="24.930591" lon="102.38854">
<time>2016-10-07T01:50:58Z</time></trkpt>
<trkpt lat="24.930602" lon="102.38812">
<time>2016-10-07T01:50:59Z</time></trkpt>
<trkpt lat="24.930672" lon="102.38798">
<time>2016-10-07T01:51:00Z</time></trkpt>
<trkpt lat="24.930692" lon="102.38793">
<time>2016-10-07T01:51:01Z</time></trkpt>
<trkpt lat="24.930712" lon="102.38789">
<time>2016-10-07T01:51:02Z</time></trkpt>
<trkpt lat="24.930752" lon="102.38781">
<time>2016-10-07T01:51:03Z</time></trkpt>
<trkpt lat="24.930752" lon="102.38781">
<time>2016-10-07T01:51:04Z</time></trkpt>
<trkpt lat="24.930762" lon="102.38781">
<time>2016-10-07T01:51:05Z</time></trkpt>
<trkpt lat="24.931262" lon="102.3877">
<time>2016-10-07T01:51:06Z</time></trkpt>
<trkpt lat="24.931612" lon="102.38764">
<time>2016-10-07T01:51:07Z</time></trkpt>
<trkpt lat="24.931952" lon="102.38758">
<time>2016-10-07T01:51:08Z</time></trkpt>
<trkpt lat="24.932022" lon="102.38756">
<time>2016-10-07T01:51:09Z</time></trkpt>
<trkpt lat="24.932022" lon="102.38756">
<time>2016-10-07T01:51:10Z</time></trkpt>
<trkpt lat="24.932042" lon="102.3875">
<time>2016-10-07T01:51:11Z</time></trkpt>
<trkpt lat="24.932132" lon="102.38714">
<time>2016-10-07T01:51:12Z</time></trkpt>
<trkpt lat="24.932152" lon="102.38709">
<time>2016-10-07T01:51:13Z</time></trkpt>
<trkpt lat="24.932202" lon="102.386851">
<time>2016-10-07T01:51:14Z</time></trkpt>
<trkpt lat="24.932312" lon="102.386471">
<time>2016-10-07T01:51:15Z</time></trkpt>
<trkpt lat="24.932362" lon="102.386271">
<time>2016-10-07T01:51:16Z</time></trkpt>
<trkpt lat="24.932473" lon="102.385821">
<time>2016-10-07T01:51:17Z</time></trkpt>
<trkpt lat="24.932683" lon="102.385082">
<time>2016-10-07T01:51:18Z</time></trkpt>
<trkpt lat="24.932733" lon="102.384892">
<time>2016-10-07T01:51:19Z</time></trkpt>
<trkpt lat="24.932793" lon="102.384652">
<time>2016-10-07T01:51:20Z</time></trkpt>
<trkpt lat="24.932853" lon="102.384502">
<time>2016-10-07T01:51:21Z</time></trkpt>
<trkpt lat="24.933054" lon="102.383793">
<time>2016-10-07T01:51:22Z</time></trkpt>
<trkpt lat="24.933295" lon="102.382913">
<time>2016-10-07T01:51:23Z</time></trkpt>
<trkpt lat="24.933315" lon="102.382823">
<time>2016-10-07T01:51:24Z</time></trkpt>
<trkpt lat="24.933435" lon="102.382314">
<time>2016-10-07T01:51:25Z</time></trkpt>
<trkpt lat="24.933575" lon="102.381854">
<time>2016-10-07T01:51:26Z</time></trkpt>
<trkpt lat="24.933656" lon="102.381554">
<time>2016-10-07T01:51:27Z</time></trkpt>
<trkpt lat="24.933746" lon="102.381235">
<time>2016-10-07T01:51:28Z</time></trkpt>
<trkpt lat="24.933816" lon="102.380995">
<time>2016-10-07T01:51:29Z</time></trkpt>
<trkpt lat="24.933876" lon="102.380745">
<time>2016-10-07T01:51:30Z</time></trkpt>
<trkpt lat="24.933956" lon="102.380465">
<time>2016-10-07T01:51:31Z</time></trkpt>
<trkpt lat="24.934006" lon="102.380285">
<time>2016-10-07T01:51:32Z</time></trkpt>
<trkpt lat="24.934087" lon="102.380066">
<time>2016-10-07T01:51:33Z</time></trkpt>
<trkpt lat="24.934207" lon="102.379676">
<time>2016-10-07T01:51:34Z</time></trkpt>
<trkpt lat="24.934287" lon="102.379456">
<time>2016-10-07T01:51:35Z</time></trkpt>
<trkpt lat="24.934477" lon="102.379057">
<time>2016-10-07T01:51:36Z</time></trkpt>
<trkpt lat="24.934648" lon="102.378727">
<time>2016-10-07T01:51:37Z</time></trkpt>
<trkpt lat="24.934668" lon="102.378707">
<time>2016-10-07T01:51:38Z</time></trkpt>
<trkpt lat="24.934788" lon="102.378527">
<time>2016-10-07T01:51:39Z</time></trkpt>
<trkpt lat="24.934898" lon="102.378367">
<time>2016-10-07T01:51:40Z</time></trkpt>
<trkpt lat="24.934998" lon="102.378227">
<time>2016-10-07T01:51:41Z</time></trkpt>
<trkpt lat="24.935068" lon="102.378137">
<time>2016-10-07T01:51:42Z</time></trkpt>
<trkpt lat="24.935208" lon="102.377958">
<time>2016-10-07T01:51:43Z</time></trkpt>
<trkpt lat="24.935339" lon="102.377778">
<time>2016-10-07T01:51:44Z</time></trkpt>
<trkpt lat="24.935459" lon="102.377628">
<time>2016-10-07T01:51:45Z</time></trkpt>
<trkpt lat="24.935539" lon="102.377528">
<time>2016-10-07T01:51:46Z</time></trkpt>
<trkpt lat="24.935609" lon="102.377438">
<time>2016-10-07T01:51:47Z</time></trkpt>
<trkpt lat="24.935669" lon="102.377368">
<time>2016-10-07T01:51:48Z</time></trkpt>
<trkpt lat="24.935739" lon="102.377268">
<time>2016-10-07T01:51:49Z</time></trkpt>
<trkpt lat="24.935829" lon="102.377178">
<time>2016-10-07T01:51:50Z</time></trkpt>
<trkpt lat="24.935899" lon="102.377098">
<time>2016-10-07T01:51:51Z</time></trkpt>
<trkpt lat="24.935969" lon="102.377029">
<time>2016-10-07T01:51:52Z</time></trkpt>
<trkpt lat="24.936029" lon="102.376979">
<time>2016-10-07T01:51:53Z</time></trkpt>
<trkpt lat="24.936079" lon="102.376939">
<time>2016-10-07T01:51:54Z</time></trkpt>
<trkpt lat="24.936129" lon="102.376899">
<time>2016-10-07T01:51:55Z</time></trkpt>
<trkpt lat="24.936209" lon="102.376839">
<time>2016-10-07T01:51:56Z</time></trkpt>
<trkpt lat="24.936299" lon="102.376789">
<time>2016-10-07T01:51:57Z</time></trkpt>
<trkpt lat="24.936479" lon="102.376679">
<time>2016-10-07T01:51:58Z</time></trkpt>
<trkpt lat="24.936569" lon="102.376629">
<time>2016-10-07T01:51:59Z</time></trkpt>
<trkpt lat="24.936629" lon="102.376609">
<time>2016-10-07T01:52:00Z</time></trkpt>
<trkpt lat="24.936729" lon="102.376569">
<time>2016-10-07T01:52:01Z</time></trkpt>
<trkpt lat="24.93681" lon="102.376539">
<time>2016-10-07T01:52:02Z</time></trkpt>
<trkpt lat="24.93691" lon="102.376499">
<time>2016-10-07T01:52:03Z</time></trkpt>
<trkpt lat="24.93696" lon="102.376479">
<time>2016-10-07T01:52:04Z</time></trkpt>
<trkpt lat="24.93701" lon="102.376469">
<time>2016-10-07T01:52:05Z</time></trkpt>
<trkpt lat="24.93715" lon="102.376419">
<time>2016-10-07T01:52:06Z</time></trkpt>
<trkpt lat="24.93727" lon="102.376379">
<time>2016-10-07T01:52:07Z</time></trkpt>
<trkpt lat="24.93737" lon="102.376349">
<time>2016-10-07T01:52:08Z</time></trkpt>
<trkpt lat="24.93739" lon="102.376339">
<time>2016-10-07T01:52:09Z</time></trkpt>
<trkpt lat="24.93765" lon="102.376259">
<time>2016-10-07T01:52:10Z</time></trkpt>
<trkpt lat="24.93788" lon="102.376169">
<time>2016-10-07T01:52:11Z</time></trkpt>
<trkpt lat="24.938" lon="102.376139">
<time>2016-10-07T01:52:12Z</time></trkpt>
<trkpt lat="24.93812" lon="102.376099">
<time>2016-10-07T01:52:13Z</time></trkpt>
<trkpt lat="24.93831" lon="102.37604">
<time>2016-10-07T01:52:14Z</time></trkpt>
<trkpt lat="24.93847" lon="102.37598">
<time>2016-10-07T01:52:15Z</time></trkpt>
<trkpt lat="24.93864" lon="102.3759">
<time>2016-10-07T01:52:16Z</time></trkpt>
<trkpt lat="24.93876" lon="102.37584">
<time>2016-10-07T01:52:17Z</time></trkpt>
<trkpt lat="24.93887" lon="102.37577">
<time>2016-10-07T01:52:18Z</time></trkpt>
<trkpt lat="24.93894" lon="102.37573">
<time>2016-10-07T01:52:19Z</time></trkpt>
<trkpt lat="24.93899" lon="102.37569">
<time>2016-10-07T01:52:20Z</time></trkpt>
<trkpt lat="24.93904" lon="102.37565">
<time>2016-10-07T01:52:21Z</time></trkpt>
<trkpt lat="24.93909" lon="102.37561">
<time>2016-10-07T01:52:22Z</time></trkpt>
<trkpt lat="24.93913" lon="102.37557">
<time>2016-10-07T01:52:23Z</time></trkpt>
<trkpt lat="24.93917" lon="102.37553">
<time>2016-10-07T01:52:24Z</time></trkpt>
<trkpt lat="24.93921" lon="102.37549">
<time>2016-10-07T01:52:25Z</time></trkpt>
<trkpt lat="24.93925" lon="102.37544">
<time>2016-10-07T01:52:26Z</time></trkpt>
<trkpt lat="24.9393" lon="102.37538">
<time>2016-10-07T01:52:27Z</time></trkpt>
<trkpt lat="24.93936" lon="102.3753">
<time>2016-10-07T01:52:28Z</time></trkpt>
<trkpt lat="24.9394" lon="102.37524">
<time>2016-10-07T01:52:29Z</time></trkpt>
<trkpt lat="24.93941" lon="102.37522">
<time>2016-10-07T01:52:30Z</time></trkpt>
<trkpt lat="24.939431" lon="102.37518">
<time>2016-10-07T01:52:31Z</time></trkpt>
<trkpt lat="24.939471" lon="102.37512">
<time>2016-10-07T01:52:32Z</time></trkpt>
<trkpt lat="24.939491" lon="102.375061">
<time>2016-10-07T01:52:33Z</time></trkpt>
<trkpt lat="24.939511" lon="102.375011">
<time>2016-10-07T01:52:34Z</time></trkpt>
<trkpt lat="24.939541" lon="102.374951">
<time>2016-10-07T01:52:35Z</time></trkpt>
<trkpt lat="24.939591" lon="102.374841">
<time>2016-10-07T01:52:36Z</time></trkpt>
<trkpt lat="24.939651" lon="102.374671">
<time>2016-10-07T01:52:37Z</time></trkpt>
<trkpt lat="24.939711" lon="102.374531">
<time>2016-10-07T01:52:38Z</time></trkpt>
<trkpt lat="24.939751" lon="102.374401">
<time>2016-10-07T01:52:39Z</time></trkpt>
<trkpt lat="24.939852" lon="102.374112">
<time>2016-10-07T01:52:40Z</time></trkpt>
<trkpt lat="24.939972" lon="102.373772">
<time>2016-10-07T01:52:41Z</time></trkpt>
<trkpt lat="24.940032" lon="102.373592">
<time>2016-10-07T01:52:42Z</time></trkpt>
<trkpt lat="24.940082" lon="102.373412">
<time>2016-10-07T01:52:43Z</time></trkpt>
<trkpt lat="24.940213" lon="102.373003">
<time>2016-10-07T01:52:44Z</time></trkpt>
<trkpt lat="24.940263" lon="102.372873">
<time>2016-10-07T01:52:45Z</time></trkpt>
<trkpt lat="24.940343" lon="102.372663">
<time>2016-10-07T01:52:46Z</time></trkpt>
<trkpt lat="24.940413" lon="102.372493">
<time>2016-10-07T01:52:47Z</time></trkpt>
<trkpt lat="24.940554" lon="102.372174">
<time>2016-10-07T01:52:48Z</time></trkpt>
<trkpt lat="24.940624" lon="102.372034">
<time>2016-10-07T01:52:49Z</time></trkpt>
<trkpt lat="24.940684" lon="102.371924">
<time>2016-10-07T01:52:50Z</time></trkpt>
<trkpt lat="24.940984" lon="102.371445">
<time>2016-10-07T01:52:51Z</time></trkpt>
<trkpt lat="24.941095" lon="102.371255">
<time>2016-10-07T01:52:52Z</time></trkpt>
<trkpt lat="24.941225" lon="102.371045">
<time>2016-10-07T01:52:53Z</time></trkpt>
<trkpt lat="24.941365" lon="102.370825">
<time>2016-10-07T01:52:54Z</time></trkpt>
<trkpt lat="24.941636" lon="102.370386">
<time>2016-10-07T01:52:55Z</time></trkpt>
<trkpt lat="24.941896" lon="102.369976">
<time>2016-10-07T01:52:56Z</time></trkpt>
<trkpt lat="24.942066" lon="102.369707">
<time>2016-10-07T01:52:57Z</time></trkpt>
<trkpt lat="24.942096" lon="102.369657">
<time>2016-10-07T01:52:58Z</time></trkpt>
<trkpt lat="24.942377" lon="102.369217">
<time>2016-10-07T01:52:59Z</time></trkpt>
<trkpt lat="24.942637" lon="102.368828">
<time>2016-10-07T01:53:00Z</time></trkpt>
<trkpt lat="24.942717" lon="102.368698">
<time>2016-10-07T01:53:01Z</time></trkpt>
<trkpt lat="24.942808" lon="102.368578">
<time>2016-10-07T01:53:02Z</time></trkpt>
<trkpt lat="24.942918" lon="102.368438">
<time>2016-10-07T01:53:03Z</time></trkpt>
<trkpt lat="24.943008" lon="102.368319">
<time>2016-10-07T01:53:04Z</time></trkpt>
<trkpt lat="24.943068" lon="102.368239">
<time>2016-10-07T01:53:05Z</time></trkpt>
<trkpt lat="24.943148" lon="102.368149">
<time>2016-10-07T01:53:06Z</time></trkpt>
<trkpt lat="24.943248" lon="102.368049">
<time>2016-10-07T01:53:07Z</time></trkpt>
<trkpt lat="24.943318" lon="102.367969">
<time>2016-10-07T01:53:08Z</time></trkpt>
<trkpt lat="24.943388" lon="102.367899">
<time>2016-10-07T01:53:09Z</time></trkpt>
<trkpt lat="24.943458" lon="102.367809">
<time>2016-10-07T01:53:10Z</time></trkpt>
<trkpt lat="24.943589" lon="102.367659">
<time>2016-10-07T01:53:11Z</time></trkpt>
<trkpt lat="24.943709" lon="102.36753">
<time>2016-10-07T01:53:12Z</time></trkpt>
<trkpt lat="24.943809" lon="102.36742">
<time>2016-10-07T01:53:13Z</time></trkpt>
<trkpt lat="24.943919" lon="102.3673">
<time>2016-10-07T01:53:14Z</time></trkpt>
<trkpt lat="24.944059" lon="102.36715">
<time>2016-10-07T01:53:15Z</time></trkpt>
<trkpt lat="24.944169" lon="102.36703">
<time>2016-10-07T01:53:16Z</time></trkpt>
<trkpt lat="24.944299" lon="102.3669">
<time>2016-10-07T01:53:17Z</time></trkpt>
<trkpt lat="24.94443" lon="102.366761">
<time>2016-10-07T01:53:18Z</time></trkpt>
<trkpt lat="24.94449" lon="102.366691">
<time>2016-10-07T01:53:19Z</time></trkpt>
<trkpt lat="24.94464" lon="102.366541">
<time>2016-10-07T01:53:20Z</time></trkpt>
<trkpt lat="24.94472" lon="102.366451">
<time>2016-10-07T01:53:21Z</time></trkpt>
<trkpt lat="24.94481" lon="102.366351">
<time>2016-10-07T01:53:22Z</time></trkpt>
<trkpt lat="24.94488" lon="102.366251">
<time>2016-10-07T01:53:23Z</time></trkpt>
<trkpt lat="24.94503" lon="102.366092">
<time>2016-10-07T01:53:24Z</time></trkpt>
<trkpt lat="24.945161" lon="102.365952">
<time>2016-10-07T01:53:25Z</time></trkpt>
<trkpt lat="24.945241" lon="102.365872">
<time>2016-10-07T01:53:26Z</time></trkpt>
<trkpt lat="24.945371" lon="102.365722">
<time>2016-10-07T01:53:27Z</time></trkpt>
<trkpt lat="24.945651" lon="102.365442">
<time>2016-10-07T01:53:28Z</time></trkpt>
<trkpt lat="24.945821" lon="102.365253">
<time>2016-10-07T01:53:29Z</time></trkpt>
<trkpt lat="24.945912" lon="102.365143">
<time>2016-10-07T01:53:30Z</time></trkpt>
<trkpt lat="24.946022" lon="102.365033">
<time>2016-10-07T01:53:31Z</time></trkpt>
<trkpt lat="24.946102" lon="102.364943">
<time>2016-10-07T01:53:32Z</time></trkpt>
<trkpt lat="24.946172" lon="102.364863">
<time>2016-10-07T01:53:33Z</time></trkpt>
<trkpt lat="24.946252" lon="102.364773">
<time>2016-10-07T01:53:34Z</time></trkpt>
<trkpt lat="24.946342" lon="102.364674">
<time>2016-10-07T01:53:35Z</time></trkpt>
<trkpt lat="24.946442" lon="102.364554">
<time>2016-10-07T01:53:36Z</time></trkpt>
<trkpt lat="24.946593" lon="102.364384">
<time>2016-10-07T01:53:37Z</time></trkpt>
<trkpt lat="24.946713" lon="102.364254">
<time>2016-10-07T01:53:38Z</time></trkpt>
<trkpt lat="24.947604" lon="102.363355">
<time>2016-10-07T01:53:39Z</time></trkpt>
<trkpt lat="24.947644" lon="102.363335">
<time>2016-10-07T01:53:40Z</time></trkpt>
<trkpt lat="24.947774" lon="102.363256">
<time>2016-10-07T01:53:41Z</time></trkpt>
<trkpt lat="24.947894" lon="102.363186">
<time>2016-10-07T01:53:42Z</time></trkpt>
<trkpt lat="24.948014" lon="102.363136">
<time>2016-10-07T01:53:43Z</time></trkpt>
<trkpt lat="24.948134" lon="102.363076">
<time>2016-10-07T01:53:44Z</time></trkpt>
<trkpt lat="24.948244" lon="102.363036">
<time>2016-10-07T01:53:45Z</time></trkpt>
<trkpt lat="24.948344" lon="102.362996">
<time>2016-10-07T01:53:46Z</time></trkpt>
<trkpt lat="24.948464" lon="102.362966">
<time>2016-10-07T01:53:47Z</time></trkpt>
<trkpt lat="24.948634" lon="102.362916">
<time>2016-10-07T01:53:48Z</time></trkpt>
<trkpt lat="24.948744" lon="102.362896">
<time>2016-10-07T01:53:49Z</time></trkpt>
<trkpt lat="24.948824" lon="102.362876">
<time>2016-10-07T01:53:50Z</time></trkpt>
<trkpt lat="24.949164" lon="102.362796">
<time>2016-10-07T01:53:51Z</time></trkpt>
<trkpt lat="24.949434" lon="102.362736">
<time>2016-10-07T01:53:52Z</time></trkpt>
<trkpt lat="24.949524" lon="102.362716">
<time>2016-10-07T01:53:53Z</time></trkpt>
<trkpt lat="24.949815" lon="102.362656">
<time>2016-10-07T01:53:54Z</time></trkpt>
<trkpt lat="24.950085" lon="102.362606">
<time>2016-10-07T01:53:55Z</time></trkpt>
<trkpt lat="24.950385" lon="102.362547">
<time>2016-10-07T01:53:56Z</time></trkpt>
<trkpt lat="24.950515" lon="102.362507">
<time>2016-10-07T01:53:57Z</time></trkpt>
<trkpt lat="24.950645" lon="102.362447">
<time>2016-10-07T01:53:58Z</time></trkpt>
<trkpt lat="24.950745" lon="102.362397">
<time>2016-10-07T01:53:59Z</time></trkpt>
<trkpt lat="24.950835" lon="102.362337">
<time>2016-10-07T01:54:00Z</time></trkpt>
<trkpt lat="24.950905" lon="102.362277">
<time>2016-10-07T01:54:01Z</time></trkpt>
<trkpt lat="24.950975" lon="102.362217">
<time>2016-10-07T01:54:02Z</time></trkpt>
<trkpt lat="24.951035" lon="102.362157">
<time>2016-10-07T01:54:03Z</time></trkpt>
<trkpt lat="24.951105" lon="102.362057">
<time>2016-10-07T01:54:04Z</time></trkpt>
<trkpt lat="24.951165" lon="102.361957">
<time>2016-10-07T01:54:05Z</time></trkpt>
<trkpt lat="24.951205" lon="102.361858">
<time>2016-10-07T01:54:06Z</time></trkpt>
<trkpt lat="24.951246" lon="102.361728">
<time>2016-10-07T01:54:07Z</time></trkpt>
<trkpt lat="24.951266" lon="102.361588">
<time>2016-10-07T01:54:08Z</time></trkpt>
<trkpt lat="24.951296" lon="102.361458">
<time>2016-10-07T01:54:09Z</time></trkpt>
<trkpt lat="24.951336" lon="102.361169">
<time>2016-10-07T01:54:10Z</time></trkpt>
<trkpt lat="24.951448" lon="102.36001">
<time>2016-10-07T01:54:11Z</time></trkpt>
<trkpt lat="24.951478" lon="102.359881">
<time>2016-10-07T01:54:12Z</time></trkpt>
<trkpt lat="24.951509" lon="102.359721">
<time>2016-10-07T01:54:13Z</time></trkpt>
<trkpt lat="24.951559" lon="102.359581">
<time>2016-10-07T01:54:14Z</time></trkpt>
<trkpt lat="24.951609" lon="102.359481">
<time>2016-10-07T01:54:15Z</time></trkpt>
<trkpt lat="24.951659" lon="102.359411">
<time>2016-10-07T01:54:16Z</time></trkpt>
<trkpt lat="24.951709" lon="102.359341">
<time>2016-10-07T01:54:17Z</time></trkpt>
<trkpt lat="24.951809" lon="102.359242">
<time>2016-10-07T01:54:18Z</time></trkpt>
<trkpt lat="24.951949" lon="102.359082">
<time>2016-10-07T01:54:19Z</time></trkpt>
<trkpt lat="24.95216" lon="102.358842">
<time>2016-10-07T01:54:20Z</time></trkpt>
<trkpt lat="24.95227" lon="102.358722">
<time>2016-10-07T01:54:21Z</time></trkpt>
<trkpt lat="24.95235" lon="102.358633">
<time>2016-10-07T01:54:22Z</time></trkpt>
<trkpt lat="24.95242" lon="102.358513">
<time>2016-10-07T01:54:23Z</time></trkpt>
<trkpt lat="24.95248" lon="102.358413">
<time>2016-10-07T01:54:24Z</time></trkpt>
<trkpt lat="24.952541" lon="102.358303">
<time>2016-10-07T01:54:25Z</time></trkpt>
<trkpt lat="24.952601" lon="102.358173">
<time>2016-10-07T01:54:26Z</time></trkpt>
<trkpt lat="24.952691" lon="102.357954">
<time>2016-10-07T01:54:27Z</time></trkpt>
<trkpt lat="24.952791" lon="102.357664">
<time>2016-10-07T01:54:28Z</time></trkpt>
<trkpt lat="24.952892" lon="102.357395">
<time>2016-10-07T01:54:29Z</time></trkpt>
<trkpt lat="24.952902" lon="102.357375">
<time>2016-10-07T01:54:30Z</time></trkpt>
<trkpt lat="24.953002" lon="102.357165">
<time>2016-10-07T01:54:31Z</time></trkpt>
<trkpt lat="24.953092" lon="102.357015">
<time>2016-10-07T01:54:32Z</time></trkpt>
<trkpt lat="24.953173" lon="102.356895">
<time>2016-10-07T01:54:33Z</time></trkpt>
<trkpt lat="24.953263" lon="102.356776">
<time>2016-10-07T01:54:34Z</time></trkpt>
<trkpt lat="24.953363" lon="102.356676">
<time>2016-10-07T01:54:35Z</time></trkpt>
<trkpt lat="24.953483" lon="102.356576">
<time>2016-10-07T01:54:36Z</time></trkpt>
<trkpt lat="24.953563" lon="102.356496">
<time>2016-10-07T01:54:37Z</time></trkpt>
<trkpt lat="24.953723" lon="102.356366">
<time>2016-10-07T01:54:38Z</time></trkpt>
<trkpt lat="24.953954" lon="102.356177">
<time>2016-10-07T01:54:39Z</time></trkpt>
<trkpt lat="24.954144" lon="102.356037">
<time>2016-10-07T01:54:40Z</time></trkpt>
<trkpt lat="24.954454" lon="102.355787">
<time>2016-10-07T01:54:41Z</time></trkpt>
<trkpt lat="24.954694" lon="102.355598">
<time>2016-10-07T01:54:42Z</time></trkpt>
<trkpt lat="24.954875" lon="102.355458">
<time>2016-10-07T01:54:43Z</time></trkpt>
<trkpt lat="24.954975" lon="102.355378">
<time>2016-10-07T01:54:44Z</time></trkpt>
<trkpt lat="24.955125" lon="102.355248">
<time>2016-10-07T01:54:45Z</time></trkpt>
<trkpt lat="24.955315" lon="102.355098">
<time>2016-10-07T01:54:46Z</time></trkpt>
<trkpt lat="24.955505" lon="102.354949">
<time>2016-10-07T01:54:47Z</time></trkpt>
<trkpt lat="24.955636" lon="102.354819">
<time>2016-10-07T01:54:48Z</time></trkpt>
<trkpt lat="24.955786" lon="102.354679">
<time>2016-10-07T01:54:49Z</time></trkpt>
<trkpt lat="24.955916" lon="102.354549">
<time>2016-10-07T01:54:50Z</time></trkpt>
<trkpt lat="24.956036" lon="102.354449">
<time>2016-10-07T01:54:51Z</time></trkpt>
<trkpt lat="24.956066" lon="102.3544">
<time>2016-10-07T01:54:52Z</time></trkpt>
<trkpt lat="24.956136" lon="102.35432">
<time>2016-10-07T01:54:53Z</time></trkpt>
<trkpt lat="24.956256" lon="102.35422">
<time>2016-10-07T01:54:54Z</time></trkpt>
<trkpt lat="24.956337" lon="102.35414">
<time>2016-10-07T01:54:55Z</time></trkpt>
<trkpt lat="24.956467" lon="102.35399">
<time>2016-10-07T01:54:56Z</time></trkpt>
<trkpt lat="24.956747" lon="102.353701">
<time>2016-10-07T01:54:57Z</time></trkpt>
<trkpt lat="24.957038" lon="102.353391">
<time>2016-10-07T01:54:58Z</time></trkpt>
<trkpt lat="24.957248" lon="102.353142">
<time>2016-10-07T01:54:59Z</time></trkpt>
<trkpt lat="24.957438" lon="102.352912">
<time>2016-10-07T01:55:00Z</time></trkpt>
<trkpt lat="24.957469" lon="102.352862">
<time>2016-10-07T01:55:01Z</time></trkpt>
<trkpt lat="24.957599" lon="102.352682">
<time>2016-10-07T01:55:02Z</time></trkpt>
<trkpt lat="24.957759" lon="102.352463">
<time>2016-10-07T01:55:03Z</time></trkpt>
<trkpt lat="24.957899" lon="102.352243">
<time>2016-10-07T01:55:04Z</time></trkpt>
<trkpt lat="24.95812" lon="102.351884">
<time>2016-10-07T01:55:05Z</time></trkpt>
<trkpt lat="24.958351" lon="102.351554">
<time>2016-10-07T01:55:06Z</time></trkpt>
<trkpt lat="24.958641" lon="102.351155">
<time>2016-10-07T01:55:07Z</time></trkpt>
<trkpt lat="24.958872" lon="102.350836">
<time>2016-10-07T01:55:08Z</time></trkpt>
<trkpt lat="24.959182" lon="102.350386">
<time>2016-10-07T01:55:09Z</time></trkpt>
<trkpt lat="24.959593" lon="102.349827">
<time>2016-10-07T01:55:10Z</time></trkpt>
<trkpt lat="24.959854" lon="102.349498">
<time>2016-10-07T01:55:11Z</time></trkpt>
<trkpt lat="24.959854" lon="102.349488">
<time>2016-10-07T01:55:12Z</time></trkpt>
<trkpt lat="24.960074" lon="102.349199">
<time>2016-10-07T01:55:13Z</time></trkpt>
<trkpt lat="24.960255" lon="102.348949">
<time>2016-10-07T01:55:14Z</time></trkpt>
<trkpt lat="24.960275" lon="102.348919">
<time>2016-10-07T01:55:15Z</time></trkpt>
<trkpt lat="24.960295" lon="102.348879">
<time>2016-10-07T01:55:16Z</time></trkpt>
<trkpt lat="24.960335" lon="102.348809">
<time>2016-10-07T01:55:17Z</time></trkpt>
<trkpt lat="24.960445" lon="102.34866">
<time>2016-10-07T01:55:18Z</time></trkpt>
<trkpt lat="24.960566" lon="102.34847">
<time>2016-10-07T01:55:19Z</time></trkpt>
<trkpt lat="24.960816" lon="102.348011">
<time>2016-10-07T01:55:20Z</time></trkpt>
<trkpt lat="24.960927" lon="102.347821">
<time>2016-10-07T01:55:21Z</time></trkpt>
<trkpt lat="24.961007" lon="102.347701">
<time>2016-10-07T01:55:22Z</time></trkpt>
<trkpt lat="24.961107" lon="102.347502">
<time>2016-10-07T01:55:23Z</time></trkpt>
<trkpt lat="24.961137" lon="102.347462">
<time>2016-10-07T01:55:24Z</time></trkpt>
<trkpt lat="24.961258" lon="102.347242">
<time>2016-10-07T01:55:25Z</time></trkpt>
<trkpt lat="24.961358" lon="102.347072">
<time>2016-10-07T01:55:26Z</time></trkpt>
<trkpt lat="24.961538" lon="102.346793">
<time>2016-10-07T01:55:27Z</time></trkpt>
<trkpt lat="24.961639" lon="102.346643">
<time>2016-10-07T01:55:28Z</time></trkpt>
<trkpt lat="24.961749" lon="102.346523">
<time>2016-10-07T01:55:29Z</time></trkpt>
<trkpt lat="24.961839" lon="102.346434">
<time>2016-10-07T01:55:30Z</time></trkpt>
<trkpt lat="24.961959" lon="102.346324">
<time>2016-10-07T01:55:31Z</time></trkpt>
<trkpt lat="24.962079" lon="102.346234">
<time>2016-10-07T01:55:32Z</time></trkpt>
<trkpt lat="24.962289" lon="102.346094">
<time>2016-10-07T01:55:33Z</time></trkpt>
<trkpt lat="24.962309" lon="102.346084">
<time>2016-10-07T01:55:34Z</time></trkpt>
<trkpt lat="24.96239" lon="102.346034">
<time>2016-10-07T01:55:35Z</time></trkpt>
<trkpt lat="24.9625" lon="102.345964">
<time>2016-10-07T01:55:36Z</time></trkpt>
<trkpt lat="24.96264" lon="102.345885">
<time>2016-10-07T01:55:37Z</time></trkpt>
<trkpt lat="24.96279" lon="102.345795">
<time>2016-10-07T01:55:38Z</time></trkpt>
<trkpt lat="24.96289" lon="102.345725">
<time>2016-10-07T01:55:39Z</time></trkpt>
<trkpt lat="24.96295" lon="102.345675">
<time>2016-10-07T01:55:40Z</time></trkpt>
<trkpt lat="24.96302" lon="102.345615">
<time>2016-10-07T01:55:41Z</time></trkpt>
<trkpt lat="24.96304" lon="102.345595">
<time>2016-10-07T01:55:42Z</time></trkpt>
<trkpt lat="24.96305" lon="102.345585">
<time>2016-10-07T01:55:43Z</time></trkpt>
<trkpt lat="24.96309" lon="102.345535">
<time>2016-10-07T01:55:44Z</time></trkpt>
<trkpt lat="24.96315" lon="102.345455">
<time>2016-10-07T01:55:45Z</time></trkpt>
<trkpt lat="24.963191" lon="102.345386">
<time>2016-10-07T01:55:46Z</time></trkpt>
<trkpt lat="24.963251" lon="102.345276">
<time>2016-10-07T01:55:47Z</time></trkpt>
<trkpt lat="24.963291" lon="102.345186">
<time>2016-10-07T01:55:48Z</time></trkpt>
<trkpt lat="24.963341" lon="102.345056">
<time>2016-10-07T01:55:49Z</time></trkpt>
<trkpt lat="24.963371" lon="102.344886">
<time>2016-10-07T01:55:50Z</time></trkpt>
<trkpt lat="24.963382" lon="102.344687">
<time>2016-10-07T01:55:51Z</time></trkpt>
<trkpt lat="24.963392" lon="102.344417">
<time>2016-10-07T01:55:52Z</time></trkpt>
<trkpt lat="24.963403" lon="102.344118">
<time>2016-10-07T01:55:53Z</time></trkpt>
<trkpt lat="24.963433" lon="102.343888">
<time>2016-10-07T01:55:54Z</time></trkpt>
<trkpt lat="24.963494" lon="102.343629">
<time>2016-10-07T01:55:55Z</time></trkpt>
<trkpt lat="24.963574" lon="102.343309">
<time>2016-10-07T01:55:56Z</time></trkpt>
<trkpt lat="24.963675" lon="102.34299">
<time>2016-10-07T01:55:57Z</time></trkpt>
<trkpt lat="24.963775" lon="102.342711">
<time>2016-10-07T01:55:58Z</time></trkpt>
<trkpt lat="24.963836" lon="102.342561">
<time>2016-10-07T01:55:59Z</time></trkpt>
<trkpt lat="24.963896" lon="102.342441">
<time>2016-10-07T01:56:00Z</time></trkpt>
<trkpt lat="24.963996" lon="102.342321">
<time>2016-10-07T01:56:01Z</time></trkpt>
<trkpt lat="24.964076" lon="102.342232">
<time>2016-10-07T01:56:02Z</time></trkpt>
<trkpt lat="24.964176" lon="102.342142">
<time>2016-10-07T01:56:03Z</time></trkpt>
<trkpt lat="24.964376" lon="102.342032">
<time>2016-10-07T01:56:04Z</time></trkpt>
<trkpt lat="24.964667" lon="102.341892">
<time>2016-10-07T01:56:05Z</time></trkpt>
<trkpt lat="24.964877" lon="102.341772">
<time>2016-10-07T01:56:06Z</time></trkpt>
<trkpt lat="24.964957" lon="102.341722">
<time>2016-10-07T01:56:07Z</time></trkpt>
<trkpt lat="24.965037" lon="102.341643">
<time>2016-10-07T01:56:08Z</time></trkpt>
<trkpt lat="24.965107" lon="102.341563">
<time>2016-10-07T01:56:09Z</time></trkpt>
<trkpt lat="24.965157" lon="102.341473">
<time>2016-10-07T01:56:10Z</time></trkpt>
<trkpt lat="24.965198" lon="102.341393">
<time>2016-10-07T01:56:11Z</time></trkpt>
<trkpt lat="24.965238" lon="102.341273">
<time>2016-10-07T01:56:12Z</time></trkpt>
<trkpt lat="24.965258" lon="102.341213">
<time>2016-10-07T01:56:13Z</time></trkpt>
<trkpt lat="24.965288" lon="102.341114">
<time>2016-10-07T01:56:14Z</time></trkpt>
<trkpt lat="24.965338" lon="102.340884">
<time>2016-10-07T01:56:15Z</time></trkpt>
<trkpt lat="24.965419" lon="102.340575">
<time>2016-10-07T01:56:16Z</time></trkpt>
<trkpt lat="24.965479" lon="102.340355">
<time>2016-10-07T01:56:17Z</time></trkpt>
<trkpt lat="24.96554" lon="102.340175">
<time>2016-10-07T01:56:18Z</time></trkpt>
<trkpt lat="24.96561" lon="102.340016">
<time>2016-10-07T01:56:19Z</time></trkpt>
<trkpt lat="24.965761" lon="102.339696">
<time>2016-10-07T01:56:20Z</time></trkpt>
<trkpt lat="24.965791" lon="102.339627">
<time>2016-10-07T01:56:21Z</time></trkpt>
<trkpt lat="24.965791" lon="102.339627">
<time>2016-10-07T01:56:22Z</time></trkpt>
<trkpt lat="24.965532" lon="102.338738">
<time>2016-10-07T01:56:23Z</time></trkpt>
<trkpt lat="24.965605" lon="102.337461">
<time>2016-10-07T01:56:24Z</time></trkpt>
<trkpt lat="24.965446" lon="102.336543">
<time>2016-10-07T01:56:25Z</time></trkpt>
<trkpt lat="24.96405" lon="102.334596">
<time>2016-10-07T01:56:26Z</time></trkpt>
<trkpt lat="24.963912" lon="102.333978">
<time>2016-10-07T01:56:27Z</time></trkpt>
<trkpt lat="24.964036" lon="102.331862">
<time>2016-10-07T01:56:28Z</time></trkpt>
<trkpt lat="24.964146" lon="102.331652">
<time>2016-10-07T01:56:29Z</time></trkpt>
<trkpt lat="24.964417" lon="102.331163">
<time>2016-10-07T01:56:30Z</time></trkpt>
<trkpt lat="24.964417" lon="102.331153">
<time>2016-10-07T01:56:31Z</time></trkpt>
<trkpt lat="24.964427" lon="102.331143">
<time>2016-10-07T01:56:32Z</time></trkpt>
<trkpt lat="24.964437" lon="102.331133">
<time>2016-10-07T01:56:33Z</time></trkpt>
<trkpt lat="24.964447" lon="102.331123">
<time>2016-10-07T01:56:34Z</time></trkpt>
<trkpt lat="24.964457" lon="102.331123">
<time>2016-10-07T01:56:35Z</time></trkpt>
<trkpt lat="24.964497" lon="102.331123">
<time>2016-10-07T01:56:36Z</time></trkpt>
<trkpt lat="24.964497" lon="102.331123">
<time>2016-10-07T01:56:37Z</time></trkpt>
<trkpt lat="24.964517" lon="102.331054">
<time>2016-10-07T01:56:38Z</time></trkpt>
<trkpt lat="24.964557" lon="102.330884">
<time>2016-10-07T01:56:39Z</time></trkpt>
<trkpt lat="24.964638" lon="102.330535">
<time>2016-10-07T01:56:40Z</time></trkpt>
<trkpt lat="24.96485" lon="102.329626">
<time>2016-10-07T01:56:41Z</time></trkpt>
<trkpt lat="24.965011" lon="102.328958">
<time>2016-10-07T01:56:42Z</time></trkpt>
<trkpt lat="24.965172" lon="102.328269">
<time>2016-10-07T01:56:43Z</time></trkpt>
<trkpt lat="24.965283" lon="102.3278">
<time>2016-10-07T01:56:44Z</time></trkpt>
<trkpt lat="24.965384" lon="102.327371">
<time>2016-10-07T01:56:45Z</time></trkpt>
<trkpt lat="24.965454" lon="102.327072">
<time>2016-10-07T01:56:46Z</time></trkpt>
<trkpt lat="24.965525" lon="102.326762">
<time>2016-10-07T01:56:47Z</time></trkpt>
<trkpt lat="24.965676" lon="102.326183">
<time>2016-10-07T01:56:48Z</time></trkpt>
<trkpt lat="24.965727" lon="102.325904">
<time>2016-10-07T01:56:49Z</time></trkpt>
<trkpt lat="24.965827" lon="102.325535">
<time>2016-10-07T01:56:50Z</time></trkpt>
<trkpt lat="24.965858" lon="102.325415">
<time>2016-10-07T01:56:51Z</time></trkpt>
<trkpt lat="24.965938" lon="102.325016">
<time>2016-10-07T01:56:52Z</time></trkpt>
<trkpt lat="24.966029" lon="102.324686">
<time>2016-10-07T01:56:53Z</time></trkpt>
<trkpt lat="24.966069" lon="102.324547">
<time>2016-10-07T01:56:54Z</time></trkpt>
<trkpt lat="24.96626" lon="102.324167">
<time>2016-10-07T01:56:55Z</time></trkpt>
<trkpt lat="24.96635" lon="102.323948">
<time>2016-10-07T01:56:56Z</time></trkpt>
<trkpt lat="24.966431" lon="102.323718">
<time>2016-10-07T01:56:57Z</time></trkpt>
<trkpt lat="24.966541" lon="102.323399">
<time>2016-10-07T01:56:58Z</time></trkpt>
<trkpt lat="24.966712" lon="102.32296">
<time>2016-10-07T01:56:59Z</time></trkpt>
<trkpt lat="24.966963" lon="102.322301">
<time>2016-10-07T01:57:00Z</time></trkpt>
<trkpt lat="24.967165" lon="102.321682">
<time>2016-10-07T01:57:01Z</time></trkpt>
<trkpt lat="24.967827" lon="102.320115">
<time>2016-10-07T01:57:02Z</time></trkpt>
<trkpt lat="24.967878" lon="102.320006">
<time>2016-10-07T01:57:03Z</time></trkpt>
<trkpt lat="24.968069" lon="102.319507">
<time>2016-10-07T01:57:04Z</time></trkpt>
<trkpt lat="24.968169" lon="102.319217">
<time>2016-10-07T01:57:05Z</time></trkpt>
<trkpt lat="24.96835" lon="102.318788">
<time>2016-10-07T01:57:06Z</time></trkpt>
<trkpt lat="24.968511" lon="102.318379">
<time>2016-10-07T01:57:07Z</time></trkpt>
<trkpt lat="24.968702" lon="102.3179">
<time>2016-10-07T01:57:08Z</time></trkpt>
<trkpt lat="24.968802" lon="102.31766">
<time>2016-10-07T01:57:09Z</time></trkpt>
<trkpt lat="24.968812" lon="102.31763">
<time>2016-10-07T01:57:10Z</time></trkpt>
<trkpt lat="24.969093" lon="102.317141">
<time>2016-10-07T01:57:11Z</time></trkpt>
<trkpt lat="24.969454" lon="102.316702">
<time>2016-10-07T01:57:12Z</time></trkpt>
<trkpt lat="24.969724" lon="102.316413">
<time>2016-10-07T01:57:13Z</time></trkpt>
<trkpt lat="24.969764" lon="102.316363">
<time>2016-10-07T01:57:14Z</time></trkpt>
<trkpt lat="24.970075" lon="102.316013">
<time>2016-10-07T01:57:15Z</time></trkpt>
<trkpt lat="24.970325" lon="102.315744">
<time>2016-10-07T01:57:16Z</time></trkpt>
<trkpt lat="24.970596" lon="102.315415">
<time>2016-10-07T01:57:17Z</time></trkpt>
<trkpt lat="24.970937" lon="102.315035">
<time>2016-10-07T01:57:18Z</time></trkpt>
<trkpt lat="24.971207" lon="102.314726">
<time>2016-10-07T01:57:19Z</time></trkpt>
<trkpt lat="24.971347" lon="102.314576">
<time>2016-10-07T01:57:20Z</time></trkpt>
<trkpt lat="24.971367" lon="102.314536">
<time>2016-10-07T01:57:21Z</time></trkpt>
<trkpt lat="24.971378" lon="102.314496">
<time>2016-10-07T01:57:22Z</time></trkpt>
<trkpt lat="24.971368" lon="102.314466">
<time>2016-10-07T01:57:23Z</time></trkpt>
<trkpt lat="24.971368" lon="102.314466">
<time>2016-10-07T01:57:24Z</time></trkpt>
<trkpt lat="24.971577" lon="102.314526">
<time>2016-10-07T01:57:25Z</time></trkpt>
<trkpt lat="24.971777" lon="102.314566">
<time>2016-10-07T01:57:26Z</time></trkpt>
<trkpt lat="24.971777" lon="102.314566">
<time>2016-10-07T01:57:27Z</time></trkpt>
<trkpt lat="24.971838" lon="102.314486">
<time>2016-10-07T01:57:28Z</time></trkpt>
<trkpt lat="24.972269" lon="102.313907">
<time>2016-10-07T01:57:29Z</time></trkpt>
<trkpt lat="24.97281" lon="102.313249">
<time>2016-10-07T01:57:30Z</time></trkpt>
<trkpt lat="24.97305" lon="102.312999">
<time>2016-10-07T01:57:31Z</time></trkpt>
<trkpt lat="24.973471" lon="102.31252">
<time>2016-10-07T01:57:32Z</time></trkpt>
<trkpt lat="24.973812" lon="102.312101">
<time>2016-10-07T01:57:33Z</time></trkpt>
<trkpt lat="24.974052" lon="102.311771">
<time>2016-10-07T01:57:34Z</time></trkpt>
<trkpt lat="24.974183" lon="102.311582">
<time>2016-10-07T01:57:35Z</time></trkpt>
<trkpt lat="24.974574" lon="102.310683">
<time>2016-10-07T01:57:36Z</time></trkpt>
<trkpt lat="24.974756" lon="102.309925">
<time>2016-10-07T01:57:37Z</time></trkpt>
<trkpt lat="24.974817" lon="102.309266">
<time>2016-10-07T01:57:38Z</time></trkpt>
<trkpt lat="24.974779" lon="102.307909">
<time>2016-10-07T01:57:39Z</time></trkpt>
<trkpt lat="24.974661" lon="102.30704">
<time>2016-10-07T01:57:40Z</time></trkpt>
<trkpt lat="24.974532" lon="102.306042">
<time>2016-10-07T01:57:41Z</time></trkpt>
<trkpt lat="24.974267" lon="102.303317">
<time>2016-10-07T01:57:42Z</time></trkpt>
<trkpt lat="24.974218" lon="102.302778">
<time>2016-10-07T01:57:43Z</time></trkpt>
<trkpt lat="24.974208" lon="102.302688">
<time>2016-10-07T01:57:44Z</time></trkpt>
<trkpt lat="24.974189" lon="102.302488">
<time>2016-10-07T01:57:45Z</time></trkpt>
<trkpt lat="24.974159" lon="102.302209">
<time>2016-10-07T01:57:46Z</time></trkpt>
<trkpt lat="24.97411" lon="102.301909">
<time>2016-10-07T01:57:47Z</time></trkpt>
<trkpt lat="24.97408" lon="102.30159">
<time>2016-10-07T01:57:48Z</time></trkpt>
<trkpt lat="24.97407" lon="102.3015">
<time>2016-10-07T01:57:49Z</time></trkpt>
<trkpt lat="24.97407" lon="102.30149">
<time>2016-10-07T01:57:50Z</time></trkpt>
<trkpt lat="24.974051" lon="102.30121">
<time>2016-10-07T01:57:51Z</time></trkpt>
<trkpt lat="24.973962" lon="102.300482">
<time>2016-10-07T01:57:52Z</time></trkpt>
<trkpt lat="24.973843" lon="102.299673">
<time>2016-10-07T01:57:53Z</time></trkpt>
<trkpt lat="24.973784" lon="102.299384">
<time>2016-10-07T01:57:54Z</time></trkpt>
<trkpt lat="24.973585" lon="102.298565">
<time>2016-10-07T01:57:55Z</time></trkpt>
<trkpt lat="24.973366" lon="102.297906">
<time>2016-10-07T01:57:56Z</time></trkpt>
<trkpt lat="24.973147" lon="102.297407">
<time>2016-10-07T01:57:57Z</time></trkpt>
<trkpt lat="24.972858" lon="102.296798">
<time>2016-10-07T01:57:58Z</time></trkpt>
<trkpt lat="24.972748" lon="102.296548">
<time>2016-10-07T01:57:59Z</time></trkpt>
<trkpt lat="24.97235" lon="102.295829">
<time>2016-10-07T01:58:00Z</time></trkpt>
<trkpt lat="24.971532" lon="102.294521">
<time>2016-10-07T01:58:01Z</time></trkpt>
<trkpt lat="24.971322" lon="102.294072">
<time>2016-10-07T01:58:02Z</time></trkpt>
<trkpt lat="24.971183" lon="102.293842">
<time>2016-10-07T01:58:03Z</time></trkpt>
<trkpt lat="24.970944" lon="102.293383">
<time>2016-10-07T01:58:04Z</time></trkpt>
<trkpt lat="24.970894" lon="102.293313">
<time>2016-10-07T01:58:05Z</time></trkpt>
<trkpt lat="24.970425" lon="102.292385">
<time>2016-10-07T01:58:06Z</time></trkpt>
<trkpt lat="24.970415" lon="102.292355">
<time>2016-10-07T01:58:07Z</time></trkpt>
<trkpt lat="24.970335" lon="102.292185">
<time>2016-10-07T01:58:08Z</time></trkpt>
<trkpt lat="24.970236" lon="102.291985">
<time>2016-10-07T01:58:09Z</time></trkpt>
<trkpt lat="24.970136" lon="102.291786">
<time>2016-10-07T01:58:10Z</time></trkpt>
<trkpt lat="24.970096" lon="102.291686">
<time>2016-10-07T01:58:11Z</time></trkpt>
<trkpt lat="24.970066" lon="102.291586">
<time>2016-10-07T01:58:12Z</time></trkpt>
<trkpt lat="24.970036" lon="102.291476">
<time>2016-10-07T01:58:13Z</time></trkpt>
<trkpt lat="24.970027" lon="102.291336">
<time>2016-10-07T01:58:14Z</time></trkpt>
<trkpt lat="24.970027" lon="102.291216">
<time>2016-10-07T01:58:15Z</time></trkpt>
<trkpt lat="24.970027" lon="102.291037">
<time>2016-10-07T01:58:16Z</time></trkpt>
<trkpt lat="24.970027" lon="102.290837">
<time>2016-10-07T01:58:17Z</time></trkpt>
<trkpt lat="24.970028" lon="102.290717">
<time>2016-10-07T01:58:18Z</time></trkpt>
<trkpt lat="24.970028" lon="102.290458">
<time>2016-10-07T01:58:19Z</time></trkpt>
<trkpt lat="24.970038" lon="102.290258">
<time>2016-10-07T01:58:20Z</time></trkpt>
<trkpt lat="24.970038" lon="102.290118">
<time>2016-10-07T01:58:21Z</time></trkpt>
<trkpt lat="24.970059" lon="102.289888">
<time>2016-10-07T01:58:22Z</time></trkpt>
<trkpt lat="24.970079" lon="102.289798">
<time>2016-10-07T01:58:23Z</time></trkpt>
<trkpt lat="24.970099" lon="102.289709">
<time>2016-10-07T01:58:24Z</time></trkpt>
<trkpt lat="24.970139" lon="102.289529">
<time>2016-10-07T01:58:25Z</time></trkpt>
<trkpt lat="24.97018" lon="102.289329">
<time>2016-10-07T01:58:26Z</time></trkpt>
<trkpt lat="24.97023" lon="102.289149">
<time>2016-10-07T01:58:27Z</time></trkpt>
<trkpt lat="24.97025" lon="102.289059">
<time>2016-10-07T01:58:28Z</time></trkpt>
<trkpt lat="24.97032" lon="102.28883">
<time>2016-10-07T01:58:29Z</time></trkpt>
<trkpt lat="24.970421" lon="102.28851">
<time>2016-10-07T01:58:30Z</time></trkpt>
<trkpt lat="24.970431" lon="102.28845">
<time>2016-10-07T01:58:31Z</time></trkpt>
<trkpt lat="24.970481" lon="102.288251">
<time>2016-10-07T01:58:32Z</time></trkpt>
<trkpt lat="24.970501" lon="102.288101">
<time>2016-10-07T01:58:33Z</time></trkpt>
<trkpt lat="24.970521" lon="102.288031">
<time>2016-10-07T01:58:34Z</time></trkpt>
<trkpt lat="24.970551" lon="102.287871">
<time>2016-10-07T01:58:35Z</time></trkpt>
<trkpt lat="24.970562" lon="102.287821">
<time>2016-10-07T01:58:36Z</time></trkpt>
<trkpt lat="24.970582" lon="102.287641">
<time>2016-10-07T01:58:37Z</time></trkpt>
<trkpt lat="24.970582" lon="102.287631">
<time>2016-10-07T01:58:38Z</time></trkpt>
<trkpt lat="24.970612" lon="102.287432">
<time>2016-10-07T01:58:39Z</time></trkpt>
<trkpt lat="24.970632" lon="102.287232">
<time>2016-10-07T01:58:40Z</time></trkpt>
<trkpt lat="24.970642" lon="102.287202">
<time>2016-10-07T01:58:41Z</time></trkpt>
<trkpt lat="24.970663" lon="102.287032">
<time>2016-10-07T01:58:42Z</time></trkpt>
<trkpt lat="24.970703" lon="102.286713">
<time>2016-10-07T01:58:43Z</time></trkpt>
<trkpt lat="24.970694" lon="102.286333">
<time>2016-10-07T01:58:44Z</time></trkpt>
<trkpt lat="24.970664" lon="102.285984">
<time>2016-10-07T01:58:45Z</time></trkpt>
<trkpt lat="24.970634" lon="102.285614">
<time>2016-10-07T01:58:46Z</time></trkpt>
<trkpt lat="24.970615" lon="102.285314">
<time>2016-10-07T01:58:47Z</time></trkpt>
<trkpt lat="24.970585" lon="102.284905">
<time>2016-10-07T01:58:48Z</time></trkpt>
<trkpt lat="24.970566" lon="102.284535">
<time>2016-10-07T01:58:49Z</time></trkpt>
<trkpt lat="24.970526" lon="102.284146">
<time>2016-10-07T01:58:50Z</time></trkpt>
<trkpt lat="24.970507" lon="102.283786">
<time>2016-10-07T01:58:51Z</time></trkpt>
<trkpt lat="24.970487" lon="102.283547">
<time>2016-10-07T01:58:52Z</time></trkpt>
<trkpt lat="24.970467" lon="102.283247">
<time>2016-10-07T01:58:53Z</time></trkpt>
<trkpt lat="24.970438" lon="102.282977">
<time>2016-10-07T01:58:54Z</time></trkpt>
<trkpt lat="24.970408" lon="102.282708">
<time>2016-10-07T01:58:55Z</time></trkpt>
<trkpt lat="24.970378" lon="102.282498">
<time>2016-10-07T01:58:56Z</time></trkpt>
<trkpt lat="24.970309" lon="102.282158">
<time>2016-10-07T01:58:57Z</time></trkpt>
<trkpt lat="24.97019" lon="102.281529">
<time>2016-10-07T01:58:58Z</time></trkpt>
<trkpt lat="24.97006" lon="102.2809">
<time>2016-10-07T01:58:59Z</time></trkpt>
<trkpt lat="24.970001" lon="102.28047">
<time>2016-10-07T01:59:00Z</time></trkpt>
<trkpt lat="24.969951" lon="102.280171">
<time>2016-10-07T01:59:01Z</time></trkpt>
<trkpt lat="24.969941" lon="102.279991">
<time>2016-10-07T01:59:02Z</time></trkpt>
<trkpt lat="24.969942" lon="102.279831">
<time>2016-10-07T01:59:03Z</time></trkpt>
<trkpt lat="24.969942" lon="102.279701">
<time>2016-10-07T01:59:04Z</time></trkpt>
<trkpt lat="24.969962" lon="102.279561">
<time>2016-10-07T01:59:05Z</time></trkpt>
<trkpt lat="24.969982" lon="102.279481">
<time>2016-10-07T01:59:06Z</time></trkpt>
<trkpt lat="24.970002" lon="102.279401">
<time>2016-10-07T01:59:07Z</time></trkpt>
<trkpt lat="24.970062" lon="102.279142">
<time>2016-10-07T01:59:08Z</time></trkpt>
<trkpt lat="24.970163" lon="102.278662">
<time>2016-10-07T01:59:09Z</time></trkpt>
<trkpt lat="24.970213" lon="102.278422">
<time>2016-10-07T01:59:10Z</time></trkpt>
<trkpt lat="24.970233" lon="102.278293">
<time>2016-10-07T01:59:11Z</time></trkpt>
<trkpt lat="24.970334" lon="102.277853">
<time>2016-10-07T01:59:12Z</time></trkpt>
<trkpt lat="24.970384" lon="102.277453">
<time>2016-10-07T01:59:13Z</time></trkpt>
<trkpt lat="24.970434" lon="102.277054">
<time>2016-10-07T01:59:14Z</time></trkpt>
<trkpt lat="24.970515" lon="102.276654">
<time>2016-10-07T01:59:15Z</time></trkpt>
<trkpt lat="24.970585" lon="102.276265">
<time>2016-10-07T01:59:16Z</time></trkpt>
<trkpt lat="24.970676" lon="102.275725">
<time>2016-10-07T01:59:17Z</time></trkpt>
<trkpt lat="24.970736" lon="102.275355">
<time>2016-10-07T01:59:18Z</time></trkpt>
<trkpt lat="24.970746" lon="102.275305">
<time>2016-10-07T01:59:19Z</time></trkpt>
<trkpt lat="24.970786" lon="102.275136">
<time>2016-10-07T01:59:20Z</time></trkpt>
<trkpt lat="24.970827" lon="102.274966">
<time>2016-10-07T01:59:21Z</time></trkpt>
<trkpt lat="24.970887" lon="102.274716">
<time>2016-10-07T01:59:22Z</time></trkpt>
<trkpt lat="24.970937" lon="102.274506">
<time>2016-10-07T01:59:23Z</time></trkpt>
<trkpt lat="24.971027" lon="102.274156">
<time>2016-10-07T01:59:24Z</time></trkpt>
<trkpt lat="24.971108" lon="102.273817">
<time>2016-10-07T01:59:25Z</time></trkpt>
<trkpt lat="24.971208" lon="102.273437">
<time>2016-10-07T01:59:26Z</time></trkpt>
<trkpt lat="24.971268" lon="102.273187">
<time>2016-10-07T01:59:27Z</time></trkpt>
<trkpt lat="24.971318" lon="102.272937">
<time>2016-10-07T01:59:28Z</time></trkpt>
<trkpt lat="24.971399" lon="102.272618">
<time>2016-10-07T01:59:29Z</time></trkpt>
<trkpt lat="24.971479" lon="102.272288">
<time>2016-10-07T01:59:30Z</time></trkpt>
<trkpt lat="24.971529" lon="102.272098">
<time>2016-10-07T01:59:31Z</time></trkpt>
<trkpt lat="24.971579" lon="102.271928">
<time>2016-10-07T01:59:32Z</time></trkpt>
<trkpt lat="24.971619" lon="102.271708">
<time>2016-10-07T01:59:33Z</time></trkpt>
<trkpt lat="24.971629" lon="102.271649">
<time>2016-10-07T01:59:34Z</time></trkpt>
<trkpt lat="24.97165" lon="102.271529">
<time>2016-10-07T01:59:35Z</time></trkpt>
<trkpt lat="24.97167" lon="102.271399">
<time>2016-10-07T01:59:36Z</time></trkpt>
<trkpt lat="24.97169" lon="102.271269">
<time>2016-10-07T01:59:37Z</time></trkpt>
<trkpt lat="24.97171" lon="102.271079">
<time>2016-10-07T01:59:38Z</time></trkpt>
<trkpt lat="24.97171" lon="102.271019">
<time>2016-10-07T01:59:39Z</time></trkpt>
<trkpt lat="24.97172" lon="102.270909">
<time>2016-10-07T01:59:40Z</time></trkpt>
<trkpt lat="24.97171" lon="102.270759">
<time>2016-10-07T01:59:41Z</time></trkpt>
<trkpt lat="24.97171" lon="102.270629">
<time>2016-10-07T01:59:42Z</time></trkpt>
<trkpt lat="24.97169" lon="102.270499">
<time>2016-10-07T01:59:43Z</time></trkpt>
<trkpt lat="24.971651" lon="102.27031">
<time>2016-10-07T01:59:44Z</time></trkpt>
<trkpt lat="24.971601" lon="102.27008">
<time>2016-10-07T01:59:45Z</time></trkpt>
<trkpt lat="24.971521" lon="102.26977">
<time>2016-10-07T01:59:46Z</time></trkpt>
<trkpt lat="24.971451" lon="102.26954">
<time>2016-10-07T01:59:47Z</time></trkpt>
<trkpt lat="24.971401" lon="102.26945">
<time>2016-10-07T01:59:48Z</time></trkpt>
<trkpt lat="24.971371" lon="102.26939">
<time>2016-10-07T01:59:49Z</time></trkpt>
<trkpt lat="24.971361" lon="102.26938">
<time>2016-10-07T01:59:50Z</time></trkpt>
<trkpt lat="24.971301" lon="102.2693">
<time>2016-10-07T01:59:51Z</time></trkpt>
<trkpt lat="24.971241" lon="102.26924">
<time>2016-10-07T01:59:52Z</time></trkpt>
<trkpt lat="24.971172" lon="102.26918">
<time>2016-10-07T01:59:53Z</time></trkpt>
<trkpt lat="24.971092" lon="102.26912">
<time>2016-10-07T01:59:54Z</time></trkpt>
<trkpt lat="24.970972" lon="102.26905">
<time>2016-10-07T01:59:55Z</time></trkpt>
<trkpt lat="24.970762" lon="102.268901">
<time>2016-10-07T01:59:56Z</time></trkpt>
<trkpt lat="24.970522" lon="102.268761">
<time>2016-10-07T01:59:57Z</time></trkpt>
<trkpt lat="24.970282" lon="102.268631">
<time>2016-10-07T01:59:58Z</time></trkpt>
<trkpt lat="24.970062" lon="102.268491">
<time>2016-10-07T01:59:59Z</time></trkpt>
<trkpt lat="24.969732" lon="102.268271">
<time>2016-10-07T02:00:00Z</time></trkpt>
<trkpt lat="24.969483" lon="102.268081">
<time>2016-10-07T02:00:01Z</time></trkpt>
<trkpt lat="24.969293" lon="102.267921">
<time>2016-10-07T02:00:02Z</time></trkpt>
<trkpt lat="24.969113" lon="102.267761">
<time>2016-10-07T02:00:03Z</time></trkpt>
<trkpt lat="24.968923" lon="102.267551">
<time>2016-10-07T02:00:04Z</time></trkpt>
<trkpt lat="24.968763" lon="102.267372">
<time>2016-10-07T02:00:05Z</time></trkpt>
<trkpt lat="24.968493" lon="102.267072">
<time>2016-10-07T02:00:06Z</time></trkpt>
<trkpt lat="24.968363" lon="102.266942">
<time>2016-10-07T02:00:07Z</time></trkpt>
<trkpt lat="24.968274" lon="102.266842">
<time>2016-10-07T02:00:08Z</time></trkpt>
<trkpt lat="24.968194" lon="102.266762">
<time>2016-10-07T02:00:09Z</time></trkpt>
<trkpt lat="24.968114" lon="102.266712">
<time>2016-10-07T02:00:10Z</time></trkpt>
<trkpt lat="24.968004" lon="102.266642">
<time>2016-10-07T02:00:11Z</time></trkpt>
<trkpt lat="24.967624" lon="102.266442">
<time>2016-10-07T02:00:12Z</time></trkpt>
<trkpt lat="24.967514" lon="102.266382">
<time>2016-10-07T02:00:13Z</time></trkpt>
<trkpt lat="24.967254" lon="102.266282">
<time>2016-10-07T02:00:14Z</time></trkpt>
<trkpt lat="24.966924" lon="102.266132">
<time>2016-10-07T02:00:15Z</time></trkpt>
<trkpt lat="24.966684" lon="102.266002">
<time>2016-10-07T02:00:16Z</time></trkpt>
<trkpt lat="24.966604" lon="102.265932">
<time>2016-10-07T02:00:17Z</time></trkpt>
<trkpt lat="24.966544" lon="102.265863">
<time>2016-10-07T02:00:18Z</time></trkpt>
<trkpt lat="24.966455" lon="102.265743">
<time>2016-10-07T02:00:19Z</time></trkpt>
<trkpt lat="24.966455" lon="102.265733">
<time>2016-10-07T02:00:20Z</time></trkpt>
<trkpt lat="24.966385" lon="102.265623">
<time>2016-10-07T02:00:21Z</time></trkpt>
<trkpt lat="24.966305" lon="102.265453">
<time>2016-10-07T02:00:22Z</time></trkpt>
<trkpt lat="24.966265" lon="102.265313">
<time>2016-10-07T02:00:23Z</time></trkpt>
<trkpt lat="24.966235" lon="102.265173">
<time>2016-10-07T02:00:24Z</time></trkpt>
<trkpt lat="24.966185" lon="102.264853">
<time>2016-10-07T02:00:25Z</time></trkpt>
<trkpt lat="24.966135" lon="102.264543">
<time>2016-10-07T02:00:26Z</time></trkpt>
<trkpt lat="24.966086" lon="102.264213">
<time>2016-10-07T02:00:27Z</time></trkpt>
<trkpt lat="24.966026" lon="102.263944">
<time>2016-10-07T02:00:28Z</time></trkpt>
<trkpt lat="24.965986" lon="102.263754">
<time>2016-10-07T02:00:29Z</time></trkpt>
<trkpt lat="24.965946" lon="102.263644">
<time>2016-10-07T02:00:30Z</time></trkpt>
<trkpt lat="24.965906" lon="102.263534">
<time>2016-10-07T02:00:31Z</time></trkpt>
<trkpt lat="24.965866" lon="102.263444">
<time>2016-10-07T02:00:32Z</time></trkpt>
<trkpt lat="24.965826" lon="102.263374">
<time>2016-10-07T02:00:33Z</time></trkpt>
<trkpt lat="24.965766" lon="102.263274">
<time>2016-10-07T02:00:34Z</time></trkpt>
<trkpt lat="24.965696" lon="102.263194">
<time>2016-10-07T02:00:35Z</time></trkpt>
<trkpt lat="24.965566" lon="102.263044">
<time>2016-10-07T02:00:36Z</time></trkpt>
<trkpt lat="24.965386" lon="102.262834">
<time>2016-10-07T02:00:37Z</time></trkpt>
<trkpt lat="24.965227" lon="102.262664">
<time>2016-10-07T02:00:38Z</time></trkpt>
<trkpt lat="24.965167" lon="102.262604">
<time>2016-10-07T02:00:39Z</time></trkpt>
<trkpt lat="24.965017" lon="102.262444">
<time>2016-10-07T02:00:40Z</time></trkpt>
<trkpt lat="24.964807" lon="102.262204">
<time>2016-10-07T02:00:41Z</time></trkpt>
<trkpt lat="24.964657" lon="102.262024">
<time>2016-10-07T02:00:42Z</time></trkpt>
<trkpt lat="24.964577" lon="102.261944">
<time>2016-10-07T02:00:43Z</time></trkpt>
<trkpt lat="24.964347" lon="102.261695">
<time>2016-10-07T02:00:44Z</time></trkpt>
<trkpt lat="24.964137" lon="102.261465">
<time>2016-10-07T02:00:45Z</time></trkpt>
<trkpt lat="24.964017" lon="102.261335">
<time>2016-10-07T02:00:46Z</time></trkpt>
<trkpt lat="24.963808" lon="102.261085">
<time>2016-10-07T02:00:47Z</time></trkpt>
<trkpt lat="24.963638" lon="102.260875">
<time>2016-10-07T02:00:48Z</time></trkpt>
<trkpt lat="24.963548" lon="102.260735">
<time>2016-10-07T02:00:49Z</time></trkpt>
<trkpt lat="24.963488" lon="102.260605">
<time>2016-10-07T02:00:50Z</time></trkpt>
<trkpt lat="24.963438" lon="102.260485">
<time>2016-10-07T02:00:51Z</time></trkpt>
<trkpt lat="24.963428" lon="102.260465">
<time>2016-10-07T02:00:52Z</time></trkpt>
<trkpt lat="24.963388" lon="102.260295">
<time>2016-10-07T02:00:53Z</time></trkpt>
<trkpt lat="24.963378" lon="102.260165">
<time>2016-10-07T02:00:54Z</time></trkpt>
<trkpt lat="24.963368" lon="102.260035">
<time>2016-10-07T02:00:55Z</time></trkpt>
<trkpt lat="24.963368" lon="102.259845">
<time>2016-10-07T02:00:56Z</time></trkpt>
<trkpt lat="24.963388" lon="102.259605">
<time>2016-10-07T02:00:57Z</time></trkpt>
<trkpt lat="24.963398" lon="102.259415">
<time>2016-10-07T02:00:58Z</time></trkpt>
<trkpt lat="24.963428" lon="102.259085">
<time>2016-10-07T02:00:59Z</time></trkpt>
<trkpt lat="24.963469" lon="102.258756">
<time>2016-10-07T02:01:00Z</time></trkpt>
<trkpt lat="24.963509" lon="102.258436">
<time>2016-10-07T02:01:01Z</time></trkpt>
<trkpt lat="24.963539" lon="102.258076">
<time>2016-10-07T02:01:02Z</time></trkpt>
<trkpt lat="24.963579" lon="102.257706">
<time>2016-10-07T02:01:03Z</time></trkpt>
<trkpt lat="24.963609" lon="102.257436">
<time>2016-10-07T02:01:04Z</time></trkpt>
<trkpt lat="24.963629" lon="102.257236">
<time>2016-10-07T02:01:05Z</time></trkpt>
<trkpt lat="24.963639" lon="102.257066">
<time>2016-10-07T02:01:06Z</time></trkpt>
<trkpt lat="24.963629" lon="102.256926">
<time>2016-10-07T02:01:07Z</time></trkpt>
<trkpt lat="24.963619" lon="102.256806">
<time>2016-10-07T02:01:08Z</time></trkpt>
<trkpt lat="24.963579" lon="102.256636">
<time>2016-10-07T02:01:09Z</time></trkpt>
<trkpt lat="24.963579" lon="102.256616">
<time>2016-10-07T02:01:10Z</time></trkpt>
<trkpt lat="24.963519" lon="102.256386">
<time>2016-10-07T02:01:11Z</time></trkpt>
<trkpt lat="24.96334" lon="102.255746">
<time>2016-10-07T02:01:12Z</time></trkpt>
<trkpt lat="24.96317" lon="102.255146">
<time>2016-10-07T02:01:13Z</time></trkpt>
<trkpt lat="24.9631" lon="102.254966">
<time>2016-10-07T02:01:14Z</time></trkpt>
<trkpt lat="24.96304" lon="102.254856">
<time>2016-10-07T02:01:15Z</time></trkpt>
<trkpt lat="24.96298" lon="102.254766">
<time>2016-10-07T02:01:16Z</time></trkpt>
<trkpt lat="24.96293" lon="102.254686">
<time>2016-10-07T02:01:17Z</time></trkpt>
<trkpt lat="24.96287" lon="102.254616">
<time>2016-10-07T02:01:18Z</time></trkpt>
<trkpt lat="24.96278" lon="102.254516">
<time>2016-10-07T02:01:19Z</time></trkpt>
<trkpt lat="24.96265" lon="102.254386">
<time>2016-10-07T02:01:20Z</time></trkpt>
<trkpt lat="24.96251" lon="102.254246">
<time>2016-10-07T02:01:21Z</time></trkpt>
<trkpt lat="24.96235" lon="102.254076">
<time>2016-10-07T02:01:22Z</time></trkpt>
<trkpt lat="24.96208" lon="102.253756">
<time>2016-10-07T02:01:23Z</time></trkpt>
<trkpt lat="24.96192" lon="102.253526">
<time>2016-10-07T02:01:24Z</time></trkpt>
<trkpt lat="24.96183" lon="102.253326">
<time>2016-10-07T02:01:25Z</time></trkpt>
<trkpt lat="24.96176" lon="102.253156">
<time>2016-10-07T02:01:26Z</time></trkpt>
<trkpt lat="24.96173" lon="102.252986">
<time>2016-10-07T02:01:27Z</time></trkpt>
<trkpt lat="24.96171" lon="102.252866">
<time>2016-10-07T02:01:28Z</time></trkpt>
<trkpt lat="24.96171" lon="102.252616">
<time>2016-10-07T02:01:29Z</time></trkpt>
<trkpt lat="24.96171" lon="102.252596">
<time>2016-10-07T02:01:30Z</time></trkpt>
<trkpt lat="24.961711" lon="102.252316">
<time>2016-10-07T02:01:31Z</time></trkpt>
<trkpt lat="24.961701" lon="102.252036">
<time>2016-10-07T02:01:32Z</time></trkpt>
<trkpt lat="24.961711" lon="102.251746">
<time>2016-10-07T02:01:33Z</time></trkpt>
<trkpt lat="24.961721" lon="102.251466">
<time>2016-10-07T02:01:34Z</time></trkpt>
<trkpt lat="24.961711" lon="102.251316">
<time>2016-10-07T02:01:35Z</time></trkpt>
<trkpt lat="24.961711" lon="102.251246">
<time>2016-10-07T02:01:36Z</time></trkpt>
<trkpt lat="24.961701" lon="102.250996">
<time>2016-10-07T02:01:37Z</time></trkpt>
<trkpt lat="24.961681" lon="102.250786">
<time>2016-10-07T02:01:38Z</time></trkpt>
<trkpt lat="24.961521" lon="102.250016">
<time>2016-10-07T02:01:39Z</time></trkpt>
<trkpt lat="24.961491" lon="102.249906">
<time>2016-10-07T02:01:40Z</time></trkpt>
<trkpt lat="24.961421" lon="102.249736">
<time>2016-10-07T02:01:41Z</time></trkpt>
<trkpt lat="24.961341" lon="102.249496">
<time>2016-10-07T02:01:42Z</time></trkpt>
<trkpt lat="24.961271" lon="102.249266">
<time>2016-10-07T02:01:43Z</time></trkpt>
<trkpt lat="24.961211" lon="102.249006">
<time>2016-10-07T02:01:44Z</time></trkpt>
<trkpt lat="24.961171" lon="102.248746">
<time>2016-10-07T02:01:45Z</time></trkpt>
<trkpt lat="24.961131" lon="102.248446">
<time>2016-10-07T02:01:46Z</time></trkpt>
<trkpt lat="24.961101" lon="102.248206">
<time>2016-10-07T02:01:47Z</time></trkpt>
<trkpt lat="24.961071" lon="102.247936">
<time>2016-10-07T02:01:48Z</time></trkpt>
<trkpt lat="24.961051" lon="102.247666">
<time>2016-10-07T02:01:49Z</time></trkpt>
<trkpt lat="24.961031" lon="102.247376">
<time>2016-10-07T02:01:50Z</time></trkpt>
<trkpt lat="24.960961" lon="102.246976">
<time>2016-10-07T02:01:51Z</time></trkpt>
<trkpt lat="24.960931" lon="102.246846">
<time>2016-10-07T02:01:52Z</time></trkpt>
<trkpt lat="24.960881" lon="102.246736">
<time>2016-10-07T02:01:53Z</time></trkpt>
<trkpt lat="24.960831" lon="102.246656">
<time>2016-10-07T02:01:54Z</time></trkpt>
<trkpt lat="24.960781" lon="102.246576">
<time>2016-10-07T02:01:55Z</time></trkpt>
<trkpt lat="24.960761" lon="102.246556">
<time>2016-10-07T02:01:56Z</time></trkpt>
<trkpt lat="24.960761" lon="102.246556">
<time>2016-10-07T02:01:57Z</time></trkpt>
<trkpt lat="24.961161" lon="102.245125">
<time>2016-10-07T02:01:58Z</time></trkpt>
<trkpt lat="24.96195" lon="102.243615">
<time>2016-10-07T02:01:59Z</time></trkpt>
<trkpt lat="24.96208" lon="102.243425">
<time>2016-10-07T02:02:00Z</time></trkpt>
<trkpt lat="24.96226" lon="102.243354">
<time>2016-10-07T02:02:01Z</time></trkpt>
<trkpt lat="24.96265" lon="102.243284">
<time>2016-10-07T02:02:02Z</time></trkpt>
<trkpt lat="24.96265" lon="102.243284">
<time>2016-10-07T02:02:03Z</time></trkpt>
<trkpt lat="24.96248" lon="102.242974">
<time>2016-10-07T02:02:04Z</time></trkpt>
<trkpt lat="24.9624" lon="102.242614">
<time>2016-10-07T02:02:05Z</time></trkpt>
<trkpt lat="24.96233" lon="102.242324">
<time>2016-10-07T02:02:06Z</time></trkpt>
<trkpt lat="24.96233" lon="102.242324">
<time>2016-10-07T02:02:07Z</time></trkpt>
<trkpt lat="24.96282" lon="102.241184">
<time>2016-10-07T02:02:08Z</time></trkpt>
<trkpt lat="24.963189" lon="102.240323">
<time>2016-10-07T02:02:09Z</time></trkpt>
<trkpt lat="24.963189" lon="102.240323">
<time>2016-10-07T02:02:10Z</time></trkpt>
<trkpt lat="24.962279" lon="102.239663">
<time>2016-10-07T02:02:11Z</time></trkpt>
<trkpt lat="24.961389" lon="102.239002">
<time>2016-10-07T02:02:12Z</time></trkpt>
<trkpt lat="24.960799" lon="102.238572">
<time>2016-10-07T02:02:13Z</time></trkpt>
<trkpt lat="24.960269" lon="102.238192">
<time>2016-10-07T02:02:14Z</time></trkpt>
<trkpt lat="24.959639" lon="102.237732">
<time>2016-10-07T02:02:15Z</time></trkpt>
<trkpt lat="24.959389" lon="102.237562">
<time>2016-10-07T02:02:16Z</time></trkpt>
<trkpt lat="24.959079" lon="102.237371">
<time>2016-10-07T02:02:17Z</time></trkpt>
<trkpt lat="24.958679" lon="102.237141">
<time>2016-10-07T02:02:18Z</time></trkpt>
<trkpt lat="24.957629" lon="102.236631">
<time>2016-10-07T02:02:19Z</time></trkpt>
<trkpt lat="24.956419" lon="102.236051">
<time>2016-10-07T02:02:20Z</time></trkpt>
<trkpt lat="24.955399" lon="102.23555">
<time>2016-10-07T02:02:21Z</time></trkpt>
<trkpt lat="24.954078" lon="102.23492">
<time>2016-10-07T02:02:22Z</time></trkpt>
<trkpt lat="24.953208" lon="102.2345">
<time>2016-10-07T02:02:23Z</time></trkpt>
<trkpt lat="24.952248" lon="102.234059">
<time>2016-10-07T02:02:24Z</time></trkpt>
<trkpt lat="24.951438" lon="102.233639">
<time>2016-10-07T02:02:25Z</time></trkpt>
<trkpt lat="24.951348" lon="102.233589">
<time>2016-10-07T02:02:26Z</time></trkpt>
<trkpt lat="24.950848" lon="102.233349">
<time>2016-10-07T02:02:27Z</time></trkpt>
<trkpt lat="24.950488" lon="102.233169">
<time>2016-10-07T02:02:28Z</time></trkpt>
<trkpt lat="24.950008" lon="102.232878">
<time>2016-10-07T02:02:29Z</time></trkpt>
<trkpt lat="24.949598" lon="102.232558">
<time>2016-10-07T02:02:30Z</time></trkpt>
<trkpt lat="24.949117" lon="102.232148">
<time>2016-10-07T02:02:31Z</time></trkpt>
<trkpt lat="24.948327" lon="102.231457">
<time>2016-10-07T02:02:32Z</time></trkpt>
<trkpt lat="24.947967" lon="102.231147">
<time>2016-10-07T02:02:33Z</time></trkpt>
<trkpt lat="24.947587" lon="102.230847">
<time>2016-10-07T02:02:34Z</time></trkpt>
<trkpt lat="24.947257" lon="102.230606">
<time>2016-10-07T02:02:35Z</time></trkpt>
<trkpt lat="24.946867" lon="102.230366">
<time>2016-10-07T02:02:36Z</time></trkpt>
<trkpt lat="24.946286" lon="102.230026">
<time>2016-10-07T02:02:37Z</time></trkpt>
<trkpt lat="24.945736" lon="102.229686">
<time>2016-10-07T02:02:38Z</time></trkpt>
<trkpt lat="24.945346" lon="102.229415">
<time>2016-10-07T02:02:39Z</time></trkpt>
<trkpt lat="24.945036" lon="102.229155">
<time>2016-10-07T02:02:40Z</time></trkpt>
<trkpt lat="24.944136" lon="102.228334">
<time>2016-10-07T02:02:41Z</time></trkpt>
<trkpt lat="24.943055" lon="102.227343">
<time>2016-10-07T02:02:42Z</time></trkpt>
<trkpt lat="24.941874" lon="102.226262">
<time>2016-10-07T02:02:43Z</time></trkpt>
<trkpt lat="24.941544" lon="102.225972">
<time>2016-10-07T02:02:44Z</time></trkpt>
<trkpt lat="24.940774" lon="102.225351">
<time>2016-10-07T02:02:45Z</time></trkpt>
<trkpt lat="24.939703" lon="102.22452">
<time>2016-10-07T02:02:46Z</time></trkpt>
<trkpt lat="24.939213" lon="102.22414">
<time>2016-10-07T02:02:47Z</time></trkpt>
<trkpt lat="24.938773" lon="102.22388">
<time>2016-10-07T02:02:48Z</time></trkpt>
<trkpt lat="24.938773" lon="102.22388">
<time>2016-10-07T02:02:49Z</time></trkpt>
<trkpt lat="24.938832" lon="102.223189">
<time>2016-10-07T02:02:50Z</time></trkpt>
<trkpt lat="24.938852" lon="102.223029">
<time>2016-10-07T02:02:51Z</time></trkpt>
<trkpt lat="24.938882" lon="102.222838">
<time>2016-10-07T02:02:52Z</time></trkpt>
<trkpt lat="24.938911" lon="102.222688">
<time>2016-10-07T02:02:53Z</time></trkpt>
<trkpt lat="24.938941" lon="102.222538">
<time>2016-10-07T02:02:54Z</time></trkpt>
<trkpt lat="24.938971" lon="102.222438">
<time>2016-10-07T02:02:55Z</time></trkpt>
<trkpt lat="24.939001" lon="102.222338">
<time>2016-10-07T02:02:56Z</time></trkpt>
<trkpt lat="24.939021" lon="102.222278">
<time>2016-10-07T02:02:57Z</time></trkpt>
<trkpt lat="24.939051" lon="102.222198">
<time>2016-10-07T02:02:58Z</time></trkpt>
<trkpt lat="24.939101" lon="102.222077">
<time>2016-10-07T02:02:59Z</time></trkpt>
<trkpt lat="24.939191" lon="102.221857">
<time>2016-10-07T02:03:00Z</time></trkpt>
<trkpt lat="24.939749" lon="102.220616">
<time>2016-10-07T02:03:01Z</time></trkpt>
<trkpt lat="24.940178" lon="102.219664">
<time>2016-10-07T02:03:02Z</time></trkpt>
<trkpt lat="24.940298" lon="102.219374">
<time>2016-10-07T02:03:03Z</time></trkpt>
<trkpt lat="24.940428" lon="102.219063">
<time>2016-10-07T02:03:04Z</time></trkpt>
<trkpt lat="24.940587" lon="102.218723">
<time>2016-10-07T02:03:05Z</time></trkpt>
<trkpt lat="24.940687" lon="102.218473">
<time>2016-10-07T02:03:06Z</time></trkpt>
<trkpt lat="24.940777" lon="102.218282">
<time>2016-10-07T02:03:07Z</time></trkpt>
<trkpt lat="24.940817" lon="102.218172">
<time>2016-10-07T02:03:08Z</time></trkpt>
<trkpt lat="24.940926" lon="102.217842">
<time>2016-10-07T02:03:09Z</time></trkpt>
<trkpt lat="24.941424" lon="102.215969">
<time>2016-10-07T02:03:10Z</time></trkpt>
<trkpt lat="24.941534" lon="102.215548">
<time>2016-10-07T02:03:11Z</time></trkpt>
<trkpt lat="24.941564" lon="102.215428">
<time>2016-10-07T02:03:12Z</time></trkpt>
<trkpt lat="24.941623" lon="102.215268">
<time>2016-10-07T02:03:13Z</time></trkpt>
<trkpt lat="24.941683" lon="102.215118">
<time>2016-10-07T02:03:14Z</time></trkpt>
<trkpt lat="24.941733" lon="102.215018">
<time>2016-10-07T02:03:15Z</time></trkpt>
<trkpt lat="24.941773" lon="102.214948">
<time>2016-10-07T02:03:16Z</time></trkpt>
<trkpt lat="24.941863" lon="102.214807">
<time>2016-10-07T02:03:17Z</time></trkpt>
<trkpt lat="24.941923" lon="102.214717">
<time>2016-10-07T02:03:18Z</time></trkpt>
<trkpt lat="24.941983" lon="102.214637">
<time>2016-10-07T02:03:19Z</time></trkpt>
<trkpt lat="24.942122" lon="102.214487">
<time>2016-10-07T02:03:20Z</time></trkpt>
<trkpt lat="24.942262" lon="102.214337">
<time>2016-10-07T02:03:21Z</time></trkpt>
<trkpt lat="24.942422" lon="102.214216">
<time>2016-10-07T02:03:22Z</time></trkpt>
<trkpt lat="24.942542" lon="102.214146">
<time>2016-10-07T02:03:23Z</time></trkpt>
<trkpt lat="24.942652" lon="102.214066">
<time>2016-10-07T02:03:24Z</time></trkpt>
<trkpt lat="24.942832" lon="102.213956">
<time>2016-10-07T02:03:25Z</time></trkpt>
<trkpt lat="24.943061" lon="102.213836">
<time>2016-10-07T02:03:26Z</time></trkpt>
<trkpt lat="24.943151" lon="102.213786">
<time>2016-10-07T02:03:27Z</time></trkpt>
<trkpt lat="24.943201" lon="102.213756">
<time>2016-10-07T02:03:28Z</time></trkpt>
<trkpt lat="24.943691" lon="102.213495">
<time>2016-10-07T02:03:29Z</time></trkpt>
<trkpt lat="24.943921" lon="102.213365">
<time>2016-10-07T02:03:30Z</time></trkpt>
<trkpt lat="24.944051" lon="102.213285">
<time>2016-10-07T02:03:31Z</time></trkpt>
<trkpt lat="24.944211" lon="102.213185">
<time>2016-10-07T02:03:32Z</time></trkpt>
<trkpt lat="24.94435" lon="102.213085">
<time>2016-10-07T02:03:33Z</time></trkpt>
<trkpt lat="24.94445" lon="102.213004">
<time>2016-10-07T02:03:34Z</time></trkpt>
<trkpt lat="24.9447" lon="102.212794">
<time>2016-10-07T02:03:35Z</time></trkpt>
<trkpt lat="24.94485" lon="102.212644">
<time>2016-10-07T02:03:36Z</time></trkpt>
<trkpt lat="24.945059" lon="102.212413">
<time>2016-10-07T02:03:37Z</time></trkpt>
<trkpt lat="24.945728" lon="102.211682">
<time>2016-10-07T02:03:38Z</time></trkpt>
<trkpt lat="24.946298" lon="102.211061">
<time>2016-10-07T02:03:39Z</time></trkpt>
<trkpt lat="24.946757" lon="102.21056">
<time>2016-10-07T02:03:40Z</time></trkpt>
<trkpt lat="24.946907" lon="102.21041">
<time>2016-10-07T02:03:41Z</time></trkpt>
<trkpt lat="24.947076" lon="102.21026">
<time>2016-10-07T02:03:42Z</time></trkpt>
<trkpt lat="24.947296" lon="102.21008">
<time>2016-10-07T02:03:43Z</time></trkpt>
<trkpt lat="24.947536" lon="102.209889">
<time>2016-10-07T02:03:44Z</time></trkpt>
<trkpt lat="24.947736" lon="102.209739">
<time>2016-10-07T02:03:45Z</time></trkpt>
<trkpt lat="24.948115" lon="102.209469">
<time>2016-10-07T02:03:46Z</time></trkpt>
<trkpt lat="24.950932" lon="102.207505">
<time>2016-10-07T02:03:47Z</time></trkpt>
<trkpt lat="24.95283" lon="102.206183">
<time>2016-10-07T02:03:48Z</time></trkpt>
<trkpt lat="24.95308" lon="102.206012">
<time>2016-10-07T02:03:49Z</time></trkpt>
<trkpt lat="24.95316" lon="102.205952">
<time>2016-10-07T02:03:50Z</time></trkpt>
<trkpt lat="24.95325" lon="102.205872">
<time>2016-10-07T02:03:51Z</time></trkpt>
<trkpt lat="24.95329" lon="102.205832">
<time>2016-10-07T02:03:52Z</time></trkpt>
<trkpt lat="24.95333" lon="102.205782">
<time>2016-10-07T02:03:53Z</time></trkpt>
<trkpt lat="24.953359" lon="102.205742">
<time>2016-10-07T02:03:54Z</time></trkpt>
<trkpt lat="24.953379" lon="102.205722">
<time>2016-10-07T02:03:55Z</time></trkpt>
<trkpt lat="24.953389" lon="102.205672">
<time>2016-10-07T02:03:56Z</time></trkpt>
<trkpt lat="24.953399" lon="102.205632">
<time>2016-10-07T02:03:57Z</time></trkpt>
<trkpt lat="24.953409" lon="102.205612">
<time>2016-10-07T02:03:58Z</time></trkpt>
<trkpt lat="24.953409" lon="102.205592">
<time>2016-10-07T02:03:59Z</time></trkpt>
<trkpt lat="24.953409" lon="102.205572">
<time>2016-10-07T02:04:00Z</time></trkpt>
<trkpt lat="24.953409" lon="102.205542">
<time>2016-10-07T02:04:01Z</time></trkpt>
<trkpt lat="24.953409" lon="102.205512">
<time>2016-10-07T02:04:02Z</time></trkpt>
<trkpt lat="24.953409" lon="102.205492">
<time>2016-10-07T02:04:03Z</time></trkpt>
<trkpt lat="24.953399" lon="102.205451">
<time>2016-10-07T02:04:04Z</time></trkpt>
<trkpt lat="24.953389" lon="102.205421">
<time>2016-10-07T02:04:05Z</time></trkpt>
<trkpt lat="24.953379" lon="102.205401">
<time>2016-10-07T02:04:06Z</time></trkpt>
<trkpt lat="24.953359" lon="102.205371">
<time>2016-10-07T02:04:07Z</time></trkpt>
<trkpt lat="24.953349" lon="102.205341">
<time>2016-10-07T02:04:08Z</time></trkpt>
<trkpt lat="24.953319" lon="102.205301">
<time>2016-10-07T02:04:09Z</time></trkpt>
<trkpt lat="24.953289" lon="102.205261">
<time>2016-10-07T02:04:10Z</time></trkpt>
<trkpt lat="24.953239" lon="102.205211">
<time>2016-10-07T02:04:11Z</time></trkpt>
<trkpt lat="24.953159" lon="102.205151">
<time>2016-10-07T02:04:12Z</time></trkpt>
<trkpt lat="24.953079" lon="102.205091">
<time>2016-10-07T02:04:13Z</time></trkpt>
<trkpt lat="24.952989" lon="102.205041">
<time>2016-10-07T02:04:14Z</time></trkpt>
<trkpt lat="24.952918" lon="102.204981">
<time>2016-10-07T02:04:15Z</time></trkpt>
<trkpt lat="24.952778" lon="102.2049">
<time>2016-10-07T02:04:16Z</time></trkpt>
<trkpt lat="24.952268" lon="102.20459">
<time>2016-10-07T02:04:17Z</time></trkpt>
<trkpt lat="24.951547" lon="102.204159">
<time>2016-10-07T02:04:18Z</time></trkpt>
<trkpt lat="24.951187" lon="102.203929">
<time>2016-10-07T02:04:19Z</time></trkpt>
<trkpt lat="24.951067" lon="102.203849">
<time>2016-10-07T02:04:20Z</time></trkpt>
<trkpt lat="24.950957" lon="102.203768">
<time>2016-10-07T02:04:21Z</time></trkpt>
<trkpt lat="24.950837" lon="102.203638">
<time>2016-10-07T02:04:22Z</time></trkpt>
<trkpt lat="24.950787" lon="102.203588">
<time>2016-10-07T02:04:23Z</time></trkpt>
<trkpt lat="24.950727" lon="102.203508">
<time>2016-10-07T02:04:24Z</time></trkpt>
<trkpt lat="24.950676" lon="102.203428">
<time>2016-10-07T02:04:25Z</time></trkpt>
<trkpt lat="24.950636" lon="102.203358">
<time>2016-10-07T02:04:26Z</time></trkpt>
<trkpt lat="24.950606" lon="102.203298">
<time>2016-10-07T02:04:27Z</time></trkpt>
<trkpt lat="24.950596" lon="102.203258">
<time>2016-10-07T02:04:28Z</time></trkpt>
<trkpt lat="24.950576" lon="102.203197">
<time>2016-10-07T02:04:29Z</time></trkpt>
<trkpt lat="24.950546" lon="102.203057">
<time>2016-10-07T02:04:30Z</time></trkpt>
<trkpt lat="24.950536" lon="102.202937">
<time>2016-10-07T02:04:31Z</time></trkpt>
<trkpt lat="24.950526" lon="102.202777">
<time>2016-10-07T02:04:32Z</time></trkpt>
<trkpt lat="24.950515" lon="102.202616">
<time>2016-10-07T02:04:33Z</time></trkpt>
<trkpt lat="24.950515" lon="102.202346">
<time>2016-10-07T02:04:34Z</time></trkpt>
<trkpt lat="24.950534" lon="102.202055">
<time>2016-10-07T02:04:35Z</time></trkpt>
<trkpt lat="24.950554" lon="102.201785">
<time>2016-10-07T02:04:36Z</time></trkpt>
<trkpt lat="24.950593" lon="102.201244">
<time>2016-10-07T02:04:37Z</time></trkpt>
<trkpt lat="24.950692" lon="102.200362">
<time>2016-10-07T02:04:38Z</time></trkpt>
<trkpt lat="24.950741" lon="102.199971">
<time>2016-10-07T02:04:39Z</time></trkpt>
<trkpt lat="24.950791" lon="102.199801">
<time>2016-10-07T02:04:40Z</time></trkpt>
<trkpt lat="24.950831" lon="102.199641">
<time>2016-10-07T02:04:41Z</time></trkpt>
<trkpt lat="24.950861" lon="102.19956">
<time>2016-10-07T02:04:42Z</time></trkpt>
<trkpt lat="24.95089" lon="102.19946">
<time>2016-10-07T02:04:43Z</time></trkpt>
<trkpt lat="24.95094" lon="102.19933">
<time>2016-10-07T02:04:44Z</time></trkpt>
<trkpt lat="24.95098" lon="102.19925">
<time>2016-10-07T02:04:45Z</time></trkpt>
<trkpt lat="24.95106" lon="102.19911">
<time>2016-10-07T02:04:46Z</time></trkpt>
<trkpt lat="24.95117" lon="102.198939">
<time>2016-10-07T02:04:47Z</time></trkpt>
<trkpt lat="24.951299" lon="102.198759">
<time>2016-10-07T02:04:48Z</time></trkpt>
<trkpt lat="24.951459" lon="102.198508">
<time>2016-10-07T02:04:49Z</time></trkpt>
<trkpt lat="24.951588" lon="102.198288">
<time>2016-10-07T02:04:50Z</time></trkpt>
<trkpt lat="24.951718" lon="102.198098">
<time>2016-10-07T02:04:51Z</time></trkpt>
<trkpt lat="24.951977" lon="102.197627">
<time>2016-10-07T02:04:52Z</time></trkpt>
<trkpt lat="24.952167" lon="102.197286">
<time>2016-10-07T02:04:53Z</time></trkpt>
<trkpt lat="24.952296" lon="102.197045">
<time>2016-10-07T02:04:54Z</time></trkpt>
<trkpt lat="24.952964" lon="102.195793">
<time>2016-10-07T02:04:55Z</time></trkpt>
<trkpt lat="24.953104" lon="102.195562">
<time>2016-10-07T02:04:56Z</time></trkpt>
<trkpt lat="24.953204" lon="102.195432">
<time>2016-10-07T02:04:57Z</time></trkpt>
<trkpt lat="24.953383" lon="102.195192">
<time>2016-10-07T02:04:58Z</time></trkpt>
<trkpt lat="24.953982" lon="102.19448">
<time>2016-10-07T02:04:59Z</time></trkpt>
<trkpt lat="24.954261" lon="102.19416">
<time>2016-10-07T02:05:00Z</time></trkpt>
<trkpt lat="24.954271" lon="102.19415">
<time>2016-10-07T02:05:01Z</time></trkpt>
<trkpt lat="24.954431" lon="102.193979">
<time>2016-10-07T02:05:02Z</time></trkpt>
<trkpt lat="24.954571" lon="102.193799">
<time>2016-10-07T02:05:03Z</time></trkpt>
<trkpt lat="24.9549" lon="102.193428">
<time>2016-10-07T02:05:04Z</time></trkpt>
<trkpt lat="24.95499" lon="102.193308">
<time>2016-10-07T02:05:05Z</time></trkpt>
<trkpt lat="24.95505" lon="102.193228">
<time>2016-10-07T02:05:06Z</time></trkpt>
<trkpt lat="24.95508" lon="102.193198">
<time>2016-10-07T02:05:07Z</time></trkpt>
<trkpt lat="24.955119" lon="102.193127">
<time>2016-10-07T02:05:08Z</time></trkpt>
<trkpt lat="24.955159" lon="102.193047">
<time>2016-10-07T02:05:09Z</time></trkpt>
<trkpt lat="24.955179" lon="102.192987">
<time>2016-10-07T02:05:10Z</time></trkpt>
<trkpt lat="24.955209" lon="102.192887">
<time>2016-10-07T02:05:11Z</time></trkpt>
<trkpt lat="24.955239" lon="102.192787">
<time>2016-10-07T02:05:12Z</time></trkpt>
<trkpt lat="24.955249" lon="102.192696">
<time>2016-10-07T02:05:13Z</time></trkpt>
<trkpt lat="24.955249" lon="102.192636">
<time>2016-10-07T02:05:14Z</time></trkpt>
<trkpt lat="24.955249" lon="102.192586">
<time>2016-10-07T02:05:15Z</time></trkpt>
<trkpt lat="24.955248" lon="102.192516">
<time>2016-10-07T02:05:16Z</time></trkpt>
<trkpt lat="24.955238" lon="102.192446">
<time>2016-10-07T02:05:17Z</time></trkpt>
<trkpt lat="24.955228" lon="102.192386">
<time>2016-10-07T02:05:18Z</time></trkpt>
<trkpt lat="24.955208" lon="102.192316">
<time>2016-10-07T02:05:19Z</time></trkpt>
<trkpt lat="24.955188" lon="102.192256">
<time>2016-10-07T02:05:20Z</time></trkpt>
<trkpt lat="24.955168" lon="102.192205">
<time>2016-10-07T02:05:21Z</time></trkpt>
<trkpt lat="24.955138" lon="102.192145">
<time>2016-10-07T02:05:22Z</time></trkpt>
<trkpt lat="24.955098" lon="102.192065">
<time>2016-10-07T02:05:23Z</time></trkpt>
<trkpt lat="24.955027" lon="102.191945">
<time>2016-10-07T02:05:24Z</time></trkpt>
<trkpt lat="24.954867" lon="102.191654">
<time>2016-10-07T02:05:25Z</time></trkpt>
<trkpt lat="24.954807" lon="102.191534">
<time>2016-10-07T02:05:26Z</time></trkpt>
<trkpt lat="24.954777" lon="102.191464">
<time>2016-10-07T02:05:27Z</time></trkpt>
<trkpt lat="24.954757" lon="102.191404">
<time>2016-10-07T02:05:28Z</time></trkpt>
<trkpt lat="24.954736" lon="102.191344">
<time>2016-10-07T02:05:29Z</time></trkpt>
<trkpt lat="24.954716" lon="102.191253">
<time>2016-10-07T02:05:30Z</time></trkpt>
<trkpt lat="24.954706" lon="102.191183">
<time>2016-10-07T02:05:31Z</time></trkpt>
<trkpt lat="24.954696" lon="102.191123">
<time>2016-10-07T02:05:32Z</time></trkpt>
<trkpt lat="24.954696" lon="102.191043">
<time>2016-10-07T02:05:33Z</time></trkpt>
<trkpt lat="24.954686" lon="102.190953">
<time>2016-10-07T02:05:34Z</time></trkpt>
<trkpt lat="24.954686" lon="102.190853">
<time>2016-10-07T02:05:35Z</time></trkpt>
<trkpt lat="24.954695" lon="102.190752">
<time>2016-10-07T02:05:36Z</time></trkpt>
<trkpt lat="24.954705" lon="102.190632">
<time>2016-10-07T02:05:37Z</time></trkpt>
<trkpt lat="24.954774" lon="102.18987">
<time>2016-10-07T02:05:38Z</time></trkpt>
<trkpt lat="24.954784" lon="102.1898">
<time>2016-10-07T02:05:39Z</time></trkpt>
<trkpt lat="24.954784" lon="102.18973">
<time>2016-10-07T02:05:40Z</time></trkpt>
<trkpt lat="24.954804" lon="102.18968">
<time>2016-10-07T02:05:41Z</time></trkpt>
<trkpt lat="24.954833" lon="102.1896">
<time>2016-10-07T02:05:42Z</time></trkpt>
<trkpt lat="24.954853" lon="102.18956">
<time>2016-10-07T02:05:43Z</time></trkpt>
<trkpt lat="24.954883" lon="102.18951">
<time>2016-10-07T02:05:44Z</time></trkpt>
<trkpt lat="24.954913" lon="102.18947">
<time>2016-10-07T02:05:45Z</time></trkpt>
<trkpt lat="24.954953" lon="102.18943">
<time>2016-10-07T02:05:46Z</time></trkpt>
<trkpt lat="24.954983" lon="102.189409">
<time>2016-10-07T02:05:47Z</time></trkpt>
<trkpt lat="24.955033" lon="102.189379">
<time>2016-10-07T02:05:48Z</time></trkpt>
<trkpt lat="24.955083" lon="102.189349">
<time>2016-10-07T02:05:49Z</time></trkpt>
<trkpt lat="24.955173" lon="102.189309">
<time>2016-10-07T02:05:50Z</time></trkpt>
<trkpt lat="24.955293" lon="102.189269">
<time>2016-10-07T02:05:51Z</time></trkpt>
<trkpt lat="24.956232" lon="102.188999">
<time>2016-10-07T02:05:52Z</time></trkpt>
<trkpt lat="24.956482" lon="102.188958">
<time>2016-10-07T02:05:53Z</time></trkpt>
<trkpt lat="24.956752" lon="102.188918">
<time>2016-10-07T02:05:54Z</time></trkpt>
<trkpt lat="24.957012" lon="102.188888">
<time>2016-10-07T02:05:55Z</time></trkpt>
<trkpt lat="24.957662" lon="102.188828">
<time>2016-10-07T02:05:56Z</time></trkpt>
<trkpt lat="24.957772" lon="102.188818">
<time>2016-10-07T02:05:57Z</time></trkpt>
<trkpt lat="24.957952" lon="102.188788">
<time>2016-10-07T02:05:58Z</time></trkpt>
<trkpt lat="24.958062" lon="102.188748">
<time>2016-10-07T02:05:59Z</time></trkpt>
<trkpt lat="24.958111" lon="102.188728">
<time>2016-10-07T02:06:00Z</time></trkpt>
<trkpt lat="24.958171" lon="102.188708">
<time>2016-10-07T02:06:01Z</time></trkpt>
<trkpt lat="24.958231" lon="102.188678">
<time>2016-10-07T02:06:02Z</time></trkpt>
<trkpt lat="24.958281" lon="102.188638">
<time>2016-10-07T02:06:03Z</time></trkpt>
<trkpt lat="24.958321" lon="102.188618">
<time>2016-10-07T02:06:04Z</time></trkpt>
<trkpt lat="24.958381" lon="102.188568">
<time>2016-10-07T02:06:05Z</time></trkpt>
<trkpt lat="24.958431" lon="102.188527">
<time>2016-10-07T02:06:06Z</time></trkpt>
<trkpt lat="24.958481" lon="102.188487">
<time>2016-10-07T02:06:07Z</time></trkpt>
<trkpt lat="24.958531" lon="102.188427">
<time>2016-10-07T02:06:08Z</time></trkpt>
<trkpt lat="24.958681" lon="102.188267">
<time>2016-10-07T02:06:09Z</time></trkpt>
<trkpt lat="24.95891" lon="102.187986">
<time>2016-10-07T02:06:10Z</time></trkpt>
<trkpt lat="24.95894" lon="102.187946">
<time>2016-10-07T02:06:11Z</time></trkpt>
<trkpt lat="24.959219" lon="102.187615">
<time>2016-10-07T02:06:12Z</time></trkpt>
<trkpt lat="24.959369" lon="102.187455">
<time>2016-10-07T02:06:13Z</time></trkpt>
<trkpt lat="24.959529" lon="102.187315">
<time>2016-10-07T02:06:14Z</time></trkpt>
<trkpt lat="24.959609" lon="102.187265">
<time>2016-10-07T02:06:15Z</time></trkpt>
<trkpt lat="24.959699" lon="102.187225">
<time>2016-10-07T02:06:16Z</time></trkpt>
<trkpt lat="24.959759" lon="102.187195">
<time>2016-10-07T02:06:17Z</time></trkpt>
<trkpt lat="24.959839" lon="102.187184">
<time>2016-10-07T02:06:18Z</time></trkpt>
<trkpt lat="24.959939" lon="102.187174">
<time>2016-10-07T02:06:19Z</time></trkpt>
<trkpt lat="24.960058" lon="102.187164">
<time>2016-10-07T02:06:20Z</time></trkpt>
<trkpt lat="24.960168" lon="102.187174">
<time>2016-10-07T02:06:21Z</time></trkpt>
<trkpt lat="24.960278" lon="102.187174">
<time>2016-10-07T02:06:22Z</time></trkpt>
<trkpt lat="24.960408" lon="102.187174">
<time>2016-10-07T02:06:23Z</time></trkpt>
<trkpt lat="24.960908" lon="102.187205">
<time>2016-10-07T02:06:24Z</time></trkpt>
<trkpt lat="24.961278" lon="102.187235">
<time>2016-10-07T02:06:25Z</time></trkpt>
<trkpt lat="24.961388" lon="102.187245">
<time>2016-10-07T02:06:26Z</time></trkpt>
<trkpt lat="24.961398" lon="102.187245">
<time>2016-10-07T02:06:27Z</time></trkpt>
<trkpt lat="24.961548" lon="102.187245">
<time>2016-10-07T02:06:28Z</time></trkpt>
<trkpt lat="24.961648" lon="102.187255">
<time>2016-10-07T02:06:29Z</time></trkpt>
<trkpt lat="24.962368" lon="102.187275">
<time>2016-10-07T02:06:30Z</time></trkpt>
<trkpt lat="24.962528" lon="102.187275">
<time>2016-10-07T02:06:31Z</time></trkpt>
<trkpt lat="24.962668" lon="102.187265">
<time>2016-10-07T02:06:32Z</time></trkpt>
<trkpt lat="24.962778" lon="102.187245">
<time>2016-10-07T02:06:33Z</time></trkpt>
<trkpt lat="24.962878" lon="102.187224">
<time>2016-10-07T02:06:34Z</time></trkpt>
<trkpt lat="24.962978" lon="102.187194">
<time>2016-10-07T02:06:35Z</time></trkpt>
<trkpt lat="24.963088" lon="102.187164">
<time>2016-10-07T02:06:36Z</time></trkpt>
<trkpt lat="24.963248" lon="102.187114">
<time>2016-10-07T02:06:37Z</time></trkpt>
<trkpt lat="24.963368" lon="102.187064">
<time>2016-10-07T02:06:38Z</time></trkpt>
<trkpt lat="24.963538" lon="102.186974">
<time>2016-10-07T02:06:39Z</time></trkpt>
<trkpt lat="24.963668" lon="102.186914">
<time>2016-10-07T02:06:40Z</time></trkpt>
<trkpt lat="24.963787" lon="102.186844">
<time>2016-10-07T02:06:41Z</time></trkpt>
<trkpt lat="24.963987" lon="102.186713">
<time>2016-10-07T02:06:42Z</time></trkpt>
<trkpt lat="24.964327" lon="102.186473">
<time>2016-10-07T02:06:43Z</time></trkpt>
<trkpt lat="24.965166" lon="102.185891">
<time>2016-10-07T02:06:44Z</time></trkpt>
<trkpt lat="24.965325" lon="102.185771">
<time>2016-10-07T02:06:45Z</time></trkpt>
<trkpt lat="24.965455" lon="102.185671">
<time>2016-10-07T02:06:46Z</time></trkpt>
<trkpt lat="24.965585" lon="102.185561">
<time>2016-10-07T02:06:47Z</time></trkpt>
<trkpt lat="24.965725" lon="102.18544">
<time>2016-10-07T02:06:48Z</time></trkpt>
<trkpt lat="24.965795" lon="102.18537">
<time>2016-10-07T02:06:49Z</time></trkpt>
<trkpt lat="24.965884" lon="102.18527">
<time>2016-10-07T02:06:50Z</time></trkpt>
<trkpt lat="24.966034" lon="102.1851">
<time>2016-10-07T02:06:51Z</time></trkpt>
<trkpt lat="24.966204" lon="102.184859">
<time>2016-10-07T02:06:52Z</time></trkpt>
<trkpt lat="24.966333" lon="102.184689">
<time>2016-10-07T02:06:53Z</time></trkpt>
<trkpt lat="24.967101" lon="102.183697">
<time>2016-10-07T02:06:54Z</time></trkpt>
<trkpt lat="24.96763" lon="102.183005">
<time>2016-10-07T02:06:55Z</time></trkpt>
<trkpt lat="24.967949" lon="102.182584">
<time>2016-10-07T02:06:56Z</time></trkpt>
<trkpt lat="24.968039" lon="102.182474">
<time>2016-10-07T02:06:57Z</time></trkpt>
<trkpt lat="24.968218" lon="102.182213">
<time>2016-10-07T02:06:58Z</time></trkpt>
<trkpt lat="24.968268" lon="102.182123">
<time>2016-10-07T02:06:59Z</time></trkpt>
<trkpt lat="24.968338" lon="102.182003">
<time>2016-10-07T02:07:00Z</time></trkpt>
<trkpt lat="24.968408" lon="102.181852">
<time>2016-10-07T02:07:01Z</time></trkpt>
<trkpt lat="24.968487" lon="102.181652">
<time>2016-10-07T02:07:02Z</time></trkpt>
<trkpt lat="24.968527" lon="102.181471">
<time>2016-10-07T02:07:03Z</time></trkpt>
<trkpt lat="24.968547" lon="102.181381">
<time>2016-10-07T02:07:04Z</time></trkpt>
<trkpt lat="24.968567" lon="102.181271">
<time>2016-10-07T02:07:05Z</time></trkpt>
<trkpt lat="24.968577" lon="102.181161">
<time>2016-10-07T02:07:06Z</time></trkpt>
<trkpt lat="24.968576" lon="102.181041">
<time>2016-10-07T02:07:07Z</time></trkpt>
<trkpt lat="24.968576" lon="102.18094">
<time>2016-10-07T02:07:08Z</time></trkpt>
<trkpt lat="24.968566" lon="102.18082">
<time>2016-10-07T02:07:09Z</time></trkpt>
<trkpt lat="24.968556" lon="102.18072">
<time>2016-10-07T02:07:10Z</time></trkpt>
<trkpt lat="24.968525" lon="102.180589">
<time>2016-10-07T02:07:11Z</time></trkpt>
<trkpt lat="24.968505" lon="102.180469">
<time>2016-10-07T02:07:12Z</time></trkpt>
<trkpt lat="24.968475" lon="102.180369">
<time>2016-10-07T02:07:13Z</time></trkpt>
<trkpt lat="24.968435" lon="102.180249">
<time>2016-10-07T02:07:14Z</time></trkpt>
<trkpt lat="24.968375" lon="102.180118">
<time>2016-10-07T02:07:15Z</time></trkpt>
<trkpt lat="24.968324" lon="102.180028">
<time>2016-10-07T02:07:16Z</time></trkpt>
<trkpt lat="24.968274" lon="102.179938">
<time>2016-10-07T02:07:17Z</time></trkpt>
<trkpt lat="24.968214" lon="102.179838">
<time>2016-10-07T02:07:18Z</time></trkpt>
<trkpt lat="24.968064" lon="102.179617">
<time>2016-10-07T02:07:19Z</time></trkpt>
<trkpt lat="24.967873" lon="102.179377">
<time>2016-10-07T02:07:20Z</time></trkpt>
<trkpt lat="24.967673" lon="102.179136">
<time>2016-10-07T02:07:21Z</time></trkpt>
<trkpt lat="24.967472" lon="102.178896">
<time>2016-10-07T02:07:22Z</time></trkpt>
<trkpt lat="24.967272" lon="102.178645">
<time>2016-10-07T02:07:23Z</time></trkpt>
<trkpt lat="24.967182" lon="102.178535">
<time>2016-10-07T02:07:24Z</time></trkpt>
<trkpt lat="24.967092" lon="102.178395">
<time>2016-10-07T02:07:25Z</time></trkpt>
<trkpt lat="24.967011" lon="102.178264">
<time>2016-10-07T02:07:26Z</time></trkpt>
<trkpt lat="24.966941" lon="102.178124">
<time>2016-10-07T02:07:27Z</time></trkpt>
<trkpt lat="24.966921" lon="102.178064">
<time>2016-10-07T02:07:28Z</time></trkpt>
<trkpt lat="24.966901" lon="102.178004">
<time>2016-10-07T02:07:29Z</time></trkpt>
<trkpt lat="24.966881" lon="102.177954">
<time>2016-10-07T02:07:30Z</time></trkpt>
<trkpt lat="24.966871" lon="102.177913">
<time>2016-10-07T02:07:31Z</time></trkpt>
<trkpt lat="24.966861" lon="102.177863">
<time>2016-10-07T02:07:32Z</time></trkpt>
<trkpt lat="24.96685" lon="102.177803">
<time>2016-10-07T02:07:33Z</time></trkpt>
<trkpt lat="24.96684" lon="102.177763">
<time>2016-10-07T02:07:34Z</time></trkpt>
<trkpt lat="24.96684" lon="102.177723">
<time>2016-10-07T02:07:35Z</time></trkpt>
<trkpt lat="24.96684" lon="102.177683">
<time>2016-10-07T02:07:36Z</time></trkpt>
<trkpt lat="24.96684" lon="102.177643">
<time>2016-10-07T02:07:37Z</time></trkpt>
<trkpt lat="24.96684" lon="102.177583">
<time>2016-10-07T02:07:38Z</time></trkpt>
<trkpt lat="24.96684" lon="102.177533">
<time>2016-10-07T02:07:39Z</time></trkpt>
<trkpt lat="24.96685" lon="102.177502">
<time>2016-10-07T02:07:40Z</time></trkpt>
<trkpt lat="24.96686" lon="102.177432">
<time>2016-10-07T02:07:41Z</time></trkpt>
<trkpt lat="24.96688" lon="102.177392">
<time>2016-10-07T02:07:42Z</time></trkpt>
<trkpt lat="24.9669" lon="102.177342">
<time>2016-10-07T02:07:43Z</time></trkpt>
<trkpt lat="24.96692" lon="102.177312">
<time>2016-10-07T02:07:44Z</time></trkpt>
<trkpt lat="24.966949" lon="102.177262">
<time>2016-10-07T02:07:45Z</time></trkpt>
<trkpt lat="24.966989" lon="102.177202">
<time>2016-10-07T02:07:46Z</time></trkpt>
<trkpt lat="24.967049" lon="102.177132">
<time>2016-10-07T02:07:47Z</time></trkpt>
<trkpt lat="24.967129" lon="102.177021">
<time>2016-10-07T02:07:48Z</time></trkpt>
<trkpt lat="24.967179" lon="102.176961">
<time>2016-10-07T02:07:49Z</time></trkpt>
<trkpt lat="24.967249" lon="102.176871">
<time>2016-10-07T02:07:50Z</time></trkpt>
<trkpt lat="24.967318" lon="102.176761">
<time>2016-10-07T02:07:51Z</time></trkpt>
<trkpt lat="24.967388" lon="102.17664">
<time>2016-10-07T02:07:52Z</time></trkpt>
<trkpt lat="24.967448" lon="102.17652">
<time>2016-10-07T02:07:53Z</time></trkpt>
<trkpt lat="24.967697" lon="102.175929">
<time>2016-10-07T02:07:54Z</time></trkpt>
<trkpt lat="24.967886" lon="102.175468">
<time>2016-10-07T02:07:55Z</time></trkpt>
<trkpt lat="24.967946" lon="102.175307">
<time>2016-10-07T02:07:56Z</time></trkpt>
<trkpt lat="24.967985" lon="102.175167">
<time>2016-10-07T02:07:57Z</time></trkpt>
<trkpt lat="24.968005" lon="102.175097">
<time>2016-10-07T02:07:58Z</time></trkpt>
<trkpt lat="24.968015" lon="102.175047">
<time>2016-10-07T02:07:59Z</time></trkpt>
<trkpt lat="24.968015" lon="102.174997">
<time>2016-10-07T02:08:00Z</time></trkpt>
<trkpt lat="24.968015" lon="102.174967">
<time>2016-10-07T02:08:01Z</time></trkpt>
<trkpt lat="24.968005" lon="102.174916">
<time>2016-10-07T02:08:02Z</time></trkpt>
<trkpt lat="24.967995" lon="102.174876">
<time>2016-10-07T02:08:03Z</time></trkpt>
<trkpt lat="24.967975" lon="102.174826">
<time>2016-10-07T02:08:04Z</time></trkpt>
<trkpt lat="24.967945" lon="102.174776">
<time>2016-10-07T02:08:05Z</time></trkpt>
<trkpt lat="24.967905" lon="102.174736">
<time>2016-10-07T02:08:06Z</time></trkpt>
<trkpt lat="24.967845" lon="102.174676">
<time>2016-10-07T02:08:07Z</time></trkpt>
<trkpt lat="24.967744" lon="102.174606">
<time>2016-10-07T02:08:08Z</time></trkpt>
<trkpt lat="24.967634" lon="102.174526">
<time>2016-10-07T02:08:09Z</time></trkpt>
<trkpt lat="24.967174" lon="102.174245">
<time>2016-10-07T02:08:10Z</time></trkpt>
<trkpt lat="24.966903" lon="102.174075">
<time>2016-10-07T02:08:11Z</time></trkpt>
<trkpt lat="24.966663" lon="102.173914">
<time>2016-10-07T02:08:12Z</time></trkpt>
<trkpt lat="24.966253" lon="102.173614">
<time>2016-10-07T02:08:13Z</time></trkpt>
<trkpt lat="24.966042" lon="102.173463">
<time>2016-10-07T02:08:14Z</time></trkpt>
<trkpt lat="24.965882" lon="102.173363">
<time>2016-10-07T02:08:15Z</time></trkpt>
<trkpt lat="24.965612" lon="102.173213">
<time>2016-10-07T02:08:16Z</time></trkpt>
<trkpt lat="24.964821" lon="102.172842">
<time>2016-10-07T02:08:17Z</time></trkpt>
<trkpt lat="24.964491" lon="102.172681">
<time>2016-10-07T02:08:18Z</time></trkpt>
<trkpt lat="24.964401" lon="102.172631">
<time>2016-10-07T02:08:19Z</time></trkpt>
<trkpt lat="24.964351" lon="102.172601">
<time>2016-10-07T02:08:20Z</time></trkpt>
<trkpt lat="24.964311" lon="102.172561">
<time>2016-10-07T02:08:21Z</time></trkpt>
<trkpt lat="24.964251" lon="102.172501">
<time>2016-10-07T02:08:22Z</time></trkpt>
<trkpt lat="24.964211" lon="102.172451">
<time>2016-10-07T02:08:23Z</time></trkpt>
<trkpt lat="24.964191" lon="102.172401">
<time>2016-10-07T02:08:24Z</time></trkpt>
<trkpt lat="24.964161" lon="102.172341">
<time>2016-10-07T02:08:25Z</time></trkpt>
<trkpt lat="24.96414" lon="102.172301">
<time>2016-10-07T02:08:26Z</time></trkpt>
<trkpt lat="24.96413" lon="102.17226">
<time>2016-10-07T02:08:27Z</time></trkpt>
<trkpt lat="24.96411" lon="102.1722">
<time>2016-10-07T02:08:28Z</time></trkpt>
<trkpt lat="24.96407" lon="102.17204">
<time>2016-10-07T02:08:29Z</time></trkpt>
<trkpt lat="24.963909" lon="102.171238">
<time>2016-10-07T02:08:30Z</time></trkpt>
<trkpt lat="24.963898" lon="102.171208">
<time>2016-10-07T02:08:31Z</time></trkpt>
<trkpt lat="24.963868" lon="102.171038">
<time>2016-10-07T02:08:32Z</time></trkpt>
<trkpt lat="24.963848" lon="102.170927">
<time>2016-10-07T02:08:33Z</time></trkpt>
<trkpt lat="24.963828" lon="102.170827">
<time>2016-10-07T02:08:34Z</time></trkpt>
<trkpt lat="24.963828" lon="102.170747">
<time>2016-10-07T02:08:35Z</time></trkpt>
<trkpt lat="24.963827" lon="102.170677">
<time>2016-10-07T02:08:36Z</time></trkpt>
<trkpt lat="24.963827" lon="102.170617">
<time>2016-10-07T02:08:37Z</time></trkpt>
<trkpt lat="24.963837" lon="102.170557">
<time>2016-10-07T02:08:38Z</time></trkpt>
<trkpt lat="24.963847" lon="102.170516">
<time>2016-10-07T02:08:39Z</time></trkpt>
<trkpt lat="24.963867" lon="102.170476">
<time>2016-10-07T02:08:40Z</time></trkpt>
<trkpt lat="24.963877" lon="102.170436">
<time>2016-10-07T02:08:41Z</time></trkpt>
<trkpt lat="24.963897" lon="102.170406">
<time>2016-10-07T02:08:42Z</time></trkpt>
<trkpt lat="24.963917" lon="102.170376">
<time>2016-10-07T02:08:43Z</time></trkpt>
<trkpt lat="24.963927" lon="102.170356">
<time>2016-10-07T02:08:44Z</time></trkpt>
<trkpt lat="24.963957" lon="102.170326">
<time>2016-10-07T02:08:45Z</time></trkpt>
<trkpt lat="24.963997" lon="102.170296">
<time>2016-10-07T02:08:46Z</time></trkpt>
<trkpt lat="24.964047" lon="102.170256">
<time>2016-10-07T02:08:47Z</time></trkpt>
<trkpt lat="24.964137" lon="102.170206">
<time>2016-10-07T02:08:48Z</time></trkpt>
<trkpt lat="24.964236" lon="102.170156">
<time>2016-10-07T02:08:49Z</time></trkpt>
<trkpt lat="24.964446" lon="102.170065">
<time>2016-10-07T02:08:50Z</time></trkpt>
<trkpt lat="24.964656" lon="102.169975">
<time>2016-10-07T02:08:51Z</time></trkpt>
<trkpt lat="24.965066" lon="102.169785">
<time>2016-10-07T02:08:52Z</time></trkpt>
<trkpt lat="24.965186" lon="102.169735">
<time>2016-10-07T02:08:53Z</time></trkpt>
<trkpt lat="24.965565" lon="102.169594">
<time>2016-10-07T02:08:54Z</time></trkpt>
<trkpt lat="24.965665" lon="102.169554">
<time>2016-10-07T02:08:55Z</time></trkpt>
<trkpt lat="24.965745" lon="102.169534">
<time>2016-10-07T02:08:56Z</time></trkpt>
<trkpt lat="24.965815" lon="102.169514">
<time>2016-10-07T02:08:57Z</time></trkpt>
<trkpt lat="24.965915" lon="102.169504">
<time>2016-10-07T02:08:58Z</time></trkpt>
<trkpt lat="24.966015" lon="102.169494">
<time>2016-10-07T02:08:59Z</time></trkpt>
<trkpt lat="24.966155" lon="102.169484">
<time>2016-10-07T02:09:00Z</time></trkpt>
<trkpt lat="24.966345" lon="102.169494">
<time>2016-10-07T02:09:01Z</time></trkpt>
<trkpt lat="24.970005" lon="102.169574">
<time>2016-10-07T02:09:02Z</time></trkpt>
<trkpt lat="24.970915" lon="102.169594">
<time>2016-10-07T02:09:03Z</time></trkpt>
<trkpt lat="24.971145" lon="102.169614">
<time>2016-10-07T02:09:04Z</time></trkpt>
<trkpt lat="24.971285" lon="102.169624">
<time>2016-10-07T02:09:05Z</time></trkpt>
<trkpt lat="24.971375" lon="102.169634">
<time>2016-10-07T02:09:06Z</time></trkpt>
<trkpt lat="24.971445" lon="102.169654">
<time>2016-10-07T02:09:07Z</time></trkpt>
<trkpt lat="24.971555" lon="102.169684">
<time>2016-10-07T02:09:08Z</time></trkpt>
<trkpt lat="24.971675" lon="102.169724">
<time>2016-10-07T02:09:09Z</time></trkpt>
<trkpt lat="24.971805" lon="102.169774">
<time>2016-10-07T02:09:10Z</time></trkpt>
<trkpt lat="24.971935" lon="102.169835">
<time>2016-10-07T02:09:11Z</time></trkpt>
<trkpt lat="24.972005" lon="102.169865">
<time>2016-10-07T02:09:12Z</time></trkpt>
<trkpt lat="24.972145" lon="102.169935">
<time>2016-10-07T02:09:13Z</time></trkpt>
<trkpt lat="24.972375" lon="102.170055">
<time>2016-10-07T02:09:14Z</time></trkpt>
<trkpt lat="24.972515" lon="102.170135">
<time>2016-10-07T02:09:15Z</time></trkpt>
<trkpt lat="24.973656" lon="102.170787">
<time>2016-10-07T02:09:16Z</time></trkpt>
<trkpt lat="24.973737" lon="102.170837">
<time>2016-10-07T02:09:17Z</time></trkpt>
<trkpt lat="24.973947" lon="102.170947">
<time>2016-10-07T02:09:18Z</time></trkpt>
<trkpt lat="24.974397" lon="102.171188">
<time>2016-10-07T02:09:19Z</time></trkpt>
<trkpt lat="24.974577" lon="102.171268">
<time>2016-10-07T02:09:20Z</time></trkpt>
<trkpt lat="24.974767" lon="102.171348">
<time>2016-10-07T02:09:21Z</time></trkpt>
<trkpt lat="24.974917" lon="102.171398">
<time>2016-10-07T02:09:22Z</time></trkpt>
<trkpt lat="24.975077" lon="102.171448">
<time>2016-10-07T02:09:23Z</time></trkpt>
<trkpt lat="24.975158" lon="102.171458">
<time>2016-10-07T02:09:24Z</time></trkpt>
<trkpt lat="24.975438" lon="102.171528">
<time>2016-10-07T02:09:25Z</time></trkpt>
<trkpt lat="24.975738" lon="102.171599">
<time>2016-10-07T02:09:26Z</time></trkpt>
<trkpt lat="24.976098" lon="102.171669">
<time>2016-10-07T02:09:27Z</time></trkpt>
<trkpt lat="24.978048" lon="102.171909">
<time>2016-10-07T02:09:28Z</time></trkpt>
<trkpt lat="24.978558" lon="102.171969">
<time>2016-10-07T02:09:29Z</time></trkpt>
<trkpt lat="24.979088" lon="102.17204">
<time>2016-10-07T02:09:30Z</time></trkpt>
<trkpt lat="24.979398" lon="102.17206">
<time>2016-10-07T02:09:31Z</time></trkpt>
<trkpt lat="24.979528" lon="102.17206">
<time>2016-10-07T02:09:32Z</time></trkpt>
<trkpt lat="24.979618" lon="102.17206">
<time>2016-10-07T02:09:33Z</time></trkpt>
<trkpt lat="24.979748" lon="102.17205">
<time>2016-10-07T02:09:34Z</time></trkpt>
<trkpt lat="24.979858" lon="102.172039">
<time>2016-10-07T02:09:35Z</time></trkpt>
<trkpt lat="24.979868" lon="102.172039">
<time>2016-10-07T02:09:36Z</time></trkpt>
<trkpt lat="24.979868" lon="102.172039">
<time>2016-10-07T02:09:37Z</time></trkpt>
<trkpt lat="24.980109" lon="102.1724">
<time>2016-10-07T02:09:38Z</time></trkpt>
<trkpt lat="24.980109" lon="102.1724">
<time>2016-10-07T02:09:39Z</time></trkpt>
<trkpt lat="24.980759" lon="102.17236">
<time>2016-10-07T02:09:40Z</time></trkpt>
<trkpt lat="24.981418" lon="102.1723">
<time>2016-10-07T02:09:41Z</time></trkpt>
<trkpt lat="24.981838" lon="102.17225">
<time>2016-10-07T02:09:42Z</time></trkpt>
<trkpt lat="24.982458" lon="102.1721">
<time>2016-10-07T02:09:43Z</time></trkpt>
<trkpt lat="24.983077" lon="102.171919">
<time>2016-10-07T02:09:44Z</time></trkpt>
<trkpt lat="24.983687" lon="102.171638">
<time>2016-10-07T02:09:45Z</time></trkpt>
<trkpt lat="24.984486" lon="102.171237">
<time>2016-10-07T02:09:46Z</time></trkpt>
<trkpt lat="24.985874" lon="102.170365">
<time>2016-10-07T02:09:47Z</time></trkpt>
<trkpt lat="24.987102" lon="102.169584">
<time>2016-10-07T02:09:48Z</time></trkpt>
<trkpt lat="24.987332" lon="102.169453">
<time>2016-10-07T02:09:49Z</time></trkpt>
<trkpt lat="24.987512" lon="102.169383">
<time>2016-10-07T02:09:50Z</time></trkpt>
<trkpt lat="24.987742" lon="102.169283">
<time>2016-10-07T02:09:51Z</time></trkpt>
<trkpt lat="24.988022" lon="102.169223">
<time>2016-10-07T02:09:52Z</time></trkpt>
<trkpt lat="24.99149" lon="102.168471">
<time>2016-10-07T02:09:53Z</time></trkpt>
<trkpt lat="24.992249" lon="102.16822">
<time>2016-10-07T02:09:54Z</time></trkpt>
<trkpt lat="24.992519" lon="102.16809">
<time>2016-10-07T02:09:55Z</time></trkpt>
<trkpt lat="24.992779" lon="102.167899">
<time>2016-10-07T02:09:56Z</time></trkpt>
<trkpt lat="24.993188" lon="102.167519">
<time>2016-10-07T02:09:57Z</time></trkpt>
<trkpt lat="24.993697" lon="102.166967">
<time>2016-10-07T02:09:58Z</time></trkpt>
<trkpt lat="24.994066" lon="102.166657">
<time>2016-10-07T02:09:59Z</time></trkpt>
<trkpt lat="24.994286" lon="102.166476">
<time>2016-10-07T02:10:00Z</time></trkpt>
<trkpt lat="24.994505" lon="102.166356">
<time>2016-10-07T02:10:01Z</time></trkpt>
<trkpt lat="24.994685" lon="102.166276">
<time>2016-10-07T02:10:02Z</time></trkpt>
<trkpt lat="24.994875" lon="102.166226">
<time>2016-10-07T02:10:03Z</time></trkpt>
<trkpt lat="24.995055" lon="102.166185">
<time>2016-10-07T02:10:04Z</time></trkpt>
<trkpt lat="24.995395" lon="102.166155">
<time>2016-10-07T02:10:05Z</time></trkpt>
<trkpt lat="24.995885" lon="102.166155">
<time>2016-10-07T02:10:06Z</time></trkpt>
<trkpt lat="24.996825" lon="102.166195">
<time>2016-10-07T02:10:07Z</time></trkpt>
<trkpt lat="24.998165" lon="102.166286">
<time>2016-10-07T02:10:08Z</time></trkpt>
<trkpt lat="24.998365" lon="102.166296">
<time>2016-10-07T02:10:09Z</time></trkpt>
<trkpt lat="24.998365" lon="102.166296">
<time>2016-10-07T02:10:10Z</time></trkpt>
<trkpt lat="24.999025" lon="102.166516">
<time>2016-10-07T02:10:11Z</time></trkpt>
<trkpt lat="24.999295" lon="102.166516">
<time>2016-10-07T02:10:12Z</time></trkpt>
<trkpt lat="25.000015" lon="102.166686">
<time>2016-10-07T02:10:13Z</time></trkpt>
<trkpt lat="25.000546" lon="102.166817">
<time>2016-10-07T02:10:14Z</time></trkpt>
<trkpt lat="25.001176" lon="102.166907">
<time>2016-10-07T02:10:15Z</time></trkpt>
<trkpt lat="25.001616" lon="102.166897">
<time>2016-10-07T02:10:16Z</time></trkpt>
<trkpt lat="25.001696" lon="102.166917">
<time>2016-10-07T02:10:17Z</time></trkpt>
<trkpt lat="25.001756" lon="102.166937">
<time>2016-10-07T02:10:18Z</time></trkpt>
<trkpt lat="25.001756" lon="102.166937">
<time>2016-10-07T02:10:19Z</time></trkpt>
<trkpt lat="25.001946" lon="102.166887">
<time>2016-10-07T02:10:20Z</time></trkpt>
<trkpt lat="25.001975" lon="102.166877">
<time>2016-10-07T02:10:21Z</time></trkpt>
<trkpt lat="25.002025" lon="102.166867">
<time>2016-10-07T02:10:22Z</time></trkpt>
<trkpt lat="25.002115" lon="102.166877">
<time>2016-10-07T02:10:23Z</time></trkpt>
<trkpt lat="25.002165" lon="102.166867">
<time>2016-10-07T02:10:24Z</time></trkpt>
<trkpt lat="25.002205" lon="102.166847">
<time>2016-10-07T02:10:25Z</time></trkpt>
<trkpt lat="25.002455" lon="102.166606">
<time>2016-10-07T02:10:26Z</time></trkpt>
<trkpt lat="25.002535" lon="102.166476">
<time>2016-10-07T02:10:27Z</time></trkpt>
<trkpt lat="25.002595" lon="102.166416">
<time>2016-10-07T02:10:28Z</time></trkpt>
<trkpt lat="25.002674" lon="102.166326">
<time>2016-10-07T02:10:29Z</time></trkpt>
<trkpt lat="25.002874" lon="102.166145">
<time>2016-10-07T02:10:30Z</time></trkpt>
<trkpt lat="25.002944" lon="102.166085">
<time>2016-10-07T02:10:31Z</time></trkpt>
<trkpt lat="25.003333" lon="102.165443">
<time>2016-10-07T02:10:32Z</time></trkpt>
<trkpt lat="25.003462" lon="102.165233">
<time>2016-10-07T02:10:33Z</time></trkpt>
<trkpt lat="25.003622" lon="102.165063">
<time>2016-10-07T02:10:34Z</time></trkpt>
<trkpt lat="25.003891" lon="102.164852">
<time>2016-10-07T02:10:35Z</time></trkpt>
<trkpt lat="25.004121" lon="102.164662">
<time>2016-10-07T02:10:36Z</time></trkpt>
<trkpt lat="25.004231" lon="102.164571">
<time>2016-10-07T02:10:37Z</time></trkpt>
<trkpt lat="25.004311" lon="102.164441">
<time>2016-10-07T02:10:38Z</time></trkpt>
<trkpt lat="25.00452" lon="102.1639">
<time>2016-10-07T02:10:39Z</time></trkpt>
<trkpt lat="25.004649" lon="102.163609">
<time>2016-10-07T02:10:40Z</time></trkpt>
<trkpt lat="25.004958" lon="102.162847">
<time>2016-10-07T02:10:41Z</time></trkpt>
<trkpt lat="25.005047" lon="102.162737">
<time>2016-10-07T02:10:42Z</time></trkpt>
<trkpt lat="25.005107" lon="102.162647">
<time>2016-10-07T02:10:43Z</time></trkpt>
<trkpt lat="25.005257" lon="102.162577">
<time>2016-10-07T02:10:44Z</time></trkpt>
<trkpt lat="25.005497" lon="102.162507">
<time>2016-10-07T02:10:45Z</time></trkpt>
<trkpt lat="25.006127" lon="102.162487">
<time>2016-10-07T02:10:46Z</time></trkpt>
<trkpt lat="25.006317" lon="102.162436">
<time>2016-10-07T02:10:47Z</time></trkpt>
<trkpt lat="25.006836" lon="102.162186">
<time>2016-10-07T02:10:48Z</time></trkpt>
<trkpt lat="25.007325" lon="102.161855">
<time>2016-10-07T02:10:49Z</time></trkpt>
<trkpt lat="25.008603" lon="102.160752">
<time>2016-10-07T02:10:50Z</time></trkpt>
<trkpt lat="25.008603" lon="102.160752">
<time>2016-10-07T02:10:51Z</time></trkpt>
<trkpt lat="25.008623" lon="102.160752">
<time>2016-10-07T02:10:52Z</time></trkpt>
<trkpt lat="25.008663" lon="102.160752">
<time>2016-10-07T02:10:53Z</time></trkpt>
<trkpt lat="25.008703" lon="102.160752">
<time>2016-10-07T02:10:54Z</time></trkpt>
<trkpt lat="25.008763" lon="102.160752">
<time>2016-10-07T02:10:55Z</time></trkpt>
<trkpt lat="25.008863" lon="102.160752">
<time>2016-10-07T02:10:56Z</time></trkpt>
<trkpt lat="25.008953" lon="102.160763">
<time>2016-10-07T02:10:57Z</time></trkpt>
<trkpt lat="25.009063" lon="102.160773">
<time>2016-10-07T02:10:58Z</time></trkpt>
<trkpt lat="25.009133" lon="102.160783">
<time>2016-10-07T02:10:59Z</time></trkpt>
<trkpt lat="25.009193" lon="102.160773">
<time>2016-10-07T02:11:00Z</time></trkpt>
<trkpt lat="25.009253" lon="102.160762">
<time>2016-10-07T02:11:01Z</time></trkpt>
<trkpt lat="25.009303" lon="102.160752">
<time>2016-10-07T02:11:02Z</time></trkpt>
<trkpt lat="25.009343" lon="102.160732">
<time>2016-10-07T02:11:03Z</time></trkpt>
<trkpt lat="25.009383" lon="102.160712">
<time>2016-10-07T02:11:04Z</time></trkpt>
<trkpt lat="25.009423" lon="102.160682">
<time>2016-10-07T02:11:05Z</time></trkpt>
<trkpt lat="25.009463" lon="102.160652">
<time>2016-10-07T02:11:06Z</time></trkpt>
<trkpt lat="25.009503" lon="102.160612">
<time>2016-10-07T02:11:07Z</time></trkpt>
<trkpt lat="25.009553" lon="102.160562">
<time>2016-10-07T02:11:08Z</time></trkpt>
<trkpt lat="25.009653" lon="102.160452">
<time>2016-10-07T02:11:09Z</time></trkpt>
<trkpt lat="25.009812" lon="102.160261">
<time>2016-10-07T02:11:10Z</time></trkpt>
<trkpt lat="25.010361" lon="102.15959">
<time>2016-10-07T02:11:11Z</time></trkpt>
<trkpt lat="25.01055" lon="102.159359">
<time>2016-10-07T02:11:12Z</time></trkpt>
<trkpt lat="25.01072" lon="102.159159">
<time>2016-10-07T02:11:13Z</time></trkpt>
<trkpt lat="25.01077" lon="102.159119">
<time>2016-10-07T02:11:14Z</time></trkpt>
<trkpt lat="25.01082" lon="102.159059">
<time>2016-10-07T02:11:15Z</time></trkpt>
<trkpt lat="25.01089" lon="102.159008">
<time>2016-10-07T02:11:16Z</time></trkpt>
<trkpt lat="25.01096" lon="102.158968">
<time>2016-10-07T02:11:17Z</time></trkpt>
<trkpt lat="25.01101" lon="102.158938">
<time>2016-10-07T02:11:18Z</time></trkpt>
<trkpt lat="25.01107" lon="102.158908">
<time>2016-10-07T02:11:19Z</time></trkpt>
<trkpt lat="25.011159" lon="102.158858">
<time>2016-10-07T02:11:20Z</time></trkpt>
<trkpt lat="25.011659" lon="102.158628">
<time>2016-10-07T02:11:21Z</time></trkpt>
<trkpt lat="25.011749" lon="102.158577">
<time>2016-10-07T02:11:22Z</time></trkpt>
<trkpt lat="25.011809" lon="102.158527">
<time>2016-10-07T02:11:23Z</time></trkpt>
<trkpt lat="25.011849" lon="102.158497">
<time>2016-10-07T02:11:24Z</time></trkpt>
<trkpt lat="25.011889" lon="102.158457">
<time>2016-10-07T02:11:25Z</time></trkpt>
<trkpt lat="25.011928" lon="102.158407">
<time>2016-10-07T02:11:26Z</time></trkpt>
<trkpt lat="25.011958" lon="102.158357">
<time>2016-10-07T02:11:27Z</time></trkpt>
<trkpt lat="25.011998" lon="102.158307">
<time>2016-10-07T02:11:28Z</time></trkpt>
<trkpt lat="25.012028" lon="102.158257">
<time>2016-10-07T02:11:29Z</time></trkpt>
<trkpt lat="25.012068" lon="102.158166">
<time>2016-10-07T02:11:30Z</time></trkpt>
<trkpt lat="25.012098" lon="102.158066">
<time>2016-10-07T02:11:31Z</time></trkpt>
<trkpt lat="25.012128" lon="102.157956">
<time>2016-10-07T02:11:32Z</time></trkpt>
<trkpt lat="25.012167" lon="102.157806">
<time>2016-10-07T02:11:33Z</time></trkpt>
<trkpt lat="25.012197" lon="102.157715">
<time>2016-10-07T02:11:34Z</time></trkpt>
<trkpt lat="25.012267" lon="102.157505">
<time>2016-10-07T02:11:35Z</time></trkpt>
<trkpt lat="25.012287" lon="102.157425">
<time>2016-10-07T02:11:36Z</time></trkpt>
<trkpt lat="25.012307" lon="102.157385">
<time>2016-10-07T02:11:37Z</time></trkpt>
<trkpt lat="25.012326" lon="102.157335">
<time>2016-10-07T02:11:38Z</time></trkpt>
<trkpt lat="25.012356" lon="102.157284">
<time>2016-10-07T02:11:39Z</time></trkpt>
<trkpt lat="25.012376" lon="102.157234">
<time>2016-10-07T02:11:40Z</time></trkpt>
<trkpt lat="25.012396" lon="102.157204">
<time>2016-10-07T02:11:41Z</time></trkpt>
<trkpt lat="25.012406" lon="102.157174">
<time>2016-10-07T02:11:42Z</time></trkpt>
<trkpt lat="25.012446" lon="102.157104">
<time>2016-10-07T02:11:43Z</time></trkpt>
<trkpt lat="25.012586" lon="102.156864">
<time>2016-10-07T02:11:44Z</time></trkpt>
<trkpt lat="25.013004" lon="102.156152">
<time>2016-10-07T02:11:45Z</time></trkpt>
<trkpt lat="25.013283" lon="102.155681">
<time>2016-10-07T02:11:46Z</time></trkpt>
<trkpt lat="25.013333" lon="102.155581">
<time>2016-10-07T02:11:47Z</time></trkpt>
<trkpt lat="25.013423" lon="102.15542">
<time>2016-10-07T02:11:48Z</time></trkpt>
<trkpt lat="25.013543" lon="102.15523">
<time>2016-10-07T02:11:49Z</time></trkpt>
<trkpt lat="25.013622" lon="102.15511">
<time>2016-10-07T02:11:50Z</time></trkpt>
<trkpt lat="25.013702" lon="102.155009">
<time>2016-10-07T02:11:51Z</time></trkpt>
<trkpt lat="25.013762" lon="102.154929">
<time>2016-10-07T02:11:52Z</time></trkpt>
<trkpt lat="25.013852" lon="102.154829">
<time>2016-10-07T02:11:53Z</time></trkpt>
<trkpt lat="25.013982" lon="102.154709">
<time>2016-10-07T02:11:54Z</time></trkpt>
<trkpt lat="25.014091" lon="102.154618">
<time>2016-10-07T02:11:55Z</time></trkpt>
<trkpt lat="25.014201" lon="102.154538">
<time>2016-10-07T02:11:56Z</time></trkpt>
<trkpt lat="25.014461" lon="102.154348">
<time>2016-10-07T02:11:57Z</time></trkpt>
<trkpt lat="25.014611" lon="102.154258">
<time>2016-10-07T02:11:58Z</time></trkpt>
<trkpt lat="25.014701" lon="102.154197">
<time>2016-10-07T02:11:59Z</time></trkpt>
<trkpt lat="25.01479" lon="102.154157">
<time>2016-10-07T02:12:00Z</time></trkpt>
<trkpt lat="25.01488" lon="102.154127">
<time>2016-10-07T02:12:01Z</time></trkpt>
<trkpt lat="25.01496" lon="102.154097">
<time>2016-10-07T02:12:02Z</time></trkpt>
<trkpt lat="25.01503" lon="102.154087">
<time>2016-10-07T02:12:03Z</time></trkpt>
<trkpt lat="25.01509" lon="102.154077">
<time>2016-10-07T02:12:04Z</time></trkpt>
<trkpt lat="25.01516" lon="102.154077">
<time>2016-10-07T02:12:05Z</time></trkpt>
<trkpt lat="25.01523" lon="102.154067">
<time>2016-10-07T02:12:06Z</time></trkpt>
<trkpt lat="25.01532" lon="102.154077">
<time>2016-10-07T02:12:07Z</time></trkpt>
<trkpt lat="25.0154" lon="102.154077">
<time>2016-10-07T02:12:08Z</time></trkpt>
<trkpt lat="25.01546" lon="102.154097">
<time>2016-10-07T02:12:09Z</time></trkpt>
<trkpt lat="25.01551" lon="102.154107">
<time>2016-10-07T02:12:10Z</time></trkpt>
<trkpt lat="25.01558" lon="102.154127">
<time>2016-10-07T02:12:11Z</time></trkpt>
<trkpt lat="25.01564" lon="102.154147">
<time>2016-10-07T02:12:12Z</time></trkpt>
<trkpt lat="25.0157" lon="102.154177">
<time>2016-10-07T02:12:13Z</time></trkpt>
<trkpt lat="25.01576" lon="102.154207">
<time>2016-10-07T02:12:14Z</time></trkpt>
<trkpt lat="25.01583" lon="102.154248">
<time>2016-10-07T02:12:15Z</time></trkpt>
<trkpt lat="25.015871" lon="102.154268">
<time>2016-10-07T02:12:16Z</time></trkpt>
<trkpt lat="25.015971" lon="102.154338">
<time>2016-10-07T02:12:17Z</time></trkpt>
<trkpt lat="25.016071" lon="102.154408">
<time>2016-10-07T02:12:18Z</time></trkpt>
<trkpt lat="25.016161" lon="102.154468">
<time>2016-10-07T02:12:19Z</time></trkpt>
<trkpt lat="25.016221" lon="102.154518">
<time>2016-10-07T02:12:20Z</time></trkpt>
<trkpt lat="25.016261" lon="102.154558">
<time>2016-10-07T02:12:21Z</time></trkpt>
<trkpt lat="25.016301" lon="102.154588">
<time>2016-10-07T02:12:22Z</time></trkpt>
<trkpt lat="25.016341" lon="102.154628">
<time>2016-10-07T02:12:23Z</time></trkpt>
<trkpt lat="25.016411" lon="102.154699">
<time>2016-10-07T02:12:24Z</time></trkpt>
<trkpt lat="25.016511" lon="102.154839">
<time>2016-10-07T02:12:25Z</time></trkpt>
<trkpt lat="25.016582" lon="102.154949">
<time>2016-10-07T02:12:26Z</time></trkpt>
<trkpt lat="25.016642" lon="102.155049">
<time>2016-10-07T02:12:27Z</time></trkpt>
<trkpt lat="25.016712" lon="102.15518">
<time>2016-10-07T02:12:28Z</time></trkpt>
<trkpt lat="25.016973" lon="102.155651">
<time>2016-10-07T02:12:29Z</time></trkpt>
<trkpt lat="25.017003" lon="102.155701">
<time>2016-10-07T02:12:30Z</time></trkpt>
<trkpt lat="25.017043" lon="102.155751">
<time>2016-10-07T02:12:31Z</time></trkpt>
<trkpt lat="25.017083" lon="102.155801">
<time>2016-10-07T02:12:32Z</time></trkpt>
<trkpt lat="25.017103" lon="102.155821">
<time>2016-10-07T02:12:33Z</time></trkpt>
<trkpt lat="25.017133" lon="102.155841">
<time>2016-10-07T02:12:34Z</time></trkpt>
<trkpt lat="25.017143" lon="102.155861">
<time>2016-10-07T02:12:35Z</time></trkpt>
<trkpt lat="25.017173" lon="102.155871">
<time>2016-10-07T02:12:36Z</time></trkpt>
<trkpt lat="25.017193" lon="102.155881">
<time>2016-10-07T02:12:37Z</time></trkpt>
<trkpt lat="25.017213" lon="102.155881">
<time>2016-10-07T02:12:38Z</time></trkpt>
<trkpt lat="25.017243" lon="102.155881">
<time>2016-10-07T02:12:39Z</time></trkpt>
<trkpt lat="25.017253" lon="102.155881">
<time>2016-10-07T02:12:40Z</time></trkpt>
<trkpt lat="25.017283" lon="102.155881">
<time>2016-10-07T02:12:41Z</time></trkpt>
<trkpt lat="25.017303" lon="102.155881">
<time>2016-10-07T02:12:42Z</time></trkpt>
<trkpt lat="25.017313" lon="102.155881">
<time>2016-10-07T02:12:43Z</time></trkpt>
<trkpt lat="25.017333" lon="102.155871">
<time>2016-10-07T02:12:44Z</time></trkpt>
<trkpt lat="25.017353" lon="102.155861">
<time>2016-10-07T02:12:45Z</time></trkpt>
<trkpt lat="25.017373" lon="102.155851">
<time>2016-10-07T02:12:46Z</time></trkpt>
<trkpt lat="25.017393" lon="102.155831">
<time>2016-10-07T02:12:47Z</time></trkpt>
<trkpt lat="25.017413" lon="102.155821">
<time>2016-10-07T02:12:48Z</time></trkpt>
<trkpt lat="25.017423" lon="102.155791">
<time>2016-10-07T02:12:49Z</time></trkpt>
<trkpt lat="25.017443" lon="102.155771">
<time>2016-10-07T02:12:50Z</time></trkpt>
<trkpt lat="25.017453" lon="102.155741">
<time>2016-10-07T02:12:51Z</time></trkpt>
<trkpt lat="25.017473" lon="102.155701">
<time>2016-10-07T02:12:52Z</time></trkpt>
<trkpt lat="25.017483" lon="102.155661">
<time>2016-10-07T02:12:53Z</time></trkpt>
<trkpt lat="25.017493" lon="102.155621">
<time>2016-10-07T02:12:54Z</time></trkpt>
<trkpt lat="25.017493" lon="102.15555">
<time>2016-10-07T02:12:55Z</time></trkpt>
<trkpt lat="25.017503" lon="102.15548">
<time>2016-10-07T02:12:56Z</time></trkpt>
<trkpt lat="25.017492" lon="102.15533">
<time>2016-10-07T02:12:57Z</time></trkpt>
<trkpt lat="25.017492" lon="102.155119">
<time>2016-10-07T02:12:58Z</time></trkpt>
<trkpt lat="25.017491" lon="102.154889">
<time>2016-10-07T02:12:59Z</time></trkpt>
<trkpt lat="25.017491" lon="102.154668">
<time>2016-10-07T02:13:00Z</time></trkpt>
<trkpt lat="25.017491" lon="102.154518">
<time>2016-10-07T02:13:01Z</time></trkpt>
<trkpt lat="25.017501" lon="102.154408">
<time>2016-10-07T02:13:02Z</time></trkpt>
<trkpt lat="25.01749" lon="102.154348">
<time>2016-10-07T02:13:03Z</time></trkpt>
<trkpt lat="25.01749" lon="102.154237">
<time>2016-10-07T02:13:04Z</time></trkpt>
<trkpt lat="25.01748" lon="102.154147">
<time>2016-10-07T02:13:05Z</time></trkpt>
<trkpt lat="25.01747" lon="102.154057">
<time>2016-10-07T02:13:06Z</time></trkpt>
<trkpt lat="25.01747" lon="102.154007">
<time>2016-10-07T02:13:07Z</time></trkpt>
<trkpt lat="25.01746" lon="102.153947">
<time>2016-10-07T02:13:08Z</time></trkpt>
<trkpt lat="25.01744" lon="102.153867">
<time>2016-10-07T02:13:09Z</time></trkpt>
<trkpt lat="25.017419" lon="102.153776">
<time>2016-10-07T02:13:10Z</time></trkpt>
<trkpt lat="25.017379" lon="102.153636">
<time>2016-10-07T02:13:11Z</time></trkpt>
<trkpt lat="25.017339" lon="102.153516">
<time>2016-10-07T02:13:12Z</time></trkpt>
<trkpt lat="25.017279" lon="102.153366">
<time>2016-10-07T02:13:13Z</time></trkpt>
<trkpt lat="25.017148" lon="102.153055">
<time>2016-10-07T02:13:14Z</time></trkpt>
<trkpt lat="25.017088" lon="102.152885">
<time>2016-10-07T02:13:15Z</time></trkpt>
<trkpt lat="25.017048" lon="102.152754">
<time>2016-10-07T02:13:16Z</time></trkpt>
<trkpt lat="25.017028" lon="102.152684">
<time>2016-10-07T02:13:17Z</time></trkpt>
<trkpt lat="25.017027" lon="102.152634">
<time>2016-10-07T02:13:18Z</time></trkpt>
<trkpt lat="25.017017" lon="102.152594">
<time>2016-10-07T02:13:19Z</time></trkpt>
<trkpt lat="25.017017" lon="102.152534">
<time>2016-10-07T02:13:20Z</time></trkpt>
<trkpt lat="25.017017" lon="102.152484">
<time>2016-10-07T02:13:21Z</time></trkpt>
<trkpt lat="25.017027" lon="102.152434">
<time>2016-10-07T02:13:22Z</time></trkpt>
<trkpt lat="25.017037" lon="102.152373">
<time>2016-10-07T02:13:23Z</time></trkpt>
<trkpt lat="25.017047" lon="102.152323">
<time>2016-10-07T02:13:24Z</time></trkpt>
<trkpt lat="25.017067" lon="102.152273">
<time>2016-10-07T02:13:25Z</time></trkpt>
<trkpt lat="25.017087" lon="102.152213">
<time>2016-10-07T02:13:26Z</time></trkpt>
<trkpt lat="25.017107" lon="102.152173">
<time>2016-10-07T02:13:27Z</time></trkpt>
<trkpt lat="25.017166" lon="102.152023">
<time>2016-10-07T02:13:28Z</time></trkpt>
<trkpt lat="25.017286" lon="102.151782">
<time>2016-10-07T02:13:29Z</time></trkpt>
<trkpt lat="25.017326" lon="102.151662">
<time>2016-10-07T02:13:30Z</time></trkpt>
<trkpt lat="25.017346" lon="102.151562">
<time>2016-10-07T02:13:31Z</time></trkpt>
<trkpt lat="25.017365" lon="102.151461">
<time>2016-10-07T02:13:32Z</time></trkpt>
<trkpt lat="25.017365" lon="102.151341">
<time>2016-10-07T02:13:33Z</time></trkpt>
<trkpt lat="25.017365" lon="102.151211">
<time>2016-10-07T02:13:34Z</time></trkpt>
<trkpt lat="25.017355" lon="102.15104">
<time>2016-10-07T02:13:35Z</time></trkpt>
<trkpt lat="25.017354" lon="102.15081">
<time>2016-10-07T02:13:36Z</time></trkpt>
<trkpt lat="25.017364" lon="102.150549">
<time>2016-10-07T02:13:37Z</time></trkpt>
<trkpt lat="25.017433" lon="102.149828">
<time>2016-10-07T02:13:38Z</time></trkpt>
<trkpt lat="25.017462" lon="102.149577">
<time>2016-10-07T02:13:39Z</time></trkpt>
<trkpt lat="25.017472" lon="102.149337">
<time>2016-10-07T02:13:40Z</time></trkpt>
<trkpt lat="25.017481" lon="102.148996">
<time>2016-10-07T02:13:41Z</time></trkpt>
<trkpt lat="25.017471" lon="102.148816">
<time>2016-10-07T02:13:42Z</time></trkpt>
<trkpt lat="25.01746" lon="102.148555">
<time>2016-10-07T02:13:43Z</time></trkpt>
<trkpt lat="25.01746" lon="102.148415">
<time>2016-10-07T02:13:44Z</time></trkpt>
<trkpt lat="25.01747" lon="102.148345">
<time>2016-10-07T02:13:45Z</time></trkpt>
<trkpt lat="25.01749" lon="102.148274">
<time>2016-10-07T02:13:46Z</time></trkpt>
<trkpt lat="25.01751" lon="102.148224">
<time>2016-10-07T02:13:47Z</time></trkpt>
<trkpt lat="25.01753" lon="102.148184">
<time>2016-10-07T02:13:48Z</time></trkpt>
<trkpt lat="25.01755" lon="102.148164">
<time>2016-10-07T02:13:49Z</time></trkpt>
<trkpt lat="25.01758" lon="102.148144">
<time>2016-10-07T02:13:50Z</time></trkpt>
<trkpt lat="25.01762" lon="102.148114">
<time>2016-10-07T02:13:51Z</time></trkpt>
<trkpt lat="25.01766" lon="102.148084">
<time>2016-10-07T02:13:52Z</time></trkpt>
<trkpt lat="25.017699" lon="102.148074">
<time>2016-10-07T02:13:53Z</time></trkpt>
<trkpt lat="25.017729" lon="102.148064">
<time>2016-10-07T02:13:54Z</time></trkpt>
<trkpt lat="25.017759" lon="102.148064">
<time>2016-10-07T02:13:55Z</time></trkpt>
<trkpt lat="25.017789" lon="102.148054">
<time>2016-10-07T02:13:56Z</time></trkpt>
<trkpt lat="25.017819" lon="102.148064">
<time>2016-10-07T02:13:57Z</time></trkpt>
<trkpt lat="25.017869" lon="102.148064">
<time>2016-10-07T02:13:58Z</time></trkpt>
<trkpt lat="25.017929" lon="102.148084">
<time>2016-10-07T02:13:59Z</time></trkpt>
<trkpt lat="25.01802" lon="102.148114">
<time>2016-10-07T02:14:00Z</time></trkpt>
<trkpt lat="25.01808" lon="102.148134">
<time>2016-10-07T02:14:01Z</time></trkpt>
<trkpt lat="25.01814" lon="102.148164">
<time>2016-10-07T02:14:02Z</time></trkpt>
<trkpt lat="25.0183" lon="102.148234">
<time>2016-10-07T02:14:03Z</time></trkpt>
<trkpt lat="25.01835" lon="102.148244">
<time>2016-10-07T02:14:04Z</time></trkpt>
<trkpt lat="25.01839" lon="102.148254">
<time>2016-10-07T02:14:05Z</time></trkpt>
<trkpt lat="25.01842" lon="102.148264">
<time>2016-10-07T02:14:06Z</time></trkpt>
<trkpt lat="25.01844" lon="102.148264">
<time>2016-10-07T02:14:07Z</time></trkpt>
<trkpt lat="25.01846" lon="102.148264">
<time>2016-10-07T02:14:08Z</time></trkpt>
<trkpt lat="25.01848" lon="102.148264">
<time>2016-10-07T02:14:09Z</time></trkpt>
<trkpt lat="25.01849" lon="102.148264">
<time>2016-10-07T02:14:10Z</time></trkpt>
<trkpt lat="25.01851" lon="102.148254">
<time>2016-10-07T02:14:11Z</time></trkpt>
<trkpt lat="25.01853" lon="102.148244">
<time>2016-10-07T02:14:12Z</time></trkpt>
<trkpt lat="25.01855" lon="102.148244">
<time>2016-10-07T02:14:13Z</time></trkpt>
<trkpt lat="25.01858" lon="102.148224">
<time>2016-10-07T02:14:14Z</time></trkpt>
<trkpt lat="25.01859" lon="102.148204">
<time>2016-10-07T02:14:15Z</time></trkpt>
<trkpt lat="25.0186" lon="102.148184">
<time>2016-10-07T02:14:16Z</time></trkpt>
<trkpt lat="25.01861" lon="102.148164">
<time>2016-10-07T02:14:17Z</time></trkpt>
<trkpt lat="25.01862" lon="102.148154">
<time>2016-10-07T02:14:18Z</time></trkpt>
<trkpt lat="25.018629" lon="102.148114">
<time>2016-10-07T02:14:19Z</time></trkpt>
<trkpt lat="25.018629" lon="102.148074">
<time>2016-10-07T02:14:20Z</time></trkpt>
<trkpt lat="25.018629" lon="102.148034">
<time>2016-10-07T02:14:21Z</time></trkpt>
<trkpt lat="25.018619" lon="102.147984">
<time>2016-10-07T02:14:22Z</time></trkpt>
<trkpt lat="25.018609" lon="102.147954">
<time>2016-10-07T02:14:23Z</time></trkpt>
<trkpt lat="25.018599" lon="102.147894">
<time>2016-10-07T02:14:24Z</time></trkpt>
<trkpt lat="25.018559" lon="102.147793">
<time>2016-10-07T02:14:25Z</time></trkpt>
<trkpt lat="25.018499" lon="102.147623">
<time>2016-10-07T02:14:26Z</time></trkpt>
<trkpt lat="25.018468" lon="102.147473">
<time>2016-10-07T02:14:27Z</time></trkpt>
<trkpt lat="25.018448" lon="102.147342">
<time>2016-10-07T02:14:28Z</time></trkpt>
<trkpt lat="25.018428" lon="102.147202">
<time>2016-10-07T02:14:29Z</time></trkpt>
<trkpt lat="25.018418" lon="102.147072">
<time>2016-10-07T02:14:30Z</time></trkpt>
<trkpt lat="25.018407" lon="102.146902">
<time>2016-10-07T02:14:31Z</time></trkpt>
<trkpt lat="25.018397" lon="102.146761">
<time>2016-10-07T02:14:32Z</time></trkpt>
<trkpt lat="25.018387" lon="102.146651">
<time>2016-10-07T02:14:33Z</time></trkpt>
<trkpt lat="25.018367" lon="102.146551">
<time>2016-10-07T02:14:34Z</time></trkpt>
<trkpt lat="25.018327" lon="102.146451">
<time>2016-10-07T02:14:35Z</time></trkpt>
<trkpt lat="25.018297" lon="102.14634">
<time>2016-10-07T02:14:36Z</time></trkpt>
<trkpt lat="25.018236" lon="102.14624">
<time>2016-10-07T02:14:37Z</time></trkpt>
<trkpt lat="25.018136" lon="102.14606">
<time>2016-10-07T02:14:38Z</time></trkpt>
<trkpt lat="25.017805" lon="102.145519">
<time>2016-10-07T02:14:39Z</time></trkpt>
<trkpt lat="25.017745" lon="102.145408">
<time>2016-10-07T02:14:40Z</time></trkpt>
<trkpt lat="25.017695" lon="102.145318">
<time>2016-10-07T02:14:41Z</time></trkpt>
<trkpt lat="25.017665" lon="102.145238">
<time>2016-10-07T02:14:42Z</time></trkpt>
<trkpt lat="25.017645" lon="102.145188">
<time>2016-10-07T02:14:43Z</time></trkpt>
<trkpt lat="25.017635" lon="102.145138">
<time>2016-10-07T02:14:44Z</time></trkpt>
<trkpt lat="25.017614" lon="102.145058">
<time>2016-10-07T02:14:45Z</time></trkpt>
<trkpt lat="25.017614" lon="102.145008">
<time>2016-10-07T02:14:46Z</time></trkpt>
<trkpt lat="25.017614" lon="102.144947">
<time>2016-10-07T02:14:47Z</time></trkpt>
<trkpt lat="25.017624" lon="102.144877">
<time>2016-10-07T02:14:48Z</time></trkpt>
<trkpt lat="25.017634" lon="102.144817">
<time>2016-10-07T02:14:49Z</time></trkpt>
<trkpt lat="25.017664" lon="102.144747">
<time>2016-10-07T02:14:50Z</time></trkpt>
<trkpt lat="25.017694" lon="102.144687">
<time>2016-10-07T02:14:51Z</time></trkpt>
<trkpt lat="25.017714" lon="102.144637">
<time>2016-10-07T02:14:52Z</time></trkpt>
<trkpt lat="25.017744" lon="102.144607">
<time>2016-10-07T02:14:53Z</time></trkpt>
<trkpt lat="25.017804" lon="102.144517">
<time>2016-10-07T02:14:54Z</time></trkpt>
<trkpt lat="25.017863" lon="102.144426">
<time>2016-10-07T02:14:55Z</time></trkpt>
<trkpt lat="25.017903" lon="102.144366">
<time>2016-10-07T02:14:56Z</time></trkpt>
<trkpt lat="25.017933" lon="102.144306">
<time>2016-10-07T02:14:57Z</time></trkpt>
<trkpt lat="25.017953" lon="102.144246">
<time>2016-10-07T02:14:58Z</time></trkpt>
<trkpt lat="25.017963" lon="102.144186">
<time>2016-10-07T02:14:59Z</time></trkpt>
<trkpt lat="25.017963" lon="102.144146">
<time>2016-10-07T02:15:00Z</time></trkpt>
<trkpt lat="25.017963" lon="102.144106">
<time>2016-10-07T02:15:01Z</time></trkpt>
<trkpt lat="25.017953" lon="102.144046">
<time>2016-10-07T02:15:02Z</time></trkpt>
<trkpt lat="25.017943" lon="102.143985">
<time>2016-10-07T02:15:03Z</time></trkpt>
<trkpt lat="25.017903" lon="102.143885">
<time>2016-10-07T02:15:04Z</time></trkpt>
<trkpt lat="25.017762" lon="102.143615">
<time>2016-10-07T02:15:05Z</time></trkpt>
<trkpt lat="25.017702" lon="102.143515">
<time>2016-10-07T02:15:06Z</time></trkpt>
<trkpt lat="25.017662" lon="102.143454">
<time>2016-10-07T02:15:07Z</time></trkpt>
<trkpt lat="25.017612" lon="102.143394">
<time>2016-10-07T02:15:08Z</time></trkpt>
<trkpt lat="25.017572" lon="102.143354">
<time>2016-10-07T02:15:09Z</time></trkpt>
<trkpt lat="25.017522" lon="102.143314">
<time>2016-10-07T02:15:10Z</time></trkpt>
<trkpt lat="25.017452" lon="102.143274">
<time>2016-10-07T02:15:11Z</time></trkpt>
<trkpt lat="25.017392" lon="102.143234">
<time>2016-10-07T02:15:12Z</time></trkpt>
<trkpt lat="25.017312" lon="102.143214">
<time>2016-10-07T02:15:13Z</time></trkpt>
<trkpt lat="25.017211" lon="102.143184">
<time>2016-10-07T02:15:14Z</time></trkpt>
<trkpt lat="25.017111" lon="102.143164">
<time>2016-10-07T02:15:15Z</time></trkpt>
<trkpt lat="25.016951" lon="102.143114">
<time>2016-10-07T02:15:16Z</time></trkpt>
<trkpt lat="25.016881" lon="102.143094">
<time>2016-10-07T02:15:17Z</time></trkpt>
<trkpt lat="25.016811" lon="102.143054">
<time>2016-10-07T02:15:18Z</time></trkpt>
<trkpt lat="25.016751" lon="102.143024">
<time>2016-10-07T02:15:19Z</time></trkpt>
<trkpt lat="25.016701" lon="102.142973">
<time>2016-10-07T02:15:20Z</time></trkpt>
<trkpt lat="25.016631" lon="102.142903">
<time>2016-10-07T02:15:21Z</time></trkpt>
<trkpt lat="25.016561" lon="102.142813">
<time>2016-10-07T02:15:22Z</time></trkpt>
<trkpt lat="25.016501" lon="102.142713">
<time>2016-10-07T02:15:23Z</time></trkpt>
<trkpt lat="25.016441" lon="102.142633">
<time>2016-10-07T02:15:24Z</time></trkpt>
<trkpt lat="25.016371" lon="102.142513">
<time>2016-10-07T02:15:25Z</time></trkpt>
<trkpt lat="25.01622" lon="102.142262">
<time>2016-10-07T02:15:26Z</time></trkpt>
<trkpt lat="25.01615" lon="102.142152">
<time>2016-10-07T02:15:27Z</time></trkpt>
<trkpt lat="25.01609" lon="102.142072">
<time>2016-10-07T02:15:28Z</time></trkpt>
<trkpt lat="25.01599" lon="102.141971">
<time>2016-10-07T02:15:29Z</time></trkpt>
<trkpt lat="25.01588" lon="102.141881">
<time>2016-10-07T02:15:30Z</time></trkpt>
<trkpt lat="25.015769" lon="102.141811">
<time>2016-10-07T02:15:31Z</time></trkpt>
<trkpt lat="25.015669" lon="102.141751">
<time>2016-10-07T02:15:32Z</time></trkpt>
<trkpt lat="25.015549" lon="102.141681">
<time>2016-10-07T02:15:33Z</time></trkpt>
<trkpt lat="25.015439" lon="102.141621">
<time>2016-10-07T02:15:34Z</time></trkpt>
<trkpt lat="25.015319" lon="102.141561">
<time>2016-10-07T02:15:35Z</time></trkpt>
<trkpt lat="25.015189" lon="102.141511">
<time>2016-10-07T02:15:36Z</time></trkpt>
<trkpt lat="25.015029" lon="102.141481">
<time>2016-10-07T02:15:37Z</time></trkpt>
<trkpt lat="25.014879" lon="102.141471">
<time>2016-10-07T02:15:38Z</time></trkpt>
<trkpt lat="25.014779" lon="102.14145">
<time>2016-10-07T02:15:39Z</time></trkpt>
<trkpt lat="25.014689" lon="102.14143">
<time>2016-10-07T02:15:40Z</time></trkpt>
<trkpt lat="25.014579" lon="102.14139">
<time>2016-10-07T02:15:41Z</time></trkpt>
<trkpt lat="25.014519" lon="102.14136">
<time>2016-10-07T02:15:42Z</time></trkpt>
<trkpt lat="25.014459" lon="102.14131">
<time>2016-10-07T02:15:43Z</time></trkpt>
<trkpt lat="25.014429" lon="102.14128">
<time>2016-10-07T02:15:44Z</time></trkpt>
<trkpt lat="25.014389" lon="102.14125">
<time>2016-10-07T02:15:45Z</time></trkpt>
<trkpt lat="25.014359" lon="102.1412">
<time>2016-10-07T02:15:46Z</time></trkpt>
<trkpt lat="25.014329" lon="102.14116">
<time>2016-10-07T02:15:47Z</time></trkpt>
<trkpt lat="25.014309" lon="102.14111">
<time>2016-10-07T02:15:48Z</time></trkpt>
<trkpt lat="25.014278" lon="102.14106">
<time>2016-10-07T02:15:49Z</time></trkpt>
<trkpt lat="25.014268" lon="102.14099">
<time>2016-10-07T02:15:50Z</time></trkpt>
<trkpt lat="25.014258" lon="102.140919">
<time>2016-10-07T02:15:51Z</time></trkpt>
<trkpt lat="25.014248" lon="102.140789">
<time>2016-10-07T02:15:52Z</time></trkpt>
<trkpt lat="25.014258" lon="102.140679">
<time>2016-10-07T02:15:53Z</time></trkpt>
<trkpt lat="25.014268" lon="102.140579">
<time>2016-10-07T02:15:54Z</time></trkpt>
<trkpt lat="25.014258" lon="102.140509">
<time>2016-10-07T02:15:55Z</time></trkpt>
<trkpt lat="25.014258" lon="102.140459">
<time>2016-10-07T02:15:56Z</time></trkpt>
<trkpt lat="25.014237" lon="102.140378">
<time>2016-10-07T02:15:57Z</time></trkpt>
<trkpt lat="25.014217" lon="102.140328">
<time>2016-10-07T02:15:58Z</time></trkpt>
<trkpt lat="25.014187" lon="102.140248">
<time>2016-10-07T02:15:59Z</time></trkpt>
<trkpt lat="25.014137" lon="102.140178">
<time>2016-10-07T02:16:00Z</time></trkpt>
<trkpt lat="25.014077" lon="102.140078">
<time>2016-10-07T02:16:01Z</time></trkpt>
<trkpt lat="25.013987" lon="102.139978">
<time>2016-10-07T02:16:02Z</time></trkpt>
<trkpt lat="25.013857" lon="102.139827">
<time>2016-10-07T02:16:03Z</time></trkpt>
<trkpt lat="25.013737" lon="102.139747">
<time>2016-10-07T02:16:04Z</time></trkpt>
<trkpt lat="25.013646" lon="102.139697">
<time>2016-10-07T02:16:05Z</time></trkpt>
<trkpt lat="25.013556" lon="102.139657">
<time>2016-10-07T02:16:06Z</time></trkpt>
<trkpt lat="25.013436" lon="102.139597">
<time>2016-10-07T02:16:07Z</time></trkpt>
<trkpt lat="25.012936" lon="102.139396">
<time>2016-10-07T02:16:08Z</time></trkpt>
<trkpt lat="25.012766" lon="102.139326">
<time>2016-10-07T02:16:09Z</time></trkpt>
<trkpt lat="25.012676" lon="102.139276">
<time>2016-10-07T02:16:10Z</time></trkpt>
<trkpt lat="25.012626" lon="102.139236">
<time>2016-10-07T02:16:11Z</time></trkpt>
<trkpt lat="25.012586" lon="102.139206">
<time>2016-10-07T02:16:12Z</time></trkpt>
<trkpt lat="25.012556" lon="102.139156">
<time>2016-10-07T02:16:13Z</time></trkpt>
<trkpt lat="25.012516" lon="102.139106">
<time>2016-10-07T02:16:14Z</time></trkpt>
<trkpt lat="25.012496" lon="102.139066">
<time>2016-10-07T02:16:15Z</time></trkpt>
<trkpt lat="25.012476" lon="102.138986">
<time>2016-10-07T02:16:16Z</time></trkpt>
<trkpt lat="25.012455" lon="102.138916">
<time>2016-10-07T02:16:17Z</time></trkpt>
<trkpt lat="25.012435" lon="102.138835">
<time>2016-10-07T02:16:18Z</time></trkpt>
<trkpt lat="25.012425" lon="102.138725">
<time>2016-10-07T02:16:19Z</time></trkpt>
<trkpt lat="25.012415" lon="102.138605">
<time>2016-10-07T02:16:20Z</time></trkpt>
<trkpt lat="25.012415" lon="102.138535">
<time>2016-10-07T02:16:21Z</time></trkpt>
<trkpt lat="25.012395" lon="102.138465">
<time>2016-10-07T02:16:22Z</time></trkpt>
<trkpt lat="25.012375" lon="102.138425">
<time>2016-10-07T02:16:23Z</time></trkpt>
<trkpt lat="25.012365" lon="102.138395">
<time>2016-10-07T02:16:24Z</time></trkpt>
<trkpt lat="25.012335" lon="102.138344">
<time>2016-10-07T02:16:25Z</time></trkpt>
<trkpt lat="25.012305" lon="102.138314">
<time>2016-10-07T02:16:26Z</time></trkpt>
<trkpt lat="25.012254" lon="102.138264">
<time>2016-10-07T02:16:27Z</time></trkpt>
<trkpt lat="25.012184" lon="102.138194">
<time>2016-10-07T02:16:28Z</time></trkpt>
<trkpt lat="25.012044" lon="102.138054">
<time>2016-10-07T02:16:29Z</time></trkpt>
<trkpt lat="25.012004" lon="102.138024">
<time>2016-10-07T02:16:30Z</time></trkpt>
<trkpt lat="25.011964" lon="102.137974">
<time>2016-10-07T02:16:31Z</time></trkpt>
<trkpt lat="25.011944" lon="102.137934">
<time>2016-10-07T02:16:32Z</time></trkpt>
<trkpt lat="25.011914" lon="102.137884">
<time>2016-10-07T02:16:33Z</time></trkpt>
<trkpt lat="25.011884" lon="102.137823">
<time>2016-10-07T02:16:34Z</time></trkpt>
<trkpt lat="25.011874" lon="102.137773">
<time>2016-10-07T02:16:35Z</time></trkpt>
<trkpt lat="25.011854" lon="102.137713">
<time>2016-10-07T02:16:36Z</time></trkpt>
<trkpt lat="25.011824" lon="102.137603">
<time>2016-10-07T02:16:37Z</time></trkpt>
<trkpt lat="25.011803" lon="102.137513">
<time>2016-10-07T02:16:38Z</time></trkpt>
<trkpt lat="25.011773" lon="102.137443">
<time>2016-10-07T02:16:39Z</time></trkpt>
<trkpt lat="25.011753" lon="102.137393">
<time>2016-10-07T02:16:40Z</time></trkpt>
<trkpt lat="25.011723" lon="102.137323">
<time>2016-10-07T02:16:41Z</time></trkpt>
<trkpt lat="25.011683" lon="102.137252">
<time>2016-10-07T02:16:42Z</time></trkpt>
<trkpt lat="25.011653" lon="102.137202">
<time>2016-10-07T02:16:43Z</time></trkpt>
<trkpt lat="25.011573" lon="102.137082">
<time>2016-10-07T02:16:44Z</time></trkpt>
<trkpt lat="25.011443" lon="102.136892">
<time>2016-10-07T02:16:45Z</time></trkpt>
<trkpt lat="25.011362" lon="102.136772">
<time>2016-10-07T02:16:46Z</time></trkpt>
<trkpt lat="25.011312" lon="102.136701">
<time>2016-10-07T02:16:47Z</time></trkpt>
<trkpt lat="25.011292" lon="102.136651">
<time>2016-10-07T02:16:48Z</time></trkpt>
<trkpt lat="25.011282" lon="102.136621">
<time>2016-10-07T02:16:49Z</time></trkpt>
<trkpt lat="25.011272" lon="102.136591">
<time>2016-10-07T02:16:50Z</time></trkpt>
<trkpt lat="25.011262" lon="102.136561">
<time>2016-10-07T02:16:51Z</time></trkpt>
<trkpt lat="25.011262" lon="102.136541">
<time>2016-10-07T02:16:52Z</time></trkpt>
<trkpt lat="25.011262" lon="102.136511">
<time>2016-10-07T02:16:53Z</time></trkpt>
<trkpt lat="25.011262" lon="102.136491">
<time>2016-10-07T02:16:54Z</time></trkpt>
<trkpt lat="25.011262" lon="102.136461">
<time>2016-10-07T02:16:55Z</time></trkpt>
<trkpt lat="25.011262" lon="102.136431">
<time>2016-10-07T02:16:56Z</time></trkpt>
<trkpt lat="25.011262" lon="102.136411">
<time>2016-10-07T02:16:57Z</time></trkpt>
<trkpt lat="25.011272" lon="102.136381">
<time>2016-10-07T02:16:58Z</time></trkpt>
<trkpt lat="25.011282" lon="102.136341">
<time>2016-10-07T02:16:59Z</time></trkpt>
<trkpt lat="25.011292" lon="102.136311">
<time>2016-10-07T02:17:00Z</time></trkpt>
<trkpt lat="25.011302" lon="102.136281">
<time>2016-10-07T02:17:01Z</time></trkpt>
<trkpt lat="25.011322" lon="102.136251">
<time>2016-10-07T02:17:02Z</time></trkpt>
<trkpt lat="25.011342" lon="102.136231">
<time>2016-10-07T02:17:03Z</time></trkpt>
<trkpt lat="25.011362" lon="102.13619">
<time>2016-10-07T02:17:04Z</time></trkpt>
<trkpt lat="25.011401" lon="102.13615">
<time>2016-10-07T02:17:05Z</time></trkpt>
<trkpt lat="25.011481" lon="102.13607">
<time>2016-10-07T02:17:06Z</time></trkpt>
<trkpt lat="25.011601" lon="102.13595">
<time>2016-10-07T02:17:07Z</time></trkpt>
<trkpt lat="25.011711" lon="102.13584">
<time>2016-10-07T02:17:08Z</time></trkpt>
<trkpt lat="25.011841" lon="102.13572">
<time>2016-10-07T02:17:09Z</time></trkpt>
<trkpt lat="25.011901" lon="102.135669">
<time>2016-10-07T02:17:10Z</time></trkpt>
<trkpt lat="25.011941" lon="102.135639">
<time>2016-10-07T02:17:11Z</time></trkpt>
<trkpt lat="25.011971" lon="102.135629">
<time>2016-10-07T02:17:12Z</time></trkpt>
<trkpt lat="25.012011" lon="102.135609">
<time>2016-10-07T02:17:13Z</time></trkpt>
<trkpt lat="25.012051" lon="102.135589">
<time>2016-10-07T02:17:14Z</time></trkpt>
<trkpt lat="25.012091" lon="102.135579">
<time>2016-10-07T02:17:15Z</time></trkpt>
<trkpt lat="25.012131" lon="102.135569">
<time>2016-10-07T02:17:16Z</time></trkpt>
<trkpt lat="25.012171" lon="102.135559">
<time>2016-10-07T02:17:17Z</time></trkpt>
<trkpt lat="25.012211" lon="102.135559">
<time>2016-10-07T02:17:18Z</time></trkpt>
<trkpt lat="25.012261" lon="102.135549">
<time>2016-10-07T02:17:19Z</time></trkpt>
<trkpt lat="25.01238" lon="102.135539">
<time>2016-10-07T02:17:20Z</time></trkpt>
<trkpt lat="25.01255" lon="102.135529">
<time>2016-10-07T02:17:21Z</time></trkpt>
<trkpt lat="25.01264" lon="102.135529">
<time>2016-10-07T02:17:22Z</time></trkpt>
<trkpt lat="25.01269" lon="102.135529">
<time>2016-10-07T02:17:23Z</time></trkpt>
<trkpt lat="25.01272" lon="102.135539">
<time>2016-10-07T02:17:24Z</time></trkpt>
<trkpt lat="25.01274" lon="102.135539">
<time>2016-10-07T02:17:25Z</time></trkpt>
<trkpt lat="25.01277" lon="102.135549">
<time>2016-10-07T02:17:26Z</time></trkpt>
<trkpt lat="25.01279" lon="102.135559">
<time>2016-10-07T02:17:27Z</time></trkpt>
<trkpt lat="25.0128" lon="102.135559">
<time>2016-10-07T02:17:28Z</time></trkpt>
<trkpt lat="25.01282" lon="102.135569">
<time>2016-10-07T02:17:29Z</time></trkpt>
<trkpt lat="25.01284" lon="102.135589">
<time>2016-10-07T02:17:30Z</time></trkpt>
<trkpt lat="25.012871" lon="102.135599">
<time>2016-10-07T02:17:31Z</time></trkpt>
<trkpt lat="25.012901" lon="102.135629">
<time>2016-10-07T02:17:32Z</time></trkpt>
<trkpt lat="25.012921" lon="102.135649">
<time>2016-10-07T02:17:33Z</time></trkpt>
<trkpt lat="25.012941" lon="102.135679">
<time>2016-10-07T02:17:34Z</time></trkpt>
<trkpt lat="25.012961" lon="102.135699">
<time>2016-10-07T02:17:35Z</time></trkpt>
<trkpt lat="25.012981" lon="102.13573">
<time>2016-10-07T02:17:36Z</time></trkpt>
<trkpt lat="25.013021" lon="102.1358">
<time>2016-10-07T02:17:37Z</time></trkpt>
<trkpt lat="25.013061" lon="102.13588">
<time>2016-10-07T02:17:38Z</time></trkpt>
<trkpt lat="25.013151" lon="102.13606">
<time>2016-10-07T02:17:39Z</time></trkpt>
<trkpt lat="25.013201" lon="102.13615">
<time>2016-10-07T02:17:40Z</time></trkpt>
<trkpt lat="25.013251" lon="102.13625">
<time>2016-10-07T02:17:41Z</time></trkpt>
<trkpt lat="25.013332" lon="102.136351">
<time>2016-10-07T02:17:42Z</time></trkpt>
<trkpt lat="25.013392" lon="102.136441">
<time>2016-10-07T02:17:43Z</time></trkpt>
<trkpt lat="25.013482" lon="102.136521">
<time>2016-10-07T02:17:44Z</time></trkpt>
<trkpt lat="25.013562" lon="102.136591">
<time>2016-10-07T02:17:45Z</time></trkpt>
<trkpt lat="25.013852" lon="102.136832">
<time>2016-10-07T02:17:46Z</time></trkpt>
<trkpt lat="25.014273" lon="102.137172">
<time>2016-10-07T02:17:47Z</time></trkpt>
<trkpt lat="25.014443" lon="102.137332">
<time>2016-10-07T02:17:48Z</time></trkpt>
<trkpt lat="25.014623" lon="102.137543">
<time>2016-10-07T02:17:49Z</time></trkpt>
<trkpt lat="25.014773" lon="102.137713">
<time>2016-10-07T02:17:50Z</time></trkpt>
<trkpt lat="25.014803" lon="102.137733">
<time>2016-10-07T02:17:51Z</time></trkpt>
<trkpt lat="25.014823" lon="102.137753">
<time>2016-10-07T02:17:52Z</time></trkpt>
<trkpt lat="25.014853" lon="102.137763">
<time>2016-10-07T02:17:53Z</time></trkpt>
<trkpt lat="25.014873" lon="102.137773">
<time>2016-10-07T02:17:54Z</time></trkpt>
<trkpt lat="25.014893" lon="102.137773">
<time>2016-10-07T02:17:55Z</time></trkpt>
<trkpt lat="25.014923" lon="102.137783">
<time>2016-10-07T02:17:56Z</time></trkpt>
<trkpt lat="25.014943" lon="102.137783">
<time>2016-10-07T02:17:57Z</time></trkpt>
<trkpt lat="25.014963" lon="102.137783">
<time>2016-10-07T02:17:58Z</time></trkpt>
<trkpt lat="25.014993" lon="102.137783">
<time>2016-10-07T02:17:59Z</time></trkpt>
<trkpt lat="25.015013" lon="102.137783">
<time>2016-10-07T02:18:00Z</time></trkpt>
<trkpt lat="25.015033" lon="102.137773">
<time>2016-10-07T02:18:01Z</time></trkpt>
<trkpt lat="25.015063" lon="102.137763">
<time>2016-10-07T02:18:02Z</time></trkpt>
<trkpt lat="25.015083" lon="102.137753">
<time>2016-10-07T02:18:03Z</time></trkpt>
<trkpt lat="25.015103" lon="102.137743">
<time>2016-10-07T02:18:04Z</time></trkpt>
<trkpt lat="25.015133" lon="102.137723">
<time>2016-10-07T02:18:05Z</time></trkpt>
<trkpt lat="25.015173" lon="102.137683">
<time>2016-10-07T02:18:06Z</time></trkpt>
<trkpt lat="25.015293" lon="102.137553">
<time>2016-10-07T02:18:07Z</time></trkpt>
<trkpt lat="25.015443" lon="102.137403">
<time>2016-10-07T02:18:08Z</time></trkpt>
<trkpt lat="25.015483" lon="102.137352">
<time>2016-10-07T02:18:09Z</time></trkpt>
<trkpt lat="25.015543" lon="102.137292">
<time>2016-10-07T02:18:10Z</time></trkpt>
<trkpt lat="25.015623" lon="102.137252">
<time>2016-10-07T02:18:11Z</time></trkpt>
<trkpt lat="25.015683" lon="102.137222">
<time>2016-10-07T02:18:12Z</time></trkpt>
<trkpt lat="25.015742" lon="102.137202">
<time>2016-10-07T02:18:13Z</time></trkpt>
<trkpt lat="25.015842" lon="102.137182">
<time>2016-10-07T02:18:14Z</time></trkpt>
<trkpt lat="25.015902" lon="102.137182">
<time>2016-10-07T02:18:15Z</time></trkpt>
<trkpt lat="25.015972" lon="102.137182">
<time>2016-10-07T02:18:16Z</time></trkpt>
<trkpt lat="25.016092" lon="102.137202">
<time>2016-10-07T02:18:17Z</time></trkpt>
<trkpt lat="25.016172" lon="102.137212">
<time>2016-10-07T02:18:18Z</time></trkpt>
<trkpt lat="25.016322" lon="102.137242">
<time>2016-10-07T02:18:19Z</time></trkpt>
<trkpt lat="25.016573" lon="102.137292">
<time>2016-10-07T02:18:20Z</time></trkpt>
<trkpt lat="25.016633" lon="102.137312">
<time>2016-10-07T02:18:21Z</time></trkpt>
<trkpt lat="25.016673" lon="102.137322">
<time>2016-10-07T02:18:22Z</time></trkpt>
<trkpt lat="25.016713" lon="102.137342">
<time>2016-10-07T02:18:23Z</time></trkpt>
<trkpt lat="25.016733" lon="102.137362">
<time>2016-10-07T02:18:24Z</time></trkpt>
<trkpt lat="25.016763" lon="102.137383">
<time>2016-10-07T02:18:25Z</time></trkpt>
<trkpt lat="25.016783" lon="102.137403">
<time>2016-10-07T02:18:26Z</time></trkpt>
<trkpt lat="25.016803" lon="102.137433">
<time>2016-10-07T02:18:27Z</time></trkpt>
<trkpt lat="25.016823" lon="102.137463">
<time>2016-10-07T02:18:28Z</time></trkpt>
<trkpt lat="25.016833" lon="102.137483">
<time>2016-10-07T02:18:29Z</time></trkpt>
<trkpt lat="25.016853" lon="102.137523">
<time>2016-10-07T02:18:30Z</time></trkpt>
<trkpt lat="25.016863" lon="102.137563">
<time>2016-10-07T02:18:31Z</time></trkpt>
<trkpt lat="25.016873" lon="102.137623">
<time>2016-10-07T02:18:32Z</time></trkpt>
<trkpt lat="25.016883" lon="102.137773">
<time>2016-10-07T02:18:33Z</time></trkpt>
<trkpt lat="25.016903" lon="102.137853">
<time>2016-10-07T02:18:34Z</time></trkpt>
<trkpt lat="25.016913" lon="102.137893">
<time>2016-10-07T02:18:35Z</time></trkpt>
<trkpt lat="25.016923" lon="102.137924">
<time>2016-10-07T02:18:36Z</time></trkpt>
<trkpt lat="25.016943" lon="102.137954">
<time>2016-10-07T02:18:37Z</time></trkpt>
<trkpt lat="25.016973" lon="102.137984">
<time>2016-10-07T02:18:38Z</time></trkpt>
<trkpt lat="25.017004" lon="102.138014">
<time>2016-10-07T02:18:39Z</time></trkpt>
<trkpt lat="25.017024" lon="102.138034">
<time>2016-10-07T02:18:40Z</time></trkpt>
<trkpt lat="25.017054" lon="102.138044">
<time>2016-10-07T02:18:41Z</time></trkpt>
<trkpt lat="25.017084" lon="102.138054">
<time>2016-10-07T02:18:42Z</time></trkpt>
<trkpt lat="25.017114" lon="102.138064">
<time>2016-10-07T02:18:43Z</time></trkpt>
<trkpt lat="25.017144" lon="102.138074">
<time>2016-10-07T02:18:44Z</time></trkpt>
<trkpt lat="25.017184" lon="102.138074">
<time>2016-10-07T02:18:45Z</time></trkpt>
<trkpt lat="25.017234" lon="102.138074">
<time>2016-10-07T02:18:46Z</time></trkpt>
<trkpt lat="25.017294" lon="102.138074">
<time>2016-10-07T02:18:47Z</time></trkpt>
<trkpt lat="25.017364" lon="102.138074">
<time>2016-10-07T02:18:48Z</time></trkpt>
<trkpt lat="25.017434" lon="102.138064">
<time>2016-10-07T02:18:49Z</time></trkpt>
<trkpt lat="25.017484" lon="102.138064">
<time>2016-10-07T02:18:50Z</time></trkpt>
<trkpt lat="25.017514" lon="102.138074">
<time>2016-10-07T02:18:51Z</time></trkpt>
<trkpt lat="25.017544" lon="102.138074">
<time>2016-10-07T02:18:52Z</time></trkpt>
<trkpt lat="25.017564" lon="102.138084">
<time>2016-10-07T02:18:53Z</time></trkpt>
<trkpt lat="25.017584" lon="102.138094">
<time>2016-10-07T02:18:54Z</time></trkpt>
<trkpt lat="25.017614" lon="102.138104">
<time>2016-10-07T02:18:55Z</time></trkpt>
<trkpt lat="25.017634" lon="102.138114">
<time>2016-10-07T02:18:56Z</time></trkpt>
<trkpt lat="25.017644" lon="102.138124">
<time>2016-10-07T02:18:57Z</time></trkpt>
<trkpt lat="25.017684" lon="102.138154">
<time>2016-10-07T02:18:58Z</time></trkpt>
<trkpt lat="25.017694" lon="102.138164">
<time>2016-10-07T02:18:59Z</time></trkpt>
<trkpt lat="25.017704" lon="102.138174">
<time>2016-10-07T02:19:00Z</time></trkpt>
<trkpt lat="25.017714" lon="102.138194">
<time>2016-10-07T02:19:01Z</time></trkpt>
<trkpt lat="25.017724" lon="102.138204">
<time>2016-10-07T02:19:02Z</time></trkpt>
<trkpt lat="25.017744" lon="102.138244">
<time>2016-10-07T02:19:03Z</time></trkpt>
<trkpt lat="25.017754" lon="102.138274">
<time>2016-10-07T02:19:04Z</time></trkpt>
<trkpt lat="25.017764" lon="102.138294">
<time>2016-10-07T02:19:05Z</time></trkpt>
<trkpt lat="25.017784" lon="102.138354">
<time>2016-10-07T02:19:06Z</time></trkpt>
<trkpt lat="25.017804" lon="102.138414">
<time>2016-10-07T02:19:07Z</time></trkpt>
<trkpt lat="25.017824" lon="102.138505">
<time>2016-10-07T02:19:08Z</time></trkpt>
<trkpt lat="25.017834" lon="102.138555">
<time>2016-10-07T02:19:09Z</time></trkpt>
<trkpt lat="25.017844" lon="102.138585">
<time>2016-10-07T02:19:10Z</time></trkpt>
<trkpt lat="25.017854" lon="102.138665">
<time>2016-10-07T02:19:11Z</time></trkpt>
<trkpt lat="25.017874" lon="102.138715">
<time>2016-10-07T02:19:12Z</time></trkpt>
<trkpt lat="25.017895" lon="102.138765">
<time>2016-10-07T02:19:13Z</time></trkpt>
<trkpt lat="25.017915" lon="102.138805">
<time>2016-10-07T02:19:14Z</time></trkpt>
<trkpt lat="25.017935" lon="102.138835">
<time>2016-10-07T02:19:15Z</time></trkpt>
<trkpt lat="25.017955" lon="102.138865">
<time>2016-10-07T02:19:16Z</time></trkpt>
<trkpt lat="25.017975" lon="102.138885">
<time>2016-10-07T02:19:17Z</time></trkpt>
<trkpt lat="25.018005" lon="102.138905">
<time>2016-10-07T02:19:18Z</time></trkpt>
<trkpt lat="25.018035" lon="102.138925">
<time>2016-10-07T02:19:19Z</time></trkpt>
<trkpt lat="25.018085" lon="102.138955">
<time>2016-10-07T02:19:20Z</time></trkpt>
<trkpt lat="25.018125" lon="102.138965">
<time>2016-10-07T02:19:21Z</time></trkpt>
<trkpt lat="25.018195" lon="102.138986">
<time>2016-10-07T02:19:22Z</time></trkpt>
<trkpt lat="25.018295" lon="102.138996">
<time>2016-10-07T02:19:23Z</time></trkpt>
<trkpt lat="25.018505" lon="102.139016">
<time>2016-10-07T02:19:24Z</time></trkpt>
<trkpt lat="25.019185" lon="102.139126">
<time>2016-10-07T02:19:25Z</time></trkpt>
<trkpt lat="25.019275" lon="102.139146">
<time>2016-10-07T02:19:26Z</time></trkpt>
<trkpt lat="25.019345" lon="102.139146">
<time>2016-10-07T02:19:27Z</time></trkpt>
<trkpt lat="25.019395" lon="102.139146">
<time>2016-10-07T02:19:28Z</time></trkpt>
<trkpt lat="25.019445" lon="102.139136">
<time>2016-10-07T02:19:29Z</time></trkpt>
<trkpt lat="25.019485" lon="102.139116">
<time>2016-10-07T02:19:30Z</time></trkpt>
<trkpt lat="25.019535" lon="102.139096">
<time>2016-10-07T02:19:31Z</time></trkpt>
<trkpt lat="25.019565" lon="102.139076">
<time>2016-10-07T02:19:32Z</time></trkpt>
<trkpt lat="25.019615" lon="102.139026">
<time>2016-10-07T02:19:33Z</time></trkpt>
<trkpt lat="25.019655" lon="102.138975">
<time>2016-10-07T02:19:34Z</time></trkpt>
<trkpt lat="25.019774" lon="102.138815">
<time>2016-10-07T02:19:35Z</time></trkpt>
<trkpt lat="25.019804" lon="102.138785">
<time>2016-10-07T02:19:36Z</time></trkpt>
<trkpt lat="25.019854" lon="102.138745">
<time>2016-10-07T02:19:37Z</time></trkpt>
<trkpt lat="25.019894" lon="102.138705">
<time>2016-10-07T02:19:38Z</time></trkpt>
<trkpt lat="25.019944" lon="102.138685">
<time>2016-10-07T02:19:39Z</time></trkpt>
<trkpt lat="25.019984" lon="102.138665">
<time>2016-10-07T02:19:40Z</time></trkpt>
<trkpt lat="25.020024" lon="102.138655">
<time>2016-10-07T02:19:41Z</time></trkpt>
<trkpt lat="25.020074" lon="102.138645">
<time>2016-10-07T02:19:42Z</time></trkpt>
<trkpt lat="25.020124" lon="102.138645">
<time>2016-10-07T02:19:43Z</time></trkpt>
<trkpt lat="25.020154" lon="102.138645">
<time>2016-10-07T02:19:44Z</time></trkpt>
<trkpt lat="25.020194" lon="102.138655">
<time>2016-10-07T02:19:45Z</time></trkpt>
<trkpt lat="25.020234" lon="102.138675">
<time>2016-10-07T02:19:46Z</time></trkpt>
<trkpt lat="25.020274" lon="102.138685">
<time>2016-10-07T02:19:47Z</time></trkpt>
<trkpt lat="25.020314" lon="102.138705">
<time>2016-10-07T02:19:48Z</time></trkpt>
<trkpt lat="25.020354" lon="102.138725">
<time>2016-10-07T02:19:49Z</time></trkpt>
<trkpt lat="25.020414" lon="102.138745">
<time>2016-10-07T02:19:50Z</time></trkpt>
<trkpt lat="25.020464" lon="102.138775">
<time>2016-10-07T02:19:51Z</time></trkpt>
<trkpt lat="25.020514" lon="102.138795">
<time>2016-10-07T02:19:52Z</time></trkpt>
<trkpt lat="25.020554" lon="102.138815">
<time>2016-10-07T02:19:53Z</time></trkpt>
<trkpt lat="25.020584" lon="102.138825">
<time>2016-10-07T02:19:54Z</time></trkpt>
<trkpt lat="25.020614" lon="102.138825">
<time>2016-10-07T02:19:55Z</time></trkpt>
<trkpt lat="25.020644" lon="102.138835">
<time>2016-10-07T02:19:56Z</time></trkpt>
<trkpt lat="25.020684" lon="102.138835">
<time>2016-10-07T02:19:57Z</time></trkpt>
<trkpt lat="25.020704" lon="102.138825">
<time>2016-10-07T02:19:58Z</time></trkpt>
<trkpt lat="25.020734" lon="102.138815">
<time>2016-10-07T02:19:59Z</time></trkpt>
<trkpt lat="25.020754" lon="102.138805">
<time>2016-10-07T02:20:00Z</time></trkpt>
<trkpt lat="25.020774" lon="102.138785">
<time>2016-10-07T02:20:01Z</time></trkpt>
<trkpt lat="25.020794" lon="102.138765">
<time>2016-10-07T02:20:02Z</time></trkpt>
<trkpt lat="25.020794" lon="102.138735">
<time>2016-10-07T02:20:03Z</time></trkpt>
<trkpt lat="25.020804" lon="102.138715">
<time>2016-10-07T02:20:04Z</time></trkpt>
<trkpt lat="25.020814" lon="102.138685">
<time>2016-10-07T02:20:05Z</time></trkpt>
<trkpt lat="25.020814" lon="102.138665">
<time>2016-10-07T02:20:06Z</time></trkpt>
<trkpt lat="25.020824" lon="102.138635">
<time>2016-10-07T02:20:07Z</time></trkpt>
<trkpt lat="25.020814" lon="102.138605">
<time>2016-10-07T02:20:08Z</time></trkpt>
<trkpt lat="25.020804" lon="102.138565">
<time>2016-10-07T02:20:09Z</time></trkpt>
<trkpt lat="25.020794" lon="102.138535">
<time>2016-10-07T02:20:10Z</time></trkpt>
<trkpt lat="25.020774" lon="102.138505">
<time>2016-10-07T02:20:11Z</time></trkpt>
<trkpt lat="25.020754" lon="102.138484">
<time>2016-10-07T02:20:12Z</time></trkpt>
<trkpt lat="25.020734" lon="102.138464">
<time>2016-10-07T02:20:13Z</time></trkpt>
<trkpt lat="25.020704" lon="102.138444">
<time>2016-10-07T02:20:14Z</time></trkpt>
<trkpt lat="25.020664" lon="102.138424">
<time>2016-10-07T02:20:15Z</time></trkpt>
<trkpt lat="25.020624" lon="102.138414">
<time>2016-10-07T02:20:16Z</time></trkpt>
<trkpt lat="25.020564" lon="102.138394">
<time>2016-10-07T02:20:17Z</time></trkpt>
<trkpt lat="25.020474" lon="102.138374">
<time>2016-10-07T02:20:18Z</time></trkpt>
<trkpt lat="25.020354" lon="102.138354">
<time>2016-10-07T02:20:19Z</time></trkpt>
<trkpt lat="25.020354" lon="102.138354">
<time>2016-10-07T02:20:20Z</time></trkpt>
<trkpt lat="25.020583" lon="102.138114">
<time>2016-10-07T02:20:21Z</time></trkpt>
<trkpt lat="25.020693" lon="102.137984">
<time>2016-10-07T02:20:22Z</time></trkpt>
<trkpt lat="25.020843" lon="102.137843">
<time>2016-10-07T02:20:23Z</time></trkpt>
<trkpt lat="25.021043" lon="102.137763">
<time>2016-10-07T02:20:24Z</time></trkpt>
<trkpt lat="25.021223" lon="102.137793">
<time>2016-10-07T02:20:25Z</time></trkpt>
<trkpt lat="25.021503" lon="102.137893">
<time>2016-10-07T02:20:26Z</time></trkpt>
<trkpt lat="25.021623" lon="102.137923">
<time>2016-10-07T02:20:27Z</time></trkpt>
<trkpt lat="25.021763" lon="102.137953">
<time>2016-10-07T02:20:28Z</time></trkpt>
<trkpt lat="25.021823" lon="102.137933">
<time>2016-10-07T02:20:29Z</time></trkpt>
<trkpt lat="25.021903" lon="102.137823">
<time>2016-10-07T02:20:30Z</time></trkpt>
<trkpt lat="25.022012" lon="102.137703">
<time>2016-10-07T02:20:31Z</time></trkpt>
<trkpt lat="25.022112" lon="102.137673">
<time>2016-10-07T02:20:32Z</time></trkpt>
<trkpt lat="25.022202" lon="102.137663">
<time>2016-10-07T02:20:33Z</time></trkpt>
<trkpt lat="25.022302" lon="102.137683">
<time>2016-10-07T02:20:34Z</time></trkpt>
<trkpt lat="25.022392" lon="102.137703">
<time>2016-10-07T02:20:35Z</time></trkpt>
<trkpt lat="25.022502" lon="102.137733">
<time>2016-10-07T02:20:36Z</time></trkpt>
<trkpt lat="25.022572" lon="102.137733">
<time>2016-10-07T02:20:37Z</time></trkpt>
<trkpt lat="25.022682" lon="102.137733">
<time>2016-10-07T02:20:38Z</time></trkpt>
<trkpt lat="25.022762" lon="102.137733">
<time>2016-10-07T02:20:39Z</time></trkpt>
<trkpt lat="25.022862" lon="102.137663">
<time>2016-10-07T02:20:40Z</time></trkpt>
<trkpt lat="25.022952" lon="102.137583">
<time>2016-10-07T02:20:41Z</time></trkpt>
<trkpt lat="25.022982" lon="102.137472">
<time>2016-10-07T02:20:42Z</time></trkpt>
<trkpt lat="25.022972" lon="102.137302">
<time>2016-10-07T02:20:43Z</time></trkpt>
<trkpt lat="25.023121" lon="102.136982">
<time>2016-10-07T02:20:44Z</time></trkpt>
<trkpt lat="25.023281" lon="102.136691">
<time>2016-10-07T02:20:45Z</time></trkpt>
<trkpt lat="25.023311" lon="102.136581">
<time>2016-10-07T02:20:46Z</time></trkpt>
<trkpt lat="25.0234" lon="102.136431">
<time>2016-10-07T02:20:47Z</time></trkpt>
<trkpt lat="25.02343" lon="102.13624">
<time>2016-10-07T02:20:48Z</time></trkpt>
<trkpt lat="25.0234" lon="102.13603">
<time>2016-10-07T02:20:49Z</time></trkpt>
<trkpt lat="25.02336" lon="102.135819">
<time>2016-10-07T02:20:50Z</time></trkpt>
<trkpt lat="25.023399" lon="102.135559">
<time>2016-10-07T02:20:51Z</time></trkpt>
<trkpt lat="25.023419" lon="102.135359">
<time>2016-10-07T02:20:52Z</time></trkpt>
<trkpt lat="25.023479" lon="102.135148">
<time>2016-10-07T02:20:53Z</time></trkpt>
<trkpt lat="25.023488" lon="102.134958">
<time>2016-10-07T02:20:54Z</time></trkpt>
<trkpt lat="25.023468" lon="102.134848">
<time>2016-10-07T02:20:55Z</time></trkpt>
<trkpt lat="25.023428" lon="102.134697">
<time>2016-10-07T02:20:56Z</time></trkpt>
<trkpt lat="25.023378" lon="102.134537">
<time>2016-10-07T02:20:57Z</time></trkpt>
<trkpt lat="25.023407" lon="102.134196">
<time>2016-10-07T02:20:58Z</time></trkpt>
<trkpt lat="25.023417" lon="102.134016">
<time>2016-10-07T02:20:59Z</time></trkpt>
<trkpt lat="25.023427" lon="102.133906">
<time>2016-10-07T02:21:00Z</time></trkpt>
<trkpt lat="25.023457" lon="102.133796">
<time>2016-10-07T02:21:01Z</time></trkpt>
<trkpt lat="25.023507" lon="102.133655">
<time>2016-10-07T02:21:02Z</time></trkpt>
<trkpt lat="25.023506" lon="102.133505">
<time>2016-10-07T02:21:03Z</time></trkpt>
<trkpt lat="25.023486" lon="102.133415">
<time>2016-10-07T02:21:04Z</time></trkpt>
<trkpt lat="25.023516" lon="102.133155">
<time>2016-10-07T02:21:05Z</time></trkpt>
<trkpt lat="25.023596" lon="102.132984">
<time>2016-10-07T02:21:06Z</time></trkpt>
<trkpt lat="25.023745" lon="102.132774">
<time>2016-10-07T02:21:07Z</time></trkpt>
<trkpt lat="25.023835" lon="102.132724">
<time>2016-10-07T02:21:08Z</time></trkpt>
<trkpt lat="25.023945" lon="102.132724">
<time>2016-10-07T02:21:09Z</time></trkpt>
<trkpt lat="25.024135" lon="102.132684">
<time>2016-10-07T02:21:10Z</time></trkpt>
<trkpt lat="25.024205" lon="102.132644">
<time>2016-10-07T02:21:11Z</time></trkpt>
<trkpt lat="25.024355" lon="102.132644">
<time>2016-10-07T02:21:12Z</time></trkpt>
<trkpt lat="25.024435" lon="102.132684">
<time>2016-10-07T02:21:13Z</time></trkpt>
<trkpt lat="25.024555" lon="102.132704">
<time>2016-10-07T02:21:14Z</time></trkpt>
<trkpt lat="25.024705" lon="102.132714">
<time>2016-10-07T02:21:15Z</time></trkpt>
<trkpt lat="25.024905" lon="102.132654">
<time>2016-10-07T02:21:16Z</time></trkpt>
<trkpt lat="25.025205" lon="102.132463">
<time>2016-10-07T02:21:17Z</time></trkpt>
<trkpt lat="25.025285" lon="102.132333">
<time>2016-10-07T02:21:18Z</time></trkpt>
<trkpt lat="25.025444" lon="102.132273">
<time>2016-10-07T02:21:19Z</time></trkpt>
<trkpt lat="25.025554" lon="102.132263">
<time>2016-10-07T02:21:20Z</time></trkpt>
<trkpt lat="25.025694" lon="102.132143">
<time>2016-10-07T02:21:21Z</time></trkpt>
<trkpt lat="25.025824" lon="102.131902">
<time>2016-10-07T02:21:22Z</time></trkpt>
<trkpt lat="25.025974" lon="102.131652">
<time>2016-10-07T02:21:23Z</time></trkpt>
<trkpt lat="25.026173" lon="102.131431">
<time>2016-10-07T02:21:24Z</time></trkpt>
<trkpt lat="25.026343" lon="102.131281">
<time>2016-10-07T02:21:25Z</time></trkpt>
<trkpt lat="25.026772" lon="102.13086">
<time>2016-10-07T02:21:26Z</time></trkpt>
<trkpt lat="25.027252" lon="102.13047">
<time>2016-10-07T02:21:27Z</time></trkpt>
<trkpt lat="25.027392" lon="102.13036">
<time>2016-10-07T02:21:28Z</time></trkpt>
<trkpt lat="25.027641" lon="102.130169">
<time>2016-10-07T02:21:29Z</time></trkpt>
<trkpt lat="25.027991" lon="102.129879">
<time>2016-10-07T02:21:30Z</time></trkpt>
<trkpt lat="25.027991" lon="102.129879">
<time>2016-10-07T02:21:31Z</time></trkpt>
<trkpt lat="25.028071" lon="102.129819">
<time>2016-10-07T02:21:32Z</time></trkpt>
<trkpt lat="25.028151" lon="102.129769">
<time>2016-10-07T02:21:33Z</time></trkpt>
<trkpt lat="25.028231" lon="102.129688">
<time>2016-10-07T02:21:34Z</time></trkpt>
<trkpt lat="25.02847" lon="102.129488">
<time>2016-10-07T02:21:35Z</time></trkpt>
<trkpt lat="25.02854" lon="102.129408">
<time>2016-10-07T02:21:36Z</time></trkpt>
<trkpt lat="25.02861" lon="102.129348">
<time>2016-10-07T02:21:37Z</time></trkpt>
<trkpt lat="25.02868" lon="102.129318">
<time>2016-10-07T02:21:38Z</time></trkpt>
<trkpt lat="25.02872" lon="102.129278">
<time>2016-10-07T02:21:39Z</time></trkpt>
<trkpt lat="25.02877" lon="102.129228">
<time>2016-10-07T02:21:40Z</time></trkpt>
<trkpt lat="25.02908" lon="102.129047">
<time>2016-10-07T02:21:41Z</time></trkpt>
<trkpt lat="25.02927" lon="102.128937">
<time>2016-10-07T02:21:42Z</time></trkpt>
<trkpt lat="25.02937" lon="102.128837">
<time>2016-10-07T02:21:43Z</time></trkpt>
<trkpt lat="25.02941" lon="102.128837">
<time>2016-10-07T02:21:44Z</time></trkpt>
<trkpt lat="25.02944" lon="102.128857">
<time>2016-10-07T02:21:45Z</time></trkpt>
<trkpt lat="25.02947" lon="102.128907">
<time>2016-10-07T02:21:46Z</time></trkpt>
<trkpt lat="25.0295" lon="102.128987">
<time>2016-10-07T02:21:47Z</time></trkpt>
<trkpt lat="25.02973" lon="102.129438">
<time>2016-10-07T02:21:48Z</time></trkpt>
<trkpt lat="25.02986" lon="102.129618">
<time>2016-10-07T02:21:49Z</time></trkpt>
<trkpt lat="25.030011" lon="102.129728">
<time>2016-10-07T02:21:50Z</time></trkpt>
<trkpt lat="25.030081" lon="102.129759">
<time>2016-10-07T02:21:51Z</time></trkpt>
<trkpt lat="25.030251" lon="102.129728">
<time>2016-10-07T02:21:52Z</time></trkpt>
<trkpt lat="25.030311" lon="102.129738">
<time>2016-10-07T02:21:53Z</time></trkpt>
<trkpt lat="25.030371" lon="102.129749">
<time>2016-10-07T02:21:54Z</time></trkpt>
<trkpt lat="25.030451" lon="102.129789">
<time>2016-10-07T02:21:55Z</time></trkpt>
<trkpt lat="25.030521" lon="102.129829">
<time>2016-10-07T02:21:56Z</time></trkpt>
<trkpt lat="25.030591" lon="102.129839">
<time>2016-10-07T02:21:57Z</time></trkpt>
<trkpt lat="25.030661" lon="102.129839">
<time>2016-10-07T02:21:58Z</time></trkpt>
<trkpt lat="25.030811" lon="102.129799">
<time>2016-10-07T02:21:59Z</time></trkpt>
<trkpt lat="25.030911" lon="102.129789">
<time>2016-10-07T02:22:00Z</time></trkpt>
<trkpt lat="25.031031" lon="102.129799">
<time>2016-10-07T02:22:01Z</time></trkpt>
<trkpt lat="25.031111" lon="102.129819">
<time>2016-10-07T02:22:02Z</time></trkpt>
<trkpt lat="25.031111" lon="102.129819">
<time>2016-10-07T02:22:03Z</time></trkpt>
<trkpt lat="25.03118" lon="102.129678">
<time>2016-10-07T02:22:04Z</time></trkpt>
<trkpt lat="25.03128" lon="102.129448">
<time>2016-10-07T02:22:05Z</time></trkpt>
<trkpt lat="25.03137" lon="102.129157">
<time>2016-10-07T02:22:06Z</time></trkpt>
<trkpt lat="25.031509" lon="102.128867">
<time>2016-10-07T02:22:07Z</time></trkpt>
<trkpt lat="25.031619" lon="102.128346">
<time>2016-10-07T02:22:08Z</time></trkpt>
<trkpt lat="25.031628" lon="102.127986">
<time>2016-10-07T02:22:09Z</time></trkpt>
<trkpt lat="25.031568" lon="102.127815">
<time>2016-10-07T02:22:10Z</time></trkpt>
<trkpt lat="25.031498" lon="102.127565">
<time>2016-10-07T02:22:11Z</time></trkpt>
<trkpt lat="25.031517" lon="102.127365">
<time>2016-10-07T02:22:12Z</time></trkpt>
<trkpt lat="25.031607" lon="102.126974">
<time>2016-10-07T02:22:13Z</time></trkpt>
<trkpt lat="25.031707" lon="102.126643">
<time>2016-10-07T02:22:14Z</time></trkpt>
<trkpt lat="25.031896" lon="102.126433">
<time>2016-10-07T02:22:15Z</time></trkpt>
<trkpt lat="25.032226" lon="102.125922">
<time>2016-10-07T02:22:16Z</time></trkpt>
<trkpt lat="25.032485" lon="102.125572">
<time>2016-10-07T02:22:17Z</time></trkpt>
<trkpt lat="25.032515" lon="102.125351">
<time>2016-10-07T02:22:18Z</time></trkpt>
<trkpt lat="25.032535" lon="102.125021">
<time>2016-10-07T02:22:19Z</time></trkpt>
<trkpt lat="25.032545" lon="102.124891">
<time>2016-10-07T02:22:20Z</time></trkpt>
<trkpt lat="25.032414" lon="102.12442">
<time>2016-10-07T02:22:21Z</time></trkpt>
<trkpt lat="25.032384" lon="102.1241">
<time>2016-10-07T02:22:22Z</time></trkpt>
<trkpt lat="25.032643" lon="102.123759">
<time>2016-10-07T02:22:23Z</time></trkpt>
<trkpt lat="25.032803" lon="102.123188">
<time>2016-10-07T02:22:24Z</time></trkpt>
<trkpt lat="25.032822" lon="102.122728">
<time>2016-10-07T02:22:25Z</time></trkpt>
<trkpt lat="25.032982" lon="102.122157">
<time>2016-10-07T02:22:26Z</time></trkpt>
<trkpt lat="25.033201" lon="102.121556">
<time>2016-10-07T02:22:27Z</time></trkpt>
<trkpt lat="25.03343" lon="102.120224">
<time>2016-10-07T02:22:28Z</time></trkpt>
<trkpt lat="25.033579" lon="102.119663">
<time>2016-10-07T02:22:29Z</time></trkpt>
<trkpt lat="25.033849" lon="102.119103">
<time>2016-10-07T02:22:30Z</time></trkpt>
<trkpt lat="25.034178" lon="102.118542">
<time>2016-10-07T02:22:31Z</time></trkpt>
<trkpt lat="25.034218" lon="102.118312">
<time>2016-10-07T02:22:32Z</time></trkpt>
<trkpt lat="25.034277" lon="102.117961">
<time>2016-10-07T02:22:33Z</time></trkpt>
<trkpt lat="25.034557" lon="102.11717">
<time>2016-10-07T02:22:34Z</time></trkpt>
<trkpt lat="25.034866" lon="102.116519">
<time>2016-10-07T02:22:35Z</time></trkpt>
<trkpt lat="25.035355" lon="102.115538">
<time>2016-10-07T02:22:36Z</time></trkpt>
<trkpt lat="25.035595" lon="102.114887">
<time>2016-10-07T02:22:37Z</time></trkpt>
<trkpt lat="25.035704" lon="102.114437">
<time>2016-10-07T02:22:38Z</time></trkpt>
<trkpt lat="25.035944" lon="102.114247">
<time>2016-10-07T02:22:39Z</time></trkpt>
<trkpt lat="25.036254" lon="102.114187">
<time>2016-10-07T02:22:40Z</time></trkpt>
<trkpt lat="25.036654" lon="102.114027">
<time>2016-10-07T02:22:41Z</time></trkpt>
<trkpt lat="25.036834" lon="102.113666">
<time>2016-10-07T02:22:42Z</time></trkpt>
<trkpt lat="25.036864" lon="102.113306">
<time>2016-10-07T02:22:43Z</time></trkpt>
<trkpt lat="25.036833" lon="102.112935">
<time>2016-10-07T02:22:44Z</time></trkpt>
<trkpt lat="25.036633" lon="102.112555">
<time>2016-10-07T02:22:45Z</time></trkpt>
<trkpt lat="25.036513" lon="102.112094">
<time>2016-10-07T02:22:46Z</time></trkpt>
<trkpt lat="25.036513" lon="102.112094">
<time>2016-10-07T02:22:47Z</time></trkpt>
<trkpt lat="25.036283" lon="102.112044">
<time>2016-10-07T02:22:48Z</time></trkpt>
<trkpt lat="25.035423" lon="102.111734">
<time>2016-10-07T02:22:49Z</time></trkpt>
<trkpt lat="25.034842" lon="102.111394">
<time>2016-10-07T02:22:50Z</time></trkpt>
<trkpt lat="25.034842" lon="102.111394">
<time>2016-10-07T02:22:51Z</time></trkpt>
<trkpt lat="25.035392" lon="102.111354">
<time>2016-10-07T02:22:52Z</time></trkpt>
<trkpt lat="25.035752" lon="102.111294">
<time>2016-10-07T02:22:53Z</time></trkpt>
<trkpt lat="25.035992" lon="102.111254">
<time>2016-10-07T02:22:54Z</time></trkpt>
<trkpt lat="25.036272" lon="102.111184">
<time>2016-10-07T02:22:55Z</time></trkpt>
<trkpt lat="25.036692" lon="102.111043">
<time>2016-10-07T02:22:56Z</time></trkpt>
<trkpt lat="25.037092" lon="102.110883">
<time>2016-10-07T02:22:57Z</time></trkpt>
<trkpt lat="25.037372" lon="102.110753">
<time>2016-10-07T02:22:58Z</time></trkpt>
<trkpt lat="25.037632" lon="102.110613">
<time>2016-10-07T02:22:59Z</time></trkpt>
<trkpt lat="25.037852" lon="102.110483">
<time>2016-10-07T02:23:00Z</time></trkpt>
<trkpt lat="25.038071" lon="102.110323">
<time>2016-10-07T02:23:01Z</time></trkpt>
<trkpt lat="25.038651" lon="102.109832">
<time>2016-10-07T02:23:02Z</time></trkpt>
<trkpt lat="25.039011" lon="102.109472">
<time>2016-10-07T02:23:03Z</time></trkpt>
<trkpt lat="25.039271" lon="102.109182">
<time>2016-10-07T02:23:04Z</time></trkpt>
<trkpt lat="25.039441" lon="102.108951">
<time>2016-10-07T02:23:05Z</time></trkpt>
<trkpt lat="25.03964" lon="102.108661">
<time>2016-10-07T02:23:06Z</time></trkpt>
<trkpt lat="25.03981" lon="102.108381">
<time>2016-10-07T02:23:07Z</time></trkpt>
<trkpt lat="25.03999" lon="102.108041">
<time>2016-10-07T02:23:08Z</time></trkpt>
<trkpt lat="25.04013" lon="102.10775">
<time>2016-10-07T02:23:09Z</time></trkpt>
<trkpt lat="25.04036" lon="102.10716">
<time>2016-10-07T02:23:10Z</time></trkpt>
<trkpt lat="25.040469" lon="102.10681">
<time>2016-10-07T02:23:11Z</time></trkpt>
<trkpt lat="25.040519" lon="102.106579">
<time>2016-10-07T02:23:12Z</time></trkpt>
<trkpt lat="25.040569" lon="102.106349">
<time>2016-10-07T02:23:13Z</time></trkpt>
<trkpt lat="25.040679" lon="102.105809">
<time>2016-10-07T02:23:14Z</time></trkpt>
<trkpt lat="25.040868" lon="102.104638">
<time>2016-10-07T02:23:15Z</time></trkpt>
<trkpt lat="25.040918" lon="102.104348">
<time>2016-10-07T02:23:16Z</time></trkpt>
<trkpt lat="25.041028" lon="102.103767">
<time>2016-10-07T02:23:17Z</time></trkpt>
<trkpt lat="25.041128" lon="102.103277">
<time>2016-10-07T02:23:18Z</time></trkpt>
<trkpt lat="25.041188" lon="102.103087">
<time>2016-10-07T02:23:19Z</time></trkpt>
<trkpt lat="25.041248" lon="102.102937">
<time>2016-10-07T02:23:20Z</time></trkpt>
<trkpt lat="25.041348" lon="102.102757">
<time>2016-10-07T02:23:21Z</time></trkpt>
<trkpt lat="25.041438" lon="102.102587">
<time>2016-10-07T02:23:22Z</time></trkpt>
<trkpt lat="25.041538" lon="102.102437">
<time>2016-10-07T02:23:23Z</time></trkpt>
<trkpt lat="25.041638" lon="102.102307">
<time>2016-10-07T02:23:24Z</time></trkpt>
<trkpt lat="25.041638" lon="102.102297">
<time>2016-10-07T02:23:25Z</time></trkpt>
<trkpt lat="25.041738" lon="102.102187">
<time>2016-10-07T02:23:26Z</time></trkpt>
<trkpt lat="25.041828" lon="102.102096">
<time>2016-10-07T02:23:27Z</time></trkpt>
<trkpt lat="25.041948" lon="102.101986">
<time>2016-10-07T02:23:28Z</time></trkpt>
<trkpt lat="25.042118" lon="102.101846">
<time>2016-10-07T02:23:29Z</time></trkpt>
<trkpt lat="25.042357" lon="102.101656">
<time>2016-10-07T02:23:30Z</time></trkpt>
<trkpt lat="25.042587" lon="102.101506">
<time>2016-10-07T02:23:31Z</time></trkpt>
<trkpt lat="25.043197" lon="102.101086">
<time>2016-10-07T02:23:32Z</time></trkpt>
<trkpt lat="25.045177" lon="102.099735">
<time>2016-10-07T02:23:33Z</time></trkpt>
<trkpt lat="25.046777" lon="102.098655">
<time>2016-10-07T02:23:34Z</time></trkpt>
<trkpt lat="25.047856" lon="102.097914">
<time>2016-10-07T02:23:35Z</time></trkpt>
<trkpt lat="25.048286" lon="102.097624">
<time>2016-10-07T02:23:36Z</time></trkpt>
<trkpt lat="25.048496" lon="102.097474">
<time>2016-10-07T02:23:37Z</time></trkpt>
<trkpt lat="25.048896" lon="102.097144">
<time>2016-10-07T02:23:38Z</time></trkpt>
<trkpt lat="25.049516" lon="102.096584">
<time>2016-10-07T02:23:39Z</time></trkpt>
<trkpt lat="25.049966" lon="102.096084">
<time>2016-10-07T02:23:40Z</time></trkpt>
<trkpt lat="25.050536" lon="102.095443">
<time>2016-10-07T02:23:41Z</time></trkpt>
<trkpt lat="25.051036" lon="102.094903">
<time>2016-10-07T02:23:42Z</time></trkpt>
<trkpt lat="25.051316" lon="102.094613">
<time>2016-10-07T02:23:43Z</time></trkpt>
<trkpt lat="25.051526" lon="102.094413">
<time>2016-10-07T02:23:44Z</time></trkpt>
<trkpt lat="25.051686" lon="102.094273">
<time>2016-10-07T02:23:45Z</time></trkpt>
<trkpt lat="25.051816" lon="102.094173">
<time>2016-10-07T02:23:46Z</time></trkpt>
<trkpt lat="25.051946" lon="102.094063">
<time>2016-10-07T02:23:47Z</time></trkpt>
<trkpt lat="25.052126" lon="102.093943">
<time>2016-10-07T02:23:48Z</time></trkpt>
<trkpt lat="25.052376" lon="102.093773">
<time>2016-10-07T02:23:49Z</time></trkpt>
<trkpt lat="25.052706" lon="102.093573">
<time>2016-10-07T02:23:50Z</time></trkpt>
<trkpt lat="25.053316" lon="102.093213">
<time>2016-10-07T02:23:51Z</time></trkpt>
<trkpt lat="25.053696" lon="102.093003">
<time>2016-10-07T02:23:52Z</time></trkpt>
<trkpt lat="25.053936" lon="102.092823">
<time>2016-10-07T02:23:53Z</time></trkpt>
<trkpt lat="25.053946" lon="102.092823">
<time>2016-10-07T02:23:54Z</time></trkpt>
<trkpt lat="25.054246" lon="102.092593">
<time>2016-10-07T02:23:55Z</time></trkpt>
<trkpt lat="25.054576" lon="102.092333">
<time>2016-10-07T02:23:56Z</time></trkpt>
<trkpt lat="25.054776" lon="102.092143">
<time>2016-10-07T02:23:57Z</time></trkpt>
<trkpt lat="25.055536" lon="102.091413">
<time>2016-10-07T02:23:58Z</time></trkpt>
<trkpt lat="25.057116" lon="102.089863">
<time>2016-10-07T02:23:59Z</time></trkpt>
<trkpt lat="25.057726" lon="102.089273">
<time>2016-10-07T02:24:00Z</time></trkpt>
<trkpt lat="25.059317" lon="102.087703">
<time>2016-10-07T02:24:01Z</time></trkpt>
<trkpt lat="25.059737" lon="102.087283">
<time>2016-10-07T02:24:02Z</time></trkpt>
<trkpt lat="25.060647" lon="102.086403">
<time>2016-10-07T02:24:03Z</time></trkpt>
<trkpt lat="25.060867" lon="102.086203">
<time>2016-10-07T02:24:04Z</time></trkpt>
<trkpt lat="25.061067" lon="102.086043">
<time>2016-10-07T02:24:05Z</time></trkpt>
<trkpt lat="25.061237" lon="102.085923">
<time>2016-10-07T02:24:06Z</time></trkpt>
<trkpt lat="25.061407" lon="102.085813">
<time>2016-10-07T02:24:07Z</time></trkpt>
<trkpt lat="25.061577" lon="102.085723">
<time>2016-10-07T02:24:08Z</time></trkpt>
<trkpt lat="25.061747" lon="102.085663">
<time>2016-10-07T02:24:09Z</time></trkpt>
<trkpt lat="25.062007" lon="102.085583">
<time>2016-10-07T02:24:10Z</time></trkpt>
<trkpt lat="25.062137" lon="102.085563">
<time>2016-10-07T02:24:11Z</time></trkpt>
<trkpt lat="25.062297" lon="102.085523">
<time>2016-10-07T02:24:12Z</time></trkpt>
<trkpt lat="25.062527" lon="102.085493">
<time>2016-10-07T02:24:13Z</time></trkpt>
<trkpt lat="25.062677" lon="102.085493">
<time>2016-10-07T02:24:14Z</time></trkpt>
<trkpt lat="25.062977" lon="102.085493">
<time>2016-10-07T02:24:15Z</time></trkpt>
<trkpt lat="25.063197" lon="102.085503">
<time>2016-10-07T02:24:16Z</time></trkpt>
<trkpt lat="25.063727" lon="102.085533">
<time>2016-10-07T02:24:17Z</time></trkpt>
<trkpt lat="25.064717" lon="102.085593">
<time>2016-10-07T02:24:18Z</time></trkpt>
<trkpt lat="25.066817" lon="102.085733">
<time>2016-10-07T02:24:19Z</time></trkpt>
<trkpt lat="25.067727" lon="102.085783">
<time>2016-10-07T02:24:20Z</time></trkpt>
<trkpt lat="25.068267" lon="102.085803">
<time>2016-10-07T02:24:21Z</time></trkpt>
<trkpt lat="25.068537" lon="102.085773">
<time>2016-10-07T02:24:22Z</time></trkpt>
<trkpt lat="25.068807" lon="102.085723">
<time>2016-10-07T02:24:23Z</time></trkpt>
<trkpt lat="25.069087" lon="102.085633">
<time>2016-10-07T02:24:24Z</time></trkpt>
<trkpt lat="25.069257" lon="102.085573">
<time>2016-10-07T02:24:25Z</time></trkpt>
<trkpt lat="25.069477" lon="102.085463">
<time>2016-10-07T02:24:26Z</time></trkpt>
<trkpt lat="25.069637" lon="102.085373">
<time>2016-10-07T02:24:27Z</time></trkpt>
<trkpt lat="25.070127" lon="102.085073">
<time>2016-10-07T02:24:28Z</time></trkpt>
<trkpt lat="25.071107" lon="102.084403">
<time>2016-10-07T02:24:29Z</time></trkpt>
<trkpt lat="25.071477" lon="102.084143">
<time>2016-10-07T02:24:30Z</time></trkpt>
<trkpt lat="25.072587" lon="102.083393">
<time>2016-10-07T02:24:31Z</time></trkpt>
<trkpt lat="25.072778" lon="102.083263">
<time>2016-10-07T02:24:32Z</time></trkpt>
<trkpt lat="25.072988" lon="102.083133">
<time>2016-10-07T02:24:33Z</time></trkpt>
<trkpt lat="25.073178" lon="102.083023">
<time>2016-10-07T02:24:34Z</time></trkpt>
<trkpt lat="25.073318" lon="102.082943">
<time>2016-10-07T02:24:35Z</time></trkpt>
<trkpt lat="25.073628" lon="102.082774">
<time>2016-10-07T02:24:36Z</time></trkpt>
<trkpt lat="25.073908" lon="102.082644">
<time>2016-10-07T02:24:37Z</time></trkpt>
<trkpt lat="25.074098" lon="102.082564">
<time>2016-10-07T02:24:38Z</time></trkpt>
<trkpt lat="25.074528" lon="102.082404">
<time>2016-10-07T02:24:39Z</time></trkpt>
<trkpt lat="25.074828" lon="102.082304">
<time>2016-10-07T02:24:40Z</time></trkpt>
<trkpt lat="25.075108" lon="102.082224">
<time>2016-10-07T02:24:41Z</time></trkpt>
<trkpt lat="25.075378" lon="102.082164">
<time>2016-10-07T02:24:42Z</time></trkpt>
<trkpt lat="25.075598" lon="102.082134">
<time>2016-10-07T02:24:43Z</time></trkpt>
<trkpt lat="25.075858" lon="102.082094">
<time>2016-10-07T02:24:44Z</time></trkpt>
<trkpt lat="25.076218" lon="102.082034">
<time>2016-10-07T02:24:45Z</time></trkpt>
<trkpt lat="25.076508" lon="102.081994">
<time>2016-10-07T02:24:46Z</time></trkpt>
<trkpt lat="25.076808" lon="102.081954">
<time>2016-10-07T02:24:47Z</time></trkpt>
<trkpt lat="25.077338" lon="102.081864">
<time>2016-10-07T02:24:48Z</time></trkpt>
<trkpt lat="25.077598" lon="102.081814">
<time>2016-10-07T02:24:49Z</time></trkpt>
<trkpt lat="25.077788" lon="102.081774">
<time>2016-10-07T02:24:50Z</time></trkpt>
<trkpt lat="25.078008" lon="102.081714">
<time>2016-10-07T02:24:51Z</time></trkpt>
<trkpt lat="25.078338" lon="102.081614">
<time>2016-10-07T02:24:52Z</time></trkpt>
<trkpt lat="25.078528" lon="102.081544">
<time>2016-10-07T02:24:53Z</time></trkpt>
<trkpt lat="25.078708" lon="102.081484">
<time>2016-10-07T02:24:54Z</time></trkpt>
<trkpt lat="25.078958" lon="102.081394">
<time>2016-10-07T02:24:55Z</time></trkpt>
<trkpt lat="25.079348" lon="102.081234">
<time>2016-10-07T02:24:56Z</time></trkpt>
<trkpt lat="25.079738" lon="102.081044">
<time>2016-10-07T02:24:57Z</time></trkpt>
<trkpt lat="25.080458" lon="102.080684">
<time>2016-10-07T02:24:58Z</time></trkpt>
<trkpt lat="25.080969" lon="102.080444">
<time>2016-10-07T02:24:59Z</time></trkpt>
<trkpt lat="25.081459" lon="102.080224">
<time>2016-10-07T02:25:00Z</time></trkpt>
<trkpt lat="25.081769" lon="102.080124">
<time>2016-10-07T02:25:01Z</time></trkpt>
<trkpt lat="25.082089" lon="102.080034">
<time>2016-10-07T02:25:02Z</time></trkpt>
<trkpt lat="25.082479" lon="102.079925">
<time>2016-10-07T02:25:03Z</time></trkpt>
<trkpt lat="25.082969" lon="102.079835">
<time>2016-10-07T02:25:04Z</time></trkpt>
<trkpt lat="25.083349" lon="102.079795">
<time>2016-10-07T02:25:05Z</time></trkpt>
<trkpt lat="25.083569" lon="102.079765">
<time>2016-10-07T02:25:06Z</time></trkpt>
<trkpt lat="25.083639" lon="102.079765">
<time>2016-10-07T02:25:07Z</time></trkpt>
<trkpt lat="25.084089" lon="102.079755">
<time>2016-10-07T02:25:08Z</time></trkpt>
<trkpt lat="25.084649" lon="102.079755">
<time>2016-10-07T02:25:09Z</time></trkpt>
<trkpt lat="25.086978" lon="102.079754">
<time>2016-10-07T02:25:10Z</time></trkpt>
<trkpt lat="25.088578" lon="102.079734">
<time>2016-10-07T02:25:11Z</time></trkpt>
<trkpt lat="25.089748" lon="102.079694">
<time>2016-10-07T02:25:12Z</time></trkpt>
<trkpt lat="25.090288" lon="102.079634">
<time>2016-10-07T02:25:13Z</time></trkpt>
<trkpt lat="25.091108" lon="102.079534">
<time>2016-10-07T02:25:14Z</time></trkpt>
<trkpt lat="25.092098" lon="102.079385">
<time>2016-10-07T02:25:15Z</time></trkpt>
<trkpt lat="25.093968" lon="102.079115">
<time>2016-10-07T02:25:16Z</time></trkpt>
<trkpt lat="25.095298" lon="102.078915">
<time>2016-10-07T02:25:17Z</time></trkpt>
<trkpt lat="25.097228" lon="102.078655">
<time>2016-10-07T02:25:18Z</time></trkpt>
<trkpt lat="25.098408" lon="102.078495">
<time>2016-10-07T02:25:19Z</time></trkpt>
<trkpt lat="25.098948" lon="102.078455">
<time>2016-10-07T02:25:20Z</time></trkpt>
<trkpt lat="25.099428" lon="102.078425">
<time>2016-10-07T02:25:21Z</time></trkpt>
<trkpt lat="25.100398" lon="102.078435">
<time>2016-10-07T02:25:22Z</time></trkpt>
<trkpt lat="25.101368" lon="102.078475">
<time>2016-10-07T02:25:23Z</time></trkpt>
<trkpt lat="25.101888" lon="102.078455">
<time>2016-10-07T02:25:24Z</time></trkpt>
<trkpt lat="25.102198" lon="102.078435">
<time>2016-10-07T02:25:25Z</time></trkpt>
<trkpt lat="25.102468" lon="102.078365">
<time>2016-10-07T02:25:26Z</time></trkpt>
<trkpt lat="25.102768" lon="102.078265">
<time>2016-10-07T02:25:27Z</time></trkpt>
<trkpt lat="25.103028" lon="102.078135">
<time>2016-10-07T02:25:28Z</time></trkpt>
<trkpt lat="25.103228" lon="102.078015">
<time>2016-10-07T02:25:29Z</time></trkpt>
<trkpt lat="25.103579" lon="102.077775">
<time>2016-10-07T02:25:30Z</time></trkpt>
<trkpt lat="25.104079" lon="102.077435">
<time>2016-10-07T02:25:31Z</time></trkpt>
<trkpt lat="25.105339" lon="102.076576">
<time>2016-10-07T02:25:32Z</time></trkpt>
<trkpt lat="25.10588" lon="102.076206">
<time>2016-10-07T02:25:33Z</time></trkpt>
<trkpt lat="25.10635" lon="102.075926">
<time>2016-10-07T02:25:34Z</time></trkpt>
<trkpt lat="25.10673" lon="102.075746">
<time>2016-10-07T02:25:35Z</time></trkpt>
<trkpt lat="25.10708" lon="102.075616">
<time>2016-10-07T02:25:36Z</time></trkpt>
<trkpt lat="25.10739" lon="102.075546">
<time>2016-10-07T02:25:37Z</time></trkpt>
<trkpt lat="25.1077" lon="102.075496">
<time>2016-10-07T02:25:38Z</time></trkpt>
<trkpt lat="25.10805" lon="102.075466">
<time>2016-10-07T02:25:39Z</time></trkpt>
<trkpt lat="25.10814" lon="102.075466">
<time>2016-10-07T02:25:40Z</time></trkpt>
<trkpt lat="25.10841" lon="102.075446">
<time>2016-10-07T02:25:41Z</time></trkpt>
<trkpt lat="25.10898" lon="102.075446">
<time>2016-10-07T02:25:42Z</time></trkpt>
<trkpt lat="25.11098" lon="102.075416">
<time>2016-10-07T02:25:43Z</time></trkpt>
<trkpt lat="25.11139" lon="102.075416">
<time>2016-10-07T02:25:44Z</time></trkpt>
<trkpt lat="25.11159" lon="102.075396">
<time>2016-10-07T02:25:45Z</time></trkpt>
<trkpt lat="25.1118" lon="102.075386">
<time>2016-10-07T02:25:46Z</time></trkpt>
<trkpt lat="25.11199" lon="102.075346">
<time>2016-10-07T02:25:47Z</time></trkpt>
<trkpt lat="25.11219" lon="102.075306">
<time>2016-10-07T02:25:48Z</time></trkpt>
<trkpt lat="25.11237" lon="102.075257">
<time>2016-10-07T02:25:49Z</time></trkpt>
<trkpt lat="25.11252" lon="102.075207">
<time>2016-10-07T02:25:50Z</time></trkpt>
<trkpt lat="25.11266" lon="102.075147">
<time>2016-10-07T02:25:51Z</time></trkpt>
<trkpt lat="25.11279" lon="102.075087">
<time>2016-10-07T02:25:52Z</time></trkpt>
<trkpt lat="25.11288" lon="102.075047">
<time>2016-10-07T02:25:53Z</time></trkpt>
<trkpt lat="25.11296" lon="102.075007">
<time>2016-10-07T02:25:54Z</time></trkpt>
<trkpt lat="25.11304" lon="102.074967">
<time>2016-10-07T02:25:55Z</time></trkpt>
<trkpt lat="25.1131" lon="102.074927">
<time>2016-10-07T02:25:56Z</time></trkpt>
<trkpt lat="25.11326" lon="102.074797">
<time>2016-10-07T02:25:57Z</time></trkpt>
<trkpt lat="25.11326" lon="102.074797">
<time>2016-10-07T02:25:58Z</time></trkpt>
<trkpt lat="25.113411" lon="102.074657">
<time>2016-10-07T02:25:59Z</time></trkpt>
<trkpt lat="25.113521" lon="102.074567">
<time>2016-10-07T02:26:00Z</time></trkpt>
<trkpt lat="25.113641" lon="102.074477">
<time>2016-10-07T02:26:01Z</time></trkpt>
<trkpt lat="25.113731" lon="102.074407">
<time>2016-10-07T02:26:02Z</time></trkpt>
<trkpt lat="25.113831" lon="102.074317">
<time>2016-10-07T02:26:03Z</time></trkpt>
<trkpt lat="25.113951" lon="102.074187">
<time>2016-10-07T02:26:04Z</time></trkpt>
<trkpt lat="25.114051" lon="102.074057">
<time>2016-10-07T02:26:05Z</time></trkpt>
<trkpt lat="25.114161" lon="102.073927">
<time>2016-10-07T02:26:06Z</time></trkpt>
<trkpt lat="25.114361" lon="102.073658">
<time>2016-10-07T02:26:07Z</time></trkpt>
<trkpt lat="25.114802" lon="102.072988">
<time>2016-10-07T02:26:08Z</time></trkpt>
<trkpt lat="25.115393" lon="102.071909">
<time>2016-10-07T02:26:09Z</time></trkpt>
<trkpt lat="25.115944" lon="102.07097">
<time>2016-10-07T02:26:10Z</time></trkpt>
<trkpt lat="25.116626" lon="102.069781">
<time>2016-10-07T02:26:11Z</time></trkpt>
<trkpt lat="25.116946" lon="102.069232">
<time>2016-10-07T02:26:12Z</time></trkpt>
<trkpt lat="25.117908" lon="102.067543">
<time>2016-10-07T02:26:13Z</time></trkpt>
<trkpt lat="25.118469" lon="102.066575">
<time>2016-10-07T02:26:14Z</time></trkpt>
<trkpt lat="25.11887" lon="102.066025">
<time>2016-10-07T02:26:15Z</time></trkpt>
<trkpt lat="25.119311" lon="102.065566">
<time>2016-10-07T02:26:16Z</time></trkpt>
<trkpt lat="25.119321" lon="102.065546">
<time>2016-10-07T02:26:17Z</time></trkpt>
<trkpt lat="25.119581" lon="102.065316">
<time>2016-10-07T02:26:18Z</time></trkpt>
<trkpt lat="25.119701" lon="102.065216">
<time>2016-10-07T02:26:19Z</time></trkpt>
<trkpt lat="25.120122" lon="102.064887">
<time>2016-10-07T02:26:20Z</time></trkpt>
<trkpt lat="25.120352" lon="102.064747">
<time>2016-10-07T02:26:21Z</time></trkpt>
<trkpt lat="25.120492" lon="102.064667">
<time>2016-10-07T02:26:22Z</time></trkpt>
<trkpt lat="25.120692" lon="102.064567">
<time>2016-10-07T02:26:23Z</time></trkpt>
<trkpt lat="25.120982" lon="102.064417">
<time>2016-10-07T02:26:24Z</time></trkpt>
<trkpt lat="25.121582" lon="102.064227">
<time>2016-10-07T02:26:25Z</time></trkpt>
<trkpt lat="25.121763" lon="102.064177">
<time>2016-10-07T02:26:26Z</time></trkpt>
<trkpt lat="25.122013" lon="102.064127">
<time>2016-10-07T02:26:27Z</time></trkpt>
<trkpt lat="25.122173" lon="102.064107">
<time>2016-10-07T02:26:28Z</time></trkpt>
<trkpt lat="25.122303" lon="102.064077">
<time>2016-10-07T02:26:29Z</time></trkpt>
<trkpt lat="25.122633" lon="102.064057">
<time>2016-10-07T02:26:30Z</time></trkpt>
<trkpt lat="25.123083" lon="102.064047">
<time>2016-10-07T02:26:31Z</time></trkpt>
<trkpt lat="25.124882" lon="102.064057">
<time>2016-10-07T02:26:32Z</time></trkpt>
<trkpt lat="25.129302" lon="102.064087">
<time>2016-10-07T02:26:33Z</time></trkpt>
<trkpt lat="25.129342" lon="102.064087">
<time>2016-10-07T02:26:34Z</time></trkpt>
<trkpt lat="25.131432" lon="102.064107">
<time>2016-10-07T02:26:35Z</time></trkpt>
<trkpt lat="25.134542" lon="102.064137">
<time>2016-10-07T02:26:36Z</time></trkpt>
<trkpt lat="25.135092" lon="102.064147">
<time>2016-10-07T02:26:37Z</time></trkpt>
<trkpt lat="25.137441" lon="102.064157">
<time>2016-10-07T02:26:38Z</time></trkpt>
<trkpt lat="25.137491" lon="102.064157">
<time>2016-10-07T02:26:39Z</time></trkpt>
<trkpt lat="25.139781" lon="102.064177">
<time>2016-10-07T02:26:40Z</time></trkpt>
<trkpt lat="25.140741" lon="102.064187">
<time>2016-10-07T02:26:41Z</time></trkpt>
<trkpt lat="25.142461" lon="102.064207">
<time>2016-10-07T02:26:42Z</time></trkpt>
<trkpt lat="25.142521" lon="102.064207">
<time>2016-10-07T02:26:43Z</time></trkpt>
<trkpt lat="25.142641" lon="102.064207">
<time>2016-10-07T02:26:44Z</time></trkpt>
<trkpt lat="25.144461" lon="102.064207">
<time>2016-10-07T02:26:45Z</time></trkpt>
<trkpt lat="25.145771" lon="102.064207">
<time>2016-10-07T02:26:46Z</time></trkpt>
<trkpt lat="25.146281" lon="102.064227">
<time>2016-10-07T02:26:47Z</time></trkpt>
<trkpt lat="25.146351" lon="102.064227">
<time>2016-10-07T02:26:48Z</time></trkpt>
<trkpt lat="25.146421" lon="102.064207">
<time>2016-10-07T02:26:49Z</time></trkpt>
<trkpt lat="25.146471" lon="102.064167">
<time>2016-10-07T02:26:50Z</time></trkpt>
<trkpt lat="25.146531" lon="102.064137">
<time>2016-10-07T02:26:51Z</time></trkpt>
<trkpt lat="25.146581" lon="102.064097">
<time>2016-10-07T02:26:52Z</time></trkpt>
<trkpt lat="25.146631" lon="102.064067">
<time>2016-10-07T02:26:53Z</time></trkpt>
<trkpt lat="25.146631" lon="102.064067">
<time>2016-10-07T02:26:54Z</time></trkpt>
<trkpt lat="25.146651" lon="102.064047">
<time>2016-10-07T02:26:55Z</time></trkpt>
<trkpt lat="25.146671" lon="102.064027">
<time>2016-10-07T02:26:56Z</time></trkpt>
<trkpt lat="25.146701" lon="102.064017">
<time>2016-10-07T02:26:57Z</time></trkpt>
<trkpt lat="25.146721" lon="102.063997">
<time>2016-10-07T02:26:58Z</time></trkpt>
<trkpt lat="25.146741" lon="102.063997">
<time>2016-10-07T02:26:59Z</time></trkpt>
<trkpt lat="25.146761" lon="102.063987">
<time>2016-10-07T02:27:00Z</time></trkpt>
<trkpt lat="25.146781" lon="102.063987">
<time>2016-10-07T02:27:01Z</time></trkpt>
<trkpt lat="25.146801" lon="102.063987">
<time>2016-10-07T02:27:02Z</time></trkpt>
<trkpt lat="25.146821" lon="102.063987">
<time>2016-10-07T02:27:03Z</time></trkpt>
<trkpt lat="25.146841" lon="102.063997">
<time>2016-10-07T02:27:04Z</time></trkpt>
<trkpt lat="25.146982" lon="102.063118">
<time>2016-10-07T02:27:05Z</time></trkpt>
<trkpt lat="25.147154" lon="102.06195">
<time>2016-10-07T02:27:06Z</time></trkpt>
<trkpt lat="25.147204" lon="102.06167">
<time>2016-10-07T02:27:07Z</time></trkpt>
<trkpt lat="25.147275" lon="102.06139">
<time>2016-10-07T02:27:08Z</time></trkpt>
<trkpt lat="25.147355" lon="102.061141">
<time>2016-10-07T02:27:09Z</time></trkpt>
<trkpt lat="25.147406" lon="102.061001">
<time>2016-10-07T02:27:10Z</time></trkpt>
<trkpt lat="25.147496" lon="102.060791">
<time>2016-10-07T02:27:11Z</time></trkpt>
<trkpt lat="25.147727" lon="102.060332">
<time>2016-10-07T02:27:12Z</time></trkpt>
<trkpt lat="25.147917" lon="102.059962">
<time>2016-10-07T02:27:13Z</time></trkpt>
<trkpt lat="25.148017" lon="102.059763">
<time>2016-10-07T02:27:14Z</time></trkpt>
<trkpt lat="25.148088" lon="102.059593">
<time>2016-10-07T02:27:15Z</time></trkpt>
<trkpt lat="25.148278" lon="102.059223">
<time>2016-10-07T02:27:16Z</time></trkpt>
<trkpt lat="25.148309" lon="102.058924">
<time>2016-10-07T02:27:17Z</time></trkpt>
<trkpt lat="25.148179" lon="102.058674">
<time>2016-10-07T02:27:18Z</time></trkpt>
<trkpt lat="25.1481" lon="102.058485">
<time>2016-10-07T02:27:19Z</time></trkpt>
<trkpt lat="25.14806" lon="102.058385">
<time>2016-10-07T02:27:20Z</time></trkpt>
<trkpt lat="25.14804" lon="102.058315">
<time>2016-10-07T02:27:21Z</time></trkpt>
<trkpt lat="25.14802" lon="102.058265">
<time>2016-10-07T02:27:22Z</time></trkpt>
<trkpt lat="25.148" lon="102.058155">
<time>2016-10-07T02:27:23Z</time></trkpt>
<trkpt lat="25.14797" lon="102.058015">
<time>2016-10-07T02:27:24Z</time></trkpt>
<trkpt lat="25.147911" lon="102.057626">
<time>2016-10-07T02:27:25Z</time></trkpt>
<trkpt lat="25.147911" lon="102.057626">
<time>2016-10-07T02:27:26Z</time></trkpt>
<trkpt lat="25.147923" lon="102.056378">
<time>2016-10-07T02:27:27Z</time></trkpt>
<trkpt lat="25.147914" lon="102.055909">
<time>2016-10-07T02:27:28Z</time></trkpt>
<trkpt lat="25.147895" lon="102.05535">
<time>2016-10-07T02:27:29Z</time></trkpt>
<trkpt lat="25.147886" lon="102.05507">
<time>2016-10-07T02:27:30Z</time></trkpt>
<trkpt lat="25.147866" lon="102.05487">
<time>2016-10-07T02:27:31Z</time></trkpt>
<trkpt lat="25.147816" lon="102.054661">
<time>2016-10-07T02:27:32Z</time></trkpt>
<trkpt lat="25.147777" lon="102.054471">
<time>2016-10-07T02:27:33Z</time></trkpt>
<trkpt lat="25.147707" lon="102.054231">
<time>2016-10-07T02:27:34Z</time></trkpt>
<trkpt lat="25.147588" lon="102.053762">
<time>2016-10-07T02:27:35Z</time></trkpt>
<trkpt lat="25.147558" lon="102.053612">
<time>2016-10-07T02:27:36Z</time></trkpt>
<trkpt lat="25.147529" lon="102.053453">
<time>2016-10-07T02:27:37Z</time></trkpt>
<trkpt lat="25.147509" lon="102.053273">
<time>2016-10-07T02:27:38Z</time></trkpt>
<trkpt lat="25.147499" lon="102.053053">
<time>2016-10-07T02:27:39Z</time></trkpt>
<trkpt lat="25.14749" lon="102.052744">
<time>2016-10-07T02:27:40Z</time></trkpt>
<trkpt lat="25.14749" lon="102.052634">
<time>2016-10-07T02:27:41Z</time></trkpt>
<trkpt lat="25.1475" lon="102.052564">
<time>2016-10-07T02:27:42Z</time></trkpt>
<trkpt lat="25.14751" lon="102.052474">
<time>2016-10-07T02:27:43Z</time></trkpt>
<trkpt lat="25.147521" lon="102.052395">
<time>2016-10-07T02:27:44Z</time></trkpt>
<trkpt lat="25.147541" lon="102.052245">
<time>2016-10-07T02:27:45Z</time></trkpt>
<trkpt lat="25.147561" lon="102.052095">
<time>2016-10-07T02:27:46Z</time></trkpt>
<trkpt lat="25.147632" lon="102.051806">
<time>2016-10-07T02:27:47Z</time></trkpt>
<trkpt lat="25.147722" lon="102.051386">
<time>2016-10-07T02:27:48Z</time></trkpt>
<trkpt lat="25.147733" lon="102.051327">
<time>2016-10-07T02:27:49Z</time></trkpt>
<trkpt lat="25.147763" lon="102.051197">
<time>2016-10-07T02:27:50Z</time></trkpt>
<trkpt lat="25.147783" lon="102.051007">
<time>2016-10-07T02:27:51Z</time></trkpt>
<trkpt lat="25.147783" lon="102.050887">
<time>2016-10-07T02:27:52Z</time></trkpt>
<trkpt lat="25.147784" lon="102.050788">
<time>2016-10-07T02:27:53Z</time></trkpt>
<trkpt lat="25.147774" lon="102.050678">
<time>2016-10-07T02:27:54Z</time></trkpt>
<trkpt lat="25.147754" lon="102.050578">
<time>2016-10-07T02:27:55Z</time></trkpt>
<trkpt lat="25.147724" lon="102.050438">
<time>2016-10-07T02:27:56Z</time></trkpt>
<trkpt lat="25.147685" lon="102.050288">
<time>2016-10-07T02:27:57Z</time></trkpt>
<trkpt lat="25.147625" lon="102.050129">
<time>2016-10-07T02:27:58Z</time></trkpt>
<trkpt lat="25.147555" lon="102.049979">
<time>2016-10-07T02:27:59Z</time></trkpt>
<trkpt lat="25.147495" lon="102.049889">
<time>2016-10-07T02:28:00Z</time></trkpt>
<trkpt lat="25.147426" lon="102.049789">
<time>2016-10-07T02:28:01Z</time></trkpt>
<trkpt lat="25.147336" lon="102.04969">
<time>2016-10-07T02:28:02Z</time></trkpt>
<trkpt lat="25.147266" lon="102.04962">
<time>2016-10-07T02:28:03Z</time></trkpt>
<trkpt lat="25.147196" lon="102.04956">
<time>2016-10-07T02:28:04Z</time></trkpt>
<trkpt lat="25.147096" lon="102.04947">
<time>2016-10-07T02:28:05Z</time></trkpt>
<trkpt lat="25.147016" lon="102.04941">
<time>2016-10-07T02:28:06Z</time></trkpt>
<trkpt lat="25.146857" lon="102.04933">
<time>2016-10-07T02:28:07Z</time></trkpt>
<trkpt lat="25.146307" lon="102.049091">
<time>2016-10-07T02:28:08Z</time></trkpt>
<trkpt lat="25.146177" lon="102.049031">
<time>2016-10-07T02:28:09Z</time></trkpt>
<trkpt lat="25.146087" lon="102.048981">
<time>2016-10-07T02:28:10Z</time></trkpt>
<trkpt lat="25.145968" lon="102.048911">
<time>2016-10-07T02:28:11Z</time></trkpt>
<trkpt lat="25.145868" lon="102.048831">
<time>2016-10-07T02:28:12Z</time></trkpt>
<trkpt lat="25.145788" lon="102.048761">
<time>2016-10-07T02:28:13Z</time></trkpt>
<trkpt lat="25.145708" lon="102.048682">
<time>2016-10-07T02:28:14Z</time></trkpt>
<trkpt lat="25.145608" lon="102.048572">
<time>2016-10-07T02:28:15Z</time></trkpt>
<trkpt lat="25.145558" lon="102.048492">
<time>2016-10-07T02:28:16Z</time></trkpt>
<trkpt lat="25.145489" lon="102.048372">
<time>2016-10-07T02:28:17Z</time></trkpt>
<trkpt lat="25.145429" lon="102.048232">
<time>2016-10-07T02:28:18Z</time></trkpt>
<trkpt lat="25.145379" lon="102.048063">
<time>2016-10-07T02:28:19Z</time></trkpt>
<trkpt lat="25.14529" lon="102.047773">
<time>2016-10-07T02:28:20Z</time></trkpt>
<trkpt lat="25.145121" lon="102.047115">
<time>2016-10-07T02:28:21Z</time></trkpt>
<trkpt lat="25.145052" lon="102.046915">
<time>2016-10-07T02:28:22Z</time></trkpt>
<trkpt lat="25.145002" lon="102.046795">
<time>2016-10-07T02:28:23Z</time></trkpt>
<trkpt lat="25.144903" lon="102.046546">
<time>2016-10-07T02:28:24Z</time></trkpt>
<trkpt lat="25.144793" lon="102.046276">
<time>2016-10-07T02:28:25Z</time></trkpt>
<trkpt lat="25.144704" lon="102.046017">
<time>2016-10-07T02:28:26Z</time></trkpt>
<trkpt lat="25.144634" lon="102.045757">
<time>2016-10-07T02:28:27Z</time></trkpt>
<trkpt lat="25.144545" lon="102.045368">
<time>2016-10-07T02:28:28Z</time></trkpt>
<trkpt lat="25.144516" lon="102.045179">
<time>2016-10-07T02:28:29Z</time></trkpt>
<trkpt lat="25.144496" lon="102.045069">
<time>2016-10-07T02:28:30Z</time></trkpt>
<trkpt lat="25.144486" lon="102.044959">
<time>2016-10-07T02:28:31Z</time></trkpt>
<trkpt lat="25.144476" lon="102.044839">
<time>2016-10-07T02:28:32Z</time></trkpt>
<trkpt lat="25.144467" lon="102.04457">
<time>2016-10-07T02:28:33Z</time></trkpt>
<trkpt lat="25.144449" lon="102.043602">
<time>2016-10-07T02:28:34Z</time></trkpt>
<trkpt lat="25.14445" lon="102.043143">
<time>2016-10-07T02:28:35Z</time></trkpt>
<trkpt lat="25.14445" lon="102.043033">
<time>2016-10-07T02:28:36Z</time></trkpt>
<trkpt lat="25.14446" lon="102.042953">
<time>2016-10-07T02:28:37Z</time></trkpt>
<trkpt lat="25.144471" lon="102.042884">
<time>2016-10-07T02:28:38Z</time></trkpt>
<trkpt lat="25.144491" lon="102.042764">
<time>2016-10-07T02:28:39Z</time></trkpt>
<trkpt lat="25.144521" lon="102.042624">
<time>2016-10-07T02:28:40Z</time></trkpt>
<trkpt lat="25.144582" lon="102.042415">
<time>2016-10-07T02:28:41Z</time></trkpt>
<trkpt lat="25.144753" lon="102.041896">
<time>2016-10-07T02:28:42Z</time></trkpt>
<trkpt lat="25.144803" lon="102.041676">
<time>2016-10-07T02:28:43Z</time></trkpt>
<trkpt lat="25.144834" lon="102.041517">
<time>2016-10-07T02:28:44Z</time></trkpt>
<trkpt lat="25.144834" lon="102.041437">
<time>2016-10-07T02:28:45Z</time></trkpt>
<trkpt lat="25.144834" lon="102.041287">
<time>2016-10-07T02:28:46Z</time></trkpt>
<trkpt lat="25.144846" lon="102.040708">
<time>2016-10-07T02:28:47Z</time></trkpt>
<trkpt lat="25.144866" lon="102.040509">
<time>2016-10-07T02:28:48Z</time></trkpt>
<trkpt lat="25.144886" lon="102.040319">
<time>2016-10-07T02:28:49Z</time></trkpt>
<trkpt lat="25.144927" lon="102.04012">
<time>2016-10-07T02:28:50Z</time></trkpt>
<trkpt lat="25.145089" lon="102.039381">
<time>2016-10-07T02:28:51Z</time></trkpt>
<trkpt lat="25.145119" lon="102.039202">
<time>2016-10-07T02:28:52Z</time></trkpt>
<trkpt lat="25.14515" lon="102.038962">
<time>2016-10-07T02:28:53Z</time></trkpt>
<trkpt lat="25.14516" lon="102.038902">
<time>2016-10-07T02:28:54Z</time></trkpt>
<trkpt lat="25.14516" lon="102.038813">
<time>2016-10-07T02:28:55Z</time></trkpt>
<trkpt lat="25.14517" lon="102.038643">
<time>2016-10-07T02:28:56Z</time></trkpt>
<trkpt lat="25.145171" lon="102.038324">
<time>2016-10-07T02:28:57Z</time></trkpt>
<trkpt lat="25.145182" lon="102.037994">
<time>2016-10-07T02:28:58Z</time></trkpt>
<trkpt lat="25.145182" lon="102.037835">
<time>2016-10-07T02:28:59Z</time></trkpt>
<trkpt lat="25.145193" lon="102.037725">
<time>2016-10-07T02:29:00Z</time></trkpt>
<trkpt lat="25.145213" lon="102.037585">
<time>2016-10-07T02:29:01Z</time></trkpt>
<trkpt lat="25.145243" lon="102.037446">
<time>2016-10-07T02:29:02Z</time></trkpt>
<trkpt lat="25.145264" lon="102.037356">
<time>2016-10-07T02:29:03Z</time></trkpt>
<trkpt lat="25.145284" lon="102.037276">
<time>2016-10-07T02:29:04Z</time></trkpt>
<trkpt lat="25.145324" lon="102.037136">
<time>2016-10-07T02:29:05Z</time></trkpt>
<trkpt lat="25.145364" lon="102.036977">
<time>2016-10-07T02:29:06Z</time></trkpt>
<trkpt lat="25.145516" lon="102.036478">
<time>2016-10-07T02:29:07Z</time></trkpt>
<trkpt lat="25.145586" lon="102.036239">
<time>2016-10-07T02:29:08Z</time></trkpt>
<trkpt lat="25.145637" lon="102.035989">
<time>2016-10-07T02:29:09Z</time></trkpt>
<trkpt lat="25.145657" lon="102.03584">
<time>2016-10-07T02:29:10Z</time></trkpt>
<trkpt lat="25.145678" lon="102.0357">
<time>2016-10-07T02:29:11Z</time></trkpt>
<trkpt lat="25.145688" lon="102.03555">
<time>2016-10-07T02:29:12Z</time></trkpt>
<trkpt lat="25.145698" lon="102.035361">
<time>2016-10-07T02:29:13Z</time></trkpt>
<trkpt lat="25.145699" lon="102.035181">
<time>2016-10-07T02:29:14Z</time></trkpt>
<trkpt lat="25.145699" lon="102.034982">
<time>2016-10-07T02:29:15Z</time></trkpt>
<trkpt lat="25.14568" lon="102.034762">
<time>2016-10-07T02:29:16Z</time></trkpt>
<trkpt lat="25.14567" lon="102.034563">
<time>2016-10-07T02:29:17Z</time></trkpt>
<trkpt lat="25.145661" lon="102.034373">
<time>2016-10-07T02:29:18Z</time></trkpt>
<trkpt lat="25.145651" lon="102.034214">
<time>2016-10-07T02:29:19Z</time></trkpt>
<trkpt lat="25.145652" lon="102.034114">
<time>2016-10-07T02:29:20Z</time></trkpt>
<trkpt lat="25.145662" lon="102.033914">
<time>2016-10-07T02:29:21Z</time></trkpt>
<trkpt lat="25.145672" lon="102.033785">
<time>2016-10-07T02:29:22Z</time></trkpt>
<trkpt lat="25.145693" lon="102.033695">
<time>2016-10-07T02:29:23Z</time></trkpt>
<trkpt lat="25.145723" lon="102.033595">
<time>2016-10-07T02:29:24Z</time></trkpt>
<trkpt lat="25.145763" lon="102.033535">
<time>2016-10-07T02:29:25Z</time></trkpt>
<trkpt lat="25.145783" lon="102.033465">
<time>2016-10-07T02:29:26Z</time></trkpt>
<trkpt lat="25.145853" lon="102.033376">
<time>2016-10-07T02:29:27Z</time></trkpt>
<trkpt lat="25.145904" lon="102.033306">
<time>2016-10-07T02:29:28Z</time></trkpt>
<trkpt lat="25.145994" lon="102.033226">
<time>2016-10-07T02:29:29Z</time></trkpt>
<trkpt lat="25.146114" lon="102.033116">
<time>2016-10-07T02:29:30Z</time></trkpt>
<trkpt lat="25.146294" lon="102.032977">
<time>2016-10-07T02:29:31Z</time></trkpt>
<trkpt lat="25.146765" lon="102.032588">
<time>2016-10-07T02:29:32Z</time></trkpt>
<trkpt lat="25.146916" lon="102.032478">
<time>2016-10-07T02:29:33Z</time></trkpt>
<trkpt lat="25.147006" lon="102.032428">
<time>2016-10-07T02:29:34Z</time></trkpt>
<trkpt lat="25.147076" lon="102.032398">
<time>2016-10-07T02:29:35Z</time></trkpt>
<trkpt lat="25.147176" lon="102.032358">
<time>2016-10-07T02:29:36Z</time></trkpt>
<trkpt lat="25.147326" lon="102.032318">
<time>2016-10-07T02:29:37Z</time></trkpt>
<trkpt lat="25.147456" lon="102.032298">
<time>2016-10-07T02:29:38Z</time></trkpt>
<trkpt lat="25.147656" lon="102.032278">
<time>2016-10-07T02:29:39Z</time></trkpt>
<trkpt lat="25.147946" lon="102.032248">
<time>2016-10-07T02:29:40Z</time></trkpt>
<trkpt lat="25.148206" lon="102.032198">
<time>2016-10-07T02:29:41Z</time></trkpt>
<trkpt lat="25.148376" lon="102.032159">
<time>2016-10-07T02:29:42Z</time></trkpt>
<trkpt lat="25.148466" lon="102.032139">
<time>2016-10-07T02:29:43Z</time></trkpt>
<trkpt lat="25.148537" lon="102.032109">
<time>2016-10-07T02:29:44Z</time></trkpt>
<trkpt lat="25.148687" lon="102.032039">
<time>2016-10-07T02:29:45Z</time></trkpt>
<trkpt lat="25.148737" lon="102.031999">
<time>2016-10-07T02:29:46Z</time></trkpt>
<trkpt lat="25.148817" lon="102.031949">
<time>2016-10-07T02:29:47Z</time></trkpt>
<trkpt lat="25.148877" lon="102.031889">
<time>2016-10-07T02:29:48Z</time></trkpt>
<trkpt lat="25.148967" lon="102.031799">
<time>2016-10-07T02:29:49Z</time></trkpt>
<trkpt lat="25.149017" lon="102.03174">
<time>2016-10-07T02:29:50Z</time></trkpt>
<trkpt lat="25.149088" lon="102.03163">
<time>2016-10-07T02:29:51Z</time></trkpt>
<trkpt lat="25.149188" lon="102.03146">
<time>2016-10-07T02:29:52Z</time></trkpt>
<trkpt lat="25.149349" lon="102.031151">
<time>2016-10-07T02:29:53Z</time></trkpt>
<trkpt lat="25.149761" lon="102.030423">
<time>2016-10-07T02:29:54Z</time></trkpt>
<trkpt lat="25.149831" lon="102.030293">
<time>2016-10-07T02:29:55Z</time></trkpt>
<trkpt lat="25.149911" lon="102.030193">
<time>2016-10-07T02:29:56Z</time></trkpt>
<trkpt lat="25.150012" lon="102.030084">
<time>2016-10-07T02:29:57Z</time></trkpt>
<trkpt lat="25.150102" lon="102.030014">
<time>2016-10-07T02:29:58Z</time></trkpt>
<trkpt lat="25.150192" lon="102.029954">
<time>2016-10-07T02:29:59Z</time></trkpt>
<trkpt lat="25.150272" lon="102.029914">
<time>2016-10-07T02:30:00Z</time></trkpt>
<trkpt lat="25.150382" lon="102.029864">
<time>2016-10-07T02:30:01Z</time></trkpt>
<trkpt lat="25.150462" lon="102.029854">
<time>2016-10-07T02:30:02Z</time></trkpt>
<trkpt lat="25.150552" lon="102.029834">
<time>2016-10-07T02:30:03Z</time></trkpt>
<trkpt lat="25.150642" lon="102.029834">
<time>2016-10-07T02:30:04Z</time></trkpt>
<trkpt lat="25.150732" lon="102.029834">
<time>2016-10-07T02:30:05Z</time></trkpt>
<trkpt lat="25.150842" lon="102.029844">
<time>2016-10-07T02:30:06Z</time></trkpt>
<trkpt lat="25.150922" lon="102.029864">
<time>2016-10-07T02:30:07Z</time></trkpt>
<trkpt lat="25.151122" lon="102.029914">
<time>2016-10-07T02:30:08Z</time></trkpt>
<trkpt lat="25.151802" lon="102.030094">
<time>2016-10-07T02:30:09Z</time></trkpt>
<trkpt lat="25.151921" lon="102.030124">
<time>2016-10-07T02:30:10Z</time></trkpt>
<trkpt lat="25.152101" lon="102.030154">
<time>2016-10-07T02:30:11Z</time></trkpt>
<trkpt lat="25.152211" lon="102.030173">
<time>2016-10-07T02:30:12Z</time></trkpt>
<trkpt lat="25.152291" lon="102.030173">
<time>2016-10-07T02:30:13Z</time></trkpt>
<trkpt lat="25.152361" lon="102.030173">
<time>2016-10-07T02:30:14Z</time></trkpt>
<trkpt lat="25.152431" lon="102.030163">
<time>2016-10-07T02:30:15Z</time></trkpt>
<trkpt lat="25.152551" lon="102.030144">
<time>2016-10-07T02:30:16Z</time></trkpt>
<trkpt lat="25.152621" lon="102.030114">
<time>2016-10-07T02:30:17Z</time></trkpt>
<trkpt lat="25.152671" lon="102.030104">
<time>2016-10-07T02:30:18Z</time></trkpt>
<trkpt lat="25.152762" lon="102.030064">
<time>2016-10-07T02:30:19Z</time></trkpt>
<trkpt lat="25.152842" lon="102.030024">
<time>2016-10-07T02:30:20Z</time></trkpt>
<trkpt lat="25.152912" lon="102.029974">
<time>2016-10-07T02:30:21Z</time></trkpt>
<trkpt lat="25.153012" lon="102.029904">
<time>2016-10-07T02:30:22Z</time></trkpt>
<trkpt lat="25.153072" lon="102.029844">
<time>2016-10-07T02:30:23Z</time></trkpt>
<trkpt lat="25.153172" lon="102.029745">
<time>2016-10-07T02:30:24Z</time></trkpt>
<trkpt lat="25.153313" lon="102.029575">
<time>2016-10-07T02:30:25Z</time></trkpt>
<trkpt lat="25.153383" lon="102.029495">
<time>2016-10-07T02:30:26Z</time></trkpt>
<trkpt lat="25.153443" lon="102.029395">
<time>2016-10-07T02:30:27Z</time></trkpt>
<trkpt lat="25.153494" lon="102.029296">
<time>2016-10-07T02:30:28Z</time></trkpt>
<trkpt lat="25.153534" lon="102.029226">
<time>2016-10-07T02:30:29Z</time></trkpt>
<trkpt lat="25.153574" lon="102.029136">
<time>2016-10-07T02:30:30Z</time></trkpt>
<trkpt lat="25.153614" lon="102.029016">
<time>2016-10-07T02:30:31Z</time></trkpt>
<trkpt lat="25.153665" lon="102.028847">
<time>2016-10-07T02:30:32Z</time></trkpt>
<trkpt lat="25.153695" lon="102.028737">
<time>2016-10-07T02:30:33Z</time></trkpt>
<trkpt lat="25.153756" lon="102.028448">
<time>2016-10-07T02:30:34Z</time></trkpt>
<trkpt lat="25.153796" lon="102.028318">
<time>2016-10-07T02:30:35Z</time></trkpt>
<trkpt lat="25.153836" lon="102.028199">
<time>2016-10-07T02:30:36Z</time></trkpt>
<trkpt lat="25.153877" lon="102.028089">
<time>2016-10-07T02:30:37Z</time></trkpt>
<trkpt lat="25.153927" lon="102.028009">
<time>2016-10-07T02:30:38Z</time></trkpt>
<trkpt lat="25.153987" lon="102.027919">
<time>2016-10-07T02:30:39Z</time></trkpt>
<trkpt lat="25.154068" lon="102.02781">
<time>2016-10-07T02:30:40Z</time></trkpt>
<trkpt lat="25.154208" lon="102.02766">
<time>2016-10-07T02:30:41Z</time></trkpt>
<trkpt lat="25.154358" lon="102.02752">
<time>2016-10-07T02:30:42Z</time></trkpt>
<trkpt lat="25.154509" lon="102.027381">
<time>2016-10-07T02:30:43Z</time></trkpt>
<trkpt lat="25.154739" lon="102.027241">
<time>2016-10-07T02:30:44Z</time></trkpt>
<trkpt lat="25.155069" lon="102.027061">
<time>2016-10-07T02:30:45Z</time></trkpt>
<trkpt lat="25.15524" lon="102.026972">
<time>2016-10-07T02:30:46Z</time></trkpt>
<trkpt lat="25.15552" lon="102.026792">
<time>2016-10-07T02:30:47Z</time></trkpt>
<trkpt lat="25.155701" lon="102.026643">
<time>2016-10-07T02:30:48Z</time></trkpt>
<trkpt lat="25.155861" lon="102.026483">
<time>2016-10-07T02:30:49Z</time></trkpt>
<trkpt lat="25.156022" lon="102.026284">
<time>2016-10-07T02:30:50Z</time></trkpt>
<trkpt lat="25.156122" lon="102.026144">
<time>2016-10-07T02:30:51Z</time></trkpt>
<trkpt lat="25.156273" lon="102.025905">
<time>2016-10-07T02:30:52Z</time></trkpt>
<trkpt lat="25.156464" lon="102.025555">
<time>2016-10-07T02:30:53Z</time></trkpt>
<trkpt lat="25.156584" lon="102.025296">
<time>2016-10-07T02:30:54Z</time></trkpt>
<trkpt lat="25.156755" lon="102.024877">
<time>2016-10-07T02:30:55Z</time></trkpt>
<trkpt lat="25.156917" lon="102.024448">
<time>2016-10-07T02:30:56Z</time></trkpt>
<trkpt lat="25.157017" lon="102.024119">
<time>2016-10-07T02:30:57Z</time></trkpt>
<trkpt lat="25.15727" lon="102.023292">
<time>2016-10-07T02:30:58Z</time></trkpt>
<trkpt lat="25.157472" lon="102.022574">
<time>2016-10-07T02:30:59Z</time></trkpt>
<trkpt lat="25.157583" lon="102.022155">
<time>2016-10-07T02:31:00Z</time></trkpt>
<trkpt lat="25.157684" lon="102.021915">
<time>2016-10-07T02:31:01Z</time></trkpt>
<trkpt lat="25.157724" lon="102.021826">
<time>2016-10-07T02:31:02Z</time></trkpt>
<trkpt lat="25.157774" lon="102.021736">
<time>2016-10-07T02:31:03Z</time></trkpt>
<trkpt lat="25.157824" lon="102.021676">
<time>2016-10-07T02:31:04Z</time></trkpt>
<trkpt lat="25.157864" lon="102.021626">
<time>2016-10-07T02:31:05Z</time></trkpt>
<trkpt lat="25.157924" lon="102.021576">
<time>2016-10-07T02:31:06Z</time></trkpt>
<trkpt lat="25.157995" lon="102.021526">
<time>2016-10-07T02:31:07Z</time></trkpt>
<trkpt lat="25.158075" lon="102.021497">
<time>2016-10-07T02:31:08Z</time></trkpt>
<trkpt lat="25.158145" lon="102.021467">
<time>2016-10-07T02:31:09Z</time></trkpt>
<trkpt lat="25.158235" lon="102.021437">
<time>2016-10-07T02:31:10Z</time></trkpt>
<trkpt lat="25.158355" lon="102.021417">
<time>2016-10-07T02:31:11Z</time></trkpt>
<trkpt lat="25.158455" lon="102.021407">
<time>2016-10-07T02:31:12Z</time></trkpt>
<trkpt lat="25.158585" lon="102.021397">
<time>2016-10-07T02:31:13Z</time></trkpt>
<trkpt lat="25.158855" lon="102.021417">
<time>2016-10-07T02:31:14Z</time></trkpt>
<trkpt lat="25.159315" lon="102.021457">
<time>2016-10-07T02:31:15Z</time></trkpt>
<trkpt lat="25.160035" lon="102.021526">
<time>2016-10-07T02:31:16Z</time></trkpt>
<trkpt lat="25.160234" lon="102.021546">
<time>2016-10-07T02:31:17Z</time></trkpt>
<trkpt lat="25.160354" lon="102.021546">
<time>2016-10-07T02:31:18Z</time></trkpt>
<trkpt lat="25.160444" lon="102.021556">
<time>2016-10-07T02:31:19Z</time></trkpt>
<trkpt lat="25.160544" lon="102.021546">
<time>2016-10-07T02:31:20Z</time></trkpt>
<trkpt lat="25.160634" lon="102.021526">
<time>2016-10-07T02:31:21Z</time></trkpt>
<trkpt lat="25.160745" lon="102.021506">
<time>2016-10-07T02:31:22Z</time></trkpt>
<trkpt lat="25.160855" lon="102.021467">
<time>2016-10-07T02:31:23Z</time></trkpt>
<trkpt lat="25.161025" lon="102.021407">
<time>2016-10-07T02:31:24Z</time></trkpt>
<trkpt lat="25.161205" lon="102.021317">
<time>2016-10-07T02:31:25Z</time></trkpt>
<trkpt lat="25.161616" lon="102.021107">
<time>2016-10-07T02:31:26Z</time></trkpt>
<trkpt lat="25.161876" lon="102.020968">
<time>2016-10-07T02:31:27Z</time></trkpt>
<trkpt lat="25.162056" lon="102.020858">
<time>2016-10-07T02:31:28Z</time></trkpt>
<trkpt lat="25.162467" lon="102.020599">
<time>2016-10-07T02:31:29Z</time></trkpt>
<trkpt lat="25.162707" lon="102.020439">
<time>2016-10-07T02:31:30Z</time></trkpt>
<trkpt lat="25.162828" lon="102.02035">
<time>2016-10-07T02:31:31Z</time></trkpt>
<trkpt lat="25.162928" lon="102.02028">
<time>2016-10-07T02:31:32Z</time></trkpt>
<trkpt lat="25.162998" lon="102.02022">
<time>2016-10-07T02:31:33Z</time></trkpt>
<trkpt lat="25.163078" lon="102.02014">
<time>2016-10-07T02:31:34Z</time></trkpt>
<trkpt lat="25.163159" lon="102.02005">
<time>2016-10-07T02:31:35Z</time></trkpt>
<trkpt lat="25.163219" lon="102.019981">
<time>2016-10-07T02:31:36Z</time></trkpt>
<trkpt lat="25.163349" lon="102.019801">
<time>2016-10-07T02:31:37Z</time></trkpt>
<trkpt lat="25.16353" lon="102.019582">
<time>2016-10-07T02:31:38Z</time></trkpt>
<trkpt lat="25.16367" lon="102.019392">
<time>2016-10-07T02:31:39Z</time></trkpt>
<trkpt lat="25.163761" lon="102.019302">
<time>2016-10-07T02:31:40Z</time></trkpt>
<trkpt lat="25.163861" lon="102.019193">
<time>2016-10-07T02:31:41Z</time></trkpt>
<trkpt lat="25.163931" lon="102.019133">
<time>2016-10-07T02:31:42Z</time></trkpt>
<trkpt lat="25.163981" lon="102.019093">
<time>2016-10-07T02:31:43Z</time></trkpt>
<trkpt lat="25.164081" lon="102.019003">
<time>2016-10-07T02:31:44Z</time></trkpt>
<trkpt lat="25.164573" lon="102.018624">
<time>2016-10-07T02:31:45Z</time></trkpt>
<trkpt lat="25.164643" lon="102.018575">
<time>2016-10-07T02:31:46Z</time></trkpt>
<trkpt lat="25.165033" lon="102.018295">
<time>2016-10-07T02:31:47Z</time></trkpt>
<trkpt lat="25.165194" lon="102.018166">
<time>2016-10-07T02:31:48Z</time></trkpt>
<trkpt lat="25.165354" lon="102.018006">
<time>2016-10-07T02:31:49Z</time></trkpt>
<trkpt lat="25.165455" lon="102.017896">
<time>2016-10-07T02:31:50Z</time></trkpt>
<trkpt lat="25.165665" lon="102.017647">
<time>2016-10-07T02:31:51Z</time></trkpt>
<trkpt lat="25.165746" lon="102.017537">
<time>2016-10-07T02:31:52Z</time></trkpt>
<trkpt lat="25.165826" lon="102.017428">
<time>2016-10-07T02:31:53Z</time></trkpt>
<trkpt lat="25.165926" lon="102.017308">
<time>2016-10-07T02:31:54Z</time></trkpt>
<trkpt lat="25.165997" lon="102.017198">
<time>2016-10-07T02:31:55Z</time></trkpt>
<trkpt lat="25.166097" lon="102.017049">
<time>2016-10-07T02:31:56Z</time></trkpt>
<trkpt lat="25.166208" lon="102.016849">
<time>2016-10-07T02:31:57Z</time></trkpt>
<trkpt lat="25.166399" lon="102.01647">
<time>2016-10-07T02:31:58Z</time></trkpt>
<trkpt lat="25.16653" lon="102.016181">
<time>2016-10-07T02:31:59Z</time></trkpt>
<trkpt lat="25.16668" lon="102.015862">
<time>2016-10-07T02:32:00Z</time></trkpt>
<trkpt lat="25.166842" lon="102.015453">
<time>2016-10-07T02:32:01Z</time></trkpt>
<trkpt lat="25.167023" lon="102.015064">
<time>2016-10-07T02:32:02Z</time></trkpt>
<trkpt lat="25.167184" lon="102.014805">
<time>2016-10-07T02:32:03Z</time></trkpt>
<trkpt lat="25.167294" lon="102.014676">
<time>2016-10-07T02:32:04Z</time></trkpt>
<trkpt lat="25.167394" lon="102.014556">
<time>2016-10-07T02:32:05Z</time></trkpt>
<trkpt lat="25.167635" lon="102.014297">
<time>2016-10-07T02:32:06Z</time></trkpt>
<trkpt lat="25.167715" lon="102.014227">
<time>2016-10-07T02:32:07Z</time></trkpt>
<trkpt lat="25.167735" lon="102.014207">
<time>2016-10-07T02:32:08Z</time></trkpt>
<trkpt lat="25.167866" lon="102.014107">
<time>2016-10-07T02:32:09Z</time></trkpt>
<trkpt lat="25.168066" lon="102.013988">
<time>2016-10-07T02:32:10Z</time></trkpt>
<trkpt lat="25.168066" lon="102.013988">
<time>2016-10-07T02:32:11Z</time></trkpt>
<trkpt lat="25.168026" lon="102.013868">
<time>2016-10-07T02:32:12Z</time></trkpt>
<trkpt lat="25.167867" lon="102.013449">
<time>2016-10-07T02:32:13Z</time></trkpt>
<trkpt lat="25.167828" lon="102.01324">
<time>2016-10-07T02:32:14Z</time></trkpt>
<trkpt lat="25.167819" lon="102.01303">
<time>2016-10-07T02:32:15Z</time></trkpt>
<trkpt lat="25.167819" lon="102.012791">
<time>2016-10-07T02:32:16Z</time></trkpt>
<trkpt lat="25.16785" lon="102.012602">
<time>2016-10-07T02:32:17Z</time></trkpt>
<trkpt lat="25.167962" lon="102.012063">
<time>2016-10-07T02:32:18Z</time></trkpt>
<trkpt lat="25.167962" lon="102.012063">
<time>2016-10-07T02:32:19Z</time></trkpt>
<trkpt lat="25.168092" lon="102.011973">
<time>2016-10-07T02:32:20Z</time></trkpt>
<trkpt lat="25.168282" lon="102.011794">
<time>2016-10-07T02:32:21Z</time></trkpt>
<trkpt lat="25.168383" lon="102.011654">
<time>2016-10-07T02:32:22Z</time></trkpt>
<trkpt lat="25.168513" lon="102.011425">
<time>2016-10-07T02:32:23Z</time></trkpt>
<trkpt lat="25.168654" lon="102.011116">
<time>2016-10-07T02:32:24Z</time></trkpt>
<trkpt lat="25.168685" lon="102.010986">
<time>2016-10-07T02:32:25Z</time></trkpt>
<trkpt lat="25.168685" lon="102.010847">
<time>2016-10-07T02:32:26Z</time></trkpt>
<trkpt lat="25.168666" lon="102.010727">
<time>2016-10-07T02:32:27Z</time></trkpt>
<trkpt lat="25.168606" lon="102.010617">
<time>2016-10-07T02:32:28Z</time></trkpt>
<trkpt lat="25.168506" lon="102.010448">
<time>2016-10-07T02:32:29Z</time></trkpt>
<trkpt lat="25.168157" lon="102.010099">
<time>2016-10-07T02:32:30Z</time></trkpt>
<trkpt lat="25.16744" lon="102.009371">
<time>2016-10-07T02:32:31Z</time></trkpt>
<trkpt lat="25.166782" lon="102.008743">
<time>2016-10-07T02:32:32Z</time></trkpt>
<trkpt lat="25.166682" lon="102.008623">
<time>2016-10-07T02:32:33Z</time></trkpt>
<trkpt lat="25.166582" lon="102.008504">
<time>2016-10-07T02:32:34Z</time></trkpt>
<trkpt lat="25.166423" lon="102.008264">
<time>2016-10-07T02:32:35Z</time></trkpt>
<trkpt lat="25.166244" lon="102.007935">
<time>2016-10-07T02:32:36Z</time></trkpt>
<trkpt lat="25.166075" lon="102.007596">
<time>2016-10-07T02:32:37Z</time></trkpt>
<trkpt lat="25.165906" lon="102.007178">
<time>2016-10-07T02:32:38Z</time></trkpt>
<trkpt lat="25.165718" lon="102.006619">
<time>2016-10-07T02:32:39Z</time></trkpt>
<trkpt lat="25.16558" lon="102.006091">
<time>2016-10-07T02:32:40Z</time></trkpt>
<trkpt lat="25.165461" lon="102.005602">
<time>2016-10-07T02:32:41Z</time></trkpt>
<trkpt lat="25.165392" lon="102.005124">
<time>2016-10-07T02:32:42Z</time></trkpt>
<trkpt lat="25.165324" lon="102.004655">
<time>2016-10-07T02:32:43Z</time></trkpt>
<trkpt lat="25.165225" lon="102.004187">
<time>2016-10-07T02:32:44Z</time></trkpt>
<trkpt lat="25.165116" lon="102.003838">
<time>2016-10-07T02:32:45Z</time></trkpt>
<trkpt lat="25.165027" lon="102.003559">
<time>2016-10-07T02:32:46Z</time></trkpt>
<trkpt lat="25.164968" lon="102.003329">
<time>2016-10-07T02:32:47Z</time></trkpt>
<trkpt lat="25.164919" lon="102.00312">
<time>2016-10-07T02:32:48Z</time></trkpt>
<trkpt lat="25.164821" lon="102.002442">
<time>2016-10-07T02:32:49Z</time></trkpt>
<trkpt lat="25.164751" lon="102.002193">
<time>2016-10-07T02:32:50Z</time></trkpt>
<trkpt lat="25.164652" lon="102.001943">
<time>2016-10-07T02:32:51Z</time></trkpt>
<trkpt lat="25.164543" lon="102.001734">
<time>2016-10-07T02:32:52Z</time></trkpt>
<trkpt lat="25.164224" lon="102.001246">
<time>2016-10-07T02:32:53Z</time></trkpt>
<trkpt lat="25.163916" lon="102.000857">
<time>2016-10-07T02:32:54Z</time></trkpt>
<trkpt lat="25.163686" lon="102.000647">
<time>2016-10-07T02:32:55Z</time></trkpt>
<trkpt lat="25.163447" lon="102.000408">
<time>2016-10-07T02:32:56Z</time></trkpt>
<trkpt lat="25.163208" lon="102.000199">
<time>2016-10-07T02:32:57Z</time></trkpt>
<trkpt lat="25.163118" lon="102.000109">
<time>2016-10-07T02:32:58Z</time></trkpt>
<trkpt lat="25.163048" lon="102.000009">
<time>2016-10-07T02:32:59Z</time></trkpt>
<trkpt lat="25.163008" lon="101.999959">
<time>2016-10-07T02:33:00Z</time></trkpt>
<trkpt lat="25.162958" lon="101.9999">
<time>2016-10-07T02:33:01Z</time></trkpt>
<trkpt lat="25.162919" lon="101.9998">
<time>2016-10-07T02:33:02Z</time></trkpt>
<trkpt lat="25.162869" lon="101.99967">
<time>2016-10-07T02:33:03Z</time></trkpt>
<trkpt lat="25.16276" lon="101.999341">
<time>2016-10-07T02:33:04Z</time></trkpt>
<trkpt lat="25.162631" lon="101.998982">
<time>2016-10-07T02:33:05Z</time></trkpt>
<trkpt lat="25.162492" lon="101.998633">
<time>2016-10-07T02:33:06Z</time></trkpt>
<trkpt lat="25.162403" lon="101.998374">
<time>2016-10-07T02:33:07Z</time></trkpt>
<trkpt lat="25.162383" lon="101.998275">
<time>2016-10-07T02:33:08Z</time></trkpt>
<trkpt lat="25.162364" lon="101.998185">
<time>2016-10-07T02:33:09Z</time></trkpt>
<trkpt lat="25.162354" lon="101.998095">
<time>2016-10-07T02:33:10Z</time></trkpt>
<trkpt lat="25.162344" lon="101.998005">
<time>2016-10-07T02:33:11Z</time></trkpt>
<trkpt lat="25.162355" lon="101.997906">
<time>2016-10-07T02:33:12Z</time></trkpt>
<trkpt lat="25.162355" lon="101.997776">
<time>2016-10-07T02:33:13Z</time></trkpt>
<trkpt lat="25.162366" lon="101.997477">
<time>2016-10-07T02:33:14Z</time></trkpt>
<trkpt lat="25.162366" lon="101.997307">
<time>2016-10-07T02:33:15Z</time></trkpt>
<trkpt lat="25.162347" lon="101.997018">
<time>2016-10-07T02:33:16Z</time></trkpt>
<trkpt lat="25.162308" lon="101.996759">
<time>2016-10-07T02:33:17Z</time></trkpt>
<trkpt lat="25.162279" lon="101.99651">
<time>2016-10-07T02:33:18Z</time></trkpt>
<trkpt lat="25.162259" lon="101.99641">
<time>2016-10-07T02:33:19Z</time></trkpt>
<trkpt lat="25.162219" lon="101.996301">
<time>2016-10-07T02:33:20Z</time></trkpt>
<trkpt lat="25.16218" lon="101.996201">
<time>2016-10-07T02:33:21Z</time></trkpt>
<trkpt lat="25.16212" lon="101.996111">
<time>2016-10-07T02:33:22Z</time></trkpt>
<trkpt lat="25.16205" lon="101.996041">
<time>2016-10-07T02:33:23Z</time></trkpt>
<trkpt lat="25.16198" lon="101.995972">
<time>2016-10-07T02:33:24Z</time></trkpt>
<trkpt lat="25.161901" lon="101.995902">
<time>2016-10-07T02:33:25Z</time></trkpt>
<trkpt lat="25.161811" lon="101.995852">
<time>2016-10-07T02:33:26Z</time></trkpt>
<trkpt lat="25.161711" lon="101.995792">
<time>2016-10-07T02:33:27Z</time></trkpt>
<trkpt lat="25.161621" lon="101.995732">
<time>2016-10-07T02:33:28Z</time></trkpt>
<trkpt lat="25.161541" lon="101.995652">
<time>2016-10-07T02:33:29Z</time></trkpt>
<trkpt lat="25.161282" lon="101.995363">
<time>2016-10-07T02:33:30Z</time></trkpt>
<trkpt lat="25.160963" lon="101.994994">
<time>2016-10-07T02:33:31Z</time></trkpt>
<trkpt lat="25.160674" lon="101.994695">
<time>2016-10-07T02:33:32Z</time></trkpt>
<trkpt lat="25.160495" lon="101.994496">
<time>2016-10-07T02:33:33Z</time></trkpt>
<trkpt lat="25.160386" lon="101.994327">
<time>2016-10-07T02:33:34Z</time></trkpt>
<trkpt lat="25.160286" lon="101.994167">
<time>2016-10-07T02:33:35Z</time></trkpt>
<trkpt lat="25.160227" lon="101.994007">
<time>2016-10-07T02:33:36Z</time></trkpt>
<trkpt lat="25.160167" lon="101.993838">
<time>2016-10-07T02:33:37Z</time></trkpt>
<trkpt lat="25.160118" lon="101.993639">
<time>2016-10-07T02:33:38Z</time></trkpt>
<trkpt lat="25.160098" lon="101.993509">
<time>2016-10-07T02:33:39Z</time></trkpt>
<trkpt lat="25.160078" lon="101.993419">
<time>2016-10-07T02:33:40Z</time></trkpt>
<trkpt lat="25.160069" lon="101.99327">
<time>2016-10-07T02:33:41Z</time></trkpt>
<trkpt lat="25.16008" lon="101.992881">
<time>2016-10-07T02:33:42Z</time></trkpt>
<trkpt lat="25.160091" lon="101.992691">
<time>2016-10-07T02:33:43Z</time></trkpt>
<trkpt lat="25.160111" lon="101.992602">
<time>2016-10-07T02:33:44Z</time></trkpt>
<trkpt lat="25.160151" lon="101.992492">
<time>2016-10-07T02:33:45Z</time></trkpt>
<trkpt lat="25.160211" lon="101.992402">
<time>2016-10-07T02:33:46Z</time></trkpt>
<trkpt lat="25.160292" lon="101.992323">
<time>2016-10-07T02:33:47Z</time></trkpt>
<trkpt lat="25.160392" lon="101.992243">
<time>2016-10-07T02:33:48Z</time></trkpt>
<trkpt lat="25.160492" lon="101.992163">
<time>2016-10-07T02:33:49Z</time></trkpt>
<trkpt lat="25.160562" lon="101.992123">
<time>2016-10-07T02:33:50Z</time></trkpt>
<trkpt lat="25.160692" lon="101.992063">
<time>2016-10-07T02:33:51Z</time></trkpt>
<trkpt lat="25.160823" lon="101.992003">
<time>2016-10-07T02:33:52Z</time></trkpt>
<trkpt lat="25.161023" lon="101.991944">
<time>2016-10-07T02:33:53Z</time></trkpt>
<trkpt lat="25.161253" lon="101.991874">
<time>2016-10-07T02:33:54Z</time></trkpt>
<trkpt lat="25.161433" lon="101.991834">
<time>2016-10-07T02:33:55Z</time></trkpt>
<trkpt lat="25.161493" lon="101.991804">
<time>2016-10-07T02:33:56Z</time></trkpt>
<trkpt lat="25.161603" lon="101.991744">
<time>2016-10-07T02:33:57Z</time></trkpt>
<trkpt lat="25.161674" lon="101.991664">
<time>2016-10-07T02:33:58Z</time></trkpt>
<trkpt lat="25.161724" lon="101.991585">
<time>2016-10-07T02:33:59Z</time></trkpt>
<trkpt lat="25.161804" lon="101.991415">
<time>2016-10-07T02:34:00Z</time></trkpt>
<trkpt lat="25.161835" lon="101.991296">
<time>2016-10-07T02:34:01Z</time></trkpt>
<trkpt lat="25.161885" lon="101.991136">
<time>2016-10-07T02:34:02Z</time></trkpt>
<trkpt lat="25.161916" lon="101.991006">
<time>2016-10-07T02:34:03Z</time></trkpt>
<trkpt lat="25.161926" lon="101.990887">
<time>2016-10-07T02:34:04Z</time></trkpt>
<trkpt lat="25.161946" lon="101.990687">
<time>2016-10-07T02:34:05Z</time></trkpt>
<trkpt lat="25.161937" lon="101.990538">
<time>2016-10-07T02:34:06Z</time></trkpt>
<trkpt lat="25.161927" lon="101.990388">
<time>2016-10-07T02:34:07Z</time></trkpt>
<trkpt lat="25.161908" lon="101.990269">
<time>2016-10-07T02:34:08Z</time></trkpt>
<trkpt lat="25.161888" lon="101.990149">
<time>2016-10-07T02:34:09Z</time></trkpt>
<trkpt lat="25.16174" lon="101.989601">
<time>2016-10-07T02:34:10Z</time></trkpt>
<trkpt lat="25.161651" lon="101.989272">
<time>2016-10-07T02:34:11Z</time></trkpt>
<trkpt lat="25.161552" lon="101.988982">
<time>2016-10-07T02:34:12Z</time></trkpt>
<trkpt lat="25.161433" lon="101.988693">
<time>2016-10-07T02:34:13Z</time></trkpt>
<trkpt lat="25.161323" lon="101.988434">
<time>2016-10-07T02:34:14Z</time></trkpt>
<trkpt lat="25.161254" lon="101.988295">
<time>2016-10-07T02:34:15Z</time></trkpt>
<trkpt lat="25.161094" lon="101.988095">
<time>2016-10-07T02:34:16Z</time></trkpt>
<trkpt lat="25.160915" lon="101.987906">
<time>2016-10-07T02:34:17Z</time></trkpt>
<trkpt lat="25.160656" lon="101.987656">
<time>2016-10-07T02:34:18Z</time></trkpt>
<trkpt lat="25.160347" lon="101.987357">
<time>2016-10-07T02:34:19Z</time></trkpt>
<trkpt lat="25.160187" lon="101.987218">
<time>2016-10-07T02:34:20Z</time></trkpt>
<trkpt lat="25.160037" lon="101.987098">
<time>2016-10-07T02:34:21Z</time></trkpt>
<trkpt lat="25.159788" lon="101.986909">
<time>2016-10-07T02:34:22Z</time></trkpt>
<trkpt lat="25.159708" lon="101.986839">
<time>2016-10-07T02:34:23Z</time></trkpt>
<trkpt lat="25.159628" lon="101.986749">
<time>2016-10-07T02:34:24Z</time></trkpt>
<trkpt lat="25.159549" lon="101.986659">
<time>2016-10-07T02:34:25Z</time></trkpt>
<trkpt lat="25.159439" lon="101.98649">
<time>2016-10-07T02:34:26Z</time></trkpt>
<trkpt lat="25.15929" lon="101.986231">
<time>2016-10-07T02:34:27Z</time></trkpt>
<trkpt lat="25.159111" lon="101.985872">
<time>2016-10-07T02:34:28Z</time></trkpt>
<trkpt lat="25.159061" lon="101.985732">
<time>2016-10-07T02:34:29Z</time></trkpt>
<trkpt lat="25.159032" lon="101.985652">
<time>2016-10-07T02:34:30Z</time></trkpt>
<trkpt lat="25.159002" lon="101.985503">
<time>2016-10-07T02:34:31Z</time></trkpt>
<trkpt lat="25.158983" lon="101.985393">
<time>2016-10-07T02:34:32Z</time></trkpt>
<trkpt lat="25.158973" lon="101.985283">
<time>2016-10-07T02:34:33Z</time></trkpt>
<trkpt lat="25.158973" lon="101.985114">
<time>2016-10-07T02:34:34Z</time></trkpt>
<trkpt lat="25.158974" lon="101.984735">
<time>2016-10-07T02:34:35Z</time></trkpt>
<trkpt lat="25.158956" lon="101.984356">
<time>2016-10-07T02:34:36Z</time></trkpt>
<trkpt lat="25.158937" lon="101.983977">
<time>2016-10-07T02:34:37Z</time></trkpt>
<trkpt lat="25.158928" lon="101.983568">
<time>2016-10-07T02:34:38Z</time></trkpt>
<trkpt lat="25.158899" lon="101.983249">
<time>2016-10-07T02:34:39Z</time></trkpt>
<trkpt lat="25.158879" lon="101.98309">
<time>2016-10-07T02:34:40Z</time></trkpt>
<trkpt lat="25.1588" lon="101.982811">
<time>2016-10-07T02:34:41Z</time></trkpt>
<trkpt lat="25.158661" lon="101.982452">
<time>2016-10-07T02:34:42Z</time></trkpt>
<trkpt lat="25.158602" lon="101.982252">
<time>2016-10-07T02:34:43Z</time></trkpt>
<trkpt lat="25.158572" lon="101.982123">
<time>2016-10-07T02:34:44Z</time></trkpt>
<trkpt lat="25.158563" lon="101.982003">
<time>2016-10-07T02:34:45Z</time></trkpt>
<trkpt lat="25.158533" lon="101.981834">
<time>2016-10-07T02:34:46Z</time></trkpt>
<trkpt lat="25.158503" lon="101.981684">
<time>2016-10-07T02:34:47Z</time></trkpt>
<trkpt lat="25.158474" lon="101.981554">
<time>2016-10-07T02:34:48Z</time></trkpt>
<trkpt lat="25.158424" lon="101.981425">
<time>2016-10-07T02:34:49Z</time></trkpt>
<trkpt lat="25.158295" lon="101.981076">
<time>2016-10-07T02:34:50Z</time></trkpt>
<trkpt lat="25.158226" lon="101.980876">
<time>2016-10-07T02:34:51Z</time></trkpt>
<trkpt lat="25.158186" lon="101.980697">
<time>2016-10-07T02:34:52Z</time></trkpt>
<trkpt lat="25.158167" lon="101.980567">
<time>2016-10-07T02:34:53Z</time></trkpt>
<trkpt lat="25.158157" lon="101.980458">
<time>2016-10-07T02:34:54Z</time></trkpt>
<trkpt lat="25.158149" lon="101.979809">
<time>2016-10-07T02:34:55Z</time></trkpt>
<trkpt lat="25.15814" lon="101.97952">
<time>2016-10-07T02:34:56Z</time></trkpt>
<trkpt lat="25.15815" lon="101.979321">
<time>2016-10-07T02:34:57Z</time></trkpt>
<trkpt lat="25.158181" lon="101.979111">
<time>2016-10-07T02:34:58Z</time></trkpt>
<trkpt lat="25.158211" lon="101.978982">
<time>2016-10-07T02:34:59Z</time></trkpt>
<trkpt lat="25.158282" lon="101.978663">
<time>2016-10-07T02:35:00Z</time></trkpt>
<trkpt lat="25.158303" lon="101.978483">
<time>2016-10-07T02:35:01Z</time></trkpt>
<trkpt lat="25.158313" lon="101.978234">
<time>2016-10-07T02:35:02Z</time></trkpt>
<trkpt lat="25.158315" lon="101.977845">
<time>2016-10-07T02:35:03Z</time></trkpt>
<trkpt lat="25.158306" lon="101.977466">
<time>2016-10-07T02:35:04Z</time></trkpt>
<trkpt lat="25.158287" lon="101.977157">
<time>2016-10-07T02:35:05Z</time></trkpt>
<trkpt lat="25.158257" lon="101.976967">
<time>2016-10-07T02:35:06Z</time></trkpt>
<trkpt lat="25.158178" lon="101.976648">
<time>2016-10-07T02:35:07Z</time></trkpt>
<trkpt lat="25.158049" lon="101.976249">
<time>2016-10-07T02:35:08Z</time></trkpt>
<trkpt lat="25.157921" lon="101.975731">
<time>2016-10-07T02:35:09Z</time></trkpt>
<trkpt lat="25.157812" lon="101.975123">
<time>2016-10-07T02:35:10Z</time></trkpt>
<trkpt lat="25.157744" lon="101.974634">
<time>2016-10-07T02:35:11Z</time></trkpt>
<trkpt lat="25.157735" lon="101.974155">
<time>2016-10-07T02:35:12Z</time></trkpt>
<trkpt lat="25.157807" lon="101.973577">
<time>2016-10-07T02:35:13Z</time></trkpt>
<trkpt lat="25.157918" lon="101.973128">
<time>2016-10-07T02:35:14Z</time></trkpt>
<trkpt lat="25.158149" lon="101.972589">
<time>2016-10-07T02:35:15Z</time></trkpt>
<trkpt lat="25.158471" lon="101.972031">
<time>2016-10-07T02:35:16Z</time></trkpt>
<trkpt lat="25.158923" lon="101.971243">
<time>2016-10-07T02:35:17Z</time></trkpt>
<trkpt lat="25.159034" lon="101.970944">
<time>2016-10-07T02:35:18Z</time></trkpt>
<trkpt lat="25.159074" lon="101.970824">
<time>2016-10-07T02:35:19Z</time></trkpt>
<trkpt lat="25.159195" lon="101.970415">
<time>2016-10-07T02:35:20Z</time></trkpt>
<trkpt lat="25.159246" lon="101.970026">
<time>2016-10-07T02:35:21Z</time></trkpt>
<trkpt lat="25.159308" lon="101.969458">
<time>2016-10-07T02:35:22Z</time></trkpt>
<trkpt lat="25.159308" lon="101.969288">
<time>2016-10-07T02:35:23Z</time></trkpt>
<trkpt lat="25.159309" lon="101.969119">
<time>2016-10-07T02:35:24Z</time></trkpt>
<trkpt lat="25.159309" lon="101.968969">
<time>2016-10-07T02:35:25Z</time></trkpt>
<trkpt lat="25.15929" lon="101.968839">
<time>2016-10-07T02:35:26Z</time></trkpt>
<trkpt lat="25.15925" lon="101.96862">
<time>2016-10-07T02:35:27Z</time></trkpt>
<trkpt lat="25.15922" lon="101.9685">
<time>2016-10-07T02:35:28Z</time></trkpt>
<trkpt lat="25.159181" lon="101.968381">
<time>2016-10-07T02:35:29Z</time></trkpt>
<trkpt lat="25.159171" lon="101.968361">
<time>2016-10-07T02:35:30Z</time></trkpt>
<trkpt lat="25.159131" lon="101.968271">
<time>2016-10-07T02:35:31Z</time></trkpt>
<trkpt lat="25.159081" lon="101.968171">
<time>2016-10-07T02:35:32Z</time></trkpt>
<trkpt lat="25.159022" lon="101.968061">
<time>2016-10-07T02:35:33Z</time></trkpt>
<trkpt lat="25.158952" lon="101.967952">
<time>2016-10-07T02:35:34Z</time></trkpt>
<trkpt lat="25.158832" lon="101.967832">
<time>2016-10-07T02:35:35Z</time></trkpt>
<trkpt lat="25.158693" lon="101.967742">
<time>2016-10-07T02:35:36Z</time></trkpt>
<trkpt lat="25.158623" lon="101.967702">
<time>2016-10-07T02:35:37Z</time></trkpt>
<trkpt lat="25.158543" lon="101.967663">
<time>2016-10-07T02:35:38Z</time></trkpt>
<trkpt lat="25.158473" lon="101.967643">
<time>2016-10-07T02:35:39Z</time></trkpt>
<trkpt lat="25.158393" lon="101.967623">
<time>2016-10-07T02:35:40Z</time></trkpt>
<trkpt lat="25.158233" lon="101.967613">
<time>2016-10-07T02:35:41Z</time></trkpt>
<trkpt lat="25.158083" lon="101.967613">
<time>2016-10-07T02:35:42Z</time></trkpt>
<trkpt lat="25.157983" lon="101.967633">
<time>2016-10-07T02:35:43Z</time></trkpt>
<trkpt lat="25.157883" lon="101.967682">
<time>2016-10-07T02:35:44Z</time></trkpt>
<trkpt lat="25.157793" lon="101.967732">
<time>2016-10-07T02:35:45Z</time></trkpt>
<trkpt lat="25.157712" lon="101.967812">
<time>2016-10-07T02:35:46Z</time></trkpt>
<trkpt lat="25.157562" lon="101.967962">
<time>2016-10-07T02:35:47Z</time></trkpt>
<trkpt lat="25.157372" lon="101.968131">
<time>2016-10-07T02:35:48Z</time></trkpt>
<trkpt lat="25.157241" lon="101.968241">
<time>2016-10-07T02:35:49Z</time></trkpt>
<trkpt lat="25.157131" lon="101.968301">
<time>2016-10-07T02:35:50Z</time></trkpt>
<trkpt lat="25.157061" lon="101.968331">
<time>2016-10-07T02:35:51Z</time></trkpt>
<trkpt lat="25.156971" lon="101.968341">
<time>2016-10-07T02:35:52Z</time></trkpt>
<trkpt lat="25.156881" lon="101.968341">
<time>2016-10-07T02:35:53Z</time></trkpt>
<trkpt lat="25.156731" lon="101.968321">
<time>2016-10-07T02:35:54Z</time></trkpt>
<trkpt lat="25.156561" lon="101.968281">
<time>2016-10-07T02:35:55Z</time></trkpt>
<trkpt lat="25.156361" lon="101.968221">
<time>2016-10-07T02:35:56Z</time></trkpt>
<trkpt lat="25.156202" lon="101.968151">
<time>2016-10-07T02:35:57Z</time></trkpt>
<trkpt lat="25.156062" lon="101.968062">
<time>2016-10-07T02:35:58Z</time></trkpt>
<trkpt lat="25.155922" lon="101.967952">
<time>2016-10-07T02:35:59Z</time></trkpt>
<trkpt lat="25.155802" lon="101.967822">
<time>2016-10-07T02:36:00Z</time></trkpt>
<trkpt lat="25.155653" lon="101.967623">
<time>2016-10-07T02:36:01Z</time></trkpt>
<trkpt lat="25.155574" lon="101.967413">
<time>2016-10-07T02:36:02Z</time></trkpt>
<trkpt lat="25.155524" lon="101.967154">
<time>2016-10-07T02:36:03Z</time></trkpt>
<trkpt lat="25.155525" lon="101.966855">
<time>2016-10-07T02:36:04Z</time></trkpt>
<trkpt lat="25.155556" lon="101.966545">
<time>2016-10-07T02:36:05Z</time></trkpt>
<trkpt lat="25.155657" lon="101.966166">
<time>2016-10-07T02:36:06Z</time></trkpt>
<trkpt lat="25.155748" lon="101.965738">
<time>2016-10-07T02:36:07Z</time></trkpt>
<trkpt lat="25.155799" lon="101.965348">
<time>2016-10-07T02:36:08Z</time></trkpt>
<trkpt lat="25.155831" lon="101.96464">
<time>2016-10-07T02:36:09Z</time></trkpt>
<trkpt lat="25.155943" lon="101.963952">
<time>2016-10-07T02:36:10Z</time></trkpt>
<trkpt lat="25.156084" lon="101.963304">
<time>2016-10-07T02:36:11Z</time></trkpt>
<trkpt lat="25.156145" lon="101.962934">
<time>2016-10-07T02:36:12Z</time></trkpt>
<trkpt lat="25.156155" lon="101.962785">
<time>2016-10-07T02:36:13Z</time></trkpt>
<trkpt lat="25.156156" lon="101.962645">
<time>2016-10-07T02:36:14Z</time></trkpt>
<trkpt lat="25.156146" lon="101.962525">
<time>2016-10-07T02:36:15Z</time></trkpt>
<trkpt lat="25.156127" lon="101.962376">
<time>2016-10-07T02:36:16Z</time></trkpt>
<trkpt lat="25.155978" lon="101.961867">
<time>2016-10-07T02:36:17Z</time></trkpt>
<trkpt lat="25.155749" lon="101.961279">
<time>2016-10-07T02:36:18Z</time></trkpt>
<trkpt lat="25.15568" lon="101.960949">
<time>2016-10-07T02:36:19Z</time></trkpt>
<trkpt lat="25.155661" lon="101.96076">
<time>2016-10-07T02:36:20Z</time></trkpt>
<trkpt lat="25.155671" lon="101.96058">
<time>2016-10-07T02:36:21Z</time></trkpt>
<trkpt lat="25.155731" lon="101.960391">
<time>2016-10-07T02:36:22Z</time></trkpt>
<trkpt lat="25.155782" lon="101.960251">
<time>2016-10-07T02:36:23Z</time></trkpt>
<trkpt lat="25.155832" lon="101.960151">
<time>2016-10-07T02:36:24Z</time></trkpt>
<trkpt lat="25.155882" lon="101.960071">
<time>2016-10-07T02:36:25Z</time></trkpt>
<trkpt lat="25.155962" lon="101.960002">
<time>2016-10-07T02:36:26Z</time></trkpt>
<trkpt lat="25.156063" lon="101.959912">
<time>2016-10-07T02:36:27Z</time></trkpt>
<trkpt lat="25.156173" lon="101.959832">
<time>2016-10-07T02:36:28Z</time></trkpt>
<trkpt lat="25.156323" lon="101.959752">
<time>2016-10-07T02:36:29Z</time></trkpt>
<trkpt lat="25.156513" lon="101.959672">
<time>2016-10-07T02:36:30Z</time></trkpt>
<trkpt lat="25.156743" lon="101.959592">
<time>2016-10-07T02:36:31Z</time></trkpt>
<trkpt lat="25.157053" lon="101.959533">
<time>2016-10-07T02:36:32Z</time></trkpt>
<trkpt lat="25.157404" lon="101.959503">
<time>2016-10-07T02:36:33Z</time></trkpt>
<trkpt lat="25.158374" lon="101.959453">
<time>2016-10-07T02:36:34Z</time></trkpt>
<trkpt lat="25.158564" lon="101.959453">
<time>2016-10-07T02:36:35Z</time></trkpt>
<trkpt lat="25.158724" lon="101.959453">
<time>2016-10-07T02:36:36Z</time></trkpt>
<trkpt lat="25.158914" lon="101.959443">
<time>2016-10-07T02:36:37Z</time></trkpt>
<trkpt lat="25.159044" lon="101.959423">
<time>2016-10-07T02:36:38Z</time></trkpt>
<trkpt lat="25.159164" lon="101.959393">
<time>2016-10-07T02:36:39Z</time></trkpt>
<trkpt lat="25.159284" lon="101.959343">
<time>2016-10-07T02:36:40Z</time></trkpt>
<trkpt lat="25.159424" lon="101.959243">
<time>2016-10-07T02:36:41Z</time></trkpt>
<trkpt lat="25.159564" lon="101.959114">
<time>2016-10-07T02:36:42Z</time></trkpt>
<trkpt lat="25.159885" lon="101.958704">
<time>2016-10-07T02:36:43Z</time></trkpt>
<trkpt lat="25.160216" lon="101.958345">
<time>2016-10-07T02:36:44Z</time></trkpt>
<trkpt lat="25.160467" lon="101.958016">
<time>2016-10-07T02:36:45Z</time></trkpt>
<trkpt lat="25.160708" lon="101.957717">
<time>2016-10-07T02:36:46Z</time></trkpt>
<trkpt lat="25.160998" lon="101.957457">
<time>2016-10-07T02:36:47Z</time></trkpt>
<trkpt lat="25.161319" lon="101.957218">
<time>2016-10-07T02:36:48Z</time></trkpt>
<trkpt lat="25.161629" lon="101.956998">
<time>2016-10-07T02:36:49Z</time></trkpt>
<trkpt lat="25.16186" lon="101.956809">
<time>2016-10-07T02:36:50Z</time></trkpt>
<trkpt lat="25.16205" lon="101.956599">
<time>2016-10-07T02:36:51Z</time></trkpt>
<trkpt lat="25.162281" lon="101.95625">
<time>2016-10-07T02:36:52Z</time></trkpt>
<trkpt lat="25.162502" lon="101.955881">
<time>2016-10-07T02:36:53Z</time></trkpt>
<trkpt lat="25.162763" lon="101.955482">
<time>2016-10-07T02:36:54Z</time></trkpt>
<trkpt lat="25.162923" lon="101.955222">
<time>2016-10-07T02:36:55Z</time></trkpt>
<trkpt lat="25.163194" lon="101.954753">
<time>2016-10-07T02:36:56Z</time></trkpt>
<trkpt lat="25.163255" lon="101.954633">
<time>2016-10-07T02:36:57Z</time></trkpt>
<trkpt lat="25.163355" lon="101.954434">
<time>2016-10-07T02:36:58Z</time></trkpt>
<trkpt lat="25.163546" lon="101.953995">
<time>2016-10-07T02:36:59Z</time></trkpt>
<trkpt lat="25.163657" lon="101.953765">
<time>2016-10-07T02:37:00Z</time></trkpt>
<trkpt lat="25.163767" lon="101.953556">
<time>2016-10-07T02:37:01Z</time></trkpt>
<trkpt lat="25.163807" lon="101.953446">
<time>2016-10-07T02:37:02Z</time></trkpt>
<trkpt lat="25.163858" lon="101.953296">
<time>2016-10-07T02:37:03Z</time></trkpt>
<trkpt lat="25.163898" lon="101.953127">
<time>2016-10-07T02:37:04Z</time></trkpt>
<trkpt lat="25.163908" lon="101.952957">
<time>2016-10-07T02:37:05Z</time></trkpt>
<trkpt lat="25.163909" lon="101.952817">
<time>2016-10-07T02:37:06Z</time></trkpt>
<trkpt lat="25.163889" lon="101.952668">
<time>2016-10-07T02:37:07Z</time></trkpt>
<trkpt lat="25.163869" lon="101.952518">
<time>2016-10-07T02:37:08Z</time></trkpt>
<trkpt lat="25.16383" lon="101.952378">
<time>2016-10-07T02:37:09Z</time></trkpt>
<trkpt lat="25.16377" lon="101.952219">
<time>2016-10-07T02:37:10Z</time></trkpt>
<trkpt lat="25.16372" lon="101.952079">
<time>2016-10-07T02:37:11Z</time></trkpt>
<trkpt lat="25.163631" lon="101.951859">
<time>2016-10-07T02:37:12Z</time></trkpt>
<trkpt lat="25.163591" lon="101.95171">
<time>2016-10-07T02:37:13Z</time></trkpt>
<trkpt lat="25.163551" lon="101.95156">
<time>2016-10-07T02:37:14Z</time></trkpt>
<trkpt lat="25.163532" lon="101.95142">
<time>2016-10-07T02:37:15Z</time></trkpt>
<trkpt lat="25.163522" lon="101.951311">
<time>2016-10-07T02:37:16Z</time></trkpt>
<trkpt lat="25.163512" lon="101.951161">
<time>2016-10-07T02:37:17Z</time></trkpt>
<trkpt lat="25.163513" lon="101.951011">
<time>2016-10-07T02:37:18Z</time></trkpt>
<trkpt lat="25.163523" lon="101.950861">
<time>2016-10-07T02:37:19Z</time></trkpt>
<trkpt lat="25.163543" lon="101.950722">
<time>2016-10-07T02:37:20Z</time></trkpt>
<trkpt lat="25.163594" lon="101.950512">
<time>2016-10-07T02:37:21Z</time></trkpt>
<trkpt lat="25.163654" lon="101.950283">
<time>2016-10-07T02:37:22Z</time></trkpt>
<trkpt lat="25.163725" lon="101.950063">
<time>2016-10-07T02:37:23Z</time></trkpt>
<trkpt lat="25.163785" lon="101.949903">
<time>2016-10-07T02:37:24Z</time></trkpt>
<trkpt lat="25.163885" lon="101.949714">
<time>2016-10-07T02:37:25Z</time></trkpt>
<trkpt lat="25.163976" lon="101.949574">
<time>2016-10-07T02:37:26Z</time></trkpt>
<trkpt lat="25.164146" lon="101.949334">
<time>2016-10-07T02:37:27Z</time></trkpt>
<trkpt lat="25.164327" lon="101.949075">
<time>2016-10-07T02:37:28Z</time></trkpt>
<trkpt lat="25.164497" lon="101.948845">
<time>2016-10-07T02:37:29Z</time></trkpt>
<trkpt lat="25.164728" lon="101.948536">
<time>2016-10-07T02:37:30Z</time></trkpt>
<trkpt lat="25.164848" lon="101.948366">
<time>2016-10-07T02:37:31Z</time></trkpt>
<trkpt lat="25.164908" lon="101.948267">
<time>2016-10-07T02:37:32Z</time></trkpt>
<trkpt lat="25.164979" lon="101.948127">
<time>2016-10-07T02:37:33Z</time></trkpt>
<trkpt lat="25.165029" lon="101.947997">
<time>2016-10-07T02:37:34Z</time></trkpt>
<trkpt lat="25.16514" lon="101.947638">
<time>2016-10-07T02:37:35Z</time></trkpt>
<trkpt lat="25.1652" lon="101.947428">
<time>2016-10-07T02:37:36Z</time></trkpt>
<trkpt lat="25.165321" lon="101.947059">
<time>2016-10-07T02:37:37Z</time></trkpt>
<trkpt lat="25.165381" lon="101.946829">
<time>2016-10-07T02:37:38Z</time></trkpt>
<trkpt lat="25.165391" lon="101.946779">
<time>2016-10-07T02:37:39Z</time></trkpt>
<trkpt lat="25.165401" lon="101.946729">
<time>2016-10-07T02:37:40Z</time></trkpt>
<trkpt lat="25.165402" lon="101.946689">
<time>2016-10-07T02:37:41Z</time></trkpt>
<trkpt lat="25.165402" lon="101.94662">
<time>2016-10-07T02:37:42Z</time></trkpt>
<trkpt lat="25.165392" lon="101.94654">
<time>2016-10-07T02:37:43Z</time></trkpt>
<trkpt lat="25.165382" lon="101.94648">
<time>2016-10-07T02:37:44Z</time></trkpt>
<trkpt lat="25.165342" lon="101.9464">
<time>2016-10-07T02:37:45Z</time></trkpt>
<trkpt lat="25.165312" lon="101.94635">
<time>2016-10-07T02:37:46Z</time></trkpt>
<trkpt lat="25.165252" lon="101.9463">
<time>2016-10-07T02:37:47Z</time></trkpt>
<trkpt lat="25.165212" lon="101.94626">
<time>2016-10-07T02:37:48Z</time></trkpt>
<trkpt lat="25.165142" lon="101.94622">
<time>2016-10-07T02:37:49Z</time></trkpt>
<trkpt lat="25.164923" lon="101.946131">
<time>2016-10-07T02:37:50Z</time></trkpt>
<trkpt lat="25.164733" lon="101.946061">
<time>2016-10-07T02:37:51Z</time></trkpt>
<trkpt lat="25.164653" lon="101.946031">
<time>2016-10-07T02:37:52Z</time></trkpt>
<trkpt lat="25.164573" lon="101.946001">
<time>2016-10-07T02:37:53Z</time></trkpt>
<trkpt lat="25.164503" lon="101.945961">
<time>2016-10-07T02:37:54Z</time></trkpt>
<trkpt lat="25.164453" lon="101.945921">
<time>2016-10-07T02:37:55Z</time></trkpt>
<trkpt lat="25.164393" lon="101.945881">
<time>2016-10-07T02:37:56Z</time></trkpt>
<trkpt lat="25.164343" lon="101.945821">
<time>2016-10-07T02:37:57Z</time></trkpt>
<trkpt lat="25.164254" lon="101.945711">
<time>2016-10-07T02:37:58Z</time></trkpt>
<trkpt lat="25.164144" lon="101.945592">
<time>2016-10-07T02:37:59Z</time></trkpt>
<trkpt lat="25.164054" lon="101.945512">
<time>2016-10-07T02:38:00Z</time></trkpt>
<trkpt lat="25.163994" lon="101.945472">
<time>2016-10-07T02:38:01Z</time></trkpt>
<trkpt lat="25.163924" lon="101.945442">
<time>2016-10-07T02:38:02Z</time></trkpt>
<trkpt lat="25.163854" lon="101.945412">
<time>2016-10-07T02:38:03Z</time></trkpt>
<trkpt lat="25.163764" lon="101.945382">
<time>2016-10-07T02:38:04Z</time></trkpt>
<trkpt lat="25.163634" lon="101.945342">
<time>2016-10-07T02:38:05Z</time></trkpt>
<trkpt lat="25.163444" lon="101.945282">
<time>2016-10-07T02:38:06Z</time></trkpt>
<trkpt lat="25.163294" lon="101.945242">
<time>2016-10-07T02:38:07Z</time></trkpt>
<trkpt lat="25.163195" lon="101.945202">
<time>2016-10-07T02:38:08Z</time></trkpt>
<trkpt lat="25.163105" lon="101.945162">
<time>2016-10-07T02:38:09Z</time></trkpt>
<trkpt lat="25.163075" lon="101.945142">
<time>2016-10-07T02:38:10Z</time></trkpt>
<trkpt lat="25.163015" lon="101.945112">
<time>2016-10-07T02:38:11Z</time></trkpt>
<trkpt lat="25.162965" lon="101.945063">
<time>2016-10-07T02:38:12Z</time></trkpt>
<trkpt lat="25.162915" lon="101.945023">
<time>2016-10-07T02:38:13Z</time></trkpt>
<trkpt lat="25.162885" lon="101.944963">
<time>2016-10-07T02:38:14Z</time></trkpt>
<trkpt lat="25.162845" lon="101.944903">
<time>2016-10-07T02:38:15Z</time></trkpt>
<trkpt lat="25.162805" lon="101.944803">
<time>2016-10-07T02:38:16Z</time></trkpt>
<trkpt lat="25.162776" lon="101.944673">
<time>2016-10-07T02:38:17Z</time></trkpt>
<trkpt lat="25.162756" lon="101.944533">
<time>2016-10-07T02:38:18Z</time></trkpt>
<trkpt lat="25.162726" lon="101.944374">
<time>2016-10-07T02:38:19Z</time></trkpt>
<trkpt lat="25.162697" lon="101.944194">
<time>2016-10-07T02:38:20Z</time></trkpt>
<trkpt lat="25.162667" lon="101.943994">
<time>2016-10-07T02:38:21Z</time></trkpt>
<trkpt lat="25.162617" lon="101.943785">
<time>2016-10-07T02:38:22Z</time></trkpt>
<trkpt lat="25.162568" lon="101.943585">
<time>2016-10-07T02:38:23Z</time></trkpt>
<trkpt lat="25.162568" lon="101.943585">
<time>2016-10-07T02:38:24Z</time></trkpt>
<trkpt lat="25.162658" lon="101.943555">
<time>2016-10-07T02:38:25Z</time></trkpt>
<trkpt lat="25.162658" lon="101.943555">
<time>2016-10-07T02:38:26Z</time></trkpt>
<trkpt lat="25.162638" lon="101.943495">
<time>2016-10-07T02:38:27Z</time></trkpt>
<trkpt lat="25.162578" lon="101.943286">
<time>2016-10-07T02:38:28Z</time></trkpt>
<trkpt lat="25.162519" lon="101.943106">
<time>2016-10-07T02:38:29Z</time></trkpt>
<trkpt lat="25.162459" lon="101.942956">
<time>2016-10-07T02:38:30Z</time></trkpt>
<trkpt lat="25.162369" lon="101.942767">
<time>2016-10-07T02:38:31Z</time></trkpt>
<trkpt lat="25.16218" lon="101.942377">
<time>2016-10-07T02:38:32Z</time></trkpt>
<trkpt lat="25.162021" lon="101.942038">
<time>2016-10-07T02:38:33Z</time></trkpt>
<trkpt lat="25.161881" lon="101.941738">
<time>2016-10-07T02:38:34Z</time></trkpt>
<trkpt lat="25.161762" lon="101.941459">
<time>2016-10-07T02:38:35Z</time></trkpt>
<trkpt lat="25.161692" lon="101.941249">
<time>2016-10-07T02:38:36Z</time></trkpt>
<trkpt lat="25.161632" lon="101.941049">
<time>2016-10-07T02:38:37Z</time></trkpt>
<trkpt lat="25.161613" lon="101.94086">
<time>2016-10-07T02:38:38Z</time></trkpt>
<trkpt lat="25.161603" lon="101.94059">
<time>2016-10-07T02:38:39Z</time></trkpt>
<trkpt lat="25.161634" lon="101.940271">
<time>2016-10-07T02:38:40Z</time></trkpt>
<trkpt lat="25.161674" lon="101.939871">
<time>2016-10-07T02:38:41Z</time></trkpt>
<trkpt lat="25.161715" lon="101.939552">
<time>2016-10-07T02:38:42Z</time></trkpt>
<trkpt lat="25.161755" lon="101.939342">
<time>2016-10-07T02:38:43Z</time></trkpt>
<trkpt lat="25.161786" lon="101.939152">
<time>2016-10-07T02:38:44Z</time></trkpt>
<trkpt lat="25.161826" lon="101.938983">
<time>2016-10-07T02:38:45Z</time></trkpt>
<trkpt lat="25.161856" lon="101.938863">
<time>2016-10-07T02:38:46Z</time></trkpt>
<trkpt lat="25.161896" lon="101.938743">
<time>2016-10-07T02:38:47Z</time></trkpt>
<trkpt lat="25.161957" lon="101.938593">
<time>2016-10-07T02:38:48Z</time></trkpt>
<trkpt lat="25.162027" lon="101.938434">
<time>2016-10-07T02:38:49Z</time></trkpt>
<trkpt lat="25.162117" lon="101.938284">
<time>2016-10-07T02:38:50Z</time></trkpt>
<trkpt lat="25.162187" lon="101.938214">
<time>2016-10-07T02:38:51Z</time></trkpt>
<trkpt lat="25.162247" lon="101.938164">
<time>2016-10-07T02:38:52Z</time></trkpt>
<trkpt lat="25.162307" lon="101.938124">
<time>2016-10-07T02:38:53Z</time></trkpt>
<trkpt lat="25.162397" lon="101.938084">
<time>2016-10-07T02:38:54Z</time></trkpt>
<trkpt lat="25.162527" lon="101.938064">
<time>2016-10-07T02:38:55Z</time></trkpt>
<trkpt lat="25.162617" lon="101.938054">
<time>2016-10-07T02:38:56Z</time></trkpt>
<trkpt lat="25.162727" lon="101.938074">
<time>2016-10-07T02:38:57Z</time></trkpt>
<trkpt lat="25.162827" lon="101.938114">
<time>2016-10-07T02:38:58Z</time></trkpt>
<trkpt lat="25.162927" lon="101.938164">
<time>2016-10-07T02:38:59Z</time></trkpt>
<trkpt lat="25.163027" lon="101.938224">
<time>2016-10-07T02:39:00Z</time></trkpt>
<trkpt lat="25.163117" lon="101.938294">
<time>2016-10-07T02:39:01Z</time></trkpt>
<trkpt lat="25.163327" lon="101.938453">
<time>2016-10-07T02:39:02Z</time></trkpt>
<trkpt lat="25.163806" lon="101.938823">
<time>2016-10-07T02:39:03Z</time></trkpt>
<trkpt lat="25.164066" lon="101.939033">
<time>2016-10-07T02:39:04Z</time></trkpt>
<trkpt lat="25.164176" lon="101.939102">
<time>2016-10-07T02:39:05Z</time></trkpt>
<trkpt lat="25.164246" lon="101.939142">
<time>2016-10-07T02:39:06Z</time></trkpt>
<trkpt lat="25.164325" lon="101.939182">
<time>2016-10-07T02:39:07Z</time></trkpt>
<trkpt lat="25.164405" lon="101.939212">
<time>2016-10-07T02:39:08Z</time></trkpt>
<trkpt lat="25.164495" lon="101.939232">
<time>2016-10-07T02:39:09Z</time></trkpt>
<trkpt lat="25.164635" lon="101.939242">
<time>2016-10-07T02:39:10Z</time></trkpt>
<trkpt lat="25.164805" lon="101.939252">
<time>2016-10-07T02:39:11Z</time></trkpt>
<trkpt lat="25.164975" lon="101.939252">
<time>2016-10-07T02:39:12Z</time></trkpt>
<trkpt lat="25.165125" lon="101.939232">
<time>2016-10-07T02:39:13Z</time></trkpt>
<trkpt lat="25.165275" lon="101.939192">
<time>2016-10-07T02:39:14Z</time></trkpt>
<trkpt lat="25.165416" lon="101.939112">
<time>2016-10-07T02:39:15Z</time></trkpt>
<trkpt lat="25.165526" lon="101.939023">
<time>2016-10-07T02:39:16Z</time></trkpt>
<trkpt lat="25.165636" lon="101.938913">
<time>2016-10-07T02:39:17Z</time></trkpt>
<trkpt lat="25.165696" lon="101.938793">
<time>2016-10-07T02:39:18Z</time></trkpt>
<trkpt lat="25.165766" lon="101.938633">
<time>2016-10-07T02:39:19Z</time></trkpt>
<trkpt lat="25.165797" lon="101.938453">
<time>2016-10-07T02:39:20Z</time></trkpt>
<trkpt lat="25.165807" lon="101.938244">
<time>2016-10-07T02:39:21Z</time></trkpt>
<trkpt lat="25.165787" lon="101.938034">
<time>2016-10-07T02:39:22Z</time></trkpt>
<trkpt lat="25.165748" lon="101.937854">
<time>2016-10-07T02:39:23Z</time></trkpt>
<trkpt lat="25.165698" lon="101.937705">
<time>2016-10-07T02:39:24Z</time></trkpt>
<trkpt lat="25.165638" lon="101.937575">
<time>2016-10-07T02:39:25Z</time></trkpt>
<trkpt lat="25.165548" lon="101.937425">
<time>2016-10-07T02:39:26Z</time></trkpt>
<trkpt lat="25.165379" lon="101.937185">
<time>2016-10-07T02:39:27Z</time></trkpt>
<trkpt lat="25.165089" lon="101.936806">
<time>2016-10-07T02:39:28Z</time></trkpt>
<trkpt lat="25.16487" lon="101.936496">
<time>2016-10-07T02:39:29Z</time></trkpt>
<trkpt lat="25.16478" lon="101.936347">
<time>2016-10-07T02:39:30Z</time></trkpt>
<trkpt lat="25.16472" lon="101.936197">
<time>2016-10-07T02:39:31Z</time></trkpt>
<trkpt lat="25.164671" lon="101.935977">
<time>2016-10-07T02:39:32Z</time></trkpt>
<trkpt lat="25.164641" lon="101.935797">
<time>2016-10-07T02:39:33Z</time></trkpt>
<trkpt lat="25.164572" lon="101.935358">
<time>2016-10-07T02:39:34Z</time></trkpt>
<trkpt lat="25.164512" lon="101.935108">
<time>2016-10-07T02:39:35Z</time></trkpt>
<trkpt lat="25.164432" lon="101.934929">
<time>2016-10-07T02:39:36Z</time></trkpt>
<trkpt lat="25.164323" lon="101.934779">
<time>2016-10-07T02:39:37Z</time></trkpt>
<trkpt lat="25.164123" lon="101.934559">
<time>2016-10-07T02:39:38Z</time></trkpt>
<trkpt lat="25.163913" lon="101.934289">
<time>2016-10-07T02:39:39Z</time></trkpt>
<trkpt lat="25.163843" lon="101.93418">
<time>2016-10-07T02:39:40Z</time></trkpt>
<trkpt lat="25.163804" lon="101.9341">
<time>2016-10-07T02:39:41Z</time></trkpt>
<trkpt lat="25.163764" lon="101.93401">
<time>2016-10-07T02:39:42Z</time></trkpt>
<trkpt lat="25.163744" lon="101.93394">
<time>2016-10-07T02:39:43Z</time></trkpt>
<trkpt lat="25.163734" lon="101.93383">
<time>2016-10-07T02:39:44Z</time></trkpt>
<trkpt lat="25.163724" lon="101.93374">
<time>2016-10-07T02:39:45Z</time></trkpt>
<trkpt lat="25.163724" lon="101.93364">
<time>2016-10-07T02:39:46Z</time></trkpt>
<trkpt lat="25.163734" lon="101.93357">
<time>2016-10-07T02:39:47Z</time></trkpt>
<trkpt lat="25.163744" lon="101.93351">
<time>2016-10-07T02:39:48Z</time></trkpt>
<trkpt lat="25.163765" lon="101.93344">
<time>2016-10-07T02:39:49Z</time></trkpt>
<trkpt lat="25.163775" lon="101.933371">
<time>2016-10-07T02:39:50Z</time></trkpt>
<trkpt lat="25.163795" lon="101.933311">
<time>2016-10-07T02:39:51Z</time></trkpt>
<trkpt lat="25.163825" lon="101.933241">
<time>2016-10-07T02:39:52Z</time></trkpt>
<trkpt lat="25.163845" lon="101.933191">
<time>2016-10-07T02:39:53Z</time></trkpt>
<trkpt lat="25.163895" lon="101.933111">
<time>2016-10-07T02:39:54Z</time></trkpt>
<trkpt lat="25.163935" lon="101.933041">
<time>2016-10-07T02:39:55Z</time></trkpt>
<trkpt lat="25.163995" lon="101.932971">
<time>2016-10-07T02:39:56Z</time></trkpt>
<trkpt lat="25.164055" lon="101.932901">
<time>2016-10-07T02:39:57Z</time></trkpt>
<trkpt lat="25.164115" lon="101.932851">
<time>2016-10-07T02:39:58Z</time></trkpt>
<trkpt lat="25.164175" lon="101.932801">
<time>2016-10-07T02:39:59Z</time></trkpt>
<trkpt lat="25.164226" lon="101.932771">
<time>2016-10-07T02:40:00Z</time></trkpt>
<trkpt lat="25.164306" lon="101.932731">
<time>2016-10-07T02:40:01Z</time></trkpt>
<trkpt lat="25.164366" lon="101.932701">
<time>2016-10-07T02:40:02Z</time></trkpt>
<trkpt lat="25.164436" lon="101.932671">
<time>2016-10-07T02:40:03Z</time></trkpt>
<trkpt lat="25.164526" lon="101.932651">
<time>2016-10-07T02:40:04Z</time></trkpt>
<trkpt lat="25.164606" lon="101.932641">
<time>2016-10-07T02:40:05Z</time></trkpt>
<trkpt lat="25.164686" lon="101.932622">
<time>2016-10-07T02:40:06Z</time></trkpt>
<trkpt lat="25.164796" lon="101.932612">
<time>2016-10-07T02:40:07Z</time></trkpt>
<trkpt lat="25.165016" lon="101.932592">
<time>2016-10-07T02:40:08Z</time></trkpt>
<trkpt lat="25.165306" lon="101.932562">
<time>2016-10-07T02:40:09Z</time></trkpt>
<trkpt lat="25.165616" lon="101.932522">
<time>2016-10-07T02:40:10Z</time></trkpt>
<trkpt lat="25.165716" lon="101.932502">
<time>2016-10-07T02:40:11Z</time></trkpt>
<trkpt lat="25.165816" lon="101.932472">
<time>2016-10-07T02:40:12Z</time></trkpt>
<trkpt lat="25.165876" lon="101.932452">
<time>2016-10-07T02:40:13Z</time></trkpt>
<trkpt lat="25.165936" lon="101.932432">
<time>2016-10-07T02:40:14Z</time></trkpt>
<trkpt lat="25.166006" lon="101.932402">
<time>2016-10-07T02:40:15Z</time></trkpt>
<trkpt lat="25.166056" lon="101.932372">
<time>2016-10-07T02:40:16Z</time></trkpt>
<trkpt lat="25.166106" lon="101.932342">
<time>2016-10-07T02:40:17Z</time></trkpt>
<trkpt lat="25.166146" lon="101.932312">
<time>2016-10-07T02:40:18Z</time></trkpt>
<trkpt lat="25.166166" lon="101.932302">
<time>2016-10-07T02:40:19Z</time></trkpt>
<trkpt lat="25.166216" lon="101.932262">
<time>2016-10-07T02:40:20Z</time></trkpt>
<trkpt lat="25.166286" lon="101.932192">
<time>2016-10-07T02:40:21Z</time></trkpt>
<trkpt lat="25.166356" lon="101.932112">
<time>2016-10-07T02:40:22Z</time></trkpt>
<trkpt lat="25.166386" lon="101.932082">
<time>2016-10-07T02:40:23Z</time></trkpt>
<trkpt lat="25.166396" lon="101.932072">
<time>2016-10-07T02:40:24Z</time></trkpt>
<trkpt lat="25.166437" lon="101.932012">
<time>2016-10-07T02:40:25Z</time></trkpt>
<trkpt lat="25.166477" lon="101.931952">
<time>2016-10-07T02:40:26Z</time></trkpt>
<trkpt lat="25.166507" lon="101.931902">
<time>2016-10-07T02:40:27Z</time></trkpt>
<trkpt lat="25.166547" lon="101.931822">
<time>2016-10-07T02:40:28Z</time></trkpt>
<trkpt lat="25.166587" lon="101.931733">
<time>2016-10-07T02:40:29Z</time></trkpt>
<trkpt lat="25.166617" lon="101.931633">
<time>2016-10-07T02:40:30Z</time></trkpt>
<trkpt lat="25.166637" lon="101.931543">
<time>2016-10-07T02:40:31Z</time></trkpt>
<trkpt lat="25.166657" lon="101.931483">
<time>2016-10-07T02:40:32Z</time></trkpt>
<trkpt lat="25.166667" lon="101.931413">
<time>2016-10-07T02:40:33Z</time></trkpt>
<trkpt lat="25.166677" lon="101.931363">
<time>2016-10-07T02:40:34Z</time></trkpt>
<trkpt lat="25.166687" lon="101.931323">
<time>2016-10-07T02:40:35Z</time></trkpt>
<trkpt lat="25.166698" lon="101.931253">
<time>2016-10-07T02:40:36Z</time></trkpt>
<trkpt lat="25.166698" lon="101.931213">
<time>2016-10-07T02:40:37Z</time></trkpt>
<trkpt lat="25.166698" lon="101.931183">
<time>2016-10-07T02:40:38Z</time></trkpt>
<trkpt lat="25.166708" lon="101.931133">
<time>2016-10-07T02:40:39Z</time></trkpt>
<trkpt lat="25.166698" lon="101.931093">
<time>2016-10-07T02:40:40Z</time></trkpt>
<trkpt lat="25.166698" lon="101.931043">
<time>2016-10-07T02:40:41Z</time></trkpt>
<trkpt lat="25.166698" lon="101.931003">
<time>2016-10-07T02:40:42Z</time></trkpt>
<trkpt lat="25.166698" lon="101.930973">
<time>2016-10-07T02:40:43Z</time></trkpt>
<trkpt lat="25.166688" lon="101.930924">
<time>2016-10-07T02:40:44Z</time></trkpt>
<trkpt lat="25.166678" lon="101.930894">
<time>2016-10-07T02:40:45Z</time></trkpt>
<trkpt lat="25.166678" lon="101.930884">
<time>2016-10-07T02:40:46Z</time></trkpt>
<trkpt lat="25.166648" lon="101.930764">
<time>2016-10-07T02:40:47Z</time></trkpt>
<trkpt lat="25.166628" lon="101.930664">
<time>2016-10-07T02:40:48Z</time></trkpt>
<trkpt lat="25.166608" lon="101.930624">
<time>2016-10-07T02:40:49Z</time></trkpt>
<trkpt lat="25.166588" lon="101.930574">
<time>2016-10-07T02:40:50Z</time></trkpt>
<trkpt lat="25.166549" lon="101.930504">
<time>2016-10-07T02:40:51Z</time></trkpt>
<trkpt lat="25.166509" lon="101.930434">
<time>2016-10-07T02:40:52Z</time></trkpt>
<trkpt lat="25.166449" lon="101.930354">
<time>2016-10-07T02:40:53Z</time></trkpt>
<trkpt lat="25.166349" lon="101.930254">
<time>2016-10-07T02:40:54Z</time></trkpt>
<trkpt lat="25.166279" lon="101.930194">
<time>2016-10-07T02:40:55Z</time></trkpt>
<trkpt lat="25.166159" lon="101.930104">
<time>2016-10-07T02:40:56Z</time></trkpt>
<trkpt lat="25.165899" lon="101.929925">
<time>2016-10-07T02:40:57Z</time></trkpt>
<trkpt lat="25.16547" lon="101.929625">
<time>2016-10-07T02:40:58Z</time></trkpt>
<trkpt lat="25.16517" lon="101.929415">
<time>2016-10-07T02:40:59Z</time></trkpt>
<trkpt lat="25.164581" lon="101.929006">
<time>2016-10-07T02:41:00Z</time></trkpt>
<trkpt lat="25.164201" lon="101.928686">
<time>2016-10-07T02:41:01Z</time></trkpt>
<trkpt lat="25.163971" lon="101.928476">
<time>2016-10-07T02:41:02Z</time></trkpt>
<trkpt lat="25.163632" lon="101.928107">
<time>2016-10-07T02:41:03Z</time></trkpt>
<trkpt lat="25.163242" lon="101.927657">
<time>2016-10-07T02:41:04Z</time></trkpt>
<trkpt lat="25.162613" lon="101.926968">
<time>2016-10-07T02:41:05Z</time></trkpt>
<trkpt lat="25.162224" lon="101.926528">
<time>2016-10-07T02:41:06Z</time></trkpt>
<trkpt lat="25.161834" lon="101.926099">
<time>2016-10-07T02:41:07Z</time></trkpt>
<trkpt lat="25.161625" lon="101.925839">
<time>2016-10-07T02:41:08Z</time></trkpt>
<trkpt lat="25.161455" lon="101.925609">
<time>2016-10-07T02:41:09Z</time></trkpt>
<trkpt lat="25.161295" lon="101.925379">
<time>2016-10-07T02:41:10Z</time></trkpt>
<trkpt lat="25.161066" lon="101.92499">
<time>2016-10-07T02:41:11Z</time></trkpt>
<trkpt lat="25.160936" lon="101.92478">
<time>2016-10-07T02:41:12Z</time></trkpt>
<trkpt lat="25.160776" lon="101.92453">
<time>2016-10-07T02:41:13Z</time></trkpt>
<trkpt lat="25.160736" lon="101.92444">
<time>2016-10-07T02:41:14Z</time></trkpt>
<trkpt lat="25.160716" lon="101.92439">
<time>2016-10-07T02:41:15Z</time></trkpt>
<trkpt lat="25.160666" lon="101.92426">
<time>2016-10-07T02:41:16Z</time></trkpt>
<trkpt lat="25.160637" lon="101.924111">
<time>2016-10-07T02:41:17Z</time></trkpt>
<trkpt lat="25.160627" lon="101.923981">
<time>2016-10-07T02:41:18Z</time></trkpt>
<trkpt lat="25.160627" lon="101.923871">
<time>2016-10-07T02:41:19Z</time></trkpt>
<trkpt lat="25.160627" lon="101.923781">
<time>2016-10-07T02:41:20Z</time></trkpt>
<trkpt lat="25.160637" lon="101.923721">
<time>2016-10-07T02:41:21Z</time></trkpt>
<trkpt lat="25.160667" lon="101.923621">
<time>2016-10-07T02:41:22Z</time></trkpt>
<trkpt lat="25.160697" lon="101.923531">
<time>2016-10-07T02:41:23Z</time></trkpt>
<trkpt lat="25.160737" lon="101.923431">
<time>2016-10-07T02:41:24Z</time></trkpt>
<trkpt lat="25.160787" lon="101.923341">
<time>2016-10-07T02:41:25Z</time></trkpt>
<trkpt lat="25.160857" lon="101.923241">
<time>2016-10-07T02:41:26Z</time></trkpt>
<trkpt lat="25.160938" lon="101.923141">
<time>2016-10-07T02:41:27Z</time></trkpt>
<trkpt lat="25.161018" lon="101.923051">
<time>2016-10-07T02:41:28Z</time></trkpt>
<trkpt lat="25.161108" lon="101.922991">
<time>2016-10-07T02:41:29Z</time></trkpt>
<trkpt lat="25.161188" lon="101.922941">
<time>2016-10-07T02:41:30Z</time></trkpt>
<trkpt lat="25.161268" lon="101.922901">
<time>2016-10-07T02:41:31Z</time></trkpt>
<trkpt lat="25.161278" lon="101.922901">
<time>2016-10-07T02:41:32Z</time></trkpt>
<trkpt lat="25.161338" lon="101.922882">
<time>2016-10-07T02:41:33Z</time></trkpt>
<trkpt lat="25.161438" lon="101.922852">
<time>2016-10-07T02:41:34Z</time></trkpt>
<trkpt lat="25.161528" lon="101.922842">
<time>2016-10-07T02:41:35Z</time></trkpt>
<trkpt lat="25.161658" lon="101.922842">
<time>2016-10-07T02:41:36Z</time></trkpt>
<trkpt lat="25.161938" lon="101.922852">
<time>2016-10-07T02:41:37Z</time></trkpt>
<trkpt lat="25.162208" lon="101.922871">
<time>2016-10-07T02:41:38Z</time></trkpt>
<trkpt lat="25.162408" lon="101.922881">
<time>2016-10-07T02:41:39Z</time></trkpt>
<trkpt lat="25.162538" lon="101.922881">
<time>2016-10-07T02:41:40Z</time></trkpt>
<trkpt lat="25.162658" lon="101.922861">
<time>2016-10-07T02:41:41Z</time></trkpt>
<trkpt lat="25.162738" lon="101.922842">
<time>2016-10-07T02:41:42Z</time></trkpt>
<trkpt lat="25.162838" lon="101.922802">
<time>2016-10-07T02:41:43Z</time></trkpt>
<trkpt lat="25.162908" lon="101.922732">
<time>2016-10-07T02:41:44Z</time></trkpt>
<trkpt lat="25.162978" lon="101.922662">
<time>2016-10-07T02:41:45Z</time></trkpt>
<trkpt lat="25.163038" lon="101.922592">
<time>2016-10-07T02:41:46Z</time></trkpt>
<trkpt lat="25.163088" lon="101.922532">
<time>2016-10-07T02:41:47Z</time></trkpt>
<trkpt lat="25.163148" lon="101.922442">
<time>2016-10-07T02:41:48Z</time></trkpt>
<trkpt lat="25.163178" lon="101.922402">
<time>2016-10-07T02:41:49Z</time></trkpt>
<trkpt lat="25.163208" lon="101.922352">
<time>2016-10-07T02:41:50Z</time></trkpt>
<trkpt lat="25.163238" lon="101.922292">
<time>2016-10-07T02:41:51Z</time></trkpt>
<trkpt lat="25.163278" lon="101.922232">
<time>2016-10-07T02:41:52Z</time></trkpt>
<trkpt lat="25.163288" lon="101.922192">
<time>2016-10-07T02:41:53Z</time></trkpt>
<trkpt lat="25.163298" lon="101.922162">
<time>2016-10-07T02:41:54Z</time></trkpt>
<trkpt lat="25.163328" lon="101.922102">
<time>2016-10-07T02:41:55Z</time></trkpt>
<trkpt lat="25.163338" lon="101.922072">
<time>2016-10-07T02:41:56Z</time></trkpt>
<trkpt lat="25.163359" lon="101.921992">
<time>2016-10-07T02:41:57Z</time></trkpt>
<trkpt lat="25.163369" lon="101.921952">
<time>2016-10-07T02:41:58Z</time></trkpt>
<trkpt lat="25.163369" lon="101.921922">
<time>2016-10-07T02:41:59Z</time></trkpt>
<trkpt lat="25.163379" lon="101.921892">
<time>2016-10-07T02:42:00Z</time></trkpt>
<trkpt lat="25.163379" lon="101.921822">
<time>2016-10-07T02:42:01Z</time></trkpt>
<trkpt lat="25.163389" lon="101.921662">
<time>2016-10-07T02:42:02Z</time></trkpt>
<trkpt lat="25.163379" lon="101.921522">
<time>2016-10-07T02:42:03Z</time></trkpt>
<trkpt lat="25.163349" lon="101.921313">
<time>2016-10-07T02:42:04Z</time></trkpt>
<trkpt lat="25.163299" lon="101.921003">
<time>2016-10-07T02:42:05Z</time></trkpt>
<trkpt lat="25.16325" lon="101.920663">
<time>2016-10-07T02:42:06Z</time></trkpt>
<trkpt lat="25.16322" lon="101.920383">
<time>2016-10-07T02:42:07Z</time></trkpt>
<trkpt lat="25.16317" lon="101.920153">
<time>2016-10-07T02:42:08Z</time></trkpt>
<trkpt lat="25.163101" lon="101.919804">
<time>2016-10-07T02:42:09Z</time></trkpt>
<trkpt lat="25.163051" lon="101.919614">
<time>2016-10-07T02:42:10Z</time></trkpt>
<trkpt lat="25.162991" lon="101.919414">
<time>2016-10-07T02:42:11Z</time></trkpt>
<trkpt lat="25.162891" lon="101.919024">
<time>2016-10-07T02:42:12Z</time></trkpt>
<trkpt lat="25.162811" lon="101.918694">
<time>2016-10-07T02:42:13Z</time></trkpt>
<trkpt lat="25.162772" lon="101.918574">
<time>2016-10-07T02:42:14Z</time></trkpt>
<trkpt lat="25.162702" lon="101.918365">
<time>2016-10-07T02:42:15Z</time></trkpt>
<trkpt lat="25.162582" lon="101.918025">
<time>2016-10-07T02:42:16Z</time></trkpt>
<trkpt lat="25.162522" lon="101.917865">
<time>2016-10-07T02:42:17Z</time></trkpt>
<trkpt lat="25.162442" lon="101.917615">
<time>2016-10-07T02:42:18Z</time></trkpt>
<trkpt lat="25.162392" lon="101.917445">
<time>2016-10-07T02:42:19Z</time></trkpt>
<trkpt lat="25.162333" lon="101.917125">
<time>2016-10-07T02:42:20Z</time></trkpt>
<trkpt lat="25.162283" lon="101.916795">
<time>2016-10-07T02:42:21Z</time></trkpt>
<trkpt lat="25.162263" lon="101.916475">
<time>2016-10-07T02:42:22Z</time></trkpt>
<trkpt lat="25.162233" lon="101.916196">
<time>2016-10-07T02:42:23Z</time></trkpt>
<trkpt lat="25.162214" lon="101.916026">
<time>2016-10-07T02:42:24Z</time></trkpt>
<trkpt lat="25.162194" lon="101.915906">
<time>2016-10-07T02:42:25Z</time></trkpt>
<trkpt lat="25.162144" lon="101.915696">
<time>2016-10-07T02:42:26Z</time></trkpt>
<trkpt lat="25.162024" lon="101.915216">
<time>2016-10-07T02:42:27Z</time></trkpt>
<trkpt lat="25.161954" lon="101.914906">
<time>2016-10-07T02:42:28Z</time></trkpt>
<trkpt lat="25.161885" lon="101.914566">
<time>2016-10-07T02:42:29Z</time></trkpt>
<trkpt lat="25.161805" lon="101.914216">
<time>2016-10-07T02:42:30Z</time></trkpt>
<trkpt lat="25.161755" lon="101.913927">
<time>2016-10-07T02:42:31Z</time></trkpt>
<trkpt lat="25.161735" lon="101.913777">
<time>2016-10-07T02:42:32Z</time></trkpt>
<trkpt lat="25.161735" lon="101.913707">
<time>2016-10-07T02:42:33Z</time></trkpt>
<trkpt lat="25.161745" lon="101.913597">
<time>2016-10-07T02:42:34Z</time></trkpt>
<trkpt lat="25.161755" lon="101.913497">
<time>2016-10-07T02:42:35Z</time></trkpt>
<trkpt lat="25.161795" lon="101.913367">
<time>2016-10-07T02:42:36Z</time></trkpt>
<trkpt lat="25.161905" lon="101.913037">
<time>2016-10-07T02:42:37Z</time></trkpt>
<trkpt lat="25.161996" lon="101.912737">
<time>2016-10-07T02:42:38Z</time></trkpt>
<trkpt lat="25.162076" lon="101.912437">
<time>2016-10-07T02:42:39Z</time></trkpt>
<trkpt lat="25.162146" lon="101.912207">
<time>2016-10-07T02:42:40Z</time></trkpt>
<trkpt lat="25.162196" lon="101.912037">
<time>2016-10-07T02:42:41Z</time></trkpt>
<trkpt lat="25.162286" lon="101.911757">
<time>2016-10-07T02:42:42Z</time></trkpt>
<trkpt lat="25.162316" lon="101.911647">
<time>2016-10-07T02:42:43Z</time></trkpt>
<trkpt lat="25.162376" lon="101.911477">
<time>2016-10-07T02:42:44Z</time></trkpt>
<trkpt lat="25.162416" lon="101.911377">
<time>2016-10-07T02:42:45Z</time></trkpt>
<trkpt lat="25.162466" lon="101.911257">
<time>2016-10-07T02:42:46Z</time></trkpt>
<trkpt lat="25.162546" lon="101.911107">
<time>2016-10-07T02:42:47Z</time></trkpt>
<trkpt lat="25.162616" lon="101.910977">
<time>2016-10-07T02:42:48Z</time></trkpt>
<trkpt lat="25.162747" lon="101.910727">
<time>2016-10-07T02:42:49Z</time></trkpt>
<trkpt lat="25.162757" lon="101.910717">
<time>2016-10-07T02:42:50Z</time></trkpt>
<trkpt lat="25.162837" lon="101.910557">
<time>2016-10-07T02:42:51Z</time></trkpt>
<trkpt lat="25.162937" lon="101.910357">
<time>2016-10-07T02:42:52Z</time></trkpt>
<trkpt lat="25.163007" lon="101.910217">
<time>2016-10-07T02:42:53Z</time></trkpt>
<trkpt lat="25.163027" lon="101.910147">
<time>2016-10-07T02:42:54Z</time></trkpt>
<trkpt lat="25.163047" lon="101.910097">
<time>2016-10-07T02:42:55Z</time></trkpt>
<trkpt lat="25.163077" lon="101.909947">
<time>2016-10-07T02:42:56Z</time></trkpt>
<trkpt lat="25.163097" lon="101.909817">
<time>2016-10-07T02:42:57Z</time></trkpt>
<trkpt lat="25.163087" lon="101.909648">
<time>2016-10-07T02:42:58Z</time></trkpt>
<trkpt lat="25.163067" lon="101.909528">
<time>2016-10-07T02:42:59Z</time></trkpt>
<trkpt lat="25.163017" lon="101.909388">
<time>2016-10-07T02:43:00Z</time></trkpt>
<trkpt lat="25.162947" lon="101.909248">
<time>2016-10-07T02:43:01Z</time></trkpt>
<trkpt lat="25.162867" lon="101.909148">
<time>2016-10-07T02:43:02Z</time></trkpt>
<trkpt lat="25.162727" lon="101.909018">
<time>2016-10-07T02:43:03Z</time></trkpt>
<trkpt lat="25.162627" lon="101.908948">
<time>2016-10-07T02:43:04Z</time></trkpt>
<trkpt lat="25.162517" lon="101.908888">
<time>2016-10-07T02:43:05Z</time></trkpt>
<trkpt lat="25.162257" lon="101.908808">
<time>2016-10-07T02:43:06Z</time></trkpt>
<trkpt lat="25.162017" lon="101.908738">
<time>2016-10-07T02:43:07Z</time></trkpt>
<trkpt lat="25.161837" lon="101.908678">
<time>2016-10-07T02:43:08Z</time></trkpt>
<trkpt lat="25.161667" lon="101.908588">
<time>2016-10-07T02:43:09Z</time></trkpt>
<trkpt lat="25.161557" lon="101.908518">
<time>2016-10-07T02:43:10Z</time></trkpt>
<trkpt lat="25.161508" lon="101.908478">
<time>2016-10-07T02:43:11Z</time></trkpt>
<trkpt lat="25.161448" lon="101.908428">
<time>2016-10-07T02:43:12Z</time></trkpt>
<trkpt lat="25.161428" lon="101.908388">
<time>2016-10-07T02:43:13Z</time></trkpt>
<trkpt lat="25.161398" lon="101.908338">
<time>2016-10-07T02:43:14Z</time></trkpt>
<trkpt lat="25.161388" lon="101.908288">
<time>2016-10-07T02:43:15Z</time></trkpt>
<trkpt lat="25.161378" lon="101.908238">
<time>2016-10-07T02:43:16Z</time></trkpt>
<trkpt lat="25.161368" lon="101.908198">
<time>2016-10-07T02:43:17Z</time></trkpt>
<trkpt lat="25.161378" lon="101.908148">
<time>2016-10-07T02:43:18Z</time></trkpt>
<trkpt lat="25.161388" lon="101.908108">
<time>2016-10-07T02:43:19Z</time></trkpt>
<trkpt lat="25.161398" lon="101.908048">
<time>2016-10-07T02:43:20Z</time></trkpt>
<trkpt lat="25.161418" lon="101.907998">
<time>2016-10-07T02:43:21Z</time></trkpt>
<trkpt lat="25.161478" lon="101.907888">
<time>2016-10-07T02:43:22Z</time></trkpt>
<trkpt lat="25.161548" lon="101.907758">
<time>2016-10-07T02:43:23Z</time></trkpt>
<trkpt lat="25.161658" lon="101.907588">
<time>2016-10-07T02:43:24Z</time></trkpt>
<trkpt lat="25.161758" lon="101.907438">
<time>2016-10-07T02:43:25Z</time></trkpt>
<trkpt lat="25.161888" lon="101.907218">
<time>2016-10-07T02:43:26Z</time></trkpt>
<trkpt lat="25.161998" lon="101.907038">
<time>2016-10-07T02:43:27Z</time></trkpt>
<trkpt lat="25.162048" lon="101.906938">
<time>2016-10-07T02:43:28Z</time></trkpt>
<trkpt lat="25.162088" lon="101.906858">
<time>2016-10-07T02:43:29Z</time></trkpt>
<trkpt lat="25.162108" lon="101.906778">
<time>2016-10-07T02:43:30Z</time></trkpt>
<trkpt lat="25.162128" lon="101.906718">
<time>2016-10-07T02:43:31Z</time></trkpt>
<trkpt lat="25.162148" lon="101.906618">
<time>2016-10-07T02:43:32Z</time></trkpt>
<trkpt lat="25.162148" lon="101.906548">
<time>2016-10-07T02:43:33Z</time></trkpt>
<trkpt lat="25.162158" lon="101.906338">
<time>2016-10-07T02:43:34Z</time></trkpt>
<trkpt lat="25.162138" lon="101.906158">
<time>2016-10-07T02:43:35Z</time></trkpt>
<trkpt lat="25.162128" lon="101.906068">
<time>2016-10-07T02:43:36Z</time></trkpt>
<trkpt lat="25.162118" lon="101.905968">
<time>2016-10-07T02:43:37Z</time></trkpt>
<trkpt lat="25.162098" lon="101.905848">
<time>2016-10-07T02:43:38Z</time></trkpt>
<trkpt lat="25.162068" lon="101.905708">
<time>2016-10-07T02:43:39Z</time></trkpt>
<trkpt lat="25.162048" lon="101.905628">
<time>2016-10-07T02:43:40Z</time></trkpt>
<trkpt lat="25.162028" lon="101.905558">
<time>2016-10-07T02:43:41Z</time></trkpt>
<trkpt lat="25.162008" lon="101.905498">
<time>2016-10-07T02:43:42Z</time></trkpt>
<trkpt lat="25.161978" lon="101.905418">
<time>2016-10-07T02:43:43Z</time></trkpt>
<trkpt lat="25.161898" lon="101.905258">
<time>2016-10-07T02:43:44Z</time></trkpt>
<trkpt lat="25.161898" lon="101.905258">
<time>2016-10-07T02:43:45Z</time></trkpt>
<trkpt lat="25.161798" lon="101.905248">
<time>2016-10-07T02:43:46Z</time></trkpt>
<trkpt lat="25.161658" lon="101.905238">
<time>2016-10-07T02:43:47Z</time></trkpt>
<trkpt lat="25.161538" lon="101.905238">
<time>2016-10-07T02:43:48Z</time></trkpt>
<trkpt lat="25.161388" lon="101.905248">
<time>2016-10-07T02:43:49Z</time></trkpt>
<trkpt lat="25.161388" lon="101.905248">
<time>2016-10-07T02:43:50Z</time></trkpt>
<trkpt lat="25.161358" lon="101.905188">
<time>2016-10-07T02:43:51Z</time></trkpt>
<trkpt lat="25.161268" lon="101.905058">
<time>2016-10-07T02:43:52Z</time></trkpt>
<trkpt lat="25.161069" lon="101.904778">
<time>2016-10-07T02:43:53Z</time></trkpt>
<trkpt lat="25.160909" lon="101.904568">
<time>2016-10-07T02:43:54Z</time></trkpt>
<trkpt lat="25.160699" lon="101.904358">
<time>2016-10-07T02:43:55Z</time></trkpt>
<trkpt lat="25.160509" lon="101.904168">
<time>2016-10-07T02:43:56Z</time></trkpt>
<trkpt lat="25.159909" lon="101.903587">
<time>2016-10-07T02:43:57Z</time></trkpt>
<trkpt lat="25.159509" lon="101.903157">
<time>2016-10-07T02:43:58Z</time></trkpt>
<trkpt lat="25.159209" lon="101.902867">
<time>2016-10-07T02:43:59Z</time></trkpt>
<trkpt lat="25.159069" lon="101.902697">
<time>2016-10-07T02:44:00Z</time></trkpt>
<trkpt lat="25.159009" lon="101.902617">
<time>2016-10-07T02:44:01Z</time></trkpt>
<trkpt lat="25.158949" lon="101.902557">
<time>2016-10-07T02:44:02Z</time></trkpt>
<trkpt lat="25.158949" lon="101.902557">
<time>2016-10-07T02:44:03Z</time></trkpt>
<trkpt lat="25.159079" lon="101.902367">
<time>2016-10-07T02:44:04Z</time></trkpt>
<trkpt lat="25.159129" lon="101.902277">
<time>2016-10-07T02:44:05Z</time></trkpt>
<trkpt lat="25.159179" lon="101.902207">
<time>2016-10-07T02:44:06Z</time></trkpt>
<trkpt lat="25.159219" lon="101.902147">
<time>2016-10-07T02:44:07Z</time></trkpt>
<trkpt lat="25.159279" lon="101.902077">
<time>2016-10-07T02:44:08Z</time></trkpt>
<trkpt lat="25.159379" lon="101.901977">
<time>2016-10-07T02:44:09Z</time></trkpt>
<trkpt lat="25.159499" lon="101.901877">
<time>2016-10-07T02:44:10Z</time></trkpt>
<trkpt lat="25.159659" lon="101.901757">
<time>2016-10-07T02:44:11Z</time></trkpt>
<trkpt lat="25.159929" lon="101.901587">
<time>2016-10-07T02:44:12Z</time></trkpt>
<trkpt lat="25.160159" lon="101.901457">
<time>2016-10-07T02:44:13Z</time></trkpt>
<trkpt lat="25.160489" lon="101.901277">
<time>2016-10-07T02:44:14Z</time></trkpt>
<trkpt lat="25.160859" lon="101.901097">
<time>2016-10-07T02:44:15Z</time></trkpt>
<trkpt lat="25.161049" lon="101.901007">
<time>2016-10-07T02:44:16Z</time></trkpt>
<trkpt lat="25.161109" lon="101.900987">
<time>2016-10-07T02:44:17Z</time></trkpt>
<trkpt lat="25.161399" lon="101.900837">
<time>2016-10-07T02:44:18Z</time></trkpt>
<trkpt lat="25.161529" lon="101.900767">
<time>2016-10-07T02:44:19Z</time></trkpt>
<trkpt lat="25.161649" lon="101.900687">
<time>2016-10-07T02:44:20Z</time></trkpt>
<trkpt lat="25.161749" lon="101.900597">
<time>2016-10-07T02:44:21Z</time></trkpt>
<trkpt lat="25.161859" lon="101.900507">
<time>2016-10-07T02:44:22Z</time></trkpt>
<trkpt lat="25.162049" lon="101.900307">
<time>2016-10-07T02:44:23Z</time></trkpt>
<trkpt lat="25.162339" lon="101.899997">
<time>2016-10-07T02:44:24Z</time></trkpt>
<trkpt lat="25.162739" lon="101.899516">
<time>2016-10-07T02:44:25Z</time></trkpt>
<trkpt lat="25.162879" lon="101.899356">
<time>2016-10-07T02:44:26Z</time></trkpt>
<trkpt lat="25.163059" lon="101.899146">
<time>2016-10-07T02:44:27Z</time></trkpt>
<trkpt lat="25.163169" lon="101.899036">
<time>2016-10-07T02:44:28Z</time></trkpt>
<trkpt lat="25.163229" lon="101.898966">
<time>2016-10-07T02:44:29Z</time></trkpt>
<trkpt lat="25.163309" lon="101.898896">
<time>2016-10-07T02:44:30Z</time></trkpt>
<trkpt lat="25.163439" lon="101.898776">
<time>2016-10-07T02:44:31Z</time></trkpt>
<trkpt lat="25.163639" lon="101.898646">
<time>2016-10-07T02:44:32Z</time></trkpt>
<trkpt lat="25.163729" lon="101.898596">
<time>2016-10-07T02:44:33Z</time></trkpt>
<trkpt lat="25.163809" lon="101.898526">
<time>2016-10-07T02:44:34Z</time></trkpt>
<trkpt lat="25.163849" lon="101.898486">
<time>2016-10-07T02:44:35Z</time></trkpt>
<trkpt lat="25.163889" lon="101.898426">
<time>2016-10-07T02:44:36Z</time></trkpt>
<trkpt lat="25.163929" lon="101.898356">
<time>2016-10-07T02:44:37Z</time></trkpt>
<trkpt lat="25.163939" lon="101.898306">
<time>2016-10-07T02:44:38Z</time></trkpt>
<trkpt lat="25.163949" lon="101.898256">
<time>2016-10-07T02:44:39Z</time></trkpt>
<trkpt lat="25.163929" lon="101.898176">
<time>2016-10-07T02:44:40Z</time></trkpt>
<trkpt lat="25.163909" lon="101.898106">
<time>2016-10-07T02:44:41Z</time></trkpt>
<trkpt lat="25.163879" lon="101.898026">
<time>2016-10-07T02:44:42Z</time></trkpt>
<trkpt lat="25.163839" lon="101.897946">
<time>2016-10-07T02:44:43Z</time></trkpt>
<trkpt lat="25.163699" lon="101.897756">
<time>2016-10-07T02:44:44Z</time></trkpt>
<trkpt lat="25.163559" lon="101.897586">
<time>2016-10-07T02:44:45Z</time></trkpt>
<trkpt lat="25.163499" lon="101.897506">
<time>2016-10-07T02:44:46Z</time></trkpt>
<trkpt lat="25.163469" lon="101.897445">
<time>2016-10-07T02:44:47Z</time></trkpt>
<trkpt lat="25.163439" lon="101.897355">
<time>2016-10-07T02:44:48Z</time></trkpt>
<trkpt lat="25.163419" lon="101.897285">
<time>2016-10-07T02:44:49Z</time></trkpt>
<trkpt lat="25.163419" lon="101.897205">
<time>2016-10-07T02:44:50Z</time></trkpt>
<trkpt lat="25.163429" lon="101.897135">
<time>2016-10-07T02:44:51Z</time></trkpt>
<trkpt lat="25.163449" lon="101.897065">
<time>2016-10-07T02:44:52Z</time></trkpt>
<trkpt lat="25.163469" lon="101.897005">
<time>2016-10-07T02:44:53Z</time></trkpt>
<trkpt lat="25.163509" lon="101.896935">
<time>2016-10-07T02:44:54Z</time></trkpt>
<trkpt lat="25.163559" lon="101.896875">
<time>2016-10-07T02:44:55Z</time></trkpt>
<trkpt lat="25.163638" lon="101.896815">
<time>2016-10-07T02:44:56Z</time></trkpt>
<trkpt lat="25.163758" lon="101.896725">
<time>2016-10-07T02:44:57Z</time></trkpt>
<trkpt lat="25.163908" lon="101.896635">
<time>2016-10-07T02:44:58Z</time></trkpt>
<trkpt lat="25.164078" lon="101.896545">
<time>2016-10-07T02:44:59Z</time></trkpt>
<trkpt lat="25.164178" lon="101.896495">
<time>2016-10-07T02:45:00Z</time></trkpt>
<trkpt lat="25.164358" lon="101.896415">
<time>2016-10-07T02:45:01Z</time></trkpt>
<trkpt lat="25.164588" lon="101.896315">
<time>2016-10-07T02:45:02Z</time></trkpt>
<trkpt lat="25.164818" lon="101.896215">
<time>2016-10-07T02:45:03Z</time></trkpt>
<trkpt lat="25.164928" lon="101.896165">
<time>2016-10-07T02:45:04Z</time></trkpt>
<trkpt lat="25.165008" lon="101.896125">
<time>2016-10-07T02:45:05Z</time></trkpt>
<trkpt lat="25.165078" lon="101.896085">
<time>2016-10-07T02:45:06Z</time></trkpt>
<trkpt lat="25.165148" lon="101.896035">
<time>2016-10-07T02:45:07Z</time></trkpt>
<trkpt lat="25.165198" lon="101.895975">
<time>2016-10-07T02:45:08Z</time></trkpt>
<trkpt lat="25.165248" lon="101.895905">
<time>2016-10-07T02:45:09Z</time></trkpt>
<trkpt lat="25.165258" lon="101.895865">
<time>2016-10-07T02:45:10Z</time></trkpt>
<trkpt lat="25.165278" lon="101.895805">
<time>2016-10-07T02:45:11Z</time></trkpt>
<trkpt lat="25.165288" lon="101.895755">
<time>2016-10-07T02:45:12Z</time></trkpt>
<trkpt lat="25.165278" lon="101.895685">
<time>2016-10-07T02:45:13Z</time></trkpt>
<trkpt lat="25.165268" lon="101.895625">
<time>2016-10-07T02:45:14Z</time></trkpt>
<trkpt lat="25.165258" lon="101.895584">
<time>2016-10-07T02:45:15Z</time></trkpt>
<trkpt lat="25.165238" lon="101.895514">
<time>2016-10-07T02:45:16Z</time></trkpt>
<trkpt lat="25.165208" lon="101.895464">
<time>2016-10-07T02:45:17Z</time></trkpt>
<trkpt lat="25.165178" lon="101.895424">
<time>2016-10-07T02:45:18Z</time></trkpt>
<trkpt lat="25.165138" lon="101.895374">
<time>2016-10-07T02:45:19Z</time></trkpt>
<trkpt lat="25.165088" lon="101.895324">
<time>2016-10-07T02:45:20Z</time></trkpt>
<trkpt lat="25.165008" lon="101.895264">
<time>2016-10-07T02:45:21Z</time></trkpt>
<trkpt lat="25.164838" lon="101.895164">
<time>2016-10-07T02:45:22Z</time></trkpt>
<trkpt lat="25.164658" lon="101.895084">
<time>2016-10-07T02:45:23Z</time></trkpt>
<trkpt lat="25.164488" lon="101.894994">
<time>2016-10-07T02:45:24Z</time></trkpt>
<trkpt lat="25.164338" lon="101.894924">
<time>2016-10-07T02:45:25Z</time></trkpt>
<trkpt lat="25.164248" lon="101.894874">
<time>2016-10-07T02:45:26Z</time></trkpt>
<trkpt lat="25.164148" lon="101.894804">
<time>2016-10-07T02:45:27Z</time></trkpt>
<trkpt lat="25.164078" lon="101.894744">
<time>2016-10-07T02:45:28Z</time></trkpt>
<trkpt lat="25.164018" lon="101.894684">
<time>2016-10-07T02:45:29Z</time></trkpt>
<trkpt lat="25.163958" lon="101.894604">
<time>2016-10-07T02:45:30Z</time></trkpt>
<trkpt lat="25.163898" lon="101.894524">
<time>2016-10-07T02:45:31Z</time></trkpt>
<trkpt lat="25.163848" lon="101.894424">
<time>2016-10-07T02:45:32Z</time></trkpt>
<trkpt lat="25.163788" lon="101.894304">
<time>2016-10-07T02:45:33Z</time></trkpt>
<trkpt lat="25.163708" lon="101.894104">
<time>2016-10-07T02:45:34Z</time></trkpt>
<trkpt lat="25.163578" lon="101.893773">
<time>2016-10-07T02:45:35Z</time></trkpt>
<trkpt lat="25.163408" lon="101.893433">
<time>2016-10-07T02:45:36Z</time></trkpt>
<trkpt lat="25.163228" lon="101.893023">
<time>2016-10-07T02:45:37Z</time></trkpt>
<trkpt lat="25.163118" lon="101.892773">
<time>2016-10-07T02:45:38Z</time></trkpt>
<trkpt lat="25.163037" lon="101.892663">
<time>2016-10-07T02:45:39Z</time></trkpt>
<trkpt lat="25.162957" lon="101.892583">
<time>2016-10-07T02:45:40Z</time></trkpt>
<trkpt lat="25.162907" lon="101.892533">
<time>2016-10-07T02:45:41Z</time></trkpt>
<trkpt lat="25.162837" lon="101.892483">
<time>2016-10-07T02:45:42Z</time></trkpt>
<trkpt lat="25.162767" lon="101.892453">
<time>2016-10-07T02:45:43Z</time></trkpt>
<trkpt lat="25.162647" lon="101.892433">
<time>2016-10-07T02:45:44Z</time></trkpt>
<trkpt lat="25.162507" lon="101.892413">
<time>2016-10-07T02:45:45Z</time></trkpt>
<trkpt lat="25.162367" lon="101.892403">
<time>2016-10-07T02:45:46Z</time></trkpt>
<trkpt lat="25.162257" lon="101.892403">
<time>2016-10-07T02:45:47Z</time></trkpt>
<trkpt lat="25.162017" lon="101.892413">
<time>2016-10-07T02:45:48Z</time></trkpt>
<trkpt lat="25.161807" lon="101.892413">
<time>2016-10-07T02:45:49Z</time></trkpt>
<trkpt lat="25.161677" lon="101.892403">
<time>2016-10-07T02:45:50Z</time></trkpt>
<trkpt lat="25.161567" lon="101.892393">
<time>2016-10-07T02:45:51Z</time></trkpt>
<trkpt lat="25.161487" lon="101.892363">
<time>2016-10-07T02:45:52Z</time></trkpt>
<trkpt lat="25.161397" lon="101.892323">
<time>2016-10-07T02:45:53Z</time></trkpt>
<trkpt lat="25.161317" lon="101.892283">
<time>2016-10-07T02:45:54Z</time></trkpt>
<trkpt lat="25.161237" lon="101.892233">
<time>2016-10-07T02:45:55Z</time></trkpt>
<trkpt lat="25.161177" lon="101.892172">
<time>2016-10-07T02:45:56Z</time></trkpt>
<trkpt lat="25.161107" lon="101.892102">
<time>2016-10-07T02:45:57Z</time></trkpt>
<trkpt lat="25.161047" lon="101.892022">
<time>2016-10-07T02:45:58Z</time></trkpt>
<trkpt lat="25.160997" lon="101.891952">
<time>2016-10-07T02:45:59Z</time></trkpt>
<trkpt lat="25.160947" lon="101.891872">
<time>2016-10-07T02:46:00Z</time></trkpt>
<trkpt lat="25.160897" lon="101.891782">
<time>2016-10-07T02:46:01Z</time></trkpt>
<trkpt lat="25.160857" lon="101.891692">
<time>2016-10-07T02:46:02Z</time></trkpt>
<trkpt lat="25.160837" lon="101.891612">
<time>2016-10-07T02:46:03Z</time></trkpt>
<trkpt lat="25.160817" lon="101.891522">
<time>2016-10-07T02:46:04Z</time></trkpt>
<trkpt lat="25.160797" lon="101.891362">
<time>2016-10-07T02:46:05Z</time></trkpt>
<trkpt lat="25.160767" lon="101.891162">
<time>2016-10-07T02:46:06Z</time></trkpt>
<trkpt lat="25.160757" lon="101.890992">
<time>2016-10-07T02:46:07Z</time></trkpt>
<trkpt lat="25.160727" lon="101.890852">
<time>2016-10-07T02:46:08Z</time></trkpt>
<trkpt lat="25.160677" lon="101.890741">
<time>2016-10-07T02:46:09Z</time></trkpt>
<trkpt lat="25.160627" lon="101.890641">
<time>2016-10-07T02:46:10Z</time></trkpt>
<trkpt lat="25.160537" lon="101.890541">
<time>2016-10-07T02:46:11Z</time></trkpt>
<trkpt lat="25.160477" lon="101.890481">
<time>2016-10-07T02:46:12Z</time></trkpt>
<trkpt lat="25.160317" lon="101.890371">
<time>2016-10-07T02:46:13Z</time></trkpt>
<trkpt lat="25.160037" lon="101.890201">
<time>2016-10-07T02:46:14Z</time></trkpt>
<trkpt lat="25.159907" lon="101.890101">
<time>2016-10-07T02:46:15Z</time></trkpt>
<trkpt lat="25.159777" lon="101.889991">
<time>2016-10-07T02:46:16Z</time></trkpt>
<trkpt lat="25.159657" lon="101.889851">
<time>2016-10-07T02:46:17Z</time></trkpt>
<trkpt lat="25.159556" lon="101.889711">
<time>2016-10-07T02:46:18Z</time></trkpt>
<trkpt lat="25.159506" lon="101.889591">
<time>2016-10-07T02:46:19Z</time></trkpt>
<trkpt lat="25.159456" lon="101.88946">
<time>2016-10-07T02:46:20Z</time></trkpt>
<trkpt lat="25.159436" lon="101.88935">
<time>2016-10-07T02:46:21Z</time></trkpt>
<trkpt lat="25.159416" lon="101.88917">
<time>2016-10-07T02:46:22Z</time></trkpt>
<trkpt lat="25.159406" lon="101.88891">
<time>2016-10-07T02:46:23Z</time></trkpt>
<trkpt lat="25.159396" lon="101.8887">
<time>2016-10-07T02:46:24Z</time></trkpt>
<trkpt lat="25.159396" lon="101.8885">
<time>2016-10-07T02:46:25Z</time></trkpt>
<trkpt lat="25.159406" lon="101.88837">
<time>2016-10-07T02:46:26Z</time></trkpt>
<trkpt lat="25.159426" lon="101.888249">
<time>2016-10-07T02:46:27Z</time></trkpt>
<trkpt lat="25.159446" lon="101.888089">
<time>2016-10-07T02:46:28Z</time></trkpt>
<trkpt lat="25.159476" lon="101.887909">
<time>2016-10-07T02:46:29Z</time></trkpt>
<trkpt lat="25.159486" lon="101.887779">
<time>2016-10-07T02:46:30Z</time></trkpt>
<trkpt lat="25.159495" lon="101.887659">
<time>2016-10-07T02:46:31Z</time></trkpt>
<trkpt lat="25.159485" lon="101.887549">
<time>2016-10-07T02:46:32Z</time></trkpt>
<trkpt lat="25.159455" lon="101.887459">
<time>2016-10-07T02:46:33Z</time></trkpt>
<trkpt lat="25.159435" lon="101.887379">
<time>2016-10-07T02:46:34Z</time></trkpt>
<trkpt lat="25.159395" lon="101.887299">
<time>2016-10-07T02:46:35Z</time></trkpt>
<trkpt lat="25.159345" lon="101.887208">
<time>2016-10-07T02:46:36Z</time></trkpt>
<trkpt lat="25.159285" lon="101.887138">
<time>2016-10-07T02:46:37Z</time></trkpt>
<trkpt lat="25.159225" lon="101.887068">
<time>2016-10-07T02:46:38Z</time></trkpt>
<trkpt lat="25.159155" lon="101.886988">
<time>2016-10-07T02:46:39Z</time></trkpt>
<trkpt lat="25.159055" lon="101.886898">
<time>2016-10-07T02:46:40Z</time></trkpt>
<trkpt lat="25.158945" lon="101.886788">
<time>2016-10-07T02:46:41Z</time></trkpt>
<trkpt lat="25.158805" lon="101.886658">
<time>2016-10-07T02:46:42Z</time></trkpt>
<trkpt lat="25.158725" lon="101.886568">
<time>2016-10-07T02:46:43Z</time></trkpt>
<trkpt lat="25.158675" lon="101.886498">
<time>2016-10-07T02:46:44Z</time></trkpt>
<trkpt lat="25.158625" lon="101.886408">
<time>2016-10-07T02:46:45Z</time></trkpt>
<trkpt lat="25.158535" lon="101.886218">
<time>2016-10-07T02:46:46Z</time></trkpt>
<trkpt lat="25.158374" lon="101.885827">
<time>2016-10-07T02:46:47Z</time></trkpt>
<trkpt lat="25.158274" lon="101.885537">
<time>2016-10-07T02:46:48Z</time></trkpt>
<trkpt lat="25.158224" lon="101.885347">
<time>2016-10-07T02:46:49Z</time></trkpt>
<trkpt lat="25.158194" lon="101.885207">
<time>2016-10-07T02:46:50Z</time></trkpt>
<trkpt lat="25.158184" lon="101.885117">
<time>2016-10-07T02:46:51Z</time></trkpt>
<trkpt lat="25.158184" lon="101.885016">
<time>2016-10-07T02:46:52Z</time></trkpt>
<trkpt lat="25.158184" lon="101.884936">
<time>2016-10-07T02:46:53Z</time></trkpt>
<trkpt lat="25.158184" lon="101.884636">
<time>2016-10-07T02:46:54Z</time></trkpt>
<trkpt lat="25.158193" lon="101.884286">
<time>2016-10-07T02:46:55Z</time></trkpt>
<trkpt lat="25.158203" lon="101.883975">
<time>2016-10-07T02:46:56Z</time></trkpt>
<trkpt lat="25.158223" lon="101.883755">
<time>2016-10-07T02:46:57Z</time></trkpt>
<trkpt lat="25.158223" lon="101.883605">
<time>2016-10-07T02:46:58Z</time></trkpt>
<trkpt lat="25.158223" lon="101.883495">
<time>2016-10-07T02:46:59Z</time></trkpt>
<trkpt lat="25.158213" lon="101.883405">
<time>2016-10-07T02:47:00Z</time></trkpt>
<trkpt lat="25.158193" lon="101.883315">
<time>2016-10-07T02:47:01Z</time></trkpt>
<trkpt lat="25.158163" lon="101.883255">
<time>2016-10-07T02:47:02Z</time></trkpt>
<trkpt lat="25.158133" lon="101.883194">
<time>2016-10-07T02:47:03Z</time></trkpt>
<trkpt lat="25.158133" lon="101.883184">
<time>2016-10-07T02:47:04Z</time></trkpt>
<trkpt lat="25.158083" lon="101.883114">
<time>2016-10-07T02:47:05Z</time></trkpt>
<trkpt lat="25.158033" lon="101.883054">
<time>2016-10-07T02:47:06Z</time></trkpt>
<trkpt lat="25.157963" lon="101.882984">
<time>2016-10-07T02:47:07Z</time></trkpt>
<trkpt lat="25.157883" lon="101.882934">
<time>2016-10-07T02:47:08Z</time></trkpt>
<trkpt lat="25.157813" lon="101.882904">
<time>2016-10-07T02:47:09Z</time></trkpt>
<trkpt lat="25.157763" lon="101.882884">
<time>2016-10-07T02:47:10Z</time></trkpt>
<trkpt lat="25.157673" lon="101.882884">
<time>2016-10-07T02:47:11Z</time></trkpt>
<trkpt lat="25.157583" lon="101.882894">
<time>2016-10-07T02:47:12Z</time></trkpt>
<trkpt lat="25.157483" lon="101.882914">
<time>2016-10-07T02:47:13Z</time></trkpt>
<trkpt lat="25.157423" lon="101.882934">
<time>2016-10-07T02:47:14Z</time></trkpt>
<trkpt lat="25.157373" lon="101.882964">
<time>2016-10-07T02:47:15Z</time></trkpt>
<trkpt lat="25.157323" lon="101.883014">
<time>2016-10-07T02:47:16Z</time></trkpt>
<trkpt lat="25.157263" lon="101.883054">
<time>2016-10-07T02:47:17Z</time></trkpt>
<trkpt lat="25.157183" lon="101.883144">
<time>2016-10-07T02:47:18Z</time></trkpt>
<trkpt lat="25.156963" lon="101.883415">
<time>2016-10-07T02:47:19Z</time></trkpt>
<trkpt lat="25.156763" lon="101.883635">
<time>2016-10-07T02:47:20Z</time></trkpt>
<trkpt lat="25.156613" lon="101.883815">
<time>2016-10-07T02:47:21Z</time></trkpt>
<trkpt lat="25.156363" lon="101.884106">
<time>2016-10-07T02:47:22Z</time></trkpt>
<trkpt lat="25.156294" lon="101.884176">
<time>2016-10-07T02:47:23Z</time></trkpt>
<trkpt lat="25.156194" lon="101.884276">
<time>2016-10-07T02:47:24Z</time></trkpt>
<trkpt lat="25.156124" lon="101.884346">
<time>2016-10-07T02:47:25Z</time></trkpt>
<trkpt lat="25.156064" lon="101.884396">
<time>2016-10-07T02:47:26Z</time></trkpt>
<trkpt lat="25.155994" lon="101.884436">
<time>2016-10-07T02:47:27Z</time></trkpt>
<trkpt lat="25.155924" lon="101.884456">
<time>2016-10-07T02:47:28Z</time></trkpt>
<trkpt lat="25.155854" lon="101.884456">
<time>2016-10-07T02:47:29Z</time></trkpt>
<trkpt lat="25.155804" lon="101.884466">
<time>2016-10-07T02:47:30Z</time></trkpt>
<trkpt lat="25.155734" lon="101.884446">
<time>2016-10-07T02:47:31Z</time></trkpt>
<trkpt lat="25.155614" lon="101.884416">
<time>2016-10-07T02:47:32Z</time></trkpt>
<trkpt lat="25.155344" lon="101.884316">
<time>2016-10-07T02:47:33Z</time></trkpt>
<trkpt lat="25.155074" lon="101.884206">
<time>2016-10-07T02:47:34Z</time></trkpt>
<trkpt lat="25.154824" lon="101.884106">
<time>2016-10-07T02:47:35Z</time></trkpt>
<trkpt lat="25.154603" lon="101.884005">
<time>2016-10-07T02:47:36Z</time></trkpt>
<trkpt lat="25.154393" lon="101.883915">
<time>2016-10-07T02:47:37Z</time></trkpt>
<trkpt lat="25.154263" lon="101.883845">
<time>2016-10-07T02:47:38Z</time></trkpt>
<trkpt lat="25.154143" lon="101.883765">
<time>2016-10-07T02:47:39Z</time></trkpt>
<trkpt lat="25.154043" lon="101.883675">
<time>2016-10-07T02:47:40Z</time></trkpt>
<trkpt lat="25.153973" lon="101.883605">
<time>2016-10-07T02:47:41Z</time></trkpt>
<trkpt lat="25.153903" lon="101.883515">
<time>2016-10-07T02:47:42Z</time></trkpt>
<trkpt lat="25.153853" lon="101.883425">
<time>2016-10-07T02:47:43Z</time></trkpt>
<trkpt lat="25.153803" lon="101.883325">
<time>2016-10-07T02:47:44Z</time></trkpt>
<trkpt lat="25.153763" lon="101.883215">
<time>2016-10-07T02:47:45Z</time></trkpt>
<trkpt lat="25.153733" lon="101.883054">
<time>2016-10-07T02:47:46Z</time></trkpt>
<trkpt lat="25.153673" lon="101.882734">
<time>2016-10-07T02:47:47Z</time></trkpt>
<trkpt lat="25.153622" lon="101.882474">
<time>2016-10-07T02:47:48Z</time></trkpt>
<trkpt lat="25.153592" lon="101.882354">
<time>2016-10-07T02:47:49Z</time></trkpt>
<trkpt lat="25.153562" lon="101.882254">
<time>2016-10-07T02:47:50Z</time></trkpt>
<trkpt lat="25.153522" lon="101.882153">
<time>2016-10-07T02:47:51Z</time></trkpt>
<trkpt lat="25.153482" lon="101.882083">
<time>2016-10-07T02:47:52Z</time></trkpt>
<trkpt lat="25.153462" lon="101.882023">
<time>2016-10-07T02:47:53Z</time></trkpt>
<trkpt lat="25.153412" lon="101.881973">
<time>2016-10-07T02:47:54Z</time></trkpt>
<trkpt lat="25.153332" lon="101.881883">
<time>2016-10-07T02:47:55Z</time></trkpt>
<trkpt lat="25.153232" lon="101.881773">
<time>2016-10-07T02:47:56Z</time></trkpt>
<trkpt lat="25.153102" lon="101.881663">
<time>2016-10-07T02:47:57Z</time></trkpt>
<trkpt lat="25.152972" lon="101.881543">
<time>2016-10-07T02:47:58Z</time></trkpt>
<trkpt lat="25.152882" lon="101.881473">
<time>2016-10-07T02:47:59Z</time></trkpt>
<trkpt lat="25.152832" lon="101.881443">
<time>2016-10-07T02:48:00Z</time></trkpt>
<trkpt lat="25.152802" lon="101.881423">
<time>2016-10-07T02:48:01Z</time></trkpt>
<trkpt lat="25.152782" lon="101.881423">
<time>2016-10-07T02:48:02Z</time></trkpt>
<trkpt lat="25.152752" lon="101.881413">
<time>2016-10-07T02:48:03Z</time></trkpt>
<trkpt lat="25.152702" lon="101.881413">
<time>2016-10-07T02:48:04Z</time></trkpt>
<trkpt lat="25.152662" lon="101.881423">
<time>2016-10-07T02:48:05Z</time></trkpt>
<trkpt lat="25.152622" lon="101.881433">
<time>2016-10-07T02:48:06Z</time></trkpt>
<trkpt lat="25.152572" lon="101.881453">
<time>2016-10-07T02:48:07Z</time></trkpt>
<trkpt lat="25.152542" lon="101.881473">
<time>2016-10-07T02:48:08Z</time></trkpt>
<trkpt lat="25.152502" lon="101.881513">
<time>2016-10-07T02:48:09Z</time></trkpt>
<trkpt lat="25.152462" lon="101.881553">
<time>2016-10-07T02:48:10Z</time></trkpt>
<trkpt lat="25.152352" lon="101.881663">
<time>2016-10-07T02:48:11Z</time></trkpt>
<trkpt lat="25.152172" lon="101.881863">
<time>2016-10-07T02:48:12Z</time></trkpt>
<trkpt lat="25.152012" lon="101.882033">
<time>2016-10-07T02:48:13Z</time></trkpt>
<trkpt lat="25.151822" lon="101.882234">
<time>2016-10-07T02:48:14Z</time></trkpt>
<trkpt lat="25.151663" lon="101.882414">
<time>2016-10-07T02:48:15Z</time></trkpt>
<trkpt lat="25.151523" lon="101.882564">
<time>2016-10-07T02:48:16Z</time></trkpt>
<trkpt lat="25.151433" lon="101.882644">
<time>2016-10-07T02:48:17Z</time></trkpt>
<trkpt lat="25.151293" lon="101.882744">
<time>2016-10-07T02:48:18Z</time></trkpt>
<trkpt lat="25.151123" lon="101.882844">
<time>2016-10-07T02:48:19Z</time></trkpt>
<trkpt lat="25.150973" lon="101.882934">
<time>2016-10-07T02:48:20Z</time></trkpt>
<trkpt lat="25.150843" lon="101.883004">
<time>2016-10-07T02:48:21Z</time></trkpt>
<trkpt lat="25.150693" lon="101.883075">
<time>2016-10-07T02:48:22Z</time></trkpt>
<trkpt lat="25.150513" lon="101.883135">
<time>2016-10-07T02:48:23Z</time></trkpt>
<trkpt lat="25.150333" lon="101.883185">
<time>2016-10-07T02:48:24Z</time></trkpt>
<trkpt lat="25.150223" lon="101.883215">
<time>2016-10-07T02:48:25Z</time></trkpt>
<trkpt lat="25.150143" lon="101.883215">
<time>2016-10-07T02:48:26Z</time></trkpt>
<trkpt lat="25.150053" lon="101.883195">
<time>2016-10-07T02:48:27Z</time></trkpt>
<trkpt lat="25.149993" lon="101.883175">
<time>2016-10-07T02:48:28Z</time></trkpt>
<trkpt lat="25.149953" lon="101.883155">
<time>2016-10-07T02:48:29Z</time></trkpt>
<trkpt lat="25.149903" lon="101.883115">
<time>2016-10-07T02:48:30Z</time></trkpt>
<trkpt lat="25.149843" lon="101.883055">
<time>2016-10-07T02:48:31Z</time></trkpt>
<trkpt lat="25.149783" lon="101.882994">
<time>2016-10-07T02:48:32Z</time></trkpt>
<trkpt lat="25.149713" lon="101.882894">
<time>2016-10-07T02:48:33Z</time></trkpt>
<trkpt lat="25.149503" lon="101.882604">
<time>2016-10-07T02:48:34Z</time></trkpt>
<trkpt lat="25.149343" lon="101.882404">
<time>2016-10-07T02:48:35Z</time></trkpt>
<trkpt lat="25.149142" lon="101.882134">
<time>2016-10-07T02:48:36Z</time></trkpt>
<trkpt lat="25.149042" lon="101.881983">
<time>2016-10-07T02:48:37Z</time></trkpt>
<trkpt lat="25.148942" lon="101.881793">
<time>2016-10-07T02:48:38Z</time></trkpt>
<trkpt lat="25.148862" lon="101.881643">
<time>2016-10-07T02:48:39Z</time></trkpt>
<trkpt lat="25.148742" lon="101.881393">
<time>2016-10-07T02:48:40Z</time></trkpt>
<trkpt lat="25.148672" lon="101.881263">
<time>2016-10-07T02:48:41Z</time></trkpt>
<trkpt lat="25.148612" lon="101.881152">
<time>2016-10-07T02:48:42Z</time></trkpt>
<trkpt lat="25.148502" lon="101.880992">
<time>2016-10-07T02:48:43Z</time></trkpt>
<trkpt lat="25.148371" lon="101.880822">
<time>2016-10-07T02:48:44Z</time></trkpt>
<trkpt lat="25.148311" lon="101.880742">
<time>2016-10-07T02:48:45Z</time></trkpt>
<trkpt lat="25.148241" lon="101.880672">
<time>2016-10-07T02:48:46Z</time></trkpt>
<trkpt lat="25.148201" lon="101.880632">
<time>2016-10-07T02:48:47Z</time></trkpt>
<trkpt lat="25.148111" lon="101.880552">
<time>2016-10-07T02:48:48Z</time></trkpt>
<trkpt lat="25.148031" lon="101.880502">
<time>2016-10-07T02:48:49Z</time></trkpt>
<trkpt lat="25.147981" lon="101.880472">
<time>2016-10-07T02:48:50Z</time></trkpt>
<trkpt lat="25.147921" lon="101.880452">
<time>2016-10-07T02:48:51Z</time></trkpt>
<trkpt lat="25.147851" lon="101.880432">
<time>2016-10-07T02:48:52Z</time></trkpt>
<trkpt lat="25.147761" lon="101.880412">
<time>2016-10-07T02:48:53Z</time></trkpt>
<trkpt lat="25.147591" lon="101.880382">
<time>2016-10-07T02:48:54Z</time></trkpt>
<trkpt lat="25.147451" lon="101.880352">
<time>2016-10-07T02:48:55Z</time></trkpt>
<trkpt lat="25.147371" lon="101.880331">
<time>2016-10-07T02:48:56Z</time></trkpt>
<trkpt lat="25.147281" lon="101.880291">
<time>2016-10-07T02:48:57Z</time></trkpt>
<trkpt lat="25.147211" lon="101.880261">
<time>2016-10-07T02:48:58Z</time></trkpt>
<trkpt lat="25.147171" lon="101.880231">
<time>2016-10-07T02:48:59Z</time></trkpt>
<trkpt lat="25.147131" lon="101.880211">
<time>2016-10-07T02:49:00Z</time></trkpt>
<trkpt lat="25.147091" lon="101.880161">
<time>2016-10-07T02:49:01Z</time></trkpt>
<trkpt lat="25.147001" lon="101.880071">
<time>2016-10-07T02:49:02Z</time></trkpt>
<trkpt lat="25.146901" lon="101.879971">
<time>2016-10-07T02:49:03Z</time></trkpt>
<trkpt lat="25.146851" lon="101.879911">
<time>2016-10-07T02:49:04Z</time></trkpt>
<trkpt lat="25.146761" lon="101.879861">
<time>2016-10-07T02:49:05Z</time></trkpt>
<trkpt lat="25.146691" lon="101.879811">
<time>2016-10-07T02:49:06Z</time></trkpt>
<trkpt lat="25.146591" lon="101.879771">
<time>2016-10-07T02:49:07Z</time></trkpt>
<trkpt lat="25.146481" lon="101.879731">
<time>2016-10-07T02:49:08Z</time></trkpt>
<trkpt lat="25.146361" lon="101.879701">
<time>2016-10-07T02:49:09Z</time></trkpt>
<trkpt lat="25.146251" lon="101.879681">
<time>2016-10-07T02:49:10Z</time></trkpt>
<trkpt lat="25.146171" lon="101.879681">
<time>2016-10-07T02:49:11Z</time></trkpt>
<trkpt lat="25.146001" lon="101.879661">
<time>2016-10-07T02:49:12Z</time></trkpt>
<trkpt lat="25.145831" lon="101.879661">
<time>2016-10-07T02:49:13Z</time></trkpt>
<trkpt lat="25.145721" lon="101.879651">
<time>2016-10-07T02:49:14Z</time></trkpt>
<trkpt lat="25.145591" lon="101.879651">
<time>2016-10-07T02:49:15Z</time></trkpt>
<trkpt lat="25.145491" lon="101.879641">
<time>2016-10-07T02:49:16Z</time></trkpt>
<trkpt lat="25.145421" lon="101.879631">
<time>2016-10-07T02:49:17Z</time></trkpt>
<trkpt lat="25.145341" lon="101.879601">
<time>2016-10-07T02:49:18Z</time></trkpt>
<trkpt lat="25.145271" lon="101.879581">
<time>2016-10-07T02:49:19Z</time></trkpt>
<trkpt lat="25.145191" lon="101.879541">
<time>2016-10-07T02:49:20Z</time></trkpt>
<trkpt lat="25.145081" lon="101.879491">
<time>2016-10-07T02:49:21Z</time></trkpt>
<trkpt lat="25.144981" lon="101.87943">
<time>2016-10-07T02:49:22Z</time></trkpt>
<trkpt lat="25.144931" lon="101.8794">
<time>2016-10-07T02:49:23Z</time></trkpt>
<trkpt lat="25.14483" lon="101.87933">
<time>2016-10-07T02:49:24Z</time></trkpt>
<trkpt lat="25.14473" lon="101.87924">
<time>2016-10-07T02:49:25Z</time></trkpt>
<trkpt lat="25.14467" lon="101.87917">
<time>2016-10-07T02:49:26Z</time></trkpt>
<trkpt lat="25.14461" lon="101.87911">
<time>2016-10-07T02:49:27Z</time></trkpt>
<trkpt lat="25.14455" lon="101.87902">
<time>2016-10-07T02:49:28Z</time></trkpt>
<trkpt lat="25.1445" lon="101.87894">
<time>2016-10-07T02:49:29Z</time></trkpt>
<trkpt lat="25.14444" lon="101.87881">
<time>2016-10-07T02:49:30Z</time></trkpt>
<trkpt lat="25.14441" lon="101.87872">
<time>2016-10-07T02:49:31Z</time></trkpt>
<trkpt lat="25.14439" lon="101.878649">
<time>2016-10-07T02:49:32Z</time></trkpt>
<trkpt lat="25.14438" lon="101.878589">
<time>2016-10-07T02:49:33Z</time></trkpt>
<trkpt lat="25.14437" lon="101.878509">
<time>2016-10-07T02:49:34Z</time></trkpt>
<trkpt lat="25.14437" lon="101.878439">
<time>2016-10-07T02:49:35Z</time></trkpt>
<trkpt lat="25.14437" lon="101.878379">
<time>2016-10-07T02:49:36Z</time></trkpt>
<trkpt lat="25.14438" lon="101.878299">
<time>2016-10-07T02:49:37Z</time></trkpt>
<trkpt lat="25.144399" lon="101.878209">
<time>2016-10-07T02:49:38Z</time></trkpt>
<trkpt lat="25.144409" lon="101.878139">
<time>2016-10-07T02:49:39Z</time></trkpt>
<trkpt lat="25.144419" lon="101.878069">
<time>2016-10-07T02:49:40Z</time></trkpt>
<trkpt lat="25.144419" lon="101.878009">
<time>2016-10-07T02:49:41Z</time></trkpt>
<trkpt lat="25.144409" lon="101.877969">
<time>2016-10-07T02:49:42Z</time></trkpt>
<trkpt lat="25.144409" lon="101.877919">
<time>2016-10-07T02:49:43Z</time></trkpt>
<trkpt lat="25.144399" lon="101.877868">
<time>2016-10-07T02:49:44Z</time></trkpt>
<trkpt lat="25.144379" lon="101.877798">
<time>2016-10-07T02:49:45Z</time></trkpt>
<trkpt lat="25.144349" lon="101.877718">
<time>2016-10-07T02:49:46Z</time></trkpt>
<trkpt lat="25.144319" lon="101.877638">
<time>2016-10-07T02:49:47Z</time></trkpt>
<trkpt lat="25.144289" lon="101.877568">
<time>2016-10-07T02:49:48Z</time></trkpt>
<trkpt lat="25.144249" lon="101.877478">
<time>2016-10-07T02:49:49Z</time></trkpt>
<trkpt lat="25.144179" lon="101.877378">
<time>2016-10-07T02:49:50Z</time></trkpt>
<trkpt lat="25.144109" lon="101.877288">
<time>2016-10-07T02:49:51Z</time></trkpt>
<trkpt lat="25.144049" lon="101.877208">
<time>2016-10-07T02:49:52Z</time></trkpt>
<trkpt lat="25.143979" lon="101.877138">
<time>2016-10-07T02:49:53Z</time></trkpt>
<trkpt lat="25.143888" lon="101.877047">
<time>2016-10-07T02:49:54Z</time></trkpt>
<trkpt lat="25.143688" lon="101.876837">
<time>2016-10-07T02:49:55Z</time></trkpt>
<trkpt lat="25.143468" lon="101.876607">
<time>2016-10-07T02:49:56Z</time></trkpt>
<trkpt lat="25.143398" lon="101.876517">
<time>2016-10-07T02:49:57Z</time></trkpt>
<trkpt lat="25.143368" lon="101.876457">
<time>2016-10-07T02:49:58Z</time></trkpt>
<trkpt lat="25.143328" lon="101.876387">
<time>2016-10-07T02:49:59Z</time></trkpt>
<trkpt lat="25.143308" lon="101.876326">
<time>2016-10-07T02:50:00Z</time></trkpt>
<trkpt lat="25.143288" lon="101.876276">
<time>2016-10-07T02:50:01Z</time></trkpt>
<trkpt lat="25.143268" lon="101.876206">
<time>2016-10-07T02:50:02Z</time></trkpt>
<trkpt lat="25.143268" lon="101.876136">
<time>2016-10-07T02:50:03Z</time></trkpt>
<trkpt lat="25.143268" lon="101.876046">
<time>2016-10-07T02:50:04Z</time></trkpt>
<trkpt lat="25.143267" lon="101.875996">
<time>2016-10-07T02:50:05Z</time></trkpt>
<trkpt lat="25.143297" lon="101.875896">
<time>2016-10-07T02:50:06Z</time></trkpt>
<trkpt lat="25.143317" lon="101.875816">
<time>2016-10-07T02:50:07Z</time></trkpt>
<trkpt lat="25.143367" lon="101.875686">
<time>2016-10-07T02:50:08Z</time></trkpt>
<trkpt lat="25.143437" lon="101.875515">
<time>2016-10-07T02:50:09Z</time></trkpt>
<trkpt lat="25.143537" lon="101.875275">
<time>2016-10-07T02:50:10Z</time></trkpt>
<trkpt lat="25.143656" lon="101.875015">
<time>2016-10-07T02:50:11Z</time></trkpt>
<trkpt lat="25.143856" lon="101.874534">
<time>2016-10-07T02:50:12Z</time></trkpt>
<trkpt lat="25.143916" lon="101.874394">
<time>2016-10-07T02:50:13Z</time></trkpt>
<trkpt lat="25.143976" lon="101.874233">
<time>2016-10-07T02:50:14Z</time></trkpt>
<trkpt lat="25.143996" lon="101.874153">
<time>2016-10-07T02:50:15Z</time></trkpt>
<trkpt lat="25.144035" lon="101.874033">
<time>2016-10-07T02:50:16Z</time></trkpt>
<trkpt lat="25.144055" lon="101.873913">
<time>2016-10-07T02:50:17Z</time></trkpt>
<trkpt lat="25.144065" lon="101.873813">
<time>2016-10-07T02:50:18Z</time></trkpt>
<trkpt lat="25.144065" lon="101.873683">
<time>2016-10-07T02:50:19Z</time></trkpt>
<trkpt lat="25.144055" lon="101.873542">
<time>2016-10-07T02:50:20Z</time></trkpt>
<trkpt lat="25.144035" lon="101.873362">
<time>2016-10-07T02:50:21Z</time></trkpt>
<trkpt lat="25.144015" lon="101.873172">
<time>2016-10-07T02:50:22Z</time></trkpt>
<trkpt lat="25.143994" lon="101.872932">
<time>2016-10-07T02:50:23Z</time></trkpt>
<trkpt lat="25.143954" lon="101.872671">
<time>2016-10-07T02:50:24Z</time></trkpt>
<trkpt lat="25.143934" lon="101.872561">
<time>2016-10-07T02:50:25Z</time></trkpt>
<trkpt lat="25.143904" lon="101.872441">
<time>2016-10-07T02:50:26Z</time></trkpt>
<trkpt lat="25.143864" lon="101.872341">
<time>2016-10-07T02:50:27Z</time></trkpt>
<trkpt lat="25.143804" lon="101.872231">
<time>2016-10-07T02:50:28Z</time></trkpt>
<trkpt lat="25.143753" lon="101.87217">
<time>2016-10-07T02:50:29Z</time></trkpt>
<trkpt lat="25.143603" lon="101.87202">
<time>2016-10-07T02:50:30Z</time></trkpt>
<trkpt lat="25.143503" lon="101.87193">
<time>2016-10-07T02:50:31Z</time></trkpt>
<trkpt lat="25.143383" lon="101.87183">
<time>2016-10-07T02:50:32Z</time></trkpt>
<trkpt lat="25.143283" lon="101.87174">
<time>2016-10-07T02:50:33Z</time></trkpt>
<trkpt lat="25.143213" lon="101.87169">
<time>2016-10-07T02:50:34Z</time></trkpt>
<trkpt lat="25.143113" lon="101.87162">
<time>2016-10-07T02:50:35Z</time></trkpt>
<trkpt lat="25.143063" lon="101.8716">
<time>2016-10-07T02:50:36Z</time></trkpt>
<trkpt lat="25.143023" lon="101.87158">
<time>2016-10-07T02:50:37Z</time></trkpt>
<trkpt lat="25.142983" lon="101.87157">
<time>2016-10-07T02:50:38Z</time></trkpt>
<trkpt lat="25.142943" lon="101.87157">
<time>2016-10-07T02:50:39Z</time></trkpt>
<trkpt lat="25.142903" lon="101.87157">
<time>2016-10-07T02:50:40Z</time></trkpt>
<trkpt lat="25.142853" lon="101.87158">
<time>2016-10-07T02:50:41Z</time></trkpt>
<trkpt lat="25.142793" lon="101.8716">
<time>2016-10-07T02:50:42Z</time></trkpt>
<trkpt lat="25.142753" lon="101.87162">
<time>2016-10-07T02:50:43Z</time></trkpt>
<trkpt lat="25.142713" lon="101.87164">
<time>2016-10-07T02:50:44Z</time></trkpt>
<trkpt lat="25.142673" lon="101.87168">
<time>2016-10-07T02:50:45Z</time></trkpt>
<trkpt lat="25.142623" lon="101.87174">
<time>2016-10-07T02:50:46Z</time></trkpt>
<trkpt lat="25.142493" lon="101.87189">
<time>2016-10-07T02:50:47Z</time></trkpt>
<trkpt lat="25.142383" lon="101.87203">
<time>2016-10-07T02:50:48Z</time></trkpt>
<trkpt lat="25.142264" lon="101.87218">
<time>2016-10-07T02:50:49Z</time></trkpt>
<trkpt lat="25.142054" lon="101.872381">
<time>2016-10-07T02:50:50Z</time></trkpt>
<trkpt lat="25.142004" lon="101.872441">
<time>2016-10-07T02:50:51Z</time></trkpt>
<trkpt lat="25.141954" lon="101.872471">
<time>2016-10-07T02:50:52Z</time></trkpt>
<trkpt lat="25.141904" lon="101.872501">
<time>2016-10-07T02:50:53Z</time></trkpt>
<trkpt lat="25.141834" lon="101.872521">
<time>2016-10-07T02:50:54Z</time></trkpt>
<trkpt lat="25.141784" lon="101.872531">
<time>2016-10-07T02:50:55Z</time></trkpt>
<trkpt lat="25.141744" lon="101.872531">
<time>2016-10-07T02:50:56Z</time></trkpt>
<trkpt lat="25.141684" lon="101.872521">
<time>2016-10-07T02:50:57Z</time></trkpt>
<trkpt lat="25.141644" lon="101.872511">
<time>2016-10-07T02:50:58Z</time></trkpt>
<trkpt lat="25.141584" lon="101.872491">
<time>2016-10-07T02:50:59Z</time></trkpt>
<trkpt lat="25.141504" lon="101.872451">
<time>2016-10-07T02:51:00Z</time></trkpt>
<trkpt lat="25.141454" lon="101.872411">
<time>2016-10-07T02:51:01Z</time></trkpt>
<trkpt lat="25.141384" lon="101.872341">
<time>2016-10-07T02:51:02Z</time></trkpt>
<trkpt lat="25.141304" lon="101.872241">
<time>2016-10-07T02:51:03Z</time></trkpt>
<trkpt lat="25.141173" lon="101.87206">
<time>2016-10-07T02:51:04Z</time></trkpt>
<trkpt lat="25.141053" lon="101.87187">
<time>2016-10-07T02:51:05Z</time></trkpt>
<trkpt lat="25.140863" lon="101.87161">
<time>2016-10-07T02:51:06Z</time></trkpt>
<trkpt lat="25.140633" lon="101.871289">
<time>2016-10-07T02:51:07Z</time></trkpt>
<trkpt lat="25.140422" lon="101.870969">
<time>2016-10-07T02:51:08Z</time></trkpt>
<trkpt lat="25.140152" lon="101.870548">
<time>2016-10-07T02:51:09Z</time></trkpt>
<trkpt lat="25.140012" lon="101.870338">
<time>2016-10-07T02:51:10Z</time></trkpt>
<trkpt lat="25.139942" lon="101.870258">
<time>2016-10-07T02:51:11Z</time></trkpt>
<trkpt lat="25.139871" lon="101.870167">
<time>2016-10-07T02:51:12Z</time></trkpt>
<trkpt lat="25.139761" lon="101.870067">
<time>2016-10-07T02:51:13Z</time></trkpt>
<trkpt lat="25.139681" lon="101.869997">
<time>2016-10-07T02:51:14Z</time></trkpt>
<trkpt lat="25.139591" lon="101.869937">
<time>2016-10-07T02:51:15Z</time></trkpt>
<trkpt lat="25.139501" lon="101.869887">
<time>2016-10-07T02:51:16Z</time></trkpt>
<trkpt lat="25.139401" lon="101.869827">
<time>2016-10-07T02:51:17Z</time></trkpt>
<trkpt lat="25.139251" lon="101.869747">
<time>2016-10-07T02:51:18Z</time></trkpt>
<trkpt lat="25.139081" lon="101.869667">
<time>2016-10-07T02:51:19Z</time></trkpt>
<trkpt lat="25.138851" lon="101.869556">
<time>2016-10-07T02:51:20Z</time></trkpt>
<trkpt lat="25.138631" lon="101.869446">
<time>2016-10-07T02:51:21Z</time></trkpt>
<trkpt lat="25.138451" lon="101.869356">
<time>2016-10-07T02:51:22Z</time></trkpt>
<trkpt lat="25.13816" lon="101.869186">
<time>2016-10-07T02:51:23Z</time></trkpt>
<trkpt lat="25.13792" lon="101.869056">
<time>2016-10-07T02:51:24Z</time></trkpt>
<trkpt lat="25.13767" lon="101.868936">
<time>2016-10-07T02:51:25Z</time></trkpt>
<trkpt lat="25.13737" lon="101.868765">
<time>2016-10-07T02:51:26Z</time></trkpt>
<trkpt lat="25.13717" lon="101.868645">
<time>2016-10-07T02:51:27Z</time></trkpt>
<trkpt lat="25.13704" lon="101.868565">
<time>2016-10-07T02:51:28Z</time></trkpt>
<trkpt lat="25.13689" lon="101.868465">
<time>2016-10-07T02:51:29Z</time></trkpt>
<trkpt lat="25.136759" lon="101.868375">
<time>2016-10-07T02:51:30Z</time></trkpt>
<trkpt lat="25.136639" lon="101.868274">
<time>2016-10-07T02:51:31Z</time></trkpt>
<trkpt lat="25.136559" lon="101.868194">
<time>2016-10-07T02:51:32Z</time></trkpt>
<trkpt lat="25.136519" lon="101.868144">
<time>2016-10-07T02:51:33Z</time></trkpt>
<trkpt lat="25.136479" lon="101.868084">
<time>2016-10-07T02:51:34Z</time></trkpt>
<trkpt lat="25.136449" lon="101.868014">
<time>2016-10-07T02:51:35Z</time></trkpt>
<trkpt lat="25.136419" lon="101.867924">
<time>2016-10-07T02:51:36Z</time></trkpt>
<trkpt lat="25.136399" lon="101.867864">
<time>2016-10-07T02:51:37Z</time></trkpt>
<trkpt lat="25.136389" lon="101.867724">
<time>2016-10-07T02:51:38Z</time></trkpt>
<trkpt lat="25.136379" lon="101.867603">
<time>2016-10-07T02:51:39Z</time></trkpt>
<trkpt lat="25.136388" lon="101.867443">
<time>2016-10-07T02:51:40Z</time></trkpt>
<trkpt lat="25.136408" lon="101.867293">
<time>2016-10-07T02:51:41Z</time></trkpt>
<trkpt lat="25.136418" lon="101.867203">
<time>2016-10-07T02:51:42Z</time></trkpt>
<trkpt lat="25.136428" lon="101.867143">
<time>2016-10-07T02:51:43Z</time></trkpt>
<trkpt lat="25.136448" lon="101.867062">
<time>2016-10-07T02:51:44Z</time></trkpt>
<trkpt lat="25.136478" lon="101.867012">
<time>2016-10-07T02:51:45Z</time></trkpt>
<trkpt lat="25.136518" lon="101.866942">
<time>2016-10-07T02:51:46Z</time></trkpt>
<trkpt lat="25.136578" lon="101.866872">
<time>2016-10-07T02:51:47Z</time></trkpt>
<trkpt lat="25.136638" lon="101.866822">
<time>2016-10-07T02:51:48Z</time></trkpt>
<trkpt lat="25.136757" lon="101.866732">
<time>2016-10-07T02:51:49Z</time></trkpt>
<trkpt lat="25.136927" lon="101.866622">
<time>2016-10-07T02:51:50Z</time></trkpt>
<trkpt lat="25.137167" lon="101.866471">
<time>2016-10-07T02:51:51Z</time></trkpt>
<trkpt lat="25.137367" lon="101.866331">
<time>2016-10-07T02:51:52Z</time></trkpt>
<trkpt lat="25.137607" lon="101.866171">
<time>2016-10-07T02:51:53Z</time></trkpt>
<trkpt lat="25.137866" lon="101.865981">
<time>2016-10-07T02:51:54Z</time></trkpt>
<trkpt lat="25.138246" lon="101.86572">
<time>2016-10-07T02:51:55Z</time></trkpt>
<trkpt lat="25.138516" lon="101.86554">
<time>2016-10-07T02:51:56Z</time></trkpt>
<trkpt lat="25.138606" lon="101.86546">
<time>2016-10-07T02:51:57Z</time></trkpt>
<trkpt lat="25.138666" lon="101.8654">
<time>2016-10-07T02:51:58Z</time></trkpt>
<trkpt lat="25.138725" lon="101.865339">
<time>2016-10-07T02:51:59Z</time></trkpt>
<trkpt lat="25.138765" lon="101.865269">
<time>2016-10-07T02:52:00Z</time></trkpt>
<trkpt lat="25.138805" lon="101.865199">
<time>2016-10-07T02:52:01Z</time></trkpt>
<trkpt lat="25.138835" lon="101.865129">
<time>2016-10-07T02:52:02Z</time></trkpt>
<trkpt lat="25.138855" lon="101.865029">
<time>2016-10-07T02:52:03Z</time></trkpt>
<trkpt lat="25.138875" lon="101.864939">
<time>2016-10-07T02:52:04Z</time></trkpt>
<trkpt lat="25.138875" lon="101.864818">
<time>2016-10-07T02:52:05Z</time></trkpt>
<trkpt lat="25.138875" lon="101.864718">
<time>2016-10-07T02:52:06Z</time></trkpt>
<trkpt lat="25.138854" lon="101.864538">
<time>2016-10-07T02:52:07Z</time></trkpt>
<trkpt lat="25.138844" lon="101.864448">
<time>2016-10-07T02:52:08Z</time></trkpt>
<trkpt lat="25.138824" lon="101.864328">
<time>2016-10-07T02:52:09Z</time></trkpt>
<trkpt lat="25.138794" lon="101.864227">
<time>2016-10-07T02:52:10Z</time></trkpt>
<trkpt lat="25.138734" lon="101.863997">
<time>2016-10-07T02:52:11Z</time></trkpt>
<trkpt lat="25.138693" lon="101.863857">
<time>2016-10-07T02:52:12Z</time></trkpt>
<trkpt lat="25.138603" lon="101.863586">
<time>2016-10-07T02:52:13Z</time></trkpt>
<trkpt lat="25.138533" lon="101.863376">
<time>2016-10-07T02:52:14Z</time></trkpt>
<trkpt lat="25.138513" lon="101.863276">
<time>2016-10-07T02:52:15Z</time></trkpt>
<trkpt lat="25.138493" lon="101.863196">
<time>2016-10-07T02:52:16Z</time></trkpt>
<trkpt lat="25.138483" lon="101.863136">
<time>2016-10-07T02:52:17Z</time></trkpt>
<trkpt lat="25.138472" lon="101.863055">
<time>2016-10-07T02:52:18Z</time></trkpt>
<trkpt lat="25.138482" lon="101.862975">
<time>2016-10-07T02:52:19Z</time></trkpt>
<trkpt lat="25.138492" lon="101.862895">
<time>2016-10-07T02:52:20Z</time></trkpt>
<trkpt lat="25.138502" lon="101.862825">
<time>2016-10-07T02:52:21Z</time></trkpt>
<trkpt lat="25.138532" lon="101.862735">
<time>2016-10-07T02:52:22Z</time></trkpt>
<trkpt lat="25.138572" lon="101.862645">
<time>2016-10-07T02:52:23Z</time></trkpt>
<trkpt lat="25.138632" lon="101.862544">
<time>2016-10-07T02:52:24Z</time></trkpt>
<trkpt lat="25.138662" lon="101.862504">
<time>2016-10-07T02:52:25Z</time></trkpt>
<trkpt lat="25.138712" lon="101.862464">
<time>2016-10-07T02:52:26Z</time></trkpt>
<trkpt lat="25.138791" lon="101.862394">
<time>2016-10-07T02:52:27Z</time></trkpt>
<trkpt lat="25.138921" lon="101.862314">
<time>2016-10-07T02:52:28Z</time></trkpt>
<trkpt lat="25.139061" lon="101.862224">
<time>2016-10-07T02:52:29Z</time></trkpt>
<trkpt lat="25.139151" lon="101.862144">
<time>2016-10-07T02:52:30Z</time></trkpt>
<trkpt lat="25.139231" lon="101.862064">
<time>2016-10-07T02:52:31Z</time></trkpt>
<trkpt lat="25.139341" lon="101.861913">
<time>2016-10-07T02:52:32Z</time></trkpt>
<trkpt lat="25.139421" lon="101.861803">
<time>2016-10-07T02:52:33Z</time></trkpt>
<trkpt lat="25.13952" lon="101.861643">
<time>2016-10-07T02:52:34Z</time></trkpt>
<trkpt lat="25.13968" lon="101.861412">
<time>2016-10-07T02:52:35Z</time></trkpt>
<trkpt lat="25.13984" lon="101.861182">
<time>2016-10-07T02:52:36Z</time></trkpt>
<trkpt lat="25.139959" lon="101.861012">
<time>2016-10-07T02:52:37Z</time></trkpt>
<trkpt lat="25.140239" lon="101.860651">
<time>2016-10-07T02:52:38Z</time></trkpt>
<trkpt lat="25.140399" lon="101.86042">
<time>2016-10-07T02:52:39Z</time></trkpt>
<trkpt lat="25.140608" lon="101.86014">
<time>2016-10-07T02:52:40Z</time></trkpt>
<trkpt lat="25.140758" lon="101.859909">
<time>2016-10-07T02:52:41Z</time></trkpt>
<trkpt lat="25.140927" lon="101.859629">
<time>2016-10-07T02:52:42Z</time></trkpt>
<trkpt lat="25.141107" lon="101.859328">
<time>2016-10-07T02:52:43Z</time></trkpt>
<trkpt lat="25.141296" lon="101.859018">
<time>2016-10-07T02:52:44Z</time></trkpt>
<trkpt lat="25.141506" lon="101.858657">
<time>2016-10-07T02:52:45Z</time></trkpt>
<trkpt lat="25.141586" lon="101.858517">
<time>2016-10-07T02:52:46Z</time></trkpt>
<trkpt lat="25.141665" lon="101.858356">
<time>2016-10-07T02:52:47Z</time></trkpt>
<trkpt lat="25.141685" lon="101.858296">
<time>2016-10-07T02:52:48Z</time></trkpt>
<trkpt lat="25.141715" lon="101.858216">
<time>2016-10-07T02:52:49Z</time></trkpt>
<trkpt lat="25.141725" lon="101.858156">
<time>2016-10-07T02:52:50Z</time></trkpt>
<trkpt lat="25.141735" lon="101.858076">
<time>2016-10-07T02:52:51Z</time></trkpt>
<trkpt lat="25.141735" lon="101.857996">
<time>2016-10-07T02:52:52Z</time></trkpt>
<trkpt lat="25.141725" lon="101.857926">
<time>2016-10-07T02:52:53Z</time></trkpt>
<trkpt lat="25.141715" lon="101.857855">
<time>2016-10-07T02:52:54Z</time></trkpt>
<trkpt lat="25.141695" lon="101.857785">
<time>2016-10-07T02:52:55Z</time></trkpt>
<trkpt lat="25.141664" lon="101.857705">
<time>2016-10-07T02:52:56Z</time></trkpt>
<trkpt lat="25.141604" lon="101.857595">
<time>2016-10-07T02:52:57Z</time></trkpt>
<trkpt lat="25.141554" lon="101.857505">
<time>2016-10-07T02:52:58Z</time></trkpt>
<trkpt lat="25.141444" lon="101.857324">
<time>2016-10-07T02:52:59Z</time></trkpt>
<trkpt lat="25.141374" lon="101.857234">
<time>2016-10-07T02:53:00Z</time></trkpt>
<trkpt lat="25.141284" lon="101.857144">
<time>2016-10-07T02:53:01Z</time></trkpt>
<trkpt lat="25.141183" lon="101.857044">
<time>2016-10-07T02:53:02Z</time></trkpt>
<trkpt lat="25.141063" lon="101.856964">
<time>2016-10-07T02:53:03Z</time></trkpt>
<trkpt lat="25.140873" lon="101.856813">
<time>2016-10-07T02:53:04Z</time></trkpt>
<trkpt lat="25.140753" lon="101.856733">
<time>2016-10-07T02:53:05Z</time></trkpt>
<trkpt lat="25.140523" lon="101.856583">
<time>2016-10-07T02:53:06Z</time></trkpt>
<trkpt lat="25.140403" lon="101.856513">
<time>2016-10-07T02:53:07Z</time></trkpt>
<trkpt lat="25.140273" lon="101.856453">
<time>2016-10-07T02:53:08Z</time></trkpt>
<trkpt lat="25.140203" lon="101.856433">
<time>2016-10-07T02:53:09Z</time></trkpt>
<trkpt lat="25.140143" lon="101.856423">
<time>2016-10-07T02:53:10Z</time></trkpt>
<trkpt lat="25.140083" lon="101.856413">
<time>2016-10-07T02:53:11Z</time></trkpt>
<trkpt lat="25.140003" lon="101.856403">
<time>2016-10-07T02:53:12Z</time></trkpt>
<trkpt lat="25.139933" lon="101.856403">
<time>2016-10-07T02:53:13Z</time></trkpt>
<trkpt lat="25.139843" lon="101.856403">
<time>2016-10-07T02:53:14Z</time></trkpt>
<trkpt lat="25.139663" lon="101.856423">
<time>2016-10-07T02:53:15Z</time></trkpt>
<trkpt lat="25.139503" lon="101.856443">
<time>2016-10-07T02:53:16Z</time></trkpt>
<trkpt lat="25.139363" lon="101.856483">
<time>2016-10-07T02:53:17Z</time></trkpt>
<trkpt lat="25.139083" lon="101.856553">
<time>2016-10-07T02:53:18Z</time></trkpt>
<trkpt lat="25.138893" lon="101.856583">
<time>2016-10-07T02:53:19Z</time></trkpt>
<trkpt lat="25.138693" lon="101.856613">
<time>2016-10-07T02:53:20Z</time></trkpt>
<trkpt lat="25.138453" lon="101.856633">
<time>2016-10-07T02:53:21Z</time></trkpt>
<trkpt lat="25.138313" lon="101.856623">
<time>2016-10-07T02:53:22Z</time></trkpt>
<trkpt lat="25.138263" lon="101.856613">
<time>2016-10-07T02:53:23Z</time></trkpt>
<trkpt lat="25.138203" lon="101.856603">
<time>2016-10-07T02:53:24Z</time></trkpt>
<trkpt lat="25.138153" lon="101.856593">
<time>2016-10-07T02:53:25Z</time></trkpt>
<trkpt lat="25.138113" lon="101.856573">
<time>2016-10-07T02:53:26Z</time></trkpt>
<trkpt lat="25.138053" lon="101.856523">
<time>2016-10-07T02:53:27Z</time></trkpt>
<trkpt lat="25.138003" lon="101.856473">
<time>2016-10-07T02:53:28Z</time></trkpt>
<trkpt lat="25.137963" lon="101.856423">
<time>2016-10-07T02:53:29Z</time></trkpt>
<trkpt lat="25.137903" lon="101.856313">
<time>2016-10-07T02:53:30Z</time></trkpt>
<trkpt lat="25.137822" lon="101.856142">
<time>2016-10-07T02:53:31Z</time></trkpt>
<trkpt lat="25.137752" lon="101.855992">
<time>2016-10-07T02:53:32Z</time></trkpt>
<trkpt lat="25.137642" lon="101.855791">
<time>2016-10-07T02:53:33Z</time></trkpt>
<trkpt lat="25.137521" lon="101.855591">
<time>2016-10-07T02:53:34Z</time></trkpt>
<trkpt lat="25.137401" lon="101.855421">
<time>2016-10-07T02:53:35Z</time></trkpt>
<trkpt lat="25.137251" lon="101.85519">
<time>2016-10-07T02:53:36Z</time></trkpt>
<trkpt lat="25.137111" lon="101.855">
<time>2016-10-07T02:53:37Z</time></trkpt>
<trkpt lat="25.13694" lon="101.854769">
<time>2016-10-07T02:53:38Z</time></trkpt>
<trkpt lat="25.13681" lon="101.854609">
<time>2016-10-07T02:53:39Z</time></trkpt>
<trkpt lat="25.13667" lon="101.854449">
<time>2016-10-07T02:53:40Z</time></trkpt>
<trkpt lat="25.13657" lon="101.854359">
<time>2016-10-07T02:53:41Z</time></trkpt>
<trkpt lat="25.136459" lon="101.854268">
<time>2016-10-07T02:53:42Z</time></trkpt>
<trkpt lat="25.136389" lon="101.854218">
<time>2016-10-07T02:53:43Z</time></trkpt>
<trkpt lat="25.136279" lon="101.854158">
<time>2016-10-07T02:53:44Z</time></trkpt>
<trkpt lat="25.136199" lon="101.854128">
<time>2016-10-07T02:53:45Z</time></trkpt>
<trkpt lat="25.136039" lon="101.854078">
<time>2016-10-07T02:53:46Z</time></trkpt>
<trkpt lat="25.135919" lon="101.854048">
<time>2016-10-07T02:53:47Z</time></trkpt>
<trkpt lat="25.135679" lon="101.853998">
<time>2016-10-07T02:53:48Z</time></trkpt>
<trkpt lat="25.135409" lon="101.853948">
<time>2016-10-07T02:53:49Z</time></trkpt>
<trkpt lat="25.135149" lon="101.853908">
<time>2016-10-07T02:53:50Z</time></trkpt>
<trkpt lat="25.134669" lon="101.853838">
<time>2016-10-07T02:53:51Z</time></trkpt>
<trkpt lat="25.134119" lon="101.853747">
<time>2016-10-07T02:53:52Z</time></trkpt>
<trkpt lat="25.133589" lon="101.853597">
<time>2016-10-07T02:53:53Z</time></trkpt>
<trkpt lat="25.133388" lon="101.853547">
<time>2016-10-07T02:53:54Z</time></trkpt>
<trkpt lat="25.132868" lon="101.853407">
<time>2016-10-07T02:53:55Z</time></trkpt>
<trkpt lat="25.132628" lon="101.853327">
<time>2016-10-07T02:53:56Z</time></trkpt>
<trkpt lat="25.132258" lon="101.853196">
<time>2016-10-07T02:53:57Z</time></trkpt>
<trkpt lat="25.131928" lon="101.853086">
<time>2016-10-07T02:53:58Z</time></trkpt>
<trkpt lat="25.131738" lon="101.853006">
<time>2016-10-07T02:53:59Z</time></trkpt>
<trkpt lat="25.131458" lon="101.852886">
<time>2016-10-07T02:54:00Z</time></trkpt>
<trkpt lat="25.131207" lon="101.852776">
<time>2016-10-07T02:54:01Z</time></trkpt>
<trkpt lat="25.130797" lon="101.852555">
<time>2016-10-07T02:54:02Z</time></trkpt>
<trkpt lat="25.130257" lon="101.852264">
<time>2016-10-07T02:54:03Z</time></trkpt>
<trkpt lat="25.130016" lon="101.852134">
<time>2016-10-07T02:54:04Z</time></trkpt>
<trkpt lat="25.129766" lon="101.851984">
<time>2016-10-07T02:54:05Z</time></trkpt>
<trkpt lat="25.129496" lon="101.851763">
<time>2016-10-07T02:54:06Z</time></trkpt>
<trkpt lat="25.129246" lon="101.851553">
<time>2016-10-07T02:54:07Z</time></trkpt>
<trkpt lat="25.128955" lon="101.851303">
<time>2016-10-07T02:54:08Z</time></trkpt>
<trkpt lat="25.128625" lon="101.851012">
<time>2016-10-07T02:54:09Z</time></trkpt>
<trkpt lat="25.128374" lon="101.850801">
<time>2016-10-07T02:54:10Z</time></trkpt>
<trkpt lat="25.128194" lon="101.850671">
<time>2016-10-07T02:54:11Z</time></trkpt>
<trkpt lat="25.128114" lon="101.850621">
<time>2016-10-07T02:54:12Z</time></trkpt>
<trkpt lat="25.128004" lon="101.850561">
<time>2016-10-07T02:54:13Z</time></trkpt>
<trkpt lat="25.127954" lon="101.850541">
<time>2016-10-07T02:54:14Z</time></trkpt>
<trkpt lat="25.127904" lon="101.850521">
<time>2016-10-07T02:54:15Z</time></trkpt>
<trkpt lat="25.127784" lon="101.850471">
<time>2016-10-07T02:54:16Z</time></trkpt>
<trkpt lat="25.127684" lon="101.850451">
<time>2016-10-07T02:54:17Z</time></trkpt>
<trkpt lat="25.127594" lon="101.850431">
<time>2016-10-07T02:54:18Z</time></trkpt>
<trkpt lat="25.127434" lon="101.850411">
<time>2016-10-07T02:54:19Z</time></trkpt>
<trkpt lat="25.127284" lon="101.850391">
<time>2016-10-07T02:54:20Z</time></trkpt>
<trkpt lat="25.127184" lon="101.850391">
<time>2016-10-07T02:54:21Z</time></trkpt>
<trkpt lat="25.126794" lon="101.850381">
<time>2016-10-07T02:54:22Z</time></trkpt>
<trkpt lat="25.126424" lon="101.850391">
<time>2016-10-07T02:54:23Z</time></trkpt>
<trkpt lat="25.126294" lon="101.850391">
<time>2016-10-07T02:54:24Z</time></trkpt>
<trkpt lat="25.126124" lon="101.850381">
<time>2016-10-07T02:54:25Z</time></trkpt>
<trkpt lat="25.126024" lon="101.850361">
<time>2016-10-07T02:54:26Z</time></trkpt>
<trkpt lat="25.125934" lon="101.850351">
<time>2016-10-07T02:54:27Z</time></trkpt>
<trkpt lat="25.125804" lon="101.85029">
<time>2016-10-07T02:54:28Z</time></trkpt>
<trkpt lat="25.125704" lon="101.85024">
<time>2016-10-07T02:54:29Z</time></trkpt>
<trkpt lat="25.125513" lon="101.85013">
<time>2016-10-07T02:54:30Z</time></trkpt>
<trkpt lat="25.125273" lon="101.84998">
<time>2016-10-07T02:54:31Z</time></trkpt>
<trkpt lat="25.124983" lon="101.849789">
<time>2016-10-07T02:54:32Z</time></trkpt>
<trkpt lat="25.124763" lon="101.849629">
<time>2016-10-07T02:54:33Z</time></trkpt>
<trkpt lat="25.124642" lon="101.849509">
<time>2016-10-07T02:54:34Z</time></trkpt>
<trkpt lat="25.124542" lon="101.849409">
<time>2016-10-07T02:54:35Z</time></trkpt>
<trkpt lat="25.124442" lon="101.849288">
<time>2016-10-07T02:54:36Z</time></trkpt>
<trkpt lat="25.124342" lon="101.849128">
<time>2016-10-07T02:54:37Z</time></trkpt>
<trkpt lat="25.124211" lon="101.848888">
<time>2016-10-07T02:54:38Z</time></trkpt>
<trkpt lat="25.124011" lon="101.848527">
<time>2016-10-07T02:54:39Z</time></trkpt>
<trkpt lat="25.123901" lon="101.848316">
<time>2016-10-07T02:54:40Z</time></trkpt>
<trkpt lat="25.12382" lon="101.848146">
<time>2016-10-07T02:54:41Z</time></trkpt>
<trkpt lat="25.12378" lon="101.848046">
<time>2016-10-07T02:54:42Z</time></trkpt>
<trkpt lat="25.12376" lon="101.847976">
<time>2016-10-07T02:54:43Z</time></trkpt>
<trkpt lat="25.12375" lon="101.847885">
<time>2016-10-07T02:54:44Z</time></trkpt>
<trkpt lat="25.12374" lon="101.847815">
<time>2016-10-07T02:54:45Z</time></trkpt>
<trkpt lat="25.123739" lon="101.847695">
<time>2016-10-07T02:54:46Z</time></trkpt>
<trkpt lat="25.123769" lon="101.847474">
<time>2016-10-07T02:54:47Z</time></trkpt>
<trkpt lat="25.123799" lon="101.847284">
<time>2016-10-07T02:54:48Z</time></trkpt>
<trkpt lat="25.123858" lon="101.847064">
<time>2016-10-07T02:54:49Z</time></trkpt>
<trkpt lat="25.123878" lon="101.846993">
<time>2016-10-07T02:54:50Z</time></trkpt>
<trkpt lat="25.123908" lon="101.846913">
<time>2016-10-07T02:54:51Z</time></trkpt>
<trkpt lat="25.123948" lon="101.846823">
<time>2016-10-07T02:54:52Z</time></trkpt>
<trkpt lat="25.124008" lon="101.846723">
<time>2016-10-07T02:54:53Z</time></trkpt>
<trkpt lat="25.124147" lon="101.846532">
<time>2016-10-07T02:54:54Z</time></trkpt>
<trkpt lat="25.124297" lon="101.846342">
<time>2016-10-07T02:54:55Z</time></trkpt>
<trkpt lat="25.124407" lon="101.846242">
<time>2016-10-07T02:54:56Z</time></trkpt>
<trkpt lat="25.124527" lon="101.846121">
<time>2016-10-07T02:54:57Z</time></trkpt>
<trkpt lat="25.124736" lon="101.845951">
<time>2016-10-07T02:54:58Z</time></trkpt>
<trkpt lat="25.125046" lon="101.845701">
<time>2016-10-07T02:54:59Z</time></trkpt>
<trkpt lat="25.125146" lon="101.84559">
<time>2016-10-07T02:55:00Z</time></trkpt>
<trkpt lat="25.125246" lon="101.84548">
<time>2016-10-07T02:55:01Z</time></trkpt>
<trkpt lat="25.125415" lon="101.84526">
<time>2016-10-07T02:55:02Z</time></trkpt>
<trkpt lat="25.125655" lon="101.844949">
<time>2016-10-07T02:55:03Z</time></trkpt>
<trkpt lat="25.125884" lon="101.844658">
<time>2016-10-07T02:55:04Z</time></trkpt>
<trkpt lat="25.125974" lon="101.844508">
<time>2016-10-07T02:55:05Z</time></trkpt>
<trkpt lat="25.126014" lon="101.844428">
<time>2016-10-07T02:55:06Z</time></trkpt>
<trkpt lat="25.126053" lon="101.844327">
<time>2016-10-07T02:55:07Z</time></trkpt>
<trkpt lat="25.126093" lon="101.844217">
<time>2016-10-07T02:55:08Z</time></trkpt>
<trkpt lat="25.126123" lon="101.844117">
<time>2016-10-07T02:55:09Z</time></trkpt>
<trkpt lat="25.126163" lon="101.843977">
<time>2016-10-07T02:55:10Z</time></trkpt>
<trkpt lat="25.126202" lon="101.843786">
<time>2016-10-07T02:55:11Z</time></trkpt>
<trkpt lat="25.126222" lon="101.843636">
<time>2016-10-07T02:55:12Z</time></trkpt>
<trkpt lat="25.126222" lon="101.843516">
<time>2016-10-07T02:55:13Z</time></trkpt>
<trkpt lat="25.126222" lon="101.843456">
<time>2016-10-07T02:55:14Z</time></trkpt>
<trkpt lat="25.126212" lon="101.843365">
<time>2016-10-07T02:55:15Z</time></trkpt>
<trkpt lat="25.126202" lon="101.843305">
<time>2016-10-07T02:55:16Z</time></trkpt>
<trkpt lat="25.126182" lon="101.843265">
<time>2016-10-07T02:55:17Z</time></trkpt>
<trkpt lat="25.126151" lon="101.843225">
<time>2016-10-07T02:55:18Z</time></trkpt>
<trkpt lat="25.126121" lon="101.843165">
<time>2016-10-07T02:55:19Z</time></trkpt>
<trkpt lat="25.126081" lon="101.843115">
<time>2016-10-07T02:55:20Z</time></trkpt>
<trkpt lat="25.126031" lon="101.843065">
<time>2016-10-07T02:55:21Z</time></trkpt>
<trkpt lat="25.125951" lon="101.842984">
<time>2016-10-07T02:55:22Z</time></trkpt>
<trkpt lat="25.125741" lon="101.842834">
<time>2016-10-07T02:55:23Z</time></trkpt>
<trkpt lat="25.125501" lon="101.842694">
<time>2016-10-07T02:55:24Z</time></trkpt>
<trkpt lat="25.12537" lon="101.842634">
<time>2016-10-07T02:55:25Z</time></trkpt>
<trkpt lat="25.12514" lon="101.842554">
<time>2016-10-07T02:55:26Z</time></trkpt>
<trkpt lat="25.12489" lon="101.842473">
<time>2016-10-07T02:55:27Z</time></trkpt>
<trkpt lat="25.12453" lon="101.842383">
<time>2016-10-07T02:55:28Z</time></trkpt>
<trkpt lat="25.12424" lon="101.842323">
<time>2016-10-07T02:55:29Z</time></trkpt>
<trkpt lat="25.12378" lon="101.842233">
<time>2016-10-07T02:55:30Z</time></trkpt>
<trkpt lat="25.12352" lon="101.842173">
<time>2016-10-07T02:55:31Z</time></trkpt>
<trkpt lat="25.12342" lon="101.842143">
<time>2016-10-07T02:55:32Z</time></trkpt>
<trkpt lat="25.12324" lon="101.842093">
<time>2016-10-07T02:55:33Z</time></trkpt>
<trkpt lat="25.123009" lon="101.841982">
<time>2016-10-07T02:55:34Z</time></trkpt>
<trkpt lat="25.122899" lon="101.841932">
<time>2016-10-07T02:55:35Z</time></trkpt>
<trkpt lat="25.122559" lon="101.841742">
<time>2016-10-07T02:55:36Z</time></trkpt>
<trkpt lat="25.122449" lon="101.841672">
<time>2016-10-07T02:55:37Z</time></trkpt>
<trkpt lat="25.122379" lon="101.841632">
<time>2016-10-07T02:55:38Z</time></trkpt>
<trkpt lat="25.122309" lon="101.841571">
<time>2016-10-07T02:55:39Z</time></trkpt>
<trkpt lat="25.122229" lon="101.841481">
<time>2016-10-07T02:55:40Z</time></trkpt>
<trkpt lat="25.122189" lon="101.841421">
<time>2016-10-07T02:55:41Z</time></trkpt>
<trkpt lat="25.122128" lon="101.841341">
<time>2016-10-07T02:55:42Z</time></trkpt>
<trkpt lat="25.122098" lon="101.841271">
<time>2016-10-07T02:55:43Z</time></trkpt>
<trkpt lat="25.122048" lon="101.84114">
<time>2016-10-07T02:55:44Z</time></trkpt>
<trkpt lat="25.121998" lon="101.84098">
<time>2016-10-07T02:55:45Z</time></trkpt>
<trkpt lat="25.121927" lon="101.84076">
<time>2016-10-07T02:55:46Z</time></trkpt>
<trkpt lat="25.121897" lon="101.840689">
<time>2016-10-07T02:55:47Z</time></trkpt>
<trkpt lat="25.121877" lon="101.840619">
<time>2016-10-07T02:55:48Z</time></trkpt>
<trkpt lat="25.121817" lon="101.840519">
<time>2016-10-07T02:55:49Z</time></trkpt>
<trkpt lat="25.121787" lon="101.840469">
<time>2016-10-07T02:55:50Z</time></trkpt>
<trkpt lat="25.121737" lon="101.840419">
<time>2016-10-07T02:55:51Z</time></trkpt>
<trkpt lat="25.121687" lon="101.840379">
<time>2016-10-07T02:55:52Z</time></trkpt>
<trkpt lat="25.121637" lon="101.840339">
<time>2016-10-07T02:55:53Z</time></trkpt>
<trkpt lat="25.121557" lon="101.840309">
<time>2016-10-07T02:55:54Z</time></trkpt>
<trkpt lat="25.121416" lon="101.840258">
<time>2016-10-07T02:55:55Z</time></trkpt>
<trkpt lat="25.121196" lon="101.840208">
<time>2016-10-07T02:55:56Z</time></trkpt>
<trkpt lat="25.120836" lon="101.840148">
<time>2016-10-07T02:55:57Z</time></trkpt>
<trkpt lat="25.120686" lon="101.840118">
<time>2016-10-07T02:55:58Z</time></trkpt>
<trkpt lat="25.120546" lon="101.840078">
<time>2016-10-07T02:55:59Z</time></trkpt>
<trkpt lat="25.120476" lon="101.840048">
<time>2016-10-07T02:56:00Z</time></trkpt>
<trkpt lat="25.120406" lon="101.840008">
<time>2016-10-07T02:56:01Z</time></trkpt>
<trkpt lat="25.120356" lon="101.839978">
<time>2016-10-07T02:56:02Z</time></trkpt>
<trkpt lat="25.120306" lon="101.839928">
<time>2016-10-07T02:56:03Z</time></trkpt>
<trkpt lat="25.120226" lon="101.839827">
<time>2016-10-07T02:56:04Z</time></trkpt>
<trkpt lat="25.120156" lon="101.839737">
<time>2016-10-07T02:56:05Z</time></trkpt>
<trkpt lat="25.120105" lon="101.839637">
<time>2016-10-07T02:56:06Z</time></trkpt>
<trkpt lat="25.120015" lon="101.839457">
<time>2016-10-07T02:56:07Z</time></trkpt>
<trkpt lat="25.119945" lon="101.839306">
<time>2016-10-07T02:56:08Z</time></trkpt>
<trkpt lat="25.119895" lon="101.839156">
<time>2016-10-07T02:56:09Z</time></trkpt>
<trkpt lat="25.119864" lon="101.839066">
<time>2016-10-07T02:56:10Z</time></trkpt>
<trkpt lat="25.119834" lon="101.838966">
<time>2016-10-07T02:56:11Z</time></trkpt>
<trkpt lat="25.119824" lon="101.838895">
<time>2016-10-07T02:56:12Z</time></trkpt>
<trkpt lat="25.119814" lon="101.838805">
<time>2016-10-07T02:56:13Z</time></trkpt>
<trkpt lat="25.119814" lon="101.838695">
<time>2016-10-07T02:56:14Z</time></trkpt>
<trkpt lat="25.119824" lon="101.838595">
<time>2016-10-07T02:56:15Z</time></trkpt>
<trkpt lat="25.119843" lon="101.838454">
<time>2016-10-07T02:56:16Z</time></trkpt>
<trkpt lat="25.119883" lon="101.838284">
<time>2016-10-07T02:56:17Z</time></trkpt>
<trkpt lat="25.119913" lon="101.838154">
<time>2016-10-07T02:56:18Z</time></trkpt>
<trkpt lat="25.119953" lon="101.838023">
<time>2016-10-07T02:56:19Z</time></trkpt>
<trkpt lat="25.120072" lon="101.837703">
<time>2016-10-07T02:56:20Z</time></trkpt>
<trkpt lat="25.120181" lon="101.837422">
<time>2016-10-07T02:56:21Z</time></trkpt>
<trkpt lat="25.120301" lon="101.837171">
<time>2016-10-07T02:56:22Z</time></trkpt>
<trkpt lat="25.120361" lon="101.836991">
<time>2016-10-07T02:56:23Z</time></trkpt>
<trkpt lat="25.12039" lon="101.836891">
<time>2016-10-07T02:56:24Z</time></trkpt>
<trkpt lat="25.12041" lon="101.836801">
<time>2016-10-07T02:56:25Z</time></trkpt>
<trkpt lat="25.12041" lon="101.83674">
<time>2016-10-07T02:56:26Z</time></trkpt>
<trkpt lat="25.12041" lon="101.83669">
<time>2016-10-07T02:56:27Z</time></trkpt>
<trkpt lat="25.1204" lon="101.83664">
<time>2016-10-07T02:56:28Z</time></trkpt>
<trkpt lat="25.12038" lon="101.83659">
<time>2016-10-07T02:56:29Z</time></trkpt>
<trkpt lat="25.12035" lon="101.83654">
<time>2016-10-07T02:56:30Z</time></trkpt>
<trkpt lat="25.12029" lon="101.83647">
<time>2016-10-07T02:56:31Z</time></trkpt>
<trkpt lat="25.12022" lon="101.83641">
<time>2016-10-07T02:56:32Z</time></trkpt>
<trkpt lat="25.120189" lon="101.8364">
<time>2016-10-07T02:56:33Z</time></trkpt>
<trkpt lat="25.120019" lon="101.836289">
<time>2016-10-07T02:56:34Z</time></trkpt>
<trkpt lat="25.119539" lon="101.836019">
<time>2016-10-07T02:56:35Z</time></trkpt>
<trkpt lat="25.119118" lon="101.835768">
<time>2016-10-07T02:56:36Z</time></trkpt>
<trkpt lat="25.118868" lon="101.835598">
<time>2016-10-07T02:56:37Z</time></trkpt>
<trkpt lat="25.118768" lon="101.835508">
<time>2016-10-07T02:56:38Z</time></trkpt>
<trkpt lat="25.118628" lon="101.835367">
<time>2016-10-07T02:56:39Z</time></trkpt>
<trkpt lat="25.118517" lon="101.835257">
<time>2016-10-07T02:56:40Z</time></trkpt>
<trkpt lat="25.118427" lon="101.835117">
<time>2016-10-07T02:56:41Z</time></trkpt>
<trkpt lat="25.118347" lon="101.835006">
<time>2016-10-07T02:56:42Z</time></trkpt>
<trkpt lat="25.118237" lon="101.834796">
<time>2016-10-07T02:56:43Z</time></trkpt>
<trkpt lat="25.118206" lon="101.834696">
<time>2016-10-07T02:56:44Z</time></trkpt>
<trkpt lat="25.118116" lon="101.834445">
<time>2016-10-07T02:56:45Z</time></trkpt>
<trkpt lat="25.118005" lon="101.834134">
<time>2016-10-07T02:56:46Z</time></trkpt>
<trkpt lat="25.117895" lon="101.833814">
<time>2016-10-07T02:56:47Z</time></trkpt>
<trkpt lat="25.117784" lon="101.833473">
<time>2016-10-07T02:56:48Z</time></trkpt>
<trkpt lat="25.117573" lon="101.832831">
<time>2016-10-07T02:56:49Z</time></trkpt>
<trkpt lat="25.117442" lon="101.83244">
<time>2016-10-07T02:56:50Z</time></trkpt>
<trkpt lat="25.117291" lon="101.831979">
<time>2016-10-07T02:56:51Z</time></trkpt>
<trkpt lat="25.117201" lon="101.831739">
<time>2016-10-07T02:56:52Z</time></trkpt>
<trkpt lat="25.117141" lon="101.831629">
<time>2016-10-07T02:56:53Z</time></trkpt>
<trkpt lat="25.11703" lon="101.831408">
<time>2016-10-07T02:56:54Z</time></trkpt>
<trkpt lat="25.11691" lon="101.831238">
<time>2016-10-07T02:56:55Z</time></trkpt>
<trkpt lat="25.11683" lon="101.831147">
<time>2016-10-07T02:56:56Z</time></trkpt>
<trkpt lat="25.11674" lon="101.831067">
<time>2016-10-07T02:56:57Z</time></trkpt>
<trkpt lat="25.11664" lon="101.830997">
<time>2016-10-07T02:56:58Z</time></trkpt>
<trkpt lat="25.11657" lon="101.830947">
<time>2016-10-07T02:56:59Z</time></trkpt>
<trkpt lat="25.11649" lon="101.830907">
<time>2016-10-07T02:57:00Z</time></trkpt>
<trkpt lat="25.116419" lon="101.830887">
<time>2016-10-07T02:57:01Z</time></trkpt>
<trkpt lat="25.116329" lon="101.830857">
<time>2016-10-07T02:57:02Z</time></trkpt>
<trkpt lat="25.116219" lon="101.830847">
<time>2016-10-07T02:57:03Z</time></trkpt>
<trkpt lat="25.116079" lon="101.830837">
<time>2016-10-07T02:57:04Z</time></trkpt>
<trkpt lat="25.115739" lon="101.830827">
<time>2016-10-07T02:57:05Z</time></trkpt>
<trkpt lat="25.115469" lon="101.830797">
<time>2016-10-07T02:57:06Z</time></trkpt>
<trkpt lat="25.115379" lon="101.830797">
<time>2016-10-07T02:57:07Z</time></trkpt>
<trkpt lat="25.115289" lon="101.830777">
<time>2016-10-07T02:57:08Z</time></trkpt>
<trkpt lat="25.115169" lon="101.830757">
<time>2016-10-07T02:57:09Z</time></trkpt>
<trkpt lat="25.115069" lon="101.830737">
<time>2016-10-07T02:57:10Z</time></trkpt>
<trkpt lat="25.114949" lon="101.830696">
<time>2016-10-07T02:57:11Z</time></trkpt>
<trkpt lat="25.114859" lon="101.830656">
<time>2016-10-07T02:57:12Z</time></trkpt>
<trkpt lat="25.114749" lon="101.830606">
<time>2016-10-07T02:57:13Z</time></trkpt>
<trkpt lat="25.114669" lon="101.830546">
<time>2016-10-07T02:57:14Z</time></trkpt>
<trkpt lat="25.114589" lon="101.830476">
<time>2016-10-07T02:57:15Z</time></trkpt>
<trkpt lat="25.114519" lon="101.830406">
<time>2016-10-07T02:57:16Z</time></trkpt>
<trkpt lat="25.114449" lon="101.830316">
<time>2016-10-07T02:57:17Z</time></trkpt>
<trkpt lat="25.114408" lon="101.830255">
<time>2016-10-07T02:57:18Z</time></trkpt>
<trkpt lat="25.114368" lon="101.830175">
<time>2016-10-07T02:57:19Z</time></trkpt>
<trkpt lat="25.114338" lon="101.830105">
<time>2016-10-07T02:57:20Z</time></trkpt>
<trkpt lat="25.114308" lon="101.830005">
<time>2016-10-07T02:57:21Z</time></trkpt>
<trkpt lat="25.114278" lon="101.829915">
<time>2016-10-07T02:57:22Z</time></trkpt>
<trkpt lat="25.114268" lon="101.829814">
<time>2016-10-07T02:57:23Z</time></trkpt>
<trkpt lat="25.114257" lon="101.829674">
<time>2016-10-07T02:57:24Z</time></trkpt>
<trkpt lat="25.114267" lon="101.829554">
<time>2016-10-07T02:57:25Z</time></trkpt>
<trkpt lat="25.114287" lon="101.829494">
<time>2016-10-07T02:57:26Z</time></trkpt>
<trkpt lat="25.114327" lon="101.829353">
<time>2016-10-07T02:57:27Z</time></trkpt>
<trkpt lat="25.114416" lon="101.829143">
<time>2016-10-07T02:57:28Z</time></trkpt>
<trkpt lat="25.114586" lon="101.828872">
<time>2016-10-07T02:57:29Z</time></trkpt>
<trkpt lat="25.114725" lon="101.828662">
<time>2016-10-07T02:57:30Z</time></trkpt>
<trkpt lat="25.114865" lon="101.828471">
<time>2016-10-07T02:57:31Z</time></trkpt>
<trkpt lat="25.115065" lon="101.828211">
<time>2016-10-07T02:57:32Z</time></trkpt>
<trkpt lat="25.115184" lon="101.82803">
<time>2016-10-07T02:57:33Z</time></trkpt>
<trkpt lat="25.115264" lon="101.82786">
<time>2016-10-07T02:57:34Z</time></trkpt>
<trkpt lat="25.115344" lon="101.827709">
<time>2016-10-07T02:57:35Z</time></trkpt>
<trkpt lat="25.115393" lon="101.827529">
<time>2016-10-07T02:57:36Z</time></trkpt>
<trkpt lat="25.115403" lon="101.827439">
<time>2016-10-07T02:57:37Z</time></trkpt>
<trkpt lat="25.115373" lon="101.827339">
<time>2016-10-07T02:57:38Z</time></trkpt>
<trkpt lat="25.115333" lon="101.827278">
<time>2016-10-07T02:57:39Z</time></trkpt>
<trkpt lat="25.115263" lon="101.827198">
<time>2016-10-07T02:57:40Z</time></trkpt>
<trkpt lat="25.115192" lon="101.827128">
<time>2016-10-07T02:57:41Z</time></trkpt>
<trkpt lat="25.115072" lon="101.827078">
<time>2016-10-07T02:57:42Z</time></trkpt>
<trkpt lat="25.114932" lon="101.827028">
<time>2016-10-07T02:57:43Z</time></trkpt>
<trkpt lat="25.114802" lon="101.826988">
<time>2016-10-07T02:57:44Z</time></trkpt>
<trkpt lat="25.114662" lon="101.826968">
<time>2016-10-07T02:57:45Z</time></trkpt>
<trkpt lat="25.114522" lon="101.826948">
<time>2016-10-07T02:57:46Z</time></trkpt>
<trkpt lat="25.114362" lon="101.826948">
<time>2016-10-07T02:57:47Z</time></trkpt>
<trkpt lat="25.114272" lon="101.826958">
<time>2016-10-07T02:57:48Z</time></trkpt>
<trkpt lat="25.114142" lon="101.827008">
<time>2016-10-07T02:57:49Z</time></trkpt>
<trkpt lat="25.114022" lon="101.827068">
<time>2016-10-07T02:57:50Z</time></trkpt>
<trkpt lat="25.113853" lon="101.827218">
<time>2016-10-07T02:57:51Z</time></trkpt>
<trkpt lat="25.113733" lon="101.827319">
<time>2016-10-07T02:57:52Z</time></trkpt>
<trkpt lat="25.113573" lon="101.827469">
<time>2016-10-07T02:57:53Z</time></trkpt>
<trkpt lat="25.113424" lon="101.827589">
<time>2016-10-07T02:57:54Z</time></trkpt>
<trkpt lat="25.113364" lon="101.827609">
<time>2016-10-07T02:57:55Z</time></trkpt>
<trkpt lat="25.113314" lon="101.827629">
<time>2016-10-07T02:57:56Z</time></trkpt>
<trkpt lat="25.113244" lon="101.827649">
<time>2016-10-07T02:57:57Z</time></trkpt>
<trkpt lat="25.113174" lon="101.827639">
<time>2016-10-07T02:57:58Z</time></trkpt>
<trkpt lat="25.113104" lon="101.827629">
<time>2016-10-07T02:57:59Z</time></trkpt>
<trkpt lat="25.113054" lon="101.827599">
<time>2016-10-07T02:58:00Z</time></trkpt>
<trkpt lat="25.112993" lon="101.827559">
<time>2016-10-07T02:58:01Z</time></trkpt>
<trkpt lat="25.112953" lon="101.827509">
<time>2016-10-07T02:58:02Z</time></trkpt>
<trkpt lat="25.112913" lon="101.827459">
<time>2016-10-07T02:58:03Z</time></trkpt>
<trkpt lat="25.112883" lon="101.827409">
<time>2016-10-07T02:58:04Z</time></trkpt>
<trkpt lat="25.112863" lon="101.827339">
<time>2016-10-07T02:58:05Z</time></trkpt>
<trkpt lat="25.112833" lon="101.827218">
<time>2016-10-07T02:58:06Z</time></trkpt>
<trkpt lat="25.112802" lon="101.826948">
<time>2016-10-07T02:58:07Z</time></trkpt>
<trkpt lat="25.112792" lon="101.826557">
<time>2016-10-07T02:58:08Z</time></trkpt>
<trkpt lat="25.112771" lon="101.826326">
<time>2016-10-07T02:58:09Z</time></trkpt>
<trkpt lat="25.112731" lon="101.826186">
<time>2016-10-07T02:58:10Z</time></trkpt>
<trkpt lat="25.112661" lon="101.826056">
<time>2016-10-07T02:58:11Z</time></trkpt>
<trkpt lat="25.112601" lon="101.825965">
<time>2016-10-07T02:58:12Z</time></trkpt>
<trkpt lat="25.11247" lon="101.825835">
<time>2016-10-07T02:58:13Z</time></trkpt>
<trkpt lat="25.11231" lon="101.825705">
<time>2016-10-07T02:58:14Z</time></trkpt>
<trkpt lat="25.11208" lon="101.825544">
<time>2016-10-07T02:58:15Z</time></trkpt>
<trkpt lat="25.1119" lon="101.825454">
<time>2016-10-07T02:58:16Z</time></trkpt>
<trkpt lat="25.111699" lon="101.825364">
<time>2016-10-07T02:58:17Z</time></trkpt>
<trkpt lat="25.111429" lon="101.825244">
<time>2016-10-07T02:58:18Z</time></trkpt>
<trkpt lat="25.110949" lon="101.825073">
<time>2016-10-07T02:58:19Z</time></trkpt>
<trkpt lat="25.110709" lon="101.824973">
<time>2016-10-07T02:58:20Z</time></trkpt>
<trkpt lat="25.110439" lon="101.824823">
<time>2016-10-07T02:58:21Z</time></trkpt>
<trkpt lat="25.110258" lon="101.824693">
<time>2016-10-07T02:58:22Z</time></trkpt>
<trkpt lat="25.110088" lon="101.824532">
<time>2016-10-07T02:58:23Z</time></trkpt>
<trkpt lat="25.109878" lon="101.824322">
<time>2016-10-07T02:58:24Z</time></trkpt>
<trkpt lat="25.109667" lon="101.824101">
<time>2016-10-07T02:58:25Z</time></trkpt>
<trkpt lat="25.109547" lon="101.823971">
<time>2016-10-07T02:58:26Z</time></trkpt>
<trkpt lat="25.109457" lon="101.82381">
<time>2016-10-07T02:58:27Z</time></trkpt>
<trkpt lat="25.109376" lon="101.82364">
<time>2016-10-07T02:58:28Z</time></trkpt>
<trkpt lat="25.109286" lon="101.82345">
<time>2016-10-07T02:58:29Z</time></trkpt>
<trkpt lat="25.109226" lon="101.823299">
<time>2016-10-07T02:58:30Z</time></trkpt>
<trkpt lat="25.109165" lon="101.823099">
<time>2016-10-07T02:58:31Z</time></trkpt>
<trkpt lat="25.109155" lon="101.822908">
<time>2016-10-07T02:58:32Z</time></trkpt>
<trkpt lat="25.109165" lon="101.822698">
<time>2016-10-07T02:58:33Z</time></trkpt>
<trkpt lat="25.109214" lon="101.822467">
<time>2016-10-07T02:58:34Z</time></trkpt>
<trkpt lat="25.109284" lon="101.822227">
<time>2016-10-07T02:58:35Z</time></trkpt>
<trkpt lat="25.109303" lon="101.822086">
<time>2016-10-07T02:58:36Z</time></trkpt>
<trkpt lat="25.109303" lon="101.821976">
<time>2016-10-07T02:58:37Z</time></trkpt>
<trkpt lat="25.109293" lon="101.821866">
<time>2016-10-07T02:58:38Z</time></trkpt>
<trkpt lat="25.109233" lon="101.821766">
<time>2016-10-07T02:58:39Z</time></trkpt>
<trkpt lat="25.109153" lon="101.821706">
<time>2016-10-07T02:58:40Z</time></trkpt>
<trkpt lat="25.109063" lon="101.821676">
<time>2016-10-07T02:58:41Z</time></trkpt>
<trkpt lat="25.108953" lon="101.821676">
<time>2016-10-07T02:58:42Z</time></trkpt>
<trkpt lat="25.108763" lon="101.821696">
<time>2016-10-07T02:58:43Z</time></trkpt>
<trkpt lat="25.108613" lon="101.821716">
<time>2016-10-07T02:58:44Z</time></trkpt>
<trkpt lat="25.108463" lon="101.821726">
<time>2016-10-07T02:58:45Z</time></trkpt>
<trkpt lat="25.108333" lon="101.821716">
<time>2016-10-07T02:58:46Z</time></trkpt>
<trkpt lat="25.108223" lon="101.821686">
<time>2016-10-07T02:58:47Z</time></trkpt>
<trkpt lat="25.108123" lon="101.821625">
<time>2016-10-07T02:58:48Z</time></trkpt>
<trkpt lat="25.108013" lon="101.821515">
<time>2016-10-07T02:58:49Z</time></trkpt>
<trkpt lat="25.107922" lon="101.821415">
<time>2016-10-07T02:58:50Z</time></trkpt>
<trkpt lat="25.107752" lon="101.821124">
<time>2016-10-07T02:58:51Z</time></trkpt>
<trkpt lat="25.107431" lon="101.820483">
<time>2016-10-07T02:58:52Z</time></trkpt>
<trkpt lat="25.1073" lon="101.820192">
<time>2016-10-07T02:58:53Z</time></trkpt>
<trkpt lat="25.10722" lon="101.819952">
<time>2016-10-07T02:58:54Z</time></trkpt>
<trkpt lat="25.107189" lon="101.819811">
<time>2016-10-07T02:58:55Z</time></trkpt>
<trkpt lat="25.107179" lon="101.819641">
<time>2016-10-07T02:58:56Z</time></trkpt>
<trkpt lat="25.107179" lon="101.81938">
<time>2016-10-07T02:58:57Z</time></trkpt>
<trkpt lat="25.107178" lon="101.81926">
<time>2016-10-07T02:58:58Z</time></trkpt>
<trkpt lat="25.107168" lon="101.81916">
<time>2016-10-07T02:58:59Z</time></trkpt>
<trkpt lat="25.107138" lon="101.819029">
<time>2016-10-07T02:59:00Z</time></trkpt>
<trkpt lat="25.107108" lon="101.818929">
<time>2016-10-07T02:59:01Z</time></trkpt>
<trkpt lat="25.107058" lon="101.818849">
<time>2016-10-07T02:59:02Z</time></trkpt>
<trkpt lat="25.106997" lon="101.818779">
<time>2016-10-07T02:59:03Z</time></trkpt>
<trkpt lat="25.106907" lon="101.818709">
<time>2016-10-07T02:59:04Z</time></trkpt>
<trkpt lat="25.106747" lon="101.818608">
<time>2016-10-07T02:59:05Z</time></trkpt>
<trkpt lat="25.106547" lon="101.818498">
<time>2016-10-07T02:59:06Z</time></trkpt>
<trkpt lat="25.106407" lon="101.818448">
<time>2016-10-07T02:59:07Z</time></trkpt>
<trkpt lat="25.106277" lon="101.818418">
<time>2016-10-07T02:59:08Z</time></trkpt>
<trkpt lat="25.106167" lon="101.818388">
<time>2016-10-07T02:59:09Z</time></trkpt>
<trkpt lat="25.106047" lon="101.818378">
<time>2016-10-07T02:59:10Z</time></trkpt>
<trkpt lat="25.105877" lon="101.818378">
<time>2016-10-07T02:59:11Z</time></trkpt>
<trkpt lat="25.105727" lon="101.818368">
<time>2016-10-07T02:59:12Z</time></trkpt>
<trkpt lat="25.105647" lon="101.818358">
<time>2016-10-07T02:59:13Z</time></trkpt>
<trkpt lat="25.105577" lon="101.818348">
<time>2016-10-07T02:59:14Z</time></trkpt>
<trkpt lat="25.105507" lon="101.818318">
<time>2016-10-07T02:59:15Z</time></trkpt>
<trkpt lat="25.105427" lon="101.818278">
<time>2016-10-07T02:59:16Z</time></trkpt>
<trkpt lat="25.105327" lon="101.818188">
<time>2016-10-07T02:59:17Z</time></trkpt>
<trkpt lat="25.105276" lon="101.818127">
<time>2016-10-07T02:59:18Z</time></trkpt>
<trkpt lat="25.105236" lon="101.818047">
<time>2016-10-07T02:59:19Z</time></trkpt>
<trkpt lat="25.105206" lon="101.817947">
<time>2016-10-07T02:59:20Z</time></trkpt>
<trkpt lat="25.105186" lon="101.817827">
<time>2016-10-07T02:59:21Z</time></trkpt>
<trkpt lat="25.105176" lon="101.817716">
<time>2016-10-07T02:59:22Z</time></trkpt>
<trkpt lat="25.105175" lon="101.817466">
<time>2016-10-07T02:59:23Z</time></trkpt>
<trkpt lat="25.105195" lon="101.817346">
<time>2016-10-07T02:59:24Z</time></trkpt>
<trkpt lat="25.105245" lon="101.817155">
<time>2016-10-07T02:59:25Z</time></trkpt>
<trkpt lat="25.105284" lon="101.816995">
<time>2016-10-07T02:59:26Z</time></trkpt>
<trkpt lat="25.105344" lon="101.816834">
<time>2016-10-07T02:59:27Z</time></trkpt>
<trkpt lat="25.105404" lon="101.816684">
<time>2016-10-07T02:59:28Z</time></trkpt>
<trkpt lat="25.105513" lon="101.816464">
<time>2016-10-07T02:59:29Z</time></trkpt>
<trkpt lat="25.105613" lon="101.816263">
<time>2016-10-07T02:59:30Z</time></trkpt>
<trkpt lat="25.105683" lon="101.816143">
<time>2016-10-07T02:59:31Z</time></trkpt>
<trkpt lat="25.105742" lon="101.816033">
<time>2016-10-07T02:59:32Z</time></trkpt>
<trkpt lat="25.105772" lon="101.815952">
<time>2016-10-07T02:59:33Z</time></trkpt>
<trkpt lat="25.105812" lon="101.815852">
<time>2016-10-07T02:59:34Z</time></trkpt>
<trkpt lat="25.105842" lon="101.815762">
<time>2016-10-07T02:59:35Z</time></trkpt>
<trkpt lat="25.105852" lon="101.815692">
<time>2016-10-07T02:59:36Z</time></trkpt>
<trkpt lat="25.105862" lon="101.815632">
<time>2016-10-07T02:59:37Z</time></trkpt>
<trkpt lat="25.105862" lon="101.815571">
<time>2016-10-07T02:59:38Z</time></trkpt>
<trkpt lat="25.105852" lon="101.815501">
<time>2016-10-07T02:59:39Z</time></trkpt>
<trkpt lat="25.105821" lon="101.815431">
<time>2016-10-07T02:59:40Z</time></trkpt>
<trkpt lat="25.105771" lon="101.815341">
<time>2016-10-07T02:59:41Z</time></trkpt>
<trkpt lat="25.105711" lon="101.815261">
<time>2016-10-07T02:59:42Z</time></trkpt>
<trkpt lat="25.105641" lon="101.815181">
<time>2016-10-07T02:59:43Z</time></trkpt>
<trkpt lat="25.105521" lon="101.81504">
<time>2016-10-07T02:59:44Z</time></trkpt>
<trkpt lat="25.105471" lon="101.81498">
<time>2016-10-07T02:59:45Z</time></trkpt>
<trkpt lat="25.10534" lon="101.81483">
<time>2016-10-07T02:59:46Z</time></trkpt>
<trkpt lat="25.10514" lon="101.814609">
<time>2016-10-07T02:59:47Z</time></trkpt>
<trkpt lat="25.10497" lon="101.814419">
<time>2016-10-07T02:59:48Z</time></trkpt>
<trkpt lat="25.104739" lon="101.814148">
<time>2016-10-07T02:59:49Z</time></trkpt>
<trkpt lat="25.104649" lon="101.814018">
<time>2016-10-07T02:59:50Z</time></trkpt>
<trkpt lat="25.104619" lon="101.813968">
<time>2016-10-07T02:59:51Z</time></trkpt>
<trkpt lat="25.104579" lon="101.813898">
<time>2016-10-07T02:59:52Z</time></trkpt>
<trkpt lat="25.104529" lon="101.813808">
<time>2016-10-07T02:59:53Z</time></trkpt>
<trkpt lat="25.104508" lon="101.813737">
<time>2016-10-07T02:59:54Z</time></trkpt>
<trkpt lat="25.104488" lon="101.813687">
<time>2016-10-07T02:59:55Z</time></trkpt>
<trkpt lat="25.104478" lon="101.813597">
<time>2016-10-07T02:59:56Z</time></trkpt>
<trkpt lat="25.104448" lon="101.813497">
<time>2016-10-07T02:59:57Z</time></trkpt>
<trkpt lat="25.104418" lon="101.813336">
<time>2016-10-07T02:59:58Z</time></trkpt>
<trkpt lat="25.104397" lon="101.813206">
<time>2016-10-07T02:59:59Z</time></trkpt>
<trkpt lat="25.104367" lon="101.813026">
<time>2016-10-07T03:00:00Z</time></trkpt>
<trkpt lat="25.104337" lon="101.812865">
<time>2016-10-07T03:00:01Z</time></trkpt>
<trkpt lat="25.104306" lon="101.812685">
<time>2016-10-07T03:00:02Z</time></trkpt>
<trkpt lat="25.104266" lon="101.812454">
<time>2016-10-07T03:00:03Z</time></trkpt>
<trkpt lat="25.104216" lon="101.812264">
<time>2016-10-07T03:00:04Z</time></trkpt>
<trkpt lat="25.104206" lon="101.812224">
<time>2016-10-07T03:00:05Z</time></trkpt>
<trkpt lat="25.104155" lon="101.811993">
<time>2016-10-07T03:00:06Z</time></trkpt>
<trkpt lat="25.104115" lon="101.811863">
<time>2016-10-07T03:00:07Z</time></trkpt>
<trkpt lat="25.104055" lon="101.811693">
<time>2016-10-07T03:00:08Z</time></trkpt>
<trkpt lat="25.104004" lon="101.811542">
<time>2016-10-07T03:00:09Z</time></trkpt>
<trkpt lat="25.103964" lon="101.811432">
<time>2016-10-07T03:00:10Z</time></trkpt>
<trkpt lat="25.103924" lon="101.811302">
<time>2016-10-07T03:00:11Z</time></trkpt>
<trkpt lat="25.103834" lon="101.811081">
<time>2016-10-07T03:00:12Z</time></trkpt>
<trkpt lat="25.103773" lon="101.810921">
<time>2016-10-07T03:00:13Z</time></trkpt>
<trkpt lat="25.103743" lon="101.810831">
<time>2016-10-07T03:00:14Z</time></trkpt>
<trkpt lat="25.103663" lon="101.81062">
<time>2016-10-07T03:00:15Z</time></trkpt>
<trkpt lat="25.103552" lon="101.81033">
<time>2016-10-07T03:00:16Z</time></trkpt>
<trkpt lat="25.103442" lon="101.810029">
<time>2016-10-07T03:00:17Z</time></trkpt>
<trkpt lat="25.103372" lon="101.809889">
<time>2016-10-07T03:00:18Z</time></trkpt>
<trkpt lat="25.103271" lon="101.809688">
<time>2016-10-07T03:00:19Z</time></trkpt>
<trkpt lat="25.103191" lon="101.809528">
<time>2016-10-07T03:00:20Z</time></trkpt>
<trkpt lat="25.10305" lon="101.809267">
<time>2016-10-07T03:00:21Z</time></trkpt>
<trkpt lat="25.10294" lon="101.809087">
<time>2016-10-07T03:00:22Z</time></trkpt>
<trkpt lat="25.10285" lon="101.808957">
<time>2016-10-07T03:00:23Z</time></trkpt>
<trkpt lat="25.10278" lon="101.808887">
<time>2016-10-07T03:00:24Z</time></trkpt>
<trkpt lat="25.10273" lon="101.808846">
<time>2016-10-07T03:00:25Z</time></trkpt>
<trkpt lat="25.10267" lon="101.808806">
<time>2016-10-07T03:00:26Z</time></trkpt>
<trkpt lat="25.1026" lon="101.808776">
<time>2016-10-07T03:00:27Z</time></trkpt>
<trkpt lat="25.10253" lon="101.808766">
<time>2016-10-07T03:00:28Z</time></trkpt>
<trkpt lat="25.10245" lon="101.808756">
<time>2016-10-07T03:00:29Z</time></trkpt>
<trkpt lat="25.10237" lon="101.808756">
<time>2016-10-07T03:00:30Z</time></trkpt>
<trkpt lat="25.10223" lon="101.808766">
<time>2016-10-07T03:00:31Z</time></trkpt>
<trkpt lat="25.102" lon="101.808776">
<time>2016-10-07T03:00:32Z</time></trkpt>
<trkpt lat="25.10174" lon="101.808806">
<time>2016-10-07T03:00:33Z</time></trkpt>
<trkpt lat="25.1015" lon="101.808826">
<time>2016-10-07T03:00:34Z</time></trkpt>
<trkpt lat="25.10136" lon="101.808847">
<time>2016-10-07T03:00:35Z</time></trkpt>
<trkpt lat="25.10128" lon="101.808847">
<time>2016-10-07T03:00:36Z</time></trkpt>
<trkpt lat="25.10121" lon="101.808847">
<time>2016-10-07T03:00:37Z</time></trkpt>
<trkpt lat="25.10109" lon="101.808826">
<time>2016-10-07T03:00:38Z</time></trkpt>
<trkpt lat="25.10094" lon="101.808796">
<time>2016-10-07T03:00:39Z</time></trkpt>
<trkpt lat="25.10087" lon="101.808776">
<time>2016-10-07T03:00:40Z</time></trkpt>
<trkpt lat="25.10078" lon="101.808756">
<time>2016-10-07T03:00:41Z</time></trkpt>
<trkpt lat="25.10039" lon="101.808686">
<time>2016-10-07T03:00:42Z</time></trkpt>
<trkpt lat="25.10023" lon="101.808636">
<time>2016-10-07T03:00:43Z</time></trkpt>
<trkpt lat="25.10017" lon="101.808616">
<time>2016-10-07T03:00:44Z</time></trkpt>
<trkpt lat="25.10013" lon="101.808596">
<time>2016-10-07T03:00:45Z</time></trkpt>
<trkpt lat="25.100059" lon="101.808556">
<time>2016-10-07T03:00:46Z</time></trkpt>
<trkpt lat="25.099959" lon="101.808476">
<time>2016-10-07T03:00:47Z</time></trkpt>
<trkpt lat="25.099889" lon="101.808396">
<time>2016-10-07T03:00:48Z</time></trkpt>
<trkpt lat="25.099839" lon="101.808305">
<time>2016-10-07T03:00:49Z</time></trkpt>
<trkpt lat="25.099789" lon="101.808205">
<time>2016-10-07T03:00:50Z</time></trkpt>
<trkpt lat="25.099739" lon="101.808095">
<time>2016-10-07T03:00:51Z</time></trkpt>
<trkpt lat="25.099709" lon="101.807995">
<time>2016-10-07T03:00:52Z</time></trkpt>
<trkpt lat="25.099688" lon="101.807894">
<time>2016-10-07T03:00:53Z</time></trkpt>
<trkpt lat="25.099668" lon="101.807744">
<time>2016-10-07T03:00:54Z</time></trkpt>
<trkpt lat="25.099638" lon="101.807574">
<time>2016-10-07T03:00:55Z</time></trkpt>
<trkpt lat="25.099607" lon="101.807333">
<time>2016-10-07T03:00:56Z</time></trkpt>
<trkpt lat="25.099577" lon="101.807063">
<time>2016-10-07T03:00:57Z</time></trkpt>
<trkpt lat="25.099536" lon="101.806802">
<time>2016-10-07T03:00:58Z</time></trkpt>
<trkpt lat="25.099496" lon="101.806662">
<time>2016-10-07T03:00:59Z</time></trkpt>
<trkpt lat="25.099476" lon="101.806612">
<time>2016-10-07T03:01:00Z</time></trkpt>
<trkpt lat="25.099456" lon="101.806542">
<time>2016-10-07T03:01:01Z</time></trkpt>
<trkpt lat="25.099416" lon="101.806481">
<time>2016-10-07T03:01:02Z</time></trkpt>
<trkpt lat="25.099376" lon="101.806421">
<time>2016-10-07T03:01:03Z</time></trkpt>
<trkpt lat="25.099316" lon="101.806341">
<time>2016-10-07T03:01:04Z</time></trkpt>
<trkpt lat="25.099246" lon="101.806251">
<time>2016-10-07T03:01:05Z</time></trkpt>
<trkpt lat="25.099115" lon="101.806081">
<time>2016-10-07T03:01:06Z</time></trkpt>
<trkpt lat="25.098935" lon="101.80581">
<time>2016-10-07T03:01:07Z</time></trkpt>
<trkpt lat="25.098824" lon="101.80562">
<time>2016-10-07T03:01:08Z</time></trkpt>
<trkpt lat="25.098744" lon="101.805509">
<time>2016-10-07T03:01:09Z</time></trkpt>
<trkpt lat="25.098684" lon="101.805409">
<time>2016-10-07T03:01:10Z</time></trkpt>
<trkpt lat="25.098634" lon="101.805349">
<time>2016-10-07T03:01:11Z</time></trkpt>
<trkpt lat="25.098564" lon="101.805269">
<time>2016-10-07T03:01:12Z</time></trkpt>
<trkpt lat="25.098474" lon="101.805189">
<time>2016-10-07T03:01:13Z</time></trkpt>
<trkpt lat="25.098394" lon="101.805129">
<time>2016-10-07T03:01:14Z</time></trkpt>
<trkpt lat="25.098304" lon="101.805058">
<time>2016-10-07T03:01:15Z</time></trkpt>
<trkpt lat="25.098213" lon="101.805008">
<time>2016-10-07T03:01:16Z</time></trkpt>
<trkpt lat="25.098093" lon="101.804938">
<time>2016-10-07T03:01:17Z</time></trkpt>
<trkpt lat="25.097863" lon="101.804798">
<time>2016-10-07T03:01:18Z</time></trkpt>
<trkpt lat="25.097633" lon="101.804648">
<time>2016-10-07T03:01:19Z</time></trkpt>
<trkpt lat="25.097453" lon="101.804537">
<time>2016-10-07T03:01:20Z</time></trkpt>
<trkpt lat="25.097273" lon="101.804427">
<time>2016-10-07T03:01:21Z</time></trkpt>
<trkpt lat="25.097022" lon="101.804267">
<time>2016-10-07T03:01:22Z</time></trkpt>
<trkpt lat="25.096862" lon="101.804167">
<time>2016-10-07T03:01:23Z</time></trkpt>
<trkpt lat="25.096572" lon="101.803986">
<time>2016-10-07T03:01:24Z</time></trkpt>
<trkpt lat="25.096462" lon="101.803916">
<time>2016-10-07T03:01:25Z</time></trkpt>
<trkpt lat="25.096392" lon="101.803856">
<time>2016-10-07T03:01:26Z</time></trkpt>
<trkpt lat="25.096332" lon="101.803796">
<time>2016-10-07T03:01:27Z</time></trkpt>
<trkpt lat="25.096251" lon="101.803716">
<time>2016-10-07T03:01:28Z</time></trkpt>
<trkpt lat="25.096191" lon="101.803645">
<time>2016-10-07T03:01:29Z</time></trkpt>
<trkpt lat="25.096131" lon="101.803545">
<time>2016-10-07T03:01:30Z</time></trkpt>
<trkpt lat="25.096061" lon="101.803415">
<time>2016-10-07T03:01:31Z</time></trkpt>
<trkpt lat="25.095991" lon="101.803285">
<time>2016-10-07T03:01:32Z</time></trkpt>
<trkpt lat="25.095901" lon="101.803134">
<time>2016-10-07T03:01:33Z</time></trkpt>
<trkpt lat="25.09583" lon="101.803004">
<time>2016-10-07T03:01:34Z</time></trkpt>
<trkpt lat="25.09577" lon="101.802904">
<time>2016-10-07T03:01:35Z</time></trkpt>
<trkpt lat="25.09572" lon="101.802834">
<time>2016-10-07T03:01:36Z</time></trkpt>
<trkpt lat="25.09568" lon="101.802784">
<time>2016-10-07T03:01:37Z</time></trkpt>
<trkpt lat="25.09564" lon="101.802734">
<time>2016-10-07T03:01:38Z</time></trkpt>
<trkpt lat="25.0956" lon="101.802683">
<time>2016-10-07T03:01:39Z</time></trkpt>
<trkpt lat="25.09554" lon="101.802633">
<time>2016-10-07T03:01:40Z</time></trkpt>
<trkpt lat="25.0955" lon="101.802603">
<time>2016-10-07T03:01:41Z</time></trkpt>
<trkpt lat="25.09546" lon="101.802573">
<time>2016-10-07T03:01:42Z</time></trkpt>
<trkpt lat="25.09542" lon="101.802543">
<time>2016-10-07T03:01:43Z</time></trkpt>
<trkpt lat="25.09536" lon="101.802513">
<time>2016-10-07T03:01:44Z</time></trkpt>
<trkpt lat="25.095279" lon="101.802473">
<time>2016-10-07T03:01:45Z</time></trkpt>
<trkpt lat="25.095179" lon="101.802423">
<time>2016-10-07T03:01:46Z</time></trkpt>
<trkpt lat="25.095029" lon="101.802363">
<time>2016-10-07T03:01:47Z</time></trkpt>
<trkpt lat="25.094889" lon="101.802293">
<time>2016-10-07T03:01:48Z</time></trkpt>
<trkpt lat="25.094759" lon="101.802243">
<time>2016-10-07T03:01:49Z</time></trkpt>
<trkpt lat="25.094569" lon="101.802162">
<time>2016-10-07T03:01:50Z</time></trkpt>
<trkpt lat="25.094409" lon="101.802102">
<time>2016-10-07T03:01:51Z</time></trkpt>
<trkpt lat="25.094279" lon="101.802052">
<time>2016-10-07T03:01:52Z</time></trkpt>
<trkpt lat="25.093869" lon="101.801902">
<time>2016-10-07T03:01:53Z</time></trkpt>
<trkpt lat="25.093669" lon="101.801842">
<time>2016-10-07T03:01:54Z</time></trkpt>
<trkpt lat="25.093488" lon="101.801762">
<time>2016-10-07T03:01:55Z</time></trkpt>
<trkpt lat="25.093388" lon="101.801711">
<time>2016-10-07T03:01:56Z</time></trkpt>
<trkpt lat="25.093318" lon="101.801681">
<time>2016-10-07T03:01:57Z</time></trkpt>
<trkpt lat="25.093248" lon="101.801641">
<time>2016-10-07T03:01:58Z</time></trkpt>
<trkpt lat="25.093168" lon="101.801581">
<time>2016-10-07T03:01:59Z</time></trkpt>
<trkpt lat="25.092968" lon="101.801411">
<time>2016-10-07T03:02:00Z</time></trkpt>
<trkpt lat="25.092768" lon="101.80122">
<time>2016-10-07T03:02:01Z</time></trkpt>
<trkpt lat="25.092617" lon="101.80109">
<time>2016-10-07T03:02:02Z</time></trkpt>
<trkpt lat="25.092547" lon="101.80104">
<time>2016-10-07T03:02:03Z</time></trkpt>
<trkpt lat="25.092397" lon="101.80093">
<time>2016-10-07T03:02:04Z</time></trkpt>
<trkpt lat="25.092337" lon="101.80089">
<time>2016-10-07T03:02:05Z</time></trkpt>
<trkpt lat="25.092257" lon="101.80084">
<time>2016-10-07T03:02:06Z</time></trkpt>
<trkpt lat="25.092167" lon="101.80081">
<time>2016-10-07T03:02:07Z</time></trkpt>
<trkpt lat="25.092047" lon="101.80076">
<time>2016-10-07T03:02:08Z</time></trkpt>
<trkpt lat="25.091977" lon="101.80074">
<time>2016-10-07T03:02:09Z</time></trkpt>
<trkpt lat="25.091787" lon="101.800689">
<time>2016-10-07T03:02:10Z</time></trkpt>
<trkpt lat="25.091637" lon="101.800659">
<time>2016-10-07T03:02:11Z</time></trkpt>
<trkpt lat="25.091257" lon="101.800569">
<time>2016-10-07T03:02:12Z</time></trkpt>
<trkpt lat="25.090617" lon="101.800449">
<time>2016-10-07T03:02:13Z</time></trkpt>
<trkpt lat="25.090547" lon="101.800439">
<time>2016-10-07T03:02:14Z</time></trkpt>
<trkpt lat="25.090407" lon="101.800399">
<time>2016-10-07T03:02:15Z</time></trkpt>
<trkpt lat="25.090306" lon="101.800379">
<time>2016-10-07T03:02:16Z</time></trkpt>
<trkpt lat="25.090216" lon="101.800349">
<time>2016-10-07T03:02:17Z</time></trkpt>
<trkpt lat="25.090036" lon="101.800299">
<time>2016-10-07T03:02:18Z</time></trkpt>
<trkpt lat="25.089856" lon="101.800239">
<time>2016-10-07T03:02:19Z</time></trkpt>
<trkpt lat="25.089726" lon="101.800188">
<time>2016-10-07T03:02:20Z</time></trkpt>
<trkpt lat="25.089636" lon="101.800148">
<time>2016-10-07T03:02:21Z</time></trkpt>
<trkpt lat="25.089516" lon="101.800078">
<time>2016-10-07T03:02:22Z</time></trkpt>
<trkpt lat="25.089436" lon="101.800028">
<time>2016-10-07T03:02:23Z</time></trkpt>
<trkpt lat="25.089346" lon="101.799948">
<time>2016-10-07T03:02:24Z</time></trkpt>
<trkpt lat="25.089266" lon="101.799868">
<time>2016-10-07T03:02:25Z</time></trkpt>
<trkpt lat="25.089096" lon="101.799708">
<time>2016-10-07T03:02:26Z</time></trkpt>
<trkpt lat="25.089005" lon="101.799637">
<time>2016-10-07T03:02:27Z</time></trkpt>
<trkpt lat="25.088915" lon="101.799567">
<time>2016-10-07T03:02:28Z</time></trkpt>
<trkpt lat="25.088835" lon="101.799507">
<time>2016-10-07T03:02:29Z</time></trkpt>
<trkpt lat="25.088735" lon="101.799437">
<time>2016-10-07T03:02:30Z</time></trkpt>
<trkpt lat="25.088625" lon="101.799387">
<time>2016-10-07T03:02:31Z</time></trkpt>
<trkpt lat="25.088555" lon="101.799357">
<time>2016-10-07T03:02:32Z</time></trkpt>
<trkpt lat="25.088445" lon="101.799327">
<time>2016-10-07T03:02:33Z</time></trkpt>
<trkpt lat="25.088355" lon="101.799307">
<time>2016-10-07T03:02:34Z</time></trkpt>
<trkpt lat="25.088285" lon="101.799307">
<time>2016-10-07T03:02:35Z</time></trkpt>
<trkpt lat="25.088205" lon="101.799307">
<time>2016-10-07T03:02:36Z</time></trkpt>
<trkpt lat="25.088125" lon="101.799317">
<time>2016-10-07T03:02:37Z</time></trkpt>
<trkpt lat="25.088065" lon="101.799317">
<time>2016-10-07T03:02:38Z</time></trkpt>
<trkpt lat="25.087995" lon="101.799327">
<time>2016-10-07T03:02:39Z</time></trkpt>
<trkpt lat="25.087905" lon="101.799347">
<time>2016-10-07T03:02:40Z</time></trkpt>
<trkpt lat="25.087775" lon="101.799387">
<time>2016-10-07T03:02:41Z</time></trkpt>
<trkpt lat="25.087565" lon="101.799457">
<time>2016-10-07T03:02:42Z</time></trkpt>
<trkpt lat="25.087315" lon="101.799537">
<time>2016-10-07T03:02:43Z</time></trkpt>
<trkpt lat="25.087156" lon="101.799587">
<time>2016-10-07T03:02:44Z</time></trkpt>
<trkpt lat="25.087006" lon="101.799647">
<time>2016-10-07T03:02:45Z</time></trkpt>
<trkpt lat="25.086916" lon="101.799698">
<time>2016-10-07T03:02:46Z</time></trkpt>
<trkpt lat="25.086836" lon="101.799758">
<time>2016-10-07T03:02:47Z</time></trkpt>
<trkpt lat="25.086736" lon="101.799838">
<time>2016-10-07T03:02:48Z</time></trkpt>
<trkpt lat="25.086646" lon="101.799938">
<time>2016-10-07T03:02:49Z</time></trkpt>
<trkpt lat="25.086566" lon="101.800048">
<time>2016-10-07T03:02:50Z</time></trkpt>
<trkpt lat="25.086427" lon="101.800249">
<time>2016-10-07T03:02:51Z</time></trkpt>
<trkpt lat="25.086337" lon="101.800389">
<time>2016-10-07T03:02:52Z</time></trkpt>
<trkpt lat="25.086018" lon="101.80089">
<time>2016-10-07T03:02:53Z</time></trkpt>
<trkpt lat="25.085808" lon="101.801231">
<time>2016-10-07T03:02:54Z</time></trkpt>
<trkpt lat="25.085559" lon="101.801612">
<time>2016-10-07T03:02:55Z</time></trkpt>
<trkpt lat="25.085449" lon="101.801762">
<time>2016-10-07T03:02:56Z</time></trkpt>
<trkpt lat="25.085399" lon="101.801832">
<time>2016-10-07T03:02:57Z</time></trkpt>
<trkpt lat="25.085349" lon="101.801892">
<time>2016-10-07T03:02:58Z</time></trkpt>
<trkpt lat="25.0853" lon="101.801932">
<time>2016-10-07T03:02:59Z</time></trkpt>
<trkpt lat="25.08526" lon="101.801962">
<time>2016-10-07T03:03:00Z</time></trkpt>
<trkpt lat="25.08521" lon="101.801992">
<time>2016-10-07T03:03:01Z</time></trkpt>
<trkpt lat="25.08518" lon="101.802002">
<time>2016-10-07T03:03:02Z</time></trkpt>
<trkpt lat="25.08512" lon="101.802012">
<time>2016-10-07T03:03:03Z</time></trkpt>
<trkpt lat="25.08507" lon="101.802012">
<time>2016-10-07T03:03:04Z</time></trkpt>
<trkpt lat="25.08501" lon="101.802012">
<time>2016-10-07T03:03:05Z</time></trkpt>
<trkpt lat="25.0849" lon="101.802002">
<time>2016-10-07T03:03:06Z</time></trkpt>
<trkpt lat="25.08479" lon="101.801992">
<time>2016-10-07T03:03:07Z</time></trkpt>
<trkpt lat="25.08468" lon="101.801972">
<time>2016-10-07T03:03:08Z</time></trkpt>
<trkpt lat="25.08463" lon="101.801972">
<time>2016-10-07T03:03:09Z</time></trkpt>
<trkpt lat="25.08458" lon="101.801972">
<time>2016-10-07T03:03:10Z</time></trkpt>
<trkpt lat="25.0845" lon="101.801982">
<time>2016-10-07T03:03:11Z</time></trkpt>
<trkpt lat="25.08439" lon="101.802002">
<time>2016-10-07T03:03:12Z</time></trkpt>
<trkpt lat="25.08421" lon="101.802052">
<time>2016-10-07T03:03:13Z</time></trkpt>
<trkpt lat="25.08402" lon="101.802103">
<time>2016-10-07T03:03:14Z</time></trkpt>
<trkpt lat="25.08387" lon="101.802143">
<time>2016-10-07T03:03:15Z</time></trkpt>
<trkpt lat="25.08375" lon="101.802183">
<time>2016-10-07T03:03:16Z</time></trkpt>
<trkpt lat="25.08361" lon="101.802213">
<time>2016-10-07T03:03:17Z</time></trkpt>
<trkpt lat="25.08353" lon="101.802233">
<time>2016-10-07T03:03:18Z</time></trkpt>
<trkpt lat="25.08342" lon="101.802253">
<time>2016-10-07T03:03:19Z</time></trkpt>
<trkpt lat="25.08335" lon="101.802263">
<time>2016-10-07T03:03:20Z</time></trkpt>
<trkpt lat="25.08312" lon="101.802293">
<time>2016-10-07T03:03:21Z</time></trkpt>
<trkpt lat="25.08299" lon="101.802303">
<time>2016-10-07T03:03:22Z</time></trkpt>
<trkpt lat="25.08285" lon="101.802293">
<time>2016-10-07T03:03:23Z</time></trkpt>
<trkpt lat="25.08274" lon="101.802293">
<time>2016-10-07T03:03:24Z</time></trkpt>
<trkpt lat="25.08259" lon="101.802263">
<time>2016-10-07T03:03:25Z</time></trkpt>
<trkpt lat="25.08247" lon="101.802223">
<time>2016-10-07T03:03:26Z</time></trkpt>
<trkpt lat="25.0823" lon="101.802133">
<time>2016-10-07T03:03:27Z</time></trkpt>
<trkpt lat="25.08191" lon="101.801872">
<time>2016-10-07T03:03:28Z</time></trkpt>
<trkpt lat="25.081199" lon="101.801401">
<time>2016-10-07T03:03:29Z</time></trkpt>
<trkpt lat="25.081109" lon="101.801331">
<time>2016-10-07T03:03:30Z</time></trkpt>
<trkpt lat="25.081029" lon="101.801251">
<time>2016-10-07T03:03:31Z</time></trkpt>
<trkpt lat="25.080949" lon="101.801161">
<time>2016-10-07T03:03:32Z</time></trkpt>
<trkpt lat="25.080899" lon="101.801071">
<time>2016-10-07T03:03:33Z</time></trkpt>
<trkpt lat="25.080858" lon="101.80098">
<time>2016-10-07T03:03:34Z</time></trkpt>
<trkpt lat="25.080768" lon="101.80075">
<time>2016-10-07T03:03:35Z</time></trkpt>
<trkpt lat="25.080658" lon="101.800479">
<time>2016-10-07T03:03:36Z</time></trkpt>
<trkpt lat="25.080527" lon="101.800259">
<time>2016-10-07T03:03:37Z</time></trkpt>
<trkpt lat="25.080377" lon="101.800099">
<time>2016-10-07T03:03:38Z</time></trkpt>
<trkpt lat="25.080067" lon="101.799928">
<time>2016-10-07T03:03:39Z</time></trkpt>
<trkpt lat="25.079877" lon="101.799808">
<time>2016-10-07T03:03:40Z</time></trkpt>
<trkpt lat="25.079686" lon="101.799678">
<time>2016-10-07T03:03:41Z</time></trkpt>
<trkpt lat="25.079476" lon="101.799497">
<time>2016-10-07T03:03:42Z</time></trkpt>
<trkpt lat="25.078665" lon="101.798746">
<time>2016-10-07T03:03:43Z</time></trkpt>
<trkpt lat="25.078485" lon="101.798616">
<time>2016-10-07T03:03:44Z</time></trkpt>
<trkpt lat="25.078255" lon="101.798475">
<time>2016-10-07T03:03:45Z</time></trkpt>
<trkpt lat="25.078004" lon="101.798375">
<time>2016-10-07T03:03:46Z</time></trkpt>
<trkpt lat="25.077734" lon="101.798285">
<time>2016-10-07T03:03:47Z</time></trkpt>
<trkpt lat="25.077424" lon="101.798165">
<time>2016-10-07T03:03:48Z</time></trkpt>
<trkpt lat="25.076824" lon="101.797844">
<time>2016-10-07T03:03:49Z</time></trkpt>
<trkpt lat="25.076383" lon="101.797604">
<time>2016-10-07T03:03:50Z</time></trkpt>
<trkpt lat="25.076273" lon="101.797554">
<time>2016-10-07T03:03:51Z</time></trkpt>
<trkpt lat="25.076153" lon="101.797503">
<time>2016-10-07T03:03:52Z</time></trkpt>
<trkpt lat="25.076083" lon="101.797483">
<time>2016-10-07T03:03:53Z</time></trkpt>
<trkpt lat="25.076003" lon="101.797463">
<time>2016-10-07T03:03:54Z</time></trkpt>
<trkpt lat="25.075933" lon="101.797453">
<time>2016-10-07T03:03:55Z</time></trkpt>
<trkpt lat="25.075853" lon="101.797453">
<time>2016-10-07T03:03:56Z</time></trkpt>
<trkpt lat="25.075803" lon="101.797453">
<time>2016-10-07T03:03:57Z</time></trkpt>
<trkpt lat="25.075753" lon="101.797463">
<time>2016-10-07T03:03:58Z</time></trkpt>
<trkpt lat="25.075673" lon="101.797483">
<time>2016-10-07T03:03:59Z</time></trkpt>
<trkpt lat="25.075573" lon="101.797514">
<time>2016-10-07T03:04:00Z</time></trkpt>
<trkpt lat="25.075393" lon="101.797574">
<time>2016-10-07T03:04:01Z</time></trkpt>
<trkpt lat="25.075124" lon="101.797684">
<time>2016-10-07T03:04:02Z</time></trkpt>
<trkpt lat="25.075004" lon="101.797734">
<time>2016-10-07T03:04:03Z</time></trkpt>
<trkpt lat="25.074814" lon="101.797834">
<time>2016-10-07T03:04:04Z</time></trkpt>
<trkpt lat="25.074694" lon="101.797954">
<time>2016-10-07T03:04:05Z</time></trkpt>
<trkpt lat="25.074594" lon="101.798105">
<time>2016-10-07T03:04:06Z</time></trkpt>
<trkpt lat="25.074475" lon="101.798275">
<time>2016-10-07T03:04:07Z</time></trkpt>
<trkpt lat="25.074305" lon="101.798465">
<time>2016-10-07T03:04:08Z</time></trkpt>
<trkpt lat="25.074125" lon="101.798616">
<time>2016-10-07T03:04:09Z</time></trkpt>
<trkpt lat="25.073985" lon="101.798686">
<time>2016-10-07T03:04:10Z</time></trkpt>
<trkpt lat="25.073845" lon="101.798746">
<time>2016-10-07T03:04:11Z</time></trkpt>
<trkpt lat="25.073716" lon="101.798786">
<time>2016-10-07T03:04:12Z</time></trkpt>
<trkpt lat="25.073606" lon="101.798806">
<time>2016-10-07T03:04:13Z</time></trkpt>
<trkpt lat="25.073496" lon="101.798816">
<time>2016-10-07T03:04:14Z</time></trkpt>
<trkpt lat="25.073396" lon="101.798816">
<time>2016-10-07T03:04:15Z</time></trkpt>
<trkpt lat="25.073226" lon="101.798796">
<time>2016-10-07T03:04:16Z</time></trkpt>
<trkpt lat="25.073126" lon="101.798776">
<time>2016-10-07T03:04:17Z</time></trkpt>
<trkpt lat="25.072986" lon="101.798716">
<time>2016-10-07T03:04:18Z</time></trkpt>
<trkpt lat="25.072825" lon="101.798596">
<time>2016-10-07T03:04:19Z</time></trkpt>
<trkpt lat="25.072535" lon="101.798365">
<time>2016-10-07T03:04:20Z</time></trkpt>
<trkpt lat="25.072275" lon="101.798125">
<time>2016-10-07T03:04:21Z</time></trkpt>
<trkpt lat="25.072044" lon="101.797914">
<time>2016-10-07T03:04:22Z</time></trkpt>
<trkpt lat="25.071944" lon="101.797824">
<time>2016-10-07T03:04:23Z</time></trkpt>
<trkpt lat="25.071854" lon="101.797714">
<time>2016-10-07T03:04:24Z</time></trkpt>
<trkpt lat="25.071784" lon="101.797574">
<time>2016-10-07T03:04:25Z</time></trkpt>
<trkpt lat="25.071754" lon="101.797433">
<time>2016-10-07T03:04:26Z</time></trkpt>
<trkpt lat="25.071743" lon="101.797273">
<time>2016-10-07T03:04:27Z</time></trkpt>
<trkpt lat="25.071743" lon="101.797133">
<time>2016-10-07T03:04:28Z</time></trkpt>
<trkpt lat="25.07185" lon="101.795089">
<time>2016-10-07T03:04:29Z</time></trkpt>
<trkpt lat="25.071908" lon="101.793987">
<time>2016-10-07T03:04:30Z</time></trkpt>
<trkpt lat="25.071957" lon="101.793376">
<time>2016-10-07T03:04:31Z</time></trkpt>
<trkpt lat="25.072007" lon="101.793085">
<time>2016-10-07T03:04:32Z</time></trkpt>
<trkpt lat="25.072057" lon="101.792825">
<time>2016-10-07T03:04:33Z</time></trkpt>
<trkpt lat="25.072076" lon="101.792734">
<time>2016-10-07T03:04:34Z</time></trkpt>
<trkpt lat="25.072096" lon="101.792634">
<time>2016-10-07T03:04:35Z</time></trkpt>
<trkpt lat="25.072106" lon="101.792584">
<time>2016-10-07T03:04:36Z</time></trkpt>
<trkpt lat="25.072106" lon="101.792524">
<time>2016-10-07T03:04:37Z</time></trkpt>
<trkpt lat="25.072106" lon="101.792474">
<time>2016-10-07T03:04:38Z</time></trkpt>
<trkpt lat="25.072096" lon="101.792404">
<time>2016-10-07T03:04:39Z</time></trkpt>
<trkpt lat="25.072056" lon="101.792314">
<time>2016-10-07T03:04:40Z</time></trkpt>
<trkpt lat="25.072006" lon="101.792234">
<time>2016-10-07T03:04:41Z</time></trkpt>
<trkpt lat="25.071946" lon="101.792143">
<time>2016-10-07T03:04:42Z</time></trkpt>
<trkpt lat="25.071805" lon="101.791993">
<time>2016-10-07T03:04:43Z</time></trkpt>
<trkpt lat="25.071615" lon="101.791803">
<time>2016-10-07T03:04:44Z</time></trkpt>
<trkpt lat="25.071205" lon="101.791402">
<time>2016-10-07T03:04:45Z</time></trkpt>
<trkpt lat="25.070974" lon="101.791152">
<time>2016-10-07T03:04:46Z</time></trkpt>
<trkpt lat="25.070804" lon="101.790891">
<time>2016-10-07T03:04:47Z</time></trkpt>
<trkpt lat="25.070654" lon="101.790671">
<time>2016-10-07T03:04:48Z</time></trkpt>
<trkpt lat="25.070423" lon="101.79038">
<time>2016-10-07T03:04:49Z</time></trkpt>
<trkpt lat="25.070153" lon="101.79012">
<time>2016-10-07T03:04:50Z</time></trkpt>
<trkpt lat="25.069893" lon="101.789859">
<time>2016-10-07T03:04:51Z</time></trkpt>
<trkpt lat="25.069672" lon="101.789659">
<time>2016-10-07T03:04:52Z</time></trkpt>
<trkpt lat="25.069352" lon="101.789368">
<time>2016-10-07T03:04:53Z</time></trkpt>
<trkpt lat="25.069152" lon="101.789208">
<time>2016-10-07T03:04:54Z</time></trkpt>
<trkpt lat="25.068842" lon="101.789008">
<time>2016-10-07T03:04:55Z</time></trkpt>
<trkpt lat="25.068591" lon="101.788888">
<time>2016-10-07T03:04:56Z</time></trkpt>
<trkpt lat="25.068301" lon="101.788747">
<time>2016-10-07T03:04:57Z</time></trkpt>
<trkpt lat="25.068011" lon="101.788607">
<time>2016-10-07T03:04:58Z</time></trkpt>
<trkpt lat="25.067701" lon="101.788477">
<time>2016-10-07T03:04:59Z</time></trkpt>
<trkpt lat="25.067481" lon="101.788367">
<time>2016-10-07T03:05:00Z</time></trkpt>
<trkpt lat="25.067361" lon="101.788307">
<time>2016-10-07T03:05:01Z</time></trkpt>
<trkpt lat="25.067211" lon="101.788196">
<time>2016-10-07T03:05:02Z</time></trkpt>
<trkpt lat="25.06706" lon="101.788006">
<time>2016-10-07T03:05:03Z</time></trkpt>
<trkpt lat="25.06683" lon="101.787676">
<time>2016-10-07T03:05:04Z</time></trkpt>
<trkpt lat="25.0667" lon="101.787475">
<time>2016-10-07T03:05:05Z</time></trkpt>
<trkpt lat="25.066589" lon="101.787295">
<time>2016-10-07T03:05:06Z</time></trkpt>
<trkpt lat="25.066509" lon="101.787065">
<time>2016-10-07T03:05:07Z</time></trkpt>
<trkpt lat="25.066469" lon="101.786894">
<time>2016-10-07T03:05:08Z</time></trkpt>
<trkpt lat="25.066419" lon="101.786694">
<time>2016-10-07T03:05:09Z</time></trkpt>
<trkpt lat="25.066348" lon="101.786474">
<time>2016-10-07T03:05:10Z</time></trkpt>
<trkpt lat="25.066288" lon="101.786383">
<time>2016-10-07T03:05:11Z</time></trkpt>
<trkpt lat="25.066238" lon="101.786323">
<time>2016-10-07T03:05:12Z</time></trkpt>
<trkpt lat="25.066198" lon="101.786273">
<time>2016-10-07T03:05:13Z</time></trkpt>
<trkpt lat="25.066118" lon="101.786233">
<time>2016-10-07T03:05:14Z</time></trkpt>
<trkpt lat="25.066028" lon="101.786213">
<time>2016-10-07T03:05:15Z</time></trkpt>
<trkpt lat="25.065958" lon="101.786193">
<time>2016-10-07T03:05:16Z</time></trkpt>
<trkpt lat="25.065848" lon="101.786183">
<time>2016-10-07T03:05:17Z</time></trkpt>
<trkpt lat="25.065748" lon="101.786163">
<time>2016-10-07T03:05:18Z</time></trkpt>
<trkpt lat="25.065658" lon="101.786143">
<time>2016-10-07T03:05:19Z</time></trkpt>
<trkpt lat="25.065548" lon="101.786113">
<time>2016-10-07T03:05:20Z</time></trkpt>
<trkpt lat="25.065458" lon="101.786073">
<time>2016-10-07T03:05:21Z</time></trkpt>
<trkpt lat="25.065348" lon="101.785983">
<time>2016-10-07T03:05:22Z</time></trkpt>
<trkpt lat="25.065258" lon="101.785883">
<time>2016-10-07T03:05:23Z</time></trkpt>
<trkpt lat="25.065188" lon="101.785782">
<time>2016-10-07T03:05:24Z</time></trkpt>
<trkpt lat="25.065098" lon="101.785682">
<time>2016-10-07T03:05:25Z</time></trkpt>
<trkpt lat="25.065017" lon="101.785572">
<time>2016-10-07T03:05:26Z</time></trkpt>
<trkpt lat="25.064957" lon="101.785502">
<time>2016-10-07T03:05:27Z</time></trkpt>
<trkpt lat="25.064907" lon="101.785412">
<time>2016-10-07T03:05:28Z</time></trkpt>
<trkpt lat="25.064887" lon="101.785342">
<time>2016-10-07T03:05:29Z</time></trkpt>
<trkpt lat="25.064877" lon="101.785282">
<time>2016-10-07T03:05:30Z</time></trkpt>
<trkpt lat="25.064877" lon="101.785192">
<time>2016-10-07T03:05:31Z</time></trkpt>
<trkpt lat="25.064887" lon="101.785071">
<time>2016-10-07T03:05:32Z</time></trkpt>
<trkpt lat="25.064897" lon="101.784951">
<time>2016-10-07T03:05:33Z</time></trkpt>
<trkpt lat="25.064896" lon="101.784831">
<time>2016-10-07T03:05:34Z</time></trkpt>
<trkpt lat="25.064886" lon="101.784741">
<time>2016-10-07T03:05:35Z</time></trkpt>
<trkpt lat="25.064856" lon="101.784651">
<time>2016-10-07T03:05:36Z</time></trkpt>
<trkpt lat="25.064806" lon="101.784571">
<time>2016-10-07T03:05:37Z</time></trkpt>
<trkpt lat="25.064696" lon="101.78442">
<time>2016-10-07T03:05:38Z</time></trkpt>
<trkpt lat="25.064626" lon="101.78436">
<time>2016-10-07T03:05:39Z</time></trkpt>
<trkpt lat="25.064516" lon="101.78427">
<time>2016-10-07T03:05:40Z</time></trkpt>
<trkpt lat="25.064436" lon="101.78422">
<time>2016-10-07T03:05:41Z</time></trkpt>
<trkpt lat="25.064306" lon="101.78415">
<time>2016-10-07T03:05:42Z</time></trkpt>
<trkpt lat="25.064136" lon="101.78408">
<time>2016-10-07T03:05:43Z</time></trkpt>
<trkpt lat="25.063946" lon="101.78402">
<time>2016-10-07T03:05:44Z</time></trkpt>
<trkpt lat="25.063826" lon="101.78398">
<time>2016-10-07T03:05:45Z</time></trkpt>
<trkpt lat="25.063735" lon="101.78393">
<time>2016-10-07T03:05:46Z</time></trkpt>
<trkpt lat="25.063635" lon="101.783859">
<time>2016-10-07T03:05:47Z</time></trkpt>
<trkpt lat="25.063595" lon="101.783809">
<time>2016-10-07T03:05:48Z</time></trkpt>
<trkpt lat="25.063545" lon="101.783719">
<time>2016-10-07T03:05:49Z</time></trkpt>
<trkpt lat="25.063495" lon="101.783589">
<time>2016-10-07T03:05:50Z</time></trkpt>
<trkpt lat="25.063445" lon="101.783439">
<time>2016-10-07T03:05:51Z</time></trkpt>
<trkpt lat="25.063365" lon="101.783118">
<time>2016-10-07T03:05:52Z</time></trkpt>
<trkpt lat="25.063204" lon="101.782527">
<time>2016-10-07T03:05:53Z</time></trkpt>
<trkpt lat="25.063114" lon="101.782297">
<time>2016-10-07T03:05:54Z</time></trkpt>
<trkpt lat="25.063033" lon="101.782137">
<time>2016-10-07T03:05:55Z</time></trkpt>
<trkpt lat="25.062993" lon="101.782057">
<time>2016-10-07T03:05:56Z</time></trkpt>
<trkpt lat="25.062913" lon="101.781936">
<time>2016-10-07T03:05:57Z</time></trkpt>
<trkpt lat="25.062843" lon="101.781866">
<time>2016-10-07T03:05:58Z</time></trkpt>
<trkpt lat="25.062763" lon="101.781806">
<time>2016-10-07T03:05:59Z</time></trkpt>
<trkpt lat="25.062703" lon="101.781766">
<time>2016-10-07T03:06:00Z</time></trkpt>
<trkpt lat="25.062653" lon="101.781736">
<time>2016-10-07T03:06:01Z</time></trkpt>
<trkpt lat="25.062593" lon="101.781706">
<time>2016-10-07T03:06:02Z</time></trkpt>
<trkpt lat="25.062353" lon="101.781626">
<time>2016-10-07T03:06:03Z</time></trkpt>
<trkpt lat="25.062063" lon="101.781526">
<time>2016-10-07T03:06:04Z</time></trkpt>
<trkpt lat="25.061743" lon="101.781426">
<time>2016-10-07T03:06:05Z</time></trkpt>
<trkpt lat="25.061453" lon="101.781346">
<time>2016-10-07T03:06:06Z</time></trkpt>
<trkpt lat="25.061243" lon="101.781225">
<time>2016-10-07T03:06:07Z</time></trkpt>
<trkpt lat="25.061092" lon="101.781075">
<time>2016-10-07T03:06:08Z</time></trkpt>
<trkpt lat="25.060922" lon="101.780875">
<time>2016-10-07T03:06:09Z</time></trkpt>
<trkpt lat="25.060782" lon="101.780715">
<time>2016-10-07T03:06:10Z</time></trkpt>
<trkpt lat="25.060682" lon="101.780625">
<time>2016-10-07T03:06:11Z</time></trkpt>
<trkpt lat="25.060562" lon="101.780524">
<time>2016-10-07T03:06:12Z</time></trkpt>
<trkpt lat="25.060292" lon="101.780364">
<time>2016-10-07T03:06:13Z</time></trkpt>
<trkpt lat="25.060122" lon="101.780294">
<time>2016-10-07T03:06:14Z</time></trkpt>
<trkpt lat="25.059892" lon="101.780224">
<time>2016-10-07T03:06:15Z</time></trkpt>
<trkpt lat="25.059631" lon="101.780164">
<time>2016-10-07T03:06:16Z</time></trkpt>
<trkpt lat="25.059251" lon="101.780054">
<time>2016-10-07T03:06:17Z</time></trkpt>
<trkpt lat="25.059091" lon="101.780014">
<time>2016-10-07T03:06:18Z</time></trkpt>
<trkpt lat="25.058981" lon="101.779994">
<time>2016-10-07T03:06:19Z</time></trkpt>
<trkpt lat="25.058851" lon="101.779964">
<time>2016-10-07T03:06:20Z</time></trkpt>
<trkpt lat="25.058691" lon="101.779944">
<time>2016-10-07T03:06:21Z</time></trkpt>
<trkpt lat="25.058411" lon="101.779944">
<time>2016-10-07T03:06:22Z</time></trkpt>
<trkpt lat="25.058241" lon="101.779934">
<time>2016-10-07T03:06:23Z</time></trkpt>
<trkpt lat="25.058131" lon="101.779914">
<time>2016-10-07T03:06:24Z</time></trkpt>
<trkpt lat="25.058041" lon="101.779894">
<time>2016-10-07T03:06:25Z</time></trkpt>
<trkpt lat="25.057971" lon="101.779874">
<time>2016-10-07T03:06:26Z</time></trkpt>
<trkpt lat="25.057911" lon="101.779853">
<time>2016-10-07T03:06:27Z</time></trkpt>
<trkpt lat="25.057841" lon="101.779813">
<time>2016-10-07T03:06:28Z</time></trkpt>
<trkpt lat="25.057771" lon="101.779753">
<time>2016-10-07T03:06:29Z</time></trkpt>
<trkpt lat="25.057681" lon="101.779643">
<time>2016-10-07T03:06:30Z</time></trkpt>
<trkpt lat="25.057531" lon="101.779453">
<time>2016-10-07T03:06:31Z</time></trkpt>
<trkpt lat="25.057431" lon="101.779323">
<time>2016-10-07T03:06:32Z</time></trkpt>
<trkpt lat="25.057331" lon="101.779203">
<time>2016-10-07T03:06:33Z</time></trkpt>
<trkpt lat="25.057241" lon="101.779132">
<time>2016-10-07T03:06:34Z</time></trkpt>
<trkpt lat="25.057131" lon="101.779062">
<time>2016-10-07T03:06:35Z</time></trkpt>
<trkpt lat="25.05702" lon="101.778992">
<time>2016-10-07T03:06:36Z</time></trkpt>
<trkpt lat="25.05688" lon="101.778912">
<time>2016-10-07T03:06:37Z</time></trkpt>
<trkpt lat="25.0568" lon="101.778862">
<time>2016-10-07T03:06:38Z</time></trkpt>
<trkpt lat="25.0567" lon="101.778782">
<time>2016-10-07T03:06:39Z</time></trkpt>
<trkpt lat="25.05658" lon="101.778662">
<time>2016-10-07T03:06:40Z</time></trkpt>
<trkpt lat="25.05651" lon="101.778572">
<time>2016-10-07T03:06:41Z</time></trkpt>
<trkpt lat="25.05642" lon="101.778472">
<time>2016-10-07T03:06:42Z</time></trkpt>
<trkpt lat="25.05633" lon="101.778341">
<time>2016-10-07T03:06:43Z</time></trkpt>
<trkpt lat="25.05627" lon="101.778241">
<time>2016-10-07T03:06:44Z</time></trkpt>
<trkpt lat="25.05622" lon="101.778131">
<time>2016-10-07T03:06:45Z</time></trkpt>
<trkpt lat="25.05619" lon="101.778051">
<time>2016-10-07T03:06:46Z</time></trkpt>
<trkpt lat="25.056189" lon="101.777961">
<time>2016-10-07T03:06:47Z</time></trkpt>
<trkpt lat="25.056189" lon="101.777821">
<time>2016-10-07T03:06:48Z</time></trkpt>
<trkpt lat="25.056209" lon="101.77764">
<time>2016-10-07T03:06:49Z</time></trkpt>
<trkpt lat="25.056219" lon="101.77744">
<time>2016-10-07T03:06:50Z</time></trkpt>
<trkpt lat="25.056219" lon="101.77734">
<time>2016-10-07T03:06:51Z</time></trkpt>
<trkpt lat="25.056209" lon="101.77728">
<time>2016-10-07T03:06:52Z</time></trkpt>
<trkpt lat="25.056199" lon="101.77723">
<time>2016-10-07T03:06:53Z</time></trkpt>
<trkpt lat="25.056189" lon="101.77719">
<time>2016-10-07T03:06:54Z</time></trkpt>
<trkpt lat="25.056169" lon="101.77715">
<time>2016-10-07T03:06:55Z</time></trkpt>
<trkpt lat="25.056139" lon="101.77711">
<time>2016-10-07T03:06:56Z</time></trkpt>
<trkpt lat="25.056109" lon="101.77708">
<time>2016-10-07T03:06:57Z</time></trkpt>
<trkpt lat="25.056089" lon="101.77705">
<time>2016-10-07T03:06:58Z</time></trkpt>
<trkpt lat="25.056049" lon="101.77702">
<time>2016-10-07T03:06:59Z</time></trkpt>
<trkpt lat="25.055938" lon="101.776919">
<time>2016-10-07T03:07:00Z</time></trkpt>
<trkpt lat="25.055748" lon="101.776809">
<time>2016-10-07T03:07:01Z</time></trkpt>
<trkpt lat="25.054998" lon="101.776409">
<time>2016-10-07T03:07:02Z</time></trkpt>
<trkpt lat="25.054858" lon="101.776329">
<time>2016-10-07T03:07:03Z</time></trkpt>
<trkpt lat="25.054668" lon="101.776178">
<time>2016-10-07T03:07:04Z</time></trkpt>
<trkpt lat="25.054468" lon="101.775948">
<time>2016-10-07T03:07:05Z</time></trkpt>
<trkpt lat="25.054277" lon="101.775658">
<time>2016-10-07T03:07:06Z</time></trkpt>
<trkpt lat="25.054087" lon="101.775407">
<time>2016-10-07T03:07:07Z</time></trkpt>
<trkpt lat="25.053657" lon="101.774797">
<time>2016-10-07T03:07:08Z</time></trkpt>
<trkpt lat="25.053496" lon="101.774616">
<time>2016-10-07T03:07:09Z</time></trkpt>
<trkpt lat="25.053296" lon="101.774456">
<time>2016-10-07T03:07:10Z</time></trkpt>
<trkpt lat="25.053076" lon="101.774316">
<time>2016-10-07T03:07:11Z</time></trkpt>
<trkpt lat="25.052836" lon="101.774236">
<time>2016-10-07T03:07:12Z</time></trkpt>
<trkpt lat="25.052316" lon="101.774096">
<time>2016-10-07T03:07:13Z</time></trkpt>
<trkpt lat="25.052046" lon="101.774036">
<time>2016-10-07T03:07:14Z</time></trkpt>
<trkpt lat="25.051816" lon="101.773976">
<time>2016-10-07T03:07:15Z</time></trkpt>
<trkpt lat="25.051436" lon="101.773826">
<time>2016-10-07T03:07:16Z</time></trkpt>
<trkpt lat="25.051386" lon="101.773796">
<time>2016-10-07T03:07:17Z</time></trkpt>
<trkpt lat="25.051266" lon="101.773735">
<time>2016-10-07T03:07:18Z</time></trkpt>
<trkpt lat="25.051146" lon="101.773665">
<time>2016-10-07T03:07:19Z</time></trkpt>
<trkpt lat="25.050966" lon="101.773545">
<time>2016-10-07T03:07:20Z</time></trkpt>
<trkpt lat="25.050826" lon="101.773415">
<time>2016-10-07T03:07:21Z</time></trkpt>
<trkpt lat="25.050716" lon="101.773275">
<time>2016-10-07T03:07:22Z</time></trkpt>
<trkpt lat="25.050635" lon="101.773175">
<time>2016-10-07T03:07:23Z</time></trkpt>
<trkpt lat="25.050545" lon="101.773055">
<time>2016-10-07T03:07:24Z</time></trkpt>
<trkpt lat="25.050355" lon="101.772834">
<time>2016-10-07T03:07:25Z</time></trkpt>
<trkpt lat="25.050245" lon="101.772714">
<time>2016-10-07T03:07:26Z</time></trkpt>
<trkpt lat="25.050105" lon="101.772614">
<time>2016-10-07T03:07:27Z</time></trkpt>
<trkpt lat="25.049985" lon="101.772524">
<time>2016-10-07T03:07:28Z</time></trkpt>
<trkpt lat="25.049915" lon="101.772464">
<time>2016-10-07T03:07:29Z</time></trkpt>
<trkpt lat="25.049865" lon="101.772404">
<time>2016-10-07T03:07:30Z</time></trkpt>
<trkpt lat="25.049815" lon="101.772344">
<time>2016-10-07T03:07:31Z</time></trkpt>
<trkpt lat="25.049775" lon="101.772294">
<time>2016-10-07T03:07:32Z</time></trkpt>
<trkpt lat="25.049735" lon="101.772204">
<time>2016-10-07T03:07:33Z</time></trkpt>
<trkpt lat="25.049715" lon="101.772134">
<time>2016-10-07T03:07:34Z</time></trkpt>
<trkpt lat="25.049715" lon="101.772084">
<time>2016-10-07T03:07:35Z</time></trkpt>
<trkpt lat="25.049725" lon="101.772003">
<time>2016-10-07T03:07:36Z</time></trkpt>
<trkpt lat="25.049734" lon="101.771883">
<time>2016-10-07T03:07:37Z</time></trkpt>
<trkpt lat="25.049764" lon="101.771743">
<time>2016-10-07T03:07:38Z</time></trkpt>
<trkpt lat="25.049794" lon="101.771543">
<time>2016-10-07T03:07:39Z</time></trkpt>
<trkpt lat="25.049784" lon="101.771343">
<time>2016-10-07T03:07:40Z</time></trkpt>
<trkpt lat="25.049764" lon="101.771182">
<time>2016-10-07T03:07:41Z</time></trkpt>
<trkpt lat="25.049724" lon="101.770962">
<time>2016-10-07T03:07:42Z</time></trkpt>
<trkpt lat="25.049713" lon="101.770782">
<time>2016-10-07T03:07:43Z</time></trkpt>
<trkpt lat="25.049713" lon="101.770562">
<time>2016-10-07T03:07:44Z</time></trkpt>
<trkpt lat="25.049733" lon="101.770352">
<time>2016-10-07T03:07:45Z</time></trkpt>
<trkpt lat="25.049713" lon="101.770191">
<time>2016-10-07T03:07:46Z</time></trkpt>
<trkpt lat="25.049663" lon="101.770031">
<time>2016-10-07T03:07:47Z</time></trkpt>
<trkpt lat="25.049603" lon="101.769871">
<time>2016-10-07T03:07:48Z</time></trkpt>
<trkpt lat="25.049523" lon="101.769711">
<time>2016-10-07T03:07:49Z</time></trkpt>
<trkpt lat="25.049402" lon="101.769471">
<time>2016-10-07T03:07:50Z</time></trkpt>
<trkpt lat="25.049282" lon="101.76925">
<time>2016-10-07T03:07:51Z</time></trkpt>
<trkpt lat="25.049132" lon="101.76904">
<time>2016-10-07T03:07:52Z</time></trkpt>
<trkpt lat="25.048902" lon="101.7688">
<time>2016-10-07T03:07:53Z</time></trkpt>
<trkpt lat="25.048662" lon="101.76858">
<time>2016-10-07T03:07:54Z</time></trkpt>
<trkpt lat="25.048342" lon="101.768309">
<time>2016-10-07T03:07:55Z</time></trkpt>
<trkpt lat="25.048212" lon="101.768179">
<time>2016-10-07T03:07:56Z</time></trkpt>
<trkpt lat="25.048092" lon="101.768019">
<time>2016-10-07T03:07:57Z</time></trkpt>
<trkpt lat="25.047921" lon="101.767709">
<time>2016-10-07T03:07:58Z</time></trkpt>
<trkpt lat="25.047631" lon="101.767148">
<time>2016-10-07T03:07:59Z</time></trkpt>
<trkpt lat="25.047471" lon="101.766808">
<time>2016-10-07T03:08:00Z</time></trkpt>
<trkpt lat="25.047341" lon="101.766468">
<time>2016-10-07T03:08:01Z</time></trkpt>
<trkpt lat="25.04724" lon="101.766077">
<time>2016-10-07T03:08:02Z</time></trkpt>
<trkpt lat="25.04711" lon="101.765437">
<time>2016-10-07T03:08:03Z</time></trkpt>
<trkpt lat="25.04685" lon="101.764686">
<time>2016-10-07T03:08:04Z</time></trkpt>
<trkpt lat="25.046839" lon="101.764616">
<time>2016-10-07T03:08:05Z</time></trkpt>
<trkpt lat="25.046829" lon="101.764536">
<time>2016-10-07T03:08:06Z</time></trkpt>
<trkpt lat="25.046829" lon="101.764486">
<time>2016-10-07T03:08:07Z</time></trkpt>
<trkpt lat="25.046839" lon="101.764436">
<time>2016-10-07T03:08:08Z</time></trkpt>
<trkpt lat="25.046849" lon="101.764396">
<time>2016-10-07T03:08:09Z</time></trkpt>
<trkpt lat="25.046859" lon="101.764376">
<time>2016-10-07T03:08:10Z</time></trkpt>
<trkpt lat="25.046899" lon="101.764336">
<time>2016-10-07T03:08:11Z</time></trkpt>
<trkpt lat="25.046929" lon="101.764306">
<time>2016-10-07T03:08:12Z</time></trkpt>
<trkpt lat="25.046979" lon="101.764276">
<time>2016-10-07T03:08:13Z</time></trkpt>
<trkpt lat="25.047009" lon="101.764256">
<time>2016-10-07T03:08:14Z</time></trkpt>
<trkpt lat="25.047049" lon="101.764236">
<time>2016-10-07T03:08:15Z</time></trkpt>
<trkpt lat="25.047109" lon="101.764216">
<time>2016-10-07T03:08:16Z</time></trkpt>
<trkpt lat="25.047219" lon="101.764186">
<time>2016-10-07T03:08:17Z</time></trkpt>
<trkpt lat="25.047309" lon="101.764156">
<time>2016-10-07T03:08:18Z</time></trkpt>
<trkpt lat="25.047389" lon="101.764115">
<time>2016-10-07T03:08:19Z</time></trkpt>
<trkpt lat="25.047439" lon="101.764085">
<time>2016-10-07T03:08:20Z</time></trkpt>
<trkpt lat="25.047519" lon="101.764035">
<time>2016-10-07T03:08:21Z</time></trkpt>
<trkpt lat="25.047549" lon="101.763995">
<time>2016-10-07T03:08:22Z</time></trkpt>
<trkpt lat="25.047589" lon="101.763945">
<time>2016-10-07T03:08:23Z</time></trkpt>
<trkpt lat="25.047609" lon="101.763895">
<time>2016-10-07T03:08:24Z</time></trkpt>
<trkpt lat="25.047629" lon="101.763825">
<time>2016-10-07T03:08:25Z</time></trkpt>
<trkpt lat="25.047639" lon="101.763755">
<time>2016-10-07T03:08:26Z</time></trkpt>
<trkpt lat="25.047649" lon="101.763695">
<time>2016-10-07T03:08:27Z</time></trkpt>
<trkpt lat="25.047639" lon="101.763605">
<time>2016-10-07T03:08:28Z</time></trkpt>
<trkpt lat="25.047639" lon="101.763555">
<time>2016-10-07T03:08:29Z</time></trkpt>
<trkpt lat="25.047619" lon="101.763495">
<time>2016-10-07T03:08:30Z</time></trkpt>
<trkpt lat="25.047599" lon="101.763455">
<time>2016-10-07T03:08:31Z</time></trkpt>
<trkpt lat="25.047579" lon="101.763405">
<time>2016-10-07T03:08:32Z</time></trkpt>
<trkpt lat="25.047539" lon="101.763345">
<time>2016-10-07T03:08:33Z</time></trkpt>
<trkpt lat="25.047489" lon="101.763295">
<time>2016-10-07T03:08:34Z</time></trkpt>
<trkpt lat="25.047429" lon="101.763265">
<time>2016-10-07T03:08:35Z</time></trkpt>
<trkpt lat="25.047359" lon="101.763235">
<time>2016-10-07T03:08:36Z</time></trkpt>
<trkpt lat="25.047319" lon="101.763215">
<time>2016-10-07T03:08:37Z</time></trkpt>
<trkpt lat="25.047249" lon="101.763205">
<time>2016-10-07T03:08:38Z</time></trkpt>
<trkpt lat="25.047169" lon="101.763195">
<time>2016-10-07T03:08:39Z</time></trkpt>
<trkpt lat="25.047039" lon="101.763185">
<time>2016-10-07T03:08:40Z</time></trkpt>
<trkpt lat="25.046849" lon="101.763205">
<time>2016-10-07T03:08:41Z</time></trkpt>
<trkpt lat="25.046749" lon="101.763205">
<time>2016-10-07T03:08:42Z</time></trkpt>
<trkpt lat="25.046649" lon="101.763185">
<time>2016-10-07T03:08:43Z</time></trkpt>
<trkpt lat="25.046559" lon="101.763135">
<time>2016-10-07T03:08:44Z</time></trkpt>
<trkpt lat="25.046439" lon="101.763055">
<time>2016-10-07T03:08:45Z</time></trkpt>
<trkpt lat="25.046309" lon="101.762935">
<time>2016-10-07T03:08:46Z</time></trkpt>
<trkpt lat="25.046179" lon="101.762834">
<time>2016-10-07T03:08:47Z</time></trkpt>
<trkpt lat="25.046069" lon="101.762754">
<time>2016-10-07T03:08:48Z</time></trkpt>
<trkpt lat="25.045989" lon="101.762704">
<time>2016-10-07T03:08:49Z</time></trkpt>
<trkpt lat="25.045908" lon="101.762674">
<time>2016-10-07T03:08:50Z</time></trkpt>
<trkpt lat="25.045848" lon="101.762654">
<time>2016-10-07T03:08:51Z</time></trkpt>
<trkpt lat="25.045768" lon="101.762644">
<time>2016-10-07T03:08:52Z</time></trkpt>
<trkpt lat="25.045669" lon="101.762654">
<time>2016-10-07T03:08:53Z</time></trkpt>
<trkpt lat="25.045509" lon="101.762684">
<time>2016-10-07T03:08:54Z</time></trkpt>
<trkpt lat="25.045279" lon="101.762744">
<time>2016-10-07T03:08:55Z</time></trkpt>
<trkpt lat="25.045109" lon="101.762764">
<time>2016-10-07T03:08:56Z</time></trkpt>
<trkpt lat="25.044999" lon="101.762764">
<time>2016-10-07T03:08:57Z</time></trkpt>
<trkpt lat="25.044889" lon="101.762734">
<time>2016-10-07T03:08:58Z</time></trkpt>
<trkpt lat="25.044789" lon="101.762694">
<time>2016-10-07T03:08:59Z</time></trkpt>
<trkpt lat="25.044679" lon="101.762604">
<time>2016-10-07T03:09:00Z</time></trkpt>
<trkpt lat="25.044589" lon="101.762484">
<time>2016-10-07T03:09:01Z</time></trkpt>
<trkpt lat="25.044488" lon="101.762304">
<time>2016-10-07T03:09:02Z</time></trkpt>
<trkpt lat="25.044418" lon="101.762114">
<time>2016-10-07T03:09:03Z</time></trkpt>
<trkpt lat="25.044368" lon="101.761904">
<time>2016-10-07T03:09:04Z</time></trkpt>
<trkpt lat="25.044278" lon="101.761624">
<time>2016-10-07T03:09:05Z</time></trkpt>
<trkpt lat="25.044148" lon="101.761353">
<time>2016-10-07T03:09:06Z</time></trkpt>
<trkpt lat="25.044038" lon="101.761153">
<time>2016-10-07T03:09:07Z</time></trkpt>
<trkpt lat="25.042937" lon="101.759842">
<time>2016-10-07T03:09:08Z</time></trkpt>
<trkpt lat="25.042767" lon="101.759582">
<time>2016-10-07T03:09:09Z</time></trkpt>
<trkpt lat="25.042647" lon="101.759312">
<time>2016-10-07T03:09:10Z</time></trkpt>
<trkpt lat="25.042497" lon="101.759022">
<time>2016-10-07T03:09:11Z</time></trkpt>
<trkpt lat="25.042327" lon="101.758812">
<time>2016-10-07T03:09:12Z</time></trkpt>
<trkpt lat="25.042077" lon="101.758481">
<time>2016-10-07T03:09:13Z</time></trkpt>
<trkpt lat="25.041927" lon="101.758261">
<time>2016-10-07T03:09:14Z</time></trkpt>
<trkpt lat="25.041847" lon="101.758151">
<time>2016-10-07T03:09:15Z</time></trkpt>
<trkpt lat="25.041757" lon="101.758051">
<time>2016-10-07T03:09:16Z</time></trkpt>
<trkpt lat="25.041617" lon="101.757941">
<time>2016-10-07T03:09:17Z</time></trkpt>
<trkpt lat="25.041487" lon="101.757841">
<time>2016-10-07T03:09:18Z</time></trkpt>
<trkpt lat="25.041277" lon="101.757731">
<time>2016-10-07T03:09:19Z</time></trkpt>
<trkpt lat="25.041137" lon="101.757631">
<time>2016-10-07T03:09:20Z</time></trkpt>
<trkpt lat="25.041077" lon="101.757571">
<time>2016-10-07T03:09:21Z</time></trkpt>
<trkpt lat="25.041027" lon="101.757501">
<time>2016-10-07T03:09:22Z</time></trkpt>
<trkpt lat="25.040987" lon="101.757421">
<time>2016-10-07T03:09:23Z</time></trkpt>
<trkpt lat="25.040947" lon="101.757311">
<time>2016-10-07T03:09:24Z</time></trkpt>
<trkpt lat="25.040917" lon="101.757211">
<time>2016-10-07T03:09:25Z</time></trkpt>
<trkpt lat="25.040887" lon="101.757081">
<time>2016-10-07T03:09:26Z</time></trkpt>
<trkpt lat="25.040847" lon="101.756971">
<time>2016-10-07T03:09:27Z</time></trkpt>
<trkpt lat="25.040797" lon="101.756851">
<time>2016-10-07T03:09:28Z</time></trkpt>
<trkpt lat="25.040727" lon="101.75675">
<time>2016-10-07T03:09:29Z</time></trkpt>
<trkpt lat="25.040617" lon="101.75662">
<time>2016-10-07T03:09:30Z</time></trkpt>
<trkpt lat="25.040577" lon="101.75657">
<time>2016-10-07T03:09:31Z</time></trkpt>
<trkpt lat="25.040527" lon="101.75653">
<time>2016-10-07T03:09:32Z</time></trkpt>
<trkpt lat="25.040407" lon="101.75643">
<time>2016-10-07T03:09:33Z</time></trkpt>
<trkpt lat="25.040237" lon="101.75629">
<time>2016-10-07T03:09:34Z</time></trkpt>
<trkpt lat="25.040077" lon="101.75613">
<time>2016-10-07T03:09:35Z</time></trkpt>
<trkpt lat="25.039906" lon="101.75598">
<time>2016-10-07T03:09:36Z</time></trkpt>
<trkpt lat="25.039826" lon="101.75592">
<time>2016-10-07T03:09:37Z</time></trkpt>
<trkpt lat="25.039746" lon="101.75587">
<time>2016-10-07T03:09:38Z</time></trkpt>
<trkpt lat="25.039686" lon="101.75584">
<time>2016-10-07T03:09:39Z</time></trkpt>
<trkpt lat="25.039536" lon="101.7558">
<time>2016-10-07T03:09:40Z</time></trkpt>
<trkpt lat="25.039197" lon="101.75572">
<time>2016-10-07T03:09:41Z</time></trkpt>
<trkpt lat="25.039017" lon="101.75568">
<time>2016-10-07T03:09:42Z</time></trkpt>
<trkpt lat="25.038867" lon="101.75568">
<time>2016-10-07T03:09:43Z</time></trkpt>
<trkpt lat="25.038777" lon="101.75569">
<time>2016-10-07T03:09:44Z</time></trkpt>
<trkpt lat="25.038707" lon="101.7557">
<time>2016-10-07T03:09:45Z</time></trkpt>
<trkpt lat="25.038557" lon="101.75576">
<time>2016-10-07T03:09:46Z</time></trkpt>
<trkpt lat="25.038347" lon="101.75586">
<time>2016-10-07T03:09:47Z</time></trkpt>
<trkpt lat="25.038067" lon="101.75598">
<time>2016-10-07T03:09:48Z</time></trkpt>
<trkpt lat="25.037907" lon="101.75603">
<time>2016-10-07T03:09:49Z</time></trkpt>
<trkpt lat="25.037747" lon="101.75607">
<time>2016-10-07T03:09:50Z</time></trkpt>
<trkpt lat="25.037627" lon="101.75611">
<time>2016-10-07T03:09:51Z</time></trkpt>
<trkpt lat="25.037487" lon="101.75614">
<time>2016-10-07T03:09:52Z</time></trkpt>
<trkpt lat="25.037347" lon="101.75615">
<time>2016-10-07T03:09:53Z</time></trkpt>
<trkpt lat="25.037217" lon="101.75613">
<time>2016-10-07T03:09:54Z</time></trkpt>
<trkpt lat="25.037097" lon="101.75608">
<time>2016-10-07T03:09:55Z</time></trkpt>
<trkpt lat="25.036937" lon="101.75601">
<time>2016-10-07T03:09:56Z</time></trkpt>
<trkpt lat="25.036887" lon="101.75598">
<time>2016-10-07T03:09:57Z</time></trkpt>
<trkpt lat="25.036827" lon="101.75596">
<time>2016-10-07T03:09:58Z</time></trkpt>
<trkpt lat="25.036767" lon="101.75593">
<time>2016-10-07T03:09:59Z</time></trkpt>
<trkpt lat="25.036697" lon="101.75591">
<time>2016-10-07T03:10:00Z</time></trkpt>
<trkpt lat="25.036647" lon="101.7559">
<time>2016-10-07T03:10:01Z</time></trkpt>
<trkpt lat="25.036577" lon="101.7559">
<time>2016-10-07T03:10:02Z</time></trkpt>
<trkpt lat="25.036537" lon="101.75591">
<time>2016-10-07T03:10:03Z</time></trkpt>
<trkpt lat="25.036477" lon="101.75592">
<time>2016-10-07T03:10:04Z</time></trkpt>
<trkpt lat="25.036417" lon="101.75593">
<time>2016-10-07T03:10:05Z</time></trkpt>
<trkpt lat="25.036337" lon="101.75596">
<time>2016-10-07T03:10:06Z</time></trkpt>
<trkpt lat="25.035827" lon="101.75622">
<time>2016-10-07T03:10:07Z</time></trkpt>
<trkpt lat="25.035637" lon="101.75634">
<time>2016-10-07T03:10:08Z</time></trkpt>
<trkpt lat="25.035537" lon="101.75641">
<time>2016-10-07T03:10:09Z</time></trkpt>
<trkpt lat="25.035487" lon="101.75644">
<time>2016-10-07T03:10:10Z</time></trkpt>
<trkpt lat="25.035367" lon="101.756511">
<time>2016-10-07T03:10:11Z</time></trkpt>
<trkpt lat="25.035327" lon="101.756531">
<time>2016-10-07T03:10:12Z</time></trkpt>
<trkpt lat="25.035297" lon="101.756541">
<time>2016-10-07T03:10:13Z</time></trkpt>
<trkpt lat="25.035257" lon="101.756551">
<time>2016-10-07T03:10:14Z</time></trkpt>
<trkpt lat="25.035217" lon="101.756561">
<time>2016-10-07T03:10:15Z</time></trkpt>
<trkpt lat="25.035177" lon="101.756561">
<time>2016-10-07T03:10:16Z</time></trkpt>
<trkpt lat="25.035137" lon="101.756561">
<time>2016-10-07T03:10:17Z</time></trkpt>
<trkpt lat="25.035097" lon="101.756551">
<time>2016-10-07T03:10:18Z</time></trkpt>
<trkpt lat="25.035057" lon="101.756531">
<time>2016-10-07T03:10:19Z</time></trkpt>
<trkpt lat="25.035017" lon="101.756501">
<time>2016-10-07T03:10:20Z</time></trkpt>
<trkpt lat="25.034967" lon="101.75645">
<time>2016-10-07T03:10:21Z</time></trkpt>
<trkpt lat="25.034837" lon="101.75633">
<time>2016-10-07T03:10:22Z</time></trkpt>
<trkpt lat="25.034717" lon="101.7562">
<time>2016-10-07T03:10:23Z</time></trkpt>
<trkpt lat="25.034597" lon="101.75608">
<time>2016-10-07T03:10:24Z</time></trkpt>
<trkpt lat="25.034537" lon="101.75601">
<time>2016-10-07T03:10:25Z</time></trkpt>
<trkpt lat="25.034467" lon="101.75592">
<time>2016-10-07T03:10:26Z</time></trkpt>
<trkpt lat="25.034397" lon="101.75581">
<time>2016-10-07T03:10:27Z</time></trkpt>
<trkpt lat="25.034347" lon="101.75567">
<time>2016-10-07T03:10:28Z</time></trkpt>
<trkpt lat="25.034317" lon="101.75556">
<time>2016-10-07T03:10:29Z</time></trkpt>
<trkpt lat="25.034297" lon="101.75545">
<time>2016-10-07T03:10:30Z</time></trkpt>
<trkpt lat="25.034307" lon="101.75534">
<time>2016-10-07T03:10:31Z</time></trkpt>
<trkpt lat="25.034327" lon="101.75522">
<time>2016-10-07T03:10:32Z</time></trkpt>
<trkpt lat="25.034367" lon="101.75509">
<time>2016-10-07T03:10:33Z</time></trkpt>
<trkpt lat="25.034407" lon="101.75498">
<time>2016-10-07T03:10:34Z</time></trkpt>
<trkpt lat="25.034467" lon="101.75485">
<time>2016-10-07T03:10:35Z</time></trkpt>
<trkpt lat="25.034507" lon="101.75474">
<time>2016-10-07T03:10:36Z</time></trkpt>
<trkpt lat="25.034537" lon="101.75466">
<time>2016-10-07T03:10:37Z</time></trkpt>
<trkpt lat="25.034547" lon="101.75457">
<time>2016-10-07T03:10:38Z</time></trkpt>
<trkpt lat="25.034547" lon="101.75449">
<time>2016-10-07T03:10:39Z</time></trkpt>
<trkpt lat="25.034537" lon="101.754409">
<time>2016-10-07T03:10:40Z</time></trkpt>
<trkpt lat="25.034507" lon="101.754339">
<time>2016-10-07T03:10:41Z</time></trkpt>
<trkpt lat="25.034487" lon="101.754279">
<time>2016-10-07T03:10:42Z</time></trkpt>
<trkpt lat="25.034437" lon="101.754179">
<time>2016-10-07T03:10:43Z</time></trkpt>
<trkpt lat="25.034347" lon="101.754039">
<time>2016-10-07T03:10:44Z</time></trkpt>
<trkpt lat="25.034237" lon="101.753869">
<time>2016-10-07T03:10:45Z</time></trkpt>
<trkpt lat="25.034157" lon="101.753739">
<time>2016-10-07T03:10:46Z</time></trkpt>
<trkpt lat="25.034097" lon="101.753639">
<time>2016-10-07T03:10:47Z</time></trkpt>
<trkpt lat="25.034077" lon="101.753589">
<time>2016-10-07T03:10:48Z</time></trkpt>
<trkpt lat="25.034067" lon="101.753549">
<time>2016-10-07T03:10:49Z</time></trkpt>
<trkpt lat="25.034047" lon="101.753519">
<time>2016-10-07T03:10:50Z</time></trkpt>
<trkpt lat="25.034047" lon="101.753479">
<time>2016-10-07T03:10:51Z</time></trkpt>
<trkpt lat="25.034037" lon="101.753439">
<time>2016-10-07T03:10:52Z</time></trkpt>
<trkpt lat="25.034047" lon="101.753409">
<time>2016-10-07T03:10:53Z</time></trkpt>
<trkpt lat="25.034047" lon="101.753369">
<time>2016-10-07T03:10:54Z</time></trkpt>
<trkpt lat="25.034057" lon="101.753329">
<time>2016-10-07T03:10:55Z</time></trkpt>
<trkpt lat="25.034067" lon="101.753279">
<time>2016-10-07T03:10:56Z</time></trkpt>
<trkpt lat="25.034087" lon="101.753239">
<time>2016-10-07T03:10:57Z</time></trkpt>
<trkpt lat="25.034127" lon="101.753179">
<time>2016-10-07T03:10:58Z</time></trkpt>
<trkpt lat="25.034187" lon="101.753109">
<time>2016-10-07T03:10:59Z</time></trkpt>
<trkpt lat="25.034256" lon="101.753049">
<time>2016-10-07T03:11:00Z</time></trkpt>
<trkpt lat="25.034466" lon="101.752869">
<time>2016-10-07T03:11:01Z</time></trkpt>
<trkpt lat="25.034656" lon="101.752699">
<time>2016-10-07T03:11:02Z</time></trkpt>
<trkpt lat="25.034766" lon="101.752579">
<time>2016-10-07T03:11:03Z</time></trkpt>
<trkpt lat="25.034876" lon="101.752399">
<time>2016-10-07T03:11:04Z</time></trkpt>
<trkpt lat="25.034956" lon="101.752279">
<time>2016-10-07T03:11:05Z</time></trkpt>
<trkpt lat="25.035006" lon="101.752189">
<time>2016-10-07T03:11:06Z</time></trkpt>
<trkpt lat="25.035056" lon="101.752099">
<time>2016-10-07T03:11:07Z</time></trkpt>
<trkpt lat="25.035076" lon="101.752059">
<time>2016-10-07T03:11:08Z</time></trkpt>
<trkpt lat="25.035086" lon="101.752009">
<time>2016-10-07T03:11:09Z</time></trkpt>
<trkpt lat="25.035086" lon="101.751958">
<time>2016-10-07T03:11:10Z</time></trkpt>
<trkpt lat="25.035086" lon="101.751908">
<time>2016-10-07T03:11:11Z</time></trkpt>
<trkpt lat="25.035076" lon="101.751848">
<time>2016-10-07T03:11:12Z</time></trkpt>
<trkpt lat="25.035056" lon="101.751798">
<time>2016-10-07T03:11:13Z</time></trkpt>
<trkpt lat="25.035026" lon="101.751758">
<time>2016-10-07T03:11:14Z</time></trkpt>
<trkpt lat="25.034996" lon="101.751718">
<time>2016-10-07T03:11:15Z</time></trkpt>
<trkpt lat="25.034966" lon="101.751688">
<time>2016-10-07T03:11:16Z</time></trkpt>
<trkpt lat="25.034926" lon="101.751668">
<time>2016-10-07T03:11:17Z</time></trkpt>
<trkpt lat="25.034886" lon="101.751648">
<time>2016-10-07T03:11:18Z</time></trkpt>
<trkpt lat="25.034806" lon="101.751618">
<time>2016-10-07T03:11:19Z</time></trkpt>
<trkpt lat="25.034726" lon="101.751598">
<time>2016-10-07T03:11:20Z</time></trkpt>
<trkpt lat="25.034596" lon="101.751558">
<time>2016-10-07T03:11:21Z</time></trkpt>
<trkpt lat="25.034486" lon="101.751528">
<time>2016-10-07T03:11:22Z</time></trkpt>
<trkpt lat="25.034396" lon="101.751518">
<time>2016-10-07T03:11:23Z</time></trkpt>
<trkpt lat="25.034326" lon="101.751508">
<time>2016-10-07T03:11:24Z</time></trkpt>
<trkpt lat="25.034226" lon="101.751508">
<time>2016-10-07T03:11:25Z</time></trkpt>
<trkpt lat="25.034016" lon="101.751528">
<time>2016-10-07T03:11:26Z</time></trkpt>
<trkpt lat="25.033836" lon="101.751558">
<time>2016-10-07T03:11:27Z</time></trkpt>
<trkpt lat="25.033506" lon="101.751598">
<time>2016-10-07T03:11:28Z</time></trkpt>
<trkpt lat="25.033396" lon="101.751608">
<time>2016-10-07T03:11:29Z</time></trkpt>
<trkpt lat="25.033306" lon="101.751608">
<time>2016-10-07T03:11:30Z</time></trkpt>
<trkpt lat="25.033196" lon="101.751608">
<time>2016-10-07T03:11:31Z</time></trkpt>
<trkpt lat="25.033116" lon="101.751598">
<time>2016-10-07T03:11:32Z</time></trkpt>
<trkpt lat="25.033036" lon="101.751588">
<time>2016-10-07T03:11:33Z</time></trkpt>
<trkpt lat="25.032956" lon="101.751558">
<time>2016-10-07T03:11:34Z</time></trkpt>
<trkpt lat="25.032886" lon="101.751518">
<time>2016-10-07T03:11:35Z</time></trkpt>
<trkpt lat="25.032816" lon="101.751478">
<time>2016-10-07T03:11:36Z</time></trkpt>
<trkpt lat="25.032766" lon="101.751428">
<time>2016-10-07T03:11:37Z</time></trkpt>
<trkpt lat="25.032716" lon="101.751368">
<time>2016-10-07T03:11:38Z</time></trkpt>
<trkpt lat="25.032666" lon="101.751288">
<time>2016-10-07T03:11:39Z</time></trkpt>
<trkpt lat="25.032606" lon="101.751178">
<time>2016-10-07T03:11:40Z</time></trkpt>
<trkpt lat="25.032466" lon="101.750888">
<time>2016-10-07T03:11:41Z</time></trkpt>
<trkpt lat="25.032306" lon="101.750508">
<time>2016-10-07T03:11:42Z</time></trkpt>
<trkpt lat="25.032116" lon="101.750018">
<time>2016-10-07T03:11:43Z</time></trkpt>
<trkpt lat="25.032106" lon="101.749968">
<time>2016-10-07T03:11:44Z</time></trkpt>
<trkpt lat="25.032096" lon="101.749928">
<time>2016-10-07T03:11:45Z</time></trkpt>
<trkpt lat="25.032086" lon="101.749878">
<time>2016-10-07T03:11:46Z</time></trkpt>
<trkpt lat="25.032076" lon="101.749828">
<time>2016-10-07T03:11:47Z</time></trkpt>
<trkpt lat="25.032066" lon="101.749758">
<time>2016-10-07T03:11:48Z</time></trkpt>
<trkpt lat="25.032066" lon="101.749688">
<time>2016-10-07T03:11:49Z</time></trkpt>
<trkpt lat="25.032076" lon="101.749598">
<time>2016-10-07T03:11:50Z</time></trkpt>
<trkpt lat="25.032096" lon="101.749518">
<time>2016-10-07T03:11:51Z</time></trkpt>
<trkpt lat="25.032136" lon="101.749378">
<time>2016-10-07T03:11:52Z</time></trkpt>
<trkpt lat="25.032176" lon="101.749258">
<time>2016-10-07T03:11:53Z</time></trkpt>
<trkpt lat="25.032206" lon="101.749158">
<time>2016-10-07T03:11:54Z</time></trkpt>
<trkpt lat="25.032226" lon="101.749038">
<time>2016-10-07T03:11:55Z</time></trkpt>
<trkpt lat="25.032226" lon="101.748898">
<time>2016-10-07T03:11:56Z</time></trkpt>
<trkpt lat="25.032226" lon="101.748798">
<time>2016-10-07T03:11:57Z</time></trkpt>
<trkpt lat="25.032226" lon="101.748648">
<time>2016-10-07T03:11:58Z</time></trkpt>
<trkpt lat="25.032226" lon="101.748578">
<time>2016-10-07T03:11:59Z</time></trkpt>
<trkpt lat="25.032246" lon="101.748488">
<time>2016-10-07T03:12:00Z</time></trkpt>
<trkpt lat="25.032266" lon="101.748378">
<time>2016-10-07T03:12:01Z</time></trkpt>
<trkpt lat="25.032316" lon="101.748198">
<time>2016-10-07T03:12:02Z</time></trkpt>
<trkpt lat="25.032356" lon="101.748038">
<time>2016-10-07T03:12:03Z</time></trkpt>
<trkpt lat="25.032386" lon="101.747877">
<time>2016-10-07T03:12:04Z</time></trkpt>
<trkpt lat="25.032386" lon="101.747727">
<time>2016-10-07T03:12:05Z</time></trkpt>
<trkpt lat="25.032406" lon="101.747427">
<time>2016-10-07T03:12:06Z</time></trkpt>
<trkpt lat="25.032406" lon="101.747237">
<time>2016-10-07T03:12:07Z</time></trkpt>
<trkpt lat="25.032406" lon="101.747177">
<time>2016-10-07T03:12:08Z</time></trkpt>
<trkpt lat="25.032396" lon="101.747127">
<time>2016-10-07T03:12:09Z</time></trkpt>
<trkpt lat="25.032386" lon="101.747077">
<time>2016-10-07T03:12:10Z</time></trkpt>
<trkpt lat="25.032366" lon="101.747017">
<time>2016-10-07T03:12:11Z</time></trkpt>
<trkpt lat="25.032336" lon="101.746957">
<time>2016-10-07T03:12:12Z</time></trkpt>
<trkpt lat="25.032276" lon="101.746837">
<time>2016-10-07T03:12:13Z</time></trkpt>
<trkpt lat="25.032176" lon="101.746637">
<time>2016-10-07T03:12:14Z</time></trkpt>
<trkpt lat="25.032106" lon="101.746517">
<time>2016-10-07T03:12:15Z</time></trkpt>
<trkpt lat="25.032046" lon="101.746327">
<time>2016-10-07T03:12:16Z</time></trkpt>
<trkpt lat="25.032027" lon="101.746237">
<time>2016-10-07T03:12:17Z</time></trkpt>
<trkpt lat="25.032007" lon="101.746077">
<time>2016-10-07T03:12:18Z</time></trkpt>
<trkpt lat="25.031997" lon="101.745987">
<time>2016-10-07T03:12:19Z</time></trkpt>
<trkpt lat="25.031957" lon="101.745847">
<time>2016-10-07T03:12:20Z</time></trkpt>
<trkpt lat="25.031917" lon="101.745697">
<time>2016-10-07T03:12:21Z</time></trkpt>
<trkpt lat="25.031877" lon="101.745577">
<time>2016-10-07T03:12:22Z</time></trkpt>
<trkpt lat="25.031847" lon="101.745457">
<time>2016-10-07T03:12:23Z</time></trkpt>
<trkpt lat="25.031847" lon="101.745377">
<time>2016-10-07T03:12:24Z</time></trkpt>
<trkpt lat="25.031847" lon="101.745307">
<time>2016-10-07T03:12:25Z</time></trkpt>
<trkpt lat="25.031867" lon="101.745227">
<time>2016-10-07T03:12:26Z</time></trkpt>
<trkpt lat="25.031897" lon="101.745157">
<time>2016-10-07T03:12:27Z</time></trkpt>
<trkpt lat="25.031927" lon="101.745107">
<time>2016-10-07T03:12:28Z</time></trkpt>
<trkpt lat="25.031967" lon="101.745057">
<time>2016-10-07T03:12:29Z</time></trkpt>
<trkpt lat="25.032017" lon="101.745007">
<time>2016-10-07T03:12:30Z</time></trkpt>
<trkpt lat="25.032077" lon="101.744977">
<time>2016-10-07T03:12:31Z</time></trkpt>
<trkpt lat="25.032137" lon="101.744947">
<time>2016-10-07T03:12:32Z</time></trkpt>
<trkpt lat="25.032247" lon="101.744917">
<time>2016-10-07T03:12:33Z</time></trkpt>
<trkpt lat="25.032367" lon="101.744887">
<time>2016-10-07T03:12:34Z</time></trkpt>
<trkpt lat="25.032477" lon="101.744847">
<time>2016-10-07T03:12:35Z</time></trkpt>
<trkpt lat="25.032587" lon="101.744787">
<time>2016-10-07T03:12:36Z</time></trkpt>
<trkpt lat="25.032677" lon="101.744747">
<time>2016-10-07T03:12:37Z</time></trkpt>
<trkpt lat="25.032767" lon="101.744717">
<time>2016-10-07T03:12:38Z</time></trkpt>
<trkpt lat="25.032867" lon="101.744677">
<time>2016-10-07T03:12:39Z</time></trkpt>
<trkpt lat="25.032917" lon="101.744667">
<time>2016-10-07T03:12:40Z</time></trkpt>
<trkpt lat="25.032987" lon="101.744657">
<time>2016-10-07T03:12:41Z</time></trkpt>
<trkpt lat="25.033197" lon="101.744637">
<time>2016-10-07T03:12:42Z</time></trkpt>
<trkpt lat="25.033337" lon="101.744627">
<time>2016-10-07T03:12:43Z</time></trkpt>
<trkpt lat="25.033457" lon="101.744597">
<time>2016-10-07T03:12:44Z</time></trkpt>
<trkpt lat="25.033537" lon="101.744577">
<time>2016-10-07T03:12:45Z</time></trkpt>
<trkpt lat="25.033607" lon="101.744547">
<time>2016-10-07T03:12:46Z</time></trkpt>
<trkpt lat="25.033677" lon="101.744507">
<time>2016-10-07T03:12:47Z</time></trkpt>
<trkpt lat="25.033827" lon="101.744427">
<time>2016-10-07T03:12:48Z</time></trkpt>
<trkpt lat="25.034037" lon="101.744297">
<time>2016-10-07T03:12:49Z</time></trkpt>
<trkpt lat="25.034197" lon="101.744227">
<time>2016-10-07T03:12:50Z</time></trkpt>
<trkpt lat="25.034287" lon="101.744177">
<time>2016-10-07T03:12:51Z</time></trkpt>
<trkpt lat="25.034337" lon="101.744147">
<time>2016-10-07T03:12:52Z</time></trkpt>
<trkpt lat="25.034407" lon="101.744077">
<time>2016-10-07T03:12:53Z</time></trkpt>
<trkpt lat="25.034477" lon="101.743997">
<time>2016-10-07T03:12:54Z</time></trkpt>
<trkpt lat="25.034507" lon="101.743937">
<time>2016-10-07T03:12:55Z</time></trkpt>
<trkpt lat="25.034527" lon="101.743867">
<time>2016-10-07T03:12:56Z</time></trkpt>
<trkpt lat="25.034537" lon="101.743807">
<time>2016-10-07T03:12:57Z</time></trkpt>
<trkpt lat="25.034537" lon="101.743737">
<time>2016-10-07T03:12:58Z</time></trkpt>
<trkpt lat="25.034517" lon="101.743677">
<time>2016-10-07T03:12:59Z</time></trkpt>
<trkpt lat="25.034497" lon="101.743607">
<time>2016-10-07T03:13:00Z</time></trkpt>
<trkpt lat="25.034467" lon="101.743557">
<time>2016-10-07T03:13:01Z</time></trkpt>
<trkpt lat="25.034367" lon="101.743407">
<time>2016-10-07T03:13:02Z</time></trkpt>
<trkpt lat="25.034267" lon="101.743307">
<time>2016-10-07T03:13:03Z</time></trkpt>
<trkpt lat="25.034167" lon="101.743217">
<time>2016-10-07T03:13:04Z</time></trkpt>
<trkpt lat="25.033957" lon="101.743057">
<time>2016-10-07T03:13:05Z</time></trkpt>
<trkpt lat="25.033697" lon="101.742857">
<time>2016-10-07T03:13:06Z</time></trkpt>
<trkpt lat="25.033447" lon="101.742657">
<time>2016-10-07T03:13:07Z</time></trkpt>
<trkpt lat="25.033277" lon="101.742517">
<time>2016-10-07T03:13:08Z</time></trkpt>
<trkpt lat="25.033147" lon="101.742407">
<time>2016-10-07T03:13:09Z</time></trkpt>
<trkpt lat="25.032927" lon="101.742237">
<time>2016-10-07T03:13:10Z</time></trkpt>
<trkpt lat="25.032737" lon="101.742107">
<time>2016-10-07T03:13:11Z</time></trkpt>
<trkpt lat="25.032597" lon="101.742007">
<time>2016-10-07T03:13:12Z</time></trkpt>
<trkpt lat="25.032477" lon="101.741927">
<time>2016-10-07T03:13:13Z</time></trkpt>
<trkpt lat="25.032287" lon="101.741797">
<time>2016-10-07T03:13:14Z</time></trkpt>
<trkpt lat="25.032107" lon="101.741667">
<time>2016-10-07T03:13:15Z</time></trkpt>
<trkpt lat="25.031977" lon="101.741587">
<time>2016-10-07T03:13:16Z</time></trkpt>
<trkpt lat="25.031907" lon="101.741527">
<time>2016-10-07T03:13:17Z</time></trkpt>
<trkpt lat="25.031817" lon="101.741447">
<time>2016-10-07T03:13:18Z</time></trkpt>
<trkpt lat="25.031727" lon="101.741347">
<time>2016-10-07T03:13:19Z</time></trkpt>
<trkpt lat="25.031647" lon="101.741227">
<time>2016-10-07T03:13:20Z</time></trkpt>
<trkpt lat="25.031588" lon="101.741107">
<time>2016-10-07T03:13:21Z</time></trkpt>
<trkpt lat="25.031518" lon="101.740967">
<time>2016-10-07T03:13:22Z</time></trkpt>
<trkpt lat="25.031418" lon="101.740717">
<time>2016-10-07T03:13:23Z</time></trkpt>
<trkpt lat="25.031358" lon="101.740497">
<time>2016-10-07T03:13:24Z</time></trkpt>
<trkpt lat="25.031338" lon="101.740377">
<time>2016-10-07T03:13:25Z</time></trkpt>
<trkpt lat="25.031308" lon="101.740217">
<time>2016-10-07T03:13:26Z</time></trkpt>
<trkpt lat="25.031298" lon="101.740117">
<time>2016-10-07T03:13:27Z</time></trkpt>
<trkpt lat="25.031298" lon="101.740007">
<time>2016-10-07T03:13:28Z</time></trkpt>
<trkpt lat="25.031308" lon="101.739917">
<time>2016-10-07T03:13:29Z</time></trkpt>
<trkpt lat="25.031328" lon="101.739807">
<time>2016-10-07T03:13:30Z</time></trkpt>
<trkpt lat="25.031358" lon="101.739698">
<time>2016-10-07T03:13:31Z</time></trkpt>
<trkpt lat="25.031418" lon="101.739578">
<time>2016-10-07T03:13:32Z</time></trkpt>
<trkpt lat="25.031478" lon="101.739458">
<time>2016-10-07T03:13:33Z</time></trkpt>
<trkpt lat="25.031608" lon="101.739248">
<time>2016-10-07T03:13:34Z</time></trkpt>
<trkpt lat="25.031708" lon="101.739108">
<time>2016-10-07T03:13:35Z</time></trkpt>
<trkpt lat="25.031838" lon="101.738958">
<time>2016-10-07T03:13:36Z</time></trkpt>
<trkpt lat="25.031928" lon="101.738878">
<time>2016-10-07T03:13:37Z</time></trkpt>
<trkpt lat="25.031988" lon="101.738828">
<time>2016-10-07T03:13:38Z</time></trkpt>
<trkpt lat="25.032058" lon="101.738798">
<time>2016-10-07T03:13:39Z</time></trkpt>
<trkpt lat="25.032158" lon="101.738778">
<time>2016-10-07T03:13:40Z</time></trkpt>
<trkpt lat="25.032238" lon="101.738758">
<time>2016-10-07T03:13:41Z</time></trkpt>
<trkpt lat="25.032348" lon="101.738748">
<time>2016-10-07T03:13:42Z</time></trkpt>
<trkpt lat="25.032468" lon="101.738738">
<time>2016-10-07T03:13:43Z</time></trkpt>
<trkpt lat="25.032568" lon="101.738728">
<time>2016-10-07T03:13:44Z</time></trkpt>
<trkpt lat="25.032648" lon="101.738708">
<time>2016-10-07T03:13:45Z</time></trkpt>
<trkpt lat="25.032728" lon="101.738678">
<time>2016-10-07T03:13:46Z</time></trkpt>
<trkpt lat="25.032798" lon="101.738638">
<time>2016-10-07T03:13:47Z</time></trkpt>
<trkpt lat="25.032898" lon="101.738568">
<time>2016-10-07T03:13:48Z</time></trkpt>
<trkpt lat="25.033078" lon="101.738418">
<time>2016-10-07T03:13:49Z</time></trkpt>
<trkpt lat="25.033298" lon="101.738218">
<time>2016-10-07T03:13:50Z</time></trkpt>
<trkpt lat="25.033518" lon="101.738018">
<time>2016-10-07T03:13:51Z</time></trkpt>
<trkpt lat="25.033658" lon="101.737898">
<time>2016-10-07T03:13:52Z</time></trkpt>
<trkpt lat="25.033718" lon="101.737848">
<time>2016-10-07T03:13:53Z</time></trkpt>
<trkpt lat="25.033778" lon="101.737768">
<time>2016-10-07T03:13:54Z</time></trkpt>
<trkpt lat="25.033818" lon="101.737708">
<time>2016-10-07T03:13:55Z</time></trkpt>
<trkpt lat="25.033838" lon="101.737648">
<time>2016-10-07T03:13:56Z</time></trkpt>
<trkpt lat="25.033849" lon="101.737598">
<time>2016-10-07T03:13:57Z</time></trkpt>
<trkpt lat="25.033849" lon="101.737548">
<time>2016-10-07T03:13:58Z</time></trkpt>
<trkpt lat="25.033849" lon="101.737488">
<time>2016-10-07T03:13:59Z</time></trkpt>
<trkpt lat="25.033829" lon="101.737428">
<time>2016-10-07T03:14:00Z</time></trkpt>
<trkpt lat="25.033799" lon="101.737358">
<time>2016-10-07T03:14:01Z</time></trkpt>
<trkpt lat="25.033769" lon="101.737318">
<time>2016-10-07T03:14:02Z</time></trkpt>
<trkpt lat="25.033739" lon="101.737268">
<time>2016-10-07T03:14:03Z</time></trkpt>
<trkpt lat="25.033699" lon="101.737218">
<time>2016-10-07T03:14:04Z</time></trkpt>
<trkpt lat="25.033659" lon="101.737168">
<time>2016-10-07T03:14:05Z</time></trkpt>
<trkpt lat="25.033559" lon="101.737098">
<time>2016-10-07T03:14:06Z</time></trkpt>
<trkpt lat="25.033479" lon="101.737048">
<time>2016-10-07T03:14:07Z</time></trkpt>
<trkpt lat="25.033419" lon="101.737028">
<time>2016-10-07T03:14:08Z</time></trkpt>
<trkpt lat="25.033309" lon="101.736998">
<time>2016-10-07T03:14:09Z</time></trkpt>
<trkpt lat="25.033119" lon="101.736958">
<time>2016-10-07T03:14:10Z</time></trkpt>
<trkpt lat="25.032859" lon="101.736918">
<time>2016-10-07T03:14:11Z</time></trkpt>
<trkpt lat="25.032599" lon="101.736868">
<time>2016-10-07T03:14:12Z</time></trkpt>
<trkpt lat="25.032399" lon="101.736828">
<time>2016-10-07T03:14:13Z</time></trkpt>
<trkpt lat="25.032299" lon="101.736788">
<time>2016-10-07T03:14:14Z</time></trkpt>
<trkpt lat="25.032229" lon="101.736748">
<time>2016-10-07T03:14:15Z</time></trkpt>
<trkpt lat="25.032189" lon="101.736718">
<time>2016-10-07T03:14:16Z</time></trkpt>
<trkpt lat="25.032129" lon="101.736658">
<time>2016-10-07T03:14:17Z</time></trkpt>
<trkpt lat="25.032099" lon="101.736578">
<time>2016-10-07T03:14:18Z</time></trkpt>
<trkpt lat="25.032079" lon="101.736508">
<time>2016-10-07T03:14:19Z</time></trkpt>
<trkpt lat="25.032069" lon="101.736438">
<time>2016-10-07T03:14:20Z</time></trkpt>
<trkpt lat="25.032079" lon="101.736348">
<time>2016-10-07T03:14:21Z</time></trkpt>
<trkpt lat="25.032129" lon="101.736198">
<time>2016-10-07T03:14:22Z</time></trkpt>
<trkpt lat="25.032189" lon="101.736068">
<time>2016-10-07T03:14:23Z</time></trkpt>
<trkpt lat="25.032209" lon="101.735968">
<time>2016-10-07T03:14:24Z</time></trkpt>
<trkpt lat="25.032219" lon="101.735878">
<time>2016-10-07T03:14:25Z</time></trkpt>
<trkpt lat="25.03223" lon="101.735818">
<time>2016-10-07T03:14:26Z</time></trkpt>
<trkpt lat="25.03223" lon="101.735718">
<time>2016-10-07T03:14:27Z</time></trkpt>
<trkpt lat="25.03221" lon="101.735639">
<time>2016-10-07T03:14:28Z</time></trkpt>
<trkpt lat="25.03215" lon="101.735379">
<time>2016-10-07T03:14:29Z</time></trkpt>
<trkpt lat="25.0321" lon="101.735189">
<time>2016-10-07T03:14:30Z</time></trkpt>
<trkpt lat="25.03208" lon="101.735029">
<time>2016-10-07T03:14:31Z</time></trkpt>
<trkpt lat="25.03209" lon="101.734919">
<time>2016-10-07T03:14:32Z</time></trkpt>
<trkpt lat="25.03211" lon="101.734839">
<time>2016-10-07T03:14:33Z</time></trkpt>
<trkpt lat="25.03216" lon="101.734729">
<time>2016-10-07T03:14:34Z</time></trkpt>
<trkpt lat="25.03223" lon="101.734589">
<time>2016-10-07T03:14:35Z</time></trkpt>
<trkpt lat="25.03234" lon="101.734379">
<time>2016-10-07T03:14:36Z</time></trkpt>
<trkpt lat="25.03242" lon="101.734149">
<time>2016-10-07T03:14:37Z</time></trkpt>
<trkpt lat="25.03248" lon="101.734019">
<time>2016-10-07T03:14:38Z</time></trkpt>
<trkpt lat="25.03254" lon="101.733909">
<time>2016-10-07T03:14:39Z</time></trkpt>
<trkpt lat="25.032611" lon="101.733799">
<time>2016-10-07T03:14:40Z</time></trkpt>
<trkpt lat="25.032841" lon="101.733519">
<time>2016-10-07T03:14:41Z</time></trkpt>
<trkpt lat="25.032891" lon="101.733459">
<time>2016-10-07T03:14:42Z</time></trkpt>
<trkpt lat="25.032951" lon="101.733369">
<time>2016-10-07T03:14:43Z</time></trkpt>
<trkpt lat="25.032971" lon="101.733329">
<time>2016-10-07T03:14:44Z</time></trkpt>
<trkpt lat="25.033041" lon="101.733199">
<time>2016-10-07T03:14:45Z</time></trkpt>
<trkpt lat="25.033161" lon="101.73291">
<time>2016-10-07T03:14:46Z</time></trkpt>
<trkpt lat="25.033261" lon="101.73268">
<time>2016-10-07T03:14:47Z</time></trkpt>
<trkpt lat="25.033361" lon="101.73242">
<time>2016-10-07T03:14:48Z</time></trkpt>
<trkpt lat="25.033441" lon="101.73225">
<time>2016-10-07T03:14:49Z</time></trkpt>
<trkpt lat="25.033491" lon="101.73215">
<time>2016-10-07T03:14:50Z</time></trkpt>
<trkpt lat="25.033551" lon="101.73204">
<time>2016-10-07T03:14:51Z</time></trkpt>
<trkpt lat="25.033591" lon="101.73197">
<time>2016-10-07T03:14:52Z</time></trkpt>
<trkpt lat="25.033632" lon="101.73191">
<time>2016-10-07T03:14:53Z</time></trkpt>
<trkpt lat="25.033662" lon="101.73186">
<time>2016-10-07T03:14:54Z</time></trkpt>
<trkpt lat="25.033712" lon="101.73181">
<time>2016-10-07T03:14:55Z</time></trkpt>
<trkpt lat="25.033792" lon="101.73173">
<time>2016-10-07T03:14:56Z</time></trkpt>
<trkpt lat="25.033872" lon="101.73166">
<time>2016-10-07T03:14:57Z</time></trkpt>
<trkpt lat="25.033982" lon="101.73157">
<time>2016-10-07T03:14:58Z</time></trkpt>
<trkpt lat="25.034062" lon="101.73151">
<time>2016-10-07T03:14:59Z</time></trkpt>
<trkpt lat="25.034132" lon="101.73143">
<time>2016-10-07T03:15:00Z</time></trkpt>
<trkpt lat="25.034172" lon="101.73139">
<time>2016-10-07T03:15:01Z</time></trkpt>
<trkpt lat="25.034192" lon="101.73133">
<time>2016-10-07T03:15:02Z</time></trkpt>
<trkpt lat="25.034212" lon="101.73128">
<time>2016-10-07T03:15:03Z</time></trkpt>
<trkpt lat="25.034222" lon="101.73121">
<time>2016-10-07T03:15:04Z</time></trkpt>
<trkpt lat="25.034242" lon="101.73113">
<time>2016-10-07T03:15:05Z</time></trkpt>
<trkpt lat="25.034252" lon="101.730951">
<time>2016-10-07T03:15:06Z</time></trkpt>
<trkpt lat="25.034252" lon="101.730871">
<time>2016-10-07T03:15:07Z</time></trkpt>
<trkpt lat="25.034272" lon="101.730811">
<time>2016-10-07T03:15:08Z</time></trkpt>
<trkpt lat="25.034302" lon="101.730741">
<time>2016-10-07T03:15:09Z</time></trkpt>
<trkpt lat="25.034322" lon="101.730691">
<time>2016-10-07T03:15:10Z</time></trkpt>
<trkpt lat="25.034352" lon="101.730651">
<time>2016-10-07T03:15:11Z</time></trkpt>
<trkpt lat="25.034392" lon="101.730621">
<time>2016-10-07T03:15:12Z</time></trkpt>
<trkpt lat="25.034422" lon="101.730601">
<time>2016-10-07T03:15:13Z</time></trkpt>
<trkpt lat="25.034472" lon="101.730591">
<time>2016-10-07T03:15:14Z</time></trkpt>
<trkpt lat="25.034582" lon="101.730561">
<time>2016-10-07T03:15:15Z</time></trkpt>
<trkpt lat="25.034652" lon="101.730551">
<time>2016-10-07T03:15:16Z</time></trkpt>
<trkpt lat="25.034742" lon="101.730521">
<time>2016-10-07T03:15:17Z</time></trkpt>
<trkpt lat="25.034802" lon="101.730501">
<time>2016-10-07T03:15:18Z</time></trkpt>
<trkpt lat="25.034852" lon="101.730471">
<time>2016-10-07T03:15:19Z</time></trkpt>
<trkpt lat="25.034932" lon="101.730411">
<time>2016-10-07T03:15:20Z</time></trkpt>
<trkpt lat="25.034992" lon="101.730351">
<time>2016-10-07T03:15:21Z</time></trkpt>
<trkpt lat="25.035062" lon="101.730271">
<time>2016-10-07T03:15:22Z</time></trkpt>
<trkpt lat="25.035162" lon="101.730161">
<time>2016-10-07T03:15:23Z</time></trkpt>
<trkpt lat="25.035243" lon="101.730081">
<time>2016-10-07T03:15:24Z</time></trkpt>
<trkpt lat="25.035343" lon="101.729921">
<time>2016-10-07T03:15:25Z</time></trkpt>
<trkpt lat="25.035503" lon="101.729661">
<time>2016-10-07T03:15:26Z</time></trkpt>
<trkpt lat="25.035643" lon="101.729411">
<time>2016-10-07T03:15:27Z</time></trkpt>
<trkpt lat="25.035843" lon="101.729042">
<time>2016-10-07T03:15:28Z</time></trkpt>
<trkpt lat="25.035923" lon="101.728912">
<time>2016-10-07T03:15:29Z</time></trkpt>
<trkpt lat="25.035983" lon="101.728812">
<time>2016-10-07T03:15:30Z</time></trkpt>
<trkpt lat="25.036053" lon="101.728702">
<time>2016-10-07T03:15:31Z</time></trkpt>
<trkpt lat="25.036093" lon="101.728652">
<time>2016-10-07T03:15:32Z</time></trkpt>
<trkpt lat="25.036113" lon="101.728622">
<time>2016-10-07T03:15:33Z</time></trkpt>
<trkpt lat="25.036143" lon="101.728602">
<time>2016-10-07T03:15:34Z</time></trkpt>
<trkpt lat="25.036183" lon="101.728592">
<time>2016-10-07T03:15:35Z</time></trkpt>
<trkpt lat="25.036223" lon="101.728592">
<time>2016-10-07T03:15:36Z</time></trkpt>
<trkpt lat="25.036263" lon="101.728582">
<time>2016-10-07T03:15:37Z</time></trkpt>
<trkpt lat="25.036303" lon="101.728582">
<time>2016-10-07T03:15:38Z</time></trkpt>
<trkpt lat="25.036353" lon="101.728602">
<time>2016-10-07T03:15:39Z</time></trkpt>
<trkpt lat="25.036393" lon="101.728622">
<time>2016-10-07T03:15:40Z</time></trkpt>
<trkpt lat="25.036433" lon="101.728642">
<time>2016-10-07T03:15:41Z</time></trkpt>
<trkpt lat="25.036503" lon="101.728712">
<time>2016-10-07T03:15:42Z</time></trkpt>
<trkpt lat="25.036593" lon="101.728812">
<time>2016-10-07T03:15:43Z</time></trkpt>
<trkpt lat="25.036653" lon="101.728862">
<time>2016-10-07T03:15:44Z</time></trkpt>
<trkpt lat="25.036713" lon="101.728902">
<time>2016-10-07T03:15:45Z</time></trkpt>
<trkpt lat="25.036743" lon="101.728922">
<time>2016-10-07T03:15:46Z</time></trkpt>
<trkpt lat="25.036783" lon="101.728932">
<time>2016-10-07T03:15:47Z</time></trkpt>
<trkpt lat="25.036843" lon="101.728942">
<time>2016-10-07T03:15:48Z</time></trkpt>
<trkpt lat="25.036873" lon="101.728952">
<time>2016-10-07T03:15:49Z</time></trkpt>
<trkpt lat="25.036913" lon="101.728952">
<time>2016-10-07T03:15:50Z</time></trkpt>
<trkpt lat="25.036963" lon="101.728942">
<time>2016-10-07T03:15:51Z</time></trkpt>
<trkpt lat="25.037003" lon="101.728922">
<time>2016-10-07T03:15:52Z</time></trkpt>
<trkpt lat="25.037043" lon="101.728892">
<time>2016-10-07T03:15:53Z</time></trkpt>
<trkpt lat="25.037083" lon="101.728862">
<time>2016-10-07T03:15:54Z</time></trkpt>
<trkpt lat="25.037123" lon="101.728802">
<time>2016-10-07T03:15:55Z</time></trkpt>
<trkpt lat="25.037173" lon="101.728702">
<time>2016-10-07T03:15:56Z</time></trkpt>
<trkpt lat="25.037314" lon="101.728382">
<time>2016-10-07T03:15:57Z</time></trkpt>
<trkpt lat="25.037384" lon="101.728192">
<time>2016-10-07T03:15:58Z</time></trkpt>
<trkpt lat="25.037494" lon="101.727922">
<time>2016-10-07T03:15:59Z</time></trkpt>
<trkpt lat="25.037604" lon="101.727642">
<time>2016-10-07T03:16:00Z</time></trkpt>
<trkpt lat="25.037754" lon="101.727353">
<time>2016-10-07T03:16:01Z</time></trkpt>
<trkpt lat="25.037824" lon="101.727233">
<time>2016-10-07T03:16:02Z</time></trkpt>
<trkpt lat="25.037974" lon="101.727023">
<time>2016-10-07T03:16:03Z</time></trkpt>
<trkpt lat="25.038125" lon="101.726833">
<time>2016-10-07T03:16:04Z</time></trkpt>
<trkpt lat="25.038365" lon="101.726543">
<time>2016-10-07T03:16:05Z</time></trkpt>
<trkpt lat="25.038615" lon="101.726233">
<time>2016-10-07T03:16:06Z</time></trkpt>
<trkpt lat="25.038815" lon="101.726013">
<time>2016-10-07T03:16:07Z</time></trkpt>
<trkpt lat="25.038955" lon="101.725854">
<time>2016-10-07T03:16:08Z</time></trkpt>
<trkpt lat="25.039115" lon="101.725714">
<time>2016-10-07T03:16:09Z</time></trkpt>
<trkpt lat="25.039456" lon="101.725464">
<time>2016-10-07T03:16:10Z</time></trkpt>
<trkpt lat="25.039766" lon="101.725214">
<time>2016-10-07T03:16:11Z</time></trkpt>
<trkpt lat="25.039976" lon="101.725034">
<time>2016-10-07T03:16:12Z</time></trkpt>
<trkpt lat="25.040066" lon="101.724954">
<time>2016-10-07T03:16:13Z</time></trkpt>
<trkpt lat="25.040156" lon="101.724864">
<time>2016-10-07T03:16:14Z</time></trkpt>
<trkpt lat="25.040216" lon="101.724774">
<time>2016-10-07T03:16:15Z</time></trkpt>
<trkpt lat="25.040246" lon="101.724724">
<time>2016-10-07T03:16:16Z</time></trkpt>
<trkpt lat="25.040286" lon="101.724615">
<time>2016-10-07T03:16:17Z</time></trkpt>
<trkpt lat="25.040326" lon="101.724515">
<time>2016-10-07T03:16:18Z</time></trkpt>
<trkpt lat="25.040366" lon="101.724385">
<time>2016-10-07T03:16:19Z</time></trkpt>
<trkpt lat="25.040397" lon="101.724265">
<time>2016-10-07T03:16:20Z</time></trkpt>
<trkpt lat="25.040457" lon="101.724085">
<time>2016-10-07T03:16:21Z</time></trkpt>
<trkpt lat="25.040497" lon="101.723955">
<time>2016-10-07T03:16:22Z</time></trkpt>
<trkpt lat="25.040547" lon="101.723835">
<time>2016-10-07T03:16:23Z</time></trkpt>
<trkpt lat="25.040577" lon="101.723765">
<time>2016-10-07T03:16:24Z</time></trkpt>
<trkpt lat="25.040627" lon="101.723675">
<time>2016-10-07T03:16:25Z</time></trkpt>
<trkpt lat="25.040677" lon="101.723625">
<time>2016-10-07T03:16:26Z</time></trkpt>
<trkpt lat="25.040747" lon="101.723575">
<time>2016-10-07T03:16:27Z</time></trkpt>
<trkpt lat="25.040797" lon="101.723545">
<time>2016-10-07T03:16:28Z</time></trkpt>
<trkpt lat="25.040857" lon="101.723525">
<time>2016-10-07T03:16:29Z</time></trkpt>
<trkpt lat="25.040947" lon="101.723495">
<time>2016-10-07T03:16:30Z</time></trkpt>
<trkpt lat="25.041177" lon="101.723445">
<time>2016-10-07T03:16:31Z</time></trkpt>
<trkpt lat="25.041327" lon="101.723405">
<time>2016-10-07T03:16:32Z</time></trkpt>
<trkpt lat="25.041537" lon="101.723326">
<time>2016-10-07T03:16:33Z</time></trkpt>
<trkpt lat="25.041657" lon="101.723286">
<time>2016-10-07T03:16:34Z</time></trkpt>
<trkpt lat="25.041727" lon="101.723266">
<time>2016-10-07T03:16:35Z</time></trkpt>
<trkpt lat="25.041797" lon="101.723256">
<time>2016-10-07T03:16:36Z</time></trkpt>
<trkpt lat="25.041847" lon="101.723246">
<time>2016-10-07T03:16:37Z</time></trkpt>
<trkpt lat="25.041927" lon="101.723246">
<time>2016-10-07T03:16:38Z</time></trkpt>
<trkpt lat="25.041987" lon="101.723246">
<time>2016-10-07T03:16:39Z</time></trkpt>
<trkpt lat="25.042047" lon="101.723256">
<time>2016-10-07T03:16:40Z</time></trkpt>
<trkpt lat="25.042077" lon="101.723266">
<time>2016-10-07T03:16:41Z</time></trkpt>
<trkpt lat="25.042147" lon="101.723286">
<time>2016-10-07T03:16:42Z</time></trkpt>
<trkpt lat="25.042187" lon="101.723315">
<time>2016-10-07T03:16:43Z</time></trkpt>
<trkpt lat="25.042227" lon="101.723335">
<time>2016-10-07T03:16:44Z</time></trkpt>
<trkpt lat="25.042287" lon="101.723375">
<time>2016-10-07T03:16:45Z</time></trkpt>
<trkpt lat="25.042377" lon="101.723455">
<time>2016-10-07T03:16:46Z</time></trkpt>
<trkpt lat="25.042417" lon="101.723505">
<time>2016-10-07T03:16:47Z</time></trkpt>
<trkpt lat="25.042557" lon="101.723645">
<time>2016-10-07T03:16:48Z</time></trkpt>
<trkpt lat="25.042647" lon="101.723725">
<time>2016-10-07T03:16:49Z</time></trkpt>
<trkpt lat="25.042777" lon="101.723835">
<time>2016-10-07T03:16:50Z</time></trkpt>
<trkpt lat="25.042957" lon="101.723965">
<time>2016-10-07T03:16:51Z</time></trkpt>
<trkpt lat="25.043346" lon="101.724235">
<time>2016-10-07T03:16:52Z</time></trkpt>
<trkpt lat="25.043726" lon="101.724485">
<time>2016-10-07T03:16:53Z</time></trkpt>
<trkpt lat="25.043956" lon="101.724644">
<time>2016-10-07T03:16:54Z</time></trkpt>
<trkpt lat="25.044176" lon="101.724814">
<time>2016-10-07T03:16:55Z</time></trkpt>
<trkpt lat="25.044356" lon="101.724914">
<time>2016-10-07T03:16:56Z</time></trkpt>
<trkpt lat="25.044426" lon="101.724944">
<time>2016-10-07T03:16:57Z</time></trkpt>
<trkpt lat="25.044485" lon="101.724954">
<time>2016-10-07T03:16:58Z</time></trkpt>
<trkpt lat="25.044545" lon="101.724954">
<time>2016-10-07T03:16:59Z</time></trkpt>
<trkpt lat="25.044595" lon="101.724954">
<time>2016-10-07T03:17:00Z</time></trkpt>
<trkpt lat="25.044645" lon="101.724934">
<time>2016-10-07T03:17:01Z</time></trkpt>
<trkpt lat="25.044675" lon="101.724914">
<time>2016-10-07T03:17:02Z</time></trkpt>
<trkpt lat="25.044716" lon="101.724884">
<time>2016-10-07T03:17:03Z</time></trkpt>
<trkpt lat="25.044756" lon="101.724854">
<time>2016-10-07T03:17:04Z</time></trkpt>
<trkpt lat="25.044776" lon="101.724814">
<time>2016-10-07T03:17:05Z</time></trkpt>
<trkpt lat="25.044786" lon="101.724764">
<time>2016-10-07T03:17:06Z</time></trkpt>
<trkpt lat="25.044806" lon="101.724704">
<time>2016-10-07T03:17:07Z</time></trkpt>
<trkpt lat="25.044806" lon="101.724654">
<time>2016-10-07T03:17:08Z</time></trkpt>
<trkpt lat="25.044806" lon="101.724574">
<time>2016-10-07T03:17:09Z</time></trkpt>
<trkpt lat="25.044796" lon="101.724504">
<time>2016-10-07T03:17:10Z</time></trkpt>
<trkpt lat="25.044776" lon="101.724415">
<time>2016-10-07T03:17:11Z</time></trkpt>
<trkpt lat="25.044736" lon="101.724245">
<time>2016-10-07T03:17:12Z</time></trkpt>
<trkpt lat="25.044716" lon="101.724145">
<time>2016-10-07T03:17:13Z</time></trkpt>
<trkpt lat="25.044676" lon="101.724035">
<time>2016-10-07T03:17:14Z</time></trkpt>
<trkpt lat="25.044656" lon="101.723965">
<time>2016-10-07T03:17:15Z</time></trkpt>
<trkpt lat="25.044626" lon="101.723885">
<time>2016-10-07T03:17:16Z</time></trkpt>
<trkpt lat="25.044557" lon="101.723685">
<time>2016-10-07T03:17:17Z</time></trkpt>
<trkpt lat="25.044497" lon="101.723525">
<time>2016-10-07T03:17:18Z</time></trkpt>
<trkpt lat="25.044477" lon="101.723425">
<time>2016-10-07T03:17:19Z</time></trkpt>
<trkpt lat="25.044427" lon="101.723226">
<time>2016-10-07T03:17:20Z</time></trkpt>
<trkpt lat="25.044357" lon="101.722836">
<time>2016-10-07T03:17:21Z</time></trkpt>
<trkpt lat="25.044328" lon="101.722706">
<time>2016-10-07T03:17:22Z</time></trkpt>
<trkpt lat="25.044278" lon="101.722526">
<time>2016-10-07T03:17:23Z</time></trkpt>
<trkpt lat="25.044248" lon="101.722416">
<time>2016-10-07T03:17:24Z</time></trkpt>
<trkpt lat="25.044218" lon="101.722336">
<time>2016-10-07T03:17:25Z</time></trkpt>
<trkpt lat="25.044188" lon="101.722266">
<time>2016-10-07T03:17:26Z</time></trkpt>
<trkpt lat="25.044148" lon="101.722186">
<time>2016-10-07T03:17:27Z</time></trkpt>
<trkpt lat="25.044098" lon="101.722106">
<time>2016-10-07T03:17:28Z</time></trkpt>
<trkpt lat="25.044028" lon="101.722017">
<time>2016-10-07T03:17:29Z</time></trkpt>
<trkpt lat="25.043958" lon="101.721927">
<time>2016-10-07T03:17:30Z</time></trkpt>
<trkpt lat="25.043918" lon="101.721867">
<time>2016-10-07T03:17:31Z</time></trkpt>
<trkpt lat="25.043898" lon="101.721817">
<time>2016-10-07T03:17:32Z</time></trkpt>
<trkpt lat="25.043879" lon="101.721757">
<time>2016-10-07T03:17:33Z</time></trkpt>
<trkpt lat="25.043869" lon="101.721677">
<time>2016-10-07T03:17:34Z</time></trkpt>
<trkpt lat="25.043869" lon="101.721617">
<time>2016-10-07T03:17:35Z</time></trkpt>
<trkpt lat="25.043889" lon="101.721547">
<time>2016-10-07T03:17:36Z</time></trkpt>
<trkpt lat="25.043899" lon="101.721477">
<time>2016-10-07T03:17:37Z</time></trkpt>
<trkpt lat="25.043949" lon="101.721397">
<time>2016-10-07T03:17:38Z</time></trkpt>
<trkpt lat="25.043999" lon="101.721317">
<time>2016-10-07T03:17:39Z</time></trkpt>
<trkpt lat="25.044079" lon="101.721227">
<time>2016-10-07T03:17:40Z</time></trkpt>
<trkpt lat="25.044149" lon="101.721147">
<time>2016-10-07T03:17:41Z</time></trkpt>
<trkpt lat="25.044229" lon="101.721067">
<time>2016-10-07T03:17:42Z</time></trkpt>
<trkpt lat="25.044369" lon="101.720967">
<time>2016-10-07T03:17:43Z</time></trkpt>
<trkpt lat="25.044459" lon="101.720908">
<time>2016-10-07T03:17:44Z</time></trkpt>
<trkpt lat="25.044539" lon="101.720848">
<time>2016-10-07T03:17:45Z</time></trkpt>
<trkpt lat="25.044579" lon="101.720798">
<time>2016-10-07T03:17:46Z</time></trkpt>
<trkpt lat="25.044619" lon="101.720748">
<time>2016-10-07T03:17:47Z</time></trkpt>
<trkpt lat="25.044639" lon="101.720698">
<time>2016-10-07T03:17:48Z</time></trkpt>
<trkpt lat="25.04464" lon="101.720638">
<time>2016-10-07T03:17:49Z</time></trkpt>
<trkpt lat="25.04463" lon="101.720608">
<time>2016-10-07T03:17:50Z</time></trkpt>
<trkpt lat="25.04462" lon="101.720558">
<time>2016-10-07T03:17:51Z</time></trkpt>
<trkpt lat="25.0446" lon="101.720508">
<time>2016-10-07T03:17:52Z</time></trkpt>
<trkpt lat="25.04457" lon="101.720458">
<time>2016-10-07T03:17:53Z</time></trkpt>
<trkpt lat="25.04454" lon="101.720428">
<time>2016-10-07T03:17:54Z</time></trkpt>
<trkpt lat="25.04447" lon="101.720368">
<time>2016-10-07T03:17:55Z</time></trkpt>
<trkpt lat="25.04442" lon="101.720338">
<time>2016-10-07T03:17:56Z</time></trkpt>
<trkpt lat="25.04438" lon="101.720318">
<time>2016-10-07T03:17:57Z</time></trkpt>
<trkpt lat="25.04427" lon="101.720278">
<time>2016-10-07T03:17:58Z</time></trkpt>
<trkpt lat="25.04416" lon="101.720238">
<time>2016-10-07T03:17:59Z</time></trkpt>
<trkpt lat="25.04396" lon="101.720188">
<time>2016-10-07T03:18:00Z</time></trkpt>
<trkpt lat="25.04383" lon="101.720148">
<time>2016-10-07T03:18:01Z</time></trkpt>
<trkpt lat="25.04369" lon="101.720108">
<time>2016-10-07T03:18:02Z</time></trkpt>
<trkpt lat="25.04361" lon="101.720078">
<time>2016-10-07T03:18:03Z</time></trkpt>
<trkpt lat="25.0435" lon="101.720028">
<time>2016-10-07T03:18:04Z</time></trkpt>
<trkpt lat="25.04341" lon="101.719978">
<time>2016-10-07T03:18:05Z</time></trkpt>
<trkpt lat="25.04334" lon="101.719938">
<time>2016-10-07T03:18:06Z</time></trkpt>
<trkpt lat="25.04327" lon="101.719889">
<time>2016-10-07T03:18:07Z</time></trkpt>
<trkpt lat="25.043151" lon="101.719799">
<time>2016-10-07T03:18:08Z</time></trkpt>
<trkpt lat="25.043071" lon="101.719719">
<time>2016-10-07T03:18:09Z</time></trkpt>
<trkpt lat="25.042991" lon="101.719639">
<time>2016-10-07T03:18:10Z</time></trkpt>
<trkpt lat="25.042941" lon="101.719589">
<time>2016-10-07T03:18:11Z</time></trkpt>
<trkpt lat="25.042891" lon="101.719519">
<time>2016-10-07T03:18:12Z</time></trkpt>
<trkpt lat="25.042861" lon="101.719459">
<time>2016-10-07T03:18:13Z</time></trkpt>
<trkpt lat="25.042831" lon="101.719399">
<time>2016-10-07T03:18:14Z</time></trkpt>
<trkpt lat="25.042791" lon="101.719319">
<time>2016-10-07T03:18:15Z</time></trkpt>
<trkpt lat="25.042771" lon="101.719259">
<time>2016-10-07T03:18:16Z</time></trkpt>
<trkpt lat="25.042721" lon="101.719099">
<time>2016-10-07T03:18:17Z</time></trkpt>
<trkpt lat="25.042582" lon="101.71864">
<time>2016-10-07T03:18:18Z</time></trkpt>
<trkpt lat="25.042482" lon="101.71834">
<time>2016-10-07T03:18:19Z</time></trkpt>
<trkpt lat="25.042373" lon="101.71804">
<time>2016-10-07T03:18:20Z</time></trkpt>
<trkpt lat="25.042283" lon="101.717751">
<time>2016-10-07T03:18:21Z</time></trkpt>
<trkpt lat="25.042203" lon="101.717491">
<time>2016-10-07T03:18:22Z</time></trkpt>
<trkpt lat="25.042173" lon="101.717381">
<time>2016-10-07T03:18:23Z</time></trkpt>
<trkpt lat="25.042153" lon="101.717261">
<time>2016-10-07T03:18:24Z</time></trkpt>
<trkpt lat="25.042154" lon="101.717181">
<time>2016-10-07T03:18:25Z</time></trkpt>
<trkpt lat="25.042154" lon="101.717091">
<time>2016-10-07T03:18:26Z</time></trkpt>
<trkpt lat="25.042174" lon="101.717031">
<time>2016-10-07T03:18:27Z</time></trkpt>
<trkpt lat="25.042194" lon="101.716962">
<time>2016-10-07T03:18:28Z</time></trkpt>
<trkpt lat="25.042254" lon="101.716812">
<time>2016-10-07T03:18:29Z</time></trkpt>
<trkpt lat="25.042424" lon="101.716492">
<time>2016-10-07T03:18:30Z</time></trkpt>
<trkpt lat="25.042565" lon="101.716232">
<time>2016-10-07T03:18:31Z</time></trkpt>
<trkpt lat="25.042665" lon="101.716033">
<time>2016-10-07T03:18:32Z</time></trkpt>
<trkpt lat="25.042765" lon="101.715853">
<time>2016-10-07T03:18:33Z</time></trkpt>
<trkpt lat="25.042865" lon="101.715683">
<time>2016-10-07T03:18:34Z</time></trkpt>
<trkpt lat="25.042985" lon="101.715513">
<time>2016-10-07T03:18:35Z</time></trkpt>
<trkpt lat="25.043025" lon="101.715463">
<time>2016-10-07T03:18:36Z</time></trkpt>
<trkpt lat="25.043075" lon="101.715423">
<time>2016-10-07T03:18:37Z</time></trkpt>
<trkpt lat="25.043145" lon="101.715373">
<time>2016-10-07T03:18:38Z</time></trkpt>
<trkpt lat="25.043186" lon="101.715353">
<time>2016-10-07T03:18:39Z</time></trkpt>
<trkpt lat="25.043246" lon="101.715343">
<time>2016-10-07T03:18:40Z</time></trkpt>
<trkpt lat="25.043286" lon="101.715333">
<time>2016-10-07T03:18:41Z</time></trkpt>
<trkpt lat="25.043366" lon="101.715323">
<time>2016-10-07T03:18:42Z</time></trkpt>
<trkpt lat="25.043466" lon="101.715313">
<time>2016-10-07T03:18:43Z</time></trkpt>
<trkpt lat="25.043596" lon="101.715313">
<time>2016-10-07T03:18:44Z</time></trkpt>
<trkpt lat="25.043656" lon="101.715303">
<time>2016-10-07T03:18:45Z</time></trkpt>
<trkpt lat="25.043706" lon="101.715283">
<time>2016-10-07T03:18:46Z</time></trkpt>
<trkpt lat="25.043756" lon="101.715263">
<time>2016-10-07T03:18:47Z</time></trkpt>
<trkpt lat="25.043796" lon="101.715253">
<time>2016-10-07T03:18:48Z</time></trkpt>
<trkpt lat="25.043846" lon="101.715223">
<time>2016-10-07T03:18:49Z</time></trkpt>
<trkpt lat="25.043886" lon="101.715183">
<time>2016-10-07T03:18:50Z</time></trkpt>
<trkpt lat="25.043926" lon="101.715153">
<time>2016-10-07T03:18:51Z</time></trkpt>
<trkpt lat="25.043986" lon="101.715074">
<time>2016-10-07T03:18:52Z</time></trkpt>
<trkpt lat="25.044036" lon="101.714994">
<time>2016-10-07T03:18:53Z</time></trkpt>
<trkpt lat="25.044086" lon="101.714894">
<time>2016-10-07T03:18:54Z</time></trkpt>
<trkpt lat="25.044126" lon="101.714794">
<time>2016-10-07T03:18:55Z</time></trkpt>
<trkpt lat="25.044216" lon="101.714554">
<time>2016-10-07T03:18:56Z</time></trkpt>
<trkpt lat="25.044297" lon="101.714324">
<time>2016-10-07T03:18:57Z</time></trkpt>
<trkpt lat="25.044347" lon="101.714205">
<time>2016-10-07T03:18:58Z</time></trkpt>
<trkpt lat="25.044427" lon="101.714045">
<time>2016-10-07T03:18:59Z</time></trkpt>
<trkpt lat="25.044527" lon="101.713885">
<time>2016-10-07T03:19:00Z</time></trkpt>
<trkpt lat="25.044697" lon="101.713645">
<time>2016-10-07T03:19:01Z</time></trkpt>
<trkpt lat="25.044808" lon="101.713415">
<time>2016-10-07T03:19:02Z</time></trkpt>
<trkpt lat="25.044918" lon="101.713166">
<time>2016-10-07T03:19:03Z</time></trkpt>
<trkpt lat="25.044978" lon="101.712976">
<time>2016-10-07T03:19:04Z</time></trkpt>
<trkpt lat="25.045038" lon="101.712766">
<time>2016-10-07T03:19:05Z</time></trkpt>
<trkpt lat="25.045049" lon="101.712686">
<time>2016-10-07T03:19:06Z</time></trkpt>
<trkpt lat="25.045049" lon="101.712606">
<time>2016-10-07T03:19:07Z</time></trkpt>
<trkpt lat="25.045029" lon="101.712546">
<time>2016-10-07T03:19:08Z</time></trkpt>
<trkpt lat="25.045019" lon="101.712487">
<time>2016-10-07T03:19:09Z</time></trkpt>
<trkpt lat="25.044999" lon="101.712447">
<time>2016-10-07T03:19:10Z</time></trkpt>
<trkpt lat="25.044969" lon="101.712397">
<time>2016-10-07T03:19:11Z</time></trkpt>
<trkpt lat="25.044929" lon="101.712357">
<time>2016-10-07T03:19:12Z</time></trkpt>
<trkpt lat="25.044889" lon="101.712317">
<time>2016-10-07T03:19:13Z</time></trkpt>
<trkpt lat="25.044849" lon="101.712297">
<time>2016-10-07T03:19:14Z</time></trkpt>
<trkpt lat="25.044799" lon="101.712287">
<time>2016-10-07T03:19:15Z</time></trkpt>
<trkpt lat="25.044759" lon="101.712287">
<time>2016-10-07T03:19:16Z</time></trkpt>
<trkpt lat="25.044699" lon="101.712297">
<time>2016-10-07T03:19:17Z</time></trkpt>
<trkpt lat="25.044599" lon="101.712327">
<time>2016-10-07T03:19:18Z</time></trkpt>
<trkpt lat="25.044509" lon="101.712357">
<time>2016-10-07T03:19:19Z</time></trkpt>
<trkpt lat="25.044369" lon="101.712397">
<time>2016-10-07T03:19:20Z</time></trkpt>
<trkpt lat="25.044299" lon="101.712397">
<time>2016-10-07T03:19:21Z</time></trkpt>
<trkpt lat="25.044239" lon="101.712377">
<time>2016-10-07T03:19:22Z</time></trkpt>
<trkpt lat="25.044179" lon="101.712357">
<time>2016-10-07T03:19:23Z</time></trkpt>
<trkpt lat="25.044109" lon="101.712307">
<time>2016-10-07T03:19:24Z</time></trkpt>
<trkpt lat="25.044059" lon="101.712257">
<time>2016-10-07T03:19:25Z</time></trkpt>
<trkpt lat="25.044019" lon="101.712217">
<time>2016-10-07T03:19:26Z</time></trkpt>
<trkpt lat="25.043939" lon="101.712137">
<time>2016-10-07T03:19:27Z</time></trkpt>
<trkpt lat="25.043839" lon="101.712057">
<time>2016-10-07T03:19:28Z</time></trkpt>
<trkpt lat="25.04373" lon="101.711957">
<time>2016-10-07T03:19:29Z</time></trkpt>
<trkpt lat="25.04365" lon="101.711907">
<time>2016-10-07T03:19:30Z</time></trkpt>
<trkpt lat="25.04357" lon="101.711867">
<time>2016-10-07T03:19:31Z</time></trkpt>
<trkpt lat="25.04346" lon="101.711817">
<time>2016-10-07T03:19:32Z</time></trkpt>
<trkpt lat="25.04337" lon="101.711787">
<time>2016-10-07T03:19:33Z</time></trkpt>
<trkpt lat="25.04327" lon="101.711747">
<time>2016-10-07T03:19:34Z</time></trkpt>
<trkpt lat="25.04322" lon="101.711718">
<time>2016-10-07T03:19:35Z</time></trkpt>
<trkpt lat="25.04319" lon="101.711708">
<time>2016-10-07T03:19:36Z</time></trkpt>
<trkpt lat="25.04315" lon="101.711678">
<time>2016-10-07T03:19:37Z</time></trkpt>
<trkpt lat="25.04312" lon="101.711658">
<time>2016-10-07T03:19:38Z</time></trkpt>
<trkpt lat="25.04309" lon="101.711628">
<time>2016-10-07T03:19:39Z</time></trkpt>
<trkpt lat="25.04308" lon="101.711598">
<time>2016-10-07T03:19:40Z</time></trkpt>
<trkpt lat="25.04306" lon="101.711558">
<time>2016-10-07T03:19:41Z</time></trkpt>
<trkpt lat="25.04305" lon="101.711528">
<time>2016-10-07T03:19:42Z</time></trkpt>
<trkpt lat="25.04304" lon="101.711478">
<time>2016-10-07T03:19:43Z</time></trkpt>
<trkpt lat="25.04304" lon="101.711438">
<time>2016-10-07T03:19:44Z</time></trkpt>
<trkpt lat="25.04304" lon="101.711428">
<time>2016-10-07T03:19:45Z</time></trkpt>
<trkpt lat="25.04304" lon="101.711378">
<time>2016-10-07T03:19:46Z</time></trkpt>
<trkpt lat="25.04304" lon="101.711338">
<time>2016-10-07T03:19:47Z</time></trkpt>
<trkpt lat="25.043061" lon="101.711278">
<time>2016-10-07T03:19:48Z</time></trkpt>
<trkpt lat="25.043071" lon="101.711238">
<time>2016-10-07T03:19:49Z</time></trkpt>
<trkpt lat="25.043091" lon="101.711188">
<time>2016-10-07T03:19:50Z</time></trkpt>
<trkpt lat="25.043111" lon="101.711158">
<time>2016-10-07T03:19:51Z</time></trkpt>
<trkpt lat="25.043151" lon="101.711088">
<time>2016-10-07T03:19:52Z</time></trkpt>
<trkpt lat="25.043201" lon="101.710998">
<time>2016-10-07T03:19:53Z</time></trkpt>
<trkpt lat="25.043291" lon="101.710899">
<time>2016-10-07T03:19:54Z</time></trkpt>
<trkpt lat="25.043431" lon="101.710669">
<time>2016-10-07T03:19:55Z</time></trkpt>
<trkpt lat="25.043522" lon="101.710509">
<time>2016-10-07T03:19:56Z</time></trkpt>
<trkpt lat="25.043612" lon="101.710359">
<time>2016-10-07T03:19:57Z</time></trkpt>
<trkpt lat="25.043662" lon="101.710249">
<time>2016-10-07T03:19:58Z</time></trkpt>
<trkpt lat="25.043732" lon="101.71012">
<time>2016-10-07T03:19:59Z</time></trkpt>
<trkpt lat="25.043772" lon="101.71001">
<time>2016-10-07T03:20:00Z</time></trkpt>
<trkpt lat="25.043792" lon="101.70992">
<time>2016-10-07T03:20:01Z</time></trkpt>
<trkpt lat="25.043853" lon="101.70971">
<time>2016-10-07T03:20:02Z</time></trkpt>
<trkpt lat="25.043893" lon="101.70951">
<time>2016-10-07T03:20:03Z</time></trkpt>
<trkpt lat="25.043963" lon="101.709191">
<time>2016-10-07T03:20:04Z</time></trkpt>
<trkpt lat="25.044054" lon="101.708681">
<time>2016-10-07T03:20:05Z</time></trkpt>
<trkpt lat="25.044134" lon="101.708312">
<time>2016-10-07T03:20:06Z</time></trkpt>
<trkpt lat="25.044175" lon="101.708162">
<time>2016-10-07T03:20:07Z</time></trkpt>
<trkpt lat="25.044235" lon="101.708012">
<time>2016-10-07T03:20:08Z</time></trkpt>
<trkpt lat="25.044285" lon="101.707892">
<time>2016-10-07T03:20:09Z</time></trkpt>
<trkpt lat="25.044325" lon="101.707813">
<time>2016-10-07T03:20:10Z</time></trkpt>
<trkpt lat="25.044425" lon="101.707653">
<time>2016-10-07T03:20:11Z</time></trkpt>
<trkpt lat="25.044525" lon="101.707533">
<time>2016-10-07T03:20:12Z</time></trkpt>
<trkpt lat="25.044736" lon="101.707273">
<time>2016-10-07T03:20:13Z</time></trkpt>
<trkpt lat="25.044986" lon="101.707004">
<time>2016-10-07T03:20:14Z</time></trkpt>
<trkpt lat="25.045327" lon="101.706634">
<time>2016-10-07T03:20:15Z</time></trkpt>
<trkpt lat="25.045617" lon="101.706315">
<time>2016-10-07T03:20:16Z</time></trkpt>
<trkpt lat="25.045887" lon="101.706025">
<time>2016-10-07T03:20:17Z</time></trkpt>
<trkpt lat="25.046158" lon="101.705735">
<time>2016-10-07T03:20:18Z</time></trkpt>
<trkpt lat="25.046458" lon="101.705406">
<time>2016-10-07T03:20:19Z</time></trkpt>
<trkpt lat="25.046588" lon="101.705266">
<time>2016-10-07T03:20:20Z</time></trkpt>
<trkpt lat="25.046709" lon="101.705116">
<time>2016-10-07T03:20:21Z</time></trkpt>
<trkpt lat="25.046769" lon="101.705046">
<time>2016-10-07T03:20:22Z</time></trkpt>
<trkpt lat="25.046819" lon="101.704957">
<time>2016-10-07T03:20:23Z</time></trkpt>
<trkpt lat="25.046859" lon="101.704897">
<time>2016-10-07T03:20:24Z</time></trkpt>
<trkpt lat="25.046879" lon="101.704817">
<time>2016-10-07T03:20:25Z</time></trkpt>
<trkpt lat="25.046899" lon="101.704747">
<time>2016-10-07T03:20:26Z</time></trkpt>
<trkpt lat="25.046909" lon="101.704637">
<time>2016-10-07T03:20:27Z</time></trkpt>
<trkpt lat="25.0469" lon="101.704297">
<time>2016-10-07T03:20:28Z</time></trkpt>
<trkpt lat="25.0469" lon="101.704108">
<time>2016-10-07T03:20:29Z</time></trkpt>
<trkpt lat="25.046911" lon="101.703858">
<time>2016-10-07T03:20:30Z</time></trkpt>
<trkpt lat="25.046931" lon="101.703579">
<time>2016-10-07T03:20:31Z</time></trkpt>
<trkpt lat="25.046961" lon="101.703269">
<time>2016-10-07T03:20:32Z</time></trkpt>
<trkpt lat="25.047022" lon="101.70286">
<time>2016-10-07T03:20:33Z</time></trkpt>
<trkpt lat="25.047103" lon="101.70241">
<time>2016-10-07T03:20:34Z</time></trkpt>
<trkpt lat="25.047183" lon="101.702051">
<time>2016-10-07T03:20:35Z</time></trkpt>
<trkpt lat="25.047274" lon="101.701671">
<time>2016-10-07T03:20:36Z</time></trkpt>
<trkpt lat="25.047364" lon="101.701342">
<time>2016-10-07T03:20:37Z</time></trkpt>
<trkpt lat="25.047405" lon="101.701192">
<time>2016-10-07T03:20:38Z</time></trkpt>
<trkpt lat="25.047445" lon="101.701072">
<time>2016-10-07T03:20:39Z</time></trkpt>
<trkpt lat="25.047495" lon="101.700982">
<time>2016-10-07T03:20:40Z</time></trkpt>
<trkpt lat="25.047575" lon="101.700843">
<time>2016-10-07T03:20:41Z</time></trkpt>
<trkpt lat="25.047635" lon="101.700763">
<time>2016-10-07T03:20:42Z</time></trkpt>
<trkpt lat="25.047705" lon="101.700683">
<time>2016-10-07T03:20:43Z</time></trkpt>
<trkpt lat="25.047825" lon="101.700563">
<time>2016-10-07T03:20:44Z</time></trkpt>
<trkpt lat="25.047956" lon="101.700423">
<time>2016-10-07T03:20:45Z</time></trkpt>
<trkpt lat="25.048136" lon="101.700244">
<time>2016-10-07T03:20:46Z</time></trkpt>
<trkpt lat="25.048236" lon="101.700124">
<time>2016-10-07T03:20:47Z</time></trkpt>
<trkpt lat="25.048316" lon="101.700004">
<time>2016-10-07T03:20:48Z</time></trkpt>
<trkpt lat="25.048407" lon="101.699784">
<time>2016-10-07T03:20:49Z</time></trkpt>
<trkpt lat="25.048467" lon="101.699605">
<time>2016-10-07T03:20:50Z</time></trkpt>
<trkpt lat="25.048638" lon="101.699045">
<time>2016-10-07T03:20:51Z</time></trkpt>
<trkpt lat="25.048758" lon="101.698646">
<time>2016-10-07T03:20:52Z</time></trkpt>
<trkpt lat="25.048839" lon="101.698307">
<time>2016-10-07T03:20:53Z</time></trkpt>
<trkpt lat="25.048879" lon="101.698147">
<time>2016-10-07T03:20:54Z</time></trkpt>
<trkpt lat="25.04895" lon="101.697867">
<time>2016-10-07T03:20:55Z</time></trkpt>
<trkpt lat="25.04897" lon="101.697718">
<time>2016-10-07T03:20:56Z</time></trkpt>
<trkpt lat="25.04899" lon="101.697568">
<time>2016-10-07T03:20:57Z</time></trkpt>
<trkpt lat="25.049001" lon="101.697298">
<time>2016-10-07T03:20:58Z</time></trkpt>
<trkpt lat="25.049011" lon="101.696899">
<time>2016-10-07T03:20:59Z</time></trkpt>
<trkpt lat="25.049012" lon="101.69653">
<time>2016-10-07T03:21:00Z</time></trkpt>
<trkpt lat="25.049022" lon="101.69647">
<time>2016-10-07T03:21:01Z</time></trkpt>
<trkpt lat="25.049023" lon="101.69612">
<time>2016-10-07T03:21:02Z</time></trkpt>
<trkpt lat="25.049023" lon="101.695681">
<time>2016-10-07T03:21:03Z</time></trkpt>
<trkpt lat="25.049034" lon="101.695252">
<time>2016-10-07T03:21:04Z</time></trkpt>
<trkpt lat="25.049035" lon="101.694832">
<time>2016-10-07T03:21:05Z</time></trkpt>
<trkpt lat="25.049025" lon="101.694533">
<time>2016-10-07T03:21:06Z</time></trkpt>
<trkpt lat="25.049005" lon="101.694423">
<time>2016-10-07T03:21:07Z</time></trkpt>
<trkpt lat="25.048986" lon="101.694303">
<time>2016-10-07T03:21:08Z</time></trkpt>
<trkpt lat="25.048946" lon="101.694144">
<time>2016-10-07T03:21:09Z</time></trkpt>
<trkpt lat="25.048906" lon="101.694024">
<time>2016-10-07T03:21:10Z</time></trkpt>
<trkpt lat="25.048856" lon="101.693924">
<time>2016-10-07T03:21:11Z</time></trkpt>
<trkpt lat="25.048816" lon="101.693834">
<time>2016-10-07T03:21:12Z</time></trkpt>
<trkpt lat="25.048776" lon="101.693774">
<time>2016-10-07T03:21:13Z</time></trkpt>
<trkpt lat="25.048727" lon="101.693684">
<time>2016-10-07T03:21:14Z</time></trkpt>
<trkpt lat="25.048637" lon="101.693545">
<time>2016-10-07T03:21:15Z</time></trkpt>
<trkpt lat="25.048427" lon="101.693225">
<time>2016-10-07T03:21:16Z</time></trkpt>
<trkpt lat="25.048368" lon="101.693105">
<time>2016-10-07T03:21:17Z</time></trkpt>
<trkpt lat="25.048318" lon="101.692986">
<time>2016-10-07T03:21:18Z</time></trkpt>
<trkpt lat="25.048288" lon="101.692916">
<time>2016-10-07T03:21:19Z</time></trkpt>
<trkpt lat="25.048268" lon="101.692856">
<time>2016-10-07T03:21:20Z</time></trkpt>
<trkpt lat="25.048258" lon="101.692786">
<time>2016-10-07T03:21:21Z</time></trkpt>
<trkpt lat="25.048258" lon="101.692726">
<time>2016-10-07T03:21:22Z</time></trkpt>
<trkpt lat="25.048258" lon="101.692656">
<time>2016-10-07T03:21:23Z</time></trkpt>
<trkpt lat="25.048259" lon="101.692586">
<time>2016-10-07T03:21:24Z</time></trkpt>
<trkpt lat="25.048279" lon="101.692496">
<time>2016-10-07T03:21:25Z</time></trkpt>
<trkpt lat="25.048329" lon="101.692287">
<time>2016-10-07T03:21:26Z</time></trkpt>
<trkpt lat="25.04843" lon="101.691887">
<time>2016-10-07T03:21:27Z</time></trkpt>
<trkpt lat="25.04845" lon="101.691748">
<time>2016-10-07T03:21:28Z</time></trkpt>
<trkpt lat="25.04848" lon="101.691608">
<time>2016-10-07T03:21:29Z</time></trkpt>
<trkpt lat="25.048511" lon="101.691378">
<time>2016-10-07T03:21:30Z</time></trkpt>
<trkpt lat="25.048431" lon="101.691318">
<time>2016-10-07T03:21:31Z</time></trkpt>
<trkpt lat="25.048361" lon="101.691259">
<time>2016-10-07T03:21:32Z</time></trkpt>
<trkpt lat="25.048261" lon="101.691189">
<time>2016-10-07T03:21:33Z</time></trkpt>
<trkpt lat="25.048011" lon="101.691089">
<time>2016-10-07T03:21:34Z</time></trkpt>
<trkpt lat="25.047741" lon="101.690979">
<time>2016-10-07T03:21:35Z</time></trkpt>
<trkpt lat="25.047562" lon="101.690899">
<time>2016-10-07T03:21:36Z</time></trkpt>
<trkpt lat="25.047402" lon="101.690829">
<time>2016-10-07T03:21:37Z</time></trkpt>
<trkpt lat="25.047232" lon="101.690759">
<time>2016-10-07T03:21:38Z</time></trkpt>
<trkpt lat="25.047142" lon="101.69071">
<time>2016-10-07T03:21:39Z</time></trkpt>
<trkpt lat="25.047072" lon="101.69066">
<time>2016-10-07T03:21:40Z</time></trkpt>
<trkpt lat="25.046972" lon="101.69058">
<time>2016-10-07T03:21:41Z</time></trkpt>
<trkpt lat="25.046892" lon="101.6905">
<time>2016-10-07T03:21:42Z</time></trkpt>
<trkpt lat="25.046823" lon="101.69042">
<time>2016-10-07T03:21:43Z</time></trkpt>
<trkpt lat="25.046693" lon="101.69026">
<time>2016-10-07T03:21:44Z</time></trkpt>
<trkpt lat="25.046463" lon="101.689971">
<time>2016-10-07T03:21:45Z</time></trkpt>
<trkpt lat="25.046184" lon="101.689632">
<time>2016-10-07T03:21:46Z</time></trkpt>
<trkpt lat="25.046184" lon="101.689622">
<time>2016-10-07T03:21:47Z</time></trkpt>
<trkpt lat="25.046084" lon="101.689472">
<time>2016-10-07T03:21:48Z</time></trkpt>
<trkpt lat="25.046034" lon="101.689382">
<time>2016-10-07T03:21:49Z</time></trkpt>
<trkpt lat="25.045995" lon="101.689272">
<time>2016-10-07T03:21:50Z</time></trkpt>
<trkpt lat="25.045945" lon="101.689132">
<time>2016-10-07T03:21:51Z</time></trkpt>
<trkpt lat="25.045915" lon="101.688973">
<time>2016-10-07T03:21:52Z</time></trkpt>
<trkpt lat="25.045876" lon="101.688623">
<time>2016-10-07T03:21:53Z</time></trkpt>
<trkpt lat="25.045876" lon="101.688494">
<time>2016-10-07T03:21:54Z</time></trkpt>
<trkpt lat="25.045896" lon="101.688404">
<time>2016-10-07T03:21:55Z</time></trkpt>
<trkpt lat="25.045916" lon="101.688314">
<time>2016-10-07T03:21:56Z</time></trkpt>
<trkpt lat="25.045967" lon="101.688224">
<time>2016-10-07T03:21:57Z</time></trkpt>
<trkpt lat="25.046017" lon="101.688144">
<time>2016-10-07T03:21:58Z</time></trkpt>
<trkpt lat="25.046087" lon="101.688074">
<time>2016-10-07T03:21:59Z</time></trkpt>
<trkpt lat="25.046177" lon="101.687975">
<time>2016-10-07T03:22:00Z</time></trkpt>
<trkpt lat="25.046287" lon="101.687895">
<time>2016-10-07T03:22:01Z</time></trkpt>
<trkpt lat="25.046367" lon="101.687835">
<time>2016-10-07T03:22:02Z</time></trkpt>
<trkpt lat="25.046437" lon="101.687805">
<time>2016-10-07T03:22:03Z</time></trkpt>
<trkpt lat="25.046537" lon="101.687765">
<time>2016-10-07T03:22:04Z</time></trkpt>
<trkpt lat="25.046587" lon="101.687745">
<time>2016-10-07T03:22:05Z</time></trkpt>
<trkpt lat="25.046677" lon="101.687735">
<time>2016-10-07T03:22:06Z</time></trkpt>
<trkpt lat="25.046817" lon="101.687725">
<time>2016-10-07T03:22:07Z</time></trkpt>
<trkpt lat="25.047007" lon="101.687725">
<time>2016-10-07T03:22:08Z</time></trkpt>
<trkpt lat="25.047157" lon="101.687715">
<time>2016-10-07T03:22:09Z</time></trkpt>
<trkpt lat="25.047257" lon="101.687705">
<time>2016-10-07T03:22:10Z</time></trkpt>
<trkpt lat="25.047327" lon="101.687685">
<time>2016-10-07T03:22:11Z</time></trkpt>
<trkpt lat="25.047387" lon="101.687655">
<time>2016-10-07T03:22:12Z</time></trkpt>
<trkpt lat="25.047487" lon="101.687605">
<time>2016-10-07T03:22:13Z</time></trkpt>
<trkpt lat="25.047578" lon="101.687545">
<time>2016-10-07T03:22:14Z</time></trkpt>
<trkpt lat="25.047718" lon="101.687415">
<time>2016-10-07T03:22:15Z</time></trkpt>
<trkpt lat="25.047908" lon="101.687236">
<time>2016-10-07T03:22:16Z</time></trkpt>
<trkpt lat="25.048038" lon="101.687096">
<time>2016-10-07T03:22:17Z</time></trkpt>
<trkpt lat="25.048078" lon="101.687056">
<time>2016-10-07T03:22:18Z</time></trkpt>
<trkpt lat="25.048219" lon="101.686886">
<time>2016-10-07T03:22:19Z</time></trkpt>
<trkpt lat="25.048359" lon="101.686687">
<time>2016-10-07T03:22:20Z</time></trkpt>
<trkpt lat="25.048369" lon="101.686687">
<time>2016-10-07T03:22:21Z</time></trkpt>
<trkpt lat="25.048389" lon="101.686607">
<time>2016-10-07T03:22:22Z</time></trkpt>
<trkpt lat="25.04843" lon="101.686397">
<time>2016-10-07T03:22:23Z</time></trkpt>
<trkpt lat="25.04847" lon="101.686178">
<time>2016-10-07T03:22:24Z</time></trkpt>
<trkpt lat="25.048501" lon="101.685808">
<time>2016-10-07T03:22:25Z</time></trkpt>
<trkpt lat="25.048501" lon="101.685739">
<time>2016-10-07T03:22:26Z</time></trkpt>
<trkpt lat="25.048552" lon="101.68518">
<time>2016-10-07T03:22:27Z</time></trkpt>
<trkpt lat="25.048562" lon="101.6849">
<time>2016-10-07T03:22:28Z</time></trkpt>
<trkpt lat="25.048583" lon="101.684511">
<time>2016-10-07T03:22:29Z</time></trkpt>
<trkpt lat="25.048573" lon="101.684391">
<time>2016-10-07T03:22:30Z</time></trkpt>
<trkpt lat="25.048563" lon="101.684251">
<time>2016-10-07T03:22:31Z</time></trkpt>
<trkpt lat="25.048544" lon="101.684142">
<time>2016-10-07T03:22:32Z</time></trkpt>
<trkpt lat="25.048514" lon="101.684052">
<time>2016-10-07T03:22:33Z</time></trkpt>
<trkpt lat="25.048474" lon="101.683952">
<time>2016-10-07T03:22:34Z</time></trkpt>
<trkpt lat="25.048434" lon="101.683882">
<time>2016-10-07T03:22:35Z</time></trkpt>
<trkpt lat="25.048384" lon="101.683792">
<time>2016-10-07T03:22:36Z</time></trkpt>
<trkpt lat="25.048255" lon="101.683593">
<time>2016-10-07T03:22:37Z</time></trkpt>
<trkpt lat="25.048135" lon="101.683383">
<time>2016-10-07T03:22:38Z</time></trkpt>
<trkpt lat="25.048075" lon="101.683263">
<time>2016-10-07T03:22:39Z</time></trkpt>
<trkpt lat="25.048026" lon="101.683143">
<time>2016-10-07T03:22:40Z</time></trkpt>
<trkpt lat="25.047986" lon="101.683024">
<time>2016-10-07T03:22:41Z</time></trkpt>
<trkpt lat="25.047946" lon="101.682884">
<time>2016-10-07T03:22:42Z</time></trkpt>
<trkpt lat="25.047916" lon="101.682714">
<time>2016-10-07T03:22:43Z</time></trkpt>
<trkpt lat="25.047887" lon="101.682515">
<time>2016-10-07T03:22:44Z</time></trkpt>
<trkpt lat="25.047877" lon="101.682365">
<time>2016-10-07T03:22:45Z</time></trkpt>
<trkpt lat="25.047857" lon="101.682165">
<time>2016-10-07T03:22:46Z</time></trkpt>
<trkpt lat="25.047848" lon="101.682065">
<time>2016-10-07T03:22:47Z</time></trkpt>
<trkpt lat="25.047828" lon="101.681836">
<time>2016-10-07T03:22:48Z</time></trkpt>
<trkpt lat="25.047828" lon="101.681836">
<time>2016-10-07T03:22:49Z</time></trkpt>
<trkpt lat="25.048148" lon="101.681806">
<time>2016-10-07T03:22:50Z</time></trkpt>
<trkpt lat="25.048348" lon="101.681736">
<time>2016-10-07T03:22:51Z</time></trkpt>
<trkpt lat="25.048578" lon="101.681566">
<time>2016-10-07T03:22:52Z</time></trkpt>
<trkpt lat="25.048869" lon="101.681417">
<time>2016-10-07T03:22:53Z</time></trkpt>
<trkpt lat="25.049019" lon="101.681377">
<time>2016-10-07T03:22:54Z</time></trkpt>
<trkpt lat="25.049129" lon="101.681437">
<time>2016-10-07T03:22:55Z</time></trkpt>
<trkpt lat="25.049129" lon="101.681437">
<time>2016-10-07T03:22:56Z</time></trkpt>
<trkpt lat="25.049149" lon="101.681407">
<time>2016-10-07T03:22:57Z</time></trkpt>
<trkpt lat="25.04933" lon="101.680688">
<time>2016-10-07T03:22:58Z</time></trkpt>
<trkpt lat="25.049481" lon="101.680139">
<time>2016-10-07T03:22:59Z</time></trkpt>
<trkpt lat="25.049985" lon="101.677993">
<time>2016-10-07T03:23:00Z</time></trkpt>
<trkpt lat="25.050337" lon="101.676806">
<time>2016-10-07T03:23:01Z</time></trkpt>
<trkpt lat="25.050458" lon="101.676536">
<time>2016-10-07T03:23:02Z</time></trkpt>
<trkpt lat="25.0511" lon="101.675139">
<time>2016-10-07T03:23:03Z</time></trkpt>
<trkpt lat="25.0511" lon="101.675139">
<time>2016-10-07T03:23:04Z</time></trkpt>
<trkpt lat="25.05111" lon="101.675139">
<time>2016-10-07T03:23:05Z</time></trkpt>
<trkpt lat="25.05124" lon="101.675109">
<time>2016-10-07T03:23:06Z</time></trkpt>
<trkpt lat="25.05135" lon="101.675069">
<time>2016-10-07T03:23:07Z</time></trkpt>
<trkpt lat="25.05147" lon="101.675009">
<time>2016-10-07T03:23:08Z</time></trkpt>
<trkpt lat="25.051561" lon="101.674939">
<time>2016-10-07T03:23:09Z</time></trkpt>
<trkpt lat="25.051671" lon="101.674849">
<time>2016-10-07T03:23:10Z</time></trkpt>
<trkpt lat="25.051751" lon="101.674769">
<time>2016-10-07T03:23:11Z</time></trkpt>
<trkpt lat="25.051931" lon="101.67456">
<time>2016-10-07T03:23:12Z</time></trkpt>
<trkpt lat="25.052342" lon="101.674061">
<time>2016-10-07T03:23:13Z</time></trkpt>
<trkpt lat="25.052743" lon="101.673572">
<time>2016-10-07T03:23:14Z</time></trkpt>
<trkpt lat="25.053164" lon="101.673043">
<time>2016-10-07T03:23:15Z</time></trkpt>
<trkpt lat="25.053334" lon="101.672843">
<time>2016-10-07T03:23:16Z</time></trkpt>
<trkpt lat="25.053555" lon="101.672564">
<time>2016-10-07T03:23:17Z</time></trkpt>
<trkpt lat="25.053896" lon="101.672155">
<time>2016-10-07T03:23:18Z</time></trkpt>
<trkpt lat="25.053956" lon="101.672095">
<time>2016-10-07T03:23:19Z</time></trkpt>
<trkpt lat="25.054347" lon="101.671616">
<time>2016-10-07T03:23:20Z</time></trkpt>
<trkpt lat="25.054717" lon="101.671157">
<time>2016-10-07T03:23:21Z</time></trkpt>
<trkpt lat="25.054998" lon="101.670827">
<time>2016-10-07T03:23:22Z</time></trkpt>
<trkpt lat="25.055068" lon="101.670737">
<time>2016-10-07T03:23:23Z</time></trkpt>
<trkpt lat="25.055188" lon="101.670598">
<time>2016-10-07T03:23:24Z</time></trkpt>
<trkpt lat="25.055409" lon="101.670318">
<time>2016-10-07T03:23:25Z</time></trkpt>
<trkpt lat="25.055489" lon="101.670208">
<time>2016-10-07T03:23:26Z</time></trkpt>
<trkpt lat="25.05568" lon="101.669949">
<time>2016-10-07T03:23:27Z</time></trkpt>
<trkpt lat="25.05589" lon="101.669629">
<time>2016-10-07T03:23:28Z</time></trkpt>
<trkpt lat="25.056061" lon="101.66937">
<time>2016-10-07T03:23:29Z</time></trkpt>
<trkpt lat="25.056181" lon="101.6692">
<time>2016-10-07T03:23:30Z</time></trkpt>
<trkpt lat="25.056452" lon="101.668781">
<time>2016-10-07T03:23:31Z</time></trkpt>
<trkpt lat="25.056753" lon="101.668322">
<time>2016-10-07T03:23:32Z</time></trkpt>
<trkpt lat="25.057074" lon="101.667853">
<time>2016-10-07T03:23:33Z</time></trkpt>
<trkpt lat="25.057535" lon="101.667154">
<time>2016-10-07T03:23:34Z</time></trkpt>
<trkpt lat="25.057936" lon="101.666546">
<time>2016-10-07T03:23:35Z</time></trkpt>
<trkpt lat="25.058327" lon="101.665957">
<time>2016-10-07T03:23:36Z</time></trkpt>
<trkpt lat="25.058638" lon="101.665508">
<time>2016-10-07T03:23:37Z</time></trkpt>
<trkpt lat="25.059059" lon="101.664969">
<time>2016-10-07T03:23:38Z</time></trkpt>
<trkpt lat="25.059139" lon="101.664869">
<time>2016-10-07T03:23:39Z</time></trkpt>
<trkpt lat="25.05949" lon="101.66442">
<time>2016-10-07T03:23:40Z</time></trkpt>
<trkpt lat="25.060151" lon="101.663561">
<time>2016-10-07T03:23:41Z</time></trkpt>
<trkpt lat="25.060693" lon="101.662883">
<time>2016-10-07T03:23:42Z</time></trkpt>
<trkpt lat="25.061154" lon="101.662304">
<time>2016-10-07T03:23:43Z</time></trkpt>
<trkpt lat="25.061224" lon="101.662224">
<time>2016-10-07T03:23:44Z</time></trkpt>
<trkpt lat="25.061555" lon="101.661805">
<time>2016-10-07T03:23:45Z</time></trkpt>
<trkpt lat="25.061845" lon="101.661435">
<time>2016-10-07T03:23:46Z</time></trkpt>
<trkpt lat="25.061885" lon="101.661395">
<time>2016-10-07T03:23:47Z</time></trkpt>
<trkpt lat="25.062176" lon="101.661026">
<time>2016-10-07T03:23:48Z</time></trkpt>
<trkpt lat="25.062376" lon="101.660757">
<time>2016-10-07T03:23:49Z</time></trkpt>
<trkpt lat="25.062787" lon="101.660228">
<time>2016-10-07T03:23:50Z</time></trkpt>
<trkpt lat="25.062978" lon="101.659978">
<time>2016-10-07T03:23:51Z</time></trkpt>
<trkpt lat="25.063158" lon="101.659749">
<time>2016-10-07T03:23:52Z</time></trkpt>
<trkpt lat="25.063289" lon="101.659589">
<time>2016-10-07T03:23:53Z</time></trkpt>
<trkpt lat="25.063419" lon="101.659449">
<time>2016-10-07T03:23:54Z</time></trkpt>
<trkpt lat="25.063619" lon="101.65924">
<time>2016-10-07T03:23:55Z</time></trkpt>
<trkpt lat="25.063719" lon="101.65916">
<time>2016-10-07T03:23:56Z</time></trkpt>
<trkpt lat="25.06395" lon="101.65897">
<time>2016-10-07T03:23:57Z</time></trkpt>
<trkpt lat="25.06408" lon="101.65887">
<time>2016-10-07T03:23:58Z</time></trkpt>
<trkpt lat="25.0642" lon="101.65878">
<time>2016-10-07T03:23:59Z</time></trkpt>
<trkpt lat="25.06462" lon="101.658481">
<time>2016-10-07T03:24:00Z</time></trkpt>
<trkpt lat="25.065411" lon="101.657912">
<time>2016-10-07T03:24:01Z</time></trkpt>
<trkpt lat="25.065922" lon="101.657543">
<time>2016-10-07T03:24:02Z</time></trkpt>
<trkpt lat="25.066353" lon="101.657223">
<time>2016-10-07T03:24:03Z</time></trkpt>
<trkpt lat="25.066553" lon="101.657074">
<time>2016-10-07T03:24:04Z</time></trkpt>
<trkpt lat="25.067013" lon="101.656754">
<time>2016-10-07T03:24:05Z</time></trkpt>
<trkpt lat="25.067334" lon="101.656505">
<time>2016-10-07T03:24:06Z</time></trkpt>
<trkpt lat="25.067394" lon="101.656465">
<time>2016-10-07T03:24:07Z</time></trkpt>
<trkpt lat="25.067694" lon="101.656245">
<time>2016-10-07T03:24:08Z</time></trkpt>
<trkpt lat="25.067824" lon="101.656155">
<time>2016-10-07T03:24:09Z</time></trkpt>
<trkpt lat="25.068115" lon="101.655936">
<time>2016-10-07T03:24:10Z</time></trkpt>
<trkpt lat="25.068375" lon="101.655746">
<time>2016-10-07T03:24:11Z</time></trkpt>
<trkpt lat="25.068515" lon="101.655636">
<time>2016-10-07T03:24:12Z</time></trkpt>
<trkpt lat="25.068625" lon="101.655567">
<time>2016-10-07T03:24:13Z</time></trkpt>
<trkpt lat="25.068956" lon="101.655317">
<time>2016-10-07T03:24:14Z</time></trkpt>
<trkpt lat="25.069276" lon="101.655067">
<time>2016-10-07T03:24:15Z</time></trkpt>
<trkpt lat="25.069286" lon="101.655057">
<time>2016-10-07T03:24:16Z</time></trkpt>
<trkpt lat="25.069587" lon="101.654858">
<time>2016-10-07T03:24:17Z</time></trkpt>
<trkpt lat="25.069967" lon="101.654568">
<time>2016-10-07T03:24:18Z</time></trkpt>
<trkpt lat="25.070358" lon="101.654289">
<time>2016-10-07T03:24:19Z</time></trkpt>
<trkpt lat="25.070778" lon="101.653989">
<time>2016-10-07T03:24:20Z</time></trkpt>
<trkpt lat="25.071239" lon="101.65365">
<time>2016-10-07T03:24:21Z</time></trkpt>
<trkpt lat="25.071529" lon="101.65345">
<time>2016-10-07T03:24:22Z</time></trkpt>
<trkpt lat="25.071679" lon="101.653341">
<time>2016-10-07T03:24:23Z</time></trkpt>
<trkpt lat="25.071879" lon="101.653191">
<time>2016-10-07T03:24:24Z</time></trkpt>
<trkpt lat="25.07226" lon="101.652911">
<time>2016-10-07T03:24:25Z</time></trkpt>
<trkpt lat="25.07273" lon="101.652572">
<time>2016-10-07T03:24:26Z</time></trkpt>
<trkpt lat="25.073091" lon="101.652263">
<time>2016-10-07T03:24:27Z</time></trkpt>
<trkpt lat="25.073101" lon="101.652253">
<time>2016-10-07T03:24:28Z</time></trkpt>
<trkpt lat="25.073291" lon="101.652103">
<time>2016-10-07T03:24:29Z</time></trkpt>
<trkpt lat="25.073421" lon="101.652003">
<time>2016-10-07T03:24:30Z</time></trkpt>
<trkpt lat="25.073622" lon="101.651823">
<time>2016-10-07T03:24:31Z</time></trkpt>
<trkpt lat="25.074042" lon="101.651464">
<time>2016-10-07T03:24:32Z</time></trkpt>
<trkpt lat="25.074453" lon="101.651115">
<time>2016-10-07T03:24:33Z</time></trkpt>
<trkpt lat="25.074643" lon="101.650955">
<time>2016-10-07T03:24:34Z</time></trkpt>
<trkpt lat="25.074873" lon="101.650765">
<time>2016-10-07T03:24:35Z</time></trkpt>
<trkpt lat="25.075044" lon="101.650606">
<time>2016-10-07T03:24:36Z</time></trkpt>
<trkpt lat="25.075164" lon="101.650476">
<time>2016-10-07T03:24:37Z</time></trkpt>
<trkpt lat="25.075254" lon="101.650386">
<time>2016-10-07T03:24:38Z</time></trkpt>
<trkpt lat="25.075304" lon="101.650306">
<time>2016-10-07T03:24:39Z</time></trkpt>
<trkpt lat="25.075374" lon="101.650206">
<time>2016-10-07T03:24:40Z</time></trkpt>
<trkpt lat="25.075444" lon="101.650087">
<time>2016-10-07T03:24:41Z</time></trkpt>
<trkpt lat="25.075485" lon="101.649987">
<time>2016-10-07T03:24:42Z</time></trkpt>
<trkpt lat="25.075505" lon="101.649897">
<time>2016-10-07T03:24:43Z</time></trkpt>
<trkpt lat="25.075525" lon="101.649857">
<time>2016-10-07T03:24:44Z</time></trkpt>
<trkpt lat="25.075545" lon="101.649717">
<time>2016-10-07T03:24:45Z</time></trkpt>
<trkpt lat="25.075555" lon="101.649567">
<time>2016-10-07T03:24:46Z</time></trkpt>
<trkpt lat="25.075566" lon="101.649418">
<time>2016-10-07T03:24:47Z</time></trkpt>
<trkpt lat="25.075587" lon="101.648879">
<time>2016-10-07T03:24:48Z</time></trkpt>
<trkpt lat="25.075607" lon="101.64835">
<time>2016-10-07T03:24:49Z</time></trkpt>
<trkpt lat="25.075628" lon="101.647841">
<time>2016-10-07T03:24:50Z</time></trkpt>
<trkpt lat="25.075639" lon="101.647292">
<time>2016-10-07T03:24:51Z</time></trkpt>
<trkpt lat="25.07565" lon="101.647032">
<time>2016-10-07T03:24:52Z</time></trkpt>
<trkpt lat="25.07566" lon="101.646792">
<time>2016-10-07T03:24:53Z</time></trkpt>
<trkpt lat="25.075681" lon="101.646273">
<time>2016-10-07T03:24:54Z</time></trkpt>
<trkpt lat="25.075702" lon="101.645764">
<time>2016-10-07T03:24:55Z</time></trkpt>
<trkpt lat="25.075713" lon="101.645255">
<time>2016-10-07T03:24:56Z</time></trkpt>
<trkpt lat="25.075723" lon="101.645035">
<time>2016-10-07T03:24:57Z</time></trkpt>
<trkpt lat="25.075724" lon="101.644756">
<time>2016-10-07T03:24:58Z</time></trkpt>
<trkpt lat="25.075734" lon="101.644367">
<time>2016-10-07T03:24:59Z</time></trkpt>
<trkpt lat="25.075744" lon="101.644277">
<time>2016-10-07T03:25:00Z</time></trkpt>
<trkpt lat="25.075755" lon="101.644017">
<time>2016-10-07T03:25:01Z</time></trkpt>
<trkpt lat="25.075765" lon="101.643798">
<time>2016-10-07T03:25:02Z</time></trkpt>
<trkpt lat="25.075765" lon="101.643728">
<time>2016-10-07T03:25:03Z</time></trkpt>
<trkpt lat="25.075785" lon="101.643568">
<time>2016-10-07T03:25:04Z</time></trkpt>
<trkpt lat="25.075806" lon="101.643438">
<time>2016-10-07T03:25:05Z</time></trkpt>
<trkpt lat="25.075806" lon="101.643398">
<time>2016-10-07T03:25:06Z</time></trkpt>
<trkpt lat="25.075846" lon="101.643239">
<time>2016-10-07T03:25:07Z</time></trkpt>
<trkpt lat="25.075886" lon="101.643079">
<time>2016-10-07T03:25:08Z</time></trkpt>
<trkpt lat="25.075926" lon="101.642959">
<time>2016-10-07T03:25:09Z</time></trkpt>
<trkpt lat="25.075947" lon="101.642879">
<time>2016-10-07T03:25:10Z</time></trkpt>
<trkpt lat="25.076007" lon="101.642689">
<time>2016-10-07T03:25:11Z</time></trkpt>
<trkpt lat="25.076017" lon="101.642669">
<time>2016-10-07T03:25:12Z</time></trkpt>
<trkpt lat="25.076137" lon="101.64233">
<time>2016-10-07T03:25:13Z</time></trkpt>
<trkpt lat="25.076338" lon="101.641711">
<time>2016-10-07T03:25:14Z</time></trkpt>
<trkpt lat="25.076489" lon="101.641302">
<time>2016-10-07T03:25:15Z</time></trkpt>
<trkpt lat="25.076569" lon="101.641062">
<time>2016-10-07T03:25:16Z</time></trkpt>
<trkpt lat="25.07665" lon="101.640852">
<time>2016-10-07T03:25:17Z</time></trkpt>
<trkpt lat="25.07675" lon="101.640583">
<time>2016-10-07T03:25:18Z</time></trkpt>
<trkpt lat="25.07685" lon="101.640363">
<time>2016-10-07T03:25:19Z</time></trkpt>
<trkpt lat="25.076851" lon="101.640353">
<time>2016-10-07T03:25:20Z</time></trkpt>
<trkpt lat="25.076941" lon="101.640164">
<time>2016-10-07T03:25:21Z</time></trkpt>
<trkpt lat="25.077041" lon="101.640014">
<time>2016-10-07T03:25:22Z</time></trkpt>
<trkpt lat="25.077171" lon="101.639834">
<time>2016-10-07T03:25:23Z</time></trkpt>
<trkpt lat="25.077302" lon="101.639644">
<time>2016-10-07T03:25:24Z</time></trkpt>
<trkpt lat="25.077692" lon="101.639145">
<time>2016-10-07T03:25:25Z</time></trkpt>
<trkpt lat="25.078173" lon="101.638516">
<time>2016-10-07T03:25:26Z</time></trkpt>
<trkpt lat="25.078434" lon="101.638197">
<time>2016-10-07T03:25:27Z</time></trkpt>
<trkpt lat="25.078614" lon="101.637967">
<time>2016-10-07T03:25:28Z</time></trkpt>
<trkpt lat="25.078925" lon="101.637558">
<time>2016-10-07T03:25:29Z</time></trkpt>
<trkpt lat="25.079085" lon="101.637318">
<time>2016-10-07T03:25:30Z</time></trkpt>
<trkpt lat="25.079175" lon="101.637168">
<time>2016-10-07T03:25:31Z</time></trkpt>
<trkpt lat="25.079305" lon="101.636959">
<time>2016-10-07T03:25:32Z</time></trkpt>
<trkpt lat="25.079496" lon="101.636599">
<time>2016-10-07T03:25:33Z</time></trkpt>
<trkpt lat="25.079646" lon="101.636339">
<time>2016-10-07T03:25:34Z</time></trkpt>
<trkpt lat="25.079847" lon="101.63596">
<time>2016-10-07T03:25:35Z</time></trkpt>
<trkpt lat="25.080007" lon="101.635641">
<time>2016-10-07T03:25:36Z</time></trkpt>
<trkpt lat="25.080087" lon="101.635501">
<time>2016-10-07T03:25:37Z</time></trkpt>
<trkpt lat="25.080148" lon="101.635361">
<time>2016-10-07T03:25:38Z</time></trkpt>
<trkpt lat="25.080208" lon="101.635201">
<time>2016-10-07T03:25:39Z</time></trkpt>
<trkpt lat="25.080228" lon="101.635091">
<time>2016-10-07T03:25:40Z</time></trkpt>
<trkpt lat="25.080248" lon="101.635001">
<time>2016-10-07T03:25:41Z</time></trkpt>
<trkpt lat="25.080268" lon="101.634872">
<time>2016-10-07T03:25:42Z</time></trkpt>
<trkpt lat="25.080268" lon="101.634762">
<time>2016-10-07T03:25:43Z</time></trkpt>
<trkpt lat="25.080279" lon="101.634572">
<time>2016-10-07T03:25:44Z</time></trkpt>
<trkpt lat="25.080279" lon="101.634233">
<time>2016-10-07T03:25:45Z</time></trkpt>
<trkpt lat="25.080279" lon="101.634113">
<time>2016-10-07T03:25:46Z</time></trkpt>
<trkpt lat="25.08027" lon="101.633504">
<time>2016-10-07T03:25:47Z</time></trkpt>
<trkpt lat="25.080271" lon="101.633044">
<time>2016-10-07T03:25:48Z</time></trkpt>
<trkpt lat="25.080271" lon="101.632885">
<time>2016-10-07T03:25:49Z</time></trkpt>
<trkpt lat="25.080262" lon="101.632285">
<time>2016-10-07T03:25:50Z</time></trkpt>
<trkpt lat="25.080233" lon="101.631676">
<time>2016-10-07T03:25:51Z</time></trkpt>
<trkpt lat="25.080243" lon="101.631656">
<time>2016-10-07T03:25:52Z</time></trkpt>
<trkpt lat="25.080253" lon="101.631287">
<time>2016-10-07T03:25:53Z</time></trkpt>
<trkpt lat="25.080254" lon="101.631087">
<time>2016-10-07T03:25:54Z</time></trkpt>
<trkpt lat="25.080264" lon="101.630977">
<time>2016-10-07T03:25:55Z</time></trkpt>
<trkpt lat="25.080294" lon="101.630857">
<time>2016-10-07T03:25:56Z</time></trkpt>
<trkpt lat="25.080324" lon="101.630767">
<time>2016-10-07T03:25:57Z</time></trkpt>
<trkpt lat="25.080394" lon="101.630598">
<time>2016-10-07T03:25:58Z</time></trkpt>
<trkpt lat="25.080745" lon="101.629899">
<time>2016-10-07T03:25:59Z</time></trkpt>
<trkpt lat="25.080815" lon="101.629749">
<time>2016-10-07T03:26:00Z</time></trkpt>
<trkpt lat="25.081086" lon="101.629209">
<time>2016-10-07T03:26:01Z</time></trkpt>
<trkpt lat="25.081156" lon="101.62908">
<time>2016-10-07T03:26:02Z</time></trkpt>
<trkpt lat="25.081226" lon="101.62892">
<time>2016-10-07T03:26:03Z</time></trkpt>
<trkpt lat="25.081477" lon="101.628381">
<time>2016-10-07T03:26:04Z</time></trkpt>
<trkpt lat="25.081768" lon="101.627771">
<time>2016-10-07T03:26:05Z</time></trkpt>
<trkpt lat="25.081868" lon="101.627522">
<time>2016-10-07T03:26:06Z</time></trkpt>
<trkpt lat="25.081978" lon="101.627202">
<time>2016-10-07T03:26:07Z</time></trkpt>
<trkpt lat="25.081998" lon="101.627132">
<time>2016-10-07T03:26:08Z</time></trkpt>
<trkpt lat="25.082099" lon="101.626803">
<time>2016-10-07T03:26:09Z</time></trkpt>
<trkpt lat="25.082149" lon="101.626583">
<time>2016-10-07T03:26:10Z</time></trkpt>
<trkpt lat="25.082179" lon="101.626443">
<time>2016-10-07T03:26:11Z</time></trkpt>
<trkpt lat="25.082179" lon="101.626313">
<time>2016-10-07T03:26:12Z</time></trkpt>
<trkpt lat="25.082179" lon="101.626213">
<time>2016-10-07T03:26:13Z</time></trkpt>
<trkpt lat="25.082159" lon="101.626123">
<time>2016-10-07T03:26:14Z</time></trkpt>
<trkpt lat="25.08212" lon="101.626023">
<time>2016-10-07T03:26:15Z</time></trkpt>
<trkpt lat="25.08208" lon="101.625924">
<time>2016-10-07T03:26:16Z</time></trkpt>
<trkpt lat="25.08202" lon="101.625804">
<time>2016-10-07T03:26:17Z</time></trkpt>
<trkpt lat="25.08191" lon="101.625654">
<time>2016-10-07T03:26:18Z</time></trkpt>
<trkpt lat="25.0819" lon="101.625634">
<time>2016-10-07T03:26:19Z</time></trkpt>
<trkpt lat="25.0817" lon="101.625354">
<time>2016-10-07T03:26:20Z</time></trkpt>
<trkpt lat="25.081451" lon="101.625015">
<time>2016-10-07T03:26:21Z</time></trkpt>
<trkpt lat="25.081361" lon="101.624955">
<time>2016-10-07T03:26:22Z</time></trkpt>
<trkpt lat="25.081321" lon="101.624915">
<time>2016-10-07T03:26:23Z</time></trkpt>
<trkpt lat="25.081241" lon="101.624845">
<time>2016-10-07T03:26:24Z</time></trkpt>
<trkpt lat="25.081201" lon="101.624815">
<time>2016-10-07T03:26:25Z</time></trkpt>
<trkpt lat="25.081141" lon="101.624785">
<time>2016-10-07T03:26:26Z</time></trkpt>
<trkpt lat="25.081091" lon="101.624745">
<time>2016-10-07T03:26:27Z</time></trkpt>
<trkpt lat="25.081031" lon="101.624725">
<time>2016-10-07T03:26:28Z</time></trkpt>
<trkpt lat="25.080931" lon="101.624695">
<time>2016-10-07T03:26:29Z</time></trkpt>
<trkpt lat="25.080801" lon="101.624665">
<time>2016-10-07T03:26:30Z</time></trkpt>
<trkpt lat="25.080641" lon="101.624645">
<time>2016-10-07T03:26:31Z</time></trkpt>
<trkpt lat="25.080451" lon="101.624615">
<time>2016-10-07T03:26:32Z</time></trkpt>
<trkpt lat="25.080351" lon="101.624615">
<time>2016-10-07T03:26:33Z</time></trkpt>
<trkpt lat="25.080251" lon="101.624615">
<time>2016-10-07T03:26:34Z</time></trkpt>
<trkpt lat="25.080181" lon="101.624625">
<time>2016-10-07T03:26:35Z</time></trkpt>
<trkpt lat="25.080101" lon="101.624645">
<time>2016-10-07T03:26:36Z</time></trkpt>
<trkpt lat="25.080021" lon="101.624685">
<time>2016-10-07T03:26:37Z</time></trkpt>
<trkpt lat="25.079951" lon="101.624725">
<time>2016-10-07T03:26:38Z</time></trkpt>
<trkpt lat="25.079831" lon="101.624825">
<time>2016-10-07T03:26:39Z</time></trkpt>
<trkpt lat="25.079641" lon="101.625015">
<time>2016-10-07T03:26:40Z</time></trkpt>
<trkpt lat="25.079441" lon="101.625254">
<time>2016-10-07T03:26:41Z</time></trkpt>
<trkpt lat="25.079341" lon="101.625354">
<time>2016-10-07T03:26:42Z</time></trkpt>
<trkpt lat="25.079271" lon="101.625404">
<time>2016-10-07T03:26:43Z</time></trkpt>
<trkpt lat="25.079191" lon="101.625444">
<time>2016-10-07T03:26:44Z</time></trkpt>
<trkpt lat="25.079151" lon="101.625454">
<time>2016-10-07T03:26:45Z</time></trkpt>
<trkpt lat="25.079111" lon="101.625454">
<time>2016-10-07T03:26:46Z</time></trkpt>
<trkpt lat="25.079071" lon="101.625454">
<time>2016-10-07T03:26:47Z</time></trkpt>
<trkpt lat="25.079031" lon="101.625454">
<time>2016-10-07T03:26:48Z</time></trkpt>
<trkpt lat="25.079011" lon="101.625454">
<time>2016-10-07T03:26:49Z</time></trkpt>
<trkpt lat="25.078971" lon="101.625444">
<time>2016-10-07T03:26:50Z</time></trkpt>
<trkpt lat="25.078911" lon="101.625424">
<time>2016-10-07T03:26:51Z</time></trkpt>
<trkpt lat="25.078851" lon="101.625384">
<time>2016-10-07T03:26:52Z</time></trkpt>
<trkpt lat="25.078741" lon="101.625324">
<time>2016-10-07T03:26:53Z</time></trkpt>
<trkpt lat="25.078711" lon="101.625304">
<time>2016-10-07T03:26:54Z</time></trkpt>
<trkpt lat="25.078621" lon="101.625244">
<time>2016-10-07T03:26:55Z</time></trkpt>
<trkpt lat="25.078561" lon="101.625205">
<time>2016-10-07T03:26:56Z</time></trkpt>
<trkpt lat="25.078471" lon="101.625135">
<time>2016-10-07T03:26:57Z</time></trkpt>
<trkpt lat="25.078391" lon="101.625075">
<time>2016-10-07T03:26:58Z</time></trkpt>
<trkpt lat="25.078331" lon="101.625015">
<time>2016-10-07T03:26:59Z</time></trkpt>
<trkpt lat="25.078321" lon="101.624995">
<time>2016-10-07T03:27:00Z</time></trkpt>
<trkpt lat="25.078321" lon="101.624985">
<time>2016-10-07T03:27:01Z</time></trkpt>
<trkpt lat="25.078301" lon="101.624955">
<time>2016-10-07T03:27:02Z</time></trkpt>
<trkpt lat="25.078291" lon="101.624935">
<time>2016-10-07T03:27:03Z</time></trkpt>
<trkpt lat="25.078281" lon="101.624905">
<time>2016-10-07T03:27:04Z</time></trkpt>
<trkpt lat="25.078271" lon="101.624875">
<time>2016-10-07T03:27:05Z</time></trkpt>
<trkpt lat="25.078271" lon="101.624855">
<time>2016-10-07T03:27:06Z</time></trkpt>
<trkpt lat="25.078261" lon="101.624825">
<time>2016-10-07T03:27:07Z</time></trkpt>
<trkpt lat="25.078261" lon="101.624775">
<time>2016-10-07T03:27:08Z</time></trkpt>
<trkpt lat="25.078261" lon="101.624755">
<time>2016-10-07T03:27:09Z</time></trkpt>
<trkpt lat="25.078261" lon="101.624725">
<time>2016-10-07T03:27:10Z</time></trkpt>
<trkpt lat="25.078282" lon="101.624665">
<time>2016-10-07T03:27:11Z</time></trkpt>
<trkpt lat="25.078292" lon="101.624615">
<time>2016-10-07T03:27:12Z</time></trkpt>
<trkpt lat="25.078322" lon="101.624565">
<time>2016-10-07T03:27:13Z</time></trkpt>
<trkpt lat="25.078372" lon="101.624505">
<time>2016-10-07T03:27:14Z</time></trkpt>
<trkpt lat="25.078422" lon="101.624445">
<time>2016-10-07T03:27:15Z</time></trkpt>
<trkpt lat="25.078472" lon="101.624395">
<time>2016-10-07T03:27:16Z</time></trkpt>
<trkpt lat="25.078592" lon="101.624296">
<time>2016-10-07T03:27:17Z</time></trkpt>
<trkpt lat="25.078662" lon="101.624216">
<time>2016-10-07T03:27:18Z</time></trkpt>
<trkpt lat="25.078732" lon="101.624126">
<time>2016-10-07T03:27:19Z</time></trkpt>
<trkpt lat="25.078832" lon="101.624006">
<time>2016-10-07T03:27:20Z</time></trkpt>
<trkpt lat="25.079002" lon="101.623746">
<time>2016-10-07T03:27:21Z</time></trkpt>
<trkpt lat="25.079513" lon="101.622977">
<time>2016-10-07T03:27:22Z</time></trkpt>
<trkpt lat="25.079864" lon="101.622448">
<time>2016-10-07T03:27:23Z</time></trkpt>
<trkpt lat="25.080234" lon="101.621888">
<time>2016-10-07T03:27:24Z</time></trkpt>
<trkpt lat="25.080515" lon="101.621459">
<time>2016-10-07T03:27:25Z</time></trkpt>
<trkpt lat="25.080705" lon="101.621169">
<time>2016-10-07T03:27:26Z</time></trkpt>
<trkpt lat="25.080795" lon="101.621009">
<time>2016-10-07T03:27:27Z</time></trkpt>
<trkpt lat="25.080865" lon="101.620869">
<time>2016-10-07T03:27:28Z</time></trkpt>
<trkpt lat="25.080905" lon="101.620759">
<time>2016-10-07T03:27:29Z</time></trkpt>
<trkpt lat="25.080936" lon="101.620619">
<time>2016-10-07T03:27:30Z</time></trkpt>
<trkpt lat="25.080956" lon="101.6205">
<time>2016-10-07T03:27:31Z</time></trkpt>
<trkpt lat="25.080956" lon="101.62033">
<time>2016-10-07T03:27:32Z</time></trkpt>
<trkpt lat="25.080956" lon="101.62016">
<time>2016-10-07T03:27:33Z</time></trkpt>
<trkpt lat="25.080946" lon="101.62">
<time>2016-10-07T03:27:34Z</time></trkpt>
<trkpt lat="25.080936" lon="101.61962">
<time>2016-10-07T03:27:35Z</time></trkpt>
<trkpt lat="25.080917" lon="101.619171">
<time>2016-10-07T03:27:36Z</time></trkpt>
<trkpt lat="25.080927" lon="101.618751">
<time>2016-10-07T03:27:37Z</time></trkpt>
<trkpt lat="25.080927" lon="101.618621">
<time>2016-10-07T03:27:38Z</time></trkpt>
<trkpt lat="25.080938" lon="101.618402">
<time>2016-10-07T03:27:39Z</time></trkpt>
<trkpt lat="25.080948" lon="101.618232">
<time>2016-10-07T03:27:40Z</time></trkpt>
<trkpt lat="25.080948" lon="101.618142">
<time>2016-10-07T03:27:41Z</time></trkpt>
<trkpt lat="25.080958" lon="101.617932">
<time>2016-10-07T03:27:42Z</time></trkpt>
<trkpt lat="25.080988" lon="101.617692">
<time>2016-10-07T03:27:43Z</time></trkpt>
<trkpt lat="25.080978" lon="101.617442">
<time>2016-10-07T03:27:44Z</time></trkpt>
<trkpt lat="25.080959" lon="101.617183">
<time>2016-10-07T03:27:45Z</time></trkpt>
<trkpt lat="25.080879" lon="101.616383">
<time>2016-10-07T03:27:46Z</time></trkpt>
<trkpt lat="25.08082" lon="101.615834">
<time>2016-10-07T03:27:47Z</time></trkpt>
<trkpt lat="25.08076" lon="101.615294">
<time>2016-10-07T03:27:48Z</time></trkpt>
<trkpt lat="25.08072" lon="101.615074">
<time>2016-10-07T03:27:49Z</time></trkpt>
<trkpt lat="25.080671" lon="101.614865">
<time>2016-10-07T03:27:50Z</time></trkpt>
<trkpt lat="25.080601" lon="101.614615">
<time>2016-10-07T03:27:51Z</time></trkpt>
<trkpt lat="25.080511" lon="101.614375">
<time>2016-10-07T03:27:52Z</time></trkpt>
<trkpt lat="25.080371" lon="101.614015">
<time>2016-10-07T03:27:53Z</time></trkpt>
<trkpt lat="25.080301" lon="101.613865">
<time>2016-10-07T03:27:54Z</time></trkpt>
<trkpt lat="25.080231" lon="101.613725">
<time>2016-10-07T03:27:55Z</time></trkpt>
<trkpt lat="25.080191" lon="101.613656">
<time>2016-10-07T03:27:56Z</time></trkpt>
<trkpt lat="25.080132" lon="101.613576">
<time>2016-10-07T03:27:57Z</time></trkpt>
<trkpt lat="25.080012" lon="101.613416">
<time>2016-10-07T03:27:58Z</time></trkpt>
<trkpt lat="25.079852" lon="101.613246">
<time>2016-10-07T03:27:59Z</time></trkpt>
<trkpt lat="25.079732" lon="101.613146">
<time>2016-10-07T03:28:00Z</time></trkpt>
<trkpt lat="25.079652" lon="101.613076">
<time>2016-10-07T03:28:01Z</time></trkpt>
<trkpt lat="25.079532" lon="101.613006">
<time>2016-10-07T03:28:02Z</time></trkpt>
<trkpt lat="25.079392" lon="101.612936">
<time>2016-10-07T03:28:03Z</time></trkpt>
<trkpt lat="25.079262" lon="101.612876">
<time>2016-10-07T03:28:04Z</time></trkpt>
<trkpt lat="25.078812" lon="101.612696">
<time>2016-10-07T03:28:05Z</time></trkpt>
<trkpt lat="25.078512" lon="101.612566">
<time>2016-10-07T03:28:06Z</time></trkpt>
<trkpt lat="25.078312" lon="101.612476">
<time>2016-10-07T03:28:07Z</time></trkpt>
<trkpt lat="25.078143" lon="101.612396">
<time>2016-10-07T03:28:08Z</time></trkpt>
<trkpt lat="25.078073" lon="101.612356">
<time>2016-10-07T03:28:09Z</time></trkpt>
<trkpt lat="25.078013" lon="101.612307">
<time>2016-10-07T03:28:10Z</time></trkpt>
<trkpt lat="25.077953" lon="101.612257">
<time>2016-10-07T03:28:11Z</time></trkpt>
<trkpt lat="25.077903" lon="101.612197">
<time>2016-10-07T03:28:12Z</time></trkpt>
<trkpt lat="25.077843" lon="101.612127">
<time>2016-10-07T03:28:13Z</time></trkpt>
<trkpt lat="25.077793" lon="101.612037">
<time>2016-10-07T03:28:14Z</time></trkpt>
<trkpt lat="25.077703" lon="101.611877">
<time>2016-10-07T03:28:15Z</time></trkpt>
<trkpt lat="25.077633" lon="101.611697">
<time>2016-10-07T03:28:16Z</time></trkpt>
<trkpt lat="25.077543" lon="101.611457">
<time>2016-10-07T03:28:17Z</time></trkpt>
<trkpt lat="25.077453" lon="101.611217">
<time>2016-10-07T03:28:18Z</time></trkpt>
<trkpt lat="25.077364" lon="101.611007">
<time>2016-10-07T03:28:19Z</time></trkpt>
<trkpt lat="25.077234" lon="101.610758">
<time>2016-10-07T03:28:20Z</time></trkpt>
<trkpt lat="25.077054" lon="101.610388">
<time>2016-10-07T03:28:21Z</time></trkpt>
<trkpt lat="25.076824" lon="101.609968">
<time>2016-10-07T03:28:22Z</time></trkpt>
<trkpt lat="25.076714" lon="101.609728">
<time>2016-10-07T03:28:23Z</time></trkpt>
<trkpt lat="25.076624" lon="101.609528">
<time>2016-10-07T03:28:24Z</time></trkpt>
<trkpt lat="25.076605" lon="101.609448">
<time>2016-10-07T03:28:25Z</time></trkpt>
<trkpt lat="25.076585" lon="101.609368">
<time>2016-10-07T03:28:26Z</time></trkpt>
<trkpt lat="25.076575" lon="101.609218">
<time>2016-10-07T03:28:27Z</time></trkpt>
<trkpt lat="25.076575" lon="101.609069">
<time>2016-10-07T03:28:28Z</time></trkpt>
<trkpt lat="25.076585" lon="101.608859">
<time>2016-10-07T03:28:29Z</time></trkpt>
<trkpt lat="25.076625" lon="101.608469">
<time>2016-10-07T03:28:30Z</time></trkpt>
<trkpt lat="25.076655" lon="101.608269">
<time>2016-10-07T03:28:31Z</time></trkpt>
<trkpt lat="25.076735" lon="101.607859">
<time>2016-10-07T03:28:32Z</time></trkpt>
<trkpt lat="25.076785" lon="101.607609">
<time>2016-10-07T03:28:33Z</time></trkpt>
<trkpt lat="25.076806" lon="101.607479">
<time>2016-10-07T03:28:34Z</time></trkpt>
<trkpt lat="25.076816" lon="101.607439">
<time>2016-10-07T03:28:35Z</time></trkpt>
<trkpt lat="25.076836" lon="101.607249">
<time>2016-10-07T03:28:36Z</time></trkpt>
<trkpt lat="25.076856" lon="101.607039">
<time>2016-10-07T03:28:37Z</time></trkpt>
<trkpt lat="25.076856" lon="101.60687">
<time>2016-10-07T03:28:38Z</time></trkpt>
<trkpt lat="25.076856" lon="101.60665">
<time>2016-10-07T03:28:39Z</time></trkpt>
<trkpt lat="25.076816" lon="101.60631">
<time>2016-10-07T03:28:40Z</time></trkpt>
<trkpt lat="25.076756" lon="101.60597">
<time>2016-10-07T03:28:41Z</time></trkpt>
<trkpt lat="25.076666" lon="101.60558">
<time>2016-10-07T03:28:42Z</time></trkpt>
<trkpt lat="25.076557" lon="101.60519">
<time>2016-10-07T03:28:43Z</time></trkpt>
<trkpt lat="25.076507" lon="101.60498">
<time>2016-10-07T03:28:44Z</time></trkpt>
<trkpt lat="25.076467" lon="101.60483">
<time>2016-10-07T03:28:45Z</time></trkpt>
<trkpt lat="25.076387" lon="101.60459">
<time>2016-10-07T03:28:46Z</time></trkpt>
<trkpt lat="25.076327" lon="101.604441">
<time>2016-10-07T03:28:47Z</time></trkpt>
<trkpt lat="25.076187" lon="101.604131">
<time>2016-10-07T03:28:48Z</time></trkpt>
<trkpt lat="25.076027" lon="101.603811">
<time>2016-10-07T03:28:49Z</time></trkpt>
<trkpt lat="25.075847" lon="101.603481">
<time>2016-10-07T03:28:50Z</time></trkpt>
<trkpt lat="25.075557" lon="101.602951">
<time>2016-10-07T03:28:51Z</time></trkpt>
<trkpt lat="25.075188" lon="101.602271">
<time>2016-10-07T03:28:52Z</time></trkpt>
<trkpt lat="25.074818" lon="101.601561">
<time>2016-10-07T03:28:53Z</time></trkpt>
<trkpt lat="25.074498" lon="101.600971">
<time>2016-10-07T03:28:54Z</time></trkpt>
<trkpt lat="25.074188" lon="101.600402">
<time>2016-10-07T03:28:55Z</time></trkpt>
<trkpt lat="25.073948" lon="101.599952">
<time>2016-10-07T03:28:56Z</time></trkpt>
<trkpt lat="25.073758" lon="101.599592">
<time>2016-10-07T03:28:57Z</time></trkpt>
<trkpt lat="25.073638" lon="101.599342">
<time>2016-10-07T03:28:58Z</time></trkpt>
<trkpt lat="25.073548" lon="101.599142">
<time>2016-10-07T03:28:59Z</time></trkpt>
<trkpt lat="25.073428" lon="101.598822">
<time>2016-10-07T03:29:00Z</time></trkpt>
<trkpt lat="25.073268" lon="101.598372">
<time>2016-10-07T03:29:01Z</time></trkpt>
<trkpt lat="25.073198" lon="101.598212">
<time>2016-10-07T03:29:02Z</time></trkpt>
<trkpt lat="25.073128" lon="101.598052">
<time>2016-10-07T03:29:03Z</time></trkpt>
<trkpt lat="25.073068" lon="101.597952">
<time>2016-10-07T03:29:04Z</time></trkpt>
<trkpt lat="25.072988" lon="101.597822">
<time>2016-10-07T03:29:05Z</time></trkpt>
<trkpt lat="25.072829" lon="101.597612">
<time>2016-10-07T03:29:06Z</time></trkpt>
<trkpt lat="25.072719" lon="101.597492">
<time>2016-10-07T03:29:07Z</time></trkpt>
<trkpt lat="25.072619" lon="101.597382">
<time>2016-10-07T03:29:08Z</time></trkpt>
<trkpt lat="25.072489" lon="101.597252">
<time>2016-10-07T03:29:09Z</time></trkpt>
<trkpt lat="25.072359" lon="101.597132">
<time>2016-10-07T03:29:10Z</time></trkpt>
<trkpt lat="25.072249" lon="101.597062">
<time>2016-10-07T03:29:11Z</time></trkpt>
<trkpt lat="25.072119" lon="101.596992">
<time>2016-10-07T03:29:12Z</time></trkpt>
<trkpt lat="25.071999" lon="101.596942">
<time>2016-10-07T03:29:13Z</time></trkpt>
<trkpt lat="25.071819" lon="101.596882">
<time>2016-10-07T03:29:14Z</time></trkpt>
<trkpt lat="25.071509" lon="101.596792">
<time>2016-10-07T03:29:15Z</time></trkpt>
<trkpt lat="25.070849" lon="101.596612">
<time>2016-10-07T03:29:16Z</time></trkpt>
<trkpt lat="25.070239" lon="101.596462">
<time>2016-10-07T03:29:17Z</time></trkpt>
<trkpt lat="25.069789" lon="101.596322">
<time>2016-10-07T03:29:18Z</time></trkpt>
<trkpt lat="25.069669" lon="101.596272">
<time>2016-10-07T03:29:19Z</time></trkpt>
<trkpt lat="25.069549" lon="101.596212">
<time>2016-10-07T03:29:20Z</time></trkpt>
<trkpt lat="25.069439" lon="101.596132">
<time>2016-10-07T03:29:21Z</time></trkpt>
<trkpt lat="25.069329" lon="101.596042">
<time>2016-10-07T03:29:22Z</time></trkpt>
<trkpt lat="25.069249" lon="101.595952">
<time>2016-10-07T03:29:23Z</time></trkpt>
<trkpt lat="25.069169" lon="101.595842">
<time>2016-10-07T03:29:24Z</time></trkpt>
<trkpt lat="25.069079" lon="101.595692">
<time>2016-10-07T03:29:25Z</time></trkpt>
<trkpt lat="25.068929" lon="101.595362">
<time>2016-10-07T03:29:26Z</time></trkpt>
<trkpt lat="25.068459" lon="101.594282">
<time>2016-10-07T03:29:27Z</time></trkpt>
<trkpt lat="25.068229" lon="101.593742">
<time>2016-10-07T03:29:28Z</time></trkpt>
<trkpt lat="25.067989" lon="101.593192">
<time>2016-10-07T03:29:29Z</time></trkpt>
<trkpt lat="25.067809" lon="101.592822">
<time>2016-10-07T03:29:30Z</time></trkpt>
<trkpt lat="25.067729" lon="101.592651">
<time>2016-10-07T03:29:31Z</time></trkpt>
<trkpt lat="25.067499" lon="101.592271">
<time>2016-10-07T03:29:32Z</time></trkpt>
<trkpt lat="25.067249" lon="101.591861">
<time>2016-10-07T03:29:33Z</time></trkpt>
<trkpt lat="25.066859" lon="101.591251">
<time>2016-10-07T03:29:34Z</time></trkpt>
<trkpt lat="25.066428" lon="101.590581">
<time>2016-10-07T03:29:35Z</time></trkpt>
<trkpt lat="25.066008" lon="101.589911">
<time>2016-10-07T03:29:36Z</time></trkpt>
<trkpt lat="25.065628" lon="101.589301">
<time>2016-10-07T03:29:37Z</time></trkpt>
<trkpt lat="25.065128" lon="101.58852">
<time>2016-10-07T03:29:38Z</time></trkpt>
<trkpt lat="25.064828" lon="101.58804">
<time>2016-10-07T03:29:39Z</time></trkpt>
<trkpt lat="25.064658" lon="101.5878">
<time>2016-10-07T03:29:40Z</time></trkpt>
<trkpt lat="25.064648" lon="101.58779">
<time>2016-10-07T03:29:41Z</time></trkpt>
<trkpt lat="25.064428" lon="101.58752">
<time>2016-10-07T03:29:42Z</time></trkpt>
<trkpt lat="25.064218" lon="101.58729">
<time>2016-10-07T03:29:43Z</time></trkpt>
<trkpt lat="25.064148" lon="101.58723">
<time>2016-10-07T03:29:44Z</time></trkpt>
<trkpt lat="25.064098" lon="101.58719">
<time>2016-10-07T03:29:45Z</time></trkpt>
<trkpt lat="25.064048" lon="101.58715">
<time>2016-10-07T03:29:46Z</time></trkpt>
<trkpt lat="25.064008" lon="101.58713">
<time>2016-10-07T03:29:47Z</time></trkpt>
<trkpt lat="25.063968" lon="101.58711">
<time>2016-10-07T03:29:48Z</time></trkpt>
<trkpt lat="25.063918" lon="101.58709">
<time>2016-10-07T03:29:49Z</time></trkpt>
<trkpt lat="25.063878" lon="101.58707">
<time>2016-10-07T03:29:50Z</time></trkpt>
<trkpt lat="25.063838" lon="101.58706">
<time>2016-10-07T03:29:51Z</time></trkpt>
<trkpt lat="25.063798" lon="101.58706">
<time>2016-10-07T03:29:52Z</time></trkpt>
<trkpt lat="25.063758" lon="101.58705">
<time>2016-10-07T03:29:53Z</time></trkpt>
<trkpt lat="25.063718" lon="101.58705">
<time>2016-10-07T03:29:54Z</time></trkpt>
<trkpt lat="25.063688" lon="101.58705">
<time>2016-10-07T03:29:55Z</time></trkpt>
<trkpt lat="25.063638" lon="101.58706">
<time>2016-10-07T03:29:56Z</time></trkpt>
<trkpt lat="25.063608" lon="101.58706">
<time>2016-10-07T03:29:57Z</time></trkpt>
<trkpt lat="25.063568" lon="101.58707">
<time>2016-10-07T03:29:58Z</time></trkpt>
<trkpt lat="25.063528" lon="101.58709">
<time>2016-10-07T03:29:59Z</time></trkpt>
<trkpt lat="25.063478" lon="101.58712">
<time>2016-10-07T03:30:00Z</time></trkpt>
<trkpt lat="25.063428" lon="101.58715">
<time>2016-10-07T03:30:01Z</time></trkpt>
<trkpt lat="25.063398" lon="101.58718">
<time>2016-10-07T03:30:02Z</time></trkpt>
<trkpt lat="25.063328" lon="101.58725">
<time>2016-10-07T03:30:03Z</time></trkpt>
<trkpt lat="25.063258" lon="101.58734">
<time>2016-10-07T03:30:04Z</time></trkpt>
<trkpt lat="25.063198" lon="101.58744">
<time>2016-10-07T03:30:05Z</time></trkpt>
<trkpt lat="25.063108" lon="101.58761">
<time>2016-10-07T03:30:06Z</time></trkpt>
<trkpt lat="25.062998" lon="101.58784">
<time>2016-10-07T03:30:07Z</time></trkpt>
<trkpt lat="25.062838" lon="101.58813">
<time>2016-10-07T03:30:08Z</time></trkpt>
<trkpt lat="25.062758" lon="101.58828">
<time>2016-10-07T03:30:09Z</time></trkpt>
<trkpt lat="25.062618" lon="101.58847">
<time>2016-10-07T03:30:10Z</time></trkpt>
<trkpt lat="25.062338" lon="101.58879">
<time>2016-10-07T03:30:11Z</time></trkpt>
<trkpt lat="25.062009" lon="101.589141">
<time>2016-10-07T03:30:12Z</time></trkpt>
<trkpt lat="25.061739" lon="101.589431">
<time>2016-10-07T03:30:13Z</time></trkpt>
<trkpt lat="25.061679" lon="101.589501">
<time>2016-10-07T03:30:14Z</time></trkpt>
<trkpt lat="25.061579" lon="101.589611">
<time>2016-10-07T03:30:15Z</time></trkpt>
<trkpt lat="25.061389" lon="101.589811">
<time>2016-10-07T03:30:16Z</time></trkpt>
<trkpt lat="25.061289" lon="101.589901">
<time>2016-10-07T03:30:17Z</time></trkpt>
<trkpt lat="25.061189" lon="101.589971">
<time>2016-10-07T03:30:18Z</time></trkpt>
<trkpt lat="25.061099" lon="101.590031">
<time>2016-10-07T03:30:19Z</time></trkpt>
<trkpt lat="25.061019" lon="101.590061">
<time>2016-10-07T03:30:20Z</time></trkpt>
<trkpt lat="25.060929" lon="101.590111">
<time>2016-10-07T03:30:21Z</time></trkpt>
<trkpt lat="25.060819" lon="101.590151">
<time>2016-10-07T03:30:22Z</time></trkpt>
<trkpt lat="25.060669" lon="101.590181">
<time>2016-10-07T03:30:23Z</time></trkpt>
<trkpt lat="25.060529" lon="101.590191">
<time>2016-10-07T03:30:24Z</time></trkpt>
<trkpt lat="25.060429" lon="101.590201">
<time>2016-10-07T03:30:25Z</time></trkpt>
<trkpt lat="25.060269" lon="101.590181">
<time>2016-10-07T03:30:26Z</time></trkpt>
<trkpt lat="25.060129" lon="101.590161">
<time>2016-10-07T03:30:27Z</time></trkpt>
<trkpt lat="25.059999" lon="101.590121">
<time>2016-10-07T03:30:28Z</time></trkpt>
<trkpt lat="25.059899" lon="101.590081">
<time>2016-10-07T03:30:29Z</time></trkpt>
<trkpt lat="25.059779" lon="101.590021">
<time>2016-10-07T03:30:30Z</time></trkpt>
<trkpt lat="25.059369" lon="101.589771">
<time>2016-10-07T03:30:31Z</time></trkpt>
<trkpt lat="25.058949" lon="101.589501">
<time>2016-10-07T03:30:32Z</time></trkpt>
<trkpt lat="25.058679" lon="101.589311">
<time>2016-10-07T03:30:33Z</time></trkpt>
<trkpt lat="25.058379" lon="101.589111">
<time>2016-10-07T03:30:34Z</time></trkpt>
<trkpt lat="25.058149" lon="101.588951">
<time>2016-10-07T03:30:35Z</time></trkpt>
<trkpt lat="25.057839" lon="101.588741">
<time>2016-10-07T03:30:36Z</time></trkpt>
<trkpt lat="25.057549" lon="101.58855">
<time>2016-10-07T03:30:37Z</time></trkpt>
<trkpt lat="25.057399" lon="101.58844">
<time>2016-10-07T03:30:38Z</time></trkpt>
<trkpt lat="25.057079" lon="101.5882">
<time>2016-10-07T03:30:39Z</time></trkpt>
<trkpt lat="25.056639" lon="101.58791">
<time>2016-10-07T03:30:40Z</time></trkpt>
<trkpt lat="25.056419" lon="101.58773">
<time>2016-10-07T03:30:41Z</time></trkpt>
<trkpt lat="25.056349" lon="101.58768">
<time>2016-10-07T03:30:42Z</time></trkpt>
<trkpt lat="25.056299" lon="101.58762">
<time>2016-10-07T03:30:43Z</time></trkpt>
<trkpt lat="25.056249" lon="101.58757">
<time>2016-10-07T03:30:44Z</time></trkpt>
<trkpt lat="25.056219" lon="101.58753">
<time>2016-10-07T03:30:45Z</time></trkpt>
<trkpt lat="25.056199" lon="101.58749">
<time>2016-10-07T03:30:46Z</time></trkpt>
<trkpt lat="25.056179" lon="101.58745">
<time>2016-10-07T03:30:47Z</time></trkpt>
<trkpt lat="25.056169" lon="101.5874">
<time>2016-10-07T03:30:48Z</time></trkpt>
<trkpt lat="25.056148" lon="101.58734">
<time>2016-10-07T03:30:49Z</time></trkpt>
<trkpt lat="25.056148" lon="101.58728">
<time>2016-10-07T03:30:50Z</time></trkpt>
<trkpt lat="25.056138" lon="101.58722">
<time>2016-10-07T03:30:51Z</time></trkpt>
<trkpt lat="25.056138" lon="101.58708">
<time>2016-10-07T03:30:52Z</time></trkpt>
<trkpt lat="25.056148" lon="101.58692">
<time>2016-10-07T03:30:53Z</time></trkpt>
<trkpt lat="25.056178" lon="101.58659">
<time>2016-10-07T03:30:54Z</time></trkpt>
<trkpt lat="25.056188" lon="101.58637">
<time>2016-10-07T03:30:55Z</time></trkpt>
<trkpt lat="25.056188" lon="101.586229">
<time>2016-10-07T03:30:56Z</time></trkpt>
<trkpt lat="25.056168" lon="101.586089">
<time>2016-10-07T03:30:57Z</time></trkpt>
<trkpt lat="25.056138" lon="101.585879">
<time>2016-10-07T03:30:58Z</time></trkpt>
<trkpt lat="25.056118" lon="101.585819">
<time>2016-10-07T03:30:59Z</time></trkpt>
<trkpt lat="25.056088" lon="101.585649">
<time>2016-10-07T03:31:00Z</time></trkpt>
<trkpt lat="25.056038" lon="101.585479">
<time>2016-10-07T03:31:01Z</time></trkpt>
<trkpt lat="25.055978" lon="101.585299">
<time>2016-10-07T03:31:02Z</time></trkpt>
<trkpt lat="25.055918" lon="101.585139">
<time>2016-10-07T03:31:03Z</time></trkpt>
<trkpt lat="25.055847" lon="101.584999">
<time>2016-10-07T03:31:04Z</time></trkpt>
<trkpt lat="25.055767" lon="101.584859">
<time>2016-10-07T03:31:05Z</time></trkpt>
<trkpt lat="25.055617" lon="101.584629">
<time>2016-10-07T03:31:06Z</time></trkpt>
<trkpt lat="25.055567" lon="101.584539">
<time>2016-10-07T03:31:07Z</time></trkpt>
<trkpt lat="25.055527" lon="101.584468">
<time>2016-10-07T03:31:08Z</time></trkpt>
<trkpt lat="25.055477" lon="101.584378">
<time>2016-10-07T03:31:09Z</time></trkpt>
<trkpt lat="25.055457" lon="101.584328">
<time>2016-10-07T03:31:10Z</time></trkpt>
<trkpt lat="25.055437" lon="101.584268">
<time>2016-10-07T03:31:11Z</time></trkpt>
<trkpt lat="25.055427" lon="101.584228">
<time>2016-10-07T03:31:12Z</time></trkpt>
<trkpt lat="25.055407" lon="101.584158">
<time>2016-10-07T03:31:13Z</time></trkpt>
<trkpt lat="25.055407" lon="101.584088">
<time>2016-10-07T03:31:14Z</time></trkpt>
<trkpt lat="25.055397" lon="101.584028">
<time>2016-10-07T03:31:15Z</time></trkpt>
<trkpt lat="25.055407" lon="101.583968">
<time>2016-10-07T03:31:16Z</time></trkpt>
<trkpt lat="25.055417" lon="101.583828">
<time>2016-10-07T03:31:17Z</time></trkpt>
<trkpt lat="25.055477" lon="101.583538">
<time>2016-10-07T03:31:18Z</time></trkpt>
<trkpt lat="25.055546" lon="101.583138">
<time>2016-10-07T03:31:19Z</time></trkpt>
<trkpt lat="25.055576" lon="101.582917">
<time>2016-10-07T03:31:20Z</time></trkpt>
<trkpt lat="25.055596" lon="101.582727">
<time>2016-10-07T03:31:21Z</time></trkpt>
<trkpt lat="25.055606" lon="101.582567">
<time>2016-10-07T03:31:22Z</time></trkpt>
<trkpt lat="25.055596" lon="101.582387">
<time>2016-10-07T03:31:23Z</time></trkpt>
<trkpt lat="25.055576" lon="101.582177">
<time>2016-10-07T03:31:24Z</time></trkpt>
<trkpt lat="25.055546" lon="101.582017">
<time>2016-10-07T03:31:25Z</time></trkpt>
<trkpt lat="25.055506" lon="101.581847">
<time>2016-10-07T03:31:26Z</time></trkpt>
<trkpt lat="25.055436" lon="101.581597">
<time>2016-10-07T03:31:27Z</time></trkpt>
<trkpt lat="25.055225" lon="101.580886">
<time>2016-10-07T03:31:28Z</time></trkpt>
<trkpt lat="25.054985" lon="101.580115">
<time>2016-10-07T03:31:29Z</time></trkpt>
<trkpt lat="25.054985" lon="101.580115">
<time>2016-10-07T03:31:30Z</time></trkpt>
<trkpt lat="25.054984" lon="101.580025">
<time>2016-10-07T03:31:31Z</time></trkpt>
<trkpt lat="25.054944" lon="101.579865">
<time>2016-10-07T03:31:32Z</time></trkpt>
<trkpt lat="25.054864" lon="101.579655">
<time>2016-10-07T03:31:33Z</time></trkpt>
<trkpt lat="25.054794" lon="101.579485">
<time>2016-10-07T03:31:34Z</time></trkpt>
<trkpt lat="25.054724" lon="101.579355">
<time>2016-10-07T03:31:35Z</time></trkpt>
<trkpt lat="25.054604" lon="101.579175">
<time>2016-10-07T03:31:36Z</time></trkpt>
<trkpt lat="25.054534" lon="101.579085">
<time>2016-10-07T03:31:37Z</time></trkpt>
<trkpt lat="25.054464" lon="101.579014">
<time>2016-10-07T03:31:38Z</time></trkpt>
<trkpt lat="25.054384" lon="101.578944">
<time>2016-10-07T03:31:39Z</time></trkpt>
<trkpt lat="25.054284" lon="101.578864">
<time>2016-10-07T03:31:40Z</time></trkpt>
<trkpt lat="25.053873" lon="101.578574">
<time>2016-10-07T03:31:41Z</time></trkpt>
<trkpt lat="25.053563" lon="101.578354">
<time>2016-10-07T03:31:42Z</time></trkpt>
<trkpt lat="25.053273" lon="101.578094">
<time>2016-10-07T03:31:43Z</time></trkpt>
<trkpt lat="25.053223" lon="101.578034">
<time>2016-10-07T03:31:44Z</time></trkpt>
<trkpt lat="25.053213" lon="101.578034">
<time>2016-10-07T03:31:45Z</time></trkpt>
<trkpt lat="25.053133" lon="101.577934">
<time>2016-10-07T03:31:46Z</time></trkpt>
<trkpt lat="25.052953" lon="101.577693">
<time>2016-10-07T03:31:47Z</time></trkpt>
<trkpt lat="25.052863" lon="101.577513">
<time>2016-10-07T03:31:48Z</time></trkpt>
<trkpt lat="25.052793" lon="101.577343">
<time>2016-10-07T03:31:49Z</time></trkpt>
<trkpt lat="25.052712" lon="101.577133">
<time>2016-10-07T03:31:50Z</time></trkpt>
<trkpt lat="25.052662" lon="101.576943">
<time>2016-10-07T03:31:51Z</time></trkpt>
<trkpt lat="25.052622" lon="101.576702">
<time>2016-10-07T03:31:52Z</time></trkpt>
<trkpt lat="25.052602" lon="101.576492">
<time>2016-10-07T03:31:53Z</time></trkpt>
<trkpt lat="25.052602" lon="101.576202">
<time>2016-10-07T03:31:54Z</time></trkpt>
<trkpt lat="25.052651" lon="101.575892">
<time>2016-10-07T03:31:55Z</time></trkpt>
<trkpt lat="25.052691" lon="101.575641">
<time>2016-10-07T03:31:56Z</time></trkpt>
<trkpt lat="25.05282" lon="101.575041">
<time>2016-10-07T03:31:57Z</time></trkpt>
<trkpt lat="25.05286" lon="101.57484">
<time>2016-10-07T03:31:58Z</time></trkpt>
<trkpt lat="25.053079" lon="101.573819">
<time>2016-10-07T03:31:59Z</time></trkpt>
<trkpt lat="25.053149" lon="101.573479">
<time>2016-10-07T03:32:00Z</time></trkpt>
<trkpt lat="25.053288" lon="101.572828">
<time>2016-10-07T03:32:01Z</time></trkpt>
<trkpt lat="25.054104" lon="101.569043">
<time>2016-10-07T03:32:02Z</time></trkpt>
<trkpt lat="25.05478" lon="101.565889">
<time>2016-10-07T03:32:03Z</time></trkpt>
<trkpt lat="25.05479" lon="101.565829">
<time>2016-10-07T03:32:04Z</time></trkpt>
<trkpt lat="25.054899" lon="101.565298">
<time>2016-10-07T03:32:05Z</time></trkpt>
<trkpt lat="25.054978" lon="101.564918">
<time>2016-10-07T03:32:06Z</time></trkpt>
<trkpt lat="25.054998" lon="101.564627">
<time>2016-10-07T03:32:07Z</time></trkpt>
<trkpt lat="25.055027" lon="101.564176">
<time>2016-10-07T03:32:08Z</time></trkpt>
<trkpt lat="25.055027" lon="101.563856">
<time>2016-10-07T03:32:09Z</time></trkpt>
<trkpt lat="25.054986" lon="101.563465">
<time>2016-10-07T03:32:10Z</time></trkpt>
<trkpt lat="25.054916" lon="101.563015">
<time>2016-10-07T03:32:11Z</time></trkpt>
<trkpt lat="25.054835" lon="101.562624">
<time>2016-10-07T03:32:12Z</time></trkpt>
<trkpt lat="25.054825" lon="101.562614">
<time>2016-10-07T03:32:13Z</time></trkpt>
<trkpt lat="25.054674" lon="101.562163">
<time>2016-10-07T03:32:14Z</time></trkpt>
<trkpt lat="25.054494" lon="101.561742">
<time>2016-10-07T03:32:15Z</time></trkpt>
<trkpt lat="25.054363" lon="101.561472">
<time>2016-10-07T03:32:16Z</time></trkpt>
<trkpt lat="25.054213" lon="101.561212">
<time>2016-10-07T03:32:17Z</time></trkpt>
<trkpt lat="25.053822" lon="101.560641">
<time>2016-10-07T03:32:18Z</time></trkpt>
<trkpt lat="25.053662" lon="101.56042">
<time>2016-10-07T03:32:19Z</time></trkpt>
<trkpt lat="25.053572" lon="101.56029">
<time>2016-10-07T03:32:20Z</time></trkpt>
<trkpt lat="25.053521" lon="101.56021">
<time>2016-10-07T03:32:21Z</time></trkpt>
<trkpt lat="25.053481" lon="101.56014">
<time>2016-10-07T03:32:22Z</time></trkpt>
<trkpt lat="25.053471" lon="101.56011">
<time>2016-10-07T03:32:23Z</time></trkpt>
<trkpt lat="25.053451" lon="101.56007">
<time>2016-10-07T03:32:24Z</time></trkpt>
<trkpt lat="25.052939" lon="101.558817">
<time>2016-10-07T03:32:25Z</time></trkpt>
<trkpt lat="25.052769" lon="101.558367">
<time>2016-10-07T03:32:26Z</time></trkpt>
<trkpt lat="25.052658" lon="101.558106">
<time>2016-10-07T03:32:27Z</time></trkpt>
<trkpt lat="25.052317" lon="101.557204">
<time>2016-10-07T03:32:28Z</time></trkpt>
<trkpt lat="25.051764" lon="101.555782">
<time>2016-10-07T03:32:29Z</time></trkpt>
<trkpt lat="25.051764" lon="101.555782">
<time>2016-10-07T03:32:30Z</time></trkpt>
<trkpt lat="25.052443" lon="101.555441">
<time>2016-10-07T03:32:31Z</time></trkpt>
<trkpt lat="25.052483" lon="101.555431">
<time>2016-10-07T03:32:32Z</time></trkpt>
<trkpt lat="25.052483" lon="101.555431">
<time>2016-10-07T03:32:33Z</time></trkpt>
<trkpt lat="25.05232" lon="101.553668">
<time>2016-10-07T03:32:34Z</time></trkpt>
<trkpt lat="25.05231" lon="101.553527">
<time>2016-10-07T03:32:35Z</time></trkpt>
<trkpt lat="25.052147" lon="101.551974">
<time>2016-10-07T03:32:36Z</time></trkpt>
<trkpt lat="25.052066" lon="101.551283">
<time>2016-10-07T03:32:37Z</time></trkpt>
<trkpt lat="25.052025" lon="101.550932">
<time>2016-10-07T03:32:38Z</time></trkpt>
<trkpt lat="25.051974" lon="101.550331">
<time>2016-10-07T03:32:39Z</time></trkpt>
<trkpt lat="25.051974" lon="101.550271">
<time>2016-10-07T03:32:40Z</time></trkpt>
<trkpt lat="25.051943" lon="101.55002">
<time>2016-10-07T03:32:41Z</time></trkpt>
<trkpt lat="25.051923" lon="101.549719">
<time>2016-10-07T03:32:42Z</time></trkpt>
<trkpt lat="25.05179" lon="101.548607">
<time>2016-10-07T03:32:43Z</time></trkpt>
<trkpt lat="25.05176" lon="101.548286">
<time>2016-10-07T03:32:44Z</time></trkpt>
<trkpt lat="25.051668" lon="101.547464">
<time>2016-10-07T03:32:45Z</time></trkpt>
<trkpt lat="25.051597" lon="101.546863">
<time>2016-10-07T03:32:46Z</time></trkpt>
<trkpt lat="25.051546" lon="101.546332">
<time>2016-10-07T03:32:47Z</time></trkpt>
<trkpt lat="25.051434" lon="101.54537">
<time>2016-10-07T03:32:48Z</time></trkpt>
<trkpt lat="25.051393" lon="101.544929">
<time>2016-10-07T03:32:49Z</time></trkpt>
<trkpt lat="25.051229" lon="101.543395">
<time>2016-10-07T03:32:50Z</time></trkpt>
<trkpt lat="25.051219" lon="101.543335">
<time>2016-10-07T03:32:51Z</time></trkpt>
<trkpt lat="25.051066" lon="101.541931">
<time>2016-10-07T03:32:52Z</time></trkpt>
<trkpt lat="25.051046" lon="101.541711">
<time>2016-10-07T03:32:53Z</time></trkpt>
<trkpt lat="25.051046" lon="101.541701">
<time>2016-10-07T03:32:54Z</time></trkpt>
<trkpt lat="25.050882" lon="101.540257">
<time>2016-10-07T03:32:55Z</time></trkpt>
<trkpt lat="25.050882" lon="101.540247">
<time>2016-10-07T03:32:56Z</time></trkpt>
<trkpt lat="25.050872" lon="101.540127">
<time>2016-10-07T03:32:57Z</time></trkpt>
<trkpt lat="25.050811" lon="101.539596">
<time>2016-10-07T03:32:58Z</time></trkpt>
<trkpt lat="25.050811" lon="101.539586">
<time>2016-10-07T03:32:59Z</time></trkpt>
<trkpt lat="25.050709" lon="101.538663">
<time>2016-10-07T03:33:00Z</time></trkpt>
<trkpt lat="25.050709" lon="101.538653">
<time>2016-10-07T03:33:01Z</time></trkpt>
<trkpt lat="25.050698" lon="101.538533">
<time>2016-10-07T03:33:02Z</time></trkpt>
<trkpt lat="25.050596" lon="101.53754">
<time>2016-10-07T03:33:03Z</time></trkpt>
<trkpt lat="25.050524" lon="101.536899">
<time>2016-10-07T03:33:04Z</time></trkpt>
<trkpt lat="25.050422" lon="101.535916">
<time>2016-10-07T03:33:05Z</time></trkpt>
<trkpt lat="25.05033" lon="101.535124">
<time>2016-10-07T03:33:06Z</time></trkpt>
<trkpt lat="25.050197" lon="101.534011">
<time>2016-10-07T03:33:07Z</time></trkpt>
<trkpt lat="25.050126" lon="101.533449">
<time>2016-10-07T03:33:08Z</time></trkpt>
<trkpt lat="25.050034" lon="101.532587">
<time>2016-10-07T03:33:09Z</time></trkpt>
<trkpt lat="25.049983" lon="101.532116">
<time>2016-10-07T03:33:10Z</time></trkpt>
<trkpt lat="25.049941" lon="101.531675">
<time>2016-10-07T03:33:11Z</time></trkpt>
<trkpt lat="25.049819" lon="101.530612">
<time>2016-10-07T03:33:12Z</time></trkpt>
<trkpt lat="25.049798" lon="101.530441">
<time>2016-10-07T03:33:13Z</time></trkpt>
<trkpt lat="25.049777" lon="101.53009">
<time>2016-10-07T03:33:14Z</time></trkpt>
<trkpt lat="25.049736" lon="101.529639">
<time>2016-10-07T03:33:15Z</time></trkpt>
<trkpt lat="25.049715" lon="101.529318">
<time>2016-10-07T03:33:16Z</time></trkpt>
<trkpt lat="25.049725" lon="101.529097">
<time>2016-10-07T03:33:17Z</time></trkpt>
<trkpt lat="25.049753" lon="101.528526">
<time>2016-10-07T03:33:18Z</time></trkpt>
<trkpt lat="25.049753" lon="101.528506">
<time>2016-10-07T03:33:19Z</time></trkpt>
<trkpt lat="25.049821" lon="101.527824">
<time>2016-10-07T03:33:20Z</time></trkpt>
<trkpt lat="25.04991" lon="101.527272">
<time>2016-10-07T03:33:21Z</time></trkpt>
<trkpt lat="25.050018" lon="101.526731">
<time>2016-10-07T03:33:22Z</time></trkpt>
<trkpt lat="25.050187" lon="101.526119">
<time>2016-10-07T03:33:23Z</time></trkpt>
<trkpt lat="25.050306" lon="101.525768">
<time>2016-10-07T03:33:24Z</time></trkpt>
<trkpt lat="25.050336" lon="101.525678">
<time>2016-10-07T03:33:25Z</time></trkpt>
<trkpt lat="25.050465" lon="101.525327">
<time>2016-10-07T03:33:26Z</time></trkpt>
<trkpt lat="25.050683" lon="101.524825">
<time>2016-10-07T03:33:27Z</time></trkpt>
<trkpt lat="25.050852" lon="101.524424">
<time>2016-10-07T03:33:28Z</time></trkpt>
<trkpt lat="25.051439" lon="101.52322">
<time>2016-10-07T03:33:29Z</time></trkpt>
<trkpt lat="25.051648" lon="101.522789">
<time>2016-10-07T03:33:30Z</time></trkpt>
<trkpt lat="25.052035" lon="101.521997">
<time>2016-10-07T03:33:31Z</time></trkpt>
<trkpt lat="25.052562" lon="101.520913">
<time>2016-10-07T03:33:32Z</time></trkpt>
<trkpt lat="25.05296" lon="101.520091">
<time>2016-10-07T03:33:33Z</time></trkpt>
<trkpt lat="25.053169" lon="101.51969">
<time>2016-10-07T03:33:34Z</time></trkpt>
<trkpt lat="25.054372" lon="101.517272">
<time>2016-10-07T03:33:35Z</time></trkpt>
<trkpt lat="25.054431" lon="101.517152">
<time>2016-10-07T03:33:36Z</time></trkpt>
<trkpt lat="25.05471" lon="101.5166">
<time>2016-10-07T03:33:37Z</time></trkpt>
<trkpt lat="25.054948" lon="101.516119">
<time>2016-10-07T03:33:38Z</time></trkpt>
<trkpt lat="25.055207" lon="101.515577">
<time>2016-10-07T03:33:39Z</time></trkpt>
<trkpt lat="25.055217" lon="101.515537">
<time>2016-10-07T03:33:40Z</time></trkpt>
<trkpt lat="25.055316" lon="101.515296">
<time>2016-10-07T03:33:41Z</time></trkpt>
<trkpt lat="25.055395" lon="101.515055">
<time>2016-10-07T03:33:42Z</time></trkpt>
<trkpt lat="25.055455" lon="101.514815">
<time>2016-10-07T03:33:43Z</time></trkpt>
<trkpt lat="25.055464" lon="101.514704">
<time>2016-10-07T03:33:44Z</time></trkpt>
<trkpt lat="25.055494" lon="101.514514">
<time>2016-10-07T03:33:45Z</time></trkpt>
<trkpt lat="25.055483" lon="101.514223">
<time>2016-10-07T03:33:46Z</time></trkpt>
<trkpt lat="25.055432" lon="101.513962">
<time>2016-10-07T03:33:47Z</time></trkpt>
<trkpt lat="25.0553" lon="101.51323">
<time>2016-10-07T03:33:48Z</time></trkpt>
<trkpt lat="25.055249" lon="101.512959">
<time>2016-10-07T03:33:49Z</time></trkpt>
<trkpt lat="25.055168" lon="101.512588">
<time>2016-10-07T03:33:50Z</time></trkpt>
<trkpt lat="25.055168" lon="101.512588">
<time>2016-10-07T03:33:51Z</time></trkpt>
<trkpt lat="25.055158" lon="101.512537">
<time>2016-10-07T03:33:52Z</time></trkpt>
<trkpt lat="25.055138" lon="101.512477">
<time>2016-10-07T03:33:53Z</time></trkpt>
<trkpt lat="25.055108" lon="101.512397">
<time>2016-10-07T03:33:54Z</time></trkpt>
<trkpt lat="25.055046" lon="101.512026">
<time>2016-10-07T03:33:55Z</time></trkpt>
<trkpt lat="25.054996" lon="101.511765">
<time>2016-10-07T03:33:56Z</time></trkpt>
<trkpt lat="25.054935" lon="101.511404">
<time>2016-10-07T03:33:57Z</time></trkpt>
<trkpt lat="25.054884" lon="101.511173">
<time>2016-10-07T03:33:58Z</time></trkpt>
<trkpt lat="25.054783" lon="101.510702">
<time>2016-10-07T03:33:59Z</time></trkpt>
<trkpt lat="25.054691" lon="101.51028">
<time>2016-10-07T03:34:00Z</time></trkpt>
<trkpt lat="25.054661" lon="101.51014">
<time>2016-10-07T03:34:01Z</time></trkpt>
<trkpt lat="25.05462" lon="101.509889">
<time>2016-10-07T03:34:02Z</time></trkpt>
<trkpt lat="25.0546" lon="101.509769">
<time>2016-10-07T03:34:03Z</time></trkpt>
<trkpt lat="25.054569" lon="101.509538">
<time>2016-10-07T03:34:04Z</time></trkpt>
<trkpt lat="25.054559" lon="101.509478">
<time>2016-10-07T03:34:05Z</time></trkpt>
<trkpt lat="25.054548" lon="101.509297">
<time>2016-10-07T03:34:06Z</time></trkpt>
<trkpt lat="25.054528" lon="101.508996">
<time>2016-10-07T03:34:07Z</time></trkpt>
<trkpt lat="25.054527" lon="101.508665">
<time>2016-10-07T03:34:08Z</time></trkpt>
<trkpt lat="25.054546" lon="101.508374">
<time>2016-10-07T03:34:09Z</time></trkpt>
<trkpt lat="25.054575" lon="101.508114">
<time>2016-10-07T03:34:10Z</time></trkpt>
<trkpt lat="25.054604" lon="101.507953">
<time>2016-10-07T03:34:11Z</time></trkpt>
<trkpt lat="25.054654" lon="101.507712">
<time>2016-10-07T03:34:12Z</time></trkpt>
<trkpt lat="25.054733" lon="101.507411">
<time>2016-10-07T03:34:13Z</time></trkpt>
<trkpt lat="25.054782" lon="101.507231">
<time>2016-10-07T03:34:14Z</time></trkpt>
<trkpt lat="25.054971" lon="101.506699">
<time>2016-10-07T03:34:15Z</time></trkpt>
<trkpt lat="25.055268" lon="101.505967">
<time>2016-10-07T03:34:16Z</time></trkpt>
<trkpt lat="25.055368" lon="101.505716">
<time>2016-10-07T03:34:17Z</time></trkpt>
<trkpt lat="25.055368" lon="101.505696">
<time>2016-10-07T03:34:18Z</time></trkpt>
<trkpt lat="25.055417" lon="101.505585">
<time>2016-10-07T03:34:19Z</time></trkpt>
<trkpt lat="25.055626" lon="101.505034">
<time>2016-10-07T03:34:20Z</time></trkpt>
<trkpt lat="25.055636" lon="101.505024">
<time>2016-10-07T03:34:21Z</time></trkpt>
<trkpt lat="25.055655" lon="101.504963">
<time>2016-10-07T03:34:22Z</time></trkpt>
<trkpt lat="25.055794" lon="101.504612">
<time>2016-10-07T03:34:23Z</time></trkpt>
<trkpt lat="25.055824" lon="101.504522">
<time>2016-10-07T03:34:24Z</time></trkpt>
<trkpt lat="25.055854" lon="101.504452">
<time>2016-10-07T03:34:25Z</time></trkpt>
<trkpt lat="25.056231" lon="101.503509">
<time>2016-10-07T03:34:26Z</time></trkpt>
<trkpt lat="25.05635" lon="101.503188">
<time>2016-10-07T03:34:27Z</time></trkpt>
<trkpt lat="25.0564" lon="101.503067">
<time>2016-10-07T03:34:28Z</time></trkpt>
<trkpt lat="25.056549" lon="101.502736">
<time>2016-10-07T03:34:29Z</time></trkpt>
<trkpt lat="25.056598" lon="101.502626">
<time>2016-10-07T03:34:30Z</time></trkpt>
<trkpt lat="25.056728" lon="101.502385">
<time>2016-10-07T03:34:31Z</time></trkpt>
<trkpt lat="25.056867" lon="101.502154">
<time>2016-10-07T03:34:32Z</time></trkpt>
<trkpt lat="25.057066" lon="101.501874">
<time>2016-10-07T03:34:33Z</time></trkpt>
<trkpt lat="25.057285" lon="101.501593">
<time>2016-10-07T03:34:34Z</time></trkpt>
<trkpt lat="25.057524" lon="101.501342">
<time>2016-10-07T03:34:35Z</time></trkpt>
<trkpt lat="25.057724" lon="101.501151">
<time>2016-10-07T03:34:36Z</time></trkpt>
<trkpt lat="25.057923" lon="101.500981">
<time>2016-10-07T03:34:37Z</time></trkpt>
<trkpt lat="25.058163" lon="101.5008">
<time>2016-10-07T03:34:38Z</time></trkpt>
<trkpt lat="25.058532" lon="101.500509">
<time>2016-10-07T03:34:39Z</time></trkpt>
<trkpt lat="25.05918" lon="101.500028">
<time>2016-10-07T03:34:40Z</time></trkpt>
<trkpt lat="25.0593" lon="101.499927">
<time>2016-10-07T03:34:41Z</time></trkpt>
<trkpt lat="25.059978" lon="101.499375">
<time>2016-10-07T03:34:42Z</time></trkpt>
<trkpt lat="25.060457" lon="101.498984">
<time>2016-10-07T03:34:43Z</time></trkpt>
<trkpt lat="25.060656" lon="101.498824">
<time>2016-10-07T03:34:44Z</time></trkpt>
<trkpt lat="25.061065" lon="101.498483">
<time>2016-10-07T03:34:45Z</time></trkpt>
<trkpt lat="25.061195" lon="101.498332">
<time>2016-10-07T03:34:46Z</time></trkpt>
<trkpt lat="25.061504" lon="101.497971">
<time>2016-10-07T03:34:47Z</time></trkpt>
<trkpt lat="25.062032" lon="101.497218">
<time>2016-10-07T03:34:48Z</time></trkpt>
<trkpt lat="25.062071" lon="101.497148">
<time>2016-10-07T03:34:49Z</time></trkpt>
<trkpt lat="25.062191" lon="101.496958">
<time>2016-10-07T03:34:50Z</time></trkpt>
<trkpt lat="25.06236" lon="101.496667">
<time>2016-10-07T03:34:51Z</time></trkpt>
<trkpt lat="25.062808" lon="101.495954">
<time>2016-10-07T03:34:52Z</time></trkpt>
<trkpt lat="25.063395" lon="101.495062">
<time>2016-10-07T03:34:53Z</time></trkpt>
<trkpt lat="25.063554" lon="101.494851">
<time>2016-10-07T03:34:54Z</time></trkpt>
<trkpt lat="25.063704" lon="101.49465">
<time>2016-10-07T03:34:55Z</time></trkpt>
<trkpt lat="25.063863" lon="101.49444">
<time>2016-10-07T03:34:56Z</time></trkpt>
<trkpt lat="25.064281" lon="101.493918">
<time>2016-10-07T03:34:57Z</time></trkpt>
<trkpt lat="25.064361" lon="101.493818">
<time>2016-10-07T03:34:58Z</time></trkpt>
<trkpt lat="25.06475" lon="101.493386">
<time>2016-10-07T03:34:59Z</time></trkpt>
<trkpt lat="25.064859" lon="101.493266">
<time>2016-10-07T03:35:00Z</time></trkpt>
<trkpt lat="25.064949" lon="101.493165">
<time>2016-10-07T03:35:01Z</time></trkpt>
<trkpt lat="25.065647" lon="101.492453">
<time>2016-10-07T03:35:02Z</time></trkpt>
<trkpt lat="25.066355" lon="101.491731">
<time>2016-10-07T03:35:03Z</time></trkpt>
<trkpt lat="25.066713" lon="101.491309">
<time>2016-10-07T03:35:04Z</time></trkpt>
<trkpt lat="25.066733" lon="101.491279">
<time>2016-10-07T03:35:05Z</time></trkpt>
<trkpt lat="25.066962" lon="101.490998">
<time>2016-10-07T03:35:06Z</time></trkpt>
<trkpt lat="25.067162" lon="101.490798">
<time>2016-10-07T03:35:07Z</time></trkpt>
<trkpt lat="25.067331" lon="101.490607">
<time>2016-10-07T03:35:08Z</time></trkpt>
<trkpt lat="25.068268" lon="101.489654">
<time>2016-10-07T03:35:09Z</time></trkpt>
<trkpt lat="25.068727" lon="101.489193">
<time>2016-10-07T03:35:10Z</time></trkpt>
<trkpt lat="25.069614" lon="101.488169">
<time>2016-10-07T03:35:11Z</time></trkpt>
<trkpt lat="25.069932" lon="101.487788">
<time>2016-10-07T03:35:12Z</time></trkpt>
<trkpt lat="25.069992" lon="101.487708">
<time>2016-10-07T03:35:13Z</time></trkpt>
<trkpt lat="25.070321" lon="101.487287">
<time>2016-10-07T03:35:14Z</time></trkpt>
<trkpt lat="25.07048" lon="101.487076">
<time>2016-10-07T03:35:15Z</time></trkpt>
<trkpt lat="25.070889" lon="101.486534">
<time>2016-10-07T03:35:16Z</time></trkpt>
<trkpt lat="25.072253" lon="101.484709">
<time>2016-10-07T03:35:17Z</time></trkpt>
<trkpt lat="25.072721" lon="101.484087">
<time>2016-10-07T03:35:18Z</time></trkpt>
<trkpt lat="25.073677" lon="101.482793">
<time>2016-10-07T03:35:19Z</time></trkpt>
<trkpt lat="25.073986" lon="101.482301">
<time>2016-10-07T03:35:20Z</time></trkpt>
<trkpt lat="25.074155" lon="101.48201">
<time>2016-10-07T03:35:21Z</time></trkpt>
<trkpt lat="25.074324" lon="101.481729">
<time>2016-10-07T03:35:22Z</time></trkpt>
<trkpt lat="25.074394" lon="101.481599">
<time>2016-10-07T03:35:23Z</time></trkpt>
<trkpt lat="25.074483" lon="101.481428">
<time>2016-10-07T03:35:24Z</time></trkpt>
<trkpt lat="25.074553" lon="101.481318">
<time>2016-10-07T03:35:25Z</time></trkpt>
<trkpt lat="25.07512" lon="101.480295">
<time>2016-10-07T03:35:26Z</time></trkpt>
<trkpt lat="25.075668" lon="101.479442">
<time>2016-10-07T03:35:27Z</time></trkpt>
<trkpt lat="25.075886" lon="101.479071">
<time>2016-10-07T03:35:28Z</time></trkpt>
<trkpt lat="25.076285" lon="101.478399">
<time>2016-10-07T03:35:29Z</time></trkpt>
<trkpt lat="25.076414" lon="101.478169">
<time>2016-10-07T03:35:30Z</time></trkpt>
<trkpt lat="25.076872" lon="101.477386">
<time>2016-10-07T03:35:31Z</time></trkpt>
<trkpt lat="25.077559" lon="101.476423">
<time>2016-10-07T03:35:32Z</time></trkpt>
<trkpt lat="25.078774" lon="101.474899">
<time>2016-10-07T03:35:33Z</time></trkpt>
<trkpt lat="25.079223" lon="101.474287">
<time>2016-10-07T03:35:34Z</time></trkpt>
<trkpt lat="25.079272" lon="101.474197">
<time>2016-10-07T03:35:35Z</time></trkpt>
<trkpt lat="25.079282" lon="101.474167">
<time>2016-10-07T03:35:36Z</time></trkpt>
<trkpt lat="25.07974" lon="101.473314">
<time>2016-10-07T03:35:37Z</time></trkpt>
<trkpt lat="25.080078" lon="101.472602">
<time>2016-10-07T03:35:38Z</time></trkpt>
<trkpt lat="25.080098" lon="101.472542">
<time>2016-10-07T03:35:39Z</time></trkpt>
<trkpt lat="25.080516" lon="101.47174">
<time>2016-10-07T03:35:40Z</time></trkpt>
<trkpt lat="25.080983" lon="101.470817">
<time>2016-10-07T03:35:41Z</time></trkpt>
<trkpt lat="25.081023" lon="101.470727">
<time>2016-10-07T03:35:42Z</time></trkpt>
<trkpt lat="25.081122" lon="101.470496">
<time>2016-10-07T03:35:43Z</time></trkpt>
<trkpt lat="25.081361" lon="101.470015">
<time>2016-10-07T03:35:44Z</time></trkpt>
<trkpt lat="25.08153" lon="101.469694">
<time>2016-10-07T03:35:45Z</time></trkpt>
<trkpt lat="25.081699" lon="101.469403">
<time>2016-10-07T03:35:46Z</time></trkpt>
<trkpt lat="25.081749" lon="101.469323">
<time>2016-10-07T03:35:47Z</time></trkpt>
<trkpt lat="25.081769" lon="101.469283">
<time>2016-10-07T03:35:48Z</time></trkpt>
<trkpt lat="25.081809" lon="101.469182">
<time>2016-10-07T03:35:49Z</time></trkpt>
<trkpt lat="25.082226" lon="101.46834">
<time>2016-10-07T03:35:50Z</time></trkpt>
<trkpt lat="25.082644" lon="101.467528">
<time>2016-10-07T03:35:51Z</time></trkpt>
<trkpt lat="25.082972" lon="101.466896">
<time>2016-10-07T03:35:52Z</time></trkpt>
<trkpt lat="25.083231" lon="101.466375">
<time>2016-10-07T03:35:53Z</time></trkpt>
<trkpt lat="25.08336" lon="101.466094">
<time>2016-10-07T03:35:54Z</time></trkpt>
<trkpt lat="25.083748" lon="101.465292">
<time>2016-10-07T03:35:55Z</time></trkpt>
<trkpt lat="25.084295" lon="101.464189">
<time>2016-10-07T03:35:56Z</time></trkpt>
<trkpt lat="25.084614" lon="101.463547">
<time>2016-10-07T03:35:57Z</time></trkpt>
<trkpt lat="25.084823" lon="101.463116">
<time>2016-10-07T03:35:58Z</time></trkpt>
<trkpt lat="25.085071" lon="101.462615">
<time>2016-10-07T03:35:59Z</time></trkpt>
<trkpt lat="25.08521" lon="101.462264">
<time>2016-10-07T03:36:00Z</time></trkpt>
<trkpt lat="25.08531" lon="101.461953">
<time>2016-10-07T03:36:01Z</time></trkpt>
<trkpt lat="25.085429" lon="101.461542">
<time>2016-10-07T03:36:02Z</time></trkpt>
<trkpt lat="25.085637" lon="101.46083">
<time>2016-10-07T03:36:03Z</time></trkpt>
<trkpt lat="25.085786" lon="101.460359">
<time>2016-10-07T03:36:04Z</time></trkpt>
<trkpt lat="25.085825" lon="101.460188">
<time>2016-10-07T03:36:05Z</time></trkpt>
<trkpt lat="25.085865" lon="101.460028">
<time>2016-10-07T03:36:06Z</time></trkpt>
<trkpt lat="25.085884" lon="101.459878">
<time>2016-10-07T03:36:07Z</time></trkpt>
<trkpt lat="25.085904" lon="101.459727">
<time>2016-10-07T03:36:08Z</time></trkpt>
<trkpt lat="25.085924" lon="101.459637">
<time>2016-10-07T03:36:09Z</time></trkpt>
<trkpt lat="25.085934" lon="101.459487">
<time>2016-10-07T03:36:10Z</time></trkpt>
<trkpt lat="25.085943" lon="101.459296">
<time>2016-10-07T03:36:11Z</time></trkpt>
<trkpt lat="25.085943" lon="101.459106">
<time>2016-10-07T03:36:12Z</time></trkpt>
<trkpt lat="25.085932" lon="101.458785">
<time>2016-10-07T03:36:13Z</time></trkpt>
<trkpt lat="25.085931" lon="101.458514">
<time>2016-10-07T03:36:14Z</time></trkpt>
<trkpt lat="25.085931" lon="101.458454">
<time>2016-10-07T03:36:15Z</time></trkpt>
<trkpt lat="25.085931" lon="101.458414">
<time>2016-10-07T03:36:16Z</time></trkpt>
<trkpt lat="25.085931" lon="101.458374">
<time>2016-10-07T03:36:17Z</time></trkpt>
<trkpt lat="25.085941" lon="101.458334">
<time>2016-10-07T03:36:18Z</time></trkpt>
<trkpt lat="25.085951" lon="101.458294">
<time>2016-10-07T03:36:19Z</time></trkpt>
<trkpt lat="25.085951" lon="101.458274">
<time>2016-10-07T03:36:20Z</time></trkpt>
<trkpt lat="25.085961" lon="101.458243">
<time>2016-10-07T03:36:21Z</time></trkpt>
<trkpt lat="25.085971" lon="101.458213">
<time>2016-10-07T03:36:22Z</time></trkpt>
<trkpt lat="25.08598" lon="101.458193">
<time>2016-10-07T03:36:23Z</time></trkpt>
<trkpt lat="25.08599" lon="101.458173">
<time>2016-10-07T03:36:24Z</time></trkpt>
<trkpt lat="25.08601" lon="101.458153">
<time>2016-10-07T03:36:25Z</time></trkpt>
<trkpt lat="25.08602" lon="101.458143">
<time>2016-10-07T03:36:26Z</time></trkpt>
<trkpt lat="25.08604" lon="101.458123">
<time>2016-10-07T03:36:27Z</time></trkpt>
<trkpt lat="25.08606" lon="101.458113">
<time>2016-10-07T03:36:28Z</time></trkpt>
<trkpt lat="25.08608" lon="101.458093">
<time>2016-10-07T03:36:29Z</time></trkpt>
<trkpt lat="25.08613" lon="101.458063">
<time>2016-10-07T03:36:30Z</time></trkpt>
<trkpt lat="25.08621" lon="101.458023">
<time>2016-10-07T03:36:31Z</time></trkpt>
<trkpt lat="25.08634" lon="101.457973">
<time>2016-10-07T03:36:32Z</time></trkpt>
<trkpt lat="25.08648" lon="101.457933">
<time>2016-10-07T03:36:33Z</time></trkpt>
<trkpt lat="25.08661" lon="101.457903">
<time>2016-10-07T03:36:34Z</time></trkpt>
<trkpt lat="25.08673" lon="101.457893">
<time>2016-10-07T03:36:35Z</time></trkpt>
<trkpt lat="25.08686" lon="101.457883">
<time>2016-10-07T03:36:36Z</time></trkpt>
<trkpt lat="25.087" lon="101.457883">
<time>2016-10-07T03:36:37Z</time></trkpt>
<trkpt lat="25.08712" lon="101.457893">
<time>2016-10-07T03:36:38Z</time></trkpt>
<trkpt lat="25.08725" lon="101.457873">
<time>2016-10-07T03:36:39Z</time></trkpt>
<trkpt lat="25.08734" lon="101.457852">
<time>2016-10-07T03:36:40Z</time></trkpt>
<trkpt lat="25.087439" lon="101.457812">
<time>2016-10-07T03:36:41Z</time></trkpt>
<trkpt lat="25.087519" lon="101.457752">
<time>2016-10-07T03:36:42Z</time></trkpt>
<trkpt lat="25.087609" lon="101.457662">
<time>2016-10-07T03:36:43Z</time></trkpt>
<trkpt lat="25.087669" lon="101.457562">
<time>2016-10-07T03:36:44Z</time></trkpt>
<trkpt lat="25.087719" lon="101.457472">
<time>2016-10-07T03:36:45Z</time></trkpt>
<trkpt lat="25.087758" lon="101.457371">
<time>2016-10-07T03:36:46Z</time></trkpt>
<trkpt lat="25.087788" lon="101.457271">
<time>2016-10-07T03:36:47Z</time></trkpt>
<trkpt lat="25.087808" lon="101.457221">
<time>2016-10-07T03:36:48Z</time></trkpt>
<trkpt lat="25.087858" lon="101.457091">
<time>2016-10-07T03:36:49Z</time></trkpt>
<trkpt lat="25.087927" lon="101.45689">
<time>2016-10-07T03:36:50Z</time></trkpt>
<trkpt lat="25.087977" lon="101.45677">
<time>2016-10-07T03:36:51Z</time></trkpt>
<trkpt lat="25.088047" lon="101.456619">
<time>2016-10-07T03:36:52Z</time></trkpt>
<trkpt lat="25.088096" lon="101.456509">
<time>2016-10-07T03:36:53Z</time></trkpt>
<trkpt lat="25.088186" lon="101.456369">
<time>2016-10-07T03:36:54Z</time></trkpt>
<trkpt lat="25.088286" lon="101.456219">
<time>2016-10-07T03:36:55Z</time></trkpt>
<trkpt lat="25.088465" lon="101.456038">
<time>2016-10-07T03:36:56Z</time></trkpt>
<trkpt lat="25.088834" lon="101.455667">
<time>2016-10-07T03:36:57Z</time></trkpt>
<trkpt lat="25.088854" lon="101.455657">
<time>2016-10-07T03:36:58Z</time></trkpt>
<trkpt lat="25.089373" lon="101.455136">
<time>2016-10-07T03:36:59Z</time></trkpt>
<trkpt lat="25.089852" lon="101.454645">
<time>2016-10-07T03:37:00Z</time></trkpt>
<trkpt lat="25.090141" lon="101.454344">
<time>2016-10-07T03:37:01Z</time></trkpt>
<trkpt lat="25.090351" lon="101.454124">
<time>2016-10-07T03:37:02Z</time></trkpt>
<trkpt lat="25.09046" lon="101.454013">
<time>2016-10-07T03:37:03Z</time></trkpt>
<trkpt lat="25.090919" lon="101.453542">
<time>2016-10-07T03:37:04Z</time></trkpt>
<trkpt lat="25.091099" lon="101.453362">
<time>2016-10-07T03:37:05Z</time></trkpt>
<trkpt lat="25.091249" lon="101.453201">
<time>2016-10-07T03:37:06Z</time></trkpt>
<trkpt lat="25.091568" lon="101.452851">
<time>2016-10-07T03:37:07Z</time></trkpt>
<trkpt lat="25.091618" lon="101.4528">
<time>2016-10-07T03:37:08Z</time></trkpt>
<trkpt lat="25.091957" lon="101.45238">
<time>2016-10-07T03:37:09Z</time></trkpt>
<trkpt lat="25.092256" lon="101.451969">
<time>2016-10-07T03:37:10Z</time></trkpt>
<trkpt lat="25.092904" lon="101.451207">
<time>2016-10-07T03:37:11Z</time></trkpt>
<trkpt lat="25.093173" lon="101.450906">
<time>2016-10-07T03:37:12Z</time></trkpt>
<trkpt lat="25.093233" lon="101.450836">
<time>2016-10-07T03:37:13Z</time></trkpt>
<trkpt lat="25.093702" lon="101.450295">
<time>2016-10-07T03:37:14Z</time></trkpt>
<trkpt lat="25.094231" lon="101.449643">
<time>2016-10-07T03:37:15Z</time></trkpt>
<trkpt lat="25.094271" lon="101.449613">
<time>2016-10-07T03:37:16Z</time></trkpt>
<trkpt lat="25.09444" lon="101.449413">
<time>2016-10-07T03:37:17Z</time></trkpt>
<trkpt lat="25.09452" lon="101.449323">
<time>2016-10-07T03:37:18Z</time></trkpt>
<trkpt lat="25.094799" lon="101.449012">
<time>2016-10-07T03:37:19Z</time></trkpt>
<trkpt lat="25.094909" lon="101.448872">
<time>2016-10-07T03:37:20Z</time></trkpt>
<trkpt lat="25.095009" lon="101.448722">
<time>2016-10-07T03:37:21Z</time></trkpt>
<trkpt lat="25.095048" lon="101.448611">
<time>2016-10-07T03:37:22Z</time></trkpt>
<trkpt lat="25.095068" lon="101.448531">
<time>2016-10-07T03:37:23Z</time></trkpt>
<trkpt lat="25.095078" lon="101.448401">
<time>2016-10-07T03:37:24Z</time></trkpt>
<trkpt lat="25.095068" lon="101.448271">
<time>2016-10-07T03:37:25Z</time></trkpt>
<trkpt lat="25.095017" lon="101.44802">
<time>2016-10-07T03:37:26Z</time></trkpt>
<trkpt lat="25.094957" lon="101.44776">
<time>2016-10-07T03:37:27Z</time></trkpt>
<trkpt lat="25.094906" lon="101.447519">
<time>2016-10-07T03:37:28Z</time></trkpt>
<trkpt lat="25.094886" lon="101.447419">
<time>2016-10-07T03:37:29Z</time></trkpt>
<trkpt lat="25.094866" lon="101.447329">
<time>2016-10-07T03:37:30Z</time></trkpt>
<trkpt lat="25.094835" lon="101.447128">
<time>2016-10-07T03:37:31Z</time></trkpt>
<trkpt lat="25.094815" lon="101.446978">
<time>2016-10-07T03:37:32Z</time></trkpt>
<trkpt lat="25.094805" lon="101.446858">
<time>2016-10-07T03:37:33Z</time></trkpt>
<trkpt lat="25.094794" lon="101.446667">
<time>2016-10-07T03:37:34Z</time></trkpt>
<trkpt lat="25.094794" lon="101.446407">
<time>2016-10-07T03:37:35Z</time></trkpt>
<trkpt lat="25.094804" lon="101.446166">
<time>2016-10-07T03:37:36Z</time></trkpt>
<trkpt lat="25.094813" lon="101.445766">
<time>2016-10-07T03:37:37Z</time></trkpt>
<trkpt lat="25.094812" lon="101.445475">
<time>2016-10-07T03:37:38Z</time></trkpt>
<trkpt lat="25.094802" lon="101.445255">
<time>2016-10-07T03:37:39Z</time></trkpt>
<trkpt lat="25.094761" lon="101.445034">
<time>2016-10-07T03:37:40Z</time></trkpt>
<trkpt lat="25.094691" lon="101.444814">
<time>2016-10-07T03:37:41Z</time></trkpt>
<trkpt lat="25.094621" lon="101.444673">
<time>2016-10-07T03:37:42Z</time></trkpt>
<trkpt lat="25.094601" lon="101.444633">
<time>2016-10-07T03:37:43Z</time></trkpt>
<trkpt lat="25.09452" lon="101.444493">
<time>2016-10-07T03:37:44Z</time></trkpt>
<trkpt lat="25.09446" lon="101.444363">
<time>2016-10-07T03:37:45Z</time></trkpt>
<trkpt lat="25.09441" lon="101.444243">
<time>2016-10-07T03:37:46Z</time></trkpt>
<trkpt lat="25.09438" lon="101.444162">
<time>2016-10-07T03:37:47Z</time></trkpt>
<trkpt lat="25.09437" lon="101.444102">
<time>2016-10-07T03:37:48Z</time></trkpt>
<trkpt lat="25.094369" lon="101.444032">
<time>2016-10-07T03:37:49Z</time></trkpt>
<trkpt lat="25.094379" lon="101.443962">
<time>2016-10-07T03:37:50Z</time></trkpt>
<trkpt lat="25.094399" lon="101.443872">
<time>2016-10-07T03:37:51Z</time></trkpt>
<trkpt lat="25.094429" lon="101.443782">
<time>2016-10-07T03:37:52Z</time></trkpt>
<trkpt lat="25.094528" lon="101.443531">
<time>2016-10-07T03:37:53Z</time></trkpt>
<trkpt lat="25.094638" lon="101.443221">
<time>2016-10-07T03:37:54Z</time></trkpt>
<trkpt lat="25.094658" lon="101.443161">
<time>2016-10-07T03:37:55Z</time></trkpt>
<trkpt lat="25.094727" lon="101.44293">
<time>2016-10-07T03:37:56Z</time></trkpt>
<trkpt lat="25.094797" lon="101.44268">
<time>2016-10-07T03:37:57Z</time></trkpt>
<trkpt lat="25.094936" lon="101.442119">
<time>2016-10-07T03:37:58Z</time></trkpt>
<trkpt lat="25.095035" lon="101.441728">
<time>2016-10-07T03:37:59Z</time></trkpt>
<trkpt lat="25.095075" lon="101.441578">
<time>2016-10-07T03:38:00Z</time></trkpt>
<trkpt lat="25.095164" lon="101.441287">
<time>2016-10-07T03:38:01Z</time></trkpt>
<trkpt lat="25.095254" lon="101.441047">
<time>2016-10-07T03:38:02Z</time></trkpt>
<trkpt lat="25.095364" lon="101.440836">
<time>2016-10-07T03:38:03Z</time></trkpt>
<trkpt lat="25.095443" lon="101.440666">
<time>2016-10-07T03:38:04Z</time></trkpt>
<trkpt lat="25.095583" lon="101.440406">
<time>2016-10-07T03:38:05Z</time></trkpt>
<trkpt lat="25.095682" lon="101.440175">
<time>2016-10-07T03:38:06Z</time></trkpt>
<trkpt lat="25.095772" lon="101.439945">
<time>2016-10-07T03:38:07Z</time></trkpt>
<trkpt lat="25.095891" lon="101.439554">
<time>2016-10-07T03:38:08Z</time></trkpt>
<trkpt lat="25.095981" lon="101.439264">
<time>2016-10-07T03:38:09Z</time></trkpt>
<trkpt lat="25.09607" lon="101.438973">
<time>2016-10-07T03:38:10Z</time></trkpt>
<trkpt lat="25.09616" lon="101.438693">
<time>2016-10-07T03:38:11Z</time></trkpt>
<trkpt lat="25.096249" lon="101.438422">
<time>2016-10-07T03:38:12Z</time></trkpt>
<trkpt lat="25.096309" lon="101.438242">
<time>2016-10-07T03:38:13Z</time></trkpt>
<trkpt lat="25.096379" lon="101.438072">
<time>2016-10-07T03:38:14Z</time></trkpt>
<trkpt lat="25.096448" lon="101.437891">
<time>2016-10-07T03:38:15Z</time></trkpt>
<trkpt lat="25.096528" lon="101.437741">
<time>2016-10-07T03:38:16Z</time></trkpt>
<trkpt lat="25.096628" lon="101.437591">
<time>2016-10-07T03:38:17Z</time></trkpt>
<trkpt lat="25.096768" lon="101.43737">
<time>2016-10-07T03:38:18Z</time></trkpt>
<trkpt lat="25.096927" lon="101.43714">
<time>2016-10-07T03:38:19Z</time></trkpt>
<trkpt lat="25.097197" lon="101.436779">
<time>2016-10-07T03:38:20Z</time></trkpt>
<trkpt lat="25.097366" lon="101.436549">
<time>2016-10-07T03:38:21Z</time></trkpt>
<trkpt lat="25.097486" lon="101.436379">
<time>2016-10-07T03:38:22Z</time></trkpt>
<trkpt lat="25.097636" lon="101.436179">
<time>2016-10-07T03:38:23Z</time></trkpt>
<trkpt lat="25.097785" lon="101.435968">
<time>2016-10-07T03:38:24Z</time></trkpt>
<trkpt lat="25.097935" lon="101.435778">
<time>2016-10-07T03:38:25Z</time></trkpt>
<trkpt lat="25.098125" lon="101.435538">
<time>2016-10-07T03:38:26Z</time></trkpt>
<trkpt lat="25.098164" lon="101.435477">
<time>2016-10-07T03:38:27Z</time></trkpt>
<trkpt lat="25.098244" lon="101.435377">
<time>2016-10-07T03:38:28Z</time></trkpt>
<trkpt lat="25.098554" lon="101.434937">
<time>2016-10-07T03:38:29Z</time></trkpt>
<trkpt lat="25.098663" lon="101.434766">
<time>2016-10-07T03:38:30Z</time></trkpt>
<trkpt lat="25.098723" lon="101.434636">
<time>2016-10-07T03:38:31Z</time></trkpt>
<trkpt lat="25.098763" lon="101.434546">
<time>2016-10-07T03:38:32Z</time></trkpt>
<trkpt lat="25.098773" lon="101.434506">
<time>2016-10-07T03:38:33Z</time></trkpt>
<trkpt lat="25.098823" lon="101.434366">
<time>2016-10-07T03:38:34Z</time></trkpt>
<trkpt lat="25.098852" lon="101.434226">
<time>2016-10-07T03:38:35Z</time></trkpt>
<trkpt lat="25.098892" lon="101.433995">
<time>2016-10-07T03:38:36Z</time></trkpt>
<trkpt lat="25.098902" lon="101.433915">
<time>2016-10-07T03:38:37Z</time></trkpt>
<trkpt lat="25.098932" lon="101.433695">
<time>2016-10-07T03:38:38Z</time></trkpt>
<trkpt lat="25.098961" lon="101.433495">
<time>2016-10-07T03:38:39Z</time></trkpt>
<trkpt lat="25.099011" lon="101.433234">
<time>2016-10-07T03:38:40Z</time></trkpt>
<trkpt lat="25.099051" lon="101.432944">
<time>2016-10-07T03:38:41Z</time></trkpt>
<trkpt lat="25.09909" lon="101.432673">
<time>2016-10-07T03:38:42Z</time></trkpt>
<trkpt lat="25.09913" lon="101.432413">
<time>2016-10-07T03:38:43Z</time></trkpt>
<trkpt lat="25.099179" lon="101.432113">
<time>2016-10-07T03:38:44Z</time></trkpt>
<trkpt lat="25.099229" lon="101.431832">
<time>2016-10-07T03:38:45Z</time></trkpt>
<trkpt lat="25.099279" lon="101.431512">
<time>2016-10-07T03:38:46Z</time></trkpt>
<trkpt lat="25.099318" lon="101.431271">
<time>2016-10-07T03:38:47Z</time></trkpt>
<trkpt lat="25.099358" lon="101.431011">
<time>2016-10-07T03:38:48Z</time></trkpt>
<trkpt lat="25.099388" lon="101.430901">
<time>2016-10-07T03:38:49Z</time></trkpt>
<trkpt lat="25.099408" lon="101.430811">
<time>2016-10-07T03:38:50Z</time></trkpt>
<trkpt lat="25.099447" lon="101.430721">
<time>2016-10-07T03:38:51Z</time></trkpt>
<trkpt lat="25.099517" lon="101.430611">
<time>2016-10-07T03:38:52Z</time></trkpt>
<trkpt lat="25.099607" lon="101.43049">
<time>2016-10-07T03:38:53Z</time></trkpt>
<trkpt lat="25.099787" lon="101.43031">
<time>2016-10-07T03:38:54Z</time></trkpt>
<trkpt lat="25.099997" lon="101.43012">
<time>2016-10-07T03:38:55Z</time></trkpt>
<trkpt lat="25.100386" lon="101.42976">
<time>2016-10-07T03:38:56Z</time></trkpt>
<trkpt lat="25.100516" lon="101.429639">
<time>2016-10-07T03:38:57Z</time></trkpt>
<trkpt lat="25.100816" lon="101.429369">
<time>2016-10-07T03:38:58Z</time></trkpt>
<trkpt lat="25.101185" lon="101.429029">
<time>2016-10-07T03:38:59Z</time></trkpt>
<trkpt lat="25.101555" lon="101.428688">
<time>2016-10-07T03:39:00Z</time></trkpt>
<trkpt lat="25.101854" lon="101.428398">
<time>2016-10-07T03:39:01Z</time></trkpt>
<trkpt lat="25.102064" lon="101.428208">
<time>2016-10-07T03:39:02Z</time></trkpt>
<trkpt lat="25.102304" lon="101.427997">
<time>2016-10-07T03:39:03Z</time></trkpt>
<trkpt lat="25.102603" lon="101.427707">
<time>2016-10-07T03:39:04Z</time></trkpt>
<trkpt lat="25.102733" lon="101.427587">
<time>2016-10-07T03:39:05Z</time></trkpt>
<trkpt lat="25.102873" lon="101.427457">
<time>2016-10-07T03:39:06Z</time></trkpt>
<trkpt lat="25.103043" lon="101.427277">
<time>2016-10-07T03:39:07Z</time></trkpt>
<trkpt lat="25.103203" lon="101.427086">
<time>2016-10-07T03:39:08Z</time></trkpt>
<trkpt lat="25.103382" lon="101.426846">
<time>2016-10-07T03:39:09Z</time></trkpt>
<trkpt lat="25.103512" lon="101.426656">
<time>2016-10-07T03:39:10Z</time></trkpt>
<trkpt lat="25.103582" lon="101.426556">
<time>2016-10-07T03:39:11Z</time></trkpt>
<trkpt lat="25.103702" lon="101.426386">
<time>2016-10-07T03:39:12Z</time></trkpt>
<trkpt lat="25.103762" lon="101.426305">
<time>2016-10-07T03:39:13Z</time></trkpt>
<trkpt lat="25.103841" lon="101.426185">
<time>2016-10-07T03:39:14Z</time></trkpt>
<trkpt lat="25.103911" lon="101.426085">
<time>2016-10-07T03:39:15Z</time></trkpt>
<trkpt lat="25.104011" lon="101.425945">
<time>2016-10-07T03:39:16Z</time></trkpt>
<trkpt lat="25.104101" lon="101.425825">
<time>2016-10-07T03:39:17Z</time></trkpt>
<trkpt lat="25.104181" lon="101.425745">
<time>2016-10-07T03:39:18Z</time></trkpt>
<trkpt lat="25.104271" lon="101.425655">
<time>2016-10-07T03:39:19Z</time></trkpt>
<trkpt lat="25.104351" lon="101.425585">
<time>2016-10-07T03:39:20Z</time></trkpt>
<trkpt lat="25.104481" lon="101.425495">
<time>2016-10-07T03:39:21Z</time></trkpt>
<trkpt lat="25.1046" lon="101.425424">
<time>2016-10-07T03:39:22Z</time></trkpt>
<trkpt lat="25.10471" lon="101.425374">
<time>2016-10-07T03:39:23Z</time></trkpt>
<trkpt lat="25.10485" lon="101.425314">
<time>2016-10-07T03:39:24Z</time></trkpt>
<trkpt lat="25.10499" lon="101.425254">
<time>2016-10-07T03:39:25Z</time></trkpt>
<trkpt lat="25.10519" lon="101.425174">
<time>2016-10-07T03:39:26Z</time></trkpt>
<trkpt lat="25.10537" lon="101.425094">
<time>2016-10-07T03:39:27Z</time></trkpt>
<trkpt lat="25.10561" lon="101.425004">
<time>2016-10-07T03:39:28Z</time></trkpt>
<trkpt lat="25.10579" lon="101.424924">
<time>2016-10-07T03:39:29Z</time></trkpt>
<trkpt lat="25.10597" lon="101.424844">
<time>2016-10-07T03:39:30Z</time></trkpt>
<trkpt lat="25.10623" lon="101.424734">
<time>2016-10-07T03:39:31Z</time></trkpt>
<trkpt lat="25.106419" lon="101.424644">
<time>2016-10-07T03:39:32Z</time></trkpt>
<trkpt lat="25.106559" lon="101.424574">
<time>2016-10-07T03:39:33Z</time></trkpt>
<trkpt lat="25.106769" lon="101.424493">
<time>2016-10-07T03:39:34Z</time></trkpt>
<trkpt lat="25.106959" lon="101.424423">
<time>2016-10-07T03:39:35Z</time></trkpt>
<trkpt lat="25.107189" lon="101.424323">
<time>2016-10-07T03:39:36Z</time></trkpt>
<trkpt lat="25.107309" lon="101.424273">
<time>2016-10-07T03:39:37Z</time></trkpt>
<trkpt lat="25.107449" lon="101.424193">
<time>2016-10-07T03:39:38Z</time></trkpt>
<trkpt lat="25.107579" lon="101.424103">
<time>2016-10-07T03:39:39Z</time></trkpt>
<trkpt lat="25.107759" lon="101.423943">
<time>2016-10-07T03:39:40Z</time></trkpt>
<trkpt lat="25.107908" lon="101.423813">
<time>2016-10-07T03:39:41Z</time></trkpt>
<trkpt lat="25.108038" lon="101.423693">
<time>2016-10-07T03:39:42Z</time></trkpt>
<trkpt lat="25.108188" lon="101.423563">
<time>2016-10-07T03:39:43Z</time></trkpt>
<trkpt lat="25.108368" lon="101.423412">
<time>2016-10-07T03:39:44Z</time></trkpt>
<trkpt lat="25.108488" lon="101.423292">
<time>2016-10-07T03:39:45Z</time></trkpt>
<trkpt lat="25.108588" lon="101.423202">
<time>2016-10-07T03:39:46Z</time></trkpt>
<trkpt lat="25.108728" lon="101.423052">
<time>2016-10-07T03:39:47Z</time></trkpt>
<trkpt lat="25.108807" lon="101.422942">
<time>2016-10-07T03:39:48Z</time></trkpt>
<trkpt lat="25.108917" lon="101.422772">
<time>2016-10-07T03:39:49Z</time></trkpt>
<trkpt lat="25.109007" lon="101.422582">
<time>2016-10-07T03:39:50Z</time></trkpt>
<trkpt lat="25.109107" lon="101.422261">
<time>2016-10-07T03:39:51Z</time></trkpt>
<trkpt lat="25.109256" lon="101.421791">
<time>2016-10-07T03:39:52Z</time></trkpt>
<trkpt lat="25.109376" lon="101.421421">
<time>2016-10-07T03:39:53Z</time></trkpt>
<trkpt lat="25.109456" lon="101.42116">
<time>2016-10-07T03:39:54Z</time></trkpt>
<trkpt lat="25.109575" lon="101.42081">
<time>2016-10-07T03:39:55Z</time></trkpt>
<trkpt lat="25.109715" lon="101.42041">
<time>2016-10-07T03:39:56Z</time></trkpt>
<trkpt lat="25.109875" lon="101.419989">
<time>2016-10-07T03:39:57Z</time></trkpt>
<trkpt lat="25.110004" lon="101.419619">
<time>2016-10-07T03:39:58Z</time></trkpt>
<trkpt lat="25.110064" lon="101.419439">
<time>2016-10-07T03:39:59Z</time></trkpt>
<trkpt lat="25.110114" lon="101.419259">
<time>2016-10-07T03:40:00Z</time></trkpt>
<trkpt lat="25.110134" lon="101.419099">
<time>2016-10-07T03:40:01Z</time></trkpt>
<trkpt lat="25.110134" lon="101.418919">
<time>2016-10-07T03:40:02Z</time></trkpt>
<trkpt lat="25.110114" lon="101.418779">
<time>2016-10-07T03:40:03Z</time></trkpt>
<trkpt lat="25.110073" lon="101.418528">
<time>2016-10-07T03:40:04Z</time></trkpt>
<trkpt lat="25.109923" lon="101.417978">
<time>2016-10-07T03:40:05Z</time></trkpt>
<trkpt lat="25.109893" lon="101.417868">
<time>2016-10-07T03:40:06Z</time></trkpt>
<trkpt lat="25.109833" lon="101.417688">
<time>2016-10-07T03:40:07Z</time></trkpt>
<trkpt lat="25.109752" lon="101.417378">
<time>2016-10-07T03:40:08Z</time></trkpt>
<trkpt lat="25.109712" lon="101.417218">
<time>2016-10-07T03:40:09Z</time></trkpt>
<trkpt lat="25.109682" lon="101.417067">
<time>2016-10-07T03:40:10Z</time></trkpt>
<trkpt lat="25.109672" lon="101.416947">
<time>2016-10-07T03:40:11Z</time></trkpt>
<trkpt lat="25.109682" lon="101.416807">
<time>2016-10-07T03:40:12Z</time></trkpt>
<trkpt lat="25.109732" lon="101.416667">
<time>2016-10-07T03:40:13Z</time></trkpt>
<trkpt lat="25.109802" lon="101.416517">
<time>2016-10-07T03:40:14Z</time></trkpt>
<trkpt lat="25.109922" lon="101.416307">
<time>2016-10-07T03:40:15Z</time></trkpt>
<trkpt lat="25.110181" lon="101.415887">
<time>2016-10-07T03:40:16Z</time></trkpt>
<trkpt lat="25.110371" lon="101.415597">
<time>2016-10-07T03:40:17Z</time></trkpt>
<trkpt lat="25.110511" lon="101.415386">
<time>2016-10-07T03:40:18Z</time></trkpt>
<trkpt lat="25.110641" lon="101.415166">
<time>2016-10-07T03:40:19Z</time></trkpt>
<trkpt lat="25.110761" lon="101.414956">
<time>2016-10-07T03:40:20Z</time></trkpt>
<trkpt lat="25.111" lon="101.414566">
<time>2016-10-07T03:40:21Z</time></trkpt>
<trkpt lat="25.11122" lon="101.414246">
<time>2016-10-07T03:40:22Z</time></trkpt>
<trkpt lat="25.11159" lon="101.413676">
<time>2016-10-07T03:40:23Z</time></trkpt>
<trkpt lat="25.11192" lon="101.413225">
<time>2016-10-07T03:40:24Z</time></trkpt>
<trkpt lat="25.112359" lon="101.412595">
<time>2016-10-07T03:40:25Z</time></trkpt>
<trkpt lat="25.112609" lon="101.412235">
<time>2016-10-07T03:40:26Z</time></trkpt>
<trkpt lat="25.112839" lon="101.411925">
<time>2016-10-07T03:40:27Z</time></trkpt>
<trkpt lat="25.113408" lon="101.411105">
<time>2016-10-07T03:40:28Z</time></trkpt>
<trkpt lat="25.113788" lon="101.410554">
<time>2016-10-07T03:40:29Z</time></trkpt>
<trkpt lat="25.113928" lon="101.410354">
<time>2016-10-07T03:40:30Z</time></trkpt>
<trkpt lat="25.114028" lon="101.410184">
<time>2016-10-07T03:40:31Z</time></trkpt>
<trkpt lat="25.114088" lon="101.410054">
<time>2016-10-07T03:40:32Z</time></trkpt>
<trkpt lat="25.114118" lon="101.409954">
<time>2016-10-07T03:40:33Z</time></trkpt>
<trkpt lat="25.114138" lon="101.409834">
<time>2016-10-07T03:40:34Z</time></trkpt>
<trkpt lat="25.114138" lon="101.409684">
<time>2016-10-07T03:40:35Z</time></trkpt>
<trkpt lat="25.114128" lon="101.409514">
<time>2016-10-07T03:40:36Z</time></trkpt>
<trkpt lat="25.114077" lon="101.409294">
<time>2016-10-07T03:40:37Z</time></trkpt>
<trkpt lat="25.113947" lon="101.408664">
<time>2016-10-07T03:40:38Z</time></trkpt>
<trkpt lat="25.113847" lon="101.408234">
<time>2016-10-07T03:40:39Z</time></trkpt>
<trkpt lat="25.113807" lon="101.408024">
<time>2016-10-07T03:40:40Z</time></trkpt>
<trkpt lat="25.113737" lon="101.407764">
<time>2016-10-07T03:40:41Z</time></trkpt>
<trkpt lat="25.113697" lon="101.407584">
<time>2016-10-07T03:40:42Z</time></trkpt>
<trkpt lat="25.113687" lon="101.407494">
<time>2016-10-07T03:40:43Z</time></trkpt>
<trkpt lat="25.113677" lon="101.407424">
<time>2016-10-07T03:40:44Z</time></trkpt>
<trkpt lat="25.113677" lon="101.407354">
<time>2016-10-07T03:40:45Z</time></trkpt>
<trkpt lat="25.113677" lon="101.407344">
<time>2016-10-07T03:40:46Z</time></trkpt>
<trkpt lat="25.113687" lon="101.407294">
<time>2016-10-07T03:40:47Z</time></trkpt>
<trkpt lat="25.113707" lon="101.407224">
<time>2016-10-07T03:40:48Z</time></trkpt>
<trkpt lat="25.113747" lon="101.407164">
<time>2016-10-07T03:40:49Z</time></trkpt>
<trkpt lat="25.113787" lon="101.407104">
<time>2016-10-07T03:40:50Z</time></trkpt>
<trkpt lat="25.113857" lon="101.407044">
<time>2016-10-07T03:40:51Z</time></trkpt>
<trkpt lat="25.113867" lon="101.407034">
<time>2016-10-07T03:40:52Z</time></trkpt>
<trkpt lat="25.113927" lon="101.406994">
<time>2016-10-07T03:40:53Z</time></trkpt>
<trkpt lat="25.114067" lon="101.406934">
<time>2016-10-07T03:40:54Z</time></trkpt>
<trkpt lat="25.114227" lon="101.406854">
<time>2016-10-07T03:40:55Z</time></trkpt>
<trkpt lat="25.114317" lon="101.406814">
<time>2016-10-07T03:40:56Z</time></trkpt>
<trkpt lat="25.114637" lon="101.406674">
<time>2016-10-07T03:40:57Z</time></trkpt>
<trkpt lat="25.114827" lon="101.406584">
<time>2016-10-07T03:40:58Z</time></trkpt>
<trkpt lat="25.114987" lon="101.406504">
<time>2016-10-07T03:40:59Z</time></trkpt>
<trkpt lat="25.115186" lon="101.406414">
<time>2016-10-07T03:41:00Z</time></trkpt>
<trkpt lat="25.115426" lon="101.406304">
<time>2016-10-07T03:41:01Z</time></trkpt>
<trkpt lat="25.115676" lon="101.406174">
<time>2016-10-07T03:41:02Z</time></trkpt>
<trkpt lat="25.115746" lon="101.406144">
<time>2016-10-07T03:41:03Z</time></trkpt>
<trkpt lat="25.115876" lon="101.406064">
<time>2016-10-07T03:41:04Z</time></trkpt>
<trkpt lat="25.115926" lon="101.406034">
<time>2016-10-07T03:41:05Z</time></trkpt>
<trkpt lat="25.115986" lon="101.405994">
<time>2016-10-07T03:41:06Z</time></trkpt>
<trkpt lat="25.116156" lon="101.405854">
<time>2016-10-07T03:41:07Z</time></trkpt>
<trkpt lat="25.116286" lon="101.405744">
<time>2016-10-07T03:41:08Z</time></trkpt>
<trkpt lat="25.116386" lon="101.405634">
<time>2016-10-07T03:41:09Z</time></trkpt>
<trkpt lat="25.116506" lon="101.405494">
<time>2016-10-07T03:41:10Z</time></trkpt>
<trkpt lat="25.116656" lon="101.405274">
<time>2016-10-07T03:41:11Z</time></trkpt>
<trkpt lat="25.116806" lon="101.405074">
<time>2016-10-07T03:41:12Z</time></trkpt>
<trkpt lat="25.116896" lon="101.404974">
<time>2016-10-07T03:41:13Z</time></trkpt>
<trkpt lat="25.116996" lon="101.404854">
<time>2016-10-07T03:41:14Z</time></trkpt>
<trkpt lat="25.117156" lon="101.404694">
<time>2016-10-07T03:41:15Z</time></trkpt>
<trkpt lat="25.117356" lon="101.404514">
<time>2016-10-07T03:41:16Z</time></trkpt>
<trkpt lat="25.118466" lon="101.403594">
<time>2016-10-07T03:41:17Z</time></trkpt>
<trkpt lat="25.118906" lon="101.403234">
<time>2016-10-07T03:41:18Z</time></trkpt>
<trkpt lat="25.119206" lon="101.402984">
<time>2016-10-07T03:41:19Z</time></trkpt>
<trkpt lat="25.119345" lon="101.402874">
<time>2016-10-07T03:41:20Z</time></trkpt>
<trkpt lat="25.119525" lon="101.402724">
<time>2016-10-07T03:41:21Z</time></trkpt>
<trkpt lat="25.119865" lon="101.402434">
<time>2016-10-07T03:41:22Z</time></trkpt>
<trkpt lat="25.120155" lon="101.402194">
<time>2016-10-07T03:41:23Z</time></trkpt>
<trkpt lat="25.120315" lon="101.402064">
<time>2016-10-07T03:41:24Z</time></trkpt>
<trkpt lat="25.120545" lon="101.401904">
<time>2016-10-07T03:41:25Z</time></trkpt>
<trkpt lat="25.120675" lon="101.401824">
<time>2016-10-07T03:41:26Z</time></trkpt>
<trkpt lat="25.120805" lon="101.401754">
<time>2016-10-07T03:41:27Z</time></trkpt>
<trkpt lat="25.120855" lon="101.401724">
<time>2016-10-07T03:41:28Z</time></trkpt>
<trkpt lat="25.121335" lon="101.401474">
<time>2016-10-07T03:41:29Z</time></trkpt>
<trkpt lat="25.122015" lon="101.401114">
<time>2016-10-07T03:41:30Z</time></trkpt>
<trkpt lat="25.122825" lon="101.400664">
<time>2016-10-07T03:41:31Z</time></trkpt>
<trkpt lat="25.123175" lon="101.400474">
<time>2016-10-07T03:41:32Z</time></trkpt>
<trkpt lat="25.123365" lon="101.400384">
<time>2016-10-07T03:41:33Z</time></trkpt>
<trkpt lat="25.123615" lon="101.400254">
<time>2016-10-07T03:41:34Z</time></trkpt>
<trkpt lat="25.123895" lon="101.400104">
<time>2016-10-07T03:41:35Z</time></trkpt>
<trkpt lat="25.124225" lon="101.399904">
<time>2016-10-07T03:41:36Z</time></trkpt>
<trkpt lat="25.124295" lon="101.399854">
<time>2016-10-07T03:41:37Z</time></trkpt>
<trkpt lat="25.124375" lon="101.399794">
<time>2016-10-07T03:41:38Z</time></trkpt>
<trkpt lat="25.124495" lon="101.399684">
<time>2016-10-07T03:41:39Z</time></trkpt>
<trkpt lat="25.124615" lon="101.399564">
<time>2016-10-07T03:41:40Z</time></trkpt>
<trkpt lat="25.124725" lon="101.399424">
<time>2016-10-07T03:41:41Z</time></trkpt>
<trkpt lat="25.124795" lon="101.399324">
<time>2016-10-07T03:41:42Z</time></trkpt>
<trkpt lat="25.124865" lon="101.399204">
<time>2016-10-07T03:41:43Z</time></trkpt>
<trkpt lat="25.124935" lon="101.399024">
<time>2016-10-07T03:41:44Z</time></trkpt>
<trkpt lat="25.125055" lon="101.398674">
<time>2016-10-07T03:41:45Z</time></trkpt>
<trkpt lat="25.125115" lon="101.398514">
<time>2016-10-07T03:41:46Z</time></trkpt>
<trkpt lat="25.125325" lon="101.397885">
<time>2016-10-07T03:41:47Z</time></trkpt>
<trkpt lat="25.125535" lon="101.397275">
<time>2016-10-07T03:41:48Z</time></trkpt>
<trkpt lat="25.125675" lon="101.396845">
<time>2016-10-07T03:41:49Z</time></trkpt>
<trkpt lat="25.125755" lon="101.396605">
<time>2016-10-07T03:41:50Z</time></trkpt>
<trkpt lat="25.125815" lon="101.396465">
<time>2016-10-07T03:41:51Z</time></trkpt>
<trkpt lat="25.125835" lon="101.396405">
<time>2016-10-07T03:41:52Z</time></trkpt>
<trkpt lat="25.125855" lon="101.396365">
<time>2016-10-07T03:41:53Z</time></trkpt>
<trkpt lat="25.125905" lon="101.396275">
<time>2016-10-07T03:41:54Z</time></trkpt>
<trkpt lat="25.125975" lon="101.396185">
<time>2016-10-07T03:41:55Z</time></trkpt>
<trkpt lat="25.126055" lon="101.396115">
<time>2016-10-07T03:41:56Z</time></trkpt>
<trkpt lat="25.126135" lon="101.396045">
<time>2016-10-07T03:41:57Z</time></trkpt>
<trkpt lat="25.126275" lon="101.395955">
<time>2016-10-07T03:41:58Z</time></trkpt>
<trkpt lat="25.126405" lon="101.395865">
<time>2016-10-07T03:41:59Z</time></trkpt>
<trkpt lat="25.126495" lon="101.395785">
<time>2016-10-07T03:42:00Z</time></trkpt>
<trkpt lat="25.126615" lon="101.395676">
<time>2016-10-07T03:42:01Z</time></trkpt>
<trkpt lat="25.126705" lon="101.395566">
<time>2016-10-07T03:42:02Z</time></trkpt>
<trkpt lat="25.126765" lon="101.395476">
<time>2016-10-07T03:42:03Z</time></trkpt>
<trkpt lat="25.126815" lon="101.395366">
<time>2016-10-07T03:42:04Z</time></trkpt>
<trkpt lat="25.126855" lon="101.395266">
<time>2016-10-07T03:42:05Z</time></trkpt>
<trkpt lat="25.126885" lon="101.395096">
<time>2016-10-07T03:42:06Z</time></trkpt>
<trkpt lat="25.126925" lon="101.394826">
<time>2016-10-07T03:42:07Z</time></trkpt>
<trkpt lat="25.126946" lon="101.394506">
<time>2016-10-07T03:42:08Z</time></trkpt>
<trkpt lat="25.126986" lon="101.394056">
<time>2016-10-07T03:42:09Z</time></trkpt>
<trkpt lat="25.126996" lon="101.393846">
<time>2016-10-07T03:42:10Z</time></trkpt>
<trkpt lat="25.126996" lon="101.393697">
<time>2016-10-07T03:42:11Z</time></trkpt>
<trkpt lat="25.126966" lon="101.393477">
<time>2016-10-07T03:42:12Z</time></trkpt>
<trkpt lat="25.126856" lon="101.392967">
<time>2016-10-07T03:42:13Z</time></trkpt>
<trkpt lat="25.126766" lon="101.392567">
<time>2016-10-07T03:42:14Z</time></trkpt>
<trkpt lat="25.126716" lon="101.392297">
<time>2016-10-07T03:42:15Z</time></trkpt>
<trkpt lat="25.126596" lon="101.391658">
<time>2016-10-07T03:42:16Z</time></trkpt>
<trkpt lat="25.126557" lon="101.391358">
<time>2016-10-07T03:42:17Z</time></trkpt>
<trkpt lat="25.126547" lon="101.391068">
<time>2016-10-07T03:42:18Z</time></trkpt>
<trkpt lat="25.126567" lon="101.390828">
<time>2016-10-07T03:42:19Z</time></trkpt>
<trkpt lat="25.126587" lon="101.390569">
<time>2016-10-07T03:42:20Z</time></trkpt>
<trkpt lat="25.126637" lon="101.390199">
<time>2016-10-07T03:42:21Z</time></trkpt>
<trkpt lat="25.126677" lon="101.390009">
<time>2016-10-07T03:42:22Z</time></trkpt>
<trkpt lat="25.126717" lon="101.389879">
<time>2016-10-07T03:42:23Z</time></trkpt>
<trkpt lat="25.126777" lon="101.389749">
<time>2016-10-07T03:42:24Z</time></trkpt>
<trkpt lat="25.126887" lon="101.389559">
<time>2016-10-07T03:42:25Z</time></trkpt>
<trkpt lat="25.127128" lon="101.3892">
<time>2016-10-07T03:42:26Z</time></trkpt>
<trkpt lat="25.127448" lon="101.38873">
<time>2016-10-07T03:42:27Z</time></trkpt>
<trkpt lat="25.127618" lon="101.38848">
<time>2016-10-07T03:42:28Z</time></trkpt>
<trkpt lat="25.128038" lon="101.387861">
<time>2016-10-07T03:42:29Z</time></trkpt>
<trkpt lat="25.128238" lon="101.387581">
<time>2016-10-07T03:42:30Z</time></trkpt>
<trkpt lat="25.128288" lon="101.387521">
<time>2016-10-07T03:42:31Z</time></trkpt>
<trkpt lat="25.128348" lon="101.387471">
<time>2016-10-07T03:42:32Z</time></trkpt>
<trkpt lat="25.128408" lon="101.387421">
<time>2016-10-07T03:42:33Z</time></trkpt>
<trkpt lat="25.128498" lon="101.387371">
<time>2016-10-07T03:42:34Z</time></trkpt>
<trkpt lat="25.128588" lon="101.387341">
<time>2016-10-07T03:42:35Z</time></trkpt>
<trkpt lat="25.128738" lon="101.387301">
<time>2016-10-07T03:42:36Z</time></trkpt>
<trkpt lat="25.128878" lon="101.387281">
<time>2016-10-07T03:42:37Z</time></trkpt>
<trkpt lat="25.129128" lon="101.387241">
<time>2016-10-07T03:42:38Z</time></trkpt>
<trkpt lat="25.129748" lon="101.387151">
<time>2016-10-07T03:42:39Z</time></trkpt>
<trkpt lat="25.130128" lon="101.387091">
<time>2016-10-07T03:42:40Z</time></trkpt>
<trkpt lat="25.130348" lon="101.387051">
<time>2016-10-07T03:42:41Z</time></trkpt>
<trkpt lat="25.130498" lon="101.387021">
<time>2016-10-07T03:42:42Z</time></trkpt>
<trkpt lat="25.130588" lon="101.386991">
<time>2016-10-07T03:42:43Z</time></trkpt>
<trkpt lat="25.130638" lon="101.386951">
<time>2016-10-07T03:42:44Z</time></trkpt>
<trkpt lat="25.130698" lon="101.386911">
<time>2016-10-07T03:42:45Z</time></trkpt>
<trkpt lat="25.130738" lon="101.386861">
<time>2016-10-07T03:42:46Z</time></trkpt>
<trkpt lat="25.130769" lon="101.386811">
<time>2016-10-07T03:42:47Z</time></trkpt>
<trkpt lat="25.130799" lon="101.386751">
<time>2016-10-07T03:42:48Z</time></trkpt>
<trkpt lat="25.130819" lon="101.386682">
<time>2016-10-07T03:42:49Z</time></trkpt>
<trkpt lat="25.130819" lon="101.386612">
<time>2016-10-07T03:42:50Z</time></trkpt>
<trkpt lat="25.130819" lon="101.386562">
<time>2016-10-07T03:42:51Z</time></trkpt>
<trkpt lat="25.130809" lon="101.386512">
<time>2016-10-07T03:42:52Z</time></trkpt>
<trkpt lat="25.130789" lon="101.386432">
<time>2016-10-07T03:42:53Z</time></trkpt>
<trkpt lat="25.130749" lon="101.386352">
<time>2016-10-07T03:42:54Z</time></trkpt>
<trkpt lat="25.130589" lon="101.386062">
<time>2016-10-07T03:42:55Z</time></trkpt>
<trkpt lat="25.130389" lon="101.385772">
<time>2016-10-07T03:42:56Z</time></trkpt>
<trkpt lat="25.130229" lon="101.385493">
<time>2016-10-07T03:42:57Z</time></trkpt>
<trkpt lat="25.130109" lon="101.385293">
<time>2016-10-07T03:42:58Z</time></trkpt>
<trkpt lat="25.12998" lon="101.385083">
<time>2016-10-07T03:42:59Z</time></trkpt>
<trkpt lat="25.12992" lon="101.385003">
<time>2016-10-07T03:43:00Z</time></trkpt>
<trkpt lat="25.12992" lon="101.385003">
<time>2016-10-07T03:43:01Z</time></trkpt>
<trkpt lat="25.13005" lon="101.384683">
<time>2016-10-07T03:43:02Z</time></trkpt>
<trkpt lat="25.13018" lon="101.384384">
<time>2016-10-07T03:43:03Z</time></trkpt>
<trkpt lat="25.13035" lon="101.384014">
<time>2016-10-07T03:43:04Z</time></trkpt>
<trkpt lat="25.130471" lon="101.383724">
<time>2016-10-07T03:43:05Z</time></trkpt>
<trkpt lat="25.130501" lon="101.383594">
<time>2016-10-07T03:43:06Z</time></trkpt>
<trkpt lat="25.130531" lon="101.383405">
<time>2016-10-07T03:43:07Z</time></trkpt>
<trkpt lat="25.130541" lon="101.383175">
<time>2016-10-07T03:43:08Z</time></trkpt>
<trkpt lat="25.130551" lon="101.382965">
<time>2016-10-07T03:43:09Z</time></trkpt>
<trkpt lat="25.130541" lon="101.382576">
<time>2016-10-07T03:43:10Z</time></trkpt>
<trkpt lat="25.130542" lon="101.382286">
<time>2016-10-07T03:43:11Z</time></trkpt>
<trkpt lat="25.130542" lon="101.382156">
<time>2016-10-07T03:43:12Z</time></trkpt>
<trkpt lat="25.130552" lon="101.382126">
<time>2016-10-07T03:43:13Z</time></trkpt>
<trkpt lat="25.130552" lon="101.382056">
<time>2016-10-07T03:43:14Z</time></trkpt>
<trkpt lat="25.130572" lon="101.381996">
<time>2016-10-07T03:43:15Z</time></trkpt>
<trkpt lat="25.130602" lon="101.381916">
<time>2016-10-07T03:43:16Z</time></trkpt>
<trkpt lat="25.130632" lon="101.381856">
<time>2016-10-07T03:43:17Z</time></trkpt>
<trkpt lat="25.130712" lon="101.381756">
<time>2016-10-07T03:43:18Z</time></trkpt>
<trkpt lat="25.130782" lon="101.381667">
<time>2016-10-07T03:43:19Z</time></trkpt>
<trkpt lat="25.130952" lon="101.381507">
<time>2016-10-07T03:43:20Z</time></trkpt>
<trkpt lat="25.131122" lon="101.381347">
<time>2016-10-07T03:43:21Z</time></trkpt>
<trkpt lat="25.131252" lon="101.381227">
<time>2016-10-07T03:43:22Z</time></trkpt>
<trkpt lat="25.131312" lon="101.381157">
<time>2016-10-07T03:43:23Z</time></trkpt>
<trkpt lat="25.131382" lon="101.381087">
<time>2016-10-07T03:43:24Z</time></trkpt>
<trkpt lat="25.131422" lon="101.381027">
<time>2016-10-07T03:43:25Z</time></trkpt>
<trkpt lat="25.131452" lon="101.380987">
<time>2016-10-07T03:43:26Z</time></trkpt>
<trkpt lat="25.131523" lon="101.380887">
<time>2016-10-07T03:43:27Z</time></trkpt>
<trkpt lat="25.131613" lon="101.380768">
<time>2016-10-07T03:43:28Z</time></trkpt>
<trkpt lat="25.131823" lon="101.380458">
<time>2016-10-07T03:43:29Z</time></trkpt>
<trkpt lat="25.131993" lon="101.380178">
<time>2016-10-07T03:43:30Z</time></trkpt>
<trkpt lat="25.132093" lon="101.380038">
<time>2016-10-07T03:43:31Z</time></trkpt>
<trkpt lat="25.132213" lon="101.379879">
<time>2016-10-07T03:43:32Z</time></trkpt>
<trkpt lat="25.132434" lon="101.379569">
<time>2016-10-07T03:43:33Z</time></trkpt>
<trkpt lat="25.132504" lon="101.379489">
<time>2016-10-07T03:43:34Z</time></trkpt>
<trkpt lat="25.132544" lon="101.379449">
<time>2016-10-07T03:43:35Z</time></trkpt>
<trkpt lat="25.132614" lon="101.379389">
<time>2016-10-07T03:43:36Z</time></trkpt>
<trkpt lat="25.132674" lon="101.379349">
<time>2016-10-07T03:43:37Z</time></trkpt>
<trkpt lat="25.132744" lon="101.379309">
<time>2016-10-07T03:43:38Z</time></trkpt>
<trkpt lat="25.132794" lon="101.379289">
<time>2016-10-07T03:43:39Z</time></trkpt>
<trkpt lat="25.133044" lon="101.379229">
<time>2016-10-07T03:43:40Z</time></trkpt>
<trkpt lat="25.133304" lon="101.379189">
<time>2016-10-07T03:43:41Z</time></trkpt>
<trkpt lat="25.133614" lon="101.379119">
<time>2016-10-07T03:43:42Z</time></trkpt>
<trkpt lat="25.133654" lon="101.379109">
<time>2016-10-07T03:43:43Z</time></trkpt>
<trkpt lat="25.134084" lon="101.37901">
<time>2016-10-07T03:43:44Z</time></trkpt>
<trkpt lat="25.134164" lon="101.37899">
<time>2016-10-07T03:43:45Z</time></trkpt>
<trkpt lat="25.134354" lon="101.37895">
<time>2016-10-07T03:43:46Z</time></trkpt>
<trkpt lat="25.134614" lon="101.37891">
<time>2016-10-07T03:43:47Z</time></trkpt>
<trkpt lat="25.134874" lon="101.37886">
<time>2016-10-07T03:43:48Z</time></trkpt>
<trkpt lat="25.135054" lon="101.37881">
<time>2016-10-07T03:43:49Z</time></trkpt>
<trkpt lat="25.135164" lon="101.37878">
<time>2016-10-07T03:43:50Z</time></trkpt>
<trkpt lat="25.135244" lon="101.37876">
<time>2016-10-07T03:43:51Z</time></trkpt>
<trkpt lat="25.135364" lon="101.37871">
<time>2016-10-07T03:43:52Z</time></trkpt>
<trkpt lat="25.135474" lon="101.37866">
<time>2016-10-07T03:43:53Z</time></trkpt>
<trkpt lat="25.135574" lon="101.37859">
<time>2016-10-07T03:43:54Z</time></trkpt>
<trkpt lat="25.135704" lon="101.37848">
<time>2016-10-07T03:43:55Z</time></trkpt>
<trkpt lat="25.135814" lon="101.37839">
<time>2016-10-07T03:43:56Z</time></trkpt>
<trkpt lat="25.136305" lon="101.378021">
<time>2016-10-07T03:43:57Z</time></trkpt>
<trkpt lat="25.136625" lon="101.377741">
<time>2016-10-07T03:43:58Z</time></trkpt>
<trkpt lat="25.136825" lon="101.377511">
<time>2016-10-07T03:43:59Z</time></trkpt>
<trkpt lat="25.137025" lon="101.377262">
<time>2016-10-07T03:44:00Z</time></trkpt>
<trkpt lat="25.137326" lon="101.376792">
<time>2016-10-07T03:44:01Z</time></trkpt>
<trkpt lat="25.137436" lon="101.376563">
<time>2016-10-07T03:44:02Z</time></trkpt>
<trkpt lat="25.137556" lon="101.376253">
<time>2016-10-07T03:44:03Z</time></trkpt>
<trkpt lat="25.137667" lon="101.375933">
<time>2016-10-07T03:44:04Z</time></trkpt>
<trkpt lat="25.137787" lon="101.375614">
<time>2016-10-07T03:44:05Z</time></trkpt>
<trkpt lat="25.137887" lon="101.375354">
<time>2016-10-07T03:44:06Z</time></trkpt>
<trkpt lat="25.137967" lon="101.375105">
<time>2016-10-07T03:44:07Z</time></trkpt>
<trkpt lat="25.137997" lon="101.375015">
<time>2016-10-07T03:44:08Z</time></trkpt>
<trkpt lat="25.138058" lon="101.374875">
<time>2016-10-07T03:44:09Z</time></trkpt>
<trkpt lat="25.138118" lon="101.374735">
<time>2016-10-07T03:44:10Z</time></trkpt>
<trkpt lat="25.138188" lon="101.374635">
<time>2016-10-07T03:44:11Z</time></trkpt>
<trkpt lat="25.138268" lon="101.374575">
<time>2016-10-07T03:44:12Z</time></trkpt>
<trkpt lat="25.138358" lon="101.374555">
<time>2016-10-07T03:44:13Z</time></trkpt>
<trkpt lat="25.138438" lon="101.374555">
<time>2016-10-07T03:44:14Z</time></trkpt>
<trkpt lat="25.138528" lon="101.374585">
<time>2016-10-07T03:44:15Z</time></trkpt>
<trkpt lat="25.138618" lon="101.374645">
<time>2016-10-07T03:44:16Z</time></trkpt>
<trkpt lat="25.138718" lon="101.374755">
<time>2016-10-07T03:44:17Z</time></trkpt>
<trkpt lat="25.138808" lon="101.374855">
<time>2016-10-07T03:44:18Z</time></trkpt>
<trkpt lat="25.138838" lon="101.374905">
<time>2016-10-07T03:44:19Z</time></trkpt>
<trkpt lat="25.138917" lon="101.375015">
<time>2016-10-07T03:44:20Z</time></trkpt>
<trkpt lat="25.138997" lon="101.375184">
<time>2016-10-07T03:44:21Z</time></trkpt>
<trkpt lat="25.139007" lon="101.375234">
<time>2016-10-07T03:44:22Z</time></trkpt>
<trkpt lat="25.139007" lon="101.375274">
<time>2016-10-07T03:44:23Z</time></trkpt>
<trkpt lat="25.139007" lon="101.375314">
<time>2016-10-07T03:44:24Z</time></trkpt>
<trkpt lat="25.138997" lon="101.375364">
<time>2016-10-07T03:44:25Z</time></trkpt>
<trkpt lat="25.138967" lon="101.375444">
<time>2016-10-07T03:44:26Z</time></trkpt>
<trkpt lat="25.138927" lon="101.375514">
<time>2016-10-07T03:44:27Z</time></trkpt>
<trkpt lat="25.138787" lon="101.375724">
<time>2016-10-07T03:44:28Z</time></trkpt>
<trkpt lat="25.138677" lon="101.375933">
<time>2016-10-07T03:44:29Z</time></trkpt>
<trkpt lat="25.138616" lon="101.376133">
<time>2016-10-07T03:44:30Z</time></trkpt>
<trkpt lat="25.138556" lon="101.376423">
<time>2016-10-07T03:44:31Z</time></trkpt>
<trkpt lat="25.138546" lon="101.376583">
<time>2016-10-07T03:44:32Z</time></trkpt>
<trkpt lat="25.138536" lon="101.376662">
<time>2016-10-07T03:44:33Z</time></trkpt>
<trkpt lat="25.138546" lon="101.376742">
<time>2016-10-07T03:44:34Z</time></trkpt>
<trkpt lat="25.138576" lon="101.376822">
<time>2016-10-07T03:44:35Z</time></trkpt>
<trkpt lat="25.138616" lon="101.376892">
<time>2016-10-07T03:44:36Z</time></trkpt>
<trkpt lat="25.138656" lon="101.376952">
<time>2016-10-07T03:44:37Z</time></trkpt>
<trkpt lat="25.138706" lon="101.376992">
<time>2016-10-07T03:44:38Z</time></trkpt>
<trkpt lat="25.138775" lon="101.377042">
<time>2016-10-07T03:44:39Z</time></trkpt>
<trkpt lat="25.138865" lon="101.377082">
<time>2016-10-07T03:44:40Z</time></trkpt>
<trkpt lat="25.139085" lon="101.377112">
<time>2016-10-07T03:44:41Z</time></trkpt>
<trkpt lat="25.139245" lon="101.377102">
<time>2016-10-07T03:44:42Z</time></trkpt>
<trkpt lat="25.139395" lon="101.377062">
<time>2016-10-07T03:44:43Z</time></trkpt>
<trkpt lat="25.139595" lon="101.377012">
<time>2016-10-07T03:44:44Z</time></trkpt>
<trkpt lat="25.140066" lon="101.376872">
<time>2016-10-07T03:44:45Z</time></trkpt>
<trkpt lat="25.140976" lon="101.376542">
<time>2016-10-07T03:44:46Z</time></trkpt>
<trkpt lat="25.141126" lon="101.376493">
<time>2016-10-07T03:44:47Z</time></trkpt>
<trkpt lat="25.141286" lon="101.376443">
<time>2016-10-07T03:44:48Z</time></trkpt>
<trkpt lat="25.141456" lon="101.376393">
<time>2016-10-07T03:44:49Z</time></trkpt>
<trkpt lat="25.141616" lon="101.376343">
<time>2016-10-07T03:44:50Z</time></trkpt>
<trkpt lat="25.141786" lon="101.376293">
<time>2016-10-07T03:44:51Z</time></trkpt>
<trkpt lat="25.141966" lon="101.376253">
<time>2016-10-07T03:44:52Z</time></trkpt>
<trkpt lat="25.142146" lon="101.376213">
<time>2016-10-07T03:44:53Z</time></trkpt>
<trkpt lat="25.142326" lon="101.376163">
<time>2016-10-07T03:44:54Z</time></trkpt>
<trkpt lat="25.142496" lon="101.376113">
<time>2016-10-07T03:44:55Z</time></trkpt>
<trkpt lat="25.142656" lon="101.376043">
<time>2016-10-07T03:44:56Z</time></trkpt>
<trkpt lat="25.142806" lon="101.375973">
<time>2016-10-07T03:44:57Z</time></trkpt>
<trkpt lat="25.142946" lon="101.375883">
<time>2016-10-07T03:44:58Z</time></trkpt>
<trkpt lat="25.143076" lon="101.375803">
<time>2016-10-07T03:44:59Z</time></trkpt>
<trkpt lat="25.143196" lon="101.375724">
<time>2016-10-07T03:45:00Z</time></trkpt>
<trkpt lat="25.143317" lon="101.375634">
<time>2016-10-07T03:45:01Z</time></trkpt>
<trkpt lat="25.143457" lon="101.375534">
<time>2016-10-07T03:45:02Z</time></trkpt>
<trkpt lat="25.143647" lon="101.375354">
<time>2016-10-07T03:45:03Z</time></trkpt>
<trkpt lat="25.143767" lon="101.375214">
<time>2016-10-07T03:45:04Z</time></trkpt>
<trkpt lat="25.143857" lon="101.375114">
<time>2016-10-07T03:45:05Z</time></trkpt>
<trkpt lat="25.143957" lon="101.375024">
<time>2016-10-07T03:45:06Z</time></trkpt>
<trkpt lat="25.143967" lon="101.375014">
<time>2016-10-07T03:45:07Z</time></trkpt>
<trkpt lat="25.144047" lon="101.374985">
<time>2016-10-07T03:45:08Z</time></trkpt>
<trkpt lat="25.144097" lon="101.374965">
<time>2016-10-07T03:45:09Z</time></trkpt>
<trkpt lat="25.144117" lon="101.374955">
<time>2016-10-07T03:45:10Z</time></trkpt>
<trkpt lat="25.144117" lon="101.374955">
<time>2016-10-07T03:45:11Z</time></trkpt>
<trkpt lat="25.143828" lon="101.374355">
<time>2016-10-07T03:45:12Z</time></trkpt>
<trkpt lat="25.143648" lon="101.373886">
<time>2016-10-07T03:45:13Z</time></trkpt>
<trkpt lat="25.143648" lon="101.373886">
<time>2016-10-07T03:45:14Z</time></trkpt>
<trkpt lat="25.143748" lon="101.373836">
<time>2016-10-07T03:45:15Z</time></trkpt>
<trkpt lat="25.143959" lon="101.373656">
<time>2016-10-07T03:45:16Z</time></trkpt>
<trkpt lat="25.143989" lon="101.373626">
<time>2016-10-07T03:45:17Z</time></trkpt>
<trkpt lat="25.143989" lon="101.373596">
<time>2016-10-07T03:45:18Z</time></trkpt>
<trkpt lat="25.143989" lon="101.373567">
<time>2016-10-07T03:45:19Z</time></trkpt>
<trkpt lat="25.143919" lon="101.373417">
<time>2016-10-07T03:45:20Z</time></trkpt>
<trkpt lat="25.143899" lon="101.373317">
<time>2016-10-07T03:45:21Z</time></trkpt>
<trkpt lat="25.143889" lon="101.373257">
<time>2016-10-07T03:45:22Z</time></trkpt>
<trkpt lat="25.143899" lon="101.373017">
<time>2016-10-07T03:45:23Z</time></trkpt>
<trkpt lat="25.143899" lon="101.372828">
<time>2016-10-07T03:45:24Z</time></trkpt>
<trkpt lat="25.143899" lon="101.372798">
<time>2016-10-07T03:45:25Z</time></trkpt>
<trkpt lat="25.14388" lon="101.372648">
<time>2016-10-07T03:45:26Z</time></trkpt>
<trkpt lat="25.14378" lon="101.372458">
<time>2016-10-07T03:45:27Z</time></trkpt>
<trkpt lat="25.14366" lon="101.372238">
<time>2016-10-07T03:45:28Z</time></trkpt>
<trkpt lat="25.14361" lon="101.372099">
<time>2016-10-07T03:45:29Z</time></trkpt>
<trkpt lat="25.14361" lon="101.371889">
<time>2016-10-07T03:45:30Z</time></trkpt>
<trkpt lat="25.143621" lon="101.371739">
<time>2016-10-07T03:45:31Z</time></trkpt>
<trkpt lat="25.143661" lon="101.371569">
<time>2016-10-07T03:45:32Z</time></trkpt>
<trkpt lat="25.143791" lon="101.37126">
<time>2016-10-07T03:45:33Z</time></trkpt>
<trkpt lat="25.143831" lon="101.3712">
<time>2016-10-07T03:45:34Z</time></trkpt>
<trkpt lat="25.143841" lon="101.37118">
<time>2016-10-07T03:45:35Z</time></trkpt>
<trkpt lat="25.143861" lon="101.37114">
<time>2016-10-07T03:45:36Z</time></trkpt>
<trkpt lat="25.143881" lon="101.37109">
<time>2016-10-07T03:45:37Z</time></trkpt>
<trkpt lat="25.143901" lon="101.37102">
<time>2016-10-07T03:45:38Z</time></trkpt>
<trkpt lat="25.143911" lon="101.37099">
<time>2016-10-07T03:45:39Z</time></trkpt>
<trkpt lat="25.143911" lon="101.37099">
<time>2016-10-07T03:45:40Z</time></trkpt>
<trkpt lat="25.144091" lon="101.37116">
<time>2016-10-07T03:45:41Z</time></trkpt>
<trkpt lat="25.144231" lon="101.371669">
<time>2016-10-07T03:45:42Z</time></trkpt>
<trkpt lat="25.1443" lon="101.371969">
<time>2016-10-07T03:45:43Z</time></trkpt>
<trkpt lat="25.14446" lon="101.372228">
<time>2016-10-07T03:45:44Z</time></trkpt>
<trkpt lat="25.14469" lon="101.372608">
<time>2016-10-07T03:45:45Z</time></trkpt>
<trkpt lat="25.14489" lon="101.372638">
<time>2016-10-07T03:45:46Z</time></trkpt>
<trkpt lat="25.14596" lon="101.372059">
<time>2016-10-07T03:45:47Z</time></trkpt>
<trkpt lat="25.14646" lon="101.371779">
<time>2016-10-07T03:45:48Z</time></trkpt>
<trkpt lat="25.14654" lon="101.371739">
<time>2016-10-07T03:45:49Z</time></trkpt>
<trkpt lat="25.146871" lon="101.37146">
<time>2016-10-07T03:45:50Z</time></trkpt>
<trkpt lat="25.146931" lon="101.37141">
<time>2016-10-07T03:45:51Z</time></trkpt>
<trkpt lat="25.147591" lon="101.37101">
<time>2016-10-07T03:45:52Z</time></trkpt>
<trkpt lat="25.148092" lon="101.370601">
<time>2016-10-07T03:45:53Z</time></trkpt>
<trkpt lat="25.148582" lon="101.370341">
<time>2016-10-07T03:45:54Z</time></trkpt>
<trkpt lat="25.148862" lon="101.370611">
<time>2016-10-07T03:45:55Z</time></trkpt>
<trkpt lat="25.149302" lon="101.370681">
<time>2016-10-07T03:45:56Z</time></trkpt>
<trkpt lat="25.149302" lon="101.370681">
<time>2016-10-07T03:45:57Z</time></trkpt>
<trkpt lat="25.149322" lon="101.370511">
<time>2016-10-07T03:45:58Z</time></trkpt>
<trkpt lat="25.149322" lon="101.370361">
<time>2016-10-07T03:45:59Z</time></trkpt>
<trkpt lat="25.149312" lon="101.370191">
<time>2016-10-07T03:46:00Z</time></trkpt>
<trkpt lat="25.149352" lon="101.369912">
<time>2016-10-07T03:46:01Z</time></trkpt>
<trkpt lat="25.149443" lon="101.369522">
<time>2016-10-07T03:46:02Z</time></trkpt>
<trkpt lat="25.149614" lon="101.368754">
<time>2016-10-07T03:46:03Z</time></trkpt>
<trkpt lat="25.149755" lon="101.368035">
<time>2016-10-07T03:46:04Z</time></trkpt>
<trkpt lat="25.149745" lon="101.367725">
<time>2016-10-07T03:46:05Z</time></trkpt>
<trkpt lat="25.149705" lon="101.367496">
<time>2016-10-07T03:46:06Z</time></trkpt>
<trkpt lat="25.149606" lon="101.367236">
<time>2016-10-07T03:46:07Z</time></trkpt>
<trkpt lat="25.149466" lon="101.366917">
<time>2016-10-07T03:46:08Z</time></trkpt>
<trkpt lat="25.149426" lon="101.366797">
<time>2016-10-07T03:46:09Z</time></trkpt>
<trkpt lat="25.149436" lon="101.366737">
<time>2016-10-07T03:46:10Z</time></trkpt>
<trkpt lat="25.149456" lon="101.366677">
<time>2016-10-07T03:46:11Z</time></trkpt>
<trkpt lat="25.149476" lon="101.366627">
<time>2016-10-07T03:46:12Z</time></trkpt>
<trkpt lat="25.149517" lon="101.366567">
<time>2016-10-07T03:46:13Z</time></trkpt>
<trkpt lat="25.150808" lon="101.365549">
<time>2016-10-07T03:46:14Z</time></trkpt>
<trkpt lat="25.151759" lon="101.36479">
<time>2016-10-07T03:46:15Z</time></trkpt>
<trkpt lat="25.15254" lon="101.364191">
<time>2016-10-07T03:46:16Z</time></trkpt>
<trkpt lat="25.15261" lon="101.364122">
<time>2016-10-07T03:46:17Z</time></trkpt>
<trkpt lat="25.15264" lon="101.364022">
<time>2016-10-07T03:46:18Z</time></trkpt>
<trkpt lat="25.15274" lon="101.363872">
<time>2016-10-07T03:46:19Z</time></trkpt>
<trkpt lat="25.15293" lon="101.363592">
<time>2016-10-07T03:46:20Z</time></trkpt>
<trkpt lat="25.153151" lon="101.363223">
<time>2016-10-07T03:46:21Z</time></trkpt>
<trkpt lat="25.153341" lon="101.362904">
<time>2016-10-07T03:46:22Z</time></trkpt>
<trkpt lat="25.153462" lon="101.362714">
<time>2016-10-07T03:46:23Z</time></trkpt>
<trkpt lat="25.153562" lon="101.362594">
<time>2016-10-07T03:46:24Z</time></trkpt>
<trkpt lat="25.153572" lon="101.362584">
<time>2016-10-07T03:46:25Z</time></trkpt>
<trkpt lat="25.153572" lon="101.362584">
<time>2016-10-07T03:46:26Z</time></trkpt>
<trkpt lat="25.153222" lon="101.362245">
<time>2016-10-07T03:46:27Z</time></trkpt>
<trkpt lat="25.153072" lon="101.362095">
<time>2016-10-07T03:46:28Z</time></trkpt>
<trkpt lat="25.152863" lon="101.361826">
<time>2016-10-07T03:46:29Z</time></trkpt>
<trkpt lat="25.152673" lon="101.361726">
<time>2016-10-07T03:46:30Z</time></trkpt>
<trkpt lat="25.152573" lon="101.361626">
<time>2016-10-07T03:46:31Z</time></trkpt>
<trkpt lat="25.152553" lon="101.361566">
<time>2016-10-07T03:46:32Z</time></trkpt>
<trkpt lat="25.152563" lon="101.361416">
<time>2016-10-07T03:46:33Z</time></trkpt>
<trkpt lat="25.152364" lon="101.361057">
<time>2016-10-07T03:46:34Z</time></trkpt>
<trkpt lat="25.151605" lon="101.360209">
<time>2016-10-07T03:46:35Z</time></trkpt>
<trkpt lat="25.151276" lon="101.359989">
<time>2016-10-07T03:46:36Z</time></trkpt>
<trkpt lat="25.150846" lon="101.35964">
<time>2016-10-07T03:46:37Z</time></trkpt>
<trkpt lat="25.150766" lon="101.35951">
<time>2016-10-07T03:46:38Z</time></trkpt>
<trkpt lat="25.150766" lon="101.35951">
<time>2016-10-07T03:46:39Z</time></trkpt>
<trkpt lat="25.150767" lon="101.35938">
<time>2016-10-07T03:46:40Z</time></trkpt>
<trkpt lat="25.150847" lon="101.359261">
<time>2016-10-07T03:46:41Z</time></trkpt>
<trkpt lat="25.150867" lon="101.359131">
<time>2016-10-07T03:46:42Z</time></trkpt>
<trkpt lat="25.150817" lon="101.358901">
<time>2016-10-07T03:46:43Z</time></trkpt>
<trkpt lat="25.150778" lon="101.358372">
<time>2016-10-07T03:46:44Z</time></trkpt>
<trkpt lat="25.150769" lon="101.357823">
<time>2016-10-07T03:46:45Z</time></trkpt>
<trkpt lat="25.15074" lon="101.357344">
<time>2016-10-07T03:46:46Z</time></trkpt>
<trkpt lat="25.15079" lon="101.357125">
<time>2016-10-07T03:46:47Z</time></trkpt>
<trkpt lat="25.15087" lon="101.356875">
<time>2016-10-07T03:46:48Z</time></trkpt>
<trkpt lat="25.150901" lon="101.356606">
<time>2016-10-07T03:46:49Z</time></trkpt>
<trkpt lat="25.151082" lon="101.355987">
<time>2016-10-07T03:46:50Z</time></trkpt>
<trkpt lat="25.151182" lon="101.355907">
<time>2016-10-07T03:46:51Z</time></trkpt>
<trkpt lat="25.151222" lon="101.355907">
<time>2016-10-07T03:46:52Z</time></trkpt>
<trkpt lat="25.151222" lon="101.355907">
<time>2016-10-07T03:46:53Z</time></trkpt>
<trkpt lat="25.151212" lon="101.355897">
<time>2016-10-07T03:46:54Z</time></trkpt>
<trkpt lat="25.151162" lon="101.355867">
<time>2016-10-07T03:46:55Z</time></trkpt>
<trkpt lat="25.151052" lon="101.355728">
<time>2016-10-07T03:46:56Z</time></trkpt>
<trkpt lat="25.150992" lon="101.355578">
<time>2016-10-07T03:46:57Z</time></trkpt>
<trkpt lat="25.150992" lon="101.355568">
<time>2016-10-07T03:46:58Z</time></trkpt>
<trkpt lat="25.151023" lon="101.355239">
<time>2016-10-07T03:46:59Z</time></trkpt>
<trkpt lat="25.151084" lon="101.354799">
<time>2016-10-07T03:47:00Z</time></trkpt>
<trkpt lat="25.151134" lon="101.35445">
<time>2016-10-07T03:47:01Z</time></trkpt>
<trkpt lat="25.151134" lon="101.35429">
<time>2016-10-07T03:47:02Z</time></trkpt>
<trkpt lat="25.151085" lon="101.354101">
<time>2016-10-07T03:47:03Z</time></trkpt>
<trkpt lat="25.151115" lon="101.353961">
<time>2016-10-07T03:47:04Z</time></trkpt>
<trkpt lat="25.151215" lon="101.353712">
<time>2016-10-07T03:47:05Z</time></trkpt>
<trkpt lat="25.151376" lon="101.353303">
<time>2016-10-07T03:47:06Z</time></trkpt>
<trkpt lat="25.151667" lon="101.352654">
<time>2016-10-07T03:47:07Z</time></trkpt>
<trkpt lat="25.152038" lon="101.351856">
<time>2016-10-07T03:47:08Z</time></trkpt>
<trkpt lat="25.152149" lon="101.351606">
<time>2016-10-07T03:47:09Z</time></trkpt>
<trkpt lat="25.152179" lon="101.351337">
<time>2016-10-07T03:47:10Z</time></trkpt>
<trkpt lat="25.152169" lon="101.351237">
<time>2016-10-07T03:47:11Z</time></trkpt>
<trkpt lat="25.15216" lon="101.351107">
<time>2016-10-07T03:47:12Z</time></trkpt>
<trkpt lat="25.15214" lon="101.350997">
<time>2016-10-07T03:47:13Z</time></trkpt>
<trkpt lat="25.15217" lon="101.350898">
<time>2016-10-07T03:47:14Z</time></trkpt>
<trkpt lat="25.152501" lon="101.350139">
<time>2016-10-07T03:47:15Z</time></trkpt>
<trkpt lat="25.152812" lon="101.349411">
<time>2016-10-07T03:47:16Z</time></trkpt>
<trkpt lat="25.152963" lon="101.349052">
<time>2016-10-07T03:47:17Z</time></trkpt>
<trkpt lat="25.153053" lon="101.348822">
<time>2016-10-07T03:47:18Z</time></trkpt>
<trkpt lat="25.153064" lon="101.348712">
<time>2016-10-07T03:47:19Z</time></trkpt>
<trkpt lat="25.153114" lon="101.348443">
<time>2016-10-07T03:47:20Z</time></trkpt>
<trkpt lat="25.153154" lon="101.348343">
<time>2016-10-07T03:47:21Z</time></trkpt>
<trkpt lat="25.153195" lon="101.348034">
<time>2016-10-07T03:47:22Z</time></trkpt>
<trkpt lat="25.153215" lon="101.347934">
<time>2016-10-07T03:47:23Z</time></trkpt>
<trkpt lat="25.153245" lon="101.347884">
<time>2016-10-07T03:47:24Z</time></trkpt>
<trkpt lat="25.153305" lon="101.347854">
<time>2016-10-07T03:47:25Z</time></trkpt>
<trkpt lat="25.153355" lon="101.347824">
<time>2016-10-07T03:47:26Z</time></trkpt>
<trkpt lat="25.153375" lon="101.347774">
<time>2016-10-07T03:47:27Z</time></trkpt>
<trkpt lat="25.153365" lon="101.347665">
<time>2016-10-07T03:47:28Z</time></trkpt>
<trkpt lat="25.153346" lon="101.347395">
<time>2016-10-07T03:47:29Z</time></trkpt>
<trkpt lat="25.153326" lon="101.347265">
<time>2016-10-07T03:47:30Z</time></trkpt>
<trkpt lat="25.153286" lon="101.347146">
<time>2016-10-07T03:47:31Z</time></trkpt>
<trkpt lat="25.153256" lon="101.347036">
<time>2016-10-07T03:47:32Z</time></trkpt>
<trkpt lat="25.153207" lon="101.346896">
<time>2016-10-07T03:47:33Z</time></trkpt>
<trkpt lat="25.153207" lon="101.346747">
<time>2016-10-07T03:47:34Z</time></trkpt>
<trkpt lat="25.153247" lon="101.346507">
<time>2016-10-07T03:47:35Z</time></trkpt>
<trkpt lat="25.153288" lon="101.346367">
<time>2016-10-07T03:47:36Z</time></trkpt>
<trkpt lat="25.153488" lon="101.345978">
<time>2016-10-07T03:47:37Z</time></trkpt>
<trkpt lat="25.153619" lon="101.345799">
<time>2016-10-07T03:47:38Z</time></trkpt>
<trkpt lat="25.153739" lon="101.345669">
<time>2016-10-07T03:47:39Z</time></trkpt>
<trkpt lat="25.153839" lon="101.345599">
<time>2016-10-07T03:47:40Z</time></trkpt>
<trkpt lat="25.153959" lon="101.345469">
<time>2016-10-07T03:47:41Z</time></trkpt>
<trkpt lat="25.154029" lon="101.34534">
<time>2016-10-07T03:47:42Z</time></trkpt>
<trkpt lat="25.15415" lon="101.34514">
<time>2016-10-07T03:47:43Z</time></trkpt>
<trkpt lat="25.15422" lon="101.344971">
<time>2016-10-07T03:47:44Z</time></trkpt>
<trkpt lat="25.15426" lon="101.344771">
<time>2016-10-07T03:47:45Z</time></trkpt>
<trkpt lat="25.154301" lon="101.344571">
<time>2016-10-07T03:47:46Z</time></trkpt>
<trkpt lat="25.154371" lon="101.344372">
<time>2016-10-07T03:47:47Z</time></trkpt>
<trkpt lat="25.154441" lon="101.344262">
<time>2016-10-07T03:47:48Z</time></trkpt>
<trkpt lat="25.154572" lon="101.344113">
<time>2016-10-07T03:47:49Z</time></trkpt>
<trkpt lat="25.154712" lon="101.343953">
<time>2016-10-07T03:47:50Z</time></trkpt>
<trkpt lat="25.154872" lon="101.343843">
<time>2016-10-07T03:47:51Z</time></trkpt>
<trkpt lat="25.154982" lon="101.343743">
<time>2016-10-07T03:47:52Z</time></trkpt>
<trkpt lat="25.155313" lon="101.343254">
<time>2016-10-07T03:47:53Z</time></trkpt>
<trkpt lat="25.155494" lon="101.343005">
<time>2016-10-07T03:47:54Z</time></trkpt>
<trkpt lat="25.155594" lon="101.342895">
<time>2016-10-07T03:47:55Z</time></trkpt>
<trkpt lat="25.155704" lon="101.342815">
<time>2016-10-07T03:47:56Z</time></trkpt>
<trkpt lat="25.155944" lon="101.342586">
<time>2016-10-07T03:47:57Z</time></trkpt>
<trkpt lat="25.156345" lon="101.342217">
<time>2016-10-07T03:47:58Z</time></trkpt>
<trkpt lat="25.156535" lon="101.341987">
<time>2016-10-07T03:47:59Z</time></trkpt>
<trkpt lat="25.156586" lon="101.341838">
<time>2016-10-07T03:48:00Z</time></trkpt>
<trkpt lat="25.156596" lon="101.341558">
<time>2016-10-07T03:48:01Z</time></trkpt>
<trkpt lat="25.156637" lon="101.341279">
<time>2016-10-07T03:48:02Z</time></trkpt>
<trkpt lat="25.156637" lon="101.341279">
<time>2016-10-07T03:48:03Z</time></trkpt>
<trkpt lat="25.156627" lon="101.341189">
<time>2016-10-07T03:48:04Z</time></trkpt>
<trkpt lat="25.156547" lon="101.341059">
<time>2016-10-07T03:48:05Z</time></trkpt>
<trkpt lat="25.156507" lon="101.34102">
<time>2016-10-07T03:48:06Z</time></trkpt>
<trkpt lat="25.156407" lon="101.34094">
<time>2016-10-07T03:48:07Z</time></trkpt>
<trkpt lat="25.156357" lon="101.34091">
<time>2016-10-07T03:48:08Z</time></trkpt>
<trkpt lat="25.156267" lon="101.34089">
<time>2016-10-07T03:48:09Z</time></trkpt>
<trkpt lat="25.156107" lon="101.3409">
<time>2016-10-07T03:48:10Z</time></trkpt>
<trkpt lat="25.155777" lon="101.34086">
<time>2016-10-07T03:48:11Z</time></trkpt>
<trkpt lat="25.155628" lon="101.34076">
<time>2016-10-07T03:48:12Z</time></trkpt>
<trkpt lat="25.155508" lon="101.34064">
<time>2016-10-07T03:48:13Z</time></trkpt>
<trkpt lat="25.155478" lon="101.340471">
<time>2016-10-07T03:48:14Z</time></trkpt>
<trkpt lat="25.155488" lon="101.340291">
<time>2016-10-07T03:48:15Z</time></trkpt>
<trkpt lat="25.155519" lon="101.340132">
<time>2016-10-07T03:48:16Z</time></trkpt>
<trkpt lat="25.15571" lon="101.339643">
<time>2016-10-07T03:48:17Z</time></trkpt>
<trkpt lat="25.15585" lon="101.339334">
<time>2016-10-07T03:48:18Z</time></trkpt>
<trkpt lat="25.15596" lon="101.339214">
<time>2016-10-07T03:48:19Z</time></trkpt>
<trkpt lat="25.156121" lon="101.339144">
<time>2016-10-07T03:48:20Z</time></trkpt>
<trkpt lat="25.15628" lon="101.339174">
<time>2016-10-07T03:48:21Z</time></trkpt>
<trkpt lat="25.15644" lon="101.339234">
<time>2016-10-07T03:48:22Z</time></trkpt>
<trkpt lat="25.15676" lon="101.339284">
<time>2016-10-07T03:48:23Z</time></trkpt>
<trkpt lat="25.15691" lon="101.339343">
<time>2016-10-07T03:48:24Z</time></trkpt>
<trkpt lat="25.15704" lon="101.339443">
<time>2016-10-07T03:48:25Z</time></trkpt>
<trkpt lat="25.157439" lon="101.339733">
<time>2016-10-07T03:48:26Z</time></trkpt>
<trkpt lat="25.157519" lon="101.339762">
<time>2016-10-07T03:48:27Z</time></trkpt>
<trkpt lat="25.157579" lon="101.339752">
<time>2016-10-07T03:48:28Z</time></trkpt>
<trkpt lat="25.157609" lon="101.339742">
<time>2016-10-07T03:48:29Z</time></trkpt>
<trkpt lat="25.15765" lon="101.339663">
<time>2016-10-07T03:48:30Z</time></trkpt>
<trkpt lat="25.15766" lon="101.339593">
<time>2016-10-07T03:48:31Z</time></trkpt>
<trkpt lat="25.15762" lon="101.339463">
<time>2016-10-07T03:48:32Z</time></trkpt>
<trkpt lat="25.15754" lon="101.339343">
<time>2016-10-07T03:48:33Z</time></trkpt>
<trkpt lat="25.15741" lon="101.339154">
<time>2016-10-07T03:48:34Z</time></trkpt>
<trkpt lat="25.157391" lon="101.338974">
<time>2016-10-07T03:48:35Z</time></trkpt>
<trkpt lat="25.157401" lon="101.338924">
<time>2016-10-07T03:48:36Z</time></trkpt>
<trkpt lat="25.157411" lon="101.338875">
<time>2016-10-07T03:48:37Z</time></trkpt>
<trkpt lat="25.157451" lon="101.338745">
<time>2016-10-07T03:48:38Z</time></trkpt>
<trkpt lat="25.157451" lon="101.338745">
<time>2016-10-07T03:48:39Z</time></trkpt>
<trkpt lat="25.157541" lon="101.338705">
<time>2016-10-07T03:48:40Z</time></trkpt>
<trkpt lat="25.157621" lon="101.338665">
<time>2016-10-07T03:48:41Z</time></trkpt>
<trkpt lat="25.157772" lon="101.338575">
<time>2016-10-07T03:48:42Z</time></trkpt>
<trkpt lat="25.158112" lon="101.338336">
<time>2016-10-07T03:48:43Z</time></trkpt>
<trkpt lat="25.158442" lon="101.338076">
<time>2016-10-07T03:48:44Z</time></trkpt>
<trkpt lat="25.158793" lon="101.337847">
<time>2016-10-07T03:48:45Z</time></trkpt>
<trkpt lat="25.159013" lon="101.337737">
<time>2016-10-07T03:48:46Z</time></trkpt>
<trkpt lat="25.159203" lon="101.337657">
<time>2016-10-07T03:48:47Z</time></trkpt>
<trkpt lat="25.159363" lon="101.337617">
<time>2016-10-07T03:48:48Z</time></trkpt>
<trkpt lat="25.159583" lon="101.337587">
<time>2016-10-07T03:48:49Z</time></trkpt>
<trkpt lat="25.159963" lon="101.337558">
<time>2016-10-07T03:48:50Z</time></trkpt>
<trkpt lat="25.160173" lon="101.337558">
<time>2016-10-07T03:48:51Z</time></trkpt>
<trkpt lat="25.160513" lon="101.337568">
<time>2016-10-07T03:48:52Z</time></trkpt>
<trkpt lat="25.160713" lon="101.337597">
<time>2016-10-07T03:48:53Z</time></trkpt>
<trkpt lat="25.160933" lon="101.337637">
<time>2016-10-07T03:48:54Z</time></trkpt>
<trkpt lat="25.161113" lon="101.337697">
<time>2016-10-07T03:48:55Z</time></trkpt>
<trkpt lat="25.161633" lon="101.337877">
<time>2016-10-07T03:48:56Z</time></trkpt>
<trkpt lat="25.162232" lon="101.338166">
<time>2016-10-07T03:48:57Z</time></trkpt>
<trkpt lat="25.162812" lon="101.338435">
<time>2016-10-07T03:48:58Z</time></trkpt>
<trkpt lat="25.163221" lon="101.338605">
<time>2016-10-07T03:48:59Z</time></trkpt>
<trkpt lat="25.163421" lon="101.338675">
<time>2016-10-07T03:49:00Z</time></trkpt>
<trkpt lat="25.163621" lon="101.338715">
<time>2016-10-07T03:49:01Z</time></trkpt>
<trkpt lat="25.163801" lon="101.338745">
<time>2016-10-07T03:49:02Z</time></trkpt>
<trkpt lat="25.163941" lon="101.338745">
<time>2016-10-07T03:49:03Z</time></trkpt>
<trkpt lat="25.164081" lon="101.338745">
<time>2016-10-07T03:49:04Z</time></trkpt>
<trkpt lat="25.164201" lon="101.338735">
<time>2016-10-07T03:49:05Z</time></trkpt>
<trkpt lat="25.164291" lon="101.338715">
<time>2016-10-07T03:49:06Z</time></trkpt>
<trkpt lat="25.164391" lon="101.338685">
<time>2016-10-07T03:49:07Z</time></trkpt>
<trkpt lat="25.164451" lon="101.338655">
<time>2016-10-07T03:49:08Z</time></trkpt>
<trkpt lat="25.164511" lon="101.338615">
<time>2016-10-07T03:49:09Z</time></trkpt>
<trkpt lat="25.164571" lon="101.338565">
<time>2016-10-07T03:49:10Z</time></trkpt>
<trkpt lat="25.164621" lon="101.338485">
<time>2016-10-07T03:49:11Z</time></trkpt>
<trkpt lat="25.164672" lon="101.338375">
<time>2016-10-07T03:49:12Z</time></trkpt>
<trkpt lat="25.164742" lon="101.338216">
<time>2016-10-07T03:49:13Z</time></trkpt>
<trkpt lat="25.164832" lon="101.338006">
<time>2016-10-07T03:49:14Z</time></trkpt>
<trkpt lat="25.165264" lon="101.336999">
<time>2016-10-07T03:49:15Z</time></trkpt>
<trkpt lat="25.165716" lon="101.335752">
<time>2016-10-07T03:49:16Z</time></trkpt>
<trkpt lat="25.166048" lon="101.334904">
<time>2016-10-07T03:49:17Z</time></trkpt>
<trkpt lat="25.166169" lon="101.334594">
<time>2016-10-07T03:49:18Z</time></trkpt>
<trkpt lat="25.166681" lon="101.333527">
<time>2016-10-07T03:49:19Z</time></trkpt>
<trkpt lat="25.167404" lon="101.331751">
<time>2016-10-07T03:49:20Z</time></trkpt>
<trkpt lat="25.167575" lon="101.331352">
<time>2016-10-07T03:49:21Z</time></trkpt>
<trkpt lat="25.167655" lon="101.331183">
<time>2016-10-07T03:49:22Z</time></trkpt>
<trkpt lat="25.167745" lon="101.331043">
<time>2016-10-07T03:49:23Z</time></trkpt>
<trkpt lat="25.167855" lon="101.330893">
<time>2016-10-07T03:49:24Z</time></trkpt>
<trkpt lat="25.167926" lon="101.330823">
<time>2016-10-07T03:49:25Z</time></trkpt>
<trkpt lat="25.168076" lon="101.330654">
<time>2016-10-07T03:49:26Z</time></trkpt>
<trkpt lat="25.168286" lon="101.330424">
<time>2016-10-07T03:49:27Z</time></trkpt>
<trkpt lat="25.168477" lon="101.330225">
<time>2016-10-07T03:49:28Z</time></trkpt>
<trkpt lat="25.168868" lon="101.329776">
<time>2016-10-07T03:49:29Z</time></trkpt>
<trkpt lat="25.169399" lon="101.329147">
<time>2016-10-07T03:49:30Z</time></trkpt>
<trkpt lat="25.16999" lon="101.328469">
<time>2016-10-07T03:49:31Z</time></trkpt>
<trkpt lat="25.170872" lon="101.327452">
<time>2016-10-07T03:49:32Z</time></trkpt>
<trkpt lat="25.171193" lon="101.327043">
<time>2016-10-07T03:49:33Z</time></trkpt>
<trkpt lat="25.171273" lon="101.326913">
<time>2016-10-07T03:49:34Z</time></trkpt>
<trkpt lat="25.171333" lon="101.326833">
<time>2016-10-07T03:49:35Z</time></trkpt>
<trkpt lat="25.171403" lon="101.326703">
<time>2016-10-07T03:49:36Z</time></trkpt>
<trkpt lat="25.171423" lon="101.326673">
<time>2016-10-07T03:49:37Z</time></trkpt>
<trkpt lat="25.171474" lon="101.326584">
<time>2016-10-07T03:49:38Z</time></trkpt>
<trkpt lat="25.171514" lon="101.326494">
<time>2016-10-07T03:49:39Z</time></trkpt>
<trkpt lat="25.171554" lon="101.326414">
<time>2016-10-07T03:49:40Z</time></trkpt>
<trkpt lat="25.171644" lon="101.326195">
<time>2016-10-07T03:49:41Z</time></trkpt>
<trkpt lat="25.171745" lon="101.325935">
<time>2016-10-07T03:49:42Z</time></trkpt>
<trkpt lat="25.171866" lon="101.325546">
<time>2016-10-07T03:49:43Z</time></trkpt>
<trkpt lat="25.171936" lon="101.325327">
<time>2016-10-07T03:49:44Z</time></trkpt>
<trkpt lat="25.171976" lon="101.325237">
<time>2016-10-07T03:49:45Z</time></trkpt>
<trkpt lat="25.172006" lon="101.325147">
<time>2016-10-07T03:49:46Z</time></trkpt>
<trkpt lat="25.172097" lon="101.324938">
<time>2016-10-07T03:49:47Z</time></trkpt>
<trkpt lat="25.172187" lon="101.324748">
<time>2016-10-07T03:49:48Z</time></trkpt>
<trkpt lat="25.172277" lon="101.324569">
<time>2016-10-07T03:49:49Z</time></trkpt>
<trkpt lat="25.172297" lon="101.324519">
<time>2016-10-07T03:49:50Z</time></trkpt>
<trkpt lat="25.17283" lon="101.323322">
<time>2016-10-07T03:49:51Z</time></trkpt>
<trkpt lat="25.173543" lon="101.321765">
<time>2016-10-07T03:49:52Z</time></trkpt>
<trkpt lat="25.173693" lon="101.321456">
<time>2016-10-07T03:49:53Z</time></trkpt>
<trkpt lat="25.174888" lon="101.318753">
<time>2016-10-07T03:49:54Z</time></trkpt>
<trkpt lat="25.175511" lon="101.317316">
<time>2016-10-07T03:49:55Z</time></trkpt>
<trkpt lat="25.175772" lon="101.316737">
<time>2016-10-07T03:49:56Z</time></trkpt>
<trkpt lat="25.176224" lon="101.31584">
<time>2016-10-07T03:49:57Z</time></trkpt>
<trkpt lat="25.176535" lon="101.315301">
<time>2016-10-07T03:49:58Z</time></trkpt>
<trkpt lat="25.176635" lon="101.315131">
<time>2016-10-07T03:49:59Z</time></trkpt>
<trkpt lat="25.176675" lon="101.315071">
<time>2016-10-07T03:50:00Z</time></trkpt>
<trkpt lat="25.176695" lon="101.315041">
<time>2016-10-07T03:50:01Z</time></trkpt>
<trkpt lat="25.176715" lon="101.315011">
<time>2016-10-07T03:50:02Z</time></trkpt>
<trkpt lat="25.176735" lon="101.314982">
<time>2016-10-07T03:50:03Z</time></trkpt>
<trkpt lat="25.176755" lon="101.314972">
<time>2016-10-07T03:50:04Z</time></trkpt>
<trkpt lat="25.176775" lon="101.314952">
<time>2016-10-07T03:50:05Z</time></trkpt>
<trkpt lat="25.176795" lon="101.314932">
<time>2016-10-07T03:50:06Z</time></trkpt>
<trkpt lat="25.176825" lon="101.314922">
<time>2016-10-07T03:50:07Z</time></trkpt>
<trkpt lat="25.176876" lon="101.314892">
<time>2016-10-07T03:50:08Z</time></trkpt>
<trkpt lat="25.176916" lon="101.314872">
<time>2016-10-07T03:50:09Z</time></trkpt>
<trkpt lat="25.176986" lon="101.314842">
<time>2016-10-07T03:50:10Z</time></trkpt>
<trkpt lat="25.177076" lon="101.314812">
<time>2016-10-07T03:50:11Z</time></trkpt>
<trkpt lat="25.177116" lon="101.314802">
<time>2016-10-07T03:50:12Z</time></trkpt>
<trkpt lat="25.177176" lon="101.314782">
<time>2016-10-07T03:50:13Z</time></trkpt>
<trkpt lat="25.178306" lon="101.314443">
<time>2016-10-07T03:50:14Z</time></trkpt>
<trkpt lat="25.179657" lon="101.314024">
<time>2016-10-07T03:50:15Z</time></trkpt>
<trkpt lat="25.179757" lon="101.313984">
<time>2016-10-07T03:50:16Z</time></trkpt>
<trkpt lat="25.179857" lon="101.313944">
<time>2016-10-07T03:50:17Z</time></trkpt>
<trkpt lat="25.179947" lon="101.313884">
<time>2016-10-07T03:50:18Z</time></trkpt>
<trkpt lat="25.180037" lon="101.313804">
<time>2016-10-07T03:50:19Z</time></trkpt>
<trkpt lat="25.180138" lon="101.313714">
<time>2016-10-07T03:50:20Z</time></trkpt>
<trkpt lat="25.180228" lon="101.313595">
<time>2016-10-07T03:50:21Z</time></trkpt>
<trkpt lat="25.180308" lon="101.313465">
<time>2016-10-07T03:50:22Z</time></trkpt>
<trkpt lat="25.180378" lon="101.313345">
<time>2016-10-07T03:50:23Z</time></trkpt>
<trkpt lat="25.180428" lon="101.313236">
<time>2016-10-07T03:50:24Z</time></trkpt>
<trkpt lat="25.180509" lon="101.313046">
<time>2016-10-07T03:50:25Z</time></trkpt>
<trkpt lat="25.180569" lon="101.312886">
<time>2016-10-07T03:50:26Z</time></trkpt>
<trkpt lat="25.180599" lon="101.312767">
<time>2016-10-07T03:50:27Z</time></trkpt>
<trkpt lat="25.18061" lon="101.312647">
<time>2016-10-07T03:50:28Z</time></trkpt>
<trkpt lat="25.18062" lon="101.312577">
<time>2016-10-07T03:50:29Z</time></trkpt>
<trkpt lat="25.18062" lon="101.312497">
<time>2016-10-07T03:50:30Z</time></trkpt>
<trkpt lat="25.18062" lon="101.312437">
<time>2016-10-07T03:50:31Z</time></trkpt>
<trkpt lat="25.18061" lon="101.312388">
<time>2016-10-07T03:50:32Z</time></trkpt>
<trkpt lat="25.1806" lon="101.312328">
<time>2016-10-07T03:50:33Z</time></trkpt>
<trkpt lat="25.18059" lon="101.312278">
<time>2016-10-07T03:50:34Z</time></trkpt>
<trkpt lat="25.18057" lon="101.312218">
<time>2016-10-07T03:50:35Z</time></trkpt>
<trkpt lat="25.18054" lon="101.312148">
<time>2016-10-07T03:50:36Z</time></trkpt>
<trkpt lat="25.180511" lon="101.312078">
<time>2016-10-07T03:50:37Z</time></trkpt>
<trkpt lat="25.180461" lon="101.311999">
<time>2016-10-07T03:50:38Z</time></trkpt>
<trkpt lat="25.180411" lon="101.311919">
<time>2016-10-07T03:50:39Z</time></trkpt>
<trkpt lat="25.180131" lon="101.311589">
<time>2016-10-07T03:50:40Z</time></trkpt>
<trkpt lat="25.180042" lon="101.31147">
<time>2016-10-07T03:50:41Z</time></trkpt>
<trkpt lat="25.179972" lon="101.31138">
<time>2016-10-07T03:50:42Z</time></trkpt>
<trkpt lat="25.179942" lon="101.31131">
<time>2016-10-07T03:50:43Z</time></trkpt>
<trkpt lat="25.179912" lon="101.31124">
<time>2016-10-07T03:50:44Z</time></trkpt>
<trkpt lat="25.179892" lon="101.31119">
<time>2016-10-07T03:50:45Z</time></trkpt>
<trkpt lat="25.179882" lon="101.311151">
<time>2016-10-07T03:50:46Z</time></trkpt>
<trkpt lat="25.179872" lon="101.311091">
<time>2016-10-07T03:50:47Z</time></trkpt>
<trkpt lat="25.179863" lon="101.311031">
<time>2016-10-07T03:50:48Z</time></trkpt>
<trkpt lat="25.179853" lon="101.310971">
<time>2016-10-07T03:50:49Z</time></trkpt>
<trkpt lat="25.179853" lon="101.310911">
<time>2016-10-07T03:50:50Z</time></trkpt>
<trkpt lat="25.179863" lon="101.310851">
<time>2016-10-07T03:50:51Z</time></trkpt>
<trkpt lat="25.179873" lon="101.310791">
<time>2016-10-07T03:50:52Z</time></trkpt>
<trkpt lat="25.179893" lon="101.310732">
<time>2016-10-07T03:50:53Z</time></trkpt>
<trkpt lat="25.179923" lon="101.310652">
<time>2016-10-07T03:50:54Z</time></trkpt>
<trkpt lat="25.179963" lon="101.310572">
<time>2016-10-07T03:50:55Z</time></trkpt>
<trkpt lat="25.180305" lon="101.309923">
<time>2016-10-07T03:50:56Z</time></trkpt>
<trkpt lat="25.180485" lon="101.309584">
<time>2016-10-07T03:50:57Z</time></trkpt>
<trkpt lat="25.180616" lon="101.309315">
<time>2016-10-07T03:50:58Z</time></trkpt>
<trkpt lat="25.180636" lon="101.309265">
<time>2016-10-07T03:50:59Z</time></trkpt>
<trkpt lat="25.180806" lon="101.308906">
<time>2016-10-07T03:51:00Z</time></trkpt>
<trkpt lat="25.181198" lon="101.307828">
<time>2016-10-07T03:51:01Z</time></trkpt>
<trkpt lat="25.181349" lon="101.307439">
<time>2016-10-07T03:51:02Z</time></trkpt>
<trkpt lat="25.181449" lon="101.30717">
<time>2016-10-07T03:51:03Z</time></trkpt>
<trkpt lat="25.18153" lon="101.30686">
<time>2016-10-07T03:51:04Z</time></trkpt>
<trkpt lat="25.1816" lon="101.306601">
<time>2016-10-07T03:51:05Z</time></trkpt>
<trkpt lat="25.181801" lon="101.306002">
<time>2016-10-07T03:51:06Z</time></trkpt>
<trkpt lat="25.182083" lon="101.305334">
<time>2016-10-07T03:51:07Z</time></trkpt>
<trkpt lat="25.183318" lon="101.30242">
<time>2016-10-07T03:51:08Z</time></trkpt>
<trkpt lat="25.183468" lon="101.302071">
<time>2016-10-07T03:51:09Z</time></trkpt>
<trkpt lat="25.184603" lon="101.299397">
<time>2016-10-07T03:51:10Z</time></trkpt>
<trkpt lat="25.185064" lon="101.298279">
<time>2016-10-07T03:51:11Z</time></trkpt>
<trkpt lat="25.185084" lon="101.298239">
<time>2016-10-07T03:51:12Z</time></trkpt>
<trkpt lat="25.185145" lon="101.29807">
<time>2016-10-07T03:51:13Z</time></trkpt>
<trkpt lat="25.185205" lon="101.29788">
<time>2016-10-07T03:51:14Z</time></trkpt>
<trkpt lat="25.185265" lon="101.297621">
<time>2016-10-07T03:51:15Z</time></trkpt>
<trkpt lat="25.185488" lon="101.296114">
<time>2016-10-07T03:51:16Z</time></trkpt>
<trkpt lat="25.185619" lon="101.295306">
<time>2016-10-07T03:51:17Z</time></trkpt>
<trkpt lat="25.185811" lon="101.294048">
<time>2016-10-07T03:51:18Z</time></trkpt>
<trkpt lat="25.186084" lon="101.292242">
<time>2016-10-07T03:51:19Z</time></trkpt>
<trkpt lat="25.186195" lon="101.291453">
<time>2016-10-07T03:51:20Z</time></trkpt>
<trkpt lat="25.186276" lon="101.290934">
<time>2016-10-07T03:51:21Z</time></trkpt>
<trkpt lat="25.186427" lon="101.289986">
<time>2016-10-07T03:51:22Z</time></trkpt>
<trkpt lat="25.186599" lon="101.288778">
<time>2016-10-07T03:51:23Z</time></trkpt>
<trkpt lat="25.186639" lon="101.288589">
<time>2016-10-07T03:51:24Z</time></trkpt>
<trkpt lat="25.186699" lon="101.288379">
<time>2016-10-07T03:51:25Z</time></trkpt>
<trkpt lat="25.186749" lon="101.28818">
<time>2016-10-07T03:51:26Z</time></trkpt>
<trkpt lat="25.18688" lon="101.28793">
<time>2016-10-07T03:51:27Z</time></trkpt>
<trkpt lat="25.187" lon="101.28773">
<time>2016-10-07T03:51:28Z</time></trkpt>
<trkpt lat="25.187531" lon="101.286942">
<time>2016-10-07T03:51:29Z</time></trkpt>
<trkpt lat="25.188443" lon="101.285604">
<time>2016-10-07T03:51:30Z</time></trkpt>
<trkpt lat="25.188673" lon="101.285225">
<time>2016-10-07T03:51:31Z</time></trkpt>
<trkpt lat="25.188834" lon="101.284935">
<time>2016-10-07T03:51:32Z</time></trkpt>
<trkpt lat="25.188964" lon="101.284706">
<time>2016-10-07T03:51:33Z</time></trkpt>
<trkpt lat="25.189094" lon="101.284456">
<time>2016-10-07T03:51:34Z</time></trkpt>
<trkpt lat="25.189435" lon="101.283827">
<time>2016-10-07T03:51:35Z</time></trkpt>
<trkpt lat="25.189806" lon="101.283149">
<time>2016-10-07T03:51:36Z</time></trkpt>
<trkpt lat="25.190898" lon="101.281182">
<time>2016-10-07T03:51:37Z</time></trkpt>
<trkpt lat="25.191048" lon="101.280922">
<time>2016-10-07T03:51:38Z</time></trkpt>
<trkpt lat="25.191149" lon="101.280603">
<time>2016-10-07T03:51:39Z</time></trkpt>
<trkpt lat="25.191129" lon="101.280583">
<time>2016-10-07T03:51:40Z</time></trkpt>
<trkpt lat="25.191119" lon="101.280573">
<time>2016-10-07T03:51:41Z</time></trkpt>
<trkpt lat="25.191109" lon="101.280553">
<time>2016-10-07T03:51:42Z</time></trkpt>
<trkpt lat="25.191099" lon="101.280523">
<time>2016-10-07T03:51:43Z</time></trkpt>
<trkpt lat="25.191079" lon="101.280483">
<time>2016-10-07T03:51:44Z</time></trkpt>
<trkpt lat="25.191079" lon="101.280453">
<time>2016-10-07T03:51:45Z</time></trkpt>
<trkpt lat="25.191079" lon="101.280433">
<time>2016-10-07T03:51:46Z</time></trkpt>
<trkpt lat="25.191079" lon="101.280403">
<time>2016-10-07T03:51:47Z</time></trkpt>
<trkpt lat="25.191079" lon="101.280373">
<time>2016-10-07T03:51:48Z</time></trkpt>
<trkpt lat="25.191089" lon="101.280343">
<time>2016-10-07T03:51:49Z</time></trkpt>
<trkpt lat="25.191099" lon="101.280313">
<time>2016-10-07T03:51:50Z</time></trkpt>
<trkpt lat="25.191109" lon="101.280283">
<time>2016-10-07T03:51:51Z</time></trkpt>
<trkpt lat="25.191129" lon="101.280263">
<time>2016-10-07T03:51:52Z</time></trkpt>
<trkpt lat="25.191149" lon="101.280243">
<time>2016-10-07T03:51:53Z</time></trkpt>
<trkpt lat="25.191169" lon="101.280223">
<time>2016-10-07T03:51:54Z</time></trkpt>
<trkpt lat="25.191189" lon="101.280204">
<time>2016-10-07T03:51:55Z</time></trkpt>
<trkpt lat="25.191219" lon="101.280194">
<time>2016-10-07T03:51:56Z</time></trkpt>
<trkpt lat="25.191239" lon="101.280184">
<time>2016-10-07T03:51:57Z</time></trkpt>
<trkpt lat="25.19152" lon="101.279924">
<time>2016-10-07T03:51:58Z</time></trkpt>
<trkpt lat="25.19164" lon="101.279764">
<time>2016-10-07T03:51:59Z</time></trkpt>
<trkpt lat="25.19191" lon="101.279265">
<time>2016-10-07T03:52:00Z</time></trkpt>
<trkpt lat="25.192982" lon="101.277328">
<time>2016-10-07T03:52:01Z</time></trkpt>
<trkpt lat="25.193093" lon="101.277168">
<time>2016-10-07T03:52:02Z</time></trkpt>
<trkpt lat="25.193123" lon="101.277128">
<time>2016-10-07T03:52:03Z</time></trkpt>
<trkpt lat="25.193253" lon="101.276969">
<time>2016-10-07T03:52:04Z</time></trkpt>
<trkpt lat="25.193253" lon="101.276969">
<time>2016-10-07T03:52:05Z</time></trkpt>
<trkpt lat="25.192883" lon="101.276629">
<time>2016-10-07T03:52:06Z</time></trkpt>
<trkpt lat="25.192643" lon="101.276409">
<time>2016-10-07T03:52:07Z</time></trkpt>
<trkpt lat="25.192384" lon="101.2762">
<time>2016-10-07T03:52:08Z</time></trkpt>
<trkpt lat="25.192014" lon="101.27593">
<time>2016-10-07T03:52:09Z</time></trkpt>
<trkpt lat="25.192014" lon="101.27593">
<time>2016-10-07T03:52:10Z</time></trkpt>
<trkpt lat="25.192535" lon="101.275181">
<time>2016-10-07T03:52:11Z</time></trkpt>
<trkpt lat="25.192935" lon="101.274632">
<time>2016-10-07T03:52:12Z</time></trkpt>
<trkpt lat="25.193115" lon="101.274392">
<time>2016-10-07T03:52:13Z</time></trkpt>
<trkpt lat="25.193296" lon="101.274163">
<time>2016-10-07T03:52:14Z</time></trkpt>
<trkpt lat="25.193576" lon="101.273783">
<time>2016-10-07T03:52:15Z</time></trkpt>
<trkpt lat="25.193616" lon="101.273733">
<time>2016-10-07T03:52:16Z</time></trkpt>
<trkpt lat="25.193846" lon="101.273424">
<time>2016-10-07T03:52:17Z</time></trkpt>
<trkpt lat="25.193996" lon="101.273224">
<time>2016-10-07T03:52:18Z</time></trkpt>
<trkpt lat="25.194177" lon="101.272984">
<time>2016-10-07T03:52:19Z</time></trkpt>
<trkpt lat="25.194357" lon="101.272775">
<time>2016-10-07T03:52:20Z</time></trkpt>
<trkpt lat="25.194857" lon="101.272235">
<time>2016-10-07T03:52:21Z</time></trkpt>
<trkpt lat="25.194857" lon="101.272235">
<time>2016-10-07T03:52:22Z</time></trkpt>
<trkpt lat="25.194937" lon="101.272145">
<time>2016-10-07T03:52:23Z</time></trkpt>
<trkpt lat="25.195067" lon="101.271996">
<time>2016-10-07T03:52:24Z</time></trkpt>
<trkpt lat="25.195168" lon="101.271866">
<time>2016-10-07T03:52:25Z</time></trkpt>
<trkpt lat="25.195328" lon="101.271666">
<time>2016-10-07T03:52:26Z</time></trkpt>
<trkpt lat="25.196008" lon="101.270807">
<time>2016-10-07T03:52:27Z</time></trkpt>
<trkpt lat="25.196279" lon="101.270488">
<time>2016-10-07T03:52:28Z</time></trkpt>
<trkpt lat="25.196449" lon="101.270268">
<time>2016-10-07T03:52:29Z</time></trkpt>
<trkpt lat="25.196669" lon="101.269968">
<time>2016-10-07T03:52:30Z</time></trkpt>
<trkpt lat="25.196809" lon="101.269759">
<time>2016-10-07T03:52:31Z</time></trkpt>
<trkpt lat="25.196939" lon="101.269519">
<time>2016-10-07T03:52:32Z</time></trkpt>
<trkpt lat="25.19702" lon="101.269349">
<time>2016-10-07T03:52:33Z</time></trkpt>
<trkpt lat="25.19732" lon="101.26863">
<time>2016-10-07T03:52:34Z</time></trkpt>
<trkpt lat="25.19754" lon="101.26818">
<time>2016-10-07T03:52:35Z</time></trkpt>
<trkpt lat="25.198322" lon="101.266193">
<time>2016-10-07T03:52:36Z</time></trkpt>
<trkpt lat="25.198452" lon="101.266003">
<time>2016-10-07T03:52:37Z</time></trkpt>
<trkpt lat="25.199052" lon="101.265474">
<time>2016-10-07T03:52:38Z</time></trkpt>
<trkpt lat="25.199242" lon="101.265244">
<time>2016-10-07T03:52:39Z</time></trkpt>
<trkpt lat="25.199893" lon="101.264145">
<time>2016-10-07T03:52:40Z</time></trkpt>
<trkpt lat="25.200424" lon="101.263016">
<time>2016-10-07T03:52:41Z</time></trkpt>
<trkpt lat="25.200774" lon="101.262537">
<time>2016-10-07T03:52:42Z</time></trkpt>
<trkpt lat="25.201094" lon="101.262217">
<time>2016-10-07T03:52:43Z</time></trkpt>
<trkpt lat="25.201494" lon="101.262107">
<time>2016-10-07T03:52:44Z</time></trkpt>
<trkpt lat="25.202004" lon="101.262097">
<time>2016-10-07T03:52:45Z</time></trkpt>
<trkpt lat="25.202404" lon="101.262057">
<time>2016-10-07T03:52:46Z</time></trkpt>
<trkpt lat="25.202864" lon="101.261887">
<time>2016-10-07T03:52:47Z</time></trkpt>
<trkpt lat="25.203184" lon="101.261687">
<time>2016-10-07T03:52:48Z</time></trkpt>
<trkpt lat="25.203465" lon="101.261388">
<time>2016-10-07T03:52:49Z</time></trkpt>
<trkpt lat="25.203815" lon="101.260658">
<time>2016-10-07T03:52:50Z</time></trkpt>
<trkpt lat="25.204115" lon="101.260269">
<time>2016-10-07T03:52:51Z</time></trkpt>
<trkpt lat="25.204235" lon="101.260039">
<time>2016-10-07T03:52:52Z</time></trkpt>
<trkpt lat="25.204385" lon="101.259629">
<time>2016-10-07T03:52:53Z</time></trkpt>
<trkpt lat="25.204455" lon="101.25926">
<time>2016-10-07T03:52:54Z</time></trkpt>
<trkpt lat="25.204526" lon="101.25875">
<time>2016-10-07T03:52:55Z</time></trkpt>
<trkpt lat="25.204756" lon="101.25822">
<time>2016-10-07T03:52:56Z</time></trkpt>
<trkpt lat="25.205406" lon="101.257291">
<time>2016-10-07T03:52:57Z</time></trkpt>
<trkpt lat="25.205416" lon="101.257291">
<time>2016-10-07T03:52:58Z</time></trkpt>
<trkpt lat="25.205436" lon="101.257261">
<time>2016-10-07T03:52:59Z</time></trkpt>
<trkpt lat="25.205606" lon="101.257131">
<time>2016-10-07T03:53:00Z</time></trkpt>
<trkpt lat="25.205726" lon="101.257051">
<time>2016-10-07T03:53:01Z</time></trkpt>
<trkpt lat="25.207027" lon="101.256062">
<time>2016-10-07T03:53:02Z</time></trkpt>
<trkpt lat="25.207837" lon="101.255303">
<time>2016-10-07T03:53:03Z</time></trkpt>
<trkpt lat="25.208027" lon="101.255073">
<time>2016-10-07T03:53:04Z</time></trkpt>
<trkpt lat="25.208277" lon="101.254593">
<time>2016-10-07T03:53:05Z</time></trkpt>
<trkpt lat="25.208507" lon="101.254403">
<time>2016-10-07T03:53:06Z</time></trkpt>
<trkpt lat="25.208657" lon="101.254213">
<time>2016-10-07T03:53:07Z</time></trkpt>
<trkpt lat="25.208817" lon="101.253823">
<time>2016-10-07T03:53:08Z</time></trkpt>
<trkpt lat="25.209787" lon="101.252564">
<time>2016-10-07T03:53:09Z</time></trkpt>
<trkpt lat="25.209987" lon="101.252284">
<time>2016-10-07T03:53:10Z</time></trkpt>
<trkpt lat="25.210007" lon="101.252244">
<time>2016-10-07T03:53:11Z</time></trkpt>
<trkpt lat="25.210107" lon="101.252015">
<time>2016-10-07T03:53:12Z</time></trkpt>
<trkpt lat="25.210348" lon="101.250735">
<time>2016-10-07T03:53:13Z</time></trkpt>
<trkpt lat="25.210418" lon="101.250435">
<time>2016-10-07T03:53:14Z</time></trkpt>
<trkpt lat="25.210708" lon="101.250016">
<time>2016-10-07T03:53:15Z</time></trkpt>
<trkpt lat="25.211038" lon="101.249546">
<time>2016-10-07T03:53:16Z</time></trkpt>
<trkpt lat="25.211198" lon="101.249076">
<time>2016-10-07T03:53:17Z</time></trkpt>
<trkpt lat="25.211398" lon="101.248836">
<time>2016-10-07T03:53:18Z</time></trkpt>
<trkpt lat="25.211418" lon="101.248586">
<time>2016-10-07T03:53:19Z</time></trkpt>
<trkpt lat="25.211318" lon="101.247777">
<time>2016-10-07T03:53:20Z</time></trkpt>
<trkpt lat="25.211408" lon="101.247427">
<time>2016-10-07T03:53:21Z</time></trkpt>
<trkpt lat="25.211408" lon="101.247427">
<time>2016-10-07T03:53:22Z</time></trkpt>
<trkpt lat="25.211378" lon="101.247337">
<time>2016-10-07T03:53:23Z</time></trkpt>
<trkpt lat="25.211348" lon="101.247177">
<time>2016-10-07T03:53:24Z</time></trkpt>
<trkpt lat="25.211328" lon="101.247007">
<time>2016-10-07T03:53:25Z</time></trkpt>
<trkpt lat="25.211328" lon="101.246967">
<time>2016-10-07T03:53:26Z</time></trkpt>
<trkpt lat="25.211258" lon="101.246047">
<time>2016-10-07T03:53:27Z</time></trkpt>
<trkpt lat="25.211228" lon="101.245507">
<time>2016-10-07T03:53:28Z</time></trkpt>
<trkpt lat="25.211237" lon="101.245317">
<time>2016-10-07T03:53:29Z</time></trkpt>
<trkpt lat="25.211287" lon="101.245147">
<time>2016-10-07T03:53:30Z</time></trkpt>
<trkpt lat="25.211377" lon="101.244968">
<time>2016-10-07T03:53:31Z</time></trkpt>
<trkpt lat="25.211607" lon="101.244698">
<time>2016-10-07T03:53:32Z</time></trkpt>
<trkpt lat="25.212197" lon="101.244108">
<time>2016-10-07T03:53:33Z</time></trkpt>
<trkpt lat="25.212277" lon="101.244028">
<time>2016-10-07T03:53:34Z</time></trkpt>
<trkpt lat="25.212317" lon="101.243948">
<time>2016-10-07T03:53:35Z</time></trkpt>
<trkpt lat="25.212367" lon="101.243848">
<time>2016-10-07T03:53:36Z</time></trkpt>
<trkpt lat="25.212387" lon="101.243758">
<time>2016-10-07T03:53:37Z</time></trkpt>
<trkpt lat="25.212397" lon="101.243738">
<time>2016-10-07T03:53:38Z</time></trkpt>
<trkpt lat="25.212417" lon="101.243578">
<time>2016-10-07T03:53:39Z</time></trkpt>
<trkpt lat="25.212427" lon="101.243388">
<time>2016-10-07T03:53:40Z</time></trkpt>
<trkpt lat="25.212447" lon="101.242448">
<time>2016-10-07T03:53:41Z</time></trkpt>
<trkpt lat="25.212496" lon="101.240158">
<time>2016-10-07T03:53:42Z</time></trkpt>
<trkpt lat="25.212506" lon="101.239878">
<time>2016-10-07T03:53:43Z</time></trkpt>
<trkpt lat="25.212506" lon="101.239738">
<time>2016-10-07T03:53:44Z</time></trkpt>
<trkpt lat="25.212496" lon="101.239608">
<time>2016-10-07T03:53:45Z</time></trkpt>
<trkpt lat="25.212466" lon="101.239458">
<time>2016-10-07T03:53:46Z</time></trkpt>
<trkpt lat="25.212426" lon="101.239318">
<time>2016-10-07T03:53:47Z</time></trkpt>
<trkpt lat="25.212326" lon="101.239098">
<time>2016-10-07T03:53:48Z</time></trkpt>
<trkpt lat="25.212246" lon="101.238968">
<time>2016-10-07T03:53:49Z</time></trkpt>
<trkpt lat="25.211696" lon="101.238069">
<time>2016-10-07T03:53:50Z</time></trkpt>
<trkpt lat="25.211596" lon="101.237899">
<time>2016-10-07T03:53:51Z</time></trkpt>
<trkpt lat="25.211526" lon="101.237769">
<time>2016-10-07T03:53:52Z</time></trkpt>
<trkpt lat="25.211235" lon="101.237189">
<time>2016-10-07T03:53:53Z</time></trkpt>
<trkpt lat="25.211175" lon="101.237059">
<time>2016-10-07T03:53:54Z</time></trkpt>
<trkpt lat="25.211165" lon="101.237059">
<time>2016-10-07T03:53:55Z</time></trkpt>
<trkpt lat="25.211125" lon="101.236858">
<time>2016-10-07T03:53:56Z</time></trkpt>
<trkpt lat="25.211045" lon="101.236448">
<time>2016-10-07T03:53:57Z</time></trkpt>
<trkpt lat="25.210945" lon="101.236178">
<time>2016-10-07T03:53:58Z</time></trkpt>
<trkpt lat="25.210785" lon="101.235938">
<time>2016-10-07T03:53:59Z</time></trkpt>
<trkpt lat="25.210485" lon="101.235558">
<time>2016-10-07T03:54:00Z</time></trkpt>
<trkpt lat="25.209484" lon="101.234288">
<time>2016-10-07T03:54:01Z</time></trkpt>
<trkpt lat="25.209384" lon="101.234128">
<time>2016-10-07T03:54:02Z</time></trkpt>
<trkpt lat="25.209284" lon="101.233898">
<time>2016-10-07T03:54:03Z</time></trkpt>
<trkpt lat="25.209174" lon="101.233648">
<time>2016-10-07T03:54:04Z</time></trkpt>
<trkpt lat="25.209114" lon="101.233488">
<time>2016-10-07T03:54:05Z</time></trkpt>
<trkpt lat="25.208783" lon="101.232568">
<time>2016-10-07T03:54:06Z</time></trkpt>
<trkpt lat="25.208643" lon="101.232168">
<time>2016-10-07T03:54:07Z</time></trkpt>
<trkpt lat="25.208613" lon="101.231998">
<time>2016-10-07T03:54:08Z</time></trkpt>
<trkpt lat="25.208583" lon="101.231818">
<time>2016-10-07T03:54:09Z</time></trkpt>
<trkpt lat="25.208502" lon="101.230838">
<time>2016-10-07T03:54:10Z</time></trkpt>
<trkpt lat="25.208472" lon="101.230397">
<time>2016-10-07T03:54:11Z</time></trkpt>
<trkpt lat="25.208452" lon="101.230157">
<time>2016-10-07T03:54:12Z</time></trkpt>
<trkpt lat="25.208461" lon="101.229967">
<time>2016-10-07T03:54:13Z</time></trkpt>
<trkpt lat="25.208551" lon="101.229477">
<time>2016-10-07T03:54:14Z</time></trkpt>
<trkpt lat="25.208581" lon="101.229267">
<time>2016-10-07T03:54:15Z</time></trkpt>
<trkpt lat="25.209507" lon="101.224755">
<time>2016-10-07T03:54:16Z</time></trkpt>
<trkpt lat="25.209846" lon="101.222984">
<time>2016-10-07T03:54:17Z</time></trkpt>
<trkpt lat="25.209925" lon="101.222564">
<time>2016-10-07T03:54:18Z</time></trkpt>
<trkpt lat="25.210005" lon="101.222294">
<time>2016-10-07T03:54:19Z</time></trkpt>
<trkpt lat="25.210105" lon="101.222054">
<time>2016-10-07T03:54:20Z</time></trkpt>
<trkpt lat="25.210255" lon="101.221814">
<time>2016-10-07T03:54:21Z</time></trkpt>
<trkpt lat="25.210484" lon="101.221483">
<time>2016-10-07T03:54:22Z</time></trkpt>
<trkpt lat="25.211363" lon="101.220182">
<time>2016-10-07T03:54:23Z</time></trkpt>
<trkpt lat="25.211533" lon="101.219912">
<time>2016-10-07T03:54:24Z</time></trkpt>
<trkpt lat="25.211603" lon="101.219762">
<time>2016-10-07T03:54:25Z</time></trkpt>
<trkpt lat="25.211652" lon="101.219622">
<time>2016-10-07T03:54:26Z</time></trkpt>
<trkpt lat="25.211682" lon="101.219512">
<time>2016-10-07T03:54:27Z</time></trkpt>
<trkpt lat="25.211692" lon="101.219372">
<time>2016-10-07T03:54:28Z</time></trkpt>
<trkpt lat="25.211692" lon="101.219222">
<time>2016-10-07T03:54:29Z</time></trkpt>
<trkpt lat="25.211702" lon="101.218781">
<time>2016-10-07T03:54:30Z</time></trkpt>
<trkpt lat="25.211731" lon="101.217771">
<time>2016-10-07T03:54:31Z</time></trkpt>
<trkpt lat="25.21175" lon="101.217631">
<time>2016-10-07T03:54:32Z</time></trkpt>
<trkpt lat="25.2118" lon="101.217481">
<time>2016-10-07T03:54:33Z</time></trkpt>
<trkpt lat="25.21186" lon="101.21737">
<time>2016-10-07T03:54:34Z</time></trkpt>
<trkpt lat="25.21192" lon="101.21727">
<time>2016-10-07T03:54:35Z</time></trkpt>
<trkpt lat="25.21198" lon="101.21721">
<time>2016-10-07T03:54:36Z</time></trkpt>
<trkpt lat="25.21201" lon="101.21718">
<time>2016-10-07T03:54:37Z</time></trkpt>
<trkpt lat="25.2121" lon="101.21711">
<time>2016-10-07T03:54:38Z</time></trkpt>
<trkpt lat="25.2122" lon="101.21704">
<time>2016-10-07T03:54:39Z</time></trkpt>
<trkpt lat="25.212699" lon="101.21682">
<time>2016-10-07T03:54:40Z</time></trkpt>
<trkpt lat="25.212849" lon="101.21672">
<time>2016-10-07T03:54:41Z</time></trkpt>
<trkpt lat="25.212999" lon="101.21656">
<time>2016-10-07T03:54:42Z</time></trkpt>
<trkpt lat="25.214467" lon="101.214718">
<time>2016-10-07T03:54:43Z</time></trkpt>
<trkpt lat="25.216004" lon="101.212486">
<time>2016-10-07T03:54:44Z</time></trkpt>
<trkpt lat="25.216513" lon="101.211756">
<time>2016-10-07T03:54:45Z</time></trkpt>
<trkpt lat="25.216573" lon="101.211665">
<time>2016-10-07T03:54:46Z</time></trkpt>
<trkpt lat="25.216623" lon="101.211615">
<time>2016-10-07T03:54:47Z</time></trkpt>
<trkpt lat="25.216683" lon="101.211565">
<time>2016-10-07T03:54:48Z</time></trkpt>
<trkpt lat="25.216733" lon="101.211535">
<time>2016-10-07T03:54:49Z</time></trkpt>
<trkpt lat="25.216793" lon="101.211505">
<time>2016-10-07T03:54:50Z</time></trkpt>
<trkpt lat="25.216843" lon="101.211495">
<time>2016-10-07T03:54:51Z</time></trkpt>
<trkpt lat="25.216903" lon="101.211485">
<time>2016-10-07T03:54:52Z</time></trkpt>
<trkpt lat="25.216963" lon="101.211485">
<time>2016-10-07T03:54:53Z</time></trkpt>
<trkpt lat="25.217043" lon="101.211505">
<time>2016-10-07T03:54:54Z</time></trkpt>
<trkpt lat="25.217103" lon="101.211535">
<time>2016-10-07T03:54:55Z</time></trkpt>
<trkpt lat="25.217173" lon="101.211585">
<time>2016-10-07T03:54:56Z</time></trkpt>
<trkpt lat="25.217263" lon="101.211655">
<time>2016-10-07T03:54:57Z</time></trkpt>
<trkpt lat="25.217333" lon="101.211735">
<time>2016-10-07T03:54:58Z</time></trkpt>
<trkpt lat="25.217393" lon="101.211836">
<time>2016-10-07T03:54:59Z</time></trkpt>
<trkpt lat="25.217424" lon="101.211876">
<time>2016-10-07T03:55:00Z</time></trkpt>
<trkpt lat="25.217534" lon="101.212036">
<time>2016-10-07T03:55:01Z</time></trkpt>
<trkpt lat="25.217604" lon="101.212126">
<time>2016-10-07T03:55:02Z</time></trkpt>
<trkpt lat="25.217654" lon="101.212166">
<time>2016-10-07T03:55:03Z</time></trkpt>
<trkpt lat="25.217704" lon="101.212186">
<time>2016-10-07T03:55:04Z</time></trkpt>
<trkpt lat="25.217784" lon="101.212216">
<time>2016-10-07T03:55:05Z</time></trkpt>
<trkpt lat="25.217824" lon="101.212236">
<time>2016-10-07T03:55:06Z</time></trkpt>
<trkpt lat="25.217844" lon="101.212246">
<time>2016-10-07T03:55:07Z</time></trkpt>
<trkpt lat="25.218044" lon="101.212296">
<time>2016-10-07T03:55:08Z</time></trkpt>
<trkpt lat="25.218334" lon="101.212386">
<time>2016-10-07T03:55:09Z</time></trkpt>
<trkpt lat="25.218574" lon="101.212506">
<time>2016-10-07T03:55:10Z</time></trkpt>
<trkpt lat="25.219005" lon="101.212706">
<time>2016-10-07T03:55:11Z</time></trkpt>
<trkpt lat="25.219095" lon="101.212736">
<time>2016-10-07T03:55:12Z</time></trkpt>
<trkpt lat="25.219145" lon="101.212746">
<time>2016-10-07T03:55:13Z</time></trkpt>
<trkpt lat="25.219185" lon="101.212756">
<time>2016-10-07T03:55:14Z</time></trkpt>
<trkpt lat="25.219225" lon="101.212756">
<time>2016-10-07T03:55:15Z</time></trkpt>
<trkpt lat="25.219265" lon="101.212756">
<time>2016-10-07T03:55:16Z</time></trkpt>
<trkpt lat="25.219325" lon="101.212756">
<time>2016-10-07T03:55:17Z</time></trkpt>
<trkpt lat="25.219355" lon="101.212746">
<time>2016-10-07T03:55:18Z</time></trkpt>
<trkpt lat="25.219385" lon="101.212736">
<time>2016-10-07T03:55:19Z</time></trkpt>
<trkpt lat="25.219425" lon="101.212726">
<time>2016-10-07T03:55:20Z</time></trkpt>
<trkpt lat="25.219475" lon="101.212696">
<time>2016-10-07T03:55:21Z</time></trkpt>
<trkpt lat="25.219544" lon="101.212646">
<time>2016-10-07T03:55:22Z</time></trkpt>
<trkpt lat="25.219644" lon="101.212566">
<time>2016-10-07T03:55:23Z</time></trkpt>
<trkpt lat="25.219724" lon="101.212496">
<time>2016-10-07T03:55:24Z</time></trkpt>
<trkpt lat="25.220533" lon="101.211725">
<time>2016-10-07T03:55:25Z</time></trkpt>
<trkpt lat="25.220743" lon="101.211535">
<time>2016-10-07T03:55:26Z</time></trkpt>
<trkpt lat="25.222211" lon="101.210214">
<time>2016-10-07T03:55:27Z</time></trkpt>
<trkpt lat="25.222391" lon="101.210014">
<time>2016-10-07T03:55:28Z</time></trkpt>
<trkpt lat="25.222521" lon="101.209844">
<time>2016-10-07T03:55:29Z</time></trkpt>
<trkpt lat="25.222621" lon="101.209683">
<time>2016-10-07T03:55:30Z</time></trkpt>
<trkpt lat="25.22298" lon="101.209063">
<time>2016-10-07T03:55:31Z</time></trkpt>
<trkpt lat="25.223359" lon="101.208402">
<time>2016-10-07T03:55:32Z</time></trkpt>
<trkpt lat="25.224646" lon="101.20621">
<time>2016-10-07T03:55:33Z</time></trkpt>
<trkpt lat="25.225055" lon="101.205449">
<time>2016-10-07T03:55:34Z</time></trkpt>
<trkpt lat="25.225334" lon="101.204828">
<time>2016-10-07T03:55:35Z</time></trkpt>
<trkpt lat="25.225523" lon="101.204368">
<time>2016-10-07T03:55:36Z</time></trkpt>
<trkpt lat="25.225573" lon="101.204247">
<time>2016-10-07T03:55:37Z</time></trkpt>
<trkpt lat="25.225623" lon="101.204147">
<time>2016-10-07T03:55:38Z</time></trkpt>
<trkpt lat="25.225663" lon="101.204057">
<time>2016-10-07T03:55:39Z</time></trkpt>
<trkpt lat="25.225693" lon="101.203967">
<time>2016-10-07T03:55:40Z</time></trkpt>
<trkpt lat="25.225703" lon="101.203867">
<time>2016-10-07T03:55:41Z</time></trkpt>
<trkpt lat="25.225712" lon="101.203747">
<time>2016-10-07T03:55:42Z</time></trkpt>
<trkpt lat="25.225692" lon="101.203597">
<time>2016-10-07T03:55:43Z</time></trkpt>
<trkpt lat="25.225662" lon="101.203467">
<time>2016-10-07T03:55:44Z</time></trkpt>
<trkpt lat="25.225642" lon="101.203346">
<time>2016-10-07T03:55:45Z</time></trkpt>
<trkpt lat="25.225581" lon="101.203066">
<time>2016-10-07T03:55:46Z</time></trkpt>
<trkpt lat="25.22542" lon="101.202405">
<time>2016-10-07T03:55:47Z</time></trkpt>
<trkpt lat="25.225149" lon="101.201604">
<time>2016-10-07T03:55:48Z</time></trkpt>
<trkpt lat="25.225059" lon="101.201414">
<time>2016-10-07T03:55:49Z</time></trkpt>
<trkpt lat="25.224989" lon="101.201284">
<time>2016-10-07T03:55:50Z</time></trkpt>
<trkpt lat="25.224908" lon="101.201174">
<time>2016-10-07T03:55:51Z</time></trkpt>
<trkpt lat="25.224788" lon="101.201054">
<time>2016-10-07T03:55:52Z</time></trkpt>
<trkpt lat="25.224588" lon="101.200883">
<time>2016-10-07T03:55:53Z</time></trkpt>
<trkpt lat="25.224078" lon="101.200553">
<time>2016-10-07T03:55:54Z</time></trkpt>
<trkpt lat="25.222916" lon="101.199782">
<time>2016-10-07T03:55:55Z</time></trkpt>
<trkpt lat="25.222816" lon="101.199702">
<time>2016-10-07T03:55:56Z</time></trkpt>
<trkpt lat="25.222716" lon="101.199602">
<time>2016-10-07T03:55:57Z</time></trkpt>
<trkpt lat="25.222606" lon="101.199472">
<time>2016-10-07T03:55:58Z</time></trkpt>
<trkpt lat="25.222466" lon="101.199292">
<time>2016-10-07T03:55:59Z</time></trkpt>
<trkpt lat="25.222275" lon="101.199041">
<time>2016-10-07T03:56:00Z</time></trkpt>
<trkpt lat="25.221854" lon="101.1984">
<time>2016-10-07T03:56:01Z</time></trkpt>
<trkpt lat="25.221784" lon="101.19825">
<time>2016-10-07T03:56:02Z</time></trkpt>
<trkpt lat="25.221744" lon="101.19817">
<time>2016-10-07T03:56:03Z</time></trkpt>
<trkpt lat="25.221714" lon="101.19806">
<time>2016-10-07T03:56:04Z</time></trkpt>
<trkpt lat="25.221673" lon="101.19789">
<time>2016-10-07T03:56:05Z</time></trkpt>
<trkpt lat="25.221643" lon="101.19772">
<time>2016-10-07T03:56:06Z</time></trkpt>
<trkpt lat="25.221603" lon="101.197489">
<time>2016-10-07T03:56:07Z</time></trkpt>
<trkpt lat="25.221582" lon="101.197319">
<time>2016-10-07T03:56:08Z</time></trkpt>
<trkpt lat="25.221582" lon="101.197289">
<time>2016-10-07T03:56:09Z</time></trkpt>
<trkpt lat="25.221572" lon="101.197109">
<time>2016-10-07T03:56:10Z</time></trkpt>
<trkpt lat="25.221562" lon="101.196939">
<time>2016-10-07T03:56:11Z</time></trkpt>
<trkpt lat="25.221572" lon="101.196798">
<time>2016-10-07T03:56:12Z</time></trkpt>
<trkpt lat="25.221572" lon="101.196778">
<time>2016-10-07T03:56:13Z</time></trkpt>
<trkpt lat="25.221591" lon="101.196648">
<time>2016-10-07T03:56:14Z</time></trkpt>
<trkpt lat="25.221611" lon="101.196518">
<time>2016-10-07T03:56:15Z</time></trkpt>
<trkpt lat="25.22176" lon="101.195767">
<time>2016-10-07T03:56:16Z</time></trkpt>
<trkpt lat="25.2218" lon="101.195547">
<time>2016-10-07T03:56:17Z</time></trkpt>
<trkpt lat="25.221879" lon="101.195186">
<time>2016-10-07T03:56:18Z</time></trkpt>
<trkpt lat="25.221959" lon="101.194966">
<time>2016-10-07T03:56:19Z</time></trkpt>
<trkpt lat="25.222048" lon="101.194786">
<time>2016-10-07T03:56:20Z</time></trkpt>
<trkpt lat="25.222158" lon="101.194615">
<time>2016-10-07T03:56:21Z</time></trkpt>
<trkpt lat="25.222258" lon="101.194475">
<time>2016-10-07T03:56:22Z</time></trkpt>
<trkpt lat="25.222467" lon="101.194215">
<time>2016-10-07T03:56:23Z</time></trkpt>
<trkpt lat="25.222637" lon="101.194035">
<time>2016-10-07T03:56:24Z</time></trkpt>
<trkpt lat="25.222787" lon="101.193924">
<time>2016-10-07T03:56:25Z</time></trkpt>
<trkpt lat="25.223007" lon="101.193784">
<time>2016-10-07T03:56:26Z</time></trkpt>
<trkpt lat="25.223196" lon="101.193664">
<time>2016-10-07T03:56:27Z</time></trkpt>
<trkpt lat="25.223436" lon="101.193514">
<time>2016-10-07T03:56:28Z</time></trkpt>
<trkpt lat="25.223586" lon="101.193414">
<time>2016-10-07T03:56:29Z</time></trkpt>
<trkpt lat="25.223726" lon="101.193294">
<time>2016-10-07T03:56:30Z</time></trkpt>
<trkpt lat="25.223836" lon="101.193153">
<time>2016-10-07T03:56:31Z</time></trkpt>
<trkpt lat="25.223925" lon="101.193033">
<time>2016-10-07T03:56:32Z</time></trkpt>
<trkpt lat="25.224324" lon="101.192352">
<time>2016-10-07T03:56:33Z</time></trkpt>
<trkpt lat="25.224414" lon="101.192182">
<time>2016-10-07T03:56:34Z</time></trkpt>
<trkpt lat="25.224474" lon="101.192032">
<time>2016-10-07T03:56:35Z</time></trkpt>
<trkpt lat="25.224503" lon="101.191922">
<time>2016-10-07T03:56:36Z</time></trkpt>
<trkpt lat="25.224523" lon="101.191791">
<time>2016-10-07T03:56:37Z</time></trkpt>
<trkpt lat="25.224533" lon="101.191691">
<time>2016-10-07T03:56:38Z</time></trkpt>
<trkpt lat="25.224513" lon="101.191511">
<time>2016-10-07T03:56:39Z</time></trkpt>
<trkpt lat="25.224371" lon="101.19051">
<time>2016-10-07T03:56:40Z</time></trkpt>
<trkpt lat="25.224341" lon="101.190259">
<time>2016-10-07T03:56:41Z</time></trkpt>
<trkpt lat="25.22434" lon="101.190019">
<time>2016-10-07T03:56:42Z</time></trkpt>
<trkpt lat="25.22435" lon="101.189759">
<time>2016-10-07T03:56:43Z</time></trkpt>
<trkpt lat="25.22436" lon="101.189718">
<time>2016-10-07T03:56:44Z</time></trkpt>
<trkpt lat="25.224379" lon="101.189488">
<time>2016-10-07T03:56:45Z</time></trkpt>
<trkpt lat="25.224409" lon="101.189308">
<time>2016-10-07T03:56:46Z</time></trkpt>
<trkpt lat="25.224449" lon="101.189148">
<time>2016-10-07T03:56:47Z</time></trkpt>
<trkpt lat="25.224488" lon="101.189017">
<time>2016-10-07T03:56:48Z</time></trkpt>
<trkpt lat="25.224558" lon="101.188877">
<time>2016-10-07T03:56:49Z</time></trkpt>
<trkpt lat="25.224648" lon="101.188747">
<time>2016-10-07T03:56:50Z</time></trkpt>
<trkpt lat="25.225736" lon="101.187505">
<time>2016-10-07T03:56:51Z</time></trkpt>
<trkpt lat="25.225796" lon="101.187445">
<time>2016-10-07T03:56:52Z</time></trkpt>
<trkpt lat="25.225846" lon="101.187405">
<time>2016-10-07T03:56:53Z</time></trkpt>
<trkpt lat="25.225915" lon="101.187375">
<time>2016-10-07T03:56:54Z</time></trkpt>
<trkpt lat="25.225975" lon="101.187355">
<time>2016-10-07T03:56:55Z</time></trkpt>
<trkpt lat="25.226035" lon="101.187335">
<time>2016-10-07T03:56:56Z</time></trkpt>
<trkpt lat="25.226115" lon="101.187335">
<time>2016-10-07T03:56:57Z</time></trkpt>
<trkpt lat="25.226255" lon="101.187345">
<time>2016-10-07T03:56:58Z</time></trkpt>
<trkpt lat="25.228586" lon="101.187535">
<time>2016-10-07T03:56:59Z</time></trkpt>
<trkpt lat="25.228826" lon="101.187565">
<time>2016-10-07T03:57:00Z</time></trkpt>
<trkpt lat="25.228926" lon="101.187575">
<time>2016-10-07T03:57:01Z</time></trkpt>
<trkpt lat="25.229026" lon="101.187595">
<time>2016-10-07T03:57:02Z</time></trkpt>
<trkpt lat="25.229096" lon="101.187615">
<time>2016-10-07T03:57:03Z</time></trkpt>
<trkpt lat="25.229166" lon="101.187645">
<time>2016-10-07T03:57:04Z</time></trkpt>
<trkpt lat="25.229226" lon="101.187675">
<time>2016-10-07T03:57:05Z</time></trkpt>
<trkpt lat="25.229276" lon="101.187705">
<time>2016-10-07T03:57:06Z</time></trkpt>
<trkpt lat="25.229336" lon="101.187745">
<time>2016-10-07T03:57:07Z</time></trkpt>
<trkpt lat="25.229396" lon="101.187796">
<time>2016-10-07T03:57:08Z</time></trkpt>
<trkpt lat="25.229446" lon="101.187866">
<time>2016-10-07T03:57:09Z</time></trkpt>
<trkpt lat="25.229486" lon="101.187916">
<time>2016-10-07T03:57:10Z</time></trkpt>
<trkpt lat="25.229527" lon="101.187986">
<time>2016-10-07T03:57:11Z</time></trkpt>
<trkpt lat="25.229637" lon="101.188216">
<time>2016-10-07T03:57:12Z</time></trkpt>
<trkpt lat="25.229757" lon="101.188436">
<time>2016-10-07T03:57:13Z</time></trkpt>
<trkpt lat="25.229848" lon="101.188567">
<time>2016-10-07T03:57:14Z</time></trkpt>
<trkpt lat="25.229918" lon="101.188647">
<time>2016-10-07T03:57:15Z</time></trkpt>
<trkpt lat="25.229988" lon="101.188727">
<time>2016-10-07T03:57:16Z</time></trkpt>
<trkpt lat="25.230088" lon="101.188817">
<time>2016-10-07T03:57:17Z</time></trkpt>
<trkpt lat="25.230519" lon="101.189188">
<time>2016-10-07T03:57:18Z</time></trkpt>
<trkpt lat="25.231009" lon="101.189628">
<time>2016-10-07T03:57:19Z</time></trkpt>
<trkpt lat="25.23112" lon="101.189698">
<time>2016-10-07T03:57:20Z</time></trkpt>
<trkpt lat="25.23126" lon="101.189758">
<time>2016-10-07T03:57:21Z</time></trkpt>
<trkpt lat="25.23142" lon="101.189788">
<time>2016-10-07T03:57:22Z</time></trkpt>
<trkpt lat="25.23166" lon="101.189828">
<time>2016-10-07T03:57:23Z</time></trkpt>
<trkpt lat="25.23185" lon="101.189848">
<time>2016-10-07T03:57:24Z</time></trkpt>
<trkpt lat="25.232" lon="101.189848">
<time>2016-10-07T03:57:25Z</time></trkpt>
<trkpt lat="25.23212" lon="101.189828">
<time>2016-10-07T03:57:26Z</time></trkpt>
<trkpt lat="25.23221" lon="101.189788">
<time>2016-10-07T03:57:27Z</time></trkpt>
<trkpt lat="25.23223" lon="101.189778">
<time>2016-10-07T03:57:28Z</time></trkpt>
<trkpt lat="25.2323" lon="101.189698">
<time>2016-10-07T03:57:29Z</time></trkpt>
<trkpt lat="25.232349" lon="101.189598">
<time>2016-10-07T03:57:30Z</time></trkpt>
<trkpt lat="25.232389" lon="101.189488">
<time>2016-10-07T03:57:31Z</time></trkpt>
<trkpt lat="25.232409" lon="101.189388">
<time>2016-10-07T03:57:32Z</time></trkpt>
<trkpt lat="25.232419" lon="101.189278">
<time>2016-10-07T03:57:33Z</time></trkpt>
<trkpt lat="25.232419" lon="101.189157">
<time>2016-10-07T03:57:34Z</time></trkpt>
<trkpt lat="25.232418" lon="101.188957">
<time>2016-10-07T03:57:35Z</time></trkpt>
<trkpt lat="25.232388" lon="101.188757">
<time>2016-10-07T03:57:36Z</time></trkpt>
<trkpt lat="25.232358" lon="101.188587">
<time>2016-10-07T03:57:37Z</time></trkpt>
<trkpt lat="25.232277" lon="101.188256">
<time>2016-10-07T03:57:38Z</time></trkpt>
<trkpt lat="25.232257" lon="101.188136">
<time>2016-10-07T03:57:39Z</time></trkpt>
<trkpt lat="25.232257" lon="101.188036">
<time>2016-10-07T03:57:40Z</time></trkpt>
<trkpt lat="25.232267" lon="101.187936">
<time>2016-10-07T03:57:41Z</time></trkpt>
<trkpt lat="25.232286" lon="101.187815">
<time>2016-10-07T03:57:42Z</time></trkpt>
<trkpt lat="25.232326" lon="101.187715">
<time>2016-10-07T03:57:43Z</time></trkpt>
<trkpt lat="25.232366" lon="101.187635">
<time>2016-10-07T03:57:44Z</time></trkpt>
<trkpt lat="25.232745" lon="101.187144">
<time>2016-10-07T03:57:45Z</time></trkpt>
<trkpt lat="25.232815" lon="101.187004">
<time>2016-10-07T03:57:46Z</time></trkpt>
<trkpt lat="25.232865" lon="101.186864">
<time>2016-10-07T03:57:47Z</time></trkpt>
<trkpt lat="25.232904" lon="101.186714">
<time>2016-10-07T03:57:48Z</time></trkpt>
<trkpt lat="25.233121" lon="101.184731">
<time>2016-10-07T03:57:49Z</time></trkpt>
<trkpt lat="25.233278" lon="101.183329">
<time>2016-10-07T03:57:50Z</time></trkpt>
<trkpt lat="25.233338" lon="101.182978">
<time>2016-10-07T03:57:51Z</time></trkpt>
<trkpt lat="25.233367" lon="101.182858">
<time>2016-10-07T03:57:52Z</time></trkpt>
<trkpt lat="25.233417" lon="101.182738">
<time>2016-10-07T03:57:53Z</time></trkpt>
<trkpt lat="25.233457" lon="101.182618">
<time>2016-10-07T03:57:54Z</time></trkpt>
<trkpt lat="25.233517" lon="101.182507">
<time>2016-10-07T03:57:55Z</time></trkpt>
<trkpt lat="25.233587" lon="101.182387">
<time>2016-10-07T03:57:56Z</time></trkpt>
<trkpt lat="25.233666" lon="101.182277">
<time>2016-10-07T03:57:57Z</time></trkpt>
<trkpt lat="25.234175" lon="101.181536">
<time>2016-10-07T03:57:58Z</time></trkpt>
<trkpt lat="25.234215" lon="101.181476">
<time>2016-10-07T03:57:59Z</time></trkpt>
<trkpt lat="25.234534" lon="101.181055">
<time>2016-10-07T03:58:00Z</time></trkpt>
<trkpt lat="25.234883" lon="101.180645">
<time>2016-10-07T03:58:01Z</time></trkpt>
<trkpt lat="25.235282" lon="101.180194">
<time>2016-10-07T03:58:02Z</time></trkpt>
<trkpt lat="25.236301" lon="101.179122">
<time>2016-10-07T03:58:03Z</time></trkpt>
<trkpt lat="25.23674" lon="101.178621">
<time>2016-10-07T03:58:04Z</time></trkpt>
<trkpt lat="25.236839" lon="101.178511">
<time>2016-10-07T03:58:05Z</time></trkpt>
<trkpt lat="25.236909" lon="101.178421">
<time>2016-10-07T03:58:06Z</time></trkpt>
<trkpt lat="25.236959" lon="101.178321">
<time>2016-10-07T03:58:07Z</time></trkpt>
<trkpt lat="25.237009" lon="101.178211">
<time>2016-10-07T03:58:08Z</time></trkpt>
<trkpt lat="25.237049" lon="101.178111">
<time>2016-10-07T03:58:09Z</time></trkpt>
<trkpt lat="25.237059" lon="101.1781">
<time>2016-10-07T03:58:10Z</time></trkpt>
<trkpt lat="25.237098" lon="101.17793">
<time>2016-10-07T03:58:11Z</time></trkpt>
<trkpt lat="25.237257" lon="101.177259">
<time>2016-10-07T03:58:12Z</time></trkpt>
<trkpt lat="25.237336" lon="101.176768">
<time>2016-10-07T03:58:13Z</time></trkpt>
<trkpt lat="25.237356" lon="101.176558">
<time>2016-10-07T03:58:14Z</time></trkpt>
<trkpt lat="25.237335" lon="101.176358">
<time>2016-10-07T03:58:15Z</time></trkpt>
<trkpt lat="25.237265" lon="101.175927">
<time>2016-10-07T03:58:16Z</time></trkpt>
<trkpt lat="25.237183" lon="101.175356">
<time>2016-10-07T03:58:17Z</time></trkpt>
<trkpt lat="25.237143" lon="101.175116">
<time>2016-10-07T03:58:18Z</time></trkpt>
<trkpt lat="25.237112" lon="101.174805">
<time>2016-10-07T03:58:19Z</time></trkpt>
<trkpt lat="25.237102" lon="101.174575">
<time>2016-10-07T03:58:20Z</time></trkpt>
<trkpt lat="25.237102" lon="101.174325">
<time>2016-10-07T03:58:21Z</time></trkpt>
<trkpt lat="25.237121" lon="101.174044">
<time>2016-10-07T03:58:22Z</time></trkpt>
<trkpt lat="25.23716" lon="101.173563">
<time>2016-10-07T03:58:23Z</time></trkpt>
<trkpt lat="25.23716" lon="101.173393">
<time>2016-10-07T03:58:24Z</time></trkpt>
<trkpt lat="25.237139" lon="101.173223">
<time>2016-10-07T03:58:25Z</time></trkpt>
<trkpt lat="25.237139" lon="101.173213">
<time>2016-10-07T03:58:26Z</time></trkpt>
<trkpt lat="25.237079" lon="101.172962">
<time>2016-10-07T03:58:27Z</time></trkpt>
<trkpt lat="25.236999" lon="101.172732">
<time>2016-10-07T03:58:28Z</time></trkpt>
<trkpt lat="25.236908" lon="101.172502">
<time>2016-10-07T03:58:29Z</time></trkpt>
<trkpt lat="25.236838" lon="101.172271">
<time>2016-10-07T03:58:30Z</time></trkpt>
<trkpt lat="25.236838" lon="101.172251">
<time>2016-10-07T03:58:31Z</time></trkpt>
<trkpt lat="25.236807" lon="101.172111">
<time>2016-10-07T03:58:32Z</time></trkpt>
<trkpt lat="25.236777" lon="101.171951">
<time>2016-10-07T03:58:33Z</time></trkpt>
<trkpt lat="25.236767" lon="101.17166">
<time>2016-10-07T03:58:34Z</time></trkpt>
<trkpt lat="25.236734" lon="101.170388">
<time>2016-10-07T03:58:35Z</time></trkpt>
<trkpt lat="25.236744" lon="101.170208">
<time>2016-10-07T03:58:36Z</time></trkpt>
<trkpt lat="25.236753" lon="101.170058">
<time>2016-10-07T03:58:37Z</time></trkpt>
<trkpt lat="25.236793" lon="101.169797">
<time>2016-10-07T03:58:38Z</time></trkpt>
<trkpt lat="25.236823" lon="101.169577">
<time>2016-10-07T03:58:39Z</time></trkpt>
<trkpt lat="25.236823" lon="101.169567">
<time>2016-10-07T03:58:40Z</time></trkpt>
<trkpt lat="25.236842" lon="101.169357">
<time>2016-10-07T03:58:41Z</time></trkpt>
<trkpt lat="25.236841" lon="101.168836">
<time>2016-10-07T03:58:42Z</time></trkpt>
<trkpt lat="25.236841" lon="101.168786">
<time>2016-10-07T03:58:43Z</time></trkpt>
<trkpt lat="25.236851" lon="101.168746">
<time>2016-10-07T03:58:44Z</time></trkpt>
<trkpt lat="25.236871" lon="101.168706">
<time>2016-10-07T03:58:45Z</time></trkpt>
<trkpt lat="25.236891" lon="101.168666">
<time>2016-10-07T03:58:46Z</time></trkpt>
<trkpt lat="25.236911" lon="101.168636">
<time>2016-10-07T03:58:47Z</time></trkpt>
<trkpt lat="25.236941" lon="101.168595">
<time>2016-10-07T03:58:48Z</time></trkpt>
<trkpt lat="25.236961" lon="101.168565">
<time>2016-10-07T03:58:49Z</time></trkpt>
<trkpt lat="25.236991" lon="101.168545">
<time>2016-10-07T03:58:50Z</time></trkpt>
<trkpt lat="25.237001" lon="101.168545">
<time>2016-10-07T03:58:51Z</time></trkpt>
<trkpt lat="25.237061" lon="101.168505">
<time>2016-10-07T03:58:52Z</time></trkpt>
<trkpt lat="25.23751" lon="101.168205">
<time>2016-10-07T03:58:53Z</time></trkpt>
<trkpt lat="25.237439" lon="101.167734">
<time>2016-10-07T03:58:54Z</time></trkpt>
<trkpt lat="25.237318" lon="101.167203">
<time>2016-10-07T03:58:55Z</time></trkpt>
<trkpt lat="25.236926" lon="101.166041">
<time>2016-10-07T03:58:56Z</time></trkpt>
<trkpt lat="25.236886" lon="101.165931">
<time>2016-10-07T03:58:57Z</time></trkpt>
<trkpt lat="25.236855" lon="101.165821">
<time>2016-10-07T03:58:58Z</time></trkpt>
<trkpt lat="25.236825" lon="101.165671">
<time>2016-10-07T03:58:59Z</time></trkpt>
<trkpt lat="25.236805" lon="101.165531">
<time>2016-10-07T03:59:00Z</time></trkpt>
<trkpt lat="25.236785" lon="101.1653">
<time>2016-10-07T03:59:01Z</time></trkpt>
<trkpt lat="25.236754" lon="101.16503">
<time>2016-10-07T03:59:02Z</time></trkpt>
<trkpt lat="25.236733" lon="101.164579">
<time>2016-10-07T03:59:03Z</time></trkpt>
<trkpt lat="25.236733" lon="101.164289">
<time>2016-10-07T03:59:04Z</time></trkpt>
<trkpt lat="25.236742" lon="101.164158">
<time>2016-10-07T03:59:05Z</time></trkpt>
<trkpt lat="25.236752" lon="101.164028">
<time>2016-10-07T03:59:06Z</time></trkpt>
<trkpt lat="25.236782" lon="101.163918">
<time>2016-10-07T03:59:07Z</time></trkpt>
<trkpt lat="25.236812" lon="101.163788">
<time>2016-10-07T03:59:08Z</time></trkpt>
<trkpt lat="25.236931" lon="101.163407">
<time>2016-10-07T03:59:09Z</time></trkpt>
<trkpt lat="25.237557" lon="101.161524">
<time>2016-10-07T03:59:10Z</time></trkpt>
<trkpt lat="25.237895" lon="101.160332">
<time>2016-10-07T03:59:11Z</time></trkpt>
<trkpt lat="25.238104" lon="101.159511">
<time>2016-10-07T03:59:12Z</time></trkpt>
<trkpt lat="25.238223" lon="101.15885">
<time>2016-10-07T03:59:13Z</time></trkpt>
<trkpt lat="25.238252" lon="101.15872">
<time>2016-10-07T03:59:14Z</time></trkpt>
<trkpt lat="25.238302" lon="101.15857">
<time>2016-10-07T03:59:15Z</time></trkpt>
<trkpt lat="25.238352" lon="101.15844">
<time>2016-10-07T03:59:16Z</time></trkpt>
<trkpt lat="25.238392" lon="101.158349">
<time>2016-10-07T03:59:17Z</time></trkpt>
<trkpt lat="25.238451" lon="101.158239">
<time>2016-10-07T03:59:18Z</time></trkpt>
<trkpt lat="25.238531" lon="101.158129">
<time>2016-10-07T03:59:19Z</time></trkpt>
<trkpt lat="25.238611" lon="101.158019">
<time>2016-10-07T03:59:20Z</time></trkpt>
<trkpt lat="25.238671" lon="101.157959">
<time>2016-10-07T03:59:21Z</time></trkpt>
<trkpt lat="25.238671" lon="101.157959">
<time>2016-10-07T03:59:22Z</time></trkpt>
<trkpt lat="25.238661" lon="101.157879">
<time>2016-10-07T03:59:23Z</time></trkpt>
<trkpt lat="25.238661" lon="101.157849">
<time>2016-10-07T03:59:24Z</time></trkpt>
<trkpt lat="25.238711" lon="101.157769">
<time>2016-10-07T03:59:25Z</time></trkpt>
<trkpt lat="25.23888" lon="101.157478">
<time>2016-10-07T03:59:26Z</time></trkpt>
<trkpt lat="25.23892" lon="101.157358">
<time>2016-10-07T03:59:27Z</time></trkpt>
<trkpt lat="25.23894" lon="101.157258">
<time>2016-10-07T03:59:28Z</time></trkpt>
<trkpt lat="25.23894" lon="101.157198">
<time>2016-10-07T03:59:29Z</time></trkpt>
<trkpt lat="25.238939" lon="101.157148">
<time>2016-10-07T03:59:30Z</time></trkpt>
<trkpt lat="25.238919" lon="101.157118">
<time>2016-10-07T03:59:31Z</time></trkpt>
<trkpt lat="25.238899" lon="101.157078">
<time>2016-10-07T03:59:32Z</time></trkpt>
<trkpt lat="25.238769" lon="101.156957">
<time>2016-10-07T03:59:33Z</time></trkpt>
<trkpt lat="25.238729" lon="101.156937">
<time>2016-10-07T03:59:34Z</time></trkpt>
<trkpt lat="25.238689" lon="101.156917">
<time>2016-10-07T03:59:35Z</time></trkpt>
<trkpt lat="25.238599" lon="101.156907">
<time>2016-10-07T03:59:36Z</time></trkpt>
<trkpt lat="25.238489" lon="101.156887">
<time>2016-10-07T03:59:37Z</time></trkpt>
<trkpt lat="25.238329" lon="101.156847">
<time>2016-10-07T03:59:38Z</time></trkpt>
<trkpt lat="25.238199" lon="101.156827">
<time>2016-10-07T03:59:39Z</time></trkpt>
<trkpt lat="25.238089" lon="101.156807">
<time>2016-10-07T03:59:40Z</time></trkpt>
<trkpt lat="25.237999" lon="101.156797">
<time>2016-10-07T03:59:41Z</time></trkpt>
<trkpt lat="25.237979" lon="101.156787">
<time>2016-10-07T03:59:42Z</time></trkpt>
<trkpt lat="25.237959" lon="101.156767">
<time>2016-10-07T03:59:43Z</time></trkpt>
<trkpt lat="25.237949" lon="101.156727">
<time>2016-10-07T03:59:44Z</time></trkpt>
<trkpt lat="25.237959" lon="101.156667">
<time>2016-10-07T03:59:45Z</time></trkpt>
<trkpt lat="25.237988" lon="101.156487">
<time>2016-10-07T03:59:46Z</time></trkpt>
<trkpt lat="25.238028" lon="101.156286">
<time>2016-10-07T03:59:47Z</time></trkpt>
<trkpt lat="25.238078" lon="101.156146">
<time>2016-10-07T03:59:48Z</time></trkpt>
<trkpt lat="25.238137" lon="101.155946">
<time>2016-10-07T03:59:49Z</time></trkpt>
<trkpt lat="25.238227" lon="101.155555">
<time>2016-10-07T03:59:50Z</time></trkpt>
<trkpt lat="25.238346" lon="101.155165">
<time>2016-10-07T03:59:51Z</time></trkpt>
<trkpt lat="25.238485" lon="101.154824">
<time>2016-10-07T03:59:52Z</time></trkpt>
<trkpt lat="25.238525" lon="101.154744">
<time>2016-10-07T03:59:53Z</time></trkpt>
<trkpt lat="25.238535" lon="101.154704">
<time>2016-10-07T03:59:54Z</time></trkpt>
<trkpt lat="25.238525" lon="101.154674">
<time>2016-10-07T03:59:55Z</time></trkpt>
<trkpt lat="25.238494" lon="101.154233">
<time>2016-10-07T03:59:56Z</time></trkpt>
<trkpt lat="25.238494" lon="101.154103">
<time>2016-10-07T03:59:57Z</time></trkpt>
<trkpt lat="25.238514" lon="101.154003">
<time>2016-10-07T03:59:58Z</time></trkpt>
<trkpt lat="25.238593" lon="101.153733">
<time>2016-10-07T03:59:59Z</time></trkpt>
<trkpt lat="25.238623" lon="101.153662">
<time>2016-10-07T04:00:00Z</time></trkpt>
<trkpt lat="25.238673" lon="101.153602">
<time>2016-10-07T04:00:01Z</time></trkpt>
<trkpt lat="25.238733" lon="101.153552">
<time>2016-10-07T04:00:02Z</time></trkpt>
<trkpt lat="25.238853" lon="101.153462">
<time>2016-10-07T04:00:03Z</time></trkpt>
<trkpt lat="25.239182" lon="101.153242">
<time>2016-10-07T04:00:04Z</time></trkpt>
<trkpt lat="25.239302" lon="101.153162">
<time>2016-10-07T04:00:05Z</time></trkpt>
<trkpt lat="25.239432" lon="101.153042">
<time>2016-10-07T04:00:06Z</time></trkpt>
<trkpt lat="25.239482" lon="101.152961">
<time>2016-10-07T04:00:07Z</time></trkpt>
<trkpt lat="25.2401" lon="101.15209">
<time>2016-10-07T04:00:08Z</time></trkpt>
<trkpt lat="25.24013" lon="101.15202">
<time>2016-10-07T04:00:09Z</time></trkpt>
<trkpt lat="25.24014" lon="101.15196">
<time>2016-10-07T04:00:10Z</time></trkpt>
<trkpt lat="25.24014" lon="101.1519">
<time>2016-10-07T04:00:11Z</time></trkpt>
<trkpt lat="25.24011" lon="101.15173">
<time>2016-10-07T04:00:12Z</time></trkpt>
<trkpt lat="25.24007" lon="101.151609">
<time>2016-10-07T04:00:13Z</time></trkpt>
<trkpt lat="25.239999" lon="101.151459">
<time>2016-10-07T04:00:14Z</time></trkpt>
<trkpt lat="25.239889" lon="101.151289">
<time>2016-10-07T04:00:15Z</time></trkpt>
<trkpt lat="25.239729" lon="101.151039">
<time>2016-10-07T04:00:16Z</time></trkpt>
<trkpt lat="25.239478" lon="101.150668">
<time>2016-10-07T04:00:17Z</time></trkpt>
<trkpt lat="25.239107" lon="101.150097">
<time>2016-10-07T04:00:18Z</time></trkpt>
<trkpt lat="25.238916" lon="101.149817">
<time>2016-10-07T04:00:19Z</time></trkpt>
<trkpt lat="25.238756" lon="101.149547">
<time>2016-10-07T04:00:20Z</time></trkpt>
<trkpt lat="25.238596" lon="101.149316">
<time>2016-10-07T04:00:21Z</time></trkpt>
<trkpt lat="25.238575" lon="101.149276">
<time>2016-10-07T04:00:22Z</time></trkpt>
<trkpt lat="25.238295" lon="101.148876">
<time>2016-10-07T04:00:23Z</time></trkpt>
<trkpt lat="25.238174" lon="101.148695">
<time>2016-10-07T04:00:24Z</time></trkpt>
<trkpt lat="25.238054" lon="101.148485">
<time>2016-10-07T04:00:25Z</time></trkpt>
<trkpt lat="25.237994" lon="101.148335">
<time>2016-10-07T04:00:26Z</time></trkpt>
<trkpt lat="25.237954" lon="101.148185">
<time>2016-10-07T04:00:27Z</time></trkpt>
<trkpt lat="25.237913" lon="101.147954">
<time>2016-10-07T04:00:28Z</time></trkpt>
<trkpt lat="25.237873" lon="101.147814">
<time>2016-10-07T04:00:29Z</time></trkpt>
<trkpt lat="25.237833" lon="101.147734">
<time>2016-10-07T04:00:30Z</time></trkpt>
<trkpt lat="25.237783" lon="101.147654">
<time>2016-10-07T04:00:31Z</time></trkpt>
<trkpt lat="25.237733" lon="101.147604">
<time>2016-10-07T04:00:32Z</time></trkpt>
<trkpt lat="25.237733" lon="101.147604">
<time>2016-10-07T04:00:33Z</time></trkpt>
<trkpt lat="25.237762" lon="101.147384">
<time>2016-10-07T04:00:34Z</time></trkpt>
<trkpt lat="25.237822" lon="101.147073">
<time>2016-10-07T04:00:35Z</time></trkpt>
<trkpt lat="25.237891" lon="101.146823">
<time>2016-10-07T04:00:36Z</time></trkpt>
<trkpt lat="25.237971" lon="101.146633">
<time>2016-10-07T04:00:37Z</time></trkpt>
<trkpt lat="25.238101" lon="101.146422">
<time>2016-10-07T04:00:38Z</time></trkpt>
<trkpt lat="25.2383" lon="101.146162">
<time>2016-10-07T04:00:39Z</time></trkpt>
<trkpt lat="25.23845" lon="101.145902">
<time>2016-10-07T04:00:40Z</time></trkpt>
<trkpt lat="25.2385" lon="101.145772">
<time>2016-10-07T04:00:41Z</time></trkpt>
<trkpt lat="25.238519" lon="101.145631">
<time>2016-10-07T04:00:42Z</time></trkpt>
<trkpt lat="25.238549" lon="101.145401">
<time>2016-10-07T04:00:43Z</time></trkpt>
<trkpt lat="25.238549" lon="101.145371">
<time>2016-10-07T04:00:44Z</time></trkpt>
<trkpt lat="25.238549" lon="101.145371">
<time>2016-10-07T04:00:45Z</time></trkpt>
<trkpt lat="25.238617" lon="101.14429">
<time>2016-10-07T04:00:46Z</time></trkpt>
<trkpt lat="25.238667" lon="101.144029">
<time>2016-10-07T04:00:47Z</time></trkpt>
<trkpt lat="25.238736" lon="101.143729">
<time>2016-10-07T04:00:48Z</time></trkpt>
<trkpt lat="25.238856" lon="101.143348">
<time>2016-10-07T04:00:49Z</time></trkpt>
<trkpt lat="25.238905" lon="101.143118">
<time>2016-10-07T04:00:50Z</time></trkpt>
<trkpt lat="25.238935" lon="101.142898">
<time>2016-10-07T04:00:51Z</time></trkpt>
<trkpt lat="25.238935" lon="101.142718">
<time>2016-10-07T04:00:52Z</time></trkpt>
<trkpt lat="25.238924" lon="101.142658">
<time>2016-10-07T04:00:53Z</time></trkpt>
<trkpt lat="25.238884" lon="101.142507">
<time>2016-10-07T04:00:54Z</time></trkpt>
<trkpt lat="25.238864" lon="101.142377">
<time>2016-10-07T04:00:55Z</time></trkpt>
<trkpt lat="25.238864" lon="101.142177">
<time>2016-10-07T04:00:56Z</time></trkpt>
<trkpt lat="25.238874" lon="101.142087">
<time>2016-10-07T04:00:57Z</time></trkpt>
<trkpt lat="25.238893" lon="101.141997">
<time>2016-10-07T04:00:58Z</time></trkpt>
<trkpt lat="25.238943" lon="101.141917">
<time>2016-10-07T04:00:59Z</time></trkpt>
<trkpt lat="25.238983" lon="101.141867">
<time>2016-10-07T04:01:00Z</time></trkpt>
<trkpt lat="25.239023" lon="101.141827">
<time>2016-10-07T04:01:01Z</time></trkpt>
<trkpt lat="25.239143" lon="101.141636">
<time>2016-10-07T04:01:02Z</time></trkpt>
<trkpt lat="25.239253" lon="101.141446">
<time>2016-10-07T04:01:03Z</time></trkpt>
<trkpt lat="25.239273" lon="101.141436">
<time>2016-10-07T04:01:04Z</time></trkpt>
<trkpt lat="25.239492" lon="101.141266">
<time>2016-10-07T04:01:05Z</time></trkpt>
<trkpt lat="25.239722" lon="101.141116">
<time>2016-10-07T04:01:06Z</time></trkpt>
<trkpt lat="25.240122" lon="101.140885">
<time>2016-10-07T04:01:07Z</time></trkpt>
<trkpt lat="25.240611" lon="101.140585">
<time>2016-10-07T04:01:08Z</time></trkpt>
<trkpt lat="25.240791" lon="101.140485">
<time>2016-10-07T04:01:09Z</time></trkpt>
<trkpt lat="25.241191" lon="101.140285">
<time>2016-10-07T04:01:10Z</time></trkpt>
<trkpt lat="25.24189" lon="101.139894">
<time>2016-10-07T04:01:11Z</time></trkpt>
<trkpt lat="25.24214" lon="101.139754">
<time>2016-10-07T04:01:12Z</time></trkpt>
<trkpt lat="25.24239" lon="101.139634">
<time>2016-10-07T04:01:13Z</time></trkpt>
<trkpt lat="25.24256" lon="101.139524">
<time>2016-10-07T04:01:14Z</time></trkpt>
<trkpt lat="25.242769" lon="101.139333">
<time>2016-10-07T04:01:15Z</time></trkpt>
<trkpt lat="25.242849" lon="101.139233">
<time>2016-10-07T04:01:16Z</time></trkpt>
<trkpt lat="25.242989" lon="101.139003">
<time>2016-10-07T04:01:17Z</time></trkpt>
<trkpt lat="25.243069" lon="101.138823">
<time>2016-10-07T04:01:18Z</time></trkpt>
<trkpt lat="25.243118" lon="101.138633">
<time>2016-10-07T04:01:19Z</time></trkpt>
<trkpt lat="25.243148" lon="101.138492">
<time>2016-10-07T04:01:20Z</time></trkpt>
<trkpt lat="25.243178" lon="101.138332">
<time>2016-10-07T04:01:21Z</time></trkpt>
<trkpt lat="25.243197" lon="101.138052">
<time>2016-10-07T04:01:22Z</time></trkpt>
<trkpt lat="25.243207" lon="101.137852">
<time>2016-10-07T04:01:23Z</time></trkpt>
<trkpt lat="25.243247" lon="101.137481">
<time>2016-10-07T04:01:24Z</time></trkpt>
<trkpt lat="25.243306" lon="101.137081">
<time>2016-10-07T04:01:25Z</time></trkpt>
<trkpt lat="25.243365" lon="101.13653">
<time>2016-10-07T04:01:26Z</time></trkpt>
<trkpt lat="25.243405" lon="101.13618">
<time>2016-10-07T04:01:27Z</time></trkpt>
<trkpt lat="25.243444" lon="101.13586">
<time>2016-10-07T04:01:28Z</time></trkpt>
<trkpt lat="25.243504" lon="101.135509">
<time>2016-10-07T04:01:29Z</time></trkpt>
<trkpt lat="25.243543" lon="101.135279">
<time>2016-10-07T04:01:30Z</time></trkpt>
<trkpt lat="25.243573" lon="101.135209">
<time>2016-10-07T04:01:31Z</time></trkpt>
<trkpt lat="25.243593" lon="101.135169">
<time>2016-10-07T04:01:32Z</time></trkpt>
<trkpt lat="25.243893" lon="101.135029">
<time>2016-10-07T04:01:33Z</time></trkpt>
<trkpt lat="25.243913" lon="101.135029">
<time>2016-10-07T04:01:34Z</time></trkpt>
<trkpt lat="25.243933" lon="101.135039">
<time>2016-10-07T04:01:35Z</time></trkpt>
<trkpt lat="25.243993" lon="101.135099">
<time>2016-10-07T04:01:36Z</time></trkpt>
<trkpt lat="25.243993" lon="101.135099">
<time>2016-10-07T04:01:37Z</time></trkpt>
<trkpt lat="25.244013" lon="101.135069">
<time>2016-10-07T04:01:38Z</time></trkpt>
<trkpt lat="25.244043" lon="101.135029">
<time>2016-10-07T04:01:39Z</time></trkpt>
<trkpt lat="25.244183" lon="101.134839">
<time>2016-10-07T04:01:40Z</time></trkpt>
<trkpt lat="25.244263" lon="101.134728">
<time>2016-10-07T04:01:41Z</time></trkpt>
<trkpt lat="25.244333" lon="101.134618">
<time>2016-10-07T04:01:42Z</time></trkpt>
<trkpt lat="25.244392" lon="101.134518">
<time>2016-10-07T04:01:43Z</time></trkpt>
<trkpt lat="25.244452" lon="101.134428">
<time>2016-10-07T04:01:44Z</time></trkpt>
<trkpt lat="25.244502" lon="101.134378">
<time>2016-10-07T04:01:45Z</time></trkpt>
<trkpt lat="25.244542" lon="101.134338">
<time>2016-10-07T04:01:46Z</time></trkpt>
<trkpt lat="25.244572" lon="101.134318">
<time>2016-10-07T04:01:47Z</time></trkpt>
<trkpt lat="25.244612" lon="101.134288">
<time>2016-10-07T04:01:48Z</time></trkpt>
<trkpt lat="25.244652" lon="101.134258">
<time>2016-10-07T04:01:49Z</time></trkpt>
<trkpt lat="25.244692" lon="101.134248">
<time>2016-10-07T04:01:50Z</time></trkpt>
<trkpt lat="25.244722" lon="101.134238">
<time>2016-10-07T04:01:51Z</time></trkpt>
<trkpt lat="25.244762" lon="101.134238">
<time>2016-10-07T04:01:52Z</time></trkpt>
<trkpt lat="25.244792" lon="101.134238">
<time>2016-10-07T04:01:53Z</time></trkpt>
<trkpt lat="25.244862" lon="101.134248">
<time>2016-10-07T04:01:54Z</time></trkpt>
<trkpt lat="25.244942" lon="101.134258">
<time>2016-10-07T04:01:55Z</time></trkpt>
<trkpt lat="25.245022" lon="101.134278">
<time>2016-10-07T04:01:56Z</time></trkpt>
<trkpt lat="25.245132" lon="101.134318">
<time>2016-10-07T04:01:57Z</time></trkpt>
<trkpt lat="25.245582" lon="101.134478">
<time>2016-10-07T04:01:58Z</time></trkpt>
<trkpt lat="25.245692" lon="101.134498">
<time>2016-10-07T04:01:59Z</time></trkpt>
<trkpt lat="25.245802" lon="101.134518">
<time>2016-10-07T04:02:00Z</time></trkpt>
<trkpt lat="25.245882" lon="101.134518">
<time>2016-10-07T04:02:01Z</time></trkpt>
<trkpt lat="25.245982" lon="101.134508">
<time>2016-10-07T04:02:02Z</time></trkpt>
<trkpt lat="25.246082" lon="101.134478">
<time>2016-10-07T04:02:03Z</time></trkpt>
<trkpt lat="25.246442" lon="101.134338">
<time>2016-10-07T04:02:04Z</time></trkpt>
<trkpt lat="25.246762" lon="101.134248">
<time>2016-10-07T04:02:05Z</time></trkpt>
<trkpt lat="25.247062" lon="101.134188">
<time>2016-10-07T04:02:06Z</time></trkpt>
<trkpt lat="25.247212" lon="101.134168">
<time>2016-10-07T04:02:07Z</time></trkpt>
<trkpt lat="25.247412" lon="101.134138">
<time>2016-10-07T04:02:08Z</time></trkpt>
<trkpt lat="25.247552" lon="101.134108">
<time>2016-10-07T04:02:09Z</time></trkpt>
<trkpt lat="25.247682" lon="101.134078">
<time>2016-10-07T04:02:10Z</time></trkpt>
<trkpt lat="25.247802" lon="101.134048">
<time>2016-10-07T04:02:11Z</time></trkpt>
<trkpt lat="25.247912" lon="101.134018">
<time>2016-10-07T04:02:12Z</time></trkpt>
<trkpt lat="25.248102" lon="101.133948">
<time>2016-10-07T04:02:13Z</time></trkpt>
<trkpt lat="25.248272" lon="101.133877">
<time>2016-10-07T04:02:14Z</time></trkpt>
<trkpt lat="25.248381" lon="101.133807">
<time>2016-10-07T04:02:15Z</time></trkpt>
<trkpt lat="25.248471" lon="101.133747">
<time>2016-10-07T04:02:16Z</time></trkpt>
<trkpt lat="25.248531" lon="101.133697">
<time>2016-10-07T04:02:17Z</time></trkpt>
<trkpt lat="25.248611" lon="101.133627">
<time>2016-10-07T04:02:18Z</time></trkpt>
<trkpt lat="25.248671" lon="101.133557">
<time>2016-10-07T04:02:19Z</time></trkpt>
<trkpt lat="25.248721" lon="101.133497">
<time>2016-10-07T04:02:20Z</time></trkpt>
<trkpt lat="25.248761" lon="101.133437">
<time>2016-10-07T04:02:21Z</time></trkpt>
<trkpt lat="25.248801" lon="101.133377">
<time>2016-10-07T04:02:22Z</time></trkpt>
<trkpt lat="25.248951" lon="101.133097">
<time>2016-10-07T04:02:23Z</time></trkpt>
<trkpt lat="25.24917" lon="101.132676">
<time>2016-10-07T04:02:24Z</time></trkpt>
<trkpt lat="25.24927" lon="101.132466">
<time>2016-10-07T04:02:25Z</time></trkpt>
<trkpt lat="25.249379" lon="101.132296">
<time>2016-10-07T04:02:26Z</time></trkpt>
<trkpt lat="25.249459" lon="101.132156">
<time>2016-10-07T04:02:27Z</time></trkpt>
<trkpt lat="25.249549" lon="101.132036">
<time>2016-10-07T04:02:28Z</time></trkpt>
<trkpt lat="25.249649" lon="101.131895">
<time>2016-10-07T04:02:29Z</time></trkpt>
<trkpt lat="25.249799" lon="101.131705">
<time>2016-10-07T04:02:30Z</time></trkpt>
<trkpt lat="25.249929" lon="101.131575">
<time>2016-10-07T04:02:31Z</time></trkpt>
<trkpt lat="25.249958" lon="101.131545">
<time>2016-10-07T04:02:32Z</time></trkpt>
<trkpt lat="25.250018" lon="101.131495">
<time>2016-10-07T04:02:33Z</time></trkpt>
<trkpt lat="25.250048" lon="101.131455">
<time>2016-10-07T04:02:34Z</time></trkpt>
<trkpt lat="25.250138" lon="101.131385">
<time>2016-10-07T04:02:35Z</time></trkpt>
<trkpt lat="25.250288" lon="101.131285">
<time>2016-10-07T04:02:36Z</time></trkpt>
<trkpt lat="25.250548" lon="101.131125">
<time>2016-10-07T04:02:37Z</time></trkpt>
<trkpt lat="25.250868" lon="101.130955">
<time>2016-10-07T04:02:38Z</time></trkpt>
<trkpt lat="25.251397" lon="101.130684">
<time>2016-10-07T04:02:39Z</time></trkpt>
<trkpt lat="25.252057" lon="101.130324">
<time>2016-10-07T04:02:40Z</time></trkpt>
<trkpt lat="25.252357" lon="101.130164">
<time>2016-10-07T04:02:41Z</time></trkpt>
<trkpt lat="25.252587" lon="101.130024">
<time>2016-10-07T04:02:42Z</time></trkpt>
<trkpt lat="25.252776" lon="101.129904">
<time>2016-10-07T04:02:43Z</time></trkpt>
<trkpt lat="25.253096" lon="101.129683">
<time>2016-10-07T04:02:44Z</time></trkpt>
<trkpt lat="25.253146" lon="101.129653">
<time>2016-10-07T04:02:45Z</time></trkpt>
<trkpt lat="25.253446" lon="101.129463">
<time>2016-10-07T04:02:46Z</time></trkpt>
<trkpt lat="25.253726" lon="101.129283">
<time>2016-10-07T04:02:47Z</time></trkpt>
<trkpt lat="25.253985" lon="101.129093">
<time>2016-10-07T04:02:48Z</time></trkpt>
<trkpt lat="25.254255" lon="101.128883">
<time>2016-10-07T04:02:49Z</time></trkpt>
<trkpt lat="25.254615" lon="101.128602">
<time>2016-10-07T04:02:50Z</time></trkpt>
<trkpt lat="25.255474" lon="101.127902">
<time>2016-10-07T04:02:51Z</time></trkpt>
<trkpt lat="25.255844" lon="101.127602">
<time>2016-10-07T04:02:52Z</time></trkpt>
<trkpt lat="25.255934" lon="101.127522">
<time>2016-10-07T04:02:53Z</time></trkpt>
<trkpt lat="25.256023" lon="101.127451">
<time>2016-10-07T04:02:54Z</time></trkpt>
<trkpt lat="25.256093" lon="101.127361">
<time>2016-10-07T04:02:55Z</time></trkpt>
<trkpt lat="25.256163" lon="101.127281">
<time>2016-10-07T04:02:56Z</time></trkpt>
<trkpt lat="25.256213" lon="101.127221">
<time>2016-10-07T04:02:57Z</time></trkpt>
<trkpt lat="25.256253" lon="101.127161">
<time>2016-10-07T04:02:58Z</time></trkpt>
<trkpt lat="25.256293" lon="101.127111">
<time>2016-10-07T04:02:59Z</time></trkpt>
<trkpt lat="25.256323" lon="101.127041">
<time>2016-10-07T04:03:00Z</time></trkpt>
<trkpt lat="25.256363" lon="101.126961">
<time>2016-10-07T04:03:01Z</time></trkpt>
<trkpt lat="25.256383" lon="101.126881">
<time>2016-10-07T04:03:02Z</time></trkpt>
<trkpt lat="25.256423" lon="101.126771">
<time>2016-10-07T04:03:03Z</time></trkpt>
<trkpt lat="25.256443" lon="101.126621">
<time>2016-10-07T04:03:04Z</time></trkpt>
<trkpt lat="25.256462" lon="101.126401">
<time>2016-10-07T04:03:05Z</time></trkpt>
<trkpt lat="25.256462" lon="101.126281">
<time>2016-10-07T04:03:06Z</time></trkpt>
<trkpt lat="25.256481" lon="101.12567">
<time>2016-10-07T04:03:07Z</time></trkpt>
<trkpt lat="25.256501" lon="101.12502">
<time>2016-10-07T04:03:08Z</time></trkpt>
<trkpt lat="25.256559" lon="101.123238">
<time>2016-10-07T04:03:09Z</time></trkpt>
<trkpt lat="25.256588" lon="101.122308">
<time>2016-10-07T04:03:10Z</time></trkpt>
<trkpt lat="25.256597" lon="101.121738">
<time>2016-10-07T04:03:11Z</time></trkpt>
<trkpt lat="25.256587" lon="101.121487">
<time>2016-10-07T04:03:12Z</time></trkpt>
<trkpt lat="25.256587" lon="101.121477">
<time>2016-10-07T04:03:13Z</time></trkpt>
<trkpt lat="25.256577" lon="101.121317">
<time>2016-10-07T04:03:14Z</time></trkpt>
<trkpt lat="25.256517" lon="101.121017">
<time>2016-10-07T04:03:15Z</time></trkpt>
<trkpt lat="25.256486" lon="101.120837">
<time>2016-10-07T04:03:16Z</time></trkpt>
<trkpt lat="25.256476" lon="101.120687">
<time>2016-10-07T04:03:17Z</time></trkpt>
<trkpt lat="25.256506" lon="101.120547">
<time>2016-10-07T04:03:18Z</time></trkpt>
<trkpt lat="25.256546" lon="101.120457">
<time>2016-10-07T04:03:19Z</time></trkpt>
<trkpt lat="25.256706" lon="101.120167">
<time>2016-10-07T04:03:20Z</time></trkpt>
<trkpt lat="25.258623" lon="101.116775">
<time>2016-10-07T04:03:21Z</time></trkpt>
<trkpt lat="25.258772" lon="101.116455">
<time>2016-10-07T04:03:22Z</time></trkpt>
<trkpt lat="25.258932" lon="101.116075">
<time>2016-10-07T04:03:23Z</time></trkpt>
<trkpt lat="25.25978" lon="101.113604">
<time>2016-10-07T04:03:24Z</time></trkpt>
<trkpt lat="25.26017" lon="101.112424">
<time>2016-10-07T04:03:25Z</time></trkpt>
<trkpt lat="25.260239" lon="101.112194">
<time>2016-10-07T04:03:26Z</time></trkpt>
<trkpt lat="25.260259" lon="101.112024">
<time>2016-10-07T04:03:27Z</time></trkpt>
<trkpt lat="25.260249" lon="101.111824">
<time>2016-10-07T04:03:28Z</time></trkpt>
<trkpt lat="25.260219" lon="101.111654">
<time>2016-10-07T04:03:29Z</time></trkpt>
<trkpt lat="25.260179" lon="101.111504">
<time>2016-10-07T04:03:30Z</time></trkpt>
<trkpt lat="25.260119" lon="101.111384">
<time>2016-10-07T04:03:31Z</time></trkpt>
<trkpt lat="25.260029" lon="101.111234">
<time>2016-10-07T04:03:32Z</time></trkpt>
<trkpt lat="25.258988" lon="101.109753">
<time>2016-10-07T04:03:33Z</time></trkpt>
<trkpt lat="25.258938" lon="101.109643">
<time>2016-10-07T04:03:34Z</time></trkpt>
<trkpt lat="25.258908" lon="101.109553">
<time>2016-10-07T04:03:35Z</time></trkpt>
<trkpt lat="25.258888" lon="101.109473">
<time>2016-10-07T04:03:36Z</time></trkpt>
<trkpt lat="25.258888" lon="101.109383">
<time>2016-10-07T04:03:37Z</time></trkpt>
<trkpt lat="25.258898" lon="101.109283">
<time>2016-10-07T04:03:38Z</time></trkpt>
<trkpt lat="25.258928" lon="101.109193">
<time>2016-10-07T04:03:39Z</time></trkpt>
<trkpt lat="25.258968" lon="101.109093">
<time>2016-10-07T04:03:40Z</time></trkpt>
<trkpt lat="25.259417" lon="101.108413">
<time>2016-10-07T04:03:41Z</time></trkpt>
<trkpt lat="25.259477" lon="101.108343">
<time>2016-10-07T04:03:42Z</time></trkpt>
<trkpt lat="25.260027" lon="101.107713">
<time>2016-10-07T04:03:43Z</time></trkpt>
<trkpt lat="25.260187" lon="101.107543">
<time>2016-10-07T04:03:44Z</time></trkpt>
<trkpt lat="25.260377" lon="101.107383">
<time>2016-10-07T04:03:45Z</time></trkpt>
<trkpt lat="25.260557" lon="101.107263">
<time>2016-10-07T04:03:46Z</time></trkpt>
<trkpt lat="25.260947" lon="101.107063">
<time>2016-10-07T04:03:47Z</time></trkpt>
<trkpt lat="25.261357" lon="101.106853">
<time>2016-10-07T04:03:48Z</time></trkpt>
<trkpt lat="25.261456" lon="101.106813">
<time>2016-10-07T04:03:49Z</time></trkpt>
<trkpt lat="25.261526" lon="101.106773">
<time>2016-10-07T04:03:50Z</time></trkpt>
<trkpt lat="25.261586" lon="101.106763">
<time>2016-10-07T04:03:51Z</time></trkpt>
<trkpt lat="25.261656" lon="101.106743">
<time>2016-10-07T04:03:52Z</time></trkpt>
<trkpt lat="25.261736" lon="101.106733">
<time>2016-10-07T04:03:53Z</time></trkpt>
<trkpt lat="25.261816" lon="101.106723">
<time>2016-10-07T04:03:54Z</time></trkpt>
<trkpt lat="25.262716" lon="101.106633">
<time>2016-10-07T04:03:55Z</time></trkpt>
<trkpt lat="25.262846" lon="101.106603">
<time>2016-10-07T04:03:56Z</time></trkpt>
<trkpt lat="25.262946" lon="101.106573">
<time>2016-10-07T04:03:57Z</time></trkpt>
<trkpt lat="25.263036" lon="101.106533">
<time>2016-10-07T04:03:58Z</time></trkpt>
<trkpt lat="25.263116" lon="101.106463">
<time>2016-10-07T04:03:59Z</time></trkpt>
<trkpt lat="25.263196" lon="101.106383">
<time>2016-10-07T04:04:00Z</time></trkpt>
<trkpt lat="25.263306" lon="101.106253">
<time>2016-10-07T04:04:01Z</time></trkpt>
<trkpt lat="25.263406" lon="101.106113">
<time>2016-10-07T04:04:02Z</time></trkpt>
<trkpt lat="25.264995" lon="101.103444">
<time>2016-10-07T04:04:03Z</time></trkpt>
<trkpt lat="25.265065" lon="101.103344">
<time>2016-10-07T04:04:04Z</time></trkpt>
<trkpt lat="25.265455" lon="101.102844">
<time>2016-10-07T04:04:05Z</time></trkpt>
<trkpt lat="25.265625" lon="101.102634">
<time>2016-10-07T04:04:06Z</time></trkpt>
<trkpt lat="25.265805" lon="101.102454">
<time>2016-10-07T04:04:07Z</time></trkpt>
<trkpt lat="25.265995" lon="101.102304">
<time>2016-10-07T04:04:08Z</time></trkpt>
<trkpt lat="25.266285" lon="101.102094">
<time>2016-10-07T04:04:09Z</time></trkpt>
<trkpt lat="25.266835" lon="101.101754">
<time>2016-10-07T04:04:10Z</time></trkpt>
<trkpt lat="25.267135" lon="101.101614">
<time>2016-10-07T04:04:11Z</time></trkpt>
<trkpt lat="25.267255" lon="101.101554">
<time>2016-10-07T04:04:12Z</time></trkpt>
<trkpt lat="25.267355" lon="101.101474">
<time>2016-10-07T04:04:13Z</time></trkpt>
<trkpt lat="25.267505" lon="101.101324">
<time>2016-10-07T04:04:14Z</time></trkpt>
<trkpt lat="25.267885" lon="101.100904">
<time>2016-10-07T04:04:15Z</time></trkpt>
<trkpt lat="25.268275" lon="101.100414">
<time>2016-10-07T04:04:16Z</time></trkpt>
<trkpt lat="25.268465" lon="101.100105">
<time>2016-10-07T04:04:17Z</time></trkpt>
<trkpt lat="25.268605" lon="101.099845">
<time>2016-10-07T04:04:18Z</time></trkpt>
<trkpt lat="25.268725" lon="101.099555">
<time>2016-10-07T04:04:19Z</time></trkpt>
<trkpt lat="25.268795" lon="101.099295">
<time>2016-10-07T04:04:20Z</time></trkpt>
<trkpt lat="25.268885" lon="101.098945">
<time>2016-10-07T04:04:21Z</time></trkpt>
<trkpt lat="25.268935" lon="101.098705">
<time>2016-10-07T04:04:22Z</time></trkpt>
<trkpt lat="25.268985" lon="101.098555">
<time>2016-10-07T04:04:23Z</time></trkpt>
<trkpt lat="25.269035" lon="101.098455">
<time>2016-10-07T04:04:24Z</time></trkpt>
<trkpt lat="25.269105" lon="101.098335">
<time>2016-10-07T04:04:25Z</time></trkpt>
<trkpt lat="25.269385" lon="101.098025">
<time>2016-10-07T04:04:26Z</time></trkpt>
<trkpt lat="25.269935" lon="101.097406">
<time>2016-10-07T04:04:27Z</time></trkpt>
<trkpt lat="25.270065" lon="101.097236">
<time>2016-10-07T04:04:28Z</time></trkpt>
<trkpt lat="25.270165" lon="101.097066">
<time>2016-10-07T04:04:29Z</time></trkpt>
<trkpt lat="25.270325" lon="101.096746">
<time>2016-10-07T04:04:30Z</time></trkpt>
<trkpt lat="25.270415" lon="101.096546">
<time>2016-10-07T04:04:31Z</time></trkpt>
<trkpt lat="25.270495" lon="101.096406">
<time>2016-10-07T04:04:32Z</time></trkpt>
<trkpt lat="25.270555" lon="101.096286">
<time>2016-10-07T04:04:33Z</time></trkpt>
<trkpt lat="25.270625" lon="101.096186">
<time>2016-10-07T04:04:34Z</time></trkpt>
<trkpt lat="25.270675" lon="101.096126">
<time>2016-10-07T04:04:35Z</time></trkpt>
<trkpt lat="25.270755" lon="101.096066">
<time>2016-10-07T04:04:36Z</time></trkpt>
<trkpt lat="25.270825" lon="101.096036">
<time>2016-10-07T04:04:37Z</time></trkpt>
<trkpt lat="25.270875" lon="101.096026">
<time>2016-10-07T04:04:38Z</time></trkpt>
<trkpt lat="25.270925" lon="101.096016">
<time>2016-10-07T04:04:39Z</time></trkpt>
<trkpt lat="25.271005" lon="101.096016">
<time>2016-10-07T04:04:40Z</time></trkpt>
<trkpt lat="25.271075" lon="101.096026">
<time>2016-10-07T04:04:41Z</time></trkpt>
<trkpt lat="25.271185" lon="101.096046">
<time>2016-10-07T04:04:42Z</time></trkpt>
<trkpt lat="25.271195" lon="101.096056">
<time>2016-10-07T04:04:43Z</time></trkpt>
<trkpt lat="25.271435" lon="101.096126">
<time>2016-10-07T04:04:44Z</time></trkpt>
<trkpt lat="25.271655" lon="101.096176">
<time>2016-10-07T04:04:45Z</time></trkpt>
<trkpt lat="25.271785" lon="101.096196">
<time>2016-10-07T04:04:46Z</time></trkpt>
<trkpt lat="25.271935" lon="101.096196">
<time>2016-10-07T04:04:47Z</time></trkpt>
<trkpt lat="25.272205" lon="101.096186">
<time>2016-10-07T04:04:48Z</time></trkpt>
<trkpt lat="25.273015" lon="101.096046">
<time>2016-10-07T04:04:49Z</time></trkpt>
<trkpt lat="25.273395" lon="101.095956">
<time>2016-10-07T04:04:50Z</time></trkpt>
<trkpt lat="25.274085" lon="101.095726">
<time>2016-10-07T04:04:51Z</time></trkpt>
<trkpt lat="25.274675" lon="101.095507">
<time>2016-10-07T04:04:52Z</time></trkpt>
<trkpt lat="25.274825" lon="101.095437">
<time>2016-10-07T04:04:53Z</time></trkpt>
<trkpt lat="25.274925" lon="101.095377">
<time>2016-10-07T04:04:54Z</time></trkpt>
<trkpt lat="25.275005" lon="101.095307">
<time>2016-10-07T04:04:55Z</time></trkpt>
<trkpt lat="25.275135" lon="101.095197">
<time>2016-10-07T04:04:56Z</time></trkpt>
<trkpt lat="25.275305" lon="101.094997">
<time>2016-10-07T04:04:57Z</time></trkpt>
<trkpt lat="25.275365" lon="101.094927">
<time>2016-10-07T04:04:58Z</time></trkpt>
<trkpt lat="25.275515" lon="101.094747">
<time>2016-10-07T04:04:59Z</time></trkpt>
<trkpt lat="25.276005" lon="101.094107">
<time>2016-10-07T04:05:00Z</time></trkpt>
<trkpt lat="25.276065" lon="101.094017">
<time>2016-10-07T04:05:01Z</time></trkpt>
<trkpt lat="25.276105" lon="101.093948">
<time>2016-10-07T04:05:02Z</time></trkpt>
<trkpt lat="25.276155" lon="101.093838">
<time>2016-10-07T04:05:03Z</time></trkpt>
<trkpt lat="25.276265" lon="101.093558">
<time>2016-10-07T04:05:04Z</time></trkpt>
<trkpt lat="25.276365" lon="101.093268">
<time>2016-10-07T04:05:05Z</time></trkpt>
<trkpt lat="25.276385" lon="101.093218">
<time>2016-10-07T04:05:06Z</time></trkpt>
<trkpt lat="25.276415" lon="101.093158">
<time>2016-10-07T04:05:07Z</time></trkpt>
<trkpt lat="25.276445" lon="101.093118">
<time>2016-10-07T04:05:08Z</time></trkpt>
<trkpt lat="25.276485" lon="101.093068">
<time>2016-10-07T04:05:09Z</time></trkpt>
<trkpt lat="25.276535" lon="101.093038">
<time>2016-10-07T04:05:10Z</time></trkpt>
<trkpt lat="25.276575" lon="101.092998">
<time>2016-10-07T04:05:11Z</time></trkpt>
<trkpt lat="25.276665" lon="101.092948">
<time>2016-10-07T04:05:12Z</time></trkpt>
<trkpt lat="25.276755" lon="101.092908">
<time>2016-10-07T04:05:13Z</time></trkpt>
<trkpt lat="25.276855" lon="101.092878">
<time>2016-10-07T04:05:14Z</time></trkpt>
<trkpt lat="25.276935" lon="101.092848">
<time>2016-10-07T04:05:15Z</time></trkpt>
<trkpt lat="25.276995" lon="101.092838">
<time>2016-10-07T04:05:16Z</time></trkpt>
<trkpt lat="25.277065" lon="101.092828">
<time>2016-10-07T04:05:17Z</time></trkpt>
<trkpt lat="25.277125" lon="101.092818">
<time>2016-10-07T04:05:18Z</time></trkpt>
<trkpt lat="25.277185" lon="101.092818">
<time>2016-10-07T04:05:19Z</time></trkpt>
<trkpt lat="25.277255" lon="101.092828">
<time>2016-10-07T04:05:20Z</time></trkpt>
<trkpt lat="25.277325" lon="101.092848">
<time>2016-10-07T04:05:21Z</time></trkpt>
<trkpt lat="25.277435" lon="101.092878">
<time>2016-10-07T04:05:22Z</time></trkpt>
<trkpt lat="25.277765" lon="101.092948">
<time>2016-10-07T04:05:23Z</time></trkpt>
<trkpt lat="25.278085" lon="101.092998">
<time>2016-10-07T04:05:24Z</time></trkpt>
<trkpt lat="25.278515" lon="101.093068">
<time>2016-10-07T04:05:25Z</time></trkpt>
<trkpt lat="25.279045" lon="101.093148">
<time>2016-10-07T04:05:26Z</time></trkpt>
<trkpt lat="25.279585" lon="101.093238">
<time>2016-10-07T04:05:27Z</time></trkpt>
<trkpt lat="25.279695" lon="101.093258">
<time>2016-10-07T04:05:28Z</time></trkpt>
<trkpt lat="25.279805" lon="101.093258">
<time>2016-10-07T04:05:29Z</time></trkpt>
<trkpt lat="25.279935" lon="101.093248">
<time>2016-10-07T04:05:30Z</time></trkpt>
<trkpt lat="25.280085" lon="101.093228">
<time>2016-10-07T04:05:31Z</time></trkpt>
<trkpt lat="25.280225" lon="101.093188">
<time>2016-10-07T04:05:32Z</time></trkpt>
<trkpt lat="25.280435" lon="101.093118">
<time>2016-10-07T04:05:33Z</time></trkpt>
<trkpt lat="25.280745" lon="101.092988">
<time>2016-10-07T04:05:34Z</time></trkpt>
<trkpt lat="25.280905" lon="101.092908">
<time>2016-10-07T04:05:35Z</time></trkpt>
<trkpt lat="25.281125" lon="101.092778">
<time>2016-10-07T04:05:36Z</time></trkpt>
<trkpt lat="25.281365" lon="101.092608">
<time>2016-10-07T04:05:37Z</time></trkpt>
<trkpt lat="25.281636" lon="101.092408">
<time>2016-10-07T04:05:38Z</time></trkpt>
<trkpt lat="25.281766" lon="101.092319">
<time>2016-10-07T04:05:39Z</time></trkpt>
<trkpt lat="25.281856" lon="101.092239">
<time>2016-10-07T04:05:40Z</time></trkpt>
<trkpt lat="25.281926" lon="101.092179">
<time>2016-10-07T04:05:41Z</time></trkpt>
<trkpt lat="25.281996" lon="101.092099">
<time>2016-10-07T04:05:42Z</time></trkpt>
<trkpt lat="25.282056" lon="101.091999">
<time>2016-10-07T04:05:43Z</time></trkpt>
<trkpt lat="25.282106" lon="101.091879">
<time>2016-10-07T04:05:44Z</time></trkpt>
<trkpt lat="25.282186" lon="101.091689">
<time>2016-10-07T04:05:45Z</time></trkpt>
<trkpt lat="25.282266" lon="101.091459">
<time>2016-10-07T04:05:46Z</time></trkpt>
<trkpt lat="25.282296" lon="101.091359">
<time>2016-10-07T04:05:47Z</time></trkpt>
<trkpt lat="25.282316" lon="101.091219">
<time>2016-10-07T04:05:48Z</time></trkpt>
<trkpt lat="25.282356" lon="101.091">
<time>2016-10-07T04:05:49Z</time></trkpt>
<trkpt lat="25.282416" lon="101.09056">
<time>2016-10-07T04:05:50Z</time></trkpt>
<trkpt lat="25.282416" lon="101.09049">
<time>2016-10-07T04:05:51Z</time></trkpt>
<trkpt lat="25.282436" lon="101.09043">
<time>2016-10-07T04:05:52Z</time></trkpt>
<trkpt lat="25.282446" lon="101.09038">
<time>2016-10-07T04:05:53Z</time></trkpt>
<trkpt lat="25.282466" lon="101.09034">
<time>2016-10-07T04:05:54Z</time></trkpt>
<trkpt lat="25.282486" lon="101.09029">
<time>2016-10-07T04:05:55Z</time></trkpt>
<trkpt lat="25.282506" lon="101.09026">
<time>2016-10-07T04:05:56Z</time></trkpt>
<trkpt lat="25.282536" lon="101.09024">
<time>2016-10-07T04:05:57Z</time></trkpt>
<trkpt lat="25.282566" lon="101.09021">
<time>2016-10-07T04:05:58Z</time></trkpt>
<trkpt lat="25.282586" lon="101.09019">
<time>2016-10-07T04:05:59Z</time></trkpt>
<trkpt lat="25.282616" lon="101.09018">
<time>2016-10-07T04:06:00Z</time></trkpt>
<trkpt lat="25.282656" lon="101.09017">
<time>2016-10-07T04:06:01Z</time></trkpt>
<trkpt lat="25.282706" lon="101.09015">
<time>2016-10-07T04:06:02Z</time></trkpt>
<trkpt lat="25.282766" lon="101.09014">
<time>2016-10-07T04:06:03Z</time></trkpt>
<trkpt lat="25.282916" lon="101.09011">
<time>2016-10-07T04:06:04Z</time></trkpt>
<trkpt lat="25.283006" lon="101.09009">
<time>2016-10-07T04:06:05Z</time></trkpt>
<trkpt lat="25.283086" lon="101.09007">
<time>2016-10-07T04:06:06Z</time></trkpt>
<trkpt lat="25.283156" lon="101.09004">
<time>2016-10-07T04:06:07Z</time></trkpt>
<trkpt lat="25.283236" lon="101.09001">
<time>2016-10-07T04:06:08Z</time></trkpt>
<trkpt lat="25.283286" lon="101.08997">
<time>2016-10-07T04:06:09Z</time></trkpt>
<trkpt lat="25.283326" lon="101.08994">
<time>2016-10-07T04:06:10Z</time></trkpt>
<trkpt lat="25.283366" lon="101.08992">
<time>2016-10-07T04:06:11Z</time></trkpt>
<trkpt lat="25.283406" lon="101.08989">
<time>2016-10-07T04:06:12Z</time></trkpt>
<trkpt lat="25.283456" lon="101.08985">
<time>2016-10-07T04:06:13Z</time></trkpt>
<trkpt lat="25.283486" lon="101.089811">
<time>2016-10-07T04:06:14Z</time></trkpt>
<trkpt lat="25.283836" lon="101.089441">
<time>2016-10-07T04:06:15Z</time></trkpt>
<trkpt lat="25.283886" lon="101.089411">
<time>2016-10-07T04:06:16Z</time></trkpt>
<trkpt lat="25.283936" lon="101.089381">
<time>2016-10-07T04:06:17Z</time></trkpt>
<trkpt lat="25.283986" lon="101.089361">
<time>2016-10-07T04:06:18Z</time></trkpt>
<trkpt lat="25.284026" lon="101.089351">
<time>2016-10-07T04:06:19Z</time></trkpt>
<trkpt lat="25.284076" lon="101.089341">
<time>2016-10-07T04:06:20Z</time></trkpt>
<trkpt lat="25.284116" lon="101.089331">
<time>2016-10-07T04:06:21Z</time></trkpt>
<trkpt lat="25.284156" lon="101.089341">
<time>2016-10-07T04:06:22Z</time></trkpt>
<trkpt lat="25.284216" lon="101.089361">
<time>2016-10-07T04:06:23Z</time></trkpt>
<trkpt lat="25.284266" lon="101.089381">
<time>2016-10-07T04:06:24Z</time></trkpt>
<trkpt lat="25.284316" lon="101.089401">
<time>2016-10-07T04:06:25Z</time></trkpt>
<trkpt lat="25.284366" lon="101.089441">
<time>2016-10-07T04:06:26Z</time></trkpt>
<trkpt lat="25.284546" lon="101.089541">
<time>2016-10-07T04:06:27Z</time></trkpt>
<trkpt lat="25.284606" lon="101.089561">
<time>2016-10-07T04:06:28Z</time></trkpt>
<trkpt lat="25.284666" lon="101.089581">
<time>2016-10-07T04:06:29Z</time></trkpt>
<trkpt lat="25.284726" lon="101.089601">
<time>2016-10-07T04:06:30Z</time></trkpt>
<trkpt lat="25.284816" lon="101.089611">
<time>2016-10-07T04:06:31Z</time></trkpt>
<trkpt lat="25.284906" lon="101.089611">
<time>2016-10-07T04:06:32Z</time></trkpt>
<trkpt lat="25.285336" lon="101.089611">
<time>2016-10-07T04:06:33Z</time></trkpt>
<trkpt lat="25.285466" lon="101.089621">
<time>2016-10-07T04:06:34Z</time></trkpt>
<trkpt lat="25.285586" lon="101.089631">
<time>2016-10-07T04:06:35Z</time></trkpt>
<trkpt lat="25.286116" lon="101.08975">
<time>2016-10-07T04:06:36Z</time></trkpt>
<trkpt lat="25.286196" lon="101.08975">
<time>2016-10-07T04:06:37Z</time></trkpt>
<trkpt lat="25.286256" lon="101.08975">
<time>2016-10-07T04:06:38Z</time></trkpt>
<trkpt lat="25.286326" lon="101.08974">
<time>2016-10-07T04:06:39Z</time></trkpt>
<trkpt lat="25.286376" lon="101.089721">
<time>2016-10-07T04:06:40Z</time></trkpt>
<trkpt lat="25.286396" lon="101.089711">
<time>2016-10-07T04:06:41Z</time></trkpt>
<trkpt lat="25.286436" lon="101.089681">
<time>2016-10-07T04:06:42Z</time></trkpt>
<trkpt lat="25.286496" lon="101.089651">
<time>2016-10-07T04:06:43Z</time></trkpt>
<trkpt lat="25.287017" lon="101.089251">
<time>2016-10-07T04:06:44Z</time></trkpt>
<trkpt lat="25.287417" lon="101.088981">
<time>2016-10-07T04:06:45Z</time></trkpt>
<trkpt lat="25.287567" lon="101.088891">
<time>2016-10-07T04:06:46Z</time></trkpt>
<trkpt lat="25.287787" lon="101.088751">
<time>2016-10-07T04:06:47Z</time></trkpt>
<trkpt lat="25.287847" lon="101.088721">
<time>2016-10-07T04:06:48Z</time></trkpt>
<trkpt lat="25.287907" lon="101.088661">
<time>2016-10-07T04:06:49Z</time></trkpt>
<trkpt lat="25.287957" lon="101.088601">
<time>2016-10-07T04:06:50Z</time></trkpt>
<trkpt lat="25.288007" lon="101.088542">
<time>2016-10-07T04:06:51Z</time></trkpt>
<trkpt lat="25.288047" lon="101.088482">
<time>2016-10-07T04:06:52Z</time></trkpt>
<trkpt lat="25.288227" lon="101.088152">
<time>2016-10-07T04:06:53Z</time></trkpt>
<trkpt lat="25.288337" lon="101.087932">
<time>2016-10-07T04:06:54Z</time></trkpt>
<trkpt lat="25.288387" lon="101.087852">
<time>2016-10-07T04:06:55Z</time></trkpt>
<trkpt lat="25.288427" lon="101.087792">
<time>2016-10-07T04:06:56Z</time></trkpt>
<trkpt lat="25.288487" lon="101.087732">
<time>2016-10-07T04:06:57Z</time></trkpt>
<trkpt lat="25.288557" lon="101.087672">
<time>2016-10-07T04:06:58Z</time></trkpt>
<trkpt lat="25.289318" lon="101.086963">
<time>2016-10-07T04:06:59Z</time></trkpt>
<trkpt lat="25.289378" lon="101.086913">
<time>2016-10-07T04:07:00Z</time></trkpt>
<trkpt lat="25.289448" lon="101.086843">
<time>2016-10-07T04:07:01Z</time></trkpt>
<trkpt lat="25.289498" lon="101.086783">
<time>2016-10-07T04:07:02Z</time></trkpt>
<trkpt lat="25.289548" lon="101.086713">
<time>2016-10-07T04:07:03Z</time></trkpt>
<trkpt lat="25.289598" lon="101.086633">
<time>2016-10-07T04:07:04Z</time></trkpt>
<trkpt lat="25.289638" lon="101.086533">
<time>2016-10-07T04:07:05Z</time></trkpt>
<trkpt lat="25.289958" lon="101.085574">
<time>2016-10-07T04:07:06Z</time></trkpt>
<trkpt lat="25.290058" lon="101.085285">
<time>2016-10-07T04:07:07Z</time></trkpt>
<trkpt lat="25.290119" lon="101.085125">
<time>2016-10-07T04:07:08Z</time></trkpt>
<trkpt lat="25.290179" lon="101.085025">
<time>2016-10-07T04:07:09Z</time></trkpt>
<trkpt lat="25.290259" lon="101.084915">
<time>2016-10-07T04:07:10Z</time></trkpt>
<trkpt lat="25.290309" lon="101.084835">
<time>2016-10-07T04:07:11Z</time></trkpt>
<trkpt lat="25.290379" lon="101.084765">
<time>2016-10-07T04:07:12Z</time></trkpt>
<trkpt lat="25.290479" lon="101.084685">
<time>2016-10-07T04:07:13Z</time></trkpt>
<trkpt lat="25.291079" lon="101.084256">
<time>2016-10-07T04:07:14Z</time></trkpt>
<trkpt lat="25.291129" lon="101.084226">
<time>2016-10-07T04:07:15Z</time></trkpt>
<trkpt lat="25.291169" lon="101.084216">
<time>2016-10-07T04:07:16Z</time></trkpt>
<trkpt lat="25.291209" lon="101.084206">
<time>2016-10-07T04:07:17Z</time></trkpt>
<trkpt lat="25.291249" lon="101.084196">
<time>2016-10-07T04:07:18Z</time></trkpt>
<trkpt lat="25.291269" lon="101.084206">
<time>2016-10-07T04:07:19Z</time></trkpt>
<trkpt lat="25.291299" lon="101.084206">
<time>2016-10-07T04:07:20Z</time></trkpt>
<trkpt lat="25.291329" lon="101.084216">
<time>2016-10-07T04:07:21Z</time></trkpt>
<trkpt lat="25.291359" lon="101.084226">
<time>2016-10-07T04:07:22Z</time></trkpt>
<trkpt lat="25.291389" lon="101.084246">
<time>2016-10-07T04:07:23Z</time></trkpt>
<trkpt lat="25.291409" lon="101.084256">
<time>2016-10-07T04:07:24Z</time></trkpt>
<trkpt lat="25.291429" lon="101.084276">
<time>2016-10-07T04:07:25Z</time></trkpt>
<trkpt lat="25.291449" lon="101.084306">
<time>2016-10-07T04:07:26Z</time></trkpt>
<trkpt lat="25.291469" lon="101.084336">
<time>2016-10-07T04:07:27Z</time></trkpt>
<trkpt lat="25.291479" lon="101.084356">
<time>2016-10-07T04:07:28Z</time></trkpt>
<trkpt lat="25.291489" lon="101.084386">
<time>2016-10-07T04:07:29Z</time></trkpt>
<trkpt lat="25.291509" lon="101.084416">
<time>2016-10-07T04:07:30Z</time></trkpt>
<trkpt lat="25.291509" lon="101.084466">
<time>2016-10-07T04:07:31Z</time></trkpt>
<trkpt lat="25.291509" lon="101.084486">
<time>2016-10-07T04:07:32Z</time></trkpt>
<trkpt lat="25.291519" lon="101.084506">
<time>2016-10-07T04:07:33Z</time></trkpt>
<trkpt lat="25.291509" lon="101.084536">
<time>2016-10-07T04:07:34Z</time></trkpt>
<trkpt lat="25.291509" lon="101.084566">
<time>2016-10-07T04:07:35Z</time></trkpt>
<trkpt lat="25.291499" lon="101.084586">
<time>2016-10-07T04:07:36Z</time></trkpt>
<trkpt lat="25.291339" lon="101.085195">
<time>2016-10-07T04:07:37Z</time></trkpt>
<trkpt lat="25.291329" lon="101.085285">
<time>2016-10-07T04:07:38Z</time></trkpt>
<trkpt lat="25.291308" lon="101.085385">
<time>2016-10-07T04:07:39Z</time></trkpt>
<trkpt lat="25.291288" lon="101.085544">
<time>2016-10-07T04:07:40Z</time></trkpt>
<trkpt lat="25.291288" lon="101.085654">
<time>2016-10-07T04:07:41Z</time></trkpt>
<trkpt lat="25.291288" lon="101.085724">
<time>2016-10-07T04:07:42Z</time></trkpt>
<trkpt lat="25.291308" lon="101.085774">
<time>2016-10-07T04:07:43Z</time></trkpt>
<trkpt lat="25.291328" lon="101.085814">
<time>2016-10-07T04:07:44Z</time></trkpt>
<trkpt lat="25.291358" lon="101.085844">
<time>2016-10-07T04:07:45Z</time></trkpt>
<trkpt lat="25.291388" lon="101.085864">
<time>2016-10-07T04:07:46Z</time></trkpt>
<trkpt lat="25.291418" lon="101.085874">
<time>2016-10-07T04:07:47Z</time></trkpt>
<trkpt lat="25.291448" lon="101.085884">
<time>2016-10-07T04:07:48Z</time></trkpt>
<trkpt lat="25.291478" lon="101.085884">
<time>2016-10-07T04:07:49Z</time></trkpt>
<trkpt lat="25.291518" lon="101.085884">
<time>2016-10-07T04:07:50Z</time></trkpt>
<trkpt lat="25.291548" lon="101.085874">
<time>2016-10-07T04:07:51Z</time></trkpt>
<trkpt lat="25.291578" lon="101.085854">
<time>2016-10-07T04:07:52Z</time></trkpt>
<trkpt lat="25.291608" lon="101.085834">
<time>2016-10-07T04:07:53Z</time></trkpt>
<trkpt lat="25.291628" lon="101.085814">
<time>2016-10-07T04:07:54Z</time></trkpt>
<trkpt lat="25.291658" lon="101.085764">
<time>2016-10-07T04:07:55Z</time></trkpt>
<trkpt lat="25.291698" lon="101.085694">
<time>2016-10-07T04:07:56Z</time></trkpt>
<trkpt lat="25.291718" lon="101.085614">
<time>2016-10-07T04:07:57Z</time></trkpt>
<trkpt lat="25.291839" lon="101.085255">
<time>2016-10-07T04:07:58Z</time></trkpt>
<trkpt lat="25.291889" lon="101.085135">
<time>2016-10-07T04:07:59Z</time></trkpt>
<trkpt lat="25.291979" lon="101.084975">
<time>2016-10-07T04:08:00Z</time></trkpt>
<trkpt lat="25.292059" lon="101.084865">
<time>2016-10-07T04:08:01Z</time></trkpt>
<trkpt lat="25.292139" lon="101.084795">
<time>2016-10-07T04:08:02Z</time></trkpt>
<trkpt lat="25.292269" lon="101.084705">
<time>2016-10-07T04:08:03Z</time></trkpt>
<trkpt lat="25.292549" lon="101.084566">
<time>2016-10-07T04:08:04Z</time></trkpt>
<trkpt lat="25.292599" lon="101.084526">
<time>2016-10-07T04:08:05Z</time></trkpt>
<trkpt lat="25.292649" lon="101.084486">
<time>2016-10-07T04:08:06Z</time></trkpt>
<trkpt lat="25.292679" lon="101.084436">
<time>2016-10-07T04:08:07Z</time></trkpt>
<trkpt lat="25.292709" lon="101.084376">
<time>2016-10-07T04:08:08Z</time></trkpt>
<trkpt lat="25.292719" lon="101.084326">
<time>2016-10-07T04:08:09Z</time></trkpt>
<trkpt lat="25.292769" lon="101.083976">
<time>2016-10-07T04:08:10Z</time></trkpt>
<trkpt lat="25.292779" lon="101.083896">
<time>2016-10-07T04:08:11Z</time></trkpt>
<trkpt lat="25.292799" lon="101.083816">
<time>2016-10-07T04:08:12Z</time></trkpt>
<trkpt lat="25.292819" lon="101.083756">
<time>2016-10-07T04:08:13Z</time></trkpt>
<trkpt lat="25.292839" lon="101.083697">
<time>2016-10-07T04:08:14Z</time></trkpt>
<trkpt lat="25.29287" lon="101.083647">
<time>2016-10-07T04:08:15Z</time></trkpt>
<trkpt lat="25.29292" lon="101.083597">
<time>2016-10-07T04:08:16Z</time></trkpt>
<trkpt lat="25.29299" lon="101.083537">
<time>2016-10-07T04:08:17Z</time></trkpt>
<trkpt lat="25.29307" lon="101.083467">
<time>2016-10-07T04:08:18Z</time></trkpt>
<trkpt lat="25.29322" lon="101.083367">
<time>2016-10-07T04:08:19Z</time></trkpt>
<trkpt lat="25.29369" lon="101.083067">
<time>2016-10-07T04:08:20Z</time></trkpt>
<trkpt lat="25.29384" lon="101.082997">
<time>2016-10-07T04:08:21Z</time></trkpt>
<trkpt lat="25.29395" lon="101.082977">
<time>2016-10-07T04:08:22Z</time></trkpt>
<trkpt lat="25.29404" lon="101.082977">
<time>2016-10-07T04:08:23Z</time></trkpt>
<trkpt lat="25.29414" lon="101.083007">
<time>2016-10-07T04:08:24Z</time></trkpt>
<trkpt lat="25.29423" lon="101.083077">
<time>2016-10-07T04:08:25Z</time></trkpt>
<trkpt lat="25.29431" lon="101.083177">
<time>2016-10-07T04:08:26Z</time></trkpt>
<trkpt lat="25.29437" lon="101.083317">
<time>2016-10-07T04:08:27Z</time></trkpt>
<trkpt lat="25.294529" lon="101.083936">
<time>2016-10-07T04:08:28Z</time></trkpt>
<trkpt lat="25.294559" lon="101.084056">
<time>2016-10-07T04:08:29Z</time></trkpt>
<trkpt lat="25.294579" lon="101.084126">
<time>2016-10-07T04:08:30Z</time></trkpt>
<trkpt lat="25.294609" lon="101.084196">
<time>2016-10-07T04:08:31Z</time></trkpt>
<trkpt lat="25.294629" lon="101.084256">
<time>2016-10-07T04:08:32Z</time></trkpt>
<trkpt lat="25.294659" lon="101.084306">
<time>2016-10-07T04:08:33Z</time></trkpt>
<trkpt lat="25.294699" lon="101.084356">
<time>2016-10-07T04:08:34Z</time></trkpt>
<trkpt lat="25.294739" lon="101.084396">
<time>2016-10-07T04:08:35Z</time></trkpt>
<trkpt lat="25.294779" lon="101.084416">
<time>2016-10-07T04:08:36Z</time></trkpt>
<trkpt lat="25.294809" lon="101.084436">
<time>2016-10-07T04:08:37Z</time></trkpt>
<trkpt lat="25.294839" lon="101.084436">
<time>2016-10-07T04:08:38Z</time></trkpt>
<trkpt lat="25.294869" lon="101.084436">
<time>2016-10-07T04:08:39Z</time></trkpt>
<trkpt lat="25.294909" lon="101.084436">
<time>2016-10-07T04:08:40Z</time></trkpt>
<trkpt lat="25.294949" lon="101.084416">
<time>2016-10-07T04:08:41Z</time></trkpt>
<trkpt lat="25.294979" lon="101.084406">
<time>2016-10-07T04:08:42Z</time></trkpt>
<trkpt lat="25.295019" lon="101.084376">
<time>2016-10-07T04:08:43Z</time></trkpt>
<trkpt lat="25.295039" lon="101.084346">
<time>2016-10-07T04:08:44Z</time></trkpt>
<trkpt lat="25.295069" lon="101.084306">
<time>2016-10-07T04:08:45Z</time></trkpt>
<trkpt lat="25.295089" lon="101.084276">
<time>2016-10-07T04:08:46Z</time></trkpt>
<trkpt lat="25.295109" lon="101.084196">
<time>2016-10-07T04:08:47Z</time></trkpt>
<trkpt lat="25.295129" lon="101.084106">
<time>2016-10-07T04:08:48Z</time></trkpt>
<trkpt lat="25.295139" lon="101.084006">
<time>2016-10-07T04:08:49Z</time></trkpt>
<trkpt lat="25.29516" lon="101.083417">
<time>2016-10-07T04:08:50Z</time></trkpt>
<trkpt lat="25.29519" lon="101.083257">
<time>2016-10-07T04:08:51Z</time></trkpt>
<trkpt lat="25.29523" lon="101.083117">
<time>2016-10-07T04:08:52Z</time></trkpt>
<trkpt lat="25.29529" lon="101.082997">
<time>2016-10-07T04:08:53Z</time></trkpt>
<trkpt lat="25.29539" lon="101.082907">
<time>2016-10-07T04:08:54Z</time></trkpt>
<trkpt lat="25.29548" lon="101.082828">
<time>2016-10-07T04:08:55Z</time></trkpt>
<trkpt lat="25.29556" lon="101.082748">
<time>2016-10-07T04:08:56Z</time></trkpt>
<trkpt lat="25.29561" lon="101.082698">
<time>2016-10-07T04:08:57Z</time></trkpt>
<trkpt lat="25.29563" lon="101.082658">
<time>2016-10-07T04:08:58Z</time></trkpt>
<trkpt lat="25.29565" lon="101.082628">
<time>2016-10-07T04:08:59Z</time></trkpt>
<trkpt lat="25.29566" lon="101.082578">
<time>2016-10-07T04:09:00Z</time></trkpt>
<trkpt lat="25.29567" lon="101.082528">
<time>2016-10-07T04:09:01Z</time></trkpt>
<trkpt lat="25.29568" lon="101.082458">
<time>2016-10-07T04:09:02Z</time></trkpt>
<trkpt lat="25.295671" lon="101.082198">
<time>2016-10-07T04:09:03Z</time></trkpt>
<trkpt lat="25.295641" lon="101.081819">
<time>2016-10-07T04:09:04Z</time></trkpt>
<trkpt lat="25.295621" lon="101.081709">
<time>2016-10-07T04:09:05Z</time></trkpt>
<trkpt lat="25.295621" lon="101.081669">
<time>2016-10-07T04:09:06Z</time></trkpt>
<trkpt lat="25.295621" lon="101.081619">
<time>2016-10-07T04:09:07Z</time></trkpt>
<trkpt lat="25.295621" lon="101.081579">
<time>2016-10-07T04:09:08Z</time></trkpt>
<trkpt lat="25.295631" lon="101.081539">
<time>2016-10-07T04:09:09Z</time></trkpt>
<trkpt lat="25.295631" lon="101.081499">
<time>2016-10-07T04:09:10Z</time></trkpt>
<trkpt lat="25.295631" lon="101.081459">
<time>2016-10-07T04:09:11Z</time></trkpt>
<trkpt lat="25.295651" lon="101.081419">
<time>2016-10-07T04:09:12Z</time></trkpt>
<trkpt lat="25.295661" lon="101.081389">
<time>2016-10-07T04:09:13Z</time></trkpt>
<trkpt lat="25.295681" lon="101.081369">
<time>2016-10-07T04:09:14Z</time></trkpt>
<trkpt lat="25.295691" lon="101.081349">
<time>2016-10-07T04:09:15Z</time></trkpt>
<trkpt lat="25.295711" lon="101.081339">
<time>2016-10-07T04:09:16Z</time></trkpt>
<trkpt lat="25.295721" lon="101.081329">
<time>2016-10-07T04:09:17Z</time></trkpt>
<trkpt lat="25.295741" lon="101.081319">
<time>2016-10-07T04:09:18Z</time></trkpt>
<trkpt lat="25.295761" lon="101.081319">
<time>2016-10-07T04:09:19Z</time></trkpt>
<trkpt lat="25.295781" lon="101.081309">
<time>2016-10-07T04:09:20Z</time></trkpt>
<trkpt lat="25.295801" lon="101.081309">
<time>2016-10-07T04:09:21Z</time></trkpt>
<trkpt lat="25.295821" lon="101.081309">
<time>2016-10-07T04:09:22Z</time></trkpt>
<trkpt lat="25.295851" lon="101.081309">
<time>2016-10-07T04:09:23Z</time></trkpt>
<trkpt lat="25.295871" lon="101.081309">
<time>2016-10-07T04:09:24Z</time></trkpt>
<trkpt lat="25.295891" lon="101.081319">
<time>2016-10-07T04:09:25Z</time></trkpt>
<trkpt lat="25.295911" lon="101.081329">
<time>2016-10-07T04:09:26Z</time></trkpt>
<trkpt lat="25.295931" lon="101.081329">
<time>2016-10-07T04:09:27Z</time></trkpt>
<trkpt lat="25.295951" lon="101.081339">
<time>2016-10-07T04:09:28Z</time></trkpt>
<trkpt lat="25.296251" lon="101.081489">
<time>2016-10-07T04:09:29Z</time></trkpt>
<trkpt lat="25.296331" lon="101.081509">
<time>2016-10-07T04:09:30Z</time></trkpt>
<trkpt lat="25.296431" lon="101.081529">
<time>2016-10-07T04:09:31Z</time></trkpt>
<trkpt lat="25.296511" lon="101.081519">
<time>2016-10-07T04:09:32Z</time></trkpt>
<trkpt lat="25.296591" lon="101.081489">
<time>2016-10-07T04:09:33Z</time></trkpt>
<trkpt lat="25.296641" lon="101.081459">
<time>2016-10-07T04:09:34Z</time></trkpt>
<trkpt lat="25.296671" lon="101.081429">
<time>2016-10-07T04:09:35Z</time></trkpt>
<trkpt lat="25.296721" lon="101.081369">
<time>2016-10-07T04:09:36Z</time></trkpt>
<trkpt lat="25.296751" lon="101.081319">
<time>2016-10-07T04:09:37Z</time></trkpt>
<trkpt lat="25.296781" lon="101.081239">
<time>2016-10-07T04:09:38Z</time></trkpt>
<trkpt lat="25.296791" lon="101.08118">
<time>2016-10-07T04:09:39Z</time></trkpt>
<trkpt lat="25.296791" lon="101.08111">
<time>2016-10-07T04:09:40Z</time></trkpt>
<trkpt lat="25.296781" lon="101.08106">
<time>2016-10-07T04:09:41Z</time></trkpt>
<trkpt lat="25.296732" lon="101.08081">
<time>2016-10-07T04:09:42Z</time></trkpt>
<trkpt lat="25.296722" lon="101.08071">
<time>2016-10-07T04:09:43Z</time></trkpt>
<trkpt lat="25.296732" lon="101.08064">
<time>2016-10-07T04:09:44Z</time></trkpt>
<trkpt lat="25.296742" lon="101.08057">
<time>2016-10-07T04:09:45Z</time></trkpt>
<trkpt lat="25.296762" lon="101.08053">
<time>2016-10-07T04:09:46Z</time></trkpt>
<trkpt lat="25.296902" lon="101.080271">
<time>2016-10-07T04:09:47Z</time></trkpt>
<trkpt lat="25.296922" lon="101.080221">
<time>2016-10-07T04:09:48Z</time></trkpt>
<trkpt lat="25.296942" lon="101.080171">
<time>2016-10-07T04:09:49Z</time></trkpt>
<trkpt lat="25.296952" lon="101.080131">
<time>2016-10-07T04:09:50Z</time></trkpt>
<trkpt lat="25.296962" lon="101.080101">
<time>2016-10-07T04:09:51Z</time></trkpt>
<trkpt lat="25.296962" lon="101.080061">
<time>2016-10-07T04:09:52Z</time></trkpt>
<trkpt lat="25.296962" lon="101.080011">
<time>2016-10-07T04:09:53Z</time></trkpt>
<trkpt lat="25.296952" lon="101.079961">
<time>2016-10-07T04:09:54Z</time></trkpt>
<trkpt lat="25.296922" lon="101.079831">
<time>2016-10-07T04:09:55Z</time></trkpt>
<trkpt lat="25.296892" lon="101.079732">
<time>2016-10-07T04:09:56Z</time></trkpt>
<trkpt lat="25.296882" lon="101.079672">
<time>2016-10-07T04:09:57Z</time></trkpt>
<trkpt lat="25.296882" lon="101.079622">
<time>2016-10-07T04:09:58Z</time></trkpt>
<trkpt lat="25.296883" lon="101.079572">
<time>2016-10-07T04:09:59Z</time></trkpt>
<trkpt lat="25.296893" lon="101.079522">
<time>2016-10-07T04:10:00Z</time></trkpt>
<trkpt lat="25.296913" lon="101.079452">
<time>2016-10-07T04:10:01Z</time></trkpt>
<trkpt lat="25.296933" lon="101.079382">
<time>2016-10-07T04:10:02Z</time></trkpt>
<trkpt lat="25.297243" lon="101.078813">
<time>2016-10-07T04:10:03Z</time></trkpt>
<trkpt lat="25.297273" lon="101.078773">
<time>2016-10-07T04:10:04Z</time></trkpt>
<trkpt lat="25.297303" lon="101.078733">
<time>2016-10-07T04:10:05Z</time></trkpt>
<trkpt lat="25.297333" lon="101.078703">
<time>2016-10-07T04:10:06Z</time></trkpt>
<trkpt lat="25.297373" lon="101.078673">
<time>2016-10-07T04:10:07Z</time></trkpt>
<trkpt lat="25.297403" lon="101.078663">
<time>2016-10-07T04:10:08Z</time></trkpt>
<trkpt lat="25.297433" lon="101.078653">
<time>2016-10-07T04:10:09Z</time></trkpt>
<trkpt lat="25.297473" lon="101.078643">
<time>2016-10-07T04:10:10Z</time></trkpt>
<trkpt lat="25.297503" lon="101.078653">
<time>2016-10-07T04:10:11Z</time></trkpt>
<trkpt lat="25.297533" lon="101.078663">
<time>2016-10-07T04:10:12Z</time></trkpt>
<trkpt lat="25.297563" lon="101.078673">
<time>2016-10-07T04:10:13Z</time></trkpt>
<trkpt lat="25.297583" lon="101.078693">
<time>2016-10-07T04:10:14Z</time></trkpt>
<trkpt lat="25.297603" lon="101.078713">
<time>2016-10-07T04:10:15Z</time></trkpt>
<trkpt lat="25.297633" lon="101.078753">
<time>2016-10-07T04:10:16Z</time></trkpt>
<trkpt lat="25.297663" lon="101.078793">
<time>2016-10-07T04:10:17Z</time></trkpt>
<trkpt lat="25.297733" lon="101.078923">
<time>2016-10-07T04:10:18Z</time></trkpt>
<trkpt lat="25.297803" lon="101.079112">
<time>2016-10-07T04:10:19Z</time></trkpt>
<trkpt lat="25.297873" lon="101.079312">
<time>2016-10-07T04:10:20Z</time></trkpt>
<trkpt lat="25.297923" lon="101.079402">
<time>2016-10-07T04:10:21Z</time></trkpt>
<trkpt lat="25.297973" lon="101.079462">
<time>2016-10-07T04:10:22Z</time></trkpt>
<trkpt lat="25.298013" lon="101.079482">
<time>2016-10-07T04:10:23Z</time></trkpt>
<trkpt lat="25.298063" lon="101.079492">
<time>2016-10-07T04:10:24Z</time></trkpt>
<trkpt lat="25.298093" lon="101.079492">
<time>2016-10-07T04:10:25Z</time></trkpt>
<trkpt lat="25.298143" lon="101.079492">
<time>2016-10-07T04:10:26Z</time></trkpt>
<trkpt lat="25.298173" lon="101.079482">
<time>2016-10-07T04:10:27Z</time></trkpt>
<trkpt lat="25.298213" lon="101.079472">
<time>2016-10-07T04:10:28Z</time></trkpt>
<trkpt lat="25.298253" lon="101.079452">
<time>2016-10-07T04:10:29Z</time></trkpt>
<trkpt lat="25.298283" lon="101.079422">
<time>2016-10-07T04:10:30Z</time></trkpt>
<trkpt lat="25.298313" lon="101.079392">
<time>2016-10-07T04:10:31Z</time></trkpt>
<trkpt lat="25.298343" lon="101.079352">
<time>2016-10-07T04:10:32Z</time></trkpt>
<trkpt lat="25.298363" lon="101.079322">
<time>2016-10-07T04:10:33Z</time></trkpt>
<trkpt lat="25.298383" lon="101.079272">
<time>2016-10-07T04:10:34Z</time></trkpt>
<trkpt lat="25.298393" lon="101.079232">
<time>2016-10-07T04:10:35Z</time></trkpt>
<trkpt lat="25.298413" lon="101.079142">
<time>2016-10-07T04:10:36Z</time></trkpt>
<trkpt lat="25.298423" lon="101.078953">
<time>2016-10-07T04:10:37Z</time></trkpt>
<trkpt lat="25.298443" lon="101.078853">
<time>2016-10-07T04:10:38Z</time></trkpt>
<trkpt lat="25.298473" lon="101.078773">
<time>2016-10-07T04:10:39Z</time></trkpt>
<trkpt lat="25.298513" lon="101.078693">
<time>2016-10-07T04:10:40Z</time></trkpt>
<trkpt lat="25.298573" lon="101.078603">
<time>2016-10-07T04:10:41Z</time></trkpt>
<trkpt lat="25.298764" lon="101.078383">
<time>2016-10-07T04:10:42Z</time></trkpt>
<trkpt lat="25.298844" lon="101.078274">
<time>2016-10-07T04:10:43Z</time></trkpt>
<trkpt lat="25.298904" lon="101.078164">
<time>2016-10-07T04:10:44Z</time></trkpt>
<trkpt lat="25.299044" lon="101.077714">
<time>2016-10-07T04:10:45Z</time></trkpt>
<trkpt lat="25.299074" lon="101.077624">
<time>2016-10-07T04:10:46Z</time></trkpt>
<trkpt lat="25.299114" lon="101.077565">
<time>2016-10-07T04:10:47Z</time></trkpt>
<trkpt lat="25.299134" lon="101.077525">
<time>2016-10-07T04:10:48Z</time></trkpt>
<trkpt lat="25.299164" lon="101.077495">
<time>2016-10-07T04:10:49Z</time></trkpt>
<trkpt lat="25.299204" lon="101.077465">
<time>2016-10-07T04:10:50Z</time></trkpt>
<trkpt lat="25.299264" lon="101.077435">
<time>2016-10-07T04:10:51Z</time></trkpt>
<trkpt lat="25.299334" lon="101.077415">
<time>2016-10-07T04:10:52Z</time></trkpt>
<trkpt lat="25.299394" lon="101.077405">
<time>2016-10-07T04:10:53Z</time></trkpt>
<trkpt lat="25.299745" lon="101.077375">
<time>2016-10-07T04:10:54Z</time></trkpt>
<trkpt lat="25.299945" lon="101.077375">
<time>2016-10-07T04:10:55Z</time></trkpt>
<trkpt lat="25.300065" lon="101.077385">
<time>2016-10-07T04:10:56Z</time></trkpt>
<trkpt lat="25.300165" lon="101.077405">
<time>2016-10-07T04:10:57Z</time></trkpt>
<trkpt lat="25.300265" lon="101.077435">
<time>2016-10-07T04:10:58Z</time></trkpt>
<trkpt lat="25.300564" lon="101.077574">
<time>2016-10-07T04:10:59Z</time></trkpt>
<trkpt lat="25.300864" lon="101.077734">
<time>2016-10-07T04:11:00Z</time></trkpt>
<trkpt lat="25.301024" lon="101.077834">
<time>2016-10-07T04:11:01Z</time></trkpt>
<trkpt lat="25.301114" lon="101.077884">
<time>2016-10-07T04:11:02Z</time></trkpt>
<trkpt lat="25.301174" lon="101.077904">
<time>2016-10-07T04:11:03Z</time></trkpt>
<trkpt lat="25.301224" lon="101.077914">
<time>2016-10-07T04:11:04Z</time></trkpt>
<trkpt lat="25.301284" lon="101.077904">
<time>2016-10-07T04:11:05Z</time></trkpt>
<trkpt lat="25.301334" lon="101.077884">
<time>2016-10-07T04:11:06Z</time></trkpt>
<trkpt lat="25.301374" lon="101.077854">
<time>2016-10-07T04:11:07Z</time></trkpt>
<trkpt lat="25.301414" lon="101.077814">
<time>2016-10-07T04:11:08Z</time></trkpt>
<trkpt lat="25.301444" lon="101.077764">
<time>2016-10-07T04:11:09Z</time></trkpt>
<trkpt lat="25.301474" lon="101.077714">
<time>2016-10-07T04:11:10Z</time></trkpt>
<trkpt lat="25.301494" lon="101.077644">
<time>2016-10-07T04:11:11Z</time></trkpt>
<trkpt lat="25.301504" lon="101.077574">
<time>2016-10-07T04:11:12Z</time></trkpt>
<trkpt lat="25.301495" lon="101.077485">
<time>2016-10-07T04:11:13Z</time></trkpt>
<trkpt lat="25.301395" lon="101.077055">
<time>2016-10-07T04:11:14Z</time></trkpt>
<trkpt lat="25.301385" lon="101.076965">
<time>2016-10-07T04:11:15Z</time></trkpt>
<trkpt lat="25.301385" lon="101.076876">
<time>2016-10-07T04:11:16Z</time></trkpt>
<trkpt lat="25.301395" lon="101.076816">
<time>2016-10-07T04:11:17Z</time></trkpt>
<trkpt lat="25.301415" lon="101.076736">
<time>2016-10-07T04:11:18Z</time></trkpt>
<trkpt lat="25.301445" lon="101.076676">
<time>2016-10-07T04:11:19Z</time></trkpt>
<trkpt lat="25.301485" lon="101.076616">
<time>2016-10-07T04:11:20Z</time></trkpt>
<trkpt lat="25.301535" lon="101.076586">
<time>2016-10-07T04:11:21Z</time></trkpt>
<trkpt lat="25.301585" lon="101.076546">
<time>2016-10-07T04:11:22Z</time></trkpt>
<trkpt lat="25.301645" lon="101.076516">
<time>2016-10-07T04:11:23Z</time></trkpt>
<trkpt lat="25.301936" lon="101.076366">
<time>2016-10-07T04:11:24Z</time></trkpt>
<trkpt lat="25.302006" lon="101.076316">
<time>2016-10-07T04:11:25Z</time></trkpt>
<trkpt lat="25.302056" lon="101.076266">
<time>2016-10-07T04:11:26Z</time></trkpt>
<trkpt lat="25.302096" lon="101.076207">
<time>2016-10-07T04:11:27Z</time></trkpt>
<trkpt lat="25.302126" lon="101.076157">
<time>2016-10-07T04:11:28Z</time></trkpt>
<trkpt lat="25.302146" lon="101.076107">
<time>2016-10-07T04:11:29Z</time></trkpt>
<trkpt lat="25.302166" lon="101.076057">
<time>2016-10-07T04:11:30Z</time></trkpt>
<trkpt lat="25.302186" lon="101.075997">
<time>2016-10-07T04:11:31Z</time></trkpt>
<trkpt lat="25.302196" lon="101.075947">
<time>2016-10-07T04:11:32Z</time></trkpt>
<trkpt lat="25.302206" lon="101.075897">
<time>2016-10-07T04:11:33Z</time></trkpt>
<trkpt lat="25.302216" lon="101.075857">
<time>2016-10-07T04:11:34Z</time></trkpt>
<trkpt lat="25.302216" lon="101.075807">
<time>2016-10-07T04:11:35Z</time></trkpt>
<trkpt lat="25.302226" lon="101.075747">
<time>2016-10-07T04:11:36Z</time></trkpt>
<trkpt lat="25.302226" lon="101.075677">
<time>2016-10-07T04:11:37Z</time></trkpt>
<trkpt lat="25.302216" lon="101.075518">
<time>2016-10-07T04:11:38Z</time></trkpt>
<trkpt lat="25.302187" lon="101.075318">
<time>2016-10-07T04:11:39Z</time></trkpt>
<trkpt lat="25.302177" lon="101.075238">
<time>2016-10-07T04:11:40Z</time></trkpt>
<trkpt lat="25.302167" lon="101.075178">
<time>2016-10-07T04:11:41Z</time></trkpt>
<trkpt lat="25.302147" lon="101.075128">
<time>2016-10-07T04:11:42Z</time></trkpt>
<trkpt lat="25.302127" lon="101.075078">
<time>2016-10-07T04:11:43Z</time></trkpt>
<trkpt lat="25.302107" lon="101.075028">
<time>2016-10-07T04:11:44Z</time></trkpt>
<trkpt lat="25.302077" lon="101.074998">
<time>2016-10-07T04:11:45Z</time></trkpt>
<trkpt lat="25.302037" lon="101.074969">
<time>2016-10-07T04:11:46Z</time></trkpt>
<trkpt lat="25.301997" lon="101.074949">
<time>2016-10-07T04:11:47Z</time></trkpt>
<trkpt lat="25.301937" lon="101.074939">
<time>2016-10-07T04:11:48Z</time></trkpt>
<trkpt lat="25.301877" lon="101.074929">
<time>2016-10-07T04:11:49Z</time></trkpt>
<trkpt lat="25.301667" lon="101.074899">
<time>2016-10-07T04:11:50Z</time></trkpt>
<trkpt lat="25.301607" lon="101.074889">
<time>2016-10-07T04:11:51Z</time></trkpt>
<trkpt lat="25.301547" lon="101.074869">
<time>2016-10-07T04:11:52Z</time></trkpt>
<trkpt lat="25.301477" lon="101.074819">
<time>2016-10-07T04:11:53Z</time></trkpt>
<trkpt lat="25.301427" lon="101.074739">
<time>2016-10-07T04:11:54Z</time></trkpt>
<trkpt lat="25.301387" lon="101.074669">
<time>2016-10-07T04:11:55Z</time></trkpt>
<trkpt lat="25.301367" lon="101.074579">
<time>2016-10-07T04:11:56Z</time></trkpt>
<trkpt lat="25.301367" lon="101.074499">
<time>2016-10-07T04:11:57Z</time></trkpt>
<trkpt lat="25.301398" lon="101.07427">
<time>2016-10-07T04:11:58Z</time></trkpt>
<trkpt lat="25.301438" lon="101.07399">
<time>2016-10-07T04:11:59Z</time></trkpt>
<trkpt lat="25.301498" lon="101.073731">
<time>2016-10-07T04:12:00Z</time></trkpt>
<trkpt lat="25.301578" lon="101.073481">
<time>2016-10-07T04:12:01Z</time></trkpt>
<trkpt lat="25.301679" lon="101.073191">
<time>2016-10-07T04:12:02Z</time></trkpt>
<trkpt lat="25.301729" lon="101.073072">
<time>2016-10-07T04:12:03Z</time></trkpt>
<trkpt lat="25.301809" lon="101.072962">
<time>2016-10-07T04:12:04Z</time></trkpt>
<trkpt lat="25.301889" lon="101.072892">
<time>2016-10-07T04:12:05Z</time></trkpt>
<trkpt lat="25.301999" lon="101.072822">
<time>2016-10-07T04:12:06Z</time></trkpt>
<trkpt lat="25.30305" lon="101.072363">
<time>2016-10-07T04:12:07Z</time></trkpt>
<trkpt lat="25.30314" lon="101.072303">
<time>2016-10-07T04:12:08Z</time></trkpt>
<trkpt lat="25.30319" lon="101.072263">
<time>2016-10-07T04:12:09Z</time></trkpt>
<trkpt lat="25.30322" lon="101.072223">
<time>2016-10-07T04:12:10Z</time></trkpt>
<trkpt lat="25.30324" lon="101.072183">
<time>2016-10-07T04:12:11Z</time></trkpt>
<trkpt lat="25.30327" lon="101.072093">
<time>2016-10-07T04:12:12Z</time></trkpt>
<trkpt lat="25.3033" lon="101.071854">
<time>2016-10-07T04:12:13Z</time></trkpt>
<trkpt lat="25.30332" lon="101.071744">
<time>2016-10-07T04:12:14Z</time></trkpt>
<trkpt lat="25.30335" lon="101.071644">
<time>2016-10-07T04:12:15Z</time></trkpt>
<trkpt lat="25.303381" lon="101.071564">
<time>2016-10-07T04:12:16Z</time></trkpt>
<trkpt lat="25.303431" lon="101.071474">
<time>2016-10-07T04:12:17Z</time></trkpt>
<trkpt lat="25.303501" lon="101.071365">
<time>2016-10-07T04:12:18Z</time></trkpt>
<trkpt lat="25.303581" lon="101.071265">
<time>2016-10-07T04:12:19Z</time></trkpt>
<trkpt lat="25.303671" lon="101.071125">
<time>2016-10-07T04:12:20Z</time></trkpt>
<trkpt lat="25.303741" lon="101.071015">
<time>2016-10-07T04:12:21Z</time></trkpt>
<trkpt lat="25.303791" lon="101.070895">
<time>2016-10-07T04:12:22Z</time></trkpt>
<trkpt lat="25.304152" lon="101.070007">
<time>2016-10-07T04:12:23Z</time></trkpt>
<trkpt lat="25.304243" lon="101.069778">
<time>2016-10-07T04:12:24Z</time></trkpt>
<trkpt lat="25.304323" lon="101.069618">
<time>2016-10-07T04:12:25Z</time></trkpt>
<trkpt lat="25.304373" lon="101.069548">
<time>2016-10-07T04:12:26Z</time></trkpt>
<trkpt lat="25.304423" lon="101.069478">
<time>2016-10-07T04:12:27Z</time></trkpt>
<trkpt lat="25.304473" lon="101.069448">
<time>2016-10-07T04:12:28Z</time></trkpt>
<trkpt lat="25.304493" lon="101.069428">
<time>2016-10-07T04:12:29Z</time></trkpt>
<trkpt lat="25.304583" lon="101.069388">
<time>2016-10-07T04:12:30Z</time></trkpt>
<trkpt lat="25.304703" lon="101.069348">
<time>2016-10-07T04:12:31Z</time></trkpt>
<trkpt lat="25.305023" lon="101.069298">
<time>2016-10-07T04:12:32Z</time></trkpt>
<trkpt lat="25.305973" lon="101.069229">
<time>2016-10-07T04:12:33Z</time></trkpt>
<trkpt lat="25.306074" lon="101.069209">
<time>2016-10-07T04:12:34Z</time></trkpt>
<trkpt lat="25.306164" lon="101.069169">
<time>2016-10-07T04:12:35Z</time></trkpt>
<trkpt lat="25.306244" lon="101.069109">
<time>2016-10-07T04:12:36Z</time></trkpt>
<trkpt lat="25.306254" lon="101.069099">
<time>2016-10-07T04:12:37Z</time></trkpt>
<trkpt lat="25.306324" lon="101.069009">
<time>2016-10-07T04:12:38Z</time></trkpt>
<trkpt lat="25.306374" lon="101.068919">
<time>2016-10-07T04:12:39Z</time></trkpt>
<trkpt lat="25.306575" lon="101.06833">
<time>2016-10-07T04:12:40Z</time></trkpt>
<trkpt lat="25.306675" lon="101.068111">
<time>2016-10-07T04:12:41Z</time></trkpt>
<trkpt lat="25.306765" lon="101.067941">
<time>2016-10-07T04:12:42Z</time></trkpt>
<trkpt lat="25.306845" lon="101.067821">
<time>2016-10-07T04:12:43Z</time></trkpt>
<trkpt lat="25.306925" lon="101.067721">
<time>2016-10-07T04:12:44Z</time></trkpt>
<trkpt lat="25.307006" lon="101.067642">
<time>2016-10-07T04:12:45Z</time></trkpt>
<trkpt lat="25.307076" lon="101.067592">
<time>2016-10-07T04:12:46Z</time></trkpt>
<trkpt lat="25.307216" lon="101.067512">
<time>2016-10-07T04:12:47Z</time></trkpt>
<trkpt lat="25.307336" lon="101.067452">
<time>2016-10-07T04:12:48Z</time></trkpt>
<trkpt lat="25.307396" lon="101.067422">
<time>2016-10-07T04:12:49Z</time></trkpt>
<trkpt lat="25.307446" lon="101.067412">
<time>2016-10-07T04:12:50Z</time></trkpt>
<trkpt lat="25.307546" lon="101.067372">
<time>2016-10-07T04:12:51Z</time></trkpt>
<trkpt lat="25.307716" lon="101.067302">
<time>2016-10-07T04:12:52Z</time></trkpt>
<trkpt lat="25.307816" lon="101.067262">
<time>2016-10-07T04:12:53Z</time></trkpt>
<trkpt lat="25.307896" lon="101.067232">
<time>2016-10-07T04:12:54Z</time></trkpt>
<trkpt lat="25.308006" lon="101.067182">
<time>2016-10-07T04:12:55Z</time></trkpt>
<trkpt lat="25.308086" lon="101.067162">
<time>2016-10-07T04:12:56Z</time></trkpt>
<trkpt lat="25.308186" lon="101.067123">
<time>2016-10-07T04:12:57Z</time></trkpt>
<trkpt lat="25.308266" lon="101.067083">
<time>2016-10-07T04:12:58Z</time></trkpt>
<trkpt lat="25.308316" lon="101.067063">
<time>2016-10-07T04:12:59Z</time></trkpt>
<trkpt lat="25.308356" lon="101.067033">
<time>2016-10-07T04:13:00Z</time></trkpt>
<trkpt lat="25.308387" lon="101.067003">
<time>2016-10-07T04:13:01Z</time></trkpt>
<trkpt lat="25.308427" lon="101.066963">
<time>2016-10-07T04:13:02Z</time></trkpt>
<trkpt lat="25.308437" lon="101.066933">
<time>2016-10-07T04:13:03Z</time></trkpt>
<trkpt lat="25.308457" lon="101.066903">
<time>2016-10-07T04:13:04Z</time></trkpt>
<trkpt lat="25.308467" lon="101.066853">
<time>2016-10-07T04:13:05Z</time></trkpt>
<trkpt lat="25.308477" lon="101.066803">
<time>2016-10-07T04:13:06Z</time></trkpt>
<trkpt lat="25.308477" lon="101.066743">
<time>2016-10-07T04:13:07Z</time></trkpt>
<trkpt lat="25.308467" lon="101.066693">
<time>2016-10-07T04:13:08Z</time></trkpt>
<trkpt lat="25.308457" lon="101.066654">
<time>2016-10-07T04:13:09Z</time></trkpt>
<trkpt lat="25.308437" lon="101.066614">
<time>2016-10-07T04:13:10Z</time></trkpt>
<trkpt lat="25.308407" lon="101.066574">
<time>2016-10-07T04:13:11Z</time></trkpt>
<trkpt lat="25.308377" lon="101.066544">
<time>2016-10-07T04:13:12Z</time></trkpt>
<trkpt lat="25.308357" lon="101.066514">
<time>2016-10-07T04:13:13Z</time></trkpt>
<trkpt lat="25.308317" lon="101.066494">
<time>2016-10-07T04:13:14Z</time></trkpt>
<trkpt lat="25.308287" lon="101.066474">
<time>2016-10-07T04:13:15Z</time></trkpt>
<trkpt lat="25.308237" lon="101.066454">
<time>2016-10-07T04:13:16Z</time></trkpt>
<trkpt lat="25.308137" lon="101.066424">
<time>2016-10-07T04:13:17Z</time></trkpt>
<trkpt lat="25.307947" lon="101.066374">
<time>2016-10-07T04:13:18Z</time></trkpt>
<trkpt lat="25.307897" lon="101.066354">
<time>2016-10-07T04:13:19Z</time></trkpt>
<trkpt lat="25.307847" lon="101.066324">
<time>2016-10-07T04:13:20Z</time></trkpt>
<trkpt lat="25.307817" lon="101.066304">
<time>2016-10-07T04:13:21Z</time></trkpt>
<trkpt lat="25.307787" lon="101.066284">
<time>2016-10-07T04:13:22Z</time></trkpt>
<trkpt lat="25.307757" lon="101.066254">
<time>2016-10-07T04:13:23Z</time></trkpt>
<trkpt lat="25.307738" lon="101.066224">
<time>2016-10-07T04:13:24Z</time></trkpt>
<trkpt lat="25.307698" lon="101.066184">
<time>2016-10-07T04:13:25Z</time></trkpt>
<trkpt lat="25.307678" lon="101.066145">
<time>2016-10-07T04:13:26Z</time></trkpt>
<trkpt lat="25.307628" lon="101.066025">
<time>2016-10-07T04:13:27Z</time></trkpt>
<trkpt lat="25.307598" lon="101.065895">
<time>2016-10-07T04:13:28Z</time></trkpt>
<trkpt lat="25.307509" lon="101.065456">
<time>2016-10-07T04:13:29Z</time></trkpt>
<trkpt lat="25.307389" lon="101.064787">
<time>2016-10-07T04:13:30Z</time></trkpt>
<trkpt lat="25.30737" lon="101.064608">
<time>2016-10-07T04:13:31Z</time></trkpt>
<trkpt lat="25.30736" lon="101.064448">
<time>2016-10-07T04:13:32Z</time></trkpt>
<trkpt lat="25.30736" lon="101.064328">
<time>2016-10-07T04:13:33Z</time></trkpt>
<trkpt lat="25.30736" lon="101.064278">
<time>2016-10-07T04:13:34Z</time></trkpt>
<trkpt lat="25.307371" lon="101.064029">
<time>2016-10-07T04:13:35Z</time></trkpt>
<trkpt lat="25.307401" lon="101.06346">
<time>2016-10-07T04:13:36Z</time></trkpt>
<trkpt lat="25.307412" lon="101.063261">
<time>2016-10-07T04:13:37Z</time></trkpt>
<trkpt lat="25.307412" lon="101.063061">
<time>2016-10-07T04:13:38Z</time></trkpt>
<trkpt lat="25.307392" lon="101.062862">
<time>2016-10-07T04:13:39Z</time></trkpt>
<trkpt lat="25.307343" lon="101.062612">
<time>2016-10-07T04:13:40Z</time></trkpt>
<trkpt lat="25.307263" lon="101.062343">
<time>2016-10-07T04:13:41Z</time></trkpt>
<trkpt lat="25.307124" lon="101.061984">
<time>2016-10-07T04:13:42Z</time></trkpt>
<trkpt lat="25.307104" lon="101.061854">
<time>2016-10-07T04:13:43Z</time></trkpt>
<trkpt lat="25.307094" lon="101.061734">
<time>2016-10-07T04:13:44Z</time></trkpt>
<trkpt lat="25.307094" lon="101.061624">
<time>2016-10-07T04:13:45Z</time></trkpt>
<trkpt lat="25.307114" lon="101.061495">
<time>2016-10-07T04:13:46Z</time></trkpt>
<trkpt lat="25.307135" lon="101.061395">
<time>2016-10-07T04:13:47Z</time></trkpt>
<trkpt lat="25.307165" lon="101.061285">
<time>2016-10-07T04:13:48Z</time></trkpt>
<trkpt lat="25.307195" lon="101.061215">
<time>2016-10-07T04:13:49Z</time></trkpt>
<trkpt lat="25.307225" lon="101.061135">
<time>2016-10-07T04:13:50Z</time></trkpt>
<trkpt lat="25.307255" lon="101.061076">
<time>2016-10-07T04:13:51Z</time></trkpt>
<trkpt lat="25.307295" lon="101.061026">
<time>2016-10-07T04:13:52Z</time></trkpt>
<trkpt lat="25.307335" lon="101.060966">
<time>2016-10-07T04:13:53Z</time></trkpt>
<trkpt lat="25.307395" lon="101.060916">
<time>2016-10-07T04:13:54Z</time></trkpt>
<trkpt lat="25.307455" lon="101.060866">
<time>2016-10-07T04:13:55Z</time></trkpt>
<trkpt lat="25.307896" lon="101.060607">
<time>2016-10-07T04:13:56Z</time></trkpt>
<trkpt lat="25.308096" lon="101.060467">
<time>2016-10-07T04:13:57Z</time></trkpt>
<trkpt lat="25.308186" lon="101.060367">
<time>2016-10-07T04:13:58Z</time></trkpt>
<trkpt lat="25.308216" lon="101.060317">
<time>2016-10-07T04:13:59Z</time></trkpt>
<trkpt lat="25.308236" lon="101.060257">
<time>2016-10-07T04:14:00Z</time></trkpt>
<trkpt lat="25.308246" lon="101.060198">
<time>2016-10-07T04:14:01Z</time></trkpt>
<trkpt lat="25.308247" lon="101.060148">
<time>2016-10-07T04:14:02Z</time></trkpt>
<trkpt lat="25.308227" lon="101.060088">
<time>2016-10-07T04:14:03Z</time></trkpt>
<trkpt lat="25.308207" lon="101.060038">
<time>2016-10-07T04:14:04Z</time></trkpt>
<trkpt lat="25.308167" lon="101.059978">
<time>2016-10-07T04:14:05Z</time></trkpt>
<trkpt lat="25.308117" lon="101.059938">
<time>2016-10-07T04:14:06Z</time></trkpt>
<trkpt lat="25.308067" lon="101.059918">
<time>2016-10-07T04:14:07Z</time></trkpt>
<trkpt lat="25.307987" lon="101.059898">
<time>2016-10-07T04:14:08Z</time></trkpt>
<trkpt lat="25.307887" lon="101.059888">
<time>2016-10-07T04:14:09Z</time></trkpt>
<trkpt lat="25.307787" lon="101.059878">
<time>2016-10-07T04:14:10Z</time></trkpt>
<trkpt lat="25.307697" lon="101.059868">
<time>2016-10-07T04:14:11Z</time></trkpt>
<trkpt lat="25.307627" lon="101.059838">
<time>2016-10-07T04:14:12Z</time></trkpt>
<trkpt lat="25.307587" lon="101.059809">
<time>2016-10-07T04:14:13Z</time></trkpt>
<trkpt lat="25.307547" lon="101.059759">
<time>2016-10-07T04:14:14Z</time></trkpt>
<trkpt lat="25.307517" lon="101.059699">
<time>2016-10-07T04:14:15Z</time></trkpt>
<trkpt lat="25.307507" lon="101.059619">
<time>2016-10-07T04:14:16Z</time></trkpt>
<trkpt lat="25.307517" lon="101.059559">
<time>2016-10-07T04:14:17Z</time></trkpt>
<trkpt lat="25.307548" lon="101.059469">
<time>2016-10-07T04:14:18Z</time></trkpt>
<trkpt lat="25.307568" lon="101.05939">
<time>2016-10-07T04:14:19Z</time></trkpt>
<trkpt lat="25.307698" lon="101.05898">
<time>2016-10-07T04:14:20Z</time></trkpt>
<trkpt lat="25.307739" lon="101.058831">
<time>2016-10-07T04:14:21Z</time></trkpt>
<trkpt lat="25.307749" lon="101.058781">
<time>2016-10-07T04:14:22Z</time></trkpt>
<trkpt lat="25.307749" lon="101.058721">
<time>2016-10-07T04:14:23Z</time></trkpt>
<trkpt lat="25.307749" lon="101.058611">
<time>2016-10-07T04:14:24Z</time></trkpt>
<trkpt lat="25.307739" lon="101.058432">
<time>2016-10-07T04:14:25Z</time></trkpt>
<trkpt lat="25.307739" lon="101.058352">
<time>2016-10-07T04:14:26Z</time></trkpt>
<trkpt lat="25.30774" lon="101.058262">
<time>2016-10-07T04:14:27Z</time></trkpt>
<trkpt lat="25.30775" lon="101.058162">
<time>2016-10-07T04:14:28Z</time></trkpt>
<trkpt lat="25.30781" lon="101.057843">
<time>2016-10-07T04:14:29Z</time></trkpt>
<trkpt lat="25.307901" lon="101.057404">
<time>2016-10-07T04:14:30Z</time></trkpt>
<trkpt lat="25.307962" lon="101.057165">
<time>2016-10-07T04:14:31Z</time></trkpt>
<trkpt lat="25.308002" lon="101.057035">
<time>2016-10-07T04:14:32Z</time></trkpt>
<trkpt lat="25.308042" lon="101.056935">
<time>2016-10-07T04:14:33Z</time></trkpt>
<trkpt lat="25.308082" lon="101.056866">
<time>2016-10-07T04:14:34Z</time></trkpt>
<trkpt lat="25.308122" lon="101.056826">
<time>2016-10-07T04:14:35Z</time></trkpt>
<trkpt lat="25.308162" lon="101.056776">
<time>2016-10-07T04:14:36Z</time></trkpt>
<trkpt lat="25.308242" lon="101.056706">
<time>2016-10-07T04:14:37Z</time></trkpt>
<trkpt lat="25.308363" lon="101.056626">
<time>2016-10-07T04:14:38Z</time></trkpt>
<trkpt lat="25.308403" lon="101.056586">
<time>2016-10-07T04:14:39Z</time></trkpt>
<trkpt lat="25.308443" lon="101.056556">
<time>2016-10-07T04:14:40Z</time></trkpt>
<trkpt lat="25.308483" lon="101.056516">
<time>2016-10-07T04:14:41Z</time></trkpt>
<trkpt lat="25.308503" lon="101.056477">
<time>2016-10-07T04:14:42Z</time></trkpt>
<trkpt lat="25.308513" lon="101.056447">
<time>2016-10-07T04:14:43Z</time></trkpt>
<trkpt lat="25.308523" lon="101.056407">
<time>2016-10-07T04:14:44Z</time></trkpt>
<trkpt lat="25.308533" lon="101.056377">
<time>2016-10-07T04:14:45Z</time></trkpt>
<trkpt lat="25.308533" lon="101.056347">
<time>2016-10-07T04:14:46Z</time></trkpt>
<trkpt lat="25.308523" lon="101.056307">
<time>2016-10-07T04:14:47Z</time></trkpt>
<trkpt lat="25.308503" lon="101.056247">
<time>2016-10-07T04:14:48Z</time></trkpt>
<trkpt lat="25.308463" lon="101.056147">
<time>2016-10-07T04:14:49Z</time></trkpt>
<trkpt lat="25.308404" lon="101.055978">
<time>2016-10-07T04:14:50Z</time></trkpt>
<trkpt lat="25.308384" lon="101.055878">
<time>2016-10-07T04:14:51Z</time></trkpt>
<trkpt lat="25.308374" lon="101.055778">
<time>2016-10-07T04:14:52Z</time></trkpt>
<trkpt lat="25.308374" lon="101.055689">
<time>2016-10-07T04:14:53Z</time></trkpt>
<trkpt lat="25.308374" lon="101.055599">
<time>2016-10-07T04:14:54Z</time></trkpt>
<trkpt lat="25.308375" lon="101.055459">
<time>2016-10-07T04:14:55Z</time></trkpt>
<trkpt lat="25.308395" lon="101.055339">
<time>2016-10-07T04:14:56Z</time></trkpt>
<trkpt lat="25.308405" lon="101.05523">
<time>2016-10-07T04:14:57Z</time></trkpt>
<trkpt lat="25.308435" lon="101.05511">
<time>2016-10-07T04:14:58Z</time></trkpt>
<trkpt lat="25.308546" lon="101.054831">
<time>2016-10-07T04:14:59Z</time></trkpt>
<trkpt lat="25.308666" lon="101.054571">
<time>2016-10-07T04:15:00Z</time></trkpt>
<trkpt lat="25.308706" lon="101.054492">
<time>2016-10-07T04:15:01Z</time></trkpt>
<trkpt lat="25.308757" lon="101.054422">
<time>2016-10-07T04:15:02Z</time></trkpt>
<trkpt lat="25.308807" lon="101.054362">
<time>2016-10-07T04:15:03Z</time></trkpt>
<trkpt lat="25.308867" lon="101.054312">
<time>2016-10-07T04:15:04Z</time></trkpt>
<trkpt lat="25.308957" lon="101.054262">
<time>2016-10-07T04:15:05Z</time></trkpt>
<trkpt lat="25.309057" lon="101.054222">
<time>2016-10-07T04:15:06Z</time></trkpt>
<trkpt lat="25.309177" lon="101.054202">
<time>2016-10-07T04:15:07Z</time></trkpt>
<trkpt lat="25.309327" lon="101.054162">
<time>2016-10-07T04:15:08Z</time></trkpt>
<trkpt lat="25.309407" lon="101.054143">
<time>2016-10-07T04:15:09Z</time></trkpt>
<trkpt lat="25.309477" lon="101.054133">
<time>2016-10-07T04:15:10Z</time></trkpt>
<trkpt lat="25.309597" lon="101.054103">
<time>2016-10-07T04:15:11Z</time></trkpt>
<trkpt lat="25.309697" lon="101.054063">
<time>2016-10-07T04:15:12Z</time></trkpt>
<trkpt lat="25.309757" lon="101.054033">
<time>2016-10-07T04:15:13Z</time></trkpt>
<trkpt lat="25.309807" lon="101.053993">
<time>2016-10-07T04:15:14Z</time></trkpt>
<trkpt lat="25.309847" lon="101.053953">
<time>2016-10-07T04:15:15Z</time></trkpt>
<trkpt lat="25.309878" lon="101.053893">
<time>2016-10-07T04:15:16Z</time></trkpt>
<trkpt lat="25.309888" lon="101.053823">
<time>2016-10-07T04:15:17Z</time></trkpt>
<trkpt lat="25.309898" lon="101.053744">
<time>2016-10-07T04:15:18Z</time></trkpt>
<trkpt lat="25.309888" lon="101.053644">
<time>2016-10-07T04:15:19Z</time></trkpt>
<trkpt lat="25.309848" lon="101.053464">
<time>2016-10-07T04:15:20Z</time></trkpt>
<trkpt lat="25.309759" lon="101.053115">
<time>2016-10-07T04:15:21Z</time></trkpt>
<trkpt lat="25.309729" lon="101.052946">
<time>2016-10-07T04:15:22Z</time></trkpt>
<trkpt lat="25.30972" lon="101.052796">
<time>2016-10-07T04:15:23Z</time></trkpt>
<trkpt lat="25.30972" lon="101.052696">
<time>2016-10-07T04:15:24Z</time></trkpt>
<trkpt lat="25.30973" lon="101.052617">
<time>2016-10-07T04:15:25Z</time></trkpt>
<trkpt lat="25.30974" lon="101.052547">
<time>2016-10-07T04:15:26Z</time></trkpt>
<trkpt lat="25.309831" lon="101.052218">
<time>2016-10-07T04:15:27Z</time></trkpt>
<trkpt lat="25.309881" lon="101.052018">
<time>2016-10-07T04:15:28Z</time></trkpt>
<trkpt lat="25.309912" lon="101.051819">
<time>2016-10-07T04:15:29Z</time></trkpt>
<trkpt lat="25.309942" lon="101.051629">
<time>2016-10-07T04:15:30Z</time></trkpt>
<trkpt lat="25.309973" lon="101.05132">
<time>2016-10-07T04:15:31Z</time></trkpt>
<trkpt lat="25.310013" lon="101.050921">
<time>2016-10-07T04:15:32Z</time></trkpt>
<trkpt lat="25.310023" lon="101.050841">
<time>2016-10-07T04:15:33Z</time></trkpt>
<trkpt lat="25.310044" lon="101.050752">
<time>2016-10-07T04:15:34Z</time></trkpt>
<trkpt lat="25.310064" lon="101.050692">
<time>2016-10-07T04:15:35Z</time></trkpt>
<trkpt lat="25.310084" lon="101.050632">
<time>2016-10-07T04:15:36Z</time></trkpt>
<trkpt lat="25.310104" lon="101.050592">
<time>2016-10-07T04:15:37Z</time></trkpt>
<trkpt lat="25.310144" lon="101.050552">
<time>2016-10-07T04:15:38Z</time></trkpt>
<trkpt lat="25.310214" lon="101.050512">
<time>2016-10-07T04:15:39Z</time></trkpt>
<trkpt lat="25.310304" lon="101.050482">
<time>2016-10-07T04:15:40Z</time></trkpt>
<trkpt lat="25.310394" lon="101.050462">
<time>2016-10-07T04:15:41Z</time></trkpt>
<trkpt lat="25.310564" lon="101.050432">
<time>2016-10-07T04:15:42Z</time></trkpt>
<trkpt lat="25.310634" lon="101.050412">
<time>2016-10-07T04:15:43Z</time></trkpt>
<trkpt lat="25.310684" lon="101.050383">
<time>2016-10-07T04:15:44Z</time></trkpt>
<trkpt lat="25.310734" lon="101.050353">
<time>2016-10-07T04:15:45Z</time></trkpt>
<trkpt lat="25.310775" lon="101.050313">
<time>2016-10-07T04:15:46Z</time></trkpt>
<trkpt lat="25.310795" lon="101.050283">
<time>2016-10-07T04:15:47Z</time></trkpt>
<trkpt lat="25.310805" lon="101.050233">
<time>2016-10-07T04:15:48Z</time></trkpt>
<trkpt lat="25.310815" lon="101.050173">
<time>2016-10-07T04:15:49Z</time></trkpt>
<trkpt lat="25.310815" lon="101.050103">
<time>2016-10-07T04:15:50Z</time></trkpt>
<trkpt lat="25.310805" lon="101.050034">
<time>2016-10-07T04:15:51Z</time></trkpt>
<trkpt lat="25.310785" lon="101.049964">
<time>2016-10-07T04:15:52Z</time></trkpt>
<trkpt lat="25.310745" lon="101.049874">
<time>2016-10-07T04:15:53Z</time></trkpt>
<trkpt lat="25.310676" lon="101.049744">
<time>2016-10-07T04:15:54Z</time></trkpt>
<trkpt lat="25.310586" lon="101.049625">
<time>2016-10-07T04:15:55Z</time></trkpt>
<trkpt lat="25.310536" lon="101.049575">
<time>2016-10-07T04:15:56Z</time></trkpt>
<trkpt lat="25.310486" lon="101.049525">
<time>2016-10-07T04:15:57Z</time></trkpt>
<trkpt lat="25.310396" lon="101.049455">
<time>2016-10-07T04:15:58Z</time></trkpt>
<trkpt lat="25.310306" lon="101.049385">
<time>2016-10-07T04:15:59Z</time></trkpt>
<trkpt lat="25.310217" lon="101.049336">
<time>2016-10-07T04:16:00Z</time></trkpt>
<trkpt lat="25.310137" lon="101.049296">
<time>2016-10-07T04:16:01Z</time></trkpt>
<trkpt lat="25.310057" lon="101.049266">
<time>2016-10-07T04:16:02Z</time></trkpt>
<trkpt lat="25.309587" lon="101.049106">
<time>2016-10-07T04:16:03Z</time></trkpt>
<trkpt lat="25.309407" lon="101.049036">
<time>2016-10-07T04:16:04Z</time></trkpt>
<trkpt lat="25.309227" lon="101.048967">
<time>2016-10-07T04:16:05Z</time></trkpt>
<trkpt lat="25.309117" lon="101.048917">
<time>2016-10-07T04:16:06Z</time></trkpt>
<trkpt lat="25.309037" lon="101.048867">
<time>2016-10-07T04:16:07Z</time></trkpt>
<trkpt lat="25.308957" lon="101.048807">
<time>2016-10-07T04:16:08Z</time></trkpt>
<trkpt lat="25.308878" lon="101.048727">
<time>2016-10-07T04:16:09Z</time></trkpt>
<trkpt lat="25.308768" lon="101.048598">
<time>2016-10-07T04:16:10Z</time></trkpt>
<trkpt lat="25.308678" lon="101.048468">
<time>2016-10-07T04:16:11Z</time></trkpt>
<trkpt lat="25.308598" lon="101.048338">
<time>2016-10-07T04:16:12Z</time></trkpt>
<trkpt lat="25.308549" lon="101.048229">
<time>2016-10-07T04:16:13Z</time></trkpt>
<trkpt lat="25.308549" lon="101.048219">
<time>2016-10-07T04:16:14Z</time></trkpt>
<trkpt lat="25.308519" lon="101.048139">
<time>2016-10-07T04:16:15Z</time></trkpt>
<trkpt lat="25.308509" lon="101.048099">
<time>2016-10-07T04:16:16Z</time></trkpt>
<trkpt lat="25.308499" lon="101.048029">
<time>2016-10-07T04:16:17Z</time></trkpt>
<trkpt lat="25.308489" lon="101.04793">
<time>2016-10-07T04:16:18Z</time></trkpt>
<trkpt lat="25.308499" lon="101.04784">
<time>2016-10-07T04:16:19Z</time></trkpt>
<trkpt lat="25.30852" lon="101.04777">
<time>2016-10-07T04:16:20Z</time></trkpt>
<trkpt lat="25.30856" lon="101.04769">
<time>2016-10-07T04:16:21Z</time></trkpt>
<trkpt lat="25.30861" lon="101.04763">
<time>2016-10-07T04:16:22Z</time></trkpt>
<trkpt lat="25.30869" lon="101.047571">
<time>2016-10-07T04:16:23Z</time></trkpt>
<trkpt lat="25.30879" lon="101.047511">
<time>2016-10-07T04:16:24Z</time></trkpt>
<trkpt lat="25.30891" lon="101.047461">
<time>2016-10-07T04:16:25Z</time></trkpt>
<trkpt lat="25.30905" lon="101.047421">
<time>2016-10-07T04:16:26Z</time></trkpt>
<trkpt lat="25.30926" lon="101.047371">
<time>2016-10-07T04:16:27Z</time></trkpt>
<trkpt lat="25.309471" lon="101.047321">
<time>2016-10-07T04:16:28Z</time></trkpt>
<trkpt lat="25.309661" lon="101.047281">
<time>2016-10-07T04:16:29Z</time></trkpt>
<trkpt lat="25.309841" lon="101.047232">
<time>2016-10-07T04:16:30Z</time></trkpt>
<trkpt lat="25.309931" lon="101.047192">
<time>2016-10-07T04:16:31Z</time></trkpt>
<trkpt lat="25.309991" lon="101.047172">
<time>2016-10-07T04:16:32Z</time></trkpt>
<trkpt lat="25.310031" lon="101.047142">
<time>2016-10-07T04:16:33Z</time></trkpt>
<trkpt lat="25.310061" lon="101.047112">
<time>2016-10-07T04:16:34Z</time></trkpt>
<trkpt lat="25.310101" lon="101.047072">
<time>2016-10-07T04:16:35Z</time></trkpt>
<trkpt lat="25.310121" lon="101.047032">
<time>2016-10-07T04:16:36Z</time></trkpt>
<trkpt lat="25.310131" lon="101.046982">
<time>2016-10-07T04:16:37Z</time></trkpt>
<trkpt lat="25.310142" lon="101.046922">
<time>2016-10-07T04:16:38Z</time></trkpt>
<trkpt lat="25.310132" lon="101.046892">
<time>2016-10-07T04:16:39Z</time></trkpt>
<trkpt lat="25.310132" lon="101.046853">
<time>2016-10-07T04:16:40Z</time></trkpt>
<trkpt lat="25.310122" lon="101.046823">
<time>2016-10-07T04:16:41Z</time></trkpt>
<trkpt lat="25.310112" lon="101.046783">
<time>2016-10-07T04:16:42Z</time></trkpt>
<trkpt lat="25.310092" lon="101.046753">
<time>2016-10-07T04:16:43Z</time></trkpt>
<trkpt lat="25.310072" lon="101.046723">
<time>2016-10-07T04:16:44Z</time></trkpt>
<trkpt lat="25.310032" lon="101.046663">
<time>2016-10-07T04:16:45Z</time></trkpt>
<trkpt lat="25.309962" lon="101.046593">
<time>2016-10-07T04:16:46Z</time></trkpt>
<trkpt lat="25.309902" lon="101.046544">
<time>2016-10-07T04:16:47Z</time></trkpt>
<trkpt lat="25.309783" lon="101.046424">
<time>2016-10-07T04:16:48Z</time></trkpt>
<trkpt lat="25.309733" lon="101.046334">
<time>2016-10-07T04:16:49Z</time></trkpt>
<trkpt lat="25.309693" lon="101.046224">
<time>2016-10-07T04:16:50Z</time></trkpt>
<trkpt lat="25.309663" lon="101.046105">
<time>2016-10-07T04:16:51Z</time></trkpt>
<trkpt lat="25.309653" lon="101.045975">
<time>2016-10-07T04:16:52Z</time></trkpt>
<trkpt lat="25.309664" lon="101.045826">
<time>2016-10-07T04:16:53Z</time></trkpt>
<trkpt lat="25.309704" lon="101.045596">
<time>2016-10-07T04:16:54Z</time></trkpt>
<trkpt lat="25.309775" lon="101.045188">
<time>2016-10-07T04:16:55Z</time></trkpt>
<trkpt lat="25.309786" lon="101.045048">
<time>2016-10-07T04:16:56Z</time></trkpt>
<trkpt lat="25.309776" lon="101.044928">
<time>2016-10-07T04:16:57Z</time></trkpt>
<trkpt lat="25.309756" lon="101.044799">
<time>2016-10-07T04:16:58Z</time></trkpt>
<trkpt lat="25.309617" lon="101.04443">
<time>2016-10-07T04:16:59Z</time></trkpt>
<trkpt lat="25.309567" lon="101.04426">
<time>2016-10-07T04:17:00Z</time></trkpt>
<trkpt lat="25.309557" lon="101.044151">
<time>2016-10-07T04:17:01Z</time></trkpt>
<trkpt lat="25.309558" lon="101.044051">
<time>2016-10-07T04:17:02Z</time></trkpt>
<trkpt lat="25.309578" lon="101.043921">
<time>2016-10-07T04:17:03Z</time></trkpt>
<trkpt lat="25.309648" lon="101.043722">
<time>2016-10-07T04:17:04Z</time></trkpt>
<trkpt lat="25.309739" lon="101.043353">
<time>2016-10-07T04:17:05Z</time></trkpt>
<trkpt lat="25.30978" lon="101.042835">
<time>2016-10-07T04:17:06Z</time></trkpt>
<trkpt lat="25.309811" lon="101.042665">
<time>2016-10-07T04:17:07Z</time></trkpt>
<trkpt lat="25.309841" lon="101.042545">
<time>2016-10-07T04:17:08Z</time></trkpt>
<trkpt lat="25.309902" lon="101.042366">
<time>2016-10-07T04:17:09Z</time></trkpt>
<trkpt lat="25.310012" lon="101.042197">
<time>2016-10-07T04:17:10Z</time></trkpt>
<trkpt lat="25.310122" lon="101.042047">
<time>2016-10-07T04:17:11Z</time></trkpt>
<trkpt lat="25.310273" lon="101.041808">
<time>2016-10-07T04:17:12Z</time></trkpt>
<trkpt lat="25.310373" lon="101.041628">
<time>2016-10-07T04:17:13Z</time></trkpt>
<trkpt lat="25.310413" lon="101.041529">
<time>2016-10-07T04:17:14Z</time></trkpt>
<trkpt lat="25.310444" lon="101.041459">
<time>2016-10-07T04:17:15Z</time></trkpt>
<trkpt lat="25.310464" lon="101.041379">
<time>2016-10-07T04:17:16Z</time></trkpt>
<trkpt lat="25.310474" lon="101.041309">
<time>2016-10-07T04:17:17Z</time></trkpt>
<trkpt lat="25.310474" lon="101.04122">
<time>2016-10-07T04:17:18Z</time></trkpt>
<trkpt lat="25.310464" lon="101.04111">
<time>2016-10-07T04:17:19Z</time></trkpt>
<trkpt lat="25.310435" lon="101.040731">
<time>2016-10-07T04:17:20Z</time></trkpt>
<trkpt lat="25.310426" lon="101.040512">
<time>2016-10-07T04:17:21Z</time></trkpt>
<trkpt lat="25.310416" lon="101.040273">
<time>2016-10-07T04:17:22Z</time></trkpt>
<trkpt lat="25.310417" lon="101.040093">
<time>2016-10-07T04:17:23Z</time></trkpt>
<trkpt lat="25.310427" lon="101.039884">
<time>2016-10-07T04:17:24Z</time></trkpt>
<trkpt lat="25.31051" lon="101.038847">
<time>2016-10-07T04:17:25Z</time></trkpt>
<trkpt lat="25.31051" lon="101.038757">
<time>2016-10-07T04:17:26Z</time></trkpt>
<trkpt lat="25.31051" lon="101.038668">
<time>2016-10-07T04:17:27Z</time></trkpt>
<trkpt lat="25.3105" lon="101.038588">
<time>2016-10-07T04:17:28Z</time></trkpt>
<trkpt lat="25.310491" lon="101.038488">
<time>2016-10-07T04:17:29Z</time></trkpt>
<trkpt lat="25.310451" lon="101.038389">
<time>2016-10-07T04:17:30Z</time></trkpt>
<trkpt lat="25.310331" lon="101.038179">
<time>2016-10-07T04:17:31Z</time></trkpt>
<trkpt lat="25.310242" lon="101.03804">
<time>2016-10-07T04:17:32Z</time></trkpt>
<trkpt lat="25.310033" lon="101.037671">
<time>2016-10-07T04:17:33Z</time></trkpt>
<trkpt lat="25.309933" lon="101.037521">
<time>2016-10-07T04:17:34Z</time></trkpt>
<trkpt lat="25.309893" lon="101.037412">
<time>2016-10-07T04:17:35Z</time></trkpt>
<trkpt lat="25.309863" lon="101.037312">
<time>2016-10-07T04:17:36Z</time></trkpt>
<trkpt lat="25.309854" lon="101.037202">
<time>2016-10-07T04:17:37Z</time></trkpt>
<trkpt lat="25.309844" lon="101.037093">
<time>2016-10-07T04:17:38Z</time></trkpt>
<trkpt lat="25.309854" lon="101.036983">
<time>2016-10-07T04:17:39Z</time></trkpt>
<trkpt lat="25.309885" lon="101.036744">
<time>2016-10-07T04:17:40Z</time></trkpt>
<trkpt lat="25.309895" lon="101.036545">
<time>2016-10-07T04:17:41Z</time></trkpt>
<trkpt lat="25.309896" lon="101.036375">
<time>2016-10-07T04:17:42Z</time></trkpt>
<trkpt lat="25.309886" lon="101.036096">
<time>2016-10-07T04:17:43Z</time></trkpt>
<trkpt lat="25.309887" lon="101.035976">
<time>2016-10-07T04:17:44Z</time></trkpt>
<trkpt lat="25.309897" lon="101.035847">
<time>2016-10-07T04:17:45Z</time></trkpt>
<trkpt lat="25.309927" lon="101.035697">
<time>2016-10-07T04:17:46Z</time></trkpt>
<trkpt lat="25.309968" lon="101.035568">
<time>2016-10-07T04:17:47Z</time></trkpt>
<trkpt lat="25.310008" lon="101.035448">
<time>2016-10-07T04:17:48Z</time></trkpt>
<trkpt lat="25.310038" lon="101.035358">
<time>2016-10-07T04:17:49Z</time></trkpt>
<trkpt lat="25.310068" lon="101.035299">
<time>2016-10-07T04:17:50Z</time></trkpt>
<trkpt lat="25.310109" lon="101.035239">
<time>2016-10-07T04:17:51Z</time></trkpt>
<trkpt lat="25.310169" lon="101.035169">
<time>2016-10-07T04:17:52Z</time></trkpt>
<trkpt lat="25.310219" lon="101.035119">
<time>2016-10-07T04:17:53Z</time></trkpt>
<trkpt lat="25.310249" lon="101.035089">
<time>2016-10-07T04:17:54Z</time></trkpt>
<trkpt lat="25.310299" lon="101.035069">
<time>2016-10-07T04:17:55Z</time></trkpt>
<trkpt lat="25.310339" lon="101.035059">
<time>2016-10-07T04:17:56Z</time></trkpt>
<trkpt lat="25.310399" lon="101.035049">
<time>2016-10-07T04:17:57Z</time></trkpt>
<trkpt lat="25.310449" lon="101.035049">
<time>2016-10-07T04:17:58Z</time></trkpt>
<trkpt lat="25.310659" lon="101.035059">
<time>2016-10-07T04:17:59Z</time></trkpt>
<trkpt lat="25.310939" lon="101.035069">
<time>2016-10-07T04:18:00Z</time></trkpt>
<trkpt lat="25.311019" lon="101.035059">
<time>2016-10-07T04:18:01Z</time></trkpt>
<trkpt lat="25.311099" lon="101.035039">
<time>2016-10-07T04:18:02Z</time></trkpt>
<trkpt lat="25.311169" lon="101.035">
<time>2016-10-07T04:18:03Z</time></trkpt>
<trkpt lat="25.311219" lon="101.03496">
<time>2016-10-07T04:18:04Z</time></trkpt>
<trkpt lat="25.311259" lon="101.03492">
<time>2016-10-07T04:18:05Z</time></trkpt>
<trkpt lat="25.31133" lon="101.03483">
<time>2016-10-07T04:18:06Z</time></trkpt>
<trkpt lat="25.311852" lon="101.034113">
<time>2016-10-07T04:18:07Z</time></trkpt>
<trkpt lat="25.312103" lon="101.033734">
<time>2016-10-07T04:18:08Z</time></trkpt>
<trkpt lat="25.312203" lon="101.033534">
<time>2016-10-07T04:18:09Z</time></trkpt>
<trkpt lat="25.312253" lon="101.033425">
<time>2016-10-07T04:18:10Z</time></trkpt>
<trkpt lat="25.312294" lon="101.033305">
<time>2016-10-07T04:18:11Z</time></trkpt>
<trkpt lat="25.312324" lon="101.033186">
<time>2016-10-07T04:18:12Z</time></trkpt>
<trkpt lat="25.312365" lon="101.032966">
<time>2016-10-07T04:18:13Z</time></trkpt>
<trkpt lat="25.312436" lon="101.032558">
<time>2016-10-07T04:18:14Z</time></trkpt>
<trkpt lat="25.312456" lon="101.032448">
<time>2016-10-07T04:18:15Z</time></trkpt>
<trkpt lat="25.312496" lon="101.032339">
<time>2016-10-07T04:18:16Z</time></trkpt>
<trkpt lat="25.312536" lon="101.032249">
<time>2016-10-07T04:18:17Z</time></trkpt>
<trkpt lat="25.312587" lon="101.032159">
<time>2016-10-07T04:18:18Z</time></trkpt>
<trkpt lat="25.312797" lon="101.03184">
<time>2016-10-07T04:18:19Z</time></trkpt>
<trkpt lat="25.312868" lon="101.031711">
<time>2016-10-07T04:18:20Z</time></trkpt>
<trkpt lat="25.312948" lon="101.031561">
<time>2016-10-07T04:18:21Z</time></trkpt>
<trkpt lat="25.313019" lon="101.031382">
<time>2016-10-07T04:18:22Z</time></trkpt>
<trkpt lat="25.31317" lon="101.031003">
<time>2016-10-07T04:18:23Z</time></trkpt>
<trkpt lat="25.313412" lon="101.030296">
<time>2016-10-07T04:18:24Z</time></trkpt>
<trkpt lat="25.313633" lon="101.029688">
<time>2016-10-07T04:18:25Z</time></trkpt>
<trkpt lat="25.313724" lon="101.029498">
<time>2016-10-07T04:18:26Z</time></trkpt>
<trkpt lat="25.313804" lon="101.029349">
<time>2016-10-07T04:18:27Z</time></trkpt>
<trkpt lat="25.313884" lon="101.029219">
<time>2016-10-07T04:18:28Z</time></trkpt>
<trkpt lat="25.313935" lon="101.02913">
<time>2016-10-07T04:18:29Z</time></trkpt>
<trkpt lat="25.314075" lon="101.02896">
<time>2016-10-07T04:18:30Z</time></trkpt>
<trkpt lat="25.314938" lon="101.027944">
<time>2016-10-07T04:18:31Z</time></trkpt>
<trkpt lat="25.315219" lon="101.027615">
<time>2016-10-07T04:18:32Z</time></trkpt>
<trkpt lat="25.316092" lon="101.026638">
<time>2016-10-07T04:18:33Z</time></trkpt>
<trkpt lat="25.316192" lon="101.026509">
<time>2016-10-07T04:18:34Z</time></trkpt>
<trkpt lat="25.316252" lon="101.026409">
<time>2016-10-07T04:18:35Z</time></trkpt>
<trkpt lat="25.316282" lon="101.026359">
<time>2016-10-07T04:18:36Z</time></trkpt>
<trkpt lat="25.316303" lon="101.02631">
<time>2016-10-07T04:18:37Z</time></trkpt>
<trkpt lat="25.316313" lon="101.02626">
<time>2016-10-07T04:18:38Z</time></trkpt>
<trkpt lat="25.316323" lon="101.02622">
<time>2016-10-07T04:18:39Z</time></trkpt>
<trkpt lat="25.316343" lon="101.02615">
<time>2016-10-07T04:18:40Z</time></trkpt>
<trkpt lat="25.316343" lon="101.02605">
<time>2016-10-07T04:18:41Z</time></trkpt>
<trkpt lat="25.316333" lon="101.025961">
<time>2016-10-07T04:18:42Z</time></trkpt>
<trkpt lat="25.316314" lon="101.025861">
<time>2016-10-07T04:18:43Z</time></trkpt>
<trkpt lat="25.316284" lon="101.025791">
<time>2016-10-07T04:18:44Z</time></trkpt>
<trkpt lat="25.316274" lon="101.025761">
<time>2016-10-07T04:18:45Z</time></trkpt>
<trkpt lat="25.316155" lon="101.025473">
<time>2016-10-07T04:18:46Z</time></trkpt>
<trkpt lat="25.316085" lon="101.025273">
<time>2016-10-07T04:18:47Z</time></trkpt>
<trkpt lat="25.316026" lon="101.025114">
<time>2016-10-07T04:18:48Z</time></trkpt>
<trkpt lat="25.316016" lon="101.025064">
<time>2016-10-07T04:18:49Z</time></trkpt>
<trkpt lat="25.316006" lon="101.025014">
<time>2016-10-07T04:18:50Z</time></trkpt>
<trkpt lat="25.316006" lon="101.024954">
<time>2016-10-07T04:18:51Z</time></trkpt>
<trkpt lat="25.316016" lon="101.024895">
<time>2016-10-07T04:18:52Z</time></trkpt>
<trkpt lat="25.316027" lon="101.024845">
<time>2016-10-07T04:18:53Z</time></trkpt>
<trkpt lat="25.316047" lon="101.024765">
<time>2016-10-07T04:18:54Z</time></trkpt>
<trkpt lat="25.316097" lon="101.024626">
<time>2016-10-07T04:18:55Z</time></trkpt>
<trkpt lat="25.316127" lon="101.024546">
<time>2016-10-07T04:18:56Z</time></trkpt>
<trkpt lat="25.316138" lon="101.024476">
<time>2016-10-07T04:18:57Z</time></trkpt>
<trkpt lat="25.316138" lon="101.024436">
<time>2016-10-07T04:18:58Z</time></trkpt>
<trkpt lat="25.316138" lon="101.024376">
<time>2016-10-07T04:18:59Z</time></trkpt>
<trkpt lat="25.316118" lon="101.024317">
<time>2016-10-07T04:19:00Z</time></trkpt>
<trkpt lat="25.316019" lon="101.024028">
<time>2016-10-07T04:19:01Z</time></trkpt>
<trkpt lat="25.315999" lon="101.023958">
<time>2016-10-07T04:19:02Z</time></trkpt>
<trkpt lat="25.315989" lon="101.023888">
<time>2016-10-07T04:19:03Z</time></trkpt>
<trkpt lat="25.315979" lon="101.023819">
<time>2016-10-07T04:19:04Z</time></trkpt>
<trkpt lat="25.31599" lon="101.023749">
<time>2016-10-07T04:19:05Z</time></trkpt>
<trkpt lat="25.31604" lon="101.02349">
<time>2016-10-07T04:19:06Z</time></trkpt>
<trkpt lat="25.316051" lon="101.02331">
<time>2016-10-07T04:19:07Z</time></trkpt>
<trkpt lat="25.316061" lon="101.023171">
<time>2016-10-07T04:19:08Z</time></trkpt>
<trkpt lat="25.316052" lon="101.023041">
<time>2016-10-07T04:19:09Z</time></trkpt>
<trkpt lat="25.316032" lon="101.022802">
<time>2016-10-07T04:19:10Z</time></trkpt>
<trkpt lat="25.316022" lon="101.022693">
<time>2016-10-07T04:19:11Z</time></trkpt>
<trkpt lat="25.315993" lon="101.022573">
<time>2016-10-07T04:19:12Z</time></trkpt>
<trkpt lat="25.315973" lon="101.022493">
<time>2016-10-07T04:19:13Z</time></trkpt>
<trkpt lat="25.315943" lon="101.022424">
<time>2016-10-07T04:19:14Z</time></trkpt>
<trkpt lat="25.315913" lon="101.022364">
<time>2016-10-07T04:19:15Z</time></trkpt>
<trkpt lat="25.315854" lon="101.022304">
<time>2016-10-07T04:19:16Z</time></trkpt>
<trkpt lat="25.315794" lon="101.022244">
<time>2016-10-07T04:19:17Z</time></trkpt>
<trkpt lat="25.315584" lon="101.022065">
<time>2016-10-07T04:19:18Z</time></trkpt>
<trkpt lat="25.315175" lon="101.021736">
<time>2016-10-07T04:19:19Z</time></trkpt>
<trkpt lat="25.315095" lon="101.021666">
<time>2016-10-07T04:19:20Z</time></trkpt>
<trkpt lat="25.315016" lon="101.021587">
<time>2016-10-07T04:19:21Z</time></trkpt>
<trkpt lat="25.314986" lon="101.021547">
<time>2016-10-07T04:19:22Z</time></trkpt>
<trkpt lat="25.314956" lon="101.021497">
<time>2016-10-07T04:19:23Z</time></trkpt>
<trkpt lat="25.314896" lon="101.021387">
<time>2016-10-07T04:19:24Z</time></trkpt>
<trkpt lat="25.314737" lon="101.020969">
<time>2016-10-07T04:19:25Z</time></trkpt>
<trkpt lat="25.314578" lon="101.02061">
<time>2016-10-07T04:19:26Z</time></trkpt>
<trkpt lat="25.314459" lon="101.020381">
<time>2016-10-07T04:19:27Z</time></trkpt>
<trkpt lat="25.314429" lon="101.020321">
<time>2016-10-07T04:19:28Z</time></trkpt>
<trkpt lat="25.314399" lon="101.020262">
<time>2016-10-07T04:19:29Z</time></trkpt>
<trkpt lat="25.314389" lon="101.020232">
<time>2016-10-07T04:19:30Z</time></trkpt>
<trkpt lat="25.314369" lon="101.020192">
<time>2016-10-07T04:19:31Z</time></trkpt>
<trkpt lat="25.31437" lon="101.020162">
<time>2016-10-07T04:19:32Z</time></trkpt>
<trkpt lat="25.31436" lon="101.020132">
<time>2016-10-07T04:19:33Z</time></trkpt>
<trkpt lat="25.31435" lon="101.020072">
<time>2016-10-07T04:19:34Z</time></trkpt>
<trkpt lat="25.31435" lon="101.020032">
<time>2016-10-07T04:19:35Z</time></trkpt>
<trkpt lat="25.31435" lon="101.020003">
<time>2016-10-07T04:19:36Z</time></trkpt>
<trkpt lat="25.31436" lon="101.019983">
<time>2016-10-07T04:19:37Z</time></trkpt>
<trkpt lat="25.31436" lon="101.019963">
<time>2016-10-07T04:19:38Z</time></trkpt>
<trkpt lat="25.31437" lon="101.019943">
<time>2016-10-07T04:19:39Z</time></trkpt>
<trkpt lat="25.31438" lon="101.019923">
<time>2016-10-07T04:19:40Z</time></trkpt>
<trkpt lat="25.31439" lon="101.019903">
<time>2016-10-07T04:19:41Z</time></trkpt>
<trkpt lat="25.31441" lon="101.019873">
<time>2016-10-07T04:19:42Z</time></trkpt>
<trkpt lat="25.31444" lon="101.019833">
<time>2016-10-07T04:19:43Z</time></trkpt>
<trkpt lat="25.314471" lon="101.019813">
<time>2016-10-07T04:19:44Z</time></trkpt>
<trkpt lat="25.314501" lon="101.019783">
<time>2016-10-07T04:19:45Z</time></trkpt>
<trkpt lat="25.314541" lon="101.019763">
<time>2016-10-07T04:19:46Z</time></trkpt>
<trkpt lat="25.314601" lon="101.019734">
<time>2016-10-07T04:19:47Z</time></trkpt>
<trkpt lat="25.314641" lon="101.019714">
<time>2016-10-07T04:19:48Z</time></trkpt>
<trkpt lat="25.314691" lon="101.019704">
<time>2016-10-07T04:19:49Z</time></trkpt>
<trkpt lat="25.314741" lon="101.019694">
<time>2016-10-07T04:19:50Z</time></trkpt>
<trkpt lat="25.314791" lon="101.019684">
<time>2016-10-07T04:19:51Z</time></trkpt>
<trkpt lat="25.314841" lon="101.019684">
<time>2016-10-07T04:19:52Z</time></trkpt>
<trkpt lat="25.314891" lon="101.019684">
<time>2016-10-07T04:19:53Z</time></trkpt>
<trkpt lat="25.315021" lon="101.019684">
<time>2016-10-07T04:19:54Z</time></trkpt>
<trkpt lat="25.315131" lon="101.019684">
<time>2016-10-07T04:19:55Z</time></trkpt>
<trkpt lat="25.315221" lon="101.019674">
<time>2016-10-07T04:19:56Z</time></trkpt>
<trkpt lat="25.315331" lon="101.019654">
<time>2016-10-07T04:19:57Z</time></trkpt>
<trkpt lat="25.315461" lon="101.019624">
<time>2016-10-07T04:19:58Z</time></trkpt>
<trkpt lat="25.315631" lon="101.019574">
<time>2016-10-07T04:19:59Z</time></trkpt>
<trkpt lat="25.315831" lon="101.019544">
<time>2016-10-07T04:20:00Z</time></trkpt>
<trkpt lat="25.315971" lon="101.019514">
<time>2016-10-07T04:20:01Z</time></trkpt>
<trkpt lat="25.316082" lon="101.019484">
<time>2016-10-07T04:20:02Z</time></trkpt>
<trkpt lat="25.316202" lon="101.019445">
<time>2016-10-07T04:20:03Z</time></trkpt>
<trkpt lat="25.316302" lon="101.019405">
<time>2016-10-07T04:20:04Z</time></trkpt>
<trkpt lat="25.316422" lon="101.019345">
<time>2016-10-07T04:20:05Z</time></trkpt>
<trkpt lat="25.316823" lon="101.019136">
<time>2016-10-07T04:20:06Z</time></trkpt>
<trkpt lat="25.316913" lon="101.019086">
<time>2016-10-07T04:20:07Z</time></trkpt>
<trkpt lat="25.316983" lon="101.019036">
<time>2016-10-07T04:20:08Z</time></trkpt>
<trkpt lat="25.317033" lon="101.018996">
<time>2016-10-07T04:20:09Z</time></trkpt>
<trkpt lat="25.317103" lon="101.018927">
<time>2016-10-07T04:20:10Z</time></trkpt>
<trkpt lat="25.317163" lon="101.018867">
<time>2016-10-07T04:20:11Z</time></trkpt>
<trkpt lat="25.317204" lon="101.018817">
<time>2016-10-07T04:20:12Z</time></trkpt>
<trkpt lat="25.317244" lon="101.018757">
<time>2016-10-07T04:20:13Z</time></trkpt>
<trkpt lat="25.317274" lon="101.018697">
<time>2016-10-07T04:20:14Z</time></trkpt>
<trkpt lat="25.317294" lon="101.018658">
<time>2016-10-07T04:20:15Z</time></trkpt>
<trkpt lat="25.317314" lon="101.018618">
<time>2016-10-07T04:20:16Z</time></trkpt>
<trkpt lat="25.317324" lon="101.018568">
<time>2016-10-07T04:20:17Z</time></trkpt>
<trkpt lat="25.317345" lon="101.018498">
<time>2016-10-07T04:20:18Z</time></trkpt>
<trkpt lat="25.317355" lon="101.018448">
<time>2016-10-07T04:20:19Z</time></trkpt>
<trkpt lat="25.317365" lon="101.018369">
<time>2016-10-07T04:20:20Z</time></trkpt>
<trkpt lat="25.317365" lon="101.018299">
<time>2016-10-07T04:20:21Z</time></trkpt>
<trkpt lat="25.317355" lon="101.018229">
<time>2016-10-07T04:20:22Z</time></trkpt>
<trkpt lat="25.317346" lon="101.018159">
<time>2016-10-07T04:20:23Z</time></trkpt>
<trkpt lat="25.317306" lon="101.01788">
<time>2016-10-07T04:20:24Z</time></trkpt>
<trkpt lat="25.317267" lon="101.017671">
<time>2016-10-07T04:20:25Z</time></trkpt>
<trkpt lat="25.317247" lon="101.017582">
<time>2016-10-07T04:20:26Z</time></trkpt>
<trkpt lat="25.317227" lon="101.017512">
<time>2016-10-07T04:20:27Z</time></trkpt>
<trkpt lat="25.317208" lon="101.017452">
<time>2016-10-07T04:20:28Z</time></trkpt>
<trkpt lat="25.317188" lon="101.017412">
<time>2016-10-07T04:20:29Z</time></trkpt>
<trkpt lat="25.317168" lon="101.017382">
<time>2016-10-07T04:20:30Z</time></trkpt>
<trkpt lat="25.317138" lon="101.017342">
<time>2016-10-07T04:20:31Z</time></trkpt>
<trkpt lat="25.317108" lon="101.017303">
<time>2016-10-07T04:20:32Z</time></trkpt>
<trkpt lat="25.317078" lon="101.017273">
<time>2016-10-07T04:20:33Z</time></trkpt>
<trkpt lat="25.317018" lon="101.017213">
<time>2016-10-07T04:20:34Z</time></trkpt>
<trkpt lat="25.316869" lon="101.017073">
<time>2016-10-07T04:20:35Z</time></trkpt>
<trkpt lat="25.316829" lon="101.017034">
<time>2016-10-07T04:20:36Z</time></trkpt>
<trkpt lat="25.316799" lon="101.017004">
<time>2016-10-07T04:20:37Z</time></trkpt>
<trkpt lat="25.316769" lon="101.016974">
<time>2016-10-07T04:20:38Z</time></trkpt>
<trkpt lat="25.316759" lon="101.016944">
<time>2016-10-07T04:20:39Z</time></trkpt>
<trkpt lat="25.316739" lon="101.016924">
<time>2016-10-07T04:20:40Z</time></trkpt>
<trkpt lat="25.316729" lon="101.016904">
<time>2016-10-07T04:20:41Z</time></trkpt>
<trkpt lat="25.316729" lon="101.016874">
<time>2016-10-07T04:20:42Z</time></trkpt>
<trkpt lat="25.316729" lon="101.016864">
<time>2016-10-07T04:20:43Z</time></trkpt>
<trkpt lat="25.316719" lon="101.016844">
<time>2016-10-07T04:20:44Z</time></trkpt>
<trkpt lat="25.316719" lon="101.016824">
<time>2016-10-07T04:20:45Z</time></trkpt>
<trkpt lat="25.316719" lon="101.016795">
<time>2016-10-07T04:20:46Z</time></trkpt>
<trkpt lat="25.316719" lon="101.016775">
<time>2016-10-07T04:20:47Z</time></trkpt>
<trkpt lat="25.31672" lon="101.016745">
<time>2016-10-07T04:20:48Z</time></trkpt>
<trkpt lat="25.31673" lon="101.016725">
<time>2016-10-07T04:20:49Z</time></trkpt>
<trkpt lat="25.31674" lon="101.016695">
<time>2016-10-07T04:20:50Z</time></trkpt>
<trkpt lat="25.31675" lon="101.016675">
<time>2016-10-07T04:20:51Z</time></trkpt>
<trkpt lat="25.31677" lon="101.016645">
<time>2016-10-07T04:20:52Z</time></trkpt>
<trkpt lat="25.31679" lon="101.016615">
<time>2016-10-07T04:20:53Z</time></trkpt>
<trkpt lat="25.3168" lon="101.016605">
<time>2016-10-07T04:20:54Z</time></trkpt>
<trkpt lat="25.31695" lon="101.016516">
<time>2016-10-07T04:20:55Z</time></trkpt>
<trkpt lat="25.31709" lon="101.016436">
<time>2016-10-07T04:20:56Z</time></trkpt>
<trkpt lat="25.317171" lon="101.016386">
<time>2016-10-07T04:20:57Z</time></trkpt>
<trkpt lat="25.317251" lon="101.016316">
<time>2016-10-07T04:20:58Z</time></trkpt>
<trkpt lat="25.317321" lon="101.016247">
<time>2016-10-07T04:20:59Z</time></trkpt>
<trkpt lat="25.317381" lon="101.016167">
<time>2016-10-07T04:21:00Z</time></trkpt>
<trkpt lat="25.317442" lon="101.016067">
<time>2016-10-07T04:21:01Z</time></trkpt>
<trkpt lat="25.317502" lon="101.015978">
<time>2016-10-07T04:21:02Z</time></trkpt>
<trkpt lat="25.317542" lon="101.015908">
<time>2016-10-07T04:21:03Z</time></trkpt>
<trkpt lat="25.317582" lon="101.015828">
<time>2016-10-07T04:21:04Z</time></trkpt>
<trkpt lat="25.317613" lon="101.015739">
<time>2016-10-07T04:21:05Z</time></trkpt>
<trkpt lat="25.317643" lon="101.015669">
<time>2016-10-07T04:21:06Z</time></trkpt>
<trkpt lat="25.317693" lon="101.015499">
<time>2016-10-07T04:21:07Z</time></trkpt>
<trkpt lat="25.317724" lon="101.01535">
<time>2016-10-07T04:21:08Z</time></trkpt>
<trkpt lat="25.317764" lon="101.01522">
<time>2016-10-07T04:21:09Z</time></trkpt>
<trkpt lat="25.317815" lon="101.015061">
<time>2016-10-07T04:21:10Z</time></trkpt>
<trkpt lat="25.317915" lon="101.014762">
<time>2016-10-07T04:21:11Z</time></trkpt>
<trkpt lat="25.318077" lon="101.014304">
<time>2016-10-07T04:21:12Z</time></trkpt>
<trkpt lat="25.318147" lon="101.014135">
<time>2016-10-07T04:21:13Z</time></trkpt>
<trkpt lat="25.318208" lon="101.014025">
<time>2016-10-07T04:21:14Z</time></trkpt>
<trkpt lat="25.318248" lon="101.013935">
<time>2016-10-07T04:21:15Z</time></trkpt>
<trkpt lat="25.318308" lon="101.013866">
<time>2016-10-07T04:21:16Z</time></trkpt>
<trkpt lat="25.318368" lon="101.013796">
<time>2016-10-07T04:21:17Z</time></trkpt>
<trkpt lat="25.318529" lon="101.013637">
<time>2016-10-07T04:21:18Z</time></trkpt>
<trkpt lat="25.31883" lon="101.013328">
<time>2016-10-07T04:21:19Z</time></trkpt>
<trkpt lat="25.319141" lon="101.012969">
<time>2016-10-07T04:21:20Z</time></trkpt>
<trkpt lat="25.319573" lon="101.012391">
<time>2016-10-07T04:21:21Z</time></trkpt>
<trkpt lat="25.319774" lon="101.012043">
<time>2016-10-07T04:21:22Z</time></trkpt>
<trkpt lat="25.319945" lon="101.011714">
<time>2016-10-07T04:21:23Z</time></trkpt>
<trkpt lat="25.320257" lon="101.011066">
<time>2016-10-07T04:21:24Z</time></trkpt>
<trkpt lat="25.320367" lon="101.010837">
<time>2016-10-07T04:21:25Z</time></trkpt>
<trkpt lat="25.320398" lon="101.010767">
<time>2016-10-07T04:21:26Z</time></trkpt>
<trkpt lat="25.320428" lon="101.010688">
<time>2016-10-07T04:21:27Z</time></trkpt>
<trkpt lat="25.320458" lon="101.010598">
<time>2016-10-07T04:21:28Z</time></trkpt>
<trkpt lat="25.320468" lon="101.010578">
<time>2016-10-07T04:21:29Z</time></trkpt>
<trkpt lat="25.320488" lon="101.010499">
<time>2016-10-07T04:21:30Z</time></trkpt>
<trkpt lat="25.320509" lon="101.010439">
<time>2016-10-07T04:21:31Z</time></trkpt>
<trkpt lat="25.320519" lon="101.010359">
<time>2016-10-07T04:21:32Z</time></trkpt>
<trkpt lat="25.3206" lon="101.009861">
<time>2016-10-07T04:21:33Z</time></trkpt>
<trkpt lat="25.320763" lon="101.008825">
<time>2016-10-07T04:21:34Z</time></trkpt>
<trkpt lat="25.320875" lon="101.008138">
<time>2016-10-07T04:21:35Z</time></trkpt>
<trkpt lat="25.320906" lon="101.008018">
<time>2016-10-07T04:21:36Z</time></trkpt>
<trkpt lat="25.320946" lon="101.007889">
<time>2016-10-07T04:21:37Z</time></trkpt>
<trkpt lat="25.320987" lon="101.007749">
<time>2016-10-07T04:21:38Z</time></trkpt>
<trkpt lat="25.321027" lon="101.00765">
<time>2016-10-07T04:21:39Z</time></trkpt>
<trkpt lat="25.321097" lon="101.00747">
<time>2016-10-07T04:21:40Z</time></trkpt>
<trkpt lat="25.321289" lon="101.006962">
<time>2016-10-07T04:21:41Z</time></trkpt>
<trkpt lat="25.32145" lon="101.006504">
<time>2016-10-07T04:21:42Z</time></trkpt>
<trkpt lat="25.321551" lon="101.006255">
<time>2016-10-07T04:21:43Z</time></trkpt>
<trkpt lat="25.321642" lon="101.006006">
<time>2016-10-07T04:21:44Z</time></trkpt>
<trkpt lat="25.321944" lon="101.005448">
<time>2016-10-07T04:21:45Z</time></trkpt>
<trkpt lat="25.322336" lon="101.004761">
<time>2016-10-07T04:21:46Z</time></trkpt>
<trkpt lat="25.322376" lon="101.004681">
<time>2016-10-07T04:21:47Z</time></trkpt>
<trkpt lat="25.322416" lon="101.004591">
<time>2016-10-07T04:21:48Z</time></trkpt>
<trkpt lat="25.322447" lon="101.004502">
<time>2016-10-07T04:21:49Z</time></trkpt>
<trkpt lat="25.322467" lon="101.004432">
<time>2016-10-07T04:21:50Z</time></trkpt>
<trkpt lat="25.322477" lon="101.004362">
<time>2016-10-07T04:21:51Z</time></trkpt>
<trkpt lat="25.322477" lon="101.004313">
<time>2016-10-07T04:21:52Z</time></trkpt>
<trkpt lat="25.322477" lon="101.004213">
<time>2016-10-07T04:21:53Z</time></trkpt>
<trkpt lat="25.322458" lon="101.004024">
<time>2016-10-07T04:21:54Z</time></trkpt>
<trkpt lat="25.322429" lon="101.003755">
<time>2016-10-07T04:21:55Z</time></trkpt>
<trkpt lat="25.322331" lon="101.003028">
<time>2016-10-07T04:21:56Z</time></trkpt>
<trkpt lat="25.322234" lon="101.002141">
<time>2016-10-07T04:21:57Z</time></trkpt>
<trkpt lat="25.322205" lon="101.001773">
<time>2016-10-07T04:21:58Z</time></trkpt>
<trkpt lat="25.322195" lon="101.001663">
<time>2016-10-07T04:21:59Z</time></trkpt>
<trkpt lat="25.322196" lon="101.001543">
<time>2016-10-07T04:22:00Z</time></trkpt>
<trkpt lat="25.322206" lon="101.001444">
<time>2016-10-07T04:22:01Z</time></trkpt>
<trkpt lat="25.322216" lon="101.001334">
<time>2016-10-07T04:22:02Z</time></trkpt>
<trkpt lat="25.322247" lon="101.001165">
<time>2016-10-07T04:22:03Z</time></trkpt>
<trkpt lat="25.322287" lon="101.000966">
<time>2016-10-07T04:22:04Z</time></trkpt>
<trkpt lat="25.322308" lon="101.000846">
<time>2016-10-07T04:22:05Z</time></trkpt>
<trkpt lat="25.322318" lon="101.000727">
<time>2016-10-07T04:22:06Z</time></trkpt>
<trkpt lat="25.322318" lon="101.000637">
<time>2016-10-07T04:22:07Z</time></trkpt>
<trkpt lat="25.322299" lon="101.000557">
<time>2016-10-07T04:22:08Z</time></trkpt>
<trkpt lat="25.322289" lon="101.000507">
<time>2016-10-07T04:22:09Z</time></trkpt>
<trkpt lat="25.322269" lon="101.000458">
<time>2016-10-07T04:22:10Z</time></trkpt>
<trkpt lat="25.322229" lon="101.000398">
<time>2016-10-07T04:22:11Z</time></trkpt>
<trkpt lat="25.322189" lon="101.000338">
<time>2016-10-07T04:22:12Z</time></trkpt>
<trkpt lat="25.322149" lon="101.000298">
<time>2016-10-07T04:22:13Z</time></trkpt>
<trkpt lat="25.322099" lon="101.000258">
<time>2016-10-07T04:22:14Z</time></trkpt>
<trkpt lat="25.32205" lon="101.000219">
<time>2016-10-07T04:22:15Z</time></trkpt>
<trkpt lat="25.32195" lon="101.000159">
<time>2016-10-07T04:22:16Z</time></trkpt>
<trkpt lat="25.32172" lon="101.000009">
<time>2016-10-07T04:22:17Z</time></trkpt>
<trkpt lat="25.32158" lon="100.99992">
<time>2016-10-07T04:22:18Z</time></trkpt>
<trkpt lat="25.321491" lon="100.99986">
<time>2016-10-07T04:22:19Z</time></trkpt>
<trkpt lat="25.321411" lon="100.99979">
<time>2016-10-07T04:22:20Z</time></trkpt>
<trkpt lat="25.321331" lon="100.999711">
<time>2016-10-07T04:22:21Z</time></trkpt>
<trkpt lat="25.321271" lon="100.999651">
<time>2016-10-07T04:22:22Z</time></trkpt>
<trkpt lat="25.320743" lon="100.998993">
<time>2016-10-07T04:22:23Z</time></trkpt>
<trkpt lat="25.320484" lon="100.998665">
<time>2016-10-07T04:22:24Z</time></trkpt>
<trkpt lat="25.320355" lon="100.998515">
<time>2016-10-07T04:22:25Z</time></trkpt>
<trkpt lat="25.320275" lon="100.998436">
<time>2016-10-07T04:22:26Z</time></trkpt>
<trkpt lat="25.320195" lon="100.998376">
<time>2016-10-07T04:22:27Z</time></trkpt>
<trkpt lat="25.320135" lon="100.998326">
<time>2016-10-07T04:22:28Z</time></trkpt>
<trkpt lat="25.320085" lon="100.998286">
<time>2016-10-07T04:22:29Z</time></trkpt>
<trkpt lat="25.320045" lon="100.998266">
<time>2016-10-07T04:22:30Z</time></trkpt>
<trkpt lat="25.319995" lon="100.998246">
<time>2016-10-07T04:22:31Z</time></trkpt>
<trkpt lat="25.319925" lon="100.998217">
<time>2016-10-07T04:22:32Z</time></trkpt>
<trkpt lat="25.319856" lon="100.998197">
<time>2016-10-07T04:22:33Z</time></trkpt>
<trkpt lat="25.319496" lon="100.998097">
<time>2016-10-07T04:22:34Z</time></trkpt>
<trkpt lat="25.319376" lon="100.998057">
<time>2016-10-07T04:22:35Z</time></trkpt>
<trkpt lat="25.317787" lon="100.997619">
<time>2016-10-07T04:22:36Z</time></trkpt>
<trkpt lat="25.317667" lon="100.997599">
<time>2016-10-07T04:22:37Z</time></trkpt>
<trkpt lat="25.317527" lon="100.997579">
<time>2016-10-07T04:22:38Z</time></trkpt>
<trkpt lat="25.317417" lon="100.997569">
<time>2016-10-07T04:22:39Z</time></trkpt>
<trkpt lat="25.317287" lon="100.997559">
<time>2016-10-07T04:22:40Z</time></trkpt>
<trkpt lat="25.317167" lon="100.997559">
<time>2016-10-07T04:22:41Z</time></trkpt>
<trkpt lat="25.316997" lon="100.997569">
<time>2016-10-07T04:22:42Z</time></trkpt>
<trkpt lat="25.316577" lon="100.997619">
<time>2016-10-07T04:22:43Z</time></trkpt>
<trkpt lat="25.316377" lon="100.997649">
<time>2016-10-07T04:22:44Z</time></trkpt>
<trkpt lat="25.316197" lon="100.997689">
<time>2016-10-07T04:22:45Z</time></trkpt>
<trkpt lat="25.315756" lon="100.997798">
<time>2016-10-07T04:22:46Z</time></trkpt>
<trkpt lat="25.315626" lon="100.997818">
<time>2016-10-07T04:22:47Z</time></trkpt>
<trkpt lat="25.315486" lon="100.997838">
<time>2016-10-07T04:22:48Z</time></trkpt>
<trkpt lat="25.315336" lon="100.997838">
<time>2016-10-07T04:22:49Z</time></trkpt>
<trkpt lat="25.315086" lon="100.997838">
<time>2016-10-07T04:22:50Z</time></trkpt>
<trkpt lat="25.314906" lon="100.997838">
<time>2016-10-07T04:22:51Z</time></trkpt>
<trkpt lat="25.314766" lon="100.997838">
<time>2016-10-07T04:22:52Z</time></trkpt>
<trkpt lat="25.314626" lon="100.997868">
<time>2016-10-07T04:22:53Z</time></trkpt>
<trkpt lat="25.314416" lon="100.997918">
<time>2016-10-07T04:22:54Z</time></trkpt>
<trkpt lat="25.314035" lon="100.998047">
<time>2016-10-07T04:22:55Z</time></trkpt>
<trkpt lat="25.313725" lon="100.998137">
<time>2016-10-07T04:22:56Z</time></trkpt>
<trkpt lat="25.313655" lon="100.998147">
<time>2016-10-07T04:22:57Z</time></trkpt>
<trkpt lat="25.313575" lon="100.998147">
<time>2016-10-07T04:22:58Z</time></trkpt>
<trkpt lat="25.313495" lon="100.998137">
<time>2016-10-07T04:22:59Z</time></trkpt>
<trkpt lat="25.313425" lon="100.998127">
<time>2016-10-07T04:23:00Z</time></trkpt>
<trkpt lat="25.313365" lon="100.998107">
<time>2016-10-07T04:23:01Z</time></trkpt>
<trkpt lat="25.313295" lon="100.998077">
<time>2016-10-07T04:23:02Z</time></trkpt>
<trkpt lat="25.313285" lon="100.998077">
<time>2016-10-07T04:23:03Z</time></trkpt>
<trkpt lat="25.313215" lon="100.998037">
<time>2016-10-07T04:23:04Z</time></trkpt>
<trkpt lat="25.313106" lon="100.997988">
<time>2016-10-07T04:23:05Z</time></trkpt>
<trkpt lat="25.312926" lon="100.997898">
<time>2016-10-07T04:23:06Z</time></trkpt>
<trkpt lat="25.312676" lon="100.997769">
<time>2016-10-07T04:23:07Z</time></trkpt>
<trkpt lat="25.312327" lon="100.997589">
<time>2016-10-07T04:23:08Z</time></trkpt>
<trkpt lat="25.312147" lon="100.99748">
<time>2016-10-07T04:23:09Z</time></trkpt>
<trkpt lat="25.312107" lon="100.99745">
<time>2016-10-07T04:23:10Z</time></trkpt>
<trkpt lat="25.311987" lon="100.99735">
<time>2016-10-07T04:23:11Z</time></trkpt>
<trkpt lat="25.311838" lon="100.997221">
<time>2016-10-07T04:23:12Z</time></trkpt>
<trkpt lat="25.311678" lon="100.997061">
<time>2016-10-07T04:23:13Z</time></trkpt>
<trkpt lat="25.31101" lon="100.996334">
<time>2016-10-07T04:23:14Z</time></trkpt>
<trkpt lat="25.310901" lon="100.996215">
<time>2016-10-07T04:23:15Z</time></trkpt>
<trkpt lat="25.310861" lon="100.996175">
<time>2016-10-07T04:23:16Z</time></trkpt>
<trkpt lat="25.310821" lon="100.996145">
<time>2016-10-07T04:23:17Z</time></trkpt>
<trkpt lat="25.310781" lon="100.996115">
<time>2016-10-07T04:23:18Z</time></trkpt>
<trkpt lat="25.310731" lon="100.996085">
<time>2016-10-07T04:23:19Z</time></trkpt>
<trkpt lat="25.310691" lon="100.996065">
<time>2016-10-07T04:23:20Z</time></trkpt>
<trkpt lat="25.310651" lon="100.996055">
<time>2016-10-07T04:23:21Z</time></trkpt>
<trkpt lat="25.310601" lon="100.996035">
<time>2016-10-07T04:23:22Z</time></trkpt>
<trkpt lat="25.310551" lon="100.996025">
<time>2016-10-07T04:23:23Z</time></trkpt>
<trkpt lat="25.310501" lon="100.996025">
<time>2016-10-07T04:23:24Z</time></trkpt>
<trkpt lat="25.310441" lon="100.996025">
<time>2016-10-07T04:23:25Z</time></trkpt>
<trkpt lat="25.310381" lon="100.996025">
<time>2016-10-07T04:23:26Z</time></trkpt>
<trkpt lat="25.310331" lon="100.996035">
<time>2016-10-07T04:23:27Z</time></trkpt>
<trkpt lat="25.310271" lon="100.996045">
<time>2016-10-07T04:23:28Z</time></trkpt>
<trkpt lat="25.310171" lon="100.996065">
<time>2016-10-07T04:23:29Z</time></trkpt>
<trkpt lat="25.310041" lon="100.996105">
<time>2016-10-07T04:23:30Z</time></trkpt>
<trkpt lat="25.309881" lon="100.996165">
<time>2016-10-07T04:23:31Z</time></trkpt>
<trkpt lat="25.30951" lon="100.996294">
<time>2016-10-07T04:23:32Z</time></trkpt>
<trkpt lat="25.30919" lon="100.996404">
<time>2016-10-07T04:23:33Z</time></trkpt>
<trkpt lat="25.309" lon="100.996464">
<time>2016-10-07T04:23:34Z</time></trkpt>
<trkpt lat="25.30892" lon="100.996484">
<time>2016-10-07T04:23:35Z</time></trkpt>
<trkpt lat="25.30884" lon="100.996484">
<time>2016-10-07T04:23:36Z</time></trkpt>
<trkpt lat="25.30874" lon="100.996494">
<time>2016-10-07T04:23:37Z</time></trkpt>
<trkpt lat="25.30867" lon="100.996484">
<time>2016-10-07T04:23:38Z</time></trkpt>
<trkpt lat="25.30855" lon="100.996474">
<time>2016-10-07T04:23:39Z</time></trkpt>
<trkpt lat="25.30844" lon="100.996454">
<time>2016-10-07T04:23:40Z</time></trkpt>
<trkpt lat="25.30833" lon="100.996424">
<time>2016-10-07T04:23:41Z</time></trkpt>
<trkpt lat="25.30823" lon="100.996394">
<time>2016-10-07T04:23:42Z</time></trkpt>
<trkpt lat="25.30815" lon="100.996364">
<time>2016-10-07T04:23:43Z</time></trkpt>
<trkpt lat="25.30806" lon="100.996324">
<time>2016-10-07T04:23:44Z</time></trkpt>
<trkpt lat="25.30797" lon="100.996275">
<time>2016-10-07T04:23:45Z</time></trkpt>
<trkpt lat="25.30789" lon="100.996215">
<time>2016-10-07T04:23:46Z</time></trkpt>
<trkpt lat="25.307831" lon="100.996165">
<time>2016-10-07T04:23:47Z</time></trkpt>
<trkpt lat="25.307751" lon="100.996095">
<time>2016-10-07T04:23:48Z</time></trkpt>
<trkpt lat="25.307681" lon="100.996016">
<time>2016-10-07T04:23:49Z</time></trkpt>
<trkpt lat="25.307601" lon="100.995926">
<time>2016-10-07T04:23:50Z</time></trkpt>
<trkpt lat="25.307512" lon="100.995806">
<time>2016-10-07T04:23:51Z</time></trkpt>
<trkpt lat="25.307452" lon="100.995727">
<time>2016-10-07T04:23:52Z</time></trkpt>
<trkpt lat="25.307392" lon="100.995647">
<time>2016-10-07T04:23:53Z</time></trkpt>
<trkpt lat="25.307352" lon="100.995577">
<time>2016-10-07T04:23:54Z</time></trkpt>
<trkpt lat="25.307333" lon="100.995508">
<time>2016-10-07T04:23:55Z</time></trkpt>
<trkpt lat="25.307313" lon="100.995418">
<time>2016-10-07T04:23:56Z</time></trkpt>
<trkpt lat="25.307303" lon="100.995338">
<time>2016-10-07T04:23:57Z</time></trkpt>
<trkpt lat="25.307303" lon="100.995239">
<time>2016-10-07T04:23:58Z</time></trkpt>
<trkpt lat="25.307304" lon="100.995149">
<time>2016-10-07T04:23:59Z</time></trkpt>
<trkpt lat="25.307315" lon="100.99479">
<time>2016-10-07T04:24:00Z</time></trkpt>
<trkpt lat="25.307305" lon="100.994551">
<time>2016-10-07T04:24:01Z</time></trkpt>
<trkpt lat="25.307286" lon="100.994352">
<time>2016-10-07T04:24:02Z</time></trkpt>
<trkpt lat="25.307256" lon="100.994223">
<time>2016-10-07T04:24:03Z</time></trkpt>
<trkpt lat="25.307227" lon="100.994103">
<time>2016-10-07T04:24:04Z</time></trkpt>
<trkpt lat="25.307197" lon="100.994033">
<time>2016-10-07T04:24:05Z</time></trkpt>
<trkpt lat="25.307177" lon="100.993984">
<time>2016-10-07T04:24:06Z</time></trkpt>
<trkpt lat="25.307147" lon="100.993924">
<time>2016-10-07T04:24:07Z</time></trkpt>
<trkpt lat="25.307118" lon="100.993874">
<time>2016-10-07T04:24:08Z</time></trkpt>
<trkpt lat="25.307068" lon="100.993814">
<time>2016-10-07T04:24:09Z</time></trkpt>
<trkpt lat="25.307018" lon="100.993754">
<time>2016-10-07T04:24:10Z</time></trkpt>
<trkpt lat="25.306948" lon="100.993685">
<time>2016-10-07T04:24:11Z</time></trkpt>
<trkpt lat="25.306679" lon="100.993476">
<time>2016-10-07T04:24:12Z</time></trkpt>
<trkpt lat="25.306609" lon="100.993416">
<time>2016-10-07T04:24:13Z</time></trkpt>
<trkpt lat="25.306579" lon="100.993376">
<time>2016-10-07T04:24:14Z</time></trkpt>
<trkpt lat="25.306549" lon="100.993336">
<time>2016-10-07T04:24:15Z</time></trkpt>
<trkpt lat="25.306529" lon="100.993286">
<time>2016-10-07T04:24:16Z</time></trkpt>
<trkpt lat="25.306509" lon="100.993236">
<time>2016-10-07T04:24:17Z</time></trkpt>
<trkpt lat="25.3065" lon="100.993167">
<time>2016-10-07T04:24:18Z</time></trkpt>
<trkpt lat="25.30649" lon="100.993077">
<time>2016-10-07T04:24:19Z</time></trkpt>
<trkpt lat="25.30648" lon="100.992958">
<time>2016-10-07T04:24:20Z</time></trkpt>
<trkpt lat="25.306461" lon="100.992858">
<time>2016-10-07T04:24:21Z</time></trkpt>
<trkpt lat="25.306431" lon="100.992778">
<time>2016-10-07T04:24:22Z</time></trkpt>
<trkpt lat="25.306391" lon="100.992689">
<time>2016-10-07T04:24:23Z</time></trkpt>
<trkpt lat="25.306242" lon="100.99245">
<time>2016-10-07T04:24:24Z</time></trkpt>
<trkpt lat="25.306053" lon="100.992161">
<time>2016-10-07T04:24:25Z</time></trkpt>
<trkpt lat="25.305774" lon="100.991742">
<time>2016-10-07T04:24:26Z</time></trkpt>
<trkpt lat="25.305465" lon="100.991224">
<time>2016-10-07T04:24:27Z</time></trkpt>
<trkpt lat="25.305247" lon="100.990856">
<time>2016-10-07T04:24:28Z</time></trkpt>
<trkpt lat="25.305077" lon="100.990567">
<time>2016-10-07T04:24:29Z</time></trkpt>
<trkpt lat="25.304848" lon="100.990228">
<time>2016-10-07T04:24:30Z</time></trkpt>
<trkpt lat="25.304789" lon="100.990119">
<time>2016-10-07T04:24:31Z</time></trkpt>
<trkpt lat="25.304759" lon="100.990009">
<time>2016-10-07T04:24:32Z</time></trkpt>
<trkpt lat="25.304729" lon="100.9899">
<time>2016-10-07T04:24:33Z</time></trkpt>
<trkpt lat="25.30471" lon="100.98983">
<time>2016-10-07T04:24:34Z</time></trkpt>
<trkpt lat="25.30469" lon="100.98977">
<time>2016-10-07T04:24:35Z</time></trkpt>
<trkpt lat="25.30467" lon="100.98973">
<time>2016-10-07T04:24:36Z</time></trkpt>
<trkpt lat="25.30465" lon="100.98969">
<time>2016-10-07T04:24:37Z</time></trkpt>
<trkpt lat="25.30462" lon="100.989651">
<time>2016-10-07T04:24:38Z</time></trkpt>
<trkpt lat="25.30458" lon="100.989611">
<time>2016-10-07T04:24:39Z</time></trkpt>
<trkpt lat="25.3045" lon="100.989541">
<time>2016-10-07T04:24:40Z</time></trkpt>
<trkpt lat="25.304391" lon="100.989461">
<time>2016-10-07T04:24:41Z</time></trkpt>
<trkpt lat="25.304271" lon="100.989352">
<time>2016-10-07T04:24:42Z</time></trkpt>
<trkpt lat="25.304211" lon="100.989282">
<time>2016-10-07T04:24:43Z</time></trkpt>
<trkpt lat="25.304161" lon="100.989202">
<time>2016-10-07T04:24:44Z</time></trkpt>
<trkpt lat="25.304102" lon="100.989093">
<time>2016-10-07T04:24:45Z</time></trkpt>
<trkpt lat="25.304052" lon="100.988993">
<time>2016-10-07T04:24:46Z</time></trkpt>
<trkpt lat="25.303982" lon="100.988903">
<time>2016-10-07T04:24:47Z</time></trkpt>
<trkpt lat="25.303933" lon="100.988834">
<time>2016-10-07T04:24:48Z</time></trkpt>
<trkpt lat="25.303863" lon="100.988764">
<time>2016-10-07T04:24:49Z</time></trkpt>
<trkpt lat="25.303763" lon="100.988694">
<time>2016-10-07T04:24:50Z</time></trkpt>
<trkpt lat="25.303643" lon="100.988625">
<time>2016-10-07T04:24:51Z</time></trkpt>
<trkpt lat="25.303194" lon="100.988386">
<time>2016-10-07T04:24:52Z</time></trkpt>
<trkpt lat="25.303044" lon="100.988306">
<time>2016-10-07T04:24:53Z</time></trkpt>
<trkpt lat="25.302944" lon="100.988226">
<time>2016-10-07T04:24:54Z</time></trkpt>
<trkpt lat="25.302884" lon="100.988166">
<time>2016-10-07T04:24:55Z</time></trkpt>
<trkpt lat="25.302835" lon="100.988117">
<time>2016-10-07T04:24:56Z</time></trkpt>
<trkpt lat="25.302785" lon="100.988047">
<time>2016-10-07T04:24:57Z</time></trkpt>
<trkpt lat="25.302745" lon="100.987977">
<time>2016-10-07T04:24:58Z</time></trkpt>
<trkpt lat="25.302715" lon="100.987907">
<time>2016-10-07T04:24:59Z</time></trkpt>
<trkpt lat="25.302695" lon="100.987828">
<time>2016-10-07T04:25:00Z</time></trkpt>
<trkpt lat="25.302656" lon="100.987668">
<time>2016-10-07T04:25:01Z</time></trkpt>
<trkpt lat="25.302636" lon="100.987529">
<time>2016-10-07T04:25:02Z</time></trkpt>
<trkpt lat="25.302616" lon="100.987469">
<time>2016-10-07T04:25:03Z</time></trkpt>
<trkpt lat="25.302597" lon="100.987399">
<time>2016-10-07T04:25:04Z</time></trkpt>
<trkpt lat="25.302557" lon="100.98732">
<time>2016-10-07T04:25:05Z</time></trkpt>
<trkpt lat="25.302497" lon="100.98724">
<time>2016-10-07T04:25:06Z</time></trkpt>
<trkpt lat="25.302437" lon="100.98715">
<time>2016-10-07T04:25:07Z</time></trkpt>
<trkpt lat="25.302358" lon="100.987071">
<time>2016-10-07T04:25:08Z</time></trkpt>
<trkpt lat="25.302238" lon="100.986951">
<time>2016-10-07T04:25:09Z</time></trkpt>
<trkpt lat="25.301939" lon="100.986692">
<time>2016-10-07T04:25:10Z</time></trkpt>
<trkpt lat="25.301889" lon="100.986642">
<time>2016-10-07T04:25:11Z</time></trkpt>
<trkpt lat="25.301849" lon="100.986593">
<time>2016-10-07T04:25:12Z</time></trkpt>
<trkpt lat="25.301839" lon="100.986583">
<time>2016-10-07T04:25:13Z</time></trkpt>
<trkpt lat="25.301829" lon="100.986563">
<time>2016-10-07T04:25:14Z</time></trkpt>
<trkpt lat="25.301829" lon="100.986553">
<time>2016-10-07T04:25:15Z</time></trkpt>
<trkpt lat="25.301819" lon="100.986543">
<time>2016-10-07T04:25:16Z</time></trkpt>
<trkpt lat="25.301799" lon="100.986503">
<time>2016-10-07T04:25:17Z</time></trkpt>
<trkpt lat="25.301789" lon="100.986473">
<time>2016-10-07T04:25:18Z</time></trkpt>
<trkpt lat="25.301789" lon="100.986453">
<time>2016-10-07T04:25:19Z</time></trkpt>
<trkpt lat="25.30178" lon="100.986423">
<time>2016-10-07T04:25:20Z</time></trkpt>
<trkpt lat="25.30178" lon="100.986383">
<time>2016-10-07T04:25:21Z</time></trkpt>
<trkpt lat="25.30177" lon="100.986314">
<time>2016-10-07T04:25:22Z</time></trkpt>
<trkpt lat="25.30178" lon="100.986254">
<time>2016-10-07T04:25:23Z</time></trkpt>
<trkpt lat="25.30179" lon="100.986194">
<time>2016-10-07T04:25:24Z</time></trkpt>
<trkpt lat="25.301811" lon="100.986075">
<time>2016-10-07T04:25:25Z</time></trkpt>
<trkpt lat="25.301892" lon="100.985586">
<time>2016-10-07T04:25:26Z</time></trkpt>
<trkpt lat="25.301943" lon="100.985288">
<time>2016-10-07T04:25:27Z</time></trkpt>
<trkpt lat="25.301984" lon="100.985009">
<time>2016-10-07T04:25:28Z</time></trkpt>
<trkpt lat="25.302004" lon="100.984839">
<time>2016-10-07T04:25:29Z</time></trkpt>
<trkpt lat="25.302066" lon="100.984351">
<time>2016-10-07T04:25:30Z</time></trkpt>
<trkpt lat="25.302097" lon="100.984082">
<time>2016-10-07T04:25:31Z</time></trkpt>
<trkpt lat="25.302117" lon="100.984002">
<time>2016-10-07T04:25:32Z</time></trkpt>
<trkpt lat="25.302127" lon="100.983923">
<time>2016-10-07T04:25:33Z</time></trkpt>
<trkpt lat="25.302137" lon="100.983863">
<time>2016-10-07T04:25:34Z</time></trkpt>
<trkpt lat="25.302147" lon="100.983803">
<time>2016-10-07T04:25:35Z</time></trkpt>
<trkpt lat="25.302157" lon="100.983773">
<time>2016-10-07T04:25:36Z</time></trkpt>
<trkpt lat="25.302178" lon="100.983704">
<time>2016-10-07T04:25:37Z</time></trkpt>
<trkpt lat="25.302218" lon="100.983604">
<time>2016-10-07T04:25:38Z</time></trkpt>
<trkpt lat="25.302258" lon="100.983494">
<time>2016-10-07T04:25:39Z</time></trkpt>
<trkpt lat="25.302309" lon="100.983395">
<time>2016-10-07T04:25:40Z</time></trkpt>
<trkpt lat="25.302359" lon="100.983295">
<time>2016-10-07T04:25:41Z</time></trkpt>
<trkpt lat="25.302419" lon="100.983116">
<time>2016-10-07T04:25:42Z</time></trkpt>
<trkpt lat="25.30248" lon="100.982927">
<time>2016-10-07T04:25:43Z</time></trkpt>
<trkpt lat="25.302601" lon="100.982419">
<time>2016-10-07T04:25:44Z</time></trkpt>
<trkpt lat="25.302682" lon="100.98211">
<time>2016-10-07T04:25:45Z</time></trkpt>
<trkpt lat="25.302743" lon="100.98193">
<time>2016-10-07T04:25:46Z</time></trkpt>
<trkpt lat="25.302783" lon="100.981811">
<time>2016-10-07T04:25:47Z</time></trkpt>
<trkpt lat="25.302804" lon="100.981721">
<time>2016-10-07T04:25:48Z</time></trkpt>
<trkpt lat="25.302814" lon="100.981632">
<time>2016-10-07T04:25:49Z</time></trkpt>
<trkpt lat="25.302814" lon="100.981532">
<time>2016-10-07T04:25:50Z</time></trkpt>
<trkpt lat="25.302804" lon="100.981442">
<time>2016-10-07T04:25:51Z</time></trkpt>
<trkpt lat="25.302785" lon="100.981363">
<time>2016-10-07T04:25:52Z</time></trkpt>
<trkpt lat="25.302725" lon="100.981143">
<time>2016-10-07T04:25:53Z</time></trkpt>
<trkpt lat="25.302656" lon="100.980954">
<time>2016-10-07T04:25:54Z</time></trkpt>
<trkpt lat="25.302477" lon="100.980456">
<time>2016-10-07T04:25:55Z</time></trkpt>
<trkpt lat="25.302448" lon="100.980346">
<time>2016-10-07T04:25:56Z</time></trkpt>
<trkpt lat="25.302388" lon="100.980177">
<time>2016-10-07T04:25:57Z</time></trkpt>
<trkpt lat="25.302358" lon="100.980097">
<time>2016-10-07T04:25:58Z</time></trkpt>
<trkpt lat="25.302348" lon="100.980048">
<time>2016-10-07T04:25:59Z</time></trkpt>
<trkpt lat="25.302329" lon="100.979988">
<time>2016-10-07T04:26:00Z</time></trkpt>
<trkpt lat="25.302309" lon="100.979928">
<time>2016-10-07T04:26:01Z</time></trkpt>
<trkpt lat="25.302309" lon="100.979898">
<time>2016-10-07T04:26:02Z</time></trkpt>
<trkpt lat="25.302299" lon="100.979858">
<time>2016-10-07T04:26:03Z</time></trkpt>
<trkpt lat="25.302289" lon="100.979808">
<time>2016-10-07T04:26:04Z</time></trkpt>
<trkpt lat="25.302289" lon="100.979769">
<time>2016-10-07T04:26:05Z</time></trkpt>
<trkpt lat="25.302279" lon="100.979719">
<time>2016-10-07T04:26:06Z</time></trkpt>
<trkpt lat="25.302279" lon="100.979679">
<time>2016-10-07T04:26:07Z</time></trkpt>
<trkpt lat="25.30227" lon="100.979629">
<time>2016-10-07T04:26:08Z</time></trkpt>
<trkpt lat="25.30228" lon="100.979569">
<time>2016-10-07T04:26:09Z</time></trkpt>
<trkpt lat="25.302291" lon="100.97928">
<time>2016-10-07T04:26:10Z</time></trkpt>
<trkpt lat="25.302301" lon="100.979151">
<time>2016-10-07T04:26:11Z</time></trkpt>
<trkpt lat="25.302313" lon="100.978543">
<time>2016-10-07T04:26:12Z</time></trkpt>
<trkpt lat="25.302324" lon="100.978045">
<time>2016-10-07T04:26:13Z</time></trkpt>
<trkpt lat="25.302334" lon="100.977955">
<time>2016-10-07T04:26:14Z</time></trkpt>
<trkpt lat="25.302345" lon="100.977856">
<time>2016-10-07T04:26:15Z</time></trkpt>
<trkpt lat="25.302345" lon="100.977796">
<time>2016-10-07T04:26:16Z</time></trkpt>
<trkpt lat="25.302355" lon="100.977766">
<time>2016-10-07T04:26:17Z</time></trkpt>
<trkpt lat="25.302365" lon="100.977716">
<time>2016-10-07T04:26:18Z</time></trkpt>
<trkpt lat="25.302365" lon="100.977696">
<time>2016-10-07T04:26:19Z</time></trkpt>
<trkpt lat="25.302375" lon="100.977666">
<time>2016-10-07T04:26:20Z</time></trkpt>
<trkpt lat="25.302395" lon="100.977617">
<time>2016-10-07T04:26:21Z</time></trkpt>
<trkpt lat="25.302415" lon="100.977577">
<time>2016-10-07T04:26:22Z</time></trkpt>
<trkpt lat="25.302426" lon="100.977547">
<time>2016-10-07T04:26:23Z</time></trkpt>
<trkpt lat="25.302446" lon="100.977517">
<time>2016-10-07T04:26:24Z</time></trkpt>
<trkpt lat="25.302476" lon="100.977487">
<time>2016-10-07T04:26:25Z</time></trkpt>
<trkpt lat="25.302496" lon="100.977457">
<time>2016-10-07T04:26:26Z</time></trkpt>
<trkpt lat="25.302526" lon="100.977427">
<time>2016-10-07T04:26:27Z</time></trkpt>
<trkpt lat="25.302586" lon="100.977388">
<time>2016-10-07T04:26:28Z</time></trkpt>
<trkpt lat="25.302776" lon="100.977278">
<time>2016-10-07T04:26:29Z</time></trkpt>
<trkpt lat="25.302816" lon="100.977248">
<time>2016-10-07T04:26:30Z</time></trkpt>
<trkpt lat="25.302847" lon="100.977218">
<time>2016-10-07T04:26:31Z</time></trkpt>
<trkpt lat="25.302877" lon="100.977188">
<time>2016-10-07T04:26:32Z</time></trkpt>
<trkpt lat="25.302897" lon="100.977158">
<time>2016-10-07T04:26:33Z</time></trkpt>
<trkpt lat="25.302917" lon="100.977118">
<time>2016-10-07T04:26:34Z</time></trkpt>
<trkpt lat="25.302927" lon="100.977079">
<time>2016-10-07T04:26:35Z</time></trkpt>
<trkpt lat="25.302947" lon="100.977039">
<time>2016-10-07T04:26:36Z</time></trkpt>
<trkpt lat="25.302957" lon="100.976989">
<time>2016-10-07T04:26:37Z</time></trkpt>
<trkpt lat="25.302968" lon="100.976879">
<time>2016-10-07T04:26:38Z</time></trkpt>
<trkpt lat="25.302988" lon="100.97674">
<time>2016-10-07T04:26:39Z</time></trkpt>
<trkpt lat="25.303008" lon="100.97668">
<time>2016-10-07T04:26:40Z</time></trkpt>
<trkpt lat="25.303028" lon="100.97663">
<time>2016-10-07T04:26:41Z</time></trkpt>
<trkpt lat="25.303048" lon="100.9766">
<time>2016-10-07T04:26:42Z</time></trkpt>
<trkpt lat="25.303068" lon="100.976561">
<time>2016-10-07T04:26:43Z</time></trkpt>
<trkpt lat="25.303109" lon="100.976531">
<time>2016-10-07T04:26:44Z</time></trkpt>
<trkpt lat="25.303229" lon="100.976451">
<time>2016-10-07T04:26:45Z</time></trkpt>
<trkpt lat="25.303359" lon="100.976381">
<time>2016-10-07T04:26:46Z</time></trkpt>
<trkpt lat="25.30386" lon="100.976142">
<time>2016-10-07T04:26:47Z</time></trkpt>
<trkpt lat="25.30394" lon="100.976092">
<time>2016-10-07T04:26:48Z</time></trkpt>
<trkpt lat="25.304" lon="100.976042">
<time>2016-10-07T04:26:49Z</time></trkpt>
<trkpt lat="25.30405" lon="100.975993">
<time>2016-10-07T04:26:50Z</time></trkpt>
<trkpt lat="25.30408" lon="100.975943">
<time>2016-10-07T04:26:51Z</time></trkpt>
<trkpt lat="25.30411" lon="100.975893">
<time>2016-10-07T04:26:52Z</time></trkpt>
<trkpt lat="25.304121" lon="100.975833">
<time>2016-10-07T04:26:53Z</time></trkpt>
<trkpt lat="25.304131" lon="100.975773">
<time>2016-10-07T04:26:54Z</time></trkpt>
<trkpt lat="25.304131" lon="100.975724">
<time>2016-10-07T04:26:55Z</time></trkpt>
<trkpt lat="25.304121" lon="100.975664">
<time>2016-10-07T04:26:56Z</time></trkpt>
<trkpt lat="25.304091" lon="100.975584">
<time>2016-10-07T04:26:57Z</time></trkpt>
<trkpt lat="25.304042" lon="100.975435">
<time>2016-10-07T04:26:58Z</time></trkpt>
<trkpt lat="25.303913" lon="100.975056">
<time>2016-10-07T04:26:59Z</time></trkpt>
<trkpt lat="25.303883" lon="100.974966">
<time>2016-10-07T04:27:00Z</time></trkpt>
<trkpt lat="25.303873" lon="100.974887">
<time>2016-10-07T04:27:01Z</time></trkpt>
<trkpt lat="25.303826" lon="100.97389">
<time>2016-10-07T04:27:02Z</time></trkpt>
<trkpt lat="25.303836" lon="100.973781">
<time>2016-10-07T04:27:03Z</time></trkpt>
<trkpt lat="25.303847" lon="100.973691">
<time>2016-10-07T04:27:04Z</time></trkpt>
<trkpt lat="25.303857" lon="100.973621">
<time>2016-10-07T04:27:05Z</time></trkpt>
<trkpt lat="25.303887" lon="100.973532">
<time>2016-10-07T04:27:06Z</time></trkpt>
<trkpt lat="25.303927" lon="100.973462">
<time>2016-10-07T04:27:07Z</time></trkpt>
<trkpt lat="25.303997" lon="100.973372">
<time>2016-10-07T04:27:08Z</time></trkpt>
<trkpt lat="25.304058" lon="100.973312">
<time>2016-10-07T04:27:09Z</time></trkpt>
<trkpt lat="25.304118" lon="100.973273">
<time>2016-10-07T04:27:10Z</time></trkpt>
<trkpt lat="25.304218" lon="100.973223">
<time>2016-10-07T04:27:11Z</time></trkpt>
<trkpt lat="25.304298" lon="100.973183">
<time>2016-10-07T04:27:12Z</time></trkpt>
<trkpt lat="25.304348" lon="100.973143">
<time>2016-10-07T04:27:13Z</time></trkpt>
<trkpt lat="25.304388" lon="100.973103">
<time>2016-10-07T04:27:14Z</time></trkpt>
<trkpt lat="25.304438" lon="100.973053">
<time>2016-10-07T04:27:15Z</time></trkpt>
<trkpt lat="25.304479" lon="100.972984">
<time>2016-10-07T04:27:16Z</time></trkpt>
<trkpt lat="25.304519" lon="100.972914">
<time>2016-10-07T04:27:17Z</time></trkpt>
<trkpt lat="25.304569" lon="100.972754">
<time>2016-10-07T04:27:18Z</time></trkpt>
<trkpt lat="25.304599" lon="100.972685">
<time>2016-10-07T04:27:19Z</time></trkpt>
<trkpt lat="25.30464" lon="100.972605">
<time>2016-10-07T04:27:20Z</time></trkpt>
<trkpt lat="25.30468" lon="100.972545">
<time>2016-10-07T04:27:21Z</time></trkpt>
<trkpt lat="25.30472" lon="100.972495">
<time>2016-10-07T04:27:22Z</time></trkpt>
<trkpt lat="25.30478" lon="100.972426">
<time>2016-10-07T04:27:23Z</time></trkpt>
<trkpt lat="25.30485" lon="100.972356">
<time>2016-10-07T04:27:24Z</time></trkpt>
<trkpt lat="25.304901" lon="100.972296">
<time>2016-10-07T04:27:25Z</time></trkpt>
<trkpt lat="25.304951" lon="100.972226">
<time>2016-10-07T04:27:26Z</time></trkpt>
<trkpt lat="25.304991" lon="100.972157">
<time>2016-10-07T04:27:27Z</time></trkpt>
<trkpt lat="25.305031" lon="100.972067">
<time>2016-10-07T04:27:28Z</time></trkpt>
<trkpt lat="25.305051" lon="100.971967">
<time>2016-10-07T04:27:29Z</time></trkpt>
<trkpt lat="25.305092" lon="100.971768">
<time>2016-10-07T04:27:30Z</time></trkpt>
<trkpt lat="25.305143" lon="100.971479">
<time>2016-10-07T04:27:31Z</time></trkpt>
<trkpt lat="25.305163" lon="100.971409">
<time>2016-10-07T04:27:32Z</time></trkpt>
<trkpt lat="25.305183" lon="100.97133">
<time>2016-10-07T04:27:33Z</time></trkpt>
<trkpt lat="25.305203" lon="100.97128">
<time>2016-10-07T04:27:34Z</time></trkpt>
<trkpt lat="25.305233" lon="100.97124">
<time>2016-10-07T04:27:35Z</time></trkpt>
<trkpt lat="25.305254" lon="100.97121">
<time>2016-10-07T04:27:36Z</time></trkpt>
<trkpt lat="25.305284" lon="100.97118">
<time>2016-10-07T04:27:37Z</time></trkpt>
<trkpt lat="25.305314" lon="100.97116">
<time>2016-10-07T04:27:38Z</time></trkpt>
<trkpt lat="25.305344" lon="100.97114">
<time>2016-10-07T04:27:39Z</time></trkpt>
<trkpt lat="25.305384" lon="100.97112">
<time>2016-10-07T04:27:40Z</time></trkpt>
<trkpt lat="25.305404" lon="100.97111">
<time>2016-10-07T04:27:41Z</time></trkpt>
<trkpt lat="25.305444" lon="100.97109">
<time>2016-10-07T04:27:42Z</time></trkpt>
<trkpt lat="25.305474" lon="100.97109">
<time>2016-10-07T04:27:43Z</time></trkpt>
<trkpt lat="25.305504" lon="100.97109">
<time>2016-10-07T04:27:44Z</time></trkpt>
<trkpt lat="25.305534" lon="100.97109">
<time>2016-10-07T04:27:45Z</time></trkpt>
<trkpt lat="25.305564" lon="100.97109">
<time>2016-10-07T04:27:46Z</time></trkpt>
<trkpt lat="25.305584" lon="100.9711">
<time>2016-10-07T04:27:47Z</time></trkpt>
<trkpt lat="25.305624" lon="100.97112">
<time>2016-10-07T04:27:48Z</time></trkpt>
<trkpt lat="25.305664" lon="100.97114">
<time>2016-10-07T04:27:49Z</time></trkpt>
<trkpt lat="25.305684" lon="100.97116">
<time>2016-10-07T04:27:50Z</time></trkpt>
<trkpt lat="25.305714" lon="100.97118">
<time>2016-10-07T04:27:51Z</time></trkpt>
<trkpt lat="25.305734" lon="100.97121">
<time>2016-10-07T04:27:52Z</time></trkpt>
<trkpt lat="25.305803" lon="100.9713">
<time>2016-10-07T04:27:53Z</time></trkpt>
<trkpt lat="25.305883" lon="100.971409">
<time>2016-10-07T04:27:54Z</time></trkpt>
<trkpt lat="25.305953" lon="100.971519">
<time>2016-10-07T04:27:55Z</time></trkpt>
<trkpt lat="25.306032" lon="100.971668">
<time>2016-10-07T04:27:56Z</time></trkpt>
<trkpt lat="25.306072" lon="100.971778">
<time>2016-10-07T04:27:57Z</time></trkpt>
<trkpt lat="25.306092" lon="100.971868">
<time>2016-10-07T04:27:58Z</time></trkpt>
<trkpt lat="25.306102" lon="100.971967">
<time>2016-10-07T04:27:59Z</time></trkpt>
<trkpt lat="25.306091" lon="100.972077">
<time>2016-10-07T04:28:00Z</time></trkpt>
<trkpt lat="25.306081" lon="100.972196">
<time>2016-10-07T04:28:01Z</time></trkpt>
<trkpt lat="25.306081" lon="100.972276">
<time>2016-10-07T04:28:02Z</time></trkpt>
<trkpt lat="25.306091" lon="100.972306">
<time>2016-10-07T04:28:03Z</time></trkpt>
<trkpt lat="25.306091" lon="100.972336">
<time>2016-10-07T04:28:04Z</time></trkpt>
<trkpt lat="25.3061" lon="100.972356">
<time>2016-10-07T04:28:05Z</time></trkpt>
<trkpt lat="25.3061" lon="100.972386">
<time>2016-10-07T04:28:06Z</time></trkpt>
<trkpt lat="25.30611" lon="100.972416">
<time>2016-10-07T04:28:07Z</time></trkpt>
<trkpt lat="25.30613" lon="100.972436">
<time>2016-10-07T04:28:08Z</time></trkpt>
<trkpt lat="25.30614" lon="100.972456">
<time>2016-10-07T04:28:09Z</time></trkpt>
<trkpt lat="25.30616" lon="100.972475">
<time>2016-10-07T04:28:10Z</time></trkpt>
<trkpt lat="25.30618" lon="100.972485">
<time>2016-10-07T04:28:11Z</time></trkpt>
<trkpt lat="25.3062" lon="100.972505">
<time>2016-10-07T04:28:12Z</time></trkpt>
<trkpt lat="25.30623" lon="100.972515">
<time>2016-10-07T04:28:13Z</time></trkpt>
<trkpt lat="25.30626" lon="100.972525">
<time>2016-10-07T04:28:14Z</time></trkpt>
<trkpt lat="25.30629" lon="100.972525">
<time>2016-10-07T04:28:15Z</time></trkpt>
<trkpt lat="25.30632" lon="100.972525">
<time>2016-10-07T04:28:16Z</time></trkpt>
<trkpt lat="25.30635" lon="100.972525">
<time>2016-10-07T04:28:17Z</time></trkpt>
<trkpt lat="25.30638" lon="100.972515">
<time>2016-10-07T04:28:18Z</time></trkpt>
<trkpt lat="25.3064" lon="100.972515">
<time>2016-10-07T04:28:19Z</time></trkpt>
<trkpt lat="25.30643" lon="100.972505">
<time>2016-10-07T04:28:20Z</time></trkpt>
<trkpt lat="25.30646" lon="100.972485">
<time>2016-10-07T04:28:21Z</time></trkpt>
<trkpt lat="25.30653" lon="100.972456">
<time>2016-10-07T04:28:22Z</time></trkpt>
<trkpt lat="25.30657" lon="100.972436">
<time>2016-10-07T04:28:23Z</time></trkpt>
<trkpt lat="25.30665" lon="100.972396">
<time>2016-10-07T04:28:24Z</time></trkpt>
<trkpt lat="25.306771" lon="100.972346">
<time>2016-10-07T04:28:25Z</time></trkpt>
<trkpt lat="25.306881" lon="100.972316">
<time>2016-10-07T04:28:26Z</time></trkpt>
<trkpt lat="25.307011" lon="100.972286">
<time>2016-10-07T04:28:27Z</time></trkpt>
<trkpt lat="25.307151" lon="100.972266">
<time>2016-10-07T04:28:28Z</time></trkpt>
<trkpt lat="25.307291" lon="100.972246">
<time>2016-10-07T04:28:29Z</time></trkpt>
<trkpt lat="25.307431" lon="100.972236">
<time>2016-10-07T04:28:30Z</time></trkpt>
<trkpt lat="25.307551" lon="100.972246">
<time>2016-10-07T04:28:31Z</time></trkpt>
<trkpt lat="25.307611" lon="100.972246">
<time>2016-10-07T04:28:32Z</time></trkpt>
<trkpt lat="25.307651" lon="100.972256">
<time>2016-10-07T04:28:33Z</time></trkpt>
<trkpt lat="25.307691" lon="100.972266">
<time>2016-10-07T04:28:34Z</time></trkpt>
<trkpt lat="25.307721" lon="100.972266">
<time>2016-10-07T04:28:35Z</time></trkpt>
<trkpt lat="25.307761" lon="100.972286">
<time>2016-10-07T04:28:36Z</time></trkpt>
<trkpt lat="25.307791" lon="100.972306">
<time>2016-10-07T04:28:37Z</time></trkpt>
<trkpt lat="25.307821" lon="100.972316">
<time>2016-10-07T04:28:38Z</time></trkpt>
<trkpt lat="25.307841" lon="100.972336">
<time>2016-10-07T04:28:39Z</time></trkpt>
<trkpt lat="25.307881" lon="100.972366">
<time>2016-10-07T04:28:40Z</time></trkpt>
<trkpt lat="25.30799" lon="100.972455">
<time>2016-10-07T04:28:41Z</time></trkpt>
<trkpt lat="25.30804" lon="100.972505">
<time>2016-10-07T04:28:42Z</time></trkpt>
<trkpt lat="25.30808" lon="100.972535">
<time>2016-10-07T04:28:43Z</time></trkpt>
<trkpt lat="25.30812" lon="100.972555">
<time>2016-10-07T04:28:44Z</time></trkpt>
<trkpt lat="25.30814" lon="100.972565">
<time>2016-10-07T04:28:45Z</time></trkpt>
<trkpt lat="25.30816" lon="100.972575">
<time>2016-10-07T04:28:46Z</time></trkpt>
<trkpt lat="25.30819" lon="100.972575">
<time>2016-10-07T04:28:47Z</time></trkpt>
<trkpt lat="25.30822" lon="100.972575">
<time>2016-10-07T04:28:48Z</time></trkpt>
<trkpt lat="25.30825" lon="100.972575">
<time>2016-10-07T04:28:49Z</time></trkpt>
<trkpt lat="25.30828" lon="100.972565">
<time>2016-10-07T04:28:50Z</time></trkpt>
<trkpt lat="25.30831" lon="100.972555">
<time>2016-10-07T04:28:51Z</time></trkpt>
<trkpt lat="25.30834" lon="100.972535">
<time>2016-10-07T04:28:52Z</time></trkpt>
<trkpt lat="25.30836" lon="100.972515">
<time>2016-10-07T04:28:53Z</time></trkpt>
<trkpt lat="25.30839" lon="100.972495">
<time>2016-10-07T04:28:54Z</time></trkpt>
<trkpt lat="25.30841" lon="100.972465">
<time>2016-10-07T04:28:55Z</time></trkpt>
<trkpt lat="25.30843" lon="100.972416">
<time>2016-10-07T04:28:56Z</time></trkpt>
<trkpt lat="25.308451" lon="100.972376">
<time>2016-10-07T04:28:57Z</time></trkpt>
<trkpt lat="25.308471" lon="100.972326">
<time>2016-10-07T04:28:58Z</time></trkpt>
<trkpt lat="25.308491" lon="100.972236">
<time>2016-10-07T04:28:59Z</time></trkpt>
<trkpt lat="25.308491" lon="100.972147">
<time>2016-10-07T04:29:00Z</time></trkpt>
<trkpt lat="25.308491" lon="100.972057">
<time>2016-10-07T04:29:01Z</time></trkpt>
<trkpt lat="25.308482" lon="100.971947">
<time>2016-10-07T04:29:02Z</time></trkpt>
<trkpt lat="25.308462" lon="100.971808">
<time>2016-10-07T04:29:03Z</time></trkpt>
<trkpt lat="25.308452" lon="100.971688">
<time>2016-10-07T04:29:04Z</time></trkpt>
<trkpt lat="25.308443" lon="100.971539">
<time>2016-10-07T04:29:05Z</time></trkpt>
<trkpt lat="25.308463" lon="100.971349">
<time>2016-10-07T04:29:06Z</time></trkpt>
<trkpt lat="25.308474" lon="100.97125">
<time>2016-10-07T04:29:07Z</time></trkpt>
<trkpt lat="25.308494" lon="100.97113">
<time>2016-10-07T04:29:08Z</time></trkpt>
<trkpt lat="25.308514" lon="100.971031">
<time>2016-10-07T04:29:09Z</time></trkpt>
<trkpt lat="25.308525" lon="100.970931">
<time>2016-10-07T04:29:10Z</time></trkpt>
<trkpt lat="25.308525" lon="100.970841">
<time>2016-10-07T04:29:11Z</time></trkpt>
<trkpt lat="25.308515" lon="100.970762">
<time>2016-10-07T04:29:12Z</time></trkpt>
<trkpt lat="25.308505" lon="100.970692">
<time>2016-10-07T04:29:13Z</time></trkpt>
<trkpt lat="25.308485" lon="100.970622">
<time>2016-10-07T04:29:14Z</time></trkpt>
<trkpt lat="25.308456" lon="100.970552">
<time>2016-10-07T04:29:15Z</time></trkpt>
<trkpt lat="25.308416" lon="100.970463">
<time>2016-10-07T04:29:16Z</time></trkpt>
<trkpt lat="25.308306" lon="100.970243">
<time>2016-10-07T04:29:17Z</time></trkpt>
<trkpt lat="25.308247" lon="100.970084">
<time>2016-10-07T04:29:18Z</time></trkpt>
<trkpt lat="25.308227" lon="100.970014">
<time>2016-10-07T04:29:19Z</time></trkpt>
<trkpt lat="25.308217" lon="100.969964">
<time>2016-10-07T04:29:20Z</time></trkpt>
<trkpt lat="25.308217" lon="100.969925">
<time>2016-10-07T04:29:21Z</time></trkpt>
<trkpt lat="25.308217" lon="100.969885">
<time>2016-10-07T04:29:22Z</time></trkpt>
<trkpt lat="25.308217" lon="100.969845">
<time>2016-10-07T04:29:23Z</time></trkpt>
<trkpt lat="25.308228" lon="100.969795">
<time>2016-10-07T04:29:24Z</time></trkpt>
<trkpt lat="25.308248" lon="100.969735">
<time>2016-10-07T04:29:25Z</time></trkpt>
<trkpt lat="25.308288" lon="100.969606">
<time>2016-10-07T04:29:26Z</time></trkpt>
<trkpt lat="25.308319" lon="100.969466">
<time>2016-10-07T04:29:27Z</time></trkpt>
<trkpt lat="25.308349" lon="100.969347">
<time>2016-10-07T04:29:28Z</time></trkpt>
<trkpt lat="25.308359" lon="100.969267">
<time>2016-10-07T04:29:29Z</time></trkpt>
<trkpt lat="25.308359" lon="100.969187">
<time>2016-10-07T04:29:30Z</time></trkpt>
<trkpt lat="25.30835" lon="100.969088">
<time>2016-10-07T04:29:31Z</time></trkpt>
<trkpt lat="25.30832" lon="100.968958">
<time>2016-10-07T04:29:32Z</time></trkpt>
<trkpt lat="25.30826" lon="100.968789">
<time>2016-10-07T04:29:33Z</time></trkpt>
<trkpt lat="25.308211" lon="100.968599">
<time>2016-10-07T04:29:34Z</time></trkpt>
<trkpt lat="25.308191" lon="100.9685">
<time>2016-10-07T04:29:35Z</time></trkpt>
<trkpt lat="25.308181" lon="100.96844">
<time>2016-10-07T04:29:36Z</time></trkpt>
<trkpt lat="25.308191" lon="100.96836">
<time>2016-10-07T04:29:37Z</time></trkpt>
<trkpt lat="25.308232" lon="100.96827">
<time>2016-10-07T04:29:38Z</time></trkpt>
<trkpt lat="25.308262" lon="100.968231">
<time>2016-10-07T04:29:39Z</time></trkpt>
<trkpt lat="25.308302" lon="100.968181">
<time>2016-10-07T04:29:40Z</time></trkpt>
<trkpt lat="25.308362" lon="100.968141">
<time>2016-10-07T04:29:41Z</time></trkpt>
<trkpt lat="25.308422" lon="100.968121">
<time>2016-10-07T04:29:42Z</time></trkpt>
<trkpt lat="25.308472" lon="100.968121">
<time>2016-10-07T04:29:43Z</time></trkpt>
<trkpt lat="25.308522" lon="100.968131">
<time>2016-10-07T04:29:44Z</time></trkpt>
<trkpt lat="25.308592" lon="100.968141">
<time>2016-10-07T04:29:45Z</time></trkpt>
<trkpt lat="25.308662" lon="100.968171">
<time>2016-10-07T04:29:46Z</time></trkpt>
<trkpt lat="25.308752" lon="100.968231">
<time>2016-10-07T04:29:47Z</time></trkpt>
<trkpt lat="25.308912" lon="100.96836">
<time>2016-10-07T04:29:48Z</time></trkpt>
<trkpt lat="25.309291" lon="100.968659">
<time>2016-10-07T04:29:49Z</time></trkpt>
<trkpt lat="25.309401" lon="100.968749">
<time>2016-10-07T04:29:50Z</time></trkpt>
<trkpt lat="25.30946" lon="100.968779">
<time>2016-10-07T04:29:51Z</time></trkpt>
<trkpt lat="25.30953" lon="100.968789">
<time>2016-10-07T04:29:52Z</time></trkpt>
<trkpt lat="25.30958" lon="100.968779">
<time>2016-10-07T04:29:53Z</time></trkpt>
<trkpt lat="25.30962" lon="100.968769">
<time>2016-10-07T04:29:54Z</time></trkpt>
<trkpt lat="25.309651" lon="100.968749">
<time>2016-10-07T04:29:55Z</time></trkpt>
<trkpt lat="25.309681" lon="100.968719">
<time>2016-10-07T04:29:56Z</time></trkpt>
<trkpt lat="25.309711" lon="100.968679">
<time>2016-10-07T04:29:57Z</time></trkpt>
<trkpt lat="25.309731" lon="100.968619">
<time>2016-10-07T04:29:58Z</time></trkpt>
<trkpt lat="25.309751" lon="100.968569">
<time>2016-10-07T04:29:59Z</time></trkpt>
<trkpt lat="25.309771" lon="100.96845">
<time>2016-10-07T04:30:00Z</time></trkpt>
<trkpt lat="25.309812" lon="100.96836">
<time>2016-10-07T04:30:01Z</time></trkpt>
<trkpt lat="25.309872" lon="100.968221">
<time>2016-10-07T04:30:02Z</time></trkpt>
<trkpt lat="25.309912" lon="100.968151">
<time>2016-10-07T04:30:03Z</time></trkpt>
<trkpt lat="25.309972" lon="100.968061">
<time>2016-10-07T04:30:04Z</time></trkpt>
<trkpt lat="25.310083" lon="100.967952">
<time>2016-10-07T04:30:05Z</time></trkpt>
<trkpt lat="25.310203" lon="100.967842">
<time>2016-10-07T04:30:06Z</time></trkpt>
<trkpt lat="25.310283" lon="100.967762">
<time>2016-10-07T04:30:07Z</time></trkpt>
<trkpt lat="25.310383" lon="100.967702">
<time>2016-10-07T04:30:08Z</time></trkpt>
<trkpt lat="25.310454" lon="100.967663">
<time>2016-10-07T04:30:09Z</time></trkpt>
<trkpt lat="25.310554" lon="100.967623">
<time>2016-10-07T04:30:10Z</time></trkpt>
<trkpt lat="25.310664" lon="100.967593">
<time>2016-10-07T04:30:11Z</time></trkpt>
<trkpt lat="25.310764" lon="100.967573">
<time>2016-10-07T04:30:12Z</time></trkpt>
<trkpt lat="25.310834" lon="100.967563">
<time>2016-10-07T04:30:13Z</time></trkpt>
<trkpt lat="25.310914" lon="100.967533">
<time>2016-10-07T04:30:14Z</time></trkpt>
<trkpt lat="25.310974" lon="100.967503">
<time>2016-10-07T04:30:15Z</time></trkpt>
<trkpt lat="25.311004" lon="100.967483">
<time>2016-10-07T04:30:16Z</time></trkpt>
<trkpt lat="25.311034" lon="100.967453">
<time>2016-10-07T04:30:17Z</time></trkpt>
<trkpt lat="25.311064" lon="100.967413">
<time>2016-10-07T04:30:18Z</time></trkpt>
<trkpt lat="25.311114" lon="100.967324">
<time>2016-10-07T04:30:19Z</time></trkpt>
<trkpt lat="25.311175" lon="100.967184">
<time>2016-10-07T04:30:20Z</time></trkpt>
<trkpt lat="25.311245" lon="100.967045">
<time>2016-10-07T04:30:21Z</time></trkpt>
<trkpt lat="25.311376" lon="100.966905">
<time>2016-10-07T04:30:22Z</time></trkpt>
<trkpt lat="25.311466" lon="100.966825">
<time>2016-10-07T04:30:23Z</time></trkpt>
<trkpt lat="25.311516" lon="100.966766">
<time>2016-10-07T04:30:24Z</time></trkpt>
<trkpt lat="25.311546" lon="100.966716">
<time>2016-10-07T04:30:25Z</time></trkpt>
<trkpt lat="25.311566" lon="100.966646">
<time>2016-10-07T04:30:26Z</time></trkpt>
<trkpt lat="25.311576" lon="100.966576">
<time>2016-10-07T04:30:27Z</time></trkpt>
<trkpt lat="25.311597" lon="100.966467">
<time>2016-10-07T04:30:28Z</time></trkpt>
<trkpt lat="25.311597" lon="100.966337">
<time>2016-10-07T04:30:29Z</time></trkpt>
<trkpt lat="25.311607" lon="100.966218">
<time>2016-10-07T04:30:30Z</time></trkpt>
<trkpt lat="25.311638" lon="100.966148">
<time>2016-10-07T04:30:31Z</time></trkpt>
<trkpt lat="25.311668" lon="100.966078">
<time>2016-10-07T04:30:32Z</time></trkpt>
<trkpt lat="25.311708" lon="100.966038">
<time>2016-10-07T04:30:33Z</time></trkpt>
<trkpt lat="25.311738" lon="100.966018">
<time>2016-10-07T04:30:34Z</time></trkpt>
<trkpt lat="25.311788" lon="100.965998">
<time>2016-10-07T04:30:35Z</time></trkpt>
<trkpt lat="25.311818" lon="100.965998">
<time>2016-10-07T04:30:36Z</time></trkpt>
<trkpt lat="25.311848" lon="100.965998">
<time>2016-10-07T04:30:37Z</time></trkpt>
<trkpt lat="25.311878" lon="100.965998">
<time>2016-10-07T04:30:38Z</time></trkpt>
<trkpt lat="25.311908" lon="100.966008">
<time>2016-10-07T04:30:39Z</time></trkpt>
<trkpt lat="25.311948" lon="100.966018">
<time>2016-10-07T04:30:40Z</time></trkpt>
<trkpt lat="25.311998" lon="100.966058">
<time>2016-10-07T04:30:41Z</time></trkpt>
<trkpt lat="25.312078" lon="100.966118">
<time>2016-10-07T04:30:42Z</time></trkpt>
<trkpt lat="25.312177" lon="100.966217">
<time>2016-10-07T04:30:43Z</time></trkpt>
<trkpt lat="25.312237" lon="100.966267">
<time>2016-10-07T04:30:44Z</time></trkpt>
<trkpt lat="25.312287" lon="100.966287">
<time>2016-10-07T04:30:45Z</time></trkpt>
<trkpt lat="25.312337" lon="100.966307">
<time>2016-10-07T04:30:46Z</time></trkpt>
<trkpt lat="25.312387" lon="100.966307">
<time>2016-10-07T04:30:47Z</time></trkpt>
<trkpt lat="25.312457" lon="100.966297">
<time>2016-10-07T04:30:48Z</time></trkpt>
<trkpt lat="25.312517" lon="100.966267">
<time>2016-10-07T04:30:49Z</time></trkpt>
<trkpt lat="25.312558" lon="100.966188">
<time>2016-10-07T04:30:50Z</time></trkpt>
<trkpt lat="25.312578" lon="100.966128">
<time>2016-10-07T04:30:51Z</time></trkpt>
<trkpt lat="25.312588" lon="100.966078">
<time>2016-10-07T04:30:52Z</time></trkpt>
<trkpt lat="25.312598" lon="100.965978">
<time>2016-10-07T04:30:53Z</time></trkpt>
<trkpt lat="25.312559" lon="100.965779">
<time>2016-10-07T04:30:54Z</time></trkpt>
<trkpt lat="25.312441" lon="100.965012">
<time>2016-10-07T04:30:55Z</time></trkpt>
<trkpt lat="25.312432" lon="100.964324">
<time>2016-10-07T04:30:56Z</time></trkpt>
<trkpt lat="25.312463" lon="100.964155">
<time>2016-10-07T04:30:57Z</time></trkpt>
<trkpt lat="25.312483" lon="100.964105">
<time>2016-10-07T04:30:58Z</time></trkpt>
<trkpt lat="25.312533" lon="100.964045">
<time>2016-10-07T04:30:59Z</time></trkpt>
<trkpt lat="25.312563" lon="100.964025">
<time>2016-10-07T04:31:00Z</time></trkpt>
<trkpt lat="25.312603" lon="100.963995">
<time>2016-10-07T04:31:01Z</time></trkpt>
<trkpt lat="25.312643" lon="100.963975">
<time>2016-10-07T04:31:02Z</time></trkpt>
<trkpt lat="25.312673" lon="100.963975">
<time>2016-10-07T04:31:03Z</time></trkpt>
<trkpt lat="25.312703" lon="100.963975">
<time>2016-10-07T04:31:04Z</time></trkpt>
<trkpt lat="25.312743" lon="100.963985">
<time>2016-10-07T04:31:05Z</time></trkpt>
<trkpt lat="25.312783" lon="100.964005">
<time>2016-10-07T04:31:06Z</time></trkpt>
<trkpt lat="25.312873" lon="100.964055">
<time>2016-10-07T04:31:07Z</time></trkpt>
<trkpt lat="25.312983" lon="100.964135">
<time>2016-10-07T04:31:08Z</time></trkpt>
<trkpt lat="25.313043" lon="100.964184">
<time>2016-10-07T04:31:09Z</time></trkpt>
<trkpt lat="25.313103" lon="100.964224">
<time>2016-10-07T04:31:10Z</time></trkpt>
<trkpt lat="25.313153" lon="100.964254">
<time>2016-10-07T04:31:11Z</time></trkpt>
<trkpt lat="25.313213" lon="100.964264">
<time>2016-10-07T04:31:12Z</time></trkpt>
<trkpt lat="25.313253" lon="100.964254">
<time>2016-10-07T04:31:13Z</time></trkpt>
<trkpt lat="25.313293" lon="100.964244">
<time>2016-10-07T04:31:14Z</time></trkpt>
<trkpt lat="25.313323" lon="100.964234">
<time>2016-10-07T04:31:15Z</time></trkpt>
<trkpt lat="25.313363" lon="100.964204">
<time>2016-10-07T04:31:16Z</time></trkpt>
<trkpt lat="25.313403" lon="100.964145">
<time>2016-10-07T04:31:17Z</time></trkpt>
<trkpt lat="25.313433" lon="100.964065">
<time>2016-10-07T04:31:18Z</time></trkpt>
<trkpt lat="25.313453" lon="100.964005">
<time>2016-10-07T04:31:19Z</time></trkpt>
<trkpt lat="25.313504" lon="100.963706">
<time>2016-10-07T04:31:20Z</time></trkpt>
<trkpt lat="25.313514" lon="100.963567">
<time>2016-10-07T04:31:21Z</time></trkpt>
<trkpt lat="25.313535" lon="100.963407">
<time>2016-10-07T04:31:22Z</time></trkpt>
<trkpt lat="25.313555" lon="100.963317">
<time>2016-10-07T04:31:23Z</time></trkpt>
<trkpt lat="25.313575" lon="100.963228">
<time>2016-10-07T04:31:24Z</time></trkpt>
<trkpt lat="25.313616" lon="100.963128">
<time>2016-10-07T04:31:25Z</time></trkpt>
<trkpt lat="25.313656" lon="100.963048">
<time>2016-10-07T04:31:26Z</time></trkpt>
<trkpt lat="25.313676" lon="100.963018">
<time>2016-10-07T04:31:27Z</time></trkpt>
<trkpt lat="25.313706" lon="100.962988">
<time>2016-10-07T04:31:28Z</time></trkpt>
<trkpt lat="25.313766" lon="100.962969">
<time>2016-10-07T04:31:29Z</time></trkpt>
<trkpt lat="25.313806" lon="100.962949">
<time>2016-10-07T04:31:30Z</time></trkpt>
<trkpt lat="25.313906" lon="100.962939">
<time>2016-10-07T04:31:31Z</time></trkpt>
<trkpt lat="25.314026" lon="100.962939">
<time>2016-10-07T04:31:32Z</time></trkpt>
<trkpt lat="25.314126" lon="100.962909">
<time>2016-10-07T04:31:33Z</time></trkpt>
<trkpt lat="25.314176" lon="100.962879">
<time>2016-10-07T04:31:34Z</time></trkpt>
<trkpt lat="25.314206" lon="100.962849">
<time>2016-10-07T04:31:35Z</time></trkpt>
<trkpt lat="25.314256" lon="100.962789">
<time>2016-10-07T04:31:36Z</time></trkpt>
<trkpt lat="25.314277" lon="100.962729">
<time>2016-10-07T04:31:37Z</time></trkpt>
<trkpt lat="25.314287" lon="100.96264">
<time>2016-10-07T04:31:38Z</time></trkpt>
<trkpt lat="25.314297" lon="100.96253">
<time>2016-10-07T04:31:39Z</time></trkpt>
<trkpt lat="25.314297" lon="100.96248">
<time>2016-10-07T04:31:40Z</time></trkpt>
<trkpt lat="25.314317" lon="100.96239">
<time>2016-10-07T04:31:41Z</time></trkpt>
<trkpt lat="25.314338" lon="100.962351">
<time>2016-10-07T04:31:42Z</time></trkpt>
<trkpt lat="25.314388" lon="100.962301">
<time>2016-10-07T04:31:43Z</time></trkpt>
<trkpt lat="25.314458" lon="100.962261">
<time>2016-10-07T04:31:44Z</time></trkpt>
<trkpt lat="25.314518" lon="100.962241">
<time>2016-10-07T04:31:45Z</time></trkpt>
<trkpt lat="25.314588" lon="100.962241">
<time>2016-10-07T04:31:46Z</time></trkpt>
<trkpt lat="25.314638" lon="100.962251">
<time>2016-10-07T04:31:47Z</time></trkpt>
<trkpt lat="25.314738" lon="100.962291">
<time>2016-10-07T04:31:48Z</time></trkpt>
<trkpt lat="25.314878" lon="100.962361">
<time>2016-10-07T04:31:49Z</time></trkpt>
<trkpt lat="25.315097" lon="100.96247">
<time>2016-10-07T04:31:50Z</time></trkpt>
<trkpt lat="25.315197" lon="100.96249">
<time>2016-10-07T04:31:51Z</time></trkpt>
<trkpt lat="25.315237" lon="100.96249">
<time>2016-10-07T04:31:52Z</time></trkpt>
<trkpt lat="25.315267" lon="100.96249">
<time>2016-10-07T04:31:53Z</time></trkpt>
<trkpt lat="25.315317" lon="100.96247">
<time>2016-10-07T04:31:54Z</time></trkpt>
<trkpt lat="25.315367" lon="100.96245">
<time>2016-10-07T04:31:55Z</time></trkpt>
<trkpt lat="25.315418" lon="100.962371">
<time>2016-10-07T04:31:56Z</time></trkpt>
<trkpt lat="25.315438" lon="100.962301">
<time>2016-10-07T04:31:57Z</time></trkpt>
<trkpt lat="25.315458" lon="100.962241">
<time>2016-10-07T04:31:58Z</time></trkpt>
<trkpt lat="25.315458" lon="100.962151">
<time>2016-10-07T04:31:59Z</time></trkpt>
<trkpt lat="25.315439" lon="100.962012">
<time>2016-10-07T04:32:00Z</time></trkpt>
<trkpt lat="25.315409" lon="100.961802">
<time>2016-10-07T04:32:01Z</time></trkpt>
<trkpt lat="25.315399" lon="100.961743">
<time>2016-10-07T04:32:02Z</time></trkpt>
<trkpt lat="25.315399" lon="100.961653">
<time>2016-10-07T04:32:03Z</time></trkpt>
<trkpt lat="25.3154" lon="100.961563">
<time>2016-10-07T04:32:04Z</time></trkpt>
<trkpt lat="25.31541" lon="100.961493">
<time>2016-10-07T04:32:05Z</time></trkpt>
<trkpt lat="25.31543" lon="100.961444">
<time>2016-10-07T04:32:06Z</time></trkpt>
<trkpt lat="25.31546" lon="100.961414">
<time>2016-10-07T04:32:07Z</time></trkpt>
<trkpt lat="25.3155" lon="100.961374">
<time>2016-10-07T04:32:08Z</time></trkpt>
<trkpt lat="25.31554" lon="100.961344">
<time>2016-10-07T04:32:09Z</time></trkpt>
<trkpt lat="25.31558" lon="100.961324">
<time>2016-10-07T04:32:10Z</time></trkpt>
<trkpt lat="25.31564" lon="100.961314">
<time>2016-10-07T04:32:11Z</time></trkpt>
<trkpt lat="25.3157" lon="100.961304">
<time>2016-10-07T04:32:12Z</time></trkpt>
<trkpt lat="25.31577" lon="100.961304">
<time>2016-10-07T04:32:13Z</time></trkpt>
<trkpt lat="25.31587" lon="100.961294">
<time>2016-10-07T04:32:14Z</time></trkpt>
<trkpt lat="25.31595" lon="100.961254">
<time>2016-10-07T04:32:15Z</time></trkpt>
<trkpt lat="25.316011" lon="100.961184">
<time>2016-10-07T04:32:16Z</time></trkpt>
<trkpt lat="25.316051" lon="100.961135">
<time>2016-10-07T04:32:17Z</time></trkpt>
<trkpt lat="25.316061" lon="100.961055">
<time>2016-10-07T04:32:18Z</time></trkpt>
<trkpt lat="25.316051" lon="100.960975">
<time>2016-10-07T04:32:19Z</time></trkpt>
<trkpt lat="25.316031" lon="100.960895">
<time>2016-10-07T04:32:20Z</time></trkpt>
<trkpt lat="25.315982" lon="100.960796">
<time>2016-10-07T04:32:21Z</time></trkpt>
<trkpt lat="25.315902" lon="100.960656">
<time>2016-10-07T04:32:22Z</time></trkpt>
<trkpt lat="25.315792" lon="100.960457">
<time>2016-10-07T04:32:23Z</time></trkpt>
<trkpt lat="25.315743" lon="100.960327">
<time>2016-10-07T04:32:24Z</time></trkpt>
<trkpt lat="25.315723" lon="100.960218">
<time>2016-10-07T04:32:25Z</time></trkpt>
<trkpt lat="25.315734" lon="100.959998">
<time>2016-10-07T04:32:26Z</time></trkpt>
<trkpt lat="25.315714" lon="100.959779">
<time>2016-10-07T04:32:27Z</time></trkpt>
<trkpt lat="25.315675" lon="100.95956">
<time>2016-10-07T04:32:28Z</time></trkpt>
<trkpt lat="25.315615" lon="100.959251">
<time>2016-10-07T04:32:29Z</time></trkpt>
<trkpt lat="25.315616" lon="100.959051">
<time>2016-10-07T04:32:30Z</time></trkpt>
<trkpt lat="25.315646" lon="100.958922">
<time>2016-10-07T04:32:31Z</time></trkpt>
<trkpt lat="25.315706" lon="100.958782">
<time>2016-10-07T04:32:32Z</time></trkpt>
<trkpt lat="25.315827" lon="100.958593">
<time>2016-10-07T04:32:33Z</time></trkpt>
<trkpt lat="25.316028" lon="100.958164">
<time>2016-10-07T04:32:34Z</time></trkpt>
<trkpt lat="25.316168" lon="100.957945">
<time>2016-10-07T04:32:35Z</time></trkpt>
<trkpt lat="25.316249" lon="100.957835">
<time>2016-10-07T04:32:36Z</time></trkpt>
<trkpt lat="25.316339" lon="100.957766">
<time>2016-10-07T04:32:37Z</time></trkpt>
<trkpt lat="25.316449" lon="100.957686">
<time>2016-10-07T04:32:38Z</time></trkpt>
<trkpt lat="25.316739" lon="100.957556">
<time>2016-10-07T04:32:39Z</time></trkpt>
<trkpt lat="25.31679" lon="100.957536">
<time>2016-10-07T04:32:40Z</time></trkpt>
<trkpt lat="25.31686" lon="100.957526">
<time>2016-10-07T04:32:41Z</time></trkpt>
<trkpt lat="25.31692" lon="100.957526">
<time>2016-10-07T04:32:42Z</time></trkpt>
<trkpt lat="25.31699" lon="100.957536">
<time>2016-10-07T04:32:43Z</time></trkpt>
<trkpt lat="25.31706" lon="100.957556">
<time>2016-10-07T04:32:44Z</time></trkpt>
<trkpt lat="25.317129" lon="100.957586">
<time>2016-10-07T04:32:45Z</time></trkpt>
<trkpt lat="25.317259" lon="100.957666">
<time>2016-10-07T04:32:46Z</time></trkpt>
<trkpt lat="25.317349" lon="100.957716">
<time>2016-10-07T04:32:47Z</time></trkpt>
<trkpt lat="25.317429" lon="100.957746">
<time>2016-10-07T04:32:48Z</time></trkpt>
<trkpt lat="25.317499" lon="100.957746">
<time>2016-10-07T04:32:49Z</time></trkpt>
<trkpt lat="25.317569" lon="100.957736">
<time>2016-10-07T04:32:50Z</time></trkpt>
<trkpt lat="25.317709" lon="100.957656">
<time>2016-10-07T04:32:51Z</time></trkpt>
<trkpt lat="25.317779" lon="100.957586">
<time>2016-10-07T04:32:52Z</time></trkpt>
<trkpt lat="25.31782" lon="100.957466">
<time>2016-10-07T04:32:53Z</time></trkpt>
<trkpt lat="25.31783" lon="100.957307">
<time>2016-10-07T04:32:54Z</time></trkpt>
<trkpt lat="25.317821" lon="100.957118">
<time>2016-10-07T04:32:55Z</time></trkpt>
<trkpt lat="25.317801" lon="100.956988">
<time>2016-10-07T04:32:56Z</time></trkpt>
<trkpt lat="25.317751" lon="100.956749">
<time>2016-10-07T04:32:57Z</time></trkpt>
<trkpt lat="25.317642" lon="100.95638">
<time>2016-10-07T04:32:58Z</time></trkpt>
<trkpt lat="25.317513" lon="100.955991">
<time>2016-10-07T04:32:59Z</time></trkpt>
<trkpt lat="25.317434" lon="100.955792">
<time>2016-10-07T04:33:00Z</time></trkpt>
<trkpt lat="25.317394" lon="100.955582">
<time>2016-10-07T04:33:01Z</time></trkpt>
<trkpt lat="25.317395" lon="100.955363">
<time>2016-10-07T04:33:02Z</time></trkpt>
<trkpt lat="25.317415" lon="100.955154">
<time>2016-10-07T04:33:03Z</time></trkpt>
<trkpt lat="25.317436" lon="100.954944">
<time>2016-10-07T04:33:04Z</time></trkpt>
<trkpt lat="25.317436" lon="100.954855">
<time>2016-10-07T04:33:05Z</time></trkpt>
<trkpt lat="25.317436" lon="100.954755">
<time>2016-10-07T04:33:06Z</time></trkpt>
<trkpt lat="25.317376" lon="100.954605">
<time>2016-10-07T04:33:07Z</time></trkpt>
<trkpt lat="25.317257" lon="100.954496">
<time>2016-10-07T04:33:08Z</time></trkpt>
<trkpt lat="25.317137" lon="100.954466">
<time>2016-10-07T04:33:09Z</time></trkpt>
<trkpt lat="25.316987" lon="100.954506">
<time>2016-10-07T04:33:10Z</time></trkpt>
<trkpt lat="25.316916" lon="100.954645">
<time>2016-10-07T04:33:11Z</time></trkpt>
<trkpt lat="25.316906" lon="100.954855">
<time>2016-10-07T04:33:12Z</time></trkpt>
<trkpt lat="25.316885" lon="100.955044">
<time>2016-10-07T04:33:13Z</time></trkpt>
<trkpt lat="25.316845" lon="100.955273">
<time>2016-10-07T04:33:14Z</time></trkpt>
<trkpt lat="25.316814" lon="100.955493">
<time>2016-10-07T04:33:15Z</time></trkpt>
<trkpt lat="25.316774" lon="100.955712">
<time>2016-10-07T04:33:16Z</time></trkpt>
<trkpt lat="25.316693" lon="100.955901">
<time>2016-10-07T04:33:17Z</time></trkpt>
<trkpt lat="25.316563" lon="100.956071">
<time>2016-10-07T04:33:18Z</time></trkpt>
<trkpt lat="25.316443" lon="100.956191">
<time>2016-10-07T04:33:19Z</time></trkpt>
<trkpt lat="25.316312" lon="100.95627">
<time>2016-10-07T04:33:20Z</time></trkpt>
<trkpt lat="25.316212" lon="100.95628">
<time>2016-10-07T04:33:21Z</time></trkpt>
<trkpt lat="25.316132" lon="100.95626">
<time>2016-10-07T04:33:22Z</time></trkpt>
<trkpt lat="25.315973" lon="100.956181">
<time>2016-10-07T04:33:23Z</time></trkpt>
<trkpt lat="25.315813" lon="100.956091">
<time>2016-10-07T04:33:24Z</time></trkpt>
<trkpt lat="25.315653" lon="100.956051">
<time>2016-10-07T04:33:25Z</time></trkpt>
<trkpt lat="25.315473" lon="100.956091">
<time>2016-10-07T04:33:26Z</time></trkpt>
<trkpt lat="25.315303" lon="100.956201">
<time>2016-10-07T04:33:27Z</time></trkpt>
<trkpt lat="25.315122" lon="100.95634">
<time>2016-10-07T04:33:28Z</time></trkpt>
<trkpt lat="25.314942" lon="100.95649">
<time>2016-10-07T04:33:29Z</time></trkpt>
<trkpt lat="25.314771" lon="100.956659">
<time>2016-10-07T04:33:30Z</time></trkpt>
<trkpt lat="25.314591" lon="100.956829">
<time>2016-10-07T04:33:31Z</time></trkpt>
<trkpt lat="25.314411" lon="100.957008">
<time>2016-10-07T04:33:32Z</time></trkpt>
<trkpt lat="25.31424" lon="100.957187">
<time>2016-10-07T04:33:33Z</time></trkpt>
<trkpt lat="25.31408" lon="100.957347">
<time>2016-10-07T04:33:34Z</time></trkpt>
<trkpt lat="25.313959" lon="100.957447">
<time>2016-10-07T04:33:35Z</time></trkpt>
<trkpt lat="25.313829" lon="100.957546">
<time>2016-10-07T04:33:36Z</time></trkpt>
<trkpt lat="25.313679" lon="100.957546">
<time>2016-10-07T04:33:37Z</time></trkpt>
<trkpt lat="25.313539" lon="100.957487">
<time>2016-10-07T04:33:38Z</time></trkpt>
<trkpt lat="25.31341" lon="100.957377">
<time>2016-10-07T04:33:39Z</time></trkpt>
<trkpt lat="25.3133" lon="100.957257">
<time>2016-10-07T04:33:40Z</time></trkpt>
<trkpt lat="25.31323" lon="100.957088">
<time>2016-10-07T04:33:41Z</time></trkpt>
<trkpt lat="25.313181" lon="100.956898">
<time>2016-10-07T04:33:42Z</time></trkpt>
<trkpt lat="25.313151" lon="100.956689">
<time>2016-10-07T04:33:43Z</time></trkpt>
<trkpt lat="25.313102" lon="100.95647">
<time>2016-10-07T04:33:44Z</time></trkpt>
<trkpt lat="25.313062" lon="100.95624">
<time>2016-10-07T04:33:45Z</time></trkpt>
<trkpt lat="25.313033" lon="100.956001">
<time>2016-10-07T04:33:46Z</time></trkpt>
<trkpt lat="25.313033" lon="100.955752">
<time>2016-10-07T04:33:47Z</time></trkpt>
<trkpt lat="25.313024" lon="100.955523">
<time>2016-10-07T04:33:48Z</time></trkpt>
<trkpt lat="25.312984" lon="100.955323">
<time>2016-10-07T04:33:49Z</time></trkpt>
<trkpt lat="25.312885" lon="100.955174">
<time>2016-10-07T04:33:50Z</time></trkpt>
<trkpt lat="25.312745" lon="100.955034">
<time>2016-10-07T04:33:51Z</time></trkpt>
<trkpt lat="25.312615" lon="100.954875">
<time>2016-10-07T04:33:52Z</time></trkpt>
<trkpt lat="25.312486" lon="100.954685">
<time>2016-10-07T04:33:53Z</time></trkpt>
<trkpt lat="25.312396" lon="100.954486">
<time>2016-10-07T04:33:54Z</time></trkpt>
<trkpt lat="25.312317" lon="100.954267">
<time>2016-10-07T04:33:55Z</time></trkpt>
<trkpt lat="25.312237" lon="100.954057">
<time>2016-10-07T04:33:56Z</time></trkpt>
<trkpt lat="25.312138" lon="100.953888">
<time>2016-10-07T04:33:57Z</time></trkpt>
<trkpt lat="25.311988" lon="100.953798">
<time>2016-10-07T04:33:58Z</time></trkpt>
<trkpt lat="25.311828" lon="100.953798">
<time>2016-10-07T04:33:59Z</time></trkpt>
<trkpt lat="25.311608" lon="100.953838">
<time>2016-10-07T04:34:00Z</time></trkpt>
<trkpt lat="25.311407" lon="100.953888">
<time>2016-10-07T04:34:01Z</time></trkpt>
<trkpt lat="25.311197" lon="100.953968">
<time>2016-10-07T04:34:02Z</time></trkpt>
<trkpt lat="25.310977" lon="100.954047">
<time>2016-10-07T04:34:03Z</time></trkpt>
<trkpt lat="25.310787" lon="100.954117">
<time>2016-10-07T04:34:04Z</time></trkpt>
<trkpt lat="25.310627" lon="100.954217">
<time>2016-10-07T04:34:05Z</time></trkpt>
<trkpt lat="25.310496" lon="100.954386">
<time>2016-10-07T04:34:06Z</time></trkpt>
<trkpt lat="25.310436" lon="100.954556">
<time>2016-10-07T04:34:07Z</time></trkpt>
<trkpt lat="25.310405" lon="100.954745">
<time>2016-10-07T04:34:08Z</time></trkpt>
<trkpt lat="25.310355" lon="100.954935">
<time>2016-10-07T04:34:09Z</time></trkpt>
<trkpt lat="25.310275" lon="100.955104">
<time>2016-10-07T04:34:10Z</time></trkpt>
<trkpt lat="25.310144" lon="100.955234">
<time>2016-10-07T04:34:11Z</time></trkpt>
<trkpt lat="25.309974" lon="100.955333">
<time>2016-10-07T04:34:12Z</time></trkpt>
<trkpt lat="25.309784" lon="100.955393">
<time>2016-10-07T04:34:13Z</time></trkpt>
<trkpt lat="25.309584" lon="100.955453">
<time>2016-10-07T04:34:14Z</time></trkpt>
<trkpt lat="25.309374" lon="100.955503">
<time>2016-10-07T04:34:15Z</time></trkpt>
<trkpt lat="25.309163" lon="100.955543">
<time>2016-10-07T04:34:16Z</time></trkpt>
<trkpt lat="25.308973" lon="100.955553">
<time>2016-10-07T04:34:17Z</time></trkpt>
<trkpt lat="25.308773" lon="100.955533">
<time>2016-10-07T04:34:18Z</time></trkpt>
<trkpt lat="25.308594" lon="100.955483">
<time>2016-10-07T04:34:19Z</time></trkpt>
<trkpt lat="25.308444" lon="100.955373">
<time>2016-10-07T04:34:20Z</time></trkpt>
<trkpt lat="25.308314" lon="100.955234">
<time>2016-10-07T04:34:21Z</time></trkpt>
<trkpt lat="25.308184" lon="100.955094">
<time>2016-10-07T04:34:22Z</time></trkpt>
<trkpt lat="25.308035" lon="100.954925">
<time>2016-10-07T04:34:23Z</time></trkpt>
<trkpt lat="25.307885" lon="100.954775">
<time>2016-10-07T04:34:24Z</time></trkpt>
<trkpt lat="25.307715" lon="100.954616">
<time>2016-10-07T04:34:25Z</time></trkpt>
<trkpt lat="25.307606" lon="100.954466">
<time>2016-10-07T04:34:26Z</time></trkpt>
<trkpt lat="25.307586" lon="100.954416">
<time>2016-10-07T04:34:27Z</time></trkpt>
<trkpt lat="25.307566" lon="100.954356">
<time>2016-10-07T04:34:28Z</time></trkpt>
<trkpt lat="25.307576" lon="100.954237">
<time>2016-10-07T04:34:29Z</time></trkpt>
<trkpt lat="25.307677" lon="100.954057">
<time>2016-10-07T04:34:30Z</time></trkpt>
<trkpt lat="25.307807" lon="100.953928">
<time>2016-10-07T04:34:31Z</time></trkpt>
<trkpt lat="25.307937" lon="100.953768">
<time>2016-10-07T04:34:32Z</time></trkpt>
<trkpt lat="25.308078" lon="100.953609">
<time>2016-10-07T04:34:33Z</time></trkpt>
<trkpt lat="25.308228" lon="100.953459">
<time>2016-10-07T04:34:34Z</time></trkpt>
<trkpt lat="25.308378" lon="100.95331">
<time>2016-10-07T04:34:35Z</time></trkpt>
<trkpt lat="25.308519" lon="100.95318">
<time>2016-10-07T04:34:36Z</time></trkpt>
<trkpt lat="25.308649" lon="100.95306">
<time>2016-10-07T04:34:37Z</time></trkpt>
<trkpt lat="25.308769" lon="100.952941">
<time>2016-10-07T04:34:38Z</time></trkpt>
<trkpt lat="25.30887" lon="100.952791">
<time>2016-10-07T04:34:39Z</time></trkpt>
<trkpt lat="25.30897" lon="100.952642">
<time>2016-10-07T04:34:40Z</time></trkpt>
<trkpt lat="25.30909" lon="100.952502">
<time>2016-10-07T04:34:41Z</time></trkpt>
<trkpt lat="25.309251" lon="100.952293">
<time>2016-10-07T04:34:42Z</time></trkpt>
<trkpt lat="25.309411" lon="100.952153">
<time>2016-10-07T04:34:43Z</time></trkpt>
<trkpt lat="25.309551" lon="100.952033">
<time>2016-10-07T04:34:44Z</time></trkpt>
<trkpt lat="25.309712" lon="100.951914">
<time>2016-10-07T04:34:45Z</time></trkpt>
<trkpt lat="25.309862" lon="100.951804">
<time>2016-10-07T04:34:46Z</time></trkpt>
<trkpt lat="25.310022" lon="100.951704">
<time>2016-10-07T04:34:47Z</time></trkpt>
<trkpt lat="25.310192" lon="100.951595">
<time>2016-10-07T04:34:48Z</time></trkpt>
<trkpt lat="25.310363" lon="100.951495">
<time>2016-10-07T04:34:49Z</time></trkpt>
<trkpt lat="25.310543" lon="100.951395">
<time>2016-10-07T04:34:50Z</time></trkpt>
<trkpt lat="25.310733" lon="100.951286">
<time>2016-10-07T04:34:51Z</time></trkpt>
<trkpt lat="25.310933" lon="100.951176">
<time>2016-10-07T04:34:52Z</time></trkpt>
<trkpt lat="25.311114" lon="100.951056">
<time>2016-10-07T04:34:53Z</time></trkpt>
<trkpt lat="25.311294" lon="100.950917">
<time>2016-10-07T04:34:54Z</time></trkpt>
<trkpt lat="25.311454" lon="100.950757">
<time>2016-10-07T04:34:55Z</time></trkpt>
<trkpt lat="25.311605" lon="100.950578">
<time>2016-10-07T04:34:56Z</time></trkpt>
<trkpt lat="25.311735" lon="100.950378">
<time>2016-10-07T04:34:57Z</time></trkpt>
<trkpt lat="25.311856" lon="100.950169">
<time>2016-10-07T04:34:58Z</time></trkpt>
<trkpt lat="25.311956" lon="100.949959">
<time>2016-10-07T04:34:59Z</time></trkpt>
<trkpt lat="25.312027" lon="100.94973">
<time>2016-10-07T04:35:00Z</time></trkpt>
<trkpt lat="25.312077" lon="100.949491">
<time>2016-10-07T04:35:01Z</time></trkpt>
<trkpt lat="25.312158" lon="100.949271">
<time>2016-10-07T04:35:02Z</time></trkpt>
<trkpt lat="25.312278" lon="100.949082">
<time>2016-10-07T04:35:03Z</time></trkpt>
<trkpt lat="25.312428" lon="100.948932">
<time>2016-10-07T04:35:04Z</time></trkpt>
<trkpt lat="25.312588" lon="100.948823">
<time>2016-10-07T04:35:05Z</time></trkpt>
<trkpt lat="25.312739" lon="100.948703">
<time>2016-10-07T04:35:06Z</time></trkpt>
<trkpt lat="25.312899" lon="100.948603">
<time>2016-10-07T04:35:07Z</time></trkpt>
<trkpt lat="25.313049" lon="100.948504">
<time>2016-10-07T04:35:08Z</time></trkpt>
<trkpt lat="25.313189" lon="100.948394">
<time>2016-10-07T04:35:09Z</time></trkpt>
<trkpt lat="25.31333" lon="100.948284">
<time>2016-10-07T04:35:10Z</time></trkpt>
<trkpt lat="25.31347" lon="100.948185">
<time>2016-10-07T04:35:11Z</time></trkpt>
<trkpt lat="25.3136" lon="100.948035">
<time>2016-10-07T04:35:12Z</time></trkpt>
<trkpt lat="25.313721" lon="100.947875">
<time>2016-10-07T04:35:13Z</time></trkpt>
<trkpt lat="25.313831" lon="100.947696">
<time>2016-10-07T04:35:14Z</time></trkpt>
<trkpt lat="25.313961" lon="100.947487">
<time>2016-10-07T04:35:15Z</time></trkpt>
<trkpt lat="25.314072" lon="100.947277">
<time>2016-10-07T04:35:16Z</time></trkpt>
<trkpt lat="25.314172" lon="100.947048">
<time>2016-10-07T04:35:17Z</time></trkpt>
<trkpt lat="25.314243" lon="100.946818">
<time>2016-10-07T04:35:18Z</time></trkpt>
<trkpt lat="25.314273" lon="100.946579">
<time>2016-10-07T04:35:19Z</time></trkpt>
<trkpt lat="25.314274" lon="100.94635">
<time>2016-10-07T04:35:20Z</time></trkpt>
<trkpt lat="25.314224" lon="100.9461">
<time>2016-10-07T04:35:21Z</time></trkpt>
<trkpt lat="25.314215" lon="100.945881">
<time>2016-10-07T04:35:22Z</time></trkpt>
<trkpt lat="25.314275" lon="100.945652">
<time>2016-10-07T04:35:23Z</time></trkpt>
<trkpt lat="25.314415" lon="100.945492">
<time>2016-10-07T04:35:24Z</time></trkpt>
<trkpt lat="25.314566" lon="100.945362">
<time>2016-10-07T04:35:25Z</time></trkpt>
<trkpt lat="25.314696" lon="100.945173">
<time>2016-10-07T04:35:26Z</time></trkpt>
<trkpt lat="25.314756" lon="100.944963">
<time>2016-10-07T04:35:27Z</time></trkpt>
<trkpt lat="25.314787" lon="100.944744">
<time>2016-10-07T04:35:28Z</time></trkpt>
<trkpt lat="25.314817" lon="100.944515">
<time>2016-10-07T04:35:29Z</time></trkpt>
<trkpt lat="25.314848" lon="100.944275">
<time>2016-10-07T04:35:30Z</time></trkpt>
<trkpt lat="25.314878" lon="100.944046">
<time>2016-10-07T04:35:31Z</time></trkpt>
<trkpt lat="25.314879" lon="100.943846">
<time>2016-10-07T04:35:32Z</time></trkpt>
<trkpt lat="25.314839" lon="100.943657">
<time>2016-10-07T04:35:33Z</time></trkpt>
<trkpt lat="25.314769" lon="100.943418">
<time>2016-10-07T04:35:34Z</time></trkpt>
<trkpt lat="25.31462" lon="100.943228">
<time>2016-10-07T04:35:35Z</time></trkpt>
<trkpt lat="25.31452" lon="100.943118">
<time>2016-10-07T04:35:36Z</time></trkpt>
<trkpt lat="25.31435" lon="100.943059">
<time>2016-10-07T04:35:37Z</time></trkpt>
<trkpt lat="25.31417" lon="100.943059">
<time>2016-10-07T04:35:38Z</time></trkpt>
<trkpt lat="25.31402" lon="100.943118">
<time>2016-10-07T04:35:39Z</time></trkpt>
<trkpt lat="25.31387" lon="100.943158">
<time>2016-10-07T04:35:40Z</time></trkpt>
<trkpt lat="25.31368" lon="100.943188">
<time>2016-10-07T04:35:41Z</time></trkpt>
<trkpt lat="25.31349" lon="100.943168">
<time>2016-10-07T04:35:42Z</time></trkpt>
<trkpt lat="25.31329" lon="100.943148">
<time>2016-10-07T04:35:43Z</time></trkpt>
<trkpt lat="25.31311" lon="100.943138">
<time>2016-10-07T04:35:44Z</time></trkpt>
<trkpt lat="25.31289" lon="100.943148">
<time>2016-10-07T04:35:45Z</time></trkpt>
<trkpt lat="25.31269" lon="100.943178">
<time>2016-10-07T04:35:46Z</time></trkpt>
<trkpt lat="25.312509" lon="100.943208">
<time>2016-10-07T04:35:47Z</time></trkpt>
<trkpt lat="25.312369" lon="100.943218">
<time>2016-10-07T04:35:48Z</time></trkpt>
<trkpt lat="25.31225" lon="100.943158">
<time>2016-10-07T04:35:49Z</time></trkpt>
<trkpt lat="25.31219" lon="100.943019">
<time>2016-10-07T04:35:50Z</time></trkpt>
<trkpt lat="25.31212" lon="100.942869">
<time>2016-10-07T04:35:51Z</time></trkpt>
<trkpt lat="25.31206" lon="100.942719">
<time>2016-10-07T04:35:52Z</time></trkpt>
<trkpt lat="25.311951" lon="100.94257">
<time>2016-10-07T04:35:53Z</time></trkpt>
<trkpt lat="25.311801" lon="100.94239">
<time>2016-10-07T04:35:54Z</time></trkpt>
<trkpt lat="25.311631" lon="100.942241">
<time>2016-10-07T04:35:55Z</time></trkpt>
<trkpt lat="25.311512" lon="100.942051">
<time>2016-10-07T04:35:56Z</time></trkpt>
<trkpt lat="25.311382" lon="100.941852">
<time>2016-10-07T04:35:57Z</time></trkpt>
<trkpt lat="25.311252" lon="100.941662">
<time>2016-10-07T04:35:58Z</time></trkpt>
<trkpt lat="25.311072" lon="100.941513">
<time>2016-10-07T04:35:59Z</time></trkpt>
<trkpt lat="25.310903" lon="100.941393">
<time>2016-10-07T04:36:00Z</time></trkpt>
<trkpt lat="25.310713" lon="100.941333">
<time>2016-10-07T04:36:01Z</time></trkpt>
<trkpt lat="25.310523" lon="100.941323">
<time>2016-10-07T04:36:02Z</time></trkpt>
<trkpt lat="25.310313" lon="100.941333">
<time>2016-10-07T04:36:03Z</time></trkpt>
<trkpt lat="25.310113" lon="100.941313">
<time>2016-10-07T04:36:04Z</time></trkpt>
<trkpt lat="25.309973" lon="100.941223">
<time>2016-10-07T04:36:05Z</time></trkpt>
<trkpt lat="25.309903" lon="100.941064">
<time>2016-10-07T04:36:06Z</time></trkpt>
<trkpt lat="25.309934" lon="100.940864">
<time>2016-10-07T04:36:07Z</time></trkpt>
<trkpt lat="25.310014" lon="100.940675">
<time>2016-10-07T04:36:08Z</time></trkpt>
<trkpt lat="25.310114" lon="100.940485">
<time>2016-10-07T04:36:09Z</time></trkpt>
<trkpt lat="25.310215" lon="100.940316">
<time>2016-10-07T04:36:10Z</time></trkpt>
<trkpt lat="25.310315" lon="100.940146">
<time>2016-10-07T04:36:11Z</time></trkpt>
<trkpt lat="25.310395" lon="100.939976">
<time>2016-10-07T04:36:12Z</time></trkpt>
<trkpt lat="25.310445" lon="100.939807">
<time>2016-10-07T04:36:13Z</time></trkpt>
<trkpt lat="25.310446" lon="100.939637">
<time>2016-10-07T04:36:14Z</time></trkpt>
<trkpt lat="25.310436" lon="100.939478">
<time>2016-10-07T04:36:15Z</time></trkpt>
<trkpt lat="25.310416" lon="100.939318">
<time>2016-10-07T04:36:16Z</time></trkpt>
<trkpt lat="25.310427" lon="100.939139">
<time>2016-10-07T04:36:17Z</time></trkpt>
<trkpt lat="25.310457" lon="100.938949">
<time>2016-10-07T04:36:18Z</time></trkpt>
<trkpt lat="25.310517" lon="100.93874">
<time>2016-10-07T04:36:19Z</time></trkpt>
<trkpt lat="25.310637" lon="100.93858">
<time>2016-10-07T04:36:20Z</time></trkpt>
<trkpt lat="25.310738" lon="100.93841">
<time>2016-10-07T04:36:21Z</time></trkpt>
<trkpt lat="25.310808" lon="100.938221">
<time>2016-10-07T04:36:22Z</time></trkpt>
<trkpt lat="25.310828" lon="100.938031">
<time>2016-10-07T04:36:23Z</time></trkpt>
<trkpt lat="25.310799" lon="100.937852">
<time>2016-10-07T04:36:24Z</time></trkpt>
<trkpt lat="25.310759" lon="100.937672">
<time>2016-10-07T04:36:25Z</time></trkpt>
<trkpt lat="25.310689" lon="100.937463">
<time>2016-10-07T04:36:26Z</time></trkpt>
<trkpt lat="25.31064" lon="100.937243">
<time>2016-10-07T04:36:27Z</time></trkpt>
<trkpt lat="25.31059" lon="100.937024">
<time>2016-10-07T04:36:28Z</time></trkpt>
<trkpt lat="25.31053" lon="100.936794">
<time>2016-10-07T04:36:29Z</time></trkpt>
<trkpt lat="25.310481" lon="100.936595">
<time>2016-10-07T04:36:30Z</time></trkpt>
<trkpt lat="25.310431" lon="100.936375">
<time>2016-10-07T04:36:31Z</time></trkpt>
<trkpt lat="25.310381" lon="100.936176">
<time>2016-10-07T04:36:32Z</time></trkpt>
<trkpt lat="25.310342" lon="100.935976">
<time>2016-10-07T04:36:33Z</time></trkpt>
<trkpt lat="25.310292" lon="100.935787">
<time>2016-10-07T04:36:34Z</time></trkpt>
<trkpt lat="25.310262" lon="100.935587">
<time>2016-10-07T04:36:35Z</time></trkpt>
<trkpt lat="25.310243" lon="100.935397">
<time>2016-10-07T04:36:36Z</time></trkpt>
<trkpt lat="25.310233" lon="100.935208">
<time>2016-10-07T04:36:37Z</time></trkpt>
<trkpt lat="25.310223" lon="100.935038">
<time>2016-10-07T04:36:38Z</time></trkpt>
<trkpt lat="25.310213" lon="100.934869">
<time>2016-10-07T04:36:39Z</time></trkpt>
<trkpt lat="25.310204" lon="100.934699">
<time>2016-10-07T04:36:40Z</time></trkpt>
<trkpt lat="25.310194" lon="100.934509">
<time>2016-10-07T04:36:41Z</time></trkpt>
<trkpt lat="25.310184" lon="100.9343">
<time>2016-10-07T04:36:42Z</time></trkpt>
<trkpt lat="25.310165" lon="100.93407">
<time>2016-10-07T04:36:43Z</time></trkpt>
<trkpt lat="25.310155" lon="100.933811">
<time>2016-10-07T04:36:44Z</time></trkpt>
<trkpt lat="25.310145" lon="100.933562">
<time>2016-10-07T04:36:45Z</time></trkpt>
<trkpt lat="25.310156" lon="100.933292">
<time>2016-10-07T04:36:46Z</time></trkpt>
<trkpt lat="25.310156" lon="100.933103">
<time>2016-10-07T04:36:47Z</time></trkpt>
<trkpt lat="25.310176" lon="100.932903">
<time>2016-10-07T04:36:48Z</time></trkpt>
<trkpt lat="25.310227" lon="100.932713">
<time>2016-10-07T04:36:49Z</time></trkpt>
<trkpt lat="25.310257" lon="100.932534">
<time>2016-10-07T04:36:50Z</time></trkpt>
<trkpt lat="25.310317" lon="100.932324">
<time>2016-10-07T04:36:51Z</time></trkpt>
<trkpt lat="25.310347" lon="100.932115">
<time>2016-10-07T04:36:52Z</time></trkpt>
<trkpt lat="25.310388" lon="100.931925">
<time>2016-10-07T04:36:53Z</time></trkpt>
<trkpt lat="25.310418" lon="100.931735">
<time>2016-10-07T04:36:54Z</time></trkpt>
<trkpt lat="25.310448" lon="100.931556">
<time>2016-10-07T04:36:55Z</time></trkpt>
<trkpt lat="25.310468" lon="100.931376">
<time>2016-10-07T04:36:56Z</time></trkpt>
<trkpt lat="25.310489" lon="100.931217">
<time>2016-10-07T04:36:57Z</time></trkpt>
<trkpt lat="25.310509" lon="100.931067">
<time>2016-10-07T04:36:58Z</time></trkpt>
<trkpt lat="25.310529" lon="100.930927">
<time>2016-10-07T04:36:59Z</time></trkpt>
<trkpt lat="25.310579" lon="100.930708">
<time>2016-10-07T04:37:00Z</time></trkpt>
<trkpt lat="25.31063" lon="100.930518">
<time>2016-10-07T04:37:01Z</time></trkpt>
<trkpt lat="25.31067" lon="100.930348">
<time>2016-10-07T04:37:02Z</time></trkpt>
<trkpt lat="25.31072" lon="100.930179">
<time>2016-10-07T04:37:03Z</time></trkpt>
<trkpt lat="25.31078" lon="100.930009">
<time>2016-10-07T04:37:04Z</time></trkpt>
<trkpt lat="25.310841" lon="100.929829">
<time>2016-10-07T04:37:05Z</time></trkpt>
<trkpt lat="25.310901" lon="100.92964">
<time>2016-10-07T04:37:06Z</time></trkpt>
<trkpt lat="25.310971" lon="100.92944">
<time>2016-10-07T04:37:07Z</time></trkpt>
<trkpt lat="25.311051" lon="100.929221">
<time>2016-10-07T04:37:08Z</time></trkpt>
<trkpt lat="25.311122" lon="100.929021">
<time>2016-10-07T04:37:09Z</time></trkpt>
<trkpt lat="25.311212" lon="100.928801">
<time>2016-10-07T04:37:10Z</time></trkpt>
<trkpt lat="25.311322" lon="100.928612">
<time>2016-10-07T04:37:11Z</time></trkpt>
<trkpt lat="25.311442" lon="100.928432">
<time>2016-10-07T04:37:12Z</time></trkpt>
<trkpt lat="25.311583" lon="100.928242">
<time>2016-10-07T04:37:13Z</time></trkpt>
<trkpt lat="25.311733" lon="100.928063">
<time>2016-10-07T04:37:14Z</time></trkpt>
<trkpt lat="25.311863" lon="100.927863">
<time>2016-10-07T04:37:15Z</time></trkpt>
<trkpt lat="25.311983" lon="100.927644">
<time>2016-10-07T04:37:16Z</time></trkpt>
<trkpt lat="25.312064" lon="100.927404">
<time>2016-10-07T04:37:17Z</time></trkpt>
<trkpt lat="25.312124" lon="100.927155">
<time>2016-10-07T04:37:18Z</time></trkpt>
<trkpt lat="25.312204" lon="100.926925">
<time>2016-10-07T04:37:19Z</time></trkpt>
<trkpt lat="25.312334" lon="100.926755">
<time>2016-10-07T04:37:20Z</time></trkpt>
<trkpt lat="25.312515" lon="100.926655">
<time>2016-10-07T04:37:21Z</time></trkpt>
<trkpt lat="25.312735" lon="100.926596">
<time>2016-10-07T04:37:22Z</time></trkpt>
<trkpt lat="25.312955" lon="100.926576">
<time>2016-10-07T04:37:23Z</time></trkpt>
<trkpt lat="25.313185" lon="100.926536">
<time>2016-10-07T04:37:24Z</time></trkpt>
<trkpt lat="25.313415" lon="100.926496">
<time>2016-10-07T04:37:25Z</time></trkpt>
<trkpt lat="25.313645" lon="100.926436">
<time>2016-10-07T04:37:26Z</time></trkpt>
<trkpt lat="25.313875" lon="100.926396">
<time>2016-10-07T04:37:27Z</time></trkpt>
<trkpt lat="25.314115" lon="100.926326">
<time>2016-10-07T04:37:28Z</time></trkpt>
<trkpt lat="25.314335" lon="100.926236">
<time>2016-10-07T04:37:29Z</time></trkpt>
<trkpt lat="25.314545" lon="100.926126">
<time>2016-10-07T04:37:30Z</time></trkpt>
<trkpt lat="25.314756" lon="100.926007">
<time>2016-10-07T04:37:31Z</time></trkpt>
<trkpt lat="25.314976" lon="100.925907">
<time>2016-10-07T04:37:32Z</time></trkpt>
<trkpt lat="25.315196" lon="100.925847">
<time>2016-10-07T04:37:33Z</time></trkpt>
<trkpt lat="25.315426" lon="100.925827">
<time>2016-10-07T04:37:34Z</time></trkpt>
<trkpt lat="25.315656" lon="100.925827">
<time>2016-10-07T04:37:35Z</time></trkpt>
<trkpt lat="25.315886" lon="100.925847">
<time>2016-10-07T04:37:36Z</time></trkpt>
<trkpt lat="25.316106" lon="100.925867">
<time>2016-10-07T04:37:37Z</time></trkpt>
<trkpt lat="25.316326" lon="100.925877">
<time>2016-10-07T04:37:38Z</time></trkpt>
<trkpt lat="25.316546" lon="100.925857">
<time>2016-10-07T04:37:39Z</time></trkpt>
<trkpt lat="25.316656" lon="100.925807">
<time>2016-10-07T04:37:40Z</time></trkpt>
<trkpt lat="25.316696" lon="100.925777">
<time>2016-10-07T04:37:41Z</time></trkpt>
<trkpt lat="25.316796" lon="100.925657">
<time>2016-10-07T04:37:42Z</time></trkpt>
<trkpt lat="25.316866" lon="100.925458">
<time>2016-10-07T04:37:43Z</time></trkpt>
<trkpt lat="25.316907" lon="100.925268">
<time>2016-10-07T04:37:44Z</time></trkpt>
<trkpt lat="25.316917" lon="100.925088">
<time>2016-10-07T04:37:45Z</time></trkpt>
<trkpt lat="25.316937" lon="100.924909">
<time>2016-10-07T04:37:46Z</time></trkpt>
<trkpt lat="25.316967" lon="100.924739">
<time>2016-10-07T04:37:47Z</time></trkpt>
<trkpt lat="25.316997" lon="100.924569">
<time>2016-10-07T04:37:48Z</time></trkpt>
<trkpt lat="25.317038" lon="100.924399">
<time>2016-10-07T04:37:49Z</time></trkpt>
<trkpt lat="25.317078" lon="100.92423">
<time>2016-10-07T04:37:50Z</time></trkpt>
<trkpt lat="25.317128" lon="100.92406">
<time>2016-10-07T04:37:51Z</time></trkpt>
<trkpt lat="25.317178" lon="100.9239">
<time>2016-10-07T04:37:52Z</time></trkpt>
<trkpt lat="25.317258" lon="100.923701">
<time>2016-10-07T04:37:53Z</time></trkpt>
<trkpt lat="25.317318" lon="100.923501">
<time>2016-10-07T04:37:54Z</time></trkpt>
<trkpt lat="25.317369" lon="100.923301">
<time>2016-10-07T04:37:55Z</time></trkpt>
<trkpt lat="25.317419" lon="100.923112">
<time>2016-10-07T04:37:56Z</time></trkpt>
<trkpt lat="25.317429" lon="100.923082">
<time>2016-10-07T04:37:57Z</time></trkpt>
<trkpt lat="25.317469" lon="100.922912">
<time>2016-10-07T04:37:58Z</time></trkpt>
<trkpt lat="25.317519" lon="100.922692">
<time>2016-10-07T04:37:59Z</time></trkpt>
<trkpt lat="25.31758" lon="100.922473">
<time>2016-10-07T04:38:00Z</time></trkpt>
<trkpt lat="25.31764" lon="100.922253">
<time>2016-10-07T04:38:01Z</time></trkpt>
<trkpt lat="25.31775" lon="100.922083">
<time>2016-10-07T04:38:02Z</time></trkpt>
<trkpt lat="25.31787" lon="100.921894">
<time>2016-10-07T04:38:03Z</time></trkpt>
<trkpt lat="25.31795" lon="100.921754">
<time>2016-10-07T04:38:04Z</time></trkpt>
<trkpt lat="25.318" lon="100.921674">
<time>2016-10-07T04:38:05Z</time></trkpt>
<trkpt lat="25.318121" lon="100.921444">
<time>2016-10-07T04:38:06Z</time></trkpt>
<trkpt lat="25.318261" lon="100.921205">
<time>2016-10-07T04:38:07Z</time></trkpt>
<trkpt lat="25.318431" lon="100.921005">
<time>2016-10-07T04:38:08Z</time></trkpt>
<trkpt lat="25.318601" lon="100.920825">
<time>2016-10-07T04:38:09Z</time></trkpt>
<trkpt lat="25.318751" lon="100.920626">
<time>2016-10-07T04:38:10Z</time></trkpt>
<trkpt lat="25.318872" lon="100.920416">
<time>2016-10-07T04:38:11Z</time></trkpt>
<trkpt lat="25.318982" lon="100.920186">
<time>2016-10-07T04:38:12Z</time></trkpt>
<trkpt lat="25.319092" lon="100.919967">
<time>2016-10-07T04:38:13Z</time></trkpt>
<trkpt lat="25.319232" lon="100.919787">
<time>2016-10-07T04:38:14Z</time></trkpt>
<trkpt lat="25.319412" lon="100.919637">
<time>2016-10-07T04:38:15Z</time></trkpt>
<trkpt lat="25.319622" lon="100.919547">
<time>2016-10-07T04:38:16Z</time></trkpt>
<trkpt lat="25.319832" lon="100.919477">
<time>2016-10-07T04:38:17Z</time></trkpt>
<trkpt lat="25.320033" lon="100.919388">
<time>2016-10-07T04:38:18Z</time></trkpt>
<trkpt lat="25.320183" lon="100.919278">
<time>2016-10-07T04:38:19Z</time></trkpt>
<trkpt lat="25.320253" lon="100.919098">
<time>2016-10-07T04:38:20Z</time></trkpt>
<trkpt lat="25.320243" lon="100.918888">
<time>2016-10-07T04:38:21Z</time></trkpt>
<trkpt lat="25.320183" lon="100.918669">
<time>2016-10-07T04:38:22Z</time></trkpt>
<trkpt lat="25.320133" lon="100.918439">
<time>2016-10-07T04:38:23Z</time></trkpt>
<trkpt lat="25.320084" lon="100.918209">
<time>2016-10-07T04:38:24Z</time></trkpt>
<trkpt lat="25.320074" lon="100.91797">
<time>2016-10-07T04:38:25Z</time></trkpt>
<trkpt lat="25.320114" lon="100.91773">
<time>2016-10-07T04:38:26Z</time></trkpt>
<trkpt lat="25.320214" lon="100.9175">
<time>2016-10-07T04:38:27Z</time></trkpt>
<trkpt lat="25.320344" lon="100.917281">
<time>2016-10-07T04:38:28Z</time></trkpt>
<trkpt lat="25.320484" lon="100.917071">
<time>2016-10-07T04:38:29Z</time></trkpt>
<trkpt lat="25.320625" lon="100.916831">
<time>2016-10-07T04:38:30Z</time></trkpt>
<trkpt lat="25.320735" lon="100.916582">
<time>2016-10-07T04:38:31Z</time></trkpt>
<trkpt lat="25.320825" lon="100.916312">
<time>2016-10-07T04:38:32Z</time></trkpt>
<trkpt lat="25.320925" lon="100.916022">
<time>2016-10-07T04:38:33Z</time></trkpt>
<trkpt lat="25.321065" lon="100.915783">
<time>2016-10-07T04:38:34Z</time></trkpt>
<trkpt lat="25.321226" lon="100.915563">
<time>2016-10-07T04:38:35Z</time></trkpt>
<trkpt lat="25.321366" lon="100.915383">
<time>2016-10-07T04:38:36Z</time></trkpt>
<trkpt lat="25.321396" lon="100.915193">
<time>2016-10-07T04:38:37Z</time></trkpt>
<trkpt lat="25.321336" lon="100.915034">
<time>2016-10-07T04:38:38Z</time></trkpt>
<trkpt lat="25.321186" lon="100.914924">
<time>2016-10-07T04:38:39Z</time></trkpt>
<trkpt lat="25.321006" lon="100.914864">
<time>2016-10-07T04:38:40Z</time></trkpt>
<trkpt lat="25.320816" lon="100.914814">
<time>2016-10-07T04:38:41Z</time></trkpt>
<trkpt lat="25.320616" lon="100.914744">
<time>2016-10-07T04:38:42Z</time></trkpt>
<trkpt lat="25.320366" lon="100.914684">
<time>2016-10-07T04:38:43Z</time></trkpt>
<trkpt lat="25.320096" lon="100.914684">
<time>2016-10-07T04:38:44Z</time></trkpt>
<trkpt lat="25.319866" lon="100.914724">
<time>2016-10-07T04:38:45Z</time></trkpt>
<trkpt lat="25.319666" lon="100.914824">
<time>2016-10-07T04:38:46Z</time></trkpt>
<trkpt lat="25.319526" lon="100.915004">
<time>2016-10-07T04:38:47Z</time></trkpt>
<trkpt lat="25.319446" lon="100.915233">
<time>2016-10-07T04:38:48Z</time></trkpt>
<trkpt lat="25.319335" lon="100.915473">
<time>2016-10-07T04:38:49Z</time></trkpt>
<trkpt lat="25.319165" lon="100.915663">
<time>2016-10-07T04:38:50Z</time></trkpt>
<trkpt lat="25.318955" lon="100.915773">
<time>2016-10-07T04:38:51Z</time></trkpt>
<trkpt lat="25.318755" lon="100.915893">
<time>2016-10-07T04:38:52Z</time></trkpt>
<trkpt lat="25.318585" lon="100.916042">
<time>2016-10-07T04:38:53Z</time></trkpt>
<trkpt lat="25.318465" lon="100.916202">
<time>2016-10-07T04:38:54Z</time></trkpt>
<trkpt lat="25.318365" lon="100.916292">
<time>2016-10-07T04:38:55Z</time></trkpt>
<trkpt lat="25.318215" lon="100.916292">
<time>2016-10-07T04:38:56Z</time></trkpt>
<trkpt lat="25.318115" lon="100.916202">
<time>2016-10-07T04:38:57Z</time></trkpt>
<trkpt lat="25.318075" lon="100.916062">
<time>2016-10-07T04:38:58Z</time></trkpt>
<trkpt lat="25.318085" lon="100.915883">
<time>2016-10-07T04:38:59Z</time></trkpt>
<trkpt lat="25.318135" lon="100.915673">
<time>2016-10-07T04:39:00Z</time></trkpt>
<trkpt lat="25.318195" lon="100.915433">
<time>2016-10-07T04:39:01Z</time></trkpt>
<trkpt lat="25.318246" lon="100.915203">
<time>2016-10-07T04:39:02Z</time></trkpt>
<trkpt lat="25.318296" lon="100.914944">
<time>2016-10-07T04:39:03Z</time></trkpt>
<trkpt lat="25.318406" lon="100.914724">
<time>2016-10-07T04:39:04Z</time></trkpt>
<trkpt lat="25.318546" lon="100.914564">
<time>2016-10-07T04:39:05Z</time></trkpt>
<trkpt lat="25.318706" lon="100.914404">
<time>2016-10-07T04:39:06Z</time></trkpt>
<trkpt lat="25.318836" lon="100.914195">
<time>2016-10-07T04:39:07Z</time></trkpt>
<trkpt lat="25.318946" lon="100.913945">
<time>2016-10-07T04:39:08Z</time></trkpt>
<trkpt lat="25.319036" lon="100.913715">
<time>2016-10-07T04:39:09Z</time></trkpt>
<trkpt lat="25.319107" lon="100.913506">
<time>2016-10-07T04:39:10Z</time></trkpt>
<trkpt lat="25.319107" lon="100.913316">
<time>2016-10-07T04:39:11Z</time></trkpt>
<trkpt lat="25.319007" lon="100.913176">
<time>2016-10-07T04:39:12Z</time></trkpt>
<trkpt lat="25.318857" lon="100.913106">
<time>2016-10-07T04:39:13Z</time></trkpt>
<trkpt lat="25.318707" lon="100.913096">
<time>2016-10-07T04:39:14Z</time></trkpt>
<trkpt lat="25.318537" lon="100.913106">
<time>2016-10-07T04:39:15Z</time></trkpt>
<trkpt lat="25.318347" lon="100.913086">
<time>2016-10-07T04:39:16Z</time></trkpt>
<trkpt lat="25.318197" lon="100.912996">
<time>2016-10-07T04:39:17Z</time></trkpt>
<trkpt lat="25.318117" lon="100.912866">
<time>2016-10-07T04:39:18Z</time></trkpt>
<trkpt lat="25.318107" lon="100.912716">
<time>2016-10-07T04:39:19Z</time></trkpt>
<trkpt lat="25.318157" lon="100.912587">
<time>2016-10-07T04:39:20Z</time></trkpt>
<trkpt lat="25.318307" lon="100.912457">
<time>2016-10-07T04:39:21Z</time></trkpt>
<trkpt lat="25.318487" lon="100.912367">
<time>2016-10-07T04:39:22Z</time></trkpt>
<trkpt lat="25.318687" lon="100.912267">
<time>2016-10-07T04:39:23Z</time></trkpt>
<trkpt lat="25.318877" lon="100.912237">
<time>2016-10-07T04:39:24Z</time></trkpt>
<trkpt lat="25.319077" lon="100.912227">
<time>2016-10-07T04:39:25Z</time></trkpt>
<trkpt lat="25.319267" lon="100.912237">
<time>2016-10-07T04:39:26Z</time></trkpt>
<trkpt lat="25.319457" lon="100.912297">
<time>2016-10-07T04:39:27Z</time></trkpt>
<trkpt lat="25.319607" lon="100.912397">
<time>2016-10-07T04:39:28Z</time></trkpt>
<trkpt lat="25.319767" lon="100.912477">
<time>2016-10-07T04:39:29Z</time></trkpt>
<trkpt lat="25.319937" lon="100.912507">
<time>2016-10-07T04:39:30Z</time></trkpt>
<trkpt lat="25.320117" lon="100.912487">
<time>2016-10-07T04:39:31Z</time></trkpt>
<trkpt lat="25.320287" lon="100.912397">
<time>2016-10-07T04:39:32Z</time></trkpt>
<trkpt lat="25.320417" lon="100.912237">
<time>2016-10-07T04:39:33Z</time></trkpt>
<trkpt lat="25.320548" lon="100.912057">
<time>2016-10-07T04:39:34Z</time></trkpt>
<trkpt lat="25.320678" lon="100.911877">
<time>2016-10-07T04:39:35Z</time></trkpt>
<trkpt lat="25.320798" lon="100.911708">
<time>2016-10-07T04:39:36Z</time></trkpt>
<trkpt lat="25.320818" lon="100.911668">
<time>2016-10-07T04:39:37Z</time></trkpt>
<trkpt lat="25.320898" lon="100.911508">
<time>2016-10-07T04:39:38Z</time></trkpt>
<trkpt lat="25.320998" lon="100.911318">
<time>2016-10-07T04:39:39Z</time></trkpt>
<trkpt lat="25.321118" lon="100.911138">
<time>2016-10-07T04:39:40Z</time></trkpt>
<trkpt lat="25.321238" lon="100.910998">
<time>2016-10-07T04:39:41Z</time></trkpt>
<trkpt lat="25.321268" lon="100.910978">
<time>2016-10-07T04:39:42Z</time></trkpt>
<trkpt lat="25.321438" lon="100.910819">
<time>2016-10-07T04:39:43Z</time></trkpt>
<trkpt lat="25.321628" lon="100.910659">
<time>2016-10-07T04:39:44Z</time></trkpt>
<trkpt lat="25.321808" lon="100.910489">
<time>2016-10-07T04:39:45Z</time></trkpt>
<trkpt lat="25.322028" lon="100.910349">
<time>2016-10-07T04:39:46Z</time></trkpt>
<trkpt lat="25.322249" lon="100.910229">
<time>2016-10-07T04:39:47Z</time></trkpt>
<trkpt lat="25.322499" lon="100.910139">
<time>2016-10-07T04:39:48Z</time></trkpt>
<trkpt lat="25.322739" lon="100.910059">
<time>2016-10-07T04:39:49Z</time></trkpt>
<trkpt lat="25.322969" lon="100.909989">
<time>2016-10-07T04:39:50Z</time></trkpt>
<trkpt lat="25.323189" lon="100.909909">
<time>2016-10-07T04:39:51Z</time></trkpt>
<trkpt lat="25.323399" lon="100.9098">
<time>2016-10-07T04:39:52Z</time></trkpt>
<trkpt lat="25.323599" lon="100.90967">
<time>2016-10-07T04:39:53Z</time></trkpt>
<trkpt lat="25.323799" lon="100.9095">
<time>2016-10-07T04:39:54Z</time></trkpt>
<trkpt lat="25.323989" lon="100.90933">
<time>2016-10-07T04:39:55Z</time></trkpt>
<trkpt lat="25.324189" lon="100.90914">
<time>2016-10-07T04:39:56Z</time></trkpt>
<trkpt lat="25.324369" lon="100.90895">
<time>2016-10-07T04:39:57Z</time></trkpt>
<trkpt lat="25.324549" lon="100.908761">
<time>2016-10-07T04:39:58Z</time></trkpt>
<trkpt lat="25.324729" lon="100.908581">
<time>2016-10-07T04:39:59Z</time></trkpt>
<trkpt lat="25.32489" lon="100.908391">
<time>2016-10-07T04:40:00Z</time></trkpt>
<trkpt lat="25.32506" lon="100.908201">
<time>2016-10-07T04:40:01Z</time></trkpt>
<trkpt lat="25.32521" lon="100.908011">
<time>2016-10-07T04:40:02Z</time></trkpt>
<trkpt lat="25.32537" lon="100.907831">
<time>2016-10-07T04:40:03Z</time></trkpt>
<trkpt lat="25.32551" lon="100.907622">
<time>2016-10-07T04:40:04Z</time></trkpt>
<trkpt lat="25.32565" lon="100.907412">
<time>2016-10-07T04:40:05Z</time></trkpt>
<trkpt lat="25.3258" lon="100.907192">
<time>2016-10-07T04:40:06Z</time></trkpt>
<trkpt lat="25.32594" lon="100.906972">
<time>2016-10-07T04:40:07Z</time></trkpt>
<trkpt lat="25.32608" lon="100.906762">
<time>2016-10-07T04:40:08Z</time></trkpt>
<trkpt lat="25.32623" lon="100.906553">
<time>2016-10-07T04:40:09Z</time></trkpt>
<trkpt lat="25.3264" lon="100.906373">
<time>2016-10-07T04:40:10Z</time></trkpt>
<trkpt lat="25.3266" lon="100.906213">
<time>2016-10-07T04:40:11Z</time></trkpt>
<trkpt lat="25.3268" lon="100.906073">
<time>2016-10-07T04:40:12Z</time></trkpt>
<trkpt lat="25.32699" lon="100.905933">
<time>2016-10-07T04:40:13Z</time></trkpt>
<trkpt lat="25.32714" lon="100.905783">
<time>2016-10-07T04:40:14Z</time></trkpt>
<trkpt lat="25.327311" lon="100.905533">
<time>2016-10-07T04:40:15Z</time></trkpt>
<trkpt lat="25.327401" lon="100.905314">
<time>2016-10-07T04:40:16Z</time></trkpt>
<trkpt lat="25.327411" lon="100.905134">
<time>2016-10-07T04:40:17Z</time></trkpt>
<trkpt lat="25.327381" lon="100.904954">
<time>2016-10-07T04:40:18Z</time></trkpt>
<trkpt lat="25.327301" lon="100.904764">
<time>2016-10-07T04:40:19Z</time></trkpt>
<trkpt lat="25.327211" lon="100.904554">
<time>2016-10-07T04:40:20Z</time></trkpt>
<trkpt lat="25.327181" lon="100.904354">
<time>2016-10-07T04:40:21Z</time></trkpt>
<trkpt lat="25.327261" lon="100.904184">
<time>2016-10-07T04:40:22Z</time></trkpt>
<trkpt lat="25.327411" lon="100.904085">
<time>2016-10-07T04:40:23Z</time></trkpt>
<trkpt lat="25.327591" lon="100.904065">
<time>2016-10-07T04:40:24Z</time></trkpt>
<trkpt lat="25.327761" lon="100.904065">
<time>2016-10-07T04:40:25Z</time></trkpt>
<trkpt lat="25.327941" lon="100.904045">
<time>2016-10-07T04:40:26Z</time></trkpt>
<trkpt lat="25.328091" lon="100.903965">
<time>2016-10-07T04:40:27Z</time></trkpt>
<trkpt lat="25.328231" lon="100.903845">
<time>2016-10-07T04:40:28Z</time></trkpt>
<trkpt lat="25.328361" lon="100.903715">
<time>2016-10-07T04:40:29Z</time></trkpt>
<trkpt lat="25.328511" lon="100.903595">
<time>2016-10-07T04:40:30Z</time></trkpt>
<trkpt lat="25.328631" lon="100.903435">
<time>2016-10-07T04:40:31Z</time></trkpt>
<trkpt lat="25.328771" lon="100.903285">
<time>2016-10-07T04:40:32Z</time></trkpt>
<trkpt lat="25.328901" lon="100.903125">
<time>2016-10-07T04:40:33Z</time></trkpt>
<trkpt lat="25.329001" lon="100.902935">
<time>2016-10-07T04:40:34Z</time></trkpt>
<trkpt lat="25.329081" lon="100.902745">
<time>2016-10-07T04:40:35Z</time></trkpt>
<trkpt lat="25.329141" lon="100.902546">
<time>2016-10-07T04:40:36Z</time></trkpt>
<trkpt lat="25.329171" lon="100.902336">
<time>2016-10-07T04:40:37Z</time></trkpt>
<trkpt lat="25.329181" lon="100.902116">
<time>2016-10-07T04:40:38Z</time></trkpt>
<trkpt lat="25.329161" lon="100.901906">
<time>2016-10-07T04:40:39Z</time></trkpt>
<trkpt lat="25.329111" lon="100.901706">
<time>2016-10-07T04:40:40Z</time></trkpt>
<trkpt lat="25.329071" lon="100.901586">
<time>2016-10-07T04:40:41Z</time></trkpt>
<trkpt lat="25.329041" lon="100.901496">
<time>2016-10-07T04:40:42Z</time></trkpt>
<trkpt lat="25.328971" lon="100.901296">
<time>2016-10-07T04:40:43Z</time></trkpt>
<trkpt lat="25.328891" lon="100.901106">
<time>2016-10-07T04:40:44Z</time></trkpt>
<trkpt lat="25.328821" lon="100.900907">
<time>2016-10-07T04:40:45Z</time></trkpt>
<trkpt lat="25.328771" lon="100.900697">
<time>2016-10-07T04:40:46Z</time></trkpt>
<trkpt lat="25.328751" lon="100.900487">
<time>2016-10-07T04:40:47Z</time></trkpt>
<trkpt lat="25.328751" lon="100.900457">
<time>2016-10-07T04:40:48Z</time></trkpt>
<trkpt lat="25.328771" lon="100.900267">
<time>2016-10-07T04:40:49Z</time></trkpt>
<trkpt lat="25.328821" lon="100.900047">
<time>2016-10-07T04:40:50Z</time></trkpt>
<trkpt lat="25.328891" lon="100.899837">
<time>2016-10-07T04:40:51Z</time></trkpt>
<trkpt lat="25.328951" lon="100.899617">
<time>2016-10-07T04:40:52Z</time></trkpt>
<trkpt lat="25.329031" lon="100.899417">
<time>2016-10-07T04:40:53Z</time></trkpt>
<trkpt lat="25.329101" lon="100.899218">
<time>2016-10-07T04:40:54Z</time></trkpt>
<trkpt lat="25.329191" lon="100.899038">
<time>2016-10-07T04:40:55Z</time></trkpt>
<trkpt lat="25.329291" lon="100.898878">
<time>2016-10-07T04:40:56Z</time></trkpt>
<trkpt lat="25.329411" lon="100.898718">
<time>2016-10-07T04:40:57Z</time></trkpt>
<trkpt lat="25.329521" lon="100.898598">
<time>2016-10-07T04:40:58Z</time></trkpt>
<trkpt lat="25.329531" lon="100.898588">
<time>2016-10-07T04:40:59Z</time></trkpt>
<trkpt lat="25.329651" lon="100.898438">
<time>2016-10-07T04:41:00Z</time></trkpt>
<trkpt lat="25.329781" lon="100.898298">
<time>2016-10-07T04:41:01Z</time></trkpt>
<trkpt lat="25.329911" lon="100.898138">
<time>2016-10-07T04:41:02Z</time></trkpt>
<trkpt lat="25.330051" lon="100.897988">
<time>2016-10-07T04:41:03Z</time></trkpt>
<trkpt lat="25.330161" lon="100.897838">
<time>2016-10-07T04:41:04Z</time></trkpt>
<trkpt lat="25.330271" lon="100.897588">
<time>2016-10-07T04:41:05Z</time></trkpt>
<trkpt lat="25.330341" lon="100.897368">
<time>2016-10-07T04:41:06Z</time></trkpt>
<trkpt lat="25.330411" lon="100.897118">
<time>2016-10-07T04:41:07Z</time></trkpt>
<trkpt lat="25.330491" lon="100.896869">
<time>2016-10-07T04:41:08Z</time></trkpt>
<trkpt lat="25.330561" lon="100.896619">
<time>2016-10-07T04:41:09Z</time></trkpt>
<trkpt lat="25.330641" lon="100.896369">
<time>2016-10-07T04:41:10Z</time></trkpt>
<trkpt lat="25.330721" lon="100.896119">
<time>2016-10-07T04:41:11Z</time></trkpt>
<trkpt lat="25.330791" lon="100.895899">
<time>2016-10-07T04:41:12Z</time></trkpt>
<trkpt lat="25.330861" lon="100.895639">
<time>2016-10-07T04:41:13Z</time></trkpt>
<trkpt lat="25.330871" lon="100.895399">
<time>2016-10-07T04:41:14Z</time></trkpt>
<trkpt lat="25.330861" lon="100.895169">
<time>2016-10-07T04:41:15Z</time></trkpt>
<trkpt lat="25.330851" lon="100.894949">
<time>2016-10-07T04:41:16Z</time></trkpt>
<trkpt lat="25.330861" lon="100.894759">
<time>2016-10-07T04:41:17Z</time></trkpt>
<trkpt lat="25.330891" lon="100.894579">
<time>2016-10-07T04:41:18Z</time></trkpt>
<trkpt lat="25.330981" lon="100.894429">
<time>2016-10-07T04:41:19Z</time></trkpt>
<trkpt lat="25.331121" lon="100.894319">
<time>2016-10-07T04:41:20Z</time></trkpt>
<trkpt lat="25.331271" lon="100.894259">
<time>2016-10-07T04:41:21Z</time></trkpt>
<trkpt lat="25.331441" lon="100.894269">
<time>2016-10-07T04:41:22Z</time></trkpt>
<trkpt lat="25.331611" lon="100.894289">
<time>2016-10-07T04:41:23Z</time></trkpt>
<trkpt lat="25.331821" lon="100.894369">
<time>2016-10-07T04:41:24Z</time></trkpt>
<trkpt lat="25.331971" lon="100.894369">
<time>2016-10-07T04:41:25Z</time></trkpt>
<trkpt lat="25.332131" lon="100.894339">
<time>2016-10-07T04:41:26Z</time></trkpt>
<trkpt lat="25.332291" lon="100.894259">
<time>2016-10-07T04:41:27Z</time></trkpt>
<trkpt lat="25.332401" lon="100.894079">
<time>2016-10-07T04:41:28Z</time></trkpt>
<trkpt lat="25.332521" lon="100.893919">
<time>2016-10-07T04:41:29Z</time></trkpt>
<trkpt lat="25.332621" lon="100.893719">
<time>2016-10-07T04:41:30Z</time></trkpt>
<trkpt lat="25.332741" lon="100.89355">
<time>2016-10-07T04:41:31Z</time></trkpt>
<trkpt lat="25.33287" lon="100.89337">
<time>2016-10-07T04:41:32Z</time></trkpt>
<trkpt lat="25.333" lon="100.89317">
<time>2016-10-07T04:41:33Z</time></trkpt>
<trkpt lat="25.33312" lon="100.89299">
<time>2016-10-07T04:41:34Z</time></trkpt>
<trkpt lat="25.3332" lon="100.8928">
<time>2016-10-07T04:41:35Z</time></trkpt>
<trkpt lat="25.33326" lon="100.8926">
<time>2016-10-07T04:41:36Z</time></trkpt>
<trkpt lat="25.33335" lon="100.89234">
<time>2016-10-07T04:41:37Z</time></trkpt>
<trkpt lat="25.33342" lon="100.89218">
<time>2016-10-07T04:41:38Z</time></trkpt>
<trkpt lat="25.33353" lon="100.89201">
<time>2016-10-07T04:41:39Z</time></trkpt>
<trkpt lat="25.33367" lon="100.8919">
<time>2016-10-07T04:41:40Z</time></trkpt>
<trkpt lat="25.33386" lon="100.89187">
<time>2016-10-07T04:41:41Z</time></trkpt>
<trkpt lat="25.33403" lon="100.89187">
<time>2016-10-07T04:41:42Z</time></trkpt>
<trkpt lat="25.33422" lon="100.89186">
<time>2016-10-07T04:41:43Z</time></trkpt>
<trkpt lat="25.33441" lon="100.89181">
<time>2016-10-07T04:41:44Z</time></trkpt>
<trkpt lat="25.33457" lon="100.89174">
<time>2016-10-07T04:41:45Z</time></trkpt>
<trkpt lat="25.33472" lon="100.89165">
<time>2016-10-07T04:41:46Z</time></trkpt>
<trkpt lat="25.33485" lon="100.89156">
<time>2016-10-07T04:41:47Z</time></trkpt>
<trkpt lat="25.33497" lon="100.89145">
<time>2016-10-07T04:41:48Z</time></trkpt>
<trkpt lat="25.3351" lon="100.89134">
<time>2016-10-07T04:41:49Z</time></trkpt>
<trkpt lat="25.33524" lon="100.89124">
<time>2016-10-07T04:41:50Z</time></trkpt>
<trkpt lat="25.33538" lon="100.89112">
<time>2016-10-07T04:41:51Z</time></trkpt>
<trkpt lat="25.33553" lon="100.89101">
<time>2016-10-07T04:41:52Z</time></trkpt>
<trkpt lat="25.33568" lon="100.89089">
<time>2016-10-07T04:41:53Z</time></trkpt>
<trkpt lat="25.33583" lon="100.89077">
<time>2016-10-07T04:41:54Z</time></trkpt>
<trkpt lat="25.33598" lon="100.89066">
<time>2016-10-07T04:41:55Z</time></trkpt>
<trkpt lat="25.33616" lon="100.89057">
<time>2016-10-07T04:41:56Z</time></trkpt>
<trkpt lat="25.33634" lon="100.89051">
<time>2016-10-07T04:41:57Z</time></trkpt>
<trkpt lat="25.33651" lon="100.89043">
<time>2016-10-07T04:41:58Z</time></trkpt>
<trkpt lat="25.33664" lon="100.8903">
<time>2016-10-07T04:41:59Z</time></trkpt>
<trkpt lat="25.33675" lon="100.89015">
<time>2016-10-07T04:42:00Z</time></trkpt>
<trkpt lat="25.3369" lon="100.89001">
<time>2016-10-07T04:42:01Z</time></trkpt>
<trkpt lat="25.33707" lon="100.88995">
<time>2016-10-07T04:42:02Z</time></trkpt>
<trkpt lat="25.33725" lon="100.88992">
<time>2016-10-07T04:42:03Z</time></trkpt>
<trkpt lat="25.33741" lon="100.88986">
<time>2016-10-07T04:42:04Z</time></trkpt>
<trkpt lat="25.33752" lon="100.88975">
<time>2016-10-07T04:42:05Z</time></trkpt>
<trkpt lat="25.33763" lon="100.88957">
<time>2016-10-07T04:42:06Z</time></trkpt>
<trkpt lat="25.337669" lon="100.88937">
<time>2016-10-07T04:42:07Z</time></trkpt>
<trkpt lat="25.337709" lon="100.88915">
<time>2016-10-07T04:42:08Z</time></trkpt>
<trkpt lat="25.337729" lon="100.88891">
<time>2016-10-07T04:42:09Z</time></trkpt>
<trkpt lat="25.337719" lon="100.88868">
<time>2016-10-07T04:42:10Z</time></trkpt>
<trkpt lat="25.337699" lon="100.88839">
<time>2016-10-07T04:42:11Z</time></trkpt>
<trkpt lat="25.337669" lon="100.88813">
<time>2016-10-07T04:42:12Z</time></trkpt>
<trkpt lat="25.337639" lon="100.88787">
<time>2016-10-07T04:42:13Z</time></trkpt>
<trkpt lat="25.337609" lon="100.88761">
<time>2016-10-07T04:42:14Z</time></trkpt>
<trkpt lat="25.337578" lon="100.88739">
<time>2016-10-07T04:42:15Z</time></trkpt>
<trkpt lat="25.337608" lon="100.88721">
<time>2016-10-07T04:42:16Z</time></trkpt>
<trkpt lat="25.337718" lon="100.88708">
<time>2016-10-07T04:42:17Z</time></trkpt>
<trkpt lat="25.337888" lon="100.88705">
<time>2016-10-07T04:42:18Z</time></trkpt>
<trkpt lat="25.338018" lon="100.88711">
<time>2016-10-07T04:42:19Z</time></trkpt>
<trkpt lat="25.338138" lon="100.88721">
<time>2016-10-07T04:42:20Z</time></trkpt>
<trkpt lat="25.338258" lon="100.88732">
<time>2016-10-07T04:42:21Z</time></trkpt>
<trkpt lat="25.338389" lon="100.88745">
<time>2016-10-07T04:42:22Z</time></trkpt>
<trkpt lat="25.338529" lon="100.88759">
<time>2016-10-07T04:42:23Z</time></trkpt>
<trkpt lat="25.338679" lon="100.88774">
<time>2016-10-07T04:42:24Z</time></trkpt>
<trkpt lat="25.338839" lon="100.8879">
<time>2016-10-07T04:42:25Z</time></trkpt>
<trkpt lat="25.338999" lon="100.88805">
<time>2016-10-07T04:42:26Z</time></trkpt>
<trkpt lat="25.339169" lon="100.88817">
<time>2016-10-07T04:42:27Z</time></trkpt>
<trkpt lat="25.339349" lon="100.88825">
<time>2016-10-07T04:42:28Z</time></trkpt>
<trkpt lat="25.339539" lon="100.8883">
<time>2016-10-07T04:42:29Z</time></trkpt>
<trkpt lat="25.339649" lon="100.88829">
<time>2016-10-07T04:42:30Z</time></trkpt>
<trkpt lat="25.339759" lon="100.88822">
<time>2016-10-07T04:42:31Z</time></trkpt>
<trkpt lat="25.339859" lon="100.88809">
<time>2016-10-07T04:42:32Z</time></trkpt>
<trkpt lat="25.340009" lon="100.88793">
<time>2016-10-07T04:42:33Z</time></trkpt>
<trkpt lat="25.340109" lon="100.88784">
<time>2016-10-07T04:42:34Z</time></trkpt>
<trkpt lat="25.340119" lon="100.88783">
<time>2016-10-07T04:42:35Z</time></trkpt>
<trkpt lat="25.340299" lon="100.88764">
<time>2016-10-07T04:42:36Z</time></trkpt>
<trkpt lat="25.340429" lon="100.88754">
<time>2016-10-07T04:42:37Z</time></trkpt>
<trkpt lat="25.340509" lon="100.88751">
<time>2016-10-07T04:42:38Z</time></trkpt>
<trkpt lat="25.340589" lon="100.88751">
<time>2016-10-07T04:42:39Z</time></trkpt>
<trkpt lat="25.340719" lon="100.88758">
<time>2016-10-07T04:42:40Z</time></trkpt>
<trkpt lat="25.340839" lon="100.88769">
<time>2016-10-07T04:42:41Z</time></trkpt>
<trkpt lat="25.340959" lon="100.88778">
<time>2016-10-07T04:42:42Z</time></trkpt>
<trkpt lat="25.341089" lon="100.88784">
<time>2016-10-07T04:42:43Z</time></trkpt>
<trkpt lat="25.341219" lon="100.88783">
<time>2016-10-07T04:42:44Z</time></trkpt>
<trkpt lat="25.341339" lon="100.88774">
<time>2016-10-07T04:42:45Z</time></trkpt>
<trkpt lat="25.341429" lon="100.8876">
<time>2016-10-07T04:42:46Z</time></trkpt>
<trkpt lat="25.341509" lon="100.88742">
<time>2016-10-07T04:42:47Z</time></trkpt>
<trkpt lat="25.341609" lon="100.88726">
<time>2016-10-07T04:42:48Z</time></trkpt>
<trkpt lat="25.341679" lon="100.88706">
<time>2016-10-07T04:42:49Z</time></trkpt>
<trkpt lat="25.341709" lon="100.88682">
<time>2016-10-07T04:42:50Z</time></trkpt>
<trkpt lat="25.341688" lon="100.88658">
<time>2016-10-07T04:42:51Z</time></trkpt>
<trkpt lat="25.341648" lon="100.88632">
<time>2016-10-07T04:42:52Z</time></trkpt>
<trkpt lat="25.341598" lon="100.88606">
<time>2016-10-07T04:42:53Z</time></trkpt>
<trkpt lat="25.341588" lon="100.88582">
<time>2016-10-07T04:42:54Z</time></trkpt>
<trkpt lat="25.341628" lon="100.88559">
<time>2016-10-07T04:42:55Z</time></trkpt>
<trkpt lat="25.341718" lon="100.88541">
<time>2016-10-07T04:42:56Z</time></trkpt>
<trkpt lat="25.341748" lon="100.8852">
<time>2016-10-07T04:42:57Z</time></trkpt>
<trkpt lat="25.341737" lon="100.885">
<time>2016-10-07T04:42:58Z</time></trkpt>
<trkpt lat="25.341697" lon="100.88478">
<time>2016-10-07T04:42:59Z</time></trkpt>
<trkpt lat="25.341647" lon="100.88454">
<time>2016-10-07T04:43:00Z</time></trkpt>
<trkpt lat="25.341607" lon="100.88428">
<time>2016-10-07T04:43:01Z</time></trkpt>
<trkpt lat="25.341577" lon="100.884009">
<time>2016-10-07T04:43:02Z</time></trkpt>
<trkpt lat="25.341577" lon="100.883749">
<time>2016-10-07T04:43:03Z</time></trkpt>
<trkpt lat="25.341616" lon="100.883469">
<time>2016-10-07T04:43:04Z</time></trkpt>
<trkpt lat="25.341646" lon="100.883199">
<time>2016-10-07T04:43:05Z</time></trkpt>
<trkpt lat="25.341656" lon="100.882939">
<time>2016-10-07T04:43:06Z</time></trkpt>
<trkpt lat="25.341696" lon="100.882689">
<time>2016-10-07T04:43:07Z</time></trkpt>
<trkpt lat="25.341826" lon="100.882459">
<time>2016-10-07T04:43:08Z</time></trkpt>
<trkpt lat="25.342026" lon="100.882269">
<time>2016-10-07T04:43:09Z</time></trkpt>
<trkpt lat="25.342245" lon="100.882079">
<time>2016-10-07T04:43:10Z</time></trkpt>
<trkpt lat="25.342465" lon="100.881899">
<time>2016-10-07T04:43:11Z</time></trkpt>
<trkpt lat="25.342655" lon="100.881729">
<time>2016-10-07T04:43:12Z</time></trkpt>
<trkpt lat="25.342805" lon="100.881559">
<time>2016-10-07T04:43:13Z</time></trkpt>
<trkpt lat="25.342865" lon="100.881359">
<time>2016-10-07T04:43:14Z</time></trkpt>
<trkpt lat="25.342865" lon="100.881139">
<time>2016-10-07T04:43:15Z</time></trkpt>
<trkpt lat="25.342835" lon="100.880889">
<time>2016-10-07T04:43:16Z</time></trkpt>
<trkpt lat="25.342784" lon="100.880659">
<time>2016-10-07T04:43:17Z</time></trkpt>
<trkpt lat="25.342784" lon="100.880409">
<time>2016-10-07T04:43:18Z</time></trkpt>
<trkpt lat="25.342864" lon="100.880158">
<time>2016-10-07T04:43:19Z</time></trkpt>
<trkpt lat="25.342994" lon="100.879948">
<time>2016-10-07T04:43:20Z</time></trkpt>
<trkpt lat="25.343174" lon="100.879738">
<time>2016-10-07T04:43:21Z</time></trkpt>
<trkpt lat="25.343364" lon="100.879568">
<time>2016-10-07T04:43:22Z</time></trkpt>
<trkpt lat="25.343563" lon="100.879408">
<time>2016-10-07T04:43:23Z</time></trkpt>
<trkpt lat="25.343783" lon="100.879258">
<time>2016-10-07T04:43:24Z</time></trkpt>
<trkpt lat="25.344003" lon="100.879118">
<time>2016-10-07T04:43:25Z</time></trkpt>
<trkpt lat="25.344223" lon="100.878988">
<time>2016-10-07T04:43:26Z</time></trkpt>
<trkpt lat="25.344443" lon="100.878868">
<time>2016-10-07T04:43:27Z</time></trkpt>
<trkpt lat="25.344643" lon="100.878688">
<time>2016-10-07T04:43:28Z</time></trkpt>
<trkpt lat="25.344763" lon="100.878598">
<time>2016-10-07T04:43:29Z</time></trkpt>
<trkpt lat="25.344883" lon="100.878478">
<time>2016-10-07T04:43:30Z</time></trkpt>
<trkpt lat="25.344993" lon="100.878318">
<time>2016-10-07T04:43:31Z</time></trkpt>
<trkpt lat="25.345052" lon="100.878128">
<time>2016-10-07T04:43:32Z</time></trkpt>
<trkpt lat="25.345052" lon="100.877957">
<time>2016-10-07T04:43:33Z</time></trkpt>
<trkpt lat="25.345002" lon="100.877777">
<time>2016-10-07T04:43:34Z</time></trkpt>
<trkpt lat="25.344872" lon="100.877667">
<time>2016-10-07T04:43:35Z</time></trkpt>
<trkpt lat="25.344702" lon="100.877587">
<time>2016-10-07T04:43:36Z</time></trkpt>
<trkpt lat="25.344542" lon="100.877557">
<time>2016-10-07T04:43:37Z</time></trkpt>
<trkpt lat="25.344342" lon="100.877517">
<time>2016-10-07T04:43:38Z</time></trkpt>
<trkpt lat="25.344152" lon="100.877477">
<time>2016-10-07T04:43:39Z</time></trkpt>
<trkpt lat="25.343962" lon="100.877407">
<time>2016-10-07T04:43:40Z</time></trkpt>
<trkpt lat="25.343801" lon="100.877267">
<time>2016-10-07T04:43:41Z</time></trkpt>
<trkpt lat="25.343721" lon="100.877067">
<time>2016-10-07T04:43:42Z</time></trkpt>
<trkpt lat="25.343701" lon="100.876867">
<time>2016-10-07T04:43:43Z</time></trkpt>
<trkpt lat="25.343701" lon="100.876727">
<time>2016-10-07T04:43:44Z</time></trkpt>
<trkpt lat="25.343731" lon="100.876527">
<time>2016-10-07T04:43:45Z</time></trkpt>
<trkpt lat="25.343781" lon="100.876357">
<time>2016-10-07T04:43:46Z</time></trkpt>
<trkpt lat="25.34384" lon="100.876197">
<time>2016-10-07T04:43:47Z</time></trkpt>
<trkpt lat="25.34394" lon="100.876057">
<time>2016-10-07T04:43:48Z</time></trkpt>
<trkpt lat="25.34407" lon="100.875937">
<time>2016-10-07T04:43:49Z</time></trkpt>
<trkpt lat="25.34421" lon="100.875867">
<time>2016-10-07T04:43:50Z</time></trkpt>
<trkpt lat="25.34435" lon="100.875776">
<time>2016-10-07T04:43:51Z</time></trkpt>
<trkpt lat="25.34448" lon="100.875706">
<time>2016-10-07T04:43:52Z</time></trkpt>
<trkpt lat="25.34461" lon="100.875626">
<time>2016-10-07T04:43:53Z</time></trkpt>
<trkpt lat="25.34493" lon="100.875506">
<time>2016-10-07T04:43:54Z</time></trkpt>
<trkpt lat="25.34511" lon="100.875426">
<time>2016-10-07T04:43:55Z</time></trkpt>
<trkpt lat="25.34528" lon="100.875326">
<time>2016-10-07T04:43:56Z</time></trkpt>
<trkpt lat="25.34547" lon="100.875186">
<time>2016-10-07T04:43:57Z</time></trkpt>
<trkpt lat="25.34568" lon="100.875016">
<time>2016-10-07T04:43:58Z</time></trkpt>
<trkpt lat="25.345849" lon="100.874906">
<time>2016-10-07T04:43:59Z</time></trkpt>
<trkpt lat="25.346039" lon="100.874796">
<time>2016-10-07T04:44:00Z</time></trkpt>
<trkpt lat="25.346239" lon="100.874686">
<time>2016-10-07T04:44:01Z</time></trkpt>
<trkpt lat="25.346439" lon="100.874566">
<time>2016-10-07T04:44:02Z</time></trkpt>
<trkpt lat="25.346639" lon="100.874456">
<time>2016-10-07T04:44:03Z</time></trkpt>
<trkpt lat="25.346839" lon="100.874336">
<time>2016-10-07T04:44:04Z</time></trkpt>
<trkpt lat="25.347039" lon="100.874216">
<time>2016-10-07T04:44:05Z</time></trkpt>
<trkpt lat="25.347229" lon="100.874105">
<time>2016-10-07T04:44:06Z</time></trkpt>
<trkpt lat="25.347429" lon="100.874035">
<time>2016-10-07T04:44:07Z</time></trkpt>
<trkpt lat="25.347649" lon="100.874015">
<time>2016-10-07T04:44:08Z</time></trkpt>
<trkpt lat="25.347879" lon="100.874045">
<time>2016-10-07T04:44:09Z</time></trkpt>
<trkpt lat="25.348119" lon="100.874075">
<time>2016-10-07T04:44:10Z</time></trkpt>
<trkpt lat="25.348369" lon="100.874085">
<time>2016-10-07T04:44:11Z</time></trkpt>
<trkpt lat="25.348619" lon="100.874095">
<time>2016-10-07T04:44:12Z</time></trkpt>
<trkpt lat="25.348859" lon="100.874115">
<time>2016-10-07T04:44:13Z</time></trkpt>
<trkpt lat="25.349099" lon="100.874135">
<time>2016-10-07T04:44:14Z</time></trkpt>
<trkpt lat="25.349329" lon="100.874145">
<time>2016-10-07T04:44:15Z</time></trkpt>
<trkpt lat="25.349539" lon="100.874155">
<time>2016-10-07T04:44:16Z</time></trkpt>
<trkpt lat="25.349729" lon="100.874105">
<time>2016-10-07T04:44:17Z</time></trkpt>
<trkpt lat="25.349859" lon="100.873965">
<time>2016-10-07T04:44:18Z</time></trkpt>
<trkpt lat="25.349969" lon="100.873785">
<time>2016-10-07T04:44:19Z</time></trkpt>
<trkpt lat="25.350059" lon="100.873625">
<time>2016-10-07T04:44:20Z</time></trkpt>
<trkpt lat="25.350148" lon="100.873445">
<time>2016-10-07T04:44:21Z</time></trkpt>
<trkpt lat="25.350238" lon="100.873285">
<time>2016-10-07T04:44:22Z</time></trkpt>
<trkpt lat="25.350328" lon="100.873125">
<time>2016-10-07T04:44:23Z</time></trkpt>
<trkpt lat="25.350418" lon="100.872975">
<time>2016-10-07T04:44:24Z</time></trkpt>
<trkpt lat="25.350518" lon="100.872825">
<time>2016-10-07T04:44:25Z</time></trkpt>
<trkpt lat="25.350628" lon="100.872674">
<time>2016-10-07T04:44:26Z</time></trkpt>
<trkpt lat="25.350748" lon="100.872534">
<time>2016-10-07T04:44:27Z</time></trkpt>
<trkpt lat="25.350887" lon="100.872404">
<time>2016-10-07T04:44:28Z</time></trkpt>
<trkpt lat="25.351047" lon="100.872254">
<time>2016-10-07T04:44:29Z</time></trkpt>
<trkpt lat="25.351207" lon="100.872104">
<time>2016-10-07T04:44:30Z</time></trkpt>
<trkpt lat="25.351387" lon="100.871954">
<time>2016-10-07T04:44:31Z</time></trkpt>
<trkpt lat="25.351577" lon="100.871794">
<time>2016-10-07T04:44:32Z</time></trkpt>
<trkpt lat="25.351767" lon="100.871634">
<time>2016-10-07T04:44:33Z</time></trkpt>
<trkpt lat="25.351987" lon="100.871494">
<time>2016-10-07T04:44:34Z</time></trkpt>
<trkpt lat="25.352216" lon="100.871384">
<time>2016-10-07T04:44:35Z</time></trkpt>
<trkpt lat="25.352446" lon="100.871254">
<time>2016-10-07T04:44:36Z</time></trkpt>
<trkpt lat="25.352666" lon="100.871093">
<time>2016-10-07T04:44:37Z</time></trkpt>
<trkpt lat="25.352876" lon="100.870923">
<time>2016-10-07T04:44:38Z</time></trkpt>
<trkpt lat="25.353086" lon="100.870803">
<time>2016-10-07T04:44:39Z</time></trkpt>
<trkpt lat="25.353316" lon="100.870803">
<time>2016-10-07T04:44:40Z</time></trkpt>
<trkpt lat="25.353476" lon="100.870903">
<time>2016-10-07T04:44:41Z</time></trkpt>
<trkpt lat="25.353566" lon="100.871013">
<time>2016-10-07T04:44:42Z</time></trkpt>
<trkpt lat="25.353686" lon="100.871193">
<time>2016-10-07T04:44:43Z</time></trkpt>
<trkpt lat="25.353787" lon="100.871283">
<time>2016-10-07T04:44:44Z</time></trkpt>
<trkpt lat="25.353847" lon="100.871314">
<time>2016-10-07T04:44:45Z</time></trkpt>
<trkpt lat="25.353897" lon="100.871314">
<time>2016-10-07T04:44:46Z</time></trkpt>
<trkpt lat="25.353977" lon="100.871304">
<time>2016-10-07T04:44:47Z</time></trkpt>
<trkpt lat="25.354017" lon="100.871293">
<time>2016-10-07T04:44:48Z</time></trkpt>
<trkpt lat="25.354086" lon="100.871233">
<time>2016-10-07T04:44:49Z</time></trkpt>
<trkpt lat="25.354146" lon="100.871183">
<time>2016-10-07T04:44:50Z</time></trkpt>
<trkpt lat="25.354266" lon="100.871063">
<time>2016-10-07T04:44:51Z</time></trkpt>
<trkpt lat="25.354396" lon="100.870953">
<time>2016-10-07T04:44:52Z</time></trkpt>
<trkpt lat="25.354536" lon="100.870883">
<time>2016-10-07T04:44:53Z</time></trkpt>
<trkpt lat="25.354676" lon="100.870833">
<time>2016-10-07T04:44:54Z</time></trkpt>
<trkpt lat="25.354826" lon="100.870803">
<time>2016-10-07T04:44:55Z</time></trkpt>
<trkpt lat="25.354976" lon="100.870803">
<time>2016-10-07T04:44:56Z</time></trkpt>
<trkpt lat="25.355126" lon="100.870823">
<time>2016-10-07T04:44:57Z</time></trkpt>
<trkpt lat="25.355336" lon="100.870903">
<time>2016-10-07T04:44:58Z</time></trkpt>
<trkpt lat="25.355486" lon="100.871043">
<time>2016-10-07T04:44:59Z</time></trkpt>
<trkpt lat="25.355637" lon="100.871183">
<time>2016-10-07T04:45:00Z</time></trkpt>
<trkpt lat="25.355787" lon="100.871343">
<time>2016-10-07T04:45:01Z</time></trkpt>
<trkpt lat="25.355957" lon="100.871484">
<time>2016-10-07T04:45:02Z</time></trkpt>
<trkpt lat="25.356117" lon="100.871634">
<time>2016-10-07T04:45:03Z</time></trkpt>
<trkpt lat="25.356277" lon="100.871794">
<time>2016-10-07T04:45:04Z</time></trkpt>
<trkpt lat="25.356428" lon="100.871934">
<time>2016-10-07T04:45:05Z</time></trkpt>
<trkpt lat="25.356598" lon="100.871994">
<time>2016-10-07T04:45:06Z</time></trkpt>
<trkpt lat="25.356758" lon="100.871924">
<time>2016-10-07T04:45:07Z</time></trkpt>
<trkpt lat="25.356867" lon="100.871764">
<time>2016-10-07T04:45:08Z</time></trkpt>
<trkpt lat="25.356947" lon="100.871604">
<time>2016-10-07T04:45:09Z</time></trkpt>
<trkpt lat="25.357027" lon="100.871424">
<time>2016-10-07T04:45:10Z</time></trkpt>
<trkpt lat="25.357107" lon="100.871243">
<time>2016-10-07T04:45:11Z</time></trkpt>
<trkpt lat="25.357187" lon="100.871053">
<time>2016-10-07T04:45:12Z</time></trkpt>
<trkpt lat="25.357277" lon="100.870863">
<time>2016-10-07T04:45:13Z</time></trkpt>
<trkpt lat="25.357416" lon="100.870703">
<time>2016-10-07T04:45:14Z</time></trkpt>
<trkpt lat="25.357576" lon="100.870553">
<time>2016-10-07T04:45:15Z</time></trkpt>
<trkpt lat="25.357746" lon="100.870393">
<time>2016-10-07T04:45:16Z</time></trkpt>
<trkpt lat="25.357916" lon="100.870233">
<time>2016-10-07T04:45:17Z</time></trkpt>
<trkpt lat="25.358086" lon="100.870073">
<time>2016-10-07T04:45:18Z</time></trkpt>
<trkpt lat="25.358276" lon="100.869932">
<time>2016-10-07T04:45:19Z</time></trkpt>
<trkpt lat="25.358485" lon="100.869812">
<time>2016-10-07T04:45:20Z</time></trkpt>
<trkpt lat="25.358685" lon="100.869682">
<time>2016-10-07T04:45:21Z</time></trkpt>
<trkpt lat="25.358875" lon="100.869562">
<time>2016-10-07T04:45:22Z</time></trkpt>
<trkpt lat="25.359075" lon="100.869442">
<time>2016-10-07T04:45:23Z</time></trkpt>
<trkpt lat="25.359275" lon="100.869362">
<time>2016-10-07T04:45:24Z</time></trkpt>
<trkpt lat="25.359485" lon="100.869322">
<time>2016-10-07T04:45:25Z</time></trkpt>
<trkpt lat="25.359715" lon="100.869322">
<time>2016-10-07T04:45:26Z</time></trkpt>
<trkpt lat="25.359925" lon="100.869322">
<time>2016-10-07T04:45:27Z</time></trkpt>
<trkpt lat="25.360125" lon="100.869272">
<time>2016-10-07T04:45:28Z</time></trkpt>
<trkpt lat="25.360265" lon="100.869132">
<time>2016-10-07T04:45:29Z</time></trkpt>
<trkpt lat="25.360325" lon="100.868942">
<time>2016-10-07T04:45:30Z</time></trkpt>
<trkpt lat="25.360334" lon="100.868731">
<time>2016-10-07T04:45:31Z</time></trkpt>
<trkpt lat="25.360364" lon="100.868521">
<time>2016-10-07T04:45:32Z</time></trkpt>
<trkpt lat="25.360424" lon="100.868331">
<time>2016-10-07T04:45:33Z</time></trkpt>
<trkpt lat="25.360504" lon="100.868141">
<time>2016-10-07T04:45:34Z</time></trkpt>
<trkpt lat="25.360593" lon="100.867951">
<time>2016-10-07T04:45:35Z</time></trkpt>
<trkpt lat="25.360683" lon="100.867751">
<time>2016-10-07T04:45:36Z</time></trkpt>
<trkpt lat="25.360753" lon="100.86753">
<time>2016-10-07T04:45:37Z</time></trkpt>
<trkpt lat="25.360833" lon="100.86736">
<time>2016-10-07T04:45:38Z</time></trkpt>
<trkpt lat="25.360942" lon="100.86712">
<time>2016-10-07T04:45:39Z</time></trkpt>
<trkpt lat="25.361042" lon="100.86691">
<time>2016-10-07T04:45:40Z</time></trkpt>
<trkpt lat="25.361152" lon="100.86669">
<time>2016-10-07T04:45:41Z</time></trkpt>
<trkpt lat="25.361252" lon="100.86647">
<time>2016-10-07T04:45:42Z</time></trkpt>
<trkpt lat="25.361361" lon="100.866249">
<time>2016-10-07T04:45:43Z</time></trkpt>
<trkpt lat="25.361441" lon="100.865999">
<time>2016-10-07T04:45:44Z</time></trkpt>
<trkpt lat="25.361491" lon="100.865809">
<time>2016-10-07T04:45:45Z</time></trkpt>
<trkpt lat="25.361501" lon="100.865739">
<time>2016-10-07T04:45:46Z</time></trkpt>
<trkpt lat="25.36153" lon="100.865469">
<time>2016-10-07T04:45:47Z</time></trkpt>
<trkpt lat="25.36154" lon="100.865188">
<time>2016-10-07T04:45:48Z</time></trkpt>
<trkpt lat="25.36157" lon="100.864898">
<time>2016-10-07T04:45:49Z</time></trkpt>
<trkpt lat="25.361579" lon="100.864608">
<time>2016-10-07T04:45:50Z</time></trkpt>
<trkpt lat="25.361599" lon="100.864308">
<time>2016-10-07T04:45:51Z</time></trkpt>
<trkpt lat="25.361609" lon="100.864067">
<time>2016-10-07T04:45:52Z</time></trkpt>
<trkpt lat="25.361648" lon="100.863837">
<time>2016-10-07T04:45:53Z</time></trkpt>
<trkpt lat="25.361648" lon="100.863617">
<time>2016-10-07T04:45:54Z</time></trkpt>
<trkpt lat="25.361618" lon="100.863387">
<time>2016-10-07T04:45:55Z</time></trkpt>
<trkpt lat="25.361627" lon="100.863127">
<time>2016-10-07T04:45:56Z</time></trkpt>
<trkpt lat="25.361637" lon="100.862856">
<time>2016-10-07T04:45:57Z</time></trkpt>
<trkpt lat="25.361666" lon="100.862556">
<time>2016-10-07T04:45:58Z</time></trkpt>
<trkpt lat="25.361706" lon="100.862276">
<time>2016-10-07T04:45:59Z</time></trkpt>
<trkpt lat="25.361726" lon="100.862005">
<time>2016-10-07T04:46:00Z</time></trkpt>
<trkpt lat="25.361726" lon="100.861945">
<time>2016-10-07T04:46:01Z</time></trkpt>
<trkpt lat="25.361795" lon="100.861625">
<time>2016-10-07T04:46:02Z</time></trkpt>
<trkpt lat="25.361815" lon="100.861315">
<time>2016-10-07T04:46:03Z</time></trkpt>
<trkpt lat="25.361824" lon="100.861034">
<time>2016-10-07T04:46:04Z</time></trkpt>
<trkpt lat="25.361854" lon="100.860774">
<time>2016-10-07T04:46:05Z</time></trkpt>
<trkpt lat="25.361874" lon="100.860524">
<time>2016-10-07T04:46:06Z</time></trkpt>
<trkpt lat="25.361893" lon="100.860264">
<time>2016-10-07T04:46:07Z</time></trkpt>
<trkpt lat="25.361913" lon="100.860003">
<time>2016-10-07T04:46:08Z</time></trkpt>
<trkpt lat="25.361922" lon="100.859743">
<time>2016-10-07T04:46:09Z</time></trkpt>
<trkpt lat="25.361932" lon="100.859483">
<time>2016-10-07T04:46:10Z</time></trkpt>
<trkpt lat="25.361952" lon="100.859233">
<time>2016-10-07T04:46:11Z</time></trkpt>
<trkpt lat="25.361961" lon="100.858972">
<time>2016-10-07T04:46:12Z</time></trkpt>
<trkpt lat="25.361981" lon="100.858722">
<time>2016-10-07T04:46:13Z</time></trkpt>
<trkpt lat="25.361991" lon="100.858462">
<time>2016-10-07T04:46:14Z</time></trkpt>
<trkpt lat="25.362" lon="100.858211">
<time>2016-10-07T04:46:15Z</time></trkpt>
<trkpt lat="25.36204" lon="100.857941">
<time>2016-10-07T04:46:16Z</time></trkpt>
<trkpt lat="25.362079" lon="100.857681">
<time>2016-10-07T04:46:17Z</time></trkpt>
<trkpt lat="25.362129" lon="100.857451">
<time>2016-10-07T04:46:18Z</time></trkpt>
<trkpt lat="25.362209" lon="100.8572">
<time>2016-10-07T04:46:19Z</time></trkpt>
<trkpt lat="25.362288" lon="100.85695">
<time>2016-10-07T04:46:20Z</time></trkpt>
<trkpt lat="25.362368" lon="100.85672">
<time>2016-10-07T04:46:21Z</time></trkpt>
<trkpt lat="25.362458" lon="100.85649">
<time>2016-10-07T04:46:22Z</time></trkpt>
<trkpt lat="25.362517" lon="100.856319">
<time>2016-10-07T04:46:23Z</time></trkpt>
<trkpt lat="25.362537" lon="100.856259">
<time>2016-10-07T04:46:24Z</time></trkpt>
<trkpt lat="25.362617" lon="100.856029">
<time>2016-10-07T04:46:25Z</time></trkpt>
<trkpt lat="25.362697" lon="100.855809">
<time>2016-10-07T04:46:26Z</time></trkpt>
<trkpt lat="25.362786" lon="100.855599">
<time>2016-10-07T04:46:27Z</time></trkpt>
<trkpt lat="25.362896" lon="100.855378">
<time>2016-10-07T04:46:28Z</time></trkpt>
<trkpt lat="25.363016" lon="100.855178">
<time>2016-10-07T04:46:29Z</time></trkpt>
<trkpt lat="25.363155" lon="100.854978">
<time>2016-10-07T04:46:30Z</time></trkpt>
<trkpt lat="25.363285" lon="100.854768">
<time>2016-10-07T04:46:31Z</time></trkpt>
<trkpt lat="25.363435" lon="100.854567">
<time>2016-10-07T04:46:32Z</time></trkpt>
<trkpt lat="25.363564" lon="100.854397">
<time>2016-10-07T04:46:33Z</time></trkpt>
<trkpt lat="25.363674" lon="100.854237">
<time>2016-10-07T04:46:34Z</time></trkpt>
<trkpt lat="25.363774" lon="100.854087">
<time>2016-10-07T04:46:35Z</time></trkpt>
<trkpt lat="25.363874" lon="100.853947">
<time>2016-10-07T04:46:36Z</time></trkpt>
<trkpt lat="25.363994" lon="100.853836">
<time>2016-10-07T04:46:37Z</time></trkpt>
<trkpt lat="25.364123" lon="100.853726">
<time>2016-10-07T04:46:38Z</time></trkpt>
<trkpt lat="25.364273" lon="100.853646">
<time>2016-10-07T04:46:39Z</time></trkpt>
<trkpt lat="25.364433" lon="100.853586">
<time>2016-10-07T04:46:40Z</time></trkpt>
<trkpt lat="25.364593" lon="100.853536">
<time>2016-10-07T04:46:41Z</time></trkpt>
<trkpt lat="25.364753" lon="100.853486">
<time>2016-10-07T04:46:42Z</time></trkpt>
<trkpt lat="25.364903" lon="100.853416">
<time>2016-10-07T04:46:43Z</time></trkpt>
<trkpt lat="25.365063" lon="100.853356">
<time>2016-10-07T04:46:44Z</time></trkpt>
<trkpt lat="25.365223" lon="100.853276">
<time>2016-10-07T04:46:45Z</time></trkpt>
<trkpt lat="25.365363" lon="100.853196">
<time>2016-10-07T04:46:46Z</time></trkpt>
<trkpt lat="25.365493" lon="100.853125">
<time>2016-10-07T04:46:47Z</time></trkpt>
<trkpt lat="25.365633" lon="100.853055">
<time>2016-10-07T04:46:48Z</time></trkpt>
<trkpt lat="25.365772" lon="100.852965">
<time>2016-10-07T04:46:49Z</time></trkpt>
<trkpt lat="25.365902" lon="100.852875">
<time>2016-10-07T04:46:50Z</time></trkpt>
<trkpt lat="25.366052" lon="100.852815">
<time>2016-10-07T04:46:51Z</time></trkpt>
<trkpt lat="25.366222" lon="100.852775">
<time>2016-10-07T04:46:52Z</time></trkpt>
<trkpt lat="25.366422" lon="100.852755">
<time>2016-10-07T04:46:53Z</time></trkpt>
<trkpt lat="25.366602" lon="100.852715">
<time>2016-10-07T04:46:54Z</time></trkpt>
<trkpt lat="25.366772" lon="100.852655">
<time>2016-10-07T04:46:55Z</time></trkpt>
<trkpt lat="25.366932" lon="100.852575">
<time>2016-10-07T04:46:56Z</time></trkpt>
<trkpt lat="25.367062" lon="100.852465">
<time>2016-10-07T04:46:57Z</time></trkpt>
<trkpt lat="25.367132" lon="100.852314">
<time>2016-10-07T04:46:58Z</time></trkpt>
<trkpt lat="25.367261" lon="100.852194">
<time>2016-10-07T04:46:59Z</time></trkpt>
<trkpt lat="25.367391" lon="100.852104">
<time>2016-10-07T04:47:00Z</time></trkpt>
<trkpt lat="25.367541" lon="100.852034">
<time>2016-10-07T04:47:01Z</time></trkpt>
<trkpt lat="25.367711" lon="100.852004">
<time>2016-10-07T04:47:02Z</time></trkpt>
<trkpt lat="25.367891" lon="100.852024">
<time>2016-10-07T04:47:03Z</time></trkpt>
<trkpt lat="25.368061" lon="100.852044">
<time>2016-10-07T04:47:04Z</time></trkpt>
<trkpt lat="25.368241" lon="100.852044">
<time>2016-10-07T04:47:05Z</time></trkpt>
<trkpt lat="25.368421" lon="100.852024">
<time>2016-10-07T04:47:06Z</time></trkpt>
<trkpt lat="25.368591" lon="100.851974">
<time>2016-10-07T04:47:07Z</time></trkpt>
<trkpt lat="25.368751" lon="100.851894">
<time>2016-10-07T04:47:08Z</time></trkpt>
<trkpt lat="25.368901" lon="100.851804">
<time>2016-10-07T04:47:09Z</time></trkpt>
<trkpt lat="25.369041" lon="100.851694">
<time>2016-10-07T04:47:10Z</time></trkpt>
<trkpt lat="25.369161" lon="100.851553">
<time>2016-10-07T04:47:11Z</time></trkpt>
<trkpt lat="25.36926" lon="100.851393">
<time>2016-10-07T04:47:12Z</time></trkpt>
<trkpt lat="25.36935" lon="100.851203">
<time>2016-10-07T04:47:13Z</time></trkpt>
<trkpt lat="25.36941" lon="100.851013">
<time>2016-10-07T04:47:14Z</time></trkpt>
<trkpt lat="25.36947" lon="100.850843">
<time>2016-10-07T04:47:15Z</time></trkpt>
<trkpt lat="25.369529" lon="100.850672">
<time>2016-10-07T04:47:16Z</time></trkpt>
<trkpt lat="25.369649" lon="100.850392">
<time>2016-10-07T04:47:17Z</time></trkpt>
<trkpt lat="25.369708" lon="100.850192">
<time>2016-10-07T04:47:18Z</time></trkpt>
<trkpt lat="25.369768" lon="100.850001">
<time>2016-10-07T04:47:19Z</time></trkpt>
<trkpt lat="25.369828" lon="100.849831">
<time>2016-10-07T04:47:20Z</time></trkpt>
<trkpt lat="25.369908" lon="100.849671">
<time>2016-10-07T04:47:21Z</time></trkpt>
<trkpt lat="25.370017" lon="100.849541">
<time>2016-10-07T04:47:22Z</time></trkpt>
<trkpt lat="25.370147" lon="100.849441">
<time>2016-10-07T04:47:23Z</time></trkpt>
<trkpt lat="25.370317" lon="100.849401">
<time>2016-10-07T04:47:24Z</time></trkpt>
<trkpt lat="25.370487" lon="100.849401">
<time>2016-10-07T04:47:25Z</time></trkpt>
<trkpt lat="25.370667" lon="100.849411">
<time>2016-10-07T04:47:26Z</time></trkpt>
<trkpt lat="25.370837" lon="100.849431">
<time>2016-10-07T04:47:27Z</time></trkpt>
<trkpt lat="25.370997" lon="100.849431">
<time>2016-10-07T04:47:28Z</time></trkpt>
<trkpt lat="25.371157" lon="100.849421">
<time>2016-10-07T04:47:29Z</time></trkpt>
<trkpt lat="25.371317" lon="100.849381">
<time>2016-10-07T04:47:30Z</time></trkpt>
<trkpt lat="25.371457" lon="100.84929">
<time>2016-10-07T04:47:31Z</time></trkpt>
<trkpt lat="25.371597" lon="100.84917">
<time>2016-10-07T04:47:32Z</time></trkpt>
<trkpt lat="25.371717" lon="100.84901">
<time>2016-10-07T04:47:33Z</time></trkpt>
<trkpt lat="25.371857" lon="100.84884">
<time>2016-10-07T04:47:34Z</time></trkpt>
<trkpt lat="25.372006" lon="100.84867">
<time>2016-10-07T04:47:35Z</time></trkpt>
<trkpt lat="25.372166" lon="100.848519">
<time>2016-10-07T04:47:36Z</time></trkpt>
<trkpt lat="25.372356" lon="100.848399">
<time>2016-10-07T04:47:37Z</time></trkpt>
<trkpt lat="25.372576" lon="100.848329">
<time>2016-10-07T04:47:38Z</time></trkpt>
<trkpt lat="25.372806" lon="100.848299">
<time>2016-10-07T04:47:39Z</time></trkpt>
<trkpt lat="25.373036" lon="100.848289">
<time>2016-10-07T04:47:40Z</time></trkpt>
<trkpt lat="25.373266" lon="100.848269">
<time>2016-10-07T04:47:41Z</time></trkpt>
<trkpt lat="25.373486" lon="100.848299">
<time>2016-10-07T04:47:42Z</time></trkpt>
<trkpt lat="25.373706" lon="100.848399">
<time>2016-10-07T04:47:43Z</time></trkpt>
<trkpt lat="25.373906" lon="100.848549">
<time>2016-10-07T04:47:44Z</time></trkpt>
<trkpt lat="25.374127" lon="100.84871">
<time>2016-10-07T04:47:45Z</time></trkpt>
<trkpt lat="25.374337" lon="100.84887">
<time>2016-10-07T04:47:46Z</time></trkpt>
<trkpt lat="25.374547" lon="100.84902">
<time>2016-10-07T04:47:47Z</time></trkpt>
<trkpt lat="25.374577" lon="100.84903">
<time>2016-10-07T04:47:48Z</time></trkpt>
<trkpt lat="25.374758" lon="100.84916">
<time>2016-10-07T04:47:49Z</time></trkpt>
<trkpt lat="25.374988" lon="100.84924">
<time>2016-10-07T04:47:50Z</time></trkpt>
<trkpt lat="25.375228" lon="100.84926">
<time>2016-10-07T04:47:51Z</time></trkpt>
<trkpt lat="25.375438" lon="100.84927">
<time>2016-10-07T04:47:52Z</time></trkpt>
<trkpt lat="25.375458" lon="100.84927">
<time>2016-10-07T04:47:53Z</time></trkpt>
<trkpt lat="25.375698" lon="100.84925">
<time>2016-10-07T04:47:54Z</time></trkpt>
<trkpt lat="25.375938" lon="100.8492">
<time>2016-10-07T04:47:55Z</time></trkpt>
<trkpt lat="25.376168" lon="100.84908">
<time>2016-10-07T04:47:56Z</time></trkpt>
<trkpt lat="25.376418" lon="100.84899">
<time>2016-10-07T04:47:57Z</time></trkpt>
<trkpt lat="25.376677" lon="100.84881">
<time>2016-10-07T04:47:58Z</time></trkpt>
<trkpt lat="25.376937" lon="100.84865">
<time>2016-10-07T04:47:59Z</time></trkpt>
<trkpt lat="25.377157" lon="100.848479">
<time>2016-10-07T04:48:00Z</time></trkpt>
<trkpt lat="25.377377" lon="100.848299">
<time>2016-10-07T04:48:01Z</time></trkpt>
<trkpt lat="25.377556" lon="100.848159">
<time>2016-10-07T04:48:02Z</time></trkpt>
<trkpt lat="25.377796" lon="100.847989">
<time>2016-10-07T04:48:03Z</time></trkpt>
<trkpt lat="25.378146" lon="100.847848">
<time>2016-10-07T04:48:04Z</time></trkpt>
<trkpt lat="25.378386" lon="100.847728">
<time>2016-10-07T04:48:05Z</time></trkpt>
<trkpt lat="25.378626" lon="100.847648">
<time>2016-10-07T04:48:06Z</time></trkpt>
<trkpt lat="25.378866" lon="100.847588">
<time>2016-10-07T04:48:07Z</time></trkpt>
<trkpt lat="25.379075" lon="100.847538">
<time>2016-10-07T04:48:08Z</time></trkpt>
<trkpt lat="25.379195" lon="100.847518">
<time>2016-10-07T04:48:09Z</time></trkpt>
<trkpt lat="25.379275" lon="100.847488">
<time>2016-10-07T04:48:10Z</time></trkpt>
<trkpt lat="25.379395" lon="100.847438">
<time>2016-10-07T04:48:11Z</time></trkpt>
<trkpt lat="25.379535" lon="100.847388">
<time>2016-10-07T04:48:12Z</time></trkpt>
<trkpt lat="25.379705" lon="100.847328">
<time>2016-10-07T04:48:13Z</time></trkpt>
<trkpt lat="25.379885" lon="100.847268">
<time>2016-10-07T04:48:14Z</time></trkpt>
<trkpt lat="25.380065" lon="100.847208">
<time>2016-10-07T04:48:15Z</time></trkpt>
<trkpt lat="25.380255" lon="100.847087">
<time>2016-10-07T04:48:16Z</time></trkpt>
<trkpt lat="25.380445" lon="100.846977">
<time>2016-10-07T04:48:17Z</time></trkpt>
<trkpt lat="25.380655" lon="100.846877">
<time>2016-10-07T04:48:18Z</time></trkpt>
<trkpt lat="25.380854" lon="100.846767">
<time>2016-10-07T04:48:19Z</time></trkpt>
<trkpt lat="25.381054" lon="100.846597">
<time>2016-10-07T04:48:20Z</time></trkpt>
<trkpt lat="25.381264" lon="100.846416">
<time>2016-10-07T04:48:21Z</time></trkpt>
<trkpt lat="25.381454" lon="100.846286">
<time>2016-10-07T04:48:22Z</time></trkpt>
<trkpt lat="25.381464" lon="100.846276">
<time>2016-10-07T04:48:23Z</time></trkpt>
<trkpt lat="25.381683" lon="100.846106">
<time>2016-10-07T04:48:24Z</time></trkpt>
<trkpt lat="25.381763" lon="100.846026">
<time>2016-10-07T04:48:25Z</time></trkpt>
<trkpt lat="25.381883" lon="100.845926">
<time>2016-10-07T04:48:26Z</time></trkpt>
<trkpt lat="25.382133" lon="100.845756">
<time>2016-10-07T04:48:27Z</time></trkpt>
<trkpt lat="25.382393" lon="100.845535">
<time>2016-10-07T04:48:28Z</time></trkpt>
<trkpt lat="25.382612" lon="100.845375">
<time>2016-10-07T04:48:29Z</time></trkpt>
<trkpt lat="25.382822" lon="100.845225">
<time>2016-10-07T04:48:30Z</time></trkpt>
<trkpt lat="25.383042" lon="100.845075">
<time>2016-10-07T04:48:31Z</time></trkpt>
<trkpt lat="25.383232" lon="100.844954">
<time>2016-10-07T04:48:32Z</time></trkpt>
<trkpt lat="25.383392" lon="100.844864">
<time>2016-10-07T04:48:33Z</time></trkpt>
<trkpt lat="25.383571" lon="100.844754">
<time>2016-10-07T04:48:34Z</time></trkpt>
<trkpt lat="25.383781" lon="100.844714">
<time>2016-10-07T04:48:35Z</time></trkpt>
<trkpt lat="25.383971" lon="100.844724">
<time>2016-10-07T04:48:36Z</time></trkpt>
<trkpt lat="25.384191" lon="100.844734">
<time>2016-10-07T04:48:37Z</time></trkpt>
<trkpt lat="25.384351" lon="100.844704">
<time>2016-10-07T04:48:38Z</time></trkpt>
<trkpt lat="25.384491" lon="100.844634">
<time>2016-10-07T04:48:39Z</time></trkpt>
<trkpt lat="25.384601" lon="100.844514">
<time>2016-10-07T04:48:40Z</time></trkpt>
<trkpt lat="25.384681" lon="100.844354">
<time>2016-10-07T04:48:41Z</time></trkpt>
<trkpt lat="25.384731" lon="100.844183">
<time>2016-10-07T04:48:42Z</time></trkpt>
<trkpt lat="25.38477" lon="100.843993">
<time>2016-10-07T04:48:43Z</time></trkpt>
<trkpt lat="25.38485" lon="100.843783">
<time>2016-10-07T04:48:44Z</time></trkpt>
<trkpt lat="25.38496" lon="100.843643">
<time>2016-10-07T04:48:45Z</time></trkpt>
<trkpt lat="25.385069" lon="100.843472">
<time>2016-10-07T04:48:46Z</time></trkpt>
<trkpt lat="25.385179" lon="100.843322">
<time>2016-10-07T04:48:47Z</time></trkpt>
<trkpt lat="25.385259" lon="100.843162">
<time>2016-10-07T04:48:48Z</time></trkpt>
<trkpt lat="25.385358" lon="100.842881">
<time>2016-10-07T04:48:49Z</time></trkpt>
<trkpt lat="25.385418" lon="100.842681">
<time>2016-10-07T04:48:50Z</time></trkpt>
<trkpt lat="25.385438" lon="100.842561">
<time>2016-10-07T04:48:51Z</time></trkpt>
<trkpt lat="25.385397" lon="100.842391">
<time>2016-10-07T04:48:52Z</time></trkpt>
<trkpt lat="25.385317" lon="100.842271">
<time>2016-10-07T04:48:53Z</time></trkpt>
<trkpt lat="25.385197" lon="100.84217">
<time>2016-10-07T04:48:54Z</time></trkpt>
<trkpt lat="25.385077" lon="100.84204">
<time>2016-10-07T04:48:55Z</time></trkpt>
<trkpt lat="25.385006" lon="100.84186">
<time>2016-10-07T04:48:56Z</time></trkpt>
<trkpt lat="25.384976" lon="100.84163">
<time>2016-10-07T04:48:57Z</time></trkpt>
<trkpt lat="25.384946" lon="100.841419">
<time>2016-10-07T04:48:58Z</time></trkpt>
<trkpt lat="25.384925" lon="100.841209">
<time>2016-10-07T04:48:59Z</time></trkpt>
<trkpt lat="25.384925" lon="100.840999">
<time>2016-10-07T04:49:00Z</time></trkpt>
<trkpt lat="25.384954" lon="100.840748">
<time>2016-10-07T04:49:01Z</time></trkpt>
<trkpt lat="25.385004" lon="100.840498">
<time>2016-10-07T04:49:02Z</time></trkpt>
<trkpt lat="25.385034" lon="100.840238">
<time>2016-10-07T04:49:03Z</time></trkpt>
<trkpt lat="25.385093" lon="100.840017">
<time>2016-10-07T04:49:04Z</time></trkpt>
<trkpt lat="25.385193" lon="100.839757">
<time>2016-10-07T04:49:05Z</time></trkpt>
<trkpt lat="25.385262" lon="100.839507">
<time>2016-10-07T04:49:06Z</time></trkpt>
<trkpt lat="25.385352" lon="100.839266">
<time>2016-10-07T04:49:07Z</time></trkpt>
<trkpt lat="25.385441" lon="100.839066">
<time>2016-10-07T04:49:08Z</time></trkpt>
<trkpt lat="25.385541" lon="100.838906">
<time>2016-10-07T04:49:09Z</time></trkpt>
<trkpt lat="25.385681" lon="100.838735">
<time>2016-10-07T04:49:10Z</time></trkpt>
<trkpt lat="25.385831" lon="100.838605">
<time>2016-10-07T04:49:11Z</time></trkpt>
<trkpt lat="25.38598" lon="100.838485">
<time>2016-10-07T04:49:12Z</time></trkpt>
<trkpt lat="25.38615" lon="100.838385">
<time>2016-10-07T04:49:13Z</time></trkpt>
<trkpt lat="25.38632" lon="100.838305">
<time>2016-10-07T04:49:14Z</time></trkpt>
<trkpt lat="25.38651" lon="100.838235">
<time>2016-10-07T04:49:15Z</time></trkpt>
<trkpt lat="25.38667" lon="100.838135">
<time>2016-10-07T04:49:16Z</time></trkpt>
<trkpt lat="25.38684" lon="100.838004">
<time>2016-10-07T04:49:17Z</time></trkpt>
<trkpt lat="25.38699" lon="100.837864">
<time>2016-10-07T04:49:18Z</time></trkpt>
<trkpt lat="25.387119" lon="100.837724">
<time>2016-10-07T04:49:19Z</time></trkpt>
<trkpt lat="25.387209" lon="100.837644">
<time>2016-10-07T04:49:20Z</time></trkpt>
<trkpt lat="25.387259" lon="100.837594">
<time>2016-10-07T04:49:21Z</time></trkpt>
<trkpt lat="25.387439" lon="100.837514">
<time>2016-10-07T04:49:22Z</time></trkpt>
<trkpt lat="25.387629" lon="100.837494">
<time>2016-10-07T04:49:23Z</time></trkpt>
<trkpt lat="25.387829" lon="100.837544">
<time>2016-10-07T04:49:24Z</time></trkpt>
<trkpt lat="25.387879" lon="100.837564">
<time>2016-10-07T04:49:25Z</time></trkpt>
<trkpt lat="25.388019" lon="100.837604">
<time>2016-10-07T04:49:26Z</time></trkpt>
<trkpt lat="25.388209" lon="100.837654">
<time>2016-10-07T04:49:27Z</time></trkpt>
<trkpt lat="25.388399" lon="100.837664">
<time>2016-10-07T04:49:28Z</time></trkpt>
<trkpt lat="25.388569" lon="100.837634">
<time>2016-10-07T04:49:29Z</time></trkpt>
<trkpt lat="25.388699" lon="100.837554">
<time>2016-10-07T04:49:30Z</time></trkpt>
<trkpt lat="25.388849" lon="100.837423">
<time>2016-10-07T04:49:31Z</time></trkpt>
<trkpt lat="25.388999" lon="100.837303">
<time>2016-10-07T04:49:32Z</time></trkpt>
<trkpt lat="25.389159" lon="100.837173">
<time>2016-10-07T04:49:33Z</time></trkpt>
<trkpt lat="25.389308" lon="100.837083">
<time>2016-10-07T04:49:34Z</time></trkpt>
<trkpt lat="25.389438" lon="100.837013">
<time>2016-10-07T04:49:35Z</time></trkpt>
<trkpt lat="25.389558" lon="100.836983">
<time>2016-10-07T04:49:36Z</time></trkpt>
<trkpt lat="25.389738" lon="100.836883">
<time>2016-10-07T04:49:37Z</time></trkpt>
<trkpt lat="25.389848" lon="100.836883">
<time>2016-10-07T04:49:38Z</time></trkpt>
<trkpt lat="25.389948" lon="100.836873">
<time>2016-10-07T04:49:39Z</time></trkpt>
<trkpt lat="25.390088" lon="100.836883">
<time>2016-10-07T04:49:40Z</time></trkpt>
<trkpt lat="25.390188" lon="100.836923">
<time>2016-10-07T04:49:41Z</time></trkpt>
<trkpt lat="25.390309" lon="100.837013">
<time>2016-10-07T04:49:42Z</time></trkpt>
<trkpt lat="25.390389" lon="100.837043">
<time>2016-10-07T04:49:43Z</time></trkpt>
<trkpt lat="25.390519" lon="100.837043">
<time>2016-10-07T04:49:44Z</time></trkpt>
<trkpt lat="25.390619" lon="100.837023">
<time>2016-10-07T04:49:45Z</time></trkpt>
<trkpt lat="25.390709" lon="100.836983">
<time>2016-10-07T04:49:46Z</time></trkpt>
<trkpt lat="25.390798" lon="100.836953">
<time>2016-10-07T04:49:47Z</time></trkpt>
<trkpt lat="25.390918" lon="100.836903">
<time>2016-10-07T04:49:48Z</time></trkpt>
<trkpt lat="25.391058" lon="100.836883">
<time>2016-10-07T04:49:49Z</time></trkpt>
<trkpt lat="25.391188" lon="100.836883">
<time>2016-10-07T04:49:50Z</time></trkpt>
<trkpt lat="25.391349" lon="100.836903">
<time>2016-10-07T04:49:51Z</time></trkpt>
<trkpt lat="25.391529" lon="100.836923">
<time>2016-10-07T04:49:52Z</time></trkpt>
<trkpt lat="25.391699" lon="100.836883">
<time>2016-10-07T04:49:53Z</time></trkpt>
<trkpt lat="25.391899" lon="100.836863">
<time>2016-10-07T04:49:54Z</time></trkpt>
<trkpt lat="25.392099" lon="100.836833">
<time>2016-10-07T04:49:55Z</time></trkpt>
<trkpt lat="25.392288" lon="100.836772">
<time>2016-10-07T04:49:56Z</time></trkpt>
<trkpt lat="25.392488" lon="100.836682">
<time>2016-10-07T04:49:57Z</time></trkpt>
<trkpt lat="25.392668" lon="100.836562">
<time>2016-10-07T04:49:58Z</time></trkpt>
<trkpt lat="25.392828" lon="100.836442">
<time>2016-10-07T04:49:59Z</time></trkpt>
<trkpt lat="25.393008" lon="100.836312">
<time>2016-10-07T04:50:00Z</time></trkpt>
<trkpt lat="25.393168" lon="100.836252">
<time>2016-10-07T04:50:01Z</time></trkpt>
<trkpt lat="25.393308" lon="100.836222">
<time>2016-10-07T04:50:02Z</time></trkpt>
<trkpt lat="25.393438" lon="100.836292">
<time>2016-10-07T04:50:03Z</time></trkpt>
<trkpt lat="25.393508" lon="100.836432">
<time>2016-10-07T04:50:04Z</time></trkpt>
<trkpt lat="25.393528" lon="100.836602">
<time>2016-10-07T04:50:05Z</time></trkpt>
<trkpt lat="25.393449" lon="100.836863">
<time>2016-10-07T04:50:06Z</time></trkpt>
<trkpt lat="25.393379" lon="100.837123">
<time>2016-10-07T04:50:07Z</time></trkpt>
<trkpt lat="25.39326" lon="100.837413">
<time>2016-10-07T04:50:08Z</time></trkpt>
<trkpt lat="25.39318" lon="100.837584">
<time>2016-10-07T04:50:09Z</time></trkpt>
<trkpt lat="25.39314" lon="100.837724">
<time>2016-10-07T04:50:10Z</time></trkpt>
<trkpt lat="25.393171" lon="100.837914">
<time>2016-10-07T04:50:11Z</time></trkpt>
<trkpt lat="25.393241" lon="100.837994">
<time>2016-10-07T04:50:12Z</time></trkpt>
<trkpt lat="25.393391" lon="100.838074">
<time>2016-10-07T04:50:13Z</time></trkpt>
<trkpt lat="25.393521" lon="100.838164">
<time>2016-10-07T04:50:14Z</time></trkpt>
<trkpt lat="25.393681" lon="100.838154">
<time>2016-10-07T04:50:15Z</time></trkpt>
<trkpt lat="25.393841" lon="100.838044">
<time>2016-10-07T04:50:16Z</time></trkpt>
<trkpt lat="25.394011" lon="100.837904">
<time>2016-10-07T04:50:17Z</time></trkpt>
<trkpt lat="25.394181" lon="100.837734">
<time>2016-10-07T04:50:18Z</time></trkpt>
<trkpt lat="25.39436" lon="100.837574">
<time>2016-10-07T04:50:19Z</time></trkpt>
<trkpt lat="25.39453" lon="100.837453">
<time>2016-10-07T04:50:20Z</time></trkpt>
<trkpt lat="25.39471" lon="100.837443">
<time>2016-10-07T04:50:21Z</time></trkpt>
<trkpt lat="25.39491" lon="100.837493">
<time>2016-10-07T04:50:22Z</time></trkpt>
<trkpt lat="25.3951" lon="100.837594">
<time>2016-10-07T04:50:23Z</time></trkpt>
<trkpt lat="25.395311" lon="100.837704">
<time>2016-10-07T04:50:24Z</time></trkpt>
<trkpt lat="25.395501" lon="100.837874">
<time>2016-10-07T04:50:25Z</time></trkpt>
<trkpt lat="25.395731" lon="100.838034">
<time>2016-10-07T04:50:26Z</time></trkpt>
<trkpt lat="25.395982" lon="100.838194">
<time>2016-10-07T04:50:27Z</time></trkpt>
<trkpt lat="25.396212" lon="100.838295">
<time>2016-10-07T04:50:28Z</time></trkpt>
<trkpt lat="25.396452" lon="100.838325">
<time>2016-10-07T04:50:29Z</time></trkpt>
<trkpt lat="25.396552" lon="100.838325">
<time>2016-10-07T04:50:30Z</time></trkpt>
<trkpt lat="25.396712" lon="100.838295">
<time>2016-10-07T04:50:31Z</time></trkpt>
<trkpt lat="25.396812" lon="100.838204">
<time>2016-10-07T04:50:32Z</time></trkpt>
<trkpt lat="25.396872" lon="100.838064">
<time>2016-10-07T04:50:33Z</time></trkpt>
<trkpt lat="25.396851" lon="100.837884">
<time>2016-10-07T04:50:34Z</time></trkpt>
<trkpt lat="25.396791" lon="100.837714">
<time>2016-10-07T04:50:35Z</time></trkpt>
<trkpt lat="25.396701" lon="100.837553">
<time>2016-10-07T04:50:36Z</time></trkpt>
<trkpt lat="25.39661" lon="100.837383">
<time>2016-10-07T04:50:37Z</time></trkpt>
<trkpt lat="25.39651" lon="100.837263">
<time>2016-10-07T04:50:38Z</time></trkpt>
<trkpt lat="25.39639" lon="100.837143">
<time>2016-10-07T04:50:39Z</time></trkpt>
<trkpt lat="25.39631" lon="100.836983">
<time>2016-10-07T04:50:40Z</time></trkpt>
<trkpt lat="25.396259" lon="100.836822">
<time>2016-10-07T04:50:41Z</time></trkpt>
<trkpt lat="25.396229" lon="100.836632">
<time>2016-10-07T04:50:42Z</time></trkpt>
<trkpt lat="25.396219" lon="100.836432">
<time>2016-10-07T04:50:43Z</time></trkpt>
<trkpt lat="25.396198" lon="100.836211">
<time>2016-10-07T04:50:44Z</time></trkpt>
<trkpt lat="25.396178" lon="100.836001">
<time>2016-10-07T04:50:45Z</time></trkpt>
<trkpt lat="25.396167" lon="100.835801">
<time>2016-10-07T04:50:46Z</time></trkpt>
<trkpt lat="25.396147" lon="100.835581">
<time>2016-10-07T04:50:47Z</time></trkpt>
<trkpt lat="25.396126" lon="100.83535">
<time>2016-10-07T04:50:48Z</time></trkpt>
<trkpt lat="25.396106" lon="100.83512">
<time>2016-10-07T04:50:49Z</time></trkpt>
<trkpt lat="25.396086" lon="100.834869">
<time>2016-10-07T04:50:50Z</time></trkpt>
<trkpt lat="25.396065" lon="100.834639">
<time>2016-10-07T04:50:51Z</time></trkpt>
<trkpt lat="25.396075" lon="100.834419">
<time>2016-10-07T04:50:52Z</time></trkpt>
<trkpt lat="25.396144" lon="100.834208">
<time>2016-10-07T04:50:53Z</time></trkpt>
<trkpt lat="25.396254" lon="100.834018">
<time>2016-10-07T04:50:54Z</time></trkpt>
<trkpt lat="25.396354" lon="100.833828">
<time>2016-10-07T04:50:55Z</time></trkpt>
<trkpt lat="25.396433" lon="100.833628">
<time>2016-10-07T04:50:56Z</time></trkpt>
<trkpt lat="25.396463" lon="100.833427">
<time>2016-10-07T04:50:57Z</time></trkpt>
<trkpt lat="25.396443" lon="100.833227">
<time>2016-10-07T04:50:58Z</time></trkpt>
<trkpt lat="25.396382" lon="100.833067">
<time>2016-10-07T04:50:59Z</time></trkpt>
<trkpt lat="25.396372" lon="100.832886">
<time>2016-10-07T04:51:00Z</time></trkpt>
<trkpt lat="25.396372" lon="100.832686">
<time>2016-10-07T04:51:01Z</time></trkpt>
<trkpt lat="25.396411" lon="100.832466">
<time>2016-10-07T04:51:02Z</time></trkpt>
<trkpt lat="25.396481" lon="100.832236">
<time>2016-10-07T04:51:03Z</time></trkpt>
<trkpt lat="25.39655" lon="100.831985">
<time>2016-10-07T04:51:04Z</time></trkpt>
<trkpt lat="25.39661" lon="100.831725">
<time>2016-10-07T04:51:05Z</time></trkpt>
<trkpt lat="25.396669" lon="100.831464">
<time>2016-10-07T04:51:06Z</time></trkpt>
<trkpt lat="25.396719" lon="100.831204">
<time>2016-10-07T04:51:07Z</time></trkpt>
<trkpt lat="25.396728" lon="100.830964">
<time>2016-10-07T04:51:08Z</time></trkpt>
<trkpt lat="25.396698" lon="100.830713">
<time>2016-10-07T04:51:09Z</time></trkpt>
<trkpt lat="25.396637" lon="100.830453">
<time>2016-10-07T04:51:10Z</time></trkpt>
<trkpt lat="25.396587" lon="100.830192">
<time>2016-10-07T04:51:11Z</time></trkpt>
<trkpt lat="25.396536" lon="100.829942">
<time>2016-10-07T04:51:12Z</time></trkpt>
<trkpt lat="25.396516" lon="100.829662">
<time>2016-10-07T04:51:13Z</time></trkpt>
<trkpt lat="25.396515" lon="100.829391">
<time>2016-10-07T04:51:14Z</time></trkpt>
<trkpt lat="25.396515" lon="100.829141">
<time>2016-10-07T04:51:15Z</time></trkpt>
<trkpt lat="25.396514" lon="100.82888">
<time>2016-10-07T04:51:16Z</time></trkpt>
<trkpt lat="25.396504" lon="100.82863">
<time>2016-10-07T04:51:17Z</time></trkpt>
<trkpt lat="25.396493" lon="100.82838">
<time>2016-10-07T04:51:18Z</time></trkpt>
<trkpt lat="25.396493" lon="100.828119">
<time>2016-10-07T04:51:19Z</time></trkpt>
<trkpt lat="25.396492" lon="100.827859">
<time>2016-10-07T04:51:20Z</time></trkpt>
<trkpt lat="25.396482" lon="100.827598">
<time>2016-10-07T04:51:21Z</time></trkpt>
<trkpt lat="25.396451" lon="100.827328">
<time>2016-10-07T04:51:22Z</time></trkpt>
<trkpt lat="25.396441" lon="100.827068">
<time>2016-10-07T04:51:23Z</time></trkpt>
<trkpt lat="25.396441" lon="100.826817">
<time>2016-10-07T04:51:24Z</time></trkpt>
<trkpt lat="25.39646" lon="100.826587">
<time>2016-10-07T04:51:25Z</time></trkpt>
<trkpt lat="25.3965" lon="100.826417">
<time>2016-10-07T04:51:26Z</time></trkpt>
<trkpt lat="25.396539" lon="100.826236">
<time>2016-10-07T04:51:27Z</time></trkpt>
<trkpt lat="25.396599" lon="100.826056">
<time>2016-10-07T04:51:28Z</time></trkpt>
<trkpt lat="25.396659" lon="100.825846">
<time>2016-10-07T04:51:29Z</time></trkpt>
<trkpt lat="25.396728" lon="100.825635">
<time>2016-10-07T04:51:30Z</time></trkpt>
<trkpt lat="25.396808" lon="100.825425">
<time>2016-10-07T04:51:31Z</time></trkpt>
<trkpt lat="25.396898" lon="100.825205">
<time>2016-10-07T04:51:32Z</time></trkpt>
<trkpt lat="25.396977" lon="100.824984">
<time>2016-10-07T04:51:33Z</time></trkpt>
<trkpt lat="25.397077" lon="100.824754">
<time>2016-10-07T04:51:34Z</time></trkpt>
<trkpt lat="25.397186" lon="100.824524">
<time>2016-10-07T04:51:35Z</time></trkpt>
<trkpt lat="25.397296" lon="100.824273">
<time>2016-10-07T04:51:36Z</time></trkpt>
<trkpt lat="25.397306" lon="100.824243">
<time>2016-10-07T04:51:37Z</time></trkpt>
<trkpt lat="25.397415" lon="100.824023">
<time>2016-10-07T04:51:38Z</time></trkpt>
<trkpt lat="25.397535" lon="100.823793">
<time>2016-10-07T04:51:39Z</time></trkpt>
<trkpt lat="25.397625" lon="100.823532">
<time>2016-10-07T04:51:40Z</time></trkpt>
<trkpt lat="25.397734" lon="100.823292">
<time>2016-10-07T04:51:41Z</time></trkpt>
<trkpt lat="25.397864" lon="100.823051">
<time>2016-10-07T04:51:42Z</time></trkpt>
<trkpt lat="25.398003" lon="100.822811">
<time>2016-10-07T04:51:43Z</time></trkpt>
<trkpt lat="25.398193" lon="100.822631">
<time>2016-10-07T04:51:44Z</time></trkpt>
<trkpt lat="25.398393" lon="100.822521">
<time>2016-10-07T04:51:45Z</time></trkpt>
<trkpt lat="25.398552" lon="100.82235">
<time>2016-10-07T04:51:46Z</time></trkpt>
<trkpt lat="25.398692" lon="100.82214">
<time>2016-10-07T04:51:47Z</time></trkpt>
<trkpt lat="25.398822" lon="100.82192">
<time>2016-10-07T04:51:48Z</time></trkpt>
<trkpt lat="25.398941" lon="100.821699">
<time>2016-10-07T04:51:49Z</time></trkpt>
<trkpt lat="25.399061" lon="100.821479">
<time>2016-10-07T04:51:50Z</time></trkpt>
<trkpt lat="25.399191" lon="100.821259">
<time>2016-10-07T04:51:51Z</time></trkpt>
<trkpt lat="25.39933" lon="100.821028">
<time>2016-10-07T04:51:52Z</time></trkpt>
<trkpt lat="25.39945" lon="100.820818">
<time>2016-10-07T04:51:53Z</time></trkpt>
<trkpt lat="25.399559" lon="100.820608">
<time>2016-10-07T04:51:54Z</time></trkpt>
<trkpt lat="25.399629" lon="100.820407">
<time>2016-10-07T04:51:55Z</time></trkpt>
<trkpt lat="25.399629" lon="100.820197">
<time>2016-10-07T04:51:56Z</time></trkpt>
<trkpt lat="25.399578" lon="100.819987">
<time>2016-10-07T04:51:57Z</time></trkpt>
<trkpt lat="25.399518" lon="100.819817">
<time>2016-10-07T04:51:58Z</time></trkpt>
<trkpt lat="25.399508" lon="100.819656">
<time>2016-10-07T04:51:59Z</time></trkpt>
<trkpt lat="25.399537" lon="100.819506">
<time>2016-10-07T04:52:00Z</time></trkpt>
<trkpt lat="25.399647" lon="100.819436">
<time>2016-10-07T04:52:01Z</time></trkpt>
<trkpt lat="25.399807" lon="100.819336">
<time>2016-10-07T04:52:02Z</time></trkpt>
<trkpt lat="25.399957" lon="100.819306">
<time>2016-10-07T04:52:03Z</time></trkpt>
<trkpt lat="25.400247" lon="100.819306">
<time>2016-10-07T04:52:04Z</time></trkpt>
<trkpt lat="25.400437" lon="100.819206">
<time>2016-10-07T04:52:05Z</time></trkpt>
<trkpt lat="25.400597" lon="100.819015">
<time>2016-10-07T04:52:06Z</time></trkpt>
<trkpt lat="25.400666" lon="100.818795">
<time>2016-10-07T04:52:07Z</time></trkpt>
<trkpt lat="25.400736" lon="100.818625">
<time>2016-10-07T04:52:08Z</time></trkpt>
<trkpt lat="25.400796" lon="100.818495">
<time>2016-10-07T04:52:09Z</time></trkpt>
<trkpt lat="25.400875" lon="100.818364">
<time>2016-10-07T04:52:10Z</time></trkpt>
<trkpt lat="25.400985" lon="100.818224">
<time>2016-10-07T04:52:11Z</time></trkpt>
<trkpt lat="25.401095" lon="100.818084">
<time>2016-10-07T04:52:12Z</time></trkpt>
<trkpt lat="25.401205" lon="100.817934">
<time>2016-10-07T04:52:13Z</time></trkpt>
<trkpt lat="25.401314" lon="100.817763">
<time>2016-10-07T04:52:14Z</time></trkpt>
<trkpt lat="25.401414" lon="100.817563">
<time>2016-10-07T04:52:15Z</time></trkpt>
<trkpt lat="25.401514" lon="100.817323">
<time>2016-10-07T04:52:16Z</time></trkpt>
<trkpt lat="25.401613" lon="100.817062">
<time>2016-10-07T04:52:17Z</time></trkpt>
<trkpt lat="25.401713" lon="100.816802">
<time>2016-10-07T04:52:18Z</time></trkpt>
<trkpt lat="25.401852" lon="100.816522">
<time>2016-10-07T04:52:19Z</time></trkpt>
<trkpt lat="25.402022" lon="100.816261">
<time>2016-10-07T04:52:20Z</time></trkpt>
<trkpt lat="25.402221" lon="100.816011">
<time>2016-10-07T04:52:21Z</time></trkpt>
<trkpt lat="25.402411" lon="100.81578">
<time>2016-10-07T04:52:22Z</time></trkpt>
<trkpt lat="25.402691" lon="100.81562">
<time>2016-10-07T04:52:23Z</time></trkpt>
<trkpt lat="25.40313" lon="100.81538">
<time>2016-10-07T04:52:24Z</time></trkpt>
<trkpt lat="25.40342" lon="100.815149">
<time>2016-10-07T04:52:25Z</time></trkpt>
<trkpt lat="25.403829" lon="100.814729">
<time>2016-10-07T04:52:26Z</time></trkpt>
<trkpt lat="25.404109" lon="100.814338">
<time>2016-10-07T04:52:27Z</time></trkpt>
<trkpt lat="25.404218" lon="100.814108">
<time>2016-10-07T04:52:28Z</time></trkpt>
<trkpt lat="25.404368" lon="100.813898">
<time>2016-10-07T04:52:29Z</time></trkpt>
<trkpt lat="25.404518" lon="100.813697">
<time>2016-10-07T04:52:30Z</time></trkpt>
<trkpt lat="25.404657" lon="100.813537">
<time>2016-10-07T04:52:31Z</time></trkpt>
<trkpt lat="25.404767" lon="100.813347">
<time>2016-10-07T04:52:32Z</time></trkpt>
<trkpt lat="25.404847" lon="100.813157">
<time>2016-10-07T04:52:33Z</time></trkpt>
<trkpt lat="25.404886" lon="100.812926">
<time>2016-10-07T04:52:34Z</time></trkpt>
<trkpt lat="25.404936" lon="100.812686">
<time>2016-10-07T04:52:35Z</time></trkpt>
<trkpt lat="25.405015" lon="100.812486">
<time>2016-10-07T04:52:36Z</time></trkpt>
<trkpt lat="25.405165" lon="100.812355">
<time>2016-10-07T04:52:37Z</time></trkpt>
<trkpt lat="25.405355" lon="100.812305">
<time>2016-10-07T04:52:38Z</time></trkpt>
<trkpt lat="25.405555" lon="100.812305">
<time>2016-10-07T04:52:39Z</time></trkpt>
<trkpt lat="25.405755" lon="100.812295">
<time>2016-10-07T04:52:40Z</time></trkpt>
<trkpt lat="25.405925" lon="100.812235">
<time>2016-10-07T04:52:41Z</time></trkpt>
<trkpt lat="25.406065" lon="100.812145">
<time>2016-10-07T04:52:42Z</time></trkpt>
<trkpt lat="25.406205" lon="100.811985">
<time>2016-10-07T04:52:43Z</time></trkpt>
<trkpt lat="25.406295" lon="100.811825">
<time>2016-10-07T04:52:44Z</time></trkpt>
<trkpt lat="25.406374" lon="100.811624">
<time>2016-10-07T04:52:45Z</time></trkpt>
<trkpt lat="25.406424" lon="100.811394">
<time>2016-10-07T04:52:46Z</time></trkpt>
<trkpt lat="25.406463" lon="100.811134">
<time>2016-10-07T04:52:47Z</time></trkpt>
<trkpt lat="25.406533" lon="100.810903">
<time>2016-10-07T04:52:48Z</time></trkpt>
<trkpt lat="25.406613" lon="100.810693">
<time>2016-10-07T04:52:49Z</time></trkpt>
<trkpt lat="25.406712" lon="100.810493">
<time>2016-10-07T04:52:50Z</time></trkpt>
<trkpt lat="25.406922" lon="100.810312">
<time>2016-10-07T04:52:51Z</time></trkpt>
<trkpt lat="25.407182" lon="100.810212">
<time>2016-10-07T04:52:52Z</time></trkpt>
<trkpt lat="25.407452" lon="100.810082">
<time>2016-10-07T04:52:53Z</time></trkpt>
<trkpt lat="25.407681" lon="100.809922">
<time>2016-10-07T04:52:54Z</time></trkpt>
<trkpt lat="25.407921" lon="100.809782">
<time>2016-10-07T04:52:55Z</time></trkpt>
<trkpt lat="25.408161" lon="100.809601">
<time>2016-10-07T04:52:56Z</time></trkpt>
<trkpt lat="25.408411" lon="100.809451">
<time>2016-10-07T04:52:57Z</time></trkpt>
<trkpt lat="25.40867" lon="100.809251">
<time>2016-10-07T04:52:58Z</time></trkpt>
<trkpt lat="25.40885" lon="100.809101">
<time>2016-10-07T04:52:59Z</time></trkpt>
<trkpt lat="25.4091" lon="100.80893">
<time>2016-10-07T04:53:00Z</time></trkpt>
<trkpt lat="25.40936" lon="100.80875">
<time>2016-10-07T04:53:01Z</time></trkpt>
<trkpt lat="25.409559" lon="100.80855">
<time>2016-10-07T04:53:02Z</time></trkpt>
<trkpt lat="25.409769" lon="100.80838">
<time>2016-10-07T04:53:03Z</time></trkpt>
<trkpt lat="25.409959" lon="100.808189">
<time>2016-10-07T04:53:04Z</time></trkpt>
<trkpt lat="25.410109" lon="100.808029">
<time>2016-10-07T04:53:05Z</time></trkpt>
<trkpt lat="25.410218" lon="100.807829">
<time>2016-10-07T04:53:06Z</time></trkpt>
<trkpt lat="25.410338" lon="100.807609">
<time>2016-10-07T04:53:07Z</time></trkpt>
<trkpt lat="25.410437" lon="100.807318">
<time>2016-10-07T04:53:08Z</time></trkpt>
<trkpt lat="25.410557" lon="100.806978">
<time>2016-10-07T04:53:09Z</time></trkpt>
<trkpt lat="25.410676" lon="100.806677">
<time>2016-10-07T04:53:10Z</time></trkpt>
<trkpt lat="25.410736" lon="100.806427">
<time>2016-10-07T04:53:11Z</time></trkpt>
<trkpt lat="25.410805" lon="100.806177">
<time>2016-10-07T04:53:12Z</time></trkpt>
<trkpt lat="25.410875" lon="100.805916">
<time>2016-10-07T04:53:13Z</time></trkpt>
<trkpt lat="25.410945" lon="100.805656">
<time>2016-10-07T04:53:14Z</time></trkpt>
<trkpt lat="25.410994" lon="100.805426">
<time>2016-10-07T04:53:15Z</time></trkpt>
<trkpt lat="25.411054" lon="100.805245">
<time>2016-10-07T04:53:16Z</time></trkpt>
<trkpt lat="25.411084" lon="100.805085">
<time>2016-10-07T04:53:17Z</time></trkpt>
<trkpt lat="25.411143" lon="100.804825">
<time>2016-10-07T04:53:18Z</time></trkpt>
<trkpt lat="25.411253" lon="100.804504">
<time>2016-10-07T04:53:19Z</time></trkpt>
<trkpt lat="25.411382" lon="100.804244">
<time>2016-10-07T04:53:20Z</time></trkpt>
<trkpt lat="25.411562" lon="100.804114">
<time>2016-10-07T04:53:21Z</time></trkpt>
<trkpt lat="25.411742" lon="100.804064">
<time>2016-10-07T04:53:22Z</time></trkpt>
<trkpt lat="25.411932" lon="100.804084">
<time>2016-10-07T04:53:23Z</time></trkpt>
<trkpt lat="25.412162" lon="100.804084">
<time>2016-10-07T04:53:24Z</time></trkpt>
<trkpt lat="25.412372" lon="100.804124">
<time>2016-10-07T04:53:25Z</time></trkpt>
<trkpt lat="25.412633" lon="100.804224">
<time>2016-10-07T04:53:26Z</time></trkpt>
<trkpt lat="25.412833" lon="100.804294">
<time>2016-10-07T04:53:27Z</time></trkpt>
<trkpt lat="25.413073" lon="100.804304">
<time>2016-10-07T04:53:28Z</time></trkpt>
<trkpt lat="25.413353" lon="100.804294">
<time>2016-10-07T04:53:29Z</time></trkpt>
<trkpt lat="25.413623" lon="100.804254">
<time>2016-10-07T04:53:30Z</time></trkpt>
<trkpt lat="25.413903" lon="100.804204">
<time>2016-10-07T04:53:31Z</time></trkpt>
<trkpt lat="25.414163" lon="100.804124">
<time>2016-10-07T04:53:32Z</time></trkpt>
<trkpt lat="25.414413" lon="100.804014">
<time>2016-10-07T04:53:33Z</time></trkpt>
<trkpt lat="25.414642" lon="100.803893">
<time>2016-10-07T04:53:34Z</time></trkpt>
<trkpt lat="25.414882" lon="100.803803">
<time>2016-10-07T04:53:35Z</time></trkpt>
<trkpt lat="25.415072" lon="100.803703">
<time>2016-10-07T04:53:36Z</time></trkpt>
<trkpt lat="25.415212" lon="100.803563">
<time>2016-10-07T04:53:37Z</time></trkpt>
<trkpt lat="25.415292" lon="100.803383">
<time>2016-10-07T04:53:38Z</time></trkpt>
<trkpt lat="25.415331" lon="100.803162">
<time>2016-10-07T04:53:39Z</time></trkpt>
<trkpt lat="25.415361" lon="100.802972">
<time>2016-10-07T04:53:40Z</time></trkpt>
<trkpt lat="25.415371" lon="100.802742">
<time>2016-10-07T04:53:41Z</time></trkpt>
<trkpt lat="25.41539" lon="100.802502">
<time>2016-10-07T04:53:42Z</time></trkpt>
<trkpt lat="25.4154" lon="100.802341">
<time>2016-10-07T04:53:43Z</time></trkpt>
<trkpt lat="25.41542" lon="100.802151">
<time>2016-10-07T04:53:44Z</time></trkpt>
<trkpt lat="25.415439" lon="100.801971">
<time>2016-10-07T04:53:45Z</time></trkpt>
<trkpt lat="25.415469" lon="100.801751">
<time>2016-10-07T04:53:46Z</time></trkpt>
<trkpt lat="25.415519" lon="100.80149">
<time>2016-10-07T04:53:47Z</time></trkpt>
<trkpt lat="25.415568" lon="100.80124">
<time>2016-10-07T04:53:48Z</time></trkpt>
<trkpt lat="25.415628" lon="100.801">
<time>2016-10-07T04:53:49Z</time></trkpt>
<trkpt lat="25.415677" lon="100.800789">
<time>2016-10-07T04:53:50Z</time></trkpt>
<trkpt lat="25.415727" lon="100.800579">
<time>2016-10-07T04:53:51Z</time></trkpt>
<trkpt lat="25.415777" lon="100.800359">
<time>2016-10-07T04:53:52Z</time></trkpt>
<trkpt lat="25.415836" lon="100.800149">
<time>2016-10-07T04:53:53Z</time></trkpt>
<trkpt lat="25.415906" lon="100.799938">
<time>2016-10-07T04:53:54Z</time></trkpt>
<trkpt lat="25.415986" lon="100.799758">
<time>2016-10-07T04:53:55Z</time></trkpt>
<trkpt lat="25.416116" lon="100.799608">
<time>2016-10-07T04:53:56Z</time></trkpt>
<trkpt lat="25.416286" lon="100.799518">
<time>2016-10-07T04:53:57Z</time></trkpt>
<trkpt lat="25.416505" lon="100.799478">
<time>2016-10-07T04:53:58Z</time></trkpt>
<trkpt lat="25.416685" lon="100.799448">
<time>2016-10-07T04:53:59Z</time></trkpt>
<trkpt lat="25.416735" lon="100.799438">
<time>2016-10-07T04:54:00Z</time></trkpt>
<trkpt lat="25.416975" lon="100.799418">
<time>2016-10-07T04:54:01Z</time></trkpt>
<trkpt lat="25.417226" lon="100.799448">
<time>2016-10-07T04:54:02Z</time></trkpt>
<trkpt lat="25.417466" lon="100.799538">
<time>2016-10-07T04:54:03Z</time></trkpt>
<trkpt lat="25.417696" lon="100.799638">
<time>2016-10-07T04:54:04Z</time></trkpt>
<trkpt lat="25.417916" lon="100.799768">
<time>2016-10-07T04:54:05Z</time></trkpt>
<trkpt lat="25.418126" lon="100.799878">
<time>2016-10-07T04:54:06Z</time></trkpt>
<trkpt lat="25.418347" lon="100.799988">
<time>2016-10-07T04:54:07Z</time></trkpt>
<trkpt lat="25.418567" lon="100.800088">
<time>2016-10-07T04:54:08Z</time></trkpt>
<trkpt lat="25.418797" lon="100.800199">
<time>2016-10-07T04:54:09Z</time></trkpt>
<trkpt lat="25.419017" lon="100.800299">
<time>2016-10-07T04:54:10Z</time></trkpt>
<trkpt lat="25.419248" lon="100.800399">
<time>2016-10-07T04:54:11Z</time></trkpt>
<trkpt lat="25.419468" lon="100.800499">
<time>2016-10-07T04:54:12Z</time></trkpt>
<trkpt lat="25.419708" lon="100.800629">
<time>2016-10-07T04:54:13Z</time></trkpt>
<trkpt lat="25.419928" lon="100.800699">
<time>2016-10-07T04:54:14Z</time></trkpt>
<trkpt lat="25.420128" lon="100.800719">
<time>2016-10-07T04:54:15Z</time></trkpt>
<trkpt lat="25.420308" lon="100.800659">
<time>2016-10-07T04:54:16Z</time></trkpt>
<trkpt lat="25.420478" lon="100.800559">
<time>2016-10-07T04:54:17Z</time></trkpt>
<trkpt lat="25.420648" lon="100.800419">
<time>2016-10-07T04:54:18Z</time></trkpt>
<trkpt lat="25.420838" lon="100.800279">
<time>2016-10-07T04:54:19Z</time></trkpt>
<trkpt lat="25.421058" lon="100.800178">
<time>2016-10-07T04:54:20Z</time></trkpt>
<trkpt lat="25.421298" lon="100.800108">
<time>2016-10-07T04:54:21Z</time></trkpt>
<trkpt lat="25.421547" lon="100.800018">
<time>2016-10-07T04:54:22Z</time></trkpt>
<trkpt lat="25.421797" lon="100.799948">
<time>2016-10-07T04:54:23Z</time></trkpt>
<trkpt lat="25.422047" lon="100.799858">
<time>2016-10-07T04:54:24Z</time></trkpt>
<trkpt lat="25.422237" lon="100.799768">
<time>2016-10-07T04:54:25Z</time></trkpt>
<trkpt lat="25.422527" lon="100.799618">
<time>2016-10-07T04:54:26Z</time></trkpt>
<trkpt lat="25.422747" lon="100.799438">
<time>2016-10-07T04:54:27Z</time></trkpt>
<trkpt lat="25.422957" lon="100.799297">
<time>2016-10-07T04:54:28Z</time></trkpt>
<trkpt lat="25.423226" lon="100.799097">
<time>2016-10-07T04:54:29Z</time></trkpt>
<trkpt lat="25.423426" lon="100.798907">
<time>2016-10-07T04:54:30Z</time></trkpt>
<trkpt lat="25.423616" lon="100.798717">
<time>2016-10-07T04:54:31Z</time></trkpt>
<trkpt lat="25.423816" lon="100.798536">
<time>2016-10-07T04:54:32Z</time></trkpt>
<trkpt lat="25.423995" lon="100.798366">
<time>2016-10-07T04:54:33Z</time></trkpt>
<trkpt lat="25.424165" lon="100.798196">
<time>2016-10-07T04:54:34Z</time></trkpt>
<trkpt lat="25.424335" lon="100.798036">
<time>2016-10-07T04:54:35Z</time></trkpt>
<trkpt lat="25.424505" lon="100.797876">
<time>2016-10-07T04:54:36Z</time></trkpt>
<trkpt lat="25.424674" lon="100.797735">
<time>2016-10-07T04:54:37Z</time></trkpt>
<trkpt lat="25.424844" lon="100.797585">
<time>2016-10-07T04:54:38Z</time></trkpt>
<trkpt lat="25.425004" lon="100.797425">
<time>2016-10-07T04:54:39Z</time></trkpt>
<trkpt lat="25.425154" lon="100.797275">
<time>2016-10-07T04:54:40Z</time></trkpt>
<trkpt lat="25.425164" lon="100.797265">
<time>2016-10-07T04:54:41Z</time></trkpt>
<trkpt lat="25.425324" lon="100.797115">
<time>2016-10-07T04:54:42Z</time></trkpt>
<trkpt lat="25.425493" lon="100.796964">
<time>2016-10-07T04:54:43Z</time></trkpt>
<trkpt lat="25.425653" lon="100.796814">
<time>2016-10-07T04:54:44Z</time></trkpt>
<trkpt lat="25.425823" lon="100.796654">
<time>2016-10-07T04:54:45Z</time></trkpt>
<trkpt lat="25.426003" lon="100.796494">
<time>2016-10-07T04:54:46Z</time></trkpt>
<trkpt lat="25.426173" lon="100.796324">
<time>2016-10-07T04:54:47Z</time></trkpt>
<trkpt lat="25.426362" lon="100.796154">
<time>2016-10-07T04:54:48Z</time></trkpt>
<trkpt lat="25.426542" lon="100.795983">
<time>2016-10-07T04:54:49Z</time></trkpt>
<trkpt lat="25.426722" lon="100.795823">
<time>2016-10-07T04:54:50Z</time></trkpt>
<trkpt lat="25.426882" lon="100.795663">
<time>2016-10-07T04:54:51Z</time></trkpt>
<trkpt lat="25.426962" lon="100.795593">
<time>2016-10-07T04:54:52Z</time></trkpt>
<trkpt lat="25.427042" lon="100.795513">
<time>2016-10-07T04:54:53Z</time></trkpt>
<trkpt lat="25.427211" lon="100.795373">
<time>2016-10-07T04:54:54Z</time></trkpt>
<trkpt lat="25.427361" lon="100.795232">
<time>2016-10-07T04:54:55Z</time></trkpt>
<trkpt lat="25.427521" lon="100.795082">
<time>2016-10-07T04:54:56Z</time></trkpt>
<trkpt lat="25.427661" lon="100.794912">
<time>2016-10-07T04:54:57Z</time></trkpt>
<trkpt lat="25.427821" lon="100.794752">
<time>2016-10-07T04:54:58Z</time></trkpt>
<trkpt lat="25.42796" lon="100.794592">
<time>2016-10-07T04:54:59Z</time></trkpt>
<trkpt lat="25.42809" lon="100.794442">
<time>2016-10-07T04:55:00Z</time></trkpt>
<trkpt lat="25.42821" lon="100.794281">
<time>2016-10-07T04:55:01Z</time></trkpt>
<trkpt lat="25.42824" lon="100.794241">
<time>2016-10-07T04:55:02Z</time></trkpt>
<trkpt lat="25.42828" lon="100.794211">
<time>2016-10-07T04:55:03Z</time></trkpt>
<trkpt lat="25.42833" lon="100.794181">
<time>2016-10-07T04:55:04Z</time></trkpt>
<trkpt lat="25.42838" lon="100.794151">
<time>2016-10-07T04:55:05Z</time></trkpt>
<trkpt lat="25.42843" lon="100.794131">
<time>2016-10-07T04:55:06Z</time></trkpt>
<trkpt lat="25.42848" lon="100.794101">
<time>2016-10-07T04:55:07Z</time></trkpt>
<trkpt lat="25.42853" lon="100.794061">
<time>2016-10-07T04:55:08Z</time></trkpt>
<trkpt lat="25.42858" lon="100.794001">
<time>2016-10-07T04:55:09Z</time></trkpt>
<trkpt lat="25.42863" lon="100.793921">
<time>2016-10-07T04:55:10Z</time></trkpt>
<trkpt lat="25.428669" lon="100.793811">
<time>2016-10-07T04:55:11Z</time></trkpt>
<trkpt lat="25.428719" lon="100.793641">
<time>2016-10-07T04:55:12Z</time></trkpt>
<trkpt lat="25.428759" lon="100.79345">
<time>2016-10-07T04:55:13Z</time></trkpt>
<trkpt lat="25.428789" lon="100.79326">
<time>2016-10-07T04:55:14Z</time></trkpt>
<trkpt lat="25.428818" lon="100.79305">
<time>2016-10-07T04:55:15Z</time></trkpt>
<trkpt lat="25.428848" lon="100.79285">
<time>2016-10-07T04:55:16Z</time></trkpt>
<trkpt lat="25.428878" lon="100.79265">
<time>2016-10-07T04:55:17Z</time></trkpt>
<trkpt lat="25.428917" lon="100.792439">
<time>2016-10-07T04:55:18Z</time></trkpt>
<trkpt lat="25.428957" lon="100.792229">
<time>2016-10-07T04:55:19Z</time></trkpt>
<trkpt lat="25.428997" lon="100.792019">
<time>2016-10-07T04:55:20Z</time></trkpt>
<trkpt lat="25.429026" lon="100.791739">
<time>2016-10-07T04:55:21Z</time></trkpt>
<trkpt lat="25.429056" lon="100.791448">
<time>2016-10-07T04:55:22Z</time></trkpt>
<trkpt lat="25.429106" lon="100.791208">
<time>2016-10-07T04:55:23Z</time></trkpt>
<trkpt lat="25.429125" lon="100.790988">
<time>2016-10-07T04:55:24Z</time></trkpt>
<trkpt lat="25.429155" lon="100.790818">
<time>2016-10-07T04:55:25Z</time></trkpt>
<trkpt lat="25.429185" lon="100.790627">
<time>2016-10-07T04:55:26Z</time></trkpt>
<trkpt lat="25.429215" lon="100.790487">
<time>2016-10-07T04:55:27Z</time></trkpt>
<trkpt lat="25.429235" lon="100.790387">
<time>2016-10-07T04:55:28Z</time></trkpt>
<trkpt lat="25.429254" lon="100.790277">
<time>2016-10-07T04:55:29Z</time></trkpt>
<trkpt lat="25.429274" lon="100.790117">
<time>2016-10-07T04:55:30Z</time></trkpt>
<trkpt lat="25.429304" lon="100.789947">
<time>2016-10-07T04:55:31Z</time></trkpt>
<trkpt lat="25.429334" lon="100.789767">
<time>2016-10-07T04:55:32Z</time></trkpt>
<trkpt lat="25.429343" lon="100.789566">
<time>2016-10-07T04:55:33Z</time></trkpt>
<trkpt lat="25.429373" lon="100.789356">
<time>2016-10-07T04:55:34Z</time></trkpt>
<trkpt lat="25.429423" lon="100.789136">
<time>2016-10-07T04:55:35Z</time></trkpt>
<trkpt lat="25.429463" lon="100.788936">
<time>2016-10-07T04:55:36Z</time></trkpt>
<trkpt lat="25.429492" lon="100.788726">
<time>2016-10-07T04:55:37Z</time></trkpt>
<trkpt lat="25.429532" lon="100.788505">
<time>2016-10-07T04:55:38Z</time></trkpt>
<trkpt lat="25.429562" lon="100.788315">
<time>2016-10-07T04:55:39Z</time></trkpt>
<trkpt lat="25.429572" lon="100.788225">
<time>2016-10-07T04:55:40Z</time></trkpt>
<trkpt lat="25.429572" lon="100.788115">
<time>2016-10-07T04:55:41Z</time></trkpt>
<trkpt lat="25.429571" lon="100.787985">
<time>2016-10-07T04:55:42Z</time></trkpt>
<trkpt lat="25.429561" lon="100.787885">
<time>2016-10-07T04:55:43Z</time></trkpt>
<trkpt lat="25.429551" lon="100.787805">
<time>2016-10-07T04:55:44Z</time></trkpt>
<trkpt lat="25.429521" lon="100.787675">
<time>2016-10-07T04:55:45Z</time></trkpt>
<trkpt lat="25.42938" lon="100.787274">
<time>2016-10-07T04:55:46Z</time></trkpt>
<trkpt lat="25.42923" lon="100.786964">
<time>2016-10-07T04:55:47Z</time></trkpt>
<trkpt lat="25.429029" lon="100.786423">
<time>2016-10-07T04:55:48Z</time></trkpt>
<trkpt lat="25.428799" lon="100.785993">
<time>2016-10-07T04:55:49Z</time></trkpt>
<trkpt lat="25.428237" lon="100.784862">
<time>2016-10-07T04:55:50Z</time></trkpt>
<trkpt lat="25.427666" lon="100.783731">
<time>2016-10-07T04:55:51Z</time></trkpt>
<trkpt lat="25.427565" lon="100.783571">
<time>2016-10-07T04:55:52Z</time></trkpt>
<trkpt lat="25.427465" lon="100.783441">
<time>2016-10-07T04:55:53Z</time></trkpt>
<trkpt lat="25.427265" lon="100.783231">
<time>2016-10-07T04:55:54Z</time></trkpt>
<trkpt lat="25.426964" lon="100.782981">
<time>2016-10-07T04:55:55Z</time></trkpt>
<trkpt lat="25.426704" lon="100.78277">
<time>2016-10-07T04:55:56Z</time></trkpt>
<trkpt lat="25.426474" lon="100.78256">
<time>2016-10-07T04:55:57Z</time></trkpt>
<trkpt lat="25.426254" lon="100.78232">
<time>2016-10-07T04:55:58Z</time></trkpt>
<trkpt lat="25.425813" lon="100.7818">
<time>2016-10-07T04:55:59Z</time></trkpt>
<trkpt lat="25.425773" lon="100.78176">
<time>2016-10-07T04:56:00Z</time></trkpt>
<trkpt lat="25.425452" lon="100.781389">
<time>2016-10-07T04:56:01Z</time></trkpt>
<trkpt lat="25.425412" lon="100.781339">
<time>2016-10-07T04:56:02Z</time></trkpt>
<trkpt lat="25.424952" lon="100.780839">
<time>2016-10-07T04:56:03Z</time></trkpt>
<trkpt lat="25.42422" lon="100.779999">
<time>2016-10-07T04:56:04Z</time></trkpt>
<trkpt lat="25.42356" lon="100.779288">
<time>2016-10-07T04:56:05Z</time></trkpt>
<trkpt lat="25.423229" lon="100.778948">
<time>2016-10-07T04:56:06Z</time></trkpt>
<trkpt lat="25.422999" lon="100.778678">
<time>2016-10-07T04:56:07Z</time></trkpt>
<trkpt lat="25.422468" lon="100.777967">
<time>2016-10-07T04:56:08Z</time></trkpt>
<trkpt lat="25.421947" lon="100.777247">
<time>2016-10-07T04:56:09Z</time></trkpt>
<trkpt lat="25.421657" lon="100.776907">
<time>2016-10-07T04:56:10Z</time></trkpt>
<trkpt lat="25.421266" lon="100.776566">
<time>2016-10-07T04:56:11Z</time></trkpt>
<trkpt lat="25.420896" lon="100.776266">
<time>2016-10-07T04:56:12Z</time></trkpt>
<trkpt lat="25.417993" lon="100.774285">
<time>2016-10-07T04:56:13Z</time></trkpt>
<trkpt lat="25.417803" lon="100.774125">
<time>2016-10-07T04:56:14Z</time></trkpt>
<trkpt lat="25.417693" lon="100.774015">
<time>2016-10-07T04:56:15Z</time></trkpt>
<trkpt lat="25.417643" lon="100.773955">
<time>2016-10-07T04:56:16Z</time></trkpt>
<trkpt lat="25.417483" lon="100.773795">
<time>2016-10-07T04:56:17Z</time></trkpt>
<trkpt lat="25.417353" lon="100.773655">
<time>2016-10-07T04:56:18Z</time></trkpt>
<trkpt lat="25.417192" lon="100.773505">
<time>2016-10-07T04:56:19Z</time></trkpt>
<trkpt lat="25.417032" lon="100.773365">
<time>2016-10-07T04:56:20Z</time></trkpt>
<trkpt lat="25.416882" lon="100.773215">
<time>2016-10-07T04:56:21Z</time></trkpt>
<trkpt lat="25.416732" lon="100.773065">
<time>2016-10-07T04:56:22Z</time></trkpt>
<trkpt lat="25.416682" lon="100.773025">
<time>2016-10-07T04:56:23Z</time></trkpt>
<trkpt lat="25.416622" lon="100.772955">
<time>2016-10-07T04:56:24Z</time></trkpt>
<trkpt lat="25.416572" lon="100.772915">
<time>2016-10-07T04:56:25Z</time></trkpt>
<trkpt lat="25.416412" lon="100.772765">
<time>2016-10-07T04:56:26Z</time></trkpt>
<trkpt lat="25.416251" lon="100.772605">
<time>2016-10-07T04:56:27Z</time></trkpt>
<trkpt lat="25.416081" lon="100.772445">
<time>2016-10-07T04:56:28Z</time></trkpt>
<trkpt lat="25.415921" lon="100.772284">
<time>2016-10-07T04:56:29Z</time></trkpt>
<trkpt lat="25.415761" lon="100.772134">
<time>2016-10-07T04:56:30Z</time></trkpt>
<trkpt lat="25.415631" lon="100.771984">
<time>2016-10-07T04:56:31Z</time></trkpt>
<trkpt lat="25.415481" lon="100.771824">
<time>2016-10-07T04:56:32Z</time></trkpt>
<trkpt lat="25.41534" lon="100.771684">
<time>2016-10-07T04:56:33Z</time></trkpt>
<trkpt lat="25.41521" lon="100.771564">
<time>2016-10-07T04:56:34Z</time></trkpt>
<trkpt lat="25.41509" lon="100.771454">
<time>2016-10-07T04:56:35Z</time></trkpt>
<trkpt lat="25.41497" lon="100.771324">
<time>2016-10-07T04:56:36Z</time></trkpt>
<trkpt lat="25.41485" lon="100.771194">
<time>2016-10-07T04:56:37Z</time></trkpt>
<trkpt lat="25.41482" lon="100.771164">
<time>2016-10-07T04:56:38Z</time></trkpt>
<trkpt lat="25.41471" lon="100.771054">
<time>2016-10-07T04:56:39Z</time></trkpt>
<trkpt lat="25.41457" lon="100.770904">
<time>2016-10-07T04:56:40Z</time></trkpt>
<trkpt lat="25.41442" lon="100.770744">
<time>2016-10-07T04:56:41Z</time></trkpt>
<trkpt lat="25.414269" lon="100.770584">
<time>2016-10-07T04:56:42Z</time></trkpt>
<trkpt lat="25.414119" lon="100.770424">
<time>2016-10-07T04:56:43Z</time></trkpt>
<trkpt lat="25.413989" lon="100.770294">
<time>2016-10-07T04:56:44Z</time></trkpt>
<trkpt lat="25.413859" lon="100.770154">
<time>2016-10-07T04:56:45Z</time></trkpt>
<trkpt lat="25.413729" lon="100.769974">
<time>2016-10-07T04:56:46Z</time></trkpt>
<trkpt lat="25.413609" lon="100.769794">
<time>2016-10-07T04:56:47Z</time></trkpt>
<trkpt lat="25.413488" lon="100.769594">
<time>2016-10-07T04:56:48Z</time></trkpt>
<trkpt lat="25.413388" lon="100.769423">
<time>2016-10-07T04:56:49Z</time></trkpt>
<trkpt lat="25.413288" lon="100.769273">
<time>2016-10-07T04:56:50Z</time></trkpt>
<trkpt lat="25.413208" lon="100.769113">
<time>2016-10-07T04:56:51Z</time></trkpt>
<trkpt lat="25.413118" lon="100.768873">
<time>2016-10-07T04:56:52Z</time></trkpt>
<trkpt lat="25.413038" lon="100.768723">
<time>2016-10-07T04:56:53Z</time></trkpt>
<trkpt lat="25.412938" lon="100.768553">
<time>2016-10-07T04:56:54Z</time></trkpt>
<trkpt lat="25.412827" lon="100.768403">
<time>2016-10-07T04:56:55Z</time></trkpt>
<trkpt lat="25.412727" lon="100.768203">
<time>2016-10-07T04:56:56Z</time></trkpt>
<trkpt lat="25.412607" lon="100.768033">
<time>2016-10-07T04:56:57Z</time></trkpt>
<trkpt lat="25.412527" lon="100.767853">
<time>2016-10-07T04:56:58Z</time></trkpt>
<trkpt lat="25.412427" lon="100.767673">
<time>2016-10-07T04:56:59Z</time></trkpt>
<trkpt lat="25.412377" lon="100.767613">
<time>2016-10-07T04:57:00Z</time></trkpt>
<trkpt lat="25.412317" lon="100.767513">
<time>2016-10-07T04:57:01Z</time></trkpt>
<trkpt lat="25.412217" lon="100.767333">
<time>2016-10-07T04:57:02Z</time></trkpt>
<trkpt lat="25.412106" lon="100.767163">
<time>2016-10-07T04:57:03Z</time></trkpt>
<trkpt lat="25.412006" lon="100.766963">
<time>2016-10-07T04:57:04Z</time></trkpt>
<trkpt lat="25.411886" lon="100.766763">
<time>2016-10-07T04:57:05Z</time></trkpt>
<trkpt lat="25.411776" lon="100.766563">
<time>2016-10-07T04:57:06Z</time></trkpt>
<trkpt lat="25.411656" lon="100.766363">
<time>2016-10-07T04:57:07Z</time></trkpt>
<trkpt lat="25.411536" lon="100.766153">
<time>2016-10-07T04:57:08Z</time></trkpt>
<trkpt lat="25.411415" lon="100.765943">
<time>2016-10-07T04:57:09Z</time></trkpt>
<trkpt lat="25.411295" lon="100.765723">
<time>2016-10-07T04:57:10Z</time></trkpt>
<trkpt lat="25.411175" lon="100.765503">
<time>2016-10-07T04:57:11Z</time></trkpt>
<trkpt lat="25.411055" lon="100.765293">
<time>2016-10-07T04:57:12Z</time></trkpt>
<trkpt lat="25.410935" lon="100.765083">
<time>2016-10-07T04:57:13Z</time></trkpt>
<trkpt lat="25.410805" lon="100.764863">
<time>2016-10-07T04:57:14Z</time></trkpt>
<trkpt lat="25.410685" lon="100.764663">
<time>2016-10-07T04:57:15Z</time></trkpt>
<trkpt lat="25.410584" lon="100.764463">
<time>2016-10-07T04:57:16Z</time></trkpt>
<trkpt lat="25.410484" lon="100.764292">
<time>2016-10-07T04:57:17Z</time></trkpt>
<trkpt lat="25.410374" lon="100.764112">
<time>2016-10-07T04:57:18Z</time></trkpt>
<trkpt lat="25.410264" lon="100.763932">
<time>2016-10-07T04:57:19Z</time></trkpt>
<trkpt lat="25.410154" lon="100.763752">
<time>2016-10-07T04:57:20Z</time></trkpt>
<trkpt lat="25.410014" lon="100.763522">
<time>2016-10-07T04:57:21Z</time></trkpt>
<trkpt lat="25.409864" lon="100.763272">
<time>2016-10-07T04:57:22Z</time></trkpt>
<trkpt lat="25.409713" lon="100.763012">
<time>2016-10-07T04:57:23Z</time></trkpt>
<trkpt lat="25.409583" lon="100.762762">
<time>2016-10-07T04:57:24Z</time></trkpt>
<trkpt lat="25.409443" lon="100.762552">
<time>2016-10-07T04:57:25Z</time></trkpt>
<trkpt lat="25.409303" lon="100.762312">
<time>2016-10-07T04:57:26Z</time></trkpt>
<trkpt lat="25.409153" lon="100.762032">
<time>2016-10-07T04:57:27Z</time></trkpt>
<trkpt lat="25.409013" lon="100.761772">
<time>2016-10-07T04:57:28Z</time></trkpt>
<trkpt lat="25.408873" lon="100.761532">
<time>2016-10-07T04:57:29Z</time></trkpt>
<trkpt lat="25.408722" lon="100.761282">
<time>2016-10-07T04:57:30Z</time></trkpt>
<trkpt lat="25.408582" lon="100.761032">
<time>2016-10-07T04:57:31Z</time></trkpt>
<trkpt lat="25.408462" lon="100.760812">
<time>2016-10-07T04:57:32Z</time></trkpt>
<trkpt lat="25.408392" lon="100.760692">
<time>2016-10-07T04:57:33Z</time></trkpt>
<trkpt lat="25.408352" lon="100.760602">
<time>2016-10-07T04:57:34Z</time></trkpt>
<trkpt lat="25.408272" lon="100.760462">
<time>2016-10-07T04:57:35Z</time></trkpt>
<trkpt lat="25.408252" lon="100.760412">
<time>2016-10-07T04:57:36Z</time></trkpt>
<trkpt lat="25.408152" lon="100.760242">
<time>2016-10-07T04:57:37Z</time></trkpt>
<trkpt lat="25.408042" lon="100.760032">
<time>2016-10-07T04:57:38Z</time></trkpt>
<trkpt lat="25.407922" lon="100.759822">
<time>2016-10-07T04:57:39Z</time></trkpt>
<trkpt lat="25.407801" lon="100.759612">
<time>2016-10-07T04:57:40Z</time></trkpt>
<trkpt lat="25.407681" lon="100.759422">
<time>2016-10-07T04:57:41Z</time></trkpt>
<trkpt lat="25.407591" lon="100.759253">
<time>2016-10-07T04:57:42Z</time></trkpt>
<trkpt lat="25.407481" lon="100.759073">
<time>2016-10-07T04:57:43Z</time></trkpt>
<trkpt lat="25.407371" lon="100.758913">
<time>2016-10-07T04:57:44Z</time></trkpt>
<trkpt lat="25.407311" lon="100.758803">
<time>2016-10-07T04:57:45Z</time></trkpt>
<trkpt lat="25.407231" lon="100.758663">
<time>2016-10-07T04:57:46Z</time></trkpt>
<trkpt lat="25.407151" lon="100.758543">
<time>2016-10-07T04:57:47Z</time></trkpt>
<trkpt lat="25.407081" lon="100.758413">
<time>2016-10-07T04:57:48Z</time></trkpt>
<trkpt lat="25.407001" lon="100.758283">
<time>2016-10-07T04:57:49Z</time></trkpt>
<trkpt lat="25.406911" lon="100.758133">
<time>2016-10-07T04:57:50Z</time></trkpt>
<trkpt lat="25.406821" lon="100.757973">
<time>2016-10-07T04:57:51Z</time></trkpt>
<trkpt lat="25.406711" lon="100.757803">
<time>2016-10-07T04:57:52Z</time></trkpt>
<trkpt lat="25.406611" lon="100.757613">
<time>2016-10-07T04:57:53Z</time></trkpt>
<trkpt lat="25.4065" lon="100.757453">
<time>2016-10-07T04:57:54Z</time></trkpt>
<trkpt lat="25.40639" lon="100.757253">
<time>2016-10-07T04:57:55Z</time></trkpt>
<trkpt lat="25.40629" lon="100.757053">
<time>2016-10-07T04:57:56Z</time></trkpt>
<trkpt lat="25.40619" lon="100.756873">
<time>2016-10-07T04:57:57Z</time></trkpt>
<trkpt lat="25.40606" lon="100.756663">
<time>2016-10-07T04:57:58Z</time></trkpt>
<trkpt lat="25.40593" lon="100.756463">
<time>2016-10-07T04:57:59Z</time></trkpt>
<trkpt lat="25.40583" lon="100.756273">
<time>2016-10-07T04:58:00Z</time></trkpt>
<trkpt lat="25.40573" lon="100.756083">
<time>2016-10-07T04:58:01Z</time></trkpt>
<trkpt lat="25.40561" lon="100.755873">
<time>2016-10-07T04:58:02Z</time></trkpt>
<trkpt lat="25.40548" lon="100.755683">
<time>2016-10-07T04:58:03Z</time></trkpt>
<trkpt lat="25.40537" lon="100.755493">
<time>2016-10-07T04:58:04Z</time></trkpt>
<trkpt lat="25.40526" lon="100.755303">
<time>2016-10-07T04:58:05Z</time></trkpt>
<trkpt lat="25.40519" lon="100.755113">
<time>2016-10-07T04:58:06Z</time></trkpt>
<trkpt lat="25.405109" lon="100.754923">
<time>2016-10-07T04:58:07Z</time></trkpt>
<trkpt lat="25.405069" lon="100.754703">
<time>2016-10-07T04:58:08Z</time></trkpt>
<trkpt lat="25.405069" lon="100.754683">
<time>2016-10-07T04:58:09Z</time></trkpt>
<trkpt lat="25.405089" lon="100.754463">
<time>2016-10-07T04:58:10Z</time></trkpt>
<trkpt lat="25.405149" lon="100.754254">
<time>2016-10-07T04:58:11Z</time></trkpt>
<trkpt lat="25.405219" lon="100.754024">
<time>2016-10-07T04:58:12Z</time></trkpt>
<trkpt lat="25.405319" lon="100.753764">
<time>2016-10-07T04:58:13Z</time></trkpt>
<trkpt lat="25.405409" lon="100.753524">
<time>2016-10-07T04:58:14Z</time></trkpt>
<trkpt lat="25.405509" lon="100.753314">
<time>2016-10-07T04:58:15Z</time></trkpt>
<trkpt lat="25.405619" lon="100.753064">
<time>2016-10-07T04:58:16Z</time></trkpt>
<trkpt lat="25.405739" lon="100.752824">
<time>2016-10-07T04:58:17Z</time></trkpt>
<trkpt lat="25.405819" lon="100.752614">
<time>2016-10-07T04:58:18Z</time></trkpt>
<trkpt lat="25.405909" lon="100.752414">
<time>2016-10-07T04:58:19Z</time></trkpt>
<trkpt lat="25.406009" lon="100.752174">
<time>2016-10-07T04:58:20Z</time></trkpt>
<trkpt lat="25.406099" lon="100.751954">
<time>2016-10-07T04:58:21Z</time></trkpt>
<trkpt lat="25.406189" lon="100.751724">
<time>2016-10-07T04:58:22Z</time></trkpt>
<trkpt lat="25.406249" lon="100.751544">
<time>2016-10-07T04:58:23Z</time></trkpt>
<trkpt lat="25.406309" lon="100.751345">
<time>2016-10-07T04:58:24Z</time></trkpt>
<trkpt lat="25.406379" lon="100.751105">
<time>2016-10-07T04:58:25Z</time></trkpt>
<trkpt lat="25.406449" lon="100.750875">
<time>2016-10-07T04:58:26Z</time></trkpt>
<trkpt lat="25.406569" lon="100.750385">
<time>2016-10-07T04:58:27Z</time></trkpt>
<trkpt lat="25.406629" lon="100.750015">
<time>2016-10-07T04:58:28Z</time></trkpt>
<trkpt lat="25.406749" lon="100.749595">
<time>2016-10-07T04:58:29Z</time></trkpt>
<trkpt lat="25.406809" lon="100.749435">
<time>2016-10-07T04:58:30Z</time></trkpt>
<trkpt lat="25.406859" lon="100.749235">
<time>2016-10-07T04:58:31Z</time></trkpt>
<trkpt lat="25.406939" lon="100.749076">
<time>2016-10-07T04:58:32Z</time></trkpt>
<trkpt lat="25.407049" lon="100.748876">
<time>2016-10-07T04:58:33Z</time></trkpt>
<trkpt lat="25.407169" lon="100.748706">
<time>2016-10-07T04:58:34Z</time></trkpt>
<trkpt lat="25.407309" lon="100.748546">
<time>2016-10-07T04:58:35Z</time></trkpt>
<trkpt lat="25.407429" lon="100.748376">
<time>2016-10-07T04:58:36Z</time></trkpt>
<trkpt lat="25.407529" lon="100.748216">
<time>2016-10-07T04:58:37Z</time></trkpt>
<trkpt lat="25.407629" lon="100.748056">
<time>2016-10-07T04:58:38Z</time></trkpt>
<trkpt lat="25.407709" lon="100.747876">
<time>2016-10-07T04:58:39Z</time></trkpt>
<trkpt lat="25.407759" lon="100.747696">
<time>2016-10-07T04:58:40Z</time></trkpt>
<trkpt lat="25.407799" lon="100.747526">
<time>2016-10-07T04:58:41Z</time></trkpt>
<trkpt lat="25.407839" lon="100.747376">
<time>2016-10-07T04:58:42Z</time></trkpt>
<trkpt lat="25.407879" lon="100.747227">
<time>2016-10-07T04:58:43Z</time></trkpt>
<trkpt lat="25.407909" lon="100.747077">
<time>2016-10-07T04:58:44Z</time></trkpt>
<trkpt lat="25.407939" lon="100.746917">
<time>2016-10-07T04:58:45Z</time></trkpt>
<trkpt lat="25.407969" lon="100.746767">
<time>2016-10-07T04:58:46Z</time></trkpt>
<trkpt lat="25.408009" lon="100.746577">
<time>2016-10-07T04:58:47Z</time></trkpt>
<trkpt lat="25.40804" lon="100.746417">
<time>2016-10-07T04:58:48Z</time></trkpt>
<trkpt lat="25.40807" lon="100.746237">
<time>2016-10-07T04:58:49Z</time></trkpt>
<trkpt lat="25.4081" lon="100.746067">
<time>2016-10-07T04:58:50Z</time></trkpt>
<trkpt lat="25.40815" lon="100.745887">
<time>2016-10-07T04:58:51Z</time></trkpt>
<trkpt lat="25.40817" lon="100.745707">
<time>2016-10-07T04:58:52Z</time></trkpt>
<trkpt lat="25.4082" lon="100.745468">
<time>2016-10-07T04:58:53Z</time></trkpt>
<trkpt lat="25.40824" lon="100.745198">
<time>2016-10-07T04:58:54Z</time></trkpt>
<trkpt lat="25.40828" lon="100.744968">
<time>2016-10-07T04:58:55Z</time></trkpt>
<trkpt lat="25.40831" lon="100.744728">
<time>2016-10-07T04:58:56Z</time></trkpt>
<trkpt lat="25.40834" lon="100.744488">
<time>2016-10-07T04:58:57Z</time></trkpt>
<trkpt lat="25.40836" lon="100.744278">
<time>2016-10-07T04:58:58Z</time></trkpt>
<trkpt lat="25.40838" lon="100.744029">
<time>2016-10-07T04:58:59Z</time></trkpt>
<trkpt lat="25.40842" lon="100.743779">
<time>2016-10-07T04:59:00Z</time></trkpt>
<trkpt lat="25.40844" lon="100.743549">
<time>2016-10-07T04:59:01Z</time></trkpt>
<trkpt lat="25.40846" lon="100.743329">
<time>2016-10-07T04:59:02Z</time></trkpt>
<trkpt lat="25.40846" lon="100.743319">
<time>2016-10-07T04:59:03Z</time></trkpt>
<trkpt lat="25.40845" lon="100.743139">
<time>2016-10-07T04:59:04Z</time></trkpt>
<trkpt lat="25.40845" lon="100.742969">
<time>2016-10-07T04:59:05Z</time></trkpt>
<trkpt lat="25.40844" lon="100.742859">
<time>2016-10-07T04:59:06Z</time></trkpt>
<trkpt lat="25.40843" lon="100.74267">
<time>2016-10-07T04:59:07Z</time></trkpt>
<trkpt lat="25.40842" lon="100.74252">
<time>2016-10-07T04:59:08Z</time></trkpt>
<trkpt lat="25.40841" lon="100.74239">
<time>2016-10-07T04:59:09Z</time></trkpt>
<trkpt lat="25.40841" lon="100.74228">
<time>2016-10-07T04:59:10Z</time></trkpt>
<trkpt lat="25.40838" lon="100.74211">
<time>2016-10-07T04:59:11Z</time></trkpt>
<trkpt lat="25.40837" lon="100.74208">
<time>2016-10-07T04:59:12Z</time></trkpt>
<trkpt lat="25.40835" lon="100.74192">
<time>2016-10-07T04:59:13Z</time></trkpt>
<trkpt lat="25.40831" lon="100.74175">
<time>2016-10-07T04:59:14Z</time></trkpt>
<trkpt lat="25.40826" lon="100.74158">
<time>2016-10-07T04:59:15Z</time></trkpt>
<trkpt lat="25.408201" lon="100.741391">
<time>2016-10-07T04:59:16Z</time></trkpt>
<trkpt lat="25.408141" lon="100.741211">
<time>2016-10-07T04:59:17Z</time></trkpt>
<trkpt lat="25.408061" lon="100.741031">
<time>2016-10-07T04:59:18Z</time></trkpt>
<trkpt lat="25.407971" lon="100.740871">
<time>2016-10-07T04:59:19Z</time></trkpt>
<trkpt lat="25.407851" lon="100.740681">
<time>2016-10-07T04:59:20Z</time></trkpt>
<trkpt lat="25.407691" lon="100.740491">
<time>2016-10-07T04:59:21Z</time></trkpt>
<trkpt lat="25.407571" lon="100.740312">
<time>2016-10-07T04:59:22Z</time></trkpt>
<trkpt lat="25.407451" lon="100.740132">
<time>2016-10-07T04:59:23Z</time></trkpt>
<trkpt lat="25.407311" lon="100.739932">
<time>2016-10-07T04:59:24Z</time></trkpt>
<trkpt lat="25.407201" lon="100.739742">
<time>2016-10-07T04:59:25Z</time></trkpt>
<trkpt lat="25.407121" lon="100.739582">
<time>2016-10-07T04:59:26Z</time></trkpt>
<trkpt lat="25.407041" lon="100.739412">
<time>2016-10-07T04:59:27Z</time></trkpt>
<trkpt lat="25.406961" lon="100.739203">
<time>2016-10-07T04:59:28Z</time></trkpt>
<trkpt lat="25.406941" lon="100.739013">
<time>2016-10-07T04:59:29Z</time></trkpt>
<trkpt lat="25.406931" lon="100.738823">
<time>2016-10-07T04:59:30Z</time></trkpt>
<trkpt lat="25.406961" lon="100.738643">
<time>2016-10-07T04:59:31Z</time></trkpt>
<trkpt lat="25.407001" lon="100.738473">
<time>2016-10-07T04:59:32Z</time></trkpt>
<trkpt lat="25.407041" lon="100.738323">
<time>2016-10-07T04:59:33Z</time></trkpt>
<trkpt lat="25.407081" lon="100.738183">
<time>2016-10-07T04:59:34Z</time></trkpt>
<trkpt lat="25.407091" lon="100.738064">
<time>2016-10-07T04:59:35Z</time></trkpt>
<trkpt lat="25.407142" lon="100.737944">
<time>2016-10-07T04:59:36Z</time></trkpt>
<trkpt lat="25.407182" lon="100.737844">
<time>2016-10-07T04:59:37Z</time></trkpt>
<trkpt lat="25.407232" lon="100.737714">
<time>2016-10-07T04:59:38Z</time></trkpt>
<trkpt lat="25.407272" lon="100.737604">
<time>2016-10-07T04:59:39Z</time></trkpt>
<trkpt lat="25.407302" lon="100.737484">
<time>2016-10-07T04:59:40Z</time></trkpt>
<trkpt lat="25.407342" lon="100.737384">
<time>2016-10-07T04:59:41Z</time></trkpt>
<trkpt lat="25.407382" lon="100.737284">
<time>2016-10-07T04:59:42Z</time></trkpt>
<trkpt lat="25.407432" lon="100.737134">
<time>2016-10-07T04:59:43Z</time></trkpt>
<trkpt lat="25.407492" lon="100.737035">
<time>2016-10-07T04:59:44Z</time></trkpt>
<trkpt lat="25.407532" lon="100.736935">
<time>2016-10-07T04:59:45Z</time></trkpt>
<trkpt lat="25.407582" lon="100.736805">
<time>2016-10-07T04:59:46Z</time></trkpt>
<trkpt lat="25.407642" lon="100.736675">
<time>2016-10-07T04:59:47Z</time></trkpt>
<trkpt lat="25.407702" lon="100.736545">
<time>2016-10-07T04:59:48Z</time></trkpt>
<trkpt lat="25.407752" lon="100.736425">
<time>2016-10-07T04:59:49Z</time></trkpt>
<trkpt lat="25.407802" lon="100.736315">
<time>2016-10-07T04:59:50Z</time></trkpt>
<trkpt lat="25.407852" lon="100.736195">
<time>2016-10-07T04:59:51Z</time></trkpt>
<trkpt lat="25.407903" lon="100.736076">
<time>2016-10-07T04:59:52Z</time></trkpt>
<trkpt lat="25.407963" lon="100.735956">
<time>2016-10-07T04:59:53Z</time></trkpt>
<trkpt lat="25.408043" lon="100.735816">
<time>2016-10-07T04:59:54Z</time></trkpt>
<trkpt lat="25.408093" lon="100.735676">
<time>2016-10-07T04:59:55Z</time></trkpt>
<trkpt lat="25.408173" lon="100.735536">
<time>2016-10-07T04:59:56Z</time></trkpt>
<trkpt lat="25.408243" lon="100.735376">
<time>2016-10-07T04:59:57Z</time></trkpt>
<trkpt lat="25.408303" lon="100.735266">
<time>2016-10-07T04:59:58Z</time></trkpt>
<trkpt lat="25.408363" lon="100.735147">
<time>2016-10-07T04:59:59Z</time></trkpt>
<trkpt lat="25.408423" lon="100.735047">
<time>2016-10-07T05:00:00Z</time></trkpt>
<trkpt lat="25.408483" lon="100.734917">
<time>2016-10-07T05:00:01Z</time></trkpt>
<trkpt lat="25.408543" lon="100.734787">
<time>2016-10-07T05:00:02Z</time></trkpt>
<trkpt lat="25.408613" lon="100.734667">
<time>2016-10-07T05:00:03Z</time></trkpt>
<trkpt lat="25.408683" lon="100.734537">
<time>2016-10-07T05:00:04Z</time></trkpt>
<trkpt lat="25.408764" lon="100.734377">
<time>2016-10-07T05:00:05Z</time></trkpt>
<trkpt lat="25.408874" lon="100.734198">
<time>2016-10-07T05:00:06Z</time></trkpt>
<trkpt lat="25.408964" lon="100.734028">
<time>2016-10-07T05:00:07Z</time></trkpt>
<trkpt lat="25.408974" lon="100.734028">
<time>2016-10-07T05:00:08Z</time></trkpt>
<trkpt lat="25.409044" lon="100.733888">
<time>2016-10-07T05:00:09Z</time></trkpt>
<trkpt lat="25.409134" lon="100.733728">
<time>2016-10-07T05:00:10Z</time></trkpt>
<trkpt lat="25.409254" lon="100.733538">
<time>2016-10-07T05:00:11Z</time></trkpt>
<trkpt lat="25.409364" lon="100.733348">
<time>2016-10-07T05:00:12Z</time></trkpt>
<trkpt lat="25.409494" lon="100.733159">
<time>2016-10-07T05:00:13Z</time></trkpt>
<trkpt lat="25.409645" lon="100.732929">
<time>2016-10-07T05:00:14Z</time></trkpt>
<trkpt lat="25.409775" lon="100.732739">
<time>2016-10-07T05:00:15Z</time></trkpt>
<trkpt lat="25.409895" lon="100.732559">
<time>2016-10-07T05:00:16Z</time></trkpt>
<trkpt lat="25.409985" lon="100.73241">
<time>2016-10-07T05:00:17Z</time></trkpt>
<trkpt lat="25.410125" lon="100.73225">
<time>2016-10-07T05:00:18Z</time></trkpt>
<trkpt lat="25.410245" lon="100.73209">
<time>2016-10-07T05:00:19Z</time></trkpt>
<trkpt lat="25.410365" lon="100.73193">
<time>2016-10-07T05:00:20Z</time></trkpt>
<trkpt lat="25.410475" lon="100.73177">
<time>2016-10-07T05:00:21Z</time></trkpt>
<trkpt lat="25.410596" lon="100.73161">
<time>2016-10-07T05:00:22Z</time></trkpt>
<trkpt lat="25.410716" lon="100.731441">
<time>2016-10-07T05:00:23Z</time></trkpt>
<trkpt lat="25.410856" lon="100.731281">
<time>2016-10-07T05:00:24Z</time></trkpt>
<trkpt lat="25.410976" lon="100.731111">
<time>2016-10-07T05:00:25Z</time></trkpt>
<trkpt lat="25.411096" lon="100.730961">
<time>2016-10-07T05:00:26Z</time></trkpt>
<trkpt lat="25.411226" lon="100.730791">
<time>2016-10-07T05:00:27Z</time></trkpt>
<trkpt lat="25.411346" lon="100.730622">
<time>2016-10-07T05:00:28Z</time></trkpt>
<trkpt lat="25.411457" lon="100.730472">
<time>2016-10-07T05:00:29Z</time></trkpt>
<trkpt lat="25.411577" lon="100.730322">
<time>2016-10-07T05:00:30Z</time></trkpt>
<trkpt lat="25.411677" lon="100.730182">
<time>2016-10-07T05:00:31Z</time></trkpt>
<trkpt lat="25.411777" lon="100.730032">
<time>2016-10-07T05:00:32Z</time></trkpt>
<trkpt lat="25.411887" lon="100.729903">
<time>2016-10-07T05:00:33Z</time></trkpt>
<trkpt lat="25.411977" lon="100.729773">
<time>2016-10-07T05:00:34Z</time></trkpt>
<trkpt lat="25.412077" lon="100.729623">
<time>2016-10-07T05:00:35Z</time></trkpt>
<trkpt lat="25.412157" lon="100.729463">
<time>2016-10-07T05:00:36Z</time></trkpt>
<trkpt lat="25.412218" lon="100.729333">
<time>2016-10-07T05:00:37Z</time></trkpt>
<trkpt lat="25.412248" lon="100.729253">
<time>2016-10-07T05:00:38Z</time></trkpt>
<trkpt lat="25.412248" lon="100.729253">
<time>2016-10-07T05:00:39Z</time></trkpt>
<trkpt lat="25.411758" lon="100.728524">
<time>2016-10-07T05:00:40Z</time></trkpt>
<trkpt lat="25.411588" lon="100.728105">
<time>2016-10-07T05:00:41Z</time></trkpt>
<trkpt lat="25.411429" lon="100.727666">
<time>2016-10-07T05:00:42Z</time></trkpt>
<trkpt lat="25.411319" lon="100.727376">
<time>2016-10-07T05:00:43Z</time></trkpt>
<trkpt lat="25.411179" lon="100.726957">
<time>2016-10-07T05:00:44Z</time></trkpt>
<trkpt lat="25.411179" lon="100.726937">
<time>2016-10-07T05:00:45Z</time></trkpt>
<trkpt lat="25.411069" lon="100.726597">
<time>2016-10-07T05:00:46Z</time></trkpt>
<trkpt lat="25.41094" lon="100.726277">
<time>2016-10-07T05:00:47Z</time></trkpt>
<trkpt lat="25.41078" lon="100.725958">
<time>2016-10-07T05:00:48Z</time></trkpt>
<trkpt lat="25.41058" lon="100.725469">
<time>2016-10-07T05:00:49Z</time></trkpt>
<trkpt lat="25.410431" lon="100.725129">
<time>2016-10-07T05:00:50Z</time></trkpt>
<trkpt lat="25.410171" lon="100.72462">
<time>2016-10-07T05:00:51Z</time></trkpt>
<trkpt lat="25.409921" lon="100.724101">
<time>2016-10-07T05:00:52Z</time></trkpt>
<trkpt lat="25.409692" lon="100.723601">
<time>2016-10-07T05:00:53Z</time></trkpt>
<trkpt lat="25.409542" lon="100.723312">
<time>2016-10-07T05:00:54Z</time></trkpt>
<trkpt lat="25.409342" lon="100.722853">
<time>2016-10-07T05:00:55Z</time></trkpt>
<trkpt lat="25.409103" lon="100.722353">
<time>2016-10-07T05:00:56Z</time></trkpt>
<trkpt lat="25.408853" lon="100.721834">
<time>2016-10-07T05:00:57Z</time></trkpt>
<trkpt lat="25.408644" lon="100.721365">
<time>2016-10-07T05:00:58Z</time></trkpt>
<trkpt lat="25.408464" lon="100.720906">
<time>2016-10-07T05:00:59Z</time></trkpt>
<trkpt lat="25.408235" lon="100.720476">
<time>2016-10-07T05:01:00Z</time></trkpt>
<trkpt lat="25.408115" lon="100.720287">
<time>2016-10-07T05:01:01Z</time></trkpt>
<trkpt lat="25.408005" lon="100.720057">
<time>2016-10-07T05:01:02Z</time></trkpt>
<trkpt lat="25.407755" lon="100.719538">
<time>2016-10-07T05:01:03Z</time></trkpt>
<trkpt lat="25.407576" lon="100.719159">
<time>2016-10-07T05:01:04Z</time></trkpt>
<trkpt lat="25.407386" lon="100.718729">
<time>2016-10-07T05:01:05Z</time></trkpt>
<trkpt lat="25.407197" lon="100.71832">
<time>2016-10-07T05:01:06Z</time></trkpt>
<trkpt lat="25.407077" lon="100.71805">
<time>2016-10-07T05:01:07Z</time></trkpt>
<trkpt lat="25.406987" lon="100.717891">
<time>2016-10-07T05:01:08Z</time></trkpt>
<trkpt lat="25.406907" lon="100.717511">
<time>2016-10-07T05:01:09Z</time></trkpt>
<trkpt lat="25.406838" lon="100.717242">
<time>2016-10-07T05:01:10Z</time></trkpt>
<trkpt lat="25.406738" lon="100.716912">
<time>2016-10-07T05:01:11Z</time></trkpt>
<trkpt lat="25.406589" lon="100.716393">
<time>2016-10-07T05:01:12Z</time></trkpt>
<trkpt lat="25.406489" lon="100.716044">
<time>2016-10-07T05:01:13Z</time></trkpt>
<trkpt lat="25.40633" lon="100.715505">
<time>2016-10-07T05:01:14Z</time></trkpt>
<trkpt lat="25.40616" lon="100.714986">
<time>2016-10-07T05:01:15Z</time></trkpt>
<trkpt lat="25.406001" lon="100.714497">
<time>2016-10-07T05:01:16Z</time></trkpt>
<trkpt lat="25.405851" lon="100.714018">
<time>2016-10-07T05:01:17Z</time></trkpt>
<trkpt lat="25.405692" lon="100.713499">
<time>2016-10-07T05:01:18Z</time></trkpt>
<trkpt lat="25.405533" lon="100.713">
<time>2016-10-07T05:01:19Z</time></trkpt>
<trkpt lat="25.405373" lon="100.71248">
<time>2016-10-07T05:01:20Z</time></trkpt>
<trkpt lat="25.405224" lon="100.711961">
<time>2016-10-07T05:01:21Z</time></trkpt>
<trkpt lat="25.405055" lon="100.711423">
<time>2016-10-07T05:01:22Z</time></trkpt>
<trkpt lat="25.404895" lon="100.710913">
<time>2016-10-07T05:01:23Z</time></trkpt>
<trkpt lat="25.404666" lon="100.710175">
<time>2016-10-07T05:01:24Z</time></trkpt>
<trkpt lat="25.404666" lon="100.710175">
<time>2016-10-07T05:01:25Z</time></trkpt>
<trkpt lat="25.405247" lon="100.709875">
<time>2016-10-07T05:01:26Z</time></trkpt>
<trkpt lat="25.405577" lon="100.709706">
<time>2016-10-07T05:01:27Z</time></trkpt>
<trkpt lat="25.405797" lon="100.709616">
<time>2016-10-07T05:01:28Z</time></trkpt>
<trkpt lat="25.405917" lon="100.709556">
<time>2016-10-07T05:01:29Z</time></trkpt>
<trkpt lat="25.406157" lon="100.709416">
<time>2016-10-07T05:01:30Z</time></trkpt>
<trkpt lat="25.406448" lon="100.709287">
<time>2016-10-07T05:01:31Z</time></trkpt>
<trkpt lat="25.406888" lon="100.709037">
<time>2016-10-07T05:01:32Z</time></trkpt>
<trkpt lat="25.407198" lon="100.708857">
<time>2016-10-07T05:01:33Z</time></trkpt>
<trkpt lat="25.407549" lon="100.708678">
<time>2016-10-07T05:01:34Z</time></trkpt>
<trkpt lat="25.407799" lon="100.708558">
<time>2016-10-07T05:01:35Z</time></trkpt>
<trkpt lat="25.408249" lon="100.708309">
<time>2016-10-07T05:01:36Z</time></trkpt>
<trkpt lat="25.40858" lon="100.708169">
<time>2016-10-07T05:01:37Z</time></trkpt>
<trkpt lat="25.4088" lon="100.708049">
<time>2016-10-07T05:01:38Z</time></trkpt>
<trkpt lat="25.40899" lon="100.707939">
<time>2016-10-07T05:01:39Z</time></trkpt>
<trkpt lat="25.40942" lon="100.70772">
<time>2016-10-07T05:01:40Z</time></trkpt>
<trkpt lat="25.409831" lon="100.7075">
<time>2016-10-07T05:01:41Z</time></trkpt>
<trkpt lat="25.410001" lon="100.70742">
<time>2016-10-07T05:01:42Z</time></trkpt>
<trkpt lat="25.410261" lon="100.707271">
<time>2016-10-07T05:01:43Z</time></trkpt>
<trkpt lat="25.410602" lon="100.707101">
<time>2016-10-07T05:01:44Z</time></trkpt>
<trkpt lat="25.410942" lon="100.706931">
<time>2016-10-07T05:01:45Z</time></trkpt>
<trkpt lat="25.411222" lon="100.706792">
<time>2016-10-07T05:01:46Z</time></trkpt>
<trkpt lat="25.411362" lon="100.706692">
<time>2016-10-07T05:01:47Z</time></trkpt>
<trkpt lat="25.411612" lon="100.706572">
<time>2016-10-07T05:01:48Z</time></trkpt>
<trkpt lat="25.411893" lon="100.706432">
<time>2016-10-07T05:01:49Z</time></trkpt>
<trkpt lat="25.412193" lon="100.706283">
<time>2016-10-07T05:01:50Z</time></trkpt>
<trkpt lat="25.412543" lon="100.706163">
<time>2016-10-07T05:01:51Z</time></trkpt>
<trkpt lat="25.412603" lon="100.706143">
<time>2016-10-07T05:01:52Z</time></trkpt>
<trkpt lat="25.412673" lon="100.706113">
<time>2016-10-07T05:01:53Z</time></trkpt>
<trkpt lat="25.412924" lon="100.705953">
<time>2016-10-07T05:01:54Z</time></trkpt>
<trkpt lat="25.412964" lon="100.705933">
<time>2016-10-07T05:01:55Z</time></trkpt>
<trkpt lat="25.413054" lon="100.705863">
<time>2016-10-07T05:01:56Z</time></trkpt>
<trkpt lat="25.413224" lon="100.705744">
<time>2016-10-07T05:01:57Z</time></trkpt>
<trkpt lat="25.413685" lon="100.705414">
<time>2016-10-07T05:01:58Z</time></trkpt>
<trkpt lat="25.414065" lon="100.705125">
<time>2016-10-07T05:01:59Z</time></trkpt>
<trkpt lat="25.414536" lon="100.704766">
<time>2016-10-07T05:02:00Z</time></trkpt>
<trkpt lat="25.414756" lon="100.704606">
<time>2016-10-07T05:02:01Z</time></trkpt>
<trkpt lat="25.414906" lon="100.704496">
<time>2016-10-07T05:02:02Z</time></trkpt>
<trkpt lat="25.415367" lon="100.704157">
<time>2016-10-07T05:02:03Z</time></trkpt>
<trkpt lat="25.415567" lon="100.703987">
<time>2016-10-07T05:02:04Z</time></trkpt>
<trkpt lat="25.415687" lon="100.703907">
<time>2016-10-07T05:02:05Z</time></trkpt>
<trkpt lat="25.415777" lon="100.703858">
<time>2016-10-07T05:02:06Z</time></trkpt>
<trkpt lat="25.415867" lon="100.703798">
<time>2016-10-07T05:02:07Z</time></trkpt>
<trkpt lat="25.415938" lon="100.703748">
<time>2016-10-07T05:02:08Z</time></trkpt>
<trkpt lat="25.416048" lon="100.703668">
<time>2016-10-07T05:02:09Z</time></trkpt>
<trkpt lat="25.416198" lon="100.703558">
<time>2016-10-07T05:02:10Z</time></trkpt>
<trkpt lat="25.416428" lon="100.703408">
<time>2016-10-07T05:02:11Z</time></trkpt>
<trkpt lat="25.416598" lon="100.703309">
<time>2016-10-07T05:02:12Z</time></trkpt>
<trkpt lat="25.416658" lon="100.703289">
<time>2016-10-07T05:02:13Z</time></trkpt>
<trkpt lat="25.416678" lon="100.703269">
<time>2016-10-07T05:02:14Z</time></trkpt>
<trkpt lat="25.416829" lon="100.703169">
<time>2016-10-07T05:02:15Z</time></trkpt>
<trkpt lat="25.416959" lon="100.703079">
<time>2016-10-07T05:02:16Z</time></trkpt>
<trkpt lat="25.417349" lon="100.70277">
<time>2016-10-07T05:02:17Z</time></trkpt>
<trkpt lat="25.417459" lon="100.70267">
<time>2016-10-07T05:02:18Z</time></trkpt>
<trkpt lat="25.41757" lon="100.70254">
<time>2016-10-07T05:02:19Z</time></trkpt>
<trkpt lat="25.41768" lon="100.702461">
<time>2016-10-07T05:02:20Z</time></trkpt>
<trkpt lat="25.41792" lon="100.702231">
<time>2016-10-07T05:02:21Z</time></trkpt>
<trkpt lat="25.418131" lon="100.702041">
<time>2016-10-07T05:02:22Z</time></trkpt>
<trkpt lat="25.418391" lon="100.701822">
<time>2016-10-07T05:02:23Z</time></trkpt>
<trkpt lat="25.418551" lon="100.701702">
<time>2016-10-07T05:02:24Z</time></trkpt>
<trkpt lat="25.418772" lon="100.701532">
<time>2016-10-07T05:02:25Z</time></trkpt>
<trkpt lat="25.419002" lon="100.701333">
<time>2016-10-07T05:02:26Z</time></trkpt>
<trkpt lat="25.419222" lon="100.701183">
<time>2016-10-07T05:02:27Z</time></trkpt>
<trkpt lat="25.419372" lon="100.701044">
<time>2016-10-07T05:02:28Z</time></trkpt>
<trkpt lat="25.419593" lon="100.700874">
<time>2016-10-07T05:02:29Z</time></trkpt>
<trkpt lat="25.419813" lon="100.700734">
<time>2016-10-07T05:02:30Z</time></trkpt>
<trkpt lat="25.420053" lon="100.700535">
<time>2016-10-07T05:02:31Z</time></trkpt>
<trkpt lat="25.420514" lon="100.700175">
<time>2016-10-07T05:02:32Z</time></trkpt>
<trkpt lat="25.420714" lon="100.700006">
<time>2016-10-07T05:02:33Z</time></trkpt>
<trkpt lat="25.421145" lon="100.699677">
<time>2016-10-07T05:02:34Z</time></trkpt>
<trkpt lat="25.421445" lon="100.699437">
<time>2016-10-07T05:02:35Z</time></trkpt>
<trkpt lat="25.421676" lon="100.699237">
<time>2016-10-07T05:02:36Z</time></trkpt>
<trkpt lat="25.421936" lon="100.699028">
<time>2016-10-07T05:02:37Z</time></trkpt>
<trkpt lat="25.422166" lon="100.698858">
<time>2016-10-07T05:02:38Z</time></trkpt>
<trkpt lat="25.422377" lon="100.698689">
<time>2016-10-07T05:02:39Z</time></trkpt>
<trkpt lat="25.422527" lon="100.698549">
<time>2016-10-07T05:02:40Z</time></trkpt>
<trkpt lat="25.422577" lon="100.698489">
<time>2016-10-07T05:02:41Z</time></trkpt>
<trkpt lat="25.422657" lon="100.69832">
<time>2016-10-07T05:02:42Z</time></trkpt>
<trkpt lat="25.422818" lon="100.69793">
<time>2016-10-07T05:02:43Z</time></trkpt>
<trkpt lat="25.422989" lon="100.697511">
<time>2016-10-07T05:02:44Z</time></trkpt>
<trkpt lat="25.42316" lon="100.697112">
<time>2016-10-07T05:02:45Z</time></trkpt>
<trkpt lat="25.42329" lon="100.696793">
<time>2016-10-07T05:02:46Z</time></trkpt>
<trkpt lat="25.423501" lon="100.696324">
<time>2016-10-07T05:02:47Z</time></trkpt>
<trkpt lat="25.423702" lon="100.695855">
<time>2016-10-07T05:02:48Z</time></trkpt>
<trkpt lat="25.423913" lon="100.695396">
<time>2016-10-07T05:02:49Z</time></trkpt>
<trkpt lat="25.423943" lon="100.695326">
<time>2016-10-07T05:02:50Z</time></trkpt>
<trkpt lat="25.424093" lon="100.694947">
<time>2016-10-07T05:02:51Z</time></trkpt>
<trkpt lat="25.424284" lon="100.694518">
<time>2016-10-07T05:02:52Z</time></trkpt>
<trkpt lat="25.424465" lon="100.694099">
<time>2016-10-07T05:02:53Z</time></trkpt>
<trkpt lat="25.424646" lon="100.69368">
<time>2016-10-07T05:02:54Z</time></trkpt>
<trkpt lat="25.424816" lon="100.693301">
<time>2016-10-07T05:02:55Z</time></trkpt>
<trkpt lat="25.424857" lon="100.693201">
<time>2016-10-07T05:02:56Z</time></trkpt>
<trkpt lat="25.424877" lon="100.693151">
<time>2016-10-07T05:02:57Z</time></trkpt>
<trkpt lat="25.425007" lon="100.692832">
<time>2016-10-07T05:02:58Z</time></trkpt>
<trkpt lat="25.425178" lon="100.692433">
<time>2016-10-07T05:02:59Z</time></trkpt>
<trkpt lat="25.425318" lon="100.692144">
<time>2016-10-07T05:03:00Z</time></trkpt>
<trkpt lat="25.425629" lon="100.691625">
<time>2016-10-07T05:03:01Z</time></trkpt>
<trkpt lat="25.425629" lon="100.691625">
<time>2016-10-07T05:03:02Z</time></trkpt>
<trkpt lat="25.42585" lon="100.691226">
<time>2016-10-07T05:03:03Z</time></trkpt>
<trkpt lat="25.425951" lon="100.691026">
<time>2016-10-07T05:03:04Z</time></trkpt>
<trkpt lat="25.426021" lon="100.690847">
<time>2016-10-07T05:03:05Z</time></trkpt>
<trkpt lat="25.426091" lon="100.690727">
<time>2016-10-07T05:03:06Z</time></trkpt>
<trkpt lat="25.426171" lon="100.690558">
<time>2016-10-07T05:03:07Z</time></trkpt>
<trkpt lat="25.426242" lon="100.690398">
<time>2016-10-07T05:03:08Z</time></trkpt>
<trkpt lat="25.426312" lon="100.690258">
<time>2016-10-07T05:03:09Z</time></trkpt>
<trkpt lat="25.426362" lon="100.690109">
<time>2016-10-07T05:03:10Z</time></trkpt>
<trkpt lat="25.426402" lon="100.690009">
<time>2016-10-07T05:03:11Z</time></trkpt>
<trkpt lat="25.426413" lon="100.689969">
<time>2016-10-07T05:03:12Z</time></trkpt>
<trkpt lat="25.426463" lon="100.689839">
<time>2016-10-07T05:03:13Z</time></trkpt>
<trkpt lat="25.426543" lon="100.68968">
<time>2016-10-07T05:03:14Z</time></trkpt>
<trkpt lat="25.426603" lon="100.68951">
<time>2016-10-07T05:03:15Z</time></trkpt>
<trkpt lat="25.426684" lon="100.689261">
<time>2016-10-07T05:03:16Z</time></trkpt>
<trkpt lat="25.426734" lon="100.689021">
<time>2016-10-07T05:03:17Z</time></trkpt>
<trkpt lat="25.426745" lon="100.688882">
<time>2016-10-07T05:03:18Z</time></trkpt>
<trkpt lat="25.426765" lon="100.688732">
<time>2016-10-07T05:03:19Z</time></trkpt>
<trkpt lat="25.426785" lon="100.688572">
<time>2016-10-07T05:03:20Z</time></trkpt>
<trkpt lat="25.426785" lon="100.688443">
<time>2016-10-07T05:03:21Z</time></trkpt>
<trkpt lat="25.426806" lon="100.688323">
<time>2016-10-07T05:03:22Z</time></trkpt>
<trkpt lat="25.426816" lon="100.688123">
<time>2016-10-07T05:03:23Z</time></trkpt>
<trkpt lat="25.426816" lon="100.688034">
<time>2016-10-07T05:03:24Z</time></trkpt>
<trkpt lat="25.426826" lon="100.687964">
<time>2016-10-07T05:03:25Z</time></trkpt>
<trkpt lat="25.426847" lon="100.687774">
<time>2016-10-07T05:03:26Z</time></trkpt>
<trkpt lat="25.426867" lon="100.687655">
<time>2016-10-07T05:03:27Z</time></trkpt>
<trkpt lat="25.426877" lon="100.687535">
<time>2016-10-07T05:03:28Z</time></trkpt>
<trkpt lat="25.426877" lon="100.687405">
<time>2016-10-07T05:03:29Z</time></trkpt>
<trkpt lat="25.426867" lon="100.687266">
<time>2016-10-07T05:03:30Z</time></trkpt>
<trkpt lat="25.426878" lon="100.687136">
<time>2016-10-07T05:03:31Z</time></trkpt>
<trkpt lat="25.426878" lon="100.687016">
<time>2016-10-07T05:03:32Z</time></trkpt>
<trkpt lat="25.426888" lon="100.686886">
<time>2016-10-07T05:03:33Z</time></trkpt>
<trkpt lat="25.426888" lon="100.686757">
<time>2016-10-07T05:03:34Z</time></trkpt>
<trkpt lat="25.426889" lon="100.686607">
<time>2016-10-07T05:03:35Z</time></trkpt>
<trkpt lat="25.426909" lon="100.686448">
<time>2016-10-07T05:03:36Z</time></trkpt>
<trkpt lat="25.426919" lon="100.686278">
<time>2016-10-07T05:03:37Z</time></trkpt>
<trkpt lat="25.42693" lon="100.686108">
<time>2016-10-07T05:03:38Z</time></trkpt>
<trkpt lat="25.42693" lon="100.685929">
<time>2016-10-07T05:03:39Z</time></trkpt>
<trkpt lat="25.42693" lon="100.685889">
<time>2016-10-07T05:03:40Z</time></trkpt>
<trkpt lat="25.42694" lon="100.685749">
<time>2016-10-07T05:03:41Z</time></trkpt>
<trkpt lat="25.426941" lon="100.68557">
<time>2016-10-07T05:03:42Z</time></trkpt>
<trkpt lat="25.426951" lon="100.68541">
<time>2016-10-07T05:03:43Z</time></trkpt>
<trkpt lat="25.426941" lon="100.68526">
<time>2016-10-07T05:03:44Z</time></trkpt>
<trkpt lat="25.426951" lon="100.685111">
<time>2016-10-07T05:03:45Z</time></trkpt>
<trkpt lat="25.426982" lon="100.684961">
<time>2016-10-07T05:03:46Z</time></trkpt>
<trkpt lat="25.426992" lon="100.684792">
<time>2016-10-07T05:03:47Z</time></trkpt>
<trkpt lat="25.427002" lon="100.684612">
<time>2016-10-07T05:03:48Z</time></trkpt>
<trkpt lat="25.427003" lon="100.684423">
<time>2016-10-07T05:03:49Z</time></trkpt>
<trkpt lat="25.427013" lon="100.684233">
<time>2016-10-07T05:03:50Z</time></trkpt>
<trkpt lat="25.427013" lon="100.684044">
<time>2016-10-07T05:03:51Z</time></trkpt>
<trkpt lat="25.427034" lon="100.683844">
<time>2016-10-07T05:03:52Z</time></trkpt>
<trkpt lat="25.427044" lon="100.683605">
<time>2016-10-07T05:03:53Z</time></trkpt>
<trkpt lat="25.427055" lon="100.683405">
<time>2016-10-07T05:03:54Z</time></trkpt>
<trkpt lat="25.427075" lon="100.683176">
<time>2016-10-07T05:03:55Z</time></trkpt>
<trkpt lat="25.427085" lon="100.682976">
<time>2016-10-07T05:03:56Z</time></trkpt>
<trkpt lat="25.427086" lon="100.682717">
<time>2016-10-07T05:03:57Z</time></trkpt>
<trkpt lat="25.427086" lon="100.682607">
<time>2016-10-07T05:03:58Z</time></trkpt>
<trkpt lat="25.427096" lon="100.682487">
<time>2016-10-07T05:03:59Z</time></trkpt>
<trkpt lat="25.427097" lon="100.682248">
<time>2016-10-07T05:04:00Z</time></trkpt>
<trkpt lat="25.427107" lon="100.682019">
<time>2016-10-07T05:04:01Z</time></trkpt>
<trkpt lat="25.427118" lon="100.681779">
<time>2016-10-07T05:04:02Z</time></trkpt>
<trkpt lat="25.427128" lon="100.68156">
<time>2016-10-07T05:04:03Z</time></trkpt>
<trkpt lat="25.427108" lon="100.68134">
<time>2016-10-07T05:04:04Z</time></trkpt>
<trkpt lat="25.427049" lon="100.681111">
<time>2016-10-07T05:04:05Z</time></trkpt>
<trkpt lat="25.426949" lon="100.680891">
<time>2016-10-07T05:04:06Z</time></trkpt>
<trkpt lat="25.42682" lon="100.680692">
<time>2016-10-07T05:04:07Z</time></trkpt>
<trkpt lat="25.42666" lon="100.680472">
<time>2016-10-07T05:04:08Z</time></trkpt>
<trkpt lat="25.42649" lon="100.680243">
<time>2016-10-07T05:04:09Z</time></trkpt>
<trkpt lat="25.426301" lon="100.680014">
<time>2016-10-07T05:04:10Z</time></trkpt>
<trkpt lat="25.426121" lon="100.679784">
<time>2016-10-07T05:04:11Z</time></trkpt>
<trkpt lat="25.425942" lon="100.679555">
<time>2016-10-07T05:04:12Z</time></trkpt>
<trkpt lat="25.425912" lon="100.679515">
<time>2016-10-07T05:04:13Z</time></trkpt>
<trkpt lat="25.425782" lon="100.679335">
<time>2016-10-07T05:04:14Z</time></trkpt>
<trkpt lat="25.425652" lon="100.679176">
<time>2016-10-07T05:04:15Z</time></trkpt>
<trkpt lat="25.425532" lon="100.679016">
<time>2016-10-07T05:04:16Z</time></trkpt>
<trkpt lat="25.425403" lon="100.678837">
<time>2016-10-07T05:04:17Z</time></trkpt>
<trkpt lat="25.425393" lon="100.678817">
<time>2016-10-07T05:04:18Z</time></trkpt>
<trkpt lat="25.425253" lon="100.678667">
<time>2016-10-07T05:04:19Z</time></trkpt>
<trkpt lat="25.425113" lon="100.678478">
<time>2016-10-07T05:04:20Z</time></trkpt>
<trkpt lat="25.424964" lon="100.678298">
<time>2016-10-07T05:04:21Z</time></trkpt>
<trkpt lat="25.424834" lon="100.678099">
<time>2016-10-07T05:04:22Z</time></trkpt>
<trkpt lat="25.424684" lon="100.677899">
<time>2016-10-07T05:04:23Z</time></trkpt>
<trkpt lat="25.424575" lon="100.67765">
<time>2016-10-07T05:04:24Z</time></trkpt>
<trkpt lat="25.424485" lon="100.67745">
<time>2016-10-07T05:04:25Z</time></trkpt>
<trkpt lat="25.424396" lon="100.677181">
<time>2016-10-07T05:04:26Z</time></trkpt>
<trkpt lat="25.424296" lon="100.676892">
<time>2016-10-07T05:04:27Z</time></trkpt>
<trkpt lat="25.424207" lon="100.676562">
<time>2016-10-07T05:04:28Z</time></trkpt>
<trkpt lat="25.424107" lon="100.676293">
<time>2016-10-07T05:04:29Z</time></trkpt>
<trkpt lat="25.424008" lon="100.676024">
<time>2016-10-07T05:04:30Z</time></trkpt>
<trkpt lat="25.423918" lon="100.675774">
<time>2016-10-07T05:04:31Z</time></trkpt>
<trkpt lat="25.423839" lon="100.675555">
<time>2016-10-07T05:04:32Z</time></trkpt>
<trkpt lat="25.423769" lon="100.675365">
<time>2016-10-07T05:04:33Z</time></trkpt>
<trkpt lat="25.423709" lon="100.675166">
<time>2016-10-07T05:04:34Z</time></trkpt>
<trkpt lat="25.42363" lon="100.674967">
<time>2016-10-07T05:04:35Z</time></trkpt>
<trkpt lat="25.42355" lon="100.674757">
<time>2016-10-07T05:04:36Z</time></trkpt>
<trkpt lat="25.42347" lon="100.674558">
<time>2016-10-07T05:04:37Z</time></trkpt>
<trkpt lat="25.423391" lon="100.674398">
<time>2016-10-07T05:04:38Z</time></trkpt>
<trkpt lat="25.423331" lon="100.674238">
<time>2016-10-07T05:04:39Z</time></trkpt>
<trkpt lat="25.423271" lon="100.674079">
<time>2016-10-07T05:04:40Z</time></trkpt>
<trkpt lat="25.423202" lon="100.673909">
<time>2016-10-07T05:04:41Z</time></trkpt>
<trkpt lat="25.423112" lon="100.67375">
<time>2016-10-07T05:04:42Z</time></trkpt>
<trkpt lat="25.423042" lon="100.67356">
<time>2016-10-07T05:04:43Z</time></trkpt>
<trkpt lat="25.422973" lon="100.673351">
<time>2016-10-07T05:04:44Z</time></trkpt>
<trkpt lat="25.422893" lon="100.673141">
<time>2016-10-07T05:04:45Z</time></trkpt>
<trkpt lat="25.422803" lon="100.672952">
<time>2016-10-07T05:04:46Z</time></trkpt>
<trkpt lat="25.422734" lon="100.672802">
<time>2016-10-07T05:04:47Z</time></trkpt>
<trkpt lat="25.422674" lon="100.672652">
<time>2016-10-07T05:04:48Z</time></trkpt>
<trkpt lat="25.422594" lon="100.672443">
<time>2016-10-07T05:04:49Z</time></trkpt>
<trkpt lat="25.422505" lon="100.672263">
<time>2016-10-07T05:04:50Z</time></trkpt>
<trkpt lat="25.422415" lon="100.672064">
<time>2016-10-07T05:04:51Z</time></trkpt>
<trkpt lat="25.422335" lon="100.671864">
<time>2016-10-07T05:04:52Z</time></trkpt>
<trkpt lat="25.422246" lon="100.671675">
<time>2016-10-07T05:04:53Z</time></trkpt>
<trkpt lat="25.422156" lon="100.671505">
<time>2016-10-07T05:04:54Z</time></trkpt>
<trkpt lat="25.422096" lon="100.671416">
<time>2016-10-07T05:04:55Z</time></trkpt>
<trkpt lat="25.422056" lon="100.671346">
<time>2016-10-07T05:04:56Z</time></trkpt>
<trkpt lat="25.421957" lon="100.671196">
<time>2016-10-07T05:04:57Z</time></trkpt>
<trkpt lat="25.421857" lon="100.671047">
<time>2016-10-07T05:04:58Z</time></trkpt>
<trkpt lat="25.421757" lon="100.670887">
<time>2016-10-07T05:04:59Z</time></trkpt>
<trkpt lat="25.421667" lon="100.670737">
<time>2016-10-07T05:05:00Z</time></trkpt>
<trkpt lat="25.421548" lon="100.670578">
<time>2016-10-07T05:05:01Z</time></trkpt>
<trkpt lat="25.421448" lon="100.670398">
<time>2016-10-07T05:05:02Z</time></trkpt>
<trkpt lat="25.421318" lon="100.670229">
<time>2016-10-07T05:05:03Z</time></trkpt>
<trkpt lat="25.421219" lon="100.670069">
<time>2016-10-07T05:05:04Z</time></trkpt>
<trkpt lat="25.421099" lon="100.669909">
<time>2016-10-07T05:05:05Z</time></trkpt>
<trkpt lat="25.421009" lon="100.66975">
<time>2016-10-07T05:05:06Z</time></trkpt>
<trkpt lat="25.420899" lon="100.66959">
<time>2016-10-07T05:05:07Z</time></trkpt>
<trkpt lat="25.42078" lon="100.669441">
<time>2016-10-07T05:05:08Z</time></trkpt>
<trkpt lat="25.42067" lon="100.669291">
<time>2016-10-07T05:05:09Z</time></trkpt>
<trkpt lat="25.42058" lon="100.669131">
<time>2016-10-07T05:05:10Z</time></trkpt>
<trkpt lat="25.42056" lon="100.669092">
<time>2016-10-07T05:05:11Z</time></trkpt>
<trkpt lat="25.420501" lon="100.668952">
<time>2016-10-07T05:05:12Z</time></trkpt>
<trkpt lat="25.420421" lon="100.668772">
<time>2016-10-07T05:05:13Z</time></trkpt>
<trkpt lat="25.420381" lon="100.668683">
<time>2016-10-07T05:05:14Z</time></trkpt>
<trkpt lat="25.420341" lon="100.668583">
<time>2016-10-07T05:05:15Z</time></trkpt>
<trkpt lat="25.420272" lon="100.668413">
<time>2016-10-07T05:05:16Z</time></trkpt>
<trkpt lat="25.420222" lon="100.668264">
<time>2016-10-07T05:05:17Z</time></trkpt>
<trkpt lat="25.420162" lon="100.668134">
<time>2016-10-07T05:05:18Z</time></trkpt>
<trkpt lat="25.420102" lon="100.668014">
<time>2016-10-07T05:05:19Z</time></trkpt>
<trkpt lat="25.420032" lon="100.667875">
<time>2016-10-07T05:05:20Z</time></trkpt>
<trkpt lat="25.419993" lon="100.667715">
<time>2016-10-07T05:05:21Z</time></trkpt>
<trkpt lat="25.419923" lon="100.667565">
<time>2016-10-07T05:05:22Z</time></trkpt>
<trkpt lat="25.419853" lon="100.667386">
<time>2016-10-07T05:05:23Z</time></trkpt>
<trkpt lat="25.419764" lon="100.667206">
<time>2016-10-07T05:05:24Z</time></trkpt>
<trkpt lat="25.419674" lon="100.667057">
<time>2016-10-07T05:05:25Z</time></trkpt>
<trkpt lat="25.419574" lon="100.666897">
<time>2016-10-07T05:05:26Z</time></trkpt>
<trkpt lat="25.419505" lon="100.666738">
<time>2016-10-07T05:05:27Z</time></trkpt>
<trkpt lat="25.419435" lon="100.666588">
<time>2016-10-07T05:05:28Z</time></trkpt>
<trkpt lat="25.419365" lon="100.666438">
<time>2016-10-07T05:05:29Z</time></trkpt>
<trkpt lat="25.419295" lon="100.666309">
<time>2016-10-07T05:05:30Z</time></trkpt>
<trkpt lat="25.419236" lon="100.666179">
<time>2016-10-07T05:05:31Z</time></trkpt>
<trkpt lat="25.419176" lon="100.666059">
<time>2016-10-07T05:05:32Z</time></trkpt>
<trkpt lat="25.419166" lon="100.666039">
<time>2016-10-07T05:05:33Z</time></trkpt>
<trkpt lat="25.419116" lon="100.66594">
<time>2016-10-07T05:05:34Z</time></trkpt>
<trkpt lat="25.419046" lon="100.66581">
<time>2016-10-07T05:05:35Z</time></trkpt>
<trkpt lat="25.418976" lon="100.66566">
<time>2016-10-07T05:05:36Z</time></trkpt>
<trkpt lat="25.418907" lon="100.665531">
<time>2016-10-07T05:05:37Z</time></trkpt>
<trkpt lat="25.418827" lon="100.665331">
<time>2016-10-07T05:05:38Z</time></trkpt>
<trkpt lat="25.418777" lon="100.665162">
<time>2016-10-07T05:05:39Z</time></trkpt>
<trkpt lat="25.418688" lon="100.664882">
<time>2016-10-07T05:05:40Z</time></trkpt>
<trkpt lat="25.418578" lon="100.664673">
<time>2016-10-07T05:05:41Z</time></trkpt>
<trkpt lat="25.418499" lon="100.664443">
<time>2016-10-07T05:05:42Z</time></trkpt>
<trkpt lat="25.418389" lon="100.664234">
<time>2016-10-07T05:05:43Z</time></trkpt>
<trkpt lat="25.418289" lon="100.664005">
<time>2016-10-07T05:05:44Z</time></trkpt>
<trkpt lat="25.4182" lon="100.663745">
<time>2016-10-07T05:05:45Z</time></trkpt>
<trkpt lat="25.41806" lon="100.663506">
<time>2016-10-07T05:05:46Z</time></trkpt>
<trkpt lat="25.417991" lon="100.663366">
<time>2016-10-07T05:05:47Z</time></trkpt>
<trkpt lat="25.417891" lon="100.663127">
<time>2016-10-07T05:05:48Z</time></trkpt>
<trkpt lat="25.417771" lon="100.662907">
<time>2016-10-07T05:05:49Z</time></trkpt>
<trkpt lat="25.417652" lon="100.662688">
<time>2016-10-07T05:05:50Z</time></trkpt>
<trkpt lat="25.417482" lon="100.662508">
<time>2016-10-07T05:05:51Z</time></trkpt>
<trkpt lat="25.417302" lon="100.662339">
<time>2016-10-07T05:05:52Z</time></trkpt>
<trkpt lat="25.417103" lon="100.662199">
<time>2016-10-07T05:05:53Z</time></trkpt>
<trkpt lat="25.416903" lon="100.662069">
<time>2016-10-07T05:05:54Z</time></trkpt>
<trkpt lat="25.416713" lon="100.66196">
<time>2016-10-07T05:05:55Z</time></trkpt>
<trkpt lat="25.416683" lon="100.66194">
<time>2016-10-07T05:05:56Z</time></trkpt>
<trkpt lat="25.416363" lon="100.6617">
<time>2016-10-07T05:05:57Z</time></trkpt>
<trkpt lat="25.416194" lon="100.661581">
<time>2016-10-07T05:05:58Z</time></trkpt>
<trkpt lat="25.416024" lon="100.661481">
<time>2016-10-07T05:05:59Z</time></trkpt>
<trkpt lat="25.415864" lon="100.661381">
<time>2016-10-07T05:06:00Z</time></trkpt>
<trkpt lat="25.415774" lon="100.661301">
<time>2016-10-07T05:06:01Z</time></trkpt>
<trkpt lat="25.415694" lon="100.661252">
<time>2016-10-07T05:06:02Z</time></trkpt>
<trkpt lat="25.415564" lon="100.661132">
<time>2016-10-07T05:06:03Z</time></trkpt>
<trkpt lat="25.415475" lon="100.661032">
<time>2016-10-07T05:06:04Z</time></trkpt>
<trkpt lat="25.415365" lon="100.660912">
<time>2016-10-07T05:06:05Z</time></trkpt>
<trkpt lat="25.415255" lon="100.660763">
<time>2016-10-07T05:06:06Z</time></trkpt>
<trkpt lat="25.415125" lon="100.660603">
<time>2016-10-07T05:06:07Z</time></trkpt>
<trkpt lat="25.414995" lon="100.660464">
<time>2016-10-07T05:06:08Z</time></trkpt>
<trkpt lat="25.414866" lon="100.660304">
<time>2016-10-07T05:06:09Z</time></trkpt>
<trkpt lat="25.414766" lon="100.660124">
<time>2016-10-07T05:06:10Z</time></trkpt>
<trkpt lat="25.414686" lon="100.659905">
<time>2016-10-07T05:06:11Z</time></trkpt>
<trkpt lat="25.414647" lon="100.659656">
<time>2016-10-07T05:06:12Z</time></trkpt>
<trkpt lat="25.414597" lon="100.659426">
<time>2016-10-07T05:06:13Z</time></trkpt>
<trkpt lat="25.414568" lon="100.659197">
<time>2016-10-07T05:06:14Z</time></trkpt>
<trkpt lat="25.414528" lon="100.658957">
<time>2016-10-07T05:06:15Z</time></trkpt>
<trkpt lat="25.414489" lon="100.658708">
<time>2016-10-07T05:06:16Z</time></trkpt>
<trkpt lat="25.414449" lon="100.658449">
<time>2016-10-07T05:06:17Z</time></trkpt>
<trkpt lat="25.41441" lon="100.658179">
<time>2016-10-07T05:06:18Z</time></trkpt>
<trkpt lat="25.41437" lon="100.6579">
<time>2016-10-07T05:06:19Z</time></trkpt>
<trkpt lat="25.414331" lon="100.657611">
<time>2016-10-07T05:06:20Z</time></trkpt>
<trkpt lat="25.414291" lon="100.657321">
<time>2016-10-07T05:06:21Z</time></trkpt>
<trkpt lat="25.414252" lon="100.657042">
<time>2016-10-07T05:06:22Z</time></trkpt>
<trkpt lat="25.414222" lon="100.656763">
<time>2016-10-07T05:06:23Z</time></trkpt>
<trkpt lat="25.414233" lon="100.656493">
<time>2016-10-07T05:06:24Z</time></trkpt>
<trkpt lat="25.414283" lon="100.656254">
<time>2016-10-07T05:06:25Z</time></trkpt>
<trkpt lat="25.414384" lon="100.656005">
<time>2016-10-07T05:06:26Z</time></trkpt>
<trkpt lat="25.414534" lon="100.655785">
<time>2016-10-07T05:06:27Z</time></trkpt>
<trkpt lat="25.414684" lon="100.655566">
<time>2016-10-07T05:06:28Z</time></trkpt>
<trkpt lat="25.414825" lon="100.655366">
<time>2016-10-07T05:06:29Z</time></trkpt>
<trkpt lat="25.414935" lon="100.655117">
<time>2016-10-07T05:06:30Z</time></trkpt>
<trkpt lat="25.414976" lon="100.654887">
<time>2016-10-07T05:06:31Z</time></trkpt>
<trkpt lat="25.414936" lon="100.654638">
<time>2016-10-07T05:06:32Z</time></trkpt>
<trkpt lat="25.414837" lon="100.654398">
<time>2016-10-07T05:06:33Z</time></trkpt>
<trkpt lat="25.414707" lon="100.654139">
<time>2016-10-07T05:06:34Z</time></trkpt>
<trkpt lat="25.414578" lon="100.65387">
<time>2016-10-07T05:06:35Z</time></trkpt>
<trkpt lat="25.414448" lon="100.65365">
<time>2016-10-07T05:06:36Z</time></trkpt>
<trkpt lat="25.414278" lon="100.653361">
<time>2016-10-07T05:06:37Z</time></trkpt>
<trkpt lat="25.414119" lon="100.653122">
<time>2016-10-07T05:06:38Z</time></trkpt>
<trkpt lat="25.413909" lon="100.652822">
<time>2016-10-07T05:06:39Z</time></trkpt>
<trkpt lat="25.41374" lon="100.652543">
<time>2016-10-07T05:06:40Z</time></trkpt>
<trkpt lat="25.41364" lon="100.652323">
<time>2016-10-07T05:06:41Z</time></trkpt>
<trkpt lat="25.4136" lon="100.652104">
<time>2016-10-07T05:06:42Z</time></trkpt>
<trkpt lat="25.413651" lon="100.651904">
<time>2016-10-07T05:06:43Z</time></trkpt>
<trkpt lat="25.413791" lon="100.651775">
<time>2016-10-07T05:06:44Z</time></trkpt>
<trkpt lat="25.413961" lon="100.651675">
<time>2016-10-07T05:06:45Z</time></trkpt>
<trkpt lat="25.414162" lon="100.651565">
<time>2016-10-07T05:06:46Z</time></trkpt>
<trkpt lat="25.414372" lon="100.651426">
<time>2016-10-07T05:06:47Z</time></trkpt>
<trkpt lat="25.414612" lon="100.651286">
<time>2016-10-07T05:06:48Z</time></trkpt>
<trkpt lat="25.414852" lon="100.651156">
<time>2016-10-07T05:06:49Z</time></trkpt>
<trkpt lat="25.415093" lon="100.650997">
<time>2016-10-07T05:06:50Z</time></trkpt>
<trkpt lat="25.415313" lon="100.650817">
<time>2016-10-07T05:06:51Z</time></trkpt>
<trkpt lat="25.415533" lon="100.650637">
<time>2016-10-07T05:06:52Z</time></trkpt>
<trkpt lat="25.415764" lon="100.650488">
<time>2016-10-07T05:06:53Z</time></trkpt>
<trkpt lat="25.416044" lon="100.650368">
<time>2016-10-07T05:06:54Z</time></trkpt>
<trkpt lat="25.416284" lon="100.650228">
<time>2016-10-07T05:06:55Z</time></trkpt>
<trkpt lat="25.416525" lon="100.650069">
<time>2016-10-07T05:06:56Z</time></trkpt>
<trkpt lat="25.416685" lon="100.649969">
<time>2016-10-07T05:06:57Z</time></trkpt>
<trkpt lat="25.416755" lon="100.649929">
<time>2016-10-07T05:06:58Z</time></trkpt>
<trkpt lat="25.417065" lon="100.649779">
<time>2016-10-07T05:06:59Z</time></trkpt>
<trkpt lat="25.417276" lon="100.64966">
<time>2016-10-07T05:07:00Z</time></trkpt>
<trkpt lat="25.417526" lon="100.6495">
<time>2016-10-07T05:07:01Z</time></trkpt>
<trkpt lat="25.417706" lon="100.649301">
<time>2016-10-07T05:07:02Z</time></trkpt>
<trkpt lat="25.417837" lon="100.649091">
<time>2016-10-07T05:07:03Z</time></trkpt>
<trkpt lat="25.417897" lon="100.648852">
<time>2016-10-07T05:07:04Z</time></trkpt>
<trkpt lat="25.417928" lon="100.648582">
<time>2016-10-07T05:07:05Z</time></trkpt>
<trkpt lat="25.417938" lon="100.648303">
<time>2016-10-07T05:07:06Z</time></trkpt>
<trkpt lat="25.417939" lon="100.648014">
<time>2016-10-07T05:07:07Z</time></trkpt>
<trkpt lat="25.417939" lon="100.647724">
<time>2016-10-07T05:07:08Z</time></trkpt>
<trkpt lat="25.41796" lon="100.647435">
<time>2016-10-07T05:07:09Z</time></trkpt>
<trkpt lat="25.41798" lon="100.647126">
<time>2016-10-07T05:07:10Z</time></trkpt>
<trkpt lat="25.418011" lon="100.646826">
<time>2016-10-07T05:07:11Z</time></trkpt>
<trkpt lat="25.418021" lon="100.646537">
<time>2016-10-07T05:07:12Z</time></trkpt>
<trkpt lat="25.417971" lon="100.646267">
<time>2016-10-07T05:07:13Z</time></trkpt>
<trkpt lat="25.417862" lon="100.646028">
<time>2016-10-07T05:07:14Z</time></trkpt>
<trkpt lat="25.417702" lon="100.645809">
<time>2016-10-07T05:07:15Z</time></trkpt>
<trkpt lat="25.417502" lon="100.645609">
<time>2016-10-07T05:07:16Z</time></trkpt>
<trkpt lat="25.417293" lon="100.645419">
<time>2016-10-07T05:07:17Z</time></trkpt>
<trkpt lat="25.417083" lon="100.64523">
<time>2016-10-07T05:07:18Z</time></trkpt>
<trkpt lat="25.416893" lon="100.64503">
<time>2016-10-07T05:07:19Z</time></trkpt>
<trkpt lat="25.416744" lon="100.644781">
<time>2016-10-07T05:07:20Z</time></trkpt>
<trkpt lat="25.416684" lon="100.644601">
<time>2016-10-07T05:07:21Z</time></trkpt>
<trkpt lat="25.416654" lon="100.644492">
<time>2016-10-07T05:07:22Z</time></trkpt>
<trkpt lat="25.416575" lon="100.644202">
<time>2016-10-07T05:07:23Z</time></trkpt>
<trkpt lat="25.416505" lon="100.643923">
<time>2016-10-07T05:07:24Z</time></trkpt>
<trkpt lat="25.416495" lon="100.643903">
<time>2016-10-07T05:07:25Z</time></trkpt>
<trkpt lat="25.416435" lon="100.643653">
<time>2016-10-07T05:07:26Z</time></trkpt>
<trkpt lat="25.416376" lon="100.643394">
<time>2016-10-07T05:07:27Z</time></trkpt>
<trkpt lat="25.416316" lon="100.643154">
<time>2016-10-07T05:07:28Z</time></trkpt>
<trkpt lat="25.416277" lon="100.642915">
<time>2016-10-07T05:07:29Z</time></trkpt>
<trkpt lat="25.416267" lon="100.642676">
<time>2016-10-07T05:07:30Z</time></trkpt>
<trkpt lat="25.416277" lon="100.642466">
<time>2016-10-07T05:07:31Z</time></trkpt>
<trkpt lat="25.416288" lon="100.642256">
<time>2016-10-07T05:07:32Z</time></trkpt>
<trkpt lat="25.416308" lon="100.642077">
<time>2016-10-07T05:07:33Z</time></trkpt>
<trkpt lat="25.416308" lon="100.641897">
<time>2016-10-07T05:07:34Z</time></trkpt>
<trkpt lat="25.416298" lon="100.641768">
<time>2016-10-07T05:07:35Z</time></trkpt>
<trkpt lat="25.416289" lon="100.641718">
<time>2016-10-07T05:07:36Z</time></trkpt>
<trkpt lat="25.416249" lon="100.641518">
<time>2016-10-07T05:07:37Z</time></trkpt>
<trkpt lat="25.416209" lon="100.641338">
<time>2016-10-07T05:07:38Z</time></trkpt>
<trkpt lat="25.416189" lon="100.641189">
<time>2016-10-07T05:07:39Z</time></trkpt>
<trkpt lat="25.416179" lon="100.641149">
<time>2016-10-07T05:07:40Z</time></trkpt>
<trkpt lat="25.41615" lon="100.640969">
<time>2016-10-07T05:07:41Z</time></trkpt>
<trkpt lat="25.41612" lon="100.64082">
<time>2016-10-07T05:07:42Z</time></trkpt>
<trkpt lat="25.41607" lon="100.64061">
<time>2016-10-07T05:07:43Z</time></trkpt>
<trkpt lat="25.41607" lon="100.64059">
<time>2016-10-07T05:07:44Z</time></trkpt>
<trkpt lat="25.416011" lon="100.64038">
<time>2016-10-07T05:07:45Z</time></trkpt>
<trkpt lat="25.415971" lon="100.640161">
<time>2016-10-07T05:07:46Z</time></trkpt>
<trkpt lat="25.415921" lon="100.639971">
<time>2016-10-07T05:07:47Z</time></trkpt>
<trkpt lat="25.415851" lon="100.639772">
<time>2016-10-07T05:07:48Z</time></trkpt>
<trkpt lat="25.415792" lon="100.639562">
<time>2016-10-07T05:07:49Z</time></trkpt>
<trkpt lat="25.415732" lon="100.639353">
<time>2016-10-07T05:07:50Z</time></trkpt>
<trkpt lat="25.415672" lon="100.639163">
<time>2016-10-07T05:07:51Z</time></trkpt>
<trkpt lat="25.415623" lon="100.638993">
<time>2016-10-07T05:07:52Z</time></trkpt>
<trkpt lat="25.415553" lon="100.638684">
<time>2016-10-07T05:07:53Z</time></trkpt>
<trkpt lat="25.415503" lon="100.638465">
<time>2016-10-07T05:07:54Z</time></trkpt>
<trkpt lat="25.415504" lon="100.638355">
<time>2016-10-07T05:07:55Z</time></trkpt>
<trkpt lat="25.415504" lon="100.638315">
<time>2016-10-07T05:07:56Z</time></trkpt>
<trkpt lat="25.415504" lon="100.638245">
<time>2016-10-07T05:07:57Z</time></trkpt>
<trkpt lat="25.415504" lon="100.638185">
<time>2016-10-07T05:07:58Z</time></trkpt>
<trkpt lat="25.415514" lon="100.638035">
<time>2016-10-07T05:07:59Z</time></trkpt>
<trkpt lat="25.415514" lon="100.637966">
<time>2016-10-07T05:08:00Z</time></trkpt>
<trkpt lat="25.415554" lon="100.637746">
<time>2016-10-07T05:08:01Z</time></trkpt>
<trkpt lat="25.415595" lon="100.637536">
<time>2016-10-07T05:08:02Z</time></trkpt>
<trkpt lat="25.415655" lon="100.637357">
<time>2016-10-07T05:08:03Z</time></trkpt>
<trkpt lat="25.415715" lon="100.637227">
<time>2016-10-07T05:08:04Z</time></trkpt>
<trkpt lat="25.415765" lon="100.637097">
<time>2016-10-07T05:08:05Z</time></trkpt>
<trkpt lat="25.415826" lon="100.636918">
<time>2016-10-07T05:08:06Z</time></trkpt>
<trkpt lat="25.415886" lon="100.636738">
<time>2016-10-07T05:08:07Z</time></trkpt>
<trkpt lat="25.415956" lon="100.636548">
<time>2016-10-07T05:08:08Z</time></trkpt>
<trkpt lat="25.416057" lon="100.636339">
<time>2016-10-07T05:08:09Z</time></trkpt>
<trkpt lat="25.416167" lon="100.636159">
<time>2016-10-07T05:08:10Z</time></trkpt>
<trkpt lat="25.416317" lon="100.63599">
<time>2016-10-07T05:08:11Z</time></trkpt>
<trkpt lat="25.416487" lon="100.63583">
<time>2016-10-07T05:08:12Z</time></trkpt>
<trkpt lat="25.416548" lon="100.63579">
<time>2016-10-07T05:08:13Z</time></trkpt>
<trkpt lat="25.416688" lon="100.63566">
<time>2016-10-07T05:08:14Z</time></trkpt>
<trkpt lat="25.416808" lon="100.635461">
<time>2016-10-07T05:08:15Z</time></trkpt>
<trkpt lat="25.416989" lon="100.635131">
<time>2016-10-07T05:08:16Z</time></trkpt>
<trkpt lat="25.417199" lon="100.634692">
<time>2016-10-07T05:08:17Z</time></trkpt>
<trkpt lat="25.4173" lon="100.634512">
<time>2016-10-07T05:08:18Z</time></trkpt>
<trkpt lat="25.41754" lon="100.634073">
<time>2016-10-07T05:08:19Z</time></trkpt>
<trkpt lat="25.417711" lon="100.633734">
<time>2016-10-07T05:08:20Z</time></trkpt>
<trkpt lat="25.417911" lon="100.633365">
<time>2016-10-07T05:08:21Z</time></trkpt>
<trkpt lat="25.418032" lon="100.633105">
<time>2016-10-07T05:08:22Z</time></trkpt>
<trkpt lat="25.418092" lon="100.632915">
<time>2016-10-07T05:08:23Z</time></trkpt>
<trkpt lat="25.418393" lon="100.631828">
<time>2016-10-07T05:08:24Z</time></trkpt>
<trkpt lat="25.418464" lon="100.631618">
<time>2016-10-07T05:08:25Z</time></trkpt>
<trkpt lat="25.418474" lon="100.631568">
<time>2016-10-07T05:08:26Z</time></trkpt>
<trkpt lat="25.418504" lon="100.631408">
<time>2016-10-07T05:08:27Z</time></trkpt>
<trkpt lat="25.418524" lon="100.631229">
<time>2016-10-07T05:08:28Z</time></trkpt>
<trkpt lat="25.418524" lon="100.631119">
<time>2016-10-07T05:08:29Z</time></trkpt>
<trkpt lat="25.418505" lon="100.630999">
<time>2016-10-07T05:08:30Z</time></trkpt>
<trkpt lat="25.418485" lon="100.630899">
<time>2016-10-07T05:08:31Z</time></trkpt>
<trkpt lat="25.418455" lon="100.630779">
<time>2016-10-07T05:08:32Z</time></trkpt>
<trkpt lat="25.418435" lon="100.63071">
<time>2016-10-07T05:08:33Z</time></trkpt>
<trkpt lat="25.418196" lon="100.630141">
<time>2016-10-07T05:08:34Z</time></trkpt>
<trkpt lat="25.417767" lon="100.629023">
<time>2016-10-07T05:08:35Z</time></trkpt>
<trkpt lat="25.417607" lon="100.628633">
<time>2016-10-07T05:08:36Z</time></trkpt>
<trkpt lat="25.417418" lon="100.628204">
<time>2016-10-07T05:08:37Z</time></trkpt>
<trkpt lat="25.417188" lon="100.627735">
<time>2016-10-07T05:08:38Z</time></trkpt>
<trkpt lat="25.416839" lon="100.626986">
<time>2016-10-07T05:08:39Z</time></trkpt>
<trkpt lat="25.416679" lon="100.626677">
<time>2016-10-07T05:08:40Z</time></trkpt>
<trkpt lat="25.41661" lon="100.626417">
<time>2016-10-07T05:08:41Z</time></trkpt>
<trkpt lat="25.41656" lon="100.626237">
<time>2016-10-07T05:08:42Z</time></trkpt>
<trkpt lat="25.41653" lon="100.626078">
<time>2016-10-07T05:08:43Z</time></trkpt>
<trkpt lat="25.41652" lon="100.625948">
<time>2016-10-07T05:08:44Z</time></trkpt>
<trkpt lat="25.41652" lon="100.625878">
<time>2016-10-07T05:08:45Z</time></trkpt>
<trkpt lat="25.41651" lon="100.625818">
<time>2016-10-07T05:08:46Z</time></trkpt>
<trkpt lat="25.416531" lon="100.625648">
<time>2016-10-07T05:08:47Z</time></trkpt>
<trkpt lat="25.416551" lon="100.625509">
<time>2016-10-07T05:08:48Z</time></trkpt>
<trkpt lat="25.416591" lon="100.625349">
<time>2016-10-07T05:08:49Z</time></trkpt>
<trkpt lat="25.416641" lon="100.625209">
<time>2016-10-07T05:08:50Z</time></trkpt>
<trkpt lat="25.416681" lon="100.625119">
<time>2016-10-07T05:08:51Z</time></trkpt>
<trkpt lat="25.416761" lon="100.625019">
<time>2016-10-07T05:08:52Z</time></trkpt>
<trkpt lat="25.417142" lon="100.62464">
<time>2016-10-07T05:08:53Z</time></trkpt>
<trkpt lat="25.417302" lon="100.62449">
<time>2016-10-07T05:08:54Z</time></trkpt>
<trkpt lat="25.418234" lon="100.623302">
<time>2016-10-07T05:08:55Z</time></trkpt>
<trkpt lat="25.418384" lon="100.623112">
<time>2016-10-07T05:08:56Z</time></trkpt>
<trkpt lat="25.418574" lon="100.622853">
<time>2016-10-07T05:08:57Z</time></trkpt>
<trkpt lat="25.418754" lon="100.622593">
<time>2016-10-07T05:08:58Z</time></trkpt>
<trkpt lat="25.418945" lon="100.622354">
<time>2016-10-07T05:08:59Z</time></trkpt>
<trkpt lat="25.419135" lon="100.622104">
<time>2016-10-07T05:09:00Z</time></trkpt>
<trkpt lat="25.419335" lon="100.621834">
<time>2016-10-07T05:09:01Z</time></trkpt>
<trkpt lat="25.419536" lon="100.621565">
<time>2016-10-07T05:09:02Z</time></trkpt>
<trkpt lat="25.419736" lon="100.621295">
<time>2016-10-07T05:09:03Z</time></trkpt>
<trkpt lat="25.419916" lon="100.621026">
<time>2016-10-07T05:09:04Z</time></trkpt>
<trkpt lat="25.420116" lon="100.620796">
<time>2016-10-07T05:09:05Z</time></trkpt>
<trkpt lat="25.420137" lon="100.620786">
<time>2016-10-07T05:09:06Z</time></trkpt>
<trkpt lat="25.420367" lon="100.620526">
<time>2016-10-07T05:09:07Z</time></trkpt>
<trkpt lat="25.420517" lon="100.620327">
<time>2016-10-07T05:09:08Z</time></trkpt>
<trkpt lat="25.420747" lon="100.620077">
<time>2016-10-07T05:09:09Z</time></trkpt>
<trkpt lat="25.420948" lon="100.619817">
<time>2016-10-07T05:09:10Z</time></trkpt>
<trkpt lat="25.421148" lon="100.619568">
<time>2016-10-07T05:09:11Z</time></trkpt>
<trkpt lat="25.421338" lon="100.619328">
<time>2016-10-07T05:09:12Z</time></trkpt>
<trkpt lat="25.421528" lon="100.619068">
<time>2016-10-07T05:09:13Z</time></trkpt>
<trkpt lat="25.421709" lon="100.618839">
<time>2016-10-07T05:09:14Z</time></trkpt>
<trkpt lat="25.421899" lon="100.618599">
<time>2016-10-07T05:09:15Z</time></trkpt>
<trkpt lat="25.422069" lon="100.618389">
<time>2016-10-07T05:09:16Z</time></trkpt>
<trkpt lat="25.422239" lon="100.61817">
<time>2016-10-07T05:09:17Z</time></trkpt>
<trkpt lat="25.42242" lon="100.61795">
<time>2016-10-07T05:09:18Z</time></trkpt>
<trkpt lat="25.42259" lon="100.61774">
<time>2016-10-07T05:09:19Z</time></trkpt>
<trkpt lat="25.42276" lon="100.61753">
<time>2016-10-07T05:09:20Z</time></trkpt>
<trkpt lat="25.42293" lon="100.617321">
<time>2016-10-07T05:09:21Z</time></trkpt>
<trkpt lat="25.4231" lon="100.617091">
<time>2016-10-07T05:09:22Z</time></trkpt>
<trkpt lat="25.423281" lon="100.616861">
<time>2016-10-07T05:09:23Z</time></trkpt>
<trkpt lat="25.423451" lon="100.616622">
<time>2016-10-07T05:09:24Z</time></trkpt>
<trkpt lat="25.423631" lon="100.616392">
<time>2016-10-07T05:09:25Z</time></trkpt>
<trkpt lat="25.423801" lon="100.616162">
<time>2016-10-07T05:09:26Z</time></trkpt>
<trkpt lat="25.423972" lon="100.615952">
<time>2016-10-07T05:09:27Z</time></trkpt>
<trkpt lat="25.424152" lon="100.615743">
<time>2016-10-07T05:09:28Z</time></trkpt>
<trkpt lat="25.424322" lon="100.615523">
<time>2016-10-07T05:09:29Z</time></trkpt>
<trkpt lat="25.424502" lon="100.615303">
<time>2016-10-07T05:09:30Z</time></trkpt>
<trkpt lat="25.424672" lon="100.615074">
<time>2016-10-07T05:09:31Z</time></trkpt>
<trkpt lat="25.424843" lon="100.614844">
<time>2016-10-07T05:09:32Z</time></trkpt>
<trkpt lat="25.425023" lon="100.614614">
<time>2016-10-07T05:09:33Z</time></trkpt>
<trkpt lat="25.425253" lon="100.614254">
<time>2016-10-07T05:09:34Z</time></trkpt>
<trkpt lat="25.425443" lon="100.614015">
<time>2016-10-07T05:09:35Z</time></trkpt>
<trkpt lat="25.425533" lon="100.613905">
<time>2016-10-07T05:09:36Z</time></trkpt>
<trkpt lat="25.425624" lon="100.613785">
<time>2016-10-07T05:09:37Z</time></trkpt>
<trkpt lat="25.425824" lon="100.613595">
<time>2016-10-07T05:09:38Z</time></trkpt>
<trkpt lat="25.425964" lon="100.613425">
<time>2016-10-07T05:09:39Z</time></trkpt>
<trkpt lat="25.426114" lon="100.613236">
<time>2016-10-07T05:09:40Z</time></trkpt>
<trkpt lat="25.426264" lon="100.613036">
<time>2016-10-07T05:09:41Z</time></trkpt>
<trkpt lat="25.426414" lon="100.612836">
<time>2016-10-07T05:09:42Z</time></trkpt>
<trkpt lat="25.426565" lon="100.612646">
<time>2016-10-07T05:09:43Z</time></trkpt>
<trkpt lat="25.426735" lon="100.612417">
<time>2016-10-07T05:09:44Z</time></trkpt>
<trkpt lat="25.426905" lon="100.612197">
<time>2016-10-07T05:09:45Z</time></trkpt>
<trkpt lat="25.427085" lon="100.611987">
<time>2016-10-07T05:09:46Z</time></trkpt>
<trkpt lat="25.427225" lon="100.611787">
<time>2016-10-07T05:09:47Z</time></trkpt>
<trkpt lat="25.427395" lon="100.611577">
<time>2016-10-07T05:09:48Z</time></trkpt>
<trkpt lat="25.427435" lon="100.611518">
<time>2016-10-07T05:09:49Z</time></trkpt>
<trkpt lat="25.427556" lon="100.611368">
<time>2016-10-07T05:09:50Z</time></trkpt>
<trkpt lat="25.427716" lon="100.611158">
<time>2016-10-07T05:09:51Z</time></trkpt>
<trkpt lat="25.427876" lon="100.610968">
<time>2016-10-07T05:09:52Z</time></trkpt>
<trkpt lat="25.428036" lon="100.610778">
<time>2016-10-07T05:09:53Z</time></trkpt>
<trkpt lat="25.428186" lon="100.610579">
<time>2016-10-07T05:09:54Z</time></trkpt>
<trkpt lat="25.428356" lon="100.610379">
<time>2016-10-07T05:09:55Z</time></trkpt>
<trkpt lat="25.428517" lon="100.610159">
<time>2016-10-07T05:09:56Z</time></trkpt>
<trkpt lat="25.428637" lon="100.609929">
<time>2016-10-07T05:09:57Z</time></trkpt>
<trkpt lat="25.428777" lon="100.609719">
<time>2016-10-07T05:09:58Z</time></trkpt>
<trkpt lat="25.428917" lon="100.60951">
<time>2016-10-07T05:09:59Z</time></trkpt>
<trkpt lat="25.429077" lon="100.60925">
<time>2016-10-07T05:10:00Z</time></trkpt>
<trkpt lat="25.429217" lon="100.60906">
<time>2016-10-07T05:10:01Z</time></trkpt>
<trkpt lat="25.429417" lon="100.6089">
<time>2016-10-07T05:10:02Z</time></trkpt>
<trkpt lat="25.429648" lon="100.6087">
<time>2016-10-07T05:10:03Z</time></trkpt>
<trkpt lat="25.429828" lon="100.608481">
<time>2016-10-07T05:10:04Z</time></trkpt>
<trkpt lat="25.430058" lon="100.608281">
<time>2016-10-07T05:10:05Z</time></trkpt>
<trkpt lat="25.430258" lon="100.608061">
<time>2016-10-07T05:10:06Z</time></trkpt>
<trkpt lat="25.430458" lon="100.607851">
<time>2016-10-07T05:10:07Z</time></trkpt>
<trkpt lat="25.430658" lon="100.607641">
<time>2016-10-07T05:10:08Z</time></trkpt>
<trkpt lat="25.430768" lon="100.607431">
<time>2016-10-07T05:10:09Z</time></trkpt>
<trkpt lat="25.430849" lon="100.607182">
<time>2016-10-07T05:10:10Z</time></trkpt>
<trkpt lat="25.430899" lon="100.607122">
<time>2016-10-07T05:10:11Z</time></trkpt>
<trkpt lat="25.430949" lon="100.607052">
<time>2016-10-07T05:10:12Z</time></trkpt>
<trkpt lat="25.431139" lon="100.606902">
<time>2016-10-07T05:10:13Z</time></trkpt>
<trkpt lat="25.431329" lon="100.606792">
<time>2016-10-07T05:10:14Z</time></trkpt>
<trkpt lat="25.431569" lon="100.606742">
<time>2016-10-07T05:10:15Z</time></trkpt>
<trkpt lat="25.431799" lon="100.606732">
<time>2016-10-07T05:10:16Z</time></trkpt>
<trkpt lat="25.432039" lon="100.606702">
<time>2016-10-07T05:10:17Z</time></trkpt>
<trkpt lat="25.432279" lon="100.606662">
<time>2016-10-07T05:10:18Z</time></trkpt>
<trkpt lat="25.432519" lon="100.606602">
<time>2016-10-07T05:10:19Z</time></trkpt>
<trkpt lat="25.432749" lon="100.606512">
<time>2016-10-07T05:10:20Z</time></trkpt>
<trkpt lat="25.432979" lon="100.606402">
<time>2016-10-07T05:10:21Z</time></trkpt>
<trkpt lat="25.4332" lon="100.606282">
<time>2016-10-07T05:10:22Z</time></trkpt>
<trkpt lat="25.43341" lon="100.606152">
<time>2016-10-07T05:10:23Z</time></trkpt>
<trkpt lat="25.43362" lon="100.605993">
<time>2016-10-07T05:10:24Z</time></trkpt>
<trkpt lat="25.43364" lon="100.605983">
<time>2016-10-07T05:10:25Z</time></trkpt>
<trkpt lat="25.43364" lon="100.605983">
<time>2016-10-07T05:10:26Z</time></trkpt>
<trkpt lat="25.43387" lon="100.606083">
<time>2016-10-07T05:10:27Z</time></trkpt>
<trkpt lat="25.43401" lon="100.606132">
<time>2016-10-07T05:10:28Z</time></trkpt>
<trkpt lat="25.43414" lon="100.606222">
<time>2016-10-07T05:10:29Z</time></trkpt>
<trkpt lat="25.43459" lon="100.606502">
<time>2016-10-07T05:10:30Z</time></trkpt>
<trkpt lat="25.43459" lon="100.606502">
<time>2016-10-07T05:10:31Z</time></trkpt>
<trkpt lat="25.43468" lon="100.606362">
<time>2016-10-07T05:10:32Z</time></trkpt>
<trkpt lat="25.43501" lon="100.605953">
<time>2016-10-07T05:10:33Z</time></trkpt>
<trkpt lat="25.43532" lon="100.605863">
<time>2016-10-07T05:10:34Z</time></trkpt>
<trkpt lat="25.43557" lon="100.605903">
<time>2016-10-07T05:10:35Z</time></trkpt>
<trkpt lat="25.43584" lon="100.606092">
<time>2016-10-07T05:10:36Z</time></trkpt>
<trkpt lat="25.43642" lon="100.606812">
<time>2016-10-07T05:10:37Z</time></trkpt>
<trkpt lat="25.43663" lon="100.606942">
<time>2016-10-07T05:10:38Z</time></trkpt>
<trkpt lat="25.43693" lon="100.606972">
<time>2016-10-07T05:10:39Z</time></trkpt>
<trkpt lat="25.43771" lon="100.606842">
<time>2016-10-07T05:10:40Z</time></trkpt>
<trkpt lat="25.438111" lon="100.606612">
<time>2016-10-07T05:10:41Z</time></trkpt>
<trkpt lat="25.438701" lon="100.606242">
<time>2016-10-07T05:10:42Z</time></trkpt>
<trkpt lat="25.438801" lon="100.606092">
<time>2016-10-07T05:10:43Z</time></trkpt>
<trkpt lat="25.438871" lon="100.605833">
<time>2016-10-07T05:10:44Z</time></trkpt>
<trkpt lat="25.438961" lon="100.605463">
<time>2016-10-07T05:10:45Z</time></trkpt>
<trkpt lat="25.438951" lon="100.605303">
<time>2016-10-07T05:10:46Z</time></trkpt>
<trkpt lat="25.438881" lon="100.605043">
<time>2016-10-07T05:10:47Z</time></trkpt>
<trkpt lat="25.438621" lon="100.604434">
<time>2016-10-07T05:10:48Z</time></trkpt>
<trkpt lat="25.438502" lon="100.604194">
<time>2016-10-07T05:10:49Z</time></trkpt>
<trkpt lat="25.438462" lon="100.603984">
<time>2016-10-07T05:10:50Z</time></trkpt>
<trkpt lat="25.438362" lon="100.602735">
<time>2016-10-07T05:10:51Z</time></trkpt>
<trkpt lat="25.438312" lon="100.601985">
<time>2016-10-07T05:10:52Z</time></trkpt>
<trkpt lat="25.438282" lon="100.601396">
<time>2016-10-07T05:10:53Z</time></trkpt>
<trkpt lat="25.438403" lon="100.599497">
<time>2016-10-07T05:10:54Z</time></trkpt>
<trkpt lat="25.438553" lon="100.598167">
<time>2016-10-07T05:10:55Z</time></trkpt>
<trkpt lat="25.438663" lon="100.597398">
<time>2016-10-07T05:10:56Z</time></trkpt>
<trkpt lat="25.438703" lon="100.596988">
<time>2016-10-07T05:10:57Z</time></trkpt>
<trkpt lat="25.438713" lon="100.596828">
<time>2016-10-07T05:10:58Z</time></trkpt>
<trkpt lat="25.438683" lon="100.596668">
<time>2016-10-07T05:10:59Z</time></trkpt>
<trkpt lat="25.438653" lon="100.596588">
<time>2016-10-07T05:11:00Z</time></trkpt>
<trkpt lat="25.438503" lon="100.596488">
<time>2016-10-07T05:11:01Z</time></trkpt>
<trkpt lat="25.438243" lon="100.596308">
<time>2016-10-07T05:11:02Z</time></trkpt>
<trkpt lat="25.437993" lon="100.596098">
<time>2016-10-07T05:11:03Z</time></trkpt>
<trkpt lat="25.437883" lon="100.595888">
<time>2016-10-07T05:11:04Z</time></trkpt>
<trkpt lat="25.437923" lon="100.595578">
<time>2016-10-07T05:11:05Z</time></trkpt>
<trkpt lat="25.438192" lon="100.594279">
<time>2016-10-07T05:11:06Z</time></trkpt>
<trkpt lat="25.438322" lon="100.593829">
<time>2016-10-07T05:11:07Z</time></trkpt>
<trkpt lat="25.438402" lon="100.593669">
<time>2016-10-07T05:11:08Z</time></trkpt>
<trkpt lat="25.438763" lon="100.593529">
<time>2016-10-07T05:11:09Z</time></trkpt>
<trkpt lat="25.439793" lon="100.592959">
<time>2016-10-07T05:11:10Z</time></trkpt>
<trkpt lat="25.440853" lon="100.592339">
<time>2016-10-07T05:11:11Z</time></trkpt>
<trkpt lat="25.441513" lon="100.592089">
<time>2016-10-07T05:11:12Z</time></trkpt>
<trkpt lat="25.443483" lon="100.591339">
<time>2016-10-07T05:11:13Z</time></trkpt>
<trkpt lat="25.444283" lon="100.591059">
<time>2016-10-07T05:11:14Z</time></trkpt>
<trkpt lat="25.444473" lon="100.590899">
<time>2016-10-07T05:11:15Z</time></trkpt>
<trkpt lat="25.444753" lon="100.590339">
<time>2016-10-07T05:11:16Z</time></trkpt>
<trkpt lat="25.445203" lon="100.589379">
<time>2016-10-07T05:11:17Z</time></trkpt>
<trkpt lat="25.445383" lon="100.589059">
<time>2016-10-07T05:11:18Z</time></trkpt>
<trkpt lat="25.445743" lon="100.588689">
<time>2016-10-07T05:11:19Z</time></trkpt>
<trkpt lat="25.447203" lon="100.587349">
<time>2016-10-07T05:11:20Z</time></trkpt>
<trkpt lat="25.448922" lon="100.585639">
<time>2016-10-07T05:11:21Z</time></trkpt>
<trkpt lat="25.449222" lon="100.585389">
<time>2016-10-07T05:11:22Z</time></trkpt>
<trkpt lat="25.449322" lon="100.585349">
<time>2016-10-07T05:11:23Z</time></trkpt>
<trkpt lat="25.449322" lon="100.585349">
<time>2016-10-07T05:11:24Z</time></trkpt>
<trkpt lat="25.449242" lon="100.584789">
<time>2016-10-07T05:11:25Z</time></trkpt>
<trkpt lat="25.449192" lon="100.584538">
<time>2016-10-07T05:11:26Z</time></trkpt>
<trkpt lat="25.449182" lon="100.584398">
<time>2016-10-07T05:11:27Z</time></trkpt>
<trkpt lat="25.449232" lon="100.584108">
<time>2016-10-07T05:11:28Z</time></trkpt>
<trkpt lat="25.449541" lon="100.582118">
<time>2016-10-07T05:11:29Z</time></trkpt>
<trkpt lat="25.450118" lon="100.578426">
<time>2016-10-07T05:11:30Z</time></trkpt>
<trkpt lat="25.450506" lon="100.575684">
<time>2016-10-07T05:11:31Z</time></trkpt>
<trkpt lat="25.450625" lon="100.575104">
<time>2016-10-07T05:11:32Z</time></trkpt>
<trkpt lat="25.450755" lon="100.574513">
<time>2016-10-07T05:11:33Z</time></trkpt>
<trkpt lat="25.450864" lon="100.574183">
<time>2016-10-07T05:11:34Z</time></trkpt>
<trkpt lat="25.450864" lon="100.574183">
<time>2016-10-07T05:11:35Z</time></trkpt>
<trkpt lat="25.450764" lon="100.574043">
<time>2016-10-07T05:11:36Z</time></trkpt>
<trkpt lat="25.450534" lon="100.573653">
<time>2016-10-07T05:11:37Z</time></trkpt>
<trkpt lat="25.450253" lon="100.573212">
<time>2016-10-07T05:11:38Z</time></trkpt>
<trkpt lat="25.450003" lon="100.572832">
<time>2016-10-07T05:11:39Z</time></trkpt>
<trkpt lat="25.449983" lon="100.572752">
<time>2016-10-07T05:11:40Z</time></trkpt>
<trkpt lat="25.449973" lon="100.572692">
<time>2016-10-07T05:11:41Z</time></trkpt>
<trkpt lat="25.449992" lon="100.572632">
<time>2016-10-07T05:11:42Z</time></trkpt>
<trkpt lat="25.450012" lon="100.572482">
<time>2016-10-07T05:11:43Z</time></trkpt>
<trkpt lat="25.450012" lon="100.572482">
<time>2016-10-07T05:11:44Z</time></trkpt>
<trkpt lat="25.450042" lon="100.572472">
<time>2016-10-07T05:11:45Z</time></trkpt>
<trkpt lat="25.450222" lon="100.572422">
<time>2016-10-07T05:11:46Z</time></trkpt>
<trkpt lat="25.450372" lon="100.572332">
<time>2016-10-07T05:11:47Z</time></trkpt>
<trkpt lat="25.450472" lon="100.572192">
<time>2016-10-07T05:11:48Z</time></trkpt>
<trkpt lat="25.450542" lon="100.572051">
<time>2016-10-07T05:11:49Z</time></trkpt>
<trkpt lat="25.450582" lon="100.571901">
<time>2016-10-07T05:11:50Z</time></trkpt>
<trkpt lat="25.450632" lon="100.571771">
<time>2016-10-07T05:11:51Z</time></trkpt>
<trkpt lat="25.450692" lon="100.571661">
<time>2016-10-07T05:11:52Z</time></trkpt>
<trkpt lat="25.450751" lon="100.571541">
<time>2016-10-07T05:11:53Z</time></trkpt>
<trkpt lat="25.450821" lon="100.571381">
<time>2016-10-07T05:11:54Z</time></trkpt>
<trkpt lat="25.450851" lon="100.571281">
<time>2016-10-07T05:11:55Z</time></trkpt>
<trkpt lat="25.450911" lon="100.571151">
<time>2016-10-07T05:11:56Z</time></trkpt>
<trkpt lat="25.450951" lon="100.571021">
<time>2016-10-07T05:11:57Z</time></trkpt>
<trkpt lat="25.451001" lon="100.57091">
<time>2016-10-07T05:11:58Z</time></trkpt>
<trkpt lat="25.451041" lon="100.57081">
<time>2016-10-07T05:11:59Z</time></trkpt>
<trkpt lat="25.451041" lon="100.5708">
<time>2016-10-07T05:12:00Z</time></trkpt>
<trkpt lat="25.451091" lon="100.57068">
<time>2016-10-07T05:12:01Z</time></trkpt>
<trkpt lat="25.4511" lon="100.57065">
<time>2016-10-07T05:12:02Z</time></trkpt>
<trkpt lat="25.45114" lon="100.57054">
<time>2016-10-07T05:12:03Z</time></trkpt>
<trkpt lat="25.4512" lon="100.57038">
<time>2016-10-07T05:12:04Z</time></trkpt>
<trkpt lat="25.45127" lon="100.57022">
<time>2016-10-07T05:12:05Z</time></trkpt>
<trkpt lat="25.45134" lon="100.57006">
<time>2016-10-07T05:12:06Z</time></trkpt>
<trkpt lat="25.45142" lon="100.569889">
<time>2016-10-07T05:12:07Z</time></trkpt>
<trkpt lat="25.451489" lon="100.569719">
<time>2016-10-07T05:12:08Z</time></trkpt>
<trkpt lat="25.451559" lon="100.569579">
<time>2016-10-07T05:12:09Z</time></trkpt>
<trkpt lat="25.451619" lon="100.569439">
<time>2016-10-07T05:12:10Z</time></trkpt>
<trkpt lat="25.451669" lon="100.569319">
<time>2016-10-07T05:12:11Z</time></trkpt>
<trkpt lat="25.451719" lon="100.569229">
<time>2016-10-07T05:12:12Z</time></trkpt>
<trkpt lat="25.451759" lon="100.569109">
<time>2016-10-07T05:12:13Z</time></trkpt>
<trkpt lat="25.451809" lon="100.568938">
<time>2016-10-07T05:12:14Z</time></trkpt>
<trkpt lat="25.451819" lon="100.568868">
<time>2016-10-07T05:12:15Z</time></trkpt>
<trkpt lat="25.451828" lon="100.568798">
<time>2016-10-07T05:12:16Z</time></trkpt>
<trkpt lat="25.451838" lon="100.568778">
<time>2016-10-07T05:12:17Z</time></trkpt>
<trkpt lat="25.451828" lon="100.568618">
<time>2016-10-07T05:12:18Z</time></trkpt>
<trkpt lat="25.451828" lon="100.568518">
<time>2016-10-07T05:12:19Z</time></trkpt>
<trkpt lat="25.451808" lon="100.568398">
<time>2016-10-07T05:12:20Z</time></trkpt>
<trkpt lat="25.451798" lon="100.568268">
<time>2016-10-07T05:12:21Z</time></trkpt>
<trkpt lat="25.451778" lon="100.568168">
<time>2016-10-07T05:12:22Z</time></trkpt>
<trkpt lat="25.451747" lon="100.568018">
<time>2016-10-07T05:12:23Z</time></trkpt>
<trkpt lat="25.451697" lon="100.567887">
<time>2016-10-07T05:12:24Z</time></trkpt>
<trkpt lat="25.451637" lon="100.567757">
<time>2016-10-07T05:12:25Z</time></trkpt>
<trkpt lat="25.451577" lon="100.567627">
<time>2016-10-07T05:12:26Z</time></trkpt>
<trkpt lat="25.451507" lon="100.567517">
<time>2016-10-07T05:12:27Z</time></trkpt>
<trkpt lat="25.451447" lon="100.567427">
<time>2016-10-07T05:12:28Z</time></trkpt>
<trkpt lat="25.451366" lon="100.567327">
<time>2016-10-07T05:12:29Z</time></trkpt>
<trkpt lat="25.451286" lon="100.567247">
<time>2016-10-07T05:12:30Z</time></trkpt>
<trkpt lat="25.451186" lon="100.567147">
<time>2016-10-07T05:12:31Z</time></trkpt>
<trkpt lat="25.451106" lon="100.567076">
<time>2016-10-07T05:12:32Z</time></trkpt>
<trkpt lat="25.451006" lon="100.566986">
<time>2016-10-07T05:12:33Z</time></trkpt>
<trkpt lat="25.450926" lon="100.566916">
<time>2016-10-07T05:12:34Z</time></trkpt>
<trkpt lat="25.450856" lon="100.566836">
<time>2016-10-07T05:12:35Z</time></trkpt>
<trkpt lat="25.450766" lon="100.566736">
<time>2016-10-07T05:12:36Z</time></trkpt>
<trkpt lat="25.450675" lon="100.566646">
<time>2016-10-07T05:12:37Z</time></trkpt>
<trkpt lat="25.450605" lon="100.566566">
<time>2016-10-07T05:12:38Z</time></trkpt>
<trkpt lat="25.450545" lon="100.566496">
<time>2016-10-07T05:12:39Z</time></trkpt>
<trkpt lat="25.450455" lon="100.566406">
<time>2016-10-07T05:12:40Z</time></trkpt>
<trkpt lat="25.450425" lon="100.566366">
<time>2016-10-07T05:12:41Z</time></trkpt>
<trkpt lat="25.450365" lon="100.566306">
<time>2016-10-07T05:12:42Z</time></trkpt>
<trkpt lat="25.450335" lon="100.566256">
<time>2016-10-07T05:12:43Z</time></trkpt>
<trkpt lat="25.450285" lon="100.566196">
<time>2016-10-07T05:12:44Z</time></trkpt>
<trkpt lat="25.450205" lon="100.566105">
<time>2016-10-07T05:12:45Z</time></trkpt>
<trkpt lat="25.450134" lon="100.566015">
<time>2016-10-07T05:12:46Z</time></trkpt>
<trkpt lat="25.450074" lon="100.565905">
<time>2016-10-07T05:12:47Z</time></trkpt>
<trkpt lat="25.449944" lon="100.565775">
<time>2016-10-07T05:12:48Z</time></trkpt>
<trkpt lat="25.449804" lon="100.565645">
<time>2016-10-07T05:12:49Z</time></trkpt>
<trkpt lat="25.449694" lon="100.565525">
<time>2016-10-07T05:12:50Z</time></trkpt>
<trkpt lat="25.449603" lon="100.565415">
<time>2016-10-07T05:12:51Z</time></trkpt>
<trkpt lat="25.449513" lon="100.565284">
<time>2016-10-07T05:12:52Z</time></trkpt>
<trkpt lat="25.449433" lon="100.565154">
<time>2016-10-07T05:12:53Z</time></trkpt>
<trkpt lat="25.449383" lon="100.565024">
<time>2016-10-07T05:12:54Z</time></trkpt>
<trkpt lat="25.449343" lon="100.564894">
<time>2016-10-07T05:12:55Z</time></trkpt>
<trkpt lat="25.449322" lon="100.564754">
<time>2016-10-07T05:12:56Z</time></trkpt>
<trkpt lat="25.449312" lon="100.564624">
<time>2016-10-07T05:12:57Z</time></trkpt>
<trkpt lat="25.449322" lon="100.564453">
<time>2016-10-07T05:12:58Z</time></trkpt>
<trkpt lat="25.449322" lon="100.564293">
<time>2016-10-07T05:12:59Z</time></trkpt>
<trkpt lat="25.449332" lon="100.564133">
<time>2016-10-07T05:13:00Z</time></trkpt>
<trkpt lat="25.449341" lon="100.563963">
<time>2016-10-07T05:13:01Z</time></trkpt>
<trkpt lat="25.449351" lon="100.563773">
<time>2016-10-07T05:13:02Z</time></trkpt>
<trkpt lat="25.449361" lon="100.563612">
<time>2016-10-07T05:13:03Z</time></trkpt>
<trkpt lat="25.44936" lon="100.563412">
<time>2016-10-07T05:13:04Z</time></trkpt>
<trkpt lat="25.44937" lon="100.563232">
<time>2016-10-07T05:13:05Z</time></trkpt>
<trkpt lat="25.44938" lon="100.563072">
<time>2016-10-07T05:13:06Z</time></trkpt>
<trkpt lat="25.44938" lon="100.562901">
<time>2016-10-07T05:13:07Z</time></trkpt>
<trkpt lat="25.449389" lon="100.562731">
<time>2016-10-07T05:13:08Z</time></trkpt>
<trkpt lat="25.449399" lon="100.562581">
<time>2016-10-07T05:13:09Z</time></trkpt>
<trkpt lat="25.449399" lon="100.562461">
<time>2016-10-07T05:13:10Z</time></trkpt>
<trkpt lat="25.449409" lon="100.562281">
<time>2016-10-07T05:13:11Z</time></trkpt>
<trkpt lat="25.449409" lon="100.56218">
<time>2016-10-07T05:13:12Z</time></trkpt>
<trkpt lat="25.449408" lon="100.56205">
<time>2016-10-07T05:13:13Z</time></trkpt>
<trkpt lat="25.449408" lon="100.5619">
<time>2016-10-07T05:13:14Z</time></trkpt>
<trkpt lat="25.449408" lon="100.56175">
<time>2016-10-07T05:13:15Z</time></trkpt>
<trkpt lat="25.449398" lon="100.56159">
<time>2016-10-07T05:13:16Z</time></trkpt>
<trkpt lat="25.449407" lon="100.561419">
<time>2016-10-07T05:13:17Z</time></trkpt>
<trkpt lat="25.449417" lon="100.561239">
<time>2016-10-07T05:13:18Z</time></trkpt>
<trkpt lat="25.449437" lon="100.561049">
<time>2016-10-07T05:13:19Z</time></trkpt>
<trkpt lat="25.449447" lon="100.560839">
<time>2016-10-07T05:13:20Z</time></trkpt>
<trkpt lat="25.449456" lon="100.560638">
<time>2016-10-07T05:13:21Z</time></trkpt>
<trkpt lat="25.449476" lon="100.560418">
<time>2016-10-07T05:13:22Z</time></trkpt>
<trkpt lat="25.449486" lon="100.560218">
<time>2016-10-07T05:13:23Z</time></trkpt>
<trkpt lat="25.449495" lon="100.560017">
<time>2016-10-07T05:13:24Z</time></trkpt>
<trkpt lat="25.449505" lon="100.559827">
<time>2016-10-07T05:13:25Z</time></trkpt>
<trkpt lat="25.449505" lon="100.559657">
<time>2016-10-07T05:13:26Z</time></trkpt>
<trkpt lat="25.449504" lon="100.559487">
<time>2016-10-07T05:13:27Z</time></trkpt>
<trkpt lat="25.449514" lon="100.559336">
<time>2016-10-07T05:13:28Z</time></trkpt>
<trkpt lat="25.449514" lon="100.559196">
<time>2016-10-07T05:13:29Z</time></trkpt>
<trkpt lat="25.449514" lon="100.559056">
<time>2016-10-07T05:13:30Z</time></trkpt>
<trkpt lat="25.449533" lon="100.558916">
<time>2016-10-07T05:13:31Z</time></trkpt>
<trkpt lat="25.449523" lon="100.558776">
<time>2016-10-07T05:13:32Z</time></trkpt>
<trkpt lat="25.449543" lon="100.558585">
<time>2016-10-07T05:13:33Z</time></trkpt>
<trkpt lat="25.449553" lon="100.558405">
<time>2016-10-07T05:13:34Z</time></trkpt>
<trkpt lat="25.449562" lon="100.558245">
<time>2016-10-07T05:13:35Z</time></trkpt>
<trkpt lat="25.449572" lon="100.558115">
<time>2016-10-07T05:13:36Z</time></trkpt>
<trkpt lat="25.449572" lon="100.557984">
<time>2016-10-07T05:13:37Z</time></trkpt>
<trkpt lat="25.449572" lon="100.557864">
<time>2016-10-07T05:13:38Z</time></trkpt>
<trkpt lat="25.449591" lon="100.557684">
<time>2016-10-07T05:13:39Z</time></trkpt>
<trkpt lat="25.449611" lon="100.557494">
<time>2016-10-07T05:13:40Z</time></trkpt>
<trkpt lat="25.449641" lon="100.557333">
<time>2016-10-07T05:13:41Z</time></trkpt>
<trkpt lat="25.449651" lon="100.557173">
<time>2016-10-07T05:13:42Z</time></trkpt>
<trkpt lat="25.44966" lon="100.557063">
<time>2016-10-07T05:13:43Z</time></trkpt>
<trkpt lat="25.44966" lon="100.556953">
<time>2016-10-07T05:13:44Z</time></trkpt>
<trkpt lat="25.44966" lon="100.556833">
<time>2016-10-07T05:13:45Z</time></trkpt>
<trkpt lat="25.44968" lon="100.556732">
<time>2016-10-07T05:13:46Z</time></trkpt>
<trkpt lat="25.44968" lon="100.556612">
<time>2016-10-07T05:13:47Z</time></trkpt>
<trkpt lat="25.449689" lon="100.556502">
<time>2016-10-07T05:13:48Z</time></trkpt>
<trkpt lat="25.449689" lon="100.556372">
<time>2016-10-07T05:13:49Z</time></trkpt>
<trkpt lat="25.449699" lon="100.556252">
<time>2016-10-07T05:13:50Z</time></trkpt>
<trkpt lat="25.449699" lon="100.556121">
<time>2016-10-07T05:13:51Z</time></trkpt>
<trkpt lat="25.449708" lon="100.556001">
<time>2016-10-07T05:13:52Z</time></trkpt>
<trkpt lat="25.449708" lon="100.555871">
<time>2016-10-07T05:13:53Z</time></trkpt>
<trkpt lat="25.449708" lon="100.555751">
<time>2016-10-07T05:13:54Z</time></trkpt>
<trkpt lat="25.449718" lon="100.555621">
<time>2016-10-07T05:13:55Z</time></trkpt>
<trkpt lat="25.449718" lon="100.55551">
<time>2016-10-07T05:13:56Z</time></trkpt>
<trkpt lat="25.449727" lon="100.55539">
<time>2016-10-07T05:13:57Z</time></trkpt>
<trkpt lat="25.449737" lon="100.55526">
<time>2016-10-07T05:13:58Z</time></trkpt>
<trkpt lat="25.449747" lon="100.55513">
<time>2016-10-07T05:13:59Z</time></trkpt>
<trkpt lat="25.449747" lon="100.555">
<time>2016-10-07T05:14:00Z</time></trkpt>
<trkpt lat="25.449766" lon="100.554869">
<time>2016-10-07T05:14:01Z</time></trkpt>
<trkpt lat="25.449776" lon="100.554759">
<time>2016-10-07T05:14:02Z</time></trkpt>
<trkpt lat="25.449786" lon="100.554649">
<time>2016-10-07T05:14:03Z</time></trkpt>
<trkpt lat="25.449786" lon="100.554539">
<time>2016-10-07T05:14:04Z</time></trkpt>
<trkpt lat="25.449796" lon="100.554429">
<time>2016-10-07T05:14:05Z</time></trkpt>
<trkpt lat="25.449805" lon="100.554298">
<time>2016-10-07T05:14:06Z</time></trkpt>
<trkpt lat="25.449805" lon="100.554178">
<time>2016-10-07T05:14:07Z</time></trkpt>
<trkpt lat="25.449805" lon="100.554068">
<time>2016-10-07T05:14:08Z</time></trkpt>
<trkpt lat="25.449815" lon="100.553948">
<time>2016-10-07T05:14:09Z</time></trkpt>
<trkpt lat="25.449815" lon="100.553818">
<time>2016-10-07T05:14:10Z</time></trkpt>
<trkpt lat="25.449824" lon="100.553687">
<time>2016-10-07T05:14:11Z</time></trkpt>
<trkpt lat="25.449824" lon="100.553537">
<time>2016-10-07T05:14:12Z</time></trkpt>
<trkpt lat="25.449834" lon="100.553377">
<time>2016-10-07T05:14:13Z</time></trkpt>
<trkpt lat="25.449843" lon="100.553207">
<time>2016-10-07T05:14:14Z</time></trkpt>
<trkpt lat="25.449843" lon="100.553026">
<time>2016-10-07T05:14:15Z</time></trkpt>
<trkpt lat="25.449853" lon="100.552846">
<time>2016-10-07T05:14:16Z</time></trkpt>
<trkpt lat="25.449862" lon="100.552706">
<time>2016-10-07T05:14:17Z</time></trkpt>
<trkpt lat="25.449872" lon="100.552656">
<time>2016-10-07T05:14:18Z</time></trkpt>
<trkpt lat="25.449892" lon="100.552445">
<time>2016-10-07T05:14:19Z</time></trkpt>
<trkpt lat="25.449912" lon="100.552275">
<time>2016-10-07T05:14:20Z</time></trkpt>
<trkpt lat="25.449922" lon="100.552205">
<time>2016-10-07T05:14:21Z</time></trkpt>
<trkpt lat="25.449941" lon="100.552095">
<time>2016-10-07T05:14:22Z</time></trkpt>
<trkpt lat="25.449961" lon="100.551914">
<time>2016-10-07T05:14:23Z</time></trkpt>
<trkpt lat="25.449991" lon="100.551754">
<time>2016-10-07T05:14:24Z</time></trkpt>
<trkpt lat="25.450001" lon="100.551734">
<time>2016-10-07T05:14:25Z</time></trkpt>
<trkpt lat="25.45004" lon="100.551564">
<time>2016-10-07T05:14:26Z</time></trkpt>
<trkpt lat="25.45008" lon="100.551453">
<time>2016-10-07T05:14:27Z</time></trkpt>
<trkpt lat="25.4501" lon="100.551403">
<time>2016-10-07T05:14:28Z</time></trkpt>
<trkpt lat="25.45022" lon="100.551233">
<time>2016-10-07T05:14:29Z</time></trkpt>
<trkpt lat="25.450359" lon="100.551093">
<time>2016-10-07T05:14:30Z</time></trkpt>
<trkpt lat="25.450499" lon="100.550962">
<time>2016-10-07T05:14:31Z</time></trkpt>
<trkpt lat="25.450659" lon="100.550822">
<time>2016-10-07T05:14:32Z</time></trkpt>
<trkpt lat="25.450809" lon="100.550682">
<time>2016-10-07T05:14:33Z</time></trkpt>
<trkpt lat="25.450959" lon="100.550552">
<time>2016-10-07T05:14:34Z</time></trkpt>
<trkpt lat="25.451078" lon="100.550452">
<time>2016-10-07T05:14:35Z</time></trkpt>
<trkpt lat="25.451148" lon="100.550391">
<time>2016-10-07T05:14:36Z</time></trkpt>
<trkpt lat="25.451268" lon="100.550271">
<time>2016-10-07T05:14:37Z</time></trkpt>
<trkpt lat="25.451398" lon="100.550151">
<time>2016-10-07T05:14:38Z</time></trkpt>
<trkpt lat="25.451538" lon="100.550031">
<time>2016-10-07T05:14:39Z</time></trkpt>
<trkpt lat="25.451598" lon="100.549971">
<time>2016-10-07T05:14:40Z</time></trkpt>
<trkpt lat="25.451677" lon="100.54991">
<time>2016-10-07T05:14:41Z</time></trkpt>
<trkpt lat="25.451807" lon="100.54979">
<time>2016-10-07T05:14:42Z</time></trkpt>
<trkpt lat="25.451947" lon="100.54968">
<time>2016-10-07T05:14:43Z</time></trkpt>
<trkpt lat="25.452077" lon="100.54959">
<time>2016-10-07T05:14:44Z</time></trkpt>
<trkpt lat="25.452237" lon="100.54948">
<time>2016-10-07T05:14:45Z</time></trkpt>
<trkpt lat="25.452367" lon="100.54946">
<time>2016-10-07T05:14:46Z</time></trkpt>
<trkpt lat="25.452507" lon="100.54946">
<time>2016-10-07T05:14:47Z</time></trkpt>
<trkpt lat="25.452657" lon="100.54947">
<time>2016-10-07T05:14:48Z</time></trkpt>
<trkpt lat="25.452807" lon="100.54949">
<time>2016-10-07T05:14:49Z</time></trkpt>
<trkpt lat="25.452957" lon="100.54951">
<time>2016-10-07T05:14:50Z</time></trkpt>
<trkpt lat="25.453117" lon="100.54953">
<time>2016-10-07T05:14:51Z</time></trkpt>
<trkpt lat="25.453277" lon="100.54955">
<time>2016-10-07T05:14:52Z</time></trkpt>
<trkpt lat="25.453447" lon="100.54956">
<time>2016-10-07T05:14:53Z</time></trkpt>
<trkpt lat="25.453617" lon="100.54957">
<time>2016-10-07T05:14:54Z</time></trkpt>
<trkpt lat="25.453787" lon="100.54958">
<time>2016-10-07T05:14:55Z</time></trkpt>
<trkpt lat="25.453957" lon="100.54958">
<time>2016-10-07T05:14:56Z</time></trkpt>
<trkpt lat="25.454117" lon="100.54959">
<time>2016-10-07T05:14:57Z</time></trkpt>
<trkpt lat="25.454257" lon="100.54959">
<time>2016-10-07T05:14:58Z</time></trkpt>
<trkpt lat="25.454377" lon="100.54957">
<time>2016-10-07T05:14:59Z</time></trkpt>
<trkpt lat="25.454487" lon="100.54955">
<time>2016-10-07T05:15:00Z</time></trkpt>
<trkpt lat="25.454597" lon="100.54953">
<time>2016-10-07T05:15:01Z</time></trkpt>
<trkpt lat="25.454727" lon="100.54949">
<time>2016-10-07T05:15:02Z</time></trkpt>
<trkpt lat="25.454857" lon="100.54945">
<time>2016-10-07T05:15:03Z</time></trkpt>
<trkpt lat="25.454987" lon="100.549409">
<time>2016-10-07T05:15:04Z</time></trkpt>
<trkpt lat="25.455137" lon="100.549359">
<time>2016-10-07T05:15:05Z</time></trkpt>
<trkpt lat="25.455307" lon="100.549309">
<time>2016-10-07T05:15:06Z</time></trkpt>
<trkpt lat="25.455457" lon="100.549269">
<time>2016-10-07T05:15:07Z</time></trkpt>
<trkpt lat="25.455477" lon="100.549269">
<time>2016-10-07T05:15:08Z</time></trkpt>
<trkpt lat="25.455527" lon="100.549239">
<time>2016-10-07T05:15:09Z</time></trkpt>
<trkpt lat="25.455587" lon="100.549189">
<time>2016-10-07T05:15:10Z</time></trkpt>
<trkpt lat="25.455677" lon="100.549109">
<time>2016-10-07T05:15:11Z</time></trkpt>
<trkpt lat="25.455757" lon="100.549019">
<time>2016-10-07T05:15:12Z</time></trkpt>
<trkpt lat="25.455787" lon="100.548969">
<time>2016-10-07T05:15:13Z</time></trkpt>
<trkpt lat="25.455807" lon="100.548939">
<time>2016-10-07T05:15:14Z</time></trkpt>
<trkpt lat="25.455856" lon="100.548838">
<time>2016-10-07T05:15:15Z</time></trkpt>
<trkpt lat="25.455896" lon="100.548728">
<time>2016-10-07T05:15:16Z</time></trkpt>
<trkpt lat="25.455976" lon="100.548468">
<time>2016-10-07T05:15:17Z</time></trkpt>
<trkpt lat="25.456055" lon="100.548257">
<time>2016-10-07T05:15:18Z</time></trkpt>
<trkpt lat="25.456194" lon="100.547736">
<time>2016-10-07T05:15:19Z</time></trkpt>
<trkpt lat="25.456353" lon="100.547245">
<time>2016-10-07T05:15:20Z</time></trkpt>
<trkpt lat="25.456462" lon="100.546884">
<time>2016-10-07T05:15:21Z</time></trkpt>
<trkpt lat="25.456562" lon="100.546494">
<time>2016-10-07T05:15:22Z</time></trkpt>
<trkpt lat="25.456631" lon="100.546263">
<time>2016-10-07T05:15:23Z</time></trkpt>
<trkpt lat="25.456681" lon="100.546053">
<time>2016-10-07T05:15:24Z</time></trkpt>
<trkpt lat="25.45676" lon="100.545852">
<time>2016-10-07T05:15:25Z</time></trkpt>
<trkpt lat="25.45685" lon="100.545612">
<time>2016-10-07T05:15:26Z</time></trkpt>
<trkpt lat="25.456929" lon="100.545421">
<time>2016-10-07T05:15:27Z</time></trkpt>
<trkpt lat="25.456979" lon="100.545301">
<time>2016-10-07T05:15:28Z</time></trkpt>
<trkpt lat="25.457029" lon="100.545211">
<time>2016-10-07T05:15:29Z</time></trkpt>
<trkpt lat="25.457089" lon="100.545101">
<time>2016-10-07T05:15:30Z</time></trkpt>
<trkpt lat="25.457238" lon="100.54485">
<time>2016-10-07T05:15:31Z</time></trkpt>
<trkpt lat="25.457308" lon="100.54469">
<time>2016-10-07T05:15:32Z</time></trkpt>
<trkpt lat="25.457348" lon="100.54459">
<time>2016-10-07T05:15:33Z</time></trkpt>
<trkpt lat="25.457368" lon="100.5445">
<time>2016-10-07T05:15:34Z</time></trkpt>
<trkpt lat="25.457377" lon="100.544429">
<time>2016-10-07T05:15:35Z</time></trkpt>
<trkpt lat="25.457377" lon="100.544339">
<time>2016-10-07T05:15:36Z</time></trkpt>
<trkpt lat="25.457377" lon="100.544249">
<time>2016-10-07T05:15:37Z</time></trkpt>
<trkpt lat="25.457377" lon="100.544159">
<time>2016-10-07T05:15:38Z</time></trkpt>
<trkpt lat="25.457357" lon="100.544039">
<time>2016-10-07T05:15:39Z</time></trkpt>
<trkpt lat="25.457306" lon="100.543778">
<time>2016-10-07T05:15:40Z</time></trkpt>
<trkpt lat="25.457245" lon="100.543477">
<time>2016-10-07T05:15:41Z</time></trkpt>
<trkpt lat="25.457215" lon="100.543327">
<time>2016-10-07T05:15:42Z</time></trkpt>
<trkpt lat="25.457205" lon="100.543227">
<time>2016-10-07T05:15:43Z</time></trkpt>
<trkpt lat="25.457184" lon="100.543117">
<time>2016-10-07T05:15:44Z</time></trkpt>
<trkpt lat="25.457154" lon="100.542976">
<time>2016-10-07T05:15:45Z</time></trkpt>
<trkpt lat="25.457114" lon="100.542826">
<time>2016-10-07T05:15:46Z</time></trkpt>
<trkpt lat="25.457063" lon="100.542686">
<time>2016-10-07T05:15:47Z</time></trkpt>
<trkpt lat="25.457043" lon="100.542626">
<time>2016-10-07T05:15:48Z</time></trkpt>
<trkpt lat="25.457003" lon="100.542555">
<time>2016-10-07T05:15:49Z</time></trkpt>
<trkpt lat="25.456953" lon="100.542485">
<time>2016-10-07T05:15:50Z</time></trkpt>
<trkpt lat="25.456732" lon="100.542235">
<time>2016-10-07T05:15:51Z</time></trkpt>
<trkpt lat="25.456602" lon="100.542104">
<time>2016-10-07T05:15:52Z</time></trkpt>
<trkpt lat="25.456512" lon="100.541994">
<time>2016-10-07T05:15:53Z</time></trkpt>
<trkpt lat="25.456311" lon="100.541764">
<time>2016-10-07T05:15:54Z</time></trkpt>
<trkpt lat="25.456211" lon="100.541643">
<time>2016-10-07T05:15:55Z</time></trkpt>
<trkpt lat="25.45608" lon="100.541503">
<time>2016-10-07T05:15:56Z</time></trkpt>
<trkpt lat="25.45594" lon="100.541373">
<time>2016-10-07T05:15:57Z</time></trkpt>
<trkpt lat="25.45585" lon="100.541303">
<time>2016-10-07T05:15:58Z</time></trkpt>
<trkpt lat="25.45577" lon="100.541253">
<time>2016-10-07T05:15:59Z</time></trkpt>
<trkpt lat="25.45569" lon="100.541202">
<time>2016-10-07T05:16:00Z</time></trkpt>
<trkpt lat="25.45562" lon="100.541172">
<time>2016-10-07T05:16:01Z</time></trkpt>
<trkpt lat="25.45556" lon="100.541152">
<time>2016-10-07T05:16:02Z</time></trkpt>
<trkpt lat="25.455479" lon="100.541132">
<time>2016-10-07T05:16:03Z</time></trkpt>
<trkpt lat="25.455389" lon="100.541112">
<time>2016-10-07T05:16:04Z</time></trkpt>
<trkpt lat="25.455279" lon="100.541102">
<time>2016-10-07T05:16:05Z</time></trkpt>
<trkpt lat="25.454879" lon="100.541072">
<time>2016-10-07T05:16:06Z</time></trkpt>
<trkpt lat="25.454269" lon="100.541012">
<time>2016-10-07T05:16:07Z</time></trkpt>
<trkpt lat="25.453269" lon="100.540962">
<time>2016-10-07T05:16:08Z</time></trkpt>
<trkpt lat="25.452848" lon="100.540932">
<time>2016-10-07T05:16:09Z</time></trkpt>
<trkpt lat="25.452438" lon="100.540902">
<time>2016-10-07T05:16:10Z</time></trkpt>
<trkpt lat="25.452238" lon="100.540902">
<time>2016-10-07T05:16:11Z</time></trkpt>
<trkpt lat="25.452118" lon="100.540902">
<time>2016-10-07T05:16:12Z</time></trkpt>
<trkpt lat="25.452018" lon="100.540902">
<time>2016-10-07T05:16:13Z</time></trkpt>
<trkpt lat="25.451888" lon="100.540912">
<time>2016-10-07T05:16:14Z</time></trkpt>
<trkpt lat="25.450698" lon="100.541062">
<time>2016-10-07T05:16:15Z</time></trkpt>
<trkpt lat="25.450478" lon="100.541082">
<time>2016-10-07T05:16:16Z</time></trkpt>
<trkpt lat="25.450328" lon="100.541092">
<time>2016-10-07T05:16:17Z</time></trkpt>
<trkpt lat="25.450178" lon="100.541092">
<time>2016-10-07T05:16:18Z</time></trkpt>
<trkpt lat="25.450048" lon="100.541072">
<time>2016-10-07T05:16:19Z</time></trkpt>
<trkpt lat="25.449938" lon="100.541062">
<time>2016-10-07T05:16:20Z</time></trkpt>
<trkpt lat="25.449838" lon="100.541032">
<time>2016-10-07T05:16:21Z</time></trkpt>
<trkpt lat="25.449618" lon="100.540992">
<time>2016-10-07T05:16:22Z</time></trkpt>
<trkpt lat="25.449478" lon="100.540952">
<time>2016-10-07T05:16:23Z</time></trkpt>
<trkpt lat="25.449267" lon="100.540912">
<time>2016-10-07T05:16:24Z</time></trkpt>
<trkpt lat="25.449087" lon="100.540862">
<time>2016-10-07T05:16:25Z</time></trkpt>
<trkpt lat="25.448957" lon="100.540822">
<time>2016-10-07T05:16:26Z</time></trkpt>
<trkpt lat="25.448817" lon="100.540772">
<time>2016-10-07T05:16:27Z</time></trkpt>
<trkpt lat="25.448567" lon="100.540681">
<time>2016-10-07T05:16:28Z</time></trkpt>
<trkpt lat="25.448346" lon="100.540591">
<time>2016-10-07T05:16:29Z</time></trkpt>
<trkpt lat="25.447746" lon="100.540311">
<time>2016-10-07T05:16:30Z</time></trkpt>
<trkpt lat="25.447245" lon="100.54008">
<time>2016-10-07T05:16:31Z</time></trkpt>
<trkpt lat="25.446904" lon="100.53992">
<time>2016-10-07T05:16:32Z</time></trkpt>
<trkpt lat="25.446684" lon="100.53983">
<time>2016-10-07T05:16:33Z</time></trkpt>
<trkpt lat="25.446494" lon="100.539749">
<time>2016-10-07T05:16:34Z</time></trkpt>
<trkpt lat="25.446414" lon="100.539699">
<time>2016-10-07T05:16:35Z</time></trkpt>
<trkpt lat="25.446364" lon="100.539669">
<time>2016-10-07T05:16:36Z</time></trkpt>
<trkpt lat="25.446304" lon="100.539629">
<time>2016-10-07T05:16:37Z</time></trkpt>
<trkpt lat="25.446254" lon="100.539569">
<time>2016-10-07T05:16:38Z</time></trkpt>
<trkpt lat="25.446213" lon="100.539519">
<time>2016-10-07T05:16:39Z</time></trkpt>
<trkpt lat="25.446173" lon="100.539449">
<time>2016-10-07T05:16:40Z</time></trkpt>
<trkpt lat="25.446163" lon="100.539429">
<time>2016-10-07T05:16:41Z</time></trkpt>
<trkpt lat="25.446133" lon="100.539369">
<time>2016-10-07T05:16:42Z</time></trkpt>
<trkpt lat="25.446113" lon="100.539278">
<time>2016-10-07T05:16:43Z</time></trkpt>
<trkpt lat="25.446103" lon="100.539208">
<time>2016-10-07T05:16:44Z</time></trkpt>
<trkpt lat="25.446102" lon="100.539148">
<time>2016-10-07T05:16:45Z</time></trkpt>
<trkpt lat="25.446112" lon="100.539078">
<time>2016-10-07T05:16:46Z</time></trkpt>
<trkpt lat="25.446132" lon="100.538998">
<time>2016-10-07T05:16:47Z</time></trkpt>
<trkpt lat="25.446162" lon="100.538918">
<time>2016-10-07T05:16:48Z</time></trkpt>
<trkpt lat="25.446202" lon="100.538857">
<time>2016-10-07T05:16:49Z</time></trkpt>
<trkpt lat="25.446232" lon="100.538807">
<time>2016-10-07T05:16:50Z</time></trkpt>
<trkpt lat="25.446292" lon="100.538757">
<time>2016-10-07T05:16:51Z</time></trkpt>
<trkpt lat="25.446391" lon="100.538697">
<time>2016-10-07T05:16:52Z</time></trkpt>
<trkpt lat="25.446491" lon="100.538637">
<time>2016-10-07T05:16:53Z</time></trkpt>
<trkpt lat="25.446561" lon="100.538597">
<time>2016-10-07T05:16:54Z</time></trkpt>
<trkpt lat="25.446881" lon="100.538456">
<time>2016-10-07T05:16:55Z</time></trkpt>
<trkpt lat="25.447101" lon="100.538356">
<time>2016-10-07T05:16:56Z</time></trkpt>
<trkpt lat="25.447191" lon="100.538316">
<time>2016-10-07T05:16:57Z</time></trkpt>
<trkpt lat="25.447391" lon="100.538196">
<time>2016-10-07T05:16:58Z</time></trkpt>
<trkpt lat="25.44752" lon="100.538116">
<time>2016-10-07T05:16:59Z</time></trkpt>
<trkpt lat="25.44769" lon="100.537985">
<time>2016-10-07T05:17:00Z</time></trkpt>
<trkpt lat="25.4478" lon="100.537905">
<time>2016-10-07T05:17:01Z</time></trkpt>
<trkpt lat="25.44788" lon="100.537825">
<time>2016-10-07T05:17:02Z</time></trkpt>
<trkpt lat="25.448039" lon="100.537675">
<time>2016-10-07T05:17:03Z</time></trkpt>
<trkpt lat="25.448139" lon="100.537584">
<time>2016-10-07T05:17:04Z</time></trkpt>
<trkpt lat="25.448259" lon="100.537474">
<time>2016-10-07T05:17:05Z</time></trkpt>
<trkpt lat="25.448429" lon="100.537304">
<time>2016-10-07T05:17:06Z</time></trkpt>
<trkpt lat="25.448528" lon="100.537223">
<time>2016-10-07T05:17:07Z</time></trkpt>
<trkpt lat="25.448578" lon="100.537173">
<time>2016-10-07T05:17:08Z</time></trkpt>
<trkpt lat="25.448658" lon="100.537103">
<time>2016-10-07T05:17:09Z</time></trkpt>
<trkpt lat="25.448708" lon="100.537063">
<time>2016-10-07T05:17:10Z</time></trkpt>
<trkpt lat="25.448808" lon="100.537003">
<time>2016-10-07T05:17:11Z</time></trkpt>
<trkpt lat="25.448878" lon="100.536973">
<time>2016-10-07T05:17:12Z</time></trkpt>
<trkpt lat="25.449028" lon="100.536883">
<time>2016-10-07T05:17:13Z</time></trkpt>
<trkpt lat="25.449128" lon="100.536823">
<time>2016-10-07T05:17:14Z</time></trkpt>
<trkpt lat="25.449277" lon="100.536742">
<time>2016-10-07T05:17:15Z</time></trkpt>
<trkpt lat="25.449367" lon="100.536692">
<time>2016-10-07T05:17:16Z</time></trkpt>
<trkpt lat="25.449467" lon="100.536622">
<time>2016-10-07T05:17:17Z</time></trkpt>
<trkpt lat="25.449547" lon="100.536552">
<time>2016-10-07T05:17:18Z</time></trkpt>
<trkpt lat="25.449597" lon="100.536492">
<time>2016-10-07T05:17:19Z</time></trkpt>
<trkpt lat="25.449647" lon="100.536391">
<time>2016-10-07T05:17:20Z</time></trkpt>
<trkpt lat="25.449667" lon="100.536331">
<time>2016-10-07T05:17:21Z</time></trkpt>
<trkpt lat="25.449686" lon="100.536251">
<time>2016-10-07T05:17:22Z</time></trkpt>
<trkpt lat="25.449696" lon="100.536191">
<time>2016-10-07T05:17:23Z</time></trkpt>
<trkpt lat="25.449706" lon="100.536111">
<time>2016-10-07T05:17:24Z</time></trkpt>
<trkpt lat="25.449696" lon="100.536041">
<time>2016-10-07T05:17:25Z</time></trkpt>
<trkpt lat="25.449696" lon="100.536001">
<time>2016-10-07T05:17:26Z</time></trkpt>
<trkpt lat="25.449676" lon="100.5359">
<time>2016-10-07T05:17:27Z</time></trkpt>
<trkpt lat="25.449655" lon="100.53575">
<time>2016-10-07T05:17:28Z</time></trkpt>
<trkpt lat="25.449625" lon="100.53559">
<time>2016-10-07T05:17:29Z</time></trkpt>
<trkpt lat="25.449594" lon="100.535429">
<time>2016-10-07T05:17:30Z</time></trkpt>
<trkpt lat="25.449574" lon="100.535329">
<time>2016-10-07T05:17:31Z</time></trkpt>
<trkpt lat="25.449564" lon="100.535229">
<time>2016-10-07T05:17:32Z</time></trkpt>
<trkpt lat="25.449523" lon="100.534727">
<time>2016-10-07T05:17:33Z</time></trkpt>
<trkpt lat="25.449512" lon="100.534507">
<time>2016-10-07T05:17:34Z</time></trkpt>
<trkpt lat="25.449491" lon="100.534226">
<time>2016-10-07T05:17:35Z</time></trkpt>
<trkpt lat="25.449471" lon="100.534036">
<time>2016-10-07T05:17:36Z</time></trkpt>
<trkpt lat="25.44945" lon="100.533865">
<time>2016-10-07T05:17:37Z</time></trkpt>
<trkpt lat="25.44943" lon="100.533665">
<time>2016-10-07T05:17:38Z</time></trkpt>
<trkpt lat="25.44942" lon="100.533525">
<time>2016-10-07T05:17:39Z</time></trkpt>
<trkpt lat="25.449399" lon="100.533424">
<time>2016-10-07T05:17:40Z</time></trkpt>
<trkpt lat="25.449369" lon="100.533234">
<time>2016-10-07T05:17:41Z</time></trkpt>
<trkpt lat="25.449318" lon="100.532973">
<time>2016-10-07T05:17:42Z</time></trkpt>
<trkpt lat="25.449257" lon="100.532632">
<time>2016-10-07T05:17:43Z</time></trkpt>
<trkpt lat="25.449206" lon="100.532352">
<time>2016-10-07T05:17:44Z</time></trkpt>
<trkpt lat="25.449176" lon="100.532101">
<time>2016-10-07T05:17:45Z</time></trkpt>
<trkpt lat="25.449145" lon="100.53191">
<time>2016-10-07T05:17:46Z</time></trkpt>
<trkpt lat="25.449125" lon="100.53177">
<time>2016-10-07T05:17:47Z</time></trkpt>
<trkpt lat="25.449084" lon="100.53158">
<time>2016-10-07T05:17:48Z</time></trkpt>
<trkpt lat="25.449054" lon="100.531459">
<time>2016-10-07T05:17:49Z</time></trkpt>
<trkpt lat="25.448994" lon="100.531289">
<time>2016-10-07T05:17:50Z</time></trkpt>
<trkpt lat="25.448943" lon="100.531139">
<time>2016-10-07T05:17:51Z</time></trkpt>
<trkpt lat="25.448903" lon="100.531028">
<time>2016-10-07T05:17:52Z</time></trkpt>
<trkpt lat="25.448873" lon="100.530928">
<time>2016-10-07T05:17:53Z</time></trkpt>
<trkpt lat="25.448833" lon="100.530848">
<time>2016-10-07T05:17:54Z</time></trkpt>
<trkpt lat="25.448792" lon="100.530758">
<time>2016-10-07T05:17:55Z</time></trkpt>
<trkpt lat="25.448752" lon="100.530677">
<time>2016-10-07T05:17:56Z</time></trkpt>
<trkpt lat="25.448702" lon="100.530597">
<time>2016-10-07T05:17:57Z</time></trkpt>
<trkpt lat="25.448642" lon="100.530507">
<time>2016-10-07T05:17:58Z</time></trkpt>
<trkpt lat="25.448591" lon="100.530437">
<time>2016-10-07T05:17:59Z</time></trkpt>
<trkpt lat="25.448521" lon="100.530367">
<time>2016-10-07T05:18:00Z</time></trkpt>
<trkpt lat="25.448441" lon="100.530286">
<time>2016-10-07T05:18:01Z</time></trkpt>
<trkpt lat="25.44806" lon="100.529905">
<time>2016-10-07T05:18:02Z</time></trkpt>
<trkpt lat="25.447659" lon="100.529494">
<time>2016-10-07T05:18:03Z</time></trkpt>
<trkpt lat="25.447478" lon="100.529304">
<time>2016-10-07T05:18:04Z</time></trkpt>
<trkpt lat="25.447328" lon="100.529133">
<time>2016-10-07T05:18:05Z</time></trkpt>
<trkpt lat="25.447187" lon="100.528993">
<time>2016-10-07T05:18:06Z</time></trkpt>
<trkpt lat="25.447077" lon="100.528853">
<time>2016-10-07T05:18:07Z</time></trkpt>
<trkpt lat="25.447007" lon="100.528752">
<time>2016-10-07T05:18:08Z</time></trkpt>
<trkpt lat="25.446997" lon="100.528742">
<time>2016-10-07T05:18:09Z</time></trkpt>
<trkpt lat="25.446886" lon="100.528582">
<time>2016-10-07T05:18:10Z</time></trkpt>
<trkpt lat="25.446806" lon="100.528442">
<time>2016-10-07T05:18:11Z</time></trkpt>
<trkpt lat="25.446725" lon="100.528291">
<time>2016-10-07T05:18:12Z</time></trkpt>
<trkpt lat="25.446675" lon="100.528171">
<time>2016-10-07T05:18:13Z</time></trkpt>
<trkpt lat="25.446483" lon="100.527639">
<time>2016-10-07T05:18:14Z</time></trkpt>
<trkpt lat="25.446372" lon="100.527268">
<time>2016-10-07T05:18:15Z</time></trkpt>
<trkpt lat="25.446322" lon="100.527068">
<time>2016-10-07T05:18:16Z</time></trkpt>
<trkpt lat="25.446272" lon="100.526938">
<time>2016-10-07T05:18:17Z</time></trkpt>
<trkpt lat="25.446211" lon="100.526787">
<time>2016-10-07T05:18:18Z</time></trkpt>
<trkpt lat="25.446151" lon="100.526637">
<time>2016-10-07T05:18:19Z</time></trkpt>
<trkpt lat="25.4461" lon="100.526506">
<time>2016-10-07T05:18:20Z</time></trkpt>
<trkpt lat="25.44607" lon="100.526436">
<time>2016-10-07T05:18:21Z</time></trkpt>
<trkpt lat="25.44602" lon="100.526346">
<time>2016-10-07T05:18:22Z</time></trkpt>
<trkpt lat="25.44598" lon="100.526276">
<time>2016-10-07T05:18:23Z</time></trkpt>
<trkpt lat="25.44594" lon="100.526226">
<time>2016-10-07T05:18:24Z</time></trkpt>
<trkpt lat="25.445849" lon="100.526085">
<time>2016-10-07T05:18:25Z</time></trkpt>
<trkpt lat="25.445769" lon="100.525965">
<time>2016-10-07T05:18:26Z</time></trkpt>
<trkpt lat="25.445658" lon="100.525835">
<time>2016-10-07T05:18:27Z</time></trkpt>
<trkpt lat="25.445528" lon="100.525654">
<time>2016-10-07T05:18:28Z</time></trkpt>
<trkpt lat="25.445437" lon="100.525514">
<time>2016-10-07T05:18:29Z</time></trkpt>
<trkpt lat="25.445367" lon="100.525424">
<time>2016-10-07T05:18:30Z</time></trkpt>
<trkpt lat="25.445327" lon="100.525363">
<time>2016-10-07T05:18:31Z</time></trkpt>
<trkpt lat="25.445267" lon="100.525313">
<time>2016-10-07T05:18:32Z</time></trkpt>
<trkpt lat="25.445207" lon="100.525253">
<time>2016-10-07T05:18:33Z</time></trkpt>
<trkpt lat="25.445126" lon="100.525173">
<time>2016-10-07T05:18:34Z</time></trkpt>
<trkpt lat="25.445046" lon="100.525113">
<time>2016-10-07T05:18:35Z</time></trkpt>
<trkpt lat="25.444966" lon="100.525043">
<time>2016-10-07T05:18:36Z</time></trkpt>
<trkpt lat="25.444826" lon="100.524922">
<time>2016-10-07T05:18:37Z</time></trkpt>
<trkpt lat="25.444655" lon="100.524782">
<time>2016-10-07T05:18:38Z</time></trkpt>
<trkpt lat="25.444545" lon="100.524682">
<time>2016-10-07T05:18:39Z</time></trkpt>
<trkpt lat="25.444435" lon="100.524571">
<time>2016-10-07T05:18:40Z</time></trkpt>
<trkpt lat="25.444364" lon="100.524491">
<time>2016-10-07T05:18:41Z</time></trkpt>
<trkpt lat="25.444294" lon="100.524411">
<time>2016-10-07T05:18:42Z</time></trkpt>
<trkpt lat="25.444254" lon="100.524351">
<time>2016-10-07T05:18:43Z</time></trkpt>
<trkpt lat="25.444184" lon="100.52425">
<time>2016-10-07T05:18:44Z</time></trkpt>
<trkpt lat="25.444133" lon="100.52415">
<time>2016-10-07T05:18:45Z</time></trkpt>
<trkpt lat="25.444073" lon="100.52405">
<time>2016-10-07T05:18:46Z</time></trkpt>
<trkpt lat="25.444013" lon="100.52393">
<time>2016-10-07T05:18:47Z</time></trkpt>
<trkpt lat="25.443932" lon="100.523759">
<time>2016-10-07T05:18:48Z</time></trkpt>
<trkpt lat="25.443812" lon="100.523498">
<time>2016-10-07T05:18:49Z</time></trkpt>
<trkpt lat="25.443691" lon="100.523278">
<time>2016-10-07T05:18:50Z</time></trkpt>
<trkpt lat="25.443611" lon="100.523127">
<time>2016-10-07T05:18:51Z</time></trkpt>
<trkpt lat="25.44349" lon="100.522917">
<time>2016-10-07T05:18:52Z</time></trkpt>
<trkpt lat="25.443379" lon="100.522756">
<time>2016-10-07T05:18:53Z</time></trkpt>
<trkpt lat="25.443279" lon="100.522606">
<time>2016-10-07T05:18:54Z</time></trkpt>
<trkpt lat="25.443088" lon="100.522325">
<time>2016-10-07T05:18:55Z</time></trkpt>
<trkpt lat="25.442958" lon="100.522135">
<time>2016-10-07T05:18:56Z</time></trkpt>
<trkpt lat="25.442847" lon="100.521944">
<time>2016-10-07T05:18:57Z</time></trkpt>
<trkpt lat="25.442746" lon="100.521754">
<time>2016-10-07T05:18:58Z</time></trkpt>
<trkpt lat="25.442666" lon="100.521563">
<time>2016-10-07T05:18:59Z</time></trkpt>
<trkpt lat="25.442616" lon="100.521443">
<time>2016-10-07T05:19:00Z</time></trkpt>
<trkpt lat="25.442545" lon="100.521312">
<time>2016-10-07T05:19:01Z</time></trkpt>
<trkpt lat="25.442485" lon="100.521182">
<time>2016-10-07T05:19:02Z</time></trkpt>
<trkpt lat="25.442424" lon="100.521072">
<time>2016-10-07T05:19:03Z</time></trkpt>
<trkpt lat="25.442354" lon="100.520951">
<time>2016-10-07T05:19:04Z</time></trkpt>
<trkpt lat="25.442274" lon="100.520841">
<time>2016-10-07T05:19:05Z</time></trkpt>
<trkpt lat="25.442224" lon="100.520771">
<time>2016-10-07T05:19:06Z</time></trkpt>
<trkpt lat="25.442163" lon="100.520701">
<time>2016-10-07T05:19:07Z</time></trkpt>
<trkpt lat="25.442103" lon="100.52062">
<time>2016-10-07T05:19:08Z</time></trkpt>
<trkpt lat="25.441822" lon="100.52032">
<time>2016-10-07T05:19:09Z</time></trkpt>
<trkpt lat="25.441712" lon="100.520179">
<time>2016-10-07T05:19:10Z</time></trkpt>
<trkpt lat="25.441621" lon="100.520019">
<time>2016-10-07T05:19:11Z</time></trkpt>
<trkpt lat="25.441551" lon="100.519878">
<time>2016-10-07T05:19:12Z</time></trkpt>
<trkpt lat="25.441501" lon="100.519758">
<time>2016-10-07T05:19:13Z</time></trkpt>
<trkpt lat="25.44146" lon="100.519598">
<time>2016-10-07T05:19:14Z</time></trkpt>
<trkpt lat="25.44145" lon="100.519467">
<time>2016-10-07T05:19:15Z</time></trkpt>
<trkpt lat="25.441459" lon="100.519387">
<time>2016-10-07T05:19:16Z</time></trkpt>
<trkpt lat="25.441469" lon="100.519307">
<time>2016-10-07T05:19:17Z</time></trkpt>
<trkpt lat="25.441499" lon="100.519196">
<time>2016-10-07T05:19:18Z</time></trkpt>
<trkpt lat="25.441558" lon="100.519016">
<time>2016-10-07T05:19:19Z</time></trkpt>
<trkpt lat="25.441648" lon="100.518775">
<time>2016-10-07T05:19:20Z</time></trkpt>
<trkpt lat="25.441737" lon="100.518484">
<time>2016-10-07T05:19:21Z</time></trkpt>
<trkpt lat="25.441836" lon="100.518153">
<time>2016-10-07T05:19:22Z</time></trkpt>
<trkpt lat="25.441915" lon="100.517923">
<time>2016-10-07T05:19:23Z</time></trkpt>
<trkpt lat="25.442144" lon="100.517431">
<time>2016-10-07T05:19:24Z</time></trkpt>
<trkpt lat="25.442194" lon="100.517301">
<time>2016-10-07T05:19:25Z</time></trkpt>
<trkpt lat="25.442224" lon="100.517221">
<time>2016-10-07T05:19:26Z</time></trkpt>
<trkpt lat="25.442243" lon="100.517141">
<time>2016-10-07T05:19:27Z</time></trkpt>
<trkpt lat="25.442273" lon="100.51703">
<time>2016-10-07T05:19:28Z</time></trkpt>
<trkpt lat="25.442293" lon="100.51693">
<time>2016-10-07T05:19:29Z</time></trkpt>
<trkpt lat="25.442302" lon="100.51685">
<time>2016-10-07T05:19:30Z</time></trkpt>
<trkpt lat="25.442322" lon="100.516689">
<time>2016-10-07T05:19:31Z</time></trkpt>
<trkpt lat="25.442439" lon="100.515686">
<time>2016-10-07T05:19:32Z</time></trkpt>
<trkpt lat="25.442459" lon="100.515526">
<time>2016-10-07T05:19:33Z</time></trkpt>
<trkpt lat="25.442458" lon="100.515456">
<time>2016-10-07T05:19:34Z</time></trkpt>
<trkpt lat="25.442458" lon="100.515365">
<time>2016-10-07T05:19:35Z</time></trkpt>
<trkpt lat="25.442448" lon="100.515295">
<time>2016-10-07T05:19:36Z</time></trkpt>
<trkpt lat="25.442438" lon="100.515235">
<time>2016-10-07T05:19:37Z</time></trkpt>
<trkpt lat="25.442418" lon="100.515165">
<time>2016-10-07T05:19:38Z</time></trkpt>
<trkpt lat="25.442397" lon="100.515105">
<time>2016-10-07T05:19:39Z</time></trkpt>
<trkpt lat="25.442367" lon="100.515014">
<time>2016-10-07T05:19:40Z</time></trkpt>
<trkpt lat="25.442347" lon="100.514964">
<time>2016-10-07T05:19:41Z</time></trkpt>
<trkpt lat="25.442317" lon="100.514904">
<time>2016-10-07T05:19:42Z</time></trkpt>
<trkpt lat="25.442166" lon="100.514603">
<time>2016-10-07T05:19:43Z</time></trkpt>
<trkpt lat="25.442045" lon="100.514342">
<time>2016-10-07T05:19:44Z</time></trkpt>
<trkpt lat="25.442015" lon="100.514252">
<time>2016-10-07T05:19:45Z</time></trkpt>
<trkpt lat="25.441995" lon="100.514162">
<time>2016-10-07T05:19:46Z</time></trkpt>
<trkpt lat="25.441964" lon="100.514082">
<time>2016-10-07T05:19:47Z</time></trkpt>
<trkpt lat="25.441944" lon="100.514001">
<time>2016-10-07T05:19:48Z</time></trkpt>
<trkpt lat="25.441934" lon="100.513941">
<time>2016-10-07T05:19:49Z</time></trkpt>
<trkpt lat="25.441934" lon="100.513871">
<time>2016-10-07T05:19:50Z</time></trkpt>
<trkpt lat="25.441934" lon="100.513801">
<time>2016-10-07T05:19:51Z</time></trkpt>
<trkpt lat="25.441933" lon="100.513741">
<time>2016-10-07T05:19:52Z</time></trkpt>
<trkpt lat="25.441943" lon="100.513701">
<time>2016-10-07T05:19:53Z</time></trkpt>
<trkpt lat="25.441953" lon="100.51366">
<time>2016-10-07T05:19:54Z</time></trkpt>
<trkpt lat="25.441983" lon="100.5136">
<time>2016-10-07T05:19:55Z</time></trkpt>
<trkpt lat="25.442003" lon="100.51356">
<time>2016-10-07T05:19:56Z</time></trkpt>
<trkpt lat="25.442033" lon="100.51352">
<time>2016-10-07T05:19:57Z</time></trkpt>
<trkpt lat="25.442063" lon="100.51349">
<time>2016-10-07T05:19:58Z</time></trkpt>
<trkpt lat="25.442103" lon="100.51345">
<time>2016-10-07T05:19:59Z</time></trkpt>
<trkpt lat="25.442162" lon="100.51341">
<time>2016-10-07T05:20:00Z</time></trkpt>
<trkpt lat="25.442222" lon="100.51339">
<time>2016-10-07T05:20:01Z</time></trkpt>
<trkpt lat="25.442262" lon="100.51336">
<time>2016-10-07T05:20:02Z</time></trkpt>
<trkpt lat="25.442332" lon="100.513339">
<time>2016-10-07T05:20:03Z</time></trkpt>
<trkpt lat="25.442962" lon="100.513189">
<time>2016-10-07T05:20:04Z</time></trkpt>
<trkpt lat="25.442972" lon="100.513189">
<time>2016-10-07T05:20:05Z</time></trkpt>
<trkpt lat="25.443252" lon="100.513129">
<time>2016-10-07T05:20:06Z</time></trkpt>
<trkpt lat="25.443632" lon="100.513039">
<time>2016-10-07T05:20:07Z</time></trkpt>
<trkpt lat="25.443812" lon="100.512998">
<time>2016-10-07T05:20:08Z</time></trkpt>
<trkpt lat="25.444012" lon="100.512958">
<time>2016-10-07T05:20:09Z</time></trkpt>
<trkpt lat="25.444112" lon="100.512948">
<time>2016-10-07T05:20:10Z</time></trkpt>
<trkpt lat="25.444172" lon="100.512938">
<time>2016-10-07T05:20:11Z</time></trkpt>
<trkpt lat="25.444202" lon="100.512928">
<time>2016-10-07T05:20:12Z</time></trkpt>
<trkpt lat="25.444301" lon="100.512898">
<time>2016-10-07T05:20:13Z</time></trkpt>
<trkpt lat="25.444561" lon="100.512848">
<time>2016-10-07T05:20:14Z</time></trkpt>
<trkpt lat="25.444721" lon="100.512808">
<time>2016-10-07T05:20:15Z</time></trkpt>
<trkpt lat="25.444851" lon="100.512768">
<time>2016-10-07T05:20:16Z</time></trkpt>
<trkpt lat="25.444941" lon="100.512748">
<time>2016-10-07T05:20:17Z</time></trkpt>
<trkpt lat="25.445031" lon="100.512698">
<time>2016-10-07T05:20:18Z</time></trkpt>
<trkpt lat="25.445101" lon="100.512647">
<time>2016-10-07T05:20:19Z</time></trkpt>
<trkpt lat="25.445151" lon="100.512607">
<time>2016-10-07T05:20:20Z</time></trkpt>
<trkpt lat="25.445201" lon="100.512547">
<time>2016-10-07T05:20:21Z</time></trkpt>
<trkpt lat="25.445241" lon="100.512497">
<time>2016-10-07T05:20:22Z</time></trkpt>
<trkpt lat="25.44527" lon="100.512447">
<time>2016-10-07T05:20:23Z</time></trkpt>
<trkpt lat="25.4453" lon="100.512377">
<time>2016-10-07T05:20:24Z</time></trkpt>
<trkpt lat="25.44531" lon="100.512316">
<time>2016-10-07T05:20:25Z</time></trkpt>
<trkpt lat="25.44533" lon="100.512246">
<time>2016-10-07T05:20:26Z</time></trkpt>
<trkpt lat="25.44533" lon="100.512176">
<time>2016-10-07T05:20:27Z</time></trkpt>
<trkpt lat="25.445339" lon="100.511925">
<time>2016-10-07T05:20:28Z</time></trkpt>
<trkpt lat="25.445327" lon="100.511273">
<time>2016-10-07T05:20:29Z</time></trkpt>
<trkpt lat="25.445336" lon="100.511043">
<time>2016-10-07T05:20:30Z</time></trkpt>
<trkpt lat="25.445356" lon="100.510892">
<time>2016-10-07T05:20:31Z</time></trkpt>
<trkpt lat="25.445375" lon="100.510732">
<time>2016-10-07T05:20:32Z</time></trkpt>
<trkpt lat="25.445395" lon="100.510611">
<time>2016-10-07T05:20:33Z</time></trkpt>
<trkpt lat="25.445454" lon="100.510341">
<time>2016-10-07T05:20:34Z</time></trkpt>
<trkpt lat="25.445523" lon="100.509919">
<time>2016-10-07T05:20:35Z</time></trkpt>
<trkpt lat="25.445572" lon="100.509638">
<time>2016-10-07T05:20:36Z</time></trkpt>
<trkpt lat="25.445621" lon="100.509388">
<time>2016-10-07T05:20:37Z</time></trkpt>
<trkpt lat="25.445641" lon="100.509277">
<time>2016-10-07T05:20:38Z</time></trkpt>
<trkpt lat="25.445651" lon="100.509227">
<time>2016-10-07T05:20:39Z</time></trkpt>
<trkpt lat="25.445661" lon="100.509187">
<time>2016-10-07T05:20:40Z</time></trkpt>
<trkpt lat="25.445651" lon="100.509127">
<time>2016-10-07T05:20:41Z</time></trkpt>
<trkpt lat="25.44565" lon="100.509037">
<time>2016-10-07T05:20:42Z</time></trkpt>
<trkpt lat="25.44564" lon="100.508966">
<time>2016-10-07T05:20:43Z</time></trkpt>
<trkpt lat="25.44561" lon="100.508856">
<time>2016-10-07T05:20:44Z</time></trkpt>
<trkpt lat="25.44557" lon="100.508726">
<time>2016-10-07T05:20:45Z</time></trkpt>
<trkpt lat="25.445519" lon="100.508595">
<time>2016-10-07T05:20:46Z</time></trkpt>
<trkpt lat="25.445479" lon="100.508505">
<time>2016-10-07T05:20:47Z</time></trkpt>
<trkpt lat="25.445418" lon="100.508385">
<time>2016-10-07T05:20:48Z</time></trkpt>
<trkpt lat="25.445368" lon="100.508325">
<time>2016-10-07T05:20:49Z</time></trkpt>
<trkpt lat="25.445308" lon="100.508244">
<time>2016-10-07T05:20:50Z</time></trkpt>
<trkpt lat="25.445238" lon="100.508184">
<time>2016-10-07T05:20:51Z</time></trkpt>
<trkpt lat="25.445178" lon="100.508134">
<time>2016-10-07T05:20:52Z</time></trkpt>
<trkpt lat="25.445087" lon="100.508074">
<time>2016-10-07T05:20:53Z</time></trkpt>
<trkpt lat="25.444987" lon="100.508024">
<time>2016-10-07T05:20:54Z</time></trkpt>
<trkpt lat="25.444907" lon="100.507983">
<time>2016-10-07T05:20:55Z</time></trkpt>
<trkpt lat="25.444747" lon="100.507913">
<time>2016-10-07T05:20:56Z</time></trkpt>
<trkpt lat="25.444567" lon="100.507823">
<time>2016-10-07T05:20:57Z</time></trkpt>
<trkpt lat="25.444356" lon="100.507713">
<time>2016-10-07T05:20:58Z</time></trkpt>
<trkpt lat="25.444256" lon="100.507653">
<time>2016-10-07T05:20:59Z</time></trkpt>
<trkpt lat="25.444186" lon="100.507612">
<time>2016-10-07T05:21:00Z</time></trkpt>
<trkpt lat="25.444106" lon="100.507562">
<time>2016-10-07T05:21:01Z</time></trkpt>
<trkpt lat="25.444025" lon="100.507492">
<time>2016-10-07T05:21:02Z</time></trkpt>
<trkpt lat="25.443915" lon="100.507402">
<time>2016-10-07T05:21:03Z</time></trkpt>
<trkpt lat="25.443795" lon="100.507291">
<time>2016-10-07T05:21:04Z</time></trkpt>
<trkpt lat="25.443544" lon="100.507061">
<time>2016-10-07T05:21:05Z</time></trkpt>
<trkpt lat="25.443414" lon="100.50693">
<time>2016-10-07T05:21:06Z</time></trkpt>
<trkpt lat="25.443323" lon="100.50685">
<time>2016-10-07T05:21:07Z</time></trkpt>
<trkpt lat="25.443243" lon="100.50679">
<time>2016-10-07T05:21:08Z</time></trkpt>
<trkpt lat="25.443133" lon="100.50671">
<time>2016-10-07T05:21:09Z</time></trkpt>
<trkpt lat="25.443053" lon="100.50665">
<time>2016-10-07T05:21:10Z</time></trkpt>
<trkpt lat="25.442973" lon="100.506599">
<time>2016-10-07T05:21:11Z</time></trkpt>
<trkpt lat="25.442852" lon="100.506529">
<time>2016-10-07T05:21:12Z</time></trkpt>
<trkpt lat="25.442732" lon="100.506449">
<time>2016-10-07T05:21:13Z</time></trkpt>
<trkpt lat="25.442512" lon="100.506319">
<time>2016-10-07T05:21:14Z</time></trkpt>
<trkpt lat="25.442441" lon="100.506258">
<time>2016-10-07T05:21:15Z</time></trkpt>
<trkpt lat="25.442371" lon="100.506208">
<time>2016-10-07T05:21:16Z</time></trkpt>
<trkpt lat="25.442301" lon="100.506138">
<time>2016-10-07T05:21:17Z</time></trkpt>
<trkpt lat="25.442231" lon="100.506068">
<time>2016-10-07T05:21:18Z</time></trkpt>
<trkpt lat="25.44203" lon="100.505797">
<time>2016-10-07T05:21:19Z</time></trkpt>
<trkpt lat="25.44195" lon="100.505687">
<time>2016-10-07T05:21:20Z</time></trkpt>
<trkpt lat="25.441839" lon="100.505556">
<time>2016-10-07T05:21:21Z</time></trkpt>
<trkpt lat="25.441759" lon="100.505426">
<time>2016-10-07T05:21:22Z</time></trkpt>
<trkpt lat="25.441678" lon="100.505316">
<time>2016-10-07T05:21:23Z</time></trkpt>
<trkpt lat="25.441618" lon="100.505215">
<time>2016-10-07T05:21:24Z</time></trkpt>
<trkpt lat="25.441538" lon="100.505075">
<time>2016-10-07T05:21:25Z</time></trkpt>
<trkpt lat="25.441517" lon="100.505005">
<time>2016-10-07T05:21:26Z</time></trkpt>
<trkpt lat="25.441447" lon="100.504814">
<time>2016-10-07T05:21:27Z</time></trkpt>
<trkpt lat="25.441336" lon="100.504543">
<time>2016-10-07T05:21:28Z</time></trkpt>
<trkpt lat="25.441276" lon="100.504383">
<time>2016-10-07T05:21:29Z</time></trkpt>
<trkpt lat="25.441215" lon="100.504232">
<time>2016-10-07T05:21:30Z</time></trkpt>
<trkpt lat="25.441195" lon="100.504152">
<time>2016-10-07T05:21:31Z</time></trkpt>
<trkpt lat="25.441164" lon="100.504042">
<time>2016-10-07T05:21:32Z</time></trkpt>
<trkpt lat="25.441164" lon="100.503961">
<time>2016-10-07T05:21:33Z</time></trkpt>
<trkpt lat="25.441154" lon="100.503891">
<time>2016-10-07T05:21:34Z</time></trkpt>
<trkpt lat="25.441164" lon="100.503741">
<time>2016-10-07T05:21:35Z</time></trkpt>
<trkpt lat="25.441173" lon="100.50364">
<time>2016-10-07T05:21:36Z</time></trkpt>
<trkpt lat="25.441202" lon="100.50333">
<time>2016-10-07T05:21:37Z</time></trkpt>
<trkpt lat="25.441222" lon="100.503169">
<time>2016-10-07T05:21:38Z</time></trkpt>
<trkpt lat="25.441222" lon="100.503059">
<time>2016-10-07T05:21:39Z</time></trkpt>
<trkpt lat="25.441211" lon="100.502968">
<time>2016-10-07T05:21:40Z</time></trkpt>
<trkpt lat="25.441201" lon="100.502848">
<time>2016-10-07T05:21:41Z</time></trkpt>
<trkpt lat="25.441181" lon="100.502748">
<time>2016-10-07T05:21:42Z</time></trkpt>
<trkpt lat="25.44113" lon="100.502627">
<time>2016-10-07T05:21:43Z</time></trkpt>
<trkpt lat="25.44106" lon="100.502467">
<time>2016-10-07T05:21:44Z</time></trkpt>
<trkpt lat="25.440999" lon="100.502327">
<time>2016-10-07T05:21:45Z</time></trkpt>
<trkpt lat="25.440889" lon="100.502096">
<time>2016-10-07T05:21:46Z</time></trkpt>
<trkpt lat="25.440828" lon="100.501925">
<time>2016-10-07T05:21:47Z</time></trkpt>
<trkpt lat="25.440778" lon="100.501795">
<time>2016-10-07T05:21:48Z</time></trkpt>
<trkpt lat="25.440747" lon="100.501695">
<time>2016-10-07T05:21:49Z</time></trkpt>
<trkpt lat="25.440727" lon="100.501584">
<time>2016-10-07T05:21:50Z</time></trkpt>
<trkpt lat="25.440707" lon="100.501444">
<time>2016-10-07T05:21:51Z</time></trkpt>
<trkpt lat="25.440696" lon="100.501333">
<time>2016-10-07T05:21:52Z</time></trkpt>
<trkpt lat="25.440686" lon="100.501133">
<time>2016-10-07T05:21:53Z</time></trkpt>
<trkpt lat="25.440665" lon="100.500952">
<time>2016-10-07T05:21:54Z</time></trkpt>
<trkpt lat="25.440645" lon="100.500842">
<time>2016-10-07T05:21:55Z</time></trkpt>
<trkpt lat="25.440614" lon="100.500752">
<time>2016-10-07T05:21:56Z</time></trkpt>
<trkpt lat="25.440574" lon="100.500682">
<time>2016-10-07T05:21:57Z</time></trkpt>
<trkpt lat="25.440514" lon="100.500601">
<time>2016-10-07T05:21:58Z</time></trkpt>
<trkpt lat="25.440464" lon="100.500541">
<time>2016-10-07T05:21:59Z</time></trkpt>
<trkpt lat="25.440414" lon="100.500491">
<time>2016-10-07T05:22:00Z</time></trkpt>
<trkpt lat="25.440343" lon="100.500441">
<time>2016-10-07T05:22:01Z</time></trkpt>
<trkpt lat="25.440293" lon="100.500411">
<time>2016-10-07T05:22:02Z</time></trkpt>
<trkpt lat="25.440203" lon="100.500371">
<time>2016-10-07T05:22:03Z</time></trkpt>
<trkpt lat="25.440033" lon="100.50034">
<time>2016-10-07T05:22:04Z</time></trkpt>
<trkpt lat="25.439883" lon="100.50032">
<time>2016-10-07T05:22:05Z</time></trkpt>
<trkpt lat="25.439623" lon="100.5003">
<time>2016-10-07T05:22:06Z</time></trkpt>
<trkpt lat="25.439393" lon="100.50027">
<time>2016-10-07T05:22:07Z</time></trkpt>
<trkpt lat="25.439223" lon="100.50022">
<time>2016-10-07T05:22:08Z</time></trkpt>
<trkpt lat="25.439142" lon="100.5002">
<time>2016-10-07T05:22:09Z</time></trkpt>
<trkpt lat="25.439032" lon="100.50014">
<time>2016-10-07T05:22:10Z</time></trkpt>
<trkpt lat="25.438912" lon="100.50008">
<time>2016-10-07T05:22:11Z</time></trkpt>
<trkpt lat="25.438822" lon="100.50002">
<time>2016-10-07T05:22:12Z</time></trkpt>
<trkpt lat="25.438661" lon="100.499919">
<time>2016-10-07T05:22:13Z</time></trkpt>
<trkpt lat="25.438531" lon="100.499849">
<time>2016-10-07T05:22:14Z</time></trkpt>
<trkpt lat="25.438471" lon="100.499799">
<time>2016-10-07T05:22:15Z</time></trkpt>
<trkpt lat="25.438361" lon="100.499719">
<time>2016-10-07T05:22:16Z</time></trkpt>
<trkpt lat="25.438291" lon="100.499658">
<time>2016-10-07T05:22:17Z</time></trkpt>
<trkpt lat="25.43821" lon="100.499588">
<time>2016-10-07T05:22:18Z</time></trkpt>
<trkpt lat="25.43814" lon="100.499518">
<time>2016-10-07T05:22:19Z</time></trkpt>
<trkpt lat="25.438" lon="100.499388">
<time>2016-10-07T05:22:20Z</time></trkpt>
<trkpt lat="25.437829" lon="100.499217">
<time>2016-10-07T05:22:21Z</time></trkpt>
<trkpt lat="25.437649" lon="100.499037">
<time>2016-10-07T05:22:22Z</time></trkpt>
<trkpt lat="25.437548" lon="100.498926">
<time>2016-10-07T05:22:23Z</time></trkpt>
<trkpt lat="25.437468" lon="100.498856">
<time>2016-10-07T05:22:24Z</time></trkpt>
<trkpt lat="25.437378" lon="100.498776">
<time>2016-10-07T05:22:25Z</time></trkpt>
<trkpt lat="25.437257" lon="100.498665">
<time>2016-10-07T05:22:26Z</time></trkpt>
<trkpt lat="25.437167" lon="100.498585">
<time>2016-10-07T05:22:27Z</time></trkpt>
<trkpt lat="25.437067" lon="100.498505">
<time>2016-10-07T05:22:28Z</time></trkpt>
<trkpt lat="25.436947" lon="100.498415">
<time>2016-10-07T05:22:29Z</time></trkpt>
<trkpt lat="25.436826" lon="100.498334">
<time>2016-10-07T05:22:30Z</time></trkpt>
<trkpt lat="25.436766" lon="100.498304">
<time>2016-10-07T05:22:31Z</time></trkpt>
<trkpt lat="25.436696" lon="100.498254">
<time>2016-10-07T05:22:32Z</time></trkpt>
<trkpt lat="25.436646" lon="100.498214">
<time>2016-10-07T05:22:33Z</time></trkpt>
<trkpt lat="25.436566" lon="100.498174">
<time>2016-10-07T05:22:34Z</time></trkpt>
<trkpt lat="25.436516" lon="100.498144">
<time>2016-10-07T05:22:35Z</time></trkpt>
<trkpt lat="25.436476" lon="100.498124">
<time>2016-10-07T05:22:36Z</time></trkpt>
<trkpt lat="25.436395" lon="100.498094">
<time>2016-10-07T05:22:37Z</time></trkpt>
<trkpt lat="25.436335" lon="100.498064">
<time>2016-10-07T05:22:38Z</time></trkpt>
<trkpt lat="25.436195" lon="100.498013">
<time>2016-10-07T05:22:39Z</time></trkpt>
<trkpt lat="25.435935" lon="100.497943">
<time>2016-10-07T05:22:40Z</time></trkpt>
<trkpt lat="25.435555" lon="100.497853">
<time>2016-10-07T05:22:41Z</time></trkpt>
<trkpt lat="25.435394" lon="100.497823">
<time>2016-10-07T05:22:42Z</time></trkpt>
<trkpt lat="25.435254" lon="100.497803">
<time>2016-10-07T05:22:43Z</time></trkpt>
<trkpt lat="25.435174" lon="100.497793">
<time>2016-10-07T05:22:44Z</time></trkpt>
<trkpt lat="25.435004" lon="100.497783">
<time>2016-10-07T05:22:45Z</time></trkpt>
<trkpt lat="25.434804" lon="100.497763">
<time>2016-10-07T05:22:46Z</time></trkpt>
<trkpt lat="25.434734" lon="100.497753">
<time>2016-10-07T05:22:47Z</time></trkpt>
<trkpt lat="25.434654" lon="100.497733">
<time>2016-10-07T05:22:48Z</time></trkpt>
<trkpt lat="25.434554" lon="100.497723">
<time>2016-10-07T05:22:49Z</time></trkpt>
<trkpt lat="25.434494" lon="100.497703">
<time>2016-10-07T05:22:50Z</time></trkpt>
<trkpt lat="25.434404" lon="100.497673">
<time>2016-10-07T05:22:51Z</time></trkpt>
<trkpt lat="25.434324" lon="100.497632">
<time>2016-10-07T05:22:52Z</time></trkpt>
<trkpt lat="25.434213" lon="100.497582">
<time>2016-10-07T05:22:53Z</time></trkpt>
<trkpt lat="25.434053" lon="100.497492">
<time>2016-10-07T05:22:54Z</time></trkpt>
<trkpt lat="25.433712" lon="100.497291">
<time>2016-10-07T05:22:55Z</time></trkpt>
<trkpt lat="25.433602" lon="100.497221">
<time>2016-10-07T05:22:56Z</time></trkpt>
<trkpt lat="25.433552" lon="100.497181">
<time>2016-10-07T05:22:57Z</time></trkpt>
<trkpt lat="25.433492" lon="100.497151">
<time>2016-10-07T05:22:58Z</time></trkpt>
<trkpt lat="25.433452" lon="100.497111">
<time>2016-10-07T05:22:59Z</time></trkpt>
<trkpt lat="25.433422" lon="100.497081">
<time>2016-10-07T05:23:00Z</time></trkpt>
<trkpt lat="25.433402" lon="100.497061">
<time>2016-10-07T05:23:01Z</time></trkpt>
<trkpt lat="25.433361" lon="100.497011">
<time>2016-10-07T05:23:02Z</time></trkpt>
<trkpt lat="25.433321" lon="100.49697">
<time>2016-10-07T05:23:03Z</time></trkpt>
<trkpt lat="25.433291" lon="100.49691">
<time>2016-10-07T05:23:04Z</time></trkpt>
<trkpt lat="25.433231" lon="100.49683">
<time>2016-10-07T05:23:05Z</time></trkpt>
<trkpt lat="25.43312" lon="100.496639">
<time>2016-10-07T05:23:06Z</time></trkpt>
<trkpt lat="25.432919" lon="100.496288">
<time>2016-10-07T05:23:07Z</time></trkpt>
<trkpt lat="25.432829" lon="100.496088">
<time>2016-10-07T05:23:08Z</time></trkpt>
<trkpt lat="25.432768" lon="100.495947">
<time>2016-10-07T05:23:09Z</time></trkpt>
<trkpt lat="25.432728" lon="100.495847">
<time>2016-10-07T05:23:10Z</time></trkpt>
<trkpt lat="25.432677" lon="100.495717">
<time>2016-10-07T05:23:11Z</time></trkpt>
<trkpt lat="25.432657" lon="100.495606">
<time>2016-10-07T05:23:12Z</time></trkpt>
<trkpt lat="25.432637" lon="100.495446">
<time>2016-10-07T05:23:13Z</time></trkpt>
<trkpt lat="25.432606" lon="100.495225">
<time>2016-10-07T05:23:14Z</time></trkpt>
<trkpt lat="25.432585" lon="100.494864">
<time>2016-10-07T05:23:15Z</time></trkpt>
<trkpt lat="25.432554" lon="100.494493">
<time>2016-10-07T05:23:16Z</time></trkpt>
<trkpt lat="25.432543" lon="100.494362">
<time>2016-10-07T05:23:17Z</time></trkpt>
<trkpt lat="25.432523" lon="100.494272">
<time>2016-10-07T05:23:18Z</time></trkpt>
<trkpt lat="25.432503" lon="100.494122">
<time>2016-10-07T05:23:19Z</time></trkpt>
<trkpt lat="25.432462" lon="100.493891">
<time>2016-10-07T05:23:20Z</time></trkpt>
<trkpt lat="25.432391" lon="100.49349">
<time>2016-10-07T05:23:21Z</time></trkpt>
<trkpt lat="25.432248" lon="100.492758">
<time>2016-10-07T05:23:22Z</time></trkpt>
<trkpt lat="25.432238" lon="100.492677">
<time>2016-10-07T05:23:23Z</time></trkpt>
<trkpt lat="25.432198" lon="100.492487">
<time>2016-10-07T05:23:24Z</time></trkpt>
<trkpt lat="25.432177" lon="100.492316">
<time>2016-10-07T05:23:25Z</time></trkpt>
<trkpt lat="25.432157" lon="100.492146">
<time>2016-10-07T05:23:26Z</time></trkpt>
<trkpt lat="25.432136" lon="100.491925">
<time>2016-10-07T05:23:27Z</time></trkpt>
<trkpt lat="25.432125" lon="100.491664">
<time>2016-10-07T05:23:28Z</time></trkpt>
<trkpt lat="25.432114" lon="100.491153">
<time>2016-10-07T05:23:29Z</time></trkpt>
<trkpt lat="25.432092" lon="100.490731">
<time>2016-10-07T05:23:30Z</time></trkpt>
<trkpt lat="25.432092" lon="100.490621">
<time>2016-10-07T05:23:31Z</time></trkpt>
<trkpt lat="25.432102" lon="100.490521">
<time>2016-10-07T05:23:32Z</time></trkpt>
<trkpt lat="25.432121" lon="100.4904">
<time>2016-10-07T05:23:33Z</time></trkpt>
<trkpt lat="25.432131" lon="100.4903">
<time>2016-10-07T05:23:34Z</time></trkpt>
<trkpt lat="25.432161" lon="100.49022">
<time>2016-10-07T05:23:35Z</time></trkpt>
<trkpt lat="25.432211" lon="100.49011">
<time>2016-10-07T05:23:36Z</time></trkpt>
<trkpt lat="25.43226" lon="100.489999">
<time>2016-10-07T05:23:37Z</time></trkpt>
<trkpt lat="25.43233" lon="100.489909">
<time>2016-10-07T05:23:38Z</time></trkpt>
<trkpt lat="25.43238" lon="100.489829">
<time>2016-10-07T05:23:39Z</time></trkpt>
<trkpt lat="25.432499" lon="100.489678">
<time>2016-10-07T05:23:40Z</time></trkpt>
<trkpt lat="25.432728" lon="100.489367">
<time>2016-10-07T05:23:41Z</time></trkpt>
<trkpt lat="25.432948" lon="100.489036">
<time>2016-10-07T05:23:42Z</time></trkpt>
<trkpt lat="25.433147" lon="100.488755">
<time>2016-10-07T05:23:43Z</time></trkpt>
<trkpt lat="25.433216" lon="100.488655">
<time>2016-10-07T05:23:44Z</time></trkpt>
<trkpt lat="25.433246" lon="100.488585">
<time>2016-10-07T05:23:45Z</time></trkpt>
<trkpt lat="25.433266" lon="100.488525">
<time>2016-10-07T05:23:46Z</time></trkpt>
<trkpt lat="25.433276" lon="100.488455">
<time>2016-10-07T05:23:47Z</time></trkpt>
<trkpt lat="25.433286" lon="100.488394">
<time>2016-10-07T05:23:48Z</time></trkpt>
<trkpt lat="25.433285" lon="100.488234">
<time>2016-10-07T05:23:49Z</time></trkpt>
<trkpt lat="25.433285" lon="100.488134">
<time>2016-10-07T05:23:50Z</time></trkpt>
<trkpt lat="25.433213" lon="100.487371">
<time>2016-10-07T05:23:51Z</time></trkpt>
<trkpt lat="25.433161" lon="100.486749">
<time>2016-10-07T05:23:52Z</time></trkpt>
<trkpt lat="25.433151" lon="100.486679">
<time>2016-10-07T05:23:53Z</time></trkpt>
<trkpt lat="25.43314" lon="100.486629">
<time>2016-10-07T05:23:54Z</time></trkpt>
<trkpt lat="25.43313" lon="100.486569">
<time>2016-10-07T05:23:55Z</time></trkpt>
<trkpt lat="25.43312" lon="100.486519">
<time>2016-10-07T05:23:56Z</time></trkpt>
<trkpt lat="25.4331" lon="100.486449">
<time>2016-10-07T05:23:57Z</time></trkpt>
<trkpt lat="25.43307" lon="100.486358">
<time>2016-10-07T05:23:58Z</time></trkpt>
<trkpt lat="25.433039" lon="100.486278">
<time>2016-10-07T05:23:59Z</time></trkpt>
<trkpt lat="25.433009" lon="100.486218">
<time>2016-10-07T05:24:00Z</time></trkpt>
<trkpt lat="25.432959" lon="100.486138">
<time>2016-10-07T05:24:01Z</time></trkpt>
<trkpt lat="25.432919" lon="100.486087">
<time>2016-10-07T05:24:02Z</time></trkpt>
<trkpt lat="25.432879" lon="100.486037">
<time>2016-10-07T05:24:03Z</time></trkpt>
<trkpt lat="25.432849" lon="100.485997">
<time>2016-10-07T05:24:04Z</time></trkpt>
<trkpt lat="25.432798" lon="100.485967">
<time>2016-10-07T05:24:05Z</time></trkpt>
<trkpt lat="25.432758" lon="100.485937">
<time>2016-10-07T05:24:06Z</time></trkpt>
<trkpt lat="25.432698" lon="100.485907">
<time>2016-10-07T05:24:07Z</time></trkpt>
<trkpt lat="25.432648" lon="100.485887">
<time>2016-10-07T05:24:08Z</time></trkpt>
<trkpt lat="25.432578" lon="100.485867">
<time>2016-10-07T05:24:09Z</time></trkpt>
<trkpt lat="25.432498" lon="100.485857">
<time>2016-10-07T05:24:10Z</time></trkpt>
<trkpt lat="25.432298" lon="100.485827">
<time>2016-10-07T05:24:11Z</time></trkpt>
<trkpt lat="25.432028" lon="100.485797">
<time>2016-10-07T05:24:12Z</time></trkpt>
<trkpt lat="25.431618" lon="100.485757">
<time>2016-10-07T05:24:13Z</time></trkpt>
<trkpt lat="25.431487" lon="100.485736">
<time>2016-10-07T05:24:14Z</time></trkpt>
<trkpt lat="25.431417" lon="100.485716">
<time>2016-10-07T05:24:15Z</time></trkpt>
<trkpt lat="25.431347" lon="100.485706">
<time>2016-10-07T05:24:16Z</time></trkpt>
<trkpt lat="25.431257" lon="100.485676">
<time>2016-10-07T05:24:17Z</time></trkpt>
<trkpt lat="25.431137" lon="100.485636">
<time>2016-10-07T05:24:18Z</time></trkpt>
<trkpt lat="25.431087" lon="100.485606">
<time>2016-10-07T05:24:19Z</time></trkpt>
<trkpt lat="25.431017" lon="100.485566">
<time>2016-10-07T05:24:20Z</time></trkpt>
<trkpt lat="25.430837" lon="100.485466">
<time>2016-10-07T05:24:21Z</time></trkpt>
<trkpt lat="25.430716" lon="100.485395">
<time>2016-10-07T05:24:22Z</time></trkpt>
<trkpt lat="25.430656" lon="100.485365">
<time>2016-10-07T05:24:23Z</time></trkpt>
<trkpt lat="25.430576" lon="100.485325">
<time>2016-10-07T05:24:24Z</time></trkpt>
<trkpt lat="25.430516" lon="100.485305">
<time>2016-10-07T05:24:25Z</time></trkpt>
<trkpt lat="25.430466" lon="100.485285">
<time>2016-10-07T05:24:26Z</time></trkpt>
<trkpt lat="25.430396" lon="100.485265">
<time>2016-10-07T05:24:27Z</time></trkpt>
<trkpt lat="25.430306" lon="100.485235">
<time>2016-10-07T05:24:28Z</time></trkpt>
<trkpt lat="25.430256" lon="100.485225">
<time>2016-10-07T05:24:29Z</time></trkpt>
<trkpt lat="25.430206" lon="100.485225">
<time>2016-10-07T05:24:30Z</time></trkpt>
<trkpt lat="25.430076" lon="100.485205">
<time>2016-10-07T05:24:31Z</time></trkpt>
<trkpt lat="25.429986" lon="100.485205">
<time>2016-10-07T05:24:32Z</time></trkpt>
<trkpt lat="25.429936" lon="100.485205">
<time>2016-10-07T05:24:33Z</time></trkpt>
<trkpt lat="25.429846" lon="100.485205">
<time>2016-10-07T05:24:34Z</time></trkpt>
<trkpt lat="25.429776" lon="100.485215">
<time>2016-10-07T05:24:35Z</time></trkpt>
<trkpt lat="25.429706" lon="100.485215">
<time>2016-10-07T05:24:36Z</time></trkpt>
<trkpt lat="25.429596" lon="100.485235">
<time>2016-10-07T05:24:37Z</time></trkpt>
<trkpt lat="25.429526" lon="100.485255">
<time>2016-10-07T05:24:38Z</time></trkpt>
<trkpt lat="25.429386" lon="100.485285">
<time>2016-10-07T05:24:39Z</time></trkpt>
<trkpt lat="25.429286" lon="100.485325">
<time>2016-10-07T05:24:40Z</time></trkpt>
<trkpt lat="25.428946" lon="100.485476">
<time>2016-10-07T05:24:41Z</time></trkpt>
<trkpt lat="25.428307" lon="100.485787">
<time>2016-10-07T05:24:42Z</time></trkpt>
<trkpt lat="25.428097" lon="100.485887">
<time>2016-10-07T05:24:43Z</time></trkpt>
<trkpt lat="25.428017" lon="100.485917">
<time>2016-10-07T05:24:44Z</time></trkpt>
<trkpt lat="25.427927" lon="100.485947">
<time>2016-10-07T05:24:45Z</time></trkpt>
<trkpt lat="25.427837" lon="100.485967">
<time>2016-10-07T05:24:46Z</time></trkpt>
<trkpt lat="25.427767" lon="100.485977">
<time>2016-10-07T05:24:47Z</time></trkpt>
<trkpt lat="25.427657" lon="100.485987">
<time>2016-10-07T05:24:48Z</time></trkpt>
<trkpt lat="25.427577" lon="100.485997">
<time>2016-10-07T05:24:49Z</time></trkpt>
<trkpt lat="25.427517" lon="100.485997">
<time>2016-10-07T05:24:50Z</time></trkpt>
<trkpt lat="25.427467" lon="100.485997">
<time>2016-10-07T05:24:51Z</time></trkpt>
<trkpt lat="25.427437" lon="100.485997">
<time>2016-10-07T05:24:52Z</time></trkpt>
<trkpt lat="25.427357" lon="100.485977">
<time>2016-10-07T05:24:53Z</time></trkpt>
<trkpt lat="25.427287" lon="100.485957">
<time>2016-10-07T05:24:54Z</time></trkpt>
<trkpt lat="25.427187" lon="100.485927">
<time>2016-10-07T05:24:55Z</time></trkpt>
<trkpt lat="25.427127" lon="100.485897">
<time>2016-10-07T05:24:56Z</time></trkpt>
<trkpt lat="25.427057" lon="100.485847">
<time>2016-10-07T05:24:57Z</time></trkpt>
<trkpt lat="25.426997" lon="100.485807">
<time>2016-10-07T05:24:58Z</time></trkpt>
<trkpt lat="25.426936" lon="100.485747">
<time>2016-10-07T05:24:59Z</time></trkpt>
<trkpt lat="25.426876" lon="100.485696">
<time>2016-10-07T05:25:00Z</time></trkpt>
<trkpt lat="25.426826" lon="100.485626">
<time>2016-10-07T05:25:01Z</time></trkpt>
<trkpt lat="25.426756" lon="100.485526">
<time>2016-10-07T05:25:02Z</time></trkpt>
<trkpt lat="25.426665" lon="100.485406">
<time>2016-10-07T05:25:03Z</time></trkpt>
<trkpt lat="25.426615" lon="100.485345">
<time>2016-10-07T05:25:04Z</time></trkpt>
<trkpt lat="25.426565" lon="100.485285">
<time>2016-10-07T05:25:05Z</time></trkpt>
<trkpt lat="25.426525" lon="100.485245">
<time>2016-10-07T05:25:06Z</time></trkpt>
<trkpt lat="25.426485" lon="100.485225">
<time>2016-10-07T05:25:07Z</time></trkpt>
<trkpt lat="25.426485" lon="100.485215">
<time>2016-10-07T05:25:08Z</time></trkpt>
<trkpt lat="25.426435" lon="100.485185">
<time>2016-10-07T05:25:09Z</time></trkpt>
<trkpt lat="25.426385" lon="100.485155">
<time>2016-10-07T05:25:10Z</time></trkpt>
<trkpt lat="25.426335" lon="100.485135">
<time>2016-10-07T05:25:11Z</time></trkpt>
<trkpt lat="25.426274" lon="100.485115">
<time>2016-10-07T05:25:12Z</time></trkpt>
<trkpt lat="25.426214" lon="100.485095">
<time>2016-10-07T05:25:13Z</time></trkpt>
<trkpt lat="25.426154" lon="100.485085">
<time>2016-10-07T05:25:14Z</time></trkpt>
<trkpt lat="25.425974" lon="100.485045">
<time>2016-10-07T05:25:15Z</time></trkpt>
<trkpt lat="25.425714" lon="100.485004">
<time>2016-10-07T05:25:16Z</time></trkpt>
<trkpt lat="25.425584" lon="100.484974">
<time>2016-10-07T05:25:17Z</time></trkpt>
<trkpt lat="25.425514" lon="100.484954">
<time>2016-10-07T05:25:18Z</time></trkpt>
<trkpt lat="25.425454" lon="100.484934">
<time>2016-10-07T05:25:19Z</time></trkpt>
<trkpt lat="25.425384" lon="100.484914">
<time>2016-10-07T05:25:20Z</time></trkpt>
<trkpt lat="25.425324" lon="100.484894">
<time>2016-10-07T05:25:21Z</time></trkpt>
<trkpt lat="25.425274" lon="100.484864">
<time>2016-10-07T05:25:22Z</time></trkpt>
<trkpt lat="25.425193" lon="100.484834">
<time>2016-10-07T05:25:23Z</time></trkpt>
<trkpt lat="25.424983" lon="100.484734">
<time>2016-10-07T05:25:24Z</time></trkpt>
<trkpt lat="25.424923" lon="100.484704">
<time>2016-10-07T05:25:25Z</time></trkpt>
<trkpt lat="25.424873" lon="100.484684">
<time>2016-10-07T05:25:26Z</time></trkpt>
<trkpt lat="25.424803" lon="100.484663">
<time>2016-10-07T05:25:27Z</time></trkpt>
<trkpt lat="25.424733" lon="100.484643">
<time>2016-10-07T05:25:28Z</time></trkpt>
<trkpt lat="25.424683" lon="100.484623">
<time>2016-10-07T05:25:29Z</time></trkpt>
<trkpt lat="25.424633" lon="100.484613">
<time>2016-10-07T05:25:30Z</time></trkpt>
<trkpt lat="25.424593" lon="100.484613">
<time>2016-10-07T05:25:31Z</time></trkpt>
<trkpt lat="25.424453" lon="100.484593">
<time>2016-10-07T05:25:32Z</time></trkpt>
<trkpt lat="25.424413" lon="100.484583">
<time>2016-10-07T05:25:33Z</time></trkpt>
<trkpt lat="25.424362" lon="100.484573">
<time>2016-10-07T05:25:34Z</time></trkpt>
<trkpt lat="25.424302" lon="100.484563">
<time>2016-10-07T05:25:35Z</time></trkpt>
<trkpt lat="25.424252" lon="100.484543">
<time>2016-10-07T05:25:36Z</time></trkpt>
<trkpt lat="25.424182" lon="100.484523">
<time>2016-10-07T05:25:37Z</time></trkpt>
<trkpt lat="25.424132" lon="100.484493">
<time>2016-10-07T05:25:38Z</time></trkpt>
<trkpt lat="25.424092" lon="100.484473">
<time>2016-10-07T05:25:39Z</time></trkpt>
<trkpt lat="25.424062" lon="100.484453">
<time>2016-10-07T05:25:40Z</time></trkpt>
<trkpt lat="25.423992" lon="100.484403">
<time>2016-10-07T05:25:41Z</time></trkpt>
<trkpt lat="25.423922" lon="100.484363">
<time>2016-10-07T05:25:42Z</time></trkpt>
<trkpt lat="25.423882" lon="100.484332">
<time>2016-10-07T05:25:43Z</time></trkpt>
<trkpt lat="25.423832" lon="100.484292">
<time>2016-10-07T05:25:44Z</time></trkpt>
<trkpt lat="25.423791" lon="100.484262">
<time>2016-10-07T05:25:45Z</time></trkpt>
<trkpt lat="25.423751" lon="100.484232">
<time>2016-10-07T05:25:46Z</time></trkpt>
<trkpt lat="25.423721" lon="100.484222">
<time>2016-10-07T05:25:47Z</time></trkpt>
<trkpt lat="25.423681" lon="100.484202">
<time>2016-10-07T05:25:48Z</time></trkpt>
<trkpt lat="25.423631" lon="100.484172">
<time>2016-10-07T05:25:49Z</time></trkpt>
<trkpt lat="25.423571" lon="100.484162">
<time>2016-10-07T05:25:50Z</time></trkpt>
<trkpt lat="25.423541" lon="100.484152">
<time>2016-10-07T05:25:51Z</time></trkpt>
<trkpt lat="25.423501" lon="100.484142">
<time>2016-10-07T05:25:52Z</time></trkpt>
<trkpt lat="25.423451" lon="100.484142">
<time>2016-10-07T05:25:53Z</time></trkpt>
<trkpt lat="25.423411" lon="100.484152">
<time>2016-10-07T05:25:54Z</time></trkpt>
<trkpt lat="25.423341" lon="100.484162">
<time>2016-10-07T05:25:55Z</time></trkpt>
<trkpt lat="25.423271" lon="100.484182">
<time>2016-10-07T05:25:56Z</time></trkpt>
<trkpt lat="25.423181" lon="100.484222">
<time>2016-10-07T05:25:57Z</time></trkpt>
<trkpt lat="25.423101" lon="100.484282">
<time>2016-10-07T05:25:58Z</time></trkpt>
<trkpt lat="25.422882" lon="100.484453">
<time>2016-10-07T05:25:59Z</time></trkpt>
<trkpt lat="25.422253" lon="100.485015">
<time>2016-10-07T05:26:00Z</time></trkpt>
<trkpt lat="25.422203" lon="100.485045">
<time>2016-10-07T05:26:01Z</time></trkpt>
<trkpt lat="25.421974" lon="100.485205">
<time>2016-10-07T05:26:02Z</time></trkpt>
<trkpt lat="25.421834" lon="100.485305">
<time>2016-10-07T05:26:03Z</time></trkpt>
<trkpt lat="25.421634" lon="100.485426">
<time>2016-10-07T05:26:04Z</time></trkpt>
<trkpt lat="25.421525" lon="100.485486">
<time>2016-10-07T05:26:05Z</time></trkpt>
<trkpt lat="25.421405" lon="100.485566">
<time>2016-10-07T05:26:06Z</time></trkpt>
<trkpt lat="25.421285" lon="100.485656">
<time>2016-10-07T05:26:07Z</time></trkpt>
<trkpt lat="25.421195" lon="100.485727">
<time>2016-10-07T05:26:08Z</time></trkpt>
<trkpt lat="25.420886" lon="100.485947">
<time>2016-10-07T05:26:09Z</time></trkpt>
<trkpt lat="25.420527" lon="100.486248">
<time>2016-10-07T05:26:10Z</time></trkpt>
<trkpt lat="25.420447" lon="100.486308">
<time>2016-10-07T05:26:11Z</time></trkpt>
<trkpt lat="25.420317" lon="100.486399">
<time>2016-10-07T05:26:12Z</time></trkpt>
<trkpt lat="25.420237" lon="100.486449">
<time>2016-10-07T05:26:13Z</time></trkpt>
<trkpt lat="25.420167" lon="100.486479">
<time>2016-10-07T05:26:14Z</time></trkpt>
<trkpt lat="25.420057" lon="100.486509">
<time>2016-10-07T05:26:15Z</time></trkpt>
<trkpt lat="25.419927" lon="100.486549">
<time>2016-10-07T05:26:16Z</time></trkpt>
<trkpt lat="25.419797" lon="100.486569">
<time>2016-10-07T05:26:17Z</time></trkpt>
<trkpt lat="25.419397" lon="100.486609">
<time>2016-10-07T05:26:18Z</time></trkpt>
<trkpt lat="25.419097" lon="100.48665">
<time>2016-10-07T05:26:19Z</time></trkpt>
<trkpt lat="25.419047" lon="100.48665">
<time>2016-10-07T05:26:20Z</time></trkpt>
<trkpt lat="25.418987" lon="100.48665">
<time>2016-10-07T05:26:21Z</time></trkpt>
<trkpt lat="25.418937" lon="100.48665">
<time>2016-10-07T05:26:22Z</time></trkpt>
<trkpt lat="25.418897" lon="100.486639">
<time>2016-10-07T05:26:23Z</time></trkpt>
<trkpt lat="25.418847" lon="100.486629">
<time>2016-10-07T05:26:24Z</time></trkpt>
<trkpt lat="25.418797" lon="100.486619">
<time>2016-10-07T05:26:25Z</time></trkpt>
<trkpt lat="25.418717" lon="100.486589">
<time>2016-10-07T05:26:26Z</time></trkpt>
<trkpt lat="25.418487" lon="100.486489">
<time>2016-10-07T05:26:27Z</time></trkpt>
<trkpt lat="25.418246" lon="100.486369">
<time>2016-10-07T05:26:28Z</time></trkpt>
<trkpt lat="25.418066" lon="100.486298">
<time>2016-10-07T05:26:29Z</time></trkpt>
<trkpt lat="25.417686" lon="100.486158">
<time>2016-10-07T05:26:30Z</time></trkpt>
<trkpt lat="25.417115" lon="100.485957">
<time>2016-10-07T05:26:31Z</time></trkpt>
<trkpt lat="25.416975" lon="100.485897">
<time>2016-10-07T05:26:32Z</time></trkpt>
<trkpt lat="25.416785" lon="100.485837">
<time>2016-10-07T05:26:33Z</time></trkpt>
<trkpt lat="25.416684" lon="100.485807">
<time>2016-10-07T05:26:34Z</time></trkpt>
<trkpt lat="25.416574" lon="100.485777">
<time>2016-10-07T05:26:35Z</time></trkpt>
<trkpt lat="25.416474" lon="100.485757">
<time>2016-10-07T05:26:36Z</time></trkpt>
<trkpt lat="25.416364" lon="100.485727">
<time>2016-10-07T05:26:37Z</time></trkpt>
<trkpt lat="25.416194" lon="100.485677">
<time>2016-10-07T05:26:38Z</time></trkpt>
<trkpt lat="25.416094" lon="100.485657">
<time>2016-10-07T05:26:39Z</time></trkpt>
<trkpt lat="25.416024" lon="100.485627">
<time>2016-10-07T05:26:40Z</time></trkpt>
<trkpt lat="25.415974" lon="100.485617">
<time>2016-10-07T05:26:41Z</time></trkpt>
<trkpt lat="25.415934" lon="100.485596">
<time>2016-10-07T05:26:42Z</time></trkpt>
<trkpt lat="25.415904" lon="100.485586">
<time>2016-10-07T05:26:43Z</time></trkpt>
<trkpt lat="25.415864" lon="100.485566">
<time>2016-10-07T05:26:44Z</time></trkpt>
<trkpt lat="25.415843" lon="100.485546">
<time>2016-10-07T05:26:45Z</time></trkpt>
<trkpt lat="25.415813" lon="100.485526">
<time>2016-10-07T05:26:46Z</time></trkpt>
<trkpt lat="25.415783" lon="100.485496">
<time>2016-10-07T05:26:47Z</time></trkpt>
<trkpt lat="25.415763" lon="100.485476">
<time>2016-10-07T05:26:48Z</time></trkpt>
<trkpt lat="25.415743" lon="100.485456">
<time>2016-10-07T05:26:49Z</time></trkpt>
<trkpt lat="25.415723" lon="100.485426">
<time>2016-10-07T05:26:50Z</time></trkpt>
<trkpt lat="25.415703" lon="100.485386">
<time>2016-10-07T05:26:51Z</time></trkpt>
<trkpt lat="25.415683" lon="100.485336">
<time>2016-10-07T05:26:52Z</time></trkpt>
<trkpt lat="25.415663" lon="100.485286">
<time>2016-10-07T05:26:53Z</time></trkpt>
<trkpt lat="25.415653" lon="100.485225">
<time>2016-10-07T05:26:54Z</time></trkpt>
<trkpt lat="25.415642" lon="100.485165">
<time>2016-10-07T05:26:55Z</time></trkpt>
<trkpt lat="25.415632" lon="100.485095">
<time>2016-10-07T05:26:56Z</time></trkpt>
<trkpt lat="25.415622" lon="100.485005">
<time>2016-10-07T05:26:57Z</time></trkpt>
<trkpt lat="25.415622" lon="100.484894">
<time>2016-10-07T05:26:58Z</time></trkpt>
<trkpt lat="25.415621" lon="100.484784">
<time>2016-10-07T05:26:59Z</time></trkpt>
<trkpt lat="25.415641" lon="100.484553">
<time>2016-10-07T05:27:00Z</time></trkpt>
<trkpt lat="25.41567" lon="100.484242">
<time>2016-10-07T05:27:01Z</time></trkpt>
<trkpt lat="25.415679" lon="100.484072">
<time>2016-10-07T05:27:02Z</time></trkpt>
<trkpt lat="25.415689" lon="100.483921">
<time>2016-10-07T05:27:03Z</time></trkpt>
<trkpt lat="25.415698" lon="100.483771">
<time>2016-10-07T05:27:04Z</time></trkpt>
<trkpt lat="25.415698" lon="100.483621">
<time>2016-10-07T05:27:05Z</time></trkpt>
<trkpt lat="25.415698" lon="100.48354">
<time>2016-10-07T05:27:06Z</time></trkpt>
<trkpt lat="25.415697" lon="100.48339">
<time>2016-10-07T05:27:07Z</time></trkpt>
<trkpt lat="25.415706" lon="100.483079">
<time>2016-10-07T05:27:08Z</time></trkpt>
<trkpt lat="25.415715" lon="100.482598">
<time>2016-10-07T05:27:09Z</time></trkpt>
<trkpt lat="25.415734" lon="100.482176">
<time>2016-10-07T05:27:10Z</time></trkpt>
<trkpt lat="25.415752" lon="100.481735">
<time>2016-10-07T05:27:11Z</time></trkpt>
<trkpt lat="25.415771" lon="100.481424">
<time>2016-10-07T05:27:12Z</time></trkpt>
<trkpt lat="25.4158" lon="100.481053">
<time>2016-10-07T05:27:13Z</time></trkpt>
<trkpt lat="25.415819" lon="100.480702">
<time>2016-10-07T05:27:14Z</time></trkpt>
<trkpt lat="25.415829" lon="100.480481">
<time>2016-10-07T05:27:15Z</time></trkpt>
<trkpt lat="25.415848" lon="100.480201">
<time>2016-10-07T05:27:16Z</time></trkpt>
<trkpt lat="25.415857" lon="100.48002">
<time>2016-10-07T05:27:17Z</time></trkpt>
<trkpt lat="25.415877" lon="100.47985">
<time>2016-10-07T05:27:18Z</time></trkpt>
<trkpt lat="25.415897" lon="100.479729">
<time>2016-10-07T05:27:19Z</time></trkpt>
<trkpt lat="25.415926" lon="100.479599">
<time>2016-10-07T05:27:20Z</time></trkpt>
<trkpt lat="25.415985" lon="100.479188">
<time>2016-10-07T05:27:21Z</time></trkpt>
<trkpt lat="25.416064" lon="100.478686">
<time>2016-10-07T05:27:22Z</time></trkpt>
<trkpt lat="25.416112" lon="100.478014">
<time>2016-10-07T05:27:23Z</time></trkpt>
<trkpt lat="25.41615" lon="100.477513">
<time>2016-10-07T05:27:24Z</time></trkpt>
<trkpt lat="25.41616" lon="100.477302">
<time>2016-10-07T05:27:25Z</time></trkpt>
<trkpt lat="25.416159" lon="100.477072">
<time>2016-10-07T05:27:26Z</time></trkpt>
<trkpt lat="25.416158" lon="100.47657">
<time>2016-10-07T05:27:27Z</time></trkpt>
<trkpt lat="25.416157" lon="100.4764">
<time>2016-10-07T05:27:28Z</time></trkpt>
<trkpt lat="25.416157" lon="100.476219">
<time>2016-10-07T05:27:29Z</time></trkpt>
<trkpt lat="25.416166" lon="100.476119">
<time>2016-10-07T05:27:30Z</time></trkpt>
<trkpt lat="25.416176" lon="100.476019">
<time>2016-10-07T05:27:31Z</time></trkpt>
<trkpt lat="25.416196" lon="100.475948">
<time>2016-10-07T05:27:32Z</time></trkpt>
<trkpt lat="25.416206" lon="100.475898">
<time>2016-10-07T05:27:33Z</time></trkpt>
<trkpt lat="25.416226" lon="100.475848">
<time>2016-10-07T05:27:34Z</time></trkpt>
<trkpt lat="25.416246" lon="100.475808">
<time>2016-10-07T05:27:35Z</time></trkpt>
<trkpt lat="25.416276" lon="100.475778">
<time>2016-10-07T05:27:36Z</time></trkpt>
<trkpt lat="25.416295" lon="100.475748">
<time>2016-10-07T05:27:37Z</time></trkpt>
<trkpt lat="25.416325" lon="100.475718">
<time>2016-10-07T05:27:38Z</time></trkpt>
<trkpt lat="25.416355" lon="100.475688">
<time>2016-10-07T05:27:39Z</time></trkpt>
<trkpt lat="25.416415" lon="100.475647">
<time>2016-10-07T05:27:40Z</time></trkpt>
<trkpt lat="25.416475" lon="100.475627">
<time>2016-10-07T05:27:41Z</time></trkpt>
<trkpt lat="25.416515" lon="100.475617">
<time>2016-10-07T05:27:42Z</time></trkpt>
<trkpt lat="25.416575" lon="100.475607">
<time>2016-10-07T05:27:43Z</time></trkpt>
<trkpt lat="25.416605" lon="100.475607">
<time>2016-10-07T05:27:44Z</time></trkpt>
<trkpt lat="25.416645" lon="100.475607">
<time>2016-10-07T05:27:45Z</time></trkpt>
<trkpt lat="25.416675" lon="100.475607">
<time>2016-10-07T05:27:46Z</time></trkpt>
<trkpt lat="25.416685" lon="100.475607">
<time>2016-10-07T05:27:47Z</time></trkpt>
<trkpt lat="25.416735" lon="100.475617">
<time>2016-10-07T05:27:48Z</time></trkpt>
<trkpt lat="25.416805" lon="100.475637">
<time>2016-10-07T05:27:49Z</time></trkpt>
<trkpt lat="25.416885" lon="100.475668">
<time>2016-10-07T05:27:50Z</time></trkpt>
<trkpt lat="25.416985" lon="100.475698">
<time>2016-10-07T05:27:51Z</time></trkpt>
<trkpt lat="25.417136" lon="100.475768">
<time>2016-10-07T05:27:52Z</time></trkpt>
<trkpt lat="25.417266" lon="100.475818">
<time>2016-10-07T05:27:53Z</time></trkpt>
<trkpt lat="25.417386" lon="100.475858">
<time>2016-10-07T05:27:54Z</time></trkpt>
<trkpt lat="25.417476" lon="100.475888">
<time>2016-10-07T05:27:55Z</time></trkpt>
<trkpt lat="25.417546" lon="100.475908">
<time>2016-10-07T05:27:56Z</time></trkpt>
<trkpt lat="25.417646" lon="100.475938">
<time>2016-10-07T05:27:57Z</time></trkpt>
<trkpt lat="25.417716" lon="100.475948">
<time>2016-10-07T05:27:58Z</time></trkpt>
<trkpt lat="25.417796" lon="100.475938">
<time>2016-10-07T05:27:59Z</time></trkpt>
<trkpt lat="25.417856" lon="100.475918">
<time>2016-10-07T05:28:00Z</time></trkpt>
<trkpt lat="25.417926" lon="100.475888">
<time>2016-10-07T05:28:01Z</time></trkpt>
<trkpt lat="25.417976" lon="100.475848">
<time>2016-10-07T05:28:02Z</time></trkpt>
<trkpt lat="25.418016" lon="100.475808">
<time>2016-10-07T05:28:03Z</time></trkpt>
<trkpt lat="25.418056" lon="100.475758">
<time>2016-10-07T05:28:04Z</time></trkpt>
<trkpt lat="25.418086" lon="100.475718">
<time>2016-10-07T05:28:05Z</time></trkpt>
<trkpt lat="25.418116" lon="100.475667">
<time>2016-10-07T05:28:06Z</time></trkpt>
<trkpt lat="25.418136" lon="100.475617">
<time>2016-10-07T05:28:07Z</time></trkpt>
<trkpt lat="25.418155" lon="100.475547">
<time>2016-10-07T05:28:08Z</time></trkpt>
<trkpt lat="25.418175" lon="100.475487">
<time>2016-10-07T05:28:09Z</time></trkpt>
<trkpt lat="25.418185" lon="100.475427">
<time>2016-10-07T05:28:10Z</time></trkpt>
<trkpt lat="25.418195" lon="100.475357">
<time>2016-10-07T05:28:11Z</time></trkpt>
<trkpt lat="25.418185" lon="100.475296">
<time>2016-10-07T05:28:12Z</time></trkpt>
<trkpt lat="25.418184" lon="100.475236">
<time>2016-10-07T05:28:13Z</time></trkpt>
<trkpt lat="25.418164" lon="100.475176">
<time>2016-10-07T05:28:14Z</time></trkpt>
<trkpt lat="25.418144" lon="100.475126">
<time>2016-10-07T05:28:15Z</time></trkpt>
<trkpt lat="25.418114" lon="100.475076">
<time>2016-10-07T05:28:16Z</time></trkpt>
<trkpt lat="25.418074" lon="100.475016">
<time>2016-10-07T05:28:17Z</time></trkpt>
<trkpt lat="25.418014" lon="100.474955">
<time>2016-10-07T05:28:18Z</time></trkpt>
<trkpt lat="25.417953" lon="100.474895">
<time>2016-10-07T05:28:19Z</time></trkpt>
<trkpt lat="25.417903" lon="100.474835">
<time>2016-10-07T05:28:20Z</time></trkpt>
<trkpt lat="25.417843" lon="100.474785">
<time>2016-10-07T05:28:21Z</time></trkpt>
<trkpt lat="25.417773" lon="100.474745">
<time>2016-10-07T05:28:22Z</time></trkpt>
<trkpt lat="25.417723" lon="100.474705">
<time>2016-10-07T05:28:23Z</time></trkpt>
<trkpt lat="25.417633" lon="100.474675">
<time>2016-10-07T05:28:24Z</time></trkpt>
<trkpt lat="25.417583" lon="100.474655">
<time>2016-10-07T05:28:25Z</time></trkpt>
<trkpt lat="25.417513" lon="100.474645">
<time>2016-10-07T05:28:26Z</time></trkpt>
<trkpt lat="25.417433" lon="100.474625">
<time>2016-10-07T05:28:27Z</time></trkpt>
<trkpt lat="25.417333" lon="100.474615">
<time>2016-10-07T05:28:28Z</time></trkpt>
<trkpt lat="25.417082" lon="100.474594">
<time>2016-10-07T05:28:29Z</time></trkpt>
<trkpt lat="25.416772" lon="100.474544">
<time>2016-10-07T05:28:30Z</time></trkpt>
<trkpt lat="25.416692" lon="100.474524">
<time>2016-10-07T05:28:31Z</time></trkpt>
<trkpt lat="25.416622" lon="100.474514">
<time>2016-10-07T05:28:32Z</time></trkpt>
<trkpt lat="25.416212" lon="100.474404">
<time>2016-10-07T05:28:33Z</time></trkpt>
<trkpt lat="25.415821" lon="100.474284">
<time>2016-10-07T05:28:34Z</time></trkpt>
<trkpt lat="25.415381" lon="100.474163">
<time>2016-10-07T05:28:35Z</time></trkpt>
<trkpt lat="25.41503" lon="100.474043">
<time>2016-10-07T05:28:36Z</time></trkpt>
<trkpt lat="25.41489" lon="100.473993">
<time>2016-10-07T05:28:37Z</time></trkpt>
<trkpt lat="25.41478" lon="100.473953">
<time>2016-10-07T05:28:38Z</time></trkpt>
<trkpt lat="25.41467" lon="100.473903">
<time>2016-10-07T05:28:39Z</time></trkpt>
<trkpt lat="25.41459" lon="100.473862">
<time>2016-10-07T05:28:40Z</time></trkpt>
<trkpt lat="25.41452" lon="100.473822">
<time>2016-10-07T05:28:41Z</time></trkpt>
<trkpt lat="25.41447" lon="100.473792">
<time>2016-10-07T05:28:42Z</time></trkpt>
<trkpt lat="25.41439" lon="100.473742">
<time>2016-10-07T05:28:43Z</time></trkpt>
<trkpt lat="25.414319" lon="100.473692">
<time>2016-10-07T05:28:44Z</time></trkpt>
<trkpt lat="25.414219" lon="100.473622">
<time>2016-10-07T05:28:45Z</time></trkpt>
<trkpt lat="25.414099" lon="100.473532">
<time>2016-10-07T05:28:46Z</time></trkpt>
<trkpt lat="25.413979" lon="100.473431">
<time>2016-10-07T05:28:47Z</time></trkpt>
<trkpt lat="25.413878" lon="100.473341">
<time>2016-10-07T05:28:48Z</time></trkpt>
<trkpt lat="25.413698" lon="100.473181">
<time>2016-10-07T05:28:49Z</time></trkpt>
<trkpt lat="25.413608" lon="100.4731">
<time>2016-10-07T05:28:50Z</time></trkpt>
<trkpt lat="25.413517" lon="100.47303">
<time>2016-10-07T05:28:51Z</time></trkpt>
<trkpt lat="25.413447" lon="100.47297">
<time>2016-10-07T05:28:52Z</time></trkpt>
<trkpt lat="25.413307" lon="100.47285">
<time>2016-10-07T05:28:53Z</time></trkpt>
<trkpt lat="25.413197" lon="100.472749">
<time>2016-10-07T05:28:54Z</time></trkpt>
<trkpt lat="25.413026" lon="100.472599">
<time>2016-10-07T05:28:55Z</time></trkpt>
<trkpt lat="25.412755" lon="100.472368">
<time>2016-10-07T05:28:56Z</time></trkpt>
<trkpt lat="25.412415" lon="100.472058">
<time>2016-10-07T05:28:57Z</time></trkpt>
<trkpt lat="25.411983" lon="100.471656">
<time>2016-10-07T05:28:58Z</time></trkpt>
<trkpt lat="25.411763" lon="100.471466">
<time>2016-10-07T05:28:59Z</time></trkpt>
<trkpt lat="25.411693" lon="100.471416">
<time>2016-10-07T05:29:00Z</time></trkpt>
<trkpt lat="25.411643" lon="100.471386">
<time>2016-10-07T05:29:01Z</time></trkpt>
<trkpt lat="25.411582" lon="100.471356">
<time>2016-10-07T05:29:02Z</time></trkpt>
<trkpt lat="25.411552" lon="100.471336">
<time>2016-10-07T05:29:03Z</time></trkpt>
<trkpt lat="25.411492" lon="100.471326">
<time>2016-10-07T05:29:04Z</time></trkpt>
<trkpt lat="25.411402" lon="100.471306">
<time>2016-10-07T05:29:05Z</time></trkpt>
<trkpt lat="25.411302" lon="100.471306">
<time>2016-10-07T05:29:06Z</time></trkpt>
<trkpt lat="25.411172" lon="100.471316">
<time>2016-10-07T05:29:07Z</time></trkpt>
<trkpt lat="25.410772" lon="100.471376">
<time>2016-10-07T05:29:08Z</time></trkpt>
<trkpt lat="25.410192" lon="100.471456">
<time>2016-10-07T05:29:09Z</time></trkpt>
<trkpt lat="25.409843" lon="100.471506">
<time>2016-10-07T05:29:10Z</time></trkpt>
<trkpt lat="25.409743" lon="100.471516">
<time>2016-10-07T05:29:11Z</time></trkpt>
<trkpt lat="25.409692" lon="100.471516">
<time>2016-10-07T05:29:12Z</time></trkpt>
<trkpt lat="25.409632" lon="100.471516">
<time>2016-10-07T05:29:13Z</time></trkpt>
<trkpt lat="25.409602" lon="100.471516">
<time>2016-10-07T05:29:14Z</time></trkpt>
<trkpt lat="25.409552" lon="100.471506">
<time>2016-10-07T05:29:15Z</time></trkpt>
<trkpt lat="25.409522" lon="100.471506">
<time>2016-10-07T05:29:16Z</time></trkpt>
<trkpt lat="25.409502" lon="100.471486">
<time>2016-10-07T05:29:17Z</time></trkpt>
<trkpt lat="25.409462" lon="100.471466">
<time>2016-10-07T05:29:18Z</time></trkpt>
<trkpt lat="25.409412" lon="100.471436">
<time>2016-10-07T05:29:19Z</time></trkpt>
<trkpt lat="25.409382" lon="100.471426">
<time>2016-10-07T05:29:20Z</time></trkpt>
<trkpt lat="25.409352" lon="100.471396">
<time>2016-10-07T05:29:21Z</time></trkpt>
<trkpt lat="25.409292" lon="100.471316">
<time>2016-10-07T05:29:22Z</time></trkpt>
<trkpt lat="25.409201" lon="100.471175">
<time>2016-10-07T05:29:23Z</time></trkpt>
<trkpt lat="25.409121" lon="100.470995">
<time>2016-10-07T05:29:24Z</time></trkpt>
<trkpt lat="25.409081" lon="100.470914">
<time>2016-10-07T05:29:25Z</time></trkpt>
<trkpt lat="25.409061" lon="100.470874">
<time>2016-10-07T05:29:26Z</time></trkpt>
<trkpt lat="25.40903" lon="100.470824">
<time>2016-10-07T05:29:27Z</time></trkpt>
<trkpt lat="25.409" lon="100.470774">
<time>2016-10-07T05:29:28Z</time></trkpt>
<trkpt lat="25.40897" lon="100.470734">
<time>2016-10-07T05:29:29Z</time></trkpt>
<trkpt lat="25.40892" lon="100.470674">
<time>2016-10-07T05:29:30Z</time></trkpt>
<trkpt lat="25.40889" lon="100.470624">
<time>2016-10-07T05:29:31Z</time></trkpt>
<trkpt lat="25.40886" lon="100.470594">
<time>2016-10-07T05:29:32Z</time></trkpt>
<trkpt lat="25.40883" lon="100.470554">
<time>2016-10-07T05:29:33Z</time></trkpt>
<trkpt lat="25.40879" lon="100.470523">
<time>2016-10-07T05:29:34Z</time></trkpt>
<trkpt lat="25.40875" lon="100.470483">
<time>2016-10-07T05:29:35Z</time></trkpt>
<trkpt lat="25.408669" lon="100.470423">
<time>2016-10-07T05:29:36Z</time></trkpt>
<trkpt lat="25.408599" lon="100.470373">
<time>2016-10-07T05:29:37Z</time></trkpt>
<trkpt lat="25.408539" lon="100.470333">
<time>2016-10-07T05:29:38Z</time></trkpt>
<trkpt lat="25.408489" lon="100.470313">
<time>2016-10-07T05:29:39Z</time></trkpt>
<trkpt lat="25.408419" lon="100.470273">
<time>2016-10-07T05:29:40Z</time></trkpt>
<trkpt lat="25.408359" lon="100.470243">
<time>2016-10-07T05:29:41Z</time></trkpt>
<trkpt lat="25.408339" lon="100.470233">
<time>2016-10-07T05:29:42Z</time></trkpt>
<trkpt lat="25.408299" lon="100.470213">
<time>2016-10-07T05:29:43Z</time></trkpt>
<trkpt lat="25.408279" lon="100.470193">
<time>2016-10-07T05:29:44Z</time></trkpt>
<trkpt lat="25.408259" lon="100.470183">
<time>2016-10-07T05:29:45Z</time></trkpt>
<trkpt lat="25.408229" lon="100.470162">
<time>2016-10-07T05:29:46Z</time></trkpt>
<trkpt lat="25.408198" lon="100.470132">
<time>2016-10-07T05:29:47Z</time></trkpt>
<trkpt lat="25.408188" lon="100.470112">
<time>2016-10-07T05:29:48Z</time></trkpt>
<trkpt lat="25.408168" lon="100.470092">
<time>2016-10-07T05:29:49Z</time></trkpt>
<trkpt lat="25.408158" lon="100.470062">
<time>2016-10-07T05:29:50Z</time></trkpt>
<trkpt lat="25.408138" lon="100.470022">
<time>2016-10-07T05:29:51Z</time></trkpt>
<trkpt lat="25.408128" lon="100.469972">
<time>2016-10-07T05:29:52Z</time></trkpt>
<trkpt lat="25.408118" lon="100.469942">
<time>2016-10-07T05:29:53Z</time></trkpt>
<trkpt lat="25.408118" lon="100.469882">
<time>2016-10-07T05:29:54Z</time></trkpt>
<trkpt lat="25.408118" lon="100.469812">
<time>2016-10-07T05:29:55Z</time></trkpt>
<trkpt lat="25.408117" lon="100.469731">
<time>2016-10-07T05:29:56Z</time></trkpt>
<trkpt lat="25.408127" lon="100.469651">
<time>2016-10-07T05:29:57Z</time></trkpt>
<trkpt lat="25.408127" lon="100.469601">
<time>2016-10-07T05:29:58Z</time></trkpt>
<trkpt lat="25.408127" lon="100.469561">
<time>2016-10-07T05:29:59Z</time></trkpt>
<trkpt lat="25.408127" lon="100.469541">
<time>2016-10-07T05:30:00Z</time></trkpt>
<trkpt lat="25.408177" lon="100.469481">
<time>2016-10-07T05:30:01Z</time></trkpt>
<trkpt lat="25.408217" lon="100.469441">
<time>2016-10-07T05:30:02Z</time></trkpt>
<trkpt lat="25.408346" lon="100.4693">
<time>2016-10-07T05:30:03Z</time></trkpt>
<trkpt lat="25.408486" lon="100.46915">
<time>2016-10-07T05:30:04Z</time></trkpt>
<trkpt lat="25.408586" lon="100.469039">
<time>2016-10-07T05:30:05Z</time></trkpt>
<trkpt lat="25.408705" lon="100.468949">
<time>2016-10-07T05:30:06Z</time></trkpt>
<trkpt lat="25.408805" lon="100.468869">
<time>2016-10-07T05:30:07Z</time></trkpt>
<trkpt lat="25.408895" lon="100.468829">
<time>2016-10-07T05:30:08Z</time></trkpt>
<trkpt lat="25.409045" lon="100.468809">
<time>2016-10-07T05:30:09Z</time></trkpt>
<trkpt lat="25.409195" lon="100.468829">
<time>2016-10-07T05:30:10Z</time></trkpt>
<trkpt lat="25.409415" lon="100.468879">
<time>2016-10-07T05:30:11Z</time></trkpt>
<trkpt lat="25.409566" lon="100.468909">
<time>2016-10-07T05:30:12Z</time></trkpt>
<trkpt lat="25.409706" lon="100.468939">
<time>2016-10-07T05:30:13Z</time></trkpt>
<trkpt lat="25.409846" lon="100.468969">
<time>2016-10-07T05:30:14Z</time></trkpt>
<trkpt lat="25.409976" lon="100.468979">
<time>2016-10-07T05:30:15Z</time></trkpt>
<trkpt lat="25.410106" lon="100.468909">
<time>2016-10-07T05:30:16Z</time></trkpt>
<trkpt lat="25.410235" lon="100.468789">
<time>2016-10-07T05:30:17Z</time></trkpt>
<trkpt lat="25.410365" lon="100.468678">
<time>2016-10-07T05:30:18Z</time></trkpt>
<trkpt lat="25.410465" lon="100.468568">
<time>2016-10-07T05:30:19Z</time></trkpt>
<trkpt lat="25.410575" lon="100.468458">
<time>2016-10-07T05:30:20Z</time></trkpt>
<trkpt lat="25.410684" lon="100.468358">
<time>2016-10-07T05:30:21Z</time></trkpt>
<trkpt lat="25.410784" lon="100.468257">
<time>2016-10-07T05:30:22Z</time></trkpt>
<trkpt lat="25.410894" lon="100.468157">
<time>2016-10-07T05:30:23Z</time></trkpt>
<trkpt lat="25.411033" lon="100.468017">
<time>2016-10-07T05:30:24Z</time></trkpt>
<trkpt lat="25.411163" lon="100.467926">
<time>2016-10-07T05:30:25Z</time></trkpt>
<trkpt lat="25.411283" lon="100.467826">
<time>2016-10-07T05:30:26Z</time></trkpt>
<trkpt lat="25.411383" lon="100.467726">
<time>2016-10-07T05:30:27Z</time></trkpt>
<trkpt lat="25.411493" lon="100.467626">
<time>2016-10-07T05:30:28Z</time></trkpt>
<trkpt lat="25.411602" lon="100.467515">
<time>2016-10-07T05:30:29Z</time></trkpt>
<trkpt lat="25.411762" lon="100.467355">
<time>2016-10-07T05:30:30Z</time></trkpt>
<trkpt lat="25.411882" lon="100.467225">
<time>2016-10-07T05:30:31Z</time></trkpt>
<trkpt lat="25.412011" lon="100.467094">
<time>2016-10-07T05:30:32Z</time></trkpt>
<trkpt lat="25.412121" lon="100.466964">
<time>2016-10-07T05:30:33Z</time></trkpt>
<trkpt lat="25.412231" lon="100.466833">
<time>2016-10-07T05:30:34Z</time></trkpt>
<trkpt lat="25.41236" lon="100.466683">
<time>2016-10-07T05:30:35Z</time></trkpt>
<trkpt lat="25.41248" lon="100.466553">
<time>2016-10-07T05:30:36Z</time></trkpt>
<trkpt lat="25.4126" lon="100.466402">
<time>2016-10-07T05:30:37Z</time></trkpt>
<trkpt lat="25.412739" lon="100.466262">
<time>2016-10-07T05:30:38Z</time></trkpt>
<trkpt lat="25.412879" lon="100.466112">
<time>2016-10-07T05:30:39Z</time></trkpt>
<trkpt lat="25.413029" lon="100.465991">
<time>2016-10-07T05:30:40Z</time></trkpt>
<trkpt lat="25.413188" lon="100.465911">
<time>2016-10-07T05:30:41Z</time></trkpt>
<trkpt lat="25.413358" lon="100.465851">
<time>2016-10-07T05:30:42Z</time></trkpt>
<trkpt lat="25.413528" lon="100.465821">
<time>2016-10-07T05:30:43Z</time></trkpt>
<trkpt lat="25.413708" lon="100.465801">
<time>2016-10-07T05:30:44Z</time></trkpt>
<trkpt lat="25.413868" lon="100.465781">
<time>2016-10-07T05:30:45Z</time></trkpt>
<trkpt lat="25.414028" lon="100.465761">
<time>2016-10-07T05:30:46Z</time></trkpt>
<trkpt lat="25.414188" lon="100.465751">
<time>2016-10-07T05:30:47Z</time></trkpt>
<trkpt lat="25.414358" lon="100.465721">
<time>2016-10-07T05:30:48Z</time></trkpt>
<trkpt lat="25.414538" lon="100.46568">
<time>2016-10-07T05:30:49Z</time></trkpt>
<trkpt lat="25.414728" lon="100.46566">
<time>2016-10-07T05:30:50Z</time></trkpt>
<trkpt lat="25.414908" lon="100.46564">
<time>2016-10-07T05:30:51Z</time></trkpt>
<trkpt lat="25.415088" lon="100.46562">
<time>2016-10-07T05:30:52Z</time></trkpt>
<trkpt lat="25.415238" lon="100.4656">
<time>2016-10-07T05:30:53Z</time></trkpt>
<trkpt lat="25.415378" lon="100.46557">
<time>2016-10-07T05:30:54Z</time></trkpt>
<trkpt lat="25.415498" lon="100.46553">
<time>2016-10-07T05:30:55Z</time></trkpt>
<trkpt lat="25.415608" lon="100.46547">
<time>2016-10-07T05:30:56Z</time></trkpt>
<trkpt lat="25.415708" lon="100.46538">
<time>2016-10-07T05:30:57Z</time></trkpt>
<trkpt lat="25.415807" lon="100.465259">
<time>2016-10-07T05:30:58Z</time></trkpt>
<trkpt lat="25.415897" lon="100.465139">
<time>2016-10-07T05:30:59Z</time></trkpt>
<trkpt lat="25.415987" lon="100.465019">
<time>2016-10-07T05:31:00Z</time></trkpt>
<trkpt lat="25.416146" lon="100.464848">
<time>2016-10-07T05:31:01Z</time></trkpt>
<trkpt lat="25.416316" lon="100.464708">
<time>2016-10-07T05:31:02Z</time></trkpt>
<trkpt lat="25.416506" lon="100.464608">
<time>2016-10-07T05:31:03Z</time></trkpt>
<trkpt lat="25.416686" lon="100.464537">
<time>2016-10-07T05:31:04Z</time></trkpt>
<trkpt lat="25.416936" lon="100.464487">
<time>2016-10-07T05:31:05Z</time></trkpt>
<trkpt lat="25.417156" lon="100.464477">
<time>2016-10-07T05:31:06Z</time></trkpt>
<trkpt lat="25.417366" lon="100.464467">
<time>2016-10-07T05:31:07Z</time></trkpt>
<trkpt lat="25.417556" lon="100.464417">
<time>2016-10-07T05:31:08Z</time></trkpt>
<trkpt lat="25.417715" lon="100.464287">
<time>2016-10-07T05:31:09Z</time></trkpt>
<trkpt lat="25.417835" lon="100.464096">
<time>2016-10-07T05:31:10Z</time></trkpt>
<trkpt lat="25.417924" lon="100.463906">
<time>2016-10-07T05:31:11Z</time></trkpt>
<trkpt lat="25.418024" lon="100.463725">
<time>2016-10-07T05:31:12Z</time></trkpt>
<trkpt lat="25.418154" lon="100.463585">
<time>2016-10-07T05:31:13Z</time></trkpt>
<trkpt lat="25.418303" lon="100.463475">
<time>2016-10-07T05:31:14Z</time></trkpt>
<trkpt lat="25.418463" lon="100.463384">
<time>2016-10-07T05:31:15Z</time></trkpt>
<trkpt lat="25.418633" lon="100.463304">
<time>2016-10-07T05:31:16Z</time></trkpt>
<trkpt lat="25.418743" lon="100.463254">
<time>2016-10-07T05:31:17Z</time></trkpt>
<trkpt lat="25.418803" lon="100.463234">
<time>2016-10-07T05:31:18Z</time></trkpt>
<trkpt lat="25.418983" lon="100.463144">
<time>2016-10-07T05:31:19Z</time></trkpt>
<trkpt lat="25.419152" lon="100.463064">
<time>2016-10-07T05:31:20Z</time></trkpt>
<trkpt lat="25.419322" lon="100.462973">
<time>2016-10-07T05:31:21Z</time></trkpt>
<trkpt lat="25.419462" lon="100.462923">
<time>2016-10-07T05:31:22Z</time></trkpt>
<trkpt lat="25.419632" lon="100.462813">
<time>2016-10-07T05:31:23Z</time></trkpt>
<trkpt lat="25.419792" lon="100.462673">
<time>2016-10-07T05:31:24Z</time></trkpt>
<trkpt lat="25.419951" lon="100.462502">
<time>2016-10-07T05:31:25Z</time></trkpt>
<trkpt lat="25.420091" lon="100.462332">
<time>2016-10-07T05:31:26Z</time></trkpt>
<trkpt lat="25.42022" lon="100.462141">
<time>2016-10-07T05:31:27Z</time></trkpt>
<trkpt lat="25.42033" lon="100.461941">
<time>2016-10-07T05:31:28Z</time></trkpt>
<trkpt lat="25.420409" lon="100.46173">
<time>2016-10-07T05:31:29Z</time></trkpt>
<trkpt lat="25.420489" lon="100.46149">
<time>2016-10-07T05:31:30Z</time></trkpt>
<trkpt lat="25.420558" lon="100.461249">
<time>2016-10-07T05:31:31Z</time></trkpt>
<trkpt lat="25.420628" lon="100.460998">
<time>2016-10-07T05:31:32Z</time></trkpt>
<trkpt lat="25.420687" lon="100.460758">
<time>2016-10-07T05:31:33Z</time></trkpt>
<trkpt lat="25.420747" lon="100.460517">
<time>2016-10-07T05:31:34Z</time></trkpt>
<trkpt lat="25.420816" lon="100.460257">
<time>2016-10-07T05:31:35Z</time></trkpt>
<trkpt lat="25.420895" lon="100.460016">
<time>2016-10-07T05:31:36Z</time></trkpt>
<trkpt lat="25.420965" lon="100.459785">
<time>2016-10-07T05:31:37Z</time></trkpt>
<trkpt lat="25.421014" lon="100.459535">
<time>2016-10-07T05:31:38Z</time></trkpt>
<trkpt lat="25.421044" lon="100.459284">
<time>2016-10-07T05:31:39Z</time></trkpt>
<trkpt lat="25.421073" lon="100.459034">
<time>2016-10-07T05:31:40Z</time></trkpt>
<trkpt lat="25.421092" lon="100.458793">
<time>2016-10-07T05:31:41Z</time></trkpt>
<trkpt lat="25.421072" lon="100.458613">
<time>2016-10-07T05:31:42Z</time></trkpt>
<trkpt lat="25.421001" lon="100.458342">
<time>2016-10-07T05:31:43Z</time></trkpt>
<trkpt lat="25.420921" lon="100.458172">
<time>2016-10-07T05:31:44Z</time></trkpt>
<trkpt lat="25.42078" lon="100.457961">
<time>2016-10-07T05:31:45Z</time></trkpt>
<trkpt lat="25.42064" lon="100.457771">
<time>2016-10-07T05:31:46Z</time></trkpt>
<trkpt lat="25.42051" lon="100.45758">
<time>2016-10-07T05:31:47Z</time></trkpt>
<trkpt lat="25.420429" lon="100.45739">
<time>2016-10-07T05:31:48Z</time></trkpt>
<trkpt lat="25.420399" lon="100.457179">
<time>2016-10-07T05:31:49Z</time></trkpt>
<trkpt lat="25.420408" lon="100.456949">
<time>2016-10-07T05:31:50Z</time></trkpt>
<trkpt lat="25.420467" lon="100.456708">
<time>2016-10-07T05:31:51Z</time></trkpt>
<trkpt lat="25.420527" lon="100.456468">
<time>2016-10-07T05:31:52Z</time></trkpt>
<trkpt lat="25.420586" lon="100.456237">
<time>2016-10-07T05:31:53Z</time></trkpt>
<trkpt lat="25.420656" lon="100.456027">
<time>2016-10-07T05:31:54Z</time></trkpt>
<trkpt lat="25.420765" lon="100.455816">
<time>2016-10-07T05:31:55Z</time></trkpt>
<trkpt lat="25.420905" lon="100.455646">
<time>2016-10-07T05:31:56Z</time></trkpt>
<trkpt lat="25.421095" lon="100.455485">
<time>2016-10-07T05:31:57Z</time></trkpt>
<trkpt lat="25.421295" lon="100.455355">
<time>2016-10-07T05:31:58Z</time></trkpt>
<trkpt lat="25.421504" lon="100.455235">
<time>2016-10-07T05:31:59Z</time></trkpt>
<trkpt lat="25.421644" lon="100.455114">
<time>2016-10-07T05:32:00Z</time></trkpt>
<trkpt lat="25.421794" lon="100.454994">
<time>2016-10-07T05:32:01Z</time></trkpt>
<trkpt lat="25.421954" lon="100.454864">
<time>2016-10-07T05:32:02Z</time></trkpt>
<trkpt lat="25.422073" lon="100.454744">
<time>2016-10-07T05:32:03Z</time></trkpt>
<trkpt lat="25.422183" lon="100.454623">
<time>2016-10-07T05:32:04Z</time></trkpt>
<trkpt lat="25.422283" lon="100.454503">
<time>2016-10-07T05:32:05Z</time></trkpt>
<trkpt lat="25.422393" lon="100.454383">
<time>2016-10-07T05:32:06Z</time></trkpt>
<trkpt lat="25.422492" lon="100.454273">
<time>2016-10-07T05:32:07Z</time></trkpt>
<trkpt lat="25.422552" lon="100.454172">
<time>2016-10-07T05:32:08Z</time></trkpt>
<trkpt lat="25.422642" lon="100.454042">
<time>2016-10-07T05:32:09Z</time></trkpt>
<trkpt lat="25.422712" lon="100.453932">
<time>2016-10-07T05:32:10Z</time></trkpt>
<trkpt lat="25.422821" lon="100.453832">
<time>2016-10-07T05:32:11Z</time></trkpt>
<trkpt lat="25.422921" lon="100.453721">
<time>2016-10-07T05:32:12Z</time></trkpt>
<trkpt lat="25.423021" lon="100.453591">
<time>2016-10-07T05:32:13Z</time></trkpt>
<trkpt lat="25.423121" lon="100.453461">
<time>2016-10-07T05:32:14Z</time></trkpt>
<trkpt lat="25.42325" lon="100.45333">
<time>2016-10-07T05:32:15Z</time></trkpt>
<trkpt lat="25.42336" lon="100.45319">
<time>2016-10-07T05:32:16Z</time></trkpt>
<trkpt lat="25.42346" lon="100.45305">
<time>2016-10-07T05:32:17Z</time></trkpt>
<trkpt lat="25.42356" lon="100.452889">
<time>2016-10-07T05:32:18Z</time></trkpt>
<trkpt lat="25.423669" lon="100.452739">
<time>2016-10-07T05:32:19Z</time></trkpt>
<trkpt lat="25.423789" lon="100.452589">
<time>2016-10-07T05:32:20Z</time></trkpt>
<trkpt lat="25.423899" lon="100.452428">
<time>2016-10-07T05:32:21Z</time></trkpt>
<trkpt lat="25.424028" lon="100.452258">
<time>2016-10-07T05:32:22Z</time></trkpt>
<trkpt lat="25.424148" lon="100.452088">
<time>2016-10-07T05:32:23Z</time></trkpt>
<trkpt lat="25.424258" lon="100.451967">
<time>2016-10-07T05:32:24Z</time></trkpt>
<trkpt lat="25.424377" lon="100.451827">
<time>2016-10-07T05:32:25Z</time></trkpt>
<trkpt lat="25.424487" lon="100.451677">
<time>2016-10-07T05:32:26Z</time></trkpt>
<trkpt lat="25.424557" lon="100.451486">
<time>2016-10-07T05:32:27Z</time></trkpt>
<trkpt lat="25.424656" lon="100.451276">
<time>2016-10-07T05:32:28Z</time></trkpt>
<trkpt lat="25.424796" lon="100.451066">
<time>2016-10-07T05:32:29Z</time></trkpt>
<trkpt lat="25.424966" lon="100.450875">
<time>2016-10-07T05:32:30Z</time></trkpt>
<trkpt lat="25.425145" lon="100.450695">
<time>2016-10-07T05:32:31Z</time></trkpt>
<trkpt lat="25.425285" lon="100.450504">
<time>2016-10-07T05:32:32Z</time></trkpt>
<trkpt lat="25.425434" lon="100.450324">
<time>2016-10-07T05:32:33Z</time></trkpt>
<trkpt lat="25.425534" lon="100.450164">
<time>2016-10-07T05:32:34Z</time></trkpt>
<trkpt lat="25.425634" lon="100.449973">
<time>2016-10-07T05:32:35Z</time></trkpt>
<trkpt lat="25.425713" lon="100.449793">
<time>2016-10-07T05:32:36Z</time></trkpt>
<trkpt lat="25.425783" lon="100.449592">
<time>2016-10-07T05:32:37Z</time></trkpt>
<trkpt lat="25.425883" lon="100.449362">
<time>2016-10-07T05:32:38Z</time></trkpt>
<trkpt lat="25.425972" lon="100.449131">
<time>2016-10-07T05:32:39Z</time></trkpt>
<trkpt lat="25.426072" lon="100.448921">
<time>2016-10-07T05:32:40Z</time></trkpt>
<trkpt lat="25.426171" lon="100.448711">
<time>2016-10-07T05:32:41Z</time></trkpt>
<trkpt lat="25.426261" lon="100.44853">
<time>2016-10-07T05:32:42Z</time></trkpt>
<trkpt lat="25.426361" lon="100.44835">
<time>2016-10-07T05:32:43Z</time></trkpt>
<trkpt lat="25.426411" lon="100.44828">
<time>2016-10-07T05:32:44Z</time></trkpt>
<trkpt lat="25.42647" lon="100.44818">
<time>2016-10-07T05:32:45Z</time></trkpt>
<trkpt lat="25.42658" lon="100.448039">
<time>2016-10-07T05:32:46Z</time></trkpt>
<trkpt lat="25.4266" lon="100.448019">
<time>2016-10-07T05:32:47Z</time></trkpt>
<trkpt lat="25.42673" lon="100.447859">
<time>2016-10-07T05:32:48Z</time></trkpt>
<trkpt lat="25.426879" lon="100.447699">
<time>2016-10-07T05:32:49Z</time></trkpt>
<trkpt lat="25.427019" lon="100.447538">
<time>2016-10-07T05:32:50Z</time></trkpt>
<trkpt lat="25.427159" lon="100.447368">
<time>2016-10-07T05:32:51Z</time></trkpt>
<trkpt lat="25.427289" lon="100.447198">
<time>2016-10-07T05:32:52Z</time></trkpt>
<trkpt lat="25.427428" lon="100.447047">
<time>2016-10-07T05:32:53Z</time></trkpt>
<trkpt lat="25.427558" lon="100.446897">
<time>2016-10-07T05:32:54Z</time></trkpt>
<trkpt lat="25.427698" lon="100.446737">
<time>2016-10-07T05:32:55Z</time></trkpt>
<trkpt lat="25.427817" lon="100.446606">
<time>2016-10-07T05:32:56Z</time></trkpt>
<trkpt lat="25.427927" lon="100.446486">
<time>2016-10-07T05:32:57Z</time></trkpt>
<trkpt lat="25.428007" lon="100.446386">
<time>2016-10-07T05:32:58Z</time></trkpt>
<trkpt lat="25.428107" lon="100.446266">
<time>2016-10-07T05:32:59Z</time></trkpt>
<trkpt lat="25.428167" lon="100.446176">
<time>2016-10-07T05:33:00Z</time></trkpt>
<trkpt lat="25.428227" lon="100.446095">
<time>2016-10-07T05:33:01Z</time></trkpt>
<trkpt lat="25.428296" lon="100.446025">
<time>2016-10-07T05:33:02Z</time></trkpt>
<trkpt lat="25.428386" lon="100.445945">
<time>2016-10-07T05:33:03Z</time></trkpt>
<trkpt lat="25.428466" lon="100.445845">
<time>2016-10-07T05:33:04Z</time></trkpt>
<trkpt lat="25.428546" lon="100.445735">
<time>2016-10-07T05:33:05Z</time></trkpt>
<trkpt lat="25.428646" lon="100.445604">
<time>2016-10-07T05:33:06Z</time></trkpt>
<trkpt lat="25.428785" lon="100.445454">
<time>2016-10-07T05:33:07Z</time></trkpt>
<trkpt lat="25.428865" lon="100.445364">
<time>2016-10-07T05:33:08Z</time></trkpt>
<trkpt lat="25.428955" lon="100.445264">
<time>2016-10-07T05:33:09Z</time></trkpt>
<trkpt lat="25.429045" lon="100.445164">
<time>2016-10-07T05:33:10Z</time></trkpt>
<trkpt lat="25.429145" lon="100.445063">
<time>2016-10-07T05:33:11Z</time></trkpt>
<trkpt lat="25.429284" lon="100.444883">
<time>2016-10-07T05:33:12Z</time></trkpt>
<trkpt lat="25.429384" lon="100.444773">
<time>2016-10-07T05:33:13Z</time></trkpt>
<trkpt lat="25.429454" lon="100.444693">
<time>2016-10-07T05:33:14Z</time></trkpt>
<trkpt lat="25.429494" lon="100.444663">
<time>2016-10-07T05:33:15Z</time></trkpt>
<trkpt lat="25.429594" lon="100.444552">
<time>2016-10-07T05:33:16Z</time></trkpt>
<trkpt lat="25.429704" lon="100.444442">
<time>2016-10-07T05:33:17Z</time></trkpt>
<trkpt lat="25.429814" lon="100.444342">
<time>2016-10-07T05:33:18Z</time></trkpt>
<trkpt lat="25.429933" lon="100.444252">
<time>2016-10-07T05:33:19Z</time></trkpt>
<trkpt lat="25.430063" lon="100.444172">
<time>2016-10-07T05:33:20Z</time></trkpt>
<trkpt lat="25.430193" lon="100.444092">
<time>2016-10-07T05:33:21Z</time></trkpt>
<trkpt lat="25.430313" lon="100.443991">
<time>2016-10-07T05:33:22Z</time></trkpt>
<trkpt lat="25.430443" lon="100.443901">
<time>2016-10-07T05:33:23Z</time></trkpt>
<trkpt lat="25.430563" lon="100.443811">
<time>2016-10-07T05:33:24Z</time></trkpt>
<trkpt lat="25.430693" lon="100.443731">
<time>2016-10-07T05:33:25Z</time></trkpt>
<trkpt lat="25.430823" lon="100.443651">
<time>2016-10-07T05:33:26Z</time></trkpt>
<trkpt lat="25.430952" lon="100.443571">
<time>2016-10-07T05:33:27Z</time></trkpt>
<trkpt lat="25.431092" lon="100.44349">
<time>2016-10-07T05:33:28Z</time></trkpt>
<trkpt lat="25.431232" lon="100.44341">
<time>2016-10-07T05:33:29Z</time></trkpt>
<trkpt lat="25.431362" lon="100.44334">
<time>2016-10-07T05:33:30Z</time></trkpt>
<trkpt lat="25.431532" lon="100.4432">
<time>2016-10-07T05:33:31Z</time></trkpt>
<trkpt lat="25.431682" lon="100.4431">
<time>2016-10-07T05:33:32Z</time></trkpt>
<trkpt lat="25.431832" lon="100.442999">
<time>2016-10-07T05:33:33Z</time></trkpt>
<trkpt lat="25.431971" lon="100.442899">
<time>2016-10-07T05:33:34Z</time></trkpt>
<trkpt lat="25.432101" lon="100.442809">
<time>2016-10-07T05:33:35Z</time></trkpt>
<trkpt lat="25.432231" lon="100.442729">
<time>2016-10-07T05:33:36Z</time></trkpt>
<trkpt lat="25.432351" lon="100.442639">
<time>2016-10-07T05:33:37Z</time></trkpt>
<trkpt lat="25.432471" lon="100.442549">
<time>2016-10-07T05:33:38Z</time></trkpt>
<trkpt lat="25.432541" lon="100.442499">
<time>2016-10-07T05:33:39Z</time></trkpt>
<trkpt lat="25.432571" lon="100.442469">
<time>2016-10-07T05:33:40Z</time></trkpt>
<trkpt lat="25.432671" lon="100.442388">
<time>2016-10-07T05:33:41Z</time></trkpt>
<trkpt lat="25.432681" lon="100.442388">
<time>2016-10-07T05:33:42Z</time></trkpt>
<trkpt lat="25.432771" lon="100.442318">
<time>2016-10-07T05:33:43Z</time></trkpt>
<trkpt lat="25.43288" lon="100.442228">
<time>2016-10-07T05:33:44Z</time></trkpt>
<trkpt lat="25.43299" lon="100.442108">
<time>2016-10-07T05:33:45Z</time></trkpt>
<trkpt lat="25.4331" lon="100.442008">
<time>2016-10-07T05:33:46Z</time></trkpt>
<trkpt lat="25.43315" lon="100.441907">
<time>2016-10-07T05:33:47Z</time></trkpt>
<trkpt lat="25.43319" lon="100.441817">
<time>2016-10-07T05:33:48Z</time></trkpt>
<trkpt lat="25.43326" lon="100.441687">
<time>2016-10-07T05:33:49Z</time></trkpt>
<trkpt lat="25.433299" lon="100.441557">
<time>2016-10-07T05:33:50Z</time></trkpt>
<trkpt lat="25.433309" lon="100.441457">
<time>2016-10-07T05:33:51Z</time></trkpt>
<trkpt lat="25.433329" lon="100.441326">
<time>2016-10-07T05:33:52Z</time></trkpt>
<trkpt lat="25.433329" lon="100.441186">
<time>2016-10-07T05:33:53Z</time></trkpt>
<trkpt lat="25.433378" lon="100.441016">
<time>2016-10-07T05:33:54Z</time></trkpt>
<trkpt lat="25.433408" lon="100.440876">
<time>2016-10-07T05:33:55Z</time></trkpt>
<trkpt lat="25.433438" lon="100.440715">
<time>2016-10-07T05:33:56Z</time></trkpt>
<trkpt lat="25.433498" lon="100.440555">
<time>2016-10-07T05:33:57Z</time></trkpt>
<trkpt lat="25.433537" lon="100.440385">
<time>2016-10-07T05:33:58Z</time></trkpt>
<trkpt lat="25.433607" lon="100.440215">
<time>2016-10-07T05:33:59Z</time></trkpt>
<trkpt lat="25.433697" lon="100.440034">
<time>2016-10-07T05:34:00Z</time></trkpt>
<trkpt lat="25.433776" lon="100.439864">
<time>2016-10-07T05:34:01Z</time></trkpt>
<trkpt lat="25.433866" lon="100.439694">
<time>2016-10-07T05:34:02Z</time></trkpt>
<trkpt lat="25.433956" lon="100.439513">
<time>2016-10-07T05:34:03Z</time></trkpt>
<trkpt lat="25.434036" lon="100.439373">
<time>2016-10-07T05:34:04Z</time></trkpt>
<trkpt lat="25.434056" lon="100.439333">
<time>2016-10-07T05:34:05Z</time></trkpt>
<trkpt lat="25.434155" lon="100.439153">
<time>2016-10-07T05:34:06Z</time></trkpt>
<trkpt lat="25.434245" lon="100.438982">
<time>2016-10-07T05:34:07Z</time></trkpt>
<trkpt lat="25.434345" lon="100.438802">
<time>2016-10-07T05:34:08Z</time></trkpt>
<trkpt lat="25.434405" lon="100.438672">
<time>2016-10-07T05:34:09Z</time></trkpt>
<trkpt lat="25.434504" lon="100.438522">
<time>2016-10-07T05:34:10Z</time></trkpt>
<trkpt lat="25.434614" lon="100.438331">
<time>2016-10-07T05:34:11Z</time></trkpt>
<trkpt lat="25.434714" lon="100.438141">
<time>2016-10-07T05:34:12Z</time></trkpt>
<trkpt lat="25.434834" lon="100.437961">
<time>2016-10-07T05:34:13Z</time></trkpt>
<trkpt lat="25.434953" lon="100.437781">
<time>2016-10-07T05:34:14Z</time></trkpt>
<trkpt lat="25.435073" lon="100.43759">
<time>2016-10-07T05:34:15Z</time></trkpt>
<trkpt lat="25.435183" lon="100.4374">
<time>2016-10-07T05:34:16Z</time></trkpt>
<trkpt lat="25.435282" lon="100.43723">
<time>2016-10-07T05:34:17Z</time></trkpt>
<trkpt lat="25.435382" lon="100.437069">
<time>2016-10-07T05:34:18Z</time></trkpt>
<trkpt lat="25.435482" lon="100.436919">
<time>2016-10-07T05:34:19Z</time></trkpt>
<trkpt lat="25.435642" lon="100.436759">
<time>2016-10-07T05:34:20Z</time></trkpt>
<trkpt lat="25.435812" lon="100.436659">
<time>2016-10-07T05:34:21Z</time></trkpt>
<trkpt lat="25.436022" lon="100.436549">
<time>2016-10-07T05:34:22Z</time></trkpt>
<trkpt lat="25.436182" lon="100.436478">
<time>2016-10-07T05:34:23Z</time></trkpt>
<trkpt lat="25.436361" lon="100.436418">
<time>2016-10-07T05:34:24Z</time></trkpt>
<trkpt lat="25.436541" lon="100.436378">
<time>2016-10-07T05:34:25Z</time></trkpt>
<trkpt lat="25.436691" lon="100.436338">
<time>2016-10-07T05:34:26Z</time></trkpt>
<trkpt lat="25.436871" lon="100.436318">
<time>2016-10-07T05:34:27Z</time></trkpt>
<trkpt lat="25.437061" lon="100.436308">
<time>2016-10-07T05:34:28Z</time></trkpt>
<trkpt lat="25.437232" lon="100.436318">
<time>2016-10-07T05:34:29Z</time></trkpt>
<trkpt lat="25.437242" lon="100.436318">
<time>2016-10-07T05:34:30Z</time></trkpt>
<trkpt lat="25.437422" lon="100.436338">
<time>2016-10-07T05:34:31Z</time></trkpt>
<trkpt lat="25.437612" lon="100.436378">
<time>2016-10-07T05:34:32Z</time></trkpt>
<trkpt lat="25.437792" lon="100.436438">
<time>2016-10-07T05:34:33Z</time></trkpt>
<trkpt lat="25.437922" lon="100.436468">
<time>2016-10-07T05:34:34Z</time></trkpt>
<trkpt lat="25.438042" lon="100.436498">
<time>2016-10-07T05:34:35Z</time></trkpt>
<trkpt lat="25.438152" lon="100.436518">
<time>2016-10-07T05:34:36Z</time></trkpt>
<trkpt lat="25.438282" lon="100.436549">
<time>2016-10-07T05:34:37Z</time></trkpt>
<trkpt lat="25.438422" lon="100.436559">
<time>2016-10-07T05:34:38Z</time></trkpt>
<trkpt lat="25.438542" lon="100.436569">
<time>2016-10-07T05:34:39Z</time></trkpt>
<trkpt lat="25.438672" lon="100.436589">
<time>2016-10-07T05:34:40Z</time></trkpt>
<trkpt lat="25.438802" lon="100.436619">
<time>2016-10-07T05:34:41Z</time></trkpt>
<trkpt lat="25.438972" lon="100.436639">
<time>2016-10-07T05:34:42Z</time></trkpt>
<trkpt lat="25.439093" lon="100.436689">
<time>2016-10-07T05:34:43Z</time></trkpt>
<trkpt lat="25.439233" lon="100.436719">
<time>2016-10-07T05:34:44Z</time></trkpt>
<trkpt lat="25.439333" lon="100.436739">
<time>2016-10-07T05:34:45Z</time></trkpt>
<trkpt lat="25.439433" lon="100.436759">
<time>2016-10-07T05:34:46Z</time></trkpt>
<trkpt lat="25.439543" lon="100.436789">
<time>2016-10-07T05:34:47Z</time></trkpt>
<trkpt lat="25.439713" lon="100.436809">
<time>2016-10-07T05:34:48Z</time></trkpt>
<trkpt lat="25.439863" lon="100.436839">
<time>2016-10-07T05:34:49Z</time></trkpt>
<trkpt lat="25.440013" lon="100.436869">
<time>2016-10-07T05:34:50Z</time></trkpt>
<trkpt lat="25.440173" lon="100.436899">
<time>2016-10-07T05:34:51Z</time></trkpt>
<trkpt lat="25.440343" lon="100.436929">
<time>2016-10-07T05:34:52Z</time></trkpt>
<trkpt lat="25.440533" lon="100.436959">
<time>2016-10-07T05:34:53Z</time></trkpt>
<trkpt lat="25.440713" lon="100.436989">
<time>2016-10-07T05:34:54Z</time></trkpt>
<trkpt lat="25.440894" lon="100.437029">
<time>2016-10-07T05:34:55Z</time></trkpt>
<trkpt lat="25.441074" lon="100.437059">
<time>2016-10-07T05:34:56Z</time></trkpt>
<trkpt lat="25.441264" lon="100.437099">
<time>2016-10-07T05:34:57Z</time></trkpt>
<trkpt lat="25.441444" lon="100.437129">
<time>2016-10-07T05:34:58Z</time></trkpt>
<trkpt lat="25.441624" lon="100.437159">
<time>2016-10-07T05:34:59Z</time></trkpt>
<trkpt lat="25.441784" lon="100.437189">
<time>2016-10-07T05:35:00Z</time></trkpt>
<trkpt lat="25.441954" lon="100.437229">
<time>2016-10-07T05:35:01Z</time></trkpt>
<trkpt lat="25.442134" lon="100.43726">
<time>2016-10-07T05:35:02Z</time></trkpt>
<trkpt lat="25.442314" lon="100.43729">
<time>2016-10-07T05:35:03Z</time></trkpt>
<trkpt lat="25.442504" lon="100.43733">
<time>2016-10-07T05:35:04Z</time></trkpt>
<trkpt lat="25.442534" lon="100.43733">
<time>2016-10-07T05:35:05Z</time></trkpt>
<trkpt lat="25.442694" lon="100.43736">
<time>2016-10-07T05:35:06Z</time></trkpt>
<trkpt lat="25.442875" lon="100.4374">
<time>2016-10-07T05:35:07Z</time></trkpt>
<trkpt lat="25.443055" lon="100.43743">
<time>2016-10-07T05:35:08Z</time></trkpt>
<trkpt lat="25.443245" lon="100.43749">
<time>2016-10-07T05:35:09Z</time></trkpt>
<trkpt lat="25.443435" lon="100.43752">
<time>2016-10-07T05:35:10Z</time></trkpt>
<trkpt lat="25.443635" lon="100.43757">
<time>2016-10-07T05:35:11Z</time></trkpt>
<trkpt lat="25.443835" lon="100.4376">
<time>2016-10-07T05:35:12Z</time></trkpt>
<trkpt lat="25.444035" lon="100.43763">
<time>2016-10-07T05:35:13Z</time></trkpt>
<trkpt lat="25.444245" lon="100.43765">
<time>2016-10-07T05:35:14Z</time></trkpt>
<trkpt lat="25.444435" lon="100.43766">
<time>2016-10-07T05:35:15Z</time></trkpt>
<trkpt lat="25.444625" lon="100.43766">
<time>2016-10-07T05:35:16Z</time></trkpt>
<trkpt lat="25.444806" lon="100.43768">
<time>2016-10-07T05:35:17Z</time></trkpt>
<trkpt lat="25.444986" lon="100.43767">
<time>2016-10-07T05:35:18Z</time></trkpt>
<trkpt lat="25.445176" lon="100.43765">
<time>2016-10-07T05:35:19Z</time></trkpt>
<trkpt lat="25.445376" lon="100.43764">
<time>2016-10-07T05:35:20Z</time></trkpt>
<trkpt lat="25.445576" lon="100.43761">
<time>2016-10-07T05:35:21Z</time></trkpt>
<trkpt lat="25.445776" lon="100.43758">
<time>2016-10-07T05:35:22Z</time></trkpt>
<trkpt lat="25.445976" lon="100.43753">
<time>2016-10-07T05:35:23Z</time></trkpt>
<trkpt lat="25.446176" lon="100.43748">
<time>2016-10-07T05:35:24Z</time></trkpt>
<trkpt lat="25.446385" lon="100.43741">
<time>2016-10-07T05:35:25Z</time></trkpt>
<trkpt lat="25.446575" lon="100.43734">
<time>2016-10-07T05:35:26Z</time></trkpt>
<trkpt lat="25.446785" lon="100.437269">
<time>2016-10-07T05:35:27Z</time></trkpt>
<trkpt lat="25.446985" lon="100.437199">
<time>2016-10-07T05:35:28Z</time></trkpt>
<trkpt lat="25.447205" lon="100.437109">
<time>2016-10-07T05:35:29Z</time></trkpt>
<trkpt lat="25.447355" lon="100.437069">
<time>2016-10-07T05:35:30Z</time></trkpt>
<trkpt lat="25.447555" lon="100.436989">
<time>2016-10-07T05:35:31Z</time></trkpt>
<trkpt lat="25.447765" lon="100.436909">
<time>2016-10-07T05:35:32Z</time></trkpt>
<trkpt lat="25.447955" lon="100.436809">
<time>2016-10-07T05:35:33Z</time></trkpt>
<trkpt lat="25.448115" lon="100.436709">
<time>2016-10-07T05:35:34Z</time></trkpt>
<trkpt lat="25.448255" lon="100.436618">
<time>2016-10-07T05:35:35Z</time></trkpt>
<trkpt lat="25.448395" lon="100.436538">
<time>2016-10-07T05:35:36Z</time></trkpt>
<trkpt lat="25.448524" lon="100.436468">
<time>2016-10-07T05:35:37Z</time></trkpt>
<trkpt lat="25.448644" lon="100.436398">
<time>2016-10-07T05:35:38Z</time></trkpt>
<trkpt lat="25.448774" lon="100.436328">
<time>2016-10-07T05:35:39Z</time></trkpt>
<trkpt lat="25.448894" lon="100.436268">
<time>2016-10-07T05:35:40Z</time></trkpt>
<trkpt lat="25.449004" lon="100.436208">
<time>2016-10-07T05:35:41Z</time></trkpt>
<trkpt lat="25.449114" lon="100.436148">
<time>2016-10-07T05:35:42Z</time></trkpt>
<trkpt lat="25.449234" lon="100.436088">
<time>2016-10-07T05:35:43Z</time></trkpt>
<trkpt lat="25.449344" lon="100.436017">
<time>2016-10-07T05:35:44Z</time></trkpt>
<trkpt lat="25.449474" lon="100.435927">
<time>2016-10-07T05:35:45Z</time></trkpt>
<trkpt lat="25.449624" lon="100.435827">
<time>2016-10-07T05:35:46Z</time></trkpt>
<trkpt lat="25.449794" lon="100.435727">
<time>2016-10-07T05:35:47Z</time></trkpt>
<trkpt lat="25.449974" lon="100.435657">
<time>2016-10-07T05:35:48Z</time></trkpt>
<trkpt lat="25.450144" lon="100.435587">
<time>2016-10-07T05:35:49Z</time></trkpt>
<trkpt lat="25.450343" lon="100.435507">
<time>2016-10-07T05:35:50Z</time></trkpt>
<trkpt lat="25.450533" lon="100.435407">
<time>2016-10-07T05:35:51Z</time></trkpt>
<trkpt lat="25.450703" lon="100.435326">
<time>2016-10-07T05:35:52Z</time></trkpt>
<trkpt lat="25.450873" lon="100.435236">
<time>2016-10-07T05:35:53Z</time></trkpt>
<trkpt lat="25.451043" lon="100.435156">
<time>2016-10-07T05:35:54Z</time></trkpt>
<trkpt lat="25.451203" lon="100.435066">
<time>2016-10-07T05:35:55Z</time></trkpt>
<trkpt lat="25.451343" lon="100.434976">
<time>2016-10-07T05:35:56Z</time></trkpt>
<trkpt lat="25.451493" lon="100.434886">
<time>2016-10-07T05:35:57Z</time></trkpt>
<trkpt lat="25.451643" lon="100.434776">
<time>2016-10-07T05:35:58Z</time></trkpt>
<trkpt lat="25.451793" lon="100.434635">
<time>2016-10-07T05:35:59Z</time></trkpt>
<trkpt lat="25.451922" lon="100.434485">
<time>2016-10-07T05:36:00Z</time></trkpt>
<trkpt lat="25.452022" lon="100.434315">
<time>2016-10-07T05:36:01Z</time></trkpt>
<trkpt lat="25.452082" lon="100.434165">
<time>2016-10-07T05:36:02Z</time></trkpt>
<trkpt lat="25.452122" lon="100.433944">
<time>2016-10-07T05:36:03Z</time></trkpt>
<trkpt lat="25.452121" lon="100.433714">
<time>2016-10-07T05:36:04Z</time></trkpt>
<trkpt lat="25.452091" lon="100.433484">
<time>2016-10-07T05:36:05Z</time></trkpt>
<trkpt lat="25.452071" lon="100.433253">
<time>2016-10-07T05:36:06Z</time></trkpt>
<trkpt lat="25.45206" lon="100.433023">
<time>2016-10-07T05:36:07Z</time></trkpt>
<trkpt lat="25.45205" lon="100.432793">
<time>2016-10-07T05:36:08Z</time></trkpt>
<trkpt lat="25.45205" lon="100.432572">
<time>2016-10-07T05:36:09Z</time></trkpt>
<trkpt lat="25.452049" lon="100.432362">
<time>2016-10-07T05:36:10Z</time></trkpt>
<trkpt lat="25.452059" lon="100.432132">
<time>2016-10-07T05:36:11Z</time></trkpt>
<trkpt lat="25.452049" lon="100.431902">
<time>2016-10-07T05:36:12Z</time></trkpt>
<trkpt lat="25.452058" lon="100.431671">
<time>2016-10-07T05:36:13Z</time></trkpt>
<trkpt lat="25.452038" lon="100.431461">
<time>2016-10-07T05:36:14Z</time></trkpt>
<trkpt lat="25.452028" lon="100.431311">
<time>2016-10-07T05:36:15Z</time></trkpt>
<trkpt lat="25.451978" lon="100.431111">
<time>2016-10-07T05:36:16Z</time></trkpt>
<trkpt lat="25.451907" lon="100.43092">
<time>2016-10-07T05:36:17Z</time></trkpt>
<trkpt lat="25.451847" lon="100.43072">
<time>2016-10-07T05:36:18Z</time></trkpt>
<trkpt lat="25.451807" lon="100.43053">
<time>2016-10-07T05:36:19Z</time></trkpt>
<trkpt lat="25.451786" lon="100.43032">
<time>2016-10-07T05:36:20Z</time></trkpt>
<trkpt lat="25.451786" lon="100.430219">
<time>2016-10-07T05:36:21Z</time></trkpt>
<trkpt lat="25.451786" lon="100.430099">
<time>2016-10-07T05:36:22Z</time></trkpt>
<trkpt lat="25.451836" lon="100.429919">
<time>2016-10-07T05:36:23Z</time></trkpt>
<trkpt lat="25.451926" lon="100.429759">
<time>2016-10-07T05:36:24Z</time></trkpt>
<trkpt lat="25.452046" lon="100.429609">
<time>2016-10-07T05:36:25Z</time></trkpt>
<trkpt lat="25.452186" lon="100.429478">
<time>2016-10-07T05:36:26Z</time></trkpt>
<trkpt lat="25.452335" lon="100.429358">
<time>2016-10-07T05:36:27Z</time></trkpt>
<trkpt lat="25.452495" lon="100.429238">
<time>2016-10-07T05:36:28Z</time></trkpt>
<trkpt lat="25.452675" lon="100.429128">
<time>2016-10-07T05:36:29Z</time></trkpt>
<trkpt lat="25.452865" lon="100.429018">
<time>2016-10-07T05:36:30Z</time></trkpt>
<trkpt lat="25.453055" lon="100.428908">
<time>2016-10-07T05:36:31Z</time></trkpt>
<trkpt lat="25.453205" lon="100.428808">
<time>2016-10-07T05:36:32Z</time></trkpt>
<trkpt lat="25.453355" lon="100.428718">
<time>2016-10-07T05:36:33Z</time></trkpt>
<trkpt lat="25.453505" lon="100.428637">
<time>2016-10-07T05:36:34Z</time></trkpt>
<trkpt lat="25.453635" lon="100.428577">
<time>2016-10-07T05:36:35Z</time></trkpt>
<trkpt lat="25.453765" lon="100.428517">
<time>2016-10-07T05:36:36Z</time></trkpt>
<trkpt lat="25.453905" lon="100.428457">
<time>2016-10-07T05:36:37Z</time></trkpt>
<trkpt lat="25.454055" lon="100.428357">
<time>2016-10-07T05:36:38Z</time></trkpt>
<trkpt lat="25.454215" lon="100.428267">
<time>2016-10-07T05:36:39Z</time></trkpt>
<trkpt lat="25.454374" lon="100.428177">
<time>2016-10-07T05:36:40Z</time></trkpt>
<trkpt lat="25.454544" lon="100.428057">
<time>2016-10-07T05:36:41Z</time></trkpt>
<trkpt lat="25.454704" lon="100.427947">
<time>2016-10-07T05:36:42Z</time></trkpt>
<trkpt lat="25.454874" lon="100.427816">
<time>2016-10-07T05:36:43Z</time></trkpt>
<trkpt lat="25.455034" lon="100.427706">
<time>2016-10-07T05:36:44Z</time></trkpt>
<trkpt lat="25.455224" lon="100.427596">
<time>2016-10-07T05:36:45Z</time></trkpt>
<trkpt lat="25.455414" lon="100.427496">
<time>2016-10-07T05:36:46Z</time></trkpt>
<trkpt lat="25.455604" lon="100.427386">
<time>2016-10-07T05:36:47Z</time></trkpt>
<trkpt lat="25.455764" lon="100.427296">
<time>2016-10-07T05:36:48Z</time></trkpt>
<trkpt lat="25.455794" lon="100.427276">
<time>2016-10-07T05:36:49Z</time></trkpt>
<trkpt lat="25.455994" lon="100.427176">
<time>2016-10-07T05:36:50Z</time></trkpt>
<trkpt lat="25.456184" lon="100.427046">
<time>2016-10-07T05:36:51Z</time></trkpt>
<trkpt lat="25.456393" lon="100.426925">
<time>2016-10-07T05:36:52Z</time></trkpt>
<trkpt lat="25.456613" lon="100.426785">
<time>2016-10-07T05:36:53Z</time></trkpt>
<trkpt lat="25.456823" lon="100.426665">
<time>2016-10-07T05:36:54Z</time></trkpt>
<trkpt lat="25.457023" lon="100.426545">
<time>2016-10-07T05:36:55Z</time></trkpt>
<trkpt lat="25.457203" lon="100.426455">
<time>2016-10-07T05:36:56Z</time></trkpt>
<trkpt lat="25.457393" lon="100.426335">
<time>2016-10-07T05:36:57Z</time></trkpt>
<trkpt lat="25.457543" lon="100.426235">
<time>2016-10-07T05:36:58Z</time></trkpt>
<trkpt lat="25.457703" lon="100.426165">
<time>2016-10-07T05:36:59Z</time></trkpt>
<trkpt lat="25.457873" lon="100.426085">
<time>2016-10-07T05:37:00Z</time></trkpt>
<trkpt lat="25.458043" lon="100.426014">
<time>2016-10-07T05:37:01Z</time></trkpt>
<trkpt lat="25.458203" lon="100.425974">
<time>2016-10-07T05:37:02Z</time></trkpt>
<trkpt lat="25.458393" lon="100.425914">
<time>2016-10-07T05:37:03Z</time></trkpt>
<trkpt lat="25.458593" lon="100.425844">
<time>2016-10-07T05:37:04Z</time></trkpt>
<trkpt lat="25.458753" lon="100.425784">
<time>2016-10-07T05:37:05Z</time></trkpt>
<trkpt lat="25.458883" lon="100.425734">
<time>2016-10-07T05:37:06Z</time></trkpt>
<trkpt lat="25.458983" lon="100.425704">
<time>2016-10-07T05:37:07Z</time></trkpt>
<trkpt lat="25.459073" lon="100.425664">
<time>2016-10-07T05:37:08Z</time></trkpt>
<trkpt lat="25.459193" lon="100.425634">
<time>2016-10-07T05:37:09Z</time></trkpt>
<trkpt lat="25.459343" lon="100.425584">
<time>2016-10-07T05:37:10Z</time></trkpt>
<trkpt lat="25.459503" lon="100.425524">
<time>2016-10-07T05:37:11Z</time></trkpt>
<trkpt lat="25.459663" lon="100.425454">
<time>2016-10-07T05:37:12Z</time></trkpt>
<trkpt lat="25.459823" lon="100.425394">
<time>2016-10-07T05:37:13Z</time></trkpt>
<trkpt lat="25.459973" lon="100.425314">
<time>2016-10-07T05:37:14Z</time></trkpt>
<trkpt lat="25.460133" lon="100.425264">
<time>2016-10-07T05:37:15Z</time></trkpt>
<trkpt lat="25.460303" lon="100.425214">
<time>2016-10-07T05:37:16Z</time></trkpt>
<trkpt lat="25.460483" lon="100.425153">
<time>2016-10-07T05:37:17Z</time></trkpt>
<trkpt lat="25.460653" lon="100.425073">
<time>2016-10-07T05:37:18Z</time></trkpt>
<trkpt lat="25.460833" lon="100.425003">
<time>2016-10-07T05:37:19Z</time></trkpt>
<trkpt lat="25.461022" lon="100.424933">
<time>2016-10-07T05:37:20Z</time></trkpt>
<trkpt lat="25.461202" lon="100.424863">
<time>2016-10-07T05:37:21Z</time></trkpt>
<trkpt lat="25.461392" lon="100.424763">
<time>2016-10-07T05:37:22Z</time></trkpt>
<trkpt lat="25.461582" lon="100.424673">
<time>2016-10-07T05:37:23Z</time></trkpt>
<trkpt lat="25.461762" lon="100.424573">
<time>2016-10-07T05:37:24Z</time></trkpt>
<trkpt lat="25.461942" lon="100.424483">
<time>2016-10-07T05:37:25Z</time></trkpt>
<trkpt lat="25.462092" lon="100.424413">
<time>2016-10-07T05:37:26Z</time></trkpt>
<trkpt lat="25.462222" lon="100.424333">
<time>2016-10-07T05:37:27Z</time></trkpt>
<trkpt lat="25.462352" lon="100.424263">
<time>2016-10-07T05:37:28Z</time></trkpt>
<trkpt lat="25.462482" lon="100.424192">
<time>2016-10-07T05:37:29Z</time></trkpt>
<trkpt lat="25.462612" lon="100.424122">
<time>2016-10-07T05:37:30Z</time></trkpt>
<trkpt lat="25.462742" lon="100.424052">
<time>2016-10-07T05:37:31Z</time></trkpt>
<trkpt lat="25.462862" lon="100.423982">
<time>2016-10-07T05:37:32Z</time></trkpt>
<trkpt lat="25.462982" lon="100.423912">
<time>2016-10-07T05:37:33Z</time></trkpt>
<trkpt lat="25.463102" lon="100.423842">
<time>2016-10-07T05:37:34Z</time></trkpt>
<trkpt lat="25.463222" lon="100.423792">
<time>2016-10-07T05:37:35Z</time></trkpt>
<trkpt lat="25.463352" lon="100.423732">
<time>2016-10-07T05:37:36Z</time></trkpt>
<trkpt lat="25.463482" lon="100.423682">
<time>2016-10-07T05:37:37Z</time></trkpt>
<trkpt lat="25.463612" lon="100.423652">
<time>2016-10-07T05:37:38Z</time></trkpt>
<trkpt lat="25.463732" lon="100.423632">
<time>2016-10-07T05:37:39Z</time></trkpt>
<trkpt lat="25.463842" lon="100.423632">
<time>2016-10-07T05:37:40Z</time></trkpt>
<trkpt lat="25.463952" lon="100.423622">
<time>2016-10-07T05:37:41Z</time></trkpt>
<trkpt lat="25.464072" lon="100.423632">
<time>2016-10-07T05:37:42Z</time></trkpt>
<trkpt lat="25.464202" lon="100.423662">
<time>2016-10-07T05:37:43Z</time></trkpt>
<trkpt lat="25.464352" lon="100.423702">
<time>2016-10-07T05:37:44Z</time></trkpt>
<trkpt lat="25.464512" lon="100.423752">
<time>2016-10-07T05:37:45Z</time></trkpt>
<trkpt lat="25.464682" lon="100.423812">
<time>2016-10-07T05:37:46Z</time></trkpt>
<trkpt lat="25.464842" lon="100.423872">
<time>2016-10-07T05:37:47Z</time></trkpt>
<trkpt lat="25.465003" lon="100.423932">
<time>2016-10-07T05:37:48Z</time></trkpt>
<trkpt lat="25.465143" lon="100.423992">
<time>2016-10-07T05:37:49Z</time></trkpt>
<trkpt lat="25.465263" lon="100.424042">
<time>2016-10-07T05:37:50Z</time></trkpt>
<trkpt lat="25.465403" lon="100.424072">
<time>2016-10-07T05:37:51Z</time></trkpt>
<trkpt lat="25.465553" lon="100.424102">
<time>2016-10-07T05:37:52Z</time></trkpt>
<trkpt lat="25.465673" lon="100.424122">
<time>2016-10-07T05:37:53Z</time></trkpt>
<trkpt lat="25.465783" lon="100.424162">
<time>2016-10-07T05:37:54Z</time></trkpt>
<trkpt lat="25.465883" lon="100.424202">
<time>2016-10-07T05:37:55Z</time></trkpt>
<trkpt lat="25.465983" lon="100.424222">
<time>2016-10-07T05:37:56Z</time></trkpt>
<trkpt lat="25.466073" lon="100.424252">
<time>2016-10-07T05:37:57Z</time></trkpt>
<trkpt lat="25.466183" lon="100.424262">
<time>2016-10-07T05:37:58Z</time></trkpt>
<trkpt lat="25.466313" lon="100.424282">
<time>2016-10-07T05:37:59Z</time></trkpt>
<trkpt lat="25.466453" lon="100.424292">
<time>2016-10-07T05:38:00Z</time></trkpt>
<trkpt lat="25.466623" lon="100.424302">
<time>2016-10-07T05:38:01Z</time></trkpt>
<trkpt lat="25.466793" lon="100.424272">
<time>2016-10-07T05:38:02Z</time></trkpt>
<trkpt lat="25.466953" lon="100.424222">
<time>2016-10-07T05:38:03Z</time></trkpt>
<trkpt lat="25.467083" lon="100.424132">
<time>2016-10-07T05:38:04Z</time></trkpt>
<trkpt lat="25.467213" lon="100.424032">
<time>2016-10-07T05:38:05Z</time></trkpt>
<trkpt lat="25.467333" lon="100.423912">
<time>2016-10-07T05:38:06Z</time></trkpt>
<trkpt lat="25.467463" lon="100.423802">
<time>2016-10-07T05:38:07Z</time></trkpt>
<trkpt lat="25.467533" lon="100.423702">
<time>2016-10-07T05:38:08Z</time></trkpt>
<trkpt lat="25.467623" lon="100.423612">
<time>2016-10-07T05:38:09Z</time></trkpt>
<trkpt lat="25.467713" lon="100.423462">
<time>2016-10-07T05:38:10Z</time></trkpt>
<trkpt lat="25.467773" lon="100.423372">
<time>2016-10-07T05:38:11Z</time></trkpt>
<trkpt lat="25.468332" lon="100.422831">
<time>2016-10-07T05:38:12Z</time></trkpt>
<trkpt lat="25.468992" lon="100.422211">
<time>2016-10-07T05:38:13Z</time></trkpt>
<trkpt lat="25.469232" lon="100.422">
<time>2016-10-07T05:38:14Z</time></trkpt>
<trkpt lat="25.469542" lon="100.4217">
<time>2016-10-07T05:38:15Z</time></trkpt>
<trkpt lat="25.469621" lon="100.42159">
<time>2016-10-07T05:38:16Z</time></trkpt>
<trkpt lat="25.469671" lon="100.42148">
<time>2016-10-07T05:38:17Z</time></trkpt>
<trkpt lat="25.469711" lon="100.42132">
<time>2016-10-07T05:38:18Z</time></trkpt>
<trkpt lat="25.469721" lon="100.42114">
<time>2016-10-07T05:38:19Z</time></trkpt>
<trkpt lat="25.469691" lon="100.420969">
<time>2016-10-07T05:38:20Z</time></trkpt>
<trkpt lat="25.469601" lon="100.420759">
<time>2016-10-07T05:38:21Z</time></trkpt>
<trkpt lat="25.46944" lon="100.420479">
<time>2016-10-07T05:38:22Z</time></trkpt>
<trkpt lat="25.46928" lon="100.420059">
<time>2016-10-07T05:38:23Z</time></trkpt>
<trkpt lat="25.46925" lon="100.419969">
<time>2016-10-07T05:38:24Z</time></trkpt>
<trkpt lat="25.46912" lon="100.419638">
<time>2016-10-07T05:38:25Z</time></trkpt>
<trkpt lat="25.46911" lon="100.419608">
<time>2016-10-07T05:38:26Z</time></trkpt>
<trkpt lat="25.468939" lon="100.419158">
<time>2016-10-07T05:38:27Z</time></trkpt>
<trkpt lat="25.468899" lon="100.419058">
<time>2016-10-07T05:38:28Z</time></trkpt>
<trkpt lat="25.468809" lon="100.418838">
<time>2016-10-07T05:38:29Z</time></trkpt>
<trkpt lat="25.468719" lon="100.418698">
<time>2016-10-07T05:38:30Z</time></trkpt>
<trkpt lat="25.468619" lon="100.418578">
<time>2016-10-07T05:38:31Z</time></trkpt>
<trkpt lat="25.468509" lon="100.418468">
<time>2016-10-07T05:38:32Z</time></trkpt>
<trkpt lat="25.468388" lon="100.418388">
<time>2016-10-07T05:38:33Z</time></trkpt>
<trkpt lat="25.468248" lon="100.418298">
<time>2016-10-07T05:38:34Z</time></trkpt>
<trkpt lat="25.468158" lon="100.418257">
<time>2016-10-07T05:38:35Z</time></trkpt>
<trkpt lat="25.468048" lon="100.418227">
<time>2016-10-07T05:38:36Z</time></trkpt>
<trkpt lat="25.467948" lon="100.418187">
<time>2016-10-07T05:38:37Z</time></trkpt>
<trkpt lat="25.467688" lon="100.418107">
<time>2016-10-07T05:38:38Z</time></trkpt>
<trkpt lat="25.467558" lon="100.418057">
<time>2016-10-07T05:38:39Z</time></trkpt>
<trkpt lat="25.467458" lon="100.417997">
<time>2016-10-07T05:38:40Z</time></trkpt>
<trkpt lat="25.467368" lon="100.417927">
<time>2016-10-07T05:38:41Z</time></trkpt>
<trkpt lat="25.467268" lon="100.417797">
<time>2016-10-07T05:38:42Z</time></trkpt>
<trkpt lat="25.467167" lon="100.417587">
<time>2016-10-07T05:38:43Z</time></trkpt>
<trkpt lat="25.467087" lon="100.417407">
<time>2016-10-07T05:38:44Z</time></trkpt>
<trkpt lat="25.466997" lon="100.417247">
<time>2016-10-07T05:38:45Z</time></trkpt>
<trkpt lat="25.466897" lon="100.417127">
<time>2016-10-07T05:38:46Z</time></trkpt>
<trkpt lat="25.466757" lon="100.417027">
<time>2016-10-07T05:38:47Z</time></trkpt>
<trkpt lat="25.466627" lon="100.416967">
<time>2016-10-07T05:38:48Z</time></trkpt>
<trkpt lat="25.466567" lon="100.416947">
<time>2016-10-07T05:38:49Z</time></trkpt>
<trkpt lat="25.466497" lon="100.416937">
<time>2016-10-07T05:38:50Z</time></trkpt>
<trkpt lat="25.466427" lon="100.416937">
<time>2016-10-07T05:38:51Z</time></trkpt>
<trkpt lat="25.466377" lon="100.416937">
<time>2016-10-07T05:38:52Z</time></trkpt>
<trkpt lat="25.466177" lon="100.416957">
<time>2016-10-07T05:38:53Z</time></trkpt>
<trkpt lat="25.466067" lon="100.416967">
<time>2016-10-07T05:38:54Z</time></trkpt>
<trkpt lat="25.465977" lon="100.416967">
<time>2016-10-07T05:38:55Z</time></trkpt>
<trkpt lat="25.465947" lon="100.416967">
<time>2016-10-07T05:38:56Z</time></trkpt>
<trkpt lat="25.465927" lon="100.416967">
<time>2016-10-07T05:38:57Z</time></trkpt>
<trkpt lat="25.465847" lon="100.416947">
<time>2016-10-07T05:38:58Z</time></trkpt>
<trkpt lat="25.465777" lon="100.416927">
<time>2016-10-07T05:38:59Z</time></trkpt>
<trkpt lat="25.465707" lon="100.416897">
<time>2016-10-07T05:39:00Z</time></trkpt>
<trkpt lat="25.465637" lon="100.416847">
<time>2016-10-07T05:39:01Z</time></trkpt>
<trkpt lat="25.465536" lon="100.416727">
<time>2016-10-07T05:39:02Z</time></trkpt>
<trkpt lat="25.465466" lon="100.416576">
<time>2016-10-07T05:39:03Z</time></trkpt>
<trkpt lat="25.465406" lon="100.416306">
<time>2016-10-07T05:39:04Z</time></trkpt>
<trkpt lat="25.465306" lon="100.415856">
<time>2016-10-07T05:39:05Z</time></trkpt>
<trkpt lat="25.465175" lon="100.415246">
<time>2016-10-07T05:39:06Z</time></trkpt>
<trkpt lat="25.465125" lon="100.415136">
<time>2016-10-07T05:39:07Z</time></trkpt>
<trkpt lat="25.465035" lon="100.415026">
<time>2016-10-07T05:39:08Z</time></trkpt>
<trkpt lat="25.464905" lon="100.414836">
<time>2016-10-07T05:39:09Z</time></trkpt>
<trkpt lat="25.464705" lon="100.414675">
<time>2016-10-07T05:39:10Z</time></trkpt>
<trkpt lat="25.464465" lon="100.414555">
<time>2016-10-07T05:39:11Z</time></trkpt>
<trkpt lat="25.464205" lon="100.414475">
<time>2016-10-07T05:39:12Z</time></trkpt>
<trkpt lat="25.464004" lon="100.414325">
<time>2016-10-07T05:39:13Z</time></trkpt>
<trkpt lat="25.463874" lon="100.414205">
<time>2016-10-07T05:39:14Z</time></trkpt>
<trkpt lat="25.463704" lon="100.413965">
<time>2016-10-07T05:39:15Z</time></trkpt>
<trkpt lat="25.463564" lon="100.413755">
<time>2016-10-07T05:39:16Z</time></trkpt>
<trkpt lat="25.463424" lon="100.413545">
<time>2016-10-07T05:39:17Z</time></trkpt>
<trkpt lat="25.463364" lon="100.413395">
<time>2016-10-07T05:39:18Z</time></trkpt>
<trkpt lat="25.463254" lon="100.413185">
<time>2016-10-07T05:39:19Z</time></trkpt>
<trkpt lat="25.463133" lon="100.412985">
<time>2016-10-07T05:39:20Z</time></trkpt>
<trkpt lat="25.463033" lon="100.412775">
<time>2016-10-07T05:39:21Z</time></trkpt>
<trkpt lat="25.462963" lon="100.412565">
<time>2016-10-07T05:39:22Z</time></trkpt>
<trkpt lat="25.462923" lon="100.412324">
<time>2016-10-07T05:39:23Z</time></trkpt>
<trkpt lat="25.462893" lon="100.412094">
<time>2016-10-07T05:39:24Z</time></trkpt>
<trkpt lat="25.462853" lon="100.411884">
<time>2016-10-07T05:39:25Z</time></trkpt>
<trkpt lat="25.462803" lon="100.411694">
<time>2016-10-07T05:39:26Z</time></trkpt>
<trkpt lat="25.462733" lon="100.411484">
<time>2016-10-07T05:39:27Z</time></trkpt>
<trkpt lat="25.462612" lon="100.411304">
<time>2016-10-07T05:39:28Z</time></trkpt>
<trkpt lat="25.462452" lon="100.411214">
<time>2016-10-07T05:39:29Z</time></trkpt>
<trkpt lat="25.462242" lon="100.411234">
<time>2016-10-07T05:39:30Z</time></trkpt>
<trkpt lat="25.462082" lon="100.411344">
<time>2016-10-07T05:39:31Z</time></trkpt>
<trkpt lat="25.461922" lon="100.411474">
<time>2016-10-07T05:39:32Z</time></trkpt>
<trkpt lat="25.461772" lon="100.411624">
<time>2016-10-07T05:39:33Z</time></trkpt>
<trkpt lat="25.461602" lon="100.411744">
<time>2016-10-07T05:39:34Z</time></trkpt>
<trkpt lat="25.461482" lon="100.411824">
<time>2016-10-07T05:39:35Z</time></trkpt>
<trkpt lat="25.461452" lon="100.411834">
<time>2016-10-07T05:39:36Z</time></trkpt>
<trkpt lat="25.461422" lon="100.411834">
<time>2016-10-07T05:39:37Z</time></trkpt>
<trkpt lat="25.461372" lon="100.411834">
<time>2016-10-07T05:39:38Z</time></trkpt>
<trkpt lat="25.461312" lon="100.411824">
<time>2016-10-07T05:39:39Z</time></trkpt>
<trkpt lat="25.461282" lon="100.411824">
<time>2016-10-07T05:39:40Z</time></trkpt>
<trkpt lat="25.461262" lon="100.411804">
<time>2016-10-07T05:39:41Z</time></trkpt>
<trkpt lat="25.461232" lon="100.411774">
<time>2016-10-07T05:39:42Z</time></trkpt>
<trkpt lat="25.461192" lon="100.411724">
<time>2016-10-07T05:39:43Z</time></trkpt>
<trkpt lat="25.461172" lon="100.411644">
<time>2016-10-07T05:39:44Z</time></trkpt>
<trkpt lat="25.461162" lon="100.411564">
<time>2016-10-07T05:39:45Z</time></trkpt>
<trkpt lat="25.461182" lon="100.411484">
<time>2016-10-07T05:39:46Z</time></trkpt>
<trkpt lat="25.461202" lon="100.411424">
<time>2016-10-07T05:39:47Z</time></trkpt>
<trkpt lat="25.461282" lon="100.411294">
<time>2016-10-07T05:39:48Z</time></trkpt>
<trkpt lat="25.461352" lon="100.411174">
<time>2016-10-07T05:39:49Z</time></trkpt>
<trkpt lat="25.461432" lon="100.411054">
<time>2016-10-07T05:39:50Z</time></trkpt>
<trkpt lat="25.461512" lon="100.410924">
<time>2016-10-07T05:39:51Z</time></trkpt>
<trkpt lat="25.461582" lon="100.410764">
<time>2016-10-07T05:39:52Z</time></trkpt>
<trkpt lat="25.461592" lon="100.410584">
<time>2016-10-07T05:39:53Z</time></trkpt>
<trkpt lat="25.461532" lon="100.410414">
<time>2016-10-07T05:39:54Z</time></trkpt>
<trkpt lat="25.461422" lon="100.410274">
<time>2016-10-07T05:39:55Z</time></trkpt>
<trkpt lat="25.461292" lon="100.410134">
<time>2016-10-07T05:39:56Z</time></trkpt>
<trkpt lat="25.461161" lon="100.410014">
<time>2016-10-07T05:39:57Z</time></trkpt>
<trkpt lat="25.461061" lon="100.409864">
<time>2016-10-07T05:39:58Z</time></trkpt>
<trkpt lat="25.460931" lon="100.409764">
<time>2016-10-07T05:39:59Z</time></trkpt>
<trkpt lat="25.460801" lon="100.409634">
<time>2016-10-07T05:40:00Z</time></trkpt>
<trkpt lat="25.460681" lon="100.409534">
<time>2016-10-07T05:40:01Z</time></trkpt>
<trkpt lat="25.460561" lon="100.409444">
<time>2016-10-07T05:40:02Z</time></trkpt>
<trkpt lat="25.460441" lon="100.409384">
<time>2016-10-07T05:40:03Z</time></trkpt>
<trkpt lat="25.460341" lon="100.409314">
<time>2016-10-07T05:40:04Z</time></trkpt>
<trkpt lat="25.460231" lon="100.409224">
<time>2016-10-07T05:40:05Z</time></trkpt>
<trkpt lat="25.460121" lon="100.409154">
<time>2016-10-07T05:40:06Z</time></trkpt>
<trkpt lat="25.460021" lon="100.409074">
<time>2016-10-07T05:40:07Z</time></trkpt>
<trkpt lat="25.459911" lon="100.408994">
<time>2016-10-07T05:40:08Z</time></trkpt>
<trkpt lat="25.459821" lon="100.408914">
<time>2016-10-07T05:40:09Z</time></trkpt>
<trkpt lat="25.459721" lon="100.408833">
<time>2016-10-07T05:40:10Z</time></trkpt>
<trkpt lat="25.459631" lon="100.408743">
<time>2016-10-07T05:40:11Z</time></trkpt>
<trkpt lat="25.459521" lon="100.408693">
<time>2016-10-07T05:40:12Z</time></trkpt>
<trkpt lat="25.459411" lon="100.408653">
<time>2016-10-07T05:40:13Z</time></trkpt>
<trkpt lat="25.4593" lon="100.408623">
<time>2016-10-07T05:40:14Z</time></trkpt>
<trkpt lat="25.45918" lon="100.408623">
<time>2016-10-07T05:40:15Z</time></trkpt>
<trkpt lat="25.45907" lon="100.408603">
<time>2016-10-07T05:40:16Z</time></trkpt>
<trkpt lat="25.45893" lon="100.408603">
<time>2016-10-07T05:40:17Z</time></trkpt>
<trkpt lat="25.45878" lon="100.408593">
<time>2016-10-07T05:40:18Z</time></trkpt>
<trkpt lat="25.45862" lon="100.408573">
<time>2016-10-07T05:40:19Z</time></trkpt>
<trkpt lat="25.45848" lon="100.408543">
<time>2016-10-07T05:40:20Z</time></trkpt>
<trkpt lat="25.45834" lon="100.408503">
<time>2016-10-07T05:40:21Z</time></trkpt>
<trkpt lat="25.45823" lon="100.408403">
<time>2016-10-07T05:40:22Z</time></trkpt>
<trkpt lat="25.45814" lon="100.408283">
<time>2016-10-07T05:40:23Z</time></trkpt>
<trkpt lat="25.45811" lon="100.408123">
<time>2016-10-07T05:40:24Z</time></trkpt>
<trkpt lat="25.45808" lon="100.407993">
<time>2016-10-07T05:40:25Z</time></trkpt>
<trkpt lat="25.45805" lon="100.407853">
<time>2016-10-07T05:40:26Z</time></trkpt>
<trkpt lat="25.45801" lon="100.407733">
<time>2016-10-07T05:40:27Z</time></trkpt>
<trkpt lat="25.45794" lon="100.407603">
<time>2016-10-07T05:40:28Z</time></trkpt>
<trkpt lat="25.45786" lon="100.407503">
<time>2016-10-07T05:40:29Z</time></trkpt>
<trkpt lat="25.45772" lon="100.407423">
<time>2016-10-07T05:40:30Z</time></trkpt>
<trkpt lat="25.45757" lon="100.407423">
<time>2016-10-07T05:40:31Z</time></trkpt>
<trkpt lat="25.45742" lon="100.407483">
<time>2016-10-07T05:40:32Z</time></trkpt>
<trkpt lat="25.4573" lon="100.407553">
<time>2016-10-07T05:40:33Z</time></trkpt>
<trkpt lat="25.45717" lon="100.407643">
<time>2016-10-07T05:40:34Z</time></trkpt>
<trkpt lat="25.45704" lon="100.407703">
<time>2016-10-07T05:40:35Z</time></trkpt>
<trkpt lat="25.4569" lon="100.407743">
<time>2016-10-07T05:40:36Z</time></trkpt>
<trkpt lat="25.45677" lon="100.407753">
<time>2016-10-07T05:40:37Z</time></trkpt>
<trkpt lat="25.456589" lon="100.407743">
<time>2016-10-07T05:40:38Z</time></trkpt>
<trkpt lat="25.456439" lon="100.407703">
<time>2016-10-07T05:40:39Z</time></trkpt>
<trkpt lat="25.456309" lon="100.407643">
<time>2016-10-07T05:40:40Z</time></trkpt>
<trkpt lat="25.456179" lon="100.407553">
<time>2016-10-07T05:40:41Z</time></trkpt>
<trkpt lat="25.456019" lon="100.407473">
<time>2016-10-07T05:40:42Z</time></trkpt>
<trkpt lat="25.455849" lon="100.407383">
<time>2016-10-07T05:40:43Z</time></trkpt>
<trkpt lat="25.455639" lon="100.407323">
<time>2016-10-07T05:40:44Z</time></trkpt>
<trkpt lat="25.455419" lon="100.407273">
<time>2016-10-07T05:40:45Z</time></trkpt>
<trkpt lat="25.455249" lon="100.407143">
<time>2016-10-07T05:40:46Z</time></trkpt>
<trkpt lat="25.455159" lon="100.406963">
<time>2016-10-07T05:40:47Z</time></trkpt>
<trkpt lat="25.455129" lon="100.406733">
<time>2016-10-07T05:40:48Z</time></trkpt>
<trkpt lat="25.455159" lon="100.406543">
<time>2016-10-07T05:40:49Z</time></trkpt>
<trkpt lat="25.455119" lon="100.406473">
<time>2016-10-07T05:40:50Z</time></trkpt>
<trkpt lat="25.455039" lon="100.406463">
<time>2016-10-07T05:40:51Z</time></trkpt>
<trkpt lat="25.454899" lon="100.406543">
<time>2016-10-07T05:40:52Z</time></trkpt>
<trkpt lat="25.454779" lon="100.406663">
<time>2016-10-07T05:40:53Z</time></trkpt>
<trkpt lat="25.454639" lon="100.406763">
<time>2016-10-07T05:40:54Z</time></trkpt>
<trkpt lat="25.454499" lon="100.406903">
<time>2016-10-07T05:40:55Z</time></trkpt>
<trkpt lat="25.454309" lon="100.406973">
<time>2016-10-07T05:40:56Z</time></trkpt>
<trkpt lat="25.454159" lon="100.406993">
<time>2016-10-07T05:40:57Z</time></trkpt>
<trkpt lat="25.453989" lon="100.406943">
<time>2016-10-07T05:40:58Z</time></trkpt>
<trkpt lat="25.453859" lon="100.406833">
<time>2016-10-07T05:40:59Z</time></trkpt>
<trkpt lat="25.453748" lon="100.406703">
<time>2016-10-07T05:41:00Z</time></trkpt>
<trkpt lat="25.453658" lon="100.406553">
<time>2016-10-07T05:41:01Z</time></trkpt>
<trkpt lat="25.453588" lon="100.406393">
<time>2016-10-07T05:41:02Z</time></trkpt>
<trkpt lat="25.453568" lon="100.406233">
<time>2016-10-07T05:41:03Z</time></trkpt>
<trkpt lat="25.453588" lon="100.406083">
<time>2016-10-07T05:41:04Z</time></trkpt>
<trkpt lat="25.453658" lon="100.405943">
<time>2016-10-07T05:41:05Z</time></trkpt>
<trkpt lat="25.453728" lon="100.405833">
<time>2016-10-07T05:41:06Z</time></trkpt>
<trkpt lat="25.453808" lon="100.405703">
<time>2016-10-07T05:41:07Z</time></trkpt>
<trkpt lat="25.453888" lon="100.405583">
<time>2016-10-07T05:41:08Z</time></trkpt>
<trkpt lat="25.453948" lon="100.405433">
<time>2016-10-07T05:41:09Z</time></trkpt>
<trkpt lat="25.453988" lon="100.405293">
<time>2016-10-07T05:41:10Z</time></trkpt>
<trkpt lat="25.454008" lon="100.405153">
<time>2016-10-07T05:41:11Z</time></trkpt>
<trkpt lat="25.454018" lon="100.405023">
<time>2016-10-07T05:41:12Z</time></trkpt>
<trkpt lat="25.454028" lon="100.404903">
<time>2016-10-07T05:41:13Z</time></trkpt>
<trkpt lat="25.454038" lon="100.404763">
<time>2016-10-07T05:41:14Z</time></trkpt>
<trkpt lat="25.454028" lon="100.404633">
<time>2016-10-07T05:41:15Z</time></trkpt>
<trkpt lat="25.453988" lon="100.404503">
<time>2016-10-07T05:41:16Z</time></trkpt>
<trkpt lat="25.453908" lon="100.404393">
<time>2016-10-07T05:41:17Z</time></trkpt>
<trkpt lat="25.453828" lon="100.404293">
<time>2016-10-07T05:41:18Z</time></trkpt>
<trkpt lat="25.453758" lon="100.404203">
<time>2016-10-07T05:41:19Z</time></trkpt>
<trkpt lat="25.453688" lon="100.404113">
<time>2016-10-07T05:41:20Z</time></trkpt>
<trkpt lat="25.453618" lon="100.404033">
<time>2016-10-07T05:41:21Z</time></trkpt>
<trkpt lat="25.453538" lon="100.403943">
<time>2016-10-07T05:41:22Z</time></trkpt>
<trkpt lat="25.453438" lon="100.403873">
<time>2016-10-07T05:41:23Z</time></trkpt>
<trkpt lat="25.453348" lon="100.403843">
<time>2016-10-07T05:41:24Z</time></trkpt>
<trkpt lat="25.453218" lon="100.403843">
<time>2016-10-07T05:41:25Z</time></trkpt>
<trkpt lat="25.453098" lon="100.403863">
<time>2016-10-07T05:41:26Z</time></trkpt>
<trkpt lat="25.453008" lon="100.403883">
<time>2016-10-07T05:41:27Z</time></trkpt>
<trkpt lat="25.452888" lon="100.403843">
<time>2016-10-07T05:41:28Z</time></trkpt>
<trkpt lat="25.452818" lon="100.403743">
<time>2016-10-07T05:41:29Z</time></trkpt>
<trkpt lat="25.452748" lon="100.403643">
<time>2016-10-07T05:41:30Z</time></trkpt>
<trkpt lat="25.452688" lon="100.403473">
<time>2016-10-07T05:41:31Z</time></trkpt>
<trkpt lat="25.452638" lon="100.403293">
<time>2016-10-07T05:41:32Z</time></trkpt>
<trkpt lat="25.452598" lon="100.403103">
<time>2016-10-07T05:41:33Z</time></trkpt>
<trkpt lat="25.452547" lon="100.402923">
<time>2016-10-07T05:41:34Z</time></trkpt>
<trkpt lat="25.452497" lon="100.402743">
<time>2016-10-07T05:41:35Z</time></trkpt>
<trkpt lat="25.452467" lon="100.402523">
<time>2016-10-07T05:41:36Z</time></trkpt>
<trkpt lat="25.452477" lon="100.402293">
<time>2016-10-07T05:41:37Z</time></trkpt>
<trkpt lat="25.452537" lon="100.402073">
<time>2016-10-07T05:41:38Z</time></trkpt>
<trkpt lat="25.452607" lon="100.401873">
<time>2016-10-07T05:41:39Z</time></trkpt>
<trkpt lat="25.452707" lon="100.401713">
<time>2016-10-07T05:41:40Z</time></trkpt>
<trkpt lat="25.452787" lon="100.401553">
<time>2016-10-07T05:41:41Z</time></trkpt>
<trkpt lat="25.452867" lon="100.401373">
<time>2016-10-07T05:41:42Z</time></trkpt>
<trkpt lat="25.452918" lon="100.401203">
<time>2016-10-07T05:41:43Z</time></trkpt>
<trkpt lat="25.452948" lon="100.401023">
<time>2016-10-07T05:41:44Z</time></trkpt>
<trkpt lat="25.452968" lon="100.400853">
<time>2016-10-07T05:41:45Z</time></trkpt>
<trkpt lat="25.452958" lon="100.400694">
<time>2016-10-07T05:41:46Z</time></trkpt>
<trkpt lat="25.452897" lon="100.400554">
<time>2016-10-07T05:41:47Z</time></trkpt>
<trkpt lat="25.452787" lon="100.400464">
<time>2016-10-07T05:41:48Z</time></trkpt>
<trkpt lat="25.452637" lon="100.400444">
<time>2016-10-07T05:41:49Z</time></trkpt>
<trkpt lat="25.452497" lon="100.400454">
<time>2016-10-07T05:41:50Z</time></trkpt>
<trkpt lat="25.452297" lon="100.400484">
<time>2016-10-07T05:41:51Z</time></trkpt>
<trkpt lat="25.452107" lon="100.400524">
<time>2016-10-07T05:41:52Z</time></trkpt>
<trkpt lat="25.451937" lon="100.400564">
<time>2016-10-07T05:41:53Z</time></trkpt>
<trkpt lat="25.451657" lon="100.400654">
<time>2016-10-07T05:41:54Z</time></trkpt>
<trkpt lat="25.451447" lon="100.400714">
<time>2016-10-07T05:41:55Z</time></trkpt>
<trkpt lat="25.451307" lon="100.400784">
<time>2016-10-07T05:41:56Z</time></trkpt>
<trkpt lat="25.451107" lon="100.400854">
<time>2016-10-07T05:41:57Z</time></trkpt>
<trkpt lat="25.450917" lon="100.400934">
<time>2016-10-07T05:41:58Z</time></trkpt>
<trkpt lat="25.450737" lon="100.401014">
<time>2016-10-07T05:41:59Z</time></trkpt>
<trkpt lat="25.450547" lon="100.401103">
<time>2016-10-07T05:42:00Z</time></trkpt>
<trkpt lat="25.450357" lon="100.401183">
<time>2016-10-07T05:42:01Z</time></trkpt>
<trkpt lat="25.450167" lon="100.401253">
<time>2016-10-07T05:42:02Z</time></trkpt>
<trkpt lat="25.449977" lon="100.401293">
<time>2016-10-07T05:42:03Z</time></trkpt>
<trkpt lat="25.449797" lon="100.401333">
<time>2016-10-07T05:42:04Z</time></trkpt>
<trkpt lat="25.449627" lon="100.401363">
<time>2016-10-07T05:42:05Z</time></trkpt>
<trkpt lat="25.449487" lon="100.401363">
<time>2016-10-07T05:42:06Z</time></trkpt>
<trkpt lat="25.449297" lon="100.401343">
<time>2016-10-07T05:42:07Z</time></trkpt>
<trkpt lat="25.449117" lon="100.401294">
<time>2016-10-07T05:42:08Z</time></trkpt>
<trkpt lat="25.448966" lon="100.401294">
<time>2016-10-07T05:42:09Z</time></trkpt>
<trkpt lat="25.448766" lon="100.401314">
<time>2016-10-07T05:42:10Z</time></trkpt>
<trkpt lat="25.448586" lon="100.401384">
<time>2016-10-07T05:42:11Z</time></trkpt>
<trkpt lat="25.448416" lon="100.401474">
<time>2016-10-07T05:42:12Z</time></trkpt>
<trkpt lat="25.448246" lon="100.401553">
<time>2016-10-07T05:42:13Z</time></trkpt>
<trkpt lat="25.448066" lon="100.401613">
<time>2016-10-07T05:42:14Z</time></trkpt>
<trkpt lat="25.447896" lon="100.401643">
<time>2016-10-07T05:42:15Z</time></trkpt>
<trkpt lat="25.447696" lon="100.401614">
<time>2016-10-07T05:42:16Z</time></trkpt>
<trkpt lat="25.447516" lon="100.401584">
<time>2016-10-07T05:42:17Z</time></trkpt>
<trkpt lat="25.447346" lon="100.401544">
<time>2016-10-07T05:42:18Z</time></trkpt>
<trkpt lat="25.447206" lon="100.401434">
<time>2016-10-07T05:42:19Z</time></trkpt>
<trkpt lat="25.447146" lon="100.401274">
<time>2016-10-07T05:42:20Z</time></trkpt>
<trkpt lat="25.447136" lon="100.401094">
<time>2016-10-07T05:42:21Z</time></trkpt>
<trkpt lat="25.447176" lon="100.400914">
<time>2016-10-07T05:42:22Z</time></trkpt>
<trkpt lat="25.447216" lon="100.400754">
<time>2016-10-07T05:42:23Z</time></trkpt>
<trkpt lat="25.447276" lon="100.400614">
<time>2016-10-07T05:42:24Z</time></trkpt>
<trkpt lat="25.447326" lon="100.400484">
<time>2016-10-07T05:42:25Z</time></trkpt>
<trkpt lat="25.447426" lon="100.400364">
<time>2016-10-07T05:42:26Z</time></trkpt>
<trkpt lat="25.447486" lon="100.400234">
<time>2016-10-07T05:42:27Z</time></trkpt>
<trkpt lat="25.447576" lon="100.400104">
<time>2016-10-07T05:42:28Z</time></trkpt>
<trkpt lat="25.447646" lon="100.399944">
<time>2016-10-07T05:42:29Z</time></trkpt>
<trkpt lat="25.447726" lon="100.399784">
<time>2016-10-07T05:42:30Z</time></trkpt>
<trkpt lat="25.447846" lon="100.399614">
<time>2016-10-07T05:42:31Z</time></trkpt>
<trkpt lat="25.447976" lon="100.399464">
<time>2016-10-07T05:42:32Z</time></trkpt>
<trkpt lat="25.448086" lon="100.399304">
<time>2016-10-07T05:42:33Z</time></trkpt>
<trkpt lat="25.448196" lon="100.399144">
<time>2016-10-07T05:42:34Z</time></trkpt>
<trkpt lat="25.448226" lon="100.399034">
<time>2016-10-07T05:42:35Z</time></trkpt>
<trkpt lat="25.448196" lon="100.398924">
<time>2016-10-07T05:42:36Z</time></trkpt>
<trkpt lat="25.448096" lon="100.398814">
<time>2016-10-07T05:42:37Z</time></trkpt>
<trkpt lat="25.447976" lon="100.398694">
<time>2016-10-07T05:42:38Z</time></trkpt>
<trkpt lat="25.447846" lon="100.398584">
<time>2016-10-07T05:42:39Z</time></trkpt>
<trkpt lat="25.447726" lon="100.398454">
<time>2016-10-07T05:42:40Z</time></trkpt>
<trkpt lat="25.447606" lon="100.398304">
<time>2016-10-07T05:42:41Z</time></trkpt>
<trkpt lat="25.447496" lon="100.398204">
<time>2016-10-07T05:42:42Z</time></trkpt>
<trkpt lat="25.447336" lon="100.398104">
<time>2016-10-07T05:42:43Z</time></trkpt>
<trkpt lat="25.447186" lon="100.398014">
<time>2016-10-07T05:42:44Z</time></trkpt>
<trkpt lat="25.447016" lon="100.397914">
<time>2016-10-07T05:42:45Z</time></trkpt>
<trkpt lat="25.446816" lon="100.397824">
<time>2016-10-07T05:42:46Z</time></trkpt>
<trkpt lat="25.446626" lon="100.397744">
<time>2016-10-07T05:42:47Z</time></trkpt>
<trkpt lat="25.446456" lon="100.397654">
<time>2016-10-07T05:42:48Z</time></trkpt>
<trkpt lat="25.446266" lon="100.397554">
<time>2016-10-07T05:42:49Z</time></trkpt>
<trkpt lat="25.446096" lon="100.397474">
<time>2016-10-07T05:42:50Z</time></trkpt>
<trkpt lat="25.445956" lon="100.397405">
<time>2016-10-07T05:42:51Z</time></trkpt>
<trkpt lat="25.445806" lon="100.397365">
<time>2016-10-07T05:42:52Z</time></trkpt>
<trkpt lat="25.445666" lon="100.397355">
<time>2016-10-07T05:42:53Z</time></trkpt>
<trkpt lat="25.445516" lon="100.397345">
<time>2016-10-07T05:42:54Z</time></trkpt>
<trkpt lat="25.445356" lon="100.397355">
<time>2016-10-07T05:42:55Z</time></trkpt>
<trkpt lat="25.445176" lon="100.397375">
<time>2016-10-07T05:42:56Z</time></trkpt>
<trkpt lat="25.444966" lon="100.397415">
<time>2016-10-07T05:42:57Z</time></trkpt>
<trkpt lat="25.444786" lon="100.397455">
<time>2016-10-07T05:42:58Z</time></trkpt>
<trkpt lat="25.444586" lon="100.397485">
<time>2016-10-07T05:42:59Z</time></trkpt>
<trkpt lat="25.444376" lon="100.397475">
<time>2016-10-07T05:43:00Z</time></trkpt>
<trkpt lat="25.444216" lon="100.397465">
<time>2016-10-07T05:43:01Z</time></trkpt>
<trkpt lat="25.444096" lon="100.397445">
<time>2016-10-07T05:43:02Z</time></trkpt>
<trkpt lat="25.443986" lon="100.397395">
<time>2016-10-07T05:43:03Z</time></trkpt>
<trkpt lat="25.443886" lon="100.397295">
<time>2016-10-07T05:43:04Z</time></trkpt>
<trkpt lat="25.443806" lon="100.397175">
<time>2016-10-07T05:43:05Z</time></trkpt>
<trkpt lat="25.443686" lon="100.397015">
<time>2016-10-07T05:43:06Z</time></trkpt>
<trkpt lat="25.443586" lon="100.396855">
<time>2016-10-07T05:43:07Z</time></trkpt>
<trkpt lat="25.443476" lon="100.396695">
<time>2016-10-07T05:43:08Z</time></trkpt>
<trkpt lat="25.443356" lon="100.396555">
<time>2016-10-07T05:43:09Z</time></trkpt>
<trkpt lat="25.443246" lon="100.396455">
<time>2016-10-07T05:43:10Z</time></trkpt>
<trkpt lat="25.443145" lon="100.396435">
<time>2016-10-07T05:43:11Z</time></trkpt>
<trkpt lat="25.443065" lon="100.396445">
<time>2016-10-07T05:43:12Z</time></trkpt>
<trkpt lat="25.442965" lon="100.396635">
<time>2016-10-07T05:43:13Z</time></trkpt>
<trkpt lat="25.442875" lon="100.396855">
<time>2016-10-07T05:43:14Z</time></trkpt>
<trkpt lat="25.442835" lon="100.397045">
<time>2016-10-07T05:43:15Z</time></trkpt>
<trkpt lat="25.442795" lon="100.397205">
<time>2016-10-07T05:43:16Z</time></trkpt>
<trkpt lat="25.442705" lon="100.397345">
<time>2016-10-07T05:43:17Z</time></trkpt>
<trkpt lat="25.442565" lon="100.397445">
<time>2016-10-07T05:43:18Z</time></trkpt>
<trkpt lat="25.442415" lon="100.397485">
<time>2016-10-07T05:43:19Z</time></trkpt>
<trkpt lat="25.442215" lon="100.397465">
<time>2016-10-07T05:43:20Z</time></trkpt>
<trkpt lat="25.442035" lon="100.397435">
<time>2016-10-07T05:43:21Z</time></trkpt>
<trkpt lat="25.441855" lon="100.397415">
<time>2016-10-07T05:43:22Z</time></trkpt>
<trkpt lat="25.441655" lon="100.397385">
<time>2016-10-07T05:43:23Z</time></trkpt>
<trkpt lat="25.441425" lon="100.397345">
<time>2016-10-07T05:43:24Z</time></trkpt>
<trkpt lat="25.441255" lon="100.397295">
<time>2016-10-07T05:43:25Z</time></trkpt>
<trkpt lat="25.441085" lon="100.397235">
<time>2016-10-07T05:43:26Z</time></trkpt>
<trkpt lat="25.440945" lon="100.397155">
<time>2016-10-07T05:43:27Z</time></trkpt>
<trkpt lat="25.440845" lon="100.397025">
<time>2016-10-07T05:43:28Z</time></trkpt>
<trkpt lat="25.440785" lon="100.396835">
<time>2016-10-07T05:43:29Z</time></trkpt>
<trkpt lat="25.440745" lon="100.396625">
<time>2016-10-07T05:43:30Z</time></trkpt>
<trkpt lat="25.440725" lon="100.396395">
<time>2016-10-07T05:43:31Z</time></trkpt>
<trkpt lat="25.440735" lon="100.396175">
<time>2016-10-07T05:43:32Z</time></trkpt>
<trkpt lat="25.440775" lon="100.395955">
<time>2016-10-07T05:43:33Z</time></trkpt>
<trkpt lat="25.440845" lon="100.395765">
<time>2016-10-07T05:43:34Z</time></trkpt>
<trkpt lat="25.440945" lon="100.395565">
<time>2016-10-07T05:43:35Z</time></trkpt>
<trkpt lat="25.441055" lon="100.395375">
<time>2016-10-07T05:43:36Z</time></trkpt>
<trkpt lat="25.441175" lon="100.395155">
<time>2016-10-07T05:43:37Z</time></trkpt>
<trkpt lat="25.441305" lon="100.394976">
<time>2016-10-07T05:43:38Z</time></trkpt>
<trkpt lat="25.441455" lon="100.394786">
<time>2016-10-07T05:43:39Z</time></trkpt>
<trkpt lat="25.441576" lon="100.394586">
<time>2016-10-07T05:43:40Z</time></trkpt>
<trkpt lat="25.441696" lon="100.394406">
<time>2016-10-07T05:43:41Z</time></trkpt>
<trkpt lat="25.441836" lon="100.394186">
<time>2016-10-07T05:43:42Z</time></trkpt>
<trkpt lat="25.441956" lon="100.393956">
<time>2016-10-07T05:43:43Z</time></trkpt>
<trkpt lat="25.442016" lon="100.393716">
<time>2016-10-07T05:43:44Z</time></trkpt>
<trkpt lat="25.442076" lon="100.393486">
<time>2016-10-07T05:43:45Z</time></trkpt>
<trkpt lat="25.442106" lon="100.393276">
<time>2016-10-07T05:43:46Z</time></trkpt>
<trkpt lat="25.442106" lon="100.393086">
<time>2016-10-07T05:43:47Z</time></trkpt>
<trkpt lat="25.442076" lon="100.392887">
<time>2016-10-07T05:43:48Z</time></trkpt>
<trkpt lat="25.442026" lon="100.392727">
<time>2016-10-07T05:43:49Z</time></trkpt>
<trkpt lat="25.441946" lon="100.392587">
<time>2016-10-07T05:43:50Z</time></trkpt>
<trkpt lat="25.441826" lon="100.392497">
<time>2016-10-07T05:43:51Z</time></trkpt>
<trkpt lat="25.441736" lon="100.392477">
<time>2016-10-07T05:43:52Z</time></trkpt>
<trkpt lat="25.441586" lon="100.392527">
<time>2016-10-07T05:43:53Z</time></trkpt>
<trkpt lat="25.441486" lon="100.392597">
<time>2016-10-07T05:43:54Z</time></trkpt>
<trkpt lat="25.441376" lon="100.392707">
<time>2016-10-07T05:43:55Z</time></trkpt>
<trkpt lat="25.441256" lon="100.392817">
<time>2016-10-07T05:43:56Z</time></trkpt>
<trkpt lat="25.441106" lon="100.392927">
<time>2016-10-07T05:43:57Z</time></trkpt>
<trkpt lat="25.440946" lon="100.392997">
<time>2016-10-07T05:43:58Z</time></trkpt>
<trkpt lat="25.440776" lon="100.393057">
<time>2016-10-07T05:43:59Z</time></trkpt>
<trkpt lat="25.440626" lon="100.393106">
<time>2016-10-07T05:44:00Z</time></trkpt>
<trkpt lat="25.440476" lon="100.393166">
<time>2016-10-07T05:44:01Z</time></trkpt>
<trkpt lat="25.440336" lon="100.393186">
<time>2016-10-07T05:44:02Z</time></trkpt>
<trkpt lat="25.440176" lon="100.393146">
<time>2016-10-07T05:44:03Z</time></trkpt>
<trkpt lat="25.440036" lon="100.393047">
<time>2016-10-07T05:44:04Z</time></trkpt>
<trkpt lat="25.439896" lon="100.392947">
<time>2016-10-07T05:44:05Z</time></trkpt>
<trkpt lat="25.439776" lon="100.392727">
<time>2016-10-07T05:44:06Z</time></trkpt>
<trkpt lat="25.439686" lon="100.392597">
<time>2016-10-07T05:44:07Z</time></trkpt>
<trkpt lat="25.439606" lon="100.392467">
<time>2016-10-07T05:44:08Z</time></trkpt>
<trkpt lat="25.439536" lon="100.392327">
<time>2016-10-07T05:44:09Z</time></trkpt>
<trkpt lat="25.439446" lon="100.392197">
<time>2016-10-07T05:44:10Z</time></trkpt>
<trkpt lat="25.439346" lon="100.392107">
<time>2016-10-07T05:44:11Z</time></trkpt>
<trkpt lat="25.439226" lon="100.392047">
<time>2016-10-07T05:44:12Z</time></trkpt>
<trkpt lat="25.439116" lon="100.392017">
<time>2016-10-07T05:44:13Z</time></trkpt>
<trkpt lat="25.438996" lon="100.392017">
<time>2016-10-07T05:44:14Z</time></trkpt>
<trkpt lat="25.438866" lon="100.391987">
<time>2016-10-07T05:44:15Z</time></trkpt>
<trkpt lat="25.438716" lon="100.391947">
<time>2016-10-07T05:44:16Z</time></trkpt>
<trkpt lat="25.438566" lon="100.391907">
<time>2016-10-07T05:44:17Z</time></trkpt>
<trkpt lat="25.438396" lon="100.391837">
<time>2016-10-07T05:44:18Z</time></trkpt>
<trkpt lat="25.438246" lon="100.391747">
<time>2016-10-07T05:44:19Z</time></trkpt>
<trkpt lat="25.438116" lon="100.391617">
<time>2016-10-07T05:44:20Z</time></trkpt>
<trkpt lat="25.438006" lon="100.391467">
<time>2016-10-07T05:44:21Z</time></trkpt>
<trkpt lat="25.437936" lon="100.391298">
<time>2016-10-07T05:44:22Z</time></trkpt>
<trkpt lat="25.437916" lon="100.391098">
<time>2016-10-07T05:44:23Z</time></trkpt>
<trkpt lat="25.437936" lon="100.390878">
<time>2016-10-07T05:44:24Z</time></trkpt>
<trkpt lat="25.437976" lon="100.390648">
<time>2016-10-07T05:44:25Z</time></trkpt>
<trkpt lat="25.438016" lon="100.390418">
<time>2016-10-07T05:44:26Z</time></trkpt>
<trkpt lat="25.438036" lon="100.390198">
<time>2016-10-07T05:44:27Z</time></trkpt>
<trkpt lat="25.438006" lon="100.389978">
<time>2016-10-07T05:44:28Z</time></trkpt>
<trkpt lat="25.437916" lon="100.389789">
<time>2016-10-07T05:44:29Z</time></trkpt>
<trkpt lat="25.437777" lon="100.389639">
<time>2016-10-07T05:44:30Z</time></trkpt>
<trkpt lat="25.437597" lon="100.389539">
<time>2016-10-07T05:44:31Z</time></trkpt>
<trkpt lat="25.437437" lon="100.389469">
<time>2016-10-07T05:44:32Z</time></trkpt>
<trkpt lat="25.437267" lon="100.389379">
<time>2016-10-07T05:44:33Z</time></trkpt>
<trkpt lat="25.437107" lon="100.389279">
<time>2016-10-07T05:44:34Z</time></trkpt>
<trkpt lat="25.436937" lon="100.389199">
<time>2016-10-07T05:44:35Z</time></trkpt>
<trkpt lat="25.436777" lon="100.389139">
<time>2016-10-07T05:44:36Z</time></trkpt>
<trkpt lat="25.436606" lon="100.389109">
<time>2016-10-07T05:44:37Z</time></trkpt>
<trkpt lat="25.436446" lon="100.389079">
<time>2016-10-07T05:44:38Z</time></trkpt>
<trkpt lat="25.436286" lon="100.389079">
<time>2016-10-07T05:44:39Z</time></trkpt>
<trkpt lat="25.436136" lon="100.389049">
<time>2016-10-07T05:44:40Z</time></trkpt>
<trkpt lat="25.436016" lon="100.388949">
<time>2016-10-07T05:44:41Z</time></trkpt>
<trkpt lat="25.435947" lon="100.388789">
<time>2016-10-07T05:44:42Z</time></trkpt>
<trkpt lat="25.435947" lon="100.388569">
<time>2016-10-07T05:44:43Z</time></trkpt>
<trkpt lat="25.435957" lon="100.3884">
<time>2016-10-07T05:44:44Z</time></trkpt>
<trkpt lat="25.435987" lon="100.3882">
<time>2016-10-07T05:44:45Z</time></trkpt>
<trkpt lat="25.436027" lon="100.38797">
<time>2016-10-07T05:44:46Z</time></trkpt>
<trkpt lat="25.436047" lon="100.3879">
<time>2016-10-07T05:44:47Z</time></trkpt>
<trkpt lat="25.436087" lon="100.38774">
<time>2016-10-07T05:44:48Z</time></trkpt>
<trkpt lat="25.436147" lon="100.38748">
<time>2016-10-07T05:44:49Z</time></trkpt>
<trkpt lat="25.436227" lon="100.38722">
<time>2016-10-07T05:44:50Z</time></trkpt>
<trkpt lat="25.436308" lon="100.387001">
<time>2016-10-07T05:44:51Z</time></trkpt>
<trkpt lat="25.436348" lon="100.386771">
<time>2016-10-07T05:44:52Z</time></trkpt>
<trkpt lat="25.436318" lon="100.386561">
<time>2016-10-07T05:44:53Z</time></trkpt>
<trkpt lat="25.436228" lon="100.386451">
<time>2016-10-07T05:44:54Z</time></trkpt>
<trkpt lat="25.436098" lon="100.386381">
<time>2016-10-07T05:44:55Z</time></trkpt>
<trkpt lat="25.435948" lon="100.386401">
<time>2016-10-07T05:44:56Z</time></trkpt>
<trkpt lat="25.435808" lon="100.386461">
<time>2016-10-07T05:44:57Z</time></trkpt>
<trkpt lat="25.435678" lon="100.386521">
<time>2016-10-07T05:44:58Z</time></trkpt>
<trkpt lat="25.435548" lon="100.386611">
<time>2016-10-07T05:44:59Z</time></trkpt>
<trkpt lat="25.435398" lon="100.386741">
<time>2016-10-07T05:45:00Z</time></trkpt>
<trkpt lat="25.435217" lon="100.386911">
<time>2016-10-07T05:45:01Z</time></trkpt>
<trkpt lat="25.435047" lon="100.387071">
<time>2016-10-07T05:45:02Z</time></trkpt>
<trkpt lat="25.434947" lon="100.387171">
<time>2016-10-07T05:45:03Z</time></trkpt>
<trkpt lat="25.434887" lon="100.38723">
<time>2016-10-07T05:45:04Z</time></trkpt>
<trkpt lat="25.434717" lon="100.38739">
<time>2016-10-07T05:45:05Z</time></trkpt>
<trkpt lat="25.434547" lon="100.38756">
<time>2016-10-07T05:45:06Z</time></trkpt>
<trkpt lat="25.434357" lon="100.38772">
<time>2016-10-07T05:45:07Z</time></trkpt>
<trkpt lat="25.434177" lon="100.3879">
<time>2016-10-07T05:45:08Z</time></trkpt>
<trkpt lat="25.434006" lon="100.38808">
<time>2016-10-07T05:45:09Z</time></trkpt>
<trkpt lat="25.433856" lon="100.38827">
<time>2016-10-07T05:45:10Z</time></trkpt>
<trkpt lat="25.433686" lon="100.38843">
<time>2016-10-07T05:45:11Z</time></trkpt>
<trkpt lat="25.433536" lon="100.388589">
<time>2016-10-07T05:45:12Z</time></trkpt>
<trkpt lat="25.433376" lon="100.388689">
<time>2016-10-07T05:45:13Z</time></trkpt>
<trkpt lat="25.433236" lon="100.388729">
<time>2016-10-07T05:45:14Z</time></trkpt>
<trkpt lat="25.433066" lon="100.388689">
<time>2016-10-07T05:45:15Z</time></trkpt>
<trkpt lat="25.432976" lon="100.38856">
<time>2016-10-07T05:45:16Z</time></trkpt>
<trkpt lat="25.432946" lon="100.38841">
<time>2016-10-07T05:45:17Z</time></trkpt>
<trkpt lat="25.432936" lon="100.38824">
<time>2016-10-07T05:45:18Z</time></trkpt>
<trkpt lat="25.432936" lon="100.38804">
<time>2016-10-07T05:45:19Z</time></trkpt>
<trkpt lat="25.432956" lon="100.38783">
<time>2016-10-07T05:45:20Z</time></trkpt>
<trkpt lat="25.433016" lon="100.38762">
<time>2016-10-07T05:45:21Z</time></trkpt>
<trkpt lat="25.433077" lon="100.38742">
<time>2016-10-07T05:45:22Z</time></trkpt>
<trkpt lat="25.433137" lon="100.387211">
<time>2016-10-07T05:45:23Z</time></trkpt>
<trkpt lat="25.433197" lon="100.387001">
<time>2016-10-07T05:45:24Z</time></trkpt>
<trkpt lat="25.433257" lon="100.386821">
<time>2016-10-07T05:45:25Z</time></trkpt>
<trkpt lat="25.433297" lon="100.386661">
<time>2016-10-07T05:45:26Z</time></trkpt>
<trkpt lat="25.433357" lon="100.386491">
<time>2016-10-07T05:45:27Z</time></trkpt>
<trkpt lat="25.433407" lon="100.386311">
<time>2016-10-07T05:45:28Z</time></trkpt>
<trkpt lat="25.433457" lon="100.386131">
<time>2016-10-07T05:45:29Z</time></trkpt>
<trkpt lat="25.433508" lon="100.385942">
<time>2016-10-07T05:45:30Z</time></trkpt>
<trkpt lat="25.433548" lon="100.385762">
<time>2016-10-07T05:45:31Z</time></trkpt>
<trkpt lat="25.433588" lon="100.385582">
<time>2016-10-07T05:45:32Z</time></trkpt>
<trkpt lat="25.433618" lon="100.385402">
<time>2016-10-07T05:45:33Z</time></trkpt>
<trkpt lat="25.433638" lon="100.385232">
<time>2016-10-07T05:45:34Z</time></trkpt>
<trkpt lat="25.433608" lon="100.385062">
<time>2016-10-07T05:45:35Z</time></trkpt>
<trkpt lat="25.433548" lon="100.384912">
<time>2016-10-07T05:45:36Z</time></trkpt>
<trkpt lat="25.433428" lon="100.384853">
<time>2016-10-07T05:45:37Z</time></trkpt>
<trkpt lat="25.433338" lon="100.384733">
<time>2016-10-07T05:45:38Z</time></trkpt>
<trkpt lat="25.433278" lon="100.384593">
<time>2016-10-07T05:45:39Z</time></trkpt>
<trkpt lat="25.433269" lon="100.384433">
<time>2016-10-07T05:45:40Z</time></trkpt>
<trkpt lat="25.433269" lon="100.384323">
<time>2016-10-07T05:45:41Z</time></trkpt>
<trkpt lat="25.433169" lon="100.384183">
<time>2016-10-07T05:45:42Z</time></trkpt>
<trkpt lat="25.433109" lon="100.384163">
<time>2016-10-07T05:45:43Z</time></trkpt>
<trkpt lat="25.433029" lon="100.384143">
<time>2016-10-07T05:45:44Z</time></trkpt>
<trkpt lat="25.432859" lon="100.384183">
<time>2016-10-07T05:45:45Z</time></trkpt>
<trkpt lat="25.432718" lon="100.384293">
<time>2016-10-07T05:45:46Z</time></trkpt>
<trkpt lat="25.432578" lon="100.384433">
<time>2016-10-07T05:45:47Z</time></trkpt>
<trkpt lat="25.432448" lon="100.384573">
<time>2016-10-07T05:45:48Z</time></trkpt>
<trkpt lat="25.432288" lon="100.384703">
<time>2016-10-07T05:45:49Z</time></trkpt>
<trkpt lat="25.432108" lon="100.384823">
<time>2016-10-07T05:45:50Z</time></trkpt>
<trkpt lat="25.431928" lon="100.384922">
<time>2016-10-07T05:45:51Z</time></trkpt>
<trkpt lat="25.431748" lon="100.385042">
<time>2016-10-07T05:45:52Z</time></trkpt>
<trkpt lat="25.431578" lon="100.385142">
<time>2016-10-07T05:45:53Z</time></trkpt>
<trkpt lat="25.431408" lon="100.385212">
<time>2016-10-07T05:45:54Z</time></trkpt>
<trkpt lat="25.431238" lon="100.385192">
<time>2016-10-07T05:45:55Z</time></trkpt>
<trkpt lat="25.431068" lon="100.385102">
<time>2016-10-07T05:45:56Z</time></trkpt>
<trkpt lat="25.430958" lon="100.384982">
<time>2016-10-07T05:45:57Z</time></trkpt>
<trkpt lat="25.430878" lon="100.384813">
<time>2016-10-07T05:45:58Z</time></trkpt>
<trkpt lat="25.430838" lon="100.384643">
<time>2016-10-07T05:45:59Z</time></trkpt>
<trkpt lat="25.430838" lon="100.384463">
<time>2016-10-07T05:46:00Z</time></trkpt>
<trkpt lat="25.430878" lon="100.384323">
<time>2016-10-07T05:46:01Z</time></trkpt>
<trkpt lat="25.430928" lon="100.384183">
<time>2016-10-07T05:46:02Z</time></trkpt>
<trkpt lat="25.430978" lon="100.384063">
<time>2016-10-07T05:46:03Z</time></trkpt>
<trkpt lat="25.431028" lon="100.383923">
<time>2016-10-07T05:46:04Z</time></trkpt>
<trkpt lat="25.431068" lon="100.383784">
<time>2016-10-07T05:46:05Z</time></trkpt>
<trkpt lat="25.431099" lon="100.383654">
<time>2016-10-07T05:46:06Z</time></trkpt>
<trkpt lat="25.431119" lon="100.383574">
<time>2016-10-07T05:46:07Z</time></trkpt>
<trkpt lat="25.431149" lon="100.383464">
<time>2016-10-07T05:46:08Z</time></trkpt>
<trkpt lat="25.431139" lon="100.383334">
<time>2016-10-07T05:46:09Z</time></trkpt>
<trkpt lat="25.431089" lon="100.383224">
<time>2016-10-07T05:46:10Z</time></trkpt>
<trkpt lat="25.430979" lon="100.383134">
<time>2016-10-07T05:46:11Z</time></trkpt>
<trkpt lat="25.430849" lon="100.383124">
<time>2016-10-07T05:46:12Z</time></trkpt>
<trkpt lat="25.430689" lon="100.383174">
<time>2016-10-07T05:46:13Z</time></trkpt>
<trkpt lat="25.430539" lon="100.383254">
<time>2016-10-07T05:46:14Z</time></trkpt>
<trkpt lat="25.430389" lon="100.383344">
<time>2016-10-07T05:46:15Z</time></trkpt>
<trkpt lat="25.430239" lon="100.383434">
<time>2016-10-07T05:46:16Z</time></trkpt>
<trkpt lat="25.430088" lon="100.383524">
<time>2016-10-07T05:46:17Z</time></trkpt>
<trkpt lat="25.429928" lon="100.383594">
<time>2016-10-07T05:46:18Z</time></trkpt>
<trkpt lat="25.429758" lon="100.383654">
<time>2016-10-07T05:46:19Z</time></trkpt>
<trkpt lat="25.429588" lon="100.383684">
<time>2016-10-07T05:46:20Z</time></trkpt>
<trkpt lat="25.429418" lon="100.383694">
<time>2016-10-07T05:46:21Z</time></trkpt>
<trkpt lat="25.429268" lon="100.383704">
<time>2016-10-07T05:46:22Z</time></trkpt>
<trkpt lat="25.429068" lon="100.383684">
<time>2016-10-07T05:46:23Z</time></trkpt>
<trkpt lat="25.428918" lon="100.383654">
<time>2016-10-07T05:46:24Z</time></trkpt>
<trkpt lat="25.428748" lon="100.383674">
<time>2016-10-07T05:46:25Z</time></trkpt>
<trkpt lat="25.428638" lon="100.383684">
<time>2016-10-07T05:46:26Z</time></trkpt>
<trkpt lat="25.428528" lon="100.383704">
<time>2016-10-07T05:46:27Z</time></trkpt>
<trkpt lat="25.428428" lon="100.383744">
<time>2016-10-07T05:46:28Z</time></trkpt>
<trkpt lat="25.428328" lon="100.383784">
<time>2016-10-07T05:46:29Z</time></trkpt>
<trkpt lat="25.428218" lon="100.383824">
<time>2016-10-07T05:46:30Z</time></trkpt>
<trkpt lat="25.428118" lon="100.383854">
<time>2016-10-07T05:46:31Z</time></trkpt>
<trkpt lat="25.428018" lon="100.383874">
<time>2016-10-07T05:46:32Z</time></trkpt>
<trkpt lat="25.427918" lon="100.383884">
<time>2016-10-07T05:46:33Z</time></trkpt>
<trkpt lat="25.427838" lon="100.383854">
<time>2016-10-07T05:46:34Z</time></trkpt>
<trkpt lat="25.427768" lon="100.383814">
<time>2016-10-07T05:46:35Z</time></trkpt>
<trkpt lat="25.427698" lon="100.383754">
<time>2016-10-07T05:46:36Z</time></trkpt>
<trkpt lat="25.427648" lon="100.383664">
<time>2016-10-07T05:46:37Z</time></trkpt>
<trkpt lat="25.427618" lon="100.383504">
<time>2016-10-07T05:46:38Z</time></trkpt>
<trkpt lat="25.427678" lon="100.383364">
<time>2016-10-07T05:46:39Z</time></trkpt>
<trkpt lat="25.427718" lon="100.383294">
<time>2016-10-07T05:46:40Z</time></trkpt>
<trkpt lat="25.427798" lon="100.383204">
<time>2016-10-07T05:46:41Z</time></trkpt>
<trkpt lat="25.427908" lon="100.383104">
<time>2016-10-07T05:46:42Z</time></trkpt>
<trkpt lat="25.428008" lon="100.383014">
<time>2016-10-07T05:46:43Z</time></trkpt>
<trkpt lat="25.428118" lon="100.382924">
<time>2016-10-07T05:46:44Z</time></trkpt>
<trkpt lat="25.428219" lon="100.382805">
<time>2016-10-07T05:46:45Z</time></trkpt>
<trkpt lat="25.428349" lon="100.382705">
<time>2016-10-07T05:46:46Z</time></trkpt>
<trkpt lat="25.428479" lon="100.382605">
<time>2016-10-07T05:46:47Z</time></trkpt>
<trkpt lat="25.428599" lon="100.382475">
<time>2016-10-07T05:46:48Z</time></trkpt>
<trkpt lat="25.428719" lon="100.382355">
<time>2016-10-07T05:46:49Z</time></trkpt>
<trkpt lat="25.428829" lon="100.382235">
<time>2016-10-07T05:46:50Z</time></trkpt>
<trkpt lat="25.428899" lon="100.382115">
<time>2016-10-07T05:46:51Z</time></trkpt>
<trkpt lat="25.428999" lon="100.382005">
<time>2016-10-07T05:46:52Z</time></trkpt>
<trkpt lat="25.429079" lon="100.381875">
<time>2016-10-07T05:46:53Z</time></trkpt>
<trkpt lat="25.42919" lon="100.381776">
<time>2016-10-07T05:46:54Z</time></trkpt>
<trkpt lat="25.42931" lon="100.381666">
<time>2016-10-07T05:46:55Z</time></trkpt>
<trkpt lat="25.42944" lon="100.381556">
<time>2016-10-07T05:46:56Z</time></trkpt>
<trkpt lat="25.42959" lon="100.381446">
<time>2016-10-07T05:46:57Z</time></trkpt>
<trkpt lat="25.42973" lon="100.381326">
<time>2016-10-07T05:46:58Z</time></trkpt>
<trkpt lat="25.42986" lon="100.381186">
<time>2016-10-07T05:46:59Z</time></trkpt>
<trkpt lat="25.42998" lon="100.381036">
<time>2016-10-07T05:47:00Z</time></trkpt>
<trkpt lat="25.4301" lon="100.380876">
<time>2016-10-07T05:47:01Z</time></trkpt>
<trkpt lat="25.430231" lon="100.380717">
<time>2016-10-07T05:47:02Z</time></trkpt>
<trkpt lat="25.430381" lon="100.380587">
<time>2016-10-07T05:47:03Z</time></trkpt>
<trkpt lat="25.430551" lon="100.380487">
<time>2016-10-07T05:47:04Z</time></trkpt>
<trkpt lat="25.430721" lon="100.380397">
<time>2016-10-07T05:47:05Z</time></trkpt>
<trkpt lat="25.430791" lon="100.380377">
<time>2016-10-07T05:47:06Z</time></trkpt>
<trkpt lat="25.430901" lon="100.380327">
<time>2016-10-07T05:47:07Z</time></trkpt>
<trkpt lat="25.431081" lon="100.380267">
<time>2016-10-07T05:47:08Z</time></trkpt>
<trkpt lat="25.431251" lon="100.380187">
<time>2016-10-07T05:47:09Z</time></trkpt>
<trkpt lat="25.431421" lon="100.380097">
<time>2016-10-07T05:47:10Z</time></trkpt>
<trkpt lat="25.431572" lon="100.380007">
<time>2016-10-07T05:47:11Z</time></trkpt>
<trkpt lat="25.431722" lon="100.379877">
<time>2016-10-07T05:47:12Z</time></trkpt>
<trkpt lat="25.431862" lon="100.379758">
<time>2016-10-07T05:47:13Z</time></trkpt>
<trkpt lat="25.431872" lon="100.379748">
<time>2016-10-07T05:47:14Z</time></trkpt>
<trkpt lat="25.432022" lon="100.379618">
<time>2016-10-07T05:47:15Z</time></trkpt>
<trkpt lat="25.432142" lon="100.379518">
<time>2016-10-07T05:47:16Z</time></trkpt>
<trkpt lat="25.432262" lon="100.379428">
<time>2016-10-07T05:47:17Z</time></trkpt>
<trkpt lat="25.432372" lon="100.379318">
<time>2016-10-07T05:47:18Z</time></trkpt>
<trkpt lat="25.432492" lon="100.379228">
<time>2016-10-07T05:47:19Z</time></trkpt>
<trkpt lat="25.432623" lon="100.379118">
<time>2016-10-07T05:47:20Z</time></trkpt>
<trkpt lat="25.432753" lon="100.379028">
<time>2016-10-07T05:47:21Z</time></trkpt>
<trkpt lat="25.432873" lon="100.378948">
<time>2016-10-07T05:47:22Z</time></trkpt>
<trkpt lat="25.432983" lon="100.378879">
<time>2016-10-07T05:47:23Z</time></trkpt>
<trkpt lat="25.433083" lon="100.378809">
<time>2016-10-07T05:47:24Z</time></trkpt>
<trkpt lat="25.433183" lon="100.378749">
<time>2016-10-07T05:47:25Z</time></trkpt>
<trkpt lat="25.433303" lon="100.378669">
<time>2016-10-07T05:47:26Z</time></trkpt>
<trkpt lat="25.433423" lon="100.378579">
<time>2016-10-07T05:47:27Z</time></trkpt>
<trkpt lat="25.433543" lon="100.378489">
<time>2016-10-07T05:47:28Z</time></trkpt>
<trkpt lat="25.433683" lon="100.378389">
<time>2016-10-07T05:47:29Z</time></trkpt>
<trkpt lat="25.433824" lon="100.378289">
<time>2016-10-07T05:47:30Z</time></trkpt>
<trkpt lat="25.433974" lon="100.378159">
<time>2016-10-07T05:47:31Z</time></trkpt>
<trkpt lat="25.434124" lon="100.378">
<time>2016-10-07T05:47:32Z</time></trkpt>
<trkpt lat="25.434294" lon="100.37784">
<time>2016-10-07T05:47:33Z</time></trkpt>
<trkpt lat="25.434474" lon="100.37768">
<time>2016-10-07T05:47:34Z</time></trkpt>
<trkpt lat="25.434665" lon="100.3775">
<time>2016-10-07T05:47:35Z</time></trkpt>
<trkpt lat="25.434845" lon="100.37729">
<time>2016-10-07T05:47:36Z</time></trkpt>
<trkpt lat="25.435045" lon="100.377101">
<time>2016-10-07T05:47:37Z</time></trkpt>
<trkpt lat="25.435265" lon="100.376931">
<time>2016-10-07T05:47:38Z</time></trkpt>
<trkpt lat="25.435455" lon="100.376751">
<time>2016-10-07T05:47:39Z</time></trkpt>
<trkpt lat="25.435666" lon="100.376551">
<time>2016-10-07T05:47:40Z</time></trkpt>
<trkpt lat="25.435846" lon="100.376312">
<time>2016-10-07T05:47:41Z</time></trkpt>
<trkpt lat="25.436006" lon="100.376112">
<time>2016-10-07T05:47:42Z</time></trkpt>
<trkpt lat="25.436186" lon="100.375942">
<time>2016-10-07T05:47:43Z</time></trkpt>
<trkpt lat="25.436327" lon="100.375742">
<time>2016-10-07T05:47:44Z</time></trkpt>
<trkpt lat="25.436457" lon="100.375552">
<time>2016-10-07T05:47:45Z</time></trkpt>
<trkpt lat="25.436567" lon="100.375373">
<time>2016-10-07T05:47:46Z</time></trkpt>
<trkpt lat="25.436667" lon="100.375193">
<time>2016-10-07T05:47:47Z</time></trkpt>
<trkpt lat="25.436777" lon="100.375053">
<time>2016-10-07T05:47:48Z</time></trkpt>
<trkpt lat="25.436807" lon="100.375023">
<time>2016-10-07T05:47:49Z</time></trkpt>
<trkpt lat="25.436918" lon="100.374963">
<time>2016-10-07T05:47:50Z</time></trkpt>
<trkpt lat="25.437078" lon="100.374953">
<time>2016-10-07T05:47:51Z</time></trkpt>
<trkpt lat="25.437218" lon="100.375023">
<time>2016-10-07T05:47:52Z</time></trkpt>
<trkpt lat="25.437358" lon="100.375093">
<time>2016-10-07T05:47:53Z</time></trkpt>
<trkpt lat="25.437497" lon="100.375183">
<time>2016-10-07T05:47:54Z</time></trkpt>
<trkpt lat="25.437637" lon="100.375263">
<time>2016-10-07T05:47:55Z</time></trkpt>
<trkpt lat="25.437787" lon="100.375343">
<time>2016-10-07T05:47:56Z</time></trkpt>
<trkpt lat="25.437937" lon="100.375393">
<time>2016-10-07T05:47:57Z</time></trkpt>
<trkpt lat="25.438077" lon="100.375413">
<time>2016-10-07T05:47:58Z</time></trkpt>
<trkpt lat="25.438207" lon="100.375393">
<time>2016-10-07T05:47:59Z</time></trkpt>
<trkpt lat="25.438317" lon="100.375353">
<time>2016-10-07T05:48:00Z</time></trkpt>
<trkpt lat="25.438428" lon="100.375273">
<time>2016-10-07T05:48:01Z</time></trkpt>
<trkpt lat="25.438578" lon="100.375193">
<time>2016-10-07T05:48:02Z</time></trkpt>
<trkpt lat="25.438688" lon="100.375103">
<time>2016-10-07T05:48:03Z</time></trkpt>
<trkpt lat="25.438798" lon="100.375023">
<time>2016-10-07T05:48:04Z</time></trkpt>
<trkpt lat="25.438898" lon="100.374953">
<time>2016-10-07T05:48:05Z</time></trkpt>
<trkpt lat="25.438998" lon="100.374893">
<time>2016-10-07T05:48:06Z</time></trkpt>
<trkpt lat="25.439078" lon="100.374833">
<time>2016-10-07T05:48:07Z</time></trkpt>
<trkpt lat="25.439178" lon="100.374763">
<time>2016-10-07T05:48:08Z</time></trkpt>
<trkpt lat="25.439278" lon="100.374683">
<time>2016-10-07T05:48:09Z</time></trkpt>
<trkpt lat="25.439379" lon="100.374594">
<time>2016-10-07T05:48:10Z</time></trkpt>
<trkpt lat="25.439469" lon="100.374484">
<time>2016-10-07T05:48:11Z</time></trkpt>
<trkpt lat="25.439529" lon="100.374364">
<time>2016-10-07T05:48:12Z</time></trkpt>
<trkpt lat="25.439579" lon="100.374234">
<time>2016-10-07T05:48:13Z</time></trkpt>
<trkpt lat="25.439629" lon="100.374104">
<time>2016-10-07T05:48:14Z</time></trkpt>
<trkpt lat="25.439689" lon="100.373964">
<time>2016-10-07T05:48:15Z</time></trkpt>
<trkpt lat="25.439759" lon="100.373835">
<time>2016-10-07T05:48:16Z</time></trkpt>
<trkpt lat="25.43984" lon="100.373695">
<time>2016-10-07T05:48:17Z</time></trkpt>
<trkpt lat="25.43993" lon="100.373525">
<time>2016-10-07T05:48:18Z</time></trkpt>
<trkpt lat="25.44004" lon="100.373415">
<time>2016-10-07T05:48:19Z</time></trkpt>
<trkpt lat="25.44018" lon="100.373315">
<time>2016-10-07T05:48:20Z</time></trkpt>
<trkpt lat="25.44033" lon="100.373165">
<time>2016-10-07T05:48:21Z</time></trkpt>
<trkpt lat="25.44047" lon="100.373056">
<time>2016-10-07T05:48:22Z</time></trkpt>
<trkpt lat="25.440631" lon="100.372936">
<time>2016-10-07T05:48:23Z</time></trkpt>
<trkpt lat="25.440741" lon="100.372826">
<time>2016-10-07T05:48:24Z</time></trkpt>
<trkpt lat="25.440841" lon="100.372696">
<time>2016-10-07T05:48:25Z</time></trkpt>
<trkpt lat="25.440931" lon="100.372606">
<time>2016-10-07T05:48:26Z</time></trkpt>
<trkpt lat="25.441031" lon="100.372506">
<time>2016-10-07T05:48:27Z</time></trkpt>
<trkpt lat="25.441151" lon="100.372426">
<time>2016-10-07T05:48:28Z</time></trkpt>
<trkpt lat="25.441261" lon="100.372337">
<time>2016-10-07T05:48:29Z</time></trkpt>
<trkpt lat="25.441352" lon="100.372237">
<time>2016-10-07T05:48:30Z</time></trkpt>
<trkpt lat="25.441432" lon="100.372147">
<time>2016-10-07T05:48:31Z</time></trkpt>
<trkpt lat="25.441492" lon="100.372057">
<time>2016-10-07T05:48:32Z</time></trkpt>
<trkpt lat="25.441552" lon="100.371977">
<time>2016-10-07T05:48:33Z</time></trkpt>
<trkpt lat="25.441632" lon="100.371897">
<time>2016-10-07T05:48:34Z</time></trkpt>
<trkpt lat="25.441722" lon="100.371787">
<time>2016-10-07T05:48:35Z</time></trkpt>
<trkpt lat="25.441822" lon="100.371677">
<time>2016-10-07T05:48:36Z</time></trkpt>
<trkpt lat="25.441922" lon="100.371568">
<time>2016-10-07T05:48:37Z</time></trkpt>
<trkpt lat="25.441963" lon="100.371448">
<time>2016-10-07T05:48:38Z</time></trkpt>
<trkpt lat="25.441953" lon="100.371328">
<time>2016-10-07T05:48:39Z</time></trkpt>
<trkpt lat="25.441943" lon="100.371208">
<time>2016-10-07T05:48:40Z</time></trkpt>
<trkpt lat="25.441853" lon="100.371078">
<time>2016-10-07T05:48:41Z</time></trkpt>
<trkpt lat="25.441703" lon="100.371018">
<time>2016-10-07T05:48:42Z</time></trkpt>
<trkpt lat="25.441553" lon="100.371018">
<time>2016-10-07T05:48:43Z</time></trkpt>
<trkpt lat="25.441383" lon="100.371038">
<time>2016-10-07T05:48:44Z</time></trkpt>
<trkpt lat="25.441293" lon="100.371048">
<time>2016-10-07T05:48:45Z</time></trkpt>
<trkpt lat="25.441133" lon="100.371028">
<time>2016-10-07T05:48:46Z</time></trkpt>
<trkpt lat="25.440993" lon="100.371018">
<time>2016-10-07T05:48:47Z</time></trkpt>
<trkpt lat="25.440843" lon="100.371018">
<time>2016-10-07T05:48:48Z</time></trkpt>
<trkpt lat="25.440723" lon="100.371008">
<time>2016-10-07T05:48:49Z</time></trkpt>
<trkpt lat="25.440593" lon="100.371018">
<time>2016-10-07T05:48:50Z</time></trkpt>
<trkpt lat="25.440453" lon="100.370998">
<time>2016-10-07T05:48:51Z</time></trkpt>
<trkpt lat="25.440323" lon="100.370988">
<time>2016-10-07T05:48:52Z</time></trkpt>
<trkpt lat="25.440193" lon="100.370968">
<time>2016-10-07T05:48:53Z</time></trkpt>
<trkpt lat="25.440063" lon="100.370919">
<time>2016-10-07T05:48:54Z</time></trkpt>
<trkpt lat="25.439923" lon="100.370859">
<time>2016-10-07T05:48:55Z</time></trkpt>
<trkpt lat="25.439803" lon="100.370829">
<time>2016-10-07T05:48:56Z</time></trkpt>
<trkpt lat="25.439663" lon="100.370769">
<time>2016-10-07T05:48:57Z</time></trkpt>
<trkpt lat="25.439623" lon="100.370759">
<time>2016-10-07T05:48:58Z</time></trkpt>
<trkpt lat="25.439513" lon="100.370719">
<time>2016-10-07T05:48:59Z</time></trkpt>
<trkpt lat="25.439403" lon="100.370649">
<time>2016-10-07T05:49:00Z</time></trkpt>
<trkpt lat="25.439243" lon="100.370559">
<time>2016-10-07T05:49:01Z</time></trkpt>
<trkpt lat="25.439093" lon="100.370459">
<time>2016-10-07T05:49:02Z</time></trkpt>
<trkpt lat="25.438943" lon="100.370379">
<time>2016-10-07T05:49:03Z</time></trkpt>
<trkpt lat="25.438803" lon="100.370329">
<time>2016-10-07T05:49:04Z</time></trkpt>
<trkpt lat="25.438663" lon="100.37024">
<time>2016-10-07T05:49:05Z</time></trkpt>
<trkpt lat="25.438543" lon="100.37018">
<time>2016-10-07T05:49:06Z</time></trkpt>
<trkpt lat="25.438443" lon="100.37012">
<time>2016-10-07T05:49:07Z</time></trkpt>
<trkpt lat="25.438333" lon="100.37007">
<time>2016-10-07T05:49:08Z</time></trkpt>
<trkpt lat="25.438233" lon="100.37001">
<time>2016-10-07T05:49:09Z</time></trkpt>
<trkpt lat="25.438123" lon="100.36996">
<time>2016-10-07T05:49:10Z</time></trkpt>
<trkpt lat="25.438013" lon="100.36992">
<time>2016-10-07T05:49:11Z</time></trkpt>
<trkpt lat="25.437914" lon="100.36986">
<time>2016-10-07T05:49:12Z</time></trkpt>
<trkpt lat="25.437804" lon="100.36979">
<time>2016-10-07T05:49:13Z</time></trkpt>
<trkpt lat="25.437704" lon="100.36969">
<time>2016-10-07T05:49:14Z</time></trkpt>
<trkpt lat="25.437614" lon="100.369561">
<time>2016-10-07T05:49:15Z</time></trkpt>
<trkpt lat="25.437524" lon="100.369431">
<time>2016-10-07T05:49:16Z</time></trkpt>
<trkpt lat="25.437424" lon="100.369281">
<time>2016-10-07T05:49:17Z</time></trkpt>
<trkpt lat="25.437324" lon="100.369141">
<time>2016-10-07T05:49:18Z</time></trkpt>
<trkpt lat="25.437224" lon="100.369001">
<time>2016-10-07T05:49:19Z</time></trkpt>
<trkpt lat="25.437165" lon="100.368842">
<time>2016-10-07T05:49:20Z</time></trkpt>
<trkpt lat="25.437145" lon="100.368672">
<time>2016-10-07T05:49:21Z</time></trkpt>
<trkpt lat="25.437175" lon="100.368502">
<time>2016-10-07T05:49:22Z</time></trkpt>
<trkpt lat="25.437215" lon="100.368372">
<time>2016-10-07T05:49:23Z</time></trkpt>
<trkpt lat="25.437285" lon="100.368223">
<time>2016-10-07T05:49:24Z</time></trkpt>
<trkpt lat="25.437366" lon="100.368073">
<time>2016-10-07T05:49:25Z</time></trkpt>
<trkpt lat="25.437456" lon="100.367943">
<time>2016-10-07T05:49:26Z</time></trkpt>
<trkpt lat="25.437556" lon="100.367803">
<time>2016-10-07T05:49:27Z</time></trkpt>
<trkpt lat="25.437646" lon="100.367663">
<time>2016-10-07T05:49:28Z</time></trkpt>
<trkpt lat="25.437706" lon="100.367524">
<time>2016-10-07T05:49:29Z</time></trkpt>
<trkpt lat="25.437727" lon="100.367354">
<time>2016-10-07T05:49:30Z</time></trkpt>
<trkpt lat="25.437687" lon="100.367174">
<time>2016-10-07T05:49:31Z</time></trkpt>
<trkpt lat="25.437627" lon="100.367004">
<time>2016-10-07T05:49:32Z</time></trkpt>
<trkpt lat="25.437567" lon="100.366835">
<time>2016-10-07T05:49:33Z</time></trkpt>
<trkpt lat="25.437537" lon="100.366665">
<time>2016-10-07T05:49:34Z</time></trkpt>
<trkpt lat="25.437558" lon="100.366575">
<time>2016-10-07T05:49:35Z</time></trkpt>
<trkpt lat="25.437568" lon="100.366495">
<time>2016-10-07T05:49:36Z</time></trkpt>
<trkpt lat="25.437658" lon="100.366325">
<time>2016-10-07T05:49:37Z</time></trkpt>
<trkpt lat="25.437768" lon="100.366196">
<time>2016-10-07T05:49:38Z</time></trkpt>
<trkpt lat="25.437888" lon="100.366086">
<time>2016-10-07T05:49:39Z</time></trkpt>
<trkpt lat="25.438018" lon="100.365976">
<time>2016-10-07T05:49:40Z</time></trkpt>
<trkpt lat="25.438139" lon="100.365876">
<time>2016-10-07T05:49:41Z</time></trkpt>
<trkpt lat="25.438239" lon="100.365776">
<time>2016-10-07T05:49:42Z</time></trkpt>
<trkpt lat="25.438339" lon="100.365677">
<time>2016-10-07T05:49:43Z</time></trkpt>
<trkpt lat="25.438459" lon="100.365587">
<time>2016-10-07T05:49:44Z</time></trkpt>
<trkpt lat="25.438579" lon="100.365507">
<time>2016-10-07T05:49:45Z</time></trkpt>
<trkpt lat="25.438699" lon="100.365467">
<time>2016-10-07T05:49:46Z</time></trkpt>
<trkpt lat="25.438829" lon="100.365447">
<time>2016-10-07T05:49:47Z</time></trkpt>
<trkpt lat="25.438969" lon="100.365437">
<time>2016-10-07T05:49:48Z</time></trkpt>
<trkpt lat="25.439089" lon="100.365437">
<time>2016-10-07T05:49:49Z</time></trkpt>
<trkpt lat="25.439189" lon="100.365437">
<time>2016-10-07T05:49:50Z</time></trkpt>
<trkpt lat="25.43931" lon="100.365417">
<time>2016-10-07T05:49:51Z</time></trkpt>
<trkpt lat="25.43943" lon="100.365357">
<time>2016-10-07T05:49:52Z</time></trkpt>
<trkpt lat="25.43955" lon="100.365297">
<time>2016-10-07T05:49:53Z</time></trkpt>
<trkpt lat="25.43969" lon="100.365197">
<time>2016-10-07T05:49:54Z</time></trkpt>
<trkpt lat="25.43981" lon="100.365117">
<time>2016-10-07T05:49:55Z</time></trkpt>
<trkpt lat="25.43995" lon="100.365018">
<time>2016-10-07T05:49:56Z</time></trkpt>
<trkpt lat="25.44009" lon="100.364928">
<time>2016-10-07T05:49:57Z</time></trkpt>
<trkpt lat="25.440221" lon="100.364818">
<time>2016-10-07T05:49:58Z</time></trkpt>
<trkpt lat="25.440331" lon="100.364748">
<time>2016-10-07T05:49:59Z</time></trkpt>
<trkpt lat="25.440421" lon="100.364638">
<time>2016-10-07T05:50:00Z</time></trkpt>
<trkpt lat="25.440501" lon="100.364518">
<time>2016-10-07T05:50:01Z</time></trkpt>
<trkpt lat="25.440591" lon="100.364408">
<time>2016-10-07T05:50:02Z</time></trkpt>
<trkpt lat="25.440661" lon="100.364279">
<time>2016-10-07T05:50:03Z</time></trkpt>
<trkpt lat="25.440752" lon="100.364179">
<time>2016-10-07T05:50:04Z</time></trkpt>
<trkpt lat="25.440852" lon="100.364079">
<time>2016-10-07T05:50:05Z</time></trkpt>
<trkpt lat="25.440982" lon="100.364009">
<time>2016-10-07T05:50:06Z</time></trkpt>
<trkpt lat="25.441142" lon="100.363899">
<time>2016-10-07T05:50:07Z</time></trkpt>
<trkpt lat="25.441292" lon="100.363809">
<time>2016-10-07T05:50:08Z</time></trkpt>
<trkpt lat="25.441432" lon="100.36372">
<time>2016-10-07T05:50:09Z</time></trkpt>
<trkpt lat="25.441592" lon="100.36364">
<time>2016-10-07T05:50:10Z</time></trkpt>
<trkpt lat="25.441743" lon="100.36352">
<time>2016-10-07T05:50:11Z</time></trkpt>
<trkpt lat="25.441893" lon="100.36338">
<time>2016-10-07T05:50:12Z</time></trkpt>
<trkpt lat="25.442043" lon="100.36325">
<time>2016-10-07T05:50:13Z</time></trkpt>
<trkpt lat="25.442183" lon="100.363131">
<time>2016-10-07T05:50:14Z</time></trkpt>
<trkpt lat="25.442304" lon="100.362991">
<time>2016-10-07T05:50:15Z</time></trkpt>
<trkpt lat="25.442444" lon="100.362871">
<time>2016-10-07T05:50:16Z</time></trkpt>
<trkpt lat="25.442624" lon="100.362741">
<time>2016-10-07T05:50:17Z</time></trkpt>
<trkpt lat="25.442804" lon="100.362621">
<time>2016-10-07T05:50:18Z</time></trkpt>
<trkpt lat="25.442974" lon="100.362502">
<time>2016-10-07T05:50:19Z</time></trkpt>
<trkpt lat="25.443215" lon="100.362412">
<time>2016-10-07T05:50:20Z</time></trkpt>
<trkpt lat="25.443355" lon="100.362382">
<time>2016-10-07T05:50:21Z</time></trkpt>
<trkpt lat="25.443485" lon="100.362342">
<time>2016-10-07T05:50:22Z</time></trkpt>
<trkpt lat="25.443615" lon="100.362312">
<time>2016-10-07T05:50:23Z</time></trkpt>
<trkpt lat="25.443755" lon="100.362262">
<time>2016-10-07T05:50:24Z</time></trkpt>
<trkpt lat="25.443905" lon="100.362252">
<time>2016-10-07T05:50:25Z</time></trkpt>
<trkpt lat="25.444065" lon="100.362222">
<time>2016-10-07T05:50:26Z</time></trkpt>
<trkpt lat="25.444195" lon="100.362222">
<time>2016-10-07T05:50:27Z</time></trkpt>
<trkpt lat="25.444295" lon="100.362252">
<time>2016-10-07T05:50:28Z</time></trkpt>
<trkpt lat="25.444425" lon="100.362272">
<time>2016-10-07T05:50:29Z</time></trkpt>
<trkpt lat="25.444545" lon="100.362282">
<time>2016-10-07T05:50:30Z</time></trkpt>
<trkpt lat="25.444665" lon="100.362282">
<time>2016-10-07T05:50:31Z</time></trkpt>
<trkpt lat="25.444775" lon="100.362282">
<time>2016-10-07T05:50:32Z</time></trkpt>
<trkpt lat="25.444875" lon="100.362282">
<time>2016-10-07T05:50:33Z</time></trkpt>
<trkpt lat="25.445025" lon="100.362282">
<time>2016-10-07T05:50:34Z</time></trkpt>
<trkpt lat="25.445175" lon="100.362232">
<time>2016-10-07T05:50:35Z</time></trkpt>
<trkpt lat="25.445295" lon="100.362212">
<time>2016-10-07T05:50:36Z</time></trkpt>
<trkpt lat="25.445395" lon="100.362202">
<time>2016-10-07T05:50:37Z</time></trkpt>
<trkpt lat="25.445495" lon="100.362212">
<time>2016-10-07T05:50:38Z</time></trkpt>
<trkpt lat="25.445605" lon="100.362222">
<time>2016-10-07T05:50:39Z</time></trkpt>
<trkpt lat="25.445725" lon="100.362252">
<time>2016-10-07T05:50:40Z</time></trkpt>
<trkpt lat="25.445845" lon="100.362282">
<time>2016-10-07T05:50:41Z</time></trkpt>
<trkpt lat="25.445965" lon="100.362282">
<time>2016-10-07T05:50:42Z</time></trkpt>
<trkpt lat="25.446106" lon="100.362272">
<time>2016-10-07T05:50:43Z</time></trkpt>
<trkpt lat="25.446236" lon="100.362212">
<time>2016-10-07T05:50:44Z</time></trkpt>
<trkpt lat="25.446356" lon="100.362122">
<time>2016-10-07T05:50:45Z</time></trkpt>
<trkpt lat="25.446466" lon="100.362032">
<time>2016-10-07T05:50:46Z</time></trkpt>
<trkpt lat="25.446586" lon="100.361962">
<time>2016-10-07T05:50:47Z</time></trkpt>
<trkpt lat="25.446686" lon="100.361893">
<time>2016-10-07T05:50:48Z</time></trkpt>
<trkpt lat="25.446786" lon="100.361813">
<time>2016-10-07T05:50:49Z</time></trkpt>
<trkpt lat="25.446886" lon="100.361733">
<time>2016-10-07T05:50:50Z</time></trkpt>
<trkpt lat="25.446967" lon="100.361653">
<time>2016-10-07T05:50:51Z</time></trkpt>
<trkpt lat="25.447077" lon="100.361583">
<time>2016-10-07T05:50:52Z</time></trkpt>
<trkpt lat="25.447147" lon="100.361533">
<time>2016-10-07T05:50:53Z</time></trkpt>
<trkpt lat="25.447257" lon="100.361473">
<time>2016-10-07T05:50:54Z</time></trkpt>
<trkpt lat="25.447367" lon="100.361423">
<time>2016-10-07T05:50:55Z</time></trkpt>
<trkpt lat="25.447487" lon="100.361343">
<time>2016-10-07T05:50:56Z</time></trkpt>
<trkpt lat="25.447597" lon="100.361284">
<time>2016-10-07T05:50:57Z</time></trkpt>
<trkpt lat="25.447707" lon="100.361224">
<time>2016-10-07T05:50:58Z</time></trkpt>
<trkpt lat="25.447858" lon="100.361154">
<time>2016-10-07T05:50:59Z</time></trkpt>
<trkpt lat="25.447948" lon="100.361124">
<time>2016-10-07T05:51:00Z</time></trkpt>
<trkpt lat="25.448038" lon="100.361084">
<time>2016-10-07T05:51:01Z</time></trkpt>
<trkpt lat="25.448138" lon="100.361054">
<time>2016-10-07T05:51:02Z</time></trkpt>
<trkpt lat="25.448228" lon="100.361014">
<time>2016-10-07T05:51:03Z</time></trkpt>
<trkpt lat="25.448318" lon="100.360984">
<time>2016-10-07T05:51:04Z</time></trkpt>
<trkpt lat="25.448408" lon="100.360954">
<time>2016-10-07T05:51:05Z</time></trkpt>
<trkpt lat="25.448498" lon="100.360914">
<time>2016-10-07T05:51:06Z</time></trkpt>
<trkpt lat="25.448608" lon="100.360854">
<time>2016-10-07T05:51:07Z</time></trkpt>
<trkpt lat="25.448768" lon="100.360764">
<time>2016-10-07T05:51:08Z</time></trkpt>
<trkpt lat="25.448858" lon="100.360734">
<time>2016-10-07T05:51:09Z</time></trkpt>
<trkpt lat="25.449019" lon="100.360655">
<time>2016-10-07T05:51:10Z</time></trkpt>
<trkpt lat="25.449169" lon="100.360565">
<time>2016-10-07T05:51:11Z</time></trkpt>
<trkpt lat="25.449309" lon="100.360505">
<time>2016-10-07T05:51:12Z</time></trkpt>
<trkpt lat="25.449469" lon="100.360435">
<time>2016-10-07T05:51:13Z</time></trkpt>
<trkpt lat="25.449629" lon="100.360335">
<time>2016-10-07T05:51:14Z</time></trkpt>
<trkpt lat="25.449719" lon="100.360275">
<time>2016-10-07T05:51:15Z</time></trkpt>
<trkpt lat="25.449799" lon="100.360215">
<time>2016-10-07T05:51:16Z</time></trkpt>
<trkpt lat="25.44988" lon="100.360155">
<time>2016-10-07T05:51:17Z</time></trkpt>
<trkpt lat="25.45001" lon="100.360056">
<time>2016-10-07T05:51:18Z</time></trkpt>
<trkpt lat="25.45017" lon="100.359936">
<time>2016-10-07T05:51:19Z</time></trkpt>
<trkpt lat="25.45026" lon="100.359896">
<time>2016-10-07T05:51:20Z</time></trkpt>
<trkpt lat="25.45035" lon="100.359856">
<time>2016-10-07T05:51:21Z</time></trkpt>
<trkpt lat="25.45044" lon="100.359816">
<time>2016-10-07T05:51:22Z</time></trkpt>
<trkpt lat="25.45053" lon="100.359776">
<time>2016-10-07T05:51:23Z</time></trkpt>
<trkpt lat="25.45061" lon="100.359746">
<time>2016-10-07T05:51:24Z</time></trkpt>
<trkpt lat="25.4507" lon="100.359706">
<time>2016-10-07T05:51:25Z</time></trkpt>
<trkpt lat="25.450791" lon="100.359666">
<time>2016-10-07T05:51:26Z</time></trkpt>
<trkpt lat="25.450871" lon="100.359636">
<time>2016-10-07T05:51:27Z</time></trkpt>
<trkpt lat="25.451031" lon="100.359537">
<time>2016-10-07T05:51:28Z</time></trkpt>
<trkpt lat="25.451191" lon="100.359477">
<time>2016-10-07T05:51:29Z</time></trkpt>
<trkpt lat="25.451331" lon="100.359417">
<time>2016-10-07T05:51:30Z</time></trkpt>
<trkpt lat="25.451441" lon="100.359377">
<time>2016-10-07T05:51:31Z</time></trkpt>
<trkpt lat="25.451551" lon="100.359317">
<time>2016-10-07T05:51:32Z</time></trkpt>
<trkpt lat="25.451651" lon="100.359257">
<time>2016-10-07T05:51:33Z</time></trkpt>
<trkpt lat="25.451771" lon="100.359177">
<time>2016-10-07T05:51:34Z</time></trkpt>
<trkpt lat="25.451852" lon="100.359117">
<time>2016-10-07T05:51:35Z</time></trkpt>
<trkpt lat="25.451962" lon="100.359047">
<time>2016-10-07T05:51:36Z</time></trkpt>
<trkpt lat="25.452072" lon="100.358958">
<time>2016-10-07T05:51:37Z</time></trkpt>
<trkpt lat="25.452192" lon="100.358868">
<time>2016-10-07T05:51:38Z</time></trkpt>
<trkpt lat="25.452312" lon="100.358788">
<time>2016-10-07T05:51:39Z</time></trkpt>
<trkpt lat="25.452432" lon="100.358718">
<time>2016-10-07T05:51:40Z</time></trkpt>
<trkpt lat="25.452542" lon="100.358658">
<time>2016-10-07T05:51:41Z</time></trkpt>
<trkpt lat="25.452663" lon="100.358598">
<time>2016-10-07T05:51:42Z</time></trkpt>
<trkpt lat="25.452803" lon="100.358548">
<time>2016-10-07T05:51:43Z</time></trkpt>
<trkpt lat="25.452953" lon="100.358508">
<time>2016-10-07T05:51:44Z</time></trkpt>
<trkpt lat="25.453123" lon="100.358468">
<time>2016-10-07T05:51:45Z</time></trkpt>
<trkpt lat="25.453283" lon="100.358428">
<time>2016-10-07T05:51:46Z</time></trkpt>
<trkpt lat="25.453433" lon="100.358359">
<time>2016-10-07T05:51:47Z</time></trkpt>
<trkpt lat="25.453583" lon="100.358249">
<time>2016-10-07T05:51:48Z</time></trkpt>
<trkpt lat="25.453724" lon="100.358109">
<time>2016-10-07T05:51:49Z</time></trkpt>
<trkpt lat="25.453914" lon="100.357949">
<time>2016-10-07T05:51:50Z</time></trkpt>
<trkpt lat="25.454084" lon="100.35778">
<time>2016-10-07T05:51:51Z</time></trkpt>
<trkpt lat="25.454264" lon="100.35763">
<time>2016-10-07T05:51:52Z</time></trkpt>
<trkpt lat="25.454515" lon="100.3575">
<time>2016-10-07T05:51:53Z</time></trkpt>
<trkpt lat="25.454705" lon="100.3574">
<time>2016-10-07T05:51:54Z</time></trkpt>
<trkpt lat="25.454935" lon="100.35735">
<time>2016-10-07T05:51:55Z</time></trkpt>
<trkpt lat="25.455195" lon="100.357251">
<time>2016-10-07T05:51:56Z</time></trkpt>
<trkpt lat="25.455406" lon="100.357171">
<time>2016-10-07T05:51:57Z</time></trkpt>
<trkpt lat="25.455616" lon="100.357081">
<time>2016-10-07T05:51:58Z</time></trkpt>
<trkpt lat="25.455796" lon="100.356971">
<time>2016-10-07T05:51:59Z</time></trkpt>
<trkpt lat="25.455956" lon="100.356851">
<time>2016-10-07T05:52:00Z</time></trkpt>
<trkpt lat="25.456146" lon="100.356781">
<time>2016-10-07T05:52:01Z</time></trkpt>
<trkpt lat="25.456286" lon="100.356721">
<time>2016-10-07T05:52:02Z</time></trkpt>
<trkpt lat="25.456387" lon="100.356682">
<time>2016-10-07T05:52:03Z</time></trkpt>
<trkpt lat="25.456477" lon="100.356642">
<time>2016-10-07T05:52:04Z</time></trkpt>
<trkpt lat="25.456587" lon="100.356562">
<time>2016-10-07T05:52:05Z</time></trkpt>
<trkpt lat="25.456647" lon="100.356522">
<time>2016-10-07T05:52:06Z</time></trkpt>
<trkpt lat="25.456677" lon="100.356502">
<time>2016-10-07T05:52:07Z</time></trkpt>
<trkpt lat="25.456767" lon="100.356402">
<time>2016-10-07T05:52:08Z</time></trkpt>
<trkpt lat="25.456867" lon="100.356272">
<time>2016-10-07T05:52:09Z</time></trkpt>
<trkpt lat="25.456968" lon="100.356123">
<time>2016-10-07T05:52:10Z</time></trkpt>
<trkpt lat="25.457038" lon="100.355943">
<time>2016-10-07T05:52:11Z</time></trkpt>
<trkpt lat="25.457128" lon="100.355773">
<time>2016-10-07T05:52:12Z</time></trkpt>
<trkpt lat="25.457238" lon="100.355614">
<time>2016-10-07T05:52:13Z</time></trkpt>
<trkpt lat="25.457379" lon="100.355484">
<time>2016-10-07T05:52:14Z</time></trkpt>
<trkpt lat="25.457499" lon="100.355404">
<time>2016-10-07T05:52:15Z</time></trkpt>
<trkpt lat="25.457649" lon="100.355294">
<time>2016-10-07T05:52:16Z</time></trkpt>
<trkpt lat="25.457759" lon="100.355224">
<time>2016-10-07T05:52:17Z</time></trkpt>
<trkpt lat="25.457899" lon="100.355164">
<time>2016-10-07T05:52:18Z</time></trkpt>
<trkpt lat="25.458059" lon="100.355104">
<time>2016-10-07T05:52:19Z</time></trkpt>
<trkpt lat="25.45818" lon="100.355084">
<time>2016-10-07T05:52:20Z</time></trkpt>
<trkpt lat="25.45833" lon="100.355094">
<time>2016-10-07T05:52:21Z</time></trkpt>
<trkpt lat="25.45848" lon="100.355124">
<time>2016-10-07T05:52:22Z</time></trkpt>
<trkpt lat="25.45865" lon="100.355164">
<time>2016-10-07T05:52:23Z</time></trkpt>
<trkpt lat="25.45879" lon="100.355184">
<time>2016-10-07T05:52:24Z</time></trkpt>
<trkpt lat="25.45895" lon="100.355174">
<time>2016-10-07T05:52:25Z</time></trkpt>
<trkpt lat="25.45916" lon="100.355154">
<time>2016-10-07T05:52:26Z</time></trkpt>
<trkpt lat="25.45937" lon="100.355094">
<time>2016-10-07T05:52:27Z</time></trkpt>
<trkpt lat="25.45961" lon="100.354955">
<time>2016-10-07T05:52:28Z</time></trkpt>
<trkpt lat="25.45979" lon="100.354865">
<time>2016-10-07T05:52:29Z</time></trkpt>
<trkpt lat="25.45998" lon="100.354815">
<time>2016-10-07T05:52:30Z</time></trkpt>
<trkpt lat="25.46017" lon="100.354815">
<time>2016-10-07T05:52:31Z</time></trkpt>
<trkpt lat="25.460351" lon="100.354815">
<time>2016-10-07T05:52:32Z</time></trkpt>
<trkpt lat="25.460541" lon="100.354815">
<time>2016-10-07T05:52:33Z</time></trkpt>
<trkpt lat="25.460711" lon="100.354785">
<time>2016-10-07T05:52:34Z</time></trkpt>
<trkpt lat="25.460881" lon="100.354725">
<time>2016-10-07T05:52:35Z</time></trkpt>
<trkpt lat="25.461081" lon="100.354665">
<time>2016-10-07T05:52:36Z</time></trkpt>
<trkpt lat="25.461281" lon="100.354585">
<time>2016-10-07T05:52:37Z</time></trkpt>
<trkpt lat="25.461491" lon="100.354515">
<time>2016-10-07T05:52:38Z</time></trkpt>
<trkpt lat="25.461712" lon="100.354416">
<time>2016-10-07T05:52:39Z</time></trkpt>
<trkpt lat="25.461932" lon="100.354346">
<time>2016-10-07T05:52:40Z</time></trkpt>
<trkpt lat="25.462132" lon="100.354256">
<time>2016-10-07T05:52:41Z</time></trkpt>
<trkpt lat="25.462302" lon="100.354126">
<time>2016-10-07T05:52:42Z</time></trkpt>
<trkpt lat="25.462452" lon="100.353976">
<time>2016-10-07T05:52:43Z</time></trkpt>
<trkpt lat="25.462603" lon="100.353807">
<time>2016-10-07T05:52:44Z</time></trkpt>
<trkpt lat="25.462753" lon="100.353647">
<time>2016-10-07T05:52:45Z</time></trkpt>
<trkpt lat="25.462903" lon="100.353507">
<time>2016-10-07T05:52:46Z</time></trkpt>
<trkpt lat="25.463064" lon="100.353408">
<time>2016-10-07T05:52:47Z</time></trkpt>
<trkpt lat="25.463244" lon="100.353328">
<time>2016-10-07T05:52:48Z</time></trkpt>
<trkpt lat="25.463434" lon="100.353268">
<time>2016-10-07T05:52:49Z</time></trkpt>
<trkpt lat="25.463614" lon="100.353218">
<time>2016-10-07T05:52:50Z</time></trkpt>
<trkpt lat="25.463794" lon="100.353158">
<time>2016-10-07T05:52:51Z</time></trkpt>
<trkpt lat="25.463984" lon="100.353098">
<time>2016-10-07T05:52:52Z</time></trkpt>
<trkpt lat="25.464204" lon="100.353058">
<time>2016-10-07T05:52:53Z</time></trkpt>
<trkpt lat="25.464445" lon="100.353018">
<time>2016-10-07T05:52:54Z</time></trkpt>
<trkpt lat="25.464645" lon="100.353028">
<time>2016-10-07T05:52:55Z</time></trkpt>
<trkpt lat="25.464855" lon="100.353028">
<time>2016-10-07T05:52:56Z</time></trkpt>
<trkpt lat="25.465075" lon="100.353058">
<time>2016-10-07T05:52:57Z</time></trkpt>
<trkpt lat="25.465295" lon="100.353088">
<time>2016-10-07T05:52:58Z</time></trkpt>
<trkpt lat="25.465515" lon="100.353098">
<time>2016-10-07T05:52:59Z</time></trkpt>
<trkpt lat="25.465745" lon="100.353078">
<time>2016-10-07T05:53:00Z</time></trkpt>
<trkpt lat="25.465975" lon="100.353028">
<time>2016-10-07T05:53:01Z</time></trkpt>
<trkpt lat="25.466205" lon="100.352968">
<time>2016-10-07T05:53:02Z</time></trkpt>
<trkpt lat="25.466425" lon="100.352898">
<time>2016-10-07T05:53:03Z</time></trkpt>
<trkpt lat="25.466645" lon="100.352809">
<time>2016-10-07T05:53:04Z</time></trkpt>
<trkpt lat="25.466856" lon="100.352779">
<time>2016-10-07T05:53:05Z</time></trkpt>
<trkpt lat="25.467056" lon="100.352789">
<time>2016-10-07T05:53:06Z</time></trkpt>
<trkpt lat="25.467256" lon="100.352829">
<time>2016-10-07T05:53:07Z</time></trkpt>
<trkpt lat="25.467456" lon="100.352839">
<time>2016-10-07T05:53:08Z</time></trkpt>
<trkpt lat="25.467636" lon="100.352789">
<time>2016-10-07T05:53:09Z</time></trkpt>
<trkpt lat="25.467796" lon="100.352679">
<time>2016-10-07T05:53:10Z</time></trkpt>
<trkpt lat="25.467946" lon="100.352539">
<time>2016-10-07T05:53:11Z</time></trkpt>
<trkpt lat="25.468087" lon="100.352389">
<time>2016-10-07T05:53:12Z</time></trkpt>
<trkpt lat="25.468237" lon="100.35224">
<time>2016-10-07T05:53:13Z</time></trkpt>
<trkpt lat="25.468387" lon="100.35207">
<time>2016-10-07T05:53:14Z</time></trkpt>
<trkpt lat="25.468527" lon="100.35192">
<time>2016-10-07T05:53:15Z</time></trkpt>
<trkpt lat="25.468668" lon="100.351791">
<time>2016-10-07T05:53:16Z</time></trkpt>
<trkpt lat="25.468828" lon="100.351671">
<time>2016-10-07T05:53:17Z</time></trkpt>
<trkpt lat="25.468998" lon="100.351571">
<time>2016-10-07T05:53:18Z</time></trkpt>
<trkpt lat="25.469188" lon="100.351491">
<time>2016-10-07T05:53:19Z</time></trkpt>
<trkpt lat="25.469369" lon="100.351441">
<time>2016-10-07T05:53:20Z</time></trkpt>
<trkpt lat="25.469549" lon="100.351411">
<time>2016-10-07T05:53:21Z</time></trkpt>
<trkpt lat="25.469719" lon="100.351371">
<time>2016-10-07T05:53:22Z</time></trkpt>
<trkpt lat="25.469869" lon="100.351311">
<time>2016-10-07T05:53:23Z</time></trkpt>
<trkpt lat="25.470009" lon="100.351252">
<time>2016-10-07T05:53:24Z</time></trkpt>
<trkpt lat="25.470149" lon="100.351182">
<time>2016-10-07T05:53:25Z</time></trkpt>
<trkpt lat="25.470299" lon="100.351112">
<time>2016-10-07T05:53:26Z</time></trkpt>
<trkpt lat="25.47045" lon="100.351012">
<time>2016-10-07T05:53:27Z</time></trkpt>
<trkpt lat="25.4706" lon="100.350872">
<time>2016-10-07T05:53:28Z</time></trkpt>
<trkpt lat="25.47075" lon="100.350723">
<time>2016-10-07T05:53:29Z</time></trkpt>
<trkpt lat="25.4709" lon="100.350553">
<time>2016-10-07T05:53:30Z</time></trkpt>
<trkpt lat="25.471061" lon="100.350373">
<time>2016-10-07T05:53:31Z</time></trkpt>
<trkpt lat="25.471231" lon="100.350214">
<time>2016-10-07T05:53:32Z</time></trkpt>
<trkpt lat="25.471411" lon="100.350044">
<time>2016-10-07T05:53:33Z</time></trkpt>
<trkpt lat="25.471582" lon="100.349884">
<time>2016-10-07T05:53:34Z</time></trkpt>
<trkpt lat="25.471762" lon="100.349744">
<time>2016-10-07T05:53:35Z</time></trkpt>
<trkpt lat="25.471922" lon="100.349625">
<time>2016-10-07T05:53:36Z</time></trkpt>
<trkpt lat="25.472063" lon="100.349475">
<time>2016-10-07T05:53:37Z</time></trkpt>
<trkpt lat="25.472173" lon="100.349305">
<time>2016-10-07T05:53:38Z</time></trkpt>
<trkpt lat="25.472253" lon="100.349106">
<time>2016-10-07T05:53:39Z</time></trkpt>
<trkpt lat="25.472314" lon="100.348916">
<time>2016-10-07T05:53:40Z</time></trkpt>
<trkpt lat="25.472364" lon="100.348717">
<time>2016-10-07T05:53:41Z</time></trkpt>
<trkpt lat="25.472414" lon="100.348507">
<time>2016-10-07T05:53:42Z</time></trkpt>
<trkpt lat="25.472445" lon="100.348297">
<time>2016-10-07T05:53:43Z</time></trkpt>
<trkpt lat="25.472455" lon="100.348068">
<time>2016-10-07T05:53:44Z</time></trkpt>
<trkpt lat="25.472486" lon="100.347858">
<time>2016-10-07T05:53:45Z</time></trkpt>
<trkpt lat="25.472546" lon="100.347659">
<time>2016-10-07T05:53:46Z</time></trkpt>
<trkpt lat="25.472646" lon="100.347499">
<time>2016-10-07T05:53:47Z</time></trkpt>
<trkpt lat="25.472786" lon="100.347349">
<time>2016-10-07T05:53:48Z</time></trkpt>
<trkpt lat="25.472947" lon="100.34721">
<time>2016-10-07T05:53:49Z</time></trkpt>
<trkpt lat="25.473107" lon="100.34708">
<time>2016-10-07T05:53:50Z</time></trkpt>
<trkpt lat="25.473247" lon="100.34697">
<time>2016-10-07T05:53:51Z</time></trkpt>
<trkpt lat="25.473387" lon="100.34687">
<time>2016-10-07T05:53:52Z</time></trkpt>
<trkpt lat="25.473558" lon="100.34679">
<time>2016-10-07T05:53:53Z</time></trkpt>
<trkpt lat="25.473738" lon="100.346721">
<time>2016-10-07T05:53:54Z</time></trkpt>
<trkpt lat="25.473918" lon="100.346651">
<time>2016-10-07T05:53:55Z</time></trkpt>
<trkpt lat="25.474078" lon="100.346581">
<time>2016-10-07T05:53:56Z</time></trkpt>
<trkpt lat="25.474208" lon="100.346491">
<time>2016-10-07T05:53:57Z</time></trkpt>
<trkpt lat="25.474279" lon="100.346351">
<time>2016-10-07T05:53:58Z</time></trkpt>
<trkpt lat="25.474299" lon="100.346182">
<time>2016-10-07T05:53:59Z</time></trkpt>
<trkpt lat="25.474299" lon="100.345992">
<time>2016-10-07T05:54:00Z</time></trkpt>
<trkpt lat="25.47432" lon="100.345792">
<time>2016-10-07T05:54:01Z</time></trkpt>
<trkpt lat="25.47435" lon="100.345583">
<time>2016-10-07T05:54:02Z</time></trkpt>
<trkpt lat="25.4744" lon="100.345383">
<time>2016-10-07T05:54:03Z</time></trkpt>
<trkpt lat="25.474441" lon="100.345164">
<time>2016-10-07T05:54:04Z</time></trkpt>
<trkpt lat="25.474511" lon="100.344934">
<time>2016-10-07T05:54:05Z</time></trkpt>
<trkpt lat="25.474572" lon="100.344725">
<time>2016-10-07T05:54:06Z</time></trkpt>
<trkpt lat="25.474642" lon="100.344525">
<time>2016-10-07T05:54:07Z</time></trkpt>
<trkpt lat="25.474762" lon="100.344355">
<time>2016-10-07T05:54:08Z</time></trkpt>
<trkpt lat="25.474893" lon="100.344236">
<time>2016-10-07T05:54:09Z</time></trkpt>
<trkpt lat="25.475013" lon="100.344136">
<time>2016-10-07T05:54:10Z</time></trkpt>
<trkpt lat="25.475123" lon="100.344066">
<time>2016-10-07T05:54:11Z</time></trkpt>
<trkpt lat="25.475283" lon="100.343996">
<time>2016-10-07T05:54:12Z</time></trkpt>
<trkpt lat="25.475413" lon="100.343946">
<time>2016-10-07T05:54:13Z</time></trkpt>
<trkpt lat="25.475553" lon="100.343896">
<time>2016-10-07T05:54:14Z</time></trkpt>
<trkpt lat="25.475694" lon="100.343797">
<time>2016-10-07T05:54:15Z</time></trkpt>
<trkpt lat="25.475844" lon="100.343727">
<time>2016-10-07T05:54:16Z</time></trkpt>
<trkpt lat="25.476004" lon="100.343647">
<time>2016-10-07T05:54:17Z</time></trkpt>
<trkpt lat="25.476134" lon="100.343547">
<time>2016-10-07T05:54:18Z</time></trkpt>
<trkpt lat="25.476294" lon="100.343437">
<time>2016-10-07T05:54:19Z</time></trkpt>
<trkpt lat="25.476445" lon="100.343347">
<time>2016-10-07T05:54:20Z</time></trkpt>
<trkpt lat="25.476585" lon="100.343268">
<time>2016-10-07T05:54:21Z</time></trkpt>
<trkpt lat="25.476715" lon="100.343218">
<time>2016-10-07T05:54:22Z</time></trkpt>
<trkpt lat="25.476825" lon="100.343178">
<time>2016-10-07T05:54:23Z</time></trkpt>
<trkpt lat="25.476935" lon="100.343148">
<time>2016-10-07T05:54:24Z</time></trkpt>
<trkpt lat="25.477045" lon="100.343128">
<time>2016-10-07T05:54:25Z</time></trkpt>
<trkpt lat="25.477195" lon="100.343118">
<time>2016-10-07T05:54:26Z</time></trkpt>
<trkpt lat="25.477365" lon="100.343098">
<time>2016-10-07T05:54:27Z</time></trkpt>
<trkpt lat="25.477545" lon="100.343088">
<time>2016-10-07T05:54:28Z</time></trkpt>
<trkpt lat="25.477715" lon="100.343078">
<time>2016-10-07T05:54:29Z</time></trkpt>
<trkpt lat="25.477896" lon="100.343068">
<time>2016-10-07T05:54:30Z</time></trkpt>
<trkpt lat="25.478046" lon="100.343058">
<time>2016-10-07T05:54:31Z</time></trkpt>
<trkpt lat="25.478236" lon="100.342988">
<time>2016-10-07T05:54:32Z</time></trkpt>
<trkpt lat="25.478356" lon="100.342858">
<time>2016-10-07T05:54:33Z</time></trkpt>
<trkpt lat="25.478396" lon="100.342729">
<time>2016-10-07T05:54:34Z</time></trkpt>
<trkpt lat="25.478457" lon="100.342559">
<time>2016-10-07T05:54:35Z</time></trkpt>
<trkpt lat="25.478477" lon="100.342349">
<time>2016-10-07T05:54:36Z</time></trkpt>
<trkpt lat="25.478497" lon="100.34219">
<time>2016-10-07T05:54:37Z</time></trkpt>
<trkpt lat="25.478508" lon="100.34203">
<time>2016-10-07T05:54:38Z</time></trkpt>
<trkpt lat="25.478548" lon="100.341871">
<time>2016-10-07T05:54:39Z</time></trkpt>
<trkpt lat="25.478608" lon="100.341721">
<time>2016-10-07T05:54:40Z</time></trkpt>
<trkpt lat="25.478678" lon="100.341591">
<time>2016-10-07T05:54:41Z</time></trkpt>
<trkpt lat="25.478769" lon="100.341461">
<time>2016-10-07T05:54:42Z</time></trkpt>
<trkpt lat="25.478949" lon="100.341292">
<time>2016-10-07T05:54:43Z</time></trkpt>
<trkpt lat="25.479079" lon="100.341172">
<time>2016-10-07T05:54:44Z</time></trkpt>
<trkpt lat="25.47922" lon="100.341042">
<time>2016-10-07T05:54:45Z</time></trkpt>
<trkpt lat="25.4793" lon="100.340972">
<time>2016-10-07T05:54:46Z</time></trkpt>
<trkpt lat="25.47944" lon="100.340843">
<time>2016-10-07T05:54:47Z</time></trkpt>
<trkpt lat="25.47958" lon="100.340743">
<time>2016-10-07T05:54:48Z</time></trkpt>
<trkpt lat="25.47968" lon="100.340673">
<time>2016-10-07T05:54:49Z</time></trkpt>
<trkpt lat="25.479761" lon="100.340613">
<time>2016-10-07T05:54:50Z</time></trkpt>
<trkpt lat="25.479841" lon="100.340533">
<time>2016-10-07T05:54:51Z</time></trkpt>
<trkpt lat="25.479921" lon="100.340453">
<time>2016-10-07T05:54:52Z</time></trkpt>
<trkpt lat="25.480011" lon="100.340384">
<time>2016-10-07T05:54:53Z</time></trkpt>
<trkpt lat="25.480111" lon="100.340324">
<time>2016-10-07T05:54:54Z</time></trkpt>
<trkpt lat="25.480241" lon="100.340264">
<time>2016-10-07T05:54:55Z</time></trkpt>
<trkpt lat="25.480371" lon="100.340234">
<time>2016-10-07T05:54:56Z</time></trkpt>
<trkpt lat="25.480512" lon="100.340224">
<time>2016-10-07T05:54:57Z</time></trkpt>
<trkpt lat="25.480642" lon="100.340234">
<time>2016-10-07T05:54:58Z</time></trkpt>
<trkpt lat="25.480752" lon="100.340254">
<time>2016-10-07T05:54:59Z</time></trkpt>
<trkpt lat="25.480932" lon="100.340284">
<time>2016-10-07T05:55:00Z</time></trkpt>
<trkpt lat="25.481082" lon="100.340284">
<time>2016-10-07T05:55:01Z</time></trkpt>
<trkpt lat="25.481242" lon="100.340274">
<time>2016-10-07T05:55:02Z</time></trkpt>
<trkpt lat="25.481392" lon="100.340274">
<time>2016-10-07T05:55:03Z</time></trkpt>
<trkpt lat="25.481572" lon="100.340264">
<time>2016-10-07T05:55:04Z</time></trkpt>
<trkpt lat="25.481732" lon="100.340264">
<time>2016-10-07T05:55:05Z</time></trkpt>
<trkpt lat="25.481892" lon="100.340254">
<time>2016-10-07T05:55:06Z</time></trkpt>
<trkpt lat="25.482052" lon="100.340234">
<time>2016-10-07T05:55:07Z</time></trkpt>
<trkpt lat="25.482212" lon="100.340204">
<time>2016-10-07T05:55:08Z</time></trkpt>
<trkpt lat="25.482362" lon="100.340144">
<time>2016-10-07T05:55:09Z</time></trkpt>
<trkpt lat="25.482492" lon="100.340064">
<time>2016-10-07T05:55:10Z</time></trkpt>
<trkpt lat="25.482613" lon="100.339935">
<time>2016-10-07T05:55:11Z</time></trkpt>
<trkpt lat="25.482743" lon="100.339815">
<time>2016-10-07T05:55:12Z</time></trkpt>
<trkpt lat="25.482873" lon="100.339685">
<time>2016-10-07T05:55:13Z</time></trkpt>
<trkpt lat="25.483013" lon="100.339555">
<time>2016-10-07T05:55:14Z</time></trkpt>
<trkpt lat="25.483154" lon="100.339406">
<time>2016-10-07T05:55:15Z</time></trkpt>
<trkpt lat="25.483304" lon="100.339266">
<time>2016-10-07T05:55:16Z</time></trkpt>
<trkpt lat="25.483444" lon="100.339136">
<time>2016-10-07T05:55:17Z</time></trkpt>
<trkpt lat="25.483605" lon="100.339026">
<time>2016-10-07T05:55:18Z</time></trkpt>
<trkpt lat="25.483785" lon="100.338947">
<time>2016-10-07T05:55:19Z</time></trkpt>
<trkpt lat="25.483965" lon="100.338907">
<time>2016-10-07T05:55:20Z</time></trkpt>
<trkpt lat="25.484135" lon="100.338867">
<time>2016-10-07T05:55:21Z</time></trkpt>
<trkpt lat="25.484295" lon="100.338837">
<time>2016-10-07T05:55:22Z</time></trkpt>
<trkpt lat="25.484455" lon="100.338807">
<time>2016-10-07T05:55:23Z</time></trkpt>
<trkpt lat="25.484595" lon="100.338777">
<time>2016-10-07T05:55:24Z</time></trkpt>
<trkpt lat="25.484736" lon="100.338737">
<time>2016-10-07T05:55:25Z</time></trkpt>
<trkpt lat="25.484866" lon="100.338707">
<time>2016-10-07T05:55:26Z</time></trkpt>
<trkpt lat="25.484986" lon="100.338677">
<time>2016-10-07T05:55:27Z</time></trkpt>
<trkpt lat="25.485096" lon="100.338667">
<time>2016-10-07T05:55:28Z</time></trkpt>
<trkpt lat="25.485186" lon="100.338627">
<time>2016-10-07T05:55:29Z</time></trkpt>
<trkpt lat="25.485266" lon="100.338567">
<time>2016-10-07T05:55:30Z</time></trkpt>
<trkpt lat="25.485326" lon="100.338458">
<time>2016-10-07T05:55:31Z</time></trkpt>
<trkpt lat="25.485356" lon="100.338338">
<time>2016-10-07T05:55:32Z</time></trkpt>
<trkpt lat="25.485357" lon="100.338208">
<time>2016-10-07T05:55:33Z</time></trkpt>
<trkpt lat="25.485347" lon="100.338058">
<time>2016-10-07T05:55:34Z</time></trkpt>
<trkpt lat="25.485327" lon="100.337899">
<time>2016-10-07T05:55:35Z</time></trkpt>
<trkpt lat="25.485318" lon="100.337739">
<time>2016-10-07T05:55:36Z</time></trkpt>
<trkpt lat="25.485298" lon="100.337589">
<time>2016-10-07T05:55:37Z</time></trkpt>
<trkpt lat="25.485278" lon="100.33744">
<time>2016-10-07T05:55:38Z</time></trkpt>
<trkpt lat="25.485258" lon="100.33728">
<time>2016-10-07T05:55:39Z</time></trkpt>
<trkpt lat="25.485269" lon="100.337111">
<time>2016-10-07T05:55:40Z</time></trkpt>
<trkpt lat="25.485259" lon="100.336941">
<time>2016-10-07T05:55:41Z</time></trkpt>
<trkpt lat="25.485239" lon="100.336761">
<time>2016-10-07T05:55:42Z</time></trkpt>
<trkpt lat="25.48523" lon="100.336582">
<time>2016-10-07T05:55:43Z</time></trkpt>
<trkpt lat="25.48522" lon="100.336412">
<time>2016-10-07T05:55:44Z</time></trkpt>
<trkpt lat="25.48525" lon="100.336272">
<time>2016-10-07T05:55:45Z</time></trkpt>
<trkpt lat="25.485331" lon="100.336163">
<time>2016-10-07T05:55:46Z</time></trkpt>
<trkpt lat="25.485461" lon="100.336053">
<time>2016-10-07T05:55:47Z</time></trkpt>
<trkpt lat="25.485591" lon="100.335963">
<time>2016-10-07T05:55:48Z</time></trkpt>
<trkpt lat="25.485721" lon="100.335933">
<time>2016-10-07T05:55:49Z</time></trkpt>
<trkpt lat="25.485861" lon="100.335943">
<time>2016-10-07T05:55:50Z</time></trkpt>
<trkpt lat="25.486021" lon="100.335953">
<time>2016-10-07T05:55:51Z</time></trkpt>
<trkpt lat="25.486161" lon="100.335983">
<time>2016-10-07T05:55:52Z</time></trkpt>
<trkpt lat="25.486301" lon="100.335973">
<time>2016-10-07T05:55:53Z</time></trkpt>
<trkpt lat="25.486461" lon="100.335943">
<time>2016-10-07T05:55:54Z</time></trkpt>
<trkpt lat="25.486641" lon="100.335903">
<time>2016-10-07T05:55:55Z</time></trkpt>
<trkpt lat="25.486792" lon="100.335853">
<time>2016-10-07T05:55:56Z</time></trkpt>
<trkpt lat="25.486982" lon="100.335803">
<time>2016-10-07T05:55:57Z</time></trkpt>
<trkpt lat="25.487132" lon="100.335753">
<time>2016-10-07T05:55:58Z</time></trkpt>
<trkpt lat="25.487252" lon="100.335694">
<time>2016-10-07T05:55:59Z</time></trkpt>
<trkpt lat="25.487352" lon="100.335604">
<time>2016-10-07T05:56:00Z</time></trkpt>
<trkpt lat="25.487442" lon="100.335474">
<time>2016-10-07T05:56:01Z</time></trkpt>
<trkpt lat="25.487543" lon="100.335384">
<time>2016-10-07T05:56:02Z</time></trkpt>
<trkpt lat="25.487683" lon="100.335284">
<time>2016-10-07T05:56:03Z</time></trkpt>
<trkpt lat="25.487823" lon="100.335215">
<time>2016-10-07T05:56:04Z</time></trkpt>
<trkpt lat="25.488013" lon="100.335175">
<time>2016-10-07T05:56:05Z</time></trkpt>
<trkpt lat="25.488133" lon="100.335205">
<time>2016-10-07T05:56:06Z</time></trkpt>
<trkpt lat="25.488253" lon="100.335274">
<time>2016-10-07T05:56:07Z</time></trkpt>
<trkpt lat="25.488313" lon="100.335344">
<time>2016-10-07T05:56:08Z</time></trkpt>
<trkpt lat="25.488373" lon="100.335504">
<time>2016-10-07T05:56:09Z</time></trkpt>
<trkpt lat="25.488412" lon="100.335664">
<time>2016-10-07T05:56:10Z</time></trkpt>
<trkpt lat="25.488492" lon="100.335833">
<time>2016-10-07T05:56:11Z</time></trkpt>
<trkpt lat="25.488562" lon="100.335923">
<time>2016-10-07T05:56:12Z</time></trkpt>
<trkpt lat="25.488632" lon="100.336013">
<time>2016-10-07T05:56:13Z</time></trkpt>
<trkpt lat="25.488732" lon="100.336083">
<time>2016-10-07T05:56:14Z</time></trkpt>
<trkpt lat="25.488842" lon="100.336133">
<time>2016-10-07T05:56:15Z</time></trkpt>
<trkpt lat="25.488952" lon="100.336143">
<time>2016-10-07T05:56:16Z</time></trkpt>
<trkpt lat="25.489052" lon="100.336113">
<time>2016-10-07T05:56:17Z</time></trkpt>
<trkpt lat="25.489162" lon="100.336063">
<time>2016-10-07T05:56:18Z</time></trkpt>
<trkpt lat="25.489272" lon="100.336003">
<time>2016-10-07T05:56:19Z</time></trkpt>
<trkpt lat="25.489402" lon="100.335913">
<time>2016-10-07T05:56:20Z</time></trkpt>
<trkpt lat="25.489532" lon="100.335843">
<time>2016-10-07T05:56:21Z</time></trkpt>
<trkpt lat="25.489673" lon="100.335753">
<time>2016-10-07T05:56:22Z</time></trkpt>
<trkpt lat="25.489803" lon="100.335644">
<time>2016-10-07T05:56:23Z</time></trkpt>
<trkpt lat="25.489933" lon="100.335504">
<time>2016-10-07T05:56:24Z</time></trkpt>
<trkpt lat="25.490053" lon="100.335374">
<time>2016-10-07T05:56:25Z</time></trkpt>
<trkpt lat="25.490154" lon="100.335234">
<time>2016-10-07T05:56:26Z</time></trkpt>
<trkpt lat="25.490264" lon="100.335085">
<time>2016-10-07T05:56:27Z</time></trkpt>
<trkpt lat="25.490374" lon="100.334955">
<time>2016-10-07T05:56:28Z</time></trkpt>
<trkpt lat="25.490475" lon="100.334825">
<time>2016-10-07T05:56:29Z</time></trkpt>
<trkpt lat="25.490545" lon="100.334686">
<time>2016-10-07T05:56:30Z</time></trkpt>
<trkpt lat="25.490575" lon="100.334526">
<time>2016-10-07T05:56:31Z</time></trkpt>
<trkpt lat="25.490576" lon="100.334346">
<time>2016-10-07T05:56:32Z</time></trkpt>
<trkpt lat="25.490576" lon="100.334207">
<time>2016-10-07T05:56:33Z</time></trkpt>
<trkpt lat="25.490596" lon="100.334037">
<time>2016-10-07T05:56:34Z</time></trkpt>
<trkpt lat="25.490646" lon="100.333887">
<time>2016-10-07T05:56:35Z</time></trkpt>
<trkpt lat="25.490707" lon="100.333718">
<time>2016-10-07T05:56:36Z</time></trkpt>
<trkpt lat="25.490797" lon="100.333578">
<time>2016-10-07T05:56:37Z</time></trkpt>
<trkpt lat="25.490917" lon="100.333458">
<time>2016-10-07T05:56:38Z</time></trkpt>
<trkpt lat="25.491048" lon="100.333329">
<time>2016-10-07T05:56:39Z</time></trkpt>
<trkpt lat="25.491188" lon="100.333229">
<time>2016-10-07T05:56:40Z</time></trkpt>
<trkpt lat="25.491308" lon="100.333079">
<time>2016-10-07T05:56:41Z</time></trkpt>
<trkpt lat="25.491408" lon="100.33291">
<time>2016-10-07T05:56:42Z</time></trkpt>
<trkpt lat="25.491519" lon="100.3328">
<time>2016-10-07T05:56:43Z</time></trkpt>
<trkpt lat="25.491659" lon="100.33269">
<time>2016-10-07T05:56:44Z</time></trkpt>
<trkpt lat="25.491769" lon="100.3326">
<time>2016-10-07T05:56:45Z</time></trkpt>
<trkpt lat="25.491909" lon="100.3325">
<time>2016-10-07T05:56:46Z</time></trkpt>
<trkpt lat="25.49205" lon="100.332411">
<time>2016-10-07T05:56:47Z</time></trkpt>
<trkpt lat="25.49219" lon="100.332321">
<time>2016-10-07T05:56:48Z</time></trkpt>
<trkpt lat="25.49232" lon="100.332231">
<time>2016-10-07T05:56:49Z</time></trkpt>
<trkpt lat="25.49242" lon="100.332131">
<time>2016-10-07T05:56:50Z</time></trkpt>
<trkpt lat="25.492511" lon="100.332021">
<time>2016-10-07T05:56:51Z</time></trkpt>
<trkpt lat="25.492591" lon="100.331912">
<time>2016-10-07T05:56:52Z</time></trkpt>
<trkpt lat="25.492681" lon="100.331832">
<time>2016-10-07T05:56:53Z</time></trkpt>
<trkpt lat="25.492771" lon="100.331772">
<time>2016-10-07T05:56:54Z</time></trkpt>
<trkpt lat="25.492881" lon="100.331742">
<time>2016-10-07T05:56:55Z</time></trkpt>
<trkpt lat="25.492991" lon="100.331732">
<time>2016-10-07T05:56:56Z</time></trkpt>
<trkpt lat="25.493111" lon="100.331752">
<time>2016-10-07T05:56:57Z</time></trkpt>
<trkpt lat="25.493241" lon="100.331772">
<time>2016-10-07T05:56:58Z</time></trkpt>
<trkpt lat="25.493371" lon="100.331762">
<time>2016-10-07T05:56:59Z</time></trkpt>
<trkpt lat="25.493491" lon="100.331682">
<time>2016-10-07T05:57:00Z</time></trkpt>
<trkpt lat="25.493602" lon="100.331582">
<time>2016-10-07T05:57:01Z</time></trkpt>
<trkpt lat="25.493692" lon="100.331413">
<time>2016-10-07T05:57:02Z</time></trkpt>
<trkpt lat="25.493782" lon="100.331253">
<time>2016-10-07T05:57:03Z</time></trkpt>
<trkpt lat="25.493873" lon="100.331073">
<time>2016-10-07T05:57:04Z</time></trkpt>
<trkpt lat="25.493973" lon="100.330914">
<time>2016-10-07T05:57:05Z</time></trkpt>
<trkpt lat="25.494083" lon="100.330774">
<time>2016-10-07T05:57:06Z</time></trkpt>
<trkpt lat="25.494214" lon="100.330654">
<time>2016-10-07T05:57:07Z</time></trkpt>
<trkpt lat="25.494344" lon="100.330545">
<time>2016-10-07T05:57:08Z</time></trkpt>
<trkpt lat="25.494474" lon="100.330445">
<time>2016-10-07T05:57:09Z</time></trkpt>
<trkpt lat="25.494614" lon="100.330355">
<time>2016-10-07T05:57:10Z</time></trkpt>
<trkpt lat="25.494725" lon="100.330255">
<time>2016-10-07T05:57:11Z</time></trkpt>
<trkpt lat="25.494815" lon="100.330155">
<time>2016-10-07T05:57:12Z</time></trkpt>
<trkpt lat="25.494885" lon="100.330046">
<time>2016-10-07T05:57:13Z</time></trkpt>
<trkpt lat="25.494925" lon="100.329936">
<time>2016-10-07T05:57:14Z</time></trkpt>
<trkpt lat="25.494955" lon="100.329826">
<time>2016-10-07T05:57:15Z</time></trkpt>
<trkpt lat="25.495006" lon="100.329726">
<time>2016-10-07T05:57:16Z</time></trkpt>
<trkpt lat="25.495066" lon="100.329627">
<time>2016-10-07T05:57:17Z</time></trkpt>
<trkpt lat="25.495146" lon="100.329527">
<time>2016-10-07T05:57:18Z</time></trkpt>
<trkpt lat="25.495236" lon="100.329437">
<time>2016-10-07T05:57:19Z</time></trkpt>
<trkpt lat="25.495327" lon="100.329327">
<time>2016-10-07T05:57:20Z</time></trkpt>
<trkpt lat="25.495397" lon="100.329218">
<time>2016-10-07T05:57:21Z</time></trkpt>
<trkpt lat="25.495417" lon="100.329088">
<time>2016-10-07T05:57:22Z</time></trkpt>
<trkpt lat="25.495387" lon="100.328958">
<time>2016-10-07T05:57:23Z</time></trkpt>
<trkpt lat="25.495317" lon="100.328848">
<time>2016-10-07T05:57:24Z</time></trkpt>
<trkpt lat="25.495218" lon="100.328729">
<time>2016-10-07T05:57:25Z</time></trkpt>
<trkpt lat="25.495108" lon="100.328629">
<time>2016-10-07T05:57:26Z</time></trkpt>
<trkpt lat="25.494998" lon="100.328529">
<time>2016-10-07T05:57:27Z</time></trkpt>
<trkpt lat="25.494908" lon="100.328439">
<time>2016-10-07T05:57:28Z</time></trkpt>
<trkpt lat="25.494828" lon="100.328359">
<time>2016-10-07T05:57:29Z</time></trkpt>
<trkpt lat="25.494768" lon="100.32827">
<time>2016-10-07T05:57:30Z</time></trkpt>
<trkpt lat="25.494729" lon="100.32816">
<time>2016-10-07T05:57:31Z</time></trkpt>
<trkpt lat="25.494709" lon="100.32802">
<time>2016-10-07T05:57:32Z</time></trkpt>
<trkpt lat="25.494719" lon="100.32791">
<time>2016-10-07T05:57:33Z</time></trkpt>
<trkpt lat="25.494769" lon="100.327801">
<time>2016-10-07T05:57:34Z</time></trkpt>
<trkpt lat="25.494809" lon="100.327711">
<time>2016-10-07T05:57:35Z</time></trkpt>
<trkpt lat="25.49489" lon="100.327591">
<time>2016-10-07T05:57:36Z</time></trkpt>
<trkpt lat="25.49496" lon="100.327531">
<time>2016-10-07T05:57:37Z</time></trkpt>
<trkpt lat="25.49505" lon="100.327461">
<time>2016-10-07T05:57:38Z</time></trkpt>
<trkpt lat="25.49515" lon="100.327411">
<time>2016-10-07T05:57:39Z</time></trkpt>
<trkpt lat="25.49524" lon="100.327362">
<time>2016-10-07T05:57:40Z</time></trkpt>
<trkpt lat="25.49533" lon="100.327332">
<time>2016-10-07T05:57:41Z</time></trkpt>
<trkpt lat="25.49543" lon="100.327282">
<time>2016-10-07T05:57:42Z</time></trkpt>
<trkpt lat="25.49554" lon="100.327292">
<time>2016-10-07T05:57:43Z</time></trkpt>
<trkpt lat="25.49564" lon="100.327312">
<time>2016-10-07T05:57:44Z</time></trkpt>
<trkpt lat="25.49572" lon="100.327401">
<time>2016-10-07T05:57:45Z</time></trkpt>
<trkpt lat="25.49582" lon="100.327531">
<time>2016-10-07T05:57:46Z</time></trkpt>
<trkpt lat="25.49594" lon="100.327641">
<time>2016-10-07T05:57:47Z</time></trkpt>
<trkpt lat="25.49605" lon="100.327771">
<time>2016-10-07T05:57:48Z</time></trkpt>
<trkpt lat="25.49616" lon="100.32789">
<time>2016-10-07T05:57:49Z</time></trkpt>
<trkpt lat="25.496269" lon="100.32797">
<time>2016-10-07T05:57:50Z</time></trkpt>
<trkpt lat="25.496439" lon="100.32797">
<time>2016-10-07T05:57:51Z</time></trkpt>
<trkpt lat="25.4966" lon="100.32791">
<time>2016-10-07T05:57:52Z</time></trkpt>
<trkpt lat="25.49674" lon="100.327831">
<time>2016-10-07T05:57:53Z</time></trkpt>
<trkpt lat="25.49685" lon="100.327721">
<time>2016-10-07T05:57:54Z</time></trkpt>
<trkpt lat="25.49697" lon="100.327591">
<time>2016-10-07T05:57:55Z</time></trkpt>
<trkpt lat="25.497081" lon="100.327501">
<time>2016-10-07T05:57:56Z</time></trkpt>
<trkpt lat="25.497191" lon="100.327431">
<time>2016-10-07T05:57:57Z</time></trkpt>
<trkpt lat="25.497301" lon="100.327372">
<time>2016-10-07T05:57:58Z</time></trkpt>
<trkpt lat="25.497451" lon="100.327312">
<time>2016-10-07T05:57:59Z</time></trkpt>
<trkpt lat="25.497601" lon="100.327262">
<time>2016-10-07T05:58:00Z</time></trkpt>
<trkpt lat="25.497771" lon="100.327212">
<time>2016-10-07T05:58:01Z</time></trkpt>
<trkpt lat="25.497941" lon="100.327172">
<time>2016-10-07T05:58:02Z</time></trkpt>
<trkpt lat="25.498112" lon="100.327132">
<time>2016-10-07T05:58:03Z</time></trkpt>
<trkpt lat="25.498302" lon="100.327092">
<time>2016-10-07T05:58:04Z</time></trkpt>
<trkpt lat="25.498442" lon="100.327042">
<time>2016-10-07T05:58:05Z</time></trkpt>
<trkpt lat="25.498632" lon="100.327002">
<time>2016-10-07T05:58:06Z</time></trkpt>
<trkpt lat="25.498772" lon="100.326962">
<time>2016-10-07T05:58:07Z</time></trkpt>
<trkpt lat="25.498902" lon="100.326942">
<time>2016-10-07T05:58:08Z</time></trkpt>
<trkpt lat="25.499032" lon="100.326912">
<time>2016-10-07T05:58:09Z</time></trkpt>
<trkpt lat="25.499152" lon="100.326912">
<time>2016-10-07T05:58:10Z</time></trkpt>
<trkpt lat="25.499292" lon="100.326912">
<time>2016-10-07T05:58:11Z</time></trkpt>
<trkpt lat="25.499442" lon="100.326912">
<time>2016-10-07T05:58:12Z</time></trkpt>
<trkpt lat="25.499532" lon="100.326912">
<time>2016-10-07T05:58:13Z</time></trkpt>
<trkpt lat="25.499632" lon="100.326922">
<time>2016-10-07T05:58:14Z</time></trkpt>
<trkpt lat="25.499742" lon="100.326922">
<time>2016-10-07T05:58:15Z</time></trkpt>
<trkpt lat="25.499853" lon="100.326932">
<time>2016-10-07T05:58:16Z</time></trkpt>
<trkpt lat="25.499953" lon="100.326942">
<time>2016-10-07T05:58:17Z</time></trkpt>
<trkpt lat="25.500013" lon="100.326942">
<time>2016-10-07T05:58:18Z</time></trkpt>
<trkpt lat="25.500063" lon="100.326942">
<time>2016-10-07T05:58:19Z</time></trkpt>
<trkpt lat="25.500213" lon="100.326932">
<time>2016-10-07T05:58:20Z</time></trkpt>
<trkpt lat="25.500333" lon="100.326942">
<time>2016-10-07T05:58:21Z</time></trkpt>
<trkpt lat="25.500463" lon="100.326942">
<time>2016-10-07T05:58:22Z</time></trkpt>
<trkpt lat="25.500603" lon="100.326942">
<time>2016-10-07T05:58:23Z</time></trkpt>
<trkpt lat="25.500743" lon="100.326942">
<time>2016-10-07T05:58:24Z</time></trkpt>
<trkpt lat="25.500883" lon="100.326952">
<time>2016-10-07T05:58:25Z</time></trkpt>
<trkpt lat="25.501023" lon="100.326982">
<time>2016-10-07T05:58:26Z</time></trkpt>
<trkpt lat="25.501143" lon="100.326972">
<time>2016-10-07T05:58:27Z</time></trkpt>
<trkpt lat="25.501283" lon="100.326972">
<time>2016-10-07T05:58:28Z</time></trkpt>
<trkpt lat="25.501413" lon="100.326982">
<time>2016-10-07T05:58:29Z</time></trkpt>
<trkpt lat="25.501553" lon="100.326992">
<time>2016-10-07T05:58:30Z</time></trkpt>
<trkpt lat="25.501703" lon="100.326992">
<time>2016-10-07T05:58:31Z</time></trkpt>
<trkpt lat="25.501853" lon="100.326992">
<time>2016-10-07T05:58:32Z</time></trkpt>
<trkpt lat="25.501973" lon="100.327022">
<time>2016-10-07T05:58:33Z</time></trkpt>
<trkpt lat="25.502093" lon="100.327022">
<time>2016-10-07T05:58:34Z</time></trkpt>
<trkpt lat="25.502193" lon="100.327022">
<time>2016-10-07T05:58:35Z</time></trkpt>
<trkpt lat="25.502333" lon="100.327032">
<time>2016-10-07T05:58:36Z</time></trkpt>
<trkpt lat="25.502463" lon="100.327052">
<time>2016-10-07T05:58:37Z</time></trkpt>
<trkpt lat="25.502593" lon="100.327072">
<time>2016-10-07T05:58:38Z</time></trkpt>
<trkpt lat="25.502723" lon="100.327082">
<time>2016-10-07T05:58:39Z</time></trkpt>
<trkpt lat="25.502853" lon="100.327082">
<time>2016-10-07T05:58:40Z</time></trkpt>
<trkpt lat="25.502963" lon="100.327072">
<time>2016-10-07T05:58:41Z</time></trkpt>
<trkpt lat="25.503073" lon="100.327052">
<time>2016-10-07T05:58:42Z</time></trkpt>
<trkpt lat="25.503173" lon="100.327032">
<time>2016-10-07T05:58:43Z</time></trkpt>
<trkpt lat="25.503283" lon="100.327012">
<time>2016-10-07T05:58:44Z</time></trkpt>
<trkpt lat="25.503404" lon="100.326972">
<time>2016-10-07T05:58:45Z</time></trkpt>
<trkpt lat="25.503544" lon="100.326942">
<time>2016-10-07T05:58:46Z</time></trkpt>
<trkpt lat="25.503694" lon="100.326922">
<time>2016-10-07T05:58:47Z</time></trkpt>
<trkpt lat="25.503844" lon="100.326912">
<time>2016-10-07T05:58:48Z</time></trkpt>
<trkpt lat="25.503984" lon="100.326922">
<time>2016-10-07T05:58:49Z</time></trkpt>
<trkpt lat="25.504124" lon="100.326952">
<time>2016-10-07T05:58:50Z</time></trkpt>
<trkpt lat="25.504274" lon="100.326982">
<time>2016-10-07T05:58:51Z</time></trkpt>
<trkpt lat="25.504424" lon="100.327022">
<time>2016-10-07T05:58:52Z</time></trkpt>
<trkpt lat="25.504554" lon="100.327052">
<time>2016-10-07T05:58:53Z</time></trkpt>
<trkpt lat="25.504684" lon="100.327092">
<time>2016-10-07T05:58:54Z</time></trkpt>
<trkpt lat="25.504814" lon="100.327112">
<time>2016-10-07T05:58:55Z</time></trkpt>
<trkpt lat="25.504934" lon="100.327152">
<time>2016-10-07T05:58:56Z</time></trkpt>
<trkpt lat="25.505044" lon="100.327172">
<time>2016-10-07T05:58:57Z</time></trkpt>
<trkpt lat="25.505154" lon="100.327182">
<time>2016-10-07T05:58:58Z</time></trkpt>
<trkpt lat="25.505314" lon="100.327212">
<time>2016-10-07T05:58:59Z</time></trkpt>
<trkpt lat="25.505464" lon="100.327242">
<time>2016-10-07T05:59:00Z</time></trkpt>
<trkpt lat="25.505624" lon="100.327272">
<time>2016-10-07T05:59:01Z</time></trkpt>
<trkpt lat="25.505804" lon="100.327311">
<time>2016-10-07T05:59:02Z</time></trkpt>
<trkpt lat="25.505894" lon="100.327321">
<time>2016-10-07T05:59:03Z</time></trkpt>
<trkpt lat="25.505994" lon="100.327341">
<time>2016-10-07T05:59:04Z</time></trkpt>
<trkpt lat="25.506094" lon="100.327351">
<time>2016-10-07T05:59:05Z</time></trkpt>
<trkpt lat="25.506204" lon="100.327371">
<time>2016-10-07T05:59:06Z</time></trkpt>
<trkpt lat="25.506314" lon="100.327401">
<time>2016-10-07T05:59:07Z</time></trkpt>
<trkpt lat="25.506424" lon="100.327411">
<time>2016-10-07T05:59:08Z</time></trkpt>
<trkpt lat="25.506554" lon="100.327441">
<time>2016-10-07T05:59:09Z</time></trkpt>
<trkpt lat="25.506684" lon="100.327451">
<time>2016-10-07T05:59:10Z</time></trkpt>
<trkpt lat="25.506804" lon="100.327461">
<time>2016-10-07T05:59:11Z</time></trkpt>
<trkpt lat="25.506924" lon="100.327471">
<time>2016-10-07T05:59:12Z</time></trkpt>
<trkpt lat="25.507044" lon="100.327471">
<time>2016-10-07T05:59:13Z</time></trkpt>
<trkpt lat="25.507154" lon="100.327501">
<time>2016-10-07T05:59:14Z</time></trkpt>
<trkpt lat="25.507274" lon="100.327531">
<time>2016-10-07T05:59:15Z</time></trkpt>
<trkpt lat="25.507394" lon="100.327561">
<time>2016-10-07T05:59:16Z</time></trkpt>
<trkpt lat="25.507524" lon="100.327581">
<time>2016-10-07T05:59:17Z</time></trkpt>
<trkpt lat="25.507664" lon="100.327611">
<time>2016-10-07T05:59:18Z</time></trkpt>
<trkpt lat="25.507774" lon="100.327641">
<time>2016-10-07T05:59:19Z</time></trkpt>
<trkpt lat="25.507864" lon="100.327671">
<time>2016-10-07T05:59:20Z</time></trkpt>
<trkpt lat="25.507954" lon="100.327691">
<time>2016-10-07T05:59:21Z</time></trkpt>
<trkpt lat="25.508044" lon="100.327711">
<time>2016-10-07T05:59:22Z</time></trkpt>
<trkpt lat="25.508144" lon="100.32772">
<time>2016-10-07T05:59:23Z</time></trkpt>
<trkpt lat="25.508244" lon="100.32773">
<time>2016-10-07T05:59:24Z</time></trkpt>
<trkpt lat="25.508344" lon="100.32776">
<time>2016-10-07T05:59:25Z</time></trkpt>
<trkpt lat="25.508444" lon="100.32778">
<time>2016-10-07T05:59:26Z</time></trkpt>
<trkpt lat="25.508624" lon="100.32783">
<time>2016-10-07T05:59:27Z</time></trkpt>
<trkpt lat="25.508724" lon="100.32785">
<time>2016-10-07T05:59:28Z</time></trkpt>
<trkpt lat="25.508834" lon="100.32788">
<time>2016-10-07T05:59:29Z</time></trkpt>
<trkpt lat="25.508954" lon="100.32792">
<time>2016-10-07T05:59:30Z</time></trkpt>
<trkpt lat="25.509084" lon="100.32796">
<time>2016-10-07T05:59:31Z</time></trkpt>
<trkpt lat="25.509163" lon="100.328">
<time>2016-10-07T05:59:32Z</time></trkpt>
<trkpt lat="25.509263" lon="100.32804">
<time>2016-10-07T05:59:33Z</time></trkpt>
<trkpt lat="25.509363" lon="100.3281">
<time>2016-10-07T05:59:34Z</time></trkpt>
<trkpt lat="25.509493" lon="100.328159">
<time>2016-10-07T05:59:35Z</time></trkpt>
<trkpt lat="25.509643" lon="100.328229">
<time>2016-10-07T05:59:36Z</time></trkpt>
<trkpt lat="25.509773" lon="100.328319">
<time>2016-10-07T05:59:37Z</time></trkpt>
<trkpt lat="25.509953" lon="100.328389">
<time>2016-10-07T05:59:38Z</time></trkpt>
<trkpt lat="25.510143" lon="100.328479">
<time>2016-10-07T05:59:39Z</time></trkpt>
<trkpt lat="25.510343" lon="100.328569">
<time>2016-10-07T05:59:40Z</time></trkpt>
<trkpt lat="25.510563" lon="100.328658">
<time>2016-10-07T05:59:41Z</time></trkpt>
<trkpt lat="25.510793" lon="100.328758">
<time>2016-10-07T05:59:42Z</time></trkpt>
<trkpt lat="25.511032" lon="100.328848">
<time>2016-10-07T05:59:43Z</time></trkpt>
<trkpt lat="25.511232" lon="100.328938">
<time>2016-10-07T05:59:44Z</time></trkpt>
<trkpt lat="25.511472" lon="100.329008">
<time>2016-10-07T05:59:45Z</time></trkpt>
<trkpt lat="25.511672" lon="100.329097">
<time>2016-10-07T05:59:46Z</time></trkpt>
<trkpt lat="25.511852" lon="100.329167">
<time>2016-10-07T05:59:47Z</time></trkpt>
<trkpt lat="25.512022" lon="100.329227">
<time>2016-10-07T05:59:48Z</time></trkpt>
<trkpt lat="25.512172" lon="100.329317">
<time>2016-10-07T05:59:49Z</time></trkpt>
<trkpt lat="25.512342" lon="100.329357">
<time>2016-10-07T05:59:50Z</time></trkpt>
<trkpt lat="25.512502" lon="100.329367">
<time>2016-10-07T05:59:51Z</time></trkpt>
<trkpt lat="25.512702" lon="100.329347">
<time>2016-10-07T05:59:52Z</time></trkpt>
<trkpt lat="25.512932" lon="100.329317">
<time>2016-10-07T05:59:53Z</time></trkpt>
<trkpt lat="25.513222" lon="100.329287">
<time>2016-10-07T05:59:54Z</time></trkpt>
<trkpt lat="25.513452" lon="100.329287">
<time>2016-10-07T05:59:55Z</time></trkpt>
<trkpt lat="25.513703" lon="100.329277">
<time>2016-10-07T05:59:56Z</time></trkpt>
<trkpt lat="25.513933" lon="100.329267">
<time>2016-10-07T05:59:57Z</time></trkpt>
<trkpt lat="25.514223" lon="100.329267">
<time>2016-10-07T05:59:58Z</time></trkpt>
<trkpt lat="25.514473" lon="100.329257">
<time>2016-10-07T05:59:59Z</time></trkpt>
<trkpt lat="25.514713" lon="100.329247">
<time>2016-10-07T06:00:00Z</time></trkpt>
<trkpt lat="25.514903" lon="100.329237">
<time>2016-10-07T06:00:01Z</time></trkpt>
<trkpt lat="25.514953" lon="100.329237">
<time>2016-10-07T06:00:02Z</time></trkpt>
<trkpt lat="25.515193" lon="100.329227">
<time>2016-10-07T06:00:03Z</time></trkpt>
<trkpt lat="25.515423" lon="100.329207">
<time>2016-10-07T06:00:04Z</time></trkpt>
<trkpt lat="25.515663" lon="100.329127">
<time>2016-10-07T06:00:05Z</time></trkpt>
<trkpt lat="25.515914" lon="100.329037">
<time>2016-10-07T06:00:06Z</time></trkpt>
<trkpt lat="25.516184" lon="100.328928">
<time>2016-10-07T06:00:07Z</time></trkpt>
<trkpt lat="25.516464" lon="100.328828">
<time>2016-10-07T06:00:08Z</time></trkpt>
<trkpt lat="25.516755" lon="100.328718">
<time>2016-10-07T06:00:09Z</time></trkpt>
<trkpt lat="25.517055" lon="100.328608">
<time>2016-10-07T06:00:10Z</time></trkpt>
<trkpt lat="25.517355" lon="100.328499">
<time>2016-10-07T06:00:11Z</time></trkpt>
<trkpt lat="25.517646" lon="100.328389">
<time>2016-10-07T06:00:12Z</time></trkpt>
<trkpt lat="25.517926" lon="100.328279">
<time>2016-10-07T06:00:13Z</time></trkpt>
<trkpt lat="25.518186" lon="100.328139">
<time>2016-10-07T06:00:14Z</time></trkpt>
<trkpt lat="25.518427" lon="100.32799">
<time>2016-10-07T06:00:15Z</time></trkpt>
<trkpt lat="25.518627" lon="100.32783">
<time>2016-10-07T06:00:16Z</time></trkpt>
<trkpt lat="25.518827" lon="100.32764">
<time>2016-10-07T06:00:17Z</time></trkpt>
<trkpt lat="25.519058" lon="100.327451">
<time>2016-10-07T06:00:18Z</time></trkpt>
<trkpt lat="25.519288" lon="100.327281">
<time>2016-10-07T06:00:19Z</time></trkpt>
<trkpt lat="25.519539" lon="100.327161">
<time>2016-10-07T06:00:20Z</time></trkpt>
<trkpt lat="25.519819" lon="100.327112">
<time>2016-10-07T06:00:21Z</time></trkpt>
<trkpt lat="25.520099" lon="100.327082">
<time>2016-10-07T06:00:22Z</time></trkpt>
<trkpt lat="25.520379" lon="100.327072">
<time>2016-10-07T06:00:23Z</time></trkpt>
<trkpt lat="25.520659" lon="100.327062">
<time>2016-10-07T06:00:24Z</time></trkpt>
<trkpt lat="25.520939" lon="100.327052">
<time>2016-10-07T06:00:25Z</time></trkpt>
<trkpt lat="25.521219" lon="100.327042">
<time>2016-10-07T06:00:26Z</time></trkpt>
<trkpt lat="25.521499" lon="100.327022">
<time>2016-10-07T06:00:27Z</time></trkpt>
<trkpt lat="25.52178" lon="100.327002">
<time>2016-10-07T06:00:28Z</time></trkpt>
<trkpt lat="25.52195" lon="100.326982">
<time>2016-10-07T06:00:29Z</time></trkpt>
<trkpt lat="25.52215" lon="100.326952">
<time>2016-10-07T06:00:30Z</time></trkpt>
<trkpt lat="25.52231" lon="100.326912">
<time>2016-10-07T06:00:31Z</time></trkpt>
<trkpt lat="25.52249" lon="100.326852">
<time>2016-10-07T06:00:32Z</time></trkpt>
<trkpt lat="25.52275" lon="100.326772">
<time>2016-10-07T06:00:33Z</time></trkpt>
<trkpt lat="25.523011" lon="100.326702">
<time>2016-10-07T06:00:34Z</time></trkpt>
<trkpt lat="25.523261" lon="100.326623">
<time>2016-10-07T06:00:35Z</time></trkpt>
<trkpt lat="25.523491" lon="100.326533">
<time>2016-10-07T06:00:36Z</time></trkpt>
<trkpt lat="25.523721" lon="100.326453">
<time>2016-10-07T06:00:37Z</time></trkpt>
<trkpt lat="25.523932" lon="100.326373">
<time>2016-10-07T06:00:38Z</time></trkpt>
<trkpt lat="25.524152" lon="100.326273">
<time>2016-10-07T06:00:39Z</time></trkpt>
<trkpt lat="25.524362" lon="100.326203">
<time>2016-10-07T06:00:40Z</time></trkpt>
<trkpt lat="25.524632" lon="100.326114">
<time>2016-10-07T06:00:41Z</time></trkpt>
<trkpt lat="25.524872" lon="100.326044">
<time>2016-10-07T06:00:42Z</time></trkpt>
<trkpt lat="25.525103" lon="100.325984">
<time>2016-10-07T06:00:43Z</time></trkpt>
<trkpt lat="25.525363" lon="100.325904">
<time>2016-10-07T06:00:44Z</time></trkpt>
<trkpt lat="25.525623" lon="100.325864">
<time>2016-10-07T06:00:45Z</time></trkpt>
<trkpt lat="25.525843" lon="100.325864">
<time>2016-10-07T06:00:46Z</time></trkpt>
<trkpt lat="25.526053" lon="100.325904">
<time>2016-10-07T06:00:47Z</time></trkpt>
<trkpt lat="25.526273" lon="100.325944">
<time>2016-10-07T06:00:48Z</time></trkpt>
<trkpt lat="25.526523" lon="100.326004">
<time>2016-10-07T06:00:49Z</time></trkpt>
<trkpt lat="25.526953" lon="100.326124">
<time>2016-10-07T06:00:50Z</time></trkpt>
<trkpt lat="25.527893" lon="100.326303">
<time>2016-10-07T06:00:51Z</time></trkpt>
<trkpt lat="25.528563" lon="100.326423">
<time>2016-10-07T06:00:52Z</time></trkpt>
<trkpt lat="25.529743" lon="100.326602">
<time>2016-10-07T06:00:53Z</time></trkpt>
<trkpt lat="25.530233" lon="100.326712">
<time>2016-10-07T06:00:54Z</time></trkpt>
<trkpt lat="25.530943" lon="100.326872">
<time>2016-10-07T06:00:55Z</time></trkpt>
<trkpt lat="25.531063" lon="100.326922">
<time>2016-10-07T06:00:56Z</time></trkpt>
<trkpt lat="25.531623" lon="100.327021">
<time>2016-10-07T06:00:57Z</time></trkpt>
<trkpt lat="25.532173" lon="100.327101">
<time>2016-10-07T06:00:58Z</time></trkpt>
<trkpt lat="25.532313" lon="100.327121">
<time>2016-10-07T06:00:59Z</time></trkpt>
<trkpt lat="25.532753" lon="100.327191">
<time>2016-10-07T06:01:00Z</time></trkpt>
<trkpt lat="25.532963" lon="100.327231">
<time>2016-10-07T06:01:01Z</time></trkpt>
<trkpt lat="25.533043" lon="100.327251">
<time>2016-10-07T06:01:02Z</time></trkpt>
<trkpt lat="25.533403" lon="100.327301">
<time>2016-10-07T06:01:03Z</time></trkpt>
<trkpt lat="25.533793" lon="100.327371">
<time>2016-10-07T06:01:04Z</time></trkpt>
<trkpt lat="25.533953" lon="100.327391">
<time>2016-10-07T06:01:05Z</time></trkpt>
<trkpt lat="25.534213" lon="100.32744">
<time>2016-10-07T06:01:06Z</time></trkpt>
<trkpt lat="25.534393" lon="100.32747">
<time>2016-10-07T06:01:07Z</time></trkpt>
<trkpt lat="25.534763" lon="100.32753">
<time>2016-10-07T06:01:08Z</time></trkpt>
<trkpt lat="25.535223" lon="100.3276">
<time>2016-10-07T06:01:09Z</time></trkpt>
<trkpt lat="25.535473" lon="100.32765">
<time>2016-10-07T06:01:10Z</time></trkpt>
<trkpt lat="25.535473" lon="100.32765">
<time>2016-10-07T06:01:11Z</time></trkpt>
<trkpt lat="25.535503" lon="100.32764">
<time>2016-10-07T06:01:12Z</time></trkpt>
<trkpt lat="25.535533" lon="100.32765">
<time>2016-10-07T06:01:13Z</time></trkpt>
<trkpt lat="25.535583" lon="100.32766">
<time>2016-10-07T06:01:14Z</time></trkpt>
<trkpt lat="25.535713" lon="100.32768">
<time>2016-10-07T06:01:15Z</time></trkpt>
<trkpt lat="25.535843" lon="100.32771">
<time>2016-10-07T06:01:16Z</time></trkpt>
<trkpt lat="25.535993" lon="100.32777">
<time>2016-10-07T06:01:17Z</time></trkpt>
<trkpt lat="25.536133" lon="100.32782">
<time>2016-10-07T06:01:18Z</time></trkpt>
<trkpt lat="25.536333" lon="100.327899">
<time>2016-10-07T06:01:19Z</time></trkpt>
<trkpt lat="25.536453" lon="100.327949">
<time>2016-10-07T06:01:20Z</time></trkpt>
<trkpt lat="25.536543" lon="100.327949">
<time>2016-10-07T06:01:21Z</time></trkpt>
<trkpt lat="25.536903" lon="100.328089">
<time>2016-10-07T06:01:22Z</time></trkpt>
<trkpt lat="25.537323" lon="100.328229">
<time>2016-10-07T06:01:23Z</time></trkpt>
<trkpt lat="25.537773" lon="100.328358">
<time>2016-10-07T06:01:24Z</time></trkpt>
<trkpt lat="25.537993" lon="100.328418">
<time>2016-10-07T06:01:25Z</time></trkpt>
<trkpt lat="25.538073" lon="100.328448">
<time>2016-10-07T06:01:26Z</time></trkpt>
<trkpt lat="25.538443" lon="100.328528">
<time>2016-10-07T06:01:27Z</time></trkpt>
<trkpt lat="25.538773" lon="100.328608">
<time>2016-10-07T06:01:28Z</time></trkpt>
<trkpt lat="25.538813" lon="100.328618">
<time>2016-10-07T06:01:29Z</time></trkpt>
<trkpt lat="25.540373" lon="100.328907">
<time>2016-10-07T06:01:30Z</time></trkpt>
<trkpt lat="25.542893" lon="100.329306">
<time>2016-10-07T06:01:31Z</time></trkpt>
<trkpt lat="25.543453" lon="100.329396">
<time>2016-10-07T06:01:32Z</time></trkpt>
<trkpt lat="25.545403" lon="100.329695">
<time>2016-10-07T06:01:33Z</time></trkpt>
<trkpt lat="25.545533" lon="100.329715">
<time>2016-10-07T06:01:34Z</time></trkpt>
<trkpt lat="25.545553" lon="100.329715">
<time>2016-10-07T06:01:35Z</time></trkpt>
<trkpt lat="25.545763" lon="100.329745">
<time>2016-10-07T06:01:36Z</time></trkpt>
<trkpt lat="25.550584" lon="100.330274">
<time>2016-10-07T06:01:37Z</time></trkpt>
<trkpt lat="25.552004" lon="100.330433">
<time>2016-10-07T06:01:38Z</time></trkpt>
<trkpt lat="25.552514" lon="100.330493">
<time>2016-10-07T06:01:39Z</time></trkpt>
<trkpt lat="25.552954" lon="100.330443">
<time>2016-10-07T06:01:40Z</time></trkpt>
<trkpt lat="25.553265" lon="100.330334">
<time>2016-10-07T06:01:41Z</time></trkpt>
<trkpt lat="25.553815" lon="100.330084">
<time>2016-10-07T06:01:42Z</time></trkpt>
<trkpt lat="25.553986" lon="100.330004">
<time>2016-10-07T06:01:43Z</time></trkpt>
<trkpt lat="25.556579" lon="100.328797">
<time>2016-10-07T06:01:44Z</time></trkpt>
<trkpt lat="25.558131" lon="100.328078">
<time>2016-10-07T06:01:45Z</time></trkpt>
<trkpt lat="25.559142" lon="100.32758">
<time>2016-10-07T06:01:46Z</time></trkpt>
<trkpt lat="25.562226" lon="100.326043">
<time>2016-10-07T06:01:47Z</time></trkpt>
<trkpt lat="25.563148" lon="100.325594">
<time>2016-10-07T06:01:48Z</time></trkpt>
<trkpt lat="25.563979" lon="100.325185">
<time>2016-10-07T06:01:49Z</time></trkpt>
<trkpt lat="25.56498" lon="100.324686">
<time>2016-10-07T06:01:50Z</time></trkpt>
<trkpt lat="25.565671" lon="100.324317">
<time>2016-10-07T06:01:51Z</time></trkpt>
<trkpt lat="25.566152" lon="100.324067">
<time>2016-10-07T06:01:52Z</time></trkpt>
<trkpt lat="25.566392" lon="100.323957">
<time>2016-10-07T06:01:53Z</time></trkpt>
<trkpt lat="25.566442" lon="100.323937">
<time>2016-10-07T06:01:54Z</time></trkpt>
<trkpt lat="25.566542" lon="100.323887">
<time>2016-10-07T06:01:55Z</time></trkpt>
<trkpt lat="25.567253" lon="100.323548">
<time>2016-10-07T06:01:56Z</time></trkpt>
<trkpt lat="25.568435" lon="100.3229">
<time>2016-10-07T06:01:57Z</time></trkpt>
<trkpt lat="25.569276" lon="100.32246">
<time>2016-10-07T06:01:58Z</time></trkpt>
<trkpt lat="25.569556" lon="100.322351">
<time>2016-10-07T06:01:59Z</time></trkpt>
<trkpt lat="25.570467" lon="100.321982">
<time>2016-10-07T06:02:00Z</time></trkpt>
<trkpt lat="25.570537" lon="100.321962">
<time>2016-10-07T06:02:01Z</time></trkpt>
<trkpt lat="25.571148" lon="100.321842">
<time>2016-10-07T06:02:02Z</time></trkpt>
<trkpt lat="25.571718" lon="100.321762">
<time>2016-10-07T06:02:03Z</time></trkpt>
<trkpt lat="25.57554" lon="100.321532">
<time>2016-10-07T06:02:04Z</time></trkpt>
<trkpt lat="25.57572" lon="100.321492">
<time>2016-10-07T06:02:05Z</time></trkpt>
<trkpt lat="25.576151" lon="100.321393">
<time>2016-10-07T06:02:06Z</time></trkpt>
<trkpt lat="25.577082" lon="100.321063">
<time>2016-10-07T06:02:07Z</time></trkpt>
<trkpt lat="25.577673" lon="100.320744">
<time>2016-10-07T06:02:08Z</time></trkpt>
<trkpt lat="25.577853" lon="100.320644">
<time>2016-10-07T06:02:09Z</time></trkpt>
<trkpt lat="25.579385" lon="100.319726">
<time>2016-10-07T06:02:10Z</time></trkpt>
<trkpt lat="25.580016" lon="100.319337">
<time>2016-10-07T06:02:11Z</time></trkpt>
<trkpt lat="25.580287" lon="100.319187">
<time>2016-10-07T06:02:12Z</time></trkpt>
<trkpt lat="25.581729" lon="100.318369">
<time>2016-10-07T06:02:13Z</time></trkpt>
<trkpt lat="25.581869" lon="100.318289">
<time>2016-10-07T06:02:14Z</time></trkpt>
<trkpt lat="25.583131" lon="100.317511">
<time>2016-10-07T06:02:15Z</time></trkpt>
<trkpt lat="25.583351" lon="100.317421">
<time>2016-10-07T06:02:16Z</time></trkpt>
<trkpt lat="25.585555" lon="100.316164">
<time>2016-10-07T06:02:17Z</time></trkpt>
<trkpt lat="25.588008" lon="100.314757">
<time>2016-10-07T06:02:18Z</time></trkpt>
<trkpt lat="25.591573" lon="100.312721">
<time>2016-10-07T06:02:19Z</time></trkpt>
<trkpt lat="25.593927" lon="100.311384">
<time>2016-10-07T06:02:20Z</time></trkpt>
<trkpt lat="25.596921" lon="100.309677">
<time>2016-10-07T06:02:21Z</time></trkpt>
<trkpt lat="25.597021" lon="100.309617">
<time>2016-10-07T06:02:22Z</time></trkpt>
<trkpt lat="25.599906" lon="100.30798">
<time>2016-10-07T06:02:23Z</time></trkpt>
<trkpt lat="25.601468" lon="100.307092">
<time>2016-10-07T06:02:24Z</time></trkpt>
<trkpt lat="25.602539" lon="100.306483">
<time>2016-10-07T06:02:25Z</time></trkpt>
<trkpt lat="25.60263" lon="100.306424">
<time>2016-10-07T06:02:26Z</time></trkpt>
<trkpt lat="25.60273" lon="100.306374">
<time>2016-10-07T06:02:27Z</time></trkpt>
<trkpt lat="25.6029" lon="100.306274">
<time>2016-10-07T06:02:28Z</time></trkpt>
<trkpt lat="25.607306" lon="100.303769">
<time>2016-10-07T06:02:29Z</time></trkpt>
<trkpt lat="25.607527" lon="100.303649">
<time>2016-10-07T06:02:30Z</time></trkpt>
<trkpt lat="25.608999" lon="100.302801">
<time>2016-10-07T06:02:31Z</time></trkpt>
<trkpt lat="25.60994" lon="100.302212">
<time>2016-10-07T06:02:32Z</time></trkpt>
<trkpt lat="25.610101" lon="100.301992">
<time>2016-10-07T06:02:33Z</time></trkpt>
<trkpt lat="25.610973" lon="100.300734">
<time>2016-10-07T06:02:34Z</time></trkpt>
<trkpt lat="25.611294" lon="100.300066">
<time>2016-10-07T06:02:35Z</time></trkpt>
<trkpt lat="25.611536" lon="100.299317">
<time>2016-10-07T06:02:36Z</time></trkpt>
<trkpt lat="25.611727" lon="100.298538">
<time>2016-10-07T06:02:37Z</time></trkpt>
<trkpt lat="25.611798" lon="100.29777">
<time>2016-10-07T06:02:38Z</time></trkpt>
<trkpt lat="25.611809" lon="100.296981">
<time>2016-10-07T06:02:39Z</time></trkpt>
<trkpt lat="25.61181" lon="100.296742">
<time>2016-10-07T06:02:40Z</time></trkpt>
<trkpt lat="25.61181" lon="100.296442">
<time>2016-10-07T06:02:41Z</time></trkpt>
<trkpt lat="25.61181" lon="100.296382">
<time>2016-10-07T06:02:42Z</time></trkpt>
<trkpt lat="25.611802" lon="100.295115">
<time>2016-10-07T06:02:43Z</time></trkpt>
<trkpt lat="25.611803" lon="100.295005">
<time>2016-10-07T06:02:44Z</time></trkpt>
<trkpt lat="25.611784" lon="100.294106">
<time>2016-10-07T06:02:45Z</time></trkpt>
<trkpt lat="25.611784" lon="100.294106">
<time>2016-10-07T06:02:46Z</time></trkpt>
<trkpt lat="25.611894" lon="100.294046">
<time>2016-10-07T06:02:47Z</time></trkpt>
<trkpt lat="25.611894" lon="100.294046">
<time>2016-10-07T06:02:48Z</time></trkpt>
<trkpt lat="25.611875" lon="100.293328">
<time>2016-10-07T06:02:49Z</time></trkpt>
<trkpt lat="25.611856" lon="100.292469">
<time>2016-10-07T06:02:50Z</time></trkpt>
<trkpt lat="25.611758" lon="100.291621">
<time>2016-10-07T06:02:51Z</time></trkpt>
<trkpt lat="25.611509" lon="100.290702">
<time>2016-10-07T06:02:52Z</time></trkpt>
<trkpt lat="25.611369" lon="100.290293">
<time>2016-10-07T06:02:53Z</time></trkpt>
<trkpt lat="25.611309" lon="100.290143">
<time>2016-10-07T06:02:54Z</time></trkpt>
<trkpt lat="25.61124" lon="100.289993">
<time>2016-10-07T06:02:55Z</time></trkpt>
<trkpt lat="25.61111" lon="100.289714">
<time>2016-10-07T06:02:56Z</time></trkpt>
<trkpt lat="25.61109" lon="100.289664">
<time>2016-10-07T06:02:57Z</time></trkpt>
<trkpt lat="25.610811" lon="100.289195">
<time>2016-10-07T06:02:58Z</time></trkpt>
<trkpt lat="25.610511" lon="100.288805">
<time>2016-10-07T06:02:59Z</time></trkpt>
<trkpt lat="25.610051" lon="100.288286">
<time>2016-10-07T06:03:00Z</time></trkpt>
<trkpt lat="25.609412" lon="100.287637">
<time>2016-10-07T06:03:01Z</time></trkpt>
<trkpt lat="25.609072" lon="100.287298">
<time>2016-10-07T06:03:02Z</time></trkpt>
<trkpt lat="25.608703" lon="100.286868">
<time>2016-10-07T06:03:03Z</time></trkpt>
<trkpt lat="25.608233" lon="100.286279">
<time>2016-10-07T06:03:04Z</time></trkpt>
<trkpt lat="25.608044" lon="100.286009">
<time>2016-10-07T06:03:05Z</time></trkpt>
<trkpt lat="25.607874" lon="100.28577">
<time>2016-10-07T06:03:06Z</time></trkpt>
<trkpt lat="25.607654" lon="100.28545">
<time>2016-10-07T06:03:07Z</time></trkpt>
<trkpt lat="25.607544" lon="100.285291">
<time>2016-10-07T06:03:08Z</time></trkpt>
<trkpt lat="25.607434" lon="100.285121">
<time>2016-10-07T06:03:09Z</time></trkpt>
<trkpt lat="25.607275" lon="100.284861">
<time>2016-10-07T06:03:10Z</time></trkpt>
<trkpt lat="25.607005" lon="100.284392">
<time>2016-10-07T06:03:11Z</time></trkpt>
<trkpt lat="25.606835" lon="100.284082">
<time>2016-10-07T06:03:12Z</time></trkpt>
<trkpt lat="25.606666" lon="100.283763">
<time>2016-10-07T06:03:13Z</time></trkpt>
<trkpt lat="25.60473" lon="100.279409">
<time>2016-10-07T06:03:14Z</time></trkpt>
<trkpt lat="25.60466" lon="100.279249">
<time>2016-10-07T06:03:15Z</time></trkpt>
<trkpt lat="25.604021" lon="100.277861">
<time>2016-10-07T06:03:16Z</time></trkpt>
<trkpt lat="25.603712" lon="100.277181">
<time>2016-10-07T06:03:17Z</time></trkpt>
<trkpt lat="25.603393" lon="100.276472">
<time>2016-10-07T06:03:18Z</time></trkpt>
<trkpt lat="25.602923" lon="100.275433">
<time>2016-10-07T06:03:19Z</time></trkpt>
<trkpt lat="25.602823" lon="100.275224">
<time>2016-10-07T06:03:20Z</time></trkpt>
<trkpt lat="25.602754" lon="100.275054">
<time>2016-10-07T06:03:21Z</time></trkpt>
<trkpt lat="25.602584" lon="100.274674">
<time>2016-10-07T06:03:22Z</time></trkpt>
<trkpt lat="25.602224" lon="100.273895">
<time>2016-10-07T06:03:23Z</time></trkpt>
<trkpt lat="25.602125" lon="100.273655">
<time>2016-10-07T06:03:24Z</time></trkpt>
<trkpt lat="25.601266" lon="100.271757">
<time>2016-10-07T06:03:25Z</time></trkpt>
<trkpt lat="25.600227" lon="100.269459">
<time>2016-10-07T06:03:26Z</time></trkpt>
<trkpt lat="25.599978" lon="100.26887">
<time>2016-10-07T06:03:27Z</time></trkpt>
<trkpt lat="25.599958" lon="100.26881">
<time>2016-10-07T06:03:28Z</time></trkpt>
<trkpt lat="25.599778" lon="100.26834">
<time>2016-10-07T06:03:29Z</time></trkpt>
<trkpt lat="25.599638" lon="100.267971">
<time>2016-10-07T06:03:30Z</time></trkpt>
<trkpt lat="25.599528" lon="100.267641">
<time>2016-10-07T06:03:31Z</time></trkpt>
<trkpt lat="25.599508" lon="100.267581">
<time>2016-10-07T06:03:32Z</time></trkpt>
<trkpt lat="25.599508" lon="100.267581">
<time>2016-10-07T06:03:33Z</time></trkpt>
<trkpt lat="25.599939" lon="100.267411">
<time>2016-10-07T06:03:34Z</time></trkpt>
<trkpt lat="25.600069" lon="100.267361">
<time>2016-10-07T06:03:35Z</time></trkpt>
<trkpt lat="25.600169" lon="100.267301">
<time>2016-10-07T06:03:36Z</time></trkpt>
<trkpt lat="25.600299" lon="100.267191">
<time>2016-10-07T06:03:37Z</time></trkpt>
<trkpt lat="25.600339" lon="100.267141">
<time>2016-10-07T06:03:38Z</time></trkpt>
<trkpt lat="25.600349" lon="100.267101">
<time>2016-10-07T06:03:39Z</time></trkpt>
<trkpt lat="25.600359" lon="100.267052">
<time>2016-10-07T06:03:40Z</time></trkpt>
<trkpt lat="25.600349" lon="100.266982">
<time>2016-10-07T06:03:41Z</time></trkpt>
<trkpt lat="25.600339" lon="100.266872">
<time>2016-10-07T06:03:42Z</time></trkpt>
<trkpt lat="25.600329" lon="100.266762">
<time>2016-10-07T06:03:43Z</time></trkpt>
<trkpt lat="25.600349" lon="100.266632">
<time>2016-10-07T06:03:44Z</time></trkpt>
<trkpt lat="25.60037" lon="100.266492">
<time>2016-10-07T06:03:45Z</time></trkpt>
<trkpt lat="25.60042" lon="100.266342">
<time>2016-10-07T06:03:46Z</time></trkpt>
<trkpt lat="25.60042" lon="100.266342">
<time>2016-10-07T06:03:47Z</time></trkpt>
<trkpt lat="25.60039" lon="100.266332">
<time>2016-10-07T06:03:48Z</time></trkpt>
<trkpt lat="25.60035" lon="100.266312">
<time>2016-10-07T06:03:49Z</time></trkpt>
<trkpt lat="25.60031" lon="100.266272">
<time>2016-10-07T06:03:50Z</time></trkpt>
<trkpt lat="25.60027" lon="100.266222">
<time>2016-10-07T06:03:51Z</time></trkpt>
<trkpt lat="25.60024" lon="100.266172">
<time>2016-10-07T06:03:52Z</time></trkpt>
<trkpt lat="25.60022" lon="100.266112">
<time>2016-10-07T06:03:53Z</time></trkpt>
<trkpt lat="25.60021" lon="100.266052">
<time>2016-10-07T06:03:54Z</time></trkpt>
<trkpt lat="25.60021" lon="100.266002">
<time>2016-10-07T06:03:55Z</time></trkpt>
<trkpt lat="25.60022" lon="100.265952">
<time>2016-10-07T06:03:56Z</time></trkpt>
<trkpt lat="25.60025" lon="100.265872">
<time>2016-10-07T06:03:57Z</time></trkpt>
<trkpt lat="25.60029" lon="100.265792">
<time>2016-10-07T06:03:58Z</time></trkpt>
<trkpt lat="25.60033" lon="100.265733">
<time>2016-10-07T06:03:59Z</time></trkpt>
<trkpt lat="25.60039" lon="100.265663">
<time>2016-10-07T06:04:00Z</time></trkpt>
<trkpt lat="25.60064" lon="100.265433">
<time>2016-10-07T06:04:01Z</time></trkpt>
<trkpt lat="25.60072" lon="100.265343">
<time>2016-10-07T06:04:02Z</time></trkpt>
<trkpt lat="25.60076" lon="100.265293">
<time>2016-10-07T06:04:03Z</time></trkpt>
<trkpt lat="25.600801" lon="100.265223">
<time>2016-10-07T06:04:04Z</time></trkpt>
<trkpt lat="25.600831" lon="100.265173">
<time>2016-10-07T06:04:05Z</time></trkpt>
<trkpt lat="25.600831" lon="100.265163">
<time>2016-10-07T06:04:06Z</time></trkpt>
<trkpt lat="25.600851" lon="100.265103">
<time>2016-10-07T06:04:07Z</time></trkpt>
<trkpt lat="25.600861" lon="100.265053">
<time>2016-10-07T06:04:08Z</time></trkpt>
<trkpt lat="25.600871" lon="100.264973">
<time>2016-10-07T06:04:09Z</time></trkpt>
<trkpt lat="25.600881" lon="100.264903">
<time>2016-10-07T06:04:10Z</time></trkpt>
<trkpt lat="25.600881" lon="100.264833">
<time>2016-10-07T06:04:11Z</time></trkpt>
<trkpt lat="25.600891" lon="100.264623">
<time>2016-10-07T06:04:12Z</time></trkpt>
<trkpt lat="25.600891" lon="100.264553">
<time>2016-10-07T06:04:13Z</time></trkpt>
<trkpt lat="25.600891" lon="100.264473">
<time>2016-10-07T06:04:14Z</time></trkpt>
<trkpt lat="25.600881" lon="100.264403">
<time>2016-10-07T06:04:15Z</time></trkpt>
<trkpt lat="25.600871" lon="100.264334">
<time>2016-10-07T06:04:16Z</time></trkpt>
<trkpt lat="25.600861" lon="100.264264">
<time>2016-10-07T06:04:17Z</time></trkpt>
<trkpt lat="25.600841" lon="100.264204">
<time>2016-10-07T06:04:18Z</time></trkpt>
<trkpt lat="25.600811" lon="100.264144">
<time>2016-10-07T06:04:19Z</time></trkpt>
<trkpt lat="25.600791" lon="100.264094">
<time>2016-10-07T06:04:20Z</time></trkpt>
<trkpt lat="25.600771" lon="100.264034">
<time>2016-10-07T06:04:21Z</time></trkpt>
<trkpt lat="25.600731" lon="100.263974">
<time>2016-10-07T06:04:22Z</time></trkpt>
<trkpt lat="25.600511" lon="100.263624">
<time>2016-10-07T06:04:23Z</time></trkpt>
<trkpt lat="25.600511" lon="100.263624">
<time>2016-10-07T06:04:24Z</time></trkpt>
<trkpt lat="25.600662" lon="100.263454">
<time>2016-10-07T06:04:25Z</time></trkpt>
<trkpt lat="25.601332" lon="100.262675">
<time>2016-10-07T06:04:26Z</time></trkpt>
<trkpt lat="25.601522" lon="100.262455">
<time>2016-10-07T06:04:27Z</time></trkpt>
<trkpt lat="25.601583" lon="100.262385">
<time>2016-10-07T06:04:28Z</time></trkpt>
<trkpt lat="25.602273" lon="100.261575">
<time>2016-10-07T06:04:29Z</time></trkpt>
<trkpt lat="25.602483" lon="100.261325">
<time>2016-10-07T06:04:30Z</time></trkpt>
<trkpt lat="25.602834" lon="100.260906">
<time>2016-10-07T06:04:31Z</time></trkpt>
<trkpt lat="25.603494" lon="100.260116">
<time>2016-10-07T06:04:32Z</time></trkpt>
<trkpt lat="25.603524" lon="100.260076">
<time>2016-10-07T06:04:33Z</time></trkpt>
<trkpt lat="25.603985" lon="100.259526">
<time>2016-10-07T06:04:34Z</time></trkpt>
<trkpt lat="25.604635" lon="100.258807">
<time>2016-10-07T06:04:35Z</time></trkpt>
<trkpt lat="25.604655" lon="100.258777">
<time>2016-10-07T06:04:36Z</time></trkpt>
<trkpt lat="25.604655" lon="100.258777">
<time>2016-10-07T06:04:37Z</time></trkpt>
<trkpt lat="25.604655" lon="100.258767">
<time>2016-10-07T06:04:38Z</time></trkpt>
<trkpt lat="25.604635" lon="100.258717">
<time>2016-10-07T06:04:39Z</time></trkpt>
<trkpt lat="25.604616" lon="100.258667">
<time>2016-10-07T06:04:40Z</time></trkpt>
<trkpt lat="25.604396" lon="100.257947">
<time>2016-10-07T06:04:41Z</time></trkpt>
<trkpt lat="25.604396" lon="100.257947">
<time>2016-10-07T06:04:42Z</time></trkpt>
<trkpt lat="25.604446" lon="100.257927">
<time>2016-10-07T06:04:43Z</time></trkpt>
<trkpt lat="25.604446" lon="100.257927">
<time>2016-10-07T06:04:44Z</time></trkpt>
<trkpt lat="25.603976" lon="100.256428">
<time>2016-10-07T06:04:45Z</time></trkpt>
<trkpt lat="25.603976" lon="100.256418">
<time>2016-10-07T06:04:46Z</time></trkpt>
<trkpt lat="25.603616" lon="100.255288">
<time>2016-10-07T06:04:47Z</time></trkpt>
<trkpt lat="25.603566" lon="100.255098">
<time>2016-10-07T06:04:48Z</time></trkpt>
<trkpt lat="25.603546" lon="100.255038">
<time>2016-10-07T06:04:49Z</time></trkpt>
<trkpt lat="25.603226" lon="100.254038">
<time>2016-10-07T06:04:50Z</time></trkpt>
<trkpt lat="25.603066" lon="100.253558">
<time>2016-10-07T06:04:51Z</time></trkpt>
<trkpt lat="25.602966" lon="100.253228">
<time>2016-10-07T06:04:52Z</time></trkpt>
<trkpt lat="25.602906" lon="100.253049">
<time>2016-10-07T06:04:53Z</time></trkpt>
<trkpt lat="25.602726" lon="100.252459">
<time>2016-10-07T06:04:54Z</time></trkpt>
<trkpt lat="25.602656" lon="100.252249">
<time>2016-10-07T06:04:55Z</time></trkpt>
<trkpt lat="25.602596" lon="100.252029">
<time>2016-10-07T06:04:56Z</time></trkpt>
<trkpt lat="25.602426" lon="100.251489">
<time>2016-10-07T06:04:57Z</time></trkpt>
<trkpt lat="25.602306" lon="100.251129">
<time>2016-10-07T06:04:58Z</time></trkpt>
<trkpt lat="25.601936" lon="100.250019">
<time>2016-10-07T06:04:59Z</time></trkpt>
<trkpt lat="25.601506" lon="100.248519">
<time>2016-10-07T06:05:00Z</time></trkpt>
<trkpt lat="25.601486" lon="100.248459">
<time>2016-10-07T06:05:01Z</time></trkpt>
<trkpt lat="25.601326" lon="100.247919">
<time>2016-10-07T06:05:02Z</time></trkpt>
<trkpt lat="25.601256" lon="100.247699">
<time>2016-10-07T06:05:03Z</time></trkpt>
<trkpt lat="25.601056" lon="100.247049">
<time>2016-10-07T06:05:04Z</time></trkpt>
<trkpt lat="25.600866" lon="100.246399">
<time>2016-10-07T06:05:05Z</time></trkpt>
<trkpt lat="25.600766" lon="100.246129">
<time>2016-10-07T06:05:06Z</time></trkpt>
<trkpt lat="25.600766" lon="100.246129">
<time>2016-10-07T06:05:07Z</time></trkpt>
<trkpt lat="25.600585" lon="100.245369">
<time>2016-10-07T06:05:08Z</time></trkpt>
<trkpt lat="25.600555" lon="100.245159">
<time>2016-10-07T06:05:09Z</time></trkpt>
<trkpt lat="25.600455" lon="100.244499">
<time>2016-10-07T06:05:10Z</time></trkpt>
<trkpt lat="25.600345" lon="100.243779">
<time>2016-10-07T06:05:11Z</time></trkpt>
<trkpt lat="25.600345" lon="100.243769">
<time>2016-10-07T06:05:12Z</time></trkpt>
<trkpt lat="25.600295" lon="100.243489">
<time>2016-10-07T06:05:13Z</time></trkpt>
<trkpt lat="25.600205" lon="100.243009">
<time>2016-10-07T06:05:14Z</time></trkpt>
<trkpt lat="25.600095" lon="100.242378">
<time>2016-10-07T06:05:15Z</time></trkpt>
<trkpt lat="25.600045" lon="100.242098">
<time>2016-10-07T06:05:16Z</time></trkpt>
<trkpt lat="25.600045" lon="100.242088">
<time>2016-10-07T06:05:17Z</time></trkpt>
<trkpt lat="25.599894" lon="100.241288">
<time>2016-10-07T06:05:18Z</time></trkpt>
<trkpt lat="25.599884" lon="100.241198">
<time>2016-10-07T06:05:19Z</time></trkpt>
<trkpt lat="25.599794" lon="100.240668">
<time>2016-10-07T06:05:20Z</time></trkpt>
<trkpt lat="25.599694" lon="100.240138">
<time>2016-10-07T06:05:21Z</time></trkpt>
<trkpt lat="25.599473" lon="100.238797">
<time>2016-10-07T06:05:22Z</time></trkpt>
<trkpt lat="25.599343" lon="100.238027">
<time>2016-10-07T06:05:23Z</time></trkpt>
<trkpt lat="25.599333" lon="100.237917">
<time>2016-10-07T06:05:24Z</time></trkpt>
<trkpt lat="25.599313" lon="100.237707">
<time>2016-10-07T06:05:25Z</time></trkpt>
<trkpt lat="25.599313" lon="100.237647">
<time>2016-10-07T06:05:26Z</time></trkpt>
<trkpt lat="25.599303" lon="100.237497">
<time>2016-10-07T06:05:27Z</time></trkpt>
<trkpt lat="25.599293" lon="100.237387">
<time>2016-10-07T06:05:28Z</time></trkpt>
<trkpt lat="25.599302" lon="100.236756">
<time>2016-10-07T06:05:29Z</time></trkpt>
<trkpt lat="25.599302" lon="100.236666">
<time>2016-10-07T06:05:30Z</time></trkpt>
<trkpt lat="25.599312" lon="100.236346">
<time>2016-10-07T06:05:31Z</time></trkpt>
<trkpt lat="25.599312" lon="100.235916">
<time>2016-10-07T06:05:32Z</time></trkpt>
<trkpt lat="25.599302" lon="100.235366">
<time>2016-10-07T06:05:33Z</time></trkpt>
<trkpt lat="25.599302" lon="100.235156">
<time>2016-10-07T06:05:34Z</time></trkpt>
<trkpt lat="25.599301" lon="100.234915">
<time>2016-10-07T06:05:35Z</time></trkpt>
<trkpt lat="25.599291" lon="100.234505">
<time>2016-10-07T06:05:36Z</time></trkpt>
<trkpt lat="25.599281" lon="100.233565">
<time>2016-10-07T06:05:37Z</time></trkpt>
<trkpt lat="25.599251" lon="100.233465">
<time>2016-10-07T06:05:38Z</time></trkpt>
<trkpt lat="25.599251" lon="100.233335">
<time>2016-10-07T06:05:39Z</time></trkpt>
<trkpt lat="25.59924" lon="100.232664">
<time>2016-10-07T06:05:40Z</time></trkpt>
<trkpt lat="25.599259" lon="100.231433">
<time>2016-10-07T06:05:41Z</time></trkpt>
<trkpt lat="25.599259" lon="100.231433">
<time>2016-10-07T06:05:42Z</time></trkpt>
<trkpt lat="25.59952" lon="100.231383">
<time>2016-10-07T06:05:43Z</time></trkpt>
<trkpt lat="25.59979" lon="100.231373">
<time>2016-10-07T06:05:44Z</time></trkpt>
<trkpt lat="25.60062" lon="100.231353">
<time>2016-10-07T06:05:45Z</time></trkpt>
<trkpt lat="25.60087" lon="100.231293">
<time>2016-10-07T06:05:46Z</time></trkpt>
<trkpt lat="25.60091" lon="100.231283">
<time>2016-10-07T06:05:47Z</time></trkpt>
<trkpt lat="25.60138" lon="100.231133">
<time>2016-10-07T06:05:48Z</time></trkpt>
<trkpt lat="25.60156" lon="100.231043">
<time>2016-10-07T06:05:49Z</time></trkpt>
<trkpt lat="25.60172" lon="100.230923">
<time>2016-10-07T06:05:50Z</time></trkpt>
<trkpt lat="25.60176" lon="100.230883">
<time>2016-10-07T06:05:51Z</time></trkpt>
<trkpt lat="25.60203" lon="100.230663">
<time>2016-10-07T06:05:52Z</time></trkpt>
<trkpt lat="25.60221" lon="100.230503">
<time>2016-10-07T06:05:53Z</time></trkpt>
<trkpt lat="25.60335" lon="100.229512">
<time>2016-10-07T06:05:54Z</time></trkpt>
<trkpt lat="25.6037" lon="100.229182">
<time>2016-10-07T06:05:55Z</time></trkpt>
<trkpt lat="25.60401" lon="100.228891">
<time>2016-10-07T06:05:56Z</time></trkpt>
<trkpt lat="25.60423" lon="100.228671">
<time>2016-10-07T06:05:57Z</time></trkpt>
<trkpt lat="25.60477" lon="100.228151">
<time>2016-10-07T06:05:58Z</time></trkpt>
<trkpt lat="25.60486" lon="100.228081">
<time>2016-10-07T06:05:59Z</time></trkpt>
<trkpt lat="25.60491" lon="100.228041">
<time>2016-10-07T06:06:00Z</time></trkpt>
<trkpt lat="25.60509" lon="100.22788">
<time>2016-10-07T06:06:01Z</time></trkpt>
<trkpt lat="25.6053" lon="100.22773">
<time>2016-10-07T06:06:02Z</time></trkpt>
<trkpt lat="25.60547" lon="100.22766">
<time>2016-10-07T06:06:03Z</time></trkpt>
<trkpt lat="25.60566" lon="100.22762">
<time>2016-10-07T06:06:04Z</time></trkpt>
<trkpt lat="25.6057" lon="100.22761">
<time>2016-10-07T06:06:05Z</time></trkpt>
<trkpt lat="25.6057" lon="100.22761">
<time>2016-10-07T06:06:06Z</time></trkpt>
<trkpt lat="25.605779" lon="100.22736">
<time>2016-10-07T06:06:07Z</time></trkpt>
<trkpt lat="25.605789" lon="100.22733">
<time>2016-10-07T06:06:08Z</time></trkpt>
<trkpt lat="25.605789" lon="100.2273">
<time>2016-10-07T06:06:09Z</time></trkpt>
<trkpt lat="25.605789" lon="100.22725">
<time>2016-10-07T06:06:10Z</time></trkpt>
<trkpt lat="25.605709" lon="100.226659">
<time>2016-10-07T06:06:11Z</time></trkpt>
<trkpt lat="25.605709" lon="100.226659">
<time>2016-10-07T06:06:12Z</time></trkpt>
<trkpt lat="25.606029" lon="100.226609">
<time>2016-10-07T06:06:13Z</time></trkpt>
<trkpt lat="25.606039" lon="100.226609">
<time>2016-10-07T06:06:14Z</time></trkpt>
<trkpt lat="25.606059" lon="100.226599">
<time>2016-10-07T06:06:15Z</time></trkpt>
<trkpt lat="25.606069" lon="100.226589">
<time>2016-10-07T06:06:16Z</time></trkpt>
<trkpt lat="25.606069" lon="100.226579">
<time>2016-10-07T06:06:17Z</time></trkpt>
<trkpt lat="25.606159" lon="100.226049">
<time>2016-10-07T06:06:18Z</time></trkpt>
<trkpt lat="25.606159" lon="100.226039">
<time>2016-10-07T06:06:19Z</time></trkpt>
<trkpt lat="25.606169" lon="100.226039">
<time>2016-10-07T06:06:20Z</time></trkpt>
<trkpt lat="25.606169" lon="100.226029">
<time>2016-10-07T06:06:21Z</time></trkpt>
<trkpt lat="25.606179" lon="100.226029">
<time>2016-10-07T06:06:22Z</time></trkpt>
<trkpt lat="25.606189" lon="100.226029">
<time>2016-10-07T06:06:23Z</time></trkpt>
<trkpt lat="25.606239" lon="100.226039">
<time>2016-10-07T06:06:24Z</time></trkpt>
<trkpt lat="25.606249" lon="100.226039">
<time>2016-10-07T06:06:25Z</time></trkpt>
<trkpt lat="25.606249" lon="100.226029">
<time>2016-10-07T06:06:26Z</time></trkpt>
<trkpt lat="25.606259" lon="100.226029">
<time>2016-10-07T06:06:27Z</time></trkpt>
<trkpt lat="25.606259" lon="100.226009">
<time>2016-10-07T06:06:28Z</time></trkpt>
<trkpt lat="25.606278" lon="100.225899">
<time>2016-10-07T06:06:29Z</time></trkpt>
<trkpt lat="25.606288" lon="100.225899">
<time>2016-10-07T06:06:30Z</time></trkpt>
<trkpt lat="25.606288" lon="100.225889">
<time>2016-10-07T06:06:31Z</time></trkpt>
<trkpt lat="25.606298" lon="100.225889">
<time>2016-10-07T06:06:32Z</time></trkpt>
<trkpt lat="25.606298" lon="100.225899">
<time>2016-10-07T06:06:33Z</time></trkpt>
<trkpt lat="25.606909" lon="100.225849">
<time>2016-10-07T06:06:34Z</time></trkpt>
<trkpt lat="25.606909" lon="100.225849">
<time>2016-10-07T06:06:35Z</time></trkpt>
<trkpt lat="25.606858" lon="100.225468">
<time>2016-10-07T06:06:36Z</time></trkpt>
<trkpt lat="25.606808" lon="100.224978">
<time>2016-10-07T06:06:37Z</time></trkpt>
<trkpt lat="25.606778" lon="100.224748">
<time>2016-10-07T06:06:38Z</time></trkpt>
<trkpt lat="25.606747" lon="100.224477">
<time>2016-10-07T06:06:39Z</time></trkpt>
<trkpt lat="25.606697" lon="100.224147">
<time>2016-10-07T06:06:40Z</time></trkpt>
<trkpt lat="25.606687" lon="100.224107">
<time>2016-10-07T06:06:41Z</time></trkpt>
<trkpt lat="25.606617" lon="100.223807">
<time>2016-10-07T06:06:42Z</time></trkpt>
<trkpt lat="25.606536" lon="100.223396">
<time>2016-10-07T06:06:43Z</time></trkpt>
<trkpt lat="25.606506" lon="100.223256">
<time>2016-10-07T06:06:44Z</time></trkpt>
<trkpt lat="25.606426" lon="100.222886">
<time>2016-10-07T06:06:45Z</time></trkpt>
<trkpt lat="25.606396" lon="100.222736">
<time>2016-10-07T06:06:46Z</time></trkpt>
<trkpt lat="25.606325" lon="100.222405">
<time>2016-10-07T06:06:47Z</time></trkpt>
<trkpt lat="25.606235" lon="100.221865">
<time>2016-10-07T06:06:48Z</time></trkpt>
<trkpt lat="25.606154" lon="100.221334">
<time>2016-10-07T06:06:49Z</time></trkpt>
<trkpt lat="25.606154" lon="100.221334">
<time>2016-10-07T06:06:50Z</time></trkpt>
<trkpt lat="25.606494" lon="100.221304">
<time>2016-10-07T06:06:51Z</time></trkpt>
<trkpt lat="25.607995" lon="100.221224">
<time>2016-10-07T06:06:52Z</time></trkpt>
<trkpt lat="25.608075" lon="100.221204">
<time>2016-10-07T06:06:53Z</time></trkpt>
<trkpt lat="25.608765" lon="100.221054">
<time>2016-10-07T06:06:54Z</time></trkpt>
<trkpt lat="25.608925" lon="100.221024">
<time>2016-10-07T06:06:55Z</time></trkpt>
<trkpt lat="25.609645" lon="100.220904">
<time>2016-10-07T06:06:56Z</time></trkpt>
<trkpt lat="25.611606" lon="100.220573">
<time>2016-10-07T06:06:57Z</time></trkpt>
<trkpt lat="25.611656" lon="100.220553">
<time>2016-10-07T06:06:58Z</time></trkpt>
<trkpt lat="25.611896" lon="100.220493">
<time>2016-10-07T06:06:59Z</time></trkpt>
<trkpt lat="25.612336" lon="100.220373">
<time>2016-10-07T06:07:00Z</time></trkpt>
<trkpt lat="25.613016" lon="100.220143">
<time>2016-10-07T06:07:01Z</time></trkpt>
<trkpt lat="25.613966" lon="100.219822">
<time>2016-10-07T06:07:02Z</time></trkpt>
<trkpt lat="25.614616" lon="100.219622">
<time>2016-10-07T06:07:03Z</time></trkpt>
<trkpt lat="25.615606" lon="100.219302">
<time>2016-10-07T06:07:04Z</time></trkpt>
<trkpt lat="25.616217" lon="100.219121">
<time>2016-10-07T06:07:05Z</time></trkpt>
<trkpt lat="25.617127" lon="100.218841">
<time>2016-10-07T06:07:06Z</time></trkpt>
<trkpt lat="25.617157" lon="100.218831">
<time>2016-10-07T06:07:07Z</time></trkpt>
<trkpt lat="25.617587" lon="100.218601">
<time>2016-10-07T06:07:08Z</time></trkpt>
<trkpt lat="25.617897" lon="100.218421">
<time>2016-10-07T06:07:09Z</time></trkpt>
<trkpt lat="25.618696" lon="100.21795">
<time>2016-10-07T06:07:10Z</time></trkpt>
<trkpt lat="25.619226" lon="100.21763">
<time>2016-10-07T06:07:11Z</time></trkpt>
<trkpt lat="25.619376" lon="100.217549">
<time>2016-10-07T06:07:12Z</time></trkpt>
<trkpt lat="25.620006" lon="100.217169">
<time>2016-10-07T06:07:13Z</time></trkpt>
<trkpt lat="25.620056" lon="100.217149">
<time>2016-10-07T06:07:14Z</time></trkpt>
<trkpt lat="25.620126" lon="100.217099">
<time>2016-10-07T06:07:15Z</time></trkpt>
<trkpt lat="25.620516" lon="100.216869">
<time>2016-10-07T06:07:16Z</time></trkpt>
<trkpt lat="25.621176" lon="100.216468">
<time>2016-10-07T06:07:17Z</time></trkpt>
<trkpt lat="25.622116" lon="100.215897">
<time>2016-10-07T06:07:18Z</time></trkpt>
<trkpt lat="25.622286" lon="100.215797">
<time>2016-10-07T06:07:19Z</time></trkpt>
<trkpt lat="25.622576" lon="100.215627">
<time>2016-10-07T06:07:20Z</time></trkpt>
<trkpt lat="25.622576" lon="100.215627">
<time>2016-10-07T06:07:21Z</time></trkpt>
<trkpt lat="25.622596" lon="100.215597">
<time>2016-10-07T06:07:22Z</time></trkpt>
<trkpt lat="25.623245" lon="100.215216">
<time>2016-10-07T06:07:23Z</time></trkpt>
<trkpt lat="25.623335" lon="100.215156">
<time>2016-10-07T06:07:24Z</time></trkpt>
<trkpt lat="25.623435" lon="100.215086">
<time>2016-10-07T06:07:25Z</time></trkpt>
<trkpt lat="25.624095" lon="100.214616">
<time>2016-10-07T06:07:26Z</time></trkpt>
<trkpt lat="25.624665" lon="100.214165">
<time>2016-10-07T06:07:27Z</time></trkpt>
<trkpt lat="25.624765" lon="100.214095">
<time>2016-10-07T06:07:28Z</time></trkpt>
<trkpt lat="25.624925" lon="100.213975">
<time>2016-10-07T06:07:29Z</time></trkpt>
<trkpt lat="25.624965" lon="100.213945">
<time>2016-10-07T06:07:30Z</time></trkpt>
<trkpt lat="25.625305" lon="100.213704">
<time>2016-10-07T06:07:31Z</time></trkpt>
<trkpt lat="25.625465" lon="100.213584">
<time>2016-10-07T06:07:32Z</time></trkpt>
<trkpt lat="25.626534" lon="100.212903">
<time>2016-10-07T06:07:33Z</time></trkpt>
<trkpt lat="25.627244" lon="100.212513">
<time>2016-10-07T06:07:34Z</time></trkpt>
<trkpt lat="25.627324" lon="100.212463">
<time>2016-10-07T06:07:35Z</time></trkpt>
<trkpt lat="25.627674" lon="100.212262">
<time>2016-10-07T06:07:36Z</time></trkpt>
<trkpt lat="25.627954" lon="100.212112">
<time>2016-10-07T06:07:37Z</time></trkpt>
<trkpt lat="25.628324" lon="100.211912">
<time>2016-10-07T06:07:38Z</time></trkpt>
<trkpt lat="25.629653" lon="100.211181">
<time>2016-10-07T06:07:39Z</time></trkpt>
<trkpt lat="25.630823" lon="100.21054">
<time>2016-10-07T06:07:40Z</time></trkpt>
<trkpt lat="25.630913" lon="100.21049">
<time>2016-10-07T06:07:41Z</time></trkpt>
<trkpt lat="25.632183" lon="100.209789">
<time>2016-10-07T06:07:42Z</time></trkpt>
<trkpt lat="25.632433" lon="100.209649">
<time>2016-10-07T06:07:43Z</time></trkpt>
<trkpt lat="25.632883" lon="100.209398">
<time>2016-10-07T06:07:44Z</time></trkpt>
<trkpt lat="25.634112" lon="100.208717">
<time>2016-10-07T06:07:45Z</time></trkpt>
<trkpt lat="25.634502" lon="100.208497">
<time>2016-10-07T06:07:46Z</time></trkpt>
<trkpt lat="25.635842" lon="100.207756">
<time>2016-10-07T06:07:47Z</time></trkpt>
<trkpt lat="25.636412" lon="100.207425">
<time>2016-10-07T06:07:48Z</time></trkpt>
<trkpt lat="25.637441" lon="100.206834">
<time>2016-10-07T06:07:49Z</time></trkpt>
<trkpt lat="25.637821" lon="100.206604">
<time>2016-10-07T06:07:50Z</time></trkpt>
<trkpt lat="25.639111" lon="100.205843">
<time>2016-10-07T06:07:51Z</time></trkpt>
<trkpt lat="25.64079" lon="100.204821">
<time>2016-10-07T06:07:52Z</time></trkpt>
<trkpt lat="25.6409" lon="100.204771">
<time>2016-10-07T06:07:53Z</time></trkpt>
<trkpt lat="25.64132" lon="100.20453">
<time>2016-10-07T06:07:54Z</time></trkpt>
<trkpt lat="25.64236" lon="100.203949">
<time>2016-10-07T06:07:55Z</time></trkpt>
<trkpt lat="25.643119" lon="100.203499">
<time>2016-10-07T06:07:56Z</time></trkpt>
<trkpt lat="25.644199" lon="100.202978">
<time>2016-10-07T06:07:57Z</time></trkpt>
<trkpt lat="25.644639" lon="100.202787">
<time>2016-10-07T06:07:58Z</time></trkpt>
<trkpt lat="25.644719" lon="100.202747">
<time>2016-10-07T06:07:59Z</time></trkpt>
<trkpt lat="25.646249" lon="100.202216">
<time>2016-10-07T06:08:00Z</time></trkpt>
<trkpt lat="25.646569" lon="100.202106">
<time>2016-10-07T06:08:01Z</time></trkpt>
<trkpt lat="25.647569" lon="100.201655">
<time>2016-10-07T06:08:02Z</time></trkpt>
<trkpt lat="25.648528" lon="100.201185">
<time>2016-10-07T06:08:03Z</time></trkpt>
<trkpt lat="25.649038" lon="100.200894">
<time>2016-10-07T06:08:04Z</time></trkpt>
<trkpt lat="25.649828" lon="100.200423">
<time>2016-10-07T06:08:05Z</time></trkpt>
<trkpt lat="25.650957" lon="100.199762">
<time>2016-10-07T06:08:06Z</time></trkpt>
<trkpt lat="25.651717" lon="100.199331">
<time>2016-10-07T06:08:07Z</time></trkpt>
<trkpt lat="25.651737" lon="100.199321">
<time>2016-10-07T06:08:08Z</time></trkpt>
<trkpt lat="25.652267" lon="100.199051">
<time>2016-10-07T06:08:09Z</time></trkpt>
<trkpt lat="25.653107" lon="100.19864">
<time>2016-10-07T06:08:10Z</time></trkpt>
<trkpt lat="25.653706" lon="100.19834">
<time>2016-10-07T06:08:11Z</time></trkpt>
<trkpt lat="25.654596" lon="100.197909">
<time>2016-10-07T06:08:12Z</time></trkpt>
<trkpt lat="25.654816" lon="100.197799">
<time>2016-10-07T06:08:13Z</time></trkpt>
<trkpt lat="25.655356" lon="100.197528">
<time>2016-10-07T06:08:14Z</time></trkpt>
<trkpt lat="25.656116" lon="100.197147">
<time>2016-10-07T06:08:15Z</time></trkpt>
<trkpt lat="25.656416" lon="100.197007">
<time>2016-10-07T06:08:16Z</time></trkpt>
<trkpt lat="25.656876" lon="100.196787">
<time>2016-10-07T06:08:17Z</time></trkpt>
<trkpt lat="25.657685" lon="100.196426">
<time>2016-10-07T06:08:18Z</time></trkpt>
<trkpt lat="25.658585" lon="100.196045">
<time>2016-10-07T06:08:19Z</time></trkpt>
<trkpt lat="25.658985" lon="100.195885">
<time>2016-10-07T06:08:20Z</time></trkpt>
<trkpt lat="25.659395" lon="100.195695">
<time>2016-10-07T06:08:21Z</time></trkpt>
<trkpt lat="25.659775" lon="100.195514">
<time>2016-10-07T06:08:22Z</time></trkpt>
<trkpt lat="25.659775" lon="100.195504">
<time>2016-10-07T06:08:23Z</time></trkpt>
<trkpt lat="25.660175" lon="100.195264">
<time>2016-10-07T06:08:24Z</time></trkpt>
<trkpt lat="25.661294" lon="100.194542">
<time>2016-10-07T06:08:25Z</time></trkpt>
<trkpt lat="25.662753" lon="100.193581">
<time>2016-10-07T06:08:26Z</time></trkpt>
<trkpt lat="25.662903" lon="100.19348">
<time>2016-10-07T06:08:27Z</time></trkpt>
<trkpt lat="25.663723" lon="100.193">
<time>2016-10-07T06:08:28Z</time></trkpt>
<trkpt lat="25.665482" lon="100.192138">
<time>2016-10-07T06:08:29Z</time></trkpt>
<trkpt lat="25.666682" lon="100.191557">
<time>2016-10-07T06:08:30Z</time></trkpt>
<trkpt lat="25.666852" lon="100.191487">
<time>2016-10-07T06:08:31Z</time></trkpt>
<trkpt lat="25.666862" lon="100.191477">
<time>2016-10-07T06:08:32Z</time></trkpt>
<trkpt lat="25.667282" lon="100.191286">
<time>2016-10-07T06:08:33Z</time></trkpt>
<trkpt lat="25.667562" lon="100.191146">
<time>2016-10-07T06:08:34Z</time></trkpt>
<trkpt lat="25.669041" lon="100.190404">
<time>2016-10-07T06:08:35Z</time></trkpt>
<trkpt lat="25.669301" lon="100.190264">
<time>2016-10-07T06:08:36Z</time></trkpt>
<trkpt lat="25.669651" lon="100.190064">
<time>2016-10-07T06:08:37Z</time></trkpt>
<trkpt lat="25.67034" lon="100.189663">
<time>2016-10-07T06:08:38Z</time></trkpt>
<trkpt lat="25.67084" lon="100.189292">
<time>2016-10-07T06:08:39Z</time></trkpt>
<trkpt lat="25.67108" lon="100.189112">
<time>2016-10-07T06:08:40Z</time></trkpt>
<trkpt lat="25.672069" lon="100.18838">
<time>2016-10-07T06:08:41Z</time></trkpt>
<trkpt lat="25.672239" lon="100.18826">
<time>2016-10-07T06:08:42Z</time></trkpt>
<trkpt lat="25.673478" lon="100.187358">
<time>2016-10-07T06:08:43Z</time></trkpt>
<trkpt lat="25.673798" lon="100.187168">
<time>2016-10-07T06:08:44Z</time></trkpt>
<trkpt lat="25.675007" lon="100.186426">
<time>2016-10-07T06:08:45Z</time></trkpt>
<trkpt lat="25.676716" lon="100.185374">
<time>2016-10-07T06:08:46Z</time></trkpt>
<trkpt lat="25.677995" lon="100.184593">
<time>2016-10-07T06:08:47Z</time></trkpt>
<trkpt lat="25.679125" lon="100.183901">
<time>2016-10-07T06:08:48Z</time></trkpt>
<trkpt lat="25.680124" lon="100.18329">
<time>2016-10-07T06:08:49Z</time></trkpt>
<trkpt lat="25.681623" lon="100.182368">
<time>2016-10-07T06:08:50Z</time></trkpt>
<trkpt lat="25.682413" lon="100.181857">
<time>2016-10-07T06:08:51Z</time></trkpt>
<trkpt lat="25.682782" lon="100.181617">
<time>2016-10-07T06:08:52Z</time></trkpt>
<trkpt lat="25.683022" lon="100.181466">
<time>2016-10-07T06:08:53Z</time></trkpt>
<trkpt lat="25.683052" lon="100.181446">
<time>2016-10-07T06:08:54Z</time></trkpt>
<trkpt lat="25.683262" lon="100.181326">
<time>2016-10-07T06:08:55Z</time></trkpt>
<trkpt lat="25.684062" lon="100.180845">
<time>2016-10-07T06:08:56Z</time></trkpt>
<trkpt lat="25.685851" lon="100.179723">
<time>2016-10-07T06:08:57Z</time></trkpt>
<trkpt lat="25.68728" lon="100.178851">
<time>2016-10-07T06:08:58Z</time></trkpt>
<trkpt lat="25.688649" lon="100.177999">
<time>2016-10-07T06:08:59Z</time></trkpt>
<trkpt lat="25.689688" lon="100.177438">
<time>2016-10-07T06:09:00Z</time></trkpt>
<trkpt lat="25.689708" lon="100.177428">
<time>2016-10-07T06:09:01Z</time></trkpt>
<trkpt lat="25.690448" lon="100.177127">
<time>2016-10-07T06:09:02Z</time></trkpt>
<trkpt lat="25.691818" lon="100.176586">
<time>2016-10-07T06:09:03Z</time></trkpt>
<trkpt lat="25.691958" lon="100.176546">
<time>2016-10-07T06:09:04Z</time></trkpt>
<trkpt lat="25.692268" lon="100.176436">
<time>2016-10-07T06:09:05Z</time></trkpt>
<trkpt lat="25.693998" lon="100.175834">
<time>2016-10-07T06:09:06Z</time></trkpt>
<trkpt lat="25.694768" lon="100.175554">
<time>2016-10-07T06:09:07Z</time></trkpt>
<trkpt lat="25.696347" lon="100.174982">
<time>2016-10-07T06:09:08Z</time></trkpt>
<trkpt lat="25.696557" lon="100.174932">
<time>2016-10-07T06:09:09Z</time></trkpt>
<trkpt lat="25.697037" lon="100.174792">
<time>2016-10-07T06:09:10Z</time></trkpt>
<trkpt lat="25.697387" lon="100.174662">
<time>2016-10-07T06:09:11Z</time></trkpt>
<trkpt lat="25.698717" lon="100.174151">
<time>2016-10-07T06:09:12Z</time></trkpt>
<trkpt lat="25.699147" lon="100.17399">
<time>2016-10-07T06:09:13Z</time></trkpt>
<trkpt lat="25.699327" lon="100.17392">
<time>2016-10-07T06:09:14Z</time></trkpt>
<trkpt lat="25.699527" lon="100.17383">
<time>2016-10-07T06:09:15Z</time></trkpt>
<trkpt lat="25.699727" lon="100.17373">
<time>2016-10-07T06:09:16Z</time></trkpt>
<trkpt lat="25.699927" lon="100.17363">
<time>2016-10-07T06:09:17Z</time></trkpt>
<trkpt lat="25.701236" lon="100.172908">
<time>2016-10-07T06:09:18Z</time></trkpt>
<trkpt lat="25.701836" lon="100.172587">
<time>2016-10-07T06:09:19Z</time></trkpt>
<trkpt lat="25.703215" lon="100.171806">
<time>2016-10-07T06:09:20Z</time></trkpt>
<trkpt lat="25.703405" lon="100.171695">
<time>2016-10-07T06:09:21Z</time></trkpt>
<trkpt lat="25.703665" lon="100.171545">
<time>2016-10-07T06:09:22Z</time></trkpt>
<trkpt lat="25.703825" lon="100.171455">
<time>2016-10-07T06:09:23Z</time></trkpt>
<trkpt lat="25.704295" lon="100.171174">
<time>2016-10-07T06:09:24Z</time></trkpt>
<trkpt lat="25.704914" lon="100.170803">
<time>2016-10-07T06:09:25Z</time></trkpt>
<trkpt lat="25.705014" lon="100.170743">
<time>2016-10-07T06:09:26Z</time></trkpt>
<trkpt lat="25.705034" lon="100.170733">
<time>2016-10-07T06:09:27Z</time></trkpt>
<trkpt lat="25.705114" lon="100.170673">
<time>2016-10-07T06:09:28Z</time></trkpt>
<trkpt lat="25.705214" lon="100.170603">
<time>2016-10-07T06:09:29Z</time></trkpt>
<trkpt lat="25.705314" lon="100.170533">
<time>2016-10-07T06:09:30Z</time></trkpt>
<trkpt lat="25.705813" lon="100.170112">
<time>2016-10-07T06:09:31Z</time></trkpt>
<trkpt lat="25.705963" lon="100.169982">
<time>2016-10-07T06:09:32Z</time></trkpt>
<trkpt lat="25.706103" lon="100.169851">
<time>2016-10-07T06:09:33Z</time></trkpt>
<trkpt lat="25.706243" lon="100.169701">
<time>2016-10-07T06:09:34Z</time></trkpt>
<trkpt lat="25.706353" lon="100.169561">
<time>2016-10-07T06:09:35Z</time></trkpt>
<trkpt lat="25.707031" lon="100.168709">
<time>2016-10-07T06:09:36Z</time></trkpt>
<trkpt lat="25.70786" lon="100.167587">
<time>2016-10-07T06:09:37Z</time></trkpt>
<trkpt lat="25.70796" lon="100.167446">
<time>2016-10-07T06:09:38Z</time></trkpt>
<trkpt lat="25.708548" lon="100.166715">
<time>2016-10-07T06:09:39Z</time></trkpt>
<trkpt lat="25.708648" lon="100.166595">
<time>2016-10-07T06:09:40Z</time></trkpt>
<trkpt lat="25.708738" lon="100.166434">
<time>2016-10-07T06:09:41Z</time></trkpt>
<trkpt lat="25.708858" lon="100.166304">
<time>2016-10-07T06:09:42Z</time></trkpt>
<trkpt lat="25.708938" lon="100.166244">
<time>2016-10-07T06:09:43Z</time></trkpt>
<trkpt lat="25.709058" lon="100.166154">
<time>2016-10-07T06:09:44Z</time></trkpt>
<trkpt lat="25.709138" lon="100.166103">
<time>2016-10-07T06:09:45Z</time></trkpt>
<trkpt lat="25.709497" lon="100.165903">
<time>2016-10-07T06:09:46Z</time></trkpt>
<trkpt lat="25.710127" lon="100.165542">
<time>2016-10-07T06:09:47Z</time></trkpt>
<trkpt lat="25.710627" lon="100.165252">
<time>2016-10-07T06:09:48Z</time></trkpt>
<trkpt lat="25.711406" lon="100.164801">
<time>2016-10-07T06:09:49Z</time></trkpt>
<trkpt lat="25.712506" lon="100.164179">
<time>2016-10-07T06:09:50Z</time></trkpt>
<trkpt lat="25.712836" lon="100.163989">
<time>2016-10-07T06:09:51Z</time></trkpt>
<trkpt lat="25.713675" lon="100.163548">
<time>2016-10-07T06:09:52Z</time></trkpt>
<trkpt lat="25.713805" lon="100.163478">
<time>2016-10-07T06:09:53Z</time></trkpt>
<trkpt lat="25.714005" lon="100.163368">
<time>2016-10-07T06:09:54Z</time></trkpt>
<trkpt lat="25.714485" lon="100.163147">
<time>2016-10-07T06:09:55Z</time></trkpt>
<trkpt lat="25.714815" lon="100.163007">
<time>2016-10-07T06:09:56Z</time></trkpt>
<trkpt lat="25.715975" lon="100.162496">
<time>2016-10-07T06:09:57Z</time></trkpt>
<trkpt lat="25.717014" lon="100.162015">
<time>2016-10-07T06:09:58Z</time></trkpt>
<trkpt lat="25.717774" lon="100.161644">
<time>2016-10-07T06:09:59Z</time></trkpt>
<trkpt lat="25.718464" lon="100.161273">
<time>2016-10-07T06:10:00Z</time></trkpt>
<trkpt lat="25.718654" lon="100.161173">
<time>2016-10-07T06:10:01Z</time></trkpt>
<trkpt lat="25.719334" lon="100.160832">
<time>2016-10-07T06:10:02Z</time></trkpt>
<trkpt lat="25.720303" lon="100.160321">
<time>2016-10-07T06:10:03Z</time></trkpt>
<trkpt lat="25.721323" lon="100.15977">
<time>2016-10-07T06:10:04Z</time></trkpt>
<trkpt lat="25.721962" lon="100.159409">
<time>2016-10-07T06:10:05Z</time></trkpt>
<trkpt lat="25.722902" lon="100.158908">
<time>2016-10-07T06:10:06Z</time></trkpt>
<trkpt lat="25.723082" lon="100.158808">
<time>2016-10-07T06:10:07Z</time></trkpt>
<trkpt lat="25.723952" lon="100.158367">
<time>2016-10-07T06:10:08Z</time></trkpt>
<trkpt lat="25.724741" lon="100.157926">
<time>2016-10-07T06:10:09Z</time></trkpt>
<trkpt lat="25.725221" lon="100.157656">
<time>2016-10-07T06:10:10Z</time></trkpt>
<trkpt lat="25.725691" lon="100.157385">
<time>2016-10-07T06:10:11Z</time></trkpt>
<trkpt lat="25.726071" lon="100.157175">
<time>2016-10-07T06:10:12Z</time></trkpt>
<trkpt lat="25.726471" lon="100.156964">
<time>2016-10-07T06:10:13Z</time></trkpt>
<trkpt lat="25.72717" lon="100.156583">
<time>2016-10-07T06:10:14Z</time></trkpt>
<trkpt lat="25.72875" lon="100.155712">
<time>2016-10-07T06:10:15Z</time></trkpt>
<trkpt lat="25.729249" lon="100.155431">
<time>2016-10-07T06:10:16Z</time></trkpt>
<trkpt lat="25.730499" lon="100.15476">
<time>2016-10-07T06:10:17Z</time></trkpt>
<trkpt lat="25.732038" lon="100.153908">
<time>2016-10-07T06:10:18Z</time></trkpt>
<trkpt lat="25.733348" lon="100.153176">
<time>2016-10-07T06:10:19Z</time></trkpt>
<trkpt lat="25.734457" lon="100.152565">
<time>2016-10-07T06:10:20Z</time></trkpt>
<trkpt lat="25.735547" lon="100.151954">
<time>2016-10-07T06:10:21Z</time></trkpt>
<trkpt lat="25.735987" lon="100.151723">
<time>2016-10-07T06:10:22Z</time></trkpt>
<trkpt lat="25.736576" lon="100.151413">
<time>2016-10-07T06:10:23Z</time></trkpt>
<trkpt lat="25.737596" lon="100.150832">
<time>2016-10-07T06:10:24Z</time></trkpt>
<trkpt lat="25.738976" lon="100.15011">
<time>2016-10-07T06:10:25Z</time></trkpt>
<trkpt lat="25.740115" lon="100.149509">
<time>2016-10-07T06:10:26Z</time></trkpt>
<trkpt lat="25.740165" lon="100.149479">
<time>2016-10-07T06:10:27Z</time></trkpt>
<trkpt lat="25.741065" lon="100.149008">
<time>2016-10-07T06:10:28Z</time></trkpt>
<trkpt lat="25.741625" lon="100.148697">
<time>2016-10-07T06:10:29Z</time></trkpt>
<trkpt lat="25.742125" lon="100.148447">
<time>2016-10-07T06:10:30Z</time></trkpt>
<trkpt lat="25.742664" lon="100.148166">
<time>2016-10-07T06:10:31Z</time></trkpt>
<trkpt lat="25.743164" lon="100.147846">
<time>2016-10-07T06:10:32Z</time></trkpt>
<trkpt lat="25.743414" lon="100.147685">
<time>2016-10-07T06:10:33Z</time></trkpt>
<trkpt lat="25.744164" lon="100.147215">
<time>2016-10-07T06:10:34Z</time></trkpt>
<trkpt lat="25.744484" lon="100.147004">
<time>2016-10-07T06:10:35Z</time></trkpt>
<trkpt lat="25.744833" lon="100.146824">
<time>2016-10-07T06:10:36Z</time></trkpt>
<trkpt lat="25.745633" lon="100.146403">
<time>2016-10-07T06:10:37Z</time></trkpt>
<trkpt lat="25.747033" lon="100.145692">
<time>2016-10-07T06:10:38Z</time></trkpt>
<trkpt lat="25.748113" lon="100.145141">
<time>2016-10-07T06:10:39Z</time></trkpt>
<trkpt lat="25.750022" lon="100.144169">
<time>2016-10-07T06:10:40Z</time></trkpt>
<trkpt lat="25.751712" lon="100.143237">
<time>2016-10-07T06:10:41Z</time></trkpt>
<trkpt lat="25.752552" lon="100.142806">
<time>2016-10-07T06:10:42Z</time></trkpt>
<trkpt lat="25.754131" lon="100.141915">
<time>2016-10-07T06:10:43Z</time></trkpt>
<trkpt lat="25.754421" lon="100.141754">
<time>2016-10-07T06:10:44Z</time></trkpt>
<trkpt lat="25.75775" lon="100.139891">
<time>2016-10-07T06:10:45Z</time></trkpt>
<trkpt lat="25.75823" lon="100.139631">
<time>2016-10-07T06:10:46Z</time></trkpt>
<trkpt lat="25.761439" lon="100.137938">
<time>2016-10-07T06:10:47Z</time></trkpt>
<trkpt lat="25.761489" lon="100.137918">
<time>2016-10-07T06:10:48Z</time></trkpt>
<trkpt lat="25.761859" lon="100.137767">
<time>2016-10-07T06:10:49Z</time></trkpt>
<trkpt lat="25.762079" lon="100.137707">
<time>2016-10-07T06:10:50Z</time></trkpt>
<trkpt lat="25.762119" lon="100.137697">
<time>2016-10-07T06:10:51Z</time></trkpt>
<trkpt lat="25.76232" lon="100.137667">
<time>2016-10-07T06:10:52Z</time></trkpt>
<trkpt lat="25.7625" lon="100.137657">
<time>2016-10-07T06:10:53Z</time></trkpt>
<trkpt lat="25.76341" lon="100.137597">
<time>2016-10-07T06:10:54Z</time></trkpt>
<trkpt lat="25.766182" lon="100.137447">
<time>2016-10-07T06:10:55Z</time></trkpt>
<trkpt lat="25.767462" lon="100.137387">
<time>2016-10-07T06:10:56Z</time></trkpt>
<trkpt lat="25.769593" lon="100.137276">
<time>2016-10-07T06:10:57Z</time></trkpt>
<trkpt lat="25.771064" lon="100.137206">
<time>2016-10-07T06:10:58Z</time></trkpt>
<trkpt lat="25.771905" lon="100.137166">
<time>2016-10-07T06:10:59Z</time></trkpt>
<trkpt lat="25.772365" lon="100.137136">
<time>2016-10-07T06:11:00Z</time></trkpt>
<trkpt lat="25.772835" lon="100.137116">
<time>2016-10-07T06:11:01Z</time></trkpt>
<trkpt lat="25.773696" lon="100.137076">
<time>2016-10-07T06:11:02Z</time></trkpt>
<trkpt lat="25.773776" lon="100.137076">
<time>2016-10-07T06:11:03Z</time></trkpt>
<trkpt lat="25.774376" lon="100.137026">
<time>2016-10-07T06:11:04Z</time></trkpt>
<trkpt lat="25.774826" lon="100.137006">
<time>2016-10-07T06:11:05Z</time></trkpt>
<trkpt lat="25.775276" lon="100.136966">
<time>2016-10-07T06:11:06Z</time></trkpt>
<trkpt lat="25.775687" lon="100.136936">
<time>2016-10-07T06:11:07Z</time></trkpt>
<trkpt lat="25.776147" lon="100.136895">
<time>2016-10-07T06:11:08Z</time></trkpt>
<trkpt lat="25.777117" lon="100.136825">
<time>2016-10-07T06:11:09Z</time></trkpt>
<trkpt lat="25.777768" lon="100.136785">
<time>2016-10-07T06:11:10Z</time></trkpt>
<trkpt lat="25.778208" lon="100.136745">
<time>2016-10-07T06:11:11Z</time></trkpt>
<trkpt lat="25.778668" lon="100.136705">
<time>2016-10-07T06:11:12Z</time></trkpt>
<trkpt lat="25.779038" lon="100.136685">
<time>2016-10-07T06:11:13Z</time></trkpt>
<trkpt lat="25.779058" lon="100.136675">
<time>2016-10-07T06:11:14Z</time></trkpt>
<trkpt lat="25.779108" lon="100.136675">
<time>2016-10-07T06:11:15Z</time></trkpt>
<trkpt lat="25.779569" lon="100.136645">
<time>2016-10-07T06:11:16Z</time></trkpt>
<trkpt lat="25.780009" lon="100.136605">
<time>2016-10-07T06:11:17Z</time></trkpt>
<trkpt lat="25.780459" lon="100.136575">
<time>2016-10-07T06:11:18Z</time></trkpt>
<trkpt lat="25.780919" lon="100.136535">
<time>2016-10-07T06:11:19Z</time></trkpt>
<trkpt lat="25.7814" lon="100.136495">
<time>2016-10-07T06:11:20Z</time></trkpt>
<trkpt lat="25.7818" lon="100.136455">
<time>2016-10-07T06:11:21Z</time></trkpt>
<trkpt lat="25.78225" lon="100.136425">
<time>2016-10-07T06:11:22Z</time></trkpt>
<trkpt lat="25.78273" lon="100.136394">
<time>2016-10-07T06:11:23Z</time></trkpt>
<trkpt lat="25.783551" lon="100.136334">
<time>2016-10-07T06:11:24Z</time></trkpt>
<trkpt lat="25.783701" lon="100.136324">
<time>2016-10-07T06:11:25Z</time></trkpt>
<trkpt lat="25.784021" lon="100.136294">
<time>2016-10-07T06:11:26Z</time></trkpt>
<trkpt lat="25.784421" lon="100.136254">
<time>2016-10-07T06:11:27Z</time></trkpt>
<trkpt lat="25.784891" lon="100.136224">
<time>2016-10-07T06:11:28Z</time></trkpt>
<trkpt lat="25.785331" lon="100.136184">
<time>2016-10-07T06:11:29Z</time></trkpt>
<trkpt lat="25.785782" lon="100.136154">
<time>2016-10-07T06:11:30Z</time></trkpt>
<trkpt lat="25.786182" lon="100.136124">
<time>2016-10-07T06:11:31Z</time></trkpt>
<trkpt lat="25.786662" lon="100.136074">
<time>2016-10-07T06:11:32Z</time></trkpt>
<trkpt lat="25.786962" lon="100.136054">
<time>2016-10-07T06:11:33Z</time></trkpt>
<trkpt lat="25.787182" lon="100.136034">
<time>2016-10-07T06:11:34Z</time></trkpt>
<trkpt lat="25.787793" lon="100.135994">
<time>2016-10-07T06:11:35Z</time></trkpt>
<trkpt lat="25.787843" lon="100.135994">
<time>2016-10-07T06:11:36Z</time></trkpt>
<trkpt lat="25.788273" lon="100.135964">
<time>2016-10-07T06:11:37Z</time></trkpt>
<trkpt lat="25.788743" lon="100.135934">
<time>2016-10-07T06:11:38Z</time></trkpt>
<trkpt lat="25.789184" lon="100.135904">
<time>2016-10-07T06:11:39Z</time></trkpt>
<trkpt lat="25.789644" lon="100.135863">
<time>2016-10-07T06:11:40Z</time></trkpt>
<trkpt lat="25.789784" lon="100.135853">
<time>2016-10-07T06:11:41Z</time></trkpt>
<trkpt lat="25.789924" lon="100.135833">
<time>2016-10-07T06:11:42Z</time></trkpt>
<trkpt lat="25.790064" lon="100.135823">
<time>2016-10-07T06:11:43Z</time></trkpt>
<trkpt lat="25.790104" lon="100.135823">
<time>2016-10-07T06:11:44Z</time></trkpt>
<trkpt lat="25.790564" lon="100.135783">
<time>2016-10-07T06:11:45Z</time></trkpt>
<trkpt lat="25.791024" lon="100.135743">
<time>2016-10-07T06:11:46Z</time></trkpt>
<trkpt lat="25.791545" lon="100.135703">
<time>2016-10-07T06:11:47Z</time></trkpt>
<trkpt lat="25.791825" lon="100.135683">
<time>2016-10-07T06:11:48Z</time></trkpt>
<trkpt lat="25.792695" lon="100.135613">
<time>2016-10-07T06:11:49Z</time></trkpt>
<trkpt lat="25.793406" lon="100.135573">
<time>2016-10-07T06:11:50Z</time></trkpt>
<trkpt lat="25.793556" lon="100.135563">
<time>2016-10-07T06:11:51Z</time></trkpt>
<trkpt lat="25.793836" lon="100.135543">
<time>2016-10-07T06:11:52Z</time></trkpt>
<trkpt lat="25.794296" lon="100.135503">
<time>2016-10-07T06:11:53Z</time></trkpt>
<trkpt lat="25.794306" lon="100.135503">
<time>2016-10-07T06:11:54Z</time></trkpt>
<trkpt lat="25.794576" lon="100.135483">
<time>2016-10-07T06:11:55Z</time></trkpt>
<trkpt lat="25.795017" lon="100.135453">
<time>2016-10-07T06:11:56Z</time></trkpt>
<trkpt lat="25.795497" lon="100.135423">
<time>2016-10-07T06:11:57Z</time></trkpt>
<trkpt lat="25.795947" lon="100.135383">
<time>2016-10-07T06:11:58Z</time></trkpt>
<trkpt lat="25.796317" lon="100.135362">
<time>2016-10-07T06:11:59Z</time></trkpt>
<trkpt lat="25.796777" lon="100.135322">
<time>2016-10-07T06:12:00Z</time></trkpt>
<trkpt lat="25.797218" lon="100.135282">
<time>2016-10-07T06:12:01Z</time></trkpt>
<trkpt lat="25.797688" lon="100.135262">
<time>2016-10-07T06:12:02Z</time></trkpt>
<trkpt lat="25.798218" lon="100.135232">
<time>2016-10-07T06:12:03Z</time></trkpt>
<trkpt lat="25.798598" lon="100.135192">
<time>2016-10-07T06:12:04Z</time></trkpt>
<trkpt lat="25.798999" lon="100.135162">
<time>2016-10-07T06:12:05Z</time></trkpt>
<trkpt lat="25.799079" lon="100.135152">
<time>2016-10-07T06:12:06Z</time></trkpt>
<trkpt lat="25.799479" lon="100.135132">
<time>2016-10-07T06:12:07Z</time></trkpt>
<trkpt lat="25.800079" lon="100.135092">
<time>2016-10-07T06:12:08Z</time></trkpt>
<trkpt lat="25.800539" lon="100.135062">
<time>2016-10-07T06:12:09Z</time></trkpt>
<trkpt lat="25.801" lon="100.135022">
<time>2016-10-07T06:12:10Z</time></trkpt>
<trkpt lat="25.8011" lon="100.135022">
<time>2016-10-07T06:12:11Z</time></trkpt>
<trkpt lat="25.80148" lon="100.134992">
<time>2016-10-07T06:12:12Z</time></trkpt>
<trkpt lat="25.80202" lon="100.134952">
<time>2016-10-07T06:12:13Z</time></trkpt>
<trkpt lat="25.803041" lon="100.134872">
<time>2016-10-07T06:12:14Z</time></trkpt>
<trkpt lat="25.803511" lon="100.134831">
<time>2016-10-07T06:12:15Z</time></trkpt>
<trkpt lat="25.803931" lon="100.134811">
<time>2016-10-07T06:12:16Z</time></trkpt>
<trkpt lat="25.804392" lon="100.134781">
<time>2016-10-07T06:12:17Z</time></trkpt>
<trkpt lat="25.804872" lon="100.134751">
<time>2016-10-07T06:12:18Z</time></trkpt>
<trkpt lat="25.805172" lon="100.134731">
<time>2016-10-07T06:12:19Z</time></trkpt>
<trkpt lat="25.805342" lon="100.134721">
<time>2016-10-07T06:12:20Z</time></trkpt>
<trkpt lat="25.805822" lon="100.134691">
<time>2016-10-07T06:12:21Z</time></trkpt>
<trkpt lat="25.806353" lon="100.134671">
<time>2016-10-07T06:12:22Z</time></trkpt>
<trkpt lat="25.807013" lon="100.134631">
<time>2016-10-07T06:12:23Z</time></trkpt>
<trkpt lat="25.807483" lon="100.134601">
<time>2016-10-07T06:12:24Z</time></trkpt>
<trkpt lat="25.807963" lon="100.134581">
<time>2016-10-07T06:12:25Z</time></trkpt>
<trkpt lat="25.808444" lon="100.134561">
<time>2016-10-07T06:12:26Z</time></trkpt>
<trkpt lat="25.808894" lon="100.134531">
<time>2016-10-07T06:12:27Z</time></trkpt>
<trkpt lat="25.809394" lon="100.134511">
<time>2016-10-07T06:12:28Z</time></trkpt>
<trkpt lat="25.810185" lon="100.134451">
<time>2016-10-07T06:12:29Z</time></trkpt>
<trkpt lat="25.810515" lon="100.134431">
<time>2016-10-07T06:12:30Z</time></trkpt>
<trkpt lat="25.810675" lon="100.134421">
<time>2016-10-07T06:12:31Z</time></trkpt>
<trkpt lat="25.811125" lon="100.134391">
<time>2016-10-07T06:12:32Z</time></trkpt>
<trkpt lat="25.811586" lon="100.134361">
<time>2016-10-07T06:12:33Z</time></trkpt>
<trkpt lat="25.812086" lon="100.13432">
<time>2016-10-07T06:12:34Z</time></trkpt>
<trkpt lat="25.812576" lon="100.13429">
<time>2016-10-07T06:12:35Z</time></trkpt>
<trkpt lat="25.812836" lon="100.13427">
<time>2016-10-07T06:12:36Z</time></trkpt>
<trkpt lat="25.813026" lon="100.13426">
<time>2016-10-07T06:12:37Z</time></trkpt>
<trkpt lat="25.813497" lon="100.13423">
<time>2016-10-07T06:12:38Z</time></trkpt>
<trkpt lat="25.813957" lon="100.1342">
<time>2016-10-07T06:12:39Z</time></trkpt>
<trkpt lat="25.814417" lon="100.13417">
<time>2016-10-07T06:12:40Z</time></trkpt>
<trkpt lat="25.814877" lon="100.13413">
<time>2016-10-07T06:12:41Z</time></trkpt>
<trkpt lat="25.815217" lon="100.13411">
<time>2016-10-07T06:12:42Z</time></trkpt>
<trkpt lat="25.815227" lon="100.13411">
<time>2016-10-07T06:12:43Z</time></trkpt>
<trkpt lat="25.815688" lon="100.13409">
<time>2016-10-07T06:12:44Z</time></trkpt>
<trkpt lat="25.816128" lon="100.13406">
<time>2016-10-07T06:12:45Z</time></trkpt>
<trkpt lat="25.816608" lon="100.13405">
<time>2016-10-07T06:12:46Z</time></trkpt>
<trkpt lat="25.816778" lon="100.13405">
<time>2016-10-07T06:12:47Z</time></trkpt>
<trkpt lat="25.817009" lon="100.13403">
<time>2016-10-07T06:12:48Z</time></trkpt>
<trkpt lat="25.817439" lon="100.13402">
<time>2016-10-07T06:12:49Z</time></trkpt>
<trkpt lat="25.817589" lon="100.13401">
<time>2016-10-07T06:12:50Z</time></trkpt>
<trkpt lat="25.817889" lon="100.13399">
<time>2016-10-07T06:12:51Z</time></trkpt>
<trkpt lat="25.818339" lon="100.13396">
<time>2016-10-07T06:12:52Z</time></trkpt>
<trkpt lat="25.81879" lon="100.13392">
<time>2016-10-07T06:12:53Z</time></trkpt>
<trkpt lat="25.81925" lon="100.13389">
<time>2016-10-07T06:12:54Z</time></trkpt>
<trkpt lat="25.81968" lon="100.133839">
<time>2016-10-07T06:12:55Z</time></trkpt>
<trkpt lat="25.82008" lon="100.133809">
<time>2016-10-07T06:12:56Z</time></trkpt>
<trkpt lat="25.82053" lon="100.133759">
<time>2016-10-07T06:12:57Z</time></trkpt>
<trkpt lat="25.821191" lon="100.133719">
<time>2016-10-07T06:12:58Z</time></trkpt>
<trkpt lat="25.821751" lon="100.133689">
<time>2016-10-07T06:12:59Z</time></trkpt>
<trkpt lat="25.821831" lon="100.133689">
<time>2016-10-07T06:13:00Z</time></trkpt>
<trkpt lat="25.822472" lon="100.133669">
<time>2016-10-07T06:13:01Z</time></trkpt>
<trkpt lat="25.823022" lon="100.133669">
<time>2016-10-07T06:13:02Z</time></trkpt>
<trkpt lat="25.823822" lon="100.133659">
<time>2016-10-07T06:13:03Z</time></trkpt>
<trkpt lat="25.824273" lon="100.133669">
<time>2016-10-07T06:13:04Z</time></trkpt>
<trkpt lat="25.824723" lon="100.133649">
<time>2016-10-07T06:13:05Z</time></trkpt>
<trkpt lat="25.825183" lon="100.133649">
<time>2016-10-07T06:13:06Z</time></trkpt>
<trkpt lat="25.825864" lon="100.133609">
<time>2016-10-07T06:13:07Z</time></trkpt>
<trkpt lat="25.826104" lon="100.133589">
<time>2016-10-07T06:13:08Z</time></trkpt>
<trkpt lat="25.826324" lon="100.133569">
<time>2016-10-07T06:13:09Z</time></trkpt>
<trkpt lat="25.826634" lon="100.133549">
<time>2016-10-07T06:13:10Z</time></trkpt>
<trkpt lat="25.827174" lon="100.133489">
<time>2016-10-07T06:13:11Z</time></trkpt>
<trkpt lat="25.827364" lon="100.133469">
<time>2016-10-07T06:13:12Z</time></trkpt>
<trkpt lat="25.827505" lon="100.133439">
<time>2016-10-07T06:13:13Z</time></trkpt>
<trkpt lat="25.827585" lon="100.133429">
<time>2016-10-07T06:13:14Z</time></trkpt>
<trkpt lat="25.828695" lon="100.133288">
<time>2016-10-07T06:13:15Z</time></trkpt>
<trkpt lat="25.828975" lon="100.133258">
<time>2016-10-07T06:13:16Z</time></trkpt>
<trkpt lat="25.829465" lon="100.133178">
<time>2016-10-07T06:13:17Z</time></trkpt>
<trkpt lat="25.829886" lon="100.133138">
<time>2016-10-07T06:13:18Z</time></trkpt>
<trkpt lat="25.830056" lon="100.133138">
<time>2016-10-07T06:13:19Z</time></trkpt>
<trkpt lat="25.830436" lon="100.133118">
<time>2016-10-07T06:13:20Z</time></trkpt>
<trkpt lat="25.831196" lon="100.133058">
<time>2016-10-07T06:13:21Z</time></trkpt>
<trkpt lat="25.832517" lon="100.133008">
<time>2016-10-07T06:13:22Z</time></trkpt>
<trkpt lat="25.833238" lon="100.132988">
<time>2016-10-07T06:13:23Z</time></trkpt>
<trkpt lat="25.833348" lon="100.132988">
<time>2016-10-07T06:13:24Z</time></trkpt>
<trkpt lat="25.833598" lon="100.132968">
<time>2016-10-07T06:13:25Z</time></trkpt>
<trkpt lat="25.834038" lon="100.132948">
<time>2016-10-07T06:13:26Z</time></trkpt>
<trkpt lat="25.834238" lon="100.132938">
<time>2016-10-07T06:13:27Z</time></trkpt>
<trkpt lat="25.835289" lon="100.132888">
<time>2016-10-07T06:13:28Z</time></trkpt>
<trkpt lat="25.835959" lon="100.132878">
<time>2016-10-07T06:13:29Z</time></trkpt>
<trkpt lat="25.83718" lon="100.132817">
<time>2016-10-07T06:13:30Z</time></trkpt>
<trkpt lat="25.83729" lon="100.132817">
<time>2016-10-07T06:13:31Z</time></trkpt>
<trkpt lat="25.838121" lon="100.132787">
<time>2016-10-07T06:13:32Z</time></trkpt>
<trkpt lat="25.838641" lon="100.132767">
<time>2016-10-07T06:13:33Z</time></trkpt>
<trkpt lat="25.838951" lon="100.132767">
<time>2016-10-07T06:13:34Z</time></trkpt>
<trkpt lat="25.840002" lon="100.132757">
<time>2016-10-07T06:13:35Z</time></trkpt>
<trkpt lat="25.841423" lon="100.132697">
<time>2016-10-07T06:13:36Z</time></trkpt>
<trkpt lat="25.842343" lon="100.132627">
<time>2016-10-07T06:13:37Z</time></trkpt>
<trkpt lat="25.843774" lon="100.132487">
<time>2016-10-07T06:13:38Z</time></trkpt>
<trkpt lat="25.844314" lon="100.132437">
<time>2016-10-07T06:13:39Z</time></trkpt>
<trkpt lat="25.845325" lon="100.132347">
<time>2016-10-07T06:13:40Z</time></trkpt>
<trkpt lat="25.845325" lon="100.132347">
<time>2016-10-07T06:13:41Z</time></trkpt>
<trkpt lat="25.845495" lon="100.132387">
<time>2016-10-07T06:13:42Z</time></trkpt>
<trkpt lat="25.845685" lon="100.132457">
<time>2016-10-07T06:13:43Z</time></trkpt>
<trkpt lat="25.846196" lon="100.132577">
<time>2016-10-07T06:13:44Z</time></trkpt>
<trkpt lat="25.846706" lon="100.132667">
<time>2016-10-07T06:13:45Z</time></trkpt>
<trkpt lat="25.847096" lon="100.132757">
<time>2016-10-07T06:13:46Z</time></trkpt>
<trkpt lat="25.847577" lon="100.132837">
<time>2016-10-07T06:13:47Z</time></trkpt>
<trkpt lat="25.847847" lon="100.132907">
<time>2016-10-07T06:13:48Z</time></trkpt>
<trkpt lat="25.848298" lon="100.133018">
<time>2016-10-07T06:13:49Z</time></trkpt>
<trkpt lat="25.848418" lon="100.133017">
<time>2016-10-07T06:13:50Z</time></trkpt>
<trkpt lat="25.848468" lon="100.133017">
<time>2016-10-07T06:13:51Z</time></trkpt>
<trkpt lat="25.848868" lon="100.132917">
<time>2016-10-07T06:13:52Z</time></trkpt>
<trkpt lat="25.849018" lon="100.132897">
<time>2016-10-07T06:13:53Z</time></trkpt>
<trkpt lat="25.849378" lon="100.132887">
<time>2016-10-07T06:13:54Z</time></trkpt>
<trkpt lat="25.849618" lon="100.132907">
<time>2016-10-07T06:13:55Z</time></trkpt>
<trkpt lat="25.849678" lon="100.132917">
<time>2016-10-07T06:13:56Z</time></trkpt>
<trkpt lat="25.849828" lon="100.132897">
<time>2016-10-07T06:13:57Z</time></trkpt>
<trkpt lat="25.849968" lon="100.132857">
<time>2016-10-07T06:13:58Z</time></trkpt>
<trkpt lat="25.850479" lon="100.132727">
<time>2016-10-07T06:13:59Z</time></trkpt>
<trkpt lat="25.850889" lon="100.132587">
<time>2016-10-07T06:14:00Z</time></trkpt>
<trkpt lat="25.851109" lon="100.132517">
<time>2016-10-07T06:14:01Z</time></trkpt>
<trkpt lat="25.851299" lon="100.132487">
<time>2016-10-07T06:14:02Z</time></trkpt>
<trkpt lat="25.851519" lon="100.132447">
<time>2016-10-07T06:14:03Z</time></trkpt>
<trkpt lat="25.851729" lon="100.132427">
<time>2016-10-07T06:14:04Z</time></trkpt>
<trkpt lat="25.851919" lon="100.132416">
<time>2016-10-07T06:14:05Z</time></trkpt>
<trkpt lat="25.852119" lon="100.132406">
<time>2016-10-07T06:14:06Z</time></trkpt>
<trkpt lat="25.85324" lon="100.132036">
<time>2016-10-07T06:14:07Z</time></trkpt>
<trkpt lat="25.85326" lon="100.132026">
<time>2016-10-07T06:14:08Z</time></trkpt>
<trkpt lat="25.85434" lon="100.131745">
<time>2016-10-07T06:14:09Z</time></trkpt>
<trkpt lat="25.85508" lon="100.131605">
<time>2016-10-07T06:14:10Z</time></trkpt>
<trkpt lat="25.85566" lon="100.131475">
<time>2016-10-07T06:14:11Z</time></trkpt>
<trkpt lat="25.855831" lon="100.131435">
<time>2016-10-07T06:14:12Z</time></trkpt>
<trkpt lat="25.855951" lon="100.131405">
<time>2016-10-07T06:14:13Z</time></trkpt>
<trkpt lat="25.855971" lon="100.131395">
<time>2016-10-07T06:14:14Z</time></trkpt>
<trkpt lat="25.856021" lon="100.131375">
<time>2016-10-07T06:14:15Z</time></trkpt>
<trkpt lat="25.856051" lon="100.131345">
<time>2016-10-07T06:14:16Z</time></trkpt>
<trkpt lat="25.856081" lon="100.131335">
<time>2016-10-07T06:14:17Z</time></trkpt>
<trkpt lat="25.856121" lon="100.131295">
<time>2016-10-07T06:14:18Z</time></trkpt>
<trkpt lat="25.85614" lon="100.131255">
<time>2016-10-07T06:14:19Z</time></trkpt>
<trkpt lat="25.85617" lon="100.131215">
<time>2016-10-07T06:14:20Z</time></trkpt>
<trkpt lat="25.85629" lon="100.130944">
<time>2016-10-07T06:14:21Z</time></trkpt>
<trkpt lat="25.85629" lon="100.130944">
<time>2016-10-07T06:14:22Z</time></trkpt>
<trkpt lat="25.85664" lon="100.131004">
<time>2016-10-07T06:14:23Z</time></trkpt>
<trkpt lat="25.856931" lon="100.131064">
<time>2016-10-07T06:14:24Z</time></trkpt>
<trkpt lat="25.856991" lon="100.131064">
<time>2016-10-07T06:14:25Z</time></trkpt>
<trkpt lat="25.857151" lon="100.130994">
<time>2016-10-07T06:14:26Z</time></trkpt>
<trkpt lat="25.857291" lon="100.130894">
<time>2016-10-07T06:14:27Z</time></trkpt>
<trkpt lat="25.857461" lon="100.130824">
<time>2016-10-07T06:14:28Z</time></trkpt>
<trkpt lat="25.857621" lon="100.130784">
<time>2016-10-07T06:14:29Z</time></trkpt>
<trkpt lat="25.857801" lon="100.130654">
<time>2016-10-07T06:14:30Z</time></trkpt>
<trkpt lat="25.858011" lon="100.130453">
<time>2016-10-07T06:14:31Z</time></trkpt>
<trkpt lat="25.858111" lon="100.130323">
<time>2016-10-07T06:14:32Z</time></trkpt>
<trkpt lat="25.858341" lon="100.130193">
<time>2016-10-07T06:14:33Z</time></trkpt>
<trkpt lat="25.85854" lon="100.129993">
<time>2016-10-07T06:14:34Z</time></trkpt>
<trkpt lat="25.85855" lon="100.129973">
<time>2016-10-07T06:14:35Z</time></trkpt>
<trkpt lat="25.85855" lon="100.129953">
<time>2016-10-07T06:14:36Z</time></trkpt>
<trkpt lat="25.85858" lon="100.129853">
<time>2016-10-07T06:14:37Z</time></trkpt>
<trkpt lat="25.85858" lon="100.129833">
<time>2016-10-07T06:14:38Z</time></trkpt>
<trkpt lat="25.85859" lon="100.129813">
<time>2016-10-07T06:14:39Z</time></trkpt>
<trkpt lat="25.85867" lon="100.129702">
<time>2016-10-07T06:14:40Z</time></trkpt>
<trkpt lat="25.8588" lon="100.129572">
<time>2016-10-07T06:14:41Z</time></trkpt>
<trkpt lat="25.85881" lon="100.129562">
<time>2016-10-07T06:14:42Z</time></trkpt>
<trkpt lat="25.85882" lon="100.129542">
<time>2016-10-07T06:14:43Z</time></trkpt>
<trkpt lat="25.85886" lon="100.129392">
<time>2016-10-07T06:14:44Z</time></trkpt>
<trkpt lat="25.859679" lon="100.12809">
<time>2016-10-07T06:14:45Z</time></trkpt>
<trkpt lat="25.859679" lon="100.12809">
<time>2016-10-07T06:14:46Z</time></trkpt>
<trkpt lat="25.859579" lon="100.12796">
<time>2016-10-07T06:14:47Z</time></trkpt>
<trkpt lat="25.859579" lon="100.12796">
<time>2016-10-07T06:14:48Z</time></trkpt>
<trkpt lat="25.859809" lon="100.12787">
<time>2016-10-07T06:14:49Z</time></trkpt>
<trkpt lat="25.860949" lon="100.127219">
<time>2016-10-07T06:14:50Z</time></trkpt>
<trkpt lat="25.861869" lon="100.126728">
<time>2016-10-07T06:14:51Z</time></trkpt>
<trkpt lat="25.862509" lon="100.126398">
<time>2016-10-07T06:14:52Z</time></trkpt>
<trkpt lat="25.863439" lon="100.125897">
<time>2016-10-07T06:14:53Z</time></trkpt>
<trkpt lat="25.864239" lon="100.125487">
<time>2016-10-07T06:14:54Z</time></trkpt>
<trkpt lat="25.864909" lon="100.125136">
<time>2016-10-07T06:14:55Z</time></trkpt>
<trkpt lat="25.865159" lon="100.125026">
<time>2016-10-07T06:14:56Z</time></trkpt>
<trkpt lat="25.865439" lon="100.124866">
<time>2016-10-07T06:14:57Z</time></trkpt>
<trkpt lat="25.865819" lon="100.124655">
<time>2016-10-07T06:14:58Z</time></trkpt>
<trkpt lat="25.866349" lon="100.124365">
<time>2016-10-07T06:14:59Z</time></trkpt>
<trkpt lat="25.86975" lon="100.122573">
<time>2016-10-07T06:15:00Z</time></trkpt>
<trkpt lat="25.8712" lon="100.121822">
<time>2016-10-07T06:15:01Z</time></trkpt>
<trkpt lat="25.8718" lon="100.121592">
<time>2016-10-07T06:15:02Z</time></trkpt>
<trkpt lat="25.87231" lon="100.121451">
<time>2016-10-07T06:15:03Z</time></trkpt>
<trkpt lat="25.87238" lon="100.121441">
<time>2016-10-07T06:15:04Z</time></trkpt>
<trkpt lat="25.87285" lon="100.121361">
<time>2016-10-07T06:15:05Z</time></trkpt>
<trkpt lat="25.873301" lon="100.121311">
<time>2016-10-07T06:15:06Z</time></trkpt>
<trkpt lat="25.874391" lon="100.121251">
<time>2016-10-07T06:15:07Z</time></trkpt>
<trkpt lat="25.876403" lon="100.121151">
<time>2016-10-07T06:15:08Z</time></trkpt>
<trkpt lat="25.878064" lon="100.121071">
<time>2016-10-07T06:15:09Z</time></trkpt>
<trkpt lat="25.878154" lon="100.121071">
<time>2016-10-07T06:15:10Z</time></trkpt>
<trkpt lat="25.878444" lon="100.121081">
<time>2016-10-07T06:15:11Z</time></trkpt>
<trkpt lat="25.878824" lon="100.121111">
<time>2016-10-07T06:15:12Z</time></trkpt>
<trkpt lat="25.879355" lon="100.121241">
<time>2016-10-07T06:15:13Z</time></trkpt>
<trkpt lat="25.882047" lon="100.121872">
<time>2016-10-07T06:15:14Z</time></trkpt>
<trkpt lat="25.884349" lon="100.122472">
<time>2016-10-07T06:15:15Z</time></trkpt>
<trkpt lat="25.88488" lon="100.122542">
<time>2016-10-07T06:15:16Z</time></trkpt>
<trkpt lat="25.88509" lon="100.122512">
<time>2016-10-07T06:15:17Z</time></trkpt>
<trkpt lat="25.88629" lon="100.122152">
<time>2016-10-07T06:15:18Z</time></trkpt>
<trkpt lat="25.88629" lon="100.122152">
<time>2016-10-07T06:15:19Z</time></trkpt>
<trkpt lat="25.88636" lon="100.122152">
<time>2016-10-07T06:15:20Z</time></trkpt>
<trkpt lat="25.887951" lon="100.121621">
<time>2016-10-07T06:15:21Z</time></trkpt>
<trkpt lat="25.889171" lon="100.121201">
<time>2016-10-07T06:15:22Z</time></trkpt>
<trkpt lat="25.890292" lon="100.12081">
<time>2016-10-07T06:15:23Z</time></trkpt>
<trkpt lat="25.890922" lon="100.12057">
<time>2016-10-07T06:15:24Z</time></trkpt>
<trkpt lat="25.890932" lon="100.12057">
<time>2016-10-07T06:15:25Z</time></trkpt>
<trkpt lat="25.892222" lon="100.120079">
<time>2016-10-07T06:15:26Z</time></trkpt>
<trkpt lat="25.892853" lon="100.119839">
<time>2016-10-07T06:15:27Z</time></trkpt>
<trkpt lat="25.893873" lon="100.119439">
<time>2016-10-07T06:15:28Z</time></trkpt>
<trkpt lat="25.893943" lon="100.119389">
<time>2016-10-07T06:15:29Z</time></trkpt>
<trkpt lat="25.896354" lon="100.118358">
<time>2016-10-07T06:15:30Z</time></trkpt>
<trkpt lat="25.898284" lon="100.117447">
<time>2016-10-07T06:15:31Z</time></trkpt>
<trkpt lat="25.898724" lon="100.117226">
<time>2016-10-07T06:15:32Z</time></trkpt>
<trkpt lat="25.900105" lon="100.116526">
<time>2016-10-07T06:15:33Z</time></trkpt>
<trkpt lat="25.901255" lon="100.115995">
<time>2016-10-07T06:15:34Z</time></trkpt>
<trkpt lat="25.901335" lon="100.115945">
<time>2016-10-07T06:15:35Z</time></trkpt>
<trkpt lat="25.902325" lon="100.115405">
<time>2016-10-07T06:15:36Z</time></trkpt>
<trkpt lat="25.903155" lon="100.114984">
<time>2016-10-07T06:15:37Z</time></trkpt>
<trkpt lat="25.905696" lon="100.113703">
<time>2016-10-07T06:15:38Z</time></trkpt>
<trkpt lat="25.907397" lon="100.112842">
<time>2016-10-07T06:15:39Z</time></trkpt>
<trkpt lat="25.907787" lon="100.112642">
<time>2016-10-07T06:15:40Z</time></trkpt>
<trkpt lat="25.908997" lon="100.112072">
<time>2016-10-07T06:15:41Z</time></trkpt>
<trkpt lat="25.909138" lon="100.111992">
<time>2016-10-07T06:15:42Z</time></trkpt>
<trkpt lat="25.909998" lon="100.111551">
<time>2016-10-07T06:15:43Z</time></trkpt>
<trkpt lat="25.910818" lon="100.111141">
<time>2016-10-07T06:15:44Z</time></trkpt>
<trkpt lat="25.911899" lon="100.110591">
<time>2016-10-07T06:15:45Z</time></trkpt>
<trkpt lat="25.912939" lon="100.11006">
<time>2016-10-07T06:15:46Z</time></trkpt>
<trkpt lat="25.913399" lon="100.10984">
<time>2016-10-07T06:15:47Z</time></trkpt>
<trkpt lat="25.913549" lon="100.10977">
<time>2016-10-07T06:15:48Z</time></trkpt>
<trkpt lat="25.91431" lon="100.1094">
<time>2016-10-07T06:15:49Z</time></trkpt>
<trkpt lat="25.91584" lon="100.108719">
<time>2016-10-07T06:15:50Z</time></trkpt>
<trkpt lat="25.916581" lon="100.108399">
<time>2016-10-07T06:15:51Z</time></trkpt>
<trkpt lat="25.916681" lon="100.108349">
<time>2016-10-07T06:15:52Z</time></trkpt>
<trkpt lat="25.916921" lon="100.108239">
<time>2016-10-07T06:15:53Z</time></trkpt>
<trkpt lat="25.917291" lon="100.108079">
<time>2016-10-07T06:15:54Z</time></trkpt>
<trkpt lat="25.917651" lon="100.107929">
<time>2016-10-07T06:15:55Z</time></trkpt>
<trkpt lat="25.918001" lon="100.107769">
<time>2016-10-07T06:15:56Z</time></trkpt>
<trkpt lat="25.918362" lon="100.107619">
<time>2016-10-07T06:15:57Z</time></trkpt>
<trkpt lat="25.918702" lon="100.107468">
<time>2016-10-07T06:15:58Z</time></trkpt>
<trkpt lat="25.919062" lon="100.107308">
<time>2016-10-07T06:15:59Z</time></trkpt>
<trkpt lat="25.919192" lon="100.107258">
<time>2016-10-07T06:16:00Z</time></trkpt>
<trkpt lat="25.919402" lon="100.107168">
<time>2016-10-07T06:16:01Z</time></trkpt>
<trkpt lat="25.919752" lon="100.107018">
<time>2016-10-07T06:16:02Z</time></trkpt>
<trkpt lat="25.920102" lon="100.106868">
<time>2016-10-07T06:16:03Z</time></trkpt>
<trkpt lat="25.920443" lon="100.106718">
<time>2016-10-07T06:16:04Z</time></trkpt>
<trkpt lat="25.920783" lon="100.106578">
<time>2016-10-07T06:16:05Z</time></trkpt>
<trkpt lat="25.921063" lon="100.106438">
<time>2016-10-07T06:16:06Z</time></trkpt>
<trkpt lat="25.921413" lon="100.106288">
<time>2016-10-07T06:16:07Z</time></trkpt>
<trkpt lat="25.921743" lon="100.106138">
<time>2016-10-07T06:16:08Z</time></trkpt>
<trkpt lat="25.922063" lon="100.106008">
<time>2016-10-07T06:16:09Z</time></trkpt>
<trkpt lat="25.922133" lon="100.105978">
<time>2016-10-07T06:16:10Z</time></trkpt>
<trkpt lat="25.922384" lon="100.105868">
<time>2016-10-07T06:16:11Z</time></trkpt>
<trkpt lat="25.922664" lon="100.105737">
<time>2016-10-07T06:16:12Z</time></trkpt>
<trkpt lat="25.922994" lon="100.105597">
<time>2016-10-07T06:16:13Z</time></trkpt>
<trkpt lat="25.923134" lon="100.105537">
<time>2016-10-07T06:16:14Z</time></trkpt>
<trkpt lat="25.923274" lon="100.105457">
<time>2016-10-07T06:16:15Z</time></trkpt>
<trkpt lat="25.923564" lon="100.105317">
<time>2016-10-07T06:16:16Z</time></trkpt>
<trkpt lat="25.923824" lon="100.105207">
<time>2016-10-07T06:16:17Z</time></trkpt>
<trkpt lat="25.924064" lon="100.105077">
<time>2016-10-07T06:16:18Z</time></trkpt>
<trkpt lat="25.924285" lon="100.104967">
<time>2016-10-07T06:16:19Z</time></trkpt>
<trkpt lat="25.924525" lon="100.104847">
<time>2016-10-07T06:16:20Z</time></trkpt>
<trkpt lat="25.924735" lon="100.104727">
<time>2016-10-07T06:16:21Z</time></trkpt>
<trkpt lat="25.924925" lon="100.104627">
<time>2016-10-07T06:16:22Z</time></trkpt>
<trkpt lat="25.925115" lon="100.104517">
<time>2016-10-07T06:16:23Z</time></trkpt>
<trkpt lat="25.925315" lon="100.104427">
<time>2016-10-07T06:16:24Z</time></trkpt>
<trkpt lat="25.925525" lon="100.104327">
<time>2016-10-07T06:16:25Z</time></trkpt>
<trkpt lat="25.925755" lon="100.104207">
<time>2016-10-07T06:16:26Z</time></trkpt>
<trkpt lat="25.926015" lon="100.104057">
<time>2016-10-07T06:16:27Z</time></trkpt>
<trkpt lat="25.926296" lon="100.103907">
<time>2016-10-07T06:16:28Z</time></trkpt>
<trkpt lat="25.926586" lon="100.103747">
<time>2016-10-07T06:16:29Z</time></trkpt>
<trkpt lat="25.926836" lon="100.103586">
<time>2016-10-07T06:16:30Z</time></trkpt>
<trkpt lat="25.927086" lon="100.103386">
<time>2016-10-07T06:16:31Z</time></trkpt>
<trkpt lat="25.927226" lon="100.103256">
<time>2016-10-07T06:16:32Z</time></trkpt>
<trkpt lat="25.927336" lon="100.103146">
<time>2016-10-07T06:16:33Z</time></trkpt>
<trkpt lat="25.927446" lon="100.103016">
<time>2016-10-07T06:16:34Z</time></trkpt>
<trkpt lat="25.927526" lon="100.102896">
<time>2016-10-07T06:16:35Z</time></trkpt>
<trkpt lat="25.927876" lon="100.102346">
<time>2016-10-07T06:16:36Z</time></trkpt>
<trkpt lat="25.928096" lon="100.102006">
<time>2016-10-07T06:16:37Z</time></trkpt>
<trkpt lat="25.928306" lon="100.101686">
<time>2016-10-07T06:16:38Z</time></trkpt>
<trkpt lat="25.928426" lon="100.101536">
<time>2016-10-07T06:16:39Z</time></trkpt>
<trkpt lat="25.928577" lon="100.101366">
<time>2016-10-07T06:16:40Z</time></trkpt>
<trkpt lat="25.928847" lon="100.101116">
<time>2016-10-07T06:16:41Z</time></trkpt>
<trkpt lat="25.929137" lon="100.100876">
<time>2016-10-07T06:16:42Z</time></trkpt>
<trkpt lat="25.929447" lon="100.100616">
<time>2016-10-07T06:16:43Z</time></trkpt>
<trkpt lat="25.929737" lon="100.100375">
<time>2016-10-07T06:16:44Z</time></trkpt>
<trkpt lat="25.930057" lon="100.100105">
<time>2016-10-07T06:16:45Z</time></trkpt>
<trkpt lat="25.930307" lon="100.099875">
<time>2016-10-07T06:16:46Z</time></trkpt>
<trkpt lat="25.930598" lon="100.099615">
<time>2016-10-07T06:16:47Z</time></trkpt>
<trkpt lat="25.930938" lon="100.099295">
<time>2016-10-07T06:16:48Z</time></trkpt>
<trkpt lat="25.931098" lon="100.099145">
<time>2016-10-07T06:16:49Z</time></trkpt>
<trkpt lat="25.931198" lon="100.099045">
<time>2016-10-07T06:16:50Z</time></trkpt>
<trkpt lat="25.931468" lon="100.098785">
<time>2016-10-07T06:16:51Z</time></trkpt>
<trkpt lat="25.931728" lon="100.098535">
<time>2016-10-07T06:16:52Z</time></trkpt>
<trkpt lat="25.931989" lon="100.098295">
<time>2016-10-07T06:16:53Z</time></trkpt>
<trkpt lat="25.932259" lon="100.098035">
<time>2016-10-07T06:16:54Z</time></trkpt>
<trkpt lat="25.932529" lon="100.097775">
<time>2016-10-07T06:16:55Z</time></trkpt>
<trkpt lat="25.932759" lon="100.097565">
<time>2016-10-07T06:16:56Z</time></trkpt>
<trkpt lat="25.932989" lon="100.097345">
<time>2016-10-07T06:16:57Z</time></trkpt>
<trkpt lat="25.933139" lon="100.097205">
<time>2016-10-07T06:16:58Z</time></trkpt>
<trkpt lat="25.933269" lon="100.097085">
<time>2016-10-07T06:16:59Z</time></trkpt>
<trkpt lat="25.933419" lon="100.096975">
<time>2016-10-07T06:17:00Z</time></trkpt>
<trkpt lat="25.93354" lon="100.096905">
<time>2016-10-07T06:17:01Z</time></trkpt>
<trkpt lat="25.93383" lon="100.096745">
<time>2016-10-07T06:17:02Z</time></trkpt>
<trkpt lat="25.93411" lon="100.096605">
<time>2016-10-07T06:17:03Z</time></trkpt>
<trkpt lat="25.93416" lon="100.096585">
<time>2016-10-07T06:17:04Z</time></trkpt>
<trkpt lat="25.93442" lon="100.096465">
<time>2016-10-07T06:17:05Z</time></trkpt>
<trkpt lat="25.93471" lon="100.096335">
<time>2016-10-07T06:17:06Z</time></trkpt>
<trkpt lat="25.935001" lon="100.096205">
<time>2016-10-07T06:17:07Z</time></trkpt>
<trkpt lat="25.935301" lon="100.096075">
<time>2016-10-07T06:17:08Z</time></trkpt>
<trkpt lat="25.935601" lon="100.095935">
<time>2016-10-07T06:17:09Z</time></trkpt>
<trkpt lat="25.935911" lon="100.095795">
<time>2016-10-07T06:17:10Z</time></trkpt>
<trkpt lat="25.936051" lon="100.095735">
<time>2016-10-07T06:17:11Z</time></trkpt>
<trkpt lat="25.936221" lon="100.095665">
<time>2016-10-07T06:17:12Z</time></trkpt>
<trkpt lat="25.936362" lon="100.095605">
<time>2016-10-07T06:17:13Z</time></trkpt>
<trkpt lat="25.936542" lon="100.095545">
<time>2016-10-07T06:17:14Z</time></trkpt>
<trkpt lat="25.936682" lon="100.095515">
<time>2016-10-07T06:17:15Z</time></trkpt>
<trkpt lat="25.936832" lon="100.095505">
<time>2016-10-07T06:17:16Z</time></trkpt>
<trkpt lat="25.936992" lon="100.095525">
<time>2016-10-07T06:17:17Z</time></trkpt>
<trkpt lat="25.937102" lon="100.095555">
<time>2016-10-07T06:17:18Z</time></trkpt>
<trkpt lat="25.937232" lon="100.095595">
<time>2016-10-07T06:17:19Z</time></trkpt>
<trkpt lat="25.937302" lon="100.095635">
<time>2016-10-07T06:17:20Z</time></trkpt>
<trkpt lat="25.937362" lon="100.095675">
<time>2016-10-07T06:17:21Z</time></trkpt>
<trkpt lat="25.937442" lon="100.095735">
<time>2016-10-07T06:17:22Z</time></trkpt>
<trkpt lat="25.937572" lon="100.095835">
<time>2016-10-07T06:17:23Z</time></trkpt>
<trkpt lat="25.937813" lon="100.096065">
<time>2016-10-07T06:17:24Z</time></trkpt>
<trkpt lat="25.938073" lon="100.096315">
<time>2016-10-07T06:17:25Z</time></trkpt>
<trkpt lat="25.938323" lon="100.096555">
<time>2016-10-07T06:17:26Z</time></trkpt>
<trkpt lat="25.938483" lon="100.096705">
<time>2016-10-07T06:17:27Z</time></trkpt>
<trkpt lat="25.938633" lon="100.096855">
<time>2016-10-07T06:17:28Z</time></trkpt>
<trkpt lat="25.938783" lon="100.096955">
<time>2016-10-07T06:17:29Z</time></trkpt>
<trkpt lat="25.938943" lon="100.097065">
<time>2016-10-07T06:17:30Z</time></trkpt>
<trkpt lat="25.939053" lon="100.097125">
<time>2016-10-07T06:17:31Z</time></trkpt>
<trkpt lat="25.939254" lon="100.097215">
<time>2016-10-07T06:17:32Z</time></trkpt>
<trkpt lat="25.939424" lon="100.097265">
<time>2016-10-07T06:17:33Z</time></trkpt>
<trkpt lat="25.939594" lon="100.097315">
<time>2016-10-07T06:17:34Z</time></trkpt>
<trkpt lat="25.939744" lon="100.097345">
<time>2016-10-07T06:17:35Z</time></trkpt>
<trkpt lat="25.939914" lon="100.097395">
<time>2016-10-07T06:17:36Z</time></trkpt>
<trkpt lat="25.940264" lon="100.097475">
<time>2016-10-07T06:17:37Z</time></trkpt>
<trkpt lat="25.940574" lon="100.097555">
<time>2016-10-07T06:17:38Z</time></trkpt>
<trkpt lat="25.940915" lon="100.097655">
<time>2016-10-07T06:17:39Z</time></trkpt>
<trkpt lat="25.941245" lon="100.097735">
<time>2016-10-07T06:17:40Z</time></trkpt>
<trkpt lat="25.941585" lon="100.097815">
<time>2016-10-07T06:17:41Z</time></trkpt>
<trkpt lat="25.941905" lon="100.097895">
<time>2016-10-07T06:17:42Z</time></trkpt>
<trkpt lat="25.942206" lon="100.097985">
<time>2016-10-07T06:17:43Z</time></trkpt>
<trkpt lat="25.942506" lon="100.098065">
<time>2016-10-07T06:17:44Z</time></trkpt>
<trkpt lat="25.942796" lon="100.098135">
<time>2016-10-07T06:17:45Z</time></trkpt>
<trkpt lat="25.942946" lon="100.098165">
<time>2016-10-07T06:17:46Z</time></trkpt>
<trkpt lat="25.943076" lon="100.098205">
<time>2016-10-07T06:17:47Z</time></trkpt>
<trkpt lat="25.943166" lon="100.098235">
<time>2016-10-07T06:17:48Z</time></trkpt>
<trkpt lat="25.943276" lon="100.098305">
<time>2016-10-07T06:17:49Z</time></trkpt>
<trkpt lat="25.943366" lon="100.098375">
<time>2016-10-07T06:17:50Z</time></trkpt>
<trkpt lat="25.943446" lon="100.098465">
<time>2016-10-07T06:17:51Z</time></trkpt>
<trkpt lat="25.943497" lon="100.098555">
<time>2016-10-07T06:17:52Z</time></trkpt>
<trkpt lat="25.943567" lon="100.098695">
<time>2016-10-07T06:17:53Z</time></trkpt>
<trkpt lat="25.943657" lon="100.099055">
<time>2016-10-07T06:17:54Z</time></trkpt>
<trkpt lat="25.943717" lon="100.099305">
<time>2016-10-07T06:17:55Z</time></trkpt>
<trkpt lat="25.943717" lon="100.099305">
<time>2016-10-07T06:17:56Z</time></trkpt>
<trkpt lat="25.943937" lon="100.099395">
<time>2016-10-07T06:17:57Z</time></trkpt>
<trkpt lat="25.944497" lon="100.099365">
<time>2016-10-07T06:17:58Z</time></trkpt>
<trkpt lat="25.944617" lon="100.099365">
<time>2016-10-07T06:17:59Z</time></trkpt>
<trkpt lat="25.944647" lon="100.099365">
<time>2016-10-07T06:18:00Z</time></trkpt>
<trkpt lat="25.944757" lon="100.099375">
<time>2016-10-07T06:18:01Z</time></trkpt>
<trkpt lat="25.944998" lon="100.099405">
<time>2016-10-07T06:18:02Z</time></trkpt>
<trkpt lat="25.945648" lon="100.099525">
<time>2016-10-07T06:18:03Z</time></trkpt>
<trkpt lat="25.946439" lon="100.099635">
<time>2016-10-07T06:18:04Z</time></trkpt>
<trkpt lat="25.9476" lon="100.099845">
<time>2016-10-07T06:18:05Z</time></trkpt>
<trkpt lat="25.94771" lon="100.099845">
<time>2016-10-07T06:18:06Z</time></trkpt>
<trkpt lat="25.94784" lon="100.099845">
<time>2016-10-07T06:18:07Z</time></trkpt>
<trkpt lat="25.94791" lon="100.099825">
<time>2016-10-07T06:18:08Z</time></trkpt>
<trkpt lat="25.94801" lon="100.099785">
<time>2016-10-07T06:18:09Z</time></trkpt>
<trkpt lat="25.94811" lon="100.099725">
<time>2016-10-07T06:18:10Z</time></trkpt>
<trkpt lat="25.94829" lon="100.099585">
<time>2016-10-07T06:18:11Z</time></trkpt>
<trkpt lat="25.949411" lon="100.098635">
<time>2016-10-07T06:18:12Z</time></trkpt>
<trkpt lat="25.951362" lon="100.097024">
<time>2016-10-07T06:18:13Z</time></trkpt>
<trkpt lat="25.951362" lon="100.097024">
<time>2016-10-07T06:18:14Z</time></trkpt>
<trkpt lat="25.951522" lon="100.097014">
<time>2016-10-07T06:18:15Z</time></trkpt>
<trkpt lat="25.951622" lon="100.097004">
<time>2016-10-07T06:18:16Z</time></trkpt>
<trkpt lat="25.951692" lon="100.096994">
<time>2016-10-07T06:18:17Z</time></trkpt>
<trkpt lat="25.951772" lon="100.096974">
<time>2016-10-07T06:18:18Z</time></trkpt>
<trkpt lat="25.951872" lon="100.096954">
<time>2016-10-07T06:18:19Z</time></trkpt>
<trkpt lat="25.952022" lon="100.096914">
<time>2016-10-07T06:18:20Z</time></trkpt>
<trkpt lat="25.952233" lon="100.096844">
<time>2016-10-07T06:18:21Z</time></trkpt>
<trkpt lat="25.952443" lon="100.096774">
<time>2016-10-07T06:18:22Z</time></trkpt>
<trkpt lat="25.952583" lon="100.096724">
<time>2016-10-07T06:18:23Z</time></trkpt>
<trkpt lat="25.952683" lon="100.096684">
<time>2016-10-07T06:18:24Z</time></trkpt>
<trkpt lat="25.952783" lon="100.096634">
<time>2016-10-07T06:18:25Z</time></trkpt>
<trkpt lat="25.952863" lon="100.096584">
<time>2016-10-07T06:18:26Z</time></trkpt>
<trkpt lat="25.952923" lon="100.096534">
<time>2016-10-07T06:18:27Z</time></trkpt>
<trkpt lat="25.953173" lon="100.096324">
<time>2016-10-07T06:18:28Z</time></trkpt>
<trkpt lat="25.953423" lon="100.096134">
<time>2016-10-07T06:18:29Z</time></trkpt>
<trkpt lat="25.954934" lon="100.095784">
<time>2016-10-07T06:18:30Z</time></trkpt>
<trkpt lat="25.955975" lon="100.095544">
<time>2016-10-07T06:18:31Z</time></trkpt>
<trkpt lat="25.956325" lon="100.095454">
<time>2016-10-07T06:18:32Z</time></trkpt>
<trkpt lat="25.956856" lon="100.095334">
<time>2016-10-07T06:18:33Z</time></trkpt>
<trkpt lat="25.957867" lon="100.095104">
<time>2016-10-07T06:18:34Z</time></trkpt>
<trkpt lat="25.958427" lon="100.094974">
<time>2016-10-07T06:18:35Z</time></trkpt>
<trkpt lat="25.958777" lon="100.094894">
<time>2016-10-07T06:18:36Z</time></trkpt>
<trkpt lat="25.959047" lon="100.094844">
<time>2016-10-07T06:18:37Z</time></trkpt>
<trkpt lat="25.959308" lon="100.094814">
<time>2016-10-07T06:18:38Z</time></trkpt>
<trkpt lat="25.959538" lon="100.094784">
<time>2016-10-07T06:18:39Z</time></trkpt>
<trkpt lat="25.959818" lon="100.094774">
<time>2016-10-07T06:18:40Z</time></trkpt>
<trkpt lat="25.959948" lon="100.094764">
<time>2016-10-07T06:18:41Z</time></trkpt>
<trkpt lat="25.960038" lon="100.094754">
<time>2016-10-07T06:18:42Z</time></trkpt>
<trkpt lat="25.960238" lon="100.094754">
<time>2016-10-07T06:18:43Z</time></trkpt>
<trkpt lat="25.960458" lon="100.094754">
<time>2016-10-07T06:18:44Z</time></trkpt>
<trkpt lat="25.960779" lon="100.094764">
<time>2016-10-07T06:18:45Z</time></trkpt>
<trkpt lat="25.961139" lon="100.094784">
<time>2016-10-07T06:18:46Z</time></trkpt>
<trkpt lat="25.96228" lon="100.094844">
<time>2016-10-07T06:18:47Z</time></trkpt>
<trkpt lat="25.964051" lon="100.094944">
<time>2016-10-07T06:18:48Z</time></trkpt>
<trkpt lat="25.965262" lon="100.095004">
<time>2016-10-07T06:18:49Z</time></trkpt>
<trkpt lat="25.966202" lon="100.095054">
<time>2016-10-07T06:18:50Z</time></trkpt>
<trkpt lat="25.966443" lon="100.095074">
<time>2016-10-07T06:18:51Z</time></trkpt>
<trkpt lat="25.966633" lon="100.095094">
<time>2016-10-07T06:18:52Z</time></trkpt>
<trkpt lat="25.966853" lon="100.095114">
<time>2016-10-07T06:18:53Z</time></trkpt>
<trkpt lat="25.967063" lon="100.095144">
<time>2016-10-07T06:18:54Z</time></trkpt>
<trkpt lat="25.967253" lon="100.095184">
<time>2016-10-07T06:18:55Z</time></trkpt>
<trkpt lat="25.967433" lon="100.095224">
<time>2016-10-07T06:18:56Z</time></trkpt>
<trkpt lat="25.967683" lon="100.095294">
<time>2016-10-07T06:18:57Z</time></trkpt>
<trkpt lat="25.967944" lon="100.095374">
<time>2016-10-07T06:18:58Z</time></trkpt>
<trkpt lat="25.968154" lon="100.095454">
<time>2016-10-07T06:18:59Z</time></trkpt>
<trkpt lat="25.968334" lon="100.095524">
<time>2016-10-07T06:19:00Z</time></trkpt>
<trkpt lat="25.968504" lon="100.095594">
<time>2016-10-07T06:19:01Z</time></trkpt>
<trkpt lat="25.968654" lon="100.095674">
<time>2016-10-07T06:19:02Z</time></trkpt>
<trkpt lat="25.968844" lon="100.095764">
<time>2016-10-07T06:19:03Z</time></trkpt>
<trkpt lat="25.969044" lon="100.095874">
<time>2016-10-07T06:19:04Z</time></trkpt>
<trkpt lat="25.969204" lon="100.095964">
<time>2016-10-07T06:19:05Z</time></trkpt>
<trkpt lat="25.969324" lon="100.096044">
<time>2016-10-07T06:19:06Z</time></trkpt>
<trkpt lat="25.969445" lon="100.096124">
<time>2016-10-07T06:19:07Z</time></trkpt>
<trkpt lat="25.969535" lon="100.096184">
<time>2016-10-07T06:19:08Z</time></trkpt>
<trkpt lat="25.969645" lon="100.096264">
<time>2016-10-07T06:19:09Z</time></trkpt>
<trkpt lat="25.969805" lon="100.096374">
<time>2016-10-07T06:19:10Z</time></trkpt>
<trkpt lat="25.969965" lon="100.096494">
<time>2016-10-07T06:19:11Z</time></trkpt>
<trkpt lat="25.970405" lon="100.096834">
<time>2016-10-07T06:19:12Z</time></trkpt>
<trkpt lat="25.971566" lon="100.097714">
<time>2016-10-07T06:19:13Z</time></trkpt>
<trkpt lat="25.972247" lon="100.098244">
<time>2016-10-07T06:19:14Z</time></trkpt>
<trkpt lat="25.973638" lon="100.099294">
<time>2016-10-07T06:19:15Z</time></trkpt>
<trkpt lat="25.974338" lon="100.099834">
<time>2016-10-07T06:19:16Z</time></trkpt>
<trkpt lat="25.974738" lon="100.100144">
<time>2016-10-07T06:19:17Z</time></trkpt>
<trkpt lat="25.975289" lon="100.100564">
<time>2016-10-07T06:19:18Z</time></trkpt>
<trkpt lat="25.975609" lon="100.100804">
<time>2016-10-07T06:19:19Z</time></trkpt>
<trkpt lat="25.975929" lon="100.101054">
<time>2016-10-07T06:19:20Z</time></trkpt>
<trkpt lat="25.97622" lon="100.101264">
<time>2016-10-07T06:19:21Z</time></trkpt>
<trkpt lat="25.97662" lon="100.101555">
<time>2016-10-07T06:19:22Z</time></trkpt>
<trkpt lat="25.97693" lon="100.101765">
<time>2016-10-07T06:19:23Z</time></trkpt>
<trkpt lat="25.97714" lon="100.101905">
<time>2016-10-07T06:19:24Z</time></trkpt>
<trkpt lat="25.977391" lon="100.102055">
<time>2016-10-07T06:19:25Z</time></trkpt>
<trkpt lat="25.977781" lon="100.102265">
<time>2016-10-07T06:19:26Z</time></trkpt>
<trkpt lat="25.978061" lon="100.102415">
<time>2016-10-07T06:19:27Z</time></trkpt>
<trkpt lat="25.978191" lon="100.102475">
<time>2016-10-07T06:19:28Z</time></trkpt>
<trkpt lat="25.978442" lon="100.102585">
<time>2016-10-07T06:19:29Z</time></trkpt>
<trkpt lat="25.978722" lon="100.102695">
<time>2016-10-07T06:19:30Z</time></trkpt>
<trkpt lat="25.978942" lon="100.102775">
<time>2016-10-07T06:19:31Z</time></trkpt>
<trkpt lat="25.979162" lon="100.102855">
<time>2016-10-07T06:19:32Z</time></trkpt>
<trkpt lat="25.979622" lon="100.102995">
<time>2016-10-07T06:19:33Z</time></trkpt>
<trkpt lat="25.979953" lon="100.103075">
<time>2016-10-07T06:19:34Z</time></trkpt>
<trkpt lat="25.980163" lon="100.103125">
<time>2016-10-07T06:19:35Z</time></trkpt>
<trkpt lat="25.980403" lon="100.103175">
<time>2016-10-07T06:19:36Z</time></trkpt>
<trkpt lat="25.980653" lon="100.103215">
<time>2016-10-07T06:19:37Z</time></trkpt>
<trkpt lat="25.980913" lon="100.103245">
<time>2016-10-07T06:19:38Z</time></trkpt>
<trkpt lat="25.981174" lon="100.103275">
<time>2016-10-07T06:19:39Z</time></trkpt>
<trkpt lat="25.981614" lon="100.103315">
<time>2016-10-07T06:19:40Z</time></trkpt>
<trkpt lat="25.982064" lon="100.103345">
<time>2016-10-07T06:19:41Z</time></trkpt>
<trkpt lat="25.982495" lon="100.103375">
<time>2016-10-07T06:19:42Z</time></trkpt>
<trkpt lat="25.982935" lon="100.103415">
<time>2016-10-07T06:19:43Z</time></trkpt>
<trkpt lat="25.983285" lon="100.103445">
<time>2016-10-07T06:19:44Z</time></trkpt>
<trkpt lat="25.983625" lon="100.103485">
<time>2016-10-07T06:19:45Z</time></trkpt>
<trkpt lat="25.983906" lon="100.103515">
<time>2016-10-07T06:19:46Z</time></trkpt>
<trkpt lat="25.984046" lon="100.103535">
<time>2016-10-07T06:19:47Z</time></trkpt>
<trkpt lat="25.984296" lon="100.103575">
<time>2016-10-07T06:19:48Z</time></trkpt>
<trkpt lat="25.984696" lon="100.103655">
<time>2016-10-07T06:19:49Z</time></trkpt>
<trkpt lat="25.984996" lon="100.103715">
<time>2016-10-07T06:19:50Z</time></trkpt>
<trkpt lat="25.985277" lon="100.103785">
<time>2016-10-07T06:19:51Z</time></trkpt>
<trkpt lat="25.985587" lon="100.103875">
<time>2016-10-07T06:19:52Z</time></trkpt>
<trkpt lat="25.985887" lon="100.103955">
<time>2016-10-07T06:19:53Z</time></trkpt>
<trkpt lat="25.986137" lon="100.104035">
<time>2016-10-07T06:19:54Z</time></trkpt>
<trkpt lat="25.986287" lon="100.104085">
<time>2016-10-07T06:19:55Z</time></trkpt>
<trkpt lat="25.986518" lon="100.104165">
<time>2016-10-07T06:19:56Z</time></trkpt>
<trkpt lat="25.986808" lon="100.104275">
<time>2016-10-07T06:19:57Z</time></trkpt>
<trkpt lat="25.987228" lon="100.104435">
<time>2016-10-07T06:19:58Z</time></trkpt>
<trkpt lat="25.987518" lon="100.104555">
<time>2016-10-07T06:19:59Z</time></trkpt>
<trkpt lat="25.987839" lon="100.104675">
<time>2016-10-07T06:20:00Z</time></trkpt>
<trkpt lat="25.988019" lon="100.104735">
<time>2016-10-07T06:20:01Z</time></trkpt>
<trkpt lat="25.988569" lon="100.104945">
<time>2016-10-07T06:20:02Z</time></trkpt>
<trkpt lat="25.9888" lon="100.105015">
<time>2016-10-07T06:20:03Z</time></trkpt>
<trkpt lat="25.98909" lon="100.105105">
<time>2016-10-07T06:20:04Z</time></trkpt>
<trkpt lat="25.9894" lon="100.105196">
<time>2016-10-07T06:20:05Z</time></trkpt>
<trkpt lat="25.98958" lon="100.105246">
<time>2016-10-07T06:20:06Z</time></trkpt>
<trkpt lat="25.98972" lon="100.105276">
<time>2016-10-07T06:20:07Z</time></trkpt>
<trkpt lat="25.98988" lon="100.105306">
<time>2016-10-07T06:20:08Z</time></trkpt>
<trkpt lat="25.99002" lon="100.105326">
<time>2016-10-07T06:20:09Z</time></trkpt>
<trkpt lat="25.990331" lon="100.105376">
<time>2016-10-07T06:20:10Z</time></trkpt>
<trkpt lat="25.990571" lon="100.105396">
<time>2016-10-07T06:20:11Z</time></trkpt>
<trkpt lat="25.990581" lon="100.105396">
<time>2016-10-07T06:20:12Z</time></trkpt>
<trkpt lat="25.990771" lon="100.105416">
<time>2016-10-07T06:20:13Z</time></trkpt>
<trkpt lat="25.990971" lon="100.105426">
<time>2016-10-07T06:20:14Z</time></trkpt>
<trkpt lat="25.991221" lon="100.105426">
<time>2016-10-07T06:20:15Z</time></trkpt>
<trkpt lat="25.991512" lon="100.105426">
<time>2016-10-07T06:20:16Z</time></trkpt>
<trkpt lat="25.991782" lon="100.105406">
<time>2016-10-07T06:20:17Z</time></trkpt>
<trkpt lat="25.992062" lon="100.105386">
<time>2016-10-07T06:20:18Z</time></trkpt>
<trkpt lat="25.992332" lon="100.105346">
<time>2016-10-07T06:20:19Z</time></trkpt>
<trkpt lat="25.992562" lon="100.105305">
<time>2016-10-07T06:20:20Z</time></trkpt>
<trkpt lat="25.992752" lon="100.105255">
<time>2016-10-07T06:20:21Z</time></trkpt>
<trkpt lat="25.993113" lon="100.105175">
<time>2016-10-07T06:20:22Z</time></trkpt>
<trkpt lat="25.993383" lon="100.105095">
<time>2016-10-07T06:20:23Z</time></trkpt>
<trkpt lat="25.993693" lon="100.105005">
<time>2016-10-07T06:20:24Z</time></trkpt>
<trkpt lat="25.993903" lon="100.104935">
<time>2016-10-07T06:20:25Z</time></trkpt>
<trkpt lat="25.994103" lon="100.104865">
<time>2016-10-07T06:20:26Z</time></trkpt>
<trkpt lat="25.994283" lon="100.104795">
<time>2016-10-07T06:20:27Z</time></trkpt>
<trkpt lat="25.994704" lon="100.104635">
<time>2016-10-07T06:20:28Z</time></trkpt>
<trkpt lat="25.994904" lon="100.104555">
<time>2016-10-07T06:20:29Z</time></trkpt>
<trkpt lat="25.995084" lon="100.104495">
<time>2016-10-07T06:20:30Z</time></trkpt>
<trkpt lat="25.995404" lon="100.104375">
<time>2016-10-07T06:20:31Z</time></trkpt>
<trkpt lat="25.995674" lon="100.104285">
<time>2016-10-07T06:20:32Z</time></trkpt>
<trkpt lat="25.995834" lon="100.104235">
<time>2016-10-07T06:20:33Z</time></trkpt>
<trkpt lat="25.995904" lon="100.104215">
<time>2016-10-07T06:20:34Z</time></trkpt>
<trkpt lat="25.995994" lon="100.104185">
<time>2016-10-07T06:20:35Z</time></trkpt>
<trkpt lat="25.996194" lon="100.104135">
<time>2016-10-07T06:20:36Z</time></trkpt>
<trkpt lat="25.996385" lon="100.104085">
<time>2016-10-07T06:20:37Z</time></trkpt>
<trkpt lat="25.996525" lon="100.104065">
<time>2016-10-07T06:20:38Z</time></trkpt>
<trkpt lat="25.996665" lon="100.104035">
<time>2016-10-07T06:20:39Z</time></trkpt>
<trkpt lat="25.996795" lon="100.104025">
<time>2016-10-07T06:20:40Z</time></trkpt>
<trkpt lat="25.996975" lon="100.104015">
<time>2016-10-07T06:20:41Z</time></trkpt>
<trkpt lat="25.997155" lon="100.104005">
<time>2016-10-07T06:20:42Z</time></trkpt>
<trkpt lat="25.997395" lon="100.104005">
<time>2016-10-07T06:20:43Z</time></trkpt>
<trkpt lat="25.997685" lon="100.104025">
<time>2016-10-07T06:20:44Z</time></trkpt>
<trkpt lat="25.997826" lon="100.104035">
<time>2016-10-07T06:20:45Z</time></trkpt>
<trkpt lat="25.997956" lon="100.104055">
<time>2016-10-07T06:20:46Z</time></trkpt>
<trkpt lat="25.998156" lon="100.104085">
<time>2016-10-07T06:20:47Z</time></trkpt>
<trkpt lat="25.998346" lon="100.104135">
<time>2016-10-07T06:20:48Z</time></trkpt>
<trkpt lat="25.998536" lon="100.104185">
<time>2016-10-07T06:20:49Z</time></trkpt>
<trkpt lat="25.998706" lon="100.104235">
<time>2016-10-07T06:20:50Z</time></trkpt>
<trkpt lat="25.998876" lon="100.104305">
<time>2016-10-07T06:20:51Z</time></trkpt>
<trkpt lat="25.999066" lon="100.104375">
<time>2016-10-07T06:20:52Z</time></trkpt>
<trkpt lat="25.999277" lon="100.104475">
<time>2016-10-07T06:20:53Z</time></trkpt>
<trkpt lat="25.999487" lon="100.104585">
<time>2016-10-07T06:20:54Z</time></trkpt>
<trkpt lat="25.999607" lon="100.104655">
<time>2016-10-07T06:20:55Z</time></trkpt>
<trkpt lat="25.999657" lon="100.104685">
<time>2016-10-07T06:20:56Z</time></trkpt>
<trkpt lat="25.999827" lon="100.104795">
<time>2016-10-07T06:20:57Z</time></trkpt>
<trkpt lat="26.000017" lon="100.104935">
<time>2016-10-07T06:20:58Z</time></trkpt>
<trkpt lat="26.000097" lon="100.105005">
<time>2016-10-07T06:20:59Z</time></trkpt>
<trkpt lat="26.000177" lon="100.105055">
<time>2016-10-07T06:21:00Z</time></trkpt>
<trkpt lat="26.000288" lon="100.105155">
<time>2016-10-07T06:21:01Z</time></trkpt>
<trkpt lat="26.000398" lon="100.105255">
<time>2016-10-07T06:21:02Z</time></trkpt>
<trkpt lat="26.000608" lon="100.105465">
<time>2016-10-07T06:21:03Z</time></trkpt>
<trkpt lat="26.000778" lon="100.105635">
<time>2016-10-07T06:21:04Z</time></trkpt>
<trkpt lat="26.000978" lon="100.105846">
<time>2016-10-07T06:21:05Z</time></trkpt>
<trkpt lat="26.001289" lon="100.106196">
<time>2016-10-07T06:21:06Z</time></trkpt>
<trkpt lat="26.001799" lon="100.106776">
<time>2016-10-07T06:21:07Z</time></trkpt>
<trkpt lat="26.00228" lon="100.107346">
<time>2016-10-07T06:21:08Z</time></trkpt>
<trkpt lat="26.00228" lon="100.107346">
<time>2016-10-07T06:21:09Z</time></trkpt>
<trkpt lat="26.00241" lon="100.107216">
<time>2016-10-07T06:21:10Z</time></trkpt>
<trkpt lat="26.00241" lon="100.107216">
<time>2016-10-07T06:21:11Z</time></trkpt>
<trkpt lat="26.003041" lon="100.107957">
<time>2016-10-07T06:21:12Z</time></trkpt>
<trkpt lat="26.003041" lon="100.107957">
<time>2016-10-07T06:21:13Z</time></trkpt>
<trkpt lat="26.003871" lon="100.107927">
<time>2016-10-07T06:21:14Z</time></trkpt>
<trkpt lat="26.004221" lon="100.107906">
<time>2016-10-07T06:21:15Z</time></trkpt>
<trkpt lat="26.004752" lon="100.107876">
<time>2016-10-07T06:21:16Z</time></trkpt>
<trkpt lat="26.005132" lon="100.107816">
<time>2016-10-07T06:21:17Z</time></trkpt>
<trkpt lat="26.005662" lon="100.107716">
<time>2016-10-07T06:21:18Z</time></trkpt>
<trkpt lat="26.005913" lon="100.107646">
<time>2016-10-07T06:21:19Z</time></trkpt>
<trkpt lat="26.006203" lon="100.107546">
<time>2016-10-07T06:21:20Z</time></trkpt>
<trkpt lat="26.006443" lon="100.107436">
<time>2016-10-07T06:21:21Z</time></trkpt>
<trkpt lat="26.007213" lon="100.107066">
<time>2016-10-07T06:21:22Z</time></trkpt>
<trkpt lat="26.007743" lon="100.106846">
<time>2016-10-07T06:21:23Z</time></trkpt>
<trkpt lat="26.008214" lon="100.106686">
<time>2016-10-07T06:21:24Z</time></trkpt>
<trkpt lat="26.011946" lon="100.105655">
<time>2016-10-07T06:21:25Z</time></trkpt>
<trkpt lat="26.012356" lon="100.105505">
<time>2016-10-07T06:21:26Z</time></trkpt>
<trkpt lat="26.013006" lon="100.105075">
<time>2016-10-07T06:21:27Z</time></trkpt>
<trkpt lat="26.014977" lon="100.103814">
<time>2016-10-07T06:21:28Z</time></trkpt>
<trkpt lat="26.015548" lon="100.103544">
<time>2016-10-07T06:21:29Z</time></trkpt>
<trkpt lat="26.015888" lon="100.103704">
<time>2016-10-07T06:21:30Z</time></trkpt>
<trkpt lat="26.01775" lon="100.104685">
<time>2016-10-07T06:21:31Z</time></trkpt>
<trkpt lat="26.01822" lon="100.104935">
<time>2016-10-07T06:21:32Z</time></trkpt>
<trkpt lat="26.020602" lon="100.105955">
<time>2016-10-07T06:21:33Z</time></trkpt>
<trkpt lat="26.020942" lon="100.106105">
<time>2016-10-07T06:21:34Z</time></trkpt>
<trkpt lat="26.021073" lon="100.106205">
<time>2016-10-07T06:21:35Z</time></trkpt>
<trkpt lat="26.021283" lon="100.106365">
<time>2016-10-07T06:21:36Z</time></trkpt>
<trkpt lat="26.021543" lon="100.106755">
<time>2016-10-07T06:21:37Z</time></trkpt>
<trkpt lat="26.022916" lon="100.109847">
<time>2016-10-07T06:21:38Z</time></trkpt>
<trkpt lat="26.023006" lon="100.110047">
<time>2016-10-07T06:21:39Z</time></trkpt>
<trkpt lat="26.023176" lon="100.110428">
<time>2016-10-07T06:21:40Z</time></trkpt>
<trkpt lat="26.023426" lon="100.110898">
<time>2016-10-07T06:21:41Z</time></trkpt>
<trkpt lat="26.023477" lon="100.110988">
<time>2016-10-07T06:21:42Z</time></trkpt>
<trkpt lat="26.023917" lon="100.111788">
<time>2016-10-07T06:21:43Z</time></trkpt>
<trkpt lat="26.024418" lon="100.112559">
<time>2016-10-07T06:21:44Z</time></trkpt>
<trkpt lat="26.024909" lon="100.11314">
<time>2016-10-07T06:21:45Z</time></trkpt>
<trkpt lat="26.02579" lon="100.1141">
<time>2016-10-07T06:21:46Z</time></trkpt>
<trkpt lat="26.027733" lon="100.115792">
<time>2016-10-07T06:21:47Z</time></trkpt>
<trkpt lat="26.027993" lon="100.116002">
<time>2016-10-07T06:21:48Z</time></trkpt>
<trkpt lat="26.028093" lon="100.116062">
<time>2016-10-07T06:21:49Z</time></trkpt>
<trkpt lat="26.028183" lon="100.116102">
<time>2016-10-07T06:21:50Z</time></trkpt>
<trkpt lat="26.028293" lon="100.116132">
<time>2016-10-07T06:21:51Z</time></trkpt>
<trkpt lat="26.028374" lon="100.116132">
<time>2016-10-07T06:21:52Z</time></trkpt>
<trkpt lat="26.028484" lon="100.116132">
<time>2016-10-07T06:21:53Z</time></trkpt>
<trkpt lat="26.028654" lon="100.116102">
<time>2016-10-07T06:21:54Z</time></trkpt>
<trkpt lat="26.028774" lon="100.116052">
<time>2016-10-07T06:21:55Z</time></trkpt>
<trkpt lat="26.028884" lon="100.116002">
<time>2016-10-07T06:21:56Z</time></trkpt>
<trkpt lat="26.028984" lon="100.115912">
<time>2016-10-07T06:21:57Z</time></trkpt>
<trkpt lat="26.029074" lon="100.115822">
<time>2016-10-07T06:21:58Z</time></trkpt>
<trkpt lat="26.029154" lon="100.115712">
<time>2016-10-07T06:21:59Z</time></trkpt>
<trkpt lat="26.029244" lon="100.115521">
<time>2016-10-07T06:22:00Z</time></trkpt>
<trkpt lat="26.029373" lon="100.115131">
<time>2016-10-07T06:22:01Z</time></trkpt>
<trkpt lat="26.029643" lon="100.11407">
<time>2016-10-07T06:22:02Z</time></trkpt>
<trkpt lat="26.029813" lon="100.11352">
<time>2016-10-07T06:22:03Z</time></trkpt>
<trkpt lat="26.030132" lon="100.112879">
<time>2016-10-07T06:22:04Z</time></trkpt>
<trkpt lat="26.030422" lon="100.112469">
<time>2016-10-07T06:22:05Z</time></trkpt>
<trkpt lat="26.030632" lon="100.112229">
<time>2016-10-07T06:22:06Z</time></trkpt>
<trkpt lat="26.031562" lon="100.111288">
<time>2016-10-07T06:22:07Z</time></trkpt>
<trkpt lat="26.031752" lon="100.110968">
<time>2016-10-07T06:22:08Z</time></trkpt>
<trkpt lat="26.031832" lon="100.110627">
<time>2016-10-07T06:22:09Z</time></trkpt>
<trkpt lat="26.032221" lon="100.108666">
<time>2016-10-07T06:22:10Z</time></trkpt>
<trkpt lat="26.032401" lon="100.108186">
<time>2016-10-07T06:22:11Z</time></trkpt>
<trkpt lat="26.032661" lon="100.107736">
<time>2016-10-07T06:22:12Z</time></trkpt>
<trkpt lat="26.033051" lon="100.107265">
<time>2016-10-07T06:22:13Z</time></trkpt>
<trkpt lat="26.033521" lon="100.106875">
<time>2016-10-07T06:22:14Z</time></trkpt>
<trkpt lat="26.034192" lon="100.106325">
<time>2016-10-07T06:22:15Z</time></trkpt>
<trkpt lat="26.034442" lon="100.106145">
<time>2016-10-07T06:22:16Z</time></trkpt>
<trkpt lat="26.034662" lon="100.106015">
<time>2016-10-07T06:22:17Z</time></trkpt>
<trkpt lat="26.034982" lon="100.105895">
<time>2016-10-07T06:22:18Z</time></trkpt>
<trkpt lat="26.035362" lon="100.105795">
<time>2016-10-07T06:22:19Z</time></trkpt>
<trkpt lat="26.036683" lon="100.105494">
<time>2016-10-07T06:22:20Z</time></trkpt>
<trkpt lat="26.037093" lon="100.105434">
<time>2016-10-07T06:22:21Z</time></trkpt>
<trkpt lat="26.037444" lon="100.105464">
<time>2016-10-07T06:22:22Z</time></trkpt>
<trkpt lat="26.038214" lon="100.105674">
<time>2016-10-07T06:22:23Z</time></trkpt>
<trkpt lat="26.038655" lon="100.105744">
<time>2016-10-07T06:22:24Z</time></trkpt>
<trkpt lat="26.039175" lon="100.105825">
<time>2016-10-07T06:22:25Z</time></trkpt>
<trkpt lat="26.040736" lon="100.105925">
<time>2016-10-07T06:22:26Z</time></trkpt>
<trkpt lat="26.040806" lon="100.105945">
<time>2016-10-07T06:22:27Z</time></trkpt>
<trkpt lat="26.040866" lon="100.105975">
<time>2016-10-07T06:22:28Z</time></trkpt>
<trkpt lat="26.040916" lon="100.106015">
<time>2016-10-07T06:22:29Z</time></trkpt>
<trkpt lat="26.040946" lon="100.106055">
<time>2016-10-07T06:22:30Z</time></trkpt>
<trkpt lat="26.040986" lon="100.106105">
<time>2016-10-07T06:22:31Z</time></trkpt>
<trkpt lat="26.041016" lon="100.106165">
<time>2016-10-07T06:22:32Z</time></trkpt>
<trkpt lat="26.041026" lon="100.106225">
<time>2016-10-07T06:22:33Z</time></trkpt>
<trkpt lat="26.041036" lon="100.106275">
<time>2016-10-07T06:22:34Z</time></trkpt>
<trkpt lat="26.041026" lon="100.106335">
<time>2016-10-07T06:22:35Z</time></trkpt>
<trkpt lat="26.041006" lon="100.106415">
<time>2016-10-07T06:22:36Z</time></trkpt>
<trkpt lat="26.040986" lon="100.106465">
<time>2016-10-07T06:22:37Z</time></trkpt>
<trkpt lat="26.040966" lon="100.106505">
<time>2016-10-07T06:22:38Z</time></trkpt>
<trkpt lat="26.040936" lon="100.106535">
<time>2016-10-07T06:22:39Z</time></trkpt>
<trkpt lat="26.040876" lon="100.106575">
<time>2016-10-07T06:22:40Z</time></trkpt>
<trkpt lat="26.040846" lon="100.106595">
<time>2016-10-07T06:22:41Z</time></trkpt>
<trkpt lat="26.040806" lon="100.106605">
<time>2016-10-07T06:22:42Z</time></trkpt>
<trkpt lat="26.040766" lon="100.106625">
<time>2016-10-07T06:22:43Z</time></trkpt>
<trkpt lat="26.040706" lon="100.106635">
<time>2016-10-07T06:22:44Z</time></trkpt>
<trkpt lat="26.040596" lon="100.106645">
<time>2016-10-07T06:22:45Z</time></trkpt>
<trkpt lat="26.038345" lon="100.106695">
<time>2016-10-07T06:22:46Z</time></trkpt>
<trkpt lat="26.037964" lon="100.106745">
<time>2016-10-07T06:22:47Z</time></trkpt>
<trkpt lat="26.037624" lon="100.106875">
<time>2016-10-07T06:22:48Z</time></trkpt>
<trkpt lat="26.036714" lon="100.107355">
<time>2016-10-07T06:22:49Z</time></trkpt>
<trkpt lat="26.036474" lon="100.107545">
<time>2016-10-07T06:22:50Z</time></trkpt>
<trkpt lat="26.036394" lon="100.107676">
<time>2016-10-07T06:22:51Z</time></trkpt>
<trkpt lat="26.036324" lon="100.107966">
<time>2016-10-07T06:22:52Z</time></trkpt>
<trkpt lat="26.036404" lon="100.108336">
<time>2016-10-07T06:22:53Z</time></trkpt>
<trkpt lat="26.036795" lon="100.109136">
<time>2016-10-07T06:22:54Z</time></trkpt>
<trkpt lat="26.037035" lon="100.109617">
<time>2016-10-07T06:22:55Z</time></trkpt>
<trkpt lat="26.037085" lon="100.109857">
<time>2016-10-07T06:22:56Z</time></trkpt>
<trkpt lat="26.037046" lon="100.110277">
<time>2016-10-07T06:22:57Z</time></trkpt>
<trkpt lat="26.035587" lon="100.1146">
<time>2016-10-07T06:22:58Z</time></trkpt>
<trkpt lat="26.035438" lon="100.115061">
<time>2016-10-07T06:22:59Z</time></trkpt>
<trkpt lat="26.035109" lon="100.116943">
<time>2016-10-07T06:23:00Z</time></trkpt>
<trkpt lat="26.035089" lon="100.117073">
<time>2016-10-07T06:23:01Z</time></trkpt>
<trkpt lat="26.035099" lon="100.117223">
<time>2016-10-07T06:23:02Z</time></trkpt>
<trkpt lat="26.035109" lon="100.117383">
<time>2016-10-07T06:23:03Z</time></trkpt>
<trkpt lat="26.035139" lon="100.117523">
<time>2016-10-07T06:23:04Z</time></trkpt>
<trkpt lat="26.035189" lon="100.117643">
<time>2016-10-07T06:23:05Z</time></trkpt>
<trkpt lat="26.03524" lon="100.117753">
<time>2016-10-07T06:23:06Z</time></trkpt>
<trkpt lat="26.03532" lon="100.117853">
<time>2016-10-07T06:23:07Z</time></trkpt>
<trkpt lat="26.03544" lon="100.117984">
<time>2016-10-07T06:23:08Z</time></trkpt>
<trkpt lat="26.03559" lon="100.118094">
<time>2016-10-07T06:23:09Z</time></trkpt>
<trkpt lat="26.0357" lon="100.118154">
<time>2016-10-07T06:23:10Z</time></trkpt>
<trkpt lat="26.03581" lon="100.118194">
<time>2016-10-07T06:23:11Z</time></trkpt>
<trkpt lat="26.03592" lon="100.118214">
<time>2016-10-07T06:23:12Z</time></trkpt>
<trkpt lat="26.036081" lon="100.118224">
<time>2016-10-07T06:23:13Z</time></trkpt>
<trkpt lat="26.036261" lon="100.118214">
<time>2016-10-07T06:23:14Z</time></trkpt>
<trkpt lat="26.037171" lon="100.118124">
<time>2016-10-07T06:23:15Z</time></trkpt>
<trkpt lat="26.037371" lon="100.118124">
<time>2016-10-07T06:23:16Z</time></trkpt>
<trkpt lat="26.037532" lon="100.118154">
<time>2016-10-07T06:23:17Z</time></trkpt>
<trkpt lat="26.037652" lon="100.118194">
<time>2016-10-07T06:23:18Z</time></trkpt>
<trkpt lat="26.038002" lon="100.118334">
<time>2016-10-07T06:23:19Z</time></trkpt>
<trkpt lat="26.038192" lon="100.118394">
<time>2016-10-07T06:23:20Z</time></trkpt>
<trkpt lat="26.038362" lon="100.118424">
<time>2016-10-07T06:23:21Z</time></trkpt>
<trkpt lat="26.038512" lon="100.118414">
<time>2016-10-07T06:23:22Z</time></trkpt>
<trkpt lat="26.038653" lon="100.118384">
<time>2016-10-07T06:23:23Z</time></trkpt>
<trkpt lat="26.038793" lon="100.118324">
<time>2016-10-07T06:23:24Z</time></trkpt>
<trkpt lat="26.038973" lon="100.118224">
<time>2016-10-07T06:23:25Z</time></trkpt>
<trkpt lat="26.041153" lon="100.116822">
<time>2016-10-07T06:23:26Z</time></trkpt>
<trkpt lat="26.041303" lon="100.116762">
<time>2016-10-07T06:23:27Z</time></trkpt>
<trkpt lat="26.041383" lon="100.116732">
<time>2016-10-07T06:23:28Z</time></trkpt>
<trkpt lat="26.041503" lon="100.116732">
<time>2016-10-07T06:23:29Z</time></trkpt>
<trkpt lat="26.041613" lon="100.116752">
<time>2016-10-07T06:23:30Z</time></trkpt>
<trkpt lat="26.041703" lon="100.116782">
<time>2016-10-07T06:23:31Z</time></trkpt>
<trkpt lat="26.041793" lon="100.116832">
<time>2016-10-07T06:23:32Z</time></trkpt>
<trkpt lat="26.041904" lon="100.116942">
<time>2016-10-07T06:23:33Z</time></trkpt>
<trkpt lat="26.041984" lon="100.117052">
<time>2016-10-07T06:23:34Z</time></trkpt>
<trkpt lat="26.042024" lon="100.117173">
<time>2016-10-07T06:23:35Z</time></trkpt>
<trkpt lat="26.042094" lon="100.117373">
<time>2016-10-07T06:23:36Z</time></trkpt>
<trkpt lat="26.042536" lon="100.118914">
<time>2016-10-07T06:23:37Z</time></trkpt>
<trkpt lat="26.042546" lon="100.119105">
<time>2016-10-07T06:23:38Z</time></trkpt>
<trkpt lat="26.042526" lon="100.119215">
<time>2016-10-07T06:23:39Z</time></trkpt>
<trkpt lat="26.042506" lon="100.119285">
<time>2016-10-07T06:23:40Z</time></trkpt>
<trkpt lat="26.042466" lon="100.119375">
<time>2016-10-07T06:23:41Z</time></trkpt>
<trkpt lat="26.042416" lon="100.119455">
<time>2016-10-07T06:23:42Z</time></trkpt>
<trkpt lat="26.041616" lon="100.120346">
<time>2016-10-07T06:23:43Z</time></trkpt>
<trkpt lat="26.041516" lon="100.120476">
<time>2016-10-07T06:23:44Z</time></trkpt>
<trkpt lat="26.041436" lon="100.120616">
<time>2016-10-07T06:23:45Z</time></trkpt>
<trkpt lat="26.041377" lon="100.120746">
<time>2016-10-07T06:23:46Z</time></trkpt>
<trkpt lat="26.041347" lon="100.120866">
<time>2016-10-07T06:23:47Z</time></trkpt>
<trkpt lat="26.041327" lon="100.120977">
<time>2016-10-07T06:23:48Z</time></trkpt>
<trkpt lat="26.041327" lon="100.121197">
<time>2016-10-07T06:23:49Z</time></trkpt>
<trkpt lat="26.041357" lon="100.121397">
<time>2016-10-07T06:23:50Z</time></trkpt>
<trkpt lat="26.041387" lon="100.121517">
<time>2016-10-07T06:23:51Z</time></trkpt>
<trkpt lat="26.041437" lon="100.121627">
<time>2016-10-07T06:23:52Z</time></trkpt>
<trkpt lat="26.041528" lon="100.121777">
<time>2016-10-07T06:23:53Z</time></trkpt>
<trkpt lat="26.041638" lon="100.121888">
<time>2016-10-07T06:23:54Z</time></trkpt>
<trkpt lat="26.041748" lon="100.121988">
<time>2016-10-07T06:23:55Z</time></trkpt>
<trkpt lat="26.041898" lon="100.122068">
<time>2016-10-07T06:23:56Z</time></trkpt>
<trkpt lat="26.042068" lon="100.122138">
<time>2016-10-07T06:23:57Z</time></trkpt>
<trkpt lat="26.042249" lon="100.122158">
<time>2016-10-07T06:23:58Z</time></trkpt>
<trkpt lat="26.042509" lon="100.122158">
<time>2016-10-07T06:23:59Z</time></trkpt>
<trkpt lat="26.043589" lon="100.122108">
<time>2016-10-07T06:24:00Z</time></trkpt>
<trkpt lat="26.04392" lon="100.122088">
<time>2016-10-07T06:24:01Z</time></trkpt>
<trkpt lat="26.04424" lon="100.122058">
<time>2016-10-07T06:24:02Z</time></trkpt>
<trkpt lat="26.04504" lon="100.121938">
<time>2016-10-07T06:24:03Z</time></trkpt>
<trkpt lat="26.04537" lon="100.121887">
<time>2016-10-07T06:24:04Z</time></trkpt>
<trkpt lat="26.045571" lon="100.121837">
<time>2016-10-07T06:24:05Z</time></trkpt>
<trkpt lat="26.045731" lon="100.121757">
<time>2016-10-07T06:24:06Z</time></trkpt>
<trkpt lat="26.045881" lon="100.121657">
<time>2016-10-07T06:24:07Z</time></trkpt>
<trkpt lat="26.046041" lon="100.121487">
<time>2016-10-07T06:24:08Z</time></trkpt>
<trkpt lat="26.04718" lon="100.120075">
<time>2016-10-07T06:24:09Z</time></trkpt>
<trkpt lat="26.04731" lon="100.119935">
<time>2016-10-07T06:24:10Z</time></trkpt>
<trkpt lat="26.04745" lon="100.119805">
<time>2016-10-07T06:24:11Z</time></trkpt>
<trkpt lat="26.04754" lon="100.119735">
<time>2016-10-07T06:24:12Z</time></trkpt>
<trkpt lat="26.04769" lon="100.119665">
<time>2016-10-07T06:24:13Z</time></trkpt>
<trkpt lat="26.04783" lon="100.119625">
<time>2016-10-07T06:24:14Z</time></trkpt>
<trkpt lat="26.04802" lon="100.119595">
<time>2016-10-07T06:24:15Z</time></trkpt>
<trkpt lat="26.04814" lon="100.119595">
<time>2016-10-07T06:24:16Z</time></trkpt>
<trkpt lat="26.04824" lon="100.119605">
<time>2016-10-07T06:24:17Z</time></trkpt>
<trkpt lat="26.04845" lon="100.119655">
<time>2016-10-07T06:24:18Z</time></trkpt>
<trkpt lat="26.050562" lon="100.120256">
<time>2016-10-07T06:24:19Z</time></trkpt>
<trkpt lat="26.050863" lon="100.120306">
<time>2016-10-07T06:24:20Z</time></trkpt>
<trkpt lat="26.051043" lon="100.120296">
<time>2016-10-07T06:24:21Z</time></trkpt>
<trkpt lat="26.051233" lon="100.120256">
<time>2016-10-07T06:24:22Z</time></trkpt>
<trkpt lat="26.051403" lon="100.120195">
<time>2016-10-07T06:24:23Z</time></trkpt>
<trkpt lat="26.051753" lon="100.120035">
<time>2016-10-07T06:24:24Z</time></trkpt>
<trkpt lat="26.053013" lon="100.119535">
<time>2016-10-07T06:24:25Z</time></trkpt>
<trkpt lat="26.053704" lon="100.119435">
<time>2016-10-07T06:24:26Z</time></trkpt>
<trkpt lat="26.055555" lon="100.119364">
<time>2016-10-07T06:24:27Z</time></trkpt>
<trkpt lat="26.055915" lon="100.119374">
<time>2016-10-07T06:24:28Z</time></trkpt>
<trkpt lat="26.056206" lon="100.119445">
<time>2016-10-07T06:24:29Z</time></trkpt>
<trkpt lat="26.056506" lon="100.119585">
<time>2016-10-07T06:24:30Z</time></trkpt>
<trkpt lat="26.056736" lon="100.119745">
<time>2016-10-07T06:24:31Z</time></trkpt>
<trkpt lat="26.056947" lon="100.119945">
<time>2016-10-07T06:24:32Z</time></trkpt>
<trkpt lat="26.057107" lon="100.120155">
<time>2016-10-07T06:24:33Z</time></trkpt>
<trkpt lat="26.057287" lon="100.120436">
<time>2016-10-07T06:24:34Z</time></trkpt>
<trkpt lat="26.05841" lon="100.122418">
<time>2016-10-07T06:24:35Z</time></trkpt>
<trkpt lat="26.059011" lon="100.123229">
<time>2016-10-07T06:24:36Z</time></trkpt>
<trkpt lat="26.061025" lon="100.125021">
<time>2016-10-07T06:24:37Z</time></trkpt>
<trkpt lat="26.061355" lon="100.125311">
<time>2016-10-07T06:24:38Z</time></trkpt>
<trkpt lat="26.061646" lon="100.125572">
<time>2016-10-07T06:24:39Z</time></trkpt>
<trkpt lat="26.062367" lon="100.126192">
<time>2016-10-07T06:24:40Z</time></trkpt>
<trkpt lat="26.063559" lon="100.127254">
<time>2016-10-07T06:24:41Z</time></trkpt>
<trkpt lat="26.06415" lon="100.127704">
<time>2016-10-07T06:24:42Z</time></trkpt>
<trkpt lat="26.0646" lon="100.127965">
<time>2016-10-07T06:24:43Z</time></trkpt>
<trkpt lat="26.065091" lon="100.128185">
<time>2016-10-07T06:24:44Z</time></trkpt>
<trkpt lat="26.066262" lon="100.128565">
<time>2016-10-07T06:24:45Z</time></trkpt>
<trkpt lat="26.066583" lon="100.128716">
<time>2016-10-07T06:24:46Z</time></trkpt>
<trkpt lat="26.066763" lon="100.128846">
<time>2016-10-07T06:24:47Z</time></trkpt>
<trkpt lat="26.066953" lon="100.129056">
<time>2016-10-07T06:24:48Z</time></trkpt>
<trkpt lat="26.067124" lon="100.129336">
<time>2016-10-07T06:24:49Z</time></trkpt>
<trkpt lat="26.067284" lon="100.129707">
<time>2016-10-07T06:24:50Z</time></trkpt>
<trkpt lat="26.070076" lon="100.136708">
<time>2016-10-07T06:24:51Z</time></trkpt>
<trkpt lat="26.070447" lon="100.137639">
<time>2016-10-07T06:24:52Z</time></trkpt>
<trkpt lat="26.070648" lon="100.1381">
<time>2016-10-07T06:24:53Z</time></trkpt>
<trkpt lat="26.071069" lon="100.138811">
<time>2016-10-07T06:24:54Z</time></trkpt>
<trkpt lat="26.07122" lon="100.139072">
<time>2016-10-07T06:24:55Z</time></trkpt>
<trkpt lat="26.072002" lon="100.140324">
<time>2016-10-07T06:24:56Z</time></trkpt>
<trkpt lat="26.072183" lon="100.140774">
<time>2016-10-07T06:24:57Z</time></trkpt>
<trkpt lat="26.072506" lon="100.142628">
<time>2016-10-07T06:24:58Z</time></trkpt>
<trkpt lat="26.072657" lon="100.143109">
<time>2016-10-07T06:24:59Z</time></trkpt>
<trkpt lat="26.073621" lon="100.145192">
<time>2016-10-07T06:25:00Z</time></trkpt>
<trkpt lat="26.073682" lon="100.145413">
<time>2016-10-07T06:25:01Z</time></trkpt>
<trkpt lat="26.073702" lon="100.145693">
<time>2016-10-07T06:25:02Z</time></trkpt>
<trkpt lat="26.073694" lon="100.146986">
<time>2016-10-07T06:25:03Z</time></trkpt>
<trkpt lat="26.073725" lon="100.147497">
<time>2016-10-07T06:25:04Z</time></trkpt>
<trkpt lat="26.073856" lon="100.147917">
<time>2016-10-07T06:25:05Z</time></trkpt>
<trkpt lat="26.07491" lon="100.149731">
<time>2016-10-07T06:25:06Z</time></trkpt>
<trkpt lat="26.075381" lon="100.150352">
<time>2016-10-07T06:25:07Z</time></trkpt>
<trkpt lat="26.079351" lon="100.15422">
<time>2016-10-07T06:25:08Z</time></trkpt>
<trkpt lat="26.079411" lon="100.15431">
<time>2016-10-07T06:25:09Z</time></trkpt>
<trkpt lat="26.079461" lon="100.15443">
<time>2016-10-07T06:25:10Z</time></trkpt>
<trkpt lat="26.079501" lon="100.15458">
<time>2016-10-07T06:25:11Z</time></trkpt>
<trkpt lat="26.079512" lon="100.154711">
<time>2016-10-07T06:25:12Z</time></trkpt>
<trkpt lat="26.079492" lon="100.154881">
<time>2016-10-07T06:25:13Z</time></trkpt>
<trkpt lat="26.078695" lon="100.156835">
<time>2016-10-07T06:25:14Z</time></trkpt>
<trkpt lat="26.078665" lon="100.156985">
<time>2016-10-07T06:25:15Z</time></trkpt>
<trkpt lat="26.078665" lon="100.157105">
<time>2016-10-07T06:25:16Z</time></trkpt>
<trkpt lat="26.078686" lon="100.157266">
<time>2016-10-07T06:25:17Z</time></trkpt>
<trkpt lat="26.078736" lon="100.157386">
<time>2016-10-07T06:25:18Z</time></trkpt>
<trkpt lat="26.078786" lon="100.157476">
<time>2016-10-07T06:25:19Z</time></trkpt>
<trkpt lat="26.078886" lon="100.157596">
<time>2016-10-07T06:25:20Z</time></trkpt>
<trkpt lat="26.078967" lon="100.157667">
<time>2016-10-07T06:25:21Z</time></trkpt>
<trkpt lat="26.079067" lon="100.157727">
<time>2016-10-07T06:25:22Z</time></trkpt>
<trkpt lat="26.079227" lon="100.157797">
<time>2016-10-07T06:25:23Z</time></trkpt>
<trkpt lat="26.080419" lon="100.158228">
<time>2016-10-07T06:25:24Z</time></trkpt>
<trkpt lat="26.080649" lon="100.158328">
<time>2016-10-07T06:25:25Z</time></trkpt>
<trkpt lat="26.080879" lon="100.158468">
<time>2016-10-07T06:25:26Z</time></trkpt>
<trkpt lat="26.08121" lon="100.158699">
<time>2016-10-07T06:25:27Z</time></trkpt>
<trkpt lat="26.082583" lon="100.159671">
<time>2016-10-07T06:25:28Z</time></trkpt>
<trkpt lat="26.082723" lon="100.159761">
<time>2016-10-07T06:25:29Z</time></trkpt>
<trkpt lat="26.082863" lon="100.159831">
<time>2016-10-07T06:25:30Z</time></trkpt>
<trkpt lat="26.082943" lon="100.159871">
<time>2016-10-07T06:25:31Z</time></trkpt>
<trkpt lat="26.083114" lon="100.159941">
<time>2016-10-07T06:25:32Z</time></trkpt>
<trkpt lat="26.083224" lon="100.159981">
<time>2016-10-07T06:25:33Z</time></trkpt>
<trkpt lat="26.083354" lon="100.160021">
<time>2016-10-07T06:25:34Z</time></trkpt>
<trkpt lat="26.083524" lon="100.160081">
<time>2016-10-07T06:25:35Z</time></trkpt>
<trkpt lat="26.083764" lon="100.160152">
<time>2016-10-07T06:25:36Z</time></trkpt>
<trkpt lat="26.084195" lon="100.160322">
<time>2016-10-07T06:25:37Z</time></trkpt>
<trkpt lat="26.084385" lon="100.160412">
<time>2016-10-07T06:25:38Z</time></trkpt>
<trkpt lat="26.084676" lon="100.160602">
<time>2016-10-07T06:25:39Z</time></trkpt>
<trkpt lat="26.085508" lon="100.161234">
<time>2016-10-07T06:25:40Z</time></trkpt>
<trkpt lat="26.085998" lon="100.161544">
<time>2016-10-07T06:25:41Z</time></trkpt>
<trkpt lat="26.088383" lon="100.162967">
<time>2016-10-07T06:25:42Z</time></trkpt>
<trkpt lat="26.088974" lon="100.163358">
<time>2016-10-07T06:25:43Z</time></trkpt>
<trkpt lat="26.089154" lon="100.163478">
<time>2016-10-07T06:25:44Z</time></trkpt>
<trkpt lat="26.089645" lon="100.163759">
<time>2016-10-07T06:25:45Z</time></trkpt>
<trkpt lat="26.089875" lon="100.163899">
<time>2016-10-07T06:25:46Z</time></trkpt>
<trkpt lat="26.090036" lon="100.164029">
<time>2016-10-07T06:25:47Z</time></trkpt>
<trkpt lat="26.090156" lon="100.16414">
<time>2016-10-07T06:25:48Z</time></trkpt>
<trkpt lat="26.090276" lon="100.16428">
<time>2016-10-07T06:25:49Z</time></trkpt>
<trkpt lat="26.090337" lon="100.16436">
<time>2016-10-07T06:25:50Z</time></trkpt>
<trkpt lat="26.090457" lon="100.164531">
<time>2016-10-07T06:25:51Z</time></trkpt>
<trkpt lat="26.090567" lon="100.164721">
<time>2016-10-07T06:25:52Z</time></trkpt>
<trkpt lat="26.090798" lon="100.165142">
<time>2016-10-07T06:25:53Z</time></trkpt>
<trkpt lat="26.091311" lon="100.166094">
<time>2016-10-07T06:25:54Z</time></trkpt>
<trkpt lat="26.091511" lon="100.166445">
<time>2016-10-07T06:25:55Z</time></trkpt>
<trkpt lat="26.091612" lon="100.166585">
<time>2016-10-07T06:25:56Z</time></trkpt>
<trkpt lat="26.091702" lon="100.166685">
<time>2016-10-07T06:25:57Z</time></trkpt>
<trkpt lat="26.091842" lon="100.166805">
<time>2016-10-07T06:25:58Z</time></trkpt>
<trkpt lat="26.091983" lon="100.166895">
<time>2016-10-07T06:25:59Z</time></trkpt>
<trkpt lat="26.092013" lon="100.166926">
<time>2016-10-07T06:26:00Z</time></trkpt>
<trkpt lat="26.092043" lon="100.166936">
<time>2016-10-07T06:26:01Z</time></trkpt>
<trkpt lat="26.092083" lon="100.166966">
<time>2016-10-07T06:26:02Z</time></trkpt>
<trkpt lat="26.092113" lon="100.166986">
<time>2016-10-07T06:26:03Z</time></trkpt>
<trkpt lat="26.092964" lon="100.167497">
<time>2016-10-07T06:26:04Z</time></trkpt>
<trkpt lat="26.093946" lon="100.168068">
<time>2016-10-07T06:26:05Z</time></trkpt>
<trkpt lat="26.095138" lon="100.168779">
<time>2016-10-07T06:26:06Z</time></trkpt>
<trkpt lat="26.096" lon="100.16929">
<time>2016-10-07T06:26:07Z</time></trkpt>
<trkpt lat="26.09606" lon="100.16933">
<time>2016-10-07T06:26:08Z</time></trkpt>
<trkpt lat="26.09613" lon="100.169381">
<time>2016-10-07T06:26:09Z</time></trkpt>
<trkpt lat="26.09624" lon="100.169451">
<time>2016-10-07T06:26:10Z</time></trkpt>
<trkpt lat="26.09632" lon="100.169511">
<time>2016-10-07T06:26:11Z</time></trkpt>
<trkpt lat="26.096441" lon="100.169601">
<time>2016-10-07T06:26:12Z</time></trkpt>
<trkpt lat="26.096471" lon="100.169621">
<time>2016-10-07T06:26:13Z</time></trkpt>
<trkpt lat="26.098445" lon="100.171234">
<time>2016-10-07T06:26:14Z</time></trkpt>
<trkpt lat="26.098646" lon="100.171405">
<time>2016-10-07T06:26:15Z</time></trkpt>
<trkpt lat="26.098726" lon="100.171455">
<time>2016-10-07T06:26:16Z</time></trkpt>
<trkpt lat="26.098806" lon="100.171495">
<time>2016-10-07T06:26:17Z</time></trkpt>
<trkpt lat="26.098876" lon="100.171545">
<time>2016-10-07T06:26:18Z</time></trkpt>
<trkpt lat="26.099016" lon="100.171605">
<time>2016-10-07T06:26:19Z</time></trkpt>
<trkpt lat="26.099106" lon="100.171635">
<time>2016-10-07T06:26:20Z</time></trkpt>
<trkpt lat="26.099206" lon="100.171665">
<time>2016-10-07T06:26:21Z</time></trkpt>
<trkpt lat="26.099317" lon="100.171695">
<time>2016-10-07T06:26:22Z</time></trkpt>
<trkpt lat="26.099617" lon="100.171746">
<time>2016-10-07T06:26:23Z</time></trkpt>
<trkpt lat="26.099677" lon="100.171766">
<time>2016-10-07T06:26:24Z</time></trkpt>
<trkpt lat="26.10233" lon="100.172216">
<time>2016-10-07T06:26:25Z</time></trkpt>
<trkpt lat="26.10254" lon="100.172236">
<time>2016-10-07T06:26:26Z</time></trkpt>
<trkpt lat="26.10266" lon="100.172257">
<time>2016-10-07T06:26:27Z</time></trkpt>
<trkpt lat="26.10281" lon="100.172267">
<time>2016-10-07T06:26:28Z</time></trkpt>
<trkpt lat="26.1029" lon="100.172267">
<time>2016-10-07T06:26:29Z</time></trkpt>
<trkpt lat="26.10299" lon="100.172267">
<time>2016-10-07T06:26:30Z</time></trkpt>
<trkpt lat="26.10307" lon="100.172256">
<time>2016-10-07T06:26:31Z</time></trkpt>
<trkpt lat="26.10308" lon="100.172256">
<time>2016-10-07T06:26:32Z</time></trkpt>
<trkpt lat="26.10317" lon="100.172246">
<time>2016-10-07T06:26:33Z</time></trkpt>
<trkpt lat="26.10332" lon="100.172206">
<time>2016-10-07T06:26:34Z</time></trkpt>
<trkpt lat="26.10337" lon="100.172186">
<time>2016-10-07T06:26:35Z</time></trkpt>
<trkpt lat="26.10345" lon="100.172156">
<time>2016-10-07T06:26:36Z</time></trkpt>
<trkpt lat="26.10352" lon="100.172126">
<time>2016-10-07T06:26:37Z</time></trkpt>
<trkpt lat="26.10362" lon="100.172066">
<time>2016-10-07T06:26:38Z</time></trkpt>
<trkpt lat="26.10372" lon="100.172006">
<time>2016-10-07T06:26:39Z</time></trkpt>
<trkpt lat="26.10382" lon="100.171926">
<time>2016-10-07T06:26:40Z</time></trkpt>
<trkpt lat="26.10398" lon="100.171796">
<time>2016-10-07T06:26:41Z</time></trkpt>
<trkpt lat="26.10411" lon="100.171685">
<time>2016-10-07T06:26:42Z</time></trkpt>
<trkpt lat="26.106128" lon="100.169962">
<time>2016-10-07T06:26:43Z</time></trkpt>
<trkpt lat="26.106418" lon="100.169731">
<time>2016-10-07T06:26:44Z</time></trkpt>
<trkpt lat="26.106578" lon="100.169641">
<time>2016-10-07T06:26:45Z</time></trkpt>
<trkpt lat="26.106687" lon="100.169571">
<time>2016-10-07T06:26:46Z</time></trkpt>
<trkpt lat="26.106817" lon="100.169511">
<time>2016-10-07T06:26:47Z</time></trkpt>
<trkpt lat="26.106897" lon="100.169471">
<time>2016-10-07T06:26:48Z</time></trkpt>
<trkpt lat="26.107067" lon="100.1694">
<time>2016-10-07T06:26:49Z</time></trkpt>
<trkpt lat="26.107297" lon="100.16932">
<time>2016-10-07T06:26:50Z</time></trkpt>
<trkpt lat="26.110357" lon="100.168088">
<time>2016-10-07T06:26:51Z</time></trkpt>
<trkpt lat="26.110737" lon="100.167927">
<time>2016-10-07T06:26:52Z</time></trkpt>
<trkpt lat="26.110917" lon="100.167847">
<time>2016-10-07T06:26:53Z</time></trkpt>
<trkpt lat="26.111007" lon="100.167797">
<time>2016-10-07T06:26:54Z</time></trkpt>
<trkpt lat="26.111067" lon="100.167757">
<time>2016-10-07T06:26:55Z</time></trkpt>
<trkpt lat="26.111147" lon="100.167697">
<time>2016-10-07T06:26:56Z</time></trkpt>
<trkpt lat="26.111237" lon="100.167606">
<time>2016-10-07T06:26:57Z</time></trkpt>
<trkpt lat="26.111307" lon="100.167506">
<time>2016-10-07T06:26:58Z</time></trkpt>
<trkpt lat="26.111357" lon="100.167436">
<time>2016-10-07T06:26:59Z</time></trkpt>
<trkpt lat="26.111406" lon="100.167336">
<time>2016-10-07T06:27:00Z</time></trkpt>
<trkpt lat="26.111446" lon="100.167236">
<time>2016-10-07T06:27:01Z</time></trkpt>
<trkpt lat="26.111466" lon="100.167156">
<time>2016-10-07T06:27:02Z</time></trkpt>
<trkpt lat="26.111486" lon="100.167035">
<time>2016-10-07T06:27:03Z</time></trkpt>
<trkpt lat="26.111496" lon="100.166895">
<time>2016-10-07T06:27:04Z</time></trkpt>
<trkpt lat="26.111506" lon="100.166825">
<time>2016-10-07T06:27:05Z</time></trkpt>
<trkpt lat="26.111495" lon="100.166735">
<time>2016-10-07T06:27:06Z</time></trkpt>
<trkpt lat="26.111485" lon="100.166524">
<time>2016-10-07T06:27:07Z</time></trkpt>
<trkpt lat="26.111464" lon="100.166234">
<time>2016-10-07T06:27:08Z</time></trkpt>
<trkpt lat="26.111433" lon="100.165763">
<time>2016-10-07T06:27:09Z</time></trkpt>
<trkpt lat="26.111413" lon="100.165452">
<time>2016-10-07T06:27:10Z</time></trkpt>
<trkpt lat="26.111382" lon="100.164981">
<time>2016-10-07T06:27:11Z</time></trkpt>
<trkpt lat="26.111361" lon="100.16463">
<time>2016-10-07T06:27:12Z</time></trkpt>
<trkpt lat="26.111341" lon="100.164279">
<time>2016-10-07T06:27:13Z</time></trkpt>
<trkpt lat="26.11133" lon="100.164029">
<time>2016-10-07T06:27:14Z</time></trkpt>
<trkpt lat="26.11132" lon="100.163919">
<time>2016-10-07T06:27:15Z</time></trkpt>
<trkpt lat="26.11132" lon="100.163798">
<time>2016-10-07T06:27:16Z</time></trkpt>
<trkpt lat="26.111319" lon="100.163638">
<time>2016-10-07T06:27:17Z</time></trkpt>
<trkpt lat="26.111329" lon="100.163488">
<time>2016-10-07T06:27:18Z</time></trkpt>
<trkpt lat="26.111349" lon="100.163378">
<time>2016-10-07T06:27:19Z</time></trkpt>
<trkpt lat="26.111369" lon="100.163287">
<time>2016-10-07T06:27:20Z</time></trkpt>
<trkpt lat="26.111409" lon="100.163187">
<time>2016-10-07T06:27:21Z</time></trkpt>
<trkpt lat="26.111459" lon="100.163097">
<time>2016-10-07T06:27:22Z</time></trkpt>
<trkpt lat="26.111498" lon="100.163017">
<time>2016-10-07T06:27:23Z</time></trkpt>
<trkpt lat="26.111658" lon="100.162786">
<time>2016-10-07T06:27:24Z</time></trkpt>
<trkpt lat="26.111838" lon="100.162556">
<time>2016-10-07T06:27:25Z</time></trkpt>
<trkpt lat="26.111997" lon="100.162345">
<time>2016-10-07T06:27:26Z</time></trkpt>
<trkpt lat="26.112157" lon="100.162105">
<time>2016-10-07T06:27:27Z</time></trkpt>
<trkpt lat="26.112227" lon="100.161985">
<time>2016-10-07T06:27:28Z</time></trkpt>
<trkpt lat="26.112327" lon="100.161804">
<time>2016-10-07T06:27:29Z</time></trkpt>
<trkpt lat="26.112376" lon="100.161654">
<time>2016-10-07T06:27:30Z</time></trkpt>
<trkpt lat="26.112426" lon="100.161504">
<time>2016-10-07T06:27:31Z</time></trkpt>
<trkpt lat="26.112506" lon="100.161203">
<time>2016-10-07T06:27:32Z</time></trkpt>
<trkpt lat="26.112536" lon="100.161113">
<time>2016-10-07T06:27:33Z</time></trkpt>
<trkpt lat="26.112575" lon="100.161033">
<time>2016-10-07T06:27:34Z</time></trkpt>
<trkpt lat="26.112625" lon="100.160932">
<time>2016-10-07T06:27:35Z</time></trkpt>
<trkpt lat="26.112685" lon="100.160862">
<time>2016-10-07T06:27:36Z</time></trkpt>
<trkpt lat="26.112775" lon="100.160782">
<time>2016-10-07T06:27:37Z</time></trkpt>
<trkpt lat="26.112835" lon="100.160732">
<time>2016-10-07T06:27:38Z</time></trkpt>
<trkpt lat="26.112925" lon="100.160692">
<time>2016-10-07T06:27:39Z</time></trkpt>
<trkpt lat="26.112985" lon="100.160672">
<time>2016-10-07T06:27:40Z</time></trkpt>
<trkpt lat="26.113065" lon="100.160652">
<time>2016-10-07T06:27:41Z</time></trkpt>
<trkpt lat="26.113145" lon="100.160642">
<time>2016-10-07T06:27:42Z</time></trkpt>
<trkpt lat="26.113235" lon="100.160642">
<time>2016-10-07T06:27:43Z</time></trkpt>
<trkpt lat="26.113315" lon="100.160662">
<time>2016-10-07T06:27:44Z</time></trkpt>
<trkpt lat="26.113405" lon="100.160692">
<time>2016-10-07T06:27:45Z</time></trkpt>
<trkpt lat="26.113485" lon="100.160732">
<time>2016-10-07T06:27:46Z</time></trkpt>
<trkpt lat="26.113546" lon="100.160762">
<time>2016-10-07T06:27:47Z</time></trkpt>
<trkpt lat="26.113606" lon="100.160812">
<time>2016-10-07T06:27:48Z</time></trkpt>
<trkpt lat="26.113676" lon="100.160882">
<time>2016-10-07T06:27:49Z</time></trkpt>
<trkpt lat="26.113846" lon="100.161113">
<time>2016-10-07T06:27:50Z</time></trkpt>
<trkpt lat="26.113927" lon="100.161253">
<time>2016-10-07T06:27:51Z</time></trkpt>
<trkpt lat="26.114158" lon="100.161624">
<time>2016-10-07T06:27:52Z</time></trkpt>
<trkpt lat="26.114278" lon="100.161804">
<time>2016-10-07T06:27:53Z</time></trkpt>
<trkpt lat="26.114378" lon="100.161955">
<time>2016-10-07T06:27:54Z</time></trkpt>
<trkpt lat="26.114469" lon="100.162055">
<time>2016-10-07T06:27:55Z</time></trkpt>
<trkpt lat="26.114579" lon="100.162145">
<time>2016-10-07T06:27:56Z</time></trkpt>
<trkpt lat="26.114649" lon="100.162195">
<time>2016-10-07T06:27:57Z</time></trkpt>
<trkpt lat="26.114689" lon="100.162225">
<time>2016-10-07T06:27:58Z</time></trkpt>
<trkpt lat="26.114749" lon="100.162255">
<time>2016-10-07T06:27:59Z</time></trkpt>
<trkpt lat="26.114829" lon="100.162295">
<time>2016-10-07T06:28:00Z</time></trkpt>
<trkpt lat="26.114909" lon="100.162325">
<time>2016-10-07T06:28:01Z</time></trkpt>
<trkpt lat="26.114999" lon="100.162355">
<time>2016-10-07T06:28:02Z</time></trkpt>
<trkpt lat="26.11517" lon="100.162405">
<time>2016-10-07T06:28:03Z</time></trkpt>
<trkpt lat="26.11536" lon="100.162466">
<time>2016-10-07T06:28:04Z</time></trkpt>
<trkpt lat="26.1155" lon="100.162506">
<time>2016-10-07T06:28:05Z</time></trkpt>
<trkpt lat="26.11562" lon="100.162546">
<time>2016-10-07T06:28:06Z</time></trkpt>
<trkpt lat="26.11572" lon="100.162576">
<time>2016-10-07T06:28:07Z</time></trkpt>
<trkpt lat="26.115811" lon="100.162616">
<time>2016-10-07T06:28:08Z</time></trkpt>
<trkpt lat="26.115851" lon="100.162626">
<time>2016-10-07T06:28:09Z</time></trkpt>
<trkpt lat="26.116001" lon="100.162666">
<time>2016-10-07T06:28:10Z</time></trkpt>
<trkpt lat="26.116421" lon="100.162786">
<time>2016-10-07T06:28:11Z</time></trkpt>
<trkpt lat="26.116481" lon="100.162806">
<time>2016-10-07T06:28:12Z</time></trkpt>
<trkpt lat="26.116511" lon="100.162816">
<time>2016-10-07T06:28:13Z</time></trkpt>
<trkpt lat="26.116581" lon="100.162836">
<time>2016-10-07T06:28:14Z</time></trkpt>
<trkpt lat="26.116672" lon="100.162866">
<time>2016-10-07T06:28:15Z</time></trkpt>
<trkpt lat="26.116732" lon="100.162886">
<time>2016-10-07T06:28:16Z</time></trkpt>
<trkpt lat="26.116782" lon="100.162906">
<time>2016-10-07T06:28:17Z</time></trkpt>
<trkpt lat="26.116882" lon="100.162937">
<time>2016-10-07T06:28:18Z</time></trkpt>
<trkpt lat="26.116982" lon="100.162967">
<time>2016-10-07T06:28:19Z</time></trkpt>
<trkpt lat="26.117042" lon="100.162987">
<time>2016-10-07T06:28:20Z</time></trkpt>
<trkpt lat="26.117102" lon="100.163007">
<time>2016-10-07T06:28:21Z</time></trkpt>
<trkpt lat="26.117212" lon="100.163047">
<time>2016-10-07T06:28:22Z</time></trkpt>
<trkpt lat="26.117292" lon="100.163077">
<time>2016-10-07T06:28:23Z</time></trkpt>
<trkpt lat="26.117322" lon="100.163097">
<time>2016-10-07T06:28:24Z</time></trkpt>
<trkpt lat="26.117383" lon="100.163127">
<time>2016-10-07T06:28:25Z</time></trkpt>
<trkpt lat="26.117463" lon="100.163167">
<time>2016-10-07T06:28:26Z</time></trkpt>
<trkpt lat="26.117553" lon="100.163217">
<time>2016-10-07T06:28:27Z</time></trkpt>
<trkpt lat="26.117653" lon="100.163277">
<time>2016-10-07T06:28:28Z</time></trkpt>
<trkpt lat="26.117703" lon="100.163307">
<time>2016-10-07T06:28:29Z</time></trkpt>
<trkpt lat="26.117773" lon="100.163357">
<time>2016-10-07T06:28:30Z</time></trkpt>
<trkpt lat="26.117803" lon="100.163377">
<time>2016-10-07T06:28:31Z</time></trkpt>
<trkpt lat="26.117853" lon="100.163407">
<time>2016-10-07T06:28:32Z</time></trkpt>
<trkpt lat="26.117893" lon="100.163448">
<time>2016-10-07T06:28:33Z</time></trkpt>
<trkpt lat="26.117974" lon="100.163518">
<time>2016-10-07T06:28:34Z</time></trkpt>
<trkpt lat="26.118034" lon="100.163568">
<time>2016-10-07T06:28:35Z</time></trkpt>
<trkpt lat="26.118094" lon="100.163628">
<time>2016-10-07T06:28:36Z</time></trkpt>
<trkpt lat="26.118104" lon="100.163628">
<time>2016-10-07T06:28:37Z</time></trkpt>
<trkpt lat="26.118164" lon="100.163688">
<time>2016-10-07T06:28:38Z</time></trkpt>
<trkpt lat="26.118244" lon="100.163768">
<time>2016-10-07T06:28:39Z</time></trkpt>
<trkpt lat="26.118274" lon="100.163798">
<time>2016-10-07T06:28:40Z</time></trkpt>
<trkpt lat="26.118314" lon="100.163838">
<time>2016-10-07T06:28:41Z</time></trkpt>
<trkpt lat="26.118355" lon="100.163888">
<time>2016-10-07T06:28:42Z</time></trkpt>
<trkpt lat="26.118465" lon="100.164019">
<time>2016-10-07T06:28:43Z</time></trkpt>
<trkpt lat="26.118565" lon="100.164129">
<time>2016-10-07T06:28:44Z</time></trkpt>
<trkpt lat="26.118595" lon="100.164169">
<time>2016-10-07T06:28:45Z</time></trkpt>
<trkpt lat="26.118676" lon="100.164269">
<time>2016-10-07T06:28:46Z</time></trkpt>
<trkpt lat="26.118736" lon="100.164339">
<time>2016-10-07T06:28:47Z</time></trkpt>
<trkpt lat="26.118756" lon="100.164369">
<time>2016-10-07T06:28:48Z</time></trkpt>
<trkpt lat="26.118856" lon="100.16449">
<time>2016-10-07T06:28:49Z</time></trkpt>
<trkpt lat="26.118916" lon="100.16455">
<time>2016-10-07T06:28:50Z</time></trkpt>
<trkpt lat="26.119047" lon="100.16471">
<time>2016-10-07T06:28:51Z</time></trkpt>
<trkpt lat="26.119087" lon="100.16475">
<time>2016-10-07T06:28:52Z</time></trkpt>
<trkpt lat="26.119137" lon="100.1648">
<time>2016-10-07T06:28:53Z</time></trkpt>
<trkpt lat="26.119237" lon="100.164911">
<time>2016-10-07T06:28:54Z</time></trkpt>
<trkpt lat="26.119257" lon="100.164921">
<time>2016-10-07T06:28:55Z</time></trkpt>
<trkpt lat="26.119257" lon="100.164931">
<time>2016-10-07T06:28:56Z</time></trkpt>
<trkpt lat="26.119267" lon="100.164931">
<time>2016-10-07T06:28:57Z</time></trkpt>
<trkpt lat="26.119267" lon="100.164941">
<time>2016-10-07T06:28:58Z</time></trkpt>
<trkpt lat="26.119277" lon="100.164951">
<time>2016-10-07T06:28:59Z</time></trkpt>
<trkpt lat="26.119287" lon="100.164961">
<time>2016-10-07T06:29:00Z</time></trkpt>
<trkpt lat="26.119297" lon="100.164961">
<time>2016-10-07T06:29:01Z</time></trkpt>
<trkpt lat="26.119297" lon="100.164971">
<time>2016-10-07T06:29:02Z</time></trkpt>
<trkpt lat="26.119307" lon="100.164981">
<time>2016-10-07T06:29:03Z</time></trkpt>
<trkpt lat="26.119317" lon="100.164981">
<time>2016-10-07T06:29:04Z</time></trkpt>
<trkpt lat="26.119317" lon="100.164991">
<time>2016-10-07T06:29:05Z</time></trkpt>
<trkpt lat="26.119327" lon="100.165001">
<time>2016-10-07T06:29:06Z</time></trkpt>
<trkpt lat="26.119337" lon="100.165001">
<time>2016-10-07T06:29:07Z</time></trkpt>
<trkpt lat="26.119347" lon="100.165011">
<time>2016-10-07T06:29:08Z</time></trkpt>
<trkpt lat="26.119357" lon="100.165021">
<time>2016-10-07T06:29:09Z</time></trkpt>
<trkpt lat="26.119367" lon="100.165021">
<time>2016-10-07T06:29:10Z</time></trkpt>
<trkpt lat="26.119367" lon="100.165031">
<time>2016-10-07T06:29:11Z</time></trkpt>
<trkpt lat="26.119377" lon="100.165031">
<time>2016-10-07T06:29:12Z</time></trkpt>
<trkpt lat="26.119387" lon="100.165041">
<time>2016-10-07T06:29:13Z</time></trkpt>
<trkpt lat="26.119397" lon="100.165051">
<time>2016-10-07T06:29:14Z</time></trkpt>
<trkpt lat="26.119407" lon="100.165061">
<time>2016-10-07T06:29:15Z</time></trkpt>
<trkpt lat="26.119417" lon="100.165061">
<time>2016-10-07T06:29:16Z</time></trkpt>
<trkpt lat="26.119428" lon="100.165071">
<time>2016-10-07T06:29:17Z</time></trkpt>
<trkpt lat="26.119438" lon="100.165071">
<time>2016-10-07T06:29:18Z</time></trkpt>
<trkpt lat="26.119448" lon="100.165081">
<time>2016-10-07T06:29:19Z</time></trkpt>
<trkpt lat="26.119448" lon="100.165091">
<time>2016-10-07T06:29:20Z</time></trkpt>
<trkpt lat="26.119458" lon="100.165091">
<time>2016-10-07T06:29:21Z</time></trkpt>
<trkpt lat="26.119468" lon="100.165091">
<time>2016-10-07T06:29:22Z</time></trkpt>
<trkpt lat="26.119468" lon="100.165101">
<time>2016-10-07T06:29:23Z</time></trkpt>
<trkpt lat="26.119478" lon="100.165101">
<time>2016-10-07T06:29:24Z</time></trkpt>
<trkpt lat="26.119488" lon="100.165111">
<time>2016-10-07T06:29:25Z</time></trkpt>
<trkpt lat="26.119498" lon="100.165111">
<time>2016-10-07T06:29:26Z</time></trkpt>
<trkpt lat="26.119508" lon="100.165121">
<time>2016-10-07T06:29:27Z</time></trkpt>
<trkpt lat="26.119518" lon="100.165121">
<time>2016-10-07T06:29:28Z</time></trkpt>
<trkpt lat="26.119518" lon="100.165131">
<time>2016-10-07T06:29:29Z</time></trkpt>
<trkpt lat="26.119528" lon="100.165131">
<time>2016-10-07T06:29:30Z</time></trkpt>
<trkpt lat="26.119538" lon="100.165131">
<time>2016-10-07T06:29:31Z</time></trkpt>
<trkpt lat="26.119538" lon="100.165141">
<time>2016-10-07T06:29:32Z</time></trkpt>
<trkpt lat="26.119548" lon="100.165141">
<time>2016-10-07T06:29:33Z</time></trkpt>
<trkpt lat="26.119558" lon="100.165151">
<time>2016-10-07T06:29:34Z</time></trkpt>
<trkpt lat="26.119568" lon="100.165151">
<time>2016-10-07T06:29:35Z</time></trkpt>
<trkpt lat="26.119578" lon="100.165161">
<time>2016-10-07T06:29:36Z</time></trkpt>
<trkpt lat="26.119588" lon="100.165161">
<time>2016-10-07T06:29:37Z</time></trkpt>
<trkpt lat="26.119598" lon="100.165161">
<time>2016-10-07T06:29:38Z</time></trkpt>
<trkpt lat="26.119608" lon="100.165171">
<time>2016-10-07T06:29:39Z</time></trkpt>
<trkpt lat="26.119618" lon="100.165171">
<time>2016-10-07T06:29:40Z</time></trkpt>
<trkpt lat="26.119628" lon="100.165181">
<time>2016-10-07T06:29:41Z</time></trkpt>
<trkpt lat="26.119638" lon="100.165181">
<time>2016-10-07T06:29:42Z</time></trkpt>
<trkpt lat="26.119658" lon="100.165191">
<time>2016-10-07T06:29:43Z</time></trkpt>
<trkpt lat="26.119668" lon="100.165191">
<time>2016-10-07T06:29:44Z</time></trkpt>
<trkpt lat="26.119678" lon="100.165201">
<time>2016-10-07T06:29:45Z</time></trkpt>
<trkpt lat="26.119688" lon="100.165201">
<time>2016-10-07T06:29:46Z</time></trkpt>
<trkpt lat="26.119698" lon="100.165201">
<time>2016-10-07T06:29:47Z</time></trkpt>
<trkpt lat="26.119708" lon="100.165201">
<time>2016-10-07T06:29:48Z</time></trkpt>
<trkpt lat="26.119708" lon="100.165211">
<time>2016-10-07T06:29:49Z</time></trkpt>
<trkpt lat="26.119718" lon="100.165211">
<time>2016-10-07T06:29:50Z</time></trkpt>
<trkpt lat="26.119728" lon="100.165211">
<time>2016-10-07T06:29:51Z</time></trkpt>
<trkpt lat="26.119738" lon="100.165211">
<time>2016-10-07T06:29:52Z</time></trkpt>
<trkpt lat="26.119748" lon="100.165221">
<time>2016-10-07T06:29:53Z</time></trkpt>
<trkpt lat="26.119758" lon="100.165221">
<time>2016-10-07T06:29:54Z</time></trkpt>
<trkpt lat="26.119768" lon="100.165221">
<time>2016-10-07T06:29:55Z</time></trkpt>
<trkpt lat="26.119778" lon="100.165231">
<time>2016-10-07T06:29:56Z</time></trkpt>
<trkpt lat="26.119788" lon="100.165231">
<time>2016-10-07T06:29:57Z</time></trkpt>
<trkpt lat="26.119828" lon="100.165231">
<time>2016-10-07T06:29:58Z</time></trkpt>
<trkpt lat="26.119868" lon="100.165241">
<time>2016-10-07T06:29:59Z</time></trkpt>
<trkpt lat="26.119888" lon="100.165241">
<time>2016-10-07T06:30:00Z</time></trkpt>
<trkpt lat="26.119948" lon="100.165251">
<time>2016-10-07T06:30:01Z</time></trkpt>
<trkpt lat="26.119988" lon="100.165251">
<time>2016-10-07T06:30:02Z</time></trkpt>
<trkpt lat="26.120008" lon="100.165251">
<time>2016-10-07T06:30:03Z</time></trkpt>
<trkpt lat="26.120028" lon="100.165261">
<time>2016-10-07T06:30:04Z</time></trkpt>
<trkpt lat="26.120038" lon="100.165261">
<time>2016-10-07T06:30:05Z</time></trkpt>
<trkpt lat="26.120048" lon="100.165261">
<time>2016-10-07T06:30:06Z</time></trkpt>
<trkpt lat="26.120058" lon="100.165261">
<time>2016-10-07T06:30:07Z</time></trkpt>
<trkpt lat="26.120068" lon="100.165261">
<time>2016-10-07T06:30:08Z</time></trkpt>
<trkpt lat="26.120078" lon="100.165261">
<time>2016-10-07T06:30:09Z</time></trkpt>
<trkpt lat="26.120088" lon="100.165261">
<time>2016-10-07T06:30:10Z</time></trkpt>
<trkpt lat="26.120098" lon="100.165261">
<time>2016-10-07T06:30:11Z</time></trkpt>
<trkpt lat="26.120108" lon="100.165261">
<time>2016-10-07T06:30:12Z</time></trkpt>
<trkpt lat="26.120128" lon="100.165261">
<time>2016-10-07T06:30:13Z</time></trkpt>
<trkpt lat="26.120138" lon="100.165261">
<time>2016-10-07T06:30:14Z</time></trkpt>
<trkpt lat="26.120158" lon="100.165261">
<time>2016-10-07T06:30:15Z</time></trkpt>
<trkpt lat="26.120168" lon="100.165261">
<time>2016-10-07T06:30:16Z</time></trkpt>
<trkpt lat="26.120178" lon="100.165261">
<time>2016-10-07T06:30:17Z</time></trkpt>
<trkpt lat="26.120198" lon="100.165261">
<time>2016-10-07T06:30:18Z</time></trkpt>
<trkpt lat="26.120218" lon="100.165261">
<time>2016-10-07T06:30:19Z</time></trkpt>
<trkpt lat="26.120228" lon="100.165261">
<time>2016-10-07T06:30:20Z</time></trkpt>
<trkpt lat="26.120238" lon="100.165261">
<time>2016-10-07T06:30:21Z</time></trkpt>
<trkpt lat="26.120238" lon="100.165271">
<time>2016-10-07T06:30:22Z</time></trkpt>
<trkpt lat="26.120248" lon="100.165271">
<time>2016-10-07T06:30:23Z</time></trkpt>
<trkpt lat="26.120258" lon="100.165271">
<time>2016-10-07T06:30:24Z</time></trkpt>
<trkpt lat="26.120268" lon="100.165271">
<time>2016-10-07T06:30:25Z</time></trkpt>
<trkpt lat="26.120278" lon="100.165271">
<time>2016-10-07T06:30:26Z</time></trkpt>
<trkpt lat="26.120288" lon="100.165271">
<time>2016-10-07T06:30:27Z</time></trkpt>
<trkpt lat="26.120298" lon="100.165271">
<time>2016-10-07T06:30:28Z</time></trkpt>
<trkpt lat="26.120308" lon="100.165271">
<time>2016-10-07T06:30:29Z</time></trkpt>
<trkpt lat="26.120318" lon="100.165271">
<time>2016-10-07T06:30:30Z</time></trkpt>
<trkpt lat="26.120328" lon="100.165271">
<time>2016-10-07T06:30:31Z</time></trkpt>
<trkpt lat="26.120338" lon="100.165271">
<time>2016-10-07T06:30:32Z</time></trkpt>
<trkpt lat="26.120348" lon="100.165271">
<time>2016-10-07T06:30:33Z</time></trkpt>
<trkpt lat="26.120359" lon="100.165271">
<time>2016-10-07T06:30:34Z</time></trkpt>
<trkpt lat="26.120369" lon="100.165271">
<time>2016-10-07T06:30:35Z</time></trkpt>
<trkpt lat="26.120379" lon="100.165271">
<time>2016-10-07T06:30:36Z</time></trkpt>
<trkpt lat="26.120389" lon="100.165271">
<time>2016-10-07T06:30:37Z</time></trkpt>
<trkpt lat="26.120399" lon="100.165271">
<time>2016-10-07T06:30:38Z</time></trkpt>
<trkpt lat="26.120409" lon="100.165271">
<time>2016-10-07T06:30:39Z</time></trkpt>
<trkpt lat="26.120419" lon="100.165271">
<time>2016-10-07T06:30:40Z</time></trkpt>
<trkpt lat="26.120429" lon="100.165271">
<time>2016-10-07T06:30:41Z</time></trkpt>
<trkpt lat="26.120439" lon="100.165271">
<time>2016-10-07T06:30:42Z</time></trkpt>
<trkpt lat="26.120449" lon="100.165271">
<time>2016-10-07T06:30:43Z</time></trkpt>
<trkpt lat="26.120459" lon="100.165271">
<time>2016-10-07T06:30:44Z</time></trkpt>
<trkpt lat="26.120469" lon="100.165271">
<time>2016-10-07T06:30:45Z</time></trkpt>
<trkpt lat="26.120479" lon="100.165271">
<time>2016-10-07T06:30:46Z</time></trkpt>
<trkpt lat="26.120489" lon="100.165271">
<time>2016-10-07T06:30:47Z</time></trkpt>
<trkpt lat="26.120499" lon="100.165271">
<time>2016-10-07T06:30:48Z</time></trkpt>
<trkpt lat="26.120509" lon="100.165271">
<time>2016-10-07T06:30:49Z</time></trkpt>
<trkpt lat="26.120519" lon="100.165271">
<time>2016-10-07T06:30:50Z</time></trkpt>
<trkpt lat="26.120529" lon="100.165271">
<time>2016-10-07T06:30:51Z</time></trkpt>
<trkpt lat="26.120659" lon="100.165281">
<time>2016-10-07T06:30:52Z</time></trkpt>
<trkpt lat="26.120679" lon="100.165281">
<time>2016-10-07T06:30:53Z</time></trkpt>
<trkpt lat="26.120719" lon="100.165281">
<time>2016-10-07T06:30:54Z</time></trkpt>
<trkpt lat="26.120769" lon="100.165281">
<time>2016-10-07T06:30:55Z</time></trkpt>
<trkpt lat="26.120879" lon="100.165281">
<time>2016-10-07T06:30:56Z</time></trkpt>
<trkpt lat="26.120919" lon="100.165281">
<time>2016-10-07T06:30:57Z</time></trkpt>
<trkpt lat="26.120969" lon="100.165291">
<time>2016-10-07T06:30:58Z</time></trkpt>
<trkpt lat="26.121039" lon="100.165291">
<time>2016-10-07T06:30:59Z</time></trkpt>
<trkpt lat="26.121099" lon="100.165291">
<time>2016-10-07T06:31:00Z</time></trkpt>
<trkpt lat="26.121159" lon="100.165291">
<time>2016-10-07T06:31:01Z</time></trkpt>
<trkpt lat="26.121219" lon="100.165291">
<time>2016-10-07T06:31:02Z</time></trkpt>
<trkpt lat="26.121239" lon="100.165291">
<time>2016-10-07T06:31:03Z</time></trkpt>
<trkpt lat="26.121549" lon="100.165301">
<time>2016-10-07T06:31:04Z</time></trkpt>
<trkpt lat="26.121669" lon="100.165301">
<time>2016-10-07T06:31:05Z</time></trkpt>
<trkpt lat="26.121739" lon="100.165301">
<time>2016-10-07T06:31:06Z</time></trkpt>
<trkpt lat="26.12178" lon="100.165301">
<time>2016-10-07T06:31:07Z</time></trkpt>
<trkpt lat="26.12181" lon="100.165301">
<time>2016-10-07T06:31:08Z</time></trkpt>
<trkpt lat="26.12184" lon="100.165301">
<time>2016-10-07T06:31:09Z</time></trkpt>
<trkpt lat="26.12185" lon="100.165301">
<time>2016-10-07T06:31:10Z</time></trkpt>
<trkpt lat="26.12188" lon="100.165301">
<time>2016-10-07T06:31:11Z</time></trkpt>
<trkpt lat="26.1219" lon="100.165301">
<time>2016-10-07T06:31:12Z</time></trkpt>
<trkpt lat="26.12214" lon="100.165311">
<time>2016-10-07T06:31:13Z</time></trkpt>
<trkpt lat="26.12216" lon="100.165311">
<time>2016-10-07T06:31:14Z</time></trkpt>
<trkpt lat="26.12226" lon="100.165311">
<time>2016-10-07T06:31:15Z</time></trkpt>
<trkpt lat="26.12229" lon="100.165321">
<time>2016-10-07T06:31:16Z</time></trkpt>
<trkpt lat="26.12233" lon="100.165321">
<time>2016-10-07T06:31:17Z</time></trkpt>
<trkpt lat="26.12235" lon="100.165321">
<time>2016-10-07T06:31:18Z</time></trkpt>
<trkpt lat="26.12237" lon="100.165321">
<time>2016-10-07T06:31:19Z</time></trkpt>
<trkpt lat="26.12239" lon="100.165321">
<time>2016-10-07T06:31:20Z</time></trkpt>
<trkpt lat="26.12243" lon="100.165321">
<time>2016-10-07T06:31:21Z</time></trkpt>
<trkpt lat="26.12251" lon="100.165331">
<time>2016-10-07T06:31:22Z</time></trkpt>
<trkpt lat="26.12256" lon="100.165331">
<time>2016-10-07T06:31:23Z</time></trkpt>
<trkpt lat="26.1226" lon="100.165331">
<time>2016-10-07T06:31:24Z</time></trkpt>
<trkpt lat="26.12262" lon="100.165341">
<time>2016-10-07T06:31:25Z</time></trkpt>
<trkpt lat="26.12265" lon="100.165341">
<time>2016-10-07T06:31:26Z</time></trkpt>
<trkpt lat="26.12269" lon="100.165341">
<time>2016-10-07T06:31:27Z</time></trkpt>
<trkpt lat="26.12274" lon="100.165341">
<time>2016-10-07T06:31:28Z</time></trkpt>
<trkpt lat="26.12275" lon="100.165341">
<time>2016-10-07T06:31:29Z</time></trkpt>
<trkpt lat="26.12276" lon="100.165341">
<time>2016-10-07T06:31:30Z</time></trkpt>
<trkpt lat="26.12277" lon="100.165341">
<time>2016-10-07T06:31:31Z</time></trkpt>
<trkpt lat="26.12279" lon="100.165341">
<time>2016-10-07T06:31:32Z</time></trkpt>
<trkpt lat="26.1228" lon="100.165341">
<time>2016-10-07T06:31:33Z</time></trkpt>
<trkpt lat="26.12281" lon="100.165341">
<time>2016-10-07T06:31:34Z</time></trkpt>
<trkpt lat="26.12282" lon="100.165341">
<time>2016-10-07T06:31:35Z</time></trkpt>
<trkpt lat="26.12283" lon="100.165341">
<time>2016-10-07T06:31:36Z</time></trkpt>
<trkpt lat="26.12284" lon="100.165341">
<time>2016-10-07T06:31:37Z</time></trkpt>
<trkpt lat="26.12285" lon="100.165341">
<time>2016-10-07T06:31:38Z</time></trkpt>
<trkpt lat="26.12287" lon="100.165341">
<time>2016-10-07T06:31:39Z</time></trkpt>
<trkpt lat="26.12288" lon="100.165341">
<time>2016-10-07T06:31:40Z</time></trkpt>
<trkpt lat="26.12289" lon="100.165341">
<time>2016-10-07T06:31:41Z</time></trkpt>
<trkpt lat="26.1229" lon="100.165341">
<time>2016-10-07T06:31:42Z</time></trkpt>
<trkpt lat="26.12291" lon="100.165341">
<time>2016-10-07T06:31:43Z</time></trkpt>
<trkpt lat="26.12292" lon="100.165341">
<time>2016-10-07T06:31:44Z</time></trkpt>
<trkpt lat="26.12294" lon="100.165341">
<time>2016-10-07T06:31:45Z</time></trkpt>
<trkpt lat="26.12295" lon="100.165341">
<time>2016-10-07T06:31:46Z</time></trkpt>
<trkpt lat="26.12296" lon="100.165341">
<time>2016-10-07T06:31:47Z</time></trkpt>
<trkpt lat="26.12297" lon="100.165341">
<time>2016-10-07T06:31:48Z</time></trkpt>
<trkpt lat="26.12315" lon="100.165341">
<time>2016-10-07T06:31:49Z</time></trkpt>
<trkpt lat="26.123291" lon="100.165341">
<time>2016-10-07T06:31:50Z</time></trkpt>
<trkpt lat="26.123341" lon="100.165341">
<time>2016-10-07T06:31:51Z</time></trkpt>
<trkpt lat="26.123411" lon="100.165351">
<time>2016-10-07T06:31:52Z</time></trkpt>
<trkpt lat="26.123471" lon="100.165351">
<time>2016-10-07T06:31:53Z</time></trkpt>
<trkpt lat="26.123601" lon="100.165351">
<time>2016-10-07T06:31:54Z</time></trkpt>
<trkpt lat="26.123621" lon="100.165351">
<time>2016-10-07T06:31:55Z</time></trkpt>
<trkpt lat="26.123681" lon="100.165351">
<time>2016-10-07T06:31:56Z</time></trkpt>
<trkpt lat="26.123701" lon="100.165351">
<time>2016-10-07T06:31:57Z</time></trkpt>
<trkpt lat="26.123781" lon="100.165361">
<time>2016-10-07T06:31:58Z</time></trkpt>
<trkpt lat="26.123931" lon="100.165371">
<time>2016-10-07T06:31:59Z</time></trkpt>
<trkpt lat="26.124261" lon="100.165422">
<time>2016-10-07T06:32:00Z</time></trkpt>
<trkpt lat="26.124351" lon="100.165432">
<time>2016-10-07T06:32:01Z</time></trkpt>
<trkpt lat="26.124361" lon="100.165442">
<time>2016-10-07T06:32:02Z</time></trkpt>
<trkpt lat="26.124392" lon="100.165452">
<time>2016-10-07T06:32:03Z</time></trkpt>
<trkpt lat="26.124452" lon="100.165462">
<time>2016-10-07T06:32:04Z</time></trkpt>
<trkpt lat="26.124482" lon="100.165482">
<time>2016-10-07T06:32:05Z</time></trkpt>
<trkpt lat="26.124542" lon="100.165502">
<time>2016-10-07T06:32:06Z</time></trkpt>
<trkpt lat="26.124612" lon="100.165542">
<time>2016-10-07T06:32:07Z</time></trkpt>
<trkpt lat="26.124632" lon="100.165552">
<time>2016-10-07T06:32:08Z</time></trkpt>
<trkpt lat="26.124712" lon="100.165602">
<time>2016-10-07T06:32:09Z</time></trkpt>
<trkpt lat="26.124772" lon="100.165652">
<time>2016-10-07T06:32:10Z</time></trkpt>
<trkpt lat="26.124812" lon="100.165682">
<time>2016-10-07T06:32:11Z</time></trkpt>
<trkpt lat="26.124822" lon="100.165692">
<time>2016-10-07T06:32:12Z</time></trkpt>
<trkpt lat="26.124882" lon="100.165742">
<time>2016-10-07T06:32:13Z</time></trkpt>
<trkpt lat="26.124953" lon="100.165802">
<time>2016-10-07T06:32:14Z</time></trkpt>
<trkpt lat="26.125173" lon="100.165993">
<time>2016-10-07T06:32:15Z</time></trkpt>
<trkpt lat="26.125273" lon="100.166073">
<time>2016-10-07T06:32:16Z</time></trkpt>
<trkpt lat="26.125373" lon="100.166153">
<time>2016-10-07T06:32:17Z</time></trkpt>
<trkpt lat="26.125644" lon="100.166353">
<time>2016-10-07T06:32:18Z</time></trkpt>
<trkpt lat="26.125804" lon="100.166514">
<time>2016-10-07T06:32:19Z</time></trkpt>
<trkpt lat="26.125935" lon="100.166614">
<time>2016-10-07T06:32:20Z</time></trkpt>
<trkpt lat="26.126075" lon="100.166724">
<time>2016-10-07T06:32:21Z</time></trkpt>
<trkpt lat="26.126506" lon="100.167085">
<time>2016-10-07T06:32:22Z</time></trkpt>
<trkpt lat="26.126676" lon="100.167215">
<time>2016-10-07T06:32:23Z</time></trkpt>
<trkpt lat="26.126907" lon="100.167386">
<time>2016-10-07T06:32:24Z</time></trkpt>
<trkpt lat="26.127207" lon="100.167596">
<time>2016-10-07T06:32:25Z</time></trkpt>
<trkpt lat="26.127598" lon="100.167857">
<time>2016-10-07T06:32:26Z</time></trkpt>
<trkpt lat="26.128901" lon="100.168778">
<time>2016-10-07T06:32:27Z</time></trkpt>
<trkpt lat="26.129512" lon="100.169209">
<time>2016-10-07T06:32:28Z</time></trkpt>
<trkpt lat="26.130233" lon="100.16974">
<time>2016-10-07T06:32:29Z</time></trkpt>
<trkpt lat="26.130444" lon="100.169891">
<time>2016-10-07T06:32:30Z</time></trkpt>
<trkpt lat="26.130624" lon="100.170021">
<time>2016-10-07T06:32:31Z</time></trkpt>
<trkpt lat="26.130684" lon="100.170071">
<time>2016-10-07T06:32:32Z</time></trkpt>
<trkpt lat="26.130855" lon="100.170211">
<time>2016-10-07T06:32:33Z</time></trkpt>
<trkpt lat="26.130905" lon="100.170232">
<time>2016-10-07T06:32:34Z</time></trkpt>
<trkpt lat="26.131035" lon="100.170282">
<time>2016-10-07T06:32:35Z</time></trkpt>
<trkpt lat="26.131115" lon="100.170322">
<time>2016-10-07T06:32:36Z</time></trkpt>
<trkpt lat="26.131165" lon="100.170332">
<time>2016-10-07T06:32:37Z</time></trkpt>
<trkpt lat="26.131205" lon="100.170352">
<time>2016-10-07T06:32:38Z</time></trkpt>
<trkpt lat="26.131265" lon="100.170362">
<time>2016-10-07T06:32:39Z</time></trkpt>
<trkpt lat="26.131295" lon="100.170362">
<time>2016-10-07T06:32:40Z</time></trkpt>
<trkpt lat="26.131315" lon="100.170362">
<time>2016-10-07T06:32:41Z</time></trkpt>
<trkpt lat="26.131385" lon="100.170362">
<time>2016-10-07T06:32:42Z</time></trkpt>
<trkpt lat="26.131415" lon="100.170352">
<time>2016-10-07T06:32:43Z</time></trkpt>
<trkpt lat="26.131475" lon="100.170342">
<time>2016-10-07T06:32:44Z</time></trkpt>
<trkpt lat="26.131545" lon="100.170302">
<time>2016-10-07T06:32:45Z</time></trkpt>
<trkpt lat="26.131585" lon="100.170282">
<time>2016-10-07T06:32:46Z</time></trkpt>
<trkpt lat="26.131615" lon="100.170262">
<time>2016-10-07T06:32:47Z</time></trkpt>
<trkpt lat="26.131645" lon="100.170242">
<time>2016-10-07T06:32:48Z</time></trkpt>
<trkpt lat="26.131675" lon="100.170211">
<time>2016-10-07T06:32:49Z</time></trkpt>
<trkpt lat="26.131735" lon="100.170151">
<time>2016-10-07T06:32:50Z</time></trkpt>
<trkpt lat="26.131775" lon="100.170101">
<time>2016-10-07T06:32:51Z</time></trkpt>
<trkpt lat="26.131845" lon="100.170011">
<time>2016-10-07T06:32:52Z</time></trkpt>
<trkpt lat="26.131905" lon="100.169931">
<time>2016-10-07T06:32:53Z</time></trkpt>
<trkpt lat="26.131955" lon="100.169841">
<time>2016-10-07T06:32:54Z</time></trkpt>
<trkpt lat="26.132045" lon="100.16969">
<time>2016-10-07T06:32:55Z</time></trkpt>
<trkpt lat="26.132104" lon="100.16958">
<time>2016-10-07T06:32:56Z</time></trkpt>
<trkpt lat="26.132214" lon="100.16939">
<time>2016-10-07T06:32:57Z</time></trkpt>
<trkpt lat="26.132304" lon="100.169259">
<time>2016-10-07T06:32:58Z</time></trkpt>
<trkpt lat="26.132374" lon="100.169179">
<time>2016-10-07T06:32:59Z</time></trkpt>
<trkpt lat="26.132514" lon="100.169009">
<time>2016-10-07T06:33:00Z</time></trkpt>
<trkpt lat="26.132573" lon="100.168949">
<time>2016-10-07T06:33:01Z</time></trkpt>
<trkpt lat="26.132643" lon="100.168889">
<time>2016-10-07T06:33:02Z</time></trkpt>
<trkpt lat="26.132843" lon="100.168718">
<time>2016-10-07T06:33:03Z</time></trkpt>
<trkpt lat="26.133093" lon="100.168488">
<time>2016-10-07T06:33:04Z</time></trkpt>
<trkpt lat="26.133323" lon="100.168307">
<time>2016-10-07T06:33:05Z</time></trkpt>
<trkpt lat="26.133413" lon="100.168237">
<time>2016-10-07T06:33:06Z</time></trkpt>
<trkpt lat="26.133523" lon="100.168147">
<time>2016-10-07T06:33:07Z</time></trkpt>
<trkpt lat="26.133633" lon="100.168077">
<time>2016-10-07T06:33:08Z</time></trkpt>
<trkpt lat="26.133743" lon="100.168037">
<time>2016-10-07T06:33:09Z</time></trkpt>
<trkpt lat="26.133813" lon="100.168007">
<time>2016-10-07T06:33:10Z</time></trkpt>
<trkpt lat="26.133953" lon="100.167967">
<time>2016-10-07T06:33:11Z</time></trkpt>
<trkpt lat="26.134163" lon="100.167937">
<time>2016-10-07T06:33:12Z</time></trkpt>
<trkpt lat="26.135423" lon="100.167866">
<time>2016-10-07T06:33:13Z</time></trkpt>
<trkpt lat="26.136834" lon="100.167756">
<time>2016-10-07T06:33:14Z</time></trkpt>
<trkpt lat="26.138005" lon="100.167676">
<time>2016-10-07T06:33:15Z</time></trkpt>
<trkpt lat="26.138225" lon="100.167666">
<time>2016-10-07T06:33:16Z</time></trkpt>
<trkpt lat="26.138535" lon="100.167636">
<time>2016-10-07T06:33:17Z</time></trkpt>
<trkpt lat="26.138665" lon="100.167626">
<time>2016-10-07T06:33:18Z</time></trkpt>
<trkpt lat="26.138985" lon="100.167616">
<time>2016-10-07T06:33:19Z</time></trkpt>
<trkpt lat="26.139245" lon="100.167586">
<time>2016-10-07T06:33:20Z</time></trkpt>
<trkpt lat="26.139355" lon="100.167576">
<time>2016-10-07T06:33:21Z</time></trkpt>
<trkpt lat="26.139716" lon="100.167566">
<time>2016-10-07T06:33:22Z</time></trkpt>
<trkpt lat="26.140366" lon="100.167526">
<time>2016-10-07T06:33:23Z</time></trkpt>
<trkpt lat="26.140706" lon="100.167485">
<time>2016-10-07T06:33:24Z</time></trkpt>
<trkpt lat="26.140796" lon="100.167465">
<time>2016-10-07T06:33:25Z</time></trkpt>
<trkpt lat="26.141106" lon="100.167375">
<time>2016-10-07T06:33:26Z</time></trkpt>
<trkpt lat="26.141346" lon="100.167265">
<time>2016-10-07T06:33:27Z</time></trkpt>
<trkpt lat="26.141586" lon="100.167145">
<time>2016-10-07T06:33:28Z</time></trkpt>
<trkpt lat="26.141806" lon="100.167024">
<time>2016-10-07T06:33:29Z</time></trkpt>
<trkpt lat="26.142086" lon="100.166874">
<time>2016-10-07T06:33:30Z</time></trkpt>
<trkpt lat="26.142396" lon="100.166714">
<time>2016-10-07T06:33:31Z</time></trkpt>
<trkpt lat="26.142626" lon="100.166594">
<time>2016-10-07T06:33:32Z</time></trkpt>
<trkpt lat="26.142816" lon="100.166493">
<time>2016-10-07T06:33:33Z</time></trkpt>
<trkpt lat="26.142965" lon="100.166403">
<time>2016-10-07T06:33:34Z</time></trkpt>
<trkpt lat="26.143085" lon="100.166313">
<time>2016-10-07T06:33:35Z</time></trkpt>
<trkpt lat="26.143195" lon="100.166223">
<time>2016-10-07T06:33:36Z</time></trkpt>
<trkpt lat="26.143265" lon="100.166143">
<time>2016-10-07T06:33:37Z</time></trkpt>
<trkpt lat="26.143405" lon="100.166002">
<time>2016-10-07T06:33:38Z</time></trkpt>
<trkpt lat="26.143515" lon="100.165872">
<time>2016-10-07T06:33:39Z</time></trkpt>
<trkpt lat="26.143685" lon="100.165652">
<time>2016-10-07T06:33:40Z</time></trkpt>
<trkpt lat="26.143844" lon="100.165461">
<time>2016-10-07T06:33:41Z</time></trkpt>
<trkpt lat="26.143974" lon="100.165291">
<time>2016-10-07T06:33:42Z</time></trkpt>
<trkpt lat="26.144094" lon="100.16513">
<time>2016-10-07T06:33:43Z</time></trkpt>
<trkpt lat="26.144204" lon="100.16499">
<time>2016-10-07T06:33:44Z</time></trkpt>
<trkpt lat="26.144333" lon="100.16483">
<time>2016-10-07T06:33:45Z</time></trkpt>
<trkpt lat="26.144453" lon="100.1647">
<time>2016-10-07T06:33:46Z</time></trkpt>
<trkpt lat="26.144533" lon="100.164619">
<time>2016-10-07T06:33:47Z</time></trkpt>
<trkpt lat="26.144743" lon="100.164419">
<time>2016-10-07T06:33:48Z</time></trkpt>
<trkpt lat="26.144923" lon="100.164259">
<time>2016-10-07T06:33:49Z</time></trkpt>
<trkpt lat="26.145023" lon="100.164178">
<time>2016-10-07T06:33:50Z</time></trkpt>
<trkpt lat="26.145183" lon="100.164068">
<time>2016-10-07T06:33:51Z</time></trkpt>
<trkpt lat="26.145532" lon="100.163828">
<time>2016-10-07T06:33:52Z</time></trkpt>
<trkpt lat="26.145832" lon="100.163617">
<time>2016-10-07T06:33:53Z</time></trkpt>
<trkpt lat="26.146032" lon="100.163487">
<time>2016-10-07T06:33:54Z</time></trkpt>
<trkpt lat="26.146162" lon="100.163397">
<time>2016-10-07T06:33:55Z</time></trkpt>
<trkpt lat="26.146412" lon="100.163226">
<time>2016-10-07T06:33:56Z</time></trkpt>
<trkpt lat="26.146702" lon="100.163026">
<time>2016-10-07T06:33:57Z</time></trkpt>
<trkpt lat="26.147081" lon="100.162775">
<time>2016-10-07T06:33:58Z</time></trkpt>
<trkpt lat="26.147431" lon="100.162535">
<time>2016-10-07T06:33:59Z</time></trkpt>
<trkpt lat="26.147801" lon="100.162314">
<time>2016-10-07T06:34:00Z</time></trkpt>
<trkpt lat="26.148001" lon="100.162204">
<time>2016-10-07T06:34:01Z</time></trkpt>
<trkpt lat="26.148211" lon="100.162114">
<time>2016-10-07T06:34:02Z</time></trkpt>
<trkpt lat="26.148491" lon="100.162004">
<time>2016-10-07T06:34:03Z</time></trkpt>
<trkpt lat="26.148721" lon="100.161934">
<time>2016-10-07T06:34:04Z</time></trkpt>
<trkpt lat="26.149051" lon="100.161843">
<time>2016-10-07T06:34:05Z</time></trkpt>
<trkpt lat="26.149401" lon="100.161733">
<time>2016-10-07T06:34:06Z</time></trkpt>
<trkpt lat="26.149601" lon="100.161673">
<time>2016-10-07T06:34:07Z</time></trkpt>
<trkpt lat="26.149851" lon="100.161573">
<time>2016-10-07T06:34:08Z</time></trkpt>
<trkpt lat="26.150181" lon="100.161412">
<time>2016-10-07T06:34:09Z</time></trkpt>
<trkpt lat="26.150431" lon="100.161292">
<time>2016-10-07T06:34:10Z</time></trkpt>
<trkpt lat="26.150671" lon="100.161132">
<time>2016-10-07T06:34:11Z</time></trkpt>
<trkpt lat="26.150881" lon="100.161002">
<time>2016-10-07T06:34:12Z</time></trkpt>
<trkpt lat="26.15123" lon="100.160771">
<time>2016-10-07T06:34:13Z</time></trkpt>
<trkpt lat="26.15162" lon="100.160531">
<time>2016-10-07T06:34:14Z</time></trkpt>
<trkpt lat="26.15181" lon="100.16043">
<time>2016-10-07T06:34:15Z</time></trkpt>
<trkpt lat="26.15195" lon="100.16033">
<time>2016-10-07T06:34:16Z</time></trkpt>
<trkpt lat="26.15215" lon="100.1602">
<time>2016-10-07T06:34:17Z</time></trkpt>
<trkpt lat="26.15263" lon="100.159899">
<time>2016-10-07T06:34:18Z</time></trkpt>
<trkpt lat="26.153699" lon="100.159148">
<time>2016-10-07T06:34:19Z</time></trkpt>
<trkpt lat="26.153969" lon="100.158977">
<time>2016-10-07T06:34:20Z</time></trkpt>
<trkpt lat="26.154219" lon="100.158797">
<time>2016-10-07T06:34:21Z</time></trkpt>
<trkpt lat="26.154459" lon="100.158667">
<time>2016-10-07T06:34:22Z</time></trkpt>
<trkpt lat="26.154669" lon="100.158566">
<time>2016-10-07T06:34:23Z</time></trkpt>
<trkpt lat="26.154849" lon="100.158516">
<time>2016-10-07T06:34:24Z</time></trkpt>
<trkpt lat="26.155029" lon="100.158496">
<time>2016-10-07T06:34:25Z</time></trkpt>
<trkpt lat="26.155319" lon="100.158506">
<time>2016-10-07T06:34:26Z</time></trkpt>
<trkpt lat="26.15646" lon="100.158677">
<time>2016-10-07T06:34:27Z</time></trkpt>
<trkpt lat="26.158191" lon="100.158937">
<time>2016-10-07T06:34:28Z</time></trkpt>
<trkpt lat="26.159863" lon="100.159208">
<time>2016-10-07T06:34:29Z</time></trkpt>
<trkpt lat="26.160724" lon="100.159328">
<time>2016-10-07T06:34:30Z</time></trkpt>
<trkpt lat="26.161054" lon="100.159378">
<time>2016-10-07T06:34:31Z</time></trkpt>
<trkpt lat="26.161294" lon="100.159398">
<time>2016-10-07T06:34:32Z</time></trkpt>
<trkpt lat="26.161534" lon="100.159368">
<time>2016-10-07T06:34:33Z</time></trkpt>
<trkpt lat="26.161704" lon="100.159338">
<time>2016-10-07T06:34:34Z</time></trkpt>
<trkpt lat="26.161984" lon="100.159258">
<time>2016-10-07T06:34:35Z</time></trkpt>
<trkpt lat="26.162184" lon="100.159178">
<time>2016-10-07T06:34:36Z</time></trkpt>
<trkpt lat="26.162384" lon="100.159097">
<time>2016-10-07T06:34:37Z</time></trkpt>
<trkpt lat="26.162674" lon="100.158967">
<time>2016-10-07T06:34:38Z</time></trkpt>
<trkpt lat="26.162804" lon="100.158907">
<time>2016-10-07T06:34:39Z</time></trkpt>
<trkpt lat="26.163274" lon="100.158697">
<time>2016-10-07T06:34:40Z</time></trkpt>
<trkpt lat="26.163544" lon="100.158606">
<time>2016-10-07T06:34:41Z</time></trkpt>
<trkpt lat="26.163744" lon="100.158546">
<time>2016-10-07T06:34:42Z</time></trkpt>
<trkpt lat="26.163914" lon="100.158536">
<time>2016-10-07T06:34:43Z</time></trkpt>
<trkpt lat="26.164094" lon="100.158546">
<time>2016-10-07T06:34:44Z</time></trkpt>
<trkpt lat="26.164365" lon="100.158576">
<time>2016-10-07T06:34:45Z</time></trkpt>
<trkpt lat="26.164715" lon="100.158626">
<time>2016-10-07T06:34:46Z</time></trkpt>
<trkpt lat="26.165005" lon="100.158686">
<time>2016-10-07T06:34:47Z</time></trkpt>
<trkpt lat="26.165236" lon="100.158727">
<time>2016-10-07T06:34:48Z</time></trkpt>
<trkpt lat="26.165406" lon="100.158727">
<time>2016-10-07T06:34:49Z</time></trkpt>
<trkpt lat="26.165576" lon="100.158686">
<time>2016-10-07T06:34:50Z</time></trkpt>
<trkpt lat="26.165736" lon="100.158646">
<time>2016-10-07T06:34:51Z</time></trkpt>
<trkpt lat="26.166126" lon="100.158506">
<time>2016-10-07T06:34:52Z</time></trkpt>
<trkpt lat="26.166426" lon="100.158436">
<time>2016-10-07T06:34:53Z</time></trkpt>
<trkpt lat="26.166686" lon="100.158396">
<time>2016-10-07T06:34:54Z</time></trkpt>
<trkpt lat="26.167236" lon="100.158376">
<time>2016-10-07T06:34:55Z</time></trkpt>
<trkpt lat="26.167586" lon="100.158346">
<time>2016-10-07T06:34:56Z</time></trkpt>
<trkpt lat="26.167846" lon="100.158296">
<time>2016-10-07T06:34:57Z</time></trkpt>
<trkpt lat="26.168817" lon="100.158005">
<time>2016-10-07T06:34:58Z</time></trkpt>
<trkpt lat="26.170167" lon="100.157564">
<time>2016-10-07T06:34:59Z</time></trkpt>
<trkpt lat="26.170267" lon="100.157524">
<time>2016-10-07T06:35:00Z</time></trkpt>
<trkpt lat="26.170417" lon="100.157484">
<time>2016-10-07T06:35:01Z</time></trkpt>
<trkpt lat="26.170517" lon="100.157454">
<time>2016-10-07T06:35:02Z</time></trkpt>
<trkpt lat="26.170617" lon="100.157444">
<time>2016-10-07T06:35:03Z</time></trkpt>
<trkpt lat="26.170717" lon="100.157434">
<time>2016-10-07T06:35:04Z</time></trkpt>
<trkpt lat="26.170797" lon="100.157434">
<time>2016-10-07T06:35:05Z</time></trkpt>
<trkpt lat="26.170877" lon="100.157454">
<time>2016-10-07T06:35:06Z</time></trkpt>
<trkpt lat="26.170967" lon="100.157484">
<time>2016-10-07T06:35:07Z</time></trkpt>
<trkpt lat="26.171057" lon="100.157524">
<time>2016-10-07T06:35:08Z</time></trkpt>
<trkpt lat="26.171147" lon="100.157584">
<time>2016-10-07T06:35:09Z</time></trkpt>
<trkpt lat="26.171217" lon="100.157654">
<time>2016-10-07T06:35:10Z</time></trkpt>
<trkpt lat="26.171278" lon="100.157724">
<time>2016-10-07T06:35:11Z</time></trkpt>
<trkpt lat="26.171338" lon="100.157804">
<time>2016-10-07T06:35:12Z</time></trkpt>
<trkpt lat="26.171388" lon="100.157905">
<time>2016-10-07T06:35:13Z</time></trkpt>
<trkpt lat="26.1718" lon="100.159137">
<time>2016-10-07T06:35:14Z</time></trkpt>
<trkpt lat="26.171881" lon="100.159488">
<time>2016-10-07T06:35:15Z</time></trkpt>
<trkpt lat="26.171901" lon="100.159648">
<time>2016-10-07T06:35:16Z</time></trkpt>
<trkpt lat="26.171932" lon="100.159829">
<time>2016-10-07T06:35:17Z</time></trkpt>
<trkpt lat="26.171952" lon="100.160069">
<time>2016-10-07T06:35:18Z</time></trkpt>
<trkpt lat="26.171963" lon="100.160219">
<time>2016-10-07T06:35:19Z</time></trkpt>
<trkpt lat="26.171993" lon="100.16036">
<time>2016-10-07T06:35:20Z</time></trkpt>
<trkpt lat="26.172033" lon="100.16047">
<time>2016-10-07T06:35:21Z</time></trkpt>
<trkpt lat="26.172093" lon="100.16059">
<time>2016-10-07T06:35:22Z</time></trkpt>
<trkpt lat="26.172214" lon="100.160761">
<time>2016-10-07T06:35:23Z</time></trkpt>
<trkpt lat="26.172334" lon="100.160901">
<time>2016-10-07T06:35:24Z</time></trkpt>
<trkpt lat="26.172474" lon="100.161061">
<time>2016-10-07T06:35:25Z</time></trkpt>
<trkpt lat="26.172655" lon="100.161262">
<time>2016-10-07T06:35:26Z</time></trkpt>
<trkpt lat="26.172845" lon="100.161462">
<time>2016-10-07T06:35:27Z</time></trkpt>
<trkpt lat="26.172946" lon="100.161552">
<time>2016-10-07T06:35:28Z</time></trkpt>
<trkpt lat="26.173056" lon="100.161622">
<time>2016-10-07T06:35:29Z</time></trkpt>
<trkpt lat="26.173166" lon="100.161662">
<time>2016-10-07T06:35:30Z</time></trkpt>
<trkpt lat="26.173306" lon="100.161692">
<time>2016-10-07T06:35:31Z</time></trkpt>
<trkpt lat="26.173396" lon="100.161692">
<time>2016-10-07T06:35:32Z</time></trkpt>
<trkpt lat="26.173566" lon="100.161662">
<time>2016-10-07T06:35:33Z</time></trkpt>
<trkpt lat="26.173796" lon="100.161592">
<time>2016-10-07T06:35:34Z</time></trkpt>
<trkpt lat="26.174056" lon="100.161482">
<time>2016-10-07T06:35:35Z</time></trkpt>
<trkpt lat="26.174306" lon="100.161392">
<time>2016-10-07T06:35:36Z</time></trkpt>
<trkpt lat="26.174586" lon="100.161292">
<time>2016-10-07T06:35:37Z</time></trkpt>
<trkpt lat="26.174916" lon="100.161161">
<time>2016-10-07T06:35:38Z</time></trkpt>
<trkpt lat="26.175246" lon="100.161041">
<time>2016-10-07T06:35:39Z</time></trkpt>
<trkpt lat="26.175566" lon="100.160921">
<time>2016-10-07T06:35:40Z</time></trkpt>
<trkpt lat="26.175896" lon="100.160791">
<time>2016-10-07T06:35:41Z</time></trkpt>
<trkpt lat="26.176216" lon="100.16068">
<time>2016-10-07T06:35:42Z</time></trkpt>
<trkpt lat="26.176566" lon="100.16055">
<time>2016-10-07T06:35:43Z</time></trkpt>
<trkpt lat="26.176896" lon="100.16043">
<time>2016-10-07T06:35:44Z</time></trkpt>
<trkpt lat="26.177216" lon="100.160309">
<time>2016-10-07T06:35:45Z</time></trkpt>
<trkpt lat="26.177546" lon="100.160179">
<time>2016-10-07T06:35:46Z</time></trkpt>
<trkpt lat="26.177846" lon="100.160089">
<time>2016-10-07T06:35:47Z</time></trkpt>
<trkpt lat="26.178146" lon="100.160009">
<time>2016-10-07T06:35:48Z</time></trkpt>
<trkpt lat="26.178426" lon="100.159939">
<time>2016-10-07T06:35:49Z</time></trkpt>
<trkpt lat="26.178686" lon="100.159889">
<time>2016-10-07T06:35:50Z</time></trkpt>
<trkpt lat="26.178926" lon="100.159838">
<time>2016-10-07T06:35:51Z</time></trkpt>
<trkpt lat="26.179156" lon="100.159778">
<time>2016-10-07T06:35:52Z</time></trkpt>
<trkpt lat="26.179356" lon="100.159728">
<time>2016-10-07T06:35:53Z</time></trkpt>
<trkpt lat="26.179536" lon="100.159648">
<time>2016-10-07T06:35:54Z</time></trkpt>
<trkpt lat="26.179686" lon="100.159548">
<time>2016-10-07T06:35:55Z</time></trkpt>
<trkpt lat="26.179816" lon="100.159418">
<time>2016-10-07T06:35:56Z</time></trkpt>
<trkpt lat="26.179936" lon="100.159287">
<time>2016-10-07T06:35:57Z</time></trkpt>
<trkpt lat="26.180056" lon="100.159127">
<time>2016-10-07T06:35:58Z</time></trkpt>
<trkpt lat="26.180145" lon="100.159007">
<time>2016-10-07T06:35:59Z</time></trkpt>
<trkpt lat="26.180265" lon="100.158826">
<time>2016-10-07T06:36:00Z</time></trkpt>
<trkpt lat="26.180365" lon="100.158646">
<time>2016-10-07T06:36:01Z</time></trkpt>
<trkpt lat="26.180475" lon="100.158456">
<time>2016-10-07T06:36:02Z</time></trkpt>
<trkpt lat="26.180584" lon="100.158245">
<time>2016-10-07T06:36:03Z</time></trkpt>
<trkpt lat="26.180704" lon="100.157975">
<time>2016-10-07T06:36:04Z</time></trkpt>
<trkpt lat="26.180794" lon="100.157774">
<time>2016-10-07T06:36:05Z</time></trkpt>
<trkpt lat="26.180913" lon="100.157504">
<time>2016-10-07T06:36:06Z</time></trkpt>
<trkpt lat="26.181013" lon="100.157273">
<time>2016-10-07T06:36:07Z</time></trkpt>
<trkpt lat="26.181103" lon="100.157083">
<time>2016-10-07T06:36:08Z</time></trkpt>
<trkpt lat="26.181172" lon="100.156973">
<time>2016-10-07T06:36:09Z</time></trkpt>
<trkpt lat="26.181232" lon="100.156922">
<time>2016-10-07T06:36:10Z</time></trkpt>
<trkpt lat="26.181312" lon="100.156882">
<time>2016-10-07T06:36:11Z</time></trkpt>
<trkpt lat="26.181412" lon="100.156872">
<time>2016-10-07T06:36:12Z</time></trkpt>
<trkpt lat="26.181492" lon="100.156892">
<time>2016-10-07T06:36:13Z</time></trkpt>
<trkpt lat="26.181613" lon="100.156973">
<time>2016-10-07T06:36:14Z</time></trkpt>
<trkpt lat="26.181773" lon="100.157113">
<time>2016-10-07T06:36:15Z</time></trkpt>
<trkpt lat="26.181943" lon="100.157243">
<time>2016-10-07T06:36:16Z</time></trkpt>
<trkpt lat="26.182054" lon="100.157313">
<time>2016-10-07T06:36:17Z</time></trkpt>
<trkpt lat="26.182194" lon="100.157393">
<time>2016-10-07T06:36:18Z</time></trkpt>
<trkpt lat="26.182384" lon="100.157484">
<time>2016-10-07T06:36:19Z</time></trkpt>
<trkpt lat="26.182564" lon="100.157564">
<time>2016-10-07T06:36:20Z</time></trkpt>
<trkpt lat="26.182654" lon="100.157614">
<time>2016-10-07T06:36:21Z</time></trkpt>
<trkpt lat="26.182745" lon="100.157684">
<time>2016-10-07T06:36:22Z</time></trkpt>
<trkpt lat="26.182855" lon="100.157804">
<time>2016-10-07T06:36:23Z</time></trkpt>
<trkpt lat="26.182955" lon="100.157944">
<time>2016-10-07T06:36:24Z</time></trkpt>
<trkpt lat="26.183005" lon="100.158035">
<time>2016-10-07T06:36:25Z</time></trkpt>
<trkpt lat="26.183036" lon="100.158145">
<time>2016-10-07T06:36:26Z</time></trkpt>
<trkpt lat="26.183086" lon="100.158345">
<time>2016-10-07T06:36:27Z</time></trkpt>
<trkpt lat="26.183167" lon="100.158626">
<time>2016-10-07T06:36:28Z</time></trkpt>
<trkpt lat="26.183207" lon="100.158736">
<time>2016-10-07T06:36:29Z</time></trkpt>
<trkpt lat="26.183257" lon="100.158816">
<time>2016-10-07T06:36:30Z</time></trkpt>
<trkpt lat="26.183307" lon="100.158866">
<time>2016-10-07T06:36:31Z</time></trkpt>
<trkpt lat="26.183357" lon="100.158926">
<time>2016-10-07T06:36:32Z</time></trkpt>
<trkpt lat="26.183387" lon="100.158967">
<time>2016-10-07T06:36:33Z</time></trkpt>
<trkpt lat="26.183407" lon="100.158997">
<time>2016-10-07T06:36:34Z</time></trkpt>
<trkpt lat="26.183428" lon="100.158997">
<time>2016-10-07T06:36:35Z</time></trkpt>
<trkpt lat="26.183458" lon="100.159007">
<time>2016-10-07T06:36:36Z</time></trkpt>
<trkpt lat="26.183508" lon="100.159007">
<time>2016-10-07T06:36:37Z</time></trkpt>
<trkpt lat="26.183558" lon="100.158997">
<time>2016-10-07T06:36:38Z</time></trkpt>
<trkpt lat="26.183598" lon="100.158977">
<time>2016-10-07T06:36:39Z</time></trkpt>
<trkpt lat="26.183767" lon="100.158846">
<time>2016-10-07T06:36:40Z</time></trkpt>
<trkpt lat="26.183827" lon="100.158776">
<time>2016-10-07T06:36:41Z</time></trkpt>
<trkpt lat="26.183907" lon="100.158676">
<time>2016-10-07T06:36:42Z</time></trkpt>
<trkpt lat="26.184037" lon="100.158486">
<time>2016-10-07T06:36:43Z</time></trkpt>
<trkpt lat="26.184157" lon="100.158305">
<time>2016-10-07T06:36:44Z</time></trkpt>
<trkpt lat="26.184306" lon="100.158085">
<time>2016-10-07T06:36:45Z</time></trkpt>
<trkpt lat="26.184436" lon="100.157884">
<time>2016-10-07T06:36:46Z</time></trkpt>
<trkpt lat="26.184566" lon="100.157684">
<time>2016-10-07T06:36:47Z</time></trkpt>
<trkpt lat="26.184745" lon="100.157403">
<time>2016-10-07T06:36:48Z</time></trkpt>
<trkpt lat="26.184855" lon="100.157243">
<time>2016-10-07T06:36:49Z</time></trkpt>
<trkpt lat="26.184925" lon="100.157153">
<time>2016-10-07T06:36:50Z</time></trkpt>
<trkpt lat="26.184995" lon="100.157063">
<time>2016-10-07T06:36:51Z</time></trkpt>
<trkpt lat="26.185055" lon="100.157013">
<time>2016-10-07T06:36:52Z</time></trkpt>
<trkpt lat="26.185125" lon="100.156942">
<time>2016-10-07T06:36:53Z</time></trkpt>
<trkpt lat="26.185235" lon="100.156882">
<time>2016-10-07T06:36:54Z</time></trkpt>
<trkpt lat="26.185305" lon="100.156842">
<time>2016-10-07T06:36:55Z</time></trkpt>
<trkpt lat="26.185375" lon="100.156812">
<time>2016-10-07T06:36:56Z</time></trkpt>
<trkpt lat="26.185465" lon="100.156782">
<time>2016-10-07T06:36:57Z</time></trkpt>
<trkpt lat="26.185645" lon="100.156712">
<time>2016-10-07T06:36:58Z</time></trkpt>
<trkpt lat="26.185725" lon="100.156682">
<time>2016-10-07T06:36:59Z</time></trkpt>
<trkpt lat="26.185805" lon="100.156602">
<time>2016-10-07T06:37:00Z</time></trkpt>
<trkpt lat="26.185875" lon="100.156511">
<time>2016-10-07T06:37:01Z</time></trkpt>
<trkpt lat="26.185884" lon="100.156481">
<time>2016-10-07T06:37:02Z</time></trkpt>
<trkpt lat="26.185904" lon="100.156441">
<time>2016-10-07T06:37:03Z</time></trkpt>
<trkpt lat="26.185924" lon="100.156381">
<time>2016-10-07T06:37:04Z</time></trkpt>
<trkpt lat="26.185934" lon="100.156331">
<time>2016-10-07T06:37:05Z</time></trkpt>
<trkpt lat="26.185944" lon="100.156281">
<time>2016-10-07T06:37:06Z</time></trkpt>
<trkpt lat="26.185944" lon="100.156241">
<time>2016-10-07T06:37:07Z</time></trkpt>
<trkpt lat="26.185954" lon="100.156131">
<time>2016-10-07T06:37:08Z</time></trkpt>
<trkpt lat="26.185943" lon="100.15586">
<time>2016-10-07T06:37:09Z</time></trkpt>
<trkpt lat="26.185943" lon="100.15563">
<time>2016-10-07T06:37:10Z</time></trkpt>
<trkpt lat="26.185942" lon="100.155339">
<time>2016-10-07T06:37:11Z</time></trkpt>
<trkpt lat="26.185952" lon="100.155119">
<time>2016-10-07T06:37:12Z</time></trkpt>
<trkpt lat="26.185972" lon="100.154868">
<time>2016-10-07T06:37:13Z</time></trkpt>
<trkpt lat="26.185981" lon="100.154598">
<time>2016-10-07T06:37:14Z</time></trkpt>
<trkpt lat="26.185981" lon="100.154437">
<time>2016-10-07T06:37:15Z</time></trkpt>
<trkpt lat="26.185971" lon="100.154347">
<time>2016-10-07T06:37:16Z</time></trkpt>
<trkpt lat="26.185971" lon="100.154257">
<time>2016-10-07T06:37:17Z</time></trkpt>
<trkpt lat="26.18595" lon="100.154137">
<time>2016-10-07T06:37:18Z</time></trkpt>
<trkpt lat="26.18593" lon="100.154057">
<time>2016-10-07T06:37:19Z</time></trkpt>
<trkpt lat="26.18589" lon="100.153906">
<time>2016-10-07T06:37:20Z</time></trkpt>
<trkpt lat="26.185819" lon="100.153716">
<time>2016-10-07T06:37:21Z</time></trkpt>
<trkpt lat="26.185749" lon="100.153576">
<time>2016-10-07T06:37:22Z</time></trkpt>
<trkpt lat="26.185639" lon="100.153365">
<time>2016-10-07T06:37:23Z</time></trkpt>
<trkpt lat="26.185568" lon="100.153225">
<time>2016-10-07T06:37:24Z</time></trkpt>
<trkpt lat="26.185548" lon="100.153095">
<time>2016-10-07T06:37:25Z</time></trkpt>
<trkpt lat="26.185568" lon="100.153004">
<time>2016-10-07T06:37:26Z</time></trkpt>
<trkpt lat="26.185598" lon="100.152904">
<time>2016-10-07T06:37:27Z</time></trkpt>
<trkpt lat="26.185648" lon="100.152824">
<time>2016-10-07T06:37:28Z</time></trkpt>
<trkpt lat="26.185768" lon="100.152684">
<time>2016-10-07T06:37:29Z</time></trkpt>
<trkpt lat="26.185917" lon="100.152513">
<time>2016-10-07T06:37:30Z</time></trkpt>
<trkpt lat="26.186077" lon="100.152333">
<time>2016-10-07T06:37:31Z</time></trkpt>
<trkpt lat="26.186267" lon="100.152133">
<time>2016-10-07T06:37:32Z</time></trkpt>
<trkpt lat="26.186387" lon="100.152022">
<time>2016-10-07T06:37:33Z</time></trkpt>
<trkpt lat="26.186487" lon="100.151952">
<time>2016-10-07T06:37:34Z</time></trkpt>
<trkpt lat="26.186567" lon="100.151932">
<time>2016-10-07T06:37:35Z</time></trkpt>
<trkpt lat="26.186637" lon="100.151922">
<time>2016-10-07T06:37:36Z</time></trkpt>
<trkpt lat="26.186707" lon="100.151922">
<time>2016-10-07T06:37:37Z</time></trkpt>
<trkpt lat="26.186807" lon="100.151952">
<time>2016-10-07T06:37:38Z</time></trkpt>
<trkpt lat="26.186897" lon="100.151992">
<time>2016-10-07T06:37:39Z</time></trkpt>
<trkpt lat="26.186947" lon="100.152032">
<time>2016-10-07T06:37:40Z</time></trkpt>
<trkpt lat="26.187087" lon="100.152123">
<time>2016-10-07T06:37:41Z</time></trkpt>
<trkpt lat="26.187248" lon="100.152243">
<time>2016-10-07T06:37:42Z</time></trkpt>
<trkpt lat="26.187448" lon="100.152393">
<time>2016-10-07T06:37:43Z</time></trkpt>
<trkpt lat="26.187568" lon="100.152473">
<time>2016-10-07T06:37:44Z</time></trkpt>
<trkpt lat="26.187699" lon="100.152543">
<time>2016-10-07T06:37:45Z</time></trkpt>
<trkpt lat="26.187829" lon="100.152614">
<time>2016-10-07T06:37:46Z</time></trkpt>
<trkpt lat="26.187979" lon="100.152644">
<time>2016-10-07T06:37:47Z</time></trkpt>
<trkpt lat="26.188089" lon="100.152654">
<time>2016-10-07T06:37:48Z</time></trkpt>
<trkpt lat="26.188259" lon="100.152634">
<time>2016-10-07T06:37:49Z</time></trkpt>
<trkpt lat="26.188379" lon="100.152594">
<time>2016-10-07T06:37:50Z</time></trkpt>
<trkpt lat="26.188479" lon="100.152543">
<time>2016-10-07T06:37:51Z</time></trkpt>
<trkpt lat="26.188579" lon="100.152473">
<time>2016-10-07T06:37:52Z</time></trkpt>
<trkpt lat="26.188669" lon="100.152393">
<time>2016-10-07T06:37:53Z</time></trkpt>
<trkpt lat="26.188749" lon="100.152323">
<time>2016-10-07T06:37:54Z</time></trkpt>
<trkpt lat="26.188869" lon="100.152173">
<time>2016-10-07T06:37:55Z</time></trkpt>
<trkpt lat="26.188998" lon="100.151982">
<time>2016-10-07T06:37:56Z</time></trkpt>
<trkpt lat="26.189118" lon="100.151812">
<time>2016-10-07T06:37:57Z</time></trkpt>
<trkpt lat="26.189268" lon="100.151602">
<time>2016-10-07T06:37:58Z</time></trkpt>
<trkpt lat="26.189398" lon="100.151391">
<time>2016-10-07T06:37:59Z</time></trkpt>
<trkpt lat="26.189527" lon="100.151141">
<time>2016-10-07T06:38:00Z</time></trkpt>
<trkpt lat="26.189567" lon="100.15105">
<time>2016-10-07T06:38:01Z</time></trkpt>
<trkpt lat="26.189607" lon="100.15091">
<time>2016-10-07T06:38:02Z</time></trkpt>
<trkpt lat="26.189617" lon="100.15083">
<time>2016-10-07T06:38:03Z</time></trkpt>
<trkpt lat="26.189627" lon="100.15072">
<time>2016-10-07T06:38:04Z</time></trkpt>
<trkpt lat="26.189626" lon="100.150469">
<time>2016-10-07T06:38:05Z</time></trkpt>
<trkpt lat="26.189626" lon="100.150209">
<time>2016-10-07T06:38:06Z</time></trkpt>
<trkpt lat="26.189645" lon="100.150069">
<time>2016-10-07T06:38:07Z</time></trkpt>
<trkpt lat="26.189725" lon="100.149938">
<time>2016-10-07T06:38:08Z</time></trkpt>
<trkpt lat="26.189785" lon="100.149888">
<time>2016-10-07T06:38:09Z</time></trkpt>
<trkpt lat="26.189865" lon="100.149838">
<time>2016-10-07T06:38:10Z</time></trkpt>
<trkpt lat="26.189935" lon="100.149828">
<time>2016-10-07T06:38:11Z</time></trkpt>
<trkpt lat="26.190005" lon="100.149828">
<time>2016-10-07T06:38:12Z</time></trkpt>
<trkpt lat="26.190055" lon="100.149838">
<time>2016-10-07T06:38:13Z</time></trkpt>
<trkpt lat="26.190135" lon="100.149878">
<time>2016-10-07T06:38:14Z</time></trkpt>
<trkpt lat="26.190246" lon="100.149948">
<time>2016-10-07T06:38:15Z</time></trkpt>
<trkpt lat="26.190356" lon="100.150079">
<time>2016-10-07T06:38:16Z</time></trkpt>
<trkpt lat="26.190486" lon="100.150259">
<time>2016-10-07T06:38:17Z</time></trkpt>
<trkpt lat="26.190637" lon="100.150479">
<time>2016-10-07T06:38:18Z</time></trkpt>
<trkpt lat="26.190777" lon="100.15072">
<time>2016-10-07T06:38:19Z</time></trkpt>
<trkpt lat="26.190868" lon="100.15089">
<time>2016-10-07T06:38:20Z</time></trkpt>
<trkpt lat="26.190948" lon="100.15102">
<time>2016-10-07T06:38:21Z</time></trkpt>
<trkpt lat="26.191028" lon="100.151111">
<time>2016-10-07T06:38:22Z</time></trkpt>
<trkpt lat="26.191098" lon="100.151171">
<time>2016-10-07T06:38:23Z</time></trkpt>
<trkpt lat="26.191168" lon="100.151211">
<time>2016-10-07T06:38:24Z</time></trkpt>
<trkpt lat="26.191258" lon="100.151231">
<time>2016-10-07T06:38:25Z</time></trkpt>
<trkpt lat="26.191339" lon="100.151231">
<time>2016-10-07T06:38:26Z</time></trkpt>
<trkpt lat="26.191439" lon="100.151211">
<time>2016-10-07T06:38:27Z</time></trkpt>
<trkpt lat="26.191519" lon="100.151171">
<time>2016-10-07T06:38:28Z</time></trkpt>
<trkpt lat="26.191608" lon="100.151111">
<time>2016-10-07T06:38:29Z</time></trkpt>
<trkpt lat="26.191688" lon="100.15104">
<time>2016-10-07T06:38:30Z</time></trkpt>
<trkpt lat="26.191778" lon="100.15095">
<time>2016-10-07T06:38:31Z</time></trkpt>
<trkpt lat="26.191948" lon="100.15079">
<time>2016-10-07T06:38:32Z</time></trkpt>
<trkpt lat="26.192128" lon="100.15061">
<time>2016-10-07T06:38:33Z</time></trkpt>
<trkpt lat="26.192318" lon="100.150419">
<time>2016-10-07T06:38:34Z</time></trkpt>
<trkpt lat="26.192388" lon="100.150349">
<time>2016-10-07T06:38:35Z</time></trkpt>
<trkpt lat="26.192488" lon="100.150249">
<time>2016-10-07T06:38:36Z</time></trkpt>
<trkpt lat="26.192537" lon="100.150209">
<time>2016-10-07T06:38:37Z</time></trkpt>
<trkpt lat="26.192607" lon="100.150159">
<time>2016-10-07T06:38:38Z</time></trkpt>
<trkpt lat="26.192697" lon="100.150129">
<time>2016-10-07T06:38:39Z</time></trkpt>
<trkpt lat="26.192787" lon="100.150129">
<time>2016-10-07T06:38:40Z</time></trkpt>
<trkpt lat="26.192878" lon="100.150149">
<time>2016-10-07T06:38:41Z</time></trkpt>
<trkpt lat="26.192948" lon="100.150199">
<time>2016-10-07T06:38:42Z</time></trkpt>
<trkpt lat="26.193008" lon="100.150249">
<time>2016-10-07T06:38:43Z</time></trkpt>
<trkpt lat="26.193128" lon="100.150369">
<time>2016-10-07T06:38:44Z</time></trkpt>
<trkpt lat="26.193178" lon="100.150409">
<time>2016-10-07T06:38:45Z</time></trkpt>
<trkpt lat="26.193238" lon="100.150449">
<time>2016-10-07T06:38:46Z</time></trkpt>
<trkpt lat="26.193308" lon="100.150479">
<time>2016-10-07T06:38:47Z</time></trkpt>
<trkpt lat="26.193408" lon="100.150479">
<time>2016-10-07T06:38:48Z</time></trkpt>
<trkpt lat="26.193488" lon="100.150459">
<time>2016-10-07T06:38:49Z</time></trkpt>
<trkpt lat="26.193568" lon="100.150419">
<time>2016-10-07T06:38:50Z</time></trkpt>
<trkpt lat="26.193658" lon="100.150359">
<time>2016-10-07T06:38:51Z</time></trkpt>
<trkpt lat="26.193748" lon="100.150279">
<time>2016-10-07T06:38:52Z</time></trkpt>
<trkpt lat="26.193908" lon="100.150139">
<time>2016-10-07T06:38:53Z</time></trkpt>
<trkpt lat="26.194028" lon="100.150028">
<time>2016-10-07T06:38:54Z</time></trkpt>
<trkpt lat="26.194198" lon="100.149888">
<time>2016-10-07T06:38:55Z</time></trkpt>
<trkpt lat="26.194358" lon="100.149738">
<time>2016-10-07T06:38:56Z</time></trkpt>
<trkpt lat="26.194518" lon="100.149588">
<time>2016-10-07T06:38:57Z</time></trkpt>
<trkpt lat="26.194687" lon="100.149417">
<time>2016-10-07T06:38:58Z</time></trkpt>
<trkpt lat="26.194857" lon="100.149247">
<time>2016-10-07T06:38:59Z</time></trkpt>
<trkpt lat="26.195027" lon="100.149097">
<time>2016-10-07T06:39:00Z</time></trkpt>
<trkpt lat="26.195147" lon="100.148986">
<time>2016-10-07T06:39:01Z</time></trkpt>
<trkpt lat="26.195207" lon="100.148936">
<time>2016-10-07T06:39:02Z</time></trkpt>
<trkpt lat="26.195257" lon="100.148906">
<time>2016-10-07T06:39:03Z</time></trkpt>
<trkpt lat="26.195287" lon="100.148886">
<time>2016-10-07T06:39:04Z</time></trkpt>
<trkpt lat="26.195337" lon="100.148856">
<time>2016-10-07T06:39:05Z</time></trkpt>
<trkpt lat="26.195387" lon="100.148836">
<time>2016-10-07T06:39:06Z</time></trkpt>
<trkpt lat="26.195427" lon="100.148816">
<time>2016-10-07T06:39:07Z</time></trkpt>
<trkpt lat="26.195497" lon="100.148796">
<time>2016-10-07T06:39:08Z</time></trkpt>
<trkpt lat="26.195607" lon="100.148786">
<time>2016-10-07T06:39:09Z</time></trkpt>
<trkpt lat="26.195697" lon="100.148796">
<time>2016-10-07T06:39:10Z</time></trkpt>
<trkpt lat="26.195797" lon="100.148806">
<time>2016-10-07T06:39:11Z</time></trkpt>
<trkpt lat="26.195887" lon="100.148846">
<time>2016-10-07T06:39:12Z</time></trkpt>
<trkpt lat="26.195967" lon="100.148876">
<time>2016-10-07T06:39:13Z</time></trkpt>
<trkpt lat="26.196097" lon="100.148936">
<time>2016-10-07T06:39:14Z</time></trkpt>
<trkpt lat="26.196278" lon="100.149046">
<time>2016-10-07T06:39:15Z</time></trkpt>
<trkpt lat="26.196348" lon="100.149086">
<time>2016-10-07T06:39:16Z</time></trkpt>
<trkpt lat="26.196408" lon="100.149137">
<time>2016-10-07T06:39:17Z</time></trkpt>
<trkpt lat="26.196458" lon="100.149187">
<time>2016-10-07T06:39:18Z</time></trkpt>
<trkpt lat="26.196518" lon="100.149247">
<time>2016-10-07T06:39:19Z</time></trkpt>
<trkpt lat="26.196589" lon="100.149357">
<time>2016-10-07T06:39:20Z</time></trkpt>
<trkpt lat="26.196639" lon="100.149447">
<time>2016-10-07T06:39:21Z</time></trkpt>
<trkpt lat="26.196659" lon="100.149507">
<time>2016-10-07T06:39:22Z</time></trkpt>
<trkpt lat="26.196689" lon="100.149597">
<time>2016-10-07T06:39:23Z</time></trkpt>
<trkpt lat="26.196699" lon="100.149688">
<time>2016-10-07T06:39:24Z</time></trkpt>
<trkpt lat="26.196709" lon="100.149778">
<time>2016-10-07T06:39:25Z</time></trkpt>
<trkpt lat="26.196709" lon="100.149878">
<time>2016-10-07T06:39:26Z</time></trkpt>
<trkpt lat="26.19671" lon="100.149998">
<time>2016-10-07T06:39:27Z</time></trkpt>
<trkpt lat="26.19668" lon="100.150259">
<time>2016-10-07T06:39:28Z</time></trkpt>
<trkpt lat="26.196651" lon="100.150499">
<time>2016-10-07T06:39:29Z</time></trkpt>
<trkpt lat="26.196621" lon="100.15075">
<time>2016-10-07T06:39:30Z</time></trkpt>
<trkpt lat="26.196591" lon="100.15101">
<time>2016-10-07T06:39:31Z</time></trkpt>
<trkpt lat="26.196552" lon="100.151261">
<time>2016-10-07T06:39:32Z</time></trkpt>
<trkpt lat="26.196512" lon="100.151531">
<time>2016-10-07T06:39:33Z</time></trkpt>
<trkpt lat="26.196483" lon="100.151712">
<time>2016-10-07T06:39:34Z</time></trkpt>
<trkpt lat="26.196453" lon="100.151922">
<time>2016-10-07T06:39:35Z</time></trkpt>
<trkpt lat="26.196403" lon="100.152233">
<time>2016-10-07T06:39:36Z</time></trkpt>
<trkpt lat="26.196374" lon="100.152453">
<time>2016-10-07T06:39:37Z</time></trkpt>
<trkpt lat="26.196334" lon="100.152724">
<time>2016-10-07T06:39:38Z</time></trkpt>
<trkpt lat="26.196275" lon="100.153104">
<time>2016-10-07T06:39:39Z</time></trkpt>
<trkpt lat="26.196235" lon="100.153395">
<time>2016-10-07T06:39:40Z</time></trkpt>
<trkpt lat="26.196206" lon="100.153706">
<time>2016-10-07T06:39:41Z</time></trkpt>
<trkpt lat="26.196186" lon="100.153996">
<time>2016-10-07T06:39:42Z</time></trkpt>
<trkpt lat="26.196177" lon="100.154277">
<time>2016-10-07T06:39:43Z</time></trkpt>
<trkpt lat="26.196177" lon="100.154587">
<time>2016-10-07T06:39:44Z</time></trkpt>
<trkpt lat="26.196168" lon="100.154828">
<time>2016-10-07T06:39:45Z</time></trkpt>
<trkpt lat="26.196168" lon="100.154938">
<time>2016-10-07T06:39:46Z</time></trkpt>
<trkpt lat="26.196178" lon="100.155098">
<time>2016-10-07T06:39:47Z</time></trkpt>
<trkpt lat="26.196189" lon="100.155229">
<time>2016-10-07T06:39:48Z</time></trkpt>
<trkpt lat="26.196219" lon="100.155389">
<time>2016-10-07T06:39:49Z</time></trkpt>
<trkpt lat="26.196249" lon="100.155519">
<time>2016-10-07T06:39:50Z</time></trkpt>
<trkpt lat="26.196279" lon="100.155589">
<time>2016-10-07T06:39:51Z</time></trkpt>
<trkpt lat="26.196309" lon="100.155669">
<time>2016-10-07T06:39:52Z</time></trkpt>
<trkpt lat="26.19636" lon="100.15578">
<time>2016-10-07T06:39:53Z</time></trkpt>
<trkpt lat="26.19642" lon="100.15589">
<time>2016-10-07T06:39:54Z</time></trkpt>
<trkpt lat="26.19649" lon="100.156">
<time>2016-10-07T06:39:55Z</time></trkpt>
<trkpt lat="26.19655" lon="100.15609">
<time>2016-10-07T06:39:56Z</time></trkpt>
<trkpt lat="26.196631" lon="100.156191">
<time>2016-10-07T06:39:57Z</time></trkpt>
<trkpt lat="26.196691" lon="100.156251">
<time>2016-10-07T06:39:58Z</time></trkpt>
<trkpt lat="26.196801" lon="100.156381">
<time>2016-10-07T06:39:59Z</time></trkpt>
<trkpt lat="26.196911" lon="100.156481">
<time>2016-10-07T06:40:00Z</time></trkpt>
<trkpt lat="26.196961" lon="100.156521">
<time>2016-10-07T06:40:01Z</time></trkpt>
<trkpt lat="26.197021" lon="100.156551">
<time>2016-10-07T06:40:02Z</time></trkpt>
<trkpt lat="26.197041" lon="100.156561">
<time>2016-10-07T06:40:03Z</time></trkpt>
<trkpt lat="26.197102" lon="100.156581">
<time>2016-10-07T06:40:04Z</time></trkpt>
<trkpt lat="26.197172" lon="100.156591">
<time>2016-10-07T06:40:05Z</time></trkpt>
<trkpt lat="26.197252" lon="100.156591">
<time>2016-10-07T06:40:06Z</time></trkpt>
<trkpt lat="26.197322" lon="100.156561">
<time>2016-10-07T06:40:07Z</time></trkpt>
<trkpt lat="26.197402" lon="100.156521">
<time>2016-10-07T06:40:08Z</time></trkpt>
<trkpt lat="26.197472" lon="100.156471">
<time>2016-10-07T06:40:09Z</time></trkpt>
<trkpt lat="26.197531" lon="100.156401">
<time>2016-10-07T06:40:10Z</time></trkpt>
<trkpt lat="26.197631" lon="100.156261">
<time>2016-10-07T06:40:11Z</time></trkpt>
<trkpt lat="26.197801" lon="100.15599">
<time>2016-10-07T06:40:12Z</time></trkpt>
<trkpt lat="26.19798" lon="100.155689">
<time>2016-10-07T06:40:13Z</time></trkpt>
<trkpt lat="26.19817" lon="100.155389">
<time>2016-10-07T06:40:14Z</time></trkpt>
<trkpt lat="26.19828" lon="100.155198">
<time>2016-10-07T06:40:15Z</time></trkpt>
<trkpt lat="26.19839" lon="100.155038">
<time>2016-10-07T06:40:16Z</time></trkpt>
<trkpt lat="26.198509" lon="100.154878">
<time>2016-10-07T06:40:17Z</time></trkpt>
<trkpt lat="26.198569" lon="100.154828">
<time>2016-10-07T06:40:18Z</time></trkpt>
<trkpt lat="26.198669" lon="100.154718">
<time>2016-10-07T06:40:19Z</time></trkpt>
<trkpt lat="26.198799" lon="100.154627">
<time>2016-10-07T06:40:20Z</time></trkpt>
<trkpt lat="26.198949" lon="100.154527">
<time>2016-10-07T06:40:21Z</time></trkpt>
<trkpt lat="26.199209" lon="100.154377">
<time>2016-10-07T06:40:22Z</time></trkpt>
<trkpt lat="26.199529" lon="100.154176">
<time>2016-10-07T06:40:23Z</time></trkpt>
<trkpt lat="26.199829" lon="100.154006">
<time>2016-10-07T06:40:24Z</time></trkpt>
<trkpt lat="26.199959" lon="100.153926">
<time>2016-10-07T06:40:25Z</time></trkpt>
<trkpt lat="26.200138" lon="100.153816">
<time>2016-10-07T06:40:26Z</time></trkpt>
<trkpt lat="26.200418" lon="100.153625">
<time>2016-10-07T06:40:27Z</time></trkpt>
<trkpt lat="26.200698" lon="100.153425">
<time>2016-10-07T06:40:28Z</time></trkpt>
<trkpt lat="26.200968" lon="100.153224">
<time>2016-10-07T06:40:29Z</time></trkpt>
<trkpt lat="26.201108" lon="100.153114">
<time>2016-10-07T06:40:30Z</time></trkpt>
<trkpt lat="26.201238" lon="100.153024">
<time>2016-10-07T06:40:31Z</time></trkpt>
<trkpt lat="26.201378" lon="100.152954">
<time>2016-10-07T06:40:32Z</time></trkpt>
<trkpt lat="26.201528" lon="100.152884">
<time>2016-10-07T06:40:33Z</time></trkpt>
<trkpt lat="26.201648" lon="100.152834">
<time>2016-10-07T06:40:34Z</time></trkpt>
<trkpt lat="26.201838" lon="100.152784">
<time>2016-10-07T06:40:35Z</time></trkpt>
<trkpt lat="26.202088" lon="100.152713">
<time>2016-10-07T06:40:36Z</time></trkpt>
<trkpt lat="26.202188" lon="100.152683">
<time>2016-10-07T06:40:37Z</time></trkpt>
<trkpt lat="26.202298" lon="100.152633">
<time>2016-10-07T06:40:38Z</time></trkpt>
<trkpt lat="26.202358" lon="100.152603">
<time>2016-10-07T06:40:39Z</time></trkpt>
<trkpt lat="26.202468" lon="100.152523">
<time>2016-10-07T06:40:40Z</time></trkpt>
<trkpt lat="26.202567" lon="100.152433">
<time>2016-10-07T06:40:41Z</time></trkpt>
<trkpt lat="26.202627" lon="100.152353">
<time>2016-10-07T06:40:42Z</time></trkpt>
<trkpt lat="26.202717" lon="100.152232">
<time>2016-10-07T06:40:43Z</time></trkpt>
<trkpt lat="26.202807" lon="100.152082">
<time>2016-10-07T06:40:44Z</time></trkpt>
<trkpt lat="26.202867" lon="100.151992">
<time>2016-10-07T06:40:45Z</time></trkpt>
<trkpt lat="26.202957" lon="100.151892">
<time>2016-10-07T06:40:46Z</time></trkpt>
<trkpt lat="26.203047" lon="100.151822">
<time>2016-10-07T06:40:47Z</time></trkpt>
<trkpt lat="26.203107" lon="100.151782">
<time>2016-10-07T06:40:48Z</time></trkpt>
<trkpt lat="26.203147" lon="100.151762">
<time>2016-10-07T06:40:49Z</time></trkpt>
<trkpt lat="26.203197" lon="100.151741">
<time>2016-10-07T06:40:50Z</time></trkpt>
<trkpt lat="26.203257" lon="100.151721">
<time>2016-10-07T06:40:51Z</time></trkpt>
<trkpt lat="26.203377" lon="100.151701">
<time>2016-10-07T06:40:52Z</time></trkpt>
<trkpt lat="26.203467" lon="100.151711">
<time>2016-10-07T06:40:53Z</time></trkpt>
<trkpt lat="26.203547" lon="100.151731">
<time>2016-10-07T06:40:54Z</time></trkpt>
<trkpt lat="26.203647" lon="100.151772">
<time>2016-10-07T06:40:55Z</time></trkpt>
<trkpt lat="26.203717" lon="100.151802">
<time>2016-10-07T06:40:56Z</time></trkpt>
<trkpt lat="26.203797" lon="100.151862">
<time>2016-10-07T06:40:57Z</time></trkpt>
<trkpt lat="26.203958" lon="100.151982">
<time>2016-10-07T06:40:58Z</time></trkpt>
<trkpt lat="26.204048" lon="100.152062">
<time>2016-10-07T06:40:59Z</time></trkpt>
<trkpt lat="26.204118" lon="100.152132">
<time>2016-10-07T06:41:00Z</time></trkpt>
<trkpt lat="26.204238" lon="100.152262">
<time>2016-10-07T06:41:01Z</time></trkpt>
<trkpt lat="26.204298" lon="100.152343">
<time>2016-10-07T06:41:02Z</time></trkpt>
<trkpt lat="26.204359" lon="100.152443">
<time>2016-10-07T06:41:03Z</time></trkpt>
<trkpt lat="26.204419" lon="100.152533">
<time>2016-10-07T06:41:04Z</time></trkpt>
<trkpt lat="26.204489" lon="100.152663">
<time>2016-10-07T06:41:05Z</time></trkpt>
<trkpt lat="26.204539" lon="100.152763">
<time>2016-10-07T06:41:06Z</time></trkpt>
<trkpt lat="26.204569" lon="100.152854">
<time>2016-10-07T06:41:07Z</time></trkpt>
<trkpt lat="26.20462" lon="100.152994">
<time>2016-10-07T06:41:08Z</time></trkpt>
<trkpt lat="26.20468" lon="100.153174">
<time>2016-10-07T06:41:09Z</time></trkpt>
<trkpt lat="26.20472" lon="100.153375">
<time>2016-10-07T06:41:10Z</time></trkpt>
<trkpt lat="26.204751" lon="100.153575">
<time>2016-10-07T06:41:11Z</time></trkpt>
<trkpt lat="26.204781" lon="100.153796">
<time>2016-10-07T06:41:12Z</time></trkpt>
<trkpt lat="26.204801" lon="100.153906">
<time>2016-10-07T06:41:13Z</time></trkpt>
<trkpt lat="26.204812" lon="100.154036">
<time>2016-10-07T06:41:14Z</time></trkpt>
<trkpt lat="26.204822" lon="100.154206">
<time>2016-10-07T06:41:15Z</time></trkpt>
<trkpt lat="26.204822" lon="100.154317">
<time>2016-10-07T06:41:16Z</time></trkpt>
<trkpt lat="26.204822" lon="100.154447">
<time>2016-10-07T06:41:17Z</time></trkpt>
<trkpt lat="26.204803" lon="100.154627">
<time>2016-10-07T06:41:18Z</time></trkpt>
<trkpt lat="26.204783" lon="100.154747">
<time>2016-10-07T06:41:19Z</time></trkpt>
<trkpt lat="26.204773" lon="100.154858">
<time>2016-10-07T06:41:20Z</time></trkpt>
<trkpt lat="26.204724" lon="100.155128">
<time>2016-10-07T06:41:21Z</time></trkpt>
<trkpt lat="26.204704" lon="100.155268">
<time>2016-10-07T06:41:22Z</time></trkpt>
<trkpt lat="26.204704" lon="100.155359">
<time>2016-10-07T06:41:23Z</time></trkpt>
<trkpt lat="26.204714" lon="100.155409">
<time>2016-10-07T06:41:24Z</time></trkpt>
<trkpt lat="26.204724" lon="100.155489">
<time>2016-10-07T06:41:25Z</time></trkpt>
<trkpt lat="26.204754" lon="100.155569">
<time>2016-10-07T06:41:26Z</time></trkpt>
<trkpt lat="26.204775" lon="100.155639">
<time>2016-10-07T06:41:27Z</time></trkpt>
<trkpt lat="26.204835" lon="100.155729">
<time>2016-10-07T06:41:28Z</time></trkpt>
<trkpt lat="26.205025" lon="100.15599">
<time>2016-10-07T06:41:29Z</time></trkpt>
<trkpt lat="26.205035" lon="100.15602">
<time>2016-10-07T06:41:30Z</time></trkpt>
<trkpt lat="26.205076" lon="100.15609">
<time>2016-10-07T06:41:31Z</time></trkpt>
<trkpt lat="26.205096" lon="100.15618">
<time>2016-10-07T06:41:32Z</time></trkpt>
<trkpt lat="26.205106" lon="100.15627">
<time>2016-10-07T06:41:33Z</time></trkpt>
<trkpt lat="26.205096" lon="100.156351">
<time>2016-10-07T06:41:34Z</time></trkpt>
<trkpt lat="26.205076" lon="100.156441">
<time>2016-10-07T06:41:35Z</time></trkpt>
<trkpt lat="26.205036" lon="100.156551">
<time>2016-10-07T06:41:36Z</time></trkpt>
<trkpt lat="26.204907" lon="100.156842">
<time>2016-10-07T06:41:37Z</time></trkpt>
<trkpt lat="26.204847" lon="100.157002">
<time>2016-10-07T06:41:38Z</time></trkpt>
<trkpt lat="26.204807" lon="100.157132">
<time>2016-10-07T06:41:39Z</time></trkpt>
<trkpt lat="26.204777" lon="100.157273">
<time>2016-10-07T06:41:40Z</time></trkpt>
<trkpt lat="26.204758" lon="100.157413">
<time>2016-10-07T06:41:41Z</time></trkpt>
<trkpt lat="26.204738" lon="100.157573">
<time>2016-10-07T06:41:42Z</time></trkpt>
<trkpt lat="26.204718" lon="100.157733">
<time>2016-10-07T06:41:43Z</time></trkpt>
<trkpt lat="26.204719" lon="100.157874">
<time>2016-10-07T06:41:44Z</time></trkpt>
<trkpt lat="26.204729" lon="100.157934">
<time>2016-10-07T06:41:45Z</time></trkpt>
<trkpt lat="26.204739" lon="100.158044">
<time>2016-10-07T06:41:46Z</time></trkpt>
<trkpt lat="26.204769" lon="100.158144">
<time>2016-10-07T06:41:47Z</time></trkpt>
<trkpt lat="26.204789" lon="100.158224">
<time>2016-10-07T06:41:48Z</time></trkpt>
<trkpt lat="26.204819" lon="100.158295">
<time>2016-10-07T06:41:49Z</time></trkpt>
<trkpt lat="26.20486" lon="100.158365">
<time>2016-10-07T06:41:50Z</time></trkpt>
<trkpt lat="26.20493" lon="100.158445">
<time>2016-10-07T06:41:51Z</time></trkpt>
<trkpt lat="26.20498" lon="100.158505">
<time>2016-10-07T06:41:52Z</time></trkpt>
<trkpt lat="26.20503" lon="100.158555">
<time>2016-10-07T06:41:53Z</time></trkpt>
<trkpt lat="26.2051" lon="100.158595">
<time>2016-10-07T06:41:54Z</time></trkpt>
<trkpt lat="26.20515" lon="100.158635">
<time>2016-10-07T06:41:55Z</time></trkpt>
<trkpt lat="26.20522" lon="100.158665">
<time>2016-10-07T06:41:56Z</time></trkpt>
<trkpt lat="26.20537" lon="100.158705">
<time>2016-10-07T06:41:57Z</time></trkpt>
<trkpt lat="26.205491" lon="100.158726">
<time>2016-10-07T06:41:58Z</time></trkpt>
<trkpt lat="26.205621" lon="100.158746">
<time>2016-10-07T06:41:59Z</time></trkpt>
<trkpt lat="26.205881" lon="100.158776">
<time>2016-10-07T06:42:00Z</time></trkpt>
<trkpt lat="26.206011" lon="100.158776">
<time>2016-10-07T06:42:01Z</time></trkpt>
<trkpt lat="26.206101" lon="100.158776">
<time>2016-10-07T06:42:02Z</time></trkpt>
<trkpt lat="26.206201" lon="100.158766">
<time>2016-10-07T06:42:03Z</time></trkpt>
<trkpt lat="26.206341" lon="100.158756">
<time>2016-10-07T06:42:04Z</time></trkpt>
<trkpt lat="26.206511" lon="100.158715">
<time>2016-10-07T06:42:05Z</time></trkpt>
<trkpt lat="26.206601" lon="100.158685">
<time>2016-10-07T06:42:06Z</time></trkpt>
<trkpt lat="26.206751" lon="100.158615">
<time>2016-10-07T06:42:07Z</time></trkpt>
<trkpt lat="26.206841" lon="100.158565">
<time>2016-10-07T06:42:08Z</time></trkpt>
<trkpt lat="26.206981" lon="100.158485">
<time>2016-10-07T06:42:09Z</time></trkpt>
<trkpt lat="26.207081" lon="100.158425">
<time>2016-10-07T06:42:10Z</time></trkpt>
<trkpt lat="26.207221" lon="100.158325">
<time>2016-10-07T06:42:11Z</time></trkpt>
<trkpt lat="26.207291" lon="100.158265">
<time>2016-10-07T06:42:12Z</time></trkpt>
<trkpt lat="26.207411" lon="100.158124">
<time>2016-10-07T06:42:13Z</time></trkpt>
<trkpt lat="26.20747" lon="100.158024">
<time>2016-10-07T06:42:14Z</time></trkpt>
<trkpt lat="26.20755" lon="100.157884">
<time>2016-10-07T06:42:15Z</time></trkpt>
<trkpt lat="26.20768" lon="100.157623">
<time>2016-10-07T06:42:16Z</time></trkpt>
<trkpt lat="26.20779" lon="100.157413">
<time>2016-10-07T06:42:17Z</time></trkpt>
<trkpt lat="26.207879" lon="100.157242">
<time>2016-10-07T06:42:18Z</time></trkpt>
<trkpt lat="26.207969" lon="100.157082">
<time>2016-10-07T06:42:19Z</time></trkpt>
<trkpt lat="26.207999" lon="100.157022">
<time>2016-10-07T06:42:20Z</time></trkpt>
<trkpt lat="26.208039" lon="100.156962">
<time>2016-10-07T06:42:21Z</time></trkpt>
<trkpt lat="26.208079" lon="100.156922">
<time>2016-10-07T06:42:22Z</time></trkpt>
<trkpt lat="26.208129" lon="100.156872">
<time>2016-10-07T06:42:23Z</time></trkpt>
<trkpt lat="26.208189" lon="100.156822">
<time>2016-10-07T06:42:24Z</time></trkpt>
<trkpt lat="26.208259" lon="100.156791">
<time>2016-10-07T06:42:25Z</time></trkpt>
<trkpt lat="26.208339" lon="100.156771">
<time>2016-10-07T06:42:26Z</time></trkpt>
<trkpt lat="26.208389" lon="100.156771">
<time>2016-10-07T06:42:27Z</time></trkpt>
<trkpt lat="26.208429" lon="100.156761">
<time>2016-10-07T06:42:28Z</time></trkpt>
<trkpt lat="26.208499" lon="100.156771">
<time>2016-10-07T06:42:29Z</time></trkpt>
<trkpt lat="26.208579" lon="100.156801">
<time>2016-10-07T06:42:30Z</time></trkpt>
<trkpt lat="26.208649" lon="100.156842">
<time>2016-10-07T06:42:31Z</time></trkpt>
<trkpt lat="26.208739" lon="100.156912">
<time>2016-10-07T06:42:32Z</time></trkpt>
<trkpt lat="26.208779" lon="100.156962">
<time>2016-10-07T06:42:33Z</time></trkpt>
<trkpt lat="26.20882" lon="100.157042">
<time>2016-10-07T06:42:34Z</time></trkpt>
<trkpt lat="26.20885" lon="100.157102">
<time>2016-10-07T06:42:35Z</time></trkpt>
<trkpt lat="26.20889" lon="100.157202">
<time>2016-10-07T06:42:36Z</time></trkpt>
<trkpt lat="26.20891" lon="100.157292">
<time>2016-10-07T06:42:37Z</time></trkpt>
<trkpt lat="26.20895" lon="100.157483">
<time>2016-10-07T06:42:38Z</time></trkpt>
<trkpt lat="26.209031" lon="100.157804">
<time>2016-10-07T06:42:39Z</time></trkpt>
<trkpt lat="26.209092" lon="100.158074">
<time>2016-10-07T06:42:40Z</time></trkpt>
<trkpt lat="26.209172" lon="100.158435">
<time>2016-10-07T06:42:41Z</time></trkpt>
<trkpt lat="26.209233" lon="100.158715">
<time>2016-10-07T06:42:42Z</time></trkpt>
<trkpt lat="26.209303" lon="100.158916">
<time>2016-10-07T06:42:43Z</time></trkpt>
<trkpt lat="26.209343" lon="100.158996">
<time>2016-10-07T06:42:44Z</time></trkpt>
<trkpt lat="26.209404" lon="100.159076">
<time>2016-10-07T06:42:45Z</time></trkpt>
<trkpt lat="26.209434" lon="100.159106">
<time>2016-10-07T06:42:46Z</time></trkpt>
<trkpt lat="26.209494" lon="100.159156">
<time>2016-10-07T06:42:47Z</time></trkpt>
<trkpt lat="26.209574" lon="100.159196">
<time>2016-10-07T06:42:48Z</time></trkpt>
<trkpt lat="26.209694" lon="100.159246">
<time>2016-10-07T06:42:49Z</time></trkpt>
<trkpt lat="26.209774" lon="100.159277">
<time>2016-10-07T06:42:50Z</time></trkpt>
<trkpt lat="26.209904" lon="100.159317">
<time>2016-10-07T06:42:51Z</time></trkpt>
<trkpt lat="26.210135" lon="100.159367">
<time>2016-10-07T06:42:52Z</time></trkpt>
<trkpt lat="26.210345" lon="100.159397">
<time>2016-10-07T06:42:53Z</time></trkpt>
<trkpt lat="26.210565" lon="100.159427">
<time>2016-10-07T06:42:54Z</time></trkpt>
<trkpt lat="26.210785" lon="100.159457">
<time>2016-10-07T06:42:55Z</time></trkpt>
<trkpt lat="26.211075" lon="100.159497">
<time>2016-10-07T06:42:56Z</time></trkpt>
<trkpt lat="26.211376" lon="100.159557">
<time>2016-10-07T06:42:57Z</time></trkpt>
<trkpt lat="26.211726" lon="100.159617">
<time>2016-10-07T06:42:58Z</time></trkpt>
<trkpt lat="26.211866" lon="100.159627">
<time>2016-10-07T06:42:59Z</time></trkpt>
<trkpt lat="26.212096" lon="100.159647">
<time>2016-10-07T06:43:00Z</time></trkpt>
<trkpt lat="26.212266" lon="100.159647">
<time>2016-10-07T06:43:01Z</time></trkpt>
<trkpt lat="26.212466" lon="100.159637">
<time>2016-10-07T06:43:02Z</time></trkpt>
<trkpt lat="26.212787" lon="100.159607">
<time>2016-10-07T06:43:03Z</time></trkpt>
<trkpt lat="26.212917" lon="100.159587">
<time>2016-10-07T06:43:04Z</time></trkpt>
<trkpt lat="26.212937" lon="100.159577">
<time>2016-10-07T06:43:05Z</time></trkpt>
<trkpt lat="26.213097" lon="100.159547">
<time>2016-10-07T06:43:06Z</time></trkpt>
<trkpt lat="26.213257" lon="100.159507">
<time>2016-10-07T06:43:07Z</time></trkpt>
<trkpt lat="26.213367" lon="100.159487">
<time>2016-10-07T06:43:08Z</time></trkpt>
<trkpt lat="26.213407" lon="100.159467">
<time>2016-10-07T06:43:09Z</time></trkpt>
<trkpt lat="26.213707" lon="100.159377">
<time>2016-10-07T06:43:10Z</time></trkpt>
<trkpt lat="26.213867" lon="100.159327">
<time>2016-10-07T06:43:11Z</time></trkpt>
<trkpt lat="26.213997" lon="100.159296">
<time>2016-10-07T06:43:12Z</time></trkpt>
<trkpt lat="26.214147" lon="100.159276">
<time>2016-10-07T06:43:13Z</time></trkpt>
<trkpt lat="26.214287" lon="100.159266">
<time>2016-10-07T06:43:14Z</time></trkpt>
<trkpt lat="26.214437" lon="100.159266">
<time>2016-10-07T06:43:15Z</time></trkpt>
<trkpt lat="26.214527" lon="100.159266">
<time>2016-10-07T06:43:16Z</time></trkpt>
<trkpt lat="26.214597" lon="100.159276">
<time>2016-10-07T06:43:17Z</time></trkpt>
<trkpt lat="26.214717" lon="100.159296">
<time>2016-10-07T06:43:18Z</time></trkpt>
<trkpt lat="26.214787" lon="100.159306">
<time>2016-10-07T06:43:19Z</time></trkpt>
<trkpt lat="26.214837" lon="100.159316">
<time>2016-10-07T06:43:20Z</time></trkpt>
<trkpt lat="26.215027" lon="100.159377">
<time>2016-10-07T06:43:21Z</time></trkpt>
<trkpt lat="26.215178" lon="100.159427">
<time>2016-10-07T06:43:22Z</time></trkpt>
<trkpt lat="26.215498" lon="100.159537">
<time>2016-10-07T06:43:23Z</time></trkpt>
<trkpt lat="26.215788" lon="100.159637">
<time>2016-10-07T06:43:24Z</time></trkpt>
<trkpt lat="26.216119" lon="100.159747">
<time>2016-10-07T06:43:25Z</time></trkpt>
<trkpt lat="26.216249" lon="100.159787">
<time>2016-10-07T06:43:26Z</time></trkpt>
<trkpt lat="26.216469" lon="100.159858">
<time>2016-10-07T06:43:27Z</time></trkpt>
<trkpt lat="26.21679" lon="100.159968">
<time>2016-10-07T06:43:28Z</time></trkpt>
<trkpt lat="26.21713" lon="100.160068">
<time>2016-10-07T06:43:29Z</time></trkpt>
<trkpt lat="26.21749" lon="100.160178">
<time>2016-10-07T06:43:30Z</time></trkpt>
<trkpt lat="26.217841" lon="100.160288">
<time>2016-10-07T06:43:31Z</time></trkpt>
<trkpt lat="26.218171" lon="100.160389">
<time>2016-10-07T06:43:32Z</time></trkpt>
<trkpt lat="26.218502" lon="100.160479">
<time>2016-10-07T06:43:33Z</time></trkpt>
<trkpt lat="26.218852" lon="100.160579">
<time>2016-10-07T06:43:34Z</time></trkpt>
<trkpt lat="26.219182" lon="100.160669">
<time>2016-10-07T06:43:35Z</time></trkpt>
<trkpt lat="26.219353" lon="100.160729">
<time>2016-10-07T06:43:36Z</time></trkpt>
<trkpt lat="26.219503" lon="100.160769">
<time>2016-10-07T06:43:37Z</time></trkpt>
<trkpt lat="26.219593" lon="100.160809">
<time>2016-10-07T06:43:38Z</time></trkpt>
<trkpt lat="26.219673" lon="100.16084">
<time>2016-10-07T06:43:39Z</time></trkpt>
<trkpt lat="26.219823" lon="100.1609">
<time>2016-10-07T06:43:40Z</time></trkpt>
<trkpt lat="26.219963" lon="100.16096">
<time>2016-10-07T06:43:41Z</time></trkpt>
<trkpt lat="26.220094" lon="100.16103">
<time>2016-10-07T06:43:42Z</time></trkpt>
<trkpt lat="26.220254" lon="100.16112">
<time>2016-10-07T06:43:43Z</time></trkpt>
<trkpt lat="26.220354" lon="100.16118">
<time>2016-10-07T06:43:44Z</time></trkpt>
<trkpt lat="26.220484" lon="100.16126">
<time>2016-10-07T06:43:45Z</time></trkpt>
<trkpt lat="26.220624" lon="100.161361">
<time>2016-10-07T06:43:46Z</time></trkpt>
<trkpt lat="26.220735" lon="100.161431">
<time>2016-10-07T06:43:47Z</time></trkpt>
<trkpt lat="26.220875" lon="100.161541">
<time>2016-10-07T06:43:48Z</time></trkpt>
<trkpt lat="26.221125" lon="100.161721">
<time>2016-10-07T06:43:49Z</time></trkpt>
<trkpt lat="26.221356" lon="100.161882">
<time>2016-10-07T06:43:50Z</time></trkpt>
<trkpt lat="26.221586" lon="100.162042">
<time>2016-10-07T06:43:51Z</time></trkpt>
<trkpt lat="26.221687" lon="100.162112">
<time>2016-10-07T06:43:52Z</time></trkpt>
<trkpt lat="26.221817" lon="100.162192">
<time>2016-10-07T06:43:53Z</time></trkpt>
<trkpt lat="26.221957" lon="100.162272">
<time>2016-10-07T06:43:54Z</time></trkpt>
<trkpt lat="26.222137" lon="100.162363">
<time>2016-10-07T06:43:55Z</time></trkpt>
<trkpt lat="26.222368" lon="100.162453">
<time>2016-10-07T06:43:56Z</time></trkpt>
<trkpt lat="26.222478" lon="100.162483">
<time>2016-10-07T06:43:57Z</time></trkpt>
<trkpt lat="26.222608" lon="100.162513">
<time>2016-10-07T06:43:58Z</time></trkpt>
<trkpt lat="26.222788" lon="100.162553">
<time>2016-10-07T06:43:59Z</time></trkpt>
<trkpt lat="26.223028" lon="100.162593">
<time>2016-10-07T06:44:00Z</time></trkpt>
<trkpt lat="26.223248" lon="100.162633">
<time>2016-10-07T06:44:01Z</time></trkpt>
<trkpt lat="26.223449" lon="100.162663">
<time>2016-10-07T06:44:02Z</time></trkpt>
<trkpt lat="26.223659" lon="100.162693">
<time>2016-10-07T06:44:03Z</time></trkpt>
<trkpt lat="26.223919" lon="100.162733">
<time>2016-10-07T06:44:04Z</time></trkpt>
<trkpt lat="26.224039" lon="100.162763">
<time>2016-10-07T06:44:05Z</time></trkpt>
<trkpt lat="26.224119" lon="100.162783">
<time>2016-10-07T06:44:06Z</time></trkpt>
<trkpt lat="26.224219" lon="100.162824">
<time>2016-10-07T06:44:07Z</time></trkpt>
<trkpt lat="26.224319" lon="100.162874">
<time>2016-10-07T06:44:08Z</time></trkpt>
<trkpt lat="26.22438" lon="100.162924">
<time>2016-10-07T06:44:09Z</time></trkpt>
<trkpt lat="26.22444" lon="100.162994">
<time>2016-10-07T06:44:10Z</time></trkpt>
<trkpt lat="26.22449" lon="100.163064">
<time>2016-10-07T06:44:11Z</time></trkpt>
<trkpt lat="26.22452" lon="100.163114">
<time>2016-10-07T06:44:12Z</time></trkpt>
<trkpt lat="26.22454" lon="100.163174">
<time>2016-10-07T06:44:13Z</time></trkpt>
<trkpt lat="26.22457" lon="100.163264">
<time>2016-10-07T06:44:14Z</time></trkpt>
<trkpt lat="26.22458" lon="100.163325">
<time>2016-10-07T06:44:15Z</time></trkpt>
<trkpt lat="26.224601" lon="100.163395">
<time>2016-10-07T06:44:16Z</time></trkpt>
<trkpt lat="26.224621" lon="100.163525">
<time>2016-10-07T06:44:17Z</time></trkpt>
<trkpt lat="26.224641" lon="100.163675">
<time>2016-10-07T06:44:18Z</time></trkpt>
<trkpt lat="26.224681" lon="100.163826">
<time>2016-10-07T06:44:19Z</time></trkpt>
<trkpt lat="26.224692" lon="100.163886">
<time>2016-10-07T06:44:20Z</time></trkpt>
<trkpt lat="26.224732" lon="100.163986">
<time>2016-10-07T06:44:21Z</time></trkpt>
<trkpt lat="26.224772" lon="100.164076">
<time>2016-10-07T06:44:22Z</time></trkpt>
<trkpt lat="26.224812" lon="100.164136">
<time>2016-10-07T06:44:23Z</time></trkpt>
<trkpt lat="26.224862" lon="100.164216">
<time>2016-10-07T06:44:24Z</time></trkpt>
<trkpt lat="26.224912" lon="100.164277">
<time>2016-10-07T06:44:25Z</time></trkpt>
<trkpt lat="26.224973" lon="100.164337">
<time>2016-10-07T06:44:26Z</time></trkpt>
<trkpt lat="26.225033" lon="100.164397">
<time>2016-10-07T06:44:27Z</time></trkpt>
<trkpt lat="26.225133" lon="100.164467">
<time>2016-10-07T06:44:28Z</time></trkpt>
<trkpt lat="26.225263" lon="100.164537">
<time>2016-10-07T06:44:29Z</time></trkpt>
<trkpt lat="26.225393" lon="100.164587">
<time>2016-10-07T06:44:30Z</time></trkpt>
<trkpt lat="26.225483" lon="100.164607">
<time>2016-10-07T06:44:31Z</time></trkpt>
<trkpt lat="26.225533" lon="100.164617">
<time>2016-10-07T06:44:32Z</time></trkpt>
<trkpt lat="26.225603" lon="100.164617">
<time>2016-10-07T06:44:33Z</time></trkpt>
<trkpt lat="26.225694" lon="100.164597">
<time>2016-10-07T06:44:34Z</time></trkpt>
<trkpt lat="26.225783" lon="100.164557">
<time>2016-10-07T06:44:35Z</time></trkpt>
<trkpt lat="26.225833" lon="100.164537">
<time>2016-10-07T06:44:36Z</time></trkpt>
<trkpt lat="26.225933" lon="100.164507">
<time>2016-10-07T06:44:37Z</time></trkpt>
<trkpt lat="26.226043" lon="100.164457">
<time>2016-10-07T06:44:38Z</time></trkpt>
<trkpt lat="26.226213" lon="100.164347">
<time>2016-10-07T06:44:39Z</time></trkpt>
<trkpt lat="26.226393" lon="100.164196">
<time>2016-10-07T06:44:40Z</time></trkpt>
<trkpt lat="26.226593" lon="100.164026">
<time>2016-10-07T06:44:41Z</time></trkpt>
<trkpt lat="26.226743" lon="100.163906">
<time>2016-10-07T06:44:42Z</time></trkpt>
<trkpt lat="26.226913" lon="100.163765">
<time>2016-10-07T06:44:43Z</time></trkpt>
<trkpt lat="26.227053" lon="100.163645">
<time>2016-10-07T06:44:44Z</time></trkpt>
<trkpt lat="26.227122" lon="100.163585">
<time>2016-10-07T06:44:45Z</time></trkpt>
<trkpt lat="26.227212" lon="100.163485">
<time>2016-10-07T06:44:46Z</time></trkpt>
<trkpt lat="26.227272" lon="100.163405">
<time>2016-10-07T06:44:47Z</time></trkpt>
<trkpt lat="26.227352" lon="100.163304">
<time>2016-10-07T06:44:48Z</time></trkpt>
<trkpt lat="26.227392" lon="100.163204">
<time>2016-10-07T06:44:49Z</time></trkpt>
<trkpt lat="26.227452" lon="100.163094">
<time>2016-10-07T06:44:50Z</time></trkpt>
<trkpt lat="26.227482" lon="100.163014">
<time>2016-10-07T06:44:51Z</time></trkpt>
<trkpt lat="26.227511" lon="100.162884">
<time>2016-10-07T06:44:52Z</time></trkpt>
<trkpt lat="26.227551" lon="100.162753">
<time>2016-10-07T06:44:53Z</time></trkpt>
<trkpt lat="26.227571" lon="100.162643">
<time>2016-10-07T06:44:54Z</time></trkpt>
<trkpt lat="26.227601" lon="100.162503">
<time>2016-10-07T06:44:55Z</time></trkpt>
<trkpt lat="26.227641" lon="100.162403">
<time>2016-10-07T06:44:56Z</time></trkpt>
<trkpt lat="26.22769" lon="100.162322">
<time>2016-10-07T06:44:57Z</time></trkpt>
<trkpt lat="26.22775" lon="100.162262">
<time>2016-10-07T06:44:58Z</time></trkpt>
<trkpt lat="26.22783" lon="100.162212">
<time>2016-10-07T06:44:59Z</time></trkpt>
<trkpt lat="26.22791" lon="100.162212">
<time>2016-10-07T06:45:00Z</time></trkpt>
<trkpt lat="26.22799" lon="100.162232">
<time>2016-10-07T06:45:01Z</time></trkpt>
<trkpt lat="26.22802" lon="100.162242">
<time>2016-10-07T06:45:02Z</time></trkpt>
<trkpt lat="26.228081" lon="100.162272">
<time>2016-10-07T06:45:03Z</time></trkpt>
<trkpt lat="26.228141" lon="100.162312">
<time>2016-10-07T06:45:04Z</time></trkpt>
<trkpt lat="26.228191" lon="100.162383">
<time>2016-10-07T06:45:05Z</time></trkpt>
<trkpt lat="26.228221" lon="100.162473">
<time>2016-10-07T06:45:06Z</time></trkpt>
<trkpt lat="26.228251" lon="100.162573">
<time>2016-10-07T06:45:07Z</time></trkpt>
<trkpt lat="26.228271" lon="100.162673">
<time>2016-10-07T06:45:08Z</time></trkpt>
<trkpt lat="26.228332" lon="100.162843">
<time>2016-10-07T06:45:09Z</time></trkpt>
<trkpt lat="26.228382" lon="100.162924">
<time>2016-10-07T06:45:10Z</time></trkpt>
<trkpt lat="26.228452" lon="100.163004">
<time>2016-10-07T06:45:11Z</time></trkpt>
<trkpt lat="26.228522" lon="100.163054">
<time>2016-10-07T06:45:12Z</time></trkpt>
<trkpt lat="26.228602" lon="100.163084">
<time>2016-10-07T06:45:13Z</time></trkpt>
<trkpt lat="26.228692" lon="100.163084">
<time>2016-10-07T06:45:14Z</time></trkpt>
<trkpt lat="26.228782" lon="100.163064">
<time>2016-10-07T06:45:15Z</time></trkpt>
<trkpt lat="26.228872" lon="100.163024">
<time>2016-10-07T06:45:16Z</time></trkpt>
<trkpt lat="26.228972" lon="100.162964">
<time>2016-10-07T06:45:17Z</time></trkpt>
<trkpt lat="26.229122" lon="100.162843">
<time>2016-10-07T06:45:18Z</time></trkpt>
<trkpt lat="26.229332" lon="100.162663">
<time>2016-10-07T06:45:19Z</time></trkpt>
<trkpt lat="26.229532" lon="100.162493">
<time>2016-10-07T06:45:20Z</time></trkpt>
<trkpt lat="26.229752" lon="100.162312">
<time>2016-10-07T06:45:21Z</time></trkpt>
<trkpt lat="26.229822" lon="100.162242">
<time>2016-10-07T06:45:22Z</time></trkpt>
<trkpt lat="26.229931" lon="100.162142">
<time>2016-10-07T06:45:23Z</time></trkpt>
<trkpt lat="26.230021" lon="100.162032">
<time>2016-10-07T06:45:24Z</time></trkpt>
<trkpt lat="26.230101" lon="100.161942">
<time>2016-10-07T06:45:25Z</time></trkpt>
<trkpt lat="26.230231" lon="100.161771">
<time>2016-10-07T06:45:26Z</time></trkpt>
<trkpt lat="26.230321" lon="100.161651">
<time>2016-10-07T06:45:27Z</time></trkpt>
<trkpt lat="26.230361" lon="100.161591">
<time>2016-10-07T06:45:28Z</time></trkpt>
<trkpt lat="26.23071" lon="100.16127">
<time>2016-10-07T06:45:29Z</time></trkpt>
<trkpt lat="26.2308" lon="100.16123">
<time>2016-10-07T06:45:30Z</time></trkpt>
<trkpt lat="26.23088" lon="100.16121">
<time>2016-10-07T06:45:31Z</time></trkpt>
<trkpt lat="26.23096" lon="100.1612">
<time>2016-10-07T06:45:32Z</time></trkpt>
<trkpt lat="26.23101" lon="100.1612">
<time>2016-10-07T06:45:33Z</time></trkpt>
<trkpt lat="26.23106" lon="100.16121">
<time>2016-10-07T06:45:34Z</time></trkpt>
<trkpt lat="26.23112" lon="100.16122">
<time>2016-10-07T06:45:35Z</time></trkpt>
<trkpt lat="26.23119" lon="100.16125">
<time>2016-10-07T06:45:36Z</time></trkpt>
<trkpt lat="26.231271" lon="100.16128">
<time>2016-10-07T06:45:37Z</time></trkpt>
<trkpt lat="26.231351" lon="100.16133">
<time>2016-10-07T06:45:38Z</time></trkpt>
<trkpt lat="26.231441" lon="100.1614">
<time>2016-10-07T06:45:39Z</time></trkpt>
<trkpt lat="26.231631" lon="100.161511">
<time>2016-10-07T06:45:40Z</time></trkpt>
<trkpt lat="26.231782" lon="100.161631">
<time>2016-10-07T06:45:41Z</time></trkpt>
<trkpt lat="26.231992" lon="100.161801">
<time>2016-10-07T06:45:42Z</time></trkpt>
<trkpt lat="26.232192" lon="100.161962">
<time>2016-10-07T06:45:43Z</time></trkpt>
<trkpt lat="26.232413" lon="100.162152">
<time>2016-10-07T06:45:44Z</time></trkpt>
<trkpt lat="26.232553" lon="100.162272">
<time>2016-10-07T06:45:45Z</time></trkpt>
<trkpt lat="26.232603" lon="100.162322">
<time>2016-10-07T06:45:46Z</time></trkpt>
<trkpt lat="26.232673" lon="100.162392">
<time>2016-10-07T06:45:47Z</time></trkpt>
<trkpt lat="26.232744" lon="100.162493">
<time>2016-10-07T06:45:48Z</time></trkpt>
<trkpt lat="26.232774" lon="100.162533">
<time>2016-10-07T06:45:49Z</time></trkpt>
<trkpt lat="26.232804" lon="100.162603">
<time>2016-10-07T06:45:50Z</time></trkpt>
<trkpt lat="26.232834" lon="100.162683">
<time>2016-10-07T06:45:51Z</time></trkpt>
<trkpt lat="26.232844" lon="100.162763">
<time>2016-10-07T06:45:52Z</time></trkpt>
<trkpt lat="26.232854" lon="100.162873">
<time>2016-10-07T06:45:53Z</time></trkpt>
<trkpt lat="26.232835" lon="100.162994">
<time>2016-10-07T06:45:54Z</time></trkpt>
<trkpt lat="26.232825" lon="100.163054">
<time>2016-10-07T06:45:55Z</time></trkpt>
<trkpt lat="26.232805" lon="100.163124">
<time>2016-10-07T06:45:56Z</time></trkpt>
<trkpt lat="26.232725" lon="100.163425">
<time>2016-10-07T06:45:57Z</time></trkpt>
<trkpt lat="26.232656" lon="100.163645">
<time>2016-10-07T06:45:58Z</time></trkpt>
<trkpt lat="26.232576" lon="100.163886">
<time>2016-10-07T06:45:59Z</time></trkpt>
<trkpt lat="26.232527" lon="100.164066">
<time>2016-10-07T06:46:00Z</time></trkpt>
<trkpt lat="26.232467" lon="100.164246">
<time>2016-10-07T06:46:01Z</time></trkpt>
<trkpt lat="26.232397" lon="100.164507">
<time>2016-10-07T06:46:02Z</time></trkpt>
<trkpt lat="26.232377" lon="100.164607">
<time>2016-10-07T06:46:03Z</time></trkpt>
<trkpt lat="26.232368" lon="100.164707">
<time>2016-10-07T06:46:04Z</time></trkpt>
<trkpt lat="26.232368" lon="100.164807">
<time>2016-10-07T06:46:05Z</time></trkpt>
<trkpt lat="26.232368" lon="100.164928">
<time>2016-10-07T06:46:06Z</time></trkpt>
<trkpt lat="26.232388" lon="100.165048">
<time>2016-10-07T06:46:07Z</time></trkpt>
<trkpt lat="26.232418" lon="100.165158">
<time>2016-10-07T06:46:08Z</time></trkpt>
<trkpt lat="26.232449" lon="100.165238">
<time>2016-10-07T06:46:09Z</time></trkpt>
<trkpt lat="26.232499" lon="100.165329">
<time>2016-10-07T06:46:10Z</time></trkpt>
<trkpt lat="26.232549" lon="100.165409">
<time>2016-10-07T06:46:11Z</time></trkpt>
<trkpt lat="26.232599" lon="100.165479">
<time>2016-10-07T06:46:12Z</time></trkpt>
<trkpt lat="26.232679" lon="100.165569">
<time>2016-10-07T06:46:13Z</time></trkpt>
<trkpt lat="26.23275" lon="100.165629">
<time>2016-10-07T06:46:14Z</time></trkpt>
<trkpt lat="26.23282" lon="100.165679">
<time>2016-10-07T06:46:15Z</time></trkpt>
<trkpt lat="26.23291" lon="100.165729">
<time>2016-10-07T06:46:16Z</time></trkpt>
<trkpt lat="26.23307" lon="100.16581">
<time>2016-10-07T06:46:17Z</time></trkpt>
<trkpt lat="26.23329" lon="100.16591">
<time>2016-10-07T06:46:18Z</time></trkpt>
<trkpt lat="26.233551" lon="100.16602">
<time>2016-10-07T06:46:19Z</time></trkpt>
<trkpt lat="26.233851" lon="100.16615">
<time>2016-10-07T06:46:20Z</time></trkpt>
<trkpt lat="26.234142" lon="100.166281">
<time>2016-10-07T06:46:21Z</time></trkpt>
<trkpt lat="26.234332" lon="100.166371">
<time>2016-10-07T06:46:22Z</time></trkpt>
<trkpt lat="26.234562" lon="100.166471">
<time>2016-10-07T06:46:23Z</time></trkpt>
<trkpt lat="26.234803" lon="100.166591">
<time>2016-10-07T06:46:24Z</time></trkpt>
<trkpt lat="26.235053" lon="100.166701">
<time>2016-10-07T06:46:25Z</time></trkpt>
<trkpt lat="26.235273" lon="100.166812">
<time>2016-10-07T06:46:26Z</time></trkpt>
<trkpt lat="26.235484" lon="100.166912">
<time>2016-10-07T06:46:27Z</time></trkpt>
<trkpt lat="26.235694" lon="100.167022">
<time>2016-10-07T06:46:28Z</time></trkpt>
<trkpt lat="26.235954" lon="100.167142">
<time>2016-10-07T06:46:29Z</time></trkpt>
<trkpt lat="26.236155" lon="100.167253">
<time>2016-10-07T06:46:30Z</time></trkpt>
<trkpt lat="26.236365" lon="100.167353">
<time>2016-10-07T06:46:31Z</time></trkpt>
<trkpt lat="26.236575" lon="100.167463">
<time>2016-10-07T06:46:32Z</time></trkpt>
<trkpt lat="26.236806" lon="100.167593">
<time>2016-10-07T06:46:33Z</time></trkpt>
<trkpt lat="26.237026" lon="100.167673">
<time>2016-10-07T06:46:34Z</time></trkpt>
<trkpt lat="26.237156" lon="100.167734">
<time>2016-10-07T06:46:35Z</time></trkpt>
<trkpt lat="26.237276" lon="100.167784">
<time>2016-10-07T06:46:36Z</time></trkpt>
<trkpt lat="26.237456" lon="100.167844">
<time>2016-10-07T06:46:37Z</time></trkpt>
<trkpt lat="26.237577" lon="100.167874">
<time>2016-10-07T06:46:38Z</time></trkpt>
<trkpt lat="26.237707" lon="100.167904">
<time>2016-10-07T06:46:39Z</time></trkpt>
<trkpt lat="26.237797" lon="100.167914">
<time>2016-10-07T06:46:40Z</time></trkpt>
<trkpt lat="26.237937" lon="100.167924">
<time>2016-10-07T06:46:41Z</time></trkpt>
<trkpt lat="26.238117" lon="100.167924">
<time>2016-10-07T06:46:42Z</time></trkpt>
<trkpt lat="26.238337" lon="100.167924">
<time>2016-10-07T06:46:43Z</time></trkpt>
<trkpt lat="26.238417" lon="100.167914">
<time>2016-10-07T06:46:44Z</time></trkpt>
<trkpt lat="26.238517" lon="100.167904">
<time>2016-10-07T06:46:45Z</time></trkpt>
<trkpt lat="26.238607" lon="100.167884">
<time>2016-10-07T06:46:46Z</time></trkpt>
<trkpt lat="26.238667" lon="100.167864">
<time>2016-10-07T06:46:47Z</time></trkpt>
<trkpt lat="26.238717" lon="100.167844">
<time>2016-10-07T06:46:48Z</time></trkpt>
<trkpt lat="26.238767" lon="100.167814">
<time>2016-10-07T06:46:49Z</time></trkpt>
<trkpt lat="26.238817" lon="100.167774">
<time>2016-10-07T06:46:50Z</time></trkpt>
<trkpt lat="26.238857" lon="100.167733">
<time>2016-10-07T06:46:51Z</time></trkpt>
<trkpt lat="26.238897" lon="100.167673">
<time>2016-10-07T06:46:52Z</time></trkpt>
<trkpt lat="26.238947" lon="100.167603">
<time>2016-10-07T06:46:53Z</time></trkpt>
<trkpt lat="26.238987" lon="100.167483">
<time>2016-10-07T06:46:54Z</time></trkpt>
<trkpt lat="26.239016" lon="100.167383">
<time>2016-10-07T06:46:55Z</time></trkpt>
<trkpt lat="26.239026" lon="100.167273">
<time>2016-10-07T06:46:56Z</time></trkpt>
<trkpt lat="26.239046" lon="100.167092">
<time>2016-10-07T06:46:57Z</time></trkpt>
<trkpt lat="26.239066" lon="100.166992">
<time>2016-10-07T06:46:58Z</time></trkpt>
<trkpt lat="26.239096" lon="100.166902">
<time>2016-10-07T06:46:59Z</time></trkpt>
<trkpt lat="26.239146" lon="100.166822">
<time>2016-10-07T06:47:00Z</time></trkpt>
<trkpt lat="26.239205" lon="100.166761">
<time>2016-10-07T06:47:01Z</time></trkpt>
<trkpt lat="26.239285" lon="100.166721">
<time>2016-10-07T06:47:02Z</time></trkpt>
<trkpt lat="26.239365" lon="100.166711">
<time>2016-10-07T06:47:03Z</time></trkpt>
<trkpt lat="26.239445" lon="100.166721">
<time>2016-10-07T06:47:04Z</time></trkpt>
<trkpt lat="26.239526" lon="100.166771">
<time>2016-10-07T06:47:05Z</time></trkpt>
<trkpt lat="26.239586" lon="100.166832">
<time>2016-10-07T06:47:06Z</time></trkpt>
<trkpt lat="26.239616" lon="100.166872">
<time>2016-10-07T06:47:07Z</time></trkpt>
<trkpt lat="26.239646" lon="100.166932">
<time>2016-10-07T06:47:08Z</time></trkpt>
<trkpt lat="26.239676" lon="100.167022">
<time>2016-10-07T06:47:09Z</time></trkpt>
<trkpt lat="26.239706" lon="100.167122">
<time>2016-10-07T06:47:10Z</time></trkpt>
<trkpt lat="26.239747" lon="100.167323">
<time>2016-10-07T06:47:11Z</time></trkpt>
<trkpt lat="26.239777" lon="100.167453">
<time>2016-10-07T06:47:12Z</time></trkpt>
<trkpt lat="26.239797" lon="100.167573">
<time>2016-10-07T06:47:13Z</time></trkpt>
<trkpt lat="26.239838" lon="100.167764">
<time>2016-10-07T06:47:14Z</time></trkpt>
<trkpt lat="26.239868" lon="100.167954">
<time>2016-10-07T06:47:15Z</time></trkpt>
<trkpt lat="26.239898" lon="100.168174">
<time>2016-10-07T06:47:16Z</time></trkpt>
<trkpt lat="26.239929" lon="100.168385">
<time>2016-10-07T06:47:17Z</time></trkpt>
<trkpt lat="26.239959" lon="100.168585">
<time>2016-10-07T06:47:18Z</time></trkpt>
<trkpt lat="26.23998" lon="100.168806">
<time>2016-10-07T06:47:19Z</time></trkpt>
<trkpt lat="26.23998" lon="100.168926">
<time>2016-10-07T06:47:20Z</time></trkpt>
<trkpt lat="26.23999" lon="100.169036">
<time>2016-10-07T06:47:21Z</time></trkpt>
<trkpt lat="26.23998" lon="100.169136">
<time>2016-10-07T06:47:22Z</time></trkpt>
<trkpt lat="26.239981" lon="100.169237">
<time>2016-10-07T06:47:23Z</time></trkpt>
<trkpt lat="26.239971" lon="100.169477">
<time>2016-10-07T06:47:24Z</time></trkpt>
<trkpt lat="26.239971" lon="100.169658">
<time>2016-10-07T06:47:25Z</time></trkpt>
<trkpt lat="26.239972" lon="100.169838">
<time>2016-10-07T06:47:26Z</time></trkpt>
<trkpt lat="26.239962" lon="100.170048">
<time>2016-10-07T06:47:27Z</time></trkpt>
<trkpt lat="26.239962" lon="100.170149">
<time>2016-10-07T06:47:28Z</time></trkpt>
<trkpt lat="26.239972" lon="100.170259">
<time>2016-10-07T06:47:29Z</time></trkpt>
<trkpt lat="26.239983" lon="100.170319">
<time>2016-10-07T06:47:30Z</time></trkpt>
<trkpt lat="26.240003" lon="100.170389">
<time>2016-10-07T06:47:31Z</time></trkpt>
<trkpt lat="26.240023" lon="100.170449">
<time>2016-10-07T06:47:32Z</time></trkpt>
<trkpt lat="26.240053" lon="100.170509">
<time>2016-10-07T06:47:33Z</time></trkpt>
<trkpt lat="26.240103" lon="100.170579">
<time>2016-10-07T06:47:34Z</time></trkpt>
<trkpt lat="26.240153" lon="100.17062">
<time>2016-10-07T06:47:35Z</time></trkpt>
<trkpt lat="26.240213" lon="100.17067">
<time>2016-10-07T06:47:36Z</time></trkpt>
<trkpt lat="26.240263" lon="100.17069">
<time>2016-10-07T06:47:37Z</time></trkpt>
<trkpt lat="26.240313" lon="100.1707">
<time>2016-10-07T06:47:38Z</time></trkpt>
<trkpt lat="26.240374" lon="100.17071">
<time>2016-10-07T06:47:39Z</time></trkpt>
<trkpt lat="26.240414" lon="100.17071">
<time>2016-10-07T06:47:40Z</time></trkpt>
<trkpt lat="26.240474" lon="100.17071">
<time>2016-10-07T06:47:41Z</time></trkpt>
<trkpt lat="26.240574" lon="100.17068">
<time>2016-10-07T06:47:42Z</time></trkpt>
<trkpt lat="26.240684" lon="100.17062">
<time>2016-10-07T06:47:43Z</time></trkpt>
<trkpt lat="26.240743" lon="100.170569">
<time>2016-10-07T06:47:44Z</time></trkpt>
<trkpt lat="26.240833" lon="100.170509">
<time>2016-10-07T06:47:45Z</time></trkpt>
<trkpt lat="26.240953" lon="100.170389">
<time>2016-10-07T06:47:46Z</time></trkpt>
<trkpt lat="26.241103" lon="100.170249">
<time>2016-10-07T06:47:47Z</time></trkpt>
<trkpt lat="26.241243" lon="100.170108">
<time>2016-10-07T06:47:48Z</time></trkpt>
<trkpt lat="26.241403" lon="100.169938">
<time>2016-10-07T06:47:49Z</time></trkpt>
<trkpt lat="26.241532" lon="100.169798">
<time>2016-10-07T06:47:50Z</time></trkpt>
<trkpt lat="26.241732" lon="100.169587">
<time>2016-10-07T06:47:51Z</time></trkpt>
<trkpt lat="26.241862" lon="100.169477">
<time>2016-10-07T06:47:52Z</time></trkpt>
<trkpt lat="26.241962" lon="100.169417">
<time>2016-10-07T06:47:53Z</time></trkpt>
<trkpt lat="26.242072" lon="100.169387">
<time>2016-10-07T06:47:54Z</time></trkpt>
<trkpt lat="26.242152" lon="100.169377">
<time>2016-10-07T06:47:55Z</time></trkpt>
<trkpt lat="26.242202" lon="100.169377">
<time>2016-10-07T06:47:56Z</time></trkpt>
<trkpt lat="26.242272" lon="100.169397">
<time>2016-10-07T06:47:57Z</time></trkpt>
<trkpt lat="26.242362" lon="100.169417">
<time>2016-10-07T06:47:58Z</time></trkpt>
<trkpt lat="26.242462" lon="100.169487">
<time>2016-10-07T06:47:59Z</time></trkpt>
<trkpt lat="26.242543" lon="100.169557">
<time>2016-10-07T06:48:00Z</time></trkpt>
<trkpt lat="26.242613" lon="100.169637">
<time>2016-10-07T06:48:01Z</time></trkpt>
<trkpt lat="26.242683" lon="100.169738">
<time>2016-10-07T06:48:02Z</time></trkpt>
<trkpt lat="26.242763" lon="100.169848">
<time>2016-10-07T06:48:03Z</time></trkpt>
<trkpt lat="26.242834" lon="100.169948">
<time>2016-10-07T06:48:04Z</time></trkpt>
<trkpt lat="26.242934" lon="100.170058">
<time>2016-10-07T06:48:05Z</time></trkpt>
<trkpt lat="26.242984" lon="100.170098">
<time>2016-10-07T06:48:06Z</time></trkpt>
<trkpt lat="26.243044" lon="100.170128">
<time>2016-10-07T06:48:07Z</time></trkpt>
<trkpt lat="26.243084" lon="100.170148">
<time>2016-10-07T06:48:08Z</time></trkpt>
<trkpt lat="26.243134" lon="100.170169">
<time>2016-10-07T06:48:09Z</time></trkpt>
<trkpt lat="26.243214" lon="100.170179">
<time>2016-10-07T06:48:10Z</time></trkpt>
<trkpt lat="26.243284" lon="100.170189">
<time>2016-10-07T06:48:11Z</time></trkpt>
<trkpt lat="26.243344" lon="100.170179">
<time>2016-10-07T06:48:12Z</time></trkpt>
<trkpt lat="26.243404" lon="100.170158">
<time>2016-10-07T06:48:13Z</time></trkpt>
<trkpt lat="26.243504" lon="100.170118">
<time>2016-10-07T06:48:14Z</time></trkpt>
<trkpt lat="26.243594" lon="100.170058">
<time>2016-10-07T06:48:15Z</time></trkpt>
<trkpt lat="26.243654" lon="100.169998">
<time>2016-10-07T06:48:16Z</time></trkpt>
<trkpt lat="26.243714" lon="100.169928">
<time>2016-10-07T06:48:17Z</time></trkpt>
<trkpt lat="26.243814" lon="100.169778">
<time>2016-10-07T06:48:18Z</time></trkpt>
<trkpt lat="26.243924" lon="100.169637">
<time>2016-10-07T06:48:19Z</time></trkpt>
<trkpt lat="26.243993" lon="100.169557">
<time>2016-10-07T06:48:20Z</time></trkpt>
<trkpt lat="26.244083" lon="100.169507">
<time>2016-10-07T06:48:21Z</time></trkpt>
<trkpt lat="26.244163" lon="100.169487">
<time>2016-10-07T06:48:22Z</time></trkpt>
<trkpt lat="26.244253" lon="100.169487">
<time>2016-10-07T06:48:23Z</time></trkpt>
<trkpt lat="26.244334" lon="100.169507">
<time>2016-10-07T06:48:24Z</time></trkpt>
<trkpt lat="26.244404" lon="100.169547">
<time>2016-10-07T06:48:25Z</time></trkpt>
<trkpt lat="26.244464" lon="100.169607">
<time>2016-10-07T06:48:26Z</time></trkpt>
<trkpt lat="26.244504" lon="100.169667">
<time>2016-10-07T06:48:27Z</time></trkpt>
<trkpt lat="26.244544" lon="100.169778">
<time>2016-10-07T06:48:28Z</time></trkpt>
<trkpt lat="26.244554" lon="100.169848">
<time>2016-10-07T06:48:29Z</time></trkpt>
<trkpt lat="26.244554" lon="100.169928">
<time>2016-10-07T06:48:30Z</time></trkpt>
<trkpt lat="26.244545" lon="100.170008">
<time>2016-10-07T06:48:31Z</time></trkpt>
<trkpt lat="26.244515" lon="100.170249">
<time>2016-10-07T06:48:32Z</time></trkpt>
<trkpt lat="26.244515" lon="100.170389">
<time>2016-10-07T06:48:33Z</time></trkpt>
<trkpt lat="26.244546" lon="100.170549">
<time>2016-10-07T06:48:34Z</time></trkpt>
<trkpt lat="26.244566" lon="100.170629">
<time>2016-10-07T06:48:35Z</time></trkpt>
<trkpt lat="26.244586" lon="100.17069">
<time>2016-10-07T06:48:36Z</time></trkpt>
<trkpt lat="26.244616" lon="100.17074">
<time>2016-10-07T06:48:37Z</time></trkpt>
<trkpt lat="26.244646" lon="100.1708">
<time>2016-10-07T06:48:38Z</time></trkpt>
<trkpt lat="26.244696" lon="100.17087">
<time>2016-10-07T06:48:39Z</time></trkpt>
<trkpt lat="26.244746" lon="100.17092">
<time>2016-10-07T06:48:40Z</time></trkpt>
<trkpt lat="26.244797" lon="100.17097">
<time>2016-10-07T06:48:41Z</time></trkpt>
<trkpt lat="26.244857" lon="100.17101">
<time>2016-10-07T06:48:42Z</time></trkpt>
<trkpt lat="26.245067" lon="100.171151">
<time>2016-10-07T06:48:43Z</time></trkpt>
<trkpt lat="26.245308" lon="100.171311">
<time>2016-10-07T06:48:44Z</time></trkpt>
<trkpt lat="26.245568" lon="100.171471">
<time>2016-10-07T06:48:45Z</time></trkpt>
<trkpt lat="26.245838" lon="100.171652">
<time>2016-10-07T06:48:46Z</time></trkpt>
<trkpt lat="26.246039" lon="100.171782">
<time>2016-10-07T06:48:47Z</time></trkpt>
<trkpt lat="26.246169" lon="100.171852">
<time>2016-10-07T06:48:48Z</time></trkpt>
<trkpt lat="26.246429" lon="100.172012">
<time>2016-10-07T06:48:49Z</time></trkpt>
<trkpt lat="26.24672" lon="100.172193">
<time>2016-10-07T06:48:50Z</time></trkpt>
<trkpt lat="26.24689" lon="100.172273">
<time>2016-10-07T06:48:51Z</time></trkpt>
<trkpt lat="26.24704" lon="100.172333">
<time>2016-10-07T06:48:52Z</time></trkpt>
<trkpt lat="26.247261" lon="100.172393">
<time>2016-10-07T06:48:53Z</time></trkpt>
<trkpt lat="26.247431" lon="100.172413">
<time>2016-10-07T06:48:54Z</time></trkpt>
<trkpt lat="26.247491" lon="100.172413">
<time>2016-10-07T06:48:55Z</time></trkpt>
<trkpt lat="26.247561" lon="100.172423">
<time>2016-10-07T06:48:56Z</time></trkpt>
<trkpt lat="26.247631" lon="100.172413">
<time>2016-10-07T06:48:57Z</time></trkpt>
<trkpt lat="26.247671" lon="100.172413">
<time>2016-10-07T06:48:58Z</time></trkpt>
<trkpt lat="26.247711" lon="100.172413">
<time>2016-10-07T06:48:59Z</time></trkpt>
<trkpt lat="26.247791" lon="100.172403">
<time>2016-10-07T06:49:00Z</time></trkpt>
<trkpt lat="26.247891" lon="100.172393">
<time>2016-10-07T06:49:01Z</time></trkpt>
<trkpt lat="26.248001" lon="100.172383">
<time>2016-10-07T06:49:02Z</time></trkpt>
<trkpt lat="26.248111" lon="100.172363">
<time>2016-10-07T06:49:03Z</time></trkpt>
<trkpt lat="26.248481" lon="100.172323">
<time>2016-10-07T06:49:04Z</time></trkpt>
<trkpt lat="26.248871" lon="100.172263">
<time>2016-10-07T06:49:05Z</time></trkpt>
<trkpt lat="26.249251" lon="100.172213">
<time>2016-10-07T06:49:06Z</time></trkpt>
<trkpt lat="26.249662" lon="100.172173">
<time>2016-10-07T06:49:07Z</time></trkpt>
<trkpt lat="26.250012" lon="100.172133">
<time>2016-10-07T06:49:08Z</time></trkpt>
<trkpt lat="26.250392" lon="100.172082">
<time>2016-10-07T06:49:09Z</time></trkpt>
<trkpt lat="26.250472" lon="100.172082">
<time>2016-10-07T06:49:10Z</time></trkpt>
<trkpt lat="26.250602" lon="100.172062">
<time>2016-10-07T06:49:11Z</time></trkpt>
<trkpt lat="26.250782" lon="100.172052">
<time>2016-10-07T06:49:12Z</time></trkpt>
<trkpt lat="26.251142" lon="100.172032">
<time>2016-10-07T06:49:13Z</time></trkpt>
<trkpt lat="26.251292" lon="100.172022">
<time>2016-10-07T06:49:14Z</time></trkpt>
<trkpt lat="26.251502" lon="100.172012">
<time>2016-10-07T06:49:15Z</time></trkpt>
<trkpt lat="26.251873" lon="100.171992">
<time>2016-10-07T06:49:16Z</time></trkpt>
<trkpt lat="26.252213" lon="100.171972">
<time>2016-10-07T06:49:17Z</time></trkpt>
<trkpt lat="26.252633" lon="100.171952">
<time>2016-10-07T06:49:18Z</time></trkpt>
<trkpt lat="26.252863" lon="100.171962">
<time>2016-10-07T06:49:19Z</time></trkpt>
<trkpt lat="26.253203" lon="100.171982">
<time>2016-10-07T06:49:20Z</time></trkpt>
<trkpt lat="26.253303" lon="100.171982">
<time>2016-10-07T06:49:21Z</time></trkpt>
<trkpt lat="26.253483" lon="100.172002">
<time>2016-10-07T06:49:22Z</time></trkpt>
<trkpt lat="26.253674" lon="100.172032">
<time>2016-10-07T06:49:23Z</time></trkpt>
<trkpt lat="26.253764" lon="100.172042">
<time>2016-10-07T06:49:24Z</time></trkpt>
<trkpt lat="26.254354" lon="100.172152">
<time>2016-10-07T06:49:25Z</time></trkpt>
<trkpt lat="26.254404" lon="100.172162">
<time>2016-10-07T06:49:26Z</time></trkpt>
<trkpt lat="26.254875" lon="100.172253">
<time>2016-10-07T06:49:27Z</time></trkpt>
<trkpt lat="26.255215" lon="100.172313">
<time>2016-10-07T06:49:28Z</time></trkpt>
<trkpt lat="26.255435" lon="100.172363">
<time>2016-10-07T06:49:29Z</time></trkpt>
<trkpt lat="26.255675" lon="100.172423">
<time>2016-10-07T06:49:30Z</time></trkpt>
<trkpt lat="26.255836" lon="100.172473">
<time>2016-10-07T06:49:31Z</time></trkpt>
<trkpt lat="26.255946" lon="100.172513">
<time>2016-10-07T06:49:32Z</time></trkpt>
<trkpt lat="26.256016" lon="100.172533">
<time>2016-10-07T06:49:33Z</time></trkpt>
<trkpt lat="26.256066" lon="100.172553">
<time>2016-10-07T06:49:34Z</time></trkpt>
<trkpt lat="26.256196" lon="100.172613">
<time>2016-10-07T06:49:35Z</time></trkpt>
<trkpt lat="26.256306" lon="100.172663">
<time>2016-10-07T06:49:36Z</time></trkpt>
<trkpt lat="26.256446" lon="100.172734">
<time>2016-10-07T06:49:37Z</time></trkpt>
<trkpt lat="26.256577" lon="100.172804">
<time>2016-10-07T06:49:38Z</time></trkpt>
<trkpt lat="26.256707" lon="100.172884">
<time>2016-10-07T06:49:39Z</time></trkpt>
<trkpt lat="26.256967" lon="100.173044">
<time>2016-10-07T06:49:40Z</time></trkpt>
<trkpt lat="26.257248" lon="100.173225">
<time>2016-10-07T06:49:41Z</time></trkpt>
<trkpt lat="26.257528" lon="100.173415">
<time>2016-10-07T06:49:42Z</time></trkpt>
<trkpt lat="26.257739" lon="100.173565">
<time>2016-10-07T06:49:43Z</time></trkpt>
<trkpt lat="26.258009" lon="100.173766">
<time>2016-10-07T06:49:44Z</time></trkpt>
<trkpt lat="26.25824" lon="100.173946">
<time>2016-10-07T06:49:45Z</time></trkpt>
<trkpt lat="26.25835" lon="100.174026">
<time>2016-10-07T06:49:46Z</time></trkpt>
<trkpt lat="26.25848" lon="100.174137">
<time>2016-10-07T06:49:47Z</time></trkpt>
<trkpt lat="26.258611" lon="100.174247">
<time>2016-10-07T06:49:48Z</time></trkpt>
<trkpt lat="26.258761" lon="100.174377">
<time>2016-10-07T06:49:49Z</time></trkpt>
<trkpt lat="26.259021" lon="100.174607">
<time>2016-10-07T06:49:50Z</time></trkpt>
<trkpt lat="26.259222" lon="100.174798">
<time>2016-10-07T06:49:51Z</time></trkpt>
<trkpt lat="26.259292" lon="100.174868">
<time>2016-10-07T06:49:52Z</time></trkpt>
<trkpt lat="26.259412" lon="100.174978">
<time>2016-10-07T06:49:53Z</time></trkpt>
<trkpt lat="26.259553" lon="100.175109">
<time>2016-10-07T06:49:54Z</time></trkpt>
<trkpt lat="26.259653" lon="100.175219">
<time>2016-10-07T06:49:55Z</time></trkpt>
<trkpt lat="26.259783" lon="100.175369">
<time>2016-10-07T06:49:56Z</time></trkpt>
<trkpt lat="26.259914" lon="100.175529">
<time>2016-10-07T06:49:57Z</time></trkpt>
<trkpt lat="26.260134" lon="100.17583">
<time>2016-10-07T06:49:58Z</time></trkpt>
<trkpt lat="26.260295" lon="100.176051">
<time>2016-10-07T06:49:59Z</time></trkpt>
<trkpt lat="26.260485" lon="100.176301">
<time>2016-10-07T06:50:00Z</time></trkpt>
<trkpt lat="26.260636" lon="100.176501">
<time>2016-10-07T06:50:01Z</time></trkpt>
<trkpt lat="26.260897" lon="100.176812">
<time>2016-10-07T06:50:02Z</time></trkpt>
<trkpt lat="26.260957" lon="100.176882">
<time>2016-10-07T06:50:03Z</time></trkpt>
<trkpt lat="26.261077" lon="100.176972">
<time>2016-10-07T06:50:04Z</time></trkpt>
<trkpt lat="26.261127" lon="100.177023">
<time>2016-10-07T06:50:05Z</time></trkpt>
<trkpt lat="26.261217" lon="100.177073">
<time>2016-10-07T06:50:06Z</time></trkpt>
<trkpt lat="26.261327" lon="100.177143">
<time>2016-10-07T06:50:07Z</time></trkpt>
<trkpt lat="26.261468" lon="100.177203">
<time>2016-10-07T06:50:08Z</time></trkpt>
<trkpt lat="26.261628" lon="100.177273">
<time>2016-10-07T06:50:09Z</time></trkpt>
<trkpt lat="26.261788" lon="100.177343">
<time>2016-10-07T06:50:10Z</time></trkpt>
<trkpt lat="26.262099" lon="100.177473">
<time>2016-10-07T06:50:11Z</time></trkpt>
<trkpt lat="26.262379" lon="100.177594">
<time>2016-10-07T06:50:12Z</time></trkpt>
<trkpt lat="26.262739" lon="100.177744">
<time>2016-10-07T06:50:13Z</time></trkpt>
<trkpt lat="26.26303" lon="100.177864">
<time>2016-10-07T06:50:14Z</time></trkpt>
<trkpt lat="26.26339" lon="100.178015">
<time>2016-10-07T06:50:15Z</time></trkpt>
<trkpt lat="26.263711" lon="100.178145">
<time>2016-10-07T06:50:16Z</time></trkpt>
<trkpt lat="26.263901" lon="100.178235">
<time>2016-10-07T06:50:17Z</time></trkpt>
<trkpt lat="26.264051" lon="100.178285">
<time>2016-10-07T06:50:18Z</time></trkpt>
<trkpt lat="26.264321" lon="100.178405">
<time>2016-10-07T06:50:19Z</time></trkpt>
<trkpt lat="26.264462" lon="100.178465">
<time>2016-10-07T06:50:20Z</time></trkpt>
<trkpt lat="26.264562" lon="100.178506">
<time>2016-10-07T06:50:21Z</time></trkpt>
<trkpt lat="26.264652" lon="100.178536">
<time>2016-10-07T06:50:22Z</time></trkpt>
<trkpt lat="26.264742" lon="100.178556">
<time>2016-10-07T06:50:23Z</time></trkpt>
<trkpt lat="26.264862" lon="100.178566">
<time>2016-10-07T06:50:24Z</time></trkpt>
<trkpt lat="26.264962" lon="100.178576">
<time>2016-10-07T06:50:25Z</time></trkpt>
<trkpt lat="26.265042" lon="100.178566">
<time>2016-10-07T06:50:26Z</time></trkpt>
<trkpt lat="26.265122" lon="100.178566">
<time>2016-10-07T06:50:27Z</time></trkpt>
<trkpt lat="26.265232" lon="100.178536">
<time>2016-10-07T06:50:28Z</time></trkpt>
<trkpt lat="26.265412" lon="100.178495">
<time>2016-10-07T06:50:29Z</time></trkpt>
<trkpt lat="26.265702" lon="100.178405">
<time>2016-10-07T06:50:30Z</time></trkpt>
<trkpt lat="26.266012" lon="100.178325">
<time>2016-10-07T06:50:31Z</time></trkpt>
<trkpt lat="26.266342" lon="100.178235">
<time>2016-10-07T06:50:32Z</time></trkpt>
<trkpt lat="26.266532" lon="100.178195">
<time>2016-10-07T06:50:33Z</time></trkpt>
<trkpt lat="26.266702" lon="100.178165">
<time>2016-10-07T06:50:34Z</time></trkpt>
<trkpt lat="26.266852" lon="100.178145">
<time>2016-10-07T06:50:35Z</time></trkpt>
<trkpt lat="26.267042" lon="100.178115">
<time>2016-10-07T06:50:36Z</time></trkpt>
<trkpt lat="26.267233" lon="100.178105">
<time>2016-10-07T06:50:37Z</time></trkpt>
<trkpt lat="26.267383" lon="100.178095">
<time>2016-10-07T06:50:38Z</time></trkpt>
<trkpt lat="26.267463" lon="100.178095">
<time>2016-10-07T06:50:39Z</time></trkpt>
<trkpt lat="26.267583" lon="100.178095">
<time>2016-10-07T06:50:40Z</time></trkpt>
<trkpt lat="26.267823" lon="100.178105">
<time>2016-10-07T06:50:41Z</time></trkpt>
<trkpt lat="26.268133" lon="100.178115">
<time>2016-10-07T06:50:42Z</time></trkpt>
<trkpt lat="26.268463" lon="100.178145">
<time>2016-10-07T06:50:43Z</time></trkpt>
<trkpt lat="26.268804" lon="100.178165">
<time>2016-10-07T06:50:44Z</time></trkpt>
<trkpt lat="26.269134" lon="100.178185">
<time>2016-10-07T06:50:45Z</time></trkpt>
<trkpt lat="26.269434" lon="100.178205">
<time>2016-10-07T06:50:46Z</time></trkpt>
<trkpt lat="26.269744" lon="100.178225">
<time>2016-10-07T06:50:47Z</time></trkpt>
<trkpt lat="26.270004" lon="100.178235">
<time>2016-10-07T06:50:48Z</time></trkpt>
<trkpt lat="26.270124" lon="100.178245">
<time>2016-10-07T06:50:49Z</time></trkpt>
<trkpt lat="26.270445" lon="100.178255">
<time>2016-10-07T06:50:50Z</time></trkpt>
<trkpt lat="26.270745" lon="100.178265">
<time>2016-10-07T06:50:51Z</time></trkpt>
<trkpt lat="26.270885" lon="100.178275">
<time>2016-10-07T06:50:52Z</time></trkpt>
<trkpt lat="26.270905" lon="100.178275">
<time>2016-10-07T06:50:53Z</time></trkpt>
<trkpt lat="26.271035" lon="100.178285">
<time>2016-10-07T06:50:54Z</time></trkpt>
<trkpt lat="26.271335" lon="100.178305">
<time>2016-10-07T06:50:55Z</time></trkpt>
<trkpt lat="26.271625" lon="100.178325">
<time>2016-10-07T06:50:56Z</time></trkpt>
<trkpt lat="26.271976" lon="100.178345">
<time>2016-10-07T06:50:57Z</time></trkpt>
<trkpt lat="26.272366" lon="100.178375">
<time>2016-10-07T06:50:58Z</time></trkpt>
<trkpt lat="26.272566" lon="100.178395">
<time>2016-10-07T06:50:59Z</time></trkpt>
<trkpt lat="26.272686" lon="100.178405">
<time>2016-10-07T06:51:00Z</time></trkpt>
<trkpt lat="26.272766" lon="100.178415">
<time>2016-10-07T06:51:01Z</time></trkpt>
<trkpt lat="26.272846" lon="100.178415">
<time>2016-10-07T06:51:02Z</time></trkpt>
<trkpt lat="26.272906" lon="100.178415">
<time>2016-10-07T06:51:03Z</time></trkpt>
<trkpt lat="26.272966" lon="100.178415">
<time>2016-10-07T06:51:04Z</time></trkpt>
<trkpt lat="26.273016" lon="100.178425">
<time>2016-10-07T06:51:05Z</time></trkpt>
<trkpt lat="26.273186" lon="100.178435">
<time>2016-10-07T06:51:06Z</time></trkpt>
<trkpt lat="26.273427" lon="100.178455">
<time>2016-10-07T06:51:07Z</time></trkpt>
<trkpt lat="26.273997" lon="100.178495">
<time>2016-10-07T06:51:08Z</time></trkpt>
<trkpt lat="26.274517" lon="100.178535">
<time>2016-10-07T06:51:09Z</time></trkpt>
<trkpt lat="26.274817" lon="100.178545">
<time>2016-10-07T06:51:10Z</time></trkpt>
<trkpt lat="26.275248" lon="100.178535">
<time>2016-10-07T06:51:11Z</time></trkpt>
<trkpt lat="26.275678" lon="100.178485">
<time>2016-10-07T06:51:12Z</time></trkpt>
<trkpt lat="26.276338" lon="100.178365">
<time>2016-10-07T06:51:13Z</time></trkpt>
<trkpt lat="26.277088" lon="100.178225">
<time>2016-10-07T06:51:14Z</time></trkpt>
<trkpt lat="26.277458" lon="100.178164">
<time>2016-10-07T06:51:15Z</time></trkpt>
<trkpt lat="26.277768" lon="100.178084">
<time>2016-10-07T06:51:16Z</time></trkpt>
<trkpt lat="26.278088" lon="100.178014">
<time>2016-10-07T06:51:17Z</time></trkpt>
<trkpt lat="26.278438" lon="100.177914">
<time>2016-10-07T06:51:18Z</time></trkpt>
<trkpt lat="26.278788" lon="100.177804">
<time>2016-10-07T06:51:19Z</time></trkpt>
<trkpt lat="26.279138" lon="100.177693">
<time>2016-10-07T06:51:20Z</time></trkpt>
<trkpt lat="26.279628" lon="100.177543">
<time>2016-10-07T06:51:21Z</time></trkpt>
<trkpt lat="26.280128" lon="100.177383">
<time>2016-10-07T06:51:22Z</time></trkpt>
<trkpt lat="26.281098" lon="100.177072">
<time>2016-10-07T06:51:23Z</time></trkpt>
<trkpt lat="26.282018" lon="100.176781">
<time>2016-10-07T06:51:24Z</time></trkpt>
<trkpt lat="26.283198" lon="100.176401">
<time>2016-10-07T06:51:25Z</time></trkpt>
<trkpt lat="26.284368" lon="100.17602">
<time>2016-10-07T06:51:26Z</time></trkpt>
<trkpt lat="26.284668" lon="100.17593">
<time>2016-10-07T06:51:27Z</time></trkpt>
<trkpt lat="26.284988" lon="100.175839">
<time>2016-10-07T06:51:28Z</time></trkpt>
<trkpt lat="26.285328" lon="100.175779">
<time>2016-10-07T06:51:29Z</time></trkpt>
<trkpt lat="26.285618" lon="100.175769">
<time>2016-10-07T06:51:30Z</time></trkpt>
<trkpt lat="26.285868" lon="100.175789">
<time>2016-10-07T06:51:31Z</time></trkpt>
<trkpt lat="26.286158" lon="100.175839">
<time>2016-10-07T06:51:32Z</time></trkpt>
<trkpt lat="26.286799" lon="100.17601">
<time>2016-10-07T06:51:33Z</time></trkpt>
<trkpt lat="26.28766" lon="100.17625">
<time>2016-10-07T06:51:34Z</time></trkpt>
<trkpt lat="26.28803" lon="100.17635">
<time>2016-10-07T06:51:35Z</time></trkpt>
<trkpt lat="26.288401" lon="100.176431">
<time>2016-10-07T06:51:36Z</time></trkpt>
<trkpt lat="26.288711" lon="100.176461">
<time>2016-10-07T06:51:37Z</time></trkpt>
<trkpt lat="26.288861" lon="100.176471">
<time>2016-10-07T06:51:38Z</time></trkpt>
<trkpt lat="26.288991" lon="100.176471">
<time>2016-10-07T06:51:39Z</time></trkpt>
<trkpt lat="26.289311" lon="100.176431">
<time>2016-10-07T06:51:40Z</time></trkpt>
<trkpt lat="26.289991" lon="100.1763">
<time>2016-10-07T06:51:41Z</time></trkpt>
<trkpt lat="26.290712" lon="100.17618">
<time>2016-10-07T06:51:42Z</time></trkpt>
<trkpt lat="26.291472" lon="100.17605">
<time>2016-10-07T06:51:43Z</time></trkpt>
<trkpt lat="26.292562" lon="100.175859">
<time>2016-10-07T06:51:44Z</time></trkpt>
<trkpt lat="26.293222" lon="100.175749">
<time>2016-10-07T06:51:45Z</time></trkpt>
<trkpt lat="26.293542" lon="100.175679">
<time>2016-10-07T06:51:46Z</time></trkpt>
<trkpt lat="26.293852" lon="100.175599">
<time>2016-10-07T06:51:47Z</time></trkpt>
<trkpt lat="26.294162" lon="100.175519">
<time>2016-10-07T06:51:48Z</time></trkpt>
<trkpt lat="26.294452" lon="100.175428">
<time>2016-10-07T06:51:49Z</time></trkpt>
<trkpt lat="26.294732" lon="100.175328">
<time>2016-10-07T06:51:50Z</time></trkpt>
<trkpt lat="26.295012" lon="100.175228">
<time>2016-10-07T06:51:51Z</time></trkpt>
<trkpt lat="26.295262" lon="100.175128">
<time>2016-10-07T06:51:52Z</time></trkpt>
<trkpt lat="26.295512" lon="100.175037">
<time>2016-10-07T06:51:53Z</time></trkpt>
<trkpt lat="26.295772" lon="100.174937">
<time>2016-10-07T06:51:54Z</time></trkpt>
<trkpt lat="26.296032" lon="100.174847">
<time>2016-10-07T06:51:55Z</time></trkpt>
<trkpt lat="26.296322" lon="100.174767">
<time>2016-10-07T06:51:56Z</time></trkpt>
<trkpt lat="26.296692" lon="100.174697">
<time>2016-10-07T06:51:57Z</time></trkpt>
<trkpt lat="26.297092" lon="100.174657">
<time>2016-10-07T06:51:58Z</time></trkpt>
<trkpt lat="26.297582" lon="100.174627">
<time>2016-10-07T06:51:59Z</time></trkpt>
<trkpt lat="26.298373" lon="100.174586">
<time>2016-10-07T06:52:00Z</time></trkpt>
<trkpt lat="26.299103" lon="100.174546">
<time>2016-10-07T06:52:01Z</time></trkpt>
<trkpt lat="26.299413" lon="100.174536">
<time>2016-10-07T06:52:02Z</time></trkpt>
<trkpt lat="26.299783" lon="100.174556">
<time>2016-10-07T06:52:03Z</time></trkpt>
<trkpt lat="26.300143" lon="100.174606">
<time>2016-10-07T06:52:04Z</time></trkpt>
<trkpt lat="26.300424" lon="100.174667">
<time>2016-10-07T06:52:05Z</time></trkpt>
<trkpt lat="26.300604" lon="100.174717">
<time>2016-10-07T06:52:06Z</time></trkpt>
<trkpt lat="26.300844" lon="100.174797">
<time>2016-10-07T06:52:07Z</time></trkpt>
<trkpt lat="26.300994" lon="100.174857">
<time>2016-10-07T06:52:08Z</time></trkpt>
<trkpt lat="26.301255" lon="100.174967">
<time>2016-10-07T06:52:09Z</time></trkpt>
<trkpt lat="26.301615" lon="100.175148">
<time>2016-10-07T06:52:10Z</time></trkpt>
<trkpt lat="26.302066" lon="100.175368">
<time>2016-10-07T06:52:11Z</time></trkpt>
<trkpt lat="26.302527" lon="100.175619">
<time>2016-10-07T06:52:12Z</time></trkpt>
<trkpt lat="26.302987" lon="100.175849">
<time>2016-10-07T06:52:13Z</time></trkpt>
<trkpt lat="26.303288" lon="100.176009">
<time>2016-10-07T06:52:14Z</time></trkpt>
<trkpt lat="26.303558" lon="100.17614">
<time>2016-10-07T06:52:15Z</time></trkpt>
<trkpt lat="26.303728" lon="100.17621">
<time>2016-10-07T06:52:16Z</time></trkpt>
<trkpt lat="26.303919" lon="100.17627">
<time>2016-10-07T06:52:17Z</time></trkpt>
<trkpt lat="26.304239" lon="100.17635">
<time>2016-10-07T06:52:18Z</time></trkpt>
<trkpt lat="26.304459" lon="100.17639">
<time>2016-10-07T06:52:19Z</time></trkpt>
<trkpt lat="26.304739" lon="100.17644">
<time>2016-10-07T06:52:20Z</time></trkpt>
<trkpt lat="26.304989" lon="100.17648">
<time>2016-10-07T06:52:21Z</time></trkpt>
<trkpt lat="26.30514" lon="100.1765">
<time>2016-10-07T06:52:22Z</time></trkpt>
<trkpt lat="26.30529" lon="100.17649">
<time>2016-10-07T06:52:23Z</time></trkpt>
<trkpt lat="26.30537" lon="100.17647">
<time>2016-10-07T06:52:24Z</time></trkpt>
<trkpt lat="26.30548" lon="100.17643">
<time>2016-10-07T06:52:25Z</time></trkpt>
<trkpt lat="26.30557" lon="100.17638">
<time>2016-10-07T06:52:26Z</time></trkpt>
<trkpt lat="26.305679" lon="100.17629">
<time>2016-10-07T06:52:27Z</time></trkpt>
<trkpt lat="26.305859" lon="100.176099">
<time>2016-10-07T06:52:28Z</time></trkpt>
<trkpt lat="26.306019" lon="100.175929">
<time>2016-10-07T06:52:29Z</time></trkpt>
<trkpt lat="26.306159" lon="100.175819">
<time>2016-10-07T06:52:30Z</time></trkpt>
<trkpt lat="26.306249" lon="100.175789">
<time>2016-10-07T06:52:31Z</time></trkpt>
<trkpt lat="26.306369" lon="100.175769">
<time>2016-10-07T06:52:32Z</time></trkpt>
<trkpt lat="26.306519" lon="100.175789">
<time>2016-10-07T06:52:33Z</time></trkpt>
<trkpt lat="26.306649" lon="100.175819">
<time>2016-10-07T06:52:34Z</time></trkpt>
<trkpt lat="26.306779" lon="100.175869">
<time>2016-10-07T06:52:35Z</time></trkpt>
<trkpt lat="26.30725" lon="100.176089">
<time>2016-10-07T06:52:36Z</time></trkpt>
<trkpt lat="26.30728" lon="100.176109">
<time>2016-10-07T06:52:37Z</time></trkpt>
<trkpt lat="26.307851" lon="100.17637">
<time>2016-10-07T06:52:38Z</time></trkpt>
<trkpt lat="26.308161" lon="100.17652">
<time>2016-10-07T06:52:39Z</time></trkpt>
<trkpt lat="26.308812" lon="100.176831">
<time>2016-10-07T06:52:40Z</time></trkpt>
<trkpt lat="26.309493" lon="100.177162">
<time>2016-10-07T06:52:41Z</time></trkpt>
<trkpt lat="26.309964" lon="100.177382">
<time>2016-10-07T06:52:42Z</time></trkpt>
<trkpt lat="26.310274" lon="100.177512">
<time>2016-10-07T06:52:43Z</time></trkpt>
<trkpt lat="26.310494" lon="100.177602">
<time>2016-10-07T06:52:44Z</time></trkpt>
<trkpt lat="26.310735" lon="100.177693">
<time>2016-10-07T06:52:45Z</time></trkpt>
<trkpt lat="26.311005" lon="100.177773">
<time>2016-10-07T06:52:46Z</time></trkpt>
<trkpt lat="26.311505" lon="100.177933">
<time>2016-10-07T06:52:47Z</time></trkpt>
<trkpt lat="26.311976" lon="100.178083">
<time>2016-10-07T06:52:48Z</time></trkpt>
<trkpt lat="26.312477" lon="100.178234">
<time>2016-10-07T06:52:49Z</time></trkpt>
<trkpt lat="26.312897" lon="100.178364">
<time>2016-10-07T06:52:50Z</time></trkpt>
<trkpt lat="26.313287" lon="100.178484">
<time>2016-10-07T06:52:51Z</time></trkpt>
<trkpt lat="26.313538" lon="100.178574">
<time>2016-10-07T06:52:52Z</time></trkpt>
<trkpt lat="26.313738" lon="100.178665">
<time>2016-10-07T06:52:53Z</time></trkpt>
<trkpt lat="26.313958" lon="100.178775">
<time>2016-10-07T06:52:54Z</time></trkpt>
<trkpt lat="26.314109" lon="100.178875">
<time>2016-10-07T06:52:55Z</time></trkpt>
<trkpt lat="26.314259" lon="100.178985">
<time>2016-10-07T06:52:56Z</time></trkpt>
<trkpt lat="26.31479" lon="100.179416">
<time>2016-10-07T06:52:57Z</time></trkpt>
<trkpt lat="26.315481" lon="100.180007">
<time>2016-10-07T06:52:58Z</time></trkpt>
<trkpt lat="26.316143" lon="100.180558">
<time>2016-10-07T06:52:59Z</time></trkpt>
<trkpt lat="26.316804" lon="100.18112">
<time>2016-10-07T06:53:00Z</time></trkpt>
<trkpt lat="26.317145" lon="100.1814">
<time>2016-10-07T06:53:01Z</time></trkpt>
<trkpt lat="26.317505" lon="100.181711">
<time>2016-10-07T06:53:02Z</time></trkpt>
<trkpt lat="26.318006" lon="100.182132">
<time>2016-10-07T06:53:03Z</time></trkpt>
<trkpt lat="26.318588" lon="100.182623">
<time>2016-10-07T06:53:04Z</time></trkpt>
<trkpt lat="26.318878" lon="100.182873">
<time>2016-10-07T06:53:05Z</time></trkpt>
<trkpt lat="26.319069" lon="100.183034">
<time>2016-10-07T06:53:06Z</time></trkpt>
<trkpt lat="26.319259" lon="100.183214">
<time>2016-10-07T06:53:07Z</time></trkpt>
<trkpt lat="26.31954" lon="100.183484">
<time>2016-10-07T06:53:08Z</time></trkpt>
<trkpt lat="26.320021" lon="100.183935">
<time>2016-10-07T06:53:09Z</time></trkpt>
<trkpt lat="26.320392" lon="100.184296">
<time>2016-10-07T06:53:10Z</time></trkpt>
<trkpt lat="26.320662" lon="100.184557">
<time>2016-10-07T06:53:11Z</time></trkpt>
<trkpt lat="26.321304" lon="100.185178">
<time>2016-10-07T06:53:12Z</time></trkpt>
<trkpt lat="26.321855" lon="100.185699">
<time>2016-10-07T06:53:13Z</time></trkpt>
<trkpt lat="26.322496" lon="100.18632">
<time>2016-10-07T06:53:14Z</time></trkpt>
<trkpt lat="26.323138" lon="100.186941">
<time>2016-10-07T06:53:15Z</time></trkpt>
<trkpt lat="26.323669" lon="100.187452">
<time>2016-10-07T06:53:16Z</time></trkpt>
<trkpt lat="26.32412" lon="100.187873">
<time>2016-10-07T06:53:17Z</time></trkpt>
<trkpt lat="26.324581" lon="100.188334">
<time>2016-10-07T06:53:18Z</time></trkpt>
<trkpt lat="26.324962" lon="100.188705">
<time>2016-10-07T06:53:19Z</time></trkpt>
<trkpt lat="26.325312" lon="100.189035">
<time>2016-10-07T06:53:20Z</time></trkpt>
<trkpt lat="26.325653" lon="100.189366">
<time>2016-10-07T06:53:21Z</time></trkpt>
<trkpt lat="26.326014" lon="100.189717">
<time>2016-10-07T06:53:22Z</time></trkpt>
<trkpt lat="26.326375" lon="100.190047">
<time>2016-10-07T06:53:23Z</time></trkpt>
<trkpt lat="26.326696" lon="100.190398">
<time>2016-10-07T06:53:24Z</time></trkpt>
<trkpt lat="26.326916" lon="100.190679">
<time>2016-10-07T06:53:25Z</time></trkpt>
<trkpt lat="26.327097" lon="100.190929">
<time>2016-10-07T06:53:26Z</time></trkpt>
<trkpt lat="26.327317" lon="100.19127">
<time>2016-10-07T06:53:27Z</time></trkpt>
<trkpt lat="26.327488" lon="100.19158">
<time>2016-10-07T06:53:28Z</time></trkpt>
<trkpt lat="26.327679" lon="100.192011">
<time>2016-10-07T06:53:29Z</time></trkpt>
<trkpt lat="26.32799" lon="100.192732">
<time>2016-10-07T06:53:30Z</time></trkpt>
<trkpt lat="26.328291" lon="100.193404">
<time>2016-10-07T06:53:31Z</time></trkpt>
<trkpt lat="26.328583" lon="100.194055">
<time>2016-10-07T06:53:32Z</time></trkpt>
<trkpt lat="26.328914" lon="100.194816">
<time>2016-10-07T06:53:33Z</time></trkpt>
<trkpt lat="26.329256" lon="100.195608">
<time>2016-10-07T06:53:34Z</time></trkpt>
<trkpt lat="26.329487" lon="100.196139">
<time>2016-10-07T06:53:35Z</time></trkpt>
<trkpt lat="26.329748" lon="100.19672">
<time>2016-10-07T06:53:36Z</time></trkpt>
<trkpt lat="26.330019" lon="100.197331">
<time>2016-10-07T06:53:37Z</time></trkpt>
<trkpt lat="26.3303" lon="100.197992">
<time>2016-10-07T06:53:38Z</time></trkpt>
<trkpt lat="26.330521" lon="100.198483">
<time>2016-10-07T06:53:39Z</time></trkpt>
<trkpt lat="26.330641" lon="100.198753">
<time>2016-10-07T06:53:40Z</time></trkpt>
<trkpt lat="26.330762" lon="100.199044">
<time>2016-10-07T06:53:41Z</time></trkpt>
<trkpt lat="26.330933" lon="100.199425">
<time>2016-10-07T06:53:42Z</time></trkpt>
<trkpt lat="26.331093" lon="100.199715">
<time>2016-10-07T06:53:43Z</time></trkpt>
<trkpt lat="26.331203" lon="100.199885">
<time>2016-10-07T06:53:44Z</time></trkpt>
<trkpt lat="26.331344" lon="100.200056">
<time>2016-10-07T06:53:45Z</time></trkpt>
<trkpt lat="26.331574" lon="100.200276">
<time>2016-10-07T06:53:46Z</time></trkpt>
<trkpt lat="26.331744" lon="100.200406">
<time>2016-10-07T06:53:47Z</time></trkpt>
<trkpt lat="26.332025" lon="100.200587">
<time>2016-10-07T06:53:48Z</time></trkpt>
<trkpt lat="26.332666" lon="100.201027">
<time>2016-10-07T06:53:49Z</time></trkpt>
<trkpt lat="26.332876" lon="100.201178">
<time>2016-10-07T06:53:50Z</time></trkpt>
<trkpt lat="26.332986" lon="100.201258">
<time>2016-10-07T06:53:51Z</time></trkpt>
<trkpt lat="26.333347" lon="100.201508">
<time>2016-10-07T06:53:52Z</time></trkpt>
<trkpt lat="26.33517" lon="100.20279">
<time>2016-10-07T06:53:53Z</time></trkpt>
<trkpt lat="26.336792" lon="100.203922">
<time>2016-10-07T06:53:54Z</time></trkpt>
<trkpt lat="26.337033" lon="100.204072">
<time>2016-10-07T06:53:55Z</time></trkpt>
<trkpt lat="26.337223" lon="100.204183">
<time>2016-10-07T06:53:56Z</time></trkpt>
<trkpt lat="26.337393" lon="100.204253">
<time>2016-10-07T06:53:57Z</time></trkpt>
<trkpt lat="26.337523" lon="100.204303">
<time>2016-10-07T06:53:58Z</time></trkpt>
<trkpt lat="26.337673" lon="100.204343">
<time>2016-10-07T06:53:59Z</time></trkpt>
<trkpt lat="26.337843" lon="100.204373">
<time>2016-10-07T06:54:00Z</time></trkpt>
<trkpt lat="26.338044" lon="100.204403">
<time>2016-10-07T06:54:01Z</time></trkpt>
<trkpt lat="26.338304" lon="100.204423">
<time>2016-10-07T06:54:02Z</time></trkpt>
<trkpt lat="26.338864" lon="100.204473">
<time>2016-10-07T06:54:03Z</time></trkpt>
<trkpt lat="26.343237" lon="100.204803">
<time>2016-10-07T06:54:04Z</time></trkpt>
<trkpt lat="26.343397" lon="100.204813">
<time>2016-10-07T06:54:05Z</time></trkpt>
<trkpt lat="26.343597" lon="100.204823">
<time>2016-10-07T06:54:06Z</time></trkpt>
<trkpt lat="26.343927" lon="100.204803">
<time>2016-10-07T06:54:07Z</time></trkpt>
<trkpt lat="26.344117" lon="100.204793">
<time>2016-10-07T06:54:08Z</time></trkpt>
<trkpt lat="26.344287" lon="100.204783">
<time>2016-10-07T06:54:09Z</time></trkpt>
<trkpt lat="26.344657" lon="100.204733">
<time>2016-10-07T06:54:10Z</time></trkpt>
<trkpt lat="26.345037" lon="100.204673">
<time>2016-10-07T06:54:11Z</time></trkpt>
<trkpt lat="26.345417" lon="100.204613">
<time>2016-10-07T06:54:12Z</time></trkpt>
<trkpt lat="26.345807" lon="100.204553">
<time>2016-10-07T06:54:13Z</time></trkpt>
<trkpt lat="26.346217" lon="100.204473">
<time>2016-10-07T06:54:14Z</time></trkpt>
<trkpt lat="26.348188" lon="100.204142">
<time>2016-10-07T06:54:15Z</time></trkpt>
<trkpt lat="26.349958" lon="100.203852">
<time>2016-10-07T06:54:16Z</time></trkpt>
<trkpt lat="26.350778" lon="100.203711">
<time>2016-10-07T06:54:17Z</time></trkpt>
<trkpt lat="26.353289" lon="100.203291">
<time>2016-10-07T06:54:18Z</time></trkpt>
<trkpt lat="26.354449" lon="100.2031">
<time>2016-10-07T06:54:19Z</time></trkpt>
<trkpt lat="26.355399" lon="100.20295">
<time>2016-10-07T06:54:20Z</time></trkpt>
<trkpt lat="26.35632" lon="100.2028">
<time>2016-10-07T06:54:21Z</time></trkpt>
<trkpt lat="26.35745" lon="100.202609">
<time>2016-10-07T06:54:22Z</time></trkpt>
<trkpt lat="26.35811" lon="100.202499">
<time>2016-10-07T06:54:23Z</time></trkpt>
<trkpt lat="26.35829" lon="100.202459">
<time>2016-10-07T06:54:24Z</time></trkpt>
<trkpt lat="26.35864" lon="100.202409">
<time>2016-10-07T06:54:25Z</time></trkpt>
<trkpt lat="26.3591" lon="100.202339">
<time>2016-10-07T06:54:26Z</time></trkpt>
<trkpt lat="26.36056" lon="100.202109">
<time>2016-10-07T06:54:27Z</time></trkpt>
<trkpt lat="26.362621" lon="100.201788">
<time>2016-10-07T06:54:28Z</time></trkpt>
<trkpt lat="26.362631" lon="100.201788">
<time>2016-10-07T06:54:29Z</time></trkpt>
<trkpt lat="26.362831" lon="100.201748">
<time>2016-10-07T06:54:30Z</time></trkpt>
<trkpt lat="26.363081" lon="100.201698">
<time>2016-10-07T06:54:31Z</time></trkpt>
<trkpt lat="26.363201" lon="100.201678">
<time>2016-10-07T06:54:32Z</time></trkpt>
<trkpt lat="26.365181" lon="100.201357">
<time>2016-10-07T06:54:33Z</time></trkpt>
<trkpt lat="26.365701" lon="100.201247">
<time>2016-10-07T06:54:34Z</time></trkpt>
<trkpt lat="26.366081" lon="100.201147">
<time>2016-10-07T06:54:35Z</time></trkpt>
<trkpt lat="26.366431" lon="100.201047">
<time>2016-10-07T06:54:36Z</time></trkpt>
<trkpt lat="26.366681" lon="100.200986">
<time>2016-10-07T06:54:37Z</time></trkpt>
<trkpt lat="26.367011" lon="100.200886">
<time>2016-10-07T06:54:38Z</time></trkpt>
<trkpt lat="26.367271" lon="100.200806">
<time>2016-10-07T06:54:39Z</time></trkpt>
<trkpt lat="26.367721" lon="100.200696">
<time>2016-10-07T06:54:40Z</time></trkpt>
<trkpt lat="26.368031" lon="100.200636">
<time>2016-10-07T06:54:41Z</time></trkpt>
<trkpt lat="26.368341" lon="100.200576">
<time>2016-10-07T06:54:42Z</time></trkpt>
<trkpt lat="26.368651" lon="100.200536">
<time>2016-10-07T06:54:43Z</time></trkpt>
<trkpt lat="26.368932" lon="100.200516">
<time>2016-10-07T06:54:44Z</time></trkpt>
<trkpt lat="26.369702" lon="100.200445">
<time>2016-10-07T06:54:45Z</time></trkpt>
<trkpt lat="26.370172" lon="100.200405">
<time>2016-10-07T06:54:46Z</time></trkpt>
<trkpt lat="26.370332" lon="100.200365">
<time>2016-10-07T06:54:47Z</time></trkpt>
<trkpt lat="26.370462" lon="100.200325">
<time>2016-10-07T06:54:48Z</time></trkpt>
<trkpt lat="26.370632" lon="100.200235">
<time>2016-10-07T06:54:49Z</time></trkpt>
<trkpt lat="26.370762" lon="100.200145">
<time>2016-10-07T06:54:50Z</time></trkpt>
<trkpt lat="26.370912" lon="100.200015">
<time>2016-10-07T06:54:51Z</time></trkpt>
<trkpt lat="26.371091" lon="100.199844">
<time>2016-10-07T06:54:52Z</time></trkpt>
<trkpt lat="26.371401" lon="100.199574">
<time>2016-10-07T06:54:53Z</time></trkpt>
<trkpt lat="26.371671" lon="100.199333">
<time>2016-10-07T06:54:54Z</time></trkpt>
<trkpt lat="26.371951" lon="100.199083">
<time>2016-10-07T06:54:55Z</time></trkpt>
<trkpt lat="26.37251" lon="100.198582">
<time>2016-10-07T06:54:56Z</time></trkpt>
<trkpt lat="26.379253" lon="100.192521">
<time>2016-10-07T06:54:57Z</time></trkpt>
<trkpt lat="26.380212" lon="100.191669">
<time>2016-10-07T06:54:58Z</time></trkpt>
<trkpt lat="26.38142" lon="100.190577">
<time>2016-10-07T06:54:59Z</time></trkpt>
<trkpt lat="26.38158" lon="100.190427">
<time>2016-10-07T06:55:00Z</time></trkpt>
<trkpt lat="26.38181" lon="100.190226">
<time>2016-10-07T06:55:01Z</time></trkpt>
<trkpt lat="26.38202" lon="100.190056">
<time>2016-10-07T06:55:02Z</time></trkpt>
<trkpt lat="26.3822" lon="100.189926">
<time>2016-10-07T06:55:03Z</time></trkpt>
<trkpt lat="26.3825" lon="100.189775">
<time>2016-10-07T06:55:04Z</time></trkpt>
<trkpt lat="26.38279" lon="100.189866">
<time>2016-10-07T06:55:05Z</time></trkpt>
<trkpt lat="26.38286" lon="100.189896">
<time>2016-10-07T06:55:06Z</time></trkpt>
<trkpt lat="26.38296" lon="100.189946">
<time>2016-10-07T06:55:07Z</time></trkpt>
<trkpt lat="26.3831" lon="100.190036">
<time>2016-10-07T06:55:08Z</time></trkpt>
<trkpt lat="26.38324" lon="100.190146">
<time>2016-10-07T06:55:09Z</time></trkpt>
<trkpt lat="26.383451" lon="100.190326">
<time>2016-10-07T06:55:10Z</time></trkpt>
<trkpt lat="26.383651" lon="100.190497">
<time>2016-10-07T06:55:11Z</time></trkpt>
<trkpt lat="26.383872" lon="100.190687">
<time>2016-10-07T06:55:12Z</time></trkpt>
<trkpt lat="26.384092" lon="100.190867">
<time>2016-10-07T06:55:13Z</time></trkpt>
<trkpt lat="26.384292" lon="100.191038">
<time>2016-10-07T06:55:14Z</time></trkpt>
<trkpt lat="26.384483" lon="100.191208">
<time>2016-10-07T06:55:15Z</time></trkpt>
<trkpt lat="26.384693" lon="100.191388">
<time>2016-10-07T06:55:16Z</time></trkpt>
<trkpt lat="26.384703" lon="100.191398">
<time>2016-10-07T06:55:17Z</time></trkpt>
<trkpt lat="26.384934" lon="100.191599">
<time>2016-10-07T06:55:18Z</time></trkpt>
<trkpt lat="26.385044" lon="100.191719">
<time>2016-10-07T06:55:19Z</time></trkpt>
<trkpt lat="26.385114" lon="100.191809">
<time>2016-10-07T06:55:20Z</time></trkpt>
<trkpt lat="26.385184" lon="100.191929">
<time>2016-10-07T06:55:21Z</time></trkpt>
<trkpt lat="26.385235" lon="100.19202">
<time>2016-10-07T06:55:22Z</time></trkpt>
<trkpt lat="26.385295" lon="100.19217">
<time>2016-10-07T06:55:23Z</time></trkpt>
<trkpt lat="26.385345" lon="100.19235">
<time>2016-10-07T06:55:24Z</time></trkpt>
<trkpt lat="26.385365" lon="100.192521">
<time>2016-10-07T06:55:25Z</time></trkpt>
<trkpt lat="26.385366" lon="100.192611">
<time>2016-10-07T06:55:26Z</time></trkpt>
<trkpt lat="26.385366" lon="100.192671">
<time>2016-10-07T06:55:27Z</time></trkpt>
<trkpt lat="26.385356" lon="100.192851">
<time>2016-10-07T06:55:28Z</time></trkpt>
<trkpt lat="26.385326" lon="100.193002">
<time>2016-10-07T06:55:29Z</time></trkpt>
<trkpt lat="26.385287" lon="100.193162">
<time>2016-10-07T06:55:30Z</time></trkpt>
<trkpt lat="26.385237" lon="100.193282">
<time>2016-10-07T06:55:31Z</time></trkpt>
<trkpt lat="26.385137" lon="100.193563">
<time>2016-10-07T06:55:32Z</time></trkpt>
<trkpt lat="26.385087" lon="100.193693">
<time>2016-10-07T06:55:33Z</time></trkpt>
<trkpt lat="26.385067" lon="100.193763">
<time>2016-10-07T06:55:34Z</time></trkpt>
<trkpt lat="26.385018" lon="100.193953">
<time>2016-10-07T06:55:35Z</time></trkpt>
<trkpt lat="26.385008" lon="100.194104">
<time>2016-10-07T06:55:36Z</time></trkpt>
<trkpt lat="26.384998" lon="100.194254">
<time>2016-10-07T06:55:37Z</time></trkpt>
<trkpt lat="26.385009" lon="100.194414">
<time>2016-10-07T06:55:38Z</time></trkpt>
<trkpt lat="26.385029" lon="100.194685">
<time>2016-10-07T06:55:39Z</time></trkpt>
<trkpt lat="26.385039" lon="100.194795">
<time>2016-10-07T06:55:40Z</time></trkpt>
<trkpt lat="26.385069" lon="100.194935">
<time>2016-10-07T06:55:41Z</time></trkpt>
<trkpt lat="26.38509" lon="100.195045">
<time>2016-10-07T06:55:42Z</time></trkpt>
<trkpt lat="26.38512" lon="100.195156">
<time>2016-10-07T06:55:43Z</time></trkpt>
<trkpt lat="26.38516" lon="100.195266">
<time>2016-10-07T06:55:44Z</time></trkpt>
<trkpt lat="26.3852" lon="100.195376">
<time>2016-10-07T06:55:45Z</time></trkpt>
<trkpt lat="26.38525" lon="100.195476">
<time>2016-10-07T06:55:46Z</time></trkpt>
<trkpt lat="26.38526" lon="100.195506">
<time>2016-10-07T06:55:47Z</time></trkpt>
<trkpt lat="26.385331" lon="100.195667">
<time>2016-10-07T06:55:48Z</time></trkpt>
<trkpt lat="26.385411" lon="100.195807">
<time>2016-10-07T06:55:49Z</time></trkpt>
<trkpt lat="26.385511" lon="100.195957">
<time>2016-10-07T06:55:50Z</time></trkpt>
<trkpt lat="26.385561" lon="100.196027">
<time>2016-10-07T06:55:51Z</time></trkpt>
<trkpt lat="26.385632" lon="100.196107">
<time>2016-10-07T06:55:52Z</time></trkpt>
<trkpt lat="26.385702" lon="100.196167">
<time>2016-10-07T06:55:53Z</time></trkpt>
<trkpt lat="26.385792" lon="100.196238">
<time>2016-10-07T06:55:54Z</time></trkpt>
<trkpt lat="26.385882" lon="100.196288">
<time>2016-10-07T06:55:55Z</time></trkpt>
<trkpt lat="26.385962" lon="100.196328">
<time>2016-10-07T06:55:56Z</time></trkpt>
<trkpt lat="26.386062" lon="100.196358">
<time>2016-10-07T06:55:57Z</time></trkpt>
<trkpt lat="26.386152" lon="100.196378">
<time>2016-10-07T06:55:58Z</time></trkpt>
<trkpt lat="26.386252" lon="100.196398">
<time>2016-10-07T06:55:59Z</time></trkpt>
<trkpt lat="26.386342" lon="100.196388">
<time>2016-10-07T06:56:00Z</time></trkpt>
<trkpt lat="26.386452" lon="100.196378">
<time>2016-10-07T06:56:01Z</time></trkpt>
<trkpt lat="26.386552" lon="100.196358">
<time>2016-10-07T06:56:02Z</time></trkpt>
<trkpt lat="26.386632" lon="100.196328">
<time>2016-10-07T06:56:03Z</time></trkpt>
<trkpt lat="26.386732" lon="100.196288">
<time>2016-10-07T06:56:04Z</time></trkpt>
<trkpt lat="26.386832" lon="100.196238">
<time>2016-10-07T06:56:05Z</time></trkpt>
<trkpt lat="26.387022" lon="100.196117">
<time>2016-10-07T06:56:06Z</time></trkpt>
<trkpt lat="26.387222" lon="100.195987">
<time>2016-10-07T06:56:07Z</time></trkpt>
<trkpt lat="26.387402" lon="100.195867">
<time>2016-10-07T06:56:08Z</time></trkpt>
<trkpt lat="26.387502" lon="100.195797">
<time>2016-10-07T06:56:09Z</time></trkpt>
<trkpt lat="26.387652" lon="100.195686">
<time>2016-10-07T06:56:10Z</time></trkpt>
<trkpt lat="26.387792" lon="100.195606">
<time>2016-10-07T06:56:11Z</time></trkpt>
<trkpt lat="26.387932" lon="100.195526">
<time>2016-10-07T06:56:12Z</time></trkpt>
<trkpt lat="26.388042" lon="100.195476">
<time>2016-10-07T06:56:13Z</time></trkpt>
<trkpt lat="26.388162" lon="100.195436">
<time>2016-10-07T06:56:14Z</time></trkpt>
<trkpt lat="26.388262" lon="100.195416">
<time>2016-10-07T06:56:15Z</time></trkpt>
<trkpt lat="26.388362" lon="100.195406">
<time>2016-10-07T06:56:16Z</time></trkpt>
<trkpt lat="26.388452" lon="100.195406">
<time>2016-10-07T06:56:17Z</time></trkpt>
<trkpt lat="26.388542" lon="100.195416">
<time>2016-10-07T06:56:18Z</time></trkpt>
<trkpt lat="26.388712" lon="100.195446">
<time>2016-10-07T06:56:19Z</time></trkpt>
<trkpt lat="26.388882" lon="100.195496">
<time>2016-10-07T06:56:20Z</time></trkpt>
<trkpt lat="26.389082" lon="100.195566">
<time>2016-10-07T06:56:21Z</time></trkpt>
<trkpt lat="26.389382" lon="100.195666">
<time>2016-10-07T06:56:22Z</time></trkpt>
<trkpt lat="26.389693" lon="100.195767">
<time>2016-10-07T06:56:23Z</time></trkpt>
<trkpt lat="26.389953" lon="100.195857">
<time>2016-10-07T06:56:24Z</time></trkpt>
<trkpt lat="26.390293" lon="100.195957">
<time>2016-10-07T06:56:25Z</time></trkpt>
<trkpt lat="26.390584" lon="100.196057">
<time>2016-10-07T06:56:26Z</time></trkpt>
<trkpt lat="26.390884" lon="100.196147">
<time>2016-10-07T06:56:27Z</time></trkpt>
<trkpt lat="26.391164" lon="100.196237">
<time>2016-10-07T06:56:28Z</time></trkpt>
<trkpt lat="26.391504" lon="100.196358">
<time>2016-10-07T06:56:29Z</time></trkpt>
<trkpt lat="26.391655" lon="100.196408">
<time>2016-10-07T06:56:30Z</time></trkpt>
<trkpt lat="26.391795" lon="100.196448">
<time>2016-10-07T06:56:31Z</time></trkpt>
<trkpt lat="26.391945" lon="100.196468">
<time>2016-10-07T06:56:32Z</time></trkpt>
<trkpt lat="26.392065" lon="100.196478">
<time>2016-10-07T06:56:33Z</time></trkpt>
<trkpt lat="26.392155" lon="100.196468">
<time>2016-10-07T06:56:34Z</time></trkpt>
<trkpt lat="26.392235" lon="100.196458">
<time>2016-10-07T06:56:35Z</time></trkpt>
<trkpt lat="26.392315" lon="100.196438">
<time>2016-10-07T06:56:36Z</time></trkpt>
<trkpt lat="26.392435" lon="100.196388">
<time>2016-10-07T06:56:37Z</time></trkpt>
<trkpt lat="26.392535" lon="100.196338">
<time>2016-10-07T06:56:38Z</time></trkpt>
<trkpt lat="26.392635" lon="100.196277">
<time>2016-10-07T06:56:39Z</time></trkpt>
<trkpt lat="26.392725" lon="100.196197">
<time>2016-10-07T06:56:40Z</time></trkpt>
<trkpt lat="26.392795" lon="100.196137">
<time>2016-10-07T06:56:41Z</time></trkpt>
<trkpt lat="26.392884" lon="100.196047">
<time>2016-10-07T06:56:42Z</time></trkpt>
<trkpt lat="26.393074" lon="100.195827">
<time>2016-10-07T06:56:43Z</time></trkpt>
<trkpt lat="26.393274" lon="100.195586">
<time>2016-10-07T06:56:44Z</time></trkpt>
<trkpt lat="26.393474" lon="100.195356">
<time>2016-10-07T06:56:45Z</time></trkpt>
<trkpt lat="26.393733" lon="100.195055">
<time>2016-10-07T06:56:46Z</time></trkpt>
<trkpt lat="26.393913" lon="100.194845">
<time>2016-10-07T06:56:47Z</time></trkpt>
<trkpt lat="26.394063" lon="100.194674">
<time>2016-10-07T06:56:48Z</time></trkpt>
<trkpt lat="26.394222" lon="100.194494">
<time>2016-10-07T06:56:49Z</time></trkpt>
<trkpt lat="26.394322" lon="100.194384">
<time>2016-10-07T06:56:50Z</time></trkpt>
<trkpt lat="26.394362" lon="100.194354">
<time>2016-10-07T06:56:51Z</time></trkpt>
<trkpt lat="26.394442" lon="100.194284">
<time>2016-10-07T06:56:52Z</time></trkpt>
<trkpt lat="26.394512" lon="100.194234">
<time>2016-10-07T06:56:53Z</time></trkpt>
<trkpt lat="26.394582" lon="100.194194">
<time>2016-10-07T06:56:54Z</time></trkpt>
<trkpt lat="26.394682" lon="100.194153">
<time>2016-10-07T06:56:55Z</time></trkpt>
<trkpt lat="26.394782" lon="100.194133">
<time>2016-10-07T06:56:56Z</time></trkpt>
<trkpt lat="26.394842" lon="100.194123">
<time>2016-10-07T06:56:57Z</time></trkpt>
<trkpt lat="26.394972" lon="100.194123">
<time>2016-10-07T06:56:58Z</time></trkpt>
<trkpt lat="26.395082" lon="100.194123">
<time>2016-10-07T06:56:59Z</time></trkpt>
<trkpt lat="26.395362" lon="100.194153">
<time>2016-10-07T06:57:00Z</time></trkpt>
<trkpt lat="26.395552" lon="100.194173">
<time>2016-10-07T06:57:01Z</time></trkpt>
<trkpt lat="26.395743" lon="100.194204">
<time>2016-10-07T06:57:02Z</time></trkpt>
<trkpt lat="26.395943" lon="100.194224">
<time>2016-10-07T06:57:03Z</time></trkpt>
<trkpt lat="26.396113" lon="100.194234">
<time>2016-10-07T06:57:04Z</time></trkpt>
<trkpt lat="26.396243" lon="100.194244">
<time>2016-10-07T06:57:05Z</time></trkpt>
<trkpt lat="26.396393" lon="100.194224">
<time>2016-10-07T06:57:06Z</time></trkpt>
<trkpt lat="26.396513" lon="100.194214">
<time>2016-10-07T06:57:07Z</time></trkpt>
<trkpt lat="26.396663" lon="100.194163">
<time>2016-10-07T06:57:08Z</time></trkpt>
<trkpt lat="26.396863" lon="100.194083">
<time>2016-10-07T06:57:09Z</time></trkpt>
<trkpt lat="26.397123" lon="100.193963">
<time>2016-10-07T06:57:10Z</time></trkpt>
<trkpt lat="26.399312" lon="100.192901">
<time>2016-10-07T06:57:11Z</time></trkpt>
<trkpt lat="26.399472" lon="100.192811">
<time>2016-10-07T06:57:12Z</time></trkpt>
<trkpt lat="26.399612" lon="100.192731">
<time>2016-10-07T06:57:13Z</time></trkpt>
<trkpt lat="26.399741" lon="100.19263">
<time>2016-10-07T06:57:14Z</time></trkpt>
<trkpt lat="26.399861" lon="100.19254">
<time>2016-10-07T06:57:15Z</time></trkpt>
<trkpt lat="26.399971" lon="100.19245">
<time>2016-10-07T06:57:16Z</time></trkpt>
<trkpt lat="26.400051" lon="100.19238">
<time>2016-10-07T06:57:17Z</time></trkpt>
<trkpt lat="26.400061" lon="100.19237">
<time>2016-10-07T06:57:18Z</time></trkpt>
<trkpt lat="26.400191" lon="100.19224">
<time>2016-10-07T06:57:19Z</time></trkpt>
<trkpt lat="26.400411" lon="100.191999">
<time>2016-10-07T06:57:20Z</time></trkpt>
<trkpt lat="26.40064" lon="100.191779">
<time>2016-10-07T06:57:21Z</time></trkpt>
<trkpt lat="26.40081" lon="100.191598">
<time>2016-10-07T06:57:22Z</time></trkpt>
<trkpt lat="26.40099" lon="100.191408">
<time>2016-10-07T06:57:23Z</time></trkpt>
<trkpt lat="26.40109" lon="100.191308">
<time>2016-10-07T06:57:24Z</time></trkpt>
<trkpt lat="26.401319" lon="100.191108">
<time>2016-10-07T06:57:25Z</time></trkpt>
<trkpt lat="26.401589" lon="100.190897">
<time>2016-10-07T06:57:26Z</time></trkpt>
<trkpt lat="26.401729" lon="100.190807">
<time>2016-10-07T06:57:27Z</time></trkpt>
<trkpt lat="26.401909" lon="100.190697">
<time>2016-10-07T06:57:28Z</time></trkpt>
<trkpt lat="26.402209" lon="100.190516">
<time>2016-10-07T06:57:29Z</time></trkpt>
<trkpt lat="26.402509" lon="100.190336">
<time>2016-10-07T06:57:30Z</time></trkpt>
<trkpt lat="26.402838" lon="100.190146">
<time>2016-10-07T06:57:31Z</time></trkpt>
<trkpt lat="26.403128" lon="100.189965">
<time>2016-10-07T06:57:32Z</time></trkpt>
<trkpt lat="26.403488" lon="100.189765">
<time>2016-10-07T06:57:33Z</time></trkpt>
<trkpt lat="26.403778" lon="100.189635">
<time>2016-10-07T06:57:34Z</time></trkpt>
<trkpt lat="26.404098" lon="100.189524">
<time>2016-10-07T06:57:35Z</time></trkpt>
<trkpt lat="26.404308" lon="100.189484">
<time>2016-10-07T06:57:36Z</time></trkpt>
<trkpt lat="26.404488" lon="100.189444">
<time>2016-10-07T06:57:37Z</time></trkpt>
<trkpt lat="26.404758" lon="100.189414">
<time>2016-10-07T06:57:38Z</time></trkpt>
<trkpt lat="26.404848" lon="100.189404">
<time>2016-10-07T06:57:39Z</time></trkpt>
<trkpt lat="26.405168" lon="100.189364">
<time>2016-10-07T06:57:40Z</time></trkpt>
<trkpt lat="26.405528" lon="100.189324">
<time>2016-10-07T06:57:41Z</time></trkpt>
<trkpt lat="26.405898" lon="100.189284">
<time>2016-10-07T06:57:42Z</time></trkpt>
<trkpt lat="26.406218" lon="100.189244">
<time>2016-10-07T06:57:43Z</time></trkpt>
<trkpt lat="26.406518" lon="100.189204">
<time>2016-10-07T06:57:44Z</time></trkpt>
<trkpt lat="26.406888" lon="100.189164">
<time>2016-10-07T06:57:45Z</time></trkpt>
<trkpt lat="26.407188" lon="100.189123">
<time>2016-10-07T06:57:46Z</time></trkpt>
<trkpt lat="26.407388" lon="100.189093">
<time>2016-10-07T06:57:47Z</time></trkpt>
<trkpt lat="26.407588" lon="100.189043">
<time>2016-10-07T06:57:48Z</time></trkpt>
<trkpt lat="26.407728" lon="100.189003">
<time>2016-10-07T06:57:49Z</time></trkpt>
<trkpt lat="26.407908" lon="100.188933">
<time>2016-10-07T06:57:50Z</time></trkpt>
<trkpt lat="26.407988" lon="100.188893">
<time>2016-10-07T06:57:51Z</time></trkpt>
<trkpt lat="26.408128" lon="100.188833">
<time>2016-10-07T06:57:52Z</time></trkpt>
<trkpt lat="26.408288" lon="100.188743">
<time>2016-10-07T06:57:53Z</time></trkpt>
<trkpt lat="26.408538" lon="100.188592">
<time>2016-10-07T06:57:54Z</time></trkpt>
<trkpt lat="26.408698" lon="100.188492">
<time>2016-10-07T06:57:55Z</time></trkpt>
<trkpt lat="26.408868" lon="100.188392">
<time>2016-10-07T06:57:56Z</time></trkpt>
<trkpt lat="26.408988" lon="100.188312">
<time>2016-10-07T06:57:57Z</time></trkpt>
<trkpt lat="26.409107" lon="100.188242">
<time>2016-10-07T06:57:58Z</time></trkpt>
<trkpt lat="26.409277" lon="100.188121">
<time>2016-10-07T06:57:59Z</time></trkpt>
<trkpt lat="26.409377" lon="100.188041">
<time>2016-10-07T06:58:00Z</time></trkpt>
<trkpt lat="26.409497" lon="100.187941">
<time>2016-10-07T06:58:01Z</time></trkpt>
<trkpt lat="26.409607" lon="100.187841">
<time>2016-10-07T06:58:02Z</time></trkpt>
<trkpt lat="26.409707" lon="100.187721">
<time>2016-10-07T06:58:03Z</time></trkpt>
<trkpt lat="26.409826" lon="100.18755">
<time>2016-10-07T06:58:04Z</time></trkpt>
<trkpt lat="26.409926" lon="100.18737">
<time>2016-10-07T06:58:05Z</time></trkpt>
<trkpt lat="26.410016" lon="100.18715">
<time>2016-10-07T06:58:06Z</time></trkpt>
<trkpt lat="26.410056" lon="100.187039">
<time>2016-10-07T06:58:07Z</time></trkpt>
<trkpt lat="26.410125" lon="100.186789">
<time>2016-10-07T06:58:08Z</time></trkpt>
<trkpt lat="26.410225" lon="100.186468">
<time>2016-10-07T06:58:09Z</time></trkpt>
<trkpt lat="26.410265" lon="100.186378">
<time>2016-10-07T06:58:10Z</time></trkpt>
<trkpt lat="26.410434" lon="100.185967">
<time>2016-10-07T06:58:11Z</time></trkpt>
<trkpt lat="26.410534" lon="100.185787">
<time>2016-10-07T06:58:12Z</time></trkpt>
<trkpt lat="26.410713" lon="100.185516">
<time>2016-10-07T06:58:13Z</time></trkpt>
<trkpt lat="26.410833" lon="100.185366">
<time>2016-10-07T06:58:14Z</time></trkpt>
<trkpt lat="26.410913" lon="100.185276">
<time>2016-10-07T06:58:15Z</time></trkpt>
<trkpt lat="26.410983" lon="100.185216">
<time>2016-10-07T06:58:16Z</time></trkpt>
<trkpt lat="26.411043" lon="100.185176">
<time>2016-10-07T06:58:17Z</time></trkpt>
<trkpt lat="26.411123" lon="100.185145">
<time>2016-10-07T06:58:18Z</time></trkpt>
<trkpt lat="26.411223" lon="100.185125">
<time>2016-10-07T06:58:19Z</time></trkpt>
<trkpt lat="26.411293" lon="100.185115">
<time>2016-10-07T06:58:20Z</time></trkpt>
<trkpt lat="26.411323" lon="100.185115">
<time>2016-10-07T06:58:21Z</time></trkpt>
<trkpt lat="26.411393" lon="100.185125">
<time>2016-10-07T06:58:22Z</time></trkpt>
<trkpt lat="26.411473" lon="100.185155">
<time>2016-10-07T06:58:23Z</time></trkpt>
<trkpt lat="26.411563" lon="100.185186">
<time>2016-10-07T06:58:24Z</time></trkpt>
<trkpt lat="26.411703" lon="100.185266">
<time>2016-10-07T06:58:25Z</time></trkpt>
<trkpt lat="26.411953" lon="100.185426">
<time>2016-10-07T06:58:26Z</time></trkpt>
<trkpt lat="26.412014" lon="100.185466">
<time>2016-10-07T06:58:27Z</time></trkpt>
<trkpt lat="26.412234" lon="100.185626">
<time>2016-10-07T06:58:28Z</time></trkpt>
<trkpt lat="26.412534" lon="100.185857">
<time>2016-10-07T06:58:29Z</time></trkpt>
<trkpt lat="26.412795" lon="100.186067">
<time>2016-10-07T06:58:30Z</time></trkpt>
<trkpt lat="26.413136" lon="100.186328">
<time>2016-10-07T06:58:31Z</time></trkpt>
<trkpt lat="26.413416" lon="100.186548">
<time>2016-10-07T06:58:32Z</time></trkpt>
<trkpt lat="26.413877" lon="100.186859">
<time>2016-10-07T06:58:33Z</time></trkpt>
<trkpt lat="26.413977" lon="100.186939">
<time>2016-10-07T06:58:34Z</time></trkpt>
<trkpt lat="26.414037" lon="100.186969">
<time>2016-10-07T06:58:35Z</time></trkpt>
<trkpt lat="26.414267" lon="100.187129">
<time>2016-10-07T06:58:36Z</time></trkpt>
<trkpt lat="26.414558" lon="100.18732">
<time>2016-10-07T06:58:37Z</time></trkpt>
<trkpt lat="26.414708" lon="100.18741">
<time>2016-10-07T06:58:38Z</time></trkpt>
<trkpt lat="26.414838" lon="100.18749">
<time>2016-10-07T06:58:39Z</time></trkpt>
<trkpt lat="26.414928" lon="100.18753">
<time>2016-10-07T06:58:40Z</time></trkpt>
<trkpt lat="26.415008" lon="100.18756">
<time>2016-10-07T06:58:41Z</time></trkpt>
<trkpt lat="26.415119" lon="100.18759">
<time>2016-10-07T06:58:42Z</time></trkpt>
<trkpt lat="26.415139" lon="100.18759">
<time>2016-10-07T06:58:43Z</time></trkpt>
<trkpt lat="26.415249" lon="100.18761">
<time>2016-10-07T06:58:44Z</time></trkpt>
<trkpt lat="26.415379" lon="100.18761">
<time>2016-10-07T06:58:45Z</time></trkpt>
<trkpt lat="26.415469" lon="100.1876">
<time>2016-10-07T06:58:46Z</time></trkpt>
<trkpt lat="26.415569" lon="100.18758">
<time>2016-10-07T06:58:47Z</time></trkpt>
<trkpt lat="26.415669" lon="100.18755">
<time>2016-10-07T06:58:48Z</time></trkpt>
<trkpt lat="26.415789" lon="100.18751">
<time>2016-10-07T06:58:49Z</time></trkpt>
<trkpt lat="26.415919" lon="100.18747">
<time>2016-10-07T06:58:50Z</time></trkpt>
<trkpt lat="26.416139" lon="100.18739">
<time>2016-10-07T06:58:51Z</time></trkpt>
<trkpt lat="26.416408" lon="100.18729">
<time>2016-10-07T06:58:52Z</time></trkpt>
<trkpt lat="26.416688" lon="100.187189">
<time>2016-10-07T06:58:53Z</time></trkpt>
<trkpt lat="26.416828" lon="100.187119">
<time>2016-10-07T06:58:54Z</time></trkpt>
<trkpt lat="26.416938" lon="100.187059">
<time>2016-10-07T06:58:55Z</time></trkpt>
<trkpt lat="26.417148" lon="100.186909">
<time>2016-10-07T06:58:56Z</time></trkpt>
<trkpt lat="26.417248" lon="100.186809">
<time>2016-10-07T06:58:57Z</time></trkpt>
<trkpt lat="26.417328" lon="100.186708">
<time>2016-10-07T06:58:58Z</time></trkpt>
<trkpt lat="26.417457" lon="100.186488">
<time>2016-10-07T06:58:59Z</time></trkpt>
<trkpt lat="26.417587" lon="100.186238">
<time>2016-10-07T06:59:00Z</time></trkpt>
<trkpt lat="26.417717" lon="100.186007">
<time>2016-10-07T06:59:01Z</time></trkpt>
<trkpt lat="26.417866" lon="100.185757">
<time>2016-10-07T06:59:02Z</time></trkpt>
<trkpt lat="26.418026" lon="100.185516">
<time>2016-10-07T06:59:03Z</time></trkpt>
<trkpt lat="26.418176" lon="100.185346">
<time>2016-10-07T06:59:04Z</time></trkpt>
<trkpt lat="26.418335" lon="100.185205">
<time>2016-10-07T06:59:05Z</time></trkpt>
<trkpt lat="26.418515" lon="100.185075">
<time>2016-10-07T06:59:06Z</time></trkpt>
<trkpt lat="26.418705" lon="100.184985">
<time>2016-10-07T06:59:07Z</time></trkpt>
<trkpt lat="26.418745" lon="100.184965">
<time>2016-10-07T06:59:08Z</time></trkpt>
<trkpt lat="26.418965" lon="100.184855">
<time>2016-10-07T06:59:09Z</time></trkpt>
<trkpt lat="26.419205" lon="100.184744">
<time>2016-10-07T06:59:10Z</time></trkpt>
<trkpt lat="26.419435" lon="100.184634">
<time>2016-10-07T06:59:11Z</time></trkpt>
<trkpt lat="26.419655" lon="100.184514">
<time>2016-10-07T06:59:12Z</time></trkpt>
<trkpt lat="26.419905" lon="100.184414">
<time>2016-10-07T06:59:13Z</time></trkpt>
<trkpt lat="26.420134" lon="100.184283">
<time>2016-10-07T06:59:14Z</time></trkpt>
<trkpt lat="26.420374" lon="100.184173">
<time>2016-10-07T06:59:15Z</time></trkpt>
<trkpt lat="26.420614" lon="100.184063">
<time>2016-10-07T06:59:16Z</time></trkpt>
<trkpt lat="26.420864" lon="100.183953">
<time>2016-10-07T06:59:17Z</time></trkpt>
<trkpt lat="26.421134" lon="100.183893">
<time>2016-10-07T06:59:18Z</time></trkpt>
<trkpt lat="26.421434" lon="100.183873">
<time>2016-10-07T06:59:19Z</time></trkpt>
<trkpt lat="26.421734" lon="100.183913">
<time>2016-10-07T06:59:20Z</time></trkpt>
<trkpt lat="26.421975" lon="100.183993">
<time>2016-10-07T06:59:21Z</time></trkpt>
<trkpt lat="26.422285" lon="100.184103">
<time>2016-10-07T06:59:22Z</time></trkpt>
<trkpt lat="26.422585" lon="100.184213">
<time>2016-10-07T06:59:23Z</time></trkpt>
<trkpt lat="26.422936" lon="100.184344">
<time>2016-10-07T06:59:24Z</time></trkpt>
<trkpt lat="26.423236" lon="100.184454">
<time>2016-10-07T06:59:25Z</time></trkpt>
<trkpt lat="26.423606" lon="100.184574">
<time>2016-10-07T06:59:26Z</time></trkpt>
<trkpt lat="26.423977" lon="100.184714">
<time>2016-10-07T06:59:27Z</time></trkpt>
<trkpt lat="26.424357" lon="100.184845">
<time>2016-10-07T06:59:28Z</time></trkpt>
<trkpt lat="26.424727" lon="100.184975">
<time>2016-10-07T06:59:29Z</time></trkpt>
<trkpt lat="26.425068" lon="100.185095">
<time>2016-10-07T06:59:30Z</time></trkpt>
<trkpt lat="26.425378" lon="100.185205">
<time>2016-10-07T06:59:31Z</time></trkpt>
<trkpt lat="26.425668" lon="100.185285">
<time>2016-10-07T06:59:32Z</time></trkpt>
<trkpt lat="26.425968" lon="100.185335">
<time>2016-10-07T06:59:33Z</time></trkpt>
<trkpt lat="26.426279" lon="100.185345">
<time>2016-10-07T06:59:34Z</time></trkpt>
<trkpt lat="26.426509" lon="100.185356">
<time>2016-10-07T06:59:35Z</time></trkpt>
<trkpt lat="26.426809" lon="100.185366">
<time>2016-10-07T06:59:36Z</time></trkpt>
<trkpt lat="26.427059" lon="100.185345">
<time>2016-10-07T06:59:37Z</time></trkpt>
<trkpt lat="26.427189" lon="100.185335">
<time>2016-10-07T06:59:38Z</time></trkpt>
<trkpt lat="26.427319" lon="100.185325">
<time>2016-10-07T06:59:39Z</time></trkpt>
<trkpt lat="26.427529" lon="100.185285">
<time>2016-10-07T06:59:40Z</time></trkpt>
<trkpt lat="26.427749" lon="100.185195">
<time>2016-10-07T06:59:41Z</time></trkpt>
<trkpt lat="26.427939" lon="100.185095">
<time>2016-10-07T06:59:42Z</time></trkpt>
<trkpt lat="26.428169" lon="100.184985">
<time>2016-10-07T06:59:43Z</time></trkpt>
<trkpt lat="26.428388" lon="100.184844">
<time>2016-10-07T06:59:44Z</time></trkpt>
<trkpt lat="26.428598" lon="100.184704">
<time>2016-10-07T06:59:45Z</time></trkpt>
<trkpt lat="26.428818" lon="100.184524">
<time>2016-10-07T06:59:46Z</time></trkpt>
<trkpt lat="26.428998" lon="100.184373">
<time>2016-10-07T06:59:47Z</time></trkpt>
<trkpt lat="26.429208" lon="100.184193">
<time>2016-10-07T06:59:48Z</time></trkpt>
<trkpt lat="26.429437" lon="100.183973">
<time>2016-10-07T06:59:49Z</time></trkpt>
<trkpt lat="26.429667" lon="100.183762">
<time>2016-10-07T06:59:50Z</time></trkpt>
<trkpt lat="26.429927" lon="100.183502">
<time>2016-10-07T06:59:51Z</time></trkpt>
<trkpt lat="26.430136" lon="100.183241">
<time>2016-10-07T06:59:52Z</time></trkpt>
<trkpt lat="26.430346" lon="100.18293">
<time>2016-10-07T06:59:53Z</time></trkpt>
<trkpt lat="26.430505" lon="100.1826">
<time>2016-10-07T06:59:54Z</time></trkpt>
<trkpt lat="26.430625" lon="100.182329">
<time>2016-10-07T06:59:55Z</time></trkpt>
<trkpt lat="26.430804" lon="100.181968">
<time>2016-10-07T06:59:56Z</time></trkpt>
<trkpt lat="26.430894" lon="100.181738">
<time>2016-10-07T06:59:57Z</time></trkpt>
<trkpt lat="26.431063" lon="100.181427">
<time>2016-10-07T06:59:58Z</time></trkpt>
<trkpt lat="26.431113" lon="100.181307">
<time>2016-10-07T06:59:59Z</time></trkpt>
<trkpt lat="26.431233" lon="100.181057">
<time>2016-10-07T07:00:00Z</time></trkpt>
<trkpt lat="26.431392" lon="100.180746">
<time>2016-10-07T07:00:01Z</time></trkpt>
<trkpt lat="26.431551" lon="100.180405">
<time>2016-10-07T07:00:02Z</time></trkpt>
<trkpt lat="26.431731" lon="100.180024">
<time>2016-10-07T07:00:03Z</time></trkpt>
<trkpt lat="26.43193" lon="100.179624">
<time>2016-10-07T07:00:04Z</time></trkpt>
<trkpt lat="26.43208" lon="100.179303">
<time>2016-10-07T07:00:05Z</time></trkpt>
<trkpt lat="26.432239" lon="100.178972">
<time>2016-10-07T07:00:06Z</time></trkpt>
<trkpt lat="26.432349" lon="100.178732">
<time>2016-10-07T07:00:07Z</time></trkpt>
<trkpt lat="26.432757" lon="100.17789">
<time>2016-10-07T07:00:08Z</time></trkpt>
<trkpt lat="26.432877" lon="100.177639">
<time>2016-10-07T07:00:09Z</time></trkpt>
<trkpt lat="26.433554" lon="100.176236">
<time>2016-10-07T07:00:10Z</time></trkpt>
<trkpt lat="26.433694" lon="100.175916">
<time>2016-10-07T07:00:11Z</time></trkpt>
<trkpt lat="26.433823" lon="100.175585">
<time>2016-10-07T07:00:12Z</time></trkpt>
<trkpt lat="26.434122" lon="100.174613">
<time>2016-10-07T07:00:13Z</time></trkpt>
<trkpt lat="26.434241" lon="100.174262">
<time>2016-10-07T07:00:14Z</time></trkpt>
<trkpt lat="26.43433" lon="100.173952">
<time>2016-10-07T07:00:15Z</time></trkpt>
<trkpt lat="26.4344" lon="100.173641">
<time>2016-10-07T07:00:16Z</time></trkpt>
<trkpt lat="26.434479" lon="100.17326">
<time>2016-10-07T07:00:17Z</time></trkpt>
<trkpt lat="26.434529" lon="100.17308">
<time>2016-10-07T07:00:18Z</time></trkpt>
<trkpt lat="26.434569" lon="100.17296">
<time>2016-10-07T07:00:19Z</time></trkpt>
<trkpt lat="26.434648" lon="100.172749">
<time>2016-10-07T07:00:20Z</time></trkpt>
<trkpt lat="26.434758" lon="100.172569">
<time>2016-10-07T07:00:21Z</time></trkpt>
<trkpt lat="26.434828" lon="100.172468">
<time>2016-10-07T07:00:22Z</time></trkpt>
<trkpt lat="26.434908" lon="100.172378">
<time>2016-10-07T07:00:23Z</time></trkpt>
<trkpt lat="26.435027" lon="100.172248">
<time>2016-10-07T07:00:24Z</time></trkpt>
<trkpt lat="26.435137" lon="100.172138">
<time>2016-10-07T07:00:25Z</time></trkpt>
<trkpt lat="26.435457" lon="100.171827">
<time>2016-10-07T07:00:26Z</time></trkpt>
<trkpt lat="26.435537" lon="100.171727">
<time>2016-10-07T07:00:27Z</time></trkpt>
<trkpt lat="26.435576" lon="100.171657">
<time>2016-10-07T07:00:28Z</time></trkpt>
<trkpt lat="26.435626" lon="100.171547">
<time>2016-10-07T07:00:29Z</time></trkpt>
<trkpt lat="26.435656" lon="100.171466">
<time>2016-10-07T07:00:30Z</time></trkpt>
<trkpt lat="26.435686" lon="100.171386">
<time>2016-10-07T07:00:31Z</time></trkpt>
<trkpt lat="26.435716" lon="100.171256">
<time>2016-10-07T07:00:32Z</time></trkpt>
<trkpt lat="26.435736" lon="100.171146">
<time>2016-10-07T07:00:33Z</time></trkpt>
<trkpt lat="26.435745" lon="100.170985">
<time>2016-10-07T07:00:34Z</time></trkpt>
<trkpt lat="26.435755" lon="100.170775">
<time>2016-10-07T07:00:35Z</time></trkpt>
<trkpt lat="26.435755" lon="100.170665">
<time>2016-10-07T07:00:36Z</time></trkpt>
<trkpt lat="26.435764" lon="100.170464">
<time>2016-10-07T07:00:37Z</time></trkpt>
<trkpt lat="26.435784" lon="100.170344">
<time>2016-10-07T07:00:38Z</time></trkpt>
<trkpt lat="26.435814" lon="100.170204">
<time>2016-10-07T07:00:39Z</time></trkpt>
<trkpt lat="26.435854" lon="100.170063">
<time>2016-10-07T07:00:40Z</time></trkpt>
<trkpt lat="26.435883" lon="100.169943">
<time>2016-10-07T07:00:41Z</time></trkpt>
<trkpt lat="26.435953" lon="100.169823">
<time>2016-10-07T07:00:42Z</time></trkpt>
<trkpt lat="26.436013" lon="100.169733">
<time>2016-10-07T07:00:43Z</time></trkpt>
<trkpt lat="26.436093" lon="100.169642">
<time>2016-10-07T07:00:44Z</time></trkpt>
<trkpt lat="26.436163" lon="100.169602">
<time>2016-10-07T07:00:45Z</time></trkpt>
<trkpt lat="26.436243" lon="100.169572">
<time>2016-10-07T07:00:46Z</time></trkpt>
<trkpt lat="26.436333" lon="100.169562">
<time>2016-10-07T07:00:47Z</time></trkpt>
<trkpt lat="26.436403" lon="100.169572">
<time>2016-10-07T07:00:48Z</time></trkpt>
<trkpt lat="26.436503" lon="100.169582">
<time>2016-10-07T07:00:49Z</time></trkpt>
<trkpt lat="26.436713" lon="100.169632">
<time>2016-10-07T07:00:50Z</time></trkpt>
<trkpt lat="26.436853" lon="100.169652">
<time>2016-10-07T07:00:51Z</time></trkpt>
<trkpt lat="26.436943" lon="100.169652">
<time>2016-10-07T07:00:52Z</time></trkpt>
<trkpt lat="26.437053" lon="100.169622">
<time>2016-10-07T07:00:53Z</time></trkpt>
<trkpt lat="26.437123" lon="100.169592">
<time>2016-10-07T07:00:54Z</time></trkpt>
<trkpt lat="26.437173" lon="100.169562">
<time>2016-10-07T07:00:55Z</time></trkpt>
<trkpt lat="26.437243" lon="100.169512">
<time>2016-10-07T07:00:56Z</time></trkpt>
<trkpt lat="26.437293" lon="100.169442">
<time>2016-10-07T07:00:57Z</time></trkpt>
<trkpt lat="26.437363" lon="100.169352">
<time>2016-10-07T07:00:58Z</time></trkpt>
<trkpt lat="26.437502" lon="100.169151">
<time>2016-10-07T07:00:59Z</time></trkpt>
<trkpt lat="26.437652" lon="100.168911">
<time>2016-10-07T07:01:00Z</time></trkpt>
<trkpt lat="26.437742" lon="100.16872">
<time>2016-10-07T07:01:01Z</time></trkpt>
<trkpt lat="26.437782" lon="100.16863">
<time>2016-10-07T07:01:02Z</time></trkpt>
<trkpt lat="26.437801" lon="100.16857">
<time>2016-10-07T07:01:03Z</time></trkpt>
<trkpt lat="26.437811" lon="100.16848">
<time>2016-10-07T07:01:04Z</time></trkpt>
<trkpt lat="26.437821" lon="100.1684">
<time>2016-10-07T07:01:05Z</time></trkpt>
<trkpt lat="26.437811" lon="100.16832">
<time>2016-10-07T07:01:06Z</time></trkpt>
<trkpt lat="26.437801" lon="100.168219">
<time>2016-10-07T07:01:07Z</time></trkpt>
<trkpt lat="26.43776" lon="100.168039">
<time>2016-10-07T07:01:08Z</time></trkpt>
<trkpt lat="26.43773" lon="100.167909">
<time>2016-10-07T07:01:09Z</time></trkpt>
<trkpt lat="26.43771" lon="100.167778">
<time>2016-10-07T07:01:10Z</time></trkpt>
<trkpt lat="26.4377" lon="100.167658">
<time>2016-10-07T07:01:11Z</time></trkpt>
<trkpt lat="26.437709" lon="100.167538">
<time>2016-10-07T07:01:12Z</time></trkpt>
<trkpt lat="26.437739" lon="100.167418">
<time>2016-10-07T07:01:13Z</time></trkpt>
<trkpt lat="26.437789" lon="100.167307">
<time>2016-10-07T07:01:14Z</time></trkpt>
<trkpt lat="26.437909" lon="100.167097">
<time>2016-10-07T07:01:15Z</time></trkpt>
<trkpt lat="26.438048" lon="100.166887">
<time>2016-10-07T07:01:16Z</time></trkpt>
<trkpt lat="26.438238" lon="100.166616">
<time>2016-10-07T07:01:17Z</time></trkpt>
<trkpt lat="26.438398" lon="100.166396">
<time>2016-10-07T07:01:18Z</time></trkpt>
<trkpt lat="26.438567" lon="100.166145">
<time>2016-10-07T07:01:19Z</time></trkpt>
<trkpt lat="26.438707" lon="100.165874">
<time>2016-10-07T07:01:20Z</time></trkpt>
<trkpt lat="26.438836" lon="100.165604">
<time>2016-10-07T07:01:21Z</time></trkpt>
<trkpt lat="26.438956" lon="100.165313">
<time>2016-10-07T07:01:22Z</time></trkpt>
<trkpt lat="26.439045" lon="100.165063">
<time>2016-10-07T07:01:23Z</time></trkpt>
<trkpt lat="26.439135" lon="100.164812">
<time>2016-10-07T07:01:24Z</time></trkpt>
<trkpt lat="26.439214" lon="100.164582">
<time>2016-10-07T07:01:25Z</time></trkpt>
<trkpt lat="26.439264" lon="100.164451">
<time>2016-10-07T07:01:26Z</time></trkpt>
<trkpt lat="26.439324" lon="100.164331">
<time>2016-10-07T07:01:27Z</time></trkpt>
<trkpt lat="26.439394" lon="100.164201">
<time>2016-10-07T07:01:28Z</time></trkpt>
<trkpt lat="26.439464" lon="100.164111">
<time>2016-10-07T07:01:29Z</time></trkpt>
<trkpt lat="26.439573" lon="100.164031">
<time>2016-10-07T07:01:30Z</time></trkpt>
<trkpt lat="26.439683" lon="100.16397">
<time>2016-10-07T07:01:31Z</time></trkpt>
<trkpt lat="26.439903" lon="100.1639">
<time>2016-10-07T07:01:32Z</time></trkpt>
<trkpt lat="26.440163" lon="100.1639">
<time>2016-10-07T07:01:33Z</time></trkpt>
<trkpt lat="26.440414" lon="100.1639">
<time>2016-10-07T07:01:34Z</time></trkpt>
<trkpt lat="26.440614" lon="100.16389">
<time>2016-10-07T07:01:35Z</time></trkpt>
<trkpt lat="26.440774" lon="100.16388">
<time>2016-10-07T07:01:36Z</time></trkpt>
<trkpt lat="26.440934" lon="100.16384">
<time>2016-10-07T07:01:37Z</time></trkpt>
<trkpt lat="26.441074" lon="100.16377">
<time>2016-10-07T07:01:38Z</time></trkpt>
<trkpt lat="26.441233" lon="100.16367">
<time>2016-10-07T07:01:39Z</time></trkpt>
<trkpt lat="26.441413" lon="100.163489">
<time>2016-10-07T07:01:40Z</time></trkpt>
<trkpt lat="26.441673" lon="100.163229">
<time>2016-10-07T07:01:41Z</time></trkpt>
<trkpt lat="26.441902" lon="100.162998">
<time>2016-10-07T07:01:42Z</time></trkpt>
<trkpt lat="26.442062" lon="100.162838">
<time>2016-10-07T07:01:43Z</time></trkpt>
<trkpt lat="26.442132" lon="100.162748">
<time>2016-10-07T07:01:44Z</time></trkpt>
<trkpt lat="26.442202" lon="100.162658">
<time>2016-10-07T07:01:45Z</time></trkpt>
<trkpt lat="26.442301" lon="100.162467">
<time>2016-10-07T07:01:46Z</time></trkpt>
<trkpt lat="26.442381" lon="100.162287">
<time>2016-10-07T07:01:47Z</time></trkpt>
<trkpt lat="26.442451" lon="100.162106">
<time>2016-10-07T07:01:48Z</time></trkpt>
<trkpt lat="26.442541" lon="100.161916">
<time>2016-10-07T07:01:49Z</time></trkpt>
<trkpt lat="26.44266" lon="100.161726">
<time>2016-10-07T07:01:50Z</time></trkpt>
<trkpt lat="26.44279" lon="100.161565">
<time>2016-10-07T07:01:51Z</time></trkpt>
<trkpt lat="26.44288" lon="100.161445">
<time>2016-10-07T07:01:52Z</time></trkpt>
<trkpt lat="26.44296" lon="100.161355">
<time>2016-10-07T07:01:53Z</time></trkpt>
<trkpt lat="26.443059" lon="100.161255">
<time>2016-10-07T07:01:54Z</time></trkpt>
<trkpt lat="26.443149" lon="100.161164">
<time>2016-10-07T07:01:55Z</time></trkpt>
<trkpt lat="26.443289" lon="100.161024">
<time>2016-10-07T07:01:56Z</time></trkpt>
<trkpt lat="26.443499" lon="100.160844">
<time>2016-10-07T07:01:57Z</time></trkpt>
<trkpt lat="26.443719" lon="100.160683">
<time>2016-10-07T07:01:58Z</time></trkpt>
<trkpt lat="26.443928" lon="100.160523">
<time>2016-10-07T07:01:59Z</time></trkpt>
<trkpt lat="26.444108" lon="100.160383">
<time>2016-10-07T07:02:00Z</time></trkpt>
<trkpt lat="26.444338" lon="100.160232">
<time>2016-10-07T07:02:01Z</time></trkpt>
<trkpt lat="26.444528" lon="100.160122">
<time>2016-10-07T07:02:02Z</time></trkpt>
<trkpt lat="26.444738" lon="100.160012">
<time>2016-10-07T07:02:03Z</time></trkpt>
<trkpt lat="26.444918" lon="100.159932">
<time>2016-10-07T07:02:04Z</time></trkpt>
<trkpt lat="26.445078" lon="100.159872">
<time>2016-10-07T07:02:05Z</time></trkpt>
<trkpt lat="26.445228" lon="100.159812">
<time>2016-10-07T07:02:06Z</time></trkpt>
<trkpt lat="26.445327" lon="100.159761">
<time>2016-10-07T07:02:07Z</time></trkpt>
<trkpt lat="26.445427" lon="100.159721">
<time>2016-10-07T07:02:08Z</time></trkpt>
<trkpt lat="26.445567" lon="100.159681">
<time>2016-10-07T07:02:09Z</time></trkpt>
<trkpt lat="26.445727" lon="100.159611">
<time>2016-10-07T07:02:10Z</time></trkpt>
<trkpt lat="26.445837" lon="100.159571">
<time>2016-10-07T07:02:11Z</time></trkpt>
<trkpt lat="26.445947" lon="100.159521">
<time>2016-10-07T07:02:12Z</time></trkpt>
<trkpt lat="26.446047" lon="100.159481">
<time>2016-10-07T07:02:13Z</time></trkpt>
<trkpt lat="26.446137" lon="100.159431">
<time>2016-10-07T07:02:14Z</time></trkpt>
<trkpt lat="26.446247" lon="100.159401">
<time>2016-10-07T07:02:15Z</time></trkpt>
<trkpt lat="26.446367" lon="100.159351">
<time>2016-10-07T07:02:16Z</time></trkpt>
<trkpt lat="26.446517" lon="100.15929">
<time>2016-10-07T07:02:17Z</time></trkpt>
<trkpt lat="26.446697" lon="100.15923">
<time>2016-10-07T07:02:18Z</time></trkpt>
<trkpt lat="26.446907" lon="100.15914">
<time>2016-10-07T07:02:19Z</time></trkpt>
<trkpt lat="26.447147" lon="100.15905">
<time>2016-10-07T07:02:20Z</time></trkpt>
<trkpt lat="26.447427" lon="100.15899">
<time>2016-10-07T07:02:21Z</time></trkpt>
<trkpt lat="26.447687" lon="100.15898">
<time>2016-10-07T07:02:22Z</time></trkpt>
<trkpt lat="26.447967" lon="100.15898">
<time>2016-10-07T07:02:23Z</time></trkpt>
<trkpt lat="26.448227" lon="100.15906">
<time>2016-10-07T07:02:24Z</time></trkpt>
<trkpt lat="26.448487" lon="100.15918">
<time>2016-10-07T07:02:25Z</time></trkpt>
<trkpt lat="26.448708" lon="100.159341">
<time>2016-10-07T07:02:26Z</time></trkpt>
<trkpt lat="26.448898" lon="100.159511">
<time>2016-10-07T07:02:27Z</time></trkpt>
<trkpt lat="26.449109" lon="100.159731">
<time>2016-10-07T07:02:28Z</time></trkpt>
<trkpt lat="26.449269" lon="100.159912">
<time>2016-10-07T07:02:29Z</time></trkpt>
<trkpt lat="26.44945" lon="100.160132">
<time>2016-10-07T07:02:30Z</time></trkpt>
<trkpt lat="26.44963" lon="100.160343">
<time>2016-10-07T07:02:31Z</time></trkpt>
<trkpt lat="26.44984" lon="100.160583">
<time>2016-10-07T07:02:32Z</time></trkpt>
<trkpt lat="26.450041" lon="100.160804">
<time>2016-10-07T07:02:33Z</time></trkpt>
<trkpt lat="26.450191" lon="100.160944">
<time>2016-10-07T07:02:34Z</time></trkpt>
<trkpt lat="26.450352" lon="100.161084">
<time>2016-10-07T07:02:35Z</time></trkpt>
<trkpt lat="26.450542" lon="100.161214">
<time>2016-10-07T07:02:36Z</time></trkpt>
<trkpt lat="26.450802" lon="100.161395">
<time>2016-10-07T07:02:37Z</time></trkpt>
<trkpt lat="26.451003" lon="100.161545">
<time>2016-10-07T07:02:38Z</time></trkpt>
<trkpt lat="26.451223" lon="100.161695">
<time>2016-10-07T07:02:39Z</time></trkpt>
<trkpt lat="26.451443" lon="100.161846">
<time>2016-10-07T07:02:40Z</time></trkpt>
<trkpt lat="26.451724" lon="100.162056">
<time>2016-10-07T07:02:41Z</time></trkpt>
<trkpt lat="26.452225" lon="100.162407">
<time>2016-10-07T07:02:42Z</time></trkpt>
<trkpt lat="26.452345" lon="100.162487">
<time>2016-10-07T07:02:43Z</time></trkpt>
<trkpt lat="26.452525" lon="100.162617">
<time>2016-10-07T07:02:44Z</time></trkpt>
<trkpt lat="26.452685" lon="100.162727">
<time>2016-10-07T07:02:45Z</time></trkpt>
<trkpt lat="26.452846" lon="100.162848">
<time>2016-10-07T07:02:46Z</time></trkpt>
<trkpt lat="26.453046" lon="100.162988">
<time>2016-10-07T07:02:47Z</time></trkpt>
<trkpt lat="26.453186" lon="100.163088">
<time>2016-10-07T07:02:48Z</time></trkpt>
<trkpt lat="26.453367" lon="100.163218">
<time>2016-10-07T07:02:49Z</time></trkpt>
<trkpt lat="26.453567" lon="100.163359">
<time>2016-10-07T07:02:50Z</time></trkpt>
<trkpt lat="26.453737" lon="100.163479">
<time>2016-10-07T07:02:51Z</time></trkpt>
<trkpt lat="26.453957" lon="100.163619">
<time>2016-10-07T07:02:52Z</time></trkpt>
<trkpt lat="26.454178" lon="100.16378">
<time>2016-10-07T07:02:53Z</time></trkpt>
<trkpt lat="26.454438" lon="100.16395">
<time>2016-10-07T07:02:54Z</time></trkpt>
<trkpt lat="26.454659" lon="100.16407">
<time>2016-10-07T07:02:55Z</time></trkpt>
<trkpt lat="26.454969" lon="100.16416">
<time>2016-10-07T07:02:56Z</time></trkpt>
<trkpt lat="26.455259" lon="100.164211">
<time>2016-10-07T07:02:57Z</time></trkpt>
<trkpt lat="26.455669" lon="100.16421">
<time>2016-10-07T07:02:58Z</time></trkpt>
<trkpt lat="26.455979" lon="100.164231">
<time>2016-10-07T07:02:59Z</time></trkpt>
<trkpt lat="26.456299" lon="100.164241">
<time>2016-10-07T07:03:00Z</time></trkpt>
<trkpt lat="26.45663" lon="100.164271">
<time>2016-10-07T07:03:01Z</time></trkpt>
<trkpt lat="26.45693" lon="100.164281">
<time>2016-10-07T07:03:02Z</time></trkpt>
<trkpt lat="26.45718" lon="100.164291">
<time>2016-10-07T07:03:03Z</time></trkpt>
<trkpt lat="26.45739" lon="100.164351">
<time>2016-10-07T07:03:04Z</time></trkpt>
<trkpt lat="26.45767" lon="100.164451">
<time>2016-10-07T07:03:05Z</time></trkpt>
<trkpt lat="26.45777" lon="100.164501">
<time>2016-10-07T07:03:06Z</time></trkpt>
<trkpt lat="26.457901" lon="100.164571">
<time>2016-10-07T07:03:07Z</time></trkpt>
<trkpt lat="26.458211" lon="100.164822">
<time>2016-10-07T07:03:08Z</time></trkpt>
<trkpt lat="26.458391" lon="100.165012">
<time>2016-10-07T07:03:09Z</time></trkpt>
<trkpt lat="26.458562" lon="100.165253">
<time>2016-10-07T07:03:10Z</time></trkpt>
<trkpt lat="26.458733" lon="100.165523">
<time>2016-10-07T07:03:11Z</time></trkpt>
<trkpt lat="26.458923" lon="100.165824">
<time>2016-10-07T07:03:12Z</time></trkpt>
<trkpt lat="26.459124" lon="100.166144">
<time>2016-10-07T07:03:13Z</time></trkpt>
<trkpt lat="26.459304" lon="100.166425">
<time>2016-10-07T07:03:14Z</time></trkpt>
<trkpt lat="26.459495" lon="100.166696">
<time>2016-10-07T07:03:15Z</time></trkpt>
<trkpt lat="26.459706" lon="100.167016">
<time>2016-10-07T07:03:16Z</time></trkpt>
<trkpt lat="26.459846" lon="100.167247">
<time>2016-10-07T07:03:17Z</time></trkpt>
<trkpt lat="26.460017" lon="100.167487">
<time>2016-10-07T07:03:18Z</time></trkpt>
<trkpt lat="26.460207" lon="100.167778">
<time>2016-10-07T07:03:19Z</time></trkpt>
<trkpt lat="26.460408" lon="100.168079">
<time>2016-10-07T07:03:20Z</time></trkpt>
<trkpt lat="26.460588" lon="100.168279">
<time>2016-10-07T07:03:21Z</time></trkpt>
<trkpt lat="26.460839" lon="100.168509">
<time>2016-10-07T07:03:22Z</time></trkpt>
<trkpt lat="26.461019" lon="100.16866">
<time>2016-10-07T07:03:23Z</time></trkpt>
<trkpt lat="26.46121" lon="100.16881">
<time>2016-10-07T07:03:24Z</time></trkpt>
<trkpt lat="26.4614" lon="100.16892">
<time>2016-10-07T07:03:25Z</time></trkpt>
<trkpt lat="26.46161" lon="100.169051">
<time>2016-10-07T07:03:26Z</time></trkpt>
<trkpt lat="26.46181" lon="100.169191">
<time>2016-10-07T07:03:27Z</time></trkpt>
<trkpt lat="26.462091" lon="100.169361">
<time>2016-10-07T07:03:28Z</time></trkpt>
<trkpt lat="26.462391" lon="100.169552">
<time>2016-10-07T07:03:29Z</time></trkpt>
<trkpt lat="26.462672" lon="100.169742">
<time>2016-10-07T07:03:30Z</time></trkpt>
<trkpt lat="26.462942" lon="100.169922">
<time>2016-10-07T07:03:31Z</time></trkpt>
<trkpt lat="26.463213" lon="100.170103">
<time>2016-10-07T07:03:32Z</time></trkpt>
<trkpt lat="26.463523" lon="100.170313">
<time>2016-10-07T07:03:33Z</time></trkpt>
<trkpt lat="26.463663" lon="100.170403">
<time>2016-10-07T07:03:34Z</time></trkpt>
<trkpt lat="26.463783" lon="100.170474">
<time>2016-10-07T07:03:35Z</time></trkpt>
<trkpt lat="26.464064" lon="100.170654">
<time>2016-10-07T07:03:36Z</time></trkpt>
<trkpt lat="26.464344" lon="100.170834">
<time>2016-10-07T07:03:37Z</time></trkpt>
<trkpt lat="26.464635" lon="100.171025">
<time>2016-10-07T07:03:38Z</time></trkpt>
<trkpt lat="26.464895" lon="100.171185">
<time>2016-10-07T07:03:39Z</time></trkpt>
<trkpt lat="26.465126" lon="100.171355">
<time>2016-10-07T07:03:40Z</time></trkpt>
<trkpt lat="26.465386" lon="100.171526">
<time>2016-10-07T07:03:41Z</time></trkpt>
<trkpt lat="26.465676" lon="100.171686">
<time>2016-10-07T07:03:42Z</time></trkpt>
<trkpt lat="26.465887" lon="100.171856">
<time>2016-10-07T07:03:43Z</time></trkpt>
<trkpt lat="26.466117" lon="100.171997">
<time>2016-10-07T07:03:44Z</time></trkpt>
<trkpt lat="26.466368" lon="100.172217">
<time>2016-10-07T07:03:45Z</time></trkpt>
<trkpt lat="26.466538" lon="100.172418">
<time>2016-10-07T07:03:46Z</time></trkpt>
<trkpt lat="26.466628" lon="100.172588">
<time>2016-10-07T07:03:47Z</time></trkpt>
<trkpt lat="26.466668" lon="100.172658">
<time>2016-10-07T07:03:48Z</time></trkpt>
<trkpt lat="26.466789" lon="100.172929">
<time>2016-10-07T07:03:49Z</time></trkpt>
<trkpt lat="26.46688" lon="100.173199">
<time>2016-10-07T07:03:50Z</time></trkpt>
<trkpt lat="26.46699" lon="100.17354">
<time>2016-10-07T07:03:51Z</time></trkpt>
<trkpt lat="26.467091" lon="100.173881">
<time>2016-10-07T07:03:52Z</time></trkpt>
<trkpt lat="26.467181" lon="100.174171">
<time>2016-10-07T07:03:53Z</time></trkpt>
<trkpt lat="26.467282" lon="100.174452">
<time>2016-10-07T07:03:54Z</time></trkpt>
<trkpt lat="26.467383" lon="100.174783">
<time>2016-10-07T07:03:55Z</time></trkpt>
<trkpt lat="26.467493" lon="100.175063">
<time>2016-10-07T07:03:56Z</time></trkpt>
<trkpt lat="26.467594" lon="100.175394">
<time>2016-10-07T07:03:57Z</time></trkpt>
<trkpt lat="26.467714" lon="100.175704">
<time>2016-10-07T07:03:58Z</time></trkpt>
<trkpt lat="26.467865" lon="100.176045">
<time>2016-10-07T07:03:59Z</time></trkpt>
<trkpt lat="26.468036" lon="100.176336">
<time>2016-10-07T07:04:00Z</time></trkpt>
<trkpt lat="26.468226" lon="100.176626">
<time>2016-10-07T07:04:01Z</time></trkpt>
<trkpt lat="26.468427" lon="100.176867">
<time>2016-10-07T07:04:02Z</time></trkpt>
<trkpt lat="26.468658" lon="100.177168">
<time>2016-10-07T07:04:03Z</time></trkpt>
<trkpt lat="26.468878" lon="100.177458">
<time>2016-10-07T07:04:04Z</time></trkpt>
<trkpt lat="26.469109" lon="100.177779">
<time>2016-10-07T07:04:05Z</time></trkpt>
<trkpt lat="26.46938" lon="100.17813">
<time>2016-10-07T07:04:06Z</time></trkpt>
<trkpt lat="26.46961" lon="100.17843">
<time>2016-10-07T07:04:07Z</time></trkpt>
<trkpt lat="26.469831" lon="100.178721">
<time>2016-10-07T07:04:08Z</time></trkpt>
<trkpt lat="26.470041" lon="100.179001">
<time>2016-10-07T07:04:09Z</time></trkpt>
<trkpt lat="26.470272" lon="100.179292">
<time>2016-10-07T07:04:10Z</time></trkpt>
<trkpt lat="26.470543" lon="100.179562">
<time>2016-10-07T07:04:11Z</time></trkpt>
<trkpt lat="26.470753" lon="100.179743">
<time>2016-10-07T07:04:12Z</time></trkpt>
<trkpt lat="26.471043" lon="100.179963">
<time>2016-10-07T07:04:13Z</time></trkpt>
<trkpt lat="26.471324" lon="100.180164">
<time>2016-10-07T07:04:14Z</time></trkpt>
<trkpt lat="26.471664" lon="100.180384">
<time>2016-10-07T07:04:15Z</time></trkpt>
<trkpt lat="26.471915" lon="100.180565">
<time>2016-10-07T07:04:16Z</time></trkpt>
<trkpt lat="26.472225" lon="100.180775">
<time>2016-10-07T07:04:17Z</time></trkpt>
<trkpt lat="26.472516" lon="100.180965">
<time>2016-10-07T07:04:18Z</time></trkpt>
<trkpt lat="26.472826" lon="100.181176">
<time>2016-10-07T07:04:19Z</time></trkpt>
<trkpt lat="26.473107" lon="100.181376">
<time>2016-10-07T07:04:20Z</time></trkpt>
<trkpt lat="26.473337" lon="100.181557">
<time>2016-10-07T07:04:21Z</time></trkpt>
<trkpt lat="26.473598" lon="100.181837">
<time>2016-10-07T07:04:22Z</time></trkpt>
<trkpt lat="26.473808" lon="100.182098">
<time>2016-10-07T07:04:23Z</time></trkpt>
<trkpt lat="26.474019" lon="100.182408">
<time>2016-10-07T07:04:24Z</time></trkpt>
<trkpt lat="26.474199" lon="100.182679">
<time>2016-10-07T07:04:25Z</time></trkpt>
<trkpt lat="26.47443" lon="100.182919">
<time>2016-10-07T07:04:26Z</time></trkpt>
<trkpt lat="26.47466" lon="100.18312">
<time>2016-10-07T07:04:27Z</time></trkpt>
<trkpt lat="26.474941" lon="100.18333">
<time>2016-10-07T07:04:28Z</time></trkpt>
<trkpt lat="26.475151" lon="100.18347">
<time>2016-10-07T07:04:29Z</time></trkpt>
<trkpt lat="26.475231" lon="100.183531">
<time>2016-10-07T07:04:30Z</time></trkpt>
<trkpt lat="26.475532" lon="100.183751">
<time>2016-10-07T07:04:31Z</time></trkpt>
<trkpt lat="26.475692" lon="100.183861">
<time>2016-10-07T07:04:32Z</time></trkpt>
<trkpt lat="26.475762" lon="100.183901">
<time>2016-10-07T07:04:33Z</time></trkpt>
<trkpt lat="26.476012" lon="100.184072">
<time>2016-10-07T07:04:34Z</time></trkpt>
<trkpt lat="26.476303" lon="100.184272">
<time>2016-10-07T07:04:35Z</time></trkpt>
<trkpt lat="26.476583" lon="100.184412">
<time>2016-10-07T07:04:36Z</time></trkpt>
<trkpt lat="26.476894" lon="100.184553">
<time>2016-10-07T07:04:37Z</time></trkpt>
<trkpt lat="26.477204" lon="100.184663">
<time>2016-10-07T07:04:38Z</time></trkpt>
<trkpt lat="26.477514" lon="100.184733">
<time>2016-10-07T07:04:39Z</time></trkpt>
<trkpt lat="26.477824" lon="100.184773">
<time>2016-10-07T07:04:40Z</time></trkpt>
<trkpt lat="26.478144" lon="100.184813">
<time>2016-10-07T07:04:41Z</time></trkpt>
<trkpt lat="26.478465" lon="100.184883">
<time>2016-10-07T07:04:42Z</time></trkpt>
<trkpt lat="26.478845" lon="100.184933">
<time>2016-10-07T07:04:43Z</time></trkpt>
<trkpt lat="26.479115" lon="100.184983">
<time>2016-10-07T07:04:44Z</time></trkpt>
<trkpt lat="26.479435" lon="100.185044">
<time>2016-10-07T07:04:45Z</time></trkpt>
<trkpt lat="26.479755" lon="100.185084">
<time>2016-10-07T07:04:46Z</time></trkpt>
<trkpt lat="26.480105" lon="100.185104">
<time>2016-10-07T07:04:47Z</time></trkpt>
<trkpt lat="26.480476" lon="100.185114">
<time>2016-10-07T07:04:48Z</time></trkpt>
<trkpt lat="26.480846" lon="100.185124">
<time>2016-10-07T07:04:49Z</time></trkpt>
<trkpt lat="26.481166" lon="100.185124">
<time>2016-10-07T07:04:50Z</time></trkpt>
<trkpt lat="26.481506" lon="100.185124">
<time>2016-10-07T07:04:51Z</time></trkpt>
<trkpt lat="26.481856" lon="100.185144">
<time>2016-10-07T07:04:52Z</time></trkpt>
<trkpt lat="26.482236" lon="100.185144">
<time>2016-10-07T07:04:53Z</time></trkpt>
<trkpt lat="26.482576" lon="100.185144">
<time>2016-10-07T07:04:54Z</time></trkpt>
<trkpt lat="26.482926" lon="100.185154">
<time>2016-10-07T07:04:55Z</time></trkpt>
<trkpt lat="26.483276" lon="100.185154">
<time>2016-10-07T07:04:56Z</time></trkpt>
<trkpt lat="26.483637" lon="100.185164">
<time>2016-10-07T07:04:57Z</time></trkpt>
<trkpt lat="26.484017" lon="100.185194">
<time>2016-10-07T07:04:58Z</time></trkpt>
<trkpt lat="26.484347" lon="100.185264">
<time>2016-10-07T07:04:59Z</time></trkpt>
<trkpt lat="26.484677" lon="100.185374">
<time>2016-10-07T07:05:00Z</time></trkpt>
<trkpt lat="26.484998" lon="100.185494">
<time>2016-10-07T07:05:01Z</time></trkpt>
<trkpt lat="26.485338" lon="100.185685">
<time>2016-10-07T07:05:02Z</time></trkpt>
<trkpt lat="26.485678" lon="100.185835">
<time>2016-10-07T07:05:03Z</time></trkpt>
<trkpt lat="26.485708" lon="100.185855">
<time>2016-10-07T07:05:04Z</time></trkpt>
<trkpt lat="26.485999" lon="100.186005">
<time>2016-10-07T07:05:05Z</time></trkpt>
<trkpt lat="26.486359" lon="100.186176">
<time>2016-10-07T07:05:06Z</time></trkpt>
<trkpt lat="26.486699" lon="100.186276">
<time>2016-10-07T07:05:07Z</time></trkpt>
<trkpt lat="26.48706" lon="100.186346">
<time>2016-10-07T07:05:08Z</time></trkpt>
<trkpt lat="26.4874" lon="100.186376">
<time>2016-10-07T07:05:09Z</time></trkpt>
<trkpt lat="26.48779" lon="100.186346">
<time>2016-10-07T07:05:10Z</time></trkpt>
<trkpt lat="26.4881" lon="100.186276">
<time>2016-10-07T07:05:11Z</time></trkpt>
<trkpt lat="26.48845" lon="100.186166">
<time>2016-10-07T07:05:12Z</time></trkpt>
<trkpt lat="26.48878" lon="100.186045">
<time>2016-10-07T07:05:13Z</time></trkpt>
<trkpt lat="26.489119" lon="100.185905">
<time>2016-10-07T07:05:14Z</time></trkpt>
<trkpt lat="26.489449" lon="100.185755">
<time>2016-10-07T07:05:15Z</time></trkpt>
<trkpt lat="26.489789" lon="100.185614">
<time>2016-10-07T07:05:16Z</time></trkpt>
<trkpt lat="26.490119" lon="100.185464">
<time>2016-10-07T07:05:17Z</time></trkpt>
<trkpt lat="26.490449" lon="100.185314">
<time>2016-10-07T07:05:18Z</time></trkpt>
<trkpt lat="26.490699" lon="100.185204">
<time>2016-10-07T07:05:19Z</time></trkpt>
<trkpt lat="26.490769" lon="100.185174">
<time>2016-10-07T07:05:20Z</time></trkpt>
<trkpt lat="26.491108" lon="100.185033">
<time>2016-10-07T07:05:21Z</time></trkpt>
<trkpt lat="26.491248" lon="100.184983">
<time>2016-10-07T07:05:22Z</time></trkpt>
<trkpt lat="26.491458" lon="100.184883">
<time>2016-10-07T07:05:23Z</time></trkpt>
<trkpt lat="26.491828" lon="100.184723">
<time>2016-10-07T07:05:24Z</time></trkpt>
<trkpt lat="26.492208" lon="100.184552">
<time>2016-10-07T07:05:25Z</time></trkpt>
<trkpt lat="26.492598" lon="100.184392">
<time>2016-10-07T07:05:26Z</time></trkpt>
<trkpt lat="26.492977" lon="100.184222">
<time>2016-10-07T07:05:27Z</time></trkpt>
<trkpt lat="26.493357" lon="100.184051">
<time>2016-10-07T07:05:28Z</time></trkpt>
<trkpt lat="26.493727" lon="100.183891">
<time>2016-10-07T07:05:29Z</time></trkpt>
<trkpt lat="26.494117" lon="100.18373">
<time>2016-10-07T07:05:30Z</time></trkpt>
<trkpt lat="26.494507" lon="100.18355">
<time>2016-10-07T07:05:31Z</time></trkpt>
<trkpt lat="26.494876" lon="100.18337">
<time>2016-10-07T07:05:32Z</time></trkpt>
<trkpt lat="26.495226" lon="100.183149">
<time>2016-10-07T07:05:33Z</time></trkpt>
<trkpt lat="26.495556" lon="100.182899">
<time>2016-10-07T07:05:34Z</time></trkpt>
<trkpt lat="26.495905" lon="100.182588">
<time>2016-10-07T07:05:35Z</time></trkpt>
<trkpt lat="26.496155" lon="100.182297">
<time>2016-10-07T07:05:36Z</time></trkpt>
<trkpt lat="26.496384" lon="100.182017">
<time>2016-10-07T07:05:37Z</time></trkpt>
<trkpt lat="26.496404" lon="100.181997">
<time>2016-10-07T07:05:38Z</time></trkpt>
<trkpt lat="26.496684" lon="100.181626">
<time>2016-10-07T07:05:39Z</time></trkpt>
<trkpt lat="26.496903" lon="100.181346">
<time>2016-10-07T07:05:40Z</time></trkpt>
<trkpt lat="26.497153" lon="100.181005">
<time>2016-10-07T07:05:41Z</time></trkpt>
<trkpt lat="26.497412" lon="100.180674">
<time>2016-10-07T07:05:42Z</time></trkpt>
<trkpt lat="26.497672" lon="100.180343">
<time>2016-10-07T07:05:43Z</time></trkpt>
<trkpt lat="26.497961" lon="100.179973">
<time>2016-10-07T07:05:44Z</time></trkpt>
<trkpt lat="26.498081" lon="100.179842">
<time>2016-10-07T07:05:45Z</time></trkpt>
<trkpt lat="26.498211" lon="100.179702">
<time>2016-10-07T07:05:46Z</time></trkpt>
<trkpt lat="26.49829" lon="100.179632">
<time>2016-10-07T07:05:47Z</time></trkpt>
<trkpt lat="26.49837" lon="100.179552">
<time>2016-10-07T07:05:48Z</time></trkpt>
<trkpt lat="26.49849" lon="100.179462">
<time>2016-10-07T07:05:49Z</time></trkpt>
<trkpt lat="26.49863" lon="100.179361">
<time>2016-10-07T07:05:50Z</time></trkpt>
<trkpt lat="26.49877" lon="100.179271">
<time>2016-10-07T07:05:51Z</time></trkpt>
<trkpt lat="26.4991" lon="100.179121">
<time>2016-10-07T07:05:52Z</time></trkpt>
<trkpt lat="26.49945" lon="100.179001">
<time>2016-10-07T07:05:53Z</time></trkpt>
<trkpt lat="26.499789" lon="100.17887">
<time>2016-10-07T07:05:54Z</time></trkpt>
<trkpt lat="26.499939" lon="100.17881">
<time>2016-10-07T07:05:55Z</time></trkpt>
<trkpt lat="26.500019" lon="100.17878">
<time>2016-10-07T07:05:56Z</time></trkpt>
<trkpt lat="26.500179" lon="100.17872">
<time>2016-10-07T07:05:57Z</time></trkpt>
<trkpt lat="26.500819" lon="100.178479">
<time>2016-10-07T07:05:58Z</time></trkpt>
<trkpt lat="26.501159" lon="100.178349">
<time>2016-10-07T07:05:59Z</time></trkpt>
<trkpt lat="26.501379" lon="100.178259">
<time>2016-10-07T07:06:00Z</time></trkpt>
<trkpt lat="26.501489" lon="100.178219">
<time>2016-10-07T07:06:01Z</time></trkpt>
<trkpt lat="26.501788" lon="100.178099">
<time>2016-10-07T07:06:02Z</time></trkpt>
<trkpt lat="26.502068" lon="100.177948">
<time>2016-10-07T07:06:03Z</time></trkpt>
<trkpt lat="26.502078" lon="100.177948">
<time>2016-10-07T07:06:04Z</time></trkpt>
<trkpt lat="26.502358" lon="100.177758">
<time>2016-10-07T07:06:05Z</time></trkpt>
<trkpt lat="26.502428" lon="100.177698">
<time>2016-10-07T07:06:06Z</time></trkpt>
<trkpt lat="26.502588" lon="100.177568">
<time>2016-10-07T07:06:07Z</time></trkpt>
<trkpt lat="26.502857" lon="100.177347">
<time>2016-10-07T07:06:08Z</time></trkpt>
<trkpt lat="26.503107" lon="100.177117">
<time>2016-10-07T07:06:09Z</time></trkpt>
<trkpt lat="26.503387" lon="100.176896">
<time>2016-10-07T07:06:10Z</time></trkpt>
<trkpt lat="26.503407" lon="100.176886">
<time>2016-10-07T07:06:11Z</time></trkpt>
<trkpt lat="26.503676" lon="100.176676">
<time>2016-10-07T07:06:12Z</time></trkpt>
<trkpt lat="26.503816" lon="100.176595">
<time>2016-10-07T07:06:13Z</time></trkpt>
<trkpt lat="26.503996" lon="100.176485">
<time>2016-10-07T07:06:14Z</time></trkpt>
<trkpt lat="26.504316" lon="100.176325">
<time>2016-10-07T07:06:15Z</time></trkpt>
<trkpt lat="26.504636" lon="100.176235">
<time>2016-10-07T07:06:16Z</time></trkpt>
<trkpt lat="26.504916" lon="100.176195">
<time>2016-10-07T07:06:17Z</time></trkpt>
<trkpt lat="26.504976" lon="100.176195">
<time>2016-10-07T07:06:18Z</time></trkpt>
<trkpt lat="26.505166" lon="100.176185">
<time>2016-10-07T07:06:19Z</time></trkpt>
<trkpt lat="26.505496" lon="100.176195">
<time>2016-10-07T07:06:20Z</time></trkpt>
<trkpt lat="26.505866" lon="100.176175">
<time>2016-10-07T07:06:21Z</time></trkpt>
<trkpt lat="26.506216" lon="100.176174">
<time>2016-10-07T07:06:22Z</time></trkpt>
<trkpt lat="26.506636" lon="100.176164">
<time>2016-10-07T07:06:23Z</time></trkpt>
<trkpt lat="26.507026" lon="100.176164">
<time>2016-10-07T07:06:24Z</time></trkpt>
<trkpt lat="26.507266" lon="100.176154">
<time>2016-10-07T07:06:25Z</time></trkpt>
<trkpt lat="26.507626" lon="100.176154">
<time>2016-10-07T07:06:26Z</time></trkpt>
<trkpt lat="26.507976" lon="100.176164">
<time>2016-10-07T07:06:27Z</time></trkpt>
<trkpt lat="26.508346" lon="100.176144">
<time>2016-10-07T07:06:28Z</time></trkpt>
<trkpt lat="26.508706" lon="100.176134">
<time>2016-10-07T07:06:29Z</time></trkpt>
<trkpt lat="26.509037" lon="100.176124">
<time>2016-10-07T07:06:30Z</time></trkpt>
<trkpt lat="26.509397" lon="100.176104">
<time>2016-10-07T07:06:31Z</time></trkpt>
<trkpt lat="26.509807" lon="100.176064">
<time>2016-10-07T07:06:32Z</time></trkpt>
<trkpt lat="26.510077" lon="100.176044">
<time>2016-10-07T07:06:33Z</time></trkpt>
<trkpt lat="26.510457" lon="100.175994">
<time>2016-10-07T07:06:34Z</time></trkpt>
<trkpt lat="26.510527" lon="100.175984">
<time>2016-10-07T07:06:35Z</time></trkpt>
<trkpt lat="26.510827" lon="100.175944">
<time>2016-10-07T07:06:36Z</time></trkpt>
<trkpt lat="26.511157" lon="100.175904">
<time>2016-10-07T07:06:37Z</time></trkpt>
<trkpt lat="26.511487" lon="100.175864">
<time>2016-10-07T07:06:38Z</time></trkpt>
<trkpt lat="26.511837" lon="100.175824">
<time>2016-10-07T07:06:39Z</time></trkpt>
<trkpt lat="26.512147" lon="100.175773">
<time>2016-10-07T07:06:40Z</time></trkpt>
<trkpt lat="26.512297" lon="100.175753">
<time>2016-10-07T07:06:41Z</time></trkpt>
<trkpt lat="26.512507" lon="100.175733">
<time>2016-10-07T07:06:42Z</time></trkpt>
<trkpt lat="26.512847" lon="100.175693">
<time>2016-10-07T07:06:43Z</time></trkpt>
<trkpt lat="26.513187" lon="100.175653">
<time>2016-10-07T07:06:44Z</time></trkpt>
<trkpt lat="26.513567" lon="100.175603">
<time>2016-10-07T07:06:45Z</time></trkpt>
<trkpt lat="26.513897" lon="100.175563">
<time>2016-10-07T07:06:46Z</time></trkpt>
<trkpt lat="26.514277" lon="100.175473">
<time>2016-10-07T07:06:47Z</time></trkpt>
<trkpt lat="26.514607" lon="100.175383">
<time>2016-10-07T07:06:48Z</time></trkpt>
<trkpt lat="26.514906" lon="100.175272">
<time>2016-10-07T07:06:49Z</time></trkpt>
<trkpt lat="26.515216" lon="100.175112">
<time>2016-10-07T07:06:50Z</time></trkpt>
<trkpt lat="26.515516" lon="100.174952">
<time>2016-10-07T07:06:51Z</time></trkpt>
<trkpt lat="26.515786" lon="100.174791">
<time>2016-10-07T07:06:52Z</time></trkpt>
<trkpt lat="26.516185" lon="100.174551">
<time>2016-10-07T07:06:53Z</time></trkpt>
<trkpt lat="26.516455" lon="100.1744">
<time>2016-10-07T07:06:54Z</time></trkpt>
<trkpt lat="26.516745" lon="100.17423">
<time>2016-10-07T07:06:55Z</time></trkpt>
<trkpt lat="26.517095" lon="100.17403">
<time>2016-10-07T07:06:56Z</time></trkpt>
<trkpt lat="26.517194" lon="100.17397">
<time>2016-10-07T07:06:57Z</time></trkpt>
<trkpt lat="26.517274" lon="100.173909">
<time>2016-10-07T07:06:58Z</time></trkpt>
<trkpt lat="26.517394" lon="100.173839">
<time>2016-10-07T07:06:59Z</time></trkpt>
<trkpt lat="26.517784" lon="100.173579">
<time>2016-10-07T07:07:00Z</time></trkpt>
<trkpt lat="26.517874" lon="100.173519">
<time>2016-10-07T07:07:01Z</time></trkpt>
<trkpt lat="26.518094" lon="100.173388">
<time>2016-10-07T07:07:02Z</time></trkpt>
<trkpt lat="26.518383" lon="100.173188">
<time>2016-10-07T07:07:03Z</time></trkpt>
<trkpt lat="26.518733" lon="100.172947">
<time>2016-10-07T07:07:04Z</time></trkpt>
<trkpt lat="26.519053" lon="100.172737">
<time>2016-10-07T07:07:05Z</time></trkpt>
<trkpt lat="26.519352" lon="100.172557">
<time>2016-10-07T07:07:06Z</time></trkpt>
<trkpt lat="26.519692" lon="100.172346">
<time>2016-10-07T07:07:07Z</time></trkpt>
<trkpt lat="26.520002" lon="100.172206">
<time>2016-10-07T07:07:08Z</time></trkpt>
<trkpt lat="26.520092" lon="100.172176">
<time>2016-10-07T07:07:09Z</time></trkpt>
<trkpt lat="26.520342" lon="100.172096">
<time>2016-10-07T07:07:10Z</time></trkpt>
<trkpt lat="26.520642" lon="100.171995">
<time>2016-10-07T07:07:11Z</time></trkpt>
<trkpt lat="26.521032" lon="100.171965">
<time>2016-10-07T07:07:12Z</time></trkpt>
<trkpt lat="26.522032" lon="100.171915">
<time>2016-10-07T07:07:13Z</time></trkpt>
<trkpt lat="26.522232" lon="100.171905">
<time>2016-10-07T07:07:14Z</time></trkpt>
<trkpt lat="26.524572" lon="100.171865">
<time>2016-10-07T07:07:15Z</time></trkpt>
<trkpt lat="26.524902" lon="100.171835">
<time>2016-10-07T07:07:16Z</time></trkpt>
<trkpt lat="26.525112" lon="100.171815">
<time>2016-10-07T07:07:17Z</time></trkpt>
<trkpt lat="26.525182" lon="100.171795">
<time>2016-10-07T07:07:18Z</time></trkpt>
<trkpt lat="26.525322" lon="100.171765">
<time>2016-10-07T07:07:19Z</time></trkpt>
<trkpt lat="26.525512" lon="100.171705">
<time>2016-10-07T07:07:20Z</time></trkpt>
<trkpt lat="26.525672" lon="100.171614">
<time>2016-10-07T07:07:21Z</time></trkpt>
<trkpt lat="26.525812" lon="100.171534">
<time>2016-10-07T07:07:22Z</time></trkpt>
<trkpt lat="26.525982" lon="100.171404">
<time>2016-10-07T07:07:23Z</time></trkpt>
<trkpt lat="26.526271" lon="100.171143">
<time>2016-10-07T07:07:24Z</time></trkpt>
<trkpt lat="26.526441" lon="100.170993">
<time>2016-10-07T07:07:25Z</time></trkpt>
<trkpt lat="26.526471" lon="100.170973">
<time>2016-10-07T07:07:26Z</time></trkpt>
<trkpt lat="26.52684" lon="100.170662">
<time>2016-10-07T07:07:27Z</time></trkpt>
<trkpt lat="26.52707" lon="100.170502">
<time>2016-10-07T07:07:28Z</time></trkpt>
<trkpt lat="26.5272" lon="100.170422">
<time>2016-10-07T07:07:29Z</time></trkpt>
<trkpt lat="26.52726" lon="100.170392">
<time>2016-10-07T07:07:30Z</time></trkpt>
<trkpt lat="26.52734" lon="100.170362">
<time>2016-10-07T07:07:31Z</time></trkpt>
<trkpt lat="26.52752" lon="100.170302">
<time>2016-10-07T07:07:32Z</time></trkpt>
<trkpt lat="26.52764" lon="100.170281">
<time>2016-10-07T07:07:33Z</time></trkpt>
<trkpt lat="26.52767" lon="100.170271">
<time>2016-10-07T07:07:34Z</time></trkpt>
<trkpt lat="26.52782" lon="100.170261">
<time>2016-10-07T07:07:35Z</time></trkpt>
<trkpt lat="26.52799" lon="100.170261">
<time>2016-10-07T07:07:36Z</time></trkpt>
<trkpt lat="26.52826" lon="100.170281">
<time>2016-10-07T07:07:37Z</time></trkpt>
<trkpt lat="26.52859" lon="100.170322">
<time>2016-10-07T07:07:38Z</time></trkpt>
<trkpt lat="26.52892" lon="100.170352">
<time>2016-10-07T07:07:39Z</time></trkpt>
<trkpt lat="26.52928" lon="100.170372">
<time>2016-10-07T07:07:40Z</time></trkpt>
<trkpt lat="26.52954" lon="100.170392">
<time>2016-10-07T07:07:41Z</time></trkpt>
<trkpt lat="26.530651" lon="100.170482">
<time>2016-10-07T07:07:42Z</time></trkpt>
<trkpt lat="26.531481" lon="100.170562">
<time>2016-10-07T07:07:43Z</time></trkpt>
<trkpt lat="26.532011" lon="100.170612">
<time>2016-10-07T07:07:44Z</time></trkpt>
<trkpt lat="26.532432" lon="100.170652">
<time>2016-10-07T07:07:45Z</time></trkpt>
<trkpt lat="26.533782" lon="100.170832">
<time>2016-10-07T07:07:46Z</time></trkpt>
<trkpt lat="26.535233" lon="100.170973">
<time>2016-10-07T07:07:47Z</time></trkpt>
<trkpt lat="26.536593" lon="100.171093">
<time>2016-10-07T07:07:48Z</time></trkpt>
<trkpt lat="26.538194" lon="100.171223">
<time>2016-10-07T07:07:49Z</time></trkpt>
<trkpt lat="26.538414" lon="100.171253">
<time>2016-10-07T07:07:50Z</time></trkpt>
<trkpt lat="26.538924" lon="100.171313">
<time>2016-10-07T07:07:51Z</time></trkpt>
<trkpt lat="26.539344" lon="100.171353">
<time>2016-10-07T07:07:52Z</time></trkpt>
<trkpt lat="26.539534" lon="100.171384">
<time>2016-10-07T07:07:53Z</time></trkpt>
<trkpt lat="26.539625" lon="100.171404">
<time>2016-10-07T07:07:54Z</time></trkpt>
<trkpt lat="26.539925" lon="100.171434">
<time>2016-10-07T07:07:55Z</time></trkpt>
<trkpt lat="26.540205" lon="100.171454">
<time>2016-10-07T07:07:56Z</time></trkpt>
<trkpt lat="26.540455" lon="100.171484">
<time>2016-10-07T07:07:57Z</time></trkpt>
<trkpt lat="26.540715" lon="100.171514">
<time>2016-10-07T07:07:58Z</time></trkpt>
<trkpt lat="26.540985" lon="100.171584">
<time>2016-10-07T07:07:59Z</time></trkpt>
<trkpt lat="26.541215" lon="100.171664">
<time>2016-10-07T07:08:00Z</time></trkpt>
<trkpt lat="26.541235" lon="100.171674">
<time>2016-10-07T07:08:01Z</time></trkpt>
<trkpt lat="26.541456" lon="100.171764">
<time>2016-10-07T07:08:02Z</time></trkpt>
<trkpt lat="26.541686" lon="100.171885">
<time>2016-10-07T07:08:03Z</time></trkpt>
<trkpt lat="26.541956" lon="100.172025">
<time>2016-10-07T07:08:04Z</time></trkpt>
<trkpt lat="26.542206" lon="100.172165">
<time>2016-10-07T07:08:05Z</time></trkpt>
<trkpt lat="26.542427" lon="100.172285">
<time>2016-10-07T07:08:06Z</time></trkpt>
<trkpt lat="26.542677" lon="100.172436">
<time>2016-10-07T07:08:07Z</time></trkpt>
<trkpt lat="26.542987" lon="100.172606">
<time>2016-10-07T07:08:08Z</time></trkpt>
<trkpt lat="26.543288" lon="100.172756">
<time>2016-10-07T07:08:09Z</time></trkpt>
<trkpt lat="26.543578" lon="100.172897">
<time>2016-10-07T07:08:10Z</time></trkpt>
<trkpt lat="26.543868" lon="100.173037">
<time>2016-10-07T07:08:11Z</time></trkpt>
<trkpt lat="26.544179" lon="100.173177">
<time>2016-10-07T07:08:12Z</time></trkpt>
<trkpt lat="26.544309" lon="100.173227">
<time>2016-10-07T07:08:13Z</time></trkpt>
<trkpt lat="26.544529" lon="100.173317">
<time>2016-10-07T07:08:14Z</time></trkpt>
<trkpt lat="26.544829" lon="100.173428">
<time>2016-10-07T07:08:15Z</time></trkpt>
<trkpt lat="26.54511" lon="100.173518">
<time>2016-10-07T07:08:16Z</time></trkpt>
<trkpt lat="26.54545" lon="100.173628">
<time>2016-10-07T07:08:17Z</time></trkpt>
<trkpt lat="26.54573" lon="100.173708">
<time>2016-10-07T07:08:18Z</time></trkpt>
<trkpt lat="26.5461" lon="100.173808">
<time>2016-10-07T07:08:19Z</time></trkpt>
<trkpt lat="26.54637" lon="100.173879">
<time>2016-10-07T07:08:20Z</time></trkpt>
<trkpt lat="26.546671" lon="100.173949">
<time>2016-10-07T07:08:21Z</time></trkpt>
<trkpt lat="26.546721" lon="100.173959">
<time>2016-10-07T07:08:22Z</time></trkpt>
<trkpt lat="26.546921" lon="100.174019">
<time>2016-10-07T07:08:23Z</time></trkpt>
<trkpt lat="26.547241" lon="100.174119">
<time>2016-10-07T07:08:24Z</time></trkpt>
<trkpt lat="26.547461" lon="100.174179">
<time>2016-10-07T07:08:25Z</time></trkpt>
<trkpt lat="26.548362" lon="100.17443">
<time>2016-10-07T07:08:26Z</time></trkpt>
<trkpt lat="26.551474" lon="100.175291">
<time>2016-10-07T07:08:27Z</time></trkpt>
<trkpt lat="26.552175" lon="100.175482">
<time>2016-10-07T07:08:28Z</time></trkpt>
<trkpt lat="26.552475" lon="100.175572">
<time>2016-10-07T07:08:29Z</time></trkpt>
<trkpt lat="26.553636" lon="100.175883">
<time>2016-10-07T07:08:30Z</time></trkpt>
<trkpt lat="26.553746" lon="100.175913">
<time>2016-10-07T07:08:31Z</time></trkpt>
<trkpt lat="26.553856" lon="100.175973">
<time>2016-10-07T07:08:32Z</time></trkpt>
<trkpt lat="26.553856" lon="100.175973">
<time>2016-10-07T07:08:33Z</time></trkpt>
<trkpt lat="26.554016" lon="100.176013">
<time>2016-10-07T07:08:34Z</time></trkpt>
<trkpt lat="26.554116" lon="100.176053">
<time>2016-10-07T07:08:35Z</time></trkpt>
<trkpt lat="26.554426" lon="100.176143">
<time>2016-10-07T07:08:36Z</time></trkpt>
<trkpt lat="26.554696" lon="100.176213">
<time>2016-10-07T07:08:37Z</time></trkpt>
<trkpt lat="26.555087" lon="100.176324">
<time>2016-10-07T07:08:38Z</time></trkpt>
<trkpt lat="26.555607" lon="100.176454">
<time>2016-10-07T07:08:39Z</time></trkpt>
<trkpt lat="26.555897" lon="100.176524">
<time>2016-10-07T07:08:40Z</time></trkpt>
<trkpt lat="26.556087" lon="100.176574">
<time>2016-10-07T07:08:41Z</time></trkpt>
<trkpt lat="26.556297" lon="100.176624">
<time>2016-10-07T07:08:42Z</time></trkpt>
<trkpt lat="26.556498" lon="100.176664">
<time>2016-10-07T07:08:43Z</time></trkpt>
<trkpt lat="26.556718" lon="100.176704">
<time>2016-10-07T07:08:44Z</time></trkpt>
<trkpt lat="26.557688" lon="100.176825">
<time>2016-10-07T07:08:45Z</time></trkpt>
<trkpt lat="26.557828" lon="100.176835">
<time>2016-10-07T07:08:46Z</time></trkpt>
<trkpt lat="26.558829" lon="100.176965">
<time>2016-10-07T07:08:47Z</time></trkpt>
<trkpt lat="26.559289" lon="100.177025">
<time>2016-10-07T07:08:48Z</time></trkpt>
<trkpt lat="26.559359" lon="100.177035">
<time>2016-10-07T07:08:49Z</time></trkpt>
<trkpt lat="26.560609" lon="100.177175">
<time>2016-10-07T07:08:50Z</time></trkpt>
<trkpt lat="26.56158" lon="100.177295">
<time>2016-10-07T07:08:51Z</time></trkpt>
<trkpt lat="26.56202" lon="100.177315">
<time>2016-10-07T07:08:52Z</time></trkpt>
<trkpt lat="26.56207" lon="100.177346">
<time>2016-10-07T07:08:53Z</time></trkpt>
<trkpt lat="26.56298" lon="100.177436">
<time>2016-10-07T07:08:54Z</time></trkpt>
<trkpt lat="26.56299" lon="100.177436">
<time>2016-10-07T07:08:55Z</time></trkpt>
<trkpt lat="26.56319" lon="100.177456">
<time>2016-10-07T07:08:56Z</time></trkpt>
<trkpt lat="26.56342" lon="100.177486">
<time>2016-10-07T07:08:57Z</time></trkpt>
<trkpt lat="26.564081" lon="100.177556">
<time>2016-10-07T07:08:58Z</time></trkpt>
<trkpt lat="26.564281" lon="100.177676">
<time>2016-10-07T07:08:59Z</time></trkpt>
<trkpt lat="26.564381" lon="100.177746">
<time>2016-10-07T07:09:00Z</time></trkpt>
<trkpt lat="26.564481" lon="100.177826">
<time>2016-10-07T07:09:01Z</time></trkpt>
<trkpt lat="26.564571" lon="100.177907">
<time>2016-10-07T07:09:02Z</time></trkpt>
<trkpt lat="26.564601" lon="100.177947">
<time>2016-10-07T07:09:03Z</time></trkpt>
<trkpt lat="26.564672" lon="100.178027">
<time>2016-10-07T07:09:04Z</time></trkpt>
<trkpt lat="26.564772" lon="100.178167">
<time>2016-10-07T07:09:05Z</time></trkpt>
<trkpt lat="26.564882" lon="100.178348">
<time>2016-10-07T07:09:06Z</time></trkpt>
<trkpt lat="26.564962" lon="100.178488">
<time>2016-10-07T07:09:07Z</time></trkpt>
<trkpt lat="26.565083" lon="100.178668">
<time>2016-10-07T07:09:08Z</time></trkpt>
<trkpt lat="26.565193" lon="100.178859">
<time>2016-10-07T07:09:09Z</time></trkpt>
<trkpt lat="26.565294" lon="100.179019">
<time>2016-10-07T07:09:10Z</time></trkpt>
<trkpt lat="26.565334" lon="100.179059">
<time>2016-10-07T07:09:11Z</time></trkpt>
<trkpt lat="26.565424" lon="100.179179">
<time>2016-10-07T07:09:12Z</time></trkpt>
<trkpt lat="26.565534" lon="100.1793">
<time>2016-10-07T07:09:13Z</time></trkpt>
<trkpt lat="26.565654" lon="100.1794">
<time>2016-10-07T07:09:14Z</time></trkpt>
<trkpt lat="26.565734" lon="100.17946">
<time>2016-10-07T07:09:15Z</time></trkpt>
<trkpt lat="26.565794" lon="100.17949">
<time>2016-10-07T07:09:16Z</time></trkpt>
<trkpt lat="26.565865" lon="100.17953">
<time>2016-10-07T07:09:17Z</time></trkpt>
<trkpt lat="26.565925" lon="100.17955">
<time>2016-10-07T07:09:18Z</time></trkpt>
<trkpt lat="26.566025" lon="100.17958">
<time>2016-10-07T07:09:19Z</time></trkpt>
<trkpt lat="26.566145" lon="100.17961">
<time>2016-10-07T07:09:20Z</time></trkpt>
<trkpt lat="26.566275" lon="100.17964">
<time>2016-10-07T07:09:21Z</time></trkpt>
<trkpt lat="26.566405" lon="100.17967">
<time>2016-10-07T07:09:22Z</time></trkpt>
<trkpt lat="26.566595" lon="100.17973">
<time>2016-10-07T07:09:23Z</time></trkpt>
<trkpt lat="26.566795" lon="100.17978">
<time>2016-10-07T07:09:24Z</time></trkpt>
<trkpt lat="26.567005" lon="100.179831">
<time>2016-10-07T07:09:25Z</time></trkpt>
<trkpt lat="26.567185" lon="100.179881">
<time>2016-10-07T07:09:26Z</time></trkpt>
<trkpt lat="26.567406" lon="100.179951">
<time>2016-10-07T07:09:27Z</time></trkpt>
<trkpt lat="26.567766" lon="100.180041">
<time>2016-10-07T07:09:28Z</time></trkpt>
<trkpt lat="26.569597" lon="100.180512">
<time>2016-10-07T07:09:29Z</time></trkpt>
<trkpt lat="26.572459" lon="100.181324">
<time>2016-10-07T07:09:30Z</time></trkpt>
<trkpt lat="26.57323" lon="100.181594">
<time>2016-10-07T07:09:31Z</time></trkpt>
<trkpt lat="26.57326" lon="100.181604">
<time>2016-10-07T07:09:32Z</time></trkpt>
<trkpt lat="26.57433" lon="100.181985">
<time>2016-10-07T07:09:33Z</time></trkpt>
<trkpt lat="26.576572" lon="100.182776">
<time>2016-10-07T07:09:34Z</time></trkpt>
<trkpt lat="26.577623" lon="100.183137">
<time>2016-10-07T07:09:35Z</time></trkpt>
<trkpt lat="26.578063" lon="100.183297">
<time>2016-10-07T07:09:36Z</time></trkpt>
<trkpt lat="26.578314" lon="100.183408">
<time>2016-10-07T07:09:37Z</time></trkpt>
<trkpt lat="26.579205" lon="100.183818">
<time>2016-10-07T07:09:38Z</time></trkpt>
<trkpt lat="26.580296" lon="100.18434">
<time>2016-10-07T07:09:39Z</time></trkpt>
<trkpt lat="26.580406" lon="100.18441">
<time>2016-10-07T07:09:40Z</time></trkpt>
<trkpt lat="26.580556" lon="100.18451">
<time>2016-10-07T07:09:41Z</time></trkpt>
<trkpt lat="26.580786" lon="100.18471">
<time>2016-10-07T07:09:42Z</time></trkpt>
<trkpt lat="26.580997" lon="100.184911">
<time>2016-10-07T07:09:43Z</time></trkpt>
<trkpt lat="26.581227" lon="100.185161">
<time>2016-10-07T07:09:44Z</time></trkpt>
<trkpt lat="26.58271" lon="100.186704">
<time>2016-10-07T07:09:45Z</time></trkpt>
<trkpt lat="26.582931" lon="100.186925">
<time>2016-10-07T07:09:46Z</time></trkpt>
<trkpt lat="26.583011" lon="100.186985">
<time>2016-10-07T07:09:47Z</time></trkpt>
<trkpt lat="26.583091" lon="100.187045">
<time>2016-10-07T07:09:48Z</time></trkpt>
<trkpt lat="26.583181" lon="100.187105">
<time>2016-10-07T07:09:49Z</time></trkpt>
<trkpt lat="26.583241" lon="100.187145">
<time>2016-10-07T07:09:50Z</time></trkpt>
<trkpt lat="26.583351" lon="100.187205">
<time>2016-10-07T07:09:51Z</time></trkpt>
<trkpt lat="26.583501" lon="100.187285">
<time>2016-10-07T07:09:52Z</time></trkpt>
<trkpt lat="26.583902" lon="100.187386">
<time>2016-10-07T07:09:53Z</time></trkpt>
<trkpt lat="26.584212" lon="100.187426">
<time>2016-10-07T07:09:54Z</time></trkpt>
<trkpt lat="26.584452" lon="100.187456">
<time>2016-10-07T07:09:55Z</time></trkpt>
<trkpt lat="26.584682" lon="100.187476">
<time>2016-10-07T07:09:56Z</time></trkpt>
<trkpt lat="26.584702" lon="100.187476">
<time>2016-10-07T07:09:57Z</time></trkpt>
<trkpt lat="26.584902" lon="100.187496">
<time>2016-10-07T07:09:58Z</time></trkpt>
<trkpt lat="26.585112" lon="100.187526">
<time>2016-10-07T07:09:59Z</time></trkpt>
<trkpt lat="26.585282" lon="100.187546">
<time>2016-10-07T07:10:00Z</time></trkpt>
<trkpt lat="26.585462" lon="100.187586">
<time>2016-10-07T07:10:01Z</time></trkpt>
<trkpt lat="26.585592" lon="100.187606">
<time>2016-10-07T07:10:02Z</time></trkpt>
<trkpt lat="26.585632" lon="100.187616">
<time>2016-10-07T07:10:03Z</time></trkpt>
<trkpt lat="26.585822" lon="100.187656">
<time>2016-10-07T07:10:04Z</time></trkpt>
<trkpt lat="26.586163" lon="100.187736">
<time>2016-10-07T07:10:05Z</time></trkpt>
<trkpt lat="26.587523" lon="100.188057">
<time>2016-10-07T07:10:06Z</time></trkpt>
<trkpt lat="26.588184" lon="100.188217">
<time>2016-10-07T07:10:07Z</time></trkpt>
<trkpt lat="26.588844" lon="100.188377">
<time>2016-10-07T07:10:08Z</time></trkpt>
<trkpt lat="26.588984" lon="100.188407">
<time>2016-10-07T07:10:09Z</time></trkpt>
<trkpt lat="26.589494" lon="100.188528">
<time>2016-10-07T07:10:10Z</time></trkpt>
<trkpt lat="26.589785" lon="100.188608">
<time>2016-10-07T07:10:11Z</time></trkpt>
<trkpt lat="26.590515" lon="100.188818">
<time>2016-10-07T07:10:12Z</time></trkpt>
<trkpt lat="26.590665" lon="100.188868">
<time>2016-10-07T07:10:13Z</time></trkpt>
<trkpt lat="26.590825" lon="100.188918">
<time>2016-10-07T07:10:14Z</time></trkpt>
<trkpt lat="26.591126" lon="100.189019">
<time>2016-10-07T07:10:15Z</time></trkpt>
<trkpt lat="26.591476" lon="100.189139">
<time>2016-10-07T07:10:16Z</time></trkpt>
<trkpt lat="26.591956" lon="100.189309">
<time>2016-10-07T07:10:17Z</time></trkpt>
<trkpt lat="26.592697" lon="100.18955">
<time>2016-10-07T07:10:18Z</time></trkpt>
<trkpt lat="26.593377" lon="100.18978">
<time>2016-10-07T07:10:19Z</time></trkpt>
<trkpt lat="26.594998" lon="100.190341">
<time>2016-10-07T07:10:20Z</time></trkpt>
<trkpt lat="26.595038" lon="100.190361">
<time>2016-10-07T07:10:21Z</time></trkpt>
<trkpt lat="26.595639" lon="100.190572">
<time>2016-10-07T07:10:22Z</time></trkpt>
<trkpt lat="26.595929" lon="100.190692">
<time>2016-10-07T07:10:23Z</time></trkpt>
<trkpt lat="26.596209" lon="100.190842">
<time>2016-10-07T07:10:24Z</time></trkpt>
<trkpt lat="26.596259" lon="100.190882">
<time>2016-10-07T07:10:25Z</time></trkpt>
<trkpt lat="26.59641" lon="100.191002">
<time>2016-10-07T07:10:26Z</time></trkpt>
<trkpt lat="26.59658" lon="100.191203">
<time>2016-10-07T07:10:27Z</time></trkpt>
<trkpt lat="26.59668" lon="100.191333">
<time>2016-10-07T07:10:28Z</time></trkpt>
<trkpt lat="26.596791" lon="100.191503">
<time>2016-10-07T07:10:29Z</time></trkpt>
<trkpt lat="26.596911" lon="100.191714">
<time>2016-10-07T07:10:30Z</time></trkpt>
<trkpt lat="26.597041" lon="100.191904">
<time>2016-10-07T07:10:31Z</time></trkpt>
<trkpt lat="26.597132" lon="100.192054">
<time>2016-10-07T07:10:32Z</time></trkpt>
<trkpt lat="26.597252" lon="100.192215">
<time>2016-10-07T07:10:33Z</time></trkpt>
<trkpt lat="26.597382" lon="100.192345">
<time>2016-10-07T07:10:34Z</time></trkpt>
<trkpt lat="26.597562" lon="100.192515">
<time>2016-10-07T07:10:35Z</time></trkpt>
<trkpt lat="26.597803" lon="100.192696">
<time>2016-10-07T07:10:36Z</time></trkpt>
<trkpt lat="26.597993" lon="100.192806">
<time>2016-10-07T07:10:37Z</time></trkpt>
<trkpt lat="26.598293" lon="100.192936">
<time>2016-10-07T07:10:38Z</time></trkpt>
<trkpt lat="26.598313" lon="100.192946">
<time>2016-10-07T07:10:39Z</time></trkpt>
<trkpt lat="26.598674" lon="100.193116">
<time>2016-10-07T07:10:40Z</time></trkpt>
<trkpt lat="26.598994" lon="100.193247">
<time>2016-10-07T07:10:41Z</time></trkpt>
<trkpt lat="26.600255" lon="100.193788">
<time>2016-10-07T07:10:42Z</time></trkpt>
<trkpt lat="26.600485" lon="100.193898">
<time>2016-10-07T07:10:43Z</time></trkpt>
<trkpt lat="26.601466" lon="100.194319">
<time>2016-10-07T07:10:44Z</time></trkpt>
<trkpt lat="26.602387" lon="100.194719">
<time>2016-10-07T07:10:45Z</time></trkpt>
<trkpt lat="26.603878" lon="100.19536">
<time>2016-10-07T07:10:46Z</time></trkpt>
<trkpt lat="26.604568" lon="100.195651">
<time>2016-10-07T07:10:47Z</time></trkpt>
<trkpt lat="26.605579" lon="100.196102">
<time>2016-10-07T07:10:48Z</time></trkpt>
<trkpt lat="26.60594" lon="100.196252">
<time>2016-10-07T07:10:49Z</time></trkpt>
<trkpt lat="26.60636" lon="100.196432">
<time>2016-10-07T07:10:50Z</time></trkpt>
<trkpt lat="26.60666" lon="100.196563">
<time>2016-10-07T07:10:51Z</time></trkpt>
<trkpt lat="26.607671" lon="100.197013">
<time>2016-10-07T07:10:52Z</time></trkpt>
<trkpt lat="26.607971" lon="100.197194">
<time>2016-10-07T07:10:53Z</time></trkpt>
<trkpt lat="26.608172" lon="100.197334">
<time>2016-10-07T07:10:54Z</time></trkpt>
<trkpt lat="26.608242" lon="100.197384">
<time>2016-10-07T07:10:55Z</time></trkpt>
<trkpt lat="26.608432" lon="100.197544">
<time>2016-10-07T07:10:56Z</time></trkpt>
<trkpt lat="26.608522" lon="100.197624">
<time>2016-10-07T07:10:57Z</time></trkpt>
<trkpt lat="26.608602" lon="100.197695">
<time>2016-10-07T07:10:58Z</time></trkpt>
<trkpt lat="26.609694" lon="100.198636">
<time>2016-10-07T07:10:59Z</time></trkpt>
<trkpt lat="26.609884" lon="100.198786">
<time>2016-10-07T07:11:00Z</time></trkpt>
<trkpt lat="26.610034" lon="100.198887">
<time>2016-10-07T07:11:01Z</time></trkpt>
<trkpt lat="26.610184" lon="100.198967">
<time>2016-10-07T07:11:02Z</time></trkpt>
<trkpt lat="26.610345" lon="100.199027">
<time>2016-10-07T07:11:03Z</time></trkpt>
<trkpt lat="26.610505" lon="100.199077">
<time>2016-10-07T07:11:04Z</time></trkpt>
<trkpt lat="26.610745" lon="100.199127">
<time>2016-10-07T07:11:05Z</time></trkpt>
<trkpt lat="26.610995" lon="100.199167">
<time>2016-10-07T07:11:06Z</time></trkpt>
<trkpt lat="26.611335" lon="100.199197">
<time>2016-10-07T07:11:07Z</time></trkpt>
<trkpt lat="26.611715" lon="100.199237">
<time>2016-10-07T07:11:08Z</time></trkpt>
<trkpt lat="26.612035" lon="100.199267">
<time>2016-10-07T07:11:09Z</time></trkpt>
<trkpt lat="26.612385" lon="100.199307">
<time>2016-10-07T07:11:10Z</time></trkpt>
<trkpt lat="26.612395" lon="100.199307">
<time>2016-10-07T07:11:11Z</time></trkpt>
<trkpt lat="26.612735" lon="100.199357">
<time>2016-10-07T07:11:12Z</time></trkpt>
<trkpt lat="26.613055" lon="100.199418">
<time>2016-10-07T07:11:13Z</time></trkpt>
<trkpt lat="26.613356" lon="100.199488">
<time>2016-10-07T07:11:14Z</time></trkpt>
<trkpt lat="26.613686" lon="100.199568">
<time>2016-10-07T07:11:15Z</time></trkpt>
<trkpt lat="26.614046" lon="100.199658">
<time>2016-10-07T07:11:16Z</time></trkpt>
<trkpt lat="26.614256" lon="100.199708">
<time>2016-10-07T07:11:17Z</time></trkpt>
<trkpt lat="26.614456" lon="100.199748">
<time>2016-10-07T07:11:18Z</time></trkpt>
<trkpt lat="26.614616" lon="100.199788">
<time>2016-10-07T07:11:19Z</time></trkpt>
<trkpt lat="26.614766" lon="100.199808">
<time>2016-10-07T07:11:20Z</time></trkpt>
<trkpt lat="26.614956" lon="100.199828">
<time>2016-10-07T07:11:21Z</time></trkpt>
<trkpt lat="26.615126" lon="100.199838">
<time>2016-10-07T07:11:22Z</time></trkpt>
<trkpt lat="26.615296" lon="100.199828">
<time>2016-10-07T07:11:23Z</time></trkpt>
<trkpt lat="26.615446" lon="100.199798">
<time>2016-10-07T07:11:24Z</time></trkpt>
<trkpt lat="26.615616" lon="100.199768">
<time>2016-10-07T07:11:25Z</time></trkpt>
<trkpt lat="26.615646" lon="100.199758">
<time>2016-10-07T07:11:26Z</time></trkpt>
<trkpt lat="26.615766" lon="100.199728">
<time>2016-10-07T07:11:27Z</time></trkpt>
<trkpt lat="26.616126" lon="100.199598">
<time>2016-10-07T07:11:28Z</time></trkpt>
<trkpt lat="26.616616" lon="100.199427">
<time>2016-10-07T07:11:29Z</time></trkpt>
<trkpt lat="26.617106" lon="100.199247">
<time>2016-10-07T07:11:30Z</time></trkpt>
<trkpt lat="26.617755" lon="100.199017">
<time>2016-10-07T07:11:31Z</time></trkpt>
<trkpt lat="26.618095" lon="100.198906">
<time>2016-10-07T07:11:32Z</time></trkpt>
<trkpt lat="26.618445" lon="100.198806">
<time>2016-10-07T07:11:33Z</time></trkpt>
<trkpt lat="26.618605" lon="100.198766">
<time>2016-10-07T07:11:34Z</time></trkpt>
<trkpt lat="26.618785" lon="100.198716">
<time>2016-10-07T07:11:35Z</time></trkpt>
<trkpt lat="26.618925" lon="100.198686">
<time>2016-10-07T07:11:36Z</time></trkpt>
<trkpt lat="26.618985" lon="100.198676">
<time>2016-10-07T07:11:37Z</time></trkpt>
<trkpt lat="26.619135" lon="100.198646">
<time>2016-10-07T07:11:38Z</time></trkpt>
<trkpt lat="26.619305" lon="100.198606">
<time>2016-10-07T07:11:39Z</time></trkpt>
<trkpt lat="26.619465" lon="100.198586">
<time>2016-10-07T07:11:40Z</time></trkpt>
<trkpt lat="26.619645" lon="100.198556">
<time>2016-10-07T07:11:41Z</time></trkpt>
<trkpt lat="26.619795" lon="100.198536">
<time>2016-10-07T07:11:42Z</time></trkpt>
<trkpt lat="26.620155" lon="100.198516">
<time>2016-10-07T07:11:43Z</time></trkpt>
<trkpt lat="26.620515" lon="100.198526">
<time>2016-10-07T07:11:44Z</time></trkpt>
<trkpt lat="26.620865" lon="100.198546">
<time>2016-10-07T07:11:45Z</time></trkpt>
<trkpt lat="26.621245" lon="100.198596">
<time>2016-10-07T07:11:46Z</time></trkpt>
<trkpt lat="26.621515" lon="100.198646">
<time>2016-10-07T07:11:47Z</time></trkpt>
<trkpt lat="26.621605" lon="100.198656">
<time>2016-10-07T07:11:48Z</time></trkpt>
<trkpt lat="26.622435" lon="100.198856">
<time>2016-10-07T07:11:49Z</time></trkpt>
<trkpt lat="26.623016" lon="100.198987">
<time>2016-10-07T07:11:50Z</time></trkpt>
<trkpt lat="26.623366" lon="100.199067">
<time>2016-10-07T07:11:51Z</time></trkpt>
<trkpt lat="26.624046" lon="100.199227">
<time>2016-10-07T07:11:52Z</time></trkpt>
<trkpt lat="26.624787" lon="100.199447">
<time>2016-10-07T07:11:53Z</time></trkpt>
<trkpt lat="26.625337" lon="100.199608">
<time>2016-10-07T07:11:54Z</time></trkpt>
<trkpt lat="26.625667" lon="100.199738">
<time>2016-10-07T07:11:55Z</time></trkpt>
<trkpt lat="26.625957" lon="100.199838">
<time>2016-10-07T07:11:56Z</time></trkpt>
<trkpt lat="26.626227" lon="100.199948">
<time>2016-10-07T07:11:57Z</time></trkpt>
<trkpt lat="26.626508" lon="100.200058">
<time>2016-10-07T07:11:58Z</time></trkpt>
<trkpt lat="26.626778" lon="100.200168">
<time>2016-10-07T07:11:59Z</time></trkpt>
<trkpt lat="26.627098" lon="100.200269">
<time>2016-10-07T07:12:00Z</time></trkpt>
<trkpt lat="26.627408" lon="100.200359">
<time>2016-10-07T07:12:01Z</time></trkpt>
<trkpt lat="26.627728" lon="100.200449">
<time>2016-10-07T07:12:02Z</time></trkpt>
<trkpt lat="26.628049" lon="100.200539">
<time>2016-10-07T07:12:03Z</time></trkpt>
<trkpt lat="26.628379" lon="100.200609">
<time>2016-10-07T07:12:04Z</time></trkpt>
<trkpt lat="26.628739" lon="100.200689">
<time>2016-10-07T07:12:05Z</time></trkpt>
<trkpt lat="26.629069" lon="100.200759">
<time>2016-10-07T07:12:06Z</time></trkpt>
<trkpt lat="26.63175" lon="100.2013">
<time>2016-10-07T07:12:07Z</time></trkpt>
<trkpt lat="26.63209" lon="100.20137">
<time>2016-10-07T07:12:08Z</time></trkpt>
<trkpt lat="26.63234" lon="100.201431">
<time>2016-10-07T07:12:09Z</time></trkpt>
<trkpt lat="26.63246" lon="100.201461">
<time>2016-10-07T07:12:10Z</time></trkpt>
<trkpt lat="26.63259" lon="100.201511">
<time>2016-10-07T07:12:11Z</time></trkpt>
<trkpt lat="26.632881" lon="100.201621">
<time>2016-10-07T07:12:12Z</time></trkpt>
<trkpt lat="26.633171" lon="100.201751">
<time>2016-10-07T07:12:13Z</time></trkpt>
<trkpt lat="26.633431" lon="100.201861">
<time>2016-10-07T07:12:14Z</time></trkpt>
<trkpt lat="26.634602" lon="100.202352">
<time>2016-10-07T07:12:15Z</time></trkpt>
<trkpt lat="26.634812" lon="100.202412">
<time>2016-10-07T07:12:16Z</time></trkpt>
<trkpt lat="26.634842" lon="100.202422">
<time>2016-10-07T07:12:17Z</time></trkpt>
<trkpt lat="26.634982" lon="100.202462">
<time>2016-10-07T07:12:18Z</time></trkpt>
<trkpt lat="26.635002" lon="100.202462">
<time>2016-10-07T07:12:19Z</time></trkpt>
<trkpt lat="26.635282" lon="100.202542">
<time>2016-10-07T07:12:20Z</time></trkpt>
<trkpt lat="26.635472" lon="100.202582">
<time>2016-10-07T07:12:21Z</time></trkpt>
<trkpt lat="26.635752" lon="100.202653">
<time>2016-10-07T07:12:22Z</time></trkpt>
<trkpt lat="26.636043" lon="100.202733">
<time>2016-10-07T07:12:23Z</time></trkpt>
<trkpt lat="26.636223" lon="100.202773">
<time>2016-10-07T07:12:24Z</time></trkpt>
<trkpt lat="26.637333" lon="100.203083">
<time>2016-10-07T07:12:25Z</time></trkpt>
<trkpt lat="26.637753" lon="100.203213">
<time>2016-10-07T07:12:26Z</time></trkpt>
<trkpt lat="26.638244" lon="100.203374">
<time>2016-10-07T07:12:27Z</time></trkpt>
<trkpt lat="26.638984" lon="100.203624">
<time>2016-10-07T07:12:28Z</time></trkpt>
<trkpt lat="26.639514" lon="100.203794">
<time>2016-10-07T07:12:29Z</time></trkpt>
<trkpt lat="26.639855" lon="100.203905">
<time>2016-10-07T07:12:30Z</time></trkpt>
<trkpt lat="26.642246" lon="100.204586">
<time>2016-10-07T07:12:31Z</time></trkpt>
<trkpt lat="26.644417" lon="100.205186">
<time>2016-10-07T07:12:32Z</time></trkpt>
<trkpt lat="26.645767" lon="100.205577">
<time>2016-10-07T07:12:33Z</time></trkpt>
<trkpt lat="26.647818" lon="100.206158">
<time>2016-10-07T07:12:34Z</time></trkpt>
<trkpt lat="26.648098" lon="100.206238">
<time>2016-10-07T07:12:35Z</time></trkpt>
<trkpt lat="26.648409" lon="100.206318">
<time>2016-10-07T07:12:36Z</time></trkpt>
<trkpt lat="26.648719" lon="100.206408">
<time>2016-10-07T07:12:37Z</time></trkpt>
<trkpt lat="26.649029" lon="100.206498">
<time>2016-10-07T07:12:38Z</time></trkpt>
<trkpt lat="26.649319" lon="100.206589">
<time>2016-10-07T07:12:39Z</time></trkpt>
<trkpt lat="26.649609" lon="100.206669">
<time>2016-10-07T07:12:40Z</time></trkpt>
<trkpt lat="26.649949" lon="100.206779">
<time>2016-10-07T07:12:41Z</time></trkpt>
<trkpt lat="26.649979" lon="100.206789">
<time>2016-10-07T07:12:42Z</time></trkpt>
<trkpt lat="26.650139" lon="100.206879">
<time>2016-10-07T07:12:43Z</time></trkpt>
<trkpt lat="26.65029" lon="100.206969">
<time>2016-10-07T07:12:44Z</time></trkpt>
<trkpt lat="26.65044" lon="100.207079">
<time>2016-10-07T07:12:45Z</time></trkpt>
<trkpt lat="26.65056" lon="100.2072">
<time>2016-10-07T07:12:46Z</time></trkpt>
<trkpt lat="26.65069" lon="100.20734">
<time>2016-10-07T07:12:47Z</time></trkpt>
<trkpt lat="26.65086" lon="100.20757">
<time>2016-10-07T07:12:48Z</time></trkpt>
<trkpt lat="26.650951" lon="100.20776">
<time>2016-10-07T07:12:49Z</time></trkpt>
<trkpt lat="26.651021" lon="100.207951">
<time>2016-10-07T07:12:50Z</time></trkpt>
<trkpt lat="26.651071" lon="100.208121">
<time>2016-10-07T07:12:51Z</time></trkpt>
<trkpt lat="26.651111" lon="100.208301">
<time>2016-10-07T07:12:52Z</time></trkpt>
<trkpt lat="26.651132" lon="100.208441">
<time>2016-10-07T07:12:53Z</time></trkpt>
<trkpt lat="26.651142" lon="100.208602">
<time>2016-10-07T07:12:54Z</time></trkpt>
<trkpt lat="26.651152" lon="100.208732">
<time>2016-10-07T07:12:55Z</time></trkpt>
<trkpt lat="26.651142" lon="100.208852">
<time>2016-10-07T07:12:56Z</time></trkpt>
<trkpt lat="26.651142" lon="100.208852">
<time>2016-10-07T07:12:57Z</time></trkpt>
<trkpt lat="26.652203" lon="100.209263">
<time>2016-10-07T07:12:58Z</time></trkpt>
<trkpt lat="26.653103" lon="100.209613">
<time>2016-10-07T07:12:59Z</time></trkpt>
<trkpt lat="26.653654" lon="100.209793">
<time>2016-10-07T07:13:00Z</time></trkpt>
<trkpt lat="26.653844" lon="100.209863">
<time>2016-10-07T07:13:01Z</time></trkpt>
<trkpt lat="26.655094" lon="100.210194">
<time>2016-10-07T07:13:02Z</time></trkpt>
<trkpt lat="26.659226" lon="100.211285">
<time>2016-10-07T07:13:03Z</time></trkpt>
<trkpt lat="26.659226" lon="100.211285">
<time>2016-10-07T07:13:04Z</time></trkpt>
<trkpt lat="26.659206" lon="100.211426">
<time>2016-10-07T07:13:05Z</time></trkpt>
<trkpt lat="26.659107" lon="100.211946">
<time>2016-10-07T07:13:06Z</time></trkpt>
<trkpt lat="26.659057" lon="100.212217">
<time>2016-10-07T07:13:07Z</time></trkpt>
<trkpt lat="26.659037" lon="100.212307">
<time>2016-10-07T07:13:08Z</time></trkpt>
<trkpt lat="26.659017" lon="100.212397">
<time>2016-10-07T07:13:09Z</time></trkpt>
<trkpt lat="26.659017" lon="100.212397">
<time>2016-10-07T07:13:10Z</time></trkpt>
<trkpt lat="26.659077" lon="100.212397">
<time>2016-10-07T07:13:11Z</time></trkpt>
<trkpt lat="26.659257" lon="100.212347">
<time>2016-10-07T07:13:12Z</time></trkpt>
<trkpt lat="26.659377" lon="100.212337">
<time>2016-10-07T07:13:13Z</time></trkpt>
<trkpt lat="26.659637" lon="100.212397">
<time>2016-10-07T07:13:14Z</time></trkpt>
<trkpt lat="26.659717" lon="100.212457">
<time>2016-10-07T07:13:15Z</time></trkpt>
<trkpt lat="26.659797" lon="100.212527">
<time>2016-10-07T07:13:16Z</time></trkpt>
<trkpt lat="26.659857" lon="100.212637">
<time>2016-10-07T07:13:17Z</time></trkpt>
<trkpt lat="26.660078" lon="100.212988">
<time>2016-10-07T07:13:18Z</time></trkpt>
<trkpt lat="26.660168" lon="100.213078">
<time>2016-10-07T07:13:19Z</time></trkpt>
<trkpt lat="26.660298" lon="100.213128">
<time>2016-10-07T07:13:20Z</time></trkpt>
<trkpt lat="26.660728" lon="100.213248">
<time>2016-10-07T07:13:21Z</time></trkpt>
<trkpt lat="26.661188" lon="100.213368">
<time>2016-10-07T07:13:22Z</time></trkpt>
<trkpt lat="26.661489" lon="100.213458">
<time>2016-10-07T07:13:23Z</time></trkpt>
<trkpt lat="26.661909" lon="100.213599">
<time>2016-10-07T07:13:24Z</time></trkpt>
<trkpt lat="26.662189" lon="100.213669">
<time>2016-10-07T07:13:25Z</time></trkpt>
<trkpt lat="26.662469" lon="100.213759">
<time>2016-10-07T07:13:26Z</time></trkpt>
<trkpt lat="26.662769" lon="100.213839">
<time>2016-10-07T07:13:27Z</time></trkpt>
<trkpt lat="26.662899" lon="100.213889">
<time>2016-10-07T07:13:28Z</time></trkpt>
<trkpt lat="26.663139" lon="100.213999">
<time>2016-10-07T07:13:29Z</time></trkpt>
<trkpt lat="26.66355" lon="100.214169">
<time>2016-10-07T07:13:30Z</time></trkpt>
<trkpt lat="26.6638" lon="100.214219">
<time>2016-10-07T07:13:31Z</time></trkpt>
<trkpt lat="26.66419" lon="100.214289">
<time>2016-10-07T07:13:32Z</time></trkpt>
<trkpt lat="26.66443" lon="100.21436">
<time>2016-10-07T07:13:33Z</time></trkpt>
<trkpt lat="26.66482" lon="100.21451">
<time>2016-10-07T07:13:34Z</time></trkpt>
<trkpt lat="26.66493" lon="100.21457">
<time>2016-10-07T07:13:35Z</time></trkpt>
<trkpt lat="26.66514" lon="100.21474">
<time>2016-10-07T07:13:36Z</time></trkpt>
<trkpt lat="26.6652" lon="100.21485">
<time>2016-10-07T07:13:37Z</time></trkpt>
<trkpt lat="26.665281" lon="100.21509">
<time>2016-10-07T07:13:38Z</time></trkpt>
<trkpt lat="26.665431" lon="100.215301">
<time>2016-10-07T07:13:39Z</time></trkpt>
<trkpt lat="26.665521" lon="100.215381">
<time>2016-10-07T07:13:40Z</time></trkpt>
<trkpt lat="26.665711" lon="100.215501">
<time>2016-10-07T07:13:41Z</time></trkpt>
<trkpt lat="26.665821" lon="100.215571">
<time>2016-10-07T07:13:42Z</time></trkpt>
<trkpt lat="26.666011" lon="100.215671">
<time>2016-10-07T07:13:43Z</time></trkpt>
<trkpt lat="26.666682" lon="100.216082">
<time>2016-10-07T07:13:44Z</time></trkpt>
<trkpt lat="26.666872" lon="100.216202">
<time>2016-10-07T07:13:45Z</time></trkpt>
<trkpt lat="26.666932" lon="100.216232">
<time>2016-10-07T07:13:46Z</time></trkpt>
<trkpt lat="26.667112" lon="100.216342">
<time>2016-10-07T07:13:47Z</time></trkpt>
<trkpt lat="26.667212" lon="100.216442">
<time>2016-10-07T07:13:48Z</time></trkpt>
<trkpt lat="26.667282" lon="100.216512">
<time>2016-10-07T07:13:49Z</time></trkpt>
<trkpt lat="26.667392" lon="100.216602">
<time>2016-10-07T07:13:50Z</time></trkpt>
<trkpt lat="26.667483" lon="100.216642">
<time>2016-10-07T07:13:51Z</time></trkpt>
<trkpt lat="26.667623" lon="100.216692">
<time>2016-10-07T07:13:52Z</time></trkpt>
<trkpt lat="26.667953" lon="100.216743">
<time>2016-10-07T07:13:53Z</time></trkpt>
<trkpt lat="26.668243" lon="100.216732">
<time>2016-10-07T07:13:54Z</time></trkpt>
<trkpt lat="26.668483" lon="100.216732">
<time>2016-10-07T07:13:55Z</time></trkpt>
<trkpt lat="26.669143" lon="100.216662">
<time>2016-10-07T07:13:56Z</time></trkpt>
<trkpt lat="26.669793" lon="100.216742">
<time>2016-10-07T07:13:57Z</time></trkpt>
<trkpt lat="26.670443" lon="100.217023">
<time>2016-10-07T07:13:58Z</time></trkpt>
<trkpt lat="26.670833" lon="100.217173">
<time>2016-10-07T07:13:59Z</time></trkpt>
<trkpt lat="26.671253" lon="100.217333">
<time>2016-10-07T07:14:00Z</time></trkpt>
<trkpt lat="26.671754" lon="100.217563">
<time>2016-10-07T07:14:01Z</time></trkpt>
<trkpt lat="26.672704" lon="100.217984">
<time>2016-10-07T07:14:02Z</time></trkpt>
<trkpt lat="26.673815" lon="100.218354">
<time>2016-10-07T07:14:03Z</time></trkpt>
<trkpt lat="26.674165" lon="100.218484">
<time>2016-10-07T07:14:04Z</time></trkpt>
<trkpt lat="26.674485" lon="100.218615">
<time>2016-10-07T07:14:05Z</time></trkpt>
<trkpt lat="26.675245" lon="100.219085">
<time>2016-10-07T07:14:06Z</time></trkpt>
<trkpt lat="26.675686" lon="100.219355">
<time>2016-10-07T07:14:07Z</time></trkpt>
<trkpt lat="26.676026" lon="100.219576">
<time>2016-10-07T07:14:08Z</time></trkpt>
<trkpt lat="26.676986" lon="100.220096">
<time>2016-10-07T07:14:09Z</time></trkpt>
<trkpt lat="26.677087" lon="100.220166">
<time>2016-10-07T07:14:10Z</time></trkpt>
<trkpt lat="26.677147" lon="100.220226">
<time>2016-10-07T07:14:11Z</time></trkpt>
<trkpt lat="26.677167" lon="100.220246">
<time>2016-10-07T07:14:12Z</time></trkpt>
<trkpt lat="26.677317" lon="100.220357">
<time>2016-10-07T07:14:13Z</time></trkpt>
<trkpt lat="26.677597" lon="100.220547">
<time>2016-10-07T07:14:14Z</time></trkpt>
<trkpt lat="26.677797" lon="100.220687">
<time>2016-10-07T07:14:15Z</time></trkpt>
<trkpt lat="26.678157" lon="100.220897">
<time>2016-10-07T07:14:16Z</time></trkpt>
<trkpt lat="26.678367" lon="100.221057">
<time>2016-10-07T07:14:17Z</time></trkpt>
<trkpt lat="26.678377" lon="100.221057">
<time>2016-10-07T07:14:18Z</time></trkpt>
<trkpt lat="26.678938" lon="100.221498">
<time>2016-10-07T07:14:19Z</time></trkpt>
<trkpt lat="26.679138" lon="100.221618">
<time>2016-10-07T07:14:20Z</time></trkpt>
<trkpt lat="26.679298" lon="100.221668">
<time>2016-10-07T07:14:21Z</time></trkpt>
<trkpt lat="26.679448" lon="100.221758">
<time>2016-10-07T07:14:22Z</time></trkpt>
<trkpt lat="26.679668" lon="100.221898">
<time>2016-10-07T07:14:23Z</time></trkpt>
<trkpt lat="26.680569" lon="100.222449">
<time>2016-10-07T07:14:24Z</time></trkpt>
<trkpt lat="26.680729" lon="100.222549">
<time>2016-10-07T07:14:25Z</time></trkpt>
<trkpt lat="26.680799" lon="100.222609">
<time>2016-10-07T07:14:26Z</time></trkpt>
<trkpt lat="26.680939" lon="100.222689">
<time>2016-10-07T07:14:27Z</time></trkpt>
<trkpt lat="26.681109" lon="100.222819">
<time>2016-10-07T07:14:28Z</time></trkpt>
<trkpt lat="26.681369" lon="100.222989">
<time>2016-10-07T07:14:29Z</time></trkpt>
<trkpt lat="26.681449" lon="100.223049">
<time>2016-10-07T07:14:30Z</time></trkpt>
<trkpt lat="26.681599" lon="100.223139">
<time>2016-10-07T07:14:31Z</time></trkpt>
<trkpt lat="26.68183" lon="100.22329">
<time>2016-10-07T07:14:32Z</time></trkpt>
<trkpt lat="26.68212" lon="100.22352">
<time>2016-10-07T07:14:33Z</time></trkpt>
<trkpt lat="26.68237" lon="100.22369">
<time>2016-10-07T07:14:34Z</time></trkpt>
<trkpt lat="26.68268" lon="100.22388">
<time>2016-10-07T07:14:35Z</time></trkpt>
<trkpt lat="26.68308" lon="100.22412">
<time>2016-10-07T07:14:36Z</time></trkpt>
<trkpt lat="26.683351" lon="100.224321">
<time>2016-10-07T07:14:37Z</time></trkpt>
<trkpt lat="26.683651" lon="100.224521">
<time>2016-10-07T07:14:38Z</time></trkpt>
<trkpt lat="26.683821" lon="100.224671">
<time>2016-10-07T07:14:39Z</time></trkpt>
<trkpt lat="26.684021" lon="100.224811">
<time>2016-10-07T07:14:40Z</time></trkpt>
<trkpt lat="26.684291" lon="100.225051">
<time>2016-10-07T07:14:41Z</time></trkpt>
<trkpt lat="26.684672" lon="100.225382">
<time>2016-10-07T07:14:42Z</time></trkpt>
<trkpt lat="26.684802" lon="100.225522">
<time>2016-10-07T07:14:43Z</time></trkpt>
<trkpt lat="26.685102" lon="100.225742">
<time>2016-10-07T07:14:44Z</time></trkpt>
<trkpt lat="26.685432" lon="100.226042">
<time>2016-10-07T07:14:45Z</time></trkpt>
<trkpt lat="26.685482" lon="100.226092">
<time>2016-10-07T07:14:46Z</time></trkpt>
<trkpt lat="26.685532" lon="100.226142">
<time>2016-10-07T07:14:47Z</time></trkpt>
<trkpt lat="26.685632" lon="100.226232">
<time>2016-10-07T07:14:48Z</time></trkpt>
<trkpt lat="26.685952" lon="100.226493">
<time>2016-10-07T07:14:49Z</time></trkpt>
<trkpt lat="26.686253" lon="100.226683">
<time>2016-10-07T07:14:50Z</time></trkpt>
<trkpt lat="26.686603" lon="100.226983">
<time>2016-10-07T07:14:51Z</time></trkpt>
<trkpt lat="26.687103" lon="100.227303">
<time>2016-10-07T07:14:52Z</time></trkpt>
<trkpt lat="26.687433" lon="100.227583">
<time>2016-10-07T07:14:53Z</time></trkpt>
<trkpt lat="26.687703" lon="100.227734">
<time>2016-10-07T07:14:54Z</time></trkpt>
<trkpt lat="26.687904" lon="100.227884">
<time>2016-10-07T07:14:55Z</time></trkpt>
<trkpt lat="26.688014" lon="100.227944">
<time>2016-10-07T07:14:56Z</time></trkpt>
<trkpt lat="26.688454" lon="100.228114">
<time>2016-10-07T07:14:57Z</time></trkpt>
<trkpt lat="26.688694" lon="100.228184">
<time>2016-10-07T07:14:58Z</time></trkpt>
<trkpt lat="26.688844" lon="100.228204">
<time>2016-10-07T07:14:59Z</time></trkpt>
<trkpt lat="26.688994" lon="100.228244">
<time>2016-10-07T07:15:00Z</time></trkpt>
<trkpt lat="26.689464" lon="100.228434">
<time>2016-10-07T07:15:01Z</time></trkpt>
<trkpt lat="26.689774" lon="100.228534">
<time>2016-10-07T07:15:02Z</time></trkpt>
<trkpt lat="26.690154" lon="100.228664">
<time>2016-10-07T07:15:03Z</time></trkpt>
<trkpt lat="26.690324" lon="100.228704">
<time>2016-10-07T07:15:04Z</time></trkpt>
<trkpt lat="26.690514" lon="100.228794">
<time>2016-10-07T07:15:05Z</time></trkpt>
<trkpt lat="26.690934" lon="100.228914">
<time>2016-10-07T07:15:06Z</time></trkpt>
<trkpt lat="26.691444" lon="100.229055">
<time>2016-10-07T07:15:07Z</time></trkpt>
<trkpt lat="26.691634" lon="100.229135">
<time>2016-10-07T07:15:08Z</time></trkpt>
<trkpt lat="26.691805" lon="100.229215">
<time>2016-10-07T07:15:09Z</time></trkpt>
<trkpt lat="26.691975" lon="100.229305">
<time>2016-10-07T07:15:10Z</time></trkpt>
<trkpt lat="26.692315" lon="100.229455">
<time>2016-10-07T07:15:11Z</time></trkpt>
<trkpt lat="26.692605" lon="100.229685">
<time>2016-10-07T07:15:12Z</time></trkpt>
<trkpt lat="26.692725" lon="100.229765">
<time>2016-10-07T07:15:13Z</time></trkpt>
<trkpt lat="26.693115" lon="100.229995">
<time>2016-10-07T07:15:14Z</time></trkpt>
<trkpt lat="26.693385" lon="100.230115">
<time>2016-10-07T07:15:15Z</time></trkpt>
<trkpt lat="26.693855" lon="100.230446">
<time>2016-10-07T07:15:16Z</time></trkpt>
<trkpt lat="26.694015" lon="100.230546">
<time>2016-10-07T07:15:17Z</time></trkpt>
<trkpt lat="26.694186" lon="100.230656">
<time>2016-10-07T07:15:18Z</time></trkpt>
<trkpt lat="26.694366" lon="100.230776">
<time>2016-10-07T07:15:19Z</time></trkpt>
<trkpt lat="26.694746" lon="100.231086">
<time>2016-10-07T07:15:20Z</time></trkpt>
<trkpt lat="26.694896" lon="100.231246">
<time>2016-10-07T07:15:21Z</time></trkpt>
<trkpt lat="26.695176" lon="100.231536">
<time>2016-10-07T07:15:22Z</time></trkpt>
<trkpt lat="26.695576" lon="100.231997">
<time>2016-10-07T07:15:23Z</time></trkpt>
<trkpt lat="26.695606" lon="100.232017">
<time>2016-10-07T07:15:24Z</time></trkpt>
<trkpt lat="26.696017" lon="100.232407">
<time>2016-10-07T07:15:25Z</time></trkpt>
<trkpt lat="26.696017" lon="100.232417">
<time>2016-10-07T07:15:26Z</time></trkpt>
<trkpt lat="26.696357" lon="100.232687">
<time>2016-10-07T07:15:27Z</time></trkpt>
<trkpt lat="26.696427" lon="100.232757">
<time>2016-10-07T07:15:28Z</time></trkpt>
<trkpt lat="26.696627" lon="100.232897">
<time>2016-10-07T07:15:29Z</time></trkpt>
<trkpt lat="26.696867" lon="100.233047">
<time>2016-10-07T07:15:30Z</time></trkpt>
<trkpt lat="26.697157" lon="100.233207">
<time>2016-10-07T07:15:31Z</time></trkpt>
<trkpt lat="26.697457" lon="100.233418">
<time>2016-10-07T07:15:32Z</time></trkpt>
<trkpt lat="26.697707" lon="100.233548">
<time>2016-10-07T07:15:33Z</time></trkpt>
<trkpt lat="26.697967" lon="100.233698">
<time>2016-10-07T07:15:34Z</time></trkpt>
<trkpt lat="26.698047" lon="100.233748">
<time>2016-10-07T07:15:35Z</time></trkpt>
<trkpt lat="26.698127" lon="100.233798">
<time>2016-10-07T07:15:36Z</time></trkpt>
<trkpt lat="26.698388" lon="100.233978">
<time>2016-10-07T07:15:37Z</time></trkpt>
<trkpt lat="26.698628" lon="100.234178">
<time>2016-10-07T07:15:38Z</time></trkpt>
<trkpt lat="26.698898" lon="100.234388">
<time>2016-10-07T07:15:39Z</time></trkpt>
<trkpt lat="26.699298" lon="100.234628">
<time>2016-10-07T07:15:40Z</time></trkpt>
<trkpt lat="26.699558" lon="100.234808">
<time>2016-10-07T07:15:41Z</time></trkpt>
<trkpt lat="26.699858" lon="100.234998">
<time>2016-10-07T07:15:42Z</time></trkpt>
<trkpt lat="26.700078" lon="100.235108">
<time>2016-10-07T07:15:43Z</time></trkpt>
<trkpt lat="26.700308" lon="100.235198">
<time>2016-10-07T07:15:44Z</time></trkpt>
<trkpt lat="26.700528" lon="100.235238">
<time>2016-10-07T07:15:45Z</time></trkpt>
<trkpt lat="26.700868" lon="100.235299">
<time>2016-10-07T07:15:46Z</time></trkpt>
<trkpt lat="26.701088" lon="100.235349">
<time>2016-10-07T07:15:47Z</time></trkpt>
<trkpt lat="26.701218" lon="100.235419">
<time>2016-10-07T07:15:48Z</time></trkpt>
<trkpt lat="26.701448" lon="100.235609">
<time>2016-10-07T07:15:49Z</time></trkpt>
<trkpt lat="26.701578" lon="100.235679">
<time>2016-10-07T07:15:50Z</time></trkpt>
<trkpt lat="26.701848" lon="100.235829">
<time>2016-10-07T07:15:51Z</time></trkpt>
<trkpt lat="26.701938" lon="100.235859">
<time>2016-10-07T07:15:52Z</time></trkpt>
<trkpt lat="26.702038" lon="100.235909">
<time>2016-10-07T07:15:53Z</time></trkpt>
<trkpt lat="26.702108" lon="100.235959">
<time>2016-10-07T07:15:54Z</time></trkpt>
<trkpt lat="26.702189" lon="100.236019">
<time>2016-10-07T07:15:55Z</time></trkpt>
<trkpt lat="26.702259" lon="100.236099">
<time>2016-10-07T07:15:56Z</time></trkpt>
<trkpt lat="26.702429" lon="100.236389">
<time>2016-10-07T07:15:57Z</time></trkpt>
<trkpt lat="26.702529" lon="100.236689">
<time>2016-10-07T07:15:58Z</time></trkpt>
<trkpt lat="26.702619" lon="100.236959">
<time>2016-10-07T07:15:59Z</time></trkpt>
<trkpt lat="26.702649" lon="100.237099">
<time>2016-10-07T07:16:00Z</time></trkpt>
<trkpt lat="26.702659" lon="100.237159">
<time>2016-10-07T07:16:01Z</time></trkpt>
<trkpt lat="26.702709" lon="100.237309">
<time>2016-10-07T07:16:02Z</time></trkpt>
<trkpt lat="26.702769" lon="100.237339">
<time>2016-10-07T07:16:03Z</time></trkpt>
<trkpt lat="26.702819" lon="100.237319">
<time>2016-10-07T07:16:04Z</time></trkpt>
<trkpt lat="26.702869" lon="100.237279">
<time>2016-10-07T07:16:05Z</time></trkpt>
<trkpt lat="26.702949" lon="100.237169">
<time>2016-10-07T07:16:06Z</time></trkpt>
<trkpt lat="26.703159" lon="100.236829">
<time>2016-10-07T07:16:07Z</time></trkpt>
<trkpt lat="26.703249" lon="100.236709">
<time>2016-10-07T07:16:08Z</time></trkpt>
<trkpt lat="26.703329" lon="100.236539">
<time>2016-10-07T07:16:09Z</time></trkpt>
<trkpt lat="26.703579" lon="100.236059">
<time>2016-10-07T07:16:10Z</time></trkpt>
<trkpt lat="26.703598" lon="100.235949">
<time>2016-10-07T07:16:11Z</time></trkpt>
<trkpt lat="26.703658" lon="100.235819">
<time>2016-10-07T07:16:12Z</time></trkpt>
<trkpt lat="26.703698" lon="100.235779">
<time>2016-10-07T07:16:13Z</time></trkpt>
<trkpt lat="26.703778" lon="100.235799">
<time>2016-10-07T07:16:14Z</time></trkpt>
<trkpt lat="26.703798" lon="100.235859">
<time>2016-10-07T07:16:15Z</time></trkpt>
<trkpt lat="26.703789" lon="100.236449">
<time>2016-10-07T07:16:16Z</time></trkpt>
<trkpt lat="26.703789" lon="100.236719">
<time>2016-10-07T07:16:17Z</time></trkpt>
<trkpt lat="26.703819" lon="100.236779">
<time>2016-10-07T07:16:18Z</time></trkpt>
<trkpt lat="26.703869" lon="100.236799">
<time>2016-10-07T07:16:19Z</time></trkpt>
<trkpt lat="26.703949" lon="100.236799">
<time>2016-10-07T07:16:20Z</time></trkpt>
<trkpt lat="26.703999" lon="100.236749">
<time>2016-10-07T07:16:21Z</time></trkpt>
<trkpt lat="26.704099" lon="100.236569">
<time>2016-10-07T07:16:22Z</time></trkpt>
<trkpt lat="26.704159" lon="100.236489">
<time>2016-10-07T07:16:23Z</time></trkpt>
<trkpt lat="26.704229" lon="100.236439">
<time>2016-10-07T07:16:24Z</time></trkpt>
<trkpt lat="26.704519" lon="100.236419">
<time>2016-10-07T07:16:25Z</time></trkpt>
<trkpt lat="26.704709" lon="100.236369">
<time>2016-10-07T07:16:26Z</time></trkpt>
<trkpt lat="26.704969" lon="100.236239">
<time>2016-10-07T07:16:27Z</time></trkpt>
<trkpt lat="26.705099" lon="100.236199">
<time>2016-10-07T07:16:28Z</time></trkpt>
<trkpt lat="26.705309" lon="100.236189">
<time>2016-10-07T07:16:29Z</time></trkpt>
<trkpt lat="26.705578" lon="100.236089">
<time>2016-10-07T07:16:30Z</time></trkpt>
<trkpt lat="26.705758" lon="100.236059">
<time>2016-10-07T07:16:31Z</time></trkpt>
<trkpt lat="26.705899" lon="100.236119">
<time>2016-10-07T07:16:32Z</time></trkpt>
<trkpt lat="26.706129" lon="100.236229">
<time>2016-10-07T07:16:33Z</time></trkpt>
<trkpt lat="26.706389" lon="100.236289">
<time>2016-10-07T07:16:34Z</time></trkpt>
<trkpt lat="26.706799" lon="100.236229">
<time>2016-10-07T07:16:35Z</time></trkpt>
<trkpt lat="26.707089" lon="100.236229">
<time>2016-10-07T07:16:36Z</time></trkpt>
<trkpt lat="26.707229" lon="100.236209">
<time>2016-10-07T07:16:37Z</time></trkpt>
<trkpt lat="26.707368" lon="100.236149">
<time>2016-10-07T07:16:38Z</time></trkpt>
<trkpt lat="26.707638" lon="100.235969">
<time>2016-10-07T07:16:39Z</time></trkpt>
<trkpt lat="26.707888" lon="100.235769">
<time>2016-10-07T07:16:40Z</time></trkpt>
<trkpt lat="26.708028" lon="100.235709">
<time>2016-10-07T07:16:41Z</time></trkpt>
<trkpt lat="26.708168" lon="100.235679">
<time>2016-10-07T07:16:42Z</time></trkpt>
<trkpt lat="26.708458" lon="100.235669">
<time>2016-10-07T07:16:43Z</time></trkpt>
<trkpt lat="26.708588" lon="100.235689">
<time>2016-10-07T07:16:44Z</time></trkpt>
<trkpt lat="26.708928" lon="100.235789">
<time>2016-10-07T07:16:45Z</time></trkpt>
<trkpt lat="26.709138" lon="100.235909">
<time>2016-10-07T07:16:46Z</time></trkpt>
<trkpt lat="26.709288" lon="100.235999">
<time>2016-10-07T07:16:47Z</time></trkpt>
<trkpt lat="26.709378" lon="100.236039">
<time>2016-10-07T07:16:48Z</time></trkpt>
<trkpt lat="26.709488" lon="100.236109">
<time>2016-10-07T07:16:49Z</time></trkpt>
<trkpt lat="26.709618" lon="100.236159">
<time>2016-10-07T07:16:50Z</time></trkpt>
<trkpt lat="26.711378" lon="100.236149">
<time>2016-10-07T07:16:51Z</time></trkpt>
<trkpt lat="26.711488" lon="100.236179">
<time>2016-10-07T07:16:52Z</time></trkpt>
<trkpt lat="26.712659" lon="100.236479">
<time>2016-10-07T07:16:53Z</time></trkpt>
<trkpt lat="26.712889" lon="100.236579">
<time>2016-10-07T07:16:54Z</time></trkpt>
<trkpt lat="26.713209" lon="100.236669">
<time>2016-10-07T07:16:55Z</time></trkpt>
<trkpt lat="26.713629" lon="100.236809">
<time>2016-10-07T07:16:56Z</time></trkpt>
<trkpt lat="26.714019" lon="100.236939">
<time>2016-10-07T07:16:57Z</time></trkpt>
<trkpt lat="26.714129" lon="100.236939">
<time>2016-10-07T07:16:58Z</time></trkpt>
<trkpt lat="26.714459" lon="100.237019">
<time>2016-10-07T07:16:59Z</time></trkpt>
<trkpt lat="26.714589" lon="100.237019">
<time>2016-10-07T07:17:00Z</time></trkpt>
<trkpt lat="26.714709" lon="100.237069">
<time>2016-10-07T07:17:01Z</time></trkpt>
<trkpt lat="26.714809" lon="100.237149">
<time>2016-10-07T07:17:02Z</time></trkpt>
<trkpt lat="26.714999" lon="100.237359">
<time>2016-10-07T07:17:03Z</time></trkpt>
<trkpt lat="26.715229" lon="100.237669">
<time>2016-10-07T07:17:04Z</time></trkpt>
<trkpt lat="26.715329" lon="100.237759">
<time>2016-10-07T07:17:05Z</time></trkpt>
<trkpt lat="26.715429" lon="100.237819">
<time>2016-10-07T07:17:06Z</time></trkpt>
<trkpt lat="26.715659" lon="100.237939">
<time>2016-10-07T07:17:07Z</time></trkpt>
<trkpt lat="26.715749" lon="100.238019">
<time>2016-10-07T07:17:08Z</time></trkpt>
<trkpt lat="26.715809" lon="100.23812">
<time>2016-10-07T07:17:09Z</time></trkpt>
<trkpt lat="26.715959" lon="100.23828">
<time>2016-10-07T07:17:10Z</time></trkpt>
<trkpt lat="26.716109" lon="100.23836">
<time>2016-10-07T07:17:11Z</time></trkpt>
<trkpt lat="26.716229" lon="100.2384">
<time>2016-10-07T07:17:12Z</time></trkpt>
<trkpt lat="26.716439" lon="100.2385">
<time>2016-10-07T07:17:13Z</time></trkpt>
<trkpt lat="26.716659" lon="100.23862">
<time>2016-10-07T07:17:14Z</time></trkpt>
<trkpt lat="26.716919" lon="100.23873">
<time>2016-10-07T07:17:15Z</time></trkpt>
<trkpt lat="26.717069" lon="100.23879">
<time>2016-10-07T07:17:16Z</time></trkpt>
<trkpt lat="26.717479" lon="100.23902">
<time>2016-10-07T07:17:17Z</time></trkpt>
<trkpt lat="26.717569" lon="100.23912">
<time>2016-10-07T07:17:18Z</time></trkpt>
<trkpt lat="26.71766" lon="100.23941">
<time>2016-10-07T07:17:19Z</time></trkpt>
<trkpt lat="26.71772" lon="100.23954">
<time>2016-10-07T07:17:20Z</time></trkpt>
<trkpt lat="26.7178" lon="100.23965">
<time>2016-10-07T07:17:21Z</time></trkpt>
<trkpt lat="26.71791" lon="100.23972">
<time>2016-10-07T07:17:22Z</time></trkpt>
<trkpt lat="26.718" lon="100.23977">
<time>2016-10-07T07:17:23Z</time></trkpt>
<trkpt lat="26.71812" lon="100.23981">
<time>2016-10-07T07:17:24Z</time></trkpt>
<trkpt lat="26.71822" lon="100.23985">
<time>2016-10-07T07:17:25Z</time></trkpt>
<trkpt lat="26.71865" lon="100.2402">
<time>2016-10-07T07:17:26Z</time></trkpt>
<trkpt lat="26.71873" lon="100.24026">
<time>2016-10-07T07:17:27Z</time></trkpt>
<trkpt lat="26.71884" lon="100.24033">
<time>2016-10-07T07:17:28Z</time></trkpt>
<trkpt lat="26.71915" lon="100.24061">
<time>2016-10-07T07:17:29Z</time></trkpt>
<trkpt lat="26.71925" lon="100.2407">
<time>2016-10-07T07:17:30Z</time></trkpt>
<trkpt lat="26.71962" lon="100.24107">
<time>2016-10-07T07:17:31Z</time></trkpt>
<trkpt lat="26.72032" lon="100.241721">
<time>2016-10-07T07:17:32Z</time></trkpt>
<trkpt lat="26.72059" lon="100.242031">
<time>2016-10-07T07:17:33Z</time></trkpt>
<trkpt lat="26.7207" lon="100.242101">
<time>2016-10-07T07:17:34Z</time></trkpt>
<trkpt lat="26.72079" lon="100.242191">
<time>2016-10-07T07:17:35Z</time></trkpt>
<trkpt lat="26.7209" lon="100.242261">
<time>2016-10-07T07:17:36Z</time></trkpt>
<trkpt lat="26.72099" lon="100.242341">
<time>2016-10-07T07:17:37Z</time></trkpt>
<trkpt lat="26.72105" lon="100.242441">
<time>2016-10-07T07:17:38Z</time></trkpt>
<trkpt lat="26.72126" lon="100.242631">
<time>2016-10-07T07:17:39Z</time></trkpt>
<trkpt lat="26.72138" lon="100.242731">
<time>2016-10-07T07:17:40Z</time></trkpt>
<trkpt lat="26.72167" lon="100.243061">
<time>2016-10-07T07:17:41Z</time></trkpt>
<trkpt lat="26.72176" lon="100.243141">
<time>2016-10-07T07:17:42Z</time></trkpt>
<trkpt lat="26.72188" lon="100.243241">
<time>2016-10-07T07:17:43Z</time></trkpt>
<trkpt lat="26.72203" lon="100.243381">
<time>2016-10-07T07:17:44Z</time></trkpt>
<trkpt lat="26.722161" lon="100.243561">
<time>2016-10-07T07:17:45Z</time></trkpt>
<trkpt lat="26.722211" lon="100.243741">
<time>2016-10-07T07:17:46Z</time></trkpt>
<trkpt lat="26.722191" lon="100.243871">
<time>2016-10-07T07:17:47Z</time></trkpt>
<trkpt lat="26.722131" lon="100.244101">
<time>2016-10-07T07:17:48Z</time></trkpt>
<trkpt lat="26.722131" lon="100.244101">
<time>2016-10-07T07:17:49Z</time></trkpt>
<trkpt lat="26.723361" lon="100.244921">
<time>2016-10-07T07:17:50Z</time></trkpt>
<trkpt lat="26.724011" lon="100.245291">
<time>2016-10-07T07:17:51Z</time></trkpt>
<trkpt lat="26.724551" lon="100.245511">
<time>2016-10-07T07:17:52Z</time></trkpt>
<trkpt lat="26.725041" lon="100.245691">
<time>2016-10-07T07:17:53Z</time></trkpt>
<trkpt lat="26.726031" lon="100.246191">
<time>2016-10-07T07:17:54Z</time></trkpt>
<trkpt lat="26.726281" lon="100.246291">
<time>2016-10-07T07:17:55Z</time></trkpt>
<trkpt lat="26.727041" lon="100.246581">
<time>2016-10-07T07:17:56Z</time></trkpt>
<trkpt lat="26.727261" lon="100.246621">
<time>2016-10-07T07:17:57Z</time></trkpt>
<trkpt lat="26.727231" lon="100.246881">
<time>2016-10-07T07:17:58Z</time></trkpt>
<trkpt lat="26.727221" lon="100.246951">
<time>2016-10-07T07:17:59Z</time></trkpt>
<trkpt lat="26.727171" lon="100.247101">
<time>2016-10-07T07:18:00Z</time></trkpt>
<trkpt lat="26.727131" lon="100.247131">
<time>2016-10-07T07:18:01Z</time></trkpt>
<trkpt lat="26.727121" lon="100.247141">
<time>2016-10-07T07:18:02Z</time></trkpt>
<trkpt lat="26.727121" lon="100.247151">
<time>2016-10-07T07:18:03Z</time></trkpt>
<trkpt lat="26.727021" lon="100.247491">
<time>2016-10-07T07:18:04Z</time></trkpt>
<trkpt lat="26.726891" lon="100.247761">
<time>2016-10-07T07:18:05Z</time></trkpt>
<trkpt lat="26.726891" lon="100.247781">
<time>2016-10-07T07:18:06Z</time></trkpt>
<trkpt lat="26.726881" lon="100.247801">
<time>2016-10-07T07:18:07Z</time></trkpt>
<trkpt lat="26.726881" lon="100.247821">
<time>2016-10-07T07:18:08Z</time></trkpt>
<trkpt lat="26.726891" lon="100.247831">
<time>2016-10-07T07:18:09Z</time></trkpt>
<trkpt lat="26.726901" lon="100.247841">
<time>2016-10-07T07:18:10Z</time></trkpt>
<trkpt lat="26.726901" lon="100.247851">
<time>2016-10-07T07:18:11Z</time></trkpt>
<trkpt lat="26.726911" lon="100.247851">
<time>2016-10-07T07:18:12Z</time></trkpt>
<trkpt lat="26.726921" lon="100.247861">
<time>2016-10-07T07:18:13Z</time></trkpt>
<trkpt lat="26.727631" lon="100.248121">
<time>2016-10-07T07:18:14Z</time></trkpt>
<trkpt lat="26.727931" lon="100.248141">
<time>2016-10-07T07:18:15Z</time></trkpt>
<trkpt lat="26.727941" lon="100.248141">
<time>2016-10-07T07:18:16Z</time></trkpt>
<trkpt lat="26.727961" lon="100.248151">
<time>2016-10-07T07:18:17Z</time></trkpt>
<trkpt lat="26.727971" lon="100.248161">
<time>2016-10-07T07:18:18Z</time></trkpt>
<trkpt lat="26.727981" lon="100.248191">
<time>2016-10-07T07:18:19Z</time></trkpt>
<trkpt lat="26.727981" lon="100.248271">
<time>2016-10-07T07:18:20Z</time></trkpt>
<trkpt lat="26.728011" lon="100.248441">
<time>2016-10-07T07:18:21Z</time></trkpt>
<trkpt lat="26.728101" lon="100.248701">
<time>2016-10-07T07:18:22Z</time></trkpt>
<trkpt lat="26.728121" lon="100.248821">
<time>2016-10-07T07:18:23Z</time></trkpt>
<trkpt lat="26.728101" lon="100.249001">
<time>2016-10-07T07:18:24Z</time></trkpt>
<trkpt lat="26.728101" lon="100.249011">
<time>2016-10-07T07:18:25Z</time></trkpt>
<trkpt lat="26.728131" lon="100.249121">
<time>2016-10-07T07:18:26Z</time></trkpt>
<trkpt lat="26.728231" lon="100.249231">
<time>2016-10-07T07:18:27Z</time></trkpt>
<trkpt lat="26.728651" lon="100.249451">
<time>2016-10-07T07:18:28Z</time></trkpt>
<trkpt lat="26.728921" lon="100.249691">
<time>2016-10-07T07:18:29Z</time></trkpt>
<trkpt lat="26.729081" lon="100.249901">
<time>2016-10-07T07:18:30Z</time></trkpt>
<trkpt lat="26.729071" lon="100.250021">
<time>2016-10-07T07:18:31Z</time></trkpt>
<trkpt lat="26.729071" lon="100.250071">
<time>2016-10-07T07:18:32Z</time></trkpt>
<trkpt lat="26.728941" lon="100.250221">
<time>2016-10-07T07:18:33Z</time></trkpt>
<trkpt lat="26.728811" lon="100.250381">
<time>2016-10-07T07:18:34Z</time></trkpt>
<trkpt lat="26.728841" lon="100.250471">
<time>2016-10-07T07:18:35Z</time></trkpt>
<trkpt lat="26.728891" lon="100.250721">
<time>2016-10-07T07:18:36Z</time></trkpt>
<trkpt lat="26.728881" lon="100.250951">
<time>2016-10-07T07:18:37Z</time></trkpt>
<trkpt lat="26.728841" lon="100.251101">
<time>2016-10-07T07:18:38Z</time></trkpt>
<trkpt lat="26.728871" lon="100.251311">
<time>2016-10-07T07:18:39Z</time></trkpt>
<trkpt lat="26.728931" lon="100.251651">
<time>2016-10-07T07:18:40Z</time></trkpt>
<trkpt lat="26.72914" lon="100.252121">
<time>2016-10-07T07:18:41Z</time></trkpt>
<trkpt lat="26.72922" lon="100.252301">
<time>2016-10-07T07:18:42Z</time></trkpt>
<trkpt lat="26.72922" lon="100.252381">
<time>2016-10-07T07:18:43Z</time></trkpt>
<trkpt lat="26.72918" lon="100.252511">
<time>2016-10-07T07:18:44Z</time></trkpt>
<trkpt lat="26.72912" lon="100.252651">
<time>2016-10-07T07:18:45Z</time></trkpt>
<trkpt lat="26.72907" lon="100.252741">
<time>2016-10-07T07:18:46Z</time></trkpt>
<trkpt lat="26.72902" lon="100.252981">
<time>2016-10-07T07:18:47Z</time></trkpt>
<trkpt lat="26.72902" lon="100.253511">
<time>2016-10-07T07:18:48Z</time></trkpt>
<trkpt lat="26.72903" lon="100.253741">
<time>2016-10-07T07:18:49Z</time></trkpt>
<trkpt lat="26.72903" lon="100.253941">
<time>2016-10-07T07:18:50Z</time></trkpt>
<trkpt lat="26.72901" lon="100.2541">
<time>2016-10-07T07:18:51Z</time></trkpt>
<trkpt lat="26.72887" lon="100.25431">
<time>2016-10-07T07:18:52Z</time></trkpt>
<trkpt lat="26.72886" lon="100.25434">
<time>2016-10-07T07:18:53Z</time></trkpt>
<trkpt lat="26.7288" lon="100.25448">
<time>2016-10-07T07:18:54Z</time></trkpt>
<trkpt lat="26.72876" lon="100.25556">
<time>2016-10-07T07:18:55Z</time></trkpt>
<trkpt lat="26.72872" lon="100.25634">
<time>2016-10-07T07:18:56Z</time></trkpt>
<trkpt lat="26.72876" lon="100.25653">
<time>2016-10-07T07:18:57Z</time></trkpt>
<trkpt lat="26.72876" lon="100.25653">
<time>2016-10-07T07:18:58Z</time></trkpt>
<trkpt lat="26.72874" lon="100.25662">
<time>2016-10-07T07:18:59Z</time></trkpt>
<trkpt lat="26.728719" lon="100.25698">
<time>2016-10-07T07:19:00Z</time></trkpt>
<trkpt lat="26.728739" lon="100.257369">
<time>2016-10-07T07:19:01Z</time></trkpt>
<trkpt lat="26.728729" lon="100.257449">
<time>2016-10-07T07:19:02Z</time></trkpt>
<trkpt lat="26.728689" lon="100.257479">
<time>2016-10-07T07:19:03Z</time></trkpt>
<trkpt lat="26.728669" lon="100.257489">
<time>2016-10-07T07:19:04Z</time></trkpt>
<trkpt lat="26.728669" lon="100.257489">
<time>2016-10-07T07:19:05Z</time></trkpt>
<trkpt lat="26.728779" lon="100.257619">
<time>2016-10-07T07:19:06Z</time></trkpt>
<trkpt lat="26.728829" lon="100.257659">
<time>2016-10-07T07:19:07Z</time></trkpt>
<trkpt lat="26.728839" lon="100.257739">
<time>2016-10-07T07:19:08Z</time></trkpt>
<trkpt lat="26.728819" lon="100.257809">
<time>2016-10-07T07:19:09Z</time></trkpt>
<trkpt lat="26.728749" lon="100.257899">
<time>2016-10-07T07:19:10Z</time></trkpt>
<trkpt lat="26.728679" lon="100.258009">
<time>2016-10-07T07:19:11Z</time></trkpt>
<trkpt lat="26.728659" lon="100.258099">
<time>2016-10-07T07:19:12Z</time></trkpt>
<trkpt lat="26.728659" lon="100.258239">
<time>2016-10-07T07:19:13Z</time></trkpt>
<trkpt lat="26.728579" lon="100.258519">
<time>2016-10-07T07:19:14Z</time></trkpt>
<trkpt lat="26.728579" lon="100.258669">
<time>2016-10-07T07:19:15Z</time></trkpt>
<trkpt lat="26.728549" lon="100.258869">
<time>2016-10-07T07:19:16Z</time></trkpt>
<trkpt lat="26.728489" lon="100.259009">
<time>2016-10-07T07:19:17Z</time></trkpt>
<trkpt lat="26.728239" lon="100.259299">
<time>2016-10-07T07:19:18Z</time></trkpt>
<trkpt lat="26.728189" lon="100.259429">
<time>2016-10-07T07:19:19Z</time></trkpt>
<trkpt lat="26.728208" lon="100.259498">
<time>2016-10-07T07:19:20Z</time></trkpt>
<trkpt lat="26.728278" lon="100.259548">
<time>2016-10-07T07:19:21Z</time></trkpt>
<trkpt lat="26.728448" lon="100.259668">
<time>2016-10-07T07:19:22Z</time></trkpt>
<trkpt lat="26.728448" lon="100.259668">
<time>2016-10-07T07:19:23Z</time></trkpt>
<trkpt lat="26.728448" lon="100.259658">
<time>2016-10-07T07:19:24Z</time></trkpt>
<trkpt lat="26.728598" lon="100.259548">
<time>2016-10-07T07:19:25Z</time></trkpt>
<trkpt lat="26.728698" lon="100.259518">
<time>2016-10-07T07:19:26Z</time></trkpt>
<trkpt lat="26.728818" lon="100.259508">
<time>2016-10-07T07:19:27Z</time></trkpt>
<trkpt lat="26.728988" lon="100.259558">
<time>2016-10-07T07:19:28Z</time></trkpt>
<trkpt lat="26.729678" lon="100.259888">
<time>2016-10-07T07:19:29Z</time></trkpt>
<trkpt lat="26.730378" lon="100.260168">
<time>2016-10-07T07:19:30Z</time></trkpt>
<trkpt lat="26.731268" lon="100.260458">
<time>2016-10-07T07:19:31Z</time></trkpt>
<trkpt lat="26.732278" lon="100.260768">
<time>2016-10-07T07:19:32Z</time></trkpt>
<trkpt lat="26.732808" lon="100.260928">
<time>2016-10-07T07:19:33Z</time></trkpt>
<trkpt lat="26.733228" lon="100.261068">
<time>2016-10-07T07:19:34Z</time></trkpt>
<trkpt lat="26.734107" lon="100.261337">
<time>2016-10-07T07:19:35Z</time></trkpt>
<trkpt lat="26.735147" lon="100.261707">
<time>2016-10-07T07:19:36Z</time></trkpt>
<trkpt lat="26.736137" lon="100.262077">
<time>2016-10-07T07:19:37Z</time></trkpt>
<trkpt lat="26.737117" lon="100.262357">
<time>2016-10-07T07:19:38Z</time></trkpt>
<trkpt lat="26.737867" lon="100.262577">
<time>2016-10-07T07:19:39Z</time></trkpt>
<trkpt lat="26.738356" lon="100.262746">
<time>2016-10-07T07:19:40Z</time></trkpt>
<trkpt lat="26.738746" lon="100.262896">
<time>2016-10-07T07:19:41Z</time></trkpt>
<trkpt lat="26.739376" lon="100.263116">
<time>2016-10-07T07:19:42Z</time></trkpt>
<trkpt lat="26.739866" lon="100.263296">
<time>2016-10-07T07:19:43Z</time></trkpt>
<trkpt lat="26.740376" lon="100.263476">
<time>2016-10-07T07:19:44Z</time></trkpt>
<trkpt lat="26.741206" lon="100.263736">
<time>2016-10-07T07:19:45Z</time></trkpt>
<trkpt lat="26.741586" lon="100.263846">
<time>2016-10-07T07:19:46Z</time></trkpt>
<trkpt lat="26.741996" lon="100.263966">
<time>2016-10-07T07:19:47Z</time></trkpt>
<trkpt lat="26.742305" lon="100.264065">
<time>2016-10-07T07:19:48Z</time></trkpt>
<trkpt lat="26.742595" lon="100.264195">
<time>2016-10-07T07:19:49Z</time></trkpt>
<trkpt lat="26.742945" lon="100.264385">
<time>2016-10-07T07:19:50Z</time></trkpt>
<trkpt lat="26.743215" lon="100.264575">
<time>2016-10-07T07:19:51Z</time></trkpt>
<trkpt lat="26.743465" lon="100.264785">
<time>2016-10-07T07:19:52Z</time></trkpt>
<trkpt lat="26.743715" lon="100.265035">
<time>2016-10-07T07:19:53Z</time></trkpt>
<trkpt lat="26.743975" lon="100.265344">
<time>2016-10-07T07:19:54Z</time></trkpt>
<trkpt lat="26.744184" lon="100.265644">
<time>2016-10-07T07:19:55Z</time></trkpt>
<trkpt lat="26.744414" lon="100.266064">
<time>2016-10-07T07:19:56Z</time></trkpt>
<trkpt lat="26.744734" lon="100.266663">
<time>2016-10-07T07:19:57Z</time></trkpt>
<trkpt lat="26.745083" lon="100.267263">
<time>2016-10-07T07:19:58Z</time></trkpt>
<trkpt lat="26.745183" lon="100.267433">
<time>2016-10-07T07:19:59Z</time></trkpt>
<trkpt lat="26.745423" lon="100.267823">
<time>2016-10-07T07:20:00Z</time></trkpt>
<trkpt lat="26.745802" lon="100.268412">
<time>2016-10-07T07:20:01Z</time></trkpt>
<trkpt lat="26.746082" lon="100.268832">
<time>2016-10-07T07:20:02Z</time></trkpt>
<trkpt lat="26.746182" lon="100.268972">
<time>2016-10-07T07:20:03Z</time></trkpt>
<trkpt lat="26.746602" lon="100.269521">
<time>2016-10-07T07:20:04Z</time></trkpt>
<trkpt lat="26.747041" lon="100.27007">
<time>2016-10-07T07:20:05Z</time></trkpt>
<trkpt lat="26.747481" lon="100.27059">
<time>2016-10-07T07:20:06Z</time></trkpt>
<trkpt lat="26.74777" lon="100.27093">
<time>2016-10-07T07:20:07Z</time></trkpt>
<trkpt lat="26.74791" lon="100.27105">
<time>2016-10-07T07:20:08Z</time></trkpt>
<trkpt lat="26.74802" lon="100.271129">
<time>2016-10-07T07:20:09Z</time></trkpt>
<trkpt lat="26.74834" lon="100.271299">
<time>2016-10-07T07:20:10Z</time></trkpt>
<trkpt lat="26.74834" lon="100.271299">
<time>2016-10-07T07:20:11Z</time></trkpt>
<trkpt lat="26.74825" lon="100.271279">
<time>2016-10-07T07:20:12Z</time></trkpt>
<trkpt lat="26.74812" lon="100.271239">
<time>2016-10-07T07:20:13Z</time></trkpt>
<trkpt lat="26.74792" lon="100.271129">
<time>2016-10-07T07:20:14Z</time></trkpt>
<trkpt lat="26.74768" lon="100.27092">
<time>2016-10-07T07:20:15Z</time></trkpt>
<trkpt lat="26.747101" lon="100.27024">
<time>2016-10-07T07:20:16Z</time></trkpt>
<trkpt lat="26.746442" lon="100.269451">
<time>2016-10-07T07:20:17Z</time></trkpt>
<trkpt lat="26.746362" lon="100.269361">
<time>2016-10-07T07:20:18Z</time></trkpt>
<trkpt lat="26.746262" lon="100.269271">
<time>2016-10-07T07:20:19Z</time></trkpt>
<trkpt lat="26.746112" lon="100.269151">
<time>2016-10-07T07:20:20Z</time></trkpt>
<trkpt lat="26.745892" lon="100.268991">
<time>2016-10-07T07:20:21Z</time></trkpt>
<trkpt lat="26.745892" lon="100.268991">
<time>2016-10-07T07:20:22Z</time></trkpt>
<trkpt lat="26.746072" lon="100.269281">
<time>2016-10-07T07:20:23Z</time></trkpt>
<trkpt lat="26.746321" lon="100.269661">
<time>2016-10-07T07:20:24Z</time></trkpt>
<trkpt lat="26.74697" lon="100.27078">
<time>2016-10-07T07:20:25Z</time></trkpt>
<trkpt lat="26.74718" lon="100.271399">
<time>2016-10-07T07:20:26Z</time></trkpt>
<trkpt lat="26.74721" lon="100.271529">
<time>2016-10-07T07:20:27Z</time></trkpt>
<trkpt lat="26.747339" lon="100.272079">
<time>2016-10-07T07:20:28Z</time></trkpt>
<trkpt lat="26.747658" lon="100.273667">
<time>2016-10-07T07:20:29Z</time></trkpt>
<trkpt lat="26.747897" lon="100.274796">
<time>2016-10-07T07:20:30Z</time></trkpt>
<trkpt lat="26.748076" lon="100.275425">
<time>2016-10-07T07:20:31Z</time></trkpt>
<trkpt lat="26.748226" lon="100.275815">
<time>2016-10-07T07:20:32Z</time></trkpt>
<trkpt lat="26.748455" lon="100.276254">
<time>2016-10-07T07:20:33Z</time></trkpt>
<trkpt lat="26.748815" lon="100.276743">
<time>2016-10-07T07:20:34Z</time></trkpt>
<trkpt lat="26.749184" lon="100.277113">
<time>2016-10-07T07:20:35Z</time></trkpt>
<trkpt lat="26.749714" lon="100.277532">
<time>2016-10-07T07:20:36Z</time></trkpt>
<trkpt lat="26.750014" lon="100.277722">
<time>2016-10-07T07:20:37Z</time></trkpt>
<trkpt lat="26.750224" lon="100.277862">
<time>2016-10-07T07:20:38Z</time></trkpt>
<trkpt lat="26.750693" lon="100.278212">
<time>2016-10-07T07:20:39Z</time></trkpt>
<trkpt lat="26.750703" lon="100.278212">
<time>2016-10-07T07:20:40Z</time></trkpt>
<trkpt lat="26.750713" lon="100.278222">
<time>2016-10-07T07:20:41Z</time></trkpt>
<trkpt lat="26.750713" lon="100.278222">
<time>2016-10-07T07:20:42Z</time></trkpt>
<trkpt lat="26.751073" lon="100.278531">
<time>2016-10-07T07:20:43Z</time></trkpt>
<trkpt lat="26.751542" lon="100.279041">
<time>2016-10-07T07:20:44Z</time></trkpt>
<trkpt lat="26.752012" lon="100.27957">
<time>2016-10-07T07:20:45Z</time></trkpt>
<trkpt lat="26.752371" lon="100.279909">
<time>2016-10-07T07:20:46Z</time></trkpt>
<trkpt lat="26.752751" lon="100.280199">
<time>2016-10-07T07:20:47Z</time></trkpt>
<trkpt lat="26.753171" lon="100.280409">
<time>2016-10-07T07:20:48Z</time></trkpt>
<trkpt lat="26.75362" lon="100.280559">
<time>2016-10-07T07:20:49Z</time></trkpt>
<trkpt lat="26.75435" lon="100.280648">
<time>2016-10-07T07:20:50Z</time></trkpt>
<trkpt lat="26.75591" lon="100.280748">
<time>2016-10-07T07:20:51Z</time></trkpt>
<trkpt lat="26.75689" lon="100.280828">
<time>2016-10-07T07:20:52Z</time></trkpt>
<trkpt lat="26.75735" lon="100.280838">
<time>2016-10-07T07:20:53Z</time></trkpt>
<trkpt lat="26.75767" lon="100.280808">
<time>2016-10-07T07:20:54Z</time></trkpt>
<trkpt lat="26.75801" lon="100.280728">
<time>2016-10-07T07:20:55Z</time></trkpt>
<trkpt lat="26.75839" lon="100.280538">
<time>2016-10-07T07:20:56Z</time></trkpt>
<trkpt lat="26.7588" lon="100.280229">
<time>2016-10-07T07:20:57Z</time></trkpt>
<trkpt lat="26.759381" lon="100.27954">
<time>2016-10-07T07:20:58Z</time></trkpt>
<trkpt lat="26.760052" lon="100.278791">
<time>2016-10-07T07:20:59Z</time></trkpt>
<trkpt lat="26.760692" lon="100.278281">
<time>2016-10-07T07:21:00Z</time></trkpt>
<trkpt lat="26.761873" lon="100.277592">
<time>2016-10-07T07:21:01Z</time></trkpt>
<trkpt lat="26.763254" lon="100.276793">
<time>2016-10-07T07:21:02Z</time></trkpt>
<trkpt lat="26.763814" lon="100.276433">
<time>2016-10-07T07:21:03Z</time></trkpt>
<trkpt lat="26.764214" lon="100.276074">
<time>2016-10-07T07:21:04Z</time></trkpt>
<trkpt lat="26.764785" lon="100.275295">
<time>2016-10-07T07:21:05Z</time></trkpt>
<trkpt lat="26.765406" lon="100.274396">
<time>2016-10-07T07:21:06Z</time></trkpt>
<trkpt lat="26.765826" lon="100.274006">
<time>2016-10-07T07:21:07Z</time></trkpt>
<trkpt lat="26.766156" lon="100.273826">
<time>2016-10-07T07:21:08Z</time></trkpt>
<trkpt lat="26.766446" lon="100.273766">
<time>2016-10-07T07:21:09Z</time></trkpt>
<trkpt lat="26.766786" lon="100.273756">
<time>2016-10-07T07:21:10Z</time></trkpt>
<trkpt lat="26.767066" lon="100.273806">
<time>2016-10-07T07:21:11Z</time></trkpt>
<trkpt lat="26.767336" lon="100.273916">
<time>2016-10-07T07:21:12Z</time></trkpt>
<trkpt lat="26.767626" lon="100.274116">
<time>2016-10-07T07:21:13Z</time></trkpt>
<trkpt lat="26.768046" lon="100.274505">
<time>2016-10-07T07:21:14Z</time></trkpt>
<trkpt lat="26.768745" lon="100.275335">
<time>2016-10-07T07:21:15Z</time></trkpt>
<trkpt lat="26.769584" lon="100.276303">
<time>2016-10-07T07:21:16Z</time></trkpt>
<trkpt lat="26.770542" lon="100.277472">
<time>2016-10-07T07:21:17Z</time></trkpt>
<trkpt lat="26.770712" lon="100.277672">
<time>2016-10-07T07:21:18Z</time></trkpt>
<trkpt lat="26.771531" lon="100.278631">
<time>2016-10-07T07:21:19Z</time></trkpt>
<trkpt lat="26.771601" lon="100.2787">
<time>2016-10-07T07:21:20Z</time></trkpt>
<trkpt lat="26.77231" lon="100.27934">
<time>2016-10-07T07:21:21Z</time></trkpt>
<trkpt lat="26.77285" lon="100.279689">
<time>2016-10-07T07:21:22Z</time></trkpt>
<trkpt lat="26.77319" lon="100.279909">
<time>2016-10-07T07:21:23Z</time></trkpt>
<trkpt lat="26.773339" lon="100.279989">
<time>2016-10-07T07:21:24Z</time></trkpt>
<trkpt lat="26.773559" lon="100.280099">
<time>2016-10-07T07:21:25Z</time></trkpt>
<trkpt lat="26.773729" lon="100.280208">
<time>2016-10-07T07:21:26Z</time></trkpt>
<trkpt lat="26.773959" lon="100.280338">
<time>2016-10-07T07:21:27Z</time></trkpt>
<trkpt lat="26.773959" lon="100.280338">
<time>2016-10-07T07:21:28Z</time></trkpt>
<trkpt lat="26.773999" lon="100.280288">
<time>2016-10-07T07:21:29Z</time></trkpt>
<trkpt lat="26.774029" lon="100.280248">
<time>2016-10-07T07:21:30Z</time></trkpt>
<trkpt lat="26.774079" lon="100.280179">
<time>2016-10-07T07:21:31Z</time></trkpt>
<trkpt lat="26.774129" lon="100.280109">
<time>2016-10-07T07:21:32Z</time></trkpt>
<trkpt lat="26.77448" lon="100.279769">
<time>2016-10-07T07:21:33Z</time></trkpt>
<trkpt lat="26.7748" lon="100.279449">
<time>2016-10-07T07:21:34Z</time></trkpt>
<trkpt lat="26.77503" lon="100.27921">
<time>2016-10-07T07:21:35Z</time></trkpt>
<trkpt lat="26.77514" lon="100.27911">
<time>2016-10-07T07:21:36Z</time></trkpt>
<trkpt lat="26.77527" lon="100.27905">
<time>2016-10-07T07:21:37Z</time></trkpt>
<trkpt lat="26.77541" lon="100.27901">
<time>2016-10-07T07:21:38Z</time></trkpt>
<trkpt lat="26.77574" lon="100.27894">
<time>2016-10-07T07:21:39Z</time></trkpt>
<trkpt lat="26.77628" lon="100.27886">
<time>2016-10-07T07:21:40Z</time></trkpt>
<trkpt lat="26.77664" lon="100.2788">
<time>2016-10-07T07:21:41Z</time></trkpt>
<trkpt lat="26.7772" lon="100.27869">
<time>2016-10-07T07:21:42Z</time></trkpt>
<trkpt lat="26.777761" lon="100.27859">
<time>2016-10-07T07:21:43Z</time></trkpt>
<trkpt lat="26.777951" lon="100.27856">
<time>2016-10-07T07:21:44Z</time></trkpt>
<trkpt lat="26.778331" lon="100.278501">
<time>2016-10-07T07:21:45Z</time></trkpt>
<trkpt lat="26.778721" lon="100.278471">
<time>2016-10-07T07:21:46Z</time></trkpt>
<trkpt lat="26.779121" lon="100.278471">
<time>2016-10-07T07:21:47Z</time></trkpt>
<trkpt lat="26.7797" lon="100.27853">
<time>2016-10-07T07:21:48Z</time></trkpt>
<trkpt lat="26.78027" lon="100.27867">
<time>2016-10-07T07:21:49Z</time></trkpt>
<trkpt lat="26.7806" lon="100.27875">
<time>2016-10-07T07:21:50Z</time></trkpt>
<trkpt lat="26.78079" lon="100.27876">
<time>2016-10-07T07:21:51Z</time></trkpt>
<trkpt lat="26.78122" lon="100.2787">
<time>2016-10-07T07:21:52Z</time></trkpt>
<trkpt lat="26.78139" lon="100.27859">
<time>2016-10-07T07:21:53Z</time></trkpt>
<trkpt lat="26.78157" lon="100.278401">
<time>2016-10-07T07:21:54Z</time></trkpt>
<trkpt lat="26.78166" lon="100.278311">
<time>2016-10-07T07:21:55Z</time></trkpt>
<trkpt lat="26.781901" lon="100.278021">
<time>2016-10-07T07:21:56Z</time></trkpt>
<trkpt lat="26.781991" lon="100.277841">
<time>2016-10-07T07:21:57Z</time></trkpt>
<trkpt lat="26.782381" lon="100.277352">
<time>2016-10-07T07:21:58Z</time></trkpt>
<trkpt lat="26.782772" lon="100.276862">
<time>2016-10-07T07:21:59Z</time></trkpt>
<trkpt lat="26.783052" lon="100.276503">
<time>2016-10-07T07:22:00Z</time></trkpt>
<trkpt lat="26.783092" lon="100.276453">
<time>2016-10-07T07:22:01Z</time></trkpt>
<trkpt lat="26.783373" lon="100.276083">
<time>2016-10-07T07:22:02Z</time></trkpt>
<trkpt lat="26.783643" lon="100.275754">
<time>2016-10-07T07:22:03Z</time></trkpt>
<trkpt lat="26.783813" lon="100.275544">
<time>2016-10-07T07:22:04Z</time></trkpt>
<trkpt lat="26.784093" lon="100.275214">
<time>2016-10-07T07:22:05Z</time></trkpt>
<trkpt lat="26.784303" lon="100.275015">
<time>2016-10-07T07:22:06Z</time></trkpt>
<trkpt lat="26.784664" lon="100.274755">
<time>2016-10-07T07:22:07Z</time></trkpt>
<trkpt lat="26.784934" lon="100.274595">
<time>2016-10-07T07:22:08Z</time></trkpt>
<trkpt lat="26.785384" lon="100.274365">
<time>2016-10-07T07:22:09Z</time></trkpt>
<trkpt lat="26.785504" lon="100.274295">
<time>2016-10-07T07:22:10Z</time></trkpt>
<trkpt lat="26.785814" lon="100.274125">
<time>2016-10-07T07:22:11Z</time></trkpt>
<trkpt lat="26.786264" lon="100.273896">
<time>2016-10-07T07:22:12Z</time></trkpt>
<trkpt lat="26.786705" lon="100.273646">
<time>2016-10-07T07:22:13Z</time></trkpt>
<trkpt lat="26.786855" lon="100.273556">
<time>2016-10-07T07:22:14Z</time></trkpt>
<trkpt lat="26.787195" lon="100.273386">
<time>2016-10-07T07:22:15Z</time></trkpt>
<trkpt lat="26.787825" lon="100.273047">
<time>2016-10-07T07:22:16Z</time></trkpt>
<trkpt lat="26.787985" lon="100.272957">
<time>2016-10-07T07:22:17Z</time></trkpt>
<trkpt lat="26.788315" lon="100.272767">
<time>2016-10-07T07:22:18Z</time></trkpt>
<trkpt lat="26.788625" lon="100.272617">
<time>2016-10-07T07:22:19Z</time></trkpt>
<trkpt lat="26.788925" lon="100.272497">
<time>2016-10-07T07:22:20Z</time></trkpt>
<trkpt lat="26.789365" lon="100.272397">
<time>2016-10-07T07:22:21Z</time></trkpt>
<trkpt lat="26.789865" lon="100.272367">
<time>2016-10-07T07:22:22Z</time></trkpt>
<trkpt lat="26.790035" lon="100.272347">
<time>2016-10-07T07:22:23Z</time></trkpt>
<trkpt lat="26.790585" lon="100.272317">
<time>2016-10-07T07:22:24Z</time></trkpt>
<trkpt lat="26.791145" lon="100.272317">
<time>2016-10-07T07:22:25Z</time></trkpt>
<trkpt lat="26.791515" lon="100.272307">
<time>2016-10-07T07:22:26Z</time></trkpt>
<trkpt lat="26.792055" lon="100.272277">
<time>2016-10-07T07:22:27Z</time></trkpt>
<trkpt lat="26.792545" lon="100.272247">
<time>2016-10-07T07:22:28Z</time></trkpt>
<trkpt lat="26.792895" lon="100.272237">
<time>2016-10-07T07:22:29Z</time></trkpt>
<trkpt lat="26.793235" lon="100.272207">
<time>2016-10-07T07:22:30Z</time></trkpt>
<trkpt lat="26.794105" lon="100.272057">
<time>2016-10-07T07:22:31Z</time></trkpt>
<trkpt lat="26.794425" lon="100.271967">
<time>2016-10-07T07:22:32Z</time></trkpt>
<trkpt lat="26.794575" lon="100.271908">
<time>2016-10-07T07:22:33Z</time></trkpt>
<trkpt lat="26.795055" lon="100.271768">
<time>2016-10-07T07:22:34Z</time></trkpt>
<trkpt lat="26.795535" lon="100.271608">
<time>2016-10-07T07:22:35Z</time></trkpt>
<trkpt lat="26.795865" lon="100.271508">
<time>2016-10-07T07:22:36Z</time></trkpt>
<trkpt lat="26.796405" lon="100.271338">
<time>2016-10-07T07:22:37Z</time></trkpt>
<trkpt lat="26.796956" lon="100.271158">
<time>2016-10-07T07:22:38Z</time></trkpt>
<trkpt lat="26.797436" lon="100.271008">
<time>2016-10-07T07:22:39Z</time></trkpt>
<trkpt lat="26.797906" lon="100.270858">
<time>2016-10-07T07:22:40Z</time></trkpt>
<trkpt lat="26.798426" lon="100.270689">
<time>2016-10-07T07:22:41Z</time></trkpt>
<trkpt lat="26.799006" lon="100.270499">
<time>2016-10-07T07:22:42Z</time></trkpt>
<trkpt lat="26.799386" lon="100.270369">
<time>2016-10-07T07:22:43Z</time></trkpt>
<trkpt lat="26.799946" lon="100.270209">
<time>2016-10-07T07:22:44Z</time></trkpt>
<trkpt lat="26.800286" lon="100.270109">
<time>2016-10-07T07:22:45Z</time></trkpt>
<trkpt lat="26.800616" lon="100.269989">
<time>2016-10-07T07:22:46Z</time></trkpt>
<trkpt lat="26.800896" lon="100.269919">
<time>2016-10-07T07:22:47Z</time></trkpt>
<trkpt lat="26.800936" lon="100.269909">
<time>2016-10-07T07:22:48Z</time></trkpt>
<trkpt lat="26.801396" lon="100.269749">
<time>2016-10-07T07:22:49Z</time></trkpt>
<trkpt lat="26.801836" lon="100.26962">
<time>2016-10-07T07:22:50Z</time></trkpt>
<trkpt lat="26.801996" lon="100.26957">
<time>2016-10-07T07:22:51Z</time></trkpt>
<trkpt lat="26.802526" lon="100.26938">
<time>2016-10-07T07:22:52Z</time></trkpt>
<trkpt lat="26.802706" lon="100.26932">
<time>2016-10-07T07:22:53Z</time></trkpt>
<trkpt lat="26.803236" lon="100.26915">
<time>2016-10-07T07:22:54Z</time></trkpt>
<trkpt lat="26.803746" lon="100.26898">
<time>2016-10-07T07:22:55Z</time></trkpt>
<trkpt lat="26.804116" lon="100.26886">
<time>2016-10-07T07:22:56Z</time></trkpt>
<trkpt lat="26.804506" lon="100.26876">
<time>2016-10-07T07:22:57Z</time></trkpt>
<trkpt lat="26.804697" lon="100.2687">
<time>2016-10-07T07:22:58Z</time></trkpt>
<trkpt lat="26.805237" lon="100.2685">
<time>2016-10-07T07:22:59Z</time></trkpt>
<trkpt lat="26.805587" lon="100.26842">
<time>2016-10-07T07:23:00Z</time></trkpt>
<trkpt lat="26.805887" lon="100.268321">
<time>2016-10-07T07:23:01Z</time></trkpt>
<trkpt lat="26.806187" lon="100.268211">
<time>2016-10-07T07:23:02Z</time></trkpt>
<trkpt lat="26.806497" lon="100.268111">
<time>2016-10-07T07:23:03Z</time></trkpt>
<trkpt lat="26.806797" lon="100.268001">
<time>2016-10-07T07:23:04Z</time></trkpt>
<trkpt lat="26.807247" lon="100.267871">
<time>2016-10-07T07:23:05Z</time></trkpt>
<trkpt lat="26.807687" lon="100.267701">
<time>2016-10-07T07:23:06Z</time></trkpt>
<trkpt lat="26.807997" lon="100.267591">
<time>2016-10-07T07:23:07Z</time></trkpt>
<trkpt lat="26.808337" lon="100.267511">
<time>2016-10-07T07:23:08Z</time></trkpt>
<trkpt lat="26.808667" lon="100.267391">
<time>2016-10-07T07:23:09Z</time></trkpt>
<trkpt lat="26.808947" lon="100.267311">
<time>2016-10-07T07:23:10Z</time></trkpt>
<trkpt lat="26.809337" lon="100.267191">
<time>2016-10-07T07:23:11Z</time></trkpt>
<trkpt lat="26.809597" lon="100.267131">
<time>2016-10-07T07:23:12Z</time></trkpt>
<trkpt lat="26.810087" lon="100.266982">
<time>2016-10-07T07:23:13Z</time></trkpt>
<trkpt lat="26.810207" lon="100.266902">
<time>2016-10-07T07:23:14Z</time></trkpt>
<trkpt lat="26.810427" lon="100.266792">
<time>2016-10-07T07:23:15Z</time></trkpt>
<trkpt lat="26.810547" lon="100.266692">
<time>2016-10-07T07:23:16Z</time></trkpt>
<trkpt lat="26.810637" lon="100.266582">
<time>2016-10-07T07:23:17Z</time></trkpt>
<trkpt lat="26.810717" lon="100.266442">
<time>2016-10-07T07:23:18Z</time></trkpt>
<trkpt lat="26.810787" lon="100.266292">
<time>2016-10-07T07:23:19Z</time></trkpt>
<trkpt lat="26.810928" lon="100.265822">
<time>2016-10-07T07:23:20Z</time></trkpt>
<trkpt lat="26.810998" lon="100.265523">
<time>2016-10-07T07:23:21Z</time></trkpt>
<trkpt lat="26.811128" lon="100.265033">
<time>2016-10-07T07:23:22Z</time></trkpt>
<trkpt lat="26.811228" lon="100.264663">
<time>2016-10-07T07:23:23Z</time></trkpt>
<trkpt lat="26.811339" lon="100.264144">
<time>2016-10-07T07:23:24Z</time></trkpt>
<trkpt lat="26.811349" lon="100.263764">
<time>2016-10-07T07:23:25Z</time></trkpt>
<trkpt lat="26.811329" lon="100.263354">
<time>2016-10-07T07:23:26Z</time></trkpt>
<trkpt lat="26.811299" lon="100.262954">
<time>2016-10-07T07:23:27Z</time></trkpt>
<trkpt lat="26.811289" lon="100.262775">
<time>2016-10-07T07:23:28Z</time></trkpt>
<trkpt lat="26.81128" lon="100.262555">
<time>2016-10-07T07:23:29Z</time></trkpt>
<trkpt lat="26.81125" lon="100.262145">
<time>2016-10-07T07:23:30Z</time></trkpt>
<trkpt lat="26.81122" lon="100.261545">
<time>2016-10-07T07:23:31Z</time></trkpt>
<trkpt lat="26.81119" lon="100.260956">
<time>2016-10-07T07:23:32Z</time></trkpt>
<trkpt lat="26.81119" lon="100.260746">
<time>2016-10-07T07:23:33Z</time></trkpt>
<trkpt lat="26.811221" lon="100.260546">
<time>2016-10-07T07:23:34Z</time></trkpt>
<trkpt lat="26.811281" lon="100.260356">
<time>2016-10-07T07:23:35Z</time></trkpt>
<trkpt lat="26.811371" lon="100.260186">
<time>2016-10-07T07:23:36Z</time></trkpt>
<trkpt lat="26.811511" lon="100.260046">
<time>2016-10-07T07:23:37Z</time></trkpt>
<trkpt lat="26.811661" lon="100.259926">
<time>2016-10-07T07:23:38Z</time></trkpt>
<trkpt lat="26.811851" lon="100.259836">
<time>2016-10-07T07:23:39Z</time></trkpt>
<trkpt lat="26.812011" lon="100.259696">
<time>2016-10-07T07:23:40Z</time></trkpt>
<trkpt lat="26.812551" lon="100.259416">
<time>2016-10-07T07:23:41Z</time></trkpt>
<trkpt lat="26.813091" lon="100.259147">
<time>2016-10-07T07:23:42Z</time></trkpt>
<trkpt lat="26.813581" lon="100.258887">
<time>2016-10-07T07:23:43Z</time></trkpt>
<trkpt lat="26.813911" lon="100.258747">
<time>2016-10-07T07:23:44Z</time></trkpt>
<trkpt lat="26.814361" lon="100.258517">
<time>2016-10-07T07:23:45Z</time></trkpt>
<trkpt lat="26.814771" lon="100.258337">
<time>2016-10-07T07:23:46Z</time></trkpt>
<trkpt lat="26.815301" lon="100.258167">
<time>2016-10-07T07:23:47Z</time></trkpt>
<trkpt lat="26.815951" lon="100.258037">
<time>2016-10-07T07:23:48Z</time></trkpt>
<trkpt lat="26.816481" lon="100.257977">
<time>2016-10-07T07:23:49Z</time></trkpt>
<trkpt lat="26.817731" lon="100.257927">
<time>2016-10-07T07:23:50Z</time></trkpt>
<trkpt lat="26.817971" lon="100.257897">
<time>2016-10-07T07:23:51Z</time></trkpt>
<trkpt lat="26.818101" lon="100.257857">
<time>2016-10-07T07:23:52Z</time></trkpt>
<trkpt lat="26.818161" lon="100.257837">
<time>2016-10-07T07:23:53Z</time></trkpt>
<trkpt lat="26.818351" lon="100.257757">
<time>2016-10-07T07:23:54Z</time></trkpt>
<trkpt lat="26.818531" lon="100.257617">
<time>2016-10-07T07:23:55Z</time></trkpt>
<trkpt lat="26.818681" lon="100.257407">
<time>2016-10-07T07:23:56Z</time></trkpt>
<trkpt lat="26.818811" lon="100.257167">
<time>2016-10-07T07:23:57Z</time></trkpt>
<trkpt lat="26.818811" lon="100.257167">
<time>2016-10-07T07:23:58Z</time></trkpt>
<trkpt lat="26.818791" lon="100.256997">
<time>2016-10-07T07:23:59Z</time></trkpt>
<trkpt lat="26.818801" lon="100.255488">
<time>2016-10-07T07:24:00Z</time></trkpt>
<trkpt lat="26.818801" lon="100.255388">
<time>2016-10-07T07:24:01Z</time></trkpt>
<trkpt lat="26.818831" lon="100.254968">
<time>2016-10-07T07:24:02Z</time></trkpt>
<trkpt lat="26.818872" lon="100.254638">
<time>2016-10-07T07:24:03Z</time></trkpt>
<trkpt lat="26.818912" lon="100.254448">
<time>2016-10-07T07:24:04Z</time></trkpt>
<trkpt lat="26.818922" lon="100.254428">
<time>2016-10-07T07:24:05Z</time></trkpt>
<trkpt lat="26.819042" lon="100.254028">
<time>2016-10-07T07:24:06Z</time></trkpt>
<trkpt lat="26.819212" lon="100.253698">
<time>2016-10-07T07:24:07Z</time></trkpt>
<trkpt lat="26.819302" lon="100.253558">
<time>2016-10-07T07:24:08Z</time></trkpt>
<trkpt lat="26.819322" lon="100.253538">
<time>2016-10-07T07:24:09Z</time></trkpt>
<trkpt lat="26.819422" lon="100.253408">
<time>2016-10-07T07:24:10Z</time></trkpt>
<trkpt lat="26.819492" lon="100.253318">
<time>2016-10-07T07:24:11Z</time></trkpt>
<trkpt lat="26.819622" lon="100.253158">
<time>2016-10-07T07:24:12Z</time></trkpt>
<trkpt lat="26.819852" lon="100.252948">
<time>2016-10-07T07:24:13Z</time></trkpt>
<trkpt lat="26.820032" lon="100.252798">
<time>2016-10-07T07:24:14Z</time></trkpt>
<trkpt lat="26.820222" lon="100.252659">
<time>2016-10-07T07:24:15Z</time></trkpt>
<trkpt lat="26.820362" lon="100.252559">
<time>2016-10-07T07:24:16Z</time></trkpt>
<trkpt lat="26.820482" lon="100.252489">
<time>2016-10-07T07:24:17Z</time></trkpt>
<trkpt lat="26.820512" lon="100.252479">
<time>2016-10-07T07:24:18Z</time></trkpt>
<trkpt lat="26.821022" lon="100.252269">
<time>2016-10-07T07:24:19Z</time></trkpt>
<trkpt lat="26.821232" lon="100.252209">
<time>2016-10-07T07:24:20Z</time></trkpt>
<trkpt lat="26.821532" lon="100.252149">
<time>2016-10-07T07:24:21Z</time></trkpt>
<trkpt lat="26.824361" lon="100.251539">
<time>2016-10-07T07:24:22Z</time></trkpt>
<trkpt lat="26.826701" lon="100.251029">
<time>2016-10-07T07:24:23Z</time></trkpt>
<trkpt lat="26.826701" lon="100.251029">
<time>2016-10-07T07:24:24Z</time></trkpt>
<trkpt lat="26.826611" lon="100.250669">
<time>2016-10-07T07:24:25Z</time></trkpt>
<trkpt lat="26.826531" lon="100.250359">
<time>2016-10-07T07:24:26Z</time></trkpt>
<trkpt lat="26.826451" lon="100.250019">
<time>2016-10-07T07:24:27Z</time></trkpt>
<trkpt lat="26.826331" lon="100.249529">
<time>2016-10-07T07:24:28Z</time></trkpt>
<trkpt lat="26.826221" lon="100.248939">
<time>2016-10-07T07:24:29Z</time></trkpt>
<trkpt lat="26.826141" lon="100.248509">
<time>2016-10-07T07:24:30Z</time></trkpt>
<trkpt lat="26.826081" lon="100.248109">
<time>2016-10-07T07:24:31Z</time></trkpt>
<trkpt lat="26.825951" lon="100.247519">
<time>2016-10-07T07:24:32Z</time></trkpt>
<trkpt lat="26.825951" lon="100.247489">
<time>2016-10-07T07:24:33Z</time></trkpt>
<trkpt lat="26.825941" lon="100.247459">
<time>2016-10-07T07:24:34Z</time></trkpt>
<trkpt lat="26.825821" lon="100.246879">
<time>2016-10-07T07:24:35Z</time></trkpt>
<trkpt lat="26.825731" lon="100.246479">
<time>2016-10-07T07:24:36Z</time></trkpt>
<trkpt lat="26.825561" lon="100.245809">
<time>2016-10-07T07:24:37Z</time></trkpt>
<trkpt lat="26.825321" lon="100.244999">
<time>2016-10-07T07:24:38Z</time></trkpt>
<trkpt lat="26.825321" lon="100.244999">
<time>2016-10-07T07:24:39Z</time></trkpt>
<trkpt lat="26.825331" lon="100.244949">
<time>2016-10-07T07:24:40Z</time></trkpt>
<trkpt lat="26.825401" lon="100.244659">
<time>2016-10-07T07:24:41Z</time></trkpt>
<trkpt lat="26.825431" lon="100.244549">
<time>2016-10-07T07:24:42Z</time></trkpt>
<trkpt lat="26.825451" lon="100.244459">
<time>2016-10-07T07:24:43Z</time></trkpt>
<trkpt lat="26.825481" lon="100.244379">
<time>2016-10-07T07:24:44Z</time></trkpt>
<trkpt lat="26.825501" lon="100.244339">
<time>2016-10-07T07:24:45Z</time></trkpt>
<trkpt lat="26.825521" lon="100.244329">
<time>2016-10-07T07:24:46Z</time></trkpt>
<trkpt lat="26.825521" lon="100.244329">
<time>2016-10-07T07:24:47Z</time></trkpt>
<trkpt lat="26.825511" lon="100.244219">
<time>2016-10-07T07:24:48Z</time></trkpt>
<trkpt lat="26.825521" lon="100.243968">
<time>2016-10-07T07:24:49Z</time></trkpt>
<trkpt lat="26.825501" lon="100.243758">
<time>2016-10-07T07:24:50Z</time></trkpt>
<trkpt lat="26.825491" lon="100.243488">
<time>2016-10-07T07:24:51Z</time></trkpt>
<trkpt lat="26.825371" lon="100.243108">
<time>2016-10-07T07:24:52Z</time></trkpt>
<trkpt lat="26.825051" lon="100.242558">
<time>2016-10-07T07:24:53Z</time></trkpt>
<trkpt lat="26.825051" lon="100.242558">
<time>2016-10-07T07:24:54Z</time></trkpt>
<trkpt lat="26.825061" lon="100.242428">
<time>2016-10-07T07:24:55Z</time></trkpt>
<trkpt lat="26.825061" lon="100.242318">
<time>2016-10-07T07:24:56Z</time></trkpt>
<trkpt lat="26.825071" lon="100.242198">
<time>2016-10-07T07:24:57Z</time></trkpt>
<trkpt lat="26.825081" lon="100.242168">
<time>2016-10-07T07:24:58Z</time></trkpt>
<trkpt lat="26.825101" lon="100.242138">
<time>2016-10-07T07:24:59Z</time></trkpt>
<trkpt lat="26.82527" lon="100.241938">
<time>2016-10-07T07:25:00Z</time></trkpt>
<trkpt lat="26.82527" lon="100.241928">
<time>2016-10-07T07:25:01Z</time></trkpt>
<trkpt lat="26.82529" lon="100.241868">
<time>2016-10-07T07:25:02Z</time></trkpt>
<trkpt lat="26.82534" lon="100.241668">
<time>2016-10-07T07:25:03Z</time></trkpt>
<trkpt lat="26.82535" lon="100.241518">
<time>2016-10-07T07:25:04Z</time></trkpt>
<trkpt lat="26.82543" lon="100.241258">
<time>2016-10-07T07:25:05Z</time></trkpt>
<trkpt lat="26.82537" lon="100.241078">
<time>2016-10-07T07:25:06Z</time></trkpt>
<trkpt lat="26.82525" lon="100.240628">
<time>2016-10-07T07:25:07Z</time></trkpt>
<trkpt lat="26.82518" lon="100.240178">
<time>2016-10-07T07:25:08Z</time></trkpt>
<trkpt lat="26.82514" lon="100.239777">
<time>2016-10-07T07:25:09Z</time></trkpt>
<trkpt lat="26.82513" lon="100.239277">
<time>2016-10-07T07:25:10Z</time></trkpt>
<trkpt lat="26.82513" lon="100.239277">
<time>2016-10-07T07:25:11Z</time></trkpt>
<trkpt lat="26.82517" lon="100.238957">
<time>2016-10-07T07:25:12Z</time></trkpt>
<trkpt lat="26.825229" lon="100.238627">
<time>2016-10-07T07:25:13Z</time></trkpt>
<trkpt lat="26.825309" lon="100.238297">
<time>2016-10-07T07:25:14Z</time></trkpt>
<trkpt lat="26.825399" lon="100.237957">
<time>2016-10-07T07:25:15Z</time></trkpt>
<trkpt lat="26.825459" lon="100.237807">
<time>2016-10-07T07:25:16Z</time></trkpt>
<trkpt lat="26.825469" lon="100.237777">
<time>2016-10-07T07:25:17Z</time></trkpt>
<trkpt lat="26.825529" lon="100.237617">
<time>2016-10-07T07:25:18Z</time></trkpt>
<trkpt lat="26.825669" lon="100.237306">
<time>2016-10-07T07:25:19Z</time></trkpt>
<trkpt lat="26.825819" lon="100.237016">
<time>2016-10-07T07:25:20Z</time></trkpt>
<trkpt lat="26.826028" lon="100.236656">
<time>2016-10-07T07:25:21Z</time></trkpt>
<trkpt lat="26.826088" lon="100.236556">
<time>2016-10-07T07:25:22Z</time></trkpt>
<trkpt lat="26.826118" lon="100.236526">
<time>2016-10-07T07:25:23Z</time></trkpt>
<trkpt lat="26.826138" lon="100.236506">
<time>2016-10-07T07:25:24Z</time></trkpt>
<trkpt lat="26.826138" lon="100.236506">
<time>2016-10-07T07:25:25Z</time></trkpt>
<trkpt lat="26.826158" lon="100.236486">
<time>2016-10-07T07:25:26Z</time></trkpt>
<trkpt lat="26.826888" lon="100.235846">
<time>2016-10-07T07:25:27Z</time></trkpt>
<trkpt lat="26.827448" lon="100.235435">
<time>2016-10-07T07:25:28Z</time></trkpt>
<trkpt lat="26.827897" lon="100.235145">
<time>2016-10-07T07:25:29Z</time></trkpt>
<trkpt lat="26.828327" lon="100.234915">
<time>2016-10-07T07:25:30Z</time></trkpt>
<trkpt lat="26.828547" lon="100.234815">
<time>2016-10-07T07:25:31Z</time></trkpt>
<trkpt lat="26.828597" lon="100.234785">
<time>2016-10-07T07:25:32Z</time></trkpt>
<trkpt lat="26.830197" lon="100.234035">
<time>2016-10-07T07:25:33Z</time></trkpt>
<trkpt lat="26.830926" lon="100.233684">
<time>2016-10-07T07:25:34Z</time></trkpt>
<trkpt lat="26.831186" lon="100.233554">
<time>2016-10-07T07:25:35Z</time></trkpt>
<trkpt lat="26.831186" lon="100.233554">
<time>2016-10-07T07:25:36Z</time></trkpt>
<trkpt lat="26.830846" lon="100.232394">
<time>2016-10-07T07:25:37Z</time></trkpt>
<trkpt lat="26.830224" lon="100.230282">
<time>2016-10-07T07:25:38Z</time></trkpt>
<trkpt lat="26.830224" lon="100.230192">
<time>2016-10-07T07:25:39Z</time></trkpt>
<trkpt lat="26.830214" lon="100.230132">
<time>2016-10-07T07:25:40Z</time></trkpt>
<trkpt lat="26.830214" lon="100.230132">
<time>2016-10-07T07:25:41Z</time></trkpt>
<trkpt lat="26.830304" lon="100.230122">
<time>2016-10-07T07:25:42Z</time></trkpt>
<trkpt lat="26.830614" lon="100.230062">
<time>2016-10-07T07:25:43Z</time></trkpt>
<trkpt lat="26.830844" lon="100.230002">
<time>2016-10-07T07:25:44Z</time></trkpt>
<trkpt lat="26.831074" lon="100.229922">
<time>2016-10-07T07:25:45Z</time></trkpt>
<trkpt lat="26.831264" lon="100.229842">
<time>2016-10-07T07:25:46Z</time></trkpt>
<trkpt lat="26.831454" lon="100.229742">
<time>2016-10-07T07:25:47Z</time></trkpt>
<trkpt lat="26.831604" lon="100.229662">
<time>2016-10-07T07:25:48Z</time></trkpt>
<trkpt lat="26.831843" lon="100.229501">
<time>2016-10-07T07:25:49Z</time></trkpt>
<trkpt lat="26.831973" lon="100.229401">
<time>2016-10-07T07:25:50Z</time></trkpt>
<trkpt lat="26.832183" lon="100.229221">
<time>2016-10-07T07:25:51Z</time></trkpt>
<trkpt lat="26.832523" lon="100.228951">
<time>2016-10-07T07:25:52Z</time></trkpt>
<trkpt lat="26.832573" lon="100.228921">
<time>2016-10-07T07:25:53Z</time></trkpt>
<trkpt lat="26.832723" lon="100.228801">
<time>2016-10-07T07:25:54Z</time></trkpt>
<trkpt lat="26.833352" lon="100.22828">
<time>2016-10-07T07:25:55Z</time></trkpt>
<trkpt lat="26.833802" lon="100.22789">
<time>2016-10-07T07:25:56Z</time></trkpt>
<trkpt lat="26.834292" lon="100.22748">
<time>2016-10-07T07:25:57Z</time></trkpt>
<trkpt lat="26.834352" lon="100.22743">
<time>2016-10-07T07:25:58Z</time></trkpt>
<trkpt lat="26.834541" lon="100.227229">
<time>2016-10-07T07:25:59Z</time></trkpt>
<trkpt lat="26.835281" lon="100.226469">
<time>2016-10-07T07:26:00Z</time></trkpt>
<trkpt lat="26.835331" lon="100.226429">
<time>2016-10-07T07:26:01Z</time></trkpt>
<trkpt lat="26.83618" lon="100.225518">
<time>2016-10-07T07:26:02Z</time></trkpt>
<trkpt lat="26.837628" lon="100.224106">
<time>2016-10-07T07:26:03Z</time></trkpt>
<trkpt lat="26.837628" lon="100.224106">
<time>2016-10-07T07:26:04Z</time></trkpt>
<trkpt lat="26.837597" lon="100.222985">
<time>2016-10-07T07:26:05Z</time></trkpt>
<trkpt lat="26.837656" lon="100.222134">
<time>2016-10-07T07:26:06Z</time></trkpt>
<trkpt lat="26.837766" lon="100.221304">
<time>2016-10-07T07:26:07Z</time></trkpt>
<trkpt lat="26.837835" lon="100.221033">
<time>2016-10-07T07:26:08Z</time></trkpt>
<trkpt lat="26.837965" lon="100.220453">
<time>2016-10-07T07:26:09Z</time></trkpt>
<trkpt lat="26.838134" lon="100.219872">
<time>2016-10-07T07:26:10Z</time></trkpt>
<trkpt lat="26.838164" lon="100.219782">
<time>2016-10-07T07:26:11Z</time></trkpt>
<trkpt lat="26.838583" lon="100.21855">
<time>2016-10-07T07:26:12Z</time></trkpt>
<trkpt lat="26.839231" lon="100.217209">
<time>2016-10-07T07:26:13Z</time></trkpt>
<trkpt lat="26.83968" lon="100.216458">
<time>2016-10-07T07:26:14Z</time></trkpt>
<trkpt lat="26.840389" lon="100.215497">
<time>2016-10-07T07:26:15Z</time></trkpt>
<trkpt lat="26.840469" lon="100.215396">
<time>2016-10-07T07:26:16Z</time></trkpt>
<trkpt lat="26.841088" lon="100.214595">
<time>2016-10-07T07:26:17Z</time></trkpt>
<trkpt lat="26.842086" lon="100.213424">
<time>2016-10-07T07:26:18Z</time></trkpt>
<trkpt lat="26.843524" lon="100.211621">
<time>2016-10-07T07:26:19Z</time></trkpt>
<trkpt lat="26.844572" lon="100.210379">
<time>2016-10-07T07:26:20Z</time></trkpt>
<trkpt lat="26.845501" lon="100.209538">
<time>2016-10-07T07:26:21Z</time></trkpt>
<trkpt lat="26.845541" lon="100.209498">
<time>2016-10-07T07:26:22Z</time></trkpt>
<trkpt lat="26.84584" lon="100.209228">
<time>2016-10-07T07:26:23Z</time></trkpt>
<trkpt lat="26.846979" lon="100.208396">
<time>2016-10-07T07:26:24Z</time></trkpt>
<trkpt lat="26.847988" lon="100.207815">
<time>2016-10-07T07:26:25Z</time></trkpt>
<trkpt lat="26.849427" lon="100.207235">
<time>2016-10-07T07:26:26Z</time></trkpt>
<trkpt lat="26.853235" lon="100.206053">
<time>2016-10-07T07:26:27Z</time></trkpt>
<trkpt lat="26.855063" lon="100.205482">
<time>2016-10-07T07:26:28Z</time></trkpt>
<trkpt lat="26.856632" lon="100.204981">
<time>2016-10-07T07:26:29Z</time></trkpt>
<trkpt lat="26.85979" lon="100.204009">
<time>2016-10-07T07:26:30Z</time></trkpt>
<trkpt lat="26.85984" lon="100.203989">
<time>2016-10-07T07:26:31Z</time></trkpt>
<trkpt lat="26.862499" lon="100.203358">
<time>2016-10-07T07:26:32Z</time></trkpt>
<trkpt lat="26.862829" lon="100.203308">
<time>2016-10-07T07:26:33Z</time></trkpt>
<trkpt lat="26.866257" lon="100.202717">
<time>2016-10-07T07:26:34Z</time></trkpt>
<trkpt lat="26.866627" lon="100.202657">
<time>2016-10-07T07:26:35Z</time></trkpt>
<trkpt lat="26.867317" lon="100.202556">
<time>2016-10-07T07:26:36Z</time></trkpt>
<trkpt lat="26.867317" lon="100.202556">
<time>2016-10-07T07:26:37Z</time></trkpt>
<trkpt lat="26.867276" lon="100.201705">
<time>2016-10-07T07:26:38Z</time></trkpt>
<trkpt lat="26.867276" lon="100.201625">
<time>2016-10-07T07:26:39Z</time></trkpt>
<trkpt lat="26.867265" lon="100.201445">
<time>2016-10-07T07:26:40Z</time></trkpt>
<trkpt lat="26.867234" lon="100.200783">
<time>2016-10-07T07:26:41Z</time></trkpt>
<trkpt lat="26.867224" lon="100.200723">
<time>2016-10-07T07:26:42Z</time></trkpt>
<trkpt lat="26.867224" lon="100.200653">
<time>2016-10-07T07:26:43Z</time></trkpt>
<trkpt lat="26.867224" lon="100.200633">
<time>2016-10-07T07:26:44Z</time></trkpt>
<trkpt lat="26.867193" lon="100.199902">
<time>2016-10-07T07:26:45Z</time></trkpt>
<trkpt lat="26.867172" lon="100.199591">
<time>2016-10-07T07:26:46Z</time></trkpt>
<trkpt lat="26.867172" lon="100.199491">
<time>2016-10-07T07:26:47Z</time></trkpt>
<trkpt lat="26.867162" lon="100.199381">
<time>2016-10-07T07:26:48Z</time></trkpt>
<trkpt lat="26.867059" lon="100.197317">
<time>2016-10-07T07:26:49Z</time></trkpt>
<trkpt lat="26.867059" lon="100.197227">
<time>2016-10-07T07:26:50Z</time></trkpt>
<trkpt lat="26.866955" lon="100.194993">
<time>2016-10-07T07:26:51Z</time></trkpt>
<trkpt lat="26.866945" lon="100.194913">
<time>2016-10-07T07:26:52Z</time></trkpt>
<trkpt lat="26.866883" lon="100.193641">
<time>2016-10-07T07:26:53Z</time></trkpt>
<trkpt lat="26.866883" lon="100.193641">
<time>2016-10-07T07:26:54Z</time></trkpt>
<trkpt lat="26.866913" lon="100.19357">
<time>2016-10-07T07:26:55Z</time></trkpt>
<trkpt lat="26.86684" lon="100.192238">
<time>2016-10-07T07:26:56Z</time></trkpt>
<trkpt lat="26.8668" lon="100.191907">
<time>2016-10-07T07:26:57Z</time></trkpt>
<trkpt lat="26.866779" lon="100.191607">
<time>2016-10-07T07:26:58Z</time></trkpt>
<trkpt lat="26.866809" lon="100.191336">
<time>2016-10-07T07:26:59Z</time></trkpt>
<trkpt lat="26.866829" lon="100.191196">
<time>2016-10-07T07:27:00Z</time></trkpt>
<trkpt lat="26.866878" lon="100.191076">
<time>2016-10-07T07:27:01Z</time></trkpt>
<trkpt lat="26.867048" lon="100.190795">
<time>2016-10-07T07:27:02Z</time></trkpt>
<trkpt lat="26.867357" lon="100.190294">
<time>2016-10-07T07:27:03Z</time></trkpt>
<trkpt lat="26.867556" lon="100.189983">
<time>2016-10-07T07:27:04Z</time></trkpt>
<trkpt lat="26.867796" lon="100.189623">
<time>2016-10-07T07:27:05Z</time></trkpt>
<trkpt lat="26.867995" lon="100.189302">
<time>2016-10-07T07:27:06Z</time></trkpt>
<trkpt lat="26.868085" lon="100.189162">
<time>2016-10-07T07:27:07Z</time></trkpt>
<trkpt lat="26.868175" lon="100.189032">
<time>2016-10-07T07:27:08Z</time></trkpt>
<trkpt lat="26.868284" lon="100.188951">
<time>2016-10-07T07:27:09Z</time></trkpt>
<trkpt lat="26.868384" lon="100.188901">
<time>2016-10-07T07:27:10Z</time></trkpt>
<trkpt lat="26.868484" lon="100.188891">
<time>2016-10-07T07:27:11Z</time></trkpt>
<trkpt lat="26.868824" lon="100.188881">
<time>2016-10-07T07:27:12Z</time></trkpt>
<trkpt lat="26.869404" lon="100.188951">
<time>2016-10-07T07:27:13Z</time></trkpt>
<trkpt lat="26.869584" lon="100.188961">
<time>2016-10-07T07:27:14Z</time></trkpt>
<trkpt lat="26.869714" lon="100.188951">
<time>2016-10-07T07:27:15Z</time></trkpt>
<trkpt lat="26.869934" lon="100.188891">
<time>2016-10-07T07:27:16Z</time></trkpt>
<trkpt lat="26.870114" lon="100.188841">
<time>2016-10-07T07:27:17Z</time></trkpt>
<trkpt lat="26.870254" lon="100.188791">
<time>2016-10-07T07:27:18Z</time></trkpt>
<trkpt lat="26.870364" lon="100.188751">
<time>2016-10-07T07:27:19Z</time></trkpt>
<trkpt lat="26.870484" lon="100.188711">
<time>2016-10-07T07:27:20Z</time></trkpt>
<trkpt lat="26.870594" lon="100.188691">
<time>2016-10-07T07:27:21Z</time></trkpt>
<trkpt lat="26.870703" lon="100.188661">
<time>2016-10-07T07:27:22Z</time></trkpt>
<trkpt lat="26.870853" lon="100.188651">
<time>2016-10-07T07:27:23Z</time></trkpt>
<trkpt lat="26.871523" lon="100.188561">
<time>2016-10-07T07:27:24Z</time></trkpt>
<trkpt lat="26.871693" lon="100.188581">
<time>2016-10-07T07:27:25Z</time></trkpt>
<trkpt lat="26.872143" lon="100.188661">
<time>2016-10-07T07:27:26Z</time></trkpt>
<trkpt lat="26.872833" lon="100.188851">
<time>2016-10-07T07:27:27Z</time></trkpt>
<trkpt lat="26.873073" lon="100.188871">
<time>2016-10-07T07:27:28Z</time></trkpt>
<trkpt lat="26.873253" lon="100.188841">
<time>2016-10-07T07:27:29Z</time></trkpt>
<trkpt lat="26.873483" lon="100.188791">
<time>2016-10-07T07:27:30Z</time></trkpt>
<trkpt lat="26.873533" lon="100.188771">
<time>2016-10-07T07:27:31Z</time></trkpt>
<trkpt lat="26.874313" lon="100.188591">
<time>2016-10-07T07:27:32Z</time></trkpt>
<trkpt lat="26.874413" lon="100.18856">
<time>2016-10-07T07:27:33Z</time></trkpt>
<trkpt lat="26.874802" lon="100.1884">
<time>2016-10-07T07:27:34Z</time></trkpt>
<trkpt lat="26.875242" lon="100.18814">
<time>2016-10-07T07:27:35Z</time></trkpt>
<trkpt lat="26.875631" lon="100.187949">
<time>2016-10-07T07:27:36Z</time></trkpt>
<trkpt lat="26.875791" lon="100.187899">
<time>2016-10-07T07:27:37Z</time></trkpt>
<trkpt lat="26.875901" lon="100.187879">
<time>2016-10-07T07:27:38Z</time></trkpt>
<trkpt lat="26.875991" lon="100.187869">
<time>2016-10-07T07:27:39Z</time></trkpt>
<trkpt lat="26.876101" lon="100.187889">
<time>2016-10-07T07:27:40Z</time></trkpt>
<trkpt lat="26.876221" lon="100.187939">
<time>2016-10-07T07:27:41Z</time></trkpt>
<trkpt lat="26.876331" lon="100.187949">
<time>2016-10-07T07:27:42Z</time></trkpt>
<trkpt lat="26.876401" lon="100.187929">
<time>2016-10-07T07:27:43Z</time></trkpt>
<trkpt lat="26.876441" lon="100.187909">
<time>2016-10-07T07:27:44Z</time></trkpt>
<trkpt lat="26.876491" lon="100.187869">
<time>2016-10-07T07:27:45Z</time></trkpt>
<trkpt lat="26.87671" lon="100.187548">
<time>2016-10-07T07:27:46Z</time></trkpt>
<trkpt lat="26.87679" lon="100.187488">
<time>2016-10-07T07:27:47Z</time></trkpt>
<trkpt lat="26.87685" lon="100.187478">
<time>2016-10-07T07:27:48Z</time></trkpt>
<trkpt lat="26.8769" lon="100.187478">
<time>2016-10-07T07:27:49Z</time></trkpt>
<trkpt lat="26.87696" lon="100.187508">
<time>2016-10-07T07:27:50Z</time></trkpt>
<trkpt lat="26.87704" lon="100.187558">
<time>2016-10-07T07:27:51Z</time></trkpt>
<trkpt lat="26.877121" lon="100.187679">
<time>2016-10-07T07:27:52Z</time></trkpt>
<trkpt lat="26.877191" lon="100.187709">
<time>2016-10-07T07:27:53Z</time></trkpt>
<trkpt lat="26.877261" lon="100.187719">
<time>2016-10-07T07:27:54Z</time></trkpt>
<trkpt lat="26.877351" lon="100.187709">
<time>2016-10-07T07:27:55Z</time></trkpt>
<trkpt lat="26.87754" lon="100.187619">
<time>2016-10-07T07:27:56Z</time></trkpt>
<trkpt lat="26.87812" lon="100.187318">
<time>2016-10-07T07:27:57Z</time></trkpt>
<trkpt lat="26.878779" lon="100.186947">
<time>2016-10-07T07:27:58Z</time></trkpt>
<trkpt lat="26.878978" lon="100.186647">
<time>2016-10-07T07:27:59Z</time></trkpt>
<trkpt lat="26.879158" lon="100.186416">
<time>2016-10-07T07:28:00Z</time></trkpt>
<trkpt lat="26.879238" lon="100.186376">
<time>2016-10-07T07:28:01Z</time></trkpt>
<trkpt lat="26.879358" lon="100.186396">
<time>2016-10-07T07:28:02Z</time></trkpt>
<trkpt lat="26.879418" lon="100.186416">
<time>2016-10-07T07:28:03Z</time></trkpt>
<trkpt lat="26.879848" lon="100.186697">
<time>2016-10-07T07:28:04Z</time></trkpt>
<trkpt lat="26.879948" lon="100.186727">
<time>2016-10-07T07:28:05Z</time></trkpt>
<trkpt lat="26.880068" lon="100.186727">
<time>2016-10-07T07:28:06Z</time></trkpt>
<trkpt lat="26.880138" lon="100.186717">
<time>2016-10-07T07:28:07Z</time></trkpt>
<trkpt lat="26.880228" lon="100.186667">
<time>2016-10-07T07:28:08Z</time></trkpt>
<trkpt lat="26.880568" lon="100.186516">
<time>2016-10-07T07:28:09Z</time></trkpt>
<trkpt lat="26.880728" lon="100.186466">
<time>2016-10-07T07:28:10Z</time></trkpt>
<trkpt lat="26.880948" lon="100.186406">
<time>2016-10-07T07:28:11Z</time></trkpt>
<trkpt lat="26.881047" lon="100.186356">
<time>2016-10-07T07:28:12Z</time></trkpt>
<trkpt lat="26.881137" lon="100.186266">
<time>2016-10-07T07:28:13Z</time></trkpt>
<trkpt lat="26.881227" lon="100.186155">
<time>2016-10-07T07:28:14Z</time></trkpt>
<trkpt lat="26.881317" lon="100.186005">
<time>2016-10-07T07:28:15Z</time></trkpt>
<trkpt lat="26.881376" lon="100.185845">
<time>2016-10-07T07:28:16Z</time></trkpt>
<trkpt lat="26.881406" lon="100.185705">
<time>2016-10-07T07:28:17Z</time></trkpt>
<trkpt lat="26.881416" lon="100.185484">
<time>2016-10-07T07:28:18Z</time></trkpt>
<trkpt lat="26.881385" lon="100.185294">
<time>2016-10-07T07:28:19Z</time></trkpt>
<trkpt lat="26.881355" lon="100.185053">
<time>2016-10-07T07:28:20Z</time></trkpt>
<trkpt lat="26.881345" lon="100.185013">
<time>2016-10-07T07:28:21Z</time></trkpt>
<trkpt lat="26.881345" lon="100.184903">
<time>2016-10-07T07:28:22Z</time></trkpt>
<trkpt lat="26.881355" lon="100.184833">
<time>2016-10-07T07:28:23Z</time></trkpt>
<trkpt lat="26.881384" lon="100.184582">
<time>2016-10-07T07:28:24Z</time></trkpt>
<trkpt lat="26.881374" lon="100.184512">
<time>2016-10-07T07:28:25Z</time></trkpt>
<trkpt lat="26.881344" lon="100.184302">
<time>2016-10-07T07:28:26Z</time></trkpt>
<trkpt lat="26.881323" lon="100.184202">
<time>2016-10-07T07:28:27Z</time></trkpt>
<trkpt lat="26.881313" lon="100.183981">
<time>2016-10-07T07:28:28Z</time></trkpt>
<trkpt lat="26.881313" lon="100.183811">
<time>2016-10-07T07:28:29Z</time></trkpt>
<trkpt lat="26.881312" lon="100.18363">
<time>2016-10-07T07:28:30Z</time></trkpt>
<trkpt lat="26.881352" lon="100.18348">
<time>2016-10-07T07:28:31Z</time></trkpt>
<trkpt lat="26.881372" lon="100.18342">
<time>2016-10-07T07:28:32Z</time></trkpt>
<trkpt lat="26.881392" lon="100.18338">
<time>2016-10-07T07:28:33Z</time></trkpt>
<trkpt lat="26.881452" lon="100.18333">
<time>2016-10-07T07:28:34Z</time></trkpt>
<trkpt lat="26.881532" lon="100.18329">
<time>2016-10-07T07:28:35Z</time></trkpt>
<trkpt lat="26.881632" lon="100.18329">
<time>2016-10-07T07:28:36Z</time></trkpt>
<trkpt lat="26.881722" lon="100.18329">
<time>2016-10-07T07:28:37Z</time></trkpt>
<trkpt lat="26.881812" lon="100.18331">
<time>2016-10-07T07:28:38Z</time></trkpt>
<trkpt lat="26.881922" lon="100.18335">
<time>2016-10-07T07:28:39Z</time></trkpt>
<trkpt lat="26.881992" lon="100.1834">
<time>2016-10-07T07:28:40Z</time></trkpt>
<trkpt lat="26.882062" lon="100.18347">
<time>2016-10-07T07:28:41Z</time></trkpt>
<trkpt lat="26.882142" lon="100.18357">
<time>2016-10-07T07:28:42Z</time></trkpt>
<trkpt lat="26.882202" lon="100.18361">
<time>2016-10-07T07:28:43Z</time></trkpt>
<trkpt lat="26.882242" lon="100.18362">
<time>2016-10-07T07:28:44Z</time></trkpt>
<trkpt lat="26.882272" lon="100.18363">
<time>2016-10-07T07:28:45Z</time></trkpt>
<trkpt lat="26.882312" lon="100.18362">
<time>2016-10-07T07:28:46Z</time></trkpt>
<trkpt lat="26.882352" lon="100.18361">
<time>2016-10-07T07:28:47Z</time></trkpt>
<trkpt lat="26.882382" lon="100.18359">
<time>2016-10-07T07:28:48Z</time></trkpt>
<trkpt lat="26.882472" lon="100.1835">
<time>2016-10-07T07:28:49Z</time></trkpt>
<trkpt lat="26.882731" lon="100.183169">
<time>2016-10-07T07:28:50Z</time></trkpt>
<trkpt lat="26.882881" lon="100.183019">
<time>2016-10-07T07:28:51Z</time></trkpt>
<trkpt lat="26.883021" lon="100.182859">
<time>2016-10-07T07:28:52Z</time></trkpt>
<trkpt lat="26.88317" lon="100.182628">
<time>2016-10-07T07:28:53Z</time></trkpt>
<trkpt lat="26.88331" lon="100.182448">
<time>2016-10-07T07:28:54Z</time></trkpt>
<trkpt lat="26.88345" lon="100.182328">
<time>2016-10-07T07:28:55Z</time></trkpt>
<trkpt lat="26.883679" lon="100.182157">
<time>2016-10-07T07:28:56Z</time></trkpt>
<trkpt lat="26.883939" lon="100.181937">
<time>2016-10-07T07:28:57Z</time></trkpt>
<trkpt lat="26.884438" lon="100.181476">
<time>2016-10-07T07:28:58Z</time></trkpt>
<trkpt lat="26.884727" lon="100.181195">
<time>2016-10-07T07:28:59Z</time></trkpt>
<trkpt lat="26.884847" lon="100.181045">
<time>2016-10-07T07:29:00Z</time></trkpt>
<trkpt lat="26.884987" lon="100.180824">
<time>2016-10-07T07:29:01Z</time></trkpt>
<trkpt lat="26.885056" lon="100.180654">
<time>2016-10-07T07:29:02Z</time></trkpt>
<trkpt lat="26.885116" lon="100.180414">
<time>2016-10-07T07:29:03Z</time></trkpt>
<trkpt lat="26.885136" lon="100.180283">
<time>2016-10-07T07:29:04Z</time></trkpt>
<trkpt lat="26.885165" lon="100.180103">
<time>2016-10-07T07:29:05Z</time></trkpt>
<trkpt lat="26.885185" lon="100.179963">
<time>2016-10-07T07:29:06Z</time></trkpt>
<trkpt lat="26.885225" lon="100.179732">
<time>2016-10-07T07:29:07Z</time></trkpt>
<trkpt lat="26.885254" lon="100.179542">
<time>2016-10-07T07:29:08Z</time></trkpt>
<trkpt lat="26.885254" lon="100.179371">
<time>2016-10-07T07:29:09Z</time></trkpt>
<trkpt lat="26.885243" lon="100.179151">
<time>2016-10-07T07:29:10Z</time></trkpt>
<trkpt lat="26.885163" lon="100.1787">
<time>2016-10-07T07:29:11Z</time></trkpt>
<trkpt lat="26.884991" lon="100.177808">
<time>2016-10-07T07:29:12Z</time></trkpt>
<trkpt lat="26.884931" lon="100.177558">
<time>2016-10-07T07:29:13Z</time></trkpt>
<trkpt lat="26.88486" lon="100.177307">
<time>2016-10-07T07:29:14Z</time></trkpt>
<trkpt lat="26.88477" lon="100.177117">
<time>2016-10-07T07:29:15Z</time></trkpt>
<trkpt lat="26.884699" lon="100.176956">
<time>2016-10-07T07:29:16Z</time></trkpt>
<trkpt lat="26.884689" lon="100.176946">
<time>2016-10-07T07:29:17Z</time></trkpt>
<trkpt lat="26.884559" lon="100.176556">
<time>2016-10-07T07:29:18Z</time></trkpt>
<trkpt lat="26.884549" lon="100.176536">
<time>2016-10-07T07:29:19Z</time></trkpt>
<trkpt lat="26.884448" lon="100.176255">
<time>2016-10-07T07:29:20Z</time></trkpt>
<trkpt lat="26.884268" lon="100.175914">
<time>2016-10-07T07:29:21Z</time></trkpt>
<trkpt lat="26.883897" lon="100.175313">
<time>2016-10-07T07:29:22Z</time></trkpt>
<trkpt lat="26.883716" lon="100.175072">
<time>2016-10-07T07:29:23Z</time></trkpt>
<trkpt lat="26.883646" lon="100.174862">
<time>2016-10-07T07:29:24Z</time></trkpt>
<trkpt lat="26.883565" lon="100.174331">
<time>2016-10-07T07:29:25Z</time></trkpt>
<trkpt lat="26.883494" lon="100.17414">
<time>2016-10-07T07:29:26Z</time></trkpt>
<trkpt lat="26.883444" lon="100.17405">
<time>2016-10-07T07:29:27Z</time></trkpt>
<trkpt lat="26.883414" lon="100.17402">
<time>2016-10-07T07:29:28Z</time></trkpt>
<trkpt lat="26.883394" lon="100.174">
<time>2016-10-07T07:29:29Z</time></trkpt>
<trkpt lat="26.883334" lon="100.17395">
<time>2016-10-07T07:29:30Z</time></trkpt>
<trkpt lat="26.883274" lon="100.1739">
<time>2016-10-07T07:29:31Z</time></trkpt>
<trkpt lat="26.883254" lon="100.17388">
<time>2016-10-07T07:29:32Z</time></trkpt>
<trkpt lat="26.883174" lon="100.17377">
<time>2016-10-07T07:29:33Z</time></trkpt>
<trkpt lat="26.883114" lon="100.173669">
<time>2016-10-07T07:29:34Z</time></trkpt>
<trkpt lat="26.883063" lon="100.173569">
<time>2016-10-07T07:29:35Z</time></trkpt>
<trkpt lat="26.883053" lon="100.173489">
<time>2016-10-07T07:29:36Z</time></trkpt>
<trkpt lat="26.883023" lon="100.173369">
<time>2016-10-07T07:29:37Z</time></trkpt>
<trkpt lat="26.883003" lon="100.173299">
<time>2016-10-07T07:29:38Z</time></trkpt>
<trkpt lat="26.882963" lon="100.173219">
<time>2016-10-07T07:29:39Z</time></trkpt>
<trkpt lat="26.882903" lon="100.173158">
<time>2016-10-07T07:29:40Z</time></trkpt>
<trkpt lat="26.882853" lon="100.173098">
<time>2016-10-07T07:29:41Z</time></trkpt>
<trkpt lat="26.882793" lon="100.173068">
<time>2016-10-07T07:29:42Z</time></trkpt>
<trkpt lat="26.882732" lon="100.173038">
<time>2016-10-07T07:29:43Z</time></trkpt>
<trkpt lat="26.882662" lon="100.173008">
<time>2016-10-07T07:29:44Z</time></trkpt>
<trkpt lat="26.882582" lon="100.172978">
<time>2016-10-07T07:29:45Z</time></trkpt>
<trkpt lat="26.882532" lon="100.172948">
<time>2016-10-07T07:29:46Z</time></trkpt>
<trkpt lat="26.882492" lon="100.172938">
<time>2016-10-07T07:29:47Z</time></trkpt>
<trkpt lat="26.882412" lon="100.172868">
<time>2016-10-07T07:29:48Z</time></trkpt>
<trkpt lat="26.882192" lon="100.172637">
<time>2016-10-07T07:29:49Z</time></trkpt>
<trkpt lat="26.881941" lon="100.172387">
<time>2016-10-07T07:29:50Z</time></trkpt>
<trkpt lat="26.881751" lon="100.172267">
<time>2016-10-07T07:29:51Z</time></trkpt>
<trkpt lat="26.881491" lon="100.172106">
<time>2016-10-07T07:29:52Z</time></trkpt>
<trkpt lat="26.881351" lon="100.172036">
<time>2016-10-07T07:29:53Z</time></trkpt>
<trkpt lat="26.881181" lon="100.171886">
<time>2016-10-07T07:29:54Z</time></trkpt>
<trkpt lat="26.8811" lon="100.171796">
<time>2016-10-07T07:29:55Z</time></trkpt>
<trkpt lat="26.88101" lon="100.171655">
<time>2016-10-07T07:29:56Z</time></trkpt>
<trkpt lat="26.88094" lon="100.171495">
<time>2016-10-07T07:29:57Z</time></trkpt>
<trkpt lat="26.880769" lon="100.171194">
<time>2016-10-07T07:29:58Z</time></trkpt>
<trkpt lat="26.880339" lon="100.170703">
<time>2016-10-07T07:29:59Z</time></trkpt>
<trkpt lat="26.880108" lon="100.170443">
<time>2016-10-07T07:30:00Z</time></trkpt>
<trkpt lat="26.877914" lon="100.168138">
<time>2016-10-07T07:30:01Z</time></trkpt>
<trkpt lat="26.876692" lon="100.166845">
<time>2016-10-07T07:30:02Z</time></trkpt>
<trkpt lat="26.876512" lon="100.166645">
<time>2016-10-07T07:30:03Z</time></trkpt>
<trkpt lat="26.876462" lon="100.166605">
<time>2016-10-07T07:30:04Z</time></trkpt>
<trkpt lat="26.874408" lon="100.16449">
<time>2016-10-07T07:30:05Z</time></trkpt>
<trkpt lat="26.874158" lon="100.16434">
<time>2016-10-07T07:30:06Z</time></trkpt>
<trkpt lat="26.873928" lon="100.16428">
<time>2016-10-07T07:30:07Z</time></trkpt>
<trkpt lat="26.873708" lon="100.16422">
<time>2016-10-07T07:30:08Z</time></trkpt>
<trkpt lat="26.873528" lon="100.16419">
<time>2016-10-07T07:30:09Z</time></trkpt>
<trkpt lat="26.873407" lon="100.16414">
<time>2016-10-07T07:30:10Z</time></trkpt>
<trkpt lat="26.873267" lon="100.164079">
<time>2016-10-07T07:30:11Z</time></trkpt>
<trkpt lat="26.873177" lon="100.163999">
<time>2016-10-07T07:30:12Z</time></trkpt>
<trkpt lat="26.873037" lon="100.163839">
<time>2016-10-07T07:30:13Z</time></trkpt>
<trkpt lat="26.872967" lon="100.163719">
<time>2016-10-07T07:30:14Z</time></trkpt>
<trkpt lat="26.872917" lon="100.163608">
<time>2016-10-07T07:30:15Z</time></trkpt>
<trkpt lat="26.872907" lon="100.163578">
<time>2016-10-07T07:30:16Z</time></trkpt>
<trkpt lat="26.872876" lon="100.163418">
<time>2016-10-07T07:30:17Z</time></trkpt>
<trkpt lat="26.872866" lon="100.163278">
<time>2016-10-07T07:30:18Z</time></trkpt>
<trkpt lat="26.872856" lon="100.163228">
<time>2016-10-07T07:30:19Z</time></trkpt>
<trkpt lat="26.872846" lon="100.163047">
<time>2016-10-07T07:30:20Z</time></trkpt>
<trkpt lat="26.872835" lon="100.162837">
<time>2016-10-07T07:30:21Z</time></trkpt>
<trkpt lat="26.872805" lon="100.162646">
<time>2016-10-07T07:30:22Z</time></trkpt>
<trkpt lat="26.872785" lon="100.162526">
<time>2016-10-07T07:30:23Z</time></trkpt>
<trkpt lat="26.872744" lon="100.162436">
<time>2016-10-07T07:30:24Z</time></trkpt>
<trkpt lat="26.872674" lon="100.162306">
<time>2016-10-07T07:30:25Z</time></trkpt>
<trkpt lat="26.872564" lon="100.162165">
<time>2016-10-07T07:30:26Z</time></trkpt>
<trkpt lat="26.872434" lon="100.162055">
<time>2016-10-07T07:30:27Z</time></trkpt>
<trkpt lat="26.872264" lon="100.161935">
<time>2016-10-07T07:30:28Z</time></trkpt>
<trkpt lat="26.872023" lon="100.161815">
<time>2016-10-07T07:30:29Z</time></trkpt>
<trkpt lat="26.871783" lon="100.161694">
<time>2016-10-07T07:30:30Z</time></trkpt>
<trkpt lat="26.871653" lon="100.161584">
<time>2016-10-07T07:30:31Z</time></trkpt>
<trkpt lat="26.871563" lon="100.161494">
<time>2016-10-07T07:30:32Z</time></trkpt>
<trkpt lat="26.86969" lon="100.15951">
<time>2016-10-07T07:30:33Z</time></trkpt>
<trkpt lat="26.869469" lon="100.159289">
<time>2016-10-07T07:30:34Z</time></trkpt>
<trkpt lat="26.869389" lon="100.159229">
<time>2016-10-07T07:30:35Z</time></trkpt>
<trkpt lat="26.869349" lon="100.159209">
<time>2016-10-07T07:30:36Z</time></trkpt>
<trkpt lat="26.869269" lon="100.159159">
<time>2016-10-07T07:30:37Z</time></trkpt>
<trkpt lat="26.868909" lon="100.159039">
<time>2016-10-07T07:30:38Z</time></trkpt>
<trkpt lat="26.868289" lon="100.158839">
<time>2016-10-07T07:30:39Z</time></trkpt>
<trkpt lat="26.866768" lon="100.158408">
<time>2016-10-07T07:30:40Z</time></trkpt>
<trkpt lat="26.866748" lon="100.158398">
<time>2016-10-07T07:30:41Z</time></trkpt>
<trkpt lat="26.866548" lon="100.158328">
<time>2016-10-07T07:30:42Z</time></trkpt>
<trkpt lat="26.865247" lon="100.157546">
<time>2016-10-07T07:30:43Z</time></trkpt>
<trkpt lat="26.864927" lon="100.157366">
<time>2016-10-07T07:30:44Z</time></trkpt>
<trkpt lat="26.864576" lon="100.157115">
<time>2016-10-07T07:30:45Z</time></trkpt>
<trkpt lat="26.864356" lon="100.156905">
<time>2016-10-07T07:30:46Z</time></trkpt>
<trkpt lat="26.864316" lon="100.156835">
<time>2016-10-07T07:30:47Z</time></trkpt>
<trkpt lat="26.864125" lon="100.156584">
<time>2016-10-07T07:30:48Z</time></trkpt>
<trkpt lat="26.863093" lon="100.155131">
<time>2016-10-07T07:30:49Z</time></trkpt>
<trkpt lat="26.862501" lon="100.154319">
<time>2016-10-07T07:30:50Z</time></trkpt>
<trkpt lat="26.862251" lon="100.153949">
<time>2016-10-07T07:30:51Z</time></trkpt>
<trkpt lat="26.862131" lon="100.153818">
<time>2016-10-07T07:30:52Z</time></trkpt>
<trkpt lat="26.86204" lon="100.153718">
<time>2016-10-07T07:30:53Z</time></trkpt>
<trkpt lat="26.86198" lon="100.153658">
<time>2016-10-07T07:30:54Z</time></trkpt>
<trkpt lat="26.86185" lon="100.153568">
<time>2016-10-07T07:30:55Z</time></trkpt>
<trkpt lat="26.8617" lon="100.153458">
<time>2016-10-07T07:30:56Z</time></trkpt>
<trkpt lat="26.86143" lon="100.153267">
<time>2016-10-07T07:30:57Z</time></trkpt>
<trkpt lat="26.86123" lon="100.153117">
<time>2016-10-07T07:30:58Z</time></trkpt>
<trkpt lat="26.860889" lon="100.152887">
<time>2016-10-07T07:30:59Z</time></trkpt>
<trkpt lat="26.859768" lon="100.152115">
<time>2016-10-07T07:31:00Z</time></trkpt>
<trkpt lat="26.858557" lon="100.151294">
<time>2016-10-07T07:31:01Z</time></trkpt>
<trkpt lat="26.858006" lon="100.150913">
<time>2016-10-07T07:31:02Z</time></trkpt>
<trkpt lat="26.857536" lon="100.150592">
<time>2016-10-07T07:31:03Z</time></trkpt>
<trkpt lat="26.856595" lon="100.149931">
<time>2016-10-07T07:31:04Z</time></trkpt>
<trkpt lat="26.856214" lon="100.14968">
<time>2016-10-07T07:31:05Z</time></trkpt>
<trkpt lat="26.855644" lon="100.14927">
<time>2016-10-07T07:31:06Z</time></trkpt>
<trkpt lat="26.855323" lon="100.149019">
<time>2016-10-07T07:31:07Z</time></trkpt>
<trkpt lat="26.855043" lon="100.148779">
<time>2016-10-07T07:31:08Z</time></trkpt>
<trkpt lat="26.854833" lon="100.148608">
<time>2016-10-07T07:31:09Z</time></trkpt>
<trkpt lat="26.854473" lon="100.148368">
<time>2016-10-07T07:31:10Z</time></trkpt>
<trkpt lat="26.854202" lon="100.148198">
<time>2016-10-07T07:31:11Z</time></trkpt>
<trkpt lat="26.853802" lon="100.147917">
<time>2016-10-07T07:31:12Z</time></trkpt>
<trkpt lat="26.853221" lon="100.147486">
<time>2016-10-07T07:31:13Z</time></trkpt>
<trkpt lat="26.852961" lon="100.147286">
<time>2016-10-07T07:31:14Z</time></trkpt>
<trkpt lat="26.852821" lon="100.147176">
<time>2016-10-07T07:31:15Z</time></trkpt>
<trkpt lat="26.852761" lon="100.147126">
<time>2016-10-07T07:31:16Z</time></trkpt>
<trkpt lat="26.852731" lon="100.147106">
<time>2016-10-07T07:31:17Z</time></trkpt>
<trkpt lat="26.852621" lon="100.147035">
<time>2016-10-07T07:31:18Z</time></trkpt>
<trkpt lat="26.852571" lon="100.146995">
<time>2016-10-07T07:31:19Z</time></trkpt>
<trkpt lat="26.85245" lon="100.146895">
<time>2016-10-07T07:31:20Z</time></trkpt>
<trkpt lat="26.85242" lon="100.146875">
<time>2016-10-07T07:31:21Z</time></trkpt>
<trkpt lat="26.85238" lon="100.146845">
<time>2016-10-07T07:31:22Z</time></trkpt>
<trkpt lat="26.85175" lon="100.146354">
<time>2016-10-07T07:31:23Z</time></trkpt>
<trkpt lat="26.851329" lon="100.146054">
<time>2016-10-07T07:31:24Z</time></trkpt>
<trkpt lat="26.851159" lon="100.145903">
<time>2016-10-07T07:31:25Z</time></trkpt>
<trkpt lat="26.850739" lon="100.145603">
<time>2016-10-07T07:31:26Z</time></trkpt>
<trkpt lat="26.850468" lon="100.145412">
<time>2016-10-07T07:31:27Z</time></trkpt>
<trkpt lat="26.850118" lon="100.145152">
<time>2016-10-07T07:31:28Z</time></trkpt>
<trkpt lat="26.849728" lon="100.144881">
<time>2016-10-07T07:31:29Z</time></trkpt>
<trkpt lat="26.848897" lon="100.14425">
<time>2016-10-07T07:31:30Z</time></trkpt>
<trkpt lat="26.848336" lon="100.14383">
<time>2016-10-07T07:31:31Z</time></trkpt>
<trkpt lat="26.847715" lon="100.143359">
<time>2016-10-07T07:31:32Z</time></trkpt>
<trkpt lat="26.845883" lon="100.141946">
<time>2016-10-07T07:31:33Z</time></trkpt>
<trkpt lat="26.845443" lon="100.141636">
<time>2016-10-07T07:31:34Z</time></trkpt>
<trkpt lat="26.845323" lon="100.141546">
<time>2016-10-07T07:31:35Z</time></trkpt>
<trkpt lat="26.843962" lon="100.140524">
<time>2016-10-07T07:31:36Z</time></trkpt>
<trkpt lat="26.841559" lon="100.138721">
<time>2016-10-07T07:31:37Z</time></trkpt>
<trkpt lat="26.838867" lon="100.136697">
<time>2016-10-07T07:31:38Z</time></trkpt>
<trkpt lat="26.833712" lon="100.132821">
<time>2016-10-07T07:31:39Z</time></trkpt>
<trkpt lat="26.833352" lon="100.132551">
<time>2016-10-07T07:31:40Z</time></trkpt>
<trkpt lat="26.832781" lon="100.13212">
<time>2016-10-07T07:31:41Z</time></trkpt>
<trkpt lat="26.832331" lon="100.13178">
<time>2016-10-07T07:31:42Z</time></trkpt>
<trkpt lat="26.83173" lon="100.131339">
<time>2016-10-07T07:31:43Z</time></trkpt>
<trkpt lat="26.83093" lon="100.130728">
<time>2016-10-07T07:31:44Z</time></trkpt>
<trkpt lat="26.83086" lon="100.130678">
<time>2016-10-07T07:31:45Z</time></trkpt>
<trkpt lat="26.830349" lon="100.130268">
<time>2016-10-07T07:31:46Z</time></trkpt>
<trkpt lat="26.829989" lon="100.130017">
<time>2016-10-07T07:31:47Z</time></trkpt>
<trkpt lat="26.829669" lon="100.129777">
<time>2016-10-07T07:31:48Z</time></trkpt>
<trkpt lat="26.829379" lon="100.129557">
<time>2016-10-07T07:31:49Z</time></trkpt>
<trkpt lat="26.829118" lon="100.129356">
<time>2016-10-07T07:31:50Z</time></trkpt>
<trkpt lat="26.828978" lon="100.129256">
<time>2016-10-07T07:31:51Z</time></trkpt>
<trkpt lat="26.828868" lon="100.129186">
<time>2016-10-07T07:31:52Z</time></trkpt>
<trkpt lat="26.828868" lon="100.129186">
<time>2016-10-07T07:31:53Z</time></trkpt>
<trkpt lat="26.828928" lon="100.128976">
<time>2016-10-07T07:31:54Z</time></trkpt>
<trkpt lat="26.828938" lon="100.128916">
<time>2016-10-07T07:31:55Z</time></trkpt>
<trkpt lat="26.828958" lon="100.128856">
<time>2016-10-07T07:31:56Z</time></trkpt>
<trkpt lat="26.829008" lon="100.128736">
<time>2016-10-07T07:31:57Z</time></trkpt>
<trkpt lat="26.829067" lon="100.128575">
<time>2016-10-07T07:31:58Z</time></trkpt>
<trkpt lat="26.829107" lon="100.128465">
<time>2016-10-07T07:31:59Z</time></trkpt>
<trkpt lat="26.829177" lon="100.128345">
<time>2016-10-07T07:32:00Z</time></trkpt>
<trkpt lat="26.829297" lon="100.128175">
<time>2016-10-07T07:32:01Z</time></trkpt>
<trkpt lat="26.829357" lon="100.128115">
<time>2016-10-07T07:32:02Z</time></trkpt>
<trkpt lat="26.829477" lon="100.127985">
<time>2016-10-07T07:32:03Z</time></trkpt>
<trkpt lat="26.829586" lon="100.127864">
<time>2016-10-07T07:32:04Z</time></trkpt>
<trkpt lat="26.829746" lon="100.127704">
<time>2016-10-07T07:32:05Z</time></trkpt>
<trkpt lat="26.829796" lon="100.127644">
<time>2016-10-07T07:32:06Z</time></trkpt>
<trkpt lat="26.829826" lon="100.127584">
<time>2016-10-07T07:32:07Z</time></trkpt>
<trkpt lat="26.829846" lon="100.127534">
<time>2016-10-07T07:32:08Z</time></trkpt>
<trkpt lat="26.829906" lon="100.127434">
<time>2016-10-07T07:32:09Z</time></trkpt>
<trkpt lat="26.829956" lon="100.127324">
<time>2016-10-07T07:32:10Z</time></trkpt>
<trkpt lat="26.829996" lon="100.127203">
<time>2016-10-07T07:32:11Z</time></trkpt>
<trkpt lat="26.830015" lon="100.127123">
<time>2016-10-07T07:32:12Z</time></trkpt>
<trkpt lat="26.830035" lon="100.127023">
<time>2016-10-07T07:32:13Z</time></trkpt>
<trkpt lat="26.830045" lon="100.126963">
<time>2016-10-07T07:32:14Z</time></trkpt>
<trkpt lat="26.830085" lon="100.126853">
<time>2016-10-07T07:32:15Z</time></trkpt>
<trkpt lat="26.830095" lon="100.126813">
<time>2016-10-07T07:32:16Z</time></trkpt>
<trkpt lat="26.830125" lon="100.126773">
<time>2016-10-07T07:32:17Z</time></trkpt>
<trkpt lat="26.830175" lon="100.126693">
<time>2016-10-07T07:32:18Z</time></trkpt>
<trkpt lat="26.830215" lon="100.126663">
<time>2016-10-07T07:32:19Z</time></trkpt>
<trkpt lat="26.830275" lon="100.126643">
<time>2016-10-07T07:32:20Z</time></trkpt>
<trkpt lat="26.830325" lon="100.126613">
<time>2016-10-07T07:32:21Z</time></trkpt>
<trkpt lat="26.830385" lon="100.126603">
<time>2016-10-07T07:32:22Z</time></trkpt>
<trkpt lat="26.830445" lon="100.126593">
<time>2016-10-07T07:32:23Z</time></trkpt>
<trkpt lat="26.830515" lon="100.126593">
<time>2016-10-07T07:32:24Z</time></trkpt>
<trkpt lat="26.830655" lon="100.126613">
<time>2016-10-07T07:32:25Z</time></trkpt>
<trkpt lat="26.830715" lon="100.126623">
<time>2016-10-07T07:32:26Z</time></trkpt>
<trkpt lat="26.830785" lon="100.126623">
<time>2016-10-07T07:32:27Z</time></trkpt>
<trkpt lat="26.830895" lon="100.126613">
<time>2016-10-07T07:32:28Z</time></trkpt>
<trkpt lat="26.831005" lon="100.126583">
<time>2016-10-07T07:32:29Z</time></trkpt>
<trkpt lat="26.831145" lon="100.126543">
<time>2016-10-07T07:32:30Z</time></trkpt>
<trkpt lat="26.831225" lon="100.126533">
<time>2016-10-07T07:32:31Z</time></trkpt>
<trkpt lat="26.831365" lon="100.126482">
<time>2016-10-07T07:32:32Z</time></trkpt>
<trkpt lat="26.831435" lon="100.126452">
<time>2016-10-07T07:32:33Z</time></trkpt>
<trkpt lat="26.831604" lon="100.126352">
<time>2016-10-07T07:32:34Z</time></trkpt>
<trkpt lat="26.831644" lon="100.126322">
<time>2016-10-07T07:32:35Z</time></trkpt>
<trkpt lat="26.831674" lon="100.126272">
<time>2016-10-07T07:32:36Z</time></trkpt>
<trkpt lat="26.831714" lon="100.126182">
<time>2016-10-07T07:32:37Z</time></trkpt>
<trkpt lat="26.831754" lon="100.126102">
<time>2016-10-07T07:32:38Z</time></trkpt>
<trkpt lat="26.831774" lon="100.126032">
<time>2016-10-07T07:32:39Z</time></trkpt>
<trkpt lat="26.831784" lon="100.125972">
<time>2016-10-07T07:32:40Z</time></trkpt>
<trkpt lat="26.831784" lon="100.125922">
<time>2016-10-07T07:32:41Z</time></trkpt>
<trkpt lat="26.831754" lon="100.125862">
<time>2016-10-07T07:32:42Z</time></trkpt>
<trkpt lat="26.831714" lon="100.125812">
<time>2016-10-07T07:32:43Z</time></trkpt>
<trkpt lat="26.831674" lon="100.125761">
<time>2016-10-07T07:32:44Z</time></trkpt>
<trkpt lat="26.831534" lon="100.125581">
<time>2016-10-07T07:32:45Z</time></trkpt>
<trkpt lat="26.831463" lon="100.125461">
<time>2016-10-07T07:32:46Z</time></trkpt>
<trkpt lat="26.831093" lon="100.125021">
<time>2016-10-07T07:32:47Z</time></trkpt>
<trkpt lat="26.830943" lon="100.12486">
<time>2016-10-07T07:32:48Z</time></trkpt>
<trkpt lat="26.830863" lon="100.12479">
<time>2016-10-07T07:32:49Z</time></trkpt>
<trkpt lat="26.830482" lon="100.12451">
<time>2016-10-07T07:32:50Z</time></trkpt>
<trkpt lat="26.830292" lon="100.12429">
<time>2016-10-07T07:32:51Z</time></trkpt>
<trkpt lat="26.830092" lon="100.123769">
<time>2016-10-07T07:32:52Z</time></trkpt>
<trkpt lat="26.829671" lon="100.123298">
<time>2016-10-07T07:32:53Z</time></trkpt>
<trkpt lat="26.829251" lon="100.122608">
<time>2016-10-07T07:32:54Z</time></trkpt>
<trkpt lat="26.82897" lon="100.122007">
<time>2016-10-07T07:32:55Z</time></trkpt>
<trkpt lat="26.82882" lon="100.121617">
<time>2016-10-07T07:32:56Z</time></trkpt>
<trkpt lat="26.828599" lon="100.121046">
<time>2016-10-07T07:32:57Z</time></trkpt>
<trkpt lat="26.828389" lon="100.120645">
<time>2016-10-07T07:32:58Z</time></trkpt>
<trkpt lat="26.828259" lon="100.120265">
<time>2016-10-07T07:32:59Z</time></trkpt>
<trkpt lat="26.828088" lon="100.119945">
<time>2016-10-07T07:33:00Z</time></trkpt>
<trkpt lat="26.827878" lon="100.119774">
<time>2016-10-07T07:33:01Z</time></trkpt>
<trkpt lat="26.827508" lon="100.119494">
<time>2016-10-07T07:33:02Z</time></trkpt>
<trkpt lat="26.827248" lon="100.119174">
<time>2016-10-07T07:33:03Z</time></trkpt>
<trkpt lat="26.827238" lon="100.119104">
<time>2016-10-07T07:33:04Z</time></trkpt>
<trkpt lat="26.827208" lon="100.119024">
<time>2016-10-07T07:33:05Z</time></trkpt>
<trkpt lat="26.827208" lon="100.119004">
<time>2016-10-07T07:33:06Z</time></trkpt>
<trkpt lat="26.827207" lon="100.118884">
<time>2016-10-07T07:33:07Z</time></trkpt>
<trkpt lat="26.827227" lon="100.118783">
<time>2016-10-07T07:33:08Z</time></trkpt>
<trkpt lat="26.827407" lon="100.118623">
<time>2016-10-07T07:33:09Z</time></trkpt>
<trkpt lat="26.827627" lon="100.118483">
<time>2016-10-07T07:33:10Z</time></trkpt>
<trkpt lat="26.827737" lon="100.118453">
<time>2016-10-07T07:33:11Z</time></trkpt>
<trkpt lat="26.827737" lon="100.118243">
<time>2016-10-07T07:33:12Z</time></trkpt>
<trkpt lat="26.827707" lon="100.117983">
<time>2016-10-07T07:33:13Z</time></trkpt>
<trkpt lat="26.827666" lon="100.117822">
<time>2016-10-07T07:33:14Z</time></trkpt>
<trkpt lat="26.827586" lon="100.117742">
<time>2016-10-07T07:33:15Z</time></trkpt>
<trkpt lat="26.827456" lon="100.117662">
<time>2016-10-07T07:33:16Z</time></trkpt>
<trkpt lat="26.827376" lon="100.117542">
<time>2016-10-07T07:33:17Z</time></trkpt>
<trkpt lat="26.827026" lon="100.117152">
<time>2016-10-07T07:33:18Z</time></trkpt>
<trkpt lat="26.826876" lon="100.116962">
<time>2016-10-07T07:33:19Z</time></trkpt>
<trkpt lat="26.826786" lon="100.116852">
<time>2016-10-07T07:33:20Z</time></trkpt>
<trkpt lat="26.826716" lon="100.116721">
<time>2016-10-07T07:33:21Z</time></trkpt>
<trkpt lat="26.826596" lon="100.116561">
<time>2016-10-07T07:33:22Z</time></trkpt>
<trkpt lat="26.826596" lon="100.116561">
<time>2016-10-07T07:33:23Z</time></trkpt>
<trkpt lat="26.826076" lon="100.116561">
<time>2016-10-07T07:33:24Z</time></trkpt>
<trkpt lat="26.825846" lon="100.116541">
<time>2016-10-07T07:33:25Z</time></trkpt>
<trkpt lat="26.825766" lon="100.116521">
<time>2016-10-07T07:33:26Z</time></trkpt>
<trkpt lat="26.825766" lon="100.116521">
<time>2016-10-07T07:33:27Z</time></trkpt>
<trkpt lat="26.825815" lon="100.116321">
<time>2016-10-07T07:33:28Z</time></trkpt>
<trkpt lat="26.825825" lon="100.116221">
<time>2016-10-07T07:33:29Z</time></trkpt>
<trkpt lat="26.825835" lon="100.116161">
<time>2016-10-07T07:33:30Z</time></trkpt>
<trkpt lat="26.825825" lon="100.116091">
<time>2016-10-07T07:33:31Z</time></trkpt>
<trkpt lat="26.825815" lon="100.116031">
<time>2016-10-07T07:33:32Z</time></trkpt>
<trkpt lat="26.825795" lon="100.116001">
<time>2016-10-07T07:33:33Z</time></trkpt>
<trkpt lat="26.825785" lon="100.115981">
<time>2016-10-07T07:33:34Z</time></trkpt>
<trkpt lat="26.825755" lon="100.115961">
<time>2016-10-07T07:33:35Z</time></trkpt>
<trkpt lat="26.825705" lon="100.115931">
<time>2016-10-07T07:33:36Z</time></trkpt>
<trkpt lat="26.825645" lon="100.115911">
<time>2016-10-07T07:33:37Z</time></trkpt>
<trkpt lat="26.825625" lon="100.115901">
<time>2016-10-07T07:33:38Z</time></trkpt>
<trkpt lat="26.825595" lon="100.115881">
<time>2016-10-07T07:33:39Z</time></trkpt>
<trkpt lat="26.825565" lon="100.115841">
<time>2016-10-07T07:33:40Z</time></trkpt>
<trkpt lat="26.825525" lon="100.115761">
<time>2016-10-07T07:33:41Z</time></trkpt>
<trkpt lat="26.825475" lon="100.11565">
<time>2016-10-07T07:33:42Z</time></trkpt>
<trkpt lat="26.825405" lon="100.11554">
<time>2016-10-07T07:33:43Z</time></trkpt>
<trkpt lat="26.825325" lon="100.11543">
<time>2016-10-07T07:33:44Z</time></trkpt>
<trkpt lat="26.825245" lon="100.1153">
<time>2016-10-07T07:33:45Z</time></trkpt>
<trkpt lat="26.824995" lon="100.11503">
<time>2016-10-07T07:33:46Z</time></trkpt>
<trkpt lat="26.824995" lon="100.11503">
<time>2016-10-07T07:33:47Z</time></trkpt>
<trkpt lat="26.825064" lon="100.114009">
<time>2016-10-07T07:33:48Z</time></trkpt>
<trkpt lat="26.825133" lon="100.112968">
<time>2016-10-07T07:33:49Z</time></trkpt>
<trkpt lat="26.825163" lon="100.112598">
<time>2016-10-07T07:33:50Z</time></trkpt>
<trkpt lat="26.825163" lon="100.112438">
<time>2016-10-07T07:33:51Z</time></trkpt>
<trkpt lat="26.825163" lon="100.112308">
<time>2016-10-07T07:33:52Z</time></trkpt>
<trkpt lat="26.825163" lon="100.112198">
<time>2016-10-07T07:33:53Z</time></trkpt>
<trkpt lat="26.825143" lon="100.112108">
<time>2016-10-07T07:33:54Z</time></trkpt>
<trkpt lat="26.825122" lon="100.112027">
<time>2016-10-07T07:33:55Z</time></trkpt>
<trkpt lat="26.825102" lon="100.111947">
<time>2016-10-07T07:33:56Z</time></trkpt>
<trkpt lat="26.825072" lon="100.111877">
<time>2016-10-07T07:33:57Z</time></trkpt>
<trkpt lat="26.825032" lon="100.111787">
<time>2016-10-07T07:33:58Z</time></trkpt>
<trkpt lat="26.824952" lon="100.111657">
<time>2016-10-07T07:33:59Z</time></trkpt>
<trkpt lat="26.824322" lon="100.110757">
<time>2016-10-07T07:34:00Z</time></trkpt>
<trkpt lat="26.823912" lon="100.110186">
<time>2016-10-07T07:34:01Z</time></trkpt>
<trkpt lat="26.823641" lon="100.109786">
<time>2016-10-07T07:34:02Z</time></trkpt>
<trkpt lat="26.823471" lon="100.109526">
<time>2016-10-07T07:34:03Z</time></trkpt>
<trkpt lat="26.823391" lon="100.109406">
<time>2016-10-07T07:34:04Z</time></trkpt>
<trkpt lat="26.823351" lon="100.109336">
<time>2016-10-07T07:34:05Z</time></trkpt>
<trkpt lat="26.823331" lon="100.109266">
<time>2016-10-07T07:34:06Z</time></trkpt>
<trkpt lat="26.823301" lon="100.109176">
<time>2016-10-07T07:34:07Z</time></trkpt>
<trkpt lat="26.823301" lon="100.109086">
<time>2016-10-07T07:34:08Z</time></trkpt>
<trkpt lat="26.823301" lon="100.108965">
<time>2016-10-07T07:34:09Z</time></trkpt>
<trkpt lat="26.823321" lon="100.108795">
<time>2016-10-07T07:34:10Z</time></trkpt>
<trkpt lat="26.823391" lon="100.108485">
<time>2016-10-07T07:34:11Z</time></trkpt>
<trkpt lat="26.823411" lon="100.108365">
<time>2016-10-07T07:34:12Z</time></trkpt>
<trkpt lat="26.823421" lon="100.108235">
<time>2016-10-07T07:34:13Z</time></trkpt>
<trkpt lat="26.823421" lon="100.108135">
<time>2016-10-07T07:34:14Z</time></trkpt>
<trkpt lat="26.823411" lon="100.108045">
<time>2016-10-07T07:34:15Z</time></trkpt>
<trkpt lat="26.8234" lon="100.107955">
<time>2016-10-07T07:34:16Z</time></trkpt>
<trkpt lat="26.82338" lon="100.107875">
<time>2016-10-07T07:34:17Z</time></trkpt>
<trkpt lat="26.82335" lon="100.107765">
<time>2016-10-07T07:34:18Z</time></trkpt>
<trkpt lat="26.82332" lon="100.107685">
<time>2016-10-07T07:34:19Z</time></trkpt>
<trkpt lat="26.82325" lon="100.107505">
<time>2016-10-07T07:34:20Z</time></trkpt>
<trkpt lat="26.82288" lon="100.106574">
<time>2016-10-07T07:34:21Z</time></trkpt>
<trkpt lat="26.82271" lon="100.106104">
<time>2016-10-07T07:34:22Z</time></trkpt>
<trkpt lat="26.82267" lon="100.106014">
<time>2016-10-07T07:34:23Z</time></trkpt>
<trkpt lat="26.82247" lon="100.105574">
<time>2016-10-07T07:34:24Z</time></trkpt>
<trkpt lat="26.822129" lon="100.104763">
<time>2016-10-07T07:34:25Z</time></trkpt>
<trkpt lat="26.821929" lon="100.104233">
<time>2016-10-07T07:34:26Z</time></trkpt>
<trkpt lat="26.821879" lon="100.104023">
<time>2016-10-07T07:34:27Z</time></trkpt>
<trkpt lat="26.821929" lon="100.103873">
<time>2016-10-07T07:34:28Z</time></trkpt>
<trkpt lat="26.822019" lon="100.103683">
<time>2016-10-07T07:34:29Z</time></trkpt>
<trkpt lat="26.822179" lon="100.103563">
<time>2016-10-07T07:34:30Z</time></trkpt>
<trkpt lat="26.822929" lon="100.102973">
<time>2016-10-07T07:34:31Z</time></trkpt>
<trkpt lat="26.824178" lon="100.102032">
<time>2016-10-07T07:34:32Z</time></trkpt>
<trkpt lat="26.824628" lon="100.101702">
<time>2016-10-07T07:34:33Z</time></trkpt>
<trkpt lat="26.824798" lon="100.101552">
<time>2016-10-07T07:34:34Z</time></trkpt>
<trkpt lat="26.825438" lon="100.100922">
<time>2016-10-07T07:34:35Z</time></trkpt>
<trkpt lat="26.825688" lon="100.100652">
<time>2016-10-07T07:34:36Z</time></trkpt>
<trkpt lat="26.825838" lon="100.100432">
<time>2016-10-07T07:34:37Z</time></trkpt>
<trkpt lat="26.825898" lon="100.100202">
<time>2016-10-07T07:34:38Z</time></trkpt>
<trkpt lat="26.825898" lon="100.099992">
<time>2016-10-07T07:34:39Z</time></trkpt>
<trkpt lat="26.825828" lon="100.099772">
<time>2016-10-07T07:34:40Z</time></trkpt>
<trkpt lat="26.825668" lon="100.099542">
<time>2016-10-07T07:34:41Z</time></trkpt>
<trkpt lat="26.824908" lon="100.098591">
<time>2016-10-07T07:34:42Z</time></trkpt>
<trkpt lat="26.824698" lon="100.098321">
<time>2016-10-07T07:34:43Z</time></trkpt>
<trkpt lat="26.824628" lon="100.098191">
<time>2016-10-07T07:34:44Z</time></trkpt>
<trkpt lat="26.824588" lon="100.098001">
<time>2016-10-07T07:34:45Z</time></trkpt>
<trkpt lat="26.824658" lon="100.097831">
<time>2016-10-07T07:34:46Z</time></trkpt>
<trkpt lat="26.824778" lon="100.097731">
<time>2016-10-07T07:34:47Z</time></trkpt>
<trkpt lat="26.824918" lon="100.097691">
<time>2016-10-07T07:34:48Z</time></trkpt>
<trkpt lat="26.825088" lon="100.097701">
<time>2016-10-07T07:34:49Z</time></trkpt>
<trkpt lat="26.825458" lon="100.097841">
<time>2016-10-07T07:34:50Z</time></trkpt>
<trkpt lat="26.825867" lon="100.097981">
<time>2016-10-07T07:34:51Z</time></trkpt>
<trkpt lat="26.826047" lon="100.098021">
<time>2016-10-07T07:34:52Z</time></trkpt>
<trkpt lat="26.826237" lon="100.098011">
<time>2016-10-07T07:34:53Z</time></trkpt>
<trkpt lat="26.826387" lon="100.097941">
<time>2016-10-07T07:34:54Z</time></trkpt>
<trkpt lat="26.826517" lon="100.097841">
<time>2016-10-07T07:34:55Z</time></trkpt>
<trkpt lat="26.826627" lon="100.097701">
<time>2016-10-07T07:34:56Z</time></trkpt>
<trkpt lat="26.826707" lon="100.097521">
<time>2016-10-07T07:34:57Z</time></trkpt>
<trkpt lat="26.826767" lon="100.097301">
<time>2016-10-07T07:34:58Z</time></trkpt>
<trkpt lat="26.826737" lon="100.097051">
<time>2016-10-07T07:34:59Z</time></trkpt>
<trkpt lat="26.826647" lon="100.096631">
<time>2016-10-07T07:35:00Z</time></trkpt>
<trkpt lat="26.826527" lon="100.096091">
<time>2016-10-07T07:35:01Z</time></trkpt>
<trkpt lat="26.826517" lon="100.095891">
<time>2016-10-07T07:35:02Z</time></trkpt>
<trkpt lat="26.826537" lon="100.095691">
<time>2016-10-07T07:35:03Z</time></trkpt>
<trkpt lat="26.826667" lon="100.095501">
<time>2016-10-07T07:35:04Z</time></trkpt>
<trkpt lat="26.827007" lon="100.095181">
<time>2016-10-07T07:35:05Z</time></trkpt>
<trkpt lat="26.827787" lon="100.094361">
<time>2016-10-07T07:35:06Z</time></trkpt>
<trkpt lat="26.828527" lon="100.093611">
<time>2016-10-07T07:35:07Z</time></trkpt>
<trkpt lat="26.828807" lon="100.093331">
<time>2016-10-07T07:35:08Z</time></trkpt>
<trkpt lat="26.829227" lon="100.093081">
<time>2016-10-07T07:35:09Z</time></trkpt>
<trkpt lat="26.829957" lon="100.092741">
<time>2016-10-07T07:35:10Z</time></trkpt>
<trkpt lat="26.832277" lon="100.091682">
<time>2016-10-07T07:35:11Z</time></trkpt>
<trkpt lat="26.833357" lon="100.091192">
<time>2016-10-07T07:35:12Z</time></trkpt>
<trkpt lat="26.833417" lon="100.091172">
<time>2016-10-07T07:35:13Z</time></trkpt>
<trkpt lat="26.833517" lon="100.091122">
<time>2016-10-07T07:35:14Z</time></trkpt>
<trkpt lat="26.833627" lon="100.091052">
<time>2016-10-07T07:35:15Z</time></trkpt>
<trkpt lat="26.833737" lon="100.090962">
<time>2016-10-07T07:35:16Z</time></trkpt>
<trkpt lat="26.833857" lon="100.090832">
<time>2016-10-07T07:35:17Z</time></trkpt>
<trkpt lat="26.833937" lon="100.090732">
<time>2016-10-07T07:35:18Z</time></trkpt>
<trkpt lat="26.834477" lon="100.089782">
<time>2016-10-07T07:35:19Z</time></trkpt>
<trkpt lat="26.835028" lon="100.088802">
<time>2016-10-07T07:35:20Z</time></trkpt>
<trkpt lat="26.835148" lon="100.088582">
<time>2016-10-07T07:35:21Z</time></trkpt>
<trkpt lat="26.835318" lon="100.088342">
<time>2016-10-07T07:35:22Z</time></trkpt>
<trkpt lat="26.835538" lon="100.088083">
<time>2016-10-07T07:35:23Z</time></trkpt>
<trkpt lat="26.836248" lon="100.087303">
<time>2016-10-07T07:35:24Z</time></trkpt>
<trkpt lat="26.836848" lon="100.086633">
<time>2016-10-07T07:35:25Z</time></trkpt>
<trkpt lat="26.837038" lon="100.086463">
<time>2016-10-07T07:35:26Z</time></trkpt>
<trkpt lat="26.837208" lon="100.086343">
<time>2016-10-07T07:35:27Z</time></trkpt>
<trkpt lat="26.838148" lon="100.085684">
<time>2016-10-07T07:35:28Z</time></trkpt>
<trkpt lat="26.839069" lon="100.085054">
<time>2016-10-07T07:35:29Z</time></trkpt>
<trkpt lat="26.839209" lon="100.084964">
<time>2016-10-07T07:35:30Z</time></trkpt>
<trkpt lat="26.839399" lon="100.084854">
<time>2016-10-07T07:35:31Z</time></trkpt>
<trkpt lat="26.839499" lon="100.084764">
<time>2016-10-07T07:35:32Z</time></trkpt>
<trkpt lat="26.839899" lon="100.084474">
<time>2016-10-07T07:35:33Z</time></trkpt>
<trkpt lat="26.840089" lon="100.084324">
<time>2016-10-07T07:35:34Z</time></trkpt>
<trkpt lat="26.840239" lon="100.084164">
<time>2016-10-07T07:35:35Z</time></trkpt>
<trkpt lat="26.840549" lon="100.083775">
<time>2016-10-07T07:35:36Z</time></trkpt>
<trkpt lat="26.840789" lon="100.083475">
<time>2016-10-07T07:35:37Z</time></trkpt>
<trkpt lat="26.840929" lon="100.083305">
<time>2016-10-07T07:35:38Z</time></trkpt>
<trkpt lat="26.841079" lon="100.083155">
<time>2016-10-07T07:35:39Z</time></trkpt>
<trkpt lat="26.841289" lon="100.082955">
<time>2016-10-07T07:35:40Z</time></trkpt>
<trkpt lat="26.84174" lon="100.082595">
<time>2016-10-07T07:35:41Z</time></trkpt>
<trkpt lat="26.84254" lon="100.081946">
<time>2016-10-07T07:35:42Z</time></trkpt>
<trkpt lat="26.84272" lon="100.081806">
<time>2016-10-07T07:35:43Z</time></trkpt>
<trkpt lat="26.84279" lon="100.081726">
<time>2016-10-07T07:35:44Z</time></trkpt>
<trkpt lat="26.84287" lon="100.081616">
<time>2016-10-07T07:35:45Z</time></trkpt>
<trkpt lat="26.84293" lon="100.081486">
<time>2016-10-07T07:35:46Z</time></trkpt>
<trkpt lat="26.84297" lon="100.081386">
<time>2016-10-07T07:35:47Z</time></trkpt>
<trkpt lat="26.84298" lon="100.081266">
<time>2016-10-07T07:35:48Z</time></trkpt>
<trkpt lat="26.84298" lon="100.081146">
<time>2016-10-07T07:35:49Z</time></trkpt>
<trkpt lat="26.84297" lon="100.081016">
<time>2016-10-07T07:35:50Z</time></trkpt>
<trkpt lat="26.842931" lon="100.080846">
<time>2016-10-07T07:35:51Z</time></trkpt>
<trkpt lat="26.842881" lon="100.080727">
<time>2016-10-07T07:35:52Z</time></trkpt>
<trkpt lat="26.842651" lon="100.080287">
<time>2016-10-07T07:35:53Z</time></trkpt>
<trkpt lat="26.842451" lon="100.079877">
<time>2016-10-07T07:35:54Z</time></trkpt>
<trkpt lat="26.842382" lon="100.079677">
<time>2016-10-07T07:35:55Z</time></trkpt>
<trkpt lat="26.842342" lon="100.079517">
<time>2016-10-07T07:35:56Z</time></trkpt>
<trkpt lat="26.842312" lon="100.079388">
<time>2016-10-07T07:35:57Z</time></trkpt>
<trkpt lat="26.842312" lon="100.079268">
<time>2016-10-07T07:35:58Z</time></trkpt>
<trkpt lat="26.842322" lon="100.079138">
<time>2016-10-07T07:35:59Z</time></trkpt>
<trkpt lat="26.842402" lon="100.078748">
<time>2016-10-07T07:36:00Z</time></trkpt>
<trkpt lat="26.842613" lon="100.077889">
<time>2016-10-07T07:36:01Z</time></trkpt>
<trkpt lat="26.842653" lon="100.077759">
<time>2016-10-07T07:36:02Z</time></trkpt>
<trkpt lat="26.842713" lon="100.077629">
<time>2016-10-07T07:36:03Z</time></trkpt>
<trkpt lat="26.842783" lon="100.077539">
<time>2016-10-07T07:36:04Z</time></trkpt>
<trkpt lat="26.842863" lon="100.077479">
<time>2016-10-07T07:36:05Z</time></trkpt>
<trkpt lat="26.842933" lon="100.077449">
<time>2016-10-07T07:36:06Z</time></trkpt>
<trkpt lat="26.843053" lon="100.077409">
<time>2016-10-07T07:36:07Z</time></trkpt>
<trkpt lat="26.843823" lon="100.077209">
<time>2016-10-07T07:36:08Z</time></trkpt>
<trkpt lat="26.844283" lon="100.07709">
<time>2016-10-07T07:36:09Z</time></trkpt>
<trkpt lat="26.844403" lon="100.07705">
<time>2016-10-07T07:36:10Z</time></trkpt>
<trkpt lat="26.844523" lon="100.07701">
<time>2016-10-07T07:36:11Z</time></trkpt>
<trkpt lat="26.844603" lon="100.07695">
<time>2016-10-07T07:36:12Z</time></trkpt>
<trkpt lat="26.844694" lon="100.07686">
<time>2016-10-07T07:36:13Z</time></trkpt>
<trkpt lat="26.844784" lon="100.07677">
<time>2016-10-07T07:36:14Z</time></trkpt>
<trkpt lat="26.844844" lon="100.07667">
<time>2016-10-07T07:36:15Z</time></trkpt>
<trkpt lat="26.844894" lon="100.07657">
<time>2016-10-07T07:36:16Z</time></trkpt>
<trkpt lat="26.844934" lon="100.07644">
<time>2016-10-07T07:36:17Z</time></trkpt>
<trkpt lat="26.845135" lon="100.075651">
<time>2016-10-07T07:36:18Z</time></trkpt>
<trkpt lat="26.845295" lon="100.074972">
<time>2016-10-07T07:36:19Z</time></trkpt>
<trkpt lat="26.845386" lon="100.074622">
<time>2016-10-07T07:36:20Z</time></trkpt>
<trkpt lat="26.845667" lon="100.073443">
<time>2016-10-07T07:36:21Z</time></trkpt>
<trkpt lat="26.845747" lon="100.073154">
<time>2016-10-07T07:36:22Z</time></trkpt>
<trkpt lat="26.845767" lon="100.073014">
<time>2016-10-07T07:36:23Z</time></trkpt>
<trkpt lat="26.845787" lon="100.072874">
<time>2016-10-07T07:36:24Z</time></trkpt>
<trkpt lat="26.845787" lon="100.072764">
<time>2016-10-07T07:36:25Z</time></trkpt>
<trkpt lat="26.845787" lon="100.072664">
<time>2016-10-07T07:36:26Z</time></trkpt>
<trkpt lat="26.845758" lon="100.072494">
<time>2016-10-07T07:36:27Z</time></trkpt>
<trkpt lat="26.845589" lon="100.071625">
<time>2016-10-07T07:36:28Z</time></trkpt>
<trkpt lat="26.845529" lon="100.071316">
<time>2016-10-07T07:36:29Z</time></trkpt>
<trkpt lat="26.845509" lon="100.071116">
<time>2016-10-07T07:36:30Z</time></trkpt>
<trkpt lat="26.84551" lon="100.070896">
<time>2016-10-07T07:36:31Z</time></trkpt>
<trkpt lat="26.84552" lon="100.070707">
<time>2016-10-07T07:36:32Z</time></trkpt>
<trkpt lat="26.84557" lon="100.070377">
<time>2016-10-07T07:36:33Z</time></trkpt>
<trkpt lat="26.845771" lon="100.069338">
<time>2016-10-07T07:36:34Z</time></trkpt>
<trkpt lat="26.845922" lon="100.068529">
<time>2016-10-07T07:36:35Z</time></trkpt>
<trkpt lat="26.845973" lon="100.06822">
<time>2016-10-07T07:36:36Z</time></trkpt>
<trkpt lat="26.845993" lon="100.06795">
<time>2016-10-07T07:36:37Z</time></trkpt>
<trkpt lat="26.845993" lon="100.06775">
<time>2016-10-07T07:36:38Z</time></trkpt>
<trkpt lat="26.845983" lon="100.067621">
<time>2016-10-07T07:36:39Z</time></trkpt>
<trkpt lat="26.845974" lon="100.067481">
<time>2016-10-07T07:36:40Z</time></trkpt>
<trkpt lat="26.845964" lon="100.067371">
<time>2016-10-07T07:36:41Z</time></trkpt>
<trkpt lat="26.845924" lon="100.067251">
<time>2016-10-07T07:36:42Z</time></trkpt>
<trkpt lat="26.845765" lon="100.066622">
<time>2016-10-07T07:36:43Z</time></trkpt>
<trkpt lat="26.845566" lon="100.065843">
<time>2016-10-07T07:36:44Z</time></trkpt>
<trkpt lat="26.845516" lon="100.065614">
<time>2016-10-07T07:36:45Z</time></trkpt>
<trkpt lat="26.845497" lon="100.065444">
<time>2016-10-07T07:36:46Z</time></trkpt>
<trkpt lat="26.845487" lon="100.065264">
<time>2016-10-07T07:36:47Z</time></trkpt>
<trkpt lat="26.845497" lon="100.065114">
<time>2016-10-07T07:36:48Z</time></trkpt>
<trkpt lat="26.845537" lon="100.064875">
<time>2016-10-07T07:36:49Z</time></trkpt>
<trkpt lat="26.845598" lon="100.064715">
<time>2016-10-07T07:36:50Z</time></trkpt>
<trkpt lat="26.845708" lon="100.064495">
<time>2016-10-07T07:36:51Z</time></trkpt>
<trkpt lat="26.845808" lon="100.064345">
<time>2016-10-07T07:36:52Z</time></trkpt>
<trkpt lat="26.845888" lon="100.064236">
<time>2016-10-07T07:36:53Z</time></trkpt>
<trkpt lat="26.845978" lon="100.064136">
<time>2016-10-07T07:36:54Z</time></trkpt>
<trkpt lat="26.846849" lon="100.063307">
<time>2016-10-07T07:36:55Z</time></trkpt>
<trkpt lat="26.84713" lon="100.063057">
<time>2016-10-07T07:36:56Z</time></trkpt>
<trkpt lat="26.84725" lon="100.062928">
<time>2016-10-07T07:36:57Z</time></trkpt>
<trkpt lat="26.84736" lon="100.062788">
<time>2016-10-07T07:36:58Z</time></trkpt>
<trkpt lat="26.847641" lon="100.062289">
<time>2016-10-07T07:36:59Z</time></trkpt>
<trkpt lat="26.848012" lon="100.0615">
<time>2016-10-07T07:37:00Z</time></trkpt>
<trkpt lat="26.848162" lon="100.061151">
<time>2016-10-07T07:37:01Z</time></trkpt>
<trkpt lat="26.848213" lon="100.060961">
<time>2016-10-07T07:37:02Z</time></trkpt>
<trkpt lat="26.848263" lon="100.060811">
<time>2016-10-07T07:37:03Z</time></trkpt>
<trkpt lat="26.848303" lon="100.060622">
<time>2016-10-07T07:37:04Z</time></trkpt>
<trkpt lat="26.848485" lon="100.059324">
<time>2016-10-07T07:37:05Z</time></trkpt>
<trkpt lat="26.848587" lon="100.058555">
<time>2016-10-07T07:37:06Z</time></trkpt>
<trkpt lat="26.848637" lon="100.058256">
<time>2016-10-07T07:37:07Z</time></trkpt>
<trkpt lat="26.848687" lon="100.058066">
<time>2016-10-07T07:37:08Z</time></trkpt>
<trkpt lat="26.848748" lon="100.057926">
<time>2016-10-07T07:37:09Z</time></trkpt>
<trkpt lat="26.848828" lon="100.057767">
<time>2016-10-07T07:37:10Z</time></trkpt>
<trkpt lat="26.848928" lon="100.057627">
<time>2016-10-07T07:37:11Z</time></trkpt>
<trkpt lat="26.849048" lon="100.057487">
<time>2016-10-07T07:37:12Z</time></trkpt>
<trkpt lat="26.849179" lon="100.057357">
<time>2016-10-07T07:37:13Z</time></trkpt>
<trkpt lat="26.849309" lon="100.057268">
<time>2016-10-07T07:37:14Z</time></trkpt>
<trkpt lat="26.85038" lon="100.056509">
<time>2016-10-07T07:37:15Z</time></trkpt>
<trkpt lat="26.851541" lon="100.055671">
<time>2016-10-07T07:37:16Z</time></trkpt>
<trkpt lat="26.852402" lon="100.055072">
<time>2016-10-07T07:37:17Z</time></trkpt>
<trkpt lat="26.852582" lon="100.054932">
<time>2016-10-07T07:37:18Z</time></trkpt>
<trkpt lat="26.852713" lon="100.054812">
<time>2016-10-07T07:37:19Z</time></trkpt>
<trkpt lat="26.852843" lon="100.054643">
<time>2016-10-07T07:37:20Z</time></trkpt>
<trkpt lat="26.852943" lon="100.054423">
<time>2016-10-07T07:37:21Z</time></trkpt>
<trkpt lat="26.853003" lon="100.054283">
<time>2016-10-07T07:37:22Z</time></trkpt>
<trkpt lat="26.853326" lon="100.052986">
<time>2016-10-07T07:37:23Z</time></trkpt>
<trkpt lat="26.853487" lon="100.052317">
<time>2016-10-07T07:37:24Z</time></trkpt>
<trkpt lat="26.853528" lon="100.052078">
<time>2016-10-07T07:37:25Z</time></trkpt>
<trkpt lat="26.853558" lon="100.051769">
<time>2016-10-07T07:37:26Z</time></trkpt>
<trkpt lat="26.853579" lon="100.051429">
<time>2016-10-07T07:37:27Z</time></trkpt>
<trkpt lat="26.853621" lon="100.050441">
<time>2016-10-07T07:37:28Z</time></trkpt>
<trkpt lat="26.853632" lon="100.049873">
<time>2016-10-07T07:37:29Z</time></trkpt>
<trkpt lat="26.853643" lon="100.049603">
<time>2016-10-07T07:37:30Z</time></trkpt>
<trkpt lat="26.853663" lon="100.049414">
<time>2016-10-07T07:37:31Z</time></trkpt>
<trkpt lat="26.853693" lon="100.049234">
<time>2016-10-07T07:37:32Z</time></trkpt>
<trkpt lat="26.853734" lon="100.049064">
<time>2016-10-07T07:37:33Z</time></trkpt>
<trkpt lat="26.853794" lon="100.048885">
<time>2016-10-07T07:37:34Z</time></trkpt>
<trkpt lat="26.854065" lon="100.048236">
<time>2016-10-07T07:37:35Z</time></trkpt>
<trkpt lat="26.854467" lon="100.047298">
<time>2016-10-07T07:37:36Z</time></trkpt>
<trkpt lat="26.854578" lon="100.047059">
<time>2016-10-07T07:37:37Z</time></trkpt>
<trkpt lat="26.854678" lon="100.046859">
<time>2016-10-07T07:37:38Z</time></trkpt>
<trkpt lat="26.854758" lon="100.04674">
<time>2016-10-07T07:37:39Z</time></trkpt>
<trkpt lat="26.854848" lon="100.04666">
<time>2016-10-07T07:37:40Z</time></trkpt>
<trkpt lat="26.854929" lon="100.04659">
<time>2016-10-07T07:37:41Z</time></trkpt>
<trkpt lat="26.854989" lon="100.04656">
<time>2016-10-07T07:37:42Z</time></trkpt>
<trkpt lat="26.855069" lon="100.04651">
<time>2016-10-07T07:37:43Z</time></trkpt>
<trkpt lat="26.855389" lon="100.04639">
<time>2016-10-07T07:37:44Z</time></trkpt>
<trkpt lat="26.855919" lon="100.046201">
<time>2016-10-07T07:37:45Z</time></trkpt>
<trkpt lat="26.856009" lon="100.046171">
<time>2016-10-07T07:37:46Z</time></trkpt>
<trkpt lat="26.856079" lon="100.046131">
<time>2016-10-07T07:37:47Z</time></trkpt>
<trkpt lat="26.856159" lon="100.046071">
<time>2016-10-07T07:37:48Z</time></trkpt>
<trkpt lat="26.85622" lon="100.046001">
<time>2016-10-07T07:37:49Z</time></trkpt>
<trkpt lat="26.85627" lon="100.045932">
<time>2016-10-07T07:37:50Z</time></trkpt>
<trkpt lat="26.85632" lon="100.045842">
<time>2016-10-07T07:37:51Z</time></trkpt>
<trkpt lat="26.85636" lon="100.045762">
<time>2016-10-07T07:37:52Z</time></trkpt>
<trkpt lat="26.856411" lon="100.045552">
<time>2016-10-07T07:37:53Z</time></trkpt>
<trkpt lat="26.856612" lon="100.044884">
<time>2016-10-07T07:37:54Z</time></trkpt>
<trkpt lat="26.856713" lon="100.044575">
<time>2016-10-07T07:37:55Z</time></trkpt>
<trkpt lat="26.856783" lon="100.044395">
<time>2016-10-07T07:37:56Z</time></trkpt>
<trkpt lat="26.856853" lon="100.044285">
<time>2016-10-07T07:37:57Z</time></trkpt>
<trkpt lat="26.856913" lon="100.044216">
<time>2016-10-07T07:37:58Z</time></trkpt>
<trkpt lat="26.856984" lon="100.044156">
<time>2016-10-07T07:37:59Z</time></trkpt>
<trkpt lat="26.857044" lon="100.044126">
<time>2016-10-07T07:38:00Z</time></trkpt>
<trkpt lat="26.857124" lon="100.044096">
<time>2016-10-07T07:38:01Z</time></trkpt>
<trkpt lat="26.857204" lon="100.044076">
<time>2016-10-07T07:38:02Z</time></trkpt>
<trkpt lat="26.857294" lon="100.044076">
<time>2016-10-07T07:38:03Z</time></trkpt>
<trkpt lat="26.857394" lon="100.044076">
<time>2016-10-07T07:38:04Z</time></trkpt>
<trkpt lat="26.857644" lon="100.044116">
<time>2016-10-07T07:38:05Z</time></trkpt>
<trkpt lat="26.857933" lon="100.044186">
<time>2016-10-07T07:38:06Z</time></trkpt>
<trkpt lat="26.858253" lon="100.044256">
<time>2016-10-07T07:38:07Z</time></trkpt>
<trkpt lat="26.859123" lon="100.044435">
<time>2016-10-07T07:38:08Z</time></trkpt>
<trkpt lat="26.860652" lon="100.044744">
<time>2016-10-07T07:38:09Z</time></trkpt>
<trkpt lat="26.861621" lon="100.044944">
<time>2016-10-07T07:38:10Z</time></trkpt>
<trkpt lat="26.861911" lon="100.044994">
<time>2016-10-07T07:38:11Z</time></trkpt>
<trkpt lat="26.862001" lon="100.045014">
<time>2016-10-07T07:38:12Z</time></trkpt>
<trkpt lat="26.862101" lon="100.044994">
<time>2016-10-07T07:38:13Z</time></trkpt>
<trkpt lat="26.862181" lon="100.044964">
<time>2016-10-07T07:38:14Z</time></trkpt>
<trkpt lat="26.862261" lon="100.044904">
<time>2016-10-07T07:38:15Z</time></trkpt>
<trkpt lat="26.862331" lon="100.044824">
<time>2016-10-07T07:38:16Z</time></trkpt>
<trkpt lat="26.862371" lon="100.044744">
<time>2016-10-07T07:38:17Z</time></trkpt>
<trkpt lat="26.862391" lon="100.044654">
<time>2016-10-07T07:38:18Z</time></trkpt>
<trkpt lat="26.862392" lon="100.044565">
<time>2016-10-07T07:38:19Z</time></trkpt>
<trkpt lat="26.862382" lon="100.044455">
<time>2016-10-07T07:38:20Z</time></trkpt>
<trkpt lat="26.862342" lon="100.044365">
<time>2016-10-07T07:38:21Z</time></trkpt>
<trkpt lat="26.862282" lon="100.044265">
<time>2016-10-07T07:38:22Z</time></trkpt>
<trkpt lat="26.862203" lon="100.044186">
<time>2016-10-07T07:38:23Z</time></trkpt>
<trkpt lat="26.862073" lon="100.044086">
<time>2016-10-07T07:38:24Z</time></trkpt>
<trkpt lat="26.861584" lon="100.043687">
<time>2016-10-07T07:38:25Z</time></trkpt>
<trkpt lat="26.861125" lon="100.043288">
<time>2016-10-07T07:38:26Z</time></trkpt>
<trkpt lat="26.860955" lon="100.043158">
<time>2016-10-07T07:38:27Z</time></trkpt>
<trkpt lat="26.860805" lon="100.043058">
<time>2016-10-07T07:38:28Z</time></trkpt>
<trkpt lat="26.860666" lon="100.042949">
<time>2016-10-07T07:38:29Z</time></trkpt>
<trkpt lat="26.860346" lon="100.042749">
<time>2016-10-07T07:38:30Z</time></trkpt>
<trkpt lat="26.859418" lon="100.042201">
<time>2016-10-07T07:38:31Z</time></trkpt>
<trkpt lat="26.859128" lon="100.042001">
<time>2016-10-07T07:38:32Z</time></trkpt>
<trkpt lat="26.858958" lon="100.041871">
<time>2016-10-07T07:38:33Z</time></trkpt>
<trkpt lat="26.85838" lon="100.041353">
<time>2016-10-07T07:38:34Z</time></trkpt>
<trkpt lat="26.85812" lon="100.041113">
<time>2016-10-07T07:38:35Z</time></trkpt>
<trkpt lat="26.857921" lon="100.040904">
<time>2016-10-07T07:38:36Z</time></trkpt>
<trkpt lat="26.857841" lon="100.040794">
<time>2016-10-07T07:38:37Z</time></trkpt>
<trkpt lat="26.857791" lon="100.040684">
<time>2016-10-07T07:38:38Z</time></trkpt>
<trkpt lat="26.857772" lon="100.040585">
<time>2016-10-07T07:38:39Z</time></trkpt>
<trkpt lat="26.857772" lon="100.040475">
<time>2016-10-07T07:38:40Z</time></trkpt>
<trkpt lat="26.857792" lon="100.040365">
<time>2016-10-07T07:38:41Z</time></trkpt>
<trkpt lat="26.857842" lon="100.040285">
<time>2016-10-07T07:38:42Z</time></trkpt>
<trkpt lat="26.857912" lon="100.040216">
<time>2016-10-07T07:38:43Z</time></trkpt>
<trkpt lat="26.857983" lon="100.040166">
<time>2016-10-07T07:38:44Z</time></trkpt>
<trkpt lat="26.858073" lon="100.040146">
<time>2016-10-07T07:38:45Z</time></trkpt>
<trkpt lat="26.858143" lon="100.040146">
<time>2016-10-07T07:38:46Z</time></trkpt>
<trkpt lat="26.858203" lon="100.040146">
<time>2016-10-07T07:38:47Z</time></trkpt>
<trkpt lat="26.858292" lon="100.040156">
<time>2016-10-07T07:38:48Z</time></trkpt>
<trkpt lat="26.858372" lon="100.040176">
<time>2016-10-07T07:38:49Z</time></trkpt>
<trkpt lat="26.859112" lon="100.040365">
<time>2016-10-07T07:38:50Z</time></trkpt>
<trkpt lat="26.859791" lon="100.040565">
<time>2016-10-07T07:38:51Z</time></trkpt>
<trkpt lat="26.860121" lon="100.040634">
<time>2016-10-07T07:38:52Z</time></trkpt>
<trkpt lat="26.860371" lon="100.040664">
<time>2016-10-07T07:38:53Z</time></trkpt>
<trkpt lat="26.860641" lon="100.040674">
<time>2016-10-07T07:38:54Z</time></trkpt>
<trkpt lat="26.860841" lon="100.040654">
<time>2016-10-07T07:38:55Z</time></trkpt>
<trkpt lat="26.861001" lon="100.040634">
<time>2016-10-07T07:38:56Z</time></trkpt>
<trkpt lat="26.861201" lon="100.040595">
<time>2016-10-07T07:38:57Z</time></trkpt>
<trkpt lat="26.861381" lon="100.040525">
<time>2016-10-07T07:38:58Z</time></trkpt>
<trkpt lat="26.861581" lon="100.040445">
<time>2016-10-07T07:38:59Z</time></trkpt>
<trkpt lat="26.861791" lon="100.040335">
<time>2016-10-07T07:39:00Z</time></trkpt>
<trkpt lat="26.862162" lon="100.040136">
<time>2016-10-07T07:39:01Z</time></trkpt>
<trkpt lat="26.862342" lon="100.040016">
<time>2016-10-07T07:39:02Z</time></trkpt>
<trkpt lat="26.862552" lon="100.039906">
<time>2016-10-07T07:39:03Z</time></trkpt>
<trkpt lat="26.862903" lon="100.039707">
<time>2016-10-07T07:39:04Z</time></trkpt>
<trkpt lat="26.863033" lon="100.039617">
<time>2016-10-07T07:39:05Z</time></trkpt>
<trkpt lat="26.863173" lon="100.039517">
<time>2016-10-07T07:39:06Z</time></trkpt>
<trkpt lat="26.863293" lon="100.039398">
<time>2016-10-07T07:39:07Z</time></trkpt>
<trkpt lat="26.863384" lon="100.039298">
<time>2016-10-07T07:39:08Z</time></trkpt>
<trkpt lat="26.863544" lon="100.039049">
<time>2016-10-07T07:39:09Z</time></trkpt>
<trkpt lat="26.863695" lon="100.038809">
<time>2016-10-07T07:39:10Z</time></trkpt>
<trkpt lat="26.863785" lon="100.038679">
<time>2016-10-07T07:39:11Z</time></trkpt>
<trkpt lat="26.863915" lon="100.03849">
<time>2016-10-07T07:39:12Z</time></trkpt>
<trkpt lat="26.863976" lon="100.03837">
<time>2016-10-07T07:39:13Z</time></trkpt>
<trkpt lat="26.864026" lon="100.038261">
<time>2016-10-07T07:39:14Z</time></trkpt>
<trkpt lat="26.864046" lon="100.038161">
<time>2016-10-07T07:39:15Z</time></trkpt>
<trkpt lat="26.864036" lon="100.038061">
<time>2016-10-07T07:39:16Z</time></trkpt>
<trkpt lat="26.864037" lon="100.037951">
<time>2016-10-07T07:39:17Z</time></trkpt>
<trkpt lat="26.864007" lon="100.037842">
<time>2016-10-07T07:39:18Z</time></trkpt>
<trkpt lat="26.863878" lon="100.037433">
<time>2016-10-07T07:39:19Z</time></trkpt>
<trkpt lat="26.863779" lon="100.037114">
<time>2016-10-07T07:39:20Z</time></trkpt>
<trkpt lat="26.86364" lon="100.036755">
<time>2016-10-07T07:39:21Z</time></trkpt>
<trkpt lat="26.86358" lon="100.036615">
<time>2016-10-07T07:39:22Z</time></trkpt>
<trkpt lat="26.86352" lon="100.036515">
<time>2016-10-07T07:39:23Z</time></trkpt>
<trkpt lat="26.863461" lon="100.036435">
<time>2016-10-07T07:39:24Z</time></trkpt>
<trkpt lat="26.863371" lon="100.036336">
<time>2016-10-07T07:39:25Z</time></trkpt>
<trkpt lat="26.863221" lon="100.036196">
<time>2016-10-07T07:39:26Z</time></trkpt>
<trkpt lat="26.862792" lon="100.035767">
<time>2016-10-07T07:39:27Z</time></trkpt>
<trkpt lat="26.862693" lon="100.035688">
<time>2016-10-07T07:39:28Z</time></trkpt>
<trkpt lat="26.862623" lon="100.035628">
<time>2016-10-07T07:39:29Z</time></trkpt>
<trkpt lat="26.862553" lon="100.035598">
<time>2016-10-07T07:39:30Z</time></trkpt>
<trkpt lat="26.862493" lon="100.035578">
<time>2016-10-07T07:39:31Z</time></trkpt>
<trkpt lat="26.862423" lon="100.035558">
<time>2016-10-07T07:39:32Z</time></trkpt>
<trkpt lat="26.862363" lon="100.035558">
<time>2016-10-07T07:39:33Z</time></trkpt>
<trkpt lat="26.862293" lon="100.035558">
<time>2016-10-07T07:39:34Z</time></trkpt>
<trkpt lat="26.862193" lon="100.035578">
<time>2016-10-07T07:39:35Z</time></trkpt>
<trkpt lat="26.862113" lon="100.035628">
<time>2016-10-07T07:39:36Z</time></trkpt>
<trkpt lat="26.862033" lon="100.035688">
<time>2016-10-07T07:39:37Z</time></trkpt>
<trkpt lat="26.861953" lon="100.035767">
<time>2016-10-07T07:39:38Z</time></trkpt>
<trkpt lat="26.861832" lon="100.035897">
<time>2016-10-07T07:39:39Z</time></trkpt>
<trkpt lat="26.861762" lon="100.035967">
<time>2016-10-07T07:39:40Z</time></trkpt>
<trkpt lat="26.861692" lon="100.036017">
<time>2016-10-07T07:39:41Z</time></trkpt>
<trkpt lat="26.861622" lon="100.036047">
<time>2016-10-07T07:39:42Z</time></trkpt>
<trkpt lat="26.861562" lon="100.036057">
<time>2016-10-07T07:39:43Z</time></trkpt>
<trkpt lat="26.861502" lon="100.036067">
<time>2016-10-07T07:39:44Z</time></trkpt>
<trkpt lat="26.861432" lon="100.036057">
<time>2016-10-07T07:39:45Z</time></trkpt>
<trkpt lat="26.861352" lon="100.036037">
<time>2016-10-07T07:39:46Z</time></trkpt>
<trkpt lat="26.861282" lon="100.035987">
<time>2016-10-07T07:39:47Z</time></trkpt>
<trkpt lat="26.861192" lon="100.035937">
<time>2016-10-07T07:39:48Z</time></trkpt>
<trkpt lat="26.860714" lon="100.035408">
<time>2016-10-07T07:39:49Z</time></trkpt>
<trkpt lat="26.860584" lon="100.035259">
<time>2016-10-07T07:39:50Z</time></trkpt>
<trkpt lat="26.860464" lon="100.035149">
<time>2016-10-07T07:39:51Z</time></trkpt>
<trkpt lat="26.860345" lon="100.035059">
<time>2016-10-07T07:39:52Z</time></trkpt>
<trkpt lat="26.860245" lon="100.034989">
<time>2016-10-07T07:39:53Z</time></trkpt>
<trkpt lat="26.860115" lon="100.03491">
<time>2016-10-07T07:39:54Z</time></trkpt>
<trkpt lat="26.859945" lon="100.03483">
<time>2016-10-07T07:39:55Z</time></trkpt>
<trkpt lat="26.859226" lon="100.034531">
<time>2016-10-07T07:39:56Z</time></trkpt>
<trkpt lat="26.859026" lon="100.034431">
<time>2016-10-07T07:39:57Z</time></trkpt>
<trkpt lat="26.858937" lon="100.034371">
<time>2016-10-07T07:39:58Z</time></trkpt>
<trkpt lat="26.858847" lon="100.034291">
<time>2016-10-07T07:39:59Z</time></trkpt>
<trkpt lat="26.858767" lon="100.034202">
<time>2016-10-07T07:40:00Z</time></trkpt>
<trkpt lat="26.858598" lon="100.033922">
<time>2016-10-07T07:40:01Z</time></trkpt>
<trkpt lat="26.858468" lon="100.033683">
<time>2016-10-07T07:40:02Z</time></trkpt>
<trkpt lat="26.858319" lon="100.033374">
<time>2016-10-07T07:40:03Z</time></trkpt>
<trkpt lat="26.858289" lon="100.033264">
<time>2016-10-07T07:40:04Z</time></trkpt>
<trkpt lat="26.85828" lon="100.033165">
<time>2016-10-07T07:40:05Z</time></trkpt>
<trkpt lat="26.85831" lon="100.033065">
<time>2016-10-07T07:40:06Z</time></trkpt>
<trkpt lat="26.85835" lon="100.032975">
<time>2016-10-07T07:40:07Z</time></trkpt>
<trkpt lat="26.85841" lon="100.032925">
<time>2016-10-07T07:40:08Z</time></trkpt>
<trkpt lat="26.85847" lon="100.032885">
<time>2016-10-07T07:40:09Z</time></trkpt>
<trkpt lat="26.85855" lon="100.032865">
<time>2016-10-07T07:40:10Z</time></trkpt>
<trkpt lat="26.85863" lon="100.032855">
<time>2016-10-07T07:40:11Z</time></trkpt>
<trkpt lat="26.85885" lon="100.032855">
<time>2016-10-07T07:40:12Z</time></trkpt>
<trkpt lat="26.8591" lon="100.032855">
<time>2016-10-07T07:40:13Z</time></trkpt>
<trkpt lat="26.85968" lon="100.032855">
<time>2016-10-07T07:40:14Z</time></trkpt>
<trkpt lat="26.86004" lon="100.032865">
<time>2016-10-07T07:40:15Z</time></trkpt>
<trkpt lat="26.86025" lon="100.032875">
<time>2016-10-07T07:40:16Z</time></trkpt>
<trkpt lat="26.8608" lon="100.032865">
<time>2016-10-07T07:40:17Z</time></trkpt>
<trkpt lat="26.86111" lon="100.032885">
<time>2016-10-07T07:40:18Z</time></trkpt>
<trkpt lat="26.86121" lon="100.032895">
<time>2016-10-07T07:40:19Z</time></trkpt>
<trkpt lat="26.86135" lon="100.032935">
<time>2016-10-07T07:40:20Z</time></trkpt>
<trkpt lat="26.86153" lon="100.033025">
<time>2016-10-07T07:40:21Z</time></trkpt>
<trkpt lat="26.862069" lon="100.033264">
<time>2016-10-07T07:40:22Z</time></trkpt>
<trkpt lat="26.862548" lon="100.033484">
<time>2016-10-07T07:40:23Z</time></trkpt>
<trkpt lat="26.862788" lon="100.033583">
<time>2016-10-07T07:40:24Z</time></trkpt>
<trkpt lat="26.862888" lon="100.033613">
<time>2016-10-07T07:40:25Z</time></trkpt>
<trkpt lat="26.863008" lon="100.033643">
<time>2016-10-07T07:40:26Z</time></trkpt>
<trkpt lat="26.863128" lon="100.033643">
<time>2016-10-07T07:40:27Z</time></trkpt>
<trkpt lat="26.863268" lon="100.033623">
<time>2016-10-07T07:40:28Z</time></trkpt>
<trkpt lat="26.863388" lon="100.033583">
<time>2016-10-07T07:40:29Z</time></trkpt>
<trkpt lat="26.863498" lon="100.033513">
<time>2016-10-07T07:40:30Z</time></trkpt>
<trkpt lat="26.863618" lon="100.033404">
<time>2016-10-07T07:40:31Z</time></trkpt>
<trkpt lat="26.863698" lon="100.033274">
<time>2016-10-07T07:40:32Z</time></trkpt>
<trkpt lat="26.863749" lon="100.033164">
<time>2016-10-07T07:40:33Z</time></trkpt>
<trkpt lat="26.863779" lon="100.033025">
<time>2016-10-07T07:40:34Z</time></trkpt>
<trkpt lat="26.863799" lon="100.032905">
<time>2016-10-07T07:40:35Z</time></trkpt>
<trkpt lat="26.86379" lon="100.032786">
<time>2016-10-07T07:40:36Z</time></trkpt>
<trkpt lat="26.86378" lon="100.032666">
<time>2016-10-07T07:40:37Z</time></trkpt>
<trkpt lat="26.86374" lon="100.032526">
<time>2016-10-07T07:40:38Z</time></trkpt>
<trkpt lat="26.863691" lon="100.032397">
<time>2016-10-07T07:40:39Z</time></trkpt>
<trkpt lat="26.863611" lon="100.032287">
<time>2016-10-07T07:40:40Z</time></trkpt>
<trkpt lat="26.863531" lon="100.032197">
<time>2016-10-07T07:40:41Z</time></trkpt>
<trkpt lat="26.863441" lon="100.032127">
<time>2016-10-07T07:40:42Z</time></trkpt>
<trkpt lat="26.863352" lon="100.032068">
<time>2016-10-07T07:40:43Z</time></trkpt>
<trkpt lat="26.863032" lon="100.031918">
<time>2016-10-07T07:40:44Z</time></trkpt>
<trkpt lat="26.862633" lon="100.031748">
<time>2016-10-07T07:40:45Z</time></trkpt>
<trkpt lat="26.862203" lon="100.031549">
<time>2016-10-07T07:40:46Z</time></trkpt>
<trkpt lat="26.861834" lon="100.03136">
<time>2016-10-07T07:40:47Z</time></trkpt>
<trkpt lat="26.861754" lon="100.0313">
<time>2016-10-07T07:40:48Z</time></trkpt>
<trkpt lat="26.861694" lon="100.0312">
<time>2016-10-07T07:40:49Z</time></trkpt>
<trkpt lat="26.861674" lon="100.0311">
<time>2016-10-07T07:40:50Z</time></trkpt>
<trkpt lat="26.861685" lon="100.031001">
<time>2016-10-07T07:40:51Z</time></trkpt>
<trkpt lat="26.861725" lon="100.030921">
<time>2016-10-07T07:40:52Z</time></trkpt>
<trkpt lat="26.861785" lon="100.030861">
<time>2016-10-07T07:40:53Z</time></trkpt>
<trkpt lat="26.861865" lon="100.030841">
<time>2016-10-07T07:40:54Z</time></trkpt>
<trkpt lat="26.861935" lon="100.030831">
<time>2016-10-07T07:40:55Z</time></trkpt>
<trkpt lat="26.861995" lon="100.030841">
<time>2016-10-07T07:40:56Z</time></trkpt>
<trkpt lat="26.862085" lon="100.030871">
<time>2016-10-07T07:40:57Z</time></trkpt>
<trkpt lat="26.862205" lon="100.030911">
<time>2016-10-07T07:40:58Z</time></trkpt>
<trkpt lat="26.862664" lon="100.03107">
<time>2016-10-07T07:40:59Z</time></trkpt>
<trkpt lat="26.863234" lon="100.03127">
<time>2016-10-07T07:41:00Z</time></trkpt>
<trkpt lat="26.863463" lon="100.03136">
<time>2016-10-07T07:41:01Z</time></trkpt>
<trkpt lat="26.863713" lon="100.031449">
<time>2016-10-07T07:41:02Z</time></trkpt>
<trkpt lat="26.863863" lon="100.031519">
<time>2016-10-07T07:41:03Z</time></trkpt>
<trkpt lat="26.863973" lon="100.031589">
<time>2016-10-07T07:41:04Z</time></trkpt>
<trkpt lat="26.864083" lon="100.031659">
<time>2016-10-07T07:41:05Z</time></trkpt>
<trkpt lat="26.864162" lon="100.031748">
<time>2016-10-07T07:41:06Z</time></trkpt>
<trkpt lat="26.864242" lon="100.031838">
<time>2016-10-07T07:41:07Z</time></trkpt>
<trkpt lat="26.864322" lon="100.031978">
<time>2016-10-07T07:41:08Z</time></trkpt>
<trkpt lat="26.864381" lon="100.032137">
<time>2016-10-07T07:41:09Z</time></trkpt>
<trkpt lat="26.864451" lon="100.032317">
<time>2016-10-07T07:41:10Z</time></trkpt>
<trkpt lat="26.864639" lon="100.032885">
<time>2016-10-07T07:41:11Z</time></trkpt>
<trkpt lat="26.864679" lon="100.033055">
<time>2016-10-07T07:41:12Z</time></trkpt>
<trkpt lat="26.864699" lon="100.033154">
<time>2016-10-07T07:41:13Z</time></trkpt>
<trkpt lat="26.864718" lon="100.033264">
<time>2016-10-07T07:41:14Z</time></trkpt>
<trkpt lat="26.864728" lon="100.033414">
<time>2016-10-07T07:41:15Z</time></trkpt>
<trkpt lat="26.864727" lon="100.033613">
<time>2016-10-07T07:41:16Z</time></trkpt>
<trkpt lat="26.864707" lon="100.033972">
<time>2016-10-07T07:41:17Z</time></trkpt>
<trkpt lat="26.864696" lon="100.034221">
<time>2016-10-07T07:41:18Z</time></trkpt>
<trkpt lat="26.864706" lon="100.034331">
<time>2016-10-07T07:41:19Z</time></trkpt>
<trkpt lat="26.864725" lon="100.034431">
<time>2016-10-07T07:41:20Z</time></trkpt>
<trkpt lat="26.864745" lon="100.034521">
<time>2016-10-07T07:41:21Z</time></trkpt>
<trkpt lat="26.864795" lon="100.03459">
<time>2016-10-07T07:41:22Z</time></trkpt>
<trkpt lat="26.864845" lon="100.03464">
<time>2016-10-07T07:41:23Z</time></trkpt>
<trkpt lat="26.864915" lon="100.03467">
<time>2016-10-07T07:41:24Z</time></trkpt>
<trkpt lat="26.864985" lon="100.0347">
<time>2016-10-07T07:41:25Z</time></trkpt>
<trkpt lat="26.865055" lon="100.0347">
<time>2016-10-07T07:41:26Z</time></trkpt>
<trkpt lat="26.865115" lon="100.0347">
<time>2016-10-07T07:41:27Z</time></trkpt>
<trkpt lat="26.865235" lon="100.03469">
<time>2016-10-07T07:41:28Z</time></trkpt>
<trkpt lat="26.865435" lon="100.03464">
<time>2016-10-07T07:41:29Z</time></trkpt>
<trkpt lat="26.865715" lon="100.03457">
<time>2016-10-07T07:41:30Z</time></trkpt>
<trkpt lat="26.865825" lon="100.034551">
<time>2016-10-07T07:41:31Z</time></trkpt>
<trkpt lat="26.866035" lon="100.034521">
<time>2016-10-07T07:41:32Z</time></trkpt>
<trkpt lat="26.866335" lon="100.034441">
<time>2016-10-07T07:41:33Z</time></trkpt>
<trkpt lat="26.866435" lon="100.034431">
<time>2016-10-07T07:41:34Z</time></trkpt>
<trkpt lat="26.866515" lon="100.034431">
<time>2016-10-07T07:41:35Z</time></trkpt>
<trkpt lat="26.866625" lon="100.034441">
<time>2016-10-07T07:41:36Z</time></trkpt>
<trkpt lat="26.866695" lon="100.034461">
<time>2016-10-07T07:41:37Z</time></trkpt>
<trkpt lat="26.866785" lon="100.034501">
<time>2016-10-07T07:41:38Z</time></trkpt>
<trkpt lat="26.867644" lon="100.03488">
<time>2016-10-07T07:41:39Z</time></trkpt>
<trkpt lat="26.867744" lon="100.034919">
<time>2016-10-07T07:41:40Z</time></trkpt>
<trkpt lat="26.867814" lon="100.034929">
<time>2016-10-07T07:41:41Z</time></trkpt>
<trkpt lat="26.867874" lon="100.034919">
<time>2016-10-07T07:41:42Z</time></trkpt>
<trkpt lat="26.867934" lon="100.0349">
<time>2016-10-07T07:41:43Z</time></trkpt>
<trkpt lat="26.867974" lon="100.03486">
<time>2016-10-07T07:41:44Z</time></trkpt>
<trkpt lat="26.868004" lon="100.03478">
<time>2016-10-07T07:41:45Z</time></trkpt>
<trkpt lat="26.867994" lon="100.03471">
<time>2016-10-07T07:41:46Z</time></trkpt>
<trkpt lat="26.867974" lon="100.03466">
<time>2016-10-07T07:41:47Z</time></trkpt>
<trkpt lat="26.867934" lon="100.03457">
<time>2016-10-07T07:41:48Z</time></trkpt>
<trkpt lat="26.867855" lon="100.034501">
<time>2016-10-07T07:41:49Z</time></trkpt>
<trkpt lat="26.867475" lon="100.034211">
<time>2016-10-07T07:41:50Z</time></trkpt>
<trkpt lat="26.867086" lon="100.033942">
<time>2016-10-07T07:41:51Z</time></trkpt>
<trkpt lat="26.866847" lon="100.033783">
<time>2016-10-07T07:41:52Z</time></trkpt>
<trkpt lat="26.866747" lon="100.033733">
<time>2016-10-07T07:41:53Z</time></trkpt>
<trkpt lat="26.866647" lon="100.033713">
<time>2016-10-07T07:41:54Z</time></trkpt>
<trkpt lat="26.866547" lon="100.033713">
<time>2016-10-07T07:41:55Z</time></trkpt>
<trkpt lat="26.866457" lon="100.033723">
<time>2016-10-07T07:41:56Z</time></trkpt>
<trkpt lat="26.866377" lon="100.033753">
<time>2016-10-07T07:41:57Z</time></trkpt>
<trkpt lat="26.866257" lon="100.033793">
<time>2016-10-07T07:41:58Z</time></trkpt>
<trkpt lat="26.865806" lon="100.034012">
<time>2016-10-07T07:41:59Z</time></trkpt>
<trkpt lat="26.865706" lon="100.034052">
<time>2016-10-07T07:42:00Z</time></trkpt>
<trkpt lat="26.865626" lon="100.034052">
<time>2016-10-07T07:42:01Z</time></trkpt>
<trkpt lat="26.865546" lon="100.034022">
<time>2016-10-07T07:42:02Z</time></trkpt>
<trkpt lat="26.865486" lon="100.033962">
<time>2016-10-07T07:42:03Z</time></trkpt>
<trkpt lat="26.865447" lon="100.033902">
<time>2016-10-07T07:42:04Z</time></trkpt>
<trkpt lat="26.865427" lon="100.033823">
<time>2016-10-07T07:42:05Z</time></trkpt>
<trkpt lat="26.865417" lon="100.033743">
<time>2016-10-07T07:42:06Z</time></trkpt>
<trkpt lat="26.865427" lon="100.033633">
<time>2016-10-07T07:42:07Z</time></trkpt>
<trkpt lat="26.865508" lon="100.033204">
<time>2016-10-07T07:42:08Z</time></trkpt>
<trkpt lat="26.86561" lon="100.032706">
<time>2016-10-07T07:42:09Z</time></trkpt>
<trkpt lat="26.86563" lon="100.032536">
<time>2016-10-07T07:42:10Z</time></trkpt>
<trkpt lat="26.86563" lon="100.032436">
<time>2016-10-07T07:42:11Z</time></trkpt>
<trkpt lat="26.865621" lon="100.032327">
<time>2016-10-07T07:42:12Z</time></trkpt>
<trkpt lat="26.865601" lon="100.032217">
<time>2016-10-07T07:42:13Z</time></trkpt>
<trkpt lat="26.865571" lon="100.032107">
<time>2016-10-07T07:42:14Z</time></trkpt>
<trkpt lat="26.865392" lon="100.031738">
<time>2016-10-07T07:42:15Z</time></trkpt>
<trkpt lat="26.864775" lon="100.030562">
<time>2016-10-07T07:42:16Z</time></trkpt>
<trkpt lat="26.864696" lon="100.030402">
<time>2016-10-07T07:42:17Z</time></trkpt>
<trkpt lat="26.864656" lon="100.030293">
<time>2016-10-07T07:42:18Z</time></trkpt>
<trkpt lat="26.864636" lon="100.030203">
<time>2016-10-07T07:42:19Z</time></trkpt>
<trkpt lat="26.864627" lon="100.030123">
<time>2016-10-07T07:42:20Z</time></trkpt>
<trkpt lat="26.864637" lon="100.030033">
<time>2016-10-07T07:42:21Z</time></trkpt>
<trkpt lat="26.864687" lon="100.029934">
<time>2016-10-07T07:42:22Z</time></trkpt>
<trkpt lat="26.864737" lon="100.029834">
<time>2016-10-07T07:42:23Z</time></trkpt>
<trkpt lat="26.864807" lon="100.029754">
<time>2016-10-07T07:42:24Z</time></trkpt>
<trkpt lat="26.865078" lon="100.029405">
<time>2016-10-07T07:42:25Z</time></trkpt>
<trkpt lat="26.865179" lon="100.029276">
<time>2016-10-07T07:42:26Z</time></trkpt>
<trkpt lat="26.865259" lon="100.029146">
<time>2016-10-07T07:42:27Z</time></trkpt>
<trkpt lat="26.865299" lon="100.029056">
<time>2016-10-07T07:42:28Z</time></trkpt>
<trkpt lat="26.86534" lon="100.028946">
<time>2016-10-07T07:42:29Z</time></trkpt>
<trkpt lat="26.86535" lon="100.028847">
<time>2016-10-07T07:42:30Z</time></trkpt>
<trkpt lat="26.86535" lon="100.028747">
<time>2016-10-07T07:42:31Z</time></trkpt>
<trkpt lat="26.86534" lon="100.028637">
<time>2016-10-07T07:42:32Z</time></trkpt>
<trkpt lat="26.865301" lon="100.028488">
<time>2016-10-07T07:42:33Z</time></trkpt>
<trkpt lat="26.865231" lon="100.028338">
<time>2016-10-07T07:42:34Z</time></trkpt>
<trkpt lat="26.865161" lon="100.028249">
<time>2016-10-07T07:42:35Z</time></trkpt>
<trkpt lat="26.865102" lon="100.028159">
<time>2016-10-07T07:42:36Z</time></trkpt>
<trkpt lat="26.865022" lon="100.028099">
<time>2016-10-07T07:42:37Z</time></trkpt>
<trkpt lat="26.864892" lon="100.028009">
<time>2016-10-07T07:42:38Z</time></trkpt>
<trkpt lat="26.864163" lon="100.0276">
<time>2016-10-07T07:42:39Z</time></trkpt>
<trkpt lat="26.863804" lon="100.027401">
<time>2016-10-07T07:42:40Z</time></trkpt>
<trkpt lat="26.863664" lon="100.027301">
<time>2016-10-07T07:42:41Z</time></trkpt>
<trkpt lat="26.863564" lon="100.027232">
<time>2016-10-07T07:42:42Z</time></trkpt>
<trkpt lat="26.863355" lon="100.026992">
<time>2016-10-07T07:42:43Z</time></trkpt>
<trkpt lat="26.863166" lon="100.026753">
<time>2016-10-07T07:42:44Z</time></trkpt>
<trkpt lat="26.862767" lon="100.026274">
<time>2016-10-07T07:42:45Z</time></trkpt>
<trkpt lat="26.862697" lon="100.026215">
<time>2016-10-07T07:42:46Z</time></trkpt>
<trkpt lat="26.862638" lon="100.026165">
<time>2016-10-07T07:42:47Z</time></trkpt>
<trkpt lat="26.862578" lon="100.026115">
<time>2016-10-07T07:42:48Z</time></trkpt>
<trkpt lat="26.862528" lon="100.026095">
<time>2016-10-07T07:42:49Z</time></trkpt>
<trkpt lat="26.862478" lon="100.026075">
<time>2016-10-07T07:42:50Z</time></trkpt>
<trkpt lat="26.862418" lon="100.026065">
<time>2016-10-07T07:42:51Z</time></trkpt>
<trkpt lat="26.862348" lon="100.026065">
<time>2016-10-07T07:42:52Z</time></trkpt>
<trkpt lat="26.862268" lon="100.026095">
<time>2016-10-07T07:42:53Z</time></trkpt>
<trkpt lat="26.862198" lon="100.026125">
<time>2016-10-07T07:42:54Z</time></trkpt>
<trkpt lat="26.862128" lon="100.026175">
<time>2016-10-07T07:42:55Z</time></trkpt>
<trkpt lat="26.862087" lon="100.026215">
<time>2016-10-07T07:42:56Z</time></trkpt>
<trkpt lat="26.862017" lon="100.026294">
<time>2016-10-07T07:42:57Z</time></trkpt>
<trkpt lat="26.861957" lon="100.026384">
<time>2016-10-07T07:42:58Z</time></trkpt>
<trkpt lat="26.861425" lon="100.027321">
<time>2016-10-07T07:42:59Z</time></trkpt>
<trkpt lat="26.861324" lon="100.027481">
<time>2016-10-07T07:43:00Z</time></trkpt>
<trkpt lat="26.861264" lon="100.027551">
<time>2016-10-07T07:43:01Z</time></trkpt>
<trkpt lat="26.861214" lon="100.027601">
<time>2016-10-07T07:43:02Z</time></trkpt>
<trkpt lat="26.861134" lon="100.02764">
<time>2016-10-07T07:43:03Z</time></trkpt>
<trkpt lat="26.861074" lon="100.02765">
<time>2016-10-07T07:43:04Z</time></trkpt>
<trkpt lat="26.861014" lon="100.02765">
<time>2016-10-07T07:43:05Z</time></trkpt>
<trkpt lat="26.860944" lon="100.027621">
<time>2016-10-07T07:43:06Z</time></trkpt>
<trkpt lat="26.860864" lon="100.027561">
<time>2016-10-07T07:43:07Z</time></trkpt>
<trkpt lat="26.860774" lon="100.027431">
<time>2016-10-07T07:43:08Z</time></trkpt>
<trkpt lat="26.860595" lon="100.027092">
<time>2016-10-07T07:43:09Z</time></trkpt>
<trkpt lat="26.860307" lon="100.026514">
<time>2016-10-07T07:43:10Z</time></trkpt>
<trkpt lat="26.860108" lon="100.026115">
<time>2016-10-07T07:43:11Z</time></trkpt>
<trkpt lat="26.860039" lon="100.025975">
<time>2016-10-07T07:43:12Z</time></trkpt>
<trkpt lat="26.859949" lon="100.025846">
<time>2016-10-07T07:43:13Z</time></trkpt>
<trkpt lat="26.859869" lon="100.025736">
<time>2016-10-07T07:43:14Z</time></trkpt>
<trkpt lat="26.85962" lon="100.025507">
<time>2016-10-07T07:43:15Z</time></trkpt>
<trkpt lat="26.859131" lon="100.025068">
<time>2016-10-07T07:43:16Z</time></trkpt>
<trkpt lat="26.858762" lon="100.024749">
<time>2016-10-07T07:43:17Z</time></trkpt>
<trkpt lat="26.858702" lon="100.024689">
<time>2016-10-07T07:43:18Z</time></trkpt>
<trkpt lat="26.858652" lon="100.02463">
<time>2016-10-07T07:43:19Z</time></trkpt>
<trkpt lat="26.858623" lon="100.02456">
<time>2016-10-07T07:43:20Z</time></trkpt>
<trkpt lat="26.858603" lon="100.02448">
<time>2016-10-07T07:43:21Z</time></trkpt>
<trkpt lat="26.858593" lon="100.02442">
<time>2016-10-07T07:43:22Z</time></trkpt>
<trkpt lat="26.858623" lon="100.02433">
<time>2016-10-07T07:43:23Z</time></trkpt>
<trkpt lat="26.858683" lon="100.024271">
<time>2016-10-07T07:43:24Z</time></trkpt>
<trkpt lat="26.858733" lon="100.024251">
<time>2016-10-07T07:43:25Z</time></trkpt>
<trkpt lat="26.858784" lon="100.024241">
<time>2016-10-07T07:43:26Z</time></trkpt>
<trkpt lat="26.858854" lon="100.024241">
<time>2016-10-07T07:43:27Z</time></trkpt>
<trkpt lat="26.858913" lon="100.024261">
<time>2016-10-07T07:43:28Z</time></trkpt>
<trkpt lat="26.858983" lon="100.024301">
<time>2016-10-07T07:43:29Z</time></trkpt>
<trkpt lat="26.859073" lon="100.02438">
<time>2016-10-07T07:43:30Z</time></trkpt>
<trkpt lat="26.859322" lon="100.02462">
<time>2016-10-07T07:43:31Z</time></trkpt>
<trkpt lat="26.86037" lon="100.025557">
<time>2016-10-07T07:43:32Z</time></trkpt>
<trkpt lat="26.860429" lon="100.025597">
<time>2016-10-07T07:43:33Z</time></trkpt>
<trkpt lat="26.860489" lon="100.025607">
<time>2016-10-07T07:43:34Z</time></trkpt>
<trkpt lat="26.860559" lon="100.025617">
<time>2016-10-07T07:43:35Z</time></trkpt>
<trkpt lat="26.860619" lon="100.025607">
<time>2016-10-07T07:43:36Z</time></trkpt>
<trkpt lat="26.860669" lon="100.025577">
<time>2016-10-07T07:43:37Z</time></trkpt>
<trkpt lat="26.86073" lon="100.025527">
<time>2016-10-07T07:43:38Z</time></trkpt>
<trkpt lat="26.86078" lon="100.025467">
<time>2016-10-07T07:43:39Z</time></trkpt>
<trkpt lat="26.86083" lon="100.025387">
<time>2016-10-07T07:43:40Z</time></trkpt>
<trkpt lat="26.86089" lon="100.025268">
<time>2016-10-07T07:43:41Z</time></trkpt>
<trkpt lat="26.861222" lon="100.02456">
<time>2016-10-07T07:43:42Z</time></trkpt>
<trkpt lat="26.861393" lon="100.024211">
<time>2016-10-07T07:43:43Z</time></trkpt>
<trkpt lat="26.861453" lon="100.024101">
<time>2016-10-07T07:43:44Z</time></trkpt>
<trkpt lat="26.861544" lon="100.023981">
<time>2016-10-07T07:43:45Z</time></trkpt>
<trkpt lat="26.861644" lon="100.023872">
<time>2016-10-07T07:43:46Z</time></trkpt>
<trkpt lat="26.861734" lon="100.023802">
<time>2016-10-07T07:43:47Z</time></trkpt>
<trkpt lat="26.861844" lon="100.023742">
<time>2016-10-07T07:43:48Z</time></trkpt>
<trkpt lat="26.861954" lon="100.023692">
<time>2016-10-07T07:43:49Z</time></trkpt>
<trkpt lat="26.862075" lon="100.023642">
<time>2016-10-07T07:43:50Z</time></trkpt>
<trkpt lat="26.862205" lon="100.023623">
<time>2016-10-07T07:43:51Z</time></trkpt>
<trkpt lat="26.862295" lon="100.023613">
<time>2016-10-07T07:43:52Z</time></trkpt>
<trkpt lat="26.862395" lon="100.023623">
<time>2016-10-07T07:43:53Z</time></trkpt>
<trkpt lat="26.862505" lon="100.023642">
<time>2016-10-07T07:43:54Z</time></trkpt>
<trkpt lat="26.862654" lon="100.023682">
<time>2016-10-07T07:43:55Z</time></trkpt>
<trkpt lat="26.862764" lon="100.023742">
<time>2016-10-07T07:43:56Z</time></trkpt>
<trkpt lat="26.862844" lon="100.023782">
<time>2016-10-07T07:43:57Z</time></trkpt>
<trkpt lat="26.862964" lon="100.023882">
<time>2016-10-07T07:43:58Z</time></trkpt>
<trkpt lat="26.863064" lon="100.023971">
<time>2016-10-07T07:43:59Z</time></trkpt>
<trkpt lat="26.863253" lon="100.024221">
<time>2016-10-07T07:44:00Z</time></trkpt>
<trkpt lat="26.863432" lon="100.02442">
<time>2016-10-07T07:44:01Z</time></trkpt>
<trkpt lat="26.863482" lon="100.02448">
<time>2016-10-07T07:44:02Z</time></trkpt>
<trkpt lat="26.863562" lon="100.02454">
<time>2016-10-07T07:44:03Z</time></trkpt>
<trkpt lat="26.863652" lon="100.02458">
<time>2016-10-07T07:44:04Z</time></trkpt>
<trkpt lat="26.863692" lon="100.02459">
<time>2016-10-07T07:44:05Z</time></trkpt>
<trkpt lat="26.863782" lon="100.024599">
<time>2016-10-07T07:44:06Z</time></trkpt>
<trkpt lat="26.863862" lon="100.024609">
<time>2016-10-07T07:44:07Z</time></trkpt>
<trkpt lat="26.863942" lon="100.024599">
<time>2016-10-07T07:44:08Z</time></trkpt>
<trkpt lat="26.864052" lon="100.02457">
<time>2016-10-07T07:44:09Z</time></trkpt>
<trkpt lat="26.864142" lon="100.02453">
<time>2016-10-07T07:44:10Z</time></trkpt>
<trkpt lat="26.864913" lon="100.024191">
<time>2016-10-07T07:44:11Z</time></trkpt>
<trkpt lat="26.865113" lon="100.024111">
<time>2016-10-07T07:44:12Z</time></trkpt>
<trkpt lat="26.865193" lon="100.024091">
<time>2016-10-07T07:44:13Z</time></trkpt>
<trkpt lat="26.865273" lon="100.024091">
<time>2016-10-07T07:44:14Z</time></trkpt>
<trkpt lat="26.865363" lon="100.024101">
<time>2016-10-07T07:44:15Z</time></trkpt>
<trkpt lat="26.865463" lon="100.024141">
<time>2016-10-07T07:44:16Z</time></trkpt>
<trkpt lat="26.865552" lon="100.024181">
<time>2016-10-07T07:44:17Z</time></trkpt>
<trkpt lat="26.865612" lon="100.024221">
<time>2016-10-07T07:44:18Z</time></trkpt>
<trkpt lat="26.865732" lon="100.02431">
<time>2016-10-07T07:44:19Z</time></trkpt>
<trkpt lat="26.86681" lon="100.025028">
<time>2016-10-07T07:44:20Z</time></trkpt>
<trkpt lat="26.86701" lon="100.025158">
<time>2016-10-07T07:44:21Z</time></trkpt>
<trkpt lat="26.867199" lon="100.025267">
<time>2016-10-07T07:44:22Z</time></trkpt>
<trkpt lat="26.867659" lon="100.025467">
<time>2016-10-07T07:44:23Z</time></trkpt>
<trkpt lat="26.868128" lon="100.025646">
<time>2016-10-07T07:44:24Z</time></trkpt>
<trkpt lat="26.868238" lon="100.025696">
<time>2016-10-07T07:44:25Z</time></trkpt>
<trkpt lat="26.868328" lon="100.025736">
<time>2016-10-07T07:44:26Z</time></trkpt>
<trkpt lat="26.868687" lon="100.025866">
<time>2016-10-07T07:44:27Z</time></trkpt>
<trkpt lat="26.868767" lon="100.025885">
<time>2016-10-07T07:44:28Z</time></trkpt>
<trkpt lat="26.868827" lon="100.025895">
<time>2016-10-07T07:44:29Z</time></trkpt>
<trkpt lat="26.868897" lon="100.025895">
<time>2016-10-07T07:44:30Z</time></trkpt>
<trkpt lat="26.868957" lon="100.025866">
<time>2016-10-07T07:44:31Z</time></trkpt>
<trkpt lat="26.869007" lon="100.025826">
<time>2016-10-07T07:44:32Z</time></trkpt>
<trkpt lat="26.869057" lon="100.025766">
<time>2016-10-07T07:44:33Z</time></trkpt>
<trkpt lat="26.869088" lon="100.025686">
<time>2016-10-07T07:44:34Z</time></trkpt>
<trkpt lat="26.869098" lon="100.025586">
<time>2016-10-07T07:44:35Z</time></trkpt>
<trkpt lat="26.869098" lon="100.025497">
<time>2016-10-07T07:44:36Z</time></trkpt>
<trkpt lat="26.869079" lon="100.025377">
<time>2016-10-07T07:44:37Z</time></trkpt>
<trkpt lat="26.86903" lon="100.024998">
<time>2016-10-07T07:44:38Z</time></trkpt>
<trkpt lat="26.868902" lon="100.024211">
<time>2016-10-07T07:44:39Z</time></trkpt>
<trkpt lat="26.868823" lon="100.023712">
<time>2016-10-07T07:44:40Z</time></trkpt>
<trkpt lat="26.868804" lon="100.023543">
<time>2016-10-07T07:44:41Z</time></trkpt>
<trkpt lat="26.868794" lon="100.023393">
<time>2016-10-07T07:44:42Z</time></trkpt>
<trkpt lat="26.868794" lon="100.023303">
<time>2016-10-07T07:44:43Z</time></trkpt>
<trkpt lat="26.868805" lon="100.023214">
<time>2016-10-07T07:44:44Z</time></trkpt>
<trkpt lat="26.868825" lon="100.023114">
<time>2016-10-07T07:44:45Z</time></trkpt>
<trkpt lat="26.868845" lon="100.023024">
<time>2016-10-07T07:44:46Z</time></trkpt>
<trkpt lat="26.868936" lon="100.022865">
<time>2016-10-07T07:44:47Z</time></trkpt>
<trkpt lat="26.869036" lon="100.022705">
<time>2016-10-07T07:44:48Z</time></trkpt>
<trkpt lat="26.869106" lon="100.022595">
<time>2016-10-07T07:44:49Z</time></trkpt>
<trkpt lat="26.869167" lon="100.022506">
<time>2016-10-07T07:44:50Z</time></trkpt>
<trkpt lat="26.869217" lon="100.022436">
<time>2016-10-07T07:44:51Z</time></trkpt>
<trkpt lat="26.869277" lon="100.022356">
<time>2016-10-07T07:44:52Z</time></trkpt>
<trkpt lat="26.869387" lon="100.022336">
<time>2016-10-07T07:44:53Z</time></trkpt>
<trkpt lat="26.869427" lon="100.022326">
<time>2016-10-07T07:44:54Z</time></trkpt>
<trkpt lat="26.869467" lon="100.022316">
<time>2016-10-07T07:44:55Z</time></trkpt>
<trkpt lat="26.869497" lon="100.022326">
<time>2016-10-07T07:44:56Z</time></trkpt>
<trkpt lat="26.869527" lon="100.022336">
<time>2016-10-07T07:44:57Z</time></trkpt>
<trkpt lat="26.869547" lon="100.022346">
<time>2016-10-07T07:44:58Z</time></trkpt>
<trkpt lat="26.869587" lon="100.022356">
<time>2016-10-07T07:44:59Z</time></trkpt>
<trkpt lat="26.869587" lon="100.022356">
<time>2016-10-07T07:45:00Z</time></trkpt>
<trkpt lat="26.869427" lon="100.022147">
<time>2016-10-07T07:45:01Z</time></trkpt>
<trkpt lat="26.869427" lon="100.022147">
<time>2016-10-07T07:45:02Z</time></trkpt>
<trkpt lat="26.869518" lon="100.021957">
<time>2016-10-07T07:45:03Z</time></trkpt>
<trkpt lat="26.869588" lon="100.021818">
<time>2016-10-07T07:45:04Z</time></trkpt>
<trkpt lat="26.869659" lon="100.021708">
<time>2016-10-07T07:45:05Z</time></trkpt>
<trkpt lat="26.86992" lon="100.02128">
<time>2016-10-07T07:45:06Z</time></trkpt>
<trkpt lat="26.870221" lon="100.020761">
<time>2016-10-07T07:45:07Z</time></trkpt>
<trkpt lat="26.870221" lon="100.020761">
<time>2016-10-07T07:45:08Z</time></trkpt>
<trkpt lat="26.87127" lon="100.02122">
<time>2016-10-07T07:45:09Z</time></trkpt>
<trkpt lat="26.872308" lon="100.021768">
<time>2016-10-07T07:45:10Z</time></trkpt>
<trkpt lat="26.873706" lon="100.022496">
<time>2016-10-07T07:45:11Z</time></trkpt>
<trkpt lat="26.874584" lon="100.023014">
<time>2016-10-07T07:45:12Z</time></trkpt>
<trkpt lat="26.875542" lon="100.023602">
<time>2016-10-07T07:45:13Z</time></trkpt>
<trkpt lat="26.87634" lon="100.02423">
<time>2016-10-07T07:45:14Z</time></trkpt>
<trkpt lat="26.876998" lon="100.025058">
<time>2016-10-07T07:45:15Z</time></trkpt>
<trkpt lat="26.877515" lon="100.026005">
<time>2016-10-07T07:45:16Z</time></trkpt>
<trkpt lat="26.877882" lon="100.027132">
<time>2016-10-07T07:45:17Z</time></trkpt>
<trkpt lat="26.878179" lon="100.028418">
<time>2016-10-07T07:45:18Z</time></trkpt>
<trkpt lat="26.878337" lon="100.028976">
<time>2016-10-07T07:45:19Z</time></trkpt>
<trkpt lat="26.878536" lon="100.029505">
<time>2016-10-07T07:45:20Z</time></trkpt>
<trkpt lat="26.878963" lon="100.030302">
<time>2016-10-07T07:45:21Z</time></trkpt>
<trkpt lat="26.879412" lon="100.030871">
<time>2016-10-07T07:45:22Z</time></trkpt>
<trkpt lat="26.879811" lon="100.031269">
<time>2016-10-07T07:45:23Z</time></trkpt>
<trkpt lat="26.88011" lon="100.031529">
<time>2016-10-07T07:45:24Z</time></trkpt>
<trkpt lat="26.880409" lon="100.031758">
<time>2016-10-07T07:45:25Z</time></trkpt>
<trkpt lat="26.881158" lon="100.032217">
<time>2016-10-07T07:45:26Z</time></trkpt>
<trkpt lat="26.882027" lon="100.032695">
<time>2016-10-07T07:45:27Z</time></trkpt>
<trkpt lat="26.882835" lon="100.033214">
<time>2016-10-07T07:45:28Z</time></trkpt>
<trkpt lat="26.883693" lon="100.034061">
<time>2016-10-07T07:45:29Z</time></trkpt>
<trkpt lat="26.88427" lon="100.034979">
<time>2016-10-07T07:45:30Z</time></trkpt>
<trkpt lat="26.884688" lon="100.035876">
<time>2016-10-07T07:45:31Z</time></trkpt>
<trkpt lat="26.885703" lon="100.037981">
<time>2016-10-07T07:45:32Z</time></trkpt>
<trkpt lat="26.886429" lon="100.039487">
<time>2016-10-07T07:45:33Z</time></trkpt>
<trkpt lat="26.886876" lon="100.040524">
<time>2016-10-07T07:45:34Z</time></trkpt>
<trkpt lat="26.887962" lon="100.04231">
<time>2016-10-07T07:45:35Z</time></trkpt>
<trkpt lat="26.88893" lon="100.043257">
<time>2016-10-07T07:45:36Z</time></trkpt>
<trkpt lat="26.890188" lon="100.043955">
<time>2016-10-07T07:45:37Z</time></trkpt>
<trkpt lat="26.891007" lon="100.044165">
<time>2016-10-07T07:45:38Z</time></trkpt>
<trkpt lat="26.891887" lon="100.044205">
<time>2016-10-07T07:45:39Z</time></trkpt>
<trkpt lat="26.892777" lon="100.044095">
<time>2016-10-07T07:45:40Z</time></trkpt>
<trkpt lat="26.893648" lon="100.043786">
<time>2016-10-07T07:45:41Z</time></trkpt>
<trkpt lat="26.894669" lon="100.043167">
<time>2016-10-07T07:45:42Z</time></trkpt>
<trkpt lat="26.89548" lon="100.042509">
<time>2016-10-07T07:45:43Z</time></trkpt>
<trkpt lat="26.896351" lon="100.04189">
<time>2016-10-07T07:45:44Z</time></trkpt>
<trkpt lat="26.897182" lon="100.041511">
<time>2016-10-07T07:45:45Z</time></trkpt>
<trkpt lat="26.897872" lon="100.041262">
<time>2016-10-07T07:45:46Z</time></trkpt>
<trkpt lat="26.898633" lon="100.041102">
<time>2016-10-07T07:45:47Z</time></trkpt>
<trkpt lat="26.899233" lon="100.041042">
<time>2016-10-07T07:45:48Z</time></trkpt>
<trkpt lat="26.900043" lon="100.041032">
<time>2016-10-07T07:45:49Z</time></trkpt>
<trkpt lat="26.900872" lon="100.041132">
<time>2016-10-07T07:45:50Z</time></trkpt>
<trkpt lat="26.901621" lon="100.041332">
<time>2016-10-07T07:45:51Z</time></trkpt>
<trkpt lat="26.902501" lon="100.041671">
<time>2016-10-07T07:45:52Z</time></trkpt>
<trkpt lat="26.903339" lon="100.042159">
<time>2016-10-07T07:45:53Z</time></trkpt>
<trkpt lat="26.904158" lon="100.042778">
<time>2016-10-07T07:45:54Z</time></trkpt>
<trkpt lat="26.904896" lon="100.043556">
<time>2016-10-07T07:45:55Z</time></trkpt>
<trkpt lat="26.905414" lon="100.044214">
<time>2016-10-07T07:45:56Z</time></trkpt>
<trkpt lat="26.905813" lon="100.044923">
<time>2016-10-07T07:45:57Z</time></trkpt>
<trkpt lat="26.9064" lon="100.04613">
<time>2016-10-07T07:45:58Z</time></trkpt>
<trkpt lat="26.907156" lon="100.047786">
<time>2016-10-07T07:45:59Z</time></trkpt>
<trkpt lat="26.907764" lon="100.048584">
<time>2016-10-07T07:46:00Z</time></trkpt>
<trkpt lat="26.908572" lon="100.049372">
<time>2016-10-07T07:46:01Z</time></trkpt>
<trkpt lat="26.909361" lon="100.049871">
<time>2016-10-07T07:46:02Z</time></trkpt>
<trkpt lat="26.91011" lon="100.05021">
<time>2016-10-07T07:46:03Z</time></trkpt>
<trkpt lat="26.9108" lon="100.05038">
<time>2016-10-07T07:46:04Z</time></trkpt>
<trkpt lat="26.9115" lon="100.0505">
<time>2016-10-07T07:46:05Z</time></trkpt>
<trkpt lat="26.912499" lon="100.05046">
<time>2016-10-07T07:46:06Z</time></trkpt>
<trkpt lat="26.91353" lon="100.05021">
<time>2016-10-07T07:46:07Z</time></trkpt>
<trkpt lat="26.91415" lon="100.049961">
<time>2016-10-07T07:46:08Z</time></trkpt>
<trkpt lat="26.91522" lon="100.049661">
<time>2016-10-07T07:46:09Z</time></trkpt>
<trkpt lat="26.91608" lon="100.049562">
<time>2016-10-07T07:46:10Z</time></trkpt>
<trkpt lat="26.91668" lon="100.049572">
<time>2016-10-07T07:46:11Z</time></trkpt>
<trkpt lat="26.91697" lon="100.049602">
<time>2016-10-07T07:46:12Z</time></trkpt>
<trkpt lat="26.91772" lon="100.049781">
<time>2016-10-07T07:46:13Z</time></trkpt>
<trkpt lat="26.918239" lon="100.049991">
<time>2016-10-07T07:46:14Z</time></trkpt>
<trkpt lat="26.918749" lon="100.05024">
<time>2016-10-07T07:46:15Z</time></trkpt>
<trkpt lat="26.919188" lon="100.050549">
<time>2016-10-07T07:46:16Z</time></trkpt>
<trkpt lat="26.919737" lon="100.050988">
<time>2016-10-07T07:46:17Z</time></trkpt>
<trkpt lat="26.920246" lon="100.051457">
<time>2016-10-07T07:46:18Z</time></trkpt>
<trkpt lat="26.921044" lon="100.052196">
<time>2016-10-07T07:46:19Z</time></trkpt>
<trkpt lat="26.921743" lon="100.052874">
<time>2016-10-07T07:46:20Z</time></trkpt>
<trkpt lat="26.922521" lon="100.053633">
<time>2016-10-07T07:46:21Z</time></trkpt>
<trkpt lat="26.923379" lon="100.054411">
<time>2016-10-07T07:46:22Z</time></trkpt>
<trkpt lat="26.923859" lon="100.054741">
<time>2016-10-07T07:46:23Z</time></trkpt>
<trkpt lat="26.924138" lon="100.05489">
<time>2016-10-07T07:46:24Z</time></trkpt>
<trkpt lat="26.924548" lon="100.05509">
<time>2016-10-07T07:46:25Z</time></trkpt>
<trkpt lat="26.925197" lon="100.055289">
<time>2016-10-07T07:46:26Z</time></trkpt>
<trkpt lat="26.925677" lon="100.055349">
<time>2016-10-07T07:46:27Z</time></trkpt>
<trkpt lat="26.926137" lon="100.055359">
<time>2016-10-07T07:46:28Z</time></trkpt>
<trkpt lat="26.926557" lon="100.055349">
<time>2016-10-07T07:46:29Z</time></trkpt>
<trkpt lat="26.926987" lon="100.055329">
<time>2016-10-07T07:46:30Z</time></trkpt>
<trkpt lat="26.927447" lon="100.055299">
<time>2016-10-07T07:46:31Z</time></trkpt>
<trkpt lat="26.927867" lon="100.055279">
<time>2016-10-07T07:46:32Z</time></trkpt>
<trkpt lat="26.928247" lon="100.055279">
<time>2016-10-07T07:46:33Z</time></trkpt>
<trkpt lat="26.928247" lon="100.055279">
<time>2016-10-07T07:46:34Z</time></trkpt>
<trkpt lat="26.928328" lon="100.054461">
<time>2016-10-07T07:46:35Z</time></trkpt>
<trkpt lat="26.928328" lon="100.054461">
<time>2016-10-07T07:46:36Z</time></trkpt>
<trkpt lat="26.928498" lon="100.054591">
<time>2016-10-07T07:46:37Z</time></trkpt>
<trkpt lat="26.928678" lon="100.05474">
<time>2016-10-07T07:46:38Z</time></trkpt>
<trkpt lat="26.929007" lon="100.05499">
<time>2016-10-07T07:46:39Z</time></trkpt>
<trkpt lat="26.929157" lon="100.0551">
<time>2016-10-07T07:46:40Z</time></trkpt>
<trkpt lat="26.929297" lon="100.055189">
<time>2016-10-07T07:46:41Z</time></trkpt>
<trkpt lat="26.929457" lon="100.055269">
<time>2016-10-07T07:46:42Z</time></trkpt>
<trkpt lat="26.929626" lon="100.055359">
<time>2016-10-07T07:46:43Z</time></trkpt>
<trkpt lat="26.929926" lon="100.055499">
<time>2016-10-07T07:46:44Z</time></trkpt>
<trkpt lat="26.930276" lon="100.055679">
<time>2016-10-07T07:46:45Z</time></trkpt>
<trkpt lat="26.930435" lon="100.055768">
<time>2016-10-07T07:46:46Z</time></trkpt>
<trkpt lat="26.930545" lon="100.055828">
<time>2016-10-07T07:46:47Z</time></trkpt>
<trkpt lat="26.930655" lon="100.055908">
<time>2016-10-07T07:46:48Z</time></trkpt>
<trkpt lat="26.930775" lon="100.056028">
<time>2016-10-07T07:46:49Z</time></trkpt>
<trkpt lat="26.930925" lon="100.056178">
<time>2016-10-07T07:46:50Z</time></trkpt>
<trkpt lat="26.931064" lon="100.056357">
<time>2016-10-07T07:46:51Z</time></trkpt>
<trkpt lat="26.931134" lon="100.056447">
<time>2016-10-07T07:46:52Z</time></trkpt>
<trkpt lat="26.931174" lon="100.056507">
<time>2016-10-07T07:46:53Z</time></trkpt>
<trkpt lat="26.931204" lon="100.056577">
<time>2016-10-07T07:46:54Z</time></trkpt>
<trkpt lat="26.931244" lon="100.056746">
<time>2016-10-07T07:46:55Z</time></trkpt>
<trkpt lat="26.931273" lon="100.056836">
<time>2016-10-07T07:46:56Z</time></trkpt>
<trkpt lat="26.931313" lon="100.056926">
<time>2016-10-07T07:46:57Z</time></trkpt>
<trkpt lat="26.931443" lon="100.057126">
<time>2016-10-07T07:46:58Z</time></trkpt>
<trkpt lat="26.931632" lon="100.057425">
<time>2016-10-07T07:46:59Z</time></trkpt>
<trkpt lat="26.931752" lon="100.057545">
<time>2016-10-07T07:47:00Z</time></trkpt>
<trkpt lat="26.931892" lon="100.057665">
<time>2016-10-07T07:47:01Z</time></trkpt>
<trkpt lat="26.932042" lon="100.057784">
<time>2016-10-07T07:47:02Z</time></trkpt>
<trkpt lat="26.932311" lon="100.057974">
<time>2016-10-07T07:47:03Z</time></trkpt>
<trkpt lat="26.932421" lon="100.058044">
<time>2016-10-07T07:47:04Z</time></trkpt>
<trkpt lat="26.932511" lon="100.058124">
<time>2016-10-07T07:47:05Z</time></trkpt>
<trkpt lat="26.932591" lon="100.058204">
<time>2016-10-07T07:47:06Z</time></trkpt>
<trkpt lat="26.93304" lon="100.058673">
<time>2016-10-07T07:47:07Z</time></trkpt>
<trkpt lat="26.93319" lon="100.058813">
<time>2016-10-07T07:47:08Z</time></trkpt>
<trkpt lat="26.933279" lon="100.058912">
<time>2016-10-07T07:47:09Z</time></trkpt>
<trkpt lat="26.933339" lon="100.059002">
<time>2016-10-07T07:47:10Z</time></trkpt>
<trkpt lat="26.933399" lon="100.059092">
<time>2016-10-07T07:47:11Z</time></trkpt>
<trkpt lat="26.933429" lon="100.059182">
<time>2016-10-07T07:47:12Z</time></trkpt>
<trkpt lat="26.933469" lon="100.059302">
<time>2016-10-07T07:47:13Z</time></trkpt>
<trkpt lat="26.933588" lon="100.059391">
<time>2016-10-07T07:47:14Z</time></trkpt>
<trkpt lat="26.933678" lon="100.059461">
<time>2016-10-07T07:47:15Z</time></trkpt>
<trkpt lat="26.933888" lon="100.059601">
<time>2016-10-07T07:47:16Z</time></trkpt>
<trkpt lat="26.934038" lon="100.059701">
<time>2016-10-07T07:47:17Z</time></trkpt>
<trkpt lat="26.934188" lon="100.059791">
<time>2016-10-07T07:47:18Z</time></trkpt>
<trkpt lat="26.934437" lon="100.05993">
<time>2016-10-07T07:47:19Z</time></trkpt>
<trkpt lat="26.934637" lon="100.06003">
<time>2016-10-07T07:47:20Z</time></trkpt>
<trkpt lat="26.934817" lon="100.06011">
<time>2016-10-07T07:47:21Z</time></trkpt>
<trkpt lat="26.935047" lon="100.06021">
<time>2016-10-07T07:47:22Z</time></trkpt>
<trkpt lat="26.935047" lon="100.06021">
<time>2016-10-07T07:47:23Z</time></trkpt>
<trkpt lat="26.935546" lon="100.060679">
<time>2016-10-07T07:47:24Z</time></trkpt>
<trkpt lat="26.935766" lon="100.060849">
<time>2016-10-07T07:47:25Z</time></trkpt>
<trkpt lat="26.936025" lon="100.061118">
<time>2016-10-07T07:47:26Z</time></trkpt>
<trkpt lat="26.936275" lon="100.061398">
<time>2016-10-07T07:47:27Z</time></trkpt>
<trkpt lat="26.936424" lon="100.061568">
<time>2016-10-07T07:47:28Z</time></trkpt>
<trkpt lat="26.936624" lon="100.061657">
<time>2016-10-07T07:47:29Z</time></trkpt>
<trkpt lat="26.936904" lon="100.061697">
<time>2016-10-07T07:47:30Z</time></trkpt>
<trkpt lat="26.937354" lon="100.061687">
<time>2016-10-07T07:47:31Z</time></trkpt>
<trkpt lat="26.937634" lon="100.061747">
<time>2016-10-07T07:47:32Z</time></trkpt>
<trkpt lat="26.937654" lon="100.061747">
<time>2016-10-07T07:47:33Z</time></trkpt>
<trkpt lat="26.937994" lon="100.061837">
<time>2016-10-07T07:47:34Z</time></trkpt>
<trkpt lat="26.938233" lon="100.061987">
<time>2016-10-07T07:47:35Z</time></trkpt>
<trkpt lat="26.938503" lon="100.062027">
<time>2016-10-07T07:47:36Z</time></trkpt>
<trkpt lat="26.938733" lon="100.062007">
<time>2016-10-07T07:47:37Z</time></trkpt>
<trkpt lat="26.938983" lon="100.061977">
<time>2016-10-07T07:47:38Z</time></trkpt>
<trkpt lat="26.939403" lon="100.061917">
<time>2016-10-07T07:47:39Z</time></trkpt>
<trkpt lat="26.939723" lon="100.061777">
<time>2016-10-07T07:47:40Z</time></trkpt>
<trkpt lat="26.940234" lon="100.061428">
<time>2016-10-07T07:47:41Z</time></trkpt>
<trkpt lat="26.940234" lon="100.061428">
<time>2016-10-07T07:47:42Z</time></trkpt>
<trkpt lat="26.940414" lon="100.061478">
<time>2016-10-07T07:47:43Z</time></trkpt>
<trkpt lat="26.940623" lon="100.061518">
<time>2016-10-07T07:47:44Z</time></trkpt>
<trkpt lat="26.940983" lon="100.061597">
<time>2016-10-07T07:47:45Z</time></trkpt>
<trkpt lat="26.941163" lon="100.061637">
<time>2016-10-07T07:47:46Z</time></trkpt>
<trkpt lat="26.941353" lon="100.061667">
<time>2016-10-07T07:47:47Z</time></trkpt>
<trkpt lat="26.941543" lon="100.061697">
<time>2016-10-07T07:47:48Z</time></trkpt>
<trkpt lat="26.941703" lon="100.061717">
<time>2016-10-07T07:47:49Z</time></trkpt>
<trkpt lat="26.941943" lon="100.061737">
<time>2016-10-07T07:47:50Z</time></trkpt>
<trkpt lat="26.942173" lon="100.061747">
<time>2016-10-07T07:47:51Z</time></trkpt>
<trkpt lat="26.942323" lon="100.061747">
<time>2016-10-07T07:47:52Z</time></trkpt>
<trkpt lat="26.942503" lon="100.061747">
<time>2016-10-07T07:47:53Z</time></trkpt>
<trkpt lat="26.942763" lon="100.061727">
<time>2016-10-07T07:47:54Z</time></trkpt>
<trkpt lat="26.942903" lon="100.061707">
<time>2016-10-07T07:47:55Z</time></trkpt>
<trkpt lat="26.943013" lon="100.061697">
<time>2016-10-07T07:47:56Z</time></trkpt>
<trkpt lat="26.943163" lon="100.061667">
<time>2016-10-07T07:47:57Z</time></trkpt>
<trkpt lat="26.943333" lon="100.061627">
<time>2016-10-07T07:47:58Z</time></trkpt>
<trkpt lat="26.943553" lon="100.061577">
<time>2016-10-07T07:47:59Z</time></trkpt>
<trkpt lat="26.943723" lon="100.061527">
<time>2016-10-07T07:48:00Z</time></trkpt>
<trkpt lat="26.944633" lon="100.061268">
<time>2016-10-07T07:48:01Z</time></trkpt>
<trkpt lat="26.945153" lon="100.061118">
<time>2016-10-07T07:48:02Z</time></trkpt>
<trkpt lat="26.945813" lon="100.060918">
<time>2016-10-07T07:48:03Z</time></trkpt>
<trkpt lat="26.946483" lon="100.060709">
<time>2016-10-07T07:48:04Z</time></trkpt>
<trkpt lat="26.946973" lon="100.060569">
<time>2016-10-07T07:48:05Z</time></trkpt>
<trkpt lat="26.947644" lon="100.060359">
<time>2016-10-07T07:48:06Z</time></trkpt>
<trkpt lat="26.948134" lon="100.06022">
<time>2016-10-07T07:48:07Z</time></trkpt>
<trkpt lat="26.948614" lon="100.06007">
<time>2016-10-07T07:48:08Z</time></trkpt>
<trkpt lat="26.949044" lon="100.05994">
<time>2016-10-07T07:48:09Z</time></trkpt>
<trkpt lat="26.949344" lon="100.05986">
<time>2016-10-07T07:48:10Z</time></trkpt>
<trkpt lat="26.950294" lon="100.059571">
<time>2016-10-07T07:48:11Z</time></trkpt>
<trkpt lat="26.950924" lon="100.059381">
<time>2016-10-07T07:48:12Z</time></trkpt>
<trkpt lat="26.951325" lon="100.059261">
<time>2016-10-07T07:48:13Z</time></trkpt>
<trkpt lat="26.951775" lon="100.059131">
<time>2016-10-07T07:48:14Z</time></trkpt>
<trkpt lat="26.952045" lon="100.059062">
<time>2016-10-07T07:48:15Z</time></trkpt>
<trkpt lat="26.952315" lon="100.059002">
<time>2016-10-07T07:48:16Z</time></trkpt>
<trkpt lat="26.952505" lon="100.058962">
<time>2016-10-07T07:48:17Z</time></trkpt>
<trkpt lat="26.952745" lon="100.058922">
<time>2016-10-07T07:48:18Z</time></trkpt>
<trkpt lat="26.953015" lon="100.058892">
<time>2016-10-07T07:48:19Z</time></trkpt>
<trkpt lat="26.953185" lon="100.058882">
<time>2016-10-07T07:48:20Z</time></trkpt>
<trkpt lat="26.953295" lon="100.058882">
<time>2016-10-07T07:48:21Z</time></trkpt>
<trkpt lat="26.953415" lon="100.058872">
<time>2016-10-07T07:48:22Z</time></trkpt>
<trkpt lat="26.953575" lon="100.058872">
<time>2016-10-07T07:48:23Z</time></trkpt>
<trkpt lat="26.953755" lon="100.058882">
<time>2016-10-07T07:48:24Z</time></trkpt>
<trkpt lat="26.953965" lon="100.058902">
<time>2016-10-07T07:48:25Z</time></trkpt>
<trkpt lat="26.954144" lon="100.058922">
<time>2016-10-07T07:48:26Z</time></trkpt>
<trkpt lat="26.954374" lon="100.058952">
<time>2016-10-07T07:48:27Z</time></trkpt>
<trkpt lat="26.954974" lon="100.059042">
<time>2016-10-07T07:48:28Z</time></trkpt>
<trkpt lat="26.955234" lon="100.059081">
<time>2016-10-07T07:48:29Z</time></trkpt>
<trkpt lat="26.955444" lon="100.059111">
<time>2016-10-07T07:48:30Z</time></trkpt>
<trkpt lat="26.955624" lon="100.059131">
<time>2016-10-07T07:48:31Z</time></trkpt>
<trkpt lat="26.955784" lon="100.059141">
<time>2016-10-07T07:48:32Z</time></trkpt>
<trkpt lat="26.955964" lon="100.059151">
<time>2016-10-07T07:48:33Z</time></trkpt>
<trkpt lat="26.956104" lon="100.059161">
<time>2016-10-07T07:48:34Z</time></trkpt>
<trkpt lat="26.956344" lon="100.059161">
<time>2016-10-07T07:48:35Z</time></trkpt>
<trkpt lat="26.956594" lon="100.059141">
<time>2016-10-07T07:48:36Z</time></trkpt>
<trkpt lat="26.956814" lon="100.059131">
<time>2016-10-07T07:48:37Z</time></trkpt>
<trkpt lat="26.957004" lon="100.059101">
<time>2016-10-07T07:48:38Z</time></trkpt>
<trkpt lat="26.957104" lon="100.059091">
<time>2016-10-07T07:48:39Z</time></trkpt>
<trkpt lat="26.957294" lon="100.059061">
<time>2016-10-07T07:48:40Z</time></trkpt>
<trkpt lat="26.957564" lon="100.059002">
<time>2016-10-07T07:48:41Z</time></trkpt>
<trkpt lat="26.958054" lon="100.058902">
<time>2016-10-07T07:48:42Z</time></trkpt>
<trkpt lat="26.958734" lon="100.058762">
<time>2016-10-07T07:48:43Z</time></trkpt>
<trkpt lat="26.959374" lon="100.058622">
<time>2016-10-07T07:48:44Z</time></trkpt>
<trkpt lat="26.959914" lon="100.058522">
<time>2016-10-07T07:48:45Z</time></trkpt>
<trkpt lat="26.960124" lon="100.058482">
<time>2016-10-07T07:48:46Z</time></trkpt>
<trkpt lat="26.960214" lon="100.058462">
<time>2016-10-07T07:48:47Z</time></trkpt>
<trkpt lat="26.960354" lon="100.058432">
<time>2016-10-07T07:48:48Z</time></trkpt>
<trkpt lat="26.960564" lon="100.058393">
<time>2016-10-07T07:48:49Z</time></trkpt>
<trkpt lat="26.960744" lon="100.058363">
<time>2016-10-07T07:48:50Z</time></trkpt>
<trkpt lat="26.960964" lon="100.058333">
<time>2016-10-07T07:48:51Z</time></trkpt>
<trkpt lat="26.961134" lon="100.058323">
<time>2016-10-07T07:48:52Z</time></trkpt>
<trkpt lat="26.961314" lon="100.058313">
<time>2016-10-07T07:48:53Z</time></trkpt>
<trkpt lat="26.961544" lon="100.058313">
<time>2016-10-07T07:48:54Z</time></trkpt>
<trkpt lat="26.961704" lon="100.058313">
<time>2016-10-07T07:48:55Z</time></trkpt>
<trkpt lat="26.961854" lon="100.058323">
<time>2016-10-07T07:48:56Z</time></trkpt>
<trkpt lat="26.961984" lon="100.058333">
<time>2016-10-07T07:48:57Z</time></trkpt>
<trkpt lat="26.962313" lon="100.058373">
<time>2016-10-07T07:48:58Z</time></trkpt>
<trkpt lat="26.962583" lon="100.058422">
<time>2016-10-07T07:48:59Z</time></trkpt>
<trkpt lat="26.962783" lon="100.058472">
<time>2016-10-07T07:49:00Z</time></trkpt>
<trkpt lat="26.962973" lon="100.058522">
<time>2016-10-07T07:49:01Z</time></trkpt>
<trkpt lat="26.963133" lon="100.058572">
<time>2016-10-07T07:49:02Z</time></trkpt>
<trkpt lat="26.963243" lon="100.058612">
<time>2016-10-07T07:49:03Z</time></trkpt>
<trkpt lat="26.963503" lon="100.058702">
<time>2016-10-07T07:49:04Z</time></trkpt>
<trkpt lat="26.963682" lon="100.058782">
<time>2016-10-07T07:49:05Z</time></trkpt>
<trkpt lat="26.963812" lon="100.058842">
<time>2016-10-07T07:49:06Z</time></trkpt>
<trkpt lat="26.964052" lon="100.058951">
<time>2016-10-07T07:49:07Z</time></trkpt>
<trkpt lat="26.964372" lon="100.059111">
<time>2016-10-07T07:49:08Z</time></trkpt>
<trkpt lat="26.964861" lon="100.059361">
<time>2016-10-07T07:49:09Z</time></trkpt>
<trkpt lat="26.965251" lon="100.05955">
<time>2016-10-07T07:49:10Z</time></trkpt>
<trkpt lat="26.96568" lon="100.05977">
<time>2016-10-07T07:49:11Z</time></trkpt>
<trkpt lat="26.96589" lon="100.05988">
<time>2016-10-07T07:49:12Z</time></trkpt>
<trkpt lat="26.96608" lon="100.05998">
<time>2016-10-07T07:49:13Z</time></trkpt>
<trkpt lat="26.96639" lon="100.060139">
<time>2016-10-07T07:49:14Z</time></trkpt>
<trkpt lat="26.966579" lon="100.060229">
<time>2016-10-07T07:49:15Z</time></trkpt>
<trkpt lat="26.966809" lon="100.060339">
<time>2016-10-07T07:49:16Z</time></trkpt>
<trkpt lat="26.967059" lon="100.060469">
<time>2016-10-07T07:49:17Z</time></trkpt>
<trkpt lat="26.967219" lon="100.060549">
<time>2016-10-07T07:49:18Z</time></trkpt>
<trkpt lat="26.967429" lon="100.060638">
<time>2016-10-07T07:49:19Z</time></trkpt>
<trkpt lat="26.967658" lon="100.060738">
<time>2016-10-07T07:49:20Z</time></trkpt>
<trkpt lat="26.967838" lon="100.060798">
<time>2016-10-07T07:49:21Z</time></trkpt>
<trkpt lat="26.968008" lon="100.060868">
<time>2016-10-07T07:49:22Z</time></trkpt>
<trkpt lat="26.968138" lon="100.060908">
<time>2016-10-07T07:49:23Z</time></trkpt>
<trkpt lat="26.968278" lon="100.060948">
<time>2016-10-07T07:49:24Z</time></trkpt>
<trkpt lat="26.968408" lon="100.060978">
<time>2016-10-07T07:49:25Z</time></trkpt>
<trkpt lat="26.968618" lon="100.061028">
<time>2016-10-07T07:49:26Z</time></trkpt>
<trkpt lat="26.968847" lon="100.061068">
<time>2016-10-07T07:49:27Z</time></trkpt>
<trkpt lat="26.969037" lon="100.061088">
<time>2016-10-07T07:49:28Z</time></trkpt>
<trkpt lat="26.969227" lon="100.061107">
<time>2016-10-07T07:49:29Z</time></trkpt>
<trkpt lat="26.969427" lon="100.061117">
<time>2016-10-07T07:49:30Z</time></trkpt>
<trkpt lat="26.969687" lon="100.061127">
<time>2016-10-07T07:49:31Z</time></trkpt>
<trkpt lat="26.969877" lon="100.061117">
<time>2016-10-07T07:49:32Z</time></trkpt>
<trkpt lat="26.970017" lon="100.061117">
<time>2016-10-07T07:49:33Z</time></trkpt>
<trkpt lat="26.970167" lon="100.061097">
<time>2016-10-07T07:49:34Z</time></trkpt>
<trkpt lat="26.970257" lon="100.061087">
<time>2016-10-07T07:49:35Z</time></trkpt>
<trkpt lat="26.970417" lon="100.061068">
<time>2016-10-07T07:49:36Z</time></trkpt>
<trkpt lat="26.970527" lon="100.061058">
<time>2016-10-07T07:49:37Z</time></trkpt>
<trkpt lat="26.970667" lon="100.061038">
<time>2016-10-07T07:49:38Z</time></trkpt>
<trkpt lat="26.970837" lon="100.060998">
<time>2016-10-07T07:49:39Z</time></trkpt>
<trkpt lat="26.971077" lon="100.060958">
<time>2016-10-07T07:49:40Z</time></trkpt>
<trkpt lat="26.971367" lon="100.060898">
<time>2016-10-07T07:49:41Z</time></trkpt>
<trkpt lat="26.971647" lon="100.060838">
<time>2016-10-07T07:49:42Z</time></trkpt>
<trkpt lat="26.971927" lon="100.060788">
<time>2016-10-07T07:49:43Z</time></trkpt>
<trkpt lat="26.972237" lon="100.060748">
<time>2016-10-07T07:49:44Z</time></trkpt>
<trkpt lat="26.972437" lon="100.060718">
<time>2016-10-07T07:49:45Z</time></trkpt>
<trkpt lat="26.972607" lon="100.060708">
<time>2016-10-07T07:49:46Z</time></trkpt>
<trkpt lat="26.972807" lon="100.060708">
<time>2016-10-07T07:49:47Z</time></trkpt>
<trkpt lat="26.972917" lon="100.060708">
<time>2016-10-07T07:49:48Z</time></trkpt>
<trkpt lat="26.973197" lon="100.060718">
<time>2016-10-07T07:49:49Z</time></trkpt>
<trkpt lat="26.973427" lon="100.060748">
<time>2016-10-07T07:49:50Z</time></trkpt>
<trkpt lat="26.973677" lon="100.060768">
<time>2016-10-07T07:49:51Z</time></trkpt>
<trkpt lat="26.973887" lon="100.060808">
<time>2016-10-07T07:49:52Z</time></trkpt>
<trkpt lat="26.974027" lon="100.060838">
<time>2016-10-07T07:49:53Z</time></trkpt>
<trkpt lat="26.974186" lon="100.060878">
<time>2016-10-07T07:49:54Z</time></trkpt>
<trkpt lat="26.974426" lon="100.060938">
<time>2016-10-07T07:49:55Z</time></trkpt>
<trkpt lat="26.974646" lon="100.060998">
<time>2016-10-07T07:49:56Z</time></trkpt>
<trkpt lat="26.974876" lon="100.061067">
<time>2016-10-07T07:49:57Z</time></trkpt>
<trkpt lat="26.975206" lon="100.061157">
<time>2016-10-07T07:49:58Z</time></trkpt>
<trkpt lat="26.975486" lon="100.061227">
<time>2016-10-07T07:49:59Z</time></trkpt>
<trkpt lat="26.975715" lon="100.061287">
<time>2016-10-07T07:50:00Z</time></trkpt>
<trkpt lat="26.975885" lon="100.061327">
<time>2016-10-07T07:50:01Z</time></trkpt>
<trkpt lat="26.976095" lon="100.061357">
<time>2016-10-07T07:50:02Z</time></trkpt>
<trkpt lat="26.976275" lon="100.061387">
<time>2016-10-07T07:50:03Z</time></trkpt>
<trkpt lat="26.976485" lon="100.061417">
<time>2016-10-07T07:50:04Z</time></trkpt>
<trkpt lat="26.976715" lon="100.061437">
<time>2016-10-07T07:50:05Z</time></trkpt>
<trkpt lat="26.977125" lon="100.061457">
<time>2016-10-07T07:50:06Z</time></trkpt>
<trkpt lat="26.977385" lon="100.061467">
<time>2016-10-07T07:50:07Z</time></trkpt>
<trkpt lat="26.977645" lon="100.061457">
<time>2016-10-07T07:50:08Z</time></trkpt>
<trkpt lat="26.978045" lon="100.061437">
<time>2016-10-07T07:50:09Z</time></trkpt>
<trkpt lat="26.978425" lon="100.061407">
<time>2016-10-07T07:50:10Z</time></trkpt>
<trkpt lat="26.978945" lon="100.061377">
<time>2016-10-07T07:50:11Z</time></trkpt>
<trkpt lat="26.979254" lon="100.061377">
<time>2016-10-07T07:50:12Z</time></trkpt>
<trkpt lat="26.979514" lon="100.061377">
<time>2016-10-07T07:50:13Z</time></trkpt>
<trkpt lat="26.979664" lon="100.061387">
<time>2016-10-07T07:50:14Z</time></trkpt>
<trkpt lat="26.979764" lon="100.061397">
<time>2016-10-07T07:50:15Z</time></trkpt>
<trkpt lat="26.979884" lon="100.061417">
<time>2016-10-07T07:50:16Z</time></trkpt>
<trkpt lat="26.979984" lon="100.061427">
<time>2016-10-07T07:50:17Z</time></trkpt>
<trkpt lat="26.980094" lon="100.061447">
<time>2016-10-07T07:50:18Z</time></trkpt>
<trkpt lat="26.980204" lon="100.061467">
<time>2016-10-07T07:50:19Z</time></trkpt>
<trkpt lat="26.980294" lon="100.061487">
<time>2016-10-07T07:50:20Z</time></trkpt>
<trkpt lat="26.980404" lon="100.061516">
<time>2016-10-07T07:50:21Z</time></trkpt>
<trkpt lat="26.980584" lon="100.061556">
<time>2016-10-07T07:50:22Z</time></trkpt>
<trkpt lat="26.980694" lon="100.061586">
<time>2016-10-07T07:50:23Z</time></trkpt>
<trkpt lat="26.980774" lon="100.061616">
<time>2016-10-07T07:50:24Z</time></trkpt>
<trkpt lat="26.980884" lon="100.061656">
<time>2016-10-07T07:50:25Z</time></trkpt>
<trkpt lat="26.980974" lon="100.061696">
<time>2016-10-07T07:50:26Z</time></trkpt>
<trkpt lat="26.981083" lon="100.061736">
<time>2016-10-07T07:50:27Z</time></trkpt>
<trkpt lat="26.981223" lon="100.061796">
<time>2016-10-07T07:50:28Z</time></trkpt>
<trkpt lat="26.981343" lon="100.061846">
<time>2016-10-07T07:50:29Z</time></trkpt>
<trkpt lat="26.981443" lon="100.061896">
<time>2016-10-07T07:50:30Z</time></trkpt>
<trkpt lat="26.981613" lon="100.061976">
<time>2016-10-07T07:50:31Z</time></trkpt>
<trkpt lat="26.981693" lon="100.062026">
<time>2016-10-07T07:50:32Z</time></trkpt>
<trkpt lat="26.981853" lon="100.062105">
<time>2016-10-07T07:50:33Z</time></trkpt>
<trkpt lat="26.982032" lon="100.062215">
<time>2016-10-07T07:50:34Z</time></trkpt>
<trkpt lat="26.982212" lon="100.062315">
<time>2016-10-07T07:50:35Z</time></trkpt>
<trkpt lat="26.982452" lon="100.062465">
<time>2016-10-07T07:50:36Z</time></trkpt>
<trkpt lat="26.982672" lon="100.062585">
<time>2016-10-07T07:50:37Z</time></trkpt>
<trkpt lat="26.982822" lon="100.062665">
<time>2016-10-07T07:50:38Z</time></trkpt>
<trkpt lat="26.982911" lon="100.062724">
<time>2016-10-07T07:50:39Z</time></trkpt>
<trkpt lat="26.983011" lon="100.062774">
<time>2016-10-07T07:50:40Z</time></trkpt>
<trkpt lat="26.983091" lon="100.062814">
<time>2016-10-07T07:50:41Z</time></trkpt>
<trkpt lat="26.983171" lon="100.062854">
<time>2016-10-07T07:50:42Z</time></trkpt>
<trkpt lat="26.983251" lon="100.062884">
<time>2016-10-07T07:50:43Z</time></trkpt>
<trkpt lat="26.983431" lon="100.062954">
<time>2016-10-07T07:50:44Z</time></trkpt>
<trkpt lat="26.983551" lon="100.063004">
<time>2016-10-07T07:50:45Z</time></trkpt>
<trkpt lat="26.983661" lon="100.063044">
<time>2016-10-07T07:50:46Z</time></trkpt>
<trkpt lat="26.983741" lon="100.063074">
<time>2016-10-07T07:50:47Z</time></trkpt>
<trkpt lat="26.983821" lon="100.063094">
<time>2016-10-07T07:50:48Z</time></trkpt>
<trkpt lat="26.983911" lon="100.063114">
<time>2016-10-07T07:50:49Z</time></trkpt>
<trkpt lat="26.983991" lon="100.063134">
<time>2016-10-07T07:50:50Z</time></trkpt>
<trkpt lat="26.984071" lon="100.063154">
<time>2016-10-07T07:50:51Z</time></trkpt>
<trkpt lat="26.98422" lon="100.063184">
<time>2016-10-07T07:50:52Z</time></trkpt>
<trkpt lat="26.98437" lon="100.063204">
<time>2016-10-07T07:50:53Z</time></trkpt>
<trkpt lat="26.98457" lon="100.063234">
<time>2016-10-07T07:50:54Z</time></trkpt>
<trkpt lat="26.98486" lon="100.063283">
<time>2016-10-07T07:50:55Z</time></trkpt>
<trkpt lat="26.98523" lon="100.063323">
<time>2016-10-07T07:50:56Z</time></trkpt>
<trkpt lat="26.98552" lon="100.063363">
<time>2016-10-07T07:50:57Z</time></trkpt>
<trkpt lat="26.98571" lon="100.063383">
<time>2016-10-07T07:50:58Z</time></trkpt>
<trkpt lat="26.98587" lon="100.063413">
<time>2016-10-07T07:50:59Z</time></trkpt>
<trkpt lat="26.98601" lon="100.063443">
<time>2016-10-07T07:51:00Z</time></trkpt>
<trkpt lat="26.98616" lon="100.063483">
<time>2016-10-07T07:51:01Z</time></trkpt>
<trkpt lat="26.986279" lon="100.063523">
<time>2016-10-07T07:51:02Z</time></trkpt>
<trkpt lat="26.986369" lon="100.063543">
<time>2016-10-07T07:51:03Z</time></trkpt>
<trkpt lat="26.986509" lon="100.063593">
<time>2016-10-07T07:51:04Z</time></trkpt>
<trkpt lat="26.986689" lon="100.063663">
<time>2016-10-07T07:51:05Z</time></trkpt>
<trkpt lat="26.986789" lon="100.063703">
<time>2016-10-07T07:51:06Z</time></trkpt>
<trkpt lat="26.986879" lon="100.063743">
<time>2016-10-07T07:51:07Z</time></trkpt>
<trkpt lat="26.986969" lon="100.063793">
<time>2016-10-07T07:51:08Z</time></trkpt>
<trkpt lat="26.987069" lon="100.063842">
<time>2016-10-07T07:51:09Z</time></trkpt>
<trkpt lat="26.987219" lon="100.063932">
<time>2016-10-07T07:51:10Z</time></trkpt>
<trkpt lat="26.987299" lon="100.063972">
<time>2016-10-07T07:51:11Z</time></trkpt>
<trkpt lat="26.987368" lon="100.064012">
<time>2016-10-07T07:51:12Z</time></trkpt>
<trkpt lat="26.987498" lon="100.064102">
<time>2016-10-07T07:51:13Z</time></trkpt>
<trkpt lat="26.987608" lon="100.064182">
<time>2016-10-07T07:51:14Z</time></trkpt>
<trkpt lat="26.987738" lon="100.064292">
<time>2016-10-07T07:51:15Z</time></trkpt>
<trkpt lat="26.987868" lon="100.064392">
<time>2016-10-07T07:51:16Z</time></trkpt>
<trkpt lat="26.987988" lon="100.064491">
<time>2016-10-07T07:51:17Z</time></trkpt>
<trkpt lat="26.988197" lon="100.064671">
<time>2016-10-07T07:51:18Z</time></trkpt>
<trkpt lat="26.988367" lon="100.064841">
<time>2016-10-07T07:51:19Z</time></trkpt>
<trkpt lat="26.988517" lon="100.064981">
<time>2016-10-07T07:51:20Z</time></trkpt>
<trkpt lat="26.988786" lon="100.06522">
<time>2016-10-07T07:51:21Z</time></trkpt>
<trkpt lat="26.988916" lon="100.06534">
<time>2016-10-07T07:51:22Z</time></trkpt>
<trkpt lat="26.989016" lon="100.06543">
<time>2016-10-07T07:51:23Z</time></trkpt>
<trkpt lat="26.989086" lon="100.06549">
<time>2016-10-07T07:51:24Z</time></trkpt>
<trkpt lat="26.989176" lon="100.06556">
<time>2016-10-07T07:51:25Z</time></trkpt>
<trkpt lat="26.989236" lon="100.06561">
<time>2016-10-07T07:51:26Z</time></trkpt>
<trkpt lat="26.989346" lon="100.06569">
<time>2016-10-07T07:51:27Z</time></trkpt>
<trkpt lat="26.989425" lon="100.06574">
<time>2016-10-07T07:51:28Z</time></trkpt>
<trkpt lat="26.989515" lon="100.065809">
<time>2016-10-07T07:51:29Z</time></trkpt>
<trkpt lat="26.989625" lon="100.065879">
<time>2016-10-07T07:51:30Z</time></trkpt>
<trkpt lat="26.989705" lon="100.065929">
<time>2016-10-07T07:51:31Z</time></trkpt>
<trkpt lat="26.989795" lon="100.065979">
<time>2016-10-07T07:51:32Z</time></trkpt>
<trkpt lat="26.989885" lon="100.066029">
<time>2016-10-07T07:51:33Z</time></trkpt>
<trkpt lat="26.989945" lon="100.066059">
<time>2016-10-07T07:51:34Z</time></trkpt>
<trkpt lat="26.990055" lon="100.066109">
<time>2016-10-07T07:51:35Z</time></trkpt>
<trkpt lat="26.990125" lon="100.066149">
<time>2016-10-07T07:51:36Z</time></trkpt>
<trkpt lat="26.990215" lon="100.066179">
<time>2016-10-07T07:51:37Z</time></trkpt>
<trkpt lat="26.990305" lon="100.066219">
<time>2016-10-07T07:51:38Z</time></trkpt>
<trkpt lat="26.990404" lon="100.066259">
<time>2016-10-07T07:51:39Z</time></trkpt>
<trkpt lat="26.990534" lon="100.066299">
<time>2016-10-07T07:51:40Z</time></trkpt>
<trkpt lat="26.990654" lon="100.066339">
<time>2016-10-07T07:51:41Z</time></trkpt>
<trkpt lat="26.990794" lon="100.066379">
<time>2016-10-07T07:51:42Z</time></trkpt>
<trkpt lat="26.990894" lon="100.066408">
<time>2016-10-07T07:51:43Z</time></trkpt>
<trkpt lat="26.991014" lon="100.066438">
<time>2016-10-07T07:51:44Z</time></trkpt>
<trkpt lat="26.991144" lon="100.066468">
<time>2016-10-07T07:51:45Z</time></trkpt>
<trkpt lat="26.991344" lon="100.066508">
<time>2016-10-07T07:51:46Z</time></trkpt>
<trkpt lat="26.991604" lon="100.066548">
<time>2016-10-07T07:51:47Z</time></trkpt>
<trkpt lat="26.992084" lon="100.066628">
<time>2016-10-07T07:51:48Z</time></trkpt>
<trkpt lat="26.992473" lon="100.066698">
<time>2016-10-07T07:51:49Z</time></trkpt>
<trkpt lat="26.992673" lon="100.066738">
<time>2016-10-07T07:51:50Z</time></trkpt>
<trkpt lat="26.992823" lon="100.066778">
<time>2016-10-07T07:51:51Z</time></trkpt>
<trkpt lat="26.992953" lon="100.066818">
<time>2016-10-07T07:51:52Z</time></trkpt>
<trkpt lat="26.993063" lon="100.066858">
<time>2016-10-07T07:51:53Z</time></trkpt>
<trkpt lat="26.993163" lon="100.066888">
<time>2016-10-07T07:51:54Z</time></trkpt>
<trkpt lat="26.993283" lon="100.066938">
<time>2016-10-07T07:51:55Z</time></trkpt>
<trkpt lat="26.993343" lon="100.066968">
<time>2016-10-07T07:51:56Z</time></trkpt>
<trkpt lat="26.993453" lon="100.067008">
<time>2016-10-07T07:51:57Z</time></trkpt>
<trkpt lat="26.993593" lon="100.067067">
<time>2016-10-07T07:51:58Z</time></trkpt>
<trkpt lat="26.993722" lon="100.067137">
<time>2016-10-07T07:51:59Z</time></trkpt>
<trkpt lat="26.993972" lon="100.067257">
<time>2016-10-07T07:52:00Z</time></trkpt>
<trkpt lat="26.994132" lon="100.067357">
<time>2016-10-07T07:52:01Z</time></trkpt>
<trkpt lat="26.994232" lon="100.067417">
<time>2016-10-07T07:52:02Z</time></trkpt>
<trkpt lat="26.994332" lon="100.067477">
<time>2016-10-07T07:52:03Z</time></trkpt>
<trkpt lat="26.994522" lon="100.067597">
<time>2016-10-07T07:52:04Z</time></trkpt>
<trkpt lat="26.994751" lon="100.067746">
<time>2016-10-07T07:52:05Z</time></trkpt>
<trkpt lat="26.995531" lon="100.068256">
<time>2016-10-07T07:52:06Z</time></trkpt>
<trkpt lat="26.99609" lon="100.068625">
<time>2016-10-07T07:52:07Z</time></trkpt>
<trkpt lat="26.996819" lon="100.069105">
<time>2016-10-07T07:52:08Z</time></trkpt>
<trkpt lat="26.997319" lon="100.069444">
<time>2016-10-07T07:52:09Z</time></trkpt>
<trkpt lat="26.997698" lon="100.069704">
<time>2016-10-07T07:52:10Z</time></trkpt>
<trkpt lat="26.998098" lon="100.069963">
<time>2016-10-07T07:52:11Z</time></trkpt>
<trkpt lat="26.998397" lon="100.070153">
<time>2016-10-07T07:52:12Z</time></trkpt>
<trkpt lat="26.998577" lon="100.070283">
<time>2016-10-07T07:52:13Z</time></trkpt>
<trkpt lat="26.998927" lon="100.070513">
<time>2016-10-07T07:52:14Z</time></trkpt>
<trkpt lat="26.999187" lon="100.070692">
<time>2016-10-07T07:52:15Z</time></trkpt>
<trkpt lat="26.999586" lon="100.070942">
<time>2016-10-07T07:52:16Z</time></trkpt>
<trkpt lat="27.000016" lon="100.071222">
<time>2016-10-07T07:52:17Z</time></trkpt>
<trkpt lat="27.000196" lon="100.071332">
<time>2016-10-07T07:52:18Z</time></trkpt>
<trkpt lat="27.000445" lon="100.071471">
<time>2016-10-07T07:52:19Z</time></trkpt>
<trkpt lat="27.000655" lon="100.071581">
<time>2016-10-07T07:52:20Z</time></trkpt>
<trkpt lat="27.000825" lon="100.071661">
<time>2016-10-07T07:52:21Z</time></trkpt>
<trkpt lat="27.001135" lon="100.071801">
<time>2016-10-07T07:52:22Z</time></trkpt>
<trkpt lat="27.001375" lon="100.071901">
<time>2016-10-07T07:52:23Z</time></trkpt>
<trkpt lat="27.001625" lon="100.072001">
<time>2016-10-07T07:52:24Z</time></trkpt>
<trkpt lat="27.002004" lon="100.072131">
<time>2016-10-07T07:52:25Z</time></trkpt>
<trkpt lat="27.002304" lon="100.07223">
<time>2016-10-07T07:52:26Z</time></trkpt>
<trkpt lat="27.002654" lon="100.07234">
<time>2016-10-07T07:52:27Z</time></trkpt>
<trkpt lat="27.002984" lon="100.07245">
<time>2016-10-07T07:52:28Z</time></trkpt>
<trkpt lat="27.003313" lon="100.07255">
<time>2016-10-07T07:52:29Z</time></trkpt>
<trkpt lat="27.003793" lon="100.0727">
<time>2016-10-07T07:52:30Z</time></trkpt>
<trkpt lat="27.004023" lon="100.07277">
<time>2016-10-07T07:52:31Z</time></trkpt>
<trkpt lat="27.004283" lon="100.07282">
<time>2016-10-07T07:52:32Z</time></trkpt>
<trkpt lat="27.004674" lon="100.071751">
<time>2016-10-07T07:52:33Z</time></trkpt>
<trkpt lat="27.005346" lon="100.069913">
<time>2016-10-07T07:52:34Z</time></trkpt>
<trkpt lat="27.005346" lon="100.069913">
<time>2016-10-07T07:52:35Z</time></trkpt>
<trkpt lat="27.005776" lon="100.070103">
<time>2016-10-07T07:52:36Z</time></trkpt>
<trkpt lat="27.006015" lon="100.070223">
<time>2016-10-07T07:52:37Z</time></trkpt>
<trkpt lat="27.006315" lon="100.070363">
<time>2016-10-07T07:52:38Z</time></trkpt>
<trkpt lat="27.006735" lon="100.070602">
<time>2016-10-07T07:52:39Z</time></trkpt>
<trkpt lat="27.006905" lon="100.070702">
<time>2016-10-07T07:52:40Z</time></trkpt>
<trkpt lat="27.007134" lon="100.070842">
<time>2016-10-07T07:52:41Z</time></trkpt>
<trkpt lat="27.007424" lon="100.071052">
<time>2016-10-07T07:52:42Z</time></trkpt>
<trkpt lat="27.007824" lon="100.071341">
<time>2016-10-07T07:52:43Z</time></trkpt>
<trkpt lat="27.008033" lon="100.071481">
<time>2016-10-07T07:52:44Z</time></trkpt>
<trkpt lat="27.008203" lon="100.071601">
<time>2016-10-07T07:52:45Z</time></trkpt>
<trkpt lat="27.008473" lon="100.071771">
<time>2016-10-07T07:52:46Z</time></trkpt>
<trkpt lat="27.008783" lon="100.071951">
<time>2016-10-07T07:52:47Z</time></trkpt>
<trkpt lat="27.009053" lon="100.0721">
<time>2016-10-07T07:52:48Z</time></trkpt>
<trkpt lat="27.009422" lon="100.0723">
<time>2016-10-07T07:52:49Z</time></trkpt>
<trkpt lat="27.009572" lon="100.07237">
<time>2016-10-07T07:52:50Z</time></trkpt>
<trkpt lat="27.009702" lon="100.07243">
<time>2016-10-07T07:52:51Z</time></trkpt>
<trkpt lat="27.009812" lon="100.07247">
<time>2016-10-07T07:52:52Z</time></trkpt>
<trkpt lat="27.009902" lon="100.0725">
<time>2016-10-07T07:52:53Z</time></trkpt>
<trkpt lat="27.010072" lon="100.07255">
<time>2016-10-07T07:52:54Z</time></trkpt>
<trkpt lat="27.010372" lon="100.07263">
<time>2016-10-07T07:52:55Z</time></trkpt>
<trkpt lat="27.010801" lon="100.07273">
<time>2016-10-07T07:52:56Z</time></trkpt>
<trkpt lat="27.011171" lon="100.07281">
<time>2016-10-07T07:52:57Z</time></trkpt>
<trkpt lat="27.011531" lon="100.072899">
<time>2016-10-07T07:52:58Z</time></trkpt>
<trkpt lat="27.011751" lon="100.072959">
<time>2016-10-07T07:52:59Z</time></trkpt>
<trkpt lat="27.012221" lon="100.073049">
<time>2016-10-07T07:53:00Z</time></trkpt>
<trkpt lat="27.01318" lon="100.073259">
<time>2016-10-07T07:53:01Z</time></trkpt>
<trkpt lat="27.01371" lon="100.073379">
<time>2016-10-07T07:53:02Z</time></trkpt>
<trkpt lat="27.01414" lon="100.073469">
<time>2016-10-07T07:53:03Z</time></trkpt>
<trkpt lat="27.01457" lon="100.073569">
<time>2016-10-07T07:53:04Z</time></trkpt>
<trkpt lat="27.015179" lon="100.073708">
<time>2016-10-07T07:53:05Z</time></trkpt>
<trkpt lat="27.015499" lon="100.073778">
<time>2016-10-07T07:53:06Z</time></trkpt>
<trkpt lat="27.015889" lon="100.073868">
<time>2016-10-07T07:53:07Z</time></trkpt>
<trkpt lat="27.016209" lon="100.073948">
<time>2016-10-07T07:53:08Z</time></trkpt>
<trkpt lat="27.016429" lon="100.073988">
<time>2016-10-07T07:53:09Z</time></trkpt>
<trkpt lat="27.016868" lon="100.074088">
<time>2016-10-07T07:53:10Z</time></trkpt>
<trkpt lat="27.017498" lon="100.074218">
<time>2016-10-07T07:53:11Z</time></trkpt>
<trkpt lat="27.017718" lon="100.074258">
<time>2016-10-07T07:53:12Z</time></trkpt>
<trkpt lat="27.017928" lon="100.074278">
<time>2016-10-07T07:53:13Z</time></trkpt>
<trkpt lat="27.018098" lon="100.074288">
<time>2016-10-07T07:53:14Z</time></trkpt>
<trkpt lat="27.018268" lon="100.074288">
<time>2016-10-07T07:53:15Z</time></trkpt>
<trkpt lat="27.018438" lon="100.074278">
<time>2016-10-07T07:53:16Z</time></trkpt>
<trkpt lat="27.018698" lon="100.074258">
<time>2016-10-07T07:53:17Z</time></trkpt>
<trkpt lat="27.018848" lon="100.074238">
<time>2016-10-07T07:53:18Z</time></trkpt>
<trkpt lat="27.019048" lon="100.074208">
<time>2016-10-07T07:53:19Z</time></trkpt>
<trkpt lat="27.019288" lon="100.074148">
<time>2016-10-07T07:53:20Z</time></trkpt>
<trkpt lat="27.019478" lon="100.074088">
<time>2016-10-07T07:53:21Z</time></trkpt>
<trkpt lat="27.019658" lon="100.074018">
<time>2016-10-07T07:53:22Z</time></trkpt>
<trkpt lat="27.019848" lon="100.073928">
<time>2016-10-07T07:53:23Z</time></trkpt>
<trkpt lat="27.020068" lon="100.073818">
<time>2016-10-07T07:53:24Z</time></trkpt>
<trkpt lat="27.020198" lon="100.073748">
<time>2016-10-07T07:53:25Z</time></trkpt>
<trkpt lat="27.020328" lon="100.073668">
<time>2016-10-07T07:53:26Z</time></trkpt>
<trkpt lat="27.020458" lon="100.073578">
<time>2016-10-07T07:53:27Z</time></trkpt>
<trkpt lat="27.020568" lon="100.073499">
<time>2016-10-07T07:53:28Z</time></trkpt>
<trkpt lat="27.020738" lon="100.073349">
<time>2016-10-07T07:53:29Z</time></trkpt>
<trkpt lat="27.020898" lon="100.073209">
<time>2016-10-07T07:53:30Z</time></trkpt>
<trkpt lat="27.021208" lon="100.072909">
<time>2016-10-07T07:53:31Z</time></trkpt>
<trkpt lat="27.021489" lon="100.072639">
<time>2016-10-07T07:53:32Z</time></trkpt>
<trkpt lat="27.022009" lon="100.07209">
<time>2016-10-07T07:53:33Z</time></trkpt>
<trkpt lat="27.02261" lon="100.071451">
<time>2016-10-07T07:53:34Z</time></trkpt>
<trkpt lat="27.02294" lon="100.071101">
<time>2016-10-07T07:53:35Z</time></trkpt>
<trkpt lat="27.02319" lon="100.070832">
<time>2016-10-07T07:53:36Z</time></trkpt>
<trkpt lat="27.02338" lon="100.070642">
<time>2016-10-07T07:53:37Z</time></trkpt>
<trkpt lat="27.023501" lon="100.070522">
<time>2016-10-07T07:53:38Z</time></trkpt>
<trkpt lat="27.023631" lon="100.070392">
<time>2016-10-07T07:53:39Z</time></trkpt>
<trkpt lat="27.023751" lon="100.070292">
<time>2016-10-07T07:53:40Z</time></trkpt>
<trkpt lat="27.023921" lon="100.070142">
<time>2016-10-07T07:53:41Z</time></trkpt>
<trkpt lat="27.024191" lon="100.069913">
<time>2016-10-07T07:53:42Z</time></trkpt>
<trkpt lat="27.024481" lon="100.069683">
<time>2016-10-07T07:53:43Z</time></trkpt>
<trkpt lat="27.024641" lon="100.069573">
<time>2016-10-07T07:53:44Z</time></trkpt>
<trkpt lat="27.024772" lon="100.069453">
<time>2016-10-07T07:53:45Z</time></trkpt>
<trkpt lat="27.024952" lon="100.069324">
<time>2016-10-07T07:53:46Z</time></trkpt>
<trkpt lat="27.025112" lon="100.069204">
<time>2016-10-07T07:53:47Z</time></trkpt>
<trkpt lat="27.025302" lon="100.069054">
<time>2016-10-07T07:53:48Z</time></trkpt>
<trkpt lat="27.025492" lon="100.068914">
<time>2016-10-07T07:53:49Z</time></trkpt>
<trkpt lat="27.025652" lon="100.068784">
<time>2016-10-07T07:53:50Z</time></trkpt>
<trkpt lat="27.025822" lon="100.068654">
<time>2016-10-07T07:53:51Z</time></trkpt>
<trkpt lat="27.026303" lon="100.068285">
<time>2016-10-07T07:53:52Z</time></trkpt>
<trkpt lat="27.026623" lon="100.068035">
<time>2016-10-07T07:53:53Z</time></trkpt>
<trkpt lat="27.027073" lon="100.067686">
<time>2016-10-07T07:53:54Z</time></trkpt>
<trkpt lat="27.027463" lon="100.067396">
<time>2016-10-07T07:53:55Z</time></trkpt>
<trkpt lat="27.027824" lon="100.067116">
<time>2016-10-07T07:53:56Z</time></trkpt>
<trkpt lat="27.028044" lon="100.066957">
<time>2016-10-07T07:53:57Z</time></trkpt>
<trkpt lat="27.028194" lon="100.066857">
<time>2016-10-07T07:53:58Z</time></trkpt>
<trkpt lat="27.028274" lon="100.066807">
<time>2016-10-07T07:53:59Z</time></trkpt>
<trkpt lat="27.028424" lon="100.066717">
<time>2016-10-07T07:54:00Z</time></trkpt>
<trkpt lat="27.028544" lon="100.066647">
<time>2016-10-07T07:54:01Z</time></trkpt>
<trkpt lat="27.028724" lon="100.066567">
<time>2016-10-07T07:54:02Z</time></trkpt>
<trkpt lat="27.028904" lon="100.066477">
<time>2016-10-07T07:54:03Z</time></trkpt>
<trkpt lat="27.029124" lon="100.066378">
<time>2016-10-07T07:54:04Z</time></trkpt>
<trkpt lat="27.029655" lon="100.066138">
<time>2016-10-07T07:54:05Z</time></trkpt>
<trkpt lat="27.029895" lon="100.066028">
<time>2016-10-07T07:54:06Z</time></trkpt>
<trkpt lat="27.030075" lon="100.065948">
<time>2016-10-07T07:54:07Z</time></trkpt>
<trkpt lat="27.030235" lon="100.065868">
<time>2016-10-07T07:54:08Z</time></trkpt>
<trkpt lat="27.030495" lon="100.065758">
<time>2016-10-07T07:54:09Z</time></trkpt>
<trkpt lat="27.030885" lon="100.065589">
<time>2016-10-07T07:54:10Z</time></trkpt>
<trkpt lat="27.031295" lon="100.065409">
<time>2016-10-07T07:54:11Z</time></trkpt>
<trkpt lat="27.031645" lon="100.065259">
<time>2016-10-07T07:54:12Z</time></trkpt>
<trkpt lat="27.031875" lon="100.065179">
<time>2016-10-07T07:54:13Z</time></trkpt>
<trkpt lat="27.032055" lon="100.065119">
<time>2016-10-07T07:54:14Z</time></trkpt>
<trkpt lat="27.032205" lon="100.065079">
<time>2016-10-07T07:54:15Z</time></trkpt>
<trkpt lat="27.032725" lon="100.06494">
<time>2016-10-07T07:54:16Z</time></trkpt>
<trkpt lat="27.033225" lon="100.06482">
<time>2016-10-07T07:54:17Z</time></trkpt>
<trkpt lat="27.033636" lon="100.06471">
<time>2016-10-07T07:54:18Z</time></trkpt>
<trkpt lat="27.033936" lon="100.06464">
<time>2016-10-07T07:54:19Z</time></trkpt>
<trkpt lat="27.034176" lon="100.06458">
<time>2016-10-07T07:54:20Z</time></trkpt>
<trkpt lat="27.034376" lon="100.06454">
<time>2016-10-07T07:54:21Z</time></trkpt>
<trkpt lat="27.034496" lon="100.06453">
<time>2016-10-07T07:54:22Z</time></trkpt>
<trkpt lat="27.034606" lon="100.06452">
<time>2016-10-07T07:54:23Z</time></trkpt>
<trkpt lat="27.034746" lon="100.06451">
<time>2016-10-07T07:54:24Z</time></trkpt>
<trkpt lat="27.034846" lon="100.06451">
<time>2016-10-07T07:54:25Z</time></trkpt>
<trkpt lat="27.035015" lon="100.06451">
<time>2016-10-07T07:54:26Z</time></trkpt>
<trkpt lat="27.035145" lon="100.06453">
<time>2016-10-07T07:54:27Z</time></trkpt>
<trkpt lat="27.035245" lon="100.06454">
<time>2016-10-07T07:54:28Z</time></trkpt>
<trkpt lat="27.035365" lon="100.06456">
<time>2016-10-07T07:54:29Z</time></trkpt>
<trkpt lat="27.035485" lon="100.06459">
<time>2016-10-07T07:54:30Z</time></trkpt>
<trkpt lat="27.035585" lon="100.06461">
<time>2016-10-07T07:54:31Z</time></trkpt>
<trkpt lat="27.035735" lon="100.06466">
<time>2016-10-07T07:54:32Z</time></trkpt>
<trkpt lat="27.035925" lon="100.06474">
<time>2016-10-07T07:54:33Z</time></trkpt>
<trkpt lat="27.036085" lon="100.06481">
<time>2016-10-07T07:54:34Z</time></trkpt>
<trkpt lat="27.036275" lon="100.06491">
<time>2016-10-07T07:54:35Z</time></trkpt>
<trkpt lat="27.036424" lon="100.064999">
<time>2016-10-07T07:54:36Z</time></trkpt>
<trkpt lat="27.036664" lon="100.065139">
<time>2016-10-07T07:54:37Z</time></trkpt>
<trkpt lat="27.037044" lon="100.065379">
<time>2016-10-07T07:54:38Z</time></trkpt>
<trkpt lat="27.037333" lon="100.065568">
<time>2016-10-07T07:54:39Z</time></trkpt>
<trkpt lat="27.037543" lon="100.065698">
<time>2016-10-07T07:54:40Z</time></trkpt>
<trkpt lat="27.037713" lon="100.065798">
<time>2016-10-07T07:54:41Z</time></trkpt>
<trkpt lat="27.038043" lon="100.065988">
<time>2016-10-07T07:54:42Z</time></trkpt>
<trkpt lat="27.038282" lon="100.066118">
<time>2016-10-07T07:54:43Z</time></trkpt>
<trkpt lat="27.038442" lon="100.066198">
<time>2016-10-07T07:54:44Z</time></trkpt>
<trkpt lat="27.038742" lon="100.066357">
<time>2016-10-07T07:54:45Z</time></trkpt>
<trkpt lat="27.039112" lon="100.066537">
<time>2016-10-07T07:54:46Z</time></trkpt>
<trkpt lat="27.039251" lon="100.066607">
<time>2016-10-07T07:54:47Z</time></trkpt>
<trkpt lat="27.039721" lon="100.066827">
<time>2016-10-07T07:54:48Z</time></trkpt>
<trkpt lat="27.039941" lon="100.066926">
<time>2016-10-07T07:54:49Z</time></trkpt>
<trkpt lat="27.040111" lon="100.067016">
<time>2016-10-07T07:54:50Z</time></trkpt>
<trkpt lat="27.0404" lon="100.067156">
<time>2016-10-07T07:54:51Z</time></trkpt>
<trkpt lat="27.04079" lon="100.067346">
<time>2016-10-07T07:54:52Z</time></trkpt>
<trkpt lat="27.041369" lon="100.067635">
<time>2016-10-07T07:54:53Z</time></trkpt>
<trkpt lat="27.041919" lon="100.067905">
<time>2016-10-07T07:54:54Z</time></trkpt>
<trkpt lat="27.042199" lon="100.068045">
<time>2016-10-07T07:54:55Z</time></trkpt>
<trkpt lat="27.042429" lon="100.068165">
<time>2016-10-07T07:54:56Z</time></trkpt>
<trkpt lat="27.042538" lon="100.068225">
<time>2016-10-07T07:54:57Z</time></trkpt>
<trkpt lat="27.042868" lon="100.068414">
<time>2016-10-07T07:54:58Z</time></trkpt>
<trkpt lat="27.043088" lon="100.068554">
<time>2016-10-07T07:54:59Z</time></trkpt>
<trkpt lat="27.043208" lon="100.068624">
<time>2016-10-07T07:55:00Z</time></trkpt>
<trkpt lat="27.043328" lon="100.068704">
<time>2016-10-07T07:55:01Z</time></trkpt>
<trkpt lat="27.043437" lon="100.068774">
<time>2016-10-07T07:55:02Z</time></trkpt>
<trkpt lat="27.043607" lon="100.068894">
<time>2016-10-07T07:55:03Z</time></trkpt>
<trkpt lat="27.043877" lon="100.069083">
<time>2016-10-07T07:55:04Z</time></trkpt>
<trkpt lat="27.044117" lon="100.069253">
<time>2016-10-07T07:55:05Z</time></trkpt>
<trkpt lat="27.044227" lon="100.069333">
<time>2016-10-07T07:55:06Z</time></trkpt>
<trkpt lat="27.044466" lon="100.069493">
<time>2016-10-07T07:55:07Z</time></trkpt>
<trkpt lat="27.044636" lon="100.069613">
<time>2016-10-07T07:55:08Z</time></trkpt>
<trkpt lat="27.044756" lon="100.069692">
<time>2016-10-07T07:55:09Z</time></trkpt>
<trkpt lat="27.045046" lon="100.069892">
<time>2016-10-07T07:55:10Z</time></trkpt>
<trkpt lat="27.045295" lon="100.070082">
<time>2016-10-07T07:55:11Z</time></trkpt>
<trkpt lat="27.045595" lon="100.070282">
<time>2016-10-07T07:55:12Z</time></trkpt>
<trkpt lat="27.045795" lon="100.070432">
<time>2016-10-07T07:55:13Z</time></trkpt>
<trkpt lat="27.045955" lon="100.070541">
<time>2016-10-07T07:55:14Z</time></trkpt>
<trkpt lat="27.046114" lon="100.070661">
<time>2016-10-07T07:55:15Z</time></trkpt>
<trkpt lat="27.046424" lon="100.070901">
<time>2016-10-07T07:55:16Z</time></trkpt>
<trkpt lat="27.046634" lon="100.071061">
<time>2016-10-07T07:55:17Z</time></trkpt>
<trkpt lat="27.046834" lon="100.07123">
<time>2016-10-07T07:55:18Z</time></trkpt>
<trkpt lat="27.046973" lon="100.07134">
<time>2016-10-07T07:55:19Z</time></trkpt>
<trkpt lat="27.047123" lon="100.07148">
<time>2016-10-07T07:55:20Z</time></trkpt>
<trkpt lat="27.047383" lon="100.07172">
<time>2016-10-07T07:55:21Z</time></trkpt>
<trkpt lat="27.047523" lon="100.07186">
<time>2016-10-07T07:55:22Z</time></trkpt>
<trkpt lat="27.047792" lon="100.072139">
<time>2016-10-07T07:55:23Z</time></trkpt>
<trkpt lat="27.047932" lon="100.072279">
<time>2016-10-07T07:55:24Z</time></trkpt>
<trkpt lat="27.048162" lon="100.072519">
<time>2016-10-07T07:55:25Z</time></trkpt>
<trkpt lat="27.048521" lon="100.072918">
<time>2016-10-07T07:55:26Z</time></trkpt>
<trkpt lat="27.048851" lon="100.073278">
<time>2016-10-07T07:55:27Z</time></trkpt>
<trkpt lat="27.04911" lon="100.073548">
<time>2016-10-07T07:55:28Z</time></trkpt>
<trkpt lat="27.04924" lon="100.073688">
<time>2016-10-07T07:55:29Z</time></trkpt>
<trkpt lat="27.04939" lon="100.073817">
<time>2016-10-07T07:55:30Z</time></trkpt>
<trkpt lat="27.04956" lon="100.073957">
<time>2016-10-07T07:55:31Z</time></trkpt>
<trkpt lat="27.0497" lon="100.074067">
<time>2016-10-07T07:55:32Z</time></trkpt>
<trkpt lat="27.04984" lon="100.074167">
<time>2016-10-07T07:55:33Z</time></trkpt>
<trkpt lat="27.04997" lon="100.074247">
<time>2016-10-07T07:55:34Z</time></trkpt>
<trkpt lat="27.050049" lon="100.074297">
<time>2016-10-07T07:55:35Z</time></trkpt>
<trkpt lat="27.050119" lon="100.074337">
<time>2016-10-07T07:55:36Z</time></trkpt>
<trkpt lat="27.050169" lon="100.074357">
<time>2016-10-07T07:55:37Z</time></trkpt>
<trkpt lat="27.050239" lon="100.074397">
<time>2016-10-07T07:55:38Z</time></trkpt>
<trkpt lat="27.050319" lon="100.074427">
<time>2016-10-07T07:55:39Z</time></trkpt>
<trkpt lat="27.050419" lon="100.074467">
<time>2016-10-07T07:55:40Z</time></trkpt>
<trkpt lat="27.050569" lon="100.074527">
<time>2016-10-07T07:55:41Z</time></trkpt>
<trkpt lat="27.050769" lon="100.074587">
<time>2016-10-07T07:55:42Z</time></trkpt>
<trkpt lat="27.050909" lon="100.074616">
<time>2016-10-07T07:55:43Z</time></trkpt>
<trkpt lat="27.051059" lon="100.074656">
<time>2016-10-07T07:55:44Z</time></trkpt>
<trkpt lat="27.051189" lon="100.074676">
<time>2016-10-07T07:55:45Z</time></trkpt>
<trkpt lat="27.051339" lon="100.074696">
<time>2016-10-07T07:55:46Z</time></trkpt>
<trkpt lat="27.051459" lon="100.074706">
<time>2016-10-07T07:55:47Z</time></trkpt>
<trkpt lat="27.051529" lon="100.074706">
<time>2016-10-07T07:55:48Z</time></trkpt>
<trkpt lat="27.051609" lon="100.074706">
<time>2016-10-07T07:55:49Z</time></trkpt>
<trkpt lat="27.051729" lon="100.074706">
<time>2016-10-07T07:55:50Z</time></trkpt>
<trkpt lat="27.051849" lon="100.074706">
<time>2016-10-07T07:55:51Z</time></trkpt>
<trkpt lat="27.051919" lon="100.074696">
<time>2016-10-07T07:55:52Z</time></trkpt>
<trkpt lat="27.052009" lon="100.074686">
<time>2016-10-07T07:55:53Z</time></trkpt>
<trkpt lat="27.052139" lon="100.074676">
<time>2016-10-07T07:55:54Z</time></trkpt>
<trkpt lat="27.052309" lon="100.074646">
<time>2016-10-07T07:55:55Z</time></trkpt>
<trkpt lat="27.052458" lon="100.074616">
<time>2016-10-07T07:55:56Z</time></trkpt>
<trkpt lat="27.052578" lon="100.074596">
<time>2016-10-07T07:55:57Z</time></trkpt>
<trkpt lat="27.052658" lon="100.074576">
<time>2016-10-07T07:55:58Z</time></trkpt>
<trkpt lat="27.052868" lon="100.074527">
<time>2016-10-07T07:55:59Z</time></trkpt>
<trkpt lat="27.053028" lon="100.074487">
<time>2016-10-07T07:56:00Z</time></trkpt>
<trkpt lat="27.053228" lon="100.074427">
<time>2016-10-07T07:56:01Z</time></trkpt>
<trkpt lat="27.053428" lon="100.074377">
<time>2016-10-07T07:56:02Z</time></trkpt>
<trkpt lat="27.053618" lon="100.074327">
<time>2016-10-07T07:56:03Z</time></trkpt>
<trkpt lat="27.053958" lon="100.074247">
<time>2016-10-07T07:56:04Z</time></trkpt>
<trkpt lat="27.054288" lon="100.074177">
<time>2016-10-07T07:56:05Z</time></trkpt>
<trkpt lat="27.054508" lon="100.074117">
<time>2016-10-07T07:56:06Z</time></trkpt>
<trkpt lat="27.054688" lon="100.074077">
<time>2016-10-07T07:56:07Z</time></trkpt>
<trkpt lat="27.054848" lon="100.074037">
<time>2016-10-07T07:56:08Z</time></trkpt>
<trkpt lat="27.055508" lon="100.073857">
<time>2016-10-07T07:56:09Z</time></trkpt>
<trkpt lat="27.055798" lon="100.073787">
<time>2016-10-07T07:56:10Z</time></trkpt>
<trkpt lat="27.056798" lon="100.073538">
<time>2016-10-07T07:56:11Z</time></trkpt>
<trkpt lat="27.057848" lon="100.073278">
<time>2016-10-07T07:56:12Z</time></trkpt>
<trkpt lat="27.058518" lon="100.073108">
<time>2016-10-07T07:56:13Z</time></trkpt>
<trkpt lat="27.059238" lon="100.072928">
<time>2016-10-07T07:56:14Z</time></trkpt>
<trkpt lat="27.059708" lon="100.072818">
<time>2016-10-07T07:56:15Z</time></trkpt>
<trkpt lat="27.060108" lon="100.072718">
<time>2016-10-07T07:56:16Z</time></trkpt>
<trkpt lat="27.060378" lon="100.072648">
<time>2016-10-07T07:56:17Z</time></trkpt>
<trkpt lat="27.060848" lon="100.072529">
<time>2016-10-07T07:56:18Z</time></trkpt>
<trkpt lat="27.061398" lon="100.072389">
<time>2016-10-07T07:56:19Z</time></trkpt>
<trkpt lat="27.062218" lon="100.072189">
<time>2016-10-07T07:56:20Z</time></trkpt>
<trkpt lat="27.063008" lon="100.071999">
<time>2016-10-07T07:56:21Z</time></trkpt>
<trkpt lat="27.063418" lon="100.071899">
<time>2016-10-07T07:56:22Z</time></trkpt>
<trkpt lat="27.063658" lon="100.071849">
<time>2016-10-07T07:56:23Z</time></trkpt>
<trkpt lat="27.063848" lon="100.071809">
<time>2016-10-07T07:56:24Z</time></trkpt>
<trkpt lat="27.064078" lon="100.071769">
<time>2016-10-07T07:56:25Z</time></trkpt>
<trkpt lat="27.064338" lon="100.071739">
<time>2016-10-07T07:56:26Z</time></trkpt>
<trkpt lat="27.064748" lon="100.071699">
<time>2016-10-07T07:56:27Z</time></trkpt>
<trkpt lat="27.064998" lon="100.071679">
<time>2016-10-07T07:56:28Z</time></trkpt>
<trkpt lat="27.065268" lon="100.071679">
<time>2016-10-07T07:56:29Z</time></trkpt>
<trkpt lat="27.065548" lon="100.071679">
<time>2016-10-07T07:56:30Z</time></trkpt>
<trkpt lat="27.065798" lon="100.071679">
<time>2016-10-07T07:56:31Z</time></trkpt>
<trkpt lat="27.066238" lon="100.071699">
<time>2016-10-07T07:56:32Z</time></trkpt>
<trkpt lat="27.066608" lon="100.071709">
<time>2016-10-07T07:56:33Z</time></trkpt>
<trkpt lat="27.067148" lon="100.071709">
<time>2016-10-07T07:56:34Z</time></trkpt>
<trkpt lat="27.067508" lon="100.071709">
<time>2016-10-07T07:56:35Z</time></trkpt>
<trkpt lat="27.067698" lon="100.071699">
<time>2016-10-07T07:56:36Z</time></trkpt>
<trkpt lat="27.067848" lon="100.071689">
<time>2016-10-07T07:56:37Z</time></trkpt>
<trkpt lat="27.068057" lon="100.071669">
<time>2016-10-07T07:56:38Z</time></trkpt>
<trkpt lat="27.068217" lon="100.071639">
<time>2016-10-07T07:56:39Z</time></trkpt>
<trkpt lat="27.068407" lon="100.071599">
<time>2016-10-07T07:56:40Z</time></trkpt>
<trkpt lat="27.068577" lon="100.07155">
<time>2016-10-07T07:56:41Z</time></trkpt>
<trkpt lat="27.068827" lon="100.07148">
<time>2016-10-07T07:56:42Z</time></trkpt>
<trkpt lat="27.069007" lon="100.07143">
<time>2016-10-07T07:56:43Z</time></trkpt>
<trkpt lat="27.069268" lon="100.07134">
<time>2016-10-07T07:56:44Z</time></trkpt>
<trkpt lat="27.069468" lon="100.07127">
<time>2016-10-07T07:56:45Z</time></trkpt>
<trkpt lat="27.069698" lon="100.07119">
<time>2016-10-07T07:56:46Z</time></trkpt>
<trkpt lat="27.069948" lon="100.07111">
<time>2016-10-07T07:56:47Z</time></trkpt>
<trkpt lat="27.070308" lon="100.07098">
<time>2016-10-07T07:56:48Z</time></trkpt>
<trkpt lat="27.070668" lon="100.07086">
<time>2016-10-07T07:56:49Z</time></trkpt>
<trkpt lat="27.071108" lon="100.07072">
<time>2016-10-07T07:56:50Z</time></trkpt>
<trkpt lat="27.071428" lon="100.070611">
<time>2016-10-07T07:56:51Z</time></trkpt>
<trkpt lat="27.071728" lon="100.070511">
<time>2016-10-07T07:56:52Z</time></trkpt>
<trkpt lat="27.071918" lon="100.070431">
<time>2016-10-07T07:56:53Z</time></trkpt>
<trkpt lat="27.072098" lon="100.070341">
<time>2016-10-07T07:56:54Z</time></trkpt>
<trkpt lat="27.072228" lon="100.070251">
<time>2016-10-07T07:56:55Z</time></trkpt>
<trkpt lat="27.072338" lon="100.070171">
<time>2016-10-07T07:56:56Z</time></trkpt>
<trkpt lat="27.072458" lon="100.070081">
<time>2016-10-07T07:56:57Z</time></trkpt>
<trkpt lat="27.072578" lon="100.069971">
<time>2016-10-07T07:56:58Z</time></trkpt>
<trkpt lat="27.072638" lon="100.069911">
<time>2016-10-07T07:56:59Z</time></trkpt>
<trkpt lat="27.072698" lon="100.069852">
<time>2016-10-07T07:57:00Z</time></trkpt>
<trkpt lat="27.072778" lon="100.069752">
<time>2016-10-07T07:57:01Z</time></trkpt>
<trkpt lat="27.072849" lon="100.069662">
<time>2016-10-07T07:57:02Z</time></trkpt>
<trkpt lat="27.072929" lon="100.069552">
<time>2016-10-07T07:57:03Z</time></trkpt>
<trkpt lat="27.072969" lon="100.069482">
<time>2016-10-07T07:57:04Z</time></trkpt>
<trkpt lat="27.073029" lon="100.069392">
<time>2016-10-07T07:57:05Z</time></trkpt>
<trkpt lat="27.073109" lon="100.069252">
<time>2016-10-07T07:57:06Z</time></trkpt>
<trkpt lat="27.073169" lon="100.069132">
<time>2016-10-07T07:57:07Z</time></trkpt>
<trkpt lat="27.073219" lon="100.069013">
<time>2016-10-07T07:57:08Z</time></trkpt>
<trkpt lat="27.07335" lon="100.068743">
<time>2016-10-07T07:57:09Z</time></trkpt>
<trkpt lat="27.07351" lon="100.068354">
<time>2016-10-07T07:57:10Z</time></trkpt>
<trkpt lat="27.07364" lon="100.068064">
<time>2016-10-07T07:57:11Z</time></trkpt>
<trkpt lat="27.073781" lon="100.067764">
<time>2016-10-07T07:57:12Z</time></trkpt>
<trkpt lat="27.073871" lon="100.067575">
<time>2016-10-07T07:57:13Z</time></trkpt>
<trkpt lat="27.073911" lon="100.067485">
<time>2016-10-07T07:57:14Z</time></trkpt>
<trkpt lat="27.073961" lon="100.067385">
<time>2016-10-07T07:57:15Z</time></trkpt>
<trkpt lat="27.074031" lon="100.067245">
<time>2016-10-07T07:57:16Z</time></trkpt>
<trkpt lat="27.074081" lon="100.067165">
<time>2016-10-07T07:57:17Z</time></trkpt>
<trkpt lat="27.074142" lon="100.067065">
<time>2016-10-07T07:57:18Z</time></trkpt>
<trkpt lat="27.074222" lon="100.066955">
<time>2016-10-07T07:57:19Z</time></trkpt>
<trkpt lat="27.074322" lon="100.066816">
<time>2016-10-07T07:57:20Z</time></trkpt>
<trkpt lat="27.074432" lon="100.066686">
<time>2016-10-07T07:57:21Z</time></trkpt>
<trkpt lat="27.074532" lon="100.066586">
<time>2016-10-07T07:57:22Z</time></trkpt>
<trkpt lat="27.074662" lon="100.066456">
<time>2016-10-07T07:57:23Z</time></trkpt>
<trkpt lat="27.074772" lon="100.066346">
<time>2016-10-07T07:57:24Z</time></trkpt>
<trkpt lat="27.074952" lon="100.066187">
<time>2016-10-07T07:57:25Z</time></trkpt>
<trkpt lat="27.075143" lon="100.066027">
<time>2016-10-07T07:57:26Z</time></trkpt>
<trkpt lat="27.075253" lon="100.065917">
<time>2016-10-07T07:57:27Z</time></trkpt>
<trkpt lat="27.075363" lon="100.065827">
<time>2016-10-07T07:57:28Z</time></trkpt>
<trkpt lat="27.075503" lon="100.065687">
<time>2016-10-07T07:57:29Z</time></trkpt>
<trkpt lat="27.075613" lon="100.065577">
<time>2016-10-07T07:57:30Z</time></trkpt>
<trkpt lat="27.075703" lon="100.065488">
<time>2016-10-07T07:57:31Z</time></trkpt>
<trkpt lat="27.075763" lon="100.065408">
<time>2016-10-07T07:57:32Z</time></trkpt>
<trkpt lat="27.075843" lon="100.065298">
<time>2016-10-07T07:57:33Z</time></trkpt>
<trkpt lat="27.075904" lon="100.065218">
<time>2016-10-07T07:57:34Z</time></trkpt>
<trkpt lat="27.075944" lon="100.065148">
<time>2016-10-07T07:57:35Z</time></trkpt>
<trkpt lat="27.075994" lon="100.065078">
<time>2016-10-07T07:57:36Z</time></trkpt>
<trkpt lat="27.076154" lon="100.064799">
<time>2016-10-07T07:57:37Z</time></trkpt>
<trkpt lat="27.076304" lon="100.064519">
<time>2016-10-07T07:57:38Z</time></trkpt>
<trkpt lat="27.076445" lon="100.064279">
<time>2016-10-07T07:57:39Z</time></trkpt>
<trkpt lat="27.076495" lon="100.0642">
<time>2016-10-07T07:57:40Z</time></trkpt>
<trkpt lat="27.076555" lon="100.06412">
<time>2016-10-07T07:57:41Z</time></trkpt>
<trkpt lat="27.076625" lon="100.06402">
<time>2016-10-07T07:57:42Z</time></trkpt>
<trkpt lat="27.076695" lon="100.06393">
<time>2016-10-07T07:57:43Z</time></trkpt>
<trkpt lat="27.076825" lon="100.0638">
<time>2016-10-07T07:57:44Z</time></trkpt>
<trkpt lat="27.076966" lon="100.06367">
<time>2016-10-07T07:57:45Z</time></trkpt>
<trkpt lat="27.077076" lon="100.063581">
<time>2016-10-07T07:57:46Z</time></trkpt>
<trkpt lat="27.077206" lon="100.063491">
<time>2016-10-07T07:57:47Z</time></trkpt>
<trkpt lat="27.077376" lon="100.063391">
<time>2016-10-07T07:57:48Z</time></trkpt>
<trkpt lat="27.077536" lon="100.063321">
<time>2016-10-07T07:57:49Z</time></trkpt>
<trkpt lat="27.077756" lon="100.063221">
<time>2016-10-07T07:57:50Z</time></trkpt>
<trkpt lat="27.078066" lon="100.063081">
<time>2016-10-07T07:57:51Z</time></trkpt>
<trkpt lat="27.078526" lon="100.062892">
<time>2016-10-07T07:57:52Z</time></trkpt>
<trkpt lat="27.079066" lon="100.062652">
<time>2016-10-07T07:57:53Z</time></trkpt>
<trkpt lat="27.079367" lon="100.062532">
<time>2016-10-07T07:57:54Z</time></trkpt>
<trkpt lat="27.079687" lon="100.062392">
<time>2016-10-07T07:57:55Z</time></trkpt>
<trkpt lat="27.079957" lon="100.062283">
<time>2016-10-07T07:57:56Z</time></trkpt>
<trkpt lat="27.080157" lon="100.062213">
<time>2016-10-07T07:57:57Z</time></trkpt>
<trkpt lat="27.080337" lon="100.062133">
<time>2016-10-07T07:57:58Z</time></trkpt>
<trkpt lat="27.080527" lon="100.062063">
<time>2016-10-07T07:57:59Z</time></trkpt>
<trkpt lat="27.080627" lon="100.062033">
<time>2016-10-07T07:58:00Z</time></trkpt>
<trkpt lat="27.080747" lon="100.062003">
<time>2016-10-07T07:58:01Z</time></trkpt>
<trkpt lat="27.080837" lon="100.061973">
<time>2016-10-07T07:58:02Z</time></trkpt>
<trkpt lat="27.080977" lon="100.061953">
<time>2016-10-07T07:58:03Z</time></trkpt>
<trkpt lat="27.081137" lon="100.061923">
<time>2016-10-07T07:58:04Z</time></trkpt>
<trkpt lat="27.081297" lon="100.061893">
<time>2016-10-07T07:58:05Z</time></trkpt>
<trkpt lat="27.081477" lon="100.061863">
<time>2016-10-07T07:58:06Z</time></trkpt>
<trkpt lat="27.081597" lon="100.061843">
<time>2016-10-07T07:58:07Z</time></trkpt>
<trkpt lat="27.081697" lon="100.061833">
<time>2016-10-07T07:58:08Z</time></trkpt>
<trkpt lat="27.081807" lon="100.061823">
<time>2016-10-07T07:58:09Z</time></trkpt>
<trkpt lat="27.081897" lon="100.061813">
<time>2016-10-07T07:58:10Z</time></trkpt>
<trkpt lat="27.083357" lon="100.061713">
<time>2016-10-07T07:58:11Z</time></trkpt>
<trkpt lat="27.083767" lon="100.061683">
<time>2016-10-07T07:58:12Z</time></trkpt>
<trkpt lat="27.084137" lon="100.061663">
<time>2016-10-07T07:58:13Z</time></trkpt>
<trkpt lat="27.084507" lon="100.061643">
<time>2016-10-07T07:58:14Z</time></trkpt>
<trkpt lat="27.085066" lon="100.061614">
<time>2016-10-07T07:58:15Z</time></trkpt>
<trkpt lat="27.085346" lon="100.061604">
<time>2016-10-07T07:58:16Z</time></trkpt>
<trkpt lat="27.085566" lon="100.061594">
<time>2016-10-07T07:58:17Z</time></trkpt>
<trkpt lat="27.085736" lon="100.061604">
<time>2016-10-07T07:58:18Z</time></trkpt>
<trkpt lat="27.086006" lon="100.061614">
<time>2016-10-07T07:58:19Z</time></trkpt>
<trkpt lat="27.086156" lon="100.061623">
<time>2016-10-07T07:58:20Z</time></trkpt>
<trkpt lat="27.086326" lon="100.061633">
<time>2016-10-07T07:58:21Z</time></trkpt>
<trkpt lat="27.086676" lon="100.061673">
<time>2016-10-07T07:58:22Z</time></trkpt>
<trkpt lat="27.086936" lon="100.061693">
<time>2016-10-07T07:58:23Z</time></trkpt>
<trkpt lat="27.087296" lon="100.061733">
<time>2016-10-07T07:58:24Z</time></trkpt>
<trkpt lat="27.087586" lon="100.061773">
<time>2016-10-07T07:58:25Z</time></trkpt>
<trkpt lat="27.087855" lon="100.061793">
<time>2016-10-07T07:58:26Z</time></trkpt>
<trkpt lat="27.088005" lon="100.061793">
<time>2016-10-07T07:58:27Z</time></trkpt>
<trkpt lat="27.088135" lon="100.061793">
<time>2016-10-07T07:58:28Z</time></trkpt>
<trkpt lat="27.088285" lon="100.061783">
<time>2016-10-07T07:58:29Z</time></trkpt>
<trkpt lat="27.088405" lon="100.061763">
<time>2016-10-07T07:58:30Z</time></trkpt>
<trkpt lat="27.088565" lon="100.061743">
<time>2016-10-07T07:58:31Z</time></trkpt>
<trkpt lat="27.088695" lon="100.061713">
<time>2016-10-07T07:58:32Z</time></trkpt>
<trkpt lat="27.089075" lon="100.061623">
<time>2016-10-07T07:58:33Z</time></trkpt>
<trkpt lat="27.089525" lon="100.061514">
<time>2016-10-07T07:58:34Z</time></trkpt>
<trkpt lat="27.089885" lon="100.061424">
<time>2016-10-07T07:58:35Z</time></trkpt>
<trkpt lat="27.090256" lon="100.061344">
<time>2016-10-07T07:58:36Z</time></trkpt>
<trkpt lat="27.090546" lon="100.061274">
<time>2016-10-07T07:58:37Z</time></trkpt>
<trkpt lat="27.090826" lon="100.061224">
<time>2016-10-07T07:58:38Z</time></trkpt>
<trkpt lat="27.091106" lon="100.061184">
<time>2016-10-07T07:58:39Z</time></trkpt>
<trkpt lat="27.091365" lon="100.061164">
<time>2016-10-07T07:58:40Z</time></trkpt>
<trkpt lat="27.091625" lon="100.061144">
<time>2016-10-07T07:58:41Z</time></trkpt>
<trkpt lat="27.091905" lon="100.061134">
<time>2016-10-07T07:58:42Z</time></trkpt>
<trkpt lat="27.092095" lon="100.061134">
<time>2016-10-07T07:58:43Z</time></trkpt>
<trkpt lat="27.092745" lon="100.061144">
<time>2016-10-07T07:58:44Z</time></trkpt>
<trkpt lat="27.093005" lon="100.061144">
<time>2016-10-07T07:58:45Z</time></trkpt>
<trkpt lat="27.093195" lon="100.061144">
<time>2016-10-07T07:58:46Z</time></trkpt>
<trkpt lat="27.093435" lon="100.061124">
<time>2016-10-07T07:58:47Z</time></trkpt>
<trkpt lat="27.093725" lon="100.061094">
<time>2016-10-07T07:58:48Z</time></trkpt>
<trkpt lat="27.094285" lon="100.061024">
<time>2016-10-07T07:58:49Z</time></trkpt>
<trkpt lat="27.094935" lon="100.060934">
<time>2016-10-07T07:58:50Z</time></trkpt>
<trkpt lat="27.095455" lon="100.060865">
<time>2016-10-07T07:58:51Z</time></trkpt>
<trkpt lat="27.095655" lon="100.060825">
<time>2016-10-07T07:58:52Z</time></trkpt>
<trkpt lat="27.095855" lon="100.060795">
<time>2016-10-07T07:58:53Z</time></trkpt>
<trkpt lat="27.096185" lon="100.060735">
<time>2016-10-07T07:58:54Z</time></trkpt>
<trkpt lat="27.096475" lon="100.060675">
<time>2016-10-07T07:58:55Z</time></trkpt>
<trkpt lat="27.096675" lon="100.060615">
<time>2016-10-07T07:58:56Z</time></trkpt>
<trkpt lat="27.096795" lon="100.060575">
<time>2016-10-07T07:58:57Z</time></trkpt>
<trkpt lat="27.097015" lon="100.060495">
<time>2016-10-07T07:58:58Z</time></trkpt>
<trkpt lat="27.097305" lon="100.060375">
<time>2016-10-07T07:58:59Z</time></trkpt>
<trkpt lat="27.097545" lon="100.060266">
<time>2016-10-07T07:59:00Z</time></trkpt>
<trkpt lat="27.098106" lon="100.059986">
<time>2016-10-07T07:59:01Z</time></trkpt>
<trkpt lat="27.098526" lon="100.059786">
<time>2016-10-07T07:59:02Z</time></trkpt>
<trkpt lat="27.098936" lon="100.059587">
<time>2016-10-07T07:59:03Z</time></trkpt>
<trkpt lat="27.099466" lon="100.059327">
<time>2016-10-07T07:59:04Z</time></trkpt>
<trkpt lat="27.099867" lon="100.059127">
<time>2016-10-07T07:59:05Z</time></trkpt>
<trkpt lat="27.100857" lon="100.058648">
<time>2016-10-07T07:59:06Z</time></trkpt>
<trkpt lat="27.101267" lon="100.058449">
<time>2016-10-07T07:59:07Z</time></trkpt>
<trkpt lat="27.101607" lon="100.058279">
<time>2016-10-07T07:59:08Z</time></trkpt>
<trkpt lat="27.101908" lon="100.058119">
<time>2016-10-07T07:59:09Z</time></trkpt>
<trkpt lat="27.102178" lon="100.05798">
<time>2016-10-07T07:59:10Z</time></trkpt>
<trkpt lat="27.102438" lon="100.05782">
<time>2016-10-07T07:59:11Z</time></trkpt>
<trkpt lat="27.102668" lon="100.05767">
<time>2016-10-07T07:59:12Z</time></trkpt>
<trkpt lat="27.102838" lon="100.05756">
<time>2016-10-07T07:59:13Z</time></trkpt>
<trkpt lat="27.103129" lon="100.057341">
<time>2016-10-07T07:59:14Z</time></trkpt>
<trkpt lat="27.103319" lon="100.057191">
<time>2016-10-07T07:59:15Z</time></trkpt>
<trkpt lat="27.103739" lon="100.056852">
<time>2016-10-07T07:59:16Z</time></trkpt>
<trkpt lat="27.10437" lon="100.056313">
<time>2016-10-07T07:59:17Z</time></trkpt>
<trkpt lat="27.104821" lon="100.055933">
<time>2016-10-07T07:59:18Z</time></trkpt>
<trkpt lat="27.105562" lon="100.055335">
<time>2016-10-07T07:59:19Z</time></trkpt>
<trkpt lat="27.106112" lon="100.054885">
<time>2016-10-07T07:59:20Z</time></trkpt>
<trkpt lat="27.106483" lon="100.054586">
<time>2016-10-07T07:59:21Z</time></trkpt>
<trkpt lat="27.106743" lon="100.054396">
<time>2016-10-07T07:59:22Z</time></trkpt>
<trkpt lat="27.106943" lon="100.054267">
<time>2016-10-07T07:59:23Z</time></trkpt>
<trkpt lat="27.107143" lon="100.054137">
<time>2016-10-07T07:59:24Z</time></trkpt>
<trkpt lat="27.107283" lon="100.054057">
<time>2016-10-07T07:59:25Z</time></trkpt>
<trkpt lat="27.107534" lon="100.053907">
<time>2016-10-07T07:59:26Z</time></trkpt>
<trkpt lat="27.107724" lon="100.053817">
<time>2016-10-07T07:59:27Z</time></trkpt>
<trkpt lat="27.107934" lon="100.053718">
<time>2016-10-07T07:59:28Z</time></trkpt>
<trkpt lat="27.108074" lon="100.053658">
<time>2016-10-07T07:59:29Z</time></trkpt>
<trkpt lat="27.108274" lon="100.053578">
<time>2016-10-07T07:59:30Z</time></trkpt>
<trkpt lat="27.108474" lon="100.053498">
<time>2016-10-07T07:59:31Z</time></trkpt>
<trkpt lat="27.108764" lon="100.053408">
<time>2016-10-07T07:59:32Z</time></trkpt>
<trkpt lat="27.108984" lon="100.053348">
<time>2016-10-07T07:59:33Z</time></trkpt>
<trkpt lat="27.109244" lon="100.053289">
<time>2016-10-07T07:59:34Z</time></trkpt>
<trkpt lat="27.109434" lon="100.053249">
<time>2016-10-07T07:59:35Z</time></trkpt>
<trkpt lat="27.109664" lon="100.053209">
<time>2016-10-07T07:59:36Z</time></trkpt>
<trkpt lat="27.109844" lon="100.053189">
<time>2016-10-07T07:59:37Z</time></trkpt>
<trkpt lat="27.110284" lon="100.053139">
<time>2016-10-07T07:59:38Z</time></trkpt>
<trkpt lat="27.110584" lon="100.053119">
<time>2016-10-07T07:59:39Z</time></trkpt>
<trkpt lat="27.110974" lon="100.053089">
<time>2016-10-07T07:59:40Z</time></trkpt>
<trkpt lat="27.111444" lon="100.053059">
<time>2016-10-07T07:59:41Z</time></trkpt>
<trkpt lat="27.111744" lon="100.053039">
<time>2016-10-07T07:59:42Z</time></trkpt>
<trkpt lat="27.112234" lon="100.053009">
<time>2016-10-07T07:59:43Z</time></trkpt>
<trkpt lat="27.112594" lon="100.052989">
<time>2016-10-07T07:59:44Z</time></trkpt>
<trkpt lat="27.112894" lon="100.052959">
<time>2016-10-07T07:59:45Z</time></trkpt>
<trkpt lat="27.113634" lon="100.052919">
<time>2016-10-07T07:59:46Z</time></trkpt>
<trkpt lat="27.114004" lon="100.052889">
<time>2016-10-07T07:59:47Z</time></trkpt>
<trkpt lat="27.114244" lon="100.052899">
<time>2016-10-07T07:59:48Z</time></trkpt>
<trkpt lat="27.114484" lon="100.052909">
<time>2016-10-07T07:59:49Z</time></trkpt>
<trkpt lat="27.114644" lon="100.052919">
<time>2016-10-07T07:59:50Z</time></trkpt>
<trkpt lat="27.114984" lon="100.052949">
<time>2016-10-07T07:59:51Z</time></trkpt>
<trkpt lat="27.115243" lon="100.052969">
<time>2016-10-07T07:59:52Z</time></trkpt>
<trkpt lat="27.115443" lon="100.052969">
<time>2016-10-07T07:59:53Z</time></trkpt>
<trkpt lat="27.115633" lon="100.052969">
<time>2016-10-07T07:59:54Z</time></trkpt>
<trkpt lat="27.115783" lon="100.052959">
<time>2016-10-07T07:59:55Z</time></trkpt>
<trkpt lat="27.115983" lon="100.052939">
<time>2016-10-07T07:59:56Z</time></trkpt>
<trkpt lat="27.116243" lon="100.052909">
<time>2016-10-07T07:59:57Z</time></trkpt>
<trkpt lat="27.116493" lon="100.052889">
<time>2016-10-07T07:59:58Z</time></trkpt>
<trkpt lat="27.116693" lon="100.052869">
<time>2016-10-07T07:59:59Z</time></trkpt>
<trkpt lat="27.116883" lon="100.052869">
<time>2016-10-07T08:00:00Z</time></trkpt>
<trkpt lat="27.117073" lon="100.052879">
<time>2016-10-07T08:00:01Z</time></trkpt>
<trkpt lat="27.117223" lon="100.052889">
<time>2016-10-07T08:00:02Z</time></trkpt>
<trkpt lat="27.117343" lon="100.052899">
<time>2016-10-07T08:00:03Z</time></trkpt>
<trkpt lat="27.117603" lon="100.052939">
<time>2016-10-07T08:00:04Z</time></trkpt>
<trkpt lat="27.117983" lon="100.053009">
<time>2016-10-07T08:00:05Z</time></trkpt>
<trkpt lat="27.118242" lon="100.053059">
<time>2016-10-07T08:00:06Z</time></trkpt>
<trkpt lat="27.118472" lon="100.053099">
<time>2016-10-07T08:00:07Z</time></trkpt>
<trkpt lat="27.118732" lon="100.053159">
<time>2016-10-07T08:00:08Z</time></trkpt>
<trkpt lat="27.118882" lon="100.053188">
<time>2016-10-07T08:00:09Z</time></trkpt>
<trkpt lat="27.119042" lon="100.053208">
<time>2016-10-07T08:00:10Z</time></trkpt>
<trkpt lat="27.119202" lon="100.053228">
<time>2016-10-07T08:00:11Z</time></trkpt>
<trkpt lat="27.119342" lon="100.053238">
<time>2016-10-07T08:00:12Z</time></trkpt>
<trkpt lat="27.119522" lon="100.053248">
<time>2016-10-07T08:00:13Z</time></trkpt>
<trkpt lat="27.119652" lon="100.053248">
<time>2016-10-07T08:00:14Z</time></trkpt>
<trkpt lat="27.119772" lon="100.053248">
<time>2016-10-07T08:00:15Z</time></trkpt>
<trkpt lat="27.119972" lon="100.053228">
<time>2016-10-07T08:00:16Z</time></trkpt>
<trkpt lat="27.120092" lon="100.053218">
<time>2016-10-07T08:00:17Z</time></trkpt>
<trkpt lat="27.120172" lon="100.053208">
<time>2016-10-07T08:00:18Z</time></trkpt>
<trkpt lat="27.120472" lon="100.053168">
<time>2016-10-07T08:00:19Z</time></trkpt>
<trkpt lat="27.120702" lon="100.053139">
<time>2016-10-07T08:00:20Z</time></trkpt>
<trkpt lat="27.120982" lon="100.053109">
<time>2016-10-07T08:00:21Z</time></trkpt>
<trkpt lat="27.121202" lon="100.053089">
<time>2016-10-07T08:00:22Z</time></trkpt>
<trkpt lat="27.121332" lon="100.053079">
<time>2016-10-07T08:00:23Z</time></trkpt>
<trkpt lat="27.121432" lon="100.053079">
<time>2016-10-07T08:00:24Z</time></trkpt>
<trkpt lat="27.121502" lon="100.053079">
<time>2016-10-07T08:00:25Z</time></trkpt>
<trkpt lat="27.121612" lon="100.053079">
<time>2016-10-07T08:00:26Z</time></trkpt>
<trkpt lat="27.121821" lon="100.053079">
<time>2016-10-07T08:00:27Z</time></trkpt>
<trkpt lat="27.122471" lon="100.053099">
<time>2016-10-07T08:00:28Z</time></trkpt>
<trkpt lat="27.122821" lon="100.053119">
<time>2016-10-07T08:00:29Z</time></trkpt>
<trkpt lat="27.123211" lon="100.053138">
<time>2016-10-07T08:00:30Z</time></trkpt>
<trkpt lat="27.123461" lon="100.053148">
<time>2016-10-07T08:00:31Z</time></trkpt>
<trkpt lat="27.123591" lon="100.053158">
<time>2016-10-07T08:00:32Z</time></trkpt>
<trkpt lat="27.123681" lon="100.053168">
<time>2016-10-07T08:00:33Z</time></trkpt>
<trkpt lat="27.123901" lon="100.053198">
<time>2016-10-07T08:00:34Z</time></trkpt>
<trkpt lat="27.124141" lon="100.053238">
<time>2016-10-07T08:00:35Z</time></trkpt>
<trkpt lat="27.12427" lon="100.053258">
<time>2016-10-07T08:00:36Z</time></trkpt>
<trkpt lat="27.12441" lon="100.053298">
<time>2016-10-07T08:00:37Z</time></trkpt>
<trkpt lat="27.12455" lon="100.053328">
<time>2016-10-07T08:00:38Z</time></trkpt>
<trkpt lat="27.12484" lon="100.053408">
<time>2016-10-07T08:00:39Z</time></trkpt>
<trkpt lat="27.12506" lon="100.053468">
<time>2016-10-07T08:00:40Z</time></trkpt>
<trkpt lat="27.12524" lon="100.053508">
<time>2016-10-07T08:00:41Z</time></trkpt>
<trkpt lat="27.12537" lon="100.053538">
<time>2016-10-07T08:00:42Z</time></trkpt>
<trkpt lat="27.12548" lon="100.053558">
<time>2016-10-07T08:00:43Z</time></trkpt>
<trkpt lat="27.12557" lon="100.053578">
<time>2016-10-07T08:00:44Z</time></trkpt>
<trkpt lat="27.125699" lon="100.053587">
<time>2016-10-07T08:00:45Z</time></trkpt>
<trkpt lat="27.125819" lon="100.053597">
<time>2016-10-07T08:00:46Z</time></trkpt>
<trkpt lat="27.126059" lon="100.053617">
<time>2016-10-07T08:00:47Z</time></trkpt>
<trkpt lat="27.126279" lon="100.053627">
<time>2016-10-07T08:00:48Z</time></trkpt>
<trkpt lat="27.126599" lon="100.053637">
<time>2016-10-07T08:00:49Z</time></trkpt>
<trkpt lat="27.126809" lon="100.053637">
<time>2016-10-07T08:00:50Z</time></trkpt>
<trkpt lat="27.127129" lon="100.053637">
<time>2016-10-07T08:00:51Z</time></trkpt>
<trkpt lat="27.127589" lon="100.053637">
<time>2016-10-07T08:00:52Z</time></trkpt>
<trkpt lat="27.127889" lon="100.053627">
<time>2016-10-07T08:00:53Z</time></trkpt>
<trkpt lat="27.128149" lon="100.053617">
<time>2016-10-07T08:00:54Z</time></trkpt>
<trkpt lat="27.128399" lon="100.053617">
<time>2016-10-07T08:00:55Z</time></trkpt>
<trkpt lat="27.128819" lon="100.053617">
<time>2016-10-07T08:00:56Z</time></trkpt>
<trkpt lat="27.128989" lon="100.053627">
<time>2016-10-07T08:00:57Z</time></trkpt>
<trkpt lat="27.129148" lon="100.053637">
<time>2016-10-07T08:00:58Z</time></trkpt>
<trkpt lat="27.129388" lon="100.053667">
<time>2016-10-07T08:00:59Z</time></trkpt>
<trkpt lat="27.129628" lon="100.053707">
<time>2016-10-07T08:01:00Z</time></trkpt>
<trkpt lat="27.129788" lon="100.053737">
<time>2016-10-07T08:01:01Z</time></trkpt>
<trkpt lat="27.129908" lon="100.053767">
<time>2016-10-07T08:01:02Z</time></trkpt>
<trkpt lat="27.130138" lon="100.053827">
<time>2016-10-07T08:01:03Z</time></trkpt>
<trkpt lat="27.130438" lon="100.053897">
<time>2016-10-07T08:01:04Z</time></trkpt>
<trkpt lat="27.130677" lon="100.053957">
<time>2016-10-07T08:01:05Z</time></trkpt>
<trkpt lat="27.131117" lon="100.054066">
<time>2016-10-07T08:01:06Z</time></trkpt>
<trkpt lat="27.131507" lon="100.054146">
<time>2016-10-07T08:01:07Z</time></trkpt>
<trkpt lat="27.131687" lon="100.054196">
<time>2016-10-07T08:01:08Z</time></trkpt>
<trkpt lat="27.131817" lon="100.054236">
<time>2016-10-07T08:01:09Z</time></trkpt>
<trkpt lat="27.131937" lon="100.054276">
<time>2016-10-07T08:01:10Z</time></trkpt>
<trkpt lat="27.132006" lon="100.054286">
<time>2016-10-07T08:01:11Z</time></trkpt>
<trkpt lat="27.132096" lon="100.054306">
<time>2016-10-07T08:01:12Z</time></trkpt>
<trkpt lat="27.132336" lon="100.054346">
<time>2016-10-07T08:01:13Z</time></trkpt>
<trkpt lat="27.132466" lon="100.054366">
<time>2016-10-07T08:01:14Z</time></trkpt>
<trkpt lat="27.132606" lon="100.054386">
<time>2016-10-07T08:01:15Z</time></trkpt>
<trkpt lat="27.132786" lon="100.054396">
<time>2016-10-07T08:01:16Z</time></trkpt>
<trkpt lat="27.132906" lon="100.054396">
<time>2016-10-07T08:01:17Z</time></trkpt>
<trkpt lat="27.133026" lon="100.054396">
<time>2016-10-07T08:01:18Z</time></trkpt>
<trkpt lat="27.133126" lon="100.054396">
<time>2016-10-07T08:01:19Z</time></trkpt>
<trkpt lat="27.133286" lon="100.054376">
<time>2016-10-07T08:01:20Z</time></trkpt>
<trkpt lat="27.133476" lon="100.054356">
<time>2016-10-07T08:01:21Z</time></trkpt>
<trkpt lat="27.133686" lon="100.054326">
<time>2016-10-07T08:01:22Z</time></trkpt>
<trkpt lat="27.133816" lon="100.054306">
<time>2016-10-07T08:01:23Z</time></trkpt>
<trkpt lat="27.133986" lon="100.054276">
<time>2016-10-07T08:01:24Z</time></trkpt>
<trkpt lat="27.134326" lon="100.054216">
<time>2016-10-07T08:01:25Z</time></trkpt>
<trkpt lat="27.134646" lon="100.054156">
<time>2016-10-07T08:01:26Z</time></trkpt>
<trkpt lat="27.135086" lon="100.054086">
<time>2016-10-07T08:01:27Z</time></trkpt>
<trkpt lat="27.135266" lon="100.054066">
<time>2016-10-07T08:01:28Z</time></trkpt>
<trkpt lat="27.135356" lon="100.054056">
<time>2016-10-07T08:01:29Z</time></trkpt>
<trkpt lat="27.135436" lon="100.054056">
<time>2016-10-07T08:01:30Z</time></trkpt>
<trkpt lat="27.135526" lon="100.054056">
<time>2016-10-07T08:01:31Z</time></trkpt>
<trkpt lat="27.135596" lon="100.054066">
<time>2016-10-07T08:01:32Z</time></trkpt>
<trkpt lat="27.135736" lon="100.054086">
<time>2016-10-07T08:01:33Z</time></trkpt>
<trkpt lat="27.135846" lon="100.054106">
<time>2016-10-07T08:01:34Z</time></trkpt>
<trkpt lat="27.135936" lon="100.054126">
<time>2016-10-07T08:01:35Z</time></trkpt>
<trkpt lat="27.136056" lon="100.054166">
<time>2016-10-07T08:01:36Z</time></trkpt>
<trkpt lat="27.136146" lon="100.054196">
<time>2016-10-07T08:01:37Z</time></trkpt>
<trkpt lat="27.136215" lon="100.054226">
<time>2016-10-07T08:01:38Z</time></trkpt>
<trkpt lat="27.136315" lon="100.054266">
<time>2016-10-07T08:01:39Z</time></trkpt>
<trkpt lat="27.136415" lon="100.054316">
<time>2016-10-07T08:01:40Z</time></trkpt>
<trkpt lat="27.136565" lon="100.054396">
<time>2016-10-07T08:01:41Z</time></trkpt>
<trkpt lat="27.136675" lon="100.054455">
<time>2016-10-07T08:01:42Z</time></trkpt>
<trkpt lat="27.136845" lon="100.054565">
<time>2016-10-07T08:01:43Z</time></trkpt>
<trkpt lat="27.136955" lon="100.054625">
<time>2016-10-07T08:01:44Z</time></trkpt>
<trkpt lat="27.137064" lon="100.054695">
<time>2016-10-07T08:01:45Z</time></trkpt>
<trkpt lat="27.137184" lon="100.054755">
<time>2016-10-07T08:01:46Z</time></trkpt>
<trkpt lat="27.137294" lon="100.054805">
<time>2016-10-07T08:01:47Z</time></trkpt>
<trkpt lat="27.137414" lon="100.054855">
<time>2016-10-07T08:01:48Z</time></trkpt>
<trkpt lat="27.137524" lon="100.054904">
<time>2016-10-07T08:01:49Z</time></trkpt>
<trkpt lat="27.137604" lon="100.054924">
<time>2016-10-07T08:01:50Z</time></trkpt>
<trkpt lat="27.137704" lon="100.054954">
<time>2016-10-07T08:01:51Z</time></trkpt>
<trkpt lat="27.137834" lon="100.054984">
<time>2016-10-07T08:01:52Z</time></trkpt>
<trkpt lat="27.137984" lon="100.055004">
<time>2016-10-07T08:01:53Z</time></trkpt>
<trkpt lat="27.138163" lon="100.055014">
<time>2016-10-07T08:01:54Z</time></trkpt>
<trkpt lat="27.138273" lon="100.055014">
<time>2016-10-07T08:01:55Z</time></trkpt>
<trkpt lat="27.138413" lon="100.055014">
<time>2016-10-07T08:01:56Z</time></trkpt>
<trkpt lat="27.138643" lon="100.055014">
<time>2016-10-07T08:01:57Z</time></trkpt>
<trkpt lat="27.139073" lon="100.055004">
<time>2016-10-07T08:01:58Z</time></trkpt>
<trkpt lat="27.139293" lon="100.055014">
<time>2016-10-07T08:01:59Z</time></trkpt>
<trkpt lat="27.139463" lon="100.055014">
<time>2016-10-07T08:02:00Z</time></trkpt>
<trkpt lat="27.139553" lon="100.055024">
<time>2016-10-07T08:02:01Z</time></trkpt>
<trkpt lat="27.139763" lon="100.055044">
<time>2016-10-07T08:02:02Z</time></trkpt>
<trkpt lat="27.139933" lon="100.055064">
<time>2016-10-07T08:02:03Z</time></trkpt>
<trkpt lat="27.140133" lon="100.055094">
<time>2016-10-07T08:02:04Z</time></trkpt>
<trkpt lat="27.140313" lon="100.055134">
<time>2016-10-07T08:02:05Z</time></trkpt>
<trkpt lat="27.140633" lon="100.055194">
<time>2016-10-07T08:02:06Z</time></trkpt>
<trkpt lat="27.141022" lon="100.055284">
<time>2016-10-07T08:02:07Z</time></trkpt>
<trkpt lat="27.141222" lon="100.055314">
<time>2016-10-07T08:02:08Z</time></trkpt>
<trkpt lat="27.141512" lon="100.055354">
<time>2016-10-07T08:02:09Z</time></trkpt>
<trkpt lat="27.141732" lon="100.055383">
<time>2016-10-07T08:02:10Z</time></trkpt>
<trkpt lat="27.141912" lon="100.055403">
<time>2016-10-07T08:02:11Z</time></trkpt>
<trkpt lat="27.142052" lon="100.055413">
<time>2016-10-07T08:02:12Z</time></trkpt>
<trkpt lat="27.142232" lon="100.055423">
<time>2016-10-07T08:02:13Z</time></trkpt>
<trkpt lat="27.142482" lon="100.055433">
<time>2016-10-07T08:02:14Z</time></trkpt>
<trkpt lat="27.142881" lon="100.055433">
<time>2016-10-07T08:02:15Z</time></trkpt>
<trkpt lat="27.143091" lon="100.055443">
<time>2016-10-07T08:02:16Z</time></trkpt>
<trkpt lat="27.143451" lon="100.055443">
<time>2016-10-07T08:02:17Z</time></trkpt>
<trkpt lat="27.143741" lon="100.055443">
<time>2016-10-07T08:02:18Z</time></trkpt>
<trkpt lat="27.144041" lon="100.055453">
<time>2016-10-07T08:02:19Z</time></trkpt>
<trkpt lat="27.144231" lon="100.055463">
<time>2016-10-07T08:02:20Z</time></trkpt>
<trkpt lat="27.144431" lon="100.055483">
<time>2016-10-07T08:02:21Z</time></trkpt>
<trkpt lat="27.144621" lon="100.055493">
<time>2016-10-07T08:02:22Z</time></trkpt>
<trkpt lat="27.144781" lon="100.055523">
<time>2016-10-07T08:02:23Z</time></trkpt>
<trkpt lat="27.144931" lon="100.055553">
<time>2016-10-07T08:02:24Z</time></trkpt>
<trkpt lat="27.145031" lon="100.055573">
<time>2016-10-07T08:02:25Z</time></trkpt>
<trkpt lat="27.145151" lon="100.055613">
<time>2016-10-07T08:02:26Z</time></trkpt>
<trkpt lat="27.14527" lon="100.055653">
<time>2016-10-07T08:02:27Z</time></trkpt>
<trkpt lat="27.14543" lon="100.055713">
<time>2016-10-07T08:02:28Z</time></trkpt>
<trkpt lat="27.14563" lon="100.055793">
<time>2016-10-07T08:02:29Z</time></trkpt>
<trkpt lat="27.14585" lon="100.055892">
<time>2016-10-07T08:02:30Z</time></trkpt>
<trkpt lat="27.14606" lon="100.055962">
<time>2016-10-07T08:02:31Z</time></trkpt>
<trkpt lat="27.14619" lon="100.056012">
<time>2016-10-07T08:02:32Z</time></trkpt>
<trkpt lat="27.146319" lon="100.056042">
<time>2016-10-07T08:02:33Z</time></trkpt>
<trkpt lat="27.146489" lon="100.056092">
<time>2016-10-07T08:02:34Z</time></trkpt>
<trkpt lat="27.146649" lon="100.056122">
<time>2016-10-07T08:02:35Z</time></trkpt>
<trkpt lat="27.146779" lon="100.056152">
<time>2016-10-07T08:02:36Z</time></trkpt>
<trkpt lat="27.146909" lon="100.056162">
<time>2016-10-07T08:02:37Z</time></trkpt>
<trkpt lat="27.147039" lon="100.056172">
<time>2016-10-07T08:02:38Z</time></trkpt>
<trkpt lat="27.147379" lon="100.056182">
<time>2016-10-07T08:02:39Z</time></trkpt>
<trkpt lat="27.147949" lon="100.056192">
<time>2016-10-07T08:02:40Z</time></trkpt>
<trkpt lat="27.148139" lon="100.056202">
<time>2016-10-07T08:02:41Z</time></trkpt>
<trkpt lat="27.148369" lon="100.056222">
<time>2016-10-07T08:02:42Z</time></trkpt>
<trkpt lat="27.148818" lon="100.056262">
<time>2016-10-07T08:02:43Z</time></trkpt>
<trkpt lat="27.149108" lon="100.056311">
<time>2016-10-07T08:02:44Z</time></trkpt>
<trkpt lat="27.149358" lon="100.056351">
<time>2016-10-07T08:02:45Z</time></trkpt>
<trkpt lat="27.149558" lon="100.056381">
<time>2016-10-07T08:02:46Z</time></trkpt>
<trkpt lat="27.149688" lon="100.056411">
<time>2016-10-07T08:02:47Z</time></trkpt>
<trkpt lat="27.149848" lon="100.056451">
<time>2016-10-07T08:02:48Z</time></trkpt>
<trkpt lat="27.150068" lon="100.056511">
<time>2016-10-07T08:02:49Z</time></trkpt>
<trkpt lat="27.150327" lon="100.056591">
<time>2016-10-07T08:02:50Z</time></trkpt>
<trkpt lat="27.150767" lon="100.056731">
<time>2016-10-07T08:02:51Z</time></trkpt>
<trkpt lat="27.151107" lon="100.05683">
<time>2016-10-07T08:02:52Z</time></trkpt>
<trkpt lat="27.151387" lon="100.05691">
<time>2016-10-07T08:02:53Z</time></trkpt>
<trkpt lat="27.151756" lon="100.05702">
<time>2016-10-07T08:02:54Z</time></trkpt>
<trkpt lat="27.151986" lon="100.05709">
<time>2016-10-07T08:02:55Z</time></trkpt>
<trkpt lat="27.152196" lon="100.05715">
<time>2016-10-07T08:02:56Z</time></trkpt>
<trkpt lat="27.152576" lon="100.057269">
<time>2016-10-07T08:02:57Z</time></trkpt>
<trkpt lat="27.152965" lon="100.057389">
<time>2016-10-07T08:02:58Z</time></trkpt>
<trkpt lat="27.153215" lon="100.057459">
<time>2016-10-07T08:02:59Z</time></trkpt>
<trkpt lat="27.153345" lon="100.057509">
<time>2016-10-07T08:03:00Z</time></trkpt>
<trkpt lat="27.153795" lon="100.057689">
<time>2016-10-07T08:03:01Z</time></trkpt>
<trkpt lat="27.154014" lon="100.057788">
<time>2016-10-07T08:03:02Z</time></trkpt>
<trkpt lat="27.154374" lon="100.057948">
<time>2016-10-07T08:03:03Z</time></trkpt>
<trkpt lat="27.154594" lon="100.058048">
<time>2016-10-07T08:03:04Z</time></trkpt>
<trkpt lat="27.154774" lon="100.058118">
<time>2016-10-07T08:03:05Z</time></trkpt>
<trkpt lat="27.154983" lon="100.058208">
<time>2016-10-07T08:03:06Z</time></trkpt>
<trkpt lat="27.155133" lon="100.058258">
<time>2016-10-07T08:03:07Z</time></trkpt>
<trkpt lat="27.155283" lon="100.058307">
<time>2016-10-07T08:03:08Z</time></trkpt>
<trkpt lat="27.155423" lon="100.058347">
<time>2016-10-07T08:03:09Z</time></trkpt>
<trkpt lat="27.155613" lon="100.058397">
<time>2016-10-07T08:03:10Z</time></trkpt>
<trkpt lat="27.155783" lon="100.058437">
<time>2016-10-07T08:03:11Z</time></trkpt>
<trkpt lat="27.155943" lon="100.058467">
<time>2016-10-07T08:03:12Z</time></trkpt>
<trkpt lat="27.156093" lon="100.058497">
<time>2016-10-07T08:03:13Z</time></trkpt>
<trkpt lat="27.156293" lon="100.058527">
<time>2016-10-07T08:03:14Z</time></trkpt>
<trkpt lat="27.156383" lon="100.058537">
<time>2016-10-07T08:03:15Z</time></trkpt>
<trkpt lat="27.156492" lon="100.058547">
<time>2016-10-07T08:03:16Z</time></trkpt>
<trkpt lat="27.156922" lon="100.058577">
<time>2016-10-07T08:03:17Z</time></trkpt>
<trkpt lat="27.157602" lon="100.058617">
<time>2016-10-07T08:03:18Z</time></trkpt>
<trkpt lat="27.157912" lon="100.058637">
<time>2016-10-07T08:03:19Z</time></trkpt>
<trkpt lat="27.158142" lon="100.058647">
<time>2016-10-07T08:03:20Z</time></trkpt>
<trkpt lat="27.158372" lon="100.058677">
<time>2016-10-07T08:03:21Z</time></trkpt>
<trkpt lat="27.158552" lon="100.058717">
<time>2016-10-07T08:03:22Z</time></trkpt>
<trkpt lat="27.158831" lon="100.058787">
<time>2016-10-07T08:03:23Z</time></trkpt>
<trkpt lat="27.159071" lon="100.058836">
<time>2016-10-07T08:03:24Z</time></trkpt>
<trkpt lat="27.159231" lon="100.058866">
<time>2016-10-07T08:03:25Z</time></trkpt>
<trkpt lat="27.159421" lon="100.058896">
<time>2016-10-07T08:03:26Z</time></trkpt>
<trkpt lat="27.159601" lon="100.058896">
<time>2016-10-07T08:03:27Z</time></trkpt>
<trkpt lat="27.159731" lon="100.058896">
<time>2016-10-07T08:03:28Z</time></trkpt>
<trkpt lat="27.159891" lon="100.058886">
<time>2016-10-07T08:03:29Z</time></trkpt>
<trkpt lat="27.160071" lon="100.058876">
<time>2016-10-07T08:03:30Z</time></trkpt>
<trkpt lat="27.160231" lon="100.058866">
<time>2016-10-07T08:03:31Z</time></trkpt>
<trkpt lat="27.160391" lon="100.058866">
<time>2016-10-07T08:03:32Z</time></trkpt>
<trkpt lat="27.160511" lon="100.058876">
<time>2016-10-07T08:03:33Z</time></trkpt>
<trkpt lat="27.160661" lon="100.058906">
<time>2016-10-07T08:03:34Z</time></trkpt>
<trkpt lat="27.160781" lon="100.058936">
<time>2016-10-07T08:03:35Z</time></trkpt>
<trkpt lat="27.160901" lon="100.058986">
<time>2016-10-07T08:03:36Z</time></trkpt>
<trkpt lat="27.16102" lon="100.059036">
<time>2016-10-07T08:03:37Z</time></trkpt>
<trkpt lat="27.16112" lon="100.059086">
<time>2016-10-07T08:03:38Z</time></trkpt>
<trkpt lat="27.16125" lon="100.059156">
<time>2016-10-07T08:03:39Z</time></trkpt>
<trkpt lat="27.16144" lon="100.059276">
<time>2016-10-07T08:03:40Z</time></trkpt>
<trkpt lat="27.16158" lon="100.059365">
<time>2016-10-07T08:03:41Z</time></trkpt>
<trkpt lat="27.16169" lon="100.059425">
<time>2016-10-07T08:03:42Z</time></trkpt>
<trkpt lat="27.16179" lon="100.059465">
<time>2016-10-07T08:03:43Z</time></trkpt>
<trkpt lat="27.161899" lon="100.059515">
<time>2016-10-07T08:03:44Z</time></trkpt>
<trkpt lat="27.162189" lon="100.059615">
<time>2016-10-07T08:03:45Z</time></trkpt>
<trkpt lat="27.162389" lon="100.059685">
<time>2016-10-07T08:03:46Z</time></trkpt>
<trkpt lat="27.162609" lon="100.059755">
<time>2016-10-07T08:03:47Z</time></trkpt>
<trkpt lat="27.162749" lon="100.059815">
<time>2016-10-07T08:03:48Z</time></trkpt>
<trkpt lat="27.162859" lon="100.059864">
<time>2016-10-07T08:03:49Z</time></trkpt>
<trkpt lat="27.162939" lon="100.059904">
<time>2016-10-07T08:03:50Z</time></trkpt>
<trkpt lat="27.162998" lon="100.059934">
<time>2016-10-07T08:03:51Z</time></trkpt>
<trkpt lat="27.163138" lon="100.060034">
<time>2016-10-07T08:03:52Z</time></trkpt>
<trkpt lat="27.163198" lon="100.060084">
<time>2016-10-07T08:03:53Z</time></trkpt>
<trkpt lat="27.163268" lon="100.060154">
<time>2016-10-07T08:03:54Z</time></trkpt>
<trkpt lat="27.163388" lon="100.060274">
<time>2016-10-07T08:03:55Z</time></trkpt>
<trkpt lat="27.163478" lon="100.060384">
<time>2016-10-07T08:03:56Z</time></trkpt>
<trkpt lat="27.163587" lon="100.060523">
<time>2016-10-07T08:03:57Z</time></trkpt>
<trkpt lat="27.163687" lon="100.060663">
<time>2016-10-07T08:03:58Z</time></trkpt>
<trkpt lat="27.163807" lon="100.060833">
<time>2016-10-07T08:03:59Z</time></trkpt>
<trkpt lat="27.163877" lon="100.060923">
<time>2016-10-07T08:04:00Z</time></trkpt>
<trkpt lat="27.163956" lon="100.061032">
<time>2016-10-07T08:04:01Z</time></trkpt>
<trkpt lat="27.164086" lon="100.061182">
<time>2016-10-07T08:04:02Z</time></trkpt>
<trkpt lat="27.164166" lon="100.061262">
<time>2016-10-07T08:04:03Z</time></trkpt>
<trkpt lat="27.164246" lon="100.061332">
<time>2016-10-07T08:04:04Z</time></trkpt>
<trkpt lat="27.164316" lon="100.061392">
<time>2016-10-07T08:04:05Z</time></trkpt>
<trkpt lat="27.164516" lon="100.061542">
<time>2016-10-07T08:04:06Z</time></trkpt>
<trkpt lat="27.164705" lon="100.061671">
<time>2016-10-07T08:04:07Z</time></trkpt>
<trkpt lat="27.164895" lon="100.061811">
<time>2016-10-07T08:04:08Z</time></trkpt>
<trkpt lat="27.165105" lon="100.061961">
<time>2016-10-07T08:04:09Z</time></trkpt>
<trkpt lat="27.165264" lon="100.062091">
<time>2016-10-07T08:04:10Z</time></trkpt>
<trkpt lat="27.165364" lon="100.06218">
<time>2016-10-07T08:04:11Z</time></trkpt>
<trkpt lat="27.165464" lon="100.06229">
<time>2016-10-07T08:04:12Z</time></trkpt>
<trkpt lat="27.165534" lon="100.06237">
<time>2016-10-07T08:04:13Z</time></trkpt>
<trkpt lat="27.165624" lon="100.0625">
<time>2016-10-07T08:04:14Z</time></trkpt>
<trkpt lat="27.165723" lon="100.06268">
<time>2016-10-07T08:04:15Z</time></trkpt>
<trkpt lat="27.165833" lon="100.062879">
<time>2016-10-07T08:04:16Z</time></trkpt>
<trkpt lat="27.165913" lon="100.063039">
<time>2016-10-07T08:04:17Z</time></trkpt>
<trkpt lat="27.165983" lon="100.063179">
<time>2016-10-07T08:04:18Z</time></trkpt>
<trkpt lat="27.166072" lon="100.063329">
<time>2016-10-07T08:04:19Z</time></trkpt>
<trkpt lat="27.166152" lon="100.063438">
<time>2016-10-07T08:04:20Z</time></trkpt>
<trkpt lat="27.166232" lon="100.063538">
<time>2016-10-07T08:04:21Z</time></trkpt>
<trkpt lat="27.166372" lon="100.063708">
<time>2016-10-07T08:04:22Z</time></trkpt>
<trkpt lat="27.166502" lon="100.063838">
<time>2016-10-07T08:04:23Z</time></trkpt>
<trkpt lat="27.166691" lon="100.064017">
<time>2016-10-07T08:04:24Z</time></trkpt>
<trkpt lat="27.166731" lon="100.064067">
<time>2016-10-07T08:04:25Z</time></trkpt>
<trkpt lat="27.166801" lon="100.064117">
<time>2016-10-07T08:04:26Z</time></trkpt>
<trkpt lat="27.166881" lon="100.064177">
<time>2016-10-07T08:04:27Z</time></trkpt>
<trkpt lat="27.166951" lon="100.064217">
<time>2016-10-07T08:04:28Z</time></trkpt>
<trkpt lat="27.167001" lon="100.064257">
<time>2016-10-07T08:04:29Z</time></trkpt>
<trkpt lat="27.167121" lon="100.064307">
<time>2016-10-07T08:04:30Z</time></trkpt>
<trkpt lat="27.167251" lon="100.064347">
<time>2016-10-07T08:04:31Z</time></trkpt>
<trkpt lat="27.167371" lon="100.064367">
<time>2016-10-07T08:04:32Z</time></trkpt>
<trkpt lat="27.16751" lon="100.064387">
<time>2016-10-07T08:04:33Z</time></trkpt>
<trkpt lat="27.16767" lon="100.064387">
<time>2016-10-07T08:04:34Z</time></trkpt>
<trkpt lat="27.16785" lon="100.064377">
<time>2016-10-07T08:04:35Z</time></trkpt>
<trkpt lat="27.16801" lon="100.064347">
<time>2016-10-07T08:04:36Z</time></trkpt>
<trkpt lat="27.16834" lon="100.064287">
<time>2016-10-07T08:04:37Z</time></trkpt>
<trkpt lat="27.1685" lon="100.064237">
<time>2016-10-07T08:04:38Z</time></trkpt>
<trkpt lat="27.16864" lon="100.064177">
<time>2016-10-07T08:04:39Z</time></trkpt>
<trkpt lat="27.168781" lon="100.064107">
<time>2016-10-07T08:04:40Z</time></trkpt>
<trkpt lat="27.168911" lon="100.064017">
<time>2016-10-07T08:04:41Z</time></trkpt>
<trkpt lat="27.169051" lon="100.063898">
<time>2016-10-07T08:04:42Z</time></trkpt>
<trkpt lat="27.169141" lon="100.063808">
<time>2016-10-07T08:04:43Z</time></trkpt>
<trkpt lat="27.169211" lon="100.063718">
<time>2016-10-07T08:04:44Z</time></trkpt>
<trkpt lat="27.169261" lon="100.063648">
<time>2016-10-07T08:04:45Z</time></trkpt>
<trkpt lat="27.169321" lon="100.063548">
<time>2016-10-07T08:04:46Z</time></trkpt>
<trkpt lat="27.169381" lon="100.063438">
<time>2016-10-07T08:04:47Z</time></trkpt>
<trkpt lat="27.169432" lon="100.063318">
<time>2016-10-07T08:04:48Z</time></trkpt>
<trkpt lat="27.169492" lon="100.063139">
<time>2016-10-07T08:04:49Z</time></trkpt>
<trkpt lat="27.169552" lon="100.062949">
<time>2016-10-07T08:04:50Z</time></trkpt>
<trkpt lat="27.169602" lon="100.062679">
<time>2016-10-07T08:04:51Z</time></trkpt>
<trkpt lat="27.169653" lon="100.06243">
<time>2016-10-07T08:04:52Z</time></trkpt>
<trkpt lat="27.169703" lon="100.06209">
<time>2016-10-07T08:04:53Z</time></trkpt>
<trkpt lat="27.169724" lon="100.061891">
<time>2016-10-07T08:04:54Z</time></trkpt>
<trkpt lat="27.169734" lon="100.061621">
<time>2016-10-07T08:04:55Z</time></trkpt>
<trkpt lat="27.169724" lon="100.061402">
<time>2016-10-07T08:04:56Z</time></trkpt>
<trkpt lat="27.169705" lon="100.061082">
<time>2016-10-07T08:04:57Z</time></trkpt>
<trkpt lat="27.169705" lon="100.060922">
<time>2016-10-07T08:04:58Z</time></trkpt>
<trkpt lat="27.169705" lon="100.060773">
<time>2016-10-07T08:04:59Z</time></trkpt>
<trkpt lat="27.169726" lon="100.060623">
<time>2016-10-07T08:05:00Z</time></trkpt>
<trkpt lat="27.169756" lon="100.060493">
<time>2016-10-07T08:05:01Z</time></trkpt>
<trkpt lat="27.169796" lon="100.060373">
<time>2016-10-07T08:05:02Z</time></trkpt>
<trkpt lat="27.169846" lon="100.060264">
<time>2016-10-07T08:05:03Z</time></trkpt>
<trkpt lat="27.169906" lon="100.060164">
<time>2016-10-07T08:05:04Z</time></trkpt>
<trkpt lat="27.169956" lon="100.060084">
<time>2016-10-07T08:05:05Z</time></trkpt>
<trkpt lat="27.170067" lon="100.059944">
<time>2016-10-07T08:05:06Z</time></trkpt>
<trkpt lat="27.170207" lon="100.059764">
<time>2016-10-07T08:05:07Z</time></trkpt>
<trkpt lat="27.170557" lon="100.059365">
<time>2016-10-07T08:05:08Z</time></trkpt>
<trkpt lat="27.170998" lon="100.058836">
<time>2016-10-07T08:05:09Z</time></trkpt>
<trkpt lat="27.171189" lon="100.058607">
<time>2016-10-07T08:05:10Z</time></trkpt>
<trkpt lat="27.171349" lon="100.058417">
<time>2016-10-07T08:05:11Z</time></trkpt>
<trkpt lat="27.171519" lon="100.058197">
<time>2016-10-07T08:05:12Z</time></trkpt>
<trkpt lat="27.17166" lon="100.057978">
<time>2016-10-07T08:05:13Z</time></trkpt>
<trkpt lat="27.17177" lon="100.057798">
<time>2016-10-07T08:05:14Z</time></trkpt>
<trkpt lat="27.17187" lon="100.057588">
<time>2016-10-07T08:05:15Z</time></trkpt>
<trkpt lat="27.17196" lon="100.057429">
<time>2016-10-07T08:05:16Z</time></trkpt>
<trkpt lat="27.172031" lon="100.057289">
<time>2016-10-07T08:05:17Z</time></trkpt>
<trkpt lat="27.172091" lon="100.057199">
<time>2016-10-07T08:05:18Z</time></trkpt>
<trkpt lat="27.172161" lon="100.057119">
<time>2016-10-07T08:05:19Z</time></trkpt>
<trkpt lat="27.172241" lon="100.057019">
<time>2016-10-07T08:05:20Z</time></trkpt>
<trkpt lat="27.172291" lon="100.05696">
<time>2016-10-07T08:05:21Z</time></trkpt>
<trkpt lat="27.172381" lon="100.05688">
<time>2016-10-07T08:05:22Z</time></trkpt>
<trkpt lat="27.172451" lon="100.05683">
<time>2016-10-07T08:05:23Z</time></trkpt>
<trkpt lat="27.172501" lon="100.05679">
<time>2016-10-07T08:05:24Z</time></trkpt>
<trkpt lat="27.172621" lon="100.05671">
<time>2016-10-07T08:05:25Z</time></trkpt>
<trkpt lat="27.172752" lon="100.05663">
<time>2016-10-07T08:05:26Z</time></trkpt>
<trkpt lat="27.173112" lon="100.056411">
<time>2016-10-07T08:05:27Z</time></trkpt>
<trkpt lat="27.173362" lon="100.056261">
<time>2016-10-07T08:05:28Z</time></trkpt>
<trkpt lat="27.173532" lon="100.056161">
<time>2016-10-07T08:05:29Z</time></trkpt>
<trkpt lat="27.173632" lon="100.056101">
<time>2016-10-07T08:05:30Z</time></trkpt>
<trkpt lat="27.173712" lon="100.056051">
<time>2016-10-07T08:05:31Z</time></trkpt>
<trkpt lat="27.173792" lon="100.056011">
<time>2016-10-07T08:05:32Z</time></trkpt>
<trkpt lat="27.173872" lon="100.055981">
<time>2016-10-07T08:05:33Z</time></trkpt>
<trkpt lat="27.173922" lon="100.055961">
<time>2016-10-07T08:05:34Z</time></trkpt>
<trkpt lat="27.173993" lon="100.055922">
<time>2016-10-07T08:05:35Z</time></trkpt>
<trkpt lat="27.174053" lon="100.055902">
<time>2016-10-07T08:05:36Z</time></trkpt>
<trkpt lat="27.174163" lon="100.055872">
<time>2016-10-07T08:05:37Z</time></trkpt>
<trkpt lat="27.174273" lon="100.055832">
<time>2016-10-07T08:05:38Z</time></trkpt>
<trkpt lat="27.174453" lon="100.055782">
<time>2016-10-07T08:05:39Z</time></trkpt>
<trkpt lat="27.175183" lon="100.055602">
<time>2016-10-07T08:05:40Z</time></trkpt>
<trkpt lat="27.175713" lon="100.055472">
<time>2016-10-07T08:05:41Z</time></trkpt>
<trkpt lat="27.176243" lon="100.055343">
<time>2016-10-07T08:05:42Z</time></trkpt>
<trkpt lat="27.176673" lon="100.055233">
<time>2016-10-07T08:05:43Z</time></trkpt>
<trkpt lat="27.176823" lon="100.055183">
<time>2016-10-07T08:05:44Z</time></trkpt>
<trkpt lat="27.177003" lon="100.055133">
<time>2016-10-07T08:05:45Z</time></trkpt>
<trkpt lat="27.177133" lon="100.055083">
<time>2016-10-07T08:05:46Z</time></trkpt>
<trkpt lat="27.177263" lon="100.055023">
<time>2016-10-07T08:05:47Z</time></trkpt>
<trkpt lat="27.177403" lon="100.054953">
<time>2016-10-07T08:05:48Z</time></trkpt>
<trkpt lat="27.177513" lon="100.054893">
<time>2016-10-07T08:05:49Z</time></trkpt>
<trkpt lat="27.177614" lon="100.054824">
<time>2016-10-07T08:05:50Z</time></trkpt>
<trkpt lat="27.177734" lon="100.054734">
<time>2016-10-07T08:05:51Z</time></trkpt>
<trkpt lat="27.177794" lon="100.054684">
<time>2016-10-07T08:05:52Z</time></trkpt>
<trkpt lat="27.177984" lon="100.054534">
<time>2016-10-07T08:05:53Z</time></trkpt>
<trkpt lat="27.178124" lon="100.054444">
<time>2016-10-07T08:05:54Z</time></trkpt>
<trkpt lat="27.178204" lon="100.054404">
<time>2016-10-07T08:05:55Z</time></trkpt>
<trkpt lat="27.178304" lon="100.054355">
<time>2016-10-07T08:05:56Z</time></trkpt>
<trkpt lat="27.178394" lon="100.054315">
<time>2016-10-07T08:05:57Z</time></trkpt>
<trkpt lat="27.178514" lon="100.054265">
<time>2016-10-07T08:05:58Z</time></trkpt>
<trkpt lat="27.178624" lon="100.054235">
<time>2016-10-07T08:05:59Z</time></trkpt>
<trkpt lat="27.178834" lon="100.054175">
<time>2016-10-07T08:06:00Z</time></trkpt>
<trkpt lat="27.179025" lon="100.054135">
<time>2016-10-07T08:06:01Z</time></trkpt>
<trkpt lat="27.179285" lon="100.054085">
<time>2016-10-07T08:06:02Z</time></trkpt>
<trkpt lat="27.179675" lon="100.054005">
<time>2016-10-07T08:06:03Z</time></trkpt>
<trkpt lat="27.179995" lon="100.053925">
<time>2016-10-07T08:06:04Z</time></trkpt>
<trkpt lat="27.180085" lon="100.053895">
<time>2016-10-07T08:06:05Z</time></trkpt>
<trkpt lat="27.180175" lon="100.053865">
<time>2016-10-07T08:06:06Z</time></trkpt>
<trkpt lat="27.180255" lon="100.053836">
<time>2016-10-07T08:06:07Z</time></trkpt>
<trkpt lat="27.180305" lon="100.053806">
<time>2016-10-07T08:06:08Z</time></trkpt>
<trkpt lat="27.180385" lon="100.053746">
<time>2016-10-07T08:06:09Z</time></trkpt>
<trkpt lat="27.180455" lon="100.053676">
<time>2016-10-07T08:06:10Z</time></trkpt>
<trkpt lat="27.180505" lon="100.053636">
<time>2016-10-07T08:06:11Z</time></trkpt>
<trkpt lat="27.180545" lon="100.053586">
<time>2016-10-07T08:06:12Z</time></trkpt>
<trkpt lat="27.180585" lon="100.053536">
<time>2016-10-07T08:06:13Z</time></trkpt>
<trkpt lat="27.180635" lon="100.053456">
<time>2016-10-07T08:06:14Z</time></trkpt>
<trkpt lat="27.180696" lon="100.053356">
<time>2016-10-07T08:06:15Z</time></trkpt>
<trkpt lat="27.180756" lon="100.053237">
<time>2016-10-07T08:06:16Z</time></trkpt>
<trkpt lat="27.180806" lon="100.053117">
<time>2016-10-07T08:06:17Z</time></trkpt>
<trkpt lat="27.180886" lon="100.052957">
<time>2016-10-07T08:06:18Z</time></trkpt>
<trkpt lat="27.180967" lon="100.052808">
<time>2016-10-07T08:06:19Z</time></trkpt>
<trkpt lat="27.181037" lon="100.052698">
<time>2016-10-07T08:06:20Z</time></trkpt>
<trkpt lat="27.181087" lon="100.052618">
<time>2016-10-07T08:06:21Z</time></trkpt>
<trkpt lat="27.181167" lon="100.052498">
<time>2016-10-07T08:06:22Z</time></trkpt>
<trkpt lat="27.181237" lon="100.052418">
<time>2016-10-07T08:06:23Z</time></trkpt>
<trkpt lat="27.181337" lon="100.052319">
<time>2016-10-07T08:06:24Z</time></trkpt>
<trkpt lat="27.181437" lon="100.052239">
<time>2016-10-07T08:06:25Z</time></trkpt>
<trkpt lat="27.181668" lon="100.052059">
<time>2016-10-07T08:06:26Z</time></trkpt>
<trkpt lat="27.182168" lon="100.05171">
<time>2016-10-07T08:06:27Z</time></trkpt>
<trkpt lat="27.182489" lon="100.05147">
<time>2016-10-07T08:06:28Z</time></trkpt>
<trkpt lat="27.182789" lon="100.051271">
<time>2016-10-07T08:06:29Z</time></trkpt>
<trkpt lat="27.182959" lon="100.051181">
<time>2016-10-07T08:06:30Z</time></trkpt>
<trkpt lat="27.183159" lon="100.051071">
<time>2016-10-07T08:06:31Z</time></trkpt>
<trkpt lat="27.18346" lon="100.050932">
<time>2016-10-07T08:06:32Z</time></trkpt>
<trkpt lat="27.1837" lon="100.050832">
<time>2016-10-07T08:06:33Z</time></trkpt>
<trkpt lat="27.18392" lon="100.050742">
<time>2016-10-07T08:06:34Z</time></trkpt>
<trkpt lat="27.18409" lon="100.050682">
<time>2016-10-07T08:06:35Z</time></trkpt>
<trkpt lat="27.18423" lon="100.050642">
<time>2016-10-07T08:06:36Z</time></trkpt>
<trkpt lat="27.18436" lon="100.050612">
<time>2016-10-07T08:06:37Z</time></trkpt>
<trkpt lat="27.18446" lon="100.050582">
<time>2016-10-07T08:06:38Z</time></trkpt>
<trkpt lat="27.18454" lon="100.050562">
<time>2016-10-07T08:06:39Z</time></trkpt>
<trkpt lat="27.1846" lon="100.050552">
<time>2016-10-07T08:06:40Z</time></trkpt>
<trkpt lat="27.18473" lon="100.050532">
<time>2016-10-07T08:06:41Z</time></trkpt>
<trkpt lat="27.18483" lon="100.050522">
<time>2016-10-07T08:06:42Z</time></trkpt>
<trkpt lat="27.18489" lon="100.050522">
<time>2016-10-07T08:06:43Z</time></trkpt>
<trkpt lat="27.18496" lon="100.050532">
<time>2016-10-07T08:06:44Z</time></trkpt>
<trkpt lat="27.18502" lon="100.050542">
<time>2016-10-07T08:06:45Z</time></trkpt>
<trkpt lat="27.18508" lon="100.050562">
<time>2016-10-07T08:06:46Z</time></trkpt>
<trkpt lat="27.18508" lon="100.050562">
<time>2016-10-07T08:06:47Z</time></trkpt>
<trkpt lat="27.185301" lon="100.050053">
<time>2016-10-07T08:06:48Z</time></trkpt>
<trkpt lat="27.185491" lon="100.049924">
<time>2016-10-07T08:06:49Z</time></trkpt>
<trkpt lat="27.185821" lon="100.049984">
<time>2016-10-07T08:06:50Z</time></trkpt>
<trkpt lat="27.186321" lon="100.049904">
<time>2016-10-07T08:06:51Z</time></trkpt>
<trkpt lat="27.187121" lon="100.049864">
<time>2016-10-07T08:06:52Z</time></trkpt>
<trkpt lat="27.187721" lon="100.049824">
<time>2016-10-07T08:06:53Z</time></trkpt>
<trkpt lat="27.188361" lon="100.049714">
<time>2016-10-07T08:06:54Z</time></trkpt>
<trkpt lat="27.188661" lon="100.049584">
<time>2016-10-07T08:06:55Z</time></trkpt>
<trkpt lat="27.189121" lon="100.049325">
<time>2016-10-07T08:06:56Z</time></trkpt>
<trkpt lat="27.189892" lon="100.048796">
<time>2016-10-07T08:06:57Z</time></trkpt>
<trkpt lat="27.190313" lon="100.048537">
<time>2016-10-07T08:06:58Z</time></trkpt>
<trkpt lat="27.190483" lon="100.048437">
<time>2016-10-07T08:06:59Z</time></trkpt>
<trkpt lat="27.190963" lon="100.048217">
<time>2016-10-07T08:07:00Z</time></trkpt>
<trkpt lat="27.192934" lon="100.047768">
<time>2016-10-07T08:07:01Z</time></trkpt>
<trkpt lat="27.193744" lon="100.047479">
<time>2016-10-07T08:07:02Z</time></trkpt>
<trkpt lat="27.193744" lon="100.047479">
<time>2016-10-07T08:07:03Z</time></trkpt>
<trkpt lat="27.193794" lon="100.047409">
<time>2016-10-07T08:07:04Z</time></trkpt>
<trkpt lat="27.193864" lon="100.047339">
<time>2016-10-07T08:07:05Z</time></trkpt>
<trkpt lat="27.193914" lon="100.047289">
<time>2016-10-07T08:07:06Z</time></trkpt>
<trkpt lat="27.194005" lon="100.04722">
<time>2016-10-07T08:07:07Z</time></trkpt>
<trkpt lat="27.194075" lon="100.04717">
<time>2016-10-07T08:07:08Z</time></trkpt>
<trkpt lat="27.194165" lon="100.04711">
<time>2016-10-07T08:07:09Z</time></trkpt>
<trkpt lat="27.194265" lon="100.04705">
<time>2016-10-07T08:07:10Z</time></trkpt>
<trkpt lat="27.194345" lon="100.04701">
<time>2016-10-07T08:07:11Z</time></trkpt>
<trkpt lat="27.194455" lon="100.04696">
<time>2016-10-07T08:07:12Z</time></trkpt>
<trkpt lat="27.194875" lon="100.046761">
<time>2016-10-07T08:07:13Z</time></trkpt>
<trkpt lat="27.195025" lon="100.046691">
<time>2016-10-07T08:07:14Z</time></trkpt>
<trkpt lat="27.195206" lon="100.046601">
<time>2016-10-07T08:07:15Z</time></trkpt>
<trkpt lat="27.195316" lon="100.046551">
<time>2016-10-07T08:07:16Z</time></trkpt>
<trkpt lat="27.195546" lon="100.046441">
<time>2016-10-07T08:07:17Z</time></trkpt>
<trkpt lat="27.195716" lon="100.046372">
<time>2016-10-07T08:07:18Z</time></trkpt>
<trkpt lat="27.195836" lon="100.046322">
<time>2016-10-07T08:07:19Z</time></trkpt>
<trkpt lat="27.196006" lon="100.046272">
<time>2016-10-07T08:07:20Z</time></trkpt>
<trkpt lat="27.196116" lon="100.046232">
<time>2016-10-07T08:07:21Z</time></trkpt>
<trkpt lat="27.196286" lon="100.046182">
<time>2016-10-07T08:07:22Z</time></trkpt>
<trkpt lat="27.196536" lon="100.046112">
<time>2016-10-07T08:07:23Z</time></trkpt>
<trkpt lat="27.196896" lon="100.046012">
<time>2016-10-07T08:07:24Z</time></trkpt>
<trkpt lat="27.197076" lon="100.045952">
<time>2016-10-07T08:07:25Z</time></trkpt>
<trkpt lat="27.197227" lon="100.045903">
<time>2016-10-07T08:07:26Z</time></trkpt>
<trkpt lat="27.197317" lon="100.045873">
<time>2016-10-07T08:07:27Z</time></trkpt>
<trkpt lat="27.197407" lon="100.045833">
<time>2016-10-07T08:07:28Z</time></trkpt>
<trkpt lat="27.197467" lon="100.045813">
<time>2016-10-07T08:07:29Z</time></trkpt>
<trkpt lat="27.197627" lon="100.045733">
<time>2016-10-07T08:07:30Z</time></trkpt>
<trkpt lat="27.197747" lon="100.045673">
<time>2016-10-07T08:07:31Z</time></trkpt>
<trkpt lat="27.197887" lon="100.045603">
<time>2016-10-07T08:07:32Z</time></trkpt>
<trkpt lat="27.197967" lon="100.045553">
<time>2016-10-07T08:07:33Z</time></trkpt>
<trkpt lat="27.198077" lon="100.045484">
<time>2016-10-07T08:07:34Z</time></trkpt>
<trkpt lat="27.198217" lon="100.045394">
<time>2016-10-07T08:07:35Z</time></trkpt>
<trkpt lat="27.198318" lon="100.045334">
<time>2016-10-07T08:07:36Z</time></trkpt>
<trkpt lat="27.198418" lon="100.045274">
<time>2016-10-07T08:07:37Z</time></trkpt>
<trkpt lat="27.198508" lon="100.045224">
<time>2016-10-07T08:07:38Z</time></trkpt>
<trkpt lat="27.198578" lon="100.045194">
<time>2016-10-07T08:07:39Z</time></trkpt>
<trkpt lat="27.198648" lon="100.045164">
<time>2016-10-07T08:07:40Z</time></trkpt>
<trkpt lat="27.198748" lon="100.045134">
<time>2016-10-07T08:07:41Z</time></trkpt>
<trkpt lat="27.198868" lon="100.045094">
<time>2016-10-07T08:07:42Z</time></trkpt>
<trkpt lat="27.198968" lon="100.045075">
<time>2016-10-07T08:07:43Z</time></trkpt>
<trkpt lat="27.199078" lon="100.045055">
<time>2016-10-07T08:07:44Z</time></trkpt>
<trkpt lat="27.199148" lon="100.045045">
<time>2016-10-07T08:07:45Z</time></trkpt>
<trkpt lat="27.199198" lon="100.045045">
<time>2016-10-07T08:07:46Z</time></trkpt>
<trkpt lat="27.199318" lon="100.045035">
<time>2016-10-07T08:07:47Z</time></trkpt>
<trkpt lat="27.199478" lon="100.045045">
<time>2016-10-07T08:07:48Z</time></trkpt>
<trkpt lat="27.199778" lon="100.045055">
<time>2016-10-07T08:07:49Z</time></trkpt>
<trkpt lat="27.200048" lon="100.045074">
<time>2016-10-07T08:07:50Z</time></trkpt>
<trkpt lat="27.200258" lon="100.045084">
<time>2016-10-07T08:07:51Z</time></trkpt>
<trkpt lat="27.200358" lon="100.045094">
<time>2016-10-07T08:07:52Z</time></trkpt>
<trkpt lat="27.200458" lon="100.045094">
<time>2016-10-07T08:07:53Z</time></trkpt>
<trkpt lat="27.200587" lon="100.045084">
<time>2016-10-07T08:07:54Z</time></trkpt>
<trkpt lat="27.200677" lon="100.045074">
<time>2016-10-07T08:07:55Z</time></trkpt>
<trkpt lat="27.200747" lon="100.045064">
<time>2016-10-07T08:07:56Z</time></trkpt>
<trkpt lat="27.200868" lon="100.045035">
<time>2016-10-07T08:07:57Z</time></trkpt>
<trkpt lat="27.200938" lon="100.045005">
<time>2016-10-07T08:07:58Z</time></trkpt>
<trkpt lat="27.201008" lon="100.044975">
<time>2016-10-07T08:07:59Z</time></trkpt>
<trkpt lat="27.201078" lon="100.044945">
<time>2016-10-07T08:08:00Z</time></trkpt>
<trkpt lat="27.201138" lon="100.044915">
<time>2016-10-07T08:08:01Z</time></trkpt>
<trkpt lat="27.201208" lon="100.044875">
<time>2016-10-07T08:08:02Z</time></trkpt>
<trkpt lat="27.201288" lon="100.044815">
<time>2016-10-07T08:08:03Z</time></trkpt>
<trkpt lat="27.201368" lon="100.044755">
<time>2016-10-07T08:08:04Z</time></trkpt>
<trkpt lat="27.201468" lon="100.044685">
<time>2016-10-07T08:08:05Z</time></trkpt>
<trkpt lat="27.201598" lon="100.044576">
<time>2016-10-07T08:08:06Z</time></trkpt>
<trkpt lat="27.201829" lon="100.044386">
<time>2016-10-07T08:08:07Z</time></trkpt>
<trkpt lat="27.202039" lon="100.044207">
<time>2016-10-07T08:08:08Z</time></trkpt>
<trkpt lat="27.202159" lon="100.044107">
<time>2016-10-07T08:08:09Z</time></trkpt>
<trkpt lat="27.20262" lon="100.043718">
<time>2016-10-07T08:08:10Z</time></trkpt>
<trkpt lat="27.20276" lon="100.043598">
<time>2016-10-07T08:08:11Z</time></trkpt>
<trkpt lat="27.202951" lon="100.043438">
<time>2016-10-07T08:08:12Z</time></trkpt>
<trkpt lat="27.203041" lon="100.043369">
<time>2016-10-07T08:08:13Z</time></trkpt>
<trkpt lat="27.203111" lon="100.043319">
<time>2016-10-07T08:08:14Z</time></trkpt>
<trkpt lat="27.203181" lon="100.043269">
<time>2016-10-07T08:08:15Z</time></trkpt>
<trkpt lat="27.203251" lon="100.043219">
<time>2016-10-07T08:08:16Z</time></trkpt>
<trkpt lat="27.203341" lon="100.043159">
<time>2016-10-07T08:08:17Z</time></trkpt>
<trkpt lat="27.203441" lon="100.043109">
<time>2016-10-07T08:08:18Z</time></trkpt>
<trkpt lat="27.203541" lon="100.043059">
<time>2016-10-07T08:08:19Z</time></trkpt>
<trkpt lat="27.203651" lon="100.043009">
<time>2016-10-07T08:08:20Z</time></trkpt>
<trkpt lat="27.203761" lon="100.04298">
<time>2016-10-07T08:08:21Z</time></trkpt>
<trkpt lat="27.203871" lon="100.04295">
<time>2016-10-07T08:08:22Z</time></trkpt>
<trkpt lat="27.203951" lon="100.04293">
<time>2016-10-07T08:08:23Z</time></trkpt>
<trkpt lat="27.204011" lon="100.04292">
<time>2016-10-07T08:08:24Z</time></trkpt>
<trkpt lat="27.204131" lon="100.04291">
<time>2016-10-07T08:08:25Z</time></trkpt>
<trkpt lat="27.204251" lon="100.0429">
<time>2016-10-07T08:08:26Z</time></trkpt>
<trkpt lat="27.204351" lon="100.0429">
<time>2016-10-07T08:08:27Z</time></trkpt>
<trkpt lat="27.204451" lon="100.0429">
<time>2016-10-07T08:08:28Z</time></trkpt>
<trkpt lat="27.204601" lon="100.04292">
<time>2016-10-07T08:08:29Z</time></trkpt>
<trkpt lat="27.204791" lon="100.04295">
<time>2016-10-07T08:08:30Z</time></trkpt>
<trkpt lat="27.204991" lon="100.042979">
<time>2016-10-07T08:08:31Z</time></trkpt>
<trkpt lat="27.205161" lon="100.042999">
<time>2016-10-07T08:08:32Z</time></trkpt>
<trkpt lat="27.205261" lon="100.043009">
<time>2016-10-07T08:08:33Z</time></trkpt>
<trkpt lat="27.205351" lon="100.043009">
<time>2016-10-07T08:08:34Z</time></trkpt>
<trkpt lat="27.205461" lon="100.043009">
<time>2016-10-07T08:08:35Z</time></trkpt>
<trkpt lat="27.205551" lon="100.042989">
<time>2016-10-07T08:08:36Z</time></trkpt>
<trkpt lat="27.205621" lon="100.042979">
<time>2016-10-07T08:08:37Z</time></trkpt>
<trkpt lat="27.205691" lon="100.04296">
<time>2016-10-07T08:08:38Z</time></trkpt>
<trkpt lat="27.205761" lon="100.04293">
<time>2016-10-07T08:08:39Z</time></trkpt>
<trkpt lat="27.205831" lon="100.0429">
<time>2016-10-07T08:08:40Z</time></trkpt>
<trkpt lat="27.205911" lon="100.04285">
<time>2016-10-07T08:08:41Z</time></trkpt>
<trkpt lat="27.205971" lon="100.04281">
<time>2016-10-07T08:08:42Z</time></trkpt>
<trkpt lat="27.206031" lon="100.04276">
<time>2016-10-07T08:08:43Z</time></trkpt>
<trkpt lat="27.206081" lon="100.04272">
<time>2016-10-07T08:08:44Z</time></trkpt>
<trkpt lat="27.206142" lon="100.04266">
<time>2016-10-07T08:08:45Z</time></trkpt>
<trkpt lat="27.206202" lon="100.0426">
<time>2016-10-07T08:08:46Z</time></trkpt>
<trkpt lat="27.206302" lon="100.042491">
<time>2016-10-07T08:08:47Z</time></trkpt>
<trkpt lat="27.206432" lon="100.042351">
<time>2016-10-07T08:08:48Z</time></trkpt>
<trkpt lat="27.206583" lon="100.042151">
<time>2016-10-07T08:08:49Z</time></trkpt>
<trkpt lat="27.206803" lon="100.041872">
<time>2016-10-07T08:08:50Z</time></trkpt>
<trkpt lat="27.207315" lon="100.041234">
<time>2016-10-07T08:08:51Z</time></trkpt>
<trkpt lat="27.207545" lon="100.040964">
<time>2016-10-07T08:08:52Z</time></trkpt>
<trkpt lat="27.207726" lon="100.040755">
<time>2016-10-07T08:08:53Z</time></trkpt>
<trkpt lat="27.207836" lon="100.040605">
<time>2016-10-07T08:08:54Z</time></trkpt>
<trkpt lat="27.208057" lon="100.040306">
<time>2016-10-07T08:08:55Z</time></trkpt>
<trkpt lat="27.208147" lon="100.040157">
<time>2016-10-07T08:08:56Z</time></trkpt>
<trkpt lat="27.208247" lon="100.039977">
<time>2016-10-07T08:08:57Z</time></trkpt>
<trkpt lat="27.208328" lon="100.039827">
<time>2016-10-07T08:08:58Z</time></trkpt>
<trkpt lat="27.208428" lon="100.039598">
<time>2016-10-07T08:08:59Z</time></trkpt>
<trkpt lat="27.208519" lon="100.039379">
<time>2016-10-07T08:09:00Z</time></trkpt>
<trkpt lat="27.208619" lon="100.039179">
<time>2016-10-07T08:09:01Z</time></trkpt>
<trkpt lat="27.208679" lon="100.039059">
<time>2016-10-07T08:09:02Z</time></trkpt>
<trkpt lat="27.20876" lon="100.03892">
<time>2016-10-07T08:09:03Z</time></trkpt>
<trkpt lat="27.20883" lon="100.03881">
<time>2016-10-07T08:09:04Z</time></trkpt>
<trkpt lat="27.20889" lon="100.03873">
<time>2016-10-07T08:09:05Z</time></trkpt>
<trkpt lat="27.20896" lon="100.03864">
<time>2016-10-07T08:09:06Z</time></trkpt>
<trkpt lat="27.209051" lon="100.038531">
<time>2016-10-07T08:09:07Z</time></trkpt>
<trkpt lat="27.209401" lon="100.038152">
<time>2016-10-07T08:09:08Z</time></trkpt>
<trkpt lat="27.209532" lon="100.038002">
<time>2016-10-07T08:09:09Z</time></trkpt>
<trkpt lat="27.209642" lon="100.037853">
<time>2016-10-07T08:09:10Z</time></trkpt>
<trkpt lat="27.209722" lon="100.037723">
<time>2016-10-07T08:09:11Z</time></trkpt>
<trkpt lat="27.209843" lon="100.037513">
<time>2016-10-07T08:09:12Z</time></trkpt>
<trkpt lat="27.209913" lon="100.037374">
<time>2016-10-07T08:09:13Z</time></trkpt>
<trkpt lat="27.210305" lon="100.036666">
<time>2016-10-07T08:09:14Z</time></trkpt>
<trkpt lat="27.210516" lon="100.036277">
<time>2016-10-07T08:09:15Z</time></trkpt>
<trkpt lat="27.210626" lon="100.036077">
<time>2016-10-07T08:09:16Z</time></trkpt>
<trkpt lat="27.210737" lon="100.035918">
<time>2016-10-07T08:09:17Z</time></trkpt>
<trkpt lat="27.210837" lon="100.035788">
<time>2016-10-07T08:09:18Z</time></trkpt>
<trkpt lat="27.210927" lon="100.035678">
<time>2016-10-07T08:09:19Z</time></trkpt>
<trkpt lat="27.211007" lon="100.035599">
<time>2016-10-07T08:09:20Z</time></trkpt>
<trkpt lat="27.211057" lon="100.035549">
<time>2016-10-07T08:09:21Z</time></trkpt>
<trkpt lat="27.211198" lon="100.035439">
<time>2016-10-07T08:09:22Z</time></trkpt>
<trkpt lat="27.211298" lon="100.035359">
<time>2016-10-07T08:09:23Z</time></trkpt>
<trkpt lat="27.211438" lon="100.035269">
<time>2016-10-07T08:09:24Z</time></trkpt>
<trkpt lat="27.211598" lon="100.03516">
<time>2016-10-07T08:09:25Z</time></trkpt>
<trkpt lat="27.211859" lon="100.035">
<time>2016-10-07T08:09:26Z</time></trkpt>
<trkpt lat="27.212069" lon="100.034881">
<time>2016-10-07T08:09:27Z</time></trkpt>
<trkpt lat="27.212329" lon="100.034721">
<time>2016-10-07T08:09:28Z</time></trkpt>
<trkpt lat="27.21264" lon="100.034531">
<time>2016-10-07T08:09:29Z</time></trkpt>
<trkpt lat="27.21282" lon="100.034432">
<time>2016-10-07T08:09:30Z</time></trkpt>
<trkpt lat="27.21304" lon="100.034302">
<time>2016-10-07T08:09:31Z</time></trkpt>
<trkpt lat="27.21321" lon="100.034192">
<time>2016-10-07T08:09:32Z</time></trkpt>
<trkpt lat="27.21342" lon="100.034073">
<time>2016-10-07T08:09:33Z</time></trkpt>
<trkpt lat="27.213581" lon="100.033983">
<time>2016-10-07T08:09:34Z</time></trkpt>
<trkpt lat="27.213791" lon="100.033873">
<time>2016-10-07T08:09:35Z</time></trkpt>
<trkpt lat="27.213971" lon="100.033794">
<time>2016-10-07T08:09:36Z</time></trkpt>
<trkpt lat="27.214091" lon="100.033754">
<time>2016-10-07T08:09:37Z</time></trkpt>
<trkpt lat="27.214271" lon="100.033694">
<time>2016-10-07T08:09:38Z</time></trkpt>
<trkpt lat="27.214441" lon="100.033634">
<time>2016-10-07T08:09:39Z</time></trkpt>
<trkpt lat="27.214782" lon="100.033544">
<time>2016-10-07T08:09:40Z</time></trkpt>
<trkpt lat="27.215002" lon="100.033484">
<time>2016-10-07T08:09:41Z</time></trkpt>
<trkpt lat="27.215102" lon="100.033454">
<time>2016-10-07T08:09:42Z</time></trkpt>
<trkpt lat="27.215282" lon="100.033385">
<time>2016-10-07T08:09:43Z</time></trkpt>
<trkpt lat="27.215472" lon="100.033295">
<time>2016-10-07T08:09:44Z</time></trkpt>
<trkpt lat="27.215622" lon="100.033215">
<time>2016-10-07T08:09:45Z</time></trkpt>
<trkpt lat="27.215762" lon="100.033115">
<time>2016-10-07T08:09:46Z</time></trkpt>
<trkpt lat="27.215903" lon="100.033006">
<time>2016-10-07T08:09:47Z</time></trkpt>
<trkpt lat="27.216023" lon="100.032896">
<time>2016-10-07T08:09:48Z</time></trkpt>
<trkpt lat="27.216143" lon="100.032776">
<time>2016-10-07T08:09:49Z</time></trkpt>
<trkpt lat="27.216314" lon="100.032607">
<time>2016-10-07T08:09:50Z</time></trkpt>
<trkpt lat="27.216494" lon="100.032417">
<time>2016-10-07T08:09:51Z</time></trkpt>
<trkpt lat="27.216705" lon="100.032188">
<time>2016-10-07T08:09:52Z</time></trkpt>
<trkpt lat="27.216985" lon="100.031889">
<time>2016-10-07T08:09:53Z</time></trkpt>
<trkpt lat="27.217216" lon="100.031649">
<time>2016-10-07T08:09:54Z</time></trkpt>
<trkpt lat="27.217346" lon="100.03151">
<time>2016-10-07T08:09:55Z</time></trkpt>
<trkpt lat="27.217527" lon="100.03131">
<time>2016-10-07T08:09:56Z</time></trkpt>
<trkpt lat="27.217667" lon="100.031141">
<time>2016-10-07T08:09:57Z</time></trkpt>
<trkpt lat="27.217828" lon="100.030941">
<time>2016-10-07T08:09:58Z</time></trkpt>
<trkpt lat="27.217968" lon="100.030742">
<time>2016-10-07T08:09:59Z</time></trkpt>
<trkpt lat="27.218068" lon="100.030612">
<time>2016-10-07T08:10:00Z</time></trkpt>
<trkpt lat="27.218249" lon="100.030353">
<time>2016-10-07T08:10:01Z</time></trkpt>
<trkpt lat="27.21841" lon="100.030094">
<time>2016-10-07T08:10:02Z</time></trkpt>
<trkpt lat="27.21858" lon="100.029855">
<time>2016-10-07T08:10:03Z</time></trkpt>
<trkpt lat="27.218711" lon="100.029665">
<time>2016-10-07T08:10:04Z</time></trkpt>
<trkpt lat="27.218791" lon="100.029546">
<time>2016-10-07T08:10:05Z</time></trkpt>
<trkpt lat="27.219223" lon="100.028848">
<time>2016-10-07T08:10:06Z</time></trkpt>
<trkpt lat="27.219373" lon="100.028618">
<time>2016-10-07T08:10:07Z</time></trkpt>
<trkpt lat="27.219444" lon="100.028528">
<time>2016-10-07T08:10:08Z</time></trkpt>
<trkpt lat="27.219534" lon="100.028409">
<time>2016-10-07T08:10:09Z</time></trkpt>
<trkpt lat="27.219604" lon="100.028329">
<time>2016-10-07T08:10:10Z</time></trkpt>
<trkpt lat="27.219694" lon="100.028229">
<time>2016-10-07T08:10:11Z</time></trkpt>
<trkpt lat="27.219764" lon="100.02816">
<time>2016-10-07T08:10:12Z</time></trkpt>
<trkpt lat="27.219835" lon="100.0281">
<time>2016-10-07T08:10:13Z</time></trkpt>
<trkpt lat="27.219995" lon="100.02796">
<time>2016-10-07T08:10:14Z</time></trkpt>
<trkpt lat="27.220195" lon="100.027791">
<time>2016-10-07T08:10:15Z</time></trkpt>
<trkpt lat="27.220436" lon="100.027591">
<time>2016-10-07T08:10:16Z</time></trkpt>
<trkpt lat="27.220907" lon="100.027212">
<time>2016-10-07T08:10:17Z</time></trkpt>
<trkpt lat="27.221067" lon="100.027083">
<time>2016-10-07T08:10:18Z</time></trkpt>
<trkpt lat="27.221318" lon="100.026873">
<time>2016-10-07T08:10:19Z</time></trkpt>
<trkpt lat="27.221798" lon="100.026494">
<time>2016-10-07T08:10:20Z</time></trkpt>
<trkpt lat="27.221969" lon="100.026375">
<time>2016-10-07T08:10:21Z</time></trkpt>
<trkpt lat="27.222099" lon="100.026305">
<time>2016-10-07T08:10:22Z</time></trkpt>
<trkpt lat="27.222239" lon="100.026225">
<time>2016-10-07T08:10:23Z</time></trkpt>
<trkpt lat="27.222399" lon="100.026155">
<time>2016-10-07T08:10:24Z</time></trkpt>
<trkpt lat="27.222549" lon="100.026106">
<time>2016-10-07T08:10:25Z</time></trkpt>
<trkpt lat="27.222739" lon="100.026056">
<time>2016-10-07T08:10:26Z</time></trkpt>
<trkpt lat="27.22296" lon="100.025996">
<time>2016-10-07T08:10:27Z</time></trkpt>
<trkpt lat="27.22329" lon="100.025906">
<time>2016-10-07T08:10:28Z</time></trkpt>
<trkpt lat="27.22356" lon="100.025826">
<time>2016-10-07T08:10:29Z</time></trkpt>
<trkpt lat="27.22377" lon="100.025777">
<time>2016-10-07T08:10:30Z</time></trkpt>
<trkpt lat="27.22396" lon="100.025707">
<time>2016-10-07T08:10:31Z</time></trkpt>
<trkpt lat="27.22409" lon="100.025657">
<time>2016-10-07T08:10:32Z</time></trkpt>
<trkpt lat="27.22418" lon="100.025607">
<time>2016-10-07T08:10:33Z</time></trkpt>
<trkpt lat="27.224381" lon="100.025497">
<time>2016-10-07T08:10:34Z</time></trkpt>
<trkpt lat="27.224521" lon="100.025418">
<time>2016-10-07T08:10:35Z</time></trkpt>
<trkpt lat="27.224991" lon="100.025138">
<time>2016-10-07T08:10:36Z</time></trkpt>
<trkpt lat="27.225522" lon="100.024809">
<time>2016-10-07T08:10:37Z</time></trkpt>
<trkpt lat="27.225712" lon="100.02469">
<time>2016-10-07T08:10:38Z</time></trkpt>
<trkpt lat="27.226133" lon="100.024451">
<time>2016-10-07T08:10:39Z</time></trkpt>
<trkpt lat="27.226363" lon="100.024321">
<time>2016-10-07T08:10:40Z</time></trkpt>
<trkpt lat="27.226534" lon="100.024221">
<time>2016-10-07T08:10:41Z</time></trkpt>
<trkpt lat="27.226614" lon="100.024171">
<time>2016-10-07T08:10:42Z</time></trkpt>
<trkpt lat="27.226704" lon="100.024122">
<time>2016-10-07T08:10:43Z</time></trkpt>
<trkpt lat="27.226784" lon="100.024082">
<time>2016-10-07T08:10:44Z</time></trkpt>
<trkpt lat="27.226874" lon="100.024042">
<time>2016-10-07T08:10:45Z</time></trkpt>
<trkpt lat="27.226944" lon="100.024012">
<time>2016-10-07T08:10:46Z</time></trkpt>
<trkpt lat="27.227054" lon="100.023972">
<time>2016-10-07T08:10:47Z</time></trkpt>
<trkpt lat="27.227184" lon="100.023942">
<time>2016-10-07T08:10:48Z</time></trkpt>
<trkpt lat="27.227264" lon="100.023922">
<time>2016-10-07T08:10:49Z</time></trkpt>
<trkpt lat="27.227324" lon="100.023922">
<time>2016-10-07T08:10:50Z</time></trkpt>
<trkpt lat="27.227414" lon="100.023912">
<time>2016-10-07T08:10:51Z</time></trkpt>
<trkpt lat="27.227484" lon="100.023902">
<time>2016-10-07T08:10:52Z</time></trkpt>
<trkpt lat="27.227614" lon="100.023912">
<time>2016-10-07T08:10:53Z</time></trkpt>
<trkpt lat="27.227744" lon="100.023922">
<time>2016-10-07T08:10:54Z</time></trkpt>
<trkpt lat="27.227854" lon="100.023932">
<time>2016-10-07T08:10:55Z</time></trkpt>
<trkpt lat="27.227964" lon="100.023952">
<time>2016-10-07T08:10:56Z</time></trkpt>
<trkpt lat="27.228044" lon="100.023972">
<time>2016-10-07T08:10:57Z</time></trkpt>
<trkpt lat="27.228254" lon="100.024012">
<time>2016-10-07T08:10:58Z</time></trkpt>
<trkpt lat="27.228524" lon="100.024072">
<time>2016-10-07T08:10:59Z</time></trkpt>
<trkpt lat="27.228683" lon="100.024102">
<time>2016-10-07T08:11:00Z</time></trkpt>
<trkpt lat="27.228843" lon="100.024121">
<time>2016-10-07T08:11:01Z</time></trkpt>
<trkpt lat="27.228993" lon="100.024121">
<time>2016-10-07T08:11:02Z</time></trkpt>
<trkpt lat="27.229163" lon="100.024111">
<time>2016-10-07T08:11:03Z</time></trkpt>
<trkpt lat="27.229273" lon="100.024092">
<time>2016-10-07T08:11:04Z</time></trkpt>
<trkpt lat="27.229403" lon="100.024072">
<time>2016-10-07T08:11:05Z</time></trkpt>
<trkpt lat="27.229613" lon="100.024022">
<time>2016-10-07T08:11:06Z</time></trkpt>
<trkpt lat="27.229693" lon="100.023992">
<time>2016-10-07T08:11:07Z</time></trkpt>
<trkpt lat="27.229774" lon="100.023962">
<time>2016-10-07T08:11:08Z</time></trkpt>
<trkpt lat="27.229884" lon="100.023912">
<time>2016-10-07T08:11:09Z</time></trkpt>
<trkpt lat="27.229964" lon="100.023872">
<time>2016-10-07T08:11:10Z</time></trkpt>
<trkpt lat="27.230184" lon="100.023763">
<time>2016-10-07T08:11:11Z</time></trkpt>
<trkpt lat="27.230434" lon="100.023633">
<time>2016-10-07T08:11:12Z</time></trkpt>
<trkpt lat="27.230655" lon="100.023543">
<time>2016-10-07T08:11:13Z</time></trkpt>
<trkpt lat="27.230835" lon="100.023483">
<time>2016-10-07T08:11:14Z</time></trkpt>
<trkpt lat="27.230985" lon="100.023443">
<time>2016-10-07T08:11:15Z</time></trkpt>
<trkpt lat="27.231145" lon="100.023414">
<time>2016-10-07T08:11:16Z</time></trkpt>
<trkpt lat="27.231335" lon="100.023384">
<time>2016-10-07T08:11:17Z</time></trkpt>
<trkpt lat="27.231465" lon="100.023374">
<time>2016-10-07T08:11:18Z</time></trkpt>
<trkpt lat="27.231585" lon="100.023364">
<time>2016-10-07T08:11:19Z</time></trkpt>
<trkpt lat="27.231935" lon="100.023364">
<time>2016-10-07T08:11:20Z</time></trkpt>
<trkpt lat="27.232225" lon="100.023364">
<time>2016-10-07T08:11:21Z</time></trkpt>
<trkpt lat="27.232375" lon="100.023354">
<time>2016-10-07T08:11:22Z</time></trkpt>
<trkpt lat="27.232475" lon="100.023344">
<time>2016-10-07T08:11:23Z</time></trkpt>
<trkpt lat="27.232615" lon="100.023314">
<time>2016-10-07T08:11:24Z</time></trkpt>
<trkpt lat="27.232765" lon="100.023284">
<time>2016-10-07T08:11:25Z</time></trkpt>
<trkpt lat="27.233005" lon="100.023224">
<time>2016-10-07T08:11:26Z</time></trkpt>
<trkpt lat="27.233155" lon="100.023174">
<time>2016-10-07T08:11:27Z</time></trkpt>
<trkpt lat="27.233245" lon="100.023144">
<time>2016-10-07T08:11:28Z</time></trkpt>
<trkpt lat="27.233415" lon="100.023055">
<time>2016-10-07T08:11:29Z</time></trkpt>
<trkpt lat="27.233636" lon="100.022935">
<time>2016-10-07T08:11:30Z</time></trkpt>
<trkpt lat="27.233936" lon="100.022775">
<time>2016-10-07T08:11:31Z</time></trkpt>
<trkpt lat="27.234156" lon="100.022646">
<time>2016-10-07T08:11:32Z</time></trkpt>
<trkpt lat="27.234647" lon="100.022367">
<time>2016-10-07T08:11:33Z</time></trkpt>
<trkpt lat="27.234927" lon="100.022197">
<time>2016-10-07T08:11:34Z</time></trkpt>
<trkpt lat="27.235248" lon="100.022028">
<time>2016-10-07T08:11:35Z</time></trkpt>
<trkpt lat="27.235428" lon="100.021948">
<time>2016-10-07T08:11:36Z</time></trkpt>
<trkpt lat="27.235568" lon="100.021888">
<time>2016-10-07T08:11:37Z</time></trkpt>
<trkpt lat="27.235718" lon="100.021848">
<time>2016-10-07T08:11:38Z</time></trkpt>
<trkpt lat="27.235838" lon="100.021828">
<time>2016-10-07T08:11:39Z</time></trkpt>
<trkpt lat="27.235988" lon="100.021818">
<time>2016-10-07T08:11:40Z</time></trkpt>
<trkpt lat="27.236158" lon="100.021818">
<time>2016-10-07T08:11:41Z</time></trkpt>
<trkpt lat="27.236348" lon="100.021828">
<time>2016-10-07T08:11:42Z</time></trkpt>
<trkpt lat="27.236568" lon="100.021848">
<time>2016-10-07T08:11:43Z</time></trkpt>
<trkpt lat="27.236718" lon="100.021858">
<time>2016-10-07T08:11:44Z</time></trkpt>
<trkpt lat="27.236938" lon="100.021868">
<time>2016-10-07T08:11:45Z</time></trkpt>
<trkpt lat="27.237787" lon="100.021918">
<time>2016-10-07T08:11:46Z</time></trkpt>
<trkpt lat="27.238197" lon="100.021938">
<time>2016-10-07T08:11:47Z</time></trkpt>
<trkpt lat="27.238397" lon="100.021948">
<time>2016-10-07T08:11:48Z</time></trkpt>
<trkpt lat="27.238557" lon="100.021948">
<time>2016-10-07T08:11:49Z</time></trkpt>
<trkpt lat="27.238727" lon="100.021928">
<time>2016-10-07T08:11:50Z</time></trkpt>
<trkpt lat="27.238917" lon="100.021898">
<time>2016-10-07T08:11:51Z</time></trkpt>
<trkpt lat="27.239167" lon="100.021838">
<time>2016-10-07T08:11:52Z</time></trkpt>
<trkpt lat="27.239527" lon="100.021749">
<time>2016-10-07T08:11:53Z</time></trkpt>
<trkpt lat="27.239878" lon="100.021669">
<time>2016-10-07T08:11:54Z</time></trkpt>
<trkpt lat="27.240278" lon="100.021569">
<time>2016-10-07T08:11:55Z</time></trkpt>
<trkpt lat="27.240818" lon="100.021439">
<time>2016-10-07T08:11:56Z</time></trkpt>
<trkpt lat="27.241058" lon="100.02138">
<time>2016-10-07T08:11:57Z</time></trkpt>
<trkpt lat="27.241208" lon="100.02136">
<time>2016-10-07T08:11:58Z</time></trkpt>
<trkpt lat="27.241368" lon="100.02135">
<time>2016-10-07T08:11:59Z</time></trkpt>
<trkpt lat="27.241488" lon="100.02135">
<time>2016-10-07T08:12:00Z</time></trkpt>
<trkpt lat="27.241618" lon="100.02136">
<time>2016-10-07T08:12:01Z</time></trkpt>
<trkpt lat="27.241758" lon="100.02138">
<time>2016-10-07T08:12:02Z</time></trkpt>
<trkpt lat="27.241918" lon="100.021419">
<time>2016-10-07T08:12:03Z</time></trkpt>
<trkpt lat="27.242098" lon="100.021469">
<time>2016-10-07T08:12:04Z</time></trkpt>
<trkpt lat="27.242367" lon="100.021539">
<time>2016-10-07T08:12:05Z</time></trkpt>
<trkpt lat="27.242517" lon="100.021579">
<time>2016-10-07T08:12:06Z</time></trkpt>
<trkpt lat="27.242747" lon="100.021649">
<time>2016-10-07T08:12:07Z</time></trkpt>
<trkpt lat="27.242897" lon="100.021669">
<time>2016-10-07T08:12:08Z</time></trkpt>
<trkpt lat="27.243017" lon="100.021679">
<time>2016-10-07T08:12:09Z</time></trkpt>
<trkpt lat="27.243127" lon="100.021679">
<time>2016-10-07T08:12:10Z</time></trkpt>
<trkpt lat="27.243207" lon="100.021669">
<time>2016-10-07T08:12:11Z</time></trkpt>
<trkpt lat="27.243277" lon="100.021639">
<time>2016-10-07T08:12:12Z</time></trkpt>
<trkpt lat="27.243357" lon="100.021609">
<time>2016-10-07T08:12:13Z</time></trkpt>
<trkpt lat="27.243387" lon="100.021589">
<time>2016-10-07T08:12:14Z</time></trkpt>
<trkpt lat="27.243417" lon="100.021579">
<time>2016-10-07T08:12:15Z</time></trkpt>
<trkpt lat="27.243457" lon="100.021549">
<time>2016-10-07T08:12:16Z</time></trkpt>
<trkpt lat="27.243497" lon="100.021509">
<time>2016-10-07T08:12:17Z</time></trkpt>
<trkpt lat="27.243547" lon="100.021459">
<time>2016-10-07T08:12:18Z</time></trkpt>
<trkpt lat="27.243588" lon="100.021409">
<time>2016-10-07T08:12:19Z</time></trkpt>
<trkpt lat="27.243628" lon="100.02137">
<time>2016-10-07T08:12:20Z</time></trkpt>
<trkpt lat="27.243698" lon="100.02128">
<time>2016-10-07T08:12:21Z</time></trkpt>
<trkpt lat="27.243768" lon="100.02119">
<time>2016-10-07T08:12:22Z</time></trkpt>
<trkpt lat="27.243868" lon="100.021041">
<time>2016-10-07T08:12:23Z</time></trkpt>
<trkpt lat="27.244009" lon="100.020861">
<time>2016-10-07T08:12:24Z</time></trkpt>
<trkpt lat="27.244079" lon="100.020781">
<time>2016-10-07T08:12:25Z</time></trkpt>
<trkpt lat="27.244159" lon="100.020702">
<time>2016-10-07T08:12:26Z</time></trkpt>
<trkpt lat="27.24422" lon="100.020642">
<time>2016-10-07T08:12:27Z</time></trkpt>
<trkpt lat="27.24428" lon="100.020592">
<time>2016-10-07T08:12:28Z</time></trkpt>
<trkpt lat="27.24439" lon="100.020522">
<time>2016-10-07T08:12:29Z</time></trkpt>
<trkpt lat="27.24455" lon="100.020423">
<time>2016-10-07T08:12:30Z</time></trkpt>
<trkpt lat="27.24469" lon="100.020333">
<time>2016-10-07T08:12:31Z</time></trkpt>
<trkpt lat="27.24483" lon="100.020263">
<time>2016-10-07T08:12:32Z</time></trkpt>
<trkpt lat="27.244951" lon="100.020203">
<time>2016-10-07T08:12:33Z</time></trkpt>
<trkpt lat="27.245071" lon="100.020143">
<time>2016-10-07T08:12:34Z</time></trkpt>
<trkpt lat="27.245201" lon="100.020084">
<time>2016-10-07T08:12:35Z</time></trkpt>
<trkpt lat="27.245351" lon="100.020024">
<time>2016-10-07T08:12:36Z</time></trkpt>
<trkpt lat="27.245471" lon="100.019994">
<time>2016-10-07T08:12:37Z</time></trkpt>
<trkpt lat="27.245581" lon="100.019964">
<time>2016-10-07T08:12:38Z</time></trkpt>
<trkpt lat="27.245681" lon="100.019944">
<time>2016-10-07T08:12:39Z</time></trkpt>
<trkpt lat="27.245881" lon="100.019914">
<time>2016-10-07T08:12:40Z</time></trkpt>
<trkpt lat="27.246281" lon="100.019864">
<time>2016-10-07T08:12:41Z</time></trkpt>
<trkpt lat="27.246631" lon="100.019824">
<time>2016-10-07T08:12:42Z</time></trkpt>
<trkpt lat="27.246961" lon="100.019784">
<time>2016-10-07T08:12:43Z</time></trkpt>
<trkpt lat="27.247141" lon="100.019765">
<time>2016-10-07T08:12:44Z</time></trkpt>
<trkpt lat="27.247521" lon="100.019725">
<time>2016-10-07T08:12:45Z</time></trkpt>
<trkpt lat="27.247871" lon="100.019685">
<time>2016-10-07T08:12:46Z</time></trkpt>
<trkpt lat="27.248071" lon="100.019655">
<time>2016-10-07T08:12:47Z</time></trkpt>
<trkpt lat="27.248371" lon="100.019625">
<time>2016-10-07T08:12:48Z</time></trkpt>
<trkpt lat="27.248561" lon="100.019615">
<time>2016-10-07T08:12:49Z</time></trkpt>
<trkpt lat="27.248751" lon="100.019615">
<time>2016-10-07T08:12:50Z</time></trkpt>
<trkpt lat="27.248901" lon="100.019615">
<time>2016-10-07T08:12:51Z</time></trkpt>
<trkpt lat="27.249031" lon="100.019625">
<time>2016-10-07T08:12:52Z</time></trkpt>
<trkpt lat="27.249161" lon="100.019645">
<time>2016-10-07T08:12:53Z</time></trkpt>
<trkpt lat="27.249261" lon="100.019665">
<time>2016-10-07T08:12:54Z</time></trkpt>
<trkpt lat="27.249401" lon="100.019695">
<time>2016-10-07T08:12:55Z</time></trkpt>
<trkpt lat="27.249531" lon="100.019725">
<time>2016-10-07T08:12:56Z</time></trkpt>
<trkpt lat="27.249661" lon="100.019764">
<time>2016-10-07T08:12:57Z</time></trkpt>
<trkpt lat="27.249831" lon="100.019824">
<time>2016-10-07T08:12:58Z</time></trkpt>
<trkpt lat="27.24994" lon="100.019874">
<time>2016-10-07T08:12:59Z</time></trkpt>
<trkpt lat="27.25002" lon="100.019914">
<time>2016-10-07T08:13:00Z</time></trkpt>
<trkpt lat="27.25015" lon="100.019974">
<time>2016-10-07T08:13:01Z</time></trkpt>
<trkpt lat="27.25027" lon="100.020054">
<time>2016-10-07T08:13:02Z</time></trkpt>
<trkpt lat="27.25035" lon="100.020103">
<time>2016-10-07T08:13:03Z</time></trkpt>
<trkpt lat="27.250439" lon="100.020163">
<time>2016-10-07T08:13:04Z</time></trkpt>
<trkpt lat="27.250559" lon="100.020243">
<time>2016-10-07T08:13:05Z</time></trkpt>
<trkpt lat="27.250729" lon="100.020353">
<time>2016-10-07T08:13:06Z</time></trkpt>
<trkpt lat="27.250988" lon="100.020532">
<time>2016-10-07T08:13:07Z</time></trkpt>
<trkpt lat="27.251168" lon="100.020662">
<time>2016-10-07T08:13:08Z</time></trkpt>
<trkpt lat="27.251268" lon="100.020731">
<time>2016-10-07T08:13:09Z</time></trkpt>
<trkpt lat="27.251377" lon="100.020811">
<time>2016-10-07T08:13:10Z</time></trkpt>
<trkpt lat="27.251477" lon="100.020891">
<time>2016-10-07T08:13:11Z</time></trkpt>
<trkpt lat="27.251557" lon="100.020961">
<time>2016-10-07T08:13:12Z</time></trkpt>
<trkpt lat="27.251647" lon="100.02103">
<time>2016-10-07T08:13:13Z</time></trkpt>
<trkpt lat="27.251756" lon="100.02113">
<time>2016-10-07T08:13:14Z</time></trkpt>
<trkpt lat="27.251846" lon="100.02123">
<time>2016-10-07T08:13:15Z</time></trkpt>
<trkpt lat="27.251946" lon="100.021349">
<time>2016-10-07T08:13:16Z</time></trkpt>
<trkpt lat="27.252055" lon="100.021479">
<time>2016-10-07T08:13:17Z</time></trkpt>
<trkpt lat="27.252145" lon="100.021599">
<time>2016-10-07T08:13:18Z</time></trkpt>
<trkpt lat="27.252264" lon="100.021778">
<time>2016-10-07T08:13:19Z</time></trkpt>
<trkpt lat="27.252404" lon="100.021997">
<time>2016-10-07T08:13:20Z</time></trkpt>
<trkpt lat="27.252543" lon="100.022197">
<time>2016-10-07T08:13:21Z</time></trkpt>
<trkpt lat="27.252633" lon="100.022296">
<time>2016-10-07T08:13:22Z</time></trkpt>
<trkpt lat="27.252703" lon="100.022356">
<time>2016-10-07T08:13:23Z</time></trkpt>
<trkpt lat="27.252783" lon="100.022406">
<time>2016-10-07T08:13:24Z</time></trkpt>
<trkpt lat="27.252862" lon="100.022456">
<time>2016-10-07T08:13:25Z</time></trkpt>
<trkpt lat="27.252942" lon="100.022476">
<time>2016-10-07T08:13:26Z</time></trkpt>
<trkpt lat="27.253012" lon="100.022496">
<time>2016-10-07T08:13:27Z</time></trkpt>
<trkpt lat="27.253102" lon="100.022506">
<time>2016-10-07T08:13:28Z</time></trkpt>
<trkpt lat="27.253192" lon="100.022496">
<time>2016-10-07T08:13:29Z</time></trkpt>
<trkpt lat="27.253272" lon="100.022496">
<time>2016-10-07T08:13:30Z</time></trkpt>
<trkpt lat="27.253402" lon="100.022476">
<time>2016-10-07T08:13:31Z</time></trkpt>
<trkpt lat="27.253502" lon="100.022456">
<time>2016-10-07T08:13:32Z</time></trkpt>
<trkpt lat="27.253612" lon="100.022426">
<time>2016-10-07T08:13:33Z</time></trkpt>
<trkpt lat="27.253692" lon="100.022406">
<time>2016-10-07T08:13:34Z</time></trkpt>
<trkpt lat="27.253772" lon="100.022386">
<time>2016-10-07T08:13:35Z</time></trkpt>
<trkpt lat="27.253873" lon="100.022346">
<time>2016-10-07T08:13:36Z</time></trkpt>
<trkpt lat="27.253983" lon="100.022296">
<time>2016-10-07T08:13:37Z</time></trkpt>
<trkpt lat="27.254063" lon="100.022257">
<time>2016-10-07T08:13:38Z</time></trkpt>
<trkpt lat="27.254133" lon="100.022217">
<time>2016-10-07T08:13:39Z</time></trkpt>
<trkpt lat="27.254193" lon="100.022177">
<time>2016-10-07T08:13:40Z</time></trkpt>
<trkpt lat="27.254313" lon="100.022097">
<time>2016-10-07T08:13:41Z</time></trkpt>
<trkpt lat="27.254443" lon="100.021997">
<time>2016-10-07T08:13:42Z</time></trkpt>
<trkpt lat="27.254554" lon="100.021898">
<time>2016-10-07T08:13:43Z</time></trkpt>
<trkpt lat="27.254714" lon="100.021778">
<time>2016-10-07T08:13:44Z</time></trkpt>
<trkpt lat="27.254894" lon="100.021628">
<time>2016-10-07T08:13:45Z</time></trkpt>
<trkpt lat="27.255045" lon="100.021509">
<time>2016-10-07T08:13:46Z</time></trkpt>
<trkpt lat="27.255255" lon="100.021339">
<time>2016-10-07T08:13:47Z</time></trkpt>
<trkpt lat="27.255445" lon="100.02118">
<time>2016-10-07T08:13:48Z</time></trkpt>
<trkpt lat="27.255636" lon="100.02104">
<time>2016-10-07T08:13:49Z</time></trkpt>
<trkpt lat="27.255736" lon="100.020971">
<time>2016-10-07T08:13:50Z</time></trkpt>
<trkpt lat="27.255836" lon="100.020911">
<time>2016-10-07T08:13:51Z</time></trkpt>
<trkpt lat="27.255896" lon="100.020881">
<time>2016-10-07T08:13:52Z</time></trkpt>
<trkpt lat="27.255966" lon="100.020851">
<time>2016-10-07T08:13:53Z</time></trkpt>
<trkpt lat="27.256076" lon="100.020801">
<time>2016-10-07T08:13:54Z</time></trkpt>
<trkpt lat="27.256227" lon="100.020751">
<time>2016-10-07T08:13:55Z</time></trkpt>
<trkpt lat="27.256407" lon="100.020711">
<time>2016-10-07T08:13:56Z</time></trkpt>
<trkpt lat="27.256517" lon="100.020691">
<time>2016-10-07T08:13:57Z</time></trkpt>
<trkpt lat="27.256637" lon="100.020671">
<time>2016-10-07T08:13:58Z</time></trkpt>
<trkpt lat="27.256887" lon="100.020642">
<time>2016-10-07T08:13:59Z</time></trkpt>
<trkpt lat="27.257087" lon="100.020612">
<time>2016-10-07T08:14:00Z</time></trkpt>
<trkpt lat="27.257327" lon="100.020582">
<time>2016-10-07T08:14:01Z</time></trkpt>
<trkpt lat="27.257427" lon="100.020562">
<time>2016-10-07T08:14:02Z</time></trkpt>
<trkpt lat="27.257527" lon="100.020542">
<time>2016-10-07T08:14:03Z</time></trkpt>
<trkpt lat="27.257727" lon="100.020492">
<time>2016-10-07T08:14:04Z</time></trkpt>
<trkpt lat="27.257827" lon="100.020452">
<time>2016-10-07T08:14:05Z</time></trkpt>
<trkpt lat="27.257957" lon="100.020402">
<time>2016-10-07T08:14:06Z</time></trkpt>
<trkpt lat="27.258037" lon="100.020362">
<time>2016-10-07T08:14:07Z</time></trkpt>
<trkpt lat="27.258117" lon="100.020313">
<time>2016-10-07T08:14:08Z</time></trkpt>
<trkpt lat="27.258238" lon="100.020233">
<time>2016-10-07T08:14:09Z</time></trkpt>
<trkpt lat="27.258338" lon="100.020153">
<time>2016-10-07T08:14:10Z</time></trkpt>
<trkpt lat="27.258528" lon="100.020003">
<time>2016-10-07T08:14:11Z</time></trkpt>
<trkpt lat="27.258779" lon="100.019774">
<time>2016-10-07T08:14:12Z</time></trkpt>
<trkpt lat="27.25914" lon="100.019465">
<time>2016-10-07T08:14:13Z</time></trkpt>
<trkpt lat="27.25927" lon="100.019365">
<time>2016-10-07T08:14:14Z</time></trkpt>
<trkpt lat="27.25937" lon="100.019286">
<time>2016-10-07T08:14:15Z</time></trkpt>
<trkpt lat="27.25948" lon="100.019216">
<time>2016-10-07T08:14:16Z</time></trkpt>
<trkpt lat="27.25959" lon="100.019156">
<time>2016-10-07T08:14:17Z</time></trkpt>
<trkpt lat="27.2597" lon="100.019106">
<time>2016-10-07T08:14:18Z</time></trkpt>
<trkpt lat="27.259831" lon="100.019056">
<time>2016-10-07T08:14:19Z</time></trkpt>
<trkpt lat="27.259931" lon="100.019036">
<time>2016-10-07T08:14:20Z</time></trkpt>
<trkpt lat="27.260011" lon="100.019017">
<time>2016-10-07T08:14:21Z</time></trkpt>
<trkpt lat="27.260111" lon="100.019007">
<time>2016-10-07T08:14:22Z</time></trkpt>
<trkpt lat="27.260241" lon="100.019007">
<time>2016-10-07T08:14:23Z</time></trkpt>
<trkpt lat="27.260361" lon="100.019017">
<time>2016-10-07T08:14:24Z</time></trkpt>
<trkpt lat="27.26051" lon="100.019036">
<time>2016-10-07T08:14:25Z</time></trkpt>
<trkpt lat="27.26071" lon="100.019076">
<time>2016-10-07T08:14:26Z</time></trkpt>
<trkpt lat="27.261" lon="100.019136">
<time>2016-10-07T08:14:27Z</time></trkpt>
<trkpt lat="27.26136" lon="100.019206">
<time>2016-10-07T08:14:28Z</time></trkpt>
<trkpt lat="27.26168" lon="100.019266">
<time>2016-10-07T08:14:29Z</time></trkpt>
<trkpt lat="27.262019" lon="100.019316">
<time>2016-10-07T08:14:30Z</time></trkpt>
<trkpt lat="27.262279" lon="100.019355">
<time>2016-10-07T08:14:31Z</time></trkpt>
<trkpt lat="27.262389" lon="100.019365">
<time>2016-10-07T08:14:32Z</time></trkpt>
<trkpt lat="27.262509" lon="100.019345">
<time>2016-10-07T08:14:33Z</time></trkpt>
<trkpt lat="27.262609" lon="100.019316">
<time>2016-10-07T08:14:34Z</time></trkpt>
<trkpt lat="27.262759" lon="100.019276">
<time>2016-10-07T08:14:35Z</time></trkpt>
<trkpt lat="27.262919" lon="100.019226">
<time>2016-10-07T08:14:36Z</time></trkpt>
<trkpt lat="27.263069" lon="100.019176">
<time>2016-10-07T08:14:37Z</time></trkpt>
<trkpt lat="27.26335" lon="100.019066">
<time>2016-10-07T08:14:38Z</time></trkpt>
<trkpt lat="27.2635" lon="100.019006">
<time>2016-10-07T08:14:39Z</time></trkpt>
<trkpt lat="27.2638" lon="100.018887">
<time>2016-10-07T08:14:40Z</time></trkpt>
<trkpt lat="27.26413" lon="100.018757">
<time>2016-10-07T08:14:41Z</time></trkpt>
<trkpt lat="27.264331" lon="100.018668">
<time>2016-10-07T08:14:42Z</time></trkpt>
<trkpt lat="27.264451" lon="100.018618">
<time>2016-10-07T08:14:43Z</time></trkpt>
<trkpt lat="27.264641" lon="100.018548">
<time>2016-10-07T08:14:44Z</time></trkpt>
<trkpt lat="27.264821" lon="100.018478">
<time>2016-10-07T08:14:45Z</time></trkpt>
<trkpt lat="27.265071" lon="100.018398">
<time>2016-10-07T08:14:46Z</time></trkpt>
<trkpt lat="27.265241" lon="100.018349">
<time>2016-10-07T08:14:47Z</time></trkpt>
<trkpt lat="27.265361" lon="100.018319">
<time>2016-10-07T08:14:48Z</time></trkpt>
<trkpt lat="27.265462" lon="100.018289">
<time>2016-10-07T08:14:49Z</time></trkpt>
<trkpt lat="27.265602" lon="100.018269">
<time>2016-10-07T08:14:50Z</time></trkpt>
<trkpt lat="27.265792" lon="100.018239">
<time>2016-10-07T08:14:51Z</time></trkpt>
<trkpt lat="27.266092" lon="100.018199">
<time>2016-10-07T08:14:52Z</time></trkpt>
<trkpt lat="27.266352" lon="100.018159">
<time>2016-10-07T08:14:53Z</time></trkpt>
<trkpt lat="27.266522" lon="100.018139">
<time>2016-10-07T08:14:54Z</time></trkpt>
<trkpt lat="27.266742" lon="100.018109">
<time>2016-10-07T08:14:55Z</time></trkpt>
<trkpt lat="27.267042" lon="100.018079">
<time>2016-10-07T08:14:56Z</time></trkpt>
<trkpt lat="27.267302" lon="100.018039">
<time>2016-10-07T08:14:57Z</time></trkpt>
<trkpt lat="27.267522" lon="100.01801">
<time>2016-10-07T08:14:58Z</time></trkpt>
<trkpt lat="27.267622" lon="100.01799">
<time>2016-10-07T08:14:59Z</time></trkpt>
<trkpt lat="27.267732" lon="100.01796">
<time>2016-10-07T08:15:00Z</time></trkpt>
<trkpt lat="27.267792" lon="100.01794">
<time>2016-10-07T08:15:01Z</time></trkpt>
<trkpt lat="27.267912" lon="100.0179">
<time>2016-10-07T08:15:02Z</time></trkpt>
<trkpt lat="27.267992" lon="100.01787">
<time>2016-10-07T08:15:03Z</time></trkpt>
<trkpt lat="27.268042" lon="100.01784">
<time>2016-10-07T08:15:04Z</time></trkpt>
<trkpt lat="27.268132" lon="100.0178">
<time>2016-10-07T08:15:05Z</time></trkpt>
<trkpt lat="27.268222" lon="100.01775">
<time>2016-10-07T08:15:06Z</time></trkpt>
<trkpt lat="27.268293" lon="100.01771">
<time>2016-10-07T08:15:07Z</time></trkpt>
<trkpt lat="27.268383" lon="100.017651">
<time>2016-10-07T08:15:08Z</time></trkpt>
<trkpt lat="27.268523" lon="100.017561">
<time>2016-10-07T08:15:09Z</time></trkpt>
<trkpt lat="27.268803" lon="100.017382">
<time>2016-10-07T08:15:10Z</time></trkpt>
<trkpt lat="27.269164" lon="100.017162">
<time>2016-10-07T08:15:11Z</time></trkpt>
<trkpt lat="27.269394" lon="100.017013">
<time>2016-10-07T08:15:12Z</time></trkpt>
<trkpt lat="27.269715" lon="100.016813">
<time>2016-10-07T08:15:13Z</time></trkpt>
<trkpt lat="27.269935" lon="100.016674">
<time>2016-10-07T08:15:14Z</time></trkpt>
<trkpt lat="27.270116" lon="100.016564">
<time>2016-10-07T08:15:15Z</time></trkpt>
<trkpt lat="27.270226" lon="100.016504">
<time>2016-10-07T08:15:16Z</time></trkpt>
<trkpt lat="27.270356" lon="100.016434">
<time>2016-10-07T08:15:17Z</time></trkpt>
<trkpt lat="27.270496" lon="100.016365">
<time>2016-10-07T08:15:18Z</time></trkpt>
<trkpt lat="27.270616" lon="100.016305">
<time>2016-10-07T08:15:19Z</time></trkpt>
<trkpt lat="27.270726" lon="100.016275">
<time>2016-10-07T08:15:20Z</time></trkpt>
<trkpt lat="27.270836" lon="100.016245">
<time>2016-10-07T08:15:21Z</time></trkpt>
<trkpt lat="27.270956" lon="100.016215">
<time>2016-10-07T08:15:22Z</time></trkpt>
<trkpt lat="27.271096" lon="100.016185">
<time>2016-10-07T08:15:23Z</time></trkpt>
<trkpt lat="27.271296" lon="100.016175">
<time>2016-10-07T08:15:24Z</time></trkpt>
<trkpt lat="27.271446" lon="100.016155">
<time>2016-10-07T08:15:25Z</time></trkpt>
<trkpt lat="27.271536" lon="100.016145">
<time>2016-10-07T08:15:26Z</time></trkpt>
<trkpt lat="27.271666" lon="100.016125">
<time>2016-10-07T08:15:27Z</time></trkpt>
<trkpt lat="27.271737" lon="100.016106">
<time>2016-10-07T08:15:28Z</time></trkpt>
<trkpt lat="27.271817" lon="100.016086">
<time>2016-10-07T08:15:29Z</time></trkpt>
<trkpt lat="27.271887" lon="100.016066">
<time>2016-10-07T08:15:30Z</time></trkpt>
<trkpt lat="27.271937" lon="100.016046">
<time>2016-10-07T08:15:31Z</time></trkpt>
<trkpt lat="27.272057" lon="100.015986">
<time>2016-10-07T08:15:32Z</time></trkpt>
<trkpt lat="27.272177" lon="100.015916">
<time>2016-10-07T08:15:33Z</time></trkpt>
<trkpt lat="27.272287" lon="100.015846">
<time>2016-10-07T08:15:34Z</time></trkpt>
<trkpt lat="27.272417" lon="100.015737">
<time>2016-10-07T08:15:35Z</time></trkpt>
<trkpt lat="27.272578" lon="100.015577">
<time>2016-10-07T08:15:36Z</time></trkpt>
<trkpt lat="27.27322" lon="100.014919">
<time>2016-10-07T08:15:37Z</time></trkpt>
<trkpt lat="27.273791" lon="100.014351">
<time>2016-10-07T08:15:38Z</time></trkpt>
<trkpt lat="27.274192" lon="100.013942">
<time>2016-10-07T08:15:39Z</time></trkpt>
<trkpt lat="27.274563" lon="100.013564">
<time>2016-10-07T08:15:40Z</time></trkpt>
<trkpt lat="27.274874" lon="100.013285">
<time>2016-10-07T08:15:41Z</time></trkpt>
<trkpt lat="27.275095" lon="100.013095">
<time>2016-10-07T08:15:42Z</time></trkpt>
<trkpt lat="27.275215" lon="100.013005">
<time>2016-10-07T08:15:43Z</time></trkpt>
<trkpt lat="27.275385" lon="100.012906">
<time>2016-10-07T08:15:44Z</time></trkpt>
<trkpt lat="27.275676" lon="100.012756">
<time>2016-10-07T08:15:45Z</time></trkpt>
<trkpt lat="27.275996" lon="100.012587">
<time>2016-10-07T08:15:46Z</time></trkpt>
<trkpt lat="27.276086" lon="100.012537">
<time>2016-10-07T08:15:47Z</time></trkpt>
<trkpt lat="27.276196" lon="100.012457">
<time>2016-10-07T08:15:48Z</time></trkpt>
<trkpt lat="27.276317" lon="100.012358">
<time>2016-10-07T08:15:49Z</time></trkpt>
<trkpt lat="27.276477" lon="100.012218">
<time>2016-10-07T08:15:50Z</time></trkpt>
<trkpt lat="27.276647" lon="100.012029">
<time>2016-10-07T08:15:51Z</time></trkpt>
<trkpt lat="27.276788" lon="100.011859">
<time>2016-10-07T08:15:52Z</time></trkpt>
<trkpt lat="27.276848" lon="100.011769">
<time>2016-10-07T08:15:53Z</time></trkpt>
<trkpt lat="27.276908" lon="100.01167">
<time>2016-10-07T08:15:54Z</time></trkpt>
<trkpt lat="27.277029" lon="100.011421">
<time>2016-10-07T08:15:55Z</time></trkpt>
<trkpt lat="27.2771" lon="100.011251">
<time>2016-10-07T08:15:56Z</time></trkpt>
<trkpt lat="27.27718" lon="100.011032">
<time>2016-10-07T08:15:57Z</time></trkpt>
<trkpt lat="27.277231" lon="100.010793">
<time>2016-10-07T08:15:58Z</time></trkpt>
<trkpt lat="27.277342" lon="100.010404">
<time>2016-10-07T08:15:59Z</time></trkpt>
<trkpt lat="27.277423" lon="100.010085">
<time>2016-10-07T08:16:00Z</time></trkpt>
<trkpt lat="27.277494" lon="100.009806">
<time>2016-10-07T08:16:01Z</time></trkpt>
<trkpt lat="27.277565" lon="100.009587">
<time>2016-10-07T08:16:02Z</time></trkpt>
<trkpt lat="27.277625" lon="100.009397">
<time>2016-10-07T08:16:03Z</time></trkpt>
<trkpt lat="27.277676" lon="100.009258">
<time>2016-10-07T08:16:04Z</time></trkpt>
<trkpt lat="27.277736" lon="100.009148">
<time>2016-10-07T08:16:05Z</time></trkpt>
<trkpt lat="27.277826" lon="100.009028">
<time>2016-10-07T08:16:06Z</time></trkpt>
<trkpt lat="27.277927" lon="100.008919">
<time>2016-10-07T08:16:07Z</time></trkpt>
<trkpt lat="27.278077" lon="100.008779">
<time>2016-10-07T08:16:08Z</time></trkpt>
<trkpt lat="27.278247" lon="100.00864">
<time>2016-10-07T08:16:09Z</time></trkpt>
<trkpt lat="27.278408" lon="100.00851">
<time>2016-10-07T08:16:10Z</time></trkpt>
<trkpt lat="27.278558" lon="100.008361">
<time>2016-10-07T08:16:11Z</time></trkpt>
<trkpt lat="27.278698" lon="100.008211">
<time>2016-10-07T08:16:12Z</time></trkpt>
<trkpt lat="27.278859" lon="100.007992">
<time>2016-10-07T08:16:13Z</time></trkpt>
<trkpt lat="27.27897" lon="100.007832">
<time>2016-10-07T08:16:14Z</time></trkpt>
<trkpt lat="27.2791" lon="100.007613">
<time>2016-10-07T08:16:15Z</time></trkpt>
<trkpt lat="27.279191" lon="100.007444">
<time>2016-10-07T08:16:16Z</time></trkpt>
<trkpt lat="27.279271" lon="100.007224">
<time>2016-10-07T08:16:17Z</time></trkpt>
<trkpt lat="27.279332" lon="100.007045">
<time>2016-10-07T08:16:18Z</time></trkpt>
<trkpt lat="27.279372" lon="100.006856">
<time>2016-10-07T08:16:19Z</time></trkpt>
<trkpt lat="27.279403" lon="100.006706">
<time>2016-10-07T08:16:20Z</time></trkpt>
<trkpt lat="27.279423" lon="100.006567">
<time>2016-10-07T08:16:21Z</time></trkpt>
<trkpt lat="27.279474" lon="100.006387">
<time>2016-10-07T08:16:22Z</time></trkpt>
<trkpt lat="27.279514" lon="100.006278">
<time>2016-10-07T08:16:23Z</time></trkpt>
<trkpt lat="27.279564" lon="100.006188">
<time>2016-10-07T08:16:24Z</time></trkpt>
<trkpt lat="27.279625" lon="100.006108">
<time>2016-10-07T08:16:25Z</time></trkpt>
<trkpt lat="27.279705" lon="100.006028">
<time>2016-10-07T08:16:26Z</time></trkpt>
<trkpt lat="27.279775" lon="100.005969">
<time>2016-10-07T08:16:27Z</time></trkpt>
<trkpt lat="27.279865" lon="100.005919">
<time>2016-10-07T08:16:28Z</time></trkpt>
<trkpt lat="27.279935" lon="100.005879">
<time>2016-10-07T08:16:29Z</time></trkpt>
<trkpt lat="27.280015" lon="100.005859">
<time>2016-10-07T08:16:30Z</time></trkpt>
<trkpt lat="27.280095" lon="100.005849">
<time>2016-10-07T08:16:31Z</time></trkpt>
<trkpt lat="27.280175" lon="100.005849">
<time>2016-10-07T08:16:32Z</time></trkpt>
<trkpt lat="27.280365" lon="100.005859">
<time>2016-10-07T08:16:33Z</time></trkpt>
<trkpt lat="27.280655" lon="100.005879">
<time>2016-10-07T08:16:34Z</time></trkpt>
<trkpt lat="27.281085" lon="100.005909">
<time>2016-10-07T08:16:35Z</time></trkpt>
<trkpt lat="27.281435" lon="100.005939">
<time>2016-10-07T08:16:36Z</time></trkpt>
<trkpt lat="27.281645" lon="100.005959">
<time>2016-10-07T08:16:37Z</time></trkpt>
<trkpt lat="27.281735" lon="100.005959">
<time>2016-10-07T08:16:38Z</time></trkpt>
<trkpt lat="27.281805" lon="100.005959">
<time>2016-10-07T08:16:39Z</time></trkpt>
<trkpt lat="27.281925" lon="100.005949">
<time>2016-10-07T08:16:40Z</time></trkpt>
<trkpt lat="27.282025" lon="100.005919">
<time>2016-10-07T08:16:41Z</time></trkpt>
<trkpt lat="27.282085" lon="100.005899">
<time>2016-10-07T08:16:42Z</time></trkpt>
<trkpt lat="27.282155" lon="100.005879">
<time>2016-10-07T08:16:43Z</time></trkpt>
<trkpt lat="27.282235" lon="100.005839">
<time>2016-10-07T08:16:44Z</time></trkpt>
<trkpt lat="27.282285" lon="100.005809">
<time>2016-10-07T08:16:45Z</time></trkpt>
<trkpt lat="27.282345" lon="100.005779">
<time>2016-10-07T08:16:46Z</time></trkpt>
<trkpt lat="27.282395" lon="100.005749">
<time>2016-10-07T08:16:47Z</time></trkpt>
<trkpt lat="27.282455" lon="100.005699">
<time>2016-10-07T08:16:48Z</time></trkpt>
<trkpt lat="27.282505" lon="100.00566">
<time>2016-10-07T08:16:49Z</time></trkpt>
<trkpt lat="27.282556" lon="100.00561">
<time>2016-10-07T08:16:50Z</time></trkpt>
<trkpt lat="27.282656" lon="100.00549">
<time>2016-10-07T08:16:51Z</time></trkpt>
<trkpt lat="27.282786" lon="100.005331">
<time>2016-10-07T08:16:52Z</time></trkpt>
<trkpt lat="27.282907" lon="100.005181">
<time>2016-10-07T08:16:53Z</time></trkpt>
<trkpt lat="27.283037" lon="100.005062">
<time>2016-10-07T08:16:54Z</time></trkpt>
<trkpt lat="27.283157" lon="100.004962">
<time>2016-10-07T08:16:55Z</time></trkpt>
<trkpt lat="27.283288" lon="100.004862">
<time>2016-10-07T08:16:56Z</time></trkpt>
<trkpt lat="27.283368" lon="100.004812">
<time>2016-10-07T08:16:57Z</time></trkpt>
<trkpt lat="27.283508" lon="100.004743">
<time>2016-10-07T08:16:58Z</time></trkpt>
<trkpt lat="27.283658" lon="100.004673">
<time>2016-10-07T08:16:59Z</time></trkpt>
<trkpt lat="27.284029" lon="100.004513">
<time>2016-10-07T08:17:00Z</time></trkpt>
<trkpt lat="27.284319" lon="100.004384">
<time>2016-10-07T08:17:01Z</time></trkpt>
<trkpt lat="27.284809" lon="100.004174">
<time>2016-10-07T08:17:02Z</time></trkpt>
<trkpt lat="27.28536" lon="100.003935">
<time>2016-10-07T08:17:03Z</time></trkpt>
<trkpt lat="27.28559" lon="100.003846">
<time>2016-10-07T08:17:04Z</time></trkpt>
<trkpt lat="27.28574" lon="100.003786">
<time>2016-10-07T08:17:05Z</time></trkpt>
<trkpt lat="27.28589" lon="100.003746">
<time>2016-10-07T08:17:06Z</time></trkpt>
<trkpt lat="27.286011" lon="100.003716">
<time>2016-10-07T08:17:07Z</time></trkpt>
<trkpt lat="27.286111" lon="100.003706">
<time>2016-10-07T08:17:08Z</time></trkpt>
<trkpt lat="27.286191" lon="100.003696">
<time>2016-10-07T08:17:09Z</time></trkpt>
<trkpt lat="27.286331" lon="100.003686">
<time>2016-10-07T08:17:10Z</time></trkpt>
<trkpt lat="27.286451" lon="100.003686">
<time>2016-10-07T08:17:11Z</time></trkpt>
<trkpt lat="27.28655" lon="100.003696">
<time>2016-10-07T08:17:12Z</time></trkpt>
<trkpt lat="27.2867" lon="100.003726">
<time>2016-10-07T08:17:13Z</time></trkpt>
<trkpt lat="27.28682" lon="100.003746">
<time>2016-10-07T08:17:14Z</time></trkpt>
<trkpt lat="27.28693" lon="100.003786">
<time>2016-10-07T08:17:15Z</time></trkpt>
<trkpt lat="27.28714" lon="100.003855">
<time>2016-10-07T08:17:16Z</time></trkpt>
<trkpt lat="27.28735" lon="100.003935">
<time>2016-10-07T08:17:17Z</time></trkpt>
<trkpt lat="27.287529" lon="100.003985">
<time>2016-10-07T08:17:18Z</time></trkpt>
<trkpt lat="27.287639" lon="100.004015">
<time>2016-10-07T08:17:19Z</time></trkpt>
<trkpt lat="27.287769" lon="100.004025">
<time>2016-10-07T08:17:20Z</time></trkpt>
<trkpt lat="27.287919" lon="100.004025">
<time>2016-10-07T08:17:21Z</time></trkpt>
<trkpt lat="27.288049" lon="100.004005">
<time>2016-10-07T08:17:22Z</time></trkpt>
<trkpt lat="27.288179" lon="100.003975">
<time>2016-10-07T08:17:23Z</time></trkpt>
<trkpt lat="27.288259" lon="100.003945">
<time>2016-10-07T08:17:24Z</time></trkpt>
<trkpt lat="27.288339" lon="100.003915">
<time>2016-10-07T08:17:25Z</time></trkpt>
<trkpt lat="27.28844" lon="100.003865">
<time>2016-10-07T08:17:26Z</time></trkpt>
<trkpt lat="27.28856" lon="100.003796">
<time>2016-10-07T08:17:27Z</time></trkpt>
<trkpt lat="27.28893" lon="100.003566">
<time>2016-10-07T08:17:28Z</time></trkpt>
<trkpt lat="27.289211" lon="100.003407">
<time>2016-10-07T08:17:29Z</time></trkpt>
<trkpt lat="27.289652" lon="100.003138">
<time>2016-10-07T08:17:30Z</time></trkpt>
<trkpt lat="27.289842" lon="100.003028">
<time>2016-10-07T08:17:31Z</time></trkpt>
<trkpt lat="27.290062" lon="100.002899">
<time>2016-10-07T08:17:32Z</time></trkpt>
<trkpt lat="27.290282" lon="100.002789">
<time>2016-10-07T08:17:33Z</time></trkpt>
<trkpt lat="27.290453" lon="100.002699">
<time>2016-10-07T08:17:34Z</time></trkpt>
<trkpt lat="27.291123" lon="100.00242">
<time>2016-10-07T08:17:35Z</time></trkpt>
<trkpt lat="27.291384" lon="100.00232">
<time>2016-10-07T08:17:36Z</time></trkpt>
<trkpt lat="27.291554" lon="100.002251">
<time>2016-10-07T08:17:37Z</time></trkpt>
<trkpt lat="27.291674" lon="100.002191">
<time>2016-10-07T08:17:38Z</time></trkpt>
<trkpt lat="27.291834" lon="100.002111">
<time>2016-10-07T08:17:39Z</time></trkpt>
<trkpt lat="27.291974" lon="100.002021">
<time>2016-10-07T08:17:40Z</time></trkpt>
<trkpt lat="27.292095" lon="100.001932">
<time>2016-10-07T08:17:41Z</time></trkpt>
<trkpt lat="27.292225" lon="100.001822">
<time>2016-10-07T08:17:42Z</time></trkpt>
<trkpt lat="27.292355" lon="100.001693">
<time>2016-10-07T08:17:43Z</time></trkpt>
<trkpt lat="27.292486" lon="100.001553">
<time>2016-10-07T08:17:44Z</time></trkpt>
<trkpt lat="27.292646" lon="100.001354">
<time>2016-10-07T08:17:45Z</time></trkpt>
<trkpt lat="27.292837" lon="100.001114">
<time>2016-10-07T08:17:46Z</time></trkpt>
<trkpt lat="27.292897" lon="100.001045">
<time>2016-10-07T08:17:47Z</time></trkpt>
<trkpt lat="27.292957" lon="100.000975">
<time>2016-10-07T08:17:48Z</time></trkpt>
<trkpt lat="27.293048" lon="100.000905">
<time>2016-10-07T08:17:49Z</time></trkpt>
<trkpt lat="27.293108" lon="100.000855">
<time>2016-10-07T08:17:50Z</time></trkpt>
<trkpt lat="27.293168" lon="100.000825">
<time>2016-10-07T08:17:51Z</time></trkpt>
<trkpt lat="27.293228" lon="100.000806">
<time>2016-10-07T08:17:52Z</time></trkpt>
<trkpt lat="27.293298" lon="100.000786">
<time>2016-10-07T08:17:53Z</time></trkpt>
<trkpt lat="27.293348" lon="100.000776">
<time>2016-10-07T08:17:54Z</time></trkpt>
<trkpt lat="27.293408" lon="100.000776">
<time>2016-10-07T08:17:55Z</time></trkpt>
<trkpt lat="27.293478" lon="100.000776">
<time>2016-10-07T08:17:56Z</time></trkpt>
<trkpt lat="27.293538" lon="100.000786">
<time>2016-10-07T08:17:57Z</time></trkpt>
<trkpt lat="27.293598" lon="100.000796">
<time>2016-10-07T08:17:58Z</time></trkpt>
<trkpt lat="27.293708" lon="100.000835">
<time>2016-10-07T08:17:59Z</time></trkpt>
<trkpt lat="27.293828" lon="100.000875">
<time>2016-10-07T08:18:00Z</time></trkpt>
<trkpt lat="27.293957" lon="100.000925">
<time>2016-10-07T08:18:01Z</time></trkpt>
<trkpt lat="27.294067" lon="100.000975">
<time>2016-10-07T08:18:02Z</time></trkpt>
<trkpt lat="27.294167" lon="100.001005">
<time>2016-10-07T08:18:03Z</time></trkpt>
<trkpt lat="27.294287" lon="100.001025">
<time>2016-10-07T08:18:04Z</time></trkpt>
<trkpt lat="27.294397" lon="100.001025">
<time>2016-10-07T08:18:05Z</time></trkpt>
<trkpt lat="27.294497" lon="100.001015">
<time>2016-10-07T08:18:06Z</time></trkpt>
<trkpt lat="27.294607" lon="100.000985">
<time>2016-10-07T08:18:07Z</time></trkpt>
<trkpt lat="27.294727" lon="100.000935">
<time>2016-10-07T08:18:08Z</time></trkpt>
<trkpt lat="27.294837" lon="100.000855">
<time>2016-10-07T08:18:09Z</time></trkpt>
<trkpt lat="27.295008" lon="100.000696">
<time>2016-10-07T08:18:10Z</time></trkpt>
<trkpt lat="27.295158" lon="100.000556">
<time>2016-10-07T08:18:11Z</time></trkpt>
<trkpt lat="27.295269" lon="100.000457">
<time>2016-10-07T08:18:12Z</time></trkpt>
<trkpt lat="27.295369" lon="100.000367">
<time>2016-10-07T08:18:13Z</time></trkpt>
<trkpt lat="27.295449" lon="100.000297">
<time>2016-10-07T08:18:14Z</time></trkpt>
<trkpt lat="27.295539" lon="100.000247">
<time>2016-10-07T08:18:15Z</time></trkpt>
<trkpt lat="27.295669" lon="100.000178">
<time>2016-10-07T08:18:16Z</time></trkpt>
<trkpt lat="27.295799" lon="100.000128">
<time>2016-10-07T08:18:17Z</time></trkpt>
<trkpt lat="27.2959" lon="100.000098">
<time>2016-10-07T08:18:18Z</time></trkpt>
<trkpt lat="27.29601" lon="100.000068">
<time>2016-10-07T08:18:19Z</time></trkpt>
<trkpt lat="27.2964" lon="100.000018">
<time>2016-10-07T08:18:20Z</time></trkpt>
<trkpt lat="27.29662" lon="99.999978">
<time>2016-10-07T08:18:21Z</time></trkpt>
<trkpt lat="27.29674" lon="99.999948">
<time>2016-10-07T08:18:22Z</time></trkpt>
<trkpt lat="27.29686" lon="99.999908">
<time>2016-10-07T08:18:23Z</time></trkpt>
<trkpt lat="27.29696" lon="99.999869">
<time>2016-10-07T08:18:24Z</time></trkpt>
<trkpt lat="27.29704" lon="99.999829">
<time>2016-10-07T08:18:25Z</time></trkpt>
<trkpt lat="27.29713" lon="99.999769">
<time>2016-10-07T08:18:26Z</time></trkpt>
<trkpt lat="27.29723" lon="99.999699">
<time>2016-10-07T08:18:27Z</time></trkpt>
<trkpt lat="27.297441" lon="99.99955">
<time>2016-10-07T08:18:28Z</time></trkpt>
<trkpt lat="27.297681" lon="99.99937">
<time>2016-10-07T08:18:29Z</time></trkpt>
<trkpt lat="27.297812" lon="99.99929">
<time>2016-10-07T08:18:30Z</time></trkpt>
<trkpt lat="27.297952" lon="99.999221">
<time>2016-10-07T08:18:31Z</time></trkpt>
<trkpt lat="27.298102" lon="99.999151">
<time>2016-10-07T08:18:32Z</time></trkpt>
<trkpt lat="27.298232" lon="99.999101">
<time>2016-10-07T08:18:33Z</time></trkpt>
<trkpt lat="27.298392" lon="99.999051">
<time>2016-10-07T08:18:34Z</time></trkpt>
<trkpt lat="27.298532" lon="99.999011">
<time>2016-10-07T08:18:35Z</time></trkpt>
<trkpt lat="27.298842" lon="99.998932">
<time>2016-10-07T08:18:36Z</time></trkpt>
<trkpt lat="27.299223" lon="99.998842">
<time>2016-10-07T08:18:37Z</time></trkpt>
<trkpt lat="27.299373" lon="99.998812">
<time>2016-10-07T08:18:38Z</time></trkpt>
<trkpt lat="27.299613" lon="99.998752">
<time>2016-10-07T08:18:39Z</time></trkpt>
<trkpt lat="27.299753" lon="99.998712">
<time>2016-10-07T08:18:40Z</time></trkpt>
<trkpt lat="27.299913" lon="99.998653">
<time>2016-10-07T08:18:41Z</time></trkpt>
<trkpt lat="27.300053" lon="99.998593">
<time>2016-10-07T08:18:42Z</time></trkpt>
<trkpt lat="27.300133" lon="99.998543">
<time>2016-10-07T08:18:43Z</time></trkpt>
<trkpt lat="27.300394" lon="99.998393">
<time>2016-10-07T08:18:44Z</time></trkpt>
<trkpt lat="27.300794" lon="99.998154">
<time>2016-10-07T08:18:45Z</time></trkpt>
<trkpt lat="27.300985" lon="99.998045">
<time>2016-10-07T08:18:46Z</time></trkpt>
<trkpt lat="27.301175" lon="99.997935">
<time>2016-10-07T08:18:47Z</time></trkpt>
<trkpt lat="27.301315" lon="99.997845">
<time>2016-10-07T08:18:48Z</time></trkpt>
<trkpt lat="27.301446" lon="99.997756">
<time>2016-10-07T08:18:49Z</time></trkpt>
<trkpt lat="27.301526" lon="99.997696">
<time>2016-10-07T08:18:50Z</time></trkpt>
<trkpt lat="27.301656" lon="99.997596">
<time>2016-10-07T08:18:51Z</time></trkpt>
<trkpt lat="27.301806" lon="99.997467">
<time>2016-10-07T08:18:52Z</time></trkpt>
<trkpt lat="27.302278" lon="99.997038">
<time>2016-10-07T08:18:53Z</time></trkpt>
<trkpt lat="27.302548" lon="99.996779">
<time>2016-10-07T08:18:54Z</time></trkpt>
<trkpt lat="27.302859" lon="99.99651">
<time>2016-10-07T08:18:55Z</time></trkpt>
<trkpt lat="27.30312" lon="99.99627">
<time>2016-10-07T08:18:56Z</time></trkpt>
<trkpt lat="27.303461" lon="99.995952">
<time>2016-10-07T08:18:57Z</time></trkpt>
<trkpt lat="27.303701" lon="99.995742">
<time>2016-10-07T08:18:58Z</time></trkpt>
<trkpt lat="27.304032" lon="99.995433">
<time>2016-10-07T08:18:59Z</time></trkpt>
<trkpt lat="27.304273" lon="99.995214">
<time>2016-10-07T08:19:00Z</time></trkpt>
<trkpt lat="27.304493" lon="99.995025">
<time>2016-10-07T08:19:01Z</time></trkpt>
<trkpt lat="27.304724" lon="99.994815">
<time>2016-10-07T08:19:02Z</time></trkpt>
<trkpt lat="27.305025" lon="99.994536">
<time>2016-10-07T08:19:03Z</time></trkpt>
<trkpt lat="27.305225" lon="99.994357">
<time>2016-10-07T08:19:04Z</time></trkpt>
<trkpt lat="27.305506" lon="99.994098">
<time>2016-10-07T08:19:05Z</time></trkpt>
<trkpt lat="27.305686" lon="99.993938">
<time>2016-10-07T08:19:06Z</time></trkpt>
<trkpt lat="27.305947" lon="99.993709">
<time>2016-10-07T08:19:07Z</time></trkpt>
<trkpt lat="27.306127" lon="99.993569">
<time>2016-10-07T08:19:08Z</time></trkpt>
<trkpt lat="27.306338" lon="99.99342">
<time>2016-10-07T08:19:09Z</time></trkpt>
<trkpt lat="27.306518" lon="99.9933">
<time>2016-10-07T08:19:10Z</time></trkpt>
<trkpt lat="27.306758" lon="99.993171">
<time>2016-10-07T08:19:11Z</time></trkpt>
<trkpt lat="27.306889" lon="99.993091">
<time>2016-10-07T08:19:12Z</time></trkpt>
<trkpt lat="27.307139" lon="99.992932">
<time>2016-10-07T08:19:13Z</time></trkpt>
<trkpt lat="27.307229" lon="99.992872">
<time>2016-10-07T08:19:14Z</time></trkpt>
<trkpt lat="27.30738" lon="99.992772">
<time>2016-10-07T08:19:15Z</time></trkpt>
<trkpt lat="27.30753" lon="99.992643">
<time>2016-10-07T08:19:16Z</time></trkpt>
<trkpt lat="27.30769" lon="99.992513">
<time>2016-10-07T08:19:17Z</time></trkpt>
<trkpt lat="27.307841" lon="99.992383">
<time>2016-10-07T08:19:18Z</time></trkpt>
<trkpt lat="27.308021" lon="99.992224">
<time>2016-10-07T08:19:19Z</time></trkpt>
<trkpt lat="27.308262" lon="99.991995">
<time>2016-10-07T08:19:20Z</time></trkpt>
<trkpt lat="27.308532" lon="99.991745">
<time>2016-10-07T08:19:21Z</time></trkpt>
<trkpt lat="27.308853" lon="99.991456">
<time>2016-10-07T08:19:22Z</time></trkpt>
<trkpt lat="27.309134" lon="99.991207">
<time>2016-10-07T08:19:23Z</time></trkpt>
<trkpt lat="27.309244" lon="99.991108">
<time>2016-10-07T08:19:24Z</time></trkpt>
<trkpt lat="27.309445" lon="99.990928">
<time>2016-10-07T08:19:25Z</time></trkpt>
<trkpt lat="27.309605" lon="99.990799">
<time>2016-10-07T08:19:26Z</time></trkpt>
<trkpt lat="27.309695" lon="99.990719">
<time>2016-10-07T08:19:27Z</time></trkpt>
<trkpt lat="27.309816" lon="99.990619">
<time>2016-10-07T08:19:28Z</time></trkpt>
<trkpt lat="27.309916" lon="99.990539">
<time>2016-10-07T08:19:29Z</time></trkpt>
<trkpt lat="27.309986" lon="99.9905">
<time>2016-10-07T08:19:30Z</time></trkpt>
<trkpt lat="27.310036" lon="99.99047">
<time>2016-10-07T08:19:31Z</time></trkpt>
<trkpt lat="27.310096" lon="99.99044">
<time>2016-10-07T08:19:32Z</time></trkpt>
<trkpt lat="27.310166" lon="99.9904">
<time>2016-10-07T08:19:33Z</time></trkpt>
<trkpt lat="27.310266" lon="99.99035">
<time>2016-10-07T08:19:34Z</time></trkpt>
<trkpt lat="27.310416" lon="99.99029">
<time>2016-10-07T08:19:35Z</time></trkpt>
<trkpt lat="27.310607" lon="99.990221">
<time>2016-10-07T08:19:36Z</time></trkpt>
<trkpt lat="27.310697" lon="99.990181">
<time>2016-10-07T08:19:37Z</time></trkpt>
<trkpt lat="27.310787" lon="99.990131">
<time>2016-10-07T08:19:38Z</time></trkpt>
<trkpt lat="27.310867" lon="99.990091">
<time>2016-10-07T08:19:39Z</time></trkpt>
<trkpt lat="27.310997" lon="99.990021">
<time>2016-10-07T08:19:40Z</time></trkpt>
<trkpt lat="27.311087" lon="99.989961">
<time>2016-10-07T08:19:41Z</time></trkpt>
<trkpt lat="27.311147" lon="99.989921">
<time>2016-10-07T08:19:42Z</time></trkpt>
<trkpt lat="27.311198" lon="99.989882">
<time>2016-10-07T08:19:43Z</time></trkpt>
<trkpt lat="27.311248" lon="99.989832">
<time>2016-10-07T08:19:44Z</time></trkpt>
<trkpt lat="27.311318" lon="99.989772">
<time>2016-10-07T08:19:45Z</time></trkpt>
<trkpt lat="27.311368" lon="99.989712">
<time>2016-10-07T08:19:46Z</time></trkpt>
<trkpt lat="27.311448" lon="99.989613">
<time>2016-10-07T08:19:47Z</time></trkpt>
<trkpt lat="27.311509" lon="99.989523">
<time>2016-10-07T08:19:48Z</time></trkpt>
<trkpt lat="27.311559" lon="99.989433">
<time>2016-10-07T08:19:49Z</time></trkpt>
<trkpt lat="27.311599" lon="99.989363">
<time>2016-10-07T08:19:50Z</time></trkpt>
<trkpt lat="27.311679" lon="99.989214">
<time>2016-10-07T08:19:51Z</time></trkpt>
<trkpt lat="27.31177" lon="99.989014">
<time>2016-10-07T08:19:52Z</time></trkpt>
<trkpt lat="27.311871" lon="99.988815">
<time>2016-10-07T08:19:53Z</time></trkpt>
<trkpt lat="27.311921" lon="99.988706">
<time>2016-10-07T08:19:54Z</time></trkpt>
<trkpt lat="27.311981" lon="99.988586">
<time>2016-10-07T08:19:55Z</time></trkpt>
<trkpt lat="27.312042" lon="99.988466">
<time>2016-10-07T08:19:56Z</time></trkpt>
<trkpt lat="27.312102" lon="99.988387">
<time>2016-10-07T08:19:57Z</time></trkpt>
<trkpt lat="27.312142" lon="99.988327">
<time>2016-10-07T08:19:58Z</time></trkpt>
<trkpt lat="27.312202" lon="99.988237">
<time>2016-10-07T08:19:59Z</time></trkpt>
<trkpt lat="27.312272" lon="99.988167">
<time>2016-10-07T08:20:00Z</time></trkpt>
<trkpt lat="27.312383" lon="99.988038">
<time>2016-10-07T08:20:01Z</time></trkpt>
<trkpt lat="27.312493" lon="99.987928">
<time>2016-10-07T08:20:02Z</time></trkpt>
<trkpt lat="27.312563" lon="99.987858">
<time>2016-10-07T08:20:03Z</time></trkpt>
<trkpt lat="27.312684" lon="99.987749">
<time>2016-10-07T08:20:04Z</time></trkpt>
<trkpt lat="27.312814" lon="99.987629">
<time>2016-10-07T08:20:05Z</time></trkpt>
<trkpt lat="27.312944" lon="99.987529">
<time>2016-10-07T08:20:06Z</time></trkpt>
<trkpt lat="27.313034" lon="99.98747">
<time>2016-10-07T08:20:07Z</time></trkpt>
<trkpt lat="27.313085" lon="99.98744">
<time>2016-10-07T08:20:08Z</time></trkpt>
<trkpt lat="27.313125" lon="99.98743">
<time>2016-10-07T08:20:09Z</time></trkpt>
<trkpt lat="27.313195" lon="99.9874">
<time>2016-10-07T08:20:10Z</time></trkpt>
<trkpt lat="27.313245" lon="99.98739">
<time>2016-10-07T08:20:11Z</time></trkpt>
<trkpt lat="27.313285" lon="99.98738">
<time>2016-10-07T08:20:12Z</time></trkpt>
<trkpt lat="27.313375" lon="99.98736">
<time>2016-10-07T08:20:13Z</time></trkpt>
<trkpt lat="27.313465" lon="99.98736">
<time>2016-10-07T08:20:14Z</time></trkpt>
<trkpt lat="27.313555" lon="99.98736">
<time>2016-10-07T08:20:15Z</time></trkpt>
<trkpt lat="27.313645" lon="99.98737">
<time>2016-10-07T08:20:16Z</time></trkpt>
<trkpt lat="27.313775" lon="99.98739">
<time>2016-10-07T08:20:17Z</time></trkpt>
<trkpt lat="27.314014" lon="99.98743">
<time>2016-10-07T08:20:18Z</time></trkpt>
<trkpt lat="27.314444" lon="99.987509">
<time>2016-10-07T08:20:19Z</time></trkpt>
<trkpt lat="27.314774" lon="99.987569">
<time>2016-10-07T08:20:20Z</time></trkpt>
<trkpt lat="27.315104" lon="99.987629">
<time>2016-10-07T08:20:21Z</time></trkpt>
<trkpt lat="27.315253" lon="99.987659">
<time>2016-10-07T08:20:22Z</time></trkpt>
<trkpt lat="27.315413" lon="99.987679">
<time>2016-10-07T08:20:23Z</time></trkpt>
<trkpt lat="27.315533" lon="99.987679">
<time>2016-10-07T08:20:24Z</time></trkpt>
<trkpt lat="27.315653" lon="99.987679">
<time>2016-10-07T08:20:25Z</time></trkpt>
<trkpt lat="27.315763" lon="99.987659">
<time>2016-10-07T08:20:26Z</time></trkpt>
<trkpt lat="27.315863" lon="99.987639">
<time>2016-10-07T08:20:27Z</time></trkpt>
<trkpt lat="27.315943" lon="99.987619">
<time>2016-10-07T08:20:28Z</time></trkpt>
<trkpt lat="27.316054" lon="99.987579">
<time>2016-10-07T08:20:29Z</time></trkpt>
<trkpt lat="27.316154" lon="99.987539">
<time>2016-10-07T08:20:30Z</time></trkpt>
<trkpt lat="27.316234" lon="99.987509">
<time>2016-10-07T08:20:31Z</time></trkpt>
<trkpt lat="27.316364" lon="99.98743">
<time>2016-10-07T08:20:32Z</time></trkpt>
<trkpt lat="27.316514" lon="99.98735">
<time>2016-10-07T08:20:33Z</time></trkpt>
<trkpt lat="27.316925" lon="99.987111">
<time>2016-10-07T08:20:34Z</time></trkpt>
<trkpt lat="27.317115" lon="99.987001">
<time>2016-10-07T08:20:35Z</time></trkpt>
<trkpt lat="27.317425" lon="99.986842">
<time>2016-10-07T08:20:36Z</time></trkpt>
<trkpt lat="27.317566" lon="99.986792">
<time>2016-10-07T08:20:37Z</time></trkpt>
<trkpt lat="27.317696" lon="99.986742">
<time>2016-10-07T08:20:38Z</time></trkpt>
<trkpt lat="27.317846" lon="99.986702">
<time>2016-10-07T08:20:39Z</time></trkpt>
<trkpt lat="27.317936" lon="99.986692">
<time>2016-10-07T08:20:40Z</time></trkpt>
<trkpt lat="27.318026" lon="99.986682">
<time>2016-10-07T08:20:41Z</time></trkpt>
<trkpt lat="27.318166" lon="99.986682">
<time>2016-10-07T08:20:42Z</time></trkpt>
<trkpt lat="27.318306" lon="99.986692">
<time>2016-10-07T08:20:43Z</time></trkpt>
<trkpt lat="27.318396" lon="99.986702">
<time>2016-10-07T08:20:44Z</time></trkpt>
<trkpt lat="27.318486" lon="99.986722">
<time>2016-10-07T08:20:45Z</time></trkpt>
<trkpt lat="27.318576" lon="99.986752">
<time>2016-10-07T08:20:46Z</time></trkpt>
<trkpt lat="27.318835" lon="99.986841">
<time>2016-10-07T08:20:47Z</time></trkpt>
<trkpt lat="27.319035" lon="99.986911">
<time>2016-10-07T08:20:48Z</time></trkpt>
<trkpt lat="27.319165" lon="99.986941">
<time>2016-10-07T08:20:49Z</time></trkpt>
<trkpt lat="27.319245" lon="99.986961">
<time>2016-10-07T08:20:50Z</time></trkpt>
<trkpt lat="27.319325" lon="99.986981">
<time>2016-10-07T08:20:51Z</time></trkpt>
<trkpt lat="27.319405" lon="99.987001">
<time>2016-10-07T08:20:52Z</time></trkpt>
<trkpt lat="27.319495" lon="99.987011">
<time>2016-10-07T08:20:53Z</time></trkpt>
<trkpt lat="27.319625" lon="99.987011">
<time>2016-10-07T08:20:54Z</time></trkpt>
<trkpt lat="27.319725" lon="99.987011">
<time>2016-10-07T08:20:55Z</time></trkpt>
<trkpt lat="27.319825" lon="99.987001">
<time>2016-10-07T08:20:56Z</time></trkpt>
<trkpt lat="27.319935" lon="99.986991">
<time>2016-10-07T08:20:57Z</time></trkpt>
<trkpt lat="27.320055" lon="99.986971">
<time>2016-10-07T08:20:58Z</time></trkpt>
<trkpt lat="27.320225" lon="99.986941">
<time>2016-10-07T08:20:59Z</time></trkpt>
<trkpt lat="27.320465" lon="99.986871">
<time>2016-10-07T08:21:00Z</time></trkpt>
<trkpt lat="27.320895" lon="99.986762">
<time>2016-10-07T08:21:01Z</time></trkpt>
<trkpt lat="27.321115" lon="99.986702">
<time>2016-10-07T08:21:02Z</time></trkpt>
<trkpt lat="27.321275" lon="99.986662">
<time>2016-10-07T08:21:03Z</time></trkpt>
<trkpt lat="27.321425" lon="99.986642">
<time>2016-10-07T08:21:04Z</time></trkpt>
<trkpt lat="27.321555" lon="99.986632">
<time>2016-10-07T08:21:05Z</time></trkpt>
<trkpt lat="27.321655" lon="99.986632">
<time>2016-10-07T08:21:06Z</time></trkpt>
<trkpt lat="27.321775" lon="99.986642">
<time>2016-10-07T08:21:07Z</time></trkpt>
<trkpt lat="27.321905" lon="99.986662">
<time>2016-10-07T08:21:08Z</time></trkpt>
<trkpt lat="27.322015" lon="99.986682">
<time>2016-10-07T08:21:09Z</time></trkpt>
<trkpt lat="27.322125" lon="99.986722">
<time>2016-10-07T08:21:10Z</time></trkpt>
<trkpt lat="27.322235" lon="99.986762">
<time>2016-10-07T08:21:11Z</time></trkpt>
<trkpt lat="27.322395" lon="99.986831">
<time>2016-10-07T08:21:12Z</time></trkpt>
<trkpt lat="27.322634" lon="99.986931">
<time>2016-10-07T08:21:13Z</time></trkpt>
<trkpt lat="27.322764" lon="99.986991">
<time>2016-10-07T08:21:14Z</time></trkpt>
<trkpt lat="27.322884" lon="99.987021">
<time>2016-10-07T08:21:15Z</time></trkpt>
<trkpt lat="27.323014" lon="99.987061">
<time>2016-10-07T08:21:16Z</time></trkpt>
<trkpt lat="27.323114" lon="99.987081">
<time>2016-10-07T08:21:17Z</time></trkpt>
<trkpt lat="27.323194" lon="99.987091">
<time>2016-10-07T08:21:18Z</time></trkpt>
<trkpt lat="27.323334" lon="99.98711">
<time>2016-10-07T08:21:19Z</time></trkpt>
<trkpt lat="27.323444" lon="99.98712">
<time>2016-10-07T08:21:20Z</time></trkpt>
<trkpt lat="27.323524" lon="99.98712">
<time>2016-10-07T08:21:21Z</time></trkpt>
<trkpt lat="27.323713" lon="99.98712">
<time>2016-10-07T08:21:22Z</time></trkpt>
<trkpt lat="27.324433" lon="99.98711">
<time>2016-10-07T08:21:23Z</time></trkpt>
<trkpt lat="27.324673" lon="99.9871">
<time>2016-10-07T08:21:24Z</time></trkpt>
<trkpt lat="27.324813" lon="99.987081">
<time>2016-10-07T08:21:25Z</time></trkpt>
<trkpt lat="27.324943" lon="99.987061">
<time>2016-10-07T08:21:26Z</time></trkpt>
<trkpt lat="27.325023" lon="99.987041">
<time>2016-10-07T08:21:27Z</time></trkpt>
<trkpt lat="27.325104" lon="99.987021">
<time>2016-10-07T08:21:28Z</time></trkpt>
<trkpt lat="27.325204" lon="99.986981">
<time>2016-10-07T08:21:29Z</time></trkpt>
<trkpt lat="27.325334" lon="99.986921">
<time>2016-10-07T08:21:30Z</time></trkpt>
<trkpt lat="27.325414" lon="99.986881">
<time>2016-10-07T08:21:31Z</time></trkpt>
<trkpt lat="27.325534" lon="99.986821">
<time>2016-10-07T08:21:32Z</time></trkpt>
<trkpt lat="27.325634" lon="99.986762">
<time>2016-10-07T08:21:33Z</time></trkpt>
<trkpt lat="27.325895" lon="99.986602">
<time>2016-10-07T08:21:34Z</time></trkpt>
<trkpt lat="27.326035" lon="99.986522">
<time>2016-10-07T08:21:35Z</time></trkpt>
<trkpt lat="27.326285" lon="99.986373">
<time>2016-10-07T08:21:36Z</time></trkpt>
<trkpt lat="27.326375" lon="99.986323">
<time>2016-10-07T08:21:37Z</time></trkpt>
<trkpt lat="27.326485" lon="99.986283">
<time>2016-10-07T08:21:38Z</time></trkpt>
<trkpt lat="27.326576" lon="99.986253">
<time>2016-10-07T08:21:39Z</time></trkpt>
<trkpt lat="27.326656" lon="99.986243">
<time>2016-10-07T08:21:40Z</time></trkpt>
<trkpt lat="27.326766" lon="99.986243">
<time>2016-10-07T08:21:41Z</time></trkpt>
<trkpt lat="27.326845" lon="99.986253">
<time>2016-10-07T08:21:42Z</time></trkpt>
<trkpt lat="27.326945" lon="99.986283">
<time>2016-10-07T08:21:43Z</time></trkpt>
<trkpt lat="27.327035" lon="99.986323">
<time>2016-10-07T08:21:44Z</time></trkpt>
<trkpt lat="27.327125" lon="99.986373">
<time>2016-10-07T08:21:45Z</time></trkpt>
<trkpt lat="27.327245" lon="99.986463">
<time>2016-10-07T08:21:46Z</time></trkpt>
<trkpt lat="27.327424" lon="99.986602">
<time>2016-10-07T08:21:47Z</time></trkpt>
<trkpt lat="27.327504" lon="99.986662">
<time>2016-10-07T08:21:48Z</time></trkpt>
<trkpt lat="27.327594" lon="99.986712">
<time>2016-10-07T08:21:49Z</time></trkpt>
<trkpt lat="27.327734" lon="99.986791">
<time>2016-10-07T08:21:50Z</time></trkpt>
<trkpt lat="27.327854" lon="99.986831">
<time>2016-10-07T08:21:51Z</time></trkpt>
<trkpt lat="27.327973" lon="99.986861">
<time>2016-10-07T08:21:52Z</time></trkpt>
<trkpt lat="27.328083" lon="99.986881">
<time>2016-10-07T08:21:53Z</time></trkpt>
<trkpt lat="27.328203" lon="99.986881">
<time>2016-10-07T08:21:54Z</time></trkpt>
<trkpt lat="27.328353" lon="99.986871">
<time>2016-10-07T08:21:55Z</time></trkpt>
<trkpt lat="27.328483" lon="99.986841">
<time>2016-10-07T08:21:56Z</time></trkpt>
<trkpt lat="27.328594" lon="99.986801">
<time>2016-10-07T08:21:57Z</time></trkpt>
<trkpt lat="27.328724" lon="99.986742">
<time>2016-10-07T08:21:58Z</time></trkpt>
<trkpt lat="27.328934" lon="99.986652">
<time>2016-10-07T08:21:59Z</time></trkpt>
<trkpt lat="27.329054" lon="99.986592">
<time>2016-10-07T08:22:00Z</time></trkpt>
<trkpt lat="27.329164" lon="99.986562">
<time>2016-10-07T08:22:01Z</time></trkpt>
<trkpt lat="27.329284" lon="99.986532">
<time>2016-10-07T08:22:02Z</time></trkpt>
<trkpt lat="27.329384" lon="99.986512">
<time>2016-10-07T08:22:03Z</time></trkpt>
<trkpt lat="27.329504" lon="99.986502">
<time>2016-10-07T08:22:04Z</time></trkpt>
<trkpt lat="27.329614" lon="99.986502">
<time>2016-10-07T08:22:05Z</time></trkpt>
<trkpt lat="27.329714" lon="99.986522">
<time>2016-10-07T08:22:06Z</time></trkpt>
<trkpt lat="27.329824" lon="99.986542">
<time>2016-10-07T08:22:07Z</time></trkpt>
<trkpt lat="27.329924" lon="99.986582">
<time>2016-10-07T08:22:08Z</time></trkpt>
<trkpt lat="27.330064" lon="99.986642">
<time>2016-10-07T08:22:09Z</time></trkpt>
<trkpt lat="27.330213" lon="99.986722">
<time>2016-10-07T08:22:10Z</time></trkpt>
<trkpt lat="27.330353" lon="99.986801">
<time>2016-10-07T08:22:11Z</time></trkpt>
<trkpt lat="27.330493" lon="99.986871">
<time>2016-10-07T08:22:12Z</time></trkpt>
<trkpt lat="27.330613" lon="99.986921">
<time>2016-10-07T08:22:13Z</time></trkpt>
<trkpt lat="27.330723" lon="99.986961">
<time>2016-10-07T08:22:14Z</time></trkpt>
<trkpt lat="27.330833" lon="99.986991">
<time>2016-10-07T08:22:15Z</time></trkpt>
<trkpt lat="27.330923" lon="99.986991">
<time>2016-10-07T08:22:16Z</time></trkpt>
<trkpt lat="27.331013" lon="99.986991">
<time>2016-10-07T08:22:17Z</time></trkpt>
<trkpt lat="27.331103" lon="99.986971">
<time>2016-10-07T08:22:18Z</time></trkpt>
<trkpt lat="27.331223" lon="99.986941">
<time>2016-10-07T08:22:19Z</time></trkpt>
<trkpt lat="27.331323" lon="99.986901">
<time>2016-10-07T08:22:20Z</time></trkpt>
<trkpt lat="27.331413" lon="99.986851">
<time>2016-10-07T08:22:21Z</time></trkpt>
<trkpt lat="27.331503" lon="99.986791">
<time>2016-10-07T08:22:22Z</time></trkpt>
<trkpt lat="27.331603" lon="99.986712">
<time>2016-10-07T08:22:23Z</time></trkpt>
<trkpt lat="27.331724" lon="99.986612">
<time>2016-10-07T08:22:24Z</time></trkpt>
<trkpt lat="27.331884" lon="99.986482">
<time>2016-10-07T08:22:25Z</time></trkpt>
<trkpt lat="27.332024" lon="99.986383">
<time>2016-10-07T08:22:26Z</time></trkpt>
<trkpt lat="27.332144" lon="99.986313">
<time>2016-10-07T08:22:27Z</time></trkpt>
<trkpt lat="27.332214" lon="99.986283">
<time>2016-10-07T08:22:28Z</time></trkpt>
<trkpt lat="27.332285" lon="99.986253">
<time>2016-10-07T08:22:29Z</time></trkpt>
<trkpt lat="27.332365" lon="99.986243">
<time>2016-10-07T08:22:30Z</time></trkpt>
<trkpt lat="27.332435" lon="99.986223">
<time>2016-10-07T08:22:31Z</time></trkpt>
<trkpt lat="27.332505" lon="99.986223">
<time>2016-10-07T08:22:32Z</time></trkpt>
<trkpt lat="27.332585" lon="99.986223">
<time>2016-10-07T08:22:33Z</time></trkpt>
<trkpt lat="27.332645" lon="99.986223">
<time>2016-10-07T08:22:34Z</time></trkpt>
<trkpt lat="27.332714" lon="99.986233">
<time>2016-10-07T08:22:35Z</time></trkpt>
<trkpt lat="27.332764" lon="99.986243">
<time>2016-10-07T08:22:36Z</time></trkpt>
<trkpt lat="27.332834" lon="99.986263">
<time>2016-10-07T08:22:37Z</time></trkpt>
<trkpt lat="27.332894" lon="99.986273">
<time>2016-10-07T08:22:38Z</time></trkpt>
<trkpt lat="27.333014" lon="99.986323">
<time>2016-10-07T08:22:39Z</time></trkpt>
<trkpt lat="27.333184" lon="99.986403">
<time>2016-10-07T08:22:40Z</time></trkpt>
<trkpt lat="27.333354" lon="99.986512">
<time>2016-10-07T08:22:41Z</time></trkpt>
<trkpt lat="27.333523" lon="99.986592">
<time>2016-10-07T08:22:42Z</time></trkpt>
<trkpt lat="27.333673" lon="99.986632">
<time>2016-10-07T08:22:43Z</time></trkpt>
<trkpt lat="27.333773" lon="99.986662">
<time>2016-10-07T08:22:44Z</time></trkpt>
<trkpt lat="27.333873" lon="99.986682">
<time>2016-10-07T08:22:45Z</time></trkpt>
<trkpt lat="27.333973" lon="99.986692">
<time>2016-10-07T08:22:46Z</time></trkpt>
<trkpt lat="27.334053" lon="99.986692">
<time>2016-10-07T08:22:47Z</time></trkpt>
<trkpt lat="27.334163" lon="99.986682">
<time>2016-10-07T08:22:48Z</time></trkpt>
<trkpt lat="27.334303" lon="99.986652">
<time>2016-10-07T08:22:49Z</time></trkpt>
<trkpt lat="27.334423" lon="99.986612">
<time>2016-10-07T08:22:50Z</time></trkpt>
<trkpt lat="27.334533" lon="99.986562">
<time>2016-10-07T08:22:51Z</time></trkpt>
<trkpt lat="27.335174" lon="99.986163">
<time>2016-10-07T08:22:52Z</time></trkpt>
<trkpt lat="27.335535" lon="99.985934">
<time>2016-10-07T08:22:53Z</time></trkpt>
<trkpt lat="27.335805" lon="99.985735">
<time>2016-10-07T08:22:54Z</time></trkpt>
<trkpt lat="27.335956" lon="99.985625">
<time>2016-10-07T08:22:55Z</time></trkpt>
<trkpt lat="27.336046" lon="99.985535">
<time>2016-10-07T08:22:56Z</time></trkpt>
<trkpt lat="27.336156" lon="99.985416">
<time>2016-10-07T08:22:57Z</time></trkpt>
<trkpt lat="27.336217" lon="99.985316">
<time>2016-10-07T08:22:58Z</time></trkpt>
<trkpt lat="27.336267" lon="99.985226">
<time>2016-10-07T08:22:59Z</time></trkpt>
<trkpt lat="27.336327" lon="99.985057">
<time>2016-10-07T08:23:00Z</time></trkpt>
<trkpt lat="27.336499" lon="99.984409">
<time>2016-10-07T08:23:01Z</time></trkpt>
<trkpt lat="27.336631" lon="99.983771">
<time>2016-10-07T08:23:02Z</time></trkpt>
<trkpt lat="27.336712" lon="99.983542">
<time>2016-10-07T08:23:03Z</time></trkpt>
<trkpt lat="27.336923" lon="99.983093">
<time>2016-10-07T08:23:04Z</time></trkpt>
<trkpt lat="27.337094" lon="99.982774">
<time>2016-10-07T08:23:05Z</time></trkpt>
<trkpt lat="27.337195" lon="99.982535">
<time>2016-10-07T08:23:06Z</time></trkpt>
<trkpt lat="27.337265" lon="99.982296">
<time>2016-10-07T08:23:07Z</time></trkpt>
<trkpt lat="27.337306" lon="99.982106">
<time>2016-10-07T08:23:08Z</time></trkpt>
<trkpt lat="27.337326" lon="99.981957">
<time>2016-10-07T08:23:09Z</time></trkpt>
<trkpt lat="27.337342" lon="99.980093">
<time>2016-10-07T08:23:10Z</time></trkpt>
<trkpt lat="27.337333" lon="99.979774">
<time>2016-10-07T08:23:11Z</time></trkpt>
<trkpt lat="27.337313" lon="99.979525">
<time>2016-10-07T08:23:12Z</time></trkpt>
<trkpt lat="27.337294" lon="99.979266">
<time>2016-10-07T08:23:13Z</time></trkpt>
<trkpt lat="27.337265" lon="99.978996">
<time>2016-10-07T08:23:14Z</time></trkpt>
<trkpt lat="27.337206" lon="99.978667">
<time>2016-10-07T08:23:15Z</time></trkpt>
<trkpt lat="27.337157" lon="99.978398">
<time>2016-10-07T08:23:16Z</time></trkpt>
<trkpt lat="27.337127" lon="99.978209">
<time>2016-10-07T08:23:17Z</time></trkpt>
<trkpt lat="27.337098" lon="99.97801">
<time>2016-10-07T08:23:18Z</time></trkpt>
<trkpt lat="27.337098" lon="99.97786">
<time>2016-10-07T08:23:19Z</time></trkpt>
<trkpt lat="27.337109" lon="99.97774">
<time>2016-10-07T08:23:20Z</time></trkpt>
<trkpt lat="27.337129" lon="99.977611">
<time>2016-10-07T08:23:21Z</time></trkpt>
<trkpt lat="27.337169" lon="99.977491">
<time>2016-10-07T08:23:22Z</time></trkpt>
<trkpt lat="27.33724" lon="99.977332">
<time>2016-10-07T08:23:23Z</time></trkpt>
<trkpt lat="27.33731" lon="99.977222">
<time>2016-10-07T08:23:24Z</time></trkpt>
<trkpt lat="27.33741" lon="99.977112">
<time>2016-10-07T08:23:25Z</time></trkpt>
<trkpt lat="27.337541" lon="99.976993">
<time>2016-10-07T08:23:26Z</time></trkpt>
<trkpt lat="27.337681" lon="99.976893">
<time>2016-10-07T08:23:27Z</time></trkpt>
<trkpt lat="27.337941" lon="99.976734">
<time>2016-10-07T08:23:28Z</time></trkpt>
<trkpt lat="27.338072" lon="99.976644">
<time>2016-10-07T08:23:29Z</time></trkpt>
<trkpt lat="27.338152" lon="99.976584">
<time>2016-10-07T08:23:30Z</time></trkpt>
<trkpt lat="27.338232" lon="99.976504">
<time>2016-10-07T08:23:31Z</time></trkpt>
<trkpt lat="27.338322" lon="99.976415">
<time>2016-10-07T08:23:32Z</time></trkpt>
<trkpt lat="27.338412" lon="99.976315">
<time>2016-10-07T08:23:33Z</time></trkpt>
<trkpt lat="27.338503" lon="99.976175">
<time>2016-10-07T08:23:34Z</time></trkpt>
<trkpt lat="27.338583" lon="99.976046">
<time>2016-10-07T08:23:35Z</time></trkpt>
<trkpt lat="27.338644" lon="99.975906">
<time>2016-10-07T08:23:36Z</time></trkpt>
<trkpt lat="27.338694" lon="99.975767">
<time>2016-10-07T08:23:37Z</time></trkpt>
<trkpt lat="27.338724" lon="99.975627">
<time>2016-10-07T08:23:38Z</time></trkpt>
<trkpt lat="27.338745" lon="99.975497">
<time>2016-10-07T08:23:39Z</time></trkpt>
<trkpt lat="27.338765" lon="99.975338">
<time>2016-10-07T08:23:40Z</time></trkpt>
<trkpt lat="27.338755" lon="99.975208">
<time>2016-10-07T08:23:41Z</time></trkpt>
<trkpt lat="27.338746" lon="99.975069">
<time>2016-10-07T08:23:42Z</time></trkpt>
<trkpt lat="27.338716" lon="99.974899">
<time>2016-10-07T08:23:43Z</time></trkpt>
<trkpt lat="27.338677" lon="99.97474">
<time>2016-10-07T08:23:44Z</time></trkpt>
<trkpt lat="27.338588" lon="99.974471">
<time>2016-10-07T08:23:45Z</time></trkpt>
<trkpt lat="27.338478" lon="99.974162">
<time>2016-10-07T08:23:46Z</time></trkpt>
<trkpt lat="27.338369" lon="99.973892">
<time>2016-10-07T08:23:47Z</time></trkpt>
<trkpt lat="27.33827" lon="99.973633">
<time>2016-10-07T08:23:48Z</time></trkpt>
<trkpt lat="27.338081" lon="99.973135">
<time>2016-10-07T08:23:49Z</time></trkpt>
<trkpt lat="27.337992" lon="99.972935">
<time>2016-10-07T08:23:50Z</time></trkpt>
<trkpt lat="27.337893" lon="99.972706">
<time>2016-10-07T08:23:51Z</time></trkpt>
<trkpt lat="27.337753" lon="99.972437">
<time>2016-10-07T08:23:52Z</time></trkpt>
<trkpt lat="27.337604" lon="99.972178">
<time>2016-10-07T08:23:53Z</time></trkpt>
<trkpt lat="27.337425" lon="99.971869">
<time>2016-10-07T08:23:54Z</time></trkpt>
<trkpt lat="27.337276" lon="99.971609">
<time>2016-10-07T08:23:55Z</time></trkpt>
<trkpt lat="27.337226" lon="99.97152">
<time>2016-10-07T08:23:56Z</time></trkpt>
<trkpt lat="27.337186" lon="99.97142">
<time>2016-10-07T08:23:57Z</time></trkpt>
<trkpt lat="27.337156" lon="99.97134">
<time>2016-10-07T08:23:58Z</time></trkpt>
<trkpt lat="27.337127" lon="99.97126">
<time>2016-10-07T08:23:59Z</time></trkpt>
<trkpt lat="27.337097" lon="99.971161">
<time>2016-10-07T08:24:00Z</time></trkpt>
<trkpt lat="27.337077" lon="99.971061">
<time>2016-10-07T08:24:01Z</time></trkpt>
<trkpt lat="27.337048" lon="99.970921">
<time>2016-10-07T08:24:02Z</time></trkpt>
<trkpt lat="27.337038" lon="99.970782">
<time>2016-10-07T08:24:03Z</time></trkpt>
<trkpt lat="27.337019" lon="99.970493">
<time>2016-10-07T08:24:04Z</time></trkpt>
<trkpt lat="27.337009" lon="99.970303">
<time>2016-10-07T08:24:05Z</time></trkpt>
<trkpt lat="27.337" lon="99.970144">
<time>2016-10-07T08:24:06Z</time></trkpt>
<trkpt lat="27.33698" lon="99.970014">
<time>2016-10-07T08:24:07Z</time></trkpt>
<trkpt lat="27.33695" lon="99.969865">
<time>2016-10-07T08:24:08Z</time></trkpt>
<trkpt lat="27.336921" lon="99.969735">
<time>2016-10-07T08:24:09Z</time></trkpt>
<trkpt lat="27.336861" lon="99.969575">
<time>2016-10-07T08:24:10Z</time></trkpt>
<trkpt lat="27.336802" lon="99.969406">
<time>2016-10-07T08:24:11Z</time></trkpt>
<trkpt lat="27.336732" lon="99.969236">
<time>2016-10-07T08:24:12Z</time></trkpt>
<trkpt lat="27.336673" lon="99.969087">
<time>2016-10-07T08:24:13Z</time></trkpt>
<trkpt lat="27.336633" lon="99.968967">
<time>2016-10-07T08:24:14Z</time></trkpt>
<trkpt lat="27.336613" lon="99.968878">
<time>2016-10-07T08:24:15Z</time></trkpt>
<trkpt lat="27.336594" lon="99.968768">
<time>2016-10-07T08:24:16Z</time></trkpt>
<trkpt lat="27.336594" lon="99.968678">
<time>2016-10-07T08:24:17Z</time></trkpt>
<trkpt lat="27.336604" lon="99.968578">
<time>2016-10-07T08:24:18Z</time></trkpt>
<trkpt lat="27.336624" lon="99.968499">
<time>2016-10-07T08:24:19Z</time></trkpt>
<trkpt lat="27.336655" lon="99.968379">
<time>2016-10-07T08:24:20Z</time></trkpt>
<trkpt lat="27.336705" lon="99.96819">
<time>2016-10-07T08:24:21Z</time></trkpt>
<trkpt lat="27.336806" lon="99.9679">
<time>2016-10-07T08:24:22Z</time></trkpt>
<trkpt lat="27.336886" lon="99.967721">
<time>2016-10-07T08:24:23Z</time></trkpt>
<trkpt lat="27.336977" lon="99.967472">
<time>2016-10-07T08:24:24Z</time></trkpt>
<trkpt lat="27.337047" lon="99.967262">
<time>2016-10-07T08:24:25Z</time></trkpt>
<trkpt lat="27.337108" lon="99.967093">
<time>2016-10-07T08:24:26Z</time></trkpt>
<trkpt lat="27.337128" lon="99.966983">
<time>2016-10-07T08:24:27Z</time></trkpt>
<trkpt lat="27.337119" lon="99.966774">
<time>2016-10-07T08:24:28Z</time></trkpt>
<trkpt lat="27.337119" lon="99.966734">
<time>2016-10-07T08:24:29Z</time></trkpt>
<trkpt lat="27.337019" lon="99.966485">
<time>2016-10-07T08:24:30Z</time></trkpt>
<trkpt lat="27.33691" lon="99.966185">
<time>2016-10-07T08:24:31Z</time></trkpt>
<trkpt lat="27.336811" lon="99.965956">
<time>2016-10-07T08:24:32Z</time></trkpt>
<trkpt lat="27.336592" lon="99.965507">
<time>2016-10-07T08:24:33Z</time></trkpt>
<trkpt lat="27.336562" lon="99.965418">
<time>2016-10-07T08:24:34Z</time></trkpt>
<trkpt lat="27.336533" lon="99.965338">
<time>2016-10-07T08:24:35Z</time></trkpt>
<trkpt lat="27.336483" lon="99.965138">
<time>2016-10-07T08:24:36Z</time></trkpt>
<trkpt lat="27.336374" lon="99.96468">
<time>2016-10-07T08:24:37Z</time></trkpt>
<trkpt lat="27.336295" lon="99.964351">
<time>2016-10-07T08:24:38Z</time></trkpt>
<trkpt lat="27.336008" lon="99.963104">
<time>2016-10-07T08:24:39Z</time></trkpt>
<trkpt lat="27.336008" lon="99.963104">
<time>2016-10-07T08:24:40Z</time></trkpt>
<trkpt lat="27.338014" lon="99.96086">
<time>2016-10-07T08:24:41Z</time></trkpt>
<trkpt lat="27.338174" lon="99.960651">
<time>2016-10-07T08:24:42Z</time></trkpt>
<trkpt lat="27.338435" lon="99.960352">
<time>2016-10-07T08:24:43Z</time></trkpt>
<trkpt lat="27.338575" lon="99.960232">
<time>2016-10-07T08:24:44Z</time></trkpt>
<trkpt lat="27.338685" lon="99.960082">
<time>2016-10-07T08:24:45Z</time></trkpt>
<trkpt lat="27.338786" lon="99.959923">
<time>2016-10-07T08:24:46Z</time></trkpt>
<trkpt lat="27.338916" lon="99.959693">
<time>2016-10-07T08:24:47Z</time></trkpt>
<trkpt lat="27.338967" lon="99.959534">
<time>2016-10-07T08:24:48Z</time></trkpt>
<trkpt lat="27.339027" lon="99.959354">
<time>2016-10-07T08:24:49Z</time></trkpt>
<trkpt lat="27.339088" lon="99.959165">
<time>2016-10-07T08:24:50Z</time></trkpt>
<trkpt lat="27.339148" lon="99.958975">
<time>2016-10-07T08:24:51Z</time></trkpt>
<trkpt lat="27.339208" lon="99.958796">
<time>2016-10-07T08:24:52Z</time></trkpt>
<trkpt lat="27.339259" lon="99.958636">
<time>2016-10-07T08:24:53Z</time></trkpt>
<trkpt lat="27.339339" lon="99.958467">
<time>2016-10-07T08:24:54Z</time></trkpt>
<trkpt lat="27.339469" lon="99.958317">
<time>2016-10-07T08:24:55Z</time></trkpt>
<trkpt lat="27.33968" lon="99.958207">
<time>2016-10-07T08:24:56Z</time></trkpt>
<trkpt lat="27.33984" lon="99.958167">
<time>2016-10-07T08:24:57Z</time></trkpt>
<trkpt lat="27.34" lon="99.958118">
<time>2016-10-07T08:24:58Z</time></trkpt>
<trkpt lat="27.34017" lon="99.958068">
<time>2016-10-07T08:24:59Z</time></trkpt>
<trkpt lat="27.34033" lon="99.958008">
<time>2016-10-07T08:25:00Z</time></trkpt>
<trkpt lat="27.34049" lon="99.957958">
<time>2016-10-07T08:25:01Z</time></trkpt>
<trkpt lat="27.34068" lon="99.957908">
<time>2016-10-07T08:25:02Z</time></trkpt>
<trkpt lat="27.34083" lon="99.957848">
<time>2016-10-07T08:25:03Z</time></trkpt>
<trkpt lat="27.34097" lon="99.957798">
<time>2016-10-07T08:25:04Z</time></trkpt>
<trkpt lat="27.341121" lon="99.957748">
<time>2016-10-07T08:25:05Z</time></trkpt>
<trkpt lat="27.341281" lon="99.957699">
<time>2016-10-07T08:25:06Z</time></trkpt>
<trkpt lat="27.341411" lon="99.957639">
<time>2016-10-07T08:25:07Z</time></trkpt>
<trkpt lat="27.341571" lon="99.957589">
<time>2016-10-07T08:25:08Z</time></trkpt>
<trkpt lat="27.341741" lon="99.957519">
<time>2016-10-07T08:25:09Z</time></trkpt>
<trkpt lat="27.341891" lon="99.957459">
<time>2016-10-07T08:25:10Z</time></trkpt>
<trkpt lat="27.342061" lon="99.957409">
<time>2016-10-07T08:25:11Z</time></trkpt>
<trkpt lat="27.342221" lon="99.957359">
<time>2016-10-07T08:25:12Z</time></trkpt>
<trkpt lat="27.342381" lon="99.95726">
<time>2016-10-07T08:25:13Z</time></trkpt>
<trkpt lat="27.342482" lon="99.95711">
<time>2016-10-07T08:25:14Z</time></trkpt>
<trkpt lat="27.342582" lon="99.956941">
<time>2016-10-07T08:25:15Z</time></trkpt>
<trkpt lat="27.342673" lon="99.956771">
<time>2016-10-07T08:25:16Z</time></trkpt>
<trkpt lat="27.342783" lon="99.956601">
<time>2016-10-07T08:25:17Z</time></trkpt>
<trkpt lat="27.342883" lon="99.956452">
<time>2016-10-07T08:25:18Z</time></trkpt>
<trkpt lat="27.343014" lon="99.956272">
<time>2016-10-07T08:25:19Z</time></trkpt>
<trkpt lat="27.343184" lon="99.956093">
<time>2016-10-07T08:25:20Z</time></trkpt>
<trkpt lat="27.343324" lon="99.955993">
<time>2016-10-07T08:25:21Z</time></trkpt>
<trkpt lat="27.343464" lon="99.955933">
<time>2016-10-07T08:25:22Z</time></trkpt>
<trkpt lat="27.343615" lon="99.955863">
<time>2016-10-07T08:25:23Z</time></trkpt>
<trkpt lat="27.343805" lon="99.955773">
<time>2016-10-07T08:25:24Z</time></trkpt>
<trkpt lat="27.344025" lon="99.955694">
<time>2016-10-07T08:25:25Z</time></trkpt>
<trkpt lat="27.344245" lon="99.955644">
<time>2016-10-07T08:25:26Z</time></trkpt>
<trkpt lat="27.344485" lon="99.955604">
<time>2016-10-07T08:25:27Z</time></trkpt>
<trkpt lat="27.344705" lon="99.955594">
<time>2016-10-07T08:25:28Z</time></trkpt>
<trkpt lat="27.344905" lon="99.955574">
<time>2016-10-07T08:25:29Z</time></trkpt>
<trkpt lat="27.345105" lon="99.955594">
<time>2016-10-07T08:25:30Z</time></trkpt>
<trkpt lat="27.345285" lon="99.955674">
<time>2016-10-07T08:25:31Z</time></trkpt>
<trkpt lat="27.345424" lon="99.955813">
<time>2016-10-07T08:25:32Z</time></trkpt>
<trkpt lat="27.345554" lon="99.955963">
<time>2016-10-07T08:25:33Z</time></trkpt>
<trkpt lat="27.345674" lon="99.956123">
<time>2016-10-07T08:25:34Z</time></trkpt>
<trkpt lat="27.345823" lon="99.956232">
<time>2016-10-07T08:25:35Z</time></trkpt>
<trkpt lat="27.346013" lon="99.956302">
<time>2016-10-07T08:25:36Z</time></trkpt>
<trkpt lat="27.346213" lon="99.956332">
<time>2016-10-07T08:25:37Z</time></trkpt>
<trkpt lat="27.346693" lon="99.956382">
<time>2016-10-07T08:25:38Z</time></trkpt>
<trkpt lat="27.346953" lon="99.956392">
<time>2016-10-07T08:25:39Z</time></trkpt>
<trkpt lat="27.347093" lon="99.956372">
<time>2016-10-07T08:25:40Z</time></trkpt>
<trkpt lat="27.347533" lon="99.956292">
<time>2016-10-07T08:25:41Z</time></trkpt>
<trkpt lat="27.347903" lon="99.956302">
<time>2016-10-07T08:25:42Z</time></trkpt>
<trkpt lat="27.348293" lon="99.956322">
<time>2016-10-07T08:25:43Z</time></trkpt>
<trkpt lat="27.348503" lon="99.956352">
<time>2016-10-07T08:25:44Z</time></trkpt>
<trkpt lat="27.348782" lon="99.956432">
<time>2016-10-07T08:25:45Z</time></trkpt>
<trkpt lat="27.349092" lon="99.956482">
<time>2016-10-07T08:25:46Z</time></trkpt>
<trkpt lat="27.349362" lon="99.956561">
<time>2016-10-07T08:25:47Z</time></trkpt>
<trkpt lat="27.349542" lon="99.956591">
<time>2016-10-07T08:25:48Z</time></trkpt>
<trkpt lat="27.349742" lon="99.956601">
<time>2016-10-07T08:25:49Z</time></trkpt>
<trkpt lat="27.349892" lon="99.956631">
<time>2016-10-07T08:25:50Z</time></trkpt>
<trkpt lat="27.350082" lon="99.956621">
<time>2016-10-07T08:25:51Z</time></trkpt>
<trkpt lat="27.350282" lon="99.956631">
<time>2016-10-07T08:25:52Z</time></trkpt>
<trkpt lat="27.350472" lon="99.956581">
<time>2016-10-07T08:25:53Z</time></trkpt>
<trkpt lat="27.350692" lon="99.956551">
<time>2016-10-07T08:25:54Z</time></trkpt>
<trkpt lat="27.351392" lon="99.956481">
<time>2016-10-07T08:25:55Z</time></trkpt>
<trkpt lat="27.351602" lon="99.956432">
<time>2016-10-07T08:25:56Z</time></trkpt>
<trkpt lat="27.351752" lon="99.956372">
<time>2016-10-07T08:25:57Z</time></trkpt>
<trkpt lat="27.351882" lon="99.956352">
<time>2016-10-07T08:25:58Z</time></trkpt>
<trkpt lat="27.352052" lon="99.956382">
<time>2016-10-07T08:25:59Z</time></trkpt>
<trkpt lat="27.352152" lon="99.956402">
<time>2016-10-07T08:26:00Z</time></trkpt>
<trkpt lat="27.352242" lon="99.956452">
<time>2016-10-07T08:26:01Z</time></trkpt>
<trkpt lat="27.352431" lon="99.956571">
<time>2016-10-07T08:26:02Z</time></trkpt>
<trkpt lat="27.352611" lon="99.956721">
<time>2016-10-07T08:26:03Z</time></trkpt>
<trkpt lat="27.352791" lon="99.956841">
<time>2016-10-07T08:26:04Z</time></trkpt>
<trkpt lat="27.35302" lon="99.95704">
<time>2016-10-07T08:26:05Z</time></trkpt>
<trkpt lat="27.35315" lon="99.95709">
<time>2016-10-07T08:26:06Z</time></trkpt>
<trkpt lat="27.35341" lon="99.95714">
<time>2016-10-07T08:26:07Z</time></trkpt>
<trkpt lat="27.35378" lon="99.9572">
<time>2016-10-07T08:26:08Z</time></trkpt>
<trkpt lat="27.35394" lon="99.957229">
<time>2016-10-07T08:26:09Z</time></trkpt>
<trkpt lat="27.35412" lon="99.95722">
<time>2016-10-07T08:26:10Z</time></trkpt>
<trkpt lat="27.35429" lon="99.95721">
<time>2016-10-07T08:26:11Z</time></trkpt>
<trkpt lat="27.35445" lon="99.95719">
<time>2016-10-07T08:26:12Z</time></trkpt>
<trkpt lat="27.35461" lon="99.95713">
<time>2016-10-07T08:26:13Z</time></trkpt>
<trkpt lat="27.35478" lon="99.95704">
<time>2016-10-07T08:26:14Z</time></trkpt>
<trkpt lat="27.35493" lon="99.95699">
<time>2016-10-07T08:26:15Z</time></trkpt>
<trkpt lat="27.35509" lon="99.95694">
<time>2016-10-07T08:26:16Z</time></trkpt>
<trkpt lat="27.35522" lon="99.95688">
<time>2016-10-07T08:26:17Z</time></trkpt>
<trkpt lat="27.35537" lon="99.956811">
<time>2016-10-07T08:26:18Z</time></trkpt>
<trkpt lat="27.355511" lon="99.956741">
<time>2016-10-07T08:26:19Z</time></trkpt>
<trkpt lat="27.355651" lon="99.956731">
<time>2016-10-07T08:26:20Z</time></trkpt>
<trkpt lat="27.3558" lon="99.956771">
<time>2016-10-07T08:26:21Z</time></trkpt>
<trkpt lat="27.35593" lon="99.95684">
<time>2016-10-07T08:26:22Z</time></trkpt>
<trkpt lat="27.35608" lon="99.9569">
<time>2016-10-07T08:26:23Z</time></trkpt>
<trkpt lat="27.35623" lon="99.95698">
<time>2016-10-07T08:26:24Z</time></trkpt>
<trkpt lat="27.3564" lon="99.95707">
<time>2016-10-07T08:26:25Z</time></trkpt>
<trkpt lat="27.356589" lon="99.95713">
<time>2016-10-07T08:26:26Z</time></trkpt>
<trkpt lat="27.356789" lon="99.95714">
<time>2016-10-07T08:26:27Z</time></trkpt>
<trkpt lat="27.356979" lon="99.95718">
<time>2016-10-07T08:26:28Z</time></trkpt>
<trkpt lat="27.357159" lon="99.957229">
<time>2016-10-07T08:26:29Z</time></trkpt>
<trkpt lat="27.357329" lon="99.957309">
<time>2016-10-07T08:26:30Z</time></trkpt>
<trkpt lat="27.357449" lon="99.957429">
<time>2016-10-07T08:26:31Z</time></trkpt>
<trkpt lat="27.357538" lon="99.957588">
<time>2016-10-07T08:26:32Z</time></trkpt>
<trkpt lat="27.357618" lon="99.957748">
<time>2016-10-07T08:26:33Z</time></trkpt>
<trkpt lat="27.357697" lon="99.957918">
<time>2016-10-07T08:26:34Z</time></trkpt>
<trkpt lat="27.357787" lon="99.958077">
<time>2016-10-07T08:26:35Z</time></trkpt>
<trkpt lat="27.357867" lon="99.958247">
<time>2016-10-07T08:26:36Z</time></trkpt>
<trkpt lat="27.357996" lon="99.958396">
<time>2016-10-07T08:26:37Z</time></trkpt>
<trkpt lat="27.358146" lon="99.958536">
<time>2016-10-07T08:26:38Z</time></trkpt>
<trkpt lat="27.358316" lon="99.958656">
<time>2016-10-07T08:26:39Z</time></trkpt>
<trkpt lat="27.358485" lon="99.958785">
<time>2016-10-07T08:26:40Z</time></trkpt>
<trkpt lat="27.358625" lon="99.958905">
<time>2016-10-07T08:26:41Z</time></trkpt>
<trkpt lat="27.358745" lon="99.959045">
<time>2016-10-07T08:26:42Z</time></trkpt>
<trkpt lat="27.358814" lon="99.959224">
<time>2016-10-07T08:26:43Z</time></trkpt>
<trkpt lat="27.358864" lon="99.959444">
<time>2016-10-07T08:26:44Z</time></trkpt>
<trkpt lat="27.358903" lon="99.959653">
<time>2016-10-07T08:26:45Z</time></trkpt>
<trkpt lat="27.358993" lon="99.959862">
<time>2016-10-07T08:26:46Z</time></trkpt>
<trkpt lat="27.359092" lon="99.960022">
<time>2016-10-07T08:26:47Z</time></trkpt>
<trkpt lat="27.359222" lon="99.960162">
<time>2016-10-07T08:26:48Z</time></trkpt>
<trkpt lat="27.359341" lon="99.960291">
<time>2016-10-07T08:26:49Z</time></trkpt>
<trkpt lat="27.359481" lon="99.960381">
<time>2016-10-07T08:26:50Z</time></trkpt>
<trkpt lat="27.359621" lon="99.960511">
<time>2016-10-07T08:26:51Z</time></trkpt>
<trkpt lat="27.35969" lon="99.96074">
<time>2016-10-07T08:26:52Z</time></trkpt>
<trkpt lat="27.3597" lon="99.96093">
<time>2016-10-07T08:26:53Z</time></trkpt>
<trkpt lat="27.359739" lon="99.961109">
<time>2016-10-07T08:26:54Z</time></trkpt>
<trkpt lat="27.359799" lon="99.961289">
<time>2016-10-07T08:26:55Z</time></trkpt>
<trkpt lat="27.359878" lon="99.961468">
<time>2016-10-07T08:26:56Z</time></trkpt>
<trkpt lat="27.359918" lon="99.961658">
<time>2016-10-07T08:26:57Z</time></trkpt>
<trkpt lat="27.359908" lon="99.961817">
<time>2016-10-07T08:26:58Z</time></trkpt>
<trkpt lat="27.359837" lon="99.961967">
<time>2016-10-07T08:26:59Z</time></trkpt>
<trkpt lat="27.359807" lon="99.962146">
<time>2016-10-07T08:27:00Z</time></trkpt>
<trkpt lat="27.359806" lon="99.962336">
<time>2016-10-07T08:27:01Z</time></trkpt>
<trkpt lat="27.359806" lon="99.962525">
<time>2016-10-07T08:27:02Z</time></trkpt>
<trkpt lat="27.359815" lon="99.962735">
<time>2016-10-07T08:27:03Z</time></trkpt>
<trkpt lat="27.359835" lon="99.962904">
<time>2016-10-07T08:27:04Z</time></trkpt>
<trkpt lat="27.359854" lon="99.963074">
<time>2016-10-07T08:27:05Z</time></trkpt>
<trkpt lat="27.359874" lon="99.963263">
<time>2016-10-07T08:27:06Z</time></trkpt>
<trkpt lat="27.359944" lon="99.963433">
<time>2016-10-07T08:27:07Z</time></trkpt>
<trkpt lat="27.360033" lon="99.963592">
<time>2016-10-07T08:27:08Z</time></trkpt>
<trkpt lat="27.360113" lon="99.963752">
<time>2016-10-07T08:27:09Z</time></trkpt>
<trkpt lat="27.360182" lon="99.963921">
<time>2016-10-07T08:27:10Z</time></trkpt>
<trkpt lat="27.360252" lon="99.964101">
<time>2016-10-07T08:27:11Z</time></trkpt>
<trkpt lat="27.360351" lon="99.96428">
<time>2016-10-07T08:27:12Z</time></trkpt>
<trkpt lat="27.360481" lon="99.96444">
<time>2016-10-07T08:27:13Z</time></trkpt>
<trkpt lat="27.3606" lon="99.964669">
<time>2016-10-07T08:27:14Z</time></trkpt>
<trkpt lat="27.360879" lon="99.965128">
<time>2016-10-07T08:27:15Z</time></trkpt>
<trkpt lat="27.361138" lon="99.965337">
<time>2016-10-07T08:27:16Z</time></trkpt>
<trkpt lat="27.361428" lon="99.965537">
<time>2016-10-07T08:27:17Z</time></trkpt>
<trkpt lat="27.361777" lon="99.965776">
<time>2016-10-07T08:27:18Z</time></trkpt>
<trkpt lat="27.361967" lon="99.965886">
<time>2016-10-07T08:27:19Z</time></trkpt>
<trkpt lat="27.362136" lon="99.966045">
<time>2016-10-07T08:27:20Z</time></trkpt>
<trkpt lat="27.362236" lon="99.966225">
<time>2016-10-07T08:27:21Z</time></trkpt>
<trkpt lat="27.362345" lon="99.966484">
<time>2016-10-07T08:27:22Z</time></trkpt>
<trkpt lat="27.362385" lon="99.966564">
<time>2016-10-07T08:27:23Z</time></trkpt>
<trkpt lat="27.362415" lon="99.966683">
<time>2016-10-07T08:27:24Z</time></trkpt>
<trkpt lat="27.362364" lon="99.966863">
<time>2016-10-07T08:27:25Z</time></trkpt>
<trkpt lat="27.362334" lon="99.966943">
<time>2016-10-07T08:27:26Z</time></trkpt>
<trkpt lat="27.362324" lon="99.967032">
<time>2016-10-07T08:27:27Z</time></trkpt>
<trkpt lat="27.362354" lon="99.967082">
<time>2016-10-07T08:27:28Z</time></trkpt>
<trkpt lat="27.362384" lon="99.967112">
<time>2016-10-07T08:27:29Z</time></trkpt>
<trkpt lat="27.362433" lon="99.967162">
<time>2016-10-07T08:27:30Z</time></trkpt>
<trkpt lat="27.362503" lon="99.967212">
<time>2016-10-07T08:27:31Z</time></trkpt>
<trkpt lat="27.362673" lon="99.967292">
<time>2016-10-07T08:27:32Z</time></trkpt>
<trkpt lat="27.362993" lon="99.967391">
<time>2016-10-07T08:27:33Z</time></trkpt>
<trkpt lat="27.363133" lon="99.967421">
<time>2016-10-07T08:27:34Z</time></trkpt>
<trkpt lat="27.363273" lon="99.967481">
<time>2016-10-07T08:27:35Z</time></trkpt>
<trkpt lat="27.363342" lon="99.967531">
<time>2016-10-07T08:27:36Z</time></trkpt>
<trkpt lat="27.363422" lon="99.967561">
<time>2016-10-07T08:27:37Z</time></trkpt>
<trkpt lat="27.363482" lon="99.967581">
<time>2016-10-07T08:27:38Z</time></trkpt>
<trkpt lat="27.363542" lon="99.967601">
<time>2016-10-07T08:27:39Z</time></trkpt>
<trkpt lat="27.363642" lon="99.967601">
<time>2016-10-07T08:27:40Z</time></trkpt>
<trkpt lat="27.363772" lon="99.967611">
<time>2016-10-07T08:27:41Z</time></trkpt>
<trkpt lat="27.363862" lon="99.967641">
<time>2016-10-07T08:27:42Z</time></trkpt>
<trkpt lat="27.363912" lon="99.96767">
<time>2016-10-07T08:27:43Z</time></trkpt>
<trkpt lat="27.363942" lon="99.9677">
<time>2016-10-07T08:27:44Z</time></trkpt>
<trkpt lat="27.364012" lon="99.96778">
<time>2016-10-07T08:27:45Z</time></trkpt>
<trkpt lat="27.364071" lon="99.96785">
<time>2016-10-07T08:27:46Z</time></trkpt>
<trkpt lat="27.364191" lon="99.96798">
<time>2016-10-07T08:27:47Z</time></trkpt>
<trkpt lat="27.364341" lon="99.968109">
<time>2016-10-07T08:27:48Z</time></trkpt>
<trkpt lat="27.364431" lon="99.968169">
<time>2016-10-07T08:27:49Z</time></trkpt>
<trkpt lat="27.36462" lon="99.968299">
<time>2016-10-07T08:27:50Z</time></trkpt>
<trkpt lat="27.36481" lon="99.968458">
<time>2016-10-07T08:27:51Z</time></trkpt>
<trkpt lat="27.364929" lon="99.968558">
<time>2016-10-07T08:27:52Z</time></trkpt>
<trkpt lat="27.365039" lon="99.968667">
<time>2016-10-07T08:27:53Z</time></trkpt>
<trkpt lat="27.365119" lon="99.968727">
<time>2016-10-07T08:27:54Z</time></trkpt>
<trkpt lat="27.365179" lon="99.968767">
<time>2016-10-07T08:27:55Z</time></trkpt>
<trkpt lat="27.365289" lon="99.968827">
<time>2016-10-07T08:27:56Z</time></trkpt>
<trkpt lat="27.365498" lon="99.968907">
<time>2016-10-07T08:27:57Z</time></trkpt>
<trkpt lat="27.365638" lon="99.968947">
<time>2016-10-07T08:27:58Z</time></trkpt>
<trkpt lat="27.365738" lon="99.968957">
<time>2016-10-07T08:27:59Z</time></trkpt>
<trkpt lat="27.365828" lon="99.968957">
<time>2016-10-07T08:28:00Z</time></trkpt>
<trkpt lat="27.365978" lon="99.968937">
<time>2016-10-07T08:28:01Z</time></trkpt>
<trkpt lat="27.366168" lon="99.968897">
<time>2016-10-07T08:28:02Z</time></trkpt>
<trkpt lat="27.366338" lon="99.968867">
<time>2016-10-07T08:28:03Z</time></trkpt>
<trkpt lat="27.366478" lon="99.968867">
<time>2016-10-07T08:28:04Z</time></trkpt>
<trkpt lat="27.366578" lon="99.968897">
<time>2016-10-07T08:28:05Z</time></trkpt>
<trkpt lat="27.366628" lon="99.968927">
<time>2016-10-07T08:28:06Z</time></trkpt>
<trkpt lat="27.366718" lon="99.968967">
<time>2016-10-07T08:28:07Z</time></trkpt>
<trkpt lat="27.366888" lon="99.969106">
<time>2016-10-07T08:28:08Z</time></trkpt>
<trkpt lat="27.367097" lon="99.969286">
<time>2016-10-07T08:28:09Z</time></trkpt>
<trkpt lat="27.367406" lon="99.969515">
<time>2016-10-07T08:28:10Z</time></trkpt>
<trkpt lat="27.367746" lon="99.969595">
<time>2016-10-07T08:28:11Z</time></trkpt>
<trkpt lat="27.367846" lon="99.969674">
<time>2016-10-07T08:28:12Z</time></trkpt>
<trkpt lat="27.367936" lon="99.969734">
<time>2016-10-07T08:28:13Z</time></trkpt>
<trkpt lat="27.368036" lon="99.969824">
<time>2016-10-07T08:28:14Z</time></trkpt>
<trkpt lat="27.368155" lon="99.969904">
<time>2016-10-07T08:28:15Z</time></trkpt>
<trkpt lat="27.368295" lon="99.969993">
<time>2016-10-07T08:28:16Z</time></trkpt>
<trkpt lat="27.368455" lon="99.970063">
<time>2016-10-07T08:28:17Z</time></trkpt>
<trkpt lat="27.368645" lon="99.970103">
<time>2016-10-07T08:28:18Z</time></trkpt>
<trkpt lat="27.368825" lon="99.970133">
<time>2016-10-07T08:28:19Z</time></trkpt>
<trkpt lat="27.369015" lon="99.970103">
<time>2016-10-07T08:28:20Z</time></trkpt>
<trkpt lat="27.369215" lon="99.969993">
<time>2016-10-07T08:28:21Z</time></trkpt>
<trkpt lat="27.369405" lon="99.969874">
<time>2016-10-07T08:28:22Z</time></trkpt>
<trkpt lat="27.369585" lon="99.969794">
<time>2016-10-07T08:28:23Z</time></trkpt>
<trkpt lat="27.369726" lon="99.969734">
<time>2016-10-07T08:28:24Z</time></trkpt>
<trkpt lat="27.369926" lon="99.969634">
<time>2016-10-07T08:28:25Z</time></trkpt>
<trkpt lat="27.370106" lon="99.969545">
<time>2016-10-07T08:28:26Z</time></trkpt>
<trkpt lat="27.370276" lon="99.969475">
<time>2016-10-07T08:28:27Z</time></trkpt>
<trkpt lat="27.370446" lon="99.969395">
<time>2016-10-07T08:28:28Z</time></trkpt>
<trkpt lat="27.370637" lon="99.969315">
<time>2016-10-07T08:28:29Z</time></trkpt>
<trkpt lat="27.370807" lon="99.969236">
<time>2016-10-07T08:28:30Z</time></trkpt>
<trkpt lat="27.370967" lon="99.969166">
<time>2016-10-07T08:28:31Z</time></trkpt>
<trkpt lat="27.371107" lon="99.969096">
<time>2016-10-07T08:28:32Z</time></trkpt>
<trkpt lat="27.371257" lon="99.969056">
<time>2016-10-07T08:28:33Z</time></trkpt>
<trkpt lat="27.371387" lon="99.968986">
<time>2016-10-07T08:28:34Z</time></trkpt>
<trkpt lat="27.371557" lon="99.968897">
<time>2016-10-07T08:28:35Z</time></trkpt>
<trkpt lat="27.371728" lon="99.968797">
<time>2016-10-07T08:28:36Z</time></trkpt>
<trkpt lat="27.371868" lon="99.968727">
<time>2016-10-07T08:28:37Z</time></trkpt>
<trkpt lat="27.371978" lon="99.968667">
<time>2016-10-07T08:28:38Z</time></trkpt>
<trkpt lat="27.371988" lon="99.968657">
<time>2016-10-07T08:28:39Z</time></trkpt>
<trkpt lat="27.372098" lon="99.968598">
<time>2016-10-07T08:28:40Z</time></trkpt>
<trkpt lat="27.372218" lon="99.968518">
<time>2016-10-07T08:28:41Z</time></trkpt>
<trkpt lat="27.372399" lon="99.968408">
<time>2016-10-07T08:28:42Z</time></trkpt>
<trkpt lat="27.372519" lon="99.968229">
<time>2016-10-07T08:28:43Z</time></trkpt>
<trkpt lat="27.3726" lon="99.968009">
<time>2016-10-07T08:28:44Z</time></trkpt>
<trkpt lat="27.37269" lon="99.96779">
<time>2016-10-07T08:28:45Z</time></trkpt>
<trkpt lat="27.372741" lon="99.96758">
<time>2016-10-07T08:28:46Z</time></trkpt>
<trkpt lat="27.372781" lon="99.967321">
<time>2016-10-07T08:28:47Z</time></trkpt>
<trkpt lat="27.372852" lon="99.967082">
<time>2016-10-07T08:28:48Z</time></trkpt>
<trkpt lat="27.372933" lon="99.966892">
<time>2016-10-07T08:28:49Z</time></trkpt>
<trkpt lat="27.373013" lon="99.966713">
<time>2016-10-07T08:28:50Z</time></trkpt>
<trkpt lat="27.373084" lon="99.966524">
<time>2016-10-07T08:28:51Z</time></trkpt>
<trkpt lat="27.373194" lon="99.966324">
<time>2016-10-07T08:28:52Z</time></trkpt>
<trkpt lat="27.373254" lon="99.966165">
<time>2016-10-07T08:28:53Z</time></trkpt>
<trkpt lat="27.373345" lon="99.965975">
<time>2016-10-07T08:28:54Z</time></trkpt>
<trkpt lat="27.373425" lon="99.965776">
<time>2016-10-07T08:28:55Z</time></trkpt>
<trkpt lat="27.373506" lon="99.965586">
<time>2016-10-07T08:28:56Z</time></trkpt>
<trkpt lat="27.373596" lon="99.965417">
<time>2016-10-07T08:28:57Z</time></trkpt>
<trkpt lat="27.373667" lon="99.965257">
<time>2016-10-07T08:28:58Z</time></trkpt>
<trkpt lat="27.373737" lon="99.965068">
<time>2016-10-07T08:28:59Z</time></trkpt>
<trkpt lat="27.373868" lon="99.964818">
<time>2016-10-07T08:29:00Z</time></trkpt>
<trkpt lat="27.373978" lon="99.964669">
<time>2016-10-07T08:29:01Z</time></trkpt>
<trkpt lat="27.374048" lon="99.964559">
<time>2016-10-07T08:29:02Z</time></trkpt>
<trkpt lat="27.374129" lon="99.964429">
<time>2016-10-07T08:29:03Z</time></trkpt>
<trkpt lat="27.374259" lon="99.96428">
<time>2016-10-07T08:29:04Z</time></trkpt>
<trkpt lat="27.374389" lon="99.96415">
<time>2016-10-07T08:29:05Z</time></trkpt>
<trkpt lat="27.37452" lon="99.964021">
<time>2016-10-07T08:29:06Z</time></trkpt>
<trkpt lat="27.37464" lon="99.963921">
<time>2016-10-07T08:29:07Z</time></trkpt>
<trkpt lat="27.37474" lon="99.963761">
<time>2016-10-07T08:29:08Z</time></trkpt>
<trkpt lat="27.374831" lon="99.963592">
<time>2016-10-07T08:29:09Z</time></trkpt>
<trkpt lat="27.374911" lon="99.963412">
<time>2016-10-07T08:29:10Z</time></trkpt>
<trkpt lat="27.374972" lon="99.963233">
<time>2016-10-07T08:29:11Z</time></trkpt>
<trkpt lat="27.375042" lon="99.963043">
<time>2016-10-07T08:29:12Z</time></trkpt>
<trkpt lat="27.375113" lon="99.962814">
<time>2016-10-07T08:29:13Z</time></trkpt>
<trkpt lat="27.375123" lon="99.962595">
<time>2016-10-07T08:29:14Z</time></trkpt>
<trkpt lat="27.375134" lon="99.962365">
<time>2016-10-07T08:29:15Z</time></trkpt>
<trkpt lat="27.375134" lon="99.962136">
<time>2016-10-07T08:29:16Z</time></trkpt>
<trkpt lat="27.375115" lon="99.961906">
<time>2016-10-07T08:29:17Z</time></trkpt>
<trkpt lat="27.375056" lon="99.961667">
<time>2016-10-07T08:29:18Z</time></trkpt>
<trkpt lat="27.375006" lon="99.961428">
<time>2016-10-07T08:29:19Z</time></trkpt>
<trkpt lat="27.374947" lon="99.961228">
<time>2016-10-07T08:29:20Z</time></trkpt>
<trkpt lat="27.374877" lon="99.960969">
<time>2016-10-07T08:29:21Z</time></trkpt>
<trkpt lat="27.374828" lon="99.96077">
<time>2016-10-07T08:29:22Z</time></trkpt>
<trkpt lat="27.374758" lon="99.96053">
<time>2016-10-07T08:29:23Z</time></trkpt>
<trkpt lat="27.374699" lon="99.960281">
<time>2016-10-07T08:29:24Z</time></trkpt>
<trkpt lat="27.37463" lon="99.960042">
<time>2016-10-07T08:29:25Z</time></trkpt>
<trkpt lat="27.37459" lon="99.959812">
<time>2016-10-07T08:29:26Z</time></trkpt>
<trkpt lat="27.374541" lon="99.959603">
<time>2016-10-07T08:29:27Z</time></trkpt>
<trkpt lat="27.374511" lon="99.959423">
<time>2016-10-07T08:29:28Z</time></trkpt>
<trkpt lat="27.374472" lon="99.959234">
<time>2016-10-07T08:29:29Z</time></trkpt>
<trkpt lat="27.374452" lon="99.959084">
<time>2016-10-07T08:29:30Z</time></trkpt>
<trkpt lat="27.374442" lon="99.958945">
<time>2016-10-07T08:29:31Z</time></trkpt>
<trkpt lat="27.374433" lon="99.958825">
<time>2016-10-07T08:29:32Z</time></trkpt>
<trkpt lat="27.374413" lon="99.958695">
<time>2016-10-07T08:29:33Z</time></trkpt>
<trkpt lat="27.374403" lon="99.958536">
<time>2016-10-07T08:29:34Z</time></trkpt>
<trkpt lat="27.374384" lon="99.958396">
<time>2016-10-07T08:29:35Z</time></trkpt>
<trkpt lat="27.374394" lon="99.958226">
<time>2016-10-07T08:29:36Z</time></trkpt>
<trkpt lat="27.374414" lon="99.958067">
<time>2016-10-07T08:29:37Z</time></trkpt>
<trkpt lat="27.374435" lon="99.957897">
<time>2016-10-07T08:29:38Z</time></trkpt>
<trkpt lat="27.374445" lon="99.957688">
<time>2016-10-07T08:29:39Z</time></trkpt>
<trkpt lat="27.374466" lon="99.957458">
<time>2016-10-07T08:29:40Z</time></trkpt>
<trkpt lat="27.374496" lon="99.957289">
<time>2016-10-07T08:29:41Z</time></trkpt>
<trkpt lat="27.374507" lon="99.957109">
<time>2016-10-07T08:29:42Z</time></trkpt>
<trkpt lat="27.374537" lon="99.95694">
<time>2016-10-07T08:29:43Z</time></trkpt>
<trkpt lat="27.374588" lon="99.95675">
<time>2016-10-07T08:29:44Z</time></trkpt>
<trkpt lat="27.374638" lon="99.956571">
<time>2016-10-07T08:29:45Z</time></trkpt>
<trkpt lat="27.374698" lon="99.956401">
<time>2016-10-07T08:29:46Z</time></trkpt>
<trkpt lat="27.374769" lon="99.956232">
<time>2016-10-07T08:29:47Z</time></trkpt>
<trkpt lat="27.374859" lon="99.956092">
<time>2016-10-07T08:29:48Z</time></trkpt>
<trkpt lat="27.374959" lon="99.955982">
<time>2016-10-07T08:29:49Z</time></trkpt>
<trkpt lat="27.375089" lon="99.955902">
<time>2016-10-07T08:29:50Z</time></trkpt>
<trkpt lat="27.37522" lon="99.955823">
<time>2016-10-07T08:29:51Z</time></trkpt>
<trkpt lat="27.3754" lon="99.955673">
<time>2016-10-07T08:29:52Z</time></trkpt>
<trkpt lat="27.37552" lon="99.955583">
<time>2016-10-07T08:29:53Z</time></trkpt>
<trkpt lat="27.37564" lon="99.955493">
<time>2016-10-07T08:29:54Z</time></trkpt>
<trkpt lat="27.37575" lon="99.955414">
<time>2016-10-07T08:29:55Z</time></trkpt>
<trkpt lat="27.375861" lon="99.955314">
<time>2016-10-07T08:29:56Z</time></trkpt>
<trkpt lat="27.375961" lon="99.955244">
<time>2016-10-07T08:29:57Z</time></trkpt>
<trkpt lat="27.376051" lon="99.955184">
<time>2016-10-07T08:29:58Z</time></trkpt>
<trkpt lat="27.376161" lon="99.955094">
<time>2016-10-07T08:29:59Z</time></trkpt>
<trkpt lat="27.376271" lon="99.954995">
<time>2016-10-07T08:30:00Z</time></trkpt>
<trkpt lat="27.376372" lon="99.954905">
<time>2016-10-07T08:30:01Z</time></trkpt>
<trkpt lat="27.376502" lon="99.954815">
<time>2016-10-07T08:30:02Z</time></trkpt>
<trkpt lat="27.376632" lon="99.954685">
<time>2016-10-07T08:30:03Z</time></trkpt>
<trkpt lat="27.376802" lon="99.954576">
<time>2016-10-07T08:30:04Z</time></trkpt>
<trkpt lat="27.376932" lon="99.954466">
<time>2016-10-07T08:30:05Z</time></trkpt>
<trkpt lat="27.377093" lon="99.954256">
<time>2016-10-07T08:30:06Z</time></trkpt>
<trkpt lat="27.377203" lon="99.954087">
<time>2016-10-07T08:30:07Z</time></trkpt>
<trkpt lat="27.377294" lon="99.953867">
<time>2016-10-07T08:30:08Z</time></trkpt>
<trkpt lat="27.377384" lon="99.953668">
<time>2016-10-07T08:30:09Z</time></trkpt>
<trkpt lat="27.377495" lon="99.953518">
<time>2016-10-07T08:30:10Z</time></trkpt>
<trkpt lat="27.377655" lon="99.953429">
<time>2016-10-07T08:30:11Z</time></trkpt>
<trkpt lat="27.377825" lon="99.953389">
<time>2016-10-07T08:30:12Z</time></trkpt>
<trkpt lat="27.377985" lon="99.953369">
<time>2016-10-07T08:30:13Z</time></trkpt>
<trkpt lat="27.378155" lon="99.953329">
<time>2016-10-07T08:30:14Z</time></trkpt>
<trkpt lat="27.378315" lon="99.953289">
<time>2016-10-07T08:30:15Z</time></trkpt>
<trkpt lat="27.378485" lon="99.953299">
<time>2016-10-07T08:30:16Z</time></trkpt>
<trkpt lat="27.378645" lon="99.953339">
<time>2016-10-07T08:30:17Z</time></trkpt>
<trkpt lat="27.378805" lon="99.953409">
<time>2016-10-07T08:30:18Z</time></trkpt>
<trkpt lat="27.378954" lon="99.953498">
<time>2016-10-07T08:30:19Z</time></trkpt>
<trkpt lat="27.379104" lon="99.953598">
<time>2016-10-07T08:30:20Z</time></trkpt>
<trkpt lat="27.379274" lon="99.953668">
<time>2016-10-07T08:30:21Z</time></trkpt>
<trkpt lat="27.379454" lon="99.953698">
<time>2016-10-07T08:30:22Z</time></trkpt>
<trkpt lat="27.379654" lon="99.953728">
<time>2016-10-07T08:30:23Z</time></trkpt>
<trkpt lat="27.379864" lon="99.953728">
<time>2016-10-07T08:30:24Z</time></trkpt>
<trkpt lat="27.380084" lon="99.953748">
<time>2016-10-07T08:30:25Z</time></trkpt>
<trkpt lat="27.380324" lon="99.953748">
<time>2016-10-07T08:30:26Z</time></trkpt>
<trkpt lat="27.380554" lon="99.953738">
<time>2016-10-07T08:30:27Z</time></trkpt>
<trkpt lat="27.380803" lon="99.953768">
<time>2016-10-07T08:30:28Z</time></trkpt>
<trkpt lat="27.381043" lon="99.953768">
<time>2016-10-07T08:30:29Z</time></trkpt>
<trkpt lat="27.381283" lon="99.953768">
<time>2016-10-07T08:30:30Z</time></trkpt>
<trkpt lat="27.381523" lon="99.953768">
<time>2016-10-07T08:30:31Z</time></trkpt>
<trkpt lat="27.381763" lon="99.953768">
<time>2016-10-07T08:30:32Z</time></trkpt>
<trkpt lat="27.382003" lon="99.953748">
<time>2016-10-07T08:30:33Z</time></trkpt>
<trkpt lat="27.382243" lon="99.953718">
<time>2016-10-07T08:30:34Z</time></trkpt>
<trkpt lat="27.382493" lon="99.953658">
<time>2016-10-07T08:30:35Z</time></trkpt>
<trkpt lat="27.382744" lon="99.953618">
<time>2016-10-07T08:30:36Z</time></trkpt>
<trkpt lat="27.382994" lon="99.953598">
<time>2016-10-07T08:30:37Z</time></trkpt>
<trkpt lat="27.383244" lon="99.953578">
<time>2016-10-07T08:30:38Z</time></trkpt>
<trkpt lat="27.383444" lon="99.953578">
<time>2016-10-07T08:30:39Z</time></trkpt>
<trkpt lat="27.383594" lon="99.953568">
<time>2016-10-07T08:30:40Z</time></trkpt>
<trkpt lat="27.383804" lon="99.953538">
<time>2016-10-07T08:30:41Z</time></trkpt>
<trkpt lat="27.383974" lon="99.953488">
<time>2016-10-07T08:30:42Z</time></trkpt>
<trkpt lat="27.384214" lon="99.953408">
<time>2016-10-07T08:30:43Z</time></trkpt>
<trkpt lat="27.384474" lon="99.953329">
<time>2016-10-07T08:30:44Z</time></trkpt>
<trkpt lat="27.384634" lon="99.953279">
<time>2016-10-07T08:30:45Z</time></trkpt>
<trkpt lat="27.384794" lon="99.953239">
<time>2016-10-07T08:30:46Z</time></trkpt>
<trkpt lat="27.384954" lon="99.953169">
<time>2016-10-07T08:30:47Z</time></trkpt>
<trkpt lat="27.385124" lon="99.953109">
<time>2016-10-07T08:30:48Z</time></trkpt>
<trkpt lat="27.385274" lon="99.953059">
<time>2016-10-07T08:30:49Z</time></trkpt>
<trkpt lat="27.385424" lon="99.953019">
<time>2016-10-07T08:30:50Z</time></trkpt>
<trkpt lat="27.385565" lon="99.952969">
<time>2016-10-07T08:30:51Z</time></trkpt>
<trkpt lat="27.385705" lon="99.95292">
<time>2016-10-07T08:30:52Z</time></trkpt>
<trkpt lat="27.385855" lon="99.95286">
<time>2016-10-07T08:30:53Z</time></trkpt>
<trkpt lat="27.386015" lon="99.95279">
<time>2016-10-07T08:30:54Z</time></trkpt>
<trkpt lat="27.386175" lon="99.95272">
<time>2016-10-07T08:30:55Z</time></trkpt>
<trkpt lat="27.386345" lon="99.95266">
<time>2016-10-07T08:30:56Z</time></trkpt>
<trkpt lat="27.386475" lon="99.95263">
<time>2016-10-07T08:30:57Z</time></trkpt>
<trkpt lat="27.386615" lon="99.95263">
<time>2016-10-07T08:30:58Z</time></trkpt>
<trkpt lat="27.386715" lon="99.95264">
<time>2016-10-07T08:30:59Z</time></trkpt>
<trkpt lat="27.386835" lon="99.95266">
<time>2016-10-07T08:31:00Z</time></trkpt>
<trkpt lat="27.386985" lon="99.95268">
<time>2016-10-07T08:31:01Z</time></trkpt>
<trkpt lat="27.387145" lon="99.95267">
<time>2016-10-07T08:31:02Z</time></trkpt>
<trkpt lat="27.387325" lon="99.95266">
<time>2016-10-07T08:31:03Z</time></trkpt>
<trkpt lat="27.387535" lon="99.95266">
<time>2016-10-07T08:31:04Z</time></trkpt>
<trkpt lat="27.387745" lon="99.95263">
<time>2016-10-07T08:31:05Z</time></trkpt>
<trkpt lat="27.387945" lon="99.95257">
<time>2016-10-07T08:31:06Z</time></trkpt>
<trkpt lat="27.388155" lon="99.952501">
<time>2016-10-07T08:31:07Z</time></trkpt>
<trkpt lat="27.388355" lon="99.952401">
<time>2016-10-07T08:31:08Z</time></trkpt>
<trkpt lat="27.388556" lon="99.952261">
<time>2016-10-07T08:31:09Z</time></trkpt>
<trkpt lat="27.388756" lon="99.952131">
<time>2016-10-07T08:31:10Z</time></trkpt>
<trkpt lat="27.388946" lon="99.952002">
<time>2016-10-07T08:31:11Z</time></trkpt>
<trkpt lat="27.389137" lon="99.951852">
<time>2016-10-07T08:31:12Z</time></trkpt>
<trkpt lat="27.389287" lon="99.951722">
<time>2016-10-07T08:31:13Z</time></trkpt>
<trkpt lat="27.389417" lon="99.951623">
<time>2016-10-07T08:31:14Z</time></trkpt>
<trkpt lat="27.389527" lon="99.951523">
<time>2016-10-07T08:31:15Z</time></trkpt>
<trkpt lat="27.389687" lon="99.951413">
<time>2016-10-07T08:31:16Z</time></trkpt>
<trkpt lat="27.389828" lon="99.951303">
<time>2016-10-07T08:31:17Z</time></trkpt>
<trkpt lat="27.389998" lon="99.951164">
<time>2016-10-07T08:31:18Z</time></trkpt>
<trkpt lat="27.390208" lon="99.951044">
<time>2016-10-07T08:31:19Z</time></trkpt>
<trkpt lat="27.390428" lon="99.950924">
<time>2016-10-07T08:31:20Z</time></trkpt>
<trkpt lat="27.390579" lon="99.950814">
<time>2016-10-07T08:31:21Z</time></trkpt>
<trkpt lat="27.390739" lon="99.950645">
<time>2016-10-07T08:31:22Z</time></trkpt>
<trkpt lat="27.390899" lon="99.950505">
<time>2016-10-07T08:31:23Z</time></trkpt>
<trkpt lat="27.391049" lon="99.950366">
<time>2016-10-07T08:31:24Z</time></trkpt>
<trkpt lat="27.3912" lon="99.950236">
<time>2016-10-07T08:31:25Z</time></trkpt>
<trkpt lat="27.39135" lon="99.950106">
<time>2016-10-07T08:31:26Z</time></trkpt>
<trkpt lat="27.39148" lon="99.949986">
<time>2016-10-07T08:31:27Z</time></trkpt>
<trkpt lat="27.3916" lon="99.949887">
<time>2016-10-07T08:31:28Z</time></trkpt>
<trkpt lat="27.391751" lon="99.949747">
<time>2016-10-07T08:31:29Z</time></trkpt>
<trkpt lat="27.391901" lon="99.949617">
<time>2016-10-07T08:31:30Z</time></trkpt>
<trkpt lat="27.392131" lon="99.949408">
<time>2016-10-07T08:31:31Z</time></trkpt>
<trkpt lat="27.392231" lon="99.949338">
<time>2016-10-07T08:31:32Z</time></trkpt>
<trkpt lat="27.392302" lon="99.949268">
<time>2016-10-07T08:31:33Z</time></trkpt>
<trkpt lat="27.392402" lon="99.949128">
<time>2016-10-07T08:31:34Z</time></trkpt>
<trkpt lat="27.392532" lon="99.948969">
<time>2016-10-07T08:31:35Z</time></trkpt>
<trkpt lat="27.392632" lon="99.948839">
<time>2016-10-07T08:31:36Z</time></trkpt>
<trkpt lat="27.392743" lon="99.948669">
<time>2016-10-07T08:31:37Z</time></trkpt>
<trkpt lat="27.392833" lon="99.94854">
<time>2016-10-07T08:31:38Z</time></trkpt>
<trkpt lat="27.392943" lon="99.9484">
<time>2016-10-07T08:31:39Z</time></trkpt>
<trkpt lat="27.393084" lon="99.94823">
<time>2016-10-07T08:31:40Z</time></trkpt>
<trkpt lat="27.393184" lon="99.948041">
<time>2016-10-07T08:31:41Z</time></trkpt>
<trkpt lat="27.393254" lon="99.947841">
<time>2016-10-07T08:31:42Z</time></trkpt>
<trkpt lat="27.393365" lon="99.947662">
<time>2016-10-07T08:31:43Z</time></trkpt>
<trkpt lat="27.393515" lon="99.947542">
<time>2016-10-07T08:31:44Z</time></trkpt>
<trkpt lat="27.393695" lon="99.947502">
<time>2016-10-07T08:31:45Z</time></trkpt>
<trkpt lat="27.393865" lon="99.947482">
<time>2016-10-07T08:31:46Z</time></trkpt>
<trkpt lat="27.394055" lon="99.947442">
<time>2016-10-07T08:31:47Z</time></trkpt>
<trkpt lat="27.394215" lon="99.947362">
<time>2016-10-07T08:31:48Z</time></trkpt>
<trkpt lat="27.394355" lon="99.947262">
<time>2016-10-07T08:31:49Z</time></trkpt>
<trkpt lat="27.394486" lon="99.947183">
<time>2016-10-07T08:31:50Z</time></trkpt>
<trkpt lat="27.394656" lon="99.947063">
<time>2016-10-07T08:31:51Z</time></trkpt>
<trkpt lat="27.394816" lon="99.946963">
<time>2016-10-07T08:31:52Z</time></trkpt>
<trkpt lat="27.394966" lon="99.946863">
<time>2016-10-07T08:31:53Z</time></trkpt>
<trkpt lat="27.395116" lon="99.946744">
<time>2016-10-07T08:31:54Z</time></trkpt>
<trkpt lat="27.395277" lon="99.946624">
<time>2016-10-07T08:31:55Z</time></trkpt>
<trkpt lat="27.395387" lon="99.946544">
<time>2016-10-07T08:31:56Z</time></trkpt>
<trkpt lat="27.395447" lon="99.946504">
<time>2016-10-07T08:31:57Z</time></trkpt>
<trkpt lat="27.395587" lon="99.946394">
<time>2016-10-07T08:31:58Z</time></trkpt>
<trkpt lat="27.395727" lon="99.946295">
<time>2016-10-07T08:31:59Z</time></trkpt>
<trkpt lat="27.395907" lon="99.946185">
<time>2016-10-07T08:32:00Z</time></trkpt>
<trkpt lat="27.396098" lon="99.946085">
<time>2016-10-07T08:32:01Z</time></trkpt>
<trkpt lat="27.396268" lon="99.945985">
<time>2016-10-07T08:32:02Z</time></trkpt>
<trkpt lat="27.396418" lon="99.945925">
<time>2016-10-07T08:32:03Z</time></trkpt>
<trkpt lat="27.396598" lon="99.945865">
<time>2016-10-07T08:32:04Z</time></trkpt>
<trkpt lat="27.396778" lon="99.945816">
<time>2016-10-07T08:32:05Z</time></trkpt>
<trkpt lat="27.396968" lon="99.945786">
<time>2016-10-07T08:32:06Z</time></trkpt>
<trkpt lat="27.397158" lon="99.945786">
<time>2016-10-07T08:32:07Z</time></trkpt>
<trkpt lat="27.397398" lon="99.945756">
<time>2016-10-07T08:32:08Z</time></trkpt>
<trkpt lat="27.397658" lon="99.945706">
<time>2016-10-07T08:32:09Z</time></trkpt>
<trkpt lat="27.397998" lon="99.945636">
<time>2016-10-07T08:32:10Z</time></trkpt>
<trkpt lat="27.398308" lon="99.945566">
<time>2016-10-07T08:32:11Z</time></trkpt>
<trkpt lat="27.398578" lon="99.945496">
<time>2016-10-07T08:32:12Z</time></trkpt>
<trkpt lat="27.398809" lon="99.945376">
<time>2016-10-07T08:32:13Z</time></trkpt>
<trkpt lat="27.398979" lon="99.945247">
<time>2016-10-07T08:32:14Z</time></trkpt>
<trkpt lat="27.399199" lon="99.945127">
<time>2016-10-07T08:32:15Z</time></trkpt>
<trkpt lat="27.399429" lon="99.945017">
<time>2016-10-07T08:32:16Z</time></trkpt>
<trkpt lat="27.399659" lon="99.944897">
<time>2016-10-07T08:32:17Z</time></trkpt>
<trkpt lat="27.39991" lon="99.944788">
<time>2016-10-07T08:32:18Z</time></trkpt>
<trkpt lat="27.40017" lon="99.944718">
<time>2016-10-07T08:32:19Z</time></trkpt>
<trkpt lat="27.4005" lon="99.944628">
<time>2016-10-07T08:32:20Z</time></trkpt>
<trkpt lat="27.40077" lon="99.944588">
<time>2016-10-07T08:32:21Z</time></trkpt>
<trkpt lat="27.40083" lon="99.944588">
<time>2016-10-07T08:32:22Z</time></trkpt>
<trkpt lat="27.40107" lon="99.944618">
<time>2016-10-07T08:32:23Z</time></trkpt>
<trkpt lat="27.4014" lon="99.944648">
<time>2016-10-07T08:32:24Z</time></trkpt>
<trkpt lat="27.401639" lon="99.944698">
<time>2016-10-07T08:32:25Z</time></trkpt>
<trkpt lat="27.401879" lon="99.944758">
<time>2016-10-07T08:32:26Z</time></trkpt>
<trkpt lat="27.402109" lon="99.944828">
<time>2016-10-07T08:32:27Z</time></trkpt>
<trkpt lat="27.402339" lon="99.944887">
<time>2016-10-07T08:32:28Z</time></trkpt>
<trkpt lat="27.402589" lon="99.944967">
<time>2016-10-07T08:32:29Z</time></trkpt>
<trkpt lat="27.402769" lon="99.945047">
<time>2016-10-07T08:32:30Z</time></trkpt>
<trkpt lat="27.402969" lon="99.945127">
<time>2016-10-07T08:32:31Z</time></trkpt>
<trkpt lat="27.403228" lon="99.945237">
<time>2016-10-07T08:32:32Z</time></trkpt>
<trkpt lat="27.403478" lon="99.945346">
<time>2016-10-07T08:32:33Z</time></trkpt>
<trkpt lat="27.403688" lon="99.945456">
<time>2016-10-07T08:32:34Z</time></trkpt>
<trkpt lat="27.403878" lon="99.945566">
<time>2016-10-07T08:32:35Z</time></trkpt>
<trkpt lat="27.404057" lon="99.945676">
<time>2016-10-07T08:32:36Z</time></trkpt>
<trkpt lat="27.404247" lon="99.945805">
<time>2016-10-07T08:32:37Z</time></trkpt>
<trkpt lat="27.404437" lon="99.945925">
<time>2016-10-07T08:32:38Z</time></trkpt>
<trkpt lat="27.404626" lon="99.946055">
<time>2016-10-07T08:32:39Z</time></trkpt>
<trkpt lat="27.404766" lon="99.946175">
<time>2016-10-07T08:32:40Z</time></trkpt>
<trkpt lat="27.404936" lon="99.946294">
<time>2016-10-07T08:32:41Z</time></trkpt>
<trkpt lat="27.405106" lon="99.946444">
<time>2016-10-07T08:32:42Z</time></trkpt>
<trkpt lat="27.405265" lon="99.946584">
<time>2016-10-07T08:32:43Z</time></trkpt>
<trkpt lat="27.405415" lon="99.946733">
<time>2016-10-07T08:32:44Z</time></trkpt>
<trkpt lat="27.405585" lon="99.946923">
<time>2016-10-07T08:32:45Z</time></trkpt>
<trkpt lat="27.405704" lon="99.947152">
<time>2016-10-07T08:32:46Z</time></trkpt>
<trkpt lat="27.405804" lon="99.947382">
<time>2016-10-07T08:32:47Z</time></trkpt>
<trkpt lat="27.405903" lon="99.947621">
<time>2016-10-07T08:32:48Z</time></trkpt>
<trkpt lat="27.406003" lon="99.947901">
<time>2016-10-07T08:32:49Z</time></trkpt>
<trkpt lat="27.406092" lon="99.94816">
<time>2016-10-07T08:32:50Z</time></trkpt>
<trkpt lat="27.406182" lon="99.94829">
<time>2016-10-07T08:32:51Z</time></trkpt>
<trkpt lat="27.406322" lon="99.94841">
<time>2016-10-07T08:32:52Z</time></trkpt>
<trkpt lat="27.406461" lon="99.948519">
<time>2016-10-07T08:32:53Z</time></trkpt>
<trkpt lat="27.406611" lon="99.948579">
<time>2016-10-07T08:32:54Z</time></trkpt>
<trkpt lat="27.406761" lon="99.948669">
<time>2016-10-07T08:32:55Z</time></trkpt>
<trkpt lat="27.406911" lon="99.948769">
<time>2016-10-07T08:32:56Z</time></trkpt>
<trkpt lat="27.407101" lon="99.948869">
<time>2016-10-07T08:32:57Z</time></trkpt>
<trkpt lat="27.4073" lon="99.948978">
<time>2016-10-07T08:32:58Z</time></trkpt>
<trkpt lat="27.40753" lon="99.949078">
<time>2016-10-07T08:32:59Z</time></trkpt>
<trkpt lat="27.40772" lon="99.949168">
<time>2016-10-07T08:33:00Z</time></trkpt>
<trkpt lat="27.407889" lon="99.949328">
<time>2016-10-07T08:33:01Z</time></trkpt>
<trkpt lat="27.408009" lon="99.949517">
<time>2016-10-07T08:33:02Z</time></trkpt>
<trkpt lat="27.408119" lon="99.949687">
<time>2016-10-07T08:33:03Z</time></trkpt>
<trkpt lat="27.408248" lon="99.949826">
<time>2016-10-07T08:33:04Z</time></trkpt>
<trkpt lat="27.408388" lon="99.949976">
<time>2016-10-07T08:33:05Z</time></trkpt>
<trkpt lat="27.408538" lon="99.950116">
<time>2016-10-07T08:33:06Z</time></trkpt>
<trkpt lat="27.408658" lon="99.950215">
<time>2016-10-07T08:33:07Z</time></trkpt>
<trkpt lat="27.408797" lon="99.950245">
<time>2016-10-07T08:33:08Z</time></trkpt>
<trkpt lat="27.408997" lon="99.950245">
<time>2016-10-07T08:33:09Z</time></trkpt>
<trkpt lat="27.409197" lon="99.950235">
<time>2016-10-07T08:33:10Z</time></trkpt>
<trkpt lat="27.409387" lon="99.950205">
<time>2016-10-07T08:33:11Z</time></trkpt>
<trkpt lat="27.409598" lon="99.950166">
<time>2016-10-07T08:33:12Z</time></trkpt>
<trkpt lat="27.409798" lon="99.950156">
<time>2016-10-07T08:33:13Z</time></trkpt>
<trkpt lat="27.409987" lon="99.950185">
<time>2016-10-07T08:33:14Z</time></trkpt>
<trkpt lat="27.410187" lon="99.950315">
<time>2016-10-07T08:33:15Z</time></trkpt>
<trkpt lat="27.410347" lon="99.950475">
<time>2016-10-07T08:33:16Z</time></trkpt>
<trkpt lat="27.410536" lon="99.950644">
<time>2016-10-07T08:33:17Z</time></trkpt>
<trkpt lat="27.410706" lon="99.950814">
<time>2016-10-07T08:33:18Z</time></trkpt>
<trkpt lat="27.410866" lon="99.951023">
<time>2016-10-07T08:33:19Z</time></trkpt>
<trkpt lat="27.411045" lon="99.951193">
<time>2016-10-07T08:33:20Z</time></trkpt>
<trkpt lat="27.411255" lon="99.951313">
<time>2016-10-07T08:33:21Z</time></trkpt>
<trkpt lat="27.411495" lon="99.951373">
<time>2016-10-07T08:33:22Z</time></trkpt>
<trkpt lat="27.411625" lon="99.951373">
<time>2016-10-07T08:33:23Z</time></trkpt>
<trkpt lat="27.411775" lon="99.951373">
<time>2016-10-07T08:33:24Z</time></trkpt>
<trkpt lat="27.411925" lon="99.951353">
<time>2016-10-07T08:33:25Z</time></trkpt>
<trkpt lat="27.412105" lon="99.951273">
<time>2016-10-07T08:33:26Z</time></trkpt>
<trkpt lat="27.412245" lon="99.951173">
<time>2016-10-07T08:33:27Z</time></trkpt>
<trkpt lat="27.412365" lon="99.951043">
<time>2016-10-07T08:33:28Z</time></trkpt>
<trkpt lat="27.412546" lon="99.950894">
<time>2016-10-07T08:33:29Z</time></trkpt>
<trkpt lat="27.412646" lon="99.950784">
<time>2016-10-07T08:33:30Z</time></trkpt>
<trkpt lat="27.412806" lon="99.950654">
<time>2016-10-07T08:33:31Z</time></trkpt>
<trkpt lat="27.412906" lon="99.950604">
<time>2016-10-07T08:33:32Z</time></trkpt>
<trkpt lat="27.413016" lon="99.950574">
<time>2016-10-07T08:33:33Z</time></trkpt>
<trkpt lat="27.413146" lon="99.950555">
<time>2016-10-07T08:33:34Z</time></trkpt>
<trkpt lat="27.413246" lon="99.950525">
<time>2016-10-07T08:33:35Z</time></trkpt>
<trkpt lat="27.413376" lon="99.950525">
<time>2016-10-07T08:33:36Z</time></trkpt>
<trkpt lat="27.413546" lon="99.950515">
<time>2016-10-07T08:33:37Z</time></trkpt>
<trkpt lat="27.413706" lon="99.950565">
<time>2016-10-07T08:33:38Z</time></trkpt>
<trkpt lat="27.413856" lon="99.950674">
<time>2016-10-07T08:33:39Z</time></trkpt>
<trkpt lat="27.414016" lon="99.950794">
<time>2016-10-07T08:33:40Z</time></trkpt>
<trkpt lat="27.414205" lon="99.950934">
<time>2016-10-07T08:33:41Z</time></trkpt>
<trkpt lat="27.414415" lon="99.950993">
<time>2016-10-07T08:33:42Z</time></trkpt>
<trkpt lat="27.414625" lon="99.951063">
<time>2016-10-07T08:33:43Z</time></trkpt>
<trkpt lat="27.414885" lon="99.951093">
<time>2016-10-07T08:33:44Z</time></trkpt>
<trkpt lat="27.415105" lon="99.951153">
<time>2016-10-07T08:33:45Z</time></trkpt>
<trkpt lat="27.415325" lon="99.951173">
<time>2016-10-07T08:33:46Z</time></trkpt>
<trkpt lat="27.415545" lon="99.951163">
<time>2016-10-07T08:33:47Z</time></trkpt>
<trkpt lat="27.415615" lon="99.951173">
<time>2016-10-07T08:33:48Z</time></trkpt>
<trkpt lat="27.415805" lon="99.951203">
<time>2016-10-07T08:33:49Z</time></trkpt>
<trkpt lat="27.416025" lon="99.951193">
<time>2016-10-07T08:33:50Z</time></trkpt>
<trkpt lat="27.416235" lon="99.951113">
<time>2016-10-07T08:33:51Z</time></trkpt>
<trkpt lat="27.416415" lon="99.950964">
<time>2016-10-07T08:33:52Z</time></trkpt>
<trkpt lat="27.416585" lon="99.950814">
<time>2016-10-07T08:33:53Z</time></trkpt>
<trkpt lat="27.416686" lon="99.950724">
<time>2016-10-07T08:33:54Z</time></trkpt>
<trkpt lat="27.416746" lon="99.950684">
<time>2016-10-07T08:33:55Z</time></trkpt>
<trkpt lat="27.416906" lon="99.950534">
<time>2016-10-07T08:33:56Z</time></trkpt>
<trkpt lat="27.417016" lon="99.950405">
<time>2016-10-07T08:33:57Z</time></trkpt>
<trkpt lat="27.417126" lon="99.950245">
<time>2016-10-07T08:33:58Z</time></trkpt>
<trkpt lat="27.417297" lon="99.950006">
<time>2016-10-07T08:33:59Z</time></trkpt>
<trkpt lat="27.417447" lon="99.949756">
<time>2016-10-07T08:34:00Z</time></trkpt>
<trkpt lat="27.417498" lon="99.949597">
<time>2016-10-07T08:34:01Z</time></trkpt>
<trkpt lat="27.417578" lon="99.949427">
<time>2016-10-07T08:34:02Z</time></trkpt>
<trkpt lat="27.417698" lon="99.949277">
<time>2016-10-07T08:34:03Z</time></trkpt>
<trkpt lat="27.417839" lon="99.949178">
<time>2016-10-07T08:34:04Z</time></trkpt>
<trkpt lat="27.417999" lon="99.949098">
<time>2016-10-07T08:34:05Z</time></trkpt>
<trkpt lat="27.418169" lon="99.948978">
<time>2016-10-07T08:34:06Z</time></trkpt>
<trkpt lat="27.418349" lon="99.948868">
<time>2016-10-07T08:34:07Z</time></trkpt>
<trkpt lat="27.418489" lon="99.948749">
<time>2016-10-07T08:34:08Z</time></trkpt>
<trkpt lat="27.41861" lon="99.948579">
<time>2016-10-07T08:34:09Z</time></trkpt>
<trkpt lat="27.41867" lon="99.948419">
<time>2016-10-07T08:34:10Z</time></trkpt>
<trkpt lat="27.41872" lon="99.94822">
<time>2016-10-07T08:34:11Z</time></trkpt>
<trkpt lat="27.418761" lon="99.94801">
<time>2016-10-07T08:34:12Z</time></trkpt>
<trkpt lat="27.418821" lon="99.947751">
<time>2016-10-07T08:34:13Z</time></trkpt>
<trkpt lat="27.418862" lon="99.947511">
<time>2016-10-07T08:34:14Z</time></trkpt>
<trkpt lat="27.418922" lon="99.947292">
<time>2016-10-07T08:34:15Z</time></trkpt>
<trkpt lat="27.418973" lon="99.947072">
<time>2016-10-07T08:34:16Z</time></trkpt>
<trkpt lat="27.419033" lon="99.946833">
<time>2016-10-07T08:34:17Z</time></trkpt>
<trkpt lat="27.419084" lon="99.946603">
<time>2016-10-07T08:34:18Z</time></trkpt>
<trkpt lat="27.419104" lon="99.946424">
<time>2016-10-07T08:34:19Z</time></trkpt>
<trkpt lat="27.419104" lon="99.946314">
<time>2016-10-07T08:34:20Z</time></trkpt>
<trkpt lat="27.419125" lon="99.946194">
<time>2016-10-07T08:34:21Z</time></trkpt>
<trkpt lat="27.419135" lon="99.946065">
<time>2016-10-07T08:34:22Z</time></trkpt>
<trkpt lat="27.419165" lon="99.945915">
<time>2016-10-07T08:34:23Z</time></trkpt>
<trkpt lat="27.419165" lon="99.945765">
<time>2016-10-07T08:34:24Z</time></trkpt>
<trkpt lat="27.419216" lon="99.945566">
<time>2016-10-07T08:34:25Z</time></trkpt>
<trkpt lat="27.419276" lon="99.945416">
<time>2016-10-07T08:34:26Z</time></trkpt>
<trkpt lat="27.419376" lon="99.945216">
<time>2016-10-07T08:34:27Z</time></trkpt>
<trkpt lat="27.419507" lon="99.945017">
<time>2016-10-07T08:34:28Z</time></trkpt>
<trkpt lat="27.419657" lon="99.944877">
<time>2016-10-07T08:34:29Z</time></trkpt>
<trkpt lat="27.419837" lon="99.944757">
<time>2016-10-07T08:34:30Z</time></trkpt>
<trkpt lat="27.419997" lon="99.944598">
<time>2016-10-07T08:34:31Z</time></trkpt>
<trkpt lat="27.420098" lon="99.944438">
<time>2016-10-07T08:34:32Z</time></trkpt>
<trkpt lat="27.420168" lon="99.944228">
<time>2016-10-07T08:34:33Z</time></trkpt>
<trkpt lat="27.420189" lon="99.943979">
<time>2016-10-07T08:34:34Z</time></trkpt>
<trkpt lat="27.420219" lon="99.943719">
<time>2016-10-07T08:34:35Z</time></trkpt>
<trkpt lat="27.42032" lon="99.94343">
<time>2016-10-07T08:34:36Z</time></trkpt>
<trkpt lat="27.42042" lon="99.943171">
<time>2016-10-07T08:34:37Z</time></trkpt>
<trkpt lat="27.420531" lon="99.942951">
<time>2016-10-07T08:34:38Z</time></trkpt>
<trkpt lat="27.420591" lon="99.942811">
<time>2016-10-07T08:34:39Z</time></trkpt>
<trkpt lat="27.420731" lon="99.942682">
<time>2016-10-07T08:34:40Z</time></trkpt>
<trkpt lat="27.420851" lon="99.942572">
<time>2016-10-07T08:34:41Z</time></trkpt>
<trkpt lat="27.421001" lon="99.942452">
<time>2016-10-07T08:34:42Z</time></trkpt>
<trkpt lat="27.421192" lon="99.942372">
<time>2016-10-07T08:34:43Z</time></trkpt>
<trkpt lat="27.421382" lon="99.942342">
<time>2016-10-07T08:34:44Z</time></trkpt>
<trkpt lat="27.421561" lon="99.942352">
<time>2016-10-07T08:34:45Z</time></trkpt>
<trkpt lat="27.421722" lon="99.942282">
<time>2016-10-07T08:34:46Z</time></trkpt>
<trkpt lat="27.421782" lon="99.942143">
<time>2016-10-07T08:34:47Z</time></trkpt>
<trkpt lat="27.421792" lon="99.941983">
<time>2016-10-07T08:34:48Z</time></trkpt>
<trkpt lat="27.421792" lon="99.941823">
<time>2016-10-07T08:34:49Z</time></trkpt>
<trkpt lat="27.421753" lon="99.941654">
<time>2016-10-07T08:34:50Z</time></trkpt>
<trkpt lat="27.421633" lon="99.941534">
<time>2016-10-07T08:34:51Z</time></trkpt>
<trkpt lat="27.421523" lon="99.941454">
<time>2016-10-07T08:34:52Z</time></trkpt>
<trkpt lat="27.421393" lon="99.941414">
<time>2016-10-07T08:34:53Z</time></trkpt>
<trkpt lat="27.421253" lon="99.941384">
<time>2016-10-07T08:34:54Z</time></trkpt>
<trkpt lat="27.421103" lon="99.941384">
<time>2016-10-07T08:34:55Z</time></trkpt>
<trkpt lat="27.420983" lon="99.941374">
<time>2016-10-07T08:34:56Z</time></trkpt>
<trkpt lat="27.420853" lon="99.941334">
<time>2016-10-07T08:34:57Z</time></trkpt>
<trkpt lat="27.420734" lon="99.941284">
<time>2016-10-07T08:34:58Z</time></trkpt>
<trkpt lat="27.420624" lon="99.941175">
<time>2016-10-07T08:34:59Z</time></trkpt>
<trkpt lat="27.420554" lon="99.941005">
<time>2016-10-07T08:35:00Z</time></trkpt>
<trkpt lat="27.420544" lon="99.940875">
<time>2016-10-07T08:35:01Z</time></trkpt>
<trkpt lat="27.420604" lon="99.940745">
<time>2016-10-07T08:35:02Z</time></trkpt>
<trkpt lat="27.420685" lon="99.940576">
<time>2016-10-07T08:35:03Z</time></trkpt>
<trkpt lat="27.420715" lon="99.940446">
<time>2016-10-07T08:35:04Z</time></trkpt>
<trkpt lat="27.420735" lon="99.940326">
<time>2016-10-07T08:35:05Z</time></trkpt>
<trkpt lat="27.420725" lon="99.940156">
<time>2016-10-07T08:35:06Z</time></trkpt>
<trkpt lat="27.420666" lon="99.940027">
<time>2016-10-07T08:35:07Z</time></trkpt>
<trkpt lat="27.420596" lon="99.939897">
<time>2016-10-07T08:35:08Z</time></trkpt>
<trkpt lat="27.420506" lon="99.939767">
<time>2016-10-07T08:35:09Z</time></trkpt>
<trkpt lat="27.420466" lon="99.939608">
<time>2016-10-07T08:35:10Z</time></trkpt>
<trkpt lat="27.420457" lon="99.939448">
<time>2016-10-07T08:35:11Z</time></trkpt>
<trkpt lat="27.420457" lon="99.939228">
<time>2016-10-07T08:35:12Z</time></trkpt>
<trkpt lat="27.420457" lon="99.939049">
<time>2016-10-07T08:35:13Z</time></trkpt>
<trkpt lat="27.420458" lon="99.938849">
<time>2016-10-07T08:35:14Z</time></trkpt>
<trkpt lat="27.420448" lon="99.938699">
<time>2016-10-07T08:35:15Z</time></trkpt>
<trkpt lat="27.420438" lon="99.93853">
<time>2016-10-07T08:35:16Z</time></trkpt>
<trkpt lat="27.420429" lon="99.93838">
<time>2016-10-07T08:35:17Z</time></trkpt>
<trkpt lat="27.420429" lon="99.93822">
<time>2016-10-07T08:35:18Z</time></trkpt>
<trkpt lat="27.420429" lon="99.93806">
<time>2016-10-07T08:35:19Z</time></trkpt>
<trkpt lat="27.420429" lon="99.937881">
<time>2016-10-07T08:35:20Z</time></trkpt>
<trkpt lat="27.42041" lon="99.937731">
<time>2016-10-07T08:35:21Z</time></trkpt>
<trkpt lat="27.42041" lon="99.937581">
<time>2016-10-07T08:35:22Z</time></trkpt>
<trkpt lat="27.4204" lon="99.937392">
<time>2016-10-07T08:35:23Z</time></trkpt>
<trkpt lat="27.42041" lon="99.937242">
<time>2016-10-07T08:35:24Z</time></trkpt>
<trkpt lat="27.420401" lon="99.937082">
<time>2016-10-07T08:35:25Z</time></trkpt>
<trkpt lat="27.420401" lon="99.936942">
<time>2016-10-07T08:35:26Z</time></trkpt>
<trkpt lat="27.420401" lon="99.936763">
<time>2016-10-07T08:35:27Z</time></trkpt>
<trkpt lat="27.420391" lon="99.936563">
<time>2016-10-07T08:35:28Z</time></trkpt>
<trkpt lat="27.420382" lon="99.936403">
<time>2016-10-07T08:35:29Z</time></trkpt>
<trkpt lat="27.420372" lon="99.936194">
<time>2016-10-07T08:35:30Z</time></trkpt>
<trkpt lat="27.420372" lon="99.935984">
<time>2016-10-07T08:35:31Z</time></trkpt>
<trkpt lat="27.420373" lon="99.935854">
<time>2016-10-07T08:35:32Z</time></trkpt>
<trkpt lat="27.420373" lon="99.935724">
<time>2016-10-07T08:35:33Z</time></trkpt>
<trkpt lat="27.420373" lon="99.935565">
<time>2016-10-07T08:35:34Z</time></trkpt>
<trkpt lat="27.420363" lon="99.935365">
<time>2016-10-07T08:35:35Z</time></trkpt>
<trkpt lat="27.420364" lon="99.935215">
<time>2016-10-07T08:35:36Z</time></trkpt>
<trkpt lat="27.420364" lon="99.935046">
<time>2016-10-07T08:35:37Z</time></trkpt>
<trkpt lat="27.420354" lon="99.934866">
<time>2016-10-07T08:35:38Z</time></trkpt>
<trkpt lat="27.420354" lon="99.934696">
<time>2016-10-07T08:35:39Z</time></trkpt>
<trkpt lat="27.420375" lon="99.934536">
<time>2016-10-07T08:35:40Z</time></trkpt>
<trkpt lat="27.420465" lon="99.934427">
<time>2016-10-07T08:35:41Z</time></trkpt>
<trkpt lat="27.420545" lon="99.934297">
<time>2016-10-07T08:35:42Z</time></trkpt>
<trkpt lat="27.420625" lon="99.934197">
<time>2016-10-07T08:35:43Z</time></trkpt>
<trkpt lat="27.420715" lon="99.934057">
<time>2016-10-07T08:35:44Z</time></trkpt>
<trkpt lat="27.420826" lon="99.933878">
<time>2016-10-07T08:35:45Z</time></trkpt>
<trkpt lat="27.420876" lon="99.933768">
<time>2016-10-07T08:35:46Z</time></trkpt>
<trkpt lat="27.420936" lon="99.933668">
<time>2016-10-07T08:35:47Z</time></trkpt>
<trkpt lat="27.421036" lon="99.933588">
<time>2016-10-07T08:35:48Z</time></trkpt>
<trkpt lat="27.421206" lon="99.933538">
<time>2016-10-07T08:35:49Z</time></trkpt>
<trkpt lat="27.421316" lon="99.933468">
<time>2016-10-07T08:35:50Z</time></trkpt>
<trkpt lat="27.421396" lon="99.933338">
<time>2016-10-07T08:35:51Z</time></trkpt>
<trkpt lat="27.421426" lon="99.933189">
<time>2016-10-07T08:35:52Z</time></trkpt>
<trkpt lat="27.421437" lon="99.933009">
<time>2016-10-07T08:35:53Z</time></trkpt>
<trkpt lat="27.421457" lon="99.932829">
<time>2016-10-07T08:35:54Z</time></trkpt>
<trkpt lat="27.421517" lon="99.93255">
<time>2016-10-07T08:35:55Z</time></trkpt>
<trkpt lat="27.421618" lon="99.93228">
<time>2016-10-07T08:35:56Z</time></trkpt>
<trkpt lat="27.421688" lon="99.93211">
<time>2016-10-07T08:35:57Z</time></trkpt>
<trkpt lat="27.421728" lon="99.93201">
<time>2016-10-07T08:35:58Z</time></trkpt>
<trkpt lat="27.421788" lon="99.931881">
<time>2016-10-07T08:35:59Z</time></trkpt>
<trkpt lat="27.421858" lon="99.931751">
<time>2016-10-07T08:36:00Z</time></trkpt>
<trkpt lat="27.421919" lon="99.931581">
<time>2016-10-07T08:36:01Z</time></trkpt>
<trkpt lat="27.421979" lon="99.931461">
<time>2016-10-07T08:36:02Z</time></trkpt>
<trkpt lat="27.422039" lon="99.931341">
<time>2016-10-07T08:36:03Z</time></trkpt>
<trkpt lat="27.422129" lon="99.931272">
<time>2016-10-07T08:36:04Z</time></trkpt>
<trkpt lat="27.422239" lon="99.931242">
<time>2016-10-07T08:36:05Z</time></trkpt>
<trkpt lat="27.422359" lon="99.931222">
<time>2016-10-07T08:36:06Z</time></trkpt>
<trkpt lat="27.422479" lon="99.931202">
<time>2016-10-07T08:36:07Z</time></trkpt>
<trkpt lat="27.422619" lon="99.931132">
<time>2016-10-07T08:36:08Z</time></trkpt>
<trkpt lat="27.422699" lon="99.931012">
<time>2016-10-07T08:36:09Z</time></trkpt>
<trkpt lat="27.42274" lon="99.930872">
<time>2016-10-07T08:36:10Z</time></trkpt>
<trkpt lat="27.42277" lon="99.930702">
<time>2016-10-07T08:36:11Z</time></trkpt>
<trkpt lat="27.42285" lon="99.930483">
<time>2016-10-07T08:36:12Z</time></trkpt>
<trkpt lat="27.42294" lon="99.930293">
<time>2016-10-07T08:36:13Z</time></trkpt>
<trkpt lat="27.42307" lon="99.930153">
<time>2016-10-07T08:36:14Z</time></trkpt>
<trkpt lat="27.423231" lon="99.930023">
<time>2016-10-07T08:36:15Z</time></trkpt>
<trkpt lat="27.423381" lon="99.929864">
<time>2016-10-07T08:36:16Z</time></trkpt>
<trkpt lat="27.423431" lon="99.929714">
<time>2016-10-07T08:36:17Z</time></trkpt>
<trkpt lat="27.423471" lon="99.929564">
<time>2016-10-07T08:36:18Z</time></trkpt>
<trkpt lat="27.423521" lon="99.929424">
<time>2016-10-07T08:36:19Z</time></trkpt>
<trkpt lat="27.423602" lon="99.929224">
<time>2016-10-07T08:36:20Z</time></trkpt>
<trkpt lat="27.423632" lon="99.929025">
<time>2016-10-07T08:36:21Z</time></trkpt>
<trkpt lat="27.423722" lon="99.928875">
<time>2016-10-07T08:36:22Z</time></trkpt>
<trkpt lat="27.423872" lon="99.928825">
<time>2016-10-07T08:36:23Z</time></trkpt>
<trkpt lat="27.424092" lon="99.928775">
<time>2016-10-07T08:36:24Z</time></trkpt>
<trkpt lat="27.424242" lon="99.928725">
<time>2016-10-07T08:36:25Z</time></trkpt>
<trkpt lat="27.424462" lon="99.928645">
<time>2016-10-07T08:36:26Z</time></trkpt>
<trkpt lat="27.424622" lon="99.928545">
<time>2016-10-07T08:36:27Z</time></trkpt>
<trkpt lat="27.424812" lon="99.928446">
<time>2016-10-07T08:36:28Z</time></trkpt>
<trkpt lat="27.425023" lon="99.928306">
<time>2016-10-07T08:36:29Z</time></trkpt>
<trkpt lat="27.425223" lon="99.928106">
<time>2016-10-07T08:36:30Z</time></trkpt>
<trkpt lat="27.425423" lon="99.927936">
<time>2016-10-07T08:36:31Z</time></trkpt>
<trkpt lat="27.425583" lon="99.927796">
<time>2016-10-07T08:36:32Z</time></trkpt>
<trkpt lat="27.425733" lon="99.927667">
<time>2016-10-07T08:36:33Z</time></trkpt>
<trkpt lat="27.425893" lon="99.927567">
<time>2016-10-07T08:36:34Z</time></trkpt>
<trkpt lat="27.426024" lon="99.927447">
<time>2016-10-07T08:36:35Z</time></trkpt>
<trkpt lat="27.426124" lon="99.927317">
<time>2016-10-07T08:36:36Z</time></trkpt>
<trkpt lat="27.426184" lon="99.927177">
<time>2016-10-07T08:36:37Z</time></trkpt>
<trkpt lat="27.426284" lon="99.926957">
<time>2016-10-07T08:36:38Z</time></trkpt>
<trkpt lat="27.426384" lon="99.926758">
<time>2016-10-07T08:36:39Z</time></trkpt>
<trkpt lat="27.426484" lon="99.926658">
<time>2016-10-07T08:36:40Z</time></trkpt>
<trkpt lat="27.426684" lon="99.926628">
<time>2016-10-07T08:36:41Z</time></trkpt>
<trkpt lat="27.426914" lon="99.926608">
<time>2016-10-07T08:36:42Z</time></trkpt>
<trkpt lat="27.427134" lon="99.926578">
<time>2016-10-07T08:36:43Z</time></trkpt>
<trkpt lat="27.427324" lon="99.926548">
<time>2016-10-07T08:36:44Z</time></trkpt>
<trkpt lat="27.427504" lon="99.926468">
<time>2016-10-07T08:36:45Z</time></trkpt>
<trkpt lat="27.427685" lon="99.926348">
<time>2016-10-07T08:36:46Z</time></trkpt>
<trkpt lat="27.427855" lon="99.926188">
<time>2016-10-07T08:36:47Z</time></trkpt>
<trkpt lat="27.428015" lon="99.926019">
<time>2016-10-07T08:36:48Z</time></trkpt>
<trkpt lat="27.428155" lon="99.925819">
<time>2016-10-07T08:36:49Z</time></trkpt>
<trkpt lat="27.428285" lon="99.925619">
<time>2016-10-07T08:36:50Z</time></trkpt>
<trkpt lat="27.428416" lon="99.925409">
<time>2016-10-07T08:36:51Z</time></trkpt>
<trkpt lat="27.428546" lon="99.92521">
<time>2016-10-07T08:36:52Z</time></trkpt>
<trkpt lat="27.428676" lon="99.92501">
<time>2016-10-07T08:36:53Z</time></trkpt>
<trkpt lat="27.428806" lon="99.9248">
<time>2016-10-07T08:36:54Z</time></trkpt>
<trkpt lat="27.428926" lon="99.92461">
<time>2016-10-07T08:36:55Z</time></trkpt>
<trkpt lat="27.429037" lon="99.92439">
<time>2016-10-07T08:36:56Z</time></trkpt>
<trkpt lat="27.429177" lon="99.924201">
<time>2016-10-07T08:36:57Z</time></trkpt>
<trkpt lat="27.429367" lon="99.924051">
<time>2016-10-07T08:36:58Z</time></trkpt>
<trkpt lat="27.429567" lon="99.923931">
<time>2016-10-07T08:36:59Z</time></trkpt>
<trkpt lat="27.429777" lon="99.923831">
<time>2016-10-07T08:37:00Z</time></trkpt>
<trkpt lat="27.429987" lon="99.923741">
<time>2016-10-07T08:37:01Z</time></trkpt>
<trkpt lat="27.430197" lon="99.923651">
<time>2016-10-07T08:37:02Z</time></trkpt>
<trkpt lat="27.430427" lon="99.923601">
<time>2016-10-07T08:37:03Z</time></trkpt>
<trkpt lat="27.430667" lon="99.923571">
<time>2016-10-07T08:37:04Z</time></trkpt>
<trkpt lat="27.430907" lon="99.923541">
<time>2016-10-07T08:37:05Z</time></trkpt>
<trkpt lat="27.431147" lon="99.923551">
<time>2016-10-07T08:37:06Z</time></trkpt>
<trkpt lat="27.431367" lon="99.923442">
<time>2016-10-07T08:37:07Z</time></trkpt>
<trkpt lat="27.431587" lon="99.923312">
<time>2016-10-07T08:37:08Z</time></trkpt>
<trkpt lat="27.431718" lon="99.923152">
<time>2016-10-07T08:37:09Z</time></trkpt>
<trkpt lat="27.431858" lon="99.922992">
<time>2016-10-07T08:37:10Z</time></trkpt>
<trkpt lat="27.432018" lon="99.922922">
<time>2016-10-07T08:37:11Z</time></trkpt>
<trkpt lat="27.432248" lon="99.922892">
<time>2016-10-07T08:37:12Z</time></trkpt>
<trkpt lat="27.432398" lon="99.923042">
<time>2016-10-07T08:37:13Z</time></trkpt>
<trkpt lat="27.432518" lon="99.923142">
<time>2016-10-07T08:37:14Z</time></trkpt>
<trkpt lat="27.432737" lon="99.923202">
<time>2016-10-07T08:37:15Z</time></trkpt>
<trkpt lat="27.432957" lon="99.923212">
<time>2016-10-07T08:37:16Z</time></trkpt>
<trkpt lat="27.433148" lon="99.923112">
<time>2016-10-07T08:37:17Z</time></trkpt>
<trkpt lat="27.433318" lon="99.922982">
<time>2016-10-07T08:37:18Z</time></trkpt>
<trkpt lat="27.433478" lon="99.922832">
<time>2016-10-07T08:37:19Z</time></trkpt>
<trkpt lat="27.433538" lon="99.922632">
<time>2016-10-07T08:37:20Z</time></trkpt>
<trkpt lat="27.433618" lon="99.922443">
<time>2016-10-07T08:37:21Z</time></trkpt>
<trkpt lat="27.433738" lon="99.922283">
<time>2016-10-07T08:37:22Z</time></trkpt>
<trkpt lat="27.433878" lon="99.922093">
<time>2016-10-07T08:37:23Z</time></trkpt>
<trkpt lat="27.433989" lon="99.921953">
<time>2016-10-07T08:37:24Z</time></trkpt>
<trkpt lat="27.434129" lon="99.921873">
<time>2016-10-07T08:37:25Z</time></trkpt>
<trkpt lat="27.434349" lon="99.921903">
<time>2016-10-07T08:37:26Z</time></trkpt>
<trkpt lat="27.434559" lon="99.921833">
<time>2016-10-07T08:37:27Z</time></trkpt>
<trkpt lat="27.434729" lon="99.921663">
<time>2016-10-07T08:37:28Z</time></trkpt>
<trkpt lat="27.434909" lon="99.921494">
<time>2016-10-07T08:37:29Z</time></trkpt>
<trkpt lat="27.435099" lon="99.921294">
<time>2016-10-07T08:37:30Z</time></trkpt>
<trkpt lat="27.435259" lon="99.921154">
<time>2016-10-07T08:37:31Z</time></trkpt>
<trkpt lat="27.435379" lon="99.921024">
<time>2016-10-07T08:37:32Z</time></trkpt>
<trkpt lat="27.435509" lon="99.920884">
<time>2016-10-07T08:37:33Z</time></trkpt>
<trkpt lat="27.43573" lon="99.920694">
<time>2016-10-07T08:37:34Z</time></trkpt>
<trkpt lat="27.43596" lon="99.920554">
<time>2016-10-07T08:37:35Z</time></trkpt>
<trkpt lat="27.43623" lon="99.920445">
<time>2016-10-07T08:37:36Z</time></trkpt>
<trkpt lat="27.43644" lon="99.920355">
<time>2016-10-07T08:37:37Z</time></trkpt>
<trkpt lat="27.43668" lon="99.920285">
<time>2016-10-07T08:37:38Z</time></trkpt>
<trkpt lat="27.43692" lon="99.920285">
<time>2016-10-07T08:37:39Z</time></trkpt>
<trkpt lat="27.43717" lon="99.920285">
<time>2016-10-07T08:37:40Z</time></trkpt>
<trkpt lat="27.43741" lon="99.920285">
<time>2016-10-07T08:37:41Z</time></trkpt>
<trkpt lat="27.43765" lon="99.920235">
<time>2016-10-07T08:37:42Z</time></trkpt>
<trkpt lat="27.43788" lon="99.920155">
<time>2016-10-07T08:37:43Z</time></trkpt>
<trkpt lat="27.43811" lon="99.920045">
<time>2016-10-07T08:37:44Z</time></trkpt>
<trkpt lat="27.4383" lon="99.919885">
<time>2016-10-07T08:37:45Z</time></trkpt>
<trkpt lat="27.43849" lon="99.919695">
<time>2016-10-07T08:37:46Z</time></trkpt>
<trkpt lat="27.43868" lon="99.919545">
<time>2016-10-07T08:37:47Z</time></trkpt>
<trkpt lat="27.43886" lon="99.919385">
<time>2016-10-07T08:37:48Z</time></trkpt>
<trkpt lat="27.43906" lon="99.919286">
<time>2016-10-07T08:37:49Z</time></trkpt>
<trkpt lat="27.43927" lon="99.919206">
<time>2016-10-07T08:37:50Z</time></trkpt>
<trkpt lat="27.4395" lon="99.919166">
<time>2016-10-07T08:37:51Z</time></trkpt>
<trkpt lat="27.439731" lon="99.919096">
<time>2016-10-07T08:37:52Z</time></trkpt>
<trkpt lat="27.439971" lon="99.919026">
<time>2016-10-07T08:37:53Z</time></trkpt>
<trkpt lat="27.440201" lon="99.918936">
<time>2016-10-07T08:37:54Z</time></trkpt>
<trkpt lat="27.440341" lon="99.918846">
<time>2016-10-07T08:37:55Z</time></trkpt>
<trkpt lat="27.440531" lon="99.918736">
<time>2016-10-07T08:37:56Z</time></trkpt>
<trkpt lat="27.440691" lon="99.918616">
<time>2016-10-07T08:37:57Z</time></trkpt>
<trkpt lat="27.440881" lon="99.918486">
<time>2016-10-07T08:37:58Z</time></trkpt>
<trkpt lat="27.441061" lon="99.918366">
<time>2016-10-07T08:37:59Z</time></trkpt>
<trkpt lat="27.441201" lon="99.918286">
<time>2016-10-07T08:38:00Z</time></trkpt>
<trkpt lat="27.441391" lon="99.918176">
<time>2016-10-07T08:38:01Z</time></trkpt>
<trkpt lat="27.441561" lon="99.918057">
<time>2016-10-07T08:38:02Z</time></trkpt>
<trkpt lat="27.441731" lon="99.917937">
<time>2016-10-07T08:38:03Z</time></trkpt>
<trkpt lat="27.441921" lon="99.917807">
<time>2016-10-07T08:38:04Z</time></trkpt>
<trkpt lat="27.442111" lon="99.917707">
<time>2016-10-07T08:38:05Z</time></trkpt>
<trkpt lat="27.442261" lon="99.917607">
<time>2016-10-07T08:38:06Z</time></trkpt>
<trkpt lat="27.442442" lon="99.917487">
<time>2016-10-07T08:38:07Z</time></trkpt>
<trkpt lat="27.442602" lon="99.917387">
<time>2016-10-07T08:38:08Z</time></trkpt>
<trkpt lat="27.442732" lon="99.917297">
<time>2016-10-07T08:38:09Z</time></trkpt>
<trkpt lat="27.442892" lon="99.917187">
<time>2016-10-07T08:38:10Z</time></trkpt>
<trkpt lat="27.442982" lon="99.917137">
<time>2016-10-07T08:38:11Z</time></trkpt>
<trkpt lat="27.443122" lon="99.917037">
<time>2016-10-07T08:38:12Z</time></trkpt>
<trkpt lat="27.443302" lon="99.916927">
<time>2016-10-07T08:38:13Z</time></trkpt>
<trkpt lat="27.443452" lon="99.916817">
<time>2016-10-07T08:38:14Z</time></trkpt>
<trkpt lat="27.443542" lon="99.916758">
<time>2016-10-07T08:38:15Z</time></trkpt>
<trkpt lat="27.443652" lon="99.916628">
<time>2016-10-07T08:38:16Z</time></trkpt>
<trkpt lat="27.443722" lon="99.916528">
<time>2016-10-07T08:38:17Z</time></trkpt>
<trkpt lat="27.443822" lon="99.916388">
<time>2016-10-07T08:38:18Z</time></trkpt>
<trkpt lat="27.443882" lon="99.916228">
<time>2016-10-07T08:38:19Z</time></trkpt>
<trkpt lat="27.443932" lon="99.916048">
<time>2016-10-07T08:38:20Z</time></trkpt>
<trkpt lat="27.444013" lon="99.915818">
<time>2016-10-07T08:38:21Z</time></trkpt>
<trkpt lat="27.444063" lon="99.915578">
<time>2016-10-07T08:38:22Z</time></trkpt>
<trkpt lat="27.444163" lon="99.915349">
<time>2016-10-07T08:38:23Z</time></trkpt>
<trkpt lat="27.444293" lon="99.915189">
<time>2016-10-07T08:38:24Z</time></trkpt>
<trkpt lat="27.444433" lon="99.915089">
<time>2016-10-07T08:38:25Z</time></trkpt>
<trkpt lat="27.444613" lon="99.915039">
<time>2016-10-07T08:38:26Z</time></trkpt>
<trkpt lat="27.444823" lon="99.915009">
<time>2016-10-07T08:38:27Z</time></trkpt>
<trkpt lat="27.445063" lon="99.914929">
<time>2016-10-07T08:38:28Z</time></trkpt>
<trkpt lat="27.445263" lon="99.914769">
<time>2016-10-07T08:38:29Z</time></trkpt>
<trkpt lat="27.445463" lon="99.914619">
<time>2016-10-07T08:38:30Z</time></trkpt>
<trkpt lat="27.445603" lon="99.914429">
<time>2016-10-07T08:38:31Z</time></trkpt>
<trkpt lat="27.445743" lon="99.914329">
<time>2016-10-07T08:38:32Z</time></trkpt>
<trkpt lat="27.445913" lon="99.914319">
<time>2016-10-07T08:38:33Z</time></trkpt>
<trkpt lat="27.446083" lon="99.914319">
<time>2016-10-07T08:38:34Z</time></trkpt>
<trkpt lat="27.446303" lon="99.914339">
<time>2016-10-07T08:38:35Z</time></trkpt>
<trkpt lat="27.446473" lon="99.914359">
<time>2016-10-07T08:38:36Z</time></trkpt>
<trkpt lat="27.446673" lon="99.914379">
<time>2016-10-07T08:38:37Z</time></trkpt>
<trkpt lat="27.446843" lon="99.914339">
<time>2016-10-07T08:38:38Z</time></trkpt>
<trkpt lat="27.447033" lon="99.914299">
<time>2016-10-07T08:38:39Z</time></trkpt>
<trkpt lat="27.447243" lon="99.914269">
<time>2016-10-07T08:38:40Z</time></trkpt>
<trkpt lat="27.447483" lon="99.914219">
<time>2016-10-07T08:38:41Z</time></trkpt>
<trkpt lat="27.447793" lon="99.914139">
<time>2016-10-07T08:38:42Z</time></trkpt>
<trkpt lat="27.448083" lon="99.914089">
<time>2016-10-07T08:38:43Z</time></trkpt>
<trkpt lat="27.448273" lon="99.914039">
<time>2016-10-07T08:38:44Z</time></trkpt>
<trkpt lat="27.448423" lon="99.914009">
<time>2016-10-07T08:38:45Z</time></trkpt>
<trkpt lat="27.448623" lon="99.913869">
<time>2016-10-07T08:38:46Z</time></trkpt>
<trkpt lat="27.448743" lon="99.91375">
<time>2016-10-07T08:38:47Z</time></trkpt>
<trkpt lat="27.448843" lon="99.91367">
<time>2016-10-07T08:38:48Z</time></trkpt>
<trkpt lat="27.448993" lon="99.91363">
<time>2016-10-07T08:38:49Z</time></trkpt>
<trkpt lat="27.449143" lon="99.9136">
<time>2016-10-07T08:38:50Z</time></trkpt>
<trkpt lat="27.449273" lon="99.91359">
<time>2016-10-07T08:38:51Z</time></trkpt>
<trkpt lat="27.449443" lon="99.91355">
<time>2016-10-07T08:38:52Z</time></trkpt>
<trkpt lat="27.449573" lon="99.91355">
<time>2016-10-07T08:38:53Z</time></trkpt>
<trkpt lat="27.449733" lon="99.91355">
<time>2016-10-07T08:38:54Z</time></trkpt>
<trkpt lat="27.449923" lon="99.91354">
<time>2016-10-07T08:38:55Z</time></trkpt>
<trkpt lat="27.450073" lon="99.91359">
<time>2016-10-07T08:38:56Z</time></trkpt>
<trkpt lat="27.450233" lon="99.91367">
<time>2016-10-07T08:38:57Z</time></trkpt>
<trkpt lat="27.450363" lon="99.913779">
<time>2016-10-07T08:38:58Z</time></trkpt>
<trkpt lat="27.450443" lon="99.913959">
<time>2016-10-07T08:38:59Z</time></trkpt>
<trkpt lat="27.450503" lon="99.914149">
<time>2016-10-07T08:39:00Z</time></trkpt>
<trkpt lat="27.450603" lon="99.914329">
<time>2016-10-07T08:39:01Z</time></trkpt>
<trkpt lat="27.450743" lon="99.914489">
<time>2016-10-07T08:39:02Z</time></trkpt>
<trkpt lat="27.450903" lon="99.914619">
<time>2016-10-07T08:39:03Z</time></trkpt>
<trkpt lat="27.451083" lon="99.914689">
<time>2016-10-07T08:39:04Z</time></trkpt>
<trkpt lat="27.451313" lon="99.914759">
<time>2016-10-07T08:39:05Z</time></trkpt>
<trkpt lat="27.451513" lon="99.914829">
<time>2016-10-07T08:39:06Z</time></trkpt>
<trkpt lat="27.451722" lon="99.914879">
<time>2016-10-07T08:39:07Z</time></trkpt>
<trkpt lat="27.451942" lon="99.914929">
<time>2016-10-07T08:39:08Z</time></trkpt>
<trkpt lat="27.452162" lon="99.914969">
<time>2016-10-07T08:39:09Z</time></trkpt>
<trkpt lat="27.452362" lon="99.915009">
<time>2016-10-07T08:39:10Z</time></trkpt>
<trkpt lat="27.452572" lon="99.915089">
<time>2016-10-07T08:39:11Z</time></trkpt>
<trkpt lat="27.452742" lon="99.915228">
<time>2016-10-07T08:39:12Z</time></trkpt>
<trkpt lat="27.452852" lon="99.915378">
<time>2016-10-07T08:39:13Z</time></trkpt>
<trkpt lat="27.452952" lon="99.915548">
<time>2016-10-07T08:39:14Z</time></trkpt>
<trkpt lat="27.453062" lon="99.915698">
<time>2016-10-07T08:39:15Z</time></trkpt>
<trkpt lat="27.453152" lon="99.915808">
<time>2016-10-07T08:39:16Z</time></trkpt>
<trkpt lat="27.453262" lon="99.915908">
<time>2016-10-07T08:39:17Z</time></trkpt>
<trkpt lat="27.453382" lon="99.915988">
<time>2016-10-07T08:39:18Z</time></trkpt>
<trkpt lat="27.453552" lon="99.916038">
<time>2016-10-07T08:39:19Z</time></trkpt>
<trkpt lat="27.453702" lon="99.916068">
<time>2016-10-07T08:39:20Z</time></trkpt>
<trkpt lat="27.453851" lon="99.916138">
<time>2016-10-07T08:39:21Z</time></trkpt>
<trkpt lat="27.453941" lon="99.916168">
<time>2016-10-07T08:39:22Z</time></trkpt>
<trkpt lat="27.454041" lon="99.916198">
<time>2016-10-07T08:39:23Z</time></trkpt>
<trkpt lat="27.454161" lon="99.916208">
<time>2016-10-07T08:39:24Z</time></trkpt>
<trkpt lat="27.454271" lon="99.916228">
<time>2016-10-07T08:39:25Z</time></trkpt>
<trkpt lat="27.454391" lon="99.916268">
<time>2016-10-07T08:39:26Z</time></trkpt>
<trkpt lat="27.454501" lon="99.916308">
<time>2016-10-07T08:39:27Z</time></trkpt>
<trkpt lat="27.454631" lon="99.916398">
<time>2016-10-07T08:39:28Z</time></trkpt>
<trkpt lat="27.454741" lon="99.916497">
<time>2016-10-07T08:39:29Z</time></trkpt>
<trkpt lat="27.454861" lon="99.916617">
<time>2016-10-07T08:39:30Z</time></trkpt>
<trkpt lat="27.454991" lon="99.916747">
<time>2016-10-07T08:39:31Z</time></trkpt>
<trkpt lat="27.455131" lon="99.916887">
<time>2016-10-07T08:39:32Z</time></trkpt>
<trkpt lat="27.455301" lon="99.917007">
<time>2016-10-07T08:39:33Z</time></trkpt>
<trkpt lat="27.455491" lon="99.917117">
<time>2016-10-07T08:39:34Z</time></trkpt>
<trkpt lat="27.455701" lon="99.917227">
<time>2016-10-07T08:39:35Z</time></trkpt>
<trkpt lat="27.45592" lon="99.917337">
<time>2016-10-07T08:39:36Z</time></trkpt>
<trkpt lat="27.45616" lon="99.917457">
<time>2016-10-07T08:39:37Z</time></trkpt>
<trkpt lat="27.45638" lon="99.917577">
<time>2016-10-07T08:39:38Z</time></trkpt>
<trkpt lat="27.45659" lon="99.917716">
<time>2016-10-07T08:39:39Z</time></trkpt>
<trkpt lat="27.45676" lon="99.917876">
<time>2016-10-07T08:39:40Z</time></trkpt>
<trkpt lat="27.45693" lon="99.918036">
<time>2016-10-07T08:39:41Z</time></trkpt>
<trkpt lat="27.45712" lon="99.918136">
<time>2016-10-07T08:39:42Z</time></trkpt>
<trkpt lat="27.45735" lon="99.918196">
<time>2016-10-07T08:39:43Z</time></trkpt>
<trkpt lat="27.45758" lon="99.918166">
<time>2016-10-07T08:39:44Z</time></trkpt>
<trkpt lat="27.45775" lon="99.918106">
<time>2016-10-07T08:39:45Z</time></trkpt>
<trkpt lat="27.45794" lon="99.918036">
<time>2016-10-07T08:39:46Z</time></trkpt>
<trkpt lat="27.45813" lon="99.917986">
<time>2016-10-07T08:39:47Z</time></trkpt>
<trkpt lat="27.4583" lon="99.917926">
<time>2016-10-07T08:39:48Z</time></trkpt>
<trkpt lat="27.45849" lon="99.917846">
<time>2016-10-07T08:39:49Z</time></trkpt>
<trkpt lat="27.45866" lon="99.917776">
<time>2016-10-07T08:39:50Z</time></trkpt>
<trkpt lat="27.45879" lon="99.917696">
<time>2016-10-07T08:39:51Z</time></trkpt>
<trkpt lat="27.45887" lon="99.917616">
<time>2016-10-07T08:39:52Z</time></trkpt>
<trkpt lat="27.45897" lon="99.917497">
<time>2016-10-07T08:39:53Z</time></trkpt>
<trkpt lat="27.45905" lon="99.917347">
<time>2016-10-07T08:39:54Z</time></trkpt>
<trkpt lat="27.45915" lon="99.917197">
<time>2016-10-07T08:39:55Z</time></trkpt>
<trkpt lat="27.45921" lon="99.917087">
<time>2016-10-07T08:39:56Z</time></trkpt>
<trkpt lat="27.45928" lon="99.916957">
<time>2016-10-07T08:39:57Z</time></trkpt>
<trkpt lat="27.459391" lon="99.916817">
<time>2016-10-07T08:39:58Z</time></trkpt>
<trkpt lat="27.459531" lon="99.916717">
<time>2016-10-07T08:39:59Z</time></trkpt>
<trkpt lat="27.459701" lon="99.916677">
<time>2016-10-07T08:40:00Z</time></trkpt>
<trkpt lat="27.459891" lon="99.916667">
<time>2016-10-07T08:40:01Z</time></trkpt>
<trkpt lat="27.460091" lon="99.916667">
<time>2016-10-07T08:40:02Z</time></trkpt>
<trkpt lat="27.460371" lon="99.916647">
<time>2016-10-07T08:40:03Z</time></trkpt>
<trkpt lat="27.460631" lon="99.916637">
<time>2016-10-07T08:40:04Z</time></trkpt>
<trkpt lat="27.460861" lon="99.916557">
<time>2016-10-07T08:40:05Z</time></trkpt>
<trkpt lat="27.461051" lon="99.916457">
<time>2016-10-07T08:40:06Z</time></trkpt>
<trkpt lat="27.461241" lon="99.916277">
<time>2016-10-07T08:40:07Z</time></trkpt>
<trkpt lat="27.461411" lon="99.916098">
<time>2016-10-07T08:40:08Z</time></trkpt>
<trkpt lat="27.461581" lon="99.915878">
<time>2016-10-07T08:40:09Z</time></trkpt>
<trkpt lat="27.461751" lon="99.915668">
<time>2016-10-07T08:40:10Z</time></trkpt>
<trkpt lat="27.461931" lon="99.915438">
<time>2016-10-07T08:40:11Z</time></trkpt>
<trkpt lat="27.462051" lon="99.915298">
<time>2016-10-07T08:40:12Z</time></trkpt>
<trkpt lat="27.462161" lon="99.915178">
<time>2016-10-07T08:40:13Z</time></trkpt>
<trkpt lat="27.462282" lon="99.915058">
<time>2016-10-07T08:40:14Z</time></trkpt>
<trkpt lat="27.462462" lon="99.914978">
<time>2016-10-07T08:40:15Z</time></trkpt>
<trkpt lat="27.462652" lon="99.914928">
<time>2016-10-07T08:40:16Z</time></trkpt>
<trkpt lat="27.462802" lon="99.914779">
<time>2016-10-07T08:40:17Z</time></trkpt>
<trkpt lat="27.462932" lon="99.914569">
<time>2016-10-07T08:40:18Z</time></trkpt>
<trkpt lat="27.463002" lon="99.914389">
<time>2016-10-07T08:40:19Z</time></trkpt>
<trkpt lat="27.463032" lon="99.914199">
<time>2016-10-07T08:40:20Z</time></trkpt>
<trkpt lat="27.463102" lon="99.913979">
<time>2016-10-07T08:40:21Z</time></trkpt>
<trkpt lat="27.463222" lon="99.913839">
<time>2016-10-07T08:40:22Z</time></trkpt>
<trkpt lat="27.463342" lon="99.913699">
<time>2016-10-07T08:40:23Z</time></trkpt>
<trkpt lat="27.463472" lon="99.913579">
<time>2016-10-07T08:40:24Z</time></trkpt>
<trkpt lat="27.463592" lon="99.913479">
<time>2016-10-07T08:40:25Z</time></trkpt>
<trkpt lat="27.463672" lon="99.913439">
<time>2016-10-07T08:40:26Z</time></trkpt>
<trkpt lat="27.463752" lon="99.913349">
<time>2016-10-07T08:40:27Z</time></trkpt>
<trkpt lat="27.463822" lon="99.913259">
<time>2016-10-07T08:40:28Z</time></trkpt>
<trkpt lat="27.463883" lon="99.91314">
<time>2016-10-07T08:40:29Z</time></trkpt>
<trkpt lat="27.463973" lon="99.91301">
<time>2016-10-07T08:40:30Z</time></trkpt>
<trkpt lat="27.464063" lon="99.91285">
<time>2016-10-07T08:40:31Z</time></trkpt>
<trkpt lat="27.464163" lon="99.91267">
<time>2016-10-07T08:40:32Z</time></trkpt>
<trkpt lat="27.464273" lon="99.91246">
<time>2016-10-07T08:40:33Z</time></trkpt>
<trkpt lat="27.464373" lon="99.91227">
<time>2016-10-07T08:40:34Z</time></trkpt>
<trkpt lat="27.464473" lon="99.9121">
<time>2016-10-07T08:40:35Z</time></trkpt>
<trkpt lat="27.464553" lon="99.91189">
<time>2016-10-07T08:40:36Z</time></trkpt>
<trkpt lat="27.464713" lon="99.91169">
<time>2016-10-07T08:40:37Z</time></trkpt>
<trkpt lat="27.464833" lon="99.91159">
<time>2016-10-07T08:40:38Z</time></trkpt>
<trkpt lat="27.464943" lon="99.91149">
<time>2016-10-07T08:40:39Z</time></trkpt>
<trkpt lat="27.465073" lon="99.91142">
<time>2016-10-07T08:40:40Z</time></trkpt>
<trkpt lat="27.465173" lon="99.911271">
<time>2016-10-07T08:40:41Z</time></trkpt>
<trkpt lat="27.465183" lon="99.911071">
<time>2016-10-07T08:40:42Z</time></trkpt>
<trkpt lat="27.465084" lon="99.910831">
<time>2016-10-07T08:40:43Z</time></trkpt>
<trkpt lat="27.464974" lon="99.910641">
<time>2016-10-07T08:40:44Z</time></trkpt>
<trkpt lat="27.464944" lon="99.910401">
<time>2016-10-07T08:40:45Z</time></trkpt>
<trkpt lat="27.464994" lon="99.910201">
<time>2016-10-07T08:40:46Z</time></trkpt>
<trkpt lat="27.465034" lon="99.910051">
<time>2016-10-07T08:40:47Z</time></trkpt>
<trkpt lat="27.465044" lon="99.909931">
<time>2016-10-07T08:40:48Z</time></trkpt>
<trkpt lat="27.465014" lon="99.909771">
<time>2016-10-07T08:40:49Z</time></trkpt>
<trkpt lat="27.464984" lon="99.909641">
<time>2016-10-07T08:40:50Z</time></trkpt>
<trkpt lat="27.464964" lon="99.909491">
<time>2016-10-07T08:40:51Z</time></trkpt>
<trkpt lat="27.464954" lon="99.909301">
<time>2016-10-07T08:40:52Z</time></trkpt>
<trkpt lat="27.464974" lon="99.909151">
<time>2016-10-07T08:40:53Z</time></trkpt>
<trkpt lat="27.465054" lon="99.909022">
<time>2016-10-07T08:40:54Z</time></trkpt>
<trkpt lat="27.465184" lon="99.908852">
<time>2016-10-07T08:40:55Z</time></trkpt>
<trkpt lat="27.465264" lon="99.908652">
<time>2016-10-07T08:40:56Z</time></trkpt>
<trkpt lat="27.465295" lon="99.908432">
<time>2016-10-07T08:40:57Z</time></trkpt>
<trkpt lat="27.465295" lon="99.908212">
<time>2016-10-07T08:40:58Z</time></trkpt>
<trkpt lat="27.465275" lon="99.907982">
<time>2016-10-07T08:40:59Z</time></trkpt>
<trkpt lat="27.465235" lon="99.907722">
<time>2016-10-07T08:41:00Z</time></trkpt>
<trkpt lat="27.465165" lon="99.907462">
<time>2016-10-07T08:41:01Z</time></trkpt>
<trkpt lat="27.465085" lon="99.907222">
<time>2016-10-07T08:41:02Z</time></trkpt>
<trkpt lat="27.465005" lon="99.906982">
<time>2016-10-07T08:41:03Z</time></trkpt>
<trkpt lat="27.464935" lon="99.906732">
<time>2016-10-07T08:41:04Z</time></trkpt>
<trkpt lat="27.464865" lon="99.906472">
<time>2016-10-07T08:41:05Z</time></trkpt>
<trkpt lat="27.464785" lon="99.906252">
<time>2016-10-07T08:41:06Z</time></trkpt>
<trkpt lat="27.464735" lon="99.906042">
<time>2016-10-07T08:41:07Z</time></trkpt>
<trkpt lat="27.464655" lon="99.905813">
<time>2016-10-07T08:41:08Z</time></trkpt>
<trkpt lat="27.464595" lon="99.905583">
<time>2016-10-07T08:41:09Z</time></trkpt>
<trkpt lat="27.464515" lon="99.905433">
<time>2016-10-07T08:41:10Z</time></trkpt>
<trkpt lat="27.464445" lon="99.905303">
<time>2016-10-07T08:41:11Z</time></trkpt>
<trkpt lat="27.464385" lon="99.905143">
<time>2016-10-07T08:41:12Z</time></trkpt>
<trkpt lat="27.464305" lon="99.905013">
<time>2016-10-07T08:41:13Z</time></trkpt>
<trkpt lat="27.464175" lon="99.904923">
<time>2016-10-07T08:41:14Z</time></trkpt>
<trkpt lat="27.464026" lon="99.904823">
<time>2016-10-07T08:41:15Z</time></trkpt>
<trkpt lat="27.463876" lon="99.904733">
<time>2016-10-07T08:41:16Z</time></trkpt>
<trkpt lat="27.463736" lon="99.904663">
<time>2016-10-07T08:41:17Z</time></trkpt>
<trkpt lat="27.463586" lon="99.904593">
<time>2016-10-07T08:41:18Z</time></trkpt>
<trkpt lat="27.463426" lon="99.904523">
<time>2016-10-07T08:41:19Z</time></trkpt>
<trkpt lat="27.463286" lon="99.904463">
<time>2016-10-07T08:41:20Z</time></trkpt>
<trkpt lat="27.463126" lon="99.904383">
<time>2016-10-07T08:41:21Z</time></trkpt>
<trkpt lat="27.462966" lon="99.904313">
<time>2016-10-07T08:41:22Z</time></trkpt>
<trkpt lat="27.462836" lon="99.904233">
<time>2016-10-07T08:41:23Z</time></trkpt>
<trkpt lat="27.462716" lon="99.904173">
<time>2016-10-07T08:41:24Z</time></trkpt>
<trkpt lat="27.462546" lon="99.904083">
<time>2016-10-07T08:41:25Z</time></trkpt>
<trkpt lat="27.462386" lon="99.903993">
<time>2016-10-07T08:41:26Z</time></trkpt>
<trkpt lat="27.462226" lon="99.903903">
<time>2016-10-07T08:41:27Z</time></trkpt>
<trkpt lat="27.462036" lon="99.903793">
<time>2016-10-07T08:41:28Z</time></trkpt>
<trkpt lat="27.461896" lon="99.903703">
<time>2016-10-07T08:41:29Z</time></trkpt>
<trkpt lat="27.461796" lon="99.903643">
<time>2016-10-07T08:41:30Z</time></trkpt>
<trkpt lat="27.461696" lon="99.903593">
<time>2016-10-07T08:41:31Z</time></trkpt>
<trkpt lat="27.461526" lon="99.903523">
<time>2016-10-07T08:41:32Z</time></trkpt>
<trkpt lat="27.461456" lon="99.903403">
<time>2016-10-07T08:41:33Z</time></trkpt>
<trkpt lat="27.461476" lon="99.903243">
<time>2016-10-07T08:41:34Z</time></trkpt>
<trkpt lat="27.461596" lon="99.903203">
<time>2016-10-07T08:41:35Z</time></trkpt>
<trkpt lat="27.461756" lon="99.903123">
<time>2016-10-07T08:41:36Z</time></trkpt>
<trkpt lat="27.461936" lon="99.903053">
<time>2016-10-07T08:41:37Z</time></trkpt>
<trkpt lat="27.462136" lon="99.902993">
<time>2016-10-07T08:41:38Z</time></trkpt>
<trkpt lat="27.462316" lon="99.902943">
<time>2016-10-07T08:41:39Z</time></trkpt>
<trkpt lat="27.462466" lon="99.902913">
<time>2016-10-07T08:41:40Z</time></trkpt>
<trkpt lat="27.462566" lon="99.902843">
<time>2016-10-07T08:41:41Z</time></trkpt>
<trkpt lat="27.462576" lon="99.902633">
<time>2016-10-07T08:41:42Z</time></trkpt>
<trkpt lat="27.462496" lon="99.902463">
<time>2016-10-07T08:41:43Z</time></trkpt>
<trkpt lat="27.462326" lon="99.902383">
<time>2016-10-07T08:41:44Z</time></trkpt>
<trkpt lat="27.462166" lon="99.902283">
<time>2016-10-07T08:41:45Z</time></trkpt>
<trkpt lat="27.461986" lon="99.902153">
<time>2016-10-07T08:41:46Z</time></trkpt>
<trkpt lat="27.461836" lon="99.902053">
<time>2016-10-07T08:41:47Z</time></trkpt>
<trkpt lat="27.461686" lon="99.901913">
<time>2016-10-07T08:41:48Z</time></trkpt>
<trkpt lat="27.461526" lon="99.901763">
<time>2016-10-07T08:41:49Z</time></trkpt>
<trkpt lat="27.461406" lon="99.901573">
<time>2016-10-07T08:41:50Z</time></trkpt>
<trkpt lat="27.461296" lon="99.901433">
<time>2016-10-07T08:41:51Z</time></trkpt>
<trkpt lat="27.461176" lon="99.901233">
<time>2016-10-07T08:41:52Z</time></trkpt>
<trkpt lat="27.461066" lon="99.901063">
<time>2016-10-07T08:41:53Z</time></trkpt>
<trkpt lat="27.460996" lon="99.900863">
<time>2016-10-07T08:41:54Z</time></trkpt>
<trkpt lat="27.461026" lon="99.900703">
<time>2016-10-07T08:41:55Z</time></trkpt>
<trkpt lat="27.461156" lon="99.900573">
<time>2016-10-07T08:41:56Z</time></trkpt>
<trkpt lat="27.461396" lon="99.900483">
<time>2016-10-07T08:41:57Z</time></trkpt>
<trkpt lat="27.461556" lon="99.900443">
<time>2016-10-07T08:41:58Z</time></trkpt>
<trkpt lat="27.461706" lon="99.900423">
<time>2016-10-07T08:41:59Z</time></trkpt>
<trkpt lat="27.461876" lon="99.900423">
<time>2016-10-07T08:42:00Z</time></trkpt>
<trkpt lat="27.462056" lon="99.900393">
<time>2016-10-07T08:42:01Z</time></trkpt>
<trkpt lat="27.462236" lon="99.900373">
<time>2016-10-07T08:42:02Z</time></trkpt>
<trkpt lat="27.462406" lon="99.900343">
<time>2016-10-07T08:42:03Z</time></trkpt>
<trkpt lat="27.462566" lon="99.900283">
<time>2016-10-07T08:42:04Z</time></trkpt>
<trkpt lat="27.462646" lon="99.900123">
<time>2016-10-07T08:42:05Z</time></trkpt>
<trkpt lat="27.462656" lon="99.899953">
<time>2016-10-07T08:42:06Z</time></trkpt>
<trkpt lat="27.462576" lon="99.899693">
<time>2016-10-07T08:42:07Z</time></trkpt>
<trkpt lat="27.462486" lon="99.899453">
<time>2016-10-07T08:42:08Z</time></trkpt>
<trkpt lat="27.462426" lon="99.899273">
<time>2016-10-07T08:42:09Z</time></trkpt>
<trkpt lat="27.462356" lon="99.899123">
<time>2016-10-07T08:42:10Z</time></trkpt>
<trkpt lat="27.462286" lon="99.898963">
<time>2016-10-07T08:42:11Z</time></trkpt>
<trkpt lat="27.462226" lon="99.898873">
<time>2016-10-07T08:42:12Z</time></trkpt>
<trkpt lat="27.462146" lon="99.898743">
<time>2016-10-07T08:42:13Z</time></trkpt>
<trkpt lat="27.462056" lon="99.898583">
<time>2016-10-07T08:42:14Z</time></trkpt>
<trkpt lat="27.461976" lon="99.898433">
<time>2016-10-07T08:42:15Z</time></trkpt>
<trkpt lat="27.462006" lon="99.898243">
<time>2016-10-07T08:42:16Z</time></trkpt>
<trkpt lat="27.462116" lon="99.898093">
<time>2016-10-07T08:42:17Z</time></trkpt>
<trkpt lat="27.462276" lon="99.898003">
<time>2016-10-07T08:42:18Z</time></trkpt>
<trkpt lat="27.462436" lon="99.897943">
<time>2016-10-07T08:42:19Z</time></trkpt>
<trkpt lat="27.462556" lon="99.897843">
<time>2016-10-07T08:42:20Z</time></trkpt>
<trkpt lat="27.462616" lon="99.897703">
<time>2016-10-07T08:42:21Z</time></trkpt>
<trkpt lat="27.462616" lon="99.897493">
<time>2016-10-07T08:42:22Z</time></trkpt>
<trkpt lat="27.462626" lon="99.897273">
<time>2016-10-07T08:42:23Z</time></trkpt>
<trkpt lat="27.462626" lon="99.897103">
<time>2016-10-07T08:42:24Z</time></trkpt>
<trkpt lat="27.462636" lon="99.896903">
<time>2016-10-07T08:42:25Z</time></trkpt>
<trkpt lat="27.462676" lon="99.896693">
<time>2016-10-07T08:42:26Z</time></trkpt>
<trkpt lat="27.462716" lon="99.896493">
<time>2016-10-07T08:42:27Z</time></trkpt>
<trkpt lat="27.462816" lon="99.896263">
<time>2016-10-07T08:42:28Z</time></trkpt>
<trkpt lat="27.462935" lon="99.896133">
<time>2016-10-07T08:42:29Z</time></trkpt>
<trkpt lat="27.463005" lon="99.895952">
<time>2016-10-07T08:42:30Z</time></trkpt>
<trkpt lat="27.462995" lon="99.895772">
<time>2016-10-07T08:42:31Z</time></trkpt>
<trkpt lat="27.462965" lon="99.895592">
<time>2016-10-07T08:42:32Z</time></trkpt>
<trkpt lat="27.462955" lon="99.895452">
<time>2016-10-07T08:42:33Z</time></trkpt>
<trkpt lat="27.463045" lon="99.895332">
<time>2016-10-07T08:42:34Z</time></trkpt>
<trkpt lat="27.463185" lon="99.895262">
<time>2016-10-07T08:42:35Z</time></trkpt>
<trkpt lat="27.463325" lon="99.895172">
<time>2016-10-07T08:42:36Z</time></trkpt>
<trkpt lat="27.463465" lon="99.895042">
<time>2016-10-07T08:42:37Z</time></trkpt>
<trkpt lat="27.463535" lon="99.894932">
<time>2016-10-07T08:42:38Z</time></trkpt>
<trkpt lat="27.463555" lon="99.894752">
<time>2016-10-07T08:42:39Z</time></trkpt>
<trkpt lat="27.463555" lon="99.894562">
<time>2016-10-07T08:42:40Z</time></trkpt>
<trkpt lat="27.463625" lon="99.894432">
<time>2016-10-07T08:42:41Z</time></trkpt>
<trkpt lat="27.463735" lon="99.894302">
<time>2016-10-07T08:42:42Z</time></trkpt>
<trkpt lat="27.463885" lon="99.894242">
<time>2016-10-07T08:42:43Z</time></trkpt>
<trkpt lat="27.464025" lon="99.894172">
<time>2016-10-07T08:42:44Z</time></trkpt>
<trkpt lat="27.464105" lon="99.894022">
<time>2016-10-07T08:42:45Z</time></trkpt>
<trkpt lat="27.464125" lon="99.893852">
<time>2016-10-07T08:42:46Z</time></trkpt>
<trkpt lat="27.464135" lon="99.893672">
<time>2016-10-07T08:42:47Z</time></trkpt>
<trkpt lat="27.464205" lon="99.893502">
<time>2016-10-07T08:42:48Z</time></trkpt>
<trkpt lat="27.464345" lon="99.893402">
<time>2016-10-07T08:42:49Z</time></trkpt>
<trkpt lat="27.464525" lon="99.893392">
<time>2016-10-07T08:42:50Z</time></trkpt>
<trkpt lat="27.464705" lon="99.893382">
<time>2016-10-07T08:42:51Z</time></trkpt>
<trkpt lat="27.464895" lon="99.893342">
<time>2016-10-07T08:42:52Z</time></trkpt>
<trkpt lat="27.465015" lon="99.893212">
<time>2016-10-07T08:42:53Z</time></trkpt>
<trkpt lat="27.465054" lon="99.893041">
<time>2016-10-07T08:42:54Z</time></trkpt>
<trkpt lat="27.465044" lon="99.892861">
<time>2016-10-07T08:42:55Z</time></trkpt>
<trkpt lat="27.465104" lon="99.892691">
<time>2016-10-07T08:42:56Z</time></trkpt>
<trkpt lat="27.465234" lon="99.892571">
<time>2016-10-07T08:42:57Z</time></trkpt>
<trkpt lat="27.465394" lon="99.892491">
<time>2016-10-07T08:42:58Z</time></trkpt>
<trkpt lat="27.465544" lon="99.892391">
<time>2016-10-07T08:42:59Z</time></trkpt>
<trkpt lat="27.465694" lon="99.892291">
<time>2016-10-07T08:43:00Z</time></trkpt>
<trkpt lat="27.465824" lon="99.892181">
<time>2016-10-07T08:43:01Z</time></trkpt>
<trkpt lat="27.465954" lon="99.892051">
<time>2016-10-07T08:43:02Z</time></trkpt>
<trkpt lat="27.466014" lon="99.891861">
<time>2016-10-07T08:43:03Z</time></trkpt>
<trkpt lat="27.465964" lon="99.891661">
<time>2016-10-07T08:43:04Z</time></trkpt>
<trkpt lat="27.465884" lon="99.891471">
<time>2016-10-07T08:43:05Z</time></trkpt>
<trkpt lat="27.465844" lon="99.891281">
<time>2016-10-07T08:43:06Z</time></trkpt>
<trkpt lat="27.465904" lon="99.891101">
<time>2016-10-07T08:43:07Z</time></trkpt>
<trkpt lat="27.466004" lon="99.890931">
<time>2016-10-07T08:43:08Z</time></trkpt>
<trkpt lat="27.466104" lon="99.89077">
<time>2016-10-07T08:43:09Z</time></trkpt>
<trkpt lat="27.466193" lon="99.8906">
<time>2016-10-07T08:43:10Z</time></trkpt>
<trkpt lat="27.466273" lon="99.89043">
<time>2016-10-07T08:43:11Z</time></trkpt>
<trkpt lat="27.466373" lon="99.89027">
<time>2016-10-07T08:43:12Z</time></trkpt>
<trkpt lat="27.466533" lon="99.89019">
<time>2016-10-07T08:43:13Z</time></trkpt>
<trkpt lat="27.466693" lon="99.89018">
<time>2016-10-07T08:43:14Z</time></trkpt>
<trkpt lat="27.466873" lon="99.89023">
<time>2016-10-07T08:43:15Z</time></trkpt>
<trkpt lat="27.467023" lon="99.89033">
<time>2016-10-07T08:43:16Z</time></trkpt>
<trkpt lat="27.467153" lon="99.89045">
<time>2016-10-07T08:43:17Z</time></trkpt>
<trkpt lat="27.467323" lon="99.89057">
<time>2016-10-07T08:43:18Z</time></trkpt>
<trkpt lat="27.467493" lon="99.89061">
<time>2016-10-07T08:43:19Z</time></trkpt>
<trkpt lat="27.467623" lon="99.89054">
<time>2016-10-07T08:43:20Z</time></trkpt>
<trkpt lat="27.467703" lon="99.89039">
<time>2016-10-07T08:43:21Z</time></trkpt>
<trkpt lat="27.467723" lon="99.89017">
<time>2016-10-07T08:43:22Z</time></trkpt>
<trkpt lat="27.467723" lon="99.88997">
<time>2016-10-07T08:43:23Z</time></trkpt>
<trkpt lat="27.467743" lon="99.88977">
<time>2016-10-07T08:43:24Z</time></trkpt>
<trkpt lat="27.467753" lon="99.88958">
<time>2016-10-07T08:43:25Z</time></trkpt>
<trkpt lat="27.467773" lon="99.88933">
<time>2016-10-07T08:43:26Z</time></trkpt>
<trkpt lat="27.467823" lon="99.8891">
<time>2016-10-07T08:43:27Z</time></trkpt>
<trkpt lat="27.467843" lon="99.88906">
<time>2016-10-07T08:43:28Z</time></trkpt>
<trkpt lat="27.467902" lon="99.888859">
<time>2016-10-07T08:43:29Z</time></trkpt>
<trkpt lat="27.468012" lon="99.888659">
<time>2016-10-07T08:43:30Z</time></trkpt>
<trkpt lat="27.468142" lon="99.888459">
<time>2016-10-07T08:43:31Z</time></trkpt>
<trkpt lat="27.468262" lon="99.888259">
<time>2016-10-07T08:43:32Z</time></trkpt>
<trkpt lat="27.468362" lon="99.888069">
<time>2016-10-07T08:43:33Z</time></trkpt>
<trkpt lat="27.468462" lon="99.887899">
<time>2016-10-07T08:43:34Z</time></trkpt>
<trkpt lat="27.468592" lon="99.887719">
<time>2016-10-07T08:43:35Z</time></trkpt>
<trkpt lat="27.468772" lon="99.887559">
<time>2016-10-07T08:43:36Z</time></trkpt>
<trkpt lat="27.468952" lon="99.887489">
<time>2016-10-07T08:43:37Z</time></trkpt>
<trkpt lat="27.469142" lon="99.887469">
<time>2016-10-07T08:43:38Z</time></trkpt>
<trkpt lat="27.469322" lon="99.887439">
<time>2016-10-07T08:43:39Z</time></trkpt>
<trkpt lat="27.469452" lon="99.887388">
<time>2016-10-07T08:43:40Z</time></trkpt>
<trkpt lat="27.469642" lon="99.887318">
<time>2016-10-07T08:43:41Z</time></trkpt>
<trkpt lat="27.469841" lon="99.887238">
<time>2016-10-07T08:43:42Z</time></trkpt>
<trkpt lat="27.470031" lon="99.887138">
<time>2016-10-07T08:43:43Z</time></trkpt>
<trkpt lat="27.470051" lon="99.887118">
<time>2016-10-07T08:43:44Z</time></trkpt>
<trkpt lat="27.470211" lon="99.886988">
<time>2016-10-07T08:43:45Z</time></trkpt>
<trkpt lat="27.470351" lon="99.886758">
<time>2016-10-07T08:43:46Z</time></trkpt>
<trkpt lat="27.470551" lon="99.886598">
<time>2016-10-07T08:43:47Z</time></trkpt>
<trkpt lat="27.470761" lon="99.886578">
<time>2016-10-07T08:43:48Z</time></trkpt>
<trkpt lat="27.470991" lon="99.886468">
<time>2016-10-07T08:43:49Z</time></trkpt>
<trkpt lat="27.471221" lon="99.886368">
<time>2016-10-07T08:43:50Z</time></trkpt>
<trkpt lat="27.471451" lon="99.886278">
<time>2016-10-07T08:43:51Z</time></trkpt>
<trkpt lat="27.471681" lon="99.886218">
<time>2016-10-07T08:43:52Z</time></trkpt>
<trkpt lat="27.471911" lon="99.886218">
<time>2016-10-07T08:43:53Z</time></trkpt>
<trkpt lat="27.472141" lon="99.886218">
<time>2016-10-07T08:43:54Z</time></trkpt>
<trkpt lat="27.472371" lon="99.886138">
<time>2016-10-07T08:43:55Z</time></trkpt>
<trkpt lat="27.472601" lon="99.886017">
<time>2016-10-07T08:43:56Z</time></trkpt>
<trkpt lat="27.47285" lon="99.885917">
<time>2016-10-07T08:43:57Z</time></trkpt>
<trkpt lat="27.47311" lon="99.885847">
<time>2016-10-07T08:43:58Z</time></trkpt>
<trkpt lat="27.47337" lon="99.885777">
<time>2016-10-07T08:43:59Z</time></trkpt>
<trkpt lat="27.47362" lon="99.885667">
<time>2016-10-07T08:44:00Z</time></trkpt>
<trkpt lat="27.47381" lon="99.885467">
<time>2016-10-07T08:44:01Z</time></trkpt>
<trkpt lat="27.474" lon="99.885297">
<time>2016-10-07T08:44:02Z</time></trkpt>
<trkpt lat="27.47421" lon="99.885147">
<time>2016-10-07T08:44:03Z</time></trkpt>
<trkpt lat="27.47451" lon="99.885087">
<time>2016-10-07T08:44:04Z</time></trkpt>
<trkpt lat="27.47472" lon="99.885027">
<time>2016-10-07T08:44:05Z</time></trkpt>
<trkpt lat="27.47494" lon="99.884987">
<time>2016-10-07T08:44:06Z</time></trkpt>
<trkpt lat="27.47513" lon="99.884897">
<time>2016-10-07T08:44:07Z</time></trkpt>
<trkpt lat="27.47531" lon="99.884736">
<time>2016-10-07T08:44:08Z</time></trkpt>
<trkpt lat="27.475469" lon="99.884536">
<time>2016-10-07T08:44:09Z</time></trkpt>
<trkpt lat="27.475599" lon="99.884346">
<time>2016-10-07T08:44:10Z</time></trkpt>
<trkpt lat="27.475739" lon="99.884156">
<time>2016-10-07T08:44:11Z</time></trkpt>
<trkpt lat="27.475869" lon="99.883976">
<time>2016-10-07T08:44:12Z</time></trkpt>
<trkpt lat="27.476019" lon="99.883816">
<time>2016-10-07T08:44:13Z</time></trkpt>
<trkpt lat="27.476159" lon="99.883656">
<time>2016-10-07T08:44:14Z</time></trkpt>
<trkpt lat="27.476289" lon="99.883475">
<time>2016-10-07T08:44:15Z</time></trkpt>
<trkpt lat="27.476438" lon="99.883325">
<time>2016-10-07T08:44:16Z</time></trkpt>
<trkpt lat="27.476608" lon="99.883175">
<time>2016-10-07T08:44:17Z</time></trkpt>
<trkpt lat="27.476768" lon="99.883025">
<time>2016-10-07T08:44:18Z</time></trkpt>
<trkpt lat="27.476938" lon="99.882875">
<time>2016-10-07T08:44:19Z</time></trkpt>
<trkpt lat="27.477128" lon="99.882705">
<time>2016-10-07T08:44:20Z</time></trkpt>
<trkpt lat="27.477318" lon="99.882525">
<time>2016-10-07T08:44:21Z</time></trkpt>
<trkpt lat="27.477538" lon="99.882375">
<time>2016-10-07T08:44:22Z</time></trkpt>
<trkpt lat="27.477788" lon="99.882294">
<time>2016-10-07T08:44:23Z</time></trkpt>
<trkpt lat="27.478038" lon="99.882224">
<time>2016-10-07T08:44:24Z</time></trkpt>
<trkpt lat="27.478277" lon="99.882124">
<time>2016-10-07T08:44:25Z</time></trkpt>
<trkpt lat="27.478517" lon="99.882014">
<time>2016-10-07T08:44:26Z</time></trkpt>
<trkpt lat="27.478717" lon="99.881864">
<time>2016-10-07T08:44:27Z</time></trkpt>
<trkpt lat="27.478857" lon="99.881664">
<time>2016-10-07T08:44:28Z</time></trkpt>
<trkpt lat="27.479007" lon="99.881474">
<time>2016-10-07T08:44:29Z</time></trkpt>
<trkpt lat="27.479217" lon="99.881243">
<time>2016-10-07T08:44:30Z</time></trkpt>
<trkpt lat="27.479377" lon="99.881103">
<time>2016-10-07T08:44:31Z</time></trkpt>
<trkpt lat="27.479617" lon="99.881043">
<time>2016-10-07T08:44:32Z</time></trkpt>
<trkpt lat="27.479837" lon="99.881023">
<time>2016-10-07T08:44:33Z</time></trkpt>
<trkpt lat="27.480016" lon="99.881013">
<time>2016-10-07T08:44:34Z</time></trkpt>
<trkpt lat="27.480277" lon="99.881043">
<time>2016-10-07T08:44:35Z</time></trkpt>
<trkpt lat="27.480516" lon="99.881013">
<time>2016-10-07T08:44:36Z</time></trkpt>
<trkpt lat="27.480776" lon="99.880953">
<time>2016-10-07T08:44:37Z</time></trkpt>
<trkpt lat="27.481036" lon="99.880893">
<time>2016-10-07T08:44:38Z</time></trkpt>
<trkpt lat="27.481286" lon="99.880773">
<time>2016-10-07T08:44:39Z</time></trkpt>
<trkpt lat="27.481526" lon="99.880643">
<time>2016-10-07T08:44:40Z</time></trkpt>
<trkpt lat="27.481776" lon="99.880533">
<time>2016-10-07T08:44:41Z</time></trkpt>
<trkpt lat="27.482026" lon="99.880463">
<time>2016-10-07T08:44:42Z</time></trkpt>
<trkpt lat="27.482266" lon="99.880343">
<time>2016-10-07T08:44:43Z</time></trkpt>
<trkpt lat="27.482446" lon="99.880172">
<time>2016-10-07T08:44:44Z</time></trkpt>
<trkpt lat="27.482586" lon="99.880002">
<time>2016-10-07T08:44:45Z</time></trkpt>
<trkpt lat="27.482775" lon="99.879882">
<time>2016-10-07T08:44:46Z</time></trkpt>
<trkpt lat="27.482985" lon="99.879812">
<time>2016-10-07T08:44:47Z</time></trkpt>
<trkpt lat="27.483205" lon="99.879752">
<time>2016-10-07T08:44:48Z</time></trkpt>
<trkpt lat="27.483435" lon="99.879692">
<time>2016-10-07T08:44:49Z</time></trkpt>
<trkpt lat="27.483625" lon="99.879652">
<time>2016-10-07T08:44:50Z</time></trkpt>
<trkpt lat="27.483775" lon="99.879582">
<time>2016-10-07T08:44:51Z</time></trkpt>
<trkpt lat="27.483885" lon="99.879462">
<time>2016-10-07T08:44:52Z</time></trkpt>
<trkpt lat="27.483925" lon="99.879272">
<time>2016-10-07T08:44:53Z</time></trkpt>
<trkpt lat="27.483905" lon="99.879051">
<time>2016-10-07T08:44:54Z</time></trkpt>
<trkpt lat="27.483874" lon="99.878801">
<time>2016-10-07T08:44:55Z</time></trkpt>
<trkpt lat="27.483834" lon="99.878561">
<time>2016-10-07T08:44:56Z</time></trkpt>
<trkpt lat="27.483824" lon="99.878321">
<time>2016-10-07T08:44:57Z</time></trkpt>
<trkpt lat="27.483804" lon="99.87809">
<time>2016-10-07T08:44:58Z</time></trkpt>
<trkpt lat="27.483734" lon="99.87785">
<time>2016-10-07T08:44:59Z</time></trkpt>
<trkpt lat="27.483643" lon="99.87764">
<time>2016-10-07T08:45:00Z</time></trkpt>
<trkpt lat="27.483593" lon="99.87745">
<time>2016-10-07T08:45:01Z</time></trkpt>
<trkpt lat="27.483593" lon="99.877239">
<time>2016-10-07T08:45:02Z</time></trkpt>
<trkpt lat="27.483653" lon="99.877019">
<time>2016-10-07T08:45:03Z</time></trkpt>
<trkpt lat="27.483763" lon="99.876789">
<time>2016-10-07T08:45:04Z</time></trkpt>
<trkpt lat="27.483872" lon="99.876549">
<time>2016-10-07T08:45:05Z</time></trkpt>
<trkpt lat="27.483992" lon="99.876298">
<time>2016-10-07T08:45:06Z</time></trkpt>
<trkpt lat="27.484102" lon="99.876018">
<time>2016-10-07T08:45:07Z</time></trkpt>
<trkpt lat="27.484201" lon="99.875748">
<time>2016-10-07T08:45:08Z</time></trkpt>
<trkpt lat="27.484281" lon="99.875447">
<time>2016-10-07T08:45:09Z</time></trkpt>
<trkpt lat="27.484361" lon="99.875137">
<time>2016-10-07T08:45:10Z</time></trkpt>
<trkpt lat="27.484421" lon="99.875027">
<time>2016-10-07T08:45:11Z</time></trkpt>
<trkpt lat="27.484481" lon="99.874887">
<time>2016-10-07T08:45:12Z</time></trkpt>
<trkpt lat="27.48462" lon="99.874596">
<time>2016-10-07T08:45:13Z</time></trkpt>
<trkpt lat="27.48477" lon="99.874316">
<time>2016-10-07T08:45:14Z</time></trkpt>
<trkpt lat="27.48493" lon="99.874046">
<time>2016-10-07T08:45:15Z</time></trkpt>
<trkpt lat="27.485069" lon="99.873776">
<time>2016-10-07T08:45:16Z</time></trkpt>
<trkpt lat="27.485239" lon="99.873515">
<time>2016-10-07T08:45:17Z</time></trkpt>
<trkpt lat="27.485389" lon="99.873255">
<time>2016-10-07T08:45:18Z</time></trkpt>
<trkpt lat="27.485519" lon="99.873005">
<time>2016-10-07T08:45:19Z</time></trkpt>
<trkpt lat="27.485618" lon="99.872734">
<time>2016-10-07T08:45:20Z</time></trkpt>
<trkpt lat="27.485708" lon="99.872484">
<time>2016-10-07T08:45:21Z</time></trkpt>
<trkpt lat="27.485788" lon="99.872194">
<time>2016-10-07T08:45:22Z</time></trkpt>
<trkpt lat="27.485837" lon="99.871923">
<time>2016-10-07T08:45:23Z</time></trkpt>
<trkpt lat="27.485847" lon="99.871653">
<time>2016-10-07T08:45:24Z</time></trkpt>
<trkpt lat="27.485827" lon="99.871423">
<time>2016-10-07T08:45:25Z</time></trkpt>
<trkpt lat="27.485846" lon="99.871202">
<time>2016-10-07T08:45:26Z</time></trkpt>
<trkpt lat="27.485936" lon="99.871002">
<time>2016-10-07T08:45:27Z</time></trkpt>
<trkpt lat="27.486126" lon="99.870902">
<time>2016-10-07T08:45:28Z</time></trkpt>
<trkpt lat="27.486366" lon="99.870882">
<time>2016-10-07T08:45:29Z</time></trkpt>
<trkpt lat="27.486586" lon="99.870812">
<time>2016-10-07T08:45:30Z</time></trkpt>
<trkpt lat="27.486796" lon="99.870682">
<time>2016-10-07T08:45:31Z</time></trkpt>
<trkpt lat="27.487006" lon="99.870511">
<time>2016-10-07T08:45:32Z</time></trkpt>
<trkpt lat="27.487225" lon="99.870331">
<time>2016-10-07T08:45:33Z</time></trkpt>
<trkpt lat="27.487445" lon="99.870131">
<time>2016-10-07T08:45:34Z</time></trkpt>
<trkpt lat="27.487665" lon="99.870001">
<time>2016-10-07T08:45:35Z</time></trkpt>
<trkpt lat="27.487915" lon="99.869911">
<time>2016-10-07T08:45:36Z</time></trkpt>
<trkpt lat="27.488165" lon="99.86979">
<time>2016-10-07T08:45:37Z</time></trkpt>
<trkpt lat="27.488455" lon="99.86966">
<time>2016-10-07T08:45:38Z</time></trkpt>
<trkpt lat="27.488684" lon="99.86956">
<time>2016-10-07T08:45:39Z</time></trkpt>
<trkpt lat="27.488934" lon="99.86941">
<time>2016-10-07T08:45:40Z</time></trkpt>
<trkpt lat="27.489094" lon="99.86932">
<time>2016-10-07T08:45:41Z</time></trkpt>
<trkpt lat="27.489284" lon="99.8692">
<time>2016-10-07T08:45:42Z</time></trkpt>
<trkpt lat="27.489494" lon="99.869089">
<time>2016-10-07T08:45:43Z</time></trkpt>
<trkpt lat="27.489704" lon="99.868959">
<time>2016-10-07T08:45:44Z</time></trkpt>
<trkpt lat="27.489943" lon="99.868779">
<time>2016-10-07T08:45:45Z</time></trkpt>
<trkpt lat="27.490043" lon="99.868669">
<time>2016-10-07T08:45:46Z</time></trkpt>
<trkpt lat="27.490123" lon="99.868599">
<time>2016-10-07T08:45:47Z</time></trkpt>
<trkpt lat="27.490293" lon="99.868368">
<time>2016-10-07T08:45:48Z</time></trkpt>
<trkpt lat="27.490523" lon="99.868118">
<time>2016-10-07T08:45:49Z</time></trkpt>
<trkpt lat="27.490642" lon="99.867998">
<time>2016-10-07T08:45:50Z</time></trkpt>
<trkpt lat="27.490712" lon="99.867918">
<time>2016-10-07T08:45:51Z</time></trkpt>
<trkpt lat="27.490942" lon="99.867707">
<time>2016-10-07T08:45:52Z</time></trkpt>
<trkpt lat="27.491082" lon="99.867537">
<time>2016-10-07T08:45:53Z</time></trkpt>
<trkpt lat="27.491291" lon="99.867317">
<time>2016-10-07T08:45:54Z</time></trkpt>
<trkpt lat="27.491641" lon="99.867047">
<time>2016-10-07T08:45:55Z</time></trkpt>
<trkpt lat="27.491841" lon="99.866866">
<time>2016-10-07T08:45:56Z</time></trkpt>
<trkpt lat="27.492091" lon="99.866676">
<time>2016-10-07T08:45:57Z</time></trkpt>
<trkpt lat="27.49236" lon="99.866456">
<time>2016-10-07T08:45:58Z</time></trkpt>
<trkpt lat="27.49262" lon="99.866255">
<time>2016-10-07T08:45:59Z</time></trkpt>
<trkpt lat="27.49285" lon="99.866075">
<time>2016-10-07T08:46:00Z</time></trkpt>
<trkpt lat="27.49313" lon="99.865885">
<time>2016-10-07T08:46:01Z</time></trkpt>
<trkpt lat="27.493429" lon="99.865705">
<time>2016-10-07T08:46:02Z</time></trkpt>
<trkpt lat="27.493709" lon="99.865554">
<time>2016-10-07T08:46:03Z</time></trkpt>
<trkpt lat="27.493949" lon="99.865384">
<time>2016-10-07T08:46:04Z</time></trkpt>
<trkpt lat="27.494189" lon="99.865194">
<time>2016-10-07T08:46:05Z</time></trkpt>
<trkpt lat="27.494448" lon="99.865014">
<time>2016-10-07T08:46:06Z</time></trkpt>
<trkpt lat="27.494748" lon="99.864863">
<time>2016-10-07T08:46:07Z</time></trkpt>
<trkpt lat="27.494988" lon="99.864723">
<time>2016-10-07T08:46:08Z</time></trkpt>
<trkpt lat="27.495218" lon="99.864563">
<time>2016-10-07T08:46:09Z</time></trkpt>
<trkpt lat="27.495417" lon="99.864383">
<time>2016-10-07T08:46:10Z</time></trkpt>
<trkpt lat="27.495607" lon="99.864182">
<time>2016-10-07T08:46:11Z</time></trkpt>
<trkpt lat="27.495797" lon="99.863992">
<time>2016-10-07T08:46:12Z</time></trkpt>
<trkpt lat="27.495987" lon="99.863742">
<time>2016-10-07T08:46:13Z</time></trkpt>
<trkpt lat="27.496176" lon="99.863491">
<time>2016-10-07T08:46:14Z</time></trkpt>
<trkpt lat="27.496186" lon="99.863481">
<time>2016-10-07T08:46:15Z</time></trkpt>
<trkpt lat="27.496396" lon="99.863221">
<time>2016-10-07T08:46:16Z</time></trkpt>
<trkpt lat="27.496625" lon="99.86294">
<time>2016-10-07T08:46:17Z</time></trkpt>
<trkpt lat="27.496855" lon="99.86269">
<time>2016-10-07T08:46:18Z</time></trkpt>
<trkpt lat="27.497085" lon="99.862419">
<time>2016-10-07T08:46:19Z</time></trkpt>
<trkpt lat="27.497314" lon="99.862149">
<time>2016-10-07T08:46:20Z</time></trkpt>
<trkpt lat="27.497534" lon="99.861889">
<time>2016-10-07T08:46:21Z</time></trkpt>
<trkpt lat="27.497753" lon="99.861618">
<time>2016-10-07T08:46:22Z</time></trkpt>
<trkpt lat="27.497973" lon="99.861368">
<time>2016-10-07T08:46:23Z</time></trkpt>
<trkpt lat="27.498183" lon="99.861107">
<time>2016-10-07T08:46:24Z</time></trkpt>
<trkpt lat="27.498412" lon="99.860887">
<time>2016-10-07T08:46:25Z</time></trkpt>
<trkpt lat="27.498682" lon="99.860667">
<time>2016-10-07T08:46:26Z</time></trkpt>
<trkpt lat="27.498952" lon="99.860446">
<time>2016-10-07T08:46:27Z</time></trkpt>
<trkpt lat="27.499211" lon="99.860226">
<time>2016-10-07T08:46:28Z</time></trkpt>
<trkpt lat="27.499461" lon="99.860006">
<time>2016-10-07T08:46:29Z</time></trkpt>
<trkpt lat="27.499731" lon="99.859785">
<time>2016-10-07T08:46:30Z</time></trkpt>
<trkpt lat="27.499891" lon="99.859655">
<time>2016-10-07T08:46:31Z</time></trkpt>
<trkpt lat="27.50003" lon="99.859545">
<time>2016-10-07T08:46:32Z</time></trkpt>
<trkpt lat="27.50027" lon="99.859344">
<time>2016-10-07T08:46:33Z</time></trkpt>
<trkpt lat="27.50054" lon="99.859124">
<time>2016-10-07T08:46:34Z</time></trkpt>
<trkpt lat="27.500829" lon="99.858934">
<time>2016-10-07T08:46:35Z</time></trkpt>
<trkpt lat="27.501129" lon="99.858784">
<time>2016-10-07T08:46:36Z</time></trkpt>
<trkpt lat="27.501459" lon="99.858663">
<time>2016-10-07T08:46:37Z</time></trkpt>
<trkpt lat="27.501719" lon="99.858553">
<time>2016-10-07T08:46:38Z</time></trkpt>
<trkpt lat="27.501789" lon="99.858523">
<time>2016-10-07T08:46:39Z</time></trkpt>
<trkpt lat="27.502129" lon="99.858393">
<time>2016-10-07T08:46:40Z</time></trkpt>
<trkpt lat="27.502458" lon="99.858243">
<time>2016-10-07T08:46:41Z</time></trkpt>
<trkpt lat="27.502768" lon="99.858102">
<time>2016-10-07T08:46:42Z</time></trkpt>
<trkpt lat="27.503058" lon="99.857972">
<time>2016-10-07T08:46:43Z</time></trkpt>
<trkpt lat="27.503358" lon="99.857842">
<time>2016-10-07T08:46:44Z</time></trkpt>
<trkpt lat="27.503657" lon="99.857702">
<time>2016-10-07T08:46:45Z</time></trkpt>
<trkpt lat="27.503987" lon="99.857561">
<time>2016-10-07T08:46:46Z</time></trkpt>
<trkpt lat="27.504237" lon="99.857461">
<time>2016-10-07T08:46:47Z</time></trkpt>
<trkpt lat="27.504457" lon="99.857371">
<time>2016-10-07T08:46:48Z</time></trkpt>
<trkpt lat="27.504667" lon="99.857281">
<time>2016-10-07T08:46:49Z</time></trkpt>
<trkpt lat="27.504887" lon="99.857201">
<time>2016-10-07T08:46:50Z</time></trkpt>
<trkpt lat="27.505156" lon="99.857081">
<time>2016-10-07T08:46:51Z</time></trkpt>
<trkpt lat="27.505396" lon="99.85696">
<time>2016-10-07T08:46:52Z</time></trkpt>
<trkpt lat="27.505646" lon="99.8568">
<time>2016-10-07T08:46:53Z</time></trkpt>
<trkpt lat="27.505896" lon="99.8566">
<time>2016-10-07T08:46:54Z</time></trkpt>
<trkpt lat="27.506145" lon="99.856399">
<time>2016-10-07T08:46:55Z</time></trkpt>
<trkpt lat="27.506385" lon="99.856159">
<time>2016-10-07T08:46:56Z</time></trkpt>
<trkpt lat="27.506555" lon="99.855929">
<time>2016-10-07T08:46:57Z</time></trkpt>
<trkpt lat="27.506714" lon="99.855708">
<time>2016-10-07T08:46:58Z</time></trkpt>
<trkpt lat="27.506834" lon="99.855518">
<time>2016-10-07T08:46:59Z</time></trkpt>
<trkpt lat="27.507014" lon="99.855287">
<time>2016-10-07T08:47:00Z</time></trkpt>
<trkpt lat="27.507163" lon="99.855057">
<time>2016-10-07T08:47:01Z</time></trkpt>
<trkpt lat="27.507373" lon="99.854756">
<time>2016-10-07T08:47:02Z</time></trkpt>
<trkpt lat="27.507582" lon="99.854446">
<time>2016-10-07T08:47:03Z</time></trkpt>
<trkpt lat="27.507812" lon="99.854135">
<time>2016-10-07T08:47:04Z</time></trkpt>
<trkpt lat="27.508001" lon="99.853875">
<time>2016-10-07T08:47:05Z</time></trkpt>
<trkpt lat="27.508231" lon="99.853584">
<time>2016-10-07T08:47:06Z</time></trkpt>
<trkpt lat="27.50838" lon="99.853254">
<time>2016-10-07T08:47:07Z</time></trkpt>
<trkpt lat="27.50845" lon="99.852983">
<time>2016-10-07T08:47:08Z</time></trkpt>
<trkpt lat="27.508449" lon="99.852753">
<time>2016-10-07T08:47:09Z</time></trkpt>
<trkpt lat="27.508449" lon="99.852703">
<time>2016-10-07T08:47:10Z</time></trkpt>
<trkpt lat="27.508459" lon="99.852422">
<time>2016-10-07T08:47:11Z</time></trkpt>
<trkpt lat="27.508438" lon="99.852132">
<time>2016-10-07T08:47:12Z</time></trkpt>
<trkpt lat="27.508418" lon="99.851841">
<time>2016-10-07T08:47:13Z</time></trkpt>
<trkpt lat="27.508447" lon="99.851571">
<time>2016-10-07T08:47:14Z</time></trkpt>
<trkpt lat="27.508537" lon="99.85132">
<time>2016-10-07T08:47:15Z</time></trkpt>
<trkpt lat="27.508667" lon="99.85108">
<time>2016-10-07T08:47:16Z</time></trkpt>
<trkpt lat="27.508806" lon="99.850869">
<time>2016-10-07T08:47:17Z</time></trkpt>
<trkpt lat="27.508956" lon="99.850679">
<time>2016-10-07T08:47:18Z</time></trkpt>
<trkpt lat="27.509116" lon="99.850479">
<time>2016-10-07T08:47:19Z</time></trkpt>
<trkpt lat="27.509325" lon="99.850298">
<time>2016-10-07T08:47:20Z</time></trkpt>
<trkpt lat="27.509555" lon="99.850138">
<time>2016-10-07T08:47:21Z</time></trkpt>
<trkpt lat="27.509775" lon="99.849998">
<time>2016-10-07T08:47:22Z</time></trkpt>
<trkpt lat="27.510005" lon="99.849908">
<time>2016-10-07T08:47:23Z</time></trkpt>
<trkpt lat="27.510255" lon="99.849888">
<time>2016-10-07T08:47:24Z</time></trkpt>
<trkpt lat="27.510525" lon="99.849908">
<time>2016-10-07T08:47:25Z</time></trkpt>
<trkpt lat="27.510795" lon="99.849938">
<time>2016-10-07T08:47:26Z</time></trkpt>
<trkpt lat="27.511075" lon="99.849978">
<time>2016-10-07T08:47:27Z</time></trkpt>
<trkpt lat="27.511345" lon="99.849988">
<time>2016-10-07T08:47:28Z</time></trkpt>
<trkpt lat="27.511625" lon="99.849968">
<time>2016-10-07T08:47:29Z</time></trkpt>
<trkpt lat="27.511895" lon="99.849908">
<time>2016-10-07T08:47:30Z</time></trkpt>
<trkpt lat="27.512124" lon="99.849817">
<time>2016-10-07T08:47:31Z</time></trkpt>
<trkpt lat="27.512334" lon="99.849697">
<time>2016-10-07T08:47:32Z</time></trkpt>
<trkpt lat="27.512534" lon="99.849547">
<time>2016-10-07T08:47:33Z</time></trkpt>
<trkpt lat="27.512764" lon="99.849437">
<time>2016-10-07T08:47:34Z</time></trkpt>
<trkpt lat="27.513014" lon="99.849387">
<time>2016-10-07T08:47:35Z</time></trkpt>
<trkpt lat="27.513294" lon="99.849356">
<time>2016-10-07T08:47:36Z</time></trkpt>
<trkpt lat="27.513574" lon="99.849336">
<time>2016-10-07T08:47:37Z</time></trkpt>
<trkpt lat="27.513854" lon="99.849306">
<time>2016-10-07T08:47:38Z</time></trkpt>
<trkpt lat="27.514123" lon="99.849306">
<time>2016-10-07T08:47:39Z</time></trkpt>
<trkpt lat="27.514383" lon="99.849306">
<time>2016-10-07T08:47:40Z</time></trkpt>
<trkpt lat="27.514633" lon="99.849306">
<time>2016-10-07T08:47:41Z</time></trkpt>
<trkpt lat="27.514873" lon="99.849316">
<time>2016-10-07T08:47:42Z</time></trkpt>
<trkpt lat="27.515093" lon="99.849296">
<time>2016-10-07T08:47:43Z</time></trkpt>
<trkpt lat="27.515323" lon="99.849296">
<time>2016-10-07T08:47:44Z</time></trkpt>
<trkpt lat="27.515523" lon="99.849236">
<time>2016-10-07T08:47:45Z</time></trkpt>
<trkpt lat="27.515723" lon="99.849166">
<time>2016-10-07T08:47:46Z</time></trkpt>
<trkpt lat="27.515923" lon="99.849096">
<time>2016-10-07T08:47:47Z</time></trkpt>
<trkpt lat="27.516133" lon="99.849026">
<time>2016-10-07T08:47:48Z</time></trkpt>
<trkpt lat="27.516343" lon="99.848956">
<time>2016-10-07T08:47:49Z</time></trkpt>
<trkpt lat="27.516563" lon="99.848875">
<time>2016-10-07T08:47:50Z</time></trkpt>
<trkpt lat="27.516783" lon="99.848795">
<time>2016-10-07T08:47:51Z</time></trkpt>
<trkpt lat="27.517012" lon="99.848705">
<time>2016-10-07T08:47:52Z</time></trkpt>
<trkpt lat="27.517242" lon="99.848635">
<time>2016-10-07T08:47:53Z</time></trkpt>
<trkpt lat="27.517492" lon="99.848565">
<time>2016-10-07T08:47:54Z</time></trkpt>
<trkpt lat="27.517742" lon="99.848565">
<time>2016-10-07T08:47:55Z</time></trkpt>
<trkpt lat="27.518012" lon="99.848595">
<time>2016-10-07T08:47:56Z</time></trkpt>
<trkpt lat="27.518292" lon="99.848635">
<time>2016-10-07T08:47:57Z</time></trkpt>
<trkpt lat="27.518582" lon="99.848665">
<time>2016-10-07T08:47:58Z</time></trkpt>
<trkpt lat="27.518872" lon="99.848705">
<time>2016-10-07T08:47:59Z</time></trkpt>
<trkpt lat="27.519182" lon="99.848765">
<time>2016-10-07T08:48:00Z</time></trkpt>
<trkpt lat="27.519462" lon="99.848805">
<time>2016-10-07T08:48:01Z</time></trkpt>
<trkpt lat="27.519712" lon="99.848795">
<time>2016-10-07T08:48:02Z</time></trkpt>
<trkpt lat="27.519942" lon="99.848675">
<time>2016-10-07T08:48:03Z</time></trkpt>
<trkpt lat="27.520152" lon="99.848505">
<time>2016-10-07T08:48:04Z</time></trkpt>
<trkpt lat="27.520342" lon="99.848284">
<time>2016-10-07T08:48:05Z</time></trkpt>
<trkpt lat="27.520451" lon="99.847984">
<time>2016-10-07T08:48:06Z</time></trkpt>
<trkpt lat="27.520561" lon="99.847723">
<time>2016-10-07T08:48:07Z</time></trkpt>
<trkpt lat="27.52065" lon="99.847463">
<time>2016-10-07T08:48:08Z</time></trkpt>
<trkpt lat="27.52074" lon="99.847212">
<time>2016-10-07T08:48:09Z</time></trkpt>
<trkpt lat="27.520829" lon="99.846972">
<time>2016-10-07T08:48:10Z</time></trkpt>
<trkpt lat="27.520919" lon="99.846731">
<time>2016-10-07T08:48:11Z</time></trkpt>
<trkpt lat="27.520998" lon="99.846501">
<time>2016-10-07T08:48:12Z</time></trkpt>
<trkpt lat="27.521098" lon="99.84629">
<time>2016-10-07T08:48:13Z</time></trkpt>
<trkpt lat="27.521208" lon="99.84607">
<time>2016-10-07T08:48:14Z</time></trkpt>
<trkpt lat="27.521327" lon="99.84585">
<time>2016-10-07T08:48:15Z</time></trkpt>
<trkpt lat="27.521447" lon="99.845629">
<time>2016-10-07T08:48:16Z</time></trkpt>
<trkpt lat="27.521567" lon="99.845399">
<time>2016-10-07T08:48:17Z</time></trkpt>
<trkpt lat="27.521686" lon="99.845148">
<time>2016-10-07T08:48:18Z</time></trkpt>
<trkpt lat="27.521786" lon="99.844858">
<time>2016-10-07T08:48:19Z</time></trkpt>
<trkpt lat="27.521885" lon="99.844567">
<time>2016-10-07T08:48:20Z</time></trkpt>
<trkpt lat="27.521985" lon="99.844327">
<time>2016-10-07T08:48:21Z</time></trkpt>
<trkpt lat="27.522005" lon="99.844297">
<time>2016-10-07T08:48:22Z</time></trkpt>
<trkpt lat="27.522074" lon="99.843976">
<time>2016-10-07T08:48:23Z</time></trkpt>
<trkpt lat="27.522174" lon="99.843695">
<time>2016-10-07T08:48:24Z</time></trkpt>
<trkpt lat="27.522263" lon="99.843415">
<time>2016-10-07T08:48:25Z</time></trkpt>
<trkpt lat="27.522313" lon="99.843134">
<time>2016-10-07T08:48:26Z</time></trkpt>
<trkpt lat="27.522302" lon="99.842914">
<time>2016-10-07T08:48:27Z</time></trkpt>
<trkpt lat="27.522242" lon="99.842673">
<time>2016-10-07T08:48:28Z</time></trkpt>
<trkpt lat="27.522081" lon="99.842473">
<time>2016-10-07T08:48:29Z</time></trkpt>
<trkpt lat="27.521921" lon="99.842242">
<time>2016-10-07T08:48:30Z</time></trkpt>
<trkpt lat="27.52178" lon="99.841992">
<time>2016-10-07T08:48:31Z</time></trkpt>
<trkpt lat="27.52172" lon="99.841661">
<time>2016-10-07T08:48:32Z</time></trkpt>
<trkpt lat="27.521699" lon="99.841431">
<time>2016-10-07T08:48:33Z</time></trkpt>
<trkpt lat="27.521679" lon="99.84119">
<time>2016-10-07T08:48:34Z</time></trkpt>
<trkpt lat="27.521659" lon="99.84094">
<time>2016-10-07T08:48:35Z</time></trkpt>
<trkpt lat="27.521618" lon="99.840689">
<time>2016-10-07T08:48:36Z</time></trkpt>
<trkpt lat="27.521568" lon="99.840439">
<time>2016-10-07T08:48:37Z</time></trkpt>
<trkpt lat="27.521487" lon="99.840188">
<time>2016-10-07T08:48:38Z</time></trkpt>
<trkpt lat="27.521397" lon="99.839948">
<time>2016-10-07T08:48:39Z</time></trkpt>
<trkpt lat="27.521286" lon="99.839697">
<time>2016-10-07T08:48:40Z</time></trkpt>
<trkpt lat="27.521206" lon="99.839437">
<time>2016-10-07T08:48:41Z</time></trkpt>
<trkpt lat="27.521175" lon="99.839166">
<time>2016-10-07T08:48:42Z</time></trkpt>
<trkpt lat="27.521185" lon="99.838906">
<time>2016-10-07T08:48:43Z</time></trkpt>
<trkpt lat="27.521194" lon="99.838645">
<time>2016-10-07T08:48:44Z</time></trkpt>
<trkpt lat="27.521154" lon="99.838385">
<time>2016-10-07T08:48:45Z</time></trkpt>
<trkpt lat="27.521073" lon="99.838144">
<time>2016-10-07T08:48:46Z</time></trkpt>
<trkpt lat="27.520963" lon="99.837914">
<time>2016-10-07T08:48:47Z</time></trkpt>
<trkpt lat="27.520843" lon="99.837713">
<time>2016-10-07T08:48:48Z</time></trkpt>
<trkpt lat="27.520702" lon="99.837523">
<time>2016-10-07T08:48:49Z</time></trkpt>
<trkpt lat="27.520552" lon="99.837343">
<time>2016-10-07T08:48:50Z</time></trkpt>
<trkpt lat="27.520412" lon="99.837172">
<time>2016-10-07T08:48:51Z</time></trkpt>
<trkpt lat="27.520271" lon="99.836992">
<time>2016-10-07T08:48:52Z</time></trkpt>
<trkpt lat="27.520151" lon="99.836812">
<time>2016-10-07T08:48:53Z</time></trkpt>
<trkpt lat="27.520061" lon="99.836601">
<time>2016-10-07T08:48:54Z</time></trkpt>
<trkpt lat="27.52001" lon="99.836361">
<time>2016-10-07T08:48:55Z</time></trkpt>
<trkpt lat="27.51996" lon="99.83613">
<time>2016-10-07T08:48:56Z</time></trkpt>
<trkpt lat="27.519969" lon="99.83592">
<time>2016-10-07T08:48:57Z</time></trkpt>
<trkpt lat="27.520059" lon="99.835769">
<time>2016-10-07T08:48:58Z</time></trkpt>
<trkpt lat="27.520209" lon="99.835709">
<time>2016-10-07T08:48:59Z</time></trkpt>
<trkpt lat="27.520369" lon="99.835739">
<time>2016-10-07T08:49:00Z</time></trkpt>
<trkpt lat="27.520569" lon="99.835809">
<time>2016-10-07T08:49:01Z</time></trkpt>
<trkpt lat="27.520799" lon="99.83586">
<time>2016-10-07T08:49:02Z</time></trkpt>
<trkpt lat="27.521029" lon="99.83587">
<time>2016-10-07T08:49:03Z</time></trkpt>
<trkpt lat="27.521289" lon="99.83585">
<time>2016-10-07T08:49:04Z</time></trkpt>
<trkpt lat="27.521539" lon="99.835809">
<time>2016-10-07T08:49:05Z</time></trkpt>
<trkpt lat="27.521809" lon="99.835769">
<time>2016-10-07T08:49:06Z</time></trkpt>
<trkpt lat="27.522079" lon="99.835689">
<time>2016-10-07T08:49:07Z</time></trkpt>
<trkpt lat="27.522339" lon="99.835649">
<time>2016-10-07T08:49:08Z</time></trkpt>
<trkpt lat="27.522539" lon="99.835529">
<time>2016-10-07T08:49:09Z</time></trkpt>
<trkpt lat="27.522708" lon="99.835308">
<time>2016-10-07T08:49:10Z</time></trkpt>
<trkpt lat="27.522838" lon="99.835118">
<time>2016-10-07T08:49:11Z</time></trkpt>
<trkpt lat="27.523018" lon="99.834938">
<time>2016-10-07T08:49:12Z</time></trkpt>
<trkpt lat="27.523207" lon="99.834787">
<time>2016-10-07T08:49:13Z</time></trkpt>
<trkpt lat="27.523427" lon="99.834677">
<time>2016-10-07T08:49:14Z</time></trkpt>
<trkpt lat="27.523667" lon="99.834617">
<time>2016-10-07T08:49:15Z</time></trkpt>
<trkpt lat="27.523927" lon="99.834557">
<time>2016-10-07T08:49:16Z</time></trkpt>
<trkpt lat="27.524207" lon="99.834497">
<time>2016-10-07T08:49:17Z</time></trkpt>
<trkpt lat="27.524497" lon="99.834467">
<time>2016-10-07T08:49:18Z</time></trkpt>
<trkpt lat="27.524767" lon="99.834447">
<time>2016-10-07T08:49:19Z</time></trkpt>
<trkpt lat="27.525037" lon="99.834437">
<time>2016-10-07T08:49:20Z</time></trkpt>
<trkpt lat="27.525286" lon="99.834366">
<time>2016-10-07T08:49:21Z</time></trkpt>
<trkpt lat="27.525506" lon="99.834276">
<time>2016-10-07T08:49:22Z</time></trkpt>
<trkpt lat="27.525696" lon="99.834146">
<time>2016-10-07T08:49:23Z</time></trkpt>
<trkpt lat="27.525836" lon="99.833935">
<time>2016-10-07T08:49:24Z</time></trkpt>
<trkpt lat="27.525955" lon="99.833705">
<time>2016-10-07T08:49:25Z</time></trkpt>
<trkpt lat="27.526085" lon="99.833495">
<time>2016-10-07T08:49:26Z</time></trkpt>
<trkpt lat="27.526264" lon="99.833314">
<time>2016-10-07T08:49:27Z</time></trkpt>
<trkpt lat="27.526484" lon="99.833144">
<time>2016-10-07T08:49:28Z</time></trkpt>
<trkpt lat="27.526724" lon="99.832994">
<time>2016-10-07T08:49:29Z</time></trkpt>
<trkpt lat="27.526974" lon="99.832863">
<time>2016-10-07T08:49:30Z</time></trkpt>
<trkpt lat="27.527243" lon="99.832753">
<time>2016-10-07T08:49:31Z</time></trkpt>
<trkpt lat="27.527533" lon="99.832663">
<time>2016-10-07T08:49:32Z</time></trkpt>
<trkpt lat="27.527833" lon="99.832523">
<time>2016-10-07T08:49:33Z</time></trkpt>
<trkpt lat="27.528143" lon="99.832422">
<time>2016-10-07T08:49:34Z</time></trkpt>
<trkpt lat="27.528443" lon="99.832332">
<time>2016-10-07T08:49:35Z</time></trkpt>
<trkpt lat="27.528752" lon="99.832232">
<time>2016-10-07T08:49:36Z</time></trkpt>
<trkpt lat="27.529062" lon="99.832132">
<time>2016-10-07T08:49:37Z</time></trkpt>
<trkpt lat="27.529372" lon="99.832031">
<time>2016-10-07T08:49:38Z</time></trkpt>
<trkpt lat="27.529712" lon="99.831941">
<time>2016-10-07T08:49:39Z</time></trkpt>
<trkpt lat="27.531161" lon="99.83146">
<time>2016-10-07T08:49:40Z</time></trkpt>
<trkpt lat="27.53163" lon="99.83128">
<time>2016-10-07T08:49:41Z</time></trkpt>
<trkpt lat="27.53188" lon="99.83115">
<time>2016-10-07T08:49:42Z</time></trkpt>
<trkpt lat="27.53212" lon="99.830959">
<time>2016-10-07T08:49:43Z</time></trkpt>
<trkpt lat="27.532689" lon="99.830328">
<time>2016-10-07T08:49:44Z</time></trkpt>
<trkpt lat="27.533377" lon="99.829486">
<time>2016-10-07T08:49:45Z</time></trkpt>
<trkpt lat="27.533846" lon="99.829025">
<time>2016-10-07T08:49:46Z</time></trkpt>
<trkpt lat="27.534116" lon="99.828765">
<time>2016-10-07T08:49:47Z</time></trkpt>
<trkpt lat="27.534355" lon="99.828594">
<time>2016-10-07T08:49:48Z</time></trkpt>
<trkpt lat="27.534435" lon="99.828454">
<time>2016-10-07T08:49:49Z</time></trkpt>
<trkpt lat="27.534485" lon="99.828284">
<time>2016-10-07T08:49:50Z</time></trkpt>
<trkpt lat="27.534535" lon="99.828173">
<time>2016-10-07T08:49:51Z</time></trkpt>
<trkpt lat="27.534554" lon="99.828063">
<time>2016-10-07T08:49:52Z</time></trkpt>
<trkpt lat="27.534554" lon="99.827993">
<time>2016-10-07T08:49:53Z</time></trkpt>
<trkpt lat="27.534554" lon="99.827993">
<time>2016-10-07T08:49:54Z</time></trkpt>
<trkpt lat="27.534924" lon="99.827843">
<time>2016-10-07T08:49:55Z</time></trkpt>
<trkpt lat="27.535184" lon="99.827712">
<time>2016-10-07T08:49:56Z</time></trkpt>
<trkpt lat="27.535423" lon="99.827562">
<time>2016-10-07T08:49:57Z</time></trkpt>
<trkpt lat="27.535823" lon="99.827261">
<time>2016-10-07T08:49:58Z</time></trkpt>
<trkpt lat="27.536202" lon="99.826971">
<time>2016-10-07T08:49:59Z</time></trkpt>
<trkpt lat="27.536711" lon="99.82655">
<time>2016-10-07T08:50:00Z</time></trkpt>
<trkpt lat="27.536961" lon="99.826329">
<time>2016-10-07T08:50:01Z</time></trkpt>
<trkpt lat="27.537241" lon="99.826099">
<time>2016-10-07T08:50:02Z</time></trkpt>
<trkpt lat="27.53748" lon="99.825889">
<time>2016-10-07T08:50:03Z</time></trkpt>
<trkpt lat="27.538089" lon="99.825397">
<time>2016-10-07T08:50:04Z</time></trkpt>
<trkpt lat="27.538579" lon="99.825027">
<time>2016-10-07T08:50:05Z</time></trkpt>
<trkpt lat="27.539158" lon="99.824596">
<time>2016-10-07T08:50:06Z</time></trkpt>
<trkpt lat="27.539587" lon="99.824285">
<time>2016-10-07T08:50:07Z</time></trkpt>
<trkpt lat="27.540047" lon="99.823984">
<time>2016-10-07T08:50:08Z</time></trkpt>
<trkpt lat="27.540576" lon="99.823634">
<time>2016-10-07T08:50:09Z</time></trkpt>
<trkpt lat="27.541165" lon="99.823233">
<time>2016-10-07T08:50:10Z</time></trkpt>
<trkpt lat="27.541794" lon="99.822792">
<time>2016-10-07T08:50:11Z</time></trkpt>
<trkpt lat="27.542284" lon="99.822461">
<time>2016-10-07T08:50:12Z</time></trkpt>
<trkpt lat="27.542813" lon="99.822111">
<time>2016-10-07T08:50:13Z</time></trkpt>
<trkpt lat="27.543352" lon="99.82174">
<time>2016-10-07T08:50:14Z</time></trkpt>
<trkpt lat="27.543882" lon="99.821379">
<time>2016-10-07T08:50:15Z</time></trkpt>
<trkpt lat="27.544241" lon="99.821149">
<time>2016-10-07T08:50:16Z</time></trkpt>
<trkpt lat="27.544731" lon="99.820848">
<time>2016-10-07T08:50:17Z</time></trkpt>
<trkpt lat="27.54508" lon="99.820678">
<time>2016-10-07T08:50:18Z</time></trkpt>
<trkpt lat="27.54541" lon="99.820537">
<time>2016-10-07T08:50:19Z</time></trkpt>
<trkpt lat="27.54572" lon="99.820417">
<time>2016-10-07T08:50:20Z</time></trkpt>
<trkpt lat="27.5462" lon="99.820247">
<time>2016-10-07T08:50:21Z</time></trkpt>
<trkpt lat="27.546529" lon="99.820136">
<time>2016-10-07T08:50:22Z</time></trkpt>
<trkpt lat="27.547249" lon="99.819896">
<time>2016-10-07T08:50:23Z</time></trkpt>
<trkpt lat="27.548028" lon="99.819625">
<time>2016-10-07T08:50:24Z</time></trkpt>
<trkpt lat="27.548548" lon="99.819445">
<time>2016-10-07T08:50:25Z</time></trkpt>
<trkpt lat="27.548918" lon="99.819305">
<time>2016-10-07T08:50:26Z</time></trkpt>
<trkpt lat="27.549178" lon="99.819204">
<time>2016-10-07T08:50:27Z</time></trkpt>
<trkpt lat="27.549477" lon="99.819054">
<time>2016-10-07T08:50:28Z</time></trkpt>
<trkpt lat="27.549697" lon="99.818944">
<time>2016-10-07T08:50:29Z</time></trkpt>
<trkpt lat="27.549907" lon="99.818824">
<time>2016-10-07T08:50:30Z</time></trkpt>
<trkpt lat="27.550686" lon="99.818373">
<time>2016-10-07T08:50:31Z</time></trkpt>
<trkpt lat="27.551076" lon="99.818152">
<time>2016-10-07T08:50:32Z</time></trkpt>
<trkpt lat="27.551735" lon="99.817751">
<time>2016-10-07T08:50:33Z</time></trkpt>
<trkpt lat="27.552144" lon="99.817511">
<time>2016-10-07T08:50:34Z</time></trkpt>
<trkpt lat="27.552774" lon="99.81713">
<time>2016-10-07T08:50:35Z</time></trkpt>
<trkpt lat="27.553223" lon="99.81688">
<time>2016-10-07T08:50:36Z</time></trkpt>
<trkpt lat="27.553553" lon="99.816689">
<time>2016-10-07T08:50:37Z</time></trkpt>
<trkpt lat="27.553813" lon="99.816549">
<time>2016-10-07T08:50:38Z</time></trkpt>
<trkpt lat="27.554052" lon="99.816449">
<time>2016-10-07T08:50:39Z</time></trkpt>
<trkpt lat="27.554412" lon="99.816288">
<time>2016-10-07T08:50:40Z</time></trkpt>
<trkpt lat="27.554782" lon="99.816158">
<time>2016-10-07T08:50:41Z</time></trkpt>
<trkpt lat="27.555552" lon="99.815928">
<time>2016-10-07T08:50:42Z</time></trkpt>
<trkpt lat="27.556111" lon="99.815747">
<time>2016-10-07T08:50:43Z</time></trkpt>
<trkpt lat="27.556611" lon="99.815597">
<time>2016-10-07T08:50:44Z</time></trkpt>
<trkpt lat="27.557181" lon="99.815417">
<time>2016-10-07T08:50:45Z</time></trkpt>
<trkpt lat="27.55738" lon="99.815366">
<time>2016-10-07T08:50:46Z</time></trkpt>
<trkpt lat="27.55766" lon="99.815276">
<time>2016-10-07T08:50:47Z</time></trkpt>
<trkpt lat="27.55785" lon="99.815196">
<time>2016-10-07T08:50:48Z</time></trkpt>
<trkpt lat="27.55805" lon="99.815116">
<time>2016-10-07T08:50:49Z</time></trkpt>
<trkpt lat="27.55826" lon="99.815006">
<time>2016-10-07T08:50:50Z</time></trkpt>
<trkpt lat="27.55842" lon="99.814926">
<time>2016-10-07T08:50:51Z</time></trkpt>
<trkpt lat="27.55858" lon="99.814825">
<time>2016-10-07T08:50:52Z</time></trkpt>
<trkpt lat="27.558719" lon="99.814745">
<time>2016-10-07T08:50:53Z</time></trkpt>
<trkpt lat="27.558879" lon="99.814625">
<time>2016-10-07T08:50:54Z</time></trkpt>
<trkpt lat="27.559039" lon="99.814505">
<time>2016-10-07T08:50:55Z</time></trkpt>
<trkpt lat="27.559169" lon="99.814384">
<time>2016-10-07T08:50:56Z</time></trkpt>
<trkpt lat="27.559308" lon="99.814264">
<time>2016-10-07T08:50:57Z</time></trkpt>
<trkpt lat="27.559498" lon="99.814084">
<time>2016-10-07T08:50:58Z</time></trkpt>
<trkpt lat="27.559648" lon="99.813913">
<time>2016-10-07T08:50:59Z</time></trkpt>
<trkpt lat="27.559808" lon="99.813743">
<time>2016-10-07T08:51:00Z</time></trkpt>
<trkpt lat="27.560027" lon="99.813493">
<time>2016-10-07T08:51:01Z</time></trkpt>
<trkpt lat="27.560187" lon="99.813302">
<time>2016-10-07T08:51:02Z</time></trkpt>
<trkpt lat="27.560506" lon="99.812921">
<time>2016-10-07T08:51:03Z</time></trkpt>
<trkpt lat="27.560766" lon="99.812631">
<time>2016-10-07T08:51:04Z</time></trkpt>
<trkpt lat="27.561085" lon="99.81226">
<time>2016-10-07T08:51:05Z</time></trkpt>
<trkpt lat="27.561394" lon="99.811889">
<time>2016-10-07T08:51:06Z</time></trkpt>
<trkpt lat="27.561664" lon="99.811579">
<time>2016-10-07T08:51:07Z</time></trkpt>
<trkpt lat="27.561893" lon="99.811318">
<time>2016-10-07T08:51:08Z</time></trkpt>
<trkpt lat="27.562163" lon="99.811008">
<time>2016-10-07T08:51:09Z</time></trkpt>
<trkpt lat="27.562442" lon="99.810677">
<time>2016-10-07T08:51:10Z</time></trkpt>
<trkpt lat="27.562851" lon="99.810216">
<time>2016-10-07T08:51:11Z</time></trkpt>
<trkpt lat="27.563061" lon="99.809966">
<time>2016-10-07T08:51:12Z</time></trkpt>
<trkpt lat="27.56327" lon="99.809725">
<time>2016-10-07T08:51:13Z</time></trkpt>
<trkpt lat="27.563749" lon="99.809164">
<time>2016-10-07T08:51:14Z</time></trkpt>
<trkpt lat="27.563989" lon="99.808884">
<time>2016-10-07T08:51:15Z</time></trkpt>
<trkpt lat="27.564478" lon="99.808322">
<time>2016-10-07T08:51:16Z</time></trkpt>
<trkpt lat="27.564997" lon="99.807721">
<time>2016-10-07T08:51:17Z</time></trkpt>
<trkpt lat="27.565446" lon="99.80721">
<time>2016-10-07T08:51:18Z</time></trkpt>
<trkpt lat="27.565735" lon="99.80692">
<time>2016-10-07T08:51:19Z</time></trkpt>
<trkpt lat="27.565995" lon="99.806679">
<time>2016-10-07T08:51:20Z</time></trkpt>
<trkpt lat="27.566235" lon="99.806479">
<time>2016-10-07T08:51:21Z</time></trkpt>
<trkpt lat="27.566464" lon="99.806309">
<time>2016-10-07T08:51:22Z</time></trkpt>
<trkpt lat="27.566744" lon="99.806108">
<time>2016-10-07T08:51:23Z</time></trkpt>
<trkpt lat="27.567004" lon="99.805938">
<time>2016-10-07T08:51:24Z</time></trkpt>
<trkpt lat="27.567274" lon="99.805778">
<time>2016-10-07T08:51:25Z</time></trkpt>
<trkpt lat="27.567513" lon="99.805647">
<time>2016-10-07T08:51:26Z</time></trkpt>
<trkpt lat="27.567793" lon="99.805517">
<time>2016-10-07T08:51:27Z</time></trkpt>
<trkpt lat="27.568063" lon="99.805407">
<time>2016-10-07T08:51:28Z</time></trkpt>
<trkpt lat="27.568323" lon="99.805307">
<time>2016-10-07T08:51:29Z</time></trkpt>
<trkpt lat="27.568692" lon="99.805166">
<time>2016-10-07T08:51:30Z</time></trkpt>
<trkpt lat="27.569242" lon="99.804966">
<time>2016-10-07T08:51:31Z</time></trkpt>
<trkpt lat="27.569582" lon="99.804856">
<time>2016-10-07T08:51:32Z</time></trkpt>
<trkpt lat="27.569812" lon="99.804766">
<time>2016-10-07T08:51:33Z</time></trkpt>
<trkpt lat="27.570062" lon="99.804685">
<time>2016-10-07T08:51:34Z</time></trkpt>
<trkpt lat="27.570371" lon="99.804565">
<time>2016-10-07T08:51:35Z</time></trkpt>
<trkpt lat="27.570651" lon="99.804455">
<time>2016-10-07T08:51:36Z</time></trkpt>
<trkpt lat="27.570831" lon="99.804365">
<time>2016-10-07T08:51:37Z</time></trkpt>
<trkpt lat="27.571061" lon="99.804245">
<time>2016-10-07T08:51:38Z</time></trkpt>
<trkpt lat="27.571271" lon="99.804124">
<time>2016-10-07T08:51:39Z</time></trkpt>
<trkpt lat="27.57154" lon="99.803944">
<time>2016-10-07T08:51:40Z</time></trkpt>
<trkpt lat="27.57169" lon="99.803814">
<time>2016-10-07T08:51:41Z</time></trkpt>
<trkpt lat="27.57186" lon="99.803654">
<time>2016-10-07T08:51:42Z</time></trkpt>
<trkpt lat="27.57204" lon="99.803463">
<time>2016-10-07T08:51:43Z</time></trkpt>
<trkpt lat="27.572219" lon="99.803243">
<time>2016-10-07T08:51:44Z</time></trkpt>
<trkpt lat="27.572339" lon="99.803082">
<time>2016-10-07T08:51:45Z</time></trkpt>
<trkpt lat="27.572419" lon="99.802962">
<time>2016-10-07T08:51:46Z</time></trkpt>
<trkpt lat="27.572469" lon="99.802872">
<time>2016-10-07T08:51:47Z</time></trkpt>
<trkpt lat="27.572558" lon="99.802732">
<time>2016-10-07T08:51:48Z</time></trkpt>
<trkpt lat="27.572638" lon="99.802562">
<time>2016-10-07T08:51:49Z</time></trkpt>
<trkpt lat="27.572748" lon="99.802351">
<time>2016-10-07T08:51:50Z</time></trkpt>
<trkpt lat="27.572837" lon="99.802131">
<time>2016-10-07T08:51:51Z</time></trkpt>
<trkpt lat="27.572937" lon="99.80185">
<time>2016-10-07T08:51:52Z</time></trkpt>
<trkpt lat="27.573007" lon="99.80164">
<time>2016-10-07T08:51:53Z</time></trkpt>
<trkpt lat="27.573146" lon="99.801269">
<time>2016-10-07T08:51:54Z</time></trkpt>
<trkpt lat="27.573305" lon="99.800828">
<time>2016-10-07T08:51:55Z</time></trkpt>
<trkpt lat="27.573415" lon="99.800558">
<time>2016-10-07T08:51:56Z</time></trkpt>
<trkpt lat="27.573515" lon="99.800338">
<time>2016-10-07T08:51:57Z</time></trkpt>
<trkpt lat="27.573624" lon="99.800147">
<time>2016-10-07T08:51:58Z</time></trkpt>
<trkpt lat="27.573744" lon="99.799967">
<time>2016-10-07T08:51:59Z</time></trkpt>
<trkpt lat="27.573864" lon="99.799787">
<time>2016-10-07T08:52:00Z</time></trkpt>
<trkpt lat="27.573983" lon="99.799626">
<time>2016-10-07T08:52:01Z</time></trkpt>
<trkpt lat="27.574163" lon="99.799416">
<time>2016-10-07T08:52:02Z</time></trkpt>
<trkpt lat="27.574393" lon="99.799196">
<time>2016-10-07T08:52:03Z</time></trkpt>
<trkpt lat="27.574602" lon="99.799025">
<time>2016-10-07T08:52:04Z</time></trkpt>
<trkpt lat="27.574852" lon="99.798835">
<time>2016-10-07T08:52:05Z</time></trkpt>
<trkpt lat="27.575092" lon="99.798675">
<time>2016-10-07T08:52:06Z</time></trkpt>
<trkpt lat="27.575392" lon="99.798464">
<time>2016-10-07T08:52:07Z</time></trkpt>
<trkpt lat="27.575641" lon="99.798294">
<time>2016-10-07T08:52:08Z</time></trkpt>
<trkpt lat="27.575911" lon="99.798104">
<time>2016-10-07T08:52:09Z</time></trkpt>
<trkpt lat="27.576191" lon="99.797913">
<time>2016-10-07T08:52:10Z</time></trkpt>
<trkpt lat="27.57643" lon="99.797753">
<time>2016-10-07T08:52:11Z</time></trkpt>
<trkpt lat="27.57668" lon="99.797573">
<time>2016-10-07T08:52:12Z</time></trkpt>
<trkpt lat="27.57693" lon="99.797382">
<time>2016-10-07T08:52:13Z</time></trkpt>
<trkpt lat="27.57714" lon="99.797202">
<time>2016-10-07T08:52:14Z</time></trkpt>
<trkpt lat="27.577329" lon="99.797002">
<time>2016-10-07T08:52:15Z</time></trkpt>
<trkpt lat="27.577509" lon="99.796801">
<time>2016-10-07T08:52:16Z</time></trkpt>
<trkpt lat="27.577639" lon="99.796631">
<time>2016-10-07T08:52:17Z</time></trkpt>
<trkpt lat="27.577778" lon="99.796411">
<time>2016-10-07T08:52:18Z</time></trkpt>
<trkpt lat="27.577938" lon="99.79613">
<time>2016-10-07T08:52:19Z</time></trkpt>
<trkpt lat="27.578127" lon="99.79576">
<time>2016-10-07T08:52:20Z</time></trkpt>
<trkpt lat="27.578217" lon="99.795579">
<time>2016-10-07T08:52:21Z</time></trkpt>
<trkpt lat="27.578486" lon="99.795018">
<time>2016-10-07T08:52:22Z</time></trkpt>
<trkpt lat="27.578576" lon="99.794838">
<time>2016-10-07T08:52:23Z</time></trkpt>
<trkpt lat="27.578666" lon="99.794668">
<time>2016-10-07T08:52:24Z</time></trkpt>
<trkpt lat="27.578756" lon="99.794498">
<time>2016-10-07T08:52:25Z</time></trkpt>
<trkpt lat="27.578845" lon="99.794337">
<time>2016-10-07T08:52:26Z</time></trkpt>
<trkpt lat="27.578945" lon="99.794187">
<time>2016-10-07T08:52:27Z</time></trkpt>
<trkpt lat="27.579025" lon="99.794057">
<time>2016-10-07T08:52:28Z</time></trkpt>
<trkpt lat="27.579155" lon="99.793897">
<time>2016-10-07T08:52:29Z</time></trkpt>
<trkpt lat="27.579264" lon="99.793756">
<time>2016-10-07T08:52:30Z</time></trkpt>
<trkpt lat="27.579404" lon="99.793596">
<time>2016-10-07T08:52:31Z</time></trkpt>
<trkpt lat="27.579524" lon="99.793476">
<time>2016-10-07T08:52:32Z</time></trkpt>
<trkpt lat="27.579634" lon="99.793356">
<time>2016-10-07T08:52:33Z</time></trkpt>
<trkpt lat="27.579774" lon="99.793236">
<time>2016-10-07T08:52:34Z</time></trkpt>
<trkpt lat="27.579934" lon="99.793095">
<time>2016-10-07T08:52:35Z</time></trkpt>
<trkpt lat="27.580083" lon="99.792985">
<time>2016-10-07T08:52:36Z</time></trkpt>
<trkpt lat="27.580243" lon="99.792875">
<time>2016-10-07T08:52:37Z</time></trkpt>
<trkpt lat="27.580433" lon="99.792755">
<time>2016-10-07T08:52:38Z</time></trkpt>
<trkpt lat="27.580593" lon="99.792655">
<time>2016-10-07T08:52:39Z</time></trkpt>
<trkpt lat="27.580783" lon="99.792554">
<time>2016-10-07T08:52:40Z</time></trkpt>
<trkpt lat="27.580933" lon="99.792484">
<time>2016-10-07T08:52:41Z</time></trkpt>
<trkpt lat="27.581173" lon="99.792394">
<time>2016-10-07T08:52:42Z</time></trkpt>
<trkpt lat="27.581472" lon="99.792294">
<time>2016-10-07T08:52:43Z</time></trkpt>
<trkpt lat="27.581742" lon="99.792234">
<time>2016-10-07T08:52:44Z</time></trkpt>
<trkpt lat="27.582122" lon="99.792184">
<time>2016-10-07T08:52:45Z</time></trkpt>
<trkpt lat="27.582312" lon="99.792154">
<time>2016-10-07T08:52:46Z</time></trkpt>
<trkpt lat="27.582552" lon="99.792144">
<time>2016-10-07T08:52:47Z</time></trkpt>
<trkpt lat="27.582822" lon="99.792144">
<time>2016-10-07T08:52:48Z</time></trkpt>
<trkpt lat="27.583122" lon="99.792174">
<time>2016-10-07T08:52:49Z</time></trkpt>
<trkpt lat="27.583362" lon="99.792194">
<time>2016-10-07T08:52:50Z</time></trkpt>
<trkpt lat="27.583702" lon="99.792244">
<time>2016-10-07T08:52:51Z</time></trkpt>
<trkpt lat="27.583982" lon="99.792284">
<time>2016-10-07T08:52:52Z</time></trkpt>
<trkpt lat="27.584292" lon="99.792304">
<time>2016-10-07T08:52:53Z</time></trkpt>
<trkpt lat="27.584602" lon="99.792324">
<time>2016-10-07T08:52:54Z</time></trkpt>
<trkpt lat="27.584892" lon="99.792314">
<time>2016-10-07T08:52:55Z</time></trkpt>
<trkpt lat="27.585132" lon="99.792304">
<time>2016-10-07T08:52:56Z</time></trkpt>
<trkpt lat="27.585342" lon="99.792284">
<time>2016-10-07T08:52:57Z</time></trkpt>
<trkpt lat="27.585582" lon="99.792244">
<time>2016-10-07T08:52:58Z</time></trkpt>
<trkpt lat="27.585762" lon="99.792204">
<time>2016-10-07T08:52:59Z</time></trkpt>
<trkpt lat="27.586012" lon="99.792134">
<time>2016-10-07T08:53:00Z</time></trkpt>
<trkpt lat="27.586382" lon="99.792003">
<time>2016-10-07T08:53:01Z</time></trkpt>
<trkpt lat="27.586652" lon="99.791883">
<time>2016-10-07T08:53:02Z</time></trkpt>
<trkpt lat="27.586892" lon="99.791753">
<time>2016-10-07T08:53:03Z</time></trkpt>
<trkpt lat="27.587291" lon="99.791533">
<time>2016-10-07T08:53:04Z</time></trkpt>
<trkpt lat="27.587841" lon="99.791192">
<time>2016-10-07T08:53:05Z</time></trkpt>
<trkpt lat="27.588251" lon="99.790942">
<time>2016-10-07T08:53:06Z</time></trkpt>
<trkpt lat="27.58864" lon="99.790681">
<time>2016-10-07T08:53:07Z</time></trkpt>
<trkpt lat="27.5891" lon="99.790381">
<time>2016-10-07T08:53:08Z</time></trkpt>
<trkpt lat="27.589599" lon="99.79007">
<time>2016-10-07T08:53:09Z</time></trkpt>
<trkpt lat="27.589999" lon="99.78985">
<time>2016-10-07T08:53:10Z</time></trkpt>
<trkpt lat="27.590299" lon="99.7897">
<time>2016-10-07T08:53:11Z</time></trkpt>
<trkpt lat="27.590549" lon="99.78959">
<time>2016-10-07T08:53:12Z</time></trkpt>
<trkpt lat="27.590879" lon="99.78946">
<time>2016-10-07T08:53:13Z</time></trkpt>
<trkpt lat="27.591259" lon="99.789339">
<time>2016-10-07T08:53:14Z</time></trkpt>
<trkpt lat="27.591878" lon="99.789189">
<time>2016-10-07T08:53:15Z</time></trkpt>
<trkpt lat="27.592798" lon="99.788989">
<time>2016-10-07T08:53:16Z</time></trkpt>
<trkpt lat="27.593838" lon="99.788778">
<time>2016-10-07T08:53:17Z</time></trkpt>
<trkpt lat="27.594378" lon="99.788658">
<time>2016-10-07T08:53:18Z</time></trkpt>
<trkpt lat="27.594848" lon="99.788558">
<time>2016-10-07T08:53:19Z</time></trkpt>
<trkpt lat="27.595367" lon="99.788468">
<time>2016-10-07T08:53:20Z</time></trkpt>
<trkpt lat="27.595737" lon="99.788398">
<time>2016-10-07T08:53:21Z</time></trkpt>
<trkpt lat="27.596247" lon="99.788278">
<time>2016-10-07T08:53:22Z</time></trkpt>
<trkpt lat="27.596687" lon="99.788198">
<time>2016-10-07T08:53:23Z</time></trkpt>
<trkpt lat="27.597237" lon="99.788077">
<time>2016-10-07T08:53:24Z</time></trkpt>
<trkpt lat="27.597737" lon="99.787977">
<time>2016-10-07T08:53:25Z</time></trkpt>
<trkpt lat="27.598187" lon="99.787887">
<time>2016-10-07T08:53:26Z</time></trkpt>
<trkpt lat="27.598507" lon="99.787807">
<time>2016-10-07T08:53:27Z</time></trkpt>
<trkpt lat="27.598717" lon="99.787747">
<time>2016-10-07T08:53:28Z</time></trkpt>
<trkpt lat="27.598917" lon="99.787677">
<time>2016-10-07T08:53:29Z</time></trkpt>
<trkpt lat="27.599116" lon="99.787587">
<time>2016-10-07T08:53:30Z</time></trkpt>
<trkpt lat="27.599406" lon="99.787436">
<time>2016-10-07T08:53:31Z</time></trkpt>
<trkpt lat="27.599656" lon="99.787266">
<time>2016-10-07T08:53:32Z</time></trkpt>
<trkpt lat="27.599866" lon="99.787106">
<time>2016-10-07T08:53:33Z</time></trkpt>
<trkpt lat="27.600076" lon="99.786926">
<time>2016-10-07T08:53:34Z</time></trkpt>
<trkpt lat="27.600285" lon="99.786685">
<time>2016-10-07T08:53:35Z</time></trkpt>
<trkpt lat="27.600485" lon="99.786455">
<time>2016-10-07T08:53:36Z</time></trkpt>
<trkpt lat="27.600685" lon="99.786165">
<time>2016-10-07T08:53:37Z</time></trkpt>
<trkpt lat="27.600824" lon="99.785904">
<time>2016-10-07T08:53:38Z</time></trkpt>
<trkpt lat="27.600894" lon="99.785774">
<time>2016-10-07T08:53:39Z</time></trkpt>
<trkpt lat="27.600914" lon="99.785724">
<time>2016-10-07T08:53:40Z</time></trkpt>
<trkpt lat="27.601064" lon="99.785364">
<time>2016-10-07T08:53:41Z</time></trkpt>
<trkpt lat="27.601143" lon="99.785113">
<time>2016-10-07T08:53:42Z</time></trkpt>
<trkpt lat="27.601223" lon="99.784843">
<time>2016-10-07T08:53:43Z</time></trkpt>
<trkpt lat="27.601273" lon="99.784583">
<time>2016-10-07T08:53:44Z</time></trkpt>
<trkpt lat="27.601302" lon="99.784392">
<time>2016-10-07T08:53:45Z</time></trkpt>
<trkpt lat="27.601312" lon="99.784212">
<time>2016-10-07T08:53:46Z</time></trkpt>
<trkpt lat="27.601322" lon="99.783912">
<time>2016-10-07T08:53:47Z</time></trkpt>
<trkpt lat="27.601321" lon="99.783561">
<time>2016-10-07T08:53:48Z</time></trkpt>
<trkpt lat="27.601301" lon="99.783201">
<time>2016-10-07T08:53:49Z</time></trkpt>
<trkpt lat="27.601271" lon="99.78279">
<time>2016-10-07T08:53:50Z</time></trkpt>
<trkpt lat="27.60125" lon="99.78232">
<time>2016-10-07T08:53:51Z</time></trkpt>
<trkpt lat="27.601249" lon="99.781719">
<time>2016-10-07T08:53:52Z</time></trkpt>
<trkpt lat="27.601259" lon="99.781158">
<time>2016-10-07T08:53:53Z</time></trkpt>
<trkpt lat="27.601258" lon="99.780868">
<time>2016-10-07T08:53:54Z</time></trkpt>
<trkpt lat="27.601268" lon="99.780548">
<time>2016-10-07T08:53:55Z</time></trkpt>
<trkpt lat="27.601278" lon="99.780337">
<time>2016-10-07T08:53:56Z</time></trkpt>
<trkpt lat="27.601307" lon="99.780127">
<time>2016-10-07T08:53:57Z</time></trkpt>
<trkpt lat="27.601337" lon="99.779917">
<time>2016-10-07T08:53:58Z</time></trkpt>
<trkpt lat="27.601387" lon="99.779707">
<time>2016-10-07T08:53:59Z</time></trkpt>
<trkpt lat="27.601447" lon="99.779526">
<time>2016-10-07T08:54:00Z</time></trkpt>
<trkpt lat="27.601527" lon="99.779296">
<time>2016-10-07T08:54:01Z</time></trkpt>
<trkpt lat="27.601606" lon="99.779086">
<time>2016-10-07T08:54:02Z</time></trkpt>
<trkpt lat="27.601686" lon="99.778906">
<time>2016-10-07T08:54:03Z</time></trkpt>
<trkpt lat="27.601786" lon="99.778705">
<time>2016-10-07T08:54:04Z</time></trkpt>
<trkpt lat="27.601876" lon="99.778575">
<time>2016-10-07T08:54:05Z</time></trkpt>
<trkpt lat="27.601946" lon="99.778445">
<time>2016-10-07T08:54:06Z</time></trkpt>
<trkpt lat="27.602095" lon="99.778225">
<time>2016-10-07T08:54:07Z</time></trkpt>
<trkpt lat="27.602245" lon="99.778015">
<time>2016-10-07T08:54:08Z</time></trkpt>
<trkpt lat="27.602355" lon="99.777854">
<time>2016-10-07T08:54:09Z</time></trkpt>
<trkpt lat="27.602814" lon="99.777234">
<time>2016-10-07T08:54:10Z</time></trkpt>
<trkpt lat="27.603144" lon="99.776783">
<time>2016-10-07T08:54:11Z</time></trkpt>
<trkpt lat="27.603544" lon="99.776263">
<time>2016-10-07T08:54:12Z</time></trkpt>
<trkpt lat="27.603893" lon="99.775792">
<time>2016-10-07T08:54:13Z</time></trkpt>
<trkpt lat="27.604173" lon="99.775402">
<time>2016-10-07T08:54:14Z</time></trkpt>
<trkpt lat="27.604412" lon="99.775082">
<time>2016-10-07T08:54:15Z</time></trkpt>
<trkpt lat="27.604642" lon="99.774781">
<time>2016-10-07T08:54:16Z</time></trkpt>
<trkpt lat="27.604902" lon="99.774421">
<time>2016-10-07T08:54:17Z</time></trkpt>
<trkpt lat="27.605152" lon="99.774091">
<time>2016-10-07T08:54:18Z</time></trkpt>
<trkpt lat="27.605331" lon="99.77385">
<time>2016-10-07T08:54:19Z</time></trkpt>
<trkpt lat="27.605631" lon="99.77344">
<time>2016-10-07T08:54:20Z</time></trkpt>
<trkpt lat="27.605971" lon="99.77298">
<time>2016-10-07T08:54:21Z</time></trkpt>
<trkpt lat="27.6063" lon="99.772529">
<time>2016-10-07T08:54:22Z</time></trkpt>
<trkpt lat="27.60657" lon="99.772169">
<time>2016-10-07T08:54:23Z</time></trkpt>
<trkpt lat="27.60688" lon="99.771759">
<time>2016-10-07T08:54:24Z</time></trkpt>
<trkpt lat="27.607219" lon="99.771288">
<time>2016-10-07T08:54:25Z</time></trkpt>
<trkpt lat="27.607459" lon="99.770978">
<time>2016-10-07T08:54:26Z</time></trkpt>
<trkpt lat="27.607709" lon="99.770668">
<time>2016-10-07T08:54:27Z</time></trkpt>
<trkpt lat="27.607859" lon="99.770507">
<time>2016-10-07T08:54:28Z</time></trkpt>
<trkpt lat="27.607979" lon="99.770377">
<time>2016-10-07T08:54:29Z</time></trkpt>
<trkpt lat="27.608158" lon="99.770207">
<time>2016-10-07T08:54:30Z</time></trkpt>
<trkpt lat="27.608338" lon="99.770047">
<time>2016-10-07T08:54:31Z</time></trkpt>
<trkpt lat="27.608578" lon="99.769857">
<time>2016-10-07T08:54:32Z</time></trkpt>
<trkpt lat="27.608808" lon="99.769707">
<time>2016-10-07T08:54:33Z</time></trkpt>
<trkpt lat="27.609058" lon="99.769547">
<time>2016-10-07T08:54:34Z</time></trkpt>
<trkpt lat="27.609378" lon="99.769367">
<time>2016-10-07T08:54:35Z</time></trkpt>
<trkpt lat="27.609798" lon="99.769156">
<time>2016-10-07T08:54:36Z</time></trkpt>
<trkpt lat="27.610108" lon="99.769016">
<time>2016-10-07T08:54:37Z</time></trkpt>
<trkpt lat="27.610448" lon="99.768856">
<time>2016-10-07T08:54:38Z</time></trkpt>
<trkpt lat="27.610877" lon="99.768646">
<time>2016-10-07T08:54:39Z</time></trkpt>
<trkpt lat="27.611327" lon="99.768426">
<time>2016-10-07T08:54:40Z</time></trkpt>
<trkpt lat="27.611897" lon="99.768156">
<time>2016-10-07T08:54:41Z</time></trkpt>
<trkpt lat="27.612547" lon="99.767855">
<time>2016-10-07T08:54:42Z</time></trkpt>
<trkpt lat="27.613117" lon="99.767595">
<time>2016-10-07T08:54:43Z</time></trkpt>
<trkpt lat="27.613567" lon="99.767385">
<time>2016-10-07T08:54:44Z</time></trkpt>
<trkpt lat="27.614036" lon="99.767155">
<time>2016-10-07T08:54:45Z</time></trkpt>
<trkpt lat="27.614476" lon="99.766955">
<time>2016-10-07T08:54:46Z</time></trkpt>
<trkpt lat="27.614846" lon="99.766795">
<time>2016-10-07T08:54:47Z</time></trkpt>
<trkpt lat="27.615166" lon="99.766655">
<time>2016-10-07T08:54:48Z</time></trkpt>
<trkpt lat="27.615486" lon="99.766504">
<time>2016-10-07T08:54:49Z</time></trkpt>
<trkpt lat="27.615906" lon="99.766304">
<time>2016-10-07T08:54:50Z</time></trkpt>
<trkpt lat="27.616346" lon="99.766094">
<time>2016-10-07T08:54:51Z</time></trkpt>
<trkpt lat="27.616936" lon="99.765814">
<time>2016-10-07T08:54:52Z</time></trkpt>
<trkpt lat="27.617286" lon="99.765644">
<time>2016-10-07T08:54:53Z</time></trkpt>
<trkpt lat="27.617806" lon="99.765404">
<time>2016-10-07T08:54:54Z</time></trkpt>
<trkpt lat="27.618385" lon="99.765124">
<time>2016-10-07T08:54:55Z</time></trkpt>
<trkpt lat="27.619225" lon="99.764733">
<time>2016-10-07T08:54:56Z</time></trkpt>
<trkpt lat="27.619865" lon="99.764443">
<time>2016-10-07T08:54:57Z</time></trkpt>
<trkpt lat="27.620435" lon="99.764163">
<time>2016-10-07T08:54:58Z</time></trkpt>
<trkpt lat="27.621055" lon="99.763883">
<time>2016-10-07T08:54:59Z</time></trkpt>
<trkpt lat="27.621875" lon="99.763503">
<time>2016-10-07T08:55:00Z</time></trkpt>
<trkpt lat="27.622615" lon="99.763162">
<time>2016-10-07T08:55:01Z</time></trkpt>
<trkpt lat="27.623424" lon="99.762772">
<time>2016-10-07T08:55:02Z</time></trkpt>
<trkpt lat="27.624364" lon="99.762342">
<time>2016-10-07T08:55:03Z</time></trkpt>
<trkpt lat="27.625534" lon="99.761782">
<time>2016-10-07T08:55:04Z</time></trkpt>
<trkpt lat="27.625854" lon="99.761612">
<time>2016-10-07T08:55:05Z</time></trkpt>
<trkpt lat="27.626284" lon="99.761361">
<time>2016-10-07T08:55:06Z</time></trkpt>
<trkpt lat="27.626624" lon="99.761131">
<time>2016-10-07T08:55:07Z</time></trkpt>
<trkpt lat="27.626954" lon="99.760891">
<time>2016-10-07T08:55:08Z</time></trkpt>
<trkpt lat="27.627264" lon="99.760651">
<time>2016-10-07T08:55:09Z</time></trkpt>
<trkpt lat="27.627534" lon="99.760431">
<time>2016-10-07T08:55:10Z</time></trkpt>
<trkpt lat="27.628103" lon="99.759951">
<time>2016-10-07T08:55:11Z</time></trkpt>
<trkpt lat="27.629193" lon="99.759061">
<time>2016-10-07T08:55:12Z</time></trkpt>
<trkpt lat="27.629793" lon="99.75856">
<time>2016-10-07T08:55:13Z</time></trkpt>
<trkpt lat="27.630383" lon="99.75812">
<time>2016-10-07T08:55:14Z</time></trkpt>
<trkpt lat="27.630963" lon="99.7577">
<time>2016-10-07T08:55:15Z</time></trkpt>
<trkpt lat="27.631643" lon="99.75725">
<time>2016-10-07T08:55:16Z</time></trkpt>
<trkpt lat="27.632173" lon="99.75691">
<time>2016-10-07T08:55:17Z</time></trkpt>
<trkpt lat="27.632183" lon="99.7569">
<time>2016-10-07T08:55:18Z</time></trkpt>
<trkpt lat="27.633302" lon="99.75621">
<time>2016-10-07T08:55:19Z</time></trkpt>
<trkpt lat="27.634152" lon="99.75568">
<time>2016-10-07T08:55:20Z</time></trkpt>
<trkpt lat="27.635332" lon="99.754919">
<time>2016-10-07T08:55:21Z</time></trkpt>
<trkpt lat="27.636672" lon="99.754069">
<time>2016-10-07T08:55:22Z</time></trkpt>
<trkpt lat="27.637152" lon="99.753729">
<time>2016-10-07T08:55:23Z</time></trkpt>
<trkpt lat="27.637552" lon="99.753439">
<time>2016-10-07T08:55:24Z</time></trkpt>
<trkpt lat="27.638082" lon="99.753039">
<time>2016-10-07T08:55:25Z</time></trkpt>
<trkpt lat="27.638502" lon="99.752689">
<time>2016-10-07T08:55:26Z</time></trkpt>
<trkpt lat="27.639272" lon="99.752039">
<time>2016-10-07T08:55:27Z</time></trkpt>
<trkpt lat="27.640152" lon="99.751259">
<time>2016-10-07T08:55:28Z</time></trkpt>
<trkpt lat="27.641162" lon="99.750379">
<time>2016-10-07T08:55:29Z</time></trkpt>
<trkpt lat="27.641532" lon="99.750039">
<time>2016-10-07T08:55:30Z</time></trkpt>
<trkpt lat="27.641542" lon="99.750029">
<time>2016-10-07T08:55:31Z</time></trkpt>
<trkpt lat="27.641552" lon="99.750029">
<time>2016-10-07T08:55:32Z</time></trkpt>
<trkpt lat="27.642242" lon="99.749449">
<time>2016-10-07T08:55:33Z</time></trkpt>
<trkpt lat="27.642642" lon="99.749179">
<time>2016-10-07T08:55:34Z</time></trkpt>
<trkpt lat="27.643082" lon="99.748909">
<time>2016-10-07T08:55:35Z</time></trkpt>
<trkpt lat="27.643762" lon="99.748549">
<time>2016-10-07T08:55:36Z</time></trkpt>
<trkpt lat="27.644312" lon="99.748269">
<time>2016-10-07T08:55:37Z</time></trkpt>
<trkpt lat="27.645152" lon="99.747839">
<time>2016-10-07T08:55:38Z</time></trkpt>
<trkpt lat="27.645782" lon="99.747519">
<time>2016-10-07T08:55:39Z</time></trkpt>
<trkpt lat="27.646783" lon="99.746959">
<time>2016-10-07T08:55:40Z</time></trkpt>
<trkpt lat="27.647033" lon="99.746819">
<time>2016-10-07T08:55:41Z</time></trkpt>
<trkpt lat="27.647953" lon="99.74626">
<time>2016-10-07T08:55:42Z</time></trkpt>
<trkpt lat="27.652103" lon="99.74371">
<time>2016-10-07T08:55:43Z</time></trkpt>
<trkpt lat="27.652884" lon="99.74324">
<time>2016-10-07T08:55:44Z</time></trkpt>
<trkpt lat="27.655254" lon="99.741751">
<time>2016-10-07T08:55:45Z</time></trkpt>
<trkpt lat="27.656744" lon="99.740881">
<time>2016-10-07T08:55:46Z</time></trkpt>
<trkpt lat="27.657275" lon="99.740571">
<time>2016-10-07T08:55:47Z</time></trkpt>
<trkpt lat="27.657625" lon="99.740401">
<time>2016-10-07T08:55:48Z</time></trkpt>
<trkpt lat="27.657905" lon="99.740311">
<time>2016-10-07T08:55:49Z</time></trkpt>
<trkpt lat="27.658125" lon="99.740252">
<time>2016-10-07T08:55:50Z</time></trkpt>
<trkpt lat="27.658385" lon="99.740202">
<time>2016-10-07T08:55:51Z</time></trkpt>
<trkpt lat="27.658645" lon="99.740172">
<time>2016-10-07T08:55:52Z</time></trkpt>
<trkpt lat="27.659145" lon="99.740142">
<time>2016-10-07T08:55:53Z</time></trkpt>
<trkpt lat="27.660505" lon="99.740122">
<time>2016-10-07T08:55:54Z</time></trkpt>
<trkpt lat="27.662325" lon="99.740081">
<time>2016-10-07T08:55:55Z</time></trkpt>
<trkpt lat="27.666696" lon="99.740011">
<time>2016-10-07T08:55:56Z</time></trkpt>
<trkpt lat="27.666726" lon="99.740011">
<time>2016-10-07T08:55:57Z</time></trkpt>
<trkpt lat="27.666816" lon="99.740001">
<time>2016-10-07T08:55:58Z</time></trkpt>
<trkpt lat="27.667336" lon="99.740001">
<time>2016-10-07T08:55:59Z</time></trkpt>
<trkpt lat="27.667946" lon="99.739981">
<time>2016-10-07T08:56:00Z</time></trkpt>
<trkpt lat="27.668206" lon="99.739961">
<time>2016-10-07T08:56:01Z</time></trkpt>
<trkpt lat="27.668486" lon="99.739931">
<time>2016-10-07T08:56:02Z</time></trkpt>
<trkpt lat="27.669006" lon="99.739851">
<time>2016-10-07T08:56:03Z</time></trkpt>
<trkpt lat="27.669446" lon="99.739771">
<time>2016-10-07T08:56:04Z</time></trkpt>
<trkpt lat="27.669976" lon="99.739632">
<time>2016-10-07T08:56:05Z</time></trkpt>
<trkpt lat="27.670476" lon="99.739482">
<time>2016-10-07T08:56:06Z</time></trkpt>
<trkpt lat="27.671476" lon="99.739102">
<time>2016-10-07T08:56:07Z</time></trkpt>
<trkpt lat="27.672807" lon="99.738572">
<time>2016-10-07T08:56:08Z</time></trkpt>
<trkpt lat="27.673487" lon="99.738302">
<time>2016-10-07T08:56:09Z</time></trkpt>
<trkpt lat="27.673777" lon="99.738212">
<time>2016-10-07T08:56:10Z</time></trkpt>
<trkpt lat="27.673967" lon="99.738152">
<time>2016-10-07T08:56:11Z</time></trkpt>
<trkpt lat="27.674537" lon="99.738072">
<time>2016-10-07T08:56:12Z</time></trkpt>
<trkpt lat="27.675377" lon="99.738022">
<time>2016-10-07T08:56:13Z</time></trkpt>
<trkpt lat="27.675697" lon="99.738002">
<time>2016-10-07T08:56:14Z</time></trkpt>
<trkpt lat="27.675867" lon="99.737972">
<time>2016-10-07T08:56:15Z</time></trkpt>
<trkpt lat="27.676007" lon="99.737942">
<time>2016-10-07T08:56:16Z</time></trkpt>
<trkpt lat="27.676127" lon="99.737922">
<time>2016-10-07T08:56:17Z</time></trkpt>
<trkpt lat="27.676257" lon="99.737892">
<time>2016-10-07T08:56:18Z</time></trkpt>
<trkpt lat="27.676447" lon="99.737822">
<time>2016-10-07T08:56:19Z</time></trkpt>
<trkpt lat="27.676627" lon="99.737732">
<time>2016-10-07T08:56:20Z</time></trkpt>
<trkpt lat="27.676857" lon="99.737603">
<time>2016-10-07T08:56:21Z</time></trkpt>
<trkpt lat="27.677098" lon="99.737423">
<time>2016-10-07T08:56:22Z</time></trkpt>
<trkpt lat="27.677338" lon="99.737183">
<time>2016-10-07T08:56:23Z</time></trkpt>
<trkpt lat="27.677578" lon="99.736863">
<time>2016-10-07T08:56:24Z</time></trkpt>
<trkpt lat="27.677768" lon="99.736493">
<time>2016-10-07T08:56:25Z</time></trkpt>
<trkpt lat="27.677958" lon="99.736043">
<time>2016-10-07T08:56:26Z</time></trkpt>
<trkpt lat="27.678139" lon="99.735494">
<time>2016-10-07T08:56:27Z</time></trkpt>
<trkpt lat="27.678339" lon="99.734934">
<time>2016-10-07T08:56:28Z</time></trkpt>
<trkpt lat="27.678489" lon="99.734575">
<time>2016-10-07T08:56:29Z</time></trkpt>
<trkpt lat="27.678619" lon="99.734315">
<time>2016-10-07T08:56:30Z</time></trkpt>
<trkpt lat="27.67883" lon="99.733935">
<time>2016-10-07T08:56:31Z</time></trkpt>
<trkpt lat="27.67905" lon="99.733625">
<time>2016-10-07T08:56:32Z</time></trkpt>
<trkpt lat="27.67926" lon="99.733375">
<time>2016-10-07T08:56:33Z</time></trkpt>
<trkpt lat="27.67954" lon="99.733076">
<time>2016-10-07T08:56:34Z</time></trkpt>
<trkpt lat="27.67986" lon="99.732786">
<time>2016-10-07T08:56:35Z</time></trkpt>
<trkpt lat="27.68005" lon="99.732636">
<time>2016-10-07T08:56:36Z</time></trkpt>
<trkpt lat="27.680291" lon="99.732486">
<time>2016-10-07T08:56:37Z</time></trkpt>
<trkpt lat="27.680471" lon="99.732376">
<time>2016-10-07T08:56:38Z</time></trkpt>
<trkpt lat="27.680701" lon="99.732256">
<time>2016-10-07T08:56:39Z</time></trkpt>
<trkpt lat="27.680921" lon="99.732156">
<time>2016-10-07T08:56:40Z</time></trkpt>
<trkpt lat="27.681141" lon="99.732076">
<time>2016-10-07T08:56:41Z</time></trkpt>
<trkpt lat="27.681391" lon="99.731996">
<time>2016-10-07T08:56:42Z</time></trkpt>
<trkpt lat="27.681591" lon="99.731947">
<time>2016-10-07T08:56:43Z</time></trkpt>
<trkpt lat="27.681761" lon="99.731907">
<time>2016-10-07T08:56:44Z</time></trkpt>
<trkpt lat="27.681961" lon="99.731877">
<time>2016-10-07T08:56:45Z</time></trkpt>
<trkpt lat="27.682161" lon="99.731857">
<time>2016-10-07T08:56:46Z</time></trkpt>
<trkpt lat="27.682341" lon="99.731847">
<time>2016-10-07T08:56:47Z</time></trkpt>
<trkpt lat="27.682631" lon="99.731847">
<time>2016-10-07T08:56:48Z</time></trkpt>
<trkpt lat="27.682911" lon="99.731867">
<time>2016-10-07T08:56:49Z</time></trkpt>
<trkpt lat="27.683131" lon="99.731897">
<time>2016-10-07T08:56:50Z</time></trkpt>
<trkpt lat="27.683411" lon="99.731946">
<time>2016-10-07T08:56:51Z</time></trkpt>
<trkpt lat="27.683731" lon="99.732026">
<time>2016-10-07T08:56:52Z</time></trkpt>
<trkpt lat="27.684001" lon="99.732106">
<time>2016-10-07T08:56:53Z</time></trkpt>
<trkpt lat="27.684301" lon="99.732196">
<time>2016-10-07T08:56:54Z</time></trkpt>
<trkpt lat="27.684671" lon="99.732296">
<time>2016-10-07T08:56:55Z</time></trkpt>
<trkpt lat="27.685221" lon="99.732446">
<time>2016-10-07T08:56:56Z</time></trkpt>
<trkpt lat="27.686221" lon="99.732746">
<time>2016-10-07T08:56:57Z</time></trkpt>
<trkpt lat="27.686521" lon="99.732826">
<time>2016-10-07T08:56:58Z</time></trkpt>
<trkpt lat="27.686701" lon="99.732856">
<time>2016-10-07T08:56:59Z</time></trkpt>
<trkpt lat="27.686951" lon="99.732876">
<time>2016-10-07T08:57:00Z</time></trkpt>
<trkpt lat="27.687101" lon="99.732886">
<time>2016-10-07T08:57:01Z</time></trkpt>
<trkpt lat="27.687251" lon="99.732876">
<time>2016-10-07T08:57:02Z</time></trkpt>
<trkpt lat="27.687401" lon="99.732856">
<time>2016-10-07T08:57:03Z</time></trkpt>
<trkpt lat="27.687561" lon="99.732816">
<time>2016-10-07T08:57:04Z</time></trkpt>
<trkpt lat="27.687761" lon="99.732766">
<time>2016-10-07T08:57:05Z</time></trkpt>
<trkpt lat="27.687911" lon="99.732706">
<time>2016-10-07T08:57:06Z</time></trkpt>
<trkpt lat="27.688041" lon="99.732646">
<time>2016-10-07T08:57:07Z</time></trkpt>
<trkpt lat="27.688311" lon="99.732486">
<time>2016-10-07T08:57:08Z</time></trkpt>
<trkpt lat="27.688501" lon="99.732336">
<time>2016-10-07T08:57:09Z</time></trkpt>
<trkpt lat="27.688692" lon="99.732156">
<time>2016-10-07T08:57:10Z</time></trkpt>
<trkpt lat="27.688822" lon="99.731976">
<time>2016-10-07T08:57:11Z</time></trkpt>
<trkpt lat="27.689012" lon="99.731657">
<time>2016-10-07T08:57:12Z</time></trkpt>
<trkpt lat="27.689182" lon="99.731347">
<time>2016-10-07T08:57:13Z</time></trkpt>
<trkpt lat="27.689412" lon="99.730917">
<time>2016-10-07T08:57:14Z</time></trkpt>
<trkpt lat="27.689803" lon="99.730188">
<time>2016-10-07T08:57:15Z</time></trkpt>
<trkpt lat="27.690103" lon="99.729598">
<time>2016-10-07T08:57:16Z</time></trkpt>
<trkpt lat="27.690404" lon="99.728969">
<time>2016-10-07T08:57:17Z</time></trkpt>
<trkpt lat="27.690664" lon="99.72848">
<time>2016-10-07T08:57:18Z</time></trkpt>
<trkpt lat="27.690835" lon="99.72822">
<time>2016-10-07T08:57:19Z</time></trkpt>
<trkpt lat="27.691015" lon="99.72798">
<time>2016-10-07T08:57:20Z</time></trkpt>
<trkpt lat="27.691255" lon="99.72772">
<time>2016-10-07T08:57:21Z</time></trkpt>
<trkpt lat="27.691495" lon="99.727481">
<time>2016-10-07T08:57:22Z</time></trkpt>
<trkpt lat="27.691725" lon="99.727311">
<time>2016-10-07T08:57:23Z</time></trkpt>
<trkpt lat="27.691946" lon="99.727161">
<time>2016-10-07T08:57:24Z</time></trkpt>
<trkpt lat="27.692226" lon="99.727001">
<time>2016-10-07T08:57:25Z</time></trkpt>
<trkpt lat="27.692506" lon="99.726871">
<time>2016-10-07T08:57:26Z</time></trkpt>
<trkpt lat="27.692886" lon="99.726741">
<time>2016-10-07T08:57:27Z</time></trkpt>
<trkpt lat="27.693356" lon="99.726611">
<time>2016-10-07T08:57:28Z</time></trkpt>
<trkpt lat="27.694136" lon="99.726432">
<time>2016-10-07T08:57:29Z</time></trkpt>
<trkpt lat="27.695357" lon="99.726132">
<time>2016-10-07T08:57:30Z</time></trkpt>
<trkpt lat="27.696637" lon="99.725842">
<time>2016-10-07T08:57:31Z</time></trkpt>
<trkpt lat="27.697807" lon="99.725562">
<time>2016-10-07T08:57:32Z</time></trkpt>
<trkpt lat="27.699118" lon="99.725223">
<time>2016-10-07T08:57:33Z</time></trkpt>
<trkpt lat="27.699448" lon="99.725143">
<time>2016-10-07T08:57:34Z</time></trkpt>
<trkpt lat="27.699748" lon="99.725093">
<time>2016-10-07T08:57:35Z</time></trkpt>
<trkpt lat="27.700128" lon="99.725033">
<time>2016-10-07T08:57:36Z</time></trkpt>
<trkpt lat="27.700338" lon="99.725013">
<time>2016-10-07T08:57:37Z</time></trkpt>
<trkpt lat="27.700518" lon="99.725003">
<time>2016-10-07T08:57:38Z</time></trkpt>
<trkpt lat="27.700848" lon="99.725013">
<time>2016-10-07T08:57:39Z</time></trkpt>
<trkpt lat="27.701228" lon="99.725043">
<time>2016-10-07T08:57:40Z</time></trkpt>
<trkpt lat="27.701778" lon="99.725103">
<time>2016-10-07T08:57:41Z</time></trkpt>
<trkpt lat="27.702128" lon="99.725143">
<time>2016-10-07T08:57:42Z</time></trkpt>
<trkpt lat="27.702398" lon="99.725143">
<time>2016-10-07T08:57:43Z</time></trkpt>
<trkpt lat="27.702628" lon="99.725143">
<time>2016-10-07T08:57:44Z</time></trkpt>
<trkpt lat="27.702878" lon="99.725103">
<time>2016-10-07T08:57:45Z</time></trkpt>
<trkpt lat="27.703339" lon="99.725003">
<time>2016-10-07T08:57:46Z</time></trkpt>
<trkpt lat="27.703599" lon="99.724933">
<time>2016-10-07T08:57:47Z</time></trkpt>
<trkpt lat="27.703819" lon="99.724843">
<time>2016-10-07T08:57:48Z</time></trkpt>
<trkpt lat="27.704019" lon="99.724753">
<time>2016-10-07T08:57:49Z</time></trkpt>
<trkpt lat="27.704269" lon="99.724623">
<time>2016-10-07T08:57:50Z</time></trkpt>
<trkpt lat="27.704589" lon="99.724463">
<time>2016-10-07T08:57:51Z</time></trkpt>
<trkpt lat="27.70509" lon="99.724184">
<time>2016-10-07T08:57:52Z</time></trkpt>
<trkpt lat="27.70571" lon="99.723834">
<time>2016-10-07T08:57:53Z</time></trkpt>
<trkpt lat="27.70621" lon="99.723535">
<time>2016-10-07T08:57:54Z</time></trkpt>
<trkpt lat="27.708131" lon="99.722496">
<time>2016-10-07T08:57:55Z</time></trkpt>
<trkpt lat="27.709022" lon="99.722006">
<time>2016-10-07T08:57:56Z</time></trkpt>
<trkpt lat="27.709382" lon="99.721847">
<time>2016-10-07T08:57:57Z</time></trkpt>
<trkpt lat="27.709732" lon="99.721747">
<time>2016-10-07T08:57:58Z</time></trkpt>
<trkpt lat="27.709992" lon="99.721707">
<time>2016-10-07T08:57:59Z</time></trkpt>
<trkpt lat="27.710282" lon="99.721697">
<time>2016-10-07T08:58:00Z</time></trkpt>
<trkpt lat="27.710592" lon="99.721717">
<time>2016-10-07T08:58:01Z</time></trkpt>
<trkpt lat="27.710822" lon="99.721747">
<time>2016-10-07T08:58:02Z</time></trkpt>
<trkpt lat="27.711012" lon="99.721817">
<time>2016-10-07T08:58:03Z</time></trkpt>
<trkpt lat="27.711202" lon="99.721896">
<time>2016-10-07T08:58:04Z</time></trkpt>
<trkpt lat="27.711432" lon="99.722016">
<time>2016-10-07T08:58:05Z</time></trkpt>
<trkpt lat="27.711632" lon="99.722146">
<time>2016-10-07T08:58:06Z</time></trkpt>
<trkpt lat="27.711832" lon="99.722286">
<time>2016-10-07T08:58:07Z</time></trkpt>
<trkpt lat="27.712032" lon="99.722476">
<time>2016-10-07T08:58:08Z</time></trkpt>
<trkpt lat="27.712252" lon="99.722695">
<time>2016-10-07T08:58:09Z</time></trkpt>
<trkpt lat="27.713091" lon="99.723624">
<time>2016-10-07T08:58:10Z</time></trkpt>
<trkpt lat="27.713561" lon="99.724144">
<time>2016-10-07T08:58:11Z</time></trkpt>
<trkpt lat="27.71385" lon="99.724453">
<time>2016-10-07T08:58:12Z</time></trkpt>
<trkpt lat="27.71405" lon="99.724653">
<time>2016-10-07T08:58:13Z</time></trkpt>
<trkpt lat="27.71421" lon="99.724773">
<time>2016-10-07T08:58:14Z</time></trkpt>
<trkpt lat="27.71437" lon="99.724883">
<time>2016-10-07T08:58:15Z</time></trkpt>
<trkpt lat="27.71454" lon="99.724973">
<time>2016-10-07T08:58:16Z</time></trkpt>
<trkpt lat="27.71483" lon="99.725102">
<time>2016-10-07T08:58:17Z</time></trkpt>
<trkpt lat="27.71503" lon="99.725182">
<time>2016-10-07T08:58:18Z</time></trkpt>
<trkpt lat="27.71522" lon="99.725242">
<time>2016-10-07T08:58:19Z</time></trkpt>
<trkpt lat="27.71539" lon="99.725272">
<time>2016-10-07T08:58:20Z</time></trkpt>
<trkpt lat="27.71552" lon="99.725292">
<time>2016-10-07T08:58:21Z</time></trkpt>
<trkpt lat="27.71578" lon="99.725322">
<time>2016-10-07T08:58:22Z</time></trkpt>
<trkpt lat="27.71609" lon="99.725362">
<time>2016-10-07T08:58:23Z</time></trkpt>
<trkpt lat="27.71683" lon="99.725442">
<time>2016-10-07T08:58:24Z</time></trkpt>
<trkpt lat="27.71842" lon="99.725622">
<time>2016-10-07T08:58:25Z</time></trkpt>
<trkpt lat="27.71882" lon="99.725652">
<time>2016-10-07T08:58:26Z</time></trkpt>
<trkpt lat="27.71911" lon="99.725662">
<time>2016-10-07T08:58:27Z</time></trkpt>
<trkpt lat="27.71937" lon="99.725662">
<time>2016-10-07T08:58:28Z</time></trkpt>
<trkpt lat="27.71959" lon="99.725632">
<time>2016-10-07T08:58:29Z</time></trkpt>
<trkpt lat="27.71979" lon="99.725602">
<time>2016-10-07T08:58:30Z</time></trkpt>
<trkpt lat="27.72007" lon="99.725532">
<time>2016-10-07T08:58:31Z</time></trkpt>
<trkpt lat="27.72028" lon="99.725462">
<time>2016-10-07T08:58:32Z</time></trkpt>
<trkpt lat="27.72053" lon="99.725362">
<time>2016-10-07T08:58:33Z</time></trkpt>
<trkpt lat="27.72079" lon="99.725232">
<time>2016-10-07T08:58:34Z</time></trkpt>
<trkpt lat="27.720981" lon="99.725102">
<time>2016-10-07T08:58:35Z</time></trkpt>
<trkpt lat="27.721161" lon="99.724962">
<time>2016-10-07T08:58:36Z</time></trkpt>
<trkpt lat="27.721381" lon="99.724753">
<time>2016-10-07T08:58:37Z</time></trkpt>
<trkpt lat="27.721601" lon="99.724533">
<time>2016-10-07T08:58:38Z</time></trkpt>
<trkpt lat="27.722272" lon="99.723844">
<time>2016-10-07T08:58:39Z</time></trkpt>
<trkpt lat="27.723333" lon="99.722815">
<time>2016-10-07T08:58:40Z</time></trkpt>
<trkpt lat="27.723663" lon="99.722515">
<time>2016-10-07T08:58:41Z</time></trkpt>
<trkpt lat="27.723903" lon="99.722346">
<time>2016-10-07T08:58:42Z</time></trkpt>
<trkpt lat="27.724124" lon="99.722226">
<time>2016-10-07T08:58:43Z</time></trkpt>
<trkpt lat="27.724424" lon="99.722116">
<time>2016-10-07T08:58:44Z</time></trkpt>
<trkpt lat="27.724694" lon="99.722046">
<time>2016-10-07T08:58:45Z</time></trkpt>
<trkpt lat="27.724874" lon="99.722016">
<time>2016-10-07T08:58:46Z</time></trkpt>
<trkpt lat="27.725104" lon="99.722006">
<time>2016-10-07T08:58:47Z</time></trkpt>
<trkpt lat="27.725314" lon="99.722016">
<time>2016-10-07T08:58:48Z</time></trkpt>
<trkpt lat="27.725694" lon="99.722066">
<time>2016-10-07T08:58:49Z</time></trkpt>
<trkpt lat="27.726064" lon="99.722126">
<time>2016-10-07T08:58:50Z</time></trkpt>
<trkpt lat="27.726374" lon="99.722176">
<time>2016-10-07T08:58:51Z</time></trkpt>
<trkpt lat="27.726704" lon="99.722196">
<time>2016-10-07T08:58:52Z</time></trkpt>
<trkpt lat="27.726894" lon="99.722186">
<time>2016-10-07T08:58:53Z</time></trkpt>
<trkpt lat="27.727044" lon="99.722176">
<time>2016-10-07T08:58:54Z</time></trkpt>
<trkpt lat="27.727224" lon="99.722146">
<time>2016-10-07T08:58:55Z</time></trkpt>
<trkpt lat="27.727434" lon="99.722106">
<time>2016-10-07T08:58:56Z</time></trkpt>
<trkpt lat="27.727634" lon="99.722036">
<time>2016-10-07T08:58:57Z</time></trkpt>
<trkpt lat="27.727804" lon="99.721976">
<time>2016-10-07T08:58:58Z</time></trkpt>
<trkpt lat="27.727984" lon="99.721886">
<time>2016-10-07T08:58:59Z</time></trkpt>
<trkpt lat="27.728215" lon="99.721756">
<time>2016-10-07T08:59:00Z</time></trkpt>
<trkpt lat="27.728555" lon="99.721506">
<time>2016-10-07T08:59:01Z</time></trkpt>
<trkpt lat="27.728975" lon="99.721197">
<time>2016-10-07T08:59:02Z</time></trkpt>
<trkpt lat="27.729235" lon="99.721017">
<time>2016-10-07T08:59:03Z</time></trkpt>
<trkpt lat="27.729496" lon="99.720867">
<time>2016-10-07T08:59:04Z</time></trkpt>
<trkpt lat="27.729766" lon="99.720727">
<time>2016-10-07T08:59:05Z</time></trkpt>
<trkpt lat="27.730026" lon="99.720618">
<time>2016-10-07T08:59:06Z</time></trkpt>
<trkpt lat="27.730286" lon="99.720518">
<time>2016-10-07T08:59:07Z</time></trkpt>
<trkpt lat="27.730616" lon="99.720428">
<time>2016-10-07T08:59:08Z</time></trkpt>
<trkpt lat="27.730936" lon="99.720358">
<time>2016-10-07T08:59:09Z</time></trkpt>
<trkpt lat="27.731186" lon="99.720338">
<time>2016-10-07T08:59:10Z</time></trkpt>
<trkpt lat="27.731506" lon="99.720298">
<time>2016-10-07T08:59:11Z</time></trkpt>
<trkpt lat="27.732707" lon="99.720208">
<time>2016-10-07T08:59:12Z</time></trkpt>
<trkpt lat="27.732707" lon="99.720208">
<time>2016-10-07T08:59:13Z</time></trkpt>
<trkpt lat="27.732797" lon="99.720168">
<time>2016-10-07T08:59:14Z</time></trkpt>
<trkpt lat="27.733137" lon="99.720138">
<time>2016-10-07T08:59:15Z</time></trkpt>
<trkpt lat="27.733647" lon="99.720108">
<time>2016-10-07T08:59:16Z</time></trkpt>
<trkpt lat="27.734257" lon="99.720058">
<time>2016-10-07T08:59:17Z</time></trkpt>
<trkpt lat="27.734687" lon="99.719998">
<time>2016-10-07T08:59:18Z</time></trkpt>
<trkpt lat="27.735227" lon="99.719888">
<time>2016-10-07T08:59:19Z</time></trkpt>
<trkpt lat="27.735618" lon="99.719798">
<time>2016-10-07T08:59:20Z</time></trkpt>
<trkpt lat="27.735978" lon="99.719699">
<time>2016-10-07T08:59:21Z</time></trkpt>
<trkpt lat="27.736288" lon="99.719609">
<time>2016-10-07T08:59:22Z</time></trkpt>
<trkpt lat="27.736608" lon="99.719499">
<time>2016-10-07T08:59:23Z</time></trkpt>
<trkpt lat="27.736998" lon="99.719349">
<time>2016-10-07T08:59:24Z</time></trkpt>
<trkpt lat="27.737318" lon="99.719219">
<time>2016-10-07T08:59:25Z</time></trkpt>
<trkpt lat="27.737679" lon="99.719049">
<time>2016-10-07T08:59:26Z</time></trkpt>
<trkpt lat="27.738149" lon="99.71882">
<time>2016-10-07T08:59:27Z</time></trkpt>
<trkpt lat="27.738539" lon="99.7186">
<time>2016-10-07T08:59:28Z</time></trkpt>
<trkpt lat="27.73893" lon="99.71836">
<time>2016-10-07T08:59:29Z</time></trkpt>
<trkpt lat="27.73946" lon="99.718001">
<time>2016-10-07T08:59:30Z</time></trkpt>
<trkpt lat="27.745316" lon="99.713987">
<time>2016-10-07T08:59:31Z</time></trkpt>
<trkpt lat="27.746246" lon="99.713358">
<time>2016-10-07T08:59:32Z</time></trkpt>
<trkpt lat="27.748759" lon="99.71166">
<time>2016-10-07T08:59:33Z</time></trkpt>
<trkpt lat="27.75002" lon="99.710802">
<time>2016-10-07T08:59:34Z</time></trkpt>
<trkpt lat="27.751592" lon="99.709723">
<time>2016-10-07T08:59:35Z</time></trkpt>
<trkpt lat="27.751962" lon="99.709474">
<time>2016-10-07T08:59:36Z</time></trkpt>
<trkpt lat="27.752583" lon="99.709044">
<time>2016-10-07T08:59:37Z</time></trkpt>
<trkpt lat="27.753254" lon="99.708585">
<time>2016-10-07T08:59:38Z</time></trkpt>
<trkpt lat="27.754165" lon="99.707966">
<time>2016-10-07T08:59:39Z</time></trkpt>
<trkpt lat="27.754705" lon="99.707597">
<time>2016-10-07T08:59:40Z</time></trkpt>
<trkpt lat="27.755176" lon="99.707287">
<time>2016-10-07T08:59:41Z</time></trkpt>
<trkpt lat="27.755676" lon="99.706978">
<time>2016-10-07T08:59:42Z</time></trkpt>
<trkpt lat="27.756067" lon="99.706768">
<time>2016-10-07T08:59:43Z</time></trkpt>
<trkpt lat="27.756277" lon="99.706678">
<time>2016-10-07T08:59:44Z</time></trkpt>
<trkpt lat="27.756517" lon="99.706579">
<time>2016-10-07T08:59:45Z</time></trkpt>
<trkpt lat="27.756767" lon="99.706489">
<time>2016-10-07T08:59:46Z</time></trkpt>
<trkpt lat="27.757007" lon="99.706419">
<time>2016-10-07T08:59:47Z</time></trkpt>
<trkpt lat="27.757137" lon="99.706379">
<time>2016-10-07T08:59:48Z</time></trkpt>
<trkpt lat="27.757317" lon="99.706339">
<time>2016-10-07T08:59:49Z</time></trkpt>
<trkpt lat="27.757548" lon="99.706289">
<time>2016-10-07T08:59:50Z</time></trkpt>
<trkpt lat="27.757848" lon="99.706239">
<time>2016-10-07T08:59:51Z</time></trkpt>
<trkpt lat="27.758228" lon="99.706169">
<time>2016-10-07T08:59:52Z</time></trkpt>
<trkpt lat="27.758718" lon="99.706099">
<time>2016-10-07T08:59:53Z</time></trkpt>
<trkpt lat="27.759608" lon="99.70597">
<time>2016-10-07T08:59:54Z</time></trkpt>
<trkpt lat="27.760409" lon="99.70586">
<time>2016-10-07T08:59:55Z</time></trkpt>
<trkpt lat="27.760879" lon="99.70578">
<time>2016-10-07T08:59:56Z</time></trkpt>
<trkpt lat="27.761169" lon="99.70575">
<time>2016-10-07T08:59:57Z</time></trkpt>
<trkpt lat="27.762619" lon="99.70553">
<time>2016-10-07T08:59:58Z</time></trkpt>
<trkpt lat="27.76363" lon="99.705391">
<time>2016-10-07T08:59:59Z</time></trkpt>
<trkpt lat="27.76544" lon="99.705121">
<time>2016-10-07T09:00:00Z</time></trkpt>
<trkpt lat="27.766471" lon="99.704971">
<time>2016-10-07T09:00:01Z</time></trkpt>
<trkpt lat="27.767321" lon="99.704841">
<time>2016-10-07T09:00:02Z</time></trkpt>
<trkpt lat="27.769892" lon="99.704462">
<time>2016-10-07T09:00:03Z</time></trkpt>
<trkpt lat="27.771233" lon="99.704272">
<time>2016-10-07T09:00:04Z</time></trkpt>
<trkpt lat="27.773653" lon="99.703913">
<time>2016-10-07T09:00:05Z</time></trkpt>
<trkpt lat="27.774854" lon="99.703733">
<time>2016-10-07T09:00:06Z</time></trkpt>
<trkpt lat="27.777275" lon="99.703384">
<time>2016-10-07T09:00:07Z</time></trkpt>
<trkpt lat="27.778415" lon="99.703214">
<time>2016-10-07T09:00:08Z</time></trkpt>
<trkpt lat="27.778885" lon="99.703154">
<time>2016-10-07T09:00:09Z</time></trkpt>
<trkpt lat="27.779406" lon="99.703074">
<time>2016-10-07T09:00:10Z</time></trkpt>
<trkpt lat="27.780816" lon="99.702855">
<time>2016-10-07T09:00:11Z</time></trkpt>
<trkpt lat="27.781616" lon="99.702735">
<time>2016-10-07T09:00:12Z</time></trkpt>
<trkpt lat="27.783207" lon="99.702505">
<time>2016-10-07T09:00:13Z</time></trkpt>
<trkpt lat="27.783577" lon="99.702466">
<time>2016-10-07T09:00:14Z</time></trkpt>
<trkpt lat="27.783957" lon="99.702406">
<time>2016-10-07T09:00:15Z</time></trkpt>
<trkpt lat="27.784928" lon="99.702266">
<time>2016-10-07T09:00:16Z</time></trkpt>
<trkpt lat="27.785608" lon="99.702176">
<time>2016-10-07T09:00:17Z</time></trkpt>
<trkpt lat="27.786408" lon="99.702066">
<time>2016-10-07T09:00:18Z</time></trkpt>
<trkpt lat="27.788209" lon="99.701767">
<time>2016-10-07T09:00:19Z</time></trkpt>
<trkpt lat="27.78963" lon="99.701467">
<time>2016-10-07T09:00:20Z</time></trkpt>
<trkpt lat="27.78988" lon="99.701427">
<time>2016-10-07T09:00:21Z</time></trkpt>
<trkpt lat="27.78996" lon="99.701417">
<time>2016-10-07T09:00:22Z</time></trkpt>
<trkpt lat="27.79009" lon="99.701407">
<time>2016-10-07T09:00:23Z</time></trkpt>
<trkpt lat="27.79021" lon="99.701397">
<time>2016-10-07T09:00:24Z</time></trkpt>
<trkpt lat="27.79032" lon="99.701397">
<time>2016-10-07T09:00:25Z</time></trkpt>
<trkpt lat="27.79032" lon="99.701397">
<time>2016-10-07T09:00:26Z</time></trkpt>
<trkpt lat="27.79032" lon="99.701337">
<time>2016-10-07T09:00:27Z</time></trkpt>
<trkpt lat="27.79034" lon="99.701278">
<time>2016-10-07T09:00:28Z</time></trkpt>
<trkpt lat="27.79035" lon="99.701238">
<time>2016-10-07T09:00:29Z</time></trkpt>
<trkpt lat="27.79036" lon="99.701208">
<time>2016-10-07T09:00:30Z</time></trkpt>
<trkpt lat="27.79038" lon="99.701168">
<time>2016-10-07T09:00:31Z</time></trkpt>
<trkpt lat="27.7904" lon="99.701138">
<time>2016-10-07T09:00:32Z</time></trkpt>
<trkpt lat="27.79043" lon="99.701088">
<time>2016-10-07T09:00:33Z</time></trkpt>
<trkpt lat="27.79047" lon="99.701028">
<time>2016-10-07T09:00:34Z</time></trkpt>
<trkpt lat="27.7905" lon="99.700988">
<time>2016-10-07T09:00:35Z</time></trkpt>
<trkpt lat="27.790521" lon="99.700968">
<time>2016-10-07T09:00:36Z</time></trkpt>
<trkpt lat="27.790571" lon="99.700928">
<time>2016-10-07T09:00:37Z</time></trkpt>
<trkpt lat="27.790611" lon="99.700898">
<time>2016-10-07T09:00:38Z</time></trkpt>
<trkpt lat="27.790661" lon="99.700868">
<time>2016-10-07T09:00:39Z</time></trkpt>
<trkpt lat="27.790701" lon="99.700848">
<time>2016-10-07T09:00:40Z</time></trkpt>
<trkpt lat="27.790741" lon="99.700838">
<time>2016-10-07T09:00:41Z</time></trkpt>
<trkpt lat="27.790791" lon="99.700828">
<time>2016-10-07T09:00:42Z</time></trkpt>
<trkpt lat="27.790861" lon="99.700818">
<time>2016-10-07T09:00:43Z</time></trkpt>
<trkpt lat="27.790901" lon="99.700818">
<time>2016-10-07T09:00:44Z</time></trkpt>
<trkpt lat="27.790951" lon="99.700818">
<time>2016-10-07T09:00:45Z</time></trkpt>
<trkpt lat="27.791031" lon="99.700828">
<time>2016-10-07T09:00:46Z</time></trkpt>
<trkpt lat="27.791111" lon="99.700858">
<time>2016-10-07T09:00:47Z</time></trkpt>
<trkpt lat="27.791161" lon="99.700888">
<time>2016-10-07T09:00:48Z</time></trkpt>
<trkpt lat="27.791191" lon="99.700898">
<time>2016-10-07T09:00:49Z</time></trkpt>
<trkpt lat="27.791211" lon="99.700908">
<time>2016-10-07T09:00:50Z</time></trkpt>
<trkpt lat="27.791211" lon="99.700908">
<time>2016-10-07T09:00:51Z</time></trkpt>
<trkpt lat="27.791491" lon="99.700898">
<time>2016-10-07T09:00:52Z</time></trkpt>
<trkpt lat="27.791701" lon="99.700848">
<time>2016-10-07T09:00:53Z</time></trkpt>
<trkpt lat="27.791991" lon="99.700739">
<time>2016-10-07T09:00:54Z</time></trkpt>
<trkpt lat="27.792331" lon="99.700609">
<time>2016-10-07T09:00:55Z</time></trkpt>
<trkpt lat="27.793532" lon="99.70011">
<time>2016-10-07T09:00:56Z</time></trkpt>
<trkpt lat="27.794913" lon="99.699541">
<time>2016-10-07T09:00:57Z</time></trkpt>
<trkpt lat="27.794964" lon="99.699521">
<time>2016-10-07T09:00:58Z</time></trkpt>
<trkpt lat="27.794964" lon="99.699521">
<time>2016-10-07T09:00:59Z</time></trkpt>
<trkpt lat="27.795173" lon="99.70007">
<time>2016-10-07T09:01:00Z</time></trkpt>
<trkpt lat="27.795552" lon="99.700838">
<time>2016-10-07T09:01:01Z</time></trkpt>
<trkpt lat="27.795701" lon="99.701158">
<time>2016-10-07T09:01:02Z</time></trkpt>
<trkpt lat="27.795911" lon="99.701527">
<time>2016-10-07T09:01:03Z</time></trkpt>
<trkpt lat="27.79609" lon="99.701786">
<time>2016-10-07T09:01:04Z</time></trkpt>
<trkpt lat="27.79619" lon="99.701926">
<time>2016-10-07T09:01:05Z</time></trkpt>
<trkpt lat="27.79626" lon="99.702026">
<time>2016-10-07T09:01:06Z</time></trkpt>
<trkpt lat="27.796479" lon="99.702266">
<time>2016-10-07T09:01:07Z</time></trkpt>
<trkpt lat="27.796659" lon="99.702445">
<time>2016-10-07T09:01:08Z</time></trkpt>
<trkpt lat="27.797009" lon="99.702765">
<time>2016-10-07T09:01:09Z</time></trkpt>
<trkpt lat="27.797648" lon="99.703224">
<time>2016-10-07T09:01:10Z</time></trkpt>
<trkpt lat="27.799347" lon="99.704491">
<time>2016-10-07T09:01:11Z</time></trkpt>
<trkpt lat="27.799376" lon="99.704521">
<time>2016-10-07T09:01:12Z</time></trkpt>
<trkpt lat="27.801445" lon="99.706028">
<time>2016-10-07T09:01:13Z</time></trkpt>
<trkpt lat="27.801924" lon="99.706378">
<time>2016-10-07T09:01:14Z</time></trkpt>
<trkpt lat="27.802164" lon="99.706538">
<time>2016-10-07T09:01:15Z</time></trkpt>
<trkpt lat="27.802384" lon="99.706667">
<time>2016-10-07T09:01:16Z</time></trkpt>
<trkpt lat="27.802434" lon="99.706697">
<time>2016-10-07T09:01:17Z</time></trkpt>
<trkpt lat="27.802444" lon="99.706707">
<time>2016-10-07T09:01:18Z</time></trkpt>
<trkpt lat="27.802714" lon="99.706837">
<time>2016-10-07T09:01:19Z</time></trkpt>
<trkpt lat="27.803014" lon="99.706947">
<time>2016-10-07T09:01:20Z</time></trkpt>
<trkpt lat="27.803583" lon="99.707087">
<time>2016-10-07T09:01:21Z</time></trkpt>
<trkpt lat="27.805453" lon="99.707506">
<time>2016-10-07T09:01:22Z</time></trkpt>
<trkpt lat="27.805703" lon="99.707556">
<time>2016-10-07T09:01:23Z</time></trkpt>
<trkpt lat="27.806793" lon="99.707795">
<time>2016-10-07T09:01:24Z</time></trkpt>
<trkpt lat="27.806903" lon="99.707865">
<time>2016-10-07T09:01:25Z</time></trkpt>
<trkpt lat="27.807163" lon="99.707915">
<time>2016-10-07T09:01:26Z</time></trkpt>
<trkpt lat="27.807573" lon="99.708005">
<time>2016-10-07T09:01:27Z</time></trkpt>
<trkpt lat="27.807783" lon="99.708065">
<time>2016-10-07T09:01:28Z</time></trkpt>
<trkpt lat="27.807923" lon="99.708125">
<time>2016-10-07T09:01:29Z</time></trkpt>
<trkpt lat="27.808103" lon="99.708224">
<time>2016-10-07T09:01:30Z</time></trkpt>
<trkpt lat="27.808192" lon="99.708294">
<time>2016-10-07T09:01:31Z</time></trkpt>
<trkpt lat="27.808192" lon="99.708294">
<time>2016-10-07T09:01:32Z</time></trkpt>
<trkpt lat="27.809924" lon="99.707605">
<time>2016-10-07T09:01:33Z</time></trkpt>
<trkpt lat="27.810174" lon="99.707446">
<time>2016-10-07T09:01:34Z</time></trkpt>
<trkpt lat="27.810204" lon="99.707426">
<time>2016-10-07T09:01:35Z</time></trkpt>
<trkpt lat="27.810494" lon="99.707236">
<time>2016-10-07T09:01:36Z</time></trkpt>
<trkpt lat="27.810675" lon="99.707146">
<time>2016-10-07T09:01:37Z</time></trkpt>
<trkpt lat="27.811205" lon="99.706977">
<time>2016-10-07T09:01:38Z</time></trkpt>
<trkpt lat="27.811555" lon="99.706837">
<time>2016-10-07T09:01:39Z</time></trkpt>
<trkpt lat="27.811665" lon="99.706787">
<time>2016-10-07T09:01:40Z</time></trkpt>
<trkpt lat="27.811775" lon="99.706717">
<time>2016-10-07T09:01:41Z</time></trkpt>
<trkpt lat="27.811895" lon="99.706637">
<time>2016-10-07T09:01:42Z</time></trkpt>
<trkpt lat="27.811976" lon="99.706587">
<time>2016-10-07T09:01:43Z</time></trkpt>
<trkpt lat="27.812076" lon="99.706497">
<time>2016-10-07T09:01:44Z</time></trkpt>
<trkpt lat="27.812226" lon="99.706348">
<time>2016-10-07T09:01:45Z</time></trkpt>
<trkpt lat="27.812346" lon="99.706218">
<time>2016-10-07T09:01:46Z</time></trkpt>
<trkpt lat="27.812426" lon="99.706138">
<time>2016-10-07T09:01:47Z</time></trkpt>
<trkpt lat="27.812496" lon="99.706078">
<time>2016-10-07T09:01:48Z</time></trkpt>
<trkpt lat="27.812606" lon="99.705988">
<time>2016-10-07T09:01:49Z</time></trkpt>
<trkpt lat="27.812687" lon="99.705918">
<time>2016-10-07T09:01:50Z</time></trkpt>
<trkpt lat="27.812727" lon="99.705878">
<time>2016-10-07T09:01:51Z</time></trkpt>
<trkpt lat="27.812787" lon="99.705809">
<time>2016-10-07T09:01:52Z</time></trkpt>
<trkpt lat="27.812817" lon="99.705759">
<time>2016-10-07T09:01:53Z</time></trkpt>
<trkpt lat="27.812867" lon="99.705699">
<time>2016-10-07T09:01:54Z</time></trkpt>
<trkpt lat="27.812927" lon="99.705619">
<time>2016-10-07T09:01:55Z</time></trkpt>
<trkpt lat="27.812987" lon="99.705559">
<time>2016-10-07T09:01:56Z</time></trkpt>
<trkpt lat="27.813037" lon="99.705499">
<time>2016-10-07T09:01:57Z</time></trkpt>
<trkpt lat="27.813057" lon="99.705479">
<time>2016-10-07T09:01:58Z</time></trkpt>
<trkpt lat="27.813067" lon="99.705479">
<time>2016-10-07T09:01:59Z</time></trkpt>
<trkpt lat="27.813077" lon="99.705459">
<time>2016-10-07T09:02:00Z</time></trkpt>
<trkpt lat="27.813097" lon="99.705449">
<time>2016-10-07T09:02:01Z</time></trkpt>
<trkpt lat="27.813117" lon="99.705439">
<time>2016-10-07T09:02:02Z</time></trkpt>
<trkpt lat="27.813127" lon="99.705419">
<time>2016-10-07T09:02:03Z</time></trkpt>
<trkpt lat="27.813137" lon="99.705409">
<time>2016-10-07T09:02:04Z</time></trkpt>
<trkpt lat="27.813137" lon="99.705409">
<time>2016-10-07T09:02:05Z</time></trkpt>
<trkpt lat="27.813227" lon="99.705639">
<time>2016-10-07T09:02:06Z</time></trkpt>
<trkpt lat="27.813267" lon="99.705699">
<time>2016-10-07T09:02:07Z</time></trkpt>
<trkpt lat="27.813267" lon="99.705699">
<time>2016-10-07T09:02:08Z</time></trkpt>
<trkpt lat="27.813367" lon="99.705639">
<time>2016-10-07T09:02:09Z</time></trkpt>
<trkpt lat="27.813417" lon="99.705589">
<time>2016-10-07T09:02:10Z</time></trkpt>
<trkpt lat="27.813467" lon="99.705549">
<time>2016-10-07T09:02:11Z</time></trkpt>
<trkpt lat="27.813497" lon="99.705529">
<time>2016-10-07T09:02:12Z</time></trkpt>
<trkpt lat="27.813537" lon="99.705509">
<time>2016-10-07T09:02:13Z</time></trkpt>
<trkpt lat="27.813567" lon="99.705499">
<time>2016-10-07T09:02:14Z</time></trkpt>
<trkpt lat="27.813597" lon="99.705489">
<time>2016-10-07T09:02:15Z</time></trkpt>
<trkpt lat="27.813647" lon="99.705489">
<time>2016-10-07T09:02:16Z</time></trkpt>
<trkpt lat="27.813647" lon="99.705489">
<time>2016-10-07T09:02:17Z</time></trkpt>
<trkpt lat="27.813638" lon="99.705369">
<time>2016-10-07T09:02:18Z</time></trkpt>
<trkpt lat="27.813648" lon="99.70515">
<time>2016-10-07T09:02:19Z</time></trkpt>
<trkpt lat="27.813648" lon="99.70515">
<time>2016-10-07T09:02:20Z</time></trkpt>
<trkpt lat="27.813658" lon="99.70515">
<time>2016-10-07T09:02:21Z</time></trkpt>
<trkpt lat="27.813688" lon="99.70516">
<time>2016-10-07T09:02:22Z</time></trkpt>
<trkpt lat="27.813708" lon="99.70518">
<time>2016-10-07T09:02:23Z</time></trkpt>
<trkpt lat="27.813738" lon="99.7052">
<time>2016-10-07T09:02:24Z</time></trkpt>
<trkpt lat="27.813758" lon="99.70524">
<time>2016-10-07T09:02:25Z</time></trkpt>
<trkpt lat="27.813758" lon="99.70524">
<time>2016-10-07T09:02:26Z</time></trkpt>
<trkpt lat="27.813978" lon="99.70493">
<time>2016-10-07T09:02:27Z</time></trkpt>
<trkpt lat="27.814038" lon="99.70482">
<time>2016-10-07T09:02:28Z</time></trkpt>
<trkpt lat="27.814079" lon="99.70476">
<time>2016-10-07T09:02:29Z</time></trkpt>
<trkpt lat="27.814159" lon="99.704661">
<time>2016-10-07T09:02:30Z</time></trkpt>
<trkpt lat="27.814229" lon="99.704611">
<time>2016-10-07T09:02:31Z</time></trkpt>
<trkpt lat="27.814299" lon="99.704561">
<time>2016-10-07T09:02:32Z</time></trkpt>
<trkpt lat="27.814339" lon="99.704521">
<time>2016-10-07T09:02:33Z</time></trkpt>
<trkpt lat="27.814369" lon="99.704491">
<time>2016-10-07T09:02:34Z</time></trkpt>
<trkpt lat="27.814489" lon="99.704401">
<time>2016-10-07T09:02:35Z</time></trkpt>
<trkpt lat="27.814489" lon="99.704401">
<time>2016-10-07T09:02:36Z</time></trkpt>
<trkpt lat="27.814499" lon="99.704431">
<time>2016-10-07T09:02:37Z</time></trkpt>
<trkpt lat="27.814509" lon="99.704441">
<time>2016-10-07T09:02:38Z</time></trkpt>
<trkpt lat="27.814519" lon="99.704451">
<time>2016-10-07T09:02:39Z</time></trkpt>
<trkpt lat="27.814529" lon="99.704451">
<time>2016-10-07T09:02:40Z</time></trkpt>
<trkpt lat="27.814539" lon="99.704451">
<time>2016-10-07T09:02:41Z</time></trkpt>
<trkpt lat="27.814549" lon="99.704441">
<time>2016-10-07T09:02:42Z</time></trkpt>
<trkpt lat="27.814549" lon="99.704441">
<time>2016-10-07T09:02:43Z</time></trkpt>
<trkpt lat="27.814569" lon="99.704421">
<time>2016-10-07T09:02:44Z</time></trkpt>
<trkpt lat="27.814669" lon="99.704321">
<time>2016-10-07T09:02:45Z</time></trkpt>
<trkpt lat="27.814739" lon="99.704241">
<time>2016-10-07T09:02:46Z</time></trkpt>
<trkpt lat="27.8148" lon="99.704172">
<time>2016-10-07T09:02:47Z</time></trkpt>
<trkpt lat="27.81486" lon="99.704122">
<time>2016-10-07T09:02:48Z</time></trkpt>
<trkpt lat="27.81489" lon="99.704112">
<time>2016-10-07T09:02:49Z</time></trkpt>
<trkpt lat="27.81502" lon="99.704092">
<time>2016-10-07T09:02:50Z</time></trkpt>
<trkpt lat="27.81517" lon="99.704072">
<time>2016-10-07T09:02:51Z</time></trkpt>
<trkpt lat="27.81535" lon="99.704032">
<time>2016-10-07T09:02:52Z</time></trkpt>
<trkpt lat="27.81561" lon="99.703912">
<time>2016-10-07T09:02:53Z</time></trkpt>
<trkpt lat="27.81578" lon="99.703862">
<time>2016-10-07T09:02:54Z</time></trkpt>
<trkpt lat="27.81578" lon="99.703862">
<time>2016-10-07T09:02:55Z</time></trkpt>
<trkpt lat="27.81582" lon="99.703702">
<time>2016-10-07T09:02:56Z</time></trkpt>
<trkpt lat="27.81583" lon="99.703652">
<time>2016-10-07T09:02:57Z</time></trkpt>
<trkpt lat="27.815861" lon="99.703623">
<time>2016-10-07T09:02:58Z</time></trkpt>
<trkpt lat="27.815891" lon="99.703603">
<time>2016-10-07T09:02:59Z</time></trkpt>
<trkpt lat="27.815961" lon="99.703593">
<time>2016-10-07T09:03:00Z</time></trkpt>
<trkpt lat="27.815961" lon="99.703593">
<time>2016-10-07T09:03:01Z</time></trkpt>
<trkpt lat="27.816161" lon="99.703533">
<time>2016-10-07T09:03:02Z</time></trkpt>
<trkpt lat="27.816281" lon="99.703473">
<time>2016-10-07T09:03:03Z</time></trkpt>
<trkpt lat="27.816361" lon="99.703433">
<time>2016-10-07T09:03:04Z</time></trkpt>
<trkpt lat="27.816561" lon="99.703353">
<time>2016-10-07T09:03:05Z</time></trkpt>
<trkpt lat="27.816571" lon="99.703343">
<time>2016-10-07T09:03:06Z</time></trkpt>
<trkpt lat="27.816761" lon="99.703283">
<time>2016-10-07T09:03:07Z</time></trkpt>
<trkpt lat="27.816981" lon="99.703223">
<time>2016-10-07T09:03:08Z</time></trkpt>
<trkpt lat="27.817432" lon="99.703083">
<time>2016-10-07T09:03:09Z</time></trkpt>
<trkpt lat="27.817562" lon="99.703004">
<time>2016-10-07T09:03:10Z</time></trkpt>
<trkpt lat="27.817822" lon="99.702914">
<time>2016-10-07T09:03:11Z</time></trkpt>
<trkpt lat="27.817902" lon="99.702864">
<time>2016-10-07T09:03:12Z</time></trkpt>
<trkpt lat="27.817972" lon="99.702774">
<time>2016-10-07T09:03:13Z</time></trkpt>
<trkpt lat="27.817972" lon="99.702774">
<time>2016-10-07T09:03:14Z</time></trkpt>
<trkpt lat="27.818032" lon="99.702674">
<time>2016-10-07T09:03:15Z</time></trkpt>
<trkpt lat="27.818142" lon="99.702604">
<time>2016-10-07T09:03:16Z</time></trkpt>
<trkpt lat="27.818243" lon="99.702564">
<time>2016-10-07T09:03:17Z</time></trkpt>
<trkpt lat="27.819083" lon="99.702335">
<time>2016-10-07T09:03:18Z</time></trkpt>
<trkpt lat="27.819173" lon="99.702315">
<time>2016-10-07T09:03:19Z</time></trkpt>
<trkpt lat="27.819223" lon="99.702305">
<time>2016-10-07T09:03:20Z</time></trkpt>
<trkpt lat="27.819623" lon="99.702225">
<time>2016-10-07T09:03:21Z</time></trkpt>
<trkpt lat="27.820214" lon="99.702075">
<time>2016-10-07T09:03:22Z</time></trkpt>
<trkpt lat="27.820424" lon="99.702025">
<time>2016-10-07T09:03:23Z</time></trkpt>
<trkpt lat="27.820684" lon="99.701995">
<time>2016-10-07T09:03:24Z</time></trkpt>
<trkpt lat="27.820764" lon="99.701985">
<time>2016-10-07T09:03:25Z</time></trkpt>
<trkpt lat="27.820984" lon="99.701976">
<time>2016-10-07T09:03:26Z</time></trkpt>
<trkpt lat="27.821334" lon="99.702005">
<time>2016-10-07T09:03:27Z</time></trkpt>
<trkpt lat="27.821714" lon="99.702045">
<time>2016-10-07T09:03:28Z</time></trkpt>
<trkpt lat="27.821944" lon="99.702075">
<time>2016-10-07T09:03:29Z</time></trkpt>
<trkpt lat="27.822604" lon="99.702145">
<time>2016-10-07T09:03:30Z</time></trkpt>
<trkpt lat="27.822884" lon="99.702175">
<time>2016-10-07T09:03:31Z</time></trkpt>
<trkpt lat="27.823124" lon="99.702195">
<time>2016-10-07T09:03:32Z</time></trkpt>
<trkpt lat="27.823964" lon="99.702295">
<time>2016-10-07T09:03:33Z</time></trkpt>
<trkpt lat="27.824194" lon="99.702305">
<time>2016-10-07T09:03:34Z</time></trkpt>
<trkpt lat="27.824574" lon="99.702355">
<time>2016-10-07T09:03:35Z</time></trkpt>
<trkpt lat="27.824584" lon="99.702355">
<time>2016-10-07T09:03:36Z</time></trkpt>
<trkpt lat="27.825574" lon="99.702484">
<time>2016-10-07T09:03:37Z</time></trkpt>
<trkpt lat="27.825894" lon="99.702524">
<time>2016-10-07T09:03:38Z</time></trkpt>
<trkpt lat="27.825994" lon="99.702544">
<time>2016-10-07T09:03:39Z</time></trkpt>
<trkpt lat="27.826584" lon="99.702624">
<time>2016-10-07T09:03:40Z</time></trkpt>
<trkpt lat="27.827724" lon="99.702784">
<time>2016-10-07T09:03:41Z</time></trkpt>
<trkpt lat="27.827834" lon="99.702804">
<time>2016-10-07T09:03:42Z</time></trkpt>
<trkpt lat="27.827904" lon="99.702814">
<time>2016-10-07T09:03:43Z</time></trkpt>
<trkpt lat="27.827954" lon="99.702824">
<time>2016-10-07T09:03:44Z</time></trkpt>
<trkpt lat="27.828854" lon="99.702943">
<time>2016-10-07T09:03:45Z</time></trkpt>
<trkpt lat="27.829074" lon="99.702973">
<time>2016-10-07T09:03:46Z</time></trkpt>
<trkpt lat="27.829154" lon="99.702983">
<time>2016-10-07T09:03:47Z</time></trkpt>
<trkpt lat="27.829864" lon="99.703093">
<time>2016-10-07T09:03:48Z</time></trkpt>
<trkpt lat="27.830114" lon="99.703133">
<time>2016-10-07T09:03:49Z</time></trkpt>
<trkpt lat="27.830774" lon="99.703233">
<time>2016-10-07T09:03:50Z</time></trkpt>
<trkpt lat="27.831634" lon="99.703353">
<time>2016-10-07T09:03:51Z</time></trkpt>
<trkpt lat="27.831684" lon="99.703363">
<time>2016-10-07T09:03:52Z</time></trkpt>
<trkpt lat="27.832404" lon="99.703472">
<time>2016-10-07T09:03:53Z</time></trkpt>
<trkpt lat="27.833353" lon="99.703652">
<time>2016-10-07T09:03:54Z</time></trkpt>
<trkpt lat="27.833653" lon="99.703702">
<time>2016-10-07T09:03:55Z</time></trkpt>
<trkpt lat="27.833703" lon="99.703702">
<time>2016-10-07T09:03:56Z</time></trkpt>
<trkpt lat="27.834013" lon="99.703752">
<time>2016-10-07T09:03:57Z</time></trkpt>
<trkpt lat="27.834243" lon="99.703782">
<time>2016-10-07T09:03:58Z</time></trkpt>
<trkpt lat="27.834863" lon="99.703872">
<time>2016-10-07T09:03:59Z</time></trkpt>
<trkpt lat="27.834883" lon="99.703882">
<time>2016-10-07T09:04:00Z</time></trkpt>
<trkpt lat="27.835033" lon="99.703902">
<time>2016-10-07T09:04:01Z</time></trkpt>
<trkpt lat="27.835423" lon="99.703951">
<time>2016-10-07T09:04:02Z</time></trkpt>
<trkpt lat="27.835453" lon="99.703951">
<time>2016-10-07T09:04:03Z</time></trkpt>
<trkpt lat="27.835683" lon="99.703971">
<time>2016-10-07T09:04:04Z</time></trkpt>
<trkpt lat="27.835813" lon="99.703981">
<time>2016-10-07T09:04:05Z</time></trkpt>
<trkpt lat="27.835923" lon="99.703981">
<time>2016-10-07T09:04:06Z</time></trkpt>
<trkpt lat="27.836003" lon="99.703971">
<time>2016-10-07T09:04:07Z</time></trkpt>
<trkpt lat="27.836123" lon="99.703961">
<time>2016-10-07T09:04:08Z</time></trkpt>
<trkpt lat="27.836204" lon="99.703941">
<time>2016-10-07T09:04:09Z</time></trkpt>
<trkpt lat="27.836294" lon="99.703911">
<time>2016-10-07T09:04:10Z</time></trkpt>
<trkpt lat="27.836294" lon="99.703911">
<time>2016-10-07T09:04:11Z</time></trkpt>
<trkpt lat="27.836324" lon="99.703901">
<time>2016-10-07T09:04:12Z</time></trkpt>
<trkpt lat="27.836344" lon="99.703892">
<time>2016-10-07T09:04:13Z</time></trkpt>
<trkpt lat="27.836444" lon="99.703832">
<time>2016-10-07T09:04:14Z</time></trkpt>
<trkpt lat="27.836524" lon="99.703782">
<time>2016-10-07T09:04:15Z</time></trkpt>
<trkpt lat="27.836614" lon="99.703722">
<time>2016-10-07T09:04:16Z</time></trkpt>
<trkpt lat="27.836714" lon="99.703652">
<time>2016-10-07T09:04:17Z</time></trkpt>
<trkpt lat="27.836794" lon="99.703572">
<time>2016-10-07T09:04:18Z</time></trkpt>
<trkpt lat="27.836934" lon="99.703462">
<time>2016-10-07T09:04:19Z</time></trkpt>
<trkpt lat="27.837455" lon="99.703083">
<time>2016-10-07T09:04:20Z</time></trkpt>
<trkpt lat="27.837795" lon="99.702833">
<time>2016-10-07T09:04:21Z</time></trkpt>
<trkpt lat="27.839167" lon="99.701845">
<time>2016-10-07T09:04:22Z</time></trkpt>
<trkpt lat="27.839788" lon="99.701396">
<time>2016-10-07T09:04:23Z</time></trkpt>
<trkpt lat="27.840559" lon="99.700827">
<time>2016-10-07T09:04:24Z</time></trkpt>
<trkpt lat="27.840569" lon="99.700827">
<time>2016-10-07T09:04:25Z</time></trkpt>
<trkpt lat="27.841661" lon="99.700019">
<time>2016-10-07T09:04:26Z</time></trkpt>
<trkpt lat="27.841841" lon="99.699889">
<time>2016-10-07T09:04:27Z</time></trkpt>
<trkpt lat="27.842482" lon="99.6994">
<time>2016-10-07T09:04:28Z</time></trkpt>
<trkpt lat="27.842522" lon="99.69937">
<time>2016-10-07T09:04:29Z</time></trkpt>
<trkpt lat="27.842792" lon="99.69917">
<time>2016-10-07T09:04:30Z</time></trkpt>
<trkpt lat="27.843583" lon="99.698582">
<time>2016-10-07T09:04:31Z</time></trkpt>
<trkpt lat="27.844444" lon="99.697933">
<time>2016-10-07T09:04:32Z</time></trkpt>
<trkpt lat="27.844715" lon="99.697743">
<time>2016-10-07T09:04:33Z</time></trkpt>
<trkpt lat="27.844885" lon="99.697613">
<time>2016-10-07T09:04:34Z</time></trkpt>
<trkpt lat="27.845476" lon="99.697144">
<time>2016-10-07T09:04:35Z</time></trkpt>
<trkpt lat="27.845716" lon="99.696975">
<time>2016-10-07T09:04:36Z</time></trkpt>
<trkpt lat="27.845956" lon="99.696825">
<time>2016-10-07T09:04:37Z</time></trkpt>
<trkpt lat="27.845956" lon="99.696825">
<time>2016-10-07T09:04:38Z</time></trkpt>
<trkpt lat="27.845697" lon="99.696196">
<time>2016-10-07T09:04:39Z</time></trkpt>
<trkpt lat="27.845598" lon="99.695897">
<time>2016-10-07T09:04:40Z</time></trkpt>
<trkpt lat="27.845528" lon="99.695608">
<time>2016-10-07T09:04:41Z</time></trkpt>
<trkpt lat="27.845489" lon="99.695408">
<time>2016-10-07T09:04:42Z</time></trkpt>
<trkpt lat="27.845469" lon="99.695238">
<time>2016-10-07T09:04:43Z</time></trkpt>
<trkpt lat="27.845439" lon="99.694999">
<time>2016-10-07T09:04:44Z</time></trkpt>
<trkpt lat="27.84543" lon="99.694749">
<time>2016-10-07T09:04:45Z</time></trkpt>
<trkpt lat="27.84545" lon="99.69443">
<time>2016-10-07T09:04:46Z</time></trkpt>
<trkpt lat="27.845491" lon="99.694141">
<time>2016-10-07T09:04:47Z</time></trkpt>
<trkpt lat="27.845561" lon="99.693821">
<time>2016-10-07T09:04:48Z</time></trkpt>
<trkpt lat="27.845702" lon="99.693432">
<time>2016-10-07T09:04:49Z</time></trkpt>
<trkpt lat="27.845893" lon="99.692983">
<time>2016-10-07T09:04:50Z</time></trkpt>
<trkpt lat="27.846335" lon="99.692045">
<time>2016-10-07T09:04:51Z</time></trkpt>
<trkpt lat="27.846485" lon="99.691746">
<time>2016-10-07T09:04:52Z</time></trkpt>
<trkpt lat="27.846847" lon="99.690997">
<time>2016-10-07T09:04:53Z</time></trkpt>
<trkpt lat="27.84769" lon="99.689211">
<time>2016-10-07T09:04:54Z</time></trkpt>
<trkpt lat="27.849035" lon="99.686377">
<time>2016-10-07T09:04:55Z</time></trkpt>
<trkpt lat="27.849748" lon="99.684881">
<time>2016-10-07T09:04:56Z</time></trkpt>
<trkpt lat="27.849959" lon="99.684412">
<time>2016-10-07T09:04:57Z</time></trkpt>
<trkpt lat="27.8501" lon="99.684013">
<time>2016-10-07T09:04:58Z</time></trkpt>
<trkpt lat="27.850231" lon="99.683554">
<time>2016-10-07T09:04:59Z</time></trkpt>
<trkpt lat="27.850291" lon="99.683234">
<time>2016-10-07T09:05:00Z</time></trkpt>
<trkpt lat="27.850332" lon="99.682905">
<time>2016-10-07T09:05:01Z</time></trkpt>
<trkpt lat="27.850383" lon="99.682237">
<time>2016-10-07T09:05:02Z</time></trkpt>
<trkpt lat="27.850435" lon="99.681478">
<time>2016-10-07T09:05:03Z</time></trkpt>
<trkpt lat="27.850465" lon="99.68099">
<time>2016-10-07T09:05:04Z</time></trkpt>
<trkpt lat="27.850496" lon="99.68061">
<time>2016-10-07T09:05:05Z</time></trkpt>
<trkpt lat="27.850537" lon="99.680391">
<time>2016-10-07T09:05:06Z</time></trkpt>
<trkpt lat="27.850607" lon="99.680142">
<time>2016-10-07T09:05:07Z</time></trkpt>
<trkpt lat="27.850677" lon="99.679962">
<time>2016-10-07T09:05:08Z</time></trkpt>
<trkpt lat="27.850748" lon="99.679842">
<time>2016-10-07T09:05:09Z</time></trkpt>
<trkpt lat="27.850838" lon="99.679703">
<time>2016-10-07T09:05:10Z</time></trkpt>
<trkpt lat="27.850918" lon="99.679613">
<time>2016-10-07T09:05:11Z</time></trkpt>
<trkpt lat="27.851058" lon="99.679473">
<time>2016-10-07T09:05:12Z</time></trkpt>
<trkpt lat="27.851259" lon="99.679313">
<time>2016-10-07T09:05:13Z</time></trkpt>
<trkpt lat="27.851709" lon="99.679054">
<time>2016-10-07T09:05:14Z</time></trkpt>
<trkpt lat="27.85205" lon="99.678864">
<time>2016-10-07T09:05:15Z</time></trkpt>
<trkpt lat="27.85236" lon="99.678695">
<time>2016-10-07T09:05:16Z</time></trkpt>
<trkpt lat="27.85262" lon="99.678555">
<time>2016-10-07T09:05:17Z</time></trkpt>
<trkpt lat="27.852871" lon="99.678415">
<time>2016-10-07T09:05:18Z</time></trkpt>
<trkpt lat="27.853141" lon="99.678256">
<time>2016-10-07T09:05:19Z</time></trkpt>
<trkpt lat="27.853642" lon="99.677986">
<time>2016-10-07T09:05:20Z</time></trkpt>
<trkpt lat="27.854032" lon="99.677767">
<time>2016-10-07T09:05:21Z</time></trkpt>
<trkpt lat="27.854583" lon="99.677458">
<time>2016-10-07T09:05:22Z</time></trkpt>
<trkpt lat="27.855234" lon="99.677108">
<time>2016-10-07T09:05:23Z</time></trkpt>
<trkpt lat="27.855674" lon="99.676859">
<time>2016-10-07T09:05:24Z</time></trkpt>
<trkpt lat="27.856445" lon="99.67643">
<time>2016-10-07T09:05:25Z</time></trkpt>
<trkpt lat="27.857066" lon="99.676091">
<time>2016-10-07T09:05:26Z</time></trkpt>
<trkpt lat="27.857436" lon="99.675911">
<time>2016-10-07T09:05:27Z</time></trkpt>
<trkpt lat="27.857727" lon="99.675781">
<time>2016-10-07T09:05:28Z</time></trkpt>
<trkpt lat="27.858017" lon="99.675662">
<time>2016-10-07T09:05:29Z</time></trkpt>
<trkpt lat="27.858878" lon="99.675412">
<time>2016-10-07T09:05:30Z</time></trkpt>
<trkpt lat="27.859478" lon="99.675223">
<time>2016-10-07T09:05:31Z</time></trkpt>
<trkpt lat="27.860579" lon="99.674844">
<time>2016-10-07T09:05:32Z</time></trkpt>
<trkpt lat="27.86173" lon="99.674395">
<time>2016-10-07T09:05:33Z</time></trkpt>
<trkpt lat="27.862891" lon="99.673926">
<time>2016-10-07T09:05:34Z</time></trkpt>
<trkpt lat="27.863532" lon="99.673686">
<time>2016-10-07T09:05:35Z</time></trkpt>
<trkpt lat="27.863872" lon="99.673596">
<time>2016-10-07T09:05:36Z</time></trkpt>
<trkpt lat="27.864082" lon="99.673567">
<time>2016-10-07T09:05:37Z</time></trkpt>
<trkpt lat="27.864222" lon="99.673567">
<time>2016-10-07T09:05:38Z</time></trkpt>
<trkpt lat="27.864452" lon="99.673557">
<time>2016-10-07T09:05:39Z</time></trkpt>
<trkpt lat="27.864942" lon="99.673596">
<time>2016-10-07T09:05:40Z</time></trkpt>
<trkpt lat="27.865982" lon="99.673696">
<time>2016-10-07T09:05:41Z</time></trkpt>
<trkpt lat="27.866782" lon="99.673766">
<time>2016-10-07T09:05:42Z</time></trkpt>
<trkpt lat="27.868172" lon="99.673896">
<time>2016-10-07T09:05:43Z</time></trkpt>
<trkpt lat="27.868682" lon="99.673946">
<time>2016-10-07T09:05:44Z</time></trkpt>
<trkpt lat="27.868992" lon="99.673955">
<time>2016-10-07T09:05:45Z</time></trkpt>
<trkpt lat="27.869312" lon="99.673936">
<time>2016-10-07T09:05:46Z</time></trkpt>
<trkpt lat="27.869582" lon="99.673876">
<time>2016-10-07T09:05:47Z</time></trkpt>
<trkpt lat="27.869833" lon="99.673786">
<time>2016-10-07T09:05:48Z</time></trkpt>
<trkpt lat="27.870093" lon="99.673666">
<time>2016-10-07T09:05:49Z</time></trkpt>
<trkpt lat="27.870563" lon="99.673437">
<time>2016-10-07T09:05:50Z</time></trkpt>
<trkpt lat="27.871034" lon="99.673187">
<time>2016-10-07T09:05:51Z</time></trkpt>
<trkpt lat="27.871915" lon="99.672748">
<time>2016-10-07T09:05:52Z</time></trkpt>
<trkpt lat="27.872666" lon="99.672369">
<time>2016-10-07T09:05:53Z</time></trkpt>
<trkpt lat="27.873196" lon="99.6721">
<time>2016-10-07T09:05:54Z</time></trkpt>
<trkpt lat="27.873577" lon="99.67191">
<time>2016-10-07T09:05:55Z</time></trkpt>
<trkpt lat="27.873897" lon="99.671731">
<time>2016-10-07T09:05:56Z</time></trkpt>
<trkpt lat="27.874128" lon="99.671581">
<time>2016-10-07T09:05:57Z</time></trkpt>
<trkpt lat="27.874358" lon="99.671421">
<time>2016-10-07T09:05:58Z</time></trkpt>
<trkpt lat="27.874528" lon="99.671282">
<time>2016-10-07T09:05:59Z</time></trkpt>
<trkpt lat="27.874688" lon="99.671152">
<time>2016-10-07T09:06:00Z</time></trkpt>
<trkpt lat="27.874909" lon="99.670962">
<time>2016-10-07T09:06:01Z</time></trkpt>
<trkpt lat="27.875199" lon="99.670703">
<time>2016-10-07T09:06:02Z</time></trkpt>
<trkpt lat="27.8754" lon="99.670523">
<time>2016-10-07T09:06:03Z</time></trkpt>
<trkpt lat="27.87555" lon="99.670404">
<time>2016-10-07T09:06:04Z</time></trkpt>
<trkpt lat="27.87573" lon="99.670294">
<time>2016-10-07T09:06:05Z</time></trkpt>
<trkpt lat="27.875881" lon="99.670204">
<time>2016-10-07T09:06:06Z</time></trkpt>
<trkpt lat="27.876011" lon="99.670134">
<time>2016-10-07T09:06:07Z</time></trkpt>
<trkpt lat="27.876231" lon="99.670035">
<time>2016-10-07T09:06:08Z</time></trkpt>
<trkpt lat="27.876621" lon="99.669885">
<time>2016-10-07T09:06:09Z</time></trkpt>
<trkpt lat="27.877072" lon="99.669725">
<time>2016-10-07T09:06:10Z</time></trkpt>
<trkpt lat="27.877722" lon="99.669486">
<time>2016-10-07T09:06:11Z</time></trkpt>
<trkpt lat="27.878313" lon="99.669266">
<time>2016-10-07T09:06:12Z</time></trkpt>
<trkpt lat="27.878533" lon="99.669177">
<time>2016-10-07T09:06:13Z</time></trkpt>
<trkpt lat="27.878753" lon="99.669077">
<time>2016-10-07T09:06:14Z</time></trkpt>
<trkpt lat="27.878923" lon="99.668987">
<time>2016-10-07T09:06:15Z</time></trkpt>
<trkpt lat="27.879064" lon="99.668897">
<time>2016-10-07T09:06:16Z</time></trkpt>
<trkpt lat="27.879254" lon="99.668777">
<time>2016-10-07T09:06:17Z</time></trkpt>
<trkpt lat="27.879414" lon="99.668668">
<time>2016-10-07T09:06:18Z</time></trkpt>
<trkpt lat="27.879665" lon="99.668458">
<time>2016-10-07T09:06:19Z</time></trkpt>
<trkpt lat="27.879895" lon="99.668259">
<time>2016-10-07T09:06:20Z</time></trkpt>
<trkpt lat="27.880115" lon="99.668069">
<time>2016-10-07T09:06:21Z</time></trkpt>
<trkpt lat="27.880426" lon="99.66781">
<time>2016-10-07T09:06:22Z</time></trkpt>
<trkpt lat="27.880676" lon="99.66762">
<time>2016-10-07T09:06:23Z</time></trkpt>
<trkpt lat="27.880947" lon="99.667441">
<time>2016-10-07T09:06:24Z</time></trkpt>
<trkpt lat="27.881217" lon="99.667281">
<time>2016-10-07T09:06:25Z</time></trkpt>
<trkpt lat="27.881467" lon="99.667141">
<time>2016-10-07T09:06:26Z</time></trkpt>
<trkpt lat="27.881688" lon="99.667032">
<time>2016-10-07T09:06:27Z</time></trkpt>
<trkpt lat="27.881948" lon="99.666912">
<time>2016-10-07T09:06:28Z</time></trkpt>
<trkpt lat="27.882218" lon="99.666792">
<time>2016-10-07T09:06:29Z</time></trkpt>
<trkpt lat="27.882579" lon="99.666652">
<time>2016-10-07T09:06:30Z</time></trkpt>
<trkpt lat="27.883119" lon="99.666443">
<time>2016-10-07T09:06:31Z</time></trkpt>
<trkpt lat="27.883499" lon="99.666293">
<time>2016-10-07T09:06:32Z</time></trkpt>
<trkpt lat="27.8838" lon="99.666183">
<time>2016-10-07T09:06:33Z</time></trkpt>
<trkpt lat="27.88402" lon="99.666094">
<time>2016-10-07T09:06:34Z</time></trkpt>
<trkpt lat="27.88423" lon="99.666014">
<time>2016-10-07T09:06:35Z</time></trkpt>
<trkpt lat="27.88444" lon="99.665914">
<time>2016-10-07T09:06:36Z</time></trkpt>
<trkpt lat="27.884691" lon="99.665754">
<time>2016-10-07T09:06:37Z</time></trkpt>
<trkpt lat="27.884901" lon="99.665605">
<time>2016-10-07T09:06:38Z</time></trkpt>
<trkpt lat="27.885131" lon="99.665405">
<time>2016-10-07T09:06:39Z</time></trkpt>
<trkpt lat="27.885352" lon="99.665166">
<time>2016-10-07T09:06:40Z</time></trkpt>
<trkpt lat="27.885733" lon="99.664717">
<time>2016-10-07T09:06:41Z</time></trkpt>
<trkpt lat="27.886114" lon="99.664268">
<time>2016-10-07T09:06:42Z</time></trkpt>
<trkpt lat="27.886615" lon="99.663659">
<time>2016-10-07T09:06:43Z</time></trkpt>
<trkpt lat="27.887116" lon="99.663111">
<time>2016-10-07T09:06:44Z</time></trkpt>
<trkpt lat="27.887457" lon="99.662771">
<time>2016-10-07T09:06:45Z</time></trkpt>
<trkpt lat="27.887878" lon="99.662392">
<time>2016-10-07T09:06:46Z</time></trkpt>
<trkpt lat="27.888328" lon="99.662003">
<time>2016-10-07T09:06:47Z</time></trkpt>
<trkpt lat="27.88899" lon="99.661444">
<time>2016-10-07T09:06:48Z</time></trkpt>
<trkpt lat="27.88938" lon="99.661095">
<time>2016-10-07T09:06:49Z</time></trkpt>
<trkpt lat="27.889671" lon="99.660786">
<time>2016-10-07T09:06:50Z</time></trkpt>
<trkpt lat="27.889871" lon="99.660547">
<time>2016-10-07T09:06:51Z</time></trkpt>
<trkpt lat="27.890042" lon="99.660267">
<time>2016-10-07T09:06:52Z</time></trkpt>
<trkpt lat="27.890695" lon="99.65892">
<time>2016-10-07T09:06:53Z</time></trkpt>
<trkpt lat="27.891297" lon="99.657633">
<time>2016-10-07T09:06:54Z</time></trkpt>
<trkpt lat="27.891749" lon="99.656626">
<time>2016-10-07T09:06:55Z</time></trkpt>
<trkpt lat="27.892281" lon="99.655498">
<time>2016-10-07T09:06:56Z</time></trkpt>
<trkpt lat="27.892693" lon="99.6546">
<time>2016-10-07T09:06:57Z</time></trkpt>
<trkpt lat="27.893084" lon="99.653762">
<time>2016-10-07T09:06:58Z</time></trkpt>
<trkpt lat="27.893315" lon="99.653293">
<time>2016-10-07T09:06:59Z</time></trkpt>
<trkpt lat="27.893506" lon="99.652964">
<time>2016-10-07T09:07:00Z</time></trkpt>
<trkpt lat="27.893717" lon="99.652674">
<time>2016-10-07T09:07:01Z</time></trkpt>
<trkpt lat="27.893917" lon="99.652415">
<time>2016-10-07T09:07:02Z</time></trkpt>
<trkpt lat="27.894057" lon="99.652265">
<time>2016-10-07T09:07:03Z</time></trkpt>
<trkpt lat="27.894308" lon="99.652016">
<time>2016-10-07T09:07:04Z</time></trkpt>
<trkpt lat="27.894678" lon="99.651707">
<time>2016-10-07T09:07:05Z</time></trkpt>
<trkpt lat="27.895129" lon="99.651387">
<time>2016-10-07T09:07:06Z</time></trkpt>
<trkpt lat="27.89557" lon="99.651068">
<time>2016-10-07T09:07:07Z</time></trkpt>
<trkpt lat="27.89591" lon="99.650789">
<time>2016-10-07T09:07:08Z</time></trkpt>
<trkpt lat="27.896171" lon="99.650559">
<time>2016-10-07T09:07:09Z</time></trkpt>
<trkpt lat="27.896521" lon="99.65023">
<time>2016-10-07T09:07:10Z</time></trkpt>
<trkpt lat="27.896892" lon="99.649861">
<time>2016-10-07T09:07:11Z</time></trkpt>
<trkpt lat="27.897704" lon="99.649062">
<time>2016-10-07T09:07:12Z</time></trkpt>
<trkpt lat="27.898164" lon="99.648643">
<time>2016-10-07T09:07:13Z</time></trkpt>
<trkpt lat="27.898395" lon="99.648523">
<time>2016-10-07T09:07:14Z</time></trkpt>
<trkpt lat="27.898825" lon="99.648314">
<time>2016-10-07T09:07:15Z</time></trkpt>
<trkpt lat="27.899115" lon="99.648184">
<time>2016-10-07T09:07:16Z</time></trkpt>
<trkpt lat="27.899446" lon="99.648054">
<time>2016-10-07T09:07:17Z</time></trkpt>
<trkpt lat="27.901217" lon="99.647316">
<time>2016-10-07T09:07:18Z</time></trkpt>
<trkpt lat="27.902028" lon="99.646987">
<time>2016-10-07T09:07:19Z</time></trkpt>
<trkpt lat="27.902508" lon="99.646807">
<time>2016-10-07T09:07:20Z</time></trkpt>
<trkpt lat="27.902899" lon="99.646657">
<time>2016-10-07T09:07:21Z</time></trkpt>
<trkpt lat="27.903319" lon="99.646488">
<time>2016-10-07T09:07:22Z</time></trkpt>
<trkpt lat="27.903679" lon="99.646348">
<time>2016-10-07T09:07:23Z</time></trkpt>
<trkpt lat="27.90417" lon="99.646148">
<time>2016-10-07T09:07:24Z</time></trkpt>
<trkpt lat="27.90456" lon="99.645989">
<time>2016-10-07T09:07:25Z</time></trkpt>
<trkpt lat="27.90498" lon="99.645809">
<time>2016-10-07T09:07:26Z</time></trkpt>
<trkpt lat="27.905631" lon="99.64554">
<time>2016-10-07T09:07:27Z</time></trkpt>
<trkpt lat="27.905891" lon="99.64541">
<time>2016-10-07T09:07:28Z</time></trkpt>
<trkpt lat="27.906192" lon="99.64525">
<time>2016-10-07T09:07:29Z</time></trkpt>
<trkpt lat="27.906612" lon="99.645011">
<time>2016-10-07T09:07:30Z</time></trkpt>
<trkpt lat="27.907053" lon="99.644761">
<time>2016-10-07T09:07:31Z</time></trkpt>
<trkpt lat="27.907423" lon="99.644522">
<time>2016-10-07T09:07:32Z</time></trkpt>
<trkpt lat="27.908134" lon="99.644023">
<time>2016-10-07T09:07:33Z</time></trkpt>
<trkpt lat="27.908675" lon="99.643614">
<time>2016-10-07T09:07:34Z</time></trkpt>
<trkpt lat="27.909516" lon="99.642995">
<time>2016-10-07T09:07:35Z</time></trkpt>
<trkpt lat="27.909937" lon="99.642676">
<time>2016-10-07T09:07:36Z</time></trkpt>
<trkpt lat="27.910888" lon="99.641947">
<time>2016-10-07T09:07:37Z</time></trkpt>
<trkpt lat="27.911048" lon="99.641817">
<time>2016-10-07T09:07:38Z</time></trkpt>
<trkpt lat="27.911168" lon="99.641717">
<time>2016-10-07T09:07:39Z</time></trkpt>
<trkpt lat="27.911329" lon="99.641538">
<time>2016-10-07T09:07:40Z</time></trkpt>
<trkpt lat="27.911409" lon="99.641428">
<time>2016-10-07T09:07:41Z</time></trkpt>
<trkpt lat="27.911479" lon="99.641318">
<time>2016-10-07T09:07:42Z</time></trkpt>
<trkpt lat="27.911539" lon="99.641198">
<time>2016-10-07T09:07:43Z</time></trkpt>
<trkpt lat="27.911609" lon="99.641019">
<time>2016-10-07T09:07:44Z</time></trkpt>
<trkpt lat="27.91168" lon="99.640819">
<time>2016-10-07T09:07:45Z</time></trkpt>
<trkpt lat="27.91173" lon="99.64064">
<time>2016-10-07T09:07:46Z</time></trkpt>
<trkpt lat="27.91175" lon="99.64049">
<time>2016-10-07T09:07:47Z</time></trkpt>
<trkpt lat="27.911771" lon="99.64026">
<time>2016-10-07T09:07:48Z</time></trkpt>
<trkpt lat="27.911771" lon="99.640101">
<time>2016-10-07T09:07:49Z</time></trkpt>
<trkpt lat="27.911761" lon="99.639951">
<time>2016-10-07T09:07:50Z</time></trkpt>
<trkpt lat="27.911741" lon="99.639781">
<time>2016-10-07T09:07:51Z</time></trkpt>
<trkpt lat="27.911692" lon="99.639582">
<time>2016-10-07T09:07:52Z</time></trkpt>
<trkpt lat="27.911642" lon="99.639402">
<time>2016-10-07T09:07:53Z</time></trkpt>
<trkpt lat="27.911532" lon="99.639163">
<time>2016-10-07T09:07:54Z</time></trkpt>
<trkpt lat="27.911403" lon="99.638953">
<time>2016-10-07T09:07:55Z</time></trkpt>
<trkpt lat="27.911283" lon="99.638793">
<time>2016-10-07T09:07:56Z</time></trkpt>
<trkpt lat="27.911133" lon="99.638624">
<time>2016-10-07T09:07:57Z</time></trkpt>
<trkpt lat="27.910943" lon="99.638464">
<time>2016-10-07T09:07:58Z</time></trkpt>
<trkpt lat="27.910673" lon="99.638284">
<time>2016-10-07T09:07:59Z</time></trkpt>
<trkpt lat="27.910384" lon="99.638085">
<time>2016-10-07T09:08:00Z</time></trkpt>
<trkpt lat="27.910014" lon="99.637845">
<time>2016-10-07T09:08:01Z</time></trkpt>
<trkpt lat="27.909844" lon="99.637725">
<time>2016-10-07T09:08:02Z</time></trkpt>
<trkpt lat="27.909434" lon="99.637466">
<time>2016-10-07T09:08:03Z</time></trkpt>
<trkpt lat="27.909085" lon="99.637216">
<time>2016-10-07T09:08:04Z</time></trkpt>
<trkpt lat="27.908915" lon="99.637067">
<time>2016-10-07T09:08:05Z</time></trkpt>
<trkpt lat="27.908725" lon="99.636907">
<time>2016-10-07T09:08:06Z</time></trkpt>
<trkpt lat="27.908605" lon="99.636787">
<time>2016-10-07T09:08:07Z</time></trkpt>
<trkpt lat="27.908426" lon="99.636608">
<time>2016-10-07T09:08:08Z</time></trkpt>
<trkpt lat="27.908286" lon="99.636438">
<time>2016-10-07T09:08:09Z</time></trkpt>
<trkpt lat="27.908176" lon="99.636318">
<time>2016-10-07T09:08:10Z</time></trkpt>
<trkpt lat="27.908086" lon="99.636198">
<time>2016-10-07T09:08:11Z</time></trkpt>
<trkpt lat="27.908006" lon="99.636098">
<time>2016-10-07T09:08:12Z</time></trkpt>
<trkpt lat="27.907926" lon="99.635989">
<time>2016-10-07T09:08:13Z</time></trkpt>
<trkpt lat="27.907856" lon="99.635879">
<time>2016-10-07T09:08:14Z</time></trkpt>
<trkpt lat="27.907797" lon="99.635769">
<time>2016-10-07T09:08:15Z</time></trkpt>
<trkpt lat="27.907767" lon="99.635689">
<time>2016-10-07T09:08:16Z</time></trkpt>
<trkpt lat="27.907727" lon="99.635619">
<time>2016-10-07T09:08:17Z</time></trkpt>
<trkpt lat="27.907697" lon="99.63554">
<time>2016-10-07T09:08:18Z</time></trkpt>
<trkpt lat="27.907677" lon="99.63547">
<time>2016-10-07T09:08:19Z</time></trkpt>
<trkpt lat="27.907647" lon="99.63536">
<time>2016-10-07T09:08:20Z</time></trkpt>
<trkpt lat="27.907627" lon="99.63527">
<time>2016-10-07T09:08:21Z</time></trkpt>
<trkpt lat="27.907607" lon="99.63522">
<time>2016-10-07T09:08:22Z</time></trkpt>
<trkpt lat="27.907597" lon="99.63516">
<time>2016-10-07T09:08:23Z</time></trkpt>
<trkpt lat="27.907598" lon="99.63509">
<time>2016-10-07T09:08:24Z</time></trkpt>
<trkpt lat="27.907588" lon="99.635021">
<time>2016-10-07T09:08:25Z</time></trkpt>
<trkpt lat="27.907588" lon="99.634941">
<time>2016-10-07T09:08:26Z</time></trkpt>
<trkpt lat="27.907588" lon="99.634851">
<time>2016-10-07T09:08:27Z</time></trkpt>
<trkpt lat="27.907588" lon="99.634751">
<time>2016-10-07T09:08:28Z</time></trkpt>
<trkpt lat="27.907598" lon="99.634661">
<time>2016-10-07T09:08:29Z</time></trkpt>
<trkpt lat="27.907618" lon="99.634551">
<time>2016-10-07T09:08:30Z</time></trkpt>
<trkpt lat="27.907628" lon="99.634472">
<time>2016-10-07T09:08:31Z</time></trkpt>
<trkpt lat="27.907649" lon="99.634392">
<time>2016-10-07T09:08:32Z</time></trkpt>
<trkpt lat="27.907689" lon="99.634282">
<time>2016-10-07T09:08:33Z</time></trkpt>
<trkpt lat="27.907729" lon="99.634172">
<time>2016-10-07T09:08:34Z</time></trkpt>
<trkpt lat="27.907759" lon="99.634092">
<time>2016-10-07T09:08:35Z</time></trkpt>
<trkpt lat="27.907789" lon="99.634032">
<time>2016-10-07T09:08:36Z</time></trkpt>
<trkpt lat="27.907849" lon="99.633942">
<time>2016-10-07T09:08:37Z</time></trkpt>
<trkpt lat="27.907919" lon="99.633823">
<time>2016-10-07T09:08:38Z</time></trkpt>
<trkpt lat="27.908" lon="99.633733">
<time>2016-10-07T09:08:39Z</time></trkpt>
<trkpt lat="27.90806" lon="99.633663">
<time>2016-10-07T09:08:40Z</time></trkpt>
<trkpt lat="27.90814" lon="99.633593">
<time>2016-10-07T09:08:41Z</time></trkpt>
<trkpt lat="27.90822" lon="99.633523">
<time>2016-10-07T09:08:42Z</time></trkpt>
<trkpt lat="27.90837" lon="99.633423">
<time>2016-10-07T09:08:43Z</time></trkpt>
<trkpt lat="27.90852" lon="99.633354">
<time>2016-10-07T09:08:44Z</time></trkpt>
<trkpt lat="27.90867" lon="99.633294">
<time>2016-10-07T09:08:45Z</time></trkpt>
<trkpt lat="27.90885" lon="99.633234">
<time>2016-10-07T09:08:46Z</time></trkpt>
<trkpt lat="27.909071" lon="99.633174">
<time>2016-10-07T09:08:47Z</time></trkpt>
<trkpt lat="27.909281" lon="99.633124">
<time>2016-10-07T09:08:48Z</time></trkpt>
<trkpt lat="27.909451" lon="99.633074">
<time>2016-10-07T09:08:49Z</time></trkpt>
<trkpt lat="27.909571" lon="99.633044">
<time>2016-10-07T09:08:50Z</time></trkpt>
<trkpt lat="27.909691" lon="99.633004">
<time>2016-10-07T09:08:51Z</time></trkpt>
<trkpt lat="27.909791" lon="99.632964">
<time>2016-10-07T09:08:52Z</time></trkpt>
<trkpt lat="27.909921" lon="99.632904">
<time>2016-10-07T09:08:53Z</time></trkpt>
<trkpt lat="27.910081" lon="99.632814">
<time>2016-10-07T09:08:54Z</time></trkpt>
<trkpt lat="27.910191" lon="99.632735">
<time>2016-10-07T09:08:55Z</time></trkpt>
<trkpt lat="27.910291" lon="99.632665">
<time>2016-10-07T09:08:56Z</time></trkpt>
<trkpt lat="27.910382" lon="99.632595">
<time>2016-10-07T09:08:57Z</time></trkpt>
<trkpt lat="27.910512" lon="99.632475">
<time>2016-10-07T09:08:58Z</time></trkpt>
<trkpt lat="27.910632" lon="99.632355">
<time>2016-10-07T09:08:59Z</time></trkpt>
<trkpt lat="27.910772" lon="99.632215">
<time>2016-10-07T09:09:00Z</time></trkpt>
<trkpt lat="27.910912" lon="99.632076">
<time>2016-10-07T09:09:01Z</time></trkpt>
<trkpt lat="27.911063" lon="99.631926">
<time>2016-10-07T09:09:02Z</time></trkpt>
<trkpt lat="27.911163" lon="99.631836">
<time>2016-10-07T09:09:03Z</time></trkpt>
<trkpt lat="27.911263" lon="99.631766">
<time>2016-10-07T09:09:04Z</time></trkpt>
<trkpt lat="27.911383" lon="99.631686">
<time>2016-10-07T09:09:05Z</time></trkpt>
<trkpt lat="27.911483" lon="99.631627">
<time>2016-10-07T09:09:06Z</time></trkpt>
<trkpt lat="27.911553" lon="99.631597">
<time>2016-10-07T09:09:07Z</time></trkpt>
<trkpt lat="27.911653" lon="99.631537">
<time>2016-10-07T09:09:08Z</time></trkpt>
<trkpt lat="27.911763" lon="99.631497">
<time>2016-10-07T09:09:09Z</time></trkpt>
<trkpt lat="27.911853" lon="99.631467">
<time>2016-10-07T09:09:10Z</time></trkpt>
<trkpt lat="27.911953" lon="99.631437">
<time>2016-10-07T09:09:11Z</time></trkpt>
<trkpt lat="27.912013" lon="99.631427">
<time>2016-10-07T09:09:12Z</time></trkpt>
<trkpt lat="27.912093" lon="99.631417">
<time>2016-10-07T09:09:13Z</time></trkpt>
<trkpt lat="27.912143" lon="99.631407">
<time>2016-10-07T09:09:14Z</time></trkpt>
<trkpt lat="27.912193" lon="99.631407">
<time>2016-10-07T09:09:15Z</time></trkpt>
<trkpt lat="27.912333" lon="99.631397">
<time>2016-10-07T09:09:16Z</time></trkpt>
<trkpt lat="27.912453" lon="99.631407">
<time>2016-10-07T09:09:17Z</time></trkpt>
<trkpt lat="27.912834" lon="99.631437">
<time>2016-10-07T09:09:18Z</time></trkpt>
<trkpt lat="27.913104" lon="99.631447">
<time>2016-10-07T09:09:19Z</time></trkpt>
<trkpt lat="27.913334" lon="99.631447">
<time>2016-10-07T09:09:20Z</time></trkpt>
<trkpt lat="27.913554" lon="99.631417">
<time>2016-10-07T09:09:21Z</time></trkpt>
<trkpt lat="27.913684" lon="99.631377">
<time>2016-10-07T09:09:22Z</time></trkpt>
<trkpt lat="27.913804" lon="99.631317">
<time>2016-10-07T09:09:23Z</time></trkpt>
<trkpt lat="27.914004" lon="99.631197">
<time>2016-10-07T09:09:24Z</time></trkpt>
<trkpt lat="27.914124" lon="99.631107">
<time>2016-10-07T09:09:25Z</time></trkpt>
<trkpt lat="27.914264" lon="99.630968">
<time>2016-10-07T09:09:26Z</time></trkpt>
<trkpt lat="27.914405" lon="99.630768">
<time>2016-10-07T09:09:27Z</time></trkpt>
<trkpt lat="27.914585" lon="99.630488">
<time>2016-10-07T09:09:28Z</time></trkpt>
<trkpt lat="27.914866" lon="99.630009">
<time>2016-10-07T09:09:29Z</time></trkpt>
<trkpt lat="27.915547" lon="99.628861">
<time>2016-10-07T09:09:30Z</time></trkpt>
<trkpt lat="27.915858" lon="99.628342">
<time>2016-10-07T09:09:31Z</time></trkpt>
<trkpt lat="27.916028" lon="99.628082">
<time>2016-10-07T09:09:32Z</time></trkpt>
<trkpt lat="27.916159" lon="99.627903">
<time>2016-10-07T09:09:33Z</time></trkpt>
<trkpt lat="27.916289" lon="99.627743">
<time>2016-10-07T09:09:34Z</time></trkpt>
<trkpt lat="27.916509" lon="99.627503">
<time>2016-10-07T09:09:35Z</time></trkpt>
<trkpt lat="27.916629" lon="99.627393">
<time>2016-10-07T09:09:36Z</time></trkpt>
<trkpt lat="27.916679" lon="99.627354">
<time>2016-10-07T09:09:37Z</time></trkpt>
<trkpt lat="27.91698" lon="99.627104">
<time>2016-10-07T09:09:38Z</time></trkpt>
<trkpt lat="27.91719" lon="99.626974">
<time>2016-10-07T09:09:39Z</time></trkpt>
<trkpt lat="27.91778" lon="99.626615">
<time>2016-10-07T09:09:40Z</time></trkpt>
<trkpt lat="27.918261" lon="99.626325">
<time>2016-10-07T09:09:41Z</time></trkpt>
<trkpt lat="27.918791" lon="99.626006">
<time>2016-10-07T09:09:42Z</time></trkpt>
<trkpt lat="27.919352" lon="99.625676">
<time>2016-10-07T09:09:43Z</time></trkpt>
<trkpt lat="27.919772" lon="99.625397">
<time>2016-10-07T09:09:44Z</time></trkpt>
<trkpt lat="27.920062" lon="99.625207">
<time>2016-10-07T09:09:45Z</time></trkpt>
<trkpt lat="27.920343" lon="99.625017">
<time>2016-10-07T09:09:46Z</time></trkpt>
<trkpt lat="27.920853" lon="99.624678">
<time>2016-10-07T09:09:47Z</time></trkpt>
<trkpt lat="27.921264" lon="99.624418">
<time>2016-10-07T09:09:48Z</time></trkpt>
<trkpt lat="27.921614" lon="99.624188">
<time>2016-10-07T09:09:49Z</time></trkpt>
<trkpt lat="27.921994" lon="99.623929">
<time>2016-10-07T09:09:50Z</time></trkpt>
<trkpt lat="27.922715" lon="99.623459">
<time>2016-10-07T09:09:51Z</time></trkpt>
<trkpt lat="27.924747" lon="99.622141">
<time>2016-10-07T09:09:52Z</time></trkpt>
<trkpt lat="27.925007" lon="99.621961">
<time>2016-10-07T09:09:53Z</time></trkpt>
<trkpt lat="27.925497" lon="99.621652">
<time>2016-10-07T09:09:54Z</time></trkpt>
<trkpt lat="27.925868" lon="99.621392">
<time>2016-10-07T09:09:55Z</time></trkpt>
<trkpt lat="27.926098" lon="99.621232">
<time>2016-10-07T09:09:56Z</time></trkpt>
<trkpt lat="27.926528" lon="99.620903">
<time>2016-10-07T09:09:57Z</time></trkpt>
<trkpt lat="27.926808" lon="99.620673">
<time>2016-10-07T09:09:58Z</time></trkpt>
<trkpt lat="27.927349" lon="99.620164">
<time>2016-10-07T09:09:59Z</time></trkpt>
<trkpt lat="27.929862" lon="99.617797">
<time>2016-10-07T09:10:00Z</time></trkpt>
<trkpt lat="27.931123" lon="99.616558">
<time>2016-10-07T09:10:01Z</time></trkpt>
<trkpt lat="27.931573" lon="99.616069">
<time>2016-10-07T09:10:02Z</time></trkpt>
<trkpt lat="27.932104" lon="99.61537">
<time>2016-10-07T09:10:03Z</time></trkpt>
<trkpt lat="27.932615" lon="99.61472">
<time>2016-10-07T09:10:04Z</time></trkpt>
<trkpt lat="27.932935" lon="99.614251">
<time>2016-10-07T09:10:05Z</time></trkpt>
<trkpt lat="27.933506" lon="99.613362">
<time>2016-10-07T09:10:06Z</time></trkpt>
<trkpt lat="27.934387" lon="99.611963">
<time>2016-10-07T09:10:07Z</time></trkpt>
<trkpt lat="27.935038" lon="99.610784">
<time>2016-10-07T09:10:08Z</time></trkpt>
<trkpt lat="27.935398" lon="99.610075">
<time>2016-10-07T09:10:09Z</time></trkpt>
<trkpt lat="27.936009" lon="99.608846">
<time>2016-10-07T09:10:10Z</time></trkpt>
<trkpt lat="27.936099" lon="99.608666">
<time>2016-10-07T09:10:11Z</time></trkpt>
<trkpt lat="27.936179" lon="99.608506">
<time>2016-10-07T09:10:12Z</time></trkpt>
<trkpt lat="27.936279" lon="99.608327">
<time>2016-10-07T09:10:13Z</time></trkpt>
<trkpt lat="27.936409" lon="99.608097">
<time>2016-10-07T09:10:14Z</time></trkpt>
<trkpt lat="27.936549" lon="99.607857">
<time>2016-10-07T09:10:15Z</time></trkpt>
<trkpt lat="27.93692" lon="99.607277">
<time>2016-10-07T09:10:16Z</time></trkpt>
<trkpt lat="27.9371" lon="99.607008">
<time>2016-10-07T09:10:17Z</time></trkpt>
<trkpt lat="27.93728" lon="99.606758">
<time>2016-10-07T09:10:18Z</time></trkpt>
<trkpt lat="27.93749" lon="99.606468">
<time>2016-10-07T09:10:19Z</time></trkpt>
<trkpt lat="27.93777" lon="99.606118">
<time>2016-10-07T09:10:20Z</time></trkpt>
<trkpt lat="27.937951" lon="99.605908">
<time>2016-10-07T09:10:21Z</time></trkpt>
<trkpt lat="27.938161" lon="99.605659">
<time>2016-10-07T09:10:22Z</time></trkpt>
<trkpt lat="27.938401" lon="99.605389">
<time>2016-10-07T09:10:23Z</time></trkpt>
<trkpt lat="27.939031" lon="99.604719">
<time>2016-10-07T09:10:24Z</time></trkpt>
<trkpt lat="27.939862" lon="99.60384">
<time>2016-10-07T09:10:25Z</time></trkpt>
<trkpt lat="27.940452" lon="99.60321">
<time>2016-10-07T09:10:26Z</time></trkpt>
<trkpt lat="27.940992" lon="99.602621">
<time>2016-10-07T09:10:27Z</time></trkpt>
<trkpt lat="27.941702" lon="99.601851">
<time>2016-10-07T09:10:28Z</time></trkpt>
<trkpt lat="27.942313" lon="99.601181">
<time>2016-10-07T09:10:29Z</time></trkpt>
<trkpt lat="27.942893" lon="99.600562">
<time>2016-10-07T09:10:30Z</time></trkpt>
<trkpt lat="27.943433" lon="99.599992">
<time>2016-10-07T09:10:31Z</time></trkpt>
<trkpt lat="27.943823" lon="99.599572">
<time>2016-10-07T09:10:32Z</time></trkpt>
<trkpt lat="27.944193" lon="99.599172">
<time>2016-10-07T09:10:33Z</time></trkpt>
<trkpt lat="27.944613" lon="99.598752">
<time>2016-10-07T09:10:34Z</time></trkpt>
<trkpt lat="27.944934" lon="99.598442">
<time>2016-10-07T09:10:35Z</time></trkpt>
<trkpt lat="27.945204" lon="99.598203">
<time>2016-10-07T09:10:36Z</time></trkpt>
<trkpt lat="27.945504" lon="99.597953">
<time>2016-10-07T09:10:37Z</time></trkpt>
<trkpt lat="27.945854" lon="99.597683">
<time>2016-10-07T09:10:38Z</time></trkpt>
<trkpt lat="27.946304" lon="99.597363">
<time>2016-10-07T09:10:39Z</time></trkpt>
<trkpt lat="27.946684" lon="99.597103">
<time>2016-10-07T09:10:40Z</time></trkpt>
<trkpt lat="27.947014" lon="99.596873">
<time>2016-10-07T09:10:41Z</time></trkpt>
<trkpt lat="27.947224" lon="99.596723">
<time>2016-10-07T09:10:42Z</time></trkpt>
<trkpt lat="27.947404" lon="99.596593">
<time>2016-10-07T09:10:43Z</time></trkpt>
<trkpt lat="27.947574" lon="99.596453">
<time>2016-10-07T09:10:44Z</time></trkpt>
<trkpt lat="27.948284" lon="99.595903">
<time>2016-10-07T09:10:45Z</time></trkpt>
<trkpt lat="27.948554" lon="99.595713">
<time>2016-10-07T09:10:46Z</time></trkpt>
<trkpt lat="27.948904" lon="99.595493">
<time>2016-10-07T09:10:47Z</time></trkpt>
<trkpt lat="27.949144" lon="99.595333">
<time>2016-10-07T09:10:48Z</time></trkpt>
<trkpt lat="27.949334" lon="99.595223">
<time>2016-10-07T09:10:49Z</time></trkpt>
<trkpt lat="27.949494" lon="99.595133">
<time>2016-10-07T09:10:50Z</time></trkpt>
<trkpt lat="27.949924" lon="99.594893">
<time>2016-10-07T09:10:51Z</time></trkpt>
<trkpt lat="27.950284" lon="99.594673">
<time>2016-10-07T09:10:52Z</time></trkpt>
<trkpt lat="27.950765" lon="99.594403">
<time>2016-10-07T09:10:53Z</time></trkpt>
<trkpt lat="27.951155" lon="99.594163">
<time>2016-10-07T09:10:54Z</time></trkpt>
<trkpt lat="27.951455" lon="99.593964">
<time>2016-10-07T09:10:55Z</time></trkpt>
<trkpt lat="27.951735" lon="99.593774">
<time>2016-10-07T09:10:56Z</time></trkpt>
<trkpt lat="27.951995" lon="99.593574">
<time>2016-10-07T09:10:57Z</time></trkpt>
<trkpt lat="27.952205" lon="99.593414">
<time>2016-10-07T09:10:58Z</time></trkpt>
<trkpt lat="27.952365" lon="99.593284">
<time>2016-10-07T09:10:59Z</time></trkpt>
<trkpt lat="27.952515" lon="99.593144">
<time>2016-10-07T09:11:00Z</time></trkpt>
<trkpt lat="27.952795" lon="99.592914">
<time>2016-10-07T09:11:01Z</time></trkpt>
<trkpt lat="27.953505" lon="99.592254">
<time>2016-10-07T09:11:02Z</time></trkpt>
<trkpt lat="27.954055" lon="99.591724">
<time>2016-10-07T09:11:03Z</time></trkpt>
<trkpt lat="27.954485" lon="99.591314">
<time>2016-10-07T09:11:04Z</time></trkpt>
<trkpt lat="27.954825" lon="99.590994">
<time>2016-10-07T09:11:05Z</time></trkpt>
<trkpt lat="27.955005" lon="99.590864">
<time>2016-10-07T09:11:06Z</time></trkpt>
<trkpt lat="27.955145" lon="99.590764">
<time>2016-10-07T09:11:07Z</time></trkpt>
<trkpt lat="27.955295" lon="99.590664">
<time>2016-10-07T09:11:08Z</time></trkpt>
<trkpt lat="27.955625" lon="99.590484">
<time>2016-10-07T09:11:09Z</time></trkpt>
<trkpt lat="27.955925" lon="99.590334">
<time>2016-10-07T09:11:10Z</time></trkpt>
<trkpt lat="27.956175" lon="99.590224">
<time>2016-10-07T09:11:11Z</time></trkpt>
<trkpt lat="27.956495" lon="99.590074">
<time>2016-10-07T09:11:12Z</time></trkpt>
<trkpt lat="27.956765" lon="99.589954">
<time>2016-10-07T09:11:13Z</time></trkpt>
<trkpt lat="27.957285" lon="99.589714">
<time>2016-10-07T09:11:14Z</time></trkpt>
<trkpt lat="27.957825" lon="99.589454">
<time>2016-10-07T09:11:15Z</time></trkpt>
<trkpt lat="27.958395" lon="99.589154">
<time>2016-10-07T09:11:16Z</time></trkpt>
<trkpt lat="27.959005" lon="99.588814">
<time>2016-10-07T09:11:17Z</time></trkpt>
<trkpt lat="27.959245" lon="99.588704">
<time>2016-10-07T09:11:18Z</time></trkpt>
<trkpt lat="27.959515" lon="99.588583">
<time>2016-10-07T09:11:19Z</time></trkpt>
<trkpt lat="27.959735" lon="99.588483">
<time>2016-10-07T09:11:20Z</time></trkpt>
<trkpt lat="27.959895" lon="99.588433">
<time>2016-10-07T09:11:21Z</time></trkpt>
<trkpt lat="27.960015" lon="99.588383">
<time>2016-10-07T09:11:22Z</time></trkpt>
<trkpt lat="27.960175" lon="99.588343">
<time>2016-10-07T09:11:23Z</time></trkpt>
<trkpt lat="27.960335" lon="99.588293">
<time>2016-10-07T09:11:24Z</time></trkpt>
<trkpt lat="27.960655" lon="99.588203">
<time>2016-10-07T09:11:25Z</time></trkpt>
<trkpt lat="27.960875" lon="99.588153">
<time>2016-10-07T09:11:26Z</time></trkpt>
<trkpt lat="27.961085" lon="99.588103">
<time>2016-10-07T09:11:27Z</time></trkpt>
<trkpt lat="27.961335" lon="99.588033">
<time>2016-10-07T09:11:28Z</time></trkpt>
<trkpt lat="27.961515" lon="99.587973">
<time>2016-10-07T09:11:29Z</time></trkpt>
<trkpt lat="27.961665" lon="99.587913">
<time>2016-10-07T09:11:30Z</time></trkpt>
<trkpt lat="27.961795" lon="99.587863">
<time>2016-10-07T09:11:31Z</time></trkpt>
<trkpt lat="27.962025" lon="99.587753">
<time>2016-10-07T09:11:32Z</time></trkpt>
<trkpt lat="27.962215" lon="99.587663">
<time>2016-10-07T09:11:33Z</time></trkpt>
<trkpt lat="27.962375" lon="99.587583">
<time>2016-10-07T09:11:34Z</time></trkpt>
<trkpt lat="27.962645" lon="99.587413">
<time>2016-10-07T09:11:35Z</time></trkpt>
<trkpt lat="27.962805" lon="99.587303">
<time>2016-10-07T09:11:36Z</time></trkpt>
<trkpt lat="27.962975" lon="99.587183">
<time>2016-10-07T09:11:37Z</time></trkpt>
<trkpt lat="27.963205" lon="99.586993">
<time>2016-10-07T09:11:38Z</time></trkpt>
<trkpt lat="27.963365" lon="99.586853">
<time>2016-10-07T09:11:39Z</time></trkpt>
<trkpt lat="27.963515" lon="99.586703">
<time>2016-10-07T09:11:40Z</time></trkpt>
<trkpt lat="27.963655" lon="99.586563">
<time>2016-10-07T09:11:41Z</time></trkpt>
<trkpt lat="27.963825" lon="99.586373">
<time>2016-10-07T09:11:42Z</time></trkpt>
<trkpt lat="27.964015" lon="99.586123">
<time>2016-10-07T09:11:43Z</time></trkpt>
<trkpt lat="27.964114" lon="99.585993">
<time>2016-10-07T09:11:44Z</time></trkpt>
<trkpt lat="27.964234" lon="99.585813">
<time>2016-10-07T09:11:45Z</time></trkpt>
<trkpt lat="27.965394" lon="99.583912">
<time>2016-10-07T09:11:46Z</time></trkpt>
<trkpt lat="27.965613" lon="99.583532">
<time>2016-10-07T09:11:47Z</time></trkpt>
<trkpt lat="27.965873" lon="99.583212">
<time>2016-10-07T09:11:48Z</time></trkpt>
<trkpt lat="27.967083" lon="99.581922">
<time>2016-10-07T09:11:49Z</time></trkpt>
<trkpt lat="27.967742" lon="99.580801">
<time>2016-10-07T09:11:50Z</time></trkpt>
<trkpt lat="27.967972" lon="99.580521">
<time>2016-10-07T09:11:51Z</time></trkpt>
<trkpt lat="27.968192" lon="99.580311">
<time>2016-10-07T09:11:52Z</time></trkpt>
<trkpt lat="27.968352" lon="99.580211">
<time>2016-10-07T09:11:53Z</time></trkpt>
<trkpt lat="27.968582" lon="99.580111">
<time>2016-10-07T09:11:54Z</time></trkpt>
<trkpt lat="27.969292" lon="99.579891">
<time>2016-10-07T09:11:55Z</time></trkpt>
<trkpt lat="27.969592" lon="99.57981">
<time>2016-10-07T09:11:56Z</time></trkpt>
<trkpt lat="27.969902" lon="99.57966">
<time>2016-10-07T09:11:57Z</time></trkpt>
<trkpt lat="27.970201" lon="99.57947">
<time>2016-10-07T09:11:58Z</time></trkpt>
<trkpt lat="27.970591" lon="99.57907">
<time>2016-10-07T09:11:59Z</time></trkpt>
<trkpt lat="27.970981" lon="99.57863">
<time>2016-10-07T09:12:00Z</time></trkpt>
<trkpt lat="27.971421" lon="99.57822">
<time>2016-10-07T09:12:01Z</time></trkpt>
<trkpt lat="27.971571" lon="99.578099">
<time>2016-10-07T09:12:02Z</time></trkpt>
<trkpt lat="27.971771" lon="99.578009">
<time>2016-10-07T09:12:03Z</time></trkpt>
<trkpt lat="27.972071" lon="99.577879">
<time>2016-10-07T09:12:04Z</time></trkpt>
<trkpt lat="27.97267" lon="99.577669">
<time>2016-10-07T09:12:05Z</time></trkpt>
<trkpt lat="27.97297" lon="99.577509">
<time>2016-10-07T09:12:06Z</time></trkpt>
<trkpt lat="27.97335" lon="99.577259">
<time>2016-10-07T09:12:07Z</time></trkpt>
<trkpt lat="27.97411" lon="99.576588">
<time>2016-10-07T09:12:08Z</time></trkpt>
<trkpt lat="27.976218" lon="99.574507">
<time>2016-10-07T09:12:09Z</time></trkpt>
<trkpt lat="27.976588" lon="99.574157">
<time>2016-10-07T09:12:10Z</time></trkpt>
<trkpt lat="27.976848" lon="99.573946">
<time>2016-10-07T09:12:11Z</time></trkpt>
<trkpt lat="27.977078" lon="99.573796">
<time>2016-10-07T09:12:12Z</time></trkpt>
<trkpt lat="27.977258" lon="99.573716">
<time>2016-10-07T09:12:13Z</time></trkpt>
<trkpt lat="27.977418" lon="99.573676">
<time>2016-10-07T09:12:14Z</time></trkpt>
<trkpt lat="27.977548" lon="99.573646">
<time>2016-10-07T09:12:15Z</time></trkpt>
<trkpt lat="27.977758" lon="99.573616">
<time>2016-10-07T09:12:16Z</time></trkpt>
<trkpt lat="27.978268" lon="99.573566">
<time>2016-10-07T09:12:17Z</time></trkpt>
<trkpt lat="27.978568" lon="99.573526">
<time>2016-10-07T09:12:18Z</time></trkpt>
<trkpt lat="27.978778" lon="99.573456">
<time>2016-10-07T09:12:19Z</time></trkpt>
<trkpt lat="27.978977" lon="99.573366">
<time>2016-10-07T09:12:20Z</time></trkpt>
<trkpt lat="27.979187" lon="99.573206">
<time>2016-10-07T09:12:21Z</time></trkpt>
<trkpt lat="27.979307" lon="99.573086">
<time>2016-10-07T09:12:22Z</time></trkpt>
<trkpt lat="27.979407" lon="99.572945">
<time>2016-10-07T09:12:23Z</time></trkpt>
<trkpt lat="27.979477" lon="99.572845">
<time>2016-10-07T09:12:24Z</time></trkpt>
<trkpt lat="27.979567" lon="99.572685">
<time>2016-10-07T09:12:25Z</time></trkpt>
<trkpt lat="27.979876" lon="99.571935">
<time>2016-10-07T09:12:26Z</time></trkpt>
<trkpt lat="27.980156" lon="99.571454">
<time>2016-10-07T09:12:27Z</time></trkpt>
<trkpt lat="27.980365" lon="99.571204">
<time>2016-10-07T09:12:28Z</time></trkpt>
<trkpt lat="27.980705" lon="99.570934">
<time>2016-10-07T09:12:29Z</time></trkpt>
<trkpt lat="27.981804" lon="99.570203">
<time>2016-10-07T09:12:30Z</time></trkpt>
<trkpt lat="27.982984" lon="99.569472">
<time>2016-10-07T09:12:31Z</time></trkpt>
<trkpt lat="27.983803" lon="99.568931">
<time>2016-10-07T09:12:32Z</time></trkpt>
<trkpt lat="27.983983" lon="99.568831">
<time>2016-10-07T09:12:33Z</time></trkpt>
<trkpt lat="27.984153" lon="99.568731">
<time>2016-10-07T09:12:34Z</time></trkpt>
<trkpt lat="27.984333" lon="99.568641">
<time>2016-10-07T09:12:35Z</time></trkpt>
<trkpt lat="27.984503" lon="99.568601">
<time>2016-10-07T09:12:36Z</time></trkpt>
<trkpt lat="27.984643" lon="99.568561">
<time>2016-10-07T09:12:37Z</time></trkpt>
<trkpt lat="27.984743" lon="99.568551">
<time>2016-10-07T09:12:38Z</time></trkpt>
<trkpt lat="27.984913" lon="99.568541">
<time>2016-10-07T09:12:39Z</time></trkpt>
<trkpt lat="27.985083" lon="99.568551">
<time>2016-10-07T09:12:40Z</time></trkpt>
<trkpt lat="27.985293" lon="99.568581">
<time>2016-10-07T09:12:41Z</time></trkpt>
<trkpt lat="27.985453" lon="99.568631">
<time>2016-10-07T09:12:42Z</time></trkpt>
<trkpt lat="27.985623" lon="99.568691">
<time>2016-10-07T09:12:43Z</time></trkpt>
<trkpt lat="27.985833" lon="99.568801">
<time>2016-10-07T09:12:44Z</time></trkpt>
<trkpt lat="27.986064" lon="99.568931">
<time>2016-10-07T09:12:45Z</time></trkpt>
<trkpt lat="27.986314" lon="99.569082">
<time>2016-10-07T09:12:46Z</time></trkpt>
<trkpt lat="27.986424" lon="99.569142">
<time>2016-10-07T09:12:47Z</time></trkpt>
<trkpt lat="27.986584" lon="99.569212">
<time>2016-10-07T09:12:48Z</time></trkpt>
<trkpt lat="27.986744" lon="99.569262">
<time>2016-10-07T09:12:49Z</time></trkpt>
<trkpt lat="27.986854" lon="99.569292">
<time>2016-10-07T09:12:50Z</time></trkpt>
<trkpt lat="27.986994" lon="99.569292">
<time>2016-10-07T09:12:51Z</time></trkpt>
<trkpt lat="27.987074" lon="99.569292">
<time>2016-10-07T09:12:52Z</time></trkpt>
<trkpt lat="27.987174" lon="99.569282">
<time>2016-10-07T09:12:53Z</time></trkpt>
<trkpt lat="27.987394" lon="99.569222">
<time>2016-10-07T09:12:54Z</time></trkpt>
<trkpt lat="27.987504" lon="99.569162">
<time>2016-10-07T09:12:55Z</time></trkpt>
<trkpt lat="27.987564" lon="99.569132">
<time>2016-10-07T09:12:56Z</time></trkpt>
<trkpt lat="27.987604" lon="99.569112">
<time>2016-10-07T09:12:57Z</time></trkpt>
<trkpt lat="27.987654" lon="99.569082">
<time>2016-10-07T09:12:58Z</time></trkpt>
<trkpt lat="27.987724" lon="99.569021">
<time>2016-10-07T09:12:59Z</time></trkpt>
<trkpt lat="27.987784" lon="99.568971">
<time>2016-10-07T09:13:00Z</time></trkpt>
<trkpt lat="27.987854" lon="99.568891">
<time>2016-10-07T09:13:01Z</time></trkpt>
<trkpt lat="27.987974" lon="99.568751">
<time>2016-10-07T09:13:02Z</time></trkpt>
<trkpt lat="27.988143" lon="99.568391">
<time>2016-10-07T09:13:03Z</time></trkpt>
<trkpt lat="27.988909" lon="99.564807">
<time>2016-10-07T09:13:04Z</time></trkpt>
<trkpt lat="27.988998" lon="99.564516">
<time>2016-10-07T09:13:05Z</time></trkpt>
<trkpt lat="27.989098" lon="99.564306">
<time>2016-10-07T09:13:06Z</time></trkpt>
<trkpt lat="27.989158" lon="99.564186">
<time>2016-10-07T09:13:07Z</time></trkpt>
<trkpt lat="27.989248" lon="99.564066">
<time>2016-10-07T09:13:08Z</time></trkpt>
<trkpt lat="27.989318" lon="99.563996">
<time>2016-10-07T09:13:09Z</time></trkpt>
<trkpt lat="27.989377" lon="99.563935">
<time>2016-10-07T09:13:10Z</time></trkpt>
<trkpt lat="27.989467" lon="99.563855">
<time>2016-10-07T09:13:11Z</time></trkpt>
<trkpt lat="27.989557" lon="99.563785">
<time>2016-10-07T09:13:12Z</time></trkpt>
<trkpt lat="27.989667" lon="99.563725">
<time>2016-10-07T09:13:13Z</time></trkpt>
<trkpt lat="27.989797" lon="99.563655">
<time>2016-10-07T09:13:14Z</time></trkpt>
<trkpt lat="27.990427" lon="99.563395">
<time>2016-10-07T09:13:15Z</time></trkpt>
<trkpt lat="27.990957" lon="99.563124">
<time>2016-10-07T09:13:16Z</time></trkpt>
<trkpt lat="27.991176" lon="99.562944">
<time>2016-10-07T09:13:17Z</time></trkpt>
<trkpt lat="27.991406" lon="99.562734">
<time>2016-10-07T09:13:18Z</time></trkpt>
<trkpt lat="27.991835" lon="99.562243">
<time>2016-10-07T09:13:19Z</time></trkpt>
<trkpt lat="27.992055" lon="99.561943">
<time>2016-10-07T09:13:20Z</time></trkpt>
<trkpt lat="27.992454" lon="99.561562">
<time>2016-10-07T09:13:21Z</time></trkpt>
<trkpt lat="27.993104" lon="99.561082">
<time>2016-10-07T09:13:22Z</time></trkpt>
<trkpt lat="27.993913" lon="99.56034">
<time>2016-10-07T09:13:23Z</time></trkpt>
<trkpt lat="27.994302" lon="99.55992">
<time>2016-10-07T09:13:24Z</time></trkpt>
<trkpt lat="27.994671" lon="99.559449">
<time>2016-10-07T09:13:25Z</time></trkpt>
<trkpt lat="27.995021" lon="99.558988">
<time>2016-10-07T09:13:26Z</time></trkpt>
<trkpt lat="27.99529" lon="99.558698">
<time>2016-10-07T09:13:27Z</time></trkpt>
<trkpt lat="27.99555" lon="99.558488">
<time>2016-10-07T09:13:28Z</time></trkpt>
<trkpt lat="27.99579" lon="99.558307">
<time>2016-10-07T09:13:29Z</time></trkpt>
<trkpt lat="27.996119" lon="99.558097">
<time>2016-10-07T09:13:30Z</time></trkpt>
<trkpt lat="27.996349" lon="99.557957">
<time>2016-10-07T09:13:31Z</time></trkpt>
<trkpt lat="27.996629" lon="99.557756">
<time>2016-10-07T09:13:32Z</time></trkpt>
<trkpt lat="27.996879" lon="99.557546">
<time>2016-10-07T09:13:33Z</time></trkpt>
<trkpt lat="27.997148" lon="99.557256">
<time>2016-10-07T09:13:34Z</time></trkpt>
<trkpt lat="27.997358" lon="99.556985">
<time>2016-10-07T09:13:35Z</time></trkpt>
<trkpt lat="27.998695" lon="99.555262">
<time>2016-10-07T09:13:36Z</time></trkpt>
<trkpt lat="27.998954" lon="99.554932">
<time>2016-10-07T09:13:37Z</time></trkpt>
<trkpt lat="27.999194" lon="99.554671">
<time>2016-10-07T09:13:38Z</time></trkpt>
<trkpt lat="27.999414" lon="99.554501">
<time>2016-10-07T09:13:39Z</time></trkpt>
<trkpt lat="27.999554" lon="99.554401">
<time>2016-10-07T09:13:40Z</time></trkpt>
<trkpt lat="27.999833" lon="99.554221">
<time>2016-10-07T09:13:41Z</time></trkpt>
<trkpt lat="27.999903" lon="99.554181">
<time>2016-10-07T09:13:42Z</time></trkpt>
<trkpt lat="28.000023" lon="99.5541">
<time>2016-10-07T09:13:43Z</time></trkpt>
<trkpt lat="28.000173" lon="99.55401">
<time>2016-10-07T09:13:44Z</time></trkpt>
<trkpt lat="28.000443" lon="99.55384">
<time>2016-10-07T09:13:45Z</time></trkpt>
<trkpt lat="28.000692" lon="99.55363">
<time>2016-10-07T09:13:46Z</time></trkpt>
<trkpt lat="28.000792" lon="99.553529">
<time>2016-10-07T09:13:47Z</time></trkpt>
<trkpt lat="28.000942" lon="99.553359">
<time>2016-10-07T09:13:48Z</time></trkpt>
<trkpt lat="28.001121" lon="99.553099">
<time>2016-10-07T09:13:49Z</time></trkpt>
<trkpt lat="28.00151" lon="99.552487">
<time>2016-10-07T09:13:50Z</time></trkpt>
<trkpt lat="28.00169" lon="99.552277">
<time>2016-10-07T09:13:51Z</time></trkpt>
<trkpt lat="28.00184" lon="99.552097">
<time>2016-10-07T09:13:52Z</time></trkpt>
<trkpt lat="28.002119" lon="99.551866">
<time>2016-10-07T09:13:53Z</time></trkpt>
<trkpt lat="28.002399" lon="99.551696">
<time>2016-10-07T09:13:54Z</time></trkpt>
<trkpt lat="28.002859" lon="99.551456">
<time>2016-10-07T09:13:55Z</time></trkpt>
<trkpt lat="28.003128" lon="99.551345">
<time>2016-10-07T09:13:56Z</time></trkpt>
<trkpt lat="28.003568" lon="99.551115">
<time>2016-10-07T09:13:57Z</time></trkpt>
<trkpt lat="28.003868" lon="99.550895">
<time>2016-10-07T09:13:58Z</time></trkpt>
<trkpt lat="28.004137" lon="99.550684">
<time>2016-10-07T09:13:59Z</time></trkpt>
<trkpt lat="28.004287" lon="99.550544">
<time>2016-10-07T09:14:00Z</time></trkpt>
<trkpt lat="28.004427" lon="99.550394">
<time>2016-10-07T09:14:01Z</time></trkpt>
<trkpt lat="28.004606" lon="99.550213">
<time>2016-10-07T09:14:02Z</time></trkpt>
<trkpt lat="28.005205" lon="99.549532">
<time>2016-10-07T09:14:03Z</time></trkpt>
<trkpt lat="28.005654" lon="99.549051">
<time>2016-10-07T09:14:04Z</time></trkpt>
<trkpt lat="28.006233" lon="99.54855">
<time>2016-10-07T09:14:05Z</time></trkpt>
<trkpt lat="28.007052" lon="99.547959">
<time>2016-10-07T09:14:06Z</time></trkpt>
<trkpt lat="28.007352" lon="99.547728">
<time>2016-10-07T09:14:07Z</time></trkpt>
<trkpt lat="28.007591" lon="99.547518">
<time>2016-10-07T09:14:08Z</time></trkpt>
<trkpt lat="28.007911" lon="99.547187">
<time>2016-10-07T09:14:09Z</time></trkpt>
<trkpt lat="28.00829" lon="99.546776">
<time>2016-10-07T09:14:10Z</time></trkpt>
<trkpt lat="28.00845" lon="99.546606">
<time>2016-10-07T09:14:11Z</time></trkpt>
<trkpt lat="28.008599" lon="99.546476">
<time>2016-10-07T09:14:12Z</time></trkpt>
<trkpt lat="28.008749" lon="99.546356">
<time>2016-10-07T09:14:13Z</time></trkpt>
<trkpt lat="28.008859" lon="99.546285">
<time>2016-10-07T09:14:14Z</time></trkpt>
<trkpt lat="28.008979" lon="99.546215">
<time>2016-10-07T09:14:15Z</time></trkpt>
<trkpt lat="28.009279" lon="99.546075">
<time>2016-10-07T09:14:16Z</time></trkpt>
<trkpt lat="28.009399" lon="99.546035">
<time>2016-10-07T09:14:17Z</time></trkpt>
<trkpt lat="28.009538" lon="99.546005">
<time>2016-10-07T09:14:18Z</time></trkpt>
<trkpt lat="28.009758" lon="99.545965">
<time>2016-10-07T09:14:19Z</time></trkpt>
<trkpt lat="28.009928" lon="99.545955">
<time>2016-10-07T09:14:20Z</time></trkpt>
<trkpt lat="28.010138" lon="99.545945">
<time>2016-10-07T09:14:21Z</time></trkpt>
<trkpt lat="28.010379" lon="99.545955">
<time>2016-10-07T09:14:22Z</time></trkpt>
<trkpt lat="28.010759" lon="99.545955">
<time>2016-10-07T09:14:23Z</time></trkpt>
<trkpt lat="28.010989" lon="99.545935">
<time>2016-10-07T09:14:24Z</time></trkpt>
<trkpt lat="28.011109" lon="99.545905">
<time>2016-10-07T09:14:25Z</time></trkpt>
<trkpt lat="28.011278" lon="99.545865">
<time>2016-10-07T09:14:26Z</time></trkpt>
<trkpt lat="28.011448" lon="99.545794">
<time>2016-10-07T09:14:27Z</time></trkpt>
<trkpt lat="28.011618" lon="99.545714">
<time>2016-10-07T09:14:28Z</time></trkpt>
<trkpt lat="28.011778" lon="99.545604">
<time>2016-10-07T09:14:29Z</time></trkpt>
<trkpt lat="28.011898" lon="99.545504">
<time>2016-10-07T09:14:30Z</time></trkpt>
<trkpt lat="28.011998" lon="99.545404">
<time>2016-10-07T09:14:31Z</time></trkpt>
<trkpt lat="28.012067" lon="99.545333">
<time>2016-10-07T09:14:32Z</time></trkpt>
<trkpt lat="28.012157" lon="99.545223">
<time>2016-10-07T09:14:33Z</time></trkpt>
<trkpt lat="28.012307" lon="99.545023">
<time>2016-10-07T09:14:34Z</time></trkpt>
<trkpt lat="28.012566" lon="99.544592">
<time>2016-10-07T09:14:35Z</time></trkpt>
<trkpt lat="28.012865" lon="99.544151">
<time>2016-10-07T09:14:36Z</time></trkpt>
<trkpt lat="28.013075" lon="99.54391">
<time>2016-10-07T09:14:37Z</time></trkpt>
<trkpt lat="28.013274" lon="99.5437">
<time>2016-10-07T09:14:38Z</time></trkpt>
<trkpt lat="28.013404" lon="99.54357">
<time>2016-10-07T09:14:39Z</time></trkpt>
<trkpt lat="28.013623" lon="99.543399">
<time>2016-10-07T09:14:40Z</time></trkpt>
<trkpt lat="28.013803" lon="99.543269">
<time>2016-10-07T09:14:41Z</time></trkpt>
<trkpt lat="28.014023" lon="99.543139">
<time>2016-10-07T09:14:42Z</time></trkpt>
<trkpt lat="28.014642" lon="99.542798">
<time>2016-10-07T09:14:43Z</time></trkpt>
<trkpt lat="28.014802" lon="99.542708">
<time>2016-10-07T09:14:44Z</time></trkpt>
<trkpt lat="28.015022" lon="99.542557">
<time>2016-10-07T09:14:45Z</time></trkpt>
<trkpt lat="28.015152" lon="99.542417">
<time>2016-10-07T09:14:46Z</time></trkpt>
<trkpt lat="28.015371" lon="99.542167">
<time>2016-10-07T09:14:47Z</time></trkpt>
<trkpt lat="28.0155" lon="99.541926">
<time>2016-10-07T09:14:48Z</time></trkpt>
<trkpt lat="28.0156" lon="99.541726">
<time>2016-10-07T09:14:49Z</time></trkpt>
<trkpt lat="28.01568" lon="99.541515">
<time>2016-10-07T09:14:50Z</time></trkpt>
<trkpt lat="28.015858" lon="99.540864">
<time>2016-10-07T09:14:51Z</time></trkpt>
<trkpt lat="28.015918" lon="99.540653">
<time>2016-10-07T09:14:52Z</time></trkpt>
<trkpt lat="28.016037" lon="99.540363">
<time>2016-10-07T09:14:53Z</time></trkpt>
<trkpt lat="28.016107" lon="99.540212">
<time>2016-10-07T09:14:54Z</time></trkpt>
<trkpt lat="28.016186" lon="99.540062">
<time>2016-10-07T09:14:55Z</time></trkpt>
<trkpt lat="28.016256" lon="99.539952">
<time>2016-10-07T09:14:56Z</time></trkpt>
<trkpt lat="28.016336" lon="99.539841">
<time>2016-10-07T09:14:57Z</time></trkpt>
<trkpt lat="28.016436" lon="99.539721">
<time>2016-10-07T09:14:58Z</time></trkpt>
<trkpt lat="28.016525" lon="99.539601">
<time>2016-10-07T09:14:59Z</time></trkpt>
<trkpt lat="28.016565" lon="99.539551">
<time>2016-10-07T09:15:00Z</time></trkpt>
<trkpt lat="28.016615" lon="99.539511">
<time>2016-10-07T09:15:01Z</time></trkpt>
<trkpt lat="28.016665" lon="99.539461">
<time>2016-10-07T09:15:02Z</time></trkpt>
<trkpt lat="28.016705" lon="99.53942">
<time>2016-10-07T09:15:03Z</time></trkpt>
<trkpt lat="28.016765" lon="99.53938">
<time>2016-10-07T09:15:04Z</time></trkpt>
<trkpt lat="28.016835" lon="99.53933">
<time>2016-10-07T09:15:05Z</time></trkpt>
<trkpt lat="28.016945" lon="99.53926">
<time>2016-10-07T09:15:06Z</time></trkpt>
<trkpt lat="28.017064" lon="99.53919">
<time>2016-10-07T09:15:07Z</time></trkpt>
<trkpt lat="28.017174" lon="99.53913">
<time>2016-10-07T09:15:08Z</time></trkpt>
<trkpt lat="28.017334" lon="99.53906">
<time>2016-10-07T09:15:09Z</time></trkpt>
<trkpt lat="28.017424" lon="99.53902">
<time>2016-10-07T09:15:10Z</time></trkpt>
<trkpt lat="28.017504" lon="99.538989">
<time>2016-10-07T09:15:11Z</time></trkpt>
<trkpt lat="28.017734" lon="99.538939">
<time>2016-10-07T09:15:12Z</time></trkpt>
<trkpt lat="28.018054" lon="99.538859">
<time>2016-10-07T09:15:13Z</time></trkpt>
<trkpt lat="28.018494" lon="99.538759">
<time>2016-10-07T09:15:14Z</time></trkpt>
<trkpt lat="28.018913" lon="99.538659">
<time>2016-10-07T09:15:15Z</time></trkpt>
<trkpt lat="28.019343" lon="99.538548">
<time>2016-10-07T09:15:16Z</time></trkpt>
<trkpt lat="28.019463" lon="99.538518">
<time>2016-10-07T09:15:17Z</time></trkpt>
<trkpt lat="28.019553" lon="99.538498">
<time>2016-10-07T09:15:18Z</time></trkpt>
<trkpt lat="28.019873" lon="99.538418">
<time>2016-10-07T09:15:19Z</time></trkpt>
<trkpt lat="28.020562" lon="99.537987">
<time>2016-10-07T09:15:20Z</time></trkpt>
<trkpt lat="28.020632" lon="99.537937">
<time>2016-10-07T09:15:21Z</time></trkpt>
<trkpt lat="28.021141" lon="99.537516">
<time>2016-10-07T09:15:22Z</time></trkpt>
<trkpt lat="28.02161" lon="99.537025">
<time>2016-10-07T09:15:23Z</time></trkpt>
<trkpt lat="28.021949" lon="99.536644">
<time>2016-10-07T09:15:24Z</time></trkpt>
<trkpt lat="28.022268" lon="99.536243">
<time>2016-10-07T09:15:25Z</time></trkpt>
<trkpt lat="28.022667" lon="99.535712">
<time>2016-10-07T09:15:26Z</time></trkpt>
<trkpt lat="28.023165" lon="99.53497">
<time>2016-10-07T09:15:27Z</time></trkpt>
<trkpt lat="28.023693" lon="99.534048">
<time>2016-10-07T09:15:28Z</time></trkpt>
<trkpt lat="28.023962" lon="99.533506">
<time>2016-10-07T09:15:29Z</time></trkpt>
<trkpt lat="28.0243" lon="99.532835">
<time>2016-10-07T09:15:30Z</time></trkpt>
<trkpt lat="28.024489" lon="99.532534">
<time>2016-10-07T09:15:31Z</time></trkpt>
<trkpt lat="28.024659" lon="99.532283">
<time>2016-10-07T09:15:32Z</time></trkpt>
<trkpt lat="28.024888" lon="99.532003">
<time>2016-10-07T09:15:33Z</time></trkpt>
<trkpt lat="28.025117" lon="99.531752">
<time>2016-10-07T09:15:34Z</time></trkpt>
<trkpt lat="28.026135" lon="99.530699">
<time>2016-10-07T09:15:35Z</time></trkpt>
<trkpt lat="28.026434" lon="99.530368">
<time>2016-10-07T09:15:36Z</time></trkpt>
<trkpt lat="28.026524" lon="99.530228">
<time>2016-10-07T09:15:37Z</time></trkpt>
<trkpt lat="28.026593" lon="99.530098">
<time>2016-10-07T09:15:38Z</time></trkpt>
<trkpt lat="28.026653" lon="99.529947">
<time>2016-10-07T09:15:39Z</time></trkpt>
<trkpt lat="28.026722" lon="99.529767">
<time>2016-10-07T09:15:40Z</time></trkpt>
<trkpt lat="28.026762" lon="99.529596">
<time>2016-10-07T09:15:41Z</time></trkpt>
<trkpt lat="28.026782" lon="99.529456">
<time>2016-10-07T09:15:42Z</time></trkpt>
<trkpt lat="28.026781" lon="99.529276">
<time>2016-10-07T09:15:43Z</time></trkpt>
<trkpt lat="28.026771" lon="99.529085">
<time>2016-10-07T09:15:44Z</time></trkpt>
<trkpt lat="28.02674" lon="99.528875">
<time>2016-10-07T09:15:45Z</time></trkpt>
<trkpt lat="28.026548" lon="99.528173">
<time>2016-10-07T09:15:46Z</time></trkpt>
<trkpt lat="28.026406" lon="99.527551">
<time>2016-10-07T09:15:47Z</time></trkpt>
<trkpt lat="28.026415" lon="99.526929">
<time>2016-10-07T09:15:48Z</time></trkpt>
<trkpt lat="28.026503" lon="99.526368">
<time>2016-10-07T09:15:49Z</time></trkpt>
<trkpt lat="28.026583" lon="99.526057">
<time>2016-10-07T09:15:50Z</time></trkpt>
<trkpt lat="28.026702" lon="99.525776">
<time>2016-10-07T09:15:51Z</time></trkpt>
<trkpt lat="28.026871" lon="99.525456">
<time>2016-10-07T09:15:52Z</time></trkpt>
<trkpt lat="28.02706" lon="99.525185">
<time>2016-10-07T09:15:53Z</time></trkpt>
<trkpt lat="28.027389" lon="99.524804">
<time>2016-10-07T09:15:54Z</time></trkpt>
<trkpt lat="28.027719" lon="99.524543">
<time>2016-10-07T09:15:55Z</time></trkpt>
<trkpt lat="28.027968" lon="99.524393">
<time>2016-10-07T09:15:56Z</time></trkpt>
<trkpt lat="28.028857" lon="99.524012">
<time>2016-10-07T09:15:57Z</time></trkpt>
<trkpt lat="28.029467" lon="99.523701">
<time>2016-10-07T09:15:58Z</time></trkpt>
<trkpt lat="28.029976" lon="99.52335">
<time>2016-10-07T09:15:59Z</time></trkpt>
<trkpt lat="28.030475" lon="99.522919">
<time>2016-10-07T09:16:00Z</time></trkpt>
<trkpt lat="28.031472" lon="99.522116">
<time>2016-10-07T09:16:01Z</time></trkpt>
<trkpt lat="28.031692" lon="99.521966">
<time>2016-10-07T09:16:02Z</time></trkpt>
<trkpt lat="28.031942" lon="99.521836">
<time>2016-10-07T09:16:03Z</time></trkpt>
<trkpt lat="28.032301" lon="99.521715">
<time>2016-10-07T09:16:04Z</time></trkpt>
<trkpt lat="28.032611" lon="99.521685">
<time>2016-10-07T09:16:05Z</time></trkpt>
<trkpt lat="28.033312" lon="99.521725">
<time>2016-10-07T09:16:06Z</time></trkpt>
<trkpt lat="28.033572" lon="99.521725">
<time>2016-10-07T09:16:07Z</time></trkpt>
<trkpt lat="28.033782" lon="99.521695">
<time>2016-10-07T09:16:08Z</time></trkpt>
<trkpt lat="28.034012" lon="99.521635">
<time>2016-10-07T09:16:09Z</time></trkpt>
<trkpt lat="28.034201" lon="99.521545">
<time>2016-10-07T09:16:10Z</time></trkpt>
<trkpt lat="28.034371" lon="99.521414">
<time>2016-10-07T09:16:11Z</time></trkpt>
<trkpt lat="28.03459" lon="99.521194">
<time>2016-10-07T09:16:12Z</time></trkpt>
<trkpt lat="28.03473" lon="99.521013">
<time>2016-10-07T09:16:13Z</time></trkpt>
<trkpt lat="28.034859" lon="99.520753">
<time>2016-10-07T09:16:14Z</time></trkpt>
<trkpt lat="28.034929" lon="99.520502">
<time>2016-10-07T09:16:15Z</time></trkpt>
<trkpt lat="28.034968" lon="99.520261">
<time>2016-10-07T09:16:16Z</time></trkpt>
<trkpt lat="28.034967" lon="99.51979">
<time>2016-10-07T09:16:17Z</time></trkpt>
<trkpt lat="28.034823" lon="99.518536">
<time>2016-10-07T09:16:18Z</time></trkpt>
<trkpt lat="28.034649" lon="99.517072">
<time>2016-10-07T09:16:19Z</time></trkpt>
<trkpt lat="28.034617" lon="99.516541">
<time>2016-10-07T09:16:20Z</time></trkpt>
<trkpt lat="28.034626" lon="99.51608">
<time>2016-10-07T09:16:21Z</time></trkpt>
<trkpt lat="28.034665" lon="99.515608">
<time>2016-10-07T09:16:22Z</time></trkpt>
<trkpt lat="28.034703" lon="99.515227">
<time>2016-10-07T09:16:23Z</time></trkpt>
<trkpt lat="28.034921" lon="99.514375">
<time>2016-10-07T09:16:24Z</time></trkpt>
<trkpt lat="28.035119" lon="99.513853">
<time>2016-10-07T09:16:25Z</time></trkpt>
<trkpt lat="28.035328" lon="99.513372">
<time>2016-10-07T09:16:26Z</time></trkpt>
<trkpt lat="28.035895" lon="99.512359">
<time>2016-10-07T09:16:27Z</time></trkpt>
<trkpt lat="28.036363" lon="99.511536">
<time>2016-10-07T09:16:28Z</time></trkpt>
<trkpt lat="28.038004" lon="99.508588">
<time>2016-10-07T09:16:29Z</time></trkpt>
<trkpt lat="28.038979" lon="99.506763">
<time>2016-10-07T09:16:30Z</time></trkpt>
<trkpt lat="28.039337" lon="99.506161">
<time>2016-10-07T09:16:31Z</time></trkpt>
<trkpt lat="28.039715" lon="99.505358">
<time>2016-10-07T09:16:32Z</time></trkpt>
<trkpt lat="28.040171" lon="99.503874">
<time>2016-10-07T09:16:33Z</time></trkpt>
<trkpt lat="28.040289" lon="99.503312">
<time>2016-10-07T09:16:34Z</time></trkpt>
<trkpt lat="28.040387" lon="99.50263">
<time>2016-10-07T09:16:35Z</time></trkpt>
<trkpt lat="28.040446" lon="99.502129">
<time>2016-10-07T09:16:36Z</time></trkpt>
<trkpt lat="28.040464" lon="99.501597">
<time>2016-10-07T09:16:37Z</time></trkpt>
<trkpt lat="28.040431" lon="99.500634">
<time>2016-10-07T09:16:38Z</time></trkpt>
<trkpt lat="28.040369" lon="99.500033">
<time>2016-10-07T09:16:39Z</time></trkpt>
<trkpt lat="28.040308" lon="99.499682">
<time>2016-10-07T09:16:40Z</time></trkpt>
<trkpt lat="28.040176" lon="99.49897">
<time>2016-10-07T09:16:41Z</time></trkpt>
<trkpt lat="28.040034" lon="99.498448">
<time>2016-10-07T09:16:42Z</time></trkpt>
<trkpt lat="28.039923" lon="99.498077">
<time>2016-10-07T09:16:43Z</time></trkpt>
<trkpt lat="28.039772" lon="99.497656">
<time>2016-10-07T09:16:44Z</time></trkpt>
<trkpt lat="28.039571" lon="99.497184">
<time>2016-10-07T09:16:45Z</time></trkpt>
<trkpt lat="28.039259" lon="99.496562">
<time>2016-10-07T09:16:46Z</time></trkpt>
<trkpt lat="28.039098" lon="99.496272">
<time>2016-10-07T09:16:47Z</time></trkpt>
<trkpt lat="28.038957" lon="99.496021">
<time>2016-10-07T09:16:48Z</time></trkpt>
<trkpt lat="28.038796" lon="99.49577">
<time>2016-10-07T09:16:49Z</time></trkpt>
<trkpt lat="28.038394" lon="99.495168">
<time>2016-10-07T09:16:50Z</time></trkpt>
<trkpt lat="28.037179" lon="99.493423">
<time>2016-10-07T09:16:51Z</time></trkpt>
<trkpt lat="28.036807" lon="99.492862">
<time>2016-10-07T09:16:52Z</time></trkpt>
<trkpt lat="28.036225" lon="99.492029">
<time>2016-10-07T09:16:53Z</time></trkpt>
<trkpt lat="28.035913" lon="99.491568">
<time>2016-10-07T09:16:54Z</time></trkpt>
<trkpt lat="28.035813" lon="99.491417">
<time>2016-10-07T09:16:55Z</time></trkpt>
<trkpt lat="28.035662" lon="99.491167">
<time>2016-10-07T09:16:56Z</time></trkpt>
<trkpt lat="28.035521" lon="99.490866">
<time>2016-10-07T09:16:57Z</time></trkpt>
<trkpt lat="28.03542" lon="99.490615">
<time>2016-10-07T09:16:58Z</time></trkpt>
<trkpt lat="28.035299" lon="99.490164">
<time>2016-10-07T09:16:59Z</time></trkpt>
<trkpt lat="28.035238" lon="99.489783">
<time>2016-10-07T09:17:00Z</time></trkpt>
<trkpt lat="28.035126" lon="99.489261">
<time>2016-10-07T09:17:01Z</time></trkpt>
<trkpt lat="28.035025" lon="99.48883">
<time>2016-10-07T09:17:02Z</time></trkpt>
<trkpt lat="28.034843" lon="99.488339">
<time>2016-10-07T09:17:03Z</time></trkpt>
<trkpt lat="28.034672" lon="99.487988">
<time>2016-10-07T09:17:04Z</time></trkpt>
<trkpt lat="28.034562" lon="99.487767">
<time>2016-10-07T09:17:05Z</time></trkpt>
<trkpt lat="28.0342" lon="99.487075">
<time>2016-10-07T09:17:06Z</time></trkpt>
<trkpt lat="28.033827" lon="99.486343">
<time>2016-10-07T09:17:07Z</time></trkpt>
<trkpt lat="28.033495" lon="99.485701">
<time>2016-10-07T09:17:08Z</time></trkpt>
<trkpt lat="28.033174" lon="99.485079">
<time>2016-10-07T09:17:09Z</time></trkpt>
<trkpt lat="28.032801" lon="99.484367">
<time>2016-10-07T09:17:10Z</time></trkpt>
<trkpt lat="28.03245" lon="99.483786">
<time>2016-10-07T09:17:11Z</time></trkpt>
<trkpt lat="28.032079" lon="99.483395">
<time>2016-10-07T09:17:12Z</time></trkpt>
<trkpt lat="28.031658" lon="99.483074">
<time>2016-10-07T09:17:13Z</time></trkpt>
<trkpt lat="28.031397" lon="99.482913">
<time>2016-10-07T09:17:14Z</time></trkpt>
<trkpt lat="28.030736" lon="99.482512">
<time>2016-10-07T09:17:15Z</time></trkpt>
<trkpt lat="28.030385" lon="99.482241">
<time>2016-10-07T09:17:16Z</time></trkpt>
<trkpt lat="28.029813" lon="99.48171">
<time>2016-10-07T09:17:17Z</time></trkpt>
<trkpt lat="28.029512" lon="99.481339">
<time>2016-10-07T09:17:18Z</time></trkpt>
<trkpt lat="28.029221" lon="99.480898">
<time>2016-10-07T09:17:19Z</time></trkpt>
<trkpt lat="28.028959" lon="99.480396">
<time>2016-10-07T09:17:20Z</time></trkpt>
<trkpt lat="28.028748" lon="99.479935">
<time>2016-10-07T09:17:21Z</time></trkpt>
<trkpt lat="28.028537" lon="99.479444">
<time>2016-10-07T09:17:22Z</time></trkpt>
<trkpt lat="28.028255" lon="99.478902">
<time>2016-10-07T09:17:23Z</time></trkpt>
<trkpt lat="28.027913" lon="99.478331">
<time>2016-10-07T09:17:24Z</time></trkpt>
<trkpt lat="28.027542" lon="99.477799">
<time>2016-10-07T09:17:25Z</time></trkpt>
<trkpt lat="28.026849" lon="99.476897">
<time>2016-10-07T09:17:26Z</time></trkpt>
<trkpt lat="28.026467" lon="99.476345">
<time>2016-10-07T09:17:27Z</time></trkpt>
<trkpt lat="28.026166" lon="99.475734">
<time>2016-10-07T09:17:28Z</time></trkpt>
<trkpt lat="28.025924" lon="99.475092">
<time>2016-10-07T09:17:29Z</time></trkpt>
<trkpt lat="28.025853" lon="99.474771">
<time>2016-10-07T09:17:30Z</time></trkpt>
<trkpt lat="28.025762" lon="99.4743">
<time>2016-10-07T09:17:31Z</time></trkpt>
<trkpt lat="28.025659" lon="99.473377">
<time>2016-10-07T09:17:32Z</time></trkpt>
<trkpt lat="28.025618" lon="99.472926">
<time>2016-10-07T09:17:33Z</time></trkpt>
<trkpt lat="28.025507" lon="99.472475">
<time>2016-10-07T09:17:34Z</time></trkpt>
<trkpt lat="28.025325" lon="99.472034">
<time>2016-10-07T09:17:35Z</time></trkpt>
<trkpt lat="28.025165" lon="99.471743">
<time>2016-10-07T09:17:36Z</time></trkpt>
<trkpt lat="28.024884" lon="99.471392">
<time>2016-10-07T09:17:37Z</time></trkpt>
<trkpt lat="28.024653" lon="99.471182">
<time>2016-10-07T09:17:38Z</time></trkpt>
<trkpt lat="28.024362" lon="99.470971">
<time>2016-10-07T09:17:39Z</time></trkpt>
<trkpt lat="28.023821" lon="99.47057">
<time>2016-10-07T09:17:40Z</time></trkpt>
<trkpt lat="28.023651" lon="99.47041">
<time>2016-10-07T09:17:41Z</time></trkpt>
<trkpt lat="28.0235" lon="99.470239">
<time>2016-10-07T09:17:42Z</time></trkpt>
<trkpt lat="28.023329" lon="99.469899">
<time>2016-10-07T09:17:43Z</time></trkpt>
<trkpt lat="28.023269" lon="99.469698">
<time>2016-10-07T09:17:44Z</time></trkpt>
<trkpt lat="28.023248" lon="99.469508">
<time>2016-10-07T09:17:45Z</time></trkpt>
<trkpt lat="28.023247" lon="99.469127">
<time>2016-10-07T09:17:46Z</time></trkpt>
<trkpt lat="28.023435" lon="99.468335">
<time>2016-10-07T09:17:47Z</time></trkpt>
<trkpt lat="28.023623" lon="99.467643">
<time>2016-10-07T09:17:48Z</time></trkpt>
<trkpt lat="28.023652" lon="99.467272">
<time>2016-10-07T09:17:49Z</time></trkpt>
<trkpt lat="28.023652" lon="99.466931">
<time>2016-10-07T09:17:50Z</time></trkpt>
<trkpt lat="28.02356" lon="99.46646">
<time>2016-10-07T09:17:51Z</time></trkpt>
<trkpt lat="28.02348" lon="99.466169">
<time>2016-10-07T09:17:52Z</time></trkpt>
<trkpt lat="28.023399" lon="99.465949">
<time>2016-10-07T09:17:53Z</time></trkpt>
<trkpt lat="28.023158" lon="99.465518">
<time>2016-10-07T09:17:54Z</time></trkpt>
<trkpt lat="28.022767" lon="99.464997">
<time>2016-10-07T09:17:55Z</time></trkpt>
<trkpt lat="28.022545" lon="99.464596">
<time>2016-10-07T09:17:56Z</time></trkpt>
<trkpt lat="28.022445" lon="99.464245">
<time>2016-10-07T09:17:57Z</time></trkpt>
<trkpt lat="28.022424" lon="99.464034">
<time>2016-10-07T09:17:58Z</time></trkpt>
<trkpt lat="28.022433" lon="99.463814">
<time>2016-10-07T09:17:59Z</time></trkpt>
<trkpt lat="28.022463" lon="99.463583">
<time>2016-10-07T09:18:00Z</time></trkpt>
<trkpt lat="28.022612" lon="99.463212">
<time>2016-10-07T09:18:01Z</time></trkpt>
<trkpt lat="28.022881" lon="99.462862">
<time>2016-10-07T09:18:02Z</time></trkpt>
<trkpt lat="28.02341" lon="99.46237">
<time>2016-10-07T09:18:03Z</time></trkpt>
<trkpt lat="28.023709" lon="99.46202">
<time>2016-10-07T09:18:04Z</time></trkpt>
<trkpt lat="28.023878" lon="99.461709">
<time>2016-10-07T09:18:05Z</time></trkpt>
<trkpt lat="28.023958" lon="99.461388">
<time>2016-10-07T09:18:06Z</time></trkpt>
<trkpt lat="28.023967" lon="99.461128">
<time>2016-10-07T09:18:07Z</time></trkpt>
<trkpt lat="28.023957" lon="99.460947">
<time>2016-10-07T09:18:08Z</time></trkpt>
<trkpt lat="28.023916" lon="99.460687">
<time>2016-10-07T09:18:09Z</time></trkpt>
<trkpt lat="28.023805" lon="99.460366">
<time>2016-10-07T09:18:10Z</time></trkpt>
<trkpt lat="28.023534" lon="99.459985">
<time>2016-10-07T09:18:11Z</time></trkpt>
<trkpt lat="28.023344" lon="99.459855">
<time>2016-10-07T09:18:12Z</time></trkpt>
<trkpt lat="28.023103" lon="99.459704">
<time>2016-10-07T09:18:13Z</time></trkpt>
<trkpt lat="28.022433" lon="99.459354">
<time>2016-10-07T09:18:14Z</time></trkpt>
<trkpt lat="28.022072" lon="99.459113">
<time>2016-10-07T09:18:15Z</time></trkpt>
<trkpt lat="28.021821" lon="99.458883">
<time>2016-10-07T09:18:16Z</time></trkpt>
<trkpt lat="28.021591" lon="99.458562">
<time>2016-10-07T09:18:17Z</time></trkpt>
<trkpt lat="28.02148" lon="99.458331">
<time>2016-10-07T09:18:18Z</time></trkpt>
<trkpt lat="28.021339" lon="99.457991">
<time>2016-10-07T09:18:19Z</time></trkpt>
<trkpt lat="28.021299" lon="99.45779">
<time>2016-10-07T09:18:20Z</time></trkpt>
<trkpt lat="28.021278" lon="99.45767">
<time>2016-10-07T09:18:21Z</time></trkpt>
<trkpt lat="28.021258" lon="99.45751">
<time>2016-10-07T09:18:22Z</time></trkpt>
<trkpt lat="28.021248" lon="99.457299">
<time>2016-10-07T09:18:23Z</time></trkpt>
<trkpt lat="28.021277" lon="99.456938">
<time>2016-10-07T09:18:24Z</time></trkpt>
<trkpt lat="28.021346" lon="99.456598">
<time>2016-10-07T09:18:25Z</time></trkpt>
<trkpt lat="28.021614" lon="99.455956">
<time>2016-10-07T09:18:26Z</time></trkpt>
<trkpt lat="28.021913" lon="99.455315">
<time>2016-10-07T09:18:27Z</time></trkpt>
<trkpt lat="28.023277" lon="99.452419">
<time>2016-10-07T09:18:28Z</time></trkpt>
<trkpt lat="28.023954" lon="99.450997">
<time>2016-10-07T09:18:29Z</time></trkpt>
<trkpt lat="28.024053" lon="99.450766">
<time>2016-10-07T09:18:30Z</time></trkpt>
<trkpt lat="28.024213" lon="99.450325">
<time>2016-10-07T09:18:31Z</time></trkpt>
<trkpt lat="28.024272" lon="99.449975">
<time>2016-10-07T09:18:32Z</time></trkpt>
<trkpt lat="28.024311" lon="99.449534">
<time>2016-10-07T09:18:33Z</time></trkpt>
<trkpt lat="28.02431" lon="99.449243">
<time>2016-10-07T09:18:34Z</time></trkpt>
<trkpt lat="28.024239" lon="99.448772">
<time>2016-10-07T09:18:35Z</time></trkpt>
<trkpt lat="28.024108" lon="99.448282">
<time>2016-10-07T09:18:36Z</time></trkpt>
<trkpt lat="28.023917" lon="99.447841">
<time>2016-10-07T09:18:37Z</time></trkpt>
<trkpt lat="28.023556" lon="99.44712">
<time>2016-10-07T09:18:38Z</time></trkpt>
<trkpt lat="28.023455" lon="99.446849">
<time>2016-10-07T09:18:39Z</time></trkpt>
<trkpt lat="28.023405" lon="99.446609">
<time>2016-10-07T09:18:40Z</time></trkpt>
<trkpt lat="28.023384" lon="99.446358">
<time>2016-10-07T09:18:41Z</time></trkpt>
<trkpt lat="28.023404" lon="99.445998">
<time>2016-10-07T09:18:42Z</time></trkpt>
<trkpt lat="28.023443" lon="99.445787">
<time>2016-10-07T09:18:43Z</time></trkpt>
<trkpt lat="28.023513" lon="99.445517">
<time>2016-10-07T09:18:44Z</time></trkpt>
<trkpt lat="28.023632" lon="99.445056">
<time>2016-10-07T09:18:45Z</time></trkpt>
<trkpt lat="28.023721" lon="99.444605">
<time>2016-10-07T09:18:46Z</time></trkpt>
<trkpt lat="28.02373" lon="99.444205">
<time>2016-10-07T09:18:47Z</time></trkpt>
<trkpt lat="28.02368" lon="99.443804">
<time>2016-10-07T09:18:48Z</time></trkpt>
<trkpt lat="28.023589" lon="99.443494">
<time>2016-10-07T09:18:49Z</time></trkpt>
<trkpt lat="28.023479" lon="99.443223">
<time>2016-10-07T09:18:50Z</time></trkpt>
<trkpt lat="28.023388" lon="99.443073">
<time>2016-10-07T09:18:51Z</time></trkpt>
<trkpt lat="28.023228" lon="99.442803">
<time>2016-10-07T09:18:52Z</time></trkpt>
<trkpt lat="28.023027" lon="99.442512">
<time>2016-10-07T09:18:53Z</time></trkpt>
<trkpt lat="28.022646" lon="99.441991">
<time>2016-10-07T09:18:54Z</time></trkpt>
<trkpt lat="28.022466" lon="99.441691">
<time>2016-10-07T09:18:55Z</time></trkpt>
<trkpt lat="28.022335" lon="99.441441">
<time>2016-10-07T09:18:56Z</time></trkpt>
<trkpt lat="28.022154" lon="99.44104">
<time>2016-10-07T09:18:57Z</time></trkpt>
<trkpt lat="28.022014" lon="99.440649">
<time>2016-10-07T09:18:58Z</time></trkpt>
<trkpt lat="28.021893" lon="99.440239">
<time>2016-10-07T09:18:59Z</time></trkpt>
<trkpt lat="28.021782" lon="99.439808">
<time>2016-10-07T09:19:00Z</time></trkpt>
<trkpt lat="28.021631" lon="99.439348">
<time>2016-10-07T09:19:01Z</time></trkpt>
<trkpt lat="28.021561" lon="99.439157">
<time>2016-10-07T09:19:02Z</time></trkpt>
<trkpt lat="28.021501" lon="99.439017">
<time>2016-10-07T09:19:03Z</time></trkpt>
<trkpt lat="28.021471" lon="99.438947">
<time>2016-10-07T09:19:04Z</time></trkpt>
<trkpt lat="28.021421" lon="99.438847">
<time>2016-10-07T09:19:05Z</time></trkpt>
<trkpt lat="28.02136" lon="99.438747">
<time>2016-10-07T09:19:06Z</time></trkpt>
<trkpt lat="28.02131" lon="99.438637">
<time>2016-10-07T09:19:07Z</time></trkpt>
<trkpt lat="28.02124" lon="99.438526">
<time>2016-10-07T09:19:08Z</time></trkpt>
<trkpt lat="28.02118" lon="99.438436">
<time>2016-10-07T09:19:09Z</time></trkpt>
<trkpt lat="28.02106" lon="99.438246">
<time>2016-10-07T09:19:10Z</time></trkpt>
<trkpt lat="28.021039" lon="99.438216">
<time>2016-10-07T09:19:11Z</time></trkpt>
<trkpt lat="28.020969" lon="99.438116">
<time>2016-10-07T09:19:12Z</time></trkpt>
<trkpt lat="28.020829" lon="99.437906">
<time>2016-10-07T09:19:13Z</time></trkpt>
<trkpt lat="28.020648" lon="99.437635">
<time>2016-10-07T09:19:14Z</time></trkpt>
<trkpt lat="28.020498" lon="99.437355">
<time>2016-10-07T09:19:15Z</time></trkpt>
<trkpt lat="28.020337" lon="99.436944">
<time>2016-10-07T09:19:16Z</time></trkpt>
<trkpt lat="28.020267" lon="99.436724">
<time>2016-10-07T09:19:17Z</time></trkpt>
<trkpt lat="28.020257" lon="99.436564">
<time>2016-10-07T09:19:18Z</time></trkpt>
<trkpt lat="28.020216" lon="99.436314">
<time>2016-10-07T09:19:19Z</time></trkpt>
<trkpt lat="28.020216" lon="99.435983">
<time>2016-10-07T09:19:20Z</time></trkpt>
<trkpt lat="28.020226" lon="99.435813">
<time>2016-10-07T09:19:21Z</time></trkpt>
<trkpt lat="28.020245" lon="99.435663">
<time>2016-10-07T09:19:22Z</time></trkpt>
<trkpt lat="28.020325" lon="99.435292">
<time>2016-10-07T09:19:23Z</time></trkpt>
<trkpt lat="28.020494" lon="99.434792">
<time>2016-10-07T09:19:24Z</time></trkpt>
<trkpt lat="28.020633" lon="99.434371">
<time>2016-10-07T09:19:25Z</time></trkpt>
<trkpt lat="28.020723" lon="99.434061">
<time>2016-10-07T09:19:26Z</time></trkpt>
<trkpt lat="28.020812" lon="99.433611">
<time>2016-10-07T09:19:27Z</time></trkpt>
<trkpt lat="28.020842" lon="99.43319">
<time>2016-10-07T09:19:28Z</time></trkpt>
<trkpt lat="28.020841" lon="99.43268">
<time>2016-10-07T09:19:29Z</time></trkpt>
<trkpt lat="28.020841" lon="99.432339">
<time>2016-10-07T09:19:30Z</time></trkpt>
<trkpt lat="28.02085" lon="99.432059">
<time>2016-10-07T09:19:31Z</time></trkpt>
<trkpt lat="28.02085" lon="99.431689">
<time>2016-10-07T09:19:32Z</time></trkpt>
<trkpt lat="28.020859" lon="99.431288">
<time>2016-10-07T09:19:33Z</time></trkpt>
<trkpt lat="28.020888" lon="99.430738">
<time>2016-10-07T09:19:34Z</time></trkpt>
<trkpt lat="28.020938" lon="99.430187">
<time>2016-10-07T09:19:35Z</time></trkpt>
<trkpt lat="28.020997" lon="99.429757">
<time>2016-10-07T09:19:36Z</time></trkpt>
<trkpt lat="28.021106" lon="99.429106">
<time>2016-10-07T09:19:37Z</time></trkpt>
<trkpt lat="28.021236" lon="99.428526">
<time>2016-10-07T09:19:38Z</time></trkpt>
<trkpt lat="28.021495" lon="99.427595">
<time>2016-10-07T09:19:39Z</time></trkpt>
<trkpt lat="28.021584" lon="99.427325">
<time>2016-10-07T09:19:40Z</time></trkpt>
<trkpt lat="28.021714" lon="99.426994">
<time>2016-10-07T09:19:41Z</time></trkpt>
<trkpt lat="28.022063" lon="99.426114">
<time>2016-10-07T09:19:42Z</time></trkpt>
<trkpt lat="28.022103" lon="99.426034">
<time>2016-10-07T09:19:43Z</time></trkpt>
<trkpt lat="28.022612" lon="99.425063">
<time>2016-10-07T09:19:44Z</time></trkpt>
<trkpt lat="28.023181" lon="99.424152">
<time>2016-10-07T09:19:45Z</time></trkpt>
<trkpt lat="28.02369" lon="99.423522">
<time>2016-10-07T09:19:46Z</time></trkpt>
<trkpt lat="28.02392" lon="99.423312">
<time>2016-10-07T09:19:47Z</time></trkpt>
<trkpt lat="28.02425" lon="99.423072">
<time>2016-10-07T09:19:48Z</time></trkpt>
<trkpt lat="28.0245" lon="99.422942">
<time>2016-10-07T09:19:49Z</time></trkpt>
<trkpt lat="28.02484" lon="99.422801">
<time>2016-10-07T09:19:50Z</time></trkpt>
<trkpt lat="28.02527" lon="99.422711">
<time>2016-10-07T09:19:51Z</time></trkpt>
<trkpt lat="28.02545" lon="99.422701">
<time>2016-10-07T09:19:52Z</time></trkpt>
<trkpt lat="28.02582" lon="99.422711">
<time>2016-10-07T09:19:53Z</time></trkpt>
<trkpt lat="28.02636" lon="99.422811">
<time>2016-10-07T09:19:54Z</time></trkpt>
<trkpt lat="28.0269" lon="99.422931">
<time>2016-10-07T09:19:55Z</time></trkpt>
<trkpt lat="28.02737" lon="99.422972">
<time>2016-10-07T09:19:56Z</time></trkpt>
<trkpt lat="28.02778" lon="99.422901">
<time>2016-10-07T09:19:57Z</time></trkpt>
<trkpt lat="28.02809" lon="99.422791">
<time>2016-10-07T09:19:58Z</time></trkpt>
<trkpt lat="28.02844" lon="99.422611">
<time>2016-10-07T09:19:59Z</time></trkpt>
<trkpt lat="28.02875" lon="99.422411">
<time>2016-10-07T09:20:00Z</time></trkpt>
<trkpt lat="28.030599" lon="99.42105">
<time>2016-10-07T09:20:01Z</time></trkpt>
<trkpt lat="28.031389" lon="99.42046">
<time>2016-10-07T09:20:02Z</time></trkpt>
<trkpt lat="28.031729" lon="99.4203">
<time>2016-10-07T09:20:03Z</time></trkpt>
<trkpt lat="28.032129" lon="99.42024">
<time>2016-10-07T09:20:04Z</time></trkpt>
<trkpt lat="28.032339" lon="99.42024">
<time>2016-10-07T09:20:05Z</time></trkpt>
<trkpt lat="28.032569" lon="99.4203">
<time>2016-10-07T09:20:06Z</time></trkpt>
<trkpt lat="28.032929" lon="99.42052">
<time>2016-10-07T09:20:07Z</time></trkpt>
<trkpt lat="28.033169" lon="99.42077">
<time>2016-10-07T09:20:08Z</time></trkpt>
<trkpt lat="28.033269" lon="99.42088">
<time>2016-10-07T09:20:09Z</time></trkpt>
<trkpt lat="28.03366" lon="99.42133">
<time>2016-10-07T09:20:10Z</time></trkpt>
<trkpt lat="28.03391" lon="99.421641">
<time>2016-10-07T09:20:11Z</time></trkpt>
<trkpt lat="28.034191" lon="99.421981">
<time>2016-10-07T09:20:12Z</time></trkpt>
<trkpt lat="28.034571" lon="99.422431">
<time>2016-10-07T09:20:13Z</time></trkpt>
<trkpt lat="28.034831" lon="99.422701">
<time>2016-10-07T09:20:14Z</time></trkpt>
<trkpt lat="28.035482" lon="99.423281">
<time>2016-10-07T09:20:15Z</time></trkpt>
<trkpt lat="28.035812" lon="99.423532">
<time>2016-10-07T09:20:16Z</time></trkpt>
<trkpt lat="28.036183" lon="99.423762">
<time>2016-10-07T09:20:17Z</time></trkpt>
<trkpt lat="28.036573" lon="99.423992">
<time>2016-10-07T09:20:18Z</time></trkpt>
<trkpt lat="28.037163" lon="99.424262">
<time>2016-10-07T09:20:19Z</time></trkpt>
<trkpt lat="28.037664" lon="99.424412">
<time>2016-10-07T09:20:20Z</time></trkpt>
<trkpt lat="28.037874" lon="99.424472">
<time>2016-10-07T09:20:21Z</time></trkpt>
<trkpt lat="28.038094" lon="99.424512">
<time>2016-10-07T09:20:22Z</time></trkpt>
<trkpt lat="28.038524" lon="99.424522">
<time>2016-10-07T09:20:23Z</time></trkpt>
<trkpt lat="28.038754" lon="99.424472">
<time>2016-10-07T09:20:24Z</time></trkpt>
<trkpt lat="28.039084" lon="99.424342">
<time>2016-10-07T09:20:25Z</time></trkpt>
<trkpt lat="28.039304" lon="99.424212">
<time>2016-10-07T09:20:26Z</time></trkpt>
<trkpt lat="28.039464" lon="99.424072">
<time>2016-10-07T09:20:27Z</time></trkpt>
<trkpt lat="28.039783" lon="99.423732">
<time>2016-10-07T09:20:28Z</time></trkpt>
<trkpt lat="28.039933" lon="99.423491">
<time>2016-10-07T09:20:29Z</time></trkpt>
<trkpt lat="28.040063" lon="99.423221">
<time>2016-10-07T09:20:30Z</time></trkpt>
<trkpt lat="28.040332" lon="99.422331">
<time>2016-10-07T09:20:31Z</time></trkpt>
<trkpt lat="28.040432" lon="99.422051">
<time>2016-10-07T09:20:32Z</time></trkpt>
<trkpt lat="28.040532" lon="99.421881">
<time>2016-10-07T09:20:33Z</time></trkpt>
<trkpt lat="28.040771" lon="99.42158">
<time>2016-10-07T09:20:34Z</time></trkpt>
<trkpt lat="28.041061" lon="99.42138">
<time>2016-10-07T09:20:35Z</time></trkpt>
<trkpt lat="28.041201" lon="99.42133">
<time>2016-10-07T09:20:36Z</time></trkpt>
<trkpt lat="28.041391" lon="99.42129">
<time>2016-10-07T09:20:37Z</time></trkpt>
<trkpt lat="28.041641" lon="99.42129">
<time>2016-10-07T09:20:38Z</time></trkpt>
<trkpt lat="28.041781" lon="99.42131">
<time>2016-10-07T09:20:39Z</time></trkpt>
<trkpt lat="28.042321" lon="99.42143">
<time>2016-10-07T09:20:40Z</time></trkpt>
<trkpt lat="28.042812" lon="99.42157">
<time>2016-10-07T09:20:41Z</time></trkpt>
<trkpt lat="28.043312" lon="99.42169">
<time>2016-10-07T09:20:42Z</time></trkpt>
<trkpt lat="28.043802" lon="99.42183">
<time>2016-10-07T09:20:43Z</time></trkpt>
<trkpt lat="28.044372" lon="99.421981">
<time>2016-10-07T09:20:44Z</time></trkpt>
<trkpt lat="28.044912" lon="99.422121">
<time>2016-10-07T09:20:45Z</time></trkpt>
<trkpt lat="28.045052" lon="99.422141">
<time>2016-10-07T09:20:46Z</time></trkpt>
<trkpt lat="28.045343" lon="99.422201">
<time>2016-10-07T09:20:47Z</time></trkpt>
<trkpt lat="28.045683" lon="99.422181">
<time>2016-10-07T09:20:48Z</time></trkpt>
<trkpt lat="28.045863" lon="99.422131">
<time>2016-10-07T09:20:49Z</time></trkpt>
<trkpt lat="28.045893" lon="99.422121">
<time>2016-10-07T09:20:50Z</time></trkpt>
<trkpt lat="28.046053" lon="99.422051">
<time>2016-10-07T09:20:51Z</time></trkpt>
<trkpt lat="28.046242" lon="99.42192">
<time>2016-10-07T09:20:52Z</time></trkpt>
<trkpt lat="28.046372" lon="99.42178">
<time>2016-10-07T09:20:53Z</time></trkpt>
<trkpt lat="28.046522" lon="99.42156">
<time>2016-10-07T09:20:54Z</time></trkpt>
<trkpt lat="28.046602" lon="99.42142">
<time>2016-10-07T09:20:55Z</time></trkpt>
<trkpt lat="28.046682" lon="99.42119">
<time>2016-10-07T09:20:56Z</time></trkpt>
<trkpt lat="28.046722" lon="99.421">
<time>2016-10-07T09:20:57Z</time></trkpt>
<trkpt lat="28.046741" lon="99.42077">
<time>2016-10-07T09:20:58Z</time></trkpt>
<trkpt lat="28.046681" lon="99.42033">
<time>2016-10-07T09:20:59Z</time></trkpt>
<trkpt lat="28.046601" lon="99.42">
<time>2016-10-07T09:21:00Z</time></trkpt>
<trkpt lat="28.04638" lon="99.419249">
<time>2016-10-07T09:21:01Z</time></trkpt>
<trkpt lat="28.046069" lon="99.418199">
<time>2016-10-07T09:21:02Z</time></trkpt>
<trkpt lat="28.045989" lon="99.417819">
<time>2016-10-07T09:21:03Z</time></trkpt>
<trkpt lat="28.045989" lon="99.417399">
<time>2016-10-07T09:21:04Z</time></trkpt>
<trkpt lat="28.046078" lon="99.417079">
<time>2016-10-07T09:21:05Z</time></trkpt>
<trkpt lat="28.046218" lon="99.416779">
<time>2016-10-07T09:21:06Z</time></trkpt>
<trkpt lat="28.046358" lon="99.416588">
<time>2016-10-07T09:21:07Z</time></trkpt>
<trkpt lat="28.046478" lon="99.416488">
<time>2016-10-07T09:21:08Z</time></trkpt>
<trkpt lat="28.046738" lon="99.416308">
<time>2016-10-07T09:21:09Z</time></trkpt>
<trkpt lat="28.046948" lon="99.416228">
<time>2016-10-07T09:21:10Z</time></trkpt>
<trkpt lat="28.047248" lon="99.416188">
<time>2016-10-07T09:21:11Z</time></trkpt>
<trkpt lat="28.047538" lon="99.416208">
<time>2016-10-07T09:21:12Z</time></trkpt>
<trkpt lat="28.047718" lon="99.416238">
<time>2016-10-07T09:21:13Z</time></trkpt>
<trkpt lat="28.048178" lon="99.416328">
<time>2016-10-07T09:21:14Z</time></trkpt>
<trkpt lat="28.048298" lon="99.416358">
<time>2016-10-07T09:21:15Z</time></trkpt>
<trkpt lat="28.048748" lon="99.416458">
<time>2016-10-07T09:21:16Z</time></trkpt>
<trkpt lat="28.049209" lon="99.416538">
<time>2016-10-07T09:21:17Z</time></trkpt>
<trkpt lat="28.049649" lon="99.416628">
<time>2016-10-07T09:21:18Z</time></trkpt>
<trkpt lat="28.050129" lon="99.416688">
<time>2016-10-07T09:21:19Z</time></trkpt>
<trkpt lat="28.050599" lon="99.416748">
<time>2016-10-07T09:21:20Z</time></trkpt>
<trkpt lat="28.052419" lon="99.416788">
<time>2016-10-07T09:21:21Z</time></trkpt>
<trkpt lat="28.052989" lon="99.416728">
<time>2016-10-07T09:21:22Z</time></trkpt>
<trkpt lat="28.053539" lon="99.416638">
<time>2016-10-07T09:21:23Z</time></trkpt>
<trkpt lat="28.054099" lon="99.416538">
<time>2016-10-07T09:21:24Z</time></trkpt>
<trkpt lat="28.054599" lon="99.416428">
<time>2016-10-07T09:21:25Z</time></trkpt>
<trkpt lat="28.055889" lon="99.416008">
<time>2016-10-07T09:21:26Z</time></trkpt>
<trkpt lat="28.056749" lon="99.415688">
<time>2016-10-07T09:21:27Z</time></trkpt>
<trkpt lat="28.057599" lon="99.415248">
<time>2016-10-07T09:21:28Z</time></trkpt>
<trkpt lat="28.058809" lon="99.414488">
<time>2016-10-07T09:21:29Z</time></trkpt>
<trkpt lat="28.060208" lon="99.413558">
<time>2016-10-07T09:21:30Z</time></trkpt>
<trkpt lat="28.061938" lon="99.412388">
<time>2016-10-07T09:21:31Z</time></trkpt>
<trkpt lat="28.063108" lon="99.411598">
<time>2016-10-07T09:21:32Z</time></trkpt>
<trkpt lat="28.063688" lon="99.411218">
<time>2016-10-07T09:21:33Z</time></trkpt>
<trkpt lat="28.064917" lon="99.410398">
<time>2016-10-07T09:21:34Z</time></trkpt>
<trkpt lat="28.066177" lon="99.409548">
<time>2016-10-07T09:21:35Z</time></trkpt>
<trkpt lat="28.066757" lon="99.409158">
<time>2016-10-07T09:21:36Z</time></trkpt>
<trkpt lat="28.067607" lon="99.408628">
<time>2016-10-07T09:21:37Z</time></trkpt>
<trkpt lat="28.068107" lon="99.408418">
<time>2016-10-07T09:21:38Z</time></trkpt>
<trkpt lat="28.068647" lon="99.408288">
<time>2016-10-07T09:21:39Z</time></trkpt>
<trkpt lat="28.069047" lon="99.408248">
<time>2016-10-07T09:21:40Z</time></trkpt>
<trkpt lat="28.069397" lon="99.408248">
<time>2016-10-07T09:21:41Z</time></trkpt>
<trkpt lat="28.069757" lon="99.408298">
<time>2016-10-07T09:21:42Z</time></trkpt>
<trkpt lat="28.070578" lon="99.408478">
<time>2016-10-07T09:21:43Z</time></trkpt>
<trkpt lat="28.070838" lon="99.408528">
<time>2016-10-07T09:21:44Z</time></trkpt>
<trkpt lat="28.071208" lon="99.408528">
<time>2016-10-07T09:21:45Z</time></trkpt>
<trkpt lat="28.071528" lon="99.408478">
<time>2016-10-07T09:21:46Z</time></trkpt>
<trkpt lat="28.071718" lon="99.408418">
<time>2016-10-07T09:21:47Z</time></trkpt>
<trkpt lat="28.071988" lon="99.408278">
<time>2016-10-07T09:21:48Z</time></trkpt>
<trkpt lat="28.072398" lon="99.407978">
<time>2016-10-07T09:21:49Z</time></trkpt>
<trkpt lat="28.072818" lon="99.407688">
<time>2016-10-07T09:21:50Z</time></trkpt>
<trkpt lat="28.073168" lon="99.407478">
<time>2016-10-07T09:21:51Z</time></trkpt>
<trkpt lat="28.073458" lon="99.407338">
<time>2016-10-07T09:21:52Z</time></trkpt>
<trkpt lat="28.073818" lon="99.407228">
<time>2016-10-07T09:21:53Z</time></trkpt>
<trkpt lat="28.074178" lon="99.407168">
<time>2016-10-07T09:21:54Z</time></trkpt>
<trkpt lat="28.074718" lon="99.407158">
<time>2016-10-07T09:21:55Z</time></trkpt>
<trkpt lat="28.075088" lon="99.407218">
<time>2016-10-07T09:21:56Z</time></trkpt>
<trkpt lat="28.075418" lon="99.407308">
<time>2016-10-07T09:21:57Z</time></trkpt>
<trkpt lat="28.075878" lon="99.407518">
<time>2016-10-07T09:21:58Z</time></trkpt>
<trkpt lat="28.076078" lon="99.407628">
<time>2016-10-07T09:21:59Z</time></trkpt>
<trkpt lat="28.076318" lon="99.407808">
<time>2016-10-07T09:22:00Z</time></trkpt>
<trkpt lat="28.076478" lon="99.407928">
<time>2016-10-07T09:22:01Z</time></trkpt>
<trkpt lat="28.077389" lon="99.408647">
<time>2016-10-07T09:22:02Z</time></trkpt>
<trkpt lat="28.078019" lon="99.409127">
<time>2016-10-07T09:22:03Z</time></trkpt>
<trkpt lat="28.078399" lon="99.409377">
<time>2016-10-07T09:22:04Z</time></trkpt>
<trkpt lat="28.078829" lon="99.409537">
<time>2016-10-07T09:22:05Z</time></trkpt>
<trkpt lat="28.078969" lon="99.409567">
<time>2016-10-07T09:22:06Z</time></trkpt>
<trkpt lat="28.079179" lon="99.409587">
<time>2016-10-07T09:22:07Z</time></trkpt>
<trkpt lat="28.079459" lon="99.409587">
<time>2016-10-07T09:22:08Z</time></trkpt>
<trkpt lat="28.079929" lon="99.409507">
<time>2016-10-07T09:22:09Z</time></trkpt>
<trkpt lat="28.080739" lon="99.409287">
<time>2016-10-07T09:22:10Z</time></trkpt>
<trkpt lat="28.081259" lon="99.409197">
<time>2016-10-07T09:22:11Z</time></trkpt>
<trkpt lat="28.081459" lon="99.409197">
<time>2016-10-07T09:22:12Z</time></trkpt>
<trkpt lat="28.082019" lon="99.409217">
<time>2016-10-07T09:22:13Z</time></trkpt>
<trkpt lat="28.082549" lon="99.409247">
<time>2016-10-07T09:22:14Z</time></trkpt>
<trkpt lat="28.08293" lon="99.409237">
<time>2016-10-07T09:22:15Z</time></trkpt>
<trkpt lat="28.08331" lon="99.409177">
<time>2016-10-07T09:22:16Z</time></trkpt>
<trkpt lat="28.08336" lon="99.409187">
<time>2016-10-07T09:22:17Z</time></trkpt>
<trkpt lat="28.08341" lon="99.409177">
<time>2016-10-07T09:22:18Z</time></trkpt>
<trkpt lat="28.084" lon="99.408887">
<time>2016-10-07T09:22:19Z</time></trkpt>
<trkpt lat="28.084729" lon="99.408397">
<time>2016-10-07T09:22:20Z</time></trkpt>
<trkpt lat="28.085069" lon="99.408247">
<time>2016-10-07T09:22:21Z</time></trkpt>
<trkpt lat="28.085409" lon="99.408127">
<time>2016-10-07T09:22:22Z</time></trkpt>
<trkpt lat="28.0859" lon="99.408067">
<time>2016-10-07T09:22:23Z</time></trkpt>
<trkpt lat="28.08629" lon="99.408087">
<time>2016-10-07T09:22:24Z</time></trkpt>
<trkpt lat="28.08668" lon="99.408177">
<time>2016-10-07T09:22:25Z</time></trkpt>
<trkpt lat="28.0871" lon="99.408347">
<time>2016-10-07T09:22:26Z</time></trkpt>
<trkpt lat="28.08749" lon="99.408607">
<time>2016-10-07T09:22:27Z</time></trkpt>
<trkpt lat="28.08784" lon="99.408917">
<time>2016-10-07T09:22:28Z</time></trkpt>
<trkpt lat="28.08829" lon="99.409527">
<time>2016-10-07T09:22:29Z</time></trkpt>
<trkpt lat="28.088731" lon="99.410237">
<time>2016-10-07T09:22:30Z</time></trkpt>
<trkpt lat="28.089591" lon="99.411527">
<time>2016-10-07T09:22:31Z</time></trkpt>
<trkpt lat="28.089982" lon="99.412147">
<time>2016-10-07T09:22:32Z</time></trkpt>
<trkpt lat="28.090452" lon="99.412677">
<time>2016-10-07T09:22:33Z</time></trkpt>
<trkpt lat="28.091463" lon="99.413407">
<time>2016-10-07T09:22:34Z</time></trkpt>
<trkpt lat="28.092273" lon="99.413757">
<time>2016-10-07T09:22:35Z</time></trkpt>
<trkpt lat="28.092943" lon="99.414127">
<time>2016-10-07T09:22:36Z</time></trkpt>
<trkpt lat="28.093463" lon="99.414557">
<time>2016-10-07T09:22:37Z</time></trkpt>
<trkpt lat="28.093814" lon="99.414907">
<time>2016-10-07T09:22:38Z</time></trkpt>
<trkpt lat="28.094474" lon="99.415617">
<time>2016-10-07T09:22:39Z</time></trkpt>
<trkpt lat="28.094815" lon="99.415997">
<time>2016-10-07T09:22:40Z</time></trkpt>
<trkpt lat="28.096106" lon="99.417397">
<time>2016-10-07T09:22:41Z</time></trkpt>
<trkpt lat="28.096957" lon="99.418318">
<time>2016-10-07T09:22:42Z</time></trkpt>
<trkpt lat="28.097737" lon="99.418798">
<time>2016-10-07T09:22:43Z</time></trkpt>
<trkpt lat="28.098937" lon="99.419218">
<time>2016-10-07T09:22:44Z</time></trkpt>
<trkpt lat="28.100548" lon="99.419818">
<time>2016-10-07T09:22:45Z</time></trkpt>
<trkpt lat="28.101748" lon="99.419978">
<time>2016-10-07T09:22:46Z</time></trkpt>
<trkpt lat="28.102548" lon="99.419898">
<time>2016-10-07T09:22:47Z</time></trkpt>
<trkpt lat="28.102838" lon="99.419768">
<time>2016-10-07T09:22:48Z</time></trkpt>
<trkpt lat="28.103278" lon="99.419558">
<time>2016-10-07T09:22:49Z</time></trkpt>
<trkpt lat="28.103448" lon="99.419458">
<time>2016-10-07T09:22:50Z</time></trkpt>
<trkpt lat="28.103598" lon="99.419368">
<time>2016-10-07T09:22:51Z</time></trkpt>
<trkpt lat="28.104488" lon="99.418768">
<time>2016-10-07T09:22:52Z</time></trkpt>
<trkpt lat="28.104978" lon="99.418487">
<time>2016-10-07T09:22:53Z</time></trkpt>
<trkpt lat="28.105858" lon="99.418217">
<time>2016-10-07T09:22:54Z</time></trkpt>
<trkpt lat="28.106227" lon="99.418067">
<time>2016-10-07T09:22:55Z</time></trkpt>
<trkpt lat="28.106507" lon="99.417927">
<time>2016-10-07T09:22:56Z</time></trkpt>
<trkpt lat="28.106977" lon="99.417497">
<time>2016-10-07T09:22:57Z</time></trkpt>
<trkpt lat="28.107177" lon="99.417227">
<time>2016-10-07T09:22:58Z</time></trkpt>
<trkpt lat="28.107367" lon="99.416977">
<time>2016-10-07T09:22:59Z</time></trkpt>
<trkpt lat="28.107687" lon="99.416627">
<time>2016-10-07T09:23:00Z</time></trkpt>
<trkpt lat="28.108016" lon="99.416377">
<time>2016-10-07T09:23:01Z</time></trkpt>
<trkpt lat="28.108306" lon="99.416257">
<time>2016-10-07T09:23:02Z</time></trkpt>
<trkpt lat="28.108546" lon="99.416217">
<time>2016-10-07T09:23:03Z</time></trkpt>
<trkpt lat="28.108926" lon="99.416207">
<time>2016-10-07T09:23:04Z</time></trkpt>
<trkpt lat="28.109246" lon="99.416227">
<time>2016-10-07T09:23:05Z</time></trkpt>
<trkpt lat="28.109596" lon="99.416197">
<time>2016-10-07T09:23:06Z</time></trkpt>
<trkpt lat="28.109886" lon="99.416117">
<time>2016-10-07T09:23:07Z</time></trkpt>
<trkpt lat="28.110116" lon="99.416007">
<time>2016-10-07T09:23:08Z</time></trkpt>
<trkpt lat="28.110246" lon="99.415877">
<time>2016-10-07T09:23:09Z</time></trkpt>
<trkpt lat="28.110476" lon="99.415607">
<time>2016-10-07T09:23:10Z</time></trkpt>
<trkpt lat="28.110636" lon="99.415287">
<time>2016-10-07T09:23:11Z</time></trkpt>
<trkpt lat="28.110775" lon="99.414166">
<time>2016-10-07T09:23:12Z</time></trkpt>
<trkpt lat="28.110885" lon="99.413636">
<time>2016-10-07T09:23:13Z</time></trkpt>
<trkpt lat="28.111035" lon="99.413366">
<time>2016-10-07T09:23:14Z</time></trkpt>
<trkpt lat="28.111205" lon="99.413156">
<time>2016-10-07T09:23:15Z</time></trkpt>
<trkpt lat="28.111575" lon="99.412896">
<time>2016-10-07T09:23:16Z</time></trkpt>
<trkpt lat="28.112005" lon="99.412796">
<time>2016-10-07T09:23:17Z</time></trkpt>
<trkpt lat="28.112615" lon="99.412726">
<time>2016-10-07T09:23:18Z</time></trkpt>
<trkpt lat="28.112835" lon="99.412666">
<time>2016-10-07T09:23:19Z</time></trkpt>
<trkpt lat="28.112985" lon="99.412596">
<time>2016-10-07T09:23:20Z</time></trkpt>
<trkpt lat="28.113075" lon="99.412556">
<time>2016-10-07T09:23:21Z</time></trkpt>
<trkpt lat="28.113175" lon="99.412496">
<time>2016-10-07T09:23:22Z</time></trkpt>
<trkpt lat="28.113305" lon="99.412386">
<time>2016-10-07T09:23:23Z</time></trkpt>
<trkpt lat="28.113575" lon="99.412086">
<time>2016-10-07T09:23:24Z</time></trkpt>
<trkpt lat="28.113734" lon="99.411646">
<time>2016-10-07T09:23:25Z</time></trkpt>
<trkpt lat="28.113824" lon="99.411016">
<time>2016-10-07T09:23:26Z</time></trkpt>
<trkpt lat="28.113854" lon="99.410566">
<time>2016-10-07T09:23:27Z</time></trkpt>
<trkpt lat="28.113934" lon="99.410136">
<time>2016-10-07T09:23:28Z</time></trkpt>
<trkpt lat="28.114074" lon="99.409766">
<time>2016-10-07T09:23:29Z</time></trkpt>
<trkpt lat="28.114283" lon="99.409396">
<time>2016-10-07T09:23:30Z</time></trkpt>
<trkpt lat="28.114593" lon="99.409116">
<time>2016-10-07T09:23:31Z</time></trkpt>
<trkpt lat="28.114903" lon="99.408916">
<time>2016-10-07T09:23:32Z</time></trkpt>
<trkpt lat="28.115673" lon="99.408556">
<time>2016-10-07T09:23:33Z</time></trkpt>
<trkpt lat="28.115923" lon="99.408396">
<time>2016-10-07T09:23:34Z</time></trkpt>
<trkpt lat="28.115933" lon="99.408396">
<time>2016-10-07T09:23:35Z</time></trkpt>
<trkpt lat="28.115933" lon="99.408386">
<time>2016-10-07T09:23:36Z</time></trkpt>
<trkpt lat="28.116163" lon="99.408187">
<time>2016-10-07T09:23:37Z</time></trkpt>
<trkpt lat="28.116353" lon="99.407907">
<time>2016-10-07T09:23:38Z</time></trkpt>
<trkpt lat="28.116513" lon="99.407557">
<time>2016-10-07T09:23:39Z</time></trkpt>
<trkpt lat="28.116793" lon="99.406737">
<time>2016-10-07T09:23:40Z</time></trkpt>
<trkpt lat="28.117023" lon="99.406267">
<time>2016-10-07T09:23:41Z</time></trkpt>
<trkpt lat="28.117403" lon="99.405897">
<time>2016-10-07T09:23:42Z</time></trkpt>
<trkpt lat="28.117843" lon="99.405677">
<time>2016-10-07T09:23:43Z</time></trkpt>
<trkpt lat="28.118453" lon="99.405627">
<time>2016-10-07T09:23:44Z</time></trkpt>
<trkpt lat="28.118953" lon="99.405707">
<time>2016-10-07T09:23:45Z</time></trkpt>
<trkpt lat="28.119473" lon="99.405767">
<time>2016-10-07T09:23:46Z</time></trkpt>
<trkpt lat="28.119843" lon="99.405747">
<time>2016-10-07T09:23:47Z</time></trkpt>
<trkpt lat="28.120363" lon="99.405587">
<time>2016-10-07T09:23:48Z</time></trkpt>
<trkpt lat="28.120763" lon="99.405347">
<time>2016-10-07T09:23:49Z</time></trkpt>
<trkpt lat="28.121183" lon="99.404957">
<time>2016-10-07T09:23:50Z</time></trkpt>
<trkpt lat="28.121513" lon="99.404468">
<time>2016-10-07T09:23:51Z</time></trkpt>
<trkpt lat="28.121733" lon="99.403878">
<time>2016-10-07T09:23:52Z</time></trkpt>
<trkpt lat="28.121923" lon="99.403218">
<time>2016-10-07T09:23:53Z</time></trkpt>
<trkpt lat="28.122203" lon="99.402548">
<time>2016-10-07T09:23:54Z</time></trkpt>
<trkpt lat="28.122703" lon="99.401839">
<time>2016-10-07T09:23:55Z</time></trkpt>
<trkpt lat="28.123063" lon="99.401359">
<time>2016-10-07T09:23:56Z</time></trkpt>
<trkpt lat="28.123313" lon="99.400939">
<time>2016-10-07T09:23:57Z</time></trkpt>
<trkpt lat="28.123443" lon="99.400689">
<time>2016-10-07T09:23:58Z</time></trkpt>
<trkpt lat="28.123563" lon="99.40038">
<time>2016-10-07T09:23:59Z</time></trkpt>
<trkpt lat="28.123963" lon="99.39934">
<time>2016-10-07T09:24:00Z</time></trkpt>
<trkpt lat="28.124393" lon="99.398711">
<time>2016-10-07T09:24:01Z</time></trkpt>
<trkpt lat="28.124833" lon="99.398281">
<time>2016-10-07T09:24:02Z</time></trkpt>
<trkpt lat="28.124913" lon="99.398201">
<time>2016-10-07T09:24:03Z</time></trkpt>
<trkpt lat="28.125173" lon="99.397941">
<time>2016-10-07T09:24:04Z</time></trkpt>
<trkpt lat="28.125273" lon="99.397851">
<time>2016-10-07T09:24:05Z</time></trkpt>
<trkpt lat="28.125273" lon="99.397851">
<time>2016-10-07T09:24:06Z</time></trkpt>
<trkpt lat="28.125423" lon="99.397671">
<time>2016-10-07T09:24:07Z</time></trkpt>
<trkpt lat="28.125713" lon="99.397272">
<time>2016-10-07T09:24:08Z</time></trkpt>
<trkpt lat="28.126324" lon="99.396102">
<time>2016-10-07T09:24:09Z</time></trkpt>
<trkpt lat="28.126794" lon="99.395373">
<time>2016-10-07T09:24:10Z</time></trkpt>
<trkpt lat="28.126884" lon="99.395233">
<time>2016-10-07T09:24:11Z</time></trkpt>
<trkpt lat="28.127034" lon="99.395093">
<time>2016-10-07T09:24:12Z</time></trkpt>
<trkpt lat="28.127464" lon="99.394684">
<time>2016-10-07T09:24:13Z</time></trkpt>
<trkpt lat="28.128475" lon="99.394174">
<time>2016-10-07T09:24:14Z</time></trkpt>
<trkpt lat="28.128765" lon="99.394104">
<time>2016-10-07T09:24:15Z</time></trkpt>
<trkpt lat="28.128965" lon="99.394074">
<time>2016-10-07T09:24:16Z</time></trkpt>
<trkpt lat="28.128965" lon="99.394074">
<time>2016-10-07T09:24:17Z</time></trkpt>
<trkpt lat="28.129365" lon="99.394034">
<time>2016-10-07T09:24:18Z</time></trkpt>
<trkpt lat="28.130405" lon="99.393974">
<time>2016-10-07T09:24:19Z</time></trkpt>
<trkpt lat="28.130615" lon="99.393964">
<time>2016-10-07T09:24:20Z</time></trkpt>
<trkpt lat="28.130875" lon="99.393854">
<time>2016-10-07T09:24:21Z</time></trkpt>
<trkpt lat="28.131245" lon="99.393704">
<time>2016-10-07T09:24:22Z</time></trkpt>
<trkpt lat="28.132185" lon="99.393205">
<time>2016-10-07T09:24:23Z</time></trkpt>
<trkpt lat="28.132555" lon="99.393125">
<time>2016-10-07T09:24:24Z</time></trkpt>
<trkpt lat="28.132875" lon="99.393125">
<time>2016-10-07T09:24:25Z</time></trkpt>
<trkpt lat="28.132975" lon="99.393045">
<time>2016-10-07T09:24:26Z</time></trkpt>
<trkpt lat="28.133045" lon="99.392995">
<time>2016-10-07T09:24:27Z</time></trkpt>
<trkpt lat="28.133165" lon="99.392935">
<time>2016-10-07T09:24:28Z</time></trkpt>
<trkpt lat="28.133215" lon="99.392925">
<time>2016-10-07T09:24:29Z</time></trkpt>
<trkpt lat="28.133405" lon="99.392935">
<time>2016-10-07T09:24:30Z</time></trkpt>
<trkpt lat="28.133525" lon="99.392935">
<time>2016-10-07T09:24:31Z</time></trkpt>
<trkpt lat="28.133945" lon="99.393035">
<time>2016-10-07T09:24:32Z</time></trkpt>
<trkpt lat="28.134385" lon="99.393135">
<time>2016-10-07T09:24:33Z</time></trkpt>
<trkpt lat="28.134495" lon="99.393165">
<time>2016-10-07T09:24:34Z</time></trkpt>
<trkpt lat="28.134565" lon="99.393175">
<time>2016-10-07T09:24:35Z</time></trkpt>
<trkpt lat="28.134835" lon="99.393165">
<time>2016-10-07T09:24:36Z</time></trkpt>
<trkpt lat="28.134895" lon="99.393165">
<time>2016-10-07T09:24:37Z</time></trkpt>
<trkpt lat="28.135015" lon="99.393155">
<time>2016-10-07T09:24:38Z</time></trkpt>
<trkpt lat="28.135136" lon="99.393135">
<time>2016-10-07T09:24:39Z</time></trkpt>
<trkpt lat="28.135366" lon="99.393075">
<time>2016-10-07T09:24:40Z</time></trkpt>
<trkpt lat="28.135646" lon="99.392995">
<time>2016-10-07T09:24:41Z</time></trkpt>
<trkpt lat="28.135736" lon="99.392985">
<time>2016-10-07T09:24:42Z</time></trkpt>
<trkpt lat="28.135826" lon="99.392985">
<time>2016-10-07T09:24:43Z</time></trkpt>
<trkpt lat="28.135906" lon="99.392995">
<time>2016-10-07T09:24:44Z</time></trkpt>
<trkpt lat="28.136046" lon="99.393025">
<time>2016-10-07T09:24:45Z</time></trkpt>
<trkpt lat="28.136216" lon="99.393065">
<time>2016-10-07T09:24:46Z</time></trkpt>
<trkpt lat="28.136366" lon="99.393135">
<time>2016-10-07T09:24:47Z</time></trkpt>
<trkpt lat="28.136526" lon="99.393245">
<time>2016-10-07T09:24:48Z</time></trkpt>
<trkpt lat="28.136616" lon="99.393365">
<time>2016-10-07T09:24:49Z</time></trkpt>
<trkpt lat="28.136696" lon="99.393505">
<time>2016-10-07T09:24:50Z</time></trkpt>
<trkpt lat="28.136766" lon="99.393644">
<time>2016-10-07T09:24:51Z</time></trkpt>
<trkpt lat="28.136815" lon="99.393694">
<time>2016-10-07T09:24:52Z</time></trkpt>
<trkpt lat="28.137025" lon="99.393914">
<time>2016-10-07T09:24:53Z</time></trkpt>
<trkpt lat="28.137165" lon="99.394124">
<time>2016-10-07T09:24:54Z</time></trkpt>
<trkpt lat="28.137695" lon="99.395343">
<time>2016-10-07T09:24:55Z</time></trkpt>
<trkpt lat="28.137915" lon="99.395782">
<time>2016-10-07T09:24:56Z</time></trkpt>
<trkpt lat="28.138215" lon="99.396152">
<time>2016-10-07T09:24:57Z</time></trkpt>
<trkpt lat="28.138535" lon="99.396502">
<time>2016-10-07T09:24:58Z</time></trkpt>
<trkpt lat="28.138765" lon="99.396862">
<time>2016-10-07T09:24:59Z</time></trkpt>
<trkpt lat="28.139385" lon="99.397981">
<time>2016-10-07T09:25:00Z</time></trkpt>
<trkpt lat="28.139765" lon="99.39866">
<time>2016-10-07T09:25:01Z</time></trkpt>
<trkpt lat="28.140425" lon="99.39925">
<time>2016-10-07T09:25:02Z</time></trkpt>
<trkpt lat="28.145255" lon="99.402278">
<time>2016-10-07T09:25:03Z</time></trkpt>
<trkpt lat="28.146905" lon="99.403657">
<time>2016-10-07T09:25:04Z</time></trkpt>
<trkpt lat="28.147455" lon="99.403857">
<time>2016-10-07T09:25:05Z</time></trkpt>
<trkpt lat="28.149066" lon="99.404017">
<time>2016-10-07T09:25:06Z</time></trkpt>
<trkpt lat="28.150946" lon="99.404147">
<time>2016-10-07T09:25:07Z</time></trkpt>
<trkpt lat="28.151216" lon="99.404147">
<time>2016-10-07T09:25:08Z</time></trkpt>
<trkpt lat="28.151476" lon="99.404077">
<time>2016-10-07T09:25:09Z</time></trkpt>
<trkpt lat="28.151886" lon="99.403817">
<time>2016-10-07T09:25:10Z</time></trkpt>
<trkpt lat="28.152296" lon="99.403417">
<time>2016-10-07T09:25:11Z</time></trkpt>
<trkpt lat="28.153406" lon="99.402617">
<time>2016-10-07T09:25:12Z</time></trkpt>
<trkpt lat="28.154436" lon="99.401568">
<time>2016-10-07T09:25:13Z</time></trkpt>
<trkpt lat="28.155376" lon="99.400619">
<time>2016-10-07T09:25:14Z</time></trkpt>
<trkpt lat="28.155826" lon="99.400319">
<time>2016-10-07T09:25:15Z</time></trkpt>
<trkpt lat="28.156146" lon="99.400169">
<time>2016-10-07T09:25:16Z</time></trkpt>
<trkpt lat="28.156366" lon="99.400069">
<time>2016-10-07T09:25:17Z</time></trkpt>
<trkpt lat="28.156416" lon="99.400039">
<time>2016-10-07T09:25:18Z</time></trkpt>
<trkpt lat="28.156466" lon="99.400009">
<time>2016-10-07T09:25:19Z</time></trkpt>
<trkpt lat="28.156516" lon="99.399979">
<time>2016-10-07T09:25:20Z</time></trkpt>
<trkpt lat="28.156556" lon="99.399949">
<time>2016-10-07T09:25:21Z</time></trkpt>
<trkpt lat="28.156606" lon="99.399899">
<time>2016-10-07T09:25:22Z</time></trkpt>
<trkpt lat="28.156666" lon="99.399849">
<time>2016-10-07T09:25:23Z</time></trkpt>
<trkpt lat="28.156746" lon="99.399759">
<time>2016-10-07T09:25:24Z</time></trkpt>
<trkpt lat="28.156826" lon="99.399649">
<time>2016-10-07T09:25:25Z</time></trkpt>
<trkpt lat="28.156876" lon="99.399579">
<time>2016-10-07T09:25:26Z</time></trkpt>
<trkpt lat="28.156926" lon="99.399489">
<time>2016-10-07T09:25:27Z</time></trkpt>
<trkpt lat="28.156986" lon="99.399359">
<time>2016-10-07T09:25:28Z</time></trkpt>
<trkpt lat="28.157076" lon="99.399149">
<time>2016-10-07T09:25:29Z</time></trkpt>
<trkpt lat="28.157266" lon="99.39874">
<time>2016-10-07T09:25:30Z</time></trkpt>
<trkpt lat="28.157546" lon="99.39809">
<time>2016-10-07T09:25:31Z</time></trkpt>
<trkpt lat="28.157907" lon="99.397281">
<time>2016-10-07T09:25:32Z</time></trkpt>
<trkpt lat="28.158117" lon="99.396801">
<time>2016-10-07T09:25:33Z</time></trkpt>
<trkpt lat="28.158357" lon="99.396272">
<time>2016-10-07T09:25:34Z</time></trkpt>
<trkpt lat="28.158447" lon="99.396072">
<time>2016-10-07T09:25:35Z</time></trkpt>
<trkpt lat="28.158547" lon="99.395882">
<time>2016-10-07T09:25:36Z</time></trkpt>
<trkpt lat="28.158607" lon="99.395762">
<time>2016-10-07T09:25:37Z</time></trkpt>
<trkpt lat="28.158687" lon="99.395632">
<time>2016-10-07T09:25:38Z</time></trkpt>
<trkpt lat="28.158757" lon="99.395542">
<time>2016-10-07T09:25:39Z</time></trkpt>
<trkpt lat="28.158857" lon="99.395422">
<time>2016-10-07T09:25:40Z</time></trkpt>
<trkpt lat="28.158967" lon="99.395312">
<time>2016-10-07T09:25:41Z</time></trkpt>
<trkpt lat="28.159077" lon="99.395212">
<time>2016-10-07T09:25:42Z</time></trkpt>
<trkpt lat="28.159277" lon="99.395033">
<time>2016-10-07T09:25:43Z</time></trkpt>
<trkpt lat="28.159437" lon="99.394893">
<time>2016-10-07T09:25:44Z</time></trkpt>
<trkpt lat="28.159767" lon="99.394603">
<time>2016-10-07T09:25:45Z</time></trkpt>
<trkpt lat="28.159787" lon="99.394583">
<time>2016-10-07T09:25:46Z</time></trkpt>
<trkpt lat="28.159787" lon="99.394583">
<time>2016-10-07T09:25:47Z</time></trkpt>
<trkpt lat="28.159807" lon="99.394403">
<time>2016-10-07T09:25:48Z</time></trkpt>
<trkpt lat="28.159867" lon="99.394243">
<time>2016-10-07T09:25:49Z</time></trkpt>
<trkpt lat="28.159957" lon="99.394093">
<time>2016-10-07T09:25:50Z</time></trkpt>
<trkpt lat="28.160117" lon="99.393904">
<time>2016-10-07T09:25:51Z</time></trkpt>
<trkpt lat="28.160908" lon="99.393314">
<time>2016-10-07T09:25:52Z</time></trkpt>
<trkpt lat="28.161098" lon="99.393194">
<time>2016-10-07T09:25:53Z</time></trkpt>
<trkpt lat="28.161278" lon="99.393114">
<time>2016-10-07T09:25:54Z</time></trkpt>
<trkpt lat="28.161458" lon="99.393054">
<time>2016-10-07T09:25:55Z</time></trkpt>
<trkpt lat="28.161648" lon="99.392994">
<time>2016-10-07T09:25:56Z</time></trkpt>
<trkpt lat="28.161958" lon="99.392944">
<time>2016-10-07T09:25:57Z</time></trkpt>
<trkpt lat="28.162258" lon="99.392884">
<time>2016-10-07T09:25:58Z</time></trkpt>
<trkpt lat="28.162508" lon="99.392854">
<time>2016-10-07T09:25:59Z</time></trkpt>
<trkpt lat="28.162778" lon="99.392834">
<time>2016-10-07T09:26:00Z</time></trkpt>
<trkpt lat="28.163048" lon="99.392824">
<time>2016-10-07T09:26:01Z</time></trkpt>
<trkpt lat="28.163318" lon="99.392834">
<time>2016-10-07T09:26:02Z</time></trkpt>
<trkpt lat="28.163498" lon="99.392834">
<time>2016-10-07T09:26:03Z</time></trkpt>
<trkpt lat="28.163668" lon="99.392834">
<time>2016-10-07T09:26:04Z</time></trkpt>
<trkpt lat="28.163808" lon="99.392824">
<time>2016-10-07T09:26:05Z</time></trkpt>
<trkpt lat="28.164028" lon="99.392785">
<time>2016-10-07T09:26:06Z</time></trkpt>
<trkpt lat="28.164828" lon="99.392635">
<time>2016-10-07T09:26:07Z</time></trkpt>
<trkpt lat="28.165358" lon="99.392455">
<time>2016-10-07T09:26:08Z</time></trkpt>
<trkpt lat="28.165428" lon="99.392435">
<time>2016-10-07T09:26:09Z</time></trkpt>
<trkpt lat="28.165498" lon="99.392425">
<time>2016-10-07T09:26:10Z</time></trkpt>
<trkpt lat="28.165568" lon="99.392415">
<time>2016-10-07T09:26:11Z</time></trkpt>
<trkpt lat="28.165648" lon="99.392415">
<time>2016-10-07T09:26:12Z</time></trkpt>
<trkpt lat="28.165758" lon="99.392435">
<time>2016-10-07T09:26:13Z</time></trkpt>
<trkpt lat="28.166048" lon="99.392475">
<time>2016-10-07T09:26:14Z</time></trkpt>
<trkpt lat="28.166388" lon="99.392535">
<time>2016-10-07T09:26:15Z</time></trkpt>
<trkpt lat="28.166558" lon="99.392555">
<time>2016-10-07T09:26:16Z</time></trkpt>
<trkpt lat="28.166688" lon="99.392555">
<time>2016-10-07T09:26:17Z</time></trkpt>
<trkpt lat="28.167348" lon="99.392535">
<time>2016-10-07T09:26:18Z</time></trkpt>
<trkpt lat="28.167679" lon="99.392485">
<time>2016-10-07T09:26:19Z</time></trkpt>
<trkpt lat="28.167929" lon="99.392445">
<time>2016-10-07T09:26:20Z</time></trkpt>
<trkpt lat="28.168109" lon="99.392405">
<time>2016-10-07T09:26:21Z</time></trkpt>
<trkpt lat="28.168689" lon="99.392225">
<time>2016-10-07T09:26:22Z</time></trkpt>
<trkpt lat="28.168819" lon="99.392185">
<time>2016-10-07T09:26:23Z</time></trkpt>
<trkpt lat="28.168939" lon="99.392145">
<time>2016-10-07T09:26:24Z</time></trkpt>
<trkpt lat="28.169019" lon="99.392095">
<time>2016-10-07T09:26:25Z</time></trkpt>
<trkpt lat="28.169089" lon="99.392055">
<time>2016-10-07T09:26:26Z</time></trkpt>
<trkpt lat="28.169149" lon="99.392015">
<time>2016-10-07T09:26:27Z</time></trkpt>
<trkpt lat="28.169189" lon="99.391985">
<time>2016-10-07T09:26:28Z</time></trkpt>
<trkpt lat="28.169229" lon="99.391935">
<time>2016-10-07T09:26:29Z</time></trkpt>
<trkpt lat="28.169299" lon="99.391875">
<time>2016-10-07T09:26:30Z</time></trkpt>
<trkpt lat="28.169399" lon="99.391775">
<time>2016-10-07T09:26:31Z</time></trkpt>
<trkpt lat="28.169479" lon="99.391725">
<time>2016-10-07T09:26:32Z</time></trkpt>
<trkpt lat="28.169549" lon="99.391675">
<time>2016-10-07T09:26:33Z</time></trkpt>
<trkpt lat="28.169659" lon="99.391626">
<time>2016-10-07T09:26:34Z</time></trkpt>
<trkpt lat="28.169799" lon="99.391576">
<time>2016-10-07T09:26:35Z</time></trkpt>
<trkpt lat="28.169989" lon="99.391506">
<time>2016-10-07T09:26:36Z</time></trkpt>
<trkpt lat="28.170049" lon="99.391486">
<time>2016-10-07T09:26:37Z</time></trkpt>
<trkpt lat="28.170109" lon="99.391456">
<time>2016-10-07T09:26:38Z</time></trkpt>
<trkpt lat="28.170159" lon="99.391426">
<time>2016-10-07T09:26:39Z</time></trkpt>
<trkpt lat="28.170209" lon="99.391376">
<time>2016-10-07T09:26:40Z</time></trkpt>
<trkpt lat="28.170259" lon="99.391316">
<time>2016-10-07T09:26:41Z</time></trkpt>
<trkpt lat="28.170299" lon="99.391246">
<time>2016-10-07T09:26:42Z</time></trkpt>
<trkpt lat="28.170359" lon="99.391146">
<time>2016-10-07T09:26:43Z</time></trkpt>
<trkpt lat="28.170449" lon="99.390986">
<time>2016-10-07T09:26:44Z</time></trkpt>
<trkpt lat="28.170519" lon="99.390866">
<time>2016-10-07T09:26:45Z</time></trkpt>
<trkpt lat="28.170589" lon="99.390796">
<time>2016-10-07T09:26:46Z</time></trkpt>
<trkpt lat="28.170689" lon="99.390687">
<time>2016-10-07T09:26:47Z</time></trkpt>
<trkpt lat="28.17082" lon="99.390557">
<time>2016-10-07T09:26:48Z</time></trkpt>
<trkpt lat="28.17108" lon="99.390337">
<time>2016-10-07T09:26:49Z</time></trkpt>
<trkpt lat="28.17126" lon="99.390207">
<time>2016-10-07T09:26:50Z</time></trkpt>
<trkpt lat="28.17151" lon="99.390017">
<time>2016-10-07T09:26:51Z</time></trkpt>
<trkpt lat="28.17156" lon="99.389967">
<time>2016-10-07T09:26:52Z</time></trkpt>
<trkpt lat="28.17159" lon="99.389927">
<time>2016-10-07T09:26:53Z</time></trkpt>
<trkpt lat="28.17162" lon="99.389887">
<time>2016-10-07T09:26:54Z</time></trkpt>
<trkpt lat="28.17165" lon="99.389857">
<time>2016-10-07T09:26:55Z</time></trkpt>
<trkpt lat="28.17167" lon="99.389817">
<time>2016-10-07T09:26:56Z</time></trkpt>
<trkpt lat="28.1717" lon="99.389777">
<time>2016-10-07T09:26:57Z</time></trkpt>
<trkpt lat="28.17174" lon="99.389718">
<time>2016-10-07T09:26:58Z</time></trkpt>
<trkpt lat="28.17176" lon="99.389678">
<time>2016-10-07T09:26:59Z</time></trkpt>
<trkpt lat="28.17178" lon="99.389618">
<time>2016-10-07T09:27:00Z</time></trkpt>
<trkpt lat="28.1718" lon="99.389578">
<time>2016-10-07T09:27:01Z</time></trkpt>
<trkpt lat="28.17182" lon="99.389508">
<time>2016-10-07T09:27:02Z</time></trkpt>
<trkpt lat="28.17188" lon="99.389218">
<time>2016-10-07T09:27:03Z</time></trkpt>
<trkpt lat="28.17191" lon="99.389098">
<time>2016-10-07T09:27:04Z</time></trkpt>
<trkpt lat="28.17193" lon="99.389008">
<time>2016-10-07T09:27:05Z</time></trkpt>
<trkpt lat="28.17195" lon="99.388978">
<time>2016-10-07T09:27:06Z</time></trkpt>
<trkpt lat="28.17197" lon="99.388938">
<time>2016-10-07T09:27:07Z</time></trkpt>
<trkpt lat="28.17199" lon="99.388918">
<time>2016-10-07T09:27:08Z</time></trkpt>
<trkpt lat="28.17201" lon="99.388908">
<time>2016-10-07T09:27:09Z</time></trkpt>
<trkpt lat="28.17203" lon="99.388898">
<time>2016-10-07T09:27:10Z</time></trkpt>
<trkpt lat="28.17207" lon="99.388889">
<time>2016-10-07T09:27:11Z</time></trkpt>
<trkpt lat="28.17213" lon="99.388879">
<time>2016-10-07T09:27:12Z</time></trkpt>
<trkpt lat="28.17216" lon="99.388869">
<time>2016-10-07T09:27:13Z</time></trkpt>
<trkpt lat="28.17217" lon="99.388869">
<time>2016-10-07T09:27:14Z</time></trkpt>
<trkpt lat="28.1722" lon="99.388859">
<time>2016-10-07T09:27:15Z</time></trkpt>
<trkpt lat="28.17224" lon="99.388849">
<time>2016-10-07T09:27:16Z</time></trkpt>
<trkpt lat="28.17227" lon="99.388829">
<time>2016-10-07T09:27:17Z</time></trkpt>
<trkpt lat="28.17229" lon="99.388819">
<time>2016-10-07T09:27:18Z</time></trkpt>
<trkpt lat="28.17231" lon="99.388809">
<time>2016-10-07T09:27:19Z</time></trkpt>
<trkpt lat="28.17233" lon="99.388789">
<time>2016-10-07T09:27:20Z</time></trkpt>
<trkpt lat="28.172361" lon="99.388759">
<time>2016-10-07T09:27:21Z</time></trkpt>
<trkpt lat="28.172381" lon="99.388729">
<time>2016-10-07T09:27:22Z</time></trkpt>
<trkpt lat="28.172391" lon="99.388689">
<time>2016-10-07T09:27:23Z</time></trkpt>
<trkpt lat="28.172401" lon="99.388649">
<time>2016-10-07T09:27:24Z</time></trkpt>
<trkpt lat="28.172411" lon="99.388609">
<time>2016-10-07T09:27:25Z</time></trkpt>
<trkpt lat="28.172461" lon="99.388399">
<time>2016-10-07T09:27:26Z</time></trkpt>
<trkpt lat="28.172491" lon="99.388289">
<time>2016-10-07T09:27:27Z</time></trkpt>
<trkpt lat="28.172521" lon="99.388199">
<time>2016-10-07T09:27:28Z</time></trkpt>
<trkpt lat="28.172541" lon="99.388129">
<time>2016-10-07T09:27:29Z</time></trkpt>
<trkpt lat="28.172571" lon="99.388059">
<time>2016-10-07T09:27:30Z</time></trkpt>
<trkpt lat="28.172621" lon="99.38797">
<time>2016-10-07T09:27:31Z</time></trkpt>
<trkpt lat="28.172681" lon="99.38789">
<time>2016-10-07T09:27:32Z</time></trkpt>
<trkpt lat="28.172741" lon="99.38782">
<time>2016-10-07T09:27:33Z</time></trkpt>
<trkpt lat="28.172811" lon="99.38776">
<time>2016-10-07T09:27:34Z</time></trkpt>
<trkpt lat="28.172881" lon="99.38771">
<time>2016-10-07T09:27:35Z</time></trkpt>
<trkpt lat="28.173001" lon="99.38764">
<time>2016-10-07T09:27:36Z</time></trkpt>
<trkpt lat="28.173161" lon="99.38755">
<time>2016-10-07T09:27:37Z</time></trkpt>
<trkpt lat="28.173291" lon="99.38748">
<time>2016-10-07T09:27:38Z</time></trkpt>
<trkpt lat="28.173431" lon="99.3874">
<time>2016-10-07T09:27:39Z</time></trkpt>
<trkpt lat="28.173561" lon="99.38736">
<time>2016-10-07T09:27:40Z</time></trkpt>
<trkpt lat="28.173761" lon="99.3873">
<time>2016-10-07T09:27:41Z</time></trkpt>
<trkpt lat="28.173821" lon="99.38729">
<time>2016-10-07T09:27:42Z</time></trkpt>
<trkpt lat="28.173861" lon="99.38727">
<time>2016-10-07T09:27:43Z</time></trkpt>
<trkpt lat="28.173901" lon="99.38726">
<time>2016-10-07T09:27:44Z</time></trkpt>
<trkpt lat="28.173941" lon="99.38723">
<time>2016-10-07T09:27:45Z</time></trkpt>
<trkpt lat="28.173971" lon="99.387201">
<time>2016-10-07T09:27:46Z</time></trkpt>
<trkpt lat="28.174002" lon="99.387161">
<time>2016-10-07T09:27:47Z</time></trkpt>
<trkpt lat="28.174022" lon="99.387131">
<time>2016-10-07T09:27:48Z</time></trkpt>
<trkpt lat="28.174032" lon="99.387091">
<time>2016-10-07T09:27:49Z</time></trkpt>
<trkpt lat="28.174042" lon="99.387051">
<time>2016-10-07T09:27:50Z</time></trkpt>
<trkpt lat="28.174062" lon="99.386961">
<time>2016-10-07T09:27:51Z</time></trkpt>
<trkpt lat="28.174072" lon="99.386911">
<time>2016-10-07T09:27:52Z</time></trkpt>
<trkpt lat="28.174082" lon="99.386871">
<time>2016-10-07T09:27:53Z</time></trkpt>
<trkpt lat="28.174102" lon="99.386831">
<time>2016-10-07T09:27:54Z</time></trkpt>
<trkpt lat="28.174122" lon="99.386801">
<time>2016-10-07T09:27:55Z</time></trkpt>
<trkpt lat="28.174152" lon="99.386781">
<time>2016-10-07T09:27:56Z</time></trkpt>
<trkpt lat="28.174202" lon="99.386741">
<time>2016-10-07T09:27:57Z</time></trkpt>
<trkpt lat="28.174262" lon="99.386701">
<time>2016-10-07T09:27:58Z</time></trkpt>
<trkpt lat="28.174362" lon="99.386651">
<time>2016-10-07T09:27:59Z</time></trkpt>
<trkpt lat="28.174442" lon="99.386591">
<time>2016-10-07T09:28:00Z</time></trkpt>
<trkpt lat="28.174522" lon="99.386541">
<time>2016-10-07T09:28:01Z</time></trkpt>
<trkpt lat="28.174662" lon="99.386441">
<time>2016-10-07T09:28:02Z</time></trkpt>
<trkpt lat="28.174762" lon="99.386342">
<time>2016-10-07T09:28:03Z</time></trkpt>
<trkpt lat="28.174862" lon="99.386252">
<time>2016-10-07T09:28:04Z</time></trkpt>
<trkpt lat="28.174952" lon="99.386192">
<time>2016-10-07T09:28:05Z</time></trkpt>
<trkpt lat="28.175052" lon="99.386142">
<time>2016-10-07T09:28:06Z</time></trkpt>
<trkpt lat="28.175332" lon="99.386032">
<time>2016-10-07T09:28:07Z</time></trkpt>
<trkpt lat="28.175442" lon="99.385982">
<time>2016-10-07T09:28:08Z</time></trkpt>
<trkpt lat="28.175562" lon="99.385922">
<time>2016-10-07T09:28:09Z</time></trkpt>
<trkpt lat="28.175642" lon="99.385862">
<time>2016-10-07T09:28:10Z</time></trkpt>
<trkpt lat="28.175702" lon="99.385802">
<time>2016-10-07T09:28:11Z</time></trkpt>
<trkpt lat="28.175803" lon="99.385722">
<time>2016-10-07T09:28:12Z</time></trkpt>
<trkpt lat="28.176503" lon="99.385073">
<time>2016-10-07T09:28:13Z</time></trkpt>
<trkpt lat="28.176773" lon="99.384794">
<time>2016-10-07T09:28:14Z</time></trkpt>
<trkpt lat="28.176933" lon="99.384594">
<time>2016-10-07T09:28:15Z</time></trkpt>
<trkpt lat="28.177074" lon="99.384364">
<time>2016-10-07T09:28:16Z</time></trkpt>
<trkpt lat="28.177294" lon="99.383965">
<time>2016-10-07T09:28:17Z</time></trkpt>
<trkpt lat="28.177544" lon="99.383445">
<time>2016-10-07T09:28:18Z</time></trkpt>
<trkpt lat="28.177704" lon="99.383096">
<time>2016-10-07T09:28:19Z</time></trkpt>
<trkpt lat="28.177785" lon="99.382866">
<time>2016-10-07T09:28:20Z</time></trkpt>
<trkpt lat="28.177885" lon="99.382447">
<time>2016-10-07T09:28:21Z</time></trkpt>
<trkpt lat="28.177935" lon="99.382247">
<time>2016-10-07T09:28:22Z</time></trkpt>
<trkpt lat="28.177955" lon="99.382217">
<time>2016-10-07T09:28:23Z</time></trkpt>
<trkpt lat="28.178005" lon="99.382097">
<time>2016-10-07T09:28:24Z</time></trkpt>
<trkpt lat="28.178065" lon="99.381988">
<time>2016-10-07T09:28:25Z</time></trkpt>
<trkpt lat="28.178165" lon="99.381878">
<time>2016-10-07T09:28:26Z</time></trkpt>
<trkpt lat="28.178416" lon="99.381638">
<time>2016-10-07T09:28:27Z</time></trkpt>
<trkpt lat="28.178776" lon="99.381339">
<time>2016-10-07T09:28:28Z</time></trkpt>
<trkpt lat="28.178816" lon="99.381299">
<time>2016-10-07T09:28:29Z</time></trkpt>
<trkpt lat="28.179246" lon="99.380949">
<time>2016-10-07T09:28:30Z</time></trkpt>
<trkpt lat="28.179406" lon="99.380849">
<time>2016-10-07T09:28:31Z</time></trkpt>
<trkpt lat="28.179546" lon="99.380769">
<time>2016-10-07T09:28:32Z</time></trkpt>
<trkpt lat="28.179987" lon="99.38064">
<time>2016-10-07T09:28:34Z</time></trkpt>
<trkpt lat="28.180127" lon="99.38059">
<time>2016-10-07T09:28:35Z</time></trkpt>
<trkpt lat="28.180247" lon="99.38054">
<time>2016-10-07T09:28:36Z</time></trkpt>
<trkpt lat="28.180367" lon="99.38047">
<time>2016-10-07T09:28:37Z</time></trkpt>
<trkpt lat="28.180457" lon="99.3804">
<time>2016-10-07T09:28:38Z</time></trkpt>
<trkpt lat="28.180837" lon="99.38009">
<time>2016-10-07T09:28:39Z</time></trkpt>
<trkpt lat="28.181528" lon="99.379551">
<time>2016-10-07T09:28:40Z</time></trkpt>
<trkpt lat="28.181878" lon="99.379352">
<time>2016-10-07T09:28:41Z</time></trkpt>
<trkpt lat="28.182078" lon="99.379212">
<time>2016-10-07T09:28:42Z</time></trkpt>
<trkpt lat="28.182308" lon="99.379032">
<time>2016-10-07T09:28:43Z</time></trkpt>
<trkpt lat="28.182678" lon="99.378653">
<time>2016-10-07T09:28:44Z</time></trkpt>
<trkpt lat="28.183039" lon="99.378223">
<time>2016-10-07T09:28:45Z</time></trkpt>
<trkpt lat="28.183359" lon="99.377754">
<time>2016-10-07T09:28:46Z</time></trkpt>
<trkpt lat="28.18352" lon="99.377475">
<time>2016-10-07T09:28:47Z</time></trkpt>
<trkpt lat="28.18367" lon="99.377255">
<time>2016-10-07T09:28:48Z</time></trkpt>
<trkpt lat="28.18384" lon="99.377055">
<time>2016-10-07T09:28:49Z</time></trkpt>
<trkpt lat="28.184741" lon="99.376067">
<time>2016-10-07T09:28:50Z</time></trkpt>
<trkpt lat="28.184871" lon="99.375897">
<time>2016-10-07T09:28:51Z</time></trkpt>
<trkpt lat="28.185001" lon="99.375688">
<time>2016-10-07T09:28:52Z</time></trkpt>
<trkpt lat="28.185382" lon="99.375029">
<time>2016-10-07T09:28:53Z</time></trkpt>
<trkpt lat="28.185643" lon="99.37454">
<time>2016-10-07T09:28:54Z</time></trkpt>
<trkpt lat="28.185903" lon="99.374021">
<time>2016-10-07T09:28:55Z</time></trkpt>
<trkpt lat="28.186014" lon="99.373761">
<time>2016-10-07T09:28:56Z</time></trkpt>
<trkpt lat="28.186134" lon="99.373362">
<time>2016-10-07T09:28:57Z</time></trkpt>
<trkpt lat="28.186285" lon="99.372843">
<time>2016-10-07T09:28:58Z</time></trkpt>
<trkpt lat="28.186375" lon="99.372473">
<time>2016-10-07T09:28:59Z</time></trkpt>
<trkpt lat="28.186445" lon="99.372124">
<time>2016-10-07T09:29:00Z</time></trkpt>
<trkpt lat="28.186536" lon="99.371615">
<time>2016-10-07T09:29:01Z</time></trkpt>
<trkpt lat="28.186576" lon="99.371356">
<time>2016-10-07T09:29:02Z</time></trkpt>
<trkpt lat="28.186586" lon="99.371156">
<time>2016-10-07T09:29:03Z</time></trkpt>
<trkpt lat="28.186587" lon="99.370956">
<time>2016-10-07T09:29:04Z</time></trkpt>
<trkpt lat="28.186567" lon="99.370767">
<time>2016-10-07T09:29:05Z</time></trkpt>
<trkpt lat="28.186398" lon="99.369659">
<time>2016-10-07T09:29:06Z</time></trkpt>
<trkpt lat="28.186199" lon="99.368731">
<time>2016-10-07T09:29:07Z</time></trkpt>
<trkpt lat="28.18618" lon="99.368541">
<time>2016-10-07T09:29:08Z</time></trkpt>
<trkpt lat="28.18617" lon="99.368441">
<time>2016-10-07T09:29:09Z</time></trkpt>
<trkpt lat="28.18618" lon="99.368351">
<time>2016-10-07T09:29:10Z</time></trkpt>
<trkpt lat="28.1862" lon="99.368262">
<time>2016-10-07T09:29:11Z</time></trkpt>
<trkpt lat="28.18623" lon="99.368192">
<time>2016-10-07T09:29:12Z</time></trkpt>
<trkpt lat="28.18637" lon="99.367952">
<time>2016-10-07T09:29:13Z</time></trkpt>
<trkpt lat="28.1864" lon="99.367892">
<time>2016-10-07T09:29:14Z</time></trkpt>
<trkpt lat="28.186421" lon="99.367862">
<time>2016-10-07T09:29:15Z</time></trkpt>
<trkpt lat="28.186431" lon="99.367813">
<time>2016-10-07T09:29:16Z</time></trkpt>
<trkpt lat="28.186441" lon="99.367773">
<time>2016-10-07T09:29:17Z</time></trkpt>
<trkpt lat="28.186441" lon="99.367723">
<time>2016-10-07T09:29:18Z</time></trkpt>
<trkpt lat="28.186441" lon="99.367663">
<time>2016-10-07T09:29:19Z</time></trkpt>
<trkpt lat="28.186431" lon="99.367633">
<time>2016-10-07T09:29:20Z</time></trkpt>
<trkpt lat="28.186421" lon="99.367603">
<time>2016-10-07T09:29:21Z</time></trkpt>
<trkpt lat="28.186401" lon="99.367563">
<time>2016-10-07T09:29:22Z</time></trkpt>
<trkpt lat="28.186371" lon="99.367533">
<time>2016-10-07T09:29:23Z</time></trkpt>
<trkpt lat="28.186351" lon="99.367503">
<time>2016-10-07T09:29:24Z</time></trkpt>
<trkpt lat="28.186311" lon="99.367483">
<time>2016-10-07T09:29:25Z</time></trkpt>
<trkpt lat="28.186271" lon="99.367453">
<time>2016-10-07T09:29:26Z</time></trkpt>
<trkpt lat="28.186231" lon="99.367433">
<time>2016-10-07T09:29:27Z</time></trkpt>
<trkpt lat="28.186141" lon="99.367393">
<time>2016-10-07T09:29:28Z</time></trkpt>
<trkpt lat="28.185931" lon="99.367334">
<time>2016-10-07T09:29:29Z</time></trkpt>
<trkpt lat="28.185801" lon="99.367284">
<time>2016-10-07T09:29:30Z</time></trkpt>
<trkpt lat="28.185681" lon="99.367224">
<time>2016-10-07T09:29:31Z</time></trkpt>
<trkpt lat="28.185571" lon="99.367144">
<time>2016-10-07T09:29:32Z</time></trkpt>
<trkpt lat="28.185481" lon="99.367054">
<time>2016-10-07T09:29:33Z</time></trkpt>
<trkpt lat="28.185392" lon="99.366944">
<time>2016-10-07T09:29:34Z</time></trkpt>
<trkpt lat="28.185272" lon="99.366785">
<time>2016-10-07T09:29:35Z</time></trkpt>
<trkpt lat="28.185172" lon="99.366605">
<time>2016-10-07T09:29:36Z</time></trkpt>
<trkpt lat="28.185062" lon="99.366356">
<time>2016-10-07T09:29:37Z</time></trkpt>
<trkpt lat="28.184833" lon="99.365747">
<time>2016-10-07T09:29:38Z</time></trkpt>
<trkpt lat="28.184664" lon="99.365398">
<time>2016-10-07T09:29:39Z</time></trkpt>
<trkpt lat="28.184624" lon="99.365278">
<time>2016-10-07T09:29:40Z</time></trkpt>
<trkpt lat="28.184594" lon="99.365138">
<time>2016-10-07T09:29:41Z</time></trkpt>
<trkpt lat="28.184574" lon="99.365009">
<time>2016-10-07T09:29:42Z</time></trkpt>
<trkpt lat="28.184564" lon="99.364879">
<time>2016-10-07T09:29:43Z</time></trkpt>
<trkpt lat="28.184545" lon="99.364599">
<time>2016-10-07T09:29:44Z</time></trkpt>
<trkpt lat="28.184526" lon="99.363921">
<time>2016-10-07T09:29:45Z</time></trkpt>
<trkpt lat="28.184417" lon="99.363113">
<time>2016-10-07T09:29:46Z</time></trkpt>
<trkpt lat="28.184397" lon="99.362783">
<time>2016-10-07T09:29:47Z</time></trkpt>
<trkpt lat="28.184398" lon="99.362594">
<time>2016-10-07T09:29:48Z</time></trkpt>
<trkpt lat="28.184418" lon="99.362374">
<time>2016-10-07T09:29:49Z</time></trkpt>
<trkpt lat="28.184448" lon="99.362215">
<time>2016-10-07T09:29:50Z</time></trkpt>
<trkpt lat="28.184478" lon="99.362075">
<time>2016-10-07T09:29:51Z</time></trkpt>
<trkpt lat="28.184559" lon="99.361855">
<time>2016-10-07T09:29:52Z</time></trkpt>
<trkpt lat="28.184599" lon="99.361746">
<time>2016-10-07T09:29:53Z</time></trkpt>
<trkpt lat="28.184629" lon="99.361636">
<time>2016-10-07T09:29:54Z</time></trkpt>
<trkpt lat="28.184659" lon="99.361466">
<time>2016-10-07T09:29:55Z</time></trkpt>
<trkpt lat="28.184679" lon="99.361237">
<time>2016-10-07T09:29:56Z</time></trkpt>
<trkpt lat="28.18472" lon="99.361117">
<time>2016-10-07T09:29:57Z</time></trkpt>
<trkpt lat="28.18478" lon="99.361007">
<time>2016-10-07T09:29:58Z</time></trkpt>
<trkpt lat="28.18485" lon="99.360898">
<time>2016-10-07T09:29:59Z</time></trkpt>
<trkpt lat="28.18496" lon="99.360778">
<time>2016-10-07T09:30:00Z</time></trkpt>
<trkpt lat="28.18511" lon="99.360638">
<time>2016-10-07T09:30:01Z</time></trkpt>
<trkpt lat="28.185251" lon="99.360538">
<time>2016-10-07T09:30:02Z</time></trkpt>
<trkpt lat="28.185361" lon="99.360459">
<time>2016-10-07T09:30:03Z</time></trkpt>
<trkpt lat="28.185451" lon="99.360389">
<time>2016-10-07T09:30:04Z</time></trkpt>
<trkpt lat="28.185511" lon="99.360329">
<time>2016-10-07T09:30:05Z</time></trkpt>
<trkpt lat="28.185571" lon="99.360259">
<time>2016-10-07T09:30:06Z</time></trkpt>
<trkpt lat="28.185691" lon="99.36005">
<time>2016-10-07T09:30:07Z</time></trkpt>
<trkpt lat="28.185741" lon="99.35998">
<time>2016-10-07T09:30:08Z</time></trkpt>
<trkpt lat="28.185791" lon="99.35992">
<time>2016-10-07T09:30:09Z</time></trkpt>
<trkpt lat="28.185842" lon="99.35987">
<time>2016-10-07T09:30:10Z</time></trkpt>
<trkpt lat="28.185902" lon="99.35983">
<time>2016-10-07T09:30:11Z</time></trkpt>
<trkpt lat="28.185992" lon="99.35978">
<time>2016-10-07T09:30:12Z</time></trkpt>
<trkpt lat="28.186272" lon="99.35966">
<time>2016-10-07T09:30:13Z</time></trkpt>
<trkpt lat="28.186442" lon="99.359611">
<time>2016-10-07T09:30:14Z</time></trkpt>
<trkpt lat="28.186542" lon="99.359581">
<time>2016-10-07T09:30:15Z</time></trkpt>
<trkpt lat="28.186662" lon="99.359571">
<time>2016-10-07T09:30:16Z</time></trkpt>
<trkpt lat="28.186782" lon="99.359561">
<time>2016-10-07T09:30:17Z</time></trkpt>
<trkpt lat="28.186902" lon="99.359551">
<time>2016-10-07T09:30:18Z</time></trkpt>
<trkpt lat="28.187162" lon="99.359541">
<time>2016-10-07T09:30:19Z</time></trkpt>
<trkpt lat="28.188142" lon="99.359521">
<time>2016-10-07T09:30:20Z</time></trkpt>
<trkpt lat="28.188342" lon="99.359511">
<time>2016-10-07T09:30:21Z</time></trkpt>
<trkpt lat="28.188482" lon="99.359501">
<time>2016-10-07T09:30:22Z</time></trkpt>
<trkpt lat="28.188672" lon="99.359461">
<time>2016-10-07T09:30:23Z</time></trkpt>
<trkpt lat="28.189243" lon="99.359301">
<time>2016-10-07T09:30:24Z</time></trkpt>
<trkpt lat="28.189373" lon="99.359271">
<time>2016-10-07T09:30:25Z</time></trkpt>
<trkpt lat="28.189603" lon="99.359221">
<time>2016-10-07T09:30:26Z</time></trkpt>
<trkpt lat="28.190243" lon="99.359122">
<time>2016-10-07T09:30:27Z</time></trkpt>
<trkpt lat="28.190833" lon="99.359032">
<time>2016-10-07T09:30:28Z</time></trkpt>
<trkpt lat="28.191093" lon="99.358972">
<time>2016-10-07T09:30:29Z</time></trkpt>
<trkpt lat="28.191213" lon="99.358932">
<time>2016-10-07T09:30:30Z</time></trkpt>
<trkpt lat="28.191333" lon="99.358882">
<time>2016-10-07T09:30:31Z</time></trkpt>
<trkpt lat="28.191463" lon="99.358802">
<time>2016-10-07T09:30:32Z</time></trkpt>
<trkpt lat="28.191854" lon="99.358503">
<time>2016-10-07T09:30:33Z</time></trkpt>
<trkpt lat="28.192815" lon="99.357785">
<time>2016-10-07T09:30:34Z</time></trkpt>
<trkpt lat="28.193015" lon="99.357605">
<time>2016-10-07T09:30:35Z</time></trkpt>
<trkpt lat="28.193206" lon="99.357396">
<time>2016-10-07T09:30:36Z</time></trkpt>
<trkpt lat="28.193326" lon="99.357246">
<time>2016-10-07T09:30:37Z</time></trkpt>
<trkpt lat="28.194078" lon="99.356218">
<time>2016-10-07T09:30:38Z</time></trkpt>
<trkpt lat="28.196012" lon="99.353545">
<time>2016-10-07T09:30:39Z</time></trkpt>
<trkpt lat="28.196854" lon="99.352318">
<time>2016-10-07T09:30:40Z</time></trkpt>
<trkpt lat="28.197025" lon="99.352059">
<time>2016-10-07T09:30:41Z</time></trkpt>
<trkpt lat="28.197385" lon="99.3515">
<time>2016-10-07T09:30:42Z</time></trkpt>
<trkpt lat="28.197576" lon="99.351241">
<time>2016-10-07T09:30:43Z</time></trkpt>
<trkpt lat="28.197706" lon="99.351081">
<time>2016-10-07T09:30:44Z</time></trkpt>
<trkpt lat="28.197907" lon="99.350892">
<time>2016-10-07T09:30:45Z</time></trkpt>
<trkpt lat="28.198007" lon="99.350812">
<time>2016-10-07T09:30:46Z</time></trkpt>
<trkpt lat="28.198137" lon="99.350742">
<time>2016-10-07T09:30:47Z</time></trkpt>
<trkpt lat="28.198227" lon="99.350692">
<time>2016-10-07T09:30:48Z</time></trkpt>
<trkpt lat="28.198297" lon="99.350652">
<time>2016-10-07T09:30:49Z</time></trkpt>
<trkpt lat="28.198427" lon="99.350612">
<time>2016-10-07T09:30:50Z</time></trkpt>
<trkpt lat="28.198557" lon="99.350582">
<time>2016-10-07T09:30:51Z</time></trkpt>
<trkpt lat="28.198767" lon="99.350562">
<time>2016-10-07T09:30:52Z</time></trkpt>
<trkpt lat="28.198917" lon="99.350552">
<time>2016-10-07T09:30:53Z</time></trkpt>
<trkpt lat="28.199237" lon="99.350532">
<time>2016-10-07T09:30:54Z</time></trkpt>
<trkpt lat="28.201077" lon="99.350572">
<time>2016-10-07T09:30:55Z</time></trkpt>
<trkpt lat="28.201197" lon="99.350562">
<time>2016-10-07T09:30:56Z</time></trkpt>
<trkpt lat="28.201287" lon="99.350552">
<time>2016-10-07T09:30:57Z</time></trkpt>
<trkpt lat="28.201417" lon="99.350532">
<time>2016-10-07T09:30:58Z</time></trkpt>
<trkpt lat="28.201527" lon="99.350522">
<time>2016-10-07T09:30:59Z</time></trkpt>
<trkpt lat="28.202828" lon="99.350323">
<time>2016-10-07T09:31:00Z</time></trkpt>
<trkpt lat="28.203238" lon="99.350253">
<time>2016-10-07T09:31:01Z</time></trkpt>
<trkpt lat="28.203538" lon="99.350173">
<time>2016-10-07T09:31:02Z</time></trkpt>
<trkpt lat="28.203758" lon="99.350064">
<time>2016-10-07T09:31:03Z</time></trkpt>
<trkpt lat="28.204519" lon="99.349674">
<time>2016-10-07T09:31:04Z</time></trkpt>
<trkpt lat="28.20527" lon="99.349305">
<time>2016-10-07T09:31:05Z</time></trkpt>
<trkpt lat="28.20566" lon="99.349146">
<time>2016-10-07T09:31:06Z</time></trkpt>
<trkpt lat="28.20595" lon="99.348996">
<time>2016-10-07T09:31:07Z</time></trkpt>
<trkpt lat="28.20624" lon="99.348807">
<time>2016-10-07T09:31:08Z</time></trkpt>
<trkpt lat="28.206641" lon="99.348507">
<time>2016-10-07T09:31:09Z</time></trkpt>
<trkpt lat="28.207172" lon="99.348138">
<time>2016-10-07T09:31:10Z</time></trkpt>
<trkpt lat="28.207372" lon="99.347959">
<time>2016-10-07T09:31:11Z</time></trkpt>
<trkpt lat="28.207512" lon="99.347819">
<time>2016-10-07T09:31:12Z</time></trkpt>
<trkpt lat="28.207673" lon="99.34761">
<time>2016-10-07T09:31:13Z</time></trkpt>
<trkpt lat="28.207983" lon="99.347181">
<time>2016-10-07T09:31:14Z</time></trkpt>
<trkpt lat="28.208745" lon="99.346233">
<time>2016-10-07T09:31:15Z</time></trkpt>
<trkpt lat="28.209306" lon="99.345535">
<time>2016-10-07T09:31:16Z</time></trkpt>
<trkpt lat="28.209767" lon="99.344977">
<time>2016-10-07T09:31:17Z</time></trkpt>
<trkpt lat="28.210459" lon="99.344139">
<time>2016-10-07T09:31:18Z</time></trkpt>
<trkpt lat="28.210459" lon="99.344139">
<time>2016-10-07T09:31:19Z</time></trkpt>
<trkpt lat="28.210569" lon="99.343959">
<time>2016-10-07T09:31:20Z</time></trkpt>
<trkpt lat="28.21078" lon="99.343371">
<time>2016-10-07T09:31:21Z</time></trkpt>
<trkpt lat="28.211162" lon="99.342653">
<time>2016-10-07T09:31:22Z</time></trkpt>
<trkpt lat="28.211433" lon="99.342064">
<time>2016-10-07T09:31:23Z</time></trkpt>
<trkpt lat="28.211603" lon="99.341855">
<time>2016-10-07T09:31:24Z</time></trkpt>
<trkpt lat="28.211753" lon="99.341656">
<time>2016-10-07T09:31:25Z</time></trkpt>
<trkpt lat="28.212124" lon="99.341287">
<time>2016-10-07T09:31:26Z</time></trkpt>
<trkpt lat="28.212304" lon="99.341107">
<time>2016-10-07T09:31:27Z</time></trkpt>
<trkpt lat="28.212505" lon="99.340848">
<time>2016-10-07T09:31:28Z</time></trkpt>
<trkpt lat="28.212615" lon="99.340698">
<time>2016-10-07T09:31:29Z</time></trkpt>
<trkpt lat="28.212735" lon="99.340509">
<time>2016-10-07T09:31:30Z</time></trkpt>
<trkpt lat="28.213167" lon="99.339561">
<time>2016-10-07T09:31:31Z</time></trkpt>
<trkpt lat="28.213258" lon="99.339332">
<time>2016-10-07T09:31:32Z</time></trkpt>
<trkpt lat="28.213328" lon="99.339103">
<time>2016-10-07T09:31:33Z</time></trkpt>
<trkpt lat="28.213378" lon="99.338923">
<time>2016-10-07T09:31:34Z</time></trkpt>
<trkpt lat="28.213419" lon="99.338763">
<time>2016-10-07T09:31:35Z</time></trkpt>
<trkpt lat="28.213459" lon="99.338574">
<time>2016-10-07T09:31:36Z</time></trkpt>
<trkpt lat="28.213469" lon="99.338414">
<time>2016-10-07T09:31:37Z</time></trkpt>
<trkpt lat="28.213471" lon="99.337637">
<time>2016-10-07T09:31:38Z</time></trkpt>
<trkpt lat="28.213462" lon="99.336889">
<time>2016-10-07T09:31:39Z</time></trkpt>
<trkpt lat="28.213483" lon="99.33654">
<time>2016-10-07T09:31:40Z</time></trkpt>
<trkpt lat="28.213513" lon="99.33626">
<time>2016-10-07T09:31:41Z</time></trkpt>
<trkpt lat="28.213534" lon="99.336211">
<time>2016-10-07T09:31:42Z</time></trkpt>
<trkpt lat="28.213544" lon="99.336161">
<time>2016-10-07T09:31:43Z</time></trkpt>
<trkpt lat="28.213554" lon="99.336101">
<time>2016-10-07T09:31:44Z</time></trkpt>
<trkpt lat="28.213584" lon="99.336051">
<time>2016-10-07T09:31:45Z</time></trkpt>
<trkpt lat="28.213594" lon="99.336021">
<time>2016-10-07T09:31:46Z</time></trkpt>
<trkpt lat="28.213614" lon="99.335981">
<time>2016-10-07T09:31:47Z</time></trkpt>
<trkpt lat="28.213654" lon="99.335911">
<time>2016-10-07T09:31:48Z</time></trkpt>
<trkpt lat="28.213764" lon="99.335792">
<time>2016-10-07T09:31:49Z</time></trkpt>
<trkpt lat="28.213955" lon="99.335602">
<time>2016-10-07T09:31:50Z</time></trkpt>
<trkpt lat="28.214465" lon="99.335253">
<time>2016-10-07T09:31:51Z</time></trkpt>
<trkpt lat="28.215056" lon="99.334934">
<time>2016-10-07T09:31:52Z</time></trkpt>
<trkpt lat="28.215396" lon="99.334784">
<time>2016-10-07T09:31:53Z</time></trkpt>
<trkpt lat="28.215977" lon="99.334565">
<time>2016-10-07T09:31:54Z</time></trkpt>
<trkpt lat="28.216557" lon="99.334356">
<time>2016-10-07T09:31:55Z</time></trkpt>
<trkpt lat="28.217118" lon="99.334156">
<time>2016-10-07T09:31:56Z</time></trkpt>
<trkpt lat="28.217708" lon="99.333947">
<time>2016-10-07T09:31:57Z</time></trkpt>
<trkpt lat="28.218268" lon="99.333737">
<time>2016-10-07T09:31:58Z</time></trkpt>
<trkpt lat="28.218849" lon="99.333548">
<time>2016-10-07T09:31:59Z</time></trkpt>
<trkpt lat="28.219329" lon="99.333358">
<time>2016-10-07T09:32:00Z</time></trkpt>
<trkpt lat="28.219549" lon="99.333279">
<time>2016-10-07T09:32:01Z</time></trkpt>
<trkpt lat="28.2199" lon="99.333099">
<time>2016-10-07T09:32:02Z</time></trkpt>
<trkpt lat="28.22032" lon="99.33285">
<time>2016-10-07T09:32:03Z</time></trkpt>
<trkpt lat="28.220741" lon="99.3326">
<time>2016-10-07T09:32:04Z</time></trkpt>
<trkpt lat="28.221081" lon="99.332381">
<time>2016-10-07T09:32:05Z</time></trkpt>
<trkpt lat="28.221502" lon="99.332022">
<time>2016-10-07T09:32:06Z</time></trkpt>
<trkpt lat="28.221983" lon="99.331573">
<time>2016-10-07T09:32:07Z</time></trkpt>
<trkpt lat="28.222173" lon="99.331354">
<time>2016-10-07T09:32:08Z</time></trkpt>
<trkpt lat="28.222383" lon="99.331095">
<time>2016-10-07T09:32:09Z</time></trkpt>
<trkpt lat="28.222534" lon="99.330895">
<time>2016-10-07T09:32:10Z</time></trkpt>
<trkpt lat="28.222684" lon="99.330636">
<time>2016-10-07T09:32:11Z</time></trkpt>
<trkpt lat="28.222835" lon="99.330347">
<time>2016-10-07T09:32:12Z</time></trkpt>
<trkpt lat="28.223016" lon="99.329938">
<time>2016-10-07T09:32:13Z</time></trkpt>
<trkpt lat="28.223277" lon="99.32931">
<time>2016-10-07T09:32:14Z</time></trkpt>
<trkpt lat="28.223518" lon="99.328622">
<time>2016-10-07T09:32:15Z</time></trkpt>
<trkpt lat="28.223609" lon="99.328402">
<time>2016-10-07T09:32:16Z</time></trkpt>
<trkpt lat="28.223679" lon="99.328153">
<time>2016-10-07T09:32:17Z</time></trkpt>
<trkpt lat="28.22373" lon="99.327924">
<time>2016-10-07T09:32:18Z</time></trkpt>
<trkpt lat="28.22376" lon="99.327794">
<time>2016-10-07T09:32:19Z</time></trkpt>
<trkpt lat="28.22377" lon="99.327654">
<time>2016-10-07T09:32:20Z</time></trkpt>
<trkpt lat="28.223771" lon="99.327305">
<time>2016-10-07T09:32:21Z</time></trkpt>
<trkpt lat="28.223751" lon="99.326946">
<time>2016-10-07T09:32:22Z</time></trkpt>
<trkpt lat="28.223752" lon="99.326717">
<time>2016-10-07T09:32:23Z</time></trkpt>
<trkpt lat="28.223742" lon="99.326458">
<time>2016-10-07T09:32:24Z</time></trkpt>
<trkpt lat="28.223723" lon="99.326159">
<time>2016-10-07T09:32:25Z</time></trkpt>
<trkpt lat="28.223713" lon="99.325989">
<time>2016-10-07T09:32:26Z</time></trkpt>
<trkpt lat="28.223694" lon="99.32581">
<time>2016-10-07T09:32:27Z</time></trkpt>
<trkpt lat="28.223644" lon="99.325461">
<time>2016-10-07T09:32:28Z</time></trkpt>
<trkpt lat="28.223476" lon="99.324553">
<time>2016-10-07T09:32:29Z</time></trkpt>
<trkpt lat="28.223308" lon="99.323735">
<time>2016-10-07T09:32:30Z</time></trkpt>
<trkpt lat="28.223298" lon="99.323676">
<time>2016-10-07T09:32:31Z</time></trkpt>
<trkpt lat="28.223298" lon="99.323616">
<time>2016-10-07T09:32:32Z</time></trkpt>
<trkpt lat="28.223298" lon="99.323576">
<time>2016-10-07T09:32:33Z</time></trkpt>
<trkpt lat="28.223318" lon="99.323376">
<time>2016-10-07T09:32:34Z</time></trkpt>
<trkpt lat="28.223318" lon="99.323327">
<time>2016-10-07T09:32:35Z</time></trkpt>
<trkpt lat="28.223299" lon="99.322888">
<time>2016-10-07T09:32:36Z</time></trkpt>
<trkpt lat="28.22324" lon="99.322439">
<time>2016-10-07T09:32:37Z</time></trkpt>
<trkpt lat="28.22324" lon="99.322409">
<time>2016-10-07T09:32:38Z</time></trkpt>
<trkpt lat="28.22323" lon="99.322369">
<time>2016-10-07T09:32:39Z</time></trkpt>
<trkpt lat="28.22323" lon="99.322339">
<time>2016-10-07T09:32:40Z</time></trkpt>
<trkpt lat="28.22324" lon="99.322309">
<time>2016-10-07T09:32:41Z</time></trkpt>
<trkpt lat="28.22325" lon="99.32226">
<time>2016-10-07T09:32:42Z</time></trkpt>
<trkpt lat="28.22327" lon="99.32222">
<time>2016-10-07T09:32:43Z</time></trkpt>
<trkpt lat="28.223301" lon="99.32217">
<time>2016-10-07T09:32:44Z</time></trkpt>
<trkpt lat="28.223351" lon="99.32211">
<time>2016-10-07T09:32:45Z</time></trkpt>
<trkpt lat="28.223391" lon="99.32206">
<time>2016-10-07T09:32:46Z</time></trkpt>
<trkpt lat="28.223611" lon="99.321851">
<time>2016-10-07T09:32:47Z</time></trkpt>
<trkpt lat="28.223631" lon="99.321831">
<time>2016-10-07T09:32:48Z</time></trkpt>
<trkpt lat="28.223661" lon="99.321811">
<time>2016-10-07T09:32:49Z</time></trkpt>
<trkpt lat="28.223721" lon="99.321771">
<time>2016-10-07T09:32:50Z</time></trkpt>
<trkpt lat="28.223861" lon="99.321711">
<time>2016-10-07T09:32:51Z</time></trkpt>
<trkpt lat="28.223952" lon="99.321681">
<time>2016-10-07T09:32:52Z</time></trkpt>
<trkpt lat="28.223982" lon="99.321681">
<time>2016-10-07T09:32:53Z</time></trkpt>
<trkpt lat="28.224032" lon="99.321681">
<time>2016-10-07T09:32:54Z</time></trkpt>
<trkpt lat="28.224112" lon="99.321681">
<time>2016-10-07T09:32:55Z</time></trkpt>
<trkpt lat="28.224181" lon="99.321701">
<time>2016-10-07T09:32:56Z</time></trkpt>
<trkpt lat="28.224291" lon="99.321721">
<time>2016-10-07T09:32:57Z</time></trkpt>
<trkpt lat="28.224661" lon="99.321801">
<time>2016-10-07T09:32:58Z</time></trkpt>
<trkpt lat="28.224901" lon="99.321851">
<time>2016-10-07T09:32:59Z</time></trkpt>
<trkpt lat="28.225141" lon="99.321891">
<time>2016-10-07T09:33:00Z</time></trkpt>
<trkpt lat="28.225281" lon="99.321901">
<time>2016-10-07T09:33:01Z</time></trkpt>
<trkpt lat="28.225611" lon="99.321921">
<time>2016-10-07T09:33:02Z</time></trkpt>
<trkpt lat="28.225911" lon="99.321921">
<time>2016-10-07T09:33:03Z</time></trkpt>
<trkpt lat="28.226051" lon="99.32193">
<time>2016-10-07T09:33:04Z</time></trkpt>
<trkpt lat="28.226181" lon="99.32195">
<time>2016-10-07T09:33:05Z</time></trkpt>
<trkpt lat="28.226441" lon="99.32203">
<time>2016-10-07T09:33:06Z</time></trkpt>
<trkpt lat="28.226711" lon="99.32213">
<time>2016-10-07T09:33:07Z</time></trkpt>
<trkpt lat="28.226821" lon="99.32216">
<time>2016-10-07T09:33:08Z</time></trkpt>
<trkpt lat="28.226921" lon="99.32216">
<time>2016-10-07T09:33:09Z</time></trkpt>
<trkpt lat="28.227151" lon="99.32215">
<time>2016-10-07T09:33:10Z</time></trkpt>
<trkpt lat="28.227221" lon="99.32216">
<time>2016-10-07T09:33:11Z</time></trkpt>
<trkpt lat="28.227481" lon="99.32216">
<time>2016-10-07T09:33:12Z</time></trkpt>
<trkpt lat="28.227581" lon="99.32216">
<time>2016-10-07T09:33:13Z</time></trkpt>
<trkpt lat="28.227611" lon="99.32215">
<time>2016-10-07T09:33:14Z</time></trkpt>
<trkpt lat="28.227641" lon="99.32214">
<time>2016-10-07T09:33:15Z</time></trkpt>
<trkpt lat="28.227671" lon="99.32212">
<time>2016-10-07T09:33:16Z</time></trkpt>
<trkpt lat="28.227701" lon="99.3221">
<time>2016-10-07T09:33:17Z</time></trkpt>
<trkpt lat="28.227741" lon="99.32207">
<time>2016-10-07T09:33:18Z</time></trkpt>
<trkpt lat="28.227781" lon="99.32201">
<time>2016-10-07T09:33:19Z</time></trkpt>
<trkpt lat="28.227821" lon="99.32197">
<time>2016-10-07T09:33:20Z</time></trkpt>
<trkpt lat="28.227841" lon="99.32194">
<time>2016-10-07T09:33:21Z</time></trkpt>
<trkpt lat="28.227861" lon="99.321901">
<time>2016-10-07T09:33:22Z</time></trkpt>
<trkpt lat="28.228052" lon="99.321502">
<time>2016-10-07T09:33:23Z</time></trkpt>
<trkpt lat="28.228062" lon="99.321482">
<time>2016-10-07T09:33:24Z</time></trkpt>
<trkpt lat="28.228082" lon="99.321462">
<time>2016-10-07T09:33:25Z</time></trkpt>
<trkpt lat="28.228102" lon="99.321442">
<time>2016-10-07T09:33:26Z</time></trkpt>
<trkpt lat="28.228122" lon="99.321422">
<time>2016-10-07T09:33:27Z</time></trkpt>
<trkpt lat="28.228152" lon="99.321402">
<time>2016-10-07T09:33:28Z</time></trkpt>
<trkpt lat="28.228482" lon="99.321242">
<time>2016-10-07T09:33:29Z</time></trkpt>
<trkpt lat="28.228532" lon="99.321212">
<time>2016-10-07T09:33:30Z</time></trkpt>
<trkpt lat="28.228593" lon="99.321163">
<time>2016-10-07T09:33:31Z</time></trkpt>
<trkpt lat="28.228653" lon="99.321103">
<time>2016-10-07T09:33:32Z</time></trkpt>
<trkpt lat="28.228703" lon="99.321043">
<time>2016-10-07T09:33:33Z</time></trkpt>
<trkpt lat="28.228743" lon="99.320983">
<time>2016-10-07T09:33:34Z</time></trkpt>
<trkpt lat="28.228923" lon="99.320714">
<time>2016-10-07T09:33:35Z</time></trkpt>
<trkpt lat="28.229104" lon="99.320405">
<time>2016-10-07T09:33:36Z</time></trkpt>
<trkpt lat="28.229174" lon="99.320295">
<time>2016-10-07T09:33:37Z</time></trkpt>
<trkpt lat="28.229244" lon="99.320205">
<time>2016-10-07T09:33:38Z</time></trkpt>
<trkpt lat="28.229555" lon="99.319886">
<time>2016-10-07T09:33:39Z</time></trkpt>
<trkpt lat="28.229946" lon="99.319487">
<time>2016-10-07T09:33:40Z</time></trkpt>
<trkpt lat="28.230066" lon="99.319348">
<time>2016-10-07T09:33:41Z</time></trkpt>
<trkpt lat="28.230176" lon="99.319198">
<time>2016-10-07T09:33:42Z</time></trkpt>
<trkpt lat="28.230427" lon="99.318799">
<time>2016-10-07T09:33:43Z</time></trkpt>
<trkpt lat="28.230788" lon="99.318301">
<time>2016-10-07T09:33:44Z</time></trkpt>
<trkpt lat="28.231129" lon="99.317812">
<time>2016-10-07T09:33:45Z</time></trkpt>
<trkpt lat="28.23134" lon="99.317523">
<time>2016-10-07T09:33:46Z</time></trkpt>
<trkpt lat="28.2314" lon="99.317433">
<time>2016-10-07T09:33:47Z</time></trkpt>
<trkpt lat="28.23143" lon="99.317383">
<time>2016-10-07T09:33:48Z</time></trkpt>
<trkpt lat="28.23145" lon="99.317343">
<time>2016-10-07T09:33:49Z</time></trkpt>
<trkpt lat="28.23146" lon="99.317323">
<time>2016-10-07T09:33:50Z</time></trkpt>
<trkpt lat="28.23146" lon="99.317293">
<time>2016-10-07T09:33:51Z</time></trkpt>
<trkpt lat="28.23147" lon="99.317263">
<time>2016-10-07T09:33:52Z</time></trkpt>
<trkpt lat="28.23147" lon="99.317224">
<time>2016-10-07T09:33:53Z</time></trkpt>
<trkpt lat="28.23146" lon="99.317174">
<time>2016-10-07T09:33:54Z</time></trkpt>
<trkpt lat="28.231411" lon="99.316735">
<time>2016-10-07T09:33:55Z</time></trkpt>
<trkpt lat="28.231282" lon="99.316087">
<time>2016-10-07T09:33:56Z</time></trkpt>
<trkpt lat="28.231253" lon="99.315857">
<time>2016-10-07T09:33:57Z</time></trkpt>
<trkpt lat="28.231253" lon="99.315648">
<time>2016-10-07T09:33:58Z</time></trkpt>
<trkpt lat="28.231253" lon="99.315498">
<time>2016-10-07T09:33:59Z</time></trkpt>
<trkpt lat="28.231264" lon="99.315369">
<time>2016-10-07T09:34:00Z</time></trkpt>
<trkpt lat="28.231274" lon="99.315279">
<time>2016-10-07T09:34:01Z</time></trkpt>
<trkpt lat="28.231294" lon="99.315179">
<time>2016-10-07T09:34:02Z</time></trkpt>
<trkpt lat="28.231304" lon="99.315119">
<time>2016-10-07T09:34:03Z</time></trkpt>
<trkpt lat="28.231344" lon="99.31503">
<time>2016-10-07T09:34:04Z</time></trkpt>
<trkpt lat="28.231384" lon="99.31498">
<time>2016-10-07T09:34:05Z</time></trkpt>
<trkpt lat="28.231444" lon="99.31493">
<time>2016-10-07T09:34:06Z</time></trkpt>
<trkpt lat="28.231554" lon="99.31489">
<time>2016-10-07T09:34:07Z</time></trkpt>
<trkpt lat="28.232045" lon="99.3148">
<time>2016-10-07T09:34:08Z</time></trkpt>
<trkpt lat="28.232085" lon="99.31479">
<time>2016-10-07T09:34:09Z</time></trkpt>
<trkpt lat="28.232105" lon="99.31478">
<time>2016-10-07T09:34:10Z</time></trkpt>
<trkpt lat="28.232115" lon="99.31477">
<time>2016-10-07T09:34:11Z</time></trkpt>
<trkpt lat="28.232135" lon="99.31475">
<time>2016-10-07T09:34:12Z</time></trkpt>
<trkpt lat="28.232145" lon="99.314741">
<time>2016-10-07T09:34:13Z</time></trkpt>
<trkpt lat="28.232155" lon="99.314721">
<time>2016-10-07T09:34:14Z</time></trkpt>
<trkpt lat="28.232155" lon="99.314701">
<time>2016-10-07T09:34:15Z</time></trkpt>
<trkpt lat="28.232165" lon="99.314681">
<time>2016-10-07T09:34:16Z</time></trkpt>
<trkpt lat="28.232165" lon="99.314671">
<time>2016-10-07T09:34:17Z</time></trkpt>
<trkpt lat="28.232165" lon="99.314631">
<time>2016-10-07T09:34:18Z</time></trkpt>
<trkpt lat="28.232155" lon="99.314601">
<time>2016-10-07T09:34:19Z</time></trkpt>
<trkpt lat="28.232145" lon="99.314571">
<time>2016-10-07T09:34:20Z</time></trkpt>
<trkpt lat="28.232135" lon="99.314541">
<time>2016-10-07T09:34:21Z</time></trkpt>
<trkpt lat="28.231956" lon="99.314212">
<time>2016-10-07T09:34:22Z</time></trkpt>
<trkpt lat="28.231936" lon="99.314162">
<time>2016-10-07T09:34:23Z</time></trkpt>
<trkpt lat="28.231926" lon="99.314102">
<time>2016-10-07T09:34:24Z</time></trkpt>
<trkpt lat="28.231926" lon="99.314052">
<time>2016-10-07T09:34:25Z</time></trkpt>
<trkpt lat="28.231926" lon="99.314003">
<time>2016-10-07T09:34:26Z</time></trkpt>
<trkpt lat="28.231926" lon="99.313963">
<time>2016-10-07T09:34:27Z</time></trkpt>
<trkpt lat="28.231936" lon="99.313923">
<time>2016-10-07T09:34:28Z</time></trkpt>
<trkpt lat="28.231936" lon="99.313863">
<time>2016-10-07T09:34:29Z</time></trkpt>
<trkpt lat="28.231946" lon="99.313813">
<time>2016-10-07T09:34:30Z</time></trkpt>
<trkpt lat="28.231967" lon="99.313753">
<time>2016-10-07T09:34:31Z</time></trkpt>
<trkpt lat="28.231997" lon="99.313654">
<time>2016-10-07T09:34:32Z</time></trkpt>
<trkpt lat="28.232037" lon="99.313554">
<time>2016-10-07T09:34:33Z</time></trkpt>
<trkpt lat="28.232348" lon="99.312916">
<time>2016-10-07T09:34:34Z</time></trkpt>
<trkpt lat="28.232639" lon="99.312267">
<time>2016-10-07T09:34:35Z</time></trkpt>
<trkpt lat="28.23288" lon="99.311769">
<time>2016-10-07T09:34:36Z</time></trkpt>
<trkpt lat="28.23295" lon="99.311659">
<time>2016-10-07T09:34:37Z</time></trkpt>
<trkpt lat="28.23299" lon="99.311619">
<time>2016-10-07T09:34:38Z</time></trkpt>
<trkpt lat="28.233031" lon="99.311579">
<time>2016-10-07T09:34:39Z</time></trkpt>
<trkpt lat="28.233151" lon="99.311479">
<time>2016-10-07T09:34:40Z</time></trkpt>
<trkpt lat="28.233692" lon="99.310971">
<time>2016-10-07T09:34:41Z</time></trkpt>
<trkpt lat="28.234082" lon="99.310552">
<time>2016-10-07T09:34:42Z</time></trkpt>
<trkpt lat="28.234443" lon="99.310123">
<time>2016-10-07T09:34:43Z</time></trkpt>
<trkpt lat="28.234834" lon="99.309654">
<time>2016-10-07T09:34:44Z</time></trkpt>
<trkpt lat="28.234984" lon="99.309515">
<time>2016-10-07T09:34:45Z</time></trkpt>
<trkpt lat="28.235115" lon="99.309365">
<time>2016-10-07T09:34:46Z</time></trkpt>
<trkpt lat="28.235225" lon="99.309176">
<time>2016-10-07T09:34:47Z</time></trkpt>
<trkpt lat="28.235315" lon="99.308976">
<time>2016-10-07T09:34:48Z</time></trkpt>
<trkpt lat="28.235536" lon="99.308378">
<time>2016-10-07T09:34:49Z</time></trkpt>
<trkpt lat="28.235566" lon="99.308308">
<time>2016-10-07T09:34:50Z</time></trkpt>
<trkpt lat="28.235617" lon="99.308188">
<time>2016-10-07T09:34:51Z</time></trkpt>
<trkpt lat="28.235687" lon="99.308089">
<time>2016-10-07T09:34:52Z</time></trkpt>
<trkpt lat="28.235797" lon="99.307969">
<time>2016-10-07T09:34:53Z</time></trkpt>
<trkpt lat="28.236048" lon="99.30769">
<time>2016-10-07T09:34:54Z</time></trkpt>
<trkpt lat="28.236518" lon="99.30741">
<time>2016-10-07T09:34:55Z</time></trkpt>
<trkpt lat="28.236608" lon="99.307361">
<time>2016-10-07T09:34:56Z</time></trkpt>
<trkpt lat="28.236728" lon="99.307311">
<time>2016-10-07T09:34:57Z</time></trkpt>
<trkpt lat="28.236898" lon="99.307261">
<time>2016-10-07T09:34:58Z</time></trkpt>
<trkpt lat="28.237459" lon="99.307121">
<time>2016-10-07T09:34:59Z</time></trkpt>
<trkpt lat="28.237889" lon="99.307011">
<time>2016-10-07T09:35:00Z</time></trkpt>
<trkpt lat="28.237959" lon="99.306992">
<time>2016-10-07T09:35:01Z</time></trkpt>
<trkpt lat="28.238019" lon="99.306992">
<time>2016-10-07T09:35:02Z</time></trkpt>
<trkpt lat="28.238239" lon="99.307011">
<time>2016-10-07T09:35:03Z</time></trkpt>
<trkpt lat="28.238279" lon="99.307021">
<time>2016-10-07T09:35:04Z</time></trkpt>
<trkpt lat="28.238339" lon="99.307011">
<time>2016-10-07T09:35:05Z</time></trkpt>
<trkpt lat="28.238589" lon="99.306942">
<time>2016-10-07T09:35:06Z</time></trkpt>
<trkpt lat="28.238629" lon="99.306942">
<time>2016-10-07T09:35:07Z</time></trkpt>
<trkpt lat="28.238669" lon="99.306942">
<time>2016-10-07T09:35:08Z</time></trkpt>
<trkpt lat="28.238909" lon="99.306992">
<time>2016-10-07T09:35:09Z</time></trkpt>
<trkpt lat="28.239359" lon="99.307101">
<time>2016-10-07T09:35:10Z</time></trkpt>
<trkpt lat="28.239788" lon="99.307201">
<time>2016-10-07T09:35:11Z</time></trkpt>
<trkpt lat="28.240218" lon="99.307301">
<time>2016-10-07T09:35:12Z</time></trkpt>
<trkpt lat="28.240218" lon="99.307301">
<time>2016-10-07T09:35:13Z</time></trkpt>
<trkpt lat="28.240218" lon="99.307291">
<time>2016-10-07T09:35:14Z</time></trkpt>
<trkpt lat="28.240371" lon="99.305894">
<time>2016-10-07T09:35:15Z</time></trkpt>
<trkpt lat="28.240533" lon="99.304528">
<time>2016-10-07T09:35:16Z</time></trkpt>
<trkpt lat="28.240533" lon="99.304388">
<time>2016-10-07T09:35:17Z</time></trkpt>
<trkpt lat="28.240524" lon="99.304249">
<time>2016-10-07T09:35:18Z</time></trkpt>
<trkpt lat="28.240484" lon="99.304159">
<time>2016-10-07T09:35:19Z</time></trkpt>
<trkpt lat="28.240185" lon="99.303551">
<time>2016-10-07T09:35:20Z</time></trkpt>
<trkpt lat="28.239427" lon="99.302035">
<time>2016-10-07T09:35:21Z</time></trkpt>
<trkpt lat="28.239417" lon="99.302015">
<time>2016-10-07T09:35:22Z</time></trkpt>
<trkpt lat="28.239417" lon="99.302015">
<time>2016-10-07T09:35:23Z</time></trkpt>
<trkpt lat="28.240486" lon="99.302573">
<time>2016-10-07T09:35:24Z</time></trkpt>
<trkpt lat="28.242135" lon="99.303441">
<time>2016-10-07T09:35:25Z</time></trkpt>
<trkpt lat="28.242665" lon="99.3037">
<time>2016-10-07T09:35:26Z</time></trkpt>
<trkpt lat="28.242804" lon="99.30377">
<time>2016-10-07T09:35:27Z</time></trkpt>
<trkpt lat="28.242914" lon="99.3038">
<time>2016-10-07T09:35:28Z</time></trkpt>
<trkpt lat="28.243254" lon="99.30389">
<time>2016-10-07T09:35:29Z</time></trkpt>
<trkpt lat="28.243464" lon="99.30392">
<time>2016-10-07T09:35:30Z</time></trkpt>
<trkpt lat="28.243744" lon="99.30394">
<time>2016-10-07T09:35:31Z</time></trkpt>
<trkpt lat="28.243984" lon="99.30393">
<time>2016-10-07T09:35:32Z</time></trkpt>
<trkpt lat="28.245154" lon="99.30391">
<time>2016-10-07T09:35:33Z</time></trkpt>
<trkpt lat="28.246504" lon="99.30386">
<time>2016-10-07T09:35:34Z</time></trkpt>
<trkpt lat="28.246734" lon="99.30384">
<time>2016-10-07T09:35:35Z</time></trkpt>
<trkpt lat="28.246904" lon="99.30381">
<time>2016-10-07T09:35:36Z</time></trkpt>
<trkpt lat="28.247184" lon="99.30374">
<time>2016-10-07T09:35:37Z</time></trkpt>
<trkpt lat="28.247325" lon="99.30367">
<time>2016-10-07T09:35:38Z</time></trkpt>
<trkpt lat="28.247595" lon="99.303511">
<time>2016-10-07T09:35:39Z</time></trkpt>
<trkpt lat="28.247735" lon="99.303391">
<time>2016-10-07T09:35:40Z</time></trkpt>
<trkpt lat="28.247855" lon="99.303261">
<time>2016-10-07T09:35:41Z</time></trkpt>
<trkpt lat="28.247966" lon="99.303082">
<time>2016-10-07T09:35:42Z</time></trkpt>
<trkpt lat="28.248056" lon="99.302912">
<time>2016-10-07T09:35:43Z</time></trkpt>
<trkpt lat="28.248116" lon="99.302703">
<time>2016-10-07T09:35:44Z</time></trkpt>
<trkpt lat="28.248147" lon="99.302513">
<time>2016-10-07T09:35:45Z</time></trkpt>
<trkpt lat="28.248167" lon="99.302254">
<time>2016-10-07T09:35:46Z</time></trkpt>
<trkpt lat="28.248137" lon="99.301975">
<time>2016-10-07T09:35:47Z</time></trkpt>
<trkpt lat="28.248078" lon="99.301755">
<time>2016-10-07T09:35:48Z</time></trkpt>
<trkpt lat="28.247998" lon="99.301536">
<time>2016-10-07T09:35:49Z</time></trkpt>
<trkpt lat="28.247898" lon="99.301336">
<time>2016-10-07T09:35:50Z</time></trkpt>
<trkpt lat="28.2474" lon="99.300429">
<time>2016-10-07T09:35:51Z</time></trkpt>
<trkpt lat="28.247091" lon="99.29988">
<time>2016-10-07T09:35:52Z</time></trkpt>
<trkpt lat="28.246931" lon="99.299541">
<time>2016-10-07T09:35:53Z</time></trkpt>
<trkpt lat="28.246792" lon="99.299172">
<time>2016-10-07T09:35:54Z</time></trkpt>
<trkpt lat="28.246713" lon="99.298763">
<time>2016-10-07T09:35:55Z</time></trkpt>
<trkpt lat="28.246673" lon="99.298374">
<time>2016-10-07T09:35:56Z</time></trkpt>
<trkpt lat="28.246755" lon="99.297616">
<time>2016-10-07T09:35:57Z</time></trkpt>
<trkpt lat="28.246959" lon="99.295042">
<time>2016-10-07T09:35:58Z</time></trkpt>
<trkpt lat="28.246999" lon="99.294553">
<time>2016-10-07T09:35:59Z</time></trkpt>
<trkpt lat="28.24701" lon="99.294324">
<time>2016-10-07T09:36:00Z</time></trkpt>
<trkpt lat="28.24703" lon="99.294004">
<time>2016-10-07T09:36:01Z</time></trkpt>
<trkpt lat="28.247031" lon="99.293186">
<time>2016-10-07T09:36:02Z</time></trkpt>
<trkpt lat="28.246953" lon="99.29175">
<time>2016-10-07T09:36:03Z</time></trkpt>
<trkpt lat="28.246836" lon="99.290094">
<time>2016-10-07T09:36:04Z</time></trkpt>
<trkpt lat="28.246846" lon="99.289924">
<time>2016-10-07T09:36:05Z</time></trkpt>
<trkpt lat="28.246846" lon="99.289705">
<time>2016-10-07T09:36:06Z</time></trkpt>
<trkpt lat="28.246837" lon="99.289505">
<time>2016-10-07T09:36:07Z</time></trkpt>
<trkpt lat="28.246847" lon="99.289286">
<time>2016-10-07T09:36:08Z</time></trkpt>
<trkpt lat="28.246867" lon="99.289116">
<time>2016-10-07T09:36:09Z</time></trkpt>
<trkpt lat="28.246887" lon="99.288936">
<time>2016-10-07T09:36:10Z</time></trkpt>
<trkpt lat="28.246928" lon="99.288747">
<time>2016-10-07T09:36:11Z</time></trkpt>
<trkpt lat="28.246978" lon="99.288597">
<time>2016-10-07T09:36:12Z</time></trkpt>
<trkpt lat="28.247199" lon="99.287949">
<time>2016-10-07T09:36:13Z</time></trkpt>
<trkpt lat="28.247349" lon="99.287579">
<time>2016-10-07T09:36:14Z</time></trkpt>
<trkpt lat="28.24745" lon="99.28734">
<time>2016-10-07T09:36:15Z</time></trkpt>
<trkpt lat="28.24752" lon="99.28716">
<time>2016-10-07T09:36:16Z</time></trkpt>
<trkpt lat="28.24765" lon="99.286801">
<time>2016-10-07T09:36:17Z</time></trkpt>
<trkpt lat="28.247801" lon="99.286392">
<time>2016-10-07T09:36:18Z</time></trkpt>
<trkpt lat="28.247841" lon="99.286222">
<time>2016-10-07T09:36:19Z</time></trkpt>
<trkpt lat="28.247881" lon="99.286053">
<time>2016-10-07T09:36:20Z</time></trkpt>
<trkpt lat="28.247921" lon="99.285903">
<time>2016-10-07T09:36:21Z</time></trkpt>
<trkpt lat="28.247982" lon="99.285614">
<time>2016-10-07T09:36:22Z</time></trkpt>
<trkpt lat="28.248022" lon="99.285394">
<time>2016-10-07T09:36:23Z</time></trkpt>
<trkpt lat="28.248042" lon="99.285205">
<time>2016-10-07T09:36:24Z</time></trkpt>
<trkpt lat="28.248043" lon="99.285065">
<time>2016-10-07T09:36:25Z</time></trkpt>
<trkpt lat="28.248033" lon="99.284915">
<time>2016-10-07T09:36:26Z</time></trkpt>
<trkpt lat="28.248003" lon="99.284765">
<time>2016-10-07T09:36:27Z</time></trkpt>
<trkpt lat="28.247963" lon="99.284676">
<time>2016-10-07T09:36:28Z</time></trkpt>
<trkpt lat="28.247913" lon="99.284596">
<time>2016-10-07T09:36:29Z</time></trkpt>
<trkpt lat="28.247873" lon="99.284526">
<time>2016-10-07T09:36:30Z</time></trkpt>
<trkpt lat="28.247793" lon="99.284446">
<time>2016-10-07T09:36:31Z</time></trkpt>
<trkpt lat="28.247673" lon="99.284356">
<time>2016-10-07T09:36:32Z</time></trkpt>
<trkpt lat="28.247444" lon="99.284207">
<time>2016-10-07T09:36:33Z</time></trkpt>
<trkpt lat="28.247374" lon="99.284167">
<time>2016-10-07T09:36:34Z</time></trkpt>
<trkpt lat="28.247284" lon="99.284097">
<time>2016-10-07T09:36:35Z</time></trkpt>
<trkpt lat="28.247164" lon="99.283997">
<time>2016-10-07T09:36:36Z</time></trkpt>
<trkpt lat="28.247114" lon="99.283947">
<time>2016-10-07T09:36:37Z</time></trkpt>
<trkpt lat="28.247004" lon="99.283837">
<time>2016-10-07T09:36:38Z</time></trkpt>
<trkpt lat="28.246864" lon="99.283638">
<time>2016-10-07T09:36:39Z</time></trkpt>
<trkpt lat="28.246505" lon="99.283089">
<time>2016-10-07T09:36:40Z</time></trkpt>
<trkpt lat="28.246146" lon="99.28255">
<time>2016-10-07T09:36:41Z</time></trkpt>
<trkpt lat="28.246096" lon="99.28248">
<time>2016-10-07T09:36:42Z</time></trkpt>
<trkpt lat="28.246046" lon="99.28242">
<time>2016-10-07T09:36:43Z</time></trkpt>
<trkpt lat="28.245966" lon="99.282341">
<time>2016-10-07T09:36:44Z</time></trkpt>
<trkpt lat="28.245906" lon="99.282281">
<time>2016-10-07T09:36:45Z</time></trkpt>
<trkpt lat="28.245856" lon="99.282251">
<time>2016-10-07T09:36:46Z</time></trkpt>
<trkpt lat="28.245776" lon="99.282201">
<time>2016-10-07T09:36:47Z</time></trkpt>
<trkpt lat="28.245736" lon="99.282181">
<time>2016-10-07T09:36:48Z</time></trkpt>
<trkpt lat="28.245656" lon="99.282161">
<time>2016-10-07T09:36:49Z</time></trkpt>
<trkpt lat="28.245466" lon="99.282131">
<time>2016-10-07T09:36:50Z</time></trkpt>
<trkpt lat="28.245366" lon="99.282111">
<time>2016-10-07T09:36:51Z</time></trkpt>
<trkpt lat="28.245266" lon="99.282091">
<time>2016-10-07T09:36:52Z</time></trkpt>
<trkpt lat="28.245126" lon="99.282041">
<time>2016-10-07T09:36:53Z</time></trkpt>
<trkpt lat="28.244996" lon="99.281961">
<time>2016-10-07T09:36:54Z</time></trkpt>
<trkpt lat="28.244857" lon="99.281862">
<time>2016-10-07T09:36:55Z</time></trkpt>
<trkpt lat="28.244667" lon="99.281732">
<time>2016-10-07T09:36:56Z</time></trkpt>
<trkpt lat="28.244497" lon="99.281602">
<time>2016-10-07T09:36:57Z</time></trkpt>
<trkpt lat="28.244357" lon="99.281512">
<time>2016-10-07T09:36:58Z</time></trkpt>
<trkpt lat="28.244227" lon="99.281462">
<time>2016-10-07T09:36:59Z</time></trkpt>
<trkpt lat="28.244117" lon="99.281433">
<time>2016-10-07T09:37:00Z</time></trkpt>
<trkpt lat="28.243717" lon="99.281363">
<time>2016-10-07T09:37:01Z</time></trkpt>
<trkpt lat="28.243197" lon="99.281293">
<time>2016-10-07T09:37:02Z</time></trkpt>
<trkpt lat="28.243047" lon="99.281273">
<time>2016-10-07T09:37:03Z</time></trkpt>
<trkpt lat="28.242967" lon="99.281243">
<time>2016-10-07T09:37:04Z</time></trkpt>
<trkpt lat="28.242887" lon="99.281203">
<time>2016-10-07T09:37:05Z</time></trkpt>
<trkpt lat="28.242827" lon="99.281163">
<time>2016-10-07T09:37:06Z</time></trkpt>
<trkpt lat="28.242797" lon="99.281143">
<time>2016-10-07T09:37:07Z</time></trkpt>
<trkpt lat="28.242757" lon="99.281123">
<time>2016-10-07T09:37:08Z</time></trkpt>
<trkpt lat="28.242687" lon="99.281033">
<time>2016-10-07T09:37:09Z</time></trkpt>
<trkpt lat="28.242608" lon="99.280914">
<time>2016-10-07T09:37:10Z</time></trkpt>
<trkpt lat="28.242528" lon="99.280754">
<time>2016-10-07T09:37:11Z</time></trkpt>
<trkpt lat="28.242468" lon="99.280594">
<time>2016-10-07T09:37:12Z</time></trkpt>
<trkpt lat="28.242378" lon="99.280395">
<time>2016-10-07T09:37:13Z</time></trkpt>
<trkpt lat="28.242298" lon="99.280215">
<time>2016-10-07T09:37:14Z</time></trkpt>
<trkpt lat="28.242269" lon="99.280105">
<time>2016-10-07T09:37:15Z</time></trkpt>
<trkpt lat="28.242259" lon="99.280005">
<time>2016-10-07T09:37:16Z</time></trkpt>
<trkpt lat="28.242279" lon="99.279916">
<time>2016-10-07T09:37:17Z</time></trkpt>
<trkpt lat="28.242309" lon="99.279836">
<time>2016-10-07T09:37:18Z</time></trkpt>
<trkpt lat="28.242329" lon="99.279806">
<time>2016-10-07T09:37:19Z</time></trkpt>
<trkpt lat="28.242349" lon="99.279786">
<time>2016-10-07T09:37:20Z</time></trkpt>
<trkpt lat="28.242369" lon="99.279766">
<time>2016-10-07T09:37:21Z</time></trkpt>
<trkpt lat="28.242409" lon="99.279736">
<time>2016-10-07T09:37:22Z</time></trkpt>
<trkpt lat="28.242439" lon="99.279726">
<time>2016-10-07T09:37:23Z</time></trkpt>
<trkpt lat="28.242479" lon="99.279706">
<time>2016-10-07T09:37:24Z</time></trkpt>
<trkpt lat="28.242499" lon="99.279696">
<time>2016-10-07T09:37:25Z</time></trkpt>
<trkpt lat="28.242549" lon="99.279696">
<time>2016-10-07T09:37:26Z</time></trkpt>
<trkpt lat="28.242599" lon="99.279696">
<time>2016-10-07T09:37:27Z</time></trkpt>
<trkpt lat="28.242639" lon="99.279706">
<time>2016-10-07T09:37:28Z</time></trkpt>
<trkpt lat="28.242689" lon="99.279726">
<time>2016-10-07T09:37:29Z</time></trkpt>
<trkpt lat="28.242729" lon="99.279756">
<time>2016-10-07T09:37:30Z</time></trkpt>
<trkpt lat="28.242769" lon="99.279786">
<time>2016-10-07T09:37:31Z</time></trkpt>
<trkpt lat="28.242809" lon="99.279826">
<time>2016-10-07T09:37:32Z</time></trkpt>
<trkpt lat="28.242869" lon="99.279896">
<time>2016-10-07T09:37:33Z</time></trkpt>
<trkpt lat="28.242969" lon="99.280025">
<time>2016-10-07T09:37:34Z</time></trkpt>
<trkpt lat="28.243218" lon="99.280335">
<time>2016-10-07T09:37:35Z</time></trkpt>
<trkpt lat="28.243308" lon="99.280435">
<time>2016-10-07T09:37:36Z</time></trkpt>
<trkpt lat="28.243428" lon="99.280524">
<time>2016-10-07T09:37:37Z</time></trkpt>
<trkpt lat="28.243518" lon="99.280584">
<time>2016-10-07T09:37:38Z</time></trkpt>
<trkpt lat="28.243618" lon="99.280634">
<time>2016-10-07T09:37:39Z</time></trkpt>
<trkpt lat="28.243788" lon="99.280694">
<time>2016-10-07T09:37:40Z</time></trkpt>
<trkpt lat="28.243988" lon="99.280734">
<time>2016-10-07T09:37:41Z</time></trkpt>
<trkpt lat="28.244278" lon="99.280744">
<time>2016-10-07T09:37:42Z</time></trkpt>
<trkpt lat="28.244998" lon="99.280764">
<time>2016-10-07T09:37:43Z</time></trkpt>
<trkpt lat="28.245128" lon="99.280754">
<time>2016-10-07T09:37:44Z</time></trkpt>
<trkpt lat="28.245248" lon="99.280734">
<time>2016-10-07T09:37:45Z</time></trkpt>
<trkpt lat="28.245368" lon="99.280714">
<time>2016-10-07T09:37:46Z</time></trkpt>
<trkpt lat="28.245618" lon="99.280614">
<time>2016-10-07T09:37:47Z</time></trkpt>
<trkpt lat="28.245878" lon="99.280464">
<time>2016-10-07T09:37:48Z</time></trkpt>
<trkpt lat="28.246118" lon="99.280315">
<time>2016-10-07T09:37:49Z</time></trkpt>
<trkpt lat="28.246308" lon="99.280205">
<time>2016-10-07T09:37:50Z</time></trkpt>
<trkpt lat="28.246458" lon="99.280135">
<time>2016-10-07T09:37:51Z</time></trkpt>
<trkpt lat="28.246509" lon="99.280115">
<time>2016-10-07T09:37:52Z</time></trkpt>
<trkpt lat="28.246569" lon="99.280115">
<time>2016-10-07T09:37:53Z</time></trkpt>
<trkpt lat="28.246629" lon="99.280105">
<time>2016-10-07T09:37:54Z</time></trkpt>
<trkpt lat="28.246699" lon="99.280105">
<time>2016-10-07T09:37:55Z</time></trkpt>
<trkpt lat="28.246779" lon="99.280115">
<time>2016-10-07T09:37:56Z</time></trkpt>
<trkpt lat="28.246858" lon="99.280135">
<time>2016-10-07T09:37:57Z</time></trkpt>
<trkpt lat="28.246978" lon="99.280185">
<time>2016-10-07T09:37:58Z</time></trkpt>
<trkpt lat="28.247098" lon="99.280265">
<time>2016-10-07T09:37:59Z</time></trkpt>
<trkpt lat="28.247178" lon="99.280315">
<time>2016-10-07T09:38:00Z</time></trkpt>
<trkpt lat="28.247388" lon="99.280464">
<time>2016-10-07T09:38:01Z</time></trkpt>
<trkpt lat="28.247478" lon="99.280544">
<time>2016-10-07T09:38:02Z</time></trkpt>
<trkpt lat="28.247558" lon="99.280624">
<time>2016-10-07T09:38:03Z</time></trkpt>
<trkpt lat="28.247618" lon="99.280714">
<time>2016-10-07T09:38:04Z</time></trkpt>
<trkpt lat="28.247658" lon="99.280764">
<time>2016-10-07T09:38:05Z</time></trkpt>
<trkpt lat="28.247718" lon="99.280874">
<time>2016-10-07T09:38:06Z</time></trkpt>
<trkpt lat="28.247757" lon="99.281013">
<time>2016-10-07T09:38:07Z</time></trkpt>
<trkpt lat="28.247797" lon="99.281143">
<time>2016-10-07T09:38:08Z</time></trkpt>
<trkpt lat="28.247877" lon="99.281333">
<time>2016-10-07T09:38:09Z</time></trkpt>
<trkpt lat="28.247927" lon="99.281422">
<time>2016-10-07T09:38:10Z</time></trkpt>
<trkpt lat="28.247977" lon="99.281492">
<time>2016-10-07T09:38:11Z</time></trkpt>
<trkpt lat="28.248017" lon="99.281542">
<time>2016-10-07T09:38:12Z</time></trkpt>
<trkpt lat="28.248057" lon="99.281572">
<time>2016-10-07T09:38:13Z</time></trkpt>
<trkpt lat="28.248097" lon="99.281602">
<time>2016-10-07T09:38:14Z</time></trkpt>
<trkpt lat="28.248157" lon="99.281632">
<time>2016-10-07T09:38:15Z</time></trkpt>
<trkpt lat="28.248227" lon="99.281662">
<time>2016-10-07T09:38:16Z</time></trkpt>
<trkpt lat="28.248307" lon="99.281672">
<time>2016-10-07T09:38:17Z</time></trkpt>
<trkpt lat="28.248367" lon="99.281672">
<time>2016-10-07T09:38:18Z</time></trkpt>
<trkpt lat="28.248447" lon="99.281662">
<time>2016-10-07T09:38:19Z</time></trkpt>
<trkpt lat="28.248527" lon="99.281632">
<time>2016-10-07T09:38:20Z</time></trkpt>
<trkpt lat="28.248607" lon="99.281592">
<time>2016-10-07T09:38:21Z</time></trkpt>
<trkpt lat="28.248737" lon="99.281492">
<time>2016-10-07T09:38:22Z</time></trkpt>
<trkpt lat="28.248887" lon="99.281343">
<time>2016-10-07T09:38:23Z</time></trkpt>
<trkpt lat="28.248997" lon="99.281203">
<time>2016-10-07T09:38:24Z</time></trkpt>
<trkpt lat="28.249127" lon="99.281003">
<time>2016-10-07T09:38:25Z</time></trkpt>
<trkpt lat="28.249208" lon="99.280854">
<time>2016-10-07T09:38:26Z</time></trkpt>
<trkpt lat="28.249298" lon="99.280644">
<time>2016-10-07T09:38:27Z</time></trkpt>
<trkpt lat="28.249358" lon="99.280414">
<time>2016-10-07T09:38:28Z</time></trkpt>
<trkpt lat="28.249378" lon="99.280275">
<time>2016-10-07T09:38:29Z</time></trkpt>
<trkpt lat="28.249408" lon="99.280125">
<time>2016-10-07T09:38:30Z</time></trkpt>
<trkpt lat="28.249449" lon="99.279945">
<time>2016-10-07T09:38:31Z</time></trkpt>
<trkpt lat="28.249509" lon="99.279796">
<time>2016-10-07T09:38:32Z</time></trkpt>
<trkpt lat="28.249549" lon="99.279716">
<time>2016-10-07T09:38:33Z</time></trkpt>
<trkpt lat="28.249599" lon="99.279636">
<time>2016-10-07T09:38:34Z</time></trkpt>
<trkpt lat="28.249669" lon="99.279566">
<time>2016-10-07T09:38:35Z</time></trkpt>
<trkpt lat="28.249739" lon="99.279516">
<time>2016-10-07T09:38:36Z</time></trkpt>
<trkpt lat="28.249789" lon="99.279486">
<time>2016-10-07T09:38:37Z</time></trkpt>
<trkpt lat="28.249839" lon="99.279466">
<time>2016-10-07T09:38:38Z</time></trkpt>
<trkpt lat="28.249889" lon="99.279446">
<time>2016-10-07T09:38:39Z</time></trkpt>
<trkpt lat="28.249939" lon="99.279436">
<time>2016-10-07T09:38:40Z</time></trkpt>
<trkpt lat="28.250029" lon="99.279426">
<time>2016-10-07T09:38:41Z</time></trkpt>
<trkpt lat="28.250049" lon="99.279426">
<time>2016-10-07T09:38:42Z</time></trkpt>
<trkpt lat="28.250129" lon="99.279426">
<time>2016-10-07T09:38:43Z</time></trkpt>
<trkpt lat="28.250199" lon="99.279436">
<time>2016-10-07T09:38:44Z</time></trkpt>
<trkpt lat="28.250279" lon="99.279466">
<time>2016-10-07T09:38:45Z</time></trkpt>
<trkpt lat="28.250359" lon="99.279486">
<time>2016-10-07T09:38:46Z</time></trkpt>
<trkpt lat="28.250459" lon="99.279516">
<time>2016-10-07T09:38:47Z</time></trkpt>
<trkpt lat="28.250549" lon="99.279536">
<time>2016-10-07T09:38:48Z</time></trkpt>
<trkpt lat="28.250639" lon="99.279546">
<time>2016-10-07T09:38:49Z</time></trkpt>
<trkpt lat="28.250729" lon="99.279546">
<time>2016-10-07T09:38:50Z</time></trkpt>
<trkpt lat="28.250789" lon="99.279536">
<time>2016-10-07T09:38:51Z</time></trkpt>
<trkpt lat="28.250829" lon="99.279526">
<time>2016-10-07T09:38:52Z</time></trkpt>
<trkpt lat="28.250909" lon="99.279486">
<time>2016-10-07T09:38:53Z</time></trkpt>
<trkpt lat="28.250959" lon="99.279446">
<time>2016-10-07T09:38:54Z</time></trkpt>
<trkpt lat="28.251039" lon="99.279386">
<time>2016-10-07T09:38:55Z</time></trkpt>
<trkpt lat="28.251139" lon="99.279277">
<time>2016-10-07T09:38:56Z</time></trkpt>
<trkpt lat="28.25129" lon="99.279047">
<time>2016-10-07T09:38:57Z</time></trkpt>
<trkpt lat="28.25158" lon="99.278608">
<time>2016-10-07T09:38:58Z</time></trkpt>
<trkpt lat="28.252061" lon="99.277819">
<time>2016-10-07T09:38:59Z</time></trkpt>
<trkpt lat="28.252241" lon="99.27753">
<time>2016-10-07T09:39:00Z</time></trkpt>
<trkpt lat="28.252462" lon="99.277181">
<time>2016-10-07T09:39:01Z</time></trkpt>
<trkpt lat="28.252532" lon="99.277071">
<time>2016-10-07T09:39:02Z</time></trkpt>
<trkpt lat="28.252632" lon="99.276911">
<time>2016-10-07T09:39:03Z</time></trkpt>
<trkpt lat="28.252812" lon="99.276602">
<time>2016-10-07T09:39:04Z</time></trkpt>
<trkpt lat="28.252942" lon="99.276422">
<time>2016-10-07T09:39:05Z</time></trkpt>
<trkpt lat="28.252982" lon="99.276372">
<time>2016-10-07T09:39:06Z</time></trkpt>
<trkpt lat="28.253022" lon="99.276332">
<time>2016-10-07T09:39:07Z</time></trkpt>
<trkpt lat="28.253062" lon="99.276302">
<time>2016-10-07T09:39:08Z</time></trkpt>
<trkpt lat="28.253113" lon="99.276272">
<time>2016-10-07T09:39:09Z</time></trkpt>
<trkpt lat="28.253173" lon="99.276252">
<time>2016-10-07T09:39:10Z</time></trkpt>
<trkpt lat="28.253223" lon="99.276232">
<time>2016-10-07T09:39:11Z</time></trkpt>
<trkpt lat="28.253303" lon="99.276222">
<time>2016-10-07T09:39:12Z</time></trkpt>
<trkpt lat="28.253363" lon="99.276232">
<time>2016-10-07T09:39:13Z</time></trkpt>
<trkpt lat="28.253433" lon="99.276252">
<time>2016-10-07T09:39:14Z</time></trkpt>
<trkpt lat="28.253493" lon="99.276282">
<time>2016-10-07T09:39:15Z</time></trkpt>
<trkpt lat="28.253542" lon="99.276312">
<time>2016-10-07T09:39:16Z</time></trkpt>
<trkpt lat="28.253592" lon="99.276352">
<time>2016-10-07T09:39:17Z</time></trkpt>
<trkpt lat="28.253652" lon="99.276442">
<time>2016-10-07T09:39:18Z</time></trkpt>
<trkpt lat="28.253692" lon="99.276552">
<time>2016-10-07T09:39:19Z</time></trkpt>
<trkpt lat="28.253712" lon="99.276662">
<time>2016-10-07T09:39:20Z</time></trkpt>
<trkpt lat="28.253702" lon="99.276811">
<time>2016-10-07T09:39:21Z</time></trkpt>
<trkpt lat="28.253672" lon="99.276901">
<time>2016-10-07T09:39:22Z</time></trkpt>
<trkpt lat="28.253632" lon="99.277001">
<time>2016-10-07T09:39:23Z</time></trkpt>
<trkpt lat="28.253421" lon="99.27737">
<time>2016-10-07T09:39:24Z</time></trkpt>
<trkpt lat="28.253341" lon="99.27754">
<time>2016-10-07T09:39:25Z</time></trkpt>
<trkpt lat="28.253301" lon="99.27767">
<time>2016-10-07T09:39:26Z</time></trkpt>
<trkpt lat="28.253271" lon="99.277839">
<time>2016-10-07T09:39:27Z</time></trkpt>
<trkpt lat="28.253251" lon="99.277999">
<time>2016-10-07T09:39:28Z</time></trkpt>
<trkpt lat="28.25325" lon="99.278259">
<time>2016-10-07T09:39:29Z</time></trkpt>
<trkpt lat="28.25324" lon="99.278648">
<time>2016-10-07T09:39:30Z</time></trkpt>
<trkpt lat="28.253239" lon="99.279307">
<time>2016-10-07T09:39:31Z</time></trkpt>
<trkpt lat="28.253239" lon="99.279816">
<time>2016-10-07T09:39:32Z</time></trkpt>
<trkpt lat="28.253249" lon="99.280015">
<time>2016-10-07T09:39:33Z</time></trkpt>
<trkpt lat="28.253268" lon="99.280155">
<time>2016-10-07T09:39:34Z</time></trkpt>
<trkpt lat="28.253288" lon="99.280255">
<time>2016-10-07T09:39:35Z</time></trkpt>
<trkpt lat="28.253318" lon="99.280374">
<time>2016-10-07T09:39:36Z</time></trkpt>
<trkpt lat="28.253408" lon="99.280594">
<time>2016-10-07T09:39:37Z</time></trkpt>
<trkpt lat="28.253468" lon="99.280734">
<time>2016-10-07T09:39:38Z</time></trkpt>
<trkpt lat="28.253548" lon="99.280913">
<time>2016-10-07T09:39:39Z</time></trkpt>
<trkpt lat="28.253807" lon="99.281482">
<time>2016-10-07T09:39:40Z</time></trkpt>
<trkpt lat="28.253956" lon="99.281821">
<time>2016-10-07T09:39:41Z</time></trkpt>
<trkpt lat="28.253996" lon="99.281961">
<time>2016-10-07T09:39:42Z</time></trkpt>
<trkpt lat="28.254016" lon="99.282101">
<time>2016-10-07T09:39:43Z</time></trkpt>
<trkpt lat="28.254016" lon="99.282171">
<time>2016-10-07T09:39:44Z</time></trkpt>
<trkpt lat="28.254016" lon="99.282251">
<time>2016-10-07T09:39:45Z</time></trkpt>
<trkpt lat="28.253986" lon="99.28239">
<time>2016-10-07T09:39:46Z</time></trkpt>
<trkpt lat="28.253895" lon="99.28265">
<time>2016-10-07T09:39:47Z</time></trkpt>
<trkpt lat="28.253685" lon="99.283189">
<time>2016-10-07T09:39:48Z</time></trkpt>
<trkpt lat="28.253544" lon="99.283518">
<time>2016-10-07T09:39:49Z</time></trkpt>
<trkpt lat="28.253464" lon="99.283738">
<time>2016-10-07T09:39:50Z</time></trkpt>
<trkpt lat="28.253404" lon="99.283917">
<time>2016-10-07T09:39:51Z</time></trkpt>
<trkpt lat="28.253384" lon="99.284087">
<time>2016-10-07T09:39:52Z</time></trkpt>
<trkpt lat="28.253374" lon="99.284236">
<time>2016-10-07T09:39:53Z</time></trkpt>
<trkpt lat="28.253373" lon="99.284366">
<time>2016-10-07T09:39:54Z</time></trkpt>
<trkpt lat="28.253393" lon="99.284526">
<time>2016-10-07T09:39:55Z</time></trkpt>
<trkpt lat="28.253443" lon="99.284775">
<time>2016-10-07T09:39:56Z</time></trkpt>
<trkpt lat="28.253473" lon="99.284985">
<time>2016-10-07T09:39:57Z</time></trkpt>
<trkpt lat="28.253482" lon="99.285155">
<time>2016-10-07T09:39:58Z</time></trkpt>
<trkpt lat="28.253442" lon="99.285404">
<time>2016-10-07T09:39:59Z</time></trkpt>
<trkpt lat="28.253372" lon="99.285653">
<time>2016-10-07T09:40:00Z</time></trkpt>
<trkpt lat="28.253322" lon="99.285853">
<time>2016-10-07T09:40:01Z</time></trkpt>
<trkpt lat="28.253171" lon="99.286402">
<time>2016-10-07T09:40:02Z</time></trkpt>
<trkpt lat="28.25303" lon="99.286941">
<time>2016-10-07T09:40:03Z</time></trkpt>
<trkpt lat="28.25301" lon="99.28705">
<time>2016-10-07T09:40:04Z</time></trkpt>
<trkpt lat="28.253" lon="99.28712">
<time>2016-10-07T09:40:05Z</time></trkpt>
<trkpt lat="28.253" lon="99.28725">
<time>2016-10-07T09:40:06Z</time></trkpt>
<trkpt lat="28.253" lon="99.28732">
<time>2016-10-07T09:40:07Z</time></trkpt>
<trkpt lat="28.25302" lon="99.28738">
<time>2016-10-07T09:40:08Z</time></trkpt>
<trkpt lat="28.253049" lon="99.287459">
<time>2016-10-07T09:40:09Z</time></trkpt>
<trkpt lat="28.253089" lon="99.287519">
<time>2016-10-07T09:40:10Z</time></trkpt>
<trkpt lat="28.253139" lon="99.287579">
<time>2016-10-07T09:40:11Z</time></trkpt>
<trkpt lat="28.253209" lon="99.287629">
<time>2016-10-07T09:40:12Z</time></trkpt>
<trkpt lat="28.253289" lon="99.287659">
<time>2016-10-07T09:40:13Z</time></trkpt>
<trkpt lat="28.253349" lon="99.287669">
<time>2016-10-07T09:40:14Z</time></trkpt>
<trkpt lat="28.253399" lon="99.287669">
<time>2016-10-07T09:40:15Z</time></trkpt>
<trkpt lat="28.253439" lon="99.287659">
<time>2016-10-07T09:40:16Z</time></trkpt>
<trkpt lat="28.253479" lon="99.287639">
<time>2016-10-07T09:40:17Z</time></trkpt>
<trkpt lat="28.253529" lon="99.287619">
<time>2016-10-07T09:40:18Z</time></trkpt>
<trkpt lat="28.253579" lon="99.287589">
<time>2016-10-07T09:40:19Z</time></trkpt>
<trkpt lat="28.253619" lon="99.287549">
<time>2016-10-07T09:40:20Z</time></trkpt>
<trkpt lat="28.253679" lon="99.287469">
<time>2016-10-07T09:40:21Z</time></trkpt>
<trkpt lat="28.25373" lon="99.28737">
<time>2016-10-07T09:40:22Z</time></trkpt>
<trkpt lat="28.25379" lon="99.28721">
<time>2016-10-07T09:40:23Z</time></trkpt>
<trkpt lat="28.25385" lon="99.28703">
<time>2016-10-07T09:40:24Z</time></trkpt>
<trkpt lat="28.25393" lon="99.286781">
<time>2016-10-07T09:40:25Z</time></trkpt>
<trkpt lat="28.254011" lon="99.286541">
<time>2016-10-07T09:40:26Z</time></trkpt>
<trkpt lat="28.254141" lon="99.286172">
<time>2016-10-07T09:40:27Z</time></trkpt>
<trkpt lat="28.254513" lon="99.285025">
<time>2016-10-07T09:40:28Z</time></trkpt>
<trkpt lat="28.254603" lon="99.284735">
<time>2016-10-07T09:40:29Z</time></trkpt>
<trkpt lat="28.254733" lon="99.284346">
<time>2016-10-07T09:40:30Z</time></trkpt>
<trkpt lat="28.254774" lon="99.284167">
<time>2016-10-07T09:40:31Z</time></trkpt>
<trkpt lat="28.254824" lon="99.284007">
<time>2016-10-07T09:40:32Z</time></trkpt>
<trkpt lat="28.254884" lon="99.283698">
<time>2016-10-07T09:40:33Z</time></trkpt>
<trkpt lat="28.254965" lon="99.283328">
<time>2016-10-07T09:40:34Z</time></trkpt>
<trkpt lat="28.255015" lon="99.282979">
<time>2016-10-07T09:40:35Z</time></trkpt>
<trkpt lat="28.255076" lon="99.28235">
<time>2016-10-07T09:40:36Z</time></trkpt>
<trkpt lat="28.255116" lon="99.281961">
<time>2016-10-07T09:40:37Z</time></trkpt>
<trkpt lat="28.255167" lon="99.281402">
<time>2016-10-07T09:40:38Z</time></trkpt>
<trkpt lat="28.255208" lon="99.280913">
<time>2016-10-07T09:40:39Z</time></trkpt>
<trkpt lat="28.255258" lon="99.280374">
<time>2016-10-07T09:40:40Z</time></trkpt>
<trkpt lat="28.255299" lon="99.279915">
<time>2016-10-07T09:40:41Z</time></trkpt>
<trkpt lat="28.255369" lon="99.279137">
<time>2016-10-07T09:40:42Z</time></trkpt>
<trkpt lat="28.25542" lon="99.278578">
<time>2016-10-07T09:40:43Z</time></trkpt>
<trkpt lat="28.25544" lon="99.278398">
<time>2016-10-07T09:40:44Z</time></trkpt>
<trkpt lat="28.255461" lon="99.278149">
<time>2016-10-07T09:40:45Z</time></trkpt>
<trkpt lat="28.255481" lon="99.277959">
<time>2016-10-07T09:40:46Z</time></trkpt>
<trkpt lat="28.255511" lon="99.277799">
<time>2016-10-07T09:40:47Z</time></trkpt>
<trkpt lat="28.255551" lon="99.27763">
<time>2016-10-07T09:40:48Z</time></trkpt>
<trkpt lat="28.255651" lon="99.27731">
<time>2016-10-07T09:40:49Z</time></trkpt>
<trkpt lat="28.255712" lon="99.277121">
<time>2016-10-07T09:40:50Z</time></trkpt>
<trkpt lat="28.255802" lon="99.276901">
<time>2016-10-07T09:40:51Z</time></trkpt>
<trkpt lat="28.255902" lon="99.276552">
<time>2016-10-07T09:40:52Z</time></trkpt>
<trkpt lat="28.255962" lon="99.276342">
<time>2016-10-07T09:40:53Z</time></trkpt>
<trkpt lat="28.255993" lon="99.276222">
<time>2016-10-07T09:40:54Z</time></trkpt>
<trkpt lat="28.256013" lon="99.276063">
<time>2016-10-07T09:40:55Z</time></trkpt>
<trkpt lat="28.256023" lon="99.275973">
<time>2016-10-07T09:40:56Z</time></trkpt>
<trkpt lat="28.256033" lon="99.275823">
<time>2016-10-07T09:40:57Z</time></trkpt>
<trkpt lat="28.256043" lon="99.275633">
<time>2016-10-07T09:40:58Z</time></trkpt>
<trkpt lat="28.256044" lon="99.274366">
<time>2016-10-07T09:40:59Z</time></trkpt>
<trkpt lat="28.256045" lon="99.273777">
<time>2016-10-07T09:41:00Z</time></trkpt>
<trkpt lat="28.256035" lon="99.273547">
<time>2016-10-07T09:41:01Z</time></trkpt>
<trkpt lat="28.255996" lon="99.273018">
<time>2016-10-07T09:41:02Z</time></trkpt>
<trkpt lat="28.255916" lon="99.272439">
<time>2016-10-07T09:41:03Z</time></trkpt>
<trkpt lat="28.255857" lon="99.27192">
<time>2016-10-07T09:41:04Z</time></trkpt>
<trkpt lat="28.255817" lon="99.27162">
<time>2016-10-07T09:41:05Z</time></trkpt>
<trkpt lat="28.255817" lon="99.271501">
<time>2016-10-07T09:41:06Z</time></trkpt>
<trkpt lat="28.255817" lon="99.271341">
<time>2016-10-07T09:41:07Z</time></trkpt>
<trkpt lat="28.255827" lon="99.271231">
<time>2016-10-07T09:41:08Z</time></trkpt>
<trkpt lat="28.255847" lon="99.271091">
<time>2016-10-07T09:41:09Z</time></trkpt>
<trkpt lat="28.255918" lon="99.270712">
<time>2016-10-07T09:41:10Z</time></trkpt>
<trkpt lat="28.256038" lon="99.270093">
<time>2016-10-07T09:41:11Z</time></trkpt>
<trkpt lat="28.256148" lon="99.269594">
<time>2016-10-07T09:41:12Z</time></trkpt>
<trkpt lat="28.256309" lon="99.268805">
<time>2016-10-07T09:41:13Z</time></trkpt>
<trkpt lat="28.25658" lon="99.267397">
<time>2016-10-07T09:41:14Z</time></trkpt>
<trkpt lat="28.2566" lon="99.267287">
<time>2016-10-07T09:41:15Z</time></trkpt>
<trkpt lat="28.25661" lon="99.267178">
<time>2016-10-07T09:41:16Z</time></trkpt>
<trkpt lat="28.25661" lon="99.267118">
<time>2016-10-07T09:41:17Z</time></trkpt>
<trkpt lat="28.2566" lon="99.267058">
<time>2016-10-07T09:41:18Z</time></trkpt>
<trkpt lat="28.2566" lon="99.267008">
<time>2016-10-07T09:41:19Z</time></trkpt>
<trkpt lat="28.25658" lon="99.266928">
<time>2016-10-07T09:41:20Z</time></trkpt>
<trkpt lat="28.25656" lon="99.266848">
<time>2016-10-07T09:41:21Z</time></trkpt>
<trkpt lat="28.25654" lon="99.266758">
<time>2016-10-07T09:41:22Z</time></trkpt>
<trkpt lat="28.256491" lon="99.266638">
<time>2016-10-07T09:41:23Z</time></trkpt>
<trkpt lat="28.256421" lon="99.266499">
<time>2016-10-07T09:41:24Z</time></trkpt>
<trkpt lat="28.256281" lon="99.266219">
<time>2016-10-07T09:41:25Z</time></trkpt>
<trkpt lat="28.256171" lon="99.266019">
<time>2016-10-07T09:41:26Z</time></trkpt>
<trkpt lat="28.256011" lon="99.26571">
<time>2016-10-07T09:41:27Z</time></trkpt>
<trkpt lat="28.255951" lon="99.26558">
<time>2016-10-07T09:41:28Z</time></trkpt>
<trkpt lat="28.255901" lon="99.26544">
<time>2016-10-07T09:41:29Z</time></trkpt>
<trkpt lat="28.255891" lon="99.26541">
<time>2016-10-07T09:41:30Z</time></trkpt>
<trkpt lat="28.255881" lon="99.26538">
<time>2016-10-07T09:41:31Z</time></trkpt>
<trkpt lat="28.255881" lon="99.26534">
<time>2016-10-07T09:41:32Z</time></trkpt>
<trkpt lat="28.255881" lon="99.26529">
<time>2016-10-07T09:41:33Z</time></trkpt>
<trkpt lat="28.255881" lon="99.26526">
<time>2016-10-07T09:41:34Z</time></trkpt>
<trkpt lat="28.255891" lon="99.26523">
<time>2016-10-07T09:41:35Z</time></trkpt>
<trkpt lat="28.255891" lon="99.2652">
<time>2016-10-07T09:41:36Z</time></trkpt>
<trkpt lat="28.255911" lon="99.265161">
<time>2016-10-07T09:41:37Z</time></trkpt>
<trkpt lat="28.255921" lon="99.265131">
<time>2016-10-07T09:41:38Z</time></trkpt>
<trkpt lat="28.255942" lon="99.265101">
<time>2016-10-07T09:41:39Z</time></trkpt>
<trkpt lat="28.255972" lon="99.265081">
<time>2016-10-07T09:41:40Z</time></trkpt>
<trkpt lat="28.256012" lon="99.265041">
<time>2016-10-07T09:41:41Z</time></trkpt>
<trkpt lat="28.256032" lon="99.265031">
<time>2016-10-07T09:41:42Z</time></trkpt>
<trkpt lat="28.256072" lon="99.265011">
<time>2016-10-07T09:41:43Z</time></trkpt>
<trkpt lat="28.256102" lon="99.265011">
<time>2016-10-07T09:41:44Z</time></trkpt>
<trkpt lat="28.256142" lon="99.265001">
<time>2016-10-07T09:41:45Z</time></trkpt>
<trkpt lat="28.256162" lon="99.265001">
<time>2016-10-07T09:41:46Z</time></trkpt>
<trkpt lat="28.256182" lon="99.265011">
<time>2016-10-07T09:41:47Z</time></trkpt>
<trkpt lat="28.256212" lon="99.265011">
<time>2016-10-07T09:41:48Z</time></trkpt>
<trkpt lat="28.256242" lon="99.265021">
<time>2016-10-07T09:41:49Z</time></trkpt>
<trkpt lat="28.256282" lon="99.265031">
<time>2016-10-07T09:41:50Z</time></trkpt>
<trkpt lat="28.256302" lon="99.265051">
<time>2016-10-07T09:41:51Z</time></trkpt>
<trkpt lat="28.256352" lon="99.265091">
<time>2016-10-07T09:41:52Z</time></trkpt>
<trkpt lat="28.256371" lon="99.265121">
<time>2016-10-07T09:41:53Z</time></trkpt>
<trkpt lat="28.256401" lon="99.26516">
<time>2016-10-07T09:41:54Z</time></trkpt>
<trkpt lat="28.256461" lon="99.26525">
<time>2016-10-07T09:41:55Z</time></trkpt>
<trkpt lat="28.256681" lon="99.26562">
<time>2016-10-07T09:41:56Z</time></trkpt>
<trkpt lat="28.256981" lon="99.266129">
<time>2016-10-07T09:41:57Z</time></trkpt>
<trkpt lat="28.257021" lon="99.266219">
<time>2016-10-07T09:41:58Z</time></trkpt>
<trkpt lat="28.257041" lon="99.266279">
<time>2016-10-07T09:41:59Z</time></trkpt>
<trkpt lat="28.257081" lon="99.266389">
<time>2016-10-07T09:42:00Z</time></trkpt>
<trkpt lat="28.257111" lon="99.266489">
<time>2016-10-07T09:42:01Z</time></trkpt>
<trkpt lat="28.257121" lon="99.266538">
<time>2016-10-07T09:42:02Z</time></trkpt>
<trkpt lat="28.257131" lon="99.266648">
<time>2016-10-07T09:42:03Z</time></trkpt>
<trkpt lat="28.25713" lon="99.266958">
<time>2016-10-07T09:42:04Z</time></trkpt>
<trkpt lat="28.25711" lon="99.267297">
<time>2016-10-07T09:42:05Z</time></trkpt>
<trkpt lat="28.25709" lon="99.267697">
<time>2016-10-07T09:42:06Z</time></trkpt>
<trkpt lat="28.257069" lon="99.268096">
<time>2016-10-07T09:42:07Z</time></trkpt>
<trkpt lat="28.257079" lon="99.268436">
<time>2016-10-07T09:42:08Z</time></trkpt>
<trkpt lat="28.257089" lon="99.268625">
<time>2016-10-07T09:42:09Z</time></trkpt>
<trkpt lat="28.257189" lon="99.269294">
<time>2016-10-07T09:42:10Z</time></trkpt>
<trkpt lat="28.257238" lon="99.269664">
<time>2016-10-07T09:42:11Z</time></trkpt>
<trkpt lat="28.257308" lon="99.270123">
<time>2016-10-07T09:42:12Z</time></trkpt>
<trkpt lat="28.257358" lon="99.270562">
<time>2016-10-07T09:42:13Z</time></trkpt>
<trkpt lat="28.257367" lon="99.270752">
<time>2016-10-07T09:42:14Z</time></trkpt>
<trkpt lat="28.257367" lon="99.270991">
<time>2016-10-07T09:42:15Z</time></trkpt>
<trkpt lat="28.257337" lon="99.271361">
<time>2016-10-07T09:42:16Z</time></trkpt>
<trkpt lat="28.257266" lon="99.27206">
<time>2016-10-07T09:42:17Z</time></trkpt>
<trkpt lat="28.257206" lon="99.272629">
<time>2016-10-07T09:42:18Z</time></trkpt>
<trkpt lat="28.257186" lon="99.272958">
<time>2016-10-07T09:42:19Z</time></trkpt>
<trkpt lat="28.257185" lon="99.273058">
<time>2016-10-07T09:42:20Z</time></trkpt>
<trkpt lat="28.257205" lon="99.273138">
<time>2016-10-07T09:42:21Z</time></trkpt>
<trkpt lat="28.257215" lon="99.273218">
<time>2016-10-07T09:42:22Z</time></trkpt>
<trkpt lat="28.257245" lon="99.273308">
<time>2016-10-07T09:42:23Z</time></trkpt>
<trkpt lat="28.257295" lon="99.273407">
<time>2016-10-07T09:42:24Z</time></trkpt>
<trkpt lat="28.257335" lon="99.273487">
<time>2016-10-07T09:42:25Z</time></trkpt>
<trkpt lat="28.257395" lon="99.273587">
<time>2016-10-07T09:42:26Z</time></trkpt>
<trkpt lat="28.257435" lon="99.273637">
<time>2016-10-07T09:42:27Z</time></trkpt>
<trkpt lat="28.257515" lon="99.273737">
<time>2016-10-07T09:42:28Z</time></trkpt>
<trkpt lat="28.257705" lon="99.273897">
<time>2016-10-07T09:42:29Z</time></trkpt>
<trkpt lat="28.257805" lon="99.273966">
<time>2016-10-07T09:42:30Z</time></trkpt>
<trkpt lat="28.257875" lon="99.274016">
<time>2016-10-07T09:42:31Z</time></trkpt>
<trkpt lat="28.257945" lon="99.274056">
<time>2016-10-07T09:42:32Z</time></trkpt>
<trkpt lat="28.258144" lon="99.274146">
<time>2016-10-07T09:42:33Z</time></trkpt>
<trkpt lat="28.258254" lon="99.274196">
<time>2016-10-07T09:42:34Z</time></trkpt>
<trkpt lat="28.258374" lon="99.274226">
<time>2016-10-07T09:42:35Z</time></trkpt>
<trkpt lat="28.258484" lon="99.274236">
<time>2016-10-07T09:42:36Z</time></trkpt>
<trkpt lat="28.258584" lon="99.274226">
<time>2016-10-07T09:42:37Z</time></trkpt>
<trkpt lat="28.258704" lon="99.274196">
<time>2016-10-07T09:42:38Z</time></trkpt>
<trkpt lat="28.258824" lon="99.274136">
<time>2016-10-07T09:42:39Z</time></trkpt>
<trkpt lat="28.258955" lon="99.274046">
<time>2016-10-07T09:42:40Z</time></trkpt>
<trkpt lat="28.259425" lon="99.273627">
<time>2016-10-07T09:42:41Z</time></trkpt>
<trkpt lat="28.259665" lon="99.273417">
<time>2016-10-07T09:42:42Z</time></trkpt>
<trkpt lat="28.259915" lon="99.273158">
<time>2016-10-07T09:42:43Z</time></trkpt>
<trkpt lat="28.260055" lon="99.273028">
<time>2016-10-07T09:42:44Z</time></trkpt>
<trkpt lat="28.260146" lon="99.272938">
<time>2016-10-07T09:42:45Z</time></trkpt>
<trkpt lat="28.260206" lon="99.272858">
<time>2016-10-07T09:42:46Z</time></trkpt>
<trkpt lat="28.260246" lon="99.272758">
<time>2016-10-07T09:42:47Z</time></trkpt>
<trkpt lat="28.260256" lon="99.272728">
<time>2016-10-07T09:42:48Z</time></trkpt>
<trkpt lat="28.260266" lon="99.272669">
<time>2016-10-07T09:42:49Z</time></trkpt>
<trkpt lat="28.260266" lon="99.272629">
<time>2016-10-07T09:42:50Z</time></trkpt>
<trkpt lat="28.260256" lon="99.272579">
<time>2016-10-07T09:42:51Z</time></trkpt>
<trkpt lat="28.260236" lon="99.272539">
<time>2016-10-07T09:42:52Z</time></trkpt>
<trkpt lat="28.260216" lon="99.272479">
<time>2016-10-07T09:42:53Z</time></trkpt>
<trkpt lat="28.260186" lon="99.272459">
<time>2016-10-07T09:42:54Z</time></trkpt>
<trkpt lat="28.260136" lon="99.272419">
<time>2016-10-07T09:42:55Z</time></trkpt>
<trkpt lat="28.260086" lon="99.272399">
<time>2016-10-07T09:42:56Z</time></trkpt>
<trkpt lat="28.260026" lon="99.272389">
<time>2016-10-07T09:42:57Z</time></trkpt>
<trkpt lat="28.259976" lon="99.272389">
<time>2016-10-07T09:42:58Z</time></trkpt>
<trkpt lat="28.259926" lon="99.272399">
<time>2016-10-07T09:42:59Z</time></trkpt>
<trkpt lat="28.259866" lon="99.272429">
<time>2016-10-07T09:43:00Z</time></trkpt>
<trkpt lat="28.259816" lon="99.272469">
<time>2016-10-07T09:43:01Z</time></trkpt>
<trkpt lat="28.259726" lon="99.272549">
<time>2016-10-07T09:43:02Z</time></trkpt>
<trkpt lat="28.259396" lon="99.272938">
<time>2016-10-07T09:43:03Z</time></trkpt>
<trkpt lat="28.259125" lon="99.273228">
<time>2016-10-07T09:43:04Z</time></trkpt>
<trkpt lat="28.259045" lon="99.273288">
<time>2016-10-07T09:43:05Z</time></trkpt>
<trkpt lat="28.258975" lon="99.273317">
<time>2016-10-07T09:43:06Z</time></trkpt>
<trkpt lat="28.258855" lon="99.273357">
<time>2016-10-07T09:43:07Z</time></trkpt>
<trkpt lat="28.258735" lon="99.273367">
<time>2016-10-07T09:43:08Z</time></trkpt>
<trkpt lat="28.258645" lon="99.273367">
<time>2016-10-07T09:43:09Z</time></trkpt>
<trkpt lat="28.258565" lon="99.273347">
<time>2016-10-07T09:43:10Z</time></trkpt>
<trkpt lat="28.258495" lon="99.273318">
<time>2016-10-07T09:43:11Z</time></trkpt>
<trkpt lat="28.258395" lon="99.273268">
<time>2016-10-07T09:43:12Z</time></trkpt>
<trkpt lat="28.258285" lon="99.273188">
<time>2016-10-07T09:43:13Z</time></trkpt>
<trkpt lat="28.258185" lon="99.273108">
<time>2016-10-07T09:43:14Z</time></trkpt>
<trkpt lat="28.258096" lon="99.273008">
<time>2016-10-07T09:43:15Z</time></trkpt>
<trkpt lat="28.258016" lon="99.272918">
<time>2016-10-07T09:43:16Z</time></trkpt>
<trkpt lat="28.257976" lon="99.272858">
<time>2016-10-07T09:43:17Z</time></trkpt>
<trkpt lat="28.257896" lon="99.272729">
<time>2016-10-07T09:43:18Z</time></trkpt>
<trkpt lat="28.257846" lon="99.272629">
<time>2016-10-07T09:43:19Z</time></trkpt>
<trkpt lat="28.257826" lon="99.272569">
<time>2016-10-07T09:43:20Z</time></trkpt>
<trkpt lat="28.257816" lon="99.272489">
<time>2016-10-07T09:43:21Z</time></trkpt>
<trkpt lat="28.257806" lon="99.272419">
<time>2016-10-07T09:43:22Z</time></trkpt>
<trkpt lat="28.257806" lon="99.272339">
<time>2016-10-07T09:43:23Z</time></trkpt>
<trkpt lat="28.257806" lon="99.272269">
<time>2016-10-07T09:43:24Z</time></trkpt>
<trkpt lat="28.257806" lon="99.272189">
<time>2016-10-07T09:43:25Z</time></trkpt>
<trkpt lat="28.257856" lon="99.27199">
<time>2016-10-07T09:43:26Z</time></trkpt>
<trkpt lat="28.257897" lon="99.27183">
<time>2016-10-07T09:43:27Z</time></trkpt>
<trkpt lat="28.258037" lon="99.271331">
<time>2016-10-07T09:43:28Z</time></trkpt>
<trkpt lat="28.258258" lon="99.270512">
<time>2016-10-07T09:43:29Z</time></trkpt>
<trkpt lat="28.258318" lon="99.270293">
<time>2016-10-07T09:43:30Z</time></trkpt>
<trkpt lat="28.258348" lon="99.270153">
<time>2016-10-07T09:43:31Z</time></trkpt>
<trkpt lat="28.258398" lon="99.269903">
<time>2016-10-07T09:43:32Z</time></trkpt>
<trkpt lat="28.258408" lon="99.269783">
<time>2016-10-07T09:43:33Z</time></trkpt>
<trkpt lat="28.258418" lon="99.269624">
<time>2016-10-07T09:43:34Z</time></trkpt>
<trkpt lat="28.258418" lon="99.269434">
<time>2016-10-07T09:43:35Z</time></trkpt>
<trkpt lat="28.258409" lon="99.269224">
<time>2016-10-07T09:43:36Z</time></trkpt>
<trkpt lat="28.258399" lon="99.269035">
<time>2016-10-07T09:43:37Z</time></trkpt>
<trkpt lat="28.258389" lon="99.268955">
<time>2016-10-07T09:43:38Z</time></trkpt>
<trkpt lat="28.258379" lon="99.268795">
<time>2016-10-07T09:43:39Z</time></trkpt>
<trkpt lat="28.258379" lon="99.268505">
<time>2016-10-07T09:43:40Z</time></trkpt>
<trkpt lat="28.258379" lon="99.268306">
<time>2016-10-07T09:43:41Z</time></trkpt>
<trkpt lat="28.258409" lon="99.268086">
<time>2016-10-07T09:43:42Z</time></trkpt>
<trkpt lat="28.25845" lon="99.267886">
<time>2016-10-07T09:43:43Z</time></trkpt>
<trkpt lat="28.25851" lon="99.267637">
<time>2016-10-07T09:43:44Z</time></trkpt>
<trkpt lat="28.25859" lon="99.267347">
<time>2016-10-07T09:43:45Z</time></trkpt>
<trkpt lat="28.25881" lon="99.266638">
<time>2016-10-07T09:43:46Z</time></trkpt>
<trkpt lat="28.258861" lon="99.266409">
<time>2016-10-07T09:43:47Z</time></trkpt>
<trkpt lat="28.258911" lon="99.266199">
<time>2016-10-07T09:43:48Z</time></trkpt>
<trkpt lat="28.258971" lon="99.265879">
<time>2016-10-07T09:43:49Z</time></trkpt>
<trkpt lat="28.259001" lon="99.2657">
<time>2016-10-07T09:43:50Z</time></trkpt>
<trkpt lat="28.259041" lon="99.26553">
<time>2016-10-07T09:43:51Z</time></trkpt>
<trkpt lat="28.259061" lon="99.26545">
<time>2016-10-07T09:43:52Z</time></trkpt>
<trkpt lat="28.259101" lon="99.26536">
<time>2016-10-07T09:43:53Z</time></trkpt>
<trkpt lat="28.259151" lon="99.26526">
<time>2016-10-07T09:43:54Z</time></trkpt>
<trkpt lat="28.259221" lon="99.26515">
<time>2016-10-07T09:43:55Z</time></trkpt>
<trkpt lat="28.259301" lon="99.265051">
<time>2016-10-07T09:43:56Z</time></trkpt>
<trkpt lat="28.259372" lon="99.264971">
<time>2016-10-07T09:43:57Z</time></trkpt>
<trkpt lat="28.259512" lon="99.264821">
<time>2016-10-07T09:43:58Z</time></trkpt>
<trkpt lat="28.259602" lon="99.264691">
<time>2016-10-07T09:43:59Z</time></trkpt>
<trkpt lat="28.259652" lon="99.264581">
<time>2016-10-07T09:44:00Z</time></trkpt>
<trkpt lat="28.259682" lon="99.264481">
<time>2016-10-07T09:44:01Z</time></trkpt>
<trkpt lat="28.259692" lon="99.264411">
<time>2016-10-07T09:44:02Z</time></trkpt>
<trkpt lat="28.259702" lon="99.264352">
<time>2016-10-07T09:44:03Z</time></trkpt>
<trkpt lat="28.259692" lon="99.264272">
<time>2016-10-07T09:44:04Z</time></trkpt>
<trkpt lat="28.259672" lon="99.264162">
<time>2016-10-07T09:44:05Z</time></trkpt>
<trkpt lat="28.259652" lon="99.264062">
<time>2016-10-07T09:44:06Z</time></trkpt>
<trkpt lat="28.259582" lon="99.263922">
<time>2016-10-07T09:44:07Z</time></trkpt>
<trkpt lat="28.259542" lon="99.263862">
<time>2016-10-07T09:44:08Z</time></trkpt>
<trkpt lat="28.259462" lon="99.263752">
<time>2016-10-07T09:44:09Z</time></trkpt>
<trkpt lat="28.259292" lon="99.263533">
<time>2016-10-07T09:44:10Z</time></trkpt>
<trkpt lat="28.259102" lon="99.263303">
<time>2016-10-07T09:44:11Z</time></trkpt>
<trkpt lat="28.258903" lon="99.263043">
<time>2016-10-07T09:44:12Z</time></trkpt>
<trkpt lat="28.258833" lon="99.262934">
<time>2016-10-07T09:44:13Z</time></trkpt>
<trkpt lat="28.258773" lon="99.262824">
<time>2016-10-07T09:44:14Z</time></trkpt>
<trkpt lat="28.258753" lon="99.262764">
<time>2016-10-07T09:44:15Z</time></trkpt>
<trkpt lat="28.258723" lon="99.262644">
<time>2016-10-07T09:44:16Z</time></trkpt>
<trkpt lat="28.258713" lon="99.262544">
<time>2016-10-07T09:44:17Z</time></trkpt>
<trkpt lat="28.258723" lon="99.262434">
<time>2016-10-07T09:44:18Z</time></trkpt>
<trkpt lat="28.258763" lon="99.262314">
<time>2016-10-07T09:44:19Z</time></trkpt>
<trkpt lat="28.258803" lon="99.262224">
<time>2016-10-07T09:44:20Z</time></trkpt>
<trkpt lat="28.258843" lon="99.262165">
<time>2016-10-07T09:44:21Z</time></trkpt>
<trkpt lat="28.258873" lon="99.262125">
<time>2016-10-07T09:44:22Z</time></trkpt>
<trkpt lat="28.258913" lon="99.262085">
<time>2016-10-07T09:44:23Z</time></trkpt>
<trkpt lat="28.258953" lon="99.262045">
<time>2016-10-07T09:44:24Z</time></trkpt>
<trkpt lat="28.258993" lon="99.262015">
<time>2016-10-07T09:44:25Z</time></trkpt>
<trkpt lat="28.259053" lon="99.261985">
<time>2016-10-07T09:44:26Z</time></trkpt>
<trkpt lat="28.259153" lon="99.261945">
<time>2016-10-07T09:44:27Z</time></trkpt>
<trkpt lat="28.259263" lon="99.261915">
<time>2016-10-07T09:44:28Z</time></trkpt>
<trkpt lat="28.259373" lon="99.261875">
<time>2016-10-07T09:44:29Z</time></trkpt>
<trkpt lat="28.259503" lon="99.261835">
<time>2016-10-07T09:44:30Z</time></trkpt>
<trkpt lat="28.259603" lon="99.261785">
<time>2016-10-07T09:44:31Z</time></trkpt>
<trkpt lat="28.259723" lon="99.261715">
<time>2016-10-07T09:44:32Z</time></trkpt>
<trkpt lat="28.259823" lon="99.261625">
<time>2016-10-07T09:44:33Z</time></trkpt>
<trkpt lat="28.260013" lon="99.261435">
<time>2016-10-07T09:44:34Z</time></trkpt>
<trkpt lat="28.260224" lon="99.261226">
<time>2016-10-07T09:44:35Z</time></trkpt>
<trkpt lat="28.260334" lon="99.261096">
<time>2016-10-07T09:44:36Z</time></trkpt>
<trkpt lat="28.260414" lon="99.260976">
<time>2016-10-07T09:44:37Z</time></trkpt>
<trkpt lat="28.260444" lon="99.260926">
<time>2016-10-07T09:44:38Z</time></trkpt>
<trkpt lat="28.260484" lon="99.260846">
<time>2016-10-07T09:44:39Z</time></trkpt>
<trkpt lat="28.260514" lon="99.260746">
<time>2016-10-07T09:44:40Z</time></trkpt>
<trkpt lat="28.260544" lon="99.260606">
<time>2016-10-07T09:44:41Z</time></trkpt>
<trkpt lat="28.260544" lon="99.260487">
<time>2016-10-07T09:44:42Z</time></trkpt>
<trkpt lat="28.260534" lon="99.260377">
<time>2016-10-07T09:44:43Z</time></trkpt>
<trkpt lat="28.260524" lon="99.260307">
<time>2016-10-07T09:44:44Z</time></trkpt>
<trkpt lat="28.260504" lon="99.260237">
<time>2016-10-07T09:44:45Z</time></trkpt>
<trkpt lat="28.260474" lon="99.260167">
<time>2016-10-07T09:44:46Z</time></trkpt>
<trkpt lat="28.260434" lon="99.260087">
<time>2016-10-07T09:44:47Z</time></trkpt>
<trkpt lat="28.260394" lon="99.260027">
<time>2016-10-07T09:44:48Z</time></trkpt>
<trkpt lat="28.260324" lon="99.259937">
<time>2016-10-07T09:44:49Z</time></trkpt>
<trkpt lat="28.260274" lon="99.259887">
<time>2016-10-07T09:44:50Z</time></trkpt>
<trkpt lat="28.260194" lon="99.259807">
<time>2016-10-07T09:44:51Z</time></trkpt>
<trkpt lat="28.260084" lon="99.259718">
<time>2016-10-07T09:44:52Z</time></trkpt>
<trkpt lat="28.259944" lon="99.259618">
<time>2016-10-07T09:44:53Z</time></trkpt>
<trkpt lat="28.259774" lon="99.259498">
<time>2016-10-07T09:44:54Z</time></trkpt>
<trkpt lat="28.259035" lon="99.258998">
<time>2016-10-07T09:44:55Z</time></trkpt>
<trkpt lat="28.258745" lon="99.258799">
<time>2016-10-07T09:44:56Z</time></trkpt>
<trkpt lat="28.258425" lon="99.258579">
<time>2016-10-07T09:44:57Z</time></trkpt>
<trkpt lat="28.258255" lon="99.258469">
<time>2016-10-07T09:44:58Z</time></trkpt>
<trkpt lat="28.258135" lon="99.258379">
<time>2016-10-07T09:44:59Z</time></trkpt>
<trkpt lat="28.258055" lon="99.258309">
<time>2016-10-07T09:45:00Z</time></trkpt>
<trkpt lat="28.257995" lon="99.258239">
<time>2016-10-07T09:45:01Z</time></trkpt>
<trkpt lat="28.257945" lon="99.258149">
<time>2016-10-07T09:45:02Z</time></trkpt>
<trkpt lat="28.257905" lon="99.25805">
<time>2016-10-07T09:45:03Z</time></trkpt>
<trkpt lat="28.257885" lon="99.25794">
<time>2016-10-07T09:45:04Z</time></trkpt>
<trkpt lat="28.257875" lon="99.25788">
<time>2016-10-07T09:45:05Z</time></trkpt>
<trkpt lat="28.257875" lon="99.25782">
<time>2016-10-07T09:45:06Z</time></trkpt>
<trkpt lat="28.257875" lon="99.25778">
<time>2016-10-07T09:45:07Z</time></trkpt>
<trkpt lat="28.257885" lon="99.25773">
<time>2016-10-07T09:45:08Z</time></trkpt>
<trkpt lat="28.257905" lon="99.25767">
<time>2016-10-07T09:45:09Z</time></trkpt>
<trkpt lat="28.257925" lon="99.25761">
<time>2016-10-07T09:45:10Z</time></trkpt>
<trkpt lat="28.257945" lon="99.25755">
<time>2016-10-07T09:45:11Z</time></trkpt>
<trkpt lat="28.257975" lon="99.2575">
<time>2016-10-07T09:45:12Z</time></trkpt>
<trkpt lat="28.258025" lon="99.25743">
<time>2016-10-07T09:45:13Z</time></trkpt>
<trkpt lat="28.258085" lon="99.25736">
<time>2016-10-07T09:45:14Z</time></trkpt>
<trkpt lat="28.258145" lon="99.25728">
<time>2016-10-07T09:45:15Z</time></trkpt>
<trkpt lat="28.258215" lon="99.257201">
<time>2016-10-07T09:45:16Z</time></trkpt>
<trkpt lat="28.258265" lon="99.257141">
<time>2016-10-07T09:45:17Z</time></trkpt>
<trkpt lat="28.258315" lon="99.257051">
<time>2016-10-07T09:45:18Z</time></trkpt>
<trkpt lat="28.258345" lon="99.256981">
<time>2016-10-07T09:45:19Z</time></trkpt>
<trkpt lat="28.258355" lon="99.256911">
<time>2016-10-07T09:45:20Z</time></trkpt>
<trkpt lat="28.258345" lon="99.256851">
<time>2016-10-07T09:45:21Z</time></trkpt>
<trkpt lat="28.258325" lon="99.256801">
<time>2016-10-07T09:45:22Z</time></trkpt>
<trkpt lat="28.258285" lon="99.256741">
<time>2016-10-07T09:45:23Z</time></trkpt>
<trkpt lat="28.258225" lon="99.256681">
<time>2016-10-07T09:45:24Z</time></trkpt>
<trkpt lat="28.258155" lon="99.256651">
<time>2016-10-07T09:45:25Z</time></trkpt>
<trkpt lat="28.258065" lon="99.256651">
<time>2016-10-07T09:45:26Z</time></trkpt>
<trkpt lat="28.257945" lon="99.256691">
<time>2016-10-07T09:45:27Z</time></trkpt>
<trkpt lat="28.257765" lon="99.256801">
<time>2016-10-07T09:45:28Z</time></trkpt>
<trkpt lat="28.257575" lon="99.256941">
<time>2016-10-07T09:45:29Z</time></trkpt>
<trkpt lat="28.257335" lon="99.257131">
<time>2016-10-07T09:45:30Z</time></trkpt>
<trkpt lat="28.257265" lon="99.257201">
<time>2016-10-07T09:45:31Z</time></trkpt>
<trkpt lat="28.257175" lon="99.25729">
<time>2016-10-07T09:45:32Z</time></trkpt>
<trkpt lat="28.257075" lon="99.2574">
<time>2016-10-07T09:45:33Z</time></trkpt>
<trkpt lat="28.257015" lon="99.2575">
<time>2016-10-07T09:45:34Z</time></trkpt>
<trkpt lat="28.256935" lon="99.2576">
<time>2016-10-07T09:45:35Z</time></trkpt>
<trkpt lat="28.256775" lon="99.2579">
<time>2016-10-07T09:45:36Z</time></trkpt>
<trkpt lat="28.256615" lon="99.258229">
<time>2016-10-07T09:45:37Z</time></trkpt>
<trkpt lat="28.256525" lon="99.258409">
<time>2016-10-07T09:45:38Z</time></trkpt>
<trkpt lat="28.256435" lon="99.258559">
<time>2016-10-07T09:45:39Z</time></trkpt>
<trkpt lat="28.256345" lon="99.258679">
<time>2016-10-07T09:45:40Z</time></trkpt>
<trkpt lat="28.256265" lon="99.258759">
<time>2016-10-07T09:45:41Z</time></trkpt>
<trkpt lat="28.256215" lon="99.258799">
<time>2016-10-07T09:45:42Z</time></trkpt>
<trkpt lat="28.256155" lon="99.258829">
<time>2016-10-07T09:45:43Z</time></trkpt>
<trkpt lat="28.256035" lon="99.258859">
<time>2016-10-07T09:45:44Z</time></trkpt>
<trkpt lat="28.255965" lon="99.258859">
<time>2016-10-07T09:45:45Z</time></trkpt>
<trkpt lat="28.255845" lon="99.258849">
<time>2016-10-07T09:45:46Z</time></trkpt>
<trkpt lat="28.255725" lon="99.258809">
<time>2016-10-07T09:45:47Z</time></trkpt>
<trkpt lat="28.255625" lon="99.258739">
<time>2016-10-07T09:45:48Z</time></trkpt>
<trkpt lat="28.255515" lon="99.258659">
<time>2016-10-07T09:45:49Z</time></trkpt>
<trkpt lat="28.255415" lon="99.258549">
<time>2016-10-07T09:45:50Z</time></trkpt>
<trkpt lat="28.255315" lon="99.258409">
<time>2016-10-07T09:45:51Z</time></trkpt>
<trkpt lat="28.255245" lon="99.258269">
<time>2016-10-07T09:45:52Z</time></trkpt>
<trkpt lat="28.255195" lon="99.25817">
<time>2016-10-07T09:45:53Z</time></trkpt>
<trkpt lat="28.255155" lon="99.25801">
<time>2016-10-07T09:45:54Z</time></trkpt>
<trkpt lat="28.255105" lon="99.25778">
<time>2016-10-07T09:45:55Z</time></trkpt>
<trkpt lat="28.255095" lon="99.25756">
<time>2016-10-07T09:45:56Z</time></trkpt>
<trkpt lat="28.255115" lon="99.25742">
<time>2016-10-07T09:45:57Z</time></trkpt>
<trkpt lat="28.255145" lon="99.25731">
<time>2016-10-07T09:45:58Z</time></trkpt>
<trkpt lat="28.255185" lon="99.257181">
<time>2016-10-07T09:45:59Z</time></trkpt>
<trkpt lat="28.255255" lon="99.257091">
<time>2016-10-07T09:46:00Z</time></trkpt>
<trkpt lat="28.255305" lon="99.257041">
<time>2016-10-07T09:46:01Z</time></trkpt>
<trkpt lat="28.255395" lon="99.256971">
<time>2016-10-07T09:46:02Z</time></trkpt>
<trkpt lat="28.255465" lon="99.256941">
<time>2016-10-07T09:46:03Z</time></trkpt>
<trkpt lat="28.255525" lon="99.256921">
<time>2016-10-07T09:46:04Z</time></trkpt>
<trkpt lat="28.255595" lon="99.256901">
<time>2016-10-07T09:46:05Z</time></trkpt>
<trkpt lat="28.255665" lon="99.256901">
<time>2016-10-07T09:46:06Z</time></trkpt>
<trkpt lat="28.255725" lon="99.256901">
<time>2016-10-07T09:46:07Z</time></trkpt>
<trkpt lat="28.255795" lon="99.256911">
<time>2016-10-07T09:46:08Z</time></trkpt>
<trkpt lat="28.255905" lon="99.256941">
<time>2016-10-07T09:46:09Z</time></trkpt>
<trkpt lat="28.255975" lon="99.256971">
<time>2016-10-07T09:46:10Z</time></trkpt>
<trkpt lat="28.256045" lon="99.257001">
<time>2016-10-07T09:46:11Z</time></trkpt>
<trkpt lat="28.256125" lon="99.257041">
<time>2016-10-07T09:46:12Z</time></trkpt>
<trkpt lat="28.256245" lon="99.257091">
<time>2016-10-07T09:46:13Z</time></trkpt>
<trkpt lat="28.256305" lon="99.257101">
<time>2016-10-07T09:46:14Z</time></trkpt>
<trkpt lat="28.256375" lon="99.257111">
<time>2016-10-07T09:46:15Z</time></trkpt>
<trkpt lat="28.256495" lon="99.257111">
<time>2016-10-07T09:46:16Z</time></trkpt>
<trkpt lat="28.256585" lon="99.257091">
<time>2016-10-07T09:46:17Z</time></trkpt>
<trkpt lat="28.256665" lon="99.257061">
<time>2016-10-07T09:46:18Z</time></trkpt>
<trkpt lat="28.256805" lon="99.256971">
<time>2016-10-07T09:46:19Z</time></trkpt>
<trkpt lat="28.256915" lon="99.256861">
<time>2016-10-07T09:46:20Z</time></trkpt>
<trkpt lat="28.257035" lon="99.256731">
<time>2016-10-07T09:46:21Z</time></trkpt>
<trkpt lat="28.257205" lon="99.256501">
<time>2016-10-07T09:46:22Z</time></trkpt>
<trkpt lat="28.257576" lon="99.256032">
<time>2016-10-07T09:46:23Z</time></trkpt>
<trkpt lat="28.257626" lon="99.255952">
<time>2016-10-07T09:46:24Z</time></trkpt>
<trkpt lat="28.257796" lon="99.255742">
<time>2016-10-07T09:46:25Z</time></trkpt>
<trkpt lat="28.257956" lon="99.255562">
<time>2016-10-07T09:46:26Z</time></trkpt>
<trkpt lat="28.258056" lon="99.255472">
<time>2016-10-07T09:46:27Z</time></trkpt>
<trkpt lat="28.258146" lon="99.255402">
<time>2016-10-07T09:46:28Z</time></trkpt>
<trkpt lat="28.258226" lon="99.255352">
<time>2016-10-07T09:46:29Z</time></trkpt>
<trkpt lat="28.258346" lon="99.255283">
<time>2016-10-07T09:46:30Z</time></trkpt>
<trkpt lat="28.258536" lon="99.255183">
<time>2016-10-07T09:46:31Z</time></trkpt>
<trkpt lat="28.258896" lon="99.254983">
<time>2016-10-07T09:46:32Z</time></trkpt>
<trkpt lat="28.259076" lon="99.254873">
<time>2016-10-07T09:46:33Z</time></trkpt>
<trkpt lat="28.259186" lon="99.254783">
<time>2016-10-07T09:46:34Z</time></trkpt>
<trkpt lat="28.259256" lon="99.254723">
<time>2016-10-07T09:46:35Z</time></trkpt>
<trkpt lat="28.259356" lon="99.254603">
<time>2016-10-07T09:46:36Z</time></trkpt>
<trkpt lat="28.259426" lon="99.254503">
<time>2016-10-07T09:46:37Z</time></trkpt>
<trkpt lat="28.259486" lon="99.254383">
<time>2016-10-07T09:46:38Z</time></trkpt>
<trkpt lat="28.259676" lon="99.253964">
<time>2016-10-07T09:46:39Z</time></trkpt>
<trkpt lat="28.259866" lon="99.253504">
<time>2016-10-07T09:46:40Z</time></trkpt>
<trkpt lat="28.260006" lon="99.253175">
<time>2016-10-07T09:46:41Z</time></trkpt>
<trkpt lat="28.260066" lon="99.253015">
<time>2016-10-07T09:46:42Z</time></trkpt>
<trkpt lat="28.260096" lon="99.252905">
<time>2016-10-07T09:46:43Z</time></trkpt>
<trkpt lat="28.260116" lon="99.252775">
<time>2016-10-07T09:46:44Z</time></trkpt>
<trkpt lat="28.260116" lon="99.252655">
<time>2016-10-07T09:46:45Z</time></trkpt>
<trkpt lat="28.260106" lon="99.252545">
<time>2016-10-07T09:46:46Z</time></trkpt>
<trkpt lat="28.260096" lon="99.252475">
<time>2016-10-07T09:46:47Z</time></trkpt>
<trkpt lat="28.260076" lon="99.252385">
<time>2016-10-07T09:46:48Z</time></trkpt>
<trkpt lat="28.260056" lon="99.252315">
<time>2016-10-07T09:46:49Z</time></trkpt>
<trkpt lat="28.260016" lon="99.252215">
<time>2016-10-07T09:46:50Z</time></trkpt>
<trkpt lat="28.259976" lon="99.252146">
<time>2016-10-07T09:46:51Z</time></trkpt>
<trkpt lat="28.259896" lon="99.252026">
<time>2016-10-07T09:46:52Z</time></trkpt>
<trkpt lat="28.259726" lon="99.251836">
<time>2016-10-07T09:46:53Z</time></trkpt>
<trkpt lat="28.259566" lon="99.251676">
<time>2016-10-07T09:46:54Z</time></trkpt>
<trkpt lat="28.259076" lon="99.251216">
<time>2016-10-07T09:46:55Z</time></trkpt>
<trkpt lat="28.258926" lon="99.251066">
<time>2016-10-07T09:46:56Z</time></trkpt>
<trkpt lat="28.258836" lon="99.250967">
<time>2016-10-07T09:46:57Z</time></trkpt>
<trkpt lat="28.258746" lon="99.250867">
<time>2016-10-07T09:46:58Z</time></trkpt>
<trkpt lat="28.258686" lon="99.250747">
<time>2016-10-07T09:46:59Z</time></trkpt>
<trkpt lat="28.258656" lon="99.250657">
<time>2016-10-07T09:47:00Z</time></trkpt>
<trkpt lat="28.258636" lon="99.250577">
<time>2016-10-07T09:47:01Z</time></trkpt>
<trkpt lat="28.258626" lon="99.250497">
<time>2016-10-07T09:47:02Z</time></trkpt>
<trkpt lat="28.258616" lon="99.250397">
<time>2016-10-07T09:47:03Z</time></trkpt>
<trkpt lat="28.258616" lon="99.250227">
<time>2016-10-07T09:47:04Z</time></trkpt>
<trkpt lat="28.258626" lon="99.250027">
<time>2016-10-07T09:47:05Z</time></trkpt>
<trkpt lat="28.258626" lon="99.249887">
<time>2016-10-07T09:47:06Z</time></trkpt>
<trkpt lat="28.258646" lon="99.249378">
<time>2016-10-07T09:47:07Z</time></trkpt>
<trkpt lat="28.258656" lon="99.249238">
<time>2016-10-07T09:47:08Z</time></trkpt>
<trkpt lat="28.258647" lon="99.249098">
<time>2016-10-07T09:47:09Z</time></trkpt>
<trkpt lat="28.258637" lon="99.249018">
<time>2016-10-07T09:47:10Z</time></trkpt>
<trkpt lat="28.258607" lon="99.248918">
<time>2016-10-07T09:47:11Z</time></trkpt>
<trkpt lat="28.258557" lon="99.248788">
<time>2016-10-07T09:47:12Z</time></trkpt>
<trkpt lat="28.258517" lon="99.248708">
<time>2016-10-07T09:47:13Z</time></trkpt>
<trkpt lat="28.258447" lon="99.248628">
<time>2016-10-07T09:47:14Z</time></trkpt>
<trkpt lat="28.258377" lon="99.248568">
<time>2016-10-07T09:47:15Z</time></trkpt>
<trkpt lat="28.258347" lon="99.248549">
<time>2016-10-07T09:47:16Z</time></trkpt>
<trkpt lat="28.258297" lon="99.248519">
<time>2016-10-07T09:47:17Z</time></trkpt>
<trkpt lat="28.258217" lon="99.248479">
<time>2016-10-07T09:47:18Z</time></trkpt>
<trkpt lat="28.258127" lon="99.248439">
<time>2016-10-07T09:47:19Z</time></trkpt>
<trkpt lat="28.258037" lon="99.248399">
<time>2016-10-07T09:47:20Z</time></trkpt>
<trkpt lat="28.257947" lon="99.248349">
<time>2016-10-07T09:47:21Z</time></trkpt>
<trkpt lat="28.257877" lon="99.248309">
<time>2016-10-07T09:47:22Z</time></trkpt>
<trkpt lat="28.257837" lon="99.248279">
<time>2016-10-07T09:47:23Z</time></trkpt>
<trkpt lat="28.257797" lon="99.248239">
<time>2016-10-07T09:47:24Z</time></trkpt>
<trkpt lat="28.257727" lon="99.248169">
<time>2016-10-07T09:47:25Z</time></trkpt>
<trkpt lat="28.257647" lon="99.248059">
<time>2016-10-07T09:47:26Z</time></trkpt>
<trkpt lat="28.257577" lon="99.247889">
<time>2016-10-07T09:47:27Z</time></trkpt>
<trkpt lat="28.257477" lon="99.247689">
<time>2016-10-07T09:47:28Z</time></trkpt>
<trkpt lat="28.257416" lon="99.247579">
<time>2016-10-07T09:47:29Z</time></trkpt>
<trkpt lat="28.257336" lon="99.247479">
<time>2016-10-07T09:47:30Z</time></trkpt>
<trkpt lat="28.257256" lon="99.247409">
<time>2016-10-07T09:47:31Z</time></trkpt>
<trkpt lat="28.257196" lon="99.247359">
<time>2016-10-07T09:47:32Z</time></trkpt>
<trkpt lat="28.257106" lon="99.247319">
<time>2016-10-07T09:47:33Z</time></trkpt>
<trkpt lat="28.257026" lon="99.247279">
<time>2016-10-07T09:47:34Z</time></trkpt>
<trkpt lat="28.256906" lon="99.247249">
<time>2016-10-07T09:47:35Z</time></trkpt>
<trkpt lat="28.256726" lon="99.24719">
<time>2016-10-07T09:47:36Z</time></trkpt>
<trkpt lat="28.256606" lon="99.24715">
<time>2016-10-07T09:47:37Z</time></trkpt>
<trkpt lat="28.256496" lon="99.24708">
<time>2016-10-07T09:47:38Z</time></trkpt>
<trkpt lat="28.256456" lon="99.24705">
<time>2016-10-07T09:47:39Z</time></trkpt>
<trkpt lat="28.256386" lon="99.24698">
<time>2016-10-07T09:47:40Z</time></trkpt>
<trkpt lat="28.256366" lon="99.24695">
<time>2016-10-07T09:47:41Z</time></trkpt>
<trkpt lat="28.256336" lon="99.24689">
<time>2016-10-07T09:47:42Z</time></trkpt>
<trkpt lat="28.256316" lon="99.24685">
<time>2016-10-07T09:47:43Z</time></trkpt>
<trkpt lat="28.256286" lon="99.24677">
<time>2016-10-07T09:47:44Z</time></trkpt>
<trkpt lat="28.256276" lon="99.24672">
<time>2016-10-07T09:47:45Z</time></trkpt>
<trkpt lat="28.256256" lon="99.24666">
<time>2016-10-07T09:47:46Z</time></trkpt>
<trkpt lat="28.256246" lon="99.24658">
<time>2016-10-07T09:47:47Z</time></trkpt>
<trkpt lat="28.256246" lon="99.24653">
<time>2016-10-07T09:47:48Z</time></trkpt>
<trkpt lat="28.256246" lon="99.24635">
<time>2016-10-07T09:47:49Z</time></trkpt>
<trkpt lat="28.256256" lon="99.24619">
<time>2016-10-07T09:47:50Z</time></trkpt>
<trkpt lat="28.256286" lon="99.245341">
<time>2016-10-07T09:47:51Z</time></trkpt>
<trkpt lat="28.256296" lon="99.245081">
<time>2016-10-07T09:47:52Z</time></trkpt>
<trkpt lat="28.256316" lon="99.244921">
<time>2016-10-07T09:47:53Z</time></trkpt>
<trkpt lat="28.256336" lon="99.244821">
<time>2016-10-07T09:47:54Z</time></trkpt>
<trkpt lat="28.256366" lon="99.244731">
<time>2016-10-07T09:47:55Z</time></trkpt>
<trkpt lat="28.256386" lon="99.244671">
<time>2016-10-07T09:47:56Z</time></trkpt>
<trkpt lat="28.256436" lon="99.244601">
<time>2016-10-07T09:47:57Z</time></trkpt>
<trkpt lat="28.256486" lon="99.244531">
<time>2016-10-07T09:47:58Z</time></trkpt>
<trkpt lat="28.256556" lon="99.244461">
<time>2016-10-07T09:47:59Z</time></trkpt>
<trkpt lat="28.256636" lon="99.244411">
<time>2016-10-07T09:48:00Z</time></trkpt>
<trkpt lat="28.256696" lon="99.244371">
<time>2016-10-07T09:48:01Z</time></trkpt>
<trkpt lat="28.256796" lon="99.244331">
<time>2016-10-07T09:48:02Z</time></trkpt>
<trkpt lat="28.256956" lon="99.244281">
<time>2016-10-07T09:48:03Z</time></trkpt>
<trkpt lat="28.257176" lon="99.244211">
<time>2016-10-07T09:48:04Z</time></trkpt>
<trkpt lat="28.257456" lon="99.244101">
<time>2016-10-07T09:48:05Z</time></trkpt>
<trkpt lat="28.257626" lon="99.244011">
<time>2016-10-07T09:48:06Z</time></trkpt>
<trkpt lat="28.257706" lon="99.243941">
<time>2016-10-07T09:48:07Z</time></trkpt>
<trkpt lat="28.257786" lon="99.243862">
<time>2016-10-07T09:48:08Z</time></trkpt>
<trkpt lat="28.257866" lon="99.243762">
<time>2016-10-07T09:48:09Z</time></trkpt>
<trkpt lat="28.257996" lon="99.243542">
<time>2016-10-07T09:48:10Z</time></trkpt>
<trkpt lat="28.258226" lon="99.243112">
<time>2016-10-07T09:48:11Z</time></trkpt>
<trkpt lat="28.258326" lon="99.242932">
<time>2016-10-07T09:48:12Z</time></trkpt>
<trkpt lat="28.258416" lon="99.242702">
<time>2016-10-07T09:48:13Z</time></trkpt>
<trkpt lat="28.258456" lon="99.242562">
<time>2016-10-07T09:48:14Z</time></trkpt>
<trkpt lat="28.258476" lon="99.242432">
<time>2016-10-07T09:48:15Z</time></trkpt>
<trkpt lat="28.258496" lon="99.242362">
<time>2016-10-07T09:48:16Z</time></trkpt>
<trkpt lat="28.258506" lon="99.242212">
<time>2016-10-07T09:48:17Z</time></trkpt>
<trkpt lat="28.258526" lon="99.241932">
<time>2016-10-07T09:48:18Z</time></trkpt>
<trkpt lat="28.258546" lon="99.241733">
<time>2016-10-07T09:48:19Z</time></trkpt>
<trkpt lat="28.258556" lon="99.241593">
<time>2016-10-07T09:48:20Z</time></trkpt>
<trkpt lat="28.258565" lon="99.241423">
<time>2016-10-07T09:48:21Z</time></trkpt>
<trkpt lat="28.258575" lon="99.241233">
<time>2016-10-07T09:48:22Z</time></trkpt>
<trkpt lat="28.258595" lon="99.241043">
<time>2016-10-07T09:48:23Z</time></trkpt>
<trkpt lat="28.258625" lon="99.240853">
<time>2016-10-07T09:48:24Z</time></trkpt>
<trkpt lat="28.258655" lon="99.240733">
<time>2016-10-07T09:48:25Z</time></trkpt>
<trkpt lat="28.258695" lon="99.240603">
<time>2016-10-07T09:48:26Z</time></trkpt>
<trkpt lat="28.258765" lon="99.240473">
<time>2016-10-07T09:48:27Z</time></trkpt>
<trkpt lat="28.258845" lon="99.240353">
<time>2016-10-07T09:48:28Z</time></trkpt>
<trkpt lat="28.258915" lon="99.240283">
<time>2016-10-07T09:48:29Z</time></trkpt>
<trkpt lat="28.258975" lon="99.240223">
<time>2016-10-07T09:48:30Z</time></trkpt>
<trkpt lat="28.259065" lon="99.240143">
<time>2016-10-07T09:48:31Z</time></trkpt>
<trkpt lat="28.259155" lon="99.240083">
<time>2016-10-07T09:48:32Z</time></trkpt>
<trkpt lat="28.259455" lon="99.239903">
<time>2016-10-07T09:48:33Z</time></trkpt>
<trkpt lat="28.260085" lon="99.239513">
<time>2016-10-07T09:48:34Z</time></trkpt>
<trkpt lat="28.260365" lon="99.239353">
<time>2016-10-07T09:48:35Z</time></trkpt>
<trkpt lat="28.260475" lon="99.239274">
<time>2016-10-07T09:48:36Z</time></trkpt>
<trkpt lat="28.260655" lon="99.239164">
<time>2016-10-07T09:48:37Z</time></trkpt>
<trkpt lat="28.260735" lon="99.239084">
<time>2016-10-07T09:48:38Z</time></trkpt>
<trkpt lat="28.260825" lon="99.238994">
<time>2016-10-07T09:48:39Z</time></trkpt>
<trkpt lat="28.260895" lon="99.238874">
<time>2016-10-07T09:48:40Z</time></trkpt>
<trkpt lat="28.260955" lon="99.238774">
<time>2016-10-07T09:48:41Z</time></trkpt>
<trkpt lat="28.260995" lon="99.238654">
<time>2016-10-07T09:48:42Z</time></trkpt>
<trkpt lat="28.261024" lon="99.238494">
<time>2016-10-07T09:48:43Z</time></trkpt>
<trkpt lat="28.261044" lon="99.238314">
<time>2016-10-07T09:48:44Z</time></trkpt>
<trkpt lat="28.261034" lon="99.238144">
<time>2016-10-07T09:48:45Z</time></trkpt>
<trkpt lat="28.261004" lon="99.237914">
<time>2016-10-07T09:48:46Z</time></trkpt>
<trkpt lat="28.260974" lon="99.237694">
<time>2016-10-07T09:48:47Z</time></trkpt>
<trkpt lat="28.260914" lon="99.237264">
<time>2016-10-07T09:48:48Z</time></trkpt>
<trkpt lat="28.260844" lon="99.236944">
<time>2016-10-07T09:48:49Z</time></trkpt>
<trkpt lat="28.260734" lon="99.236614">
<time>2016-10-07T09:48:50Z</time></trkpt>
<trkpt lat="28.260554" lon="99.236274">
<time>2016-10-07T09:48:51Z</time></trkpt>
<trkpt lat="28.260463" lon="99.236134">
<time>2016-10-07T09:48:52Z</time></trkpt>
<trkpt lat="28.260373" lon="99.236034">
<time>2016-10-07T09:48:53Z</time></trkpt>
<trkpt lat="28.260283" lon="99.235934">
<time>2016-10-07T09:48:54Z</time></trkpt>
<trkpt lat="28.260163" lon="99.235805">
<time>2016-10-07T09:48:55Z</time></trkpt>
<trkpt lat="28.260023" lon="99.235695">
<time>2016-10-07T09:48:56Z</time></trkpt>
<trkpt lat="28.259813" lon="99.235545">
<time>2016-10-07T09:48:57Z</time></trkpt>
<trkpt lat="28.259663" lon="99.235445">
<time>2016-10-07T09:48:58Z</time></trkpt>
<trkpt lat="28.259363" lon="99.235255">
<time>2016-10-07T09:48:59Z</time></trkpt>
<trkpt lat="28.258833" lon="99.234905">
<time>2016-10-07T09:49:00Z</time></trkpt>
<trkpt lat="28.258753" lon="99.234835">
<time>2016-10-07T09:49:01Z</time></trkpt>
<trkpt lat="28.258673" lon="99.234755">
<time>2016-10-07T09:49:02Z</time></trkpt>
<trkpt lat="28.258633" lon="99.234705">
<time>2016-10-07T09:49:03Z</time></trkpt>
<trkpt lat="28.258583" lon="99.234615">
<time>2016-10-07T09:49:04Z</time></trkpt>
<trkpt lat="28.258553" lon="99.234555">
<time>2016-10-07T09:49:05Z</time></trkpt>
<trkpt lat="28.258523" lon="99.234475">
<time>2016-10-07T09:49:06Z</time></trkpt>
<trkpt lat="28.258513" lon="99.234415">
<time>2016-10-07T09:49:07Z</time></trkpt>
<trkpt lat="28.258503" lon="99.234335">
<time>2016-10-07T09:49:08Z</time></trkpt>
<trkpt lat="28.258503" lon="99.234275">
<time>2016-10-07T09:49:09Z</time></trkpt>
<trkpt lat="28.258503" lon="99.234215">
<time>2016-10-07T09:49:10Z</time></trkpt>
<trkpt lat="28.258512" lon="99.234135">
<time>2016-10-07T09:49:11Z</time></trkpt>
<trkpt lat="28.258542" lon="99.234055">
<time>2016-10-07T09:49:12Z</time></trkpt>
<trkpt lat="28.258572" lon="99.233975">
<time>2016-10-07T09:49:13Z</time></trkpt>
<trkpt lat="28.258612" lon="99.233905">
<time>2016-10-07T09:49:14Z</time></trkpt>
<trkpt lat="28.258712" lon="99.233785">
<time>2016-10-07T09:49:15Z</time></trkpt>
<trkpt lat="28.258802" lon="99.233715">
<time>2016-10-07T09:49:16Z</time></trkpt>
<trkpt lat="28.258862" lon="99.233685">
<time>2016-10-07T09:49:17Z</time></trkpt>
<trkpt lat="28.258942" lon="99.233665">
<time>2016-10-07T09:49:18Z</time></trkpt>
<trkpt lat="28.259062" lon="99.233645">
<time>2016-10-07T09:49:19Z</time></trkpt>
<trkpt lat="28.259312" lon="99.233645">
<time>2016-10-07T09:49:20Z</time></trkpt>
<trkpt lat="28.259952" lon="99.233665">
<time>2016-10-07T09:49:21Z</time></trkpt>
<trkpt lat="28.260052" lon="99.233665">
<time>2016-10-07T09:49:22Z</time></trkpt>
<trkpt lat="28.260202" lon="99.233665">
<time>2016-10-07T09:49:23Z</time></trkpt>
<trkpt lat="28.260342" lon="99.233665">
<time>2016-10-07T09:49:24Z</time></trkpt>
<trkpt lat="28.260422" lon="99.233655">
<time>2016-10-07T09:49:25Z</time></trkpt>
<trkpt lat="28.260522" lon="99.233635">
<time>2016-10-07T09:49:26Z</time></trkpt>
<trkpt lat="28.260712" lon="99.233585">
<time>2016-10-07T09:49:27Z</time></trkpt>
<trkpt lat="28.261212" lon="99.233405">
<time>2016-10-07T09:49:28Z</time></trkpt>
<trkpt lat="28.261412" lon="99.233335">
<time>2016-10-07T09:49:29Z</time></trkpt>
<trkpt lat="28.261592" lon="99.233275">
<time>2016-10-07T09:49:30Z</time></trkpt>
<trkpt lat="28.261692" lon="99.233235">
<time>2016-10-07T09:49:31Z</time></trkpt>
<trkpt lat="28.261752" lon="99.233215">
<time>2016-10-07T09:49:32Z</time></trkpt>
<trkpt lat="28.261792" lon="99.233175">
<time>2016-10-07T09:49:33Z</time></trkpt>
<trkpt lat="28.261892" lon="99.233075">
<time>2016-10-07T09:49:34Z</time></trkpt>
<trkpt lat="28.261972" lon="99.232975">
<time>2016-10-07T09:49:35Z</time></trkpt>
<trkpt lat="28.262042" lon="99.232885">
<time>2016-10-07T09:49:36Z</time></trkpt>
<trkpt lat="28.262102" lon="99.232785">
<time>2016-10-07T09:49:37Z</time></trkpt>
<trkpt lat="28.262152" lon="99.232685">
<time>2016-10-07T09:49:38Z</time></trkpt>
<trkpt lat="28.262201" lon="99.232575">
<time>2016-10-07T09:49:39Z</time></trkpt>
<trkpt lat="28.262401" lon="99.232125">
<time>2016-10-07T09:49:40Z</time></trkpt>
<trkpt lat="28.262491" lon="99.231885">
<time>2016-10-07T09:49:41Z</time></trkpt>
<trkpt lat="28.262571" lon="99.231725">
<time>2016-10-07T09:49:42Z</time></trkpt>
<trkpt lat="28.262641" lon="99.231525">
<time>2016-10-07T09:49:43Z</time></trkpt>
<trkpt lat="28.262671" lon="99.231435">
<time>2016-10-07T09:49:44Z</time></trkpt>
<trkpt lat="28.262701" lon="99.231305">
<time>2016-10-07T09:49:45Z</time></trkpt>
<trkpt lat="28.262711" lon="99.231195">
<time>2016-10-07T09:49:46Z</time></trkpt>
<trkpt lat="28.262721" lon="99.231075">
<time>2016-10-07T09:49:47Z</time></trkpt>
<trkpt lat="28.2627" lon="99.230815">
<time>2016-10-07T09:49:48Z</time></trkpt>
<trkpt lat="28.26269" lon="99.230645">
<time>2016-10-07T09:49:49Z</time></trkpt>
<trkpt lat="28.26268" lon="99.230545">
<time>2016-10-07T09:49:50Z</time></trkpt>
<trkpt lat="28.2627" lon="99.230435">
<time>2016-10-07T09:49:51Z</time></trkpt>
<trkpt lat="28.26273" lon="99.230325">
<time>2016-10-07T09:49:52Z</time></trkpt>
<trkpt lat="28.26277" lon="99.230255">
<time>2016-10-07T09:49:53Z</time></trkpt>
<trkpt lat="28.26283" lon="99.230165">
<time>2016-10-07T09:49:54Z</time></trkpt>
<trkpt lat="28.26291" lon="99.230085">
<time>2016-10-07T09:49:55Z</time></trkpt>
<trkpt lat="28.26298" lon="99.230035">
<time>2016-10-07T09:49:56Z</time></trkpt>
<trkpt lat="28.26304" lon="99.230005">
<time>2016-10-07T09:49:57Z</time></trkpt>
<trkpt lat="28.26312" lon="99.229975">
<time>2016-10-07T09:49:58Z</time></trkpt>
<trkpt lat="28.26325" lon="99.229935">
<time>2016-10-07T09:49:59Z</time></trkpt>
<trkpt lat="28.26341" lon="99.229905">
<time>2016-10-07T09:50:00Z</time></trkpt>
<trkpt lat="28.26354" lon="99.229875">
<time>2016-10-07T09:50:01Z</time></trkpt>
<trkpt lat="28.26361" lon="99.229845">
<time>2016-10-07T09:50:02Z</time></trkpt>
<trkpt lat="28.26365" lon="99.229825">
<time>2016-10-07T09:50:03Z</time></trkpt>
<trkpt lat="28.26371" lon="99.229785">
<time>2016-10-07T09:50:04Z</time></trkpt>
<trkpt lat="28.26378" lon="99.229725">
<time>2016-10-07T09:50:05Z</time></trkpt>
<trkpt lat="28.26384" lon="99.229645">
<time>2016-10-07T09:50:06Z</time></trkpt>
<trkpt lat="28.263899" lon="99.229545">
<time>2016-10-07T09:50:07Z</time></trkpt>
<trkpt lat="28.263929" lon="99.229485">
<time>2016-10-07T09:50:08Z</time></trkpt>
<trkpt lat="28.263959" lon="99.229395">
<time>2016-10-07T09:50:09Z</time></trkpt>
<trkpt lat="28.263979" lon="99.229315">
<time>2016-10-07T09:50:10Z</time></trkpt>
<trkpt lat="28.263999" lon="99.229235">
<time>2016-10-07T09:50:11Z</time></trkpt>
<trkpt lat="28.264019" lon="99.229125">
<time>2016-10-07T09:50:12Z</time></trkpt>
<trkpt lat="28.264029" lon="99.229015">
<time>2016-10-07T09:50:13Z</time></trkpt>
<trkpt lat="28.264138" lon="99.228175">
<time>2016-10-07T09:50:14Z</time></trkpt>
<trkpt lat="28.264148" lon="99.228065">
<time>2016-10-07T09:50:15Z</time></trkpt>
<trkpt lat="28.264158" lon="99.227915">
<time>2016-10-07T09:50:16Z</time></trkpt>
<trkpt lat="28.264158" lon="99.227835">
<time>2016-10-07T09:50:17Z</time></trkpt>
<trkpt lat="28.264148" lon="99.227715">
<time>2016-10-07T09:50:18Z</time></trkpt>
<trkpt lat="28.264128" lon="99.227595">
<time>2016-10-07T09:50:19Z</time></trkpt>
<trkpt lat="28.264078" lon="99.227405">
<time>2016-10-07T09:50:20Z</time></trkpt>
<trkpt lat="28.264018" lon="99.227245">
<time>2016-10-07T09:50:21Z</time></trkpt>
<trkpt lat="28.263807" lon="99.226755">
<time>2016-10-07T09:50:22Z</time></trkpt>
<trkpt lat="28.263597" lon="99.226235">
<time>2016-10-07T09:50:23Z</time></trkpt>
<trkpt lat="28.263467" lon="99.225905">
<time>2016-10-07T09:50:24Z</time></trkpt>
<trkpt lat="28.263447" lon="99.225835">
<time>2016-10-07T09:50:25Z</time></trkpt>
<trkpt lat="28.263427" lon="99.225755">
<time>2016-10-07T09:50:26Z</time></trkpt>
<trkpt lat="28.263416" lon="99.225675">
<time>2016-10-07T09:50:27Z</time></trkpt>
<trkpt lat="28.263416" lon="99.225585">
<time>2016-10-07T09:50:28Z</time></trkpt>
<trkpt lat="28.263416" lon="99.225514">
<time>2016-10-07T09:50:29Z</time></trkpt>
<trkpt lat="28.263426" lon="99.225434">
<time>2016-10-07T09:50:30Z</time></trkpt>
<trkpt lat="28.263466" lon="99.225294">
<time>2016-10-07T09:50:31Z</time></trkpt>
<trkpt lat="28.263506" lon="99.225224">
<time>2016-10-07T09:50:32Z</time></trkpt>
<trkpt lat="28.263556" lon="99.225154">
<time>2016-10-07T09:50:33Z</time></trkpt>
<trkpt lat="28.263656" lon="99.225054">
<time>2016-10-07T09:50:34Z</time></trkpt>
<trkpt lat="28.263796" lon="99.224964">
<time>2016-10-07T09:50:35Z</time></trkpt>
<trkpt lat="28.263976" lon="99.224874">
<time>2016-10-07T09:50:36Z</time></trkpt>
<trkpt lat="28.264486" lon="99.224624">
<time>2016-10-07T09:50:37Z</time></trkpt>
<trkpt lat="28.264615" lon="99.224544">
<time>2016-10-07T09:50:38Z</time></trkpt>
<trkpt lat="28.264685" lon="99.224484">
<time>2016-10-07T09:50:39Z</time></trkpt>
<trkpt lat="28.264745" lon="99.224414">
<time>2016-10-07T09:50:40Z</time></trkpt>
<trkpt lat="28.264795" lon="99.224354">
<time>2016-10-07T09:50:41Z</time></trkpt>
<trkpt lat="28.264835" lon="99.224254">
<time>2016-10-07T09:50:42Z</time></trkpt>
<trkpt lat="28.264885" lon="99.224114">
<time>2016-10-07T09:50:43Z</time></trkpt>
<trkpt lat="28.264915" lon="99.223964">
<time>2016-10-07T09:50:44Z</time></trkpt>
<trkpt lat="28.264965" lon="99.223534">
<time>2016-10-07T09:50:45Z</time></trkpt>
<trkpt lat="28.264984" lon="99.223204">
<time>2016-10-07T09:50:46Z</time></trkpt>
<trkpt lat="28.264994" lon="99.222694">
<time>2016-10-07T09:50:47Z</time></trkpt>
<trkpt lat="28.264993" lon="99.222384">
<time>2016-10-07T09:50:48Z</time></trkpt>
<trkpt lat="28.264963" lon="99.222194">
<time>2016-10-07T09:50:49Z</time></trkpt>
<trkpt lat="28.264893" lon="99.221854">
<time>2016-10-07T09:50:50Z</time></trkpt>
<trkpt lat="28.264843" lon="99.221603">
<time>2016-10-07T09:50:51Z</time></trkpt>
<trkpt lat="28.264843" lon="99.221503">
<time>2016-10-07T09:50:52Z</time></trkpt>
<trkpt lat="28.264843" lon="99.221423">
<time>2016-10-07T09:50:53Z</time></trkpt>
<trkpt lat="28.264852" lon="99.221363">
<time>2016-10-07T09:50:54Z</time></trkpt>
<trkpt lat="28.264872" lon="99.221293">
<time>2016-10-07T09:50:55Z</time></trkpt>
<trkpt lat="28.264902" lon="99.221213">
<time>2016-10-07T09:50:56Z</time></trkpt>
<trkpt lat="28.264942" lon="99.221143">
<time>2016-10-07T09:50:57Z</time></trkpt>
<trkpt lat="28.264972" lon="99.221093">
<time>2016-10-07T09:50:58Z</time></trkpt>
<trkpt lat="28.265022" lon="99.221033">
<time>2016-10-07T09:50:59Z</time></trkpt>
<trkpt lat="28.265072" lon="99.220983">
<time>2016-10-07T09:51:00Z</time></trkpt>
<trkpt lat="28.265122" lon="99.220933">
<time>2016-10-07T09:51:01Z</time></trkpt>
<trkpt lat="28.265292" lon="99.220803">
<time>2016-10-07T09:51:02Z</time></trkpt>
<trkpt lat="28.265512" lon="99.220673">
<time>2016-10-07T09:51:03Z</time></trkpt>
<trkpt lat="28.265702" lon="99.220533">
<time>2016-10-07T09:51:04Z</time></trkpt>
<trkpt lat="28.265832" lon="99.220433">
<time>2016-10-07T09:51:05Z</time></trkpt>
<trkpt lat="28.265901" lon="99.220373">
<time>2016-10-07T09:51:06Z</time></trkpt>
<trkpt lat="28.266001" lon="99.220253">
<time>2016-10-07T09:51:07Z</time></trkpt>
<trkpt lat="28.266041" lon="99.220193">
<time>2016-10-07T09:51:08Z</time></trkpt>
<trkpt lat="28.266111" lon="99.220073">
<time>2016-10-07T09:51:09Z</time></trkpt>
<trkpt lat="28.266181" lon="99.219903">
<time>2016-10-07T09:51:10Z</time></trkpt>
<trkpt lat="28.266221" lon="99.219783">
<time>2016-10-07T09:51:11Z</time></trkpt>
<trkpt lat="28.266251" lon="99.219673">
<time>2016-10-07T09:51:12Z</time></trkpt>
<trkpt lat="28.26637" lon="99.219172">
<time>2016-10-07T09:51:13Z</time></trkpt>
<trkpt lat="28.26644" lon="99.218922">
<time>2016-10-07T09:51:14Z</time></trkpt>
<trkpt lat="28.26651" lon="99.218752">
<time>2016-10-07T09:51:15Z</time></trkpt>
<trkpt lat="28.26659" lon="99.218612">
<time>2016-10-07T09:51:16Z</time></trkpt>
<trkpt lat="28.266689" lon="99.218482">
<time>2016-10-07T09:51:17Z</time></trkpt>
<trkpt lat="28.266949" lon="99.218192">
<time>2016-10-07T09:51:18Z</time></trkpt>
<trkpt lat="28.267039" lon="99.218072">
<time>2016-10-07T09:51:19Z</time></trkpt>
<trkpt lat="28.267099" lon="99.217962">
<time>2016-10-07T09:51:20Z</time></trkpt>
<trkpt lat="28.267149" lon="99.217842">
<time>2016-10-07T09:51:21Z</time></trkpt>
<trkpt lat="28.267199" lon="99.217712">
<time>2016-10-07T09:51:22Z</time></trkpt>
<trkpt lat="28.267258" lon="99.217492">
<time>2016-10-07T09:51:23Z</time></trkpt>
<trkpt lat="28.267328" lon="99.217312">
<time>2016-10-07T09:51:24Z</time></trkpt>
<trkpt lat="28.267418" lon="99.217132">
<time>2016-10-07T09:51:25Z</time></trkpt>
<trkpt lat="28.267498" lon="99.217011">
<time>2016-10-07T09:51:26Z</time></trkpt>
<trkpt lat="28.267578" lon="99.216931">
<time>2016-10-07T09:51:27Z</time></trkpt>
<trkpt lat="28.267668" lon="99.216851">
<time>2016-10-07T09:51:28Z</time></trkpt>
<trkpt lat="28.267857" lon="99.216701">
<time>2016-10-07T09:51:29Z</time></trkpt>
<trkpt lat="28.268007" lon="99.216581">
<time>2016-10-07T09:51:30Z</time></trkpt>
<trkpt lat="28.268147" lon="99.216431">
<time>2016-10-07T09:51:31Z</time></trkpt>
<trkpt lat="28.268277" lon="99.216261">
<time>2016-10-07T09:51:32Z</time></trkpt>
<trkpt lat="28.268387" lon="99.216101">
<time>2016-10-07T09:51:33Z</time></trkpt>
<trkpt lat="28.268457" lon="99.215951">
<time>2016-10-07T09:51:34Z</time></trkpt>
<trkpt lat="28.268526" lon="99.215801">
<time>2016-10-07T09:51:35Z</time></trkpt>
<trkpt lat="28.268566" lon="99.215701">
<time>2016-10-07T09:51:36Z</time></trkpt>
<trkpt lat="28.268606" lon="99.215561">
<time>2016-10-07T09:51:37Z</time></trkpt>
<trkpt lat="28.268626" lon="99.215411">
<time>2016-10-07T09:51:38Z</time></trkpt>
<trkpt lat="28.268646" lon="99.215301">
<time>2016-10-07T09:51:39Z</time></trkpt>
<trkpt lat="28.268646" lon="99.21518">
<time>2016-10-07T09:51:40Z</time></trkpt>
<trkpt lat="28.268645" lon="99.21505">
<time>2016-10-07T09:51:41Z</time></trkpt>
<trkpt lat="28.268625" lon="99.21481">
<time>2016-10-07T09:51:42Z</time></trkpt>
<trkpt lat="28.268625" lon="99.2146">
<time>2016-10-07T09:51:43Z</time></trkpt>
<trkpt lat="28.268635" lon="99.2145">
<time>2016-10-07T09:51:44Z</time></trkpt>
<trkpt lat="28.268655" lon="99.21441">
<time>2016-10-07T09:51:45Z</time></trkpt>
<trkpt lat="28.268685" lon="99.21432">
<time>2016-10-07T09:51:46Z</time></trkpt>
<trkpt lat="28.268705" lon="99.21424">
<time>2016-10-07T09:51:47Z</time></trkpt>
<trkpt lat="28.268744" lon="99.21417">
<time>2016-10-07T09:51:48Z</time></trkpt>
<trkpt lat="28.268784" lon="99.21408">
<time>2016-10-07T09:51:49Z</time></trkpt>
<trkpt lat="28.268874" lon="99.21392">
<time>2016-10-07T09:51:50Z</time></trkpt>
<trkpt lat="28.268984" lon="99.21372">
<time>2016-10-07T09:51:51Z</time></trkpt>
<trkpt lat="28.269034" lon="99.21359">
<time>2016-10-07T09:51:52Z</time></trkpt>
<trkpt lat="28.269064" lon="99.213469">
<time>2016-10-07T09:51:53Z</time></trkpt>
<trkpt lat="28.269093" lon="99.213339">
<time>2016-10-07T09:51:54Z</time></trkpt>
<trkpt lat="28.269093" lon="99.213239">
<time>2016-10-07T09:51:55Z</time></trkpt>
<trkpt lat="28.269083" lon="99.213129">
<time>2016-10-07T09:51:56Z</time></trkpt>
<trkpt lat="28.269053" lon="99.213019">
<time>2016-10-07T09:51:57Z</time></trkpt>
<trkpt lat="28.269013" lon="99.212919">
<time>2016-10-07T09:51:58Z</time></trkpt>
<trkpt lat="28.268983" lon="99.212849">
<time>2016-10-07T09:51:59Z</time></trkpt>
<trkpt lat="28.268903" lon="99.212729">
<time>2016-10-07T09:52:00Z</time></trkpt>
<trkpt lat="28.268843" lon="99.212649">
<time>2016-10-07T09:52:01Z</time></trkpt>
<trkpt lat="28.268742" lon="99.212559">
<time>2016-10-07T09:52:02Z</time></trkpt>
<trkpt lat="28.268562" lon="99.212429">
<time>2016-10-07T09:52:03Z</time></trkpt>
<trkpt lat="28.268362" lon="99.212309">
<time>2016-10-07T09:52:04Z</time></trkpt>
<trkpt lat="28.267842" lon="99.211979">
<time>2016-10-07T09:52:05Z</time></trkpt>
<trkpt lat="28.267612" lon="99.211838">
<time>2016-10-07T09:52:06Z</time></trkpt>
<trkpt lat="28.267391" lon="99.211698">
<time>2016-10-07T09:52:07Z</time></trkpt>
<trkpt lat="28.267181" lon="99.211578">
<time>2016-10-07T09:52:08Z</time></trkpt>
<trkpt lat="28.267011" lon="99.211508">
<time>2016-10-07T09:52:09Z</time></trkpt>
<trkpt lat="28.266891" lon="99.211458">
<time>2016-10-07T09:52:10Z</time></trkpt>
<trkpt lat="28.266681" lon="99.211418">
<time>2016-10-07T09:52:11Z</time></trkpt>
<trkpt lat="28.266391" lon="99.211348">
<time>2016-10-07T09:52:12Z</time></trkpt>
<trkpt lat="28.266121" lon="99.211288">
<time>2016-10-07T09:52:13Z</time></trkpt>
<trkpt lat="28.265601" lon="99.211198">
<time>2016-10-07T09:52:14Z</time></trkpt>
<trkpt lat="28.265501" lon="99.211178">
<time>2016-10-07T09:52:15Z</time></trkpt>
<trkpt lat="28.265411" lon="99.211148">
<time>2016-10-07T09:52:16Z</time></trkpt>
<trkpt lat="28.265321" lon="99.211108">
<time>2016-10-07T09:52:17Z</time></trkpt>
<trkpt lat="28.265221" lon="99.211058">
<time>2016-10-07T09:52:18Z</time></trkpt>
<trkpt lat="28.265181" lon="99.211018">
<time>2016-10-07T09:52:19Z</time></trkpt>
<trkpt lat="28.265131" lon="99.210978">
<time>2016-10-07T09:52:20Z</time></trkpt>
<trkpt lat="28.26508" lon="99.210918">
<time>2016-10-07T09:52:21Z</time></trkpt>
<trkpt lat="28.26503" lon="99.210828">
<time>2016-10-07T09:52:22Z</time></trkpt>
<trkpt lat="28.265" lon="99.210758">
<time>2016-10-07T09:52:23Z</time></trkpt>
<trkpt lat="28.26498" lon="99.210708">
<time>2016-10-07T09:52:24Z</time></trkpt>
<trkpt lat="28.26497" lon="99.210658">
<time>2016-10-07T09:52:25Z</time></trkpt>
<trkpt lat="28.26496" lon="99.210598">
<time>2016-10-07T09:52:26Z</time></trkpt>
<trkpt lat="28.26495" lon="99.210548">
<time>2016-10-07T09:52:27Z</time></trkpt>
<trkpt lat="28.26495" lon="99.210488">
<time>2016-10-07T09:52:28Z</time></trkpt>
<trkpt lat="28.26495" lon="99.210428">
<time>2016-10-07T09:52:29Z</time></trkpt>
<trkpt lat="28.26496" lon="99.210358">
<time>2016-10-07T09:52:30Z</time></trkpt>
<trkpt lat="28.26497" lon="99.210317">
<time>2016-10-07T09:52:31Z</time></trkpt>
<trkpt lat="28.26499" lon="99.210257">
<time>2016-10-07T09:52:32Z</time></trkpt>
<trkpt lat="28.265" lon="99.210227">
<time>2016-10-07T09:52:33Z</time></trkpt>
<trkpt lat="28.265019" lon="99.210177">
<time>2016-10-07T09:52:34Z</time></trkpt>
<trkpt lat="28.265059" lon="99.210117">
<time>2016-10-07T09:52:35Z</time></trkpt>
<trkpt lat="28.265099" lon="99.210047">
<time>2016-10-07T09:52:36Z</time></trkpt>
<trkpt lat="28.265169" lon="99.209967">
<time>2016-10-07T09:52:37Z</time></trkpt>
<trkpt lat="28.265229" lon="99.209927">
<time>2016-10-07T09:52:38Z</time></trkpt>
<trkpt lat="28.265299" lon="99.209887">
<time>2016-10-07T09:52:39Z</time></trkpt>
<trkpt lat="28.265449" lon="99.209797">
<time>2016-10-07T09:52:40Z</time></trkpt>
<trkpt lat="28.265589" lon="99.209737">
<time>2016-10-07T09:52:41Z</time></trkpt>
<trkpt lat="28.265789" lon="99.209647">
<time>2016-10-07T09:52:42Z</time></trkpt>
<trkpt lat="28.265989" lon="99.209567">
<time>2016-10-07T09:52:43Z</time></trkpt>
<trkpt lat="28.266169" lon="99.209487">
<time>2016-10-07T09:52:44Z</time></trkpt>
<trkpt lat="28.266268" lon="99.209447">
<time>2016-10-07T09:52:45Z</time></trkpt>
<trkpt lat="28.266378" lon="99.209377">
<time>2016-10-07T09:52:46Z</time></trkpt>
<trkpt lat="28.266508" lon="99.209257">
<time>2016-10-07T09:52:47Z</time></trkpt>
<trkpt lat="28.266598" lon="99.209137">
<time>2016-10-07T09:52:48Z</time></trkpt>
<trkpt lat="28.266678" lon="99.208946">
<time>2016-10-07T09:52:49Z</time></trkpt>
<trkpt lat="28.266757" lon="99.208736">
<time>2016-10-07T09:52:50Z</time></trkpt>
<trkpt lat="28.266837" lon="99.208506">
<time>2016-10-07T09:52:51Z</time></trkpt>
<trkpt lat="28.266877" lon="99.208396">
<time>2016-10-07T09:52:52Z</time></trkpt>
<trkpt lat="28.266927" lon="99.208306">
<time>2016-10-07T09:52:53Z</time></trkpt>
<trkpt lat="28.266997" lon="99.208216">
<time>2016-10-07T09:52:54Z</time></trkpt>
<trkpt lat="28.267087" lon="99.208126">
<time>2016-10-07T09:52:55Z</time></trkpt>
<trkpt lat="28.267177" lon="99.208076">
<time>2016-10-07T09:52:56Z</time></trkpt>
<trkpt lat="28.267257" lon="99.208036">
<time>2016-10-07T09:52:57Z</time></trkpt>
<trkpt lat="28.267356" lon="99.207986">
<time>2016-10-07T09:52:58Z</time></trkpt>
<trkpt lat="28.267856" lon="99.207816">
<time>2016-10-07T09:52:59Z</time></trkpt>
<trkpt lat="28.267946" lon="99.207786">
<time>2016-10-07T09:53:00Z</time></trkpt>
<trkpt lat="28.268126" lon="99.207715">
<time>2016-10-07T09:53:01Z</time></trkpt>
<trkpt lat="28.268296" lon="99.207675">
<time>2016-10-07T09:53:02Z</time></trkpt>
<trkpt lat="28.268496" lon="99.207625">
<time>2016-10-07T09:53:03Z</time></trkpt>
<trkpt lat="28.268706" lon="99.207595">
<time>2016-10-07T09:53:04Z</time></trkpt>
<trkpt lat="28.268946" lon="99.207585">
<time>2016-10-07T09:53:05Z</time></trkpt>
<trkpt lat="28.269046" lon="99.207565">
<time>2016-10-07T09:53:06Z</time></trkpt>
<trkpt lat="28.269096" lon="99.207555">
<time>2016-10-07T09:53:07Z</time></trkpt>
<trkpt lat="28.269156" lon="99.207535">
<time>2016-10-07T09:53:08Z</time></trkpt>
<trkpt lat="28.269186" lon="99.207525">
<time>2016-10-07T09:53:09Z</time></trkpt>
<trkpt lat="28.269226" lon="99.207515">
<time>2016-10-07T09:53:10Z</time></trkpt>
<trkpt lat="28.269316" lon="99.207485">
<time>2016-10-07T09:53:11Z</time></trkpt>
<trkpt lat="28.269446" lon="99.207415">
<time>2016-10-07T09:53:12Z</time></trkpt>
<trkpt lat="28.269545" lon="99.207335">
<time>2016-10-07T09:53:13Z</time></trkpt>
<trkpt lat="28.269595" lon="99.207275">
<time>2016-10-07T09:53:14Z</time></trkpt>
<trkpt lat="28.269645" lon="99.207185">
<time>2016-10-07T09:53:15Z</time></trkpt>
<trkpt lat="28.269675" lon="99.207125">
<time>2016-10-07T09:53:16Z</time></trkpt>
<trkpt lat="28.269705" lon="99.207045">
<time>2016-10-07T09:53:17Z</time></trkpt>
<trkpt lat="28.269715" lon="99.206985">
<time>2016-10-07T09:53:18Z</time></trkpt>
<trkpt lat="28.269725" lon="99.206905">
<time>2016-10-07T09:53:19Z</time></trkpt>
<trkpt lat="28.269715" lon="99.206775">
<time>2016-10-07T09:53:20Z</time></trkpt>
<trkpt lat="28.269684" lon="99.206595">
<time>2016-10-07T09:53:21Z</time></trkpt>
<trkpt lat="28.269634" lon="99.206394">
<time>2016-10-07T09:53:22Z</time></trkpt>
<trkpt lat="28.269594" lon="99.206234">
<time>2016-10-07T09:53:23Z</time></trkpt>
<trkpt lat="28.269574" lon="99.206134">
<time>2016-10-07T09:53:24Z</time></trkpt>
<trkpt lat="28.269564" lon="99.205974">
<time>2016-10-07T09:53:25Z</time></trkpt>
<trkpt lat="28.269563" lon="99.205714">
<time>2016-10-07T09:53:26Z</time></trkpt>
<trkpt lat="28.269553" lon="99.205594">
<time>2016-10-07T09:53:27Z</time></trkpt>
<trkpt lat="28.269543" lon="99.205464">
<time>2016-10-07T09:53:28Z</time></trkpt>
<trkpt lat="28.269513" lon="99.205293">
<time>2016-10-07T09:53:29Z</time></trkpt>
<trkpt lat="28.269492" lon="99.205223">
<time>2016-10-07T09:53:30Z</time></trkpt>
<trkpt lat="28.269482" lon="99.205183">
<time>2016-10-07T09:53:31Z</time></trkpt>
<trkpt lat="28.269442" lon="99.205123">
<time>2016-10-07T09:53:32Z</time></trkpt>
<trkpt lat="28.269412" lon="99.205073">
<time>2016-10-07T09:53:33Z</time></trkpt>
<trkpt lat="28.269382" lon="99.205043">
<time>2016-10-07T09:53:34Z</time></trkpt>
<trkpt lat="28.269362" lon="99.205013">
<time>2016-10-07T09:53:35Z</time></trkpt>
<trkpt lat="28.269332" lon="99.204983">
<time>2016-10-07T09:53:36Z</time></trkpt>
<trkpt lat="28.269272" lon="99.204933">
<time>2016-10-07T09:53:37Z</time></trkpt>
<trkpt lat="28.269242" lon="99.204913">
<time>2016-10-07T09:53:38Z</time></trkpt>
<trkpt lat="28.269202" lon="99.204893">
<time>2016-10-07T09:53:39Z</time></trkpt>
<trkpt lat="28.269082" lon="99.204843">
<time>2016-10-07T09:53:40Z</time></trkpt>
<trkpt lat="28.269012" lon="99.204783">
<time>2016-10-07T09:53:41Z</time></trkpt>
<trkpt lat="28.268932" lon="99.204693">
<time>2016-10-07T09:53:42Z</time></trkpt>
<trkpt lat="28.268872" lon="99.204623">
<time>2016-10-07T09:53:43Z</time></trkpt>
<trkpt lat="28.268842" lon="99.204563">
<time>2016-10-07T09:53:44Z</time></trkpt>
<trkpt lat="28.268821" lon="99.204503">
<time>2016-10-07T09:53:45Z</time></trkpt>
<trkpt lat="28.268791" lon="99.204433">
<time>2016-10-07T09:53:46Z</time></trkpt>
<trkpt lat="28.268771" lon="99.204323">
<time>2016-10-07T09:53:47Z</time></trkpt>
<trkpt lat="28.268731" lon="99.204102">
<time>2016-10-07T09:53:48Z</time></trkpt>
<trkpt lat="28.26867" lon="99.203802">
<time>2016-10-07T09:53:49Z</time></trkpt>
<trkpt lat="28.26863" lon="99.203712">
<time>2016-10-07T09:53:50Z</time></trkpt>
<trkpt lat="28.26858" lon="99.203572">
<time>2016-10-07T09:53:51Z</time></trkpt>
<trkpt lat="28.26847" lon="99.203402">
<time>2016-10-07T09:53:52Z</time></trkpt>
<trkpt lat="28.26834" lon="99.203232">
<time>2016-10-07T09:53:53Z</time></trkpt>
<trkpt lat="28.268189" lon="99.203052">
<time>2016-10-07T09:53:54Z</time></trkpt>
<trkpt lat="28.268039" lon="99.202861">
<time>2016-10-07T09:53:55Z</time></trkpt>
<trkpt lat="28.267939" lon="99.202731">
<time>2016-10-07T09:53:56Z</time></trkpt>
<trkpt lat="28.267839" lon="99.202571">
<time>2016-10-07T09:53:57Z</time></trkpt>
<trkpt lat="28.267718" lon="99.202351">
<time>2016-10-07T09:53:58Z</time></trkpt>
<trkpt lat="28.267588" lon="99.202111">
<time>2016-10-07T09:53:59Z</time></trkpt>
<trkpt lat="28.267528" lon="99.202011">
<time>2016-10-07T09:54:00Z</time></trkpt>
<trkpt lat="28.267448" lon="99.20191">
<time>2016-10-07T09:54:01Z</time></trkpt>
<trkpt lat="28.267398" lon="99.20185">
<time>2016-10-07T09:54:02Z</time></trkpt>
<trkpt lat="28.267277" lon="99.20174">
<time>2016-10-07T09:54:03Z</time></trkpt>
<trkpt lat="28.267167" lon="99.20167">
<time>2016-10-07T09:54:04Z</time></trkpt>
<trkpt lat="28.266997" lon="99.20157">
<time>2016-10-07T09:54:05Z</time></trkpt>
<trkpt lat="28.266907" lon="99.20151">
<time>2016-10-07T09:54:06Z</time></trkpt>
<trkpt lat="28.266847" lon="99.20146">
<time>2016-10-07T09:54:07Z</time></trkpt>
<trkpt lat="28.266767" lon="99.20137">
<time>2016-10-07T09:54:08Z</time></trkpt>
<trkpt lat="28.266727" lon="99.20129">
<time>2016-10-07T09:54:09Z</time></trkpt>
<trkpt lat="28.266697" lon="99.20121">
<time>2016-10-07T09:54:10Z</time></trkpt>
<trkpt lat="28.266676" lon="99.20113">
<time>2016-10-07T09:54:11Z</time></trkpt>
<trkpt lat="28.266656" lon="99.20102">
<time>2016-10-07T09:54:12Z</time></trkpt>
<trkpt lat="28.266656" lon="99.20092">
<time>2016-10-07T09:54:13Z</time></trkpt>
<trkpt lat="28.266676" lon="99.200789">
<time>2016-10-07T09:54:14Z</time></trkpt>
<trkpt lat="28.266726" lon="99.200669">
<time>2016-10-07T09:54:15Z</time></trkpt>
<trkpt lat="28.266786" lon="99.200569">
<time>2016-10-07T09:54:16Z</time></trkpt>
<trkpt lat="28.266865" lon="99.200459">
<time>2016-10-07T09:54:17Z</time></trkpt>
<trkpt lat="28.266925" lon="99.200379">
<time>2016-10-07T09:54:18Z</time></trkpt>
<trkpt lat="28.266975" lon="99.200309">
<time>2016-10-07T09:54:19Z</time></trkpt>
<trkpt lat="28.267035" lon="99.200229">
<time>2016-10-07T09:54:20Z</time></trkpt>
<trkpt lat="28.267085" lon="99.200119">
<time>2016-10-07T09:54:21Z</time></trkpt>
<trkpt lat="28.267135" lon="99.199979">
<time>2016-10-07T09:54:22Z</time></trkpt>
<trkpt lat="28.267145" lon="99.199909">
<time>2016-10-07T09:54:23Z</time></trkpt>
<trkpt lat="28.267144" lon="99.199859">
<time>2016-10-07T09:54:24Z</time></trkpt>
<trkpt lat="28.267144" lon="99.199728">
<time>2016-10-07T09:54:25Z</time></trkpt>
<trkpt lat="28.267124" lon="99.199628">
<time>2016-10-07T09:54:26Z</time></trkpt>
<trkpt lat="28.267104" lon="99.199548">
<time>2016-10-07T09:54:27Z</time></trkpt>
<trkpt lat="28.267064" lon="99.199438">
<time>2016-10-07T09:54:28Z</time></trkpt>
<trkpt lat="28.267004" lon="99.199318">
<time>2016-10-07T09:54:29Z</time></trkpt>
<trkpt lat="28.266933" lon="99.199198">
<time>2016-10-07T09:54:30Z</time></trkpt>
<trkpt lat="28.266783" lon="99.198948">
<time>2016-10-07T09:54:31Z</time></trkpt>
<trkpt lat="28.266613" lon="99.198647">
<time>2016-10-07T09:54:32Z</time></trkpt>
<trkpt lat="28.266452" lon="99.198337">
<time>2016-10-07T09:54:33Z</time></trkpt>
<trkpt lat="28.266302" lon="99.198077">
<time>2016-10-07T09:54:34Z</time></trkpt>
<trkpt lat="28.266161" lon="99.197816">
<time>2016-10-07T09:54:35Z</time></trkpt>
<trkpt lat="28.266031" lon="99.197656">
<time>2016-10-07T09:54:36Z</time></trkpt>
<trkpt lat="28.265931" lon="99.197546">
<time>2016-10-07T09:54:37Z</time></trkpt>
<trkpt lat="28.265871" lon="99.197486">
<time>2016-10-07T09:54:38Z</time></trkpt>
<trkpt lat="28.265781" lon="99.197416">
<time>2016-10-07T09:54:39Z</time></trkpt>
<trkpt lat="28.26571" lon="99.197366">
<time>2016-10-07T09:54:40Z</time></trkpt>
<trkpt lat="28.26557" lon="99.197286">
<time>2016-10-07T09:54:41Z</time></trkpt>
<trkpt lat="28.26541" lon="99.197196">
<time>2016-10-07T09:54:42Z</time></trkpt>
<trkpt lat="28.26532" lon="99.197126">
<time>2016-10-07T09:54:43Z</time></trkpt>
<trkpt lat="28.26524" lon="99.197056">
<time>2016-10-07T09:54:44Z</time></trkpt>
<trkpt lat="28.26515" lon="99.196926">
<time>2016-10-07T09:54:45Z</time></trkpt>
<trkpt lat="28.26511" lon="99.196866">
<time>2016-10-07T09:54:46Z</time></trkpt>
<trkpt lat="28.26508" lon="99.196795">
<time>2016-10-07T09:54:47Z</time></trkpt>
<trkpt lat="28.265059" lon="99.196725">
<time>2016-10-07T09:54:48Z</time></trkpt>
<trkpt lat="28.265059" lon="99.196645">
<time>2016-10-07T09:54:49Z</time></trkpt>
<trkpt lat="28.265059" lon="99.196545">
<time>2016-10-07T09:54:50Z</time></trkpt>
<trkpt lat="28.265069" lon="99.196485">
<time>2016-10-07T09:54:51Z</time></trkpt>
<trkpt lat="28.265079" lon="99.196425">
<time>2016-10-07T09:54:52Z</time></trkpt>
<trkpt lat="28.265099" lon="99.196355">
<time>2016-10-07T09:54:53Z</time></trkpt>
<trkpt lat="28.265129" lon="99.196305">
<time>2016-10-07T09:54:54Z</time></trkpt>
<trkpt lat="28.265159" lon="99.196235">
<time>2016-10-07T09:54:55Z</time></trkpt>
<trkpt lat="28.265199" lon="99.196165">
<time>2016-10-07T09:54:56Z</time></trkpt>
<trkpt lat="28.265238" lon="99.196125">
<time>2016-10-07T09:54:57Z</time></trkpt>
<trkpt lat="28.265308" lon="99.196065">
<time>2016-10-07T09:54:58Z</time></trkpt>
<trkpt lat="28.265338" lon="99.196045">
<time>2016-10-07T09:54:59Z</time></trkpt>
<trkpt lat="28.265428" lon="99.195995">
<time>2016-10-07T09:55:00Z</time></trkpt>
<trkpt lat="28.265558" lon="99.195945">
<time>2016-10-07T09:55:01Z</time></trkpt>
<trkpt lat="28.265958" lon="99.195844">
<time>2016-10-07T09:55:02Z</time></trkpt>
<trkpt lat="28.266098" lon="99.195814">
<time>2016-10-07T09:55:03Z</time></trkpt>
<trkpt lat="28.266348" lon="99.195744">
<time>2016-10-07T09:55:04Z</time></trkpt>
<trkpt lat="28.266478" lon="99.195724">
<time>2016-10-07T09:55:05Z</time></trkpt>
<trkpt lat="28.266598" lon="99.195714">
<time>2016-10-07T09:55:06Z</time></trkpt>
<trkpt lat="28.266668" lon="99.195724">
<time>2016-10-07T09:55:07Z</time></trkpt>
<trkpt lat="28.266748" lon="99.195734">
<time>2016-10-07T09:55:08Z</time></trkpt>
<trkpt lat="28.266858" lon="99.195764">
<time>2016-10-07T09:55:09Z</time></trkpt>
<trkpt lat="28.266988" lon="99.195814">
<time>2016-10-07T09:55:10Z</time></trkpt>
<trkpt lat="28.267088" lon="99.195874">
<time>2016-10-07T09:55:11Z</time></trkpt>
<trkpt lat="28.267168" lon="99.195955">
<time>2016-10-07T09:55:12Z</time></trkpt>
<trkpt lat="28.267328" lon="99.196105">
<time>2016-10-07T09:55:13Z</time></trkpt>
<trkpt lat="28.267669" lon="99.196425">
<time>2016-10-07T09:55:14Z</time></trkpt>
<trkpt lat="28.26862" lon="99.197336">
<time>2016-10-07T09:55:15Z</time></trkpt>
<trkpt lat="28.268881" lon="99.197556">
<time>2016-10-07T09:55:16Z</time></trkpt>
<trkpt lat="28.269131" lon="99.197746">
<time>2016-10-07T09:55:17Z</time></trkpt>
<trkpt lat="28.269451" lon="99.197957">
<time>2016-10-07T09:55:18Z</time></trkpt>
<trkpt lat="28.269672" lon="99.198077">
<time>2016-10-07T09:55:19Z</time></trkpt>
<trkpt lat="28.270222" lon="99.198357">
<time>2016-10-07T09:55:20Z</time></trkpt>
<trkpt lat="28.270662" lon="99.198577">
<time>2016-10-07T09:55:21Z</time></trkpt>
<trkpt lat="28.271143" lon="99.198827">
<time>2016-10-07T09:55:22Z</time></trkpt>
<trkpt lat="28.271303" lon="99.198867">
<time>2016-10-07T09:55:23Z</time></trkpt>
<trkpt lat="28.271433" lon="99.198887">
<time>2016-10-07T09:55:24Z</time></trkpt>
<trkpt lat="28.271543" lon="99.198877">
<time>2016-10-07T09:55:25Z</time></trkpt>
<trkpt lat="28.271673" lon="99.198827">
<time>2016-10-07T09:55:26Z</time></trkpt>
<trkpt lat="28.271783" lon="99.198747">
<time>2016-10-07T09:55:27Z</time></trkpt>
<trkpt lat="28.271922" lon="99.198577">
<time>2016-10-07T09:55:28Z</time></trkpt>
<trkpt lat="28.271992" lon="99.198437">
<time>2016-10-07T09:55:29Z</time></trkpt>
<trkpt lat="28.272052" lon="99.198307">
<time>2016-10-07T09:55:30Z</time></trkpt>
<trkpt lat="28.272131" lon="99.198037">
<time>2016-10-07T09:55:31Z</time></trkpt>
<trkpt lat="28.272191" lon="99.197726">
<time>2016-10-07T09:55:32Z</time></trkpt>
<trkpt lat="28.27226" lon="99.197116">
<time>2016-10-07T09:55:33Z</time></trkpt>
<trkpt lat="28.272319" lon="99.196625">
<time>2016-10-07T09:55:34Z</time></trkpt>
<trkpt lat="28.272359" lon="99.196315">
<time>2016-10-07T09:55:35Z</time></trkpt>
<trkpt lat="28.272378" lon="99.196054">
<time>2016-10-07T09:55:36Z</time></trkpt>
<trkpt lat="28.272398" lon="99.195854">
<time>2016-10-07T09:55:37Z</time></trkpt>
<trkpt lat="28.272388" lon="99.195684">
<time>2016-10-07T09:55:38Z</time></trkpt>
<trkpt lat="28.272347" lon="99.195524">
<time>2016-10-07T09:55:39Z</time></trkpt>
<trkpt lat="28.272307" lon="99.195374">
<time>2016-10-07T09:55:40Z</time></trkpt>
<trkpt lat="28.272267" lon="99.195264">
<time>2016-10-07T09:55:41Z</time></trkpt>
<trkpt lat="28.272217" lon="99.195113">
<time>2016-10-07T09:55:42Z</time></trkpt>
<trkpt lat="28.272186" lon="99.194973">
<time>2016-10-07T09:55:43Z</time></trkpt>
<trkpt lat="28.272166" lon="99.194843">
<time>2016-10-07T09:55:44Z</time></trkpt>
<trkpt lat="28.272166" lon="99.194723">
<time>2016-10-07T09:55:45Z</time></trkpt>
<trkpt lat="28.272186" lon="99.194583">
<time>2016-10-07T09:55:46Z</time></trkpt>
<trkpt lat="28.272225" lon="99.194443">
<time>2016-10-07T09:55:47Z</time></trkpt>
<trkpt lat="28.272275" lon="99.194253">
<time>2016-10-07T09:55:48Z</time></trkpt>
<trkpt lat="28.272325" lon="99.194032">
<time>2016-10-07T09:55:49Z</time></trkpt>
<trkpt lat="28.272374" lon="99.193782">
<time>2016-10-07T09:55:50Z</time></trkpt>
<trkpt lat="28.272424" lon="99.193602">
<time>2016-10-07T09:55:51Z</time></trkpt>
<trkpt lat="28.272484" lon="99.193342">
<time>2016-10-07T09:55:52Z</time></trkpt>
<trkpt lat="28.272543" lon="99.193131">
<time>2016-10-07T09:55:53Z</time></trkpt>
<trkpt lat="28.272573" lon="99.192871">
<time>2016-10-07T09:55:54Z</time></trkpt>
<trkpt lat="28.272582" lon="99.192641">
<time>2016-10-07T09:55:55Z</time></trkpt>
<trkpt lat="28.272572" lon="99.19242">
<time>2016-10-07T09:55:56Z</time></trkpt>
<trkpt lat="28.272552" lon="99.19224">
<time>2016-10-07T09:55:57Z</time></trkpt>
<trkpt lat="28.272531" lon="99.19209">
<time>2016-10-07T09:55:58Z</time></trkpt>
<trkpt lat="28.272501" lon="99.19198">
<time>2016-10-07T09:55:59Z</time></trkpt>
<trkpt lat="28.272441" lon="99.1918">
<time>2016-10-07T09:56:00Z</time></trkpt>
<trkpt lat="28.272321" lon="99.191519">
<time>2016-10-07T09:56:01Z</time></trkpt>
<trkpt lat="28.27223" lon="99.191369">
<time>2016-10-07T09:56:02Z</time></trkpt>
<trkpt lat="28.27211" lon="99.191159">
<time>2016-10-07T09:56:03Z</time></trkpt>
<trkpt lat="28.271939" lon="99.190879">
<time>2016-10-07T09:56:04Z</time></trkpt>
<trkpt lat="28.271829" lon="99.190689">
<time>2016-10-07T09:56:05Z</time></trkpt>
<trkpt lat="28.271749" lon="99.190548">
<time>2016-10-07T09:56:06Z</time></trkpt>
<trkpt lat="28.271719" lon="99.190438">
<time>2016-10-07T09:56:07Z</time></trkpt>
<trkpt lat="28.271698" lon="99.190338">
<time>2016-10-07T09:56:08Z</time></trkpt>
<trkpt lat="28.271698" lon="99.190178">
<time>2016-10-07T09:56:09Z</time></trkpt>
<trkpt lat="28.271718" lon="99.190088">
<time>2016-10-07T09:56:10Z</time></trkpt>
<trkpt lat="28.271738" lon="99.190018">
<time>2016-10-07T09:56:11Z</time></trkpt>
<trkpt lat="28.271768" lon="99.189938">
<time>2016-10-07T09:56:12Z</time></trkpt>
<trkpt lat="28.271808" lon="99.189858">
<time>2016-10-07T09:56:13Z</time></trkpt>
<trkpt lat="28.271848" lon="99.189807">
<time>2016-10-07T09:56:14Z</time></trkpt>
<trkpt lat="28.271897" lon="99.189747">
<time>2016-10-07T09:56:15Z</time></trkpt>
<trkpt lat="28.271977" lon="99.189687">
<time>2016-10-07T09:56:16Z</time></trkpt>
<trkpt lat="28.272037" lon="99.189647">
<time>2016-10-07T09:56:17Z</time></trkpt>
<trkpt lat="28.272097" lon="99.189617">
<time>2016-10-07T09:56:18Z</time></trkpt>
<trkpt lat="28.272167" lon="99.189597">
<time>2016-10-07T09:56:19Z</time></trkpt>
<trkpt lat="28.272257" lon="99.189567">
<time>2016-10-07T09:56:20Z</time></trkpt>
<trkpt lat="28.272357" lon="99.189557">
<time>2016-10-07T09:56:21Z</time></trkpt>
<trkpt lat="28.272587" lon="99.189517">
<time>2016-10-07T09:56:22Z</time></trkpt>
<trkpt lat="28.272677" lon="99.189497">
<time>2016-10-07T09:56:23Z</time></trkpt>
<trkpt lat="28.272767" lon="99.189457">
<time>2016-10-07T09:56:24Z</time></trkpt>
<trkpt lat="28.272827" lon="99.189417">
<time>2016-10-07T09:56:25Z</time></trkpt>
<trkpt lat="28.272867" lon="99.189397">
<time>2016-10-07T09:56:26Z</time></trkpt>
<trkpt lat="28.272907" lon="99.189367">
<time>2016-10-07T09:56:27Z</time></trkpt>
<trkpt lat="28.272937" lon="99.189327">
<time>2016-10-07T09:56:28Z</time></trkpt>
<trkpt lat="28.273017" lon="99.189247">
<time>2016-10-07T09:56:29Z</time></trkpt>
<trkpt lat="28.273096" lon="99.189167">
<time>2016-10-07T09:56:30Z</time></trkpt>
<trkpt lat="28.273166" lon="99.189057">
<time>2016-10-07T09:56:31Z</time></trkpt>
<trkpt lat="28.273246" lon="99.188956">
<time>2016-10-07T09:56:32Z</time></trkpt>
<trkpt lat="28.273356" lon="99.188836">
<time>2016-10-07T09:56:33Z</time></trkpt>
<trkpt lat="28.273426" lon="99.188776">
<time>2016-10-07T09:56:34Z</time></trkpt>
<trkpt lat="28.273506" lon="99.188726">
<time>2016-10-07T09:56:35Z</time></trkpt>
<trkpt lat="28.273566" lon="99.188696">
<time>2016-10-07T09:56:36Z</time></trkpt>
<trkpt lat="28.273655" lon="99.188666">
<time>2016-10-07T09:56:37Z</time></trkpt>
<trkpt lat="28.273725" lon="99.188656">
<time>2016-10-07T09:56:38Z</time></trkpt>
<trkpt lat="28.273795" lon="99.188646">
<time>2016-10-07T09:56:39Z</time></trkpt>
<trkpt lat="28.273875" lon="99.188656">
<time>2016-10-07T09:56:40Z</time></trkpt>
<trkpt lat="28.273925" lon="99.188666">
<time>2016-10-07T09:56:41Z</time></trkpt>
<trkpt lat="28.274036" lon="99.188686">
<time>2016-10-07T09:56:42Z</time></trkpt>
<trkpt lat="28.274196" lon="99.188736">
<time>2016-10-07T09:56:43Z</time></trkpt>
<trkpt lat="28.274316" lon="99.188776">
<time>2016-10-07T09:56:44Z</time></trkpt>
<trkpt lat="28.274376" lon="99.188786">
<time>2016-10-07T09:56:45Z</time></trkpt>
<trkpt lat="28.274616" lon="99.188846">
<time>2016-10-07T09:56:46Z</time></trkpt>
<trkpt lat="28.274746" lon="99.188886">
<time>2016-10-07T09:56:47Z</time></trkpt>
<trkpt lat="28.274906" lon="99.188926">
<time>2016-10-07T09:56:48Z</time></trkpt>
<trkpt lat="28.275066" lon="99.188956">
<time>2016-10-07T09:56:49Z</time></trkpt>
<trkpt lat="28.275156" lon="99.188956">
<time>2016-10-07T09:56:50Z</time></trkpt>
<trkpt lat="28.275236" lon="99.188946">
<time>2016-10-07T09:56:51Z</time></trkpt>
<trkpt lat="28.275276" lon="99.188936">
<time>2016-10-07T09:56:52Z</time></trkpt>
<trkpt lat="28.275336" lon="99.188916">
<time>2016-10-07T09:56:53Z</time></trkpt>
<trkpt lat="28.275426" lon="99.188866">
<time>2016-10-07T09:56:54Z</time></trkpt>
<trkpt lat="28.275486" lon="99.188816">
<time>2016-10-07T09:56:55Z</time></trkpt>
<trkpt lat="28.275556" lon="99.188746">
<time>2016-10-07T09:56:56Z</time></trkpt>
<trkpt lat="28.275635" lon="99.188646">
<time>2016-10-07T09:56:57Z</time></trkpt>
<trkpt lat="28.275715" lon="99.188486">
<time>2016-10-07T09:56:58Z</time></trkpt>
<trkpt lat="28.275795" lon="99.188296">
<time>2016-10-07T09:56:59Z</time></trkpt>
<trkpt lat="28.275874" lon="99.188105">
<time>2016-10-07T09:57:00Z</time></trkpt>
<trkpt lat="28.275964" lon="99.187915">
<time>2016-10-07T09:57:01Z</time></trkpt>
<trkpt lat="28.276034" lon="99.187735">
<time>2016-10-07T09:57:02Z</time></trkpt>
<trkpt lat="28.276143" lon="99.187455">
<time>2016-10-07T09:57:03Z</time></trkpt>
<trkpt lat="28.276243" lon="99.187194">
<time>2016-10-07T09:57:04Z</time></trkpt>
<trkpt lat="28.276332" lon="99.186974">
<time>2016-10-07T09:57:05Z</time></trkpt>
<trkpt lat="28.276402" lon="99.186754">
<time>2016-10-07T09:57:06Z</time></trkpt>
<trkpt lat="28.276432" lon="99.186624">
<time>2016-10-07T09:57:07Z</time></trkpt>
<trkpt lat="28.276432" lon="99.186513">
<time>2016-10-07T09:57:08Z</time></trkpt>
<trkpt lat="28.276431" lon="99.186403">
<time>2016-10-07T09:57:09Z</time></trkpt>
<trkpt lat="28.276421" lon="99.186293">
<time>2016-10-07T09:57:10Z</time></trkpt>
<trkpt lat="28.276371" lon="99.186093">
<time>2016-10-07T09:57:11Z</time></trkpt>
<trkpt lat="28.27629" lon="99.185873">
<time>2016-10-07T09:57:12Z</time></trkpt>
<trkpt lat="28.27616" lon="99.185562">
<time>2016-10-07T09:57:13Z</time></trkpt>
<trkpt lat="28.275909" lon="99.184921">
<time>2016-10-07T09:57:14Z</time></trkpt>
<trkpt lat="28.275668" lon="99.184311">
<time>2016-10-07T09:57:15Z</time></trkpt>
<trkpt lat="28.275436" lon="99.1837">
<time>2016-10-07T09:57:16Z</time></trkpt>
<trkpt lat="28.275205" lon="99.183119">
<time>2016-10-07T09:57:17Z</time></trkpt>
<trkpt lat="28.274814" lon="99.182148">
<time>2016-10-07T09:57:18Z</time></trkpt>
<trkpt lat="28.274593" lon="99.181617">
<time>2016-10-07T09:57:19Z</time></trkpt>
<trkpt lat="28.274543" lon="99.181507">
<time>2016-10-07T09:57:20Z</time></trkpt>
<trkpt lat="28.274502" lon="99.181417">
<time>2016-10-07T09:57:21Z</time></trkpt>
<trkpt lat="28.274462" lon="99.181347">
<time>2016-10-07T09:57:22Z</time></trkpt>
<trkpt lat="28.274362" lon="99.181197">
<time>2016-10-07T09:57:23Z</time></trkpt>
<trkpt lat="28.274262" lon="99.181057">
<time>2016-10-07T09:57:24Z</time></trkpt>
<trkpt lat="28.274181" lon="99.180946">
<time>2016-10-07T09:57:25Z</time></trkpt>
<trkpt lat="28.273991" lon="99.180696">
<time>2016-10-07T09:57:26Z</time></trkpt>
<trkpt lat="28.273901" lon="99.180546">
<time>2016-10-07T09:57:27Z</time></trkpt>
<trkpt lat="28.273841" lon="99.180436">
<time>2016-10-07T09:57:28Z</time></trkpt>
<trkpt lat="28.2738" lon="99.180326">
<time>2016-10-07T09:57:29Z</time></trkpt>
<trkpt lat="28.27378" lon="99.180236">
<time>2016-10-07T09:57:30Z</time></trkpt>
<trkpt lat="28.27375" lon="99.180085">
<time>2016-10-07T09:57:31Z</time></trkpt>
<trkpt lat="28.27375" lon="99.180035">
<time>2016-10-07T09:57:32Z</time></trkpt>
<trkpt lat="28.27375" lon="99.179975">
<time>2016-10-07T09:57:33Z</time></trkpt>
<trkpt lat="28.27375" lon="99.179915">
<time>2016-10-07T09:57:34Z</time></trkpt>
<trkpt lat="28.273759" lon="99.179805">
<time>2016-10-07T09:57:35Z</time></trkpt>
<trkpt lat="28.273779" lon="99.179725">
<time>2016-10-07T09:57:36Z</time></trkpt>
<trkpt lat="28.273829" lon="99.179575">
<time>2016-10-07T09:57:37Z</time></trkpt>
<trkpt lat="28.273869" lon="99.179465">
<time>2016-10-07T09:57:38Z</time></trkpt>
<trkpt lat="28.273919" lon="99.179334">
<time>2016-10-07T09:57:39Z</time></trkpt>
<trkpt lat="28.273978" lon="99.179194">
<time>2016-10-07T09:57:40Z</time></trkpt>
<trkpt lat="28.274058" lon="99.179044">
<time>2016-10-07T09:57:41Z</time></trkpt>
<trkpt lat="28.274118" lon="99.178954">
<time>2016-10-07T09:57:42Z</time></trkpt>
<trkpt lat="28.274198" lon="99.178854">
<time>2016-10-07T09:57:43Z</time></trkpt>
<trkpt lat="28.274297" lon="99.178744">
<time>2016-10-07T09:57:44Z</time></trkpt>
<trkpt lat="28.274367" lon="99.178684">
<time>2016-10-07T09:57:45Z</time></trkpt>
<trkpt lat="28.274437" lon="99.178633">
<time>2016-10-07T09:57:46Z</time></trkpt>
<trkpt lat="28.274527" lon="99.178593">
<time>2016-10-07T09:57:47Z</time></trkpt>
<trkpt lat="28.274607" lon="99.178553">
<time>2016-10-07T09:57:48Z</time></trkpt>
<trkpt lat="28.274727" lon="99.178523">
<time>2016-10-07T09:57:49Z</time></trkpt>
<trkpt lat="28.274777" lon="99.178513">
<time>2016-10-07T09:57:50Z</time></trkpt>
<trkpt lat="28.274837" lon="99.178503">
<time>2016-10-07T09:57:51Z</time></trkpt>
<trkpt lat="28.274917" lon="99.178503">
<time>2016-10-07T09:57:52Z</time></trkpt>
<trkpt lat="28.274987" lon="99.178513">
<time>2016-10-07T09:57:53Z</time></trkpt>
<trkpt lat="28.275067" lon="99.178523">
<time>2016-10-07T09:57:54Z</time></trkpt>
<trkpt lat="28.275147" lon="99.178543">
<time>2016-10-07T09:57:55Z</time></trkpt>
<trkpt lat="28.275217" lon="99.178573">
<time>2016-10-07T09:57:56Z</time></trkpt>
<trkpt lat="28.275297" lon="99.178613">
<time>2016-10-07T09:57:57Z</time></trkpt>
<trkpt lat="28.275407" lon="99.178684">
<time>2016-10-07T09:57:58Z</time></trkpt>
<trkpt lat="28.275668" lon="99.178864">
<time>2016-10-07T09:57:59Z</time></trkpt>
<trkpt lat="28.276018" lon="99.179114">
<time>2016-10-07T09:58:00Z</time></trkpt>
<trkpt lat="28.276429" lon="99.179414">
<time>2016-10-07T09:58:01Z</time></trkpt>
<trkpt lat="28.276879" lon="99.179725">
<time>2016-10-07T09:58:02Z</time></trkpt>
<trkpt lat="28.276999" lon="99.179795">
<time>2016-10-07T09:58:03Z</time></trkpt>
<trkpt lat="28.277109" lon="99.179845">
<time>2016-10-07T09:58:04Z</time></trkpt>
<trkpt lat="28.277159" lon="99.179855">
<time>2016-10-07T09:58:05Z</time></trkpt>
<trkpt lat="28.277289" lon="99.179885">
<time>2016-10-07T09:58:06Z</time></trkpt>
<trkpt lat="28.277419" lon="99.179895">
<time>2016-10-07T09:58:07Z</time></trkpt>
<trkpt lat="28.277589" lon="99.179895">
<time>2016-10-07T09:58:08Z</time></trkpt>
<trkpt lat="28.277729" lon="99.179895">
<time>2016-10-07T09:58:09Z</time></trkpt>
<trkpt lat="28.277929" lon="99.179875">
<time>2016-10-07T09:58:10Z</time></trkpt>
<trkpt lat="28.278089" lon="99.179865">
<time>2016-10-07T09:58:11Z</time></trkpt>
<trkpt lat="28.278219" lon="99.179835">
<time>2016-10-07T09:58:12Z</time></trkpt>
<trkpt lat="28.278329" lon="99.179805">
<time>2016-10-07T09:58:13Z</time></trkpt>
<trkpt lat="28.278409" lon="99.179765">
<time>2016-10-07T09:58:14Z</time></trkpt>
<trkpt lat="28.278499" lon="99.179725">
<time>2016-10-07T09:58:15Z</time></trkpt>
<trkpt lat="28.278539" lon="99.179685">
<time>2016-10-07T09:58:16Z</time></trkpt>
<trkpt lat="28.278619" lon="99.179635">
<time>2016-10-07T09:58:17Z</time></trkpt>
<trkpt lat="28.278679" lon="99.179575">
<time>2016-10-07T09:58:18Z</time></trkpt>
<trkpt lat="28.278759" lon="99.179484">
<time>2016-10-07T09:58:19Z</time></trkpt>
<trkpt lat="28.278789" lon="99.179444">
<time>2016-10-07T09:58:20Z</time></trkpt>
<trkpt lat="28.278848" lon="99.179374">
<time>2016-10-07T09:58:21Z</time></trkpt>
<trkpt lat="28.278918" lon="99.179254">
<time>2016-10-07T09:58:22Z</time></trkpt>
<trkpt lat="28.279187" lon="99.178834">
<time>2016-10-07T09:58:23Z</time></trkpt>
<trkpt lat="28.279287" lon="99.178693">
<time>2016-10-07T09:58:24Z</time></trkpt>
<trkpt lat="28.279377" lon="99.178573">
<time>2016-10-07T09:58:25Z</time></trkpt>
<trkpt lat="28.279437" lon="99.178503">
<time>2016-10-07T09:58:26Z</time></trkpt>
<trkpt lat="28.279507" lon="99.178413">
<time>2016-10-07T09:58:27Z</time></trkpt>
<trkpt lat="28.279596" lon="99.178343">
<time>2016-10-07T09:58:28Z</time></trkpt>
<trkpt lat="28.279876" lon="99.178153">
<time>2016-10-07T09:58:29Z</time></trkpt>
<trkpt lat="28.279966" lon="99.178093">
<time>2016-10-07T09:58:30Z</time></trkpt>
<trkpt lat="28.280066" lon="99.178013">
<time>2016-10-07T09:58:31Z</time></trkpt>
<trkpt lat="28.280126" lon="99.177962">
<time>2016-10-07T09:58:32Z</time></trkpt>
<trkpt lat="28.280206" lon="99.177872">
<time>2016-10-07T09:58:33Z</time></trkpt>
<trkpt lat="28.280255" lon="99.177792">
<time>2016-10-07T09:58:34Z</time></trkpt>
<trkpt lat="28.280325" lon="99.177662">
<time>2016-10-07T09:58:35Z</time></trkpt>
<trkpt lat="28.280445" lon="99.177382">
<time>2016-10-07T09:58:36Z</time></trkpt>
<trkpt lat="28.280534" lon="99.177101">
<time>2016-10-07T09:58:37Z</time></trkpt>
<trkpt lat="28.280673" lon="99.176671">
<time>2016-10-07T09:58:38Z</time></trkpt>
<trkpt lat="28.280743" lon="99.176471">
<time>2016-10-07T09:58:39Z</time></trkpt>
<trkpt lat="28.280803" lon="99.17629">
<time>2016-10-07T09:58:40Z</time></trkpt>
<trkpt lat="28.280892" lon="99.17602">
<time>2016-10-07T09:58:41Z</time></trkpt>
<trkpt lat="28.280972" lon="99.17586">
<time>2016-10-07T09:58:42Z</time></trkpt>
<trkpt lat="28.281022" lon="99.17579">
<time>2016-10-07T09:58:43Z</time></trkpt>
<trkpt lat="28.281071" lon="99.17573">
<time>2016-10-07T09:58:44Z</time></trkpt>
<trkpt lat="28.281131" lon="99.175679">
<time>2016-10-07T09:58:45Z</time></trkpt>
<trkpt lat="28.281191" lon="99.175639">
<time>2016-10-07T09:58:46Z</time></trkpt>
<trkpt lat="28.281221" lon="99.175619">
<time>2016-10-07T09:58:47Z</time></trkpt>
<trkpt lat="28.281261" lon="99.175599">
<time>2016-10-07T09:58:48Z</time></trkpt>
<trkpt lat="28.281301" lon="99.175589">
<time>2016-10-07T09:58:49Z</time></trkpt>
<trkpt lat="28.281351" lon="99.175569">
<time>2016-10-07T09:58:50Z</time></trkpt>
<trkpt lat="28.281441" lon="99.175559">
<time>2016-10-07T09:58:51Z</time></trkpt>
<trkpt lat="28.281501" lon="99.175559">
<time>2016-10-07T09:58:52Z</time></trkpt>
<trkpt lat="28.281551" lon="99.175569">
<time>2016-10-07T09:58:53Z</time></trkpt>
<trkpt lat="28.281711" lon="99.175579">
<time>2016-10-07T09:58:54Z</time></trkpt>
<trkpt lat="28.281911" lon="99.175609">
<time>2016-10-07T09:58:55Z</time></trkpt>
<trkpt lat="28.282171" lon="99.175649">
<time>2016-10-07T09:58:56Z</time></trkpt>
<trkpt lat="28.282531" lon="99.175699">
<time>2016-10-07T09:58:57Z</time></trkpt>
<trkpt lat="28.282841" lon="99.175739">
<time>2016-10-07T09:58:58Z</time></trkpt>
<trkpt lat="28.282961" lon="99.17575">
<time>2016-10-07T09:58:59Z</time></trkpt>
<trkpt lat="28.283061" lon="99.175739">
<time>2016-10-07T09:59:00Z</time></trkpt>
<trkpt lat="28.283151" lon="99.175729">
<time>2016-10-07T09:59:01Z</time></trkpt>
<trkpt lat="28.283261" lon="99.175689">
<time>2016-10-07T09:59:02Z</time></trkpt>
<trkpt lat="28.283301" lon="99.175669">
<time>2016-10-07T09:59:03Z</time></trkpt>
<trkpt lat="28.283361" lon="99.175639">
<time>2016-10-07T09:59:04Z</time></trkpt>
<trkpt lat="28.283441" lon="99.175589">
<time>2016-10-07T09:59:05Z</time></trkpt>
<trkpt lat="28.283521" lon="99.175509">
<time>2016-10-07T09:59:06Z</time></trkpt>
<trkpt lat="28.283611" lon="99.175389">
<time>2016-10-07T09:59:07Z</time></trkpt>
<trkpt lat="28.28368" lon="99.175249">
<time>2016-10-07T09:59:08Z</time></trkpt>
<trkpt lat="28.28377" lon="99.175049">
<time>2016-10-07T09:59:09Z</time></trkpt>
<trkpt lat="28.28385" lon="99.174768">
<time>2016-10-07T09:59:10Z</time></trkpt>
<trkpt lat="28.283919" lon="99.174568">
<time>2016-10-07T09:59:11Z</time></trkpt>
<trkpt lat="28.284218" lon="99.173707">
<time>2016-10-07T09:59:12Z</time></trkpt>
<trkpt lat="28.284615" lon="99.172535">
<time>2016-10-07T09:59:13Z</time></trkpt>
<trkpt lat="28.284705" lon="99.172355">
<time>2016-10-07T09:59:14Z</time></trkpt>
<trkpt lat="28.284775" lon="99.172225">
<time>2016-10-07T09:59:15Z</time></trkpt>
<trkpt lat="28.284845" lon="99.172115">
<time>2016-10-07T09:59:16Z</time></trkpt>
<trkpt lat="28.284924" lon="99.172005">
<time>2016-10-07T09:59:17Z</time></trkpt>
<trkpt lat="28.285233" lon="99.171544">
<time>2016-10-07T09:59:18Z</time></trkpt>
<trkpt lat="28.285393" lon="99.171274">
<time>2016-10-07T09:59:19Z</time></trkpt>
<trkpt lat="28.285483" lon="99.171093">
<time>2016-10-07T09:59:20Z</time></trkpt>
<trkpt lat="28.285712" lon="99.170623">
<time>2016-10-07T09:59:21Z</time></trkpt>
<trkpt lat="28.285771" lon="99.170493">
<time>2016-10-07T09:59:22Z</time></trkpt>
<trkpt lat="28.285821" lon="99.170422">
<time>2016-10-07T09:59:23Z</time></trkpt>
<trkpt lat="28.285871" lon="99.170352">
<time>2016-10-07T09:59:24Z</time></trkpt>
<trkpt lat="28.285931" lon="99.170282">
<time>2016-10-07T09:59:25Z</time></trkpt>
<trkpt lat="28.286061" lon="99.170152">
<time>2016-10-07T09:59:26Z</time></trkpt>
<trkpt lat="28.2862" lon="99.170002">
<time>2016-10-07T09:59:27Z</time></trkpt>
<trkpt lat="28.286779" lon="99.169441">
<time>2016-10-07T09:59:28Z</time></trkpt>
<trkpt lat="28.287528" lon="99.16871">
<time>2016-10-07T09:59:29Z</time></trkpt>
<trkpt lat="28.287628" lon="99.16861">
<time>2016-10-07T09:59:30Z</time></trkpt>
<trkpt lat="28.287658" lon="99.16856">
<time>2016-10-07T09:59:31Z</time></trkpt>
<trkpt lat="28.287698" lon="99.16851">
<time>2016-10-07T09:59:32Z</time></trkpt>
<trkpt lat="28.287717" lon="99.16846">
<time>2016-10-07T09:59:33Z</time></trkpt>
<trkpt lat="28.287747" lon="99.1684">
<time>2016-10-07T09:59:34Z</time></trkpt>
<trkpt lat="28.287777" lon="99.16834">
<time>2016-10-07T09:59:35Z</time></trkpt>
<trkpt lat="28.287797" lon="99.16827">
<time>2016-10-07T09:59:36Z</time></trkpt>
<trkpt lat="28.287827" lon="99.168149">
<time>2016-10-07T09:59:37Z</time></trkpt>
<trkpt lat="28.287857" lon="99.167969">
<time>2016-10-07T09:59:38Z</time></trkpt>
<trkpt lat="28.287886" lon="99.167809">
<time>2016-10-07T09:59:39Z</time></trkpt>
<trkpt lat="28.287906" lon="99.167749">
<time>2016-10-07T09:59:40Z</time></trkpt>
<trkpt lat="28.287926" lon="99.167689">
<time>2016-10-07T09:59:41Z</time></trkpt>
<trkpt lat="28.287956" lon="99.167639">
<time>2016-10-07T09:59:42Z</time></trkpt>
<trkpt lat="28.287996" lon="99.167579">
<time>2016-10-07T09:59:43Z</time></trkpt>
<trkpt lat="28.288046" lon="99.167509">
<time>2016-10-07T09:59:44Z</time></trkpt>
<trkpt lat="28.288096" lon="99.167458">
<time>2016-10-07T09:59:45Z</time></trkpt>
<trkpt lat="28.288145" lon="99.167418">
<time>2016-10-07T09:59:46Z</time></trkpt>
<trkpt lat="28.288195" lon="99.167398">
<time>2016-10-07T09:59:47Z</time></trkpt>
<trkpt lat="28.288245" lon="99.167368">
<time>2016-10-07T09:59:48Z</time></trkpt>
<trkpt lat="28.288315" lon="99.167348">
<time>2016-10-07T09:59:49Z</time></trkpt>
<trkpt lat="28.288445" lon="99.167328">
<time>2016-10-07T09:59:50Z</time></trkpt>
<trkpt lat="28.288595" lon="99.167318">
<time>2016-10-07T09:59:51Z</time></trkpt>
<trkpt lat="28.288705" lon="99.167298">
<time>2016-10-07T09:59:52Z</time></trkpt>
<trkpt lat="28.288805" lon="99.167258">
<time>2016-10-07T09:59:53Z</time></trkpt>
<trkpt lat="28.288925" lon="99.167198">
<time>2016-10-07T09:59:54Z</time></trkpt>
<trkpt lat="28.288995" lon="99.167148">
<time>2016-10-07T09:59:55Z</time></trkpt>
<trkpt lat="28.289065" lon="99.167088">
<time>2016-10-07T09:59:56Z</time></trkpt>
<trkpt lat="28.289145" lon="99.166978">
<time>2016-10-07T09:59:57Z</time></trkpt>
<trkpt lat="28.289204" lon="99.166898">
<time>2016-10-07T09:59:58Z</time></trkpt>
<trkpt lat="28.289304" lon="99.166737">
<time>2016-10-07T09:59:59Z</time></trkpt>
<trkpt lat="28.289553" lon="99.166297">
<time>2016-10-07T10:00:00Z</time></trkpt>
<trkpt lat="28.289653" lon="99.166107">
<time>2016-10-07T10:00:01Z</time></trkpt>
<trkpt lat="28.289763" lon="99.165966">
<time>2016-10-07T10:00:02Z</time></trkpt>
<trkpt lat="28.289793" lon="99.165926">
<time>2016-10-07T10:00:03Z</time></trkpt>
<trkpt lat="28.289852" lon="99.165876">
<time>2016-10-07T10:00:04Z</time></trkpt>
<trkpt lat="28.289912" lon="99.165826">
<time>2016-10-07T10:00:05Z</time></trkpt>
<trkpt lat="28.289992" lon="99.165776">
<time>2016-10-07T10:00:06Z</time></trkpt>
<trkpt lat="28.290062" lon="99.165756">
<time>2016-10-07T10:00:07Z</time></trkpt>
<trkpt lat="28.290122" lon="99.165746">
<time>2016-10-07T10:00:08Z</time></trkpt>
<trkpt lat="28.290172" lon="99.165746">
<time>2016-10-07T10:00:09Z</time></trkpt>
<trkpt lat="28.290252" lon="99.165746">
<time>2016-10-07T10:00:10Z</time></trkpt>
<trkpt lat="28.290342" lon="99.165766">
<time>2016-10-07T10:00:11Z</time></trkpt>
<trkpt lat="28.290432" lon="99.165796">
<time>2016-10-07T10:00:12Z</time></trkpt>
<trkpt lat="28.290662" lon="99.165886">
<time>2016-10-07T10:00:13Z</time></trkpt>
<trkpt lat="28.291503" lon="99.166227">
<time>2016-10-07T10:00:14Z</time></trkpt>
<trkpt lat="28.292013" lon="99.166437">
<time>2016-10-07T10:00:15Z</time></trkpt>
<trkpt lat="28.292344" lon="99.166547">
<time>2016-10-07T10:00:16Z</time></trkpt>
<trkpt lat="28.292674" lon="99.166627">
<time>2016-10-07T10:00:17Z</time></trkpt>
<trkpt lat="28.292984" lon="99.166667">
<time>2016-10-07T10:00:18Z</time></trkpt>
<trkpt lat="28.293454" lon="99.166717">
<time>2016-10-07T10:00:19Z</time></trkpt>
<trkpt lat="28.293904" lon="99.166777">
<time>2016-10-07T10:00:20Z</time></trkpt>
<trkpt lat="28.294074" lon="99.166807">
<time>2016-10-07T10:00:21Z</time></trkpt>
<trkpt lat="28.294144" lon="99.166837">
<time>2016-10-07T10:00:22Z</time></trkpt>
<trkpt lat="28.294234" lon="99.166888">
<time>2016-10-07T10:00:23Z</time></trkpt>
<trkpt lat="28.294294" lon="99.166938">
<time>2016-10-07T10:00:24Z</time></trkpt>
<trkpt lat="28.294354" lon="99.166998">
<time>2016-10-07T10:00:25Z</time></trkpt>
<trkpt lat="28.294404" lon="99.167068">
<time>2016-10-07T10:00:26Z</time></trkpt>
<trkpt lat="28.294465" lon="99.167158">
<time>2016-10-07T10:00:27Z</time></trkpt>
<trkpt lat="28.294495" lon="99.167228">
<time>2016-10-07T10:00:28Z</time></trkpt>
<trkpt lat="28.294515" lon="99.167308">
<time>2016-10-07T10:00:29Z</time></trkpt>
<trkpt lat="28.294525" lon="99.167358">
<time>2016-10-07T10:00:30Z</time></trkpt>
<trkpt lat="28.294525" lon="99.167418">
<time>2016-10-07T10:00:31Z</time></trkpt>
<trkpt lat="28.294525" lon="99.167498">
<time>2016-10-07T10:00:32Z</time></trkpt>
<trkpt lat="28.294505" lon="99.167598">
<time>2016-10-07T10:00:33Z</time></trkpt>
<trkpt lat="28.294486" lon="99.167679">
<time>2016-10-07T10:00:34Z</time></trkpt>
<trkpt lat="28.294456" lon="99.167759">
<time>2016-10-07T10:00:35Z</time></trkpt>
<trkpt lat="28.294396" lon="99.167879">
<time>2016-10-07T10:00:36Z</time></trkpt>
<trkpt lat="28.294306" lon="99.167979">
<time>2016-10-07T10:00:37Z</time></trkpt>
<trkpt lat="28.294196" lon="99.168059">
<time>2016-10-07T10:00:38Z</time></trkpt>
<trkpt lat="28.294136" lon="99.168089">
<time>2016-10-07T10:00:39Z</time></trkpt>
<trkpt lat="28.294046" lon="99.168129">
<time>2016-10-07T10:00:40Z</time></trkpt>
<trkpt lat="28.293827" lon="99.168189">
<time>2016-10-07T10:00:41Z</time></trkpt>
<trkpt lat="28.293627" lon="99.168239">
<time>2016-10-07T10:00:42Z</time></trkpt>
<trkpt lat="28.293477" lon="99.168289">
<time>2016-10-07T10:00:43Z</time></trkpt>
<trkpt lat="28.293357" lon="99.168329">
<time>2016-10-07T10:00:44Z</time></trkpt>
<trkpt lat="28.293247" lon="99.1684">
<time>2016-10-07T10:00:45Z</time></trkpt>
<trkpt lat="28.293137" lon="99.16849">
<time>2016-10-07T10:00:46Z</time></trkpt>
<trkpt lat="28.292938" lon="99.16874">
<time>2016-10-07T10:00:47Z</time></trkpt>
<trkpt lat="28.292828" lon="99.16887">
<time>2016-10-07T10:00:48Z</time></trkpt>
<trkpt lat="28.292778" lon="99.16892">
<time>2016-10-07T10:00:49Z</time></trkpt>
<trkpt lat="28.292738" lon="99.16895">
<time>2016-10-07T10:00:50Z</time></trkpt>
<trkpt lat="28.292628" lon="99.16899">
<time>2016-10-07T10:00:51Z</time></trkpt>
<trkpt lat="28.292538" lon="99.16901">
<time>2016-10-07T10:00:52Z</time></trkpt>
<trkpt lat="28.292438" lon="99.16902">
<time>2016-10-07T10:00:53Z</time></trkpt>
<trkpt lat="28.292318" lon="99.169">
<time>2016-10-07T10:00:54Z</time></trkpt>
<trkpt lat="28.292138" lon="99.16892">
<time>2016-10-07T10:00:55Z</time></trkpt>
<trkpt lat="28.292048" lon="99.16888">
<time>2016-10-07T10:00:56Z</time></trkpt>
<trkpt lat="28.291938" lon="99.16881">
<time>2016-10-07T10:00:57Z</time></trkpt>
<trkpt lat="28.291778" lon="99.16872">
<time>2016-10-07T10:00:58Z</time></trkpt>
<trkpt lat="28.291678" lon="99.16867">
<time>2016-10-07T10:00:59Z</time></trkpt>
<trkpt lat="28.291548" lon="99.16862">
<time>2016-10-07T10:01:00Z</time></trkpt>
<trkpt lat="28.291478" lon="99.1686">
<time>2016-10-07T10:01:01Z</time></trkpt>
<trkpt lat="28.291378" lon="99.16859">
<time>2016-10-07T10:01:02Z</time></trkpt>
<trkpt lat="28.291328" lon="99.1686">
<time>2016-10-07T10:01:03Z</time></trkpt>
<trkpt lat="28.291248" lon="99.16861">
<time>2016-10-07T10:01:04Z</time></trkpt>
<trkpt lat="28.291178" lon="99.16864">
<time>2016-10-07T10:01:05Z</time></trkpt>
<trkpt lat="28.291118" lon="99.16868">
<time>2016-10-07T10:01:06Z</time></trkpt>
<trkpt lat="28.291058" lon="99.16873">
<time>2016-10-07T10:01:07Z</time></trkpt>
<trkpt lat="28.291008" lon="99.16879">
<time>2016-10-07T10:01:08Z</time></trkpt>
<trkpt lat="28.290928" lon="99.1689">
<time>2016-10-07T10:01:09Z</time></trkpt>
<trkpt lat="28.290858" lon="99.16906">
<time>2016-10-07T10:01:10Z</time></trkpt>
<trkpt lat="28.290749" lon="99.169331">
<time>2016-10-07T10:01:11Z</time></trkpt>
<trkpt lat="28.290709" lon="99.169501">
<time>2016-10-07T10:01:12Z</time></trkpt>
<trkpt lat="28.290669" lon="99.169621">
<time>2016-10-07T10:01:13Z</time></trkpt>
<trkpt lat="28.29064" lon="99.169852">
<time>2016-10-07T10:01:14Z</time></trkpt>
<trkpt lat="28.29064" lon="99.170112">
<time>2016-10-07T10:01:15Z</time></trkpt>
<trkpt lat="28.290641" lon="99.170202">
<time>2016-10-07T10:01:16Z</time></trkpt>
<trkpt lat="28.290661" lon="99.170352">
<time>2016-10-07T10:01:17Z</time></trkpt>
<trkpt lat="28.290701" lon="99.170512">
<time>2016-10-07T10:01:18Z</time></trkpt>
<trkpt lat="28.290752" lon="99.170753">
<time>2016-10-07T10:01:19Z</time></trkpt>
<trkpt lat="28.290873" lon="99.171313">
<time>2016-10-07T10:01:20Z</time></trkpt>
<trkpt lat="28.290943" lon="99.171604">
<time>2016-10-07T10:01:21Z</time></trkpt>
<trkpt lat="28.290964" lon="99.171764">
<time>2016-10-07T10:01:22Z</time></trkpt>
<trkpt lat="28.290974" lon="99.171824">
<time>2016-10-07T10:01:23Z</time></trkpt>
<trkpt lat="28.290964" lon="99.171914">
<time>2016-10-07T10:01:24Z</time></trkpt>
<trkpt lat="28.290954" lon="99.172004">
<time>2016-10-07T10:01:25Z</time></trkpt>
<trkpt lat="28.290894" lon="99.172185">
<time>2016-10-07T10:01:26Z</time></trkpt>
<trkpt lat="28.290845" lon="99.172295">
<time>2016-10-07T10:01:27Z</time></trkpt>
<trkpt lat="28.290825" lon="99.172335">
<time>2016-10-07T10:01:28Z</time></trkpt>
<trkpt lat="28.290775" lon="99.172405">
<time>2016-10-07T10:01:29Z</time></trkpt>
<trkpt lat="28.290725" lon="99.172485">
<time>2016-10-07T10:01:30Z</time></trkpt>
<trkpt lat="28.290625" lon="99.172595">
<time>2016-10-07T10:01:31Z</time></trkpt>
<trkpt lat="28.290495" lon="99.172675">
<time>2016-10-07T10:01:32Z</time></trkpt>
<trkpt lat="28.290375" lon="99.172765">
<time>2016-10-07T10:01:33Z</time></trkpt>
<trkpt lat="28.290276" lon="99.172856">
<time>2016-10-07T10:01:34Z</time></trkpt>
<trkpt lat="28.290136" lon="99.172996">
<time>2016-10-07T10:01:35Z</time></trkpt>
<trkpt lat="28.290046" lon="99.173136">
<time>2016-10-07T10:01:36Z</time></trkpt>
<trkpt lat="28.289966" lon="99.173296">
<time>2016-10-07T10:01:37Z</time></trkpt>
<trkpt lat="28.289857" lon="99.173597">
<time>2016-10-07T10:01:38Z</time></trkpt>
<trkpt lat="28.289817" lon="99.173757">
<time>2016-10-07T10:01:39Z</time></trkpt>
<trkpt lat="28.289738" lon="99.174137">
<time>2016-10-07T10:01:40Z</time></trkpt>
<trkpt lat="28.289698" lon="99.174277">
<time>2016-10-07T10:01:41Z</time></trkpt>
<trkpt lat="28.289639" lon="99.174428">
<time>2016-10-07T10:01:42Z</time></trkpt>
<trkpt lat="28.289569" lon="99.174588">
<time>2016-10-07T10:01:43Z</time></trkpt>
<trkpt lat="28.289499" lon="99.174728">
<time>2016-10-07T10:01:44Z</time></trkpt>
<trkpt lat="28.28916" lon="99.175399">
<time>2016-10-07T10:01:45Z</time></trkpt>
<trkpt lat="28.289031" lon="99.175649">
<time>2016-10-07T10:01:46Z</time></trkpt>
<trkpt lat="28.288981" lon="99.175799">
<time>2016-10-07T10:01:47Z</time></trkpt>
<trkpt lat="28.288941" lon="99.17591">
<time>2016-10-07T10:01:48Z</time></trkpt>
<trkpt lat="28.288912" lon="99.17604">
<time>2016-10-07T10:01:49Z</time></trkpt>
<trkpt lat="28.288872" lon="99.17624">
<time>2016-10-07T10:01:50Z</time></trkpt>
<trkpt lat="28.288852" lon="99.17634">
<time>2016-10-07T10:01:51Z</time></trkpt>
<trkpt lat="28.288813" lon="99.176821">
<time>2016-10-07T10:01:52Z</time></trkpt>
<trkpt lat="28.288764" lon="99.177331">
<time>2016-10-07T10:01:53Z</time></trkpt>
<trkpt lat="28.288734" lon="99.177482">
<time>2016-10-07T10:01:54Z</time></trkpt>
<trkpt lat="28.288705" lon="99.177612">
<time>2016-10-07T10:01:55Z</time></trkpt>
<trkpt lat="28.288675" lon="99.177762">
<time>2016-10-07T10:01:56Z</time></trkpt>
<trkpt lat="28.288645" lon="99.177852">
<time>2016-10-07T10:01:57Z</time></trkpt>
<trkpt lat="28.288615" lon="99.177942">
<time>2016-10-07T10:01:58Z</time></trkpt>
<trkpt lat="28.288456" lon="99.178293">
<time>2016-10-07T10:01:59Z</time></trkpt>
<trkpt lat="28.288376" lon="99.178463">
<time>2016-10-07T10:02:00Z</time></trkpt>
<trkpt lat="28.288307" lon="99.178653">
<time>2016-10-07T10:02:01Z</time></trkpt>
<trkpt lat="28.288277" lon="99.178773">
<time>2016-10-07T10:02:02Z</time></trkpt>
<trkpt lat="28.288257" lon="99.178893">
<time>2016-10-07T10:02:03Z</time></trkpt>
<trkpt lat="28.288208" lon="99.179274">
<time>2016-10-07T10:02:04Z</time></trkpt>
<trkpt lat="28.288178" lon="99.179484">
<time>2016-10-07T10:02:05Z</time></trkpt>
<trkpt lat="28.288128" lon="99.179664">
<time>2016-10-07T10:02:06Z</time></trkpt>
<trkpt lat="28.288069" lon="99.179775">
<time>2016-10-07T10:02:07Z</time></trkpt>
<trkpt lat="28.287999" lon="99.179885">
<time>2016-10-07T10:02:08Z</time></trkpt>
<trkpt lat="28.28767" lon="99.180305">
<time>2016-10-07T10:02:09Z</time></trkpt>
<trkpt lat="28.28742" lon="99.180596">
<time>2016-10-07T10:02:10Z</time></trkpt>
<trkpt lat="28.287201" lon="99.180856">
<time>2016-10-07T10:02:11Z</time></trkpt>
<trkpt lat="28.287081" lon="99.180966">
<time>2016-10-07T10:02:12Z</time></trkpt>
<trkpt lat="28.286941" lon="99.181066">
<time>2016-10-07T10:02:13Z</time></trkpt>
<trkpt lat="28.286661" lon="99.181217">
<time>2016-10-07T10:02:14Z</time></trkpt>
<trkpt lat="28.286532" lon="99.181297">
<time>2016-10-07T10:02:15Z</time></trkpt>
<trkpt lat="28.286352" lon="99.181417">
<time>2016-10-07T10:02:16Z</time></trkpt>
<trkpt lat="28.286232" lon="99.181517">
<time>2016-10-07T10:02:17Z</time></trkpt>
<trkpt lat="28.286102" lon="99.181617">
<time>2016-10-07T10:02:18Z</time></trkpt>
<trkpt lat="28.285713" lon="99.182008">
<time>2016-10-07T10:02:19Z</time></trkpt>
<trkpt lat="28.285384" lon="99.182328">
<time>2016-10-07T10:02:20Z</time></trkpt>
<trkpt lat="28.285274" lon="99.182458">
<time>2016-10-07T10:02:21Z</time></trkpt>
<trkpt lat="28.285204" lon="99.182538">
<time>2016-10-07T10:02:22Z</time></trkpt>
<trkpt lat="28.285134" lon="99.182648">
<time>2016-10-07T10:02:23Z</time></trkpt>
<trkpt lat="28.285074" lon="99.182779">
<time>2016-10-07T10:02:24Z</time></trkpt>
<trkpt lat="28.285035" lon="99.182909">
<time>2016-10-07T10:02:25Z</time></trkpt>
<trkpt lat="28.284995" lon="99.183049">
<time>2016-10-07T10:02:26Z</time></trkpt>
<trkpt lat="28.284985" lon="99.183179">
<time>2016-10-07T10:02:27Z</time></trkpt>
<trkpt lat="28.284975" lon="99.183329">
<time>2016-10-07T10:02:28Z</time></trkpt>
<trkpt lat="28.284986" lon="99.183439">
<time>2016-10-07T10:02:29Z</time></trkpt>
<trkpt lat="28.285006" lon="99.1836">
<time>2016-10-07T10:02:30Z</time></trkpt>
<trkpt lat="28.285026" lon="99.18369">
<time>2016-10-07T10:02:31Z</time></trkpt>
<trkpt lat="28.285056" lon="99.1838">
<time>2016-10-07T10:02:32Z</time></trkpt>
<trkpt lat="28.285127" lon="99.184">
<time>2016-10-07T10:02:33Z</time></trkpt>
<trkpt lat="28.285197" lon="99.18419">
<time>2016-10-07T10:02:34Z</time></trkpt>
<trkpt lat="28.285478" lon="99.184951">
<time>2016-10-07T10:02:35Z</time></trkpt>
<trkpt lat="28.285569" lon="99.185152">
<time>2016-10-07T10:02:36Z</time></trkpt>
<trkpt lat="28.285639" lon="99.185282">
<time>2016-10-07T10:02:37Z</time></trkpt>
<trkpt lat="28.285739" lon="99.185432">
<time>2016-10-07T10:02:38Z</time></trkpt>
<trkpt lat="28.285819" lon="99.185532">
<time>2016-10-07T10:02:39Z</time></trkpt>
<trkpt lat="28.28606" lon="99.185842">
<time>2016-10-07T10:02:40Z</time></trkpt>
<trkpt lat="28.28613" lon="99.185942">
<time>2016-10-07T10:02:41Z</time></trkpt>
<trkpt lat="28.28618" lon="99.186023">
<time>2016-10-07T10:02:42Z</time></trkpt>
<trkpt lat="28.28623" lon="99.186143">
<time>2016-10-07T10:02:43Z</time></trkpt>
<trkpt lat="28.286271" lon="99.186273">
<time>2016-10-07T10:02:44Z</time></trkpt>
<trkpt lat="28.286301" lon="99.186373">
<time>2016-10-07T10:02:45Z</time></trkpt>
<trkpt lat="28.286311" lon="99.186523">
<time>2016-10-07T10:02:46Z</time></trkpt>
<trkpt lat="28.286311" lon="99.186653">
<time>2016-10-07T10:02:47Z</time></trkpt>
<trkpt lat="28.286302" lon="99.186814">
<time>2016-10-07T10:02:48Z</time></trkpt>
<trkpt lat="28.286282" lon="99.186904">
<time>2016-10-07T10:02:49Z</time></trkpt>
<trkpt lat="28.286252" lon="99.187024">
<time>2016-10-07T10:02:50Z</time></trkpt>
<trkpt lat="28.286212" lon="99.187144">
<time>2016-10-07T10:02:51Z</time></trkpt>
<trkpt lat="28.286133" lon="99.187294">
<time>2016-10-07T10:02:52Z</time></trkpt>
<trkpt lat="28.285943" lon="99.187595">
<time>2016-10-07T10:02:53Z</time></trkpt>
<trkpt lat="28.285774" lon="99.187845">
<time>2016-10-07T10:02:54Z</time></trkpt>
<trkpt lat="28.285474" lon="99.188335">
<time>2016-10-07T10:02:55Z</time></trkpt>
<trkpt lat="28.285375" lon="99.188536">
<time>2016-10-07T10:02:56Z</time></trkpt>
<trkpt lat="28.285315" lon="99.188726">
<time>2016-10-07T10:02:57Z</time></trkpt>
<trkpt lat="28.285275" lon="99.188886">
<time>2016-10-07T10:02:58Z</time></trkpt>
<trkpt lat="28.285265" lon="99.188956">
<time>2016-10-07T10:02:59Z</time></trkpt>
<trkpt lat="28.285256" lon="99.189056">
<time>2016-10-07T10:03:00Z</time></trkpt>
<trkpt lat="28.285256" lon="99.189226">
<time>2016-10-07T10:03:01Z</time></trkpt>
<trkpt lat="28.285287" lon="99.189867">
<time>2016-10-07T10:03:02Z</time></trkpt>
<trkpt lat="28.285298" lon="99.190178">
<time>2016-10-07T10:03:03Z</time></trkpt>
<trkpt lat="28.285288" lon="99.190288">
<time>2016-10-07T10:03:04Z</time></trkpt>
<trkpt lat="28.285278" lon="99.190418">
<time>2016-10-07T10:03:05Z</time></trkpt>
<trkpt lat="28.285218" lon="99.190638">
<time>2016-10-07T10:03:06Z</time></trkpt>
<trkpt lat="28.285189" lon="99.190758">
<time>2016-10-07T10:03:07Z</time></trkpt>
<trkpt lat="28.285159" lon="99.190848">
<time>2016-10-07T10:03:08Z</time></trkpt>
<trkpt lat="28.285019" lon="99.191239">
<time>2016-10-07T10:03:09Z</time></trkpt>
<trkpt lat="28.28498" lon="99.191389">
<time>2016-10-07T10:03:10Z</time></trkpt>
<trkpt lat="28.28495" lon="99.191579">
<time>2016-10-07T10:03:11Z</time></trkpt>
<trkpt lat="28.28494" lon="99.191799">
<time>2016-10-07T10:03:12Z</time></trkpt>
<trkpt lat="28.284961" lon="99.19213">
<time>2016-10-07T10:03:13Z</time></trkpt>
<trkpt lat="28.284951" lon="99.19226">
<time>2016-10-07T10:03:14Z</time></trkpt>
<trkpt lat="28.284931" lon="99.19234">
<time>2016-10-07T10:03:15Z</time></trkpt>
<trkpt lat="28.284912" lon="99.19241">
<time>2016-10-07T10:03:16Z</time></trkpt>
<trkpt lat="28.284892" lon="99.19247">
<time>2016-10-07T10:03:17Z</time></trkpt>
<trkpt lat="28.284872" lon="99.19252">
<time>2016-10-07T10:03:18Z</time></trkpt>
<trkpt lat="28.284842" lon="99.19258">
<time>2016-10-07T10:03:19Z</time></trkpt>
<trkpt lat="28.284752" lon="99.192731">
<time>2016-10-07T10:03:20Z</time></trkpt>
<trkpt lat="28.284622" lon="99.192871">
<time>2016-10-07T10:03:21Z</time></trkpt>
<trkpt lat="28.284443" lon="99.193071">
<time>2016-10-07T10:03:22Z</time></trkpt>
<trkpt lat="28.284353" lon="99.193171">
<time>2016-10-07T10:03:23Z</time></trkpt>
<trkpt lat="28.284263" lon="99.193291">
<time>2016-10-07T10:03:24Z</time></trkpt>
<trkpt lat="28.284173" lon="99.193431">
<time>2016-10-07T10:03:25Z</time></trkpt>
<trkpt lat="28.284104" lon="99.193572">
<time>2016-10-07T10:03:26Z</time></trkpt>
<trkpt lat="28.284084" lon="99.193652">
<time>2016-10-07T10:03:27Z</time></trkpt>
<trkpt lat="28.284064" lon="99.193742">
<time>2016-10-07T10:03:28Z</time></trkpt>
<trkpt lat="28.284054" lon="99.193802">
<time>2016-10-07T10:03:29Z</time></trkpt>
<trkpt lat="28.284054" lon="99.193882">
<time>2016-10-07T10:03:30Z</time></trkpt>
<trkpt lat="28.284054" lon="99.193982">
<time>2016-10-07T10:03:31Z</time></trkpt>
<trkpt lat="28.284074" lon="99.194082">
<time>2016-10-07T10:03:32Z</time></trkpt>
<trkpt lat="28.284095" lon="99.194152">
<time>2016-10-07T10:03:33Z</time></trkpt>
<trkpt lat="28.284125" lon="99.194232">
<time>2016-10-07T10:03:34Z</time></trkpt>
<trkpt lat="28.284195" lon="99.194342">
<time>2016-10-07T10:03:35Z</time></trkpt>
<trkpt lat="28.284235" lon="99.194402">
<time>2016-10-07T10:03:36Z</time></trkpt>
<trkpt lat="28.284305" lon="99.194483">
<time>2016-10-07T10:03:37Z</time></trkpt>
<trkpt lat="28.284395" lon="99.194553">
<time>2016-10-07T10:03:38Z</time></trkpt>
<trkpt lat="28.284445" lon="99.194593">
<time>2016-10-07T10:03:39Z</time></trkpt>
<trkpt lat="28.284575" lon="99.194683">
<time>2016-10-07T10:03:40Z</time></trkpt>
<trkpt lat="28.285606" lon="99.195353">
<time>2016-10-07T10:03:41Z</time></trkpt>
<trkpt lat="28.286297" lon="99.195814">
<time>2016-10-07T10:03:42Z</time></trkpt>
<trkpt lat="28.286998" lon="99.196264">
<time>2016-10-07T10:03:43Z</time></trkpt>
<trkpt lat="28.287128" lon="99.196374">
<time>2016-10-07T10:03:44Z</time></trkpt>
<trkpt lat="28.287218" lon="99.196465">
<time>2016-10-07T10:03:45Z</time></trkpt>
<trkpt lat="28.287268" lon="99.196545">
<time>2016-10-07T10:03:46Z</time></trkpt>
<trkpt lat="28.287308" lon="99.196615">
<time>2016-10-07T10:03:47Z</time></trkpt>
<trkpt lat="28.287329" lon="99.196675">
<time>2016-10-07T10:03:48Z</time></trkpt>
<trkpt lat="28.287339" lon="99.196735">
<time>2016-10-07T10:03:49Z</time></trkpt>
<trkpt lat="28.287349" lon="99.196795">
<time>2016-10-07T10:03:50Z</time></trkpt>
<trkpt lat="28.287359" lon="99.196855">
<time>2016-10-07T10:03:51Z</time></trkpt>
<trkpt lat="28.287359" lon="99.196925">
<time>2016-10-07T10:03:52Z</time></trkpt>
<trkpt lat="28.287349" lon="99.197025">
<time>2016-10-07T10:03:53Z</time></trkpt>
<trkpt lat="28.287329" lon="99.197115">
<time>2016-10-07T10:03:54Z</time></trkpt>
<trkpt lat="28.287299" lon="99.197205">
<time>2016-10-07T10:03:55Z</time></trkpt>
<trkpt lat="28.28725" lon="99.197366">
<time>2016-10-07T10:03:56Z</time></trkpt>
<trkpt lat="28.28719" lon="99.197496">
<time>2016-10-07T10:03:57Z</time></trkpt>
<trkpt lat="28.28714" lon="99.197606">
<time>2016-10-07T10:03:58Z</time></trkpt>
<trkpt lat="28.28711" lon="99.197676">
<time>2016-10-07T10:03:59Z</time></trkpt>
<trkpt lat="28.2871" lon="99.197716">
<time>2016-10-07T10:04:00Z</time></trkpt>
<trkpt lat="28.28709" lon="99.197776">
<time>2016-10-07T10:04:01Z</time></trkpt>
<trkpt lat="28.28709" lon="99.197826">
<time>2016-10-07T10:04:02Z</time></trkpt>
<trkpt lat="28.2871" lon="99.197876">
<time>2016-10-07T10:04:03Z</time></trkpt>
<trkpt lat="28.287111" lon="99.197916">
<time>2016-10-07T10:04:04Z</time></trkpt>
<trkpt lat="28.287131" lon="99.197946">
<time>2016-10-07T10:04:05Z</time></trkpt>
<trkpt lat="28.287151" lon="99.197986">
<time>2016-10-07T10:04:06Z</time></trkpt>
<trkpt lat="28.287181" lon="99.198016">
<time>2016-10-07T10:04:07Z</time></trkpt>
<trkpt lat="28.287211" lon="99.198036">
<time>2016-10-07T10:04:08Z</time></trkpt>
<trkpt lat="28.287241" lon="99.198056">
<time>2016-10-07T10:04:09Z</time></trkpt>
<trkpt lat="28.287291" lon="99.198076">
<time>2016-10-07T10:04:10Z</time></trkpt>
<trkpt lat="28.287321" lon="99.198086">
<time>2016-10-07T10:04:11Z</time></trkpt>
<trkpt lat="28.287361" lon="99.198086">
<time>2016-10-07T10:04:12Z</time></trkpt>
<trkpt lat="28.287411" lon="99.198076">
<time>2016-10-07T10:04:13Z</time></trkpt>
<trkpt lat="28.287491" lon="99.198036">
<time>2016-10-07T10:04:14Z</time></trkpt>
<trkpt lat="28.287541" lon="99.197996">
<time>2016-10-07T10:04:15Z</time></trkpt>
<trkpt lat="28.287631" lon="99.197906">
<time>2016-10-07T10:04:16Z</time></trkpt>
<trkpt lat="28.28774" lon="99.197776">
<time>2016-10-07T10:04:17Z</time></trkpt>
<trkpt lat="28.28786" lon="99.197626">
<time>2016-10-07T10:04:18Z</time></trkpt>
<trkpt lat="28.28794" lon="99.197506">
<time>2016-10-07T10:04:19Z</time></trkpt>
<trkpt lat="28.28799" lon="99.197426">
<time>2016-10-07T10:04:20Z</time></trkpt>
<trkpt lat="28.28802" lon="99.197366">
<time>2016-10-07T10:04:21Z</time></trkpt>
<trkpt lat="28.288049" lon="99.197295">
<time>2016-10-07T10:04:22Z</time></trkpt>
<trkpt lat="28.288069" lon="99.197235">
<time>2016-10-07T10:04:23Z</time></trkpt>
<trkpt lat="28.288089" lon="99.197175">
<time>2016-10-07T10:04:24Z</time></trkpt>
<trkpt lat="28.288109" lon="99.197055">
<time>2016-10-07T10:04:25Z</time></trkpt>
<trkpt lat="28.288099" lon="99.196955">
<time>2016-10-07T10:04:26Z</time></trkpt>
<trkpt lat="28.288079" lon="99.196835">
<time>2016-10-07T10:04:27Z</time></trkpt>
<trkpt lat="28.288019" lon="99.196715">
<time>2016-10-07T10:04:28Z</time></trkpt>
<trkpt lat="28.287958" lon="99.196605">
<time>2016-10-07T10:04:29Z</time></trkpt>
<trkpt lat="28.287858" lon="99.196505">
<time>2016-10-07T10:04:30Z</time></trkpt>
<trkpt lat="28.287488" lon="99.196194">
<time>2016-10-07T10:04:31Z</time></trkpt>
<trkpt lat="28.287167" lon="99.195914">
<time>2016-10-07T10:04:32Z</time></trkpt>
<trkpt lat="28.286907" lon="99.195684">
<time>2016-10-07T10:04:33Z</time></trkpt>
<trkpt lat="28.286607" lon="99.195444">
<time>2016-10-07T10:04:34Z</time></trkpt>
<trkpt lat="28.286416" lon="99.195293">
<time>2016-10-07T10:04:35Z</time></trkpt>
<trkpt lat="28.286046" lon="99.195033">
<time>2016-10-07T10:04:36Z</time></trkpt>
<trkpt lat="28.285685" lon="99.194763">
<time>2016-10-07T10:04:37Z</time></trkpt>
<trkpt lat="28.285465" lon="99.194613">
<time>2016-10-07T10:04:38Z</time></trkpt>
<trkpt lat="28.285415" lon="99.194573">
<time>2016-10-07T10:04:39Z</time></trkpt>
<trkpt lat="28.285315" lon="99.194482">
<time>2016-10-07T10:04:40Z</time></trkpt>
<trkpt lat="28.285275" lon="99.194422">
<time>2016-10-07T10:04:41Z</time></trkpt>
<trkpt lat="28.285245" lon="99.194372">
<time>2016-10-07T10:04:42Z</time></trkpt>
<trkpt lat="28.285185" lon="99.194252">
<time>2016-10-07T10:04:43Z</time></trkpt>
<trkpt lat="28.285154" lon="99.194142">
<time>2016-10-07T10:04:44Z</time></trkpt>
<trkpt lat="28.285144" lon="99.194072">
<time>2016-10-07T10:04:45Z</time></trkpt>
<trkpt lat="28.285144" lon="99.193992">
<time>2016-10-07T10:04:46Z</time></trkpt>
<trkpt lat="28.285154" lon="99.193942">
<time>2016-10-07T10:04:47Z</time></trkpt>
<trkpt lat="28.285164" lon="99.193882">
<time>2016-10-07T10:04:48Z</time></trkpt>
<trkpt lat="28.285194" lon="99.193802">
<time>2016-10-07T10:04:49Z</time></trkpt>
<trkpt lat="28.285234" lon="99.193702">
<time>2016-10-07T10:04:50Z</time></trkpt>
<trkpt lat="28.285284" lon="99.193622">
<time>2016-10-07T10:04:51Z</time></trkpt>
<trkpt lat="28.285343" lon="99.193551">
<time>2016-10-07T10:04:52Z</time></trkpt>
<trkpt lat="28.285463" lon="99.193431">
<time>2016-10-07T10:04:53Z</time></trkpt>
<trkpt lat="28.285653" lon="99.193231">
<time>2016-10-07T10:04:54Z</time></trkpt>
<trkpt lat="28.285783" lon="99.193051">
<time>2016-10-07T10:04:55Z</time></trkpt>
<trkpt lat="28.285812" lon="99.192991">
<time>2016-10-07T10:04:56Z</time></trkpt>
<trkpt lat="28.285842" lon="99.192911">
<time>2016-10-07T10:04:57Z</time></trkpt>
<trkpt lat="28.285882" lon="99.192811">
<time>2016-10-07T10:04:58Z</time></trkpt>
<trkpt lat="28.285922" lon="99.19269">
<time>2016-10-07T10:04:59Z</time></trkpt>
<trkpt lat="28.285962" lon="99.19244">
<time>2016-10-07T10:05:00Z</time></trkpt>
<trkpt lat="28.286021" lon="99.19205">
<time>2016-10-07T10:05:01Z</time></trkpt>
<trkpt lat="28.28611" lon="99.191579">
<time>2016-10-07T10:05:02Z</time></trkpt>
<trkpt lat="28.28615" lon="99.191339">
<time>2016-10-07T10:05:03Z</time></trkpt>
<trkpt lat="28.286189" lon="99.191079">
<time>2016-10-07T10:05:04Z</time></trkpt>
<trkpt lat="28.286229" lon="99.190748">
<time>2016-10-07T10:05:05Z</time></trkpt>
<trkpt lat="28.286248" lon="99.190478">
<time>2016-10-07T10:05:06Z</time></trkpt>
<trkpt lat="28.286277" lon="99.189727">
<time>2016-10-07T10:05:07Z</time></trkpt>
<trkpt lat="28.286296" lon="99.189327">
<time>2016-10-07T10:05:08Z</time></trkpt>
<trkpt lat="28.286296" lon="99.189236">
<time>2016-10-07T10:05:09Z</time></trkpt>
<trkpt lat="28.286306" lon="99.189106">
<time>2016-10-07T10:05:10Z</time></trkpt>
<trkpt lat="28.286325" lon="99.188946">
<time>2016-10-07T10:05:11Z</time></trkpt>
<trkpt lat="28.286345" lon="99.188856">
<time>2016-10-07T10:05:12Z</time></trkpt>
<trkpt lat="28.286365" lon="99.188766">
<time>2016-10-07T10:05:13Z</time></trkpt>
<trkpt lat="28.286415" lon="99.188626">
<time>2016-10-07T10:05:14Z</time></trkpt>
<trkpt lat="28.286465" lon="99.188526">
<time>2016-10-07T10:05:15Z</time></trkpt>
<trkpt lat="28.286534" lon="99.188385">
<time>2016-10-07T10:05:16Z</time></trkpt>
<trkpt lat="28.286604" lon="99.188265">
<time>2016-10-07T10:05:17Z</time></trkpt>
<trkpt lat="28.286903" lon="99.187805">
<time>2016-10-07T10:05:18Z</time></trkpt>
<trkpt lat="28.287143" lon="99.187454">
<time>2016-10-07T10:05:19Z</time></trkpt>
<trkpt lat="28.287242" lon="99.187304">
<time>2016-10-07T10:05:20Z</time></trkpt>
<trkpt lat="28.287312" lon="99.187164">
<time>2016-10-07T10:05:21Z</time></trkpt>
<trkpt lat="28.287372" lon="99.187024">
<time>2016-10-07T10:05:22Z</time></trkpt>
<trkpt lat="28.287412" lon="99.186844">
<time>2016-10-07T10:05:23Z</time></trkpt>
<trkpt lat="28.287431" lon="99.186753">
<time>2016-10-07T10:05:24Z</time></trkpt>
<trkpt lat="28.287431" lon="99.186653">
<time>2016-10-07T10:05:25Z</time></trkpt>
<trkpt lat="28.287441" lon="99.186563">
<time>2016-10-07T10:05:26Z</time></trkpt>
<trkpt lat="28.287441" lon="99.186443">
<time>2016-10-07T10:05:27Z</time></trkpt>
<trkpt lat="28.287431" lon="99.186333">
<time>2016-10-07T10:05:28Z</time></trkpt>
<trkpt lat="28.28741" lon="99.186143">
<time>2016-10-07T10:05:29Z</time></trkpt>
<trkpt lat="28.287309" lon="99.185542">
<time>2016-10-07T10:05:30Z</time></trkpt>
<trkpt lat="28.287208" lon="99.184881">
<time>2016-10-07T10:05:31Z</time></trkpt>
<trkpt lat="28.287147" lon="99.184531">
<time>2016-10-07T10:05:32Z</time></trkpt>
<trkpt lat="28.287087" lon="99.18416">
<time>2016-10-07T10:05:33Z</time></trkpt>
<trkpt lat="28.287046" lon="99.1839">
<time>2016-10-07T10:05:34Z</time></trkpt>
<trkpt lat="28.287036" lon="99.18382">
<time>2016-10-07T10:05:35Z</time></trkpt>
<trkpt lat="28.287036" lon="99.18376">
<time>2016-10-07T10:05:36Z</time></trkpt>
<trkpt lat="28.287036" lon="99.18369">
<time>2016-10-07T10:05:37Z</time></trkpt>
<trkpt lat="28.287046" lon="99.18361">
<time>2016-10-07T10:05:38Z</time></trkpt>
<trkpt lat="28.287066" lon="99.183509">
<time>2016-10-07T10:05:39Z</time></trkpt>
<trkpt lat="28.287076" lon="99.183449">
<time>2016-10-07T10:05:40Z</time></trkpt>
<trkpt lat="28.287095" lon="99.183389">
<time>2016-10-07T10:05:41Z</time></trkpt>
<trkpt lat="28.287115" lon="99.183349">
<time>2016-10-07T10:05:42Z</time></trkpt>
<trkpt lat="28.287145" lon="99.183289">
<time>2016-10-07T10:05:43Z</time></trkpt>
<trkpt lat="28.287185" lon="99.183229">
<time>2016-10-07T10:05:44Z</time></trkpt>
<trkpt lat="28.287215" lon="99.183189">
<time>2016-10-07T10:05:45Z</time></trkpt>
<trkpt lat="28.287245" lon="99.183149">
<time>2016-10-07T10:05:46Z</time></trkpt>
<trkpt lat="28.287305" lon="99.183099">
<time>2016-10-07T10:05:47Z</time></trkpt>
<trkpt lat="28.287355" lon="99.183059">
<time>2016-10-07T10:05:48Z</time></trkpt>
<trkpt lat="28.287425" lon="99.183009">
<time>2016-10-07T10:05:49Z</time></trkpt>
<trkpt lat="28.287505" lon="99.182959">
<time>2016-10-07T10:05:50Z</time></trkpt>
<trkpt lat="28.287724" lon="99.182859">
<time>2016-10-07T10:05:51Z</time></trkpt>
<trkpt lat="28.287904" lon="99.182788">
<time>2016-10-07T10:05:52Z</time></trkpt>
<trkpt lat="28.288054" lon="99.182728">
<time>2016-10-07T10:05:53Z</time></trkpt>
<trkpt lat="28.288304" lon="99.182618">
<time>2016-10-07T10:05:54Z</time></trkpt>
<trkpt lat="28.288474" lon="99.182528">
<time>2016-10-07T10:05:55Z</time></trkpt>
<trkpt lat="28.288564" lon="99.182468">
<time>2016-10-07T10:05:56Z</time></trkpt>
<trkpt lat="28.288634" lon="99.182408">
<time>2016-10-07T10:05:57Z</time></trkpt>
<trkpt lat="28.288693" lon="99.182358">
<time>2016-10-07T10:05:58Z</time></trkpt>
<trkpt lat="28.288753" lon="99.182268">
<time>2016-10-07T10:05:59Z</time></trkpt>
<trkpt lat="28.288803" lon="99.182208">
<time>2016-10-07T10:06:00Z</time></trkpt>
<trkpt lat="28.288863" lon="99.182108">
<time>2016-10-07T10:06:01Z</time></trkpt>
<trkpt lat="28.288923" lon="99.181977">
<time>2016-10-07T10:06:02Z</time></trkpt>
<trkpt lat="28.288973" lon="99.181857">
<time>2016-10-07T10:06:03Z</time></trkpt>
<trkpt lat="28.289032" lon="99.181747">
<time>2016-10-07T10:06:04Z</time></trkpt>
<trkpt lat="28.289112" lon="99.181587">
<time>2016-10-07T10:06:05Z</time></trkpt>
<trkpt lat="28.289182" lon="99.181457">
<time>2016-10-07T10:06:06Z</time></trkpt>
<trkpt lat="28.289272" lon="99.181337">
<time>2016-10-07T10:06:07Z</time></trkpt>
<trkpt lat="28.289451" lon="99.181126">
<time>2016-10-07T10:06:08Z</time></trkpt>
<trkpt lat="28.2899" lon="99.180666">
<time>2016-10-07T10:06:09Z</time></trkpt>
<trkpt lat="28.29005" lon="99.180486">
<time>2016-10-07T10:06:10Z</time></trkpt>
<trkpt lat="28.29013" lon="99.180375">
<time>2016-10-07T10:06:11Z</time></trkpt>
<trkpt lat="28.290269" lon="99.180155">
<time>2016-10-07T10:06:12Z</time></trkpt>
<trkpt lat="28.290379" lon="99.179955">
<time>2016-10-07T10:06:13Z</time></trkpt>
<trkpt lat="28.290439" lon="99.179815">
<time>2016-10-07T10:06:14Z</time></trkpt>
<trkpt lat="28.290707" lon="99.179124">
<time>2016-10-07T10:06:15Z</time></trkpt>
<trkpt lat="28.290827" lon="99.178823">
<time>2016-10-07T10:06:16Z</time></trkpt>
<trkpt lat="28.290926" lon="99.178593">
<time>2016-10-07T10:06:17Z</time></trkpt>
<trkpt lat="28.291066" lon="99.178303">
<time>2016-10-07T10:06:18Z</time></trkpt>
<trkpt lat="28.291215" lon="99.178042">
<time>2016-10-07T10:06:19Z</time></trkpt>
<trkpt lat="28.291704" lon="99.177141">
<time>2016-10-07T10:06:20Z</time></trkpt>
<trkpt lat="28.291813" lon="99.176981">
<time>2016-10-07T10:06:21Z</time></trkpt>
<trkpt lat="28.291893" lon="99.176881">
<time>2016-10-07T10:06:22Z</time></trkpt>
<trkpt lat="28.291953" lon="99.176831">
<time>2016-10-07T10:06:23Z</time></trkpt>
<trkpt lat="28.292013" lon="99.176781">
<time>2016-10-07T10:06:24Z</time></trkpt>
<trkpt lat="28.292113" lon="99.176711">
<time>2016-10-07T10:06:25Z</time></trkpt>
<trkpt lat="28.292203" lon="99.17666">
<time>2016-10-07T10:06:26Z</time></trkpt>
<trkpt lat="28.292303" lon="99.17663">
<time>2016-10-07T10:06:27Z</time></trkpt>
<trkpt lat="28.292393" lon="99.1766">
<time>2016-10-07T10:06:28Z</time></trkpt>
<trkpt lat="28.292483" lon="99.17659">
<time>2016-10-07T10:06:29Z</time></trkpt>
<trkpt lat="28.292582" lon="99.17658">
<time>2016-10-07T10:06:30Z</time></trkpt>
<trkpt lat="28.292683" lon="99.17659">
<time>2016-10-07T10:06:31Z</time></trkpt>
<trkpt lat="28.292893" lon="99.17663">
<time>2016-10-07T10:06:32Z</time></trkpt>
<trkpt lat="28.293153" lon="99.17668">
<time>2016-10-07T10:06:33Z</time></trkpt>
<trkpt lat="28.293523" lon="99.176781">
<time>2016-10-07T10:06:34Z</time></trkpt>
<trkpt lat="28.293693" lon="99.176811">
<time>2016-10-07T10:06:35Z</time></trkpt>
<trkpt lat="28.293843" lon="99.176831">
<time>2016-10-07T10:06:36Z</time></trkpt>
<trkpt lat="28.294043" lon="99.176831">
<time>2016-10-07T10:06:37Z</time></trkpt>
<trkpt lat="28.294153" lon="99.176821">
<time>2016-10-07T10:06:38Z</time></trkpt>
<trkpt lat="28.294283" lon="99.176801">
<time>2016-10-07T10:06:39Z</time></trkpt>
<trkpt lat="28.294373" lon="99.176771">
<time>2016-10-07T10:06:40Z</time></trkpt>
<trkpt lat="28.294503" lon="99.176721">
<time>2016-10-07T10:06:41Z</time></trkpt>
<trkpt lat="28.294583" lon="99.17668">
<time>2016-10-07T10:06:42Z</time></trkpt>
<trkpt lat="28.294633" lon="99.17665">
<time>2016-10-07T10:06:43Z</time></trkpt>
<trkpt lat="28.294712" lon="99.17659">
<time>2016-10-07T10:06:44Z</time></trkpt>
<trkpt lat="28.294792" lon="99.17652">
<time>2016-10-07T10:06:45Z</time></trkpt>
<trkpt lat="28.294882" lon="99.17643">
<time>2016-10-07T10:06:46Z</time></trkpt>
<trkpt lat="28.294922" lon="99.17638">
<time>2016-10-07T10:06:47Z</time></trkpt>
<trkpt lat="28.295012" lon="99.17627">
<time>2016-10-07T10:06:48Z</time></trkpt>
<trkpt lat="28.295052" lon="99.1762">
<time>2016-10-07T10:06:49Z</time></trkpt>
<trkpt lat="28.295101" lon="99.17611">
<time>2016-10-07T10:06:50Z</time></trkpt>
<trkpt lat="28.295141" lon="99.17601">
<time>2016-10-07T10:06:51Z</time></trkpt>
<trkpt lat="28.295181" lon="99.175899">
<time>2016-10-07T10:06:52Z</time></trkpt>
<trkpt lat="28.295221" lon="99.175759">
<time>2016-10-07T10:06:53Z</time></trkpt>
<trkpt lat="28.29526" lon="99.175559">
<time>2016-10-07T10:06:54Z</time></trkpt>
<trkpt lat="28.29531" lon="99.175289">
<time>2016-10-07T10:06:55Z</time></trkpt>
<trkpt lat="28.295369" lon="99.174818">
<time>2016-10-07T10:06:56Z</time></trkpt>
<trkpt lat="28.295408" lon="99.174478">
<time>2016-10-07T10:06:57Z</time></trkpt>
<trkpt lat="28.295448" lon="99.174187">
<time>2016-10-07T10:06:58Z</time></trkpt>
<trkpt lat="28.295477" lon="99.173977">
<time>2016-10-07T10:06:59Z</time></trkpt>
<trkpt lat="28.295507" lon="99.173847">
<time>2016-10-07T10:07:00Z</time></trkpt>
<trkpt lat="28.295557" lon="99.173666">
<time>2016-10-07T10:07:01Z</time></trkpt>
<trkpt lat="28.295607" lon="99.173536">
<time>2016-10-07T10:07:02Z</time></trkpt>
<trkpt lat="28.295696" lon="99.173346">
<time>2016-10-07T10:07:03Z</time></trkpt>
<trkpt lat="28.295796" lon="99.173176">
<time>2016-10-07T10:07:04Z</time></trkpt>
<trkpt lat="28.295916" lon="99.173006">
<time>2016-10-07T10:07:05Z</time></trkpt>
<trkpt lat="28.296025" lon="99.172875">
<time>2016-10-07T10:07:06Z</time></trkpt>
<trkpt lat="28.296165" lon="99.172745">
<time>2016-10-07T10:07:07Z</time></trkpt>
<trkpt lat="28.296295" lon="99.172635">
<time>2016-10-07T10:07:08Z</time></trkpt>
<trkpt lat="28.296425" lon="99.172555">
<time>2016-10-07T10:07:09Z</time></trkpt>
<trkpt lat="28.296575" lon="99.172475">
<time>2016-10-07T10:07:10Z</time></trkpt>
<trkpt lat="28.296644" lon="99.172445">
<time>2016-10-07T10:07:11Z</time></trkpt>
<trkpt lat="28.296744" lon="99.172405">
<time>2016-10-07T10:07:12Z</time></trkpt>
<trkpt lat="28.296884" lon="99.172365">
<time>2016-10-07T10:07:13Z</time></trkpt>
<trkpt lat="28.297044" lon="99.172325">
<time>2016-10-07T10:07:14Z</time></trkpt>
<trkpt lat="28.297404" lon="99.172285">
<time>2016-10-07T10:07:15Z</time></trkpt>
<trkpt lat="28.297814" lon="99.172225">
<time>2016-10-07T10:07:16Z</time></trkpt>
<trkpt lat="28.298684" lon="99.172114">
<time>2016-10-07T10:07:17Z</time></trkpt>
<trkpt lat="28.299443" lon="99.172024">
<time>2016-10-07T10:07:18Z</time></trkpt>
<trkpt lat="28.299663" lon="99.171984">
<time>2016-10-07T10:07:19Z</time></trkpt>
<trkpt lat="28.299763" lon="99.171964">
<time>2016-10-07T10:07:20Z</time></trkpt>
<trkpt lat="28.299873" lon="99.171934">
<time>2016-10-07T10:07:21Z</time></trkpt>
<trkpt lat="28.299973" lon="99.171874">
<time>2016-10-07T10:07:22Z</time></trkpt>
<trkpt lat="28.300073" lon="99.171784">
<time>2016-10-07T10:07:23Z</time></trkpt>
<trkpt lat="28.300133" lon="99.171694">
<time>2016-10-07T10:07:24Z</time></trkpt>
<trkpt lat="28.300163" lon="99.171634">
<time>2016-10-07T10:07:25Z</time></trkpt>
<trkpt lat="28.300193" lon="99.171564">
<time>2016-10-07T10:07:26Z</time></trkpt>
<trkpt lat="28.300202" lon="99.171514">
<time>2016-10-07T10:07:27Z</time></trkpt>
<trkpt lat="28.300222" lon="99.171423">
<time>2016-10-07T10:07:28Z</time></trkpt>
<trkpt lat="28.300222" lon="99.171363">
<time>2016-10-07T10:07:29Z</time></trkpt>
<trkpt lat="28.300212" lon="99.171283">
<time>2016-10-07T10:07:30Z</time></trkpt>
<trkpt lat="28.300182" lon="99.171163">
<time>2016-10-07T10:07:31Z</time></trkpt>
<trkpt lat="28.300152" lon="99.171093">
<time>2016-10-07T10:07:32Z</time></trkpt>
<trkpt lat="28.300112" lon="99.171023">
<time>2016-10-07T10:07:33Z</time></trkpt>
<trkpt lat="28.300061" lon="99.170943">
<time>2016-10-07T10:07:34Z</time></trkpt>
<trkpt lat="28.299991" lon="99.170863">
<time>2016-10-07T10:07:35Z</time></trkpt>
<trkpt lat="28.299861" lon="99.170743">
<time>2016-10-07T10:07:36Z</time></trkpt>
<trkpt lat="28.299491" lon="99.170452">
<time>2016-10-07T10:07:37Z</time></trkpt>
<trkpt lat="28.29924" lon="99.170232">
<time>2016-10-07T10:07:38Z</time></trkpt>
<trkpt lat="28.29897" lon="99.169972">
<time>2016-10-07T10:07:39Z</time></trkpt>
<trkpt lat="28.298779" lon="99.169741">
<time>2016-10-07T10:07:40Z</time></trkpt>
<trkpt lat="28.298709" lon="99.169641">
<time>2016-10-07T10:07:41Z</time></trkpt>
<trkpt lat="28.298619" lon="99.169511">
<time>2016-10-07T10:07:42Z</time></trkpt>
<trkpt lat="28.298539" lon="99.169381">
<time>2016-10-07T10:07:43Z</time></trkpt>
<trkpt lat="28.298458" lon="99.1692">
<time>2016-10-07T10:07:44Z</time></trkpt>
<trkpt lat="28.298418" lon="99.16909">
<time>2016-10-07T10:07:45Z</time></trkpt>
<trkpt lat="28.298378" lon="99.16894">
<time>2016-10-07T10:07:46Z</time></trkpt>
<trkpt lat="28.298327" lon="99.16875">
<time>2016-10-07T10:07:47Z</time></trkpt>
<trkpt lat="28.298297" lon="99.16853">
<time>2016-10-07T10:07:48Z</time></trkpt>
<trkpt lat="28.298287" lon="99.168289">
<time>2016-10-07T10:07:49Z</time></trkpt>
<trkpt lat="28.298296" lon="99.168169">
<time>2016-10-07T10:07:50Z</time></trkpt>
<trkpt lat="28.298316" lon="99.168039">
<time>2016-10-07T10:07:51Z</time></trkpt>
<trkpt lat="28.298336" lon="99.167899">
<time>2016-10-07T10:07:52Z</time></trkpt>
<trkpt lat="28.298375" lon="99.167729">
<time>2016-10-07T10:07:53Z</time></trkpt>
<trkpt lat="28.298415" lon="99.167618">
<time>2016-10-07T10:07:54Z</time></trkpt>
<trkpt lat="28.298445" lon="99.167518">
<time>2016-10-07T10:07:55Z</time></trkpt>
<trkpt lat="28.298525" lon="99.167348">
<time>2016-10-07T10:07:56Z</time></trkpt>
<trkpt lat="28.298634" lon="99.167148">
<time>2016-10-07T10:07:57Z</time></trkpt>
<trkpt lat="28.298754" lon="99.166978">
<time>2016-10-07T10:07:58Z</time></trkpt>
<trkpt lat="28.298864" lon="99.166847">
<time>2016-10-07T10:07:59Z</time></trkpt>
<trkpt lat="28.299053" lon="99.166597">
<time>2016-10-07T10:08:00Z</time></trkpt>
<trkpt lat="28.299442" lon="99.166116">
<time>2016-10-07T10:08:01Z</time></trkpt>
<trkpt lat="28.300111" lon="99.165255">
<time>2016-10-07T10:08:02Z</time></trkpt>
<trkpt lat="28.30026" lon="99.165035">
<time>2016-10-07T10:08:03Z</time></trkpt>
<trkpt lat="28.30033" lon="99.164905">
<time>2016-10-07T10:08:04Z</time></trkpt>
<trkpt lat="28.30037" lon="99.164845">
<time>2016-10-07T10:08:05Z</time></trkpt>
<trkpt lat="28.30044" lon="99.164665">
<time>2016-10-07T10:08:06Z</time></trkpt>
<trkpt lat="28.300509" lon="99.164474">
<time>2016-10-07T10:08:07Z</time></trkpt>
<trkpt lat="28.300589" lon="99.164154">
<time>2016-10-07T10:08:08Z</time></trkpt>
<trkpt lat="28.300618" lon="99.163984">
<time>2016-10-07T10:08:09Z</time></trkpt>
<trkpt lat="28.300678" lon="99.163583">
<time>2016-10-07T10:08:10Z</time></trkpt>
<trkpt lat="28.300776" lon="99.162842">
<time>2016-10-07T10:08:11Z</time></trkpt>
<trkpt lat="28.300835" lon="99.162402">
<time>2016-10-07T10:08:12Z</time></trkpt>
<trkpt lat="28.300865" lon="99.162151">
<time>2016-10-07T10:08:13Z</time></trkpt>
<trkpt lat="28.300914" lon="99.161941">
<time>2016-10-07T10:08:14Z</time></trkpt>
<trkpt lat="28.300984" lon="99.161711">
<time>2016-10-07T10:08:15Z</time></trkpt>
<trkpt lat="28.301034" lon="99.161581">
<time>2016-10-07T10:08:16Z</time></trkpt>
<trkpt lat="28.301104" lon="99.16144">
<time>2016-10-07T10:08:17Z</time></trkpt>
<trkpt lat="28.301193" lon="99.16129">
<time>2016-10-07T10:08:18Z</time></trkpt>
<trkpt lat="28.301283" lon="99.16118">
<time>2016-10-07T10:08:19Z</time></trkpt>
<trkpt lat="28.301453" lon="99.16102">
<time>2016-10-07T10:08:20Z</time></trkpt>
<trkpt lat="28.301533" lon="99.16096">
<time>2016-10-07T10:08:21Z</time></trkpt>
<trkpt lat="28.301603" lon="99.16091">
<time>2016-10-07T10:08:22Z</time></trkpt>
<trkpt lat="28.301682" lon="99.16086">
<time>2016-10-07T10:08:23Z</time></trkpt>
<trkpt lat="28.301732" lon="99.16083">
<time>2016-10-07T10:08:24Z</time></trkpt>
<trkpt lat="28.301842" lon="99.160779">
<time>2016-10-07T10:08:25Z</time></trkpt>
<trkpt lat="28.302042" lon="99.160709">
<time>2016-10-07T10:08:26Z</time></trkpt>
<trkpt lat="28.302172" lon="99.160669">
<time>2016-10-07T10:08:27Z</time></trkpt>
<trkpt lat="28.302402" lon="99.160629">
<time>2016-10-07T10:08:28Z</time></trkpt>
<trkpt lat="28.302582" lon="99.160589">
<time>2016-10-07T10:08:29Z</time></trkpt>
<trkpt lat="28.302992" lon="99.160499">
<time>2016-10-07T10:08:30Z</time></trkpt>
<trkpt lat="28.303371" lon="99.160369">
<time>2016-10-07T10:08:31Z</time></trkpt>
<trkpt lat="28.303641" lon="99.160249">
<time>2016-10-07T10:08:32Z</time></trkpt>
<trkpt lat="28.303921" lon="99.160089">
<time>2016-10-07T10:08:33Z</time></trkpt>
<trkpt lat="28.304141" lon="99.159938">
<time>2016-10-07T10:08:34Z</time></trkpt>
<trkpt lat="28.3043" lon="99.159818">
<time>2016-10-07T10:08:35Z</time></trkpt>
<trkpt lat="28.30477" lon="99.159418">
<time>2016-10-07T10:08:36Z</time></trkpt>
<trkpt lat="28.305099" lon="99.159137">
<time>2016-10-07T10:08:37Z</time></trkpt>
<trkpt lat="28.305209" lon="99.159077">
<time>2016-10-07T10:08:38Z</time></trkpt>
<trkpt lat="28.305728" lon="99.158717">
<time>2016-10-07T10:08:39Z</time></trkpt>
<trkpt lat="28.305968" lon="99.158597">
<time>2016-10-07T10:08:40Z</time></trkpt>
<trkpt lat="28.306168" lon="99.158497">
<time>2016-10-07T10:08:41Z</time></trkpt>
<trkpt lat="28.306338" lon="99.158426">
<time>2016-10-07T10:08:42Z</time></trkpt>
<trkpt lat="28.306947" lon="99.158156">
<time>2016-10-07T10:08:43Z</time></trkpt>
<trkpt lat="28.307087" lon="99.158086">
<time>2016-10-07T10:08:44Z</time></trkpt>
<trkpt lat="28.307217" lon="99.158006">
<time>2016-10-07T10:08:45Z</time></trkpt>
<trkpt lat="28.307377" lon="99.157886">
<time>2016-10-07T10:08:46Z</time></trkpt>
<trkpt lat="28.307486" lon="99.157806">
<time>2016-10-07T10:08:47Z</time></trkpt>
<trkpt lat="28.307646" lon="99.157655">
<time>2016-10-07T10:08:48Z</time></trkpt>
<trkpt lat="28.307776" lon="99.157515">
<time>2016-10-07T10:08:49Z</time></trkpt>
<trkpt lat="28.307866" lon="99.157395">
<time>2016-10-07T10:08:50Z</time></trkpt>
<trkpt lat="28.307945" lon="99.157265">
<time>2016-10-07T10:08:51Z</time></trkpt>
<trkpt lat="28.307985" lon="99.157175">
<time>2016-10-07T10:08:52Z</time></trkpt>
<trkpt lat="28.308025" lon="99.157075">
<time>2016-10-07T10:08:53Z</time></trkpt>
<trkpt lat="28.308035" lon="99.156965">
<time>2016-10-07T10:08:54Z</time></trkpt>
<trkpt lat="28.308045" lon="99.156884">
<time>2016-10-07T10:08:55Z</time></trkpt>
<trkpt lat="28.308055" lon="99.156794">
<time>2016-10-07T10:08:56Z</time></trkpt>
<trkpt lat="28.308034" lon="99.156654">
<time>2016-10-07T10:08:57Z</time></trkpt>
<trkpt lat="28.308014" lon="99.156564">
<time>2016-10-07T10:08:58Z</time></trkpt>
<trkpt lat="28.307984" lon="99.156454">
<time>2016-10-07T10:08:59Z</time></trkpt>
<trkpt lat="28.307944" lon="99.156384">
<time>2016-10-07T10:09:00Z</time></trkpt>
<trkpt lat="28.307894" lon="99.156314">
<time>2016-10-07T10:09:01Z</time></trkpt>
<trkpt lat="28.307854" lon="99.156254">
<time>2016-10-07T10:09:02Z</time></trkpt>
<trkpt lat="28.307763" lon="99.156164">
<time>2016-10-07T10:09:03Z</time></trkpt>
<trkpt lat="28.307713" lon="99.156134">
<time>2016-10-07T10:09:04Z</time></trkpt>
<trkpt lat="28.307643" lon="99.156094">
<time>2016-10-07T10:09:05Z</time></trkpt>
<trkpt lat="28.307513" lon="99.156043">
<time>2016-10-07T10:09:06Z</time></trkpt>
<trkpt lat="28.307433" lon="99.156013">
<time>2016-10-07T10:09:07Z</time></trkpt>
<trkpt lat="28.307313" lon="99.155993">
<time>2016-10-07T10:09:08Z</time></trkpt>
<trkpt lat="28.307083" lon="99.155983">
<time>2016-10-07T10:09:09Z</time></trkpt>
<trkpt lat="28.306903" lon="99.155973">
<time>2016-10-07T10:09:10Z</time></trkpt>
<trkpt lat="28.306743" lon="99.155953">
<time>2016-10-07T10:09:11Z</time></trkpt>
<trkpt lat="28.306613" lon="99.155923">
<time>2016-10-07T10:09:12Z</time></trkpt>
<trkpt lat="28.306513" lon="99.155903">
<time>2016-10-07T10:09:13Z</time></trkpt>
<trkpt lat="28.306413" lon="99.155873">
<time>2016-10-07T10:09:14Z</time></trkpt>
<trkpt lat="28.306273" lon="99.155823">
<time>2016-10-07T10:09:15Z</time></trkpt>
<trkpt lat="28.306203" lon="99.155793">
<time>2016-10-07T10:09:16Z</time></trkpt>
<trkpt lat="28.306113" lon="99.155743">
<time>2016-10-07T10:09:17Z</time></trkpt>
<trkpt lat="28.306023" lon="99.155683">
<time>2016-10-07T10:09:18Z</time></trkpt>
<trkpt lat="28.305883" lon="99.155603">
<time>2016-10-07T10:09:19Z</time></trkpt>
<trkpt lat="28.305672" lon="99.155423">
<time>2016-10-07T10:09:20Z</time></trkpt>
<trkpt lat="28.305422" lon="99.155223">
<time>2016-10-07T10:09:21Z</time></trkpt>
<trkpt lat="28.305292" lon="99.155122">
<time>2016-10-07T10:09:22Z</time></trkpt>
<trkpt lat="28.305112" lon="99.155002">
<time>2016-10-07T10:09:23Z</time></trkpt>
<trkpt lat="28.304831" lon="99.154852">
<time>2016-10-07T10:09:24Z</time></trkpt>
<trkpt lat="28.304581" lon="99.154772">
<time>2016-10-07T10:09:25Z</time></trkpt>
<trkpt lat="28.304351" lon="99.154702">
<time>2016-10-07T10:09:26Z</time></trkpt>
<trkpt lat="28.304021" lon="99.154642">
<time>2016-10-07T10:09:27Z</time></trkpt>
<trkpt lat="28.303821" lon="99.154612">
<time>2016-10-07T10:09:28Z</time></trkpt>
<trkpt lat="28.303661" lon="99.154572">
<time>2016-10-07T10:09:29Z</time></trkpt>
<trkpt lat="28.303561" lon="99.154542">
<time>2016-10-07T10:09:30Z</time></trkpt>
<trkpt lat="28.303421" lon="99.154492">
<time>2016-10-07T10:09:31Z</time></trkpt>
<trkpt lat="28.303291" lon="99.154442">
<time>2016-10-07T10:09:32Z</time></trkpt>
<trkpt lat="28.30316" lon="99.154352">
<time>2016-10-07T10:09:33Z</time></trkpt>
<trkpt lat="28.3031" lon="99.154301">
<time>2016-10-07T10:09:34Z</time></trkpt>
<trkpt lat="28.303" lon="99.154201">
<time>2016-10-07T10:09:35Z</time></trkpt>
<trkpt lat="28.30293" lon="99.154111">
<time>2016-10-07T10:09:36Z</time></trkpt>
<trkpt lat="28.30284" lon="99.153971">
<time>2016-10-07T10:09:37Z</time></trkpt>
<trkpt lat="28.3028" lon="99.153901">
<time>2016-10-07T10:09:38Z</time></trkpt>
<trkpt lat="28.30276" lon="99.153791">
<time>2016-10-07T10:09:39Z</time></trkpt>
<trkpt lat="28.302709" lon="99.153591">
<time>2016-10-07T10:09:40Z</time></trkpt>
<trkpt lat="28.302689" lon="99.15346">
<time>2016-10-07T10:09:41Z</time></trkpt>
<trkpt lat="28.302679" lon="99.15329">
<time>2016-10-07T10:09:42Z</time></trkpt>
<trkpt lat="28.302678" lon="99.15315">
<time>2016-10-07T10:09:43Z</time></trkpt>
<trkpt lat="28.302688" lon="99.15303">
<time>2016-10-07T10:09:44Z</time></trkpt>
<trkpt lat="28.302747" lon="99.152559">
<time>2016-10-07T10:09:45Z</time></trkpt>
<trkpt lat="28.302767" lon="99.152309">
<time>2016-10-07T10:09:46Z</time></trkpt>
<trkpt lat="28.302776" lon="99.151919">
<time>2016-10-07T10:09:47Z</time></trkpt>
<trkpt lat="28.302776" lon="99.151618">
<time>2016-10-07T10:09:48Z</time></trkpt>
<trkpt lat="28.302755" lon="99.151348">
<time>2016-10-07T10:09:49Z</time></trkpt>
<trkpt lat="28.302704" lon="99.150908">
<time>2016-10-07T10:09:50Z</time></trkpt>
<trkpt lat="28.302674" lon="99.150607">
<time>2016-10-07T10:09:51Z</time></trkpt>
<trkpt lat="28.302664" lon="99.150387">
<time>2016-10-07T10:09:52Z</time></trkpt>
<trkpt lat="28.302653" lon="99.150177">
<time>2016-10-07T10:09:53Z</time></trkpt>
<trkpt lat="28.302643" lon="99.149976">
<time>2016-10-07T10:09:54Z</time></trkpt>
<trkpt lat="28.302652" lon="99.149756">
<time>2016-10-07T10:09:55Z</time></trkpt>
<trkpt lat="28.302662" lon="99.149606">
<time>2016-10-07T10:09:56Z</time></trkpt>
<trkpt lat="28.302682" lon="99.149456">
<time>2016-10-07T10:09:57Z</time></trkpt>
<trkpt lat="28.302722" lon="99.149226">
<time>2016-10-07T10:09:58Z</time></trkpt>
<trkpt lat="28.302771" lon="99.148895">
<time>2016-10-07T10:09:59Z</time></trkpt>
<trkpt lat="28.302841" lon="99.148615">
<time>2016-10-07T10:10:00Z</time></trkpt>
<trkpt lat="28.3029" lon="99.148365">
<time>2016-10-07T10:10:01Z</time></trkpt>
<trkpt lat="28.30298" lon="99.148104">
<time>2016-10-07T10:10:02Z</time></trkpt>
<trkpt lat="28.303069" lon="99.147834">
<time>2016-10-07T10:10:03Z</time></trkpt>
<trkpt lat="28.303109" lon="99.147754">
<time>2016-10-07T10:10:04Z</time></trkpt>
<trkpt lat="28.303159" lon="99.147654">
<time>2016-10-07T10:10:05Z</time></trkpt>
<trkpt lat="28.303219" lon="99.147554">
<time>2016-10-07T10:10:06Z</time></trkpt>
<trkpt lat="28.303289" lon="99.147454">
<time>2016-10-07T10:10:07Z</time></trkpt>
<trkpt lat="28.303388" lon="99.147354">
<time>2016-10-07T10:10:08Z</time></trkpt>
<trkpt lat="28.303458" lon="99.147294">
<time>2016-10-07T10:10:09Z</time></trkpt>
<trkpt lat="28.303548" lon="99.147213">
<time>2016-10-07T10:10:10Z</time></trkpt>
<trkpt lat="28.303668" lon="99.147133">
<time>2016-10-07T10:10:11Z</time></trkpt>
<trkpt lat="28.303848" lon="99.147023">
<time>2016-10-07T10:10:12Z</time></trkpt>
<trkpt lat="28.303968" lon="99.146933">
<time>2016-10-07T10:10:13Z</time></trkpt>
<trkpt lat="28.303998" lon="99.146903">
<time>2016-10-07T10:10:14Z</time></trkpt>
<trkpt lat="28.304058" lon="99.146853">
<time>2016-10-07T10:10:15Z</time></trkpt>
<trkpt lat="28.304117" lon="99.146783">
<time>2016-10-07T10:10:16Z</time></trkpt>
<trkpt lat="28.304147" lon="99.146733">
<time>2016-10-07T10:10:17Z</time></trkpt>
<trkpt lat="28.304177" lon="99.146673">
<time>2016-10-07T10:10:18Z</time></trkpt>
<trkpt lat="28.304197" lon="99.146613">
<time>2016-10-07T10:10:19Z</time></trkpt>
<trkpt lat="28.304217" lon="99.146543">
<time>2016-10-07T10:10:20Z</time></trkpt>
<trkpt lat="28.304227" lon="99.146503">
<time>2016-10-07T10:10:21Z</time></trkpt>
<trkpt lat="28.304237" lon="99.146453">
<time>2016-10-07T10:10:22Z</time></trkpt>
<trkpt lat="28.304237" lon="99.146403">
<time>2016-10-07T10:10:23Z</time></trkpt>
<trkpt lat="28.304237" lon="99.146323">
<time>2016-10-07T10:10:24Z</time></trkpt>
<trkpt lat="28.304226" lon="99.146252">
<time>2016-10-07T10:10:25Z</time></trkpt>
<trkpt lat="28.304206" lon="99.146172">
<time>2016-10-07T10:10:26Z</time></trkpt>
<trkpt lat="28.304176" lon="99.146102">
<time>2016-10-07T10:10:27Z</time></trkpt>
<trkpt lat="28.304146" lon="99.146022">
<time>2016-10-07T10:10:28Z</time></trkpt>
<trkpt lat="28.304046" lon="99.145862">
<time>2016-10-07T10:10:29Z</time></trkpt>
<trkpt lat="28.303956" lon="99.145712">
<time>2016-10-07T10:10:30Z</time></trkpt>
<trkpt lat="28.303865" lon="99.145572">
<time>2016-10-07T10:10:31Z</time></trkpt>
<trkpt lat="28.303825" lon="99.145462">
<time>2016-10-07T10:10:32Z</time></trkpt>
<trkpt lat="28.303815" lon="99.145402">
<time>2016-10-07T10:10:33Z</time></trkpt>
<trkpt lat="28.303805" lon="99.145321">
<time>2016-10-07T10:10:34Z</time></trkpt>
<trkpt lat="28.303805" lon="99.145201">
<time>2016-10-07T10:10:35Z</time></trkpt>
<trkpt lat="28.303825" lon="99.145091">
<time>2016-10-07T10:10:36Z</time></trkpt>
<trkpt lat="28.303854" lon="99.145011">
<time>2016-10-07T10:10:37Z</time></trkpt>
<trkpt lat="28.303884" lon="99.144931">
<time>2016-10-07T10:10:38Z</time></trkpt>
<trkpt lat="28.303974" lon="99.144801">
<time>2016-10-07T10:10:39Z</time></trkpt>
<trkpt lat="28.304064" lon="99.144651">
<time>2016-10-07T10:10:40Z</time></trkpt>
<trkpt lat="28.304194" lon="99.144461">
<time>2016-10-07T10:10:41Z</time></trkpt>
<trkpt lat="28.304283" lon="99.14429">
<time>2016-10-07T10:10:42Z</time></trkpt>
<trkpt lat="28.304343" lon="99.1441">
<time>2016-10-07T10:10:43Z</time></trkpt>
<trkpt lat="28.304413" lon="99.14388">
<time>2016-10-07T10:10:44Z</time></trkpt>
<trkpt lat="28.304452" lon="99.14371">
<time>2016-10-07T10:10:45Z</time></trkpt>
<trkpt lat="28.304502" lon="99.14358">
<time>2016-10-07T10:10:46Z</time></trkpt>
<trkpt lat="28.304562" lon="99.14343">
<time>2016-10-07T10:10:47Z</time></trkpt>
<trkpt lat="28.304602" lon="99.14334">
<time>2016-10-07T10:10:48Z</time></trkpt>
<trkpt lat="28.304711" lon="99.143169">
<time>2016-10-07T10:10:49Z</time></trkpt>
<trkpt lat="28.304821" lon="99.143039">
<time>2016-10-07T10:10:50Z</time></trkpt>
<trkpt lat="28.304921" lon="99.142919">
<time>2016-10-07T10:10:51Z</time></trkpt>
<trkpt lat="28.305071" lon="99.142749">
<time>2016-10-07T10:10:52Z</time></trkpt>
<trkpt lat="28.305181" lon="99.142619">
<time>2016-10-07T10:10:53Z</time></trkpt>
<trkpt lat="28.30527" lon="99.142499">
<time>2016-10-07T10:10:54Z</time></trkpt>
<trkpt lat="28.30533" lon="99.142409">
<time>2016-10-07T10:10:55Z</time></trkpt>
<trkpt lat="28.30538" lon="99.142319">
<time>2016-10-07T10:10:56Z</time></trkpt>
<trkpt lat="28.30545" lon="99.142188">
<time>2016-10-07T10:10:57Z</time></trkpt>
<trkpt lat="28.305539" lon="99.141928">
<time>2016-10-07T10:10:58Z</time></trkpt>
<trkpt lat="28.305639" lon="99.141618">
<time>2016-10-07T10:10:59Z</time></trkpt>
<trkpt lat="28.305699" lon="99.141458">
<time>2016-10-07T10:11:00Z</time></trkpt>
<trkpt lat="28.305749" lon="99.141338">
<time>2016-10-07T10:11:01Z</time></trkpt>
<trkpt lat="28.305798" lon="99.141237">
<time>2016-10-07T10:11:02Z</time></trkpt>
<trkpt lat="28.305898" lon="99.141037">
<time>2016-10-07T10:11:03Z</time></trkpt>
<trkpt lat="28.305998" lon="99.140877">
<time>2016-10-07T10:11:04Z</time></trkpt>
<trkpt lat="28.306078" lon="99.140757">
<time>2016-10-07T10:11:05Z</time></trkpt>
<trkpt lat="28.306237" lon="99.140587">
<time>2016-10-07T10:11:06Z</time></trkpt>
<trkpt lat="28.306467" lon="99.140337">
<time>2016-10-07T10:11:07Z</time></trkpt>
<trkpt lat="28.306667" lon="99.140106">
<time>2016-10-07T10:11:08Z</time></trkpt>
<trkpt lat="28.306786" lon="99.139926">
<time>2016-10-07T10:11:09Z</time></trkpt>
<trkpt lat="28.306906" lon="99.139716">
<time>2016-10-07T10:11:10Z</time></trkpt>
<trkpt lat="28.306966" lon="99.139576">
<time>2016-10-07T10:11:11Z</time></trkpt>
<trkpt lat="28.307016" lon="99.139466">
<time>2016-10-07T10:11:12Z</time></trkpt>
<trkpt lat="28.307095" lon="99.139156">
<time>2016-10-07T10:11:13Z</time></trkpt>
<trkpt lat="28.307175" lon="99.138885">
<time>2016-10-07T10:11:14Z</time></trkpt>
<trkpt lat="28.307224" lon="99.138725">
<time>2016-10-07T10:11:15Z</time></trkpt>
<trkpt lat="28.307264" lon="99.138605">
<time>2016-10-07T10:11:16Z</time></trkpt>
<trkpt lat="28.307314" lon="99.138495">
<time>2016-10-07T10:11:17Z</time></trkpt>
<trkpt lat="28.307414" lon="99.138275">
<time>2016-10-07T10:11:18Z</time></trkpt>
<trkpt lat="28.307533" lon="99.138085">
<time>2016-10-07T10:11:19Z</time></trkpt>
<trkpt lat="28.308142" lon="99.137034">
<time>2016-10-07T10:11:20Z</time></trkpt>
<trkpt lat="28.308521" lon="99.136363">
<time>2016-10-07T10:11:21Z</time></trkpt>
<trkpt lat="28.30873" lon="99.136003">
<time>2016-10-07T10:11:22Z</time></trkpt>
<trkpt lat="28.30888" lon="99.135743">
<time>2016-10-07T10:11:23Z</time></trkpt>
<trkpt lat="28.30904" lon="99.135443">
<time>2016-10-07T10:11:24Z</time></trkpt>
<trkpt lat="28.309119" lon="99.135252">
<time>2016-10-07T10:11:25Z</time></trkpt>
<trkpt lat="28.309219" lon="99.135012">
<time>2016-10-07T10:11:26Z</time></trkpt>
<trkpt lat="28.309309" lon="99.134762">
<time>2016-10-07T10:11:27Z</time></trkpt>
<trkpt lat="28.309597" lon="99.133761">
<time>2016-10-07T10:11:28Z</time></trkpt>
<trkpt lat="28.309707" lon="99.133381">
<time>2016-10-07T10:11:29Z</time></trkpt>
<trkpt lat="28.309816" lon="99.133051">
<time>2016-10-07T10:11:30Z</time></trkpt>
<trkpt lat="28.309966" lon="99.132701">
<time>2016-10-07T10:11:31Z</time></trkpt>
<trkpt lat="28.310185" lon="99.13226">
<time>2016-10-07T10:11:32Z</time></trkpt>
<trkpt lat="28.310335" lon="99.13196">
<time>2016-10-07T10:11:33Z</time></trkpt>
<trkpt lat="28.310594" lon="99.13135">
<time>2016-10-07T10:11:34Z</time></trkpt>
<trkpt lat="28.310644" lon="99.13122">
<time>2016-10-07T10:11:35Z</time></trkpt>
<trkpt lat="28.310684" lon="99.13106">
<time>2016-10-07T10:11:36Z</time></trkpt>
<trkpt lat="28.310703" lon="99.130979">
<time>2016-10-07T10:11:37Z</time></trkpt>
<trkpt lat="28.310713" lon="99.130889">
<time>2016-10-07T10:11:38Z</time></trkpt>
<trkpt lat="28.310713" lon="99.130749">
<time>2016-10-07T10:11:39Z</time></trkpt>
<trkpt lat="28.310703" lon="99.130629">
<time>2016-10-07T10:11:40Z</time></trkpt>
<trkpt lat="28.310683" lon="99.130519">
<time>2016-10-07T10:11:41Z</time></trkpt>
<trkpt lat="28.310643" lon="99.130379">
<time>2016-10-07T10:11:42Z</time></trkpt>
<trkpt lat="28.310583" lon="99.130249">
<time>2016-10-07T10:11:43Z</time></trkpt>
<trkpt lat="28.310502" lon="99.130079">
<time>2016-10-07T10:11:44Z</time></trkpt>
<trkpt lat="28.310402" lon="99.129919">
<time>2016-10-07T10:11:45Z</time></trkpt>
<trkpt lat="28.310322" lon="99.129779">
<time>2016-10-07T10:11:46Z</time></trkpt>
<trkpt lat="28.310292" lon="99.129689">
<time>2016-10-07T10:11:47Z</time></trkpt>
<trkpt lat="28.310272" lon="99.129619">
<time>2016-10-07T10:11:48Z</time></trkpt>
<trkpt lat="28.310272" lon="99.129569">
<time>2016-10-07T10:11:49Z</time></trkpt>
<trkpt lat="28.310272" lon="99.129519">
<time>2016-10-07T10:11:50Z</time></trkpt>
<trkpt lat="28.310282" lon="99.129459">
<time>2016-10-07T10:11:51Z</time></trkpt>
<trkpt lat="28.310292" lon="99.129409">
<time>2016-10-07T10:11:52Z</time></trkpt>
<trkpt lat="28.310321" lon="99.129349">
<time>2016-10-07T10:11:53Z</time></trkpt>
<trkpt lat="28.310361" lon="99.129299">
<time>2016-10-07T10:11:54Z</time></trkpt>
<trkpt lat="28.310401" lon="99.129268">
<time>2016-10-07T10:11:55Z</time></trkpt>
<trkpt lat="28.310421" lon="99.129248">
<time>2016-10-07T10:11:56Z</time></trkpt>
<trkpt lat="28.310471" lon="99.129228">
<time>2016-10-07T10:11:57Z</time></trkpt>
<trkpt lat="28.310521" lon="99.129218">
<time>2016-10-07T10:11:58Z</time></trkpt>
<trkpt lat="28.310551" lon="99.129218">
<time>2016-10-07T10:11:59Z</time></trkpt>
<trkpt lat="28.310581" lon="99.129218">
<time>2016-10-07T10:12:00Z</time></trkpt>
<trkpt lat="28.310621" lon="99.129228">
<time>2016-10-07T10:12:01Z</time></trkpt>
<trkpt lat="28.310651" lon="99.129238">
<time>2016-10-07T10:12:02Z</time></trkpt>
<trkpt lat="28.310671" lon="99.129258">
<time>2016-10-07T10:12:03Z</time></trkpt>
<trkpt lat="28.310711" lon="99.129278">
<time>2016-10-07T10:12:04Z</time></trkpt>
<trkpt lat="28.310751" lon="99.129329">
<time>2016-10-07T10:12:05Z</time></trkpt>
<trkpt lat="28.310801" lon="99.129409">
<time>2016-10-07T10:12:06Z</time></trkpt>
<trkpt lat="28.310832" lon="99.129489">
<time>2016-10-07T10:12:07Z</time></trkpt>
<trkpt lat="28.310852" lon="99.129569">
<time>2016-10-07T10:12:08Z</time></trkpt>
<trkpt lat="28.310872" lon="99.129659">
<time>2016-10-07T10:12:09Z</time></trkpt>
<trkpt lat="28.310922" lon="99.130129">
<time>2016-10-07T10:12:10Z</time></trkpt>
<trkpt lat="28.310993" lon="99.130859">
<time>2016-10-07T10:12:11Z</time></trkpt>
<trkpt lat="28.311105" lon="99.13186">
<time>2016-10-07T10:12:12Z</time></trkpt>
<trkpt lat="28.311175" lon="99.13221">
<time>2016-10-07T10:12:13Z</time></trkpt>
<trkpt lat="28.311245" lon="99.13248">
<time>2016-10-07T10:12:14Z</time></trkpt>
<trkpt lat="28.311296" lon="99.132681">
<time>2016-10-07T10:12:15Z</time></trkpt>
<trkpt lat="28.311306" lon="99.132791">
<time>2016-10-07T10:12:16Z</time></trkpt>
<trkpt lat="28.311306" lon="99.132911">
<time>2016-10-07T10:12:17Z</time></trkpt>
<trkpt lat="28.311306" lon="99.132991">
<time>2016-10-07T10:12:18Z</time></trkpt>
<trkpt lat="28.311296" lon="99.133081">
<time>2016-10-07T10:12:19Z</time></trkpt>
<trkpt lat="28.311276" lon="99.133161">
<time>2016-10-07T10:12:20Z</time></trkpt>
<trkpt lat="28.311246" lon="99.133241">
<time>2016-10-07T10:12:21Z</time></trkpt>
<trkpt lat="28.311207" lon="99.133341">
<time>2016-10-07T10:12:22Z</time></trkpt>
<trkpt lat="28.311157" lon="99.133421">
<time>2016-10-07T10:12:23Z</time></trkpt>
<trkpt lat="28.311097" lon="99.133501">
<time>2016-10-07T10:12:24Z</time></trkpt>
<trkpt lat="28.311037" lon="99.133561">
<time>2016-10-07T10:12:25Z</time></trkpt>
<trkpt lat="28.310937" lon="99.133641">
<time>2016-10-07T10:12:26Z</time></trkpt>
<trkpt lat="28.310807" lon="99.133731">
<time>2016-10-07T10:12:27Z</time></trkpt>
<trkpt lat="28.310617" lon="99.133871">
<time>2016-10-07T10:12:28Z</time></trkpt>
<trkpt lat="28.310557" lon="99.133921">
<time>2016-10-07T10:12:29Z</time></trkpt>
<trkpt lat="28.310507" lon="99.133961">
<time>2016-10-07T10:12:30Z</time></trkpt>
<trkpt lat="28.310428" lon="99.134052">
<time>2016-10-07T10:12:31Z</time></trkpt>
<trkpt lat="28.310368" lon="99.134132">
<time>2016-10-07T10:12:32Z</time></trkpt>
<trkpt lat="28.310328" lon="99.134212">
<time>2016-10-07T10:12:33Z</time></trkpt>
<trkpt lat="28.310278" lon="99.134322">
<time>2016-10-07T10:12:34Z</time></trkpt>
<trkpt lat="28.310238" lon="99.134432">
<time>2016-10-07T10:12:35Z</time></trkpt>
<trkpt lat="28.310228" lon="99.134522">
<time>2016-10-07T10:12:36Z</time></trkpt>
<trkpt lat="28.310228" lon="99.134622">
<time>2016-10-07T10:12:37Z</time></trkpt>
<trkpt lat="28.310228" lon="99.134702">
<time>2016-10-07T10:12:38Z</time></trkpt>
<trkpt lat="28.310249" lon="99.134802">
<time>2016-10-07T10:12:39Z</time></trkpt>
<trkpt lat="28.310269" lon="99.134902">
<time>2016-10-07T10:12:40Z</time></trkpt>
<trkpt lat="28.310309" lon="99.135012">
<time>2016-10-07T10:12:41Z</time></trkpt>
<trkpt lat="28.310359" lon="99.135142">
<time>2016-10-07T10:12:42Z</time></trkpt>
<trkpt lat="28.310479" lon="99.135342">
<time>2016-10-07T10:12:43Z</time></trkpt>
<trkpt lat="28.310539" lon="99.135473">
<time>2016-10-07T10:12:44Z</time></trkpt>
<trkpt lat="28.31058" lon="99.135593">
<time>2016-10-07T10:12:45Z</time></trkpt>
<trkpt lat="28.31061" lon="99.135673">
<time>2016-10-07T10:12:46Z</time></trkpt>
<trkpt lat="28.31062" lon="99.135743">
<time>2016-10-07T10:12:47Z</time></trkpt>
<trkpt lat="28.31063" lon="99.135803">
<time>2016-10-07T10:12:48Z</time></trkpt>
<trkpt lat="28.31063" lon="99.135893">
<time>2016-10-07T10:12:49Z</time></trkpt>
<trkpt lat="28.31062" lon="99.136003">
<time>2016-10-07T10:12:50Z</time></trkpt>
<trkpt lat="28.31061" lon="99.136063">
<time>2016-10-07T10:12:51Z</time></trkpt>
<trkpt lat="28.31058" lon="99.136143">
<time>2016-10-07T10:12:52Z</time></trkpt>
<trkpt lat="28.310561" lon="99.136213">
<time>2016-10-07T10:12:53Z</time></trkpt>
<trkpt lat="28.310521" lon="99.136283">
<time>2016-10-07T10:12:54Z</time></trkpt>
<trkpt lat="28.310441" lon="99.136413">
<time>2016-10-07T10:12:55Z</time></trkpt>
<trkpt lat="28.310271" lon="99.136683">
<time>2016-10-07T10:12:56Z</time></trkpt>
<trkpt lat="28.309323" lon="99.138125">
<time>2016-10-07T10:12:57Z</time></trkpt>
<trkpt lat="28.309054" lon="99.138545">
<time>2016-10-07T10:12:58Z</time></trkpt>
<trkpt lat="28.308924" lon="99.138775">
<time>2016-10-07T10:12:59Z</time></trkpt>
<trkpt lat="28.308885" lon="99.138875">
<time>2016-10-07T10:13:00Z</time></trkpt>
<trkpt lat="28.308845" lon="99.138995">
<time>2016-10-07T10:13:01Z</time></trkpt>
<trkpt lat="28.308815" lon="99.139126">
<time>2016-10-07T10:13:02Z</time></trkpt>
<trkpt lat="28.308805" lon="99.139256">
<time>2016-10-07T10:13:03Z</time></trkpt>
<trkpt lat="28.308805" lon="99.139386">
<time>2016-10-07T10:13:04Z</time></trkpt>
<trkpt lat="28.308816" lon="99.139526">
<time>2016-10-07T10:13:05Z</time></trkpt>
<trkpt lat="28.308836" lon="99.139636">
<time>2016-10-07T10:13:06Z</time></trkpt>
<trkpt lat="28.308856" lon="99.139736">
<time>2016-10-07T10:13:07Z</time></trkpt>
<trkpt lat="28.308896" lon="99.139866">
<time>2016-10-07T10:13:08Z</time></trkpt>
<trkpt lat="28.308916" lon="99.139956">
<time>2016-10-07T10:13:09Z</time></trkpt>
<trkpt lat="28.308926" lon="99.140016">
<time>2016-10-07T10:13:10Z</time></trkpt>
<trkpt lat="28.308936" lon="99.140146">
<time>2016-10-07T10:13:11Z</time></trkpt>
<trkpt lat="28.308937" lon="99.140287">
<time>2016-10-07T10:13:12Z</time></trkpt>
<trkpt lat="28.308927" lon="99.140467">
<time>2016-10-07T10:13:13Z</time></trkpt>
<trkpt lat="28.308917" lon="99.140577">
<time>2016-10-07T10:13:14Z</time></trkpt>
<trkpt lat="28.308887" lon="99.140657">
<time>2016-10-07T10:13:15Z</time></trkpt>
<trkpt lat="28.308847" lon="99.140757">
<time>2016-10-07T10:13:16Z</time></trkpt>
<trkpt lat="28.308808" lon="99.140847">
<time>2016-10-07T10:13:17Z</time></trkpt>
<trkpt lat="28.308758" lon="99.140947">
<time>2016-10-07T10:13:18Z</time></trkpt>
<trkpt lat="28.308638" lon="99.141127">
<time>2016-10-07T10:13:19Z</time></trkpt>
<trkpt lat="28.308478" lon="99.141348">
<time>2016-10-07T10:13:20Z</time></trkpt>
<trkpt lat="28.308249" lon="99.141658">
<time>2016-10-07T10:13:21Z</time></trkpt>
<trkpt lat="28.308129" lon="99.141828">
<time>2016-10-07T10:13:22Z</time></trkpt>
<trkpt lat="28.308049" lon="99.141968">
<time>2016-10-07T10:13:23Z</time></trkpt>
<trkpt lat="28.30799" lon="99.142088">
<time>2016-10-07T10:13:24Z</time></trkpt>
<trkpt lat="28.30793" lon="99.142238">
<time>2016-10-07T10:13:25Z</time></trkpt>
<trkpt lat="28.3079" lon="99.142369">
<time>2016-10-07T10:13:26Z</time></trkpt>
<trkpt lat="28.30789" lon="99.142489">
<time>2016-10-07T10:13:27Z</time></trkpt>
<trkpt lat="28.30789" lon="99.142559">
<time>2016-10-07T10:13:28Z</time></trkpt>
<trkpt lat="28.30789" lon="99.142649">
<time>2016-10-07T10:13:29Z</time></trkpt>
<trkpt lat="28.307911" lon="99.142769">
<time>2016-10-07T10:13:30Z</time></trkpt>
<trkpt lat="28.307931" lon="99.142899">
<time>2016-10-07T10:13:31Z</time></trkpt>
<trkpt lat="28.307971" lon="99.143089">
<time>2016-10-07T10:13:32Z</time></trkpt>
<trkpt lat="28.308001" lon="99.143249">
<time>2016-10-07T10:13:33Z</time></trkpt>
<trkpt lat="28.308012" lon="99.143399">
<time>2016-10-07T10:13:34Z</time></trkpt>
<trkpt lat="28.308012" lon="99.14351">
<time>2016-10-07T10:13:35Z</time></trkpt>
<trkpt lat="28.308002" lon="99.14366">
<time>2016-10-07T10:13:36Z</time></trkpt>
<trkpt lat="28.307972" lon="99.14381">
<time>2016-10-07T10:13:37Z</time></trkpt>
<trkpt lat="28.307932" lon="99.1439">
<time>2016-10-07T10:13:38Z</time></trkpt>
<trkpt lat="28.307893" lon="99.144">
<time>2016-10-07T10:13:39Z</time></trkpt>
<trkpt lat="28.307793" lon="99.14422">
<time>2016-10-07T10:13:40Z</time></trkpt>
<trkpt lat="28.307723" lon="99.1444">
<time>2016-10-07T10:13:41Z</time></trkpt>
<trkpt lat="28.307674" lon="99.144581">
<time>2016-10-07T10:13:42Z</time></trkpt>
<trkpt lat="28.307654" lon="99.144771">
<time>2016-10-07T10:13:43Z</time></trkpt>
<trkpt lat="28.307654" lon="99.144871">
<time>2016-10-07T10:13:44Z</time></trkpt>
<trkpt lat="28.307654" lon="99.144961">
<time>2016-10-07T10:13:45Z</time></trkpt>
<trkpt lat="28.307684" lon="99.145061">
<time>2016-10-07T10:13:46Z</time></trkpt>
<trkpt lat="28.307735" lon="99.145211">
<time>2016-10-07T10:13:47Z</time></trkpt>
<trkpt lat="28.307795" lon="99.145321">
<time>2016-10-07T10:13:48Z</time></trkpt>
<trkpt lat="28.307825" lon="99.145371">
<time>2016-10-07T10:13:49Z</time></trkpt>
<trkpt lat="28.307885" lon="99.145452">
<time>2016-10-07T10:13:50Z</time></trkpt>
<trkpt lat="28.307975" lon="99.145572">
<time>2016-10-07T10:13:51Z</time></trkpt>
<trkpt lat="28.308095" lon="99.145682">
<time>2016-10-07T10:13:52Z</time></trkpt>
<trkpt lat="28.308205" lon="99.145802">
<time>2016-10-07T10:13:53Z</time></trkpt>
<trkpt lat="28.308286" lon="99.145882">
<time>2016-10-07T10:13:54Z</time></trkpt>
<trkpt lat="28.308406" lon="99.146062">
<time>2016-10-07T10:13:55Z</time></trkpt>
<trkpt lat="28.308446" lon="99.146132">
<time>2016-10-07T10:13:56Z</time></trkpt>
<trkpt lat="28.308486" lon="99.146232">
<time>2016-10-07T10:13:57Z</time></trkpt>
<trkpt lat="28.308506" lon="99.146322">
<time>2016-10-07T10:13:58Z</time></trkpt>
<trkpt lat="28.308516" lon="99.146382">
<time>2016-10-07T10:13:59Z</time></trkpt>
<trkpt lat="28.308517" lon="99.146483">
<time>2016-10-07T10:14:00Z</time></trkpt>
<trkpt lat="28.308517" lon="99.146563">
<time>2016-10-07T10:14:01Z</time></trkpt>
<trkpt lat="28.308507" lon="99.146653">
<time>2016-10-07T10:14:02Z</time></trkpt>
<trkpt lat="28.308487" lon="99.146723">
<time>2016-10-07T10:14:03Z</time></trkpt>
<trkpt lat="28.308467" lon="99.146783">
<time>2016-10-07T10:14:04Z</time></trkpt>
<trkpt lat="28.308447" lon="99.146843">
<time>2016-10-07T10:14:05Z</time></trkpt>
<trkpt lat="28.308377" lon="99.146983">
<time>2016-10-07T10:14:06Z</time></trkpt>
<trkpt lat="28.308278" lon="99.147093">
<time>2016-10-07T10:14:07Z</time></trkpt>
<trkpt lat="28.308218" lon="99.147153">
<time>2016-10-07T10:14:08Z</time></trkpt>
<trkpt lat="28.308158" lon="99.147203">
<time>2016-10-07T10:14:09Z</time></trkpt>
<trkpt lat="28.307978" lon="99.147323">
<time>2016-10-07T10:14:10Z</time></trkpt>
<trkpt lat="28.307798" lon="99.147444">
<time>2016-10-07T10:14:11Z</time></trkpt>
<trkpt lat="28.307638" lon="99.147584">
<time>2016-10-07T10:14:12Z</time></trkpt>
<trkpt lat="28.307549" lon="99.147694">
<time>2016-10-07T10:14:13Z</time></trkpt>
<trkpt lat="28.307459" lon="99.147824">
<time>2016-10-07T10:14:14Z</time></trkpt>
<trkpt lat="28.307399" lon="99.147934">
<time>2016-10-07T10:14:15Z</time></trkpt>
<trkpt lat="28.307359" lon="99.148044">
<time>2016-10-07T10:14:16Z</time></trkpt>
<trkpt lat="28.30728" lon="99.148265">
<time>2016-10-07T10:14:17Z</time></trkpt>
<trkpt lat="28.30723" lon="99.148425">
<time>2016-10-07T10:14:18Z</time></trkpt>
<trkpt lat="28.30716" lon="99.148605">
<time>2016-10-07T10:14:19Z</time></trkpt>
<trkpt lat="28.30709" lon="99.148725">
<time>2016-10-07T10:14:20Z</time></trkpt>
<trkpt lat="28.306981" lon="99.148865">
<time>2016-10-07T10:14:21Z</time></trkpt>
<trkpt lat="28.306921" lon="99.148925">
<time>2016-10-07T10:14:22Z</time></trkpt>
<trkpt lat="28.306841" lon="99.148985">
<time>2016-10-07T10:14:23Z</time></trkpt>
<trkpt lat="28.306611" lon="99.149125">
<time>2016-10-07T10:14:24Z</time></trkpt>
<trkpt lat="28.306551" lon="99.149166">
<time>2016-10-07T10:14:25Z</time></trkpt>
<trkpt lat="28.306501" lon="99.149216">
<time>2016-10-07T10:14:26Z</time></trkpt>
<trkpt lat="28.306431" lon="99.149286">
<time>2016-10-07T10:14:27Z</time></trkpt>
<trkpt lat="28.306392" lon="99.149366">
<time>2016-10-07T10:14:28Z</time></trkpt>
<trkpt lat="28.306382" lon="99.149406">
<time>2016-10-07T10:14:29Z</time></trkpt>
<trkpt lat="28.306372" lon="99.149446">
<time>2016-10-07T10:14:30Z</time></trkpt>
<trkpt lat="28.306372" lon="99.149486">
<time>2016-10-07T10:14:31Z</time></trkpt>
<trkpt lat="28.306372" lon="99.149526">
<time>2016-10-07T10:14:32Z</time></trkpt>
<trkpt lat="28.306392" lon="99.149596">
<time>2016-10-07T10:14:33Z</time></trkpt>
<trkpt lat="28.306412" lon="99.149646">
<time>2016-10-07T10:14:34Z</time></trkpt>
<trkpt lat="28.306442" lon="99.149696">
<time>2016-10-07T10:14:35Z</time></trkpt>
<trkpt lat="28.306472" lon="99.149726">
<time>2016-10-07T10:14:36Z</time></trkpt>
<trkpt lat="28.306492" lon="99.149746">
<time>2016-10-07T10:14:37Z</time></trkpt>
<trkpt lat="28.306522" lon="99.149756">
<time>2016-10-07T10:14:38Z</time></trkpt>
<trkpt lat="28.306572" lon="99.149766">
<time>2016-10-07T10:14:39Z</time></trkpt>
<trkpt lat="28.306622" lon="99.149776">
<time>2016-10-07T10:14:40Z</time></trkpt>
<trkpt lat="28.306672" lon="99.149766">
<time>2016-10-07T10:14:41Z</time></trkpt>
<trkpt lat="28.306742" lon="99.149736">
<time>2016-10-07T10:14:42Z</time></trkpt>
<trkpt lat="28.306822" lon="99.149676">
<time>2016-10-07T10:14:43Z</time></trkpt>
<trkpt lat="28.306852" lon="99.149646">
<time>2016-10-07T10:14:44Z</time></trkpt>
<trkpt lat="28.306902" lon="99.149596">
<time>2016-10-07T10:14:45Z</time></trkpt>
<trkpt lat="28.306942" lon="99.149536">
<time>2016-10-07T10:14:46Z</time></trkpt>
<trkpt lat="28.307002" lon="99.149426">
<time>2016-10-07T10:14:47Z</time></trkpt>
<trkpt lat="28.307151" lon="99.149145">
<time>2016-10-07T10:14:48Z</time></trkpt>
<trkpt lat="28.307291" lon="99.148855">
<time>2016-10-07T10:14:49Z</time></trkpt>
<trkpt lat="28.30744" lon="99.148535">
<time>2016-10-07T10:14:50Z</time></trkpt>
<trkpt lat="28.30758" lon="99.148285">
<time>2016-10-07T10:14:51Z</time></trkpt>
<trkpt lat="28.307679" lon="99.148134">
<time>2016-10-07T10:14:52Z</time></trkpt>
<trkpt lat="28.307779" lon="99.147984">
<time>2016-10-07T10:14:53Z</time></trkpt>
<trkpt lat="28.307829" lon="99.147914">
<time>2016-10-07T10:14:54Z</time></trkpt>
<trkpt lat="28.307899" lon="99.147834">
<time>2016-10-07T10:14:55Z</time></trkpt>
<trkpt lat="28.307989" lon="99.147754">
<time>2016-10-07T10:14:56Z</time></trkpt>
<trkpt lat="28.308109" lon="99.147644">
<time>2016-10-07T10:14:57Z</time></trkpt>
<trkpt lat="28.308198" lon="99.147574">
<time>2016-10-07T10:14:58Z</time></trkpt>
<trkpt lat="28.308308" lon="99.147504">
<time>2016-10-07T10:14:59Z</time></trkpt>
<trkpt lat="28.308548" lon="99.147364">
<time>2016-10-07T10:15:00Z</time></trkpt>
<trkpt lat="28.308648" lon="99.147303">
<time>2016-10-07T10:15:01Z</time></trkpt>
<trkpt lat="28.308738" lon="99.147233">
<time>2016-10-07T10:15:02Z</time></trkpt>
<trkpt lat="28.308848" lon="99.147143">
<time>2016-10-07T10:15:03Z</time></trkpt>
<trkpt lat="28.308927" lon="99.147043">
<time>2016-10-07T10:15:04Z</time></trkpt>
<trkpt lat="28.308997" lon="99.146933">
<time>2016-10-07T10:15:05Z</time></trkpt>
<trkpt lat="28.309047" lon="99.146813">
<time>2016-10-07T10:15:06Z</time></trkpt>
<trkpt lat="28.309067" lon="99.146763">
<time>2016-10-07T10:15:07Z</time></trkpt>
<trkpt lat="28.309077" lon="99.146693">
<time>2016-10-07T10:15:08Z</time></trkpt>
<trkpt lat="28.309087" lon="99.146633">
<time>2016-10-07T10:15:09Z</time></trkpt>
<trkpt lat="28.309097" lon="99.146573">
<time>2016-10-07T10:15:10Z</time></trkpt>
<trkpt lat="28.309107" lon="99.146523">
<time>2016-10-07T10:15:11Z</time></trkpt>
<trkpt lat="28.309106" lon="99.146443">
<time>2016-10-07T10:15:12Z</time></trkpt>
<trkpt lat="28.309086" lon="99.146242">
<time>2016-10-07T10:15:13Z</time></trkpt>
<trkpt lat="28.309006" lon="99.146002">
<time>2016-10-07T10:15:14Z</time></trkpt>
<trkpt lat="28.308925" lon="99.145772">
<time>2016-10-07T10:15:15Z</time></trkpt>
<trkpt lat="28.308875" lon="99.145612">
<time>2016-10-07T10:15:16Z</time></trkpt>
<trkpt lat="28.308845" lon="99.145522">
<time>2016-10-07T10:15:17Z</time></trkpt>
<trkpt lat="28.308825" lon="99.145421">
<time>2016-10-07T10:15:18Z</time></trkpt>
<trkpt lat="28.308805" lon="99.145311">
<time>2016-10-07T10:15:19Z</time></trkpt>
<trkpt lat="28.308804" lon="99.145221">
<time>2016-10-07T10:15:20Z</time></trkpt>
<trkpt lat="28.308804" lon="99.145111">
<time>2016-10-07T10:15:21Z</time></trkpt>
<trkpt lat="28.308814" lon="99.144991">
<time>2016-10-07T10:15:22Z</time></trkpt>
<trkpt lat="28.308834" lon="99.144921">
<time>2016-10-07T10:15:23Z</time></trkpt>
<trkpt lat="28.308854" lon="99.144851">
<time>2016-10-07T10:15:24Z</time></trkpt>
<trkpt lat="28.308884" lon="99.144731">
<time>2016-10-07T10:15:25Z</time></trkpt>
<trkpt lat="28.308923" lon="99.144621">
<time>2016-10-07T10:15:26Z</time></trkpt>
<trkpt lat="28.308973" lon="99.144531">
<time>2016-10-07T10:15:27Z</time></trkpt>
<trkpt lat="28.309073" lon="99.14432">
<time>2016-10-07T10:15:28Z</time></trkpt>
<trkpt lat="28.309183" lon="99.14408">
<time>2016-10-07T10:15:29Z</time></trkpt>
<trkpt lat="28.309222" lon="99.14397">
<time>2016-10-07T10:15:30Z</time></trkpt>
<trkpt lat="28.309262" lon="99.14386">
<time>2016-10-07T10:15:31Z</time></trkpt>
<trkpt lat="28.309282" lon="99.14378">
<time>2016-10-07T10:15:32Z</time></trkpt>
<trkpt lat="28.309292" lon="99.1437">
<time>2016-10-07T10:15:33Z</time></trkpt>
<trkpt lat="28.309312" lon="99.14353">
<time>2016-10-07T10:15:34Z</time></trkpt>
<trkpt lat="28.309331" lon="99.143249">
<time>2016-10-07T10:15:35Z</time></trkpt>
<trkpt lat="28.309341" lon="99.143109">
<time>2016-10-07T10:15:36Z</time></trkpt>
<trkpt lat="28.309351" lon="99.143019">
<time>2016-10-07T10:15:37Z</time></trkpt>
<trkpt lat="28.309371" lon="99.142939">
<time>2016-10-07T10:15:38Z</time></trkpt>
<trkpt lat="28.309401" lon="99.142809">
<time>2016-10-07T10:15:39Z</time></trkpt>
<trkpt lat="28.30944" lon="99.142709">
<time>2016-10-07T10:15:40Z</time></trkpt>
<trkpt lat="28.30951" lon="99.142579">
<time>2016-10-07T10:15:41Z</time></trkpt>
<trkpt lat="28.30958" lon="99.142459">
<time>2016-10-07T10:15:42Z</time></trkpt>
<trkpt lat="28.30976" lon="99.142238">
<time>2016-10-07T10:15:43Z</time></trkpt>
<trkpt lat="28.309959" lon="99.142028">
<time>2016-10-07T10:15:44Z</time></trkpt>
<trkpt lat="28.310169" lon="99.141788">
<time>2016-10-07T10:15:45Z</time></trkpt>
<trkpt lat="28.310289" lon="99.141608">
<time>2016-10-07T10:15:46Z</time></trkpt>
<trkpt lat="28.310348" lon="99.141508">
<time>2016-10-07T10:15:47Z</time></trkpt>
<trkpt lat="28.310408" lon="99.141368">
<time>2016-10-07T10:15:48Z</time></trkpt>
<trkpt lat="28.310458" lon="99.141207">
<time>2016-10-07T10:15:49Z</time></trkpt>
<trkpt lat="28.310488" lon="99.141097">
<time>2016-10-07T10:15:50Z</time></trkpt>
<trkpt lat="28.310508" lon="99.140957">
<time>2016-10-07T10:15:51Z</time></trkpt>
<trkpt lat="28.310527" lon="99.140757">
<time>2016-10-07T10:15:52Z</time></trkpt>
<trkpt lat="28.310547" lon="99.140547">
<time>2016-10-07T10:15:53Z</time></trkpt>
<trkpt lat="28.310567" lon="99.140347">
<time>2016-10-07T10:15:54Z</time></trkpt>
<trkpt lat="28.310586" lon="99.140196">
<time>2016-10-07T10:15:55Z</time></trkpt>
<trkpt lat="28.310606" lon="99.140086">
<time>2016-10-07T10:15:56Z</time></trkpt>
<trkpt lat="28.310626" lon="99.139986">
<time>2016-10-07T10:15:57Z</time></trkpt>
<trkpt lat="28.310676" lon="99.139876">
<time>2016-10-07T10:15:58Z</time></trkpt>
<trkpt lat="28.310726" lon="99.139756">
<time>2016-10-07T10:15:59Z</time></trkpt>
<trkpt lat="28.310796" lon="99.139646">
<time>2016-10-07T10:16:00Z</time></trkpt>
<trkpt lat="28.310855" lon="99.139576">
<time>2016-10-07T10:16:01Z</time></trkpt>
<trkpt lat="28.310925" lon="99.139506">
<time>2016-10-07T10:16:02Z</time></trkpt>
<trkpt lat="28.311015" lon="99.139426">
<time>2016-10-07T10:16:03Z</time></trkpt>
<trkpt lat="28.311125" lon="99.139356">
<time>2016-10-07T10:16:04Z</time></trkpt>
<trkpt lat="28.311245" lon="99.139296">
<time>2016-10-07T10:16:05Z</time></trkpt>
<trkpt lat="28.311385" lon="99.139246">
<time>2016-10-07T10:16:06Z</time></trkpt>
<trkpt lat="28.311565" lon="99.139196">
<time>2016-10-07T10:16:07Z</time></trkpt>
<trkpt lat="28.311765" lon="99.139115">
<time>2016-10-07T10:16:08Z</time></trkpt>
<trkpt lat="28.311905" lon="99.139035">
<time>2016-10-07T10:16:09Z</time></trkpt>
<trkpt lat="28.312034" lon="99.138945">
<time>2016-10-07T10:16:10Z</time></trkpt>
<trkpt lat="28.312194" lon="99.138775">
<time>2016-10-07T10:16:11Z</time></trkpt>
<trkpt lat="28.312294" lon="99.138615">
<time>2016-10-07T10:16:12Z</time></trkpt>
<trkpt lat="28.312404" lon="99.138415">
<time>2016-10-07T10:16:13Z</time></trkpt>
<trkpt lat="28.312543" lon="99.138075">
<time>2016-10-07T10:16:14Z</time></trkpt>
<trkpt lat="28.312633" lon="99.137864">
<time>2016-10-07T10:16:15Z</time></trkpt>
<trkpt lat="28.312683" lon="99.137774">
<time>2016-10-07T10:16:16Z</time></trkpt>
<trkpt lat="28.312752" lon="99.137654">
<time>2016-10-07T10:16:17Z</time></trkpt>
<trkpt lat="28.312842" lon="99.137514">
<time>2016-10-07T10:16:18Z</time></trkpt>
<trkpt lat="28.312922" lon="99.137424">
<time>2016-10-07T10:16:19Z</time></trkpt>
<trkpt lat="28.313002" lon="99.137344">
<time>2016-10-07T10:16:20Z</time></trkpt>
<trkpt lat="28.313092" lon="99.137264">
<time>2016-10-07T10:16:21Z</time></trkpt>
<trkpt lat="28.313242" lon="99.137164">
<time>2016-10-07T10:16:22Z</time></trkpt>
<trkpt lat="28.313511" lon="99.136994">
<time>2016-10-07T10:16:23Z</time></trkpt>
<trkpt lat="28.313691" lon="99.136854">
<time>2016-10-07T10:16:24Z</time></trkpt>
<trkpt lat="28.313771" lon="99.136783">
<time>2016-10-07T10:16:25Z</time></trkpt>
<trkpt lat="28.313851" lon="99.136663">
<time>2016-10-07T10:16:26Z</time></trkpt>
<trkpt lat="28.313901" lon="99.136573">
<time>2016-10-07T10:16:27Z</time></trkpt>
<trkpt lat="28.313941" lon="99.136493">
<time>2016-10-07T10:16:28Z</time></trkpt>
<trkpt lat="28.31401" lon="99.136303">
<time>2016-10-07T10:16:29Z</time></trkpt>
<trkpt lat="28.31408" lon="99.136113">
<time>2016-10-07T10:16:30Z</time></trkpt>
<trkpt lat="28.31416" lon="99.135903">
<time>2016-10-07T10:16:31Z</time></trkpt>
<trkpt lat="28.31426" lon="99.135733">
<time>2016-10-07T10:16:32Z</time></trkpt>
<trkpt lat="28.314389" lon="99.135583">
<time>2016-10-07T10:16:33Z</time></trkpt>
<trkpt lat="28.314509" lon="99.135472">
<time>2016-10-07T10:16:34Z</time></trkpt>
<trkpt lat="28.314619" lon="99.135402">
<time>2016-10-07T10:16:35Z</time></trkpt>
<trkpt lat="28.314709" lon="99.135352">
<time>2016-10-07T10:16:36Z</time></trkpt>
<trkpt lat="28.314779" lon="99.135322">
<time>2016-10-07T10:16:37Z</time></trkpt>
<trkpt lat="28.314879" lon="99.135292">
<time>2016-10-07T10:16:38Z</time></trkpt>
<trkpt lat="28.315059" lon="99.135252">
<time>2016-10-07T10:16:39Z</time></trkpt>
<trkpt lat="28.315259" lon="99.135212">
<time>2016-10-07T10:16:40Z</time></trkpt>
<trkpt lat="28.315439" lon="99.135162">
<time>2016-10-07T10:16:41Z</time></trkpt>
<trkpt lat="28.315589" lon="99.135102">
<time>2016-10-07T10:16:42Z</time></trkpt>
<trkpt lat="28.315688" lon="99.135032">
<time>2016-10-07T10:16:43Z</time></trkpt>
<trkpt lat="28.315738" lon="99.134992">
<time>2016-10-07T10:16:44Z</time></trkpt>
<trkpt lat="28.315788" lon="99.134932">
<time>2016-10-07T10:16:45Z</time></trkpt>
<trkpt lat="28.315828" lon="99.134872">
<time>2016-10-07T10:16:46Z</time></trkpt>
<trkpt lat="28.315878" lon="99.134782">
<time>2016-10-07T10:16:47Z</time></trkpt>
<trkpt lat="28.315918" lon="99.134682">
<time>2016-10-07T10:16:48Z</time></trkpt>
<trkpt lat="28.315948" lon="99.134582">
<time>2016-10-07T10:16:49Z</time></trkpt>
<trkpt lat="28.315968" lon="99.134432">
<time>2016-10-07T10:16:50Z</time></trkpt>
<trkpt lat="28.315977" lon="99.134222">
<time>2016-10-07T10:16:51Z</time></trkpt>
<trkpt lat="28.315977" lon="99.134031">
<time>2016-10-07T10:16:52Z</time></trkpt>
<trkpt lat="28.315947" lon="99.133791">
<time>2016-10-07T10:16:53Z</time></trkpt>
<trkpt lat="28.315906" lon="99.133531">
<time>2016-10-07T10:16:54Z</time></trkpt>
<trkpt lat="28.315836" lon="99.133291">
<time>2016-10-07T10:16:55Z</time></trkpt>
<trkpt lat="28.315796" lon="99.133171">
<time>2016-10-07T10:16:56Z</time></trkpt>
<trkpt lat="28.315726" lon="99.133011">
<time>2016-10-07T10:16:57Z</time></trkpt>
<trkpt lat="28.315615" lon="99.132801">
<time>2016-10-07T10:16:58Z</time></trkpt>
<trkpt lat="28.315525" lon="99.13264">
<time>2016-10-07T10:16:59Z</time></trkpt>
<trkpt lat="28.315435" lon="99.13248">
<time>2016-10-07T10:17:00Z</time></trkpt>
<trkpt lat="28.315345" lon="99.13233">
<time>2016-10-07T10:17:01Z</time></trkpt>
<trkpt lat="28.315295" lon="99.1322">
<time>2016-10-07T10:17:02Z</time></trkpt>
<trkpt lat="28.315265" lon="99.13212">
<time>2016-10-07T10:17:03Z</time></trkpt>
<trkpt lat="28.315244" lon="99.13201">
<time>2016-10-07T10:17:04Z</time></trkpt>
<trkpt lat="28.315234" lon="99.13184">
<time>2016-10-07T10:17:05Z</time></trkpt>
<trkpt lat="28.315234" lon="99.13177">
<time>2016-10-07T10:17:06Z</time></trkpt>
<trkpt lat="28.315244" lon="99.13171">
<time>2016-10-07T10:17:07Z</time></trkpt>
<trkpt lat="28.315264" lon="99.13163">
<time>2016-10-07T10:17:08Z</time></trkpt>
<trkpt lat="28.315294" lon="99.13153">
<time>2016-10-07T10:17:09Z</time></trkpt>
<trkpt lat="28.315324" lon="99.13146">
<time>2016-10-07T10:17:10Z</time></trkpt>
<trkpt lat="28.315374" lon="99.13138">
<time>2016-10-07T10:17:11Z</time></trkpt>
<trkpt lat="28.315433" lon="99.1313">
<time>2016-10-07T10:17:12Z</time></trkpt>
<trkpt lat="28.315503" lon="99.13124">
<time>2016-10-07T10:17:13Z</time></trkpt>
<trkpt lat="28.315563" lon="99.131199">
<time>2016-10-07T10:17:14Z</time></trkpt>
<trkpt lat="28.315663" lon="99.131129">
<time>2016-10-07T10:17:15Z</time></trkpt>
<trkpt lat="28.315773" lon="99.131079">
<time>2016-10-07T10:17:16Z</time></trkpt>
<trkpt lat="28.315883" lon="99.131049">
<time>2016-10-07T10:17:17Z</time></trkpt>
<trkpt lat="28.315973" lon="99.131029">
<time>2016-10-07T10:17:18Z</time></trkpt>
<trkpt lat="28.316113" lon="99.130999">
<time>2016-10-07T10:17:19Z</time></trkpt>
<trkpt lat="28.316473" lon="99.130959">
<time>2016-10-07T10:17:20Z</time></trkpt>
<trkpt lat="28.316863" lon="99.130919">
<time>2016-10-07T10:17:21Z</time></trkpt>
<trkpt lat="28.317103" lon="99.130879">
<time>2016-10-07T10:17:22Z</time></trkpt>
<trkpt lat="28.317323" lon="99.130819">
<time>2016-10-07T10:17:23Z</time></trkpt>
<trkpt lat="28.317423" lon="99.130779">
<time>2016-10-07T10:17:24Z</time></trkpt>
<trkpt lat="28.317553" lon="99.130699">
<time>2016-10-07T10:17:25Z</time></trkpt>
<trkpt lat="28.317612" lon="99.130639">
<time>2016-10-07T10:17:26Z</time></trkpt>
<trkpt lat="28.317672" lon="99.130579">
<time>2016-10-07T10:17:27Z</time></trkpt>
<trkpt lat="28.317722" lon="99.130509">
<time>2016-10-07T10:17:28Z</time></trkpt>
<trkpt lat="28.317752" lon="99.130449">
<time>2016-10-07T10:17:29Z</time></trkpt>
<trkpt lat="28.317782" lon="99.130379">
<time>2016-10-07T10:17:30Z</time></trkpt>
<trkpt lat="28.317802" lon="99.130309">
<time>2016-10-07T10:17:31Z</time></trkpt>
<trkpt lat="28.317842" lon="99.130139">
<time>2016-10-07T10:17:32Z</time></trkpt>
<trkpt lat="28.317862" lon="99.129929">
<time>2016-10-07T10:17:33Z</time></trkpt>
<trkpt lat="28.317891" lon="99.129709">
<time>2016-10-07T10:17:34Z</time></trkpt>
<trkpt lat="28.317931" lon="99.129538">
<time>2016-10-07T10:17:35Z</time></trkpt>
<trkpt lat="28.317961" lon="99.129448">
<time>2016-10-07T10:17:36Z</time></trkpt>
<trkpt lat="28.317981" lon="99.129388">
<time>2016-10-07T10:17:37Z</time></trkpt>
<trkpt lat="28.318011" lon="99.129328">
<time>2016-10-07T10:17:38Z</time></trkpt>
<trkpt lat="28.318061" lon="99.129248">
<time>2016-10-07T10:17:39Z</time></trkpt>
<trkpt lat="28.318101" lon="99.129188">
<time>2016-10-07T10:17:40Z</time></trkpt>
<trkpt lat="28.318151" lon="99.129138">
<time>2016-10-07T10:17:41Z</time></trkpt>
<trkpt lat="28.31819" lon="99.129098">
<time>2016-10-07T10:17:42Z</time></trkpt>
<trkpt lat="28.31828" lon="99.129018">
<time>2016-10-07T10:17:43Z</time></trkpt>
<trkpt lat="28.31841" lon="99.128948">
<time>2016-10-07T10:17:44Z</time></trkpt>
<trkpt lat="28.31847" lon="99.128918">
<time>2016-10-07T10:17:45Z</time></trkpt>
<trkpt lat="28.31854" lon="99.128898">
<time>2016-10-07T10:17:46Z</time></trkpt>
<trkpt lat="28.31862" lon="99.128868">
<time>2016-10-07T10:17:47Z</time></trkpt>
<trkpt lat="28.31874" lon="99.128848">
<time>2016-10-07T10:17:48Z</time></trkpt>
<trkpt lat="28.31891" lon="99.128838">
<time>2016-10-07T10:17:49Z</time></trkpt>
<trkpt lat="28.31909" lon="99.128818">
<time>2016-10-07T10:17:50Z</time></trkpt>
<trkpt lat="28.31927" lon="99.128808">
<time>2016-10-07T10:17:51Z</time></trkpt>
<trkpt lat="28.31984" lon="99.128778">
<time>2016-10-07T10:17:52Z</time></trkpt>
<trkpt lat="28.31993" lon="99.128768">
<time>2016-10-07T10:17:53Z</time></trkpt>
<trkpt lat="28.32001" lon="99.128748">
<time>2016-10-07T10:17:54Z</time></trkpt>
<trkpt lat="28.32007" lon="99.128728">
<time>2016-10-07T10:17:55Z</time></trkpt>
<trkpt lat="28.32012" lon="99.128708">
<time>2016-10-07T10:17:56Z</time></trkpt>
<trkpt lat="28.32018" lon="99.128668">
<time>2016-10-07T10:17:57Z</time></trkpt>
<trkpt lat="28.32025" lon="99.128628">
<time>2016-10-07T10:17:58Z</time></trkpt>
<trkpt lat="28.3203" lon="99.128578">
<time>2016-10-07T10:17:59Z</time></trkpt>
<trkpt lat="28.32034" lon="99.128528">
<time>2016-10-07T10:18:00Z</time></trkpt>
<trkpt lat="28.320399" lon="99.128458">
<time>2016-10-07T10:18:01Z</time></trkpt>
<trkpt lat="28.320439" lon="99.128378">
<time>2016-10-07T10:18:02Z</time></trkpt>
<trkpt lat="28.320479" lon="99.128258">
<time>2016-10-07T10:18:03Z</time></trkpt>
<trkpt lat="28.320499" lon="99.128138">
<time>2016-10-07T10:18:04Z</time></trkpt>
<trkpt lat="28.320489" lon="99.128008">
<time>2016-10-07T10:18:05Z</time></trkpt>
<trkpt lat="28.320469" lon="99.127918">
<time>2016-10-07T10:18:06Z</time></trkpt>
<trkpt lat="28.320419" lon="99.127767">
<time>2016-10-07T10:18:07Z</time></trkpt>
<trkpt lat="28.320349" lon="99.127657">
<time>2016-10-07T10:18:08Z</time></trkpt>
<trkpt lat="28.320238" lon="99.127547">
<time>2016-10-07T10:18:09Z</time></trkpt>
<trkpt lat="28.320098" lon="99.127427">
<time>2016-10-07T10:18:10Z</time></trkpt>
<trkpt lat="28.319878" lon="99.127277">
<time>2016-10-07T10:18:11Z</time></trkpt>
<trkpt lat="28.319688" lon="99.127147">
<time>2016-10-07T10:18:12Z</time></trkpt>
<trkpt lat="28.319498" lon="99.127027">
<time>2016-10-07T10:18:13Z</time></trkpt>
<trkpt lat="28.319238" lon="99.126857">
<time>2016-10-07T10:18:14Z</time></trkpt>
<trkpt lat="28.319008" lon="99.126697">
<time>2016-10-07T10:18:15Z</time></trkpt>
<trkpt lat="28.318827" lon="99.126557">
<time>2016-10-07T10:18:16Z</time></trkpt>
<trkpt lat="28.318637" lon="99.126397">
<time>2016-10-07T10:18:17Z</time></trkpt>
<trkpt lat="28.318597" lon="99.126347">
<time>2016-10-07T10:18:18Z</time></trkpt>
<trkpt lat="28.318447" lon="99.126187">
<time>2016-10-07T10:18:19Z</time></trkpt>
<trkpt lat="28.318367" lon="99.126087">
<time>2016-10-07T10:18:20Z</time></trkpt>
<trkpt lat="28.318297" lon="99.125977">
<time>2016-10-07T10:18:21Z</time></trkpt>
<trkpt lat="28.318187" lon="99.125827">
<time>2016-10-07T10:18:22Z</time></trkpt>
<trkpt lat="28.318106" lon="99.125687">
<time>2016-10-07T10:18:23Z</time></trkpt>
<trkpt lat="28.318016" lon="99.125496">
<time>2016-10-07T10:18:24Z</time></trkpt>
<trkpt lat="28.317956" lon="99.125366">
<time>2016-10-07T10:18:25Z</time></trkpt>
<trkpt lat="28.317896" lon="99.125216">
<time>2016-10-07T10:18:26Z</time></trkpt>
<trkpt lat="28.317836" lon="99.125036">
<time>2016-10-07T10:18:27Z</time></trkpt>
<trkpt lat="28.317796" lon="99.124896">
<time>2016-10-07T10:18:28Z</time></trkpt>
<trkpt lat="28.317755" lon="99.124646">
<time>2016-10-07T10:18:29Z</time></trkpt>
<trkpt lat="28.317725" lon="99.124356">
<time>2016-10-07T10:18:30Z</time></trkpt>
<trkpt lat="28.317715" lon="99.124116">
<time>2016-10-07T10:18:31Z</time></trkpt>
<trkpt lat="28.317725" lon="99.123876">
<time>2016-10-07T10:18:32Z</time></trkpt>
<trkpt lat="28.317734" lon="99.123706">
<time>2016-10-07T10:18:33Z</time></trkpt>
<trkpt lat="28.317764" lon="99.123536">
<time>2016-10-07T10:18:34Z</time></trkpt>
<trkpt lat="28.317784" lon="99.123386">
<time>2016-10-07T10:18:35Z</time></trkpt>
<trkpt lat="28.317844" lon="99.123176">
<time>2016-10-07T10:18:36Z</time></trkpt>
<trkpt lat="28.317884" lon="99.123036">
<time>2016-10-07T10:18:37Z</time></trkpt>
<trkpt lat="28.317983" lon="99.122806">
<time>2016-10-07T10:18:38Z</time></trkpt>
<trkpt lat="28.318073" lon="99.122595">
<time>2016-10-07T10:18:39Z</time></trkpt>
<trkpt lat="28.318133" lon="99.122495">
<time>2016-10-07T10:18:40Z</time></trkpt>
<trkpt lat="28.318203" lon="99.122405">
<time>2016-10-07T10:18:41Z</time></trkpt>
<trkpt lat="28.318253" lon="99.122335">
<time>2016-10-07T10:18:42Z</time></trkpt>
<trkpt lat="28.318343" lon="99.122235">
<time>2016-10-07T10:18:43Z</time></trkpt>
<trkpt lat="28.318563" lon="99.122055">
<time>2016-10-07T10:18:44Z</time></trkpt>
<trkpt lat="28.318742" lon="99.121935">
<time>2016-10-07T10:18:45Z</time></trkpt>
<trkpt lat="28.318912" lon="99.121815">
<time>2016-10-07T10:18:46Z</time></trkpt>
<trkpt lat="28.319042" lon="99.121715">
<time>2016-10-07T10:18:47Z</time></trkpt>
<trkpt lat="28.319182" lon="99.121575">
<time>2016-10-07T10:18:48Z</time></trkpt>
<trkpt lat="28.319292" lon="99.121425">
<time>2016-10-07T10:18:49Z</time></trkpt>
<trkpt lat="28.319512" lon="99.121115">
<time>2016-10-07T10:18:50Z</time></trkpt>
<trkpt lat="28.319631" lon="99.120945">
<time>2016-10-07T10:18:51Z</time></trkpt>
<trkpt lat="28.319771" lon="99.120815">
<time>2016-10-07T10:18:52Z</time></trkpt>
<trkpt lat="28.319901" lon="99.120715">
<time>2016-10-07T10:18:53Z</time></trkpt>
<trkpt lat="28.320021" lon="99.120635">
<time>2016-10-07T10:18:54Z</time></trkpt>
<trkpt lat="28.320211" lon="99.120535">
<time>2016-10-07T10:18:55Z</time></trkpt>
<trkpt lat="28.320361" lon="99.120425">
<time>2016-10-07T10:18:56Z</time></trkpt>
<trkpt lat="28.320441" lon="99.120355">
<time>2016-10-07T10:18:57Z</time></trkpt>
<trkpt lat="28.320521" lon="99.120275">
<time>2016-10-07T10:18:58Z</time></trkpt>
<trkpt lat="28.32067" lon="99.120025">
<time>2016-10-07T10:18:59Z</time></trkpt>
<trkpt lat="28.32081" lon="99.119705">
<time>2016-10-07T10:19:00Z</time></trkpt>
<trkpt lat="28.32088" lon="99.119595">
<time>2016-10-07T10:19:01Z</time></trkpt>
<trkpt lat="28.32097" lon="99.119445">
<time>2016-10-07T10:19:02Z</time></trkpt>
<trkpt lat="28.32111" lon="99.119325">
<time>2016-10-07T10:19:03Z</time></trkpt>
<trkpt lat="28.32129" lon="99.119215">
<time>2016-10-07T10:19:04Z</time></trkpt>
<trkpt lat="28.32146" lon="99.119135">
<time>2016-10-07T10:19:05Z</time></trkpt>
<trkpt lat="28.321749" lon="99.119025">
<time>2016-10-07T10:19:06Z</time></trkpt>
<trkpt lat="28.321869" lon="99.118955">
<time>2016-10-07T10:19:07Z</time></trkpt>
<trkpt lat="28.321989" lon="99.118824">
<time>2016-10-07T10:19:08Z</time></trkpt>
<trkpt lat="28.322059" lon="99.118734">
<time>2016-10-07T10:19:09Z</time></trkpt>
<trkpt lat="28.322109" lon="99.118604">
<time>2016-10-07T10:19:10Z</time></trkpt>
<trkpt lat="28.322149" lon="99.118384">
<time>2016-10-07T10:19:11Z</time></trkpt>
<trkpt lat="28.322179" lon="99.117944">
<time>2016-10-07T10:19:12Z</time></trkpt>
<trkpt lat="28.322228" lon="99.117754">
<time>2016-10-07T10:19:13Z</time></trkpt>
<trkpt lat="28.322288" lon="99.117574">
<time>2016-10-07T10:19:14Z</time></trkpt>
<trkpt lat="28.322448" lon="99.117284">
<time>2016-10-07T10:19:15Z</time></trkpt>
<trkpt lat="28.322618" lon="99.117064">
<time>2016-10-07T10:19:16Z</time></trkpt>
<trkpt lat="28.322838" lon="99.116824">
<time>2016-10-07T10:19:17Z</time></trkpt>
<trkpt lat="28.323037" lon="99.116644">
<time>2016-10-07T10:19:18Z</time></trkpt>
<trkpt lat="28.323177" lon="99.116534">
<time>2016-10-07T10:19:19Z</time></trkpt>
<trkpt lat="28.323327" lon="99.116444">
<time>2016-10-07T10:19:20Z</time></trkpt>
<trkpt lat="28.323527" lon="99.116324">
<time>2016-10-07T10:19:21Z</time></trkpt>
<trkpt lat="28.323717" lon="99.116244">
<time>2016-10-07T10:19:22Z</time></trkpt>
<trkpt lat="28.323837" lon="99.116194">
<time>2016-10-07T10:19:23Z</time></trkpt>
<trkpt lat="28.324067" lon="99.116114">
<time>2016-10-07T10:19:24Z</time></trkpt>
<trkpt lat="28.324247" lon="99.116034">
<time>2016-10-07T10:19:25Z</time></trkpt>
<trkpt lat="28.324337" lon="99.115984">
<time>2016-10-07T10:19:26Z</time></trkpt>
<trkpt lat="28.324467" lon="99.115874">
<time>2016-10-07T10:19:27Z</time></trkpt>
<trkpt lat="28.324586" lon="99.115734">
<time>2016-10-07T10:19:28Z</time></trkpt>
<trkpt lat="28.324636" lon="99.115644">
<time>2016-10-07T10:19:29Z</time></trkpt>
<trkpt lat="28.324676" lon="99.115514">
<time>2016-10-07T10:19:30Z</time></trkpt>
<trkpt lat="28.324706" lon="99.115364">
<time>2016-10-07T10:19:31Z</time></trkpt>
<trkpt lat="28.324726" lon="99.115224">
<time>2016-10-07T10:19:32Z</time></trkpt>
<trkpt lat="28.324726" lon="99.114924">
<time>2016-10-07T10:19:33Z</time></trkpt>
<trkpt lat="28.324746" lon="99.114544">
<time>2016-10-07T10:19:34Z</time></trkpt>
<trkpt lat="28.324765" lon="99.114404">
<time>2016-10-07T10:19:35Z</time></trkpt>
<trkpt lat="28.324785" lon="99.114274">
<time>2016-10-07T10:19:36Z</time></trkpt>
<trkpt lat="28.324885" lon="99.113994">
<time>2016-10-07T10:19:37Z</time></trkpt>
<trkpt lat="28.325105" lon="99.113594">
<time>2016-10-07T10:19:38Z</time></trkpt>
<trkpt lat="28.325954" lon="99.112204">
<time>2016-10-07T10:19:39Z</time></trkpt>
<trkpt lat="28.326643" lon="99.111064">
<time>2016-10-07T10:19:40Z</time></trkpt>
<trkpt lat="28.327063" lon="99.110395">
<time>2016-10-07T10:19:41Z</time></trkpt>
<trkpt lat="28.327223" lon="99.110215">
<time>2016-10-07T10:19:42Z</time></trkpt>
<trkpt lat="28.327393" lon="99.110075">
<time>2016-10-07T10:19:43Z</time></trkpt>
<trkpt lat="28.327502" lon="99.109995">
<time>2016-10-07T10:19:44Z</time></trkpt>
<trkpt lat="28.327612" lon="99.109935">
<time>2016-10-07T10:19:45Z</time></trkpt>
<trkpt lat="28.327752" lon="99.109855">
<time>2016-10-07T10:19:46Z</time></trkpt>
<trkpt lat="28.327852" lon="99.109795">
<time>2016-10-07T10:19:47Z</time></trkpt>
<trkpt lat="28.327922" lon="99.109775">
<time>2016-10-07T10:19:48Z</time></trkpt>
<trkpt lat="28.327962" lon="99.109765">
<time>2016-10-07T10:19:49Z</time></trkpt>
<trkpt lat="28.327982" lon="99.109775">
<time>2016-10-07T10:19:50Z</time></trkpt>
<trkpt lat="28.328002" lon="99.109785">
<time>2016-10-07T10:19:51Z</time></trkpt>
<trkpt lat="28.328022" lon="99.109815">
<time>2016-10-07T10:19:52Z</time></trkpt>
<trkpt lat="28.328032" lon="99.109845">
<time>2016-10-07T10:19:53Z</time></trkpt>
<trkpt lat="28.328032" lon="99.109845">
<time>2016-10-07T10:19:54Z</time></trkpt>
<trkpt lat="28.328012" lon="99.109875">
<time>2016-10-07T10:19:55Z</time></trkpt>
<trkpt lat="28.328002" lon="99.109895">
<time>2016-10-07T10:19:56Z</time></trkpt>
<trkpt lat="28.327982" lon="99.109905">
<time>2016-10-07T10:19:57Z</time></trkpt>
<trkpt lat="28.327942" lon="99.109945">
<time>2016-10-07T10:19:58Z</time></trkpt>
<trkpt lat="28.327912" lon="99.109965">
<time>2016-10-07T10:19:59Z</time></trkpt>
<trkpt lat="28.327832" lon="99.110005">
<time>2016-10-07T10:20:00Z</time></trkpt>
<trkpt lat="28.327722" lon="99.110095">
<time>2016-10-07T10:20:01Z</time></trkpt>
<trkpt lat="28.327423" lon="99.110315">
<time>2016-10-07T10:20:02Z</time></trkpt>
<trkpt lat="28.327243" lon="99.110475">
<time>2016-10-07T10:20:03Z</time></trkpt>
<trkpt lat="28.327173" lon="99.110545">
<time>2016-10-07T10:20:04Z</time></trkpt>
<trkpt lat="28.327103" lon="99.110645">
<time>2016-10-07T10:20:05Z</time></trkpt>
<trkpt lat="28.327013" lon="99.110785">
<time>2016-10-07T10:20:06Z</time></trkpt>
<trkpt lat="28.326893" lon="99.111044">
<time>2016-10-07T10:20:07Z</time></trkpt>
<trkpt lat="28.326733" lon="99.111474">
<time>2016-10-07T10:20:08Z</time></trkpt>
<trkpt lat="28.326494" lon="99.112094">
<time>2016-10-07T10:20:09Z</time></trkpt>
<trkpt lat="28.326184" lon="99.112894">
<time>2016-10-07T10:20:10Z</time></trkpt>
<trkpt lat="28.325935" lon="99.113534">
<time>2016-10-07T10:20:11Z</time></trkpt>
<trkpt lat="28.325735" lon="99.114004">
<time>2016-10-07T10:20:12Z</time></trkpt>
<trkpt lat="28.325525" lon="99.114484">
<time>2016-10-07T10:20:13Z</time></trkpt>
<trkpt lat="28.325496" lon="99.114574">
<time>2016-10-07T10:20:14Z</time></trkpt>
<trkpt lat="28.325486" lon="99.114644">
<time>2016-10-07T10:20:15Z</time></trkpt>
<trkpt lat="28.325476" lon="99.114694">
<time>2016-10-07T10:20:16Z</time></trkpt>
<trkpt lat="28.325476" lon="99.114764">
<time>2016-10-07T10:20:17Z</time></trkpt>
<trkpt lat="28.325486" lon="99.114854">
<time>2016-10-07T10:20:18Z</time></trkpt>
<trkpt lat="28.325526" lon="99.114964">
<time>2016-10-07T10:20:19Z</time></trkpt>
<trkpt lat="28.325546" lon="99.115034">
<time>2016-10-07T10:20:20Z</time></trkpt>
<trkpt lat="28.325636" lon="99.115294">
<time>2016-10-07T10:20:21Z</time></trkpt>
<trkpt lat="28.325726" lon="99.115564">
<time>2016-10-07T10:20:22Z</time></trkpt>
<trkpt lat="28.325806" lon="99.115774">
<time>2016-10-07T10:20:23Z</time></trkpt>
<trkpt lat="28.325847" lon="99.115914">
<time>2016-10-07T10:20:24Z</time></trkpt>
<trkpt lat="28.325857" lon="99.115994">
<time>2016-10-07T10:20:25Z</time></trkpt>
<trkpt lat="28.325847" lon="99.116064">
<time>2016-10-07T10:20:26Z</time></trkpt>
<trkpt lat="28.325817" lon="99.116154">
<time>2016-10-07T10:20:27Z</time></trkpt>
<trkpt lat="28.325747" lon="99.116264">
<time>2016-10-07T10:20:28Z</time></trkpt>
<trkpt lat="28.325597" lon="99.116474">
<time>2016-10-07T10:20:29Z</time></trkpt>
<trkpt lat="28.325397" lon="99.116784">
<time>2016-10-07T10:20:30Z</time></trkpt>
<trkpt lat="28.325317" lon="99.116884">
<time>2016-10-07T10:20:31Z</time></trkpt>
<trkpt lat="28.325267" lon="99.116924">
<time>2016-10-07T10:20:32Z</time></trkpt>
<trkpt lat="28.325217" lon="99.116954">
<time>2016-10-07T10:20:33Z</time></trkpt>
<trkpt lat="28.325117" lon="99.116984">
<time>2016-10-07T10:20:34Z</time></trkpt>
<trkpt lat="28.324947" lon="99.117004">
<time>2016-10-07T10:20:35Z</time></trkpt>
<trkpt lat="28.324827" lon="99.117014">
<time>2016-10-07T10:20:36Z</time></trkpt>
<trkpt lat="28.324718" lon="99.117034">
<time>2016-10-07T10:20:37Z</time></trkpt>
<trkpt lat="28.324608" lon="99.117064">
<time>2016-10-07T10:20:38Z</time></trkpt>
<trkpt lat="28.324458" lon="99.117104">
<time>2016-10-07T10:20:39Z</time></trkpt>
<trkpt lat="28.324348" lon="99.117144">
<time>2016-10-07T10:20:40Z</time></trkpt>
<trkpt lat="28.324228" lon="99.117194">
<time>2016-10-07T10:20:41Z</time></trkpt>
<trkpt lat="28.324098" lon="99.117264">
<time>2016-10-07T10:20:42Z</time></trkpt>
<trkpt lat="28.323978" lon="99.117344">
<time>2016-10-07T10:20:43Z</time></trkpt>
<trkpt lat="28.323798" lon="99.117474">
<time>2016-10-07T10:20:44Z</time></trkpt>
<trkpt lat="28.323708" lon="99.117554">
<time>2016-10-07T10:20:45Z</time></trkpt>
<trkpt lat="28.323638" lon="99.117624">
<time>2016-10-07T10:20:46Z</time></trkpt>
<trkpt lat="28.323568" lon="99.117714">
<time>2016-10-07T10:20:47Z</time></trkpt>
<trkpt lat="28.323508" lon="99.117814">
<time>2016-10-07T10:20:48Z</time></trkpt>
<trkpt lat="28.323408" lon="99.118034">
<time>2016-10-07T10:20:49Z</time></trkpt>
<trkpt lat="28.323339" lon="99.118224">
<time>2016-10-07T10:20:50Z</time></trkpt>
<trkpt lat="28.323319" lon="99.118344">
<time>2016-10-07T10:20:51Z</time></trkpt>
<trkpt lat="28.323309" lon="99.118444">
<time>2016-10-07T10:20:52Z</time></trkpt>
<trkpt lat="28.323319" lon="99.118534">
<time>2016-10-07T10:20:53Z</time></trkpt>
<trkpt lat="28.323349" lon="99.118774">
<time>2016-10-07T10:20:54Z</time></trkpt>
<trkpt lat="28.323379" lon="99.119064">
<time>2016-10-07T10:20:55Z</time></trkpt>
<trkpt lat="28.32341" lon="99.119375">
<time>2016-10-07T10:20:56Z</time></trkpt>
<trkpt lat="28.32342" lon="99.119555">
<time>2016-10-07T10:20:57Z</time></trkpt>
<trkpt lat="28.32341" lon="99.119715">
<time>2016-10-07T10:20:58Z</time></trkpt>
<trkpt lat="28.32341" lon="99.119785">
<time>2016-10-07T10:20:59Z</time></trkpt>
<trkpt lat="28.32338" lon="99.119855">
<time>2016-10-07T10:21:00Z</time></trkpt>
<trkpt lat="28.32334" lon="99.119935">
<time>2016-10-07T10:21:01Z</time></trkpt>
<trkpt lat="28.32328" lon="99.120015">
<time>2016-10-07T10:21:02Z</time></trkpt>
<trkpt lat="28.32318" lon="99.120085">
<time>2016-10-07T10:21:03Z</time></trkpt>
<trkpt lat="28.3231" lon="99.120145">
<time>2016-10-07T10:21:04Z</time></trkpt>
<trkpt lat="28.32294" lon="99.120255">
<time>2016-10-07T10:21:05Z</time></trkpt>
<trkpt lat="28.322831" lon="99.120315">
<time>2016-10-07T10:21:06Z</time></trkpt>
<trkpt lat="28.322701" lon="99.120375">
<time>2016-10-07T10:21:07Z</time></trkpt>
<trkpt lat="28.322551" lon="99.120445">
<time>2016-10-07T10:21:08Z</time></trkpt>
<trkpt lat="28.322431" lon="99.120515">
<time>2016-10-07T10:21:09Z</time></trkpt>
<trkpt lat="28.322221" lon="99.120625">
<time>2016-10-07T10:21:10Z</time></trkpt>
<trkpt lat="28.322181" lon="99.120655">
<time>2016-10-07T10:21:11Z</time></trkpt>
<trkpt lat="28.322151" lon="99.120675">
<time>2016-10-07T10:21:12Z</time></trkpt>
<trkpt lat="28.322131" lon="99.120705">
<time>2016-10-07T10:21:13Z</time></trkpt>
<trkpt lat="28.322111" lon="99.120725">
<time>2016-10-07T10:21:14Z</time></trkpt>
<trkpt lat="28.322111" lon="99.120745">
<time>2016-10-07T10:21:15Z</time></trkpt>
<trkpt lat="28.322101" lon="99.120755">
<time>2016-10-07T10:21:16Z</time></trkpt>
<trkpt lat="28.322101" lon="99.120775">
<time>2016-10-07T10:21:17Z</time></trkpt>
<trkpt lat="28.322101" lon="99.120795">
<time>2016-10-07T10:21:18Z</time></trkpt>
<trkpt lat="28.322111" lon="99.120805">
<time>2016-10-07T10:21:19Z</time></trkpt>
<trkpt lat="28.322121" lon="99.120825">
<time>2016-10-07T10:21:20Z</time></trkpt>
<trkpt lat="28.322141" lon="99.120845">
<time>2016-10-07T10:21:21Z</time></trkpt>
<trkpt lat="28.322171" lon="99.120865">
<time>2016-10-07T10:21:22Z</time></trkpt>
<trkpt lat="28.322201" lon="99.120865">
<time>2016-10-07T10:21:23Z</time></trkpt>
<trkpt lat="28.322221" lon="99.120855">
<time>2016-10-07T10:21:24Z</time></trkpt>
<trkpt lat="28.322261" lon="99.120845">
<time>2016-10-07T10:21:25Z</time></trkpt>
<trkpt lat="28.322291" lon="99.120825">
<time>2016-10-07T10:21:26Z</time></trkpt>
<trkpt lat="28.322311" lon="99.120805">
<time>2016-10-07T10:21:27Z</time></trkpt>
<trkpt lat="28.322411" lon="99.120725">
<time>2016-10-07T10:21:28Z</time></trkpt>
<trkpt lat="28.322481" lon="99.120665">
<time>2016-10-07T10:21:29Z</time></trkpt>
<trkpt lat="28.322571" lon="99.120595">
<time>2016-10-07T10:21:30Z</time></trkpt>
<trkpt lat="28.322731" lon="99.120505">
<time>2016-10-07T10:21:31Z</time></trkpt>
<trkpt lat="28.322891" lon="99.120435">
<time>2016-10-07T10:21:32Z</time></trkpt>
<trkpt lat="28.323181" lon="99.120305">
<time>2016-10-07T10:21:33Z</time></trkpt>
<trkpt lat="28.32332" lon="99.120255">
<time>2016-10-07T10:21:34Z</time></trkpt>
<trkpt lat="28.3234" lon="99.120225">
<time>2016-10-07T10:21:35Z</time></trkpt>
<trkpt lat="28.32346" lon="99.120195">
<time>2016-10-07T10:21:36Z</time></trkpt>
<trkpt lat="28.32352" lon="99.120135">
<time>2016-10-07T10:21:37Z</time></trkpt>
<trkpt lat="28.32356" lon="99.120085">
<time>2016-10-07T10:21:38Z</time></trkpt>
<trkpt lat="28.3236" lon="99.120005">
<time>2016-10-07T10:21:39Z</time></trkpt>
<trkpt lat="28.32363" lon="99.119915">
<time>2016-10-07T10:21:40Z</time></trkpt>
<trkpt lat="28.32367" lon="99.119725">
<time>2016-10-07T10:21:41Z</time></trkpt>
<trkpt lat="28.32369" lon="99.119395">
<time>2016-10-07T10:21:42Z</time></trkpt>
<trkpt lat="28.323709" lon="99.119064">
<time>2016-10-07T10:21:43Z</time></trkpt>
<trkpt lat="28.323709" lon="99.118824">
<time>2016-10-07T10:21:44Z</time></trkpt>
<trkpt lat="28.323699" lon="99.118554">
<time>2016-10-07T10:21:45Z</time></trkpt>
<trkpt lat="28.323709" lon="99.118474">
<time>2016-10-07T10:21:46Z</time></trkpt>
<trkpt lat="28.323729" lon="99.118394">
<time>2016-10-07T10:21:47Z</time></trkpt>
<trkpt lat="28.323779" lon="99.118254">
<time>2016-10-07T10:21:48Z</time></trkpt>
<trkpt lat="28.323839" lon="99.118154">
<time>2016-10-07T10:21:49Z</time></trkpt>
<trkpt lat="28.323918" lon="99.118044">
<time>2016-10-07T10:21:50Z</time></trkpt>
<trkpt lat="28.324018" lon="99.117934">
<time>2016-10-07T10:21:51Z</time></trkpt>
<trkpt lat="28.324088" lon="99.117884">
<time>2016-10-07T10:21:52Z</time></trkpt>
<trkpt lat="28.324178" lon="99.117824">
<time>2016-10-07T10:21:53Z</time></trkpt>
<trkpt lat="28.324258" lon="99.117794">
<time>2016-10-07T10:21:54Z</time></trkpt>
<trkpt lat="28.324358" lon="99.117764">
<time>2016-10-07T10:21:55Z</time></trkpt>
<trkpt lat="28.324618" lon="99.117704">
<time>2016-10-07T10:21:56Z</time></trkpt>
<trkpt lat="28.324858" lon="99.117664">
<time>2016-10-07T10:21:57Z</time></trkpt>
<trkpt lat="28.325088" lon="99.117664">
<time>2016-10-07T10:21:58Z</time></trkpt>
<trkpt lat="28.325288" lon="99.117684">
<time>2016-10-07T10:21:59Z</time></trkpt>
<trkpt lat="28.325438" lon="99.117694">
<time>2016-10-07T10:22:00Z</time></trkpt>
<trkpt lat="28.325628" lon="99.117734">
<time>2016-10-07T10:22:01Z</time></trkpt>
<trkpt lat="28.325758" lon="99.117724">
<time>2016-10-07T10:22:02Z</time></trkpt>
<trkpt lat="28.325818" lon="99.117694">
<time>2016-10-07T10:22:03Z</time></trkpt>
<trkpt lat="28.325868" lon="99.117674">
<time>2016-10-07T10:22:04Z</time></trkpt>
<trkpt lat="28.325918" lon="99.117634">
<time>2016-10-07T10:22:05Z</time></trkpt>
<trkpt lat="28.325978" lon="99.117564">
<time>2016-10-07T10:22:06Z</time></trkpt>
<trkpt lat="28.326048" lon="99.117444">
<time>2016-10-07T10:22:07Z</time></trkpt>
<trkpt lat="28.326138" lon="99.117234">
<time>2016-10-07T10:22:08Z</time></trkpt>
<trkpt lat="28.326197" lon="99.117124">
<time>2016-10-07T10:22:09Z</time></trkpt>
<trkpt lat="28.326277" lon="99.116994">
<time>2016-10-07T10:22:10Z</time></trkpt>
<trkpt lat="28.326397" lon="99.116874">
<time>2016-10-07T10:22:11Z</time></trkpt>
<trkpt lat="28.326527" lon="99.116774">
<time>2016-10-07T10:22:12Z</time></trkpt>
<trkpt lat="28.326727" lon="99.116644">
<time>2016-10-07T10:22:13Z</time></trkpt>
<trkpt lat="28.326797" lon="99.116574">
<time>2016-10-07T10:22:14Z</time></trkpt>
<trkpt lat="28.326867" lon="99.116494">
<time>2016-10-07T10:22:15Z</time></trkpt>
<trkpt lat="28.326927" lon="99.116374">
<time>2016-10-07T10:22:16Z</time></trkpt>
<trkpt lat="28.326967" lon="99.116234">
<time>2016-10-07T10:22:17Z</time></trkpt>
<trkpt lat="28.326987" lon="99.116074">
<time>2016-10-07T10:22:18Z</time></trkpt>
<trkpt lat="28.326996" lon="99.115944">
<time>2016-10-07T10:22:19Z</time></trkpt>
<trkpt lat="28.326976" lon="99.115804">
<time>2016-10-07T10:22:20Z</time></trkpt>
<trkpt lat="28.326926" lon="99.115664">
<time>2016-10-07T10:22:21Z</time></trkpt>
<trkpt lat="28.326846" lon="99.115514">
<time>2016-10-07T10:22:22Z</time></trkpt>
<trkpt lat="28.326796" lon="99.115434">
<time>2016-10-07T10:22:23Z</time></trkpt>
<trkpt lat="28.326756" lon="99.115364">
<time>2016-10-07T10:22:24Z</time></trkpt>
<trkpt lat="28.326746" lon="99.115274">
<time>2016-10-07T10:22:25Z</time></trkpt>
<trkpt lat="28.326746" lon="99.115204">
<time>2016-10-07T10:22:26Z</time></trkpt>
<trkpt lat="28.326766" lon="99.115134">
<time>2016-10-07T10:22:27Z</time></trkpt>
<trkpt lat="28.326876" lon="99.114934">
<time>2016-10-07T10:22:28Z</time></trkpt>
<trkpt lat="28.327255" lon="99.114254">
<time>2016-10-07T10:22:29Z</time></trkpt>
<trkpt lat="28.327675" lon="99.113534">
<time>2016-10-07T10:22:30Z</time></trkpt>
<trkpt lat="28.328114" lon="99.112854">
<time>2016-10-07T10:22:31Z</time></trkpt>
<trkpt lat="28.328454" lon="99.112384">
<time>2016-10-07T10:22:32Z</time></trkpt>
<trkpt lat="28.328604" lon="99.112184">
<time>2016-10-07T10:22:33Z</time></trkpt>
<trkpt lat="28.328714" lon="99.112044">
<time>2016-10-07T10:22:34Z</time></trkpt>
<trkpt lat="28.329153" lon="99.111514">
<time>2016-10-07T10:22:35Z</time></trkpt>
<trkpt lat="28.329353" lon="99.111264">
<time>2016-10-07T10:22:36Z</time></trkpt>
<trkpt lat="28.329513" lon="99.111044">
<time>2016-10-07T10:22:37Z</time></trkpt>
<trkpt lat="28.329613" lon="99.110944">
<time>2016-10-07T10:22:38Z</time></trkpt>
<trkpt lat="28.329713" lon="99.110864">
<time>2016-10-07T10:22:39Z</time></trkpt>
<trkpt lat="28.329823" lon="99.110784">
<time>2016-10-07T10:22:40Z</time></trkpt>
<trkpt lat="28.330013" lon="99.110714">
<time>2016-10-07T10:22:41Z</time></trkpt>
<trkpt lat="28.330153" lon="99.110664">
<time>2016-10-07T10:22:42Z</time></trkpt>
<trkpt lat="28.330352" lon="99.110594">
<time>2016-10-07T10:22:43Z</time></trkpt>
<trkpt lat="28.330682" lon="99.110515">
<time>2016-10-07T10:22:44Z</time></trkpt>
<trkpt lat="28.330922" lon="99.110455">
<time>2016-10-07T10:22:45Z</time></trkpt>
<trkpt lat="28.331042" lon="99.110385">
<time>2016-10-07T10:22:46Z</time></trkpt>
<trkpt lat="28.331122" lon="99.110295">
<time>2016-10-07T10:22:47Z</time></trkpt>
<trkpt lat="28.331172" lon="99.110195">
<time>2016-10-07T10:22:48Z</time></trkpt>
<trkpt lat="28.331212" lon="99.110045">
<time>2016-10-07T10:22:49Z</time></trkpt>
<trkpt lat="28.331252" lon="99.109875">
<time>2016-10-07T10:22:50Z</time></trkpt>
<trkpt lat="28.331322" lon="99.109515">
<time>2016-10-07T10:22:51Z</time></trkpt>
<trkpt lat="28.331462" lon="99.109075">
<time>2016-10-07T10:22:52Z</time></trkpt>
<trkpt lat="28.331661" lon="99.108475">
<time>2016-10-07T10:22:53Z</time></trkpt>
<trkpt lat="28.331791" lon="99.108135">
<time>2016-10-07T10:22:54Z</time></trkpt>
<trkpt lat="28.332031" lon="99.107475">
<time>2016-10-07T10:22:55Z</time></trkpt>
<trkpt lat="28.332141" lon="99.107215">
<time>2016-10-07T10:22:56Z</time></trkpt>
<trkpt lat="28.33233" lon="99.106866">
<time>2016-10-07T10:22:57Z</time></trkpt>
<trkpt lat="28.33292" lon="99.105726">
<time>2016-10-07T10:22:58Z</time></trkpt>
<trkpt lat="28.33336" lon="99.104846">
<time>2016-10-07T10:22:59Z</time></trkpt>
<trkpt lat="28.33351" lon="99.104577">
<time>2016-10-07T10:23:00Z</time></trkpt>
<trkpt lat="28.333649" lon="99.104367">
<time>2016-10-07T10:23:01Z</time></trkpt>
<trkpt lat="28.333729" lon="99.104257">
<time>2016-10-07T10:23:02Z</time></trkpt>
<trkpt lat="28.333769" lon="99.104147">
<time>2016-10-07T10:23:03Z</time></trkpt>
<trkpt lat="28.333819" lon="99.103997">
<time>2016-10-07T10:23:04Z</time></trkpt>
<trkpt lat="28.333849" lon="99.103817">
<time>2016-10-07T10:23:05Z</time></trkpt>
<trkpt lat="28.333859" lon="99.103707">
<time>2016-10-07T10:23:06Z</time></trkpt>
<trkpt lat="28.333859" lon="99.103697">
<time>2016-10-07T10:23:07Z</time></trkpt>
<trkpt lat="28.333859" lon="99.103607">
<time>2016-10-07T10:23:08Z</time></trkpt>
<trkpt lat="28.333859" lon="99.103537">
<time>2016-10-07T10:23:09Z</time></trkpt>
<trkpt lat="28.333849" lon="99.103457">
<time>2016-10-07T10:23:10Z</time></trkpt>
<trkpt lat="28.333819" lon="99.103387">
<time>2016-10-07T10:23:11Z</time></trkpt>
<trkpt lat="28.333769" lon="99.103307">
<time>2016-10-07T10:23:12Z</time></trkpt>
<trkpt lat="28.333719" lon="99.103267">
<time>2016-10-07T10:23:13Z</time></trkpt>
<trkpt lat="28.333669" lon="99.103237">
<time>2016-10-07T10:23:14Z</time></trkpt>
<trkpt lat="28.333599" lon="99.103197">
<time>2016-10-07T10:23:15Z</time></trkpt>
<trkpt lat="28.333369" lon="99.103137">
<time>2016-10-07T10:23:16Z</time></trkpt>
<trkpt lat="28.333189" lon="99.103077">
<time>2016-10-07T10:23:17Z</time></trkpt>
<trkpt lat="28.332789" lon="99.102917">
<time>2016-10-07T10:23:18Z</time></trkpt>
<trkpt lat="28.332629" lon="99.102857">
<time>2016-10-07T10:23:19Z</time></trkpt>
<trkpt lat="28.332389" lon="99.102758">
<time>2016-10-07T10:23:20Z</time></trkpt>
<trkpt lat="28.332339" lon="99.102728">
<time>2016-10-07T10:23:21Z</time></trkpt>
<trkpt lat="28.332309" lon="99.102698">
<time>2016-10-07T10:23:22Z</time></trkpt>
<trkpt lat="28.332289" lon="99.102678">
<time>2016-10-07T10:23:23Z</time></trkpt>
<trkpt lat="28.332269" lon="99.102638">
<time>2016-10-07T10:23:24Z</time></trkpt>
<trkpt lat="28.332239" lon="99.102588">
<time>2016-10-07T10:23:25Z</time></trkpt>
<trkpt lat="28.332239" lon="99.102538">
<time>2016-10-07T10:23:26Z</time></trkpt>
<trkpt lat="28.332239" lon="99.102488">
<time>2016-10-07T10:23:27Z</time></trkpt>
<trkpt lat="28.332259" lon="99.102428">
<time>2016-10-07T10:23:28Z</time></trkpt>
<trkpt lat="28.332279" lon="99.102378">
<time>2016-10-07T10:23:29Z</time></trkpt>
<trkpt lat="28.332299" lon="99.102338">
<time>2016-10-07T10:23:30Z</time></trkpt>
<trkpt lat="28.332369" lon="99.102238">
<time>2016-10-07T10:23:31Z</time></trkpt>
<trkpt lat="28.332549" lon="99.101938">
<time>2016-10-07T10:23:32Z</time></trkpt>
<trkpt lat="28.332909" lon="99.101408">
<time>2016-10-07T10:23:33Z</time></trkpt>
<trkpt lat="28.333089" lon="99.101148">
<time>2016-10-07T10:23:34Z</time></trkpt>
<trkpt lat="28.333159" lon="99.101069">
<time>2016-10-07T10:23:35Z</time></trkpt>
<trkpt lat="28.333229" lon="99.100999">
<time>2016-10-07T10:23:36Z</time></trkpt>
<trkpt lat="28.333299" lon="99.100959">
<time>2016-10-07T10:23:37Z</time></trkpt>
<trkpt lat="28.333369" lon="99.100919">
<time>2016-10-07T10:23:38Z</time></trkpt>
<trkpt lat="28.333399" lon="99.100879">
<time>2016-10-07T10:23:39Z</time></trkpt>
<trkpt lat="28.333429" lon="99.100859">
<time>2016-10-07T10:23:40Z</time></trkpt>
<trkpt lat="28.333679" lon="99.100599">
<time>2016-10-07T10:23:41Z</time></trkpt>
<trkpt lat="28.333799" lon="99.100529">
<time>2016-10-07T10:23:42Z</time></trkpt>
<trkpt lat="28.334098" lon="99.100379">
<time>2016-10-07T10:23:43Z</time></trkpt>
<trkpt lat="28.334258" lon="99.100289">
<time>2016-10-07T10:23:44Z</time></trkpt>
<trkpt lat="28.334508" lon="99.100199">
<time>2016-10-07T10:23:45Z</time></trkpt>
<trkpt lat="28.334738" lon="99.100149">
<time>2016-10-07T10:23:46Z</time></trkpt>
<trkpt lat="28.334948" lon="99.100119">
<time>2016-10-07T10:23:47Z</time></trkpt>
<trkpt lat="28.335258" lon="99.100079">
<time>2016-10-07T10:23:48Z</time></trkpt>
<trkpt lat="28.335668" lon="99.100039">
<time>2016-10-07T10:23:49Z</time></trkpt>
<trkpt lat="28.335788" lon="99.100019">
<time>2016-10-07T10:23:50Z</time></trkpt>
<trkpt lat="28.335918" lon="99.099969">
<time>2016-10-07T10:23:51Z</time></trkpt>
<trkpt lat="28.336208" lon="99.099799">
<time>2016-10-07T10:23:52Z</time></trkpt>
<trkpt lat="28.336408" lon="99.099699">
<time>2016-10-07T10:23:53Z</time></trkpt>
<trkpt lat="28.336528" lon="99.099629">
<time>2016-10-07T10:23:54Z</time></trkpt>
<trkpt lat="28.336548" lon="99.099619">
<time>2016-10-07T10:23:55Z</time></trkpt>
<trkpt lat="28.336568" lon="99.099599">
<time>2016-10-07T10:23:56Z</time></trkpt>
<trkpt lat="28.336588" lon="99.099579">
<time>2016-10-07T10:23:57Z</time></trkpt>
<trkpt lat="28.336598" lon="99.099569">
<time>2016-10-07T10:23:58Z</time></trkpt>
<trkpt lat="28.336608" lon="99.09955">
<time>2016-10-07T10:23:59Z</time></trkpt>
<trkpt lat="28.336608" lon="99.09953">
<time>2016-10-07T10:24:00Z</time></trkpt>
<trkpt lat="28.336608" lon="99.09951">
<time>2016-10-07T10:24:01Z</time></trkpt>
<trkpt lat="28.336608" lon="99.09949">
<time>2016-10-07T10:24:02Z</time></trkpt>
<trkpt lat="28.336608" lon="99.09947">
<time>2016-10-07T10:24:03Z</time></trkpt>
<trkpt lat="28.336608" lon="99.09944">
<time>2016-10-07T10:24:04Z</time></trkpt>
<trkpt lat="28.336588" lon="99.09941">
<time>2016-10-07T10:24:05Z</time></trkpt>
<trkpt lat="28.336538" lon="99.09935">
<time>2016-10-07T10:24:06Z</time></trkpt>
<trkpt lat="28.336388" lon="99.09919">
<time>2016-10-07T10:24:07Z</time></trkpt>
<trkpt lat="28.336278" lon="99.09907">
<time>2016-10-07T10:24:08Z</time></trkpt>
<trkpt lat="28.336188" lon="99.09895">
<time>2016-10-07T10:24:09Z</time></trkpt>
<trkpt lat="28.336088" lon="99.09884">
<time>2016-10-07T10:24:10Z</time></trkpt>
<trkpt lat="28.335928" lon="99.0987">
<time>2016-10-07T10:24:11Z</time></trkpt>
<trkpt lat="28.335768" lon="99.09855">
<time>2016-10-07T10:24:12Z</time></trkpt>
<trkpt lat="28.335548" lon="99.09836">
<time>2016-10-07T10:24:13Z</time></trkpt>
<trkpt lat="28.335468" lon="99.09829">
<time>2016-10-07T10:24:14Z</time></trkpt>
<trkpt lat="28.335418" lon="99.098241">
<time>2016-10-07T10:24:15Z</time></trkpt>
<trkpt lat="28.335368" lon="99.098171">
<time>2016-10-07T10:24:16Z</time></trkpt>
<trkpt lat="28.335288" lon="99.098011">
<time>2016-10-07T10:24:17Z</time></trkpt>
<trkpt lat="28.335248" lon="99.097831">
<time>2016-10-07T10:24:18Z</time></trkpt>
<trkpt lat="28.335228" lon="99.097701">
<time>2016-10-07T10:24:19Z</time></trkpt>
<trkpt lat="28.335188" lon="99.097571">
<time>2016-10-07T10:24:20Z</time></trkpt>
<trkpt lat="28.335148" lon="99.097511">
<time>2016-10-07T10:24:21Z</time></trkpt>
<trkpt lat="28.335088" lon="99.097401">
<time>2016-10-07T10:24:22Z</time></trkpt>
<trkpt lat="28.334968" lon="99.097251">
<time>2016-10-07T10:24:23Z</time></trkpt>
<trkpt lat="28.334818" lon="99.097002">
<time>2016-10-07T10:24:24Z</time></trkpt>
<trkpt lat="28.334758" lon="99.096852">
<time>2016-10-07T10:24:25Z</time></trkpt>
<trkpt lat="28.334658" lon="99.096592">
<time>2016-10-07T10:24:26Z</time></trkpt>
<trkpt lat="28.334558" lon="99.096382">
<time>2016-10-07T10:24:27Z</time></trkpt>
<trkpt lat="28.334458" lon="99.096182">
<time>2016-10-07T10:24:28Z</time></trkpt>
<trkpt lat="28.334378" lon="99.096022">
<time>2016-10-07T10:24:29Z</time></trkpt>
<trkpt lat="28.334338" lon="99.095913">
<time>2016-10-07T10:24:30Z</time></trkpt>
<trkpt lat="28.334308" lon="99.095793">
<time>2016-10-07T10:24:31Z</time></trkpt>
<trkpt lat="28.334288" lon="99.095673">
<time>2016-10-07T10:24:32Z</time></trkpt>
<trkpt lat="28.334308" lon="99.095573">
<time>2016-10-07T10:24:33Z</time></trkpt>
<trkpt lat="28.334338" lon="99.095473">
<time>2016-10-07T10:24:34Z</time></trkpt>
<trkpt lat="28.334418" lon="99.095323">
<time>2016-10-07T10:24:35Z</time></trkpt>
<trkpt lat="28.334608" lon="99.094963">
<time>2016-10-07T10:24:36Z</time></trkpt>
<trkpt lat="28.334678" lon="99.094814">
<time>2016-10-07T10:24:37Z</time></trkpt>
<trkpt lat="28.334728" lon="99.094664">
<time>2016-10-07T10:24:38Z</time></trkpt>
<trkpt lat="28.334788" lon="99.094424">
<time>2016-10-07T10:24:39Z</time></trkpt>
<trkpt lat="28.334908" lon="99.093605">
<time>2016-10-07T10:24:40Z</time></trkpt>
<trkpt lat="28.334948" lon="99.093355">
<time>2016-10-07T10:24:41Z</time></trkpt>
<trkpt lat="28.334989" lon="99.093245">
<time>2016-10-07T10:24:42Z</time></trkpt>
<trkpt lat="28.335029" lon="99.093155">
<time>2016-10-07T10:24:43Z</time></trkpt>
<trkpt lat="28.335089" lon="99.093095">
<time>2016-10-07T10:24:44Z</time></trkpt>
<trkpt lat="28.335139" lon="99.093035">
<time>2016-10-07T10:24:45Z</time></trkpt>
<trkpt lat="28.335219" lon="99.092965">
<time>2016-10-07T10:24:46Z</time></trkpt>
<trkpt lat="28.335409" lon="99.092846">
<time>2016-10-07T10:24:47Z</time></trkpt>
<trkpt lat="28.335459" lon="99.092786">
<time>2016-10-07T10:24:48Z</time></trkpt>
<trkpt lat="28.335489" lon="99.092736">
<time>2016-10-07T10:24:49Z</time></trkpt>
<trkpt lat="28.335509" lon="99.092666">
<time>2016-10-07T10:24:50Z</time></trkpt>
<trkpt lat="28.335509" lon="99.092606">
<time>2016-10-07T10:24:51Z</time></trkpt>
<trkpt lat="28.335469" lon="99.092546">
<time>2016-10-07T10:24:52Z</time></trkpt>
<trkpt lat="28.335389" lon="99.092446">
<time>2016-10-07T10:24:53Z</time></trkpt>
<trkpt lat="28.335119" lon="99.092146">
<time>2016-10-07T10:24:54Z</time></trkpt>
<trkpt lat="28.334829" lon="99.091807">
<time>2016-10-07T10:24:55Z</time></trkpt>
<trkpt lat="28.334749" lon="99.091697">
<time>2016-10-07T10:24:56Z</time></trkpt>
<trkpt lat="28.334689" lon="99.091577">
<time>2016-10-07T10:24:57Z</time></trkpt>
<trkpt lat="28.334639" lon="99.091427">
<time>2016-10-07T10:24:58Z</time></trkpt>
<trkpt lat="28.334619" lon="99.091327">
<time>2016-10-07T10:24:59Z</time></trkpt>
<trkpt lat="28.334629" lon="99.091217">
<time>2016-10-07T10:25:00Z</time></trkpt>
<trkpt lat="28.334649" lon="99.091078">
<time>2016-10-07T10:25:01Z</time></trkpt>
<trkpt lat="28.334749" lon="99.090708">
<time>2016-10-07T10:25:02Z</time></trkpt>
<trkpt lat="28.334769" lon="99.090568">
<time>2016-10-07T10:25:03Z</time></trkpt>
<trkpt lat="28.334769" lon="99.090418">
<time>2016-10-07T10:25:04Z</time></trkpt>
<trkpt lat="28.334769" lon="99.090109">
<time>2016-10-07T10:25:05Z</time></trkpt>
<trkpt lat="28.3348" lon="99.08925">
<time>2016-10-07T10:25:06Z</time></trkpt>
<trkpt lat="28.33483" lon="99.088431">
<time>2016-10-07T10:25:07Z</time></trkpt>
<trkpt lat="28.33484" lon="99.088191">
<time>2016-10-07T10:25:08Z</time></trkpt>
<trkpt lat="28.33486" lon="99.088011">
<time>2016-10-07T10:25:09Z</time></trkpt>
<trkpt lat="28.33489" lon="99.087852">
<time>2016-10-07T10:25:10Z</time></trkpt>
<trkpt lat="28.33495" lon="99.087612">
<time>2016-10-07T10:25:11Z</time></trkpt>
<trkpt lat="28.33499" lon="99.087472">
<time>2016-10-07T10:25:12Z</time></trkpt>
<trkpt lat="28.33502" lon="99.087382">
<time>2016-10-07T10:25:13Z</time></trkpt>
<trkpt lat="28.33507" lon="99.087342">
<time>2016-10-07T10:25:14Z</time></trkpt>
<trkpt lat="28.33511" lon="99.087332">
<time>2016-10-07T10:25:15Z</time></trkpt>
<trkpt lat="28.33514" lon="99.087332">
<time>2016-10-07T10:25:16Z</time></trkpt>
<trkpt lat="28.33517" lon="99.087332">
<time>2016-10-07T10:25:17Z</time></trkpt>
<trkpt lat="28.3352" lon="99.087352">
<time>2016-10-07T10:25:18Z</time></trkpt>
<trkpt lat="28.33524" lon="99.087392">
<time>2016-10-07T10:25:19Z</time></trkpt>
<trkpt lat="28.33526" lon="99.087472">
<time>2016-10-07T10:25:20Z</time></trkpt>
<trkpt lat="28.33526" lon="99.087512">
<time>2016-10-07T10:25:21Z</time></trkpt>
<trkpt lat="28.33525" lon="99.087562">
<time>2016-10-07T10:25:22Z</time></trkpt>
<trkpt lat="28.3352" lon="99.087702">
<time>2016-10-07T10:25:23Z</time></trkpt>
<trkpt lat="28.33515" lon="99.087852">
<time>2016-10-07T10:25:24Z</time></trkpt>
<trkpt lat="28.33512" lon="99.088011">
<time>2016-10-07T10:25:25Z</time></trkpt>
<trkpt lat="28.3351" lon="99.088141">
<time>2016-10-07T10:25:26Z</time></trkpt>
<trkpt lat="28.3351" lon="99.088251">
<time>2016-10-07T10:25:27Z</time></trkpt>
<trkpt lat="28.33511" lon="99.088441">
<time>2016-10-07T10:25:28Z</time></trkpt>
<trkpt lat="28.33513" lon="99.088621">
<time>2016-10-07T10:25:29Z</time></trkpt>
<trkpt lat="28.33513" lon="99.0888">
<time>2016-10-07T10:25:30Z</time></trkpt>
<trkpt lat="28.33514" lon="99.08918">
<time>2016-10-07T10:25:31Z</time></trkpt>
<trkpt lat="28.335159" lon="99.08943">
<time>2016-10-07T10:25:32Z</time></trkpt>
<trkpt lat="28.335219" lon="99.089709">
<time>2016-10-07T10:25:33Z</time></trkpt>
<trkpt lat="28.335299" lon="99.090029">
<time>2016-10-07T10:25:34Z</time></trkpt>
<trkpt lat="28.335479" lon="99.090568">
<time>2016-10-07T10:25:35Z</time></trkpt>
<trkpt lat="28.335599" lon="99.090988">
<time>2016-10-07T10:25:36Z</time></trkpt>
<trkpt lat="28.335779" lon="99.091457">
<time>2016-10-07T10:25:37Z</time></trkpt>
<trkpt lat="28.335919" lon="99.091827">
<time>2016-10-07T10:25:38Z</time></trkpt>
<trkpt lat="28.335929" lon="99.091837">
<time>2016-10-07T10:25:39Z</time></trkpt>
<trkpt lat="28.335929" lon="99.091847">
<time>2016-10-07T10:25:40Z</time></trkpt>
<trkpt lat="28.335939" lon="99.091857">
<time>2016-10-07T10:25:41Z</time></trkpt>
<trkpt lat="28.335949" lon="99.091867">
<time>2016-10-07T10:25:42Z</time></trkpt>
<trkpt lat="28.335949" lon="99.091877">
<time>2016-10-07T10:25:43Z</time></trkpt>
<trkpt lat="28.335959" lon="99.091877">
<time>2016-10-07T10:25:44Z</time></trkpt>
<trkpt lat="28.335959" lon="99.091887">
<time>2016-10-07T10:25:45Z</time></trkpt>
<trkpt lat="28.335969" lon="99.091887">
<time>2016-10-07T10:25:46Z</time></trkpt>
<trkpt lat="28.335979" lon="99.091897">
<time>2016-10-07T10:25:47Z</time></trkpt>
<trkpt lat="28.335989" lon="99.091897">
<time>2016-10-07T10:25:48Z</time></trkpt>
<trkpt lat="28.335999" lon="99.091897">
<time>2016-10-07T10:25:49Z</time></trkpt>
<trkpt lat="28.336009" lon="99.091897">
<time>2016-10-07T10:25:50Z</time></trkpt>
<trkpt lat="28.336019" lon="99.091897">
<time>2016-10-07T10:25:51Z</time></trkpt>
<trkpt lat="28.336029" lon="99.091897">
<time>2016-10-07T10:25:52Z</time></trkpt>
<trkpt lat="28.336039" lon="99.091887">
<time>2016-10-07T10:25:53Z</time></trkpt>
<trkpt lat="28.336049" lon="99.091887">
<time>2016-10-07T10:25:54Z</time></trkpt>
<trkpt lat="28.336059" lon="99.091867">
<time>2016-10-07T10:25:55Z</time></trkpt>
<trkpt lat="28.336069" lon="99.091857">
<time>2016-10-07T10:25:56Z</time></trkpt>
<trkpt lat="28.336069" lon="99.091847">
<time>2016-10-07T10:25:57Z</time></trkpt>
<trkpt lat="28.336069" lon="99.091837">
<time>2016-10-07T10:25:58Z</time></trkpt>
<trkpt lat="28.336069" lon="99.091827">
<time>2016-10-07T10:25:59Z</time></trkpt>
<trkpt lat="28.336079" lon="99.091797">
<time>2016-10-07T10:26:00Z</time></trkpt>
<trkpt lat="28.336079" lon="99.091787">
<time>2016-10-07T10:26:01Z</time></trkpt>
<trkpt lat="28.336079" lon="99.091767">
<time>2016-10-07T10:26:02Z</time></trkpt>
<trkpt lat="28.336079" lon="99.091757">
<time>2016-10-07T10:26:03Z</time></trkpt>
<trkpt lat="28.336069" lon="99.091737">
<time>2016-10-07T10:26:04Z</time></trkpt>
<trkpt lat="28.336059" lon="99.091677">
<time>2016-10-07T10:26:05Z</time></trkpt>
<trkpt lat="28.335989" lon="99.091457">
<time>2016-10-07T10:26:06Z</time></trkpt>
<trkpt lat="28.335819" lon="99.091018">
<time>2016-10-07T10:26:07Z</time></trkpt>
<trkpt lat="28.335769" lon="99.090838">
<time>2016-10-07T10:26:08Z</time></trkpt>
<trkpt lat="28.335729" lon="99.090668">
<time>2016-10-07T10:26:09Z</time></trkpt>
<trkpt lat="28.335579" lon="99.089949">
<time>2016-10-07T10:26:10Z</time></trkpt>
<trkpt lat="28.335519" lon="99.089659">
<time>2016-10-07T10:26:11Z</time></trkpt>
<trkpt lat="28.335499" lon="99.089559">
<time>2016-10-07T10:26:12Z</time></trkpt>
<trkpt lat="28.335489" lon="99.089479">
<time>2016-10-07T10:26:13Z</time></trkpt>
<trkpt lat="28.335479" lon="99.08942">
<time>2016-10-07T10:26:14Z</time></trkpt>
<trkpt lat="28.335479" lon="99.08938">
<time>2016-10-07T10:26:15Z</time></trkpt>
<trkpt lat="28.335489" lon="99.08928">
<time>2016-10-07T10:26:16Z</time></trkpt>
<trkpt lat="28.33551" lon="99.0892">
<time>2016-10-07T10:26:17Z</time></trkpt>
<trkpt lat="28.33554" lon="99.08911">
<time>2016-10-07T10:26:18Z</time></trkpt>
<trkpt lat="28.3356" lon="99.08895">
<time>2016-10-07T10:26:19Z</time></trkpt>
<trkpt lat="28.33566" lon="99.0888">
<time>2016-10-07T10:26:20Z</time></trkpt>
<trkpt lat="28.33586" lon="99.088261">
<time>2016-10-07T10:26:21Z</time></trkpt>
<trkpt lat="28.33597" lon="99.087971">
<time>2016-10-07T10:26:22Z</time></trkpt>
<trkpt lat="28.33604" lon="99.087792">
<time>2016-10-07T10:26:23Z</time></trkpt>
<trkpt lat="28.33612" lon="99.087682">
<time>2016-10-07T10:26:24Z</time></trkpt>
<trkpt lat="28.33616" lon="99.087632">
<time>2016-10-07T10:26:25Z</time></trkpt>
<trkpt lat="28.33624" lon="99.087582">
<time>2016-10-07T10:26:26Z</time></trkpt>
<trkpt lat="28.33634" lon="99.087542">
<time>2016-10-07T10:26:27Z</time></trkpt>
<trkpt lat="28.33645" lon="99.087522">
<time>2016-10-07T10:26:28Z</time></trkpt>
<trkpt lat="28.33659" lon="99.087482">
<time>2016-10-07T10:26:29Z</time></trkpt>
<trkpt lat="28.33669" lon="99.087452">
<time>2016-10-07T10:26:30Z</time></trkpt>
<trkpt lat="28.33677" lon="99.087412">
<time>2016-10-07T10:26:31Z</time></trkpt>
<trkpt lat="28.33681" lon="99.087382">
<time>2016-10-07T10:26:32Z</time></trkpt>
<trkpt lat="28.33683" lon="99.087362">
<time>2016-10-07T10:26:33Z</time></trkpt>
<trkpt lat="28.33684" lon="99.087342">
<time>2016-10-07T10:26:34Z</time></trkpt>
<trkpt lat="28.33685" lon="99.087312">
<time>2016-10-07T10:26:35Z</time></trkpt>
<trkpt lat="28.33685" lon="99.087272">
<time>2016-10-07T10:26:36Z</time></trkpt>
<trkpt lat="28.33684" lon="99.087212">
<time>2016-10-07T10:26:37Z</time></trkpt>
<trkpt lat="28.3368" lon="99.087132">
<time>2016-10-07T10:26:38Z</time></trkpt>
<trkpt lat="28.33673" lon="99.087083">
<time>2016-10-07T10:26:39Z</time></trkpt>
<trkpt lat="28.33655" lon="99.086973">
<time>2016-10-07T10:26:40Z</time></trkpt>
<trkpt lat="28.33645" lon="99.086883">
<time>2016-10-07T10:26:41Z</time></trkpt>
<trkpt lat="28.33637" lon="99.086793">
<time>2016-10-07T10:26:42Z</time></trkpt>
<trkpt lat="28.33635" lon="99.086753">
<time>2016-10-07T10:26:43Z</time></trkpt>
<trkpt lat="28.33631" lon="99.086683">
<time>2016-10-07T10:26:44Z</time></trkpt>
<trkpt lat="28.336291" lon="99.086563">
<time>2016-10-07T10:26:45Z</time></trkpt>
<trkpt lat="28.336291" lon="99.086443">
<time>2016-10-07T10:26:46Z</time></trkpt>
<trkpt lat="28.336301" lon="99.086344">
<time>2016-10-07T10:26:47Z</time></trkpt>
<trkpt lat="28.336331" lon="99.086244">
<time>2016-10-07T10:26:48Z</time></trkpt>
<trkpt lat="28.336381" lon="99.086114">
<time>2016-10-07T10:26:49Z</time></trkpt>
<trkpt lat="28.336511" lon="99.085774">
<time>2016-10-07T10:26:50Z</time></trkpt>
<trkpt lat="28.336561" lon="99.085625">
<time>2016-10-07T10:26:51Z</time></trkpt>
<trkpt lat="28.336691" lon="99.085195">
<time>2016-10-07T10:26:52Z</time></trkpt>
<trkpt lat="28.336761" lon="99.084986">
<time>2016-10-07T10:26:53Z</time></trkpt>
<trkpt lat="28.336841" lon="99.084796">
<time>2016-10-07T10:26:54Z</time></trkpt>
<trkpt lat="28.336911" lon="99.084636">
<time>2016-10-07T10:26:55Z</time></trkpt>
<trkpt lat="28.337052" lon="99.084346">
<time>2016-10-07T10:26:56Z</time></trkpt>
<trkpt lat="28.337152" lon="99.084167">
<time>2016-10-07T10:26:57Z</time></trkpt>
<trkpt lat="28.337252" lon="99.084007">
<time>2016-10-07T10:26:58Z</time></trkpt>
<trkpt lat="28.337432" lon="99.083747">
<time>2016-10-07T10:26:59Z</time></trkpt>
<trkpt lat="28.337732" lon="99.083348">
<time>2016-10-07T10:27:00Z</time></trkpt>
<trkpt lat="28.337952" lon="99.083038">
<time>2016-10-07T10:27:01Z</time></trkpt>
<trkpt lat="28.338152" lon="99.082779">
<time>2016-10-07T10:27:02Z</time></trkpt>
<trkpt lat="28.338223" lon="99.082659">
<time>2016-10-07T10:27:03Z</time></trkpt>
<trkpt lat="28.338253" lon="99.082559">
<time>2016-10-07T10:27:04Z</time></trkpt>
<trkpt lat="28.338253" lon="99.082449">
<time>2016-10-07T10:27:05Z</time></trkpt>
<trkpt lat="28.338233" lon="99.08237">
<time>2016-10-07T10:27:06Z</time></trkpt>
<trkpt lat="28.338193" lon="99.08232">
<time>2016-10-07T10:27:07Z</time></trkpt>
<trkpt lat="28.338173" lon="99.08229">
<time>2016-10-07T10:27:08Z</time></trkpt>
<trkpt lat="28.338123" lon="99.08226">
<time>2016-10-07T10:27:09Z</time></trkpt>
<trkpt lat="28.338043" lon="99.08223">
<time>2016-10-07T10:27:10Z</time></trkpt>
<trkpt lat="28.337893" lon="99.08222">
<time>2016-10-07T10:27:11Z</time></trkpt>
<trkpt lat="28.337633" lon="99.08223">
<time>2016-10-07T10:27:12Z</time></trkpt>
<trkpt lat="28.337493" lon="99.08222">
<time>2016-10-07T10:27:13Z</time></trkpt>
<trkpt lat="28.337413" lon="99.0822">
<time>2016-10-07T10:27:14Z</time></trkpt>
<trkpt lat="28.337353" lon="99.08215">
<time>2016-10-07T10:27:15Z</time></trkpt>
<trkpt lat="28.337313" lon="99.08209">
<time>2016-10-07T10:27:16Z</time></trkpt>
<trkpt lat="28.337293" lon="99.08204">
<time>2016-10-07T10:27:17Z</time></trkpt>
<trkpt lat="28.337283" lon="99.082">
<time>2016-10-07T10:27:18Z</time></trkpt>
<trkpt lat="28.337263" lon="99.08188">
<time>2016-10-07T10:27:19Z</time></trkpt>
<trkpt lat="28.337273" lon="99.081521">
<time>2016-10-07T10:27:20Z</time></trkpt>
<trkpt lat="28.337274" lon="99.081012">
<time>2016-10-07T10:27:21Z</time></trkpt>
<trkpt lat="28.337274" lon="99.080493">
<time>2016-10-07T10:27:22Z</time></trkpt>
<trkpt lat="28.337235" lon="99.079994">
<time>2016-10-07T10:27:23Z</time></trkpt>
<trkpt lat="28.337165" lon="99.079504">
<time>2016-10-07T10:27:24Z</time></trkpt>
<trkpt lat="28.337065" lon="99.078935">
<time>2016-10-07T10:27:25Z</time></trkpt>
<trkpt lat="28.337016" lon="99.078626">
<time>2016-10-07T10:27:26Z</time></trkpt>
<trkpt lat="28.336986" lon="99.078436">
<time>2016-10-07T10:27:27Z</time></trkpt>
<trkpt lat="28.336986" lon="99.078307">
<time>2016-10-07T10:27:28Z</time></trkpt>
<trkpt lat="28.336986" lon="99.078227">
<time>2016-10-07T10:27:29Z</time></trkpt>
<trkpt lat="28.336996" lon="99.078127">
<time>2016-10-07T10:27:30Z</time></trkpt>
<trkpt lat="28.337016" lon="99.078017">
<time>2016-10-07T10:27:31Z</time></trkpt>
<trkpt lat="28.337136" lon="99.077718">
<time>2016-10-07T10:27:32Z</time></trkpt>
<trkpt lat="28.337317" lon="99.077398">
<time>2016-10-07T10:27:33Z</time></trkpt>
<trkpt lat="28.337627" lon="99.076859">
<time>2016-10-07T10:27:34Z</time></trkpt>
<trkpt lat="28.337898" lon="99.07637">
<time>2016-10-07T10:27:35Z</time></trkpt>
<trkpt lat="28.338068" lon="99.076021">
<time>2016-10-07T10:27:36Z</time></trkpt>
<trkpt lat="28.338158" lon="99.075891">
<time>2016-10-07T10:27:37Z</time></trkpt>
<trkpt lat="28.338238" lon="99.075791">
<time>2016-10-07T10:27:38Z</time></trkpt>
<trkpt lat="28.338358" lon="99.075671">
<time>2016-10-07T10:27:39Z</time></trkpt>
<trkpt lat="28.338478" lon="99.075582">
<time>2016-10-07T10:27:40Z</time></trkpt>
<trkpt lat="28.338618" lon="99.075522">
<time>2016-10-07T10:27:41Z</time></trkpt>
<trkpt lat="28.338878" lon="99.075422">
<time>2016-10-07T10:27:42Z</time></trkpt>
<trkpt lat="28.339168" lon="99.075332">
<time>2016-10-07T10:27:43Z</time></trkpt>
<trkpt lat="28.339448" lon="99.075262">
<time>2016-10-07T10:27:44Z</time></trkpt>
<trkpt lat="28.339518" lon="99.075232">
<time>2016-10-07T10:27:45Z</time></trkpt>
<trkpt lat="28.339588" lon="99.075192">
<time>2016-10-07T10:27:46Z</time></trkpt>
<trkpt lat="28.339629" lon="99.075162">
<time>2016-10-07T10:27:47Z</time></trkpt>
<trkpt lat="28.339679" lon="99.075132">
<time>2016-10-07T10:27:48Z</time></trkpt>
<trkpt lat="28.339779" lon="99.075033">
<time>2016-10-07T10:27:49Z</time></trkpt>
<trkpt lat="28.339859" lon="99.074973">
<time>2016-10-07T10:27:50Z</time></trkpt>
<trkpt lat="28.339939" lon="99.074903">
<time>2016-10-07T10:27:51Z</time></trkpt>
<trkpt lat="28.339989" lon="99.074833">
<time>2016-10-07T10:27:52Z</time></trkpt>
<trkpt lat="28.340009" lon="99.074773">
<time>2016-10-07T10:27:53Z</time></trkpt>
<trkpt lat="28.340009" lon="99.074723">
<time>2016-10-07T10:27:54Z</time></trkpt>
<trkpt lat="28.340009" lon="99.074663">
<time>2016-10-07T10:27:55Z</time></trkpt>
<trkpt lat="28.339979" lon="99.074594">
<time>2016-10-07T10:27:56Z</time></trkpt>
<trkpt lat="28.339909" lon="99.074484">
<time>2016-10-07T10:27:57Z</time></trkpt>
<trkpt lat="28.339679" lon="99.074254">
<time>2016-10-07T10:27:58Z</time></trkpt>
<trkpt lat="28.33959" lon="99.074134">
<time>2016-10-07T10:27:59Z</time></trkpt>
<trkpt lat="28.33947" lon="99.073955">
<time>2016-10-07T10:28:00Z</time></trkpt>
<trkpt lat="28.33941" lon="99.073885">
<time>2016-10-07T10:28:01Z</time></trkpt>
<trkpt lat="28.33934" lon="99.073815">
<time>2016-10-07T10:28:02Z</time></trkpt>
<trkpt lat="28.33927" lon="99.073755">
<time>2016-10-07T10:28:03Z</time></trkpt>
<trkpt lat="28.3391" lon="99.073616">
<time>2016-10-07T10:28:04Z</time></trkpt>
<trkpt lat="28.33904" lon="99.073556">
<time>2016-10-07T10:28:05Z</time></trkpt>
<trkpt lat="28.33896" lon="99.073466">
<time>2016-10-07T10:28:06Z</time></trkpt>
<trkpt lat="28.33891" lon="99.073386">
<time>2016-10-07T10:28:07Z</time></trkpt>
<trkpt lat="28.338861" lon="99.073286">
<time>2016-10-07T10:28:08Z</time></trkpt>
<trkpt lat="28.338831" lon="99.073206">
<time>2016-10-07T10:28:09Z</time></trkpt>
<trkpt lat="28.338801" lon="99.073107">
<time>2016-10-07T10:28:10Z</time></trkpt>
<trkpt lat="28.338761" lon="99.072917">
<time>2016-10-07T10:28:11Z</time></trkpt>
<trkpt lat="28.338721" lon="99.072687">
<time>2016-10-07T10:28:12Z</time></trkpt>
<trkpt lat="28.338662" lon="99.072408">
<time>2016-10-07T10:28:13Z</time></trkpt>
<trkpt lat="28.338642" lon="99.072288">
<time>2016-10-07T10:28:14Z</time></trkpt>
<trkpt lat="28.338602" lon="99.072159">
<time>2016-10-07T10:28:15Z</time></trkpt>
<trkpt lat="28.338552" lon="99.071969">
<time>2016-10-07T10:28:16Z</time></trkpt>
<trkpt lat="28.338532" lon="99.071859">
<time>2016-10-07T10:28:17Z</time></trkpt>
<trkpt lat="28.338542" lon="99.07173">
<time>2016-10-07T10:28:18Z</time></trkpt>
<trkpt lat="28.338552" lon="99.07165">
<time>2016-10-07T10:28:19Z</time></trkpt>
<trkpt lat="28.338582" lon="99.07158">
<time>2016-10-07T10:28:20Z</time></trkpt>
<trkpt lat="28.338613" lon="99.07153">
<time>2016-10-07T10:28:21Z</time></trkpt>
<trkpt lat="28.338703" lon="99.0714">
<time>2016-10-07T10:28:22Z</time></trkpt>
<trkpt lat="28.338843" lon="99.071241">
<time>2016-10-07T10:28:23Z</time></trkpt>
<trkpt lat="28.339133" lon="99.070901">
<time>2016-10-07T10:28:24Z</time></trkpt>
<trkpt lat="28.339283" lon="99.070762">
<time>2016-10-07T10:28:25Z</time></trkpt>
<trkpt lat="28.339433" lon="99.070632">
<time>2016-10-07T10:28:26Z</time></trkpt>
<trkpt lat="28.339594" lon="99.070522">
<time>2016-10-07T10:28:27Z</time></trkpt>
<trkpt lat="28.339704" lon="99.070452">
<time>2016-10-07T10:28:28Z</time></trkpt>
<trkpt lat="28.339794" lon="99.070402">
<time>2016-10-07T10:28:29Z</time></trkpt>
<trkpt lat="28.339904" lon="99.070353">
<time>2016-10-07T10:28:30Z</time></trkpt>
<trkpt lat="28.339984" lon="99.070313">
<time>2016-10-07T10:28:31Z</time></trkpt>
<trkpt lat="28.340314" lon="99.070223">
<time>2016-10-07T10:28:32Z</time></trkpt>
<trkpt lat="28.340394" lon="99.070193">
<time>2016-10-07T10:28:33Z</time></trkpt>
<trkpt lat="28.340494" lon="99.070143">
<time>2016-10-07T10:28:34Z</time></trkpt>
<trkpt lat="28.340634" lon="99.070033">
<time>2016-10-07T10:28:35Z</time></trkpt>
<trkpt lat="28.340784" lon="99.069913">
<time>2016-10-07T10:28:36Z</time></trkpt>
<trkpt lat="28.340924" lon="99.069794">
<time>2016-10-07T10:28:37Z</time></trkpt>
<trkpt lat="28.341014" lon="99.069694">
<time>2016-10-07T10:28:38Z</time></trkpt>
<trkpt lat="28.341075" lon="99.069624">
<time>2016-10-07T10:28:39Z</time></trkpt>
<trkpt lat="28.341195" lon="99.069474">
<time>2016-10-07T10:28:40Z</time></trkpt>
<trkpt lat="28.341295" lon="99.069365">
<time>2016-10-07T10:28:41Z</time></trkpt>
<trkpt lat="28.341375" lon="99.069295">
<time>2016-10-07T10:28:42Z</time></trkpt>
<trkpt lat="28.341425" lon="99.069265">
<time>2016-10-07T10:28:43Z</time></trkpt>
<trkpt lat="28.341475" lon="99.069235">
<time>2016-10-07T10:28:44Z</time></trkpt>
<trkpt lat="28.341535" lon="99.069215">
<time>2016-10-07T10:28:45Z</time></trkpt>
<trkpt lat="28.341595" lon="99.069205">
<time>2016-10-07T10:28:46Z</time></trkpt>
<trkpt lat="28.341655" lon="99.069205">
<time>2016-10-07T10:28:47Z</time></trkpt>
<trkpt lat="28.341765" lon="99.069205">
<time>2016-10-07T10:28:48Z</time></trkpt>
<trkpt lat="28.341815" lon="99.069195">
<time>2016-10-07T10:28:49Z</time></trkpt>
<trkpt lat="28.341875" lon="99.069175">
<time>2016-10-07T10:28:50Z</time></trkpt>
<trkpt lat="28.341945" lon="99.069125">
<time>2016-10-07T10:28:51Z</time></trkpt>
<trkpt lat="28.341985" lon="99.069045">
<time>2016-10-07T10:28:52Z</time></trkpt>
<trkpt lat="28.342015" lon="99.068926">
<time>2016-10-07T10:28:53Z</time></trkpt>
<trkpt lat="28.342026" lon="99.068716">
<time>2016-10-07T10:28:54Z</time></trkpt>
<trkpt lat="28.341966" lon="99.068347">
<time>2016-10-07T10:28:55Z</time></trkpt>
<trkpt lat="28.341956" lon="99.068207">
<time>2016-10-07T10:28:56Z</time></trkpt>
<trkpt lat="28.341956" lon="99.068038">
<time>2016-10-07T10:28:57Z</time></trkpt>
<trkpt lat="28.342018" lon="99.06704">
<time>2016-10-07T10:28:58Z</time></trkpt>
<trkpt lat="28.342018" lon="99.06687">
<time>2016-10-07T10:28:59Z</time></trkpt>
<trkpt lat="28.341998" lon="99.066661">
<time>2016-10-07T10:29:00Z</time></trkpt>
<trkpt lat="28.341998" lon="99.066551">
<time>2016-10-07T10:29:01Z</time></trkpt>
<trkpt lat="28.342029" lon="99.066471">
<time>2016-10-07T10:29:02Z</time></trkpt>
<trkpt lat="28.342089" lon="99.066382">
<time>2016-10-07T10:29:03Z</time></trkpt>
<trkpt lat="28.342169" lon="99.066322">
<time>2016-10-07T10:29:04Z</time></trkpt>
<trkpt lat="28.342249" lon="99.066282">
<time>2016-10-07T10:29:05Z</time></trkpt>
<trkpt lat="28.342319" lon="99.066252">
<time>2016-10-07T10:29:06Z</time></trkpt>
<trkpt lat="28.342589" lon="99.066142">
<time>2016-10-07T10:29:07Z</time></trkpt>
<trkpt lat="28.343029" lon="99.065943">
<time>2016-10-07T10:29:08Z</time></trkpt>
<trkpt lat="28.343249" lon="99.065863">
<time>2016-10-07T10:29:09Z</time></trkpt>
<trkpt lat="28.343339" lon="99.065843">
<time>2016-10-07T10:29:10Z</time></trkpt>
<trkpt lat="28.343429" lon="99.065833">
<time>2016-10-07T10:29:11Z</time></trkpt>
<trkpt lat="28.343519" lon="99.065843">
<time>2016-10-07T10:29:12Z</time></trkpt>
<trkpt lat="28.343589" lon="99.065853">
<time>2016-10-07T10:29:13Z</time></trkpt>
<trkpt lat="28.343729" lon="99.065893">
<time>2016-10-07T10:29:14Z</time></trkpt>
<trkpt lat="28.343799" lon="99.065903">
<time>2016-10-07T10:29:15Z</time></trkpt>
<trkpt lat="28.343879" lon="99.065923">
<time>2016-10-07T10:29:16Z</time></trkpt>
<trkpt lat="28.343989" lon="99.065923">
<time>2016-10-07T10:29:17Z</time></trkpt>
<trkpt lat="28.344099" lon="99.065903">
<time>2016-10-07T10:29:18Z</time></trkpt>
<trkpt lat="28.344199" lon="99.065893">
<time>2016-10-07T10:29:19Z</time></trkpt>
<trkpt lat="28.344319" lon="99.065863">
<time>2016-10-07T10:29:20Z</time></trkpt>
<trkpt lat="28.344429" lon="99.065813">
<time>2016-10-07T10:29:21Z</time></trkpt>
<trkpt lat="28.344519" lon="99.065763">
<time>2016-10-07T10:29:22Z</time></trkpt>
<trkpt lat="28.344619" lon="99.065713">
<time>2016-10-07T10:29:23Z</time></trkpt>
<trkpt lat="28.344709" lon="99.065683">
<time>2016-10-07T10:29:24Z</time></trkpt>
<trkpt lat="28.344879" lon="99.065643">
<time>2016-10-07T10:29:25Z</time></trkpt>
<trkpt lat="28.345019" lon="99.065613">
<time>2016-10-07T10:29:26Z</time></trkpt>
<trkpt lat="28.345179" lon="99.065574">
<time>2016-10-07T10:29:27Z</time></trkpt>
<trkpt lat="28.345369" lon="99.065494">
<time>2016-10-07T10:29:28Z</time></trkpt>
<trkpt lat="28.34559" lon="99.065394">
<time>2016-10-07T10:29:29Z</time></trkpt>
<trkpt lat="28.34579" lon="99.065304">
<time>2016-10-07T10:29:30Z</time></trkpt>
<trkpt lat="28.34609" lon="99.065135">
<time>2016-10-07T10:29:31Z</time></trkpt>
<trkpt lat="28.34634" lon="99.064995">
<time>2016-10-07T10:29:32Z</time></trkpt>
<trkpt lat="28.34656" lon="99.064835">
<time>2016-10-07T10:29:33Z</time></trkpt>
<trkpt lat="28.34668" lon="99.064736">
<time>2016-10-07T10:29:34Z</time></trkpt>
<trkpt lat="28.346781" lon="99.064626">
<time>2016-10-07T10:29:35Z</time></trkpt>
<trkpt lat="28.346951" lon="99.064436">
<time>2016-10-07T10:29:36Z</time></trkpt>
<trkpt lat="28.347061" lon="99.064297">
<time>2016-10-07T10:29:37Z</time></trkpt>
<trkpt lat="28.347111" lon="99.064237">
<time>2016-10-07T10:29:38Z</time></trkpt>
<trkpt lat="28.347191" lon="99.064117">
<time>2016-10-07T10:29:39Z</time></trkpt>
<trkpt lat="28.347281" lon="99.063958">
<time>2016-10-07T10:29:40Z</time></trkpt>
<trkpt lat="28.347372" lon="99.063798">
<time>2016-10-07T10:29:41Z</time></trkpt>
<trkpt lat="28.347452" lon="99.063688">
<time>2016-10-07T10:29:42Z</time></trkpt>
<trkpt lat="28.347552" lon="99.063578">
<time>2016-10-07T10:29:43Z</time></trkpt>
<trkpt lat="28.347742" lon="99.063429">
<time>2016-10-07T10:29:44Z</time></trkpt>
<trkpt lat="28.347922" lon="99.063299">
<time>2016-10-07T10:29:45Z</time></trkpt>
<trkpt lat="28.348052" lon="99.063229">
<time>2016-10-07T10:29:46Z</time></trkpt>
<trkpt lat="28.348112" lon="99.063199">
<time>2016-10-07T10:29:47Z</time></trkpt>
<trkpt lat="28.348213" lon="99.06317">
<time>2016-10-07T10:29:48Z</time></trkpt>
<trkpt lat="28.348313" lon="99.06316">
<time>2016-10-07T10:29:49Z</time></trkpt>
<trkpt lat="28.348443" lon="99.06316">
<time>2016-10-07T10:29:50Z</time></trkpt>
<trkpt lat="28.348552" lon="99.063189">
<time>2016-10-07T10:29:51Z</time></trkpt>
<trkpt lat="28.348942" lon="99.063339">
<time>2016-10-07T10:29:52Z</time></trkpt>
<trkpt lat="28.349572" lon="99.063578">
<time>2016-10-07T10:29:53Z</time></trkpt>
<trkpt lat="28.349692" lon="99.063628">
<time>2016-10-07T10:29:54Z</time></trkpt>
<trkpt lat="28.349811" lon="99.063728">
<time>2016-10-07T10:29:55Z</time></trkpt>
<trkpt lat="28.349871" lon="99.063788">
<time>2016-10-07T10:29:56Z</time></trkpt>
<trkpt lat="28.349911" lon="99.063848">
<time>2016-10-07T10:29:57Z</time></trkpt>
<trkpt lat="28.349951" lon="99.063928">
<time>2016-10-07T10:29:58Z</time></trkpt>
<trkpt lat="28.349991" lon="99.064057">
<time>2016-10-07T10:29:59Z</time></trkpt>
<trkpt lat="28.350031" lon="99.064207">
<time>2016-10-07T10:30:00Z</time></trkpt>
<trkpt lat="28.350051" lon="99.064346">
<time>2016-10-07T10:30:01Z</time></trkpt>
<trkpt lat="28.35004" lon="99.064456">
<time>2016-10-07T10:30:02Z</time></trkpt>
<trkpt lat="28.35" lon="99.064596">
<time>2016-10-07T10:30:03Z</time></trkpt>
<trkpt lat="28.34999" lon="99.064696">
<time>2016-10-07T10:30:04Z</time></trkpt>
<trkpt lat="28.34999" lon="99.064825">
<time>2016-10-07T10:30:05Z</time></trkpt>
<trkpt lat="28.35004" lon="99.064975">
<time>2016-10-07T10:30:06Z</time></trkpt>
<trkpt lat="28.350089" lon="99.065125">
<time>2016-10-07T10:30:07Z</time></trkpt>
<trkpt lat="28.350129" lon="99.065294">
<time>2016-10-07T10:30:08Z</time></trkpt>
<trkpt lat="28.350139" lon="99.065404">
<time>2016-10-07T10:30:09Z</time></trkpt>
<trkpt lat="28.350139" lon="99.065494">
<time>2016-10-07T10:30:10Z</time></trkpt>
<trkpt lat="28.350129" lon="99.065544">
<time>2016-10-07T10:30:11Z</time></trkpt>
<trkpt lat="28.350119" lon="99.065643">
<time>2016-10-07T10:30:12Z</time></trkpt>
<trkpt lat="28.350099" lon="99.065753">
<time>2016-10-07T10:30:13Z</time></trkpt>
<trkpt lat="28.350088" lon="99.065953">
<time>2016-10-07T10:30:14Z</time></trkpt>
<trkpt lat="28.350118" lon="99.066102">
<time>2016-10-07T10:30:15Z</time></trkpt>
<trkpt lat="28.350158" lon="99.066252">
<time>2016-10-07T10:30:16Z</time></trkpt>
<trkpt lat="28.350208" lon="99.066401">
<time>2016-10-07T10:30:17Z</time></trkpt>
<trkpt lat="28.350297" lon="99.066781">
<time>2016-10-07T10:30:18Z</time></trkpt>
<trkpt lat="28.350347" lon="99.06718">
<time>2016-10-07T10:30:19Z</time></trkpt>
<trkpt lat="28.350406" lon="99.067479">
<time>2016-10-07T10:30:20Z</time></trkpt>
<trkpt lat="28.350476" lon="99.067878">
<time>2016-10-07T10:30:21Z</time></trkpt>
<trkpt lat="28.350525" lon="99.068177">
<time>2016-10-07T10:30:22Z</time></trkpt>
<trkpt lat="28.350555" lon="99.068427">
<time>2016-10-07T10:30:23Z</time></trkpt>
<trkpt lat="28.350545" lon="99.068586">
<time>2016-10-07T10:30:24Z</time></trkpt>
<trkpt lat="28.350554" lon="99.068766">
<time>2016-10-07T10:30:25Z</time></trkpt>
<trkpt lat="28.350564" lon="99.068935">
<time>2016-10-07T10:30:26Z</time></trkpt>
<trkpt lat="28.350594" lon="99.069105">
<time>2016-10-07T10:30:27Z</time></trkpt>
<trkpt lat="28.350634" lon="99.069235">
<time>2016-10-07T10:30:28Z</time></trkpt>
<trkpt lat="28.350713" lon="99.069484">
<time>2016-10-07T10:30:29Z</time></trkpt>
<trkpt lat="28.350783" lon="99.069634">
<time>2016-10-07T10:30:30Z</time></trkpt>
<trkpt lat="28.350853" lon="99.069744">
<time>2016-10-07T10:30:31Z</time></trkpt>
<trkpt lat="28.350903" lon="99.069803">
<time>2016-10-07T10:30:32Z</time></trkpt>
<trkpt lat="28.350943" lon="99.069833">
<time>2016-10-07T10:30:33Z</time></trkpt>
<trkpt lat="28.350993" lon="99.069873">
<time>2016-10-07T10:30:34Z</time></trkpt>
<trkpt lat="28.351043" lon="99.069903">
<time>2016-10-07T10:30:35Z</time></trkpt>
<trkpt lat="28.351103" lon="99.069923">
<time>2016-10-07T10:30:36Z</time></trkpt>
<trkpt lat="28.351163" lon="99.069923">
<time>2016-10-07T10:30:37Z</time></trkpt>
<trkpt lat="28.351203" lon="99.069923">
<time>2016-10-07T10:30:38Z</time></trkpt>
<trkpt lat="28.351293" lon="99.069903">
<time>2016-10-07T10:30:39Z</time></trkpt>
<trkpt lat="28.351363" lon="99.069863">
<time>2016-10-07T10:30:40Z</time></trkpt>
<trkpt lat="28.351413" lon="99.069833">
<time>2016-10-07T10:30:41Z</time></trkpt>
<trkpt lat="28.351453" lon="99.069803">
<time>2016-10-07T10:30:42Z</time></trkpt>
<trkpt lat="28.351503" lon="99.069754">
<time>2016-10-07T10:30:43Z</time></trkpt>
<trkpt lat="28.351563" lon="99.069684">
<time>2016-10-07T10:30:44Z</time></trkpt>
<trkpt lat="28.351643" lon="99.069594">
<time>2016-10-07T10:30:45Z</time></trkpt>
<trkpt lat="28.351673" lon="99.069544">
<time>2016-10-07T10:30:46Z</time></trkpt>
<trkpt lat="28.351703" lon="99.069494">
<time>2016-10-07T10:30:47Z</time></trkpt>
<trkpt lat="28.351713" lon="99.069444">
<time>2016-10-07T10:30:48Z</time></trkpt>
<trkpt lat="28.351733" lon="99.069404">
<time>2016-10-07T10:30:49Z</time></trkpt>
<trkpt lat="28.351764" lon="99.069335">
<time>2016-10-07T10:30:50Z</time></trkpt>
<trkpt lat="28.351794" lon="99.069265">
<time>2016-10-07T10:30:51Z</time></trkpt>
<trkpt lat="28.351824" lon="99.069155">
<time>2016-10-07T10:30:52Z</time></trkpt>
<trkpt lat="28.351844" lon="99.069085">
<time>2016-10-07T10:30:53Z</time></trkpt>
<trkpt lat="28.351904" lon="99.068985">
<time>2016-10-07T10:30:54Z</time></trkpt>
<trkpt lat="28.352024" lon="99.068806">
<time>2016-10-07T10:30:55Z</time></trkpt>
<trkpt lat="28.352154" lon="99.068616">
<time>2016-10-07T10:30:56Z</time></trkpt>
<trkpt lat="28.352255" lon="99.068486">
<time>2016-10-07T10:30:57Z</time></trkpt>
<trkpt lat="28.352335" lon="99.068417">
<time>2016-10-07T10:30:58Z</time></trkpt>
<trkpt lat="28.352385" lon="99.068397">
<time>2016-10-07T10:30:59Z</time></trkpt>
<trkpt lat="28.352425" lon="99.068387">
<time>2016-10-07T10:31:00Z</time></trkpt>
<trkpt lat="28.352475" lon="99.068377">
<time>2016-10-07T10:31:01Z</time></trkpt>
<trkpt lat="28.352525" lon="99.068387">
<time>2016-10-07T10:31:02Z</time></trkpt>
<trkpt lat="28.352625" lon="99.068417">
<time>2016-10-07T10:31:03Z</time></trkpt>
<trkpt lat="28.352735" lon="99.068437">
<time>2016-10-07T10:31:04Z</time></trkpt>
<trkpt lat="28.352884" lon="99.068496">
<time>2016-10-07T10:31:05Z</time></trkpt>
<trkpt lat="28.353064" lon="99.068566">
<time>2016-10-07T10:31:06Z</time></trkpt>
<trkpt lat="28.353214" lon="99.068616">
<time>2016-10-07T10:31:07Z</time></trkpt>
<trkpt lat="28.353274" lon="99.068626">
<time>2016-10-07T10:31:08Z</time></trkpt>
<trkpt lat="28.353364" lon="99.068616">
<time>2016-10-07T10:31:09Z</time></trkpt>
<trkpt lat="28.353454" lon="99.068606">
<time>2016-10-07T10:31:10Z</time></trkpt>
<trkpt lat="28.353534" lon="99.068576">
<time>2016-10-07T10:31:11Z</time></trkpt>
<trkpt lat="28.353614" lon="99.068546">
<time>2016-10-07T10:31:12Z</time></trkpt>
<trkpt lat="28.353674" lon="99.068476">
<time>2016-10-07T10:31:13Z</time></trkpt>
<trkpt lat="28.353714" lon="99.068377">
<time>2016-10-07T10:31:14Z</time></trkpt>
<trkpt lat="28.353745" lon="99.068277">
<time>2016-10-07T10:31:15Z</time></trkpt>
<trkpt lat="28.353765" lon="99.068137">
<time>2016-10-07T10:31:16Z</time></trkpt>
<trkpt lat="28.353775" lon="99.067998">
<time>2016-10-07T10:31:17Z</time></trkpt>
<trkpt lat="28.353775" lon="99.067938">
<time>2016-10-07T10:31:18Z</time></trkpt>
<trkpt lat="28.353755" lon="99.067838">
<time>2016-10-07T10:31:19Z</time></trkpt>
<trkpt lat="28.353665" lon="99.067638">
<time>2016-10-07T10:31:20Z</time></trkpt>
<trkpt lat="28.353646" lon="99.067539">
<time>2016-10-07T10:31:21Z</time></trkpt>
<trkpt lat="28.353656" lon="99.067469">
<time>2016-10-07T10:31:22Z</time></trkpt>
<trkpt lat="28.353686" lon="99.067349">
<time>2016-10-07T10:31:23Z</time></trkpt>
<trkpt lat="28.353736" lon="99.067239">
<time>2016-10-07T10:31:24Z</time></trkpt>
<trkpt lat="28.353806" lon="99.06712">
<time>2016-10-07T10:31:25Z</time></trkpt>
<trkpt lat="28.353846" lon="99.06705">
<time>2016-10-07T10:31:26Z</time></trkpt>
<trkpt lat="28.353916" lon="99.06698">
<time>2016-10-07T10:31:27Z</time></trkpt>
<trkpt lat="28.353966" lon="99.06695">
<time>2016-10-07T10:31:28Z</time></trkpt>
<trkpt lat="28.354016" lon="99.06694">
<time>2016-10-07T10:31:29Z</time></trkpt>
<trkpt lat="28.354066" lon="99.06693">
<time>2016-10-07T10:31:30Z</time></trkpt>
<trkpt lat="28.354116" lon="99.06692">
<time>2016-10-07T10:31:31Z</time></trkpt>
<trkpt lat="28.354216" lon="99.06694">
<time>2016-10-07T10:31:32Z</time></trkpt>
<trkpt lat="28.354356" lon="99.06697">
<time>2016-10-07T10:31:33Z</time></trkpt>
<trkpt lat="28.354446" lon="99.06701">
<time>2016-10-07T10:31:34Z</time></trkpt>
<trkpt lat="28.354546" lon="99.06706">
<time>2016-10-07T10:31:35Z</time></trkpt>
<trkpt lat="28.354636" lon="99.06712">
<time>2016-10-07T10:31:36Z</time></trkpt>
<trkpt lat="28.354736" lon="99.067199">
<time>2016-10-07T10:31:37Z</time></trkpt>
<trkpt lat="28.354866" lon="99.067319">
<time>2016-10-07T10:31:38Z</time></trkpt>
<trkpt lat="28.354976" lon="99.067439">
<time>2016-10-07T10:31:39Z</time></trkpt>
<trkpt lat="28.355085" lon="99.067559">
<time>2016-10-07T10:31:40Z</time></trkpt>
<trkpt lat="28.355185" lon="99.067688">
<time>2016-10-07T10:31:41Z</time></trkpt>
<trkpt lat="28.355265" lon="99.067818">
<time>2016-10-07T10:31:42Z</time></trkpt>
<trkpt lat="28.355345" lon="99.067898">
<time>2016-10-07T10:31:43Z</time></trkpt>
<trkpt lat="28.355415" lon="99.067948">
<time>2016-10-07T10:31:44Z</time></trkpt>
<trkpt lat="28.355495" lon="99.067998">
<time>2016-10-07T10:31:45Z</time></trkpt>
<trkpt lat="28.355595" lon="99.068037">
<time>2016-10-07T10:31:46Z</time></trkpt>
<trkpt lat="28.355735" lon="99.068087">
<time>2016-10-07T10:31:47Z</time></trkpt>
<trkpt lat="28.355845" lon="99.068127">
<time>2016-10-07T10:31:48Z</time></trkpt>
<trkpt lat="28.355984" lon="99.068137">
<time>2016-10-07T10:31:49Z</time></trkpt>
<trkpt lat="28.356094" lon="99.068127">
<time>2016-10-07T10:31:50Z</time></trkpt>
<trkpt lat="28.356205" lon="99.068097">
<time>2016-10-07T10:31:51Z</time></trkpt>
<trkpt lat="28.356295" lon="99.068057">
<time>2016-10-07T10:31:52Z</time></trkpt>
<trkpt lat="28.356355" lon="99.068027">
<time>2016-10-07T10:31:53Z</time></trkpt>
<trkpt lat="28.356465" lon="99.067948">
<time>2016-10-07T10:31:54Z</time></trkpt>
<trkpt lat="28.356585" lon="99.067858">
<time>2016-10-07T10:31:55Z</time></trkpt>
<trkpt lat="28.356715" lon="99.067718">
<time>2016-10-07T10:31:56Z</time></trkpt>
<trkpt lat="28.356815" lon="99.067598">
<time>2016-10-07T10:31:57Z</time></trkpt>
<trkpt lat="28.356905" lon="99.067479">
<time>2016-10-07T10:31:58Z</time></trkpt>
<trkpt lat="28.357025" lon="99.067329">
<time>2016-10-07T10:31:59Z</time></trkpt>
<trkpt lat="28.357106" lon="99.067239">
<time>2016-10-07T10:32:00Z</time></trkpt>
<trkpt lat="28.357176" lon="99.067159">
<time>2016-10-07T10:32:01Z</time></trkpt>
<trkpt lat="28.357226" lon="99.06712">
<time>2016-10-07T10:32:02Z</time></trkpt>
<trkpt lat="28.357316" lon="99.06703">
<time>2016-10-07T10:32:03Z</time></trkpt>
<trkpt lat="28.357406" lon="99.06696">
<time>2016-10-07T10:32:04Z</time></trkpt>
<trkpt lat="28.357526" lon="99.06685">
<time>2016-10-07T10:32:05Z</time></trkpt>
<trkpt lat="28.357586" lon="99.06679">
<time>2016-10-07T10:32:06Z</time></trkpt>
<trkpt lat="28.357636" lon="99.06672">
<time>2016-10-07T10:32:07Z</time></trkpt>
<trkpt lat="28.357796" lon="99.066461">
<time>2016-10-07T10:32:08Z</time></trkpt>
<trkpt lat="28.357857" lon="99.066391">
<time>2016-10-07T10:32:09Z</time></trkpt>
<trkpt lat="28.357897" lon="99.066331">
<time>2016-10-07T10:32:10Z</time></trkpt>
<trkpt lat="28.358057" lon="99.066172">
<time>2016-10-07T10:32:11Z</time></trkpt>
<trkpt lat="28.358237" lon="99.065962">
<time>2016-10-07T10:32:12Z</time></trkpt>
<trkpt lat="28.358337" lon="99.065833">
<time>2016-10-07T10:32:13Z</time></trkpt>
<trkpt lat="28.358387" lon="99.065763">
<time>2016-10-07T10:32:14Z</time></trkpt>
<trkpt lat="28.358437" lon="99.065683">
<time>2016-10-07T10:32:15Z</time></trkpt>
<trkpt lat="28.358478" lon="99.065603">
<time>2016-10-07T10:32:16Z</time></trkpt>
<trkpt lat="28.358508" lon="99.065513">
<time>2016-10-07T10:32:17Z</time></trkpt>
<trkpt lat="28.358588" lon="99.065264">
<time>2016-10-07T10:32:18Z</time></trkpt>
<trkpt lat="28.358658" lon="99.065055">
<time>2016-10-07T10:32:19Z</time></trkpt>
<trkpt lat="28.358699" lon="99.064935">
<time>2016-10-07T10:32:20Z</time></trkpt>
<trkpt lat="28.358719" lon="99.064825">
<time>2016-10-07T10:32:21Z</time></trkpt>
<trkpt lat="28.358719" lon="99.064715">
<time>2016-10-07T10:32:22Z</time></trkpt>
<trkpt lat="28.358699" lon="99.064606">
<time>2016-10-07T10:32:23Z</time></trkpt>
<trkpt lat="28.358639" lon="99.064456">
<time>2016-10-07T10:32:24Z</time></trkpt>
<trkpt lat="28.358589" lon="99.064326">
<time>2016-10-07T10:32:25Z</time></trkpt>
<trkpt lat="28.35853" lon="99.064217">
<time>2016-10-07T10:32:26Z</time></trkpt>
<trkpt lat="28.35841" lon="99.064057">
<time>2016-10-07T10:32:27Z</time></trkpt>
<trkpt lat="28.35819" lon="99.063848">
<time>2016-10-07T10:32:28Z</time></trkpt>
<trkpt lat="28.35799" lon="99.063688">
<time>2016-10-07T10:32:29Z</time></trkpt>
<trkpt lat="28.357921" lon="99.063648">
<time>2016-10-07T10:32:30Z</time></trkpt>
<trkpt lat="28.357831" lon="99.063608">
<time>2016-10-07T10:32:31Z</time></trkpt>
<trkpt lat="28.357671" lon="99.063558">
<time>2016-10-07T10:32:32Z</time></trkpt>
<trkpt lat="28.357571" lon="99.063508">
<time>2016-10-07T10:32:33Z</time></trkpt>
<trkpt lat="28.357471" lon="99.063419">
<time>2016-10-07T10:32:34Z</time></trkpt>
<trkpt lat="28.357341" lon="99.063279">
<time>2016-10-07T10:32:35Z</time></trkpt>
<trkpt lat="28.357171" lon="99.063099">
<time>2016-10-07T10:32:36Z</time></trkpt>
<trkpt lat="28.357102" lon="99.06305">
<time>2016-10-07T10:32:37Z</time></trkpt>
<trkpt lat="28.357032" lon="99.06302">
<time>2016-10-07T10:32:38Z</time></trkpt>
<trkpt lat="28.356862" lon="99.06293">
<time>2016-10-07T10:32:39Z</time></trkpt>
<trkpt lat="28.356702" lon="99.06283">
<time>2016-10-07T10:32:40Z</time></trkpt>
<trkpt lat="28.356502" lon="99.062671">
<time>2016-10-07T10:32:41Z</time></trkpt>
<trkpt lat="28.356462" lon="99.062641">
<time>2016-10-07T10:32:42Z</time></trkpt>
<trkpt lat="28.356372" lon="99.062601">
<time>2016-10-07T10:32:43Z</time></trkpt>
<trkpt lat="28.356252" lon="99.062581">
<time>2016-10-07T10:32:44Z</time></trkpt>
<trkpt lat="28.356002" lon="99.062541">
<time>2016-10-07T10:32:45Z</time></trkpt>
<trkpt lat="28.355863" lon="99.062471">
<time>2016-10-07T10:32:46Z</time></trkpt>
<trkpt lat="28.355753" lon="99.062391">
<time>2016-10-07T10:32:47Z</time></trkpt>
<trkpt lat="28.355583" lon="99.062232">
<time>2016-10-07T10:32:48Z</time></trkpt>
<trkpt lat="28.355274" lon="99.061873">
<time>2016-10-07T10:32:49Z</time></trkpt>
<trkpt lat="28.355064" lon="99.061613">
<time>2016-10-07T10:32:50Z</time></trkpt>
<trkpt lat="28.354864" lon="99.061354">
<time>2016-10-07T10:32:51Z</time></trkpt>
<trkpt lat="28.354785" lon="99.061214">
<time>2016-10-07T10:32:52Z</time></trkpt>
<trkpt lat="28.354745" lon="99.061075">
<time>2016-10-07T10:32:53Z</time></trkpt>
<trkpt lat="28.354725" lon="99.060935">
<time>2016-10-07T10:32:54Z</time></trkpt>
<trkpt lat="28.354715" lon="99.060836">
<time>2016-10-07T10:32:55Z</time></trkpt>
<trkpt lat="28.354716" lon="99.060696">
<time>2016-10-07T10:32:56Z</time></trkpt>
<trkpt lat="28.354726" lon="99.060576">
<time>2016-10-07T10:32:57Z</time></trkpt>
<trkpt lat="28.354756" lon="99.060496">
<time>2016-10-07T10:32:58Z</time></trkpt>
<trkpt lat="28.354796" lon="99.060407">
<time>2016-10-07T10:32:59Z</time></trkpt>
<trkpt lat="28.354856" lon="99.060337">
<time>2016-10-07T10:33:00Z</time></trkpt>
<trkpt lat="28.354966" lon="99.060247">
<time>2016-10-07T10:33:01Z</time></trkpt>
<trkpt lat="28.355076" lon="99.060147">
<time>2016-10-07T10:33:02Z</time></trkpt>
<trkpt lat="28.355187" lon="99.060018">
<time>2016-10-07T10:33:03Z</time></trkpt>
<trkpt lat="28.355277" lon="99.059908">
<time>2016-10-07T10:33:04Z</time></trkpt>
<trkpt lat="28.355337" lon="99.059818">
<time>2016-10-07T10:33:05Z</time></trkpt>
<trkpt lat="28.355357" lon="99.059728">
<time>2016-10-07T10:33:06Z</time></trkpt>
<trkpt lat="28.355357" lon="99.059619">
<time>2016-10-07T10:33:07Z</time></trkpt>
<trkpt lat="28.355317" lon="99.059509">
<time>2016-10-07T10:33:08Z</time></trkpt>
<trkpt lat="28.355248" lon="99.059369">
<time>2016-10-07T10:33:09Z</time></trkpt>
<trkpt lat="28.355148" lon="99.05923">
<time>2016-10-07T10:33:10Z</time></trkpt>
<trkpt lat="28.355068" lon="99.05911">
<time>2016-10-07T10:33:11Z</time></trkpt>
<trkpt lat="28.355028" lon="99.05904">
<time>2016-10-07T10:33:12Z</time></trkpt>
<trkpt lat="28.354988" lon="99.058961">
<time>2016-10-07T10:33:13Z</time></trkpt>
<trkpt lat="28.354959" lon="99.058881">
<time>2016-10-07T10:33:14Z</time></trkpt>
<trkpt lat="28.354939" lon="99.058771">
<time>2016-10-07T10:33:15Z</time></trkpt>
<trkpt lat="28.354939" lon="99.058651">
<time>2016-10-07T10:33:16Z</time></trkpt>
<trkpt lat="28.354949" lon="99.058532">
<time>2016-10-07T10:33:17Z</time></trkpt>
<trkpt lat="28.35503" lon="99.058213">
<time>2016-10-07T10:33:18Z</time></trkpt>
<trkpt lat="28.35504" lon="99.058033">
<time>2016-10-07T10:33:19Z</time></trkpt>
<trkpt lat="28.35503" lon="99.057933">
<time>2016-10-07T10:33:20Z</time></trkpt>
<trkpt lat="28.35501" lon="99.057784">
<time>2016-10-07T10:33:21Z</time></trkpt>
<trkpt lat="28.354991" lon="99.057614">
<time>2016-10-07T10:33:22Z</time></trkpt>
<trkpt lat="28.354931" lon="99.057465">
<time>2016-10-07T10:33:23Z</time></trkpt>
<trkpt lat="28.354791" lon="99.057245">
<time>2016-10-07T10:33:24Z</time></trkpt>
<trkpt lat="28.354751" lon="99.057176">
<time>2016-10-07T10:33:25Z</time></trkpt>
<trkpt lat="28.354712" lon="99.057086">
<time>2016-10-07T10:33:26Z</time></trkpt>
<trkpt lat="28.354652" lon="99.056657">
<time>2016-10-07T10:33:27Z</time></trkpt>
<trkpt lat="28.354513" lon="99.056139">
<time>2016-10-07T10:33:28Z</time></trkpt>
<trkpt lat="28.354464" lon="99.055949">
<time>2016-10-07T10:33:29Z</time></trkpt>
<trkpt lat="28.354444" lon="99.05582">
<time>2016-10-07T10:33:30Z</time></trkpt>
<trkpt lat="28.354414" lon="99.05574">
<time>2016-10-07T10:33:31Z</time></trkpt>
<trkpt lat="28.354354" lon="99.05566">
<time>2016-10-07T10:33:32Z</time></trkpt>
<trkpt lat="28.354294" lon="99.05561">
<time>2016-10-07T10:33:33Z</time></trkpt>
<trkpt lat="28.354214" lon="99.05557">
<time>2016-10-07T10:33:34Z</time></trkpt>
<trkpt lat="28.354114" lon="99.05554">
<time>2016-10-07T10:33:35Z</time></trkpt>
<trkpt lat="28.354025" lon="99.05552">
<time>2016-10-07T10:33:36Z</time></trkpt>
<trkpt lat="28.353975" lon="99.055471">
<time>2016-10-07T10:33:37Z</time></trkpt>
<trkpt lat="28.353935" lon="99.055421">
<time>2016-10-07T10:33:38Z</time></trkpt>
<trkpt lat="28.353925" lon="99.055351">
<time>2016-10-07T10:33:39Z</time></trkpt>
<trkpt lat="28.353925" lon="99.055241">
<time>2016-10-07T10:33:40Z</time></trkpt>
<trkpt lat="28.353945" lon="99.055082">
<time>2016-10-07T10:33:41Z</time></trkpt>
<trkpt lat="28.353966" lon="99.054932">
<time>2016-10-07T10:33:42Z</time></trkpt>
<trkpt lat="28.354006" lon="99.054673">
<time>2016-10-07T10:33:43Z</time></trkpt>
<trkpt lat="28.354026" lon="99.054513">
<time>2016-10-07T10:33:44Z</time></trkpt>
<trkpt lat="28.354027" lon="99.054384">
<time>2016-10-07T10:33:45Z</time></trkpt>
<trkpt lat="28.354007" lon="99.054244">
<time>2016-10-07T10:33:46Z</time></trkpt>
<trkpt lat="28.353977" lon="99.054095">
<time>2016-10-07T10:33:47Z</time></trkpt>
<trkpt lat="28.353937" lon="99.053965">
<time>2016-10-07T10:33:48Z</time></trkpt>
<trkpt lat="28.353898" lon="99.053815">
<time>2016-10-07T10:33:49Z</time></trkpt>
<trkpt lat="28.353898" lon="99.053726">
<time>2016-10-07T10:33:50Z</time></trkpt>
<trkpt lat="28.353898" lon="99.053636">
<time>2016-10-07T10:33:51Z</time></trkpt>
<trkpt lat="28.353908" lon="99.053496">
<time>2016-10-07T10:33:52Z</time></trkpt>
<trkpt lat="28.353929" lon="99.053377">
<time>2016-10-07T10:33:53Z</time></trkpt>
<trkpt lat="28.353959" lon="99.053247">
<time>2016-10-07T10:33:54Z</time></trkpt>
<trkpt lat="28.353989" lon="99.053128">
<time>2016-10-07T10:33:55Z</time></trkpt>
<trkpt lat="28.353989" lon="99.053048">
<time>2016-10-07T10:33:56Z</time></trkpt>
<trkpt lat="28.353979" lon="99.052958">
<time>2016-10-07T10:33:57Z</time></trkpt>
<trkpt lat="28.35395" lon="99.052819">
<time>2016-10-07T10:33:58Z</time></trkpt>
<trkpt lat="28.35392" lon="99.052619">
<time>2016-10-07T10:33:59Z</time></trkpt>
<trkpt lat="28.3539" lon="99.05247">
<time>2016-10-07T10:34:00Z</time></trkpt>
<trkpt lat="28.353871" lon="99.05225">
<time>2016-10-07T10:34:01Z</time></trkpt>
<trkpt lat="28.353841" lon="99.052141">
<time>2016-10-07T10:34:02Z</time></trkpt>
<trkpt lat="28.353781" lon="99.052041">
<time>2016-10-07T10:34:03Z</time></trkpt>
<trkpt lat="28.353711" lon="99.051961">
<time>2016-10-07T10:34:04Z</time></trkpt>
<trkpt lat="28.353651" lon="99.051891">
<time>2016-10-07T10:34:05Z</time></trkpt>
<trkpt lat="28.353602" lon="99.051842">
<time>2016-10-07T10:34:06Z</time></trkpt>
<trkpt lat="28.353572" lon="99.051782">
<time>2016-10-07T10:34:07Z</time></trkpt>
<trkpt lat="28.353562" lon="99.051732">
<time>2016-10-07T10:34:08Z</time></trkpt>
<trkpt lat="28.353562" lon="99.051692">
<time>2016-10-07T10:34:09Z</time></trkpt>
<trkpt lat="28.353592" lon="99.051622">
<time>2016-10-07T10:34:10Z</time></trkpt>
<trkpt lat="28.353622" lon="99.051552">
<time>2016-10-07T10:34:11Z</time></trkpt>
<trkpt lat="28.353722" lon="99.051423">
<time>2016-10-07T10:34:12Z</time></trkpt>
<trkpt lat="28.353913" lon="99.051194">
<time>2016-10-07T10:34:13Z</time></trkpt>
<trkpt lat="28.354163" lon="99.050884">
<time>2016-10-07T10:34:14Z</time></trkpt>
<trkpt lat="28.354274" lon="99.050765">
<time>2016-10-07T10:34:15Z</time></trkpt>
<trkpt lat="28.354354" lon="99.050695">
<time>2016-10-07T10:34:16Z</time></trkpt>
<trkpt lat="28.354444" lon="99.050655">
<time>2016-10-07T10:34:17Z</time></trkpt>
<trkpt lat="28.354594" lon="99.050575">
<time>2016-10-07T10:34:18Z</time></trkpt>
<trkpt lat="28.354724" lon="99.050486">
<time>2016-10-07T10:34:19Z</time></trkpt>
<trkpt lat="28.354884" lon="99.050356">
<time>2016-10-07T10:34:20Z</time></trkpt>
<trkpt lat="28.354985" lon="99.050256">
<time>2016-10-07T10:34:21Z</time></trkpt>
<trkpt lat="28.355395" lon="99.049848">
<time>2016-10-07T10:34:22Z</time></trkpt>
<trkpt lat="28.355506" lon="99.049738">
<time>2016-10-07T10:34:23Z</time></trkpt>
<trkpt lat="28.355666" lon="99.049549">
<time>2016-10-07T10:34:24Z</time></trkpt>
<trkpt lat="28.355846" lon="99.049309">
<time>2016-10-07T10:34:25Z</time></trkpt>
<trkpt lat="28.356017" lon="99.04904">
<time>2016-10-07T10:34:26Z</time></trkpt>
<trkpt lat="28.356187" lon="99.048771">
<time>2016-10-07T10:34:27Z</time></trkpt>
<trkpt lat="28.356368" lon="99.048522">
<time>2016-10-07T10:34:28Z</time></trkpt>
<trkpt lat="28.356448" lon="99.048402">
<time>2016-10-07T10:34:29Z</time></trkpt>
<trkpt lat="28.356488" lon="99.048293">
<time>2016-10-07T10:34:30Z</time></trkpt>
<trkpt lat="28.356489" lon="99.048223">
<time>2016-10-07T10:34:31Z</time></trkpt>
<trkpt lat="28.356479" lon="99.048153">
<time>2016-10-07T10:34:32Z</time></trkpt>
<trkpt lat="28.356439" lon="99.048083">
<time>2016-10-07T10:34:33Z</time></trkpt>
<trkpt lat="28.356389" lon="99.048024">
<time>2016-10-07T10:34:34Z</time></trkpt>
<trkpt lat="28.356299" lon="99.047974">
<time>2016-10-07T10:34:35Z</time></trkpt>
<trkpt lat="28.356199" lon="99.047944">
<time>2016-10-07T10:34:36Z</time></trkpt>
<trkpt lat="28.355979" lon="99.047914">
<time>2016-10-07T10:34:37Z</time></trkpt>
<trkpt lat="28.355849" lon="99.047904">
<time>2016-10-07T10:34:38Z</time></trkpt>
<trkpt lat="28.355699" lon="99.047904">
<time>2016-10-07T10:34:39Z</time></trkpt>
<trkpt lat="28.355649" lon="99.047904">
<time>2016-10-07T10:34:40Z</time></trkpt>
<trkpt lat="28.355599" lon="99.047924">
<time>2016-10-07T10:34:41Z</time></trkpt>
<trkpt lat="28.355529" lon="99.047944">
<time>2016-10-07T10:34:42Z</time></trkpt>
<trkpt lat="28.355459" lon="99.047984">
<time>2016-10-07T10:34:43Z</time></trkpt>
<trkpt lat="28.355389" lon="99.048044">
<time>2016-10-07T10:34:44Z</time></trkpt>
<trkpt lat="28.355269" lon="99.048133">
<time>2016-10-07T10:34:45Z</time></trkpt>
<trkpt lat="28.355189" lon="99.048183">
<time>2016-10-07T10:34:46Z</time></trkpt>
<trkpt lat="28.355099" lon="99.048213">
<time>2016-10-07T10:34:47Z</time></trkpt>
<trkpt lat="28.355029" lon="99.048233">
<time>2016-10-07T10:34:48Z</time></trkpt>
<trkpt lat="28.354959" lon="99.048223">
<time>2016-10-07T10:34:49Z</time></trkpt>
<trkpt lat="28.354879" lon="99.048203">
<time>2016-10-07T10:34:50Z</time></trkpt>
<trkpt lat="28.354749" lon="99.048143">
<time>2016-10-07T10:34:51Z</time></trkpt>
<trkpt lat="28.35422" lon="99.047844">
<time>2016-10-07T10:34:52Z</time></trkpt>
<trkpt lat="28.35397" lon="99.047715">
<time>2016-10-07T10:34:53Z</time></trkpt>
<trkpt lat="28.35373" lon="99.047585">
<time>2016-10-07T10:34:54Z</time></trkpt>
<trkpt lat="28.3536" lon="99.047505">
<time>2016-10-07T10:34:55Z</time></trkpt>
<trkpt lat="28.353521" lon="99.047436">
<time>2016-10-07T10:34:56Z</time></trkpt>
<trkpt lat="28.353461" lon="99.047336">
<time>2016-10-07T10:34:57Z</time></trkpt>
<trkpt lat="28.353421" lon="99.047206">
<time>2016-10-07T10:34:58Z</time></trkpt>
<trkpt lat="28.353351" lon="99.047107">
<time>2016-10-07T10:34:59Z</time></trkpt>
<trkpt lat="28.353262" lon="99.047027">
<time>2016-10-07T10:35:00Z</time></trkpt>
<trkpt lat="28.353152" lon="99.046967">
<time>2016-10-07T10:35:01Z</time></trkpt>
<trkpt lat="28.353032" lon="99.046927">
<time>2016-10-07T10:35:02Z</time></trkpt>
<trkpt lat="28.352952" lon="99.046907">
<time>2016-10-07T10:35:03Z</time></trkpt>
<trkpt lat="28.352842" lon="99.046897">
<time>2016-10-07T10:35:04Z</time></trkpt>
<trkpt lat="28.352762" lon="99.046897">
<time>2016-10-07T10:35:05Z</time></trkpt>
<trkpt lat="28.352672" lon="99.046867">
<time>2016-10-07T10:35:06Z</time></trkpt>
<trkpt lat="28.352582" lon="99.046808">
<time>2016-10-07T10:35:07Z</time></trkpt>
<trkpt lat="28.352472" lon="99.046688">
<time>2016-10-07T10:35:08Z</time></trkpt>
<trkpt lat="28.352233" lon="99.046419">
<time>2016-10-07T10:35:09Z</time></trkpt>
<trkpt lat="28.352133" lon="99.046269">
<time>2016-10-07T10:35:10Z</time></trkpt>
<trkpt lat="28.352094" lon="99.04617">
<time>2016-10-07T10:35:11Z</time></trkpt>
<trkpt lat="28.352084" lon="99.04608">
<time>2016-10-07T10:35:12Z</time></trkpt>
<trkpt lat="28.352094" lon="99.04599">
<time>2016-10-07T10:35:13Z</time></trkpt>
<trkpt lat="28.352124" lon="99.045881">
<time>2016-10-07T10:35:14Z</time></trkpt>
<trkpt lat="28.352154" lon="99.045771">
<time>2016-10-07T10:35:15Z</time></trkpt>
<trkpt lat="28.352285" lon="99.045522">
<time>2016-10-07T10:35:16Z</time></trkpt>
<trkpt lat="28.352626" lon="99.045053">
<time>2016-10-07T10:35:17Z</time></trkpt>
<trkpt lat="28.352927" lon="99.044655">
<time>2016-10-07T10:35:18Z</time></trkpt>
<trkpt lat="28.353127" lon="99.044376">
<time>2016-10-07T10:35:19Z</time></trkpt>
<trkpt lat="28.353228" lon="99.044276">
<time>2016-10-07T10:35:20Z</time></trkpt>
<trkpt lat="28.353308" lon="99.044216">
<time>2016-10-07T10:35:21Z</time></trkpt>
<trkpt lat="28.353388" lon="99.044156">
<time>2016-10-07T10:35:22Z</time></trkpt>
<trkpt lat="28.353488" lon="99.044117">
<time>2016-10-07T10:35:23Z</time></trkpt>
<trkpt lat="28.353588" lon="99.044077">
<time>2016-10-07T10:35:24Z</time></trkpt>
<trkpt lat="28.353808" lon="99.044007">
<time>2016-10-07T10:35:25Z</time></trkpt>
<trkpt lat="28.353978" lon="99.043947">
<time>2016-10-07T10:35:26Z</time></trkpt>
<trkpt lat="28.354128" lon="99.043848">
<time>2016-10-07T10:35:27Z</time></trkpt>
<trkpt lat="28.354209" lon="99.043768">
<time>2016-10-07T10:35:28Z</time></trkpt>
<trkpt lat="28.354289" lon="99.043658">
<time>2016-10-07T10:35:29Z</time></trkpt>
<trkpt lat="28.354369" lon="99.043489">
<time>2016-10-07T10:35:30Z</time></trkpt>
<trkpt lat="28.354429" lon="99.043379">
<time>2016-10-07T10:35:31Z</time></trkpt>
<trkpt lat="28.35448" lon="99.04324">
<time>2016-10-07T10:35:32Z</time></trkpt>
<trkpt lat="28.3545" lon="99.04312">
<time>2016-10-07T10:35:33Z</time></trkpt>
<trkpt lat="28.35449" lon="99.042951">
<time>2016-10-07T10:35:34Z</time></trkpt>
<trkpt lat="28.354461" lon="99.042781">
<time>2016-10-07T10:35:35Z</time></trkpt>
<trkpt lat="28.354392" lon="99.042452">
<time>2016-10-07T10:35:36Z</time></trkpt>
<trkpt lat="28.354362" lon="99.042283">
<time>2016-10-07T10:35:37Z</time></trkpt>
<trkpt lat="28.354352" lon="99.042123">
<time>2016-10-07T10:35:38Z</time></trkpt>
<trkpt lat="28.354373" lon="99.042014">
<time>2016-10-07T10:35:39Z</time></trkpt>
<trkpt lat="28.354413" lon="99.041904">
<time>2016-10-07T10:35:40Z</time></trkpt>
<trkpt lat="28.354473" lon="99.041795">
<time>2016-10-07T10:35:41Z</time></trkpt>
<trkpt lat="28.354543" lon="99.041705">
<time>2016-10-07T10:35:42Z</time></trkpt>
<trkpt lat="28.354754" lon="99.041535">
<time>2016-10-07T10:35:43Z</time></trkpt>
<trkpt lat="28.354904" lon="99.041416">
<time>2016-10-07T10:35:44Z</time></trkpt>
<trkpt lat="28.355004" lon="99.041356">
<time>2016-10-07T10:35:45Z</time></trkpt>
<trkpt lat="28.355074" lon="99.041326">
<time>2016-10-07T10:35:46Z</time></trkpt>
<trkpt lat="28.355124" lon="99.041306">
<time>2016-10-07T10:35:47Z</time></trkpt>
<trkpt lat="28.355214" lon="99.041276">
<time>2016-10-07T10:35:48Z</time></trkpt>
<trkpt lat="28.355294" lon="99.041266">
<time>2016-10-07T10:35:49Z</time></trkpt>
<trkpt lat="28.355804" lon="99.041237">
<time>2016-10-07T10:35:50Z</time></trkpt>
<trkpt lat="28.356074" lon="99.041227">
<time>2016-10-07T10:35:51Z</time></trkpt>
<trkpt lat="28.356214" lon="99.041227">
<time>2016-10-07T10:35:52Z</time></trkpt>
<trkpt lat="28.356304" lon="99.041207">
<time>2016-10-07T10:35:53Z</time></trkpt>
<trkpt lat="28.356584" lon="99.041167">
<time>2016-10-07T10:35:54Z</time></trkpt>
<trkpt lat="28.356814" lon="99.041137">
<time>2016-10-07T10:35:55Z</time></trkpt>
<trkpt lat="28.356904" lon="99.041137">
<time>2016-10-07T10:35:56Z</time></trkpt>
<trkpt lat="28.356984" lon="99.041147">
<time>2016-10-07T10:35:57Z</time></trkpt>
<trkpt lat="28.357084" lon="99.041177">
<time>2016-10-07T10:35:58Z</time></trkpt>
<trkpt lat="28.357184" lon="99.041236">
<time>2016-10-07T10:35:59Z</time></trkpt>
<trkpt lat="28.357354" lon="99.041366">
<time>2016-10-07T10:36:00Z</time></trkpt>
<trkpt lat="28.357414" lon="99.041426">
<time>2016-10-07T10:36:01Z</time></trkpt>
<trkpt lat="28.357483" lon="99.041486">
<time>2016-10-07T10:36:02Z</time></trkpt>
<trkpt lat="28.357533" lon="99.041525">
<time>2016-10-07T10:36:03Z</time></trkpt>
<trkpt lat="28.357593" lon="99.041545">
<time>2016-10-07T10:36:04Z</time></trkpt>
<trkpt lat="28.357633" lon="99.041555">
<time>2016-10-07T10:36:05Z</time></trkpt>
<trkpt lat="28.357673" lon="99.041555">
<time>2016-10-07T10:36:06Z</time></trkpt>
<trkpt lat="28.357713" lon="99.041555">
<time>2016-10-07T10:36:07Z</time></trkpt>
<trkpt lat="28.357783" lon="99.041545">
<time>2016-10-07T10:36:08Z</time></trkpt>
<trkpt lat="28.357843" lon="99.041496">
<time>2016-10-07T10:36:09Z</time></trkpt>
<trkpt lat="28.357903" lon="99.041456">
<time>2016-10-07T10:36:10Z</time></trkpt>
<trkpt lat="28.357993" lon="99.041406">
<time>2016-10-07T10:36:11Z</time></trkpt>
<trkpt lat="28.358094" lon="99.041366">
<time>2016-10-07T10:36:12Z</time></trkpt>
<trkpt lat="28.358214" lon="99.041356">
<time>2016-10-07T10:36:13Z</time></trkpt>
<trkpt lat="28.358324" lon="99.041346">
<time>2016-10-07T10:36:14Z</time></trkpt>
<trkpt lat="28.358583" lon="99.041366">
<time>2016-10-07T10:36:15Z</time></trkpt>
<trkpt lat="28.358803" lon="99.041376">
<time>2016-10-07T10:36:16Z</time></trkpt>
<trkpt lat="28.358913" lon="99.041386">
<time>2016-10-07T10:36:17Z</time></trkpt>
<trkpt lat="28.358973" lon="99.041386">
<time>2016-10-07T10:36:18Z</time></trkpt>
<trkpt lat="28.359023" lon="99.041366">
<time>2016-10-07T10:36:19Z</time></trkpt>
<trkpt lat="28.359063" lon="99.041336">
<time>2016-10-07T10:36:20Z</time></trkpt>
<trkpt lat="28.359094" lon="99.041296">
<time>2016-10-07T10:36:21Z</time></trkpt>
<trkpt lat="28.359114" lon="99.041236">
<time>2016-10-07T10:36:22Z</time></trkpt>
<trkpt lat="28.359114" lon="99.041157">
<time>2016-10-07T10:36:23Z</time></trkpt>
<trkpt lat="28.359094" lon="99.041077">
<time>2016-10-07T10:36:24Z</time></trkpt>
<trkpt lat="28.358965" lon="99.040728">
<time>2016-10-07T10:36:25Z</time></trkpt>
<trkpt lat="28.358856" lon="99.040409">
<time>2016-10-07T10:36:26Z</time></trkpt>
<trkpt lat="28.358766" lon="99.04013">
<time>2016-10-07T10:36:27Z</time></trkpt>
<trkpt lat="28.358687" lon="99.040001">
<time>2016-10-07T10:36:28Z</time></trkpt>
<trkpt lat="28.358587" lon="99.039871">
<time>2016-10-07T10:36:29Z</time></trkpt>
<trkpt lat="28.358497" lon="99.039712">
<time>2016-10-07T10:36:30Z</time></trkpt>
<trkpt lat="28.358478" lon="99.039632">
<time>2016-10-07T10:36:31Z</time></trkpt>
<trkpt lat="28.358468" lon="99.039562">
<time>2016-10-07T10:36:32Z</time></trkpt>
<trkpt lat="28.358478" lon="99.039443">
<time>2016-10-07T10:36:33Z</time></trkpt>
<trkpt lat="28.358519" lon="99.039004">
<time>2016-10-07T10:36:34Z</time></trkpt>
<trkpt lat="28.35854" lon="99.038636">
<time>2016-10-07T10:36:35Z</time></trkpt>
<trkpt lat="28.358591" lon="99.038287">
<time>2016-10-07T10:36:36Z</time></trkpt>
<trkpt lat="28.358651" lon="99.038088">
<time>2016-10-07T10:36:37Z</time></trkpt>
<trkpt lat="28.358732" lon="99.037878">
<time>2016-10-07T10:36:38Z</time></trkpt>
<trkpt lat="28.358842" lon="99.037649">
<time>2016-10-07T10:36:39Z</time></trkpt>
<trkpt lat="28.359003" lon="99.03742">
<time>2016-10-07T10:36:40Z</time></trkpt>
<trkpt lat="28.359063" lon="99.03737">
<time>2016-10-07T10:36:41Z</time></trkpt>
<trkpt lat="28.359103" lon="99.03733">
<time>2016-10-07T10:36:42Z</time></trkpt>
<trkpt lat="28.359223" lon="99.037281">
<time>2016-10-07T10:36:43Z</time></trkpt>
<trkpt lat="28.359353" lon="99.037251">
<time>2016-10-07T10:36:44Z</time></trkpt>
<trkpt lat="28.359583" lon="99.037201">
<time>2016-10-07T10:36:45Z</time></trkpt>
<trkpt lat="28.359823" lon="99.037151">
<time>2016-10-07T10:36:46Z</time></trkpt>
<trkpt lat="28.360174" lon="99.037081">
<time>2016-10-07T10:36:47Z</time></trkpt>
<trkpt lat="28.360324" lon="99.037071">
<time>2016-10-07T10:36:48Z</time></trkpt>
<trkpt lat="28.360424" lon="99.037071">
<time>2016-10-07T10:36:49Z</time></trkpt>
<trkpt lat="28.360553" lon="99.037081">
<time>2016-10-07T10:36:50Z</time></trkpt>
<trkpt lat="28.360693" lon="99.037111">
<time>2016-10-07T10:36:51Z</time></trkpt>
<trkpt lat="28.360873" lon="99.037131">
<time>2016-10-07T10:36:52Z</time></trkpt>
<trkpt lat="28.361043" lon="99.037131">
<time>2016-10-07T10:36:53Z</time></trkpt>
<trkpt lat="28.361223" lon="99.037131">
<time>2016-10-07T10:36:54Z</time></trkpt>
<trkpt lat="28.361393" lon="99.037111">
<time>2016-10-07T10:36:55Z</time></trkpt>
<trkpt lat="28.361623" lon="99.037061">
<time>2016-10-07T10:36:56Z</time></trkpt>
<trkpt lat="28.361783" lon="99.037021">
<time>2016-10-07T10:36:57Z</time></trkpt>
<trkpt lat="28.361904" lon="99.036992">
<time>2016-10-07T10:36:58Z</time></trkpt>
<trkpt lat="28.361994" lon="99.036972">
<time>2016-10-07T10:36:59Z</time></trkpt>
<trkpt lat="28.362044" lon="99.036942">
<time>2016-10-07T10:37:00Z</time></trkpt>
<trkpt lat="28.362094" lon="99.036912">
<time>2016-10-07T10:37:01Z</time></trkpt>
<trkpt lat="28.362144" lon="99.036862">
<time>2016-10-07T10:37:02Z</time></trkpt>
<trkpt lat="28.362174" lon="99.036802">
<time>2016-10-07T10:37:03Z</time></trkpt>
<trkpt lat="28.362174" lon="99.036723">
<time>2016-10-07T10:37:04Z</time></trkpt>
<trkpt lat="28.362164" lon="99.036623">
<time>2016-10-07T10:37:05Z</time></trkpt>
<trkpt lat="28.362115" lon="99.036493">
<time>2016-10-07T10:37:06Z</time></trkpt>
<trkpt lat="28.362035" lon="99.036294">
<time>2016-10-07T10:37:07Z</time></trkpt>
<trkpt lat="28.361966" lon="99.036095">
<time>2016-10-07T10:37:08Z</time></trkpt>
<trkpt lat="28.361926" lon="99.035955">
<time>2016-10-07T10:37:09Z</time></trkpt>
<trkpt lat="28.361916" lon="99.035896">
<time>2016-10-07T10:37:10Z</time></trkpt>
<trkpt lat="28.361906" lon="99.035816">
<time>2016-10-07T10:37:11Z</time></trkpt>
<trkpt lat="28.361907" lon="99.035716">
<time>2016-10-07T10:37:12Z</time></trkpt>
<trkpt lat="28.361927" lon="99.035607">
<time>2016-10-07T10:37:13Z</time></trkpt>
<trkpt lat="28.361957" lon="99.035477">
<time>2016-10-07T10:37:14Z</time></trkpt>
<trkpt lat="28.361988" lon="99.035387">
<time>2016-10-07T10:37:15Z</time></trkpt>
<trkpt lat="28.362038" lon="99.035278">
<time>2016-10-07T10:37:16Z</time></trkpt>
<trkpt lat="28.362108" lon="99.035208">
<time>2016-10-07T10:37:17Z</time></trkpt>
<trkpt lat="28.362188" lon="99.035148">
<time>2016-10-07T10:37:18Z</time></trkpt>
<trkpt lat="28.362268" lon="99.035109">
<time>2016-10-07T10:37:19Z</time></trkpt>
<trkpt lat="28.362338" lon="99.035089">
<time>2016-10-07T10:37:20Z</time></trkpt>
<trkpt lat="28.362388" lon="99.035079">
<time>2016-10-07T10:37:21Z</time></trkpt>
<trkpt lat="28.362458" lon="99.035069">
<time>2016-10-07T10:37:22Z</time></trkpt>
<trkpt lat="28.362538" lon="99.035059">
<time>2016-10-07T10:37:23Z</time></trkpt>
<trkpt lat="28.362638" lon="99.035059">
<time>2016-10-07T10:37:24Z</time></trkpt>
<trkpt lat="28.362718" lon="99.035039">
<time>2016-10-07T10:37:25Z</time></trkpt>
<trkpt lat="28.362768" lon="99.035009">
<time>2016-10-07T10:37:26Z</time></trkpt>
<trkpt lat="28.362808" lon="99.034969">
<time>2016-10-07T10:37:27Z</time></trkpt>
<trkpt lat="28.362839" lon="99.034899">
<time>2016-10-07T10:37:28Z</time></trkpt>
<trkpt lat="28.362869" lon="99.03482">
<time>2016-10-07T10:37:29Z</time></trkpt>
<trkpt lat="28.362879" lon="99.0347">
<time>2016-10-07T10:37:30Z</time></trkpt>
<trkpt lat="28.36286" lon="99.034531">
<time>2016-10-07T10:37:31Z</time></trkpt>
<trkpt lat="28.36283" lon="99.034192">
<time>2016-10-07T10:37:32Z</time></trkpt>
<trkpt lat="28.362821" lon="99.033933">
<time>2016-10-07T10:37:33Z</time></trkpt>
<trkpt lat="28.362831" lon="99.033793">
<time>2016-10-07T10:37:34Z</time></trkpt>
<trkpt lat="28.362852" lon="99.033664">
<time>2016-10-07T10:37:35Z</time></trkpt>
<trkpt lat="28.362902" lon="99.033505">
<time>2016-10-07T10:37:36Z</time></trkpt>
<trkpt lat="28.362982" lon="99.033385">
<time>2016-10-07T10:37:37Z</time></trkpt>
<trkpt lat="28.363033" lon="99.033325">
<time>2016-10-07T10:37:38Z</time></trkpt>
<trkpt lat="28.363103" lon="99.033275">
<time>2016-10-07T10:37:39Z</time></trkpt>
<trkpt lat="28.363383" lon="99.033106">
<time>2016-10-07T10:37:40Z</time></trkpt>
<trkpt lat="28.363644" lon="99.032917">
<time>2016-10-07T10:37:41Z</time></trkpt>
<trkpt lat="28.363794" lon="99.032797">
<time>2016-10-07T10:37:42Z</time></trkpt>
<trkpt lat="28.363914" lon="99.032698">
<time>2016-10-07T10:37:43Z</time></trkpt>
<trkpt lat="28.363974" lon="99.032628">
<time>2016-10-07T10:37:44Z</time></trkpt>
<trkpt lat="28.364044" lon="99.032538">
<time>2016-10-07T10:37:45Z</time></trkpt>
<trkpt lat="28.364346" lon="99.03207">
<time>2016-10-07T10:37:46Z</time></trkpt>
<trkpt lat="28.364647" lon="99.031652">
<time>2016-10-07T10:37:47Z</time></trkpt>
<trkpt lat="28.364807" lon="99.031442">
<time>2016-10-07T10:37:48Z</time></trkpt>
<trkpt lat="28.364887" lon="99.031343">
<time>2016-10-07T10:37:49Z</time></trkpt>
<trkpt lat="28.364958" lon="99.031263">
<time>2016-10-07T10:37:50Z</time></trkpt>
<trkpt lat="28.365058" lon="99.031193">
<time>2016-10-07T10:37:51Z</time></trkpt>
<trkpt lat="28.365198" lon="99.031114">
<time>2016-10-07T10:37:52Z</time></trkpt>
<trkpt lat="28.365518" lon="99.030974">
<time>2016-10-07T10:37:53Z</time></trkpt>
<trkpt lat="28.366019" lon="99.030745">
<time>2016-10-07T10:37:54Z</time></trkpt>
<trkpt lat="28.366209" lon="99.030665">
<time>2016-10-07T10:37:55Z</time></trkpt>
<trkpt lat="28.366329" lon="99.030625">
<time>2016-10-07T10:37:56Z</time></trkpt>
<trkpt lat="28.366469" lon="99.030605">
<time>2016-10-07T10:37:57Z</time></trkpt>
<trkpt lat="28.366529" lon="99.030605">
<time>2016-10-07T10:37:58Z</time></trkpt>
<trkpt lat="28.366589" lon="99.030615">
<time>2016-10-07T10:37:59Z</time></trkpt>
<trkpt lat="28.366679" lon="99.030635">
<time>2016-10-07T10:38:00Z</time></trkpt>
<trkpt lat="28.366819" lon="99.030685">
<time>2016-10-07T10:38:01Z</time></trkpt>
<trkpt lat="28.366999" lon="99.030755">
<time>2016-10-07T10:38:02Z</time></trkpt>
<trkpt lat="28.367138" lon="99.030845">
<time>2016-10-07T10:38:03Z</time></trkpt>
<trkpt lat="28.367298" lon="99.030964">
<time>2016-10-07T10:38:04Z</time></trkpt>
<trkpt lat="28.367468" lon="99.031094">
<time>2016-10-07T10:38:05Z</time></trkpt>
<trkpt lat="28.367657" lon="99.031223">
<time>2016-10-07T10:38:06Z</time></trkpt>
<trkpt lat="28.367937" lon="99.031442">
<time>2016-10-07T10:38:07Z</time></trkpt>
<trkpt lat="28.368096" lon="99.031582">
<time>2016-10-07T10:38:08Z</time></trkpt>
<trkpt lat="28.368466" lon="99.031871">
<time>2016-10-07T10:38:09Z</time></trkpt>
<trkpt lat="28.368535" lon="99.03196">
<time>2016-10-07T10:38:10Z</time></trkpt>
<trkpt lat="28.368585" lon="99.03205">
<time>2016-10-07T10:38:11Z</time></trkpt>
<trkpt lat="28.368635" lon="99.03215">
<time>2016-10-07T10:38:12Z</time></trkpt>
<trkpt lat="28.368674" lon="99.032269">
<time>2016-10-07T10:38:13Z</time></trkpt>
<trkpt lat="28.368714" lon="99.032399">
<time>2016-10-07T10:38:14Z</time></trkpt>
<trkpt lat="28.368744" lon="99.032508">
<time>2016-10-07T10:38:15Z</time></trkpt>
<trkpt lat="28.368743" lon="99.032658">
<time>2016-10-07T10:38:16Z</time></trkpt>
<trkpt lat="28.368733" lon="99.032897">
<time>2016-10-07T10:38:17Z</time></trkpt>
<trkpt lat="28.368722" lon="99.033126">
<time>2016-10-07T10:38:18Z</time></trkpt>
<trkpt lat="28.368712" lon="99.033275">
<time>2016-10-07T10:38:19Z</time></trkpt>
<trkpt lat="28.368711" lon="99.033474">
<time>2016-10-07T10:38:20Z</time></trkpt>
<trkpt lat="28.368721" lon="99.033604">
<time>2016-10-07T10:38:21Z</time></trkpt>
<trkpt lat="28.368751" lon="99.033724">
<time>2016-10-07T10:38:22Z</time></trkpt>
<trkpt lat="28.3688" lon="99.033863">
<time>2016-10-07T10:38:23Z</time></trkpt>
<trkpt lat="28.36884" lon="99.033973">
<time>2016-10-07T10:38:24Z</time></trkpt>
<trkpt lat="28.36895" lon="99.034172">
<time>2016-10-07T10:38:25Z</time></trkpt>
<trkpt lat="28.369019" lon="99.034301">
<time>2016-10-07T10:38:26Z</time></trkpt>
<trkpt lat="28.369089" lon="99.034401">
<time>2016-10-07T10:38:27Z</time></trkpt>
<trkpt lat="28.369149" lon="99.034461">
<time>2016-10-07T10:38:28Z</time></trkpt>
<trkpt lat="28.369199" lon="99.034501">
<time>2016-10-07T10:38:29Z</time></trkpt>
<trkpt lat="28.369239" lon="99.03454">
<time>2016-10-07T10:38:30Z</time></trkpt>
<trkpt lat="28.369259" lon="99.03455">
<time>2016-10-07T10:38:31Z</time></trkpt>
<trkpt lat="28.369288" lon="99.03457">
<time>2016-10-07T10:38:32Z</time></trkpt>
<trkpt lat="28.369318" lon="99.03458">
<time>2016-10-07T10:38:33Z</time></trkpt>
<trkpt lat="28.369348" lon="99.03458">
<time>2016-10-07T10:38:34Z</time></trkpt>
<trkpt lat="28.369368" lon="99.03459">
<time>2016-10-07T10:38:35Z</time></trkpt>
<trkpt lat="28.369408" lon="99.03459">
<time>2016-10-07T10:38:36Z</time></trkpt>
<trkpt lat="28.369438" lon="99.03458">
<time>2016-10-07T10:38:37Z</time></trkpt>
<trkpt lat="28.369468" lon="99.03457">
<time>2016-10-07T10:38:38Z</time></trkpt>
<trkpt lat="28.369518" lon="99.03456">
<time>2016-10-07T10:38:39Z</time></trkpt>
<trkpt lat="28.369569" lon="99.03454">
<time>2016-10-07T10:38:40Z</time></trkpt>
<trkpt lat="28.369609" lon="99.034531">
<time>2016-10-07T10:38:41Z</time></trkpt>
<trkpt lat="28.369639" lon="99.034511">
<time>2016-10-07T10:38:42Z</time></trkpt>
<trkpt lat="28.369669" lon="99.034491">
<time>2016-10-07T10:38:43Z</time></trkpt>
<trkpt lat="28.369719" lon="99.034461">
<time>2016-10-07T10:38:44Z</time></trkpt>
<trkpt lat="28.369749" lon="99.034451">
<time>2016-10-07T10:38:45Z</time></trkpt>
<trkpt lat="28.369759" lon="99.034431">
<time>2016-10-07T10:38:46Z</time></trkpt>
<trkpt lat="28.369799" lon="99.034401">
<time>2016-10-07T10:38:47Z</time></trkpt>
<trkpt lat="28.369839" lon="99.034341">
<time>2016-10-07T10:38:48Z</time></trkpt>
<trkpt lat="28.369869" lon="99.034281">
<time>2016-10-07T10:38:49Z</time></trkpt>
<trkpt lat="28.369879" lon="99.034262">
<time>2016-10-07T10:38:50Z</time></trkpt>
<trkpt lat="28.369879" lon="99.034222">
<time>2016-10-07T10:38:51Z</time></trkpt>
<trkpt lat="28.369879" lon="99.034192">
<time>2016-10-07T10:38:52Z</time></trkpt>
<trkpt lat="28.369879" lon="99.034162">
<time>2016-10-07T10:38:53Z</time></trkpt>
<trkpt lat="28.36987" lon="99.034122">
<time>2016-10-07T10:38:54Z</time></trkpt>
<trkpt lat="28.36986" lon="99.034072">
<time>2016-10-07T10:38:55Z</time></trkpt>
<trkpt lat="28.36983" lon="99.034012">
<time>2016-10-07T10:38:56Z</time></trkpt>
<trkpt lat="28.36979" lon="99.033963">
<time>2016-10-07T10:38:57Z</time></trkpt>
<trkpt lat="28.36973" lon="99.033893">
<time>2016-10-07T10:38:58Z</time></trkpt>
<trkpt lat="28.36965" lon="99.033813">
<time>2016-10-07T10:38:59Z</time></trkpt>
<trkpt lat="28.369611" lon="99.033753">
<time>2016-10-07T10:39:00Z</time></trkpt>
<trkpt lat="28.369561" lon="99.033684">
<time>2016-10-07T10:39:01Z</time></trkpt>
<trkpt lat="28.369501" lon="99.033564">
<time>2016-10-07T10:39:02Z</time></trkpt>
<trkpt lat="28.369471" lon="99.033445">
<time>2016-10-07T10:39:03Z</time></trkpt>
<trkpt lat="28.369482" lon="99.033325">
<time>2016-10-07T10:39:04Z</time></trkpt>
<trkpt lat="28.369502" lon="99.033225">
<time>2016-10-07T10:39:05Z</time></trkpt>
<trkpt lat="28.369542" lon="99.033136">
<time>2016-10-07T10:39:06Z</time></trkpt>
<trkpt lat="28.369602" lon="99.033046">
<time>2016-10-07T10:39:07Z</time></trkpt>
<trkpt lat="28.369733" lon="99.032917">
<time>2016-10-07T10:39:08Z</time></trkpt>
<trkpt lat="28.369823" lon="99.032827">
<time>2016-10-07T10:39:09Z</time></trkpt>
<trkpt lat="28.369893" lon="99.032727">
<time>2016-10-07T10:39:10Z</time></trkpt>
<trkpt lat="28.369963" lon="99.032618">
<time>2016-10-07T10:39:11Z</time></trkpt>
<trkpt lat="28.370044" lon="99.032428">
<time>2016-10-07T10:39:12Z</time></trkpt>
<trkpt lat="28.370084" lon="99.032279">
<time>2016-10-07T10:39:13Z</time></trkpt>
<trkpt lat="28.370125" lon="99.032159">
<time>2016-10-07T10:39:14Z</time></trkpt>
<trkpt lat="28.370145" lon="99.03197">
<time>2016-10-07T10:39:15Z</time></trkpt>
<trkpt lat="28.370186" lon="99.031472">
<time>2016-10-07T10:39:16Z</time></trkpt>
<trkpt lat="28.370197" lon="99.031283">
<time>2016-10-07T10:39:17Z</time></trkpt>
<trkpt lat="28.370197" lon="99.031153">
<time>2016-10-07T10:39:18Z</time></trkpt>
<trkpt lat="28.370168" lon="99.030994">
<time>2016-10-07T10:39:19Z</time></trkpt>
<trkpt lat="28.370118" lon="99.030825">
<time>2016-10-07T10:39:20Z</time></trkpt>
<trkpt lat="28.370068" lon="99.030675">
<time>2016-10-07T10:39:21Z</time></trkpt>
<trkpt lat="28.369999" lon="99.030466">
<time>2016-10-07T10:39:22Z</time></trkpt>
<trkpt lat="28.36992" lon="99.030277">
<time>2016-10-07T10:39:23Z</time></trkpt>
<trkpt lat="28.36984" lon="99.030107">
<time>2016-10-07T10:39:24Z</time></trkpt>
<trkpt lat="28.36978" lon="99.030018">
<time>2016-10-07T10:39:25Z</time></trkpt>
<trkpt lat="28.369701" lon="99.029918">
<time>2016-10-07T10:39:26Z</time></trkpt>
<trkpt lat="28.369591" lon="99.029808">
<time>2016-10-07T10:39:27Z</time></trkpt>
<trkpt lat="28.369491" lon="99.029719">
<time>2016-10-07T10:39:28Z</time></trkpt>
<trkpt lat="28.369431" lon="99.029649">
<time>2016-10-07T10:39:29Z</time></trkpt>
<trkpt lat="28.369401" lon="99.029569">
<time>2016-10-07T10:39:30Z</time></trkpt>
<trkpt lat="28.369392" lon="99.02948">
<time>2016-10-07T10:39:31Z</time></trkpt>
<trkpt lat="28.369392" lon="99.02943">
<time>2016-10-07T10:39:32Z</time></trkpt>
<trkpt lat="28.369412" lon="99.02939">
<time>2016-10-07T10:39:33Z</time></trkpt>
<trkpt lat="28.369452" lon="99.029291">
<time>2016-10-07T10:39:34Z</time></trkpt>
<trkpt lat="28.369512" lon="99.029201">
<time>2016-10-07T10:39:35Z</time></trkpt>
<trkpt lat="28.369563" lon="99.029131">
<time>2016-10-07T10:39:36Z</time></trkpt>
<trkpt lat="28.369633" lon="99.029061">
<time>2016-10-07T10:39:37Z</time></trkpt>
<trkpt lat="28.369713" lon="99.028972">
<time>2016-10-07T10:39:38Z</time></trkpt>
<trkpt lat="28.369743" lon="99.028932">
<time>2016-10-07T10:39:39Z</time></trkpt>
<trkpt lat="28.369763" lon="99.028912">
<time>2016-10-07T10:39:40Z</time></trkpt>
<trkpt lat="28.369773" lon="99.028882">
<time>2016-10-07T10:39:41Z</time></trkpt>
<trkpt lat="28.369793" lon="99.028852">
<time>2016-10-07T10:39:42Z</time></trkpt>
<trkpt lat="28.369793" lon="99.028832">
<time>2016-10-07T10:39:43Z</time></trkpt>
<trkpt lat="28.369803" lon="99.028822">
<time>2016-10-07T10:39:44Z</time></trkpt>
<trkpt lat="28.369803" lon="99.028812">
<time>2016-10-07T10:39:45Z</time></trkpt>
<trkpt lat="28.369804" lon="99.028792">
<time>2016-10-07T10:39:46Z</time></trkpt>
<trkpt lat="28.369804" lon="99.028782">
<time>2016-10-07T10:39:47Z</time></trkpt>
<trkpt lat="28.369804" lon="99.028753">
<time>2016-10-07T10:39:48Z</time></trkpt>
<trkpt lat="28.369804" lon="99.028733">
<time>2016-10-07T10:39:49Z</time></trkpt>
<trkpt lat="28.369794" lon="99.028723">
<time>2016-10-07T10:39:50Z</time></trkpt>
<trkpt lat="28.369794" lon="99.028713">
<time>2016-10-07T10:39:51Z</time></trkpt>
<trkpt lat="28.369784" lon="99.028703">
<time>2016-10-07T10:39:52Z</time></trkpt>
<trkpt lat="28.369774" lon="99.028683">
<time>2016-10-07T10:39:53Z</time></trkpt>
<trkpt lat="28.369764" lon="99.028673">
<time>2016-10-07T10:39:54Z</time></trkpt>
<trkpt lat="28.369754" lon="99.028663">
<time>2016-10-07T10:39:55Z</time></trkpt>
<trkpt lat="28.369734" lon="99.028643">
<time>2016-10-07T10:39:56Z</time></trkpt>
<trkpt lat="28.369714" lon="99.028623">
<time>2016-10-07T10:39:57Z</time></trkpt>
<trkpt lat="28.369594" lon="99.028533">
<time>2016-10-07T10:39:58Z</time></trkpt>
<trkpt lat="28.369464" lon="99.028464">
<time>2016-10-07T10:39:59Z</time></trkpt>
<trkpt lat="28.369395" lon="99.028414">
<time>2016-10-07T10:40:00Z</time></trkpt>
<trkpt lat="28.369335" lon="99.028334">
<time>2016-10-07T10:40:01Z</time></trkpt>
<trkpt lat="28.369315" lon="99.028245">
<time>2016-10-07T10:40:02Z</time></trkpt>
<trkpt lat="28.369305" lon="99.028125">
<time>2016-10-07T10:40:03Z</time></trkpt>
<trkpt lat="28.369306" lon="99.027976">
<time>2016-10-07T10:40:04Z</time></trkpt>
<trkpt lat="28.369316" lon="99.027796">
<time>2016-10-07T10:40:05Z</time></trkpt>
<trkpt lat="28.369317" lon="99.027617">
<time>2016-10-07T10:40:06Z</time></trkpt>
<trkpt lat="28.369337" lon="99.027448">
<time>2016-10-07T10:40:07Z</time></trkpt>
<trkpt lat="28.369398" lon="99.027268">
<time>2016-10-07T10:40:08Z</time></trkpt>
<trkpt lat="28.369468" lon="99.027099">
<time>2016-10-07T10:40:09Z</time></trkpt>
<trkpt lat="28.369549" lon="99.02694">
<time>2016-10-07T10:40:10Z</time></trkpt>
<trkpt lat="28.369639" lon="99.02678">
<time>2016-10-07T10:40:11Z</time></trkpt>
<trkpt lat="28.36981" lon="99.026581">
<time>2016-10-07T10:40:12Z</time></trkpt>
<trkpt lat="28.36992" lon="99.026482">
<time>2016-10-07T10:40:13Z</time></trkpt>
<trkpt lat="28.37006" lon="99.026382">
<time>2016-10-07T10:40:14Z</time></trkpt>
<trkpt lat="28.370611" lon="99.026023">
<time>2016-10-07T10:40:15Z</time></trkpt>
<trkpt lat="28.371092" lon="99.025695">
<time>2016-10-07T10:40:16Z</time></trkpt>
<trkpt lat="28.371402" lon="99.025495">
<time>2016-10-07T10:40:17Z</time></trkpt>
<trkpt lat="28.371482" lon="99.025446">
<time>2016-10-07T10:40:18Z</time></trkpt>
<trkpt lat="28.371532" lon="99.025436">
<time>2016-10-07T10:40:19Z</time></trkpt>
<trkpt lat="28.371612" lon="99.025426">
<time>2016-10-07T10:40:20Z</time></trkpt>
<trkpt lat="28.371682" lon="99.025436">
<time>2016-10-07T10:40:21Z</time></trkpt>
<trkpt lat="28.371732" lon="99.025436">
<time>2016-10-07T10:40:22Z</time></trkpt>
<trkpt lat="28.371812" lon="99.025446">
<time>2016-10-07T10:40:23Z</time></trkpt>
<trkpt lat="28.371832" lon="99.025446">
<time>2016-10-07T10:40:24Z</time></trkpt>
<trkpt lat="28.371852" lon="99.025446">
<time>2016-10-07T10:40:25Z</time></trkpt>
<trkpt lat="28.371892" lon="99.025436">
<time>2016-10-07T10:40:26Z</time></trkpt>
<trkpt lat="28.371912" lon="99.025436">
<time>2016-10-07T10:40:27Z</time></trkpt>
<trkpt lat="28.371922" lon="99.025436">
<time>2016-10-07T10:40:28Z</time></trkpt>
<trkpt lat="28.371932" lon="99.025426">
<time>2016-10-07T10:40:29Z</time></trkpt>
<trkpt lat="28.371952" lon="99.025416">
<time>2016-10-07T10:40:30Z</time></trkpt>
<trkpt lat="28.371972" lon="99.025406">
<time>2016-10-07T10:40:31Z</time></trkpt>
<trkpt lat="28.371982" lon="99.025396">
<time>2016-10-07T10:40:32Z</time></trkpt>
<trkpt lat="28.371982" lon="99.025386">
<time>2016-10-07T10:40:33Z</time></trkpt>
<trkpt lat="28.371992" lon="99.025376">
<time>2016-10-07T10:40:34Z</time></trkpt>
<trkpt lat="28.372013" lon="99.025346">
<time>2016-10-07T10:40:35Z</time></trkpt>
<trkpt lat="28.372023" lon="99.025336">
<time>2016-10-07T10:40:36Z</time></trkpt>
<trkpt lat="28.372023" lon="99.025316">
<time>2016-10-07T10:40:37Z</time></trkpt>
<trkpt lat="28.372043" lon="99.025246">
<time>2016-10-07T10:40:38Z</time></trkpt>
<trkpt lat="28.372043" lon="99.025236">
<time>2016-10-07T10:40:39Z</time></trkpt>
<trkpt lat="28.372043" lon="99.025226">
<time>2016-10-07T10:40:40Z</time></trkpt>
<trkpt lat="28.372053" lon="99.025147">
<time>2016-10-07T10:40:41Z</time></trkpt>
<trkpt lat="28.372043" lon="99.025027">
<time>2016-10-07T10:40:42Z</time></trkpt>
<trkpt lat="28.372054" lon="99.024928">
<time>2016-10-07T10:40:43Z</time></trkpt>
<trkpt lat="28.372074" lon="99.024848">
<time>2016-10-07T10:40:44Z</time></trkpt>
<trkpt lat="28.372134" lon="99.024758">
<time>2016-10-07T10:40:45Z</time></trkpt>
<trkpt lat="28.372255" lon="99.024629">
<time>2016-10-07T10:40:46Z</time></trkpt>
<trkpt lat="28.372435" lon="99.02447">
<time>2016-10-07T10:40:47Z</time></trkpt>
<trkpt lat="28.372545" lon="99.02439">
<time>2016-10-07T10:40:48Z</time></trkpt>
<trkpt lat="28.372635" lon="99.02434">
<time>2016-10-07T10:40:49Z</time></trkpt>
<trkpt lat="28.372745" lon="99.02428">
<time>2016-10-07T10:40:50Z</time></trkpt>
<trkpt lat="28.372796" lon="99.02424">
<time>2016-10-07T10:40:51Z</time></trkpt>
<trkpt lat="28.372846" lon="99.024181">
<time>2016-10-07T10:40:52Z</time></trkpt>
<trkpt lat="28.372896" lon="99.024091">
<time>2016-10-07T10:40:53Z</time></trkpt>
<trkpt lat="28.372926" lon="99.023972">
<time>2016-10-07T10:40:54Z</time></trkpt>
<trkpt lat="28.372987" lon="99.023752">
<time>2016-10-07T10:40:55Z</time></trkpt>
<trkpt lat="28.373017" lon="99.023653">
<time>2016-10-07T10:40:56Z</time></trkpt>
<trkpt lat="28.373067" lon="99.023523">
<time>2016-10-07T10:40:57Z</time></trkpt>
<trkpt lat="28.373329" lon="99.022926">
<time>2016-10-07T10:40:58Z</time></trkpt>
<trkpt lat="28.37347" lon="99.022567">
<time>2016-10-07T10:40:59Z</time></trkpt>
<trkpt lat="28.373541" lon="99.022318">
<time>2016-10-07T10:41:00Z</time></trkpt>
<trkpt lat="28.373551" lon="99.022139">
<time>2016-10-07T10:41:01Z</time></trkpt>
<trkpt lat="28.373562" lon="99.02198">
<time>2016-10-07T10:41:02Z</time></trkpt>
<trkpt lat="28.373582" lon="99.02187">
<time>2016-10-07T10:41:03Z</time></trkpt>
<trkpt lat="28.373612" lon="99.02176">
<time>2016-10-07T10:41:04Z</time></trkpt>
<trkpt lat="28.373653" lon="99.021641">
<time>2016-10-07T10:41:05Z</time></trkpt>
<trkpt lat="28.373773" lon="99.021392">
<time>2016-10-07T10:41:06Z</time></trkpt>
<trkpt lat="28.373904" lon="99.021143">
<time>2016-10-07T10:41:07Z</time></trkpt>
<trkpt lat="28.374025" lon="99.020894">
<time>2016-10-07T10:41:08Z</time></trkpt>
<trkpt lat="28.374236" lon="99.020466">
<time>2016-10-07T10:41:09Z</time></trkpt>
<trkpt lat="28.374357" lon="99.020217">
<time>2016-10-07T10:41:10Z</time></trkpt>
<trkpt lat="28.374467" lon="99.019948">
<time>2016-10-07T10:41:11Z</time></trkpt>
<trkpt lat="28.374538" lon="99.019828">
<time>2016-10-07T10:41:12Z</time></trkpt>
<trkpt lat="28.374638" lon="99.019739">
<time>2016-10-07T10:41:13Z</time></trkpt>
<trkpt lat="28.374798" lon="99.019639">
<time>2016-10-07T10:41:14Z</time></trkpt>
<trkpt lat="28.374978" lon="99.01954">
<time>2016-10-07T10:41:15Z</time></trkpt>
<trkpt lat="28.375079" lon="99.01946">
<time>2016-10-07T10:41:16Z</time></trkpt>
<trkpt lat="28.375229" lon="99.0193">
<time>2016-10-07T10:41:17Z</time></trkpt>
<trkpt lat="28.37548" lon="99.018982">
<time>2016-10-07T10:41:18Z</time></trkpt>
<trkpt lat="28.375611" lon="99.018803">
<time>2016-10-07T10:41:19Z</time></trkpt>
<trkpt lat="28.375731" lon="99.018623">
<time>2016-10-07T10:41:20Z</time></trkpt>
<trkpt lat="28.375811" lon="99.018454">
<time>2016-10-07T10:41:21Z</time></trkpt>
<trkpt lat="28.375922" lon="99.018205">
<time>2016-10-07T10:41:22Z</time></trkpt>
<trkpt lat="28.376264" lon="99.017418">
<time>2016-10-07T10:41:23Z</time></trkpt>
<trkpt lat="28.376526" lon="99.016811">
<time>2016-10-07T10:41:24Z</time></trkpt>
<trkpt lat="28.376657" lon="99.016542">
<time>2016-10-07T10:41:25Z</time></trkpt>
<trkpt lat="28.376777" lon="99.016333">
<time>2016-10-07T10:41:26Z</time></trkpt>
<trkpt lat="28.376908" lon="99.016183">
<time>2016-10-07T10:41:27Z</time></trkpt>
<trkpt lat="28.377038" lon="99.016044">
<time>2016-10-07T10:41:28Z</time></trkpt>
<trkpt lat="28.377299" lon="99.015775">
<time>2016-10-07T10:41:29Z</time></trkpt>
<trkpt lat="28.377901" lon="99.015148">
<time>2016-10-07T10:41:30Z</time></trkpt>
<trkpt lat="28.378212" lon="99.014859">
<time>2016-10-07T10:41:31Z</time></trkpt>
<trkpt lat="28.378352" lon="99.014739">
<time>2016-10-07T10:41:32Z</time></trkpt>
<trkpt lat="28.378462" lon="99.01465">
<time>2016-10-07T10:41:33Z</time></trkpt>
<trkpt lat="28.378542" lon="99.01455">
<time>2016-10-07T10:41:34Z</time></trkpt>
<trkpt lat="28.378753" lon="99.014222">
<time>2016-10-07T10:41:35Z</time></trkpt>
<trkpt lat="28.378954" lon="99.013903">
<time>2016-10-07T10:41:36Z</time></trkpt>
<trkpt lat="28.379055" lon="99.013764">
<time>2016-10-07T10:41:37Z</time></trkpt>
<trkpt lat="28.379145" lon="99.013664">
<time>2016-10-07T10:41:38Z</time></trkpt>
<trkpt lat="28.379265" lon="99.013564">
<time>2016-10-07T10:41:39Z</time></trkpt>
<trkpt lat="28.379556" lon="99.013315">
<time>2016-10-07T10:41:40Z</time></trkpt>
<trkpt lat="28.380187" lon="99.012798">
<time>2016-10-07T10:41:41Z</time></trkpt>
<trkpt lat="28.380809" lon="99.01229">
<time>2016-10-07T10:41:42Z</time></trkpt>
<trkpt lat="28.380959" lon="99.01217">
<time>2016-10-07T10:41:43Z</time></trkpt>
<trkpt lat="28.381079" lon="99.012091">
<time>2016-10-07T10:41:44Z</time></trkpt>
<trkpt lat="28.381169" lon="99.012041">
<time>2016-10-07T10:41:45Z</time></trkpt>
<trkpt lat="28.38138" lon="99.011951">
<time>2016-10-07T10:41:46Z</time></trkpt>
<trkpt lat="28.38183" lon="99.011782">
<time>2016-10-07T10:41:47Z</time></trkpt>
<trkpt lat="28.3822" lon="99.011652">
<time>2016-10-07T10:41:48Z</time></trkpt>
<trkpt lat="28.382291" lon="99.011603">
<time>2016-10-07T10:41:49Z</time></trkpt>
<trkpt lat="28.382391" lon="99.011523">
<time>2016-10-07T10:41:50Z</time></trkpt>
<trkpt lat="28.382441" lon="99.011443">
<time>2016-10-07T10:41:51Z</time></trkpt>
<trkpt lat="28.382471" lon="99.011364">
<time>2016-10-07T10:41:52Z</time></trkpt>
<trkpt lat="28.382491" lon="99.011284">
<time>2016-10-07T10:41:53Z</time></trkpt>
<trkpt lat="28.382492" lon="99.011135">
<time>2016-10-07T10:41:54Z</time></trkpt>
<trkpt lat="28.382483" lon="99.010846">
<time>2016-10-07T10:41:55Z</time></trkpt>
<trkpt lat="28.382474" lon="99.010457">
<time>2016-10-07T10:41:56Z</time></trkpt>
<trkpt lat="28.382465" lon="99.010049">
<time>2016-10-07T10:41:57Z</time></trkpt>
<trkpt lat="28.382476" lon="99.00986">
<time>2016-10-07T10:41:58Z</time></trkpt>
<trkpt lat="28.382506" lon="99.00974">
<time>2016-10-07T10:41:59Z</time></trkpt>
<trkpt lat="28.382577" lon="99.009571">
<time>2016-10-07T10:42:00Z</time></trkpt>
<trkpt lat="28.382697" lon="99.009382">
<time>2016-10-07T10:42:01Z</time></trkpt>
<trkpt lat="28.383079" lon="99.008745">
<time>2016-10-07T10:42:02Z</time></trkpt>
<trkpt lat="28.383501" lon="99.008097">
<time>2016-10-07T10:42:03Z</time></trkpt>
<trkpt lat="28.383903" lon="99.00747">
<time>2016-10-07T10:42:04Z</time></trkpt>
<trkpt lat="28.384073" lon="99.007191">
<time>2016-10-07T10:42:05Z</time></trkpt>
<trkpt lat="28.384174" lon="99.007032">
<time>2016-10-07T10:42:06Z</time></trkpt>
<trkpt lat="28.384204" lon="99.006903">
<time>2016-10-07T10:42:07Z</time></trkpt>
<trkpt lat="28.384225" lon="99.006783">
<time>2016-10-07T10:42:08Z</time></trkpt>
<trkpt lat="28.384225" lon="99.006713">
<time>2016-10-07T10:42:09Z</time></trkpt>
<trkpt lat="28.384225" lon="99.006644">
<time>2016-10-07T10:42:10Z</time></trkpt>
<trkpt lat="28.384206" lon="99.006514">
<time>2016-10-07T10:42:11Z</time></trkpt>
<trkpt lat="28.384166" lon="99.006355">
<time>2016-10-07T10:42:12Z</time></trkpt>
<trkpt lat="28.384117" lon="99.006186">
<time>2016-10-07T10:42:13Z</time></trkpt>
<trkpt lat="28.384097" lon="99.006126">
<time>2016-10-07T10:42:14Z</time></trkpt>
<trkpt lat="28.384057" lon="99.006046">
<time>2016-10-07T10:42:15Z</time></trkpt>
<trkpt lat="28.384037" lon="99.006016">
<time>2016-10-07T10:42:16Z</time></trkpt>
<trkpt lat="28.384007" lon="99.005977">
<time>2016-10-07T10:42:17Z</time></trkpt>
<trkpt lat="28.383937" lon="99.005917">
<time>2016-10-07T10:42:18Z</time></trkpt>
<trkpt lat="28.383748" lon="99.005797">
<time>2016-10-07T10:42:19Z</time></trkpt>
<trkpt lat="28.383578" lon="99.005688">
<time>2016-10-07T10:42:20Z</time></trkpt>
<trkpt lat="28.383359" lon="99.005538">
<time>2016-10-07T10:42:21Z</time></trkpt>
<trkpt lat="28.383259" lon="99.005449">
<time>2016-10-07T10:42:22Z</time></trkpt>
<trkpt lat="28.383199" lon="99.005349">
<time>2016-10-07T10:42:23Z</time></trkpt>
<trkpt lat="28.38315" lon="99.00522">
<time>2016-10-07T10:42:24Z</time></trkpt>
<trkpt lat="28.38308" lon="99.004971">
<time>2016-10-07T10:42:25Z</time></trkpt>
<trkpt lat="28.383051" lon="99.004871">
<time>2016-10-07T10:42:26Z</time></trkpt>
<trkpt lat="28.383021" lon="99.004772">
<time>2016-10-07T10:42:27Z</time></trkpt>
<trkpt lat="28.382981" lon="99.004712">
<time>2016-10-07T10:42:28Z</time></trkpt>
<trkpt lat="28.382931" lon="99.004662">
<time>2016-10-07T10:42:29Z</time></trkpt>
<trkpt lat="28.382832" lon="99.004612">
<time>2016-10-07T10:42:30Z</time></trkpt>
<trkpt lat="28.382682" lon="99.004563">
<time>2016-10-07T10:42:31Z</time></trkpt>
<trkpt lat="28.382452" lon="99.004493">
<time>2016-10-07T10:42:32Z</time></trkpt>
<trkpt lat="28.382272" lon="99.004463">
<time>2016-10-07T10:42:33Z</time></trkpt>
<trkpt lat="28.382102" lon="99.004453">
<time>2016-10-07T10:42:34Z</time></trkpt>
<trkpt lat="28.381982" lon="99.004453">
<time>2016-10-07T10:42:35Z</time></trkpt>
<trkpt lat="28.381882" lon="99.004433">
<time>2016-10-07T10:42:36Z</time></trkpt>
<trkpt lat="28.381802" lon="99.004383">
<time>2016-10-07T10:42:37Z</time></trkpt>
<trkpt lat="28.381743" lon="99.004334">
<time>2016-10-07T10:42:38Z</time></trkpt>
<trkpt lat="28.381693" lon="99.004234">
<time>2016-10-07T10:42:39Z</time></trkpt>
<trkpt lat="28.381663" lon="99.004125">
<time>2016-10-07T10:42:40Z</time></trkpt>
<trkpt lat="28.381654" lon="99.004015">
<time>2016-10-07T10:42:41Z</time></trkpt>
<trkpt lat="28.381654" lon="99.003876">
<time>2016-10-07T10:42:42Z</time></trkpt>
<trkpt lat="28.381674" lon="99.003706">
<time>2016-10-07T10:42:43Z</time></trkpt>
<trkpt lat="28.381705" lon="99.003547">
<time>2016-10-07T10:42:44Z</time></trkpt>
<trkpt lat="28.381756" lon="99.003308">
<time>2016-10-07T10:42:45Z</time></trkpt>
<trkpt lat="28.381807" lon="99.003009">
<time>2016-10-07T10:42:46Z</time></trkpt>
<trkpt lat="28.381827" lon="99.002721">
<time>2016-10-07T10:42:47Z</time></trkpt>
<trkpt lat="28.381838" lon="99.002462">
<time>2016-10-07T10:42:48Z</time></trkpt>
<trkpt lat="28.381849" lon="99.002273">
<time>2016-10-07T10:42:49Z</time></trkpt>
<trkpt lat="28.381879" lon="99.002153">
<time>2016-10-07T10:42:50Z</time></trkpt>
<trkpt lat="28.381909" lon="99.002083">
<time>2016-10-07T10:42:51Z</time></trkpt>
<trkpt lat="28.381949" lon="99.002044">
<time>2016-10-07T10:42:52Z</time></trkpt>
<trkpt lat="28.38203" lon="99.001974">
<time>2016-10-07T10:42:53Z</time></trkpt>
<trkpt lat="28.38215" lon="99.001914">
<time>2016-10-07T10:42:54Z</time></trkpt>
<trkpt lat="28.38229" lon="99.001854">
<time>2016-10-07T10:42:55Z</time></trkpt>
<trkpt lat="28.38242" lon="99.001805">
<time>2016-10-07T10:42:56Z</time></trkpt>
<trkpt lat="28.38249" lon="99.001755">
<time>2016-10-07T10:42:57Z</time></trkpt>
<trkpt lat="28.382541" lon="99.001665">
<time>2016-10-07T10:42:58Z</time></trkpt>
<trkpt lat="28.382581" lon="99.001556">
<time>2016-10-07T10:42:59Z</time></trkpt>
<trkpt lat="28.382591" lon="99.001406">
<time>2016-10-07T10:43:00Z</time></trkpt>
<trkpt lat="28.382582" lon="99.001157">
<time>2016-10-07T10:43:01Z</time></trkpt>
<trkpt lat="28.382563" lon="99.000769">
<time>2016-10-07T10:43:02Z</time></trkpt>
<trkpt lat="28.382544" lon="99.00055">
<time>2016-10-07T10:43:03Z</time></trkpt>
<trkpt lat="28.382514" lon="99.000381">
<time>2016-10-07T10:43:04Z</time></trkpt>
<trkpt lat="28.382485" lon="99.000201">
<time>2016-10-07T10:43:05Z</time></trkpt>
<trkpt lat="28.382446" lon="99.000032">
<time>2016-10-07T10:43:06Z</time></trkpt>
<trkpt lat="28.382416" lon="98.999953">
<time>2016-10-07T10:43:07Z</time></trkpt>
<trkpt lat="28.382337" lon="98.999704">
<time>2016-10-07T10:43:08Z</time></trkpt>
<trkpt lat="28.382207" lon="98.999415">
<time>2016-10-07T10:43:09Z</time></trkpt>
<trkpt lat="28.38188" lon="98.998628">
<time>2016-10-07T10:43:10Z</time></trkpt>
<trkpt lat="28.381761" lon="98.998349">
<time>2016-10-07T10:43:11Z</time></trkpt>
<trkpt lat="28.381661" lon="98.99812">
<time>2016-10-07T10:43:12Z</time></trkpt>
<trkpt lat="28.381662" lon="98.998071">
<time>2016-10-07T10:43:13Z</time></trkpt>
<trkpt lat="28.381662" lon="98.998011">
<time>2016-10-07T10:43:14Z</time></trkpt>
<trkpt lat="28.381702" lon="98.997921">
<time>2016-10-07T10:43:15Z</time></trkpt>
<trkpt lat="28.381752" lon="98.997832">
<time>2016-10-07T10:43:16Z</time></trkpt>
<trkpt lat="28.381843" lon="98.997752">
<time>2016-10-07T10:43:17Z</time></trkpt>
<trkpt lat="28.381913" lon="98.997712">
<time>2016-10-07T10:43:18Z</time></trkpt>
<trkpt lat="28.382013" lon="98.997682">
<time>2016-10-07T10:43:19Z</time></trkpt>
<trkpt lat="28.382083" lon="98.997692">
<time>2016-10-07T10:43:20Z</time></trkpt>
<trkpt lat="28.382163" lon="98.997692">
<time>2016-10-07T10:43:21Z</time></trkpt>
<trkpt lat="28.382303" lon="98.997752">
<time>2016-10-07T10:43:22Z</time></trkpt>
<trkpt lat="28.382462" lon="98.997802">
<time>2016-10-07T10:43:23Z</time></trkpt>
<trkpt lat="28.382712" lon="98.997881">
<time>2016-10-07T10:43:24Z</time></trkpt>
<trkpt lat="28.382882" lon="98.997941">
<time>2016-10-07T10:43:25Z</time></trkpt>
<trkpt lat="28.383032" lon="98.997971">
<time>2016-10-07T10:43:26Z</time></trkpt>
<trkpt lat="28.383172" lon="98.997991">
<time>2016-10-07T10:43:27Z</time></trkpt>
<trkpt lat="28.383292" lon="98.998001">
<time>2016-10-07T10:43:28Z</time></trkpt>
<trkpt lat="28.383432" lon="98.997991">
<time>2016-10-07T10:43:29Z</time></trkpt>
<trkpt lat="28.383652" lon="98.998001">
<time>2016-10-07T10:43:30Z</time></trkpt>
<trkpt lat="28.383762" lon="98.997991">
<time>2016-10-07T10:43:31Z</time></trkpt>
<trkpt lat="28.383832" lon="98.997961">
<time>2016-10-07T10:43:32Z</time></trkpt>
<trkpt lat="28.383922" lon="98.997911">
<time>2016-10-07T10:43:33Z</time></trkpt>
<trkpt lat="28.384022" lon="98.997832">
<time>2016-10-07T10:43:34Z</time></trkpt>
<trkpt lat="28.384092" lon="98.997702">
<time>2016-10-07T10:43:35Z</time></trkpt>
<trkpt lat="28.384143" lon="98.997513">
<time>2016-10-07T10:43:36Z</time></trkpt>
<trkpt lat="28.384194" lon="98.997254">
<time>2016-10-07T10:43:37Z</time></trkpt>
<trkpt lat="28.384224" lon="98.997165">
<time>2016-10-07T10:43:38Z</time></trkpt>
<trkpt lat="28.384254" lon="98.997085">
<time>2016-10-07T10:43:39Z</time></trkpt>
<trkpt lat="28.384325" lon="98.996975">
<time>2016-10-07T10:43:40Z</time></trkpt>
<trkpt lat="28.384485" lon="98.996806">
<time>2016-10-07T10:43:41Z</time></trkpt>
<trkpt lat="28.384605" lon="98.996697">
<time>2016-10-07T10:43:42Z</time></trkpt>
<trkpt lat="28.384746" lon="98.996547">
<time>2016-10-07T10:43:43Z</time></trkpt>
<trkpt lat="28.384826" lon="98.996408">
<time>2016-10-07T10:43:44Z</time></trkpt>
<trkpt lat="28.384897" lon="98.996268">
<time>2016-10-07T10:43:45Z</time></trkpt>
<trkpt lat="28.384927" lon="98.996099">
<time>2016-10-07T10:43:46Z</time></trkpt>
<trkpt lat="28.384958" lon="98.9959">
<time>2016-10-07T10:43:47Z</time></trkpt>
<trkpt lat="28.384999" lon="98.995621">
<time>2016-10-07T10:43:48Z</time></trkpt>
<trkpt lat="28.385019" lon="98.995392">
<time>2016-10-07T10:43:49Z</time></trkpt>
<trkpt lat="28.38507" lon="98.995193">
<time>2016-10-07T10:43:50Z</time></trkpt>
<trkpt lat="28.38515" lon="98.995014">
<time>2016-10-07T10:43:51Z</time></trkpt>
<trkpt lat="28.385271" lon="98.994825">
<time>2016-10-07T10:43:52Z</time></trkpt>
<trkpt lat="28.385542" lon="98.994396">
<time>2016-10-07T10:43:53Z</time></trkpt>
<trkpt lat="28.385753" lon="98.994058">
<time>2016-10-07T10:43:54Z</time></trkpt>
<trkpt lat="28.385854" lon="98.993849">
<time>2016-10-07T10:43:55Z</time></trkpt>
<trkpt lat="28.386105" lon="98.993371">
<time>2016-10-07T10:43:56Z</time></trkpt>
<trkpt lat="28.386266" lon="98.993082">
<time>2016-10-07T10:43:57Z</time></trkpt>
<trkpt lat="28.386346" lon="98.992963">
<time>2016-10-07T10:43:58Z</time></trkpt>
<trkpt lat="28.386386" lon="98.992923">
<time>2016-10-07T10:43:59Z</time></trkpt>
<trkpt lat="28.386477" lon="98.992863">
<time>2016-10-07T10:44:00Z</time></trkpt>
<trkpt lat="28.386577" lon="98.992823">
<time>2016-10-07T10:44:01Z</time></trkpt>
<trkpt lat="28.386667" lon="98.992803">
<time>2016-10-07T10:44:02Z</time></trkpt>
<trkpt lat="28.386797" lon="98.992783">
<time>2016-10-07T10:44:03Z</time></trkpt>
<trkpt lat="28.386937" lon="98.992763">
<time>2016-10-07T10:44:04Z</time></trkpt>
<trkpt lat="28.387187" lon="98.992714">
<time>2016-10-07T10:44:05Z</time></trkpt>
<trkpt lat="28.387407" lon="98.992664">
<time>2016-10-07T10:44:06Z</time></trkpt>
<trkpt lat="28.387507" lon="98.992644">
<time>2016-10-07T10:44:07Z</time></trkpt>
<trkpt lat="28.387597" lon="98.992614">
<time>2016-10-07T10:44:08Z</time></trkpt>
<trkpt lat="28.387657" lon="98.992594">
<time>2016-10-07T10:44:09Z</time></trkpt>
<trkpt lat="28.387707" lon="98.992564">
<time>2016-10-07T10:44:10Z</time></trkpt>
<trkpt lat="28.387777" lon="98.992514">
<time>2016-10-07T10:44:11Z</time></trkpt>
<trkpt lat="28.387848" lon="98.992445">
<time>2016-10-07T10:44:12Z</time></trkpt>
<trkpt lat="28.387908" lon="98.992385">
<time>2016-10-07T10:44:13Z</time></trkpt>
<trkpt lat="28.387938" lon="98.992335">
<time>2016-10-07T10:44:14Z</time></trkpt>
<trkpt lat="28.388008" lon="98.992246">
<time>2016-10-07T10:44:15Z</time></trkpt>
<trkpt lat="28.388069" lon="98.992146">
<time>2016-10-07T10:44:16Z</time></trkpt>
<trkpt lat="28.388169" lon="98.991977">
<time>2016-10-07T10:44:17Z</time></trkpt>
<trkpt lat="28.388209" lon="98.991917">
<time>2016-10-07T10:44:18Z</time></trkpt>
<trkpt lat="28.388239" lon="98.991847">
<time>2016-10-07T10:44:19Z</time></trkpt>
<trkpt lat="28.38828" lon="98.991768">
<time>2016-10-07T10:44:20Z</time></trkpt>
<trkpt lat="28.38831" lon="98.991678">
<time>2016-10-07T10:44:21Z</time></trkpt>
<trkpt lat="28.38834" lon="98.991598">
<time>2016-10-07T10:44:22Z</time></trkpt>
<trkpt lat="28.38837" lon="98.991509">
<time>2016-10-07T10:44:23Z</time></trkpt>
<trkpt lat="28.388421" lon="98.9913">
<time>2016-10-07T10:44:24Z</time></trkpt>
<trkpt lat="28.388431" lon="98.99123">
<time>2016-10-07T10:44:25Z</time></trkpt>
<trkpt lat="28.388441" lon="98.99118">
<time>2016-10-07T10:44:26Z</time></trkpt>
<trkpt lat="28.388442" lon="98.99112">
<time>2016-10-07T10:44:27Z</time></trkpt>
<trkpt lat="28.388432" lon="98.991061">
<time>2016-10-07T10:44:28Z</time></trkpt>
<trkpt lat="28.388422" lon="98.991021">
<time>2016-10-07T10:44:29Z</time></trkpt>
<trkpt lat="28.388422" lon="98.990981">
<time>2016-10-07T10:44:30Z</time></trkpt>
<trkpt lat="28.388402" lon="98.990931">
<time>2016-10-07T10:44:31Z</time></trkpt>
<trkpt lat="28.388382" lon="98.990891">
<time>2016-10-07T10:44:32Z</time></trkpt>
<trkpt lat="28.388342" lon="98.990822">
<time>2016-10-07T10:44:33Z</time></trkpt>
<trkpt lat="28.388313" lon="98.990752">
<time>2016-10-07T10:44:34Z</time></trkpt>
<trkpt lat="28.388253" lon="98.990652">
<time>2016-10-07T10:44:35Z</time></trkpt>
<trkpt lat="28.388233" lon="98.990613">
<time>2016-10-07T10:44:36Z</time></trkpt>
<trkpt lat="28.388223" lon="98.990553">
<time>2016-10-07T10:44:37Z</time></trkpt>
<trkpt lat="28.388213" lon="98.990503">
<time>2016-10-07T10:44:38Z</time></trkpt>
<trkpt lat="28.388214" lon="98.990463">
<time>2016-10-07T10:44:39Z</time></trkpt>
<trkpt lat="28.388224" lon="98.990423">
<time>2016-10-07T10:44:40Z</time></trkpt>
<trkpt lat="28.388244" lon="98.990403">
<time>2016-10-07T10:44:41Z</time></trkpt>
<trkpt lat="28.388254" lon="98.990374">
<time>2016-10-07T10:44:42Z</time></trkpt>
<trkpt lat="28.388284" lon="98.990354">
<time>2016-10-07T10:44:43Z</time></trkpt>
<trkpt lat="28.388314" lon="98.990334">
<time>2016-10-07T10:44:44Z</time></trkpt>
<trkpt lat="28.388354" lon="98.990334">
<time>2016-10-07T10:44:45Z</time></trkpt>
<trkpt lat="28.388374" lon="98.990334">
<time>2016-10-07T10:44:46Z</time></trkpt>
<trkpt lat="28.388394" lon="98.990334">
<time>2016-10-07T10:44:47Z</time></trkpt>
<trkpt lat="28.388414" lon="98.990344">
<time>2016-10-07T10:44:48Z</time></trkpt>
<trkpt lat="28.388454" lon="98.990374">
<time>2016-10-07T10:44:49Z</time></trkpt>
<trkpt lat="28.388474" lon="98.990403">
<time>2016-10-07T10:44:50Z</time></trkpt>
<trkpt lat="28.388494" lon="98.990433">
<time>2016-10-07T10:44:51Z</time></trkpt>
<trkpt lat="28.388523" lon="98.990493">
<time>2016-10-07T10:44:52Z</time></trkpt>
<trkpt lat="28.388543" lon="98.990583">
<time>2016-10-07T10:44:53Z</time></trkpt>
<trkpt lat="28.388573" lon="98.990712">
<time>2016-10-07T10:44:54Z</time></trkpt>
<trkpt lat="28.388642" lon="98.991041">
<time>2016-10-07T10:44:55Z</time></trkpt>
<trkpt lat="28.388681" lon="98.99129">
<time>2016-10-07T10:44:56Z</time></trkpt>
<trkpt lat="28.38867" lon="98.991519">
<time>2016-10-07T10:44:57Z</time></trkpt>
<trkpt lat="28.38865" lon="98.991768">
<time>2016-10-07T10:44:58Z</time></trkpt>
<trkpt lat="28.388518" lon="98.992275">
<time>2016-10-07T10:44:59Z</time></trkpt>
<trkpt lat="28.388387" lon="98.992743">
<time>2016-10-07T10:45:00Z</time></trkpt>
<trkpt lat="28.388336" lon="98.992953">
<time>2016-10-07T10:45:01Z</time></trkpt>
<trkpt lat="28.388276" lon="98.993112">
<time>2016-10-07T10:45:02Z</time></trkpt>
<trkpt lat="28.388235" lon="98.993182">
<time>2016-10-07T10:45:03Z</time></trkpt>
<trkpt lat="28.388205" lon="98.993221">
<time>2016-10-07T10:45:04Z</time></trkpt>
<trkpt lat="28.388145" lon="98.993261">
<time>2016-10-07T10:45:05Z</time></trkpt>
<trkpt lat="28.388045" lon="98.993301">
<time>2016-10-07T10:45:06Z</time></trkpt>
<trkpt lat="28.387965" lon="98.993321">
<time>2016-10-07T10:45:07Z</time></trkpt>
<trkpt lat="28.387905" lon="98.993321">
<time>2016-10-07T10:45:08Z</time></trkpt>
<trkpt lat="28.387825" lon="98.993331">
<time>2016-10-07T10:45:09Z</time></trkpt>
<trkpt lat="28.387705" lon="98.993341">
<time>2016-10-07T10:45:10Z</time></trkpt>
<trkpt lat="28.387555" lon="98.993391">
<time>2016-10-07T10:45:11Z</time></trkpt>
<trkpt lat="28.387325" lon="98.99347">
<time>2016-10-07T10:45:12Z</time></trkpt>
<trkpt lat="28.387225" lon="98.9935">
<time>2016-10-07T10:45:13Z</time></trkpt>
<trkpt lat="28.387124" lon="98.99355">
<time>2016-10-07T10:45:14Z</time></trkpt>
<trkpt lat="28.387064" lon="98.9936">
<time>2016-10-07T10:45:15Z</time></trkpt>
<trkpt lat="28.387014" lon="98.99366">
<time>2016-10-07T10:45:16Z</time></trkpt>
<trkpt lat="28.386994" lon="98.993699">
<time>2016-10-07T10:45:17Z</time></trkpt>
<trkpt lat="28.386984" lon="98.993749">
<time>2016-10-07T10:45:18Z</time></trkpt>
<trkpt lat="28.386974" lon="98.993799">
<time>2016-10-07T10:45:19Z</time></trkpt>
<trkpt lat="28.386974" lon="98.993849">
<time>2016-10-07T10:45:20Z</time></trkpt>
<trkpt lat="28.387003" lon="98.993948">
<time>2016-10-07T10:45:21Z</time></trkpt>
<trkpt lat="28.387033" lon="98.994068">
<time>2016-10-07T10:45:22Z</time></trkpt>
<trkpt lat="28.387073" lon="98.994177">
<time>2016-10-07T10:45:23Z</time></trkpt>
<trkpt lat="28.387102" lon="98.994317">
<time>2016-10-07T10:45:24Z</time></trkpt>
<trkpt lat="28.387102" lon="98.994416">
<time>2016-10-07T10:45:25Z</time></trkpt>
<trkpt lat="28.387092" lon="98.994506">
<time>2016-10-07T10:45:26Z</time></trkpt>
<trkpt lat="28.387061" lon="98.994596">
<time>2016-10-07T10:45:27Z</time></trkpt>
<trkpt lat="28.387021" lon="98.994685">
<time>2016-10-07T10:45:28Z</time></trkpt>
<trkpt lat="28.386961" lon="98.994795">
<time>2016-10-07T10:45:29Z</time></trkpt>
<trkpt lat="28.38689" lon="98.994934">
<time>2016-10-07T10:45:30Z</time></trkpt>
<trkpt lat="28.38685" lon="98.995004">
<time>2016-10-07T10:45:31Z</time></trkpt>
<trkpt lat="28.38682" lon="98.995093">
<time>2016-10-07T10:45:32Z</time></trkpt>
<trkpt lat="28.386789" lon="98.995233">
<time>2016-10-07T10:45:33Z</time></trkpt>
<trkpt lat="28.386779" lon="98.995342">
<time>2016-10-07T10:45:34Z</time></trkpt>
<trkpt lat="28.386799" lon="98.995442">
<time>2016-10-07T10:45:35Z</time></trkpt>
<trkpt lat="28.386848" lon="98.995541">
<time>2016-10-07T10:45:36Z</time></trkpt>
<trkpt lat="28.386918" lon="98.995641">
<time>2016-10-07T10:45:37Z</time></trkpt>
<trkpt lat="28.386988" lon="98.995761">
<time>2016-10-07T10:45:38Z</time></trkpt>
<trkpt lat="28.387057" lon="98.99587">
<time>2016-10-07T10:45:39Z</time></trkpt>
<trkpt lat="28.387117" lon="98.996009">
<time>2016-10-07T10:45:40Z</time></trkpt>
<trkpt lat="28.387176" lon="98.996169">
<time>2016-10-07T10:45:41Z</time></trkpt>
<trkpt lat="28.387206" lon="98.996278">
<time>2016-10-07T10:45:42Z</time></trkpt>
<trkpt lat="28.387226" lon="98.996378">
<time>2016-10-07T10:45:43Z</time></trkpt>
<trkpt lat="28.387236" lon="98.996477">
<time>2016-10-07T10:45:44Z</time></trkpt>
<trkpt lat="28.387235" lon="98.996557">
<time>2016-10-07T10:45:45Z</time></trkpt>
<trkpt lat="28.387235" lon="98.996597">
<time>2016-10-07T10:45:46Z</time></trkpt>
<trkpt lat="28.387225" lon="98.996647">
<time>2016-10-07T10:45:47Z</time></trkpt>
<trkpt lat="28.387225" lon="98.996687">
<time>2016-10-07T10:45:48Z</time></trkpt>
<trkpt lat="28.387205" lon="98.996736">
<time>2016-10-07T10:45:49Z</time></trkpt>
<trkpt lat="28.387185" lon="98.996776">
<time>2016-10-07T10:45:50Z</time></trkpt>
<trkpt lat="28.387164" lon="98.996836">
<time>2016-10-07T10:45:51Z</time></trkpt>
<trkpt lat="28.387084" lon="98.996955">
<time>2016-10-07T10:45:52Z</time></trkpt>
<trkpt lat="28.387014" lon="98.997045">
<time>2016-10-07T10:45:53Z</time></trkpt>
<trkpt lat="28.386964" lon="98.997125">
<time>2016-10-07T10:45:54Z</time></trkpt>
<trkpt lat="28.386954" lon="98.997155">
<time>2016-10-07T10:45:55Z</time></trkpt>
<trkpt lat="28.386943" lon="98.997194">
<time>2016-10-07T10:45:56Z</time></trkpt>
<trkpt lat="28.386943" lon="98.997234">
<time>2016-10-07T10:45:57Z</time></trkpt>
<trkpt lat="28.386943" lon="98.997264">
<time>2016-10-07T10:45:58Z</time></trkpt>
<trkpt lat="28.386953" lon="98.997284">
<time>2016-10-07T10:45:59Z</time></trkpt>
<trkpt lat="28.386963" lon="98.997294">
<time>2016-10-07T10:46:00Z</time></trkpt>
<trkpt lat="28.386973" lon="98.997314">
<time>2016-10-07T10:46:01Z</time></trkpt>
<trkpt lat="28.386983" lon="98.997324">
<time>2016-10-07T10:46:02Z</time></trkpt>
<trkpt lat="28.387003" lon="98.997334">
<time>2016-10-07T10:46:03Z</time></trkpt>
<trkpt lat="28.387013" lon="98.997344">
<time>2016-10-07T10:46:04Z</time></trkpt>
<trkpt lat="28.387033" lon="98.997344">
<time>2016-10-07T10:46:05Z</time></trkpt>
<trkpt lat="28.387063" lon="98.997344">
<time>2016-10-07T10:46:06Z</time></trkpt>
<trkpt lat="28.387083" lon="98.997334">
<time>2016-10-07T10:46:07Z</time></trkpt>
<trkpt lat="28.387123" lon="98.997294">
<time>2016-10-07T10:46:08Z</time></trkpt>
<trkpt lat="28.387153" lon="98.997254">
<time>2016-10-07T10:46:09Z</time></trkpt>
<trkpt lat="28.387173" lon="98.997204">
<time>2016-10-07T10:46:10Z</time></trkpt>
<trkpt lat="28.387244" lon="98.997025">
<time>2016-10-07T10:46:11Z</time></trkpt>
<trkpt lat="28.387314" lon="98.996816">
<time>2016-10-07T10:46:12Z</time></trkpt>
<trkpt lat="28.387375" lon="98.996607">
<time>2016-10-07T10:46:13Z</time></trkpt>
<trkpt lat="28.387396" lon="98.996438">
<time>2016-10-07T10:46:14Z</time></trkpt>
<trkpt lat="28.387396" lon="98.996298">
<time>2016-10-07T10:46:15Z</time></trkpt>
<trkpt lat="28.387376" lon="98.996209">
<time>2016-10-07T10:46:16Z</time></trkpt>
<trkpt lat="28.387338" lon="98.9958">
<time>2016-10-07T10:46:17Z</time></trkpt>
<trkpt lat="28.387308" lon="98.995561">
<time>2016-10-07T10:46:18Z</time></trkpt>
<trkpt lat="28.387309" lon="98.995492">
<time>2016-10-07T10:46:19Z</time></trkpt>
<trkpt lat="28.387309" lon="98.995432">
<time>2016-10-07T10:46:20Z</time></trkpt>
<trkpt lat="28.387349" lon="98.995312">
<time>2016-10-07T10:46:21Z</time></trkpt>
<trkpt lat="28.387419" lon="98.995223">
<time>2016-10-07T10:46:22Z</time></trkpt>
<trkpt lat="28.38752" lon="98.995133">
<time>2016-10-07T10:46:23Z</time></trkpt>
<trkpt lat="28.38763" lon="98.995034">
<time>2016-10-07T10:46:24Z</time></trkpt>
<trkpt lat="28.38769" lon="98.994954">
<time>2016-10-07T10:46:25Z</time></trkpt>
<trkpt lat="28.38775" lon="98.994874">
<time>2016-10-07T10:46:26Z</time></trkpt>
<trkpt lat="28.387801" lon="98.994725">
<time>2016-10-07T10:46:27Z</time></trkpt>
<trkpt lat="28.387881" lon="98.994516">
<time>2016-10-07T10:46:28Z</time></trkpt>
<trkpt lat="28.387952" lon="98.994376">
<time>2016-10-07T10:46:29Z</time></trkpt>
<trkpt lat="28.387992" lon="98.994317">
<time>2016-10-07T10:46:30Z</time></trkpt>
<trkpt lat="28.388042" lon="98.994267">
<time>2016-10-07T10:46:31Z</time></trkpt>
<trkpt lat="28.388102" lon="98.994217">
<time>2016-10-07T10:46:32Z</time></trkpt>
<trkpt lat="28.388172" lon="98.994197">
<time>2016-10-07T10:46:33Z</time></trkpt>
<trkpt lat="28.388222" lon="98.994187">
<time>2016-10-07T10:46:34Z</time></trkpt>
<trkpt lat="28.388272" lon="98.994187">
<time>2016-10-07T10:46:35Z</time></trkpt>
<trkpt lat="28.388342" lon="98.994207">
<time>2016-10-07T10:46:36Z</time></trkpt>
<trkpt lat="28.388402" lon="98.994227">
<time>2016-10-07T10:46:37Z</time></trkpt>
<trkpt lat="28.388682" lon="98.994317">
<time>2016-10-07T10:46:38Z</time></trkpt>
<trkpt lat="28.389171" lon="98.994486">
<time>2016-10-07T10:46:39Z</time></trkpt>
<trkpt lat="28.389421" lon="98.994625">
<time>2016-10-07T10:46:40Z</time></trkpt>
<trkpt lat="28.38973" lon="98.994785">
<time>2016-10-07T10:46:41Z</time></trkpt>
<trkpt lat="28.38983" lon="98.994834">
<time>2016-10-07T10:46:42Z</time></trkpt>
<trkpt lat="28.38991" lon="98.994854">
<time>2016-10-07T10:46:43Z</time></trkpt>
<trkpt lat="28.38998" lon="98.994864">
<time>2016-10-07T10:46:44Z</time></trkpt>
<trkpt lat="28.39006" lon="98.994854">
<time>2016-10-07T10:46:45Z</time></trkpt>
<trkpt lat="28.39015" lon="98.994824">
<time>2016-10-07T10:46:46Z</time></trkpt>
<trkpt lat="28.39023" lon="98.994765">
<time>2016-10-07T10:46:47Z</time></trkpt>
<trkpt lat="28.39027" lon="98.994715">
<time>2016-10-07T10:46:48Z</time></trkpt>
<trkpt lat="28.390331" lon="98.994655">
<time>2016-10-07T10:46:49Z</time></trkpt>
<trkpt lat="28.390381" lon="98.994516">
<time>2016-10-07T10:46:50Z</time></trkpt>
<trkpt lat="28.390432" lon="98.994277">
<time>2016-10-07T10:46:51Z</time></trkpt>
<trkpt lat="28.390482" lon="98.994048">
<time>2016-10-07T10:46:52Z</time></trkpt>
<trkpt lat="28.390503" lon="98.993968">
<time>2016-10-07T10:46:53Z</time></trkpt>
<trkpt lat="28.390543" lon="98.993859">
<time>2016-10-07T10:46:54Z</time></trkpt>
<trkpt lat="28.390603" lon="98.993769">
<time>2016-10-07T10:46:55Z</time></trkpt>
<trkpt lat="28.390703" lon="98.993669">
<time>2016-10-07T10:46:56Z</time></trkpt>
<trkpt lat="28.390834" lon="98.99358">
<time>2016-10-07T10:46:57Z</time></trkpt>
<trkpt lat="28.391004" lon="98.99349">
<time>2016-10-07T10:46:58Z</time></trkpt>
<trkpt lat="28.391154" lon="98.99344">
<time>2016-10-07T10:46:59Z</time></trkpt>
<trkpt lat="28.391274" lon="98.993401">
<time>2016-10-07T10:47:00Z</time></trkpt>
<trkpt lat="28.391434" lon="98.993391">
<time>2016-10-07T10:47:01Z</time></trkpt>
<trkpt lat="28.391544" lon="98.993401">
<time>2016-10-07T10:47:02Z</time></trkpt>
<trkpt lat="28.391634" lon="98.993401">
<time>2016-10-07T10:47:03Z</time></trkpt>
<trkpt lat="28.392064" lon="98.99343">
<time>2016-10-07T10:47:04Z</time></trkpt>
<trkpt lat="28.392334" lon="98.99345">
<time>2016-10-07T10:47:05Z</time></trkpt>
<trkpt lat="28.392494" lon="98.99345">
<time>2016-10-07T10:47:06Z</time></trkpt>
<trkpt lat="28.392584" lon="98.99344">
<time>2016-10-07T10:47:07Z</time></trkpt>
<trkpt lat="28.392664" lon="98.993411">
<time>2016-10-07T10:47:08Z</time></trkpt>
<trkpt lat="28.392784" lon="98.993341">
<time>2016-10-07T10:47:09Z</time></trkpt>
<trkpt lat="28.392874" lon="98.993261">
<time>2016-10-07T10:47:10Z</time></trkpt>
<trkpt lat="28.393055" lon="98.993072">
<time>2016-10-07T10:47:11Z</time></trkpt>
<trkpt lat="28.393356" lon="98.992743">
<time>2016-10-07T10:47:12Z</time></trkpt>
<trkpt lat="28.393677" lon="98.992395">
<time>2016-10-07T10:47:13Z</time></trkpt>
<trkpt lat="28.393787" lon="98.992265">
<time>2016-10-07T10:47:14Z</time></trkpt>
<trkpt lat="28.393898" lon="98.992126">
<time>2016-10-07T10:47:15Z</time></trkpt>
<trkpt lat="28.393978" lon="98.991997">
<time>2016-10-07T10:47:16Z</time></trkpt>
<trkpt lat="28.394018" lon="98.991907">
<time>2016-10-07T10:47:17Z</time></trkpt>
<trkpt lat="28.394039" lon="98.991777">
<time>2016-10-07T10:47:18Z</time></trkpt>
<trkpt lat="28.394039" lon="98.991688">
<time>2016-10-07T10:47:19Z</time></trkpt>
<trkpt lat="28.394009" lon="98.991578">
<time>2016-10-07T10:47:20Z</time></trkpt>
<trkpt lat="28.393979" lon="98.991519">
<time>2016-10-07T10:47:21Z</time></trkpt>
<trkpt lat="28.393929" lon="98.991479">
<time>2016-10-07T10:47:22Z</time></trkpt>
<trkpt lat="28.39381" lon="98.991379">
<time>2016-10-07T10:47:23Z</time></trkpt>
<trkpt lat="28.39369" lon="98.991309">
<time>2016-10-07T10:47:24Z</time></trkpt>
<trkpt lat="28.39355" lon="98.99123">
<time>2016-10-07T10:47:25Z</time></trkpt>
<trkpt lat="28.393341" lon="98.99112">
<time>2016-10-07T10:47:26Z</time></trkpt>
<trkpt lat="28.393121" lon="98.991011">
<time>2016-10-07T10:47:27Z</time></trkpt>
<trkpt lat="28.393011" lon="98.990961">
<time>2016-10-07T10:47:28Z</time></trkpt>
<trkpt lat="28.392971" lon="98.990931">
<time>2016-10-07T10:47:29Z</time></trkpt>
<trkpt lat="28.392911" lon="98.990881">
<time>2016-10-07T10:47:30Z</time></trkpt>
<trkpt lat="28.392842" lon="98.990812">
<time>2016-10-07T10:47:31Z</time></trkpt>
<trkpt lat="28.392742" lon="98.990712">
<time>2016-10-07T10:47:32Z</time></trkpt>
<trkpt lat="28.392573" lon="98.990513">
<time>2016-10-07T10:47:33Z</time></trkpt>
<trkpt lat="28.392413" lon="98.990334">
<time>2016-10-07T10:47:34Z</time></trkpt>
<trkpt lat="28.392284" lon="98.990214">
<time>2016-10-07T10:47:35Z</time></trkpt>
<trkpt lat="28.392104" lon="98.990045">
<time>2016-10-07T10:47:36Z</time></trkpt>
<trkpt lat="28.391925" lon="98.989906">
<time>2016-10-07T10:47:37Z</time></trkpt>
<trkpt lat="28.391865" lon="98.989856">
<time>2016-10-07T10:47:38Z</time></trkpt>
<trkpt lat="28.391785" lon="98.989766">
<time>2016-10-07T10:47:39Z</time></trkpt>
<trkpt lat="28.391715" lon="98.989657">
<time>2016-10-07T10:47:40Z</time></trkpt>
<trkpt lat="28.391616" lon="98.989467">
<time>2016-10-07T10:47:41Z</time></trkpt>
<trkpt lat="28.391546" lon="98.989308">
<time>2016-10-07T10:47:42Z</time></trkpt>
<trkpt lat="28.391527" lon="98.989238">
<time>2016-10-07T10:47:43Z</time></trkpt>
<trkpt lat="28.391517" lon="98.989169">
<time>2016-10-07T10:47:44Z</time></trkpt>
<trkpt lat="28.391527" lon="98.989069">
<time>2016-10-07T10:47:45Z</time></trkpt>
<trkpt lat="28.391547" lon="98.988979">
<time>2016-10-07T10:47:46Z</time></trkpt>
<trkpt lat="28.391588" lon="98.98886">
<time>2016-10-07T10:47:47Z</time></trkpt>
<trkpt lat="28.391638" lon="98.988711">
<time>2016-10-07T10:47:48Z</time></trkpt>
<trkpt lat="28.391678" lon="98.988631">
<time>2016-10-07T10:47:49Z</time></trkpt>
<trkpt lat="28.391709" lon="98.988591">
<time>2016-10-07T10:47:50Z</time></trkpt>
<trkpt lat="28.391749" lon="98.988551">
<time>2016-10-07T10:47:51Z</time></trkpt>
<trkpt lat="28.391789" lon="98.988521">
<time>2016-10-07T10:47:52Z</time></trkpt>
<trkpt lat="28.391859" lon="98.988492">
<time>2016-10-07T10:47:53Z</time></trkpt>
<trkpt lat="28.391929" lon="98.988472">
<time>2016-10-07T10:47:54Z</time></trkpt>
<trkpt lat="28.392049" lon="98.988452">
<time>2016-10-07T10:47:55Z</time></trkpt>
<trkpt lat="28.392219" lon="98.988422">
<time>2016-10-07T10:47:56Z</time></trkpt>
<trkpt lat="28.392389" lon="98.988402">
<time>2016-10-07T10:47:57Z</time></trkpt>
<trkpt lat="28.392459" lon="98.988382">
<time>2016-10-07T10:47:58Z</time></trkpt>
<trkpt lat="28.392589" lon="98.988342">
<time>2016-10-07T10:47:59Z</time></trkpt>
<trkpt lat="28.392669" lon="98.988312">
<time>2016-10-07T10:48:00Z</time></trkpt>
<trkpt lat="28.392759" lon="98.988272">
<time>2016-10-07T10:48:01Z</time></trkpt>
<trkpt lat="28.39286" lon="98.988203">
<time>2016-10-07T10:48:02Z</time></trkpt>
<trkpt lat="28.39294" lon="98.988143">
<time>2016-10-07T10:48:03Z</time></trkpt>
<trkpt lat="28.393" lon="98.988103">
<time>2016-10-07T10:48:04Z</time></trkpt>
<trkpt lat="28.39307" lon="98.988073">
<time>2016-10-07T10:48:05Z</time></trkpt>
<trkpt lat="28.39314" lon="98.988053">
<time>2016-10-07T10:48:06Z</time></trkpt>
<trkpt lat="28.39324" lon="98.988043">
<time>2016-10-07T10:48:07Z</time></trkpt>
<trkpt lat="28.39333" lon="98.988033">
<time>2016-10-07T10:48:08Z</time></trkpt>
<trkpt lat="28.3934" lon="98.988033">
<time>2016-10-07T10:48:09Z</time></trkpt>
<trkpt lat="28.39346" lon="98.988024">
<time>2016-10-07T10:48:10Z</time></trkpt>
<trkpt lat="28.39352" lon="98.988014">
<time>2016-10-07T10:48:11Z</time></trkpt>
<trkpt lat="28.39358" lon="98.988004">
<time>2016-10-07T10:48:12Z</time></trkpt>
<trkpt lat="28.39378" lon="98.987954">
<time>2016-10-07T10:48:13Z</time></trkpt>
<trkpt lat="28.39395" lon="98.987904">
<time>2016-10-07T10:48:14Z</time></trkpt>
<trkpt lat="28.39411" lon="98.987864">
<time>2016-10-07T10:48:15Z</time></trkpt>
<trkpt lat="28.39422" lon="98.987834">
<time>2016-10-07T10:48:16Z</time></trkpt>
<trkpt lat="28.39427" lon="98.987824">
<time>2016-10-07T10:48:17Z</time></trkpt>
<trkpt lat="28.39432" lon="98.987794">
<time>2016-10-07T10:48:18Z</time></trkpt>
<trkpt lat="28.394391" lon="98.987765">
<time>2016-10-07T10:48:19Z</time></trkpt>
<trkpt lat="28.394491" lon="98.987675">
<time>2016-10-07T10:48:20Z</time></trkpt>
<trkpt lat="28.394571" lon="98.987565">
<time>2016-10-07T10:48:21Z</time></trkpt>
<trkpt lat="28.394632" lon="98.987436">
<time>2016-10-07T10:48:22Z</time></trkpt>
<trkpt lat="28.394682" lon="98.987247">
<time>2016-10-07T10:48:23Z</time></trkpt>
<trkpt lat="28.394743" lon="98.986948">
<time>2016-10-07T10:48:24Z</time></trkpt>
<trkpt lat="28.394773" lon="98.986809">
<time>2016-10-07T10:48:25Z</time></trkpt>
<trkpt lat="28.394814" lon="98.986689">
<time>2016-10-07T10:48:26Z</time></trkpt>
<trkpt lat="28.394844" lon="98.986609">
<time>2016-10-07T10:48:27Z</time></trkpt>
<trkpt lat="28.394904" lon="98.98648">
<time>2016-10-07T10:48:28Z</time></trkpt>
<trkpt lat="28.394965" lon="98.986371">
<time>2016-10-07T10:48:29Z</time></trkpt>
<trkpt lat="28.395035" lon="98.986241">
<time>2016-10-07T10:48:30Z</time></trkpt>
<trkpt lat="28.395115" lon="98.986151">
<time>2016-10-07T10:48:31Z</time></trkpt>
<trkpt lat="28.395145" lon="98.986112">
<time>2016-10-07T10:48:32Z</time></trkpt>
<trkpt lat="28.395185" lon="98.986082">
<time>2016-10-07T10:48:33Z</time></trkpt>
<trkpt lat="28.395215" lon="98.986062">
<time>2016-10-07T10:48:34Z</time></trkpt>
<trkpt lat="28.395266" lon="98.986052">
<time>2016-10-07T10:48:35Z</time></trkpt>
<trkpt lat="28.395336" lon="98.986042">
<time>2016-10-07T10:48:36Z</time></trkpt>
<trkpt lat="28.395396" lon="98.986042">
<time>2016-10-07T10:48:37Z</time></trkpt>
<trkpt lat="28.395585" lon="98.986082">
<time>2016-10-07T10:48:38Z</time></trkpt>
<trkpt lat="28.395775" lon="98.986112">
<time>2016-10-07T10:48:39Z</time></trkpt>
<trkpt lat="28.395935" lon="98.986122">
<time>2016-10-07T10:48:40Z</time></trkpt>
<trkpt lat="28.396055" lon="98.986122">
<time>2016-10-07T10:48:41Z</time></trkpt>
<trkpt lat="28.396355" lon="98.986102">
<time>2016-10-07T10:48:42Z</time></trkpt>
<trkpt lat="28.396655" lon="98.986072">
<time>2016-10-07T10:48:43Z</time></trkpt>
<trkpt lat="28.396785" lon="98.986052">
<time>2016-10-07T10:48:44Z</time></trkpt>
<trkpt lat="28.396865" lon="98.986022">
<time>2016-10-07T10:48:45Z</time></trkpt>
<trkpt lat="28.396915" lon="98.986012">
<time>2016-10-07T10:48:46Z</time></trkpt>
<trkpt lat="28.397015" lon="98.985972">
<time>2016-10-07T10:48:47Z</time></trkpt>
<trkpt lat="28.397116" lon="98.985932">
<time>2016-10-07T10:48:48Z</time></trkpt>
<trkpt lat="28.397246" lon="98.985883">
<time>2016-10-07T10:48:49Z</time></trkpt>
<trkpt lat="28.397356" lon="98.985843">
<time>2016-10-07T10:48:50Z</time></trkpt>
<trkpt lat="28.397416" lon="98.985843">
<time>2016-10-07T10:48:51Z</time></trkpt>
<trkpt lat="28.397496" lon="98.985843">
<time>2016-10-07T10:48:52Z</time></trkpt>
<trkpt lat="28.397606" lon="98.985863">
<time>2016-10-07T10:48:53Z</time></trkpt>
<trkpt lat="28.397766" lon="98.985873">
<time>2016-10-07T10:48:54Z</time></trkpt>
<trkpt lat="28.397926" lon="98.985853">
<time>2016-10-07T10:48:55Z</time></trkpt>
<trkpt lat="28.398146" lon="98.985763">
<time>2016-10-07T10:48:56Z</time></trkpt>
<trkpt lat="28.398476" lon="98.985653">
<time>2016-10-07T10:48:57Z</time></trkpt>
<trkpt lat="28.398566" lon="98.985624">
<time>2016-10-07T10:48:58Z</time></trkpt>
<trkpt lat="28.398596" lon="98.985604">
<time>2016-10-07T10:48:59Z</time></trkpt>
<trkpt lat="28.398636" lon="98.985584">
<time>2016-10-07T10:49:00Z</time></trkpt>
<trkpt lat="28.398666" lon="98.985554">
<time>2016-10-07T10:49:01Z</time></trkpt>
<trkpt lat="28.398686" lon="98.985534">
<time>2016-10-07T10:49:02Z</time></trkpt>
<trkpt lat="28.398706" lon="98.985504">
<time>2016-10-07T10:49:03Z</time></trkpt>
<trkpt lat="28.398727" lon="98.985474">
<time>2016-10-07T10:49:04Z</time></trkpt>
<trkpt lat="28.398727" lon="98.985434">
<time>2016-10-07T10:49:05Z</time></trkpt>
<trkpt lat="28.398737" lon="98.985405">
<time>2016-10-07T10:49:06Z</time></trkpt>
<trkpt lat="28.398737" lon="98.985375">
<time>2016-10-07T10:49:07Z</time></trkpt>
<trkpt lat="28.398737" lon="98.985335">
<time>2016-10-07T10:49:08Z</time></trkpt>
<trkpt lat="28.398727" lon="98.985295">
<time>2016-10-07T10:49:09Z</time></trkpt>
<trkpt lat="28.398707" lon="98.985235">
<time>2016-10-07T10:49:10Z</time></trkpt>
<trkpt lat="28.398658" lon="98.985106">
<time>2016-10-07T10:49:11Z</time></trkpt>
<trkpt lat="28.398588" lon="98.984946">
<time>2016-10-07T10:49:12Z</time></trkpt>
<trkpt lat="28.398578" lon="98.984907">
<time>2016-10-07T10:49:13Z</time></trkpt>
<trkpt lat="28.398578" lon="98.984877">
<time>2016-10-07T10:49:14Z</time></trkpt>
<trkpt lat="28.398568" lon="98.984857">
<time>2016-10-07T10:49:15Z</time></trkpt>
<trkpt lat="28.398569" lon="98.984797">
<time>2016-10-07T10:49:16Z</time></trkpt>
<trkpt lat="28.398559" lon="98.984707">
<time>2016-10-07T10:49:17Z</time></trkpt>
<trkpt lat="28.398579" lon="98.984628">
<time>2016-10-07T10:49:18Z</time></trkpt>
<trkpt lat="28.398599" lon="98.984538">
<time>2016-10-07T10:49:19Z</time></trkpt>
<trkpt lat="28.398639" lon="98.984488">
<time>2016-10-07T10:49:20Z</time></trkpt>
<trkpt lat="28.39865" lon="98.984478">
<time>2016-10-07T10:49:21Z</time></trkpt>
<trkpt lat="28.39866" lon="98.984468">
<time>2016-10-07T10:49:22Z</time></trkpt>
<trkpt lat="28.39868" lon="98.984449">
<time>2016-10-07T10:49:23Z</time></trkpt>
<trkpt lat="28.39872" lon="98.984429">
<time>2016-10-07T10:49:24Z</time></trkpt>
<trkpt lat="28.39876" lon="98.984409">
<time>2016-10-07T10:49:25Z</time></trkpt>
<trkpt lat="28.39886" lon="98.984389">
<time>2016-10-07T10:49:26Z</time></trkpt>
<trkpt lat="28.39901" lon="98.984379">
<time>2016-10-07T10:49:27Z</time></trkpt>
<trkpt lat="28.39916" lon="98.984379">
<time>2016-10-07T10:49:28Z</time></trkpt>
<trkpt lat="28.39931" lon="98.984389">
<time>2016-10-07T10:49:29Z</time></trkpt>
<trkpt lat="28.399459" lon="98.984439">
<time>2016-10-07T10:49:30Z</time></trkpt>
<trkpt lat="28.399629" lon="98.984488">
<time>2016-10-07T10:49:31Z</time></trkpt>
<trkpt lat="28.399869" lon="98.984608">
<time>2016-10-07T10:49:32Z</time></trkpt>
<trkpt lat="28.399989" lon="98.984668">
<time>2016-10-07T10:49:33Z</time></trkpt>
<trkpt lat="28.400239" lon="98.984707">
<time>2016-10-07T10:49:34Z</time></trkpt>
<trkpt lat="28.400688" lon="98.984747">
<time>2016-10-07T10:49:35Z</time></trkpt>
<trkpt lat="28.400778" lon="98.984747">
<time>2016-10-07T10:49:36Z</time></trkpt>
<trkpt lat="28.400858" lon="98.984727">
<time>2016-10-07T10:49:37Z</time></trkpt>
<trkpt lat="28.400948" lon="98.984697">
<time>2016-10-07T10:49:38Z</time></trkpt>
<trkpt lat="28.401019" lon="98.984638">
<time>2016-10-07T10:49:39Z</time></trkpt>
<trkpt lat="28.401119" lon="98.984548">
<time>2016-10-07T10:49:40Z</time></trkpt>
<trkpt lat="28.401219" lon="98.984448">
<time>2016-10-07T10:49:41Z</time></trkpt>
<trkpt lat="28.401279" lon="98.984319">
<time>2016-10-07T10:49:42Z</time></trkpt>
<trkpt lat="28.40129" lon="98.98413">
<time>2016-10-07T10:49:43Z</time></trkpt>
<trkpt lat="28.401291" lon="98.983941">
<time>2016-10-07T10:49:44Z</time></trkpt>
<trkpt lat="28.401271" lon="98.983732">
<time>2016-10-07T10:49:45Z</time></trkpt>
<trkpt lat="28.401223" lon="98.983293">
<time>2016-10-07T10:49:46Z</time></trkpt>
<trkpt lat="28.401183" lon="98.983054">
<time>2016-10-07T10:49:47Z</time></trkpt>
<trkpt lat="28.401154" lon="98.982825">
<time>2016-10-07T10:49:48Z</time></trkpt>
<trkpt lat="28.401124" lon="98.982626">
<time>2016-10-07T10:49:49Z</time></trkpt>
<trkpt lat="28.401115" lon="98.982487">
<time>2016-10-07T10:49:50Z</time></trkpt>
<trkpt lat="28.401125" lon="98.982407">
<time>2016-10-07T10:49:51Z</time></trkpt>
<trkpt lat="28.401145" lon="98.982357">
<time>2016-10-07T10:49:52Z</time></trkpt>
<trkpt lat="28.401186" lon="98.982228">
<time>2016-10-07T10:49:53Z</time></trkpt>
<trkpt lat="28.401256" lon="98.982118">
<time>2016-10-07T10:49:54Z</time></trkpt>
<trkpt lat="28.401306" lon="98.981999">
<time>2016-10-07T10:49:55Z</time></trkpt>
<trkpt lat="28.401327" lon="98.981889">
<time>2016-10-07T10:49:56Z</time></trkpt>
<trkpt lat="28.401327" lon="98.98179">
<time>2016-10-07T10:49:57Z</time></trkpt>
<trkpt lat="28.401327" lon="98.98166">
<time>2016-10-07T10:49:58Z</time></trkpt>
<trkpt lat="28.401338" lon="98.981561">
<time>2016-10-07T10:49:59Z</time></trkpt>
<trkpt lat="28.401358" lon="98.981491">
<time>2016-10-07T10:50:00Z</time></trkpt>
<trkpt lat="28.401408" lon="98.981441">
<time>2016-10-07T10:50:01Z</time></trkpt>
<trkpt lat="28.401458" lon="98.981421">
<time>2016-10-07T10:50:02Z</time></trkpt>
<trkpt lat="28.401488" lon="98.981421">
<time>2016-10-07T10:50:03Z</time></trkpt>
<trkpt lat="28.401528" lon="98.981431">
<time>2016-10-07T10:50:04Z</time></trkpt>
<trkpt lat="28.401558" lon="98.981451">
<time>2016-10-07T10:50:05Z</time></trkpt>
<trkpt lat="28.401578" lon="98.981471">
<time>2016-10-07T10:50:06Z</time></trkpt>
<trkpt lat="28.401598" lon="98.981501">
<time>2016-10-07T10:50:07Z</time></trkpt>
<trkpt lat="28.401618" lon="98.981551">
<time>2016-10-07T10:50:08Z</time></trkpt>
<trkpt lat="28.401617" lon="98.9816">
<time>2016-10-07T10:50:09Z</time></trkpt>
<trkpt lat="28.401617" lon="98.98166">
<time>2016-10-07T10:50:10Z</time></trkpt>
<trkpt lat="28.401597" lon="98.98175">
<time>2016-10-07T10:50:11Z</time></trkpt>
<trkpt lat="28.401567" lon="98.981859">
<time>2016-10-07T10:50:12Z</time></trkpt>
<trkpt lat="28.401536" lon="98.981969">
<time>2016-10-07T10:50:13Z</time></trkpt>
<trkpt lat="28.401496" lon="98.982068">
<time>2016-10-07T10:50:14Z</time></trkpt>
<trkpt lat="28.401456" lon="98.982158">
<time>2016-10-07T10:50:15Z</time></trkpt>
<trkpt lat="28.401406" lon="98.982238">
<time>2016-10-07T10:50:16Z</time></trkpt>
<trkpt lat="28.401375" lon="98.982327">
<time>2016-10-07T10:50:17Z</time></trkpt>
<trkpt lat="28.401365" lon="98.982397">
<time>2016-10-07T10:50:18Z</time></trkpt>
<trkpt lat="28.401365" lon="98.982477">
<time>2016-10-07T10:50:19Z</time></trkpt>
<trkpt lat="28.401385" lon="98.982576">
<time>2016-10-07T10:50:20Z</time></trkpt>
<trkpt lat="28.401424" lon="98.982686">
<time>2016-10-07T10:50:21Z</time></trkpt>
<trkpt lat="28.401563" lon="98.982945">
<time>2016-10-07T10:50:22Z</time></trkpt>
<trkpt lat="28.402011" lon="98.983851">
<time>2016-10-07T10:50:23Z</time></trkpt>
<trkpt lat="28.40219" lon="98.98419">
<time>2016-10-07T10:50:24Z</time></trkpt>
<trkpt lat="28.402319" lon="98.984439">
<time>2016-10-07T10:50:25Z</time></trkpt>
<trkpt lat="28.402428" lon="98.984727">
<time>2016-10-07T10:50:26Z</time></trkpt>
<trkpt lat="28.402448" lon="98.984827">
<time>2016-10-07T10:50:27Z</time></trkpt>
<trkpt lat="28.402448" lon="98.984897">
<time>2016-10-07T10:50:28Z</time></trkpt>
<trkpt lat="28.402457" lon="98.984996">
<time>2016-10-07T10:50:29Z</time></trkpt>
<trkpt lat="28.402467" lon="98.985096">
<time>2016-10-07T10:50:30Z</time></trkpt>
<trkpt lat="28.402457" lon="98.985215">
<time>2016-10-07T10:50:31Z</time></trkpt>
<trkpt lat="28.402456" lon="98.985265">
<time>2016-10-07T10:50:32Z</time></trkpt>
<trkpt lat="28.402446" lon="98.985305">
<time>2016-10-07T10:50:33Z</time></trkpt>
<trkpt lat="28.402426" lon="98.985345">
<time>2016-10-07T10:50:34Z</time></trkpt>
<trkpt lat="28.402416" lon="98.985385">
<time>2016-10-07T10:50:35Z</time></trkpt>
<trkpt lat="28.402376" lon="98.985444">
<time>2016-10-07T10:50:36Z</time></trkpt>
<trkpt lat="28.402306" lon="98.985504">
<time>2016-10-07T10:50:37Z</time></trkpt>
<trkpt lat="28.402246" lon="98.985534">
<time>2016-10-07T10:50:38Z</time></trkpt>
<trkpt lat="28.402156" lon="98.985554">
<time>2016-10-07T10:50:39Z</time></trkpt>
<trkpt lat="28.402096" lon="98.985564">
<time>2016-10-07T10:50:40Z</time></trkpt>
<trkpt lat="28.402026" lon="98.985584">
<time>2016-10-07T10:50:41Z</time></trkpt>
<trkpt lat="28.401776" lon="98.985594">
<time>2016-10-07T10:50:42Z</time></trkpt>
<trkpt lat="28.401716" lon="98.985604">
<time>2016-10-07T10:50:43Z</time></trkpt>
<trkpt lat="28.401686" lon="98.985624">
<time>2016-10-07T10:50:44Z</time></trkpt>
<trkpt lat="28.401666" lon="98.985633">
<time>2016-10-07T10:50:45Z</time></trkpt>
<trkpt lat="28.401666" lon="98.985633">
<time>2016-10-07T10:50:46Z</time></trkpt>
<trkpt lat="28.401665" lon="98.985663">
<time>2016-10-07T10:50:47Z</time></trkpt>
<trkpt lat="28.401665" lon="98.985673">
<time>2016-10-07T10:50:48Z</time></trkpt>
<trkpt lat="28.401665" lon="98.985693">
<time>2016-10-07T10:50:49Z</time></trkpt>
<trkpt lat="28.401675" lon="98.985703">
<time>2016-10-07T10:50:50Z</time></trkpt>
<trkpt lat="28.401685" lon="98.985713">
<time>2016-10-07T10:50:51Z</time></trkpt>
<trkpt lat="28.401705" lon="98.985733">
<time>2016-10-07T10:50:52Z</time></trkpt>
<trkpt lat="28.401745" lon="98.985753">
<time>2016-10-07T10:50:53Z</time></trkpt>
<trkpt lat="28.401795" lon="98.985763">
<time>2016-10-07T10:50:54Z</time></trkpt>
<trkpt lat="28.401875" lon="98.985783">
<time>2016-10-07T10:50:55Z</time></trkpt>
<trkpt lat="28.401985" lon="98.985783">
<time>2016-10-07T10:50:56Z</time></trkpt>
<trkpt lat="28.402105" lon="98.985773">
<time>2016-10-07T10:50:57Z</time></trkpt>
<trkpt lat="28.402195" lon="98.985753">
<time>2016-10-07T10:50:58Z</time></trkpt>
<trkpt lat="28.402255" lon="98.985713">
<time>2016-10-07T10:50:59Z</time></trkpt>
<trkpt lat="28.402325" lon="98.985673">
<time>2016-10-07T10:51:00Z</time></trkpt>
<trkpt lat="28.402395" lon="98.985604">
<time>2016-10-07T10:51:01Z</time></trkpt>
<trkpt lat="28.402486" lon="98.985514">
<time>2016-10-07T10:51:02Z</time></trkpt>
<trkpt lat="28.402526" lon="98.985444">
<time>2016-10-07T10:51:03Z</time></trkpt>
<trkpt lat="28.402606" lon="98.985275">
<time>2016-10-07T10:51:04Z</time></trkpt>
<trkpt lat="28.402697" lon="98.984986">
<time>2016-10-07T10:51:05Z</time></trkpt>
<trkpt lat="28.402768" lon="98.984827">
<time>2016-10-07T10:51:06Z</time></trkpt>
<trkpt lat="28.402828" lon="98.984747">
<time>2016-10-07T10:51:07Z</time></trkpt>
<trkpt lat="28.402898" lon="98.984677">
<time>2016-10-07T10:51:08Z</time></trkpt>
<trkpt lat="28.402948" lon="98.984648">
<time>2016-10-07T10:51:09Z</time></trkpt>
<trkpt lat="28.403008" lon="98.984638">
<time>2016-10-07T10:51:10Z</time></trkpt>
<trkpt lat="28.403078" lon="98.984638">
<time>2016-10-07T10:51:11Z</time></trkpt>
<trkpt lat="28.403128" lon="98.984648">
<time>2016-10-07T10:51:12Z</time></trkpt>
<trkpt lat="28.403188" lon="98.984687">
<time>2016-10-07T10:51:13Z</time></trkpt>
<trkpt lat="28.403238" lon="98.984727">
<time>2016-10-07T10:51:14Z</time></trkpt>
<trkpt lat="28.403268" lon="98.984767">
<time>2016-10-07T10:51:15Z</time></trkpt>
<trkpt lat="28.403288" lon="98.984807">
<time>2016-10-07T10:51:16Z</time></trkpt>
<trkpt lat="28.403307" lon="98.984867">
<time>2016-10-07T10:51:17Z</time></trkpt>
<trkpt lat="28.403317" lon="98.984936">
<time>2016-10-07T10:51:18Z</time></trkpt>
<trkpt lat="28.403307" lon="98.985006">
<time>2016-10-07T10:51:19Z</time></trkpt>
<trkpt lat="28.403287" lon="98.985096">
<time>2016-10-07T10:51:20Z</time></trkpt>
<trkpt lat="28.403257" lon="98.985146">
<time>2016-10-07T10:51:21Z</time></trkpt>
<trkpt lat="28.403216" lon="98.985225">
<time>2016-10-07T10:51:22Z</time></trkpt>
<trkpt lat="28.403146" lon="98.985305">
<time>2016-10-07T10:51:23Z</time></trkpt>
<trkpt lat="28.402996" lon="98.985464">
<time>2016-10-07T10:51:24Z</time></trkpt>
<trkpt lat="28.402635" lon="98.985823">
<time>2016-10-07T10:51:25Z</time></trkpt>
<trkpt lat="28.401732" lon="98.986759">
<time>2016-10-07T10:51:26Z</time></trkpt>
<trkpt lat="28.401341" lon="98.987187">
<time>2016-10-07T10:51:27Z</time></trkpt>
<trkpt lat="28.400849" lon="98.987705">
<time>2016-10-07T10:51:28Z</time></trkpt>
<trkpt lat="28.400498" lon="98.988073">
<time>2016-10-07T10:51:29Z</time></trkpt>
<trkpt lat="28.400358" lon="98.988213">
<time>2016-10-07T10:51:30Z</time></trkpt>
<trkpt lat="28.400278" lon="98.988292">
<time>2016-10-07T10:51:31Z</time></trkpt>
<trkpt lat="28.400067" lon="98.988471">
<time>2016-10-07T10:51:32Z</time></trkpt>
<trkpt lat="28.399747" lon="98.988661">
<time>2016-10-07T10:51:33Z</time></trkpt>
<trkpt lat="28.399587" lon="98.98877">
<time>2016-10-07T10:51:34Z</time></trkpt>
<trkpt lat="28.399456" lon="98.98888">
<time>2016-10-07T10:51:35Z</time></trkpt>
<trkpt lat="28.399296" lon="98.989049">
<time>2016-10-07T10:51:36Z</time></trkpt>
<trkpt lat="28.399175" lon="98.989248">
<time>2016-10-07T10:51:37Z</time></trkpt>
<trkpt lat="28.399045" lon="98.989477">
<time>2016-10-07T10:51:38Z</time></trkpt>
<trkpt lat="28.398964" lon="98.989607">
<time>2016-10-07T10:51:39Z</time></trkpt>
<trkpt lat="28.398844" lon="98.989766">
<time>2016-10-07T10:51:40Z</time></trkpt>
<trkpt lat="28.398723" lon="98.989856">
<time>2016-10-07T10:51:41Z</time></trkpt>
<trkpt lat="28.398613" lon="98.989915">
<time>2016-10-07T10:51:42Z</time></trkpt>
<trkpt lat="28.398463" lon="98.989965">
<time>2016-10-07T10:51:43Z</time></trkpt>
<trkpt lat="28.398333" lon="98.989985">
<time>2016-10-07T10:51:44Z</time></trkpt>
<trkpt lat="28.398233" lon="98.990005">
<time>2016-10-07T10:51:45Z</time></trkpt>
<trkpt lat="28.398023" lon="98.990045">
<time>2016-10-07T10:51:46Z</time></trkpt>
<trkpt lat="28.397983" lon="98.990065">
<time>2016-10-07T10:51:47Z</time></trkpt>
<trkpt lat="28.397933" lon="98.990095">
<time>2016-10-07T10:51:48Z</time></trkpt>
<trkpt lat="28.397873" lon="98.990144">
<time>2016-10-07T10:51:49Z</time></trkpt>
<trkpt lat="28.397843" lon="98.990194">
<time>2016-10-07T10:51:50Z</time></trkpt>
<trkpt lat="28.397812" lon="98.990264">
<time>2016-10-07T10:51:51Z</time></trkpt>
<trkpt lat="28.397792" lon="98.990334">
<time>2016-10-07T10:51:52Z</time></trkpt>
<trkpt lat="28.397792" lon="98.990383">
<time>2016-10-07T10:51:53Z</time></trkpt>
<trkpt lat="28.397802" lon="98.990423">
<time>2016-10-07T10:51:54Z</time></trkpt>
<trkpt lat="28.397822" lon="98.990473">
<time>2016-10-07T10:51:55Z</time></trkpt>
<trkpt lat="28.397842" lon="98.990503">
<time>2016-10-07T10:51:56Z</time></trkpt>
<trkpt lat="28.397862" lon="98.990533">
<time>2016-10-07T10:51:57Z</time></trkpt>
<trkpt lat="28.397901" lon="98.990573">
<time>2016-10-07T10:51:58Z</time></trkpt>
<trkpt lat="28.397921" lon="98.990583">
<time>2016-10-07T10:51:59Z</time></trkpt>
<trkpt lat="28.397961" lon="98.990602">
<time>2016-10-07T10:52:00Z</time></trkpt>
<trkpt lat="28.398011" lon="98.990612">
<time>2016-10-07T10:52:01Z</time></trkpt>
<trkpt lat="28.398051" lon="98.990612">
<time>2016-10-07T10:52:02Z</time></trkpt>
<trkpt lat="28.398121" lon="98.990602">
<time>2016-10-07T10:52:03Z</time></trkpt>
<trkpt lat="28.398211" lon="98.990573">
<time>2016-10-07T10:52:04Z</time></trkpt>
<trkpt lat="28.398302" lon="98.990513">
<time>2016-10-07T10:52:05Z</time></trkpt>
<trkpt lat="28.398492" lon="98.990344">
<time>2016-10-07T10:52:06Z</time></trkpt>
<trkpt lat="28.398582" lon="98.990274">
<time>2016-10-07T10:52:07Z</time></trkpt>
<trkpt lat="28.398692" lon="98.990204">
<time>2016-10-07T10:52:08Z</time></trkpt>
<trkpt lat="28.398773" lon="98.990154">
<time>2016-10-07T10:52:09Z</time></trkpt>
<trkpt lat="28.398913" lon="98.990095">
<time>2016-10-07T10:52:10Z</time></trkpt>
<trkpt lat="28.399103" lon="98.990035">
<time>2016-10-07T10:52:11Z</time></trkpt>
<trkpt lat="28.399363" lon="98.989955">
<time>2016-10-07T10:52:12Z</time></trkpt>
<trkpt lat="28.399913" lon="98.989806">
<time>2016-10-07T10:52:13Z</time></trkpt>
<trkpt lat="28.400724" lon="98.989607">
<time>2016-10-07T10:52:14Z</time></trkpt>
<trkpt lat="28.401134" lon="98.989487">
<time>2016-10-07T10:52:15Z</time></trkpt>
<trkpt lat="28.401464" lon="98.989388">
<time>2016-10-07T10:52:16Z</time></trkpt>
<trkpt lat="28.401624" lon="98.989328">
<time>2016-10-07T10:52:17Z</time></trkpt>
<trkpt lat="28.401755" lon="98.989258">
<time>2016-10-07T10:52:18Z</time></trkpt>
<trkpt lat="28.401915" lon="98.989139">
<time>2016-10-07T10:52:19Z</time></trkpt>
<trkpt lat="28.402055" lon="98.988989">
<time>2016-10-07T10:52:20Z</time></trkpt>
<trkpt lat="28.402166" lon="98.98885">
<time>2016-10-07T10:52:21Z</time></trkpt>
<trkpt lat="28.402317" lon="98.988581">
<time>2016-10-07T10:52:22Z</time></trkpt>
<trkpt lat="28.402417" lon="98.988302">
<time>2016-10-07T10:52:23Z</time></trkpt>
<trkpt lat="28.402468" lon="98.988103">
<time>2016-10-07T10:52:24Z</time></trkpt>
<trkpt lat="28.402508" lon="98.987974">
<time>2016-10-07T10:52:25Z</time></trkpt>
<trkpt lat="28.402539" lon="98.987884">
<time>2016-10-07T10:52:26Z</time></trkpt>
<trkpt lat="28.402579" lon="98.987804">
<time>2016-10-07T10:52:27Z</time></trkpt>
<trkpt lat="28.402629" lon="98.987725">
<time>2016-10-07T10:52:28Z</time></trkpt>
<trkpt lat="28.402729" lon="98.987635">
<time>2016-10-07T10:52:29Z</time></trkpt>
<trkpt lat="28.402769" lon="98.987605">
<time>2016-10-07T10:52:30Z</time></trkpt>
<trkpt lat="28.402819" lon="98.987575">
<time>2016-10-07T10:52:31Z</time></trkpt>
<trkpt lat="28.40289" lon="98.987545">
<time>2016-10-07T10:52:32Z</time></trkpt>
<trkpt lat="28.40296" lon="98.987525">
<time>2016-10-07T10:52:33Z</time></trkpt>
<trkpt lat="28.40301" lon="98.987515">
<time>2016-10-07T10:52:34Z</time></trkpt>
<trkpt lat="28.40308" lon="98.987515">
<time>2016-10-07T10:52:35Z</time></trkpt>
<trkpt lat="28.40316" lon="98.987525">
<time>2016-10-07T10:52:36Z</time></trkpt>
<trkpt lat="28.403279" lon="98.987565">
<time>2016-10-07T10:52:37Z</time></trkpt>
<trkpt lat="28.403519" lon="98.987665">
<time>2016-10-07T10:52:38Z</time></trkpt>
<trkpt lat="28.403669" lon="98.987725">
<time>2016-10-07T10:52:39Z</time></trkpt>
<trkpt lat="28.403779" lon="98.987754">
<time>2016-10-07T10:52:40Z</time></trkpt>
<trkpt lat="28.403889" lon="98.987774">
<time>2016-10-07T10:52:41Z</time></trkpt>
<trkpt lat="28.404009" lon="98.987774">
<time>2016-10-07T10:52:42Z</time></trkpt>
<trkpt lat="28.404139" lon="98.987744">
<time>2016-10-07T10:52:43Z</time></trkpt>
<trkpt lat="28.404289" lon="98.987685">
<time>2016-10-07T10:52:44Z</time></trkpt>
<trkpt lat="28.404429" lon="98.987605">
<time>2016-10-07T10:52:45Z</time></trkpt>
<trkpt lat="28.404579" lon="98.987476">
<time>2016-10-07T10:52:46Z</time></trkpt>
<trkpt lat="28.405001" lon="98.987057">
<time>2016-10-07T10:52:47Z</time></trkpt>
<trkpt lat="28.405231" lon="98.986858">
<time>2016-10-07T10:52:48Z</time></trkpt>
<trkpt lat="28.405341" lon="98.986769">
<time>2016-10-07T10:52:49Z</time></trkpt>
<trkpt lat="28.405542" lon="98.986599">
<time>2016-10-07T10:52:50Z</time></trkpt>
<trkpt lat="28.405662" lon="98.9865">
<time>2016-10-07T10:52:51Z</time></trkpt>
<trkpt lat="28.405752" lon="98.98639">
<time>2016-10-07T10:52:52Z</time></trkpt>
<trkpt lat="28.405823" lon="98.986281">
<time>2016-10-07T10:52:53Z</time></trkpt>
<trkpt lat="28.405873" lon="98.986161">
<time>2016-10-07T10:52:54Z</time></trkpt>
<trkpt lat="28.405913" lon="98.986062">
<time>2016-10-07T10:52:55Z</time></trkpt>
<trkpt lat="28.405934" lon="98.985962">
<time>2016-10-07T10:52:56Z</time></trkpt>
<trkpt lat="28.405964" lon="98.985862">
<time>2016-10-07T10:52:57Z</time></trkpt>
<trkpt lat="28.405984" lon="98.985763">
<time>2016-10-07T10:52:58Z</time></trkpt>
<trkpt lat="28.406005" lon="98.985653">
<time>2016-10-07T10:52:59Z</time></trkpt>
<trkpt lat="28.406035" lon="98.985554">
<time>2016-10-07T10:53:00Z</time></trkpt>
<trkpt lat="28.406055" lon="98.985504">
<time>2016-10-07T10:53:01Z</time></trkpt>
<trkpt lat="28.406105" lon="98.985444">
<time>2016-10-07T10:53:02Z</time></trkpt>
<trkpt lat="28.406155" lon="98.985404">
<time>2016-10-07T10:53:03Z</time></trkpt>
<trkpt lat="28.406205" lon="98.985374">
<time>2016-10-07T10:53:04Z</time></trkpt>
<trkpt lat="28.406265" lon="98.985365">
<time>2016-10-07T10:53:05Z</time></trkpt>
<trkpt lat="28.406335" lon="98.985355">
<time>2016-10-07T10:53:06Z</time></trkpt>
<trkpt lat="28.406365" lon="98.985365">
<time>2016-10-07T10:53:07Z</time></trkpt>
<trkpt lat="28.406415" lon="98.985384">
<time>2016-10-07T10:53:08Z</time></trkpt>
<trkpt lat="28.406465" lon="98.985424">
<time>2016-10-07T10:53:09Z</time></trkpt>
<trkpt lat="28.406515" lon="98.985474">
<time>2016-10-07T10:53:10Z</time></trkpt>
<trkpt lat="28.406545" lon="98.985544">
<time>2016-10-07T10:53:11Z</time></trkpt>
<trkpt lat="28.406565" lon="98.985613">
<time>2016-10-07T10:53:12Z</time></trkpt>
<trkpt lat="28.406564" lon="98.985723">
<time>2016-10-07T10:53:13Z</time></trkpt>
<trkpt lat="28.406554" lon="98.985793">
<time>2016-10-07T10:53:14Z</time></trkpt>
<trkpt lat="28.406524" lon="98.985872">
<time>2016-10-07T10:53:15Z</time></trkpt>
<trkpt lat="28.406474" lon="98.985962">
<time>2016-10-07T10:53:16Z</time></trkpt>
<trkpt lat="28.406373" lon="98.986121">
<time>2016-10-07T10:53:17Z</time></trkpt>
<trkpt lat="28.406202" lon="98.98634">
<time>2016-10-07T10:53:18Z</time></trkpt>
<trkpt lat="28.405951" lon="98.986739">
<time>2016-10-07T10:53:19Z</time></trkpt>
<trkpt lat="28.40573" lon="98.987127">
<time>2016-10-07T10:53:20Z</time></trkpt>
<trkpt lat="28.405559" lon="98.987476">
<time>2016-10-07T10:53:21Z</time></trkpt>
<trkpt lat="28.405499" lon="98.987605">
<time>2016-10-07T10:53:22Z</time></trkpt>
<trkpt lat="28.405459" lon="98.987715">
<time>2016-10-07T10:53:23Z</time></trkpt>
<trkpt lat="28.405398" lon="98.987874">
<time>2016-10-07T10:53:24Z</time></trkpt>
<trkpt lat="28.405328" lon="98.988023">
<time>2016-10-07T10:53:25Z</time></trkpt>
<trkpt lat="28.405297" lon="98.988093">
<time>2016-10-07T10:53:26Z</time></trkpt>
<trkpt lat="28.405247" lon="98.988183">
<time>2016-10-07T10:53:27Z</time></trkpt>
<trkpt lat="28.405177" lon="98.988242">
<time>2016-10-07T10:53:28Z</time></trkpt>
<trkpt lat="28.405127" lon="98.988292">
<time>2016-10-07T10:53:29Z</time></trkpt>
<trkpt lat="28.405057" lon="98.988332">
<time>2016-10-07T10:53:30Z</time></trkpt>
<trkpt lat="28.404997" lon="98.988372">
<time>2016-10-07T10:53:31Z</time></trkpt>
<trkpt lat="28.404897" lon="98.988392">
<time>2016-10-07T10:53:32Z</time></trkpt>
<trkpt lat="28.404797" lon="98.988402">
<time>2016-10-07T10:53:33Z</time></trkpt>
<trkpt lat="28.404717" lon="98.988392">
<time>2016-10-07T10:53:34Z</time></trkpt>
<trkpt lat="28.404647" lon="98.988382">
<time>2016-10-07T10:53:35Z</time></trkpt>
<trkpt lat="28.404527" lon="98.988372">
<time>2016-10-07T10:53:36Z</time></trkpt>
<trkpt lat="28.404447" lon="98.988372">
<time>2016-10-07T10:53:37Z</time></trkpt>
<trkpt lat="28.404357" lon="98.988372">
<time>2016-10-07T10:53:38Z</time></trkpt>
<trkpt lat="28.404277" lon="98.988372">
<time>2016-10-07T10:53:39Z</time></trkpt>
<trkpt lat="28.404237" lon="98.988392">
<time>2016-10-07T10:53:40Z</time></trkpt>
<trkpt lat="28.404187" lon="98.988412">
<time>2016-10-07T10:53:41Z</time></trkpt>
<trkpt lat="28.404137" lon="98.988442">
<time>2016-10-07T10:53:42Z</time></trkpt>
<trkpt lat="28.404106" lon="98.988491">
<time>2016-10-07T10:53:43Z</time></trkpt>
<trkpt lat="28.404076" lon="98.988561">
<time>2016-10-07T10:53:44Z</time></trkpt>
<trkpt lat="28.404056" lon="98.988601">
<time>2016-10-07T10:53:45Z</time></trkpt>
<trkpt lat="28.404056" lon="98.988661">
<time>2016-10-07T10:53:46Z</time></trkpt>
<trkpt lat="28.404056" lon="98.98872">
<time>2016-10-07T10:53:47Z</time></trkpt>
<trkpt lat="28.404076" lon="98.98877">
<time>2016-10-07T10:53:48Z</time></trkpt>
<trkpt lat="28.404096" lon="98.98882">
<time>2016-10-07T10:53:49Z</time></trkpt>
<trkpt lat="28.404115" lon="98.98884">
<time>2016-10-07T10:53:50Z</time></trkpt>
<trkpt lat="28.404175" lon="98.9889">
<time>2016-10-07T10:53:51Z</time></trkpt>
<trkpt lat="28.404225" lon="98.988919">
<time>2016-10-07T10:53:52Z</time></trkpt>
<trkpt lat="28.404285" lon="98.988939">
<time>2016-10-07T10:53:53Z</time></trkpt>
<trkpt lat="28.404355" lon="98.988939">
<time>2016-10-07T10:53:54Z</time></trkpt>
<trkpt lat="28.404435" lon="98.988919">
<time>2016-10-07T10:53:55Z</time></trkpt>
<trkpt lat="28.404575" lon="98.98887">
<time>2016-10-07T10:53:56Z</time></trkpt>
<trkpt lat="28.404665" lon="98.98882">
<time>2016-10-07T10:53:57Z</time></trkpt>
<trkpt lat="28.404826" lon="98.98872">
<time>2016-10-07T10:53:58Z</time></trkpt>
<trkpt lat="28.404976" lon="98.988641">
<time>2016-10-07T10:53:59Z</time></trkpt>
<trkpt lat="28.405116" lon="98.988541">
<time>2016-10-07T10:54:00Z</time></trkpt>
<trkpt lat="28.405296" lon="98.988412">
<time>2016-10-07T10:54:01Z</time></trkpt>
<trkpt lat="28.405647" lon="98.988123">
<time>2016-10-07T10:54:02Z</time></trkpt>
<trkpt lat="28.405928" lon="98.987874">
<time>2016-10-07T10:54:03Z</time></trkpt>
<trkpt lat="28.406179" lon="98.987605">
<time>2016-10-07T10:54:04Z</time></trkpt>
<trkpt lat="28.406359" lon="98.987396">
<time>2016-10-07T10:54:05Z</time></trkpt>
<trkpt lat="28.40654" lon="98.987167">
<time>2016-10-07T10:54:06Z</time></trkpt>
<trkpt lat="28.406861" lon="98.986729">
<time>2016-10-07T10:54:07Z</time></trkpt>
<trkpt lat="28.407012" lon="98.986559">
<time>2016-10-07T10:54:08Z</time></trkpt>
<trkpt lat="28.407122" lon="98.98647">
<time>2016-10-07T10:54:09Z</time></trkpt>
<trkpt lat="28.407222" lon="98.9864">
<time>2016-10-07T10:54:10Z</time></trkpt>
<trkpt lat="28.407382" lon="98.986291">
<time>2016-10-07T10:54:11Z</time></trkpt>
<trkpt lat="28.407673" lon="98.986101">
<time>2016-10-07T10:54:12Z</time></trkpt>
<trkpt lat="28.407773" lon="98.986032">
<time>2016-10-07T10:54:13Z</time></trkpt>
<trkpt lat="28.407873" lon="98.985902">
<time>2016-10-07T10:54:14Z</time></trkpt>
<trkpt lat="28.407954" lon="98.985793">
<time>2016-10-07T10:54:15Z</time></trkpt>
<trkpt lat="28.407984" lon="98.985683">
<time>2016-10-07T10:54:16Z</time></trkpt>
<trkpt lat="28.408004" lon="98.985594">
<time>2016-10-07T10:54:17Z</time></trkpt>
<trkpt lat="28.408015" lon="98.985504">
<time>2016-10-07T10:54:18Z</time></trkpt>
<trkpt lat="28.408025" lon="98.985394">
<time>2016-10-07T10:54:19Z</time></trkpt>
<trkpt lat="28.408015" lon="98.985265">
<time>2016-10-07T10:54:20Z</time></trkpt>
<trkpt lat="28.407986" lon="98.985125">
<time>2016-10-07T10:54:21Z</time></trkpt>
<trkpt lat="28.407926" lon="98.984976">
<time>2016-10-07T10:54:22Z</time></trkpt>
<trkpt lat="28.407857" lon="98.984847">
<time>2016-10-07T10:54:23Z</time></trkpt>
<trkpt lat="28.407737" lon="98.984667">
<time>2016-10-07T10:54:24Z</time></trkpt>
<trkpt lat="28.407399" lon="98.984209">
<time>2016-10-07T10:54:25Z</time></trkpt>
<trkpt lat="28.407359" lon="98.98414">
<time>2016-10-07T10:54:26Z</time></trkpt>
<trkpt lat="28.407309" lon="98.98404">
<time>2016-10-07T10:54:27Z</time></trkpt>
<trkpt lat="28.40721" lon="98.983851">
<time>2016-10-07T10:54:28Z</time></trkpt>
<trkpt lat="28.40711" lon="98.983592">
<time>2016-10-07T10:54:29Z</time></trkpt>
<trkpt lat="28.407051" lon="98.983383">
<time>2016-10-07T10:54:30Z</time></trkpt>
<trkpt lat="28.407021" lon="98.983263">
<time>2016-10-07T10:54:31Z</time></trkpt>
<trkpt lat="28.407002" lon="98.983154">
<time>2016-10-07T10:54:32Z</time></trkpt>
<trkpt lat="28.406972" lon="98.982925">
<time>2016-10-07T10:54:33Z</time></trkpt>
<trkpt lat="28.406963" lon="98.982815">
<time>2016-10-07T10:54:34Z</time></trkpt>
<trkpt lat="28.406963" lon="98.982726">
<time>2016-10-07T10:54:35Z</time></trkpt>
<trkpt lat="28.406984" lon="98.982546">
<time>2016-10-07T10:54:36Z</time></trkpt>
<trkpt lat="28.407004" lon="98.982437">
<time>2016-10-07T10:54:37Z</time></trkpt>
<trkpt lat="28.407054" lon="98.982327">
<time>2016-10-07T10:54:38Z</time></trkpt>
<trkpt lat="28.407124" lon="98.982218">
<time>2016-10-07T10:54:39Z</time></trkpt>
<trkpt lat="28.407205" lon="98.982128">
<time>2016-10-07T10:54:40Z</time></trkpt>
<trkpt lat="28.407295" lon="98.982078">
<time>2016-10-07T10:54:41Z</time></trkpt>
<trkpt lat="28.407345" lon="98.982048">
<time>2016-10-07T10:54:42Z</time></trkpt>
<trkpt lat="28.407415" lon="98.982019">
<time>2016-10-07T10:54:43Z</time></trkpt>
<trkpt lat="28.407495" lon="98.981999">
<time>2016-10-07T10:54:44Z</time></trkpt>
<trkpt lat="28.407615" lon="98.982009">
<time>2016-10-07T10:54:45Z</time></trkpt>
<trkpt lat="28.407715" lon="98.982019">
<time>2016-10-07T10:54:46Z</time></trkpt>
<trkpt lat="28.407795" lon="98.982058">
<time>2016-10-07T10:54:47Z</time></trkpt>
<trkpt lat="28.407855" lon="98.982088">
<time>2016-10-07T10:54:48Z</time></trkpt>
<trkpt lat="28.407955" lon="98.982148">
<time>2016-10-07T10:54:49Z</time></trkpt>
<trkpt lat="28.408044" lon="98.982228">
<time>2016-10-07T10:54:50Z</time></trkpt>
<trkpt lat="28.408154" lon="98.982327">
<time>2016-10-07T10:54:51Z</time></trkpt>
<trkpt lat="28.408254" lon="98.982447">
<time>2016-10-07T10:54:52Z</time></trkpt>
<trkpt lat="28.408363" lon="98.982576">
<time>2016-10-07T10:54:53Z</time></trkpt>
<trkpt lat="28.408463" lon="98.982656">
<time>2016-10-07T10:54:54Z</time></trkpt>
<trkpt lat="28.408533" lon="98.982696">
<time>2016-10-07T10:54:55Z</time></trkpt>
<trkpt lat="28.408623" lon="98.982736">
<time>2016-10-07T10:54:56Z</time></trkpt>
<trkpt lat="28.408723" lon="98.982765">
<time>2016-10-07T10:54:57Z</time></trkpt>
<trkpt lat="28.408803" lon="98.982765">
<time>2016-10-07T10:54:58Z</time></trkpt>
<trkpt lat="28.408903" lon="98.982765">
<time>2016-10-07T10:54:59Z</time></trkpt>
<trkpt lat="28.409143" lon="98.982726">
<time>2016-10-07T10:55:00Z</time></trkpt>
<trkpt lat="28.409623" lon="98.982546">
<time>2016-10-07T10:55:01Z</time></trkpt>
<trkpt lat="28.409873" lon="98.982417">
<time>2016-10-07T10:55:02Z</time></trkpt>
<trkpt lat="28.409953" lon="98.982357">
<time>2016-10-07T10:55:03Z</time></trkpt>
<trkpt lat="28.410044" lon="98.982287">
<time>2016-10-07T10:55:04Z</time></trkpt>
<trkpt lat="28.410144" lon="98.982188">
<time>2016-10-07T10:55:05Z</time></trkpt>
<trkpt lat="28.410214" lon="98.982078">
<time>2016-10-07T10:55:06Z</time></trkpt>
<trkpt lat="28.410244" lon="98.982018">
<time>2016-10-07T10:55:07Z</time></trkpt>
<trkpt lat="28.410275" lon="98.981909">
<time>2016-10-07T10:55:08Z</time></trkpt>
<trkpt lat="28.410285" lon="98.981829">
<time>2016-10-07T10:55:09Z</time></trkpt>
<trkpt lat="28.410305" lon="98.98173">
<time>2016-10-07T10:55:10Z</time></trkpt>
<trkpt lat="28.410306" lon="98.98163">
<time>2016-10-07T10:55:11Z</time></trkpt>
<trkpt lat="28.410316" lon="98.981501">
<time>2016-10-07T10:55:12Z</time></trkpt>
<trkpt lat="28.410306" lon="98.981411">
<time>2016-10-07T10:55:13Z</time></trkpt>
<trkpt lat="28.410316" lon="98.981321">
<time>2016-10-07T10:55:14Z</time></trkpt>
<trkpt lat="28.410337" lon="98.981222">
<time>2016-10-07T10:55:15Z</time></trkpt>
<trkpt lat="28.410347" lon="98.981172">
<time>2016-10-07T10:55:16Z</time></trkpt>
<trkpt lat="28.410377" lon="98.981122">
<time>2016-10-07T10:55:17Z</time></trkpt>
<trkpt lat="28.410417" lon="98.981072">
<time>2016-10-07T10:55:18Z</time></trkpt>
<trkpt lat="28.410447" lon="98.981043">
<time>2016-10-07T10:55:19Z</time></trkpt>
<trkpt lat="28.410477" lon="98.981023">
<time>2016-10-07T10:55:20Z</time></trkpt>
<trkpt lat="28.410537" lon="98.980993">
<time>2016-10-07T10:55:21Z</time></trkpt>
<trkpt lat="28.410567" lon="98.980983">
<time>2016-10-07T10:55:22Z</time></trkpt>
<trkpt lat="28.410617" lon="98.980993">
<time>2016-10-07T10:55:23Z</time></trkpt>
<trkpt lat="28.410667" lon="98.980993">
<time>2016-10-07T10:55:24Z</time></trkpt>
<trkpt lat="28.410697" lon="98.981003">
<time>2016-10-07T10:55:25Z</time></trkpt>
<trkpt lat="28.410757" lon="98.981033">
<time>2016-10-07T10:55:26Z</time></trkpt>
<trkpt lat="28.410797" lon="98.981072">
<time>2016-10-07T10:55:27Z</time></trkpt>
<trkpt lat="28.410827" lon="98.981102">
<time>2016-10-07T10:55:28Z</time></trkpt>
<trkpt lat="28.410857" lon="98.981162">
<time>2016-10-07T10:55:29Z</time></trkpt>
<trkpt lat="28.410877" lon="98.981202">
<time>2016-10-07T10:55:30Z</time></trkpt>
<trkpt lat="28.410886" lon="98.981272">
<time>2016-10-07T10:55:31Z</time></trkpt>
<trkpt lat="28.410876" lon="98.981361">
<time>2016-10-07T10:55:32Z</time></trkpt>
<trkpt lat="28.410856" lon="98.981461">
<time>2016-10-07T10:55:33Z</time></trkpt>
<trkpt lat="28.410836" lon="98.981531">
<time>2016-10-07T10:55:34Z</time></trkpt>
<trkpt lat="28.410785" lon="98.98166">
<time>2016-10-07T10:55:35Z</time></trkpt>
<trkpt lat="28.410685" lon="98.981849">
<time>2016-10-07T10:55:36Z</time></trkpt>
<trkpt lat="28.410635" lon="98.981939">
<time>2016-10-07T10:55:37Z</time></trkpt>
<trkpt lat="28.410514" lon="98.982118">
<time>2016-10-07T10:55:38Z</time></trkpt>
<trkpt lat="28.410384" lon="98.982287">
<time>2016-10-07T10:55:39Z</time></trkpt>
<trkpt lat="28.410173" lon="98.982506">
<time>2016-10-07T10:55:40Z</time></trkpt>
<trkpt lat="28.409912" lon="98.982735">
<time>2016-10-07T10:55:41Z</time></trkpt>
<trkpt lat="28.409572" lon="98.982935">
<time>2016-10-07T10:55:42Z</time></trkpt>
<trkpt lat="28.409262" lon="98.983074">
<time>2016-10-07T10:55:43Z</time></trkpt>
<trkpt lat="28.408921" lon="98.983174">
<time>2016-10-07T10:55:44Z</time></trkpt>
<trkpt lat="28.408711" lon="98.983243">
<time>2016-10-07T10:55:45Z</time></trkpt>
<trkpt lat="28.408631" lon="98.983273">
<time>2016-10-07T10:55:46Z</time></trkpt>
<trkpt lat="28.408511" lon="98.983343">
<time>2016-10-07T10:55:47Z</time></trkpt>
<trkpt lat="28.408411" lon="98.983433">
<time>2016-10-07T10:55:48Z</time></trkpt>
<trkpt lat="28.40832" lon="98.983532">
<time>2016-10-07T10:55:49Z</time></trkpt>
<trkpt lat="28.40828" lon="98.983652">
<time>2016-10-07T10:55:50Z</time></trkpt>
<trkpt lat="28.40825" lon="98.983751">
<time>2016-10-07T10:55:51Z</time></trkpt>
<trkpt lat="28.408249" lon="98.983861">
<time>2016-10-07T10:55:52Z</time></trkpt>
<trkpt lat="28.408249" lon="98.983911">
<time>2016-10-07T10:55:53Z</time></trkpt>
<trkpt lat="28.408249" lon="98.98398">
<time>2016-10-07T10:55:54Z</time></trkpt>
<trkpt lat="28.408269" lon="98.98405">
<time>2016-10-07T10:55:55Z</time></trkpt>
<trkpt lat="28.408289" lon="98.98412">
<time>2016-10-07T10:55:56Z</time></trkpt>
<trkpt lat="28.408318" lon="98.98417">
<time>2016-10-07T10:55:57Z</time></trkpt>
<trkpt lat="28.408348" lon="98.984239">
<time>2016-10-07T10:55:58Z</time></trkpt>
<trkpt lat="28.408418" lon="98.984309">
<time>2016-10-07T10:55:59Z</time></trkpt>
<trkpt lat="28.408498" lon="98.984379">
<time>2016-10-07T10:56:00Z</time></trkpt>
<trkpt lat="28.408618" lon="98.984428">
<time>2016-10-07T10:56:01Z</time></trkpt>
<trkpt lat="28.408688" lon="98.984438">
<time>2016-10-07T10:56:02Z</time></trkpt>
<trkpt lat="28.408788" lon="98.984448">
<time>2016-10-07T10:56:03Z</time></trkpt>
<trkpt lat="28.408898" lon="98.984438">
<time>2016-10-07T10:56:04Z</time></trkpt>
<trkpt lat="28.408978" lon="98.984418">
<time>2016-10-07T10:56:05Z</time></trkpt>
<trkpt lat="28.409058" lon="98.984389">
<time>2016-10-07T10:56:06Z</time></trkpt>
<trkpt lat="28.409198" lon="98.984319">
<time>2016-10-07T10:56:07Z</time></trkpt>
<trkpt lat="28.409318" lon="98.984239">
<time>2016-10-07T10:56:08Z</time></trkpt>
<trkpt lat="28.409418" lon="98.984179">
<time>2016-10-07T10:56:09Z</time></trkpt>
<trkpt lat="28.409528" lon="98.98413">
<time>2016-10-07T10:56:10Z</time></trkpt>
<trkpt lat="28.409608" lon="98.9841">
<time>2016-10-07T10:56:11Z</time></trkpt>
<trkpt lat="28.409688" lon="98.98409">
<time>2016-10-07T10:56:12Z</time></trkpt>
<trkpt lat="28.409748" lon="98.98409">
<time>2016-10-07T10:56:13Z</time></trkpt>
<trkpt lat="28.409808" lon="98.98409">
<time>2016-10-07T10:56:14Z</time></trkpt>
<trkpt lat="28.409898" lon="98.9841">
<time>2016-10-07T10:56:15Z</time></trkpt>
<trkpt lat="28.409978" lon="98.98413">
<time>2016-10-07T10:56:16Z</time></trkpt>
<trkpt lat="28.410048" lon="98.984179">
<time>2016-10-07T10:56:17Z</time></trkpt>
<trkpt lat="28.410098" lon="98.984219">
<time>2016-10-07T10:56:18Z</time></trkpt>
<trkpt lat="28.410148" lon="98.984289">
<time>2016-10-07T10:56:19Z</time></trkpt>
<trkpt lat="28.410198" lon="98.984369">
<time>2016-10-07T10:56:20Z</time></trkpt>
<trkpt lat="28.410227" lon="98.984428">
<time>2016-10-07T10:56:21Z</time></trkpt>
<trkpt lat="28.410257" lon="98.984518">
<time>2016-10-07T10:56:22Z</time></trkpt>
<trkpt lat="28.410277" lon="98.984578">
<time>2016-10-07T10:56:23Z</time></trkpt>
<trkpt lat="28.410287" lon="98.984657">
<time>2016-10-07T10:56:24Z</time></trkpt>
<trkpt lat="28.410286" lon="98.984767">
<time>2016-10-07T10:56:25Z</time></trkpt>
<trkpt lat="28.410276" lon="98.984857">
<time>2016-10-07T10:56:26Z</time></trkpt>
<trkpt lat="28.410266" lon="98.984996">
<time>2016-10-07T10:56:27Z</time></trkpt>
<trkpt lat="28.410133" lon="98.985823">
<time>2016-10-07T10:56:28Z</time></trkpt>
<trkpt lat="28.40999" lon="98.986749">
<time>2016-10-07T10:56:29Z</time></trkpt>
<trkpt lat="28.409878" lon="98.987456">
<time>2016-10-07T10:56:30Z</time></trkpt>
<trkpt lat="28.409878" lon="98.987585">
<time>2016-10-07T10:56:31Z</time></trkpt>
<trkpt lat="28.409868" lon="98.987734">
<time>2016-10-07T10:56:32Z</time></trkpt>
<trkpt lat="28.409887" lon="98.987884">
<time>2016-10-07T10:56:33Z</time></trkpt>
<trkpt lat="28.409927" lon="98.988013">
<time>2016-10-07T10:56:34Z</time></trkpt>
<trkpt lat="28.409966" lon="98.988133">
<time>2016-10-07T10:56:35Z</time></trkpt>
<trkpt lat="28.410026" lon="98.988232">
<time>2016-10-07T10:56:36Z</time></trkpt>
<trkpt lat="28.410106" lon="98.988332">
<time>2016-10-07T10:56:37Z</time></trkpt>
<trkpt lat="28.410166" lon="98.988392">
<time>2016-10-07T10:56:38Z</time></trkpt>
<trkpt lat="28.410225" lon="98.988431">
<time>2016-10-07T10:56:39Z</time></trkpt>
<trkpt lat="28.410315" lon="98.988481">
<time>2016-10-07T10:56:40Z</time></trkpt>
<trkpt lat="28.410385" lon="98.988511">
<time>2016-10-07T10:56:41Z</time></trkpt>
<trkpt lat="28.410455" lon="98.988531">
<time>2016-10-07T10:56:42Z</time></trkpt>
<trkpt lat="28.410545" lon="98.988541">
<time>2016-10-07T10:56:43Z</time></trkpt>
<trkpt lat="28.410685" lon="98.988541">
<time>2016-10-07T10:56:44Z</time></trkpt>
<trkpt lat="28.410805" lon="98.988511">
<time>2016-10-07T10:56:45Z</time></trkpt>
<trkpt lat="28.410905" lon="98.988471">
<time>2016-10-07T10:56:46Z</time></trkpt>
<trkpt lat="28.411025" lon="98.988392">
<time>2016-10-07T10:56:47Z</time></trkpt>
<trkpt lat="28.411146" lon="98.988302">
<time>2016-10-07T10:56:48Z</time></trkpt>
<trkpt lat="28.411326" lon="98.988103">
<time>2016-10-07T10:56:49Z</time></trkpt>
<trkpt lat="28.411416" lon="98.987983">
<time>2016-10-07T10:56:50Z</time></trkpt>
<trkpt lat="28.411517" lon="98.987874">
<time>2016-10-07T10:56:51Z</time></trkpt>
<trkpt lat="28.411667" lon="98.987734">
<time>2016-10-07T10:56:52Z</time></trkpt>
<trkpt lat="28.411878" lon="98.987555">
<time>2016-10-07T10:56:53Z</time></trkpt>
<trkpt lat="28.412138" lon="98.987376">
<time>2016-10-07T10:56:54Z</time></trkpt>
<trkpt lat="28.412299" lon="98.987246">
<time>2016-10-07T10:56:55Z</time></trkpt>
<trkpt lat="28.412409" lon="98.987147">
<time>2016-10-07T10:56:56Z</time></trkpt>
<trkpt lat="28.412509" lon="98.987047">
<time>2016-10-07T10:56:57Z</time></trkpt>
<trkpt lat="28.412569" lon="98.986958">
<time>2016-10-07T10:56:58Z</time></trkpt>
<trkpt lat="28.41262" lon="98.986878">
<time>2016-10-07T10:56:59Z</time></trkpt>
<trkpt lat="28.41271" lon="98.986719">
<time>2016-10-07T10:57:00Z</time></trkpt>
<trkpt lat="28.41276" lon="98.986559">
<time>2016-10-07T10:57:01Z</time></trkpt>
<trkpt lat="28.412791" lon="98.9864">
<time>2016-10-07T10:57:02Z</time></trkpt>
<trkpt lat="28.412832" lon="98.986121">
<time>2016-10-07T10:57:03Z</time></trkpt>
<trkpt lat="28.412883" lon="98.985862">
<time>2016-10-07T10:57:04Z</time></trkpt>
<trkpt lat="28.412953" lon="98.985583">
<time>2016-10-07T10:57:05Z</time></trkpt>
<trkpt lat="28.413044" lon="98.985374">
<time>2016-10-07T10:57:06Z</time></trkpt>
<trkpt lat="28.413134" lon="98.985215">
<time>2016-10-07T10:57:07Z</time></trkpt>
<trkpt lat="28.413255" lon="98.985066">
<time>2016-10-07T10:57:08Z</time></trkpt>
<trkpt lat="28.413385" lon="98.984936">
<time>2016-10-07T10:57:09Z</time></trkpt>
<trkpt lat="28.413485" lon="98.984847">
<time>2016-10-07T10:57:10Z</time></trkpt>
<trkpt lat="28.413616" lon="98.984747">
<time>2016-10-07T10:57:11Z</time></trkpt>
<trkpt lat="28.413756" lon="98.984637">
<time>2016-10-07T10:57:12Z</time></trkpt>
<trkpt lat="28.413936" lon="98.984478">
<time>2016-10-07T10:57:13Z</time></trkpt>
<trkpt lat="28.414057" lon="98.984349">
<time>2016-10-07T10:57:14Z</time></trkpt>
<trkpt lat="28.414147" lon="98.984229">
<time>2016-10-07T10:57:15Z</time></trkpt>
<trkpt lat="28.414248" lon="98.98405">
<time>2016-10-07T10:57:16Z</time></trkpt>
<trkpt lat="28.414318" lon="98.983891">
<time>2016-10-07T10:57:17Z</time></trkpt>
<trkpt lat="28.414359" lon="98.983701">
<time>2016-10-07T10:57:18Z</time></trkpt>
<trkpt lat="28.414389" lon="98.983582">
<time>2016-10-07T10:57:19Z</time></trkpt>
<trkpt lat="28.414409" lon="98.983423">
<time>2016-10-07T10:57:20Z</time></trkpt>
<trkpt lat="28.4144" lon="98.983144">
<time>2016-10-07T10:57:21Z</time></trkpt>
<trkpt lat="28.414391" lon="98.982825">
<time>2016-10-07T10:57:22Z</time></trkpt>
<trkpt lat="28.414392" lon="98.982676">
<time>2016-10-07T10:57:23Z</time></trkpt>
<trkpt lat="28.414412" lon="98.982566">
<time>2016-10-07T10:57:24Z</time></trkpt>
<trkpt lat="28.414432" lon="98.982486">
<time>2016-10-07T10:57:25Z</time></trkpt>
<trkpt lat="28.414462" lon="98.982417">
<time>2016-10-07T10:57:26Z</time></trkpt>
<trkpt lat="28.414513" lon="98.982327">
<time>2016-10-07T10:57:27Z</time></trkpt>
<trkpt lat="28.414563" lon="98.982257">
<time>2016-10-07T10:57:28Z</time></trkpt>
<trkpt lat="28.414633" lon="98.982198">
<time>2016-10-07T10:57:29Z</time></trkpt>
<trkpt lat="28.414663" lon="98.982168">
<time>2016-10-07T10:57:30Z</time></trkpt>
<trkpt lat="28.414733" lon="98.982128">
<time>2016-10-07T10:57:31Z</time></trkpt>
<trkpt lat="28.414823" lon="98.982088">
<time>2016-10-07T10:57:32Z</time></trkpt>
<trkpt lat="28.414903" lon="98.982068">
<time>2016-10-07T10:57:33Z</time></trkpt>
<trkpt lat="28.414973" lon="98.982058">
<time>2016-10-07T10:57:34Z</time></trkpt>
<trkpt lat="28.415063" lon="98.982068">
<time>2016-10-07T10:57:35Z</time></trkpt>
<trkpt lat="28.415163" lon="98.982088">
<time>2016-10-07T10:57:36Z</time></trkpt>
<trkpt lat="28.415273" lon="98.982118">
<time>2016-10-07T10:57:37Z</time></trkpt>
<trkpt lat="28.415453" lon="98.982178">
<time>2016-10-07T10:57:38Z</time></trkpt>
<trkpt lat="28.415613" lon="98.982208">
<time>2016-10-07T10:57:39Z</time></trkpt>
<trkpt lat="28.415703" lon="98.982227">
<time>2016-10-07T10:57:40Z</time></trkpt>
<trkpt lat="28.415883" lon="98.982247">
<time>2016-10-07T10:57:41Z</time></trkpt>
<trkpt lat="28.416053" lon="98.982227">
<time>2016-10-07T10:57:42Z</time></trkpt>
<trkpt lat="28.416193" lon="98.982188">
<time>2016-10-07T10:57:43Z</time></trkpt>
<trkpt lat="28.416313" lon="98.982148">
<time>2016-10-07T10:57:44Z</time></trkpt>
<trkpt lat="28.416443" lon="98.982088">
<time>2016-10-07T10:57:45Z</time></trkpt>
<trkpt lat="28.416563" lon="98.982018">
<time>2016-10-07T10:57:46Z</time></trkpt>
<trkpt lat="28.416693" lon="98.981909">
<time>2016-10-07T10:57:47Z</time></trkpt>
<trkpt lat="28.416784" lon="98.981819">
<time>2016-10-07T10:57:48Z</time></trkpt>
<trkpt lat="28.416904" lon="98.98164">
<time>2016-10-07T10:57:49Z</time></trkpt>
<trkpt lat="28.416985" lon="98.981491">
<time>2016-10-07T10:57:50Z</time></trkpt>
<trkpt lat="28.417075" lon="98.981271">
<time>2016-10-07T10:57:51Z</time></trkpt>
<trkpt lat="28.417136" lon="98.981042">
<time>2016-10-07T10:57:52Z</time></trkpt>
<trkpt lat="28.417196" lon="98.980813">
<time>2016-10-07T10:57:53Z</time></trkpt>
<trkpt lat="28.417247" lon="98.980564">
<time>2016-10-07T10:57:54Z</time></trkpt>
<trkpt lat="28.417338" lon="98.980176">
<time>2016-10-07T10:57:55Z</time></trkpt>
<trkpt lat="28.417409" lon="98.979897">
<time>2016-10-07T10:57:56Z</time></trkpt>
<trkpt lat="28.41751" lon="98.979449">
<time>2016-10-07T10:57:57Z</time></trkpt>
<trkpt lat="28.417561" lon="98.97927">
<time>2016-10-07T10:57:58Z</time></trkpt>
<trkpt lat="28.417601" lon="98.97914">
<time>2016-10-07T10:57:59Z</time></trkpt>
<trkpt lat="28.417672" lon="98.978971">
<time>2016-10-07T10:58:00Z</time></trkpt>
<trkpt lat="28.417732" lon="98.978832">
<time>2016-10-07T10:58:01Z</time></trkpt>
<trkpt lat="28.417792" lon="98.978722">
<time>2016-10-07T10:58:02Z</time></trkpt>
<trkpt lat="28.417923" lon="98.978503">
<time>2016-10-07T10:58:03Z</time></trkpt>
<trkpt lat="28.418063" lon="98.978324">
<time>2016-10-07T10:58:04Z</time></trkpt>
<trkpt lat="28.418184" lon="98.978184">
<time>2016-10-07T10:58:05Z</time></trkpt>
<trkpt lat="28.418384" lon="98.977975">
<time>2016-10-07T10:58:06Z</time></trkpt>
<trkpt lat="28.418635" lon="98.977716">
<time>2016-10-07T10:58:07Z</time></trkpt>
<trkpt lat="28.418846" lon="98.977507">
<time>2016-10-07T10:58:08Z</time></trkpt>
<trkpt lat="28.419096" lon="98.977248">
<time>2016-10-07T10:58:09Z</time></trkpt>
<trkpt lat="28.419207" lon="98.977138">
<time>2016-10-07T10:58:10Z</time></trkpt>
<trkpt lat="28.419317" lon="98.977039">
<time>2016-10-07T10:58:11Z</time></trkpt>
<trkpt lat="28.419387" lon="98.976979">
<time>2016-10-07T10:58:12Z</time></trkpt>
<trkpt lat="28.419457" lon="98.976929">
<time>2016-10-07T10:58:13Z</time></trkpt>
<trkpt lat="28.419537" lon="98.976889">
<time>2016-10-07T10:58:14Z</time></trkpt>
<trkpt lat="28.419617" lon="98.97685">
<time>2016-10-07T10:58:15Z</time></trkpt>
<trkpt lat="28.419707" lon="98.97681">
<time>2016-10-07T10:58:16Z</time></trkpt>
<trkpt lat="28.419807" lon="98.97678">
<time>2016-10-07T10:58:17Z</time></trkpt>
<trkpt lat="28.420028" lon="98.97673">
<time>2016-10-07T10:58:18Z</time></trkpt>
<trkpt lat="28.420138" lon="98.9767">
<time>2016-10-07T10:58:19Z</time></trkpt>
<trkpt lat="28.420238" lon="98.97665">
<time>2016-10-07T10:58:20Z</time></trkpt>
<trkpt lat="28.420338" lon="98.976591">
<time>2016-10-07T10:58:21Z</time></trkpt>
<trkpt lat="28.420428" lon="98.976521">
<time>2016-10-07T10:58:22Z</time></trkpt>
<trkpt lat="28.420518" lon="98.976401">
<time>2016-10-07T10:58:23Z</time></trkpt>
<trkpt lat="28.420609" lon="98.976252">
<time>2016-10-07T10:58:24Z</time></trkpt>
<trkpt lat="28.420679" lon="98.976103">
<time>2016-10-07T10:58:25Z</time></trkpt>
<trkpt lat="28.42074" lon="98.975973">
<time>2016-10-07T10:58:26Z</time></trkpt>
<trkpt lat="28.42081" lon="98.975804">
<time>2016-10-07T10:58:27Z</time></trkpt>
<trkpt lat="28.42088" lon="98.975664">
<time>2016-10-07T10:58:28Z</time></trkpt>
<trkpt lat="28.420961" lon="98.975515">
<time>2016-10-07T10:58:29Z</time></trkpt>
<trkpt lat="28.421051" lon="98.975395">
<time>2016-10-07T10:58:30Z</time></trkpt>
<trkpt lat="28.421151" lon="98.975286">
<time>2016-10-07T10:58:31Z</time></trkpt>
<trkpt lat="28.421252" lon="98.975196">
<time>2016-10-07T10:58:32Z</time></trkpt>
<trkpt lat="28.421352" lon="98.975146">
<time>2016-10-07T10:58:33Z</time></trkpt>
<trkpt lat="28.421462" lon="98.975097">
<time>2016-10-07T10:58:34Z</time></trkpt>
<trkpt lat="28.421572" lon="98.975067">
<time>2016-10-07T10:58:35Z</time></trkpt>
<trkpt lat="28.421732" lon="98.975017">
<time>2016-10-07T10:58:36Z</time></trkpt>
<trkpt lat="28.421842" lon="98.974977">
<time>2016-10-07T10:58:37Z</time></trkpt>
<trkpt lat="28.422012" lon="98.974907">
<time>2016-10-07T10:58:38Z</time></trkpt>
<trkpt lat="28.422132" lon="98.974848">
<time>2016-10-07T10:58:39Z</time></trkpt>
<trkpt lat="28.422253" lon="98.974778">
<time>2016-10-07T10:58:40Z</time></trkpt>
<trkpt lat="28.422383" lon="98.974678">
<time>2016-10-07T10:58:41Z</time></trkpt>
<trkpt lat="28.422473" lon="98.974589">
<time>2016-10-07T10:58:42Z</time></trkpt>
<trkpt lat="28.422583" lon="98.974469">
<time>2016-10-07T10:58:43Z</time></trkpt>
<trkpt lat="28.422724" lon="98.97431">
<time>2016-10-07T10:58:44Z</time></trkpt>
<trkpt lat="28.422834" lon="98.97419">
<time>2016-10-07T10:58:45Z</time></trkpt>
<trkpt lat="28.422954" lon="98.974061">
<time>2016-10-07T10:58:46Z</time></trkpt>
<trkpt lat="28.423225" lon="98.973772">
<time>2016-10-07T10:58:47Z</time></trkpt>
<trkpt lat="28.423476" lon="98.973493">
<time>2016-10-07T10:58:48Z</time></trkpt>
<trkpt lat="28.423947" lon="98.972995">
<time>2016-10-07T10:58:49Z</time></trkpt>
<trkpt lat="28.424418" lon="98.972477">
<time>2016-10-07T10:58:50Z</time></trkpt>
<trkpt lat="28.424759" lon="98.972119">
<time>2016-10-07T10:58:51Z</time></trkpt>
<trkpt lat="28.42495" lon="98.971899">
<time>2016-10-07T10:58:52Z</time></trkpt>
<trkpt lat="28.425131" lon="98.97164">
<time>2016-10-07T10:58:53Z</time></trkpt>
<trkpt lat="28.425361" lon="98.971282">
<time>2016-10-07T10:58:54Z</time></trkpt>
<trkpt lat="28.425572" lon="98.970943">
<time>2016-10-07T10:58:55Z</time></trkpt>
<trkpt lat="28.425723" lon="98.970694">
<time>2016-10-07T10:58:56Z</time></trkpt>
<trkpt lat="28.425823" lon="98.970555">
<time>2016-10-07T10:58:57Z</time></trkpt>
<trkpt lat="28.425934" lon="98.970425">
<time>2016-10-07T10:58:58Z</time></trkpt>
<trkpt lat="28.426024" lon="98.970365">
<time>2016-10-07T10:58:59Z</time></trkpt>
<trkpt lat="28.426074" lon="98.970336">
<time>2016-10-07T10:59:00Z</time></trkpt>
<trkpt lat="28.426124" lon="98.970316">
<time>2016-10-07T10:59:01Z</time></trkpt>
<trkpt lat="28.426244" lon="98.970286">
<time>2016-10-07T10:59:02Z</time></trkpt>
<trkpt lat="28.426314" lon="98.970276">
<time>2016-10-07T10:59:03Z</time></trkpt>
<trkpt lat="28.426424" lon="98.970286">
<time>2016-10-07T10:59:04Z</time></trkpt>
<trkpt lat="28.426504" lon="98.970306">
<time>2016-10-07T10:59:05Z</time></trkpt>
<trkpt lat="28.426634" lon="98.970365">
<time>2016-10-07T10:59:06Z</time></trkpt>
<trkpt lat="28.426733" lon="98.970435">
<time>2016-10-07T10:59:07Z</time></trkpt>
<trkpt lat="28.426933" lon="98.970575">
<time>2016-10-07T10:59:08Z</time></trkpt>
<trkpt lat="28.426983" lon="98.970614">
<time>2016-10-07T10:59:09Z</time></trkpt>
<trkpt lat="28.427063" lon="98.970664">
<time>2016-10-07T10:59:10Z</time></trkpt>
<trkpt lat="28.427183" lon="98.970724">
<time>2016-10-07T10:59:11Z</time></trkpt>
<trkpt lat="28.427282" lon="98.970744">
<time>2016-10-07T10:59:12Z</time></trkpt>
<trkpt lat="28.427382" lon="98.970744">
<time>2016-10-07T10:59:13Z</time></trkpt>
<trkpt lat="28.427442" lon="98.970734">
<time>2016-10-07T10:59:14Z</time></trkpt>
<trkpt lat="28.427543" lon="98.970714">
<time>2016-10-07T10:59:15Z</time></trkpt>
<trkpt lat="28.427653" lon="98.970644">
<time>2016-10-07T10:59:16Z</time></trkpt>
<trkpt lat="28.427733" lon="98.970555">
<time>2016-10-07T10:59:17Z</time></trkpt>
<trkpt lat="28.427813" lon="98.970405">
<time>2016-10-07T10:59:18Z</time></trkpt>
<trkpt lat="28.427854" lon="98.970296">
<time>2016-10-07T10:59:19Z</time></trkpt>
<trkpt lat="28.427874" lon="98.970156">
<time>2016-10-07T10:59:20Z</time></trkpt>
<trkpt lat="28.427884" lon="98.969997">
<time>2016-10-07T10:59:21Z</time></trkpt>
<trkpt lat="28.427885" lon="98.969847">
<time>2016-10-07T10:59:22Z</time></trkpt>
<trkpt lat="28.427856" lon="98.969319">
<time>2016-10-07T10:59:23Z</time></trkpt>
<trkpt lat="28.427837" lon="98.968981">
<time>2016-10-07T10:59:24Z</time></trkpt>
<trkpt lat="28.427818" lon="98.968642">
<time>2016-10-07T10:59:25Z</time></trkpt>
<trkpt lat="28.427799" lon="98.968403">
<time>2016-10-07T10:59:26Z</time></trkpt>
<trkpt lat="28.427789" lon="98.968134">
<time>2016-10-07T10:59:27Z</time></trkpt>
<trkpt lat="28.42777" lon="98.967785">
<time>2016-10-07T10:59:28Z</time></trkpt>
<trkpt lat="28.427771" lon="98.967666">
<time>2016-10-07T10:59:29Z</time></trkpt>
<trkpt lat="28.427791" lon="98.967546">
<time>2016-10-07T10:59:30Z</time></trkpt>
<trkpt lat="28.427821" lon="98.967427">
<time>2016-10-07T10:59:31Z</time></trkpt>
<trkpt lat="28.427861" lon="98.967347">
<time>2016-10-07T10:59:32Z</time></trkpt>
<trkpt lat="28.427912" lon="98.967267">
<time>2016-10-07T10:59:33Z</time></trkpt>
<trkpt lat="28.427972" lon="98.967178">
<time>2016-10-07T10:59:34Z</time></trkpt>
<trkpt lat="28.428022" lon="98.967118">
<time>2016-10-07T10:59:35Z</time></trkpt>
<trkpt lat="28.428142" lon="98.966998">
<time>2016-10-07T10:59:36Z</time></trkpt>
<trkpt lat="28.428232" lon="98.966929">
<time>2016-10-07T10:59:37Z</time></trkpt>
<trkpt lat="28.428743" lon="98.96652">
<time>2016-10-07T10:59:38Z</time></trkpt>
<trkpt lat="28.429224" lon="98.966152">
<time>2016-10-07T10:59:39Z</time></trkpt>
<trkpt lat="28.429324" lon="98.966092">
<time>2016-10-07T10:59:40Z</time></trkpt>
<trkpt lat="28.429404" lon="98.966042">
<time>2016-10-07T10:59:41Z</time></trkpt>
<trkpt lat="28.429445" lon="98.966022">
<time>2016-10-07T10:59:42Z</time></trkpt>
<trkpt lat="28.429495" lon="98.966002">
<time>2016-10-07T10:59:43Z</time></trkpt>
<trkpt lat="28.429575" lon="98.965992">
<time>2016-10-07T10:59:44Z</time></trkpt>
<trkpt lat="28.429635" lon="98.965972">
<time>2016-10-07T10:59:45Z</time></trkpt>
<trkpt lat="28.429695" lon="98.965972">
<time>2016-10-07T10:59:46Z</time></trkpt>
<trkpt lat="28.430084" lon="98.965972">
<time>2016-10-07T10:59:47Z</time></trkpt>
<trkpt lat="28.430185" lon="98.965952">
<time>2016-10-07T10:59:48Z</time></trkpt>
<trkpt lat="28.430235" lon="98.965932">
<time>2016-10-07T10:59:49Z</time></trkpt>
<trkpt lat="28.430335" lon="98.965883">
<time>2016-10-07T10:59:50Z</time></trkpt>
<trkpt lat="28.430425" lon="98.965833">
<time>2016-10-07T10:59:51Z</time></trkpt>
<trkpt lat="28.430505" lon="98.965773">
<time>2016-10-07T10:59:52Z</time></trkpt>
<trkpt lat="28.430655" lon="98.965614">
<time>2016-10-07T10:59:53Z</time></trkpt>
<trkpt lat="28.430906" lon="98.965285">
<time>2016-10-07T10:59:54Z</time></trkpt>
<trkpt lat="28.431327" lon="98.964757">
<time>2016-10-07T10:59:55Z</time></trkpt>
<trkpt lat="28.431799" lon="98.964169">
<time>2016-10-07T10:59:56Z</time></trkpt>
<trkpt lat="28.43212" lon="98.963751">
<time>2016-10-07T10:59:57Z</time></trkpt>
<trkpt lat="28.432421" lon="98.963382">
<time>2016-10-07T10:59:58Z</time></trkpt>
<trkpt lat="28.432561" lon="98.963233">
<time>2016-10-07T10:59:59Z</time></trkpt>
<trkpt lat="28.432701" lon="98.963113">
<time>2016-10-07T11:00:00Z</time></trkpt>
<trkpt lat="28.432801" lon="98.963033">
<time>2016-10-07T11:00:01Z</time></trkpt>
<trkpt lat="28.432871" lon="98.962983">
<time>2016-10-07T11:00:02Z</time></trkpt>
<trkpt lat="28.432992" lon="98.962924">
<time>2016-10-07T11:00:03Z</time></trkpt>
<trkpt lat="28.433072" lon="98.962894">
<time>2016-10-07T11:00:04Z</time></trkpt>
<trkpt lat="28.433182" lon="98.962844">
<time>2016-10-07T11:00:05Z</time></trkpt>
<trkpt lat="28.433402" lon="98.962794">
<time>2016-10-07T11:00:06Z</time></trkpt>
<trkpt lat="28.433572" lon="98.962764">
<time>2016-10-07T11:00:07Z</time></trkpt>
<trkpt lat="28.433742" lon="98.962744">
<time>2016-10-07T11:00:08Z</time></trkpt>
<trkpt lat="28.433862" lon="98.962754">
<time>2016-10-07T11:00:09Z</time></trkpt>
<trkpt lat="28.433922" lon="98.962764">
<time>2016-10-07T11:00:10Z</time></trkpt>
<trkpt lat="28.433972" lon="98.962774">
<time>2016-10-07T11:00:11Z</time></trkpt>
<trkpt lat="28.434022" lon="98.962784">
<time>2016-10-07T11:00:12Z</time></trkpt>
<trkpt lat="28.434131" lon="98.962844">
<time>2016-10-07T11:00:13Z</time></trkpt>
<trkpt lat="28.434241" lon="98.962934">
<time>2016-10-07T11:00:14Z</time></trkpt>
<trkpt lat="28.434321" lon="98.963013">
<time>2016-10-07T11:00:15Z</time></trkpt>
<trkpt lat="28.434391" lon="98.963093">
<time>2016-10-07T11:00:16Z</time></trkpt>
<trkpt lat="28.434461" lon="98.963203">
<time>2016-10-07T11:00:17Z</time></trkpt>
<trkpt lat="28.43452" lon="98.963282">
<time>2016-10-07T11:00:18Z</time></trkpt>
<trkpt lat="28.43457" lon="98.963342">
<time>2016-10-07T11:00:19Z</time></trkpt>
<trkpt lat="28.43461" lon="98.963392">
<time>2016-10-07T11:00:20Z</time></trkpt>
<trkpt lat="28.43466" lon="98.963432">
<time>2016-10-07T11:00:21Z</time></trkpt>
<trkpt lat="28.43472" lon="98.963472">
<time>2016-10-07T11:00:22Z</time></trkpt>
<trkpt lat="28.43477" lon="98.963501">
<time>2016-10-07T11:00:23Z</time></trkpt>
<trkpt lat="28.43485" lon="98.963531">
<time>2016-10-07T11:00:24Z</time></trkpt>
<trkpt lat="28.43492" lon="98.963541">
<time>2016-10-07T11:00:25Z</time></trkpt>
<trkpt lat="28.435" lon="98.963541">
<time>2016-10-07T11:00:26Z</time></trkpt>
<trkpt lat="28.43508" lon="98.963531">
<time>2016-10-07T11:00:27Z</time></trkpt>
<trkpt lat="28.43522" lon="98.963491">
<time>2016-10-07T11:00:28Z</time></trkpt>
<trkpt lat="28.43534" lon="98.963412">
<time>2016-10-07T11:00:29Z</time></trkpt>
<trkpt lat="28.43542" lon="98.963352">
<time>2016-10-07T11:00:30Z</time></trkpt>
<trkpt lat="28.43559" lon="98.963193">
<time>2016-10-07T11:00:31Z</time></trkpt>
<trkpt lat="28.436091" lon="98.962744">
<time>2016-10-07T11:00:32Z</time></trkpt>
<trkpt lat="28.436191" lon="98.962645">
<time>2016-10-07T11:00:33Z</time></trkpt>
<trkpt lat="28.436292" lon="98.962535">
<time>2016-10-07T11:00:34Z</time></trkpt>
<trkpt lat="28.436342" lon="98.962465">
<time>2016-10-07T11:00:35Z</time></trkpt>
<trkpt lat="28.436392" lon="98.962386">
<time>2016-10-07T11:00:36Z</time></trkpt>
<trkpt lat="28.436472" lon="98.962256">
<time>2016-10-07T11:00:37Z</time></trkpt>
<trkpt lat="28.436533" lon="98.962136">
<time>2016-10-07T11:00:38Z</time></trkpt>
<trkpt lat="28.436583" lon="98.962017">
<time>2016-10-07T11:00:39Z</time></trkpt>
<trkpt lat="28.436613" lon="98.961907">
<time>2016-10-07T11:00:40Z</time></trkpt>
<trkpt lat="28.436633" lon="98.961828">
<time>2016-10-07T11:00:41Z</time></trkpt>
<trkpt lat="28.436654" lon="98.961738">
<time>2016-10-07T11:00:42Z</time></trkpt>
<trkpt lat="28.436664" lon="98.961648">
<time>2016-10-07T11:00:43Z</time></trkpt>
<trkpt lat="28.436674" lon="98.961519">
<time>2016-10-07T11:00:44Z</time></trkpt>
<trkpt lat="28.436665" lon="98.961329">
<time>2016-10-07T11:00:45Z</time></trkpt>
<trkpt lat="28.436665" lon="98.96125">
<time>2016-10-07T11:00:46Z</time></trkpt>
<trkpt lat="28.436645" lon="98.96114">
<time>2016-10-07T11:00:47Z</time></trkpt>
<trkpt lat="28.436606" lon="98.960981">
<time>2016-10-07T11:00:48Z</time></trkpt>
<trkpt lat="28.436576" lon="98.960891">
<time>2016-10-07T11:00:49Z</time></trkpt>
<trkpt lat="28.436536" lon="98.960781">
<time>2016-10-07T11:00:50Z</time></trkpt>
<trkpt lat="28.436446" lon="98.960602">
<time>2016-10-07T11:00:51Z</time></trkpt>
<trkpt lat="28.436327" lon="98.960403">
<time>2016-10-07T11:00:52Z</time></trkpt>
<trkpt lat="28.436217" lon="98.960243">
<time>2016-10-07T11:00:53Z</time></trkpt>
<trkpt lat="28.436058" lon="98.959984">
<time>2016-10-07T11:00:54Z</time></trkpt>
<trkpt lat="28.435849" lon="98.959656">
<time>2016-10-07T11:00:55Z</time></trkpt>
<trkpt lat="28.43554" lon="98.959167">
<time>2016-10-07T11:00:56Z</time></trkpt>
<trkpt lat="28.435411" lon="98.958968">
<time>2016-10-07T11:00:57Z</time></trkpt>
<trkpt lat="28.435341" lon="98.958838">
<time>2016-10-07T11:00:58Z</time></trkpt>
<trkpt lat="28.435311" lon="98.958779">
<time>2016-10-07T11:00:59Z</time></trkpt>
<trkpt lat="28.435281" lon="98.958709">
<time>2016-10-07T11:01:00Z</time></trkpt>
<trkpt lat="28.435261" lon="98.958639">
<time>2016-10-07T11:01:01Z</time></trkpt>
<trkpt lat="28.435242" lon="98.958569">
<time>2016-10-07T11:01:02Z</time></trkpt>
<trkpt lat="28.435232" lon="98.9585">
<time>2016-10-07T11:01:03Z</time></trkpt>
<trkpt lat="28.435222" lon="98.95842">
<time>2016-10-07T11:01:04Z</time></trkpt>
<trkpt lat="28.435242" lon="98.958241">
<time>2016-10-07T11:01:05Z</time></trkpt>
<trkpt lat="28.435263" lon="98.958061">
<time>2016-10-07T11:01:06Z</time></trkpt>
<trkpt lat="28.435273" lon="98.957872">
<time>2016-10-07T11:01:07Z</time></trkpt>
<trkpt lat="28.435264" lon="98.957772">
<time>2016-10-07T11:01:08Z</time></trkpt>
<trkpt lat="28.435254" lon="98.957633">
<time>2016-10-07T11:01:09Z</time></trkpt>
<trkpt lat="28.435254" lon="98.957563">
<time>2016-10-07T11:01:10Z</time></trkpt>
<trkpt lat="28.435234" lon="98.957453">
<time>2016-10-07T11:01:11Z</time></trkpt>
<trkpt lat="28.435185" lon="98.957254">
<time>2016-10-07T11:01:12Z</time></trkpt>
<trkpt lat="28.435155" lon="98.957055">
<time>2016-10-07T11:01:13Z</time></trkpt>
<trkpt lat="28.435146" lon="98.956925">
<time>2016-10-07T11:01:14Z</time></trkpt>
<trkpt lat="28.435146" lon="98.956776">
<time>2016-10-07T11:01:15Z</time></trkpt>
<trkpt lat="28.435156" lon="98.956666">
<time>2016-10-07T11:01:16Z</time></trkpt>
<trkpt lat="28.435186" lon="98.956546">
<time>2016-10-07T11:01:17Z</time></trkpt>
<trkpt lat="28.435227" lon="98.956407">
<time>2016-10-07T11:01:18Z</time></trkpt>
<trkpt lat="28.435297" lon="98.956248">
<time>2016-10-07T11:01:19Z</time></trkpt>
<trkpt lat="28.435407" lon="98.956088">
<time>2016-10-07T11:01:20Z</time></trkpt>
<trkpt lat="28.435518" lon="98.955959">
<time>2016-10-07T11:01:21Z</time></trkpt>
<trkpt lat="28.435638" lon="98.955859">
<time>2016-10-07T11:01:22Z</time></trkpt>
<trkpt lat="28.435738" lon="98.955769">
<time>2016-10-07T11:01:23Z</time></trkpt>
<trkpt lat="28.435868" lon="98.95564">
<time>2016-10-07T11:01:24Z</time></trkpt>
<trkpt lat="28.435929" lon="98.95556">
<time>2016-10-07T11:01:25Z</time></trkpt>
<trkpt lat="28.435989" lon="98.95546">
<time>2016-10-07T11:01:26Z</time></trkpt>
<trkpt lat="28.436049" lon="98.955321">
<time>2016-10-07T11:01:27Z</time></trkpt>
<trkpt lat="28.436109" lon="98.955121">
<time>2016-10-07T11:01:28Z</time></trkpt>
<trkpt lat="28.43616" lon="98.954982">
<time>2016-10-07T11:01:29Z</time></trkpt>
<trkpt lat="28.43622" lon="98.954802">
<time>2016-10-07T11:01:30Z</time></trkpt>
<trkpt lat="28.43627" lon="98.954703">
<time>2016-10-07T11:01:31Z</time></trkpt>
<trkpt lat="28.436321" lon="98.954613">
<time>2016-10-07T11:01:32Z</time></trkpt>
<trkpt lat="28.436461" lon="98.954424">
<time>2016-10-07T11:01:33Z</time></trkpt>
<trkpt lat="28.436561" lon="98.954284">
<time>2016-10-07T11:01:34Z</time></trkpt>
<trkpt lat="28.436632" lon="98.954155">
<time>2016-10-07T11:01:35Z</time></trkpt>
<trkpt lat="28.436682" lon="98.954015">
<time>2016-10-07T11:01:36Z</time></trkpt>
<trkpt lat="28.436702" lon="98.953896">
<time>2016-10-07T11:01:37Z</time></trkpt>
<trkpt lat="28.436712" lon="98.953806">
<time>2016-10-07T11:01:38Z</time></trkpt>
<trkpt lat="28.436712" lon="98.953716">
<time>2016-10-07T11:01:39Z</time></trkpt>
<trkpt lat="28.436693" lon="98.953477">
<time>2016-10-07T11:01:40Z</time></trkpt>
<trkpt lat="28.436683" lon="98.953317">
<time>2016-10-07T11:01:41Z</time></trkpt>
<trkpt lat="28.436683" lon="98.953258">
<time>2016-10-07T11:01:42Z</time></trkpt>
<trkpt lat="28.436694" lon="98.953178">
<time>2016-10-07T11:01:43Z</time></trkpt>
<trkpt lat="28.436704" lon="98.953118">
<time>2016-10-07T11:01:44Z</time></trkpt>
<trkpt lat="28.436724" lon="98.953038">
<time>2016-10-07T11:01:45Z</time></trkpt>
<trkpt lat="28.436764" lon="98.952949">
<time>2016-10-07T11:01:46Z</time></trkpt>
<trkpt lat="28.436804" lon="98.952869">
<time>2016-10-07T11:01:47Z</time></trkpt>
<trkpt lat="28.436935" lon="98.95268">
<time>2016-10-07T11:01:48Z</time></trkpt>
<trkpt lat="28.437045" lon="98.95249">
<time>2016-10-07T11:01:49Z</time></trkpt>
<trkpt lat="28.437135" lon="98.952301">
<time>2016-10-07T11:01:50Z</time></trkpt>
<trkpt lat="28.437206" lon="98.952052">
<time>2016-10-07T11:01:51Z</time></trkpt>
<trkpt lat="28.437246" lon="98.951932">
<time>2016-10-07T11:01:52Z</time></trkpt>
<trkpt lat="28.437286" lon="98.951822">
<time>2016-10-07T11:01:53Z</time></trkpt>
<trkpt lat="28.437327" lon="98.951753">
<time>2016-10-07T11:01:54Z</time></trkpt>
<trkpt lat="28.437357" lon="98.951693">
<time>2016-10-07T11:01:55Z</time></trkpt>
<trkpt lat="28.437437" lon="98.951603">
<time>2016-10-07T11:01:56Z</time></trkpt>
<trkpt lat="28.437497" lon="98.951553">
<time>2016-10-07T11:01:57Z</time></trkpt>
<trkpt lat="28.437577" lon="98.951494">
<time>2016-10-07T11:01:58Z</time></trkpt>
<trkpt lat="28.437727" lon="98.951374">
<time>2016-10-07T11:01:59Z</time></trkpt>
<trkpt lat="28.437838" lon="98.951254">
<time>2016-10-07T11:02:00Z</time></trkpt>
<trkpt lat="28.437908" lon="98.951165">
<time>2016-10-07T11:02:01Z</time></trkpt>
<trkpt lat="28.437968" lon="98.951045">
<time>2016-10-07T11:02:02Z</time></trkpt>
<trkpt lat="28.438018" lon="98.950895">
<time>2016-10-07T11:02:03Z</time></trkpt>
<trkpt lat="28.438039" lon="98.950756">
<time>2016-10-07T11:02:04Z</time></trkpt>
<trkpt lat="28.438059" lon="98.950596">
<time>2016-10-07T11:02:05Z</time></trkpt>
<trkpt lat="28.438079" lon="98.950357">
<time>2016-10-07T11:02:06Z</time></trkpt>
<trkpt lat="28.4381" lon="98.950218">
<time>2016-10-07T11:02:07Z</time></trkpt>
<trkpt lat="28.43812" lon="98.950128">
<time>2016-10-07T11:02:08Z</time></trkpt>
<trkpt lat="28.438191" lon="98.949799">
<time>2016-10-07T11:02:09Z</time></trkpt>
<trkpt lat="28.438271" lon="98.94959">
<time>2016-10-07T11:02:10Z</time></trkpt>
<trkpt lat="28.438331" lon="98.94945">
<time>2016-10-07T11:02:11Z</time></trkpt>
<trkpt lat="28.438442" lon="98.949231">
<time>2016-10-07T11:02:12Z</time></trkpt>
<trkpt lat="28.438552" lon="98.949051">
<time>2016-10-07T11:02:13Z</time></trkpt>
<trkpt lat="28.438652" lon="98.948932">
<time>2016-10-07T11:02:14Z</time></trkpt>
<trkpt lat="28.438742" lon="98.948842">
<time>2016-10-07T11:02:15Z</time></trkpt>
<trkpt lat="28.438792" lon="98.948792">
<time>2016-10-07T11:02:16Z</time></trkpt>
<trkpt lat="28.438853" lon="98.948752">
<time>2016-10-07T11:02:17Z</time></trkpt>
<trkpt lat="28.438953" lon="98.948703">
<time>2016-10-07T11:02:18Z</time></trkpt>
<trkpt lat="28.439083" lon="98.948653">
<time>2016-10-07T11:02:19Z</time></trkpt>
<trkpt lat="28.439253" lon="98.948583">
<time>2016-10-07T11:02:20Z</time></trkpt>
<trkpt lat="28.439413" lon="98.948523">
<time>2016-10-07T11:02:21Z</time></trkpt>
<trkpt lat="28.439513" lon="98.948463">
<time>2016-10-07T11:02:22Z</time></trkpt>
<trkpt lat="28.439613" lon="98.948374">
<time>2016-10-07T11:02:23Z</time></trkpt>
<trkpt lat="28.439663" lon="98.948304">
<time>2016-10-07T11:02:24Z</time></trkpt>
<trkpt lat="28.439723" lon="98.948234">
<time>2016-10-07T11:02:25Z</time></trkpt>
<trkpt lat="28.439854" lon="98.948015">
<time>2016-10-07T11:02:26Z</time></trkpt>
<trkpt lat="28.439994" lon="98.947805">
<time>2016-10-07T11:02:27Z</time></trkpt>
<trkpt lat="28.440074" lon="98.947686">
<time>2016-10-07T11:02:28Z</time></trkpt>
<trkpt lat="28.440145" lon="98.947586">
<time>2016-10-07T11:02:29Z</time></trkpt>
<trkpt lat="28.440225" lon="98.947456">
<time>2016-10-07T11:02:30Z</time></trkpt>
<trkpt lat="28.440325" lon="98.947307">
<time>2016-10-07T11:02:31Z</time></trkpt>
<trkpt lat="28.440415" lon="98.947197">
<time>2016-10-07T11:02:32Z</time></trkpt>
<trkpt lat="28.440546" lon="98.947058">
<time>2016-10-07T11:02:33Z</time></trkpt>
<trkpt lat="28.440686" lon="98.946888">
<time>2016-10-07T11:02:34Z</time></trkpt>
<trkpt lat="28.440776" lon="98.946788">
<time>2016-10-07T11:02:35Z</time></trkpt>
<trkpt lat="28.440876" lon="98.946699">
<time>2016-10-07T11:02:36Z</time></trkpt>
<trkpt lat="28.440976" lon="98.946609">
<time>2016-10-07T11:02:37Z</time></trkpt>
<trkpt lat="28.441066" lon="98.946559">
<time>2016-10-07T11:02:38Z</time></trkpt>
<trkpt lat="28.441156" lon="98.946539">
<time>2016-10-07T11:02:39Z</time></trkpt>
<trkpt lat="28.441236" lon="98.946519">
<time>2016-10-07T11:02:40Z</time></trkpt>
<trkpt lat="28.441306" lon="98.946519">
<time>2016-10-07T11:02:41Z</time></trkpt>
<trkpt lat="28.441366" lon="98.946519">
<time>2016-10-07T11:02:42Z</time></trkpt>
<trkpt lat="28.441416" lon="98.946529">
<time>2016-10-07T11:02:43Z</time></trkpt>
<trkpt lat="28.441486" lon="98.946539">
<time>2016-10-07T11:02:44Z</time></trkpt>
<trkpt lat="28.441566" lon="98.946569">
<time>2016-10-07T11:02:45Z</time></trkpt>
<trkpt lat="28.441626" lon="98.946599">
<time>2016-10-07T11:02:46Z</time></trkpt>
<trkpt lat="28.441656" lon="98.946629">
<time>2016-10-07T11:02:47Z</time></trkpt>
<trkpt lat="28.441706" lon="98.946669">
<time>2016-10-07T11:02:48Z</time></trkpt>
<trkpt lat="28.441756" lon="98.946719">
<time>2016-10-07T11:02:49Z</time></trkpt>
<trkpt lat="28.441816" lon="98.946798">
<time>2016-10-07T11:02:50Z</time></trkpt>
<trkpt lat="28.441866" lon="98.946888">
<time>2016-10-07T11:02:51Z</time></trkpt>
<trkpt lat="28.441895" lon="98.946958">
<time>2016-10-07T11:02:52Z</time></trkpt>
<trkpt lat="28.441915" lon="98.947038">
<time>2016-10-07T11:02:53Z</time></trkpt>
<trkpt lat="28.441935" lon="98.947157">
<time>2016-10-07T11:02:54Z</time></trkpt>
<trkpt lat="28.441945" lon="98.947287">
<time>2016-10-07T11:02:55Z</time></trkpt>
<trkpt lat="28.441944" lon="98.947397">
<time>2016-10-07T11:02:56Z</time></trkpt>
<trkpt lat="28.441924" lon="98.947576">
<time>2016-10-07T11:02:57Z</time></trkpt>
<trkpt lat="28.441893" lon="98.948025">
<time>2016-10-07T11:02:58Z</time></trkpt>
<trkpt lat="28.441822" lon="98.948702">
<time>2016-10-07T11:02:59Z</time></trkpt>
<trkpt lat="28.441791" lon="98.948962">
<time>2016-10-07T11:03:00Z</time></trkpt>
<trkpt lat="28.441781" lon="98.949091">
<time>2016-10-07T11:03:01Z</time></trkpt>
<trkpt lat="28.441791" lon="98.949261">
<time>2016-10-07T11:03:02Z</time></trkpt>
<trkpt lat="28.4418" lon="98.94939">
<time>2016-10-07T11:03:03Z</time></trkpt>
<trkpt lat="28.44182" lon="98.94951">
<time>2016-10-07T11:03:04Z</time></trkpt>
<trkpt lat="28.44185" lon="98.94961">
<time>2016-10-07T11:03:05Z</time></trkpt>
<trkpt lat="28.44188" lon="98.949689">
<time>2016-10-07T11:03:06Z</time></trkpt>
<trkpt lat="28.44193" lon="98.949739">
<time>2016-10-07T11:03:07Z</time></trkpt>
<trkpt lat="28.44197" lon="98.949789">
<time>2016-10-07T11:03:08Z</time></trkpt>
<trkpt lat="28.442019" lon="98.949849">
<time>2016-10-07T11:03:09Z</time></trkpt>
<trkpt lat="28.442079" lon="98.949889">
<time>2016-10-07T11:03:10Z</time></trkpt>
<trkpt lat="28.442129" lon="98.949929">
<time>2016-10-07T11:03:11Z</time></trkpt>
<trkpt lat="28.442249" lon="98.949978">
<time>2016-10-07T11:03:12Z</time></trkpt>
<trkpt lat="28.442349" lon="98.950008">
<time>2016-10-07T11:03:13Z</time></trkpt>
<trkpt lat="28.442409" lon="98.950018">
<time>2016-10-07T11:03:14Z</time></trkpt>
<trkpt lat="28.443258" lon="98.950178">
<time>2016-10-07T11:03:15Z</time></trkpt>
<trkpt lat="28.443378" lon="98.950208">
<time>2016-10-07T11:03:16Z</time></trkpt>
<trkpt lat="28.443488" lon="98.950257">
<time>2016-10-07T11:03:17Z</time></trkpt>
<trkpt lat="28.443548" lon="98.950297">
<time>2016-10-07T11:03:18Z</time></trkpt>
<trkpt lat="28.443608" lon="98.950347">
<time>2016-10-07T11:03:19Z</time></trkpt>
<trkpt lat="28.443678" lon="98.950397">
<time>2016-10-07T11:03:20Z</time></trkpt>
<trkpt lat="28.443738" lon="98.950477">
<time>2016-10-07T11:03:21Z</time></trkpt>
<trkpt lat="28.443788" lon="98.950537">
<time>2016-10-07T11:03:22Z</time></trkpt>
<trkpt lat="28.443847" lon="98.950626">
<time>2016-10-07T11:03:23Z</time></trkpt>
<trkpt lat="28.443927" lon="98.950726">
<time>2016-10-07T11:03:24Z</time></trkpt>
<trkpt lat="28.444017" lon="98.950836">
<time>2016-10-07T11:03:25Z</time></trkpt>
<trkpt lat="28.444097" lon="98.950915">
<time>2016-10-07T11:03:26Z</time></trkpt>
<trkpt lat="28.444157" lon="98.950955">
<time>2016-10-07T11:03:27Z</time></trkpt>
<trkpt lat="28.444226" lon="98.950995">
<time>2016-10-07T11:03:28Z</time></trkpt>
<trkpt lat="28.444286" lon="98.951015">
<time>2016-10-07T11:03:29Z</time></trkpt>
<trkpt lat="28.444346" lon="98.951025">
<time>2016-10-07T11:03:30Z</time></trkpt>
<trkpt lat="28.444406" lon="98.951035">
<time>2016-10-07T11:03:31Z</time></trkpt>
<trkpt lat="28.444456" lon="98.951035">
<time>2016-10-07T11:03:32Z</time></trkpt>
<trkpt lat="28.444506" lon="98.951025">
<time>2016-10-07T11:03:33Z</time></trkpt>
<trkpt lat="28.444576" lon="98.951015">
<time>2016-10-07T11:03:34Z</time></trkpt>
<trkpt lat="28.444646" lon="98.950995">
<time>2016-10-07T11:03:35Z</time></trkpt>
<trkpt lat="28.444656" lon="98.950995">
<time>2016-10-07T11:03:36Z</time></trkpt>
<trkpt lat="28.444726" lon="98.950955">
<time>2016-10-07T11:03:37Z</time></trkpt>
<trkpt lat="28.444837" lon="98.950885">
<time>2016-10-07T11:03:38Z</time></trkpt>
<trkpt lat="28.444967" lon="98.950776">
<time>2016-10-07T11:03:39Z</time></trkpt>
<trkpt lat="28.445137" lon="98.950586">
<time>2016-10-07T11:03:40Z</time></trkpt>
<trkpt lat="28.445197" lon="98.950497">
<time>2016-10-07T11:03:41Z</time></trkpt>
<trkpt lat="28.445288" lon="98.950367">
<time>2016-10-07T11:03:42Z</time></trkpt>
<trkpt lat="28.445408" lon="98.950128">
<time>2016-10-07T11:03:43Z</time></trkpt>
<trkpt lat="28.445498" lon="98.949918">
<time>2016-10-07T11:03:44Z</time></trkpt>
<trkpt lat="28.445559" lon="98.949709">
<time>2016-10-07T11:03:45Z</time></trkpt>
<trkpt lat="28.44562" lon="98.94936">
<time>2016-10-07T11:03:46Z</time></trkpt>
<trkpt lat="28.44567" lon="98.948972">
<time>2016-10-07T11:03:47Z</time></trkpt>
<trkpt lat="28.445701" lon="98.948792">
<time>2016-10-07T11:03:48Z</time></trkpt>
<trkpt lat="28.445731" lon="98.948633">
<time>2016-10-07T11:03:49Z</time></trkpt>
<trkpt lat="28.445781" lon="98.948443">
<time>2016-10-07T11:03:50Z</time></trkpt>
<trkpt lat="28.445822" lon="98.948324">
<time>2016-10-07T11:03:51Z</time></trkpt>
<trkpt lat="28.445892" lon="98.948134">
<time>2016-10-07T11:03:52Z</time></trkpt>
<trkpt lat="28.445952" lon="98.947955">
<time>2016-10-07T11:03:53Z</time></trkpt>
<trkpt lat="28.446003" lon="98.947805">
<time>2016-10-07T11:03:54Z</time></trkpt>
<trkpt lat="28.446043" lon="98.947656">
<time>2016-10-07T11:03:55Z</time></trkpt>
<trkpt lat="28.446073" lon="98.947526">
<time>2016-10-07T11:03:56Z</time></trkpt>
<trkpt lat="28.446083" lon="98.947436">
<time>2016-10-07T11:03:57Z</time></trkpt>
<trkpt lat="28.446104" lon="98.947267">
<time>2016-10-07T11:03:58Z</time></trkpt>
<trkpt lat="28.446114" lon="98.947137">
<time>2016-10-07T11:03:59Z</time></trkpt>
<trkpt lat="28.446124" lon="98.946978">
<time>2016-10-07T11:04:00Z</time></trkpt>
<trkpt lat="28.446125" lon="98.946848">
<time>2016-10-07T11:04:01Z</time></trkpt>
<trkpt lat="28.446105" lon="98.946679">
<time>2016-10-07T11:04:02Z</time></trkpt>
<trkpt lat="28.446075" lon="98.946499">
<time>2016-10-07T11:04:03Z</time></trkpt>
<trkpt lat="28.446016" lon="98.94625">
<time>2016-10-07T11:04:04Z</time></trkpt>
<trkpt lat="28.445877" lon="98.945801">
<time>2016-10-07T11:04:05Z</time></trkpt>
<trkpt lat="28.445837" lon="98.945602">
<time>2016-10-07T11:04:06Z</time></trkpt>
<trkpt lat="28.445817" lon="98.945482">
<time>2016-10-07T11:04:07Z</time></trkpt>
<trkpt lat="28.445807" lon="98.945393">
<time>2016-10-07T11:04:08Z</time></trkpt>
<trkpt lat="28.445808" lon="98.945343">
<time>2016-10-07T11:04:09Z</time></trkpt>
<trkpt lat="28.445798" lon="98.945273">
<time>2016-10-07T11:04:10Z</time></trkpt>
<trkpt lat="28.445808" lon="98.945143">
<time>2016-10-07T11:04:11Z</time></trkpt>
<trkpt lat="28.445818" lon="98.945044">
<time>2016-10-07T11:04:12Z</time></trkpt>
<trkpt lat="28.445838" lon="98.944944">
<time>2016-10-07T11:04:13Z</time></trkpt>
<trkpt lat="28.445858" lon="98.944874">
<time>2016-10-07T11:04:14Z</time></trkpt>
<trkpt lat="28.445879" lon="98.944784">
<time>2016-10-07T11:04:15Z</time></trkpt>
<trkpt lat="28.445909" lon="98.944715">
<time>2016-10-07T11:04:16Z</time></trkpt>
<trkpt lat="28.445949" lon="98.944635">
<time>2016-10-07T11:04:17Z</time></trkpt>
<trkpt lat="28.445999" lon="98.944535">
<time>2016-10-07T11:04:18Z</time></trkpt>
<trkpt lat="28.446049" lon="98.944445">
<time>2016-10-07T11:04:19Z</time></trkpt>
<trkpt lat="28.446159" lon="98.944306">
<time>2016-10-07T11:04:20Z</time></trkpt>
<trkpt lat="28.44626" lon="98.944196">
<time>2016-10-07T11:04:21Z</time></trkpt>
<trkpt lat="28.44639" lon="98.944087">
<time>2016-10-07T11:04:22Z</time></trkpt>
<trkpt lat="28.447591" lon="98.943079">
<time>2016-10-07T11:04:23Z</time></trkpt>
<trkpt lat="28.447671" lon="98.94302">
<time>2016-10-07T11:04:24Z</time></trkpt>
<trkpt lat="28.447892" lon="98.94284">
<time>2016-10-07T11:04:25Z</time></trkpt>
<trkpt lat="28.448242" lon="98.942541">
<time>2016-10-07T11:04:26Z</time></trkpt>
<trkpt lat="28.448422" lon="98.942352">
<time>2016-10-07T11:04:27Z</time></trkpt>
<trkpt lat="28.448513" lon="98.942252">
<time>2016-10-07T11:04:28Z</time></trkpt>
<trkpt lat="28.448563" lon="98.942172">
<time>2016-10-07T11:04:29Z</time></trkpt>
<trkpt lat="28.448643" lon="98.942003">
<time>2016-10-07T11:04:30Z</time></trkpt>
<trkpt lat="28.448663" lon="98.941903">
<time>2016-10-07T11:04:31Z</time></trkpt>
<trkpt lat="28.448693" lon="98.941783">
<time>2016-10-07T11:04:32Z</time></trkpt>
<trkpt lat="28.448734" lon="98.941524">
<time>2016-10-07T11:04:33Z</time></trkpt>
<trkpt lat="28.448764" lon="98.941334">
<time>2016-10-07T11:04:34Z</time></trkpt>
<trkpt lat="28.448805" lon="98.940926">
<time>2016-10-07T11:04:35Z</time></trkpt>
<trkpt lat="28.448855" lon="98.940537">
<time>2016-10-07T11:04:36Z</time></trkpt>
<trkpt lat="28.448916" lon="98.940108">
<time>2016-10-07T11:04:37Z</time></trkpt>
<trkpt lat="28.448916" lon="98.940108">
<time>2016-10-07T11:04:38Z</time></trkpt>
<trkpt lat="28.449017" lon="98.939908">
<time>2016-10-07T11:04:39Z</time></trkpt>
<trkpt lat="28.449117" lon="98.939749">
<time>2016-10-07T11:04:40Z</time></trkpt>
<trkpt lat="28.449307" lon="98.939579">
<time>2016-10-07T11:04:41Z</time></trkpt>
<trkpt lat="28.449627" lon="98.93933">
<time>2016-10-07T11:04:42Z</time></trkpt>
<trkpt lat="28.449808" lon="98.93918">
<time>2016-10-07T11:04:43Z</time></trkpt>
<trkpt lat="28.449858" lon="98.939141">
<time>2016-10-07T11:04:44Z</time></trkpt>
<trkpt lat="28.451319" lon="98.938044">
<time>2016-10-07T11:04:45Z</time></trkpt>
<trkpt lat="28.453901" lon="98.936079">
<time>2016-10-07T11:04:46Z</time></trkpt>
<trkpt lat="28.458996" lon="98.932218">
<time>2016-10-07T11:04:47Z</time></trkpt>
<trkpt lat="28.460487" lon="98.931101">
<time>2016-10-07T11:04:48Z</time></trkpt>
<trkpt lat="28.461197" lon="98.930572">
<time>2016-10-07T11:04:49Z</time></trkpt>
<trkpt lat="28.461578" lon="98.930283">
<time>2016-10-07T11:04:50Z</time></trkpt>
<trkpt lat="28.461678" lon="98.930223">
<time>2016-10-07T11:04:51Z</time></trkpt>
<trkpt lat="28.461858" lon="98.930113">
<time>2016-10-07T11:04:52Z</time></trkpt>
<trkpt lat="28.461858" lon="98.930113">
<time>2016-10-07T11:04:53Z</time></trkpt>
<trkpt lat="28.461948" lon="98.930103">
<time>2016-10-07T11:04:54Z</time></trkpt>
<trkpt lat="28.462078" lon="98.930083">
<time>2016-10-07T11:04:55Z</time></trkpt>
<trkpt lat="28.462228" lon="98.930053">
<time>2016-10-07T11:04:56Z</time></trkpt>
<trkpt lat="28.462308" lon="98.930053">
<time>2016-10-07T11:04:57Z</time></trkpt>
<trkpt lat="28.462588" lon="98.930013">
<time>2016-10-07T11:04:58Z</time></trkpt>
<trkpt lat="28.462638" lon="98.930013">
<time>2016-10-07T11:04:59Z</time></trkpt>
<trkpt lat="28.462918" lon="98.930013">
<time>2016-10-07T11:05:00Z</time></trkpt>
<trkpt lat="28.463097" lon="98.929983">
<time>2016-10-07T11:05:01Z</time></trkpt>
<trkpt lat="28.463258" lon="98.929924">
<time>2016-10-07T11:05:02Z</time></trkpt>
<trkpt lat="28.463548" lon="98.929774">
<time>2016-10-07T11:05:03Z</time></trkpt>
<trkpt lat="28.463848" lon="98.929594">
<time>2016-10-07T11:05:04Z</time></trkpt>
<trkpt lat="28.464568" lon="98.929195">
<time>2016-10-07T11:05:05Z</time></trkpt>
<trkpt lat="28.464908" lon="98.928976">
<time>2016-10-07T11:05:06Z</time></trkpt>
<trkpt lat="28.465108" lon="98.928796">
<time>2016-10-07T11:05:07Z</time></trkpt>
<trkpt lat="28.465319" lon="98.928597">
<time>2016-10-07T11:05:08Z</time></trkpt>
<trkpt lat="28.465479" lon="98.928407">
<time>2016-10-07T11:05:09Z</time></trkpt>
<trkpt lat="28.465699" lon="98.928187">
<time>2016-10-07T11:05:10Z</time></trkpt>
<trkpt lat="28.465999" lon="98.927998">
<time>2016-10-07T11:05:11Z</time></trkpt>
<trkpt lat="28.466489" lon="98.927768">
<time>2016-10-07T11:05:12Z</time></trkpt>
<trkpt lat="28.466779" lon="98.927649">
<time>2016-10-07T11:05:13Z</time></trkpt>
<trkpt lat="28.467019" lon="98.927599">
<time>2016-10-07T11:05:14Z</time></trkpt>
<trkpt lat="28.467119" lon="98.927589">
<time>2016-10-07T11:05:15Z</time></trkpt>
<trkpt lat="28.467279" lon="98.927599">
<time>2016-10-07T11:05:16Z</time></trkpt>
<trkpt lat="28.467529" lon="98.927639">
<time>2016-10-07T11:05:17Z</time></trkpt>
<trkpt lat="28.467839" lon="98.927688">
<time>2016-10-07T11:05:18Z</time></trkpt>
<trkpt lat="28.468269" lon="98.927778">
<time>2016-10-07T11:05:19Z</time></trkpt>
<trkpt lat="28.468728" lon="98.927888">
<time>2016-10-07T11:05:20Z</time></trkpt>
<trkpt lat="28.469158" lon="98.927968">
<time>2016-10-07T11:05:21Z</time></trkpt>
<trkpt lat="28.469288" lon="98.927978">
<time>2016-10-07T11:05:22Z</time></trkpt>
<trkpt lat="28.469428" lon="98.927978">
<time>2016-10-07T11:05:23Z</time></trkpt>
<trkpt lat="28.469608" lon="98.927948">
<time>2016-10-07T11:05:24Z</time></trkpt>
<trkpt lat="28.469698" lon="98.927928">
<time>2016-10-07T11:05:25Z</time></trkpt>
<trkpt lat="28.469798" lon="98.927888">
<time>2016-10-07T11:05:26Z</time></trkpt>
<trkpt lat="28.470028" lon="98.927758">
<time>2016-10-07T11:05:27Z</time></trkpt>
<trkpt lat="28.470208" lon="98.927649">
<time>2016-10-07T11:05:28Z</time></trkpt>
<trkpt lat="28.470398" lon="98.927549">
<time>2016-10-07T11:05:29Z</time></trkpt>
<trkpt lat="28.470578" lon="98.927479">
<time>2016-10-07T11:05:30Z</time></trkpt>
<trkpt lat="28.470758" lon="98.927419">
<time>2016-10-07T11:05:31Z</time></trkpt>
<trkpt lat="28.470908" lon="98.927409">
<time>2016-10-07T11:05:32Z</time></trkpt>
<trkpt lat="28.471298" lon="98.927409">
<time>2016-10-07T11:05:33Z</time></trkpt>
<trkpt lat="28.471618" lon="98.927409">
<time>2016-10-07T11:05:34Z</time></trkpt>
<trkpt lat="28.471828" lon="98.927389">
<time>2016-10-07T11:05:35Z</time></trkpt>
<trkpt lat="28.471948" lon="98.927369">
<time>2016-10-07T11:05:36Z</time></trkpt>
<trkpt lat="28.472158" lon="98.927319">
<time>2016-10-07T11:05:37Z</time></trkpt>
<trkpt lat="28.472438" lon="98.927229">
<time>2016-10-07T11:05:38Z</time></trkpt>
<trkpt lat="28.472728" lon="98.92708">
<time>2016-10-07T11:05:39Z</time></trkpt>
<trkpt lat="28.472988" lon="98.92693">
<time>2016-10-07T11:05:40Z</time></trkpt>
<trkpt lat="28.473138" lon="98.92682">
<time>2016-10-07T11:05:41Z</time></trkpt>
<trkpt lat="28.473309" lon="98.926671">
<time>2016-10-07T11:05:42Z</time></trkpt>
<trkpt lat="28.473459" lon="98.926501">
<time>2016-10-07T11:05:43Z</time></trkpt>
<trkpt lat="28.473699" lon="98.926212">
<time>2016-10-07T11:05:44Z</time></trkpt>
<trkpt lat="28.473819" lon="98.926022">
<time>2016-10-07T11:05:45Z</time></trkpt>
<trkpt lat="28.473949" lon="98.925802">
<time>2016-10-07T11:05:46Z</time></trkpt>
<trkpt lat="28.47416" lon="98.925433">
<time>2016-10-07T11:05:47Z</time></trkpt>
<trkpt lat="28.47425" lon="98.925134">
<time>2016-10-07T11:05:48Z</time></trkpt>
<trkpt lat="28.47433" lon="98.924804">
<time>2016-10-07T11:05:49Z</time></trkpt>
<trkpt lat="28.474381" lon="98.924525">
<time>2016-10-07T11:05:50Z</time></trkpt>
<trkpt lat="28.474431" lon="98.924236">
<time>2016-10-07T11:05:51Z</time></trkpt>
<trkpt lat="28.474471" lon="98.924096">
<time>2016-10-07T11:05:52Z</time></trkpt>
<trkpt lat="28.474511" lon="98.924006">
<time>2016-10-07T11:05:53Z</time></trkpt>
<trkpt lat="28.474571" lon="98.923916">
<time>2016-10-07T11:05:54Z</time></trkpt>
<trkpt lat="28.474651" lon="98.923836">
<time>2016-10-07T11:05:55Z</time></trkpt>
<trkpt lat="28.474691" lon="98.923806">
<time>2016-10-07T11:05:56Z</time></trkpt>
<trkpt lat="28.474741" lon="98.923777">
<time>2016-10-07T11:05:57Z</time></trkpt>
<trkpt lat="28.474841" lon="98.923737">
<time>2016-10-07T11:05:58Z</time></trkpt>
<trkpt lat="28.474921" lon="98.923717">
<time>2016-10-07T11:05:59Z</time></trkpt>
<trkpt lat="28.475021" lon="98.923707">
<time>2016-10-07T11:06:00Z</time></trkpt>
<trkpt lat="28.475121" lon="98.923717">
<time>2016-10-07T11:06:01Z</time></trkpt>
<trkpt lat="28.475261" lon="98.923757">
<time>2016-10-07T11:06:02Z</time></trkpt>
<trkpt lat="28.475601" lon="98.923896">
<time>2016-10-07T11:06:03Z</time></trkpt>
<trkpt lat="28.475931" lon="98.924056">
<time>2016-10-07T11:06:04Z</time></trkpt>
<trkpt lat="28.47604" lon="98.924106">
<time>2016-10-07T11:06:05Z</time></trkpt>
<trkpt lat="28.47618" lon="98.924206">
<time>2016-10-07T11:06:06Z</time></trkpt>
<trkpt lat="28.47633" lon="98.924325">
<time>2016-10-07T11:06:07Z</time></trkpt>
<trkpt lat="28.47661" lon="98.924555">
<time>2016-10-07T11:06:08Z</time></trkpt>
<trkpt lat="28.476979" lon="98.924854">
<time>2016-10-07T11:06:09Z</time></trkpt>
<trkpt lat="28.477309" lon="98.925134">
<time>2016-10-07T11:06:10Z</time></trkpt>
<trkpt lat="28.477549" lon="98.925343">
<time>2016-10-07T11:06:11Z</time></trkpt>
<trkpt lat="28.477709" lon="98.925483">
<time>2016-10-07T11:06:12Z</time></trkpt>
<trkpt lat="28.477788" lon="98.925543">
<time>2016-10-07T11:06:13Z</time></trkpt>
<trkpt lat="28.478078" lon="98.925772">
<time>2016-10-07T11:06:14Z</time></trkpt>
<trkpt lat="28.478218" lon="98.925872">
<time>2016-10-07T11:06:15Z</time></trkpt>
<trkpt lat="28.478318" lon="98.925932">
<time>2016-10-07T11:06:16Z</time></trkpt>
<trkpt lat="28.478368" lon="98.925952">
<time>2016-10-07T11:06:17Z</time></trkpt>
<trkpt lat="28.478428" lon="98.925972">
<time>2016-10-07T11:06:18Z</time></trkpt>
<trkpt lat="28.478498" lon="98.925982">
<time>2016-10-07T11:06:19Z</time></trkpt>
<trkpt lat="28.478538" lon="98.925992">
<time>2016-10-07T11:06:20Z</time></trkpt>
<trkpt lat="28.478608" lon="98.925992">
<time>2016-10-07T11:06:21Z</time></trkpt>
<trkpt lat="28.478668" lon="98.925982">
<time>2016-10-07T11:06:22Z</time></trkpt>
<trkpt lat="28.478758" lon="98.925972">
<time>2016-10-07T11:06:23Z</time></trkpt>
<trkpt lat="28.478788" lon="98.925952">
<time>2016-10-07T11:06:24Z</time></trkpt>
<trkpt lat="28.478838" lon="98.925932">
<time>2016-10-07T11:06:25Z</time></trkpt>
<trkpt lat="28.478888" lon="98.925902">
<time>2016-10-07T11:06:26Z</time></trkpt>
<trkpt lat="28.478958" lon="98.925852">
<time>2016-10-07T11:06:27Z</time></trkpt>
<trkpt lat="28.479008" lon="98.925792">
<time>2016-10-07T11:06:28Z</time></trkpt>
<trkpt lat="28.479068" lon="98.925722">
<time>2016-10-07T11:06:29Z</time></trkpt>
<trkpt lat="28.479118" lon="98.925623">
<time>2016-10-07T11:06:30Z</time></trkpt>
<trkpt lat="28.479158" lon="98.925563">
<time>2016-10-07T11:06:31Z</time></trkpt>
<trkpt lat="28.479178" lon="98.925473">
<time>2016-10-07T11:06:32Z</time></trkpt>
<trkpt lat="28.479198" lon="98.925373">
<time>2016-10-07T11:06:33Z</time></trkpt>
<trkpt lat="28.479198" lon="98.925224">
<time>2016-10-07T11:06:34Z</time></trkpt>
<trkpt lat="28.479169" lon="98.924974">
<time>2016-10-07T11:06:35Z</time></trkpt>
<trkpt lat="28.479119" lon="98.924675">
<time>2016-10-07T11:06:36Z</time></trkpt>
<trkpt lat="28.479039" lon="98.924226">
<time>2016-10-07T11:06:37Z</time></trkpt>
<trkpt lat="28.47898" lon="98.923856">
<time>2016-10-07T11:06:38Z</time></trkpt>
<trkpt lat="28.47898" lon="98.923776">
<time>2016-10-07T11:06:39Z</time></trkpt>
<trkpt lat="28.47898" lon="98.923747">
<time>2016-10-07T11:06:40Z</time></trkpt>
<trkpt lat="28.47899" lon="98.923637">
<time>2016-10-07T11:06:41Z</time></trkpt>
<trkpt lat="28.47903" lon="98.923467">
<time>2016-10-07T11:06:42Z</time></trkpt>
<trkpt lat="28.47903" lon="98.923457">
<time>2016-10-07T11:06:43Z</time></trkpt>
<trkpt lat="28.47909" lon="98.923287">
<time>2016-10-07T11:06:44Z</time></trkpt>
<trkpt lat="28.479161" lon="98.923088">
<time>2016-10-07T11:06:45Z</time></trkpt>
<trkpt lat="28.479221" lon="98.922838">
<time>2016-10-07T11:06:46Z</time></trkpt>
<trkpt lat="28.479241" lon="98.922748">
<time>2016-10-07T11:06:47Z</time></trkpt>
<trkpt lat="28.479241" lon="98.922728">
<time>2016-10-07T11:06:48Z</time></trkpt>
<trkpt lat="28.479251" lon="98.922609">
<time>2016-10-07T11:06:49Z</time></trkpt>
<trkpt lat="28.479271" lon="98.922389">
<time>2016-10-07T11:06:50Z</time></trkpt>
<trkpt lat="28.479282" lon="98.92192">
<time>2016-10-07T11:06:51Z</time></trkpt>
<trkpt lat="28.479292" lon="98.92179">
<time>2016-10-07T11:06:52Z</time></trkpt>
<trkpt lat="28.479302" lon="98.92176">
<time>2016-10-07T11:06:53Z</time></trkpt>
<trkpt lat="28.479312" lon="98.92171">
<time>2016-10-07T11:06:54Z</time></trkpt>
<trkpt lat="28.479342" lon="98.921661">
<time>2016-10-07T11:06:55Z</time></trkpt>
<trkpt lat="28.479412" lon="98.921601">
<time>2016-10-07T11:06:56Z</time></trkpt>
<trkpt lat="28.479472" lon="98.921551">
<time>2016-10-07T11:06:57Z</time></trkpt>
<trkpt lat="28.479522" lon="98.921521">
<time>2016-10-07T11:06:58Z</time></trkpt>
<trkpt lat="28.479632" lon="98.921481">
<time>2016-10-07T11:06:59Z</time></trkpt>
<trkpt lat="28.479912" lon="98.921471">
<time>2016-10-07T11:07:00Z</time></trkpt>
<trkpt lat="28.480162" lon="98.921471">
<time>2016-10-07T11:07:01Z</time></trkpt>
<trkpt lat="28.480322" lon="98.921461">
<time>2016-10-07T11:07:02Z</time></trkpt>
<trkpt lat="28.480642" lon="98.921441">
<time>2016-10-07T11:07:03Z</time></trkpt>
<trkpt lat="28.480862" lon="98.921411">
<time>2016-10-07T11:07:04Z</time></trkpt>
<trkpt lat="28.481022" lon="98.921391">
<time>2016-10-07T11:07:05Z</time></trkpt>
<trkpt lat="28.481372" lon="98.921311">
<time>2016-10-07T11:07:06Z</time></trkpt>
<trkpt lat="28.481552" lon="98.921251">
<time>2016-10-07T11:07:07Z</time></trkpt>
<trkpt lat="28.481662" lon="98.921211">
<time>2016-10-07T11:07:08Z</time></trkpt>
<trkpt lat="28.481782" lon="98.921141">
<time>2016-10-07T11:07:09Z</time></trkpt>
<trkpt lat="28.481862" lon="98.921082">
<time>2016-10-07T11:07:10Z</time></trkpt>
<trkpt lat="28.481932" lon="98.921012">
<time>2016-10-07T11:07:11Z</time></trkpt>
<trkpt lat="28.482092" lon="98.920852">
<time>2016-10-07T11:07:12Z</time></trkpt>
<trkpt lat="28.482192" lon="98.920722">
<time>2016-10-07T11:07:13Z</time></trkpt>
<trkpt lat="28.482252" lon="98.920642">
<time>2016-10-07T11:07:14Z</time></trkpt>
<trkpt lat="28.482332" lon="98.920513">
<time>2016-10-07T11:07:15Z</time></trkpt>
<trkpt lat="28.482422" lon="98.920343">
<time>2016-10-07T11:07:16Z</time></trkpt>
<trkpt lat="28.482512" lon="98.920223">
<time>2016-10-07T11:07:17Z</time></trkpt>
<trkpt lat="28.482562" lon="98.920143">
<time>2016-10-07T11:07:18Z</time></trkpt>
<trkpt lat="28.482632" lon="98.920073">
<time>2016-10-07T11:07:19Z</time></trkpt>
<trkpt lat="28.482692" lon="98.920023">
<time>2016-10-07T11:07:20Z</time></trkpt>
<trkpt lat="28.482832" lon="98.919944">
<time>2016-10-07T11:07:21Z</time></trkpt>
<trkpt lat="28.483032" lon="98.919864">
<time>2016-10-07T11:07:22Z</time></trkpt>
<trkpt lat="28.483182" lon="98.919794">
<time>2016-10-07T11:07:23Z</time></trkpt>
<trkpt lat="28.483332" lon="98.919724">
<time>2016-10-07T11:07:24Z</time></trkpt>
<trkpt lat="28.483382" lon="98.919704">
<time>2016-10-07T11:07:25Z</time></trkpt>
<trkpt lat="28.483532" lon="98.919604">
<time>2016-10-07T11:07:26Z</time></trkpt>
<trkpt lat="28.483702" lon="98.919454">
<time>2016-10-07T11:07:27Z</time></trkpt>
<trkpt lat="28.483822" lon="98.919335">
<time>2016-10-07T11:07:28Z</time></trkpt>
<trkpt lat="28.483983" lon="98.919205">
<time>2016-10-07T11:07:29Z</time></trkpt>
<trkpt lat="28.484123" lon="98.919095">
<time>2016-10-07T11:07:30Z</time></trkpt>
<trkpt lat="28.484223" lon="98.919035">
<time>2016-10-07T11:07:31Z</time></trkpt>
<trkpt lat="28.484363" lon="98.918965">
<time>2016-10-07T11:07:32Z</time></trkpt>
<trkpt lat="28.484513" lon="98.918915">
<time>2016-10-07T11:07:33Z</time></trkpt>
<trkpt lat="28.484623" lon="98.918875">
<time>2016-10-07T11:07:34Z</time></trkpt>
<trkpt lat="28.484773" lon="98.918836">
<time>2016-10-07T11:07:35Z</time></trkpt>
<trkpt lat="28.484863" lon="98.918826">
<time>2016-10-07T11:07:36Z</time></trkpt>
<trkpt lat="28.484933" lon="98.918826">
<time>2016-10-07T11:07:37Z</time></trkpt>
<trkpt lat="28.485122" lon="98.918826">
<time>2016-10-07T11:07:38Z</time></trkpt>
<trkpt lat="28.485332" lon="98.918836">
<time>2016-10-07T11:07:39Z</time></trkpt>
<trkpt lat="28.485642" lon="98.918845">
<time>2016-10-07T11:07:40Z</time></trkpt>
<trkpt lat="28.485922" lon="98.918855">
<time>2016-10-07T11:07:41Z</time></trkpt>
<trkpt lat="28.486132" lon="98.918836">
<time>2016-10-07T11:07:42Z</time></trkpt>
<trkpt lat="28.486342" lon="98.918796">
<time>2016-10-07T11:07:43Z</time></trkpt>
<trkpt lat="28.486492" lon="98.918746">
<time>2016-10-07T11:07:44Z</time></trkpt>
<trkpt lat="28.486622" lon="98.918696">
<time>2016-10-07T11:07:45Z</time></trkpt>
<trkpt lat="28.486812" lon="98.918596">
<time>2016-10-07T11:07:46Z</time></trkpt>
<trkpt lat="28.487052" lon="98.918436">
<time>2016-10-07T11:07:47Z</time></trkpt>
<trkpt lat="28.487172" lon="98.918356">
<time>2016-10-07T11:07:48Z</time></trkpt>
<trkpt lat="28.487282" lon="98.918306">
<time>2016-10-07T11:07:49Z</time></trkpt>
<trkpt lat="28.487382" lon="98.918256">
<time>2016-10-07T11:07:50Z</time></trkpt>
<trkpt lat="28.487482" lon="98.918237">
<time>2016-10-07T11:07:51Z</time></trkpt>
<trkpt lat="28.487652" lon="98.918187">
<time>2016-10-07T11:07:52Z</time></trkpt>
<trkpt lat="28.487752" lon="98.918147">
<time>2016-10-07T11:07:53Z</time></trkpt>
<trkpt lat="28.487852" lon="98.918107">
<time>2016-10-07T11:07:54Z</time></trkpt>
<trkpt lat="28.487942" lon="98.918057">
<time>2016-10-07T11:07:55Z</time></trkpt>
<trkpt lat="28.488062" lon="98.917987">
<time>2016-10-07T11:07:56Z</time></trkpt>
<trkpt lat="28.488142" lon="98.917927">
<time>2016-10-07T11:07:57Z</time></trkpt>
<trkpt lat="28.488262" lon="98.917867">
<time>2016-10-07T11:07:58Z</time></trkpt>
<trkpt lat="28.488372" lon="98.917817">
<time>2016-10-07T11:07:59Z</time></trkpt>
<trkpt lat="28.488442" lon="98.917807">
<time>2016-10-07T11:08:00Z</time></trkpt>
<trkpt lat="28.488532" lon="98.917797">
<time>2016-10-07T11:08:01Z</time></trkpt>
<trkpt lat="28.488712" lon="98.917817">
<time>2016-10-07T11:08:02Z</time></trkpt>
<trkpt lat="28.488932" lon="98.917847">
<time>2016-10-07T11:08:03Z</time></trkpt>
<trkpt lat="28.489002" lon="98.917827">
<time>2016-10-07T11:08:04Z</time></trkpt>
<trkpt lat="28.489052" lon="98.917817">
<time>2016-10-07T11:08:05Z</time></trkpt>
<trkpt lat="28.489122" lon="98.917787">
<time>2016-10-07T11:08:06Z</time></trkpt>
<trkpt lat="28.489162" lon="98.917757">
<time>2016-10-07T11:08:07Z</time></trkpt>
<trkpt lat="28.489212" lon="98.917697">
<time>2016-10-07T11:08:08Z</time></trkpt>
<trkpt lat="28.489252" lon="98.917637">
<time>2016-10-07T11:08:09Z</time></trkpt>
<trkpt lat="28.489272" lon="98.917568">
<time>2016-10-07T11:08:10Z</time></trkpt>
<trkpt lat="28.489282" lon="98.917478">
<time>2016-10-07T11:08:11Z</time></trkpt>
<trkpt lat="28.489282" lon="98.917438">
<time>2016-10-07T11:08:12Z</time></trkpt>
<trkpt lat="28.489272" lon="98.917388">
<time>2016-10-07T11:08:13Z</time></trkpt>
<trkpt lat="28.489252" lon="98.917338">
<time>2016-10-07T11:08:14Z</time></trkpt>
<trkpt lat="28.489222" lon="98.917278">
<time>2016-10-07T11:08:15Z</time></trkpt>
<trkpt lat="28.489172" lon="98.917218">
<time>2016-10-07T11:08:16Z</time></trkpt>
<trkpt lat="28.489102" lon="98.917158">
<time>2016-10-07T11:08:17Z</time></trkpt>
<trkpt lat="28.488913" lon="98.917058">
<time>2016-10-07T11:08:18Z</time></trkpt>
<trkpt lat="28.488523" lon="98.916859">
<time>2016-10-07T11:08:19Z</time></trkpt>
<trkpt lat="28.487903" lon="98.916639">
<time>2016-10-07T11:08:20Z</time></trkpt>
<trkpt lat="28.487703" lon="98.916549">
<time>2016-10-07T11:08:21Z</time></trkpt>
<trkpt lat="28.487583" lon="98.916499">
<time>2016-10-07T11:08:22Z</time></trkpt>
<trkpt lat="28.487513" lon="98.916439">
<time>2016-10-07T11:08:23Z</time></trkpt>
<trkpt lat="28.487493" lon="98.91642">
<time>2016-10-07T11:08:24Z</time></trkpt>
<trkpt lat="28.487464" lon="98.91636">
<time>2016-10-07T11:08:25Z</time></trkpt>
<trkpt lat="28.487424" lon="98.91629">
<time>2016-10-07T11:08:26Z</time></trkpt>
<trkpt lat="28.487424" lon="98.91623">
<time>2016-10-07T11:08:27Z</time></trkpt>
<trkpt lat="28.487424" lon="98.91618">
<time>2016-10-07T11:08:28Z</time></trkpt>
<trkpt lat="28.487424" lon="98.91614">
<time>2016-10-07T11:08:29Z</time></trkpt>
<trkpt lat="28.487444" lon="98.91603">
<time>2016-10-07T11:08:30Z</time></trkpt>
<trkpt lat="28.487464" lon="98.91595">
<time>2016-10-07T11:08:31Z</time></trkpt>
<trkpt lat="28.487494" lon="98.91586">
<time>2016-10-07T11:08:32Z</time></trkpt>
<trkpt lat="28.487534" lon="98.915791">
<time>2016-10-07T11:08:33Z</time></trkpt>
<trkpt lat="28.487604" lon="98.915721">
<time>2016-10-07T11:08:34Z</time></trkpt>
<trkpt lat="28.487654" lon="98.915681">
<time>2016-10-07T11:08:35Z</time></trkpt>
<trkpt lat="28.487774" lon="98.915601">
<time>2016-10-07T11:08:36Z</time></trkpt>
<trkpt lat="28.488014" lon="98.915441">
<time>2016-10-07T11:08:37Z</time></trkpt>
<trkpt lat="28.488174" lon="98.915291">
<time>2016-10-07T11:08:38Z</time></trkpt>
<trkpt lat="28.488254" lon="98.915211">
<time>2016-10-07T11:08:39Z</time></trkpt>
<trkpt lat="28.488344" lon="98.915082">
<time>2016-10-07T11:08:40Z</time></trkpt>
<trkpt lat="28.488444" lon="98.914882">
<time>2016-10-07T11:08:41Z</time></trkpt>
<trkpt lat="28.488574" lon="98.914542">
<time>2016-10-07T11:08:42Z</time></trkpt>
<trkpt lat="28.488684" lon="98.914163">
<time>2016-10-07T11:08:43Z</time></trkpt>
<trkpt lat="28.488775" lon="98.913853">
<time>2016-10-07T11:08:44Z</time></trkpt>
<trkpt lat="28.488855" lon="98.913504">
<time>2016-10-07T11:08:45Z</time></trkpt>
<trkpt lat="28.488915" lon="98.913254">
<time>2016-10-07T11:08:46Z</time></trkpt>
<trkpt lat="28.489055" lon="98.912825">
<time>2016-10-07T11:08:47Z</time></trkpt>
<trkpt lat="28.489195" lon="98.912455">
<time>2016-10-07T11:08:48Z</time></trkpt>
<trkpt lat="28.489275" lon="98.912166">
<time>2016-10-07T11:08:49Z</time></trkpt>
<trkpt lat="28.489385" lon="98.911816">
<time>2016-10-07T11:08:50Z</time></trkpt>
<trkpt lat="28.489466" lon="98.911497">
<time>2016-10-07T11:08:51Z</time></trkpt>
<trkpt lat="28.489506" lon="98.911277">
<time>2016-10-07T11:08:52Z</time></trkpt>
<trkpt lat="28.489526" lon="98.911097">
<time>2016-10-07T11:08:53Z</time></trkpt>
<trkpt lat="28.489526" lon="98.911097">
<time>2016-10-07T11:08:54Z</time></trkpt>
<trkpt lat="28.489476" lon="98.910878">
<time>2016-10-07T11:08:55Z</time></trkpt>
<trkpt lat="28.489446" lon="98.910758">
<time>2016-10-07T11:08:56Z</time></trkpt>
<trkpt lat="28.489416" lon="98.910658">
<time>2016-10-07T11:08:57Z</time></trkpt>
<trkpt lat="28.489376" lon="98.910548">
<time>2016-10-07T11:08:58Z</time></trkpt>
<trkpt lat="28.489336" lon="98.910468">
<time>2016-10-07T11:08:59Z</time></trkpt>
<trkpt lat="28.489286" lon="98.910408">
<time>2016-10-07T11:09:00Z</time></trkpt>
<trkpt lat="28.489246" lon="98.910368">
<time>2016-10-07T11:09:01Z</time></trkpt>
<trkpt lat="28.489186" lon="98.910338">
<time>2016-10-07T11:09:02Z</time></trkpt>
<trkpt lat="28.489126" lon="98.910328">
<time>2016-10-07T11:09:03Z</time></trkpt>
<trkpt lat="28.489076" lon="98.910318">
<time>2016-10-07T11:09:04Z</time></trkpt>
<trkpt lat="28.489036" lon="98.910328">
<time>2016-10-07T11:09:05Z</time></trkpt>
<trkpt lat="28.488986" lon="98.910338">
<time>2016-10-07T11:09:06Z</time></trkpt>
<trkpt lat="28.488926" lon="98.910358">
<time>2016-10-07T11:09:07Z</time></trkpt>
<trkpt lat="28.488806" lon="98.910398">
<time>2016-10-07T11:09:08Z</time></trkpt>
<trkpt lat="28.488716" lon="98.910428">
<time>2016-10-07T11:09:09Z</time></trkpt>
<trkpt lat="28.488426" lon="98.910508">
<time>2016-10-07T11:09:10Z</time></trkpt>
<trkpt lat="28.488296" lon="98.910528">
<time>2016-10-07T11:09:11Z</time></trkpt>
<trkpt lat="28.488186" lon="98.910538">
<time>2016-10-07T11:09:12Z</time></trkpt>
<trkpt lat="28.488056" lon="98.910548">
<time>2016-10-07T11:09:13Z</time></trkpt>
<trkpt lat="28.487996" lon="98.910558">
<time>2016-10-07T11:09:14Z</time></trkpt>
<trkpt lat="28.487937" lon="98.910578">
<time>2016-10-07T11:09:15Z</time></trkpt>
<trkpt lat="28.487877" lon="98.910618">
<time>2016-10-07T11:09:16Z</time></trkpt>
<trkpt lat="28.487847" lon="98.910648">
<time>2016-10-07T11:09:17Z</time></trkpt>
<trkpt lat="28.487816" lon="98.910688">
<time>2016-10-07T11:09:18Z</time></trkpt>
<trkpt lat="28.487786" lon="98.910738">
<time>2016-10-07T11:09:19Z</time></trkpt>
<trkpt lat="28.487746" lon="98.910808">
<time>2016-10-07T11:09:20Z</time></trkpt>
<trkpt lat="28.487666" lon="98.910997">
<time>2016-10-07T11:09:21Z</time></trkpt>
<trkpt lat="28.487586" lon="98.911307">
<time>2016-10-07T11:09:22Z</time></trkpt>
<trkpt lat="28.487536" lon="98.911437">
<time>2016-10-07T11:09:23Z</time></trkpt>
<trkpt lat="28.487446" lon="98.911627">
<time>2016-10-07T11:09:24Z</time></trkpt>
<trkpt lat="28.487356" lon="98.911736">
<time>2016-10-07T11:09:25Z</time></trkpt>
<trkpt lat="28.487026" lon="98.912126">
<time>2016-10-07T11:09:26Z</time></trkpt>
<trkpt lat="28.486736" lon="98.912446">
<time>2016-10-07T11:09:27Z</time></trkpt>
<trkpt lat="28.486566" lon="98.912635">
<time>2016-10-07T11:09:28Z</time></trkpt>
<trkpt lat="28.486356" lon="98.912805">
<time>2016-10-07T11:09:29Z</time></trkpt>
<trkpt lat="28.486266" lon="98.912875">
<time>2016-10-07T11:09:30Z</time></trkpt>
<trkpt lat="28.486136" lon="98.912955">
<time>2016-10-07T11:09:31Z</time></trkpt>
<trkpt lat="28.485986" lon="98.913025">
<time>2016-10-07T11:09:32Z</time></trkpt>
<trkpt lat="28.485456" lon="98.913174">
<time>2016-10-07T11:09:33Z</time></trkpt>
<trkpt lat="28.485226" lon="98.913254">
<time>2016-10-07T11:09:34Z</time></trkpt>
<trkpt lat="28.485116" lon="98.913274">
<time>2016-10-07T11:09:35Z</time></trkpt>
<trkpt lat="28.484936" lon="98.913324">
<time>2016-10-07T11:09:36Z</time></trkpt>
<trkpt lat="28.484546" lon="98.913394">
<time>2016-10-07T11:09:37Z</time></trkpt>
<trkpt lat="28.484216" lon="98.913474">
<time>2016-10-07T11:09:38Z</time></trkpt>
<trkpt lat="28.484066" lon="98.913514">
<time>2016-10-07T11:09:39Z</time></trkpt>
<trkpt lat="28.483636" lon="98.913624">
<time>2016-10-07T11:09:40Z</time></trkpt>
<trkpt lat="28.483336" lon="98.913684">
<time>2016-10-07T11:09:41Z</time></trkpt>
<trkpt lat="28.482847" lon="98.913824">
<time>2016-10-07T11:09:42Z</time></trkpt>
<trkpt lat="28.482707" lon="98.913864">
<time>2016-10-07T11:09:43Z</time></trkpt>
<trkpt lat="28.482407" lon="98.913993">
<time>2016-10-07T11:09:44Z</time></trkpt>
<trkpt lat="28.482207" lon="98.914083">
<time>2016-10-07T11:09:45Z</time></trkpt>
<trkpt lat="28.481987" lon="98.914173">
<time>2016-10-07T11:09:46Z</time></trkpt>
<trkpt lat="28.481837" lon="98.914203">
<time>2016-10-07T11:09:47Z</time></trkpt>
<trkpt lat="28.481737" lon="98.914203">
<time>2016-10-07T11:09:48Z</time></trkpt>
<trkpt lat="28.481577" lon="98.914173">
<time>2016-10-07T11:09:49Z</time></trkpt>
<trkpt lat="28.481467" lon="98.914123">
<time>2016-10-07T11:09:50Z</time></trkpt>
<trkpt lat="28.481237" lon="98.914043">
<time>2016-10-07T11:09:51Z</time></trkpt>
<trkpt lat="28.480997" lon="98.913943">
<time>2016-10-07T11:09:52Z</time></trkpt>
<trkpt lat="28.480697" lon="98.913824">
<time>2016-10-07T11:09:53Z</time></trkpt>
<trkpt lat="28.480527" lon="98.913744">
<time>2016-10-07T11:09:54Z</time></trkpt>
<trkpt lat="28.480397" lon="98.913674">
<time>2016-10-07T11:09:55Z</time></trkpt>
<trkpt lat="28.480307" lon="98.913594">
<time>2016-10-07T11:09:56Z</time></trkpt>
<trkpt lat="28.480098" lon="98.913394">
<time>2016-10-07T11:09:57Z</time></trkpt>
<trkpt lat="28.479908" lon="98.913205">
<time>2016-10-07T11:09:58Z</time></trkpt>
<trkpt lat="28.479618" lon="98.912935">
<time>2016-10-07T11:09:59Z</time></trkpt>
<trkpt lat="28.479498" lon="98.912855">
<time>2016-10-07T11:10:00Z</time></trkpt>
<trkpt lat="28.479408" lon="98.912805">
<time>2016-10-07T11:10:01Z</time></trkpt>
<trkpt lat="28.479368" lon="98.912785">
<time>2016-10-07T11:10:02Z</time></trkpt>
<trkpt lat="28.479278" lon="98.912765">
<time>2016-10-07T11:10:03Z</time></trkpt>
<trkpt lat="28.479168" lon="98.912765">
<time>2016-10-07T11:10:04Z</time></trkpt>
<trkpt lat="28.479088" lon="98.912795">
<time>2016-10-07T11:10:05Z</time></trkpt>
<trkpt lat="28.479018" lon="98.912815">
<time>2016-10-07T11:10:06Z</time></trkpt>
<trkpt lat="28.478948" lon="98.912865">
<time>2016-10-07T11:10:07Z</time></trkpt>
<trkpt lat="28.478898" lon="98.912915">
<time>2016-10-07T11:10:08Z</time></trkpt>
<trkpt lat="28.478828" lon="98.912985">
<time>2016-10-07T11:10:09Z</time></trkpt>
<trkpt lat="28.478768" lon="98.913055">
<time>2016-10-07T11:10:10Z</time></trkpt>
<trkpt lat="28.478668" lon="98.913185">
<time>2016-10-07T11:10:11Z</time></trkpt>
<trkpt lat="28.478588" lon="98.913264">
<time>2016-10-07T11:10:12Z</time></trkpt>
<trkpt lat="28.478528" lon="98.913314">
<time>2016-10-07T11:10:13Z</time></trkpt>
<trkpt lat="28.478448" lon="98.913364">
<time>2016-10-07T11:10:14Z</time></trkpt>
<trkpt lat="28.478358" lon="98.913384">
<time>2016-10-07T11:10:15Z</time></trkpt>
<trkpt lat="28.478218" lon="98.913394">
<time>2016-10-07T11:10:16Z</time></trkpt>
<trkpt lat="28.478068" lon="98.913374">
<time>2016-10-07T11:10:17Z</time></trkpt>
<trkpt lat="28.477928" lon="98.913364">
<time>2016-10-07T11:10:18Z</time></trkpt>
<trkpt lat="28.477848" lon="98.913374">
<time>2016-10-07T11:10:19Z</time></trkpt>
<trkpt lat="28.477708" lon="98.913394">
<time>2016-10-07T11:10:20Z</time></trkpt>
<trkpt lat="28.477538" lon="98.913444">
<time>2016-10-07T11:10:21Z</time></trkpt>
<trkpt lat="28.477338" lon="98.913504">
<time>2016-10-07T11:10:22Z</time></trkpt>
<trkpt lat="28.477188" lon="98.913554">
<time>2016-10-07T11:10:23Z</time></trkpt>
<trkpt lat="28.477138" lon="98.913574">
<time>2016-10-07T11:10:24Z</time></trkpt>
<trkpt lat="28.477068" lon="98.913584">
<time>2016-10-07T11:10:25Z</time></trkpt>
<trkpt lat="28.476988" lon="98.913594">
<time>2016-10-07T11:10:26Z</time></trkpt>
<trkpt lat="28.476859" lon="98.913584">
<time>2016-10-07T11:10:27Z</time></trkpt>
<trkpt lat="28.476729" lon="98.913554">
<time>2016-10-07T11:10:28Z</time></trkpt>
<trkpt lat="28.476619" lon="98.913514">
<time>2016-10-07T11:10:29Z</time></trkpt>
<trkpt lat="28.476489" lon="98.913444">
<time>2016-10-07T11:10:30Z</time></trkpt>
<trkpt lat="28.476399" lon="98.913374">
<time>2016-10-07T11:10:31Z</time></trkpt>
<trkpt lat="28.476289" lon="98.913255">
<time>2016-10-07T11:10:32Z</time></trkpt>
<trkpt lat="28.476179" lon="98.913125">
<time>2016-10-07T11:10:33Z</time></trkpt>
<trkpt lat="28.476129" lon="98.913035">
<time>2016-10-07T11:10:34Z</time></trkpt>
<trkpt lat="28.476079" lon="98.912915">
<time>2016-10-07T11:10:35Z</time></trkpt>
<trkpt lat="28.476049" lon="98.912845">
<time>2016-10-07T11:10:36Z</time></trkpt>
<trkpt lat="28.476019" lon="98.912745">
<time>2016-10-07T11:10:37Z</time></trkpt>
<trkpt lat="28.476009" lon="98.912665">
<time>2016-10-07T11:10:38Z</time></trkpt>
<trkpt lat="28.475979" lon="98.912536">
<time>2016-10-07T11:10:39Z</time></trkpt>
<trkpt lat="28.475979" lon="98.912426">
<time>2016-10-07T11:10:40Z</time></trkpt>
<trkpt lat="28.475969" lon="98.912286">
<time>2016-10-07T11:10:41Z</time></trkpt>
<trkpt lat="28.47594" lon="98.912146">
<time>2016-10-07T11:10:42Z</time></trkpt>
<trkpt lat="28.47592" lon="98.912046">
<time>2016-10-07T11:10:43Z</time></trkpt>
<trkpt lat="28.47587" lon="98.911956">
<time>2016-10-07T11:10:44Z</time></trkpt>
<trkpt lat="28.47583" lon="98.911906">
<time>2016-10-07T11:10:45Z</time></trkpt>
<trkpt lat="28.4758" lon="98.911877">
<time>2016-10-07T11:10:46Z</time></trkpt>
<trkpt lat="28.47576" lon="98.911847">
<time>2016-10-07T11:10:47Z</time></trkpt>
<trkpt lat="28.47568" lon="98.911797">
<time>2016-10-07T11:10:48Z</time></trkpt>
<trkpt lat="28.47551" lon="98.911737">
<time>2016-10-07T11:10:49Z</time></trkpt>
<trkpt lat="28.47532" lon="98.911707">
<time>2016-10-07T11:10:50Z</time></trkpt>
<trkpt lat="28.47519" lon="98.911677">
<time>2016-10-07T11:10:51Z</time></trkpt>
<trkpt lat="28.47504" lon="98.911647">
<time>2016-10-07T11:10:52Z</time></trkpt>
<trkpt lat="28.47488" lon="98.911627">
<time>2016-10-07T11:10:53Z</time></trkpt>
<trkpt lat="28.47479" lon="98.911607">
<time>2016-10-07T11:10:54Z</time></trkpt>
<trkpt lat="28.47468" lon="98.911597">
<time>2016-10-07T11:10:55Z</time></trkpt>
<trkpt lat="28.47459" lon="98.911597">
<time>2016-10-07T11:10:56Z</time></trkpt>
<trkpt lat="28.47448" lon="98.911607">
<time>2016-10-07T11:10:57Z</time></trkpt>
<trkpt lat="28.47443" lon="98.911607">
<time>2016-10-07T11:10:58Z</time></trkpt>
<trkpt lat="28.47437" lon="98.911637">
<time>2016-10-07T11:10:59Z</time></trkpt>
<trkpt lat="28.47431" lon="98.911667">
<time>2016-10-07T11:11:00Z</time></trkpt>
<trkpt lat="28.47424" lon="98.911707">
<time>2016-10-07T11:11:01Z</time></trkpt>
<trkpt lat="28.47416" lon="98.911787">
<time>2016-10-07T11:11:02Z</time></trkpt>
<trkpt lat="28.47409" lon="98.911897">
<time>2016-10-07T11:11:03Z</time></trkpt>
<trkpt lat="28.47401" lon="98.912036">
<time>2016-10-07T11:11:04Z</time></trkpt>
<trkpt lat="28.47396" lon="98.912176">
<time>2016-10-07T11:11:05Z</time></trkpt>
<trkpt lat="28.4739" lon="98.912316">
<time>2016-10-07T11:11:06Z</time></trkpt>
<trkpt lat="28.47386" lon="98.912456">
<time>2016-10-07T11:11:07Z</time></trkpt>
<trkpt lat="28.47381" lon="98.912586">
<time>2016-10-07T11:11:08Z</time></trkpt>
<trkpt lat="28.47373" lon="98.912725">
<time>2016-10-07T11:11:09Z</time></trkpt>
<trkpt lat="28.47366" lon="98.912855">
<time>2016-10-07T11:11:10Z</time></trkpt>
<trkpt lat="28.47357" lon="98.912965">
<time>2016-10-07T11:11:11Z</time></trkpt>
<trkpt lat="28.47349" lon="98.913045">
<time>2016-10-07T11:11:12Z</time></trkpt>
<trkpt lat="28.47341" lon="98.913105">
<time>2016-10-07T11:11:13Z</time></trkpt>
<trkpt lat="28.47336" lon="98.913145">
<time>2016-10-07T11:11:14Z</time></trkpt>
<trkpt lat="28.47332" lon="98.913165">
<time>2016-10-07T11:11:15Z</time></trkpt>
<trkpt lat="28.47317" lon="98.913235">
<time>2016-10-07T11:11:16Z</time></trkpt>
<trkpt lat="28.47306" lon="98.913265">
<time>2016-10-07T11:11:17Z</time></trkpt>
<trkpt lat="28.47298" lon="98.913285">
<time>2016-10-07T11:11:18Z</time></trkpt>
<trkpt lat="28.47283" lon="98.913295">
<time>2016-10-07T11:11:19Z</time></trkpt>
<trkpt lat="28.4727" lon="98.913275">
<time>2016-10-07T11:11:20Z</time></trkpt>
<trkpt lat="28.47248" lon="98.913205">
<time>2016-10-07T11:11:21Z</time></trkpt>
<trkpt lat="28.47237" lon="98.913165">
<time>2016-10-07T11:11:22Z</time></trkpt>
<trkpt lat="28.47225" lon="98.913135">
<time>2016-10-07T11:11:23Z</time></trkpt>
<trkpt lat="28.47217" lon="98.913135">
<time>2016-10-07T11:11:24Z</time></trkpt>
<trkpt lat="28.4721" lon="98.913145">
<time>2016-10-07T11:11:25Z</time></trkpt>
<trkpt lat="28.472" lon="98.913155">
<time>2016-10-07T11:11:26Z</time></trkpt>
<trkpt lat="28.47183" lon="98.913205">
<time>2016-10-07T11:11:27Z</time></trkpt>
<trkpt lat="28.4717" lon="98.913245">
<time>2016-10-07T11:11:28Z</time></trkpt>
<trkpt lat="28.47159" lon="98.913265">
<time>2016-10-07T11:11:29Z</time></trkpt>
<trkpt lat="28.47152" lon="98.913265">
<time>2016-10-07T11:11:30Z</time></trkpt>
<trkpt lat="28.47144" lon="98.913245">
<time>2016-10-07T11:11:31Z</time></trkpt>
<trkpt lat="28.4714" lon="98.913225">
<time>2016-10-07T11:11:32Z</time></trkpt>
<trkpt lat="28.47135" lon="98.913205">
<time>2016-10-07T11:11:33Z</time></trkpt>
<trkpt lat="28.47126" lon="98.913155">
<time>2016-10-07T11:11:34Z</time></trkpt>
<trkpt lat="28.47115" lon="98.913065">
<time>2016-10-07T11:11:35Z</time></trkpt>
<trkpt lat="28.471011" lon="98.912945">
<time>2016-10-07T11:11:36Z</time></trkpt>
<trkpt lat="28.470851" lon="98.912815">
<time>2016-10-07T11:11:37Z</time></trkpt>
<trkpt lat="28.470601" lon="98.912606">
<time>2016-10-07T11:11:38Z</time></trkpt>
<trkpt lat="28.470421" lon="98.912466">
<time>2016-10-07T11:11:39Z</time></trkpt>
<trkpt lat="28.470221" lon="98.912336">
<time>2016-10-07T11:11:40Z</time></trkpt>
<trkpt lat="28.470021" lon="98.912236">
<time>2016-10-07T11:11:41Z</time></trkpt>
<trkpt lat="28.469801" lon="98.912176">
<time>2016-10-07T11:11:42Z</time></trkpt>
<trkpt lat="28.469581" lon="98.912116">
<time>2016-10-07T11:11:43Z</time></trkpt>
<trkpt lat="28.469312" lon="98.912056">
<time>2016-10-07T11:11:44Z</time></trkpt>
<trkpt lat="28.469152" lon="98.912006">
<time>2016-10-07T11:11:45Z</time></trkpt>
<trkpt lat="28.469022" lon="98.911937">
<time>2016-10-07T11:11:46Z</time></trkpt>
<trkpt lat="28.468902" lon="98.911857">
<time>2016-10-07T11:11:47Z</time></trkpt>
<trkpt lat="28.468792" lon="98.911737">
<time>2016-10-07T11:11:48Z</time></trkpt>
<trkpt lat="28.468732" lon="98.911637">
<time>2016-10-07T11:11:49Z</time></trkpt>
<trkpt lat="28.468672" lon="98.911517">
<time>2016-10-07T11:11:50Z</time></trkpt>
<trkpt lat="28.468622" lon="98.911387">
<time>2016-10-07T11:11:51Z</time></trkpt>
<trkpt lat="28.468592" lon="98.911218">
<time>2016-10-07T11:11:52Z</time></trkpt>
<trkpt lat="28.468572" lon="98.911018">
<time>2016-10-07T11:11:53Z</time></trkpt>
<trkpt lat="28.468512" lon="98.910528">
<time>2016-10-07T11:11:54Z</time></trkpt>
<trkpt lat="28.468473" lon="98.910259">
<time>2016-10-07T11:11:55Z</time></trkpt>
<trkpt lat="28.468453" lon="98.910099">
<time>2016-10-07T11:11:56Z</time></trkpt>
<trkpt lat="28.468383" lon="98.909849">
<time>2016-10-07T11:11:57Z</time></trkpt>
<trkpt lat="28.468203" lon="98.90937">
<time>2016-10-07T11:11:58Z</time></trkpt>
<trkpt lat="28.468093" lon="98.90902">
<time>2016-10-07T11:11:59Z</time></trkpt>
<trkpt lat="28.468063" lon="98.908901">
<time>2016-10-07T11:12:00Z</time></trkpt>
<trkpt lat="28.468053" lon="98.908811">
<time>2016-10-07T11:12:01Z</time></trkpt>
<trkpt lat="28.468053" lon="98.908751">
<time>2016-10-07T11:12:02Z</time></trkpt>
<trkpt lat="28.468053" lon="98.908671">
<time>2016-10-07T11:12:03Z</time></trkpt>
<trkpt lat="28.468093" lon="98.908561">
<time>2016-10-07T11:12:04Z</time></trkpt>
<trkpt lat="28.468153" lon="98.908421">
<time>2016-10-07T11:12:05Z</time></trkpt>
<trkpt lat="28.468223" lon="98.908281">
<time>2016-10-07T11:12:06Z</time></trkpt>
<trkpt lat="28.468273" lon="98.908171">
<time>2016-10-07T11:12:07Z</time></trkpt>
<trkpt lat="28.468303" lon="98.908052">
<time>2016-10-07T11:12:08Z</time></trkpt>
<trkpt lat="28.468313" lon="98.907952">
<time>2016-10-07T11:12:09Z</time></trkpt>
<trkpt lat="28.468313" lon="98.907902">
<time>2016-10-07T11:12:10Z</time></trkpt>
<trkpt lat="28.468293" lon="98.907832">
<time>2016-10-07T11:12:11Z</time></trkpt>
<trkpt lat="28.468253" lon="98.907722">
<time>2016-10-07T11:12:12Z</time></trkpt>
<trkpt lat="28.468184" lon="98.907592">
<time>2016-10-07T11:12:13Z</time></trkpt>
<trkpt lat="28.468064" lon="98.907442">
<time>2016-10-07T11:12:14Z</time></trkpt>
<trkpt lat="28.467994" lon="98.907342">
<time>2016-10-07T11:12:15Z</time></trkpt>
<trkpt lat="28.467944" lon="98.907222">
<time>2016-10-07T11:12:16Z</time></trkpt>
<trkpt lat="28.467904" lon="98.907073">
<time>2016-10-07T11:12:17Z</time></trkpt>
<trkpt lat="28.467894" lon="98.906963">
<time>2016-10-07T11:12:18Z</time></trkpt>
<trkpt lat="28.467884" lon="98.906843">
<time>2016-10-07T11:12:19Z</time></trkpt>
<trkpt lat="28.467874" lon="98.906643">
<time>2016-10-07T11:12:20Z</time></trkpt>
<trkpt lat="28.467854" lon="98.906413">
<time>2016-10-07T11:12:21Z</time></trkpt>
<trkpt lat="28.467834" lon="98.906064">
<time>2016-10-07T11:12:22Z</time></trkpt>
<trkpt lat="28.467844" lon="98.905884">
<time>2016-10-07T11:12:23Z</time></trkpt>
<trkpt lat="28.467854" lon="98.905804">
<time>2016-10-07T11:12:24Z</time></trkpt>
<trkpt lat="28.467864" lon="98.905744">
<time>2016-10-07T11:12:25Z</time></trkpt>
<trkpt lat="28.467894" lon="98.905664">
<time>2016-10-07T11:12:26Z</time></trkpt>
<trkpt lat="28.467934" lon="98.905604">
<time>2016-10-07T11:12:27Z</time></trkpt>
<trkpt lat="28.467994" lon="98.905524">
<time>2016-10-07T11:12:28Z</time></trkpt>
<trkpt lat="28.468174" lon="98.905315">
<time>2016-10-07T11:12:29Z</time></trkpt>
<trkpt lat="28.468254" lon="98.905205">
<time>2016-10-07T11:12:30Z</time></trkpt>
<trkpt lat="28.468344" lon="98.905055">
<time>2016-10-07T11:12:31Z</time></trkpt>
<trkpt lat="28.468404" lon="98.904915">
<time>2016-10-07T11:12:32Z</time></trkpt>
<trkpt lat="28.468454" lon="98.904795">
<time>2016-10-07T11:12:33Z</time></trkpt>
<trkpt lat="28.468494" lon="98.904645">
<time>2016-10-07T11:12:34Z</time></trkpt>
<trkpt lat="28.468514" lon="98.904475">
<time>2016-10-07T11:12:35Z</time></trkpt>
<trkpt lat="28.468524" lon="98.904346">
<time>2016-10-07T11:12:36Z</time></trkpt>
<trkpt lat="28.468524" lon="98.904256">
<time>2016-10-07T11:12:37Z</time></trkpt>
<trkpt lat="28.468524" lon="98.904176">
<time>2016-10-07T11:12:38Z</time></trkpt>
<trkpt lat="28.468514" lon="98.904096">
<time>2016-10-07T11:12:39Z</time></trkpt>
<trkpt lat="28.468484" lon="98.903896">
<time>2016-10-07T11:12:40Z</time></trkpt>
<trkpt lat="28.468444" lon="98.903736">
<time>2016-10-07T11:12:41Z</time></trkpt>
<trkpt lat="28.468394" lon="98.903606">
<time>2016-10-07T11:12:42Z</time></trkpt>
<trkpt lat="28.468354" lon="98.903496">
<time>2016-10-07T11:12:43Z</time></trkpt>
<trkpt lat="28.468244" lon="98.903257">
<time>2016-10-07T11:12:44Z</time></trkpt>
<trkpt lat="28.468174" lon="98.903067">
<time>2016-10-07T11:12:45Z</time></trkpt>
<trkpt lat="28.468154" lon="98.902977">
<time>2016-10-07T11:12:46Z</time></trkpt>
<trkpt lat="28.468144" lon="98.902917">
<time>2016-10-07T11:12:47Z</time></trkpt>
<trkpt lat="28.468144" lon="98.902797">
<time>2016-10-07T11:12:48Z</time></trkpt>
<trkpt lat="28.468154" lon="98.902677">
<time>2016-10-07T11:12:49Z</time></trkpt>
<trkpt lat="28.468184" lon="98.902547">
<time>2016-10-07T11:12:50Z</time></trkpt>
<trkpt lat="28.468234" lon="98.902437">
<time>2016-10-07T11:12:51Z</time></trkpt>
<trkpt lat="28.468274" lon="98.902367">
<time>2016-10-07T11:12:52Z</time></trkpt>
<trkpt lat="28.468314" lon="98.902317">
<time>2016-10-07T11:12:53Z</time></trkpt>
<trkpt lat="28.468394" lon="98.902227">
<time>2016-10-07T11:12:54Z</time></trkpt>
<trkpt lat="28.468484" lon="98.902148">
<time>2016-10-07T11:12:55Z</time></trkpt>
<trkpt lat="28.468594" lon="98.902058">
<time>2016-10-07T11:12:56Z</time></trkpt>
<trkpt lat="28.468674" lon="98.901998">
<time>2016-10-07T11:12:57Z</time></trkpt>
<trkpt lat="28.469414" lon="98.901578">
<time>2016-10-07T11:12:58Z</time></trkpt>
<trkpt lat="28.469544" lon="98.901498">
<time>2016-10-07T11:12:59Z</time></trkpt>
<trkpt lat="28.469694" lon="98.901408">
<time>2016-10-07T11:13:00Z</time></trkpt>
<trkpt lat="28.469954" lon="98.901258">
<time>2016-10-07T11:13:01Z</time></trkpt>
<trkpt lat="28.470034" lon="98.901208">
<time>2016-10-07T11:13:02Z</time></trkpt>
<trkpt lat="28.470104" lon="98.901178">
<time>2016-10-07T11:13:03Z</time></trkpt>
<trkpt lat="28.470214" lon="98.901138">
<time>2016-10-07T11:13:04Z</time></trkpt>
<trkpt lat="28.470314" lon="98.901108">
<time>2016-10-07T11:13:05Z</time></trkpt>
<trkpt lat="28.470404" lon="98.901078">
<time>2016-10-07T11:13:06Z</time></trkpt>
<trkpt lat="28.470534" lon="98.901058">
<time>2016-10-07T11:13:07Z</time></trkpt>
<trkpt lat="28.470644" lon="98.901038">
<time>2016-10-07T11:13:08Z</time></trkpt>
<trkpt lat="28.470804" lon="98.901018">
<time>2016-10-07T11:13:09Z</time></trkpt>
<trkpt lat="28.470954" lon="98.900998">
<time>2016-10-07T11:13:10Z</time></trkpt>
<trkpt lat="28.471094" lon="98.900979">
<time>2016-10-07T11:13:11Z</time></trkpt>
<trkpt lat="28.471184" lon="98.900969">
<time>2016-10-07T11:13:12Z</time></trkpt>
<trkpt lat="28.471353" lon="98.900939">
<time>2016-10-07T11:13:13Z</time></trkpt>
<trkpt lat="28.471483" lon="98.900909">
<time>2016-10-07T11:13:14Z</time></trkpt>
<trkpt lat="28.471603" lon="98.900849">
<time>2016-10-07T11:13:15Z</time></trkpt>
<trkpt lat="28.471703" lon="98.900779">
<time>2016-10-07T11:13:16Z</time></trkpt>
<trkpt lat="28.471813" lon="98.900669">
<time>2016-10-07T11:13:17Z</time></trkpt>
<trkpt lat="28.471883" lon="98.900569">
<time>2016-10-07T11:13:18Z</time></trkpt>
<trkpt lat="28.471953" lon="98.900459">
<time>2016-10-07T11:13:19Z</time></trkpt>
<trkpt lat="28.472033" lon="98.900309">
<time>2016-10-07T11:13:20Z</time></trkpt>
<trkpt lat="28.472123" lon="98.900139">
<time>2016-10-07T11:13:21Z</time></trkpt>
<trkpt lat="28.472193" lon="98.899999">
<time>2016-10-07T11:13:22Z</time></trkpt>
<trkpt lat="28.472283" lon="98.899829">
<time>2016-10-07T11:13:23Z</time></trkpt>
<trkpt lat="28.472363" lon="98.899689">
<time>2016-10-07T11:13:24Z</time></trkpt>
<trkpt lat="28.472473" lon="98.89954">
<time>2016-10-07T11:13:25Z</time></trkpt>
<trkpt lat="28.472583" lon="98.89941">
<time>2016-10-07T11:13:26Z</time></trkpt>
<trkpt lat="28.472673" lon="98.89934">
<time>2016-10-07T11:13:27Z</time></trkpt>
<trkpt lat="28.472743" lon="98.89928">
<time>2016-10-07T11:13:28Z</time></trkpt>
<trkpt lat="28.472863" lon="98.8992">
<time>2016-10-07T11:13:29Z</time></trkpt>
<trkpt lat="28.473003" lon="98.89912">
<time>2016-10-07T11:13:30Z</time></trkpt>
<trkpt lat="28.473133" lon="98.89907">
<time>2016-10-07T11:13:31Z</time></trkpt>
<trkpt lat="28.473233" lon="98.89905">
<time>2016-10-07T11:13:32Z</time></trkpt>
<trkpt lat="28.473373" lon="98.89902">
<time>2016-10-07T11:13:33Z</time></trkpt>
<trkpt lat="28.473433" lon="98.89902">
<time>2016-10-07T11:13:34Z</time></trkpt>
<trkpt lat="28.473523" lon="98.89901">
<time>2016-10-07T11:13:35Z</time></trkpt>
<trkpt lat="28.473603" lon="98.89902">
<time>2016-10-07T11:13:36Z</time></trkpt>
<trkpt lat="28.473853" lon="98.89903">
<time>2016-10-07T11:13:37Z</time></trkpt>
<trkpt lat="28.473913" lon="98.89902">
<time>2016-10-07T11:13:38Z</time></trkpt>
<trkpt lat="28.473983" lon="98.89902">
<time>2016-10-07T11:13:39Z</time></trkpt>
<trkpt lat="28.474033" lon="98.89901">
<time>2016-10-07T11:13:40Z</time></trkpt>
<trkpt lat="28.474083" lon="98.89899">
<time>2016-10-07T11:13:41Z</time></trkpt>
<trkpt lat="28.474123" lon="98.89897">
<time>2016-10-07T11:13:42Z</time></trkpt>
<trkpt lat="28.474163" lon="98.89895">
<time>2016-10-07T11:13:43Z</time></trkpt>
<trkpt lat="28.474242" lon="98.89888">
<time>2016-10-07T11:13:44Z</time></trkpt>
<trkpt lat="28.474312" lon="98.8988">
<time>2016-10-07T11:13:45Z</time></trkpt>
<trkpt lat="28.474382" lon="98.8987">
<time>2016-10-07T11:13:46Z</time></trkpt>
<trkpt lat="28.474482" lon="98.89851">
<time>2016-10-07T11:13:47Z</time></trkpt>
<trkpt lat="28.474552" lon="98.89836">
<time>2016-10-07T11:13:48Z</time></trkpt>
<trkpt lat="28.474592" lon="98.8983">
<time>2016-10-07T11:13:49Z</time></trkpt>
<trkpt lat="28.474642" lon="98.89825">
<time>2016-10-07T11:13:50Z</time></trkpt>
<trkpt lat="28.474732" lon="98.898171">
<time>2016-10-07T11:13:51Z</time></trkpt>
<trkpt lat="28.474822" lon="98.898091">
<time>2016-10-07T11:13:52Z</time></trkpt>
<trkpt lat="28.474872" lon="98.898061">
<time>2016-10-07T11:13:53Z</time></trkpt>
<trkpt lat="28.474902" lon="98.898031">
<time>2016-10-07T11:13:54Z</time></trkpt>
<trkpt lat="28.474962" lon="98.898001">
<time>2016-10-07T11:13:55Z</time></trkpt>
<trkpt lat="28.475032" lon="98.897971">
<time>2016-10-07T11:13:56Z</time></trkpt>
<trkpt lat="28.475262" lon="98.897891">
<time>2016-10-07T11:13:57Z</time></trkpt>
<trkpt lat="28.475332" lon="98.897841">
<time>2016-10-07T11:13:58Z</time></trkpt>
<trkpt lat="28.475392" lon="98.897791">
<time>2016-10-07T11:13:59Z</time></trkpt>
<trkpt lat="28.475442" lon="98.897721">
<time>2016-10-07T11:14:00Z</time></trkpt>
<trkpt lat="28.475482" lon="98.897641">
<time>2016-10-07T11:14:01Z</time></trkpt>
<trkpt lat="28.475502" lon="98.897561">
<time>2016-10-07T11:14:02Z</time></trkpt>
<trkpt lat="28.475512" lon="98.897531">
<time>2016-10-07T11:14:03Z</time></trkpt>
<trkpt lat="28.475512" lon="98.897481">
<time>2016-10-07T11:14:04Z</time></trkpt>
<trkpt lat="28.475512" lon="98.897431">
<time>2016-10-07T11:14:05Z</time></trkpt>
<trkpt lat="28.475512" lon="98.897381">
<time>2016-10-07T11:14:06Z</time></trkpt>
<trkpt lat="28.475492" lon="98.897341">
<time>2016-10-07T11:14:07Z</time></trkpt>
<trkpt lat="28.475472" lon="98.897271">
<time>2016-10-07T11:14:08Z</time></trkpt>
<trkpt lat="28.475442" lon="98.897221">
<time>2016-10-07T11:14:09Z</time></trkpt>
<trkpt lat="28.475392" lon="98.897121">
<time>2016-10-07T11:14:10Z</time></trkpt>
<trkpt lat="28.475252" lon="98.896951">
<time>2016-10-07T11:14:11Z</time></trkpt>
<trkpt lat="28.475072" lon="98.896771">
<time>2016-10-07T11:14:12Z</time></trkpt>
<trkpt lat="28.475002" lon="98.896691">
<time>2016-10-07T11:14:13Z</time></trkpt>
<trkpt lat="28.474782" lon="98.896462">
<time>2016-10-07T11:14:14Z</time></trkpt>
<trkpt lat="28.474732" lon="98.896392">
<time>2016-10-07T11:14:15Z</time></trkpt>
<trkpt lat="28.474692" lon="98.896322">
<time>2016-10-07T11:14:16Z</time></trkpt>
<trkpt lat="28.474672" lon="98.896272">
<time>2016-10-07T11:14:17Z</time></trkpt>
<trkpt lat="28.474652" lon="98.896222">
<time>2016-10-07T11:14:18Z</time></trkpt>
<trkpt lat="28.474642" lon="98.896182">
<time>2016-10-07T11:14:19Z</time></trkpt>
<trkpt lat="28.474642" lon="98.896102">
<time>2016-10-07T11:14:20Z</time></trkpt>
<trkpt lat="28.474652" lon="98.896002">
<time>2016-10-07T11:14:21Z</time></trkpt>
<trkpt lat="28.474672" lon="98.895892">
<time>2016-10-07T11:14:22Z</time></trkpt>
<trkpt lat="28.474732" lon="98.895702">
<time>2016-10-07T11:14:23Z</time></trkpt>
<trkpt lat="28.474742" lon="98.895642">
<time>2016-10-07T11:14:24Z</time></trkpt>
<trkpt lat="28.474742" lon="98.895582">
<time>2016-10-07T11:14:25Z</time></trkpt>
<trkpt lat="28.474752" lon="98.895542">
<time>2016-10-07T11:14:26Z</time></trkpt>
<trkpt lat="28.474742" lon="98.895472">
<time>2016-10-07T11:14:27Z</time></trkpt>
<trkpt lat="28.474732" lon="98.895342">
<time>2016-10-07T11:14:28Z</time></trkpt>
<trkpt lat="28.474682" lon="98.895212">
<time>2016-10-07T11:14:29Z</time></trkpt>
<trkpt lat="28.474632" lon="98.895062">
<time>2016-10-07T11:14:30Z</time></trkpt>
<trkpt lat="28.474592" lon="98.894942">
<time>2016-10-07T11:14:31Z</time></trkpt>
<trkpt lat="28.474572" lon="98.894813">
<time>2016-10-07T11:14:32Z</time></trkpt>
<trkpt lat="28.474532" lon="98.894593">
<time>2016-10-07T11:14:33Z</time></trkpt>
<trkpt lat="28.474512" lon="98.894443">
<time>2016-10-07T11:14:34Z</time></trkpt>
<trkpt lat="28.474471" lon="98.894313">
<time>2016-10-07T11:14:35Z</time></trkpt>
<trkpt lat="28.474421" lon="98.894183">
<time>2016-10-07T11:14:36Z</time></trkpt>
<trkpt lat="28.474361" lon="98.894063">
<time>2016-10-07T11:14:37Z</time></trkpt>
<trkpt lat="28.474171" lon="98.893703">
<time>2016-10-07T11:14:38Z</time></trkpt>
<trkpt lat="28.474081" lon="98.893543">
<time>2016-10-07T11:14:39Z</time></trkpt>
<trkpt lat="28.474011" lon="98.893393">
<time>2016-10-07T11:14:40Z</time></trkpt>
<trkpt lat="28.473971" lon="98.893293">
<time>2016-10-07T11:14:41Z</time></trkpt>
<trkpt lat="28.473941" lon="98.893163">
<time>2016-10-07T11:14:42Z</time></trkpt>
<trkpt lat="28.473921" lon="98.893083">
<time>2016-10-07T11:14:43Z</time></trkpt>
<trkpt lat="28.473911" lon="98.892973">
<time>2016-10-07T11:14:44Z</time></trkpt>
<trkpt lat="28.473901" lon="98.892863">
<time>2016-10-07T11:14:45Z</time></trkpt>
<trkpt lat="28.473901" lon="98.892803">
<time>2016-10-07T11:14:46Z</time></trkpt>
<trkpt lat="28.473891" lon="98.892664">
<time>2016-10-07T11:14:47Z</time></trkpt>
<trkpt lat="28.473881" lon="98.892494">
<time>2016-10-07T11:14:48Z</time></trkpt>
<trkpt lat="28.473871" lon="98.892274">
<time>2016-10-07T11:14:49Z</time></trkpt>
<trkpt lat="28.473861" lon="98.892184">
<time>2016-10-07T11:14:50Z</time></trkpt>
<trkpt lat="28.473841" lon="98.892064">
<time>2016-10-07T11:14:51Z</time></trkpt>
<trkpt lat="28.473821" lon="98.892004">
<time>2016-10-07T11:14:52Z</time></trkpt>
<trkpt lat="28.473791" lon="98.891924">
<time>2016-10-07T11:14:53Z</time></trkpt>
<trkpt lat="28.473731" lon="98.891824">
<time>2016-10-07T11:14:54Z</time></trkpt>
<trkpt lat="28.473671" lon="98.891754">
<time>2016-10-07T11:14:55Z</time></trkpt>
<trkpt lat="28.473601" lon="98.891694">
<time>2016-10-07T11:14:56Z</time></trkpt>
<trkpt lat="28.473511" lon="98.891634">
<time>2016-10-07T11:14:57Z</time></trkpt>
<trkpt lat="28.473431" lon="98.891604">
<time>2016-10-07T11:14:58Z</time></trkpt>
<trkpt lat="28.473351" lon="98.891594">
<time>2016-10-07T11:14:59Z</time></trkpt>
<trkpt lat="28.473281" lon="98.891574">
<time>2016-10-07T11:15:00Z</time></trkpt>
<trkpt lat="28.473191" lon="98.891574">
<time>2016-10-07T11:15:01Z</time></trkpt>
<trkpt lat="28.472941" lon="98.891584">
<time>2016-10-07T11:15:02Z</time></trkpt>
<trkpt lat="28.472821" lon="98.891584">
<time>2016-10-07T11:15:03Z</time></trkpt>
<trkpt lat="28.472721" lon="98.891554">
<time>2016-10-07T11:15:04Z</time></trkpt>
<trkpt lat="28.472651" lon="98.891534">
<time>2016-10-07T11:15:05Z</time></trkpt>
<trkpt lat="28.472571" lon="98.891474">
<time>2016-10-07T11:15:06Z</time></trkpt>
<trkpt lat="28.472531" lon="98.891444">
<time>2016-10-07T11:15:07Z</time></trkpt>
<trkpt lat="28.472481" lon="98.891384">
<time>2016-10-07T11:15:08Z</time></trkpt>
<trkpt lat="28.472431" lon="98.891294">
<time>2016-10-07T11:15:09Z</time></trkpt>
<trkpt lat="28.472391" lon="98.891174">
<time>2016-10-07T11:15:10Z</time></trkpt>
<trkpt lat="28.472341" lon="98.891044">
<time>2016-10-07T11:15:11Z</time></trkpt>
<trkpt lat="28.472301" lon="98.890854">
<time>2016-10-07T11:15:12Z</time></trkpt>
<trkpt lat="28.472251" lon="98.890664">
<time>2016-10-07T11:15:13Z</time></trkpt>
<trkpt lat="28.472181" lon="98.890454">
<time>2016-10-07T11:15:14Z</time></trkpt>
<trkpt lat="28.472121" lon="98.890264">
<time>2016-10-07T11:15:15Z</time></trkpt>
<trkpt lat="28.472061" lon="98.890104">
<time>2016-10-07T11:15:16Z</time></trkpt>
<trkpt lat="28.471971" lon="98.889944">
<time>2016-10-07T11:15:17Z</time></trkpt>
<trkpt lat="28.47182" lon="98.889705">
<time>2016-10-07T11:15:18Z</time></trkpt>
<trkpt lat="28.47159" lon="98.889365">
<time>2016-10-07T11:15:19Z</time></trkpt>
<trkpt lat="28.47142" lon="98.889135">
<time>2016-10-07T11:15:20Z</time></trkpt>
<trkpt lat="28.47117" lon="98.888855">
<time>2016-10-07T11:15:21Z</time></trkpt>
<trkpt lat="28.471" lon="98.888705">
<time>2016-10-07T11:15:22Z</time></trkpt>
<trkpt lat="28.47091" lon="98.888615">
<time>2016-10-07T11:15:23Z</time></trkpt>
<trkpt lat="28.47076" lon="98.888495">
<time>2016-10-07T11:15:24Z</time></trkpt>
<trkpt lat="28.47066" lon="98.888395">
<time>2016-10-07T11:15:25Z</time></trkpt>
<trkpt lat="28.47058" lon="98.888305">
<time>2016-10-07T11:15:26Z</time></trkpt>
<trkpt lat="28.47054" lon="98.888255">
<time>2016-10-07T11:15:27Z</time></trkpt>
<trkpt lat="28.47051" lon="98.888175">
<time>2016-10-07T11:15:28Z</time></trkpt>
<trkpt lat="28.47049" lon="98.888105">
<time>2016-10-07T11:15:29Z</time></trkpt>
<trkpt lat="28.47047" lon="98.888065">
<time>2016-10-07T11:15:30Z</time></trkpt>
<trkpt lat="28.47047" lon="98.888025">
<time>2016-10-07T11:15:31Z</time></trkpt>
<trkpt lat="28.47046" lon="98.887955">
<time>2016-10-07T11:15:32Z</time></trkpt>
<trkpt lat="28.47046" lon="98.887875">
<time>2016-10-07T11:15:33Z</time></trkpt>
<trkpt lat="28.47047" lon="98.887785">
<time>2016-10-07T11:15:34Z</time></trkpt>
<trkpt lat="28.47049" lon="98.887605">
<time>2016-10-07T11:15:35Z</time></trkpt>
<trkpt lat="28.47051" lon="98.887445">
<time>2016-10-07T11:15:36Z</time></trkpt>
<trkpt lat="28.47052" lon="98.887285">
<time>2016-10-07T11:15:37Z</time></trkpt>
<trkpt lat="28.470539" lon="98.886815">
<time>2016-10-07T11:15:38Z</time></trkpt>
<trkpt lat="28.470539" lon="98.886585">
<time>2016-10-07T11:15:39Z</time></trkpt>
<trkpt lat="28.470509" lon="98.886355">
<time>2016-10-07T11:15:40Z</time></trkpt>
<trkpt lat="28.470479" lon="98.886105">
<time>2016-10-07T11:15:41Z</time></trkpt>
<trkpt lat="28.470449" lon="98.885825">
<time>2016-10-07T11:15:42Z</time></trkpt>
<trkpt lat="28.470419" lon="98.885605">
<time>2016-10-07T11:15:43Z</time></trkpt>
<trkpt lat="28.470378" lon="98.885295">
<time>2016-10-07T11:15:44Z</time></trkpt>
<trkpt lat="28.470358" lon="98.885185">
<time>2016-10-07T11:15:45Z</time></trkpt>
<trkpt lat="28.470338" lon="98.885135">
<time>2016-10-07T11:15:46Z</time></trkpt>
<trkpt lat="28.470318" lon="98.885085">
<time>2016-10-07T11:15:47Z</time></trkpt>
<trkpt lat="28.470298" lon="98.885055">
<time>2016-10-07T11:15:48Z</time></trkpt>
<trkpt lat="28.470278" lon="98.885025">
<time>2016-10-07T11:15:49Z</time></trkpt>
<trkpt lat="28.470248" lon="98.884995">
<time>2016-10-07T11:15:50Z</time></trkpt>
<trkpt lat="28.470208" lon="98.884965">
<time>2016-10-07T11:15:51Z</time></trkpt>
<trkpt lat="28.470188" lon="98.884945">
<time>2016-10-07T11:15:52Z</time></trkpt>
<trkpt lat="28.470148" lon="98.884935">
<time>2016-10-07T11:15:53Z</time></trkpt>
<trkpt lat="28.470088" lon="98.884915">
<time>2016-10-07T11:15:54Z</time></trkpt>
<trkpt lat="28.470018" lon="98.884915">
<time>2016-10-07T11:15:55Z</time></trkpt>
<trkpt lat="28.469948" lon="98.884925">
<time>2016-10-07T11:15:56Z</time></trkpt>
<trkpt lat="28.469878" lon="98.884945">
<time>2016-10-07T11:15:57Z</time></trkpt>
<trkpt lat="28.469728" lon="98.885015">
<time>2016-10-07T11:15:58Z</time></trkpt>
<trkpt lat="28.469498" lon="98.885135">
<time>2016-10-07T11:15:59Z</time></trkpt>
<trkpt lat="28.469239" lon="98.885265">
<time>2016-10-07T11:16:00Z</time></trkpt>
<trkpt lat="28.468799" lon="98.885495">
<time>2016-10-07T11:16:01Z</time></trkpt>
<trkpt lat="28.468239" lon="98.885775">
<time>2016-10-07T11:16:02Z</time></trkpt>
<trkpt lat="28.468029" lon="98.885875">
<time>2016-10-07T11:16:03Z</time></trkpt>
<trkpt lat="28.46776" lon="98.885995">
<time>2016-10-07T11:16:04Z</time></trkpt>
<trkpt lat="28.4676" lon="98.886045">
<time>2016-10-07T11:16:05Z</time></trkpt>
<trkpt lat="28.46744" lon="98.886085">
<time>2016-10-07T11:16:06Z</time></trkpt>
<trkpt lat="28.4672" lon="98.886145">
<time>2016-10-07T11:16:07Z</time></trkpt>
<trkpt lat="28.46704" lon="98.886185">
<time>2016-10-07T11:16:08Z</time></trkpt>
<trkpt lat="28.4669" lon="98.886205">
<time>2016-10-07T11:16:09Z</time></trkpt>
<trkpt lat="28.4668" lon="98.886215">
<time>2016-10-07T11:16:10Z</time></trkpt>
<trkpt lat="28.46668" lon="98.886215">
<time>2016-10-07T11:16:11Z</time></trkpt>
<trkpt lat="28.46654" lon="98.886185">
<time>2016-10-07T11:16:12Z</time></trkpt>
<trkpt lat="28.4664" lon="98.886155">
<time>2016-10-07T11:16:13Z</time></trkpt>
<trkpt lat="28.4662" lon="98.886105">
<time>2016-10-07T11:16:14Z</time></trkpt>
<trkpt lat="28.4661" lon="98.886085">
<time>2016-10-07T11:16:15Z</time></trkpt>
<trkpt lat="28.46599" lon="98.886075">
<time>2016-10-07T11:16:16Z</time></trkpt>
<trkpt lat="28.46593" lon="98.886065">
<time>2016-10-07T11:16:17Z</time></trkpt>
<trkpt lat="28.46587" lon="98.886065">
<time>2016-10-07T11:16:18Z</time></trkpt>
<trkpt lat="28.46582" lon="98.886075">
<time>2016-10-07T11:16:19Z</time></trkpt>
<trkpt lat="28.46568" lon="98.886105">
<time>2016-10-07T11:16:20Z</time></trkpt>
<trkpt lat="28.4656" lon="98.886125">
<time>2016-10-07T11:16:21Z</time></trkpt>
<trkpt lat="28.46552" lon="98.886165">
<time>2016-10-07T11:16:22Z</time></trkpt>
<trkpt lat="28.46549" lon="98.886195">
<time>2016-10-07T11:16:23Z</time></trkpt>
<trkpt lat="28.46545" lon="98.886225">
<time>2016-10-07T11:16:24Z</time></trkpt>
<trkpt lat="28.46542" lon="98.886265">
<time>2016-10-07T11:16:25Z</time></trkpt>
<trkpt lat="28.46539" lon="98.886315">
<time>2016-10-07T11:16:26Z</time></trkpt>
<trkpt lat="28.46533" lon="98.886415">
<time>2016-10-07T11:16:27Z</time></trkpt>
<trkpt lat="28.465271" lon="98.886535">
<time>2016-10-07T11:16:28Z</time></trkpt>
<trkpt lat="28.465201" lon="98.886665">
<time>2016-10-07T11:16:29Z</time></trkpt>
<trkpt lat="28.465141" lon="98.886725">
<time>2016-10-07T11:16:30Z</time></trkpt>
<trkpt lat="28.465081" lon="98.886775">
<time>2016-10-07T11:16:31Z</time></trkpt>
<trkpt lat="28.465031" lon="98.886805">
<time>2016-10-07T11:16:32Z</time></trkpt>
<trkpt lat="28.464871" lon="98.886885">
<time>2016-10-07T11:16:33Z</time></trkpt>
<trkpt lat="28.464741" lon="98.886955">
<time>2016-10-07T11:16:34Z</time></trkpt>
<trkpt lat="28.464561" lon="98.887045">
<time>2016-10-07T11:16:35Z</time></trkpt>
<trkpt lat="28.464471" lon="98.887115">
<time>2016-10-07T11:16:36Z</time></trkpt>
<trkpt lat="28.464391" lon="98.887175">
<time>2016-10-07T11:16:37Z</time></trkpt>
<trkpt lat="28.464321" lon="98.887255">
<time>2016-10-07T11:16:38Z</time></trkpt>
<trkpt lat="28.464251" lon="98.887365">
<time>2016-10-07T11:16:39Z</time></trkpt>
<trkpt lat="28.464152" lon="98.887545">
<time>2016-10-07T11:16:40Z</time></trkpt>
<trkpt lat="28.464082" lon="98.887715">
<time>2016-10-07T11:16:41Z</time></trkpt>
<trkpt lat="28.464002" lon="98.887865">
<time>2016-10-07T11:16:42Z</time></trkpt>
<trkpt lat="28.463912" lon="98.888045">
<time>2016-10-07T11:16:43Z</time></trkpt>
<trkpt lat="28.463722" lon="98.888385">
<time>2016-10-07T11:16:44Z</time></trkpt>
<trkpt lat="28.463632" lon="98.888575">
<time>2016-10-07T11:16:45Z</time></trkpt>
<trkpt lat="28.463572" lon="98.888765">
<time>2016-10-07T11:16:46Z</time></trkpt>
<trkpt lat="28.463502" lon="98.888995">
<time>2016-10-07T11:16:47Z</time></trkpt>
<trkpt lat="28.463453" lon="98.889185">
<time>2016-10-07T11:16:48Z</time></trkpt>
<trkpt lat="28.463393" lon="98.889365">
<time>2016-10-07T11:16:49Z</time></trkpt>
<trkpt lat="28.463333" lon="98.889515">
<time>2016-10-07T11:16:50Z</time></trkpt>
<trkpt lat="28.463293" lon="98.889595">
<time>2016-10-07T11:16:51Z</time></trkpt>
<trkpt lat="28.463213" lon="98.889715">
<time>2016-10-07T11:16:52Z</time></trkpt>
<trkpt lat="28.463093" lon="98.889885">
<time>2016-10-07T11:16:53Z</time></trkpt>
<trkpt lat="28.463023" lon="98.889975">
<time>2016-10-07T11:16:54Z</time></trkpt>
<trkpt lat="28.462943" lon="98.890045">
<time>2016-10-07T11:16:55Z</time></trkpt>
<trkpt lat="28.462843" lon="98.890125">
<time>2016-10-07T11:16:56Z</time></trkpt>
<trkpt lat="28.462703" lon="98.890195">
<time>2016-10-07T11:16:57Z</time></trkpt>
<trkpt lat="28.462553" lon="98.890255">
<time>2016-10-07T11:16:58Z</time></trkpt>
<trkpt lat="28.462433" lon="98.890285">
<time>2016-10-07T11:16:59Z</time></trkpt>
<trkpt lat="28.462273" lon="98.890305">
<time>2016-10-07T11:17:00Z</time></trkpt>
<trkpt lat="28.462194" lon="98.890295">
<time>2016-10-07T11:17:01Z</time></trkpt>
<trkpt lat="28.462084" lon="98.890285">
<time>2016-10-07T11:17:02Z</time></trkpt>
<trkpt lat="28.461994" lon="98.890265">
<time>2016-10-07T11:17:03Z</time></trkpt>
<trkpt lat="28.461914" lon="98.890235">
<time>2016-10-07T11:17:04Z</time></trkpt>
<trkpt lat="28.461844" lon="98.890205">
<time>2016-10-07T11:17:05Z</time></trkpt>
<trkpt lat="28.461734" lon="98.890155">
<time>2016-10-07T11:17:06Z</time></trkpt>
<trkpt lat="28.461634" lon="98.890085">
<time>2016-10-07T11:17:07Z</time></trkpt>
<trkpt lat="28.461534" lon="98.890005">
<time>2016-10-07T11:17:08Z</time></trkpt>
<trkpt lat="28.461434" lon="98.889895">
<time>2016-10-07T11:17:09Z</time></trkpt>
<trkpt lat="28.461323" lon="98.889755">
<time>2016-10-07T11:17:10Z</time></trkpt>
<trkpt lat="28.461163" lon="98.889505">
<time>2016-10-07T11:17:11Z</time></trkpt>
<trkpt lat="28.461003" lon="98.889225">
<time>2016-10-07T11:17:12Z</time></trkpt>
<trkpt lat="28.460853" lon="98.889005">
<time>2016-10-07T11:17:13Z</time></trkpt>
<trkpt lat="28.460793" lon="98.888915">
<time>2016-10-07T11:17:14Z</time></trkpt>
<trkpt lat="28.460693" lon="98.888795">
<time>2016-10-07T11:17:15Z</time></trkpt>
<trkpt lat="28.460483" lon="98.888555">
<time>2016-10-07T11:17:16Z</time></trkpt>
<trkpt lat="28.460283" lon="98.888335">
<time>2016-10-07T11:17:17Z</time></trkpt>
<trkpt lat="28.460113" lon="98.888155">
<time>2016-10-07T11:17:18Z</time></trkpt>
<trkpt lat="28.459933" lon="98.887965">
<time>2016-10-07T11:17:19Z</time></trkpt>
<trkpt lat="28.459763" lon="98.887795">
<time>2016-10-07T11:17:20Z</time></trkpt>
<trkpt lat="28.459613" lon="98.887645">
<time>2016-10-07T11:17:21Z</time></trkpt>
<trkpt lat="28.459453" lon="98.887485">
<time>2016-10-07T11:17:22Z</time></trkpt>
<trkpt lat="28.459193" lon="98.887215">
<time>2016-10-07T11:17:23Z</time></trkpt>
<trkpt lat="28.459013" lon="98.887015">
<time>2016-10-07T11:17:24Z</time></trkpt>
<trkpt lat="28.458873" lon="98.886835">
<time>2016-10-07T11:17:25Z</time></trkpt>
<trkpt lat="28.458682" lon="98.886615">
<time>2016-10-07T11:17:26Z</time></trkpt>
<trkpt lat="28.458512" lon="98.886405">
<time>2016-10-07T11:17:27Z</time></trkpt>
<trkpt lat="28.458352" lon="98.886205">
<time>2016-10-07T11:17:28Z</time></trkpt>
<trkpt lat="28.458272" lon="98.886085">
<time>2016-10-07T11:17:29Z</time></trkpt>
<trkpt lat="28.458182" lon="98.885926">
<time>2016-10-07T11:17:30Z</time></trkpt>
<trkpt lat="28.458012" lon="98.885586">
<time>2016-10-07T11:17:31Z</time></trkpt>
<trkpt lat="28.457852" lon="98.885286">
<time>2016-10-07T11:17:32Z</time></trkpt>
<trkpt lat="28.457652" lon="98.884966">
<time>2016-10-07T11:17:33Z</time></trkpt>
<trkpt lat="28.457522" lon="98.884696">
<time>2016-10-07T11:17:34Z</time></trkpt>
<trkpt lat="28.457401" lon="98.884456">
<time>2016-10-07T11:17:35Z</time></trkpt>
<trkpt lat="28.457281" lon="98.884126">
<time>2016-10-07T11:17:36Z</time></trkpt>
<trkpt lat="28.457171" lon="98.883806">
<time>2016-10-07T11:17:37Z</time></trkpt>
<trkpt lat="28.457101" lon="98.883636">
<time>2016-10-07T11:17:38Z</time></trkpt>
<trkpt lat="28.457041" lon="98.883536">
<time>2016-10-07T11:17:39Z</time></trkpt>
<trkpt lat="28.456991" lon="98.883476">
<time>2016-10-07T11:17:40Z</time></trkpt>
<trkpt lat="28.456941" lon="98.883426">
<time>2016-10-07T11:17:41Z</time></trkpt>
<trkpt lat="28.456861" lon="98.883376">
<time>2016-10-07T11:17:42Z</time></trkpt>
<trkpt lat="28.456801" lon="98.883346">
<time>2016-10-07T11:17:43Z</time></trkpt>
<trkpt lat="28.456731" lon="98.883336">
<time>2016-10-07T11:17:44Z</time></trkpt>
<trkpt lat="28.456681" lon="98.883336">
<time>2016-10-07T11:17:45Z</time></trkpt>
<trkpt lat="28.456571" lon="98.883326">
<time>2016-10-07T11:17:46Z</time></trkpt>
<trkpt lat="28.456341" lon="98.883336">
<time>2016-10-07T11:17:47Z</time></trkpt>
<trkpt lat="28.456111" lon="98.883356">
<time>2016-10-07T11:17:48Z</time></trkpt>
<trkpt lat="28.455861" lon="98.883386">
<time>2016-10-07T11:17:49Z</time></trkpt>
<trkpt lat="28.455721" lon="98.883396">
<time>2016-10-07T11:17:50Z</time></trkpt>
<trkpt lat="28.455521" lon="98.883406">
<time>2016-10-07T11:17:51Z</time></trkpt>
<trkpt lat="28.455391" lon="98.883406">
<time>2016-10-07T11:17:52Z</time></trkpt>
<trkpt lat="28.455261" lon="98.883406">
<time>2016-10-07T11:17:53Z</time></trkpt>
<trkpt lat="28.455071" lon="98.883386">
<time>2016-10-07T11:17:54Z</time></trkpt>
<trkpt lat="28.454891" lon="98.883336">
<time>2016-10-07T11:17:55Z</time></trkpt>
<trkpt lat="28.454631" lon="98.883266">
<time>2016-10-07T11:17:56Z</time></trkpt>
<trkpt lat="28.454371" lon="98.883206">
<time>2016-10-07T11:17:57Z</time></trkpt>
<trkpt lat="28.454141" lon="98.883156">
<time>2016-10-07T11:17:58Z</time></trkpt>
<trkpt lat="28.454011" lon="98.883146">
<time>2016-10-07T11:17:59Z</time></trkpt>
<trkpt lat="28.453821" lon="98.883156">
<time>2016-10-07T11:18:00Z</time></trkpt>
<trkpt lat="28.453622" lon="98.883196">
<time>2016-10-07T11:18:01Z</time></trkpt>
<trkpt lat="28.453412" lon="98.883246">
<time>2016-10-07T11:18:02Z</time></trkpt>
<trkpt lat="28.452912" lon="98.883366">
<time>2016-10-07T11:18:03Z</time></trkpt>
<trkpt lat="28.452652" lon="98.883416">
<time>2016-10-07T11:18:04Z</time></trkpt>
<trkpt lat="28.452522" lon="98.883426">
<time>2016-10-07T11:18:05Z</time></trkpt>
<trkpt lat="28.452422" lon="98.883426">
<time>2016-10-07T11:18:06Z</time></trkpt>
<trkpt lat="28.452312" lon="98.883416">
<time>2016-10-07T11:18:07Z</time></trkpt>
<trkpt lat="28.452182" lon="98.883386">
<time>2016-10-07T11:18:08Z</time></trkpt>
<trkpt lat="28.452092" lon="98.883346">
<time>2016-10-07T11:18:09Z</time></trkpt>
<trkpt lat="28.452012" lon="98.883306">
<time>2016-10-07T11:18:10Z</time></trkpt>
<trkpt lat="28.451842" lon="98.883196">
<time>2016-10-07T11:18:11Z</time></trkpt>
<trkpt lat="28.451462" lon="98.882916">
<time>2016-10-07T11:18:12Z</time></trkpt>
<trkpt lat="28.451042" lon="98.882626">
<time>2016-10-07T11:18:13Z</time></trkpt>
<trkpt lat="28.450852" lon="98.882496">
<time>2016-10-07T11:18:14Z</time></trkpt>
<trkpt lat="28.450762" lon="98.882426">
<time>2016-10-07T11:18:15Z</time></trkpt>
<trkpt lat="28.450692" lon="98.882346">
<time>2016-10-07T11:18:16Z</time></trkpt>
<trkpt lat="28.450602" lon="98.882246">
<time>2016-10-07T11:18:17Z</time></trkpt>
<trkpt lat="28.450492" lon="98.882096">
<time>2016-10-07T11:18:18Z</time></trkpt>
<trkpt lat="28.450281" lon="98.881796">
<time>2016-10-07T11:18:19Z</time></trkpt>
<trkpt lat="28.450211" lon="98.881706">
<time>2016-10-07T11:18:20Z</time></trkpt>
<trkpt lat="28.450141" lon="98.881616">
<time>2016-10-07T11:18:21Z</time></trkpt>
<trkpt lat="28.449991" lon="98.881466">
<time>2016-10-07T11:18:22Z</time></trkpt>
<trkpt lat="28.449811" lon="98.881326">
<time>2016-10-07T11:18:23Z</time></trkpt>
<trkpt lat="28.449581" lon="98.881196">
<time>2016-10-07T11:18:24Z</time></trkpt>
<trkpt lat="28.449311" lon="98.881056">
<time>2016-10-07T11:18:25Z</time></trkpt>
<trkpt lat="28.448921" lon="98.880856">
<time>2016-10-07T11:18:26Z</time></trkpt>
<trkpt lat="28.448501" lon="98.880636">
<time>2016-10-07T11:18:27Z</time></trkpt>
<trkpt lat="28.448241" lon="98.880506">
<time>2016-10-07T11:18:28Z</time></trkpt>
<trkpt lat="28.448071" lon="98.880446">
<time>2016-10-07T11:18:29Z</time></trkpt>
<trkpt lat="28.447891" lon="98.880396">
<time>2016-10-07T11:18:30Z</time></trkpt>
<trkpt lat="28.447781" lon="98.880376">
<time>2016-10-07T11:18:31Z</time></trkpt>
<trkpt lat="28.447691" lon="98.880376">
<time>2016-10-07T11:18:32Z</time></trkpt>
<trkpt lat="28.447541" lon="98.880386">
<time>2016-10-07T11:18:33Z</time></trkpt>
<trkpt lat="28.447411" lon="98.880406">
<time>2016-10-07T11:18:34Z</time></trkpt>
<trkpt lat="28.447121" lon="98.880506">
<time>2016-10-07T11:18:35Z</time></trkpt>
<trkpt lat="28.446941" lon="98.880556">
<time>2016-10-07T11:18:36Z</time></trkpt>
<trkpt lat="28.446791" lon="98.880596">
<time>2016-10-07T11:18:37Z</time></trkpt>
<trkpt lat="28.446661" lon="98.880606">
<time>2016-10-07T11:18:38Z</time></trkpt>
<trkpt lat="28.446451" lon="98.880616">
<time>2016-10-07T11:18:39Z</time></trkpt>
<trkpt lat="28.446201" lon="98.880606">
<time>2016-10-07T11:18:40Z</time></trkpt>
<trkpt lat="28.445911" lon="98.880566">
<time>2016-10-07T11:18:41Z</time></trkpt>
<trkpt lat="28.445752" lon="98.880526">
<time>2016-10-07T11:18:42Z</time></trkpt>
<trkpt lat="28.445631" lon="98.880486">
<time>2016-10-07T11:18:43Z</time></trkpt>
<trkpt lat="28.445461" lon="98.880426">
<time>2016-10-07T11:18:44Z</time></trkpt>
<trkpt lat="28.445151" lon="98.880286">
<time>2016-10-07T11:18:45Z</time></trkpt>
<trkpt lat="28.444681" lon="98.880056">
<time>2016-10-07T11:18:46Z</time></trkpt>
<trkpt lat="28.444381" lon="98.879916">
<time>2016-10-07T11:18:47Z</time></trkpt>
<trkpt lat="28.444151" lon="98.879826">
<time>2016-10-07T11:18:48Z</time></trkpt>
<trkpt lat="28.443891" lon="98.879736">
<time>2016-10-07T11:18:49Z</time></trkpt>
<trkpt lat="28.443611" lon="98.879646">
<time>2016-10-07T11:18:50Z</time></trkpt>
<trkpt lat="28.443421" lon="98.879596">
<time>2016-10-07T11:18:51Z</time></trkpt>
<trkpt lat="28.443311" lon="98.879566">
<time>2016-10-07T11:18:52Z</time></trkpt>
<trkpt lat="28.443221" lon="98.879536">
<time>2016-10-07T11:18:53Z</time></trkpt>
<trkpt lat="28.443161" lon="98.879515">
<time>2016-10-07T11:18:54Z</time></trkpt>
<trkpt lat="28.443111" lon="98.879495">
<time>2016-10-07T11:18:55Z</time></trkpt>
<trkpt lat="28.443031" lon="98.879445">
<time>2016-10-07T11:18:56Z</time></trkpt>
<trkpt lat="28.442911" lon="98.879355">
<time>2016-10-07T11:18:57Z</time></trkpt>
<trkpt lat="28.442771" lon="98.879245">
<time>2016-10-07T11:18:58Z</time></trkpt>
<trkpt lat="28.442541" lon="98.879035">
<time>2016-10-07T11:18:59Z</time></trkpt>
<trkpt lat="28.442291" lon="98.878835">
<time>2016-10-07T11:19:00Z</time></trkpt>
<trkpt lat="28.442081" lon="98.878655">
<time>2016-10-07T11:19:01Z</time></trkpt>
<trkpt lat="28.441891" lon="98.878485">
<time>2016-10-07T11:19:02Z</time></trkpt>
<trkpt lat="28.441731" lon="98.878315">
<time>2016-10-07T11:19:03Z</time></trkpt>
<trkpt lat="28.44162" lon="98.878185">
<time>2016-10-07T11:19:04Z</time></trkpt>
<trkpt lat="28.44159" lon="98.878145">
<time>2016-10-07T11:19:05Z</time></trkpt>
<trkpt lat="28.44154" lon="98.878095">
<time>2016-10-07T11:19:06Z</time></trkpt>
<trkpt lat="28.44137" lon="98.877925">
<time>2016-10-07T11:19:07Z</time></trkpt>
<trkpt lat="28.44126" lon="98.877795">
<time>2016-10-07T11:19:08Z</time></trkpt>
<trkpt lat="28.44123" lon="98.877755">
<time>2016-10-07T11:19:09Z</time></trkpt>
<trkpt lat="28.4412" lon="98.877705">
<time>2016-10-07T11:19:10Z</time></trkpt>
<trkpt lat="28.44119" lon="98.877675">
<time>2016-10-07T11:19:11Z</time></trkpt>
<trkpt lat="28.44118" lon="98.877645">
<time>2016-10-07T11:19:12Z</time></trkpt>
<trkpt lat="28.44117" lon="98.877615">
<time>2016-10-07T11:19:13Z</time></trkpt>
<trkpt lat="28.44117" lon="98.877585">
<time>2016-10-07T11:19:14Z</time></trkpt>
<trkpt lat="28.44117" lon="98.877555">
<time>2016-10-07T11:19:15Z</time></trkpt>
<trkpt lat="28.44118" lon="98.877525">
<time>2016-10-07T11:19:16Z</time></trkpt>
<trkpt lat="28.4412" lon="98.877455">
<time>2016-10-07T11:19:17Z</time></trkpt>
<trkpt lat="28.44123" lon="98.877375">
<time>2016-10-07T11:19:18Z</time></trkpt>
<trkpt lat="28.44133" lon="98.877215">
<time>2016-10-07T11:19:19Z</time></trkpt>
<trkpt lat="28.44137" lon="98.877155">
<time>2016-10-07T11:19:20Z</time></trkpt>
<trkpt lat="28.441559" lon="98.876825">
<time>2016-10-07T11:19:21Z</time></trkpt>
<trkpt lat="28.441819" lon="98.876405">
<time>2016-10-07T11:19:22Z</time></trkpt>
<trkpt lat="28.442068" lon="98.876015">
<time>2016-10-07T11:19:23Z</time></trkpt>
<trkpt lat="28.442148" lon="98.875885">
<time>2016-10-07T11:19:24Z</time></trkpt>
<trkpt lat="28.442248" lon="98.875745">
<time>2016-10-07T11:19:25Z</time></trkpt>
<trkpt lat="28.442378" lon="98.875564">
<time>2016-10-07T11:19:26Z</time></trkpt>
<trkpt lat="28.442508" lon="98.875404">
<time>2016-10-07T11:19:27Z</time></trkpt>
<trkpt lat="28.442797" lon="98.875034">
<time>2016-10-07T11:19:28Z</time></trkpt>
<trkpt lat="28.443007" lon="98.874794">
<time>2016-10-07T11:19:29Z</time></trkpt>
<trkpt lat="28.443157" lon="98.874614">
<time>2016-10-07T11:19:30Z</time></trkpt>
<trkpt lat="28.443286" lon="98.874444">
<time>2016-10-07T11:19:31Z</time></trkpt>
<trkpt lat="28.443526" lon="98.874124">
<time>2016-10-07T11:19:32Z</time></trkpt>
<trkpt lat="28.443666" lon="98.873924">
<time>2016-10-07T11:19:33Z</time></trkpt>
<trkpt lat="28.443825" lon="98.873684">
<time>2016-10-07T11:19:34Z</time></trkpt>
<trkpt lat="28.444015" lon="98.873404">
<time>2016-10-07T11:19:35Z</time></trkpt>
<trkpt lat="28.444155" lon="98.873204">
<time>2016-10-07T11:19:36Z</time></trkpt>
<trkpt lat="28.444275" lon="98.873013">
<time>2016-10-07T11:19:37Z</time></trkpt>
<trkpt lat="28.444394" lon="98.872843">
<time>2016-10-07T11:19:38Z</time></trkpt>
<trkpt lat="28.444484" lon="98.872723">
<time>2016-10-07T11:19:39Z</time></trkpt>
<trkpt lat="28.444544" lon="98.872663">
<time>2016-10-07T11:19:40Z</time></trkpt>
<trkpt lat="28.444574" lon="98.872643">
<time>2016-10-07T11:19:41Z</time></trkpt>
<trkpt lat="28.444604" lon="98.872633">
<time>2016-10-07T11:19:42Z</time></trkpt>
<trkpt lat="28.444674" lon="98.872603">
<time>2016-10-07T11:19:43Z</time></trkpt>
<trkpt lat="28.444744" lon="98.872603">
<time>2016-10-07T11:19:44Z</time></trkpt>
<trkpt lat="28.444784" lon="98.872603">
<time>2016-10-07T11:19:45Z</time></trkpt>
<trkpt lat="28.444834" lon="98.872623">
<time>2016-10-07T11:19:46Z</time></trkpt>
<trkpt lat="28.444924" lon="98.872653">
<time>2016-10-07T11:19:47Z</time></trkpt>
<trkpt lat="28.445024" lon="98.872693">
<time>2016-10-07T11:19:48Z</time></trkpt>
<trkpt lat="28.445364" lon="98.872863">
<time>2016-10-07T11:19:49Z</time></trkpt>
<trkpt lat="28.446044" lon="98.873163">
<time>2016-10-07T11:19:50Z</time></trkpt>
<trkpt lat="28.446334" lon="98.873294">
<time>2016-10-07T11:19:51Z</time></trkpt>
<trkpt lat="28.446454" lon="98.873324">
<time>2016-10-07T11:19:52Z</time></trkpt>
<trkpt lat="28.446504" lon="98.873324">
<time>2016-10-07T11:19:53Z</time></trkpt>
<trkpt lat="28.446574" lon="98.873314">
<time>2016-10-07T11:19:54Z</time></trkpt>
<trkpt lat="28.446734" lon="98.873264">
<time>2016-10-07T11:19:55Z</time></trkpt>
<trkpt lat="28.447104" lon="98.873113">
<time>2016-10-07T11:19:56Z</time></trkpt>
<trkpt lat="28.447414" lon="98.872993">
<time>2016-10-07T11:19:57Z</time></trkpt>
<trkpt lat="28.447574" lon="98.872943">
<time>2016-10-07T11:19:58Z</time></trkpt>
<trkpt lat="28.447714" lon="98.872913">
<time>2016-10-07T11:19:59Z</time></trkpt>
<trkpt lat="28.447853" lon="98.872893">
<time>2016-10-07T11:20:00Z</time></trkpt>
<trkpt lat="28.448063" lon="98.872893">
<time>2016-10-07T11:20:01Z</time></trkpt>
<trkpt lat="28.448303" lon="98.872883">
<time>2016-10-07T11:20:02Z</time></trkpt>
<trkpt lat="28.448383" lon="98.872873">
<time>2016-10-07T11:20:03Z</time></trkpt>
<trkpt lat="28.448463" lon="98.872853">
<time>2016-10-07T11:20:04Z</time></trkpt>
<trkpt lat="28.448613" lon="98.872803">
<time>2016-10-07T11:20:05Z</time></trkpt>
<trkpt lat="28.448723" lon="98.872763">
<time>2016-10-07T11:20:06Z</time></trkpt>
<trkpt lat="28.448803" lon="98.872733">
<time>2016-10-07T11:20:07Z</time></trkpt>
<trkpt lat="28.448903" lon="98.872723">
<time>2016-10-07T11:20:08Z</time></trkpt>
<trkpt lat="28.448953" lon="98.872733">
<time>2016-10-07T11:20:09Z</time></trkpt>
<trkpt lat="28.449013" lon="98.872743">
<time>2016-10-07T11:20:10Z</time></trkpt>
<trkpt lat="28.449083" lon="98.872773">
<time>2016-10-07T11:20:11Z</time></trkpt>
<trkpt lat="28.449163" lon="98.872813">
<time>2016-10-07T11:20:12Z</time></trkpt>
<trkpt lat="28.449263" lon="98.872873">
<time>2016-10-07T11:20:13Z</time></trkpt>
<trkpt lat="28.449393" lon="98.872953">
<time>2016-10-07T11:20:14Z</time></trkpt>
<trkpt lat="28.449623" lon="98.873103">
<time>2016-10-07T11:20:15Z</time></trkpt>
<trkpt lat="28.449773" lon="98.873183">
<time>2016-10-07T11:20:16Z</time></trkpt>
<trkpt lat="28.449843" lon="98.873213">
<time>2016-10-07T11:20:17Z</time></trkpt>
<trkpt lat="28.449933" lon="98.873243">
<time>2016-10-07T11:20:18Z</time></trkpt>
<trkpt lat="28.450103" lon="98.873263">
<time>2016-10-07T11:20:19Z</time></trkpt>
<trkpt lat="28.450313" lon="98.873303">
<time>2016-10-07T11:20:20Z</time></trkpt>
<trkpt lat="28.450433" lon="98.873323">
<time>2016-10-07T11:20:21Z</time></trkpt>
<trkpt lat="28.450593" lon="98.873363">
<time>2016-10-07T11:20:22Z</time></trkpt>
<trkpt lat="28.450773" lon="98.873444">
<time>2016-10-07T11:20:23Z</time></trkpt>
<trkpt lat="28.450973" lon="98.873524">
<time>2016-10-07T11:20:24Z</time></trkpt>
<trkpt lat="28.451223" lon="98.873654">
<time>2016-10-07T11:20:25Z</time></trkpt>
<trkpt lat="28.451353" lon="98.873714">
<time>2016-10-07T11:20:26Z</time></trkpt>
<trkpt lat="28.451443" lon="98.873754">
<time>2016-10-07T11:20:27Z</time></trkpt>
<trkpt lat="28.451493" lon="98.873764">
<time>2016-10-07T11:20:28Z</time></trkpt>
<trkpt lat="28.451543" lon="98.873774">
<time>2016-10-07T11:20:29Z</time></trkpt>
<trkpt lat="28.451623" lon="98.873764">
<time>2016-10-07T11:20:30Z</time></trkpt>
<trkpt lat="28.451753" lon="98.873734">
<time>2016-10-07T11:20:31Z</time></trkpt>
<trkpt lat="28.452013" lon="98.873584">
<time>2016-10-07T11:20:32Z</time></trkpt>
<trkpt lat="28.452243" lon="98.873453">
<time>2016-10-07T11:20:33Z</time></trkpt>
<trkpt lat="28.452413" lon="98.873373">
<time>2016-10-07T11:20:34Z</time></trkpt>
<trkpt lat="28.452513" lon="98.873333">
<time>2016-10-07T11:20:35Z</time></trkpt>
<trkpt lat="28.452623" lon="98.873303">
<time>2016-10-07T11:20:36Z</time></trkpt>
<trkpt lat="28.452713" lon="98.873293">
<time>2016-10-07T11:20:37Z</time></trkpt>
<trkpt lat="28.452833" lon="98.873273">
<time>2016-10-07T11:20:38Z</time></trkpt>
<trkpt lat="28.452903" lon="98.873273">
<time>2016-10-07T11:20:39Z</time></trkpt>
<trkpt lat="28.453033" lon="98.873283">
<time>2016-10-07T11:20:40Z</time></trkpt>
<trkpt lat="28.453172" lon="98.873303">
<time>2016-10-07T11:20:41Z</time></trkpt>
<trkpt lat="28.453332" lon="98.873343">
<time>2016-10-07T11:20:42Z</time></trkpt>
<trkpt lat="28.453512" lon="98.873393">
<time>2016-10-07T11:20:43Z</time></trkpt>
<trkpt lat="28.453653" lon="98.873443">
<time>2016-10-07T11:20:44Z</time></trkpt>
<trkpt lat="28.453773" lon="98.873483">
<time>2016-10-07T11:20:45Z</time></trkpt>
<trkpt lat="28.453823" lon="98.873503">
<time>2016-10-07T11:20:46Z</time></trkpt>
<trkpt lat="28.453863" lon="98.873503">
<time>2016-10-07T11:20:47Z</time></trkpt>
<trkpt lat="28.453903" lon="98.873513">
<time>2016-10-07T11:20:48Z</time></trkpt>
<trkpt lat="28.453933" lon="98.873513">
<time>2016-10-07T11:20:49Z</time></trkpt>
<trkpt lat="28.453972" lon="98.873503">
<time>2016-10-07T11:20:50Z</time></trkpt>
<trkpt lat="28.454042" lon="98.873473">
<time>2016-10-07T11:20:51Z</time></trkpt>
<trkpt lat="28.454082" lon="98.873443">
<time>2016-10-07T11:20:52Z</time></trkpt>
<trkpt lat="28.454112" lon="98.873413">
<time>2016-10-07T11:20:53Z</time></trkpt>
<trkpt lat="28.454132" lon="98.873383">
<time>2016-10-07T11:20:54Z</time></trkpt>
<trkpt lat="28.454172" lon="98.873323">
<time>2016-10-07T11:20:55Z</time></trkpt>
<trkpt lat="28.454222" lon="98.873253">
<time>2016-10-07T11:20:56Z</time></trkpt>
<trkpt lat="28.454292" lon="98.873143">
<time>2016-10-07T11:20:57Z</time></trkpt>
<trkpt lat="28.454382" lon="98.873063">
<time>2016-10-07T11:20:58Z</time></trkpt>
<trkpt lat="28.454432" lon="98.873023">
<time>2016-10-07T11:20:59Z</time></trkpt>
<trkpt lat="28.454482" lon="98.872993">
<time>2016-10-07T11:21:00Z</time></trkpt>
<trkpt lat="28.454542" lon="98.872973">
<time>2016-10-07T11:21:01Z</time></trkpt>
<trkpt lat="28.454582" lon="98.872963">
<time>2016-10-07T11:21:02Z</time></trkpt>
<trkpt lat="28.454652" lon="98.872953">
<time>2016-10-07T11:21:03Z</time></trkpt>
<trkpt lat="28.454722" lon="98.872943">
<time>2016-10-07T11:21:04Z</time></trkpt>
<trkpt lat="28.454962" lon="98.872903">
<time>2016-10-07T11:21:05Z</time></trkpt>
<trkpt lat="28.455141" lon="98.872873">
<time>2016-10-07T11:21:06Z</time></trkpt>
<trkpt lat="28.455241" lon="98.872843">
<time>2016-10-07T11:21:07Z</time></trkpt>
<trkpt lat="28.455301" lon="98.872803">
<time>2016-10-07T11:21:08Z</time></trkpt>
<trkpt lat="28.455331" lon="98.872773">
<time>2016-10-07T11:21:09Z</time></trkpt>
<trkpt lat="28.455351" lon="98.872733">
<time>2016-10-07T11:21:10Z</time></trkpt>
<trkpt lat="28.455371" lon="98.872663">
<time>2016-10-07T11:21:11Z</time></trkpt>
<trkpt lat="28.455391" lon="98.872593">
<time>2016-10-07T11:21:12Z</time></trkpt>
<trkpt lat="28.455381" lon="98.872523">
<time>2016-10-07T11:21:13Z</time></trkpt>
<trkpt lat="28.455361" lon="98.872413">
<time>2016-10-07T11:21:14Z</time></trkpt>
<trkpt lat="28.455311" lon="98.872243">
<time>2016-10-07T11:21:15Z</time></trkpt>
<trkpt lat="28.455271" lon="98.872113">
<time>2016-10-07T11:21:16Z</time></trkpt>
<trkpt lat="28.4552" lon="98.871883">
<time>2016-10-07T11:21:17Z</time></trkpt>
<trkpt lat="28.45514" lon="98.871643">
<time>2016-10-07T11:21:18Z</time></trkpt>
<trkpt lat="28.45508" lon="98.871292">
<time>2016-10-07T11:21:19Z</time></trkpt>
<trkpt lat="28.455049" lon="98.871042">
<time>2016-10-07T11:21:20Z</time></trkpt>
<trkpt lat="28.455029" lon="98.870872">
<time>2016-10-07T11:21:21Z</time></trkpt>
<trkpt lat="28.455019" lon="98.870682">
<time>2016-10-07T11:21:22Z</time></trkpt>
<trkpt lat="28.455039" lon="98.870532">
<time>2016-10-07T11:21:23Z</time></trkpt>
<trkpt lat="28.455079" lon="98.870402">
<time>2016-10-07T11:21:24Z</time></trkpt>
<trkpt lat="28.455149" lon="98.870302">
<time>2016-10-07T11:21:25Z</time></trkpt>
<trkpt lat="28.455218" lon="98.870232">
<time>2016-10-07T11:21:26Z</time></trkpt>
<trkpt lat="28.455288" lon="98.870162">
<time>2016-10-07T11:21:27Z</time></trkpt>
<trkpt lat="28.455348" lon="98.870092">
<time>2016-10-07T11:21:28Z</time></trkpt>
<trkpt lat="28.455378" lon="98.869972">
<time>2016-10-07T11:21:29Z</time></trkpt>
<trkpt lat="28.455378" lon="98.869852">
<time>2016-10-07T11:21:30Z</time></trkpt>
<trkpt lat="28.455338" lon="98.869742">
<time>2016-10-07T11:21:31Z</time></trkpt>
<trkpt lat="28.455278" lon="98.869632">
<time>2016-10-07T11:21:32Z</time></trkpt>
<trkpt lat="28.455218" lon="98.869501">
<time>2016-10-07T11:21:33Z</time></trkpt>
<trkpt lat="28.455147" lon="98.869341">
<time>2016-10-07T11:21:34Z</time></trkpt>
<trkpt lat="28.455087" lon="98.869171">
<time>2016-10-07T11:21:35Z</time></trkpt>
<trkpt lat="28.455067" lon="98.869071">
<time>2016-10-07T11:21:36Z</time></trkpt>
<trkpt lat="28.454987" lon="98.868801">
<time>2016-10-07T11:21:37Z</time></trkpt>
<trkpt lat="28.454856" lon="98.868461">
<time>2016-10-07T11:21:38Z</time></trkpt>
<trkpt lat="28.454706" lon="98.868071">
<time>2016-10-07T11:21:39Z</time></trkpt>
<trkpt lat="28.454575" lon="98.86773">
<time>2016-10-07T11:21:40Z</time></trkpt>
<trkpt lat="28.454465" lon="98.86744">
<time>2016-10-07T11:21:41Z</time></trkpt>
<trkpt lat="28.454385" lon="98.8672">
<time>2016-10-07T11:21:42Z</time></trkpt>
<trkpt lat="28.454345" lon="98.86695">
<time>2016-10-07T11:21:43Z</time></trkpt>
<trkpt lat="28.454334" lon="98.86671">
<time>2016-10-07T11:21:44Z</time></trkpt>
<trkpt lat="28.454334" lon="98.86658">
<time>2016-10-07T11:21:45Z</time></trkpt>
<trkpt lat="28.454314" lon="98.86648">
<time>2016-10-07T11:21:46Z</time></trkpt>
<trkpt lat="28.454284" lon="98.86638">
<time>2016-10-07T11:21:47Z</time></trkpt>
<trkpt lat="28.454234" lon="98.86629">
<time>2016-10-07T11:21:48Z</time></trkpt>
<trkpt lat="28.454154" lon="98.866189">
<time>2016-10-07T11:21:49Z</time></trkpt>
<trkpt lat="28.454003" lon="98.866049">
<time>2016-10-07T11:21:50Z</time></trkpt>
<trkpt lat="28.453853" lon="98.865909">
<time>2016-10-07T11:21:51Z</time></trkpt>
<trkpt lat="28.453793" lon="98.865829">
<time>2016-10-07T11:21:52Z</time></trkpt>
<trkpt lat="28.453733" lon="98.865719">
<time>2016-10-07T11:21:53Z</time></trkpt>
<trkpt lat="28.453693" lon="98.865569">
<time>2016-10-07T11:21:54Z</time></trkpt>
<trkpt lat="28.453683" lon="98.865399">
<time>2016-10-07T11:21:55Z</time></trkpt>
<trkpt lat="28.453682" lon="98.865139">
<time>2016-10-07T11:21:56Z</time></trkpt>
<trkpt lat="28.453682" lon="98.864899">
<time>2016-10-07T11:21:57Z</time></trkpt>
<trkpt lat="28.453672" lon="98.864758">
<time>2016-10-07T11:21:58Z</time></trkpt>
<trkpt lat="28.453652" lon="98.864638">
<time>2016-10-07T11:21:59Z</time></trkpt>
<trkpt lat="28.453601" lon="98.864488">
<time>2016-10-07T11:22:00Z</time></trkpt>
<trkpt lat="28.453531" lon="98.864348">
<time>2016-10-07T11:22:01Z</time></trkpt>
<trkpt lat="28.453451" lon="98.864208">
<time>2016-10-07T11:22:02Z</time></trkpt>
<trkpt lat="28.453361" lon="98.864078">
<time>2016-10-07T11:22:03Z</time></trkpt>
<trkpt lat="28.453281" lon="98.863908">
<time>2016-10-07T11:22:04Z</time></trkpt>
<trkpt lat="28.45321" lon="98.863688">
<time>2016-10-07T11:22:05Z</time></trkpt>
<trkpt lat="28.45316" lon="98.863508">
<time>2016-10-07T11:22:06Z</time></trkpt>
<trkpt lat="28.45308" lon="98.863357">
<time>2016-10-07T11:22:07Z</time></trkpt>
<trkpt lat="28.45296" lon="98.863127">
<time>2016-10-07T11:22:08Z</time></trkpt>
<trkpt lat="28.45287" lon="98.862947">
<time>2016-10-07T11:22:09Z</time></trkpt>
<trkpt lat="28.452789" lon="98.862757">
<time>2016-10-07T11:22:10Z</time></trkpt>
<trkpt lat="28.452719" lon="98.862547">
<time>2016-10-07T11:22:11Z</time></trkpt>
<trkpt lat="28.452588" lon="98.862106">
<time>2016-10-07T11:22:12Z</time></trkpt>
<trkpt lat="28.452448" lon="98.861636">
<time>2016-10-07T11:22:13Z</time></trkpt>
<trkpt lat="28.452277" lon="98.861016">
<time>2016-10-07T11:22:14Z</time></trkpt>
<trkpt lat="28.452186" lon="98.860635">
<time>2016-10-07T11:22:15Z</time></trkpt>
<trkpt lat="28.452136" lon="98.860425">
<time>2016-10-07T11:22:16Z</time></trkpt>
<trkpt lat="28.452076" lon="98.860195">
<time>2016-10-07T11:22:17Z</time></trkpt>
<trkpt lat="28.452045" lon="98.859965">
<time>2016-10-07T11:22:18Z</time></trkpt>
<trkpt lat="28.452025" lon="98.859774">
<time>2016-10-07T11:22:19Z</time></trkpt>
<trkpt lat="28.451995" lon="98.859604">
<time>2016-10-07T11:22:20Z</time></trkpt>
<trkpt lat="28.451955" lon="98.859394">
<time>2016-10-07T11:22:21Z</time></trkpt>
<trkpt lat="28.451894" lon="98.859164">
<time>2016-10-07T11:22:22Z</time></trkpt>
<trkpt lat="28.451784" lon="98.858774">
<time>2016-10-07T11:22:23Z</time></trkpt>
<trkpt lat="28.451683" lon="98.858443">
<time>2016-10-07T11:22:24Z</time></trkpt>
<trkpt lat="28.451643" lon="98.858303">
<time>2016-10-07T11:22:25Z</time></trkpt>
<trkpt lat="28.451633" lon="98.858243">
<time>2016-10-07T11:22:26Z</time></trkpt>
<trkpt lat="28.451623" lon="98.858183">
<time>2016-10-07T11:22:27Z</time></trkpt>
<trkpt lat="28.451603" lon="98.858033">
<time>2016-10-07T11:22:28Z</time></trkpt>
<trkpt lat="28.451603" lon="98.857953">
<time>2016-10-07T11:22:29Z</time></trkpt>
<trkpt lat="28.451602" lon="98.857893">
<time>2016-10-07T11:22:30Z</time></trkpt>
<trkpt lat="28.451632" lon="98.857723">
<time>2016-10-07T11:22:31Z</time></trkpt>
<trkpt lat="28.451642" lon="98.857583">
<time>2016-10-07T11:22:32Z</time></trkpt>
<trkpt lat="28.451642" lon="98.857462">
<time>2016-10-07T11:22:33Z</time></trkpt>
<trkpt lat="28.451631" lon="98.857262">
<time>2016-10-07T11:22:34Z</time></trkpt>
<trkpt lat="28.451601" lon="98.857092">
<time>2016-10-07T11:22:35Z</time></trkpt>
<trkpt lat="28.451581" lon="98.856972">
<time>2016-10-07T11:22:36Z</time></trkpt>
<trkpt lat="28.451531" lon="98.856732">
<time>2016-10-07T11:22:37Z</time></trkpt>
<trkpt lat="28.45146" lon="98.856421">
<time>2016-10-07T11:22:38Z</time></trkpt>
<trkpt lat="28.45138" lon="98.856141">
<time>2016-10-07T11:22:39Z</time></trkpt>
<trkpt lat="28.45136" lon="98.856011">
<time>2016-10-07T11:22:40Z</time></trkpt>
<trkpt lat="28.451299" lon="98.85537">
<time>2016-10-07T11:22:41Z</time></trkpt>
<trkpt lat="28.451288" lon="98.85524">
<time>2016-10-07T11:22:42Z</time></trkpt>
<trkpt lat="28.451278" lon="98.85511">
<time>2016-10-07T11:22:43Z</time></trkpt>
<trkpt lat="28.451278" lon="98.85501">
<time>2016-10-07T11:22:44Z</time></trkpt>
<trkpt lat="28.451278" lon="98.85489">
<time>2016-10-07T11:22:45Z</time></trkpt>
<trkpt lat="28.451288" lon="98.85482">
<time>2016-10-07T11:22:46Z</time></trkpt>
<trkpt lat="28.451308" lon="98.85472">
<time>2016-10-07T11:22:47Z</time></trkpt>
<trkpt lat="28.451327" lon="98.85468">
<time>2016-10-07T11:22:48Z</time></trkpt>
<trkpt lat="28.451357" lon="98.85464">
<time>2016-10-07T11:22:49Z</time></trkpt>
<trkpt lat="28.451397" lon="98.85459">
<time>2016-10-07T11:22:50Z</time></trkpt>
<trkpt lat="28.451437" lon="98.85457">
<time>2016-10-07T11:22:51Z</time></trkpt>
<trkpt lat="28.451477" lon="98.85456">
<time>2016-10-07T11:22:52Z</time></trkpt>
<trkpt lat="28.451537" lon="98.85454">
<time>2016-10-07T11:22:53Z</time></trkpt>
<trkpt lat="28.451587" lon="98.85454">
<time>2016-10-07T11:22:54Z</time></trkpt>
<trkpt lat="28.451637" lon="98.85454">
<time>2016-10-07T11:22:55Z</time></trkpt>
<trkpt lat="28.451737" lon="98.85455">
<time>2016-10-07T11:22:56Z</time></trkpt>
<trkpt lat="28.451807" lon="98.85456">
<time>2016-10-07T11:22:57Z</time></trkpt>
<trkpt lat="28.451887" lon="98.85457">
<time>2016-10-07T11:22:58Z</time></trkpt>
<trkpt lat="28.452127" lon="98.85466">
<time>2016-10-07T11:22:59Z</time></trkpt>
<trkpt lat="28.452347" lon="98.85474">
<time>2016-10-07T11:23:00Z</time></trkpt>
<trkpt lat="28.452497" lon="98.85478">
<time>2016-10-07T11:23:01Z</time></trkpt>
<trkpt lat="28.452777" lon="98.85485">
<time>2016-10-07T11:23:02Z</time></trkpt>
<trkpt lat="28.452927" lon="98.85487">
<time>2016-10-07T11:23:03Z</time></trkpt>
<trkpt lat="28.453297" lon="98.85495">
<time>2016-10-07T11:23:04Z</time></trkpt>
<trkpt lat="28.453477" lon="98.855">
<time>2016-10-07T11:23:05Z</time></trkpt>
<trkpt lat="28.453607" lon="98.85507">
<time>2016-10-07T11:23:06Z</time></trkpt>
<trkpt lat="28.453678" lon="98.85511">
<time>2016-10-07T11:23:07Z</time></trkpt>
<trkpt lat="28.453768" lon="98.85513">
<time>2016-10-07T11:23:08Z</time></trkpt>
<trkpt lat="28.453868" lon="98.85518">
<time>2016-10-07T11:23:09Z</time></trkpt>
<trkpt lat="28.453978" lon="98.8553">
<time>2016-10-07T11:23:10Z</time></trkpt>
<trkpt lat="28.454078" lon="98.85539">
<time>2016-10-07T11:23:11Z</time></trkpt>
<trkpt lat="28.454158" lon="98.85546">
<time>2016-10-07T11:23:12Z</time></trkpt>
<trkpt lat="28.454278" lon="98.85552">
<time>2016-10-07T11:23:13Z</time></trkpt>
<trkpt lat="28.454358" lon="98.85554">
<time>2016-10-07T11:23:14Z</time></trkpt>
<trkpt lat="28.454418" lon="98.855561">
<time>2016-10-07T11:23:15Z</time></trkpt>
<trkpt lat="28.454558" lon="98.855581">
<time>2016-10-07T11:23:16Z</time></trkpt>
<trkpt lat="28.454768" lon="98.855601">
<time>2016-10-07T11:23:17Z</time></trkpt>
<trkpt lat="28.455258" lon="98.855671">
<time>2016-10-07T11:23:18Z</time></trkpt>
<trkpt lat="28.455718" lon="98.855701">
<time>2016-10-07T11:23:19Z</time></trkpt>
<trkpt lat="28.455918" lon="98.855711">
<time>2016-10-07T11:23:20Z</time></trkpt>
<trkpt lat="28.456098" lon="98.855711">
<time>2016-10-07T11:23:21Z</time></trkpt>
<trkpt lat="28.456418" lon="98.855701">
<time>2016-10-07T11:23:22Z</time></trkpt>
<trkpt lat="28.456508" lon="98.855701">
<time>2016-10-07T11:23:23Z</time></trkpt>
<trkpt lat="28.456728" lon="98.855721">
<time>2016-10-07T11:23:24Z</time></trkpt>
<trkpt lat="28.456938" lon="98.855751">
<time>2016-10-07T11:23:25Z</time></trkpt>
<trkpt lat="28.457088" lon="98.855781">
<time>2016-10-07T11:23:26Z</time></trkpt>
<trkpt lat="28.457188" lon="98.855791">
<time>2016-10-07T11:23:27Z</time></trkpt>
<trkpt lat="28.457318" lon="98.855791">
<time>2016-10-07T11:23:28Z</time></trkpt>
<trkpt lat="28.457957" lon="98.855771">
<time>2016-10-07T11:23:29Z</time></trkpt>
<trkpt lat="28.458167" lon="98.855761">
<time>2016-10-07T11:23:30Z</time></trkpt>
<trkpt lat="28.458397" lon="98.855751">
<time>2016-10-07T11:23:31Z</time></trkpt>
<trkpt lat="28.458607" lon="98.855731">
<time>2016-10-07T11:23:32Z</time></trkpt>
<trkpt lat="28.458817" lon="98.855671">
<time>2016-10-07T11:23:33Z</time></trkpt>
<trkpt lat="28.459037" lon="98.85562">
<time>2016-10-07T11:23:34Z</time></trkpt>
<trkpt lat="28.459177" lon="98.85559">
<time>2016-10-07T11:23:35Z</time></trkpt>
<trkpt lat="28.459267" lon="98.85556">
<time>2016-10-07T11:23:36Z</time></trkpt>
<trkpt lat="28.459367" lon="98.85552">
<time>2016-10-07T11:23:37Z</time></trkpt>
<trkpt lat="28.459476" lon="98.85546">
<time>2016-10-07T11:23:38Z</time></trkpt>
<trkpt lat="28.459606" lon="98.85536">
<time>2016-10-07T11:23:39Z</time></trkpt>
<trkpt lat="28.459696" lon="98.85528">
<time>2016-10-07T11:23:40Z</time></trkpt>
<trkpt lat="28.459736" lon="98.85523">
<time>2016-10-07T11:23:41Z</time></trkpt>
<trkpt lat="28.459796" lon="98.85514">
<time>2016-10-07T11:23:42Z</time></trkpt>
<trkpt lat="28.459886" lon="98.855">
<time>2016-10-07T11:23:43Z</time></trkpt>
<trkpt lat="28.459955" lon="98.8549">
<time>2016-10-07T11:23:44Z</time></trkpt>
<trkpt lat="28.460035" lon="98.85485">
<time>2016-10-07T11:23:45Z</time></trkpt>
<trkpt lat="28.460115" lon="98.85481">
<time>2016-10-07T11:23:46Z</time></trkpt>
<trkpt lat="28.460225" lon="98.85479">
<time>2016-10-07T11:23:47Z</time></trkpt>
<trkpt lat="28.460315" lon="98.85479">
<time>2016-10-07T11:23:48Z</time></trkpt>
<trkpt lat="28.460395" lon="98.8548">
<time>2016-10-07T11:23:49Z</time></trkpt>
<trkpt lat="28.460535" lon="98.8548">
<time>2016-10-07T11:23:50Z</time></trkpt>
<trkpt lat="28.460625" lon="98.85481">
<time>2016-10-07T11:23:51Z</time></trkpt>
<trkpt lat="28.460725" lon="98.8548">
<time>2016-10-07T11:23:52Z</time></trkpt>
<trkpt lat="28.460775" lon="98.85478">
<time>2016-10-07T11:23:53Z</time></trkpt>
<trkpt lat="28.460845" lon="98.85476">
<time>2016-10-07T11:23:54Z</time></trkpt>
<trkpt lat="28.460905" lon="98.85474">
<time>2016-10-07T11:23:55Z</time></trkpt>
<trkpt lat="28.461305" lon="98.854539">
<time>2016-10-07T11:23:56Z</time></trkpt>
<trkpt lat="28.461604" lon="98.854379">
<time>2016-10-07T11:23:57Z</time></trkpt>
<trkpt lat="28.462094" lon="98.854129">
<time>2016-10-07T11:23:58Z</time></trkpt>
<trkpt lat="28.462283" lon="98.854029">
<time>2016-10-07T11:23:59Z</time></trkpt>
<trkpt lat="28.462413" lon="98.853939">
<time>2016-10-07T11:24:00Z</time></trkpt>
<trkpt lat="28.462573" lon="98.853809">
<time>2016-10-07T11:24:01Z</time></trkpt>
<trkpt lat="28.462713" lon="98.853678">
<time>2016-10-07T11:24:02Z</time></trkpt>
<trkpt lat="28.462942" lon="98.853468">
<time>2016-10-07T11:24:03Z</time></trkpt>
<trkpt lat="28.463152" lon="98.853258">
<time>2016-10-07T11:24:04Z</time></trkpt>
<trkpt lat="28.463272" lon="98.853068">
<time>2016-10-07T11:24:05Z</time></trkpt>
<trkpt lat="28.463361" lon="98.852888">
<time>2016-10-07T11:24:06Z</time></trkpt>
<trkpt lat="28.463441" lon="98.852637">
<time>2016-10-07T11:24:07Z</time></trkpt>
<trkpt lat="28.463511" lon="98.852467">
<time>2016-10-07T11:24:08Z</time></trkpt>
<trkpt lat="28.4636" lon="98.852307">
<time>2016-10-07T11:24:09Z</time></trkpt>
<trkpt lat="28.46371" lon="98.852177">
<time>2016-10-07T11:24:10Z</time></trkpt>
<trkpt lat="28.4638" lon="98.852087">
<time>2016-10-07T11:24:11Z</time></trkpt>
<trkpt lat="28.4639" lon="98.851997">
<time>2016-10-07T11:24:12Z</time></trkpt>
<trkpt lat="28.463989" lon="98.851897">
<time>2016-10-07T11:24:13Z</time></trkpt>
<trkpt lat="28.464069" lon="98.851786">
<time>2016-10-07T11:24:14Z</time></trkpt>
<trkpt lat="28.464119" lon="98.851686">
<time>2016-10-07T11:24:15Z</time></trkpt>
<trkpt lat="28.464179" lon="98.851546">
<time>2016-10-07T11:24:16Z</time></trkpt>
<trkpt lat="28.464308" lon="98.851166">
<time>2016-10-07T11:24:17Z</time></trkpt>
<trkpt lat="28.464408" lon="98.850905">
<time>2016-10-07T11:24:18Z</time></trkpt>
<trkpt lat="28.464477" lon="98.850725">
<time>2016-10-07T11:24:19Z</time></trkpt>
<trkpt lat="28.464557" lon="98.850525">
<time>2016-10-07T11:24:20Z</time></trkpt>
<trkpt lat="28.464667" lon="98.850315">
<time>2016-10-07T11:24:21Z</time></trkpt>
<trkpt lat="28.464806" lon="98.850115">
<time>2016-10-07T11:24:22Z</time></trkpt>
<trkpt lat="28.464886" lon="98.850004">
<time>2016-10-07T11:24:23Z</time></trkpt>
<trkpt lat="28.464956" lon="98.849894">
<time>2016-10-07T11:24:24Z</time></trkpt>
<trkpt lat="28.464986" lon="98.849804">
<time>2016-10-07T11:24:25Z</time></trkpt>
<trkpt lat="28.465035" lon="98.849634">
<time>2016-10-07T11:24:26Z</time></trkpt>
<trkpt lat="28.465045" lon="98.849514">
<time>2016-10-07T11:24:27Z</time></trkpt>
<trkpt lat="28.465045" lon="98.849344">
<time>2016-10-07T11:24:28Z</time></trkpt>
<trkpt lat="28.465055" lon="98.849214">
<time>2016-10-07T11:24:29Z</time></trkpt>
<trkpt lat="28.465064" lon="98.849013">
<time>2016-10-07T11:24:30Z</time></trkpt>
<trkpt lat="28.465104" lon="98.848803">
<time>2016-10-07T11:24:31Z</time></trkpt>
<trkpt lat="28.465163" lon="98.848553">
<time>2016-10-07T11:24:32Z</time></trkpt>
<trkpt lat="28.465213" lon="98.848393">
<time>2016-10-07T11:24:33Z</time></trkpt>
<trkpt lat="28.465253" lon="98.848232">
<time>2016-10-07T11:24:34Z</time></trkpt>
<trkpt lat="28.465263" lon="98.848162">
<time>2016-10-07T11:24:35Z</time></trkpt>
<trkpt lat="28.465283" lon="98.848062">
<time>2016-10-07T11:24:36Z</time></trkpt>
<trkpt lat="28.465282" lon="98.847962">
<time>2016-10-07T11:24:37Z</time></trkpt>
<trkpt lat="28.465262" lon="98.847842">
<time>2016-10-07T11:24:38Z</time></trkpt>
<trkpt lat="28.465222" lon="98.847682">
<time>2016-10-07T11:24:39Z</time></trkpt>
<trkpt lat="28.465162" lon="98.847542">
<time>2016-10-07T11:24:40Z</time></trkpt>
<trkpt lat="28.465112" lon="98.847412">
<time>2016-10-07T11:24:41Z</time></trkpt>
<trkpt lat="28.465081" lon="98.847281">
<time>2016-10-07T11:24:42Z</time></trkpt>
<trkpt lat="28.465061" lon="98.847181">
<time>2016-10-07T11:24:43Z</time></trkpt>
<trkpt lat="28.465071" lon="98.847091">
<time>2016-10-07T11:24:44Z</time></trkpt>
<trkpt lat="28.465111" lon="98.846971">
<time>2016-10-07T11:24:45Z</time></trkpt>
<trkpt lat="28.46519" lon="98.846831">
<time>2016-10-07T11:24:46Z</time></trkpt>
<trkpt lat="28.46528" lon="98.846661">
<time>2016-10-07T11:24:47Z</time></trkpt>
<trkpt lat="28.46534" lon="98.84653">
<time>2016-10-07T11:24:48Z</time></trkpt>
<trkpt lat="28.46538" lon="98.8464">
<time>2016-10-07T11:24:49Z</time></trkpt>
<trkpt lat="28.465409" lon="98.84628">
<time>2016-10-07T11:24:50Z</time></trkpt>
<trkpt lat="28.465439" lon="98.84615">
<time>2016-10-07T11:24:51Z</time></trkpt>
<trkpt lat="28.465479" lon="98.84605">
<time>2016-10-07T11:24:52Z</time></trkpt>
<trkpt lat="28.465539" lon="98.84596">
<time>2016-10-07T11:24:53Z</time></trkpt>
<trkpt lat="28.465609" lon="98.84587">
<time>2016-10-07T11:24:54Z</time></trkpt>
<trkpt lat="28.465699" lon="98.8458">
<time>2016-10-07T11:24:55Z</time></trkpt>
<trkpt lat="28.465818" lon="98.845709">
<time>2016-10-07T11:24:56Z</time></trkpt>
<trkpt lat="28.465948" lon="98.845629">
<time>2016-10-07T11:24:57Z</time></trkpt>
<trkpt lat="28.466038" lon="98.845569">
<time>2016-10-07T11:24:58Z</time></trkpt>
<trkpt lat="28.466118" lon="98.845499">
<time>2016-10-07T11:24:59Z</time></trkpt>
<trkpt lat="28.466188" lon="98.845429">
<time>2016-10-07T11:25:00Z</time></trkpt>
<trkpt lat="28.466268" lon="98.845339">
<time>2016-10-07T11:25:01Z</time></trkpt>
<trkpt lat="28.466337" lon="98.845249">
<time>2016-10-07T11:25:02Z</time></trkpt>
<trkpt lat="28.466407" lon="98.845139">
<time>2016-10-07T11:25:03Z</time></trkpt>
<trkpt lat="28.466597" lon="98.844808">
<time>2016-10-07T11:25:04Z</time></trkpt>
<trkpt lat="28.466656" lon="98.844688">
<time>2016-10-07T11:25:05Z</time></trkpt>
<trkpt lat="28.466736" lon="98.844538">
<time>2016-10-07T11:25:06Z</time></trkpt>
<trkpt lat="28.466806" lon="98.844428">
<time>2016-10-07T11:25:07Z</time></trkpt>
<trkpt lat="28.466846" lon="98.844378">
<time>2016-10-07T11:25:08Z</time></trkpt>
<trkpt lat="28.466896" lon="98.844338">
<time>2016-10-07T11:25:09Z</time></trkpt>
<trkpt lat="28.466936" lon="98.844308">
<time>2016-10-07T11:25:10Z</time></trkpt>
<trkpt lat="28.466985" lon="98.844278">
<time>2016-10-07T11:25:11Z</time></trkpt>
<trkpt lat="28.467015" lon="98.844268">
<time>2016-10-07T11:25:12Z</time></trkpt>
<trkpt lat="28.467065" lon="98.844268">
<time>2016-10-07T11:25:13Z</time></trkpt>
<trkpt lat="28.467115" lon="98.844278">
<time>2016-10-07T11:25:14Z</time></trkpt>
<trkpt lat="28.467165" lon="98.844308">
<time>2016-10-07T11:25:15Z</time></trkpt>
<trkpt lat="28.467205" lon="98.844328">
<time>2016-10-07T11:25:16Z</time></trkpt>
<trkpt lat="28.467256" lon="98.844368">
<time>2016-10-07T11:25:17Z</time></trkpt>
<trkpt lat="28.467286" lon="98.844408">
<time>2016-10-07T11:25:18Z</time></trkpt>
<trkpt lat="28.467346" lon="98.844488">
<time>2016-10-07T11:25:19Z</time></trkpt>
<trkpt lat="28.467396" lon="98.844578">
<time>2016-10-07T11:25:20Z</time></trkpt>
<trkpt lat="28.467456" lon="98.844678">
<time>2016-10-07T11:25:21Z</time></trkpt>
<trkpt lat="28.467546" lon="98.844778">
<time>2016-10-07T11:25:22Z</time></trkpt>
<trkpt lat="28.467656" lon="98.844868">
<time>2016-10-07T11:25:23Z</time></trkpt>
<trkpt lat="28.467897" lon="98.845029">
<time>2016-10-07T11:25:24Z</time></trkpt>
<trkpt lat="28.467997" lon="98.845089">
<time>2016-10-07T11:25:25Z</time></trkpt>
<trkpt lat="28.468107" lon="98.845149">
<time>2016-10-07T11:25:26Z</time></trkpt>
<trkpt lat="28.468327" lon="98.845229">
<time>2016-10-07T11:25:27Z</time></trkpt>
<trkpt lat="28.468477" lon="98.845279">
<time>2016-10-07T11:25:28Z</time></trkpt>
<trkpt lat="28.468577" lon="98.845309">
<time>2016-10-07T11:25:29Z</time></trkpt>
<trkpt lat="28.468667" lon="98.845349">
<time>2016-10-07T11:25:30Z</time></trkpt>
<trkpt lat="28.468747" lon="98.845389">
<time>2016-10-07T11:25:31Z</time></trkpt>
<trkpt lat="28.468817" lon="98.845439">
<time>2016-10-07T11:25:32Z</time></trkpt>
<trkpt lat="28.468857" lon="98.845479">
<time>2016-10-07T11:25:33Z</time></trkpt>
<trkpt lat="28.468907" lon="98.845539">
<time>2016-10-07T11:25:34Z</time></trkpt>
<trkpt lat="28.468987" lon="98.845629">
<time>2016-10-07T11:25:35Z</time></trkpt>
<trkpt lat="28.469047" lon="98.845729">
<time>2016-10-07T11:25:36Z</time></trkpt>
<trkpt lat="28.469088" lon="98.8458">
<time>2016-10-07T11:25:37Z</time></trkpt>
<trkpt lat="28.469128" lon="98.84587">
<time>2016-10-07T11:25:38Z</time></trkpt>
<trkpt lat="28.469168" lon="98.84596">
<time>2016-10-07T11:25:39Z</time></trkpt>
<trkpt lat="28.469208" lon="98.84606">
<time>2016-10-07T11:25:40Z</time></trkpt>
<trkpt lat="28.469248" lon="98.84624">
<time>2016-10-07T11:25:41Z</time></trkpt>
<trkpt lat="28.469269" lon="98.84641">
<time>2016-10-07T11:25:42Z</time></trkpt>
<trkpt lat="28.469299" lon="98.84651">
<time>2016-10-07T11:25:43Z</time></trkpt>
<trkpt lat="28.469339" lon="98.84661">
<time>2016-10-07T11:25:44Z</time></trkpt>
<trkpt lat="28.469419" lon="98.846761">
<time>2016-10-07T11:25:45Z</time></trkpt>
<trkpt lat="28.469529" lon="98.846961">
<time>2016-10-07T11:25:46Z</time></trkpt>
<trkpt lat="28.46967" lon="98.847331">
<time>2016-10-07T11:25:47Z</time></trkpt>
<trkpt lat="28.46973" lon="98.847512">
<time>2016-10-07T11:25:48Z</time></trkpt>
<trkpt lat="28.469821" lon="98.847732">
<time>2016-10-07T11:25:49Z</time></trkpt>
<trkpt lat="28.469971" lon="98.848012">
<time>2016-10-07T11:25:50Z</time></trkpt>
<trkpt lat="28.470212" lon="98.848383">
<time>2016-10-07T11:25:51Z</time></trkpt>
<trkpt lat="28.470402" lon="98.848613">
<time>2016-10-07T11:25:52Z</time></trkpt>
<trkpt lat="28.470592" lon="98.848783">
<time>2016-10-07T11:25:53Z</time></trkpt>
<trkpt lat="28.470742" lon="98.848873">
<time>2016-10-07T11:25:54Z</time></trkpt>
<trkpt lat="28.470852" lon="98.848933">
<time>2016-10-07T11:25:55Z</time></trkpt>
<trkpt lat="28.471003" lon="98.848983">
<time>2016-10-07T11:25:56Z</time></trkpt>
<trkpt lat="28.471443" lon="98.849143">
<time>2016-10-07T11:25:57Z</time></trkpt>
<trkpt lat="28.471773" lon="98.849294">
<time>2016-10-07T11:25:58Z</time></trkpt>
<trkpt lat="28.472023" lon="98.849364">
<time>2016-10-07T11:25:59Z</time></trkpt>
<trkpt lat="28.472243" lon="98.849424">
<time>2016-10-07T11:26:00Z</time></trkpt>
<trkpt lat="28.472413" lon="98.849464">
<time>2016-10-07T11:26:01Z</time></trkpt>
<trkpt lat="28.472583" lon="98.849474">
<time>2016-10-07T11:26:02Z</time></trkpt>
<trkpt lat="28.472773" lon="98.849484">
<time>2016-10-07T11:26:03Z</time></trkpt>
<trkpt lat="28.472963" lon="98.849464">
<time>2016-10-07T11:26:04Z</time></trkpt>
<trkpt lat="28.473133" lon="98.849444">
<time>2016-10-07T11:26:05Z</time></trkpt>
<trkpt lat="28.473273" lon="98.849414">
<time>2016-10-07T11:26:06Z</time></trkpt>
<trkpt lat="28.473532" lon="98.849374">
<time>2016-10-07T11:26:07Z</time></trkpt>
<trkpt lat="28.473692" lon="98.849364">
<time>2016-10-07T11:26:08Z</time></trkpt>
<trkpt lat="28.473812" lon="98.849354">
<time>2016-10-07T11:26:09Z</time></trkpt>
<trkpt lat="28.473932" lon="98.849364">
<time>2016-10-07T11:26:10Z</time></trkpt>
<trkpt lat="28.474022" lon="98.849384">
<time>2016-10-07T11:26:11Z</time></trkpt>
<trkpt lat="28.474102" lon="98.849404">
<time>2016-10-07T11:26:12Z</time></trkpt>
<trkpt lat="28.474292" lon="98.849454">
<time>2016-10-07T11:26:13Z</time></trkpt>
<trkpt lat="28.474692" lon="98.849564">
<time>2016-10-07T11:26:14Z</time></trkpt>
<trkpt lat="28.474912" lon="98.849624">
<time>2016-10-07T11:26:15Z</time></trkpt>
<trkpt lat="28.475092" lon="98.849674">
<time>2016-10-07T11:26:16Z</time></trkpt>
<trkpt lat="28.475223" lon="98.849724">
<time>2016-10-07T11:26:17Z</time></trkpt>
<trkpt lat="28.475343" lon="98.849784">
<time>2016-10-07T11:26:18Z</time></trkpt>
<trkpt lat="28.475433" lon="98.849824">
<time>2016-10-07T11:26:19Z</time></trkpt>
<trkpt lat="28.475493" lon="98.849874">
<time>2016-10-07T11:26:20Z</time></trkpt>
<trkpt lat="28.475553" lon="98.849914">
<time>2016-10-07T11:26:21Z</time></trkpt>
<trkpt lat="28.475583" lon="98.849954">
<time>2016-10-07T11:26:22Z</time></trkpt>
<trkpt lat="28.475613" lon="98.849994">
<time>2016-10-07T11:26:23Z</time></trkpt>
<trkpt lat="28.475643" lon="98.850034">
<time>2016-10-07T11:26:24Z</time></trkpt>
<trkpt lat="28.475663" lon="98.850074">
<time>2016-10-07T11:26:25Z</time></trkpt>
<trkpt lat="28.475683" lon="98.850134">
<time>2016-10-07T11:26:26Z</time></trkpt>
<trkpt lat="28.475723" lon="98.850255">
<time>2016-10-07T11:26:27Z</time></trkpt>
<trkpt lat="28.475753" lon="98.850365">
<time>2016-10-07T11:26:28Z</time></trkpt>
<trkpt lat="28.475794" lon="98.850435">
<time>2016-10-07T11:26:29Z</time></trkpt>
<trkpt lat="28.475814" lon="98.850475">
<time>2016-10-07T11:26:30Z</time></trkpt>
<trkpt lat="28.475854" lon="98.850525">
<time>2016-10-07T11:26:31Z</time></trkpt>
<trkpt lat="28.475884" lon="98.850555">
<time>2016-10-07T11:26:32Z</time></trkpt>
<trkpt lat="28.475924" lon="98.850605">
<time>2016-10-07T11:26:33Z</time></trkpt>
<trkpt lat="28.475954" lon="98.850635">
<time>2016-10-07T11:26:34Z</time></trkpt>
<trkpt lat="28.475994" lon="98.850665">
<time>2016-10-07T11:26:35Z</time></trkpt>
<trkpt lat="28.476194" lon="98.850805">
<time>2016-10-07T11:26:36Z</time></trkpt>
<trkpt lat="28.476354" lon="98.850925">
<time>2016-10-07T11:26:37Z</time></trkpt>
<trkpt lat="28.476424" lon="98.850975">
<time>2016-10-07T11:26:38Z</time></trkpt>
<trkpt lat="28.476504" lon="98.851045">
<time>2016-10-07T11:26:39Z</time></trkpt>
<trkpt lat="28.476544" lon="98.851095">
<time>2016-10-07T11:26:40Z</time></trkpt>
<trkpt lat="28.476585" lon="98.851176">
<time>2016-10-07T11:26:41Z</time></trkpt>
<trkpt lat="28.476605" lon="98.851226">
<time>2016-10-07T11:26:42Z</time></trkpt>
<trkpt lat="28.476625" lon="98.851316">
<time>2016-10-07T11:26:43Z</time></trkpt>
<trkpt lat="28.476645" lon="98.851426">
<time>2016-10-07T11:26:44Z</time></trkpt>
<trkpt lat="28.476675" lon="98.851526">
<time>2016-10-07T11:26:45Z</time></trkpt>
<trkpt lat="28.476685" lon="98.851566">
<time>2016-10-07T11:26:46Z</time></trkpt>
<trkpt lat="28.476705" lon="98.851626">
<time>2016-10-07T11:26:47Z</time></trkpt>
<trkpt lat="28.476715" lon="98.851666">
<time>2016-10-07T11:26:48Z</time></trkpt>
<trkpt lat="28.476735" lon="98.851706">
<time>2016-10-07T11:26:49Z</time></trkpt>
<trkpt lat="28.476765" lon="98.851766">
<time>2016-10-07T11:26:50Z</time></trkpt>
<trkpt lat="28.476786" lon="98.851806">
<time>2016-10-07T11:26:51Z</time></trkpt>
<trkpt lat="28.476826" lon="98.851856">
<time>2016-10-07T11:26:52Z</time></trkpt>
<trkpt lat="28.476876" lon="98.851906">
<time>2016-10-07T11:26:53Z</time></trkpt>
<trkpt lat="28.476906" lon="98.851946">
<time>2016-10-07T11:26:54Z</time></trkpt>
<trkpt lat="28.476946" lon="98.851986">
<time>2016-10-07T11:26:55Z</time></trkpt>
<trkpt lat="28.477006" lon="98.852016">
<time>2016-10-07T11:26:56Z</time></trkpt>
<trkpt lat="28.477116" lon="98.852077">
<time>2016-10-07T11:26:57Z</time></trkpt>
<trkpt lat="28.477256" lon="98.852157">
<time>2016-10-07T11:26:58Z</time></trkpt>
<trkpt lat="28.477336" lon="98.852207">
<time>2016-10-07T11:26:59Z</time></trkpt>
<trkpt lat="28.477386" lon="98.852237">
<time>2016-10-07T11:27:00Z</time></trkpt>
<trkpt lat="28.477446" lon="98.852307">
<time>2016-10-07T11:27:01Z</time></trkpt>
<trkpt lat="28.477496" lon="98.852357">
<time>2016-10-07T11:27:02Z</time></trkpt>
<trkpt lat="28.477536" lon="98.852417">
<time>2016-10-07T11:27:03Z</time></trkpt>
<trkpt lat="28.477657" lon="98.852617">
<time>2016-10-07T11:27:04Z</time></trkpt>
<trkpt lat="28.477857" lon="98.852997">
<time>2016-10-07T11:27:05Z</time></trkpt>
<trkpt lat="28.477927" lon="98.853108">
<time>2016-10-07T11:27:06Z</time></trkpt>
<trkpt lat="28.477967" lon="98.853168">
<time>2016-10-07T11:27:07Z</time></trkpt>
<trkpt lat="28.477997" lon="98.853198">
<time>2016-10-07T11:27:08Z</time></trkpt>
<trkpt lat="28.478108" lon="98.853328">
<time>2016-10-07T11:27:09Z</time></trkpt>
<trkpt lat="28.478348" lon="98.853578">
<time>2016-10-07T11:27:10Z</time></trkpt>
<trkpt lat="28.478648" lon="98.853888">
<time>2016-10-07T11:27:11Z</time></trkpt>
<trkpt lat="28.478879" lon="98.854129">
<time>2016-10-07T11:27:12Z</time></trkpt>
<trkpt lat="28.478909" lon="98.854159">
<time>2016-10-07T11:27:13Z</time></trkpt>
<trkpt lat="28.478959" lon="98.854209">
<time>2016-10-07T11:27:14Z</time></trkpt>
<trkpt lat="28.478999" lon="98.854239">
<time>2016-10-07T11:27:15Z</time></trkpt>
<trkpt lat="28.479049" lon="98.854259">
<time>2016-10-07T11:27:16Z</time></trkpt>
<trkpt lat="28.479119" lon="98.854289">
<time>2016-10-07T11:27:17Z</time></trkpt>
<trkpt lat="28.479209" lon="98.854309">
<time>2016-10-07T11:27:18Z</time></trkpt>
<trkpt lat="28.479279" lon="98.854319">
<time>2016-10-07T11:27:19Z</time></trkpt>
<trkpt lat="28.479339" lon="98.854319">
<time>2016-10-07T11:27:20Z</time></trkpt>
<trkpt lat="28.479369" lon="98.854319">
<time>2016-10-07T11:27:21Z</time></trkpt>
<trkpt lat="28.479389" lon="98.854319">
<time>2016-10-07T11:27:22Z</time></trkpt>
<trkpt lat="28.479419" lon="98.854309">
<time>2016-10-07T11:27:23Z</time></trkpt>
<trkpt lat="28.479449" lon="98.854299">
<time>2016-10-07T11:27:24Z</time></trkpt>
<trkpt lat="28.479469" lon="98.854279">
<time>2016-10-07T11:27:25Z</time></trkpt>
<trkpt lat="28.479489" lon="98.854259">
<time>2016-10-07T11:27:26Z</time></trkpt>
<trkpt lat="28.479509" lon="98.854219">
<time>2016-10-07T11:27:27Z</time></trkpt>
<trkpt lat="28.479519" lon="98.854189">
<time>2016-10-07T11:27:28Z</time></trkpt>
<trkpt lat="28.479529" lon="98.854149">
<time>2016-10-07T11:27:29Z</time></trkpt>
<trkpt lat="28.479528" lon="98.854099">
<time>2016-10-07T11:27:30Z</time></trkpt>
<trkpt lat="28.479518" lon="98.854039">
<time>2016-10-07T11:27:31Z</time></trkpt>
<trkpt lat="28.479498" lon="98.853968">
<time>2016-10-07T11:27:32Z</time></trkpt>
<trkpt lat="28.479478" lon="98.853928">
<time>2016-10-07T11:27:33Z</time></trkpt>
<trkpt lat="28.479438" lon="98.853868">
<time>2016-10-07T11:27:34Z</time></trkpt>
<trkpt lat="28.479378" lon="98.853788">
<time>2016-10-07T11:27:35Z</time></trkpt>
<trkpt lat="28.479298" lon="98.853688">
<time>2016-10-07T11:27:36Z</time></trkpt>
<trkpt lat="28.479268" lon="98.853648">
<time>2016-10-07T11:27:37Z</time></trkpt>
<trkpt lat="28.479228" lon="98.853598">
<time>2016-10-07T11:27:38Z</time></trkpt>
<trkpt lat="28.479208" lon="98.853568">
<time>2016-10-07T11:27:39Z</time></trkpt>
<trkpt lat="28.479178" lon="98.853508">
<time>2016-10-07T11:27:40Z</time></trkpt>
<trkpt lat="28.479117" lon="98.853358">
<time>2016-10-07T11:27:41Z</time></trkpt>
<trkpt lat="28.479027" lon="98.853108">
<time>2016-10-07T11:27:42Z</time></trkpt>
<trkpt lat="28.478917" lon="98.852817">
<time>2016-10-07T11:27:43Z</time></trkpt>
<trkpt lat="28.478836" lon="98.852547">
<time>2016-10-07T11:27:44Z</time></trkpt>
<trkpt lat="28.478816" lon="98.852437">
<time>2016-10-07T11:27:45Z</time></trkpt>
<trkpt lat="28.478806" lon="98.852327">
<time>2016-10-07T11:27:46Z</time></trkpt>
<trkpt lat="28.478785" lon="98.851886">
<time>2016-10-07T11:27:47Z</time></trkpt>
<trkpt lat="28.478765" lon="98.851606">
<time>2016-10-07T11:27:48Z</time></trkpt>
<trkpt lat="28.478764" lon="98.851516">
<time>2016-10-07T11:27:49Z</time></trkpt>
<trkpt lat="28.478764" lon="98.851376">
<time>2016-10-07T11:27:50Z</time></trkpt>
<trkpt lat="28.478774" lon="98.851326">
<time>2016-10-07T11:27:51Z</time></trkpt>
<trkpt lat="28.478794" lon="98.851266">
<time>2016-10-07T11:27:52Z</time></trkpt>
<trkpt lat="28.478824" lon="98.851176">
<time>2016-10-07T11:27:53Z</time></trkpt>
<trkpt lat="28.478893" lon="98.850955">
<time>2016-10-07T11:27:54Z</time></trkpt>
<trkpt lat="28.478933" lon="98.850825">
<time>2016-10-07T11:27:55Z</time></trkpt>
<trkpt lat="28.478993" lon="98.850545">
<time>2016-10-07T11:27:56Z</time></trkpt>
<trkpt lat="28.479042" lon="98.850315">
<time>2016-10-07T11:27:57Z</time></trkpt>
<trkpt lat="28.479062" lon="98.850184">
<time>2016-10-07T11:27:58Z</time></trkpt>
<trkpt lat="28.479062" lon="98.850124">
<time>2016-10-07T11:27:59Z</time></trkpt>
<trkpt lat="28.479072" lon="98.850054">
<time>2016-10-07T11:28:00Z</time></trkpt>
<trkpt lat="28.479072" lon="98.849974">
<time>2016-10-07T11:28:01Z</time></trkpt>
<trkpt lat="28.479072" lon="98.849934">
<time>2016-10-07T11:28:02Z</time></trkpt>
<trkpt lat="28.479062" lon="98.849884">
<time>2016-10-07T11:28:03Z</time></trkpt>
<trkpt lat="28.479052" lon="98.849844">
<time>2016-10-07T11:28:04Z</time></trkpt>
<trkpt lat="28.479041" lon="98.849784">
<time>2016-10-07T11:28:05Z</time></trkpt>
<trkpt lat="28.479011" lon="98.849714">
<time>2016-10-07T11:28:06Z</time></trkpt>
<trkpt lat="28.478991" lon="98.849654">
<time>2016-10-07T11:28:07Z</time></trkpt>
<trkpt lat="28.478931" lon="98.849574">
<time>2016-10-07T11:28:08Z</time></trkpt>
<trkpt lat="28.478871" lon="98.849514">
<time>2016-10-07T11:28:09Z</time></trkpt>
<trkpt lat="28.478721" lon="98.849363">
<time>2016-10-07T11:28:10Z</time></trkpt>
<trkpt lat="28.478681" lon="98.849293">
<time>2016-10-07T11:28:11Z</time></trkpt>
<trkpt lat="28.478661" lon="98.849263">
<time>2016-10-07T11:28:12Z</time></trkpt>
<trkpt lat="28.478641" lon="98.849223">
<time>2016-10-07T11:28:13Z</time></trkpt>
<trkpt lat="28.478631" lon="98.849183">
<time>2016-10-07T11:28:14Z</time></trkpt>
<trkpt lat="28.47863" lon="98.849143">
<time>2016-10-07T11:28:15Z</time></trkpt>
<trkpt lat="28.47862" lon="98.849113">
<time>2016-10-07T11:28:16Z</time></trkpt>
<trkpt lat="28.47862" lon="98.849073">
<time>2016-10-07T11:28:17Z</time></trkpt>
<trkpt lat="28.47862" lon="98.849033">
<time>2016-10-07T11:28:18Z</time></trkpt>
<trkpt lat="28.47863" lon="98.848983">
<time>2016-10-07T11:28:19Z</time></trkpt>
<trkpt lat="28.47864" lon="98.848893">
<time>2016-10-07T11:28:20Z</time></trkpt>
<trkpt lat="28.47868" lon="98.848683">
<time>2016-10-07T11:28:21Z</time></trkpt>
<trkpt lat="28.478709" lon="98.848462">
<time>2016-10-07T11:28:22Z</time></trkpt>
<trkpt lat="28.478739" lon="98.848302">
<time>2016-10-07T11:28:23Z</time></trkpt>
<trkpt lat="28.478769" lon="98.848122">
<time>2016-10-07T11:28:24Z</time></trkpt>
<trkpt lat="28.478798" lon="98.848002">
<time>2016-10-07T11:28:25Z</time></trkpt>
<trkpt lat="28.478818" lon="98.847942">
<time>2016-10-07T11:28:26Z</time></trkpt>
<trkpt lat="28.478838" lon="98.847862">
<time>2016-10-07T11:28:27Z</time></trkpt>
<trkpt lat="28.478848" lon="98.847822">
<time>2016-10-07T11:28:28Z</time></trkpt>
<trkpt lat="28.478848" lon="98.847772">
<time>2016-10-07T11:28:29Z</time></trkpt>
<trkpt lat="28.478848" lon="98.847732">
<time>2016-10-07T11:28:30Z</time></trkpt>
<trkpt lat="28.478838" lon="98.847682">
<time>2016-10-07T11:28:31Z</time></trkpt>
<trkpt lat="28.478828" lon="98.847622">
<time>2016-10-07T11:28:32Z</time></trkpt>
<trkpt lat="28.478818" lon="98.847561">
<time>2016-10-07T11:28:33Z</time></trkpt>
<trkpt lat="28.478798" lon="98.847541">
<time>2016-10-07T11:28:34Z</time></trkpt>
<trkpt lat="28.478788" lon="98.847501">
<time>2016-10-07T11:28:35Z</time></trkpt>
<trkpt lat="28.478768" lon="98.847481">
<time>2016-10-07T11:28:36Z</time></trkpt>
<trkpt lat="28.478738" lon="98.847441">
<time>2016-10-07T11:28:37Z</time></trkpt>
<trkpt lat="28.478667" lon="98.847391">
<time>2016-10-07T11:28:38Z</time></trkpt>
<trkpt lat="28.478567" lon="98.847311">
<time>2016-10-07T11:28:39Z</time></trkpt>
<trkpt lat="28.478527" lon="98.847281">
<time>2016-10-07T11:28:40Z</time></trkpt>
<trkpt lat="28.478467" lon="98.847241">
<time>2016-10-07T11:28:41Z</time></trkpt>
<trkpt lat="28.478437" lon="98.847201">
<time>2016-10-07T11:28:42Z</time></trkpt>
<trkpt lat="28.478397" lon="98.847161">
<time>2016-10-07T11:28:43Z</time></trkpt>
<trkpt lat="28.478357" lon="98.847101">
<time>2016-10-07T11:28:44Z</time></trkpt>
<trkpt lat="28.478327" lon="98.847041">
<time>2016-10-07T11:28:45Z</time></trkpt>
<trkpt lat="28.478307" lon="98.846981">
<time>2016-10-07T11:28:46Z</time></trkpt>
<trkpt lat="28.478277" lon="98.846861">
<time>2016-10-07T11:28:47Z</time></trkpt>
<trkpt lat="28.478246" lon="98.84673">
<time>2016-10-07T11:28:48Z</time></trkpt>
<trkpt lat="28.478196" lon="98.84649">
<time>2016-10-07T11:28:49Z</time></trkpt>
<trkpt lat="28.478176" lon="98.8464">
<time>2016-10-07T11:28:50Z</time></trkpt>
<trkpt lat="28.478156" lon="98.84632">
<time>2016-10-07T11:28:51Z</time></trkpt>
<trkpt lat="28.478116" lon="98.84623">
<time>2016-10-07T11:28:52Z</time></trkpt>
<trkpt lat="28.478056" lon="98.84616">
<time>2016-10-07T11:28:53Z</time></trkpt>
<trkpt lat="28.477975" lon="98.84608">
<time>2016-10-07T11:28:54Z</time></trkpt>
<trkpt lat="28.477895" lon="98.84602">
<time>2016-10-07T11:28:55Z</time></trkpt>
<trkpt lat="28.477835" lon="98.84597">
<time>2016-10-07T11:28:56Z</time></trkpt>
<trkpt lat="28.477805" lon="98.84594">
<time>2016-10-07T11:28:57Z</time></trkpt>
<trkpt lat="28.477765" lon="98.8459">
<time>2016-10-07T11:28:58Z</time></trkpt>
<trkpt lat="28.477745" lon="98.845859">
<time>2016-10-07T11:28:59Z</time></trkpt>
<trkpt lat="28.477735" lon="98.845829">
<time>2016-10-07T11:29:00Z</time></trkpt>
<trkpt lat="28.477715" lon="98.845749">
<time>2016-10-07T11:29:01Z</time></trkpt>
<trkpt lat="28.477715" lon="98.845689">
<time>2016-10-07T11:29:02Z</time></trkpt>
<trkpt lat="28.477705" lon="98.845619">
<time>2016-10-07T11:29:03Z</time></trkpt>
<trkpt lat="28.477715" lon="98.845559">
<time>2016-10-07T11:29:04Z</time></trkpt>
<trkpt lat="28.477724" lon="98.845499">
<time>2016-10-07T11:29:05Z</time></trkpt>
<trkpt lat="28.477734" lon="98.845459">
<time>2016-10-07T11:29:06Z</time></trkpt>
<trkpt lat="28.477754" lon="98.845399">
<time>2016-10-07T11:29:07Z</time></trkpt>
<trkpt lat="28.477794" lon="98.845319">
<time>2016-10-07T11:29:08Z</time></trkpt>
<trkpt lat="28.477844" lon="98.845249">
<time>2016-10-07T11:29:09Z</time></trkpt>
<trkpt lat="28.477904" lon="98.845169">
<time>2016-10-07T11:29:10Z</time></trkpt>
<trkpt lat="28.477964" lon="98.845079">
<time>2016-10-07T11:29:11Z</time></trkpt>
<trkpt lat="28.478003" lon="98.844988">
<time>2016-10-07T11:29:12Z</time></trkpt>
<trkpt lat="28.478043" lon="98.844868">
<time>2016-10-07T11:29:13Z</time></trkpt>
<trkpt lat="28.478063" lon="98.844788">
<time>2016-10-07T11:29:14Z</time></trkpt>
<trkpt lat="28.478073" lon="98.844698">
<time>2016-10-07T11:29:15Z</time></trkpt>
<trkpt lat="28.478063" lon="98.844598">
<time>2016-10-07T11:29:16Z</time></trkpt>
<trkpt lat="28.478052" lon="98.844458">
<time>2016-10-07T11:29:17Z</time></trkpt>
<trkpt lat="28.478042" lon="98.844378">
<time>2016-10-07T11:29:18Z</time></trkpt>
<trkpt lat="28.478022" lon="98.844298">
<time>2016-10-07T11:29:19Z</time></trkpt>
<trkpt lat="28.478002" lon="98.844197">
<time>2016-10-07T11:29:20Z</time></trkpt>
<trkpt lat="28.477982" lon="98.844137">
<time>2016-10-07T11:29:21Z</time></trkpt>
<trkpt lat="28.477972" lon="98.844037">
<time>2016-10-07T11:29:22Z</time></trkpt>
<trkpt lat="28.477982" lon="98.843917">
<time>2016-10-07T11:29:23Z</time></trkpt>
<trkpt lat="28.477991" lon="98.843867">
<time>2016-10-07T11:29:24Z</time></trkpt>
<trkpt lat="28.478001" lon="98.843837">
<time>2016-10-07T11:29:25Z</time></trkpt>
<trkpt lat="28.478001" lon="98.843817">
<time>2016-10-07T11:29:26Z</time></trkpt>
<trkpt lat="28.478011" lon="98.843787">
<time>2016-10-07T11:29:27Z</time></trkpt>
<trkpt lat="28.478011" lon="98.843757">
<time>2016-10-07T11:29:28Z</time></trkpt>
<trkpt lat="28.478021" lon="98.843687">
<time>2016-10-07T11:29:29Z</time></trkpt>
<trkpt lat="28.478011" lon="98.843587">
<time>2016-10-07T11:29:30Z</time></trkpt>
<trkpt lat="28.478011" lon="98.843537">
<time>2016-10-07T11:29:31Z</time></trkpt>
<trkpt lat="28.478011" lon="98.843507">
<time>2016-10-07T11:29:32Z</time></trkpt>
<trkpt lat="28.477991" lon="98.843427">
<time>2016-10-07T11:29:33Z</time></trkpt>
<trkpt lat="28.477971" lon="98.843346">
<time>2016-10-07T11:29:34Z</time></trkpt>
<trkpt lat="28.47793" lon="98.843276">
<time>2016-10-07T11:29:35Z</time></trkpt>
<trkpt lat="28.47788" lon="98.843186">
<time>2016-10-07T11:29:36Z</time></trkpt>
<trkpt lat="28.47785" lon="98.843136">
<time>2016-10-07T11:29:37Z</time></trkpt>
<trkpt lat="28.47776" lon="98.843036">
<time>2016-10-07T11:29:38Z</time></trkpt>
<trkpt lat="28.47772" lon="98.843006">
<time>2016-10-07T11:29:39Z</time></trkpt>
<trkpt lat="28.47764" lon="98.842946">
<time>2016-10-07T11:29:40Z</time></trkpt>
<trkpt lat="28.47754" lon="98.842856">
<time>2016-10-07T11:29:41Z</time></trkpt>
<trkpt lat="28.47747" lon="98.842786">
<time>2016-10-07T11:29:42Z</time></trkpt>
<trkpt lat="28.47741" lon="98.842706">
<time>2016-10-07T11:29:43Z</time></trkpt>
<trkpt lat="28.477369" lon="98.842606">
<time>2016-10-07T11:29:44Z</time></trkpt>
<trkpt lat="28.477359" lon="98.842575">
<time>2016-10-07T11:29:45Z</time></trkpt>
<trkpt lat="28.477359" lon="98.842525">
<time>2016-10-07T11:29:46Z</time></trkpt>
<trkpt lat="28.477359" lon="98.842455">
<time>2016-10-07T11:29:47Z</time></trkpt>
<trkpt lat="28.477369" lon="98.842385">
<time>2016-10-07T11:29:48Z</time></trkpt>
<trkpt lat="28.477389" lon="98.842325">
<time>2016-10-07T11:29:49Z</time></trkpt>
<trkpt lat="28.477419" lon="98.842185">
<time>2016-10-07T11:29:50Z</time></trkpt>
<trkpt lat="28.477428" lon="98.842095">
<time>2016-10-07T11:29:51Z</time></trkpt>
<trkpt lat="28.477418" lon="98.841995">
<time>2016-10-07T11:29:52Z</time></trkpt>
<trkpt lat="28.477388" lon="98.841835">
<time>2016-10-07T11:29:53Z</time></trkpt>
<trkpt lat="28.477308" lon="98.841554">
<time>2016-10-07T11:29:54Z</time></trkpt>
<trkpt lat="28.477287" lon="98.841454">
<time>2016-10-07T11:29:55Z</time></trkpt>
<trkpt lat="28.477287" lon="98.841374">
<time>2016-10-07T11:29:56Z</time></trkpt>
<trkpt lat="28.477287" lon="98.841314">
<time>2016-10-07T11:29:57Z</time></trkpt>
<trkpt lat="28.477307" lon="98.841234">
<time>2016-10-07T11:29:58Z</time></trkpt>
<trkpt lat="28.477327" lon="98.841204">
<time>2016-10-07T11:29:59Z</time></trkpt>
<trkpt lat="28.477347" lon="98.841164">
<time>2016-10-07T11:30:00Z</time></trkpt>
<trkpt lat="28.477377" lon="98.841124">
<time>2016-10-07T11:30:01Z</time></trkpt>
<trkpt lat="28.477417" lon="98.841084">
<time>2016-10-07T11:30:02Z</time></trkpt>
<trkpt lat="28.477467" lon="98.841044">
<time>2016-10-07T11:30:03Z</time></trkpt>
<trkpt lat="28.477566" lon="98.840973">
<time>2016-10-07T11:30:04Z</time></trkpt>
<trkpt lat="28.477646" lon="98.840903">
<time>2016-10-07T11:30:05Z</time></trkpt>
<trkpt lat="28.477726" lon="98.840813">
<time>2016-10-07T11:30:06Z</time></trkpt>
<trkpt lat="28.477816" lon="98.840713">
<time>2016-10-07T11:30:07Z</time></trkpt>
<trkpt lat="28.477906" lon="98.840563">
<time>2016-10-07T11:30:08Z</time></trkpt>
<trkpt lat="28.477935" lon="98.840503">
<time>2016-10-07T11:30:09Z</time></trkpt>
<trkpt lat="28.477955" lon="98.840433">
<time>2016-10-07T11:30:10Z</time></trkpt>
<trkpt lat="28.477965" lon="98.840363">
<time>2016-10-07T11:30:11Z</time></trkpt>
<trkpt lat="28.477955" lon="98.840273">
<time>2016-10-07T11:30:12Z</time></trkpt>
<trkpt lat="28.477945" lon="98.840142">
<time>2016-10-07T11:30:13Z</time></trkpt>
<trkpt lat="28.477935" lon="98.840002">
<time>2016-10-07T11:30:14Z</time></trkpt>
<trkpt lat="28.477904" lon="98.839862">
<time>2016-10-07T11:30:15Z</time></trkpt>
<trkpt lat="28.477874" lon="98.839742">
<time>2016-10-07T11:30:16Z</time></trkpt>
<trkpt lat="28.477834" lon="98.839602">
<time>2016-10-07T11:30:17Z</time></trkpt>
<trkpt lat="28.477794" lon="98.839512">
<time>2016-10-07T11:30:18Z</time></trkpt>
<trkpt lat="28.477793" lon="98.839421">
<time>2016-10-07T11:30:19Z</time></trkpt>
<trkpt lat="28.477793" lon="98.839351">
<time>2016-10-07T11:30:20Z</time></trkpt>
<trkpt lat="28.477803" lon="98.839251">
<time>2016-10-07T11:30:21Z</time></trkpt>
<trkpt lat="28.477843" lon="98.839091">
<time>2016-10-07T11:30:22Z</time></trkpt>
<trkpt lat="28.477873" lon="98.838921">
<time>2016-10-07T11:30:23Z</time></trkpt>
<trkpt lat="28.477912" lon="98.838801">
<time>2016-10-07T11:30:24Z</time></trkpt>
<trkpt lat="28.477952" lon="98.838701">
<time>2016-10-07T11:30:25Z</time></trkpt>
<trkpt lat="28.478002" lon="98.83863">
<time>2016-10-07T11:30:26Z</time></trkpt>
<trkpt lat="28.478072" lon="98.83853">
<time>2016-10-07T11:30:27Z</time></trkpt>
<trkpt lat="28.478162" lon="98.83842">
<time>2016-10-07T11:30:28Z</time></trkpt>
<trkpt lat="28.478241" lon="98.83833">
<time>2016-10-07T11:30:29Z</time></trkpt>
<trkpt lat="28.478301" lon="98.83825">
<time>2016-10-07T11:30:30Z</time></trkpt>
<trkpt lat="28.478331" lon="98.8382">
<time>2016-10-07T11:30:31Z</time></trkpt>
<trkpt lat="28.478371" lon="98.83809">
<time>2016-10-07T11:30:32Z</time></trkpt>
<trkpt lat="28.478381" lon="98.83803">
<time>2016-10-07T11:30:33Z</time></trkpt>
<trkpt lat="28.478391" lon="98.83797">
<time>2016-10-07T11:30:34Z</time></trkpt>
<trkpt lat="28.47839" lon="98.837879">
<time>2016-10-07T11:30:35Z</time></trkpt>
<trkpt lat="28.47837" lon="98.837779">
<time>2016-10-07T11:30:36Z</time></trkpt>
<trkpt lat="28.47834" lon="98.837679">
<time>2016-10-07T11:30:37Z</time></trkpt>
<trkpt lat="28.47828" lon="98.837549">
<time>2016-10-07T11:30:38Z</time></trkpt>
<trkpt lat="28.478129" lon="98.837219">
<time>2016-10-07T11:30:39Z</time></trkpt>
<trkpt lat="28.477989" lon="98.836888">
<time>2016-10-07T11:30:40Z</time></trkpt>
<trkpt lat="28.477868" lon="98.836618">
<time>2016-10-07T11:30:41Z</time></trkpt>
<trkpt lat="28.477798" lon="98.836478">
<time>2016-10-07T11:30:42Z</time></trkpt>
<trkpt lat="28.477738" lon="98.836337">
<time>2016-10-07T11:30:43Z</time></trkpt>
<trkpt lat="28.477708" lon="98.836227">
<time>2016-10-07T11:30:44Z</time></trkpt>
<trkpt lat="28.477707" lon="98.836117">
<time>2016-10-07T11:30:45Z</time></trkpt>
<trkpt lat="28.477737" lon="98.835987">
<time>2016-10-07T11:30:46Z</time></trkpt>
<trkpt lat="28.477787" lon="98.835867">
<time>2016-10-07T11:30:47Z</time></trkpt>
<trkpt lat="28.477837" lon="98.835757">
<time>2016-10-07T11:30:48Z</time></trkpt>
<trkpt lat="28.477877" lon="98.835657">
<time>2016-10-07T11:30:49Z</time></trkpt>
<trkpt lat="28.477906" lon="98.835546">
<time>2016-10-07T11:30:50Z</time></trkpt>
<trkpt lat="28.477926" lon="98.835446">
<time>2016-10-07T11:30:51Z</time></trkpt>
<trkpt lat="28.477926" lon="98.835356">
<time>2016-10-07T11:30:52Z</time></trkpt>
<trkpt lat="28.477906" lon="98.835256">
<time>2016-10-07T11:30:53Z</time></trkpt>
<trkpt lat="28.477886" lon="98.835166">
<time>2016-10-07T11:30:54Z</time></trkpt>
<trkpt lat="28.477845" lon="98.835066">
<time>2016-10-07T11:30:55Z</time></trkpt>
<trkpt lat="28.477795" lon="98.834966">
<time>2016-10-07T11:30:56Z</time></trkpt>
<trkpt lat="28.477755" lon="98.834886">
<time>2016-10-07T11:30:57Z</time></trkpt>
<trkpt lat="28.477735" lon="98.834815">
<time>2016-10-07T11:30:58Z</time></trkpt>
<trkpt lat="28.477715" lon="98.834735">
<time>2016-10-07T11:30:59Z</time></trkpt>
<trkpt lat="28.477715" lon="98.834645">
<time>2016-10-07T11:31:00Z</time></trkpt>
<trkpt lat="28.477735" lon="98.834565">
<time>2016-10-07T11:31:01Z</time></trkpt>
<trkpt lat="28.477774" lon="98.834445">
<time>2016-10-07T11:31:02Z</time></trkpt>
<trkpt lat="28.477814" lon="98.834335">
<time>2016-10-07T11:31:03Z</time></trkpt>
<trkpt lat="28.477844" lon="98.834225">
<time>2016-10-07T11:31:04Z</time></trkpt>
<trkpt lat="28.477864" lon="98.834145">
<time>2016-10-07T11:31:05Z</time></trkpt>
<trkpt lat="28.477864" lon="98.834054">
<time>2016-10-07T11:31:06Z</time></trkpt>
<trkpt lat="28.477853" lon="98.833944">
<time>2016-10-07T11:31:07Z</time></trkpt>
<trkpt lat="28.477843" lon="98.833884">
<time>2016-10-07T11:31:08Z</time></trkpt>
<trkpt lat="28.477813" lon="98.833824">
<time>2016-10-07T11:31:09Z</time></trkpt>
<trkpt lat="28.477753" lon="98.833714">
<time>2016-10-07T11:31:10Z</time></trkpt>
<trkpt lat="28.477693" lon="98.833594">
<time>2016-10-07T11:31:11Z</time></trkpt>
<trkpt lat="28.477673" lon="98.833494">
<time>2016-10-07T11:31:12Z</time></trkpt>
<trkpt lat="28.477662" lon="98.833414">
<time>2016-10-07T11:31:13Z</time></trkpt>
<trkpt lat="28.477672" lon="98.833263">
<time>2016-10-07T11:31:14Z</time></trkpt>
<trkpt lat="28.477682" lon="98.833123">
<time>2016-10-07T11:31:15Z</time></trkpt>
<trkpt lat="28.477712" lon="98.833003">
<time>2016-10-07T11:31:16Z</time></trkpt>
<trkpt lat="28.477731" lon="98.832933">
<time>2016-10-07T11:31:17Z</time></trkpt>
<trkpt lat="28.477751" lon="98.832873">
<time>2016-10-07T11:31:18Z</time></trkpt>
<trkpt lat="28.477801" lon="98.832743">
<time>2016-10-07T11:31:19Z</time></trkpt>
<trkpt lat="28.477861" lon="98.832643">
<time>2016-10-07T11:31:20Z</time></trkpt>
<trkpt lat="28.477921" lon="98.832593">
<time>2016-10-07T11:31:21Z</time></trkpt>
<trkpt lat="28.477991" lon="98.832542">
<time>2016-10-07T11:31:22Z</time></trkpt>
<trkpt lat="28.478071" lon="98.832522">
<time>2016-10-07T11:31:23Z</time></trkpt>
<trkpt lat="28.47818" lon="98.832492">
<time>2016-10-07T11:31:24Z</time></trkpt>
<trkpt lat="28.47829" lon="98.832472">
<time>2016-10-07T11:31:25Z</time></trkpt>
<trkpt lat="28.47846" lon="98.832452">
<time>2016-10-07T11:31:26Z</time></trkpt>
<trkpt lat="28.4787" lon="98.832442">
<time>2016-10-07T11:31:27Z</time></trkpt>
<trkpt lat="28.47891" lon="98.832422">
<time>2016-10-07T11:31:28Z</time></trkpt>
<trkpt lat="28.47909" lon="98.832402">
<time>2016-10-07T11:31:29Z</time></trkpt>
<trkpt lat="28.47916" lon="98.832412">
<time>2016-10-07T11:31:30Z</time></trkpt>
<trkpt lat="28.47921" lon="98.832412">
<time>2016-10-07T11:31:31Z</time></trkpt>
<trkpt lat="28.47926" lon="98.832422">
<time>2016-10-07T11:31:32Z</time></trkpt>
<trkpt lat="28.47929" lon="98.832442">
<time>2016-10-07T11:31:33Z</time></trkpt>
<trkpt lat="28.47935" lon="98.832492">
<time>2016-10-07T11:31:34Z</time></trkpt>
<trkpt lat="28.47939" lon="98.832542">
<time>2016-10-07T11:31:35Z</time></trkpt>
<trkpt lat="28.47944" lon="98.832613">
<time>2016-10-07T11:31:36Z</time></trkpt>
<trkpt lat="28.479501" lon="98.832733">
<time>2016-10-07T11:31:37Z</time></trkpt>
<trkpt lat="28.479581" lon="98.832873">
<time>2016-10-07T11:31:38Z</time></trkpt>
<trkpt lat="28.479691" lon="98.832993">
<time>2016-10-07T11:31:39Z</time></trkpt>
<trkpt lat="28.479761" lon="98.833063">
<time>2016-10-07T11:31:40Z</time></trkpt>
<trkpt lat="28.479861" lon="98.833133">
<time>2016-10-07T11:31:41Z</time></trkpt>
<trkpt lat="28.479941" lon="98.833183">
<time>2016-10-07T11:31:42Z</time></trkpt>
<trkpt lat="28.480241" lon="98.833343">
<time>2016-10-07T11:31:43Z</time></trkpt>
<trkpt lat="28.480452" lon="98.833444">
<time>2016-10-07T11:31:44Z</time></trkpt>
<trkpt lat="28.480532" lon="98.833474">
<time>2016-10-07T11:31:45Z</time></trkpt>
<trkpt lat="28.480632" lon="98.833494">
<time>2016-10-07T11:31:46Z</time></trkpt>
<trkpt lat="28.480752" lon="98.833514">
<time>2016-10-07T11:31:47Z</time></trkpt>
<trkpt lat="28.480832" lon="98.833524">
<time>2016-10-07T11:31:48Z</time></trkpt>
<trkpt lat="28.480912" lon="98.833524">
<time>2016-10-07T11:31:49Z</time></trkpt>
<trkpt lat="28.480962" lon="98.833514">
<time>2016-10-07T11:31:50Z</time></trkpt>
<trkpt lat="28.481031" lon="98.833494">
<time>2016-10-07T11:31:51Z</time></trkpt>
<trkpt lat="28.481081" lon="98.833474">
<time>2016-10-07T11:31:52Z</time></trkpt>
<trkpt lat="28.481181" lon="98.833424">
<time>2016-10-07T11:31:53Z</time></trkpt>
<trkpt lat="28.481271" lon="98.833394">
<time>2016-10-07T11:31:54Z</time></trkpt>
<trkpt lat="28.481341" lon="98.833373">
<time>2016-10-07T11:31:55Z</time></trkpt>
<trkpt lat="28.481431" lon="98.833363">
<time>2016-10-07T11:31:56Z</time></trkpt>
<trkpt lat="28.481501" lon="98.833363">
<time>2016-10-07T11:31:57Z</time></trkpt>
<trkpt lat="28.481581" lon="98.833373">
<time>2016-10-07T11:31:58Z</time></trkpt>
<trkpt lat="28.481711" lon="98.833404">
<time>2016-10-07T11:31:59Z</time></trkpt>
<trkpt lat="28.481811" lon="98.833414">
<time>2016-10-07T11:32:00Z</time></trkpt>
<trkpt lat="28.481891" lon="98.833424">
<time>2016-10-07T11:32:01Z</time></trkpt>
<trkpt lat="28.481951" lon="98.833414">
<time>2016-10-07T11:32:02Z</time></trkpt>
<trkpt lat="28.482021" lon="98.833404">
<time>2016-10-07T11:32:03Z</time></trkpt>
<trkpt lat="28.482251" lon="98.833363">
<time>2016-10-07T11:32:04Z</time></trkpt>
<trkpt lat="28.482421" lon="98.833333">
<time>2016-10-07T11:32:05Z</time></trkpt>
<trkpt lat="28.482501" lon="98.833313">
<time>2016-10-07T11:32:06Z</time></trkpt>
<trkpt lat="28.482581" lon="98.833283">
<time>2016-10-07T11:32:07Z</time></trkpt>
<trkpt lat="28.482651" lon="98.833253">
<time>2016-10-07T11:32:08Z</time></trkpt>
<trkpt lat="28.48272" lon="98.833213">
<time>2016-10-07T11:32:09Z</time></trkpt>
<trkpt lat="28.48292" lon="98.833063">
<time>2016-10-07T11:32:10Z</time></trkpt>
<trkpt lat="28.48307" lon="98.832953">
<time>2016-10-07T11:32:11Z</time></trkpt>
<trkpt lat="28.48316" lon="98.832873">
<time>2016-10-07T11:32:12Z</time></trkpt>
<trkpt lat="28.483279" lon="98.832803">
<time>2016-10-07T11:32:13Z</time></trkpt>
<trkpt lat="28.483369" lon="98.832753">
<time>2016-10-07T11:32:14Z</time></trkpt>
<trkpt lat="28.483449" lon="98.832723">
<time>2016-10-07T11:32:15Z</time></trkpt>
<trkpt lat="28.483539" lon="98.832693">
<time>2016-10-07T11:32:16Z</time></trkpt>
<trkpt lat="28.483609" lon="98.832683">
<time>2016-10-07T11:32:17Z</time></trkpt>
<trkpt lat="28.483659" lon="98.832683">
<time>2016-10-07T11:32:18Z</time></trkpt>
<trkpt lat="28.483719" lon="98.832683">
<time>2016-10-07T11:32:19Z</time></trkpt>
<trkpt lat="28.483799" lon="98.832703">
<time>2016-10-07T11:32:20Z</time></trkpt>
<trkpt lat="28.483889" lon="98.832743">
<time>2016-10-07T11:32:21Z</time></trkpt>
<trkpt lat="28.484009" lon="98.832793">
<time>2016-10-07T11:32:22Z</time></trkpt>
<trkpt lat="28.484099" lon="98.832853">
<time>2016-10-07T11:32:23Z</time></trkpt>
<trkpt lat="28.484159" lon="98.832893">
<time>2016-10-07T11:32:24Z</time></trkpt>
<trkpt lat="28.48424" lon="98.832983">
<time>2016-10-07T11:32:25Z</time></trkpt>
<trkpt lat="28.48434" lon="98.833173">
<time>2016-10-07T11:32:26Z</time></trkpt>
<trkpt lat="28.48438" lon="98.833243">
<time>2016-10-07T11:32:27Z</time></trkpt>
<trkpt lat="28.48443" lon="98.833293">
<time>2016-10-07T11:32:28Z</time></trkpt>
<trkpt lat="28.48446" lon="98.833313">
<time>2016-10-07T11:32:29Z</time></trkpt>
<trkpt lat="28.48451" lon="98.833333">
<time>2016-10-07T11:32:30Z</time></trkpt>
<trkpt lat="28.48454" lon="98.833333">
<time>2016-10-07T11:32:31Z</time></trkpt>
<trkpt lat="28.48457" lon="98.833343">
<time>2016-10-07T11:32:32Z</time></trkpt>
<trkpt lat="28.48461" lon="98.833343">
<time>2016-10-07T11:32:33Z</time></trkpt>
<trkpt lat="28.48465" lon="98.833333">
<time>2016-10-07T11:32:34Z</time></trkpt>
<trkpt lat="28.48471" lon="98.833323">
<time>2016-10-07T11:32:35Z</time></trkpt>
<trkpt lat="28.4848" lon="98.833303">
<time>2016-10-07T11:32:36Z</time></trkpt>
<trkpt lat="28.48485" lon="98.833293">
<time>2016-10-07T11:32:37Z</time></trkpt>
<trkpt lat="28.48491" lon="98.833283">
<time>2016-10-07T11:32:38Z</time></trkpt>
<trkpt lat="28.48496" lon="98.833293">
<time>2016-10-07T11:32:39Z</time></trkpt>
<trkpt lat="28.48504" lon="98.833303">
<time>2016-10-07T11:32:40Z</time></trkpt>
<trkpt lat="28.48519" lon="98.833363">
<time>2016-10-07T11:32:41Z</time></trkpt>
<trkpt lat="28.48532" lon="98.833423">
<time>2016-10-07T11:32:42Z</time></trkpt>
<trkpt lat="28.48537" lon="98.833433">
<time>2016-10-07T11:32:43Z</time></trkpt>
<trkpt lat="28.48543" lon="98.833454">
<time>2016-10-07T11:32:44Z</time></trkpt>
<trkpt lat="28.48551" lon="98.833454">
<time>2016-10-07T11:32:45Z</time></trkpt>
<trkpt lat="28.48562" lon="98.833444">
<time>2016-10-07T11:32:46Z</time></trkpt>
<trkpt lat="28.48572" lon="98.833433">
<time>2016-10-07T11:32:47Z</time></trkpt>
<trkpt lat="28.48589" lon="98.833403">
<time>2016-10-07T11:32:48Z</time></trkpt>
<trkpt lat="28.48598" lon="98.833393">
<time>2016-10-07T11:32:49Z</time></trkpt>
<trkpt lat="28.48612" lon="98.833373">
<time>2016-10-07T11:32:50Z</time></trkpt>
<trkpt lat="28.4862" lon="98.833383">
<time>2016-10-07T11:32:51Z</time></trkpt>
<trkpt lat="28.48628" lon="98.833393">
<time>2016-10-07T11:32:52Z</time></trkpt>
<trkpt lat="28.48636" lon="98.833423">
<time>2016-10-07T11:32:53Z</time></trkpt>
<trkpt lat="28.48638" lon="98.833443">
<time>2016-10-07T11:32:54Z</time></trkpt>
<trkpt lat="28.48642" lon="98.833464">
<time>2016-10-07T11:32:55Z</time></trkpt>
<trkpt lat="28.48647" lon="98.833514">
<time>2016-10-07T11:32:56Z</time></trkpt>
<trkpt lat="28.48653" lon="98.833574">
<time>2016-10-07T11:32:57Z</time></trkpt>
<trkpt lat="28.48662" lon="98.833704">
<time>2016-10-07T11:32:58Z</time></trkpt>
<trkpt lat="28.48664" lon="98.833744">
<time>2016-10-07T11:32:59Z</time></trkpt>
<trkpt lat="28.48668" lon="98.833784">
<time>2016-10-07T11:33:00Z</time></trkpt>
<trkpt lat="28.48674" lon="98.833834">
<time>2016-10-07T11:33:01Z</time></trkpt>
<trkpt lat="28.48678" lon="98.833864">
<time>2016-10-07T11:33:02Z</time></trkpt>
<trkpt lat="28.48683" lon="98.833884">
<time>2016-10-07T11:33:03Z</time></trkpt>
<trkpt lat="28.48688" lon="98.833894">
<time>2016-10-07T11:33:04Z</time></trkpt>
<trkpt lat="28.48692" lon="98.833894">
<time>2016-10-07T11:33:05Z</time></trkpt>
<trkpt lat="28.48696" lon="98.833894">
<time>2016-10-07T11:33:06Z</time></trkpt>
<trkpt lat="28.48699" lon="98.833894">
<time>2016-10-07T11:33:07Z</time></trkpt>
<trkpt lat="28.48702" lon="98.833884">
<time>2016-10-07T11:33:08Z</time></trkpt>
<trkpt lat="28.48706" lon="98.833874">
<time>2016-10-07T11:33:09Z</time></trkpt>
<trkpt lat="28.48712" lon="98.833854">
<time>2016-10-07T11:33:10Z</time></trkpt>
<trkpt lat="28.48721" lon="98.833834">
<time>2016-10-07T11:33:11Z</time></trkpt>
<trkpt lat="28.48729" lon="98.833834">
<time>2016-10-07T11:33:12Z</time></trkpt>
<trkpt lat="28.48735" lon="98.833834">
<time>2016-10-07T11:33:13Z</time></trkpt>
<trkpt lat="28.4874" lon="98.833844">
<time>2016-10-07T11:33:14Z</time></trkpt>
<trkpt lat="28.48746" lon="98.833864">
<time>2016-10-07T11:33:15Z</time></trkpt>
<trkpt lat="28.48754" lon="98.833884">
<time>2016-10-07T11:33:16Z</time></trkpt>
<trkpt lat="28.48765" lon="98.833924">
<time>2016-10-07T11:33:17Z</time></trkpt>
<trkpt lat="28.48775" lon="98.833954">
<time>2016-10-07T11:33:18Z</time></trkpt>
<trkpt lat="28.48782" lon="98.833974">
<time>2016-10-07T11:33:19Z</time></trkpt>
<trkpt lat="28.48787" lon="98.833984">
<time>2016-10-07T11:33:20Z</time></trkpt>
<trkpt lat="28.48791" lon="98.833984">
<time>2016-10-07T11:33:21Z</time></trkpt>
<trkpt lat="28.48796" lon="98.833984">
<time>2016-10-07T11:33:22Z</time></trkpt>
<trkpt lat="28.48802" lon="98.833984">
<time>2016-10-07T11:33:23Z</time></trkpt>
<trkpt lat="28.48812" lon="98.833974">
<time>2016-10-07T11:33:24Z</time></trkpt>
<trkpt lat="28.48818" lon="98.833964">
<time>2016-10-07T11:33:25Z</time></trkpt>
<trkpt lat="28.48826" lon="98.833944">
<time>2016-10-07T11:33:26Z</time></trkpt>
<trkpt lat="28.48833" lon="98.833914">
<time>2016-10-07T11:33:27Z</time></trkpt>
<trkpt lat="28.4884" lon="98.833884">
<time>2016-10-07T11:33:28Z</time></trkpt>
<trkpt lat="28.48858" lon="98.833754">
<time>2016-10-07T11:33:29Z</time></trkpt>
<trkpt lat="28.488669" lon="98.833684">
<time>2016-10-07T11:33:30Z</time></trkpt>
<trkpt lat="28.488719" lon="98.833654">
<time>2016-10-07T11:33:31Z</time></trkpt>
<trkpt lat="28.488779" lon="98.833624">
<time>2016-10-07T11:33:32Z</time></trkpt>
<trkpt lat="28.488839" lon="98.833614">
<time>2016-10-07T11:33:33Z</time></trkpt>
<trkpt lat="28.488869" lon="98.833604">
<time>2016-10-07T11:33:34Z</time></trkpt>
<trkpt lat="28.488929" lon="98.833594">
<time>2016-10-07T11:33:35Z</time></trkpt>
<trkpt lat="28.488989" lon="98.833594">
<time>2016-10-07T11:33:36Z</time></trkpt>
<trkpt lat="28.489049" lon="98.833604">
<time>2016-10-07T11:33:37Z</time></trkpt>
<trkpt lat="28.489089" lon="98.833604">
<time>2016-10-07T11:33:38Z</time></trkpt>
<trkpt lat="28.489139" lon="98.833624">
<time>2016-10-07T11:33:39Z</time></trkpt>
<trkpt lat="28.489179" lon="98.833644">
<time>2016-10-07T11:33:40Z</time></trkpt>
<trkpt lat="28.489209" lon="98.833654">
<time>2016-10-07T11:33:41Z</time></trkpt>
<trkpt lat="28.489269" lon="98.833694">
<time>2016-10-07T11:33:42Z</time></trkpt>
<trkpt lat="28.489339" lon="98.833734">
<time>2016-10-07T11:33:43Z</time></trkpt>
<trkpt lat="28.489369" lon="98.833744">
<time>2016-10-07T11:33:44Z</time></trkpt>
<trkpt lat="28.489409" lon="98.833754">
<time>2016-10-07T11:33:45Z</time></trkpt>
<trkpt lat="28.489439" lon="98.833754">
<time>2016-10-07T11:33:46Z</time></trkpt>
<trkpt lat="28.489459" lon="98.833744">
<time>2016-10-07T11:33:47Z</time></trkpt>
<trkpt lat="28.489489" lon="98.833734">
<time>2016-10-07T11:33:48Z</time></trkpt>
<trkpt lat="28.489539" lon="98.833674">
<time>2016-10-07T11:33:49Z</time></trkpt>
<trkpt lat="28.489579" lon="98.833624">
<time>2016-10-07T11:33:50Z</time></trkpt>
<trkpt lat="28.489629" lon="98.833544">
<time>2016-10-07T11:33:51Z</time></trkpt>
<trkpt lat="28.489679" lon="98.833473">
<time>2016-10-07T11:33:52Z</time></trkpt>
<trkpt lat="28.489749" lon="98.833403">
<time>2016-10-07T11:33:53Z</time></trkpt>
<trkpt lat="28.489808" lon="98.833343">
<time>2016-10-07T11:33:54Z</time></trkpt>
<trkpt lat="28.489858" lon="98.833303">
<time>2016-10-07T11:33:55Z</time></trkpt>
<trkpt lat="28.489928" lon="98.833273">
<time>2016-10-07T11:33:56Z</time></trkpt>
<trkpt lat="28.489978" lon="98.833263">
<time>2016-10-07T11:33:57Z</time></trkpt>
<trkpt lat="28.490028" lon="98.833253">
<time>2016-10-07T11:33:58Z</time></trkpt>
<trkpt lat="28.490048" lon="98.833253">
<time>2016-10-07T11:33:59Z</time></trkpt>
<trkpt lat="28.490088" lon="98.833253">
<time>2016-10-07T11:34:00Z</time></trkpt>
<trkpt lat="28.490158" lon="98.833273">
<time>2016-10-07T11:34:01Z</time></trkpt>
<trkpt lat="28.490198" lon="98.833273">
<time>2016-10-07T11:34:02Z</time></trkpt>
<trkpt lat="28.490248" lon="98.833293">
<time>2016-10-07T11:34:03Z</time></trkpt>
<trkpt lat="28.490288" lon="98.833313">
<time>2016-10-07T11:34:04Z</time></trkpt>
<trkpt lat="28.490358" lon="98.833343">
<time>2016-10-07T11:34:05Z</time></trkpt>
<trkpt lat="28.490438" lon="98.833373">
<time>2016-10-07T11:34:06Z</time></trkpt>
<trkpt lat="28.490498" lon="98.833393">
<time>2016-10-07T11:34:07Z</time></trkpt>
<trkpt lat="28.490558" lon="98.833403">
<time>2016-10-07T11:34:08Z</time></trkpt>
<trkpt lat="28.490608" lon="98.833393">
<time>2016-10-07T11:34:09Z</time></trkpt>
<trkpt lat="28.490648" lon="98.833383">
<time>2016-10-07T11:34:10Z</time></trkpt>
<trkpt lat="28.490688" lon="98.833373">
<time>2016-10-07T11:34:11Z</time></trkpt>
<trkpt lat="28.490748" lon="98.833333">
<time>2016-10-07T11:34:12Z</time></trkpt>
<trkpt lat="28.490868" lon="98.833253">
<time>2016-10-07T11:34:13Z</time></trkpt>
<trkpt lat="28.490948" lon="98.833193">
<time>2016-10-07T11:34:14Z</time></trkpt>
<trkpt lat="28.491118" lon="98.833073">
<time>2016-10-07T11:34:15Z</time></trkpt>
<trkpt lat="28.491247" lon="98.832953">
<time>2016-10-07T11:34:16Z</time></trkpt>
<trkpt lat="28.491317" lon="98.832883">
<time>2016-10-07T11:34:17Z</time></trkpt>
<trkpt lat="28.491377" lon="98.832813">
<time>2016-10-07T11:34:18Z</time></trkpt>
<trkpt lat="28.491427" lon="98.832732">
<time>2016-10-07T11:34:19Z</time></trkpt>
<trkpt lat="28.491457" lon="98.832672">
<time>2016-10-07T11:34:20Z</time></trkpt>
<trkpt lat="28.491486" lon="98.832582">
<time>2016-10-07T11:34:21Z</time></trkpt>
<trkpt lat="28.491496" lon="98.832502">
<time>2016-10-07T11:34:22Z</time></trkpt>
<trkpt lat="28.491496" lon="98.832452">
<time>2016-10-07T11:34:23Z</time></trkpt>
<trkpt lat="28.491496" lon="98.832382">
<time>2016-10-07T11:34:24Z</time></trkpt>
<trkpt lat="28.491476" lon="98.832332">
<time>2016-10-07T11:34:25Z</time></trkpt>
<trkpt lat="28.491446" lon="98.832272">
<time>2016-10-07T11:34:26Z</time></trkpt>
<trkpt lat="28.491396" lon="98.832202">
<time>2016-10-07T11:34:27Z</time></trkpt>
<trkpt lat="28.491326" lon="98.832122">
<time>2016-10-07T11:34:28Z</time></trkpt>
<trkpt lat="28.491185" lon="98.831961">
<time>2016-10-07T11:34:29Z</time></trkpt>
<trkpt lat="28.491085" lon="98.831831">
<time>2016-10-07T11:34:30Z</time></trkpt>
<trkpt lat="28.491055" lon="98.831781">
<time>2016-10-07T11:34:31Z</time></trkpt>
<trkpt lat="28.491015" lon="98.831711">
<time>2016-10-07T11:34:32Z</time></trkpt>
<trkpt lat="28.491005" lon="98.831671">
<time>2016-10-07T11:34:33Z</time></trkpt>
<trkpt lat="28.490985" lon="98.831621">
<time>2016-10-07T11:34:34Z</time></trkpt>
<trkpt lat="28.490975" lon="98.831561">
<time>2016-10-07T11:34:35Z</time></trkpt>
<trkpt lat="28.490965" lon="98.831481">
<time>2016-10-07T11:34:36Z</time></trkpt>
<trkpt lat="28.490974" lon="98.831411">
<time>2016-10-07T11:34:37Z</time></trkpt>
<trkpt lat="28.490974" lon="98.831351">
<time>2016-10-07T11:34:38Z</time></trkpt>
<trkpt lat="28.490994" lon="98.831291">
<time>2016-10-07T11:34:39Z</time></trkpt>
<trkpt lat="28.491014" lon="98.83123">
<time>2016-10-07T11:34:40Z</time></trkpt>
<trkpt lat="28.491054" lon="98.83114">
<time>2016-10-07T11:34:41Z</time></trkpt>
<trkpt lat="28.491114" lon="98.83104">
<time>2016-10-07T11:34:42Z</time></trkpt>
<trkpt lat="28.491154" lon="98.83097">
<time>2016-10-07T11:34:43Z</time></trkpt>
<trkpt lat="28.491173" lon="98.83092">
<time>2016-10-07T11:34:44Z</time></trkpt>
<trkpt lat="28.491183" lon="98.83087">
<time>2016-10-07T11:34:45Z</time></trkpt>
<trkpt lat="28.491193" lon="98.83084">
<time>2016-10-07T11:34:46Z</time></trkpt>
<trkpt lat="28.491183" lon="98.8308">
<time>2016-10-07T11:34:47Z</time></trkpt>
<trkpt lat="28.491183" lon="98.83076">
<time>2016-10-07T11:34:48Z</time></trkpt>
<trkpt lat="28.491163" lon="98.83071">
<time>2016-10-07T11:34:49Z</time></trkpt>
<trkpt lat="28.491153" lon="98.83066">
<time>2016-10-07T11:34:50Z</time></trkpt>
<trkpt lat="28.491093" lon="98.83058">
<time>2016-10-07T11:34:51Z</time></trkpt>
<trkpt lat="28.491043" lon="98.830519">
<time>2016-10-07T11:34:52Z</time></trkpt>
<trkpt lat="28.490963" lon="98.830439">
<time>2016-10-07T11:34:53Z</time></trkpt>
<trkpt lat="28.490822" lon="98.830299">
<time>2016-10-07T11:34:54Z</time></trkpt>
<trkpt lat="28.490662" lon="98.830129">
<time>2016-10-07T11:34:55Z</time></trkpt>
<trkpt lat="28.490622" lon="98.830089">
<time>2016-10-07T11:34:56Z</time></trkpt>
<trkpt lat="28.490582" lon="98.830019">
<time>2016-10-07T11:34:57Z</time></trkpt>
<trkpt lat="28.490502" lon="98.829889">
<time>2016-10-07T11:34:58Z</time></trkpt>
<trkpt lat="28.490401" lon="98.829678">
<time>2016-10-07T11:34:59Z</time></trkpt>
<trkpt lat="28.490321" lon="98.829528">
<time>2016-10-07T11:35:00Z</time></trkpt>
<trkpt lat="28.490311" lon="98.829478">
<time>2016-10-07T11:35:01Z</time></trkpt>
<trkpt lat="28.490291" lon="98.829428">
<time>2016-10-07T11:35:02Z</time></trkpt>
<trkpt lat="28.490281" lon="98.829368">
<time>2016-10-07T11:35:03Z</time></trkpt>
<trkpt lat="28.490271" lon="98.829318">
<time>2016-10-07T11:35:04Z</time></trkpt>
<trkpt lat="28.490281" lon="98.829248">
<time>2016-10-07T11:35:05Z</time></trkpt>
<trkpt lat="28.49029" lon="98.829178">
<time>2016-10-07T11:35:06Z</time></trkpt>
<trkpt lat="28.49031" lon="98.829098">
<time>2016-10-07T11:35:07Z</time></trkpt>
<trkpt lat="28.49038" lon="98.828857">
<time>2016-10-07T11:35:08Z</time></trkpt>
<trkpt lat="28.49039" lon="98.828797">
<time>2016-10-07T11:35:09Z</time></trkpt>
<trkpt lat="28.49041" lon="98.828717">
<time>2016-10-07T11:35:10Z</time></trkpt>
<trkpt lat="28.490419" lon="98.828627">
<time>2016-10-07T11:35:11Z</time></trkpt>
<trkpt lat="28.490429" lon="98.828477">
<time>2016-10-07T11:35:12Z</time></trkpt>
<trkpt lat="28.490429" lon="98.828357">
<time>2016-10-07T11:35:13Z</time></trkpt>
<trkpt lat="28.490418" lon="98.828116">
<time>2016-10-07T11:35:14Z</time></trkpt>
<trkpt lat="28.490398" lon="98.827946">
<time>2016-10-07T11:35:15Z</time></trkpt>
<trkpt lat="28.490378" lon="98.827826">
<time>2016-10-07T11:35:16Z</time></trkpt>
<trkpt lat="28.490358" lon="98.827706">
<time>2016-10-07T11:35:17Z</time></trkpt>
<trkpt lat="28.490338" lon="98.827626">
<time>2016-10-07T11:35:18Z</time></trkpt>
<trkpt lat="28.490317" lon="98.827555">
<time>2016-10-07T11:35:19Z</time></trkpt>
<trkpt lat="28.490287" lon="98.827485">
<time>2016-10-07T11:35:20Z</time></trkpt>
<trkpt lat="28.490247" lon="98.827365">
<time>2016-10-07T11:35:21Z</time></trkpt>
<trkpt lat="28.490197" lon="98.827265">
<time>2016-10-07T11:35:22Z</time></trkpt>
<trkpt lat="28.490127" lon="98.827155">
<time>2016-10-07T11:35:23Z</time></trkpt>
<trkpt lat="28.490026" lon="98.826995">
<time>2016-10-07T11:35:24Z</time></trkpt>
<trkpt lat="28.489836" lon="98.826724">
<time>2016-10-07T11:35:25Z</time></trkpt>
<trkpt lat="28.489726" lon="98.826554">
<time>2016-10-07T11:35:26Z</time></trkpt>
<trkpt lat="28.489686" lon="98.826464">
<time>2016-10-07T11:35:27Z</time></trkpt>
<trkpt lat="28.489635" lon="98.826344">
<time>2016-10-07T11:35:28Z</time></trkpt>
<trkpt lat="28.489565" lon="98.826174">
<time>2016-10-07T11:35:29Z</time></trkpt>
<trkpt lat="28.489505" lon="98.825963">
<time>2016-10-07T11:35:30Z</time></trkpt>
<trkpt lat="28.489464" lon="98.825823">
<time>2016-10-07T11:35:31Z</time></trkpt>
<trkpt lat="28.489444" lon="98.825683">
<time>2016-10-07T11:35:32Z</time></trkpt>
<trkpt lat="28.489434" lon="98.825523">
<time>2016-10-07T11:35:33Z</time></trkpt>
<trkpt lat="28.489434" lon="98.825363">
<time>2016-10-07T11:35:34Z</time></trkpt>
<trkpt lat="28.489433" lon="98.824982">
<time>2016-10-07T11:35:35Z</time></trkpt>
<trkpt lat="28.489433" lon="98.824912">
<time>2016-10-07T11:35:36Z</time></trkpt>
<trkpt lat="28.489432" lon="98.824712">
<time>2016-10-07T11:35:37Z</time></trkpt>
<trkpt lat="28.489432" lon="98.824652">
<time>2016-10-07T11:35:38Z</time></trkpt>
<trkpt lat="28.489422" lon="98.824561">
<time>2016-10-07T11:35:39Z</time></trkpt>
<trkpt lat="28.489412" lon="98.824461">
<time>2016-10-07T11:35:40Z</time></trkpt>
<trkpt lat="28.489382" lon="98.824351">
<time>2016-10-07T11:35:41Z</time></trkpt>
<trkpt lat="28.489341" lon="98.824251">
<time>2016-10-07T11:35:42Z</time></trkpt>
<trkpt lat="28.489321" lon="98.824201">
<time>2016-10-07T11:35:43Z</time></trkpt>
<trkpt lat="28.489271" lon="98.824141">
<time>2016-10-07T11:35:44Z</time></trkpt>
<trkpt lat="28.489221" lon="98.824071">
<time>2016-10-07T11:35:45Z</time></trkpt>
<trkpt lat="28.489121" lon="98.823991">
<time>2016-10-07T11:35:46Z</time></trkpt>
<trkpt lat="28.488991" lon="98.823861">
<time>2016-10-07T11:35:47Z</time></trkpt>
<trkpt lat="28.488931" lon="98.82379">
<time>2016-10-07T11:35:48Z</time></trkpt>
<trkpt lat="28.488881" lon="98.82373">
<time>2016-10-07T11:35:49Z</time></trkpt>
<trkpt lat="28.488851" lon="98.82367">
<time>2016-10-07T11:35:50Z</time></trkpt>
<trkpt lat="28.48883" lon="98.82359">
<time>2016-10-07T11:35:51Z</time></trkpt>
<trkpt lat="28.48882" lon="98.82351">
<time>2016-10-07T11:35:52Z</time></trkpt>
<trkpt lat="28.48882" lon="98.82345">
<time>2016-10-07T11:35:53Z</time></trkpt>
<trkpt lat="28.48883" lon="98.82341">
<time>2016-10-07T11:35:54Z</time></trkpt>
<trkpt lat="28.48884" lon="98.82336">
<time>2016-10-07T11:35:55Z</time></trkpt>
<trkpt lat="28.48886" lon="98.82332">
<time>2016-10-07T11:35:56Z</time></trkpt>
<trkpt lat="28.48889" lon="98.82324">
<time>2016-10-07T11:35:57Z</time></trkpt>
<trkpt lat="28.48895" lon="98.82316">
<time>2016-10-07T11:35:58Z</time></trkpt>
<trkpt lat="28.489219" lon="98.822819">
<time>2016-10-07T11:35:59Z</time></trkpt>
<trkpt lat="28.489458" lon="98.822519">
<time>2016-10-07T11:36:00Z</time></trkpt>
<trkpt lat="28.489568" lon="98.822369">
<time>2016-10-07T11:36:01Z</time></trkpt>
<trkpt lat="28.489628" lon="98.822278">
<time>2016-10-07T11:36:02Z</time></trkpt>
<trkpt lat="28.489687" lon="98.822178">
<time>2016-10-07T11:36:03Z</time></trkpt>
<trkpt lat="28.489727" lon="98.822088">
<time>2016-10-07T11:36:04Z</time></trkpt>
<trkpt lat="28.489757" lon="98.822008">
<time>2016-10-07T11:36:05Z</time></trkpt>
<trkpt lat="28.489797" lon="98.821838">
<time>2016-10-07T11:36:06Z</time></trkpt>
<trkpt lat="28.489846" lon="98.821658">
<time>2016-10-07T11:36:07Z</time></trkpt>
<trkpt lat="28.489906" lon="98.821427">
<time>2016-10-07T11:36:08Z</time></trkpt>
<trkpt lat="28.489926" lon="98.821317">
<time>2016-10-07T11:36:09Z</time></trkpt>
<trkpt lat="28.489946" lon="98.821207">
<time>2016-10-07T11:36:10Z</time></trkpt>
<trkpt lat="28.489955" lon="98.821117">
<time>2016-10-07T11:36:11Z</time></trkpt>
<trkpt lat="28.489965" lon="98.820967">
<time>2016-10-07T11:36:12Z</time></trkpt>
<trkpt lat="28.489965" lon="98.820646">
<time>2016-10-07T11:36:13Z</time></trkpt>
<trkpt lat="28.489974" lon="98.820246">
<time>2016-10-07T11:36:14Z</time></trkpt>
<trkpt lat="28.489993" lon="98.819835">
<time>2016-10-07T11:36:15Z</time></trkpt>
<trkpt lat="28.489992" lon="98.819545">
<time>2016-10-07T11:36:16Z</time></trkpt>
<trkpt lat="28.489982" lon="98.819344">
<time>2016-10-07T11:36:17Z</time></trkpt>
<trkpt lat="28.489972" lon="98.819204">
<time>2016-10-07T11:36:18Z</time></trkpt>
<trkpt lat="28.489941" lon="98.818984">
<time>2016-10-07T11:36:19Z</time></trkpt>
<trkpt lat="28.489931" lon="98.818894">
<time>2016-10-07T11:36:20Z</time></trkpt>
<trkpt lat="28.489941" lon="98.818834">
<time>2016-10-07T11:36:21Z</time></trkpt>
<trkpt lat="28.489951" lon="98.818764">
<time>2016-10-07T11:36:22Z</time></trkpt>
<trkpt lat="28.489981" lon="98.818694">
<time>2016-10-07T11:36:23Z</time></trkpt>
<trkpt lat="28.490011" lon="98.818634">
<time>2016-10-07T11:36:24Z</time></trkpt>
<trkpt lat="28.490071" lon="98.818573">
<time>2016-10-07T11:36:25Z</time></trkpt>
<trkpt lat="28.49013" lon="98.818503">
<time>2016-10-07T11:36:26Z</time></trkpt>
<trkpt lat="28.49019" lon="98.818453">
<time>2016-10-07T11:36:27Z</time></trkpt>
<trkpt lat="28.49036" lon="98.818303">
<time>2016-10-07T11:36:28Z</time></trkpt>
<trkpt lat="28.49048" lon="98.818193">
<time>2016-10-07T11:36:29Z</time></trkpt>
<trkpt lat="28.49056" lon="98.818133">
<time>2016-10-07T11:36:30Z</time></trkpt>
<trkpt lat="28.49064" lon="98.818093">
<time>2016-10-07T11:36:31Z</time></trkpt>
<trkpt lat="28.490689" lon="98.818073">
<time>2016-10-07T11:36:32Z</time></trkpt>
<trkpt lat="28.490789" lon="98.818053">
<time>2016-10-07T11:36:33Z</time></trkpt>
<trkpt lat="28.490889" lon="98.818043">
<time>2016-10-07T11:36:34Z</time></trkpt>
<trkpt lat="28.490969" lon="98.818023">
<time>2016-10-07T11:36:35Z</time></trkpt>
<trkpt lat="28.491059" lon="98.818003">
<time>2016-10-07T11:36:36Z</time></trkpt>
<trkpt lat="28.491119" lon="98.817973">
<time>2016-10-07T11:36:37Z</time></trkpt>
<trkpt lat="28.491199" lon="98.817933">
<time>2016-10-07T11:36:38Z</time></trkpt>
<trkpt lat="28.491269" lon="98.817893">
<time>2016-10-07T11:36:39Z</time></trkpt>
<trkpt lat="28.491399" lon="98.817822">
<time>2016-10-07T11:36:40Z</time></trkpt>
<trkpt lat="28.491479" lon="98.817772">
<time>2016-10-07T11:36:41Z</time></trkpt>
<trkpt lat="28.491569" lon="98.817742">
<time>2016-10-07T11:36:42Z</time></trkpt>
<trkpt lat="28.491669" lon="98.817722">
<time>2016-10-07T11:36:43Z</time></trkpt>
<trkpt lat="28.491768" lon="98.817692">
<time>2016-10-07T11:36:44Z</time></trkpt>
<trkpt lat="28.491888" lon="98.817682">
<time>2016-10-07T11:36:45Z</time></trkpt>
<trkpt lat="28.491978" lon="98.817662">
<time>2016-10-07T11:36:46Z</time></trkpt>
<trkpt lat="28.492038" lon="98.817642">
<time>2016-10-07T11:36:47Z</time></trkpt>
<trkpt lat="28.492088" lon="98.817602">
<time>2016-10-07T11:36:48Z</time></trkpt>
<trkpt lat="28.492108" lon="98.817572">
<time>2016-10-07T11:36:49Z</time></trkpt>
<trkpt lat="28.492118" lon="98.817552">
<time>2016-10-07T11:36:50Z</time></trkpt>
<trkpt lat="28.492148" lon="98.817502">
<time>2016-10-07T11:36:51Z</time></trkpt>
<trkpt lat="28.492178" lon="98.817442">
<time>2016-10-07T11:36:52Z</time></trkpt>
<trkpt lat="28.492198" lon="98.817352">
<time>2016-10-07T11:36:53Z</time></trkpt>
<trkpt lat="28.492227" lon="98.817262">
<time>2016-10-07T11:36:54Z</time></trkpt>
<trkpt lat="28.492287" lon="98.817021">
<time>2016-10-07T11:36:55Z</time></trkpt>
<trkpt lat="28.492297" lon="98.816981">
<time>2016-10-07T11:36:56Z</time></trkpt>
<trkpt lat="28.492327" lon="98.816921">
<time>2016-10-07T11:36:57Z</time></trkpt>
<trkpt lat="28.492367" lon="98.816841">
<time>2016-10-07T11:36:58Z</time></trkpt>
<trkpt lat="28.492407" lon="98.816771">
<time>2016-10-07T11:36:59Z</time></trkpt>
<trkpt lat="28.492496" lon="98.816661">
<time>2016-10-07T11:37:00Z</time></trkpt>
<trkpt lat="28.492586" lon="98.816521">
<time>2016-10-07T11:37:01Z</time></trkpt>
<trkpt lat="28.492746" lon="98.81629">
<time>2016-10-07T11:37:02Z</time></trkpt>
<trkpt lat="28.492805" lon="98.81619">
<time>2016-10-07T11:37:03Z</time></trkpt>
<trkpt lat="28.492865" lon="98.81611">
<time>2016-10-07T11:37:04Z</time></trkpt>
<trkpt lat="28.492905" lon="98.81606">
<time>2016-10-07T11:37:05Z</time></trkpt>
<trkpt lat="28.492955" lon="98.81602">
<time>2016-10-07T11:37:06Z</time></trkpt>
<trkpt lat="28.493015" lon="98.81597">
<time>2016-10-07T11:37:07Z</time></trkpt>
<trkpt lat="28.493085" lon="98.81593">
<time>2016-10-07T11:37:08Z</time></trkpt>
<trkpt lat="28.493135" lon="98.81592">
<time>2016-10-07T11:37:09Z</time></trkpt>
<trkpt lat="28.493175" lon="98.81591">
<time>2016-10-07T11:37:10Z</time></trkpt>
<trkpt lat="28.493215" lon="98.81591">
<time>2016-10-07T11:37:11Z</time></trkpt>
<trkpt lat="28.493245" lon="98.81592">
<time>2016-10-07T11:37:12Z</time></trkpt>
<trkpt lat="28.493275" lon="98.81592">
<time>2016-10-07T11:37:13Z</time></trkpt>
<trkpt lat="28.493325" lon="98.81594">
<time>2016-10-07T11:37:14Z</time></trkpt>
<trkpt lat="28.493385" lon="98.81597">
<time>2016-10-07T11:37:15Z</time></trkpt>
<trkpt lat="28.493465" lon="98.81602">
<time>2016-10-07T11:37:16Z</time></trkpt>
<trkpt lat="28.493625" lon="98.81613">
<time>2016-10-07T11:37:17Z</time></trkpt>
<trkpt lat="28.493775" lon="98.81622">
<time>2016-10-07T11:37:18Z</time></trkpt>
<trkpt lat="28.493845" lon="98.81625">
<time>2016-10-07T11:37:19Z</time></trkpt>
<trkpt lat="28.493965" lon="98.81629">
<time>2016-10-07T11:37:20Z</time></trkpt>
<trkpt lat="28.494025" lon="98.8163">
<time>2016-10-07T11:37:21Z</time></trkpt>
<trkpt lat="28.494155" lon="98.8163">
<time>2016-10-07T11:37:22Z</time></trkpt>
<trkpt lat="28.494255" lon="98.81628">
<time>2016-10-07T11:37:23Z</time></trkpt>
<trkpt lat="28.494345" lon="98.81625">
<time>2016-10-07T11:37:24Z</time></trkpt>
<trkpt lat="28.494535" lon="98.81616">
<time>2016-10-07T11:37:25Z</time></trkpt>
<trkpt lat="28.494635" lon="98.81612">
<time>2016-10-07T11:37:26Z</time></trkpt>
<trkpt lat="28.494725" lon="98.8161">
<time>2016-10-07T11:37:27Z</time></trkpt>
<trkpt lat="28.494814" lon="98.81609">
<time>2016-10-07T11:37:28Z</time></trkpt>
<trkpt lat="28.495004" lon="98.81608">
<time>2016-10-07T11:37:29Z</time></trkpt>
<trkpt lat="28.495164" lon="98.81606">
<time>2016-10-07T11:37:30Z</time></trkpt>
<trkpt lat="28.495214" lon="98.81606">
<time>2016-10-07T11:37:31Z</time></trkpt>
<trkpt lat="28.495244" lon="98.81605">
<time>2016-10-07T11:37:32Z</time></trkpt>
<trkpt lat="28.495314" lon="98.81603">
<time>2016-10-07T11:37:33Z</time></trkpt>
<trkpt lat="28.495384" lon="98.81601">
<time>2016-10-07T11:37:34Z</time></trkpt>
<trkpt lat="28.495464" lon="98.81597">
<time>2016-10-07T11:37:35Z</time></trkpt>
<trkpt lat="28.495594" lon="98.81589">
<time>2016-10-07T11:37:36Z</time></trkpt>
<trkpt lat="28.495674" lon="98.81585">
<time>2016-10-07T11:37:37Z</time></trkpt>
<trkpt lat="28.495754" lon="98.81581">
<time>2016-10-07T11:37:38Z</time></trkpt>
<trkpt lat="28.495824" lon="98.81579">
<time>2016-10-07T11:37:39Z</time></trkpt>
<trkpt lat="28.495894" lon="98.81578">
<time>2016-10-07T11:37:40Z</time></trkpt>
<trkpt lat="28.495974" lon="98.81577">
<time>2016-10-07T11:37:41Z</time></trkpt>
<trkpt lat="28.496103" lon="98.81577">
<time>2016-10-07T11:37:42Z</time></trkpt>
<trkpt lat="28.496183" lon="98.81577">
<time>2016-10-07T11:37:43Z</time></trkpt>
<trkpt lat="28.496223" lon="98.81576">
<time>2016-10-07T11:37:44Z</time></trkpt>
<trkpt lat="28.496273" lon="98.81575">
<time>2016-10-07T11:37:45Z</time></trkpt>
<trkpt lat="28.496313" lon="98.81574">
<time>2016-10-07T11:37:46Z</time></trkpt>
<trkpt lat="28.496353" lon="98.81572">
<time>2016-10-07T11:37:47Z</time></trkpt>
<trkpt lat="28.496553" lon="98.815619">
<time>2016-10-07T11:37:48Z</time></trkpt>
<trkpt lat="28.496643" lon="98.815589">
<time>2016-10-07T11:37:49Z</time></trkpt>
<trkpt lat="28.496733" lon="98.815569">
<time>2016-10-07T11:37:50Z</time></trkpt>
<trkpt lat="28.496833" lon="98.815569">
<time>2016-10-07T11:37:51Z</time></trkpt>
<trkpt lat="28.497043" lon="98.815579">
<time>2016-10-07T11:37:52Z</time></trkpt>
<trkpt lat="28.497103" lon="98.815579">
<time>2016-10-07T11:37:53Z</time></trkpt>
<trkpt lat="28.497163" lon="98.815569">
<time>2016-10-07T11:37:54Z</time></trkpt>
<trkpt lat="28.497223" lon="98.815559">
<time>2016-10-07T11:37:55Z</time></trkpt>
<trkpt lat="28.497273" lon="98.815549">
<time>2016-10-07T11:37:56Z</time></trkpt>
<trkpt lat="28.497492" lon="98.815479">
<time>2016-10-07T11:37:57Z</time></trkpt>
<trkpt lat="28.497682" lon="98.815419">
<time>2016-10-07T11:37:58Z</time></trkpt>
<trkpt lat="28.497772" lon="98.815409">
<time>2016-10-07T11:37:59Z</time></trkpt>
<trkpt lat="28.497862" lon="98.815399">
<time>2016-10-07T11:38:00Z</time></trkpt>
<trkpt lat="28.497912" lon="98.815399">
<time>2016-10-07T11:38:01Z</time></trkpt>
<trkpt lat="28.497972" lon="98.815399">
<time>2016-10-07T11:38:02Z</time></trkpt>
<trkpt lat="28.498062" lon="98.815419">
<time>2016-10-07T11:38:03Z</time></trkpt>
<trkpt lat="28.498212" lon="98.815459">
<time>2016-10-07T11:38:04Z</time></trkpt>
<trkpt lat="28.498322" lon="98.815499">
<time>2016-10-07T11:38:05Z</time></trkpt>
<trkpt lat="28.498392" lon="98.815519">
<time>2016-10-07T11:38:06Z</time></trkpt>
<trkpt lat="28.498442" lon="98.815529">
<time>2016-10-07T11:38:07Z</time></trkpt>
<trkpt lat="28.498482" lon="98.815529">
<time>2016-10-07T11:38:08Z</time></trkpt>
<trkpt lat="28.498522" lon="98.815519">
<time>2016-10-07T11:38:09Z</time></trkpt>
<trkpt lat="28.498592" lon="98.815509">
<time>2016-10-07T11:38:10Z</time></trkpt>
<trkpt lat="28.498652" lon="98.815479">
<time>2016-10-07T11:38:11Z</time></trkpt>
<trkpt lat="28.498792" lon="98.815419">
<time>2016-10-07T11:38:12Z</time></trkpt>
<trkpt lat="28.498922" lon="98.815369">
<time>2016-10-07T11:38:13Z</time></trkpt>
<trkpt lat="28.499032" lon="98.815329">
<time>2016-10-07T11:38:14Z</time></trkpt>
<trkpt lat="28.499132" lon="98.815319">
<time>2016-10-07T11:38:15Z</time></trkpt>
<trkpt lat="28.499222" lon="98.815319">
<time>2016-10-07T11:38:16Z</time></trkpt>
<trkpt lat="28.499302" lon="98.815329">
<time>2016-10-07T11:38:17Z</time></trkpt>
<trkpt lat="28.499332" lon="98.815339">
<time>2016-10-07T11:38:18Z</time></trkpt>
<trkpt lat="28.499432" lon="98.815359">
<time>2016-10-07T11:38:19Z</time></trkpt>
<trkpt lat="28.499612" lon="98.815429">
<time>2016-10-07T11:38:20Z</time></trkpt>
<trkpt lat="28.499672" lon="98.815439">
<time>2016-10-07T11:38:21Z</time></trkpt>
<trkpt lat="28.499712" lon="98.815449">
<time>2016-10-07T11:38:22Z</time></trkpt>
<trkpt lat="28.499782" lon="98.815459">
<time>2016-10-07T11:38:23Z</time></trkpt>
<trkpt lat="28.499832" lon="98.815469">
<time>2016-10-07T11:38:24Z</time></trkpt>
<trkpt lat="28.499952" lon="98.815469">
<time>2016-10-07T11:38:25Z</time></trkpt>
<trkpt lat="28.500032" lon="98.815469">
<time>2016-10-07T11:38:26Z</time></trkpt>
<trkpt lat="28.500222" lon="98.815449">
<time>2016-10-07T11:38:27Z</time></trkpt>
<trkpt lat="28.500371" lon="98.815419">
<time>2016-10-07T11:38:28Z</time></trkpt>
<trkpt lat="28.500721" lon="98.815329">
<time>2016-10-07T11:38:29Z</time></trkpt>
<trkpt lat="28.500981" lon="98.815259">
<time>2016-10-07T11:38:30Z</time></trkpt>
<trkpt lat="28.501081" lon="98.815229">
<time>2016-10-07T11:38:31Z</time></trkpt>
<trkpt lat="28.501201" lon="98.815179">
<time>2016-10-07T11:38:32Z</time></trkpt>
<trkpt lat="28.501341" lon="98.815119">
<time>2016-10-07T11:38:33Z</time></trkpt>
<trkpt lat="28.50143" lon="98.815059">
<time>2016-10-07T11:38:34Z</time></trkpt>
<trkpt lat="28.50163" lon="98.814918">
<time>2016-10-07T11:38:35Z</time></trkpt>
<trkpt lat="28.501999" lon="98.814608">
<time>2016-10-07T11:38:36Z</time></trkpt>
<trkpt lat="28.502109" lon="98.814528">
<time>2016-10-07T11:38:37Z</time></trkpt>
<trkpt lat="28.502199" lon="98.814468">
<time>2016-10-07T11:38:38Z</time></trkpt>
<trkpt lat="28.502309" lon="98.814408">
<time>2016-10-07T11:38:39Z</time></trkpt>
<trkpt lat="28.502419" lon="98.814368">
<time>2016-10-07T11:38:40Z</time></trkpt>
<trkpt lat="28.502549" lon="98.814318">
<time>2016-10-07T11:38:41Z</time></trkpt>
<trkpt lat="28.502669" lon="98.814268">
<time>2016-10-07T11:38:42Z</time></trkpt>
<trkpt lat="28.502758" lon="98.814218">
<time>2016-10-07T11:38:43Z</time></trkpt>
<trkpt lat="28.502858" lon="98.814157">
<time>2016-10-07T11:38:44Z</time></trkpt>
<trkpt lat="28.503158" lon="98.813937">
<time>2016-10-07T11:38:45Z</time></trkpt>
<trkpt lat="28.503537" lon="98.813657">
<time>2016-10-07T11:38:46Z</time></trkpt>
<trkpt lat="28.503747" lon="98.813517">
<time>2016-10-07T11:38:47Z</time></trkpt>
<trkpt lat="28.504026" lon="98.813336">
<time>2016-10-07T11:38:48Z</time></trkpt>
<trkpt lat="28.504086" lon="98.813286">
<time>2016-10-07T11:38:49Z</time></trkpt>
<trkpt lat="28.504146" lon="98.813236">
<time>2016-10-07T11:38:50Z</time></trkpt>
<trkpt lat="28.504296" lon="98.813096">
<time>2016-10-07T11:38:51Z</time></trkpt>
<trkpt lat="28.504435" lon="98.812896">
<time>2016-10-07T11:38:52Z</time></trkpt>
<trkpt lat="28.504695" lon="98.812515">
<time>2016-10-07T11:38:53Z</time></trkpt>
<trkpt lat="28.504774" lon="98.812405">
<time>2016-10-07T11:38:54Z</time></trkpt>
<trkpt lat="28.504844" lon="98.812325">
<time>2016-10-07T11:38:55Z</time></trkpt>
<trkpt lat="28.504924" lon="98.812275">
<time>2016-10-07T11:38:56Z</time></trkpt>
<trkpt lat="28.505034" lon="98.812205">
<time>2016-10-07T11:38:57Z</time></trkpt>
<trkpt lat="28.505194" lon="98.812155">
<time>2016-10-07T11:38:58Z</time></trkpt>
<trkpt lat="28.505354" lon="98.812085">
<time>2016-10-07T11:38:59Z</time></trkpt>
<trkpt lat="28.505424" lon="98.812045">
<time>2016-10-07T11:39:00Z</time></trkpt>
<trkpt lat="28.505513" lon="98.811975">
<time>2016-10-07T11:39:01Z</time></trkpt>
<trkpt lat="28.505573" lon="98.811925">
<time>2016-10-07T11:39:02Z</time></trkpt>
<trkpt lat="28.505623" lon="98.811864">
<time>2016-10-07T11:39:03Z</time></trkpt>
<trkpt lat="28.505663" lon="98.811804">
<time>2016-10-07T11:39:04Z</time></trkpt>
<trkpt lat="28.505773" lon="98.811604">
<time>2016-10-07T11:39:05Z</time></trkpt>
<trkpt lat="28.505832" lon="98.811494">
<time>2016-10-07T11:39:06Z</time></trkpt>
<trkpt lat="28.505882" lon="98.811414">
<time>2016-10-07T11:39:07Z</time></trkpt>
<trkpt lat="28.506012" lon="98.811234">
<time>2016-10-07T11:39:08Z</time></trkpt>
<trkpt lat="28.506072" lon="98.811134">
<time>2016-10-07T11:39:09Z</time></trkpt>
<trkpt lat="28.506141" lon="98.811013">
<time>2016-10-07T11:39:10Z</time></trkpt>
<trkpt lat="28.506241" lon="98.810823">
<time>2016-10-07T11:39:11Z</time></trkpt>
<trkpt lat="28.506301" lon="98.810733">
<time>2016-10-07T11:39:12Z</time></trkpt>
<trkpt lat="28.506391" lon="98.810613">
<time>2016-10-07T11:39:13Z</time></trkpt>
<trkpt lat="28.506431" lon="98.810563">
<time>2016-10-07T11:39:14Z</time></trkpt>
<trkpt lat="28.5065" lon="98.810503">
<time>2016-10-07T11:39:15Z</time></trkpt>
<trkpt lat="28.50657" lon="98.810433">
<time>2016-10-07T11:39:16Z</time></trkpt>
<trkpt lat="28.50667" lon="98.810323">
<time>2016-10-07T11:39:17Z</time></trkpt>
<trkpt lat="28.50679" lon="98.810132">
<time>2016-10-07T11:39:18Z</time></trkpt>
<trkpt lat="28.506869" lon="98.809962">
<time>2016-10-07T11:39:19Z</time></trkpt>
<trkpt lat="28.506939" lon="98.809832">
<time>2016-10-07T11:39:20Z</time></trkpt>
<trkpt lat="28.507049" lon="98.809682">
<time>2016-10-07T11:39:21Z</time></trkpt>
<trkpt lat="28.507208" lon="98.809512">
<time>2016-10-07T11:39:22Z</time></trkpt>
<trkpt lat="28.507398" lon="98.809331">
<time>2016-10-07T11:39:23Z</time></trkpt>
<trkpt lat="28.507548" lon="98.809201">
<time>2016-10-07T11:39:24Z</time></trkpt>
<trkpt lat="28.507598" lon="98.809171">
<time>2016-10-07T11:39:25Z</time></trkpt>
<trkpt lat="28.507668" lon="98.809131">
<time>2016-10-07T11:39:26Z</time></trkpt>
<trkpt lat="28.507758" lon="98.809101">
<time>2016-10-07T11:39:27Z</time></trkpt>
<trkpt lat="28.507848" lon="98.809101">
<time>2016-10-07T11:39:28Z</time></trkpt>
<trkpt lat="28.507957" lon="98.809101">
<time>2016-10-07T11:39:29Z</time></trkpt>
<trkpt lat="28.508087" lon="98.809111">
<time>2016-10-07T11:39:30Z</time></trkpt>
<trkpt lat="28.508277" lon="98.809141">
<time>2016-10-07T11:39:31Z</time></trkpt>
<trkpt lat="28.508337" lon="98.809151">
<time>2016-10-07T11:39:32Z</time></trkpt>
<trkpt lat="28.508407" lon="98.809151">
<time>2016-10-07T11:39:33Z</time></trkpt>
<trkpt lat="28.508487" lon="98.809141">
<time>2016-10-07T11:39:34Z</time></trkpt>
<trkpt lat="28.508537" lon="98.809131">
<time>2016-10-07T11:39:35Z</time></trkpt>
<trkpt lat="28.508587" lon="98.809111">
<time>2016-10-07T11:39:36Z</time></trkpt>
<trkpt lat="28.508637" lon="98.809081">
<time>2016-10-07T11:39:37Z</time></trkpt>
<trkpt lat="28.508737" lon="98.809011">
<time>2016-10-07T11:39:38Z</time></trkpt>
<trkpt lat="28.508787" lon="98.808961">
<time>2016-10-07T11:39:39Z</time></trkpt>
<trkpt lat="28.508887" lon="98.808921">
<time>2016-10-07T11:39:40Z</time></trkpt>
<trkpt lat="28.508927" lon="98.808901">
<time>2016-10-07T11:39:41Z</time></trkpt>
<trkpt lat="28.508957" lon="98.808891">
<time>2016-10-07T11:39:42Z</time></trkpt>
<trkpt lat="28.508997" lon="98.808891">
<time>2016-10-07T11:39:43Z</time></trkpt>
<trkpt lat="28.509077" lon="98.808891">
<time>2016-10-07T11:39:44Z</time></trkpt>
<trkpt lat="28.509187" lon="98.808901">
<time>2016-10-07T11:39:45Z</time></trkpt>
<trkpt lat="28.509367" lon="98.808941">
<time>2016-10-07T11:39:46Z</time></trkpt>
<trkpt lat="28.509447" lon="98.808941">
<time>2016-10-07T11:39:47Z</time></trkpt>
<trkpt lat="28.509517" lon="98.808941">
<time>2016-10-07T11:39:48Z</time></trkpt>
<trkpt lat="28.509587" lon="98.808921">
<time>2016-10-07T11:39:49Z</time></trkpt>
<trkpt lat="28.509766" lon="98.808861">
<time>2016-10-07T11:39:50Z</time></trkpt>
<trkpt lat="28.509886" lon="98.808821">
<time>2016-10-07T11:39:51Z</time></trkpt>
<trkpt lat="28.509976" lon="98.808801">
<time>2016-10-07T11:39:52Z</time></trkpt>
<trkpt lat="28.510066" lon="98.808781">
<time>2016-10-07T11:39:53Z</time></trkpt>
<trkpt lat="28.510176" lon="98.808781">
<time>2016-10-07T11:39:54Z</time></trkpt>
<trkpt lat="28.510396" lon="98.808771">
<time>2016-10-07T11:39:55Z</time></trkpt>
<trkpt lat="28.510636" lon="98.808761">
<time>2016-10-07T11:39:56Z</time></trkpt>
<trkpt lat="28.510836" lon="98.80872">
<time>2016-10-07T11:39:57Z</time></trkpt>
<trkpt lat="28.511136" lon="98.80862">
<time>2016-10-07T11:39:58Z</time></trkpt>
<trkpt lat="28.511235" lon="98.8086">
<time>2016-10-07T11:39:59Z</time></trkpt>
<trkpt lat="28.511325" lon="98.80859">
<time>2016-10-07T11:40:00Z</time></trkpt>
<trkpt lat="28.511465" lon="98.8086">
<time>2016-10-07T11:40:01Z</time></trkpt>
<trkpt lat="28.511705" lon="98.80862">
<time>2016-10-07T11:40:02Z</time></trkpt>
<trkpt lat="28.511855" lon="98.80864">
<time>2016-10-07T11:40:03Z</time></trkpt>
<trkpt lat="28.511985" lon="98.80863">
<time>2016-10-07T11:40:04Z</time></trkpt>
<trkpt lat="28.512085" lon="98.80861">
<time>2016-10-07T11:40:05Z</time></trkpt>
<trkpt lat="28.512305" lon="98.80859">
<time>2016-10-07T11:40:06Z</time></trkpt>
<trkpt lat="28.512695" lon="98.80857">
<time>2016-10-07T11:40:07Z</time></trkpt>
<trkpt lat="28.512925" lon="98.80856">
<time>2016-10-07T11:40:08Z</time></trkpt>
<trkpt lat="28.513165" lon="98.80855">
<time>2016-10-07T11:40:09Z</time></trkpt>
<trkpt lat="28.513455" lon="98.80854">
<time>2016-10-07T11:40:10Z</time></trkpt>
<trkpt lat="28.513595" lon="98.80854">
<time>2016-10-07T11:40:11Z</time></trkpt>
<trkpt lat="28.513645" lon="98.80855">
<time>2016-10-07T11:40:12Z</time></trkpt>
<trkpt lat="28.513715" lon="98.80857">
<time>2016-10-07T11:40:13Z</time></trkpt>
<trkpt lat="28.513785" lon="98.80863">
<time>2016-10-07T11:40:14Z</time></trkpt>
<trkpt lat="28.513825" lon="98.80867">
<time>2016-10-07T11:40:15Z</time></trkpt>
<trkpt lat="28.513845" lon="98.80871">
<time>2016-10-07T11:40:16Z</time></trkpt>
<trkpt lat="28.513865" lon="98.80874">
<time>2016-10-07T11:40:17Z</time></trkpt>
<trkpt lat="28.513895" lon="98.808811">
<time>2016-10-07T11:40:18Z</time></trkpt>
<trkpt lat="28.513945" lon="98.809031">
<time>2016-10-07T11:40:19Z</time></trkpt>
<trkpt lat="28.513976" lon="98.809221">
<time>2016-10-07T11:40:20Z</time></trkpt>
<trkpt lat="28.514067" lon="98.809812">
<time>2016-10-07T11:40:21Z</time></trkpt>
<trkpt lat="28.514117" lon="98.810132">
<time>2016-10-07T11:40:22Z</time></trkpt>
<trkpt lat="28.514147" lon="98.810282">
<time>2016-10-07T11:40:23Z</time></trkpt>
<trkpt lat="28.514198" lon="98.810423">
<time>2016-10-07T11:40:24Z</time></trkpt>
<trkpt lat="28.514308" lon="98.810783">
<time>2016-10-07T11:40:25Z</time></trkpt>
<trkpt lat="28.514328" lon="98.810913">
<time>2016-10-07T11:40:26Z</time></trkpt>
<trkpt lat="28.514339" lon="98.811013">
<time>2016-10-07T11:40:27Z</time></trkpt>
<trkpt lat="28.514339" lon="98.811133">
<time>2016-10-07T11:40:28Z</time></trkpt>
<trkpt lat="28.514329" lon="98.811354">
<time>2016-10-07T11:40:29Z</time></trkpt>
<trkpt lat="28.51432" lon="98.811624">
<time>2016-10-07T11:40:30Z</time></trkpt>
<trkpt lat="28.51431" lon="98.811874">
<time>2016-10-07T11:40:31Z</time></trkpt>
<trkpt lat="28.514311" lon="98.812105">
<time>2016-10-07T11:40:32Z</time></trkpt>
<trkpt lat="28.514291" lon="98.812405">
<time>2016-10-07T11:40:33Z</time></trkpt>
<trkpt lat="28.514272" lon="98.812876">
<time>2016-10-07T11:40:34Z</time></trkpt>
<trkpt lat="28.514252" lon="98.813116">
<time>2016-10-07T11:40:35Z</time></trkpt>
<trkpt lat="28.514253" lon="98.813226">
<time>2016-10-07T11:40:36Z</time></trkpt>
<trkpt lat="28.514253" lon="98.813336">
<time>2016-10-07T11:40:37Z</time></trkpt>
<trkpt lat="28.514263" lon="98.813406">
<time>2016-10-07T11:40:38Z</time></trkpt>
<trkpt lat="28.514283" lon="98.813466">
<time>2016-10-07T11:40:39Z</time></trkpt>
<trkpt lat="28.514293" lon="98.813526">
<time>2016-10-07T11:40:40Z</time></trkpt>
<trkpt lat="28.514323" lon="98.813566">
<time>2016-10-07T11:40:41Z</time></trkpt>
<trkpt lat="28.514343" lon="98.813627">
<time>2016-10-07T11:40:42Z</time></trkpt>
<trkpt lat="28.514383" lon="98.813687">
<time>2016-10-07T11:40:43Z</time></trkpt>
<trkpt lat="28.514444" lon="98.813747">
<time>2016-10-07T11:40:44Z</time></trkpt>
<trkpt lat="28.514504" lon="98.813817">
<time>2016-10-07T11:40:45Z</time></trkpt>
<trkpt lat="28.514584" lon="98.813857">
<time>2016-10-07T11:40:46Z</time></trkpt>
<trkpt lat="28.514654" lon="98.813887">
<time>2016-10-07T11:40:47Z</time></trkpt>
<trkpt lat="28.514784" lon="98.813947">
<time>2016-10-07T11:40:48Z</time></trkpt>
<trkpt lat="28.514844" lon="98.813977">
<time>2016-10-07T11:40:49Z</time></trkpt>
<trkpt lat="28.514914" lon="98.814037">
<time>2016-10-07T11:40:50Z</time></trkpt>
<trkpt lat="28.514954" lon="98.814077">
<time>2016-10-07T11:40:51Z</time></trkpt>
<trkpt lat="28.515004" lon="98.814147">
<time>2016-10-07T11:40:52Z</time></trkpt>
<trkpt lat="28.515044" lon="98.814227">
<time>2016-10-07T11:40:53Z</time></trkpt>
<trkpt lat="28.515084" lon="98.814307">
<time>2016-10-07T11:40:54Z</time></trkpt>
<trkpt lat="28.515114" lon="98.814398">
<time>2016-10-07T11:40:55Z</time></trkpt>
<trkpt lat="28.515155" lon="98.814488">
<time>2016-10-07T11:40:56Z</time></trkpt>
<trkpt lat="28.515265" lon="98.814788">
<time>2016-10-07T11:40:57Z</time></trkpt>
<trkpt lat="28.515376" lon="98.815078">
<time>2016-10-07T11:40:58Z</time></trkpt>
<trkpt lat="28.515426" lon="98.815229">
<time>2016-10-07T11:40:59Z</time></trkpt>
<trkpt lat="28.515476" lon="98.815349">
<time>2016-10-07T11:41:00Z</time></trkpt>
<trkpt lat="28.515506" lon="98.815459">
<time>2016-10-07T11:41:01Z</time></trkpt>
<trkpt lat="28.515526" lon="98.815559">
<time>2016-10-07T11:41:02Z</time></trkpt>
<trkpt lat="28.515557" lon="98.815719">
<time>2016-10-07T11:41:03Z</time></trkpt>
<trkpt lat="28.515557" lon="98.815789">
<time>2016-10-07T11:41:04Z</time></trkpt>
<trkpt lat="28.515547" lon="98.815859">
<time>2016-10-07T11:41:05Z</time></trkpt>
<trkpt lat="28.515527" lon="98.81599">
<time>2016-10-07T11:41:06Z</time></trkpt>
<trkpt lat="28.515507" lon="98.81609">
<time>2016-10-07T11:41:07Z</time></trkpt>
<trkpt lat="28.515478" lon="98.8162">
<time>2016-10-07T11:41:08Z</time></trkpt>
<trkpt lat="28.515448" lon="98.81632">
<time>2016-10-07T11:41:09Z</time></trkpt>
<trkpt lat="28.515428" lon="98.81644">
<time>2016-10-07T11:41:10Z</time></trkpt>
<trkpt lat="28.515418" lon="98.81653">
<time>2016-10-07T11:41:11Z</time></trkpt>
<trkpt lat="28.515428" lon="98.81663">
<time>2016-10-07T11:41:12Z</time></trkpt>
<trkpt lat="28.515449" lon="98.816741">
<time>2016-10-07T11:41:13Z</time></trkpt>
<trkpt lat="28.515469" lon="98.816831">
<time>2016-10-07T11:41:14Z</time></trkpt>
<trkpt lat="28.515499" lon="98.816921">
<time>2016-10-07T11:41:15Z</time></trkpt>
<trkpt lat="28.515539" lon="98.816991">
<time>2016-10-07T11:41:16Z</time></trkpt>
<trkpt lat="28.515579" lon="98.817061">
<time>2016-10-07T11:41:17Z</time></trkpt>
<trkpt lat="28.515669" lon="98.817161">
<time>2016-10-07T11:41:18Z</time></trkpt>
<trkpt lat="28.515779" lon="98.817271">
<time>2016-10-07T11:41:19Z</time></trkpt>
<trkpt lat="28.51593" lon="98.817411">
<time>2016-10-07T11:41:20Z</time></trkpt>
<trkpt lat="28.51599" lon="98.817512">
<time>2016-10-07T11:41:21Z</time></trkpt>
<trkpt lat="28.51602" lon="98.817612">
<time>2016-10-07T11:41:22Z</time></trkpt>
<trkpt lat="28.51603" lon="98.817712">
<time>2016-10-07T11:41:23Z</time></trkpt>
<trkpt lat="28.51602" lon="98.817812">
<time>2016-10-07T11:41:24Z</time></trkpt>
<trkpt lat="28.516001" lon="98.817952">
<time>2016-10-07T11:41:25Z</time></trkpt>
<trkpt lat="28.515991" lon="98.818042">
<time>2016-10-07T11:41:26Z</time></trkpt>
<trkpt lat="28.515991" lon="98.818142">
<time>2016-10-07T11:41:27Z</time></trkpt>
<trkpt lat="28.516011" lon="98.818212">
<time>2016-10-07T11:41:28Z</time></trkpt>
<trkpt lat="28.516051" lon="98.818303">
<time>2016-10-07T11:41:29Z</time></trkpt>
<trkpt lat="28.516112" lon="98.818433">
<time>2016-10-07T11:41:30Z</time></trkpt>
<trkpt lat="28.516162" lon="98.818523">
<time>2016-10-07T11:41:31Z</time></trkpt>
<trkpt lat="28.516232" lon="98.818673">
<time>2016-10-07T11:41:32Z</time></trkpt>
<trkpt lat="28.516272" lon="98.818803">
<time>2016-10-07T11:41:33Z</time></trkpt>
<trkpt lat="28.516413" lon="98.819394">
<time>2016-10-07T11:41:34Z</time></trkpt>
<trkpt lat="28.516514" lon="98.819795">
<time>2016-10-07T11:41:35Z</time></trkpt>
<trkpt lat="28.516564" lon="98.819925">
<time>2016-10-07T11:41:36Z</time></trkpt>
<trkpt lat="28.516644" lon="98.820045">
<time>2016-10-07T11:41:37Z</time></trkpt>
<trkpt lat="28.516724" lon="98.820135">
<time>2016-10-07T11:41:38Z</time></trkpt>
<trkpt lat="28.516795" lon="98.820205">
<time>2016-10-07T11:41:39Z</time></trkpt>
<trkpt lat="28.516875" lon="98.820275">
<time>2016-10-07T11:41:40Z</time></trkpt>
<trkpt lat="28.516955" lon="98.820345">
<time>2016-10-07T11:41:41Z</time></trkpt>
<trkpt lat="28.517075" lon="98.820485">
<time>2016-10-07T11:41:42Z</time></trkpt>
<trkpt lat="28.517155" lon="98.820606">
<time>2016-10-07T11:41:43Z</time></trkpt>
<trkpt lat="28.517225" lon="98.820736">
<time>2016-10-07T11:41:44Z</time></trkpt>
<trkpt lat="28.517306" lon="98.820866">
<time>2016-10-07T11:41:45Z</time></trkpt>
<trkpt lat="28.517356" lon="98.820936">
<time>2016-10-07T11:41:46Z</time></trkpt>
<trkpt lat="28.517406" lon="98.820966">
<time>2016-10-07T11:41:47Z</time></trkpt>
<trkpt lat="28.517446" lon="98.820986">
<time>2016-10-07T11:41:48Z</time></trkpt>
<trkpt lat="28.517486" lon="98.820986">
<time>2016-10-07T11:41:49Z</time></trkpt>
<trkpt lat="28.517556" lon="98.820976">
<time>2016-10-07T11:41:50Z</time></trkpt>
<trkpt lat="28.517596" lon="98.820956">
<time>2016-10-07T11:41:51Z</time></trkpt>
<trkpt lat="28.517656" lon="98.820916">
<time>2016-10-07T11:41:52Z</time></trkpt>
<trkpt lat="28.517725" lon="98.820866">
<time>2016-10-07T11:41:53Z</time></trkpt>
<trkpt lat="28.517815" lon="98.820756">
<time>2016-10-07T11:41:54Z</time></trkpt>
<trkpt lat="28.517925" lon="98.820626">
<time>2016-10-07T11:41:55Z</time></trkpt>
<trkpt lat="28.518005" lon="98.820536">
<time>2016-10-07T11:41:56Z</time></trkpt>
<trkpt lat="28.518144" lon="98.820355">
<time>2016-10-07T11:41:57Z</time></trkpt>
<trkpt lat="28.518284" lon="98.820205">
<time>2016-10-07T11:41:58Z</time></trkpt>
<trkpt lat="28.518384" lon="98.820075">
<time>2016-10-07T11:41:59Z</time></trkpt>
<trkpt lat="28.518473" lon="98.819945">
<time>2016-10-07T11:42:00Z</time></trkpt>
<trkpt lat="28.518533" lon="98.819845">
<time>2016-10-07T11:42:01Z</time></trkpt>
<trkpt lat="28.518573" lon="98.819764">
<time>2016-10-07T11:42:02Z</time></trkpt>
<trkpt lat="28.518613" lon="98.819674">
<time>2016-10-07T11:42:03Z</time></trkpt>
<trkpt lat="28.518673" lon="98.819484">
<time>2016-10-07T11:42:04Z</time></trkpt>
<trkpt lat="28.518772" lon="98.819134">
<time>2016-10-07T11:42:05Z</time></trkpt>
<trkpt lat="28.518911" lon="98.818653">
<time>2016-10-07T11:42:06Z</time></trkpt>
<trkpt lat="28.518961" lon="98.818493">
<time>2016-10-07T11:42:07Z</time></trkpt>
<trkpt lat="28.51898" lon="98.818413">
<time>2016-10-07T11:42:08Z</time></trkpt>
<trkpt lat="28.51901" lon="98.818212">
<time>2016-10-07T11:42:09Z</time></trkpt>
<trkpt lat="28.51904" lon="98.817942">
<time>2016-10-07T11:42:10Z</time></trkpt>
<trkpt lat="28.519039" lon="98.817672">
<time>2016-10-07T11:42:11Z</time></trkpt>
<trkpt lat="28.519049" lon="98.817481">
<time>2016-10-07T11:42:12Z</time></trkpt>
<trkpt lat="28.519058" lon="98.817371">
<time>2016-10-07T11:42:13Z</time></trkpt>
<trkpt lat="28.519068" lon="98.817271">
<time>2016-10-07T11:42:14Z</time></trkpt>
<trkpt lat="28.519088" lon="98.817181">
<time>2016-10-07T11:42:15Z</time></trkpt>
<trkpt lat="28.519138" lon="98.816951">
<time>2016-10-07T11:42:16Z</time></trkpt>
<trkpt lat="28.519187" lon="98.816801">
<time>2016-10-07T11:42:17Z</time></trkpt>
<trkpt lat="28.519277" lon="98.81651">
<time>2016-10-07T11:42:18Z</time></trkpt>
<trkpt lat="28.519416" lon="98.81604">
<time>2016-10-07T11:42:19Z</time></trkpt>
<trkpt lat="28.519505" lon="98.815769">
<time>2016-10-07T11:42:20Z</time></trkpt>
<trkpt lat="28.519575" lon="98.815589">
<time>2016-10-07T11:42:21Z</time></trkpt>
<trkpt lat="28.519615" lon="98.815479">
<time>2016-10-07T11:42:22Z</time></trkpt>
<trkpt lat="28.519645" lon="98.815409">
<time>2016-10-07T11:42:23Z</time></trkpt>
<trkpt lat="28.519734" lon="98.815239">
<time>2016-10-07T11:42:24Z</time></trkpt>
<trkpt lat="28.519844" lon="98.815068">
<time>2016-10-07T11:42:25Z</time></trkpt>
<trkpt lat="28.519974" lon="98.814868">
<time>2016-10-07T11:42:26Z</time></trkpt>
<trkpt lat="28.520063" lon="98.814758">
<time>2016-10-07T11:42:27Z</time></trkpt>
<trkpt lat="28.520173" lon="98.814618">
<time>2016-10-07T11:42:28Z</time></trkpt>
<trkpt lat="28.520223" lon="98.814528">
<time>2016-10-07T11:42:29Z</time></trkpt>
<trkpt lat="28.520303" lon="98.814377">
<time>2016-10-07T11:42:30Z</time></trkpt>
<trkpt lat="28.520352" lon="98.814247">
<time>2016-10-07T11:42:31Z</time></trkpt>
<trkpt lat="28.520382" lon="98.814087">
<time>2016-10-07T11:42:32Z</time></trkpt>
<trkpt lat="28.520421" lon="98.813807">
<time>2016-10-07T11:42:33Z</time></trkpt>
<trkpt lat="28.520431" lon="98.813686">
<time>2016-10-07T11:42:34Z</time></trkpt>
<trkpt lat="28.520441" lon="98.813616">
<time>2016-10-07T11:42:35Z</time></trkpt>
<trkpt lat="28.520461" lon="98.813546">
<time>2016-10-07T11:42:36Z</time></trkpt>
<trkpt lat="28.520531" lon="98.813436">
<time>2016-10-07T11:42:37Z</time></trkpt>
<trkpt lat="28.520571" lon="98.813376">
<time>2016-10-07T11:42:38Z</time></trkpt>
<trkpt lat="28.52067" lon="98.813266">
<time>2016-10-07T11:42:39Z</time></trkpt>
<trkpt lat="28.52085" lon="98.813076">
<time>2016-10-07T11:42:40Z</time></trkpt>
<trkpt lat="28.52103" lon="98.812895">
<time>2016-10-07T11:42:41Z</time></trkpt>
<trkpt lat="28.521249" lon="98.812635">
<time>2016-10-07T11:42:42Z</time></trkpt>
<trkpt lat="28.521399" lon="98.812455">
<time>2016-10-07T11:42:43Z</time></trkpt>
<trkpt lat="28.521638" lon="98.812135">
<time>2016-10-07T11:42:44Z</time></trkpt>
<trkpt lat="28.521917" lon="98.811764">
<time>2016-10-07T11:42:45Z</time></trkpt>
<trkpt lat="28.521987" lon="98.811664">
<time>2016-10-07T11:42:46Z</time></trkpt>
<trkpt lat="28.522127" lon="98.811444">
<time>2016-10-07T11:42:47Z</time></trkpt>
<trkpt lat="28.522435" lon="98.810843">
<time>2016-10-07T11:42:48Z</time></trkpt>
<trkpt lat="28.522545" lon="98.810633">
<time>2016-10-07T11:42:49Z</time></trkpt>
<trkpt lat="28.522645" lon="98.810472">
<time>2016-10-07T11:42:50Z</time></trkpt>
<trkpt lat="28.522934" lon="98.810052">
<time>2016-10-07T11:42:51Z</time></trkpt>
<trkpt lat="28.523033" lon="98.809892">
<time>2016-10-07T11:42:52Z</time></trkpt>
<trkpt lat="28.523093" lon="98.809782">
<time>2016-10-07T11:42:53Z</time></trkpt>
<trkpt lat="28.523292" lon="98.809361">
<time>2016-10-07T11:42:54Z</time></trkpt>
<trkpt lat="28.523402" lon="98.809181">
<time>2016-10-07T11:42:55Z</time></trkpt>
<trkpt lat="28.523572" lon="98.80893">
<time>2016-10-07T11:42:56Z</time></trkpt>
<trkpt lat="28.52395" lon="98.80836">
<time>2016-10-07T11:42:57Z</time></trkpt>
<trkpt lat="28.524359" lon="98.807739">
<time>2016-10-07T11:42:58Z</time></trkpt>
<trkpt lat="28.524409" lon="98.807659">
<time>2016-10-07T11:42:59Z</time></trkpt>
<trkpt lat="28.524459" lon="98.807589">
<time>2016-10-07T11:43:00Z</time></trkpt>
<trkpt lat="28.524539" lon="98.807539">
<time>2016-10-07T11:43:01Z</time></trkpt>
<trkpt lat="28.524609" lon="98.807499">
<time>2016-10-07T11:43:02Z</time></trkpt>
<trkpt lat="28.524719" lon="98.807469">
<time>2016-10-07T11:43:03Z</time></trkpt>
<trkpt lat="28.524859" lon="98.807449">
<time>2016-10-07T11:43:04Z</time></trkpt>
<trkpt lat="28.524919" lon="98.807439">
<time>2016-10-07T11:43:05Z</time></trkpt>
<trkpt lat="28.524978" lon="98.807419">
<time>2016-10-07T11:43:06Z</time></trkpt>
<trkpt lat="28.525028" lon="98.807389">
<time>2016-10-07T11:43:07Z</time></trkpt>
<trkpt lat="28.525098" lon="98.807349">
<time>2016-10-07T11:43:08Z</time></trkpt>
<trkpt lat="28.525148" lon="98.807288">
<time>2016-10-07T11:43:09Z</time></trkpt>
<trkpt lat="28.525238" lon="98.807168">
<time>2016-10-07T11:43:10Z</time></trkpt>
<trkpt lat="28.525338" lon="98.806998">
<time>2016-10-07T11:43:11Z</time></trkpt>
<trkpt lat="28.525407" lon="98.806878">
<time>2016-10-07T11:43:12Z</time></trkpt>
<trkpt lat="28.525467" lon="98.806778">
<time>2016-10-07T11:43:13Z</time></trkpt>
<trkpt lat="28.525527" lon="98.806698">
<time>2016-10-07T11:43:14Z</time></trkpt>
<trkpt lat="28.525637" lon="98.806598">
<time>2016-10-07T11:43:15Z</time></trkpt>
<trkpt lat="28.525717" lon="98.806538">
<time>2016-10-07T11:43:16Z</time></trkpt>
<trkpt lat="28.525777" lon="98.806498">
<time>2016-10-07T11:43:17Z</time></trkpt>
<trkpt lat="28.525886" lon="98.806427">
<time>2016-10-07T11:43:18Z</time></trkpt>
<trkpt lat="28.525966" lon="98.806347">
<time>2016-10-07T11:43:19Z</time></trkpt>
<trkpt lat="28.526046" lon="98.806267">
<time>2016-10-07T11:43:20Z</time></trkpt>
<trkpt lat="28.526126" lon="98.806157">
<time>2016-10-07T11:43:21Z</time></trkpt>
<trkpt lat="28.526236" lon="98.806007">
<time>2016-10-07T11:43:22Z</time></trkpt>
<trkpt lat="28.526325" lon="98.805887">
<time>2016-10-07T11:43:23Z</time></trkpt>
<trkpt lat="28.526365" lon="98.805827">
<time>2016-10-07T11:43:24Z</time></trkpt>
<trkpt lat="28.526415" lon="98.805787">
<time>2016-10-07T11:43:25Z</time></trkpt>
<trkpt lat="28.526525" lon="98.805697">
<time>2016-10-07T11:43:26Z</time></trkpt>
<trkpt lat="28.526655" lon="98.805627">
<time>2016-10-07T11:43:27Z</time></trkpt>
<trkpt lat="28.526874" lon="98.805476">
<time>2016-10-07T11:43:28Z</time></trkpt>
<trkpt lat="28.526974" lon="98.805396">
<time>2016-10-07T11:43:29Z</time></trkpt>
<trkpt lat="28.527104" lon="98.805286">
<time>2016-10-07T11:43:30Z</time></trkpt>
<trkpt lat="28.527204" lon="98.805196">
<time>2016-10-07T11:43:31Z</time></trkpt>
<trkpt lat="28.527274" lon="98.805146">
<time>2016-10-07T11:43:32Z</time></trkpt>
<trkpt lat="28.527344" lon="98.805096">
<time>2016-10-07T11:43:33Z</time></trkpt>
<trkpt lat="28.527384" lon="98.805086">
<time>2016-10-07T11:43:34Z</time></trkpt>
<trkpt lat="28.527444" lon="98.805066">
<time>2016-10-07T11:43:35Z</time></trkpt>
<trkpt lat="28.527553" lon="98.805036">
<time>2016-10-07T11:43:36Z</time></trkpt>
<trkpt lat="28.527653" lon="98.805006">
<time>2016-10-07T11:43:37Z</time></trkpt>
<trkpt lat="28.527723" lon="98.804966">
<time>2016-10-07T11:43:38Z</time></trkpt>
<trkpt lat="28.527753" lon="98.804926">
<time>2016-10-07T11:43:39Z</time></trkpt>
<trkpt lat="28.527793" lon="98.804876">
<time>2016-10-07T11:43:40Z</time></trkpt>
<trkpt lat="28.527853" lon="98.804775">
<time>2016-10-07T11:43:41Z</time></trkpt>
<trkpt lat="28.527923" lon="98.804655">
<time>2016-10-07T11:43:42Z</time></trkpt>
<trkpt lat="28.527992" lon="98.804515">
<time>2016-10-07T11:43:43Z</time></trkpt>
<trkpt lat="28.528042" lon="98.804405">
<time>2016-10-07T11:43:44Z</time></trkpt>
<trkpt lat="28.528082" lon="98.804305">
<time>2016-10-07T11:43:45Z</time></trkpt>
<trkpt lat="28.528092" lon="98.804225">
<time>2016-10-07T11:43:46Z</time></trkpt>
<trkpt lat="28.528092" lon="98.804165">
<time>2016-10-07T11:43:47Z</time></trkpt>
<trkpt lat="28.528092" lon="98.804095">
<time>2016-10-07T11:43:48Z</time></trkpt>
<trkpt lat="28.528061" lon="98.803985">
<time>2016-10-07T11:43:49Z</time></trkpt>
<trkpt lat="28.528021" lon="98.803874">
<time>2016-10-07T11:43:50Z</time></trkpt>
<trkpt lat="28.527961" lon="98.803744">
<time>2016-10-07T11:43:51Z</time></trkpt>
<trkpt lat="28.527941" lon="98.803684">
<time>2016-10-07T11:43:52Z</time></trkpt>
<trkpt lat="28.527931" lon="98.803614">
<time>2016-10-07T11:43:53Z</time></trkpt>
<trkpt lat="28.527941" lon="98.803524">
<time>2016-10-07T11:43:54Z</time></trkpt>
<trkpt lat="28.527951" lon="98.803474">
<time>2016-10-07T11:43:55Z</time></trkpt>
<trkpt lat="28.527971" lon="98.803404">
<time>2016-10-07T11:43:56Z</time></trkpt>
<trkpt lat="28.528" lon="98.803334">
<time>2016-10-07T11:43:57Z</time></trkpt>
<trkpt lat="28.52803" lon="98.803294">
<time>2016-10-07T11:43:58Z</time></trkpt>
<trkpt lat="28.52809" lon="98.803164">
<time>2016-10-07T11:43:59Z</time></trkpt>
<trkpt lat="28.52814" lon="98.803064">
<time>2016-10-07T11:44:00Z</time></trkpt>
<trkpt lat="28.52816" lon="98.803014">
<time>2016-10-07T11:44:01Z</time></trkpt>
<trkpt lat="28.52817" lon="98.802933">
<time>2016-10-07T11:44:02Z</time></trkpt>
<trkpt lat="28.528179" lon="98.802833">
<time>2016-10-07T11:44:03Z</time></trkpt>
<trkpt lat="28.528169" lon="98.802673">
<time>2016-10-07T11:44:04Z</time></trkpt>
<trkpt lat="28.528129" lon="98.802473">
<time>2016-10-07T11:44:05Z</time></trkpt>
<trkpt lat="28.528089" lon="98.802293">
<time>2016-10-07T11:44:06Z</time></trkpt>
<trkpt lat="28.528078" lon="98.802193">
<time>2016-10-07T11:44:07Z</time></trkpt>
<trkpt lat="28.528058" lon="98.802102">
<time>2016-10-07T11:44:08Z</time></trkpt>
<trkpt lat="28.528058" lon="98.802002">
<time>2016-10-07T11:44:09Z</time></trkpt>
<trkpt lat="28.528058" lon="98.801872">
<time>2016-10-07T11:44:10Z</time></trkpt>
<trkpt lat="28.528068" lon="98.801712">
<time>2016-10-07T11:44:11Z</time></trkpt>
<trkpt lat="28.528077" lon="98.801552">
<time>2016-10-07T11:44:12Z</time></trkpt>
<trkpt lat="28.528087" lon="98.801302">
<time>2016-10-07T11:44:13Z</time></trkpt>
<trkpt lat="28.528087" lon="98.801111">
<time>2016-10-07T11:44:14Z</time></trkpt>
<trkpt lat="28.528086" lon="98.800941">
<time>2016-10-07T11:44:15Z</time></trkpt>
<trkpt lat="28.528076" lon="98.800731">
<time>2016-10-07T11:44:16Z</time></trkpt>
<trkpt lat="28.528096" lon="98.800561">
<time>2016-10-07T11:44:17Z</time></trkpt>
<trkpt lat="28.528116" lon="98.800441">
<time>2016-10-07T11:44:18Z</time></trkpt>
<trkpt lat="28.528155" lon="98.800311">
<time>2016-10-07T11:44:19Z</time></trkpt>
<trkpt lat="28.528195" lon="98.80018">
<time>2016-10-07T11:44:20Z</time></trkpt>
<trkpt lat="28.528225" lon="98.8001">
<time>2016-10-07T11:44:21Z</time></trkpt>
<trkpt lat="28.528275" lon="98.79999">
<time>2016-10-07T11:44:22Z</time></trkpt>
<trkpt lat="28.528345" lon="98.79988">
<time>2016-10-07T11:44:23Z</time></trkpt>
<trkpt lat="28.528404" lon="98.7998">
<time>2016-10-07T11:44:24Z</time></trkpt>
<trkpt lat="28.528474" lon="98.79973">
<time>2016-10-07T11:44:25Z</time></trkpt>
<trkpt lat="28.528684" lon="98.79953">
<time>2016-10-07T11:44:26Z</time></trkpt>
<trkpt lat="28.528804" lon="98.79942">
<time>2016-10-07T11:44:27Z</time></trkpt>
<trkpt lat="28.528864" lon="98.79937">
<time>2016-10-07T11:44:28Z</time></trkpt>
<trkpt lat="28.528934" lon="98.79932">
<time>2016-10-07T11:44:29Z</time></trkpt>
<trkpt lat="28.529033" lon="98.799269">
<time>2016-10-07T11:44:30Z</time></trkpt>
<trkpt lat="28.529163" lon="98.799219">
<time>2016-10-07T11:44:31Z</time></trkpt>
<trkpt lat="28.529303" lon="98.799179">
<time>2016-10-07T11:44:32Z</time></trkpt>
<trkpt lat="28.529473" lon="98.799119">
<time>2016-10-07T11:44:33Z</time></trkpt>
<trkpt lat="28.529633" lon="98.799089">
<time>2016-10-07T11:44:34Z</time></trkpt>
<trkpt lat="28.529783" lon="98.799069">
<time>2016-10-07T11:44:35Z</time></trkpt>
<trkpt lat="28.529933" lon="98.799039">
<time>2016-10-07T11:44:36Z</time></trkpt>
<trkpt lat="28.530083" lon="98.799019">
<time>2016-10-07T11:44:37Z</time></trkpt>
<trkpt lat="28.530203" lon="98.798979">
<time>2016-10-07T11:44:38Z</time></trkpt>
<trkpt lat="28.530322" lon="98.798939">
<time>2016-10-07T11:44:39Z</time></trkpt>
<trkpt lat="28.530472" lon="98.798879">
<time>2016-10-07T11:44:40Z</time></trkpt>
<trkpt lat="28.530612" lon="98.798819">
<time>2016-10-07T11:44:41Z</time></trkpt>
<trkpt lat="28.530692" lon="98.798789">
<time>2016-10-07T11:44:42Z</time></trkpt>
<trkpt lat="28.530742" lon="98.798769">
<time>2016-10-07T11:44:43Z</time></trkpt>
<trkpt lat="28.530842" lon="98.798759">
<time>2016-10-07T11:44:44Z</time></trkpt>
<trkpt lat="28.530902" lon="98.798759">
<time>2016-10-07T11:44:45Z</time></trkpt>
<trkpt lat="28.530992" lon="98.798769">
<time>2016-10-07T11:44:46Z</time></trkpt>
<trkpt lat="28.531202" lon="98.798829">
<time>2016-10-07T11:44:47Z</time></trkpt>
<trkpt lat="28.531392" lon="98.798869">
<time>2016-10-07T11:44:48Z</time></trkpt>
<trkpt lat="28.531512" lon="98.798899">
<time>2016-10-07T11:44:49Z</time></trkpt>
<trkpt lat="28.531652" lon="98.798939">
<time>2016-10-07T11:44:50Z</time></trkpt>
<trkpt lat="28.531762" lon="98.798969">
<time>2016-10-07T11:44:51Z</time></trkpt>
<trkpt lat="28.531852" lon="98.798989">
<time>2016-10-07T11:44:52Z</time></trkpt>
<trkpt lat="28.532102" lon="98.799049">
<time>2016-10-07T11:44:53Z</time></trkpt>
<trkpt lat="28.532262" lon="98.799089">
<time>2016-10-07T11:44:54Z</time></trkpt>
<trkpt lat="28.532412" lon="98.799129">
<time>2016-10-07T11:44:55Z</time></trkpt>
<trkpt lat="28.532482" lon="98.799159">
<time>2016-10-07T11:44:56Z</time></trkpt>
<trkpt lat="28.532542" lon="98.799199">
<time>2016-10-07T11:44:57Z</time></trkpt>
<trkpt lat="28.532572" lon="98.799239">
<time>2016-10-07T11:44:58Z</time></trkpt>
<trkpt lat="28.532592" lon="98.799279">
<time>2016-10-07T11:44:59Z</time></trkpt>
<trkpt lat="28.532612" lon="98.799309">
<time>2016-10-07T11:45:00Z</time></trkpt>
<trkpt lat="28.532642" lon="98.79939">
<time>2016-10-07T11:45:01Z</time></trkpt>
<trkpt lat="28.532672" lon="98.79945">
<time>2016-10-07T11:45:02Z</time></trkpt>
<trkpt lat="28.532702" lon="98.79951">
<time>2016-10-07T11:45:03Z</time></trkpt>
<trkpt lat="28.532722" lon="98.79955">
<time>2016-10-07T11:45:04Z</time></trkpt>
<trkpt lat="28.532752" lon="98.79957">
<time>2016-10-07T11:45:05Z</time></trkpt>
<trkpt lat="28.532803" lon="98.79962">
<time>2016-10-07T11:45:06Z</time></trkpt>
<trkpt lat="28.532883" lon="98.79966">
<time>2016-10-07T11:45:07Z</time></trkpt>
<trkpt lat="28.532933" lon="98.79968">
<time>2016-10-07T11:45:08Z</time></trkpt>
<trkpt lat="28.532993" lon="98.79969">
<time>2016-10-07T11:45:09Z</time></trkpt>
<trkpt lat="28.533073" lon="98.79971">
<time>2016-10-07T11:45:10Z</time></trkpt>
<trkpt lat="28.533183" lon="98.79972">
<time>2016-10-07T11:45:11Z</time></trkpt>
<trkpt lat="28.533322" lon="98.79972">
<time>2016-10-07T11:45:12Z</time></trkpt>
<trkpt lat="28.533422" lon="98.79972">
<time>2016-10-07T11:45:13Z</time></trkpt>
<trkpt lat="28.533542" lon="98.7997">
<time>2016-10-07T11:45:14Z</time></trkpt>
<trkpt lat="28.533662" lon="98.79968">
<time>2016-10-07T11:45:15Z</time></trkpt>
<trkpt lat="28.533732" lon="98.79967">
<time>2016-10-07T11:45:16Z</time></trkpt>
<trkpt lat="28.533782" lon="98.79967">
<time>2016-10-07T11:45:17Z</time></trkpt>
<trkpt lat="28.533862" lon="98.79968">
<time>2016-10-07T11:45:18Z</time></trkpt>
<trkpt lat="28.533932" lon="98.7997">
<time>2016-10-07T11:45:19Z</time></trkpt>
<trkpt lat="28.534002" lon="98.79972">
<time>2016-10-07T11:45:20Z</time></trkpt>
<trkpt lat="28.534102" lon="98.79978">
<time>2016-10-07T11:45:21Z</time></trkpt>
<trkpt lat="28.534222" lon="98.79985">
<time>2016-10-07T11:45:22Z</time></trkpt>
<trkpt lat="28.534412" lon="98.79997">
<time>2016-10-07T11:45:23Z</time></trkpt>
<trkpt lat="28.534543" lon="98.80007">
<time>2016-10-07T11:45:24Z</time></trkpt>
<trkpt lat="28.534693" lon="98.8002">
<time>2016-10-07T11:45:25Z</time></trkpt>
<trkpt lat="28.534883" lon="98.80036">
<time>2016-10-07T11:45:26Z</time></trkpt>
<trkpt lat="28.535003" lon="98.800441">
<time>2016-10-07T11:45:27Z</time></trkpt>
<trkpt lat="28.535073" lon="98.800471">
<time>2016-10-07T11:45:28Z</time></trkpt>
<trkpt lat="28.535123" lon="98.800491">
<time>2016-10-07T11:45:29Z</time></trkpt>
<trkpt lat="28.535173" lon="98.800511">
<time>2016-10-07T11:45:30Z</time></trkpt>
<trkpt lat="28.535423" lon="98.800561">
<time>2016-10-07T11:45:31Z</time></trkpt>
<trkpt lat="28.535573" lon="98.800611">
<time>2016-10-07T11:45:32Z</time></trkpt>
<trkpt lat="28.535773" lon="98.800701">
<time>2016-10-07T11:45:33Z</time></trkpt>
<trkpt lat="28.535963" lon="98.800801">
<time>2016-10-07T11:45:34Z</time></trkpt>
<trkpt lat="28.536053" lon="98.800851">
<time>2016-10-07T11:45:35Z</time></trkpt>
<trkpt lat="28.536153" lon="98.800931">
<time>2016-10-07T11:45:36Z</time></trkpt>
<trkpt lat="28.536203" lon="98.801001">
<time>2016-10-07T11:45:37Z</time></trkpt>
<trkpt lat="28.536264" lon="98.801101">
<time>2016-10-07T11:45:38Z</time></trkpt>
<trkpt lat="28.536314" lon="98.801181">
<time>2016-10-07T11:45:39Z</time></trkpt>
<trkpt lat="28.536344" lon="98.801231">
<time>2016-10-07T11:45:40Z</time></trkpt>
<trkpt lat="28.536374" lon="98.801271">
<time>2016-10-07T11:45:41Z</time></trkpt>
<trkpt lat="28.536444" lon="98.801321">
<time>2016-10-07T11:45:42Z</time></trkpt>
<trkpt lat="28.536494" lon="98.801352">
<time>2016-10-07T11:45:43Z</time></trkpt>
<trkpt lat="28.536554" lon="98.801372">
<time>2016-10-07T11:45:44Z</time></trkpt>
<trkpt lat="28.536614" lon="98.801402">
<time>2016-10-07T11:45:45Z</time></trkpt>
<trkpt lat="28.536664" lon="98.801432">
<time>2016-10-07T11:45:46Z</time></trkpt>
<trkpt lat="28.536694" lon="98.801442">
<time>2016-10-07T11:45:47Z</time></trkpt>
<trkpt lat="28.536744" lon="98.801482">
<time>2016-10-07T11:45:48Z</time></trkpt>
<trkpt lat="28.536774" lon="98.801522">
<time>2016-10-07T11:45:49Z</time></trkpt>
<trkpt lat="28.536794" lon="98.801552">
<time>2016-10-07T11:45:50Z</time></trkpt>
<trkpt lat="28.536824" lon="98.801602">
<time>2016-10-07T11:45:51Z</time></trkpt>
<trkpt lat="28.536854" lon="98.801652">
<time>2016-10-07T11:45:52Z</time></trkpt>
<trkpt lat="28.536894" lon="98.801742">
<time>2016-10-07T11:45:53Z</time></trkpt>
<trkpt lat="28.536924" lon="98.801802">
<time>2016-10-07T11:45:54Z</time></trkpt>
<trkpt lat="28.536975" lon="98.801872">
<time>2016-10-07T11:45:55Z</time></trkpt>
<trkpt lat="28.537035" lon="98.801922">
<time>2016-10-07T11:45:56Z</time></trkpt>
<trkpt lat="28.537085" lon="98.801952">
<time>2016-10-07T11:45:57Z</time></trkpt>
<trkpt lat="28.537155" lon="98.801962">
<time>2016-10-07T11:45:58Z</time></trkpt>
<trkpt lat="28.537205" lon="98.801962">
<time>2016-10-07T11:45:59Z</time></trkpt>
<trkpt lat="28.537285" lon="98.801952">
<time>2016-10-07T11:46:00Z</time></trkpt>
<trkpt lat="28.537364" lon="98.801922">
<time>2016-10-07T11:46:01Z</time></trkpt>
<trkpt lat="28.537504" lon="98.801862">
<time>2016-10-07T11:46:02Z</time></trkpt>
<trkpt lat="28.537684" lon="98.801772">
<time>2016-10-07T11:46:03Z</time></trkpt>
<trkpt lat="28.537844" lon="98.801692">
<time>2016-10-07T11:46:04Z</time></trkpt>
<trkpt lat="28.537994" lon="98.801612">
<time>2016-10-07T11:46:05Z</time></trkpt>
<trkpt lat="28.538124" lon="98.801552">
<time>2016-10-07T11:46:06Z</time></trkpt>
<trkpt lat="28.538164" lon="98.801542">
<time>2016-10-07T11:46:07Z</time></trkpt>
<trkpt lat="28.538224" lon="98.801522">
<time>2016-10-07T11:46:08Z</time></trkpt>
<trkpt lat="28.538274" lon="98.801532">
<time>2016-10-07T11:46:09Z</time></trkpt>
<trkpt lat="28.538324" lon="98.801542">
<time>2016-10-07T11:46:10Z</time></trkpt>
<trkpt lat="28.538364" lon="98.801552">
<time>2016-10-07T11:46:11Z</time></trkpt>
<trkpt lat="28.538394" lon="98.801562">
<time>2016-10-07T11:46:12Z</time></trkpt>
<trkpt lat="28.538434" lon="98.801592">
<time>2016-10-07T11:46:13Z</time></trkpt>
<trkpt lat="28.538474" lon="98.801632">
<time>2016-10-07T11:46:14Z</time></trkpt>
<trkpt lat="28.538524" lon="98.801702">
<time>2016-10-07T11:46:15Z</time></trkpt>
<trkpt lat="28.538554" lon="98.801762">
<time>2016-10-07T11:46:16Z</time></trkpt>
<trkpt lat="28.538574" lon="98.801832">
<time>2016-10-07T11:46:17Z</time></trkpt>
<trkpt lat="28.538594" lon="98.801932">
<time>2016-10-07T11:46:18Z</time></trkpt>
<trkpt lat="28.538614" lon="98.802082">
<time>2016-10-07T11:46:19Z</time></trkpt>
<trkpt lat="28.538634" lon="98.802212">
<time>2016-10-07T11:46:20Z</time></trkpt>
<trkpt lat="28.538655" lon="98.802272">
<time>2016-10-07T11:46:21Z</time></trkpt>
<trkpt lat="28.538675" lon="98.802313">
<time>2016-10-07T11:46:22Z</time></trkpt>
<trkpt lat="28.538705" lon="98.802353">
<time>2016-10-07T11:46:23Z</time></trkpt>
<trkpt lat="28.538735" lon="98.802383">
<time>2016-10-07T11:46:24Z</time></trkpt>
<trkpt lat="28.538775" lon="98.802403">
<time>2016-10-07T11:46:25Z</time></trkpt>
<trkpt lat="28.538825" lon="98.802403">
<time>2016-10-07T11:46:26Z</time></trkpt>
<trkpt lat="28.538855" lon="98.802393">
<time>2016-10-07T11:46:27Z</time></trkpt>
<trkpt lat="28.538875" lon="98.802383">
<time>2016-10-07T11:46:28Z</time></trkpt>
<trkpt lat="28.538915" lon="98.802363">
<time>2016-10-07T11:46:29Z</time></trkpt>
<trkpt lat="28.538945" lon="98.802333">
<time>2016-10-07T11:46:30Z</time></trkpt>
<trkpt lat="28.538974" lon="98.802292">
<time>2016-10-07T11:46:31Z</time></trkpt>
<trkpt lat="28.538994" lon="98.802252">
<time>2016-10-07T11:46:32Z</time></trkpt>
<trkpt lat="28.539024" lon="98.802182">
<time>2016-10-07T11:46:33Z</time></trkpt>
<trkpt lat="28.539084" lon="98.802052">
<time>2016-10-07T11:46:34Z</time></trkpt>
<trkpt lat="28.539124" lon="98.801982">
<time>2016-10-07T11:46:35Z</time></trkpt>
<trkpt lat="28.539174" lon="98.801942">
<time>2016-10-07T11:46:36Z</time></trkpt>
<trkpt lat="28.539214" lon="98.801922">
<time>2016-10-07T11:46:37Z</time></trkpt>
<trkpt lat="28.539264" lon="98.801912">
<time>2016-10-07T11:46:38Z</time></trkpt>
<trkpt lat="28.539324" lon="98.801912">
<time>2016-10-07T11:46:39Z</time></trkpt>
<trkpt lat="28.539374" lon="98.801922">
<time>2016-10-07T11:46:40Z</time></trkpt>
<trkpt lat="28.539434" lon="98.801942">
<time>2016-10-07T11:46:41Z</time></trkpt>
<trkpt lat="28.539514" lon="98.801982">
<time>2016-10-07T11:46:42Z</time></trkpt>
<trkpt lat="28.539614" lon="98.802042">
<time>2016-10-07T11:46:43Z</time></trkpt>
<trkpt lat="28.539684" lon="98.802082">
<time>2016-10-07T11:46:44Z</time></trkpt>
<trkpt lat="28.539764" lon="98.802112">
<time>2016-10-07T11:46:45Z</time></trkpt>
<trkpt lat="28.539884" lon="98.802132">
<time>2016-10-07T11:46:46Z</time></trkpt>
<trkpt lat="28.539984" lon="98.802142">
<time>2016-10-07T11:46:47Z</time></trkpt>
<trkpt lat="28.540174" lon="98.802142">
<time>2016-10-07T11:46:48Z</time></trkpt>
<trkpt lat="28.540374" lon="98.802142">
<time>2016-10-07T11:46:49Z</time></trkpt>
<trkpt lat="28.540694" lon="98.802142">
<time>2016-10-07T11:46:50Z</time></trkpt>
<trkpt lat="28.540814" lon="98.802152">
<time>2016-10-07T11:46:51Z</time></trkpt>
<trkpt lat="28.540964" lon="98.802172">
<time>2016-10-07T11:46:52Z</time></trkpt>
<trkpt lat="28.541104" lon="98.802212">
<time>2016-10-07T11:46:53Z</time></trkpt>
<trkpt lat="28.541354" lon="98.802272">
<time>2016-10-07T11:46:54Z</time></trkpt>
<trkpt lat="28.541504" lon="98.802302">
<time>2016-10-07T11:46:55Z</time></trkpt>
<trkpt lat="28.541593" lon="98.802322">
<time>2016-10-07T11:46:56Z</time></trkpt>
<trkpt lat="28.541653" lon="98.802322">
<time>2016-10-07T11:46:57Z</time></trkpt>
<trkpt lat="28.541723" lon="98.802322">
<time>2016-10-07T11:46:58Z</time></trkpt>
<trkpt lat="28.541793" lon="98.802312">
<time>2016-10-07T11:46:59Z</time></trkpt>
<trkpt lat="28.541933" lon="98.802272">
<time>2016-10-07T11:47:00Z</time></trkpt>
<trkpt lat="28.542103" lon="98.802202">
<time>2016-10-07T11:47:01Z</time></trkpt>
<trkpt lat="28.542273" lon="98.802102">
<time>2016-10-07T11:47:02Z</time></trkpt>
<trkpt lat="28.542423" lon="98.802022">
<time>2016-10-07T11:47:03Z</time></trkpt>
<trkpt lat="28.542493" lon="98.801992">
<time>2016-10-07T11:47:04Z</time></trkpt>
<trkpt lat="28.542563" lon="98.801982">
<time>2016-10-07T11:47:05Z</time></trkpt>
<trkpt lat="28.542633" lon="98.801972">
<time>2016-10-07T11:47:06Z</time></trkpt>
<trkpt lat="28.542702" lon="98.801972">
<time>2016-10-07T11:47:07Z</time></trkpt>
<trkpt lat="28.542772" lon="98.801982">
<time>2016-10-07T11:47:08Z</time></trkpt>
<trkpt lat="28.542862" lon="98.801992">
<time>2016-10-07T11:47:09Z</time></trkpt>
<trkpt lat="28.542922" lon="98.801992">
<time>2016-10-07T11:47:10Z</time></trkpt>
<trkpt lat="28.543002" lon="98.801992">
<time>2016-10-07T11:47:11Z</time></trkpt>
<trkpt lat="28.543082" lon="98.801982">
<time>2016-10-07T11:47:12Z</time></trkpt>
<trkpt lat="28.543172" lon="98.801962">
<time>2016-10-07T11:47:13Z</time></trkpt>
<trkpt lat="28.543262" lon="98.801932">
<time>2016-10-07T11:47:14Z</time></trkpt>
<trkpt lat="28.543362" lon="98.801912">
<time>2016-10-07T11:47:15Z</time></trkpt>
<trkpt lat="28.543462" lon="98.801882">
<time>2016-10-07T11:47:16Z</time></trkpt>
<trkpt lat="28.543582" lon="98.801862">
<time>2016-10-07T11:47:17Z</time></trkpt>
<trkpt lat="28.543672" lon="98.801852">
<time>2016-10-07T11:47:18Z</time></trkpt>
<trkpt lat="28.543742" lon="98.801832">
<time>2016-10-07T11:47:19Z</time></trkpt>
<trkpt lat="28.543872" lon="98.801802">
<time>2016-10-07T11:47:20Z</time></trkpt>
<trkpt lat="28.543982" lon="98.801752">
<time>2016-10-07T11:47:21Z</time></trkpt>
<trkpt lat="28.544131" lon="98.801692">
<time>2016-10-07T11:47:22Z</time></trkpt>
<trkpt lat="28.544391" lon="98.801562">
<time>2016-10-07T11:47:23Z</time></trkpt>
<trkpt lat="28.544651" lon="98.801471">
<time>2016-10-07T11:47:24Z</time></trkpt>
<trkpt lat="28.544981" lon="98.801351">
<time>2016-10-07T11:47:25Z</time></trkpt>
<trkpt lat="28.54528" lon="98.801251">
<time>2016-10-07T11:47:26Z</time></trkpt>
<trkpt lat="28.54544" lon="98.801201">
<time>2016-10-07T11:47:27Z</time></trkpt>
<trkpt lat="28.54555" lon="98.801171">
<time>2016-10-07T11:47:28Z</time></trkpt>
<trkpt lat="28.54562" lon="98.801161">
<time>2016-10-07T11:47:29Z</time></trkpt>
<trkpt lat="28.54571" lon="98.801161">
<time>2016-10-07T11:47:30Z</time></trkpt>
<trkpt lat="28.54577" lon="98.801171">
<time>2016-10-07T11:47:31Z</time></trkpt>
<trkpt lat="28.54581" lon="98.801171">
<time>2016-10-07T11:47:32Z</time></trkpt>
<trkpt lat="28.54586" lon="98.801181">
<time>2016-10-07T11:47:33Z</time></trkpt>
<trkpt lat="28.54593" lon="98.801191">
<time>2016-10-07T11:47:34Z</time></trkpt>
<trkpt lat="28.546" lon="98.801201">
<time>2016-10-07T11:47:35Z</time></trkpt>
<trkpt lat="28.5461" lon="98.801201">
<time>2016-10-07T11:47:36Z</time></trkpt>
<trkpt lat="28.54617" lon="98.801191">
<time>2016-10-07T11:47:37Z</time></trkpt>
<trkpt lat="28.54622" lon="98.801181">
<time>2016-10-07T11:47:38Z</time></trkpt>
<trkpt lat="28.5463" lon="98.801161">
<time>2016-10-07T11:47:39Z</time></trkpt>
<trkpt lat="28.54637" lon="98.801131">
<time>2016-10-07T11:47:40Z</time></trkpt>
<trkpt lat="28.54646" lon="98.801081">
<time>2016-10-07T11:47:41Z</time></trkpt>
<trkpt lat="28.546559" lon="98.801021">
<time>2016-10-07T11:47:42Z</time></trkpt>
<trkpt lat="28.546709" lon="98.800941">
<time>2016-10-07T11:47:43Z</time></trkpt>
<trkpt lat="28.546799" lon="98.800901">
<time>2016-10-07T11:47:44Z</time></trkpt>
<trkpt lat="28.546989" lon="98.800811">
<time>2016-10-07T11:47:45Z</time></trkpt>
<trkpt lat="28.547159" lon="98.800741">
<time>2016-10-07T11:47:46Z</time></trkpt>
<trkpt lat="28.547269" lon="98.800701">
<time>2016-10-07T11:47:47Z</time></trkpt>
<trkpt lat="28.547408" lon="98.800651">
<time>2016-10-07T11:47:48Z</time></trkpt>
<trkpt lat="28.547538" lon="98.800621">
<time>2016-10-07T11:47:49Z</time></trkpt>
<trkpt lat="28.547708" lon="98.80059">
<time>2016-10-07T11:47:50Z</time></trkpt>
<trkpt lat="28.547928" lon="98.80055">
<time>2016-10-07T11:47:51Z</time></trkpt>
<trkpt lat="28.548008" lon="98.80055">
<time>2016-10-07T11:47:52Z</time></trkpt>
<trkpt lat="28.548068" lon="98.80054">
<time>2016-10-07T11:47:53Z</time></trkpt>
<trkpt lat="28.548118" lon="98.80054">
<time>2016-10-07T11:47:54Z</time></trkpt>
<trkpt lat="28.548168" lon="98.80055">
<time>2016-10-07T11:47:55Z</time></trkpt>
<trkpt lat="28.548218" lon="98.80056">
<time>2016-10-07T11:47:56Z</time></trkpt>
<trkpt lat="28.548268" lon="98.80057">
<time>2016-10-07T11:47:57Z</time></trkpt>
<trkpt lat="28.548328" lon="98.80059">
<time>2016-10-07T11:47:58Z</time></trkpt>
<trkpt lat="28.548448" lon="98.800651">
<time>2016-10-07T11:47:59Z</time></trkpt>
<trkpt lat="28.548578" lon="98.800721">
<time>2016-10-07T11:48:00Z</time></trkpt>
<trkpt lat="28.548648" lon="98.800751">
<time>2016-10-07T11:48:01Z</time></trkpt>
<trkpt lat="28.548698" lon="98.800771">
<time>2016-10-07T11:48:02Z</time></trkpt>
<trkpt lat="28.548728" lon="98.800781">
<time>2016-10-07T11:48:03Z</time></trkpt>
<trkpt lat="28.548778" lon="98.800791">
<time>2016-10-07T11:48:04Z</time></trkpt>
<trkpt lat="28.548858" lon="98.800801">
<time>2016-10-07T11:48:05Z</time></trkpt>
<trkpt lat="28.548908" lon="98.800791">
<time>2016-10-07T11:48:06Z</time></trkpt>
<trkpt lat="28.548948" lon="98.800791">
<time>2016-10-07T11:48:07Z</time></trkpt>
<trkpt lat="28.549008" lon="98.800781">
<time>2016-10-07T11:48:08Z</time></trkpt>
<trkpt lat="28.549058" lon="98.800771">
<time>2016-10-07T11:48:09Z</time></trkpt>
<trkpt lat="28.549268" lon="98.800711">
<time>2016-10-07T11:48:10Z</time></trkpt>
<trkpt lat="28.549458" lon="98.800661">
<time>2016-10-07T11:48:11Z</time></trkpt>
<trkpt lat="28.549508" lon="98.800641">
<time>2016-10-07T11:48:12Z</time></trkpt>
<trkpt lat="28.549578" lon="98.80062">
<time>2016-10-07T11:48:13Z</time></trkpt>
<trkpt lat="28.549647" lon="98.80061">
<time>2016-10-07T11:48:14Z</time></trkpt>
<trkpt lat="28.549687" lon="98.80061">
<time>2016-10-07T11:48:15Z</time></trkpt>
<trkpt lat="28.549777" lon="98.80061">
<time>2016-10-07T11:48:16Z</time></trkpt>
<trkpt lat="28.549857" lon="98.80063">
<time>2016-10-07T11:48:17Z</time></trkpt>
<trkpt lat="28.550087" lon="98.800681">
<time>2016-10-07T11:48:18Z</time></trkpt>
<trkpt lat="28.550217" lon="98.800711">
<time>2016-10-07T11:48:19Z</time></trkpt>
<trkpt lat="28.550267" lon="98.800721">
<time>2016-10-07T11:48:20Z</time></trkpt>
<trkpt lat="28.550307" lon="98.800731">
<time>2016-10-07T11:48:21Z</time></trkpt>
<trkpt lat="28.550337" lon="98.800741">
<time>2016-10-07T11:48:22Z</time></trkpt>
<trkpt lat="28.550367" lon="98.800751">
<time>2016-10-07T11:48:23Z</time></trkpt>
<trkpt lat="28.550397" lon="98.800771">
<time>2016-10-07T11:48:24Z</time></trkpt>
<trkpt lat="28.550407" lon="98.800791">
<time>2016-10-07T11:48:25Z</time></trkpt>
<trkpt lat="28.550428" lon="98.800811">
<time>2016-10-07T11:48:26Z</time></trkpt>
<trkpt lat="28.550438" lon="98.800831">
<time>2016-10-07T11:48:27Z</time></trkpt>
<trkpt lat="28.550458" lon="98.800851">
<time>2016-10-07T11:48:28Z</time></trkpt>
<trkpt lat="28.550468" lon="98.800881">
<time>2016-10-07T11:48:29Z</time></trkpt>
<trkpt lat="28.550498" lon="98.800941">
<time>2016-10-07T11:48:30Z</time></trkpt>
<trkpt lat="28.550508" lon="98.801001">
<time>2016-10-07T11:48:31Z</time></trkpt>
<trkpt lat="28.550518" lon="98.801091">
<time>2016-10-07T11:48:32Z</time></trkpt>
<trkpt lat="28.550518" lon="98.801171">
<time>2016-10-07T11:48:33Z</time></trkpt>
<trkpt lat="28.550528" lon="98.801261">
<time>2016-10-07T11:48:34Z</time></trkpt>
<trkpt lat="28.550548" lon="98.801361">
<time>2016-10-07T11:48:35Z</time></trkpt>
<trkpt lat="28.550568" lon="98.801421">
<time>2016-10-07T11:48:36Z</time></trkpt>
<trkpt lat="28.550609" lon="98.801501">
<time>2016-10-07T11:48:37Z</time></trkpt>
<trkpt lat="28.550659" lon="98.801551">
<time>2016-10-07T11:48:38Z</time></trkpt>
<trkpt lat="28.550699" lon="98.801592">
<time>2016-10-07T11:48:39Z</time></trkpt>
<trkpt lat="28.550769" lon="98.801642">
<time>2016-10-07T11:48:40Z</time></trkpt>
<trkpt lat="28.550839" lon="98.801692">
<time>2016-10-07T11:48:41Z</time></trkpt>
<trkpt lat="28.551059" lon="98.801852">
<time>2016-10-07T11:48:42Z</time></trkpt>
<trkpt lat="28.551219" lon="98.801972">
<time>2016-10-07T11:48:43Z</time></trkpt>
<trkpt lat="28.551289" lon="98.802042">
<time>2016-10-07T11:48:44Z</time></trkpt>
<trkpt lat="28.551319" lon="98.802082">
<time>2016-10-07T11:48:45Z</time></trkpt>
<trkpt lat="28.551389" lon="98.802182">
<time>2016-10-07T11:48:46Z</time></trkpt>
<trkpt lat="28.55146" lon="98.802302">
<time>2016-10-07T11:48:47Z</time></trkpt>
<trkpt lat="28.55157" lon="98.802563">
<time>2016-10-07T11:48:48Z</time></trkpt>
<trkpt lat="28.55161" lon="98.802653">
<time>2016-10-07T11:48:49Z</time></trkpt>
<trkpt lat="28.55165" lon="98.802753">
<time>2016-10-07T11:48:50Z</time></trkpt>
<trkpt lat="28.5517" lon="98.802883">
<time>2016-10-07T11:48:51Z</time></trkpt>
<trkpt lat="28.551751" lon="98.803003">
<time>2016-10-07T11:48:52Z</time></trkpt>
<trkpt lat="28.551801" lon="98.803153">
<time>2016-10-07T11:48:53Z</time></trkpt>
<trkpt lat="28.551861" lon="98.803363">
<time>2016-10-07T11:48:54Z</time></trkpt>
<trkpt lat="28.551901" lon="98.803514">
<time>2016-10-07T11:48:55Z</time></trkpt>
<trkpt lat="28.551982" lon="98.803794">
<time>2016-10-07T11:48:56Z</time></trkpt>
<trkpt lat="28.552012" lon="98.803894">
<time>2016-10-07T11:48:57Z</time></trkpt>
<trkpt lat="28.552042" lon="98.804014">
<time>2016-10-07T11:48:58Z</time></trkpt>
<trkpt lat="28.552072" lon="98.804134">
<time>2016-10-07T11:48:59Z</time></trkpt>
<trkpt lat="28.552123" lon="98.804305">
<time>2016-10-07T11:49:00Z</time></trkpt>
<trkpt lat="28.552143" lon="98.804415">
<time>2016-10-07T11:49:01Z</time></trkpt>
<trkpt lat="28.552173" lon="98.804525">
<time>2016-10-07T11:49:02Z</time></trkpt>
<trkpt lat="28.552243" lon="98.804805">
<time>2016-10-07T11:49:03Z</time></trkpt>
<trkpt lat="28.552294" lon="98.805025">
<time>2016-10-07T11:49:04Z</time></trkpt>
<trkpt lat="28.552365" lon="98.805586">
<time>2016-10-07T11:49:05Z</time></trkpt>
<trkpt lat="28.552405" lon="98.805796">
<time>2016-10-07T11:49:06Z</time></trkpt>
<trkpt lat="28.552435" lon="98.805896">
<time>2016-10-07T11:49:07Z</time></trkpt>
<trkpt lat="28.552455" lon="98.805956">
<time>2016-10-07T11:49:08Z</time></trkpt>
<trkpt lat="28.552485" lon="98.806006">
<time>2016-10-07T11:49:09Z</time></trkpt>
<trkpt lat="28.552736" lon="98.806387">
<time>2016-10-07T11:49:10Z</time></trkpt>
<trkpt lat="28.552816" lon="98.806497">
<time>2016-10-07T11:49:11Z</time></trkpt>
<trkpt lat="28.552886" lon="98.806587">
<time>2016-10-07T11:49:12Z</time></trkpt>
<trkpt lat="28.553016" lon="98.806717">
<time>2016-10-07T11:49:13Z</time></trkpt>
<trkpt lat="28.553857" lon="98.807588">
<time>2016-10-07T11:49:14Z</time></trkpt>
<trkpt lat="28.554118" lon="98.807789">
<time>2016-10-07T11:49:15Z</time></trkpt>
<trkpt lat="28.554398" lon="98.807919">
<time>2016-10-07T11:49:16Z</time></trkpt>
<trkpt lat="28.554998" lon="98.808189">
<time>2016-10-07T11:49:17Z</time></trkpt>
<trkpt lat="28.555688" lon="98.808489">
<time>2016-10-07T11:49:18Z</time></trkpt>
<trkpt lat="28.556128" lon="98.80869">
<time>2016-10-07T11:49:19Z</time></trkpt>
<trkpt lat="28.556249" lon="98.80875">
<time>2016-10-07T11:49:20Z</time></trkpt>
<trkpt lat="28.556309" lon="98.80879">
<time>2016-10-07T11:49:21Z</time></trkpt>
<trkpt lat="28.556369" lon="98.80884">
<time>2016-10-07T11:49:22Z</time></trkpt>
<trkpt lat="28.556419" lon="98.80889">
<time>2016-10-07T11:49:23Z</time></trkpt>
<trkpt lat="28.556459" lon="98.80895">
<time>2016-10-07T11:49:24Z</time></trkpt>
<trkpt lat="28.556549" lon="98.80911">
<time>2016-10-07T11:49:25Z</time></trkpt>
<trkpt lat="28.556649" lon="98.8093">
<time>2016-10-07T11:49:26Z</time></trkpt>
<trkpt lat="28.55678" lon="98.809541">
<time>2016-10-07T11:49:27Z</time></trkpt>
<trkpt lat="28.55684" lon="98.809631">
<time>2016-10-07T11:49:28Z</time></trkpt>
<trkpt lat="28.5569" lon="98.809681">
<time>2016-10-07T11:49:29Z</time></trkpt>
<trkpt lat="28.55694" lon="98.809701">
<time>2016-10-07T11:49:30Z</time></trkpt>
<trkpt lat="28.557" lon="98.809721">
<time>2016-10-07T11:49:31Z</time></trkpt>
<trkpt lat="28.55707" lon="98.809711">
<time>2016-10-07T11:49:32Z</time></trkpt>
<trkpt lat="28.55711" lon="98.809691">
<time>2016-10-07T11:49:33Z</time></trkpt>
<trkpt lat="28.5572" lon="98.809621">
<time>2016-10-07T11:49:34Z</time></trkpt>
<trkpt lat="28.55726" lon="98.809561">
<time>2016-10-07T11:49:35Z</time></trkpt>
<trkpt lat="28.557359" lon="98.809471">
<time>2016-10-07T11:49:36Z</time></trkpt>
<trkpt lat="28.557389" lon="98.80942">
<time>2016-10-07T11:49:37Z</time></trkpt>
<trkpt lat="28.557409" lon="98.80939">
<time>2016-10-07T11:49:38Z</time></trkpt>
<trkpt lat="28.557419" lon="98.80934">
<time>2016-10-07T11:49:39Z</time></trkpt>
<trkpt lat="28.557429" lon="98.8093">
<time>2016-10-07T11:49:40Z</time></trkpt>
<trkpt lat="28.557419" lon="98.80927">
<time>2016-10-07T11:49:41Z</time></trkpt>
<trkpt lat="28.557419" lon="98.80925">
<time>2016-10-07T11:49:42Z</time></trkpt>
<trkpt lat="28.557409" lon="98.80921">
<time>2016-10-07T11:49:43Z</time></trkpt>
<trkpt lat="28.557379" lon="98.80915">
<time>2016-10-07T11:49:44Z</time></trkpt>
<trkpt lat="28.557319" lon="98.80908">
<time>2016-10-07T11:49:45Z</time></trkpt>
<trkpt lat="28.557118" lon="98.8089">
<time>2016-10-07T11:49:46Z</time></trkpt>
<trkpt lat="28.556908" lon="98.80868">
<time>2016-10-07T11:49:47Z</time></trkpt>
<trkpt lat="28.556808" lon="98.808549">
<time>2016-10-07T11:49:48Z</time></trkpt>
<trkpt lat="28.556678" lon="98.808379">
<time>2016-10-07T11:49:49Z</time></trkpt>
<trkpt lat="28.556557" lon="98.808219">
<time>2016-10-07T11:49:50Z</time></trkpt>
<trkpt lat="28.556417" lon="98.808029">
<time>2016-10-07T11:49:51Z</time></trkpt>
<trkpt lat="28.556317" lon="98.807899">
<time>2016-10-07T11:49:52Z</time></trkpt>
<trkpt lat="28.556257" lon="98.807799">
<time>2016-10-07T11:49:53Z</time></trkpt>
<trkpt lat="28.556207" lon="98.807708">
<time>2016-10-07T11:49:54Z</time></trkpt>
<trkpt lat="28.556177" lon="98.807638">
<time>2016-10-07T11:49:55Z</time></trkpt>
<trkpt lat="28.556156" lon="98.807558">
<time>2016-10-07T11:49:56Z</time></trkpt>
<trkpt lat="28.556106" lon="98.807388">
<time>2016-10-07T11:49:57Z</time></trkpt>
<trkpt lat="28.556066" lon="98.807238">
<time>2016-10-07T11:49:58Z</time></trkpt>
<trkpt lat="28.555986" lon="98.807108">
<time>2016-10-07T11:49:59Z</time></trkpt>
<trkpt lat="28.555936" lon="98.807038">
<time>2016-10-07T11:50:00Z</time></trkpt>
<trkpt lat="28.555856" lon="98.806948">
<time>2016-10-07T11:50:01Z</time></trkpt>
<trkpt lat="28.555745" lon="98.806867">
<time>2016-10-07T11:50:02Z</time></trkpt>
<trkpt lat="28.555585" lon="98.806727">
<time>2016-10-07T11:50:03Z</time></trkpt>
<trkpt lat="28.555385" lon="98.806577">
<time>2016-10-07T11:50:04Z</time></trkpt>
<trkpt lat="28.555285" lon="98.806507">
<time>2016-10-07T11:50:05Z</time></trkpt>
<trkpt lat="28.555195" lon="98.806437">
<time>2016-10-07T11:50:06Z</time></trkpt>
<trkpt lat="28.555155" lon="98.806397">
<time>2016-10-07T11:50:07Z</time></trkpt>
<trkpt lat="28.555115" lon="98.806347">
<time>2016-10-07T11:50:08Z</time></trkpt>
<trkpt lat="28.555065" lon="98.806277">
<time>2016-10-07T11:50:09Z</time></trkpt>
<trkpt lat="28.554995" lon="98.806147">
<time>2016-10-07T11:50:10Z</time></trkpt>
<trkpt lat="28.554964" lon="98.806076">
<time>2016-10-07T11:50:11Z</time></trkpt>
<trkpt lat="28.554944" lon="98.805986">
<time>2016-10-07T11:50:12Z</time></trkpt>
<trkpt lat="28.554914" lon="98.805886">
<time>2016-10-07T11:50:13Z</time></trkpt>
<trkpt lat="28.554894" lon="98.805796">
<time>2016-10-07T11:50:14Z</time></trkpt>
<trkpt lat="28.554864" lon="98.805626">
<time>2016-10-07T11:50:15Z</time></trkpt>
<trkpt lat="28.554793" lon="98.805356">
<time>2016-10-07T11:50:16Z</time></trkpt>
<trkpt lat="28.554673" lon="98.804985">
<time>2016-10-07T11:50:17Z</time></trkpt>
<trkpt lat="28.554562" lon="98.804705">
<time>2016-10-07T11:50:18Z</time></trkpt>
<trkpt lat="28.554452" lon="98.804395">
<time>2016-10-07T11:50:19Z</time></trkpt>
<trkpt lat="28.554402" lon="98.804264">
<time>2016-10-07T11:50:20Z</time></trkpt>
<trkpt lat="28.554361" lon="98.804134">
<time>2016-10-07T11:50:21Z</time></trkpt>
<trkpt lat="28.554331" lon="98.804014">
<time>2016-10-07T11:50:22Z</time></trkpt>
<trkpt lat="28.554311" lon="98.803914">
<time>2016-10-07T11:50:23Z</time></trkpt>
<trkpt lat="28.554281" lon="98.803694">
<time>2016-10-07T11:50:24Z</time></trkpt>
<trkpt lat="28.55423" lon="98.803353">
<time>2016-10-07T11:50:25Z</time></trkpt>
<trkpt lat="28.55421" lon="98.803213">
<time>2016-10-07T11:50:26Z</time></trkpt>
<trkpt lat="28.55419" lon="98.803093">
<time>2016-10-07T11:50:27Z</time></trkpt>
<trkpt lat="28.554129" lon="98.802873">
<time>2016-10-07T11:50:28Z</time></trkpt>
<trkpt lat="28.554039" lon="98.802593">
<time>2016-10-07T11:50:29Z</time></trkpt>
<trkpt lat="28.553949" lon="98.802342">
<time>2016-10-07T11:50:30Z</time></trkpt>
<trkpt lat="28.553868" lon="98.802172">
<time>2016-10-07T11:50:31Z</time></trkpt>
<trkpt lat="28.553778" lon="98.801992">
<time>2016-10-07T11:50:32Z</time></trkpt>
<trkpt lat="28.553698" lon="98.801862">
<time>2016-10-07T11:50:33Z</time></trkpt>
<trkpt lat="28.553638" lon="98.801782">
<time>2016-10-07T11:50:34Z</time></trkpt>
<trkpt lat="28.553578" lon="98.801712">
<time>2016-10-07T11:50:35Z</time></trkpt>
<trkpt lat="28.553427" lon="98.801551">
<time>2016-10-07T11:50:36Z</time></trkpt>
<trkpt lat="28.553317" lon="98.801431">
<time>2016-10-07T11:50:37Z</time></trkpt>
<trkpt lat="28.553117" lon="98.801241">
<time>2016-10-07T11:50:38Z</time></trkpt>
<trkpt lat="28.553057" lon="98.801171">
<time>2016-10-07T11:50:39Z</time></trkpt>
<trkpt lat="28.552987" lon="98.801071">
<time>2016-10-07T11:50:40Z</time></trkpt>
<trkpt lat="28.552937" lon="98.800991">
<time>2016-10-07T11:50:41Z</time></trkpt>
<trkpt lat="28.552847" lon="98.800821">
<time>2016-10-07T11:50:42Z</time></trkpt>
<trkpt lat="28.552736" lon="98.80056">
<time>2016-10-07T11:50:43Z</time></trkpt>
<trkpt lat="28.552626" lon="98.80034">
<time>2016-10-07T11:50:44Z</time></trkpt>
<trkpt lat="28.552536" lon="98.80017">
<time>2016-10-07T11:50:45Z</time></trkpt>
<trkpt lat="28.552435" lon="98.8">
<time>2016-10-07T11:50:46Z</time></trkpt>
<trkpt lat="28.552375" lon="98.7999">
<time>2016-10-07T11:50:47Z</time></trkpt>
<trkpt lat="28.552305" lon="98.79979">
<time>2016-10-07T11:50:48Z</time></trkpt>
<trkpt lat="28.552245" lon="98.799689">
<time>2016-10-07T11:50:49Z</time></trkpt>
<trkpt lat="28.552185" lon="98.799589">
<time>2016-10-07T11:50:50Z</time></trkpt>
<trkpt lat="28.552085" lon="98.799389">
<time>2016-10-07T11:50:51Z</time></trkpt>
<trkpt lat="28.551994" lon="98.799189">
<time>2016-10-07T11:50:52Z</time></trkpt>
<trkpt lat="28.551904" lon="98.799009">
<time>2016-10-07T11:50:53Z</time></trkpt>
<trkpt lat="28.551814" lon="98.798839">
<time>2016-10-07T11:50:54Z</time></trkpt>
<trkpt lat="28.551714" lon="98.798658">
<time>2016-10-07T11:50:55Z</time></trkpt>
<trkpt lat="28.551413" lon="98.798238">
<time>2016-10-07T11:50:56Z</time></trkpt>
<trkpt lat="28.551303" lon="98.798058">
<time>2016-10-07T11:50:57Z</time></trkpt>
<trkpt lat="28.551203" lon="98.797878">
<time>2016-10-07T11:50:58Z</time></trkpt>
<trkpt lat="28.551112" lon="98.797687">
<time>2016-10-07T11:50:59Z</time></trkpt>
<trkpt lat="28.551022" lon="98.797497">
<time>2016-10-07T11:51:00Z</time></trkpt>
<trkpt lat="28.550922" lon="98.797287">
<time>2016-10-07T11:51:01Z</time></trkpt>
<trkpt lat="28.550862" lon="98.797197">
<time>2016-10-07T11:51:02Z</time></trkpt>
<trkpt lat="28.550792" lon="98.797107">
<time>2016-10-07T11:51:03Z</time></trkpt>
<trkpt lat="28.550731" lon="98.797047">
<time>2016-10-07T11:51:04Z</time></trkpt>
<trkpt lat="28.550661" lon="98.796987">
<time>2016-10-07T11:51:05Z</time></trkpt>
<trkpt lat="28.550511" lon="98.796867">
<time>2016-10-07T11:51:06Z</time></trkpt>
<trkpt lat="28.550331" lon="98.796747">
<time>2016-10-07T11:51:07Z</time></trkpt>
<trkpt lat="28.550151" lon="98.796656">
<time>2016-10-07T11:51:08Z</time></trkpt>
<trkpt lat="28.550001" lon="98.796586">
<time>2016-10-07T11:51:09Z</time></trkpt>
<trkpt lat="28.549891" lon="98.796556">
<time>2016-10-07T11:51:10Z</time></trkpt>
<trkpt lat="28.549761" lon="98.796526">
<time>2016-10-07T11:51:11Z</time></trkpt>
<trkpt lat="28.549441" lon="98.796466">
<time>2016-10-07T11:51:12Z</time></trkpt>
<trkpt lat="28.549331" lon="98.796446">
<time>2016-10-07T11:51:13Z</time></trkpt>
<trkpt lat="28.549221" lon="98.796436">
<time>2016-10-07T11:51:14Z</time></trkpt>
<trkpt lat="28.549101" lon="98.796446">
<time>2016-10-07T11:51:15Z</time></trkpt>
<trkpt lat="28.548931" lon="98.796496">
<time>2016-10-07T11:51:16Z</time></trkpt>
<trkpt lat="28.548702" lon="98.796586">
<time>2016-10-07T11:51:17Z</time></trkpt>
<trkpt lat="28.548412" lon="98.796697">
<time>2016-10-07T11:51:18Z</time></trkpt>
<trkpt lat="28.548152" lon="98.796797">
<time>2016-10-07T11:51:19Z</time></trkpt>
<trkpt lat="28.548012" lon="98.796847">
<time>2016-10-07T11:51:20Z</time></trkpt>
<trkpt lat="28.547892" lon="98.796897">
<time>2016-10-07T11:51:21Z</time></trkpt>
<trkpt lat="28.547792" lon="98.796937">
<time>2016-10-07T11:51:22Z</time></trkpt>
<trkpt lat="28.547703" lon="98.796967">
<time>2016-10-07T11:51:23Z</time></trkpt>
<trkpt lat="28.547603" lon="98.796987">
<time>2016-10-07T11:51:24Z</time></trkpt>
<trkpt lat="28.547513" lon="98.796987">
<time>2016-10-07T11:51:25Z</time></trkpt>
<trkpt lat="28.547413" lon="98.796957">
<time>2016-10-07T11:51:26Z</time></trkpt>
<trkpt lat="28.547253" lon="98.796907">
<time>2016-10-07T11:51:27Z</time></trkpt>
<trkpt lat="28.547113" lon="98.796887">
<time>2016-10-07T11:51:28Z</time></trkpt>
<trkpt lat="28.546993" lon="98.796877">
<time>2016-10-07T11:51:29Z</time></trkpt>
<trkpt lat="28.546883" lon="98.796877">
<time>2016-10-07T11:51:30Z</time></trkpt>
<trkpt lat="28.546513" lon="98.796927">
<time>2016-10-07T11:51:31Z</time></trkpt>
<trkpt lat="28.546443" lon="98.796947">
<time>2016-10-07T11:51:32Z</time></trkpt>
<trkpt lat="28.546103" lon="98.796997">
<time>2016-10-07T11:51:33Z</time></trkpt>
<trkpt lat="28.545783" lon="98.797047">
<time>2016-10-07T11:51:34Z</time></trkpt>
<trkpt lat="28.545693" lon="98.797057">
<time>2016-10-07T11:51:35Z</time></trkpt>
<trkpt lat="28.545584" lon="98.797067">
<time>2016-10-07T11:51:36Z</time></trkpt>
<trkpt lat="28.545544" lon="98.797077">
<time>2016-10-07T11:51:37Z</time></trkpt>
<trkpt lat="28.545484" lon="98.797067">
<time>2016-10-07T11:51:38Z</time></trkpt>
<trkpt lat="28.545444" lon="98.797057">
<time>2016-10-07T11:51:39Z</time></trkpt>
<trkpt lat="28.545394" lon="98.797037">
<time>2016-10-07T11:51:40Z</time></trkpt>
<trkpt lat="28.545334" lon="98.796997">
<time>2016-10-07T11:51:41Z</time></trkpt>
<trkpt lat="28.545314" lon="98.796967">
<time>2016-10-07T11:51:42Z</time></trkpt>
<trkpt lat="28.545283" lon="98.796937">
<time>2016-10-07T11:51:43Z</time></trkpt>
<trkpt lat="28.545263" lon="98.796877">
<time>2016-10-07T11:51:44Z</time></trkpt>
<trkpt lat="28.545253" lon="98.796837">
<time>2016-10-07T11:51:45Z</time></trkpt>
<trkpt lat="28.545233" lon="98.796787">
<time>2016-10-07T11:51:46Z</time></trkpt>
<trkpt lat="28.545233" lon="98.796687">
<time>2016-10-07T11:51:47Z</time></trkpt>
<trkpt lat="28.545243" lon="98.796596">
<time>2016-10-07T11:51:48Z</time></trkpt>
<trkpt lat="28.545263" lon="98.796496">
<time>2016-10-07T11:51:49Z</time></trkpt>
<trkpt lat="28.545283" lon="98.796436">
<time>2016-10-07T11:51:50Z</time></trkpt>
<trkpt lat="28.545323" lon="98.796376">
<time>2016-10-07T11:51:51Z</time></trkpt>
<trkpt lat="28.545402" lon="98.796296">
<time>2016-10-07T11:51:52Z</time></trkpt>
<trkpt lat="28.545502" lon="98.796236">
<time>2016-10-07T11:51:53Z</time></trkpt>
<trkpt lat="28.545652" lon="98.796176">
<time>2016-10-07T11:51:54Z</time></trkpt>
<trkpt lat="28.545722" lon="98.796136">
<time>2016-10-07T11:51:55Z</time></trkpt>
<trkpt lat="28.545842" lon="98.796066">
<time>2016-10-07T11:51:56Z</time></trkpt>
<trkpt lat="28.545902" lon="98.796016">
<time>2016-10-07T11:51:57Z</time></trkpt>
<trkpt lat="28.545942" lon="98.795976">
<time>2016-10-07T11:51:58Z</time></trkpt>
<trkpt lat="28.545992" lon="98.795896">
<time>2016-10-07T11:51:59Z</time></trkpt>
<trkpt lat="28.546031" lon="98.795816">
<time>2016-10-07T11:52:00Z</time></trkpt>
<trkpt lat="28.546091" lon="98.795706">
<time>2016-10-07T11:52:01Z</time></trkpt>
<trkpt lat="28.546141" lon="98.795585">
<time>2016-10-07T11:52:02Z</time></trkpt>
<trkpt lat="28.546171" lon="98.795465">
<time>2016-10-07T11:52:03Z</time></trkpt>
<trkpt lat="28.546181" lon="98.795365">
<time>2016-10-07T11:52:04Z</time></trkpt>
<trkpt lat="28.546191" lon="98.795275">
<time>2016-10-07T11:52:05Z</time></trkpt>
<trkpt lat="28.546211" lon="98.795225">
<time>2016-10-07T11:52:06Z</time></trkpt>
<trkpt lat="28.54624" lon="98.795175">
<time>2016-10-07T11:52:07Z</time></trkpt>
<trkpt lat="28.54628" lon="98.795115">
<time>2016-10-07T11:52:08Z</time></trkpt>
<trkpt lat="28.54633" lon="98.795055">
<time>2016-10-07T11:52:09Z</time></trkpt>
<trkpt lat="28.54638" lon="98.794975">
<time>2016-10-07T11:52:10Z</time></trkpt>
<trkpt lat="28.54641" lon="98.794915">
<time>2016-10-07T11:52:11Z</time></trkpt>
<trkpt lat="28.54643" lon="98.794855">
<time>2016-10-07T11:52:12Z</time></trkpt>
<trkpt lat="28.54644" lon="98.794775">
<time>2016-10-07T11:52:13Z</time></trkpt>
<trkpt lat="28.54645" lon="98.794705">
<time>2016-10-07T11:52:14Z</time></trkpt>
<trkpt lat="28.546449" lon="98.794555">
<time>2016-10-07T11:52:15Z</time></trkpt>
<trkpt lat="28.546449" lon="98.794354">
<time>2016-10-07T11:52:16Z</time></trkpt>
<trkpt lat="28.546439" lon="98.794164">
<time>2016-10-07T11:52:17Z</time></trkpt>
<trkpt lat="28.546449" lon="98.794054">
<time>2016-10-07T11:52:18Z</time></trkpt>
<trkpt lat="28.546459" lon="98.793984">
<time>2016-10-07T11:52:19Z</time></trkpt>
<trkpt lat="28.546488" lon="98.793924">
<time>2016-10-07T11:52:20Z</time></trkpt>
<trkpt lat="28.546538" lon="98.793844">
<time>2016-10-07T11:52:21Z</time></trkpt>
<trkpt lat="28.546578" lon="98.793774">
<time>2016-10-07T11:52:22Z</time></trkpt>
<trkpt lat="28.546628" lon="98.793724">
<time>2016-10-07T11:52:23Z</time></trkpt>
<trkpt lat="28.546698" lon="98.793644">
<time>2016-10-07T11:52:24Z</time></trkpt>
<trkpt lat="28.546788" lon="98.793564">
<time>2016-10-07T11:52:25Z</time></trkpt>
<trkpt lat="28.546878" lon="98.793494">
<time>2016-10-07T11:52:26Z</time></trkpt>
<trkpt lat="28.546958" lon="98.793454">
<time>2016-10-07T11:52:27Z</time></trkpt>
<trkpt lat="28.547018" lon="98.793423">
<time>2016-10-07T11:52:28Z</time></trkpt>
<trkpt lat="28.547087" lon="98.793413">
<time>2016-10-07T11:52:29Z</time></trkpt>
<trkpt lat="28.547177" lon="98.793403">
<time>2016-10-07T11:52:30Z</time></trkpt>
<trkpt lat="28.547357" lon="98.793383">
<time>2016-10-07T11:52:31Z</time></trkpt>
<trkpt lat="28.547467" lon="98.793383">
<time>2016-10-07T11:52:32Z</time></trkpt>
<trkpt lat="28.547547" lon="98.793403">
<time>2016-10-07T11:52:33Z</time></trkpt>
<trkpt lat="28.547757" lon="98.793464">
<time>2016-10-07T11:52:34Z</time></trkpt>
<trkpt lat="28.547907" lon="98.793504">
<time>2016-10-07T11:52:35Z</time></trkpt>
<trkpt lat="28.548007" lon="98.793524">
<time>2016-10-07T11:52:36Z</time></trkpt>
<trkpt lat="28.548127" lon="98.793534">
<time>2016-10-07T11:52:37Z</time></trkpt>
<trkpt lat="28.548217" lon="98.793524">
<time>2016-10-07T11:52:38Z</time></trkpt>
<trkpt lat="28.548277" lon="98.793524">
<time>2016-10-07T11:52:39Z</time></trkpt>
<trkpt lat="28.548427" lon="98.793473">
<time>2016-10-07T11:52:40Z</time></trkpt>
<trkpt lat="28.548557" lon="98.793413">
<time>2016-10-07T11:52:41Z</time></trkpt>
<trkpt lat="28.548956" lon="98.793203">
<time>2016-10-07T11:52:42Z</time></trkpt>
<trkpt lat="28.549216" lon="98.793063">
<time>2016-10-07T11:52:43Z</time></trkpt>
<trkpt lat="28.549466" lon="98.792913">
<time>2016-10-07T11:52:44Z</time></trkpt>
<trkpt lat="28.549685" lon="98.792753">
<time>2016-10-07T11:52:45Z</time></trkpt>
<trkpt lat="28.549895" lon="98.792583">
<time>2016-10-07T11:52:46Z</time></trkpt>
<trkpt lat="28.550015" lon="98.792493">
<time>2016-10-07T11:52:47Z</time></trkpt>
<trkpt lat="28.550105" lon="98.792433">
<time>2016-10-07T11:52:48Z</time></trkpt>
<trkpt lat="28.550335" lon="98.792292">
<time>2016-10-07T11:52:49Z</time></trkpt>
<trkpt lat="28.550764" lon="98.792002">
<time>2016-10-07T11:52:50Z</time></trkpt>
<trkpt lat="28.550984" lon="98.791832">
<time>2016-10-07T11:52:51Z</time></trkpt>
<trkpt lat="28.551293" lon="98.791562">
<time>2016-10-07T11:52:52Z</time></trkpt>
<trkpt lat="28.551553" lon="98.791352">
<time>2016-10-07T11:52:53Z</time></trkpt>
<trkpt lat="28.551822" lon="98.791111">
<time>2016-10-07T11:52:54Z</time></trkpt>
<trkpt lat="28.552042" lon="98.790921">
<time>2016-10-07T11:52:55Z</time></trkpt>
<trkpt lat="28.552312" lon="98.790691">
<time>2016-10-07T11:52:56Z</time></trkpt>
<trkpt lat="28.552621" lon="98.790431">
<time>2016-10-07T11:52:57Z</time></trkpt>
<trkpt lat="28.552931" lon="98.790171">
<time>2016-10-07T11:52:58Z</time></trkpt>
<trkpt lat="28.55307" lon="98.790061">
<time>2016-10-07T11:52:59Z</time></trkpt>
<trkpt lat="28.55317" lon="98.78998">
<time>2016-10-07T11:53:00Z</time></trkpt>
<trkpt lat="28.55337" lon="98.78986">
<time>2016-10-07T11:53:01Z</time></trkpt>
<trkpt lat="28.55353" lon="98.78978">
<time>2016-10-07T11:53:02Z</time></trkpt>
<trkpt lat="28.55365" lon="98.78973">
<time>2016-10-07T11:53:03Z</time></trkpt>
<trkpt lat="28.55374" lon="98.7897">
<time>2016-10-07T11:53:04Z</time></trkpt>
<trkpt lat="28.553929" lon="98.78964">
<time>2016-10-07T11:53:05Z</time></trkpt>
<trkpt lat="28.554199" lon="98.78958">
<time>2016-10-07T11:53:06Z</time></trkpt>
<trkpt lat="28.554449" lon="98.78954">
<time>2016-10-07T11:53:07Z</time></trkpt>
<trkpt lat="28.554749" lon="98.78952">
<time>2016-10-07T11:53:08Z</time></trkpt>
<trkpt lat="28.554829" lon="98.78951">
<time>2016-10-07T11:53:09Z</time></trkpt>
<trkpt lat="28.554939" lon="98.78949">
<time>2016-10-07T11:53:10Z</time></trkpt>
<trkpt lat="28.555069" lon="98.78945">
<time>2016-10-07T11:53:11Z</time></trkpt>
<trkpt lat="28.555199" lon="98.7894">
<time>2016-10-07T11:53:12Z</time></trkpt>
<trkpt lat="28.555278" lon="98.78935">
<time>2016-10-07T11:53:13Z</time></trkpt>
<trkpt lat="28.555528" lon="98.78921">
<time>2016-10-07T11:53:14Z</time></trkpt>
<trkpt lat="28.555648" lon="98.78914">
<time>2016-10-07T11:53:15Z</time></trkpt>
<trkpt lat="28.555918" lon="98.78903">
<time>2016-10-07T11:53:16Z</time></trkpt>
<trkpt lat="28.556168" lon="98.78892">
<time>2016-10-07T11:53:17Z</time></trkpt>
<trkpt lat="28.556347" lon="98.788819">
<time>2016-10-07T11:53:18Z</time></trkpt>
<trkpt lat="28.556477" lon="98.788739">
<time>2016-10-07T11:53:19Z</time></trkpt>
<trkpt lat="28.556757" lon="98.788579">
<time>2016-10-07T11:53:20Z</time></trkpt>
<trkpt lat="28.556957" lon="98.788489">
<time>2016-10-07T11:53:21Z</time></trkpt>
<trkpt lat="28.557096" lon="98.788439">
<time>2016-10-07T11:53:22Z</time></trkpt>
<trkpt lat="28.557396" lon="98.788299">
<time>2016-10-07T11:53:23Z</time></trkpt>
<trkpt lat="28.557716" lon="98.788119">
<time>2016-10-07T11:53:24Z</time></trkpt>
<trkpt lat="28.558135" lon="98.787889">
<time>2016-10-07T11:53:25Z</time></trkpt>
<trkpt lat="28.558585" lon="98.787639">
<time>2016-10-07T11:53:26Z</time></trkpt>
<trkpt lat="28.558745" lon="98.787538">
<time>2016-10-07T11:53:27Z</time></trkpt>
<trkpt lat="28.558835" lon="98.787478">
<time>2016-10-07T11:53:28Z</time></trkpt>
<trkpt lat="28.558964" lon="98.787398">
<time>2016-10-07T11:53:29Z</time></trkpt>
<trkpt lat="28.559104" lon="98.787268">
<time>2016-10-07T11:53:30Z</time></trkpt>
<trkpt lat="28.559234" lon="98.787158">
<time>2016-10-07T11:53:31Z</time></trkpt>
<trkpt lat="28.559364" lon="98.787058">
<time>2016-10-07T11:53:32Z</time></trkpt>
<trkpt lat="28.559444" lon="98.786998">
<time>2016-10-07T11:53:33Z</time></trkpt>
<trkpt lat="28.559613" lon="98.786908">
<time>2016-10-07T11:53:34Z</time></trkpt>
<trkpt lat="28.559863" lon="98.786778">
<time>2016-10-07T11:53:35Z</time></trkpt>
<trkpt lat="28.560043" lon="98.786658">
<time>2016-10-07T11:53:36Z</time></trkpt>
<trkpt lat="28.560303" lon="98.786458">
<time>2016-10-07T11:53:37Z</time></trkpt>
<trkpt lat="28.560722" lon="98.786117">
<time>2016-10-07T11:53:38Z</time></trkpt>
<trkpt lat="28.561161" lon="98.785757">
<time>2016-10-07T11:53:39Z</time></trkpt>
<trkpt lat="28.561241" lon="98.785697">
<time>2016-10-07T11:53:40Z</time></trkpt>
<trkpt lat="28.561331" lon="98.785647">
<time>2016-10-07T11:53:41Z</time></trkpt>
<trkpt lat="28.561581" lon="98.785517">
<time>2016-10-07T11:53:42Z</time></trkpt>
<trkpt lat="28.561781" lon="98.785437">
<time>2016-10-07T11:53:43Z</time></trkpt>
<trkpt lat="28.56199" lon="98.785347">
<time>2016-10-07T11:53:44Z</time></trkpt>
<trkpt lat="28.56217" lon="98.785247">
<time>2016-10-07T11:53:45Z</time></trkpt>
<trkpt lat="28.56233" lon="98.785157">
<time>2016-10-07T11:53:46Z</time></trkpt>
<trkpt lat="28.56266" lon="98.784967">
<time>2016-10-07T11:53:47Z</time></trkpt>
<trkpt lat="28.562979" lon="98.784807">
<time>2016-10-07T11:53:48Z</time></trkpt>
<trkpt lat="28.563279" lon="98.784676">
<time>2016-10-07T11:53:49Z</time></trkpt>
<trkpt lat="28.563609" lon="98.784556">
<time>2016-10-07T11:53:50Z</time></trkpt>
<trkpt lat="28.563909" lon="98.784436">
<time>2016-10-07T11:53:51Z</time></trkpt>
<trkpt lat="28.564278" lon="98.784266">
<time>2016-10-07T11:53:52Z</time></trkpt>
<trkpt lat="28.564498" lon="98.784166">
<time>2016-10-07T11:53:53Z</time></trkpt>
<trkpt lat="28.564648" lon="98.784126">
<time>2016-10-07T11:53:54Z</time></trkpt>
<trkpt lat="28.564748" lon="98.784096">
<time>2016-10-07T11:53:55Z</time></trkpt>
<trkpt lat="28.564898" lon="98.784066">
<time>2016-10-07T11:53:56Z</time></trkpt>
<trkpt lat="28.565088" lon="98.784026">
<time>2016-10-07T11:53:57Z</time></trkpt>
<trkpt lat="28.565337" lon="98.783976">
<time>2016-10-07T11:53:58Z</time></trkpt>
<trkpt lat="28.565997" lon="98.783856">
<time>2016-10-07T11:53:59Z</time></trkpt>
<trkpt lat="28.566357" lon="98.783766">
<time>2016-10-07T11:54:00Z</time></trkpt>
<trkpt lat="28.566776" lon="98.783646">
<time>2016-10-07T11:54:01Z</time></trkpt>
<trkpt lat="28.567096" lon="98.783526">
<time>2016-10-07T11:54:02Z</time></trkpt>
<trkpt lat="28.567356" lon="98.783426">
<time>2016-10-07T11:54:03Z</time></trkpt>
<trkpt lat="28.567536" lon="98.783366">
<time>2016-10-07T11:54:04Z</time></trkpt>
<trkpt lat="28.567746" lon="98.783286">
<time>2016-10-07T11:54:05Z</time></trkpt>
<trkpt lat="28.567915" lon="98.783215">
<time>2016-10-07T11:54:06Z</time></trkpt>
<trkpt lat="28.568125" lon="98.783155">
<time>2016-10-07T11:54:07Z</time></trkpt>
<trkpt lat="28.568345" lon="98.783105">
<time>2016-10-07T11:54:08Z</time></trkpt>
<trkpt lat="28.568595" lon="98.783085">
<time>2016-10-07T11:54:09Z</time></trkpt>
<trkpt lat="28.568845" lon="98.783095">
<time>2016-10-07T11:54:10Z</time></trkpt>
<trkpt lat="28.569655" lon="98.783205">
<time>2016-10-07T11:54:11Z</time></trkpt>
<trkpt lat="28.570015" lon="98.783255">
<time>2016-10-07T11:54:12Z</time></trkpt>
<trkpt lat="28.570534" lon="98.783325">
<time>2016-10-07T11:54:13Z</time></trkpt>
<trkpt lat="28.570894" lon="98.783396">
<time>2016-10-07T11:54:14Z</time></trkpt>
<trkpt lat="28.571004" lon="98.783416">
<time>2016-10-07T11:54:15Z</time></trkpt>
<trkpt lat="28.571124" lon="98.783466">
<time>2016-10-07T11:54:16Z</time></trkpt>
<trkpt lat="28.571224" lon="98.783506">
<time>2016-10-07T11:54:17Z</time></trkpt>
<trkpt lat="28.571424" lon="98.783626">
<time>2016-10-07T11:54:18Z</time></trkpt>
<trkpt lat="28.571584" lon="98.783736">
<time>2016-10-07T11:54:19Z</time></trkpt>
<trkpt lat="28.571744" lon="98.783846">
<time>2016-10-07T11:54:20Z</time></trkpt>
<trkpt lat="28.571885" lon="98.783926">
<time>2016-10-07T11:54:21Z</time></trkpt>
<trkpt lat="28.571955" lon="98.783956">
<time>2016-10-07T11:54:22Z</time></trkpt>
<trkpt lat="28.572035" lon="98.783986">
<time>2016-10-07T11:54:23Z</time></trkpt>
<trkpt lat="28.572125" lon="98.784006">
<time>2016-10-07T11:54:24Z</time></trkpt>
<trkpt lat="28.572224" lon="98.784026">
<time>2016-10-07T11:54:25Z</time></trkpt>
<trkpt lat="28.572344" lon="98.784036">
<time>2016-10-07T11:54:26Z</time></trkpt>
<trkpt lat="28.572514" lon="98.784036">
<time>2016-10-07T11:54:27Z</time></trkpt>
<trkpt lat="28.572654" lon="98.784046">
<time>2016-10-07T11:54:28Z</time></trkpt>
<trkpt lat="28.572764" lon="98.784046">
<time>2016-10-07T11:54:29Z</time></trkpt>
<trkpt lat="28.572964" lon="98.784026">
<time>2016-10-07T11:54:30Z</time></trkpt>
<trkpt lat="28.573054" lon="98.784016">
<time>2016-10-07T11:54:31Z</time></trkpt>
<trkpt lat="28.573104" lon="98.784006">
<time>2016-10-07T11:54:32Z</time></trkpt>
<trkpt lat="28.573184" lon="98.783986">
<time>2016-10-07T11:54:33Z</time></trkpt>
<trkpt lat="28.573274" lon="98.783966">
<time>2016-10-07T11:54:34Z</time></trkpt>
<trkpt lat="28.573464" lon="98.783896">
<time>2016-10-07T11:54:35Z</time></trkpt>
<trkpt lat="28.573584" lon="98.783846">
<time>2016-10-07T11:54:36Z</time></trkpt>
<trkpt lat="28.573664" lon="98.783796">
<time>2016-10-07T11:54:37Z</time></trkpt>
<trkpt lat="28.573933" lon="98.783646">
<time>2016-10-07T11:54:38Z</time></trkpt>
<trkpt lat="28.574133" lon="98.783536">
<time>2016-10-07T11:54:39Z</time></trkpt>
<trkpt lat="28.574363" lon="98.783405">
<time>2016-10-07T11:54:40Z</time></trkpt>
<trkpt lat="28.574543" lon="98.783295">
<time>2016-10-07T11:54:41Z</time></trkpt>
<trkpt lat="28.574672" lon="98.783205">
<time>2016-10-07T11:54:42Z</time></trkpt>
<trkpt lat="28.574812" lon="98.783105">
<time>2016-10-07T11:54:43Z</time></trkpt>
<trkpt lat="28.574972" lon="98.782955">
<time>2016-10-07T11:54:44Z</time></trkpt>
<trkpt lat="28.575132" lon="98.782785">
<time>2016-10-07T11:54:45Z</time></trkpt>
<trkpt lat="28.575311" lon="98.782595">
<time>2016-10-07T11:54:46Z</time></trkpt>
<trkpt lat="28.575381" lon="98.782505">
<time>2016-10-07T11:54:47Z</time></trkpt>
<trkpt lat="28.575441" lon="98.782415">
<time>2016-10-07T11:54:48Z</time></trkpt>
<trkpt lat="28.575511" lon="98.782275">
<time>2016-10-07T11:54:49Z</time></trkpt>
<trkpt lat="28.575561" lon="98.782175">
<time>2016-10-07T11:54:50Z</time></trkpt>
<trkpt lat="28.5757" lon="98.781835">
<time>2016-10-07T11:54:51Z</time></trkpt>
<trkpt lat="28.57581" lon="98.781514">
<time>2016-10-07T11:54:52Z</time></trkpt>
<trkpt lat="28.57589" lon="98.781234">
<time>2016-10-07T11:54:53Z</time></trkpt>
<trkpt lat="28.575989" lon="98.780864">
<time>2016-10-07T11:54:54Z</time></trkpt>
<trkpt lat="28.576059" lon="98.780664">
<time>2016-10-07T11:54:55Z</time></trkpt>
<trkpt lat="28.576119" lon="98.780494">
<time>2016-10-07T11:54:56Z</time></trkpt>
<trkpt lat="28.576179" lon="98.780344">
<time>2016-10-07T11:54:57Z</time></trkpt>
<trkpt lat="28.576228" lon="98.780254">
<time>2016-10-07T11:54:58Z</time></trkpt>
<trkpt lat="28.576308" lon="98.780114">
<time>2016-10-07T11:54:59Z</time></trkpt>
<trkpt lat="28.576368" lon="98.780024">
<time>2016-10-07T11:55:00Z</time></trkpt>
<trkpt lat="28.576518" lon="98.779804">
<time>2016-10-07T11:55:01Z</time></trkpt>
<trkpt lat="28.576628" lon="98.779673">
<time>2016-10-07T11:55:02Z</time></trkpt>
<trkpt lat="28.576707" lon="98.779593">
<time>2016-10-07T11:55:03Z</time></trkpt>
<trkpt lat="28.576827" lon="98.779473">
<time>2016-10-07T11:55:04Z</time></trkpt>
<trkpt lat="28.577097" lon="98.779203">
<time>2016-10-07T11:55:05Z</time></trkpt>
<trkpt lat="28.577317" lon="98.779013">
<time>2016-10-07T11:55:06Z</time></trkpt>
<trkpt lat="28.577446" lon="98.778903">
<time>2016-10-07T11:55:07Z</time></trkpt>
<trkpt lat="28.577836" lon="98.778623">
<time>2016-10-07T11:55:08Z</time></trkpt>
<trkpt lat="28.578385" lon="98.778243">
<time>2016-10-07T11:55:09Z</time></trkpt>
<trkpt lat="28.578685" lon="98.778053">
<time>2016-10-07T11:55:10Z</time></trkpt>
<trkpt lat="28.578925" lon="98.777913">
<time>2016-10-07T11:55:11Z</time></trkpt>
<trkpt lat="28.579105" lon="98.777823">
<time>2016-10-07T11:55:12Z</time></trkpt>
<trkpt lat="28.579304" lon="98.777723">
<time>2016-10-07T11:55:13Z</time></trkpt>
<trkpt lat="28.579574" lon="98.777602">
<time>2016-10-07T11:55:14Z</time></trkpt>
<trkpt lat="28.579784" lon="98.777522">
<time>2016-10-07T11:55:15Z</time></trkpt>
<trkpt lat="28.579984" lon="98.777452">
<time>2016-10-07T11:55:16Z</time></trkpt>
<trkpt lat="28.580204" lon="98.777372">
<time>2016-10-07T11:55:17Z</time></trkpt>
<trkpt lat="28.580453" lon="98.777282">
<time>2016-10-07T11:55:18Z</time></trkpt>
<trkpt lat="28.580523" lon="98.777252">
<time>2016-10-07T11:55:19Z</time></trkpt>
<trkpt lat="28.580593" lon="98.777212">
<time>2016-10-07T11:55:20Z</time></trkpt>
<trkpt lat="28.580693" lon="98.777152">
<time>2016-10-07T11:55:21Z</time></trkpt>
<trkpt lat="28.580773" lon="98.777092">
<time>2016-10-07T11:55:22Z</time></trkpt>
<trkpt lat="28.580953" lon="98.776932">
<time>2016-10-07T11:55:23Z</time></trkpt>
<trkpt lat="28.581133" lon="98.776782">
<time>2016-10-07T11:55:24Z</time></trkpt>
<trkpt lat="28.581233" lon="98.776722">
<time>2016-10-07T11:55:25Z</time></trkpt>
<trkpt lat="28.581342" lon="98.776662">
<time>2016-10-07T11:55:26Z</time></trkpt>
<trkpt lat="28.581522" lon="98.776592">
<time>2016-10-07T11:55:27Z</time></trkpt>
<trkpt lat="28.581662" lon="98.776532">
<time>2016-10-07T11:55:28Z</time></trkpt>
<trkpt lat="28.581862" lon="98.776422">
<time>2016-10-07T11:55:29Z</time></trkpt>
<trkpt lat="28.582022" lon="98.776332">
<time>2016-10-07T11:55:30Z</time></trkpt>
<trkpt lat="28.582112" lon="98.776282">
<time>2016-10-07T11:55:31Z</time></trkpt>
<trkpt lat="28.582212" lon="98.776252">
<time>2016-10-07T11:55:32Z</time></trkpt>
<trkpt lat="28.582322" lon="98.776232">
<time>2016-10-07T11:55:33Z</time></trkpt>
<trkpt lat="28.582541" lon="98.776212">
<time>2016-10-07T11:55:34Z</time></trkpt>
<trkpt lat="28.582751" lon="98.776182">
<time>2016-10-07T11:55:35Z</time></trkpt>
<trkpt lat="28.582931" lon="98.776132">
<time>2016-10-07T11:55:36Z</time></trkpt>
<trkpt lat="28.583371" lon="98.776012">
<time>2016-10-07T11:55:37Z</time></trkpt>
<trkpt lat="28.583811" lon="98.775882">
<time>2016-10-07T11:55:38Z</time></trkpt>
<trkpt lat="28.58421" lon="98.775772">
<time>2016-10-07T11:55:39Z</time></trkpt>
<trkpt lat="28.58435" lon="98.775702">
<time>2016-10-07T11:55:40Z</time></trkpt>
<trkpt lat="28.58446" lon="98.775652">
<time>2016-10-07T11:55:41Z</time></trkpt>
<trkpt lat="28.58459" lon="98.775572">
<time>2016-10-07T11:55:42Z</time></trkpt>
<trkpt lat="28.5847" lon="98.775482">
<time>2016-10-07T11:55:43Z</time></trkpt>
<trkpt lat="28.58491" lon="98.775292">
<time>2016-10-07T11:55:44Z</time></trkpt>
<trkpt lat="28.585379" lon="98.774811">
<time>2016-10-07T11:55:45Z</time></trkpt>
<trkpt lat="28.585609" lon="98.774581">
<time>2016-10-07T11:55:46Z</time></trkpt>
<trkpt lat="28.585858" lon="98.774321">
<time>2016-10-07T11:55:47Z</time></trkpt>
<trkpt lat="28.585958" lon="98.774211">
<time>2016-10-07T11:55:48Z</time></trkpt>
<trkpt lat="28.586038" lon="98.774091">
<time>2016-10-07T11:55:49Z</time></trkpt>
<trkpt lat="28.586158" lon="98.773891">
<time>2016-10-07T11:55:50Z</time></trkpt>
<trkpt lat="28.586367" lon="98.773511">
<time>2016-10-07T11:55:51Z</time></trkpt>
<trkpt lat="28.586467" lon="98.773331">
<time>2016-10-07T11:55:52Z</time></trkpt>
<trkpt lat="28.586587" lon="98.773121">
<time>2016-10-07T11:55:53Z</time></trkpt>
<trkpt lat="28.586956" lon="98.772551">
<time>2016-10-07T11:55:54Z</time></trkpt>
<trkpt lat="28.587336" lon="98.771971">
<time>2016-10-07T11:55:55Z</time></trkpt>
<trkpt lat="28.587695" lon="98.771411">
<time>2016-10-07T11:55:56Z</time></trkpt>
<trkpt lat="28.587984" lon="98.77078">
<time>2016-10-07T11:55:57Z</time></trkpt>
<trkpt lat="28.588074" lon="98.7706">
<time>2016-10-07T11:55:58Z</time></trkpt>
<trkpt lat="28.588174" lon="98.77044">
<time>2016-10-07T11:55:59Z</time></trkpt>
<trkpt lat="28.588553" lon="98.76984">
<time>2016-10-07T11:56:00Z</time></trkpt>
<trkpt lat="28.588783" lon="98.76949">
<time>2016-10-07T11:56:01Z</time></trkpt>
<trkpt lat="28.589003" lon="98.76915">
<time>2016-10-07T11:56:02Z</time></trkpt>
<trkpt lat="28.589073" lon="98.76905">
<time>2016-10-07T11:56:03Z</time></trkpt>
<trkpt lat="28.589162" lon="98.76893">
<time>2016-10-07T11:56:04Z</time></trkpt>
<trkpt lat="28.589482" lon="98.76862">
<time>2016-10-07T11:56:05Z</time></trkpt>
<trkpt lat="28.589652" lon="98.76846">
<time>2016-10-07T11:56:06Z</time></trkpt>
<trkpt lat="28.589782" lon="98.76836">
<time>2016-10-07T11:56:07Z</time></trkpt>
<trkpt lat="28.590021" lon="98.7682">
<time>2016-10-07T11:56:08Z</time></trkpt>
<trkpt lat="28.590311" lon="98.76803">
<time>2016-10-07T11:56:09Z</time></trkpt>
<trkpt lat="28.590591" lon="98.76786">
<time>2016-10-07T11:56:10Z</time></trkpt>
<trkpt lat="28.59125" lon="98.76753">
<time>2016-10-07T11:56:11Z</time></trkpt>
<trkpt lat="28.59176" lon="98.7673">
<time>2016-10-07T11:56:12Z</time></trkpt>
<trkpt lat="28.59208" lon="98.76715">
<time>2016-10-07T11:56:13Z</time></trkpt>
<trkpt lat="28.59228" lon="98.76708">
<time>2016-10-07T11:56:14Z</time></trkpt>
<trkpt lat="28.593179" lon="98.76678">
<time>2016-10-07T11:56:15Z</time></trkpt>
<trkpt lat="28.594538" lon="98.76628">
<time>2016-10-07T11:56:16Z</time></trkpt>
<trkpt lat="28.594968" lon="98.76612">
<time>2016-10-07T11:56:17Z</time></trkpt>
<trkpt lat="28.595198" lon="98.76602">
<time>2016-10-07T11:56:18Z</time></trkpt>
<trkpt lat="28.595398" lon="98.76592">
<time>2016-10-07T11:56:19Z</time></trkpt>
<trkpt lat="28.595867" lon="98.76568">
<time>2016-10-07T11:56:20Z</time></trkpt>
<trkpt lat="28.596736" lon="98.76522">
<time>2016-10-07T11:56:21Z</time></trkpt>
<trkpt lat="28.597136" lon="98.76499">
<time>2016-10-07T11:56:22Z</time></trkpt>
<trkpt lat="28.597906" lon="98.76452">
<time>2016-10-07T11:56:23Z</time></trkpt>
<trkpt lat="28.598205" lon="98.76432">
<time>2016-10-07T11:56:24Z</time></trkpt>
<trkpt lat="28.598505" lon="98.76409">
<time>2016-10-07T11:56:25Z</time></trkpt>
<trkpt lat="28.598795" lon="98.76383">
<time>2016-10-07T11:56:26Z</time></trkpt>
<trkpt lat="28.599264" lon="98.76336">
<time>2016-10-07T11:56:27Z</time></trkpt>
<trkpt lat="28.599474" lon="98.76317">
<time>2016-10-07T11:56:28Z</time></trkpt>
<trkpt lat="28.599684" lon="98.763">
<time>2016-10-07T11:56:29Z</time></trkpt>
<trkpt lat="28.600034" lon="98.76274">
<time>2016-10-07T11:56:30Z</time></trkpt>
<trkpt lat="28.600333" lon="98.76252">
<time>2016-10-07T11:56:31Z</time></trkpt>
<trkpt lat="28.600523" lon="98.7624">
<time>2016-10-07T11:56:32Z</time></trkpt>
<trkpt lat="28.600683" lon="98.76229">
<time>2016-10-07T11:56:33Z</time></trkpt>
<trkpt lat="28.600813" lon="98.76219">
<time>2016-10-07T11:56:34Z</time></trkpt>
<trkpt lat="28.600983" lon="98.76207">
<time>2016-10-07T11:56:35Z</time></trkpt>
<trkpt lat="28.601263" lon="98.76188">
<time>2016-10-07T11:56:36Z</time></trkpt>
<trkpt lat="28.601522" lon="98.7617">
<time>2016-10-07T11:56:37Z</time></trkpt>
<trkpt lat="28.601752" lon="98.761531">
<time>2016-10-07T11:56:38Z</time></trkpt>
<trkpt lat="28.601822" lon="98.761461">
<time>2016-10-07T11:56:39Z</time></trkpt>
<trkpt lat="28.601922" lon="98.761341">
<time>2016-10-07T11:56:40Z</time></trkpt>
<trkpt lat="28.602042" lon="98.761181">
<time>2016-10-07T11:56:41Z</time></trkpt>
<trkpt lat="28.602172" lon="98.760981">
<time>2016-10-07T11:56:42Z</time></trkpt>
<trkpt lat="28.602332" lon="98.760711">
<time>2016-10-07T11:56:43Z</time></trkpt>
<trkpt lat="28.602771" lon="98.759951">
<time>2016-10-07T11:56:44Z</time></trkpt>
<trkpt lat="28.602981" lon="98.759591">
<time>2016-10-07T11:56:45Z</time></trkpt>
<trkpt lat="28.603161" lon="98.759281">
<time>2016-10-07T11:56:46Z</time></trkpt>
<trkpt lat="28.603241" lon="98.759161">
<time>2016-10-07T11:56:47Z</time></trkpt>
<trkpt lat="28.603311" lon="98.759071">
<time>2016-10-07T11:56:48Z</time></trkpt>
<trkpt lat="28.60342" lon="98.758951">
<time>2016-10-07T11:56:49Z</time></trkpt>
<trkpt lat="28.60356" lon="98.758851">
<time>2016-10-07T11:56:50Z</time></trkpt>
<trkpt lat="28.60398" lon="98.758551">
<time>2016-10-07T11:56:51Z</time></trkpt>
<trkpt lat="28.60411" lon="98.758471">
<time>2016-10-07T11:56:52Z</time></trkpt>
<trkpt lat="28.60421" lon="98.758411">
<time>2016-10-07T11:56:53Z</time></trkpt>
<trkpt lat="28.60432" lon="98.758361">
<time>2016-10-07T11:56:54Z</time></trkpt>
<trkpt lat="28.60448" lon="98.758291">
<time>2016-10-07T11:56:55Z</time></trkpt>
<trkpt lat="28.60462" lon="98.758241">
<time>2016-10-07T11:56:56Z</time></trkpt>
<trkpt lat="28.60479" lon="98.758181">
<time>2016-10-07T11:56:57Z</time></trkpt>
<trkpt lat="28.604939" lon="98.758111">
<time>2016-10-07T11:56:58Z</time></trkpt>
<trkpt lat="28.605169" lon="98.758031">
<time>2016-10-07T11:56:59Z</time></trkpt>
<trkpt lat="28.605369" lon="98.757952">
<time>2016-10-07T11:57:00Z</time></trkpt>
<trkpt lat="28.605499" lon="98.757882">
<time>2016-10-07T11:57:01Z</time></trkpt>
<trkpt lat="28.605639" lon="98.757802">
<time>2016-10-07T11:57:02Z</time></trkpt>
<trkpt lat="28.605809" lon="98.757702">
<time>2016-10-07T11:57:03Z</time></trkpt>
<trkpt lat="28.606289" lon="98.757402">
<time>2016-10-07T11:57:04Z</time></trkpt>
<trkpt lat="28.606788" lon="98.757042">
<time>2016-10-07T11:57:05Z</time></trkpt>
<trkpt lat="28.607058" lon="98.756862">
<time>2016-10-07T11:57:06Z</time></trkpt>
<trkpt lat="28.607698" lon="98.756462">
<time>2016-10-07T11:57:07Z</time></trkpt>
<trkpt lat="28.608057" lon="98.756232">
<time>2016-10-07T11:57:08Z</time></trkpt>
<trkpt lat="28.608387" lon="98.756012">
<time>2016-10-07T11:57:09Z</time></trkpt>
<trkpt lat="28.608527" lon="98.755932">
<time>2016-10-07T11:57:10Z</time></trkpt>
<trkpt lat="28.608577" lon="98.755902">
<time>2016-10-07T11:57:11Z</time></trkpt>
<trkpt lat="28.608687" lon="98.755862">
<time>2016-10-07T11:57:12Z</time></trkpt>
<trkpt lat="28.608787" lon="98.755842">
<time>2016-10-07T11:57:13Z</time></trkpt>
<trkpt lat="28.609047" lon="98.755802">
<time>2016-10-07T11:57:14Z</time></trkpt>
<trkpt lat="28.609267" lon="98.755752">
<time>2016-10-07T11:57:15Z</time></trkpt>
<trkpt lat="28.609497" lon="98.755692">
<time>2016-10-07T11:57:16Z</time></trkpt>
<trkpt lat="28.609956" lon="98.755532">
<time>2016-10-07T11:57:17Z</time></trkpt>
<trkpt lat="28.610736" lon="98.755253">
<time>2016-10-07T11:57:18Z</time></trkpt>
<trkpt lat="28.610916" lon="98.755173">
<time>2016-10-07T11:57:19Z</time></trkpt>
<trkpt lat="28.611056" lon="98.755103">
<time>2016-10-07T11:57:20Z</time></trkpt>
<trkpt lat="28.611156" lon="98.755043">
<time>2016-10-07T11:57:21Z</time></trkpt>
<trkpt lat="28.611246" lon="98.754963">
<time>2016-10-07T11:57:22Z</time></trkpt>
<trkpt lat="28.611326" lon="98.754873">
<time>2016-10-07T11:57:23Z</time></trkpt>
<trkpt lat="28.611415" lon="98.754733">
<time>2016-10-07T11:57:24Z</time></trkpt>
<trkpt lat="28.611465" lon="98.754593">
<time>2016-10-07T11:57:25Z</time></trkpt>
<trkpt lat="28.611515" lon="98.754433">
<time>2016-10-07T11:57:26Z</time></trkpt>
<trkpt lat="28.611605" lon="98.754123">
<time>2016-10-07T11:57:27Z</time></trkpt>
<trkpt lat="28.611645" lon="98.753973">
<time>2016-10-07T11:57:28Z</time></trkpt>
<trkpt lat="28.611695" lon="98.753793">
<time>2016-10-07T11:57:29Z</time></trkpt>
<trkpt lat="28.611735" lon="98.753593">
<time>2016-10-07T11:57:30Z</time></trkpt>
<trkpt lat="28.611745" lon="98.753443">
<time>2016-10-07T11:57:31Z</time></trkpt>
<trkpt lat="28.611745" lon="98.753314">
<time>2016-10-07T11:57:32Z</time></trkpt>
<trkpt lat="28.611745" lon="98.753224">
<time>2016-10-07T11:57:33Z</time></trkpt>
<trkpt lat="28.611735" lon="98.753064">
<time>2016-10-07T11:57:34Z</time></trkpt>
<trkpt lat="28.611725" lon="98.752944">
<time>2016-10-07T11:57:35Z</time></trkpt>
<trkpt lat="28.611705" lon="98.752814">
<time>2016-10-07T11:57:36Z</time></trkpt>
<trkpt lat="28.611655" lon="98.752574">
<time>2016-10-07T11:57:37Z</time></trkpt>
<trkpt lat="28.611645" lon="98.752504">
<time>2016-10-07T11:57:38Z</time></trkpt>
<trkpt lat="28.611635" lon="98.752464">
<time>2016-10-07T11:57:39Z</time></trkpt>
<trkpt lat="28.611635" lon="98.752404">
<time>2016-10-07T11:57:40Z</time></trkpt>
<trkpt lat="28.611625" lon="98.752324">
<time>2016-10-07T11:57:41Z</time></trkpt>
<trkpt lat="28.611635" lon="98.752234">
<time>2016-10-07T11:57:42Z</time></trkpt>
<trkpt lat="28.611635" lon="98.752134">
<time>2016-10-07T11:57:43Z</time></trkpt>
<trkpt lat="28.611645" lon="98.752064">
<time>2016-10-07T11:57:44Z</time></trkpt>
<trkpt lat="28.611645" lon="98.752004">
<time>2016-10-07T11:57:45Z</time></trkpt>
<trkpt lat="28.611645" lon="98.751954">
<time>2016-10-07T11:57:46Z</time></trkpt>
<trkpt lat="28.611635" lon="98.751914">
<time>2016-10-07T11:57:47Z</time></trkpt>
<trkpt lat="28.611615" lon="98.751854">
<time>2016-10-07T11:57:48Z</time></trkpt>
<trkpt lat="28.611605" lon="98.751804">
<time>2016-10-07T11:57:49Z</time></trkpt>
<trkpt lat="28.611565" lon="98.751734">
<time>2016-10-07T11:57:50Z</time></trkpt>
<trkpt lat="28.611525" lon="98.751685">
<time>2016-10-07T11:57:51Z</time></trkpt>
<trkpt lat="28.611455" lon="98.751585">
<time>2016-10-07T11:57:52Z</time></trkpt>
<trkpt lat="28.611395" lon="98.751515">
<time>2016-10-07T11:57:53Z</time></trkpt>
<trkpt lat="28.611325" lon="98.751435">
<time>2016-10-07T11:57:54Z</time></trkpt>
<trkpt lat="28.611255" lon="98.751325">
<time>2016-10-07T11:57:55Z</time></trkpt>
<trkpt lat="28.611195" lon="98.751235">
<time>2016-10-07T11:57:56Z</time></trkpt>
<trkpt lat="28.611145" lon="98.751125">
<time>2016-10-07T11:57:57Z</time></trkpt>
<trkpt lat="28.611065" lon="98.750935">
<time>2016-10-07T11:57:58Z</time></trkpt>
<trkpt lat="28.610995" lon="98.750765">
<time>2016-10-07T11:57:59Z</time></trkpt>
<trkpt lat="28.610965" lon="98.750655">
<time>2016-10-07T11:58:00Z</time></trkpt>
<trkpt lat="28.610945" lon="98.750585">
<time>2016-10-07T11:58:01Z</time></trkpt>
<trkpt lat="28.610915" lon="98.750485">
<time>2016-10-07T11:58:02Z</time></trkpt>
<trkpt lat="28.610905" lon="98.750395">
<time>2016-10-07T11:58:03Z</time></trkpt>
<trkpt lat="28.610885" lon="98.750325">
<time>2016-10-07T11:58:04Z</time></trkpt>
<trkpt lat="28.610865" lon="98.750255">
<time>2016-10-07T11:58:05Z</time></trkpt>
<trkpt lat="28.610835" lon="98.750156">
<time>2016-10-07T11:58:06Z</time></trkpt>
<trkpt lat="28.610785" lon="98.750036">
<time>2016-10-07T11:58:07Z</time></trkpt>
<trkpt lat="28.610745" lon="98.749976">
<time>2016-10-07T11:58:08Z</time></trkpt>
<trkpt lat="28.610695" lon="98.749886">
<time>2016-10-07T11:58:09Z</time></trkpt>
<trkpt lat="28.610615" lon="98.749776">
<time>2016-10-07T11:58:10Z</time></trkpt>
<trkpt lat="28.610525" lon="98.749676">
<time>2016-10-07T11:58:11Z</time></trkpt>
<trkpt lat="28.610316" lon="98.749446">
<time>2016-10-07T11:58:12Z</time></trkpt>
<trkpt lat="28.610106" lon="98.749196">
<time>2016-10-07T11:58:13Z</time></trkpt>
<trkpt lat="28.609996" lon="98.749046">
<time>2016-10-07T11:58:14Z</time></trkpt>
<trkpt lat="28.609946" lon="98.748976">
<time>2016-10-07T11:58:15Z</time></trkpt>
<trkpt lat="28.609906" lon="98.748896">
<time>2016-10-07T11:58:16Z</time></trkpt>
<trkpt lat="28.609866" lon="98.748797">
<time>2016-10-07T11:58:17Z</time></trkpt>
<trkpt lat="28.609816" lon="98.748667">
<time>2016-10-07T11:58:18Z</time></trkpt>
<trkpt lat="28.609706" lon="98.748327">
<time>2016-10-07T11:58:19Z</time></trkpt>
<trkpt lat="28.609606" lon="98.748047">
<time>2016-10-07T11:58:20Z</time></trkpt>
<trkpt lat="28.609576" lon="98.747957">
<time>2016-10-07T11:58:21Z</time></trkpt>
<trkpt lat="28.609546" lon="98.747817">
<time>2016-10-07T11:58:22Z</time></trkpt>
<trkpt lat="28.609476" lon="98.747438">
<time>2016-10-07T11:58:23Z</time></trkpt>
<trkpt lat="28.609316" lon="98.746938">
<time>2016-10-07T11:58:24Z</time></trkpt>
<trkpt lat="28.609256" lon="98.746688">
<time>2016-10-07T11:58:25Z</time></trkpt>
<trkpt lat="28.609176" lon="98.746329">
<time>2016-10-07T11:58:26Z</time></trkpt>
<trkpt lat="28.609166" lon="98.746269">
<time>2016-10-07T11:58:27Z</time></trkpt>
<trkpt lat="28.609146" lon="98.746169">
<time>2016-10-07T11:58:28Z</time></trkpt>
<trkpt lat="28.609116" lon="98.745979">
<time>2016-10-07T11:58:29Z</time></trkpt>
<trkpt lat="28.609116" lon="98.745899">
<time>2016-10-07T11:58:30Z</time></trkpt>
<trkpt lat="28.609116" lon="98.745779">
<time>2016-10-07T11:58:31Z</time></trkpt>
<trkpt lat="28.609146" lon="98.745589">
<time>2016-10-07T11:58:32Z</time></trkpt>
<trkpt lat="28.609216" lon="98.745289">
<time>2016-10-07T11:58:33Z</time></trkpt>
<trkpt lat="28.609246" lon="98.74508">
<time>2016-10-07T11:58:34Z</time></trkpt>
<trkpt lat="28.609256" lon="98.74496">
<time>2016-10-07T11:58:35Z</time></trkpt>
<trkpt lat="28.609267" lon="98.74468">
<time>2016-10-07T11:58:36Z</time></trkpt>
<trkpt lat="28.609277" lon="98.74453">
<time>2016-10-07T11:58:37Z</time></trkpt>
<trkpt lat="28.609317" lon="98.74431">
<time>2016-10-07T11:58:38Z</time></trkpt>
<trkpt lat="28.609337" lon="98.74421">
<time>2016-10-07T11:58:39Z</time></trkpt>
<trkpt lat="28.609367" lon="98.744111">
<time>2016-10-07T11:58:40Z</time></trkpt>
<trkpt lat="28.609417" lon="98.743961">
<time>2016-10-07T11:58:41Z</time></trkpt>
<trkpt lat="28.609487" lon="98.743801">
<time>2016-10-07T11:58:42Z</time></trkpt>
<trkpt lat="28.609567" lon="98.743661">
<time>2016-10-07T11:58:43Z</time></trkpt>
<trkpt lat="28.609667" lon="98.743511">
<time>2016-10-07T11:58:44Z</time></trkpt>
<trkpt lat="28.609967" lon="98.743042">
<time>2016-10-07T11:58:45Z</time></trkpt>
<trkpt lat="28.610187" lon="98.742692">
<time>2016-10-07T11:58:46Z</time></trkpt>
<trkpt lat="28.610367" lon="98.742412">
<time>2016-10-07T11:58:47Z</time></trkpt>
<trkpt lat="28.610437" lon="98.742302">
<time>2016-10-07T11:58:48Z</time></trkpt>
<trkpt lat="28.610487" lon="98.742212">
<time>2016-10-07T11:58:49Z</time></trkpt>
<trkpt lat="28.610567" lon="98.742053">
<time>2016-10-07T11:58:50Z</time></trkpt>
<trkpt lat="28.610647" lon="98.741873">
<time>2016-10-07T11:58:51Z</time></trkpt>
<trkpt lat="28.610767" lon="98.741613">
<time>2016-10-07T11:58:52Z</time></trkpt>
<trkpt lat="28.610907" lon="98.741253">
<time>2016-10-07T11:58:53Z</time></trkpt>
<trkpt lat="28.610997" lon="98.741014">
<time>2016-10-07T11:58:54Z</time></trkpt>
<trkpt lat="28.611057" lon="98.740824">
<time>2016-10-07T11:58:55Z</time></trkpt>
<trkpt lat="28.611127" lon="98.740624">
<time>2016-10-07T11:58:56Z</time></trkpt>
<trkpt lat="28.611197" lon="98.740474">
<time>2016-10-07T11:58:57Z</time></trkpt>
<trkpt lat="28.611267" lon="98.740354">
<time>2016-10-07T11:58:58Z</time></trkpt>
<trkpt lat="28.611347" lon="98.740234">
<time>2016-10-07T11:58:59Z</time></trkpt>
<trkpt lat="28.611437" lon="98.740105">
<time>2016-10-07T11:59:00Z</time></trkpt>
<trkpt lat="28.611597" lon="98.739925">
<time>2016-10-07T11:59:01Z</time></trkpt>
<trkpt lat="28.611747" lon="98.739785">
<time>2016-10-07T11:59:02Z</time></trkpt>
<trkpt lat="28.611857" lon="98.739695">
<time>2016-10-07T11:59:03Z</time></trkpt>
<trkpt lat="28.611957" lon="98.739625">
<time>2016-10-07T11:59:04Z</time></trkpt>
<trkpt lat="28.612047" lon="98.739575">
<time>2016-10-07T11:59:05Z</time></trkpt>
<trkpt lat="28.612237" lon="98.739495">
<time>2016-10-07T11:59:06Z</time></trkpt>
<trkpt lat="28.612357" lon="98.739445">
<time>2016-10-07T11:59:07Z</time></trkpt>
<trkpt lat="28.612476" lon="98.739405">
<time>2016-10-07T11:59:08Z</time></trkpt>
<trkpt lat="28.612696" lon="98.739325">
<time>2016-10-07T11:59:09Z</time></trkpt>
<trkpt lat="28.612966" lon="98.739246">
<time>2016-10-07T11:59:10Z</time></trkpt>
<trkpt lat="28.613076" lon="98.739206">
<time>2016-10-07T11:59:11Z</time></trkpt>
<trkpt lat="28.613266" lon="98.739166">
<time>2016-10-07T11:59:12Z</time></trkpt>
<trkpt lat="28.613586" lon="98.739136">
<time>2016-10-07T11:59:13Z</time></trkpt>
<trkpt lat="28.613876" lon="98.739106">
<time>2016-10-07T11:59:14Z</time></trkpt>
<trkpt lat="28.614126" lon="98.739096">
<time>2016-10-07T11:59:15Z</time></trkpt>
<trkpt lat="28.614516" lon="98.739046">
<time>2016-10-07T11:59:16Z</time></trkpt>
<trkpt lat="28.614686" lon="98.739036">
<time>2016-10-07T11:59:17Z</time></trkpt>
<trkpt lat="28.614855" lon="98.739016">
<time>2016-10-07T11:59:18Z</time></trkpt>
<trkpt lat="28.615025" lon="98.739006">
<time>2016-10-07T11:59:19Z</time></trkpt>
<trkpt lat="28.615195" lon="98.738986">
<time>2016-10-07T11:59:20Z</time></trkpt>
<trkpt lat="28.615395" lon="98.738976">
<time>2016-10-07T11:59:21Z</time></trkpt>
<trkpt lat="28.615655" lon="98.738946">
<time>2016-10-07T11:59:22Z</time></trkpt>
<trkpt lat="28.615875" lon="98.738926">
<time>2016-10-07T11:59:23Z</time></trkpt>
<trkpt lat="28.616125" lon="98.738906">
<time>2016-10-07T11:59:24Z</time></trkpt>
<trkpt lat="28.616275" lon="98.738896">
<time>2016-10-07T11:59:25Z</time></trkpt>
<trkpt lat="28.616395" lon="98.738886">
<time>2016-10-07T11:59:26Z</time></trkpt>
<trkpt lat="28.616565" lon="98.738896">
<time>2016-10-07T11:59:27Z</time></trkpt>
<trkpt lat="28.616635" lon="98.738906">
<time>2016-10-07T11:59:28Z</time></trkpt>
<trkpt lat="28.616745" lon="98.738936">
<time>2016-10-07T11:59:29Z</time></trkpt>
<trkpt lat="28.616875" lon="98.738976">
<time>2016-10-07T11:59:30Z</time></trkpt>
<trkpt lat="28.616994" lon="98.739006">
<time>2016-10-07T11:59:31Z</time></trkpt>
<trkpt lat="28.617114" lon="98.739026">
<time>2016-10-07T11:59:32Z</time></trkpt>
<trkpt lat="28.617254" lon="98.739046">
<time>2016-10-07T11:59:33Z</time></trkpt>
<trkpt lat="28.617344" lon="98.739056">
<time>2016-10-07T11:59:34Z</time></trkpt>
<trkpt lat="28.617554" lon="98.739056">
<time>2016-10-07T11:59:35Z</time></trkpt>
<trkpt lat="28.618044" lon="98.739016">
<time>2016-10-07T11:59:36Z</time></trkpt>
<trkpt lat="28.618524" lon="98.739026">
<time>2016-10-07T11:59:37Z</time></trkpt>
<trkpt lat="28.618804" lon="98.739036">
<time>2016-10-07T11:59:38Z</time></trkpt>
<trkpt lat="28.619133" lon="98.739046">
<time>2016-10-07T11:59:39Z</time></trkpt>
<trkpt lat="28.619323" lon="98.739056">
<time>2016-10-07T11:59:40Z</time></trkpt>
<trkpt lat="28.619513" lon="98.739066">
<time>2016-10-07T11:59:41Z</time></trkpt>
<trkpt lat="28.619873" lon="98.739076">
<time>2016-10-07T11:59:42Z</time></trkpt>
<trkpt lat="28.620293" lon="98.739096">
<time>2016-10-07T11:59:43Z</time></trkpt>
<trkpt lat="28.620523" lon="98.739096">
<time>2016-10-07T11:59:44Z</time></trkpt>
<trkpt lat="28.620603" lon="98.739086">
<time>2016-10-07T11:59:45Z</time></trkpt>
<trkpt lat="28.620892" lon="98.739056">
<time>2016-10-07T11:59:46Z</time></trkpt>
<trkpt lat="28.621472" lon="98.738996">
<time>2016-10-07T11:59:47Z</time></trkpt>
<trkpt lat="28.621722" lon="98.738946">
<time>2016-10-07T11:59:48Z</time></trkpt>
<trkpt lat="28.621952" lon="98.738896">
<time>2016-10-07T11:59:49Z</time></trkpt>
<trkpt lat="28.622242" lon="98.738816">
<time>2016-10-07T11:59:50Z</time></trkpt>
<trkpt lat="28.622482" lon="98.738756">
<time>2016-10-07T11:59:51Z</time></trkpt>
<trkpt lat="28.622702" lon="98.738706">
<time>2016-10-07T11:59:52Z</time></trkpt>
<trkpt lat="28.622972" lon="98.738616">
<time>2016-10-07T11:59:53Z</time></trkpt>
<trkpt lat="28.623162" lon="98.738556">
<time>2016-10-07T11:59:54Z</time></trkpt>
<trkpt lat="28.623262" lon="98.738526">
<time>2016-10-07T11:59:55Z</time></trkpt>
<trkpt lat="28.623431" lon="98.738466">
<time>2016-10-07T11:59:56Z</time></trkpt>
<trkpt lat="28.623661" lon="98.738356">
<time>2016-10-07T11:59:57Z</time></trkpt>
<trkpt lat="28.623861" lon="98.738227">
<time>2016-10-07T11:59:58Z</time></trkpt>
<trkpt lat="28.623991" lon="98.738147">
<time>2016-10-07T11:59:59Z</time></trkpt>
<trkpt lat="28.624081" lon="98.738097">
<time>2016-10-07T12:00:00Z</time></trkpt>
<trkpt lat="28.624281" lon="98.737997">
<time>2016-10-07T12:00:01Z</time></trkpt>
<trkpt lat="28.624661" lon="98.737817">
<time>2016-10-07T12:00:02Z</time></trkpt>
<trkpt lat="28.625191" lon="98.737597">
<time>2016-10-07T12:00:03Z</time></trkpt>
<trkpt lat="28.625391" lon="98.737497">
<time>2016-10-07T12:00:04Z</time></trkpt>
<trkpt lat="28.625591" lon="98.737378">
<time>2016-10-07T12:00:05Z</time></trkpt>
<trkpt lat="28.625781" lon="98.737258">
<time>2016-10-07T12:00:06Z</time></trkpt>
<trkpt lat="28.626001" lon="98.737118">
<time>2016-10-07T12:00:07Z</time></trkpt>
<trkpt lat="28.626221" lon="98.736988">
<time>2016-10-07T12:00:08Z</time></trkpt>
<trkpt lat="28.626431" lon="98.736878">
<time>2016-10-07T12:00:09Z</time></trkpt>
<trkpt lat="28.626881" lon="98.736638">
<time>2016-10-07T12:00:10Z</time></trkpt>
<trkpt lat="28.62709" lon="98.736529">
<time>2016-10-07T12:00:11Z</time></trkpt>
<trkpt lat="28.6272" lon="98.736469">
<time>2016-10-07T12:00:12Z</time></trkpt>
<trkpt lat="28.62731" lon="98.736419">
<time>2016-10-07T12:00:13Z</time></trkpt>
<trkpt lat="28.62743" lon="98.736369">
<time>2016-10-07T12:00:14Z</time></trkpt>
<trkpt lat="28.62762" lon="98.736309">
<time>2016-10-07T12:00:15Z</time></trkpt>
<trkpt lat="28.62779" lon="98.736259">
<time>2016-10-07T12:00:16Z</time></trkpt>
<trkpt lat="28.62789" lon="98.736219">
<time>2016-10-07T12:00:17Z</time></trkpt>
<trkpt lat="28.628" lon="98.736159">
<time>2016-10-07T12:00:18Z</time></trkpt>
<trkpt lat="28.62816" lon="98.736079">
<time>2016-10-07T12:00:19Z</time></trkpt>
<trkpt lat="28.62836" lon="98.735979">
<time>2016-10-07T12:00:20Z</time></trkpt>
<trkpt lat="28.62855" lon="98.735869">
<time>2016-10-07T12:00:21Z</time></trkpt>
<trkpt lat="28.62866" lon="98.735809">
<time>2016-10-07T12:00:22Z</time></trkpt>
<trkpt lat="28.62879" lon="98.73576">
<time>2016-10-07T12:00:23Z</time></trkpt>
<trkpt lat="28.62894" lon="98.73571">
<time>2016-10-07T12:00:24Z</time></trkpt>
<trkpt lat="28.629" lon="98.7357">
<time>2016-10-07T12:00:25Z</time></trkpt>
<trkpt lat="28.62922" lon="98.73565">
<time>2016-10-07T12:00:26Z</time></trkpt>
<trkpt lat="28.62962" lon="98.73556">
<time>2016-10-07T12:00:27Z</time></trkpt>
<trkpt lat="28.62982" lon="98.7355">
<time>2016-10-07T12:00:28Z</time></trkpt>
<trkpt lat="28.63005" lon="98.73539">
<time>2016-10-07T12:00:29Z</time></trkpt>
<trkpt lat="28.63022" lon="98.73532">
<time>2016-10-07T12:00:30Z</time></trkpt>
<trkpt lat="28.630339" lon="98.73526">
<time>2016-10-07T12:00:31Z</time></trkpt>
<trkpt lat="28.630449" lon="98.73521">
<time>2016-10-07T12:00:32Z</time></trkpt>
<trkpt lat="28.630719" lon="98.73503">
<time>2016-10-07T12:00:33Z</time></trkpt>
<trkpt lat="28.631039" lon="98.734881">
<time>2016-10-07T12:00:34Z</time></trkpt>
<trkpt lat="28.631379" lon="98.734661">
<time>2016-10-07T12:00:35Z</time></trkpt>
<trkpt lat="28.631429" lon="98.734631">
<time>2016-10-07T12:00:36Z</time></trkpt>
<trkpt lat="28.631449" lon="98.734601">
<time>2016-10-07T12:00:37Z</time></trkpt>
<trkpt lat="28.631469" lon="98.734581">
<time>2016-10-07T12:00:38Z</time></trkpt>
<trkpt lat="28.631499" lon="98.734531">
<time>2016-10-07T12:00:39Z</time></trkpt>
<trkpt lat="28.631519" lon="98.734481">
<time>2016-10-07T12:00:40Z</time></trkpt>
<trkpt lat="28.631529" lon="98.734421">
<time>2016-10-07T12:00:41Z</time></trkpt>
<trkpt lat="28.631539" lon="98.734361">
<time>2016-10-07T12:00:42Z</time></trkpt>
<trkpt lat="28.631539" lon="98.734301">
<time>2016-10-07T12:00:43Z</time></trkpt>
<trkpt lat="28.631519" lon="98.734202">
<time>2016-10-07T12:00:44Z</time></trkpt>
<trkpt lat="28.63149" lon="98.734082">
<time>2016-10-07T12:00:45Z</time></trkpt>
<trkpt lat="28.63138" lon="98.733612">
<time>2016-10-07T12:00:46Z</time></trkpt>
<trkpt lat="28.63131" lon="98.733343">
<time>2016-10-07T12:00:47Z</time></trkpt>
<trkpt lat="28.63129" lon="98.733233">
<time>2016-10-07T12:00:48Z</time></trkpt>
<trkpt lat="28.63129" lon="98.733183">
<time>2016-10-07T12:00:49Z</time></trkpt>
<trkpt lat="28.6313" lon="98.733143">
<time>2016-10-07T12:00:50Z</time></trkpt>
<trkpt lat="28.63132" lon="98.733113">
<time>2016-10-07T12:00:51Z</time></trkpt>
<trkpt lat="28.63135" lon="98.733093">
<time>2016-10-07T12:00:52Z</time></trkpt>
<trkpt lat="28.63139" lon="98.733063">
<time>2016-10-07T12:00:53Z</time></trkpt>
<trkpt lat="28.63143" lon="98.733033">
<time>2016-10-07T12:00:54Z</time></trkpt>
<trkpt lat="28.63158" lon="98.732973">
<time>2016-10-07T12:00:55Z</time></trkpt>
<trkpt lat="28.6317" lon="98.732953">
<time>2016-10-07T12:00:56Z</time></trkpt>
<trkpt lat="28.63176" lon="98.732933">
<time>2016-10-07T12:00:57Z</time></trkpt>
<trkpt lat="28.63185" lon="98.732923">
<time>2016-10-07T12:00:58Z</time></trkpt>
<trkpt lat="28.63225" lon="98.732893">
<time>2016-10-07T12:00:59Z</time></trkpt>
<trkpt lat="28.63239" lon="98.732873">
<time>2016-10-07T12:01:00Z</time></trkpt>
<trkpt lat="28.6325" lon="98.732853">
<time>2016-10-07T12:01:01Z</time></trkpt>
<trkpt lat="28.63277" lon="98.732793">
<time>2016-10-07T12:01:02Z</time></trkpt>
<trkpt lat="28.63301" lon="98.732734">
<time>2016-10-07T12:01:03Z</time></trkpt>
<trkpt lat="28.63315" lon="98.732694">
<time>2016-10-07T12:01:04Z</time></trkpt>
<trkpt lat="28.63327" lon="98.732644">
<time>2016-10-07T12:01:05Z</time></trkpt>
<trkpt lat="28.6335" lon="98.732524">
<time>2016-10-07T12:01:06Z</time></trkpt>
<trkpt lat="28.633549" lon="98.732494">
<time>2016-10-07T12:01:07Z</time></trkpt>
<trkpt lat="28.633689" lon="98.732404">
<time>2016-10-07T12:01:08Z</time></trkpt>
<trkpt lat="28.633859" lon="98.732284">
<time>2016-10-07T12:01:09Z</time></trkpt>
<trkpt lat="28.634079" lon="98.732124">
<time>2016-10-07T12:01:10Z</time></trkpt>
<trkpt lat="28.634269" lon="98.731985">
<time>2016-10-07T12:01:11Z</time></trkpt>
<trkpt lat="28.634489" lon="98.731825">
<time>2016-10-07T12:01:12Z</time></trkpt>
<trkpt lat="28.634889" lon="98.731535">
<time>2016-10-07T12:01:13Z</time></trkpt>
<trkpt lat="28.635009" lon="98.731445">
<time>2016-10-07T12:01:14Z</time></trkpt>
<trkpt lat="28.635129" lon="98.731365">
<time>2016-10-07T12:01:15Z</time></trkpt>
<trkpt lat="28.635219" lon="98.731326">
<time>2016-10-07T12:01:16Z</time></trkpt>
<trkpt lat="28.635299" lon="98.731286">
<time>2016-10-07T12:01:17Z</time></trkpt>
<trkpt lat="28.635409" lon="98.731246">
<time>2016-10-07T12:01:18Z</time></trkpt>
<trkpt lat="28.635549" lon="98.731206">
<time>2016-10-07T12:01:19Z</time></trkpt>
<trkpt lat="28.635659" lon="98.731176">
<time>2016-10-07T12:01:20Z</time></trkpt>
<trkpt lat="28.635789" lon="98.731136">
<time>2016-10-07T12:01:21Z</time></trkpt>
<trkpt lat="28.635959" lon="98.731086">
<time>2016-10-07T12:01:22Z</time></trkpt>
<trkpt lat="28.636159" lon="98.731016">
<time>2016-10-07T12:01:23Z</time></trkpt>
<trkpt lat="28.636339" lon="98.730926">
<time>2016-10-07T12:01:24Z</time></trkpt>
<trkpt lat="28.636549" lon="98.730806">
<time>2016-10-07T12:01:25Z</time></trkpt>
<trkpt lat="28.636729" lon="98.730686">
<time>2016-10-07T12:01:26Z</time></trkpt>
<trkpt lat="28.636879" lon="98.730587">
<time>2016-10-07T12:01:27Z</time></trkpt>
<trkpt lat="28.636999" lon="98.730477">
<time>2016-10-07T12:01:28Z</time></trkpt>
<trkpt lat="28.637099" lon="98.730377">
<time>2016-10-07T12:01:29Z</time></trkpt>
<trkpt lat="28.637189" lon="98.730247">
<time>2016-10-07T12:01:30Z</time></trkpt>
<trkpt lat="28.637339" lon="98.730017">
<time>2016-10-07T12:01:31Z</time></trkpt>
<trkpt lat="28.637569" lon="98.729648">
<time>2016-10-07T12:01:32Z</time></trkpt>
<trkpt lat="28.63773" lon="98.729388">
<time>2016-10-07T12:01:33Z</time></trkpt>
<trkpt lat="28.63787" lon="98.729159">
<time>2016-10-07T12:01:34Z</time></trkpt>
<trkpt lat="28.63798" lon="98.728979">
<time>2016-10-07T12:01:35Z</time></trkpt>
<trkpt lat="28.63812" lon="98.728749">
<time>2016-10-07T12:01:36Z</time></trkpt>
<trkpt lat="28.63837" lon="98.72832">
<time>2016-10-07T12:01:37Z</time></trkpt>
<trkpt lat="28.63855" lon="98.728011">
<time>2016-10-07T12:01:38Z</time></trkpt>
<trkpt lat="28.63866" lon="98.727791">
<time>2016-10-07T12:01:39Z</time></trkpt>
<trkpt lat="28.63879" lon="98.727551">
<time>2016-10-07T12:01:40Z</time></trkpt>
<trkpt lat="28.638871" lon="98.727372">
<time>2016-10-07T12:01:41Z</time></trkpt>
<trkpt lat="28.638951" lon="98.727182">
<time>2016-10-07T12:01:42Z</time></trkpt>
<trkpt lat="28.639031" lon="98.726972">
<time>2016-10-07T12:01:43Z</time></trkpt>
<trkpt lat="28.639081" lon="98.726812">
<time>2016-10-07T12:01:44Z</time></trkpt>
<trkpt lat="28.639121" lon="98.726683">
<time>2016-10-07T12:01:45Z</time></trkpt>
<trkpt lat="28.639191" lon="98.726393">
<time>2016-10-07T12:01:46Z</time></trkpt>
<trkpt lat="28.639291" lon="98.726014">
<time>2016-10-07T12:01:47Z</time></trkpt>
<trkpt lat="28.639442" lon="98.725425">
<time>2016-10-07T12:01:48Z</time></trkpt>
<trkpt lat="28.639482" lon="98.725285">
<time>2016-10-07T12:01:49Z</time></trkpt>
<trkpt lat="28.639512" lon="98.725215">
<time>2016-10-07T12:01:50Z</time></trkpt>
<trkpt lat="28.639542" lon="98.725135">
<time>2016-10-07T12:01:51Z</time></trkpt>
<trkpt lat="28.639602" lon="98.725065">
<time>2016-10-07T12:01:52Z</time></trkpt>
<trkpt lat="28.639662" lon="98.724996">
<time>2016-10-07T12:01:53Z</time></trkpt>
<trkpt lat="28.639732" lon="98.724936">
<time>2016-10-07T12:01:54Z</time></trkpt>
<trkpt lat="28.639922" lon="98.724756">
<time>2016-10-07T12:01:55Z</time></trkpt>
<trkpt lat="28.640042" lon="98.724586">
<time>2016-10-07T12:01:56Z</time></trkpt>
<trkpt lat="28.640112" lon="98.724456">
<time>2016-10-07T12:01:57Z</time></trkpt>
<trkpt lat="28.640193" lon="98.724307">
<time>2016-10-07T12:01:58Z</time></trkpt>
<trkpt lat="28.640253" lon="98.724167">
<time>2016-10-07T12:01:59Z</time></trkpt>
<trkpt lat="28.640293" lon="98.724077">
<time>2016-10-07T12:02:00Z</time></trkpt>
<trkpt lat="28.640353" lon="98.723977">
<time>2016-10-07T12:02:01Z</time></trkpt>
<trkpt lat="28.640423" lon="98.723788">
<time>2016-10-07T12:02:02Z</time></trkpt>
<trkpt lat="28.640453" lon="98.723718">
<time>2016-10-07T12:02:03Z</time></trkpt>
<trkpt lat="28.640483" lon="98.723648">
<time>2016-10-07T12:02:04Z</time></trkpt>
<trkpt lat="28.640543" lon="98.723548">
<time>2016-10-07T12:02:05Z</time></trkpt>
<trkpt lat="28.640583" lon="98.723478">
<time>2016-10-07T12:02:06Z</time></trkpt>
<trkpt lat="28.640653" lon="98.723388">
<time>2016-10-07T12:02:07Z</time></trkpt>
<trkpt lat="28.640733" lon="98.723318">
<time>2016-10-07T12:02:08Z</time></trkpt>
<trkpt lat="28.640793" lon="98.723278">
<time>2016-10-07T12:02:09Z</time></trkpt>
<trkpt lat="28.641133" lon="98.723089">
<time>2016-10-07T12:02:10Z</time></trkpt>
<trkpt lat="28.641453" lon="98.722919">
<time>2016-10-07T12:02:11Z</time></trkpt>
<trkpt lat="28.641693" lon="98.722749">
<time>2016-10-07T12:02:12Z</time></trkpt>
<trkpt lat="28.641843" lon="98.7226">
<time>2016-10-07T12:02:13Z</time></trkpt>
<trkpt lat="28.642003" lon="98.72241">
<time>2016-10-07T12:02:14Z</time></trkpt>
<trkpt lat="28.642334" lon="98.721951">
<time>2016-10-07T12:02:15Z</time></trkpt>
<trkpt lat="28.642754" lon="98.721362">
<time>2016-10-07T12:02:16Z</time></trkpt>
<trkpt lat="28.643184" lon="98.720763">
<time>2016-10-07T12:02:17Z</time></trkpt>
<trkpt lat="28.643264" lon="98.720683">
<time>2016-10-07T12:02:18Z</time></trkpt>
<trkpt lat="28.643315" lon="98.720643">
<time>2016-10-07T12:02:19Z</time></trkpt>
<trkpt lat="28.643355" lon="98.720603">
<time>2016-10-07T12:02:20Z</time></trkpt>
<trkpt lat="28.643415" lon="98.720563">
<time>2016-10-07T12:02:21Z</time></trkpt>
<trkpt lat="28.643515" lon="98.720523">
<time>2016-10-07T12:02:22Z</time></trkpt>
<trkpt lat="28.643585" lon="98.720503">
<time>2016-10-07T12:02:23Z</time></trkpt>
<trkpt lat="28.643694" lon="98.720484">
<time>2016-10-07T12:02:24Z</time></trkpt>
<trkpt lat="28.644314" lon="98.720374">
<time>2016-10-07T12:02:25Z</time></trkpt>
<trkpt lat="28.644824" lon="98.720284">
<time>2016-10-07T12:02:26Z</time></trkpt>
<trkpt lat="28.645044" lon="98.720254">
<time>2016-10-07T12:02:27Z</time></trkpt>
<trkpt lat="28.645224" lon="98.720234">
<time>2016-10-07T12:02:28Z</time></trkpt>
<trkpt lat="28.645544" lon="98.720214">
<time>2016-10-07T12:02:29Z</time></trkpt>
<trkpt lat="28.645704" lon="98.720204">
<time>2016-10-07T12:02:30Z</time></trkpt>
<trkpt lat="28.645964" lon="98.720204">
<time>2016-10-07T12:02:31Z</time></trkpt>
<trkpt lat="28.646193" lon="98.720204">
<time>2016-10-07T12:02:32Z</time></trkpt>
<trkpt lat="28.647033" lon="98.720214">
<time>2016-10-07T12:02:33Z</time></trkpt>
<trkpt lat="28.647213" lon="98.720224">
<time>2016-10-07T12:02:34Z</time></trkpt>
<trkpt lat="28.647393" lon="98.720214">
<time>2016-10-07T12:02:35Z</time></trkpt>
<trkpt lat="28.647523" lon="98.720204">
<time>2016-10-07T12:02:36Z</time></trkpt>
<trkpt lat="28.647643" lon="98.720194">
<time>2016-10-07T12:02:37Z</time></trkpt>
<trkpt lat="28.647803" lon="98.720164">
<time>2016-10-07T12:02:38Z</time></trkpt>
<trkpt lat="28.647973" lon="98.720114">
<time>2016-10-07T12:02:39Z</time></trkpt>
<trkpt lat="28.648173" lon="98.720044">
<time>2016-10-07T12:02:40Z</time></trkpt>
<trkpt lat="28.648343" lon="98.719964">
<time>2016-10-07T12:02:41Z</time></trkpt>
<trkpt lat="28.648523" lon="98.719895">
<time>2016-10-07T12:02:42Z</time></trkpt>
<trkpt lat="28.648883" lon="98.719735">
<time>2016-10-07T12:02:43Z</time></trkpt>
<trkpt lat="28.649032" lon="98.719675">
<time>2016-10-07T12:02:44Z</time></trkpt>
<trkpt lat="28.649232" lon="98.719575">
<time>2016-10-07T12:02:45Z</time></trkpt>
<trkpt lat="28.649322" lon="98.719535">
<time>2016-10-07T12:02:46Z</time></trkpt>
<trkpt lat="28.649433" lon="98.719465">
<time>2016-10-07T12:02:47Z</time></trkpt>
<trkpt lat="28.649653" lon="98.719316">
<time>2016-10-07T12:02:48Z</time></trkpt>
<trkpt lat="28.649813" lon="98.719176">
<time>2016-10-07T12:02:49Z</time></trkpt>
<trkpt lat="28.650003" lon="98.719026">
<time>2016-10-07T12:02:50Z</time></trkpt>
<trkpt lat="28.650153" lon="98.718916">
<time>2016-10-07T12:02:51Z</time></trkpt>
<trkpt lat="28.650373" lon="98.718767">
<time>2016-10-07T12:02:52Z</time></trkpt>
<trkpt lat="28.650553" lon="98.718647">
<time>2016-10-07T12:02:53Z</time></trkpt>
<trkpt lat="28.650713" lon="98.718547">
<time>2016-10-07T12:02:54Z</time></trkpt>
<trkpt lat="28.650823" lon="98.718467">
<time>2016-10-07T12:02:55Z</time></trkpt>
<trkpt lat="28.650963" lon="98.718357">
<time>2016-10-07T12:02:56Z</time></trkpt>
<trkpt lat="28.651173" lon="98.718128">
<time>2016-10-07T12:02:57Z</time></trkpt>
<trkpt lat="28.651243" lon="98.718078">
<time>2016-10-07T12:02:58Z</time></trkpt>
<trkpt lat="28.651303" lon="98.718038">
<time>2016-10-07T12:02:59Z</time></trkpt>
<trkpt lat="28.651413" lon="98.717988">
<time>2016-10-07T12:03:00Z</time></trkpt>
<trkpt lat="28.651523" lon="98.717948">
<time>2016-10-07T12:03:01Z</time></trkpt>
<trkpt lat="28.651643" lon="98.717908">
<time>2016-10-07T12:03:02Z</time></trkpt>
<trkpt lat="28.651793" lon="98.717838">
<time>2016-10-07T12:03:03Z</time></trkpt>
<trkpt lat="28.651883" lon="98.717799">
<time>2016-10-07T12:03:04Z</time></trkpt>
<trkpt lat="28.652033" lon="98.717709">
<time>2016-10-07T12:03:05Z</time></trkpt>
<trkpt lat="28.652193" lon="98.717599">
<time>2016-10-07T12:03:06Z</time></trkpt>
<trkpt lat="28.652273" lon="98.717549">
<time>2016-10-07T12:03:07Z</time></trkpt>
<trkpt lat="28.652383" lon="98.717459">
<time>2016-10-07T12:03:08Z</time></trkpt>
<trkpt lat="28.652473" lon="98.717379">
<time>2016-10-07T12:03:09Z</time></trkpt>
<trkpt lat="28.652753" lon="98.71711">
<time>2016-10-07T12:03:10Z</time></trkpt>
<trkpt lat="28.653134" lon="98.716741">
<time>2016-10-07T12:03:11Z</time></trkpt>
<trkpt lat="28.653244" lon="98.716621">
<time>2016-10-07T12:03:12Z</time></trkpt>
<trkpt lat="28.653364" lon="98.716471">
<time>2016-10-07T12:03:13Z</time></trkpt>
<trkpt lat="28.653514" lon="98.716291">
<time>2016-10-07T12:03:14Z</time></trkpt>
<trkpt lat="28.653714" lon="98.716042">
<time>2016-10-07T12:03:15Z</time></trkpt>
<trkpt lat="28.653824" lon="98.715862">
<time>2016-10-07T12:03:16Z</time></trkpt>
<trkpt lat="28.653934" lon="98.715673">
<time>2016-10-07T12:03:17Z</time></trkpt>
<trkpt lat="28.654295" lon="98.715014">
<time>2016-10-07T12:03:18Z</time></trkpt>
<trkpt lat="28.654525" lon="98.714615">
<time>2016-10-07T12:03:19Z</time></trkpt>
<trkpt lat="28.654666" lon="98.714355">
<time>2016-10-07T12:03:20Z</time></trkpt>
<trkpt lat="28.654746" lon="98.714226">
<time>2016-10-07T12:03:21Z</time></trkpt>
<trkpt lat="28.654816" lon="98.714126">
<time>2016-10-07T12:03:22Z</time></trkpt>
<trkpt lat="28.654936" lon="98.713946">
<time>2016-10-07T12:03:23Z</time></trkpt>
<trkpt lat="28.655106" lon="98.713747">
<time>2016-10-07T12:03:24Z</time></trkpt>
<trkpt lat="28.655236" lon="98.713617">
<time>2016-10-07T12:03:25Z</time></trkpt>
<trkpt lat="28.655286" lon="98.713577">
<time>2016-10-07T12:03:26Z</time></trkpt>
<trkpt lat="28.655376" lon="98.713507">
<time>2016-10-07T12:03:27Z</time></trkpt>
<trkpt lat="28.655476" lon="98.713427">
<time>2016-10-07T12:03:28Z</time></trkpt>
<trkpt lat="28.655556" lon="98.713387">
<time>2016-10-07T12:03:29Z</time></trkpt>
<trkpt lat="28.655626" lon="98.713358">
<time>2016-10-07T12:03:30Z</time></trkpt>
<trkpt lat="28.655716" lon="98.713328">
<time>2016-10-07T12:03:31Z</time></trkpt>
<trkpt lat="28.655806" lon="98.713308">
<time>2016-10-07T12:03:32Z</time></trkpt>
<trkpt lat="28.655896" lon="98.713288">
<time>2016-10-07T12:03:33Z</time></trkpt>
<trkpt lat="28.656106" lon="98.713268">
<time>2016-10-07T12:03:34Z</time></trkpt>
<trkpt lat="28.656296" lon="98.713248">
<time>2016-10-07T12:03:35Z</time></trkpt>
<trkpt lat="28.656436" lon="98.713218">
<time>2016-10-07T12:03:36Z</time></trkpt>
<trkpt lat="28.656556" lon="98.713198">
<time>2016-10-07T12:03:37Z</time></trkpt>
<trkpt lat="28.656706" lon="98.713158">
<time>2016-10-07T12:03:38Z</time></trkpt>
<trkpt lat="28.656886" lon="98.713108">
<time>2016-10-07T12:03:39Z</time></trkpt>
<trkpt lat="28.656986" lon="98.713088">
<time>2016-10-07T12:03:40Z</time></trkpt>
<trkpt lat="28.657086" lon="98.713078">
<time>2016-10-07T12:03:41Z</time></trkpt>
<trkpt lat="28.657156" lon="98.713088">
<time>2016-10-07T12:03:42Z</time></trkpt>
<trkpt lat="28.657216" lon="98.713088">
<time>2016-10-07T12:03:43Z</time></trkpt>
<trkpt lat="28.657326" lon="98.713108">
<time>2016-10-07T12:03:44Z</time></trkpt>
<trkpt lat="28.657486" lon="98.713158">
<time>2016-10-07T12:03:45Z</time></trkpt>
<trkpt lat="28.657576" lon="98.713178">
<time>2016-10-07T12:03:46Z</time></trkpt>
<trkpt lat="28.657655" lon="98.713188">
<time>2016-10-07T12:03:47Z</time></trkpt>
<trkpt lat="28.657725" lon="98.713198">
<time>2016-10-07T12:03:48Z</time></trkpt>
<trkpt lat="28.657785" lon="98.713188">
<time>2016-10-07T12:03:49Z</time></trkpt>
<trkpt lat="28.657865" lon="98.713188">
<time>2016-10-07T12:03:50Z</time></trkpt>
<trkpt lat="28.657935" lon="98.713178">
<time>2016-10-07T12:03:51Z</time></trkpt>
<trkpt lat="28.658235" lon="98.713118">
<time>2016-10-07T12:03:52Z</time></trkpt>
<trkpt lat="28.658535" lon="98.713108">
<time>2016-10-07T12:03:53Z</time></trkpt>
<trkpt lat="28.658825" lon="98.713098">
<time>2016-10-07T12:03:54Z</time></trkpt>
<trkpt lat="28.659325" lon="98.713078">
<time>2016-10-07T12:03:55Z</time></trkpt>
<trkpt lat="28.659585" lon="98.713078">
<time>2016-10-07T12:03:56Z</time></trkpt>
<trkpt lat="28.659844" lon="98.713088">
<time>2016-10-07T12:03:57Z</time></trkpt>
<trkpt lat="28.660954" lon="98.713168">
<time>2016-10-07T12:03:58Z</time></trkpt>
<trkpt lat="28.661383" lon="98.713168">
<time>2016-10-07T12:03:59Z</time></trkpt>
<trkpt lat="28.661893" lon="98.713188">
<time>2016-10-07T12:04:00Z</time></trkpt>
<trkpt lat="28.662083" lon="98.713198">
<time>2016-10-07T12:04:01Z</time></trkpt>
<trkpt lat="28.662253" lon="98.713218">
<time>2016-10-07T12:04:02Z</time></trkpt>
<trkpt lat="28.662423" lon="98.713258">
<time>2016-10-07T12:04:03Z</time></trkpt>
<trkpt lat="28.662653" lon="98.713307">
<time>2016-10-07T12:04:04Z</time></trkpt>
<trkpt lat="28.662892" lon="98.713397">
<time>2016-10-07T12:04:05Z</time></trkpt>
<trkpt lat="28.663232" lon="98.713577">
<time>2016-10-07T12:04:06Z</time></trkpt>
<trkpt lat="28.663312" lon="98.713637">
<time>2016-10-07T12:04:07Z</time></trkpt>
<trkpt lat="28.663362" lon="98.713697">
<time>2016-10-07T12:04:08Z</time></trkpt>
<trkpt lat="28.663412" lon="98.713767">
<time>2016-10-07T12:04:09Z</time></trkpt>
<trkpt lat="28.663511" lon="98.713976">
<time>2016-10-07T12:04:10Z</time></trkpt>
<trkpt lat="28.663541" lon="98.714026">
<time>2016-10-07T12:04:11Z</time></trkpt>
<trkpt lat="28.663581" lon="98.714066">
<time>2016-10-07T12:04:12Z</time></trkpt>
<trkpt lat="28.663641" lon="98.714116">
<time>2016-10-07T12:04:13Z</time></trkpt>
<trkpt lat="28.663881" lon="98.714206">
<time>2016-10-07T12:04:14Z</time></trkpt>
<trkpt lat="28.66415" lon="98.714315">
<time>2016-10-07T12:04:15Z</time></trkpt>
<trkpt lat="28.66426" lon="98.714365">
<time>2016-10-07T12:04:16Z</time></trkpt>
<trkpt lat="28.6644" lon="98.714415">
<time>2016-10-07T12:04:17Z</time></trkpt>
<trkpt lat="28.66494" lon="98.714575">
<time>2016-10-07T12:04:18Z</time></trkpt>
<trkpt lat="28.665409" lon="98.714734">
<time>2016-10-07T12:04:19Z</time></trkpt>
<trkpt lat="28.665509" lon="98.714754">
<time>2016-10-07T12:04:20Z</time></trkpt>
<trkpt lat="28.665639" lon="98.714774">
<time>2016-10-07T12:04:21Z</time></trkpt>
<trkpt lat="28.665839" lon="98.714764">
<time>2016-10-07T12:04:22Z</time></trkpt>
<trkpt lat="28.666299" lon="98.714695">
<time>2016-10-07T12:04:23Z</time></trkpt>
<trkpt lat="28.666699" lon="98.714625">
<time>2016-10-07T12:04:24Z</time></trkpt>
<trkpt lat="28.666819" lon="98.714595">
<time>2016-10-07T12:04:25Z</time></trkpt>
<trkpt lat="28.666969" lon="98.714565">
<time>2016-10-07T12:04:26Z</time></trkpt>
<trkpt lat="28.667079" lon="98.714535">
<time>2016-10-07T12:04:27Z</time></trkpt>
<trkpt lat="28.667179" lon="98.714505">
<time>2016-10-07T12:04:28Z</time></trkpt>
<trkpt lat="28.667279" lon="98.714475">
<time>2016-10-07T12:04:29Z</time></trkpt>
<trkpt lat="28.667389" lon="98.714425">
<time>2016-10-07T12:04:30Z</time></trkpt>
<trkpt lat="28.667499" lon="98.714375">
<time>2016-10-07T12:04:31Z</time></trkpt>
<trkpt lat="28.667619" lon="98.714305">
<time>2016-10-07T12:04:32Z</time></trkpt>
<trkpt lat="28.667819" lon="98.714196">
<time>2016-10-07T12:04:33Z</time></trkpt>
<trkpt lat="28.667929" lon="98.714136">
<time>2016-10-07T12:04:34Z</time></trkpt>
<trkpt lat="28.668149" lon="98.714016">
<time>2016-10-07T12:04:35Z</time></trkpt>
<trkpt lat="28.668269" lon="98.713946">
<time>2016-10-07T12:04:36Z</time></trkpt>
<trkpt lat="28.668379" lon="98.713876">
<time>2016-10-07T12:04:37Z</time></trkpt>
<trkpt lat="28.668479" lon="98.713806">
<time>2016-10-07T12:04:38Z</time></trkpt>
<trkpt lat="28.668549" lon="98.713766">
<time>2016-10-07T12:04:39Z</time></trkpt>
<trkpt lat="28.668629" lon="98.713697">
<time>2016-10-07T12:04:40Z</time></trkpt>
<trkpt lat="28.668699" lon="98.713647">
<time>2016-10-07T12:04:41Z</time></trkpt>
<trkpt lat="28.668779" lon="98.713577">
<time>2016-10-07T12:04:42Z</time></trkpt>
<trkpt lat="28.668959" lon="98.713427">
<time>2016-10-07T12:04:43Z</time></trkpt>
<trkpt lat="28.669089" lon="98.713307">
<time>2016-10-07T12:04:44Z</time></trkpt>
<trkpt lat="28.669159" lon="98.713247">
<time>2016-10-07T12:04:45Z</time></trkpt>
<trkpt lat="28.669229" lon="98.713188">
<time>2016-10-07T12:04:46Z</time></trkpt>
<trkpt lat="28.669289" lon="98.713138">
<time>2016-10-07T12:04:47Z</time></trkpt>
<trkpt lat="28.669349" lon="98.713088">
<time>2016-10-07T12:04:48Z</time></trkpt>
<trkpt lat="28.669419" lon="98.713038">
<time>2016-10-07T12:04:49Z</time></trkpt>
<trkpt lat="28.669479" lon="98.712988">
<time>2016-10-07T12:04:50Z</time></trkpt>
<trkpt lat="28.669589" lon="98.712908">
<time>2016-10-07T12:04:51Z</time></trkpt>
<trkpt lat="28.669699" lon="98.712838">
<time>2016-10-07T12:04:52Z</time></trkpt>
<trkpt lat="28.669799" lon="98.712769">
<time>2016-10-07T12:04:53Z</time></trkpt>
<trkpt lat="28.669919" lon="98.712699">
<time>2016-10-07T12:04:54Z</time></trkpt>
<trkpt lat="28.670039" lon="98.712629">
<time>2016-10-07T12:04:55Z</time></trkpt>
<trkpt lat="28.670159" lon="98.712559">
<time>2016-10-07T12:04:56Z</time></trkpt>
<trkpt lat="28.670239" lon="98.712509">
<time>2016-10-07T12:04:57Z</time></trkpt>
<trkpt lat="28.670329" lon="98.712469">
<time>2016-10-07T12:04:58Z</time></trkpt>
<trkpt lat="28.670449" lon="98.712409">
<time>2016-10-07T12:04:59Z</time></trkpt>
<trkpt lat="28.670549" lon="98.712369">
<time>2016-10-07T12:05:00Z</time></trkpt>
<trkpt lat="28.670679" lon="98.712319">
<time>2016-10-07T12:05:01Z</time></trkpt>
<trkpt lat="28.670799" lon="98.71228">
<time>2016-10-07T12:05:02Z</time></trkpt>
<trkpt lat="28.670909" lon="98.71225">
<time>2016-10-07T12:05:03Z</time></trkpt>
<trkpt lat="28.671039" lon="98.71221">
<time>2016-10-07T12:05:04Z</time></trkpt>
<trkpt lat="28.671279" lon="98.71215">
<time>2016-10-07T12:05:05Z</time></trkpt>
<trkpt lat="28.671409" lon="98.71212">
<time>2016-10-07T12:05:06Z</time></trkpt>
<trkpt lat="28.671619" lon="98.71207">
<time>2016-10-07T12:05:07Z</time></trkpt>
<trkpt lat="28.671779" lon="98.71203">
<time>2016-10-07T12:05:08Z</time></trkpt>
<trkpt lat="28.672029" lon="98.71199">
<time>2016-10-07T12:05:09Z</time></trkpt>
<trkpt lat="28.672269" lon="98.71194">
<time>2016-10-07T12:05:10Z</time></trkpt>
<trkpt lat="28.672449" lon="98.71192">
<time>2016-10-07T12:05:11Z</time></trkpt>
<trkpt lat="28.672699" lon="98.71188">
<time>2016-10-07T12:05:12Z</time></trkpt>
<trkpt lat="28.672989" lon="98.71184">
<time>2016-10-07T12:05:13Z</time></trkpt>
<trkpt lat="28.673359" lon="98.711791">
<time>2016-10-07T12:05:14Z</time></trkpt>
<trkpt lat="28.673479" lon="98.711781">
<time>2016-10-07T12:05:15Z</time></trkpt>
<trkpt lat="28.673608" lon="98.711761">
<time>2016-10-07T12:05:16Z</time></trkpt>
<trkpt lat="28.673828" lon="98.711721">
<time>2016-10-07T12:05:17Z</time></trkpt>
<trkpt lat="28.673978" lon="98.711681">
<time>2016-10-07T12:05:18Z</time></trkpt>
<trkpt lat="28.674118" lon="98.711651">
<time>2016-10-07T12:05:19Z</time></trkpt>
<trkpt lat="28.674218" lon="98.711611">
<time>2016-10-07T12:05:20Z</time></trkpt>
<trkpt lat="28.674328" lon="98.711571">
<time>2016-10-07T12:05:21Z</time></trkpt>
<trkpt lat="28.674508" lon="98.711501">
<time>2016-10-07T12:05:22Z</time></trkpt>
<trkpt lat="28.674688" lon="98.711431">
<time>2016-10-07T12:05:23Z</time></trkpt>
<trkpt lat="28.674848" lon="98.711361">
<time>2016-10-07T12:05:24Z</time></trkpt>
<trkpt lat="28.675058" lon="98.711282">
<time>2016-10-07T12:05:25Z</time></trkpt>
<trkpt lat="28.675298" lon="98.711182">
<time>2016-10-07T12:05:26Z</time></trkpt>
<trkpt lat="28.675408" lon="98.711132">
<time>2016-10-07T12:05:27Z</time></trkpt>
<trkpt lat="28.675478" lon="98.711092">
<time>2016-10-07T12:05:28Z</time></trkpt>
<trkpt lat="28.675548" lon="98.711042">
<time>2016-10-07T12:05:29Z</time></trkpt>
<trkpt lat="28.675608" lon="98.710992">
<time>2016-10-07T12:05:30Z</time></trkpt>
<trkpt lat="28.675668" lon="98.710942">
<time>2016-10-07T12:05:31Z</time></trkpt>
<trkpt lat="28.675728" lon="98.710882">
<time>2016-10-07T12:05:32Z</time></trkpt>
<trkpt lat="28.675789" lon="98.710803">
<time>2016-10-07T12:05:33Z</time></trkpt>
<trkpt lat="28.675849" lon="98.710713">
<time>2016-10-07T12:05:34Z</time></trkpt>
<trkpt lat="28.675959" lon="98.710553">
<time>2016-10-07T12:05:35Z</time></trkpt>
<trkpt lat="28.676009" lon="98.710453">
<time>2016-10-07T12:05:36Z</time></trkpt>
<trkpt lat="28.676079" lon="98.710334">
<time>2016-10-07T12:05:37Z</time></trkpt>
<trkpt lat="28.676129" lon="98.710244">
<time>2016-10-07T12:05:38Z</time></trkpt>
<trkpt lat="28.676209" lon="98.710064">
<time>2016-10-07T12:05:39Z</time></trkpt>
<trkpt lat="28.676259" lon="98.709954">
<time>2016-10-07T12:05:40Z</time></trkpt>
<trkpt lat="28.67631" lon="98.709815">
<time>2016-10-07T12:05:41Z</time></trkpt>
<trkpt lat="28.67635" lon="98.709695">
<time>2016-10-07T12:05:42Z</time></trkpt>
<trkpt lat="28.67639" lon="98.709555">
<time>2016-10-07T12:05:43Z</time></trkpt>
<trkpt lat="28.67644" lon="98.709386">
<time>2016-10-07T12:05:44Z</time></trkpt>
<trkpt lat="28.67647" lon="98.709266">
<time>2016-10-07T12:05:45Z</time></trkpt>
<trkpt lat="28.67651" lon="98.709106">
<time>2016-10-07T12:05:46Z</time></trkpt>
<trkpt lat="28.676541" lon="98.708947">
<time>2016-10-07T12:05:47Z</time></trkpt>
<trkpt lat="28.676561" lon="98.708807">
<time>2016-10-07T12:05:48Z</time></trkpt>
<trkpt lat="28.676581" lon="98.708687">
<time>2016-10-07T12:05:49Z</time></trkpt>
<trkpt lat="28.676591" lon="98.708598">
<time>2016-10-07T12:05:50Z</time></trkpt>
<trkpt lat="28.676591" lon="98.708528">
<time>2016-10-07T12:05:51Z</time></trkpt>
<trkpt lat="28.676601" lon="98.708438">
<time>2016-10-07T12:05:52Z</time></trkpt>
<trkpt lat="28.676601" lon="98.708328">
<time>2016-10-07T12:05:53Z</time></trkpt>
<trkpt lat="28.676592" lon="98.708268">
<time>2016-10-07T12:05:54Z</time></trkpt>
<trkpt lat="28.676592" lon="98.708168">
<time>2016-10-07T12:05:55Z</time></trkpt>
<trkpt lat="28.676582" lon="98.708079">
<time>2016-10-07T12:05:56Z</time></trkpt>
<trkpt lat="28.676562" lon="98.707969">
<time>2016-10-07T12:05:57Z</time></trkpt>
<trkpt lat="28.676542" lon="98.707819">
<time>2016-10-07T12:05:58Z</time></trkpt>
<trkpt lat="28.676522" lon="98.7077">
<time>2016-10-07T12:05:59Z</time></trkpt>
<trkpt lat="28.676493" lon="98.70757">
<time>2016-10-07T12:06:00Z</time></trkpt>
<trkpt lat="28.676473" lon="98.70744">
<time>2016-10-07T12:06:01Z</time></trkpt>
<trkpt lat="28.676463" lon="98.70732">
<time>2016-10-07T12:06:02Z</time></trkpt>
<trkpt lat="28.676443" lon="98.707201">
<time>2016-10-07T12:06:03Z</time></trkpt>
<trkpt lat="28.676413" lon="98.707071">
<time>2016-10-07T12:06:04Z</time></trkpt>
<trkpt lat="28.676394" lon="98.706931">
<time>2016-10-07T12:06:05Z</time></trkpt>
<trkpt lat="28.676364" lon="98.706802">
<time>2016-10-07T12:06:06Z</time></trkpt>
<trkpt lat="28.676344" lon="98.706682">
<time>2016-10-07T12:06:07Z</time></trkpt>
<trkpt lat="28.676334" lon="98.706582">
<time>2016-10-07T12:06:08Z</time></trkpt>
<trkpt lat="28.676324" lon="98.706492">
<time>2016-10-07T12:06:09Z</time></trkpt>
<trkpt lat="28.676314" lon="98.706363">
<time>2016-10-07T12:06:10Z</time></trkpt>
<trkpt lat="28.676315" lon="98.706223">
<time>2016-10-07T12:06:11Z</time></trkpt>
<trkpt lat="28.676325" lon="98.706033">
<time>2016-10-07T12:06:12Z</time></trkpt>
<trkpt lat="28.676335" lon="98.705844">
<time>2016-10-07T12:06:13Z</time></trkpt>
<trkpt lat="28.676376" lon="98.705505">
<time>2016-10-07T12:06:14Z</time></trkpt>
<trkpt lat="28.676396" lon="98.705255">
<time>2016-10-07T12:06:15Z</time></trkpt>
<trkpt lat="28.676416" lon="98.705116">
<time>2016-10-07T12:06:16Z</time></trkpt>
<trkpt lat="28.676436" lon="98.704986">
<time>2016-10-07T12:06:17Z</time></trkpt>
<trkpt lat="28.676447" lon="98.704896">
<time>2016-10-07T12:06:18Z</time></trkpt>
<trkpt lat="28.676477" lon="98.704796">
<time>2016-10-07T12:06:19Z</time></trkpt>
<trkpt lat="28.676497" lon="98.704707">
<time>2016-10-07T12:06:20Z</time></trkpt>
<trkpt lat="28.676537" lon="98.704597">
<time>2016-10-07T12:06:21Z</time></trkpt>
<trkpt lat="28.676557" lon="98.704517">
<time>2016-10-07T12:06:22Z</time></trkpt>
<trkpt lat="28.676607" lon="98.704407">
<time>2016-10-07T12:06:23Z</time></trkpt>
<trkpt lat="28.676677" lon="98.704228">
<time>2016-10-07T12:06:24Z</time></trkpt>
<trkpt lat="28.676758" lon="98.704038">
<time>2016-10-07T12:06:25Z</time></trkpt>
<trkpt lat="28.676888" lon="98.703709">
<time>2016-10-07T12:06:26Z</time></trkpt>
<trkpt lat="28.677018" lon="98.70341">
<time>2016-10-07T12:06:27Z</time></trkpt>
<trkpt lat="28.677139" lon="98.70309">
<time>2016-10-07T12:06:28Z</time></trkpt>
<trkpt lat="28.677239" lon="98.702831">
<time>2016-10-07T12:06:29Z</time></trkpt>
<trkpt lat="28.67733" lon="98.702602">
<time>2016-10-07T12:06:30Z</time></trkpt>
<trkpt lat="28.67742" lon="98.702362">
<time>2016-10-07T12:06:31Z</time></trkpt>
<trkpt lat="28.67752" lon="98.702073">
<time>2016-10-07T12:06:32Z</time></trkpt>
<trkpt lat="28.67756" lon="98.701953">
<time>2016-10-07T12:06:33Z</time></trkpt>
<trkpt lat="28.677601" lon="98.701853">
<time>2016-10-07T12:06:34Z</time></trkpt>
<trkpt lat="28.677651" lon="98.701774">
<time>2016-10-07T12:06:35Z</time></trkpt>
<trkpt lat="28.677681" lon="98.701704">
<time>2016-10-07T12:06:36Z</time></trkpt>
<trkpt lat="28.677731" lon="98.701644">
<time>2016-10-07T12:06:37Z</time></trkpt>
<trkpt lat="28.677771" lon="98.701584">
<time>2016-10-07T12:06:38Z</time></trkpt>
<trkpt lat="28.677821" lon="98.701534">
<time>2016-10-07T12:06:39Z</time></trkpt>
<trkpt lat="28.677891" lon="98.701474">
<time>2016-10-07T12:06:40Z</time></trkpt>
<trkpt lat="28.677951" lon="98.701434">
<time>2016-10-07T12:06:41Z</time></trkpt>
<trkpt lat="28.678011" lon="98.701404">
<time>2016-10-07T12:06:42Z</time></trkpt>
<trkpt lat="28.678081" lon="98.701365">
<time>2016-10-07T12:06:43Z</time></trkpt>
<trkpt lat="28.678181" lon="98.701325">
<time>2016-10-07T12:06:44Z</time></trkpt>
<trkpt lat="28.678261" lon="98.701295">
<time>2016-10-07T12:06:45Z</time></trkpt>
<trkpt lat="28.678401" lon="98.701235">
<time>2016-10-07T12:06:46Z</time></trkpt>
<trkpt lat="28.678551" lon="98.701165">
<time>2016-10-07T12:06:47Z</time></trkpt>
<trkpt lat="28.678681" lon="98.701105">
<time>2016-10-07T12:06:48Z</time></trkpt>
<trkpt lat="28.678821" lon="98.701035">
<time>2016-10-07T12:06:49Z</time></trkpt>
<trkpt lat="28.678921" lon="98.700975">
<time>2016-10-07T12:06:50Z</time></trkpt>
<trkpt lat="28.679021" lon="98.700926">
<time>2016-10-07T12:06:51Z</time></trkpt>
<trkpt lat="28.679301" lon="98.700756">
<time>2016-10-07T12:06:52Z</time></trkpt>
<trkpt lat="28.679661" lon="98.700556">
<time>2016-10-07T12:06:53Z</time></trkpt>
<trkpt lat="28.679841" lon="98.700457">
<time>2016-10-07T12:06:54Z</time></trkpt>
<trkpt lat="28.679962" lon="98.700397">
<time>2016-10-07T12:06:55Z</time></trkpt>
<trkpt lat="28.680062" lon="98.700337">
<time>2016-10-07T12:06:56Z</time></trkpt>
<trkpt lat="28.680152" lon="98.700267">
<time>2016-10-07T12:06:57Z</time></trkpt>
<trkpt lat="28.680222" lon="98.700217">
<time>2016-10-07T12:06:58Z</time></trkpt>
<trkpt lat="28.680292" lon="98.700157">
<time>2016-10-07T12:06:59Z</time></trkpt>
<trkpt lat="28.680372" lon="98.700088">
<time>2016-10-07T12:07:00Z</time></trkpt>
<trkpt lat="28.680452" lon="98.700008">
<time>2016-10-07T12:07:01Z</time></trkpt>
<trkpt lat="28.680542" lon="98.699918">
<time>2016-10-07T12:07:02Z</time></trkpt>
<trkpt lat="28.680642" lon="98.699808">
<time>2016-10-07T12:07:03Z</time></trkpt>
<trkpt lat="28.680742" lon="98.699669">
<time>2016-10-07T12:07:04Z</time></trkpt>
<trkpt lat="28.680862" lon="98.699499">
<time>2016-10-07T12:07:05Z</time></trkpt>
<trkpt lat="28.680963" lon="98.699359">
<time>2016-10-07T12:07:06Z</time></trkpt>
<trkpt lat="28.681133" lon="98.69912">
<time>2016-10-07T12:07:07Z</time></trkpt>
<trkpt lat="28.681293" lon="98.698891">
<time>2016-10-07T12:07:08Z</time></trkpt>
<trkpt lat="28.681504" lon="98.698591">
<time>2016-10-07T12:07:09Z</time></trkpt>
<trkpt lat="28.681644" lon="98.698382">
<time>2016-10-07T12:07:10Z</time></trkpt>
<trkpt lat="28.681714" lon="98.698292">
<time>2016-10-07T12:07:11Z</time></trkpt>
<trkpt lat="28.681794" lon="98.698182">
<time>2016-10-07T12:07:12Z</time></trkpt>
<trkpt lat="28.681864" lon="98.698103">
<time>2016-10-07T12:07:13Z</time></trkpt>
<trkpt lat="28.681934" lon="98.698003">
<time>2016-10-07T12:07:14Z</time></trkpt>
<trkpt lat="28.682175" lon="98.697713">
<time>2016-10-07T12:07:15Z</time></trkpt>
<trkpt lat="28.682355" lon="98.697484">
<time>2016-10-07T12:07:16Z</time></trkpt>
<trkpt lat="28.682515" lon="98.697275">
<time>2016-10-07T12:07:17Z</time></trkpt>
<trkpt lat="28.682685" lon="98.697085">
<time>2016-10-07T12:07:18Z</time></trkpt>
<trkpt lat="28.682735" lon="98.697025">
<time>2016-10-07T12:07:19Z</time></trkpt>
<trkpt lat="28.682785" lon="98.696975">
<time>2016-10-07T12:07:20Z</time></trkpt>
<trkpt lat="28.682846" lon="98.696935">
<time>2016-10-07T12:07:21Z</time></trkpt>
<trkpt lat="28.682896" lon="98.696896">
<time>2016-10-07T12:07:22Z</time></trkpt>
<trkpt lat="28.682956" lon="98.696866">
<time>2016-10-07T12:07:23Z</time></trkpt>
<trkpt lat="28.682996" lon="98.696836">
<time>2016-10-07T12:07:24Z</time></trkpt>
<trkpt lat="28.683046" lon="98.696816">
<time>2016-10-07T12:07:25Z</time></trkpt>
<trkpt lat="28.683106" lon="98.696786">
<time>2016-10-07T12:07:26Z</time></trkpt>
<trkpt lat="28.683166" lon="98.696766">
<time>2016-10-07T12:07:27Z</time></trkpt>
<trkpt lat="28.683256" lon="98.696736">
<time>2016-10-07T12:07:28Z</time></trkpt>
<trkpt lat="28.683426" lon="98.696696">
<time>2016-10-07T12:07:29Z</time></trkpt>
<trkpt lat="28.683636" lon="98.696636">
<time>2016-10-07T12:07:30Z</time></trkpt>
<trkpt lat="28.683796" lon="98.696586">
<time>2016-10-07T12:07:31Z</time></trkpt>
<trkpt lat="28.683946" lon="98.696536">
<time>2016-10-07T12:07:32Z</time></trkpt>
<trkpt lat="28.684066" lon="98.696507">
<time>2016-10-07T12:07:33Z</time></trkpt>
<trkpt lat="28.684265" lon="98.696457">
<time>2016-10-07T12:07:34Z</time></trkpt>
<trkpt lat="28.684645" lon="98.696347">
<time>2016-10-07T12:07:35Z</time></trkpt>
<trkpt lat="28.685015" lon="98.696237">
<time>2016-10-07T12:07:36Z</time></trkpt>
<trkpt lat="28.685175" lon="98.696197">
<time>2016-10-07T12:07:37Z</time></trkpt>
<trkpt lat="28.685275" lon="98.696177">
<time>2016-10-07T12:07:38Z</time></trkpt>
<trkpt lat="28.685355" lon="98.696157">
<time>2016-10-07T12:07:39Z</time></trkpt>
<trkpt lat="28.685475" lon="98.696137">
<time>2016-10-07T12:07:40Z</time></trkpt>
<trkpt lat="28.685575" lon="98.696127">
<time>2016-10-07T12:07:41Z</time></trkpt>
<trkpt lat="28.685685" lon="98.696127">
<time>2016-10-07T12:07:42Z</time></trkpt>
<trkpt lat="28.685795" lon="98.696137">
<time>2016-10-07T12:07:43Z</time></trkpt>
<trkpt lat="28.685915" lon="98.696157">
<time>2016-10-07T12:07:44Z</time></trkpt>
<trkpt lat="28.686015" lon="98.696177">
<time>2016-10-07T12:07:45Z</time></trkpt>
<trkpt lat="28.686155" lon="98.696207">
<time>2016-10-07T12:07:46Z</time></trkpt>
<trkpt lat="28.686285" lon="98.696237">
<time>2016-10-07T12:07:47Z</time></trkpt>
<trkpt lat="28.686425" lon="98.696267">
<time>2016-10-07T12:07:48Z</time></trkpt>
<trkpt lat="28.686584" lon="98.696287">
<time>2016-10-07T12:07:49Z</time></trkpt>
<trkpt lat="28.686744" lon="98.696297">
<time>2016-10-07T12:07:50Z</time></trkpt>
<trkpt lat="28.686964" lon="98.696317">
<time>2016-10-07T12:07:51Z</time></trkpt>
<trkpt lat="28.687094" lon="98.696317">
<time>2016-10-07T12:07:52Z</time></trkpt>
<trkpt lat="28.687204" lon="98.696337">
<time>2016-10-07T12:07:53Z</time></trkpt>
<trkpt lat="28.687284" lon="98.696357">
<time>2016-10-07T12:07:54Z</time></trkpt>
<trkpt lat="28.687374" lon="98.696397">
<time>2016-10-07T12:07:55Z</time></trkpt>
<trkpt lat="28.687454" lon="98.696437">
<time>2016-10-07T12:07:56Z</time></trkpt>
<trkpt lat="28.687563" lon="98.696506">
<time>2016-10-07T12:07:57Z</time></trkpt>
<trkpt lat="28.687723" lon="98.696616">
<time>2016-10-07T12:07:58Z</time></trkpt>
<trkpt lat="28.687893" lon="98.696726">
<time>2016-10-07T12:07:59Z</time></trkpt>
<trkpt lat="28.687973" lon="98.696776">
<time>2016-10-07T12:08:00Z</time></trkpt>
<trkpt lat="28.688063" lon="98.696826">
<time>2016-10-07T12:08:01Z</time></trkpt>
<trkpt lat="28.688272" lon="98.696925">
<time>2016-10-07T12:08:02Z</time></trkpt>
<trkpt lat="28.688352" lon="98.696965">
<time>2016-10-07T12:08:03Z</time></trkpt>
<trkpt lat="28.688422" lon="98.697015">
<time>2016-10-07T12:08:04Z</time></trkpt>
<trkpt lat="28.688492" lon="98.697065">
<time>2016-10-07T12:08:05Z</time></trkpt>
<trkpt lat="28.688592" lon="98.697135">
<time>2016-10-07T12:08:06Z</time></trkpt>
<trkpt lat="28.688682" lon="98.697215">
<time>2016-10-07T12:08:07Z</time></trkpt>
<trkpt lat="28.688801" lon="98.697314">
<time>2016-10-07T12:08:08Z</time></trkpt>
<trkpt lat="28.688931" lon="98.697424">
<time>2016-10-07T12:08:09Z</time></trkpt>
<trkpt lat="28.689041" lon="98.697514">
<time>2016-10-07T12:08:10Z</time></trkpt>
<trkpt lat="28.689121" lon="98.697594">
<time>2016-10-07T12:08:11Z</time></trkpt>
<trkpt lat="28.689191" lon="98.697673">
<time>2016-10-07T12:08:12Z</time></trkpt>
<trkpt lat="28.68926" lon="98.697753">
<time>2016-10-07T12:08:13Z</time></trkpt>
<trkpt lat="28.68933" lon="98.697853">
<time>2016-10-07T12:08:14Z</time></trkpt>
<trkpt lat="28.68941" lon="98.697983">
<time>2016-10-07T12:08:15Z</time></trkpt>
<trkpt lat="28.68951" lon="98.698122">
<time>2016-10-07T12:08:16Z</time></trkpt>
<trkpt lat="28.689589" lon="98.698222">
<time>2016-10-07T12:08:17Z</time></trkpt>
<trkpt lat="28.689689" lon="98.698342">
<time>2016-10-07T12:08:18Z</time></trkpt>
<trkpt lat="28.689759" lon="98.698422">
<time>2016-10-07T12:08:19Z</time></trkpt>
<trkpt lat="28.689829" lon="98.698501">
<time>2016-10-07T12:08:20Z</time></trkpt>
<trkpt lat="28.689939" lon="98.698601">
<time>2016-10-07T12:08:21Z</time></trkpt>
<trkpt lat="28.690048" lon="98.698711">
<time>2016-10-07T12:08:22Z</time></trkpt>
<trkpt lat="28.690178" lon="98.698821">
<time>2016-10-07T12:08:23Z</time></trkpt>
<trkpt lat="28.690328" lon="98.69895">
<time>2016-10-07T12:08:24Z</time></trkpt>
<trkpt lat="28.690428" lon="98.69905">
<time>2016-10-07T12:08:25Z</time></trkpt>
<trkpt lat="28.690497" lon="98.69912">
<time>2016-10-07T12:08:26Z</time></trkpt>
<trkpt lat="28.690557" lon="98.69918">
<time>2016-10-07T12:08:27Z</time></trkpt>
<trkpt lat="28.690617" lon="98.699249">
<time>2016-10-07T12:08:28Z</time></trkpt>
<trkpt lat="28.690667" lon="98.699329">
<time>2016-10-07T12:08:29Z</time></trkpt>
<trkpt lat="28.690717" lon="98.699399">
<time>2016-10-07T12:08:30Z</time></trkpt>
<trkpt lat="28.690777" lon="98.699499">
<time>2016-10-07T12:08:31Z</time></trkpt>
<trkpt lat="28.690866" lon="98.699668">
<time>2016-10-07T12:08:32Z</time></trkpt>
<trkpt lat="28.691026" lon="98.699968">
<time>2016-10-07T12:08:33Z</time></trkpt>
<trkpt lat="28.691185" lon="98.700277">
<time>2016-10-07T12:08:34Z</time></trkpt>
<trkpt lat="28.691365" lon="98.700616">
<time>2016-10-07T12:08:35Z</time></trkpt>
<trkpt lat="28.691394" lon="98.700666">
<time>2016-10-07T12:08:36Z</time></trkpt>
<trkpt lat="28.691424" lon="98.700706">
<time>2016-10-07T12:08:37Z</time></trkpt>
<trkpt lat="28.691454" lon="98.700736">
<time>2016-10-07T12:08:38Z</time></trkpt>
<trkpt lat="28.691484" lon="98.700756">
<time>2016-10-07T12:08:39Z</time></trkpt>
<trkpt lat="28.691514" lon="98.700766">
<time>2016-10-07T12:08:40Z</time></trkpt>
<trkpt lat="28.691544" lon="98.700766">
<time>2016-10-07T12:08:41Z</time></trkpt>
<trkpt lat="28.691574" lon="98.700776">
<time>2016-10-07T12:08:42Z</time></trkpt>
<trkpt lat="28.691604" lon="98.700766">
<time>2016-10-07T12:08:43Z</time></trkpt>
<trkpt lat="28.691644" lon="98.700756">
<time>2016-10-07T12:08:44Z</time></trkpt>
<trkpt lat="28.691684" lon="98.700746">
<time>2016-10-07T12:08:45Z</time></trkpt>
<trkpt lat="28.691734" lon="98.700736">
<time>2016-10-07T12:08:46Z</time></trkpt>
<trkpt lat="28.691784" lon="98.700706">
<time>2016-10-07T12:08:47Z</time></trkpt>
<trkpt lat="28.691934" lon="98.700646">
<time>2016-10-07T12:08:48Z</time></trkpt>
<trkpt lat="28.692034" lon="98.700606">
<time>2016-10-07T12:08:49Z</time></trkpt>
<trkpt lat="28.692124" lon="98.700576">
<time>2016-10-07T12:08:50Z</time></trkpt>
<trkpt lat="28.692244" lon="98.700526">
<time>2016-10-07T12:08:51Z</time></trkpt>
<trkpt lat="28.692344" lon="98.700496">
<time>2016-10-07T12:08:52Z</time></trkpt>
<trkpt lat="28.692414" lon="98.700466">
<time>2016-10-07T12:08:53Z</time></trkpt>
<trkpt lat="28.692494" lon="98.700427">
<time>2016-10-07T12:08:54Z</time></trkpt>
<trkpt lat="28.692564" lon="98.700377">
<time>2016-10-07T12:08:55Z</time></trkpt>
<trkpt lat="28.692624" lon="98.700337">
<time>2016-10-07T12:08:56Z</time></trkpt>
<trkpt lat="28.692694" lon="98.700277">
<time>2016-10-07T12:08:57Z</time></trkpt>
<trkpt lat="28.692774" lon="98.700197">
<time>2016-10-07T12:08:58Z</time></trkpt>
<trkpt lat="28.692894" lon="98.700077">
<time>2016-10-07T12:08:59Z</time></trkpt>
<trkpt lat="28.693235" lon="98.699728">
<time>2016-10-07T12:09:00Z</time></trkpt>
<trkpt lat="28.693425" lon="98.699529">
<time>2016-10-07T12:09:01Z</time></trkpt>
<trkpt lat="28.693555" lon="98.699389">
<time>2016-10-07T12:09:02Z</time></trkpt>
<trkpt lat="28.693796" lon="98.69911">
<time>2016-10-07T12:09:03Z</time></trkpt>
<trkpt lat="28.694006" lon="98.69885">
<time>2016-10-07T12:09:04Z</time></trkpt>
<trkpt lat="28.694166" lon="98.698661">
<time>2016-10-07T12:09:05Z</time></trkpt>
<trkpt lat="28.694256" lon="98.698541">
<time>2016-10-07T12:09:06Z</time></trkpt>
<trkpt lat="28.694376" lon="98.698402">
<time>2016-10-07T12:09:07Z</time></trkpt>
<trkpt lat="28.694477" lon="98.698262">
<time>2016-10-07T12:09:08Z</time></trkpt>
<trkpt lat="28.694577" lon="98.698132">
<time>2016-10-07T12:09:09Z</time></trkpt>
<trkpt lat="28.694707" lon="98.697923">
<time>2016-10-07T12:09:10Z</time></trkpt>
<trkpt lat="28.694797" lon="98.697763">
<time>2016-10-07T12:09:11Z</time></trkpt>
<trkpt lat="28.694907" lon="98.697584">
<time>2016-10-07T12:09:12Z</time></trkpt>
<trkpt lat="28.694988" lon="98.697444">
<time>2016-10-07T12:09:13Z</time></trkpt>
<trkpt lat="28.695128" lon="98.697195">
<time>2016-10-07T12:09:14Z</time></trkpt>
<trkpt lat="28.695218" lon="98.697025">
<time>2016-10-07T12:09:15Z</time></trkpt>
<trkpt lat="28.695358" lon="98.696766">
<time>2016-10-07T12:09:16Z</time></trkpt>
<trkpt lat="28.695589" lon="98.696337">
<time>2016-10-07T12:09:17Z</time></trkpt>
<trkpt lat="28.695719" lon="98.696107">
<time>2016-10-07T12:09:18Z</time></trkpt>
<trkpt lat="28.69584" lon="98.695888">
<time>2016-10-07T12:09:19Z</time></trkpt>
<trkpt lat="28.69594" lon="98.695678">
<time>2016-10-07T12:09:20Z</time></trkpt>
<trkpt lat="28.69602" lon="98.695509">
<time>2016-10-07T12:09:21Z</time></trkpt>
<trkpt lat="28.696131" lon="98.69525">
<time>2016-10-07T12:09:22Z</time></trkpt>
<trkpt lat="28.696241" lon="98.69499">
<time>2016-10-07T12:09:23Z</time></trkpt>
<trkpt lat="28.696301" lon="98.694841">
<time>2016-10-07T12:09:24Z</time></trkpt>
<trkpt lat="28.696361" lon="98.694691">
<time>2016-10-07T12:09:25Z</time></trkpt>
<trkpt lat="28.696422" lon="98.694531">
<time>2016-10-07T12:09:26Z</time></trkpt>
<trkpt lat="28.696462" lon="98.694402">
<time>2016-10-07T12:09:27Z</time></trkpt>
<trkpt lat="28.696502" lon="98.694292">
<time>2016-10-07T12:09:28Z</time></trkpt>
<trkpt lat="28.696522" lon="98.694202">
<time>2016-10-07T12:09:29Z</time></trkpt>
<trkpt lat="28.696552" lon="98.694102">
<time>2016-10-07T12:09:30Z</time></trkpt>
<trkpt lat="28.696572" lon="98.694003">
<time>2016-10-07T12:09:31Z</time></trkpt>
<trkpt lat="28.696593" lon="98.693903">
<time>2016-10-07T12:09:32Z</time></trkpt>
<trkpt lat="28.696613" lon="98.693793">
<time>2016-10-07T12:09:33Z</time></trkpt>
<trkpt lat="28.696633" lon="98.693614">
<time>2016-10-07T12:09:34Z</time></trkpt>
<trkpt lat="28.696653" lon="98.693514">
<time>2016-10-07T12:09:35Z</time></trkpt>
<trkpt lat="28.696663" lon="98.693454">
<time>2016-10-07T12:09:36Z</time></trkpt>
<trkpt lat="28.696673" lon="98.693384">
<time>2016-10-07T12:09:37Z</time></trkpt>
<trkpt lat="28.696694" lon="98.693334">
<time>2016-10-07T12:09:38Z</time></trkpt>
<trkpt lat="28.696704" lon="98.693295">
<time>2016-10-07T12:09:39Z</time></trkpt>
<trkpt lat="28.696714" lon="98.693265">
<time>2016-10-07T12:09:40Z</time></trkpt>
<trkpt lat="28.696734" lon="98.693225">
<time>2016-10-07T12:09:41Z</time></trkpt>
<trkpt lat="28.696754" lon="98.693205">
<time>2016-10-07T12:09:42Z</time></trkpt>
<trkpt lat="28.696774" lon="98.693185">
<time>2016-10-07T12:09:43Z</time></trkpt>
<trkpt lat="28.696804" lon="98.693165">
<time>2016-10-07T12:09:44Z</time></trkpt>
<trkpt lat="28.696844" lon="98.693145">
<time>2016-10-07T12:09:45Z</time></trkpt>
<trkpt lat="28.696874" lon="98.693145">
<time>2016-10-07T12:09:46Z</time></trkpt>
<trkpt lat="28.696914" lon="98.693145">
<time>2016-10-07T12:09:47Z</time></trkpt>
<trkpt lat="28.696974" lon="98.693145">
<time>2016-10-07T12:09:48Z</time></trkpt>
<trkpt lat="28.697054" lon="98.693155">
<time>2016-10-07T12:09:49Z</time></trkpt>
<trkpt lat="28.697174" lon="98.693165">
<time>2016-10-07T12:09:50Z</time></trkpt>
<trkpt lat="28.697353" lon="98.693185">
<time>2016-10-07T12:09:51Z</time></trkpt>
<trkpt lat="28.697713" lon="98.693225">
<time>2016-10-07T12:09:52Z</time></trkpt>
<trkpt lat="28.697793" lon="98.693225">
<time>2016-10-07T12:09:53Z</time></trkpt>
<trkpt lat="28.697873" lon="98.693225">
<time>2016-10-07T12:09:54Z</time></trkpt>
<trkpt lat="28.697983" lon="98.693225">
<time>2016-10-07T12:09:55Z</time></trkpt>
<trkpt lat="28.698033" lon="98.693215">
<time>2016-10-07T12:09:56Z</time></trkpt>
<trkpt lat="28.698053" lon="98.693205">
<time>2016-10-07T12:09:57Z</time></trkpt>
<trkpt lat="28.698093" lon="98.693195">
<time>2016-10-07T12:09:58Z</time></trkpt>
<trkpt lat="28.698113" lon="98.693185">
<time>2016-10-07T12:09:59Z</time></trkpt>
<trkpt lat="28.698133" lon="98.693175">
<time>2016-10-07T12:10:00Z</time></trkpt>
<trkpt lat="28.698163" lon="98.693155">
<time>2016-10-07T12:10:01Z</time></trkpt>
<trkpt lat="28.698183" lon="98.693125">
<time>2016-10-07T12:10:02Z</time></trkpt>
<trkpt lat="28.698193" lon="98.693095">
<time>2016-10-07T12:10:03Z</time></trkpt>
<trkpt lat="28.698213" lon="98.693065">
<time>2016-10-07T12:10:04Z</time></trkpt>
<trkpt lat="28.698213" lon="98.693025">
<time>2016-10-07T12:10:05Z</time></trkpt>
<trkpt lat="28.698223" lon="98.692975">
<time>2016-10-07T12:10:06Z</time></trkpt>
<trkpt lat="28.698213" lon="98.692926">
<time>2016-10-07T12:10:07Z</time></trkpt>
<trkpt lat="28.698203" lon="98.692876">
<time>2016-10-07T12:10:08Z</time></trkpt>
<trkpt lat="28.698184" lon="98.692796">
<time>2016-10-07T12:10:09Z</time></trkpt>
<trkpt lat="28.698164" lon="98.692716">
<time>2016-10-07T12:10:10Z</time></trkpt>
<trkpt lat="28.698154" lon="98.692646">
<time>2016-10-07T12:10:11Z</time></trkpt>
<trkpt lat="28.698134" lon="98.692576">
<time>2016-10-07T12:10:12Z</time></trkpt>
<trkpt lat="28.698134" lon="98.692507">
<time>2016-10-07T12:10:13Z</time></trkpt>
<trkpt lat="28.698134" lon="98.692447">
<time>2016-10-07T12:10:14Z</time></trkpt>
<trkpt lat="28.698134" lon="98.692397">
<time>2016-10-07T12:10:15Z</time></trkpt>
<trkpt lat="28.698144" lon="98.692307">
<time>2016-10-07T12:10:16Z</time></trkpt>
<trkpt lat="28.698165" lon="98.692197">
<time>2016-10-07T12:10:17Z</time></trkpt>
<trkpt lat="28.698205" lon="98.692058">
<time>2016-10-07T12:10:18Z</time></trkpt>
<trkpt lat="28.698245" lon="98.691898">
<time>2016-10-07T12:10:19Z</time></trkpt>
<trkpt lat="28.698295" lon="98.691739">
<time>2016-10-07T12:10:20Z</time></trkpt>
<trkpt lat="28.698346" lon="98.691599">
<time>2016-10-07T12:10:21Z</time></trkpt>
<trkpt lat="28.698496" lon="98.6912">
<time>2016-10-07T12:10:22Z</time></trkpt>
<trkpt lat="28.698556" lon="98.69107">
<time>2016-10-07T12:10:23Z</time></trkpt>
<trkpt lat="28.698577" lon="98.690991">
<time>2016-10-07T12:10:24Z</time></trkpt>
<trkpt lat="28.698597" lon="98.690921">
<time>2016-10-07T12:10:25Z</time></trkpt>
<trkpt lat="28.698607" lon="98.690861">
<time>2016-10-07T12:10:26Z</time></trkpt>
<trkpt lat="28.698607" lon="98.690791">
<time>2016-10-07T12:10:27Z</time></trkpt>
<trkpt lat="28.698607" lon="98.690731">
<time>2016-10-07T12:10:28Z</time></trkpt>
<trkpt lat="28.698597" lon="98.690661">
<time>2016-10-07T12:10:29Z</time></trkpt>
<trkpt lat="28.698587" lon="98.690582">
<time>2016-10-07T12:10:30Z</time></trkpt>
<trkpt lat="28.698557" lon="98.690452">
<time>2016-10-07T12:10:31Z</time></trkpt>
<trkpt lat="28.698538" lon="98.690342">
<time>2016-10-07T12:10:32Z</time></trkpt>
<trkpt lat="28.698478" lon="98.690083">
<time>2016-10-07T12:10:33Z</time></trkpt>
<trkpt lat="28.698448" lon="98.689953">
<time>2016-10-07T12:10:34Z</time></trkpt>
<trkpt lat="28.698429" lon="98.689874">
<time>2016-10-07T12:10:35Z</time></trkpt>
<trkpt lat="28.698419" lon="98.689794">
<time>2016-10-07T12:10:36Z</time></trkpt>
<trkpt lat="28.698419" lon="98.689714">
<time>2016-10-07T12:10:37Z</time></trkpt>
<trkpt lat="28.698429" lon="98.689644">
<time>2016-10-07T12:10:38Z</time></trkpt>
<trkpt lat="28.698439" lon="98.689554">
<time>2016-10-07T12:10:39Z</time></trkpt>
<trkpt lat="28.698459" lon="98.689425">
<time>2016-10-07T12:10:40Z</time></trkpt>
<trkpt lat="28.69847" lon="98.689345">
<time>2016-10-07T12:10:41Z</time></trkpt>
<trkpt lat="28.69847" lon="98.689275">
<time>2016-10-07T12:10:42Z</time></trkpt>
<trkpt lat="28.69847" lon="98.689205">
<time>2016-10-07T12:10:43Z</time></trkpt>
<trkpt lat="28.69847" lon="98.689136">
<time>2016-10-07T12:10:44Z</time></trkpt>
<trkpt lat="28.69846" lon="98.689076">
<time>2016-10-07T12:10:45Z</time></trkpt>
<trkpt lat="28.69845" lon="98.688986">
<time>2016-10-07T12:10:46Z</time></trkpt>
<trkpt lat="28.69842" lon="98.688896">
<time>2016-10-07T12:10:47Z</time></trkpt>
<trkpt lat="28.698391" lon="98.688767">
<time>2016-10-07T12:10:48Z</time></trkpt>
<trkpt lat="28.698361" lon="98.688677">
<time>2016-10-07T12:10:49Z</time></trkpt>
<trkpt lat="28.698331" lon="98.688597">
<time>2016-10-07T12:10:50Z</time></trkpt>
<trkpt lat="28.698301" lon="98.688527">
<time>2016-10-07T12:10:51Z</time></trkpt>
<trkpt lat="28.698261" lon="98.688447">
<time>2016-10-07T12:10:52Z</time></trkpt>
<trkpt lat="28.698192" lon="98.688308">
<time>2016-10-07T12:10:53Z</time></trkpt>
<trkpt lat="28.698132" lon="98.688198">
<time>2016-10-07T12:10:54Z</time></trkpt>
<trkpt lat="28.698092" lon="98.688128">
<time>2016-10-07T12:10:55Z</time></trkpt>
<trkpt lat="28.698062" lon="98.688048">
<time>2016-10-07T12:10:56Z</time></trkpt>
<trkpt lat="28.698032" lon="98.687959">
<time>2016-10-07T12:10:57Z</time></trkpt>
<trkpt lat="28.697983" lon="98.687809">
<time>2016-10-07T12:10:58Z</time></trkpt>
<trkpt lat="28.697923" lon="98.68757">
<time>2016-10-07T12:10:59Z</time></trkpt>
<trkpt lat="28.697893" lon="98.68747">
<time>2016-10-07T12:11:00Z</time></trkpt>
<trkpt lat="28.697863" lon="98.68738">
<time>2016-10-07T12:11:01Z</time></trkpt>
<trkpt lat="28.697824" lon="98.687281">
<time>2016-10-07T12:11:02Z</time></trkpt>
<trkpt lat="28.697764" lon="98.687171">
<time>2016-10-07T12:11:03Z</time></trkpt>
<trkpt lat="28.697664" lon="98.686991">
<time>2016-10-07T12:11:04Z</time></trkpt>
<trkpt lat="28.697624" lon="98.686912">
<time>2016-10-07T12:11:05Z</time></trkpt>
<trkpt lat="28.697595" lon="98.686852">
<time>2016-10-07T12:11:06Z</time></trkpt>
<trkpt lat="28.697575" lon="98.686792">
<time>2016-10-07T12:11:07Z</time></trkpt>
<trkpt lat="28.697565" lon="98.686722">
<time>2016-10-07T12:11:08Z</time></trkpt>
<trkpt lat="28.697555" lon="98.686652">
<time>2016-10-07T12:11:09Z</time></trkpt>
<trkpt lat="28.697545" lon="98.686562">
<time>2016-10-07T12:11:10Z</time></trkpt>
<trkpt lat="28.697526" lon="98.686303">
<time>2016-10-07T12:11:11Z</time></trkpt>
<trkpt lat="28.697477" lon="98.685685">
<time>2016-10-07T12:11:12Z</time></trkpt>
<trkpt lat="28.697438" lon="98.685276">
<time>2016-10-07T12:11:13Z</time></trkpt>
<trkpt lat="28.697428" lon="98.685096">
<time>2016-10-07T12:11:14Z</time></trkpt>
<trkpt lat="28.697408" lon="98.684977">
<time>2016-10-07T12:11:15Z</time></trkpt>
<trkpt lat="28.697398" lon="98.684887">
<time>2016-10-07T12:11:16Z</time></trkpt>
<trkpt lat="28.697378" lon="98.684807">
<time>2016-10-07T12:11:17Z</time></trkpt>
<trkpt lat="28.697349" lon="98.684737">
<time>2016-10-07T12:11:18Z</time></trkpt>
<trkpt lat="28.697309" lon="98.684658">
<time>2016-10-07T12:11:19Z</time></trkpt>
<trkpt lat="28.697269" lon="98.684578">
<time>2016-10-07T12:11:20Z</time></trkpt>
<trkpt lat="28.697209" lon="98.684508">
<time>2016-10-07T12:11:21Z</time></trkpt>
<trkpt lat="28.697109" lon="98.684378">
<time>2016-10-07T12:11:22Z</time></trkpt>
<trkpt lat="28.69704" lon="98.684289">
<time>2016-10-07T12:11:23Z</time></trkpt>
<trkpt lat="28.69702" lon="98.684249">
<time>2016-10-07T12:11:24Z</time></trkpt>
<trkpt lat="28.697" lon="98.684209">
<time>2016-10-07T12:11:25Z</time></trkpt>
<trkpt lat="28.69698" lon="98.684159">
<time>2016-10-07T12:11:26Z</time></trkpt>
<trkpt lat="28.69697" lon="98.684089">
<time>2016-10-07T12:11:27Z</time></trkpt>
<trkpt lat="28.69696" lon="98.684029">
<time>2016-10-07T12:11:28Z</time></trkpt>
<trkpt lat="28.69697" lon="98.68395">
<time>2016-10-07T12:11:29Z</time></trkpt>
<trkpt lat="28.696981" lon="98.68377">
<time>2016-10-07T12:11:30Z</time></trkpt>
<trkpt lat="28.696991" lon="98.683581">
<time>2016-10-07T12:11:31Z</time></trkpt>
<trkpt lat="28.696991" lon="98.683391">
<time>2016-10-07T12:11:32Z</time></trkpt>
<trkpt lat="28.696992" lon="98.683242">
<time>2016-10-07T12:11:33Z</time></trkpt>
<trkpt lat="28.696982" lon="98.682942">
<time>2016-10-07T12:11:34Z</time></trkpt>
<trkpt lat="28.696973" lon="98.682703">
<time>2016-10-07T12:11:35Z</time></trkpt>
<trkpt lat="28.696963" lon="98.682533">
<time>2016-10-07T12:11:36Z</time></trkpt>
<trkpt lat="28.696973" lon="98.682404">
<time>2016-10-07T12:11:37Z</time></trkpt>
<trkpt lat="28.696983" lon="98.682294">
<time>2016-10-07T12:11:38Z</time></trkpt>
<trkpt lat="28.696994" lon="98.682174">
<time>2016-10-07T12:11:39Z</time></trkpt>
<trkpt lat="28.697024" lon="98.682045">
<time>2016-10-07T12:11:40Z</time></trkpt>
<trkpt lat="28.697054" lon="98.681925">
<time>2016-10-07T12:11:41Z</time></trkpt>
<trkpt lat="28.697104" lon="98.681786">
<time>2016-10-07T12:11:42Z</time></trkpt>
<trkpt lat="28.697165" lon="98.681606">
<time>2016-10-07T12:11:43Z</time></trkpt>
<trkpt lat="28.697225" lon="98.681486">
<time>2016-10-07T12:11:44Z</time></trkpt>
<trkpt lat="28.697265" lon="98.681397">
<time>2016-10-07T12:11:45Z</time></trkpt>
<trkpt lat="28.697305" lon="98.681327">
<time>2016-10-07T12:11:46Z</time></trkpt>
<trkpt lat="28.697375" lon="98.681207">
<time>2016-10-07T12:11:47Z</time></trkpt>
<trkpt lat="28.697425" lon="98.681127">
<time>2016-10-07T12:11:48Z</time></trkpt>
<trkpt lat="28.697515" lon="98.681018">
<time>2016-10-07T12:11:49Z</time></trkpt>
<trkpt lat="28.697546" lon="98.680968">
<time>2016-10-07T12:11:50Z</time></trkpt>
<trkpt lat="28.697596" lon="98.680908">
<time>2016-10-07T12:11:51Z</time></trkpt>
<trkpt lat="28.697626" lon="98.680848">
<time>2016-10-07T12:11:52Z</time></trkpt>
<trkpt lat="28.697656" lon="98.680798">
<time>2016-10-07T12:11:53Z</time></trkpt>
<trkpt lat="28.697686" lon="98.680728">
<time>2016-10-07T12:11:54Z</time></trkpt>
<trkpt lat="28.697716" lon="98.680669">
<time>2016-10-07T12:11:55Z</time></trkpt>
<trkpt lat="28.697736" lon="98.680609">
<time>2016-10-07T12:11:56Z</time></trkpt>
<trkpt lat="28.697776" lon="98.680419">
<time>2016-10-07T12:11:57Z</time></trkpt>
<trkpt lat="28.697807" lon="98.68032">
<time>2016-10-07T12:11:58Z</time></trkpt>
<trkpt lat="28.697827" lon="98.68023">
<time>2016-10-07T12:11:59Z</time></trkpt>
<trkpt lat="28.697847" lon="98.68013">
<time>2016-10-07T12:12:00Z</time></trkpt>
<trkpt lat="28.697857" lon="98.68009">
<time>2016-10-07T12:12:01Z</time></trkpt>
<trkpt lat="28.697867" lon="98.68005">
<time>2016-10-07T12:12:02Z</time></trkpt>
<trkpt lat="28.697877" lon="98.68001">
<time>2016-10-07T12:12:03Z</time></trkpt>
<trkpt lat="28.697887" lon="98.679981">
<time>2016-10-07T12:12:04Z</time></trkpt>
<trkpt lat="28.697907" lon="98.679951">
<time>2016-10-07T12:12:05Z</time></trkpt>
<trkpt lat="28.697927" lon="98.679911">
<time>2016-10-07T12:12:06Z</time></trkpt>
<trkpt lat="28.697947" lon="98.679881">
<time>2016-10-07T12:12:07Z</time></trkpt>
<trkpt lat="28.697967" lon="98.679851">
<time>2016-10-07T12:12:08Z</time></trkpt>
<trkpt lat="28.697997" lon="98.679811">
<time>2016-10-07T12:12:09Z</time></trkpt>
<trkpt lat="28.698017" lon="98.679791">
<time>2016-10-07T12:12:10Z</time></trkpt>
<trkpt lat="28.698048" lon="98.679751">
<time>2016-10-07T12:12:11Z</time></trkpt>
<trkpt lat="28.698078" lon="98.679731">
<time>2016-10-07T12:12:12Z</time></trkpt>
<trkpt lat="28.698138" lon="98.679681">
<time>2016-10-07T12:12:13Z</time></trkpt>
<trkpt lat="28.698178" lon="98.679641">
<time>2016-10-07T12:12:14Z</time></trkpt>
<trkpt lat="28.698218" lon="98.679612">
<time>2016-10-07T12:12:15Z</time></trkpt>
<trkpt lat="28.698348" lon="98.679512">
<time>2016-10-07T12:12:16Z</time></trkpt>
<trkpt lat="28.698408" lon="98.679452">
<time>2016-10-07T12:12:17Z</time></trkpt>
<trkpt lat="28.698448" lon="98.679422">
<time>2016-10-07T12:12:18Z</time></trkpt>
<trkpt lat="28.698468" lon="98.679402">
<time>2016-10-07T12:12:19Z</time></trkpt>
<trkpt lat="28.698498" lon="98.679372">
<time>2016-10-07T12:12:20Z</time></trkpt>
<trkpt lat="28.698538" lon="98.679332">
<time>2016-10-07T12:12:21Z</time></trkpt>
<trkpt lat="28.698598" lon="98.679262">
<time>2016-10-07T12:12:22Z</time></trkpt>
<trkpt lat="28.698658" lon="98.679203">
<time>2016-10-07T12:12:23Z</time></trkpt>
<trkpt lat="28.698698" lon="98.679153">
<time>2016-10-07T12:12:24Z</time></trkpt>
<trkpt lat="28.698758" lon="98.679083">
<time>2016-10-07T12:12:25Z</time></trkpt>
<trkpt lat="28.698808" lon="98.679033">
<time>2016-10-07T12:12:26Z</time></trkpt>
<trkpt lat="28.698889" lon="98.678943">
<time>2016-10-07T12:12:27Z</time></trkpt>
<trkpt lat="28.698939" lon="98.678894">
<time>2016-10-07T12:12:28Z</time></trkpt>
<trkpt lat="28.698999" lon="98.678834">
<time>2016-10-07T12:12:29Z</time></trkpt>
<trkpt lat="28.699049" lon="98.678784">
<time>2016-10-07T12:12:30Z</time></trkpt>
<trkpt lat="28.699109" lon="98.678734">
<time>2016-10-07T12:12:31Z</time></trkpt>
<trkpt lat="28.699149" lon="98.678694">
<time>2016-10-07T12:12:32Z</time></trkpt>
<trkpt lat="28.699199" lon="98.678644">
<time>2016-10-07T12:12:33Z</time></trkpt>
<trkpt lat="28.699229" lon="98.678614">
<time>2016-10-07T12:12:34Z</time></trkpt>
<trkpt lat="28.699319" lon="98.678544">
<time>2016-10-07T12:12:35Z</time></trkpt>
<trkpt lat="28.699389" lon="98.678485">
<time>2016-10-07T12:12:36Z</time></trkpt>
<trkpt lat="28.699449" lon="98.678435">
<time>2016-10-07T12:12:37Z</time></trkpt>
<trkpt lat="28.699509" lon="98.678395">
<time>2016-10-07T12:12:38Z</time></trkpt>
<trkpt lat="28.699559" lon="98.678355">
<time>2016-10-07T12:12:39Z</time></trkpt>
<trkpt lat="28.699619" lon="98.678315">
<time>2016-10-07T12:12:40Z</time></trkpt>
<trkpt lat="28.699689" lon="98.678275">
<time>2016-10-07T12:12:41Z</time></trkpt>
<trkpt lat="28.699859" lon="98.678185">
<time>2016-10-07T12:12:42Z</time></trkpt>
<trkpt lat="28.699929" lon="98.678146">
<time>2016-10-07T12:12:43Z</time></trkpt>
<trkpt lat="28.699999" lon="98.678106">
<time>2016-10-07T12:12:44Z</time></trkpt>
<trkpt lat="28.70007" lon="98.678066">
<time>2016-10-07T12:12:45Z</time></trkpt>
<trkpt lat="28.70019" lon="98.677986">
<time>2016-10-07T12:12:46Z</time></trkpt>
<trkpt lat="28.70028" lon="98.677916">
<time>2016-10-07T12:12:47Z</time></trkpt>
<trkpt lat="28.70038" lon="98.677846">
<time>2016-10-07T12:12:48Z</time></trkpt>
<trkpt lat="28.70047" lon="98.677777">
<time>2016-10-07T12:12:49Z</time></trkpt>
<trkpt lat="28.70057" lon="98.677687">
<time>2016-10-07T12:12:50Z</time></trkpt>
<trkpt lat="28.70063" lon="98.677637">
<time>2016-10-07T12:12:51Z</time></trkpt>
<trkpt lat="28.70067" lon="98.677597">
<time>2016-10-07T12:12:52Z</time></trkpt>
<trkpt lat="28.70071" lon="98.677567">
<time>2016-10-07T12:12:53Z</time></trkpt>
<trkpt lat="28.70075" lon="98.677547">
<time>2016-10-07T12:12:54Z</time></trkpt>
<trkpt lat="28.70079" lon="98.677517">
<time>2016-10-07T12:12:55Z</time></trkpt>
<trkpt lat="28.70083" lon="98.677497">
<time>2016-10-07T12:12:56Z</time></trkpt>
<trkpt lat="28.70087" lon="98.677477">
<time>2016-10-07T12:12:57Z</time></trkpt>
<trkpt lat="28.70091" lon="98.677467">
<time>2016-10-07T12:12:58Z</time></trkpt>
<trkpt lat="28.70096" lon="98.677447">
<time>2016-10-07T12:12:59Z</time></trkpt>
<trkpt lat="28.701" lon="98.677438">
<time>2016-10-07T12:13:00Z</time></trkpt>
<trkpt lat="28.70104" lon="98.677428">
<time>2016-10-07T12:13:01Z</time></trkpt>
<trkpt lat="28.70108" lon="98.677428">
<time>2016-10-07T12:13:02Z</time></trkpt>
<trkpt lat="28.70112" lon="98.677418">
<time>2016-10-07T12:13:03Z</time></trkpt>
<trkpt lat="28.7013" lon="98.677408">
<time>2016-10-07T12:13:04Z</time></trkpt>
<trkpt lat="28.70146" lon="98.677398">
<time>2016-10-07T12:13:05Z</time></trkpt>
<trkpt lat="28.70174" lon="98.677358">
<time>2016-10-07T12:13:06Z</time></trkpt>
<trkpt lat="28.70191" lon="98.677338">
<time>2016-10-07T12:13:07Z</time></trkpt>
<trkpt lat="28.7021" lon="98.677318">
<time>2016-10-07T12:13:08Z</time></trkpt>
<trkpt lat="28.70229" lon="98.677288">
<time>2016-10-07T12:13:09Z</time></trkpt>
<trkpt lat="28.70238" lon="98.677278">
<time>2016-10-07T12:13:10Z</time></trkpt>
<trkpt lat="28.70252" lon="98.677258">
<time>2016-10-07T12:13:11Z</time></trkpt>
<trkpt lat="28.70265" lon="98.677248">
<time>2016-10-07T12:13:12Z</time></trkpt>
<trkpt lat="28.702719" lon="98.677248">
<time>2016-10-07T12:13:13Z</time></trkpt>
<trkpt lat="28.702819" lon="98.677238">
<time>2016-10-07T12:13:14Z</time></trkpt>
<trkpt lat="28.702909" lon="98.677238">
<time>2016-10-07T12:13:15Z</time></trkpt>
<trkpt lat="28.702979" lon="98.677248">
<time>2016-10-07T12:13:16Z</time></trkpt>
<trkpt lat="28.703049" lon="98.677248">
<time>2016-10-07T12:13:17Z</time></trkpt>
<trkpt lat="28.703119" lon="98.677258">
<time>2016-10-07T12:13:18Z</time></trkpt>
<trkpt lat="28.703219" lon="98.677278">
<time>2016-10-07T12:13:19Z</time></trkpt>
<trkpt lat="28.703319" lon="98.677298">
<time>2016-10-07T12:13:20Z</time></trkpt>
<trkpt lat="28.703489" lon="98.677338">
<time>2016-10-07T12:13:21Z</time></trkpt>
<trkpt lat="28.703619" lon="98.677368">
<time>2016-10-07T12:13:22Z</time></trkpt>
<trkpt lat="28.703729" lon="98.677398">
<time>2016-10-07T12:13:23Z</time></trkpt>
<trkpt lat="28.703848" lon="98.677437">
<time>2016-10-07T12:13:24Z</time></trkpt>
<trkpt lat="28.704118" lon="98.677517">
<time>2016-10-07T12:13:25Z</time></trkpt>
<trkpt lat="28.704268" lon="98.677567">
<time>2016-10-07T12:13:26Z</time></trkpt>
<trkpt lat="28.704408" lon="98.677607">
<time>2016-10-07T12:13:27Z</time></trkpt>
<trkpt lat="28.704657" lon="98.677687">
<time>2016-10-07T12:13:28Z</time></trkpt>
<trkpt lat="28.704767" lon="98.677717">
<time>2016-10-07T12:13:29Z</time></trkpt>
<trkpt lat="28.704887" lon="98.677757">
<time>2016-10-07T12:13:30Z</time></trkpt>
<trkpt lat="28.705007" lon="98.677796">
<time>2016-10-07T12:13:31Z</time></trkpt>
<trkpt lat="28.705117" lon="98.677836">
<time>2016-10-07T12:13:32Z</time></trkpt>
<trkpt lat="28.705207" lon="98.677866">
<time>2016-10-07T12:13:33Z</time></trkpt>
<trkpt lat="28.705267" lon="98.677896">
<time>2016-10-07T12:13:34Z</time></trkpt>
<trkpt lat="28.705347" lon="98.677936">
<time>2016-10-07T12:13:35Z</time></trkpt>
<trkpt lat="28.705397" lon="98.677956">
<time>2016-10-07T12:13:36Z</time></trkpt>
<trkpt lat="28.705436" lon="98.677976">
<time>2016-10-07T12:13:37Z</time></trkpt>
<trkpt lat="28.705466" lon="98.677996">
<time>2016-10-07T12:13:38Z</time></trkpt>
<trkpt lat="28.705506" lon="98.678016">
<time>2016-10-07T12:13:39Z</time></trkpt>
<trkpt lat="28.705536" lon="98.678046">
<time>2016-10-07T12:13:40Z</time></trkpt>
<trkpt lat="28.705576" lon="98.678066">
<time>2016-10-07T12:13:41Z</time></trkpt>
<trkpt lat="28.705596" lon="98.678086">
<time>2016-10-07T12:13:42Z</time></trkpt>
<trkpt lat="28.705626" lon="98.678116">
<time>2016-10-07T12:13:43Z</time></trkpt>
<trkpt lat="28.705656" lon="98.678136">
<time>2016-10-07T12:13:44Z</time></trkpt>
<trkpt lat="28.705686" lon="98.678165">
<time>2016-10-07T12:13:45Z</time></trkpt>
<trkpt lat="28.705716" lon="98.678205">
<time>2016-10-07T12:13:46Z</time></trkpt>
<trkpt lat="28.705746" lon="98.678245">
<time>2016-10-07T12:13:47Z</time></trkpt>
<trkpt lat="28.705776" lon="98.678275">
<time>2016-10-07T12:13:48Z</time></trkpt>
<trkpt lat="28.705806" lon="98.678305">
<time>2016-10-07T12:13:49Z</time></trkpt>
<trkpt lat="28.705836" lon="98.678345">
<time>2016-10-07T12:13:50Z</time></trkpt>
<trkpt lat="28.705865" lon="98.678385">
<time>2016-10-07T12:13:51Z</time></trkpt>
<trkpt lat="28.705895" lon="98.678415">
<time>2016-10-07T12:13:52Z</time></trkpt>
<trkpt lat="28.705915" lon="98.678435">
<time>2016-10-07T12:13:53Z</time></trkpt>
<trkpt lat="28.705945" lon="98.678465">
<time>2016-10-07T12:13:54Z</time></trkpt>
<trkpt lat="28.705965" lon="98.678485">
<time>2016-10-07T12:13:55Z</time></trkpt>
<trkpt lat="28.705995" lon="98.678514">
<time>2016-10-07T12:13:56Z</time></trkpt>
<trkpt lat="28.706025" lon="98.678534">
<time>2016-10-07T12:13:57Z</time></trkpt>
<trkpt lat="28.706065" lon="98.678574">
<time>2016-10-07T12:13:58Z</time></trkpt>
<trkpt lat="28.706095" lon="98.678594">
<time>2016-10-07T12:13:59Z</time></trkpt>
<trkpt lat="28.706155" lon="98.678634">
<time>2016-10-07T12:14:00Z</time></trkpt>
<trkpt lat="28.706235" lon="98.678694">
<time>2016-10-07T12:14:01Z</time></trkpt>
<trkpt lat="28.706304" lon="98.678734">
<time>2016-10-07T12:14:02Z</time></trkpt>
<trkpt lat="28.706384" lon="98.678784">
<time>2016-10-07T12:14:03Z</time></trkpt>
<trkpt lat="28.706414" lon="98.678804">
<time>2016-10-07T12:14:04Z</time></trkpt>
<trkpt lat="28.706444" lon="98.678834">
<time>2016-10-07T12:14:05Z</time></trkpt>
<trkpt lat="28.706484" lon="98.678863">
<time>2016-10-07T12:14:06Z</time></trkpt>
<trkpt lat="28.706504" lon="98.678883">
<time>2016-10-07T12:14:07Z</time></trkpt>
<trkpt lat="28.706544" lon="98.678923">
<time>2016-10-07T12:14:08Z</time></trkpt>
<trkpt lat="28.706574" lon="98.678953">
<time>2016-10-07T12:14:09Z</time></trkpt>
<trkpt lat="28.706614" lon="98.679003">
<time>2016-10-07T12:14:10Z</time></trkpt>
<trkpt lat="28.706644" lon="98.679043">
<time>2016-10-07T12:14:11Z</time></trkpt>
<trkpt lat="28.706674" lon="98.679093">
<time>2016-10-07T12:14:12Z</time></trkpt>
<trkpt lat="28.706723" lon="98.679173">
<time>2016-10-07T12:14:13Z</time></trkpt>
<trkpt lat="28.706773" lon="98.679262">
<time>2016-10-07T12:14:14Z</time></trkpt>
<trkpt lat="28.706833" lon="98.679372">
<time>2016-10-07T12:14:15Z</time></trkpt>
<trkpt lat="28.706873" lon="98.679452">
<time>2016-10-07T12:14:16Z</time></trkpt>
<trkpt lat="28.706903" lon="98.679522">
<time>2016-10-07T12:14:17Z</time></trkpt>
<trkpt lat="28.706943" lon="98.679581">
<time>2016-10-07T12:14:18Z</time></trkpt>
<trkpt lat="28.706972" lon="98.679641">
<time>2016-10-07T12:14:19Z</time></trkpt>
<trkpt lat="28.707032" lon="98.679731">
<time>2016-10-07T12:14:20Z</time></trkpt>
<trkpt lat="28.707112" lon="98.679861">
<time>2016-10-07T12:14:21Z</time></trkpt>
<trkpt lat="28.707162" lon="98.67994">
<time>2016-10-07T12:14:22Z</time></trkpt>
<trkpt lat="28.707211" lon="98.68003">
<time>2016-10-07T12:14:23Z</time></trkpt>
<trkpt lat="28.707261" lon="98.68011">
<time>2016-10-07T12:14:24Z</time></trkpt>
<trkpt lat="28.707321" lon="98.68021">
<time>2016-10-07T12:14:25Z</time></trkpt>
<trkpt lat="28.707361" lon="98.680299">
<time>2016-10-07T12:14:26Z</time></trkpt>
<trkpt lat="28.707411" lon="98.680399">
<time>2016-10-07T12:14:27Z</time></trkpt>
<trkpt lat="28.707441" lon="98.680449">
<time>2016-10-07T12:14:28Z</time></trkpt>
<trkpt lat="28.70746" lon="98.680489">
<time>2016-10-07T12:14:29Z</time></trkpt>
<trkpt lat="28.70748" lon="98.680549">
<time>2016-10-07T12:14:30Z</time></trkpt>
<trkpt lat="28.70751" lon="98.680629">
<time>2016-10-07T12:14:31Z</time></trkpt>
<trkpt lat="28.70754" lon="98.680718">
<time>2016-10-07T12:14:32Z</time></trkpt>
<trkpt lat="28.70756" lon="98.680778">
<time>2016-10-07T12:14:33Z</time></trkpt>
<trkpt lat="28.70758" lon="98.680848">
<time>2016-10-07T12:14:34Z</time></trkpt>
<trkpt lat="28.7076" lon="98.680918">
<time>2016-10-07T12:14:35Z</time></trkpt>
<trkpt lat="28.707619" lon="98.680978">
<time>2016-10-07T12:14:36Z</time></trkpt>
<trkpt lat="28.707629" lon="98.681037">
<time>2016-10-07T12:14:37Z</time></trkpt>
<trkpt lat="28.707629" lon="98.681097">
<time>2016-10-07T12:14:38Z</time></trkpt>
<trkpt lat="28.707629" lon="98.681157">
<time>2016-10-07T12:14:39Z</time></trkpt>
<trkpt lat="28.707629" lon="98.681237">
<time>2016-10-07T12:14:40Z</time></trkpt>
<trkpt lat="28.707629" lon="98.681376">
<time>2016-10-07T12:14:41Z</time></trkpt>
<trkpt lat="28.707618" lon="98.681486">
<time>2016-10-07T12:14:42Z</time></trkpt>
<trkpt lat="28.707598" lon="98.681666">
<time>2016-10-07T12:14:43Z</time></trkpt>
<trkpt lat="28.707588" lon="98.681775">
<time>2016-10-07T12:14:44Z</time></trkpt>
<trkpt lat="28.707588" lon="98.681895">
<time>2016-10-07T12:14:45Z</time></trkpt>
<trkpt lat="28.707588" lon="98.682015">
<time>2016-10-07T12:14:46Z</time></trkpt>
<trkpt lat="28.707587" lon="98.682095">
<time>2016-10-07T12:14:47Z</time></trkpt>
<trkpt lat="28.707607" lon="98.682194">
<time>2016-10-07T12:14:48Z</time></trkpt>
<trkpt lat="28.707617" lon="98.682314">
<time>2016-10-07T12:14:49Z</time></trkpt>
<trkpt lat="28.707647" lon="98.682483">
<time>2016-10-07T12:14:50Z</time></trkpt>
<trkpt lat="28.707646" lon="98.682563">
<time>2016-10-07T12:14:51Z</time></trkpt>
<trkpt lat="28.707656" lon="98.682653">
<time>2016-10-07T12:14:52Z</time></trkpt>
<trkpt lat="28.707656" lon="98.682773">
<time>2016-10-07T12:14:53Z</time></trkpt>
<trkpt lat="28.707656" lon="98.682912">
<time>2016-10-07T12:14:54Z</time></trkpt>
<trkpt lat="28.707666" lon="98.682992">
<time>2016-10-07T12:14:55Z</time></trkpt>
<trkpt lat="28.707666" lon="98.683052">
<time>2016-10-07T12:14:56Z</time></trkpt>
<trkpt lat="28.707675" lon="98.683102">
<time>2016-10-07T12:14:57Z</time></trkpt>
<trkpt lat="28.707685" lon="98.683142">
<time>2016-10-07T12:14:58Z</time></trkpt>
<trkpt lat="28.707705" lon="98.683191">
<time>2016-10-07T12:14:59Z</time></trkpt>
<trkpt lat="28.707725" lon="98.683251">
<time>2016-10-07T12:15:00Z</time></trkpt>
<trkpt lat="28.707745" lon="98.683311">
<time>2016-10-07T12:15:01Z</time></trkpt>
<trkpt lat="28.707775" lon="98.683361">
<time>2016-10-07T12:15:02Z</time></trkpt>
<trkpt lat="28.707805" lon="98.683421">
<time>2016-10-07T12:15:03Z</time></trkpt>
<trkpt lat="28.707884" lon="98.683551">
<time>2016-10-07T12:15:04Z</time></trkpt>
<trkpt lat="28.707934" lon="98.68365">
<time>2016-10-07T12:15:05Z</time></trkpt>
<trkpt lat="28.707974" lon="98.68373">
<time>2016-10-07T12:15:06Z</time></trkpt>
<trkpt lat="28.708024" lon="98.68384">
<time>2016-10-07T12:15:07Z</time></trkpt>
<trkpt lat="28.708064" lon="98.683959">
<time>2016-10-07T12:15:08Z</time></trkpt>
<trkpt lat="28.708113" lon="98.684069">
<time>2016-10-07T12:15:09Z</time></trkpt>
<trkpt lat="28.708153" lon="98.684139">
<time>2016-10-07T12:15:10Z</time></trkpt>
<trkpt lat="28.708183" lon="98.684189">
<time>2016-10-07T12:15:11Z</time></trkpt>
<trkpt lat="28.708223" lon="98.684239">
<time>2016-10-07T12:15:12Z</time></trkpt>
<trkpt lat="28.708273" lon="98.684279">
<time>2016-10-07T12:15:13Z</time></trkpt>
<trkpt lat="28.708323" lon="98.684318">
<time>2016-10-07T12:15:14Z</time></trkpt>
<trkpt lat="28.708393" lon="98.684348">
<time>2016-10-07T12:15:15Z</time></trkpt>
<trkpt lat="28.708453" lon="98.684378">
<time>2016-10-07T12:15:16Z</time></trkpt>
<trkpt lat="28.708533" lon="98.684398">
<time>2016-10-07T12:15:17Z</time></trkpt>
<trkpt lat="28.708592" lon="98.684408">
<time>2016-10-07T12:15:18Z</time></trkpt>
<trkpt lat="28.708672" lon="98.684408">
<time>2016-10-07T12:15:19Z</time></trkpt>
<trkpt lat="28.708742" lon="98.684398">
<time>2016-10-07T12:15:20Z</time></trkpt>
<trkpt lat="28.708782" lon="98.684398">
<time>2016-10-07T12:15:21Z</time></trkpt>
<trkpt lat="28.708872" lon="98.684378">
<time>2016-10-07T12:15:22Z</time></trkpt>
<trkpt lat="28.708962" lon="98.684358">
<time>2016-10-07T12:15:23Z</time></trkpt>
<trkpt lat="28.709052" lon="98.684338">
<time>2016-10-07T12:15:24Z</time></trkpt>
<trkpt lat="28.709182" lon="98.684298">
<time>2016-10-07T12:15:25Z</time></trkpt>
<trkpt lat="28.709332" lon="98.684249">
<time>2016-10-07T12:15:26Z</time></trkpt>
<trkpt lat="28.709522" lon="98.684189">
<time>2016-10-07T12:15:27Z</time></trkpt>
<trkpt lat="28.709692" lon="98.684139">
<time>2016-10-07T12:15:28Z</time></trkpt>
<trkpt lat="28.709832" lon="98.684099">
<time>2016-10-07T12:15:29Z</time></trkpt>
<trkpt lat="28.709902" lon="98.684079">
<time>2016-10-07T12:15:30Z</time></trkpt>
<trkpt lat="28.709992" lon="98.684059">
<time>2016-10-07T12:15:31Z</time></trkpt>
<trkpt lat="28.710112" lon="98.684029">
<time>2016-10-07T12:15:32Z</time></trkpt>
<trkpt lat="28.710272" lon="98.683999">
<time>2016-10-07T12:15:33Z</time></trkpt>
<trkpt lat="28.710512" lon="98.683949">
<time>2016-10-07T12:15:34Z</time></trkpt>
<trkpt lat="28.710592" lon="98.683929">
<time>2016-10-07T12:15:35Z</time></trkpt>
<trkpt lat="28.710692" lon="98.683909">
<time>2016-10-07T12:15:36Z</time></trkpt>
<trkpt lat="28.710852" lon="98.68387">
<time>2016-10-07T12:15:37Z</time></trkpt>
<trkpt lat="28.710962" lon="98.68384">
<time>2016-10-07T12:15:38Z</time></trkpt>
<trkpt lat="28.711062" lon="98.6838">
<time>2016-10-07T12:15:39Z</time></trkpt>
<trkpt lat="28.711262" lon="98.68373">
<time>2016-10-07T12:15:40Z</time></trkpt>
<trkpt lat="28.711432" lon="98.68367">
<time>2016-10-07T12:15:41Z</time></trkpt>
<trkpt lat="28.711612" lon="98.68361">
<time>2016-10-07T12:15:42Z</time></trkpt>
<trkpt lat="28.711802" lon="98.68354">
<time>2016-10-07T12:15:43Z</time></trkpt>
<trkpt lat="28.712022" lon="98.683471">
<time>2016-10-07T12:15:44Z</time></trkpt>
<trkpt lat="28.712172" lon="98.683421">
<time>2016-10-07T12:15:45Z</time></trkpt>
<trkpt lat="28.712342" lon="98.683371">
<time>2016-10-07T12:15:46Z</time></trkpt>
<trkpt lat="28.712522" lon="98.683321">
<time>2016-10-07T12:15:47Z</time></trkpt>
<trkpt lat="28.712652" lon="98.683291">
<time>2016-10-07T12:15:48Z</time></trkpt>
<trkpt lat="28.712772" lon="98.683251">
<time>2016-10-07T12:15:49Z</time></trkpt>
<trkpt lat="28.712902" lon="98.683211">
<time>2016-10-07T12:15:50Z</time></trkpt>
<trkpt lat="28.713022" lon="98.683161">
<time>2016-10-07T12:15:51Z</time></trkpt>
<trkpt lat="28.713152" lon="98.683102">
<time>2016-10-07T12:15:52Z</time></trkpt>
<trkpt lat="28.713322" lon="98.683022">
<time>2016-10-07T12:15:53Z</time></trkpt>
<trkpt lat="28.713442" lon="98.682962">
<time>2016-10-07T12:15:54Z</time></trkpt>
<trkpt lat="28.713532" lon="98.682932">
<time>2016-10-07T12:15:55Z</time></trkpt>
<trkpt lat="28.713662" lon="98.682882">
<time>2016-10-07T12:15:56Z</time></trkpt>
<trkpt lat="28.713822" lon="98.682822">
<time>2016-10-07T12:15:57Z</time></trkpt>
<trkpt lat="28.714002" lon="98.682763">
<time>2016-10-07T12:15:58Z</time></trkpt>
<trkpt lat="28.714152" lon="98.682723">
<time>2016-10-07T12:15:59Z</time></trkpt>
<trkpt lat="28.714292" lon="98.682683">
<time>2016-10-07T12:16:00Z</time></trkpt>
<trkpt lat="28.714472" lon="98.682633">
<time>2016-10-07T12:16:01Z</time></trkpt>
<trkpt lat="28.714632" lon="98.682603">
<time>2016-10-07T12:16:02Z</time></trkpt>
<trkpt lat="28.714792" lon="98.682573">
<time>2016-10-07T12:16:03Z</time></trkpt>
<trkpt lat="28.714942" lon="98.682553">
<time>2016-10-07T12:16:04Z</time></trkpt>
<trkpt lat="28.715142" lon="98.682533">
<time>2016-10-07T12:16:05Z</time></trkpt>
<trkpt lat="28.715332" lon="98.682523">
<time>2016-10-07T12:16:06Z</time></trkpt>
<trkpt lat="28.715582" lon="98.682513">
<time>2016-10-07T12:16:07Z</time></trkpt>
<trkpt lat="28.715892" lon="98.682513">
<time>2016-10-07T12:16:08Z</time></trkpt>
<trkpt lat="28.716061" lon="98.682513">
<time>2016-10-07T12:16:09Z</time></trkpt>
<trkpt lat="28.716171" lon="98.682523">
<time>2016-10-07T12:16:10Z</time></trkpt>
<trkpt lat="28.716271" lon="98.682533">
<time>2016-10-07T12:16:11Z</time></trkpt>
<trkpt lat="28.716391" lon="98.682553">
<time>2016-10-07T12:16:12Z</time></trkpt>
<trkpt lat="28.716511" lon="98.682573">
<time>2016-10-07T12:16:13Z</time></trkpt>
<trkpt lat="28.716641" lon="98.682603">
<time>2016-10-07T12:16:14Z</time></trkpt>
<trkpt lat="28.716781" lon="98.682633">
<time>2016-10-07T12:16:15Z</time></trkpt>
<trkpt lat="28.7171" lon="98.682733">
<time>2016-10-07T12:16:16Z</time></trkpt>
<trkpt lat="28.71731" lon="98.682802">
<time>2016-10-07T12:16:17Z</time></trkpt>
<trkpt lat="28.71765" lon="98.682902">
<time>2016-10-07T12:16:18Z</time></trkpt>
<trkpt lat="28.71782" lon="98.682962">
<time>2016-10-07T12:16:19Z</time></trkpt>
<trkpt lat="28.717979" lon="98.683012">
<time>2016-10-07T12:16:20Z</time></trkpt>
<trkpt lat="28.718299" lon="98.683121">
<time>2016-10-07T12:16:21Z</time></trkpt>
<trkpt lat="28.718579" lon="98.683231">
<time>2016-10-07T12:16:22Z</time></trkpt>
<trkpt lat="28.718658" lon="98.683261">
<time>2016-10-07T12:16:23Z</time></trkpt>
<trkpt lat="28.718748" lon="98.683301">
<time>2016-10-07T12:16:24Z</time></trkpt>
<trkpt lat="28.718878" lon="98.683351">
<time>2016-10-07T12:16:25Z</time></trkpt>
<trkpt lat="28.718988" lon="98.683401">
<time>2016-10-07T12:16:26Z</time></trkpt>
<trkpt lat="28.719078" lon="98.683451">
<time>2016-10-07T12:16:27Z</time></trkpt>
<trkpt lat="28.719168" lon="98.6835">
<time>2016-10-07T12:16:28Z</time></trkpt>
<trkpt lat="28.719307" lon="98.68359">
<time>2016-10-07T12:16:29Z</time></trkpt>
<trkpt lat="28.719447" lon="98.68368">
<time>2016-10-07T12:16:30Z</time></trkpt>
<trkpt lat="28.719567" lon="98.68375">
<time>2016-10-07T12:16:31Z</time></trkpt>
<trkpt lat="28.719727" lon="98.683849">
<time>2016-10-07T12:16:32Z</time></trkpt>
<trkpt lat="28.719916" lon="98.683969">
<time>2016-10-07T12:16:33Z</time></trkpt>
<trkpt lat="28.720316" lon="98.684218">
<time>2016-10-07T12:16:34Z</time></trkpt>
<trkpt lat="28.720545" lon="98.684368">
<time>2016-10-07T12:16:35Z</time></trkpt>
<trkpt lat="28.720865" lon="98.684567">
<time>2016-10-07T12:16:36Z</time></trkpt>
<trkpt lat="28.720944" lon="98.684627">
<time>2016-10-07T12:16:37Z</time></trkpt>
<trkpt lat="28.720994" lon="98.684657">
<time>2016-10-07T12:16:38Z</time></trkpt>
<trkpt lat="28.721034" lon="98.684677">
<time>2016-10-07T12:16:39Z</time></trkpt>
<trkpt lat="28.721094" lon="98.684687">
<time>2016-10-07T12:16:40Z</time></trkpt>
<trkpt lat="28.721154" lon="98.684707">
<time>2016-10-07T12:16:41Z</time></trkpt>
<trkpt lat="28.721204" lon="98.684717">
<time>2016-10-07T12:16:42Z</time></trkpt>
<trkpt lat="28.721274" lon="98.684717">
<time>2016-10-07T12:16:43Z</time></trkpt>
<trkpt lat="28.721404" lon="98.684727">
<time>2016-10-07T12:16:44Z</time></trkpt>
<trkpt lat="28.721674" lon="98.684737">
<time>2016-10-07T12:16:45Z</time></trkpt>
<trkpt lat="28.721864" lon="98.684747">
<time>2016-10-07T12:16:46Z</time></trkpt>
<trkpt lat="28.722253" lon="98.684757">
<time>2016-10-07T12:16:47Z</time></trkpt>
<trkpt lat="28.722863" lon="98.684777">
<time>2016-10-07T12:16:48Z</time></trkpt>
<trkpt lat="28.723513" lon="98.684807">
<time>2016-10-07T12:16:49Z</time></trkpt>
<trkpt lat="28.723553" lon="98.684807">
<time>2016-10-07T12:16:50Z</time></trkpt>
<trkpt lat="28.723582" lon="98.684807">
<time>2016-10-07T12:16:51Z</time></trkpt>
<trkpt lat="28.723612" lon="98.684807">
<time>2016-10-07T12:16:52Z</time></trkpt>
<trkpt lat="28.723642" lon="98.684797">
<time>2016-10-07T12:16:53Z</time></trkpt>
<trkpt lat="28.723672" lon="98.684787">
<time>2016-10-07T12:16:54Z</time></trkpt>
<trkpt lat="28.723692" lon="98.684777">
<time>2016-10-07T12:16:55Z</time></trkpt>
<trkpt lat="28.723732" lon="98.684757">
<time>2016-10-07T12:16:56Z</time></trkpt>
<trkpt lat="28.723773" lon="98.684737">
<time>2016-10-07T12:16:57Z</time></trkpt>
<trkpt lat="28.723973" lon="98.684617">
<time>2016-10-07T12:16:58Z</time></trkpt>
<trkpt lat="28.724023" lon="98.684587">
<time>2016-10-07T12:16:59Z</time></trkpt>
<trkpt lat="28.724073" lon="98.684567">
<time>2016-10-07T12:17:00Z</time></trkpt>
<trkpt lat="28.724113" lon="98.684547">
<time>2016-10-07T12:17:01Z</time></trkpt>
<trkpt lat="28.724153" lon="98.684538">
<time>2016-10-07T12:17:02Z</time></trkpt>
<trkpt lat="28.724183" lon="98.684528">
<time>2016-10-07T12:17:03Z</time></trkpt>
<trkpt lat="28.724223" lon="98.684528">
<time>2016-10-07T12:17:04Z</time></trkpt>
<trkpt lat="28.724273" lon="98.684528">
<time>2016-10-07T12:17:05Z</time></trkpt>
<trkpt lat="28.724343" lon="98.684528">
<time>2016-10-07T12:17:06Z</time></trkpt>
<trkpt lat="28.724412" lon="98.684528">
<time>2016-10-07T12:17:07Z</time></trkpt>
<trkpt lat="28.724952" lon="98.684567">
<time>2016-10-07T12:17:08Z</time></trkpt>
<trkpt lat="28.725032" lon="98.684577">
<time>2016-10-07T12:17:09Z</time></trkpt>
<trkpt lat="28.725092" lon="98.684577">
<time>2016-10-07T12:17:10Z</time></trkpt>
<trkpt lat="28.725132" lon="98.684587">
<time>2016-10-07T12:17:11Z</time></trkpt>
<trkpt lat="28.725172" lon="98.684587">
<time>2016-10-07T12:17:12Z</time></trkpt>
<trkpt lat="28.725212" lon="98.684597">
<time>2016-10-07T12:17:13Z</time></trkpt>
<trkpt lat="28.725242" lon="98.684607">
<time>2016-10-07T12:17:14Z</time></trkpt>
<trkpt lat="28.725282" lon="98.684627">
<time>2016-10-07T12:17:15Z</time></trkpt>
<trkpt lat="28.725322" lon="98.684647">
<time>2016-10-07T12:17:16Z</time></trkpt>
<trkpt lat="28.725352" lon="98.684667">
<time>2016-10-07T12:17:17Z</time></trkpt>
<trkpt lat="28.725392" lon="98.684687">
<time>2016-10-07T12:17:18Z</time></trkpt>
<trkpt lat="28.725432" lon="98.684717">
<time>2016-10-07T12:17:19Z</time></trkpt>
<trkpt lat="28.725491" lon="98.684757">
<time>2016-10-07T12:17:20Z</time></trkpt>
<trkpt lat="28.725571" lon="98.684827">
<time>2016-10-07T12:17:21Z</time></trkpt>
<trkpt lat="28.725821" lon="98.685006">
<time>2016-10-07T12:17:22Z</time></trkpt>
<trkpt lat="28.72618" lon="98.685265">
<time>2016-10-07T12:17:23Z</time></trkpt>
<trkpt lat="28.72621" lon="98.685285">
<time>2016-10-07T12:17:24Z</time></trkpt>
<trkpt lat="28.72624" lon="98.685305">
<time>2016-10-07T12:17:25Z</time></trkpt>
<trkpt lat="28.72627" lon="98.685315">
<time>2016-10-07T12:17:26Z</time></trkpt>
<trkpt lat="28.7263" lon="98.685335">
<time>2016-10-07T12:17:27Z</time></trkpt>
<trkpt lat="28.72642" lon="98.685375">
<time>2016-10-07T12:17:28Z</time></trkpt>
<trkpt lat="28.726999" lon="98.685525">
<time>2016-10-07T12:17:29Z</time></trkpt>
<trkpt lat="28.727309" lon="98.685605">
<time>2016-10-07T12:17:30Z</time></trkpt>
<trkpt lat="28.727469" lon="98.685644">
<time>2016-10-07T12:17:31Z</time></trkpt>
<trkpt lat="28.727598" lon="98.685664">
<time>2016-10-07T12:17:32Z</time></trkpt>
<trkpt lat="28.727718" lon="98.685674">
<time>2016-10-07T12:17:33Z</time></trkpt>
<trkpt lat="28.727868" lon="98.685674">
<time>2016-10-07T12:17:34Z</time></trkpt>
<trkpt lat="28.727978" lon="98.685674">
<time>2016-10-07T12:17:35Z</time></trkpt>
<trkpt lat="28.728098" lon="98.685674">
<time>2016-10-07T12:17:36Z</time></trkpt>
<trkpt lat="28.728258" lon="98.685644">
<time>2016-10-07T12:17:37Z</time></trkpt>
<trkpt lat="28.728548" lon="98.685615">
<time>2016-10-07T12:17:38Z</time></trkpt>
<trkpt lat="28.728688" lon="98.685595">
<time>2016-10-07T12:17:39Z</time></trkpt>
<trkpt lat="28.728848" lon="98.685565">
<time>2016-10-07T12:17:40Z</time></trkpt>
<trkpt lat="28.728988" lon="98.685535">
<time>2016-10-07T12:17:41Z</time></trkpt>
<trkpt lat="28.729128" lon="98.685495">
<time>2016-10-07T12:17:42Z</time></trkpt>
<trkpt lat="28.729318" lon="98.685415">
<time>2016-10-07T12:17:43Z</time></trkpt>
<trkpt lat="28.729498" lon="98.685335">
<time>2016-10-07T12:17:44Z</time></trkpt>
<trkpt lat="28.729648" lon="98.685255">
<time>2016-10-07T12:17:45Z</time></trkpt>
<trkpt lat="28.729738" lon="98.685216">
<time>2016-10-07T12:17:46Z</time></trkpt>
<trkpt lat="28.729828" lon="98.685186">
<time>2016-10-07T12:17:47Z</time></trkpt>
<trkpt lat="28.729958" lon="98.685146">
<time>2016-10-07T12:17:48Z</time></trkpt>
<trkpt lat="28.730108" lon="98.685106">
<time>2016-10-07T12:17:49Z</time></trkpt>
<trkpt lat="28.730248" lon="98.685066">
<time>2016-10-07T12:17:50Z</time></trkpt>
<trkpt lat="28.730318" lon="98.685046">
<time>2016-10-07T12:17:51Z</time></trkpt>
<trkpt lat="28.730388" lon="98.685006">
<time>2016-10-07T12:17:52Z</time></trkpt>
<trkpt lat="28.730468" lon="98.684966">
<time>2016-10-07T12:17:53Z</time></trkpt>
<trkpt lat="28.730558" lon="98.684906">
<time>2016-10-07T12:17:54Z</time></trkpt>
<trkpt lat="28.730678" lon="98.684827">
<time>2016-10-07T12:17:55Z</time></trkpt>
<trkpt lat="28.730908" lon="98.684667">
<time>2016-10-07T12:17:56Z</time></trkpt>
<trkpt lat="28.731118" lon="98.684527">
<time>2016-10-07T12:17:57Z</time></trkpt>
<trkpt lat="28.731318" lon="98.684388">
<time>2016-10-07T12:17:58Z</time></trkpt>
<trkpt lat="28.731438" lon="98.684318">
<time>2016-10-07T12:17:59Z</time></trkpt>
<trkpt lat="28.731549" lon="98.684248">
<time>2016-10-07T12:18:00Z</time></trkpt>
<trkpt lat="28.731639" lon="98.684188">
<time>2016-10-07T12:18:01Z</time></trkpt>
<trkpt lat="28.731739" lon="98.684128">
<time>2016-10-07T12:18:02Z</time></trkpt>
<trkpt lat="28.731819" lon="98.684069">
<time>2016-10-07T12:18:03Z</time></trkpt>
<trkpt lat="28.731889" lon="98.684009">
<time>2016-10-07T12:18:04Z</time></trkpt>
<trkpt lat="28.731969" lon="98.683959">
<time>2016-10-07T12:18:05Z</time></trkpt>
<trkpt lat="28.732079" lon="98.683879">
<time>2016-10-07T12:18:06Z</time></trkpt>
<trkpt lat="28.732149" lon="98.683829">
<time>2016-10-07T12:18:07Z</time></trkpt>
<trkpt lat="28.732219" lon="98.683779">
<time>2016-10-07T12:18:08Z</time></trkpt>
<trkpt lat="28.732279" lon="98.68373">
<time>2016-10-07T12:18:09Z</time></trkpt>
<trkpt lat="28.732339" lon="98.68368">
<time>2016-10-07T12:18:10Z</time></trkpt>
<trkpt lat="28.732359" lon="98.68366">
<time>2016-10-07T12:18:11Z</time></trkpt>
<trkpt lat="28.732379" lon="98.68364">
<time>2016-10-07T12:18:12Z</time></trkpt>
<trkpt lat="28.732399" lon="98.68363">
<time>2016-10-07T12:18:13Z</time></trkpt>
<trkpt lat="28.732409" lon="98.68361">
<time>2016-10-07T12:18:14Z</time></trkpt>
<trkpt lat="28.732419" lon="98.68358">
<time>2016-10-07T12:18:15Z</time></trkpt>
<trkpt lat="28.732429" lon="98.68356">
<time>2016-10-07T12:18:16Z</time></trkpt>
<trkpt lat="28.732439" lon="98.68353">
<time>2016-10-07T12:18:17Z</time></trkpt>
<trkpt lat="28.732459" lon="98.6835">
<time>2016-10-07T12:18:18Z</time></trkpt>
<trkpt lat="28.732469" lon="98.68348">
<time>2016-10-07T12:18:19Z</time></trkpt>
<trkpt lat="28.732479" lon="98.68346">
<time>2016-10-07T12:18:20Z</time></trkpt>
<trkpt lat="28.732499" lon="98.68344">
<time>2016-10-07T12:18:21Z</time></trkpt>
<trkpt lat="28.732519" lon="98.68342">
<time>2016-10-07T12:18:22Z</time></trkpt>
<trkpt lat="28.73255" lon="98.683391">
<time>2016-10-07T12:18:23Z</time></trkpt>
<trkpt lat="28.73257" lon="98.683381">
<time>2016-10-07T12:18:24Z</time></trkpt>
<trkpt lat="28.73259" lon="98.683361">
<time>2016-10-07T12:18:25Z</time></trkpt>
<trkpt lat="28.73264" lon="98.683341">
<time>2016-10-07T12:18:26Z</time></trkpt>
<trkpt lat="28.7327" lon="98.683311">
<time>2016-10-07T12:18:27Z</time></trkpt>
<trkpt lat="28.73277" lon="98.683271">
<time>2016-10-07T12:18:28Z</time></trkpt>
<trkpt lat="28.73288" lon="98.683221">
<time>2016-10-07T12:18:29Z</time></trkpt>
<trkpt lat="28.73301" lon="98.683181">
<time>2016-10-07T12:18:30Z</time></trkpt>
<trkpt lat="28.7331" lon="98.683141">
<time>2016-10-07T12:18:31Z</time></trkpt>
<trkpt lat="28.73316" lon="98.683111">
<time>2016-10-07T12:18:32Z</time></trkpt>
<trkpt lat="28.73321" lon="98.683081">
<time>2016-10-07T12:18:33Z</time></trkpt>
<trkpt lat="28.73325" lon="98.683051">
<time>2016-10-07T12:18:34Z</time></trkpt>
<trkpt lat="28.73331" lon="98.683012">
<time>2016-10-07T12:18:35Z</time></trkpt>
<trkpt lat="28.73336" lon="98.682972">
<time>2016-10-07T12:18:36Z</time></trkpt>
<trkpt lat="28.73343" lon="98.682902">
<time>2016-10-07T12:18:37Z</time></trkpt>
<trkpt lat="28.73352" lon="98.682812">
<time>2016-10-07T12:18:38Z</time></trkpt>
<trkpt lat="28.73363" lon="98.682702">
<time>2016-10-07T12:18:39Z</time></trkpt>
<trkpt lat="28.73375" lon="98.682583">
<time>2016-10-07T12:18:40Z</time></trkpt>
<trkpt lat="28.73385" lon="98.682493">
<time>2016-10-07T12:18:41Z</time></trkpt>
<trkpt lat="28.73396" lon="98.682393">
<time>2016-10-07T12:18:42Z</time></trkpt>
<trkpt lat="28.734091" lon="98.682284">
<time>2016-10-07T12:18:43Z</time></trkpt>
<trkpt lat="28.734201" lon="98.682184">
<time>2016-10-07T12:18:44Z</time></trkpt>
<trkpt lat="28.734311" lon="98.682074">
<time>2016-10-07T12:18:45Z</time></trkpt>
<trkpt lat="28.734401" lon="98.681994">
<time>2016-10-07T12:18:46Z</time></trkpt>
<trkpt lat="28.734451" lon="98.681934">
<time>2016-10-07T12:18:47Z</time></trkpt>
<trkpt lat="28.734501" lon="98.681875">
<time>2016-10-07T12:18:48Z</time></trkpt>
<trkpt lat="28.734551" lon="98.681815">
<time>2016-10-07T12:18:49Z</time></trkpt>
<trkpt lat="28.734601" lon="98.681735">
<time>2016-10-07T12:18:50Z</time></trkpt>
<trkpt lat="28.734661" lon="98.681645">
<time>2016-10-07T12:18:51Z</time></trkpt>
<trkpt lat="28.734742" lon="98.681526">
<time>2016-10-07T12:18:52Z</time></trkpt>
<trkpt lat="28.734792" lon="98.681456">
<time>2016-10-07T12:18:53Z</time></trkpt>
<trkpt lat="28.734832" lon="98.681406">
<time>2016-10-07T12:18:54Z</time></trkpt>
<trkpt lat="28.734872" lon="98.681366">
<time>2016-10-07T12:18:55Z</time></trkpt>
<trkpt lat="28.734912" lon="98.681326">
<time>2016-10-07T12:18:56Z</time></trkpt>
<trkpt lat="28.734942" lon="98.681296">
<time>2016-10-07T12:18:57Z</time></trkpt>
<trkpt lat="28.734992" lon="98.681266">
<time>2016-10-07T12:18:58Z</time></trkpt>
<trkpt lat="28.735032" lon="98.681246">
<time>2016-10-07T12:18:59Z</time></trkpt>
<trkpt lat="28.735092" lon="98.681216">
<time>2016-10-07T12:19:00Z</time></trkpt>
<trkpt lat="28.735142" lon="98.681196">
<time>2016-10-07T12:19:01Z</time></trkpt>
<trkpt lat="28.735202" lon="98.681187">
<time>2016-10-07T12:19:02Z</time></trkpt>
<trkpt lat="28.735282" lon="98.681177">
<time>2016-10-07T12:19:03Z</time></trkpt>
<trkpt lat="28.735352" lon="98.681167">
<time>2016-10-07T12:19:04Z</time></trkpt>
<trkpt lat="28.735452" lon="98.681147">
<time>2016-10-07T12:19:05Z</time></trkpt>
<trkpt lat="28.735762" lon="98.681107">
<time>2016-10-07T12:19:06Z</time></trkpt>
<trkpt lat="28.735922" lon="98.681087">
<time>2016-10-07T12:19:07Z</time></trkpt>
<trkpt lat="28.736002" lon="98.681087">
<time>2016-10-07T12:19:08Z</time></trkpt>
<trkpt lat="28.736062" lon="98.681087">
<time>2016-10-07T12:19:09Z</time></trkpt>
<trkpt lat="28.736122" lon="98.681087">
<time>2016-10-07T12:19:10Z</time></trkpt>
<trkpt lat="28.736171" lon="98.681097">
<time>2016-10-07T12:19:11Z</time></trkpt>
<trkpt lat="28.736221" lon="98.681107">
<time>2016-10-07T12:19:12Z</time></trkpt>
<trkpt lat="28.736281" lon="98.681127">
<time>2016-10-07T12:19:13Z</time></trkpt>
<trkpt lat="28.736361" lon="98.681147">
<time>2016-10-07T12:19:14Z</time></trkpt>
<trkpt lat="28.736481" lon="98.681187">
<time>2016-10-07T12:19:15Z</time></trkpt>
<trkpt lat="28.736561" lon="98.681206">
<time>2016-10-07T12:19:16Z</time></trkpt>
<trkpt lat="28.736631" lon="98.681226">
<time>2016-10-07T12:19:17Z</time></trkpt>
<trkpt lat="28.736701" lon="98.681236">
<time>2016-10-07T12:19:18Z</time></trkpt>
<trkpt lat="28.736781" lon="98.681246">
<time>2016-10-07T12:19:19Z</time></trkpt>
<trkpt lat="28.736841" lon="98.681246">
<time>2016-10-07T12:19:20Z</time></trkpt>
<trkpt lat="28.736891" lon="98.681256">
<time>2016-10-07T12:19:21Z</time></trkpt>
<trkpt lat="28.736981" lon="98.681246">
<time>2016-10-07T12:19:22Z</time></trkpt>
<trkpt lat="28.737061" lon="98.681236">
<time>2016-10-07T12:19:23Z</time></trkpt>
<trkpt lat="28.737161" lon="98.681226">
<time>2016-10-07T12:19:24Z</time></trkpt>
<trkpt lat="28.737251" lon="98.681206">
<time>2016-10-07T12:19:25Z</time></trkpt>
<trkpt lat="28.737331" lon="98.681177">
<time>2016-10-07T12:19:26Z</time></trkpt>
<trkpt lat="28.737441" lon="98.681147">
<time>2016-10-07T12:19:27Z</time></trkpt>
<trkpt lat="28.737551" lon="98.681107">
<time>2016-10-07T12:19:28Z</time></trkpt>
<trkpt lat="28.737651" lon="98.681077">
<time>2016-10-07T12:19:29Z</time></trkpt>
<trkpt lat="28.737741" lon="98.681047">
<time>2016-10-07T12:19:30Z</time></trkpt>
<trkpt lat="28.737821" lon="98.681027">
<time>2016-10-07T12:19:31Z</time></trkpt>
<trkpt lat="28.737921" lon="98.680997">
<time>2016-10-07T12:19:32Z</time></trkpt>
<trkpt lat="28.738041" lon="98.680967">
<time>2016-10-07T12:19:33Z</time></trkpt>
<trkpt lat="28.73822" lon="98.680937">
<time>2016-10-07T12:19:34Z</time></trkpt>
<trkpt lat="28.73843" lon="98.680887">
<time>2016-10-07T12:19:35Z</time></trkpt>
<trkpt lat="28.73855" lon="98.680867">
<time>2016-10-07T12:19:36Z</time></trkpt>
<trkpt lat="28.73863" lon="98.680857">
<time>2016-10-07T12:19:37Z</time></trkpt>
<trkpt lat="28.7387" lon="98.680857">
<time>2016-10-07T12:19:38Z</time></trkpt>
<trkpt lat="28.73877" lon="98.680867">
<time>2016-10-07T12:19:39Z</time></trkpt>
<trkpt lat="28.73885" lon="98.680887">
<time>2016-10-07T12:19:40Z</time></trkpt>
<trkpt lat="28.73893" lon="98.680917">
<time>2016-10-07T12:19:41Z</time></trkpt>
<trkpt lat="28.73901" lon="98.680947">
<time>2016-10-07T12:19:42Z</time></trkpt>
<trkpt lat="28.73912" lon="98.680997">
<time>2016-10-07T12:19:43Z</time></trkpt>
<trkpt lat="28.73926" lon="98.681057">
<time>2016-10-07T12:19:44Z</time></trkpt>
<trkpt lat="28.739389" lon="98.681107">
<time>2016-10-07T12:19:45Z</time></trkpt>
<trkpt lat="28.739519" lon="98.681157">
<time>2016-10-07T12:19:46Z</time></trkpt>
<trkpt lat="28.739619" lon="98.681206">
<time>2016-10-07T12:19:47Z</time></trkpt>
<trkpt lat="28.739809" lon="98.681286">
<time>2016-10-07T12:19:48Z</time></trkpt>
<trkpt lat="28.739889" lon="98.681316">
<time>2016-10-07T12:19:49Z</time></trkpt>
<trkpt lat="28.739959" lon="98.681336">
<time>2016-10-07T12:19:50Z</time></trkpt>
<trkpt lat="28.740019" lon="98.681356">
<time>2016-10-07T12:19:51Z</time></trkpt>
<trkpt lat="28.740098" lon="98.681376">
<time>2016-10-07T12:19:52Z</time></trkpt>
<trkpt lat="28.740218" lon="98.681396">
<time>2016-10-07T12:19:53Z</time></trkpt>
<trkpt lat="28.740308" lon="98.681406">
<time>2016-10-07T12:19:54Z</time></trkpt>
<trkpt lat="28.740388" lon="98.681416">
<time>2016-10-07T12:19:55Z</time></trkpt>
<trkpt lat="28.740458" lon="98.681416">
<time>2016-10-07T12:19:56Z</time></trkpt>
<trkpt lat="28.740548" lon="98.681406">
<time>2016-10-07T12:19:57Z</time></trkpt>
<trkpt lat="28.740668" lon="98.681406">
<time>2016-10-07T12:19:58Z</time></trkpt>
<trkpt lat="28.740838" lon="98.681396">
<time>2016-10-07T12:19:59Z</time></trkpt>
<trkpt lat="28.741218" lon="98.681396">
<time>2016-10-07T12:20:00Z</time></trkpt>
<trkpt lat="28.741448" lon="98.681406">
<time>2016-10-07T12:20:01Z</time></trkpt>
<trkpt lat="28.741518" lon="98.681396">
<time>2016-10-07T12:20:02Z</time></trkpt>
<trkpt lat="28.741557" lon="98.681406">
<time>2016-10-07T12:20:03Z</time></trkpt>
<trkpt lat="28.741607" lon="98.681406">
<time>2016-10-07T12:20:04Z</time></trkpt>
<trkpt lat="28.741647" lon="98.681416">
<time>2016-10-07T12:20:05Z</time></trkpt>
<trkpt lat="28.741707" lon="98.681436">
<time>2016-10-07T12:20:06Z</time></trkpt>
<trkpt lat="28.741747" lon="98.681456">
<time>2016-10-07T12:20:07Z</time></trkpt>
<trkpt lat="28.741787" lon="98.681476">
<time>2016-10-07T12:20:08Z</time></trkpt>
<trkpt lat="28.741817" lon="98.681496">
<time>2016-10-07T12:20:09Z</time></trkpt>
<trkpt lat="28.741847" lon="98.681515">
<time>2016-10-07T12:20:10Z</time></trkpt>
<trkpt lat="28.741877" lon="98.681545">
<time>2016-10-07T12:20:11Z</time></trkpt>
<trkpt lat="28.741897" lon="98.681575">
<time>2016-10-07T12:20:12Z</time></trkpt>
<trkpt lat="28.741917" lon="98.681605">
<time>2016-10-07T12:20:13Z</time></trkpt>
<trkpt lat="28.741927" lon="98.681635">
<time>2016-10-07T12:20:14Z</time></trkpt>
<trkpt lat="28.741937" lon="98.681665">
<time>2016-10-07T12:20:15Z</time></trkpt>
<trkpt lat="28.741947" lon="98.681695">
<time>2016-10-07T12:20:16Z</time></trkpt>
<trkpt lat="28.741957" lon="98.681725">
<time>2016-10-07T12:20:17Z</time></trkpt>
<trkpt lat="28.741957" lon="98.681765">
<time>2016-10-07T12:20:18Z</time></trkpt>
<trkpt lat="28.741956" lon="98.681805">
<time>2016-10-07T12:20:19Z</time></trkpt>
<trkpt lat="28.741956" lon="98.681845">
<time>2016-10-07T12:20:20Z</time></trkpt>
<trkpt lat="28.741956" lon="98.681894">
<time>2016-10-07T12:20:21Z</time></trkpt>
<trkpt lat="28.741946" lon="98.681934">
<time>2016-10-07T12:20:22Z</time></trkpt>
<trkpt lat="28.741936" lon="98.681984">
<time>2016-10-07T12:20:23Z</time></trkpt>
<trkpt lat="28.741886" lon="98.682224">
<time>2016-10-07T12:20:24Z</time></trkpt>
<trkpt lat="28.741876" lon="98.682253">
<time>2016-10-07T12:20:25Z</time></trkpt>
<trkpt lat="28.741876" lon="98.682283">
<time>2016-10-07T12:20:26Z</time></trkpt>
<trkpt lat="28.741866" lon="98.682313">
<time>2016-10-07T12:20:27Z</time></trkpt>
<trkpt lat="28.741866" lon="98.682353">
<time>2016-10-07T12:20:28Z</time></trkpt>
<trkpt lat="28.741865" lon="98.682393">
<time>2016-10-07T12:20:29Z</time></trkpt>
<trkpt lat="28.741855" lon="98.682423">
<time>2016-10-07T12:20:30Z</time></trkpt>
<trkpt lat="28.741865" lon="98.682453">
<time>2016-10-07T12:20:31Z</time></trkpt>
<trkpt lat="28.741865" lon="98.682483">
<time>2016-10-07T12:20:32Z</time></trkpt>
<trkpt lat="28.741865" lon="98.682513">
<time>2016-10-07T12:20:33Z</time></trkpt>
<trkpt lat="28.741875" lon="98.682543">
<time>2016-10-07T12:20:34Z</time></trkpt>
<trkpt lat="28.741885" lon="98.682573">
<time>2016-10-07T12:20:35Z</time></trkpt>
<trkpt lat="28.741895" lon="98.682603">
<time>2016-10-07T12:20:36Z</time></trkpt>
<trkpt lat="28.741905" lon="98.682632">
<time>2016-10-07T12:20:37Z</time></trkpt>
<trkpt lat="28.741925" lon="98.682662">
<time>2016-10-07T12:20:38Z</time></trkpt>
<trkpt lat="28.741945" lon="98.682692">
<time>2016-10-07T12:20:39Z</time></trkpt>
<trkpt lat="28.741965" lon="98.682732">
<time>2016-10-07T12:20:40Z</time></trkpt>
<trkpt lat="28.741995" lon="98.682762">
<time>2016-10-07T12:20:41Z</time></trkpt>
<trkpt lat="28.742025" lon="98.682792">
<time>2016-10-07T12:20:42Z</time></trkpt>
<trkpt lat="28.742055" lon="98.682812">
<time>2016-10-07T12:20:43Z</time></trkpt>
<trkpt lat="28.742084" lon="98.682832">
<time>2016-10-07T12:20:44Z</time></trkpt>
<trkpt lat="28.742174" lon="98.682902">
<time>2016-10-07T12:20:45Z</time></trkpt>
<trkpt lat="28.742404" lon="98.683051">
<time>2016-10-07T12:20:46Z</time></trkpt>
<trkpt lat="28.742524" lon="98.683131">
<time>2016-10-07T12:20:47Z</time></trkpt>
<trkpt lat="28.742574" lon="98.683171">
<time>2016-10-07T12:20:48Z</time></trkpt>
<trkpt lat="28.742623" lon="98.683211">
<time>2016-10-07T12:20:49Z</time></trkpt>
<trkpt lat="28.742663" lon="98.683241">
<time>2016-10-07T12:20:50Z</time></trkpt>
<trkpt lat="28.742693" lon="98.683281">
<time>2016-10-07T12:20:51Z</time></trkpt>
<trkpt lat="28.742733" lon="98.683311">
<time>2016-10-07T12:20:52Z</time></trkpt>
<trkpt lat="28.742763" lon="98.68335">
<time>2016-10-07T12:20:53Z</time></trkpt>
<trkpt lat="28.742813" lon="98.68341">
<time>2016-10-07T12:20:54Z</time></trkpt>
<trkpt lat="28.742923" lon="98.68356">
<time>2016-10-07T12:20:55Z</time></trkpt>
<trkpt lat="28.742962" lon="98.6836">
<time>2016-10-07T12:20:56Z</time></trkpt>
<trkpt lat="28.742992" lon="98.68364">
<time>2016-10-07T12:20:57Z</time></trkpt>
<trkpt lat="28.743032" lon="98.68368">
<time>2016-10-07T12:20:58Z</time></trkpt>
<trkpt lat="28.743072" lon="98.683709">
<time>2016-10-07T12:20:59Z</time></trkpt>
<trkpt lat="28.743122" lon="98.683739">
<time>2016-10-07T12:21:00Z</time></trkpt>
<trkpt lat="28.743162" lon="98.683769">
<time>2016-10-07T12:21:01Z</time></trkpt>
<trkpt lat="28.743212" lon="98.683799">
<time>2016-10-07T12:21:02Z</time></trkpt>
<trkpt lat="28.743272" lon="98.683819">
<time>2016-10-07T12:21:03Z</time></trkpt>
<trkpt lat="28.743332" lon="98.683839">
<time>2016-10-07T12:21:04Z</time></trkpt>
<trkpt lat="28.743392" lon="98.683849">
<time>2016-10-07T12:21:05Z</time></trkpt>
<trkpt lat="28.743462" lon="98.683859">
<time>2016-10-07T12:21:06Z</time></trkpt>
<trkpt lat="28.743542" lon="98.683869">
<time>2016-10-07T12:21:07Z</time></trkpt>
<trkpt lat="28.743632" lon="98.683869">
<time>2016-10-07T12:21:08Z</time></trkpt>
<trkpt lat="28.743841" lon="98.683879">
<time>2016-10-07T12:21:09Z</time></trkpt>
<trkpt lat="28.744181" lon="98.683879">
<time>2016-10-07T12:21:10Z</time></trkpt>
<trkpt lat="28.744641" lon="98.683879">
<time>2016-10-07T12:21:11Z</time></trkpt>
<trkpt lat="28.745071" lon="98.683889">
<time>2016-10-07T12:21:12Z</time></trkpt>
<trkpt lat="28.745161" lon="98.683879">
<time>2016-10-07T12:21:13Z</time></trkpt>
<trkpt lat="28.74526" lon="98.683879">
<time>2016-10-07T12:21:14Z</time></trkpt>
<trkpt lat="28.74537" lon="98.683859">
<time>2016-10-07T12:21:15Z</time></trkpt>
<trkpt lat="28.74553" lon="98.683839">
<time>2016-10-07T12:21:16Z</time></trkpt>
<trkpt lat="28.74571" lon="98.683799">
<time>2016-10-07T12:21:17Z</time></trkpt>
<trkpt lat="28.74607" lon="98.683709">
<time>2016-10-07T12:21:18Z</time></trkpt>
<trkpt lat="28.74625" lon="98.683669">
<time>2016-10-07T12:21:19Z</time></trkpt>
<trkpt lat="28.74642" lon="98.68363">
<time>2016-10-07T12:21:20Z</time></trkpt>
<trkpt lat="28.74673" lon="98.68358">
<time>2016-10-07T12:21:21Z</time></trkpt>
<trkpt lat="28.74726" lon="98.68349">
<time>2016-10-07T12:21:22Z</time></trkpt>
<trkpt lat="28.74772" lon="98.68341">
<time>2016-10-07T12:21:23Z</time></trkpt>
<trkpt lat="28.74796" lon="98.68338">
<time>2016-10-07T12:21:24Z</time></trkpt>
<trkpt lat="28.74805" lon="98.68337">
<time>2016-10-07T12:21:25Z</time></trkpt>
<trkpt lat="28.74812" lon="98.68337">
<time>2016-10-07T12:21:26Z</time></trkpt>
<trkpt lat="28.7482" lon="98.68337">
<time>2016-10-07T12:21:27Z</time></trkpt>
<trkpt lat="28.748279" lon="98.68338">
<time>2016-10-07T12:21:28Z</time></trkpt>
<trkpt lat="28.748429" lon="98.6834">
<time>2016-10-07T12:21:29Z</time></trkpt>
<trkpt lat="28.748699" lon="98.68344">
<time>2016-10-07T12:21:30Z</time></trkpt>
<trkpt lat="28.748949" lon="98.68348">
<time>2016-10-07T12:21:31Z</time></trkpt>
<trkpt lat="28.749069" lon="98.68351">
<time>2016-10-07T12:21:32Z</time></trkpt>
<trkpt lat="28.749199" lon="98.68354">
<time>2016-10-07T12:21:33Z</time></trkpt>
<trkpt lat="28.749288" lon="98.68356">
<time>2016-10-07T12:21:34Z</time></trkpt>
<trkpt lat="28.749428" lon="98.6836">
<time>2016-10-07T12:21:35Z</time></trkpt>
<trkpt lat="28.749498" lon="98.68362">
<time>2016-10-07T12:21:36Z</time></trkpt>
<trkpt lat="28.749568" lon="98.68363">
<time>2016-10-07T12:21:37Z</time></trkpt>
<trkpt lat="28.749638" lon="98.68364">
<time>2016-10-07T12:21:38Z</time></trkpt>
<trkpt lat="28.749718" lon="98.683649">
<time>2016-10-07T12:21:39Z</time></trkpt>
<trkpt lat="28.749798" lon="98.683649">
<time>2016-10-07T12:21:40Z</time></trkpt>
<trkpt lat="28.749878" lon="98.683649">
<time>2016-10-07T12:21:41Z</time></trkpt>
<trkpt lat="28.749948" lon="98.68364">
<time>2016-10-07T12:21:42Z</time></trkpt>
<trkpt lat="28.750038" lon="98.68363">
<time>2016-10-07T12:21:43Z</time></trkpt>
<trkpt lat="28.750258" lon="98.68359">
<time>2016-10-07T12:21:44Z</time></trkpt>
<trkpt lat="28.750588" lon="98.68353">
<time>2016-10-07T12:21:45Z</time></trkpt>
<trkpt lat="28.751038" lon="98.68345">
<time>2016-10-07T12:21:46Z</time></trkpt>
<trkpt lat="28.751177" lon="98.68343">
<time>2016-10-07T12:21:47Z</time></trkpt>
<trkpt lat="28.751277" lon="98.68342">
<time>2016-10-07T12:21:48Z</time></trkpt>
<trkpt lat="28.751367" lon="98.68341">
<time>2016-10-07T12:21:49Z</time></trkpt>
<trkpt lat="28.751487" lon="98.6834">
<time>2016-10-07T12:21:50Z</time></trkpt>
<trkpt lat="28.751647" lon="98.6834">
<time>2016-10-07T12:21:51Z</time></trkpt>
<trkpt lat="28.751927" lon="98.6834">
<time>2016-10-07T12:21:52Z</time></trkpt>
<trkpt lat="28.752047" lon="98.6834">
<time>2016-10-07T12:21:53Z</time></trkpt>
<trkpt lat="28.752147" lon="98.68339">
<time>2016-10-07T12:21:54Z</time></trkpt>
<trkpt lat="28.752287" lon="98.68337">
<time>2016-10-07T12:21:55Z</time></trkpt>
<trkpt lat="28.752517" lon="98.68332">
<time>2016-10-07T12:21:56Z</time></trkpt>
<trkpt lat="28.752747" lon="98.683261">
<time>2016-10-07T12:21:57Z</time></trkpt>
<trkpt lat="28.752847" lon="98.683241">
<time>2016-10-07T12:21:58Z</time></trkpt>
<trkpt lat="28.752937" lon="98.683231">
<time>2016-10-07T12:21:59Z</time></trkpt>
<trkpt lat="28.753057" lon="98.683231">
<time>2016-10-07T12:22:00Z</time></trkpt>
<trkpt lat="28.753217" lon="98.683231">
<time>2016-10-07T12:22:01Z</time></trkpt>
<trkpt lat="28.753366" lon="98.683241">
<time>2016-10-07T12:22:02Z</time></trkpt>
<trkpt lat="28.753506" lon="98.683251">
<time>2016-10-07T12:22:03Z</time></trkpt>
<trkpt lat="28.753796" lon="98.68328">
<time>2016-10-07T12:22:04Z</time></trkpt>
<trkpt lat="28.753906" lon="98.6833">
<time>2016-10-07T12:22:05Z</time></trkpt>
<trkpt lat="28.754036" lon="98.68332">
<time>2016-10-07T12:22:06Z</time></trkpt>
<trkpt lat="28.754146" lon="98.68334">
<time>2016-10-07T12:22:07Z</time></trkpt>
<trkpt lat="28.754236" lon="98.68334">
<time>2016-10-07T12:22:08Z</time></trkpt>
<trkpt lat="28.754336" lon="98.68333">
<time>2016-10-07T12:22:09Z</time></trkpt>
<trkpt lat="28.754426" lon="98.68332">
<time>2016-10-07T12:22:10Z</time></trkpt>
<trkpt lat="28.754755" lon="98.6833">
<time>2016-10-07T12:22:11Z</time></trkpt>
<trkpt lat="28.755025" lon="98.68328">
<time>2016-10-07T12:22:12Z</time></trkpt>
<trkpt lat="28.755095" lon="98.68327">
<time>2016-10-07T12:22:13Z</time></trkpt>
<trkpt lat="28.755155" lon="98.68327">
<time>2016-10-07T12:22:14Z</time></trkpt>
<trkpt lat="28.755215" lon="98.68325">
<time>2016-10-07T12:22:15Z</time></trkpt>
<trkpt lat="28.755295" lon="98.683231">
<time>2016-10-07T12:22:16Z</time></trkpt>
<trkpt lat="28.755355" lon="98.683221">
<time>2016-10-07T12:22:17Z</time></trkpt>
<trkpt lat="28.755425" lon="98.683211">
<time>2016-10-07T12:22:18Z</time></trkpt>
<trkpt lat="28.755495" lon="98.683201">
<time>2016-10-07T12:22:19Z</time></trkpt>
<trkpt lat="28.755615" lon="98.683191">
<time>2016-10-07T12:22:20Z</time></trkpt>
<trkpt lat="28.755735" lon="98.683181">
<time>2016-10-07T12:22:21Z</time></trkpt>
<trkpt lat="28.755825" lon="98.683171">
<time>2016-10-07T12:22:22Z</time></trkpt>
<trkpt lat="28.755925" lon="98.683161">
<time>2016-10-07T12:22:23Z</time></trkpt>
<trkpt lat="28.756015" lon="98.683141">
<time>2016-10-07T12:22:24Z</time></trkpt>
<trkpt lat="28.756145" lon="98.683111">
<time>2016-10-07T12:22:25Z</time></trkpt>
<trkpt lat="28.756245" lon="98.683071">
<time>2016-10-07T12:22:26Z</time></trkpt>
<trkpt lat="28.756325" lon="98.683041">
<time>2016-10-07T12:22:27Z</time></trkpt>
<trkpt lat="28.756415" lon="98.683001">
<time>2016-10-07T12:22:28Z</time></trkpt>
<trkpt lat="28.756515" lon="98.682941">
<time>2016-10-07T12:22:29Z</time></trkpt>
<trkpt lat="28.756605" lon="98.682871">
<time>2016-10-07T12:22:30Z</time></trkpt>
<trkpt lat="28.756685" lon="98.682802">
<time>2016-10-07T12:22:31Z</time></trkpt>
<trkpt lat="28.756795" lon="98.682722">
<time>2016-10-07T12:22:32Z</time></trkpt>
<trkpt lat="28.757045" lon="98.682503">
<time>2016-10-07T12:22:33Z</time></trkpt>
<trkpt lat="28.757125" lon="98.682423">
<time>2016-10-07T12:22:34Z</time></trkpt>
<trkpt lat="28.757216" lon="98.682343">
<time>2016-10-07T12:22:35Z</time></trkpt>
<trkpt lat="28.757296" lon="98.682243">
<time>2016-10-07T12:22:36Z</time></trkpt>
<trkpt lat="28.757396" lon="98.682134">
<time>2016-10-07T12:22:37Z</time></trkpt>
<trkpt lat="28.757526" lon="98.681984">
<time>2016-10-07T12:22:38Z</time></trkpt>
<trkpt lat="28.757646" lon="98.681804">
<time>2016-10-07T12:22:39Z</time></trkpt>
<trkpt lat="28.757817" lon="98.681595">
<time>2016-10-07T12:22:40Z</time></trkpt>
<trkpt lat="28.757977" lon="98.681376">
<time>2016-10-07T12:22:41Z</time></trkpt>
<trkpt lat="28.758107" lon="98.681196">
<time>2016-10-07T12:22:42Z</time></trkpt>
<trkpt lat="28.758277" lon="98.680977">
<time>2016-10-07T12:22:43Z</time></trkpt>
<trkpt lat="28.758378" lon="98.680817">
<time>2016-10-07T12:22:44Z</time></trkpt>
<trkpt lat="28.758458" lon="98.680687">
<time>2016-10-07T12:22:45Z</time></trkpt>
<trkpt lat="28.758578" lon="98.680468">
<time>2016-10-07T12:22:46Z</time></trkpt>
<trkpt lat="28.758688" lon="98.680259">
<time>2016-10-07T12:22:47Z</time></trkpt>
<trkpt lat="28.758769" lon="98.680109">
<time>2016-10-07T12:22:48Z</time></trkpt>
<trkpt lat="28.758869" lon="98.6799">
<time>2016-10-07T12:22:49Z</time></trkpt>
<trkpt lat="28.758969" lon="98.67971">
<time>2016-10-07T12:22:50Z</time></trkpt>
<trkpt lat="28.759029" lon="98.67961">
<time>2016-10-07T12:22:51Z</time></trkpt>
<trkpt lat="28.75907" lon="98.679521">
<time>2016-10-07T12:22:52Z</time></trkpt>
<trkpt lat="28.7591" lon="98.679461">
<time>2016-10-07T12:22:53Z</time></trkpt>
<trkpt lat="28.75914" lon="98.679371">
<time>2016-10-07T12:22:54Z</time></trkpt>
<trkpt lat="28.75917" lon="98.679311">
<time>2016-10-07T12:22:55Z</time></trkpt>
<trkpt lat="28.75918" lon="98.679261">
<time>2016-10-07T12:22:56Z</time></trkpt>
<trkpt lat="28.7592" lon="98.679202">
<time>2016-10-07T12:22:57Z</time></trkpt>
<trkpt lat="28.75921" lon="98.679152">
<time>2016-10-07T12:22:58Z</time></trkpt>
<trkpt lat="28.75921" lon="98.679102">
<time>2016-10-07T12:22:59Z</time></trkpt>
<trkpt lat="28.75922" lon="98.679062">
<time>2016-10-07T12:23:00Z</time></trkpt>
<trkpt lat="28.75922" lon="98.679022">
<time>2016-10-07T12:23:01Z</time></trkpt>
<trkpt lat="28.759231" lon="98.678962">
<time>2016-10-07T12:23:02Z</time></trkpt>
<trkpt lat="28.759231" lon="98.678902">
<time>2016-10-07T12:23:03Z</time></trkpt>
<trkpt lat="28.759231" lon="98.678823">
<time>2016-10-07T12:23:04Z</time></trkpt>
<trkpt lat="28.759231" lon="98.678563">
<time>2016-10-07T12:23:05Z</time></trkpt>
<trkpt lat="28.759232" lon="98.678284">
<time>2016-10-07T12:23:06Z</time></trkpt>
<trkpt lat="28.759232" lon="98.678204">
<time>2016-10-07T12:23:07Z</time></trkpt>
<trkpt lat="28.759242" lon="98.678105">
<time>2016-10-07T12:23:08Z</time></trkpt>
<trkpt lat="28.759252" lon="98.678035">
<time>2016-10-07T12:23:09Z</time></trkpt>
<trkpt lat="28.759263" lon="98.677945">
<time>2016-10-07T12:23:10Z</time></trkpt>
<trkpt lat="28.759273" lon="98.677875">
<time>2016-10-07T12:23:11Z</time></trkpt>
<trkpt lat="28.759293" lon="98.677776">
<time>2016-10-07T12:23:12Z</time></trkpt>
<trkpt lat="28.759313" lon="98.677626">
<time>2016-10-07T12:23:13Z</time></trkpt>
<trkpt lat="28.759364" lon="98.677267">
<time>2016-10-07T12:23:14Z</time></trkpt>
<trkpt lat="28.759394" lon="98.677137">
<time>2016-10-07T12:23:15Z</time></trkpt>
<trkpt lat="28.759404" lon="98.677058">
<time>2016-10-07T12:23:16Z</time></trkpt>
<trkpt lat="28.759414" lon="98.677008">
<time>2016-10-07T12:23:17Z</time></trkpt>
<trkpt lat="28.759424" lon="98.676978">
<time>2016-10-07T12:23:18Z</time></trkpt>
<trkpt lat="28.759434" lon="98.676948">
<time>2016-10-07T12:23:19Z</time></trkpt>
<trkpt lat="28.759454" lon="98.676908">
<time>2016-10-07T12:23:20Z</time></trkpt>
<trkpt lat="28.759474" lon="98.676868">
<time>2016-10-07T12:23:21Z</time></trkpt>
<trkpt lat="28.759504" lon="98.676828">
<time>2016-10-07T12:23:22Z</time></trkpt>
<trkpt lat="28.759535" lon="98.676798">
<time>2016-10-07T12:23:23Z</time></trkpt>
<trkpt lat="28.759575" lon="98.676768">
<time>2016-10-07T12:23:24Z</time></trkpt>
<trkpt lat="28.759615" lon="98.676728">
<time>2016-10-07T12:23:25Z</time></trkpt>
<trkpt lat="28.759655" lon="98.676699">
<time>2016-10-07T12:23:26Z</time></trkpt>
<trkpt lat="28.759755" lon="98.676639">
<time>2016-10-07T12:23:27Z</time></trkpt>
<trkpt lat="28.759875" lon="98.676559">
<time>2016-10-07T12:23:28Z</time></trkpt>
<trkpt lat="28.760035" lon="98.676459">
<time>2016-10-07T12:23:29Z</time></trkpt>
<trkpt lat="28.760195" lon="98.67635">
<time>2016-10-07T12:23:30Z</time></trkpt>
<trkpt lat="28.760415" lon="98.67621">
<time>2016-10-07T12:23:31Z</time></trkpt>
<trkpt lat="28.760635" lon="98.67606">
<time>2016-10-07T12:23:32Z</time></trkpt>
<trkpt lat="28.760705" lon="98.67601">
<time>2016-10-07T12:23:33Z</time></trkpt>
<trkpt lat="28.760765" lon="98.675971">
<time>2016-10-07T12:23:34Z</time></trkpt>
<trkpt lat="28.760805" lon="98.675951">
<time>2016-10-07T12:23:35Z</time></trkpt>
<trkpt lat="28.760835" lon="98.675931">
<time>2016-10-07T12:23:36Z</time></trkpt>
<trkpt lat="28.760865" lon="98.675921">
<time>2016-10-07T12:23:37Z</time></trkpt>
<trkpt lat="28.760895" lon="98.675901">
<time>2016-10-07T12:23:38Z</time></trkpt>
<trkpt lat="28.760925" lon="98.675891">
<time>2016-10-07T12:23:39Z</time></trkpt>
<trkpt lat="28.760955" lon="98.675881">
<time>2016-10-07T12:23:40Z</time></trkpt>
<trkpt lat="28.761005" lon="98.675861">
<time>2016-10-07T12:23:41Z</time></trkpt>
<trkpt lat="28.761055" lon="98.675851">
<time>2016-10-07T12:23:42Z</time></trkpt>
<trkpt lat="28.761095" lon="98.675841">
<time>2016-10-07T12:23:43Z</time></trkpt>
<trkpt lat="28.761165" lon="98.675821">
<time>2016-10-07T12:23:44Z</time></trkpt>
<trkpt lat="28.761215" lon="98.675811">
<time>2016-10-07T12:23:45Z</time></trkpt>
<trkpt lat="28.761295" lon="98.675801">
<time>2016-10-07T12:23:46Z</time></trkpt>
<trkpt lat="28.761585" lon="98.675781">
<time>2016-10-07T12:23:47Z</time></trkpt>
<trkpt lat="28.761835" lon="98.675751">
<time>2016-10-07T12:23:48Z</time></trkpt>
<trkpt lat="28.762265" lon="98.675721">
<time>2016-10-07T12:23:49Z</time></trkpt>
<trkpt lat="28.762525" lon="98.675701">
<time>2016-10-07T12:23:50Z</time></trkpt>
<trkpt lat="28.762625" lon="98.675701">
<time>2016-10-07T12:23:51Z</time></trkpt>
<trkpt lat="28.762764" lon="98.675701">
<time>2016-10-07T12:23:52Z</time></trkpt>
<trkpt lat="28.762904" lon="98.675721">
<time>2016-10-07T12:23:53Z</time></trkpt>
<trkpt lat="28.763074" lon="98.675731">
<time>2016-10-07T12:23:54Z</time></trkpt>
<trkpt lat="28.763144" lon="98.675751">
<time>2016-10-07T12:23:55Z</time></trkpt>
<trkpt lat="28.763244" lon="98.675771">
<time>2016-10-07T12:23:56Z</time></trkpt>
<trkpt lat="28.763324" lon="98.675801">
<time>2016-10-07T12:23:57Z</time></trkpt>
<trkpt lat="28.763414" lon="98.675831">
<time>2016-10-07T12:23:58Z</time></trkpt>
<trkpt lat="28.763504" lon="98.675861">
<time>2016-10-07T12:23:59Z</time></trkpt>
<trkpt lat="28.763793" lon="98.67597">
<time>2016-10-07T12:24:00Z</time></trkpt>
<trkpt lat="28.763873" lon="98.676">
<time>2016-10-07T12:24:01Z</time></trkpt>
<trkpt lat="28.763943" lon="98.67603">
<time>2016-10-07T12:24:02Z</time></trkpt>
<trkpt lat="28.763963" lon="98.67603">
<time>2016-10-07T12:24:03Z</time></trkpt>
<trkpt lat="28.763993" lon="98.67604">
<time>2016-10-07T12:24:04Z</time></trkpt>
<trkpt lat="28.764043" lon="98.67604">
<time>2016-10-07T12:24:05Z</time></trkpt>
<trkpt lat="28.764103" lon="98.67605">
<time>2016-10-07T12:24:06Z</time></trkpt>
<trkpt lat="28.764153" lon="98.67605">
<time>2016-10-07T12:24:07Z</time></trkpt>
<trkpt lat="28.764353" lon="98.67605">
<time>2016-10-07T12:24:08Z</time></trkpt>
<trkpt lat="28.764693" lon="98.67605">
<time>2016-10-07T12:24:09Z</time></trkpt>
<trkpt lat="28.764882" lon="98.67606">
<time>2016-10-07T12:24:10Z</time></trkpt>
<trkpt lat="28.765012" lon="98.67607">
<time>2016-10-07T12:24:11Z</time></trkpt>
<trkpt lat="28.765132" lon="98.67608">
<time>2016-10-07T12:24:12Z</time></trkpt>
<trkpt lat="28.765372" lon="98.67612">
<time>2016-10-07T12:24:13Z</time></trkpt>
<trkpt lat="28.765562" lon="98.67615">
<time>2016-10-07T12:24:14Z</time></trkpt>
<trkpt lat="28.765811" lon="98.6762">
<time>2016-10-07T12:24:15Z</time></trkpt>
<trkpt lat="28.766001" lon="98.67623">
<time>2016-10-07T12:24:16Z</time></trkpt>
<trkpt lat="28.766121" lon="98.67626">
<time>2016-10-07T12:24:17Z</time></trkpt>
<trkpt lat="28.766231" lon="98.67628">
<time>2016-10-07T12:24:18Z</time></trkpt>
<trkpt lat="28.766321" lon="98.67631">
<time>2016-10-07T12:24:19Z</time></trkpt>
<trkpt lat="28.766411" lon="98.676329">
<time>2016-10-07T12:24:20Z</time></trkpt>
<trkpt lat="28.766491" lon="98.676349">
<time>2016-10-07T12:24:21Z</time></trkpt>
<trkpt lat="28.766561" lon="98.676379">
<time>2016-10-07T12:24:22Z</time></trkpt>
<trkpt lat="28.7668" lon="98.676449">
<time>2016-10-07T12:24:23Z</time></trkpt>
<trkpt lat="28.76691" lon="98.676489">
<time>2016-10-07T12:24:24Z</time></trkpt>
<trkpt lat="28.76697" lon="98.676509">
<time>2016-10-07T12:24:25Z</time></trkpt>
<trkpt lat="28.76704" lon="98.676519">
<time>2016-10-07T12:24:26Z</time></trkpt>
<trkpt lat="28.76712" lon="98.676539">
<time>2016-10-07T12:24:27Z</time></trkpt>
<trkpt lat="28.76721" lon="98.676549">
<time>2016-10-07T12:24:28Z</time></trkpt>
<trkpt lat="28.7673" lon="98.676559">
<time>2016-10-07T12:24:29Z</time></trkpt>
<trkpt lat="28.76738" lon="98.676569">
<time>2016-10-07T12:24:30Z</time></trkpt>
<trkpt lat="28.76747" lon="98.676569">
<time>2016-10-07T12:24:31Z</time></trkpt>
<trkpt lat="28.76761" lon="98.676579">
<time>2016-10-07T12:24:32Z</time></trkpt>
<trkpt lat="28.767829" lon="98.676579">
<time>2016-10-07T12:24:33Z</time></trkpt>
<trkpt lat="28.768159" lon="98.676589">
<time>2016-10-07T12:24:34Z</time></trkpt>
<trkpt lat="28.768339" lon="98.676589">
<time>2016-10-07T12:24:35Z</time></trkpt>
<trkpt lat="28.768449" lon="98.676599">
<time>2016-10-07T12:24:36Z</time></trkpt>
<trkpt lat="28.768519" lon="98.676599">
<time>2016-10-07T12:24:37Z</time></trkpt>
<trkpt lat="28.768579" lon="98.676609">
<time>2016-10-07T12:24:38Z</time></trkpt>
<trkpt lat="28.768639" lon="98.676619">
<time>2016-10-07T12:24:39Z</time></trkpt>
<trkpt lat="28.768699" lon="98.676629">
<time>2016-10-07T12:24:40Z</time></trkpt>
<trkpt lat="28.768749" lon="98.676649">
<time>2016-10-07T12:24:41Z</time></trkpt>
<trkpt lat="28.768799" lon="98.676658">
<time>2016-10-07T12:24:42Z</time></trkpt>
<trkpt lat="28.768849" lon="98.676678">
<time>2016-10-07T12:24:43Z</time></trkpt>
<trkpt lat="28.768908" lon="98.676698">
<time>2016-10-07T12:24:44Z</time></trkpt>
<trkpt lat="28.768958" lon="98.676728">
<time>2016-10-07T12:24:45Z</time></trkpt>
<trkpt lat="28.768998" lon="98.676748">
<time>2016-10-07T12:24:46Z</time></trkpt>
<trkpt lat="28.769038" lon="98.676768">
<time>2016-10-07T12:24:47Z</time></trkpt>
<trkpt lat="28.769068" lon="98.676798">
<time>2016-10-07T12:24:48Z</time></trkpt>
<trkpt lat="28.769118" lon="98.676818">
<time>2016-10-07T12:24:49Z</time></trkpt>
<trkpt lat="28.769148" lon="98.676848">
<time>2016-10-07T12:24:50Z</time></trkpt>
<trkpt lat="28.769208" lon="98.676898">
<time>2016-10-07T12:24:51Z</time></trkpt>
<trkpt lat="28.769268" lon="98.676948">
<time>2016-10-07T12:24:52Z</time></trkpt>
<trkpt lat="28.769318" lon="98.676998">
<time>2016-10-07T12:24:53Z</time></trkpt>
<trkpt lat="28.769367" lon="98.677047">
<time>2016-10-07T12:24:54Z</time></trkpt>
<trkpt lat="28.769417" lon="98.677117">
<time>2016-10-07T12:24:55Z</time></trkpt>
<trkpt lat="28.769507" lon="98.677227">
<time>2016-10-07T12:24:56Z</time></trkpt>
<trkpt lat="28.769756" lon="98.677546">
<time>2016-10-07T12:24:57Z</time></trkpt>
<trkpt lat="28.769846" lon="98.677646">
<time>2016-10-07T12:24:58Z</time></trkpt>
<trkpt lat="28.770165" lon="98.678065">
<time>2016-10-07T12:24:59Z</time></trkpt>
<trkpt lat="28.770225" lon="98.678134">
<time>2016-10-07T12:25:00Z</time></trkpt>
<trkpt lat="28.770275" lon="98.678194">
<time>2016-10-07T12:25:01Z</time></trkpt>
<trkpt lat="28.770315" lon="98.678244">
<time>2016-10-07T12:25:02Z</time></trkpt>
<trkpt lat="28.770354" lon="98.678284">
<time>2016-10-07T12:25:03Z</time></trkpt>
<trkpt lat="28.770414" lon="98.678334">
<time>2016-10-07T12:25:04Z</time></trkpt>
<trkpt lat="28.770494" lon="98.678404">
<time>2016-10-07T12:25:05Z</time></trkpt>
<trkpt lat="28.770564" lon="98.678453">
<time>2016-10-07T12:25:06Z</time></trkpt>
<trkpt lat="28.770624" lon="98.678493">
<time>2016-10-07T12:25:07Z</time></trkpt>
<trkpt lat="28.770754" lon="98.678573">
<time>2016-10-07T12:25:08Z</time></trkpt>
<trkpt lat="28.770834" lon="98.678623">
<time>2016-10-07T12:25:09Z</time></trkpt>
<trkpt lat="28.771043" lon="98.678753">
<time>2016-10-07T12:25:10Z</time></trkpt>
<trkpt lat="28.771293" lon="98.678912">
<time>2016-10-07T12:25:11Z</time></trkpt>
<trkpt lat="28.771392" lon="98.678972">
<time>2016-10-07T12:25:12Z</time></trkpt>
<trkpt lat="28.771472" lon="98.679012">
<time>2016-10-07T12:25:13Z</time></trkpt>
<trkpt lat="28.771522" lon="98.679042">
<time>2016-10-07T12:25:14Z</time></trkpt>
<trkpt lat="28.771592" lon="98.679082">
<time>2016-10-07T12:25:15Z</time></trkpt>
<trkpt lat="28.771662" lon="98.679112">
<time>2016-10-07T12:25:16Z</time></trkpt>
<trkpt lat="28.771712" lon="98.679132">
<time>2016-10-07T12:25:17Z</time></trkpt>
<trkpt lat="28.771762" lon="98.679152">
<time>2016-10-07T12:25:18Z</time></trkpt>
<trkpt lat="28.771822" lon="98.679161">
<time>2016-10-07T12:25:19Z</time></trkpt>
<trkpt lat="28.771892" lon="98.679181">
<time>2016-10-07T12:25:20Z</time></trkpt>
<trkpt lat="28.771962" lon="98.679201">
<time>2016-10-07T12:25:21Z</time></trkpt>
<trkpt lat="28.772112" lon="98.679221">
<time>2016-10-07T12:25:22Z</time></trkpt>
<trkpt lat="28.772291" lon="98.679251">
<time>2016-10-07T12:25:23Z</time></trkpt>
<trkpt lat="28.772521" lon="98.679301">
<time>2016-10-07T12:25:24Z</time></trkpt>
<trkpt lat="28.772641" lon="98.679321">
<time>2016-10-07T12:25:25Z</time></trkpt>
<trkpt lat="28.772751" lon="98.679341">
<time>2016-10-07T12:25:26Z</time></trkpt>
<trkpt lat="28.772831" lon="98.679341">
<time>2016-10-07T12:25:27Z</time></trkpt>
<trkpt lat="28.772891" lon="98.679351">
<time>2016-10-07T12:25:28Z</time></trkpt>
<trkpt lat="28.772971" lon="98.679351">
<time>2016-10-07T12:25:29Z</time></trkpt>
<trkpt lat="28.773061" lon="98.679351">
<time>2016-10-07T12:25:30Z</time></trkpt>
<trkpt lat="28.77333" lon="98.679341">
<time>2016-10-07T12:25:31Z</time></trkpt>
<trkpt lat="28.77418" lon="98.679311">
<time>2016-10-07T12:25:32Z</time></trkpt>
<trkpt lat="28.77477" lon="98.679291">
<time>2016-10-07T12:25:33Z</time></trkpt>
<trkpt lat="28.775309" lon="98.679271">
<time>2016-10-07T12:25:34Z</time></trkpt>
<trkpt lat="28.775569" lon="98.679261">
<time>2016-10-07T12:25:35Z</time></trkpt>
<trkpt lat="28.775749" lon="98.679251">
<time>2016-10-07T12:25:36Z</time></trkpt>
<trkpt lat="28.775839" lon="98.679241">
<time>2016-10-07T12:25:37Z</time></trkpt>
<trkpt lat="28.775949" lon="98.679231">
<time>2016-10-07T12:25:38Z</time></trkpt>
<trkpt lat="28.776049" lon="98.679211">
<time>2016-10-07T12:25:39Z</time></trkpt>
<trkpt lat="28.776179" lon="98.679171">
<time>2016-10-07T12:25:40Z</time></trkpt>
<trkpt lat="28.776449" lon="98.679102">
<time>2016-10-07T12:25:41Z</time></trkpt>
<trkpt lat="28.776699" lon="98.679032">
<time>2016-10-07T12:25:42Z</time></trkpt>
<trkpt lat="28.776969" lon="98.678952">
<time>2016-10-07T12:25:43Z</time></trkpt>
<trkpt lat="28.777229" lon="98.678872">
<time>2016-10-07T12:25:44Z</time></trkpt>
<trkpt lat="28.777559" lon="98.678772">
<time>2016-10-07T12:25:45Z</time></trkpt>
<trkpt lat="28.777829" lon="98.678703">
<time>2016-10-07T12:25:46Z</time></trkpt>
<trkpt lat="28.778119" lon="98.678633">
<time>2016-10-07T12:25:47Z</time></trkpt>
<trkpt lat="28.778329" lon="98.678573">
<time>2016-10-07T12:25:48Z</time></trkpt>
<trkpt lat="28.778579" lon="98.678513">
<time>2016-10-07T12:25:49Z</time></trkpt>
<trkpt lat="28.778828" lon="98.678453">
<time>2016-10-07T12:25:50Z</time></trkpt>
<trkpt lat="28.779008" lon="98.678403">
<time>2016-10-07T12:25:51Z</time></trkpt>
<trkpt lat="28.779108" lon="98.678364">
<time>2016-10-07T12:25:52Z</time></trkpt>
<trkpt lat="28.779228" lon="98.678314">
<time>2016-10-07T12:25:53Z</time></trkpt>
<trkpt lat="28.779348" lon="98.678264">
<time>2016-10-07T12:25:54Z</time></trkpt>
<trkpt lat="28.779478" lon="98.678204">
<time>2016-10-07T12:25:55Z</time></trkpt>
<trkpt lat="28.779579" lon="98.678154">
<time>2016-10-07T12:25:56Z</time></trkpt>
<trkpt lat="28.779649" lon="98.678114">
<time>2016-10-07T12:25:57Z</time></trkpt>
<trkpt lat="28.779719" lon="98.678074">
<time>2016-10-07T12:25:58Z</time></trkpt>
<trkpt lat="28.779789" lon="98.678034">
<time>2016-10-07T12:25:59Z</time></trkpt>
<trkpt lat="28.779849" lon="98.677995">
<time>2016-10-07T12:26:00Z</time></trkpt>
<trkpt lat="28.779949" lon="98.677925">
<time>2016-10-07T12:26:01Z</time></trkpt>
<trkpt lat="28.780029" lon="98.677865">
<time>2016-10-07T12:26:02Z</time></trkpt>
<trkpt lat="28.780109" lon="98.677795">
<time>2016-10-07T12:26:03Z</time></trkpt>
<trkpt lat="28.780339" lon="98.677606">
<time>2016-10-07T12:26:04Z</time></trkpt>
<trkpt lat="28.780469" lon="98.677486">
<time>2016-10-07T12:26:05Z</time></trkpt>
<trkpt lat="28.780589" lon="98.677376">
<time>2016-10-07T12:26:06Z</time></trkpt>
<trkpt lat="28.780709" lon="98.677267">
<time>2016-10-07T12:26:07Z</time></trkpt>
<trkpt lat="28.78086" lon="98.677117">
<time>2016-10-07T12:26:08Z</time></trkpt>
<trkpt lat="28.781" lon="98.676967">
<time>2016-10-07T12:26:09Z</time></trkpt>
<trkpt lat="28.78122" lon="98.676698">
<time>2016-10-07T12:26:10Z</time></trkpt>
<trkpt lat="28.78137" lon="98.676499">
<time>2016-10-07T12:26:11Z</time></trkpt>
<trkpt lat="28.781491" lon="98.676329">
<time>2016-10-07T12:26:12Z</time></trkpt>
<trkpt lat="28.781571" lon="98.67621">
<time>2016-10-07T12:26:13Z</time></trkpt>
<trkpt lat="28.781631" lon="98.6761">
<time>2016-10-07T12:26:14Z</time></trkpt>
<trkpt lat="28.781681" lon="98.67596">
<time>2016-10-07T12:26:15Z</time></trkpt>
<trkpt lat="28.781721" lon="98.675841">
<time>2016-10-07T12:26:16Z</time></trkpt>
<trkpt lat="28.781772" lon="98.675731">
<time>2016-10-07T12:26:17Z</time></trkpt>
<trkpt lat="28.781812" lon="98.675651">
<time>2016-10-07T12:26:18Z</time></trkpt>
<trkpt lat="28.781862" lon="98.675571">
<time>2016-10-07T12:26:19Z</time></trkpt>
<trkpt lat="28.781912" lon="98.675501">
<time>2016-10-07T12:26:20Z</time></trkpt>
<trkpt lat="28.782002" lon="98.675402">
<time>2016-10-07T12:26:21Z</time></trkpt>
<trkpt lat="28.782162" lon="98.675212">
<time>2016-10-07T12:26:22Z</time></trkpt>
<trkpt lat="28.782333" lon="98.675023">
<time>2016-10-07T12:26:23Z</time></trkpt>
<trkpt lat="28.782503" lon="98.674823">
<time>2016-10-07T12:26:24Z</time></trkpt>
<trkpt lat="28.782593" lon="98.674704">
<time>2016-10-07T12:26:25Z</time></trkpt>
<trkpt lat="28.782653" lon="98.674614">
<time>2016-10-07T12:26:26Z</time></trkpt>
<trkpt lat="28.782703" lon="98.674514">
<time>2016-10-07T12:26:27Z</time></trkpt>
<trkpt lat="28.782733" lon="98.674444">
<time>2016-10-07T12:26:28Z</time></trkpt>
<trkpt lat="28.782774" lon="98.674355">
<time>2016-10-07T12:26:29Z</time></trkpt>
<trkpt lat="28.782794" lon="98.674285">
<time>2016-10-07T12:26:30Z</time></trkpt>
<trkpt lat="28.782834" lon="98.674165">
<time>2016-10-07T12:26:31Z</time></trkpt>
<trkpt lat="28.782874" lon="98.674036">
<time>2016-10-07T12:26:32Z</time></trkpt>
<trkpt lat="28.783035" lon="98.673547">
<time>2016-10-07T12:26:33Z</time></trkpt>
<trkpt lat="28.783065" lon="98.673427">
<time>2016-10-07T12:26:34Z</time></trkpt>
<trkpt lat="28.783085" lon="98.673347">
<time>2016-10-07T12:26:35Z</time></trkpt>
<trkpt lat="28.783116" lon="98.673228">
<time>2016-10-07T12:26:36Z</time></trkpt>
<trkpt lat="28.783136" lon="98.673128">
<time>2016-10-07T12:26:37Z</time></trkpt>
<trkpt lat="28.783156" lon="98.672988">
<time>2016-10-07T12:26:38Z</time></trkpt>
<trkpt lat="28.783217" lon="98.672659">
<time>2016-10-07T12:26:39Z</time></trkpt>
<trkpt lat="28.783237" lon="98.67256">
<time>2016-10-07T12:26:40Z</time></trkpt>
<trkpt lat="28.783287" lon="98.672261">
<time>2016-10-07T12:26:41Z</time></trkpt>
<trkpt lat="28.783328" lon="98.671981">
<time>2016-10-07T12:26:42Z</time></trkpt>
<trkpt lat="28.783358" lon="98.671862">
<time>2016-10-07T12:26:43Z</time></trkpt>
<trkpt lat="28.783388" lon="98.671752">
<time>2016-10-07T12:26:44Z</time></trkpt>
<trkpt lat="28.783408" lon="98.671682">
<time>2016-10-07T12:26:45Z</time></trkpt>
<trkpt lat="28.783438" lon="98.671622">
<time>2016-10-07T12:26:46Z</time></trkpt>
<trkpt lat="28.783458" lon="98.671572">
<time>2016-10-07T12:26:47Z</time></trkpt>
<trkpt lat="28.783478" lon="98.671552">
<time>2016-10-07T12:26:48Z</time></trkpt>
<trkpt lat="28.783499" lon="98.671533">
<time>2016-10-07T12:26:49Z</time></trkpt>
<trkpt lat="28.783519" lon="98.671513">
<time>2016-10-07T12:26:50Z</time></trkpt>
<trkpt lat="28.783549" lon="98.671493">
<time>2016-10-07T12:26:51Z</time></trkpt>
<trkpt lat="28.783609" lon="98.671453">
<time>2016-10-07T12:26:52Z</time></trkpt>
<trkpt lat="28.783679" lon="98.671423">
<time>2016-10-07T12:26:53Z</time></trkpt>
<trkpt lat="28.783739" lon="98.671403">
<time>2016-10-07T12:26:54Z</time></trkpt>
<trkpt lat="28.783799" lon="98.671383">
<time>2016-10-07T12:26:55Z</time></trkpt>
<trkpt lat="28.783869" lon="98.671363">
<time>2016-10-07T12:26:56Z</time></trkpt>
<trkpt lat="28.783959" lon="98.671343">
<time>2016-10-07T12:26:57Z</time></trkpt>
<trkpt lat="28.784158" lon="98.671323">
<time>2016-10-07T12:26:58Z</time></trkpt>
<trkpt lat="28.784578" lon="98.671283">
<time>2016-10-07T12:26:59Z</time></trkpt>
<trkpt lat="28.784798" lon="98.671253">
<time>2016-10-07T12:27:00Z</time></trkpt>
<trkpt lat="28.785208" lon="98.671213">
<time>2016-10-07T12:27:01Z</time></trkpt>
<trkpt lat="28.785288" lon="98.671203">
<time>2016-10-07T12:27:02Z</time></trkpt>
<trkpt lat="28.785408" lon="98.671183">
<time>2016-10-07T12:27:03Z</time></trkpt>
<trkpt lat="28.785528" lon="98.671164">
<time>2016-10-07T12:27:04Z</time></trkpt>
<trkpt lat="28.785798" lon="98.671094">
<time>2016-10-07T12:27:05Z</time></trkpt>
<trkpt lat="28.786048" lon="98.671034">
<time>2016-10-07T12:27:06Z</time></trkpt>
<trkpt lat="28.786438" lon="98.670934">
<time>2016-10-07T12:27:07Z</time></trkpt>
<trkpt lat="28.786768" lon="98.670854">
<time>2016-10-07T12:27:08Z</time></trkpt>
<trkpt lat="28.787028" lon="98.670795">
<time>2016-10-07T12:27:09Z</time></trkpt>
<trkpt lat="28.787228" lon="98.670725">
<time>2016-10-07T12:27:10Z</time></trkpt>
<trkpt lat="28.787467" lon="98.670645">
<time>2016-10-07T12:27:11Z</time></trkpt>
<trkpt lat="28.787588" lon="98.670595">
<time>2016-10-07T12:27:12Z</time></trkpt>
<trkpt lat="28.787678" lon="98.670555">
<time>2016-10-07T12:27:13Z</time></trkpt>
<trkpt lat="28.787788" lon="98.670505">
<time>2016-10-07T12:27:14Z</time></trkpt>
<trkpt lat="28.787858" lon="98.670465">
<time>2016-10-07T12:27:15Z</time></trkpt>
<trkpt lat="28.787948" lon="98.670406">
<time>2016-10-07T12:27:16Z</time></trkpt>
<trkpt lat="28.788028" lon="98.670346">
<time>2016-10-07T12:27:17Z</time></trkpt>
<trkpt lat="28.788098" lon="98.670286">
<time>2016-10-07T12:27:18Z</time></trkpt>
<trkpt lat="28.788178" lon="98.670186">
<time>2016-10-07T12:27:19Z</time></trkpt>
<trkpt lat="28.788739" lon="98.669548">
<time>2016-10-07T12:27:20Z</time></trkpt>
<trkpt lat="28.789209" lon="98.669009">
<time>2016-10-07T12:27:21Z</time></trkpt>
<trkpt lat="28.78937" lon="98.66884">
<time>2016-10-07T12:27:22Z</time></trkpt>
<trkpt lat="28.78949" lon="98.66869">
<time>2016-10-07T12:27:23Z</time></trkpt>
<trkpt lat="28.78953" lon="98.66864">
<time>2016-10-07T12:27:24Z</time></trkpt>
<trkpt lat="28.78956" lon="98.668591">
<time>2016-10-07T12:27:25Z</time></trkpt>
<trkpt lat="28.78958" lon="98.668541">
<time>2016-10-07T12:27:26Z</time></trkpt>
<trkpt lat="28.78959" lon="98.668491">
<time>2016-10-07T12:27:27Z</time></trkpt>
<trkpt lat="28.7896" lon="98.668451">
<time>2016-10-07T12:27:28Z</time></trkpt>
<trkpt lat="28.78961" lon="98.668401">
<time>2016-10-07T12:27:29Z</time></trkpt>
<trkpt lat="28.78962" lon="98.668351">
<time>2016-10-07T12:27:30Z</time></trkpt>
<trkpt lat="28.789621" lon="98.668281">
<time>2016-10-07T12:27:31Z</time></trkpt>
<trkpt lat="28.789631" lon="98.668122">
<time>2016-10-07T12:27:32Z</time></trkpt>
<trkpt lat="28.789651" lon="98.667942">
<time>2016-10-07T12:27:33Z</time></trkpt>
<trkpt lat="28.789672" lon="98.667593">
<time>2016-10-07T12:27:34Z</time></trkpt>
<trkpt lat="28.789692" lon="98.667394">
<time>2016-10-07T12:27:35Z</time></trkpt>
<trkpt lat="28.789702" lon="98.667264">
<time>2016-10-07T12:27:36Z</time></trkpt>
<trkpt lat="28.789723" lon="98.667095">
<time>2016-10-07T12:27:37Z</time></trkpt>
<trkpt lat="28.789753" lon="98.666935">
<time>2016-10-07T12:27:38Z</time></trkpt>
<trkpt lat="28.789773" lon="98.666806">
<time>2016-10-07T12:27:39Z</time></trkpt>
<trkpt lat="28.789834" lon="98.666556">
<time>2016-10-07T12:27:40Z</time></trkpt>
<trkpt lat="28.789914" lon="98.666187">
<time>2016-10-07T12:27:41Z</time></trkpt>
<trkpt lat="28.790005" lon="98.665798">
<time>2016-10-07T12:27:42Z</time></trkpt>
<trkpt lat="28.790035" lon="98.665649">
<time>2016-10-07T12:27:43Z</time></trkpt>
<trkpt lat="28.790066" lon="98.665499">
<time>2016-10-07T12:27:44Z</time></trkpt>
<trkpt lat="28.790086" lon="98.66538">
<time>2016-10-07T12:27:45Z</time></trkpt>
<trkpt lat="28.790106" lon="98.66532">
<time>2016-10-07T12:27:46Z</time></trkpt>
<trkpt lat="28.790116" lon="98.66525">
<time>2016-10-07T12:27:47Z</time></trkpt>
<trkpt lat="28.790136" lon="98.66518">
<time>2016-10-07T12:27:48Z</time></trkpt>
<trkpt lat="28.790166" lon="98.66511">
<time>2016-10-07T12:27:49Z</time></trkpt>
<trkpt lat="28.790186" lon="98.66505">
<time>2016-10-07T12:27:50Z</time></trkpt>
<trkpt lat="28.790216" lon="98.665001">
<time>2016-10-07T12:27:51Z</time></trkpt>
<trkpt lat="28.790257" lon="98.664931">
<time>2016-10-07T12:27:52Z</time></trkpt>
<trkpt lat="28.790297" lon="98.664871">
<time>2016-10-07T12:27:53Z</time></trkpt>
<trkpt lat="28.790447" lon="98.664662">
<time>2016-10-07T12:27:54Z</time></trkpt>
<trkpt lat="28.790607" lon="98.664432">
<time>2016-10-07T12:27:55Z</time></trkpt>
<trkpt lat="28.790707" lon="98.664303">
<time>2016-10-07T12:27:56Z</time></trkpt>
<trkpt lat="28.790778" lon="98.664203">
<time>2016-10-07T12:27:57Z</time></trkpt>
<trkpt lat="28.790918" lon="98.664003">
<time>2016-10-07T12:27:58Z</time></trkpt>
<trkpt lat="28.791048" lon="98.663804">
<time>2016-10-07T12:27:59Z</time></trkpt>
<trkpt lat="28.791178" lon="98.663614">
<time>2016-10-07T12:28:00Z</time></trkpt>
<trkpt lat="28.791399" lon="98.663305">
<time>2016-10-07T12:28:01Z</time></trkpt>
<trkpt lat="28.791599" lon="98.663016">
<time>2016-10-07T12:28:02Z</time></trkpt>
<trkpt lat="28.791689" lon="98.662896">
<time>2016-10-07T12:28:03Z</time></trkpt>
<trkpt lat="28.791739" lon="98.662817">
<time>2016-10-07T12:28:04Z</time></trkpt>
<trkpt lat="28.79177" lon="98.662787">
<time>2016-10-07T12:28:05Z</time></trkpt>
<trkpt lat="28.7918" lon="98.662757">
<time>2016-10-07T12:28:06Z</time></trkpt>
<trkpt lat="28.79181" lon="98.662747">
<time>2016-10-07T12:28:07Z</time></trkpt>
<trkpt lat="28.79183" lon="98.662737">
<time>2016-10-07T12:28:08Z</time></trkpt>
<trkpt lat="28.79184" lon="98.662727">
<time>2016-10-07T12:28:09Z</time></trkpt>
<trkpt lat="28.79186" lon="98.662717">
<time>2016-10-07T12:28:10Z</time></trkpt>
<trkpt lat="28.79189" lon="98.662707">
<time>2016-10-07T12:28:11Z</time></trkpt>
<trkpt lat="28.79191" lon="98.662707">
<time>2016-10-07T12:28:12Z</time></trkpt>
<trkpt lat="28.79194" lon="98.662707">
<time>2016-10-07T12:28:13Z</time></trkpt>
<trkpt lat="28.79198" lon="98.662697">
<time>2016-10-07T12:28:14Z</time></trkpt>
<trkpt lat="28.792049" lon="98.662707">
<time>2016-10-07T12:28:15Z</time></trkpt>
<trkpt lat="28.792139" lon="98.662707">
<time>2016-10-07T12:28:16Z</time></trkpt>
<trkpt lat="28.792399" lon="98.662737">
<time>2016-10-07T12:28:17Z</time></trkpt>
<trkpt lat="28.793099" lon="98.662817">
<time>2016-10-07T12:28:18Z</time></trkpt>
<trkpt lat="28.793458" lon="98.662856">
<time>2016-10-07T12:28:19Z</time></trkpt>
<trkpt lat="28.793678" lon="98.662886">
<time>2016-10-07T12:28:20Z</time></trkpt>
<trkpt lat="28.793798" lon="98.662896">
<time>2016-10-07T12:28:21Z</time></trkpt>
<trkpt lat="28.793878" lon="98.662906">
<time>2016-10-07T12:28:22Z</time></trkpt>
<trkpt lat="28.793968" lon="98.662936">
<time>2016-10-07T12:28:23Z</time></trkpt>
<trkpt lat="28.794068" lon="98.662956">
<time>2016-10-07T12:28:24Z</time></trkpt>
<trkpt lat="28.794277" lon="98.663026">
<time>2016-10-07T12:28:25Z</time></trkpt>
<trkpt lat="28.794597" lon="98.663126">
<time>2016-10-07T12:28:26Z</time></trkpt>
<trkpt lat="28.794707" lon="98.663156">
<time>2016-10-07T12:28:27Z</time></trkpt>
<trkpt lat="28.794807" lon="98.663176">
<time>2016-10-07T12:28:28Z</time></trkpt>
<trkpt lat="28.794897" lon="98.663195">
<time>2016-10-07T12:28:29Z</time></trkpt>
<trkpt lat="28.795016" lon="98.663215">
<time>2016-10-07T12:28:30Z</time></trkpt>
<trkpt lat="28.795366" lon="98.663245">
<time>2016-10-07T12:28:31Z</time></trkpt>
<trkpt lat="28.796096" lon="98.663315">
<time>2016-10-07T12:28:32Z</time></trkpt>
<trkpt lat="28.796405" lon="98.663345">
<time>2016-10-07T12:28:33Z</time></trkpt>
<trkpt lat="28.796555" lon="98.663355">
<time>2016-10-07T12:28:34Z</time></trkpt>
<trkpt lat="28.796655" lon="98.663355">
<time>2016-10-07T12:28:35Z</time></trkpt>
<trkpt lat="28.796725" lon="98.663355">
<time>2016-10-07T12:28:36Z</time></trkpt>
<trkpt lat="28.796795" lon="98.663355">
<time>2016-10-07T12:28:37Z</time></trkpt>
<trkpt lat="28.796855" lon="98.663345">
<time>2016-10-07T12:28:38Z</time></trkpt>
<trkpt lat="28.796915" lon="98.663325">
<time>2016-10-07T12:28:39Z</time></trkpt>
<trkpt lat="28.796965" lon="98.663305">
<time>2016-10-07T12:28:40Z</time></trkpt>
<trkpt lat="28.797025" lon="98.663285">
<time>2016-10-07T12:28:41Z</time></trkpt>
<trkpt lat="28.797085" lon="98.663255">
<time>2016-10-07T12:28:42Z</time></trkpt>
<trkpt lat="28.797155" lon="98.663215">
<time>2016-10-07T12:28:43Z</time></trkpt>
<trkpt lat="28.797275" lon="98.663136">
<time>2016-10-07T12:28:44Z</time></trkpt>
<trkpt lat="28.797725" lon="98.662846">
<time>2016-10-07T12:28:45Z</time></trkpt>
<trkpt lat="28.798356" lon="98.662457">
<time>2016-10-07T12:28:46Z</time></trkpt>
<trkpt lat="28.798436" lon="98.662408">
<time>2016-10-07T12:28:47Z</time></trkpt>
<trkpt lat="28.798506" lon="98.662378">
<time>2016-10-07T12:28:48Z</time></trkpt>
<trkpt lat="28.798586" lon="98.662338">
<time>2016-10-07T12:28:49Z</time></trkpt>
<trkpt lat="28.798696" lon="98.662288">
<time>2016-10-07T12:28:50Z</time></trkpt>
<trkpt lat="28.798926" lon="98.662198">
<time>2016-10-07T12:28:51Z</time></trkpt>
<trkpt lat="28.799136" lon="98.662108">
<time>2016-10-07T12:28:52Z</time></trkpt>
<trkpt lat="28.799276" lon="98.662049">
<time>2016-10-07T12:28:53Z</time></trkpt>
<trkpt lat="28.799456" lon="98.661959">
<time>2016-10-07T12:28:54Z</time></trkpt>
<trkpt lat="28.799706" lon="98.661829">
<time>2016-10-07T12:28:55Z</time></trkpt>
<trkpt lat="28.799866" lon="98.661749">
<time>2016-10-07T12:28:56Z</time></trkpt>
<trkpt lat="28.800176" lon="98.66158">
<time>2016-10-07T12:28:57Z</time></trkpt>
<trkpt lat="28.800276" lon="98.66153">
<time>2016-10-07T12:28:58Z</time></trkpt>
<trkpt lat="28.800386" lon="98.66148">
<time>2016-10-07T12:28:59Z</time></trkpt>
<trkpt lat="28.800446" lon="98.66145">
<time>2016-10-07T12:29:00Z</time></trkpt>
<trkpt lat="28.800556" lon="98.66141">
<time>2016-10-07T12:29:01Z</time></trkpt>
<trkpt lat="28.800676" lon="98.66136">
<time>2016-10-07T12:29:02Z</time></trkpt>
<trkpt lat="28.800766" lon="98.66133">
<time>2016-10-07T12:29:03Z</time></trkpt>
<trkpt lat="28.800846" lon="98.661301">
<time>2016-10-07T12:29:04Z</time></trkpt>
<trkpt lat="28.800896" lon="98.661291">
<time>2016-10-07T12:29:05Z</time></trkpt>
<trkpt lat="28.800976" lon="98.661261">
<time>2016-10-07T12:29:06Z</time></trkpt>
<trkpt lat="28.801066" lon="98.661241">
<time>2016-10-07T12:29:07Z</time></trkpt>
<trkpt lat="28.801236" lon="98.661211">
<time>2016-10-07T12:29:08Z</time></trkpt>
<trkpt lat="28.801376" lon="98.661191">
<time>2016-10-07T12:29:09Z</time></trkpt>
<trkpt lat="28.801556" lon="98.661161">
<time>2016-10-07T12:29:10Z</time></trkpt>
<trkpt lat="28.801786" lon="98.661131">
<time>2016-10-07T12:29:11Z</time></trkpt>
<trkpt lat="28.802096" lon="98.661091">
<time>2016-10-07T12:29:12Z</time></trkpt>
<trkpt lat="28.802515" lon="98.661021">
<time>2016-10-07T12:29:13Z</time></trkpt>
<trkpt lat="28.802795" lon="98.660981">
<time>2016-10-07T12:29:14Z</time></trkpt>
<trkpt lat="28.802985" lon="98.660951">
<time>2016-10-07T12:29:15Z</time></trkpt>
<trkpt lat="28.803175" lon="98.660922">
<time>2016-10-07T12:29:16Z</time></trkpt>
<trkpt lat="28.803235" lon="98.660922">
<time>2016-10-07T12:29:17Z</time></trkpt>
<trkpt lat="28.803285" lon="98.660922">
<time>2016-10-07T12:29:18Z</time></trkpt>
<trkpt lat="28.803315" lon="98.660922">
<time>2016-10-07T12:29:19Z</time></trkpt>
<trkpt lat="28.803365" lon="98.660942">
<time>2016-10-07T12:29:20Z</time></trkpt>
<trkpt lat="28.803405" lon="98.660951">
<time>2016-10-07T12:29:21Z</time></trkpt>
<trkpt lat="28.803445" lon="98.660981">
<time>2016-10-07T12:29:22Z</time></trkpt>
<trkpt lat="28.803485" lon="98.661011">
<time>2016-10-07T12:29:23Z</time></trkpt>
<trkpt lat="28.803575" lon="98.661091">
<time>2016-10-07T12:29:24Z</time></trkpt>
<trkpt lat="28.803694" lon="98.661201">
<time>2016-10-07T12:29:25Z</time></trkpt>
<trkpt lat="28.803994" lon="98.66147">
<time>2016-10-07T12:29:26Z</time></trkpt>
<trkpt lat="28.804063" lon="98.66154">
<time>2016-10-07T12:29:27Z</time></trkpt>
<trkpt lat="28.804103" lon="98.66158">
<time>2016-10-07T12:29:28Z</time></trkpt>
<trkpt lat="28.804133" lon="98.66164">
<time>2016-10-07T12:29:29Z</time></trkpt>
<trkpt lat="28.804173" lon="98.661699">
<time>2016-10-07T12:29:30Z</time></trkpt>
<trkpt lat="28.804213" lon="98.661769">
<time>2016-10-07T12:29:31Z</time></trkpt>
<trkpt lat="28.804243" lon="98.661839">
<time>2016-10-07T12:29:32Z</time></trkpt>
<trkpt lat="28.804273" lon="98.661899">
<time>2016-10-07T12:29:33Z</time></trkpt>
<trkpt lat="28.804292" lon="98.661959">
<time>2016-10-07T12:29:34Z</time></trkpt>
<trkpt lat="28.804312" lon="98.662019">
<time>2016-10-07T12:29:35Z</time></trkpt>
<trkpt lat="28.804332" lon="98.662078">
<time>2016-10-07T12:29:36Z</time></trkpt>
<trkpt lat="28.804342" lon="98.662138">
<time>2016-10-07T12:29:37Z</time></trkpt>
<trkpt lat="28.804352" lon="98.662198">
<time>2016-10-07T12:29:38Z</time></trkpt>
<trkpt lat="28.804352" lon="98.662258">
<time>2016-10-07T12:29:39Z</time></trkpt>
<trkpt lat="28.804352" lon="98.662318">
<time>2016-10-07T12:29:40Z</time></trkpt>
<trkpt lat="28.804342" lon="98.662388">
<time>2016-10-07T12:29:41Z</time></trkpt>
<trkpt lat="28.804331" lon="98.662457">
<time>2016-10-07T12:29:42Z</time></trkpt>
<trkpt lat="28.804311" lon="98.662537">
<time>2016-10-07T12:29:43Z</time></trkpt>
<trkpt lat="28.804271" lon="98.662617">
<time>2016-10-07T12:29:44Z</time></trkpt>
<trkpt lat="28.804241" lon="98.662677">
<time>2016-10-07T12:29:45Z</time></trkpt>
<trkpt lat="28.804221" lon="98.662747">
<time>2016-10-07T12:29:46Z</time></trkpt>
<trkpt lat="28.804211" lon="98.662816">
<time>2016-10-07T12:29:47Z</time></trkpt>
<trkpt lat="28.804201" lon="98.662886">
<time>2016-10-07T12:29:48Z</time></trkpt>
<trkpt lat="28.804191" lon="98.662956">
<time>2016-10-07T12:29:49Z</time></trkpt>
<trkpt lat="28.8042" lon="98.663016">
<time>2016-10-07T12:29:50Z</time></trkpt>
<trkpt lat="28.8042" lon="98.663066">
<time>2016-10-07T12:29:51Z</time></trkpt>
<trkpt lat="28.80422" lon="98.663126">
<time>2016-10-07T12:29:52Z</time></trkpt>
<trkpt lat="28.80423" lon="98.663185">
<time>2016-10-07T12:29:53Z</time></trkpt>
<trkpt lat="28.80426" lon="98.663255">
<time>2016-10-07T12:29:54Z</time></trkpt>
<trkpt lat="28.8043" lon="98.663315">
<time>2016-10-07T12:29:55Z</time></trkpt>
<trkpt lat="28.80433" lon="98.663355">
<time>2016-10-07T12:29:56Z</time></trkpt>
<trkpt lat="28.80437" lon="98.663405">
<time>2016-10-07T12:29:57Z</time></trkpt>
<trkpt lat="28.80441" lon="98.663445">
<time>2016-10-07T12:29:58Z</time></trkpt>
<trkpt lat="28.804469" lon="98.663494">
<time>2016-10-07T12:29:59Z</time></trkpt>
<trkpt lat="28.804529" lon="98.663544">
<time>2016-10-07T12:30:00Z</time></trkpt>
<trkpt lat="28.804599" lon="98.663594">
<time>2016-10-07T12:30:01Z</time></trkpt>
<trkpt lat="28.804689" lon="98.663634">
<time>2016-10-07T12:30:02Z</time></trkpt>
<trkpt lat="28.804769" lon="98.663664">
<time>2016-10-07T12:30:03Z</time></trkpt>
<trkpt lat="28.804859" lon="98.663684">
<time>2016-10-07T12:30:04Z</time></trkpt>
<trkpt lat="28.804989" lon="98.663704">
<time>2016-10-07T12:30:05Z</time></trkpt>
<trkpt lat="28.805168" lon="98.663734">
<time>2016-10-07T12:30:06Z</time></trkpt>
<trkpt lat="28.805538" lon="98.663784">
<time>2016-10-07T12:30:07Z</time></trkpt>
<trkpt lat="28.805928" lon="98.663834">
<time>2016-10-07T12:30:08Z</time></trkpt>
<trkpt lat="28.806088" lon="98.663853">
<time>2016-10-07T12:30:09Z</time></trkpt>
<trkpt lat="28.806167" lon="98.663863">
<time>2016-10-07T12:30:10Z</time></trkpt>
<trkpt lat="28.806227" lon="98.663863">
<time>2016-10-07T12:30:11Z</time></trkpt>
<trkpt lat="28.806297" lon="98.663853">
<time>2016-10-07T12:30:12Z</time></trkpt>
<trkpt lat="28.806367" lon="98.663843">
<time>2016-10-07T12:30:13Z</time></trkpt>
<trkpt lat="28.806457" lon="98.663814">
<time>2016-10-07T12:30:14Z</time></trkpt>
<trkpt lat="28.806527" lon="98.663784">
<time>2016-10-07T12:30:15Z</time></trkpt>
<trkpt lat="28.806617" lon="98.663754">
<time>2016-10-07T12:30:16Z</time></trkpt>
<trkpt lat="28.806747" lon="98.663694">
<time>2016-10-07T12:30:17Z</time></trkpt>
<trkpt lat="28.807197" lon="98.663504">
<time>2016-10-07T12:30:18Z</time></trkpt>
<trkpt lat="28.807487" lon="98.663375">
<time>2016-10-07T12:30:19Z</time></trkpt>
<trkpt lat="28.807617" lon="98.663315">
<time>2016-10-07T12:30:20Z</time></trkpt>
<trkpt lat="28.807738" lon="98.663265">
<time>2016-10-07T12:30:21Z</time></trkpt>
<trkpt lat="28.807837" lon="98.663235">
<time>2016-10-07T12:30:22Z</time></trkpt>
<trkpt lat="28.807928" lon="98.663195">
<time>2016-10-07T12:30:23Z</time></trkpt>
<trkpt lat="28.808017" lon="98.663165">
<time>2016-10-07T12:30:24Z</time></trkpt>
<trkpt lat="28.808337" lon="98.663066">
<time>2016-10-07T12:30:25Z</time></trkpt>
<trkpt lat="28.808667" lon="98.662956">
<time>2016-10-07T12:30:26Z</time></trkpt>
<trkpt lat="28.809027" lon="98.662836">
<time>2016-10-07T12:30:27Z</time></trkpt>
<trkpt lat="28.809347" lon="98.662727">
<time>2016-10-07T12:30:28Z</time></trkpt>
<trkpt lat="28.809567" lon="98.662657">
<time>2016-10-07T12:30:29Z</time></trkpt>
<trkpt lat="28.809647" lon="98.662637">
<time>2016-10-07T12:30:30Z</time></trkpt>
<trkpt lat="28.809717" lon="98.662607">
<time>2016-10-07T12:30:31Z</time></trkpt>
<trkpt lat="28.809797" lon="98.662577">
<time>2016-10-07T12:30:32Z</time></trkpt>
<trkpt lat="28.809877" lon="98.662537">
<time>2016-10-07T12:30:33Z</time></trkpt>
<trkpt lat="28.809937" lon="98.662507">
<time>2016-10-07T12:30:34Z</time></trkpt>
<trkpt lat="28.809987" lon="98.662487">
<time>2016-10-07T12:30:35Z</time></trkpt>
<trkpt lat="28.810057" lon="98.662437">
<time>2016-10-07T12:30:36Z</time></trkpt>
<trkpt lat="28.810177" lon="98.662367">
<time>2016-10-07T12:30:37Z</time></trkpt>
<trkpt lat="28.810288" lon="98.662298">
<time>2016-10-07T12:30:38Z</time></trkpt>
<trkpt lat="28.810488" lon="98.662168">
<time>2016-10-07T12:30:39Z</time></trkpt>
<trkpt lat="28.810648" lon="98.662068">
<time>2016-10-07T12:30:40Z</time></trkpt>
<trkpt lat="28.810718" lon="98.662028">
<time>2016-10-07T12:30:41Z</time></trkpt>
<trkpt lat="28.810768" lon="98.661989">
<time>2016-10-07T12:30:42Z</time></trkpt>
<trkpt lat="28.810818" lon="98.661949">
<time>2016-10-07T12:30:43Z</time></trkpt>
<trkpt lat="28.810868" lon="98.661909">
<time>2016-10-07T12:30:44Z</time></trkpt>
<trkpt lat="28.810908" lon="98.661859">
<time>2016-10-07T12:30:45Z</time></trkpt>
<trkpt lat="28.810948" lon="98.661809">
<time>2016-10-07T12:30:46Z</time></trkpt>
<trkpt lat="28.810978" lon="98.661759">
<time>2016-10-07T12:30:47Z</time></trkpt>
<trkpt lat="28.811008" lon="98.661709">
<time>2016-10-07T12:30:48Z</time></trkpt>
<trkpt lat="28.811038" lon="98.661639">
<time>2016-10-07T12:30:49Z</time></trkpt>
<trkpt lat="28.811078" lon="98.66156">
<time>2016-10-07T12:30:50Z</time></trkpt>
<trkpt lat="28.811169" lon="98.6613">
<time>2016-10-07T12:30:51Z</time></trkpt>
<trkpt lat="28.811239" lon="98.661111">
<time>2016-10-07T12:30:52Z</time></trkpt>
<trkpt lat="28.811259" lon="98.661041">
<time>2016-10-07T12:30:53Z</time></trkpt>
<trkpt lat="28.811279" lon="98.660991">
<time>2016-10-07T12:30:54Z</time></trkpt>
<trkpt lat="28.811279" lon="98.660951">
<time>2016-10-07T12:30:55Z</time></trkpt>
<trkpt lat="28.811289" lon="98.660921">
<time>2016-10-07T12:30:56Z</time></trkpt>
<trkpt lat="28.811289" lon="98.660892">
<time>2016-10-07T12:30:57Z</time></trkpt>
<trkpt lat="28.81128" lon="98.660852">
<time>2016-10-07T12:30:58Z</time></trkpt>
<trkpt lat="28.81128" lon="98.660822">
<time>2016-10-07T12:30:59Z</time></trkpt>
<trkpt lat="28.81127" lon="98.660782">
<time>2016-10-07T12:31:00Z</time></trkpt>
<trkpt lat="28.81125" lon="98.660712">
<time>2016-10-07T12:31:01Z</time></trkpt>
<trkpt lat="28.8112" lon="98.660513">
<time>2016-10-07T12:31:02Z</time></trkpt>
<trkpt lat="28.811161" lon="98.660373">
<time>2016-10-07T12:31:03Z</time></trkpt>
<trkpt lat="28.811151" lon="98.660303">
<time>2016-10-07T12:31:04Z</time></trkpt>
<trkpt lat="28.811131" lon="98.660223">
<time>2016-10-07T12:31:05Z</time></trkpt>
<trkpt lat="28.811121" lon="98.660154">
<time>2016-10-07T12:31:06Z</time></trkpt>
<trkpt lat="28.811121" lon="98.660074">
<time>2016-10-07T12:31:07Z</time></trkpt>
<trkpt lat="28.811121" lon="98.660004">
<time>2016-10-07T12:31:08Z</time></trkpt>
<trkpt lat="28.811111" lon="98.659924">
<time>2016-10-07T12:31:09Z</time></trkpt>
<trkpt lat="28.811112" lon="98.659745">
<time>2016-10-07T12:31:10Z</time></trkpt>
<trkpt lat="28.811113" lon="98.659336">
<time>2016-10-07T12:31:11Z</time></trkpt>
<trkpt lat="28.811113" lon="98.659216">
<time>2016-10-07T12:31:12Z</time></trkpt>
<trkpt lat="28.811103" lon="98.659136">
<time>2016-10-07T12:31:13Z</time></trkpt>
<trkpt lat="28.811093" lon="98.659047">
<time>2016-10-07T12:31:14Z</time></trkpt>
<trkpt lat="28.811073" lon="98.658947">
<time>2016-10-07T12:31:15Z</time></trkpt>
<trkpt lat="28.811043" lon="98.658847">
<time>2016-10-07T12:31:16Z</time></trkpt>
<trkpt lat="28.811004" lon="98.658747">
<time>2016-10-07T12:31:17Z</time></trkpt>
<trkpt lat="28.810964" lon="98.658658">
<time>2016-10-07T12:31:18Z</time></trkpt>
<trkpt lat="28.810695" lon="98.658019">
<time>2016-10-07T12:31:19Z</time></trkpt>
<trkpt lat="28.810506" lon="98.65758">
<time>2016-10-07T12:31:20Z</time></trkpt>
<trkpt lat="28.810427" lon="98.657411">
<time>2016-10-07T12:31:21Z</time></trkpt>
<trkpt lat="28.810377" lon="98.657291">
<time>2016-10-07T12:31:22Z</time></trkpt>
<trkpt lat="28.810337" lon="98.657192">
<time>2016-10-07T12:31:23Z</time></trkpt>
<trkpt lat="28.810287" lon="98.657112">
<time>2016-10-07T12:31:24Z</time></trkpt>
<trkpt lat="28.810237" lon="98.657032">
<time>2016-10-07T12:31:25Z</time></trkpt>
<trkpt lat="28.810178" lon="98.656932">
<time>2016-10-07T12:31:26Z</time></trkpt>
<trkpt lat="28.810118" lon="98.656852">
<time>2016-10-07T12:31:27Z</time></trkpt>
<trkpt lat="28.810038" lon="98.656743">
<time>2016-10-07T12:31:28Z</time></trkpt>
<trkpt lat="28.809998" lon="98.656683">
<time>2016-10-07T12:31:29Z</time></trkpt>
<trkpt lat="28.809968" lon="98.656633">
<time>2016-10-07T12:31:30Z</time></trkpt>
<trkpt lat="28.809948" lon="98.656583">
<time>2016-10-07T12:31:31Z</time></trkpt>
<trkpt lat="28.809919" lon="98.656523">
<time>2016-10-07T12:31:32Z</time></trkpt>
<trkpt lat="28.809889" lon="98.656463">
<time>2016-10-07T12:31:33Z</time></trkpt>
<trkpt lat="28.809869" lon="98.656384">
<time>2016-10-07T12:31:34Z</time></trkpt>
<trkpt lat="28.809839" lon="98.656324">
<time>2016-10-07T12:31:35Z</time></trkpt>
<trkpt lat="28.809799" lon="98.656254">
<time>2016-10-07T12:31:36Z</time></trkpt>
<trkpt lat="28.809759" lon="98.656194">
<time>2016-10-07T12:31:37Z</time></trkpt>
<trkpt lat="28.809719" lon="98.656144">
<time>2016-10-07T12:31:38Z</time></trkpt>
<trkpt lat="28.809689" lon="98.656094">
<time>2016-10-07T12:31:39Z</time></trkpt>
<trkpt lat="28.80962" lon="98.656035">
<time>2016-10-07T12:31:40Z</time></trkpt>
<trkpt lat="28.80953" lon="98.655945">
<time>2016-10-07T12:31:41Z</time></trkpt>
<trkpt lat="28.80941" lon="98.655825">
<time>2016-10-07T12:31:42Z</time></trkpt>
<trkpt lat="28.80929" lon="98.655706">
<time>2016-10-07T12:31:43Z</time></trkpt>
<trkpt lat="28.809231" lon="98.655656">
<time>2016-10-07T12:31:44Z</time></trkpt>
<trkpt lat="28.809201" lon="98.655616">
<time>2016-10-07T12:31:45Z</time></trkpt>
<trkpt lat="28.809181" lon="98.655586">
<time>2016-10-07T12:31:46Z</time></trkpt>
<trkpt lat="28.809161" lon="98.655556">
<time>2016-10-07T12:31:47Z</time></trkpt>
<trkpt lat="28.809151" lon="98.655516">
<time>2016-10-07T12:31:48Z</time></trkpt>
<trkpt lat="28.809141" lon="98.655476">
<time>2016-10-07T12:31:49Z</time></trkpt>
<trkpt lat="28.809131" lon="98.655436">
<time>2016-10-07T12:31:50Z</time></trkpt>
<trkpt lat="28.809131" lon="98.655386">
<time>2016-10-07T12:31:51Z</time></trkpt>
<trkpt lat="28.809131" lon="98.655336">
<time>2016-10-07T12:31:52Z</time></trkpt>
<trkpt lat="28.809151" lon="98.655257">
<time>2016-10-07T12:31:53Z</time></trkpt>
<trkpt lat="28.809182" lon="98.655127">
<time>2016-10-07T12:31:54Z</time></trkpt>
<trkpt lat="28.809242" lon="98.654938">
<time>2016-10-07T12:31:55Z</time></trkpt>
<trkpt lat="28.809272" lon="98.654838">
<time>2016-10-07T12:31:56Z</time></trkpt>
<trkpt lat="28.809282" lon="98.654788">
<time>2016-10-07T12:31:57Z</time></trkpt>
<trkpt lat="28.809302" lon="98.654748">
<time>2016-10-07T12:31:58Z</time></trkpt>
<trkpt lat="28.809322" lon="98.654708">
<time>2016-10-07T12:31:59Z</time></trkpt>
<trkpt lat="28.809352" lon="98.654658">
<time>2016-10-07T12:32:00Z</time></trkpt>
<trkpt lat="28.809382" lon="98.654618">
<time>2016-10-07T12:32:01Z</time></trkpt>
<trkpt lat="28.809422" lon="98.654578">
<time>2016-10-07T12:32:02Z</time></trkpt>
<trkpt lat="28.809482" lon="98.654529">
<time>2016-10-07T12:32:03Z</time></trkpt>
<trkpt lat="28.809593" lon="98.654419">
<time>2016-10-07T12:32:04Z</time></trkpt>
<trkpt lat="28.809663" lon="98.654349">
<time>2016-10-07T12:32:05Z</time></trkpt>
<trkpt lat="28.809793" lon="98.654229">
<time>2016-10-07T12:32:06Z</time></trkpt>
<trkpt lat="28.809873" lon="98.65416">
<time>2016-10-07T12:32:07Z</time></trkpt>
<trkpt lat="28.809923" lon="98.65412">
<time>2016-10-07T12:32:08Z</time></trkpt>
<trkpt lat="28.809993" lon="98.65408">
<time>2016-10-07T12:32:09Z</time></trkpt>
<trkpt lat="28.810073" lon="98.65404">
<time>2016-10-07T12:32:10Z</time></trkpt>
<trkpt lat="28.810183" lon="98.65399">
<time>2016-10-07T12:32:11Z</time></trkpt>
<trkpt lat="28.810423" lon="98.65389">
<time>2016-10-07T12:32:12Z</time></trkpt>
<trkpt lat="28.810803" lon="98.653731">
<time>2016-10-07T12:32:13Z</time></trkpt>
<trkpt lat="28.811123" lon="98.653591">
<time>2016-10-07T12:32:14Z</time></trkpt>
<trkpt lat="28.811233" lon="98.653551">
<time>2016-10-07T12:32:15Z</time></trkpt>
<trkpt lat="28.811323" lon="98.653511">
<time>2016-10-07T12:32:16Z</time></trkpt>
<trkpt lat="28.811423" lon="98.653491">
<time>2016-10-07T12:32:17Z</time></trkpt>
<trkpt lat="28.811513" lon="98.653471">
<time>2016-10-07T12:32:18Z</time></trkpt>
<trkpt lat="28.811613" lon="98.653451">
<time>2016-10-07T12:32:19Z</time></trkpt>
<trkpt lat="28.811753" lon="98.653431">
<time>2016-10-07T12:32:20Z</time></trkpt>
<trkpt lat="28.812083" lon="98.653402">
<time>2016-10-07T12:32:21Z</time></trkpt>
<trkpt lat="28.812353" lon="98.653372">
<time>2016-10-07T12:32:22Z</time></trkpt>
<trkpt lat="28.812612" lon="98.653352">
<time>2016-10-07T12:32:23Z</time></trkpt>
<trkpt lat="28.812822" lon="98.653332">
<time>2016-10-07T12:32:24Z</time></trkpt>
<trkpt lat="28.813032" lon="98.653312">
<time>2016-10-07T12:32:25Z</time></trkpt>
<trkpt lat="28.813182" lon="98.653292">
<time>2016-10-07T12:32:26Z</time></trkpt>
<trkpt lat="28.813312" lon="98.653282">
<time>2016-10-07T12:32:27Z</time></trkpt>
<trkpt lat="28.813432" lon="98.653262">
<time>2016-10-07T12:32:28Z</time></trkpt>
<trkpt lat="28.813532" lon="98.653242">
<time>2016-10-07T12:32:29Z</time></trkpt>
<trkpt lat="28.813612" lon="98.653222">
<time>2016-10-07T12:32:30Z</time></trkpt>
<trkpt lat="28.813712" lon="98.653182">
<time>2016-10-07T12:32:31Z</time></trkpt>
<trkpt lat="28.813862" lon="98.653132">
<time>2016-10-07T12:32:32Z</time></trkpt>
<trkpt lat="28.814052" lon="98.653062">
<time>2016-10-07T12:32:33Z</time></trkpt>
<trkpt lat="28.814182" lon="98.653022">
<time>2016-10-07T12:32:34Z</time></trkpt>
<trkpt lat="28.814292" lon="98.653003">
<time>2016-10-07T12:32:35Z</time></trkpt>
<trkpt lat="28.814402" lon="98.652983">
<time>2016-10-07T12:32:36Z</time></trkpt>
<trkpt lat="28.814642" lon="98.652953">
<time>2016-10-07T12:32:37Z</time></trkpt>
<trkpt lat="28.815031" lon="98.652913">
<time>2016-10-07T12:32:38Z</time></trkpt>
<trkpt lat="28.815361" lon="98.652873">
<time>2016-10-07T12:32:39Z</time></trkpt>
<trkpt lat="28.815621" lon="98.652843">
<time>2016-10-07T12:32:40Z</time></trkpt>
<trkpt lat="28.815861" lon="98.652813">
<time>2016-10-07T12:32:41Z</time></trkpt>
<trkpt lat="28.816161" lon="98.652763">
<time>2016-10-07T12:32:42Z</time></trkpt>
<trkpt lat="28.816321" lon="98.652743">
<time>2016-10-07T12:32:43Z</time></trkpt>
<trkpt lat="28.816471" lon="98.652733">
<time>2016-10-07T12:32:44Z</time></trkpt>
<trkpt lat="28.816611" lon="98.652733">
<time>2016-10-07T12:32:45Z</time></trkpt>
<trkpt lat="28.816771" lon="98.652733">
<time>2016-10-07T12:32:46Z</time></trkpt>
<trkpt lat="28.81691" lon="98.652743">
<time>2016-10-07T12:32:47Z</time></trkpt>
<trkpt lat="28.81705" lon="98.652753">
<time>2016-10-07T12:32:48Z</time></trkpt>
<trkpt lat="28.81717" lon="98.652763">
<time>2016-10-07T12:32:49Z</time></trkpt>
<trkpt lat="28.81734" lon="98.652773">
<time>2016-10-07T12:32:50Z</time></trkpt>
<trkpt lat="28.81752" lon="98.652783">
<time>2016-10-07T12:32:51Z</time></trkpt>
<trkpt lat="28.81787" lon="98.652813">
<time>2016-10-07T12:32:52Z</time></trkpt>
<trkpt lat="28.818189" lon="98.652823">
<time>2016-10-07T12:32:53Z</time></trkpt>
<trkpt lat="28.818269" lon="98.652843">
<time>2016-10-07T12:32:54Z</time></trkpt>
<trkpt lat="28.818349" lon="98.652853">
<time>2016-10-07T12:32:55Z</time></trkpt>
<trkpt lat="28.818439" lon="98.652873">
<time>2016-10-07T12:32:56Z</time></trkpt>
<trkpt lat="28.818519" lon="98.652893">
<time>2016-10-07T12:32:57Z</time></trkpt>
<trkpt lat="28.818589" lon="98.652923">
<time>2016-10-07T12:32:58Z</time></trkpt>
<trkpt lat="28.818709" lon="98.652973">
<time>2016-10-07T12:32:59Z</time></trkpt>
<trkpt lat="28.818819" lon="98.653012">
<time>2016-10-07T12:33:00Z</time></trkpt>
<trkpt lat="28.818898" lon="98.653032">
<time>2016-10-07T12:33:01Z</time></trkpt>
<trkpt lat="28.818948" lon="98.653052">
<time>2016-10-07T12:33:02Z</time></trkpt>
<trkpt lat="28.819028" lon="98.653072">
<time>2016-10-07T12:33:03Z</time></trkpt>
<trkpt lat="28.819088" lon="98.653082">
<time>2016-10-07T12:33:04Z</time></trkpt>
<trkpt lat="28.819188" lon="98.653092">
<time>2016-10-07T12:33:05Z</time></trkpt>
<trkpt lat="28.819348" lon="98.653102">
<time>2016-10-07T12:33:06Z</time></trkpt>
<trkpt lat="28.819548" lon="98.653112">
<time>2016-10-07T12:33:07Z</time></trkpt>
<trkpt lat="28.819848" lon="98.653142">
<time>2016-10-07T12:33:08Z</time></trkpt>
<trkpt lat="28.820047" lon="98.653152">
<time>2016-10-07T12:33:09Z</time></trkpt>
<trkpt lat="28.820097" lon="98.653162">
<time>2016-10-07T12:33:10Z</time></trkpt>
<trkpt lat="28.820157" lon="98.653172">
<time>2016-10-07T12:33:11Z</time></trkpt>
<trkpt lat="28.820207" lon="98.653182">
<time>2016-10-07T12:33:12Z</time></trkpt>
<trkpt lat="28.820267" lon="98.653192">
<time>2016-10-07T12:33:13Z</time></trkpt>
<trkpt lat="28.820317" lon="98.653202">
<time>2016-10-07T12:33:14Z</time></trkpt>
<trkpt lat="28.820367" lon="98.653222">
<time>2016-10-07T12:33:15Z</time></trkpt>
<trkpt lat="28.820417" lon="98.653242">
<time>2016-10-07T12:33:16Z</time></trkpt>
<trkpt lat="28.820477" lon="98.653262">
<time>2016-10-07T12:33:17Z</time></trkpt>
<trkpt lat="28.820667" lon="98.653352">
<time>2016-10-07T12:33:18Z</time></trkpt>
<trkpt lat="28.821116" lon="98.653571">
<time>2016-10-07T12:33:19Z</time></trkpt>
<trkpt lat="28.821415" lon="98.653711">
<time>2016-10-07T12:33:20Z</time></trkpt>
<trkpt lat="28.821595" lon="98.65378">
<time>2016-10-07T12:33:21Z</time></trkpt>
<trkpt lat="28.821745" lon="98.65383">
<time>2016-10-07T12:33:22Z</time></trkpt>
<trkpt lat="28.821875" lon="98.65387">
<time>2016-10-07T12:33:23Z</time></trkpt>
<trkpt lat="28.822005" lon="98.65391">
<time>2016-10-07T12:33:24Z</time></trkpt>
<trkpt lat="28.822125" lon="98.65393">
<time>2016-10-07T12:33:25Z</time></trkpt>
<trkpt lat="28.822364" lon="98.65398">
<time>2016-10-07T12:33:26Z</time></trkpt>
<trkpt lat="28.822664" lon="98.65404">
<time>2016-10-07T12:33:27Z</time></trkpt>
<trkpt lat="28.822884" lon="98.65409">
<time>2016-10-07T12:33:28Z</time></trkpt>
<trkpt lat="28.823203" lon="98.654149">
<time>2016-10-07T12:33:29Z</time></trkpt>
<trkpt lat="28.823463" lon="98.654209">
<time>2016-10-07T12:33:30Z</time></trkpt>
<trkpt lat="28.824202" lon="98.654359">
<time>2016-10-07T12:33:31Z</time></trkpt>
<trkpt lat="28.824732" lon="98.654459">
<time>2016-10-07T12:33:32Z</time></trkpt>
<trkpt lat="28.825051" lon="98.654518">
<time>2016-10-07T12:33:33Z</time></trkpt>
<trkpt lat="28.825291" lon="98.654538">
<time>2016-10-07T12:33:34Z</time></trkpt>
<trkpt lat="28.825541" lon="98.654568">
<time>2016-10-07T12:33:35Z</time></trkpt>
<trkpt lat="28.825811" lon="98.654588">
<time>2016-10-07T12:33:36Z</time></trkpt>
<trkpt lat="28.82619" lon="98.654608">
<time>2016-10-07T12:33:37Z</time></trkpt>
<trkpt lat="28.82631" lon="98.654628">
<time>2016-10-07T12:33:38Z</time></trkpt>
<trkpt lat="28.82642" lon="98.654648">
<time>2016-10-07T12:33:39Z</time></trkpt>
<trkpt lat="28.82654" lon="98.654678">
<time>2016-10-07T12:33:40Z</time></trkpt>
<trkpt lat="28.82664" lon="98.654718">
<time>2016-10-07T12:33:41Z</time></trkpt>
<trkpt lat="28.827019" lon="98.654847">
<time>2016-10-07T12:33:42Z</time></trkpt>
<trkpt lat="28.827219" lon="98.654917">
<time>2016-10-07T12:33:43Z</time></trkpt>
<trkpt lat="28.827329" lon="98.654957">
<time>2016-10-07T12:33:44Z</time></trkpt>
<trkpt lat="28.827399" lon="98.654987">
<time>2016-10-07T12:33:45Z</time></trkpt>
<trkpt lat="28.827469" lon="98.655027">
<time>2016-10-07T12:33:46Z</time></trkpt>
<trkpt lat="28.827539" lon="98.655087">
<time>2016-10-07T12:33:47Z</time></trkpt>
<trkpt lat="28.827638" lon="98.655177">
<time>2016-10-07T12:33:48Z</time></trkpt>
<trkpt lat="28.827748" lon="98.655276">
<time>2016-10-07T12:33:49Z</time></trkpt>
<trkpt lat="28.827908" lon="98.655416">
<time>2016-10-07T12:33:50Z</time></trkpt>
<trkpt lat="28.828017" lon="98.655526">
<time>2016-10-07T12:33:51Z</time></trkpt>
<trkpt lat="28.828077" lon="98.655605">
<time>2016-10-07T12:33:52Z</time></trkpt>
<trkpt lat="28.828117" lon="98.655685">
<time>2016-10-07T12:33:53Z</time></trkpt>
<trkpt lat="28.828197" lon="98.655835">
<time>2016-10-07T12:33:54Z</time></trkpt>
<trkpt lat="28.828356" lon="98.656144">
<time>2016-10-07T12:33:55Z</time></trkpt>
<trkpt lat="28.828495" lon="98.656423">
<time>2016-10-07T12:33:56Z</time></trkpt>
<trkpt lat="28.828665" lon="98.656752">
<time>2016-10-07T12:33:57Z</time></trkpt>
<trkpt lat="28.828754" lon="98.656932">
<time>2016-10-07T12:33:58Z</time></trkpt>
<trkpt lat="28.828844" lon="98.657131">
<time>2016-10-07T12:33:59Z</time></trkpt>
<trkpt lat="28.829003" lon="98.65747">
<time>2016-10-07T12:34:00Z</time></trkpt>
<trkpt lat="28.829172" lon="98.65782">
<time>2016-10-07T12:34:01Z</time></trkpt>
<trkpt lat="28.829262" lon="98.657999">
<time>2016-10-07T12:34:02Z</time></trkpt>
<trkpt lat="28.829391" lon="98.658268">
<time>2016-10-07T12:34:03Z</time></trkpt>
<trkpt lat="28.829461" lon="98.658408">
<time>2016-10-07T12:34:04Z</time></trkpt>
<trkpt lat="28.829521" lon="98.658548">
<time>2016-10-07T12:34:05Z</time></trkpt>
<trkpt lat="28.829551" lon="98.658637">
<time>2016-10-07T12:34:06Z</time></trkpt>
<trkpt lat="28.82958" lon="98.658717">
<time>2016-10-07T12:34:07Z</time></trkpt>
<trkpt lat="28.8296" lon="98.658827">
<time>2016-10-07T12:34:08Z</time></trkpt>
<trkpt lat="28.82961" lon="98.658907">
<time>2016-10-07T12:34:09Z</time></trkpt>
<trkpt lat="28.82962" lon="98.658986">
<time>2016-10-07T12:34:10Z</time></trkpt>
<trkpt lat="28.82963" lon="98.659166">
<time>2016-10-07T12:34:11Z</time></trkpt>
<trkpt lat="28.829639" lon="98.659315">
<time>2016-10-07T12:34:12Z</time></trkpt>
<trkpt lat="28.829649" lon="98.659465">
<time>2016-10-07T12:34:13Z</time></trkpt>
<trkpt lat="28.829669" lon="98.659565">
<time>2016-10-07T12:34:14Z</time></trkpt>
<trkpt lat="28.829689" lon="98.659655">
<time>2016-10-07T12:34:15Z</time></trkpt>
<trkpt lat="28.829718" lon="98.659754">
<time>2016-10-07T12:34:16Z</time></trkpt>
<trkpt lat="28.829768" lon="98.659874">
<time>2016-10-07T12:34:17Z</time></trkpt>
<trkpt lat="28.829828" lon="98.660063">
<time>2016-10-07T12:34:18Z</time></trkpt>
<trkpt lat="28.829878" lon="98.660193">
<time>2016-10-07T12:34:19Z</time></trkpt>
<trkpt lat="28.829917" lon="98.660313">
<time>2016-10-07T12:34:20Z</time></trkpt>
<trkpt lat="28.829957" lon="98.660393">
<time>2016-10-07T12:34:21Z</time></trkpt>
<trkpt lat="28.829997" lon="98.660472">
<time>2016-10-07T12:34:22Z</time></trkpt>
<trkpt lat="28.830037" lon="98.660532">
<time>2016-10-07T12:34:23Z</time></trkpt>
<trkpt lat="28.830097" lon="98.660582">
<time>2016-10-07T12:34:24Z</time></trkpt>
<trkpt lat="28.830166" lon="98.660652">
<time>2016-10-07T12:34:25Z</time></trkpt>
<trkpt lat="28.830226" lon="98.660692">
<time>2016-10-07T12:34:26Z</time></trkpt>
<trkpt lat="28.830306" lon="98.660742">
<time>2016-10-07T12:34:27Z</time></trkpt>
<trkpt lat="28.830376" lon="98.660781">
<time>2016-10-07T12:34:28Z</time></trkpt>
<trkpt lat="28.830426" lon="98.660811">
<time>2016-10-07T12:34:29Z</time></trkpt>
<trkpt lat="28.830616" lon="98.660931">
<time>2016-10-07T12:34:30Z</time></trkpt>
<trkpt lat="28.830875" lon="98.661081">
<time>2016-10-07T12:34:31Z</time></trkpt>
<trkpt lat="28.830985" lon="98.66114">
<time>2016-10-07T12:34:32Z</time></trkpt>
<trkpt lat="28.831145" lon="98.66123">
<time>2016-10-07T12:34:33Z</time></trkpt>
<trkpt lat="28.831294" lon="98.66132">
<time>2016-10-07T12:34:34Z</time></trkpt>
<trkpt lat="28.831344" lon="98.66135">
<time>2016-10-07T12:34:35Z</time></trkpt>
<trkpt lat="28.831394" lon="98.66137">
<time>2016-10-07T12:34:36Z</time></trkpt>
<trkpt lat="28.831454" lon="98.66139">
<time>2016-10-07T12:34:37Z</time></trkpt>
<trkpt lat="28.831504" lon="98.6614">
<time>2016-10-07T12:34:38Z</time></trkpt>
<trkpt lat="28.831574" lon="98.66141">
<time>2016-10-07T12:34:39Z</time></trkpt>
<trkpt lat="28.831644" lon="98.66142">
<time>2016-10-07T12:34:40Z</time></trkpt>
<trkpt lat="28.831724" lon="98.66142">
<time>2016-10-07T12:34:41Z</time></trkpt>
<trkpt lat="28.831804" lon="98.66142">
<time>2016-10-07T12:34:42Z</time></trkpt>
<trkpt lat="28.831884" lon="98.66141">
<time>2016-10-07T12:34:43Z</time></trkpt>
<trkpt lat="28.831954" lon="98.66139">
<time>2016-10-07T12:34:44Z</time></trkpt>
<trkpt lat="28.832034" lon="98.66137">
<time>2016-10-07T12:34:45Z</time></trkpt>
<trkpt lat="28.832264" lon="98.66132">
<time>2016-10-07T12:34:46Z</time></trkpt>
<trkpt lat="28.832454" lon="98.66129">
<time>2016-10-07T12:34:47Z</time></trkpt>
<trkpt lat="28.832604" lon="98.66126">
<time>2016-10-07T12:34:48Z</time></trkpt>
<trkpt lat="28.832744" lon="98.66123">
<time>2016-10-07T12:34:49Z</time></trkpt>
<trkpt lat="28.832993" lon="98.66117">
<time>2016-10-07T12:34:50Z</time></trkpt>
<trkpt lat="28.833373" lon="98.661081">
<time>2016-10-07T12:34:51Z</time></trkpt>
<trkpt lat="28.833633" lon="98.661031">
<time>2016-10-07T12:34:52Z</time></trkpt>
<trkpt lat="28.833933" lon="98.660971">
<time>2016-10-07T12:34:53Z</time></trkpt>
<trkpt lat="28.834303" lon="98.660881">
<time>2016-10-07T12:34:54Z</time></trkpt>
<trkpt lat="28.834483" lon="98.660841">
<time>2016-10-07T12:34:55Z</time></trkpt>
<trkpt lat="28.834653" lon="98.660791">
<time>2016-10-07T12:34:56Z</time></trkpt>
<trkpt lat="28.834873" lon="98.660712">
<time>2016-10-07T12:34:57Z</time></trkpt>
<trkpt lat="28.835073" lon="98.660632">
<time>2016-10-07T12:34:58Z</time></trkpt>
<trkpt lat="28.835243" lon="98.660582">
<time>2016-10-07T12:34:59Z</time></trkpt>
<trkpt lat="28.835393" lon="98.660532">
<time>2016-10-07T12:35:00Z</time></trkpt>
<trkpt lat="28.835523" lon="98.660492">
<time>2016-10-07T12:35:01Z</time></trkpt>
<trkpt lat="28.835593" lon="98.660482">
<time>2016-10-07T12:35:02Z</time></trkpt>
<trkpt lat="28.835673" lon="98.660462">
<time>2016-10-07T12:35:03Z</time></trkpt>
<trkpt lat="28.835733" lon="98.660452">
<time>2016-10-07T12:35:04Z</time></trkpt>
<trkpt lat="28.835793" lon="98.660452">
<time>2016-10-07T12:35:05Z</time></trkpt>
<trkpt lat="28.835873" lon="98.660452">
<time>2016-10-07T12:35:06Z</time></trkpt>
<trkpt lat="28.836003" lon="98.660462">
<time>2016-10-07T12:35:07Z</time></trkpt>
<trkpt lat="28.836162" lon="98.660472">
<time>2016-10-07T12:35:08Z</time></trkpt>
<trkpt lat="28.836282" lon="98.660482">
<time>2016-10-07T12:35:09Z</time></trkpt>
<trkpt lat="28.836332" lon="98.660482">
<time>2016-10-07T12:35:10Z</time></trkpt>
<trkpt lat="28.836382" lon="98.660482">
<time>2016-10-07T12:35:11Z</time></trkpt>
<trkpt lat="28.836422" lon="98.660482">
<time>2016-10-07T12:35:12Z</time></trkpt>
<trkpt lat="28.836472" lon="98.660472">
<time>2016-10-07T12:35:13Z</time></trkpt>
<trkpt lat="28.836522" lon="98.660462">
<time>2016-10-07T12:35:14Z</time></trkpt>
<trkpt lat="28.836602" lon="98.660442">
<time>2016-10-07T12:35:15Z</time></trkpt>
<trkpt lat="28.836712" lon="98.660412">
<time>2016-10-07T12:35:16Z</time></trkpt>
<trkpt lat="28.836822" lon="98.660372">
<time>2016-10-07T12:35:17Z</time></trkpt>
<trkpt lat="28.837012" lon="98.660313">
<time>2016-10-07T12:35:18Z</time></trkpt>
<trkpt lat="28.837082" lon="98.660283">
<time>2016-10-07T12:35:19Z</time></trkpt>
<trkpt lat="28.837112" lon="98.660273">
<time>2016-10-07T12:35:20Z</time></trkpt>
<trkpt lat="28.837152" lon="98.660263">
<time>2016-10-07T12:35:21Z</time></trkpt>
<trkpt lat="28.837202" lon="98.660253">
<time>2016-10-07T12:35:22Z</time></trkpt>
<trkpt lat="28.837252" lon="98.660243">
<time>2016-10-07T12:35:23Z</time></trkpt>
<trkpt lat="28.837302" lon="98.660233">
<time>2016-10-07T12:35:24Z</time></trkpt>
<trkpt lat="28.837372" lon="98.660223">
<time>2016-10-07T12:35:25Z</time></trkpt>
<trkpt lat="28.837442" lon="98.660213">
<time>2016-10-07T12:35:26Z</time></trkpt>
<trkpt lat="28.837572" lon="98.660193">
<time>2016-10-07T12:35:27Z</time></trkpt>
<trkpt lat="28.837672" lon="98.660183">
<time>2016-10-07T12:35:28Z</time></trkpt>
<trkpt lat="28.837752" lon="98.660163">
<time>2016-10-07T12:35:29Z</time></trkpt>
<trkpt lat="28.837862" lon="98.660143">
<time>2016-10-07T12:35:30Z</time></trkpt>
<trkpt lat="28.838002" lon="98.660113">
<time>2016-10-07T12:35:31Z</time></trkpt>
<trkpt lat="28.838292" lon="98.660033">
<time>2016-10-07T12:35:32Z</time></trkpt>
<trkpt lat="28.838392" lon="98.660003">
<time>2016-10-07T12:35:33Z</time></trkpt>
<trkpt lat="28.838512" lon="98.659974">
<time>2016-10-07T12:35:34Z</time></trkpt>
<trkpt lat="28.838602" lon="98.659954">
<time>2016-10-07T12:35:35Z</time></trkpt>
<trkpt lat="28.838682" lon="98.659934">
<time>2016-10-07T12:35:36Z</time></trkpt>
<trkpt lat="28.838712" lon="98.659934">
<time>2016-10-07T12:35:37Z</time></trkpt>
<trkpt lat="28.838752" lon="98.659934">
<time>2016-10-07T12:35:38Z</time></trkpt>
<trkpt lat="28.838782" lon="98.659944">
<time>2016-10-07T12:35:39Z</time></trkpt>
<trkpt lat="28.838821" lon="98.659954">
<time>2016-10-07T12:35:40Z</time></trkpt>
<trkpt lat="28.838871" lon="98.659964">
<time>2016-10-07T12:35:41Z</time></trkpt>
<trkpt lat="28.838921" lon="98.659983">
<time>2016-10-07T12:35:42Z</time></trkpt>
<trkpt lat="28.838981" lon="98.660003">
<time>2016-10-07T12:35:43Z</time></trkpt>
<trkpt lat="28.839081" lon="98.660053">
<time>2016-10-07T12:35:44Z</time></trkpt>
<trkpt lat="28.839351" lon="98.660183">
<time>2016-10-07T12:35:45Z</time></trkpt>
<trkpt lat="28.83948" lon="98.660253">
<time>2016-10-07T12:35:46Z</time></trkpt>
<trkpt lat="28.8396" lon="98.660303">
<time>2016-10-07T12:35:47Z</time></trkpt>
<trkpt lat="28.83963" lon="98.660323">
<time>2016-10-07T12:35:48Z</time></trkpt>
<trkpt lat="28.83966" lon="98.660343">
<time>2016-10-07T12:35:49Z</time></trkpt>
<trkpt lat="28.83968" lon="98.660362">
<time>2016-10-07T12:35:50Z</time></trkpt>
<trkpt lat="28.83971" lon="98.660382">
<time>2016-10-07T12:35:51Z</time></trkpt>
<trkpt lat="28.83973" lon="98.660402">
<time>2016-10-07T12:35:52Z</time></trkpt>
<trkpt lat="28.83975" lon="98.660432">
<time>2016-10-07T12:35:53Z</time></trkpt>
<trkpt lat="28.83977" lon="98.660462">
<time>2016-10-07T12:35:54Z</time></trkpt>
<trkpt lat="28.83979" lon="98.660502">
<time>2016-10-07T12:35:55Z</time></trkpt>
<trkpt lat="28.83981" lon="98.660552">
<time>2016-10-07T12:35:56Z</time></trkpt>
<trkpt lat="28.83983" lon="98.660592">
<time>2016-10-07T12:35:57Z</time></trkpt>
<trkpt lat="28.839839" lon="98.660642">
<time>2016-10-07T12:35:58Z</time></trkpt>
<trkpt lat="28.839859" lon="98.660702">
<time>2016-10-07T12:35:59Z</time></trkpt>
<trkpt lat="28.839879" lon="98.660781">
<time>2016-10-07T12:36:00Z</time></trkpt>
<trkpt lat="28.839899" lon="98.660881">
<time>2016-10-07T12:36:01Z</time></trkpt>
<trkpt lat="28.839919" lon="98.660961">
<time>2016-10-07T12:36:02Z</time></trkpt>
<trkpt lat="28.839939" lon="98.661011">
<time>2016-10-07T12:36:03Z</time></trkpt>
<trkpt lat="28.839959" lon="98.661071">
<time>2016-10-07T12:36:04Z</time></trkpt>
<trkpt lat="28.839998" lon="98.66112">
<time>2016-10-07T12:36:05Z</time></trkpt>
<trkpt lat="28.840038" lon="98.66119">
<time>2016-10-07T12:36:06Z</time></trkpt>
<trkpt lat="28.840128" lon="98.66129">
<time>2016-10-07T12:36:07Z</time></trkpt>
<trkpt lat="28.840268" lon="98.661449">
<time>2016-10-07T12:36:08Z</time></trkpt>
<trkpt lat="28.840567" lon="98.661789">
<time>2016-10-07T12:36:09Z</time></trkpt>
<trkpt lat="28.840736" lon="98.661978">
<time>2016-10-07T12:36:10Z</time></trkpt>
<trkpt lat="28.840816" lon="98.662068">
<time>2016-10-07T12:36:11Z</time></trkpt>
<trkpt lat="28.840906" lon="98.662158">
<time>2016-10-07T12:36:12Z</time></trkpt>
<trkpt lat="28.840986" lon="98.662217">
<time>2016-10-07T12:36:13Z</time></trkpt>
<trkpt lat="28.841075" lon="98.662297">
<time>2016-10-07T12:36:14Z</time></trkpt>
<trkpt lat="28.841185" lon="98.662367">
<time>2016-10-07T12:36:15Z</time></trkpt>
<trkpt lat="28.841395" lon="98.662527">
<time>2016-10-07T12:36:16Z</time></trkpt>
<trkpt lat="28.841624" lon="98.662686">
<time>2016-10-07T12:36:17Z</time></trkpt>
<trkpt lat="28.841894" lon="98.662876">
<time>2016-10-07T12:36:18Z</time></trkpt>
<trkpt lat="28.842123" lon="98.663035">
<time>2016-10-07T12:36:19Z</time></trkpt>
<trkpt lat="28.842702" lon="98.663444">
<time>2016-10-07T12:36:20Z</time></trkpt>
<trkpt lat="28.842752" lon="98.663494">
<time>2016-10-07T12:36:21Z</time></trkpt>
<trkpt lat="28.842812" lon="98.663534">
<time>2016-10-07T12:36:22Z</time></trkpt>
<trkpt lat="28.842912" lon="98.663633">
<time>2016-10-07T12:36:23Z</time></trkpt>
<trkpt lat="28.843071" lon="98.663783">
<time>2016-10-07T12:36:24Z</time></trkpt>
<trkpt lat="28.843241" lon="98.663943">
<time>2016-10-07T12:36:25Z</time></trkpt>
<trkpt lat="28.84352" lon="98.664202">
<time>2016-10-07T12:36:26Z</time></trkpt>
<trkpt lat="28.84359" lon="98.664272">
<time>2016-10-07T12:36:27Z</time></trkpt>
<trkpt lat="28.84367" lon="98.664361">
<time>2016-10-07T12:36:28Z</time></trkpt>
<trkpt lat="28.843759" lon="98.664501">
<time>2016-10-07T12:36:29Z</time></trkpt>
<trkpt lat="28.843879" lon="98.664681">
<time>2016-10-07T12:36:30Z</time></trkpt>
<trkpt lat="28.844038" lon="98.66491">
<time>2016-10-07T12:36:31Z</time></trkpt>
<trkpt lat="28.844228" lon="98.665219">
<time>2016-10-07T12:36:32Z</time></trkpt>
<trkpt lat="28.844277" lon="98.665289">
<time>2016-10-07T12:36:33Z</time></trkpt>
<trkpt lat="28.844317" lon="98.665329">
<time>2016-10-07T12:36:34Z</time></trkpt>
<trkpt lat="28.844357" lon="98.665379">
<time>2016-10-07T12:36:35Z</time></trkpt>
<trkpt lat="28.844397" lon="98.665418">
<time>2016-10-07T12:36:36Z</time></trkpt>
<trkpt lat="28.844447" lon="98.665458">
<time>2016-10-07T12:36:37Z</time></trkpt>
<trkpt lat="28.844517" lon="98.665518">
<time>2016-10-07T12:36:38Z</time></trkpt>
<trkpt lat="28.844657" lon="98.665618">
<time>2016-10-07T12:36:39Z</time></trkpt>
<trkpt lat="28.844706" lon="98.665658">
<time>2016-10-07T12:36:40Z</time></trkpt>
<trkpt lat="28.844756" lon="98.665698">
<time>2016-10-07T12:36:41Z</time></trkpt>
<trkpt lat="28.844796" lon="98.665738">
<time>2016-10-07T12:36:42Z</time></trkpt>
<trkpt lat="28.844826" lon="98.665777">
<time>2016-10-07T12:36:43Z</time></trkpt>
<trkpt lat="28.844856" lon="98.665817">
<time>2016-10-07T12:36:44Z</time></trkpt>
<trkpt lat="28.844886" lon="98.665867">
<time>2016-10-07T12:36:45Z</time></trkpt>
<trkpt lat="28.844916" lon="98.665907">
<time>2016-10-07T12:36:46Z</time></trkpt>
<trkpt lat="28.844936" lon="98.665957">
<time>2016-10-07T12:36:47Z</time></trkpt>
<trkpt lat="28.844956" lon="98.666027">
<time>2016-10-07T12:36:48Z</time></trkpt>
<trkpt lat="28.844975" lon="98.666136">
<time>2016-10-07T12:36:49Z</time></trkpt>
<trkpt lat="28.845035" lon="98.666356">
<time>2016-10-07T12:36:50Z</time></trkpt>
<trkpt lat="28.845134" lon="98.666825">
<time>2016-10-07T12:36:51Z</time></trkpt>
<trkpt lat="28.845203" lon="98.667174">
<time>2016-10-07T12:36:52Z</time></trkpt>
<trkpt lat="28.845273" lon="98.667493">
<time>2016-10-07T12:36:53Z</time></trkpt>
<trkpt lat="28.845342" lon="98.667832">
<time>2016-10-07T12:36:54Z</time></trkpt>
<trkpt lat="28.845372" lon="98.667971">
<time>2016-10-07T12:36:55Z</time></trkpt>
<trkpt lat="28.845401" lon="98.668051">
<time>2016-10-07T12:36:56Z</time></trkpt>
<trkpt lat="28.845421" lon="98.668111">
<time>2016-10-07T12:36:57Z</time></trkpt>
<trkpt lat="28.845451" lon="98.668171">
<time>2016-10-07T12:36:58Z</time></trkpt>
<trkpt lat="28.845481" lon="98.668211">
<time>2016-10-07T12:36:59Z</time></trkpt>
<trkpt lat="28.845511" lon="98.668251">
<time>2016-10-07T12:37:00Z</time></trkpt>
<trkpt lat="28.845541" lon="98.668271">
<time>2016-10-07T12:37:01Z</time></trkpt>
<trkpt lat="28.845571" lon="98.66829">
<time>2016-10-07T12:37:02Z</time></trkpt>
<trkpt lat="28.845601" lon="98.66831">
<time>2016-10-07T12:37:03Z</time></trkpt>
<trkpt lat="28.845651" lon="98.66833">
<time>2016-10-07T12:37:04Z</time></trkpt>
<trkpt lat="28.845701" lon="98.66836">
<time>2016-10-07T12:37:05Z</time></trkpt>
<trkpt lat="28.84577" lon="98.66838">
<time>2016-10-07T12:37:06Z</time></trkpt>
<trkpt lat="28.84585" lon="98.6684">
<time>2016-10-07T12:37:07Z</time></trkpt>
<trkpt lat="28.84592" lon="98.66842">
<time>2016-10-07T12:37:08Z</time></trkpt>
<trkpt lat="28.84599" lon="98.66844">
<time>2016-10-07T12:37:09Z</time></trkpt>
<trkpt lat="28.84605" lon="98.66844">
<time>2016-10-07T12:37:10Z</time></trkpt>
<trkpt lat="28.84614" lon="98.66845">
<time>2016-10-07T12:37:11Z</time></trkpt>
<trkpt lat="28.84643" lon="98.66846">
<time>2016-10-07T12:37:12Z</time></trkpt>
<trkpt lat="28.84651" lon="98.66846">
<time>2016-10-07T12:37:13Z</time></trkpt>
<trkpt lat="28.84657" lon="98.66846">
<time>2016-10-07T12:37:14Z</time></trkpt>
<trkpt lat="28.84662" lon="98.66846">
<time>2016-10-07T12:37:15Z</time></trkpt>
<trkpt lat="28.84666" lon="98.66846">
<time>2016-10-07T12:37:16Z</time></trkpt>
<trkpt lat="28.84671" lon="98.66845">
<time>2016-10-07T12:37:17Z</time></trkpt>
<trkpt lat="28.84675" lon="98.66844">
<time>2016-10-07T12:37:18Z</time></trkpt>
<trkpt lat="28.84679" lon="98.66843">
<time>2016-10-07T12:37:19Z</time></trkpt>
<trkpt lat="28.84685" lon="98.66842">
<time>2016-10-07T12:37:20Z</time></trkpt>
<trkpt lat="28.84688" lon="98.66841">
<time>2016-10-07T12:37:21Z</time></trkpt>
<trkpt lat="28.84701" lon="98.66837">
<time>2016-10-07T12:37:22Z</time></trkpt>
<trkpt lat="28.84717" lon="98.66832">
<time>2016-10-07T12:37:23Z</time></trkpt>
<trkpt lat="28.84726" lon="98.66829">
<time>2016-10-07T12:37:24Z</time></trkpt>
<trkpt lat="28.84735" lon="98.668251">
<time>2016-10-07T12:37:25Z</time></trkpt>
<trkpt lat="28.84743" lon="98.668221">
<time>2016-10-07T12:37:26Z</time></trkpt>
<trkpt lat="28.84754" lon="98.668161">
<time>2016-10-07T12:37:27Z</time></trkpt>
<trkpt lat="28.84761" lon="98.668121">
<time>2016-10-07T12:37:28Z</time></trkpt>
<trkpt lat="28.84768" lon="98.668071">
<time>2016-10-07T12:37:29Z</time></trkpt>
<trkpt lat="28.84778" lon="98.668011">
<time>2016-10-07T12:37:30Z</time></trkpt>
<trkpt lat="28.84802" lon="98.667822">
<time>2016-10-07T12:37:31Z</time></trkpt>
<trkpt lat="28.84827" lon="98.667642">
<time>2016-10-07T12:37:32Z</time></trkpt>
<trkpt lat="28.84838" lon="98.667562">
<time>2016-10-07T12:37:33Z</time></trkpt>
<trkpt lat="28.84852" lon="98.667463">
<time>2016-10-07T12:37:34Z</time></trkpt>
<trkpt lat="28.84875" lon="98.667303">
<time>2016-10-07T12:37:35Z</time></trkpt>
<trkpt lat="28.84886" lon="98.667213">
<time>2016-10-07T12:37:36Z</time></trkpt>
<trkpt lat="28.84894" lon="98.667144">
<time>2016-10-07T12:37:37Z</time></trkpt>
<trkpt lat="28.848991" lon="98.667084">
<time>2016-10-07T12:37:38Z</time></trkpt>
<trkpt lat="28.849031" lon="98.667044">
<time>2016-10-07T12:37:39Z</time></trkpt>
<trkpt lat="28.849051" lon="98.667004">
<time>2016-10-07T12:37:40Z</time></trkpt>
<trkpt lat="28.849081" lon="98.666954">
<time>2016-10-07T12:37:41Z</time></trkpt>
<trkpt lat="28.849091" lon="98.666914">
<time>2016-10-07T12:37:42Z</time></trkpt>
<trkpt lat="28.849111" lon="98.666874">
<time>2016-10-07T12:37:43Z</time></trkpt>
<trkpt lat="28.849121" lon="98.666815">
<time>2016-10-07T12:37:44Z</time></trkpt>
<trkpt lat="28.849131" lon="98.666765">
<time>2016-10-07T12:37:45Z</time></trkpt>
<trkpt lat="28.849141" lon="98.666695">
<time>2016-10-07T12:37:46Z</time></trkpt>
<trkpt lat="28.849141" lon="98.666645">
<time>2016-10-07T12:37:47Z</time></trkpt>
<trkpt lat="28.849142" lon="98.666525">
<time>2016-10-07T12:37:48Z</time></trkpt>
<trkpt lat="28.849142" lon="98.666466">
<time>2016-10-07T12:37:49Z</time></trkpt>
<trkpt lat="28.849152" lon="98.666416">
<time>2016-10-07T12:37:50Z</time></trkpt>
<trkpt lat="28.849152" lon="98.666366">
<time>2016-10-07T12:37:51Z</time></trkpt>
<trkpt lat="28.849162" lon="98.666316">
<time>2016-10-07T12:37:52Z</time></trkpt>
<trkpt lat="28.849182" lon="98.666256">
<time>2016-10-07T12:37:53Z</time></trkpt>
<trkpt lat="28.849202" lon="98.666196">
<time>2016-10-07T12:37:54Z</time></trkpt>
<trkpt lat="28.849252" lon="98.666106">
<time>2016-10-07T12:37:55Z</time></trkpt>
<trkpt lat="28.849292" lon="98.666027">
<time>2016-10-07T12:37:56Z</time></trkpt>
<trkpt lat="28.849433" lon="98.665777">
<time>2016-10-07T12:37:57Z</time></trkpt>
<trkpt lat="28.849463" lon="98.665708">
<time>2016-10-07T12:37:58Z</time></trkpt>
<trkpt lat="28.849583" lon="98.665498">
<time>2016-10-07T12:37:59Z</time></trkpt>
<trkpt lat="28.849703" lon="98.665299">
<time>2016-10-07T12:38:00Z</time></trkpt>
<trkpt lat="28.849844" lon="98.665039">
<time>2016-10-07T12:38:01Z</time></trkpt>
<trkpt lat="28.849904" lon="98.66493">
<time>2016-10-07T12:38:02Z</time></trkpt>
<trkpt lat="28.849964" lon="98.66484">
<time>2016-10-07T12:38:03Z</time></trkpt>
<trkpt lat="28.849994" lon="98.66478">
<time>2016-10-07T12:38:04Z</time></trkpt>
<trkpt lat="28.850044" lon="98.66471">
<time>2016-10-07T12:38:05Z</time></trkpt>
<trkpt lat="28.850084" lon="98.66466">
<time>2016-10-07T12:38:06Z</time></trkpt>
<trkpt lat="28.850104" lon="98.664631">
<time>2016-10-07T12:38:07Z</time></trkpt>
<trkpt lat="28.850144" lon="98.664591">
<time>2016-10-07T12:38:08Z</time></trkpt>
<trkpt lat="28.850185" lon="98.664541">
<time>2016-10-07T12:38:09Z</time></trkpt>
<trkpt lat="28.850255" lon="98.664461">
<time>2016-10-07T12:38:10Z</time></trkpt>
<trkpt lat="28.850315" lon="98.664411">
<time>2016-10-07T12:38:11Z</time></trkpt>
<trkpt lat="28.850395" lon="98.664321">
<time>2016-10-07T12:38:12Z</time></trkpt>
<trkpt lat="28.850485" lon="98.664242">
<time>2016-10-07T12:38:13Z</time></trkpt>
<trkpt lat="28.850535" lon="98.664182">
<time>2016-10-07T12:38:14Z</time></trkpt>
<trkpt lat="28.850575" lon="98.664142">
<time>2016-10-07T12:38:15Z</time></trkpt>
<trkpt lat="28.850615" lon="98.664092">
<time>2016-10-07T12:38:16Z</time></trkpt>
<trkpt lat="28.850665" lon="98.664032">
<time>2016-10-07T12:38:17Z</time></trkpt>
<trkpt lat="28.850725" lon="98.663962">
<time>2016-10-07T12:38:18Z</time></trkpt>
<trkpt lat="28.850765" lon="98.663903">
<time>2016-10-07T12:38:19Z</time></trkpt>
<trkpt lat="28.850835" lon="98.663813">
<time>2016-10-07T12:38:20Z</time></trkpt>
<trkpt lat="28.850956" lon="98.663633">
<time>2016-10-07T12:38:21Z</time></trkpt>
<trkpt lat="28.851046" lon="98.663504">
<time>2016-10-07T12:38:22Z</time></trkpt>
<trkpt lat="28.851166" lon="98.663334">
<time>2016-10-07T12:38:23Z</time></trkpt>
<trkpt lat="28.851216" lon="98.663254">
<time>2016-10-07T12:38:24Z</time></trkpt>
<trkpt lat="28.851266" lon="98.663175">
<time>2016-10-07T12:38:25Z</time></trkpt>
<trkpt lat="28.851326" lon="98.663095">
<time>2016-10-07T12:38:26Z</time></trkpt>
<trkpt lat="28.851427" lon="98.662935">
<time>2016-10-07T12:38:27Z</time></trkpt>
<trkpt lat="28.851507" lon="98.662806">
<time>2016-10-07T12:38:28Z</time></trkpt>
<trkpt lat="28.851607" lon="98.662646">
<time>2016-10-07T12:38:29Z</time></trkpt>
<trkpt lat="28.851647" lon="98.662556">
<time>2016-10-07T12:38:30Z</time></trkpt>
<trkpt lat="28.851697" lon="98.662486">
<time>2016-10-07T12:38:31Z</time></trkpt>
<trkpt lat="28.851737" lon="98.662407">
<time>2016-10-07T12:38:32Z</time></trkpt>
<trkpt lat="28.851768" lon="98.662337">
<time>2016-10-07T12:38:33Z</time></trkpt>
<trkpt lat="28.851838" lon="98.662187">
<time>2016-10-07T12:38:34Z</time></trkpt>
<trkpt lat="28.851898" lon="98.662058">
<time>2016-10-07T12:38:35Z</time></trkpt>
<trkpt lat="28.851948" lon="98.661968">
<time>2016-10-07T12:38:36Z</time></trkpt>
<trkpt lat="28.852048" lon="98.661768">
<time>2016-10-07T12:38:37Z</time></trkpt>
<trkpt lat="28.852109" lon="98.661649">
<time>2016-10-07T12:38:38Z</time></trkpt>
<trkpt lat="28.852169" lon="98.661529">
<time>2016-10-07T12:38:39Z</time></trkpt>
<trkpt lat="28.852279" lon="98.6613">
<time>2016-10-07T12:38:40Z</time></trkpt>
<trkpt lat="28.852329" lon="98.6612">
<time>2016-10-07T12:38:41Z</time></trkpt>
<trkpt lat="28.852369" lon="98.66112">
<time>2016-10-07T12:38:42Z</time></trkpt>
<trkpt lat="28.85242" lon="98.66102">
<time>2016-10-07T12:38:43Z</time></trkpt>
<trkpt lat="28.85247" lon="98.660911">
<time>2016-10-07T12:38:44Z</time></trkpt>
<trkpt lat="28.85251" lon="98.660841">
<time>2016-10-07T12:38:45Z</time></trkpt>
<trkpt lat="28.85254" lon="98.660781">
<time>2016-10-07T12:38:46Z</time></trkpt>
<trkpt lat="28.85256" lon="98.660741">
<time>2016-10-07T12:38:47Z</time></trkpt>
<trkpt lat="28.85258" lon="98.660711">
<time>2016-10-07T12:38:48Z</time></trkpt>
<trkpt lat="28.8526" lon="98.660671">
<time>2016-10-07T12:38:49Z</time></trkpt>
<trkpt lat="28.85263" lon="98.660622">
<time>2016-10-07T12:38:50Z</time></trkpt>
<trkpt lat="28.85266" lon="98.660572">
<time>2016-10-07T12:38:51Z</time></trkpt>
<trkpt lat="28.8527" lon="98.660512">
<time>2016-10-07T12:38:52Z</time></trkpt>
<trkpt lat="28.85274" lon="98.660442">
<time>2016-10-07T12:38:53Z</time></trkpt>
<trkpt lat="28.85278" lon="98.660392">
<time>2016-10-07T12:38:54Z</time></trkpt>
<trkpt lat="28.852831" lon="98.660322">
<time>2016-10-07T12:38:55Z</time></trkpt>
<trkpt lat="28.852861" lon="98.660272">
<time>2016-10-07T12:38:56Z</time></trkpt>
<trkpt lat="28.852911" lon="98.660213">
<time>2016-10-07T12:38:57Z</time></trkpt>
<trkpt lat="28.852971" lon="98.660123">
<time>2016-10-07T12:38:58Z</time></trkpt>
<trkpt lat="28.853041" lon="98.660023">
<time>2016-10-07T12:38:59Z</time></trkpt>
<trkpt lat="28.853091" lon="98.659953">
<time>2016-10-07T12:39:00Z</time></trkpt>
<trkpt lat="28.853121" lon="98.659903">
<time>2016-10-07T12:39:01Z</time></trkpt>
<trkpt lat="28.853141" lon="98.659884">
<time>2016-10-07T12:39:02Z</time></trkpt>
<trkpt lat="28.853171" lon="98.659844">
<time>2016-10-07T12:39:03Z</time></trkpt>
<trkpt lat="28.853191" lon="98.659804">
<time>2016-10-07T12:39:04Z</time></trkpt>
<trkpt lat="28.853241" lon="98.659754">
<time>2016-10-07T12:39:05Z</time></trkpt>
<trkpt lat="28.853281" lon="98.659704">
<time>2016-10-07T12:39:06Z</time></trkpt>
<trkpt lat="28.853301" lon="98.659674">
<time>2016-10-07T12:39:07Z</time></trkpt>
<trkpt lat="28.853341" lon="98.659634">
<time>2016-10-07T12:39:08Z</time></trkpt>
<trkpt lat="28.853382" lon="98.659594">
<time>2016-10-07T12:39:09Z</time></trkpt>
<trkpt lat="28.853402" lon="98.659564">
<time>2016-10-07T12:39:10Z</time></trkpt>
<trkpt lat="28.853442" lon="98.659534">
<time>2016-10-07T12:39:11Z</time></trkpt>
<trkpt lat="28.853482" lon="98.659495">
<time>2016-10-07T12:39:12Z</time></trkpt>
<trkpt lat="28.853532" lon="98.659445">
<time>2016-10-07T12:39:13Z</time></trkpt>
<trkpt lat="28.853602" lon="98.659375">
<time>2016-10-07T12:39:14Z</time></trkpt>
<trkpt lat="28.853672" lon="98.659315">
<time>2016-10-07T12:39:15Z</time></trkpt>
<trkpt lat="28.853782" lon="98.659195">
<time>2016-10-07T12:39:16Z</time></trkpt>
<trkpt lat="28.853922" lon="98.659076">
<time>2016-10-07T12:39:17Z</time></trkpt>
<trkpt lat="28.854102" lon="98.658906">
<time>2016-10-07T12:39:18Z</time></trkpt>
<trkpt lat="28.854222" lon="98.658786">
<time>2016-10-07T12:39:19Z</time></trkpt>
<trkpt lat="28.854433" lon="98.658597">
<time>2016-10-07T12:39:20Z</time></trkpt>
<trkpt lat="28.854633" lon="98.658437">
<time>2016-10-07T12:39:21Z</time></trkpt>
<trkpt lat="28.854833" lon="98.658268">
<time>2016-10-07T12:39:22Z</time></trkpt>
<trkpt lat="28.855013" lon="98.658118">
<time>2016-10-07T12:39:23Z</time></trkpt>
<trkpt lat="28.855113" lon="98.658029">
<time>2016-10-07T12:39:24Z</time></trkpt>
<trkpt lat="28.855193" lon="98.657969">
<time>2016-10-07T12:39:25Z</time></trkpt>
<trkpt lat="28.855253" lon="98.657909">
<time>2016-10-07T12:39:26Z</time></trkpt>
<trkpt lat="28.855323" lon="98.657859">
<time>2016-10-07T12:39:27Z</time></trkpt>
<trkpt lat="28.855393" lon="98.657809">
<time>2016-10-07T12:39:28Z</time></trkpt>
<trkpt lat="28.855473" lon="98.657749">
<time>2016-10-07T12:39:29Z</time></trkpt>
<trkpt lat="28.855563" lon="98.657689">
<time>2016-10-07T12:39:30Z</time></trkpt>
<trkpt lat="28.855693" lon="98.65761">
<time>2016-10-07T12:39:31Z</time></trkpt>
<trkpt lat="28.855824" lon="98.65753">
<time>2016-10-07T12:39:32Z</time></trkpt>
<trkpt lat="28.856214" lon="98.65729">
<time>2016-10-07T12:39:33Z</time></trkpt>
<trkpt lat="28.856484" lon="98.657121">
<time>2016-10-07T12:39:34Z</time></trkpt>
<trkpt lat="28.856674" lon="98.657011">
<time>2016-10-07T12:39:35Z</time></trkpt>
<trkpt lat="28.856984" lon="98.656822">
<time>2016-10-07T12:39:36Z</time></trkpt>
<trkpt lat="28.857394" lon="98.656562">
<time>2016-10-07T12:39:37Z</time></trkpt>
<trkpt lat="28.857734" lon="98.656343">
<time>2016-10-07T12:39:38Z</time></trkpt>
<trkpt lat="28.857904" lon="98.656243">
<time>2016-10-07T12:39:39Z</time></trkpt>
<trkpt lat="28.858054" lon="98.656153">
<time>2016-10-07T12:39:40Z</time></trkpt>
<trkpt lat="28.858294" lon="98.656004">
<time>2016-10-07T12:39:41Z</time></trkpt>
<trkpt lat="28.858525" lon="98.655854">
<time>2016-10-07T12:39:42Z</time></trkpt>
<trkpt lat="28.858635" lon="98.655784">
<time>2016-10-07T12:39:43Z</time></trkpt>
<trkpt lat="28.858695" lon="98.655735">
<time>2016-10-07T12:39:44Z</time></trkpt>
<trkpt lat="28.858765" lon="98.655695">
<time>2016-10-07T12:39:45Z</time></trkpt>
<trkpt lat="28.858885" lon="98.655605">
<time>2016-10-07T12:39:46Z</time></trkpt>
<trkpt lat="28.858985" lon="98.655525">
<time>2016-10-07T12:39:47Z</time></trkpt>
<trkpt lat="28.859095" lon="98.655425">
<time>2016-10-07T12:39:48Z</time></trkpt>
<trkpt lat="28.859165" lon="98.655366">
<time>2016-10-07T12:39:49Z</time></trkpt>
<trkpt lat="28.859265" lon="98.655286">
<time>2016-10-07T12:39:50Z</time></trkpt>
<trkpt lat="28.859355" lon="98.655216">
<time>2016-10-07T12:39:51Z</time></trkpt>
<trkpt lat="28.859425" lon="98.655166">
<time>2016-10-07T12:39:52Z</time></trkpt>
<trkpt lat="28.859475" lon="98.655126">
<time>2016-10-07T12:39:53Z</time></trkpt>
<trkpt lat="28.859535" lon="98.655086">
<time>2016-10-07T12:39:54Z</time></trkpt>
<trkpt lat="28.859595" lon="98.655046">
<time>2016-10-07T12:39:55Z</time></trkpt>
<trkpt lat="28.859665" lon="98.655007">
<time>2016-10-07T12:39:56Z</time></trkpt>
<trkpt lat="28.859735" lon="98.654967">
<time>2016-10-07T12:39:57Z</time></trkpt>
<trkpt lat="28.859825" lon="98.654917">
<time>2016-10-07T12:39:58Z</time></trkpt>
<trkpt lat="28.859905" lon="98.654877">
<time>2016-10-07T12:39:59Z</time></trkpt>
<trkpt lat="28.860075" lon="98.654807">
<time>2016-10-07T12:40:00Z</time></trkpt>
<trkpt lat="28.860195" lon="98.654747">
<time>2016-10-07T12:40:01Z</time></trkpt>
<trkpt lat="28.860265" lon="98.654717">
<time>2016-10-07T12:40:02Z</time></trkpt>
<trkpt lat="28.860325" lon="98.654677">
<time>2016-10-07T12:40:03Z</time></trkpt>
<trkpt lat="28.860365" lon="98.654647">
<time>2016-10-07T12:40:04Z</time></trkpt>
<trkpt lat="28.860415" lon="98.654618">
<time>2016-10-07T12:40:05Z</time></trkpt>
<trkpt lat="28.860465" lon="98.654588">
<time>2016-10-07T12:40:06Z</time></trkpt>
<trkpt lat="28.860505" lon="98.654548">
<time>2016-10-07T12:40:07Z</time></trkpt>
<trkpt lat="28.860556" lon="98.654508">
<time>2016-10-07T12:40:08Z</time></trkpt>
<trkpt lat="28.860616" lon="98.654438">
<time>2016-10-07T12:40:09Z</time></trkpt>
<trkpt lat="28.860676" lon="98.654378">
<time>2016-10-07T12:40:10Z</time></trkpt>
<trkpt lat="28.860746" lon="98.654308">
<time>2016-10-07T12:40:11Z</time></trkpt>
<trkpt lat="28.860786" lon="98.654268">
<time>2016-10-07T12:40:12Z</time></trkpt>
<trkpt lat="28.860836" lon="98.654219">
<time>2016-10-07T12:40:13Z</time></trkpt>
<trkpt lat="28.860876" lon="98.654189">
<time>2016-10-07T12:40:14Z</time></trkpt>
<trkpt lat="28.860916" lon="98.654149">
<time>2016-10-07T12:40:15Z</time></trkpt>
<trkpt lat="28.860956" lon="98.654119">
<time>2016-10-07T12:40:16Z</time></trkpt>
<trkpt lat="28.861016" lon="98.654079">
<time>2016-10-07T12:40:17Z</time></trkpt>
<trkpt lat="28.861076" lon="98.654049">
<time>2016-10-07T12:40:18Z</time></trkpt>
<trkpt lat="28.861116" lon="98.654019">
<time>2016-10-07T12:40:19Z</time></trkpt>
<trkpt lat="28.861156" lon="98.653999">
<time>2016-10-07T12:40:20Z</time></trkpt>
<trkpt lat="28.861226" lon="98.653959">
<time>2016-10-07T12:40:21Z</time></trkpt>
<trkpt lat="28.861296" lon="98.653919">
<time>2016-10-07T12:40:22Z</time></trkpt>
<trkpt lat="28.861366" lon="98.653889">
<time>2016-10-07T12:40:23Z</time></trkpt>
<trkpt lat="28.861506" lon="98.65382">
<time>2016-10-07T12:40:24Z</time></trkpt>
<trkpt lat="28.861596" lon="98.65378">
<time>2016-10-07T12:40:25Z</time></trkpt>
<trkpt lat="28.861706" lon="98.65373">
<time>2016-10-07T12:40:26Z</time></trkpt>
<trkpt lat="28.861906" lon="98.65365">
<time>2016-10-07T12:40:27Z</time></trkpt>
<trkpt lat="28.861986" lon="98.65361">
<time>2016-10-07T12:40:28Z</time></trkpt>
<trkpt lat="28.862106" lon="98.65357">
<time>2016-10-07T12:40:29Z</time></trkpt>
<trkpt lat="28.862316" lon="98.6535">
<time>2016-10-07T12:40:30Z</time></trkpt>
<trkpt lat="28.862506" lon="98.653451">
<time>2016-10-07T12:40:31Z</time></trkpt>
<trkpt lat="28.862766" lon="98.653391">
<time>2016-10-07T12:40:32Z</time></trkpt>
<trkpt lat="28.862906" lon="98.653351">
<time>2016-10-07T12:40:33Z</time></trkpt>
<trkpt lat="28.863046" lon="98.653301">
<time>2016-10-07T12:40:34Z</time></trkpt>
<trkpt lat="28.863156" lon="98.653261">
<time>2016-10-07T12:40:35Z</time></trkpt>
<trkpt lat="28.863286" lon="98.653201">
<time>2016-10-07T12:40:36Z</time></trkpt>
<trkpt lat="28.863386" lon="98.653161">
<time>2016-10-07T12:40:37Z</time></trkpt>
<trkpt lat="28.863536" lon="98.653101">
<time>2016-10-07T12:40:38Z</time></trkpt>
<trkpt lat="28.863756" lon="98.652992">
<time>2016-10-07T12:40:39Z</time></trkpt>
<trkpt lat="28.864286" lon="98.652742">
<time>2016-10-07T12:40:40Z</time></trkpt>
<trkpt lat="28.864456" lon="98.652653">
<time>2016-10-07T12:40:41Z</time></trkpt>
<trkpt lat="28.864566" lon="98.652603">
<time>2016-10-07T12:40:42Z</time></trkpt>
<trkpt lat="28.864656" lon="98.652553">
<time>2016-10-07T12:40:43Z</time></trkpt>
<trkpt lat="28.864746" lon="98.652503">
<time>2016-10-07T12:40:44Z</time></trkpt>
<trkpt lat="28.864836" lon="98.652443">
<time>2016-10-07T12:40:45Z</time></trkpt>
<trkpt lat="28.864956" lon="98.652373">
<time>2016-10-07T12:40:46Z</time></trkpt>
<trkpt lat="28.865066" lon="98.652313">
<time>2016-10-07T12:40:47Z</time></trkpt>
<trkpt lat="28.865116" lon="98.652294">
<time>2016-10-07T12:40:48Z</time></trkpt>
<trkpt lat="28.865186" lon="98.652254">
<time>2016-10-07T12:40:49Z</time></trkpt>
<trkpt lat="28.865226" lon="98.652234">
<time>2016-10-07T12:40:50Z</time></trkpt>
<trkpt lat="28.865296" lon="98.652204">
<time>2016-10-07T12:40:51Z</time></trkpt>
<trkpt lat="28.865386" lon="98.652164">
<time>2016-10-07T12:40:52Z</time></trkpt>
<trkpt lat="28.865486" lon="98.652134">
<time>2016-10-07T12:40:53Z</time></trkpt>
<trkpt lat="28.865536" lon="98.652104">
<time>2016-10-07T12:40:54Z</time></trkpt>
<trkpt lat="28.865616" lon="98.652084">
<time>2016-10-07T12:40:55Z</time></trkpt>
<trkpt lat="28.865686" lon="98.652054">
<time>2016-10-07T12:40:56Z</time></trkpt>
<trkpt lat="28.865756" lon="98.652034">
<time>2016-10-07T12:40:57Z</time></trkpt>
<trkpt lat="28.865836" lon="98.652014">
<time>2016-10-07T12:40:58Z</time></trkpt>
<trkpt lat="28.865946" lon="98.651994">
<time>2016-10-07T12:40:59Z</time></trkpt>
<trkpt lat="28.866056" lon="98.651984">
<time>2016-10-07T12:41:00Z</time></trkpt>
<trkpt lat="28.866136" lon="98.651974">
<time>2016-10-07T12:41:01Z</time></trkpt>
<trkpt lat="28.866226" lon="98.651974">
<time>2016-10-07T12:41:02Z</time></trkpt>
<trkpt lat="28.866366" lon="98.651964">
<time>2016-10-07T12:41:03Z</time></trkpt>
<trkpt lat="28.866506" lon="98.651964">
<time>2016-10-07T12:41:04Z</time></trkpt>
<trkpt lat="28.866706" lon="98.651954">
<time>2016-10-07T12:41:05Z</time></trkpt>
<trkpt lat="28.866915" lon="98.651944">
<time>2016-10-07T12:41:06Z</time></trkpt>
<trkpt lat="28.867185" lon="98.651944">
<time>2016-10-07T12:41:07Z</time></trkpt>
<trkpt lat="28.867345" lon="98.651934">
<time>2016-10-07T12:41:08Z</time></trkpt>
<trkpt lat="28.867455" lon="98.651934">
<time>2016-10-07T12:41:09Z</time></trkpt>
<trkpt lat="28.867575" lon="98.651914">
<time>2016-10-07T12:41:10Z</time></trkpt>
<trkpt lat="28.867735" lon="98.651904">
<time>2016-10-07T12:41:11Z</time></trkpt>
<trkpt lat="28.868045" lon="98.651855">
<time>2016-10-07T12:41:12Z</time></trkpt>
<trkpt lat="28.868434" lon="98.651805">
<time>2016-10-07T12:41:13Z</time></trkpt>
<trkpt lat="28.868664" lon="98.651775">
<time>2016-10-07T12:41:14Z</time></trkpt>
<trkpt lat="28.868804" lon="98.651755">
<time>2016-10-07T12:41:15Z</time></trkpt>
<trkpt lat="28.868914" lon="98.651725">
<time>2016-10-07T12:41:16Z</time></trkpt>
<trkpt lat="28.868974" lon="98.651715">
<time>2016-10-07T12:41:17Z</time></trkpt>
<trkpt lat="28.869034" lon="98.651695">
<time>2016-10-07T12:41:18Z</time></trkpt>
<trkpt lat="28.869114" lon="98.651675">
<time>2016-10-07T12:41:19Z</time></trkpt>
<trkpt lat="28.869204" lon="98.651645">
<time>2016-10-07T12:41:20Z</time></trkpt>
<trkpt lat="28.869524" lon="98.651525">
<time>2016-10-07T12:41:21Z</time></trkpt>
<trkpt lat="28.869774" lon="98.651436">
<time>2016-10-07T12:41:22Z</time></trkpt>
<trkpt lat="28.869924" lon="98.651386">
<time>2016-10-07T12:41:23Z</time></trkpt>
<trkpt lat="28.870024" lon="98.651356">
<time>2016-10-07T12:41:24Z</time></trkpt>
<trkpt lat="28.870124" lon="98.651336">
<time>2016-10-07T12:41:25Z</time></trkpt>
<trkpt lat="28.870214" lon="98.651316">
<time>2016-10-07T12:41:26Z</time></trkpt>
<trkpt lat="28.870274" lon="98.651296">
<time>2016-10-07T12:41:27Z</time></trkpt>
<trkpt lat="28.870384" lon="98.651276">
<time>2016-10-07T12:41:28Z</time></trkpt>
<trkpt lat="28.870534" lon="98.651246">
<time>2016-10-07T12:41:29Z</time></trkpt>
<trkpt lat="28.870844" lon="98.651196">
<time>2016-10-07T12:41:30Z</time></trkpt>
<trkpt lat="28.871094" lon="98.651156">
<time>2016-10-07T12:41:31Z</time></trkpt>
<trkpt lat="28.871354" lon="98.651116">
<time>2016-10-07T12:41:32Z</time></trkpt>
<trkpt lat="28.871623" lon="98.651077">
<time>2016-10-07T12:41:33Z</time></trkpt>
<trkpt lat="28.871953" lon="98.651017">
<time>2016-10-07T12:41:34Z</time></trkpt>
<trkpt lat="28.872163" lon="98.650987">
<time>2016-10-07T12:41:35Z</time></trkpt>
<trkpt lat="28.872243" lon="98.650977">
<time>2016-10-07T12:41:36Z</time></trkpt>
<trkpt lat="28.872323" lon="98.650967">
<time>2016-10-07T12:41:37Z</time></trkpt>
<trkpt lat="28.872423" lon="98.650957">
<time>2016-10-07T12:41:38Z</time></trkpt>
<trkpt lat="28.872493" lon="98.650947">
<time>2016-10-07T12:41:39Z</time></trkpt>
<trkpt lat="28.872543" lon="98.650947">
<time>2016-10-07T12:41:40Z</time></trkpt>
<trkpt lat="28.872593" lon="98.650947">
<time>2016-10-07T12:41:41Z</time></trkpt>
<trkpt lat="28.872663" lon="98.650947">
<time>2016-10-07T12:41:42Z</time></trkpt>
<trkpt lat="28.872733" lon="98.650947">
<time>2016-10-07T12:41:43Z</time></trkpt>
<trkpt lat="28.872793" lon="98.650957">
<time>2016-10-07T12:41:44Z</time></trkpt>
<trkpt lat="28.872883" lon="98.650967">
<time>2016-10-07T12:41:45Z</time></trkpt>
<trkpt lat="28.872973" lon="98.650987">
<time>2016-10-07T12:41:46Z</time></trkpt>
<trkpt lat="28.873052" lon="98.651007">
<time>2016-10-07T12:41:47Z</time></trkpt>
<trkpt lat="28.873132" lon="98.651027">
<time>2016-10-07T12:41:48Z</time></trkpt>
<trkpt lat="28.873262" lon="98.651057">
<time>2016-10-07T12:41:49Z</time></trkpt>
<trkpt lat="28.873342" lon="98.651077">
<time>2016-10-07T12:41:50Z</time></trkpt>
<trkpt lat="28.873402" lon="98.651087">
<time>2016-10-07T12:41:51Z</time></trkpt>
<trkpt lat="28.873482" lon="98.651096">
<time>2016-10-07T12:41:52Z</time></trkpt>
<trkpt lat="28.873602" lon="98.651116">
<time>2016-10-07T12:41:53Z</time></trkpt>
<trkpt lat="28.873712" lon="98.651126">
<time>2016-10-07T12:41:54Z</time></trkpt>
<trkpt lat="28.873802" lon="98.651126">
<time>2016-10-07T12:41:55Z</time></trkpt>
<trkpt lat="28.873902" lon="98.651126">
<time>2016-10-07T12:41:56Z</time></trkpt>
<trkpt lat="28.873982" lon="98.651116">
<time>2016-10-07T12:41:57Z</time></trkpt>
<trkpt lat="28.874072" lon="98.651106">
<time>2016-10-07T12:41:58Z</time></trkpt>
<trkpt lat="28.874171" lon="98.651096">
<time>2016-10-07T12:41:59Z</time></trkpt>
<trkpt lat="28.874251" lon="98.651077">
<time>2016-10-07T12:42:00Z</time></trkpt>
<trkpt lat="28.874371" lon="98.651047">
<time>2016-10-07T12:42:01Z</time></trkpt>
<trkpt lat="28.874481" lon="98.651017">
<time>2016-10-07T12:42:02Z</time></trkpt>
<trkpt lat="28.874561" lon="98.651007">
<time>2016-10-07T12:42:03Z</time></trkpt>
<trkpt lat="28.874631" lon="98.650997">
<time>2016-10-07T12:42:04Z</time></trkpt>
<trkpt lat="28.874701" lon="98.650987">
<time>2016-10-07T12:42:05Z</time></trkpt>
<trkpt lat="28.874781" lon="98.650987">
<time>2016-10-07T12:42:06Z</time></trkpt>
<trkpt lat="28.874871" lon="98.650987">
<time>2016-10-07T12:42:07Z</time></trkpt>
<trkpt lat="28.874981" lon="98.650997">
<time>2016-10-07T12:42:08Z</time></trkpt>
<trkpt lat="28.875101" lon="98.651017">
<time>2016-10-07T12:42:09Z</time></trkpt>
<trkpt lat="28.875221" lon="98.651047">
<time>2016-10-07T12:42:10Z</time></trkpt>
<trkpt lat="28.875371" lon="98.651067">
<time>2016-10-07T12:42:11Z</time></trkpt>
<trkpt lat="28.875471" lon="98.651077">
<time>2016-10-07T12:42:12Z</time></trkpt>
<trkpt lat="28.87565" lon="98.651086">
<time>2016-10-07T12:42:13Z</time></trkpt>
<trkpt lat="28.87581" lon="98.651096">
<time>2016-10-07T12:42:14Z</time></trkpt>
<trkpt lat="28.87608" lon="98.651096">
<time>2016-10-07T12:42:15Z</time></trkpt>
<trkpt lat="28.87628" lon="98.651096">
<time>2016-10-07T12:42:16Z</time></trkpt>
<trkpt lat="28.87641" lon="98.651086">
<time>2016-10-07T12:42:17Z</time></trkpt>
<trkpt lat="28.87654" lon="98.651076">
<time>2016-10-07T12:42:18Z</time></trkpt>
<trkpt lat="28.87666" lon="98.651057">
<time>2016-10-07T12:42:19Z</time></trkpt>
<trkpt lat="28.87685" lon="98.651037">
<time>2016-10-07T12:42:20Z</time></trkpt>
<trkpt lat="28.877289" lon="98.650967">
<time>2016-10-07T12:42:21Z</time></trkpt>
<trkpt lat="28.877739" lon="98.650897">
<time>2016-10-07T12:42:22Z</time></trkpt>
<trkpt lat="28.878289" lon="98.650807">
<time>2016-10-07T12:42:23Z</time></trkpt>
<trkpt lat="28.878399" lon="98.650797">
<time>2016-10-07T12:42:24Z</time></trkpt>
<trkpt lat="28.878489" lon="98.650777">
<time>2016-10-07T12:42:25Z</time></trkpt>
<trkpt lat="28.878609" lon="98.650747">
<time>2016-10-07T12:42:26Z</time></trkpt>
<trkpt lat="28.878709" lon="98.650717">
<time>2016-10-07T12:42:27Z</time></trkpt>
<trkpt lat="28.878789" lon="98.650677">
<time>2016-10-07T12:42:28Z</time></trkpt>
<trkpt lat="28.878859" lon="98.650648">
<time>2016-10-07T12:42:29Z</time></trkpt>
<trkpt lat="28.878899" lon="98.650618">
<time>2016-10-07T12:42:30Z</time></trkpt>
<trkpt lat="28.878949" lon="98.650588">
<time>2016-10-07T12:42:31Z</time></trkpt>
<trkpt lat="28.879019" lon="98.650548">
<time>2016-10-07T12:42:32Z</time></trkpt>
<trkpt lat="28.879359" lon="98.650308">
<time>2016-10-07T12:42:33Z</time></trkpt>
<trkpt lat="28.879479" lon="98.650229">
<time>2016-10-07T12:42:34Z</time></trkpt>
<trkpt lat="28.879609" lon="98.650159">
<time>2016-10-07T12:42:35Z</time></trkpt>
<trkpt lat="28.879739" lon="98.650089">
<time>2016-10-07T12:42:36Z</time></trkpt>
<trkpt lat="28.880169" lon="98.64985">
<time>2016-10-07T12:42:37Z</time></trkpt>
<trkpt lat="28.880309" lon="98.64978">
<time>2016-10-07T12:42:38Z</time></trkpt>
<trkpt lat="28.880419" lon="98.64973">
<time>2016-10-07T12:42:39Z</time></trkpt>
<trkpt lat="28.880489" lon="98.64969">
<time>2016-10-07T12:42:40Z</time></trkpt>
<trkpt lat="28.880559" lon="98.64966">
<time>2016-10-07T12:42:41Z</time></trkpt>
<trkpt lat="28.880639" lon="98.64963">
<time>2016-10-07T12:42:42Z</time></trkpt>
<trkpt lat="28.880729" lon="98.6496">
<time>2016-10-07T12:42:43Z</time></trkpt>
<trkpt lat="28.880899" lon="98.64953">
<time>2016-10-07T12:42:44Z</time></trkpt>
<trkpt lat="28.880979" lon="98.6495">
<time>2016-10-07T12:42:45Z</time></trkpt>
<trkpt lat="28.881069" lon="98.649461">
<time>2016-10-07T12:42:46Z</time></trkpt>
<trkpt lat="28.881139" lon="98.649431">
<time>2016-10-07T12:42:47Z</time></trkpt>
<trkpt lat="28.881219" lon="98.649381">
<time>2016-10-07T12:42:48Z</time></trkpt>
<trkpt lat="28.881349" lon="98.649301">
<time>2016-10-07T12:42:49Z</time></trkpt>
<trkpt lat="28.881469" lon="98.649231">
<time>2016-10-07T12:42:50Z</time></trkpt>
<trkpt lat="28.881909" lon="98.648922">
<time>2016-10-07T12:42:51Z</time></trkpt>
<trkpt lat="28.88231" lon="98.648653">
<time>2016-10-07T12:42:52Z</time></trkpt>
<trkpt lat="28.88262" lon="98.648443">
<time>2016-10-07T12:42:53Z</time></trkpt>
<trkpt lat="28.88269" lon="98.648393">
<time>2016-10-07T12:42:54Z</time></trkpt>
<trkpt lat="28.88276" lon="98.648353">
<time>2016-10-07T12:42:55Z</time></trkpt>
<trkpt lat="28.88283" lon="98.648323">
<time>2016-10-07T12:42:56Z</time></trkpt>
<trkpt lat="28.88288" lon="98.648303">
<time>2016-10-07T12:42:57Z</time></trkpt>
<trkpt lat="28.88295" lon="98.648274">
<time>2016-10-07T12:42:58Z</time></trkpt>
<trkpt lat="28.88306" lon="98.648234">
<time>2016-10-07T12:42:59Z</time></trkpt>
<trkpt lat="28.8832" lon="98.648194">
<time>2016-10-07T12:43:00Z</time></trkpt>
<trkpt lat="28.88333" lon="98.648164">
<time>2016-10-07T12:43:01Z</time></trkpt>
<trkpt lat="28.88343" lon="98.648144">
<time>2016-10-07T12:43:02Z</time></trkpt>
<trkpt lat="28.88355" lon="98.648124">
<time>2016-10-07T12:43:03Z</time></trkpt>
<trkpt lat="28.883659" lon="98.648104">
<time>2016-10-07T12:43:04Z</time></trkpt>
<trkpt lat="28.883769" lon="98.648094">
<time>2016-10-07T12:43:05Z</time></trkpt>
<trkpt lat="28.883939" lon="98.648074">
<time>2016-10-07T12:43:06Z</time></trkpt>
<trkpt lat="28.884199" lon="98.648044">
<time>2016-10-07T12:43:07Z</time></trkpt>
<trkpt lat="28.884359" lon="98.648024">
<time>2016-10-07T12:43:08Z</time></trkpt>
<trkpt lat="28.884459" lon="98.648014">
<time>2016-10-07T12:43:09Z</time></trkpt>
<trkpt lat="28.884539" lon="98.647994">
<time>2016-10-07T12:43:10Z</time></trkpt>
<trkpt lat="28.884599" lon="98.647984">
<time>2016-10-07T12:43:11Z</time></trkpt>
<trkpt lat="28.884649" lon="98.647964">
<time>2016-10-07T12:43:12Z</time></trkpt>
<trkpt lat="28.884709" lon="98.647954">
<time>2016-10-07T12:43:13Z</time></trkpt>
<trkpt lat="28.884759" lon="98.647934">
<time>2016-10-07T12:43:14Z</time></trkpt>
<trkpt lat="28.885019" lon="98.647835">
<time>2016-10-07T12:43:15Z</time></trkpt>
<trkpt lat="28.885179" lon="98.647765">
<time>2016-10-07T12:43:16Z</time></trkpt>
<trkpt lat="28.885219" lon="98.647755">
<time>2016-10-07T12:43:17Z</time></trkpt>
<trkpt lat="28.885269" lon="98.647735">
<time>2016-10-07T12:43:18Z</time></trkpt>
<trkpt lat="28.885309" lon="98.647735">
<time>2016-10-07T12:43:19Z</time></trkpt>
<trkpt lat="28.885369" lon="98.647715">
<time>2016-10-07T12:43:20Z</time></trkpt>
<trkpt lat="28.885439" lon="98.647695">
<time>2016-10-07T12:43:21Z</time></trkpt>
<trkpt lat="28.885499" lon="98.647675">
<time>2016-10-07T12:43:22Z</time></trkpt>
<trkpt lat="28.885569" lon="98.647655">
<time>2016-10-07T12:43:23Z</time></trkpt>
<trkpt lat="28.885749" lon="98.647595">
<time>2016-10-07T12:43:24Z</time></trkpt>
<trkpt lat="28.885829" lon="98.647565">
<time>2016-10-07T12:43:25Z</time></trkpt>
<trkpt lat="28.885879" lon="98.647545">
<time>2016-10-07T12:43:26Z</time></trkpt>
<trkpt lat="28.885919" lon="98.647525">
<time>2016-10-07T12:43:27Z</time></trkpt>
<trkpt lat="28.885959" lon="98.647495">
<time>2016-10-07T12:43:28Z</time></trkpt>
<trkpt lat="28.885989" lon="98.647465">
<time>2016-10-07T12:43:29Z</time></trkpt>
<trkpt lat="28.886019" lon="98.647436">
<time>2016-10-07T12:43:30Z</time></trkpt>
<trkpt lat="28.886049" lon="98.647416">
<time>2016-10-07T12:43:31Z</time></trkpt>
<trkpt lat="28.886079" lon="98.647396">
<time>2016-10-07T12:43:32Z</time></trkpt>
<trkpt lat="28.886109" lon="98.647366">
<time>2016-10-07T12:43:33Z</time></trkpt>
<trkpt lat="28.886129" lon="98.647356">
<time>2016-10-07T12:43:34Z</time></trkpt>
<trkpt lat="28.886159" lon="98.647346">
<time>2016-10-07T12:43:35Z</time></trkpt>
<trkpt lat="28.886189" lon="98.647336">
<time>2016-10-07T12:43:36Z</time></trkpt>
<trkpt lat="28.886209" lon="98.647326">
<time>2016-10-07T12:43:37Z</time></trkpt>
<trkpt lat="28.886229" lon="98.647326">
<time>2016-10-07T12:43:38Z</time></trkpt>
<trkpt lat="28.886249" lon="98.647326">
<time>2016-10-07T12:43:39Z</time></trkpt>
<trkpt lat="28.886279" lon="98.647316">
<time>2016-10-07T12:43:40Z</time></trkpt>
<trkpt lat="28.886319" lon="98.647316">
<time>2016-10-07T12:43:41Z</time></trkpt>
<trkpt lat="28.886369" lon="98.647306">
<time>2016-10-07T12:43:42Z</time></trkpt>
<trkpt lat="28.886399" lon="98.647306">
<time>2016-10-07T12:43:43Z</time></trkpt>
<trkpt lat="28.886439" lon="98.647296">
<time>2016-10-07T12:43:44Z</time></trkpt>
<trkpt lat="28.886479" lon="98.647286">
<time>2016-10-07T12:43:45Z</time></trkpt>
<trkpt lat="28.886529" lon="98.647276">
<time>2016-10-07T12:43:46Z</time></trkpt>
<trkpt lat="28.886569" lon="98.647266">
<time>2016-10-07T12:43:47Z</time></trkpt>
<trkpt lat="28.886599" lon="98.647266">
<time>2016-10-07T12:43:48Z</time></trkpt>
<trkpt lat="28.886649" lon="98.647256">
<time>2016-10-07T12:43:49Z</time></trkpt>
<trkpt lat="28.886689" lon="98.647256">
<time>2016-10-07T12:43:50Z</time></trkpt>
<trkpt lat="28.886739" lon="98.647246">
<time>2016-10-07T12:43:51Z</time></trkpt>
<trkpt lat="28.886859" lon="98.647236">
<time>2016-10-07T12:43:52Z</time></trkpt>
<trkpt lat="28.887038" lon="98.647206">
<time>2016-10-07T12:43:53Z</time></trkpt>
<trkpt lat="28.887248" lon="98.647186">
<time>2016-10-07T12:43:54Z</time></trkpt>
<trkpt lat="28.888008" lon="98.647096">
<time>2016-10-07T12:43:55Z</time></trkpt>
<trkpt lat="28.888698" lon="98.647017">
<time>2016-10-07T12:43:56Z</time></trkpt>
<trkpt lat="28.889287" lon="98.646957">
<time>2016-10-07T12:43:57Z</time></trkpt>
<trkpt lat="28.889447" lon="98.646937">
<time>2016-10-07T12:43:58Z</time></trkpt>
<trkpt lat="28.889597" lon="98.646927">
<time>2016-10-07T12:43:59Z</time></trkpt>
<trkpt lat="28.889727" lon="98.646927">
<time>2016-10-07T12:44:00Z</time></trkpt>
<trkpt lat="28.889907" lon="98.646927">
<time>2016-10-07T12:44:01Z</time></trkpt>
<trkpt lat="28.890037" lon="98.646927">
<time>2016-10-07T12:44:02Z</time></trkpt>
<trkpt lat="28.890147" lon="98.646927">
<time>2016-10-07T12:44:03Z</time></trkpt>
<trkpt lat="28.890296" lon="98.646937">
<time>2016-10-07T12:44:04Z</time></trkpt>
<trkpt lat="28.890396" lon="98.646947">
<time>2016-10-07T12:44:05Z</time></trkpt>
<trkpt lat="28.890496" lon="98.646947">
<time>2016-10-07T12:44:06Z</time></trkpt>
<trkpt lat="28.890586" lon="98.646947">
<time>2016-10-07T12:44:07Z</time></trkpt>
<trkpt lat="28.890676" lon="98.646937">
<time>2016-10-07T12:44:08Z</time></trkpt>
<trkpt lat="28.890776" lon="98.646917">
<time>2016-10-07T12:44:09Z</time></trkpt>
<trkpt lat="28.890876" lon="98.646887">
<time>2016-10-07T12:44:10Z</time></trkpt>
<trkpt lat="28.890946" lon="98.646857">
<time>2016-10-07T12:44:11Z</time></trkpt>
<trkpt lat="28.891046" lon="98.646807">
<time>2016-10-07T12:44:12Z</time></trkpt>
<trkpt lat="28.891136" lon="98.646757">
<time>2016-10-07T12:44:13Z</time></trkpt>
<trkpt lat="28.891336" lon="98.646667">
<time>2016-10-07T12:44:14Z</time></trkpt>
<trkpt lat="28.891466" lon="98.646598">
<time>2016-10-07T12:44:15Z</time></trkpt>
<trkpt lat="28.891566" lon="98.646548">
<time>2016-10-07T12:44:16Z</time></trkpt>
<trkpt lat="28.891786" lon="98.646458">
<time>2016-10-07T12:44:17Z</time></trkpt>
<trkpt lat="28.891986" lon="98.646368">
<time>2016-10-07T12:44:18Z</time></trkpt>
<trkpt lat="28.892106" lon="98.646308">
<time>2016-10-07T12:44:19Z</time></trkpt>
<trkpt lat="28.892186" lon="98.646268">
<time>2016-10-07T12:44:20Z</time></trkpt>
<trkpt lat="28.892266" lon="98.646228">
<time>2016-10-07T12:44:21Z</time></trkpt>
<trkpt lat="28.892366" lon="98.646159">
<time>2016-10-07T12:44:22Z</time></trkpt>
<trkpt lat="28.893136" lon="98.64565">
<time>2016-10-07T12:44:23Z</time></trkpt>
<trkpt lat="28.894097" lon="98.645001">
<time>2016-10-07T12:44:24Z</time></trkpt>
<trkpt lat="28.894227" lon="98.644912">
<time>2016-10-07T12:44:25Z</time></trkpt>
<trkpt lat="28.894287" lon="98.644882">
<time>2016-10-07T12:44:26Z</time></trkpt>
<trkpt lat="28.894337" lon="98.644862">
<time>2016-10-07T12:44:27Z</time></trkpt>
<trkpt lat="28.894387" lon="98.644852">
<time>2016-10-07T12:44:28Z</time></trkpt>
<trkpt lat="28.894447" lon="98.644842">
<time>2016-10-07T12:44:29Z</time></trkpt>
<trkpt lat="28.894507" lon="98.644832">
<time>2016-10-07T12:44:30Z</time></trkpt>
<trkpt lat="28.894567" lon="98.644842">
<time>2016-10-07T12:44:31Z</time></trkpt>
<trkpt lat="28.894627" lon="98.644852">
<time>2016-10-07T12:44:32Z</time></trkpt>
<trkpt lat="28.894687" lon="98.644862">
<time>2016-10-07T12:44:33Z</time></trkpt>
<trkpt lat="28.894866" lon="98.644912">
<time>2016-10-07T12:44:34Z</time></trkpt>
<trkpt lat="28.895056" lon="98.644952">
<time>2016-10-07T12:44:35Z</time></trkpt>
<trkpt lat="28.895176" lon="98.644972">
<time>2016-10-07T12:44:36Z</time></trkpt>
<trkpt lat="28.895286" lon="98.644991">
<time>2016-10-07T12:44:37Z</time></trkpt>
<trkpt lat="28.895366" lon="98.644991">
<time>2016-10-07T12:44:38Z</time></trkpt>
<trkpt lat="28.895526" lon="98.645001">
<time>2016-10-07T12:44:39Z</time></trkpt>
<trkpt lat="28.895636" lon="98.644991">
<time>2016-10-07T12:44:40Z</time></trkpt>
<trkpt lat="28.895736" lon="98.644991">
<time>2016-10-07T12:44:41Z</time></trkpt>
<trkpt lat="28.895825" lon="98.644981">
<time>2016-10-07T12:44:42Z</time></trkpt>
<trkpt lat="28.895935" lon="98.644962">
<time>2016-10-07T12:44:43Z</time></trkpt>
<trkpt lat="28.896015" lon="98.644942">
<time>2016-10-07T12:44:44Z</time></trkpt>
<trkpt lat="28.896165" lon="98.644902">
<time>2016-10-07T12:44:45Z</time></trkpt>
<trkpt lat="28.896255" lon="98.644872">
<time>2016-10-07T12:44:46Z</time></trkpt>
<trkpt lat="28.896475" lon="98.644812">
<time>2016-10-07T12:44:47Z</time></trkpt>
<trkpt lat="28.896735" lon="98.644732">
<time>2016-10-07T12:44:48Z</time></trkpt>
<trkpt lat="28.896905" lon="98.644692">
<time>2016-10-07T12:44:49Z</time></trkpt>
<trkpt lat="28.897035" lon="98.644652">
<time>2016-10-07T12:44:50Z</time></trkpt>
<trkpt lat="28.897155" lon="98.644612">
<time>2016-10-07T12:44:51Z</time></trkpt>
<trkpt lat="28.897255" lon="98.644592">
<time>2016-10-07T12:44:52Z</time></trkpt>
<trkpt lat="28.897335" lon="98.644582">
<time>2016-10-07T12:44:53Z</time></trkpt>
<trkpt lat="28.897405" lon="98.644582">
<time>2016-10-07T12:44:54Z</time></trkpt>
<trkpt lat="28.897465" lon="98.644582">
<time>2016-10-07T12:44:55Z</time></trkpt>
<trkpt lat="28.897535" lon="98.644592">
<time>2016-10-07T12:44:56Z</time></trkpt>
<trkpt lat="28.897625" lon="98.644612">
<time>2016-10-07T12:44:57Z</time></trkpt>
<trkpt lat="28.897804" lon="98.644662">
<time>2016-10-07T12:44:58Z</time></trkpt>
<trkpt lat="28.898324" lon="98.644822">
<time>2016-10-07T12:44:59Z</time></trkpt>
<trkpt lat="28.898414" lon="98.644852">
<time>2016-10-07T12:45:00Z</time></trkpt>
<trkpt lat="28.898524" lon="98.644892">
<time>2016-10-07T12:45:01Z</time></trkpt>
<trkpt lat="28.898613" lon="98.644932">
<time>2016-10-07T12:45:02Z</time></trkpt>
<trkpt lat="28.898683" lon="98.644971">
<time>2016-10-07T12:45:03Z</time></trkpt>
<trkpt lat="28.898763" lon="98.645021">
<time>2016-10-07T12:45:04Z</time></trkpt>
<trkpt lat="28.898843" lon="98.645081">
<time>2016-10-07T12:45:05Z</time></trkpt>
<trkpt lat="28.898943" lon="98.645161">
<time>2016-10-07T12:45:06Z</time></trkpt>
<trkpt lat="28.899053" lon="98.645261">
<time>2016-10-07T12:45:07Z</time></trkpt>
<trkpt lat="28.899252" lon="98.64543">
<time>2016-10-07T12:45:08Z</time></trkpt>
<trkpt lat="28.899372" lon="98.64554">
<time>2016-10-07T12:45:09Z</time></trkpt>
<trkpt lat="28.899492" lon="98.64566">
<time>2016-10-07T12:45:10Z</time></trkpt>
<trkpt lat="28.899571" lon="98.645759">
<time>2016-10-07T12:45:11Z</time></trkpt>
<trkpt lat="28.899671" lon="98.645879">
<time>2016-10-07T12:45:12Z</time></trkpt>
<trkpt lat="28.8999" lon="98.646168">
<time>2016-10-07T12:45:13Z</time></trkpt>
<trkpt lat="28.90009" lon="98.646428">
<time>2016-10-07T12:45:14Z</time></trkpt>
<trkpt lat="28.900519" lon="98.646976">
<time>2016-10-07T12:45:15Z</time></trkpt>
<trkpt lat="28.900868" lon="98.647445">
<time>2016-10-07T12:45:16Z</time></trkpt>
<trkpt lat="28.900937" lon="98.647535">
<time>2016-10-07T12:45:17Z</time></trkpt>
<trkpt lat="28.900997" lon="98.647625">
<time>2016-10-07T12:45:18Z</time></trkpt>
<trkpt lat="28.901057" lon="98.647715">
<time>2016-10-07T12:45:19Z</time></trkpt>
<trkpt lat="28.901137" lon="98.647834">
<time>2016-10-07T12:45:20Z</time></trkpt>
<trkpt lat="28.901216" lon="98.647974">
<time>2016-10-07T12:45:21Z</time></trkpt>
<trkpt lat="28.901276" lon="98.648104">
<time>2016-10-07T12:45:22Z</time></trkpt>
<trkpt lat="28.901415" lon="98.648403">
<time>2016-10-07T12:45:23Z</time></trkpt>
<trkpt lat="28.901495" lon="98.648562">
<time>2016-10-07T12:45:24Z</time></trkpt>
<trkpt lat="28.901575" lon="98.648702">
<time>2016-10-07T12:45:25Z</time></trkpt>
<trkpt lat="28.901635" lon="98.648812">
<time>2016-10-07T12:45:26Z</time></trkpt>
<trkpt lat="28.901684" lon="98.648892">
<time>2016-10-07T12:45:27Z</time></trkpt>
<trkpt lat="28.901744" lon="98.648981">
<time>2016-10-07T12:45:28Z</time></trkpt>
<trkpt lat="28.901884" lon="98.649201">
<time>2016-10-07T12:45:29Z</time></trkpt>
<trkpt lat="28.902053" lon="98.64948">
<time>2016-10-07T12:45:30Z</time></trkpt>
<trkpt lat="28.902173" lon="98.64967">
<time>2016-10-07T12:45:31Z</time></trkpt>
<trkpt lat="28.902242" lon="98.649779">
<time>2016-10-07T12:45:32Z</time></trkpt>
<trkpt lat="28.902302" lon="98.649889">
<time>2016-10-07T12:45:33Z</time></trkpt>
<trkpt lat="28.902342" lon="98.649979">
<time>2016-10-07T12:45:34Z</time></trkpt>
<trkpt lat="28.902362" lon="98.650029">
<time>2016-10-07T12:45:35Z</time></trkpt>
<trkpt lat="28.902392" lon="98.650099">
<time>2016-10-07T12:45:36Z</time></trkpt>
<trkpt lat="28.902412" lon="98.650168">
<time>2016-10-07T12:45:37Z</time></trkpt>
<trkpt lat="28.902441" lon="98.650288">
<time>2016-10-07T12:45:38Z</time></trkpt>
<trkpt lat="28.902481" lon="98.650498">
<time>2016-10-07T12:45:39Z</time></trkpt>
<trkpt lat="28.90254" lon="98.650827">
<time>2016-10-07T12:45:40Z</time></trkpt>
<trkpt lat="28.90257" lon="98.650996">
<time>2016-10-07T12:45:41Z</time></trkpt>
<trkpt lat="28.90259" lon="98.651126">
<time>2016-10-07T12:45:42Z</time></trkpt>
<trkpt lat="28.90262" lon="98.651226">
<time>2016-10-07T12:45:43Z</time></trkpt>
<trkpt lat="28.902649" lon="98.651325">
<time>2016-10-07T12:45:44Z</time></trkpt>
<trkpt lat="28.902679" lon="98.651415">
<time>2016-10-07T12:45:45Z</time></trkpt>
<trkpt lat="28.902709" lon="98.651485">
<time>2016-10-07T12:45:46Z</time></trkpt>
<trkpt lat="28.902769" lon="98.651605">
<time>2016-10-07T12:45:47Z</time></trkpt>
<trkpt lat="28.902888" lon="98.651824">
<time>2016-10-07T12:45:48Z</time></trkpt>
<trkpt lat="28.902988" lon="98.651994">
<time>2016-10-07T12:45:49Z</time></trkpt>
<trkpt lat="28.903058" lon="98.652103">
<time>2016-10-07T12:45:50Z</time></trkpt>
<trkpt lat="28.903108" lon="98.652183">
<time>2016-10-07T12:45:51Z</time></trkpt>
<trkpt lat="28.903157" lon="98.652253">
<time>2016-10-07T12:45:52Z</time></trkpt>
<trkpt lat="28.903217" lon="98.652333">
<time>2016-10-07T12:45:53Z</time></trkpt>
<trkpt lat="28.903277" lon="98.652393">
<time>2016-10-07T12:45:54Z</time></trkpt>
<trkpt lat="28.903317" lon="98.652433">
<time>2016-10-07T12:45:55Z</time></trkpt>
<trkpt lat="28.903357" lon="98.652472">
<time>2016-10-07T12:45:56Z</time></trkpt>
<trkpt lat="28.903447" lon="98.652552">
<time>2016-10-07T12:45:57Z</time></trkpt>
<trkpt lat="28.903556" lon="98.652632">
<time>2016-10-07T12:45:58Z</time></trkpt>
<trkpt lat="28.903776" lon="98.652802">
<time>2016-10-07T12:45:59Z</time></trkpt>
<trkpt lat="28.904075" lon="98.653041">
<time>2016-10-07T12:46:00Z</time></trkpt>
<trkpt lat="28.904265" lon="98.653191">
<time>2016-10-07T12:46:01Z</time></trkpt>
<trkpt lat="28.904385" lon="98.65328">
<time>2016-10-07T12:46:02Z</time></trkpt>
<trkpt lat="28.904514" lon="98.65337">
<time>2016-10-07T12:46:03Z</time></trkpt>
<trkpt lat="28.904584" lon="98.65342">
<time>2016-10-07T12:46:04Z</time></trkpt>
<trkpt lat="28.904684" lon="98.65347">
<time>2016-10-07T12:46:05Z</time></trkpt>
<trkpt lat="28.904784" lon="98.65351">
<time>2016-10-07T12:46:06Z</time></trkpt>
<trkpt lat="28.904864" lon="98.65354">
<time>2016-10-07T12:46:07Z</time></trkpt>
<trkpt lat="28.904984" lon="98.65357">
<time>2016-10-07T12:46:08Z</time></trkpt>
<trkpt lat="28.905064" lon="98.653599">
<time>2016-10-07T12:46:09Z</time></trkpt>
<trkpt lat="28.905133" lon="98.653619">
<time>2016-10-07T12:46:10Z</time></trkpt>
<trkpt lat="28.905213" lon="98.653659">
<time>2016-10-07T12:46:11Z</time></trkpt>
<trkpt lat="28.905283" lon="98.653699">
<time>2016-10-07T12:46:12Z</time></trkpt>
<trkpt lat="28.905353" lon="98.653739">
<time>2016-10-07T12:46:13Z</time></trkpt>
<trkpt lat="28.905463" lon="98.653809">
<time>2016-10-07T12:46:14Z</time></trkpt>
<trkpt lat="28.905583" lon="98.653899">
<time>2016-10-07T12:46:15Z</time></trkpt>
<trkpt lat="28.905702" lon="98.653968">
<time>2016-10-07T12:46:16Z</time></trkpt>
<trkpt lat="28.905762" lon="98.654008">
<time>2016-10-07T12:46:17Z</time></trkpt>
<trkpt lat="28.905812" lon="98.654028">
<time>2016-10-07T12:46:18Z</time></trkpt>
<trkpt lat="28.905862" lon="98.654058">
<time>2016-10-07T12:46:19Z</time></trkpt>
<trkpt lat="28.905932" lon="98.654078">
<time>2016-10-07T12:46:20Z</time></trkpt>
<trkpt lat="28.906012" lon="98.654108">
<time>2016-10-07T12:46:21Z</time></trkpt>
<trkpt lat="28.906092" lon="98.654118">
<time>2016-10-07T12:46:22Z</time></trkpt>
<trkpt lat="28.906162" lon="98.654128">
<time>2016-10-07T12:46:23Z</time></trkpt>
<trkpt lat="28.906242" lon="98.654128">
<time>2016-10-07T12:46:24Z</time></trkpt>
<trkpt lat="28.906302" lon="98.654128">
<time>2016-10-07T12:46:25Z</time></trkpt>
<trkpt lat="28.906711" lon="98.654108">
<time>2016-10-07T12:46:26Z</time></trkpt>
<trkpt lat="28.907001" lon="98.654098">
<time>2016-10-07T12:46:27Z</time></trkpt>
<trkpt lat="28.907121" lon="98.654088">
<time>2016-10-07T12:46:28Z</time></trkpt>
<trkpt lat="28.907201" lon="98.654098">
<time>2016-10-07T12:46:29Z</time></trkpt>
<trkpt lat="28.907281" lon="98.654108">
<time>2016-10-07T12:46:30Z</time></trkpt>
<trkpt lat="28.907351" lon="98.654138">
<time>2016-10-07T12:46:31Z</time></trkpt>
<trkpt lat="28.907421" lon="98.654178">
<time>2016-10-07T12:46:32Z</time></trkpt>
<trkpt lat="28.907491" lon="98.654228">
<time>2016-10-07T12:46:33Z</time></trkpt>
<trkpt lat="28.90761" lon="98.654317">
<time>2016-10-07T12:46:34Z</time></trkpt>
<trkpt lat="28.90797" lon="98.654597">
<time>2016-10-07T12:46:35Z</time></trkpt>
<trkpt lat="28.908029" lon="98.654657">
<time>2016-10-07T12:46:36Z</time></trkpt>
<trkpt lat="28.908089" lon="98.654716">
<time>2016-10-07T12:46:37Z</time></trkpt>
<trkpt lat="28.908159" lon="98.654786">
<time>2016-10-07T12:46:38Z</time></trkpt>
<trkpt lat="28.908269" lon="98.654906">
<time>2016-10-07T12:46:39Z</time></trkpt>
<trkpt lat="28.908319" lon="98.654966">
<time>2016-10-07T12:46:40Z</time></trkpt>
<trkpt lat="28.908388" lon="98.655046">
<time>2016-10-07T12:46:41Z</time></trkpt>
<trkpt lat="28.908458" lon="98.655115">
<time>2016-10-07T12:46:42Z</time></trkpt>
<trkpt lat="28.908518" lon="98.655155">
<time>2016-10-07T12:46:43Z</time></trkpt>
<trkpt lat="28.908598" lon="98.655235">
<time>2016-10-07T12:46:44Z</time></trkpt>
<trkpt lat="28.908698" lon="98.655305">
<time>2016-10-07T12:46:45Z</time></trkpt>
<trkpt lat="28.908807" lon="98.655385">
<time>2016-10-07T12:46:46Z</time></trkpt>
<trkpt lat="28.908927" lon="98.655464">
<time>2016-10-07T12:46:47Z</time></trkpt>
<trkpt lat="28.909057" lon="98.655544">
<time>2016-10-07T12:46:48Z</time></trkpt>
<trkpt lat="28.909207" lon="98.655634">
<time>2016-10-07T12:46:49Z</time></trkpt>
<trkpt lat="28.909446" lon="98.655744">
<time>2016-10-07T12:46:50Z</time></trkpt>
<trkpt lat="28.909956" lon="98.655983">
<time>2016-10-07T12:46:51Z</time></trkpt>
<trkpt lat="28.910045" lon="98.656033">
<time>2016-10-07T12:46:52Z</time></trkpt>
<trkpt lat="28.910135" lon="98.656073">
<time>2016-10-07T12:46:53Z</time></trkpt>
<trkpt lat="28.910215" lon="98.656113">
<time>2016-10-07T12:46:54Z</time></trkpt>
<trkpt lat="28.910295" lon="98.656153">
<time>2016-10-07T12:46:55Z</time></trkpt>
<trkpt lat="28.910425" lon="98.656242">
<time>2016-10-07T12:46:56Z</time></trkpt>
<trkpt lat="28.910515" lon="98.656292">
<time>2016-10-07T12:46:57Z</time></trkpt>
<trkpt lat="28.910564" lon="98.656322">
<time>2016-10-07T12:46:58Z</time></trkpt>
<trkpt lat="28.910644" lon="98.656352">
<time>2016-10-07T12:46:59Z</time></trkpt>
<trkpt lat="28.910714" lon="98.656372">
<time>2016-10-07T12:47:00Z</time></trkpt>
<trkpt lat="28.910794" lon="98.656392">
<time>2016-10-07T12:47:01Z</time></trkpt>
<trkpt lat="28.910884" lon="98.656402">
<time>2016-10-07T12:47:02Z</time></trkpt>
<trkpt lat="28.910994" lon="98.656402">
<time>2016-10-07T12:47:03Z</time></trkpt>
<trkpt lat="28.911623" lon="98.656412">
<time>2016-10-07T12:47:04Z</time></trkpt>
<trkpt lat="28.912223" lon="98.656422">
<time>2016-10-07T12:47:05Z</time></trkpt>
<trkpt lat="28.912313" lon="98.656432">
<time>2016-10-07T12:47:06Z</time></trkpt>
<trkpt lat="28.912413" lon="98.656432">
<time>2016-10-07T12:47:07Z</time></trkpt>
<trkpt lat="28.912473" lon="98.656432">
<time>2016-10-07T12:47:08Z</time></trkpt>
<trkpt lat="28.912533" lon="98.656452">
<time>2016-10-07T12:47:09Z</time></trkpt>
<trkpt lat="28.912583" lon="98.656462">
<time>2016-10-07T12:47:10Z</time></trkpt>
<trkpt lat="28.912623" lon="98.656482">
<time>2016-10-07T12:47:11Z</time></trkpt>
<trkpt lat="28.912662" lon="98.656512">
<time>2016-10-07T12:47:12Z</time></trkpt>
<trkpt lat="28.912692" lon="98.656532">
<time>2016-10-07T12:47:13Z</time></trkpt>
<trkpt lat="28.912732" lon="98.656561">
<time>2016-10-07T12:47:14Z</time></trkpt>
<trkpt lat="28.912772" lon="98.656591">
<time>2016-10-07T12:47:15Z</time></trkpt>
<trkpt lat="28.912822" lon="98.656641">
<time>2016-10-07T12:47:16Z</time></trkpt>
<trkpt lat="28.912862" lon="98.656701">
<time>2016-10-07T12:47:17Z</time></trkpt>
<trkpt lat="28.912922" lon="98.656761">
<time>2016-10-07T12:47:18Z</time></trkpt>
<trkpt lat="28.912972" lon="98.656821">
<time>2016-10-07T12:47:19Z</time></trkpt>
<trkpt lat="28.913032" lon="98.656871">
<time>2016-10-07T12:47:20Z</time></trkpt>
<trkpt lat="28.913091" lon="98.65693">
<time>2016-10-07T12:47:21Z</time></trkpt>
<trkpt lat="28.913151" lon="98.65699">
<time>2016-10-07T12:47:22Z</time></trkpt>
<trkpt lat="28.913201" lon="98.65702">
<time>2016-10-07T12:47:23Z</time></trkpt>
<trkpt lat="28.913261" lon="98.65706">
<time>2016-10-07T12:47:24Z</time></trkpt>
<trkpt lat="28.913331" lon="98.6571">
<time>2016-10-07T12:47:25Z</time></trkpt>
<trkpt lat="28.913421" lon="98.65713">
<time>2016-10-07T12:47:26Z</time></trkpt>
<trkpt lat="28.913531" lon="98.65716">
<time>2016-10-07T12:47:27Z</time></trkpt>
<trkpt lat="28.91367" lon="98.65718">
<time>2016-10-07T12:47:28Z</time></trkpt>
<trkpt lat="28.91385" lon="98.65721">
<time>2016-10-07T12:47:29Z</time></trkpt>
<trkpt lat="28.91404" lon="98.65724">
<time>2016-10-07T12:47:30Z</time></trkpt>
<trkpt lat="28.91419" lon="98.65725">
<time>2016-10-07T12:47:31Z</time></trkpt>
<trkpt lat="28.91429" lon="98.65726">
<time>2016-10-07T12:47:32Z</time></trkpt>
<trkpt lat="28.91437" lon="98.65726">
<time>2016-10-07T12:47:33Z</time></trkpt>
<trkpt lat="28.91443" lon="98.65724">
<time>2016-10-07T12:47:34Z</time></trkpt>
<trkpt lat="28.91448" lon="98.65723">
<time>2016-10-07T12:47:35Z</time></trkpt>
<trkpt lat="28.91456" lon="98.6572">
<time>2016-10-07T12:47:36Z</time></trkpt>
<trkpt lat="28.91462" lon="98.65716">
<time>2016-10-07T12:47:37Z</time></trkpt>
<trkpt lat="28.91468" lon="98.65713">
<time>2016-10-07T12:47:38Z</time></trkpt>
<trkpt lat="28.91476" lon="98.65708">
<time>2016-10-07T12:47:39Z</time></trkpt>
<trkpt lat="28.91484" lon="98.65703">
<time>2016-10-07T12:47:40Z</time></trkpt>
<trkpt lat="28.91492" lon="98.65696">
<time>2016-10-07T12:47:41Z</time></trkpt>
<trkpt lat="28.915" lon="98.656891">
<time>2016-10-07T12:47:42Z</time></trkpt>
<trkpt lat="28.91506" lon="98.656821">
<time>2016-10-07T12:47:43Z</time></trkpt>
<trkpt lat="28.91511" lon="98.656751">
<time>2016-10-07T12:47:44Z</time></trkpt>
<trkpt lat="28.91516" lon="98.656681">
<time>2016-10-07T12:47:45Z</time></trkpt>
<trkpt lat="28.91524" lon="98.656551">
<time>2016-10-07T12:47:46Z</time></trkpt>
<trkpt lat="28.915291" lon="98.656462">
<time>2016-10-07T12:47:47Z</time></trkpt>
<trkpt lat="28.915331" lon="98.656392">
<time>2016-10-07T12:47:48Z</time></trkpt>
<trkpt lat="28.915391" lon="98.656312">
<time>2016-10-07T12:47:49Z</time></trkpt>
<trkpt lat="28.915441" lon="98.656252">
<time>2016-10-07T12:47:50Z</time></trkpt>
<trkpt lat="28.915501" lon="98.656192">
<time>2016-10-07T12:47:51Z</time></trkpt>
<trkpt lat="28.915571" lon="98.656113">
<time>2016-10-07T12:47:52Z</time></trkpt>
<trkpt lat="28.915641" lon="98.656053">
<time>2016-10-07T12:47:53Z</time></trkpt>
<trkpt lat="28.915691" lon="98.656003">
<time>2016-10-07T12:47:54Z</time></trkpt>
<trkpt lat="28.915741" lon="98.655943">
<time>2016-10-07T12:47:55Z</time></trkpt>
<trkpt lat="28.915781" lon="98.655903">
<time>2016-10-07T12:47:56Z</time></trkpt>
<trkpt lat="28.915841" lon="98.655823">
<time>2016-10-07T12:47:57Z</time></trkpt>
<trkpt lat="28.915901" lon="98.655744">
<time>2016-10-07T12:47:58Z</time></trkpt>
<trkpt lat="28.915962" lon="98.655644">
<time>2016-10-07T12:47:59Z</time></trkpt>
<trkpt lat="28.916012" lon="98.655544">
<time>2016-10-07T12:48:00Z</time></trkpt>
<trkpt lat="28.916072" lon="98.655434">
<time>2016-10-07T12:48:01Z</time></trkpt>
<trkpt lat="28.916122" lon="98.655335">
<time>2016-10-07T12:48:02Z</time></trkpt>
<trkpt lat="28.916252" lon="98.655045">
<time>2016-10-07T12:48:03Z</time></trkpt>
<trkpt lat="28.916383" lon="98.654746">
<time>2016-10-07T12:48:04Z</time></trkpt>
<trkpt lat="28.916443" lon="98.654617">
<time>2016-10-07T12:48:05Z</time></trkpt>
<trkpt lat="28.916483" lon="98.654517">
<time>2016-10-07T12:48:06Z</time></trkpt>
<trkpt lat="28.916533" lon="98.654377">
<time>2016-10-07T12:48:07Z</time></trkpt>
<trkpt lat="28.916584" lon="98.654218">
<time>2016-10-07T12:48:08Z</time></trkpt>
<trkpt lat="28.916624" lon="98.654078">
<time>2016-10-07T12:48:09Z</time></trkpt>
<trkpt lat="28.916654" lon="98.653888">
<time>2016-10-07T12:48:10Z</time></trkpt>
<trkpt lat="28.916684" lon="98.653739">
<time>2016-10-07T12:48:11Z</time></trkpt>
<trkpt lat="28.916695" lon="98.653629">
<time>2016-10-07T12:48:12Z</time></trkpt>
<trkpt lat="28.916705" lon="98.653579">
<time>2016-10-07T12:48:13Z</time></trkpt>
<trkpt lat="28.916715" lon="98.653529">
<time>2016-10-07T12:48:14Z</time></trkpt>
<trkpt lat="28.916715" lon="98.653499">
<time>2016-10-07T12:48:15Z</time></trkpt>
<trkpt lat="28.916715" lon="98.65345">
<time>2016-10-07T12:48:16Z</time></trkpt>
<trkpt lat="28.916725" lon="98.6534">
<time>2016-10-07T12:48:17Z</time></trkpt>
<trkpt lat="28.916725" lon="98.65335">
<time>2016-10-07T12:48:18Z</time></trkpt>
<trkpt lat="28.916725" lon="98.65331">
<time>2016-10-07T12:48:19Z</time></trkpt>
<trkpt lat="28.916725" lon="98.65327">
<time>2016-10-07T12:48:20Z</time></trkpt>
<trkpt lat="28.916725" lon="98.65322">
<time>2016-10-07T12:48:21Z</time></trkpt>
<trkpt lat="28.916725" lon="98.65317">
<time>2016-10-07T12:48:22Z</time></trkpt>
<trkpt lat="28.916715" lon="98.65313">
<time>2016-10-07T12:48:23Z</time></trkpt>
<trkpt lat="28.916716" lon="98.653101">
<time>2016-10-07T12:48:24Z</time></trkpt>
<trkpt lat="28.916716" lon="98.653051">
<time>2016-10-07T12:48:25Z</time></trkpt>
<trkpt lat="28.916706" lon="98.653001">
<time>2016-10-07T12:48:26Z</time></trkpt>
<trkpt lat="28.916706" lon="98.652971">
<time>2016-10-07T12:48:27Z</time></trkpt>
<trkpt lat="28.916696" lon="98.652891">
<time>2016-10-07T12:48:28Z</time></trkpt>
<trkpt lat="28.916676" lon="98.652771">
<time>2016-10-07T12:48:29Z</time></trkpt>
<trkpt lat="28.916666" lon="98.652672">
<time>2016-10-07T12:48:30Z</time></trkpt>
<trkpt lat="28.916637" lon="98.652502">
<time>2016-10-07T12:48:31Z</time></trkpt>
<trkpt lat="28.916607" lon="98.652283">
<time>2016-10-07T12:48:32Z</time></trkpt>
<trkpt lat="28.916568" lon="98.651914">
<time>2016-10-07T12:48:33Z</time></trkpt>
<trkpt lat="28.916519" lon="98.651425">
<time>2016-10-07T12:48:34Z</time></trkpt>
<trkpt lat="28.916479" lon="98.650946">
<time>2016-10-07T12:48:35Z</time></trkpt>
<trkpt lat="28.91643" lon="98.650557">
<time>2016-10-07T12:48:36Z</time></trkpt>
<trkpt lat="28.91642" lon="98.650408">
<time>2016-10-07T12:48:37Z</time></trkpt>
<trkpt lat="28.916411" lon="98.650328">
<time>2016-10-07T12:48:38Z</time></trkpt>
<trkpt lat="28.916411" lon="98.650268">
<time>2016-10-07T12:48:39Z</time></trkpt>
<trkpt lat="28.916411" lon="98.650208">
<time>2016-10-07T12:48:40Z</time></trkpt>
<trkpt lat="28.916421" lon="98.650138">
<time>2016-10-07T12:48:41Z</time></trkpt>
<trkpt lat="28.916431" lon="98.650078">
<time>2016-10-07T12:48:42Z</time></trkpt>
<trkpt lat="28.916451" lon="98.649979">
<time>2016-10-07T12:48:43Z</time></trkpt>
<trkpt lat="28.916471" lon="98.649899">
<time>2016-10-07T12:48:44Z</time></trkpt>
<trkpt lat="28.916481" lon="98.649839">
<time>2016-10-07T12:48:45Z</time></trkpt>
<trkpt lat="28.916512" lon="98.649779">
<time>2016-10-07T12:48:46Z</time></trkpt>
<trkpt lat="28.916542" lon="98.649699">
<time>2016-10-07T12:48:47Z</time></trkpt>
<trkpt lat="28.916572" lon="98.64963">
<time>2016-10-07T12:48:48Z</time></trkpt>
<trkpt lat="28.916602" lon="98.64955">
<time>2016-10-07T12:48:49Z</time></trkpt>
<trkpt lat="28.916632" lon="98.64946">
<time>2016-10-07T12:48:50Z</time></trkpt>
<trkpt lat="28.916672" lon="98.64938">
<time>2016-10-07T12:48:51Z</time></trkpt>
<trkpt lat="28.916702" lon="98.64929">
<time>2016-10-07T12:48:52Z</time></trkpt>
<trkpt lat="28.916792" lon="98.649091">
<time>2016-10-07T12:48:53Z</time></trkpt>
<trkpt lat="28.916813" lon="98.649041">
<time>2016-10-07T12:48:54Z</time></trkpt>
<trkpt lat="28.916843" lon="98.649001">
<time>2016-10-07T12:48:55Z</time></trkpt>
<trkpt lat="28.916863" lon="98.648961">
<time>2016-10-07T12:48:56Z</time></trkpt>
<trkpt lat="28.916893" lon="98.648921">
<time>2016-10-07T12:48:57Z</time></trkpt>
<trkpt lat="28.916933" lon="98.648881">
<time>2016-10-07T12:48:58Z</time></trkpt>
<trkpt lat="28.916973" lon="98.648842">
<time>2016-10-07T12:48:59Z</time></trkpt>
<trkpt lat="28.917033" lon="98.648812">
<time>2016-10-07T12:49:00Z</time></trkpt>
<trkpt lat="28.917083" lon="98.648782">
<time>2016-10-07T12:49:01Z</time></trkpt>
<trkpt lat="28.917123" lon="98.648772">
<time>2016-10-07T12:49:02Z</time></trkpt>
<trkpt lat="28.917173" lon="98.648752">
<time>2016-10-07T12:49:03Z</time></trkpt>
<trkpt lat="28.917213" lon="98.648742">
<time>2016-10-07T12:49:04Z</time></trkpt>
<trkpt lat="28.917263" lon="98.648732">
<time>2016-10-07T12:49:05Z</time></trkpt>
<trkpt lat="28.917333" lon="98.648712">
<time>2016-10-07T12:49:06Z</time></trkpt>
<trkpt lat="28.917433" lon="98.648702">
<time>2016-10-07T12:49:07Z</time></trkpt>
<trkpt lat="28.917683" lon="98.648662">
<time>2016-10-07T12:49:08Z</time></trkpt>
<trkpt lat="28.917822" lon="98.648642">
<time>2016-10-07T12:49:09Z</time></trkpt>
<trkpt lat="28.917982" lon="98.648612">
<time>2016-10-07T12:49:10Z</time></trkpt>
<trkpt lat="28.918072" lon="98.648602">
<time>2016-10-07T12:49:11Z</time></trkpt>
<trkpt lat="28.918192" lon="98.648582">
<time>2016-10-07T12:49:12Z</time></trkpt>
<trkpt lat="28.918302" lon="98.648572">
<time>2016-10-07T12:49:13Z</time></trkpt>
<trkpt lat="28.918392" lon="98.648572">
<time>2016-10-07T12:49:14Z</time></trkpt>
<trkpt lat="28.918452" lon="98.648582">
<time>2016-10-07T12:49:15Z</time></trkpt>
<trkpt lat="28.918502" lon="98.648582">
<time>2016-10-07T12:49:16Z</time></trkpt>
<trkpt lat="28.918562" lon="98.648602">
<time>2016-10-07T12:49:17Z</time></trkpt>
<trkpt lat="28.918622" lon="98.648612">
<time>2016-10-07T12:49:18Z</time></trkpt>
<trkpt lat="28.918682" lon="98.648632">
<time>2016-10-07T12:49:19Z</time></trkpt>
<trkpt lat="28.918752" lon="98.648652">
<time>2016-10-07T12:49:20Z</time></trkpt>
<trkpt lat="28.918852" lon="98.648702">
<time>2016-10-07T12:49:21Z</time></trkpt>
<trkpt lat="28.919011" lon="98.648782">
<time>2016-10-07T12:49:22Z</time></trkpt>
<trkpt lat="28.919151" lon="98.648841">
<time>2016-10-07T12:49:23Z</time></trkpt>
<trkpt lat="28.919401" lon="98.648961">
<time>2016-10-07T12:49:24Z</time></trkpt>
<trkpt lat="28.91965" lon="98.649071">
<time>2016-10-07T12:49:25Z</time></trkpt>
<trkpt lat="28.92003" lon="98.64925">
<time>2016-10-07T12:49:26Z</time></trkpt>
<trkpt lat="28.920389" lon="98.64942">
<time>2016-10-07T12:49:27Z</time></trkpt>
<trkpt lat="28.920559" lon="98.64951">
<time>2016-10-07T12:49:28Z</time></trkpt>
<trkpt lat="28.920699" lon="98.6496">
<time>2016-10-07T12:49:29Z</time></trkpt>
<trkpt lat="28.920828" lon="98.649689">
<time>2016-10-07T12:49:30Z</time></trkpt>
<trkpt lat="28.920938" lon="98.649779">
<time>2016-10-07T12:49:31Z</time></trkpt>
<trkpt lat="28.921038" lon="98.649869">
<time>2016-10-07T12:49:32Z</time></trkpt>
<trkpt lat="28.921148" lon="98.649969">
<time>2016-10-07T12:49:33Z</time></trkpt>
<trkpt lat="28.921317" lon="98.650128">
<time>2016-10-07T12:49:34Z</time></trkpt>
<trkpt lat="28.921477" lon="98.650278">
<time>2016-10-07T12:49:35Z</time></trkpt>
<trkpt lat="28.921656" lon="98.650457">
<time>2016-10-07T12:49:36Z</time></trkpt>
<trkpt lat="28.921756" lon="98.650547">
<time>2016-10-07T12:49:37Z</time></trkpt>
<trkpt lat="28.921846" lon="98.650627">
<time>2016-10-07T12:49:38Z</time></trkpt>
<trkpt lat="28.921946" lon="98.650717">
<time>2016-10-07T12:49:39Z</time></trkpt>
<trkpt lat="28.922035" lon="98.650786">
<time>2016-10-07T12:49:40Z</time></trkpt>
<trkpt lat="28.922175" lon="98.650876">
<time>2016-10-07T12:49:41Z</time></trkpt>
<trkpt lat="28.922305" lon="98.650956">
<time>2016-10-07T12:49:42Z</time></trkpt>
<trkpt lat="28.922415" lon="98.651016">
<time>2016-10-07T12:49:43Z</time></trkpt>
<trkpt lat="28.922555" lon="98.651076">
<time>2016-10-07T12:49:44Z</time></trkpt>
<trkpt lat="28.922814" lon="98.651195">
<time>2016-10-07T12:49:45Z</time></trkpt>
<trkpt lat="28.922994" lon="98.651275">
<time>2016-10-07T12:49:46Z</time></trkpt>
<trkpt lat="28.923363" lon="98.651445">
<time>2016-10-07T12:49:47Z</time></trkpt>
<trkpt lat="28.923563" lon="98.651534">
<time>2016-10-07T12:49:48Z</time></trkpt>
<trkpt lat="28.923763" lon="98.651624">
<time>2016-10-07T12:49:49Z</time></trkpt>
<trkpt lat="28.923952" lon="98.651714">
<time>2016-10-07T12:49:50Z</time></trkpt>
<trkpt lat="28.924062" lon="98.651774">
<time>2016-10-07T12:49:51Z</time></trkpt>
<trkpt lat="28.924152" lon="98.651834">
<time>2016-10-07T12:49:52Z</time></trkpt>
<trkpt lat="28.924232" lon="98.651884">
<time>2016-10-07T12:49:53Z</time></trkpt>
<trkpt lat="28.924322" lon="98.651963">
<time>2016-10-07T12:49:54Z</time></trkpt>
<trkpt lat="28.924421" lon="98.652043">
<time>2016-10-07T12:49:55Z</time></trkpt>
<trkpt lat="28.924541" lon="98.652163">
<time>2016-10-07T12:49:56Z</time></trkpt>
<trkpt lat="28.924631" lon="98.652243">
<time>2016-10-07T12:49:57Z</time></trkpt>
<trkpt lat="28.924751" lon="98.652362">
<time>2016-10-07T12:49:58Z</time></trkpt>
<trkpt lat="28.92494" lon="98.652532">
<time>2016-10-07T12:49:59Z</time></trkpt>
<trkpt lat="28.92515" lon="98.652741">
<time>2016-10-07T12:50:00Z</time></trkpt>
<trkpt lat="28.925249" lon="98.652831">
<time>2016-10-07T12:50:01Z</time></trkpt>
<trkpt lat="28.925349" lon="98.652921">
<time>2016-10-07T12:50:02Z</time></trkpt>
<trkpt lat="28.925459" lon="98.653011">
<time>2016-10-07T12:50:03Z</time></trkpt>
<trkpt lat="28.925619" lon="98.65314">
<time>2016-10-07T12:50:04Z</time></trkpt>
<trkpt lat="28.925778" lon="98.65326">
<time>2016-10-07T12:50:05Z</time></trkpt>
<trkpt lat="28.925848" lon="98.65331">
<time>2016-10-07T12:50:06Z</time></trkpt>
<trkpt lat="28.925908" lon="98.65334">
<time>2016-10-07T12:50:07Z</time></trkpt>
<trkpt lat="28.925978" lon="98.65337">
<time>2016-10-07T12:50:08Z</time></trkpt>
<trkpt lat="28.926058" lon="98.6534">
<time>2016-10-07T12:50:09Z</time></trkpt>
<trkpt lat="28.926138" lon="98.65343">
<time>2016-10-07T12:50:10Z</time></trkpt>
<trkpt lat="28.926277" lon="98.653469">
<time>2016-10-07T12:50:11Z</time></trkpt>
<trkpt lat="28.926437" lon="98.653519">
<time>2016-10-07T12:50:12Z</time></trkpt>
<trkpt lat="28.926527" lon="98.653539">
<time>2016-10-07T12:50:13Z</time></trkpt>
<trkpt lat="28.926637" lon="98.653579">
<time>2016-10-07T12:50:14Z</time></trkpt>
<trkpt lat="28.926687" lon="98.653599">
<time>2016-10-07T12:50:15Z</time></trkpt>
<trkpt lat="28.926717" lon="98.653619">
<time>2016-10-07T12:50:16Z</time></trkpt>
<trkpt lat="28.926747" lon="98.653639">
<time>2016-10-07T12:50:17Z</time></trkpt>
<trkpt lat="28.926777" lon="98.653669">
<time>2016-10-07T12:50:18Z</time></trkpt>
<trkpt lat="28.926797" lon="98.653699">
<time>2016-10-07T12:50:19Z</time></trkpt>
<trkpt lat="28.926827" lon="98.653729">
<time>2016-10-07T12:50:20Z</time></trkpt>
<trkpt lat="28.926846" lon="98.653769">
<time>2016-10-07T12:50:21Z</time></trkpt>
<trkpt lat="28.926876" lon="98.653809">
<time>2016-10-07T12:50:22Z</time></trkpt>
<trkpt lat="28.926896" lon="98.653858">
<time>2016-10-07T12:50:23Z</time></trkpt>
<trkpt lat="28.926926" lon="98.653918">
<time>2016-10-07T12:50:24Z</time></trkpt>
<trkpt lat="28.926976" lon="98.654028">
<time>2016-10-07T12:50:25Z</time></trkpt>
<trkpt lat="28.927016" lon="98.654098">
<time>2016-10-07T12:50:26Z</time></trkpt>
<trkpt lat="28.927066" lon="98.654168">
<time>2016-10-07T12:50:27Z</time></trkpt>
<trkpt lat="28.927125" lon="98.654237">
<time>2016-10-07T12:50:28Z</time></trkpt>
<trkpt lat="28.927195" lon="98.654317">
<time>2016-10-07T12:50:29Z</time></trkpt>
<trkpt lat="28.927275" lon="98.654387">
<time>2016-10-07T12:50:30Z</time></trkpt>
<trkpt lat="28.927345" lon="98.654437">
<time>2016-10-07T12:50:31Z</time></trkpt>
<trkpt lat="28.927395" lon="98.654467">
<time>2016-10-07T12:50:32Z</time></trkpt>
<trkpt lat="28.927465" lon="98.654507">
<time>2016-10-07T12:50:33Z</time></trkpt>
<trkpt lat="28.927564" lon="98.654557">
<time>2016-10-07T12:50:34Z</time></trkpt>
<trkpt lat="28.927624" lon="98.654586">
<time>2016-10-07T12:50:35Z</time></trkpt>
<trkpt lat="28.927674" lon="98.654616">
<time>2016-10-07T12:50:36Z</time></trkpt>
<trkpt lat="28.927724" lon="98.654646">
<time>2016-10-07T12:50:37Z</time></trkpt>
<trkpt lat="28.927764" lon="98.654676">
<time>2016-10-07T12:50:38Z</time></trkpt>
<trkpt lat="28.927804" lon="98.654706">
<time>2016-10-07T12:50:39Z</time></trkpt>
<trkpt lat="28.927864" lon="98.654746">
<time>2016-10-07T12:50:40Z</time></trkpt>
<trkpt lat="28.927904" lon="98.654786">
<time>2016-10-07T12:50:41Z</time></trkpt>
<trkpt lat="28.927944" lon="98.654826">
<time>2016-10-07T12:50:42Z</time></trkpt>
<trkpt lat="28.928004" lon="98.654876">
<time>2016-10-07T12:50:43Z</time></trkpt>
<trkpt lat="28.928043" lon="98.654936">
<time>2016-10-07T12:50:44Z</time></trkpt>
<trkpt lat="28.928093" lon="98.654995">
<time>2016-10-07T12:50:45Z</time></trkpt>
<trkpt lat="28.928133" lon="98.655055">
<time>2016-10-07T12:50:46Z</time></trkpt>
<trkpt lat="28.928173" lon="98.655125">
<time>2016-10-07T12:50:47Z</time></trkpt>
<trkpt lat="28.928213" lon="98.655195">
<time>2016-10-07T12:50:48Z</time></trkpt>
<trkpt lat="28.928253" lon="98.655265">
<time>2016-10-07T12:50:49Z</time></trkpt>
<trkpt lat="28.928282" lon="98.655354">
<time>2016-10-07T12:50:50Z</time></trkpt>
<trkpt lat="28.928322" lon="98.655444">
<time>2016-10-07T12:50:51Z</time></trkpt>
<trkpt lat="28.928382" lon="98.655614">
<time>2016-10-07T12:50:52Z</time></trkpt>
<trkpt lat="28.928491" lon="98.655903">
<time>2016-10-07T12:50:53Z</time></trkpt>
<trkpt lat="28.928591" lon="98.656182">
<time>2016-10-07T12:50:54Z</time></trkpt>
<trkpt lat="28.928631" lon="98.656292">
<time>2016-10-07T12:50:55Z</time></trkpt>
<trkpt lat="28.92867" lon="98.656372">
<time>2016-10-07T12:50:56Z</time></trkpt>
<trkpt lat="28.92872" lon="98.656461">
<time>2016-10-07T12:50:57Z</time></trkpt>
<trkpt lat="28.92878" lon="98.656571">
<time>2016-10-07T12:50:58Z</time></trkpt>
<trkpt lat="28.92886" lon="98.656681">
<time>2016-10-07T12:50:59Z</time></trkpt>
<trkpt lat="28.928959" lon="98.65682">
<time>2016-10-07T12:51:00Z</time></trkpt>
<trkpt lat="28.929049" lon="98.65693">
<time>2016-10-07T12:51:01Z</time></trkpt>
<trkpt lat="28.929149" lon="98.65703">
<time>2016-10-07T12:51:02Z</time></trkpt>
<trkpt lat="28.929239" lon="98.6571">
<time>2016-10-07T12:51:03Z</time></trkpt>
<trkpt lat="28.929348" lon="98.657189">
<time>2016-10-07T12:51:04Z</time></trkpt>
<trkpt lat="28.929568" lon="98.657349">
<time>2016-10-07T12:51:05Z</time></trkpt>
<trkpt lat="28.929787" lon="98.657499">
<time>2016-10-07T12:51:06Z</time></trkpt>
<trkpt lat="28.930057" lon="98.657688">
<time>2016-10-07T12:51:07Z</time></trkpt>
<trkpt lat="28.930346" lon="98.657888">
<time>2016-10-07T12:51:08Z</time></trkpt>
<trkpt lat="28.930626" lon="98.658067">
<time>2016-10-07T12:51:09Z</time></trkpt>
<trkpt lat="28.930965" lon="98.658296">
<time>2016-10-07T12:51:10Z</time></trkpt>
<trkpt lat="28.931135" lon="98.658396">
<time>2016-10-07T12:51:11Z</time></trkpt>
<trkpt lat="28.931235" lon="98.658456">
<time>2016-10-07T12:51:12Z</time></trkpt>
<trkpt lat="28.931354" lon="98.658506">
<time>2016-10-07T12:51:13Z</time></trkpt>
<trkpt lat="28.931474" lon="98.658566">
<time>2016-10-07T12:51:14Z</time></trkpt>
<trkpt lat="28.931634" lon="98.658616">
<time>2016-10-07T12:51:15Z</time></trkpt>
<trkpt lat="28.931764" lon="98.658646">
<time>2016-10-07T12:51:16Z</time></trkpt>
<trkpt lat="28.931894" lon="98.658665">
<time>2016-10-07T12:51:17Z</time></trkpt>
<trkpt lat="28.932004" lon="98.658675">
<time>2016-10-07T12:51:18Z</time></trkpt>
<trkpt lat="28.932233" lon="98.658685">
<time>2016-10-07T12:51:19Z</time></trkpt>
<trkpt lat="28.932473" lon="98.658685">
<time>2016-10-07T12:51:20Z</time></trkpt>
<trkpt lat="28.932653" lon="98.658675">
<time>2016-10-07T12:51:21Z</time></trkpt>
<trkpt lat="28.932783" lon="98.658655">
<time>2016-10-07T12:51:22Z</time></trkpt>
<trkpt lat="28.932863" lon="98.658646">
<time>2016-10-07T12:51:23Z</time></trkpt>
<trkpt lat="28.932943" lon="98.658626">
<time>2016-10-07T12:51:24Z</time></trkpt>
<trkpt lat="28.933013" lon="98.658606">
<time>2016-10-07T12:51:25Z</time></trkpt>
<trkpt lat="28.933093" lon="98.658586">
<time>2016-10-07T12:51:26Z</time></trkpt>
<trkpt lat="28.933193" lon="98.658546">
<time>2016-10-07T12:51:27Z</time></trkpt>
<trkpt lat="28.933313" lon="98.658496">
<time>2016-10-07T12:51:28Z</time></trkpt>
<trkpt lat="28.933413" lon="98.658446">
<time>2016-10-07T12:51:29Z</time></trkpt>
<trkpt lat="28.933513" lon="98.658396">
<time>2016-10-07T12:51:30Z</time></trkpt>
<trkpt lat="28.933653" lon="98.658316">
<time>2016-10-07T12:51:31Z</time></trkpt>
<trkpt lat="28.933733" lon="98.658257">
<time>2016-10-07T12:51:32Z</time></trkpt>
<trkpt lat="28.933833" lon="98.658187">
<time>2016-10-07T12:51:33Z</time></trkpt>
<trkpt lat="28.933903" lon="98.658127">
<time>2016-10-07T12:51:34Z</time></trkpt>
<trkpt lat="28.933973" lon="98.658067">
<time>2016-10-07T12:51:35Z</time></trkpt>
<trkpt lat="28.934063" lon="98.657987">
<time>2016-10-07T12:51:36Z</time></trkpt>
<trkpt lat="28.934133" lon="98.657907">
<time>2016-10-07T12:51:37Z</time></trkpt>
<trkpt lat="28.934183" lon="98.657838">
<time>2016-10-07T12:51:38Z</time></trkpt>
<trkpt lat="28.934233" lon="98.657768">
<time>2016-10-07T12:51:39Z</time></trkpt>
<trkpt lat="28.934274" lon="98.657698">
<time>2016-10-07T12:51:40Z</time></trkpt>
<trkpt lat="28.934304" lon="98.657628">
<time>2016-10-07T12:51:41Z</time></trkpt>
<trkpt lat="28.934344" lon="98.657548">
<time>2016-10-07T12:51:42Z</time></trkpt>
<trkpt lat="28.934394" lon="98.657439">
<time>2016-10-07T12:51:43Z</time></trkpt>
<trkpt lat="28.934454" lon="98.657299">
<time>2016-10-07T12:51:44Z</time></trkpt>
<trkpt lat="28.934524" lon="98.65713">
<time>2016-10-07T12:51:45Z</time></trkpt>
<trkpt lat="28.934565" lon="98.65701">
<time>2016-10-07T12:51:46Z</time></trkpt>
<trkpt lat="28.934605" lon="98.65694">
<time>2016-10-07T12:51:47Z</time></trkpt>
<trkpt lat="28.934645" lon="98.65686">
<time>2016-10-07T12:51:48Z</time></trkpt>
<trkpt lat="28.934675" lon="98.65681">
<time>2016-10-07T12:51:49Z</time></trkpt>
<trkpt lat="28.934705" lon="98.656761">
<time>2016-10-07T12:51:50Z</time></trkpt>
<trkpt lat="28.934745" lon="98.656711">
<time>2016-10-07T12:51:51Z</time></trkpt>
<trkpt lat="28.934795" lon="98.656661">
<time>2016-10-07T12:51:52Z</time></trkpt>
<trkpt lat="28.934835" lon="98.656611">
<time>2016-10-07T12:51:53Z</time></trkpt>
<trkpt lat="28.934915" lon="98.656541">
<time>2016-10-07T12:51:54Z</time></trkpt>
<trkpt lat="28.934985" lon="98.656471">
<time>2016-10-07T12:51:55Z</time></trkpt>
<trkpt lat="28.935025" lon="98.656421">
<time>2016-10-07T12:51:56Z</time></trkpt>
<trkpt lat="28.935065" lon="98.656372">
<time>2016-10-07T12:51:57Z</time></trkpt>
<trkpt lat="28.935115" lon="98.656322">
<time>2016-10-07T12:51:58Z</time></trkpt>
<trkpt lat="28.935146" lon="98.656262">
<time>2016-10-07T12:51:59Z</time></trkpt>
<trkpt lat="28.935176" lon="98.656212">
<time>2016-10-07T12:52:00Z</time></trkpt>
<trkpt lat="28.935206" lon="98.656172">
<time>2016-10-07T12:52:01Z</time></trkpt>
<trkpt lat="28.935226" lon="98.656112">
<time>2016-10-07T12:52:02Z</time></trkpt>
<trkpt lat="28.935256" lon="98.656052">
<time>2016-10-07T12:52:03Z</time></trkpt>
<trkpt lat="28.935276" lon="98.656003">
<time>2016-10-07T12:52:04Z</time></trkpt>
<trkpt lat="28.935296" lon="98.655943">
<time>2016-10-07T12:52:05Z</time></trkpt>
<trkpt lat="28.935316" lon="98.655873">
<time>2016-10-07T12:52:06Z</time></trkpt>
<trkpt lat="28.935336" lon="98.655783">
<time>2016-10-07T12:52:07Z</time></trkpt>
<trkpt lat="28.935356" lon="98.655703">
<time>2016-10-07T12:52:08Z</time></trkpt>
<trkpt lat="28.935367" lon="98.655604">
<time>2016-10-07T12:52:09Z</time></trkpt>
<trkpt lat="28.935387" lon="98.655504">
<time>2016-10-07T12:52:10Z</time></trkpt>
<trkpt lat="28.935397" lon="98.655404">
<time>2016-10-07T12:52:11Z</time></trkpt>
<trkpt lat="28.935397" lon="98.655304">
<time>2016-10-07T12:52:12Z</time></trkpt>
<trkpt lat="28.935397" lon="98.655205">
<time>2016-10-07T12:52:13Z</time></trkpt>
<trkpt lat="28.935397" lon="98.655145">
<time>2016-10-07T12:52:14Z</time></trkpt>
<trkpt lat="28.935388" lon="98.654856">
<time>2016-10-07T12:52:15Z</time></trkpt>
<trkpt lat="28.935378" lon="98.654656">
<time>2016-10-07T12:52:16Z</time></trkpt>
<trkpt lat="28.935369" lon="98.654477">
<time>2016-10-07T12:52:17Z</time></trkpt>
<trkpt lat="28.935329" lon="98.653978">
<time>2016-10-07T12:52:18Z</time></trkpt>
<trkpt lat="28.93531" lon="98.653489">
<time>2016-10-07T12:52:19Z</time></trkpt>
<trkpt lat="28.935301" lon="98.65324">
<time>2016-10-07T12:52:20Z</time></trkpt>
<trkpt lat="28.935281" lon="98.65306">
<time>2016-10-07T12:52:21Z</time></trkpt>
<trkpt lat="28.935271" lon="98.652911">
<time>2016-10-07T12:52:22Z</time></trkpt>
<trkpt lat="28.935242" lon="98.652621">
<time>2016-10-07T12:52:23Z</time></trkpt>
<trkpt lat="28.935232" lon="98.652522">
<time>2016-10-07T12:52:24Z</time></trkpt>
<trkpt lat="28.935212" lon="98.652422">
<time>2016-10-07T12:52:25Z</time></trkpt>
<trkpt lat="28.935173" lon="98.652242">
<time>2016-10-07T12:52:26Z</time></trkpt>
<trkpt lat="28.935143" lon="98.652073">
<time>2016-10-07T12:52:27Z</time></trkpt>
<trkpt lat="28.935093" lon="98.651893">
<time>2016-10-07T12:52:28Z</time></trkpt>
<trkpt lat="28.935064" lon="98.651764">
<time>2016-10-07T12:52:29Z</time></trkpt>
<trkpt lat="28.935024" lon="98.651614">
<time>2016-10-07T12:52:30Z</time></trkpt>
<trkpt lat="28.934974" lon="98.651484">
<time>2016-10-07T12:52:31Z</time></trkpt>
<trkpt lat="28.934934" lon="98.651365">
<time>2016-10-07T12:52:32Z</time></trkpt>
<trkpt lat="28.934895" lon="98.651265">
<time>2016-10-07T12:52:33Z</time></trkpt>
<trkpt lat="28.934845" lon="98.651165">
<time>2016-10-07T12:52:34Z</time></trkpt>
<trkpt lat="28.934795" lon="98.651066">
<time>2016-10-07T12:52:35Z</time></trkpt>
<trkpt lat="28.934666" lon="98.650846">
<time>2016-10-07T12:52:36Z</time></trkpt>
<trkpt lat="28.934446" lon="98.650467">
<time>2016-10-07T12:52:37Z</time></trkpt>
<trkpt lat="28.934397" lon="98.650397">
<time>2016-10-07T12:52:38Z</time></trkpt>
<trkpt lat="28.934367" lon="98.650327">
<time>2016-10-07T12:52:39Z</time></trkpt>
<trkpt lat="28.934337" lon="98.650278">
<time>2016-10-07T12:52:40Z</time></trkpt>
<trkpt lat="28.934317" lon="98.650238">
<time>2016-10-07T12:52:41Z</time></trkpt>
<trkpt lat="28.934297" lon="98.650188">
<time>2016-10-07T12:52:42Z</time></trkpt>
<trkpt lat="28.934287" lon="98.650148">
<time>2016-10-07T12:52:43Z</time></trkpt>
<trkpt lat="28.934267" lon="98.650108">
<time>2016-10-07T12:52:44Z</time></trkpt>
<trkpt lat="28.934257" lon="98.650048">
<time>2016-10-07T12:52:45Z</time></trkpt>
<trkpt lat="28.934237" lon="98.649998">
<time>2016-10-07T12:52:46Z</time></trkpt>
<trkpt lat="28.934237" lon="98.649938">
<time>2016-10-07T12:52:47Z</time></trkpt>
<trkpt lat="28.934228" lon="98.649859">
<time>2016-10-07T12:52:48Z</time></trkpt>
<trkpt lat="28.934208" lon="98.649759">
<time>2016-10-07T12:52:49Z</time></trkpt>
<trkpt lat="28.934188" lon="98.649589">
<time>2016-10-07T12:52:50Z</time></trkpt>
<trkpt lat="28.934169" lon="98.64935">
<time>2016-10-07T12:52:51Z</time></trkpt>
<trkpt lat="28.93411" lon="98.648722">
<time>2016-10-07T12:52:52Z</time></trkpt>
<trkpt lat="28.9341" lon="98.648592">
<time>2016-10-07T12:52:53Z</time></trkpt>
<trkpt lat="28.9341" lon="98.648492">
<time>2016-10-07T12:52:54Z</time></trkpt>
<trkpt lat="28.93409" lon="98.648412">
<time>2016-10-07T12:52:55Z</time></trkpt>
<trkpt lat="28.9341" lon="98.648352">
<time>2016-10-07T12:52:56Z</time></trkpt>
<trkpt lat="28.9341" lon="98.648283">
<time>2016-10-07T12:52:57Z</time></trkpt>
<trkpt lat="28.934111" lon="98.648233">
<time>2016-10-07T12:52:58Z</time></trkpt>
<trkpt lat="28.934121" lon="98.648183">
<time>2016-10-07T12:52:59Z</time></trkpt>
<trkpt lat="28.934131" lon="98.648133">
<time>2016-10-07T12:53:00Z</time></trkpt>
<trkpt lat="28.934151" lon="98.648063">
<time>2016-10-07T12:53:01Z</time></trkpt>
<trkpt lat="28.934171" lon="98.648003">
<time>2016-10-07T12:53:02Z</time></trkpt>
<trkpt lat="28.934201" lon="98.647914">
<time>2016-10-07T12:53:03Z</time></trkpt>
<trkpt lat="28.934231" lon="98.647834">
<time>2016-10-07T12:53:04Z</time></trkpt>
<trkpt lat="28.934271" lon="98.647744">
<time>2016-10-07T12:53:05Z</time></trkpt>
<trkpt lat="28.934321" lon="98.647634">
<time>2016-10-07T12:53:06Z</time></trkpt>
<trkpt lat="28.934381" lon="98.647535">
<time>2016-10-07T12:53:07Z</time></trkpt>
<trkpt lat="28.934432" lon="98.647465">
<time>2016-10-07T12:53:08Z</time></trkpt>
<trkpt lat="28.934492" lon="98.647375">
<time>2016-10-07T12:53:09Z</time></trkpt>
<trkpt lat="28.934662" lon="98.647165">
<time>2016-10-07T12:53:10Z</time></trkpt>
<trkpt lat="28.934862" lon="98.646926">
<time>2016-10-07T12:53:11Z</time></trkpt>
<trkpt lat="28.935072" lon="98.646657">
<time>2016-10-07T12:53:12Z</time></trkpt>
<trkpt lat="28.935183" lon="98.646527">
<time>2016-10-07T12:53:13Z</time></trkpt>
<trkpt lat="28.935313" lon="98.646387">
<time>2016-10-07T12:53:14Z</time></trkpt>
<trkpt lat="28.935493" lon="98.646198">
<time>2016-10-07T12:53:15Z</time></trkpt>
<trkpt lat="28.935653" lon="98.646058">
<time>2016-10-07T12:53:16Z</time></trkpt>
<trkpt lat="28.935893" lon="98.645849">
<time>2016-10-07T12:53:17Z</time></trkpt>
<trkpt lat="28.936173" lon="98.645599">
<time>2016-10-07T12:53:18Z</time></trkpt>
<trkpt lat="28.936504" lon="98.64531">
<time>2016-10-07T12:53:19Z</time></trkpt>
<trkpt lat="28.936694" lon="98.64515">
<time>2016-10-07T12:53:20Z</time></trkpt>
<trkpt lat="28.936794" lon="98.645071">
<time>2016-10-07T12:53:21Z</time></trkpt>
<trkpt lat="28.936914" lon="98.644971">
<time>2016-10-07T12:53:22Z</time></trkpt>
<trkpt lat="28.937024" lon="98.644891">
<time>2016-10-07T12:53:23Z</time></trkpt>
<trkpt lat="28.937124" lon="98.644821">
<time>2016-10-07T12:53:24Z</time></trkpt>
<trkpt lat="28.937214" lon="98.644771">
<time>2016-10-07T12:53:25Z</time></trkpt>
<trkpt lat="28.937294" lon="98.644731">
<time>2016-10-07T12:53:26Z</time></trkpt>
<trkpt lat="28.937384" lon="98.644691">
<time>2016-10-07T12:53:27Z</time></trkpt>
<trkpt lat="28.937584" lon="98.644602">
<time>2016-10-07T12:53:28Z</time></trkpt>
<trkpt lat="28.937764" lon="98.644522">
<time>2016-10-07T12:53:29Z</time></trkpt>
<trkpt lat="28.937894" lon="98.644472">
<time>2016-10-07T12:53:30Z</time></trkpt>
<trkpt lat="28.938044" lon="98.644432">
<time>2016-10-07T12:53:31Z</time></trkpt>
<trkpt lat="28.938164" lon="98.644402">
<time>2016-10-07T12:53:32Z</time></trkpt>
<trkpt lat="28.938284" lon="98.644372">
<time>2016-10-07T12:53:33Z</time></trkpt>
<trkpt lat="28.938494" lon="98.644342">
<time>2016-10-07T12:53:34Z</time></trkpt>
<trkpt lat="28.938863" lon="98.644272">
<time>2016-10-07T12:53:35Z</time></trkpt>
<trkpt lat="28.939143" lon="98.644223">
<time>2016-10-07T12:53:36Z</time></trkpt>
<trkpt lat="28.939353" lon="98.644173">
<time>2016-10-07T12:53:37Z</time></trkpt>
<trkpt lat="28.939643" lon="98.644113">
<time>2016-10-07T12:53:38Z</time></trkpt>
<trkpt lat="28.940163" lon="98.643963">
<time>2016-10-07T12:53:39Z</time></trkpt>
<trkpt lat="28.940553" lon="98.643843">
<time>2016-10-07T12:53:40Z</time></trkpt>
<trkpt lat="28.940713" lon="98.643784">
<time>2016-10-07T12:53:41Z</time></trkpt>
<trkpt lat="28.940803" lon="98.643754">
<time>2016-10-07T12:53:42Z</time></trkpt>
<trkpt lat="28.940893" lon="98.643714">
<time>2016-10-07T12:53:43Z</time></trkpt>
<trkpt lat="28.940973" lon="98.643674">
<time>2016-10-07T12:53:44Z</time></trkpt>
<trkpt lat="28.941083" lon="98.643624">
<time>2016-10-07T12:53:45Z</time></trkpt>
<trkpt lat="28.941203" lon="98.643584">
<time>2016-10-07T12:53:46Z</time></trkpt>
<trkpt lat="28.941263" lon="98.643564">
<time>2016-10-07T12:53:47Z</time></trkpt>
<trkpt lat="28.941313" lon="98.643554">
<time>2016-10-07T12:53:48Z</time></trkpt>
<trkpt lat="28.941383" lon="98.643534">
<time>2016-10-07T12:53:49Z</time></trkpt>
<trkpt lat="28.941453" lon="98.643524">
<time>2016-10-07T12:53:50Z</time></trkpt>
<trkpt lat="28.941563" lon="98.643514">
<time>2016-10-07T12:53:51Z</time></trkpt>
<trkpt lat="28.941662" lon="98.643504">
<time>2016-10-07T12:53:52Z</time></trkpt>
<trkpt lat="28.941762" lon="98.643494">
<time>2016-10-07T12:53:53Z</time></trkpt>
<trkpt lat="28.941852" lon="98.643474">
<time>2016-10-07T12:53:54Z</time></trkpt>
<trkpt lat="28.941932" lon="98.643444">
<time>2016-10-07T12:53:55Z</time></trkpt>
<trkpt lat="28.942032" lon="98.643414">
<time>2016-10-07T12:53:56Z</time></trkpt>
<trkpt lat="28.942192" lon="98.643345">
<time>2016-10-07T12:53:57Z</time></trkpt>
<trkpt lat="28.942352" lon="98.643285">
<time>2016-10-07T12:53:58Z</time></trkpt>
<trkpt lat="28.942572" lon="98.643205">
<time>2016-10-07T12:53:59Z</time></trkpt>
<trkpt lat="28.942792" lon="98.643115">
<time>2016-10-07T12:54:00Z</time></trkpt>
<trkpt lat="28.942982" lon="98.643035">
<time>2016-10-07T12:54:01Z</time></trkpt>
<trkpt lat="28.943162" lon="98.642966">
<time>2016-10-07T12:54:02Z</time></trkpt>
<trkpt lat="28.943322" lon="98.642906">
<time>2016-10-07T12:54:03Z</time></trkpt>
<trkpt lat="28.943462" lon="98.642856">
<time>2016-10-07T12:54:04Z</time></trkpt>
<trkpt lat="28.943572" lon="98.642806">
<time>2016-10-07T12:54:05Z</time></trkpt>
<trkpt lat="28.943632" lon="98.642776">
<time>2016-10-07T12:54:06Z</time></trkpt>
<trkpt lat="28.943702" lon="98.642726">
<time>2016-10-07T12:54:07Z</time></trkpt>
<trkpt lat="28.943792" lon="98.642656">
<time>2016-10-07T12:54:08Z</time></trkpt>
<trkpt lat="28.943892" lon="98.642586">
<time>2016-10-07T12:54:09Z</time></trkpt>
<trkpt lat="28.944012" lon="98.642477">
<time>2016-10-07T12:54:10Z</time></trkpt>
<trkpt lat="28.944072" lon="98.642427">
<time>2016-10-07T12:54:11Z</time></trkpt>
<trkpt lat="28.944142" lon="98.642367">
<time>2016-10-07T12:54:12Z</time></trkpt>
<trkpt lat="28.944182" lon="98.642317">
<time>2016-10-07T12:54:13Z</time></trkpt>
<trkpt lat="28.944222" lon="98.642277">
<time>2016-10-07T12:54:14Z</time></trkpt>
<trkpt lat="28.944242" lon="98.642237">
<time>2016-10-07T12:54:15Z</time></trkpt>
<trkpt lat="28.944273" lon="98.642197">
<time>2016-10-07T12:54:16Z</time></trkpt>
<trkpt lat="28.944303" lon="98.642147">
<time>2016-10-07T12:54:17Z</time></trkpt>
<trkpt lat="28.944333" lon="98.642088">
<time>2016-10-07T12:54:18Z</time></trkpt>
<trkpt lat="28.944363" lon="98.642008">
<time>2016-10-07T12:54:19Z</time></trkpt>
<trkpt lat="28.944383" lon="98.641928">
<time>2016-10-07T12:54:20Z</time></trkpt>
<trkpt lat="28.944423" lon="98.641798">
<time>2016-10-07T12:54:21Z</time></trkpt>
<trkpt lat="28.944463" lon="98.641629">
<time>2016-10-07T12:54:22Z</time></trkpt>
<trkpt lat="28.944503" lon="98.641509">
<time>2016-10-07T12:54:23Z</time></trkpt>
<trkpt lat="28.944544" lon="98.641379">
<time>2016-10-07T12:54:24Z</time></trkpt>
<trkpt lat="28.944564" lon="98.641309">
<time>2016-10-07T12:54:25Z</time></trkpt>
<trkpt lat="28.944594" lon="98.64124">
<time>2016-10-07T12:54:26Z</time></trkpt>
<trkpt lat="28.944634" lon="98.64115">
<time>2016-10-07T12:54:27Z</time></trkpt>
<trkpt lat="28.944734" lon="98.64095">
<time>2016-10-07T12:54:28Z</time></trkpt>
<trkpt lat="28.944904" lon="98.640631">
<time>2016-10-07T12:54:29Z</time></trkpt>
<trkpt lat="28.945005" lon="98.640431">
<time>2016-10-07T12:54:30Z</time></trkpt>
<trkpt lat="28.945055" lon="98.640322">
<time>2016-10-07T12:54:31Z</time></trkpt>
<trkpt lat="28.945085" lon="98.640232">
<time>2016-10-07T12:54:32Z</time></trkpt>
<trkpt lat="28.945115" lon="98.640152">
<time>2016-10-07T12:54:33Z</time></trkpt>
<trkpt lat="28.945135" lon="98.640052">
<time>2016-10-07T12:54:34Z</time></trkpt>
<trkpt lat="28.945165" lon="98.639943">
<time>2016-10-07T12:54:35Z</time></trkpt>
<trkpt lat="28.945185" lon="98.639823">
<time>2016-10-07T12:54:36Z</time></trkpt>
<trkpt lat="28.945206" lon="98.639673">
<time>2016-10-07T12:54:37Z</time></trkpt>
<trkpt lat="28.945256" lon="98.639344">
<time>2016-10-07T12:54:38Z</time></trkpt>
<trkpt lat="28.945276" lon="98.639174">
<time>2016-10-07T12:54:39Z</time></trkpt>
<trkpt lat="28.945287" lon="98.639055">
<time>2016-10-07T12:54:40Z</time></trkpt>
<trkpt lat="28.945287" lon="98.638965">
<time>2016-10-07T12:54:41Z</time></trkpt>
<trkpt lat="28.945277" lon="98.638835">
<time>2016-10-07T12:54:42Z</time></trkpt>
<trkpt lat="28.945257" lon="98.638695">
<time>2016-10-07T12:54:43Z</time></trkpt>
<trkpt lat="28.945217" lon="98.638516">
<time>2016-10-07T12:54:44Z</time></trkpt>
<trkpt lat="28.945138" lon="98.638147">
<time>2016-10-07T12:54:45Z</time></trkpt>
<trkpt lat="28.945079" lon="98.637827">
<time>2016-10-07T12:54:46Z</time></trkpt>
<trkpt lat="28.945019" lon="98.637528">
<time>2016-10-07T12:54:47Z</time></trkpt>
<trkpt lat="28.944999" lon="98.637319">
<time>2016-10-07T12:54:48Z</time></trkpt>
<trkpt lat="28.94498" lon="98.637119">
<time>2016-10-07T12:54:49Z</time></trkpt>
<trkpt lat="28.94497" lon="98.637029">
<time>2016-10-07T12:54:50Z</time></trkpt>
<trkpt lat="28.94496" lon="98.636949">
<time>2016-10-07T12:54:51Z</time></trkpt>
<trkpt lat="28.94495" lon="98.63687">
<time>2016-10-07T12:54:52Z</time></trkpt>
<trkpt lat="28.94491" lon="98.63671">
<time>2016-10-07T12:54:53Z</time></trkpt>
<trkpt lat="28.944831" lon="98.636441">
<time>2016-10-07T12:54:54Z</time></trkpt>
<trkpt lat="28.944483" lon="98.635293">
<time>2016-10-07T12:54:55Z</time></trkpt>
<trkpt lat="28.944403" lon="98.635034">
<time>2016-10-07T12:54:56Z</time></trkpt>
<trkpt lat="28.944383" lon="98.634954">
<time>2016-10-07T12:54:57Z</time></trkpt>
<trkpt lat="28.944363" lon="98.634864">
<time>2016-10-07T12:54:58Z</time></trkpt>
<trkpt lat="28.944344" lon="98.634774">
<time>2016-10-07T12:54:59Z</time></trkpt>
<trkpt lat="28.944334" lon="98.634704">
<time>2016-10-07T12:55:00Z</time></trkpt>
<trkpt lat="28.944314" lon="98.634605">
<time>2016-10-07T12:55:01Z</time></trkpt>
<trkpt lat="28.944314" lon="98.634545">
<time>2016-10-07T12:55:02Z</time></trkpt>
<trkpt lat="28.944304" lon="98.634485">
<time>2016-10-07T12:55:03Z</time></trkpt>
<trkpt lat="28.944304" lon="98.634425">
<time>2016-10-07T12:55:04Z</time></trkpt>
<trkpt lat="28.944294" lon="98.634365">
<time>2016-10-07T12:55:05Z</time></trkpt>
<trkpt lat="28.944304" lon="98.634325">
<time>2016-10-07T12:55:06Z</time></trkpt>
<trkpt lat="28.944304" lon="98.634285">
<time>2016-10-07T12:55:07Z</time></trkpt>
<trkpt lat="28.944324" lon="98.634235">
<time>2016-10-07T12:55:08Z</time></trkpt>
<trkpt lat="28.944334" lon="98.634195">
<time>2016-10-07T12:55:09Z</time></trkpt>
<trkpt lat="28.944354" lon="98.634155">
<time>2016-10-07T12:55:10Z</time></trkpt>
<trkpt lat="28.944374" lon="98.634116">
<time>2016-10-07T12:55:11Z</time></trkpt>
<trkpt lat="28.944435" lon="98.634016">
<time>2016-10-07T12:55:12Z</time></trkpt>
<trkpt lat="28.944485" lon="98.633956">
<time>2016-10-07T12:55:13Z</time></trkpt>
<trkpt lat="28.944595" lon="98.633816">
<time>2016-10-07T12:55:14Z</time></trkpt>
<trkpt lat="28.944775" lon="98.633577">
<time>2016-10-07T12:55:15Z</time></trkpt>
<trkpt lat="28.944935" lon="98.633397">
<time>2016-10-07T12:55:16Z</time></trkpt>
<trkpt lat="28.945065" lon="98.633247">
<time>2016-10-07T12:55:17Z</time></trkpt>
<trkpt lat="28.945165" lon="98.633158">
<time>2016-10-07T12:55:18Z</time></trkpt>
<trkpt lat="28.945255" lon="98.633088">
<time>2016-10-07T12:55:19Z</time></trkpt>
<trkpt lat="28.945435" lon="98.632928">
<time>2016-10-07T12:55:20Z</time></trkpt>
<trkpt lat="28.945745" lon="98.632669">
<time>2016-10-07T12:55:21Z</time></trkpt>
<trkpt lat="28.945825" lon="98.632599">
<time>2016-10-07T12:55:22Z</time></trkpt>
<trkpt lat="28.945915" lon="98.632529">
<time>2016-10-07T12:55:23Z</time></trkpt>
<trkpt lat="28.946065" lon="98.632439">
<time>2016-10-07T12:55:24Z</time></trkpt>
<trkpt lat="28.946155" lon="98.632369">
<time>2016-10-07T12:55:25Z</time></trkpt>
<trkpt lat="28.946205" lon="98.632329">
<time>2016-10-07T12:55:26Z</time></trkpt>
<trkpt lat="28.946255" lon="98.632289">
<time>2016-10-07T12:55:27Z</time></trkpt>
<trkpt lat="28.946295" lon="98.632249">
<time>2016-10-07T12:55:28Z</time></trkpt>
<trkpt lat="28.946325" lon="98.63221">
<time>2016-10-07T12:55:29Z</time></trkpt>
<trkpt lat="28.946365" lon="98.63217">
<time>2016-10-07T12:55:30Z</time></trkpt>
<trkpt lat="28.946436" lon="98.63208">
<time>2016-10-07T12:55:31Z</time></trkpt>
<trkpt lat="28.946526" lon="98.63196">
<time>2016-10-07T12:55:32Z</time></trkpt>
<trkpt lat="28.946676" lon="98.63178">
<time>2016-10-07T12:55:33Z</time></trkpt>
<trkpt lat="28.946706" lon="98.63174">
<time>2016-10-07T12:55:34Z</time></trkpt>
<trkpt lat="28.946736" lon="98.631711">
<time>2016-10-07T12:55:35Z</time></trkpt>
<trkpt lat="28.946766" lon="98.631681">
<time>2016-10-07T12:55:36Z</time></trkpt>
<trkpt lat="28.946796" lon="98.631661">
<time>2016-10-07T12:55:37Z</time></trkpt>
<trkpt lat="28.946836" lon="98.631631">
<time>2016-10-07T12:55:38Z</time></trkpt>
<trkpt lat="28.946886" lon="98.631611">
<time>2016-10-07T12:55:39Z</time></trkpt>
<trkpt lat="28.946926" lon="98.631591">
<time>2016-10-07T12:55:40Z</time></trkpt>
<trkpt lat="28.946996" lon="98.631561">
<time>2016-10-07T12:55:41Z</time></trkpt>
<trkpt lat="28.947066" lon="98.631541">
<time>2016-10-07T12:55:42Z</time></trkpt>
<trkpt lat="28.947196" lon="98.631521">
<time>2016-10-07T12:55:43Z</time></trkpt>
<trkpt lat="28.947336" lon="98.631501">
<time>2016-10-07T12:55:44Z</time></trkpt>
<trkpt lat="28.947456" lon="98.631481">
<time>2016-10-07T12:55:45Z</time></trkpt>
<trkpt lat="28.947535" lon="98.631481">
<time>2016-10-07T12:55:46Z</time></trkpt>
<trkpt lat="28.947575" lon="98.631471">
<time>2016-10-07T12:55:47Z</time></trkpt>
<trkpt lat="28.947605" lon="98.631481">
<time>2016-10-07T12:55:48Z</time></trkpt>
<trkpt lat="28.947685" lon="98.631481">
<time>2016-10-07T12:55:49Z</time></trkpt>
<trkpt lat="28.947705" lon="98.631501">
<time>2016-10-07T12:55:50Z</time></trkpt>
<trkpt lat="28.947805" lon="98.631521">
<time>2016-10-07T12:55:51Z</time></trkpt>
<trkpt lat="28.947915" lon="98.631561">
<time>2016-10-07T12:55:52Z</time></trkpt>
<trkpt lat="28.948045" lon="98.631611">
<time>2016-10-07T12:55:53Z</time></trkpt>
<trkpt lat="28.948155" lon="98.631641">
<time>2016-10-07T12:55:54Z</time></trkpt>
<trkpt lat="28.948245" lon="98.631671">
<time>2016-10-07T12:55:55Z</time></trkpt>
<trkpt lat="28.948414" lon="98.63171">
<time>2016-10-07T12:55:56Z</time></trkpt>
<trkpt lat="28.948614" lon="98.63175">
<time>2016-10-07T12:55:57Z</time></trkpt>
<trkpt lat="28.948764" lon="98.63177">
<time>2016-10-07T12:55:58Z</time></trkpt>
<trkpt lat="28.948904" lon="98.63181">
<time>2016-10-07T12:55:59Z</time></trkpt>
<trkpt lat="28.948994" lon="98.63184">
<time>2016-10-07T12:56:00Z</time></trkpt>
<trkpt lat="28.949114" lon="98.63189">
<time>2016-10-07T12:56:01Z</time></trkpt>
<trkpt lat="28.949244" lon="98.63195">
<time>2016-10-07T12:56:02Z</time></trkpt>
<trkpt lat="28.949373" lon="98.63201">
<time>2016-10-07T12:56:03Z</time></trkpt>
<trkpt lat="28.949463" lon="98.63206">
<time>2016-10-07T12:56:04Z</time></trkpt>
<trkpt lat="28.949543" lon="98.63211">
<time>2016-10-07T12:56:05Z</time></trkpt>
<trkpt lat="28.949623" lon="98.63218">
<time>2016-10-07T12:56:06Z</time></trkpt>
<trkpt lat="28.949703" lon="98.632239">
<time>2016-10-07T12:56:07Z</time></trkpt>
<trkpt lat="28.949763" lon="98.632289">
<time>2016-10-07T12:56:08Z</time></trkpt>
<trkpt lat="28.949852" lon="98.632369">
<time>2016-10-07T12:56:09Z</time></trkpt>
<trkpt lat="28.949942" lon="98.632469">
<time>2016-10-07T12:56:10Z</time></trkpt>
<trkpt lat="28.950042" lon="98.632579">
<time>2016-10-07T12:56:11Z</time></trkpt>
<trkpt lat="28.950192" lon="98.632758">
<time>2016-10-07T12:56:12Z</time></trkpt>
<trkpt lat="28.950361" lon="98.632958">
<time>2016-10-07T12:56:13Z</time></trkpt>
<trkpt lat="28.950601" lon="98.633247">
<time>2016-10-07T12:56:14Z</time></trkpt>
<trkpt lat="28.95105" lon="98.633766">
<time>2016-10-07T12:56:15Z</time></trkpt>
<trkpt lat="28.951269" lon="98.634046">
<time>2016-10-07T12:56:16Z</time></trkpt>
<trkpt lat="28.951479" lon="98.634325">
<time>2016-10-07T12:56:17Z</time></trkpt>
<trkpt lat="28.951578" lon="98.634445">
<time>2016-10-07T12:56:18Z</time></trkpt>
<trkpt lat="28.951688" lon="98.634584">
<time>2016-10-07T12:56:19Z</time></trkpt>
<trkpt lat="28.951878" lon="98.634794">
<time>2016-10-07T12:56:20Z</time></trkpt>
<trkpt lat="28.951937" lon="98.634874">
<time>2016-10-07T12:56:21Z</time></trkpt>
<trkpt lat="28.951987" lon="98.634934">
<time>2016-10-07T12:56:22Z</time></trkpt>
<trkpt lat="28.952027" lon="98.634994">
<time>2016-10-07T12:56:23Z</time></trkpt>
<trkpt lat="28.952067" lon="98.635053">
<time>2016-10-07T12:56:24Z</time></trkpt>
<trkpt lat="28.952097" lon="98.635133">
<time>2016-10-07T12:56:25Z</time></trkpt>
<trkpt lat="28.952137" lon="98.635213">
<time>2016-10-07T12:56:26Z</time></trkpt>
<trkpt lat="28.952177" lon="98.635343">
<time>2016-10-07T12:56:27Z</time></trkpt>
<trkpt lat="28.952216" lon="98.635463">
<time>2016-10-07T12:56:28Z</time></trkpt>
<trkpt lat="28.952276" lon="98.635602">
<time>2016-10-07T12:56:29Z</time></trkpt>
<trkpt lat="28.952326" lon="98.635722">
<time>2016-10-07T12:56:30Z</time></trkpt>
<trkpt lat="28.952386" lon="98.635852">
<time>2016-10-07T12:56:31Z</time></trkpt>
<trkpt lat="28.952475" lon="98.636031">
<time>2016-10-07T12:56:32Z</time></trkpt>
<trkpt lat="28.952515" lon="98.636111">
<time>2016-10-07T12:56:33Z</time></trkpt>
<trkpt lat="28.952545" lon="98.636191">
<time>2016-10-07T12:56:34Z</time></trkpt>
<trkpt lat="28.952565" lon="98.636251">
<time>2016-10-07T12:56:35Z</time></trkpt>
<trkpt lat="28.952585" lon="98.636321">
<time>2016-10-07T12:56:36Z</time></trkpt>
<trkpt lat="28.952595" lon="98.63639">
<time>2016-10-07T12:56:37Z</time></trkpt>
<trkpt lat="28.952605" lon="98.63647">
<time>2016-10-07T12:56:38Z</time></trkpt>
<trkpt lat="28.952605" lon="98.63656">
<time>2016-10-07T12:56:39Z</time></trkpt>
<trkpt lat="28.952614" lon="98.63664">
<time>2016-10-07T12:56:40Z</time></trkpt>
<trkpt lat="28.952634" lon="98.63671">
<time>2016-10-07T12:56:41Z</time></trkpt>
<trkpt lat="28.952654" lon="98.63678">
<time>2016-10-07T12:56:42Z</time></trkpt>
<trkpt lat="28.952674" lon="98.63683">
<time>2016-10-07T12:56:43Z</time></trkpt>
<trkpt lat="28.952694" lon="98.636889">
<time>2016-10-07T12:56:44Z</time></trkpt>
<trkpt lat="28.952724" lon="98.636959">
<time>2016-10-07T12:56:45Z</time></trkpt>
<trkpt lat="28.952774" lon="98.637039">
<time>2016-10-07T12:56:46Z</time></trkpt>
<trkpt lat="28.952814" lon="98.637089">
<time>2016-10-07T12:56:47Z</time></trkpt>
<trkpt lat="28.952863" lon="98.637149">
<time>2016-10-07T12:56:48Z</time></trkpt>
<trkpt lat="28.952923" lon="98.637199">
<time>2016-10-07T12:56:49Z</time></trkpt>
<trkpt lat="28.952993" lon="98.637249">
<time>2016-10-07T12:56:50Z</time></trkpt>
<trkpt lat="28.953073" lon="98.637288">
<time>2016-10-07T12:56:51Z</time></trkpt>
<trkpt lat="28.953163" lon="98.637318">
<time>2016-10-07T12:56:52Z</time></trkpt>
<trkpt lat="28.953243" lon="98.637338">
<time>2016-10-07T12:56:53Z</time></trkpt>
<trkpt lat="28.953313" lon="98.637338">
<time>2016-10-07T12:56:54Z</time></trkpt>
<trkpt lat="28.953383" lon="98.637338">
<time>2016-10-07T12:56:55Z</time></trkpt>
<trkpt lat="28.953453" lon="98.637338">
<time>2016-10-07T12:56:56Z</time></trkpt>
<trkpt lat="28.953523" lon="98.637318">
<time>2016-10-07T12:56:57Z</time></trkpt>
<trkpt lat="28.953593" lon="98.637298">
<time>2016-10-07T12:56:58Z</time></trkpt>
<trkpt lat="28.953673" lon="98.637259">
<time>2016-10-07T12:56:59Z</time></trkpt>
<trkpt lat="28.953773" lon="98.637209">
<time>2016-10-07T12:57:00Z</time></trkpt>
<trkpt lat="28.953893" lon="98.637139">
<time>2016-10-07T12:57:01Z</time></trkpt>
<trkpt lat="28.954043" lon="98.637059">
<time>2016-10-07T12:57:02Z</time></trkpt>
<trkpt lat="28.954133" lon="98.637019">
<time>2016-10-07T12:57:03Z</time></trkpt>
<trkpt lat="28.954203" lon="98.636989">
<time>2016-10-07T12:57:04Z</time></trkpt>
<trkpt lat="28.954273" lon="98.636959">
<time>2016-10-07T12:57:05Z</time></trkpt>
<trkpt lat="28.954593" lon="98.636849">
<time>2016-10-07T12:57:06Z</time></trkpt>
<trkpt lat="28.954742" lon="98.63681">
<time>2016-10-07T12:57:07Z</time></trkpt>
<trkpt lat="28.954872" lon="98.63676">
<time>2016-10-07T12:57:08Z</time></trkpt>
<trkpt lat="28.954992" lon="98.63672">
<time>2016-10-07T12:57:09Z</time></trkpt>
<trkpt lat="28.955072" lon="98.63668">
<time>2016-10-07T12:57:10Z</time></trkpt>
<trkpt lat="28.955262" lon="98.63662">
<time>2016-10-07T12:57:11Z</time></trkpt>
<trkpt lat="28.955512" lon="98.63654">
<time>2016-10-07T12:57:12Z</time></trkpt>
<trkpt lat="28.955652" lon="98.63649">
<time>2016-10-07T12:57:13Z</time></trkpt>
<trkpt lat="28.955802" lon="98.63645">
<time>2016-10-07T12:57:14Z</time></trkpt>
<trkpt lat="28.955932" lon="98.63641">
<time>2016-10-07T12:57:15Z</time></trkpt>
<trkpt lat="28.956022" lon="98.63639">
<time>2016-10-07T12:57:16Z</time></trkpt>
<trkpt lat="28.956142" lon="98.63636">
<time>2016-10-07T12:57:17Z</time></trkpt>
<trkpt lat="28.956252" lon="98.636351">
<time>2016-10-07T12:57:18Z</time></trkpt>
<trkpt lat="28.956382" lon="98.636341">
<time>2016-10-07T12:57:19Z</time></trkpt>
<trkpt lat="28.956582" lon="98.636341">
<time>2016-10-07T12:57:20Z</time></trkpt>
<trkpt lat="28.956742" lon="98.636341">
<time>2016-10-07T12:57:21Z</time></trkpt>
<trkpt lat="28.956852" lon="98.636331">
<time>2016-10-07T12:57:22Z</time></trkpt>
<trkpt lat="28.956941" lon="98.636331">
<time>2016-10-07T12:57:23Z</time></trkpt>
<trkpt lat="28.957041" lon="98.636311">
<time>2016-10-07T12:57:24Z</time></trkpt>
<trkpt lat="28.957121" lon="98.636291">
<time>2016-10-07T12:57:25Z</time></trkpt>
<trkpt lat="28.957231" lon="98.636271">
<time>2016-10-07T12:57:26Z</time></trkpt>
<trkpt lat="28.957321" lon="98.636251">
<time>2016-10-07T12:57:27Z</time></trkpt>
<trkpt lat="28.957521" lon="98.636201">
<time>2016-10-07T12:57:28Z</time></trkpt>
<trkpt lat="28.957691" lon="98.636171">
<time>2016-10-07T12:57:29Z</time></trkpt>
<trkpt lat="28.957841" lon="98.636141">
<time>2016-10-07T12:57:30Z</time></trkpt>
<trkpt lat="28.957921" lon="98.636121">
<time>2016-10-07T12:57:31Z</time></trkpt>
<trkpt lat="28.958071" lon="98.636101">
<time>2016-10-07T12:57:32Z</time></trkpt>
<trkpt lat="28.958251" lon="98.636071">
<time>2016-10-07T12:57:33Z</time></trkpt>
<trkpt lat="28.958391" lon="98.636061">
<time>2016-10-07T12:57:34Z</time></trkpt>
<trkpt lat="28.958531" lon="98.636041">
<time>2016-10-07T12:57:35Z</time></trkpt>
<trkpt lat="28.958671" lon="98.636021">
<time>2016-10-07T12:57:36Z</time></trkpt>
<trkpt lat="28.95881" lon="98.636001">
<time>2016-10-07T12:57:37Z</time></trkpt>
<trkpt lat="28.95895" lon="98.635971">
<time>2016-10-07T12:57:38Z</time></trkpt>
<trkpt lat="28.95908" lon="98.635931">
<time>2016-10-07T12:57:39Z</time></trkpt>
<trkpt lat="28.95916" lon="98.635911">
<time>2016-10-07T12:57:40Z</time></trkpt>
<trkpt lat="28.95929" lon="98.635872">
<time>2016-10-07T12:57:41Z</time></trkpt>
<trkpt lat="28.95936" lon="98.635842">
<time>2016-10-07T12:57:42Z</time></trkpt>
<trkpt lat="28.95942" lon="98.635822">
<time>2016-10-07T12:57:43Z</time></trkpt>
<trkpt lat="28.95949" lon="98.635792">
<time>2016-10-07T12:57:44Z</time></trkpt>
<trkpt lat="28.95955" lon="98.635762">
<time>2016-10-07T12:57:45Z</time></trkpt>
<trkpt lat="28.95964" lon="98.635702">
<time>2016-10-07T12:57:46Z</time></trkpt>
<trkpt lat="28.95972" lon="98.635642">
<time>2016-10-07T12:57:47Z</time></trkpt>
<trkpt lat="28.95979" lon="98.635592">
<time>2016-10-07T12:57:48Z</time></trkpt>
<trkpt lat="28.95991" lon="98.635522">
<time>2016-10-07T12:57:49Z</time></trkpt>
<trkpt lat="28.96004" lon="98.635432">
<time>2016-10-07T12:57:50Z</time></trkpt>
<trkpt lat="28.96009" lon="98.635403">
<time>2016-10-07T12:57:51Z</time></trkpt>
<trkpt lat="28.96014" lon="98.635363">
<time>2016-10-07T12:57:52Z</time></trkpt>
<trkpt lat="28.9602" lon="98.635323">
<time>2016-10-07T12:57:53Z</time></trkpt>
<trkpt lat="28.96028" lon="98.635263">
<time>2016-10-07T12:57:54Z</time></trkpt>
<trkpt lat="28.96039" lon="98.635163">
<time>2016-10-07T12:57:55Z</time></trkpt>
<trkpt lat="28.96047" lon="98.635083">
<time>2016-10-07T12:57:56Z</time></trkpt>
<trkpt lat="28.960561" lon="98.634983">
<time>2016-10-07T12:57:57Z</time></trkpt>
<trkpt lat="28.960631" lon="98.634884">
<time>2016-10-07T12:57:58Z</time></trkpt>
<trkpt lat="28.960721" lon="98.634744">
<time>2016-10-07T12:57:59Z</time></trkpt>
<trkpt lat="28.960771" lon="98.634654">
<time>2016-10-07T12:58:00Z</time></trkpt>
<trkpt lat="28.960891" lon="98.634445">
<time>2016-10-07T12:58:01Z</time></trkpt>
<trkpt lat="28.960961" lon="98.634305">
<time>2016-10-07T12:58:02Z</time></trkpt>
<trkpt lat="28.961001" lon="98.634225">
<time>2016-10-07T12:58:03Z</time></trkpt>
<trkpt lat="28.961101" lon="98.634025">
<time>2016-10-07T12:58:04Z</time></trkpt>
<trkpt lat="28.961152" lon="98.633916">
<time>2016-10-07T12:58:05Z</time></trkpt>
<trkpt lat="28.961222" lon="98.633766">
<time>2016-10-07T12:58:06Z</time></trkpt>
<trkpt lat="28.961252" lon="98.633666">
<time>2016-10-07T12:58:07Z</time></trkpt>
<trkpt lat="28.961282" lon="98.633566">
<time>2016-10-07T12:58:08Z</time></trkpt>
<trkpt lat="28.961312" lon="98.633417">
<time>2016-10-07T12:58:09Z</time></trkpt>
<trkpt lat="28.961322" lon="98.633287">
<time>2016-10-07T12:58:10Z</time></trkpt>
<trkpt lat="28.961342" lon="98.633177">
<time>2016-10-07T12:58:11Z</time></trkpt>
<trkpt lat="28.961352" lon="98.633097">
<time>2016-10-07T12:58:12Z</time></trkpt>
<trkpt lat="28.961373" lon="98.633008">
<time>2016-10-07T12:58:13Z</time></trkpt>
<trkpt lat="28.961403" lon="98.632928">
<time>2016-10-07T12:58:14Z</time></trkpt>
<trkpt lat="28.961423" lon="98.632858">
<time>2016-10-07T12:58:15Z</time></trkpt>
<trkpt lat="28.961483" lon="98.632718">
<time>2016-10-07T12:58:16Z</time></trkpt>
<trkpt lat="28.961603" lon="98.632459">
<time>2016-10-07T12:58:17Z</time></trkpt>
<trkpt lat="28.961733" lon="98.632189">
<time>2016-10-07T12:58:18Z</time></trkpt>
<trkpt lat="28.961783" lon="98.63208">
<time>2016-10-07T12:58:19Z</time></trkpt>
<trkpt lat="28.961814" lon="98.632">
<time>2016-10-07T12:58:20Z</time></trkpt>
<trkpt lat="28.961844" lon="98.63193">
<time>2016-10-07T12:58:21Z</time></trkpt>
<trkpt lat="28.961864" lon="98.63186">
<time>2016-10-07T12:58:22Z</time></trkpt>
<trkpt lat="28.961904" lon="98.6317">
<time>2016-10-07T12:58:23Z</time></trkpt>
<trkpt lat="28.961984" lon="98.631281">
<time>2016-10-07T12:58:24Z</time></trkpt>
<trkpt lat="28.962045" lon="98.630942">
<time>2016-10-07T12:58:25Z</time></trkpt>
<trkpt lat="28.962095" lon="98.630632">
<time>2016-10-07T12:58:26Z</time></trkpt>
<trkpt lat="28.962135" lon="98.630373">
<time>2016-10-07T12:58:27Z</time></trkpt>
<trkpt lat="28.962156" lon="98.630163">
<time>2016-10-07T12:58:28Z</time></trkpt>
<trkpt lat="28.962166" lon="98.630074">
<time>2016-10-07T12:58:29Z</time></trkpt>
<trkpt lat="28.962196" lon="98.629784">
<time>2016-10-07T12:58:30Z</time></trkpt>
<trkpt lat="28.962226" lon="98.629515">
<time>2016-10-07T12:58:31Z</time></trkpt>
<trkpt lat="28.962247" lon="98.629305">
<time>2016-10-07T12:58:32Z</time></trkpt>
<trkpt lat="28.962267" lon="98.629125">
<time>2016-10-07T12:58:33Z</time></trkpt>
<trkpt lat="28.962307" lon="98.628886">
<time>2016-10-07T12:58:34Z</time></trkpt>
<trkpt lat="28.962347" lon="98.628626">
<time>2016-10-07T12:58:35Z</time></trkpt>
<trkpt lat="28.962388" lon="98.628397">
<time>2016-10-07T12:58:36Z</time></trkpt>
<trkpt lat="28.962438" lon="98.628127">
<time>2016-10-07T12:58:37Z</time></trkpt>
<trkpt lat="28.962488" lon="98.627848">
<time>2016-10-07T12:58:38Z</time></trkpt>
<trkpt lat="28.962528" lon="98.627638">
<time>2016-10-07T12:58:39Z</time></trkpt>
<trkpt lat="28.962579" lon="98.627399">
<time>2016-10-07T12:58:40Z</time></trkpt>
<trkpt lat="28.962599" lon="98.627259">
<time>2016-10-07T12:58:41Z</time></trkpt>
<trkpt lat="28.962609" lon="98.627159">
<time>2016-10-07T12:58:42Z</time></trkpt>
<trkpt lat="28.962619" lon="98.627039">
<time>2016-10-07T12:58:43Z</time></trkpt>
<trkpt lat="28.962629" lon="98.62693">
<time>2016-10-07T12:58:44Z</time></trkpt>
<trkpt lat="28.962629" lon="98.62682">
<time>2016-10-07T12:58:45Z</time></trkpt>
<trkpt lat="28.962639" lon="98.62671">
<time>2016-10-07T12:58:46Z</time></trkpt>
<trkpt lat="28.96264" lon="98.62651">
<time>2016-10-07T12:58:47Z</time></trkpt>
<trkpt lat="28.96265" lon="98.626281">
<time>2016-10-07T12:58:48Z</time></trkpt>
<trkpt lat="28.96264" lon="98.626101">
<time>2016-10-07T12:58:49Z</time></trkpt>
<trkpt lat="28.96264" lon="98.625931">
<time>2016-10-07T12:58:50Z</time></trkpt>
<trkpt lat="28.962631" lon="98.625752">
<time>2016-10-07T12:58:51Z</time></trkpt>
<trkpt lat="28.962621" lon="98.625552">
<time>2016-10-07T12:58:52Z</time></trkpt>
<trkpt lat="28.962611" lon="98.625362">
<time>2016-10-07T12:58:53Z</time></trkpt>
<trkpt lat="28.962601" lon="98.625233">
<time>2016-10-07T12:58:54Z</time></trkpt>
<trkpt lat="28.962601" lon="98.625143">
<time>2016-10-07T12:58:55Z</time></trkpt>
<trkpt lat="28.962601" lon="98.625043">
<time>2016-10-07T12:58:56Z</time></trkpt>
<trkpt lat="28.962601" lon="98.624973">
<time>2016-10-07T12:58:57Z</time></trkpt>
<trkpt lat="28.962601" lon="98.624903">
<time>2016-10-07T12:58:58Z</time></trkpt>
<trkpt lat="28.962612" lon="98.624803">
<time>2016-10-07T12:58:59Z</time></trkpt>
<trkpt lat="28.962622" lon="98.624724">
<time>2016-10-07T12:59:00Z</time></trkpt>
<trkpt lat="28.962662" lon="98.624594">
<time>2016-10-07T12:59:01Z</time></trkpt>
<trkpt lat="28.962722" lon="98.624444">
<time>2016-10-07T12:59:02Z</time></trkpt>
<trkpt lat="28.962822" lon="98.624254">
<time>2016-10-07T12:59:03Z</time></trkpt>
<trkpt lat="28.962892" lon="98.624145">
<time>2016-10-07T12:59:04Z</time></trkpt>
<trkpt lat="28.962992" lon="98.624025">
<time>2016-10-07T12:59:05Z</time></trkpt>
<trkpt lat="28.963082" lon="98.623935">
<time>2016-10-07T12:59:06Z</time></trkpt>
<trkpt lat="28.963162" lon="98.623875">
<time>2016-10-07T12:59:07Z</time></trkpt>
<trkpt lat="28.963252" lon="98.623825">
<time>2016-10-07T12:59:08Z</time></trkpt>
<trkpt lat="28.963352" lon="98.623775">
<time>2016-10-07T12:59:09Z</time></trkpt>
<trkpt lat="28.963472" lon="98.623705">
<time>2016-10-07T12:59:10Z</time></trkpt>
<trkpt lat="28.963532" lon="98.623675">
<time>2016-10-07T12:59:11Z</time></trkpt>
<trkpt lat="28.963602" lon="98.623636">
<time>2016-10-07T12:59:12Z</time></trkpt>
<trkpt lat="28.963802" lon="98.623516">
<time>2016-10-07T12:59:13Z</time></trkpt>
<trkpt lat="28.963942" lon="98.623416">
<time>2016-10-07T12:59:14Z</time></trkpt>
<trkpt lat="28.964082" lon="98.623336">
<time>2016-10-07T12:59:15Z</time></trkpt>
<trkpt lat="28.964182" lon="98.623286">
<time>2016-10-07T12:59:16Z</time></trkpt>
<trkpt lat="28.964242" lon="98.623256">
<time>2016-10-07T12:59:17Z</time></trkpt>
<trkpt lat="28.964282" lon="98.623246">
<time>2016-10-07T12:59:18Z</time></trkpt>
<trkpt lat="28.964332" lon="98.623236">
<time>2016-10-07T12:59:19Z</time></trkpt>
<trkpt lat="28.964402" lon="98.623216">
<time>2016-10-07T12:59:20Z</time></trkpt>
<trkpt lat="28.964482" lon="98.623206">
<time>2016-10-07T12:59:21Z</time></trkpt>
<trkpt lat="28.964662" lon="98.623176">
<time>2016-10-07T12:59:22Z</time></trkpt>
<trkpt lat="28.964792" lon="98.623146">
<time>2016-10-07T12:59:23Z</time></trkpt>
<trkpt lat="28.964922" lon="98.623116">
<time>2016-10-07T12:59:24Z</time></trkpt>
<trkpt lat="28.965111" lon="98.623056">
<time>2016-10-07T12:59:25Z</time></trkpt>
<trkpt lat="28.965241" lon="98.623017">
<time>2016-10-07T12:59:26Z</time></trkpt>
<trkpt lat="28.965351" lon="98.622987">
<time>2016-10-07T12:59:27Z</time></trkpt>
<trkpt lat="28.965431" lon="98.622977">
<time>2016-10-07T12:59:28Z</time></trkpt>
<trkpt lat="28.965691" lon="98.622947">
<time>2016-10-07T12:59:29Z</time></trkpt>
<trkpt lat="28.965951" lon="98.622907">
<time>2016-10-07T12:59:30Z</time></trkpt>
<trkpt lat="28.966111" lon="98.622897">
<time>2016-10-07T12:59:31Z</time></trkpt>
<trkpt lat="28.966231" lon="98.622897">
<time>2016-10-07T12:59:32Z</time></trkpt>
<trkpt lat="28.966351" lon="98.622917">
<time>2016-10-07T12:59:33Z</time></trkpt>
<trkpt lat="28.96657" lon="98.622947">
<time>2016-10-07T12:59:34Z</time></trkpt>
<trkpt lat="28.96705" lon="98.623037">
<time>2016-10-07T12:59:35Z</time></trkpt>
<trkpt lat="28.96723" lon="98.623076">
<time>2016-10-07T12:59:36Z</time></trkpt>
<trkpt lat="28.96734" lon="98.623096">
<time>2016-10-07T12:59:37Z</time></trkpt>
<trkpt lat="28.96749" lon="98.623146">
<time>2016-10-07T12:59:38Z</time></trkpt>
<trkpt lat="28.967579" lon="98.623176">
<time>2016-10-07T12:59:39Z</time></trkpt>
<trkpt lat="28.967679" lon="98.623226">
<time>2016-10-07T12:59:40Z</time></trkpt>
<trkpt lat="28.967829" lon="98.623326">
<time>2016-10-07T12:59:41Z</time></trkpt>
<trkpt lat="28.967899" lon="98.623366">
<time>2016-10-07T12:59:42Z</time></trkpt>
<trkpt lat="28.967949" lon="98.623426">
<time>2016-10-07T12:59:43Z</time></trkpt>
<trkpt lat="28.968069" lon="98.623546">
<time>2016-10-07T12:59:44Z</time></trkpt>
<trkpt lat="28.968178" lon="98.623665">
<time>2016-10-07T12:59:45Z</time></trkpt>
<trkpt lat="28.968258" lon="98.623745">
<time>2016-10-07T12:59:46Z</time></trkpt>
<trkpt lat="28.968328" lon="98.623805">
<time>2016-10-07T12:59:47Z</time></trkpt>
<trkpt lat="28.968418" lon="98.623865">
<time>2016-10-07T12:59:48Z</time></trkpt>
<trkpt lat="28.968528" lon="98.623935">
<time>2016-10-07T12:59:49Z</time></trkpt>
<trkpt lat="28.968608" lon="98.623985">
<time>2016-10-07T12:59:50Z</time></trkpt>
<trkpt lat="28.968678" lon="98.624035">
<time>2016-10-07T12:59:51Z</time></trkpt>
<trkpt lat="28.968728" lon="98.624075">
<time>2016-10-07T12:59:52Z</time></trkpt>
<trkpt lat="28.968767" lon="98.624125">
<time>2016-10-07T12:59:53Z</time></trkpt>
<trkpt lat="28.968807" lon="98.624165">
<time>2016-10-07T12:59:54Z</time></trkpt>
<trkpt lat="28.968837" lon="98.624204">
<time>2016-10-07T12:59:55Z</time></trkpt>
<trkpt lat="28.968867" lon="98.624244">
<time>2016-10-07T12:59:56Z</time></trkpt>
<trkpt lat="28.968887" lon="98.624284">
<time>2016-10-07T12:59:57Z</time></trkpt>
<trkpt lat="28.968907" lon="98.624324">
<time>2016-10-07T12:59:58Z</time></trkpt>
<trkpt lat="28.968927" lon="98.624364">
<time>2016-10-07T12:59:59Z</time></trkpt>
<trkpt lat="28.968977" lon="98.624494">
<time>2016-10-07T13:00:00Z</time></trkpt>
<trkpt lat="28.969176" lon="98.625043">
<time>2016-10-07T13:00:01Z</time></trkpt>
<trkpt lat="28.969595" lon="98.626241">
<time>2016-10-07T13:00:02Z</time></trkpt>
<trkpt lat="28.969724" lon="98.62657">
<time>2016-10-07T13:00:03Z</time></trkpt>
<trkpt lat="28.969774" lon="98.62674">
<time>2016-10-07T13:00:04Z</time></trkpt>
<trkpt lat="28.969814" lon="98.62687">
<time>2016-10-07T13:00:05Z</time></trkpt>
<trkpt lat="28.969834" lon="98.626949">
<time>2016-10-07T13:00:06Z</time></trkpt>
<trkpt lat="28.969843" lon="98.627039">
<time>2016-10-07T13:00:07Z</time></trkpt>
<trkpt lat="28.969853" lon="98.627169">
<time>2016-10-07T13:00:08Z</time></trkpt>
<trkpt lat="28.969863" lon="98.627289">
<time>2016-10-07T13:00:09Z</time></trkpt>
<trkpt lat="28.969903" lon="98.627409">
<time>2016-10-07T13:00:10Z</time></trkpt>
<trkpt lat="28.969953" lon="98.627548">
<time>2016-10-07T13:00:11Z</time></trkpt>
<trkpt lat="28.970012" lon="98.627688">
<time>2016-10-07T13:00:12Z</time></trkpt>
<trkpt lat="28.970072" lon="98.627828">
<time>2016-10-07T13:00:13Z</time></trkpt>
<trkpt lat="28.970102" lon="98.627958">
<time>2016-10-07T13:00:14Z</time></trkpt>
<trkpt lat="28.970132" lon="98.628077">
<time>2016-10-07T13:00:15Z</time></trkpt>
<trkpt lat="28.970142" lon="98.628217">
<time>2016-10-07T13:00:16Z</time></trkpt>
<trkpt lat="28.970162" lon="98.628367">
<time>2016-10-07T13:00:17Z</time></trkpt>
<trkpt lat="28.970181" lon="98.628526">
<time>2016-10-07T13:00:18Z</time></trkpt>
<trkpt lat="28.970221" lon="98.628676">
<time>2016-10-07T13:00:19Z</time></trkpt>
<trkpt lat="28.970271" lon="98.628796">
<time>2016-10-07T13:00:20Z</time></trkpt>
<trkpt lat="28.970311" lon="98.628876">
<time>2016-10-07T13:00:21Z</time></trkpt>
<trkpt lat="28.970371" lon="98.628986">
<time>2016-10-07T13:00:22Z</time></trkpt>
<trkpt lat="28.97043" lon="98.629105">
<time>2016-10-07T13:00:23Z</time></trkpt>
<trkpt lat="28.97045" lon="98.629215">
<time>2016-10-07T13:00:24Z</time></trkpt>
<trkpt lat="28.97046" lon="98.629335">
<time>2016-10-07T13:00:25Z</time></trkpt>
<trkpt lat="28.97045" lon="98.629475">
<time>2016-10-07T13:00:26Z</time></trkpt>
<trkpt lat="28.97043" lon="98.629634">
<time>2016-10-07T13:00:27Z</time></trkpt>
<trkpt lat="28.97043" lon="98.629734">
<time>2016-10-07T13:00:28Z</time></trkpt>
<trkpt lat="28.97044" lon="98.629834">
<time>2016-10-07T13:00:29Z</time></trkpt>
<trkpt lat="28.970449" lon="98.629944">
<time>2016-10-07T13:00:30Z</time></trkpt>
<trkpt lat="28.970499" lon="98.630103">
<time>2016-10-07T13:00:31Z</time></trkpt>
<trkpt lat="28.970569" lon="98.630293">
<time>2016-10-07T13:00:32Z</time></trkpt>
<trkpt lat="28.970629" lon="98.630423">
<time>2016-10-07T13:00:33Z</time></trkpt>
<trkpt lat="28.970688" lon="98.630533">
<time>2016-10-07T13:00:34Z</time></trkpt>
<trkpt lat="28.970728" lon="98.630602">
<time>2016-10-07T13:00:35Z</time></trkpt>
<trkpt lat="28.970778" lon="98.630672">
<time>2016-10-07T13:00:36Z</time></trkpt>
<trkpt lat="28.970858" lon="98.630782">
<time>2016-10-07T13:00:37Z</time></trkpt>
<trkpt lat="28.970938" lon="98.630872">
<time>2016-10-07T13:00:38Z</time></trkpt>
<trkpt lat="28.970998" lon="98.630932">
<time>2016-10-07T13:00:39Z</time></trkpt>
<trkpt lat="28.971058" lon="98.630982">
<time>2016-10-07T13:00:40Z</time></trkpt>
<trkpt lat="28.971227" lon="98.631091">
<time>2016-10-07T13:00:41Z</time></trkpt>
<trkpt lat="28.971397" lon="98.631181">
<time>2016-10-07T13:00:42Z</time></trkpt>
<trkpt lat="28.971477" lon="98.631221">
<time>2016-10-07T13:00:43Z</time></trkpt>
<trkpt lat="28.971557" lon="98.631241">
<time>2016-10-07T13:00:44Z</time></trkpt>
<trkpt lat="28.971647" lon="98.631261">
<time>2016-10-07T13:00:45Z</time></trkpt>
<trkpt lat="28.971707" lon="98.631271">
<time>2016-10-07T13:00:46Z</time></trkpt>
<trkpt lat="28.971976" lon="98.631341">
<time>2016-10-07T13:00:47Z</time></trkpt>
<trkpt lat="28.972156" lon="98.631411">
<time>2016-10-07T13:00:48Z</time></trkpt>
<trkpt lat="28.972456" lon="98.631501">
<time>2016-10-07T13:00:49Z</time></trkpt>
<trkpt lat="28.972696" lon="98.63158">
<time>2016-10-07T13:00:50Z</time></trkpt>
<trkpt lat="28.972845" lon="98.63162">
<time>2016-10-07T13:00:51Z</time></trkpt>
<trkpt lat="28.972945" lon="98.63164">
<time>2016-10-07T13:00:52Z</time></trkpt>
<trkpt lat="28.973045" lon="98.63165">
<time>2016-10-07T13:00:53Z</time></trkpt>
<trkpt lat="28.973185" lon="98.63165">
<time>2016-10-07T13:00:54Z</time></trkpt>
<trkpt lat="28.973315" lon="98.63164">
<time>2016-10-07T13:00:55Z</time></trkpt>
<trkpt lat="28.973575" lon="98.63164">
<time>2016-10-07T13:00:56Z</time></trkpt>
<trkpt lat="28.973675" lon="98.63164">
<time>2016-10-07T13:00:57Z</time></trkpt>
<trkpt lat="28.973805" lon="98.63165">
<time>2016-10-07T13:00:58Z</time></trkpt>
<trkpt lat="28.973865" lon="98.63164">
<time>2016-10-07T13:00:59Z</time></trkpt>
<trkpt lat="28.974014" lon="98.63163">
<time>2016-10-07T13:01:00Z</time></trkpt>
<trkpt lat="28.974144" lon="98.63162">
<time>2016-10-07T13:01:01Z</time></trkpt>
<trkpt lat="28.974294" lon="98.63159">
<time>2016-10-07T13:01:02Z</time></trkpt>
<trkpt lat="28.974424" lon="98.63156">
<time>2016-10-07T13:01:03Z</time></trkpt>
<trkpt lat="28.974564" lon="98.63152">
<time>2016-10-07T13:01:04Z</time></trkpt>
<trkpt lat="28.974734" lon="98.631471">
<time>2016-10-07T13:01:05Z</time></trkpt>
<trkpt lat="28.974854" lon="98.631431">
<time>2016-10-07T13:01:06Z</time></trkpt>
<trkpt lat="28.974964" lon="98.631391">
<time>2016-10-07T13:01:07Z</time></trkpt>
<trkpt lat="28.975074" lon="98.631351">
<time>2016-10-07T13:01:08Z</time></trkpt>
<trkpt lat="28.975384" lon="98.631241">
<time>2016-10-07T13:01:09Z</time></trkpt>
<trkpt lat="28.975664" lon="98.631141">
<time>2016-10-07T13:01:10Z</time></trkpt>
<trkpt lat="28.975954" lon="98.631011">
<time>2016-10-07T13:01:11Z</time></trkpt>
<trkpt lat="28.976074" lon="98.630942">
<time>2016-10-07T13:01:12Z</time></trkpt>
<trkpt lat="28.976274" lon="98.630812">
<time>2016-10-07T13:01:13Z</time></trkpt>
<trkpt lat="28.976414" lon="98.630722">
<time>2016-10-07T13:01:14Z</time></trkpt>
<trkpt lat="28.976684" lon="98.630542">
<time>2016-10-07T13:01:15Z</time></trkpt>
<trkpt lat="28.976834" lon="98.630443">
<time>2016-10-07T13:01:16Z</time></trkpt>
<trkpt lat="28.977004" lon="98.630343">
<time>2016-10-07T13:01:17Z</time></trkpt>
<trkpt lat="28.977184" lon="98.630263">
<time>2016-10-07T13:01:18Z</time></trkpt>
<trkpt lat="28.977384" lon="98.630183">
<time>2016-10-07T13:01:19Z</time></trkpt>
<trkpt lat="28.977474" lon="98.630153">
<time>2016-10-07T13:01:20Z</time></trkpt>
<trkpt lat="28.977634" lon="98.630073">
<time>2016-10-07T13:01:21Z</time></trkpt>
<trkpt lat="28.977744" lon="98.630023">
<time>2016-10-07T13:01:22Z</time></trkpt>
<trkpt lat="28.977884" lon="98.629954">
<time>2016-10-07T13:01:23Z</time></trkpt>
<trkpt lat="28.977994" lon="98.629894">
<time>2016-10-07T13:01:24Z</time></trkpt>
<trkpt lat="28.978064" lon="98.629854">
<time>2016-10-07T13:01:25Z</time></trkpt>
<trkpt lat="28.978214" lon="98.629754">
<time>2016-10-07T13:01:26Z</time></trkpt>
<trkpt lat="28.978314" lon="98.629684">
<time>2016-10-07T13:01:27Z</time></trkpt>
<trkpt lat="28.978454" lon="98.629574">
<time>2016-10-07T13:01:28Z</time></trkpt>
<trkpt lat="28.978554" lon="98.629494">
<time>2016-10-07T13:01:29Z</time></trkpt>
<trkpt lat="28.978644" lon="98.629425">
<time>2016-10-07T13:01:30Z</time></trkpt>
<trkpt lat="28.978824" lon="98.629285">
<time>2016-10-07T13:01:31Z</time></trkpt>
<trkpt lat="28.978914" lon="98.629215">
<time>2016-10-07T13:01:32Z</time></trkpt>
<trkpt lat="28.979024" lon="98.629125">
<time>2016-10-07T13:01:33Z</time></trkpt>
<trkpt lat="28.979214" lon="98.628995">
<time>2016-10-07T13:01:34Z</time></trkpt>
<trkpt lat="28.979394" lon="98.628886">
<time>2016-10-07T13:01:35Z</time></trkpt>
<trkpt lat="28.979564" lon="98.628786">
<time>2016-10-07T13:01:36Z</time></trkpt>
<trkpt lat="28.979664" lon="98.628716">
<time>2016-10-07T13:01:37Z</time></trkpt>
<trkpt lat="28.979734" lon="98.628676">
<time>2016-10-07T13:01:38Z</time></trkpt>
<trkpt lat="28.979884" lon="98.628576">
<time>2016-10-07T13:01:39Z</time></trkpt>
<trkpt lat="28.980064" lon="98.628446">
<time>2016-10-07T13:01:40Z</time></trkpt>
<trkpt lat="28.980234" lon="98.628307">
<time>2016-10-07T13:01:41Z</time></trkpt>
<trkpt lat="28.980344" lon="98.628197">
<time>2016-10-07T13:01:42Z</time></trkpt>
<trkpt lat="28.980534" lon="98.628017">
<time>2016-10-07T13:01:43Z</time></trkpt>
<trkpt lat="28.980714" lon="98.627848">
<time>2016-10-07T13:01:44Z</time></trkpt>
<trkpt lat="28.981144" lon="98.627438">
<time>2016-10-07T13:01:45Z</time></trkpt>
<trkpt lat="28.981224" lon="98.627358">
<time>2016-10-07T13:01:46Z</time></trkpt>
<trkpt lat="28.981344" lon="98.627249">
<time>2016-10-07T13:01:47Z</time></trkpt>
<trkpt lat="28.981534" lon="98.627089">
<time>2016-10-07T13:01:48Z</time></trkpt>
<trkpt lat="28.981734" lon="98.626939">
<time>2016-10-07T13:01:49Z</time></trkpt>
<trkpt lat="28.982094" lon="98.62669">
<time>2016-10-07T13:01:50Z</time></trkpt>
<trkpt lat="28.982214" lon="98.6266">
<time>2016-10-07T13:01:51Z</time></trkpt>
<trkpt lat="28.982364" lon="98.62647">
<time>2016-10-07T13:01:52Z</time></trkpt>
<trkpt lat="28.982754" lon="98.626121">
<time>2016-10-07T13:01:53Z</time></trkpt>
<trkpt lat="28.982894" lon="98.625991">
<time>2016-10-07T13:01:54Z</time></trkpt>
<trkpt lat="28.983074" lon="98.625831">
<time>2016-10-07T13:01:55Z</time></trkpt>
<trkpt lat="28.983234" lon="98.625692">
<time>2016-10-07T13:01:56Z</time></trkpt>
<trkpt lat="28.983474" lon="98.625472">
<time>2016-10-07T13:01:57Z</time></trkpt>
<trkpt lat="28.983574" lon="98.625372">
<time>2016-10-07T13:01:58Z</time></trkpt>
<trkpt lat="28.983764" lon="98.625202">
<time>2016-10-07T13:01:59Z</time></trkpt>
<trkpt lat="28.983915" lon="98.625043">
<time>2016-10-07T13:02:00Z</time></trkpt>
<trkpt lat="28.983985" lon="98.624963">
<time>2016-10-07T13:02:01Z</time></trkpt>
<trkpt lat="28.984145" lon="98.624783">
<time>2016-10-07T13:02:02Z</time></trkpt>
<trkpt lat="28.984605" lon="98.624194">
<time>2016-10-07T13:02:03Z</time></trkpt>
<trkpt lat="28.984715" lon="98.624064">
<time>2016-10-07T13:02:04Z</time></trkpt>
<trkpt lat="28.985205" lon="98.623416">
<time>2016-10-07T13:02:05Z</time></trkpt>
<trkpt lat="28.985375" lon="98.623136">
<time>2016-10-07T13:02:06Z</time></trkpt>
<trkpt lat="28.985506" lon="98.622906">
<time>2016-10-07T13:02:07Z</time></trkpt>
<trkpt lat="28.985606" lon="98.622717">
<time>2016-10-07T13:02:08Z</time></trkpt>
<trkpt lat="28.985626" lon="98.622667">
<time>2016-10-07T13:02:09Z</time></trkpt>
<trkpt lat="28.985706" lon="98.622527">
<time>2016-10-07T13:02:10Z</time></trkpt>
<trkpt lat="28.985806" lon="98.622387">
<time>2016-10-07T13:02:11Z</time></trkpt>
<trkpt lat="28.985906" lon="98.622248">
<time>2016-10-07T13:02:12Z</time></trkpt>
<trkpt lat="28.985986" lon="98.622158">
<time>2016-10-07T13:02:13Z</time></trkpt>
<trkpt lat="28.986116" lon="98.622048">
<time>2016-10-07T13:02:14Z</time></trkpt>
<trkpt lat="28.986266" lon="98.621928">
<time>2016-10-07T13:02:15Z</time></trkpt>
<trkpt lat="28.986366" lon="98.621858">
<time>2016-10-07T13:02:16Z</time></trkpt>
<trkpt lat="28.986466" lon="98.621788">
<time>2016-10-07T13:02:17Z</time></trkpt>
<trkpt lat="28.986526" lon="98.621738">
<time>2016-10-07T13:02:18Z</time></trkpt>
<trkpt lat="28.986626" lon="98.621658">
<time>2016-10-07T13:02:19Z</time></trkpt>
<trkpt lat="28.986716" lon="98.621579">
<time>2016-10-07T13:02:20Z</time></trkpt>
<trkpt lat="28.986796" lon="98.621489">
<time>2016-10-07T13:02:21Z</time></trkpt>
<trkpt lat="28.986916" lon="98.621359">
<time>2016-10-07T13:02:22Z</time></trkpt>
<trkpt lat="28.987036" lon="98.621229">
<time>2016-10-07T13:02:23Z</time></trkpt>
<trkpt lat="28.987096" lon="98.621169">
<time>2016-10-07T13:02:24Z</time></trkpt>
<trkpt lat="28.987186" lon="98.621099">
<time>2016-10-07T13:02:25Z</time></trkpt>
<trkpt lat="28.987276" lon="98.62103">
<time>2016-10-07T13:02:26Z</time></trkpt>
<trkpt lat="28.987356" lon="98.62097">
<time>2016-10-07T13:02:27Z</time></trkpt>
<trkpt lat="28.987456" lon="98.6209">
<time>2016-10-07T13:02:28Z</time></trkpt>
<trkpt lat="28.987526" lon="98.62085">
<time>2016-10-07T13:02:29Z</time></trkpt>
<trkpt lat="28.987596" lon="98.62081">
<time>2016-10-07T13:02:30Z</time></trkpt>
<trkpt lat="28.987656" lon="98.62077">
<time>2016-10-07T13:02:31Z</time></trkpt>
<trkpt lat="28.987756" lon="98.62068">
<time>2016-10-07T13:02:32Z</time></trkpt>
<trkpt lat="28.987846" lon="98.62059">
<time>2016-10-07T13:02:33Z</time></trkpt>
<trkpt lat="28.987946" lon="98.62046">
<time>2016-10-07T13:02:34Z</time></trkpt>
<trkpt lat="28.988106" lon="98.620201">
<time>2016-10-07T13:02:35Z</time></trkpt>
<trkpt lat="28.988206" lon="98.620041">
<time>2016-10-07T13:02:36Z</time></trkpt>
<trkpt lat="28.988826" lon="98.619242">
<time>2016-10-07T13:02:37Z</time></trkpt>
<trkpt lat="28.989187" lon="98.618783">
<time>2016-10-07T13:02:38Z</time></trkpt>
<trkpt lat="28.989247" lon="98.618713">
<time>2016-10-07T13:02:39Z</time></trkpt>
<trkpt lat="28.989387" lon="98.618533">
<time>2016-10-07T13:02:40Z</time></trkpt>
<trkpt lat="28.989447" lon="98.618454">
<time>2016-10-07T13:02:41Z</time></trkpt>
<trkpt lat="28.989497" lon="98.618364">
<time>2016-10-07T13:02:42Z</time></trkpt>
<trkpt lat="28.989527" lon="98.618284">
<time>2016-10-07T13:02:43Z</time></trkpt>
<trkpt lat="28.989557" lon="98.618204">
<time>2016-10-07T13:02:44Z</time></trkpt>
<trkpt lat="28.989577" lon="98.618144">
<time>2016-10-07T13:02:45Z</time></trkpt>
<trkpt lat="28.989597" lon="98.618074">
<time>2016-10-07T13:02:46Z</time></trkpt>
<trkpt lat="28.989607" lon="98.618014">
<time>2016-10-07T13:02:47Z</time></trkpt>
<trkpt lat="28.989617" lon="98.617914">
<time>2016-10-07T13:02:48Z</time></trkpt>
<trkpt lat="28.989617" lon="98.617805">
<time>2016-10-07T13:02:49Z</time></trkpt>
<trkpt lat="28.989627" lon="98.617705">
<time>2016-10-07T13:02:50Z</time></trkpt>
<trkpt lat="28.989637" lon="98.617615">
<time>2016-10-07T13:02:51Z</time></trkpt>
<trkpt lat="28.989667" lon="98.617515">
<time>2016-10-07T13:02:52Z</time></trkpt>
<trkpt lat="28.989677" lon="98.617465">
<time>2016-10-07T13:02:53Z</time></trkpt>
<trkpt lat="28.989697" lon="98.617395">
<time>2016-10-07T13:02:54Z</time></trkpt>
<trkpt lat="28.989727" lon="98.617305">
<time>2016-10-07T13:02:55Z</time></trkpt>
<trkpt lat="28.989767" lon="98.617215">
<time>2016-10-07T13:02:56Z</time></trkpt>
<trkpt lat="28.989827" lon="98.617096">
<time>2016-10-07T13:02:57Z</time></trkpt>
<trkpt lat="28.989877" lon="98.616986">
<time>2016-10-07T13:02:58Z</time></trkpt>
<trkpt lat="28.989938" lon="98.616856">
<time>2016-10-07T13:02:59Z</time></trkpt>
<trkpt lat="28.989978" lon="98.616746">
<time>2016-10-07T13:03:00Z</time></trkpt>
<trkpt lat="28.990008" lon="98.616666">
<time>2016-10-07T13:03:01Z</time></trkpt>
<trkpt lat="28.990048" lon="98.616526">
<time>2016-10-07T13:03:02Z</time></trkpt>
<trkpt lat="28.990118" lon="98.616307">
<time>2016-10-07T13:03:03Z</time></trkpt>
<trkpt lat="28.990148" lon="98.616167">
<time>2016-10-07T13:03:04Z</time></trkpt>
<trkpt lat="28.990208" lon="98.615997">
<time>2016-10-07T13:03:05Z</time></trkpt>
<trkpt lat="28.990268" lon="98.615837">
<time>2016-10-07T13:03:06Z</time></trkpt>
<trkpt lat="28.990318" lon="98.615737">
<time>2016-10-07T13:03:07Z</time></trkpt>
<trkpt lat="28.990378" lon="98.615618">
<time>2016-10-07T13:03:08Z</time></trkpt>
<trkpt lat="28.990448" lon="98.615518">
<time>2016-10-07T13:03:09Z</time></trkpt>
<trkpt lat="28.990518" lon="98.615418">
<time>2016-10-07T13:03:10Z</time></trkpt>
<trkpt lat="28.990618" lon="98.615298">
<time>2016-10-07T13:03:11Z</time></trkpt>
<trkpt lat="28.990738" lon="98.615158">
<time>2016-10-07T13:03:12Z</time></trkpt>
<trkpt lat="28.990838" lon="98.615038">
<time>2016-10-07T13:03:13Z</time></trkpt>
<trkpt lat="28.990868" lon="98.614999">
<time>2016-10-07T13:03:14Z</time></trkpt>
<trkpt lat="28.990898" lon="98.614939">
<time>2016-10-07T13:03:15Z</time></trkpt>
<trkpt lat="28.990948" lon="98.614849">
<time>2016-10-07T13:03:16Z</time></trkpt>
<trkpt lat="28.990958" lon="98.614809">
<time>2016-10-07T13:03:17Z</time></trkpt>
<trkpt lat="28.990978" lon="98.614759">
<time>2016-10-07T13:03:18Z</time></trkpt>
<trkpt lat="28.990988" lon="98.614699">
<time>2016-10-07T13:03:19Z</time></trkpt>
<trkpt lat="28.990998" lon="98.614619">
<time>2016-10-07T13:03:20Z</time></trkpt>
<trkpt lat="28.991008" lon="98.614549">
<time>2016-10-07T13:03:21Z</time></trkpt>
<trkpt lat="28.991009" lon="98.614419">
<time>2016-10-07T13:03:22Z</time></trkpt>
<trkpt lat="28.991009" lon="98.614319">
<time>2016-10-07T13:03:23Z</time></trkpt>
<trkpt lat="28.990989" lon="98.6142">
<time>2016-10-07T13:03:24Z</time></trkpt>
<trkpt lat="28.990979" lon="98.61405">
<time>2016-10-07T13:03:25Z</time></trkpt>
<trkpt lat="28.990979" lon="98.61399">
<time>2016-10-07T13:03:26Z</time></trkpt>
<trkpt lat="28.990979" lon="98.61393">
<time>2016-10-07T13:03:27Z</time></trkpt>
<trkpt lat="28.990979" lon="98.61386">
<time>2016-10-07T13:03:28Z</time></trkpt>
<trkpt lat="28.990999" lon="98.61376">
<time>2016-10-07T13:03:29Z</time></trkpt>
<trkpt lat="28.991009" lon="98.6137">
<time>2016-10-07T13:03:30Z</time></trkpt>
<trkpt lat="28.991039" lon="98.61363">
<time>2016-10-07T13:03:31Z</time></trkpt>
<trkpt lat="28.991079" lon="98.61353">
<time>2016-10-07T13:03:32Z</time></trkpt>
<trkpt lat="28.991189" lon="98.613261">
<time>2016-10-07T13:03:33Z</time></trkpt>
<trkpt lat="28.991269" lon="98.613081">
<time>2016-10-07T13:03:34Z</time></trkpt>
<trkpt lat="28.991409" lon="98.612741">
<time>2016-10-07T13:03:35Z</time></trkpt>
<trkpt lat="28.991479" lon="98.612552">
<time>2016-10-07T13:03:36Z</time></trkpt>
<trkpt lat="28.991519" lon="98.612422">
<time>2016-10-07T13:03:37Z</time></trkpt>
<trkpt lat="28.991569" lon="98.612302">
<time>2016-10-07T13:03:38Z</time></trkpt>
<trkpt lat="28.9916" lon="98.612232">
<time>2016-10-07T13:03:39Z</time></trkpt>
<trkpt lat="28.99163" lon="98.612172">
<time>2016-10-07T13:03:40Z</time></trkpt>
<trkpt lat="28.99167" lon="98.612112">
<time>2016-10-07T13:03:41Z</time></trkpt>
<trkpt lat="28.99173" lon="98.612032">
<time>2016-10-07T13:03:42Z</time></trkpt>
<trkpt lat="28.9918" lon="98.611952">
<time>2016-10-07T13:03:43Z</time></trkpt>
<trkpt lat="28.99185" lon="98.611883">
<time>2016-10-07T13:03:44Z</time></trkpt>
<trkpt lat="28.99189" lon="98.611843">
<time>2016-10-07T13:03:45Z</time></trkpt>
<trkpt lat="28.99193" lon="98.611763">
<time>2016-10-07T13:03:46Z</time></trkpt>
<trkpt lat="28.99196" lon="98.611703">
<time>2016-10-07T13:03:47Z</time></trkpt>
<trkpt lat="28.99198" lon="98.611613">
<time>2016-10-07T13:03:48Z</time></trkpt>
<trkpt lat="28.992" lon="98.611513">
<time>2016-10-07T13:03:49Z</time></trkpt>
<trkpt lat="28.99202" lon="98.611383">
<time>2016-10-07T13:03:50Z</time></trkpt>
<trkpt lat="28.99205" lon="98.611253">
<time>2016-10-07T13:03:51Z</time></trkpt>
<trkpt lat="28.99209" lon="98.611143">
<time>2016-10-07T13:03:52Z</time></trkpt>
<trkpt lat="28.99213" lon="98.611034">
<time>2016-10-07T13:03:53Z</time></trkpt>
<trkpt lat="28.99222" lon="98.610814">
<time>2016-10-07T13:03:54Z</time></trkpt>
<trkpt lat="28.9923" lon="98.610614">
<time>2016-10-07T13:03:55Z</time></trkpt>
<trkpt lat="28.99233" lon="98.610564">
<time>2016-10-07T13:03:56Z</time></trkpt>
<trkpt lat="28.99236" lon="98.610504">
<time>2016-10-07T13:03:57Z</time></trkpt>
<trkpt lat="28.99238" lon="98.610444">
<time>2016-10-07T13:03:58Z</time></trkpt>
<trkpt lat="28.99238" lon="98.610434">
<time>2016-10-07T13:03:59Z</time></trkpt>
<trkpt lat="28.99239" lon="98.610394">
<time>2016-10-07T13:04:00Z</time></trkpt>
<trkpt lat="28.9924" lon="98.610354">
<time>2016-10-07T13:04:01Z</time></trkpt>
<trkpt lat="28.9924" lon="98.610324">
<time>2016-10-07T13:04:02Z</time></trkpt>
<trkpt lat="28.99239" lon="98.610294">
<time>2016-10-07T13:04:03Z</time></trkpt>
<trkpt lat="28.99239" lon="98.610274">
<time>2016-10-07T13:04:04Z</time></trkpt>
<trkpt lat="28.99238" lon="98.610244">
<time>2016-10-07T13:04:05Z</time></trkpt>
<trkpt lat="28.99237" lon="98.610214">
<time>2016-10-07T13:04:06Z</time></trkpt>
<trkpt lat="28.99236" lon="98.610185">
<time>2016-10-07T13:04:07Z</time></trkpt>
<trkpt lat="28.99233" lon="98.610135">
<time>2016-10-07T13:04:08Z</time></trkpt>
<trkpt lat="28.99231" lon="98.610095">
<time>2016-10-07T13:04:09Z</time></trkpt>
<trkpt lat="28.99229" lon="98.610055">
<time>2016-10-07T13:04:10Z</time></trkpt>
<trkpt lat="28.99227" lon="98.610015">
<time>2016-10-07T13:04:11Z</time></trkpt>
<trkpt lat="28.99227" lon="98.609995">
<time>2016-10-07T13:04:12Z</time></trkpt>
<trkpt lat="28.99226" lon="98.609965">
<time>2016-10-07T13:04:13Z</time></trkpt>
<trkpt lat="28.99226" lon="98.609945">
<time>2016-10-07T13:04:14Z</time></trkpt>
<trkpt lat="28.99226" lon="98.609925">
<time>2016-10-07T13:04:15Z</time></trkpt>
<trkpt lat="28.99227" lon="98.609905">
<time>2016-10-07T13:04:16Z</time></trkpt>
<trkpt lat="28.99227" lon="98.609875">
<time>2016-10-07T13:04:17Z</time></trkpt>
<trkpt lat="28.99228" lon="98.609855">
<time>2016-10-07T13:04:18Z</time></trkpt>
<trkpt lat="28.99229" lon="98.609845">
<time>2016-10-07T13:04:19Z</time></trkpt>
<trkpt lat="28.99231" lon="98.609805">
<time>2016-10-07T13:04:20Z</time></trkpt>
<trkpt lat="28.99235" lon="98.609765">
<time>2016-10-07T13:04:21Z</time></trkpt>
<trkpt lat="28.99237" lon="98.609735">
<time>2016-10-07T13:04:22Z</time></trkpt>
<trkpt lat="28.99242" lon="98.609685">
<time>2016-10-07T13:04:23Z</time></trkpt>
<trkpt lat="28.99245" lon="98.609665">
<time>2016-10-07T13:04:24Z</time></trkpt>
<trkpt lat="28.99248" lon="98.609635">
<time>2016-10-07T13:04:25Z</time></trkpt>
<trkpt lat="28.9925" lon="98.609615">
<time>2016-10-07T13:04:26Z</time></trkpt>
<trkpt lat="28.99251" lon="98.609595">
<time>2016-10-07T13:04:27Z</time></trkpt>
<trkpt lat="28.99253" lon="98.609545">
<time>2016-10-07T13:04:28Z</time></trkpt>
<trkpt lat="28.99253" lon="98.609515">
<time>2016-10-07T13:04:29Z</time></trkpt>
<trkpt lat="28.99254" lon="98.609485">
<time>2016-10-07T13:04:30Z</time></trkpt>
<trkpt lat="28.99254" lon="98.609455">
<time>2016-10-07T13:04:31Z</time></trkpt>
<trkpt lat="28.99253" lon="98.609415">
<time>2016-10-07T13:04:32Z</time></trkpt>
<trkpt lat="28.99252" lon="98.609335">
<time>2016-10-07T13:04:33Z</time></trkpt>
<trkpt lat="28.99249" lon="98.609256">
<time>2016-10-07T13:04:34Z</time></trkpt>
<trkpt lat="28.992471" lon="98.609176">
<time>2016-10-07T13:04:35Z</time></trkpt>
<trkpt lat="28.992461" lon="98.609106">
<time>2016-10-07T13:04:36Z</time></trkpt>
<trkpt lat="28.992461" lon="98.609066">
<time>2016-10-07T13:04:37Z</time></trkpt>
<trkpt lat="28.992461" lon="98.609006">
<time>2016-10-07T13:04:38Z</time></trkpt>
<trkpt lat="28.992481" lon="98.608926">
<time>2016-10-07T13:04:39Z</time></trkpt>
<trkpt lat="28.992511" lon="98.608846">
<time>2016-10-07T13:04:40Z</time></trkpt>
<trkpt lat="28.992551" lon="98.608746">
<time>2016-10-07T13:04:41Z</time></trkpt>
<trkpt lat="28.992571" lon="98.608696">
<time>2016-10-07T13:04:42Z</time></trkpt>
<trkpt lat="28.992581" lon="98.608656">
<time>2016-10-07T13:04:43Z</time></trkpt>
<trkpt lat="28.992601" lon="98.608566">
<time>2016-10-07T13:04:44Z</time></trkpt>
<trkpt lat="28.992611" lon="98.608456">
<time>2016-10-07T13:04:45Z</time></trkpt>
<trkpt lat="28.992601" lon="98.608327">
<time>2016-10-07T13:04:46Z</time></trkpt>
<trkpt lat="28.992601" lon="98.608257">
<time>2016-10-07T13:04:47Z</time></trkpt>
<trkpt lat="28.992601" lon="98.608177">
<time>2016-10-07T13:04:48Z</time></trkpt>
<trkpt lat="28.992621" lon="98.608117">
<time>2016-10-07T13:04:49Z</time></trkpt>
<trkpt lat="28.992641" lon="98.608057">
<time>2016-10-07T13:04:50Z</time></trkpt>
<trkpt lat="28.992681" lon="98.607987">
<time>2016-10-07T13:04:51Z</time></trkpt>
<trkpt lat="28.992771" lon="98.607827">
<time>2016-10-07T13:04:52Z</time></trkpt>
<trkpt lat="28.992831" lon="98.607707">
<time>2016-10-07T13:04:53Z</time></trkpt>
<trkpt lat="28.992971" lon="98.607477">
<time>2016-10-07T13:04:54Z</time></trkpt>
<trkpt lat="28.993031" lon="98.607388">
<time>2016-10-07T13:04:55Z</time></trkpt>
<trkpt lat="28.993101" lon="98.607338">
<time>2016-10-07T13:04:56Z</time></trkpt>
<trkpt lat="28.993141" lon="98.607308">
<time>2016-10-07T13:04:57Z</time></trkpt>
<trkpt lat="28.993201" lon="98.607278">
<time>2016-10-07T13:04:58Z</time></trkpt>
<trkpt lat="28.993291" lon="98.607248">
<time>2016-10-07T13:04:59Z</time></trkpt>
<trkpt lat="28.993451" lon="98.607218">
<time>2016-10-07T13:05:00Z</time></trkpt>
<trkpt lat="28.993571" lon="98.607188">
<time>2016-10-07T13:05:01Z</time></trkpt>
<trkpt lat="28.99374" lon="98.607148">
<time>2016-10-07T13:05:02Z</time></trkpt>
<trkpt lat="28.99384" lon="98.607118">
<time>2016-10-07T13:05:03Z</time></trkpt>
<trkpt lat="28.99395" lon="98.607068">
<time>2016-10-07T13:05:04Z</time></trkpt>
<trkpt lat="28.9941" lon="98.606998">
<time>2016-10-07T13:05:05Z</time></trkpt>
<trkpt lat="28.99423" lon="98.606918">
<time>2016-10-07T13:05:06Z</time></trkpt>
<trkpt lat="28.99435" lon="98.606868">
<time>2016-10-07T13:05:07Z</time></trkpt>
<trkpt lat="28.99448" lon="98.606818">
<time>2016-10-07T13:05:08Z</time></trkpt>
<trkpt lat="28.99467" lon="98.606768">
<time>2016-10-07T13:05:09Z</time></trkpt>
<trkpt lat="28.99499" lon="98.606698">
<time>2016-10-07T13:05:10Z</time></trkpt>
<trkpt lat="28.995439" lon="98.606598">
<time>2016-10-07T13:05:11Z</time></trkpt>
<trkpt lat="28.995549" lon="98.606578">
<time>2016-10-07T13:05:12Z</time></trkpt>
<trkpt lat="28.995679" lon="98.606548">
<time>2016-10-07T13:05:13Z</time></trkpt>
<trkpt lat="28.995799" lon="98.606518">
<time>2016-10-07T13:05:14Z</time></trkpt>
<trkpt lat="28.995929" lon="98.606478">
<time>2016-10-07T13:05:15Z</time></trkpt>
<trkpt lat="28.996089" lon="98.606418">
<time>2016-10-07T13:05:16Z</time></trkpt>
<trkpt lat="28.996189" lon="98.606358">
<time>2016-10-07T13:05:17Z</time></trkpt>
<trkpt lat="28.996269" lon="98.606309">
<time>2016-10-07T13:05:18Z</time></trkpt>
<trkpt lat="28.996359" lon="98.606249">
<time>2016-10-07T13:05:19Z</time></trkpt>
<trkpt lat="28.996529" lon="98.606109">
<time>2016-10-07T13:05:20Z</time></trkpt>
<trkpt lat="28.996599" lon="98.606059">
<time>2016-10-07T13:05:21Z</time></trkpt>
<trkpt lat="28.996719" lon="98.605969">
<time>2016-10-07T13:05:22Z</time></trkpt>
<trkpt lat="28.996809" lon="98.605909">
<time>2016-10-07T13:05:23Z</time></trkpt>
<trkpt lat="28.997008" lon="98.605809">
<time>2016-10-07T13:05:24Z</time></trkpt>
<trkpt lat="28.997228" lon="98.605689">
<time>2016-10-07T13:05:25Z</time></trkpt>
<trkpt lat="28.997368" lon="98.605619">
<time>2016-10-07T13:05:26Z</time></trkpt>
<trkpt lat="28.997568" lon="98.605519">
<time>2016-10-07T13:05:27Z</time></trkpt>
<trkpt lat="28.997668" lon="98.605479">
<time>2016-10-07T13:05:28Z</time></trkpt>
<trkpt lat="28.997748" lon="98.605449">
<time>2016-10-07T13:05:29Z</time></trkpt>
<trkpt lat="28.997858" lon="98.605429">
<time>2016-10-07T13:05:30Z</time></trkpt>
<trkpt lat="28.998038" lon="98.605399">
<time>2016-10-07T13:05:31Z</time></trkpt>
<trkpt lat="28.998138" lon="98.605379">
<time>2016-10-07T13:05:32Z</time></trkpt>
<trkpt lat="28.998248" lon="98.605329">
<time>2016-10-07T13:05:33Z</time></trkpt>
<trkpt lat="28.998318" lon="98.605289">
<time>2016-10-07T13:05:34Z</time></trkpt>
<trkpt lat="28.998407" lon="98.605229">
<time>2016-10-07T13:05:35Z</time></trkpt>
<trkpt lat="28.998467" lon="98.60517">
<time>2016-10-07T13:05:36Z</time></trkpt>
<trkpt lat="28.998557" lon="98.60511">
<time>2016-10-07T13:05:37Z</time></trkpt>
<trkpt lat="28.998607" lon="98.60508">
<time>2016-10-07T13:05:38Z</time></trkpt>
<trkpt lat="28.998697" lon="98.60506">
<time>2016-10-07T13:05:39Z</time></trkpt>
<trkpt lat="28.998767" lon="98.60506">
<time>2016-10-07T13:05:40Z</time></trkpt>
<trkpt lat="28.998967" lon="98.60511">
<time>2016-10-07T13:05:41Z</time></trkpt>
<trkpt lat="28.999197" lon="98.60517">
<time>2016-10-07T13:05:42Z</time></trkpt>
<trkpt lat="28.999347" lon="98.605209">
<time>2016-10-07T13:05:43Z</time></trkpt>
<trkpt lat="28.999487" lon="98.605249">
<time>2016-10-07T13:05:44Z</time></trkpt>
<trkpt lat="28.999597" lon="98.605289">
<time>2016-10-07T13:05:45Z</time></trkpt>
<trkpt lat="28.999676" lon="98.605339">
<time>2016-10-07T13:05:46Z</time></trkpt>
<trkpt lat="28.999746" lon="98.605409">
<time>2016-10-07T13:05:47Z</time></trkpt>
<trkpt lat="28.999796" lon="98.605469">
<time>2016-10-07T13:05:48Z</time></trkpt>
<trkpt lat="28.999906" lon="98.605589">
<time>2016-10-07T13:05:49Z</time></trkpt>
<trkpt lat="29.000006" lon="98.605679">
<time>2016-10-07T13:05:50Z</time></trkpt>
<trkpt lat="29.000036" lon="98.605709">
<time>2016-10-07T13:05:51Z</time></trkpt>
<trkpt lat="29.000086" lon="98.605739">
<time>2016-10-07T13:05:52Z</time></trkpt>
<trkpt lat="29.000126" lon="98.605759">
<time>2016-10-07T13:05:53Z</time></trkpt>
<trkpt lat="29.000216" lon="98.605799">
<time>2016-10-07T13:05:54Z</time></trkpt>
<trkpt lat="29.000296" lon="98.605819">
<time>2016-10-07T13:05:55Z</time></trkpt>
<trkpt lat="29.000396" lon="98.605829">
<time>2016-10-07T13:05:56Z</time></trkpt>
<trkpt lat="29.000566" lon="98.605879">
<time>2016-10-07T13:05:57Z</time></trkpt>
<trkpt lat="29.000685" lon="98.605929">
<time>2016-10-07T13:05:58Z</time></trkpt>
<trkpt lat="29.000785" lon="98.605989">
<time>2016-10-07T13:05:59Z</time></trkpt>
<trkpt lat="29.000875" lon="98.606039">
<time>2016-10-07T13:06:00Z</time></trkpt>
<trkpt lat="29.000935" lon="98.606059">
<time>2016-10-07T13:06:01Z</time></trkpt>
<trkpt lat="29.001005" lon="98.606089">
<time>2016-10-07T13:06:02Z</time></trkpt>
<trkpt lat="29.001105" lon="98.606119">
<time>2016-10-07T13:06:03Z</time></trkpt>
<trkpt lat="29.001205" lon="98.606129">
<time>2016-10-07T13:06:04Z</time></trkpt>
<trkpt lat="29.001295" lon="98.606129">
<time>2016-10-07T13:06:05Z</time></trkpt>
<trkpt lat="29.001405" lon="98.606129">
<time>2016-10-07T13:06:06Z</time></trkpt>
<trkpt lat="29.001465" lon="98.606119">
<time>2016-10-07T13:06:07Z</time></trkpt>
<trkpt lat="29.001555" lon="98.606129">
<time>2016-10-07T13:06:08Z</time></trkpt>
<trkpt lat="29.001635" lon="98.606139">
<time>2016-10-07T13:06:09Z</time></trkpt>
<trkpt lat="29.001685" lon="98.606149">
<time>2016-10-07T13:06:10Z</time></trkpt>
<trkpt lat="29.001744" lon="98.606169">
<time>2016-10-07T13:06:11Z</time></trkpt>
<trkpt lat="29.001814" lon="98.606199">
<time>2016-10-07T13:06:12Z</time></trkpt>
<trkpt lat="29.001904" lon="98.606258">
<time>2016-10-07T13:06:13Z</time></trkpt>
<trkpt lat="29.001964" lon="98.606298">
<time>2016-10-07T13:06:14Z</time></trkpt>
<trkpt lat="29.002054" lon="98.606378">
<time>2016-10-07T13:06:15Z</time></trkpt>
<trkpt lat="29.002144" lon="98.606438">
<time>2016-10-07T13:06:16Z</time></trkpt>
<trkpt lat="29.002234" lon="98.606498">
<time>2016-10-07T13:06:17Z</time></trkpt>
<trkpt lat="29.002324" lon="98.606548">
<time>2016-10-07T13:06:18Z</time></trkpt>
<trkpt lat="29.002404" lon="98.606578">
<time>2016-10-07T13:06:19Z</time></trkpt>
<trkpt lat="29.002514" lon="98.606608">
<time>2016-10-07T13:06:20Z</time></trkpt>
<trkpt lat="29.002634" lon="98.606638">
<time>2016-10-07T13:06:21Z</time></trkpt>
<trkpt lat="29.002694" lon="98.606648">
<time>2016-10-07T13:06:22Z</time></trkpt>
<trkpt lat="29.002873" lon="98.606678">
<time>2016-10-07T13:06:23Z</time></trkpt>
<trkpt lat="29.002933" lon="98.606698">
<time>2016-10-07T13:06:24Z</time></trkpt>
<trkpt lat="29.002993" lon="98.606718">
<time>2016-10-07T13:06:25Z</time></trkpt>
<trkpt lat="29.003043" lon="98.606738">
<time>2016-10-07T13:06:26Z</time></trkpt>
<trkpt lat="29.003073" lon="98.606758">
<time>2016-10-07T13:06:27Z</time></trkpt>
<trkpt lat="29.003113" lon="98.606788">
<time>2016-10-07T13:06:28Z</time></trkpt>
<trkpt lat="29.003173" lon="98.606828">
<time>2016-10-07T13:06:29Z</time></trkpt>
<trkpt lat="29.003283" lon="98.606928">
<time>2016-10-07T13:06:30Z</time></trkpt>
<trkpt lat="29.003403" lon="98.607028">
<time>2016-10-07T13:06:31Z</time></trkpt>
<trkpt lat="29.003523" lon="98.607128">
<time>2016-10-07T13:06:32Z</time></trkpt>
<trkpt lat="29.003673" lon="98.607257">
<time>2016-10-07T13:06:33Z</time></trkpt>
<trkpt lat="29.003762" lon="98.607327">
<time>2016-10-07T13:06:34Z</time></trkpt>
<trkpt lat="29.003892" lon="98.607427">
<time>2016-10-07T13:06:35Z</time></trkpt>
<trkpt lat="29.003932" lon="98.607447">
<time>2016-10-07T13:06:36Z</time></trkpt>
<trkpt lat="29.004022" lon="98.607497">
<time>2016-10-07T13:06:37Z</time></trkpt>
<trkpt lat="29.004152" lon="98.607557">
<time>2016-10-07T13:06:38Z</time></trkpt>
<trkpt lat="29.004222" lon="98.607587">
<time>2016-10-07T13:06:39Z</time></trkpt>
<trkpt lat="29.004272" lon="98.607617">
<time>2016-10-07T13:06:40Z</time></trkpt>
<trkpt lat="29.004352" lon="98.607647">
<time>2016-10-07T13:06:41Z</time></trkpt>
<trkpt lat="29.004392" lon="98.607677">
<time>2016-10-07T13:06:42Z</time></trkpt>
<trkpt lat="29.004422" lon="98.607697">
<time>2016-10-07T13:06:43Z</time></trkpt>
<trkpt lat="29.004442" lon="98.607717">
<time>2016-10-07T13:06:44Z</time></trkpt>
<trkpt lat="29.004482" lon="98.607747">
<time>2016-10-07T13:06:45Z</time></trkpt>
<trkpt lat="29.004502" lon="98.607777">
<time>2016-10-07T13:06:46Z</time></trkpt>
<trkpt lat="29.004522" lon="98.607807">
<time>2016-10-07T13:06:47Z</time></trkpt>
<trkpt lat="29.004532" lon="98.607847">
<time>2016-10-07T13:06:48Z</time></trkpt>
<trkpt lat="29.004542" lon="98.607887">
<time>2016-10-07T13:06:49Z</time></trkpt>
<trkpt lat="29.004552" lon="98.607927">
<time>2016-10-07T13:06:50Z</time></trkpt>
<trkpt lat="29.004552" lon="98.607967">
<time>2016-10-07T13:06:51Z</time></trkpt>
<trkpt lat="29.004552" lon="98.607997">
<time>2016-10-07T13:06:52Z</time></trkpt>
<trkpt lat="29.004551" lon="98.608057">
<time>2016-10-07T13:06:53Z</time></trkpt>
<trkpt lat="29.004531" lon="98.608187">
<time>2016-10-07T13:06:54Z</time></trkpt>
<trkpt lat="29.004501" lon="98.608286">
<time>2016-10-07T13:06:55Z</time></trkpt>
<trkpt lat="29.004481" lon="98.608396">
<time>2016-10-07T13:06:56Z</time></trkpt>
<trkpt lat="29.004461" lon="98.608486">
<time>2016-10-07T13:06:57Z</time></trkpt>
<trkpt lat="29.004451" lon="98.608576">
<time>2016-10-07T13:06:58Z</time></trkpt>
<trkpt lat="29.004451" lon="98.608676">
<time>2016-10-07T13:06:59Z</time></trkpt>
<trkpt lat="29.004451" lon="98.608776">
<time>2016-10-07T13:07:00Z</time></trkpt>
<trkpt lat="29.004461" lon="98.608856">
<time>2016-10-07T13:07:01Z</time></trkpt>
<trkpt lat="29.004471" lon="98.608956">
<time>2016-10-07T13:07:02Z</time></trkpt>
<trkpt lat="29.004481" lon="98.609026">
<time>2016-10-07T13:07:03Z</time></trkpt>
<trkpt lat="29.004511" lon="98.609135">
<time>2016-10-07T13:07:04Z</time></trkpt>
<trkpt lat="29.004531" lon="98.609215">
<time>2016-10-07T13:07:05Z</time></trkpt>
<trkpt lat="29.004551" lon="98.609305">
<time>2016-10-07T13:07:06Z</time></trkpt>
<trkpt lat="29.004561" lon="98.609385">
<time>2016-10-07T13:07:07Z</time></trkpt>
<trkpt lat="29.004571" lon="98.609495">
<time>2016-10-07T13:07:08Z</time></trkpt>
<trkpt lat="29.004581" lon="98.609545">
<time>2016-10-07T13:07:09Z</time></trkpt>
<trkpt lat="29.004581" lon="98.609645">
<time>2016-10-07T13:07:10Z</time></trkpt>
<trkpt lat="29.004571" lon="98.609755">
<time>2016-10-07T13:07:11Z</time></trkpt>
<trkpt lat="29.004561" lon="98.609845">
<time>2016-10-07T13:07:12Z</time></trkpt>
<trkpt lat="29.00453" lon="98.610174">
<time>2016-10-07T13:07:13Z</time></trkpt>
<trkpt lat="29.0045" lon="98.610484">
<time>2016-10-07T13:07:14Z</time></trkpt>
<trkpt lat="29.00449" lon="98.610664">
<time>2016-10-07T13:07:15Z</time></trkpt>
<trkpt lat="29.00447" lon="98.610903">
<time>2016-10-07T13:07:16Z</time></trkpt>
<trkpt lat="29.00447" lon="98.611023">
<time>2016-10-07T13:07:17Z</time></trkpt>
<trkpt lat="29.00448" lon="98.611103">
<time>2016-10-07T13:07:18Z</time></trkpt>
<trkpt lat="29.00448" lon="98.611173">
<time>2016-10-07T13:07:19Z</time></trkpt>
<trkpt lat="29.0045" lon="98.611253">
<time>2016-10-07T13:07:20Z</time></trkpt>
<trkpt lat="29.00451" lon="98.611323">
<time>2016-10-07T13:07:21Z</time></trkpt>
<trkpt lat="29.00453" lon="98.611433">
<time>2016-10-07T13:07:22Z</time></trkpt>
<trkpt lat="29.00455" lon="98.611493">
<time>2016-10-07T13:07:23Z</time></trkpt>
<trkpt lat="29.00457" lon="98.611543">
<time>2016-10-07T13:07:24Z</time></trkpt>
<trkpt lat="29.00459" lon="98.611593">
<time>2016-10-07T13:07:25Z</time></trkpt>
<trkpt lat="29.00461" lon="98.611633">
<time>2016-10-07T13:07:26Z</time></trkpt>
<trkpt lat="29.00464" lon="98.611693">
<time>2016-10-07T13:07:27Z</time></trkpt>
<trkpt lat="29.004659" lon="98.611713">
<time>2016-10-07T13:07:28Z</time></trkpt>
<trkpt lat="29.004689" lon="98.611742">
<time>2016-10-07T13:07:29Z</time></trkpt>
<trkpt lat="29.004729" lon="98.611772">
<time>2016-10-07T13:07:30Z</time></trkpt>
<trkpt lat="29.004769" lon="98.611802">
<time>2016-10-07T13:07:31Z</time></trkpt>
<trkpt lat="29.004809" lon="98.611812">
<time>2016-10-07T13:07:32Z</time></trkpt>
<trkpt lat="29.004829" lon="98.611812">
<time>2016-10-07T13:07:33Z</time></trkpt>
<trkpt lat="29.004869" lon="98.611822">
<time>2016-10-07T13:07:34Z</time></trkpt>
<trkpt lat="29.004919" lon="98.611812">
<time>2016-10-07T13:07:35Z</time></trkpt>
<trkpt lat="29.004969" lon="98.611802">
<time>2016-10-07T13:07:36Z</time></trkpt>
<trkpt lat="29.005039" lon="98.611772">
<time>2016-10-07T13:07:37Z</time></trkpt>
<trkpt lat="29.005089" lon="98.611732">
<time>2016-10-07T13:07:38Z</time></trkpt>
<trkpt lat="29.005159" lon="98.611663">
<time>2016-10-07T13:07:39Z</time></trkpt>
<trkpt lat="29.005489" lon="98.611333">
<time>2016-10-07T13:07:40Z</time></trkpt>
<trkpt lat="29.005809" lon="98.611013">
<time>2016-10-07T13:07:41Z</time></trkpt>
<trkpt lat="29.006019" lon="98.610804">
<time>2016-10-07T13:07:42Z</time></trkpt>
<trkpt lat="29.006129" lon="98.610704">
<time>2016-10-07T13:07:43Z</time></trkpt>
<trkpt lat="29.006229" lon="98.610604">
<time>2016-10-07T13:07:44Z</time></trkpt>
<trkpt lat="29.006309" lon="98.610534">
<time>2016-10-07T13:07:45Z</time></trkpt>
<trkpt lat="29.006369" lon="98.610474">
<time>2016-10-07T13:07:46Z</time></trkpt>
<trkpt lat="29.006429" lon="98.610424">
<time>2016-10-07T13:07:47Z</time></trkpt>
<trkpt lat="29.006479" lon="98.610394">
<time>2016-10-07T13:07:48Z</time></trkpt>
<trkpt lat="29.006519" lon="98.610374">
<time>2016-10-07T13:07:49Z</time></trkpt>
<trkpt lat="29.006579" lon="98.610354">
<time>2016-10-07T13:07:50Z</time></trkpt>
<trkpt lat="29.006609" lon="98.610354">
<time>2016-10-07T13:07:51Z</time></trkpt>
<trkpt lat="29.006649" lon="98.610354">
<time>2016-10-07T13:07:52Z</time></trkpt>
<trkpt lat="29.006679" lon="98.610364">
<time>2016-10-07T13:07:53Z</time></trkpt>
<trkpt lat="29.006709" lon="98.610374">
<time>2016-10-07T13:07:54Z</time></trkpt>
<trkpt lat="29.006739" lon="98.610394">
<time>2016-10-07T13:07:55Z</time></trkpt>
<trkpt lat="29.006769" lon="98.610414">
<time>2016-10-07T13:07:56Z</time></trkpt>
<trkpt lat="29.006808" lon="98.610454">
<time>2016-10-07T13:07:57Z</time></trkpt>
<trkpt lat="29.006858" lon="98.610504">
<time>2016-10-07T13:07:58Z</time></trkpt>
<trkpt lat="29.006928" lon="98.610564">
<time>2016-10-07T13:07:59Z</time></trkpt>
<trkpt lat="29.006998" lon="98.610614">
<time>2016-10-07T13:08:00Z</time></trkpt>
<trkpt lat="29.007028" lon="98.610634">
<time>2016-10-07T13:08:01Z</time></trkpt>
<trkpt lat="29.007078" lon="98.610654">
<time>2016-10-07T13:08:02Z</time></trkpt>
<trkpt lat="29.007118" lon="98.610674">
<time>2016-10-07T13:08:03Z</time></trkpt>
<trkpt lat="29.007168" lon="98.610694">
<time>2016-10-07T13:08:04Z</time></trkpt>
<trkpt lat="29.007218" lon="98.610704">
<time>2016-10-07T13:08:05Z</time></trkpt>
<trkpt lat="29.007318" lon="98.610724">
<time>2016-10-07T13:08:06Z</time></trkpt>
<trkpt lat="29.007378" lon="98.610724">
<time>2016-10-07T13:08:07Z</time></trkpt>
<trkpt lat="29.007428" lon="98.610724">
<time>2016-10-07T13:08:08Z</time></trkpt>
<trkpt lat="29.007528" lon="98.610724">
<time>2016-10-07T13:08:09Z</time></trkpt>
<trkpt lat="29.007578" lon="98.610734">
<time>2016-10-07T13:08:10Z</time></trkpt>
<trkpt lat="29.007648" lon="98.610754">
<time>2016-10-07T13:08:11Z</time></trkpt>
<trkpt lat="29.007708" lon="98.610774">
<time>2016-10-07T13:08:12Z</time></trkpt>
<trkpt lat="29.007748" lon="98.610794">
<time>2016-10-07T13:08:13Z</time></trkpt>
<trkpt lat="29.007778" lon="98.610814">
<time>2016-10-07T13:08:14Z</time></trkpt>
<trkpt lat="29.007807" lon="98.610834">
<time>2016-10-07T13:08:15Z</time></trkpt>
<trkpt lat="29.007867" lon="98.610883">
<time>2016-10-07T13:08:16Z</time></trkpt>
<trkpt lat="29.007917" lon="98.610933">
<time>2016-10-07T13:08:17Z</time></trkpt>
<trkpt lat="29.007957" lon="98.610993">
<time>2016-10-07T13:08:18Z</time></trkpt>
<trkpt lat="29.008007" lon="98.611073">
<time>2016-10-07T13:08:19Z</time></trkpt>
<trkpt lat="29.008067" lon="98.611153">
<time>2016-10-07T13:08:20Z</time></trkpt>
<trkpt lat="29.008147" lon="98.611283">
<time>2016-10-07T13:08:21Z</time></trkpt>
<trkpt lat="29.008287" lon="98.611503">
<time>2016-10-07T13:08:22Z</time></trkpt>
<trkpt lat="29.008397" lon="98.611663">
<time>2016-10-07T13:08:23Z</time></trkpt>
<trkpt lat="29.008476" lon="98.611792">
<time>2016-10-07T13:08:24Z</time></trkpt>
<trkpt lat="29.008566" lon="98.611932">
<time>2016-10-07T13:08:25Z</time></trkpt>
<trkpt lat="29.008646" lon="98.612042">
<time>2016-10-07T13:08:26Z</time></trkpt>
<trkpt lat="29.008726" lon="98.612162">
<time>2016-10-07T13:08:27Z</time></trkpt>
<trkpt lat="29.008776" lon="98.612222">
<time>2016-10-07T13:08:28Z</time></trkpt>
<trkpt lat="29.008826" lon="98.612272">
<time>2016-10-07T13:08:29Z</time></trkpt>
<trkpt lat="29.008856" lon="98.612312">
<time>2016-10-07T13:08:30Z</time></trkpt>
<trkpt lat="29.008926" lon="98.612362">
<time>2016-10-07T13:08:31Z</time></trkpt>
<trkpt lat="29.008996" lon="98.612402">
<time>2016-10-07T13:08:32Z</time></trkpt>
<trkpt lat="29.009066" lon="98.612442">
<time>2016-10-07T13:08:33Z</time></trkpt>
<trkpt lat="29.009155" lon="98.612491">
<time>2016-10-07T13:08:34Z</time></trkpt>
<trkpt lat="29.009265" lon="98.612541">
<time>2016-10-07T13:08:35Z</time></trkpt>
<trkpt lat="29.009375" lon="98.612591">
<time>2016-10-07T13:08:36Z</time></trkpt>
<trkpt lat="29.009485" lon="98.612641">
<time>2016-10-07T13:08:37Z</time></trkpt>
<trkpt lat="29.009675" lon="98.612731">
<time>2016-10-07T13:08:38Z</time></trkpt>
<trkpt lat="29.009765" lon="98.612771">
<time>2016-10-07T13:08:39Z</time></trkpt>
<trkpt lat="29.009845" lon="98.612801">
<time>2016-10-07T13:08:40Z</time></trkpt>
<trkpt lat="29.009935" lon="98.612821">
<time>2016-10-07T13:08:41Z</time></trkpt>
<trkpt lat="29.010044" lon="98.612831">
<time>2016-10-07T13:08:42Z</time></trkpt>
<trkpt lat="29.010124" lon="98.612821">
<time>2016-10-07T13:08:43Z</time></trkpt>
<trkpt lat="29.010204" lon="98.612811">
<time>2016-10-07T13:08:44Z</time></trkpt>
<trkpt lat="29.010274" lon="98.612791">
<time>2016-10-07T13:08:45Z</time></trkpt>
<trkpt lat="29.010384" lon="98.612751">
<time>2016-10-07T13:08:46Z</time></trkpt>
<trkpt lat="29.010544" lon="98.612701">
<time>2016-10-07T13:08:47Z</time></trkpt>
<trkpt lat="29.010634" lon="98.612651">
<time>2016-10-07T13:08:48Z</time></trkpt>
<trkpt lat="29.010704" lon="98.612611">
<time>2016-10-07T13:08:49Z</time></trkpt>
<trkpt lat="29.010804" lon="98.612541">
<time>2016-10-07T13:08:50Z</time></trkpt>
<trkpt lat="29.010874" lon="98.612471">
<time>2016-10-07T13:08:51Z</time></trkpt>
<trkpt lat="29.011184" lon="98.612142">
<time>2016-10-07T13:08:52Z</time></trkpt>
<trkpt lat="29.011234" lon="98.612082">
<time>2016-10-07T13:08:53Z</time></trkpt>
<trkpt lat="29.011284" lon="98.612042">
<time>2016-10-07T13:08:54Z</time></trkpt>
<trkpt lat="29.011334" lon="98.612012">
<time>2016-10-07T13:08:55Z</time></trkpt>
<trkpt lat="29.011394" lon="98.611992">
<time>2016-10-07T13:08:56Z</time></trkpt>
<trkpt lat="29.011454" lon="98.611972">
<time>2016-10-07T13:08:57Z</time></trkpt>
<trkpt lat="29.011544" lon="98.611982">
<time>2016-10-07T13:08:58Z</time></trkpt>
<trkpt lat="29.011664" lon="98.611992">
<time>2016-10-07T13:08:59Z</time></trkpt>
<trkpt lat="29.011744" lon="98.611992">
<time>2016-10-07T13:09:00Z</time></trkpt>
<trkpt lat="29.011844" lon="98.611982">
<time>2016-10-07T13:09:01Z</time></trkpt>
<trkpt lat="29.011924" lon="98.611962">
<time>2016-10-07T13:09:02Z</time></trkpt>
<trkpt lat="29.012004" lon="98.611932">
<time>2016-10-07T13:09:03Z</time></trkpt>
<trkpt lat="29.012133" lon="98.611872">
<time>2016-10-07T13:09:04Z</time></trkpt>
<trkpt lat="29.012283" lon="98.611802">
<time>2016-10-07T13:09:05Z</time></trkpt>
<trkpt lat="29.012463" lon="98.611722">
<time>2016-10-07T13:09:06Z</time></trkpt>
<trkpt lat="29.012603" lon="98.611672">
<time>2016-10-07T13:09:07Z</time></trkpt>
<trkpt lat="29.012713" lon="98.611642">
<time>2016-10-07T13:09:08Z</time></trkpt>
<trkpt lat="29.012823" lon="98.611613">
<time>2016-10-07T13:09:09Z</time></trkpt>
<trkpt lat="29.012923" lon="98.611583">
<time>2016-10-07T13:09:10Z</time></trkpt>
<trkpt lat="29.013073" lon="98.611573">
<time>2016-10-07T13:09:11Z</time></trkpt>
<trkpt lat="29.013163" lon="98.611583">
<time>2016-10-07T13:09:12Z</time></trkpt>
<trkpt lat="29.013243" lon="98.611593">
<time>2016-10-07T13:09:13Z</time></trkpt>
<trkpt lat="29.013393" lon="98.611632">
<time>2016-10-07T13:09:14Z</time></trkpt>
<trkpt lat="29.013483" lon="98.611652">
<time>2016-10-07T13:09:15Z</time></trkpt>
<trkpt lat="29.013612" lon="98.611702">
<time>2016-10-07T13:09:16Z</time></trkpt>
<trkpt lat="29.013692" lon="98.611722">
<time>2016-10-07T13:09:17Z</time></trkpt>
<trkpt lat="29.013802" lon="98.611742">
<time>2016-10-07T13:09:18Z</time></trkpt>
<trkpt lat="29.013882" lon="98.611742">
<time>2016-10-07T13:09:19Z</time></trkpt>
<trkpt lat="29.013972" lon="98.611732">
<time>2016-10-07T13:09:20Z</time></trkpt>
<trkpt lat="29.014072" lon="98.611702">
<time>2016-10-07T13:09:21Z</time></trkpt>
<trkpt lat="29.014172" lon="98.611652">
<time>2016-10-07T13:09:22Z</time></trkpt>
<trkpt lat="29.014262" lon="98.611632">
<time>2016-10-07T13:09:23Z</time></trkpt>
<trkpt lat="29.014332" lon="98.611622">
<time>2016-10-07T13:09:24Z</time></trkpt>
<trkpt lat="29.014392" lon="98.611622">
<time>2016-10-07T13:09:25Z</time></trkpt>
<trkpt lat="29.014452" lon="98.611632">
<time>2016-10-07T13:09:26Z</time></trkpt>
<trkpt lat="29.014512" lon="98.611642">
<time>2016-10-07T13:09:27Z</time></trkpt>
<trkpt lat="29.014552" lon="98.611672">
<time>2016-10-07T13:09:28Z</time></trkpt>
<trkpt lat="29.014612" lon="98.611692">
<time>2016-10-07T13:09:29Z</time></trkpt>
<trkpt lat="29.014662" lon="98.611712">
<time>2016-10-07T13:09:30Z</time></trkpt>
<trkpt lat="29.014711" lon="98.611722">
<time>2016-10-07T13:09:31Z</time></trkpt>
<trkpt lat="29.014761" lon="98.611732">
<time>2016-10-07T13:09:32Z</time></trkpt>
<trkpt lat="29.014841" lon="98.611722">
<time>2016-10-07T13:09:33Z</time></trkpt>
<trkpt lat="29.014891" lon="98.611702">
<time>2016-10-07T13:09:34Z</time></trkpt>
<trkpt lat="29.014961" lon="98.611662">
<time>2016-10-07T13:09:35Z</time></trkpt>
<trkpt lat="29.015011" lon="98.611622">
<time>2016-10-07T13:09:36Z</time></trkpt>
<trkpt lat="29.015101" lon="98.611513">
<time>2016-10-07T13:09:37Z</time></trkpt>
<trkpt lat="29.015191" lon="98.611383">
<time>2016-10-07T13:09:38Z</time></trkpt>
<trkpt lat="29.015271" lon="98.611293">
<time>2016-10-07T13:09:39Z</time></trkpt>
<trkpt lat="29.015341" lon="98.611243">
<time>2016-10-07T13:09:40Z</time></trkpt>
<trkpt lat="29.015391" lon="98.611213">
<time>2016-10-07T13:09:41Z</time></trkpt>
<trkpt lat="29.015461" lon="98.611183">
<time>2016-10-07T13:09:42Z</time></trkpt>
<trkpt lat="29.015521" lon="98.611173">
<time>2016-10-07T13:09:43Z</time></trkpt>
<trkpt lat="29.015641" lon="98.611153">
<time>2016-10-07T13:09:44Z</time></trkpt>
<trkpt lat="29.015731" lon="98.611143">
<time>2016-10-07T13:09:45Z</time></trkpt>
<trkpt lat="29.015891" lon="98.611133">
<time>2016-10-07T13:09:46Z</time></trkpt>
<trkpt lat="29.016051" lon="98.611113">
<time>2016-10-07T13:09:47Z</time></trkpt>
<trkpt lat="29.016301" lon="98.611093">
<time>2016-10-07T13:09:48Z</time></trkpt>
<trkpt lat="29.01644" lon="98.611073">
<time>2016-10-07T13:09:49Z</time></trkpt>
<trkpt lat="29.01654" lon="98.611063">
<time>2016-10-07T13:09:50Z</time></trkpt>
<trkpt lat="29.01669" lon="98.611033">
<time>2016-10-07T13:09:51Z</time></trkpt>
<trkpt lat="29.01678" lon="98.611003">
<time>2016-10-07T13:09:52Z</time></trkpt>
<trkpt lat="29.01687" lon="98.610973">
<time>2016-10-07T13:09:53Z</time></trkpt>
<trkpt lat="29.01697" lon="98.610923">
<time>2016-10-07T13:09:54Z</time></trkpt>
<trkpt lat="29.01707" lon="98.610863">
<time>2016-10-07T13:09:55Z</time></trkpt>
<trkpt lat="29.01717" lon="98.610803">
<time>2016-10-07T13:09:56Z</time></trkpt>
<trkpt lat="29.0176" lon="98.610524">
<time>2016-10-07T13:09:57Z</time></trkpt>
<trkpt lat="29.01775" lon="98.610434">
<time>2016-10-07T13:09:58Z</time></trkpt>
<trkpt lat="29.01789" lon="98.610344">
<time>2016-10-07T13:09:59Z</time></trkpt>
<trkpt lat="29.01804" lon="98.610234">
<time>2016-10-07T13:10:00Z</time></trkpt>
<trkpt lat="29.01831" lon="98.610014">
<time>2016-10-07T13:10:01Z</time></trkpt>
<trkpt lat="29.0184" lon="98.609934">
<time>2016-10-07T13:10:02Z</time></trkpt>
<trkpt lat="29.01853" lon="98.609785">
<time>2016-10-07T13:10:03Z</time></trkpt>
<trkpt lat="29.018769" lon="98.609535">
<time>2016-10-07T13:10:04Z</time></trkpt>
<trkpt lat="29.018849" lon="98.609445">
<time>2016-10-07T13:10:05Z</time></trkpt>
<trkpt lat="29.018909" lon="98.609385">
<time>2016-10-07T13:10:06Z</time></trkpt>
<trkpt lat="29.018999" lon="98.609265">
<time>2016-10-07T13:10:07Z</time></trkpt>
<trkpt lat="29.019099" lon="98.609155">
<time>2016-10-07T13:10:08Z</time></trkpt>
<trkpt lat="29.019189" lon="98.609045">
<time>2016-10-07T13:10:09Z</time></trkpt>
<trkpt lat="29.019269" lon="98.608965">
<time>2016-10-07T13:10:10Z</time></trkpt>
<trkpt lat="29.019329" lon="98.608906">
<time>2016-10-07T13:10:11Z</time></trkpt>
<trkpt lat="29.019389" lon="98.608876">
<time>2016-10-07T13:10:12Z</time></trkpt>
<trkpt lat="29.019449" lon="98.608846">
<time>2016-10-07T13:10:13Z</time></trkpt>
<trkpt lat="29.019509" lon="98.608836">
<time>2016-10-07T13:10:14Z</time></trkpt>
<trkpt lat="29.019559" lon="98.608836">
<time>2016-10-07T13:10:15Z</time></trkpt>
<trkpt lat="29.019619" lon="98.608836">
<time>2016-10-07T13:10:16Z</time></trkpt>
<trkpt lat="29.019659" lon="98.608846">
<time>2016-10-07T13:10:17Z</time></trkpt>
<trkpt lat="29.019699" lon="98.608856">
<time>2016-10-07T13:10:18Z</time></trkpt>
<trkpt lat="29.019749" lon="98.608876">
<time>2016-10-07T13:10:19Z</time></trkpt>
<trkpt lat="29.019849" lon="98.608925">
<time>2016-10-07T13:10:20Z</time></trkpt>
<trkpt lat="29.019939" lon="98.608975">
<time>2016-10-07T13:10:21Z</time></trkpt>
<trkpt lat="29.020109" lon="98.609065">
<time>2016-10-07T13:10:22Z</time></trkpt>
<trkpt lat="29.020348" lon="98.609185">
<time>2016-10-07T13:10:23Z</time></trkpt>
<trkpt lat="29.020508" lon="98.609265">
<time>2016-10-07T13:10:24Z</time></trkpt>
<trkpt lat="29.020678" lon="98.609355">
<time>2016-10-07T13:10:25Z</time></trkpt>
<trkpt lat="29.020808" lon="98.609425">
<time>2016-10-07T13:10:26Z</time></trkpt>
<trkpt lat="29.021048" lon="98.609555">
<time>2016-10-07T13:10:27Z</time></trkpt>
<trkpt lat="29.021128" lon="98.609595">
<time>2016-10-07T13:10:28Z</time></trkpt>
<trkpt lat="29.021267" lon="98.609675">
<time>2016-10-07T13:10:29Z</time></trkpt>
<trkpt lat="29.021387" lon="98.609735">
<time>2016-10-07T13:10:30Z</time></trkpt>
<trkpt lat="29.021507" lon="98.609804">
<time>2016-10-07T13:10:31Z</time></trkpt>
<trkpt lat="29.021557" lon="98.609854">
<time>2016-10-07T13:10:32Z</time></trkpt>
<trkpt lat="29.021627" lon="98.609914">
<time>2016-10-07T13:10:33Z</time></trkpt>
<trkpt lat="29.021677" lon="98.609974">
<time>2016-10-07T13:10:34Z</time></trkpt>
<trkpt lat="29.021727" lon="98.610064">
<time>2016-10-07T13:10:35Z</time></trkpt>
<trkpt lat="29.021767" lon="98.610134">
<time>2016-10-07T13:10:36Z</time></trkpt>
<trkpt lat="29.021787" lon="98.610184">
<time>2016-10-07T13:10:37Z</time></trkpt>
<trkpt lat="29.021807" lon="98.610244">
<time>2016-10-07T13:10:38Z</time></trkpt>
<trkpt lat="29.021827" lon="98.610304">
<time>2016-10-07T13:10:39Z</time></trkpt>
<trkpt lat="29.021837" lon="98.610384">
<time>2016-10-07T13:10:40Z</time></trkpt>
<trkpt lat="29.021847" lon="98.610464">
<time>2016-10-07T13:10:41Z</time></trkpt>
<trkpt lat="29.021866" lon="98.610544">
<time>2016-10-07T13:10:42Z</time></trkpt>
<trkpt lat="29.021876" lon="98.610624">
<time>2016-10-07T13:10:43Z</time></trkpt>
<trkpt lat="29.021896" lon="98.610673">
<time>2016-10-07T13:10:44Z</time></trkpt>
<trkpt lat="29.021916" lon="98.610703">
<time>2016-10-07T13:10:45Z</time></trkpt>
<trkpt lat="29.021946" lon="98.610763">
<time>2016-10-07T13:10:46Z</time></trkpt>
<trkpt lat="29.021986" lon="98.610803">
<time>2016-10-07T13:10:47Z</time></trkpt>
<trkpt lat="29.022006" lon="98.610833">
<time>2016-10-07T13:10:48Z</time></trkpt>
<trkpt lat="29.022046" lon="98.610853">
<time>2016-10-07T13:10:49Z</time></trkpt>
<trkpt lat="29.022096" lon="98.610873">
<time>2016-10-07T13:10:50Z</time></trkpt>
<trkpt lat="29.022126" lon="98.610883">
<time>2016-10-07T13:10:51Z</time></trkpt>
<trkpt lat="29.022176" lon="98.610883">
<time>2016-10-07T13:10:52Z</time></trkpt>
<trkpt lat="29.022206" lon="98.610883">
<time>2016-10-07T13:10:53Z</time></trkpt>
<trkpt lat="29.022276" lon="98.610873">
<time>2016-10-07T13:10:54Z</time></trkpt>
<trkpt lat="29.022336" lon="98.610843">
<time>2016-10-07T13:10:55Z</time></trkpt>
<trkpt lat="29.022376" lon="98.610813">
<time>2016-10-07T13:10:56Z</time></trkpt>
<trkpt lat="29.022446" lon="98.610743">
<time>2016-10-07T13:10:57Z</time></trkpt>
<trkpt lat="29.022526" lon="98.610643">
<time>2016-10-07T13:10:58Z</time></trkpt>
<trkpt lat="29.022596" lon="98.610554">
<time>2016-10-07T13:10:59Z</time></trkpt>
<trkpt lat="29.022746" lon="98.610364">
<time>2016-10-07T13:11:00Z</time></trkpt>
<trkpt lat="29.022836" lon="98.610254">
<time>2016-10-07T13:11:01Z</time></trkpt>
<trkpt lat="29.022906" lon="98.610174">
<time>2016-10-07T13:11:02Z</time></trkpt>
<trkpt lat="29.022956" lon="98.610124">
<time>2016-10-07T13:11:03Z</time></trkpt>
<trkpt lat="29.023016" lon="98.610094">
<time>2016-10-07T13:11:04Z</time></trkpt>
<trkpt lat="29.023056" lon="98.610074">
<time>2016-10-07T13:11:05Z</time></trkpt>
<trkpt lat="29.023096" lon="98.610064">
<time>2016-10-07T13:11:06Z</time></trkpt>
<trkpt lat="29.023146" lon="98.610054">
<time>2016-10-07T13:11:07Z</time></trkpt>
<trkpt lat="29.023196" lon="98.610064">
<time>2016-10-07T13:11:08Z</time></trkpt>
<trkpt lat="29.023266" lon="98.610084">
<time>2016-10-07T13:11:09Z</time></trkpt>
<trkpt lat="29.023376" lon="98.610134">
<time>2016-10-07T13:11:10Z</time></trkpt>
<trkpt lat="29.023525" lon="98.610194">
<time>2016-10-07T13:11:11Z</time></trkpt>
<trkpt lat="29.023715" lon="98.610284">
<time>2016-10-07T13:11:12Z</time></trkpt>
<trkpt lat="29.023845" lon="98.610344">
<time>2016-10-07T13:11:13Z</time></trkpt>
<trkpt lat="29.023965" lon="98.610394">
<time>2016-10-07T13:11:14Z</time></trkpt>
<trkpt lat="29.024045" lon="98.610454">
<time>2016-10-07T13:11:15Z</time></trkpt>
<trkpt lat="29.024145" lon="98.610544">
<time>2016-10-07T13:11:16Z</time></trkpt>
<trkpt lat="29.024205" lon="98.610604">
<time>2016-10-07T13:11:17Z</time></trkpt>
<trkpt lat="29.024284" lon="98.610693">
<time>2016-10-07T13:11:18Z</time></trkpt>
<trkpt lat="29.024364" lon="98.610783">
<time>2016-10-07T13:11:19Z</time></trkpt>
<trkpt lat="29.024404" lon="98.610813">
<time>2016-10-07T13:11:20Z</time></trkpt>
<trkpt lat="29.024444" lon="98.610823">
<time>2016-10-07T13:11:21Z</time></trkpt>
<trkpt lat="29.024504" lon="98.610843">
<time>2016-10-07T13:11:22Z</time></trkpt>
<trkpt lat="29.024554" lon="98.610843">
<time>2016-10-07T13:11:23Z</time></trkpt>
<trkpt lat="29.024594" lon="98.610833">
<time>2016-10-07T13:11:24Z</time></trkpt>
<trkpt lat="29.024644" lon="98.610803">
<time>2016-10-07T13:11:25Z</time></trkpt>
<trkpt lat="29.024684" lon="98.610753">
<time>2016-10-07T13:11:26Z</time></trkpt>
<trkpt lat="29.024714" lon="98.610713">
<time>2016-10-07T13:11:27Z</time></trkpt>
<trkpt lat="29.024734" lon="98.610653">
<time>2016-10-07T13:11:28Z</time></trkpt>
<trkpt lat="29.024744" lon="98.610574">
<time>2016-10-07T13:11:29Z</time></trkpt>
<trkpt lat="29.024744" lon="98.610444">
<time>2016-10-07T13:11:30Z</time></trkpt>
<trkpt lat="29.024744" lon="98.610354">
<time>2016-10-07T13:11:31Z</time></trkpt>
<trkpt lat="29.024714" lon="98.610214">
<time>2016-10-07T13:11:32Z</time></trkpt>
<trkpt lat="29.024665" lon="98.610074">
<time>2016-10-07T13:11:33Z</time></trkpt>
<trkpt lat="29.024605" lon="98.609934">
<time>2016-10-07T13:11:34Z</time></trkpt>
<trkpt lat="29.024525" lon="98.609774">
<time>2016-10-07T13:11:35Z</time></trkpt>
<trkpt lat="29.024435" lon="98.609615">
<time>2016-10-07T13:11:36Z</time></trkpt>
<trkpt lat="29.024385" lon="98.609525">
<time>2016-10-07T13:11:37Z</time></trkpt>
<trkpt lat="29.024325" lon="98.609395">
<time>2016-10-07T13:11:38Z</time></trkpt>
<trkpt lat="29.024285" lon="98.609265">
<time>2016-10-07T13:11:39Z</time></trkpt>
<trkpt lat="29.024255" lon="98.609145">
<time>2016-10-07T13:11:40Z</time></trkpt>
<trkpt lat="29.024245" lon="98.609055">
<time>2016-10-07T13:11:41Z</time></trkpt>
<trkpt lat="29.024235" lon="98.608995">
<time>2016-10-07T13:11:42Z</time></trkpt>
<trkpt lat="29.024245" lon="98.608945">
<time>2016-10-07T13:11:43Z</time></trkpt>
<trkpt lat="29.024255" lon="98.608895">
<time>2016-10-07T13:11:44Z</time></trkpt>
<trkpt lat="29.024255" lon="98.608855">
<time>2016-10-07T13:11:45Z</time></trkpt>
<trkpt lat="29.024275" lon="98.608816">
<time>2016-10-07T13:11:46Z</time></trkpt>
<trkpt lat="29.024295" lon="98.608776">
<time>2016-10-07T13:11:47Z</time></trkpt>
<trkpt lat="29.024325" lon="98.608736">
<time>2016-10-07T13:11:48Z</time></trkpt>
<trkpt lat="29.024345" lon="98.608716">
<time>2016-10-07T13:11:49Z</time></trkpt>
<trkpt lat="29.024395" lon="98.608686">
<time>2016-10-07T13:11:50Z</time></trkpt>
<trkpt lat="29.024465" lon="98.608666">
<time>2016-10-07T13:11:51Z</time></trkpt>
<trkpt lat="29.024505" lon="98.608646">
<time>2016-10-07T13:11:52Z</time></trkpt>
<trkpt lat="29.024565" lon="98.608636">
<time>2016-10-07T13:11:53Z</time></trkpt>
<trkpt lat="29.024605" lon="98.608636">
<time>2016-10-07T13:11:54Z</time></trkpt>
<trkpt lat="29.024645" lon="98.608646">
<time>2016-10-07T13:11:55Z</time></trkpt>
<trkpt lat="29.024705" lon="98.608676">
<time>2016-10-07T13:11:56Z</time></trkpt>
<trkpt lat="29.024815" lon="98.608726">
<time>2016-10-07T13:11:57Z</time></trkpt>
<trkpt lat="29.024985" lon="98.608806">
<time>2016-10-07T13:11:58Z</time></trkpt>
<trkpt lat="29.025145" lon="98.608875">
<time>2016-10-07T13:11:59Z</time></trkpt>
<trkpt lat="29.025275" lon="98.608935">
<time>2016-10-07T13:12:00Z</time></trkpt>
<trkpt lat="29.025444" lon="98.609005">
<time>2016-10-07T13:12:01Z</time></trkpt>
<trkpt lat="29.025664" lon="98.609105">
<time>2016-10-07T13:12:02Z</time></trkpt>
<trkpt lat="29.025804" lon="98.609175">
<time>2016-10-07T13:12:03Z</time></trkpt>
<trkpt lat="29.025834" lon="98.609195">
<time>2016-10-07T13:12:04Z</time></trkpt>
<trkpt lat="29.025894" lon="98.609235">
<time>2016-10-07T13:12:05Z</time></trkpt>
<trkpt lat="29.025914" lon="98.609265">
<time>2016-10-07T13:12:06Z</time></trkpt>
<trkpt lat="29.025954" lon="98.609295">
<time>2016-10-07T13:12:07Z</time></trkpt>
<trkpt lat="29.026004" lon="98.609355">
<time>2016-10-07T13:12:08Z</time></trkpt>
<trkpt lat="29.026114" lon="98.609535">
<time>2016-10-07T13:12:09Z</time></trkpt>
<trkpt lat="29.026174" lon="98.609635">
<time>2016-10-07T13:12:10Z</time></trkpt>
<trkpt lat="29.026243" lon="98.609714">
<time>2016-10-07T13:12:11Z</time></trkpt>
<trkpt lat="29.026353" lon="98.609824">
<time>2016-10-07T13:12:12Z</time></trkpt>
<trkpt lat="29.026423" lon="98.609884">
<time>2016-10-07T13:12:13Z</time></trkpt>
<trkpt lat="29.026493" lon="98.609934">
<time>2016-10-07T13:12:14Z</time></trkpt>
<trkpt lat="29.026553" lon="98.609974">
<time>2016-10-07T13:12:15Z</time></trkpt>
<trkpt lat="29.026653" lon="98.610014">
<time>2016-10-07T13:12:16Z</time></trkpt>
<trkpt lat="29.026793" lon="98.610064">
<time>2016-10-07T13:12:17Z</time></trkpt>
<trkpt lat="29.026943" lon="98.610094">
<time>2016-10-07T13:12:18Z</time></trkpt>
<trkpt lat="29.027063" lon="98.610114">
<time>2016-10-07T13:12:19Z</time></trkpt>
<trkpt lat="29.027242" lon="98.610134">
<time>2016-10-07T13:12:20Z</time></trkpt>
<trkpt lat="29.027612" lon="98.610124">
<time>2016-10-07T13:12:21Z</time></trkpt>
<trkpt lat="29.027832" lon="98.610114">
<time>2016-10-07T13:12:22Z</time></trkpt>
<trkpt lat="29.027902" lon="98.610104">
<time>2016-10-07T13:12:23Z</time></trkpt>
<trkpt lat="29.028012" lon="98.610084">
<time>2016-10-07T13:12:24Z</time></trkpt>
<trkpt lat="29.028182" lon="98.610034">
<time>2016-10-07T13:12:25Z</time></trkpt>
<trkpt lat="29.028342" lon="98.609984">
<time>2016-10-07T13:12:26Z</time></trkpt>
<trkpt lat="29.028851" lon="98.609824">
<time>2016-10-07T13:12:27Z</time></trkpt>
<trkpt lat="29.029301" lon="98.609674">
<time>2016-10-07T13:12:28Z</time></trkpt>
<trkpt lat="29.029821" lon="98.609525">
<time>2016-10-07T13:12:29Z</time></trkpt>
<trkpt lat="29.030081" lon="98.609445">
<time>2016-10-07T13:12:30Z</time></trkpt>
<trkpt lat="29.03042" lon="98.609335">
<time>2016-10-07T13:12:31Z</time></trkpt>
<trkpt lat="29.03047" lon="98.609325">
<time>2016-10-07T13:12:32Z</time></trkpt>
<trkpt lat="29.03057" lon="98.609285">
<time>2016-10-07T13:12:33Z</time></trkpt>
<trkpt lat="29.03063" lon="98.609265">
<time>2016-10-07T13:12:34Z</time></trkpt>
<trkpt lat="29.03075" lon="98.609215">
<time>2016-10-07T13:12:35Z</time></trkpt>
<trkpt lat="29.03101" lon="98.609095">
<time>2016-10-07T13:12:36Z</time></trkpt>
<trkpt lat="29.03122" lon="98.608995">
<time>2016-10-07T13:12:37Z</time></trkpt>
<trkpt lat="29.03145" lon="98.608885">
<time>2016-10-07T13:12:38Z</time></trkpt>
<trkpt lat="29.03158" lon="98.608825">
<time>2016-10-07T13:12:39Z</time></trkpt>
<trkpt lat="29.03166" lon="98.608795">
<time>2016-10-07T13:12:40Z</time></trkpt>
<trkpt lat="29.03172" lon="98.608785">
<time>2016-10-07T13:12:41Z</time></trkpt>
<trkpt lat="29.03176" lon="98.608775">
<time>2016-10-07T13:12:42Z</time></trkpt>
<trkpt lat="29.031829" lon="98.608785">
<time>2016-10-07T13:12:43Z</time></trkpt>
<trkpt lat="29.031939" lon="98.608805">
<time>2016-10-07T13:12:44Z</time></trkpt>
<trkpt lat="29.032039" lon="98.608825">
<time>2016-10-07T13:12:45Z</time></trkpt>
<trkpt lat="29.032109" lon="98.608845">
<time>2016-10-07T13:12:46Z</time></trkpt>
<trkpt lat="29.032229" lon="98.608875">
<time>2016-10-07T13:12:47Z</time></trkpt>
<trkpt lat="29.032319" lon="98.608905">
<time>2016-10-07T13:12:48Z</time></trkpt>
<trkpt lat="29.032429" lon="98.608935">
<time>2016-10-07T13:12:49Z</time></trkpt>
<trkpt lat="29.032659" lon="98.608965">
<time>2016-10-07T13:12:50Z</time></trkpt>
<trkpt lat="29.032749" lon="98.608975">
<time>2016-10-07T13:12:51Z</time></trkpt>
<trkpt lat="29.032919" lon="98.608975">
<time>2016-10-07T13:12:52Z</time></trkpt>
<trkpt lat="29.033228" lon="98.608975">
<time>2016-10-07T13:12:53Z</time></trkpt>
<trkpt lat="29.033388" lon="98.608975">
<time>2016-10-07T13:12:54Z</time></trkpt>
<trkpt lat="29.033578" lon="98.608975">
<time>2016-10-07T13:12:55Z</time></trkpt>
<trkpt lat="29.033678" lon="98.608965">
<time>2016-10-07T13:12:56Z</time></trkpt>
<trkpt lat="29.033788" lon="98.608965">
<time>2016-10-07T13:12:57Z</time></trkpt>
<trkpt lat="29.033898" lon="98.608965">
<time>2016-10-07T13:12:58Z</time></trkpt>
<trkpt lat="29.033998" lon="98.608945">
<time>2016-10-07T13:12:59Z</time></trkpt>
<trkpt lat="29.034108" lon="98.608935">
<time>2016-10-07T13:13:00Z</time></trkpt>
<trkpt lat="29.034208" lon="98.608915">
<time>2016-10-07T13:13:01Z</time></trkpt>
<trkpt lat="29.034267" lon="98.608895">
<time>2016-10-07T13:13:02Z</time></trkpt>
<trkpt lat="29.034427" lon="98.608855">
<time>2016-10-07T13:13:03Z</time></trkpt>
<trkpt lat="29.034587" lon="98.608805">
<time>2016-10-07T13:13:04Z</time></trkpt>
<trkpt lat="29.034807" lon="98.608735">
<time>2016-10-07T13:13:05Z</time></trkpt>
<trkpt lat="29.034867" lon="98.608715">
<time>2016-10-07T13:13:06Z</time></trkpt>
<trkpt lat="29.034987" lon="98.608685">
<time>2016-10-07T13:13:07Z</time></trkpt>
<trkpt lat="29.035147" lon="98.608666">
<time>2016-10-07T13:13:08Z</time></trkpt>
<trkpt lat="29.035267" lon="98.608665">
<time>2016-10-07T13:13:09Z</time></trkpt>
<trkpt lat="29.035347" lon="98.608665">
<time>2016-10-07T13:13:10Z</time></trkpt>
<trkpt lat="29.035497" lon="98.608665">
<time>2016-10-07T13:13:11Z</time></trkpt>
<trkpt lat="29.035627" lon="98.608665">
<time>2016-10-07T13:13:12Z</time></trkpt>
<trkpt lat="29.035686" lon="98.608675">
<time>2016-10-07T13:13:13Z</time></trkpt>
<trkpt lat="29.035786" lon="98.608665">
<time>2016-10-07T13:13:14Z</time></trkpt>
<trkpt lat="29.035876" lon="98.608665">
<time>2016-10-07T13:13:15Z</time></trkpt>
<trkpt lat="29.035996" lon="98.608655">
<time>2016-10-07T13:13:16Z</time></trkpt>
<trkpt lat="29.036136" lon="98.608646">
<time>2016-10-07T13:13:17Z</time></trkpt>
<trkpt lat="29.036426" lon="98.608616">
<time>2016-10-07T13:13:18Z</time></trkpt>
<trkpt lat="29.036946" lon="98.608576">
<time>2016-10-07T13:13:19Z</time></trkpt>
<trkpt lat="29.037165" lon="98.608556">
<time>2016-10-07T13:13:20Z</time></trkpt>
<trkpt lat="29.037245" lon="98.608546">
<time>2016-10-07T13:13:21Z</time></trkpt>
<trkpt lat="29.037415" lon="98.608536">
<time>2016-10-07T13:13:22Z</time></trkpt>
<trkpt lat="29.037485" lon="98.608536">
<time>2016-10-07T13:13:23Z</time></trkpt>
<trkpt lat="29.037535" lon="98.608546">
<time>2016-10-07T13:13:24Z</time></trkpt>
<trkpt lat="29.037605" lon="98.608576">
<time>2016-10-07T13:13:25Z</time></trkpt>
<trkpt lat="29.037635" lon="98.608596">
<time>2016-10-07T13:13:26Z</time></trkpt>
<trkpt lat="29.037685" lon="98.608626">
<time>2016-10-07T13:13:27Z</time></trkpt>
<trkpt lat="29.037725" lon="98.608685">
<time>2016-10-07T13:13:28Z</time></trkpt>
<trkpt lat="29.037765" lon="98.608745">
<time>2016-10-07T13:13:29Z</time></trkpt>
<trkpt lat="29.037795" lon="98.608825">
<time>2016-10-07T13:13:30Z</time></trkpt>
<trkpt lat="29.037815" lon="98.608895">
<time>2016-10-07T13:13:31Z</time></trkpt>
<trkpt lat="29.037835" lon="98.608975">
<time>2016-10-07T13:13:32Z</time></trkpt>
<trkpt lat="29.037835" lon="98.609085">
<time>2016-10-07T13:13:33Z</time></trkpt>
<trkpt lat="29.037844" lon="98.609225">
<time>2016-10-07T13:13:34Z</time></trkpt>
<trkpt lat="29.037864" lon="98.609345">
<time>2016-10-07T13:13:35Z</time></trkpt>
<trkpt lat="29.037894" lon="98.609435">
<time>2016-10-07T13:13:36Z</time></trkpt>
<trkpt lat="29.037924" lon="98.609505">
<time>2016-10-07T13:13:37Z</time></trkpt>
<trkpt lat="29.037974" lon="98.609574">
<time>2016-10-07T13:13:38Z</time></trkpt>
<trkpt lat="29.038024" lon="98.609644">
<time>2016-10-07T13:13:39Z</time></trkpt>
<trkpt lat="29.038074" lon="98.609684">
<time>2016-10-07T13:13:40Z</time></trkpt>
<trkpt lat="29.038144" lon="98.609734">
<time>2016-10-07T13:13:41Z</time></trkpt>
<trkpt lat="29.038234" lon="98.609784">
<time>2016-10-07T13:13:42Z</time></trkpt>
<trkpt lat="29.038334" lon="98.609834">
<time>2016-10-07T13:13:43Z</time></trkpt>
<trkpt lat="29.038424" lon="98.609874">
<time>2016-10-07T13:13:44Z</time></trkpt>
<trkpt lat="29.038504" lon="98.609914">
<time>2016-10-07T13:13:45Z</time></trkpt>
<trkpt lat="29.038603" lon="98.609964">
<time>2016-10-07T13:13:46Z</time></trkpt>
<trkpt lat="29.038683" lon="98.610014">
<time>2016-10-07T13:13:47Z</time></trkpt>
<trkpt lat="29.038813" lon="98.610104">
<time>2016-10-07T13:13:48Z</time></trkpt>
<trkpt lat="29.038943" lon="98.610204">
<time>2016-10-07T13:13:49Z</time></trkpt>
<trkpt lat="29.039083" lon="98.610314">
<time>2016-10-07T13:13:50Z</time></trkpt>
<trkpt lat="29.039213" lon="98.610433">
<time>2016-10-07T13:13:51Z</time></trkpt>
<trkpt lat="29.039303" lon="98.610483">
<time>2016-10-07T13:13:52Z</time></trkpt>
<trkpt lat="29.039403" lon="98.610543">
<time>2016-10-07T13:13:53Z</time></trkpt>
<trkpt lat="29.039512" lon="98.610593">
<time>2016-10-07T13:13:54Z</time></trkpt>
<trkpt lat="29.039562" lon="98.610603">
<time>2016-10-07T13:13:55Z</time></trkpt>
<trkpt lat="29.039652" lon="98.610633">
<time>2016-10-07T13:13:56Z</time></trkpt>
<trkpt lat="29.039742" lon="98.610653">
<time>2016-10-07T13:13:57Z</time></trkpt>
<trkpt lat="29.039822" lon="98.610683">
<time>2016-10-07T13:13:58Z</time></trkpt>
<trkpt lat="29.039882" lon="98.610703">
<time>2016-10-07T13:13:59Z</time></trkpt>
<trkpt lat="29.039952" lon="98.610743">
<time>2016-10-07T13:14:00Z</time></trkpt>
<trkpt lat="29.040002" lon="98.610783">
<time>2016-10-07T13:14:01Z</time></trkpt>
<trkpt lat="29.040052" lon="98.610833">
<time>2016-10-07T13:14:02Z</time></trkpt>
<trkpt lat="29.040092" lon="98.610883">
<time>2016-10-07T13:14:03Z</time></trkpt>
<trkpt lat="29.040112" lon="98.610923">
<time>2016-10-07T13:14:04Z</time></trkpt>
<trkpt lat="29.040122" lon="98.610963">
<time>2016-10-07T13:14:05Z</time></trkpt>
<trkpt lat="29.040142" lon="98.611003">
<time>2016-10-07T13:14:06Z</time></trkpt>
<trkpt lat="29.040152" lon="98.611063">
<time>2016-10-07T13:14:07Z</time></trkpt>
<trkpt lat="29.040162" lon="98.611123">
<time>2016-10-07T13:14:08Z</time></trkpt>
<trkpt lat="29.040152" lon="98.611272">
<time>2016-10-07T13:14:09Z</time></trkpt>
<trkpt lat="29.040081" lon="98.611682">
<time>2016-10-07T13:14:10Z</time></trkpt>
<trkpt lat="29.040061" lon="98.611892">
<time>2016-10-07T13:14:11Z</time></trkpt>
<trkpt lat="29.040061" lon="98.612062">
<time>2016-10-07T13:14:12Z</time></trkpt>
<trkpt lat="29.040071" lon="98.612251">
<time>2016-10-07T13:14:13Z</time></trkpt>
<trkpt lat="29.040091" lon="98.612461">
<time>2016-10-07T13:14:14Z</time></trkpt>
<trkpt lat="29.040111" lon="98.612531">
<time>2016-10-07T13:14:15Z</time></trkpt>
<trkpt lat="29.040131" lon="98.612611">
<time>2016-10-07T13:14:16Z</time></trkpt>
<trkpt lat="29.040171" lon="98.612691">
<time>2016-10-07T13:14:17Z</time></trkpt>
<trkpt lat="29.040221" lon="98.612771">
<time>2016-10-07T13:14:18Z</time></trkpt>
<trkpt lat="29.04028" lon="98.612831">
<time>2016-10-07T13:14:19Z</time></trkpt>
<trkpt lat="29.04036" lon="98.61289">
<time>2016-10-07T13:14:20Z</time></trkpt>
<trkpt lat="29.04043" lon="98.61293">
<time>2016-10-07T13:14:21Z</time></trkpt>
<trkpt lat="29.04049" lon="98.61296">
<time>2016-10-07T13:14:22Z</time></trkpt>
<trkpt lat="29.04058" lon="98.61298">
<time>2016-10-07T13:14:23Z</time></trkpt>
<trkpt lat="29.04064" lon="98.61299">
<time>2016-10-07T13:14:24Z</time></trkpt>
<trkpt lat="29.04072" lon="98.613">
<time>2016-10-07T13:14:25Z</time></trkpt>
<trkpt lat="29.04091" lon="98.613">
<time>2016-10-07T13:14:26Z</time></trkpt>
<trkpt lat="29.04099" lon="98.61302">
<time>2016-10-07T13:14:27Z</time></trkpt>
<trkpt lat="29.04107" lon="98.61304">
<time>2016-10-07T13:14:28Z</time></trkpt>
<trkpt lat="29.04115" lon="98.61308">
<time>2016-10-07T13:14:29Z</time></trkpt>
<trkpt lat="29.0412" lon="98.61313">
<time>2016-10-07T13:14:30Z</time></trkpt>
<trkpt lat="29.041249" lon="98.61317">
<time>2016-10-07T13:14:31Z</time></trkpt>
<trkpt lat="29.041319" lon="98.61325">
<time>2016-10-07T13:14:32Z</time></trkpt>
<trkpt lat="29.041389" lon="98.61335">
<time>2016-10-07T13:14:33Z</time></trkpt>
<trkpt lat="29.041429" lon="98.61345">
<time>2016-10-07T13:14:34Z</time></trkpt>
<trkpt lat="29.041459" lon="98.61356">
<time>2016-10-07T13:14:35Z</time></trkpt>
<trkpt lat="29.041479" lon="98.613689">
<time>2016-10-07T13:14:36Z</time></trkpt>
<trkpt lat="29.041489" lon="98.613869">
<time>2016-10-07T13:14:37Z</time></trkpt>
<trkpt lat="29.041509" lon="98.614169">
<time>2016-10-07T13:14:38Z</time></trkpt>
<trkpt lat="29.041538" lon="98.614628">
<time>2016-10-07T13:14:39Z</time></trkpt>
<trkpt lat="29.041578" lon="98.615237">
<time>2016-10-07T13:14:40Z</time></trkpt>
<trkpt lat="29.041588" lon="98.615407">
<time>2016-10-07T13:14:41Z</time></trkpt>
<trkpt lat="29.041598" lon="98.615517">
<time>2016-10-07T13:14:42Z</time></trkpt>
<trkpt lat="29.041607" lon="98.615667">
<time>2016-10-07T13:14:43Z</time></trkpt>
<trkpt lat="29.041607" lon="98.615896">
<time>2016-10-07T13:14:44Z</time></trkpt>
<trkpt lat="29.041597" lon="98.616106">
<time>2016-10-07T13:14:45Z</time></trkpt>
<trkpt lat="29.041567" lon="98.616486">
<time>2016-10-07T13:14:46Z</time></trkpt>
<trkpt lat="29.041527" lon="98.616785">
<time>2016-10-07T13:14:47Z</time></trkpt>
<trkpt lat="29.041506" lon="98.617065">
<time>2016-10-07T13:14:48Z</time></trkpt>
<trkpt lat="29.041516" lon="98.617185">
<time>2016-10-07T13:14:49Z</time></trkpt>
<trkpt lat="29.041526" lon="98.617244">
<time>2016-10-07T13:14:50Z</time></trkpt>
<trkpt lat="29.041566" lon="98.617324">
<time>2016-10-07T13:14:51Z</time></trkpt>
<trkpt lat="29.041626" lon="98.617394">
<time>2016-10-07T13:14:52Z</time></trkpt>
<trkpt lat="29.041666" lon="98.617434">
<time>2016-10-07T13:14:53Z</time></trkpt>
<trkpt lat="29.041736" lon="98.617464">
<time>2016-10-07T13:14:54Z</time></trkpt>
<trkpt lat="29.041796" lon="98.617474">
<time>2016-10-07T13:14:55Z</time></trkpt>
<trkpt lat="29.041866" lon="98.617464">
<time>2016-10-07T13:14:56Z</time></trkpt>
<trkpt lat="29.041926" lon="98.617444">
<time>2016-10-07T13:14:57Z</time></trkpt>
<trkpt lat="29.041986" lon="98.617424">
<time>2016-10-07T13:14:58Z</time></trkpt>
<trkpt lat="29.042066" lon="98.617374">
<time>2016-10-07T13:14:59Z</time></trkpt>
<trkpt lat="29.042136" lon="98.617314">
<time>2016-10-07T13:15:00Z</time></trkpt>
<trkpt lat="29.042206" lon="98.617225">
<time>2016-10-07T13:15:01Z</time></trkpt>
<trkpt lat="29.042296" lon="98.617105">
<time>2016-10-07T13:15:02Z</time></trkpt>
<trkpt lat="29.042396" lon="98.616905">
<time>2016-10-07T13:15:03Z</time></trkpt>
<trkpt lat="29.042456" lon="98.616735">
<time>2016-10-07T13:15:04Z</time></trkpt>
<trkpt lat="29.042526" lon="98.616575">
<time>2016-10-07T13:15:05Z</time></trkpt>
<trkpt lat="29.042556" lon="98.616506">
<time>2016-10-07T13:15:06Z</time></trkpt>
<trkpt lat="29.042616" lon="98.616396">
<time>2016-10-07T13:15:07Z</time></trkpt>
<trkpt lat="29.042726" lon="98.616236">
<time>2016-10-07T13:15:08Z</time></trkpt>
<trkpt lat="29.042906" lon="98.616016">
<time>2016-10-07T13:15:09Z</time></trkpt>
<trkpt lat="29.043066" lon="98.615807">
<time>2016-10-07T13:15:10Z</time></trkpt>
<trkpt lat="29.043186" lon="98.615647">
<time>2016-10-07T13:15:11Z</time></trkpt>
<trkpt lat="29.043346" lon="98.615447">
<time>2016-10-07T13:15:12Z</time></trkpt>
<trkpt lat="29.043466" lon="98.615257">
<time>2016-10-07T13:15:13Z</time></trkpt>
<trkpt lat="29.043526" lon="98.615147">
<time>2016-10-07T13:15:14Z</time></trkpt>
<trkpt lat="29.043586" lon="98.615038">
<time>2016-10-07T13:15:15Z</time></trkpt>
<trkpt lat="29.043666" lon="98.614838">
<time>2016-10-07T13:15:16Z</time></trkpt>
<trkpt lat="29.043716" lon="98.614688">
<time>2016-10-07T13:15:17Z</time></trkpt>
<trkpt lat="29.043757" lon="98.614548">
<time>2016-10-07T13:15:18Z</time></trkpt>
<trkpt lat="29.043767" lon="98.614438">
<time>2016-10-07T13:15:19Z</time></trkpt>
<trkpt lat="29.043777" lon="98.614349">
<time>2016-10-07T13:15:20Z</time></trkpt>
<trkpt lat="29.043777" lon="98.614299">
<time>2016-10-07T13:15:21Z</time></trkpt>
<trkpt lat="29.043767" lon="98.614209">
<time>2016-10-07T13:15:22Z</time></trkpt>
<trkpt lat="29.043747" lon="98.614109">
<time>2016-10-07T13:15:23Z</time></trkpt>
<trkpt lat="29.043727" lon="98.614009">
<time>2016-10-07T13:15:24Z</time></trkpt>
<trkpt lat="29.043687" lon="98.613909">
<time>2016-10-07T13:15:25Z</time></trkpt>
<trkpt lat="29.043627" lon="98.613779">
<time>2016-10-07T13:15:26Z</time></trkpt>
<trkpt lat="29.043557" lon="98.613629">
<time>2016-10-07T13:15:27Z</time></trkpt>
<trkpt lat="29.043517" lon="98.61352">
<time>2016-10-07T13:15:28Z</time></trkpt>
<trkpt lat="29.043478" lon="98.6134">
<time>2016-10-07T13:15:29Z</time></trkpt>
<trkpt lat="29.043438" lon="98.61324">
<time>2016-10-07T13:15:30Z</time></trkpt>
<trkpt lat="29.043428" lon="98.6131">
<time>2016-10-07T13:15:31Z</time></trkpt>
<trkpt lat="29.043418" lon="98.61294">
<time>2016-10-07T13:15:32Z</time></trkpt>
<trkpt lat="29.043428" lon="98.612751">
<time>2016-10-07T13:15:33Z</time></trkpt>
<trkpt lat="29.043448" lon="98.612521">
<time>2016-10-07T13:15:34Z</time></trkpt>
<trkpt lat="29.043478" lon="98.612211">
<time>2016-10-07T13:15:35Z</time></trkpt>
<trkpt lat="29.043498" lon="98.612012">
<time>2016-10-07T13:15:36Z</time></trkpt>
<trkpt lat="29.043529" lon="98.611792">
<time>2016-10-07T13:15:37Z</time></trkpt>
<trkpt lat="29.043539" lon="98.611662">
<time>2016-10-07T13:15:38Z</time></trkpt>
<trkpt lat="29.043579" lon="98.611552">
<time>2016-10-07T13:15:39Z</time></trkpt>
<trkpt lat="29.043589" lon="98.611522">
<time>2016-10-07T13:15:40Z</time></trkpt>
<trkpt lat="29.043639" lon="98.611432">
<time>2016-10-07T13:15:41Z</time></trkpt>
<trkpt lat="29.043709" lon="98.611332">
<time>2016-10-07T13:15:42Z</time></trkpt>
<trkpt lat="29.043799" lon="98.611262">
<time>2016-10-07T13:15:43Z</time></trkpt>
<trkpt lat="29.043869" lon="98.611222">
<time>2016-10-07T13:15:44Z</time></trkpt>
<trkpt lat="29.043939" lon="98.611202">
<time>2016-10-07T13:15:45Z</time></trkpt>
<trkpt lat="29.044009" lon="98.611202">
<time>2016-10-07T13:15:46Z</time></trkpt>
<trkpt lat="29.044078" lon="98.611193">
<time>2016-10-07T13:15:47Z</time></trkpt>
<trkpt lat="29.044148" lon="98.611192">
<time>2016-10-07T13:15:48Z</time></trkpt>
<trkpt lat="29.044268" lon="98.611202">
<time>2016-10-07T13:15:49Z</time></trkpt>
<trkpt lat="29.044828" lon="98.611272">
<time>2016-10-07T13:15:50Z</time></trkpt>
<trkpt lat="29.045607" lon="98.611362">
<time>2016-10-07T13:15:51Z</time></trkpt>
<trkpt lat="29.045777" lon="98.611382">
<time>2016-10-07T13:15:52Z</time></trkpt>
<trkpt lat="29.045937" lon="98.611422">
<time>2016-10-07T13:15:53Z</time></trkpt>
<trkpt lat="29.046137" lon="98.611492">
<time>2016-10-07T13:15:54Z</time></trkpt>
<trkpt lat="29.046486" lon="98.611612">
<time>2016-10-07T13:15:55Z</time></trkpt>
<trkpt lat="29.046576" lon="98.611632">
<time>2016-10-07T13:15:56Z</time></trkpt>
<trkpt lat="29.046686" lon="98.611662">
<time>2016-10-07T13:15:57Z</time></trkpt>
<trkpt lat="29.046766" lon="98.611682">
<time>2016-10-07T13:15:58Z</time></trkpt>
<trkpt lat="29.046956" lon="98.611702">
<time>2016-10-07T13:15:59Z</time></trkpt>
<trkpt lat="29.047086" lon="98.611712">
<time>2016-10-07T13:16:00Z</time></trkpt>
<trkpt lat="29.047755" lon="98.611792">
<time>2016-10-07T13:16:01Z</time></trkpt>
<trkpt lat="29.047865" lon="98.611802">
<time>2016-10-07T13:16:02Z</time></trkpt>
<trkpt lat="29.047955" lon="98.611812">
<time>2016-10-07T13:16:03Z</time></trkpt>
<trkpt lat="29.048025" lon="98.611832">
<time>2016-10-07T13:16:04Z</time></trkpt>
<trkpt lat="29.048085" lon="98.611852">
<time>2016-10-07T13:16:05Z</time></trkpt>
<trkpt lat="29.048105" lon="98.611862">
<time>2016-10-07T13:16:06Z</time></trkpt>
<trkpt lat="29.048125" lon="98.611872">
<time>2016-10-07T13:16:07Z</time></trkpt>
<trkpt lat="29.048165" lon="98.611892">
<time>2016-10-07T13:16:08Z</time></trkpt>
<trkpt lat="29.048205" lon="98.611932">
<time>2016-10-07T13:16:09Z</time></trkpt>
<trkpt lat="29.048235" lon="98.611962">
<time>2016-10-07T13:16:10Z</time></trkpt>
<trkpt lat="29.048285" lon="98.612031">
<time>2016-10-07T13:16:11Z</time></trkpt>
<trkpt lat="29.048315" lon="98.612111">
<time>2016-10-07T13:16:12Z</time></trkpt>
<trkpt lat="29.048344" lon="98.612211">
<time>2016-10-07T13:16:13Z</time></trkpt>
<trkpt lat="29.048404" lon="98.612451">
<time>2016-10-07T13:16:14Z</time></trkpt>
<trkpt lat="29.048444" lon="98.612621">
<time>2016-10-07T13:16:15Z</time></trkpt>
<trkpt lat="29.048494" lon="98.61284">
<time>2016-10-07T13:16:16Z</time></trkpt>
<trkpt lat="29.048534" lon="98.61296">
<time>2016-10-07T13:16:17Z</time></trkpt>
<trkpt lat="29.048554" lon="98.61303">
<time>2016-10-07T13:16:18Z</time></trkpt>
<trkpt lat="29.048594" lon="98.61311">
<time>2016-10-07T13:16:19Z</time></trkpt>
<trkpt lat="29.048634" lon="98.61318">
<time>2016-10-07T13:16:20Z</time></trkpt>
<trkpt lat="29.048664" lon="98.61322">
<time>2016-10-07T13:16:21Z</time></trkpt>
<trkpt lat="29.048694" lon="98.61326">
<time>2016-10-07T13:16:22Z</time></trkpt>
<trkpt lat="29.048743" lon="98.6133">
<time>2016-10-07T13:16:23Z</time></trkpt>
<trkpt lat="29.048803" lon="98.61335">
<time>2016-10-07T13:16:24Z</time></trkpt>
<trkpt lat="29.048873" lon="98.61339">
<time>2016-10-07T13:16:25Z</time></trkpt>
<trkpt lat="29.048963" lon="98.61342">
<time>2016-10-07T13:16:26Z</time></trkpt>
<trkpt lat="29.049053" lon="98.61344">
<time>2016-10-07T13:16:27Z</time></trkpt>
<trkpt lat="29.049123" lon="98.61346">
<time>2016-10-07T13:16:28Z</time></trkpt>
<trkpt lat="29.049213" lon="98.61348">
<time>2016-10-07T13:16:29Z</time></trkpt>
<trkpt lat="29.049433" lon="98.61352">
<time>2016-10-07T13:16:30Z</time></trkpt>
<trkpt lat="29.049643" lon="98.613569">
<time>2016-10-07T13:16:31Z</time></trkpt>
<trkpt lat="29.049822" lon="98.613609">
<time>2016-10-07T13:16:32Z</time></trkpt>
<trkpt lat="29.049922" lon="98.613629">
<time>2016-10-07T13:16:33Z</time></trkpt>
<trkpt lat="29.050042" lon="98.613649">
<time>2016-10-07T13:16:34Z</time></trkpt>
<trkpt lat="29.050102" lon="98.613649">
<time>2016-10-07T13:16:35Z</time></trkpt>
<trkpt lat="29.050142" lon="98.613649">
<time>2016-10-07T13:16:36Z</time></trkpt>
<trkpt lat="29.050182" lon="98.613639">
<time>2016-10-07T13:16:37Z</time></trkpt>
<trkpt lat="29.050222" lon="98.613619">
<time>2016-10-07T13:16:38Z</time></trkpt>
<trkpt lat="29.050252" lon="98.613589">
<time>2016-10-07T13:16:39Z</time></trkpt>
<trkpt lat="29.050282" lon="98.613569">
<time>2016-10-07T13:16:40Z</time></trkpt>
<trkpt lat="29.050312" lon="98.61352">
<time>2016-10-07T13:16:41Z</time></trkpt>
<trkpt lat="29.050332" lon="98.61347">
<time>2016-10-07T13:16:42Z</time></trkpt>
<trkpt lat="29.050342" lon="98.61341">
<time>2016-10-07T13:16:43Z</time></trkpt>
<trkpt lat="29.050352" lon="98.61336">
<time>2016-10-07T13:16:44Z</time></trkpt>
<trkpt lat="29.050342" lon="98.61327">
<time>2016-10-07T13:16:45Z</time></trkpt>
<trkpt lat="29.050322" lon="98.61317">
<time>2016-10-07T13:16:46Z</time></trkpt>
<trkpt lat="29.050292" lon="98.61303">
<time>2016-10-07T13:16:47Z</time></trkpt>
<trkpt lat="29.050253" lon="98.61287">
<time>2016-10-07T13:16:48Z</time></trkpt>
<trkpt lat="29.050213" lon="98.612691">
<time>2016-10-07T13:16:49Z</time></trkpt>
<trkpt lat="29.050173" lon="98.612531">
<time>2016-10-07T13:16:50Z</time></trkpt>
<trkpt lat="29.050153" lon="98.612431">
<time>2016-10-07T13:16:51Z</time></trkpt>
<trkpt lat="29.050153" lon="98.612351">
<time>2016-10-07T13:16:52Z</time></trkpt>
<trkpt lat="29.050153" lon="98.612281">
<time>2016-10-07T13:16:53Z</time></trkpt>
<trkpt lat="29.050163" lon="98.612221">
<time>2016-10-07T13:16:54Z</time></trkpt>
<trkpt lat="29.050183" lon="98.612151">
<time>2016-10-07T13:16:55Z</time></trkpt>
<trkpt lat="29.050203" lon="98.612101">
<time>2016-10-07T13:16:56Z</time></trkpt>
<trkpt lat="29.050223" lon="98.612071">
<time>2016-10-07T13:16:57Z</time></trkpt>
<trkpt lat="29.050243" lon="98.612041">
<time>2016-10-07T13:16:58Z</time></trkpt>
<trkpt lat="29.050273" lon="98.612001">
<time>2016-10-07T13:16:59Z</time></trkpt>
<trkpt lat="29.050333" lon="98.611951">
<time>2016-10-07T13:17:00Z</time></trkpt>
<trkpt lat="29.050383" lon="98.611912">
<time>2016-10-07T13:17:01Z</time></trkpt>
<trkpt lat="29.050433" lon="98.611892">
<time>2016-10-07T13:17:02Z</time></trkpt>
<trkpt lat="29.050483" lon="98.611872">
<time>2016-10-07T13:17:03Z</time></trkpt>
<trkpt lat="29.050553" lon="98.611862">
<time>2016-10-07T13:17:04Z</time></trkpt>
<trkpt lat="29.050613" lon="98.611872">
<time>2016-10-07T13:17:05Z</time></trkpt>
<trkpt lat="29.050673" lon="98.611882">
<time>2016-10-07T13:17:06Z</time></trkpt>
<trkpt lat="29.050733" lon="98.611902">
<time>2016-10-07T13:17:07Z</time></trkpt>
<trkpt lat="29.050803" lon="98.611941">
<time>2016-10-07T13:17:08Z</time></trkpt>
<trkpt lat="29.050833" lon="98.611971">
<time>2016-10-07T13:17:09Z</time></trkpt>
<trkpt lat="29.050893" lon="98.612031">
<time>2016-10-07T13:17:10Z</time></trkpt>
<trkpt lat="29.050932" lon="98.612091">
<time>2016-10-07T13:17:11Z</time></trkpt>
<trkpt lat="29.050952" lon="98.612141">
<time>2016-10-07T13:17:12Z</time></trkpt>
<trkpt lat="29.050982" lon="98.612231">
<time>2016-10-07T13:17:13Z</time></trkpt>
<trkpt lat="29.051012" lon="98.612361">
<time>2016-10-07T13:17:14Z</time></trkpt>
<trkpt lat="29.051052" lon="98.612561">
<time>2016-10-07T13:17:15Z</time></trkpt>
<trkpt lat="29.051082" lon="98.61273">
<time>2016-10-07T13:17:16Z</time></trkpt>
<trkpt lat="29.051102" lon="98.61285">
<time>2016-10-07T13:17:17Z</time></trkpt>
<trkpt lat="29.051132" lon="98.61296">
<time>2016-10-07T13:17:18Z</time></trkpt>
<trkpt lat="29.051162" lon="98.61303">
<time>2016-10-07T13:17:19Z</time></trkpt>
<trkpt lat="29.051182" lon="98.61308">
<time>2016-10-07T13:17:20Z</time></trkpt>
<trkpt lat="29.051222" lon="98.61313">
<time>2016-10-07T13:17:21Z</time></trkpt>
<trkpt lat="29.051262" lon="98.61317">
<time>2016-10-07T13:17:22Z</time></trkpt>
<trkpt lat="29.051311" lon="98.6132">
<time>2016-10-07T13:17:23Z</time></trkpt>
<trkpt lat="29.051351" lon="98.61322">
<time>2016-10-07T13:17:24Z</time></trkpt>
<trkpt lat="29.051391" lon="98.61322">
<time>2016-10-07T13:17:25Z</time></trkpt>
<trkpt lat="29.051451" lon="98.61322">
<time>2016-10-07T13:17:26Z</time></trkpt>
<trkpt lat="29.051491" lon="98.61322">
<time>2016-10-07T13:17:27Z</time></trkpt>
<trkpt lat="29.051521" lon="98.61321">
<time>2016-10-07T13:17:28Z</time></trkpt>
<trkpt lat="29.051581" lon="98.61318">
<time>2016-10-07T13:17:29Z</time></trkpt>
<trkpt lat="29.051621" lon="98.61315">
<time>2016-10-07T13:17:30Z</time></trkpt>
<trkpt lat="29.051661" lon="98.61312">
<time>2016-10-07T13:17:31Z</time></trkpt>
<trkpt lat="29.051731" lon="98.61303">
<time>2016-10-07T13:17:32Z</time></trkpt>
<trkpt lat="29.051781" lon="98.61296">
<time>2016-10-07T13:17:33Z</time></trkpt>
<trkpt lat="29.051851" lon="98.61281">
<time>2016-10-07T13:17:34Z</time></trkpt>
<trkpt lat="29.051921" lon="98.612661">
<time>2016-10-07T13:17:35Z</time></trkpt>
<trkpt lat="29.051991" lon="98.612531">
<time>2016-10-07T13:17:36Z</time></trkpt>
<trkpt lat="29.052051" lon="98.612421">
<time>2016-10-07T13:17:37Z</time></trkpt>
<trkpt lat="29.052101" lon="98.612331">
<time>2016-10-07T13:17:38Z</time></trkpt>
<trkpt lat="29.052171" lon="98.612251">
<time>2016-10-07T13:17:39Z</time></trkpt>
<trkpt lat="29.052241" lon="98.612181">
<time>2016-10-07T13:17:40Z</time></trkpt>
<trkpt lat="29.052301" lon="98.612141">
<time>2016-10-07T13:17:41Z</time></trkpt>
<trkpt lat="29.052371" lon="98.612101">
<time>2016-10-07T13:17:42Z</time></trkpt>
<trkpt lat="29.052451" lon="98.612071">
<time>2016-10-07T13:17:43Z</time></trkpt>
<trkpt lat="29.052501" lon="98.612051">
<time>2016-10-07T13:17:44Z</time></trkpt>
<trkpt lat="29.052561" lon="98.612041">
<time>2016-10-07T13:17:45Z</time></trkpt>
<trkpt lat="29.052621" lon="98.612031">
<time>2016-10-07T13:17:46Z</time></trkpt>
<trkpt lat="29.052691" lon="98.612031">
<time>2016-10-07T13:17:47Z</time></trkpt>
<trkpt lat="29.052821" lon="98.612041">
<time>2016-10-07T13:17:48Z</time></trkpt>
<trkpt lat="29.053011" lon="98.612071">
<time>2016-10-07T13:17:49Z</time></trkpt>
<trkpt lat="29.053231" lon="98.612091">
<time>2016-10-07T13:17:50Z</time></trkpt>
<trkpt lat="29.053351" lon="98.612111">
<time>2016-10-07T13:17:51Z</time></trkpt>
<trkpt lat="29.05352" lon="98.612131">
<time>2016-10-07T13:17:52Z</time></trkpt>
<trkpt lat="29.05367" lon="98.612141">
<time>2016-10-07T13:17:53Z</time></trkpt>
<trkpt lat="29.05374" lon="98.612161">
<time>2016-10-07T13:17:54Z</time></trkpt>
<trkpt lat="29.05381" lon="98.612171">
<time>2016-10-07T13:17:55Z</time></trkpt>
<trkpt lat="29.05391" lon="98.612211">
<time>2016-10-07T13:17:56Z</time></trkpt>
<trkpt lat="29.054" lon="98.612261">
<time>2016-10-07T13:17:57Z</time></trkpt>
<trkpt lat="29.05406" lon="98.612291">
<time>2016-10-07T13:17:58Z</time></trkpt>
<trkpt lat="29.05411" lon="98.612341">
<time>2016-10-07T13:17:59Z</time></trkpt>
<trkpt lat="29.05419" lon="98.612421">
<time>2016-10-07T13:18:00Z</time></trkpt>
<trkpt lat="29.05427" lon="98.612511">
<time>2016-10-07T13:18:01Z</time></trkpt>
<trkpt lat="29.05432" lon="98.612581">
<time>2016-10-07T13:18:02Z</time></trkpt>
<trkpt lat="29.054349" lon="98.612631">
<time>2016-10-07T13:18:03Z</time></trkpt>
<trkpt lat="29.054379" lon="98.6127">
<time>2016-10-07T13:18:04Z</time></trkpt>
<trkpt lat="29.054399" lon="98.61275">
<time>2016-10-07T13:18:05Z</time></trkpt>
<trkpt lat="29.054419" lon="98.6128">
<time>2016-10-07T13:18:06Z</time></trkpt>
<trkpt lat="29.054439" lon="98.61287">
<time>2016-10-07T13:18:07Z</time></trkpt>
<trkpt lat="29.054459" lon="98.61295">
<time>2016-10-07T13:18:08Z</time></trkpt>
<trkpt lat="29.054469" lon="98.613">
<time>2016-10-07T13:18:09Z</time></trkpt>
<trkpt lat="29.054479" lon="98.61307">
<time>2016-10-07T13:18:10Z</time></trkpt>
<trkpt lat="29.054489" lon="98.61319">
<time>2016-10-07T13:18:11Z</time></trkpt>
<trkpt lat="29.054499" lon="98.6133">
<time>2016-10-07T13:18:12Z</time></trkpt>
<trkpt lat="29.054519" lon="98.613469">
<time>2016-10-07T13:18:13Z</time></trkpt>
<trkpt lat="29.054559" lon="98.613639">
<time>2016-10-07T13:18:14Z</time></trkpt>
<trkpt lat="29.054579" lon="98.613729">
<time>2016-10-07T13:18:15Z</time></trkpt>
<trkpt lat="29.054618" lon="98.613839">
<time>2016-10-07T13:18:16Z</time></trkpt>
<trkpt lat="29.054678" lon="98.613999">
<time>2016-10-07T13:18:17Z</time></trkpt>
<trkpt lat="29.054758" lon="98.614149">
<time>2016-10-07T13:18:18Z</time></trkpt>
<trkpt lat="29.054888" lon="98.614408">
<time>2016-10-07T13:18:19Z</time></trkpt>
<trkpt lat="29.055047" lon="98.614738">
<time>2016-10-07T13:18:20Z</time></trkpt>
<trkpt lat="29.055177" lon="98.614997">
<time>2016-10-07T13:18:21Z</time></trkpt>
<trkpt lat="29.055247" lon="98.615127">
<time>2016-10-07T13:18:22Z</time></trkpt>
<trkpt lat="29.055297" lon="98.615217">
<time>2016-10-07T13:18:23Z</time></trkpt>
<trkpt lat="29.055317" lon="98.615257">
<time>2016-10-07T13:18:24Z</time></trkpt>
<trkpt lat="29.055347" lon="98.615297">
<time>2016-10-07T13:18:25Z</time></trkpt>
<trkpt lat="29.055377" lon="98.615317">
<time>2016-10-07T13:18:26Z</time></trkpt>
<trkpt lat="29.055417" lon="98.615347">
<time>2016-10-07T13:18:27Z</time></trkpt>
<trkpt lat="29.055447" lon="98.615367">
<time>2016-10-07T13:18:28Z</time></trkpt>
<trkpt lat="29.055497" lon="98.615387">
<time>2016-10-07T13:18:29Z</time></trkpt>
<trkpt lat="29.055537" lon="98.615387">
<time>2016-10-07T13:18:30Z</time></trkpt>
<trkpt lat="29.055577" lon="98.615387">
<time>2016-10-07T13:18:31Z</time></trkpt>
<trkpt lat="29.055627" lon="98.615387">
<time>2016-10-07T13:18:32Z</time></trkpt>
<trkpt lat="29.055657" lon="98.615377">
<time>2016-10-07T13:18:33Z</time></trkpt>
<trkpt lat="29.055766" lon="98.615327">
<time>2016-10-07T13:18:34Z</time></trkpt>
<trkpt lat="29.056036" lon="98.615207">
<time>2016-10-07T13:18:35Z</time></trkpt>
<trkpt lat="29.056276" lon="98.615097">
<time>2016-10-07T13:18:36Z</time></trkpt>
<trkpt lat="29.056426" lon="98.615017">
<time>2016-10-07T13:18:37Z</time></trkpt>
<trkpt lat="29.056476" lon="98.614977">
<time>2016-10-07T13:18:38Z</time></trkpt>
<trkpt lat="29.056546" lon="98.614918">
<time>2016-10-07T13:18:39Z</time></trkpt>
<trkpt lat="29.056586" lon="98.614858">
<time>2016-10-07T13:18:40Z</time></trkpt>
<trkpt lat="29.056636" lon="98.614778">
<time>2016-10-07T13:18:41Z</time></trkpt>
<trkpt lat="29.056656" lon="98.614708">
<time>2016-10-07T13:18:42Z</time></trkpt>
<trkpt lat="29.056686" lon="98.614578">
<time>2016-10-07T13:18:43Z</time></trkpt>
<trkpt lat="29.056736" lon="98.614378">
<time>2016-10-07T13:18:44Z</time></trkpt>
<trkpt lat="29.056877" lon="98.613849">
<time>2016-10-07T13:18:45Z</time></trkpt>
<trkpt lat="29.056967" lon="98.613519">
<time>2016-10-07T13:18:46Z</time></trkpt>
<trkpt lat="29.057037" lon="98.61329">
<time>2016-10-07T13:18:47Z</time></trkpt>
<trkpt lat="29.057097" lon="98.6131">
<time>2016-10-07T13:18:48Z</time></trkpt>
<trkpt lat="29.057187" lon="98.6129">
<time>2016-10-07T13:18:49Z</time></trkpt>
<trkpt lat="29.057267" lon="98.61273">
<time>2016-10-07T13:18:50Z</time></trkpt>
<trkpt lat="29.057397" lon="98.612521">
<time>2016-10-07T13:18:51Z</time></trkpt>
<trkpt lat="29.057457" lon="98.612421">
<time>2016-10-07T13:18:52Z</time></trkpt>
<trkpt lat="29.057577" lon="98.612301">
<time>2016-10-07T13:18:53Z</time></trkpt>
<trkpt lat="29.057667" lon="98.612231">
<time>2016-10-07T13:18:54Z</time></trkpt>
<trkpt lat="29.057777" lon="98.612161">
<time>2016-10-07T13:18:55Z</time></trkpt>
<trkpt lat="29.057877" lon="98.612121">
<time>2016-10-07T13:18:56Z</time></trkpt>
<trkpt lat="29.057957" lon="98.612081">
<time>2016-10-07T13:18:57Z</time></trkpt>
<trkpt lat="29.058197" lon="98.611991">
<time>2016-10-07T13:18:58Z</time></trkpt>
<trkpt lat="29.058277" lon="98.611951">
<time>2016-10-07T13:18:59Z</time></trkpt>
<trkpt lat="29.058397" lon="98.611871">
<time>2016-10-07T13:19:00Z</time></trkpt>
<trkpt lat="29.058517" lon="98.611792">
<time>2016-10-07T13:19:01Z</time></trkpt>
<trkpt lat="29.058607" lon="98.611722">
<time>2016-10-07T13:19:02Z</time></trkpt>
<trkpt lat="29.058737" lon="98.611602">
<time>2016-10-07T13:19:03Z</time></trkpt>
<trkpt lat="29.058907" lon="98.611432">
<time>2016-10-07T13:19:04Z</time></trkpt>
<trkpt lat="29.059067" lon="98.611272">
<time>2016-10-07T13:19:05Z</time></trkpt>
<trkpt lat="29.059207" lon="98.611142">
<time>2016-10-07T13:19:06Z</time></trkpt>
<trkpt lat="29.059346" lon="98.611012">
<time>2016-10-07T13:19:07Z</time></trkpt>
<trkpt lat="29.059446" lon="98.610923">
<time>2016-10-07T13:19:08Z</time></trkpt>
<trkpt lat="29.059536" lon="98.610883">
<time>2016-10-07T13:19:09Z</time></trkpt>
<trkpt lat="29.059636" lon="98.610853">
<time>2016-10-07T13:19:10Z</time></trkpt>
<trkpt lat="29.059746" lon="98.610863">
<time>2016-10-07T13:19:11Z</time></trkpt>
<trkpt lat="29.059816" lon="98.610873">
<time>2016-10-07T13:19:12Z</time></trkpt>
<trkpt lat="29.059906" lon="98.610903">
<time>2016-10-07T13:19:13Z</time></trkpt>
<trkpt lat="29.060006" lon="98.610963">
<time>2016-10-07T13:19:14Z</time></trkpt>
<trkpt lat="29.060076" lon="98.611012">
<time>2016-10-07T13:19:15Z</time></trkpt>
<trkpt lat="29.060186" lon="98.611102">
<time>2016-10-07T13:19:16Z</time></trkpt>
<trkpt lat="29.060336" lon="98.611192">
<time>2016-10-07T13:19:17Z</time></trkpt>
<trkpt lat="29.060425" lon="98.611242">
<time>2016-10-07T13:19:18Z</time></trkpt>
<trkpt lat="29.060515" lon="98.611292">
<time>2016-10-07T13:19:19Z</time></trkpt>
<trkpt lat="29.060615" lon="98.611322">
<time>2016-10-07T13:19:20Z</time></trkpt>
<trkpt lat="29.060735" lon="98.611342">
<time>2016-10-07T13:19:21Z</time></trkpt>
<trkpt lat="29.060805" lon="98.611352">
<time>2016-10-07T13:19:22Z</time></trkpt>
<trkpt lat="29.060925" lon="98.611352">
<time>2016-10-07T13:19:23Z</time></trkpt>
<trkpt lat="29.061045" lon="98.611352">
<time>2016-10-07T13:19:24Z</time></trkpt>
<trkpt lat="29.061145" lon="98.611352">
<time>2016-10-07T13:19:25Z</time></trkpt>
<trkpt lat="29.061225" lon="98.611352">
<time>2016-10-07T13:19:26Z</time></trkpt>
<trkpt lat="29.061305" lon="98.611362">
<time>2016-10-07T13:19:27Z</time></trkpt>
<trkpt lat="29.061385" lon="98.611392">
<time>2016-10-07T13:19:28Z</time></trkpt>
<trkpt lat="29.061465" lon="98.611432">
<time>2016-10-07T13:19:29Z</time></trkpt>
<trkpt lat="29.061514" lon="98.611462">
<time>2016-10-07T13:19:30Z</time></trkpt>
<trkpt lat="29.061574" lon="98.611512">
<time>2016-10-07T13:19:31Z</time></trkpt>
<trkpt lat="29.061654" lon="98.611582">
<time>2016-10-07T13:19:32Z</time></trkpt>
<trkpt lat="29.061804" lon="98.611732">
<time>2016-10-07T13:19:33Z</time></trkpt>
<trkpt lat="29.061934" lon="98.611861">
<time>2016-10-07T13:19:34Z</time></trkpt>
<trkpt lat="29.062074" lon="98.611991">
<time>2016-10-07T13:19:35Z</time></trkpt>
<trkpt lat="29.062154" lon="98.612081">
<time>2016-10-07T13:19:36Z</time></trkpt>
<trkpt lat="29.062263" lon="98.612161">
<time>2016-10-07T13:19:37Z</time></trkpt>
<trkpt lat="29.062333" lon="98.612211">
<time>2016-10-07T13:19:38Z</time></trkpt>
<trkpt lat="29.062383" lon="98.612241">
<time>2016-10-07T13:19:39Z</time></trkpt>
<trkpt lat="29.062423" lon="98.612261">
<time>2016-10-07T13:19:40Z</time></trkpt>
<trkpt lat="29.062523" lon="98.612311">
<time>2016-10-07T13:19:41Z</time></trkpt>
<trkpt lat="29.062613" lon="98.612331">
<time>2016-10-07T13:19:42Z</time></trkpt>
<trkpt lat="29.062663" lon="98.612341">
<time>2016-10-07T13:19:43Z</time></trkpt>
<trkpt lat="29.062773" lon="98.612351">
<time>2016-10-07T13:19:44Z</time></trkpt>
<trkpt lat="29.063762" lon="98.612471">
<time>2016-10-07T13:19:45Z</time></trkpt>
<trkpt lat="29.064042" lon="98.612501">
<time>2016-10-07T13:19:46Z</time></trkpt>
<trkpt lat="29.064152" lon="98.612521">
<time>2016-10-07T13:19:47Z</time></trkpt>
<trkpt lat="29.064212" lon="98.612531">
<time>2016-10-07T13:19:48Z</time></trkpt>
<trkpt lat="29.064262" lon="98.612551">
<time>2016-10-07T13:19:49Z</time></trkpt>
<trkpt lat="29.064302" lon="98.61256">
<time>2016-10-07T13:19:50Z</time></trkpt>
<trkpt lat="29.064382" lon="98.6126">
<time>2016-10-07T13:19:51Z</time></trkpt>
<trkpt lat="29.064451" lon="98.61264">
<time>2016-10-07T13:19:52Z</time></trkpt>
<trkpt lat="29.064481" lon="98.61266">
<time>2016-10-07T13:19:53Z</time></trkpt>
<trkpt lat="29.064511" lon="98.61269">
<time>2016-10-07T13:19:54Z</time></trkpt>
<trkpt lat="29.064581" lon="98.61275">
<time>2016-10-07T13:19:55Z</time></trkpt>
<trkpt lat="29.064651" lon="98.61284">
<time>2016-10-07T13:19:56Z</time></trkpt>
<trkpt lat="29.064771" lon="98.613">
<time>2016-10-07T13:19:57Z</time></trkpt>
<trkpt lat="29.064881" lon="98.61316">
<time>2016-10-07T13:19:58Z</time></trkpt>
<trkpt lat="29.065021" lon="98.613369">
<time>2016-10-07T13:19:59Z</time></trkpt>
<trkpt lat="29.06521" lon="98.613639">
<time>2016-10-07T13:20:00Z</time></trkpt>
<trkpt lat="29.06539" lon="98.613879">
<time>2016-10-07T13:20:01Z</time></trkpt>
<trkpt lat="29.0655" lon="98.614029">
<time>2016-10-07T13:20:02Z</time></trkpt>
<trkpt lat="29.06557" lon="98.614108">
<time>2016-10-07T13:20:03Z</time></trkpt>
<trkpt lat="29.065639" lon="98.614188">
<time>2016-10-07T13:20:04Z</time></trkpt>
<trkpt lat="29.065719" lon="98.614258">
<time>2016-10-07T13:20:05Z</time></trkpt>
<trkpt lat="29.065799" lon="98.614318">
<time>2016-10-07T13:20:06Z</time></trkpt>
<trkpt lat="29.065879" lon="98.614368">
<time>2016-10-07T13:20:07Z</time></trkpt>
<trkpt lat="29.065949" lon="98.614408">
<time>2016-10-07T13:20:08Z</time></trkpt>
<trkpt lat="29.066079" lon="98.614458">
<time>2016-10-07T13:20:09Z</time></trkpt>
<trkpt lat="29.066209" lon="98.614498">
<time>2016-10-07T13:20:10Z</time></trkpt>
<trkpt lat="29.066289" lon="98.614518">
<time>2016-10-07T13:20:11Z</time></trkpt>
<trkpt lat="29.066369" lon="98.614528">
<time>2016-10-07T13:20:12Z</time></trkpt>
<trkpt lat="29.066429" lon="98.614518">
<time>2016-10-07T13:20:13Z</time></trkpt>
<trkpt lat="29.066559" lon="98.614508">
<time>2016-10-07T13:20:14Z</time></trkpt>
<trkpt lat="29.066628" lon="98.614508">
<time>2016-10-07T13:20:15Z</time></trkpt>
<trkpt lat="29.066718" lon="98.614508">
<time>2016-10-07T13:20:16Z</time></trkpt>
<trkpt lat="29.066798" lon="98.614498">
<time>2016-10-07T13:20:17Z</time></trkpt>
<trkpt lat="29.066878" lon="98.614488">
<time>2016-10-07T13:20:18Z</time></trkpt>
<trkpt lat="29.066958" lon="98.614468">
<time>2016-10-07T13:20:19Z</time></trkpt>
<trkpt lat="29.067078" lon="98.614438">
<time>2016-10-07T13:20:20Z</time></trkpt>
<trkpt lat="29.067248" lon="98.614378">
<time>2016-10-07T13:20:21Z</time></trkpt>
<trkpt lat="29.067338" lon="98.614338">
<time>2016-10-07T13:20:22Z</time></trkpt>
<trkpt lat="29.067488" lon="98.614278">
<time>2016-10-07T13:20:23Z</time></trkpt>
<trkpt lat="29.067568" lon="98.614228">
<time>2016-10-07T13:20:24Z</time></trkpt>
<trkpt lat="29.067728" lon="98.614138">
<time>2016-10-07T13:20:25Z</time></trkpt>
<trkpt lat="29.067848" lon="98.614049">
<time>2016-10-07T13:20:26Z</time></trkpt>
<trkpt lat="29.067958" lon="98.613979">
<time>2016-10-07T13:20:27Z</time></trkpt>
<trkpt lat="29.068048" lon="98.613899">
<time>2016-10-07T13:20:28Z</time></trkpt>
<trkpt lat="29.068168" lon="98.613799">
<time>2016-10-07T13:20:29Z</time></trkpt>
<trkpt lat="29.068278" lon="98.613709">
<time>2016-10-07T13:20:30Z</time></trkpt>
<trkpt lat="29.068418" lon="98.613609">
<time>2016-10-07T13:20:31Z</time></trkpt>
<trkpt lat="29.068588" lon="98.613479">
<time>2016-10-07T13:20:32Z</time></trkpt>
<trkpt lat="29.068688" lon="98.613419">
<time>2016-10-07T13:20:33Z</time></trkpt>
<trkpt lat="29.068788" lon="98.613349">
<time>2016-10-07T13:20:34Z</time></trkpt>
<trkpt lat="29.068937" lon="98.61327">
<time>2016-10-07T13:20:35Z</time></trkpt>
<trkpt lat="29.069047" lon="98.6132">
<time>2016-10-07T13:20:36Z</time></trkpt>
<trkpt lat="29.069187" lon="98.61312">
<time>2016-10-07T13:20:37Z</time></trkpt>
<trkpt lat="29.069307" lon="98.61305">
<time>2016-10-07T13:20:38Z</time></trkpt>
<trkpt lat="29.069507" lon="98.61291">
<time>2016-10-07T13:20:39Z</time></trkpt>
<trkpt lat="29.069647" lon="98.61281">
<time>2016-10-07T13:20:40Z</time></trkpt>
<trkpt lat="29.069767" lon="98.61273">
<time>2016-10-07T13:20:41Z</time></trkpt>
<trkpt lat="29.069927" lon="98.61262">
<time>2016-10-07T13:20:42Z</time></trkpt>
<trkpt lat="29.070077" lon="98.61253">
<time>2016-10-07T13:20:43Z</time></trkpt>
<trkpt lat="29.070237" lon="98.612441">
<time>2016-10-07T13:20:44Z</time></trkpt>
<trkpt lat="29.070337" lon="98.612391">
<time>2016-10-07T13:20:45Z</time></trkpt>
<trkpt lat="29.070447" lon="98.612341">
<time>2016-10-07T13:20:46Z</time></trkpt>
<trkpt lat="29.070537" lon="98.612301">
<time>2016-10-07T13:20:47Z</time></trkpt>
<trkpt lat="29.070727" lon="98.612241">
<time>2016-10-07T13:20:48Z</time></trkpt>
<trkpt lat="29.070907" lon="98.612191">
<time>2016-10-07T13:20:49Z</time></trkpt>
<trkpt lat="29.071027" lon="98.612161">
<time>2016-10-07T13:20:50Z</time></trkpt>
<trkpt lat="29.071126" lon="98.612131">
<time>2016-10-07T13:20:51Z</time></trkpt>
<trkpt lat="29.071226" lon="98.612111">
<time>2016-10-07T13:20:52Z</time></trkpt>
<trkpt lat="29.071376" lon="98.612101">
<time>2016-10-07T13:20:53Z</time></trkpt>
<trkpt lat="29.071526" lon="98.612081">
<time>2016-10-07T13:20:54Z</time></trkpt>
<trkpt lat="29.071616" lon="98.612081">
<time>2016-10-07T13:20:55Z</time></trkpt>
<trkpt lat="29.071756" lon="98.612081">
<time>2016-10-07T13:20:56Z</time></trkpt>
<trkpt lat="29.071936" lon="98.612101">
<time>2016-10-07T13:20:57Z</time></trkpt>
<trkpt lat="29.072046" lon="98.612121">
<time>2016-10-07T13:20:58Z</time></trkpt>
<trkpt lat="29.072106" lon="98.612141">
<time>2016-10-07T13:20:59Z</time></trkpt>
<trkpt lat="29.072246" lon="98.612191">
<time>2016-10-07T13:21:00Z</time></trkpt>
<trkpt lat="29.072375" lon="98.612251">
<time>2016-10-07T13:21:01Z</time></trkpt>
<trkpt lat="29.072485" lon="98.612311">
<time>2016-10-07T13:21:02Z</time></trkpt>
<trkpt lat="29.072595" lon="98.612391">
<time>2016-10-07T13:21:03Z</time></trkpt>
<trkpt lat="29.072695" lon="98.61248">
<time>2016-10-07T13:21:04Z</time></trkpt>
<trkpt lat="29.072795" lon="98.61258">
<time>2016-10-07T13:21:05Z</time></trkpt>
<trkpt lat="29.072885" lon="98.61268">
<time>2016-10-07T13:21:06Z</time></trkpt>
<trkpt lat="29.072995" lon="98.6128">
<time>2016-10-07T13:21:07Z</time></trkpt>
<trkpt lat="29.073094" lon="98.61293">
<time>2016-10-07T13:21:08Z</time></trkpt>
<trkpt lat="29.073184" lon="98.61301">
<time>2016-10-07T13:21:09Z</time></trkpt>
<trkpt lat="29.073244" lon="98.61305">
<time>2016-10-07T13:21:10Z</time></trkpt>
<trkpt lat="29.073304" lon="98.61309">
<time>2016-10-07T13:21:11Z</time></trkpt>
<trkpt lat="29.073374" lon="98.61311">
<time>2016-10-07T13:21:12Z</time></trkpt>
<trkpt lat="29.073474" lon="98.61314">
<time>2016-10-07T13:21:13Z</time></trkpt>
<trkpt lat="29.073554" lon="98.61314">
<time>2016-10-07T13:21:14Z</time></trkpt>
<trkpt lat="29.073604" lon="98.61315">
<time>2016-10-07T13:21:15Z</time></trkpt>
<trkpt lat="29.073744" lon="98.61314">
<time>2016-10-07T13:21:16Z</time></trkpt>
<trkpt lat="29.073804" lon="98.61313">
<time>2016-10-07T13:21:17Z</time></trkpt>
<trkpt lat="29.073914" lon="98.61313">
<time>2016-10-07T13:21:18Z</time></trkpt>
<trkpt lat="29.074034" lon="98.61312">
<time>2016-10-07T13:21:19Z</time></trkpt>
<trkpt lat="29.074113" lon="98.61312">
<time>2016-10-07T13:21:20Z</time></trkpt>
<trkpt lat="29.074243" lon="98.61311">
<time>2016-10-07T13:21:21Z</time></trkpt>
<trkpt lat="29.074323" lon="98.61311">
<time>2016-10-07T13:21:22Z</time></trkpt>
<trkpt lat="29.074413" lon="98.61312">
<time>2016-10-07T13:21:23Z</time></trkpt>
<trkpt lat="29.074463" lon="98.61313">
<time>2016-10-07T13:21:24Z</time></trkpt>
<trkpt lat="29.074543" lon="98.61315">
<time>2016-10-07T13:21:25Z</time></trkpt>
<trkpt lat="29.074603" lon="98.61318">
<time>2016-10-07T13:21:26Z</time></trkpt>
<trkpt lat="29.074693" lon="98.613229">
<time>2016-10-07T13:21:27Z</time></trkpt>
<trkpt lat="29.074843" lon="98.613329">
<time>2016-10-07T13:21:28Z</time></trkpt>
<trkpt lat="29.075003" lon="98.613429">
<time>2016-10-07T13:21:29Z</time></trkpt>
<trkpt lat="29.075142" lon="98.613489">
<time>2016-10-07T13:21:30Z</time></trkpt>
<trkpt lat="29.075242" lon="98.613519">
<time>2016-10-07T13:21:31Z</time></trkpt>
<trkpt lat="29.075332" lon="98.613539">
<time>2016-10-07T13:21:32Z</time></trkpt>
<trkpt lat="29.075482" lon="98.613569">
<time>2016-10-07T13:21:33Z</time></trkpt>
<trkpt lat="29.075772" lon="98.613629">
<time>2016-10-07T13:21:34Z</time></trkpt>
<trkpt lat="29.075952" lon="98.613669">
<time>2016-10-07T13:21:35Z</time></trkpt>
<trkpt lat="29.076161" lon="98.613709">
<time>2016-10-07T13:21:36Z</time></trkpt>
<trkpt lat="29.076341" lon="98.613739">
<time>2016-10-07T13:21:37Z</time></trkpt>
<trkpt lat="29.076501" lon="98.613749">
<time>2016-10-07T13:21:38Z</time></trkpt>
<trkpt lat="29.076661" lon="98.613749">
<time>2016-10-07T13:21:39Z</time></trkpt>
<trkpt lat="29.076801" lon="98.613759">
<time>2016-10-07T13:21:40Z</time></trkpt>
<trkpt lat="29.076961" lon="98.613769">
<time>2016-10-07T13:21:41Z</time></trkpt>
<trkpt lat="29.077061" lon="98.613779">
<time>2016-10-07T13:21:42Z</time></trkpt>
<trkpt lat="29.077141" lon="98.613799">
<time>2016-10-07T13:21:43Z</time></trkpt>
<trkpt lat="29.0773" lon="98.613839">
<time>2016-10-07T13:21:44Z</time></trkpt>
<trkpt lat="29.07752" lon="98.613919">
<time>2016-10-07T13:21:45Z</time></trkpt>
<trkpt lat="29.07771" lon="98.613978">
<time>2016-10-07T13:21:46Z</time></trkpt>
<trkpt lat="29.07782" lon="98.614008">
<time>2016-10-07T13:21:47Z</time></trkpt>
<trkpt lat="29.07792" lon="98.614018">
<time>2016-10-07T13:21:48Z</time></trkpt>
<trkpt lat="29.07803" lon="98.614028">
<time>2016-10-07T13:21:49Z</time></trkpt>
<trkpt lat="29.07813" lon="98.614028">
<time>2016-10-07T13:21:50Z</time></trkpt>
<trkpt lat="29.0782" lon="98.614028">
<time>2016-10-07T13:21:51Z</time></trkpt>
<trkpt lat="29.07834" lon="98.614018">
<time>2016-10-07T13:21:52Z</time></trkpt>
<trkpt lat="29.078499" lon="98.613998">
<time>2016-10-07T13:21:53Z</time></trkpt>
<trkpt lat="29.078669" lon="98.614018">
<time>2016-10-07T13:21:54Z</time></trkpt>
<trkpt lat="29.078809" lon="98.614038">
<time>2016-10-07T13:21:55Z</time></trkpt>
<trkpt lat="29.078999" lon="98.614068">
<time>2016-10-07T13:21:56Z</time></trkpt>
<trkpt lat="29.079149" lon="98.614078">
<time>2016-10-07T13:21:57Z</time></trkpt>
<trkpt lat="29.079309" lon="98.614078">
<time>2016-10-07T13:21:58Z</time></trkpt>
<trkpt lat="29.079419" lon="98.614058">
<time>2016-10-07T13:21:59Z</time></trkpt>
<trkpt lat="29.079519" lon="98.614028">
<time>2016-10-07T13:22:00Z</time></trkpt>
<trkpt lat="29.079619" lon="98.613998">
<time>2016-10-07T13:22:01Z</time></trkpt>
<trkpt lat="29.079718" lon="98.613968">
<time>2016-10-07T13:22:02Z</time></trkpt>
<trkpt lat="29.079798" lon="98.613948">
<time>2016-10-07T13:22:03Z</time></trkpt>
<trkpt lat="29.079888" lon="98.613938">
<time>2016-10-07T13:22:04Z</time></trkpt>
<trkpt lat="29.079948" lon="98.613938">
<time>2016-10-07T13:22:05Z</time></trkpt>
<trkpt lat="29.080048" lon="98.613948">
<time>2016-10-07T13:22:06Z</time></trkpt>
<trkpt lat="29.080158" lon="98.613958">
<time>2016-10-07T13:22:07Z</time></trkpt>
<trkpt lat="29.080308" lon="98.613978">
<time>2016-10-07T13:22:08Z</time></trkpt>
<trkpt lat="29.080518" lon="98.613988">
<time>2016-10-07T13:22:09Z</time></trkpt>
<trkpt lat="29.080728" lon="98.613988">
<time>2016-10-07T13:22:10Z</time></trkpt>
<trkpt lat="29.081077" lon="98.613958">
<time>2016-10-07T13:22:11Z</time></trkpt>
<trkpt lat="29.081197" lon="98.613948">
<time>2016-10-07T13:22:12Z</time></trkpt>
<trkpt lat="29.081517" lon="98.613938">
<time>2016-10-07T13:22:13Z</time></trkpt>
<trkpt lat="29.081747" lon="98.613938">
<time>2016-10-07T13:22:14Z</time></trkpt>
<trkpt lat="29.081877" lon="98.613958">
<time>2016-10-07T13:22:15Z</time></trkpt>
<trkpt lat="29.082057" lon="98.613968">
<time>2016-10-07T13:22:16Z</time></trkpt>
<trkpt lat="29.082237" lon="98.613968">
<time>2016-10-07T13:22:17Z</time></trkpt>
<trkpt lat="29.082406" lon="98.613958">
<time>2016-10-07T13:22:18Z</time></trkpt>
<trkpt lat="29.082576" lon="98.613928">
<time>2016-10-07T13:22:19Z</time></trkpt>
<trkpt lat="29.082796" lon="98.613888">
<time>2016-10-07T13:22:20Z</time></trkpt>
<trkpt lat="29.083216" lon="98.613829">
<time>2016-10-07T13:22:21Z</time></trkpt>
<trkpt lat="29.083376" lon="98.613799">
<time>2016-10-07T13:22:22Z</time></trkpt>
<trkpt lat="29.083456" lon="98.613789">
<time>2016-10-07T13:22:23Z</time></trkpt>
<trkpt lat="29.083576" lon="98.613769">
<time>2016-10-07T13:22:24Z</time></trkpt>
<trkpt lat="29.083686" lon="98.613749">
<time>2016-10-07T13:22:25Z</time></trkpt>
<trkpt lat="29.083785" lon="98.613739">
<time>2016-10-07T13:22:26Z</time></trkpt>
<trkpt lat="29.083895" lon="98.613719">
<time>2016-10-07T13:22:27Z</time></trkpt>
<trkpt lat="29.084195" lon="98.613659">
<time>2016-10-07T13:22:28Z</time></trkpt>
<trkpt lat="29.084355" lon="98.613629">
<time>2016-10-07T13:22:29Z</time></trkpt>
<trkpt lat="29.084465" lon="98.613599">
<time>2016-10-07T13:22:30Z</time></trkpt>
<trkpt lat="29.084575" lon="98.613569">
<time>2016-10-07T13:22:31Z</time></trkpt>
<trkpt lat="29.084665" lon="98.613529">
<time>2016-10-07T13:22:32Z</time></trkpt>
<trkpt lat="29.084815" lon="98.613489">
<time>2016-10-07T13:22:33Z</time></trkpt>
<trkpt lat="29.084915" lon="98.613459">
<time>2016-10-07T13:22:34Z</time></trkpt>
<trkpt lat="29.084995" lon="98.613449">
<time>2016-10-07T13:22:35Z</time></trkpt>
<trkpt lat="29.085085" lon="98.613449">
<time>2016-10-07T13:22:36Z</time></trkpt>
<trkpt lat="29.085165" lon="98.613469">
<time>2016-10-07T13:22:37Z</time></trkpt>
<trkpt lat="29.085215" lon="98.613479">
<time>2016-10-07T13:22:38Z</time></trkpt>
<trkpt lat="29.085294" lon="98.613509">
<time>2016-10-07T13:22:39Z</time></trkpt>
<trkpt lat="29.085394" lon="98.613569">
<time>2016-10-07T13:22:40Z</time></trkpt>
<trkpt lat="29.085584" lon="98.613679">
<time>2016-10-07T13:22:41Z</time></trkpt>
<trkpt lat="29.085714" lon="98.613749">
<time>2016-10-07T13:22:42Z</time></trkpt>
<trkpt lat="29.085834" lon="98.613809">
<time>2016-10-07T13:22:43Z</time></trkpt>
<trkpt lat="29.086004" lon="98.613868">
<time>2016-10-07T13:22:44Z</time></trkpt>
<trkpt lat="29.086163" lon="98.613908">
<time>2016-10-07T13:22:45Z</time></trkpt>
<trkpt lat="29.086303" lon="98.613928">
<time>2016-10-07T13:22:46Z</time></trkpt>
<trkpt lat="29.086433" lon="98.613938">
<time>2016-10-07T13:22:47Z</time></trkpt>
<trkpt lat="29.086583" lon="98.613948">
<time>2016-10-07T13:22:48Z</time></trkpt>
<trkpt lat="29.086773" lon="98.613958">
<time>2016-10-07T13:22:49Z</time></trkpt>
<trkpt lat="29.086953" lon="98.613938">
<time>2016-10-07T13:22:50Z</time></trkpt>
<trkpt lat="29.087113" lon="98.613918">
<time>2016-10-07T13:22:51Z</time></trkpt>
<trkpt lat="29.087213" lon="98.613908">
<time>2016-10-07T13:22:52Z</time></trkpt>
<trkpt lat="29.087283" lon="98.613888">
<time>2016-10-07T13:22:53Z</time></trkpt>
<trkpt lat="29.087383" lon="98.613868">
<time>2016-10-07T13:22:54Z</time></trkpt>
<trkpt lat="29.087502" lon="98.613838">
<time>2016-10-07T13:22:55Z</time></trkpt>
<trkpt lat="29.087612" lon="98.613819">
<time>2016-10-07T13:22:56Z</time></trkpt>
<trkpt lat="29.087742" lon="98.613799">
<time>2016-10-07T13:22:57Z</time></trkpt>
<trkpt lat="29.087852" lon="98.613779">
<time>2016-10-07T13:22:58Z</time></trkpt>
<trkpt lat="29.088002" lon="98.613759">
<time>2016-10-07T13:22:59Z</time></trkpt>
<trkpt lat="29.088092" lon="98.613749">
<time>2016-10-07T13:23:00Z</time></trkpt>
<trkpt lat="29.088212" lon="98.613739">
<time>2016-10-07T13:23:01Z</time></trkpt>
<trkpt lat="29.088562" lon="98.613709">
<time>2016-10-07T13:23:02Z</time></trkpt>
<trkpt lat="29.088852" lon="98.613679">
<time>2016-10-07T13:23:03Z</time></trkpt>
<trkpt lat="29.089091" lon="98.613669">
<time>2016-10-07T13:23:04Z</time></trkpt>
<trkpt lat="29.089251" lon="98.613669">
<time>2016-10-07T13:23:05Z</time></trkpt>
<trkpt lat="29.089491" lon="98.613699">
<time>2016-10-07T13:23:06Z</time></trkpt>
<trkpt lat="29.089651" lon="98.613729">
<time>2016-10-07T13:23:07Z</time></trkpt>
<trkpt lat="29.089821" lon="98.613759">
<time>2016-10-07T13:23:08Z</time></trkpt>
<trkpt lat="29.090001" lon="98.613828">
<time>2016-10-07T13:23:09Z</time></trkpt>
<trkpt lat="29.09014" lon="98.613878">
<time>2016-10-07T13:23:10Z</time></trkpt>
<trkpt lat="29.09031" lon="98.613968">
<time>2016-10-07T13:23:11Z</time></trkpt>
<trkpt lat="29.09048" lon="98.614058">
<time>2016-10-07T13:23:12Z</time></trkpt>
<trkpt lat="29.09058" lon="98.614128">
<time>2016-10-07T13:23:13Z</time></trkpt>
<trkpt lat="29.09066" lon="98.614188">
<time>2016-10-07T13:23:14Z</time></trkpt>
<trkpt lat="29.09082" lon="98.614328">
<time>2016-10-07T13:23:15Z</time></trkpt>
<trkpt lat="29.090889" lon="98.614408">
<time>2016-10-07T13:23:16Z</time></trkpt>
<trkpt lat="29.090929" lon="98.614468">
<time>2016-10-07T13:23:17Z</time></trkpt>
<trkpt lat="29.090969" lon="98.614537">
<time>2016-10-07T13:23:18Z</time></trkpt>
<trkpt lat="29.090999" lon="98.614617">
<time>2016-10-07T13:23:19Z</time></trkpt>
<trkpt lat="29.091019" lon="98.614707">
<time>2016-10-07T13:23:20Z</time></trkpt>
<trkpt lat="29.091019" lon="98.614787">
<time>2016-10-07T13:23:21Z</time></trkpt>
<trkpt lat="29.091019" lon="98.614847">
<time>2016-10-07T13:23:22Z</time></trkpt>
<trkpt lat="29.091009" lon="98.614927">
<time>2016-10-07T13:23:23Z</time></trkpt>
<trkpt lat="29.090989" lon="98.615037">
<time>2016-10-07T13:23:24Z</time></trkpt>
<trkpt lat="29.090959" lon="98.615187">
<time>2016-10-07T13:23:25Z</time></trkpt>
<trkpt lat="29.090949" lon="98.615257">
<time>2016-10-07T13:23:26Z</time></trkpt>
<trkpt lat="29.090949" lon="98.615316">
<time>2016-10-07T13:23:27Z</time></trkpt>
<trkpt lat="29.090949" lon="98.615386">
<time>2016-10-07T13:23:28Z</time></trkpt>
<trkpt lat="29.090969" lon="98.615446">
<time>2016-10-07T13:23:29Z</time></trkpt>
<trkpt lat="29.090999" lon="98.615496">
<time>2016-10-07T13:23:30Z</time></trkpt>
<trkpt lat="29.091028" lon="98.615536">
<time>2016-10-07T13:23:31Z</time></trkpt>
<trkpt lat="29.091078" lon="98.615576">
<time>2016-10-07T13:23:32Z</time></trkpt>
<trkpt lat="29.091138" lon="98.615616">
<time>2016-10-07T13:23:33Z</time></trkpt>
<trkpt lat="29.091218" lon="98.615626">
<time>2016-10-07T13:23:34Z</time></trkpt>
<trkpt lat="29.091288" lon="98.615626">
<time>2016-10-07T13:23:35Z</time></trkpt>
<trkpt lat="29.091358" lon="98.615626">
<time>2016-10-07T13:23:36Z</time></trkpt>
<trkpt lat="29.091468" lon="98.615616">
<time>2016-10-07T13:23:37Z</time></trkpt>
<trkpt lat="29.091658" lon="98.615596">
<time>2016-10-07T13:23:38Z</time></trkpt>
<trkpt lat="29.092008" lon="98.615556">
<time>2016-10-07T13:23:39Z</time></trkpt>
<trkpt lat="29.092088" lon="98.615546">
<time>2016-10-07T13:23:40Z</time></trkpt>
<trkpt lat="29.092178" lon="98.615536">
<time>2016-10-07T13:23:41Z</time></trkpt>
<trkpt lat="29.092287" lon="98.615536">
<time>2016-10-07T13:23:42Z</time></trkpt>
<trkpt lat="29.092437" lon="98.615536">
<time>2016-10-07T13:23:43Z</time></trkpt>
<trkpt lat="29.092567" lon="98.615546">
<time>2016-10-07T13:23:44Z</time></trkpt>
<trkpt lat="29.092657" lon="98.615566">
<time>2016-10-07T13:23:45Z</time></trkpt>
<trkpt lat="29.092777" lon="98.615596">
<time>2016-10-07T13:23:46Z</time></trkpt>
<trkpt lat="29.092887" lon="98.615626">
<time>2016-10-07T13:23:47Z</time></trkpt>
<trkpt lat="29.093007" lon="98.615666">
<time>2016-10-07T13:23:48Z</time></trkpt>
<trkpt lat="29.093167" lon="98.615736">
<time>2016-10-07T13:23:49Z</time></trkpt>
<trkpt lat="29.093306" lon="98.615806">
<time>2016-10-07T13:23:50Z</time></trkpt>
<trkpt lat="29.093436" lon="98.615886">
<time>2016-10-07T13:23:51Z</time></trkpt>
<trkpt lat="29.093576" lon="98.615975">
<time>2016-10-07T13:23:52Z</time></trkpt>
<trkpt lat="29.093696" lon="98.616075">
<time>2016-10-07T13:23:53Z</time></trkpt>
<trkpt lat="29.093796" lon="98.616165">
<time>2016-10-07T13:23:54Z</time></trkpt>
<trkpt lat="29.093906" lon="98.616275">
<time>2016-10-07T13:23:55Z</time></trkpt>
<trkpt lat="29.094035" lon="98.616435">
<time>2016-10-07T13:23:56Z</time></trkpt>
<trkpt lat="29.094145" lon="98.616565">
<time>2016-10-07T13:23:57Z</time></trkpt>
<trkpt lat="29.094265" lon="98.616714">
<time>2016-10-07T13:23:58Z</time></trkpt>
<trkpt lat="29.094345" lon="98.616814">
<time>2016-10-07T13:23:59Z</time></trkpt>
<trkpt lat="29.094485" lon="98.616984">
<time>2016-10-07T13:24:00Z</time></trkpt>
<trkpt lat="29.094564" lon="98.617084">
<time>2016-10-07T13:24:01Z</time></trkpt>
<trkpt lat="29.094714" lon="98.617264">
<time>2016-10-07T13:24:02Z</time></trkpt>
<trkpt lat="29.094824" lon="98.617403">
<time>2016-10-07T13:24:03Z</time></trkpt>
<trkpt lat="29.094914" lon="98.617503">
<time>2016-10-07T13:24:04Z</time></trkpt>
<trkpt lat="29.094994" lon="98.617593">
<time>2016-10-07T13:24:05Z</time></trkpt>
<trkpt lat="29.095074" lon="98.617673">
<time>2016-10-07T13:24:06Z</time></trkpt>
<trkpt lat="29.095233" lon="98.617823">
<time>2016-10-07T13:24:07Z</time></trkpt>
<trkpt lat="29.095423" lon="98.618002">
<time>2016-10-07T13:24:08Z</time></trkpt>
<trkpt lat="29.095523" lon="98.618122">
<time>2016-10-07T13:24:09Z</time></trkpt>
<trkpt lat="29.095603" lon="98.618212">
<time>2016-10-07T13:24:10Z</time></trkpt>
<trkpt lat="29.095703" lon="98.618352">
<time>2016-10-07T13:24:11Z</time></trkpt>
<trkpt lat="29.095822" lon="98.618532">
<time>2016-10-07T13:24:12Z</time></trkpt>
<trkpt lat="29.095872" lon="98.618612">
<time>2016-10-07T13:24:13Z</time></trkpt>
<trkpt lat="29.095922" lon="98.618671">
<time>2016-10-07T13:24:14Z</time></trkpt>
<trkpt lat="29.095982" lon="98.618731">
<time>2016-10-07T13:24:15Z</time></trkpt>
<trkpt lat="29.096052" lon="98.618781">
<time>2016-10-07T13:24:16Z</time></trkpt>
<trkpt lat="29.096112" lon="98.618821">
<time>2016-10-07T13:24:17Z</time></trkpt>
<trkpt lat="29.096212" lon="98.618861">
<time>2016-10-07T13:24:18Z</time></trkpt>
<trkpt lat="29.096282" lon="98.618881">
<time>2016-10-07T13:24:19Z</time></trkpt>
<trkpt lat="29.096362" lon="98.618891">
<time>2016-10-07T13:24:20Z</time></trkpt>
<trkpt lat="29.096451" lon="98.618901">
<time>2016-10-07T13:24:21Z</time></trkpt>
<trkpt lat="29.096551" lon="98.618931">
<time>2016-10-07T13:24:22Z</time></trkpt>
<trkpt lat="29.096671" lon="98.618961">
<time>2016-10-07T13:24:23Z</time></trkpt>
<trkpt lat="29.096871" lon="98.619001">
<time>2016-10-07T13:24:24Z</time></trkpt>
<trkpt lat="29.097101" lon="98.619051">
<time>2016-10-07T13:24:25Z</time></trkpt>
<trkpt lat="29.097271" lon="98.619111">
<time>2016-10-07T13:24:26Z</time></trkpt>
<trkpt lat="29.097391" lon="98.619161">
<time>2016-10-07T13:24:27Z</time></trkpt>
<trkpt lat="29.09754" lon="98.619241">
<time>2016-10-07T13:24:28Z</time></trkpt>
<trkpt lat="29.09772" lon="98.61934">
<time>2016-10-07T13:24:29Z</time></trkpt>
<trkpt lat="29.09785" lon="98.61942">
<time>2016-10-07T13:24:30Z</time></trkpt>
<trkpt lat="29.09805" lon="98.61953">
<time>2016-10-07T13:24:31Z</time></trkpt>
<trkpt lat="29.098219" lon="98.61964">
<time>2016-10-07T13:24:32Z</time></trkpt>
<trkpt lat="29.098399" lon="98.61975">
<time>2016-10-07T13:24:33Z</time></trkpt>
<trkpt lat="29.098589" lon="98.61985">
<time>2016-10-07T13:24:34Z</time></trkpt>
<trkpt lat="29.098749" lon="98.619959">
<time>2016-10-07T13:24:35Z</time></trkpt>
<trkpt lat="29.098889" lon="98.620029">
<time>2016-10-07T13:24:36Z</time></trkpt>
<trkpt lat="29.099038" lon="98.620119">
<time>2016-10-07T13:24:37Z</time></trkpt>
<trkpt lat="29.099168" lon="98.620189">
<time>2016-10-07T13:24:38Z</time></trkpt>
<trkpt lat="29.099318" lon="98.620259">
<time>2016-10-07T13:24:39Z</time></trkpt>
<trkpt lat="29.099478" lon="98.620309">
<time>2016-10-07T13:24:40Z</time></trkpt>
<trkpt lat="29.099628" lon="98.620349">
<time>2016-10-07T13:24:41Z</time></trkpt>
<trkpt lat="29.099787" lon="98.620399">
<time>2016-10-07T13:24:42Z</time></trkpt>
<trkpt lat="29.099927" lon="98.620449">
<time>2016-10-07T13:24:43Z</time></trkpt>
<trkpt lat="29.100077" lon="98.620518">
<time>2016-10-07T13:24:44Z</time></trkpt>
<trkpt lat="29.100197" lon="98.620588">
<time>2016-10-07T13:24:45Z</time></trkpt>
<trkpt lat="29.100317" lon="98.620668">
<time>2016-10-07T13:24:46Z</time></trkpt>
<trkpt lat="29.100437" lon="98.620768">
<time>2016-10-07T13:24:47Z</time></trkpt>
<trkpt lat="29.100526" lon="98.620848">
<time>2016-10-07T13:24:48Z</time></trkpt>
<trkpt lat="29.100626" lon="98.620938">
<time>2016-10-07T13:24:49Z</time></trkpt>
<trkpt lat="29.100766" lon="98.621068">
<time>2016-10-07T13:24:50Z</time></trkpt>
<trkpt lat="29.100866" lon="98.621147">
<time>2016-10-07T13:24:51Z</time></trkpt>
<trkpt lat="29.101006" lon="98.621277">
<time>2016-10-07T13:24:52Z</time></trkpt>
<trkpt lat="29.101165" lon="98.621427">
<time>2016-10-07T13:24:53Z</time></trkpt>
<trkpt lat="29.101275" lon="98.621517">
<time>2016-10-07T13:24:54Z</time></trkpt>
<trkpt lat="29.101405" lon="98.621617">
<time>2016-10-07T13:24:55Z</time></trkpt>
<trkpt lat="29.101525" lon="98.621697">
<time>2016-10-07T13:24:56Z</time></trkpt>
<trkpt lat="29.101635" lon="98.621756">
<time>2016-10-07T13:24:57Z</time></trkpt>
<trkpt lat="29.101775" lon="98.621816">
<time>2016-10-07T13:24:58Z</time></trkpt>
<trkpt lat="29.101984" lon="98.621896">
<time>2016-10-07T13:24:59Z</time></trkpt>
<trkpt lat="29.102114" lon="98.621946">
<time>2016-10-07T13:25:00Z</time></trkpt>
<trkpt lat="29.102244" lon="98.622016">
<time>2016-10-07T13:25:01Z</time></trkpt>
<trkpt lat="29.102354" lon="98.622086">
<time>2016-10-07T13:25:02Z</time></trkpt>
<trkpt lat="29.102464" lon="98.622156">
<time>2016-10-07T13:25:03Z</time></trkpt>
<trkpt lat="29.102683" lon="98.622315">
<time>2016-10-07T13:25:04Z</time></trkpt>
<trkpt lat="29.102843" lon="98.622435">
<time>2016-10-07T13:25:05Z</time></trkpt>
<trkpt lat="29.103003" lon="98.622535">
<time>2016-10-07T13:25:06Z</time></trkpt>
<trkpt lat="29.103163" lon="98.622635">
<time>2016-10-07T13:25:07Z</time></trkpt>
<trkpt lat="29.103322" lon="98.622725">
<time>2016-10-07T13:25:08Z</time></trkpt>
<trkpt lat="29.103482" lon="98.622805">
<time>2016-10-07T13:25:09Z</time></trkpt>
<trkpt lat="29.103592" lon="98.622855">
<time>2016-10-07T13:25:10Z</time></trkpt>
<trkpt lat="29.103722" lon="98.622894">
<time>2016-10-07T13:25:11Z</time></trkpt>
<trkpt lat="29.103852" lon="98.622944">
<time>2016-10-07T13:25:12Z</time></trkpt>
<trkpt lat="29.104022" lon="98.622984">
<time>2016-10-07T13:25:13Z</time></trkpt>
<trkpt lat="29.104191" lon="98.623014">
<time>2016-10-07T13:25:14Z</time></trkpt>
<trkpt lat="29.104351" lon="98.623034">
<time>2016-10-07T13:25:15Z</time></trkpt>
<trkpt lat="29.104541" lon="98.623044">
<time>2016-10-07T13:25:16Z</time></trkpt>
<trkpt lat="29.104751" lon="98.623044">
<time>2016-10-07T13:25:17Z</time></trkpt>
<trkpt lat="29.104831" lon="98.623044">
<time>2016-10-07T13:25:18Z</time></trkpt>
<trkpt lat="29.104941" lon="98.623024">
<time>2016-10-07T13:25:19Z</time></trkpt>
<trkpt lat="29.105101" lon="98.623004">
<time>2016-10-07T13:25:20Z</time></trkpt>
<trkpt lat="29.105281" lon="98.622974">
<time>2016-10-07T13:25:21Z</time></trkpt>
<trkpt lat="29.105471" lon="98.622944">
<time>2016-10-07T13:25:22Z</time></trkpt>
<trkpt lat="29.10564" lon="98.622924">
<time>2016-10-07T13:25:23Z</time></trkpt>
<trkpt lat="29.10581" lon="98.622894">
<time>2016-10-07T13:25:24Z</time></trkpt>
<trkpt lat="29.10597" lon="98.622865">
<time>2016-10-07T13:25:25Z</time></trkpt>
<trkpt lat="29.10615" lon="98.622835">
<time>2016-10-07T13:25:26Z</time></trkpt>
<trkpt lat="29.10632" lon="98.622825">
<time>2016-10-07T13:25:27Z</time></trkpt>
<trkpt lat="29.10645" lon="98.622825">
<time>2016-10-07T13:25:28Z</time></trkpt>
<trkpt lat="29.10657" lon="98.622825">
<time>2016-10-07T13:25:29Z</time></trkpt>
<trkpt lat="29.10667" lon="98.622825">
<time>2016-10-07T13:25:30Z</time></trkpt>
<trkpt lat="29.10682" lon="98.622835">
<time>2016-10-07T13:25:31Z</time></trkpt>
<trkpt lat="29.106979" lon="98.622835">
<time>2016-10-07T13:25:32Z</time></trkpt>
<trkpt lat="29.107159" lon="98.622835">
<time>2016-10-07T13:25:33Z</time></trkpt>
<trkpt lat="29.107359" lon="98.622845">
<time>2016-10-07T13:25:34Z</time></trkpt>
<trkpt lat="29.107519" lon="98.622864">
<time>2016-10-07T13:25:35Z</time></trkpt>
<trkpt lat="29.107709" lon="98.622874">
<time>2016-10-07T13:25:36Z</time></trkpt>
<trkpt lat="29.107909" lon="98.622914">
<time>2016-10-07T13:25:37Z</time></trkpt>
<trkpt lat="29.108039" lon="98.622944">
<time>2016-10-07T13:25:38Z</time></trkpt>
<trkpt lat="29.108178" lon="98.622994">
<time>2016-10-07T13:25:39Z</time></trkpt>
<trkpt lat="29.108318" lon="98.623044">
<time>2016-10-07T13:25:40Z</time></trkpt>
<trkpt lat="29.108488" lon="98.623094">
<time>2016-10-07T13:25:41Z</time></trkpt>
<trkpt lat="29.108628" lon="98.623144">
<time>2016-10-07T13:25:42Z</time></trkpt>
<trkpt lat="29.108778" lon="98.623194">
<time>2016-10-07T13:25:43Z</time></trkpt>
<trkpt lat="29.108898" lon="98.623244">
<time>2016-10-07T13:25:44Z</time></trkpt>
<trkpt lat="29.109107" lon="98.623314">
<time>2016-10-07T13:25:45Z</time></trkpt>
<trkpt lat="29.109267" lon="98.623374">
<time>2016-10-07T13:25:46Z</time></trkpt>
<trkpt lat="29.109397" lon="98.623414">
<time>2016-10-07T13:25:47Z</time></trkpt>
<trkpt lat="29.109507" lon="98.623473">
<time>2016-10-07T13:25:48Z</time></trkpt>
<trkpt lat="29.109587" lon="98.623533">
<time>2016-10-07T13:25:49Z</time></trkpt>
<trkpt lat="29.109637" lon="98.623603">
<time>2016-10-07T13:25:50Z</time></trkpt>
<trkpt lat="29.109657" lon="98.623673">
<time>2016-10-07T13:25:51Z</time></trkpt>
<trkpt lat="29.109666" lon="98.623763">
<time>2016-10-07T13:25:52Z</time></trkpt>
<trkpt lat="29.109656" lon="98.623853">
<time>2016-10-07T13:25:53Z</time></trkpt>
<trkpt lat="29.109616" lon="98.623923">
<time>2016-10-07T13:25:54Z</time></trkpt>
<trkpt lat="29.109556" lon="98.624042">
<time>2016-10-07T13:25:55Z</time></trkpt>
<trkpt lat="29.109496" lon="98.624132">
<time>2016-10-07T13:25:56Z</time></trkpt>
<trkpt lat="29.109456" lon="98.624232">
<time>2016-10-07T13:25:57Z</time></trkpt>
<trkpt lat="29.109416" lon="98.624332">
<time>2016-10-07T13:25:58Z</time></trkpt>
<trkpt lat="29.109396" lon="98.624442">
<time>2016-10-07T13:25:59Z</time></trkpt>
<trkpt lat="29.109376" lon="98.624581">
<time>2016-10-07T13:26:00Z</time></trkpt>
<trkpt lat="29.109346" lon="98.624711">
<time>2016-10-07T13:26:01Z</time></trkpt>
<trkpt lat="29.109306" lon="98.624811">
<time>2016-10-07T13:26:02Z</time></trkpt>
<trkpt lat="29.109286" lon="98.624861">
<time>2016-10-07T13:26:03Z</time></trkpt>
<trkpt lat="29.109256" lon="98.624911">
<time>2016-10-07T13:26:04Z</time></trkpt>
<trkpt lat="29.109206" lon="98.624971">
<time>2016-10-07T13:26:05Z</time></trkpt>
<trkpt lat="29.109135" lon="98.625041">
<time>2016-10-07T13:26:06Z</time></trkpt>
<trkpt lat="29.109035" lon="98.62515">
<time>2016-10-07T13:26:07Z</time></trkpt>
<trkpt lat="29.108965" lon="98.62521">
<time>2016-10-07T13:26:08Z</time></trkpt>
<trkpt lat="29.108825" lon="98.62533">
<time>2016-10-07T13:26:09Z</time></trkpt>
<trkpt lat="29.108705" lon="98.62544">
<time>2016-10-07T13:26:10Z</time></trkpt>
<trkpt lat="29.108605" lon="98.62554">
<time>2016-10-07T13:26:11Z</time></trkpt>
<trkpt lat="29.108455" lon="98.62566">
<time>2016-10-07T13:26:12Z</time></trkpt>
<trkpt lat="29.108355" lon="98.625759">
<time>2016-10-07T13:26:13Z</time></trkpt>
<trkpt lat="29.108305" lon="98.625809">
<time>2016-10-07T13:26:14Z</time></trkpt>
<trkpt lat="29.108275" lon="98.625859">
<time>2016-10-07T13:26:15Z</time></trkpt>
<trkpt lat="29.108255" lon="98.625889">
<time>2016-10-07T13:26:16Z</time></trkpt>
<trkpt lat="29.108235" lon="98.625929">
<time>2016-10-07T13:26:17Z</time></trkpt>
<trkpt lat="29.108225" lon="98.625949">
<time>2016-10-07T13:26:18Z</time></trkpt>
<trkpt lat="29.108225" lon="98.625979">
<time>2016-10-07T13:26:19Z</time></trkpt>
<trkpt lat="29.108215" lon="98.626009">
<time>2016-10-07T13:26:20Z</time></trkpt>
<trkpt lat="29.108215" lon="98.626059">
<time>2016-10-07T13:26:21Z</time></trkpt>
<trkpt lat="29.108215" lon="98.626089">
<time>2016-10-07T13:26:22Z</time></trkpt>
<trkpt lat="29.108225" lon="98.626119">
<time>2016-10-07T13:26:23Z</time></trkpt>
<trkpt lat="29.108235" lon="98.626139">
<time>2016-10-07T13:26:24Z</time></trkpt>
<trkpt lat="29.108245" lon="98.626169">
<time>2016-10-07T13:26:25Z</time></trkpt>
<trkpt lat="29.108265" lon="98.626209">
<time>2016-10-07T13:26:26Z</time></trkpt>
<trkpt lat="29.108295" lon="98.626248">
<time>2016-10-07T13:26:27Z</time></trkpt>
<trkpt lat="29.108335" lon="98.626278">
<time>2016-10-07T13:26:28Z</time></trkpt>
<trkpt lat="29.108395" lon="98.626298">
<time>2016-10-07T13:26:29Z</time></trkpt>
<trkpt lat="29.108445" lon="98.626318">
<time>2016-10-07T13:26:30Z</time></trkpt>
<trkpt lat="29.108505" lon="98.626328">
<time>2016-10-07T13:26:31Z</time></trkpt>
<trkpt lat="29.108584" lon="98.626338">
<time>2016-10-07T13:26:32Z</time></trkpt>
<trkpt lat="29.108654" lon="98.626348">
<time>2016-10-07T13:26:33Z</time></trkpt>
<trkpt lat="29.108724" lon="98.626368">
<time>2016-10-07T13:26:34Z</time></trkpt>
<trkpt lat="29.108794" lon="98.626388">
<time>2016-10-07T13:26:35Z</time></trkpt>
<trkpt lat="29.108854" lon="98.626408">
<time>2016-10-07T13:26:36Z</time></trkpt>
<trkpt lat="29.108914" lon="98.626438">
<time>2016-10-07T13:26:37Z</time></trkpt>
<trkpt lat="29.108974" lon="98.626478">
<time>2016-10-07T13:26:38Z</time></trkpt>
<trkpt lat="29.109034" lon="98.626518">
<time>2016-10-07T13:26:39Z</time></trkpt>
<trkpt lat="29.109094" lon="98.626578">
<time>2016-10-07T13:26:40Z</time></trkpt>
<trkpt lat="29.109154" lon="98.626628">
<time>2016-10-07T13:26:41Z</time></trkpt>
<trkpt lat="29.109214" lon="98.626688">
<time>2016-10-07T13:26:42Z</time></trkpt>
<trkpt lat="29.109264" lon="98.626718">
<time>2016-10-07T13:26:43Z</time></trkpt>
<trkpt lat="29.109303" lon="98.626748">
<time>2016-10-07T13:26:44Z</time></trkpt>
<trkpt lat="29.109353" lon="98.626767">
<time>2016-10-07T13:26:45Z</time></trkpt>
<trkpt lat="29.109393" lon="98.626777">
<time>2016-10-07T13:26:46Z</time></trkpt>
<trkpt lat="29.109453" lon="98.626787">
<time>2016-10-07T13:26:47Z</time></trkpt>
<trkpt lat="29.109513" lon="98.626787">
<time>2016-10-07T13:26:48Z</time></trkpt>
<trkpt lat="29.109843" lon="98.626757">
<time>2016-10-07T13:26:49Z</time></trkpt>
<trkpt lat="29.109933" lon="98.626757">
<time>2016-10-07T13:26:50Z</time></trkpt>
<trkpt lat="29.110203" lon="98.626787">
<time>2016-10-07T13:26:51Z</time></trkpt>
<trkpt lat="29.110303" lon="98.626807">
<time>2016-10-07T13:26:52Z</time></trkpt>
<trkpt lat="29.110422" lon="98.626817">
<time>2016-10-07T13:26:53Z</time></trkpt>
<trkpt lat="29.110512" lon="98.626827">
<time>2016-10-07T13:26:54Z</time></trkpt>
<trkpt lat="29.110702" lon="98.626827">
<time>2016-10-07T13:26:55Z</time></trkpt>
<trkpt lat="29.110832" lon="98.626817">
<time>2016-10-07T13:26:56Z</time></trkpt>
<trkpt lat="29.110942" lon="98.626807">
<time>2016-10-07T13:26:57Z</time></trkpt>
<trkpt lat="29.111042" lon="98.626787">
<time>2016-10-07T13:26:58Z</time></trkpt>
<trkpt lat="29.111182" lon="98.626747">
<time>2016-10-07T13:26:59Z</time></trkpt>
<trkpt lat="29.111392" lon="98.626678">
<time>2016-10-07T13:27:00Z</time></trkpt>
<trkpt lat="29.111562" lon="98.626618">
<time>2016-10-07T13:27:01Z</time></trkpt>
<trkpt lat="29.111702" lon="98.626568">
<time>2016-10-07T13:27:02Z</time></trkpt>
<trkpt lat="29.111802" lon="98.626528">
<time>2016-10-07T13:27:03Z</time></trkpt>
<trkpt lat="29.111922" lon="98.626488">
<time>2016-10-07T13:27:04Z</time></trkpt>
<trkpt lat="29.112042" lon="98.626448">
<time>2016-10-07T13:27:05Z</time></trkpt>
<trkpt lat="29.112132" lon="98.626428">
<time>2016-10-07T13:27:06Z</time></trkpt>
<trkpt lat="29.112202" lon="98.626418">
<time>2016-10-07T13:27:07Z</time></trkpt>
<trkpt lat="29.112252" lon="98.626418">
<time>2016-10-07T13:27:08Z</time></trkpt>
<trkpt lat="29.112311" lon="98.626418">
<time>2016-10-07T13:27:09Z</time></trkpt>
<trkpt lat="29.112381" lon="98.626438">
<time>2016-10-07T13:27:10Z</time></trkpt>
<trkpt lat="29.112411" lon="98.626448">
<time>2016-10-07T13:27:11Z</time></trkpt>
<trkpt lat="29.112471" lon="98.626468">
<time>2016-10-07T13:27:12Z</time></trkpt>
<trkpt lat="29.112521" lon="98.626488">
<time>2016-10-07T13:27:13Z</time></trkpt>
<trkpt lat="29.112591" lon="98.626528">
<time>2016-10-07T13:27:14Z</time></trkpt>
<trkpt lat="29.112641" lon="98.626568">
<time>2016-10-07T13:27:15Z</time></trkpt>
<trkpt lat="29.112701" lon="98.626608">
<time>2016-10-07T13:27:16Z</time></trkpt>
<trkpt lat="29.112781" lon="98.626658">
<time>2016-10-07T13:27:17Z</time></trkpt>
<trkpt lat="29.112881" lon="98.626737">
<time>2016-10-07T13:27:18Z</time></trkpt>
<trkpt lat="29.113" lon="98.626837">
<time>2016-10-07T13:27:19Z</time></trkpt>
<trkpt lat="29.11315" lon="98.626957">
<time>2016-10-07T13:27:20Z</time></trkpt>
<trkpt lat="29.11329" lon="98.627067">
<time>2016-10-07T13:27:21Z</time></trkpt>
<trkpt lat="29.1134" lon="98.627157">
<time>2016-10-07T13:27:22Z</time></trkpt>
<trkpt lat="29.11349" lon="98.627247">
<time>2016-10-07T13:27:23Z</time></trkpt>
<trkpt lat="29.113549" lon="98.627326">
<time>2016-10-07T13:27:24Z</time></trkpt>
<trkpt lat="29.113589" lon="98.627396">
<time>2016-10-07T13:27:25Z</time></trkpt>
<trkpt lat="29.113629" lon="98.627486">
<time>2016-10-07T13:27:26Z</time></trkpt>
<trkpt lat="29.113649" lon="98.627576">
<time>2016-10-07T13:27:27Z</time></trkpt>
<trkpt lat="29.113669" lon="98.627696">
<time>2016-10-07T13:27:28Z</time></trkpt>
<trkpt lat="29.113689" lon="98.627795">
<time>2016-10-07T13:27:29Z</time></trkpt>
<trkpt lat="29.113709" lon="98.627885">
<time>2016-10-07T13:27:30Z</time></trkpt>
<trkpt lat="29.113739" lon="98.627965">
<time>2016-10-07T13:27:31Z</time></trkpt>
<trkpt lat="29.113768" lon="98.628035">
<time>2016-10-07T13:27:32Z</time></trkpt>
<trkpt lat="29.113818" lon="98.628095">
<time>2016-10-07T13:27:33Z</time></trkpt>
<trkpt lat="29.113848" lon="98.628145">
<time>2016-10-07T13:27:34Z</time></trkpt>
<trkpt lat="29.113948" lon="98.628215">
<time>2016-10-07T13:27:35Z</time></trkpt>
<trkpt lat="29.114118" lon="98.628334">
<time>2016-10-07T13:27:36Z</time></trkpt>
<trkpt lat="29.114208" lon="98.628414">
<time>2016-10-07T13:27:37Z</time></trkpt>
<trkpt lat="29.114278" lon="98.628484">
<time>2016-10-07T13:27:38Z</time></trkpt>
<trkpt lat="29.114327" lon="98.628544">
<time>2016-10-07T13:27:39Z</time></trkpt>
<trkpt lat="29.114377" lon="98.628614">
<time>2016-10-07T13:27:40Z</time></trkpt>
<trkpt lat="29.114417" lon="98.628684">
<time>2016-10-07T13:27:41Z</time></trkpt>
<trkpt lat="29.114467" lon="98.628764">
<time>2016-10-07T13:27:42Z</time></trkpt>
<trkpt lat="29.114497" lon="98.628833">
<time>2016-10-07T13:27:43Z</time></trkpt>
<trkpt lat="29.114547" lon="98.628953">
<time>2016-10-07T13:27:44Z</time></trkpt>
<trkpt lat="29.114587" lon="98.629083">
<time>2016-10-07T13:27:45Z</time></trkpt>
<trkpt lat="29.114606" lon="98.629153">
<time>2016-10-07T13:27:46Z</time></trkpt>
<trkpt lat="29.114616" lon="98.629213">
<time>2016-10-07T13:27:47Z</time></trkpt>
<trkpt lat="29.114626" lon="98.629313">
<time>2016-10-07T13:27:48Z</time></trkpt>
<trkpt lat="29.114636" lon="98.629402">
<time>2016-10-07T13:27:49Z</time></trkpt>
<trkpt lat="29.114636" lon="98.629552">
<time>2016-10-07T13:27:50Z</time></trkpt>
<trkpt lat="29.114636" lon="98.629642">
<time>2016-10-07T13:27:51Z</time></trkpt>
<trkpt lat="29.114616" lon="98.629742">
<time>2016-10-07T13:27:52Z</time></trkpt>
<trkpt lat="29.114596" lon="98.629841">
<time>2016-10-07T13:27:53Z</time></trkpt>
<trkpt lat="29.114565" lon="98.629951">
<time>2016-10-07T13:27:54Z</time></trkpt>
<trkpt lat="29.114535" lon="98.630061">
<time>2016-10-07T13:27:55Z</time></trkpt>
<trkpt lat="29.114505" lon="98.630191">
<time>2016-10-07T13:27:56Z</time></trkpt>
<trkpt lat="29.114475" lon="98.630331">
<time>2016-10-07T13:27:57Z</time></trkpt>
<trkpt lat="29.114455" lon="98.63043">
<time>2016-10-07T13:27:58Z</time></trkpt>
<trkpt lat="29.114455" lon="98.63048">
<time>2016-10-07T13:27:59Z</time></trkpt>
<trkpt lat="29.114445" lon="98.63054">
<time>2016-10-07T13:28:00Z</time></trkpt>
<trkpt lat="29.114445" lon="98.63062">
<time>2016-10-07T13:28:01Z</time></trkpt>
<trkpt lat="29.114455" lon="98.63071">
<time>2016-10-07T13:28:02Z</time></trkpt>
<trkpt lat="29.114464" lon="98.63081">
<time>2016-10-07T13:28:03Z</time></trkpt>
<trkpt lat="29.114484" lon="98.630889">
<time>2016-10-07T13:28:04Z</time></trkpt>
<trkpt lat="29.114514" lon="98.630989">
<time>2016-10-07T13:28:05Z</time></trkpt>
<trkpt lat="29.114554" lon="98.631129">
<time>2016-10-07T13:28:06Z</time></trkpt>
<trkpt lat="29.114604" lon="98.631239">
<time>2016-10-07T13:28:07Z</time></trkpt>
<trkpt lat="29.114644" lon="98.631358">
<time>2016-10-07T13:28:08Z</time></trkpt>
<trkpt lat="29.114664" lon="98.631418">
<time>2016-10-07T13:28:09Z</time></trkpt>
<trkpt lat="29.114683" lon="98.631478">
<time>2016-10-07T13:28:10Z</time></trkpt>
<trkpt lat="29.114703" lon="98.631548">
<time>2016-10-07T13:28:11Z</time></trkpt>
<trkpt lat="29.114733" lon="98.631658">
<time>2016-10-07T13:28:12Z</time></trkpt>
<trkpt lat="29.114763" lon="98.631778">
<time>2016-10-07T13:28:13Z</time></trkpt>
<trkpt lat="29.114773" lon="98.631847">
<time>2016-10-07T13:28:14Z</time></trkpt>
<trkpt lat="29.114793" lon="98.631967">
<time>2016-10-07T13:28:15Z</time></trkpt>
<trkpt lat="29.114803" lon="98.632037">
<time>2016-10-07T13:28:16Z</time></trkpt>
<trkpt lat="29.114822" lon="98.632137">
<time>2016-10-07T13:28:17Z</time></trkpt>
<trkpt lat="29.114832" lon="98.632197">
<time>2016-10-07T13:28:18Z</time></trkpt>
<trkpt lat="29.114852" lon="98.632257">
<time>2016-10-07T13:28:19Z</time></trkpt>
<trkpt lat="29.114892" lon="98.632366">
<time>2016-10-07T13:28:20Z</time></trkpt>
<trkpt lat="29.114942" lon="98.632496">
<time>2016-10-07T13:28:21Z</time></trkpt>
<trkpt lat="29.114982" lon="98.632566">
<time>2016-10-07T13:28:22Z</time></trkpt>
<trkpt lat="29.115042" lon="98.632676">
<time>2016-10-07T13:28:23Z</time></trkpt>
<trkpt lat="29.115071" lon="98.632746">
<time>2016-10-07T13:28:24Z</time></trkpt>
<trkpt lat="29.115101" lon="98.632825">
<time>2016-10-07T13:28:25Z</time></trkpt>
<trkpt lat="29.115121" lon="98.632895">
<time>2016-10-07T13:28:26Z</time></trkpt>
<trkpt lat="29.115141" lon="98.632985">
<time>2016-10-07T13:28:27Z</time></trkpt>
<trkpt lat="29.115171" lon="98.633095">
<time>2016-10-07T13:28:28Z</time></trkpt>
<trkpt lat="29.115201" lon="98.633215">
<time>2016-10-07T13:28:29Z</time></trkpt>
<trkpt lat="29.115221" lon="98.633344">
<time>2016-10-07T13:28:30Z</time></trkpt>
<trkpt lat="29.11524" lon="98.633404">
<time>2016-10-07T13:28:31Z</time></trkpt>
<trkpt lat="29.11525" lon="98.633444">
<time>2016-10-07T13:28:32Z</time></trkpt>
<trkpt lat="29.11528" lon="98.633494">
<time>2016-10-07T13:28:33Z</time></trkpt>
<trkpt lat="29.1153" lon="98.633544">
<time>2016-10-07T13:28:34Z</time></trkpt>
<trkpt lat="29.11534" lon="98.633584">
<time>2016-10-07T13:28:35Z</time></trkpt>
<trkpt lat="29.11537" lon="98.633624">
<time>2016-10-07T13:28:36Z</time></trkpt>
<trkpt lat="29.1154" lon="98.633654">
<time>2016-10-07T13:28:37Z</time></trkpt>
<trkpt lat="29.11544" lon="98.633684">
<time>2016-10-07T13:28:38Z</time></trkpt>
<trkpt lat="29.11548" lon="98.633714">
<time>2016-10-07T13:28:39Z</time></trkpt>
<trkpt lat="29.11553" lon="98.633743">
<time>2016-10-07T13:28:40Z</time></trkpt>
<trkpt lat="29.11555" lon="98.633763">
<time>2016-10-07T13:28:41Z</time></trkpt>
<trkpt lat="29.1156" lon="98.633793">
<time>2016-10-07T13:28:42Z</time></trkpt>
<trkpt lat="29.11565" lon="98.633813">
<time>2016-10-07T13:28:43Z</time></trkpt>
<trkpt lat="29.115739" lon="98.633883">
<time>2016-10-07T13:28:44Z</time></trkpt>
<trkpt lat="29.115789" lon="98.633923">
<time>2016-10-07T13:28:45Z</time></trkpt>
<trkpt lat="29.115859" lon="98.633983">
<time>2016-10-07T13:28:46Z</time></trkpt>
<trkpt lat="29.115919" lon="98.634023">
<time>2016-10-07T13:28:47Z</time></trkpt>
<trkpt lat="29.115959" lon="98.634053">
<time>2016-10-07T13:28:48Z</time></trkpt>
<trkpt lat="29.116009" lon="98.634103">
<time>2016-10-07T13:28:49Z</time></trkpt>
<trkpt lat="29.116079" lon="98.634143">
<time>2016-10-07T13:28:50Z</time></trkpt>
<trkpt lat="29.116129" lon="98.634183">
<time>2016-10-07T13:28:51Z</time></trkpt>
<trkpt lat="29.116149" lon="98.634202">
<time>2016-10-07T13:28:52Z</time></trkpt>
<trkpt lat="29.116199" lon="98.634242">
<time>2016-10-07T13:28:53Z</time></trkpt>
<trkpt lat="29.116248" lon="98.634292">
<time>2016-10-07T13:28:54Z</time></trkpt>
<trkpt lat="29.116298" lon="98.634352">
<time>2016-10-07T13:28:55Z</time></trkpt>
<trkpt lat="29.116338" lon="98.634422">
<time>2016-10-07T13:28:56Z</time></trkpt>
<trkpt lat="29.116368" lon="98.634472">
<time>2016-10-07T13:28:57Z</time></trkpt>
<trkpt lat="29.116388" lon="98.634532">
<time>2016-10-07T13:28:58Z</time></trkpt>
<trkpt lat="29.116418" lon="98.634592">
<time>2016-10-07T13:28:59Z</time></trkpt>
<trkpt lat="29.116438" lon="98.634671">
<time>2016-10-07T13:29:00Z</time></trkpt>
<trkpt lat="29.116458" lon="98.634761">
<time>2016-10-07T13:29:01Z</time></trkpt>
<trkpt lat="29.116478" lon="98.634841">
<time>2016-10-07T13:29:02Z</time></trkpt>
<trkpt lat="29.116507" lon="98.634931">
<time>2016-10-07T13:29:03Z</time></trkpt>
<trkpt lat="29.116527" lon="98.635001">
<time>2016-10-07T13:29:04Z</time></trkpt>
<trkpt lat="29.116547" lon="98.635051">
<time>2016-10-07T13:29:05Z</time></trkpt>
<trkpt lat="29.116567" lon="98.635091">
<time>2016-10-07T13:29:06Z</time></trkpt>
<trkpt lat="29.116597" lon="98.63513">
<time>2016-10-07T13:29:07Z</time></trkpt>
<trkpt lat="29.116617" lon="98.63516">
<time>2016-10-07T13:29:08Z</time></trkpt>
<trkpt lat="29.116667" lon="98.63521">
<time>2016-10-07T13:29:09Z</time></trkpt>
<trkpt lat="29.116717" lon="98.63526">
<time>2016-10-07T13:29:10Z</time></trkpt>
<trkpt lat="29.116747" lon="98.6353">
<time>2016-10-07T13:29:11Z</time></trkpt>
<trkpt lat="29.116777" lon="98.63532">
<time>2016-10-07T13:29:12Z</time></trkpt>
<trkpt lat="29.116807" lon="98.63535">
<time>2016-10-07T13:29:13Z</time></trkpt>
<trkpt lat="29.116876" lon="98.6354">
<time>2016-10-07T13:29:14Z</time></trkpt>
<trkpt lat="29.116936" lon="98.63543">
<time>2016-10-07T13:29:15Z</time></trkpt>
<trkpt lat="29.117036" lon="98.63549">
<time>2016-10-07T13:29:16Z</time></trkpt>
<trkpt lat="29.117146" lon="98.63555">
<time>2016-10-07T13:29:17Z</time></trkpt>
<trkpt lat="29.117256" lon="98.635609">
<time>2016-10-07T13:29:18Z</time></trkpt>
<trkpt lat="29.117396" lon="98.635689">
<time>2016-10-07T13:29:19Z</time></trkpt>
<trkpt lat="29.117645" lon="98.635829">
<time>2016-10-07T13:29:20Z</time></trkpt>
<trkpt lat="29.118005" lon="98.636029">
<time>2016-10-07T13:29:21Z</time></trkpt>
<trkpt lat="29.118035" lon="98.636048">
<time>2016-10-07T13:29:22Z</time></trkpt>
<trkpt lat="29.118085" lon="98.636078">
<time>2016-10-07T13:29:23Z</time></trkpt>
<trkpt lat="29.118124" lon="98.636108">
<time>2016-10-07T13:29:24Z</time></trkpt>
<trkpt lat="29.118144" lon="98.636128">
<time>2016-10-07T13:29:25Z</time></trkpt>
<trkpt lat="29.118174" lon="98.636148">
<time>2016-10-07T13:29:26Z</time></trkpt>
<trkpt lat="29.118194" lon="98.636178">
<time>2016-10-07T13:29:27Z</time></trkpt>
<trkpt lat="29.118224" lon="98.636218">
<time>2016-10-07T13:29:28Z</time></trkpt>
<trkpt lat="29.118264" lon="98.636288">
<time>2016-10-07T13:29:29Z</time></trkpt>
<trkpt lat="29.118294" lon="98.636338">
<time>2016-10-07T13:29:30Z</time></trkpt>
<trkpt lat="29.118314" lon="98.636398">
<time>2016-10-07T13:29:31Z</time></trkpt>
<trkpt lat="29.118344" lon="98.636468">
<time>2016-10-07T13:29:32Z</time></trkpt>
<trkpt lat="29.118364" lon="98.636537">
<time>2016-10-07T13:29:33Z</time></trkpt>
<trkpt lat="29.118394" lon="98.636607">
<time>2016-10-07T13:29:34Z</time></trkpt>
<trkpt lat="29.118423" lon="98.636687">
<time>2016-10-07T13:29:35Z</time></trkpt>
<trkpt lat="29.118443" lon="98.636717">
<time>2016-10-07T13:29:36Z</time></trkpt>
<trkpt lat="29.118473" lon="98.636777">
<time>2016-10-07T13:29:37Z</time></trkpt>
<trkpt lat="29.118513" lon="98.636827">
<time>2016-10-07T13:29:38Z</time></trkpt>
<trkpt lat="29.118543" lon="98.636857">
<time>2016-10-07T13:29:39Z</time></trkpt>
<trkpt lat="29.118583" lon="98.636887">
<time>2016-10-07T13:29:40Z</time></trkpt>
<trkpt lat="29.118623" lon="98.636917">
<time>2016-10-07T13:29:41Z</time></trkpt>
<trkpt lat="29.118663" lon="98.636936">
<time>2016-10-07T13:29:42Z</time></trkpt>
<trkpt lat="29.118793" lon="98.636986">
<time>2016-10-07T13:29:43Z</time></trkpt>
<trkpt lat="29.118913" lon="98.637006">
<time>2016-10-07T13:29:44Z</time></trkpt>
<trkpt lat="29.118972" lon="98.637016">
<time>2016-10-07T13:29:45Z</time></trkpt>
<trkpt lat="29.119092" lon="98.637046">
<time>2016-10-07T13:29:46Z</time></trkpt>
<trkpt lat="29.119192" lon="98.637076">
<time>2016-10-07T13:29:47Z</time></trkpt>
<trkpt lat="29.119262" lon="98.637096">
<time>2016-10-07T13:29:48Z</time></trkpt>
<trkpt lat="29.119372" lon="98.637116">
<time>2016-10-07T13:29:49Z</time></trkpt>
<trkpt lat="29.119462" lon="98.637146">
<time>2016-10-07T13:29:50Z</time></trkpt>
<trkpt lat="29.119502" lon="98.637156">
<time>2016-10-07T13:29:51Z</time></trkpt>
<trkpt lat="29.119592" lon="98.637186">
<time>2016-10-07T13:29:52Z</time></trkpt>
<trkpt lat="29.119662" lon="98.637216">
<time>2016-10-07T13:29:53Z</time></trkpt>
<trkpt lat="29.119692" lon="98.637236">
<time>2016-10-07T13:29:54Z</time></trkpt>
<trkpt lat="29.119742" lon="98.637256">
<time>2016-10-07T13:29:55Z</time></trkpt>
<trkpt lat="29.119801" lon="98.637296">
<time>2016-10-07T13:29:56Z</time></trkpt>
<trkpt lat="29.119921" lon="98.637385">
<time>2016-10-07T13:29:57Z</time></trkpt>
<trkpt lat="29.120041" lon="98.637475">
<time>2016-10-07T13:29:58Z</time></trkpt>
<trkpt lat="29.120121" lon="98.637515">
<time>2016-10-07T13:29:59Z</time></trkpt>
<trkpt lat="29.120181" lon="98.637545">
<time>2016-10-07T13:30:00Z</time></trkpt>
<trkpt lat="29.120231" lon="98.637565">
<time>2016-10-07T13:30:01Z</time></trkpt>
<trkpt lat="29.120281" lon="98.637575">
<time>2016-10-07T13:30:02Z</time></trkpt>
<trkpt lat="29.120351" lon="98.637595">
<time>2016-10-07T13:30:03Z</time></trkpt>
<trkpt lat="29.1204" lon="98.637615">
<time>2016-10-07T13:30:04Z</time></trkpt>
<trkpt lat="29.12047" lon="98.637635">
<time>2016-10-07T13:30:05Z</time></trkpt>
<trkpt lat="29.12053" lon="98.637655">
<time>2016-10-07T13:30:06Z</time></trkpt>
<trkpt lat="29.12057" lon="98.637675">
<time>2016-10-07T13:30:07Z</time></trkpt>
<trkpt lat="29.12061" lon="98.637695">
<time>2016-10-07T13:30:08Z</time></trkpt>
<trkpt lat="29.12066" lon="98.637725">
<time>2016-10-07T13:30:09Z</time></trkpt>
<trkpt lat="29.12072" lon="98.637765">
<time>2016-10-07T13:30:10Z</time></trkpt>
<trkpt lat="29.12075" lon="98.637805">
<time>2016-10-07T13:30:11Z</time></trkpt>
<trkpt lat="29.12079" lon="98.637854">
<time>2016-10-07T13:30:12Z</time></trkpt>
<trkpt lat="29.12083" lon="98.637904">
<time>2016-10-07T13:30:13Z</time></trkpt>
<trkpt lat="29.12087" lon="98.637984">
<time>2016-10-07T13:30:14Z</time></trkpt>
<trkpt lat="29.120899" lon="98.638054">
<time>2016-10-07T13:30:15Z</time></trkpt>
<trkpt lat="29.120929" lon="98.638164">
<time>2016-10-07T13:30:16Z</time></trkpt>
<trkpt lat="29.120959" lon="98.638224">
<time>2016-10-07T13:30:17Z</time></trkpt>
<trkpt lat="29.120979" lon="98.638273">
<time>2016-10-07T13:30:18Z</time></trkpt>
<trkpt lat="29.121009" lon="98.638323">
<time>2016-10-07T13:30:19Z</time></trkpt>
<trkpt lat="29.121039" lon="98.638353">
<time>2016-10-07T13:30:20Z</time></trkpt>
<trkpt lat="29.121079" lon="98.638383">
<time>2016-10-07T13:30:21Z</time></trkpt>
<trkpt lat="29.121129" lon="98.638413">
<time>2016-10-07T13:30:22Z</time></trkpt>
<trkpt lat="29.121179" lon="98.638433">
<time>2016-10-07T13:30:23Z</time></trkpt>
<trkpt lat="29.121249" lon="98.638433">
<time>2016-10-07T13:30:24Z</time></trkpt>
<trkpt lat="29.121309" lon="98.638443">
<time>2016-10-07T13:30:25Z</time></trkpt>
<trkpt lat="29.121398" lon="98.638453">
<time>2016-10-07T13:30:26Z</time></trkpt>
<trkpt lat="29.121448" lon="98.638463">
<time>2016-10-07T13:30:27Z</time></trkpt>
<trkpt lat="29.121488" lon="98.638473">
<time>2016-10-07T13:30:28Z</time></trkpt>
<trkpt lat="29.121538" lon="98.638493">
<time>2016-10-07T13:30:29Z</time></trkpt>
<trkpt lat="29.121588" lon="98.638523">
<time>2016-10-07T13:30:30Z</time></trkpt>
<trkpt lat="29.121648" lon="98.638563">
<time>2016-10-07T13:30:31Z</time></trkpt>
<trkpt lat="29.121698" lon="98.638613">
<time>2016-10-07T13:30:32Z</time></trkpt>
<trkpt lat="29.121768" lon="98.638683">
<time>2016-10-07T13:30:33Z</time></trkpt>
<trkpt lat="29.121808" lon="98.638732">
<time>2016-10-07T13:30:34Z</time></trkpt>
<trkpt lat="29.121848" lon="98.638762">
<time>2016-10-07T13:30:35Z</time></trkpt>
<trkpt lat="29.121898" lon="98.638802">
<time>2016-10-07T13:30:36Z</time></trkpt>
<trkpt lat="29.121947" lon="98.638842">
<time>2016-10-07T13:30:37Z</time></trkpt>
<trkpt lat="29.122017" lon="98.638902">
<time>2016-10-07T13:30:38Z</time></trkpt>
<trkpt lat="29.122057" lon="98.638932">
<time>2016-10-07T13:30:39Z</time></trkpt>
<trkpt lat="29.122117" lon="98.638952">
<time>2016-10-07T13:30:40Z</time></trkpt>
<trkpt lat="29.122197" lon="98.638972">
<time>2016-10-07T13:30:41Z</time></trkpt>
<trkpt lat="29.122267" lon="98.638982">
<time>2016-10-07T13:30:42Z</time></trkpt>
<trkpt lat="29.122327" lon="98.638982">
<time>2016-10-07T13:30:43Z</time></trkpt>
<trkpt lat="29.122377" lon="98.638972">
<time>2016-10-07T13:30:44Z</time></trkpt>
<trkpt lat="29.122467" lon="98.638962">
<time>2016-10-07T13:30:45Z</time></trkpt>
<trkpt lat="29.122557" lon="98.638942">
<time>2016-10-07T13:30:46Z</time></trkpt>
<trkpt lat="29.122647" lon="98.638892">
<time>2016-10-07T13:30:47Z</time></trkpt>
<trkpt lat="29.122767" lon="98.638842">
<time>2016-10-07T13:30:48Z</time></trkpt>
<trkpt lat="29.122857" lon="98.638812">
<time>2016-10-07T13:30:49Z</time></trkpt>
<trkpt lat="29.122937" lon="98.638792">
<time>2016-10-07T13:30:50Z</time></trkpt>
<trkpt lat="29.123007" lon="98.638772">
<time>2016-10-07T13:30:51Z</time></trkpt>
<trkpt lat="29.123077" lon="98.638772">
<time>2016-10-07T13:30:52Z</time></trkpt>
<trkpt lat="29.123137" lon="98.638772">
<time>2016-10-07T13:30:53Z</time></trkpt>
<trkpt lat="29.123247" lon="98.638782">
<time>2016-10-07T13:30:54Z</time></trkpt>
<trkpt lat="29.123356" lon="98.638802">
<time>2016-10-07T13:30:55Z</time></trkpt>
<trkpt lat="29.123466" lon="98.638822">
<time>2016-10-07T13:30:56Z</time></trkpt>
<trkpt lat="29.123586" lon="98.638852">
<time>2016-10-07T13:30:57Z</time></trkpt>
<trkpt lat="29.123676" lon="98.638872">
<time>2016-10-07T13:30:58Z</time></trkpt>
<trkpt lat="29.123776" lon="98.638882">
<time>2016-10-07T13:30:59Z</time></trkpt>
<trkpt lat="29.123836" lon="98.638882">
<time>2016-10-07T13:31:00Z</time></trkpt>
<trkpt lat="29.123926" lon="98.638872">
<time>2016-10-07T13:31:01Z</time></trkpt>
<trkpt lat="29.124026" lon="98.638852">
<time>2016-10-07T13:31:02Z</time></trkpt>
<trkpt lat="29.124126" lon="98.638822">
<time>2016-10-07T13:31:03Z</time></trkpt>
<trkpt lat="29.124236" lon="98.638792">
<time>2016-10-07T13:31:04Z</time></trkpt>
<trkpt lat="29.124356" lon="98.638742">
<time>2016-10-07T13:31:05Z</time></trkpt>
<trkpt lat="29.124426" lon="98.638722">
<time>2016-10-07T13:31:06Z</time></trkpt>
<trkpt lat="29.124496" lon="98.638702">
<time>2016-10-07T13:31:07Z</time></trkpt>
<trkpt lat="29.124566" lon="98.638692">
<time>2016-10-07T13:31:08Z</time></trkpt>
<trkpt lat="29.124616" lon="98.638682">
<time>2016-10-07T13:31:09Z</time></trkpt>
<trkpt lat="29.124646" lon="98.638682">
<time>2016-10-07T13:31:10Z</time></trkpt>
<trkpt lat="29.124785" lon="98.638702">
<time>2016-10-07T13:31:11Z</time></trkpt>
<trkpt lat="29.124845" lon="98.638712">
<time>2016-10-07T13:31:12Z</time></trkpt>
<trkpt lat="29.124895" lon="98.638732">
<time>2016-10-07T13:31:13Z</time></trkpt>
<trkpt lat="29.124975" lon="98.638752">
<time>2016-10-07T13:31:14Z</time></trkpt>
<trkpt lat="29.125045" lon="98.638792">
<time>2016-10-07T13:31:15Z</time></trkpt>
<trkpt lat="29.125195" lon="98.638862">
<time>2016-10-07T13:31:16Z</time></trkpt>
<trkpt lat="29.125265" lon="98.638912">
<time>2016-10-07T13:31:17Z</time></trkpt>
<trkpt lat="29.125325" lon="98.638942">
<time>2016-10-07T13:31:18Z</time></trkpt>
<trkpt lat="29.125385" lon="98.638962">
<time>2016-10-07T13:31:19Z</time></trkpt>
<trkpt lat="29.125435" lon="98.638982">
<time>2016-10-07T13:31:20Z</time></trkpt>
<trkpt lat="29.125484" lon="98.639002">
<time>2016-10-07T13:31:21Z</time></trkpt>
<trkpt lat="29.125564" lon="98.639012">
<time>2016-10-07T13:31:22Z</time></trkpt>
<trkpt lat="29.125614" lon="98.639022">
<time>2016-10-07T13:31:23Z</time></trkpt>
<trkpt lat="29.125654" lon="98.639032">
<time>2016-10-07T13:31:24Z</time></trkpt>
<trkpt lat="29.125714" lon="98.639032">
<time>2016-10-07T13:31:25Z</time></trkpt>
<trkpt lat="29.125774" lon="98.639032">
<time>2016-10-07T13:31:26Z</time></trkpt>
<trkpt lat="29.125834" lon="98.639032">
<time>2016-10-07T13:31:27Z</time></trkpt>
<trkpt lat="29.125874" lon="98.639022">
<time>2016-10-07T13:31:28Z</time></trkpt>
<trkpt lat="29.126054" lon="98.638992">
<time>2016-10-07T13:31:29Z</time></trkpt>
<trkpt lat="29.126134" lon="98.638982">
<time>2016-10-07T13:31:30Z</time></trkpt>
<trkpt lat="29.126204" lon="98.638972">
<time>2016-10-07T13:31:31Z</time></trkpt>
<trkpt lat="29.126274" lon="98.638972">
<time>2016-10-07T13:31:32Z</time></trkpt>
<trkpt lat="29.126324" lon="98.638972">
<time>2016-10-07T13:31:33Z</time></trkpt>
<trkpt lat="29.126414" lon="98.638982">
<time>2016-10-07T13:31:34Z</time></trkpt>
<trkpt lat="29.126494" lon="98.638992">
<time>2016-10-07T13:31:35Z</time></trkpt>
<trkpt lat="29.126564" lon="98.639012">
<time>2016-10-07T13:31:36Z</time></trkpt>
<trkpt lat="29.126624" lon="98.639032">
<time>2016-10-07T13:31:37Z</time></trkpt>
<trkpt lat="29.126723" lon="98.639072">
<time>2016-10-07T13:31:38Z</time></trkpt>
<trkpt lat="29.126803" lon="98.639121">
<time>2016-10-07T13:31:39Z</time></trkpt>
<trkpt lat="29.126873" lon="98.639171">
<time>2016-10-07T13:31:40Z</time></trkpt>
<trkpt lat="29.126953" lon="98.639241">
<time>2016-10-07T13:31:41Z</time></trkpt>
<trkpt lat="29.127003" lon="98.639291">
<time>2016-10-07T13:31:42Z</time></trkpt>
<trkpt lat="29.127063" lon="98.639371">
<time>2016-10-07T13:31:43Z</time></trkpt>
<trkpt lat="29.127123" lon="98.639461">
<time>2016-10-07T13:31:44Z</time></trkpt>
<trkpt lat="29.127182" lon="98.63955">
<time>2016-10-07T13:31:45Z</time></trkpt>
<trkpt lat="29.127222" lon="98.63966">
<time>2016-10-07T13:31:46Z</time></trkpt>
<trkpt lat="29.127282" lon="98.63983">
<time>2016-10-07T13:31:47Z</time></trkpt>
<trkpt lat="29.127312" lon="98.63996">
<time>2016-10-07T13:31:48Z</time></trkpt>
<trkpt lat="29.127351" lon="98.640169">
<time>2016-10-07T13:31:49Z</time></trkpt>
<trkpt lat="29.127381" lon="98.640299">
<time>2016-10-07T13:31:50Z</time></trkpt>
<trkpt lat="29.127391" lon="98.640438">
<time>2016-10-07T13:31:51Z</time></trkpt>
<trkpt lat="29.127401" lon="98.640538">
<time>2016-10-07T13:31:52Z</time></trkpt>
<trkpt lat="29.1274" lon="98.640678">
<time>2016-10-07T13:31:53Z</time></trkpt>
<trkpt lat="29.12739" lon="98.640808">
<time>2016-10-07T13:31:54Z</time></trkpt>
<trkpt lat="29.12738" lon="98.640897">
<time>2016-10-07T13:31:55Z</time></trkpt>
<trkpt lat="29.12735" lon="98.640987">
<time>2016-10-07T13:31:56Z</time></trkpt>
<trkpt lat="29.12734" lon="98.641047">
<time>2016-10-07T13:31:57Z</time></trkpt>
<trkpt lat="29.12734" lon="98.641107">
<time>2016-10-07T13:31:58Z</time></trkpt>
<trkpt lat="29.12734" lon="98.641147">
<time>2016-10-07T13:31:59Z</time></trkpt>
<trkpt lat="29.12734" lon="98.641177">
<time>2016-10-07T13:32:00Z</time></trkpt>
<trkpt lat="29.12734" lon="98.641217">
<time>2016-10-07T13:32:01Z</time></trkpt>
<trkpt lat="29.12735" lon="98.641247">
<time>2016-10-07T13:32:02Z</time></trkpt>
<trkpt lat="29.12736" lon="98.641266">
<time>2016-10-07T13:32:03Z</time></trkpt>
<trkpt lat="29.12737" lon="98.641306">
<time>2016-10-07T13:32:04Z</time></trkpt>
<trkpt lat="29.127379" lon="98.641326">
<time>2016-10-07T13:32:05Z</time></trkpt>
<trkpt lat="29.127399" lon="98.641346">
<time>2016-10-07T13:32:06Z</time></trkpt>
<trkpt lat="29.127409" lon="98.641366">
<time>2016-10-07T13:32:07Z</time></trkpt>
<trkpt lat="29.127429" lon="98.641386">
<time>2016-10-07T13:32:08Z</time></trkpt>
<trkpt lat="29.127469" lon="98.641406">
<time>2016-10-07T13:32:09Z</time></trkpt>
<trkpt lat="29.127499" lon="98.641426">
<time>2016-10-07T13:32:10Z</time></trkpt>
<trkpt lat="29.127539" lon="98.641446">
<time>2016-10-07T13:32:11Z</time></trkpt>
<trkpt lat="29.127579" lon="98.641476">
<time>2016-10-07T13:32:12Z</time></trkpt>
<trkpt lat="29.127659" lon="98.641516">
<time>2016-10-07T13:32:13Z</time></trkpt>
<trkpt lat="29.127799" lon="98.641596">
<time>2016-10-07T13:32:14Z</time></trkpt>
<trkpt lat="29.127919" lon="98.641656">
<time>2016-10-07T13:32:15Z</time></trkpt>
<trkpt lat="29.128178" lon="98.641795">
<time>2016-10-07T13:32:16Z</time></trkpt>
<trkpt lat="29.128368" lon="98.641895">
<time>2016-10-07T13:32:17Z</time></trkpt>
<trkpt lat="29.128577" lon="98.642015">
<time>2016-10-07T13:32:18Z</time></trkpt>
<trkpt lat="29.128757" lon="98.642114">
<time>2016-10-07T13:32:19Z</time></trkpt>
<trkpt lat="29.128947" lon="98.642214">
<time>2016-10-07T13:32:20Z</time></trkpt>
<trkpt lat="29.129107" lon="98.642304">
<time>2016-10-07T13:32:21Z</time></trkpt>
<trkpt lat="29.129326" lon="98.642414">
<time>2016-10-07T13:32:22Z</time></trkpt>
<trkpt lat="29.129636" lon="98.642573">
<time>2016-10-07T13:32:23Z</time></trkpt>
<trkpt lat="29.129746" lon="98.642633">
<time>2016-10-07T13:32:24Z</time></trkpt>
<trkpt lat="29.129865" lon="98.642703">
<time>2016-10-07T13:32:25Z</time></trkpt>
<trkpt lat="29.130025" lon="98.642793">
<time>2016-10-07T13:32:26Z</time></trkpt>
<trkpt lat="29.130145" lon="98.642863">
<time>2016-10-07T13:32:27Z</time></trkpt>
<trkpt lat="29.130245" lon="98.642922">
<time>2016-10-07T13:32:28Z</time></trkpt>
<trkpt lat="29.130285" lon="98.642942">
<time>2016-10-07T13:32:29Z</time></trkpt>
<trkpt lat="29.130315" lon="98.642952">
<time>2016-10-07T13:32:30Z</time></trkpt>
<trkpt lat="29.130365" lon="98.642972">
<time>2016-10-07T13:32:31Z</time></trkpt>
<trkpt lat="29.130415" lon="98.642982">
<time>2016-10-07T13:32:32Z</time></trkpt>
<trkpt lat="29.130464" lon="98.642992">
<time>2016-10-07T13:32:33Z</time></trkpt>
<trkpt lat="29.130504" lon="98.642992">
<time>2016-10-07T13:32:34Z</time></trkpt>
<trkpt lat="29.130534" lon="98.642982">
<time>2016-10-07T13:32:35Z</time></trkpt>
<trkpt lat="29.130584" lon="98.642972">
<time>2016-10-07T13:32:36Z</time></trkpt>
<trkpt lat="29.130614" lon="98.642952">
<time>2016-10-07T13:32:37Z</time></trkpt>
<trkpt lat="29.130644" lon="98.642942">
<time>2016-10-07T13:32:38Z</time></trkpt>
<trkpt lat="29.130694" lon="98.642912">
<time>2016-10-07T13:32:39Z</time></trkpt>
<trkpt lat="29.130884" lon="98.642803">
<time>2016-10-07T13:32:40Z</time></trkpt>
<trkpt lat="29.131004" lon="98.642743">
<time>2016-10-07T13:32:41Z</time></trkpt>
<trkpt lat="29.131114" lon="98.642683">
<time>2016-10-07T13:32:42Z</time></trkpt>
<trkpt lat="29.131184" lon="98.642653">
<time>2016-10-07T13:32:43Z</time></trkpt>
<trkpt lat="29.131244" lon="98.642633">
<time>2016-10-07T13:32:44Z</time></trkpt>
<trkpt lat="29.131364" lon="98.642583">
<time>2016-10-07T13:32:45Z</time></trkpt>
<trkpt lat="29.131454" lon="98.642553">
<time>2016-10-07T13:32:46Z</time></trkpt>
<trkpt lat="29.131574" lon="98.642513">
<time>2016-10-07T13:32:47Z</time></trkpt>
<trkpt lat="29.131754" lon="98.642464">
<time>2016-10-07T13:32:48Z</time></trkpt>
<trkpt lat="29.131814" lon="98.642444">
<time>2016-10-07T13:32:49Z</time></trkpt>
<trkpt lat="29.131894" lon="98.642404">
<time>2016-10-07T13:32:50Z</time></trkpt>
<trkpt lat="29.131994" lon="98.642364">
<time>2016-10-07T13:32:51Z</time></trkpt>
<trkpt lat="29.132064" lon="98.642324">
<time>2016-10-07T13:32:52Z</time></trkpt>
<trkpt lat="29.132154" lon="98.642284">
<time>2016-10-07T13:32:53Z</time></trkpt>
<trkpt lat="29.132214" lon="98.642254">
<time>2016-10-07T13:32:54Z</time></trkpt>
<trkpt lat="29.132284" lon="98.642224">
<time>2016-10-07T13:32:55Z</time></trkpt>
<trkpt lat="29.132324" lon="98.642214">
<time>2016-10-07T13:32:56Z</time></trkpt>
<trkpt lat="29.132364" lon="98.642204">
<time>2016-10-07T13:32:57Z</time></trkpt>
<trkpt lat="29.132444" lon="98.642194">
<time>2016-10-07T13:32:58Z</time></trkpt>
<trkpt lat="29.132504" lon="98.642194">
<time>2016-10-07T13:32:59Z</time></trkpt>
<trkpt lat="29.132554" lon="98.642194">
<time>2016-10-07T13:33:00Z</time></trkpt>
<trkpt lat="29.132594" lon="98.642194">
<time>2016-10-07T13:33:01Z</time></trkpt>
<trkpt lat="29.132624" lon="98.642204">
<time>2016-10-07T13:33:02Z</time></trkpt>
<trkpt lat="29.132704" lon="98.642224">
<time>2016-10-07T13:33:03Z</time></trkpt>
<trkpt lat="29.132774" lon="98.642244">
<time>2016-10-07T13:33:04Z</time></trkpt>
<trkpt lat="29.132814" lon="98.642264">
<time>2016-10-07T13:33:05Z</time></trkpt>
<trkpt lat="29.132894" lon="98.642294">
<time>2016-10-07T13:33:06Z</time></trkpt>
<trkpt lat="29.132944" lon="98.642324">
<time>2016-10-07T13:33:07Z</time></trkpt>
<trkpt lat="29.133023" lon="98.642374">
<time>2016-10-07T13:33:08Z</time></trkpt>
<trkpt lat="29.133083" lon="98.642424">
<time>2016-10-07T13:33:09Z</time></trkpt>
<trkpt lat="29.133143" lon="98.642464">
<time>2016-10-07T13:33:10Z</time></trkpt>
<trkpt lat="29.133193" lon="98.642513">
<time>2016-10-07T13:33:11Z</time></trkpt>
<trkpt lat="29.133263" lon="98.642573">
<time>2016-10-07T13:33:12Z</time></trkpt>
<trkpt lat="29.133303" lon="98.642623">
<time>2016-10-07T13:33:13Z</time></trkpt>
<trkpt lat="29.133343" lon="98.642673">
<time>2016-10-07T13:33:14Z</time></trkpt>
<trkpt lat="29.133373" lon="98.642713">
<time>2016-10-07T13:33:15Z</time></trkpt>
<trkpt lat="29.133403" lon="98.642773">
<time>2016-10-07T13:33:16Z</time></trkpt>
<trkpt lat="29.133442" lon="98.642843">
<time>2016-10-07T13:33:17Z</time></trkpt>
<trkpt lat="29.133472" lon="98.642922">
<time>2016-10-07T13:33:18Z</time></trkpt>
<trkpt lat="29.133512" lon="98.643012">
<time>2016-10-07T13:33:19Z</time></trkpt>
<trkpt lat="29.133522" lon="98.643062">
<time>2016-10-07T13:33:20Z</time></trkpt>
<trkpt lat="29.133542" lon="98.643132">
<time>2016-10-07T13:33:21Z</time></trkpt>
<trkpt lat="29.133582" lon="98.643282">
<time>2016-10-07T13:33:22Z</time></trkpt>
<trkpt lat="29.133591" lon="98.643351">
<time>2016-10-07T13:33:23Z</time></trkpt>
<trkpt lat="29.133611" lon="98.643421">
<time>2016-10-07T13:33:24Z</time></trkpt>
<trkpt lat="29.133631" lon="98.643481">
<time>2016-10-07T13:33:25Z</time></trkpt>
<trkpt lat="29.133661" lon="98.643531">
<time>2016-10-07T13:33:26Z</time></trkpt>
<trkpt lat="29.133671" lon="98.643561">
<time>2016-10-07T13:33:27Z</time></trkpt>
<trkpt lat="29.133691" lon="98.643591">
<time>2016-10-07T13:33:28Z</time></trkpt>
<trkpt lat="29.133711" lon="98.643611">
<time>2016-10-07T13:33:29Z</time></trkpt>
<trkpt lat="29.133731" lon="98.643641">
<time>2016-10-07T13:33:30Z</time></trkpt>
<trkpt lat="29.133761" lon="98.643671">
<time>2016-10-07T13:33:31Z</time></trkpt>
<trkpt lat="29.133791" lon="98.643691">
<time>2016-10-07T13:33:32Z</time></trkpt>
<trkpt lat="29.133831" lon="98.643701">
<time>2016-10-07T13:33:33Z</time></trkpt>
<trkpt lat="29.133871" lon="98.643711">
<time>2016-10-07T13:33:34Z</time></trkpt>
<trkpt lat="29.133901" lon="98.64372">
<time>2016-10-07T13:33:35Z</time></trkpt>
<trkpt lat="29.133931" lon="98.64372">
<time>2016-10-07T13:33:36Z</time></trkpt>
<trkpt lat="29.133961" lon="98.64372">
<time>2016-10-07T13:33:37Z</time></trkpt>
<trkpt lat="29.133981" lon="98.643711">
<time>2016-10-07T13:33:38Z</time></trkpt>
<trkpt lat="29.134001" lon="98.643711">
<time>2016-10-07T13:33:39Z</time></trkpt>
<trkpt lat="29.134041" lon="98.643701">
<time>2016-10-07T13:33:40Z</time></trkpt>
<trkpt lat="29.134091" lon="98.643681">
<time>2016-10-07T13:33:41Z</time></trkpt>
<trkpt lat="29.134121" lon="98.643661">
<time>2016-10-07T13:33:42Z</time></trkpt>
<trkpt lat="29.134241" lon="98.643611">
<time>2016-10-07T13:33:43Z</time></trkpt>
<trkpt lat="29.134281" lon="98.643601">
<time>2016-10-07T13:33:44Z</time></trkpt>
<trkpt lat="29.134341" lon="98.643581">
<time>2016-10-07T13:33:45Z</time></trkpt>
<trkpt lat="29.13439" lon="98.643581">
<time>2016-10-07T13:33:46Z</time></trkpt>
<trkpt lat="29.13444" lon="98.643581">
<time>2016-10-07T13:33:47Z</time></trkpt>
<trkpt lat="29.13448" lon="98.643591">
<time>2016-10-07T13:33:48Z</time></trkpt>
<trkpt lat="29.1345" lon="98.643601">
<time>2016-10-07T13:33:49Z</time></trkpt>
<trkpt lat="29.13452" lon="98.643611">
<time>2016-10-07T13:33:50Z</time></trkpt>
<trkpt lat="29.13455" lon="98.643631">
<time>2016-10-07T13:33:51Z</time></trkpt>
<trkpt lat="29.13458" lon="98.643651">
<time>2016-10-07T13:33:52Z</time></trkpt>
<trkpt lat="29.13463" lon="98.643701">
<time>2016-10-07T13:33:53Z</time></trkpt>
<trkpt lat="29.13467" lon="98.64378">
<time>2016-10-07T13:33:54Z</time></trkpt>
<trkpt lat="29.13469" lon="98.64384">
<time>2016-10-07T13:33:55Z</time></trkpt>
<trkpt lat="29.13471" lon="98.64389">
<time>2016-10-07T13:33:56Z</time></trkpt>
<trkpt lat="29.13472" lon="98.64395">
<time>2016-10-07T13:33:57Z</time></trkpt>
<trkpt lat="29.13473" lon="98.644">
<time>2016-10-07T13:33:58Z</time></trkpt>
<trkpt lat="29.134729" lon="98.64409">
<time>2016-10-07T13:33:59Z</time></trkpt>
<trkpt lat="29.134739" lon="98.644159">
<time>2016-10-07T13:34:00Z</time></trkpt>
<trkpt lat="29.134729" lon="98.644229">
<time>2016-10-07T13:34:01Z</time></trkpt>
<trkpt lat="29.134729" lon="98.644329">
<time>2016-10-07T13:34:02Z</time></trkpt>
<trkpt lat="29.134729" lon="98.644389">
<time>2016-10-07T13:34:03Z</time></trkpt>
<trkpt lat="29.134739" lon="98.644439">
<time>2016-10-07T13:34:04Z</time></trkpt>
<trkpt lat="29.134739" lon="98.644489">
<time>2016-10-07T13:34:05Z</time></trkpt>
<trkpt lat="29.134759" lon="98.644558">
<time>2016-10-07T13:34:06Z</time></trkpt>
<trkpt lat="29.134778" lon="98.644638">
<time>2016-10-07T13:34:07Z</time></trkpt>
<trkpt lat="29.134808" lon="98.644728">
<time>2016-10-07T13:34:08Z</time></trkpt>
<trkpt lat="29.134848" lon="98.644818">
<time>2016-10-07T13:34:09Z</time></trkpt>
<trkpt lat="29.134878" lon="98.644888">
<time>2016-10-07T13:34:10Z</time></trkpt>
<trkpt lat="29.134918" lon="98.644977">
<time>2016-10-07T13:34:11Z</time></trkpt>
<trkpt lat="29.135017" lon="98.645177">
<time>2016-10-07T13:34:12Z</time></trkpt>
<trkpt lat="29.135067" lon="98.645287">
<time>2016-10-07T13:34:13Z</time></trkpt>
<trkpt lat="29.135107" lon="98.645376">
<time>2016-10-07T13:34:14Z</time></trkpt>
<trkpt lat="29.135127" lon="98.645446">
<time>2016-10-07T13:34:15Z</time></trkpt>
<trkpt lat="29.135147" lon="98.645496">
<time>2016-10-07T13:34:16Z</time></trkpt>
<trkpt lat="29.135157" lon="98.645546">
<time>2016-10-07T13:34:17Z</time></trkpt>
<trkpt lat="29.135186" lon="98.645646">
<time>2016-10-07T13:34:18Z</time></trkpt>
<trkpt lat="29.135226" lon="98.645775">
<time>2016-10-07T13:34:19Z</time></trkpt>
<trkpt lat="29.135256" lon="98.645925">
<time>2016-10-07T13:34:20Z</time></trkpt>
<trkpt lat="29.135296" lon="98.646065">
<time>2016-10-07T13:34:21Z</time></trkpt>
<trkpt lat="29.135345" lon="98.646254">
<time>2016-10-07T13:34:22Z</time></trkpt>
<trkpt lat="29.135385" lon="98.646414">
<time>2016-10-07T13:34:23Z</time></trkpt>
<trkpt lat="29.135415" lon="98.646494">
<time>2016-10-07T13:34:24Z</time></trkpt>
<trkpt lat="29.135435" lon="98.646534">
<time>2016-10-07T13:34:25Z</time></trkpt>
<trkpt lat="29.135455" lon="98.646583">
<time>2016-10-07T13:34:26Z</time></trkpt>
<trkpt lat="29.135485" lon="98.646633">
<time>2016-10-07T13:34:27Z</time></trkpt>
<trkpt lat="29.135525" lon="98.646673">
<time>2016-10-07T13:34:28Z</time></trkpt>
<trkpt lat="29.135554" lon="98.646703">
<time>2016-10-07T13:34:29Z</time></trkpt>
<trkpt lat="29.135604" lon="98.646743">
<time>2016-10-07T13:34:30Z</time></trkpt>
<trkpt lat="29.135654" lon="98.646773">
<time>2016-10-07T13:34:31Z</time></trkpt>
<trkpt lat="29.135704" lon="98.646803">
<time>2016-10-07T13:34:32Z</time></trkpt>
<trkpt lat="29.135764" lon="98.646823">
<time>2016-10-07T13:34:33Z</time></trkpt>
<trkpt lat="29.135804" lon="98.646833">
<time>2016-10-07T13:34:34Z</time></trkpt>
<trkpt lat="29.135884" lon="98.646843">
<time>2016-10-07T13:34:35Z</time></trkpt>
<trkpt lat="29.136054" lon="98.646833">
<time>2016-10-07T13:34:36Z</time></trkpt>
<trkpt lat="29.136164" lon="98.646833">
<time>2016-10-07T13:34:37Z</time></trkpt>
<trkpt lat="29.136264" lon="98.646833">
<time>2016-10-07T13:34:38Z</time></trkpt>
<trkpt lat="29.136324" lon="98.646843">
<time>2016-10-07T13:34:39Z</time></trkpt>
<trkpt lat="29.136384" lon="98.646853">
<time>2016-10-07T13:34:40Z</time></trkpt>
<trkpt lat="29.136433" lon="98.646863">
<time>2016-10-07T13:34:41Z</time></trkpt>
<trkpt lat="29.136473" lon="98.646873">
<time>2016-10-07T13:34:42Z</time></trkpt>
<trkpt lat="29.136503" lon="98.646893">
<time>2016-10-07T13:34:43Z</time></trkpt>
<trkpt lat="29.136583" lon="98.646933">
<time>2016-10-07T13:34:44Z</time></trkpt>
<trkpt lat="29.136633" lon="98.646962">
<time>2016-10-07T13:34:45Z</time></trkpt>
<trkpt lat="29.136683" lon="98.647002">
<time>2016-10-07T13:34:46Z</time></trkpt>
<trkpt lat="29.136753" lon="98.647052">
<time>2016-10-07T13:34:47Z</time></trkpt>
<trkpt lat="29.136823" lon="98.647112">
<time>2016-10-07T13:34:48Z</time></trkpt>
<trkpt lat="29.136853" lon="98.647142">
<time>2016-10-07T13:34:49Z</time></trkpt>
<trkpt lat="29.136913" lon="98.647182">
<time>2016-10-07T13:34:50Z</time></trkpt>
<trkpt lat="29.136972" lon="98.647232">
<time>2016-10-07T13:34:51Z</time></trkpt>
<trkpt lat="29.137052" lon="98.647272">
<time>2016-10-07T13:34:52Z</time></trkpt>
<trkpt lat="29.137122" lon="98.647312">
<time>2016-10-07T13:34:53Z</time></trkpt>
<trkpt lat="29.137232" lon="98.647342">
<time>2016-10-07T13:34:54Z</time></trkpt>
<trkpt lat="29.137262" lon="98.647352">
<time>2016-10-07T13:34:55Z</time></trkpt>
<trkpt lat="29.137312" lon="98.647352">
<time>2016-10-07T13:34:56Z</time></trkpt>
<trkpt lat="29.137382" lon="98.647361">
<time>2016-10-07T13:34:57Z</time></trkpt>
<trkpt lat="29.137452" lon="98.647361">
<time>2016-10-07T13:34:58Z</time></trkpt>
<trkpt lat="29.137512" lon="98.647361">
<time>2016-10-07T13:34:59Z</time></trkpt>
<trkpt lat="29.137692" lon="98.647342">
<time>2016-10-07T13:35:00Z</time></trkpt>
<trkpt lat="29.137812" lon="98.647332">
<time>2016-10-07T13:35:01Z</time></trkpt>
<trkpt lat="29.137892" lon="98.647332">
<time>2016-10-07T13:35:02Z</time></trkpt>
<trkpt lat="29.137982" lon="98.647332">
<time>2016-10-07T13:35:03Z</time></trkpt>
<trkpt lat="29.138061" lon="98.647342">
<time>2016-10-07T13:35:04Z</time></trkpt>
<trkpt lat="29.138141" lon="98.647351">
<time>2016-10-07T13:35:05Z</time></trkpt>
<trkpt lat="29.138241" lon="98.647381">
<time>2016-10-07T13:35:06Z</time></trkpt>
<trkpt lat="29.138351" lon="98.647401">
<time>2016-10-07T13:35:07Z</time></trkpt>
<trkpt lat="29.138471" lon="98.647431">
<time>2016-10-07T13:35:08Z</time></trkpt>
<trkpt lat="29.138531" lon="98.647431">
<time>2016-10-07T13:35:09Z</time></trkpt>
<trkpt lat="29.138581" lon="98.647431">
<time>2016-10-07T13:35:10Z</time></trkpt>
<trkpt lat="29.138621" lon="98.647431">
<time>2016-10-07T13:35:11Z</time></trkpt>
<trkpt lat="29.138701" lon="98.647421">
<time>2016-10-07T13:35:12Z</time></trkpt>
<trkpt lat="29.138801" lon="98.647381">
<time>2016-10-07T13:35:13Z</time></trkpt>
<trkpt lat="29.138871" lon="98.647361">
<time>2016-10-07T13:35:14Z</time></trkpt>
<trkpt lat="29.138931" lon="98.647332">
<time>2016-10-07T13:35:15Z</time></trkpt>
<trkpt lat="29.138991" lon="98.647322">
<time>2016-10-07T13:35:16Z</time></trkpt>
<trkpt lat="29.139041" lon="98.647312">
<time>2016-10-07T13:35:17Z</time></trkpt>
<trkpt lat="29.139081" lon="98.647312">
<time>2016-10-07T13:35:18Z</time></trkpt>
<trkpt lat="29.139131" lon="98.647312">
<time>2016-10-07T13:35:19Z</time></trkpt>
<trkpt lat="29.139171" lon="98.647322">
<time>2016-10-07T13:35:20Z</time></trkpt>
<trkpt lat="29.139231" lon="98.647332">
<time>2016-10-07T13:35:21Z</time></trkpt>
<trkpt lat="29.13928" lon="98.647361">
<time>2016-10-07T13:35:22Z</time></trkpt>
<trkpt lat="29.13933" lon="98.647401">
<time>2016-10-07T13:35:23Z</time></trkpt>
<trkpt lat="29.13941" lon="98.647461">
<time>2016-10-07T13:35:24Z</time></trkpt>
<trkpt lat="29.13949" lon="98.647541">
<time>2016-10-07T13:35:25Z</time></trkpt>
<trkpt lat="29.13959" lon="98.647631">
<time>2016-10-07T13:35:26Z</time></trkpt>
<trkpt lat="29.13968" lon="98.647711">
<time>2016-10-07T13:35:27Z</time></trkpt>
<trkpt lat="29.139739" lon="98.64776">
<time>2016-10-07T13:35:28Z</time></trkpt>
<trkpt lat="29.139799" lon="98.64781">
<time>2016-10-07T13:35:29Z</time></trkpt>
<trkpt lat="29.139849" lon="98.64784">
<time>2016-10-07T13:35:30Z</time></trkpt>
<trkpt lat="29.139899" lon="98.64786">
<time>2016-10-07T13:35:31Z</time></trkpt>
<trkpt lat="29.139949" lon="98.64788">
<time>2016-10-07T13:35:32Z</time></trkpt>
<trkpt lat="29.140019" lon="98.64789">
<time>2016-10-07T13:35:33Z</time></trkpt>
<trkpt lat="29.140059" lon="98.6479">
<time>2016-10-07T13:35:34Z</time></trkpt>
<trkpt lat="29.140149" lon="98.6479">
<time>2016-10-07T13:35:35Z</time></trkpt>
<trkpt lat="29.140259" lon="98.64789">
<time>2016-10-07T13:35:36Z</time></trkpt>
<trkpt lat="29.140329" lon="98.64787">
<time>2016-10-07T13:35:37Z</time></trkpt>
<trkpt lat="29.140369" lon="98.64786">
<time>2016-10-07T13:35:38Z</time></trkpt>
<trkpt lat="29.140409" lon="98.64784">
<time>2016-10-07T13:35:39Z</time></trkpt>
<trkpt lat="29.140489" lon="98.6478">
<time>2016-10-07T13:35:40Z</time></trkpt>
<trkpt lat="29.140539" lon="98.64776">
<time>2016-10-07T13:35:41Z</time></trkpt>
<trkpt lat="29.140589" lon="98.647721">
<time>2016-10-07T13:35:42Z</time></trkpt>
<trkpt lat="29.140649" lon="98.647661">
<time>2016-10-07T13:35:43Z</time></trkpt>
<trkpt lat="29.140709" lon="98.647591">
<time>2016-10-07T13:35:44Z</time></trkpt>
<trkpt lat="29.140809" lon="98.647451">
<time>2016-10-07T13:35:45Z</time></trkpt>
<trkpt lat="29.140909" lon="98.647331">
<time>2016-10-07T13:35:46Z</time></trkpt>
<trkpt lat="29.140999" lon="98.647232">
<time>2016-10-07T13:35:47Z</time></trkpt>
<trkpt lat="29.141029" lon="98.647192">
<time>2016-10-07T13:35:48Z</time></trkpt>
<trkpt lat="29.141059" lon="98.647172">
<time>2016-10-07T13:35:49Z</time></trkpt>
<trkpt lat="29.141089" lon="98.647142">
<time>2016-10-07T13:35:50Z</time></trkpt>
<trkpt lat="29.141139" lon="98.647102">
<time>2016-10-07T13:35:51Z</time></trkpt>
<trkpt lat="29.14119" lon="98.647062">
<time>2016-10-07T13:35:52Z</time></trkpt>
<trkpt lat="29.14125" lon="98.647022">
<time>2016-10-07T13:35:53Z</time></trkpt>
<trkpt lat="29.14131" lon="98.646982">
<time>2016-10-07T13:35:54Z</time></trkpt>
<trkpt lat="29.14135" lon="98.646952">
<time>2016-10-07T13:35:55Z</time></trkpt>
<trkpt lat="29.14141" lon="98.646913">
<time>2016-10-07T13:35:56Z</time></trkpt>
<trkpt lat="29.14145" lon="98.646883">
<time>2016-10-07T13:35:57Z</time></trkpt>
<trkpt lat="29.14155" lon="98.646823">
<time>2016-10-07T13:35:58Z</time></trkpt>
<trkpt lat="29.1416" lon="98.646783">
<time>2016-10-07T13:35:59Z</time></trkpt>
<trkpt lat="29.14165" lon="98.646743">
<time>2016-10-07T13:36:00Z</time></trkpt>
<trkpt lat="29.14171" lon="98.646693">
<time>2016-10-07T13:36:01Z</time></trkpt>
<trkpt lat="29.14175" lon="98.646643">
<time>2016-10-07T13:36:02Z</time></trkpt>
<trkpt lat="29.1418" lon="98.646583">
<time>2016-10-07T13:36:03Z</time></trkpt>
<trkpt lat="29.14185" lon="98.646504">
<time>2016-10-07T13:36:04Z</time></trkpt>
<trkpt lat="29.1419" lon="98.646414">
<time>2016-10-07T13:36:05Z</time></trkpt>
<trkpt lat="29.14196" lon="98.646294">
<time>2016-10-07T13:36:06Z</time></trkpt>
<trkpt lat="29.14198" lon="98.646224">
<time>2016-10-07T13:36:07Z</time></trkpt>
<trkpt lat="29.14201" lon="98.646154">
<time>2016-10-07T13:36:08Z</time></trkpt>
<trkpt lat="29.14204" lon="98.646085">
<time>2016-10-07T13:36:09Z</time></trkpt>
<trkpt lat="29.142061" lon="98.646045">
<time>2016-10-07T13:36:10Z</time></trkpt>
<trkpt lat="29.142091" lon="98.645995">
<time>2016-10-07T13:36:11Z</time></trkpt>
<trkpt lat="29.142131" lon="98.645945">
<time>2016-10-07T13:36:12Z</time></trkpt>
<trkpt lat="29.142171" lon="98.645915">
<time>2016-10-07T13:36:13Z</time></trkpt>
<trkpt lat="29.142201" lon="98.645895">
<time>2016-10-07T13:36:14Z</time></trkpt>
<trkpt lat="29.142221" lon="98.645875">
<time>2016-10-07T13:36:15Z</time></trkpt>
<trkpt lat="29.142261" lon="98.645865">
<time>2016-10-07T13:36:16Z</time></trkpt>
<trkpt lat="29.142321" lon="98.645845">
<time>2016-10-07T13:36:17Z</time></trkpt>
<trkpt lat="29.142381" lon="98.645855">
<time>2016-10-07T13:36:18Z</time></trkpt>
<trkpt lat="29.142431" lon="98.645865">
<time>2016-10-07T13:36:19Z</time></trkpt>
<trkpt lat="29.142471" lon="98.645875">
<time>2016-10-07T13:36:20Z</time></trkpt>
<trkpt lat="29.14251" lon="98.645905">
<time>2016-10-07T13:36:21Z</time></trkpt>
<trkpt lat="29.14255" lon="98.645945">
<time>2016-10-07T13:36:22Z</time></trkpt>
<trkpt lat="29.14262" lon="98.646025">
<time>2016-10-07T13:36:23Z</time></trkpt>
<trkpt lat="29.14266" lon="98.646075">
<time>2016-10-07T13:36:24Z</time></trkpt>
<trkpt lat="29.14269" lon="98.646105">
<time>2016-10-07T13:36:25Z</time></trkpt>
<trkpt lat="29.14276" lon="98.646194">
<time>2016-10-07T13:36:26Z</time></trkpt>
<trkpt lat="29.14283" lon="98.646284">
<time>2016-10-07T13:36:27Z</time></trkpt>
<trkpt lat="29.142929" lon="98.646404">
<time>2016-10-07T13:36:28Z</time></trkpt>
<trkpt lat="29.143019" lon="98.646504">
<time>2016-10-07T13:36:29Z</time></trkpt>
<trkpt lat="29.143099" lon="98.646583">
<time>2016-10-07T13:36:30Z</time></trkpt>
<trkpt lat="29.143149" lon="98.646653">
<time>2016-10-07T13:36:31Z</time></trkpt>
<trkpt lat="29.143209" lon="98.646733">
<time>2016-10-07T13:36:32Z</time></trkpt>
<trkpt lat="29.143258" lon="98.646793">
<time>2016-10-07T13:36:33Z</time></trkpt>
<trkpt lat="29.143298" lon="98.646873">
<time>2016-10-07T13:36:34Z</time></trkpt>
<trkpt lat="29.143348" lon="98.646942">
<time>2016-10-07T13:36:35Z</time></trkpt>
<trkpt lat="29.143388" lon="98.647032">
<time>2016-10-07T13:36:36Z</time></trkpt>
<trkpt lat="29.143477" lon="98.647222">
<time>2016-10-07T13:36:37Z</time></trkpt>
<trkpt lat="29.143547" lon="98.647351">
<time>2016-10-07T13:36:38Z</time></trkpt>
<trkpt lat="29.143587" lon="98.647411">
<time>2016-10-07T13:36:39Z</time></trkpt>
<trkpt lat="29.143617" lon="98.647461">
<time>2016-10-07T13:36:40Z</time></trkpt>
<trkpt lat="29.143657" lon="98.647511">
<time>2016-10-07T13:36:41Z</time></trkpt>
<trkpt lat="29.143687" lon="98.647551">
<time>2016-10-07T13:36:42Z</time></trkpt>
<trkpt lat="29.143727" lon="98.647601">
<time>2016-10-07T13:36:43Z</time></trkpt>
<trkpt lat="29.143806" lon="98.647681">
<time>2016-10-07T13:36:44Z</time></trkpt>
<trkpt lat="29.143876" lon="98.64773">
<time>2016-10-07T13:36:45Z</time></trkpt>
<trkpt lat="29.143936" lon="98.64777">
<time>2016-10-07T13:36:46Z</time></trkpt>
<trkpt lat="29.143996" lon="98.64782">
<time>2016-10-07T13:36:47Z</time></trkpt>
<trkpt lat="29.144066" lon="98.64785">
<time>2016-10-07T13:36:48Z</time></trkpt>
<trkpt lat="29.144136" lon="98.64788">
<time>2016-10-07T13:36:49Z</time></trkpt>
<trkpt lat="29.144206" lon="98.64791">
<time>2016-10-07T13:36:50Z</time></trkpt>
<trkpt lat="29.144286" lon="98.64793">
<time>2016-10-07T13:36:51Z</time></trkpt>
<trkpt lat="29.144605" lon="98.64799">
<time>2016-10-07T13:36:52Z</time></trkpt>
<trkpt lat="29.144925" lon="98.64807">
<time>2016-10-07T13:36:53Z</time></trkpt>
<trkpt lat="29.145145" lon="98.648119">
<time>2016-10-07T13:36:54Z</time></trkpt>
<trkpt lat="29.145245" lon="98.648149">
<time>2016-10-07T13:36:55Z</time></trkpt>
<trkpt lat="29.145584" lon="98.648209">
<time>2016-10-07T13:36:56Z</time></trkpt>
<trkpt lat="29.145824" lon="98.648269">
<time>2016-10-07T13:36:57Z</time></trkpt>
<trkpt lat="29.145964" lon="98.648309">
<time>2016-10-07T13:36:58Z</time></trkpt>
<trkpt lat="29.146084" lon="98.648349">
<time>2016-10-07T13:36:59Z</time></trkpt>
<trkpt lat="29.146313" lon="98.648449">
<time>2016-10-07T13:37:00Z</time></trkpt>
<trkpt lat="29.146473" lon="98.648528">
<time>2016-10-07T13:37:01Z</time></trkpt>
<trkpt lat="29.146543" lon="98.648548">
<time>2016-10-07T13:37:02Z</time></trkpt>
<trkpt lat="29.146613" lon="98.648558">
<time>2016-10-07T13:37:03Z</time></trkpt>
<trkpt lat="29.146653" lon="98.648558">
<time>2016-10-07T13:37:04Z</time></trkpt>
<trkpt lat="29.146693" lon="98.648548">
<time>2016-10-07T13:37:05Z</time></trkpt>
<trkpt lat="29.146723" lon="98.648538">
<time>2016-10-07T13:37:06Z</time></trkpt>
<trkpt lat="29.146753" lon="98.648518">
<time>2016-10-07T13:37:07Z</time></trkpt>
<trkpt lat="29.146803" lon="98.648498">
<time>2016-10-07T13:37:08Z</time></trkpt>
<trkpt lat="29.146843" lon="98.648459">
<time>2016-10-07T13:37:09Z</time></trkpt>
<trkpt lat="29.146873" lon="98.648429">
<time>2016-10-07T13:37:10Z</time></trkpt>
<trkpt lat="29.146903" lon="98.648389">
<time>2016-10-07T13:37:11Z</time></trkpt>
<trkpt lat="29.146963" lon="98.648299">
<time>2016-10-07T13:37:12Z</time></trkpt>
<trkpt lat="29.147143" lon="98.64802">
<time>2016-10-07T13:37:13Z</time></trkpt>
<trkpt lat="29.147173" lon="98.64797">
<time>2016-10-07T13:37:14Z</time></trkpt>
<trkpt lat="29.147223" lon="98.64789">
<time>2016-10-07T13:37:15Z</time></trkpt>
<trkpt lat="29.147314" lon="98.64775">
<time>2016-10-07T13:37:16Z</time></trkpt>
<trkpt lat="29.147404" lon="98.647651">
<time>2016-10-07T13:37:17Z</time></trkpt>
<trkpt lat="29.147444" lon="98.647611">
<time>2016-10-07T13:37:18Z</time></trkpt>
<trkpt lat="29.147494" lon="98.647571">
<time>2016-10-07T13:37:19Z</time></trkpt>
<trkpt lat="29.147564" lon="98.647541">
<time>2016-10-07T13:37:20Z</time></trkpt>
<trkpt lat="29.147584" lon="98.647531">
<time>2016-10-07T13:37:21Z</time></trkpt>
<trkpt lat="29.147624" lon="98.647521">
<time>2016-10-07T13:37:22Z</time></trkpt>
<trkpt lat="29.147684" lon="98.647511">
<time>2016-10-07T13:37:23Z</time></trkpt>
<trkpt lat="29.147734" lon="98.647511">
<time>2016-10-07T13:37:24Z</time></trkpt>
<trkpt lat="29.147794" lon="98.647521">
<time>2016-10-07T13:37:25Z</time></trkpt>
<trkpt lat="29.147854" lon="98.647531">
<time>2016-10-07T13:37:26Z</time></trkpt>
<trkpt lat="29.147914" lon="98.647551">
<time>2016-10-07T13:37:27Z</time></trkpt>
<trkpt lat="29.147973" lon="98.647581">
<time>2016-10-07T13:37:28Z</time></trkpt>
<trkpt lat="29.148053" lon="98.647621">
<time>2016-10-07T13:37:29Z</time></trkpt>
<trkpt lat="29.148153" lon="98.64768">
<time>2016-10-07T13:37:30Z</time></trkpt>
<trkpt lat="29.148213" lon="98.64771">
<time>2016-10-07T13:37:31Z</time></trkpt>
<trkpt lat="29.148283" lon="98.64772">
<time>2016-10-07T13:37:32Z</time></trkpt>
<trkpt lat="29.148323" lon="98.64773">
<time>2016-10-07T13:37:33Z</time></trkpt>
<trkpt lat="29.148393" lon="98.64773">
<time>2016-10-07T13:37:34Z</time></trkpt>
<trkpt lat="29.148473" lon="98.64771">
<time>2016-10-07T13:37:35Z</time></trkpt>
<trkpt lat="29.148543" lon="98.6477">
<time>2016-10-07T13:37:36Z</time></trkpt>
<trkpt lat="29.148653" lon="98.647661">
<time>2016-10-07T13:37:37Z</time></trkpt>
<trkpt lat="29.148793" lon="98.647621">
<time>2016-10-07T13:37:38Z</time></trkpt>
<trkpt lat="29.148953" lon="98.647571">
<time>2016-10-07T13:37:39Z</time></trkpt>
<trkpt lat="29.149173" lon="98.647511">
<time>2016-10-07T13:37:40Z</time></trkpt>
<trkpt lat="29.149363" lon="98.647461">
<time>2016-10-07T13:37:41Z</time></trkpt>
<trkpt lat="29.149463" lon="98.647441">
<time>2016-10-07T13:37:42Z</time></trkpt>
<trkpt lat="29.149572" lon="98.647421">
<time>2016-10-07T13:37:43Z</time></trkpt>
<trkpt lat="29.149662" lon="98.647411">
<time>2016-10-07T13:37:44Z</time></trkpt>
<trkpt lat="29.149782" lon="98.647411">
<time>2016-10-07T13:37:45Z</time></trkpt>
<trkpt lat="29.149842" lon="98.647411">
<time>2016-10-07T13:37:46Z</time></trkpt>
<trkpt lat="29.149912" lon="98.647411">
<time>2016-10-07T13:37:47Z</time></trkpt>
<trkpt lat="29.149962" lon="98.647421">
<time>2016-10-07T13:37:48Z</time></trkpt>
<trkpt lat="29.150032" lon="98.647441">
<time>2016-10-07T13:37:49Z</time></trkpt>
<trkpt lat="29.150112" lon="98.647461">
<time>2016-10-07T13:37:50Z</time></trkpt>
<trkpt lat="29.150162" lon="98.647491">
<time>2016-10-07T13:37:51Z</time></trkpt>
<trkpt lat="29.150222" lon="98.647531">
<time>2016-10-07T13:37:52Z</time></trkpt>
<trkpt lat="29.150282" lon="98.647581">
<time>2016-10-07T13:37:53Z</time></trkpt>
<trkpt lat="29.150322" lon="98.647631">
<time>2016-10-07T13:37:54Z</time></trkpt>
<trkpt lat="29.150361" lon="98.64768">
<time>2016-10-07T13:37:55Z</time></trkpt>
<trkpt lat="29.150411" lon="98.64775">
<time>2016-10-07T13:37:56Z</time></trkpt>
<trkpt lat="29.150461" lon="98.64782">
<time>2016-10-07T13:37:57Z</time></trkpt>
<trkpt lat="29.150521" lon="98.6479">
<time>2016-10-07T13:37:58Z</time></trkpt>
<trkpt lat="29.150561" lon="98.64795">
<time>2016-10-07T13:37:59Z</time></trkpt>
<trkpt lat="29.150601" lon="98.648">
<time>2016-10-07T13:38:00Z</time></trkpt>
<trkpt lat="29.150651" lon="98.64803">
<time>2016-10-07T13:38:01Z</time></trkpt>
<trkpt lat="29.150711" lon="98.64805">
<time>2016-10-07T13:38:02Z</time></trkpt>
<trkpt lat="29.150751" lon="98.648059">
<time>2016-10-07T13:38:03Z</time></trkpt>
<trkpt lat="29.1508" lon="98.648069">
<time>2016-10-07T13:38:04Z</time></trkpt>
<trkpt lat="29.15086" lon="98.648089">
<time>2016-10-07T13:38:05Z</time></trkpt>
<trkpt lat="29.15094" lon="98.648109">
<time>2016-10-07T13:38:06Z</time></trkpt>
<trkpt lat="29.15102" lon="98.648129">
<time>2016-10-07T13:38:07Z</time></trkpt>
<trkpt lat="29.15105" lon="98.648139">
<time>2016-10-07T13:38:08Z</time></trkpt>
<trkpt lat="29.15109" lon="98.648169">
<time>2016-10-07T13:38:09Z</time></trkpt>
<trkpt lat="29.15116" lon="98.648209">
<time>2016-10-07T13:38:10Z</time></trkpt>
<trkpt lat="29.15119" lon="98.648239">
<time>2016-10-07T13:38:11Z</time></trkpt>
<trkpt lat="29.15125" lon="98.648309">
<time>2016-10-07T13:38:12Z</time></trkpt>
<trkpt lat="29.1513" lon="98.648389">
<time>2016-10-07T13:38:13Z</time></trkpt>
<trkpt lat="29.151349" lon="98.648478">
<time>2016-10-07T13:38:14Z</time></trkpt>
<trkpt lat="29.151389" lon="98.648538">
<time>2016-10-07T13:38:15Z</time></trkpt>
<trkpt lat="29.151419" lon="98.648578">
<time>2016-10-07T13:38:16Z</time></trkpt>
<trkpt lat="29.151449" lon="98.648608">
<time>2016-10-07T13:38:17Z</time></trkpt>
<trkpt lat="29.151479" lon="98.648638">
<time>2016-10-07T13:38:18Z</time></trkpt>
<trkpt lat="29.151509" lon="98.648648">
<time>2016-10-07T13:38:19Z</time></trkpt>
<trkpt lat="29.151549" lon="98.648668">
<time>2016-10-07T13:38:20Z</time></trkpt>
<trkpt lat="29.151579" lon="98.648668">
<time>2016-10-07T13:38:21Z</time></trkpt>
<trkpt lat="29.151609" lon="98.648678">
<time>2016-10-07T13:38:22Z</time></trkpt>
<trkpt lat="29.151659" lon="98.648678">
<time>2016-10-07T13:38:23Z</time></trkpt>
<trkpt lat="29.151669" lon="98.648678">
<time>2016-10-07T13:38:24Z</time></trkpt>
<trkpt lat="29.151709" lon="98.648668">
<time>2016-10-07T13:38:25Z</time></trkpt>
<trkpt lat="29.151759" lon="98.648658">
<time>2016-10-07T13:38:26Z</time></trkpt>
<trkpt lat="29.151909" lon="98.648598">
<time>2016-10-07T13:38:27Z</time></trkpt>
<trkpt lat="29.152189" lon="98.648508">
<time>2016-10-07T13:38:28Z</time></trkpt>
<trkpt lat="29.152259" lon="98.648488">
<time>2016-10-07T13:38:29Z</time></trkpt>
<trkpt lat="29.152339" lon="98.648458">
<time>2016-10-07T13:38:30Z</time></trkpt>
<trkpt lat="29.152419" lon="98.648439">
<time>2016-10-07T13:38:31Z</time></trkpt>
<trkpt lat="29.152459" lon="98.648439">
<time>2016-10-07T13:38:32Z</time></trkpt>
<trkpt lat="29.152529" lon="98.648429">
<time>2016-10-07T13:38:33Z</time></trkpt>
<trkpt lat="29.152578" lon="98.648439">
<time>2016-10-07T13:38:34Z</time></trkpt>
<trkpt lat="29.152628" lon="98.648448">
<time>2016-10-07T13:38:35Z</time></trkpt>
<trkpt lat="29.152678" lon="98.648468">
<time>2016-10-07T13:38:36Z</time></trkpt>
<trkpt lat="29.152728" lon="98.648488">
<time>2016-10-07T13:38:37Z</time></trkpt>
<trkpt lat="29.152778" lon="98.648528">
<time>2016-10-07T13:38:38Z</time></trkpt>
<trkpt lat="29.152818" lon="98.648578">
<time>2016-10-07T13:38:39Z</time></trkpt>
<trkpt lat="29.152848" lon="98.648608">
<time>2016-10-07T13:38:40Z</time></trkpt>
<trkpt lat="29.152868" lon="98.648648">
<time>2016-10-07T13:38:41Z</time></trkpt>
<trkpt lat="29.152888" lon="98.648698">
<time>2016-10-07T13:38:42Z</time></trkpt>
<trkpt lat="29.152898" lon="98.648728">
<time>2016-10-07T13:38:43Z</time></trkpt>
<trkpt lat="29.152908" lon="98.648778">
<time>2016-10-07T13:38:44Z</time></trkpt>
<trkpt lat="29.152918" lon="98.648837">
<time>2016-10-07T13:38:45Z</time></trkpt>
<trkpt lat="29.152907" lon="98.648887">
<time>2016-10-07T13:38:46Z</time></trkpt>
<trkpt lat="29.152907" lon="98.648947">
<time>2016-10-07T13:38:47Z</time></trkpt>
<trkpt lat="29.152887" lon="98.649037">
<time>2016-10-07T13:38:48Z</time></trkpt>
<trkpt lat="29.152857" lon="98.649127">
<time>2016-10-07T13:38:49Z</time></trkpt>
<trkpt lat="29.152827" lon="98.649227">
<time>2016-10-07T13:38:50Z</time></trkpt>
<trkpt lat="29.152777" lon="98.649396">
<time>2016-10-07T13:38:51Z</time></trkpt>
<trkpt lat="29.152747" lon="98.649466">
<time>2016-10-07T13:38:52Z</time></trkpt>
<trkpt lat="29.152716" lon="98.649576">
<time>2016-10-07T13:38:53Z</time></trkpt>
<trkpt lat="29.152676" lon="98.649705">
<time>2016-10-07T13:38:54Z</time></trkpt>
<trkpt lat="29.152656" lon="98.649775">
<time>2016-10-07T13:38:55Z</time></trkpt>
<trkpt lat="29.152616" lon="98.649895">
<time>2016-10-07T13:38:56Z</time></trkpt>
<trkpt lat="29.152596" lon="98.649985">
<time>2016-10-07T13:38:57Z</time></trkpt>
<trkpt lat="29.152586" lon="98.650044">
<time>2016-10-07T13:38:58Z</time></trkpt>
<trkpt lat="29.152576" lon="98.650104">
<time>2016-10-07T13:38:59Z</time></trkpt>
<trkpt lat="29.152565" lon="98.650174">
<time>2016-10-07T13:39:00Z</time></trkpt>
<trkpt lat="29.152555" lon="98.650274">
<time>2016-10-07T13:39:01Z</time></trkpt>
<trkpt lat="29.152555" lon="98.650344">
<time>2016-10-07T13:39:02Z</time></trkpt>
<trkpt lat="29.152545" lon="98.650403">
<time>2016-10-07T13:39:03Z</time></trkpt>
<trkpt lat="29.152545" lon="98.650523">
<time>2016-10-07T13:39:04Z</time></trkpt>
<trkpt lat="29.152545" lon="98.650643">
<time>2016-10-07T13:39:05Z</time></trkpt>
<trkpt lat="29.152535" lon="98.650733">
<time>2016-10-07T13:39:06Z</time></trkpt>
<trkpt lat="29.152534" lon="98.650802">
<time>2016-10-07T13:39:07Z</time></trkpt>
<trkpt lat="29.152514" lon="98.650902">
<time>2016-10-07T13:39:08Z</time></trkpt>
<trkpt lat="29.152494" lon="98.650982">
<time>2016-10-07T13:39:09Z</time></trkpt>
<trkpt lat="29.152484" lon="98.651062">
<time>2016-10-07T13:39:10Z</time></trkpt>
<trkpt lat="29.152454" lon="98.651142">
<time>2016-10-07T13:39:11Z</time></trkpt>
<trkpt lat="29.152434" lon="98.651221">
<time>2016-10-07T13:39:12Z</time></trkpt>
<trkpt lat="29.152404" lon="98.651281">
<time>2016-10-07T13:39:13Z</time></trkpt>
<trkpt lat="29.152384" lon="98.651341">
<time>2016-10-07T13:39:14Z</time></trkpt>
<trkpt lat="29.152333" lon="98.651441">
<time>2016-10-07T13:39:15Z</time></trkpt>
<trkpt lat="29.152303" lon="98.651501">
<time>2016-10-07T13:39:16Z</time></trkpt>
<trkpt lat="29.152263" lon="98.651561">
<time>2016-10-07T13:39:17Z</time></trkpt>
<trkpt lat="29.152223" lon="98.65163">
<time>2016-10-07T13:39:18Z</time></trkpt>
<trkpt lat="29.152163" lon="98.6517">
<time>2016-10-07T13:39:19Z</time></trkpt>
<trkpt lat="29.152103" lon="98.65176">
<time>2016-10-07T13:39:20Z</time></trkpt>
<trkpt lat="29.152013" lon="98.65185">
<time>2016-10-07T13:39:21Z</time></trkpt>
<trkpt lat="29.151953" lon="98.6519">
<time>2016-10-07T13:39:22Z</time></trkpt>
<trkpt lat="29.151903" lon="98.65195">
<time>2016-10-07T13:39:23Z</time></trkpt>
<trkpt lat="29.151853" lon="98.651999">
<time>2016-10-07T13:39:24Z</time></trkpt>
<trkpt lat="29.151813" lon="98.652029">
<time>2016-10-07T13:39:25Z</time></trkpt>
<trkpt lat="29.151773" lon="98.652069">
<time>2016-10-07T13:39:26Z</time></trkpt>
<trkpt lat="29.151753" lon="98.652099">
<time>2016-10-07T13:39:27Z</time></trkpt>
<trkpt lat="29.151713" lon="98.652149">
<time>2016-10-07T13:39:28Z</time></trkpt>
<trkpt lat="29.151693" lon="98.652189">
<time>2016-10-07T13:39:29Z</time></trkpt>
<trkpt lat="29.151673" lon="98.652229">
<time>2016-10-07T13:39:30Z</time></trkpt>
<trkpt lat="29.151652" lon="98.652289">
<time>2016-10-07T13:39:31Z</time></trkpt>
<trkpt lat="29.151642" lon="98.652338">
<time>2016-10-07T13:39:32Z</time></trkpt>
<trkpt lat="29.151632" lon="98.652378">
<time>2016-10-07T13:39:33Z</time></trkpt>
<trkpt lat="29.151632" lon="98.652428">
<time>2016-10-07T13:39:34Z</time></trkpt>
<trkpt lat="29.151642" lon="98.652478">
<time>2016-10-07T13:39:35Z</time></trkpt>
<trkpt lat="29.151652" lon="98.652548">
<time>2016-10-07T13:39:36Z</time></trkpt>
<trkpt lat="29.151662" lon="98.652618">
<time>2016-10-07T13:39:37Z</time></trkpt>
<trkpt lat="29.151672" lon="98.652678">
<time>2016-10-07T13:39:38Z</time></trkpt>
<trkpt lat="29.151692" lon="98.652767">
<time>2016-10-07T13:39:39Z</time></trkpt>
<trkpt lat="29.151701" lon="98.652847">
<time>2016-10-07T13:39:40Z</time></trkpt>
<trkpt lat="29.151721" lon="98.652927">
<time>2016-10-07T13:39:41Z</time></trkpt>
<trkpt lat="29.151751" lon="98.653017">
<time>2016-10-07T13:39:42Z</time></trkpt>
<trkpt lat="29.151761" lon="98.653087">
<time>2016-10-07T13:39:43Z</time></trkpt>
<trkpt lat="29.151781" lon="98.653166">
<time>2016-10-07T13:39:44Z</time></trkpt>
<trkpt lat="29.151791" lon="98.653216">
<time>2016-10-07T13:39:45Z</time></trkpt>
<trkpt lat="29.151801" lon="98.653276">
<time>2016-10-07T13:39:46Z</time></trkpt>
<trkpt lat="29.151811" lon="98.653326">
<time>2016-10-07T13:39:47Z</time></trkpt>
<trkpt lat="29.15182" lon="98.653396">
<time>2016-10-07T13:39:48Z</time></trkpt>
<trkpt lat="29.15183" lon="98.653446">
<time>2016-10-07T13:39:49Z</time></trkpt>
<trkpt lat="29.15183" lon="98.653495">
<time>2016-10-07T13:39:50Z</time></trkpt>
<trkpt lat="29.15184" lon="98.653545">
<time>2016-10-07T13:39:51Z</time></trkpt>
<trkpt lat="29.15184" lon="98.653605">
<time>2016-10-07T13:39:52Z</time></trkpt>
<trkpt lat="29.15183" lon="98.653675">
<time>2016-10-07T13:39:53Z</time></trkpt>
<trkpt lat="29.15182" lon="98.653725">
<time>2016-10-07T13:39:54Z</time></trkpt>
<trkpt lat="29.15181" lon="98.653775">
<time>2016-10-07T13:39:55Z</time></trkpt>
<trkpt lat="29.1518" lon="98.653815">
<time>2016-10-07T13:39:56Z</time></trkpt>
<trkpt lat="29.15178" lon="98.653874">
<time>2016-10-07T13:39:57Z</time></trkpt>
<trkpt lat="29.151749" lon="98.653964">
<time>2016-10-07T13:39:58Z</time></trkpt>
<trkpt lat="29.151709" lon="98.654034">
<time>2016-10-07T13:39:59Z</time></trkpt>
<trkpt lat="29.151679" lon="98.654114">
<time>2016-10-07T13:40:00Z</time></trkpt>
<trkpt lat="29.151619" lon="98.654194">
<time>2016-10-07T13:40:01Z</time></trkpt>
<trkpt lat="29.151569" lon="98.654273">
<time>2016-10-07T13:40:02Z</time></trkpt>
<trkpt lat="29.151549" lon="98.654303">
<time>2016-10-07T13:40:03Z</time></trkpt>
<trkpt lat="29.151479" lon="98.654393">
<time>2016-10-07T13:40:04Z</time></trkpt>
<trkpt lat="29.151409" lon="98.654463">
<time>2016-10-07T13:40:05Z</time></trkpt>
<trkpt lat="29.151359" lon="98.654513">
<time>2016-10-07T13:40:06Z</time></trkpt>
<trkpt lat="29.151289" lon="98.654583">
<time>2016-10-07T13:40:07Z</time></trkpt>
<trkpt lat="29.151148" lon="98.654722">
<time>2016-10-07T13:40:08Z</time></trkpt>
<trkpt lat="29.151068" lon="98.654812">
<time>2016-10-07T13:40:09Z</time></trkpt>
<trkpt lat="29.150958" lon="98.654922">
<time>2016-10-07T13:40:10Z</time></trkpt>
<trkpt lat="29.150908" lon="98.654972">
<time>2016-10-07T13:40:11Z</time></trkpt>
<trkpt lat="29.150828" lon="98.655041">
<time>2016-10-07T13:40:12Z</time></trkpt>
<trkpt lat="29.150708" lon="98.655171">
<time>2016-10-07T13:40:13Z</time></trkpt>
<trkpt lat="29.150678" lon="98.655201">
<time>2016-10-07T13:40:14Z</time></trkpt>
<trkpt lat="29.150628" lon="98.655271">
<time>2016-10-07T13:40:15Z</time></trkpt>
<trkpt lat="29.150598" lon="98.655321">
<time>2016-10-07T13:40:16Z</time></trkpt>
<trkpt lat="29.150568" lon="98.65538">
<time>2016-10-07T13:40:17Z</time></trkpt>
<trkpt lat="29.150548" lon="98.65543">
<time>2016-10-07T13:40:18Z</time></trkpt>
<trkpt lat="29.150538" lon="98.65549">
<time>2016-10-07T13:40:19Z</time></trkpt>
<trkpt lat="29.150537" lon="98.65555">
<time>2016-10-07T13:40:20Z</time></trkpt>
<trkpt lat="29.150537" lon="98.65559">
<time>2016-10-07T13:40:21Z</time></trkpt>
<trkpt lat="29.150537" lon="98.65565">
<time>2016-10-07T13:40:22Z</time></trkpt>
<trkpt lat="29.150557" lon="98.6557">
<time>2016-10-07T13:40:23Z</time></trkpt>
<trkpt lat="29.150567" lon="98.65574">
<time>2016-10-07T13:40:24Z</time></trkpt>
<trkpt lat="29.150587" lon="98.655779">
<time>2016-10-07T13:40:25Z</time></trkpt>
<trkpt lat="29.150607" lon="98.655819">
<time>2016-10-07T13:40:26Z</time></trkpt>
<trkpt lat="29.150627" lon="98.655849">
<time>2016-10-07T13:40:27Z</time></trkpt>
<trkpt lat="29.150657" lon="98.655889">
<time>2016-10-07T13:40:28Z</time></trkpt>
<trkpt lat="29.150677" lon="98.655919">
<time>2016-10-07T13:40:29Z</time></trkpt>
<trkpt lat="29.150717" lon="98.655949">
<time>2016-10-07T13:40:30Z</time></trkpt>
<trkpt lat="29.150737" lon="98.655959">
<time>2016-10-07T13:40:31Z</time></trkpt>
<trkpt lat="29.150767" lon="98.655979">
<time>2016-10-07T13:40:32Z</time></trkpt>
<trkpt lat="29.150806" lon="98.655999">
<time>2016-10-07T13:40:33Z</time></trkpt>
<trkpt lat="29.150846" lon="98.656009">
<time>2016-10-07T13:40:34Z</time></trkpt>
<trkpt lat="29.150886" lon="98.656019">
<time>2016-10-07T13:40:35Z</time></trkpt>
<trkpt lat="29.150936" lon="98.656019">
<time>2016-10-07T13:40:36Z</time></trkpt>
<trkpt lat="29.150986" lon="98.656019">
<time>2016-10-07T13:40:37Z</time></trkpt>
<trkpt lat="29.151036" lon="98.656009">
<time>2016-10-07T13:40:38Z</time></trkpt>
<trkpt lat="29.151196" lon="98.655979">
<time>2016-10-07T13:40:39Z</time></trkpt>
<trkpt lat="29.151276" lon="98.655969">
<time>2016-10-07T13:40:40Z</time></trkpt>
<trkpt lat="29.151316" lon="98.655959">
<time>2016-10-07T13:40:41Z</time></trkpt>
<trkpt lat="29.151386" lon="98.655959">
<time>2016-10-07T13:40:42Z</time></trkpt>
<trkpt lat="29.151466" lon="98.655949">
<time>2016-10-07T13:40:43Z</time></trkpt>
<trkpt lat="29.151506" lon="98.655949">
<time>2016-10-07T13:40:44Z</time></trkpt>
<trkpt lat="29.151596" lon="98.655959">
<time>2016-10-07T13:40:45Z</time></trkpt>
<trkpt lat="29.151666" lon="98.655969">
<time>2016-10-07T13:40:46Z</time></trkpt>
<trkpt lat="29.151746" lon="98.655969">
<time>2016-10-07T13:40:47Z</time></trkpt>
<trkpt lat="29.151846" lon="98.655979">
<time>2016-10-07T13:40:48Z</time></trkpt>
<trkpt lat="29.151906" lon="98.655979">
<time>2016-10-07T13:40:49Z</time></trkpt>
<trkpt lat="29.151956" lon="98.655989">
<time>2016-10-07T13:40:50Z</time></trkpt>
<trkpt lat="29.152026" lon="98.655989">
<time>2016-10-07T13:40:51Z</time></trkpt>
<trkpt lat="29.152085" lon="98.655979">
<time>2016-10-07T13:40:52Z</time></trkpt>
<trkpt lat="29.152145" lon="98.655979">
<time>2016-10-07T13:40:53Z</time></trkpt>
<trkpt lat="29.152185" lon="98.655969">
<time>2016-10-07T13:40:54Z</time></trkpt>
<trkpt lat="29.152215" lon="98.655969">
<time>2016-10-07T13:40:55Z</time></trkpt>
<trkpt lat="29.152285" lon="98.655959">
<time>2016-10-07T13:40:56Z</time></trkpt>
<trkpt lat="29.152395" lon="98.655949">
<time>2016-10-07T13:40:57Z</time></trkpt>
<trkpt lat="29.152495" lon="98.655939">
<time>2016-10-07T13:40:58Z</time></trkpt>
<trkpt lat="29.152565" lon="98.655929">
<time>2016-10-07T13:40:59Z</time></trkpt>
<trkpt lat="29.152625" lon="98.655929">
<time>2016-10-07T13:41:00Z</time></trkpt>
<trkpt lat="29.152675" lon="98.655929">
<time>2016-10-07T13:41:01Z</time></trkpt>
<trkpt lat="29.152735" lon="98.655929">
<time>2016-10-07T13:41:02Z</time></trkpt>
<trkpt lat="29.152775" lon="98.655929">
<time>2016-10-07T13:41:03Z</time></trkpt>
<trkpt lat="29.152835" lon="98.655939">
<time>2016-10-07T13:41:04Z</time></trkpt>
<trkpt lat="29.152885" lon="98.655949">
<time>2016-10-07T13:41:05Z</time></trkpt>
<trkpt lat="29.152935" lon="98.655969">
<time>2016-10-07T13:41:06Z</time></trkpt>
<trkpt lat="29.152995" lon="98.655979">
<time>2016-10-07T13:41:07Z</time></trkpt>
<trkpt lat="29.153075" lon="98.656009">
<time>2016-10-07T13:41:08Z</time></trkpt>
<trkpt lat="29.153155" lon="98.656019">
<time>2016-10-07T13:41:09Z</time></trkpt>
<trkpt lat="29.153235" lon="98.656019">
<time>2016-10-07T13:41:10Z</time></trkpt>
<trkpt lat="29.153324" lon="98.656029">
<time>2016-10-07T13:41:11Z</time></trkpt>
<trkpt lat="29.153404" lon="98.656019">
<time>2016-10-07T13:41:12Z</time></trkpt>
<trkpt lat="29.153474" lon="98.656009">
<time>2016-10-07T13:41:13Z</time></trkpt>
<trkpt lat="29.153534" lon="98.655989">
<time>2016-10-07T13:41:14Z</time></trkpt>
<trkpt lat="29.153574" lon="98.655979">
<time>2016-10-07T13:41:15Z</time></trkpt>
<trkpt lat="29.153604" lon="98.655959">
<time>2016-10-07T13:41:16Z</time></trkpt>
<trkpt lat="29.153644" lon="98.655939">
<time>2016-10-07T13:41:17Z</time></trkpt>
<trkpt lat="29.153694" lon="98.655909">
<time>2016-10-07T13:41:18Z</time></trkpt>
<trkpt lat="29.153744" lon="98.655859">
<time>2016-10-07T13:41:19Z</time></trkpt>
<trkpt lat="29.153814" lon="98.655809">
<time>2016-10-07T13:41:20Z</time></trkpt>
<trkpt lat="29.153935" lon="98.65571">
<time>2016-10-07T13:41:21Z</time></trkpt>
<trkpt lat="29.154095" lon="98.65557">
<time>2016-10-07T13:41:22Z</time></trkpt>
<trkpt lat="29.154205" lon="98.65548">
<time>2016-10-07T13:41:23Z</time></trkpt>
<trkpt lat="29.154315" lon="98.65539">
<time>2016-10-07T13:41:24Z</time></trkpt>
<trkpt lat="29.154385" lon="98.655351">
<time>2016-10-07T13:41:25Z</time></trkpt>
<trkpt lat="29.154445" lon="98.655311">
<time>2016-10-07T13:41:26Z</time></trkpt>
<trkpt lat="29.154495" lon="98.655281">
<time>2016-10-07T13:41:27Z</time></trkpt>
<trkpt lat="29.154555" lon="98.655251">
<time>2016-10-07T13:41:28Z</time></trkpt>
<trkpt lat="29.154625" lon="98.655221">
<time>2016-10-07T13:41:29Z</time></trkpt>
<trkpt lat="29.154685" lon="98.655201">
<time>2016-10-07T13:41:30Z</time></trkpt>
<trkpt lat="29.154735" lon="98.655191">
<time>2016-10-07T13:41:31Z</time></trkpt>
<trkpt lat="29.154775" lon="98.655171">
<time>2016-10-07T13:41:32Z</time></trkpt>
<trkpt lat="29.154845" lon="98.655151">
<time>2016-10-07T13:41:33Z</time></trkpt>
<trkpt lat="29.154905" lon="98.655121">
<time>2016-10-07T13:41:34Z</time></trkpt>
<trkpt lat="29.154955" lon="98.655101">
<time>2016-10-07T13:41:35Z</time></trkpt>
<trkpt lat="29.155015" lon="98.655061">
<time>2016-10-07T13:41:36Z</time></trkpt>
<trkpt lat="29.155055" lon="98.655031">
<time>2016-10-07T13:41:37Z</time></trkpt>
<trkpt lat="29.155105" lon="98.654981">
<time>2016-10-07T13:41:38Z</time></trkpt>
<trkpt lat="29.155165" lon="98.654912">
<time>2016-10-07T13:41:39Z</time></trkpt>
<trkpt lat="29.155235" lon="98.654822">
<time>2016-10-07T13:41:40Z</time></trkpt>
<trkpt lat="29.155295" lon="98.654752">
<time>2016-10-07T13:41:41Z</time></trkpt>
<trkpt lat="29.155365" lon="98.654682">
<time>2016-10-07T13:41:42Z</time></trkpt>
<trkpt lat="29.155405" lon="98.654652">
<time>2016-10-07T13:41:43Z</time></trkpt>
<trkpt lat="29.155455" lon="98.654622">
<time>2016-10-07T13:41:44Z</time></trkpt>
<trkpt lat="29.155495" lon="98.654593">
<time>2016-10-07T13:41:45Z</time></trkpt>
<trkpt lat="29.155555" lon="98.654573">
<time>2016-10-07T13:41:46Z</time></trkpt>
<trkpt lat="29.155605" lon="98.654563">
<time>2016-10-07T13:41:47Z</time></trkpt>
<trkpt lat="29.155665" lon="98.654553">
<time>2016-10-07T13:41:48Z</time></trkpt>
<trkpt lat="29.155725" lon="98.654543">
<time>2016-10-07T13:41:49Z</time></trkpt>
<trkpt lat="29.155805" lon="98.654543">
<time>2016-10-07T13:41:50Z</time></trkpt>
<trkpt lat="29.155915" lon="98.654543">
<time>2016-10-07T13:41:51Z</time></trkpt>
<trkpt lat="29.156045" lon="98.654543">
<time>2016-10-07T13:41:52Z</time></trkpt>
<trkpt lat="29.156155" lon="98.654543">
<time>2016-10-07T13:41:53Z</time></trkpt>
<trkpt lat="29.156225" lon="98.654543">
<time>2016-10-07T13:41:54Z</time></trkpt>
<trkpt lat="29.156275" lon="98.654543">
<time>2016-10-07T13:41:55Z</time></trkpt>
<trkpt lat="29.156365" lon="98.654533">
<time>2016-10-07T13:41:56Z</time></trkpt>
<trkpt lat="29.156425" lon="98.654523">
<time>2016-10-07T13:41:57Z</time></trkpt>
<trkpt lat="29.156475" lon="98.654503">
<time>2016-10-07T13:41:58Z</time></trkpt>
<trkpt lat="29.156545" lon="98.654483">
<time>2016-10-07T13:41:59Z</time></trkpt>
<trkpt lat="29.156585" lon="98.654463">
<time>2016-10-07T13:42:00Z</time></trkpt>
<trkpt lat="29.156655" lon="98.654413">
<time>2016-10-07T13:42:01Z</time></trkpt>
<trkpt lat="29.156725" lon="98.654353">
<time>2016-10-07T13:42:02Z</time></trkpt>
<trkpt lat="29.156755" lon="98.654323">
<time>2016-10-07T13:42:03Z</time></trkpt>
<trkpt lat="29.156785" lon="98.654283">
<time>2016-10-07T13:42:04Z</time></trkpt>
<trkpt lat="29.156835" lon="98.654223">
<time>2016-10-07T13:42:05Z</time></trkpt>
<trkpt lat="29.156895" lon="98.654134">
<time>2016-10-07T13:42:06Z</time></trkpt>
<trkpt lat="29.156945" lon="98.654074">
<time>2016-10-07T13:42:07Z</time></trkpt>
<trkpt lat="29.156975" lon="98.654034">
<time>2016-10-07T13:42:08Z</time></trkpt>
<trkpt lat="29.157015" lon="98.653994">
<time>2016-10-07T13:42:09Z</time></trkpt>
<trkpt lat="29.157065" lon="98.653964">
<time>2016-10-07T13:42:10Z</time></trkpt>
<trkpt lat="29.157115" lon="98.653934">
<time>2016-10-07T13:42:11Z</time></trkpt>
<trkpt lat="29.157195" lon="98.653894">
<time>2016-10-07T13:42:12Z</time></trkpt>
<trkpt lat="29.157255" lon="98.653864">
<time>2016-10-07T13:42:13Z</time></trkpt>
<trkpt lat="29.157305" lon="98.653834">
<time>2016-10-07T13:42:14Z</time></trkpt>
<trkpt lat="29.157365" lon="98.653795">
<time>2016-10-07T13:42:15Z</time></trkpt>
<trkpt lat="29.157395" lon="98.653765">
<time>2016-10-07T13:42:16Z</time></trkpt>
<trkpt lat="29.157425" lon="98.653735">
<time>2016-10-07T13:42:17Z</time></trkpt>
<trkpt lat="29.157476" lon="98.653675">
<time>2016-10-07T13:42:18Z</time></trkpt>
<trkpt lat="29.157496" lon="98.653635">
<time>2016-10-07T13:42:19Z</time></trkpt>
<trkpt lat="29.157526" lon="98.653585">
<time>2016-10-07T13:42:20Z</time></trkpt>
<trkpt lat="29.157556" lon="98.653505">
<time>2016-10-07T13:42:21Z</time></trkpt>
<trkpt lat="29.157606" lon="98.653406">
<time>2016-10-07T13:42:22Z</time></trkpt>
<trkpt lat="29.157626" lon="98.653346">
<time>2016-10-07T13:42:23Z</time></trkpt>
<trkpt lat="29.157656" lon="98.653306">
<time>2016-10-07T13:42:24Z</time></trkpt>
<trkpt lat="29.157686" lon="98.653276">
<time>2016-10-07T13:42:25Z</time></trkpt>
<trkpt lat="29.157706" lon="98.653256">
<time>2016-10-07T13:42:26Z</time></trkpt>
<trkpt lat="29.157736" lon="98.653236">
<time>2016-10-07T13:42:27Z</time></trkpt>
<trkpt lat="29.157786" lon="98.653216">
<time>2016-10-07T13:42:28Z</time></trkpt>
<trkpt lat="29.157816" lon="98.653206">
<time>2016-10-07T13:42:29Z</time></trkpt>
<trkpt lat="29.157846" lon="98.653196">
<time>2016-10-07T13:42:30Z</time></trkpt>
<trkpt lat="29.157896" lon="98.653196">
<time>2016-10-07T13:42:31Z</time></trkpt>
<trkpt lat="29.157936" lon="98.653206">
<time>2016-10-07T13:42:32Z</time></trkpt>
<trkpt lat="29.157976" lon="98.653216">
<time>2016-10-07T13:42:33Z</time></trkpt>
<trkpt lat="29.158026" lon="98.653226">
<time>2016-10-07T13:42:34Z</time></trkpt>
<trkpt lat="29.158066" lon="98.653256">
<time>2016-10-07T13:42:35Z</time></trkpt>
<trkpt lat="29.158116" lon="98.653276">
<time>2016-10-07T13:42:36Z</time></trkpt>
<trkpt lat="29.158166" lon="98.653306">
<time>2016-10-07T13:42:37Z</time></trkpt>
<trkpt lat="29.158216" lon="98.653336">
<time>2016-10-07T13:42:38Z</time></trkpt>
<trkpt lat="29.158276" lon="98.653366">
<time>2016-10-07T13:42:39Z</time></trkpt>
<trkpt lat="29.158335" lon="98.653396">
<time>2016-10-07T13:42:40Z</time></trkpt>
<trkpt lat="29.158395" lon="98.653416">
<time>2016-10-07T13:42:41Z</time></trkpt>
<trkpt lat="29.158455" lon="98.653426">
<time>2016-10-07T13:42:42Z</time></trkpt>
<trkpt lat="29.158535" lon="98.653436">
<time>2016-10-07T13:42:43Z</time></trkpt>
<trkpt lat="29.158635" lon="98.653445">
<time>2016-10-07T13:42:44Z</time></trkpt>
<trkpt lat="29.158745" lon="98.653455">
<time>2016-10-07T13:42:45Z</time></trkpt>
<trkpt lat="29.158855" lon="98.653465">
<time>2016-10-07T13:42:46Z</time></trkpt>
<trkpt lat="29.159005" lon="98.653475">
<time>2016-10-07T13:42:47Z</time></trkpt>
<trkpt lat="29.159145" lon="98.653485">
<time>2016-10-07T13:42:48Z</time></trkpt>
<trkpt lat="29.159344" lon="98.653495">
<time>2016-10-07T13:42:49Z</time></trkpt>
<trkpt lat="29.159414" lon="98.653495">
<time>2016-10-07T13:42:50Z</time></trkpt>
<trkpt lat="29.159494" lon="98.653485">
<time>2016-10-07T13:42:51Z</time></trkpt>
<trkpt lat="29.159554" lon="98.653475">
<time>2016-10-07T13:42:52Z</time></trkpt>
<trkpt lat="29.159604" lon="98.653455">
<time>2016-10-07T13:42:53Z</time></trkpt>
<trkpt lat="29.159664" lon="98.653426">
<time>2016-10-07T13:42:54Z</time></trkpt>
<trkpt lat="29.159714" lon="98.653396">
<time>2016-10-07T13:42:55Z</time></trkpt>
<trkpt lat="29.159744" lon="98.653376">
<time>2016-10-07T13:42:56Z</time></trkpt>
<trkpt lat="29.159814" lon="98.653326">
<time>2016-10-07T13:42:57Z</time></trkpt>
<trkpt lat="29.159924" lon="98.653236">
<time>2016-10-07T13:42:58Z</time></trkpt>
<trkpt lat="29.160025" lon="98.653156">
<time>2016-10-07T13:42:59Z</time></trkpt>
<trkpt lat="29.160115" lon="98.653076">
<time>2016-10-07T13:43:00Z</time></trkpt>
<trkpt lat="29.160185" lon="98.652957">
<time>2016-10-07T13:43:01Z</time></trkpt>
<trkpt lat="29.160355" lon="98.652727">
<time>2016-10-07T13:43:02Z</time></trkpt>
<trkpt lat="29.160455" lon="98.652588">
<time>2016-10-07T13:43:03Z</time></trkpt>
<trkpt lat="29.160525" lon="98.652468">
<time>2016-10-07T13:43:04Z</time></trkpt>
<trkpt lat="29.160596" lon="98.652328">
<time>2016-10-07T13:43:05Z</time></trkpt>
<trkpt lat="29.160656" lon="98.652189">
<time>2016-10-07T13:43:06Z</time></trkpt>
<trkpt lat="29.160706" lon="98.652059">
<time>2016-10-07T13:43:07Z</time></trkpt>
<trkpt lat="29.160746" lon="98.65189">
<time>2016-10-07T13:43:08Z</time></trkpt>
<trkpt lat="29.160787" lon="98.65171">
<time>2016-10-07T13:43:09Z</time></trkpt>
<trkpt lat="29.160807" lon="98.65154">
<time>2016-10-07T13:43:10Z</time></trkpt>
<trkpt lat="29.160837" lon="98.651411">
<time>2016-10-07T13:43:11Z</time></trkpt>
<trkpt lat="29.160867" lon="98.651281">
<time>2016-10-07T13:43:12Z</time></trkpt>
<trkpt lat="29.160867" lon="98.651281">
<time>2016-10-07T13:43:13Z</time></trkpt>
<trkpt lat="29.160887" lon="98.651201">
<time>2016-10-07T13:43:14Z</time></trkpt>
<trkpt lat="29.160917" lon="98.651131">
<time>2016-10-07T13:43:15Z</time></trkpt>
<trkpt lat="29.160938" lon="98.651072">
<time>2016-10-07T13:43:16Z</time></trkpt>
<trkpt lat="29.160988" lon="98.651012">
<time>2016-10-07T13:43:17Z</time></trkpt>
<trkpt lat="29.161038" lon="98.650952">
<time>2016-10-07T13:43:18Z</time></trkpt>
<trkpt lat="29.161118" lon="98.650892">
<time>2016-10-07T13:43:19Z</time></trkpt>
<trkpt lat="29.161148" lon="98.650872">
<time>2016-10-07T13:43:20Z</time></trkpt>
<trkpt lat="29.161208" lon="98.650852">
<time>2016-10-07T13:43:21Z</time></trkpt>
<trkpt lat="29.161268" lon="98.650822">
<time>2016-10-07T13:43:22Z</time></trkpt>
<trkpt lat="29.161398" lon="98.650782">
<time>2016-10-07T13:43:23Z</time></trkpt>
<trkpt lat="29.161498" lon="98.650752">
<time>2016-10-07T13:43:24Z</time></trkpt>
<trkpt lat="29.161538" lon="98.650742">
<time>2016-10-07T13:43:25Z</time></trkpt>
<trkpt lat="29.161568" lon="98.650723">
<time>2016-10-07T13:43:26Z</time></trkpt>
<trkpt lat="29.161608" lon="98.650693">
<time>2016-10-07T13:43:27Z</time></trkpt>
<trkpt lat="29.161638" lon="98.650653">
<time>2016-10-07T13:43:28Z</time></trkpt>
<trkpt lat="29.161678" lon="98.650603">
<time>2016-10-07T13:43:29Z</time></trkpt>
<trkpt lat="29.161718" lon="98.650533">
<time>2016-10-07T13:43:30Z</time></trkpt>
<trkpt lat="29.161748" lon="98.650463">
<time>2016-10-07T13:43:31Z</time></trkpt>
<trkpt lat="29.161758" lon="98.650383">
<time>2016-10-07T13:43:32Z</time></trkpt>
<trkpt lat="29.161758" lon="98.650274">
<time>2016-10-07T13:43:33Z</time></trkpt>
<trkpt lat="29.161749" lon="98.650174">
<time>2016-10-07T13:43:34Z</time></trkpt>
<trkpt lat="29.161719" lon="98.649905">
<time>2016-10-07T13:43:35Z</time></trkpt>
<trkpt lat="29.16169" lon="98.649615">
<time>2016-10-07T13:43:36Z</time></trkpt>
<trkpt lat="29.16167" lon="98.649386">
<time>2016-10-07T13:43:37Z</time></trkpt>
<trkpt lat="29.16164" lon="98.649167">
<time>2016-10-07T13:43:38Z</time></trkpt>
<trkpt lat="29.161611" lon="98.648967">
<time>2016-10-07T13:43:39Z</time></trkpt>
<trkpt lat="29.161571" lon="98.648688">
<time>2016-10-07T13:43:40Z</time></trkpt>
<trkpt lat="29.161551" lon="98.648568">
<time>2016-10-07T13:43:41Z</time></trkpt>
<trkpt lat="29.161532" lon="98.648398">
<time>2016-10-07T13:43:42Z</time></trkpt>
<trkpt lat="29.161502" lon="98.648289">
<time>2016-10-07T13:43:43Z</time></trkpt>
<trkpt lat="29.161482" lon="98.648199">
<time>2016-10-07T13:43:44Z</time></trkpt>
<trkpt lat="29.161442" lon="98.648119">
<time>2016-10-07T13:43:45Z</time></trkpt>
<trkpt lat="29.161402" lon="98.648049">
<time>2016-10-07T13:43:46Z</time></trkpt>
<trkpt lat="29.161343" lon="98.64795">
<time>2016-10-07T13:43:47Z</time></trkpt>
<trkpt lat="29.161183" lon="98.64778">
<time>2016-10-07T13:43:48Z</time></trkpt>
<trkpt lat="29.161123" lon="98.64769">
<time>2016-10-07T13:43:49Z</time></trkpt>
<trkpt lat="29.161063" lon="98.6476">
<time>2016-10-07T13:43:50Z</time></trkpt>
<trkpt lat="29.161004" lon="98.647491">
<time>2016-10-07T13:43:51Z</time></trkpt>
<trkpt lat="29.160964" lon="98.647381">
<time>2016-10-07T13:43:52Z</time></trkpt>
<trkpt lat="29.160934" lon="98.647291">
<time>2016-10-07T13:43:53Z</time></trkpt>
<trkpt lat="29.160914" lon="98.647162">
<time>2016-10-07T13:43:54Z</time></trkpt>
<trkpt lat="29.160904" lon="98.647062">
<time>2016-10-07T13:43:55Z</time></trkpt>
<trkpt lat="29.160895" lon="98.646942">
<time>2016-10-07T13:43:56Z</time></trkpt>
<trkpt lat="29.160915" lon="98.646822">
<time>2016-10-07T13:43:57Z</time></trkpt>
<trkpt lat="29.160915" lon="98.646743">
<time>2016-10-07T13:43:58Z</time></trkpt>
<trkpt lat="29.160945" lon="98.646633">
<time>2016-10-07T13:43:59Z</time></trkpt>
<trkpt lat="29.160995" lon="98.646513">
<time>2016-10-07T13:44:00Z</time></trkpt>
<trkpt lat="29.161045" lon="98.646423">
<time>2016-10-07T13:44:01Z</time></trkpt>
<trkpt lat="29.161096" lon="98.646354">
<time>2016-10-07T13:44:02Z</time></trkpt>
<trkpt lat="29.161146" lon="98.646294">
<time>2016-10-07T13:44:03Z</time></trkpt>
<trkpt lat="29.161216" lon="98.646234">
<time>2016-10-07T13:44:04Z</time></trkpt>
<trkpt lat="29.161276" lon="98.646194">
<time>2016-10-07T13:44:05Z</time></trkpt>
<trkpt lat="29.161346" lon="98.646164">
<time>2016-10-07T13:44:06Z</time></trkpt>
<trkpt lat="29.161426" lon="98.646134">
<time>2016-10-07T13:44:07Z</time></trkpt>
<trkpt lat="29.161516" lon="98.646124">
<time>2016-10-07T13:44:08Z</time></trkpt>
<trkpt lat="29.161586" lon="98.646124">
<time>2016-10-07T13:44:09Z</time></trkpt>
<trkpt lat="29.161675" lon="98.646134">
<time>2016-10-07T13:44:10Z</time></trkpt>
<trkpt lat="29.161795" lon="98.646154">
<time>2016-10-07T13:44:11Z</time></trkpt>
<trkpt lat="29.161865" lon="98.646174">
<time>2016-10-07T13:44:12Z</time></trkpt>
<trkpt lat="29.161955" lon="98.646194">
<time>2016-10-07T13:44:13Z</time></trkpt>
<trkpt lat="29.162055" lon="98.646204">
<time>2016-10-07T13:44:14Z</time></trkpt>
<trkpt lat="29.162125" lon="98.646204">
<time>2016-10-07T13:44:15Z</time></trkpt>
<trkpt lat="29.162205" lon="98.646194">
<time>2016-10-07T13:44:16Z</time></trkpt>
<trkpt lat="29.162285" lon="98.646174">
<time>2016-10-07T13:44:17Z</time></trkpt>
<trkpt lat="29.162345" lon="98.646134">
<time>2016-10-07T13:44:18Z</time></trkpt>
<trkpt lat="29.162395" lon="98.646104">
<time>2016-10-07T13:44:19Z</time></trkpt>
<trkpt lat="29.162455" lon="98.646044">
<time>2016-10-07T13:44:20Z</time></trkpt>
<trkpt lat="29.162535" lon="98.645975">
<time>2016-10-07T13:44:21Z</time></trkpt>
<trkpt lat="29.162605" lon="98.645885">
<time>2016-10-07T13:44:22Z</time></trkpt>
<trkpt lat="29.162705" lon="98.645765">
<time>2016-10-07T13:44:23Z</time></trkpt>
<trkpt lat="29.162755" lon="98.645715">
<time>2016-10-07T13:44:24Z</time></trkpt>
<trkpt lat="29.162825" lon="98.645675">
<time>2016-10-07T13:44:25Z</time></trkpt>
<trkpt lat="29.162875" lon="98.645645">
<time>2016-10-07T13:44:26Z</time></trkpt>
<trkpt lat="29.162935" lon="98.645625">
<time>2016-10-07T13:44:27Z</time></trkpt>
<trkpt lat="29.163005" lon="98.645605">
<time>2016-10-07T13:44:28Z</time></trkpt>
<trkpt lat="29.163065" lon="98.645605">
<time>2016-10-07T13:44:29Z</time></trkpt>
<trkpt lat="29.163115" lon="98.645605">
<time>2016-10-07T13:44:30Z</time></trkpt>
<trkpt lat="29.163165" lon="98.645605">
<time>2016-10-07T13:44:31Z</time></trkpt>
<trkpt lat="29.163195" lon="98.645615">
<time>2016-10-07T13:44:32Z</time></trkpt>
<trkpt lat="29.163235" lon="98.645625">
<time>2016-10-07T13:44:33Z</time></trkpt>
<trkpt lat="29.163285" lon="98.645645">
<time>2016-10-07T13:44:34Z</time></trkpt>
<trkpt lat="29.163325" lon="98.645675">
<time>2016-10-07T13:44:35Z</time></trkpt>
<trkpt lat="29.163385" lon="98.645705">
<time>2016-10-07T13:44:36Z</time></trkpt>
<trkpt lat="29.163415" lon="98.645735">
<time>2016-10-07T13:44:37Z</time></trkpt>
<trkpt lat="29.163455" lon="98.645765">
<time>2016-10-07T13:44:38Z</time></trkpt>
<trkpt lat="29.163485" lon="98.645795">
<time>2016-10-07T13:44:39Z</time></trkpt>
<trkpt lat="29.163535" lon="98.645845">
<time>2016-10-07T13:44:40Z</time></trkpt>
<trkpt lat="29.163604" lon="98.645905">
<time>2016-10-07T13:44:41Z</time></trkpt>
<trkpt lat="29.163674" lon="98.645965">
<time>2016-10-07T13:44:42Z</time></trkpt>
<trkpt lat="29.163724" lon="98.646014">
<time>2016-10-07T13:44:43Z</time></trkpt>
<trkpt lat="29.163784" lon="98.646054">
<time>2016-10-07T13:44:44Z</time></trkpt>
<trkpt lat="29.163854" lon="98.646124">
<time>2016-10-07T13:44:45Z</time></trkpt>
<trkpt lat="29.163924" lon="98.646194">
<time>2016-10-07T13:44:46Z</time></trkpt>
<trkpt lat="29.163993" lon="98.646254">
<time>2016-10-07T13:44:47Z</time></trkpt>
<trkpt lat="29.164113" lon="98.646354">
<time>2016-10-07T13:44:48Z</time></trkpt>
<trkpt lat="29.164213" lon="98.646443">
<time>2016-10-07T13:44:49Z</time></trkpt>
<trkpt lat="29.164273" lon="98.646503">
<time>2016-10-07T13:44:50Z</time></trkpt>
<trkpt lat="29.164333" lon="98.646553">
<time>2016-10-07T13:44:51Z</time></trkpt>
<trkpt lat="29.164423" lon="98.646643">
<time>2016-10-07T13:44:52Z</time></trkpt>
<trkpt lat="29.164522" lon="98.646733">
<time>2016-10-07T13:44:53Z</time></trkpt>
<trkpt lat="29.164612" lon="98.646812">
<time>2016-10-07T13:44:54Z</time></trkpt>
<trkpt lat="29.164672" lon="98.646872">
<time>2016-10-07T13:44:55Z</time></trkpt>
<trkpt lat="29.164732" lon="98.646922">
<time>2016-10-07T13:44:56Z</time></trkpt>
<trkpt lat="29.164792" lon="98.646982">
<time>2016-10-07T13:44:57Z</time></trkpt>
<trkpt lat="29.164861" lon="98.647062">
<time>2016-10-07T13:44:58Z</time></trkpt>
<trkpt lat="29.164931" lon="98.647152">
<time>2016-10-07T13:44:59Z</time></trkpt>
<trkpt lat="29.164971" lon="98.647221">
<time>2016-10-07T13:45:00Z</time></trkpt>
<trkpt lat="29.165001" lon="98.647291">
<time>2016-10-07T13:45:01Z</time></trkpt>
<trkpt lat="29.165041" lon="98.647371">
<time>2016-10-07T13:45:02Z</time></trkpt>
<trkpt lat="29.165071" lon="98.647461">
<time>2016-10-07T13:45:03Z</time></trkpt>
<trkpt lat="29.165091" lon="98.647531">
<time>2016-10-07T13:45:04Z</time></trkpt>
<trkpt lat="29.1651" lon="98.64759">
<time>2016-10-07T13:45:05Z</time></trkpt>
<trkpt lat="29.16512" lon="98.64765">
<time>2016-10-07T13:45:06Z</time></trkpt>
<trkpt lat="29.16513" lon="98.64774">
<time>2016-10-07T13:45:07Z</time></trkpt>
<trkpt lat="29.16515" lon="98.64781">
<time>2016-10-07T13:45:08Z</time></trkpt>
<trkpt lat="29.16517" lon="98.64791">
<time>2016-10-07T13:45:09Z</time></trkpt>
<trkpt lat="29.16519" lon="98.64795">
<time>2016-10-07T13:45:10Z</time></trkpt>
<trkpt lat="29.16521" lon="98.647999">
<time>2016-10-07T13:45:11Z</time></trkpt>
<trkpt lat="29.165239" lon="98.648069">
<time>2016-10-07T13:45:12Z</time></trkpt>
<trkpt lat="29.165279" lon="98.648139">
<time>2016-10-07T13:45:13Z</time></trkpt>
<trkpt lat="29.165349" lon="98.648249">
<time>2016-10-07T13:45:14Z</time></trkpt>
<trkpt lat="29.165439" lon="98.648358">
<time>2016-10-07T13:45:15Z</time></trkpt>
<trkpt lat="29.165519" lon="98.648468">
<time>2016-10-07T13:45:16Z</time></trkpt>
<trkpt lat="29.165568" lon="98.648548">
<time>2016-10-07T13:45:17Z</time></trkpt>
<trkpt lat="29.165618" lon="98.648628">
<time>2016-10-07T13:45:18Z</time></trkpt>
<trkpt lat="29.165648" lon="98.648718">
<time>2016-10-07T13:45:19Z</time></trkpt>
<trkpt lat="29.165678" lon="98.648787">
<time>2016-10-07T13:45:20Z</time></trkpt>
<trkpt lat="29.165718" lon="98.648947">
<time>2016-10-07T13:45:21Z</time></trkpt>
<trkpt lat="29.165737" lon="98.649037">
<time>2016-10-07T13:45:22Z</time></trkpt>
<trkpt lat="29.165767" lon="98.649166">
<time>2016-10-07T13:45:23Z</time></trkpt>
<trkpt lat="29.165797" lon="98.649266">
<time>2016-10-07T13:45:24Z</time></trkpt>
<trkpt lat="29.165817" lon="98.649346">
<time>2016-10-07T13:45:25Z</time></trkpt>
<trkpt lat="29.165857" lon="98.649436">
<time>2016-10-07T13:45:26Z</time></trkpt>
<trkpt lat="29.165897" lon="98.649516">
<time>2016-10-07T13:45:27Z</time></trkpt>
<trkpt lat="29.165956" lon="98.649625">
<time>2016-10-07T13:45:28Z</time></trkpt>
<trkpt lat="29.166016" lon="98.649705">
<time>2016-10-07T13:45:29Z</time></trkpt>
<trkpt lat="29.166056" lon="98.649765">
<time>2016-10-07T13:45:30Z</time></trkpt>
<trkpt lat="29.166106" lon="98.649855">
<time>2016-10-07T13:45:31Z</time></trkpt>
<trkpt lat="29.166186" lon="98.649974">
<time>2016-10-07T13:45:32Z</time></trkpt>
<trkpt lat="29.166225" lon="98.650064">
<time>2016-10-07T13:45:33Z</time></trkpt>
<trkpt lat="29.166265" lon="98.650134">
<time>2016-10-07T13:45:34Z</time></trkpt>
<trkpt lat="29.166285" lon="98.650184">
<time>2016-10-07T13:45:35Z</time></trkpt>
<trkpt lat="29.166345" lon="98.650313">
<time>2016-10-07T13:45:36Z</time></trkpt>
<trkpt lat="29.166395" lon="98.650453">
<time>2016-10-07T13:45:37Z</time></trkpt>
<trkpt lat="29.166484" lon="98.650673">
<time>2016-10-07T13:45:38Z</time></trkpt>
<trkpt lat="29.166564" lon="98.650852">
<time>2016-10-07T13:45:39Z</time></trkpt>
<trkpt lat="29.166613" lon="98.650972">
<time>2016-10-07T13:45:40Z</time></trkpt>
<trkpt lat="29.166703" lon="98.651201">
<time>2016-10-07T13:45:41Z</time></trkpt>
<trkpt lat="29.166723" lon="98.651241">
<time>2016-10-07T13:45:42Z</time></trkpt>
<trkpt lat="29.166763" lon="98.651321">
<time>2016-10-07T13:45:43Z</time></trkpt>
<trkpt lat="29.166783" lon="98.651361">
<time>2016-10-07T13:45:44Z</time></trkpt>
<trkpt lat="29.166803" lon="98.651401">
<time>2016-10-07T13:45:45Z</time></trkpt>
<trkpt lat="29.166832" lon="98.651441">
<time>2016-10-07T13:45:46Z</time></trkpt>
<trkpt lat="29.166862" lon="98.65147">
<time>2016-10-07T13:45:47Z</time></trkpt>
<trkpt lat="29.166902" lon="98.6515">
<time>2016-10-07T13:45:48Z</time></trkpt>
<trkpt lat="29.166952" lon="98.65154">
<time>2016-10-07T13:45:49Z</time></trkpt>
<trkpt lat="29.167012" lon="98.65157">
<time>2016-10-07T13:45:50Z</time></trkpt>
<trkpt lat="29.167092" lon="98.6516">
<time>2016-10-07T13:45:51Z</time></trkpt>
<trkpt lat="29.167152" lon="98.65162">
<time>2016-10-07T13:45:52Z</time></trkpt>
<trkpt lat="29.167202" lon="98.65164">
<time>2016-10-07T13:45:53Z</time></trkpt>
<trkpt lat="29.167262" lon="98.65165">
<time>2016-10-07T13:45:54Z</time></trkpt>
<trkpt lat="29.167322" lon="98.65167">
<time>2016-10-07T13:45:55Z</time></trkpt>
<trkpt lat="29.167402" lon="98.65169">
<time>2016-10-07T13:45:56Z</time></trkpt>
<trkpt lat="29.167451" lon="98.65172">
<time>2016-10-07T13:45:57Z</time></trkpt>
<trkpt lat="29.167501" lon="98.65174">
<time>2016-10-07T13:45:58Z</time></trkpt>
<trkpt lat="29.167541" lon="98.65176">
<time>2016-10-07T13:45:59Z</time></trkpt>
<trkpt lat="29.167591" lon="98.65179">
<time>2016-10-07T13:46:00Z</time></trkpt>
<trkpt lat="29.167661" lon="98.65183">
<time>2016-10-07T13:46:01Z</time></trkpt>
<trkpt lat="29.167711" lon="98.651869">
<time>2016-10-07T13:46:02Z</time></trkpt>
<trkpt lat="29.167751" lon="98.651899">
<time>2016-10-07T13:46:03Z</time></trkpt>
<trkpt lat="29.167811" lon="98.651949">
<time>2016-10-07T13:46:04Z</time></trkpt>
<trkpt lat="29.167851" lon="98.651989">
<time>2016-10-07T13:46:05Z</time></trkpt>
<trkpt lat="29.167941" lon="98.652059">
<time>2016-10-07T13:46:06Z</time></trkpt>
<trkpt lat="29.168" lon="98.652099">
<time>2016-10-07T13:46:07Z</time></trkpt>
<trkpt lat="29.16803" lon="98.652129">
<time>2016-10-07T13:46:08Z</time></trkpt>
<trkpt lat="29.16808" lon="98.652149">
<time>2016-10-07T13:46:09Z</time></trkpt>
<trkpt lat="29.16814" lon="98.652189">
<time>2016-10-07T13:46:10Z</time></trkpt>
<trkpt lat="29.1682" lon="98.652209">
<time>2016-10-07T13:46:11Z</time></trkpt>
<trkpt lat="29.16829" lon="98.652248">
<time>2016-10-07T13:46:12Z</time></trkpt>
<trkpt lat="29.16837" lon="98.652278">
<time>2016-10-07T13:46:13Z</time></trkpt>
<trkpt lat="29.16847" lon="98.652318">
<time>2016-10-07T13:46:14Z</time></trkpt>
<trkpt lat="29.16856" lon="98.652358">
<time>2016-10-07T13:46:15Z</time></trkpt>
<trkpt lat="29.168619" lon="98.652378">
<time>2016-10-07T13:46:16Z</time></trkpt>
<trkpt lat="29.168729" lon="98.652418">
<time>2016-10-07T13:46:17Z</time></trkpt>
<trkpt lat="29.168799" lon="98.652448">
<time>2016-10-07T13:46:18Z</time></trkpt>
<trkpt lat="29.168929" lon="98.652498">
<time>2016-10-07T13:46:19Z</time></trkpt>
<trkpt lat="29.169009" lon="98.652518">
<time>2016-10-07T13:46:20Z</time></trkpt>
<trkpt lat="29.169089" lon="98.652548">
<time>2016-10-07T13:46:21Z</time></trkpt>
<trkpt lat="29.169169" lon="98.652578">
<time>2016-10-07T13:46:22Z</time></trkpt>
<trkpt lat="29.169229" lon="98.652607">
<time>2016-10-07T13:46:23Z</time></trkpt>
<trkpt lat="29.169338" lon="98.652637">
<time>2016-10-07T13:46:24Z</time></trkpt>
<trkpt lat="29.169398" lon="98.652667">
<time>2016-10-07T13:46:25Z</time></trkpt>
<trkpt lat="29.169428" lon="98.652687">
<time>2016-10-07T13:46:26Z</time></trkpt>
<trkpt lat="29.169478" lon="98.652717">
<time>2016-10-07T13:46:27Z</time></trkpt>
<trkpt lat="29.169548" lon="98.652767">
<time>2016-10-07T13:46:28Z</time></trkpt>
<trkpt lat="29.169598" lon="98.652807">
<time>2016-10-07T13:46:29Z</time></trkpt>
<trkpt lat="29.169648" lon="98.652847">
<time>2016-10-07T13:46:30Z</time></trkpt>
<trkpt lat="29.169688" lon="98.652897">
<time>2016-10-07T13:46:31Z</time></trkpt>
<trkpt lat="29.169728" lon="98.652947">
<time>2016-10-07T13:46:32Z</time></trkpt>
<trkpt lat="29.169787" lon="98.653036">
<time>2016-10-07T13:46:33Z</time></trkpt>
<trkpt lat="29.169837" lon="98.653106">
<time>2016-10-07T13:46:34Z</time></trkpt>
<trkpt lat="29.169937" lon="98.653256">
<time>2016-10-07T13:46:35Z</time></trkpt>
<trkpt lat="29.170037" lon="98.653405">
<time>2016-10-07T13:46:36Z</time></trkpt>
<trkpt lat="29.170136" lon="98.653545">
<time>2016-10-07T13:46:37Z</time></trkpt>
<trkpt lat="29.170236" lon="98.653685">
<time>2016-10-07T13:46:38Z</time></trkpt>
<trkpt lat="29.170286" lon="98.653774">
<time>2016-10-07T13:46:39Z</time></trkpt>
<trkpt lat="29.170336" lon="98.653854">
<time>2016-10-07T13:46:40Z</time></trkpt>
<trkpt lat="29.170365" lon="98.653924">
<time>2016-10-07T13:46:41Z</time></trkpt>
<trkpt lat="29.170405" lon="98.654024">
<time>2016-10-07T13:46:42Z</time></trkpt>
<trkpt lat="29.170445" lon="98.654133">
<time>2016-10-07T13:46:43Z</time></trkpt>
<trkpt lat="29.170465" lon="98.654243">
<time>2016-10-07T13:46:44Z</time></trkpt>
<trkpt lat="29.170494" lon="98.654393">
<time>2016-10-07T13:46:45Z</time></trkpt>
<trkpt lat="29.170514" lon="98.654532">
<time>2016-10-07T13:46:46Z</time></trkpt>
<trkpt lat="29.170514" lon="98.654612">
<time>2016-10-07T13:46:47Z</time></trkpt>
<trkpt lat="29.170514" lon="98.654732">
<time>2016-10-07T13:46:48Z</time></trkpt>
<trkpt lat="29.170514" lon="98.654852">
<time>2016-10-07T13:46:49Z</time></trkpt>
<trkpt lat="29.170523" lon="98.654951">
<time>2016-10-07T13:46:50Z</time></trkpt>
<trkpt lat="29.170533" lon="98.655031">
<time>2016-10-07T13:46:51Z</time></trkpt>
<trkpt lat="29.170543" lon="98.655091">
<time>2016-10-07T13:46:52Z</time></trkpt>
<trkpt lat="29.170553" lon="98.655171">
<time>2016-10-07T13:46:53Z</time></trkpt>
<trkpt lat="29.170573" lon="98.65525">
<time>2016-10-07T13:46:54Z</time></trkpt>
<trkpt lat="29.170613" lon="98.65535">
<time>2016-10-07T13:46:55Z</time></trkpt>
<trkpt lat="29.170662" lon="98.65546">
<time>2016-10-07T13:46:56Z</time></trkpt>
<trkpt lat="29.170722" lon="98.65553">
<time>2016-10-07T13:46:57Z</time></trkpt>
<trkpt lat="29.170782" lon="98.65559">
<time>2016-10-07T13:46:58Z</time></trkpt>
<trkpt lat="29.170862" lon="98.655629">
<time>2016-10-07T13:46:59Z</time></trkpt>
<trkpt lat="29.170932" lon="98.655639">
<time>2016-10-07T13:47:00Z</time></trkpt>
<trkpt lat="29.171002" lon="98.655629">
<time>2016-10-07T13:47:01Z</time></trkpt>
<trkpt lat="29.171062" lon="98.65561">
<time>2016-10-07T13:47:02Z</time></trkpt>
<trkpt lat="29.171112" lon="98.65558">
<time>2016-10-07T13:47:03Z</time></trkpt>
<trkpt lat="29.171172" lon="98.65552">
<time>2016-10-07T13:47:04Z</time></trkpt>
<trkpt lat="29.171212" lon="98.65547">
<time>2016-10-07T13:47:05Z</time></trkpt>
<trkpt lat="29.171352" lon="98.655231">
<time>2016-10-07T13:47:06Z</time></trkpt>
<trkpt lat="29.171633" lon="98.654682">
<time>2016-10-07T13:47:07Z</time></trkpt>
<trkpt lat="29.171844" lon="98.654253">
<time>2016-10-07T13:47:08Z</time></trkpt>
<trkpt lat="29.171934" lon="98.654024">
<time>2016-10-07T13:47:09Z</time></trkpt>
<trkpt lat="29.171974" lon="98.653924">
<time>2016-10-07T13:47:10Z</time></trkpt>
<trkpt lat="29.172055" lon="98.653625">
<time>2016-10-07T13:47:11Z</time></trkpt>
<trkpt lat="29.172105" lon="98.653435">
<time>2016-10-07T13:47:12Z</time></trkpt>
<trkpt lat="29.172145" lon="98.653186">
<time>2016-10-07T13:47:13Z</time></trkpt>
<trkpt lat="29.172186" lon="98.652967">
<time>2016-10-07T13:47:14Z</time></trkpt>
<trkpt lat="29.172206" lon="98.652807">
<time>2016-10-07T13:47:15Z</time></trkpt>
<trkpt lat="29.172246" lon="98.652558">
<time>2016-10-07T13:47:16Z</time></trkpt>
<trkpt lat="29.172277" lon="98.652378">
<time>2016-10-07T13:47:17Z</time></trkpt>
<trkpt lat="29.172307" lon="98.652248">
<time>2016-10-07T13:47:18Z</time></trkpt>
<trkpt lat="29.172327" lon="98.652159">
<time>2016-10-07T13:47:19Z</time></trkpt>
<trkpt lat="29.172357" lon="98.652059">
<time>2016-10-07T13:47:20Z</time></trkpt>
<trkpt lat="29.172377" lon="98.651959">
<time>2016-10-07T13:47:21Z</time></trkpt>
<trkpt lat="29.172438" lon="98.6518">
<time>2016-10-07T13:47:22Z</time></trkpt>
<trkpt lat="29.172468" lon="98.65173">
<time>2016-10-07T13:47:23Z</time></trkpt>
<trkpt lat="29.172498" lon="98.65168">
<time>2016-10-07T13:47:24Z</time></trkpt>
<trkpt lat="29.172528" lon="98.65164">
<time>2016-10-07T13:47:25Z</time></trkpt>
<trkpt lat="29.172578" lon="98.65159">
<time>2016-10-07T13:47:26Z</time></trkpt>
<trkpt lat="29.172668" lon="98.65151">
<time>2016-10-07T13:47:27Z</time></trkpt>
<trkpt lat="29.172738" lon="98.65147">
<time>2016-10-07T13:47:28Z</time></trkpt>
<trkpt lat="29.172838" lon="98.65143">
<time>2016-10-07T13:47:29Z</time></trkpt>
<trkpt lat="29.172948" lon="98.651381">
<time>2016-10-07T13:47:30Z</time></trkpt>
<trkpt lat="29.173178" lon="98.651281">
<time>2016-10-07T13:47:31Z</time></trkpt>
<trkpt lat="29.173368" lon="98.651201">
<time>2016-10-07T13:47:32Z</time></trkpt>
<trkpt lat="29.173518" lon="98.651131">
<time>2016-10-07T13:47:33Z</time></trkpt>
<trkpt lat="29.173608" lon="98.651081">
<time>2016-10-07T13:47:34Z</time></trkpt>
<trkpt lat="29.173718" lon="98.651022">
<time>2016-10-07T13:47:35Z</time></trkpt>
<trkpt lat="29.173938" lon="98.650882">
<time>2016-10-07T13:47:36Z</time></trkpt>
<trkpt lat="29.174168" lon="98.650732">
<time>2016-10-07T13:47:37Z</time></trkpt>
<trkpt lat="29.174248" lon="98.650672">
<time>2016-10-07T13:47:38Z</time></trkpt>
<trkpt lat="29.174398" lon="98.650573">
<time>2016-10-07T13:47:39Z</time></trkpt>
<trkpt lat="29.174528" lon="98.650483">
<time>2016-10-07T13:47:40Z</time></trkpt>
<trkpt lat="29.174688" lon="98.650373">
<time>2016-10-07T13:47:41Z</time></trkpt>
<trkpt lat="29.174789" lon="98.650273">
<time>2016-10-07T13:47:42Z</time></trkpt>
<trkpt lat="29.174839" lon="98.650214">
<time>2016-10-07T13:47:43Z</time></trkpt>
<trkpt lat="29.174879" lon="98.650164">
<time>2016-10-07T13:47:44Z</time></trkpt>
<trkpt lat="29.174959" lon="98.650044">
<time>2016-10-07T13:47:45Z</time></trkpt>
<trkpt lat="29.175019" lon="98.649914">
<time>2016-10-07T13:47:46Z</time></trkpt>
<trkpt lat="29.175099" lon="98.649745">
<time>2016-10-07T13:47:47Z</time></trkpt>
<trkpt lat="29.175159" lon="98.649595">
<time>2016-10-07T13:47:48Z</time></trkpt>
<trkpt lat="29.17523" lon="98.649466">
<time>2016-10-07T13:47:49Z</time></trkpt>
<trkpt lat="29.17529" lon="98.649366">
<time>2016-10-07T13:47:50Z</time></trkpt>
<trkpt lat="29.17534" lon="98.649286">
<time>2016-10-07T13:47:51Z</time></trkpt>
<trkpt lat="29.17547" lon="98.649136">
<time>2016-10-07T13:47:52Z</time></trkpt>
<trkpt lat="29.17568" lon="98.648967">
<time>2016-10-07T13:47:53Z</time></trkpt>
<trkpt lat="29.17586" lon="98.648827">
<time>2016-10-07T13:47:54Z</time></trkpt>
<trkpt lat="29.17595" lon="98.648747">
<time>2016-10-07T13:47:55Z</time></trkpt>
<trkpt lat="29.17602" lon="98.648687">
<time>2016-10-07T13:47:56Z</time></trkpt>
<trkpt lat="29.17609" lon="98.648608">
<time>2016-10-07T13:47:57Z</time></trkpt>
<trkpt lat="29.176181" lon="98.648508">
<time>2016-10-07T13:47:58Z</time></trkpt>
<trkpt lat="29.176281" lon="98.648388">
<time>2016-10-07T13:47:59Z</time></trkpt>
<trkpt lat="29.176371" lon="98.648269">
<time>2016-10-07T13:48:00Z</time></trkpt>
<trkpt lat="29.176451" lon="98.648189">
<time>2016-10-07T13:48:01Z</time></trkpt>
<trkpt lat="29.176531" lon="98.648079">
<time>2016-10-07T13:48:02Z</time></trkpt>
<trkpt lat="29.176611" lon="98.647999">
<time>2016-10-07T13:48:03Z</time></trkpt>
<trkpt lat="29.176711" lon="98.64787">
<time>2016-10-07T13:48:04Z</time></trkpt>
<trkpt lat="29.176831" lon="98.64773">
<time>2016-10-07T13:48:05Z</time></trkpt>
<trkpt lat="29.176891" lon="98.64765">
<time>2016-10-07T13:48:06Z</time></trkpt>
<trkpt lat="29.176942" lon="98.64759">
<time>2016-10-07T13:48:07Z</time></trkpt>
<trkpt lat="29.177012" lon="98.6475">
<time>2016-10-07T13:48:08Z</time></trkpt>
<trkpt lat="29.177052" lon="98.647421">
<time>2016-10-07T13:48:09Z</time></trkpt>
<trkpt lat="29.177082" lon="98.647321">
<time>2016-10-07T13:48:10Z</time></trkpt>
<trkpt lat="29.177102" lon="98.647231">
<time>2016-10-07T13:48:11Z</time></trkpt>
<trkpt lat="29.177112" lon="98.647131">
<time>2016-10-07T13:48:12Z</time></trkpt>
<trkpt lat="29.177122" lon="98.647052">
<time>2016-10-07T13:48:13Z</time></trkpt>
<trkpt lat="29.177112" lon="98.646992">
<time>2016-10-07T13:48:14Z</time></trkpt>
<trkpt lat="29.177103" lon="98.646922">
<time>2016-10-07T13:48:15Z</time></trkpt>
<trkpt lat="29.177083" lon="98.646852">
<time>2016-10-07T13:48:16Z</time></trkpt>
<trkpt lat="29.177053" lon="98.646772">
<time>2016-10-07T13:48:17Z</time></trkpt>
<trkpt lat="29.177023" lon="98.646702">
<time>2016-10-07T13:48:18Z</time></trkpt>
<trkpt lat="29.176973" lon="98.646633">
<time>2016-10-07T13:48:19Z</time></trkpt>
<trkpt lat="29.176893" lon="98.646533">
<time>2016-10-07T13:48:20Z</time></trkpt>
<trkpt lat="29.176794" lon="98.646443">
<time>2016-10-07T13:48:21Z</time></trkpt>
<trkpt lat="29.176644" lon="98.646293">
<time>2016-10-07T13:48:22Z</time></trkpt>
<trkpt lat="29.176504" lon="98.646164">
<time>2016-10-07T13:48:23Z</time></trkpt>
<trkpt lat="29.176195" lon="98.645904">
<time>2016-10-07T13:48:24Z</time></trkpt>
<trkpt lat="29.176095" lon="98.645805">
<time>2016-10-07T13:48:25Z</time></trkpt>
<trkpt lat="29.175975" lon="98.645715">
<time>2016-10-07T13:48:26Z</time></trkpt>
<trkpt lat="29.175856" lon="98.645625">
<time>2016-10-07T13:48:27Z</time></trkpt>
<trkpt lat="29.175676" lon="98.645505">
<time>2016-10-07T13:48:28Z</time></trkpt>
<trkpt lat="29.175456" lon="98.645406">
<time>2016-10-07T13:48:29Z</time></trkpt>
<trkpt lat="29.175267" lon="98.645336">
<time>2016-10-07T13:48:30Z</time></trkpt>
<trkpt lat="29.175077" lon="98.645286">
<time>2016-10-07T13:48:31Z</time></trkpt>
<trkpt lat="29.174877" lon="98.645256">
<time>2016-10-07T13:48:32Z</time></trkpt>
<trkpt lat="29.174617" lon="98.645206">
<time>2016-10-07T13:48:33Z</time></trkpt>
<trkpt lat="29.174348" lon="98.645146">
<time>2016-10-07T13:48:34Z</time></trkpt>
<trkpt lat="29.174208" lon="98.645116">
<time>2016-10-07T13:48:35Z</time></trkpt>
<trkpt lat="29.174118" lon="98.645086">
<time>2016-10-07T13:48:36Z</time></trkpt>
<trkpt lat="29.174018" lon="98.645027">
<time>2016-10-07T13:48:37Z</time></trkpt>
<trkpt lat="29.173958" lon="98.644957">
<time>2016-10-07T13:48:38Z</time></trkpt>
<trkpt lat="29.173918" lon="98.644887">
<time>2016-10-07T13:48:39Z</time></trkpt>
<trkpt lat="29.173888" lon="98.644817">
<time>2016-10-07T13:48:40Z</time></trkpt>
<trkpt lat="29.173878" lon="98.644767">
<time>2016-10-07T13:48:41Z</time></trkpt>
<trkpt lat="29.173869" lon="98.644707">
<time>2016-10-07T13:48:42Z</time></trkpt>
<trkpt lat="29.173869" lon="98.644638">
<time>2016-10-07T13:48:43Z</time></trkpt>
<trkpt lat="29.173879" lon="98.644568">
<time>2016-10-07T13:48:44Z</time></trkpt>
<trkpt lat="29.173899" lon="98.644518">
<time>2016-10-07T13:48:45Z</time></trkpt>
<trkpt lat="29.173929" lon="98.644428">
<time>2016-10-07T13:48:46Z</time></trkpt>
<trkpt lat="29.174029" lon="98.644209">
<time>2016-10-07T13:48:47Z</time></trkpt>
<trkpt lat="29.174069" lon="98.644139">
<time>2016-10-07T13:48:48Z</time></trkpt>
<trkpt lat="29.174099" lon="98.644079">
<time>2016-10-07T13:48:49Z</time></trkpt>
<trkpt lat="29.17416" lon="98.643949">
<time>2016-10-07T13:48:50Z</time></trkpt>
<trkpt lat="29.17424" lon="98.64379">
<time>2016-10-07T13:48:51Z</time></trkpt>
<trkpt lat="29.17429" lon="98.64367">
<time>2016-10-07T13:48:52Z</time></trkpt>
<trkpt lat="29.17436" lon="98.64356">
<time>2016-10-07T13:48:53Z</time></trkpt>
<trkpt lat="29.17444" lon="98.64346">
<time>2016-10-07T13:48:54Z</time></trkpt>
<trkpt lat="29.17451" lon="98.643391">
<time>2016-10-07T13:48:55Z</time></trkpt>
<trkpt lat="29.17456" lon="98.643341">
<time>2016-10-07T13:48:56Z</time></trkpt>
<trkpt lat="29.17461" lon="98.643311">
<time>2016-10-07T13:48:57Z</time></trkpt>
<trkpt lat="29.17476" lon="98.643221">
<time>2016-10-07T13:48:58Z</time></trkpt>
<trkpt lat="29.17483" lon="98.643181">
<time>2016-10-07T13:48:59Z</time></trkpt>
<trkpt lat="29.17489" lon="98.643131">
<time>2016-10-07T13:49:00Z</time></trkpt>
<trkpt lat="29.17496" lon="98.643061">
<time>2016-10-07T13:49:01Z</time></trkpt>
<trkpt lat="29.175051" lon="98.642942">
<time>2016-10-07T13:49:02Z</time></trkpt>
<trkpt lat="29.175141" lon="98.642782">
<time>2016-10-07T13:49:03Z</time></trkpt>
<trkpt lat="29.175211" lon="98.642662">
<time>2016-10-07T13:49:04Z</time></trkpt>
<trkpt lat="29.175311" lon="98.642493">
<time>2016-10-07T13:49:05Z</time></trkpt>
<trkpt lat="29.175391" lon="98.642353">
<time>2016-10-07T13:49:06Z</time></trkpt>
<trkpt lat="29.175441" lon="98.642263">
<time>2016-10-07T13:49:07Z</time></trkpt>
<trkpt lat="29.175511" lon="98.642154">
<time>2016-10-07T13:49:08Z</time></trkpt>
<trkpt lat="29.175612" lon="98.641994">
<time>2016-10-07T13:49:09Z</time></trkpt>
<trkpt lat="29.175662" lon="98.641874">
<time>2016-10-07T13:49:10Z</time></trkpt>
<trkpt lat="29.175692" lon="98.641804">
<time>2016-10-07T13:49:11Z</time></trkpt>
<trkpt lat="29.175742" lon="98.641635">
<time>2016-10-07T13:49:12Z</time></trkpt>
<trkpt lat="29.175782" lon="98.641475">
<time>2016-10-07T13:49:13Z</time></trkpt>
<trkpt lat="29.175802" lon="98.641365">
<time>2016-10-07T13:49:14Z</time></trkpt>
<trkpt lat="29.175803" lon="98.641246">
<time>2016-10-07T13:49:15Z</time></trkpt>
<trkpt lat="29.175793" lon="98.641036">
<time>2016-10-07T13:49:16Z</time></trkpt>
<trkpt lat="29.175753" lon="98.640817">
<time>2016-10-07T13:49:17Z</time></trkpt>
<trkpt lat="29.175694" lon="98.640577">
<time>2016-10-07T13:49:18Z</time></trkpt>
<trkpt lat="29.175654" lon="98.640328">
<time>2016-10-07T13:49:19Z</time></trkpt>
<trkpt lat="29.175615" lon="98.640068">
<time>2016-10-07T13:49:20Z</time></trkpt>
<trkpt lat="29.175605" lon="98.639969">
<time>2016-10-07T13:49:21Z</time></trkpt>
<trkpt lat="29.175595" lon="98.639869">
<time>2016-10-07T13:49:22Z</time></trkpt>
<trkpt lat="29.175595" lon="98.639759">
<time>2016-10-07T13:49:23Z</time></trkpt>
<trkpt lat="29.175615" lon="98.639679">
<time>2016-10-07T13:49:24Z</time></trkpt>
<trkpt lat="29.175625" lon="98.6396">
<time>2016-10-07T13:49:25Z</time></trkpt>
<trkpt lat="29.175655" lon="98.63951">
<time>2016-10-07T13:49:26Z</time></trkpt>
<trkpt lat="29.175676" lon="98.63945">
<time>2016-10-07T13:49:27Z</time></trkpt>
<trkpt lat="29.175716" lon="98.63938">
<time>2016-10-07T13:49:28Z</time></trkpt>
<trkpt lat="29.175776" lon="98.63927">
<time>2016-10-07T13:49:29Z</time></trkpt>
<trkpt lat="29.175856" lon="98.63918">
<time>2016-10-07T13:49:30Z</time></trkpt>
<trkpt lat="29.175946" lon="98.639121">
<time>2016-10-07T13:49:31Z</time></trkpt>
<trkpt lat="29.176006" lon="98.639081">
<time>2016-10-07T13:49:32Z</time></trkpt>
<trkpt lat="29.176076" lon="98.639051">
<time>2016-10-07T13:49:33Z</time></trkpt>
<trkpt lat="29.176136" lon="98.639031">
<time>2016-10-07T13:49:34Z</time></trkpt>
<trkpt lat="29.176266" lon="98.639011">
<time>2016-10-07T13:49:35Z</time></trkpt>
<trkpt lat="29.176366" lon="98.639001">
<time>2016-10-07T13:49:36Z</time></trkpt>
<trkpt lat="29.176486" lon="98.638981">
<time>2016-10-07T13:49:37Z</time></trkpt>
<trkpt lat="29.176596" lon="98.638951">
<time>2016-10-07T13:49:38Z</time></trkpt>
<trkpt lat="29.176706" lon="98.638901">
<time>2016-10-07T13:49:39Z</time></trkpt>
<trkpt lat="29.176756" lon="98.638881">
<time>2016-10-07T13:49:40Z</time></trkpt>
<trkpt lat="29.176846" lon="98.638841">
<time>2016-10-07T13:49:41Z</time></trkpt>
<trkpt lat="29.176886" lon="98.638831">
<time>2016-10-07T13:49:42Z</time></trkpt>
<trkpt lat="29.177046" lon="98.638791">
<time>2016-10-07T13:49:43Z</time></trkpt>
<trkpt lat="29.177105" lon="98.638781">
<time>2016-10-07T13:49:44Z</time></trkpt>
<trkpt lat="29.177155" lon="98.638791">
<time>2016-10-07T13:49:45Z</time></trkpt>
<trkpt lat="29.177255" lon="98.638841">
<time>2016-10-07T13:49:46Z</time></trkpt>
<trkpt lat="29.177325" lon="98.638881">
<time>2016-10-07T13:49:47Z</time></trkpt>
<trkpt lat="29.177395" lon="98.638921">
<time>2016-10-07T13:49:48Z</time></trkpt>
<trkpt lat="29.177475" lon="98.638941">
<time>2016-10-07T13:49:49Z</time></trkpt>
<trkpt lat="29.177555" lon="98.638961">
<time>2016-10-07T13:49:50Z</time></trkpt>
<trkpt lat="29.177625" lon="98.638961">
<time>2016-10-07T13:49:51Z</time></trkpt>
<trkpt lat="29.177685" lon="98.638961">
<time>2016-10-07T13:49:52Z</time></trkpt>
<trkpt lat="29.177705" lon="98.638961">
<time>2016-10-07T13:49:53Z</time></trkpt>
<trkpt lat="29.177875" lon="98.638901">
<time>2016-10-07T13:49:54Z</time></trkpt>
<trkpt lat="29.177885" lon="98.638901">
<time>2016-10-07T13:49:55Z</time></trkpt>
<trkpt lat="29.177955" lon="98.638891">
<time>2016-10-07T13:49:56Z</time></trkpt>
<trkpt lat="29.178045" lon="98.638891">
<time>2016-10-07T13:49:57Z</time></trkpt>
<trkpt lat="29.178155" lon="98.638901">
<time>2016-10-07T13:49:58Z</time></trkpt>
<trkpt lat="29.178234" lon="98.638921">
<time>2016-10-07T13:49:59Z</time></trkpt>
<trkpt lat="29.178334" lon="98.638951">
<time>2016-10-07T13:50:00Z</time></trkpt>
<trkpt lat="29.178444" lon="98.638981">
<time>2016-10-07T13:50:01Z</time></trkpt>
<trkpt lat="29.178494" lon="98.639001">
<time>2016-10-07T13:50:02Z</time></trkpt>
<trkpt lat="29.178564" lon="98.639021">
<time>2016-10-07T13:50:03Z</time></trkpt>
<trkpt lat="29.178624" lon="98.639021">
<time>2016-10-07T13:50:04Z</time></trkpt>
<trkpt lat="29.178694" lon="98.639031">
<time>2016-10-07T13:50:05Z</time></trkpt>
<trkpt lat="29.178764" lon="98.639021">
<time>2016-10-07T13:50:06Z</time></trkpt>
<trkpt lat="29.178834" lon="98.639011">
<time>2016-10-07T13:50:07Z</time></trkpt>
<trkpt lat="29.178914" lon="98.638981">
<time>2016-10-07T13:50:08Z</time></trkpt>
<trkpt lat="29.178994" lon="98.638941">
<time>2016-10-07T13:50:09Z</time></trkpt>
<trkpt lat="29.179044" lon="98.638901">
<time>2016-10-07T13:50:10Z</time></trkpt>
<trkpt lat="29.179134" lon="98.638821">
<time>2016-10-07T13:50:11Z</time></trkpt>
<trkpt lat="29.179244" lon="98.638731">
<time>2016-10-07T13:50:12Z</time></trkpt>
<trkpt lat="29.179314" lon="98.638662">
<time>2016-10-07T13:50:13Z</time></trkpt>
<trkpt lat="29.179384" lon="98.638602">
<time>2016-10-07T13:50:14Z</time></trkpt>
<trkpt lat="29.179454" lon="98.638552">
<time>2016-10-07T13:50:15Z</time></trkpt>
<trkpt lat="29.179524" lon="98.638512">
<time>2016-10-07T13:50:16Z</time></trkpt>
<trkpt lat="29.179654" lon="98.638422">
<time>2016-10-07T13:50:17Z</time></trkpt>
<trkpt lat="29.179734" lon="98.638382">
<time>2016-10-07T13:50:18Z</time></trkpt>
<trkpt lat="29.179814" lon="98.638352">
<time>2016-10-07T13:50:19Z</time></trkpt>
<trkpt lat="29.179894" lon="98.638322">
<time>2016-10-07T13:50:20Z</time></trkpt>
<trkpt lat="29.179964" lon="98.638302">
<time>2016-10-07T13:50:21Z</time></trkpt>
<trkpt lat="29.180054" lon="98.638282">
<time>2016-10-07T13:50:22Z</time></trkpt>
<trkpt lat="29.180154" lon="98.638253">
<time>2016-10-07T13:50:23Z</time></trkpt>
<trkpt lat="29.180254" lon="98.638233">
<time>2016-10-07T13:50:24Z</time></trkpt>
<trkpt lat="29.180364" lon="98.638223">
<time>2016-10-07T13:50:25Z</time></trkpt>
<trkpt lat="29.180444" lon="98.638223">
<time>2016-10-07T13:50:26Z</time></trkpt>
<trkpt lat="29.180534" lon="98.638243">
<time>2016-10-07T13:50:27Z</time></trkpt>
<trkpt lat="29.180604" lon="98.638253">
<time>2016-10-07T13:50:28Z</time></trkpt>
<trkpt lat="29.180704" lon="98.638282">
<time>2016-10-07T13:50:29Z</time></trkpt>
<trkpt lat="29.180813" lon="98.638322">
<time>2016-10-07T13:50:30Z</time></trkpt>
<trkpt lat="29.180903" lon="98.638342">
<time>2016-10-07T13:50:31Z</time></trkpt>
<trkpt lat="29.180983" lon="98.638362">
<time>2016-10-07T13:50:32Z</time></trkpt>
<trkpt lat="29.181063" lon="98.638362">
<time>2016-10-07T13:50:33Z</time></trkpt>
<trkpt lat="29.181123" lon="98.638352">
<time>2016-10-07T13:50:34Z</time></trkpt>
<trkpt lat="29.181193" lon="98.638332">
<time>2016-10-07T13:50:35Z</time></trkpt>
<trkpt lat="29.181253" lon="98.638302">
<time>2016-10-07T13:50:36Z</time></trkpt>
<trkpt lat="29.181313" lon="98.638272">
<time>2016-10-07T13:50:37Z</time></trkpt>
<trkpt lat="29.181383" lon="98.638223">
<time>2016-10-07T13:50:38Z</time></trkpt>
<trkpt lat="29.181453" lon="98.638173">
<time>2016-10-07T13:50:39Z</time></trkpt>
<trkpt lat="29.181563" lon="98.638053">
<time>2016-10-07T13:50:40Z</time></trkpt>
<trkpt lat="29.181623" lon="98.637973">
<time>2016-10-07T13:50:41Z</time></trkpt>
<trkpt lat="29.181713" lon="98.637863">
<time>2016-10-07T13:50:42Z</time></trkpt>
<trkpt lat="29.181783" lon="98.637804">
<time>2016-10-07T13:50:43Z</time></trkpt>
<trkpt lat="29.181873" lon="98.637734">
<time>2016-10-07T13:50:44Z</time></trkpt>
<trkpt lat="29.181923" lon="98.637714">
<time>2016-10-07T13:50:45Z</time></trkpt>
<trkpt lat="29.181973" lon="98.637684">
<time>2016-10-07T13:50:46Z</time></trkpt>
<trkpt lat="29.182023" lon="98.637674">
<time>2016-10-07T13:50:47Z</time></trkpt>
<trkpt lat="29.182093" lon="98.637674">
<time>2016-10-07T13:50:48Z</time></trkpt>
<trkpt lat="29.182143" lon="98.637674">
<time>2016-10-07T13:50:49Z</time></trkpt>
<trkpt lat="29.182243" lon="98.637704">
<time>2016-10-07T13:50:50Z</time></trkpt>
<trkpt lat="29.182343" lon="98.637744">
<time>2016-10-07T13:50:51Z</time></trkpt>
<trkpt lat="29.182423" lon="98.637784">
<time>2016-10-07T13:50:52Z</time></trkpt>
<trkpt lat="29.182513" lon="98.637803">
<time>2016-10-07T13:50:53Z</time></trkpt>
<trkpt lat="29.182603" lon="98.637813">
<time>2016-10-07T13:50:54Z</time></trkpt>
<trkpt lat="29.182673" lon="98.637813">
<time>2016-10-07T13:50:55Z</time></trkpt>
<trkpt lat="29.182733" lon="98.637803">
<time>2016-10-07T13:50:56Z</time></trkpt>
<trkpt lat="29.182813" lon="98.637774">
<time>2016-10-07T13:50:57Z</time></trkpt>
<trkpt lat="29.182903" lon="98.637724">
<time>2016-10-07T13:50:58Z</time></trkpt>
<trkpt lat="29.183053" lon="98.637594">
<time>2016-10-07T13:50:59Z</time></trkpt>
<trkpt lat="29.183143" lon="98.637524">
<time>2016-10-07T13:51:00Z</time></trkpt>
<trkpt lat="29.183223" lon="98.637474">
<time>2016-10-07T13:51:01Z</time></trkpt>
<trkpt lat="29.183343" lon="98.637414">
<time>2016-10-07T13:51:02Z</time></trkpt>
<trkpt lat="29.183433" lon="98.637384">
<time>2016-10-07T13:51:03Z</time></trkpt>
<trkpt lat="29.183493" lon="98.637374">
<time>2016-10-07T13:51:04Z</time></trkpt>
<trkpt lat="29.183563" lon="98.637374">
<time>2016-10-07T13:51:05Z</time></trkpt>
<trkpt lat="29.183623" lon="98.637384">
<time>2016-10-07T13:51:06Z</time></trkpt>
<trkpt lat="29.183703" lon="98.637404">
<time>2016-10-07T13:51:07Z</time></trkpt>
<trkpt lat="29.183832" lon="98.637434">
<time>2016-10-07T13:51:08Z</time></trkpt>
<trkpt lat="29.183892" lon="98.637454">
<time>2016-10-07T13:51:09Z</time></trkpt>
<trkpt lat="29.183952" lon="98.637454">
<time>2016-10-07T13:51:10Z</time></trkpt>
<trkpt lat="29.184002" lon="98.637444">
<time>2016-10-07T13:51:11Z</time></trkpt>
<trkpt lat="29.184052" lon="98.637424">
<time>2016-10-07T13:51:12Z</time></trkpt>
<trkpt lat="29.184102" lon="98.637404">
<time>2016-10-07T13:51:13Z</time></trkpt>
<trkpt lat="29.184132" lon="98.637374">
<time>2016-10-07T13:51:14Z</time></trkpt>
<trkpt lat="29.184162" lon="98.637344">
<time>2016-10-07T13:51:15Z</time></trkpt>
<trkpt lat="29.184182" lon="98.637315">
<time>2016-10-07T13:51:16Z</time></trkpt>
<trkpt lat="29.184212" lon="98.637265">
<time>2016-10-07T13:51:17Z</time></trkpt>
<trkpt lat="29.184222" lon="98.637225">
<time>2016-10-07T13:51:18Z</time></trkpt>
<trkpt lat="29.184233" lon="98.637185">
<time>2016-10-07T13:51:19Z</time></trkpt>
<trkpt lat="29.184283" lon="98.636965">
<time>2016-10-07T13:51:20Z</time></trkpt>
<trkpt lat="29.184343" lon="98.636666">
<time>2016-10-07T13:51:21Z</time></trkpt>
<trkpt lat="29.184394" lon="98.636407">
<time>2016-10-07T13:51:22Z</time></trkpt>
<trkpt lat="29.184434" lon="98.636177">
<time>2016-10-07T13:51:23Z</time></trkpt>
<trkpt lat="29.184454" lon="98.636017">
<time>2016-10-07T13:51:24Z</time></trkpt>
<trkpt lat="29.184464" lon="98.635878">
<time>2016-10-07T13:51:25Z</time></trkpt>
<trkpt lat="29.184454" lon="98.635758">
<time>2016-10-07T13:51:26Z</time></trkpt>
<trkpt lat="29.184445" lon="98.635608">
<time>2016-10-07T13:51:27Z</time></trkpt>
<trkpt lat="29.184415" lon="98.635449">
<time>2016-10-07T13:51:28Z</time></trkpt>
<trkpt lat="29.184395" lon="98.635269">
<time>2016-10-07T13:51:29Z</time></trkpt>
<trkpt lat="29.184375" lon="98.635109">
<time>2016-10-07T13:51:30Z</time></trkpt>
<trkpt lat="29.184375" lon="98.63504">
<time>2016-10-07T13:51:31Z</time></trkpt>
<trkpt lat="29.184386" lon="98.63496">
<time>2016-10-07T13:51:32Z</time></trkpt>
<trkpt lat="29.184396" lon="98.63485">
<time>2016-10-07T13:51:33Z</time></trkpt>
<trkpt lat="29.184426" lon="98.63471">
<time>2016-10-07T13:51:34Z</time></trkpt>
<trkpt lat="29.184466" lon="98.6346">
<time>2016-10-07T13:51:35Z</time></trkpt>
<trkpt lat="29.184536" lon="98.634461">
<time>2016-10-07T13:51:36Z</time></trkpt>
<trkpt lat="29.184576" lon="98.634371">
<time>2016-10-07T13:51:37Z</time></trkpt>
<trkpt lat="29.184626" lon="98.634281">
<time>2016-10-07T13:51:38Z</time></trkpt>
<trkpt lat="29.184656" lon="98.634221">
<time>2016-10-07T13:51:39Z</time></trkpt>
<trkpt lat="29.184696" lon="98.634171">
<time>2016-10-07T13:51:40Z</time></trkpt>
<trkpt lat="29.184736" lon="98.634112">
<time>2016-10-07T13:51:41Z</time></trkpt>
<trkpt lat="29.184787" lon="98.634022">
<time>2016-10-07T13:51:42Z</time></trkpt>
<trkpt lat="29.184827" lon="98.633952">
<time>2016-10-07T13:51:43Z</time></trkpt>
<trkpt lat="29.184857" lon="98.633892">
<time>2016-10-07T13:51:44Z</time></trkpt>
<trkpt lat="29.184877" lon="98.633822">
<time>2016-10-07T13:51:45Z</time></trkpt>
<trkpt lat="29.184907" lon="98.633732">
<time>2016-10-07T13:51:46Z</time></trkpt>
<trkpt lat="29.184937" lon="98.633613">
<time>2016-10-07T13:51:47Z</time></trkpt>
<trkpt lat="29.184947" lon="98.633513">
<time>2016-10-07T13:51:48Z</time></trkpt>
<trkpt lat="29.184977" lon="98.633303">
<time>2016-10-07T13:51:49Z</time></trkpt>
<trkpt lat="29.184988" lon="98.633183">
<time>2016-10-07T13:51:50Z</time></trkpt>
<trkpt lat="29.184998" lon="98.633114">
<time>2016-10-07T13:51:51Z</time></trkpt>
<trkpt lat="29.184978" lon="98.632954">
<time>2016-10-07T13:51:52Z</time></trkpt>
<trkpt lat="29.184938" lon="98.632794">
<time>2016-10-07T13:51:53Z</time></trkpt>
<trkpt lat="29.184878" lon="98.632655">
<time>2016-10-07T13:51:54Z</time></trkpt>
<trkpt lat="29.184789" lon="98.632465">
<time>2016-10-07T13:51:55Z</time></trkpt>
<trkpt lat="29.184749" lon="98.632395">
<time>2016-10-07T13:51:56Z</time></trkpt>
<trkpt lat="29.184739" lon="98.632335">
<time>2016-10-07T13:51:57Z</time></trkpt>
<trkpt lat="29.184719" lon="98.632255">
<time>2016-10-07T13:51:58Z</time></trkpt>
<trkpt lat="29.184719" lon="98.632166">
<time>2016-10-07T13:51:59Z</time></trkpt>
<trkpt lat="29.184719" lon="98.632106">
<time>2016-10-07T13:52:00Z</time></trkpt>
<trkpt lat="29.184729" lon="98.632056">
<time>2016-10-07T13:52:01Z</time></trkpt>
<trkpt lat="29.184749" lon="98.632006">
<time>2016-10-07T13:52:02Z</time></trkpt>
<trkpt lat="29.184799" lon="98.631926">
<time>2016-10-07T13:52:03Z</time></trkpt>
<trkpt lat="29.184859" lon="98.631856">
<time>2016-10-07T13:52:04Z</time></trkpt>
<trkpt lat="29.18499" lon="98.631727">
<time>2016-10-07T13:52:05Z</time></trkpt>
<trkpt lat="29.18509" lon="98.631637">
<time>2016-10-07T13:52:06Z</time></trkpt>
<trkpt lat="29.18518" lon="98.631567">
<time>2016-10-07T13:52:07Z</time></trkpt>
<trkpt lat="29.18532" lon="98.631517">
<time>2016-10-07T13:52:08Z</time></trkpt>
<trkpt lat="29.185449" lon="98.631477">
<time>2016-10-07T13:52:09Z</time></trkpt>
<trkpt lat="29.185519" lon="98.631457">
<time>2016-10-07T13:52:10Z</time></trkpt>
<trkpt lat="29.185589" lon="98.631437">
<time>2016-10-07T13:52:11Z</time></trkpt>
<trkpt lat="29.185669" lon="98.631387">
<time>2016-10-07T13:52:12Z</time></trkpt>
<trkpt lat="29.185729" lon="98.631337">
<time>2016-10-07T13:52:13Z</time></trkpt>
<trkpt lat="29.185769" lon="98.631297">
<time>2016-10-07T13:52:14Z</time></trkpt>
<trkpt lat="29.18586" lon="98.631178">
<time>2016-10-07T13:52:15Z</time></trkpt>
<trkpt lat="29.18596" lon="98.631008">
<time>2016-10-07T13:52:16Z</time></trkpt>
<trkpt lat="29.18606" lon="98.630858">
<time>2016-10-07T13:52:17Z</time></trkpt>
<trkpt lat="29.18612" lon="98.630768">
<time>2016-10-07T13:52:18Z</time></trkpt>
<trkpt lat="29.18631" lon="98.630469">
<time>2016-10-07T13:52:19Z</time></trkpt>
<trkpt lat="29.18645" lon="98.630249">
<time>2016-10-07T13:52:20Z</time></trkpt>
<trkpt lat="29.18656" lon="98.63012">
<time>2016-10-07T13:52:21Z</time></trkpt>
<trkpt lat="29.18664" lon="98.63004">
<time>2016-10-07T13:52:22Z</time></trkpt>
<trkpt lat="29.18677" lon="98.62996">
<time>2016-10-07T13:52:23Z</time></trkpt>
<trkpt lat="29.18692" lon="98.62986">
<time>2016-10-07T13:52:24Z</time></trkpt>
<trkpt lat="29.18699" lon="98.6298">
<time>2016-10-07T13:52:25Z</time></trkpt>
<trkpt lat="29.187071" lon="98.62973">
<time>2016-10-07T13:52:26Z</time></trkpt>
<trkpt lat="29.187111" lon="98.629671">
<time>2016-10-07T13:52:27Z</time></trkpt>
<trkpt lat="29.187181" lon="98.629571">
<time>2016-10-07T13:52:28Z</time></trkpt>
<trkpt lat="29.187241" lon="98.629461">
<time>2016-10-07T13:52:29Z</time></trkpt>
<trkpt lat="29.187311" lon="98.629321">
<time>2016-10-07T13:52:30Z</time></trkpt>
<trkpt lat="29.187371" lon="98.629202">
<time>2016-10-07T13:52:31Z</time></trkpt>
<trkpt lat="29.187401" lon="98.629092">
<time>2016-10-07T13:52:32Z</time></trkpt>
<trkpt lat="29.187421" lon="98.628982">
<time>2016-10-07T13:52:33Z</time></trkpt>
<trkpt lat="29.187431" lon="98.628882">
<time>2016-10-07T13:52:34Z</time></trkpt>
<trkpt lat="29.187431" lon="98.628732">
<time>2016-10-07T13:52:35Z</time></trkpt>
<trkpt lat="29.187442" lon="98.628613">
<time>2016-10-07T13:52:36Z</time></trkpt>
<trkpt lat="29.187462" lon="98.628493">
<time>2016-10-07T13:52:37Z</time></trkpt>
<trkpt lat="29.187492" lon="98.628363">
<time>2016-10-07T13:52:38Z</time></trkpt>
<trkpt lat="29.187532" lon="98.628263">
<time>2016-10-07T13:52:39Z</time></trkpt>
<trkpt lat="29.187572" lon="98.628193">
<time>2016-10-07T13:52:40Z</time></trkpt>
<trkpt lat="29.187642" lon="98.628104">
<time>2016-10-07T13:52:41Z</time></trkpt>
<trkpt lat="29.187732" lon="98.628014">
<time>2016-10-07T13:52:42Z</time></trkpt>
<trkpt lat="29.187872" lon="98.627914">
<time>2016-10-07T13:52:43Z</time></trkpt>
<trkpt lat="29.188022" lon="98.627814">
<time>2016-10-07T13:52:44Z</time></trkpt>
<trkpt lat="29.188152" lon="98.627734">
<time>2016-10-07T13:52:45Z</time></trkpt>
<trkpt lat="29.188262" lon="98.627654">
<time>2016-10-07T13:52:46Z</time></trkpt>
<trkpt lat="29.188342" lon="98.627605">
<time>2016-10-07T13:52:47Z</time></trkpt>
<trkpt lat="29.188422" lon="98.627535">
<time>2016-10-07T13:52:48Z</time></trkpt>
<trkpt lat="29.188572" lon="98.627385">
<time>2016-10-07T13:52:49Z</time></trkpt>
<trkpt lat="29.188672" lon="98.627275">
<time>2016-10-07T13:52:50Z</time></trkpt>
<trkpt lat="29.188732" lon="98.627195">
<time>2016-10-07T13:52:51Z</time></trkpt>
<trkpt lat="29.188762" lon="98.627135">
<time>2016-10-07T13:52:52Z</time></trkpt>
<trkpt lat="29.188802" lon="98.627056">
<time>2016-10-07T13:52:53Z</time></trkpt>
<trkpt lat="29.188823" lon="98.626976">
<time>2016-10-07T13:52:54Z</time></trkpt>
<trkpt lat="29.188873" lon="98.626796">
<time>2016-10-07T13:52:55Z</time></trkpt>
<trkpt lat="29.188913" lon="98.626646">
<time>2016-10-07T13:52:56Z</time></trkpt>
<trkpt lat="29.188933" lon="98.626577">
<time>2016-10-07T13:52:57Z</time></trkpt>
<trkpt lat="29.188963" lon="98.626527">
<time>2016-10-07T13:52:58Z</time></trkpt>
<trkpt lat="29.189023" lon="98.626457">
<time>2016-10-07T13:52:59Z</time></trkpt>
<trkpt lat="29.189083" lon="98.626407">
<time>2016-10-07T13:53:00Z</time></trkpt>
<trkpt lat="29.189173" lon="98.626367">
<time>2016-10-07T13:53:01Z</time></trkpt>
<trkpt lat="29.189243" lon="98.626337">
<time>2016-10-07T13:53:02Z</time></trkpt>
<trkpt lat="29.189353" lon="98.626337">
<time>2016-10-07T13:53:03Z</time></trkpt>
<trkpt lat="29.189533" lon="98.626357">
<time>2016-10-07T13:53:04Z</time></trkpt>
<trkpt lat="29.189623" lon="98.626377">
<time>2016-10-07T13:53:05Z</time></trkpt>
<trkpt lat="29.189683" lon="98.626397">
<time>2016-10-07T13:53:06Z</time></trkpt>
<trkpt lat="29.189752" lon="98.626437">
<time>2016-10-07T13:53:07Z</time></trkpt>
<trkpt lat="29.189802" lon="98.626477">
<time>2016-10-07T13:53:08Z</time></trkpt>
<trkpt lat="29.189852" lon="98.626547">
<time>2016-10-07T13:53:09Z</time></trkpt>
<trkpt lat="29.189912" lon="98.626686">
<time>2016-10-07T13:53:10Z</time></trkpt>
<trkpt lat="29.189952" lon="98.626836">
<time>2016-10-07T13:53:11Z</time></trkpt>
<trkpt lat="29.189982" lon="98.626956">
<time>2016-10-07T13:53:12Z</time></trkpt>
<trkpt lat="29.190032" lon="98.627076">
<time>2016-10-07T13:53:13Z</time></trkpt>
<trkpt lat="29.190071" lon="98.627165">
<time>2016-10-07T13:53:14Z</time></trkpt>
<trkpt lat="29.190131" lon="98.627255">
<time>2016-10-07T13:53:15Z</time></trkpt>
<trkpt lat="29.190221" lon="98.627355">
<time>2016-10-07T13:53:16Z</time></trkpt>
<trkpt lat="29.190311" lon="98.627435">
<time>2016-10-07T13:53:17Z</time></trkpt>
<trkpt lat="29.190451" lon="98.627525">
<time>2016-10-07T13:53:18Z</time></trkpt>
<trkpt lat="29.19059" lon="98.627595">
<time>2016-10-07T13:53:19Z</time></trkpt>
<trkpt lat="29.19068" lon="98.627654">
<time>2016-10-07T13:53:20Z</time></trkpt>
<trkpt lat="29.19081" lon="98.627724">
<time>2016-10-07T13:53:21Z</time></trkpt>
<trkpt lat="29.19092" lon="98.627794">
<time>2016-10-07T13:53:22Z</time></trkpt>
<trkpt lat="29.19102" lon="98.627874">
<time>2016-10-07T13:53:23Z</time></trkpt>
<trkpt lat="29.19112" lon="98.627964">
<time>2016-10-07T13:53:24Z</time></trkpt>
<trkpt lat="29.1912" lon="98.628034">
<time>2016-10-07T13:53:25Z</time></trkpt>
<trkpt lat="29.191309" lon="98.628153">
<time>2016-10-07T13:53:26Z</time></trkpt>
<trkpt lat="29.191409" lon="98.628273">
<time>2016-10-07T13:53:27Z</time></trkpt>
<trkpt lat="29.191479" lon="98.628363">
<time>2016-10-07T13:53:28Z</time></trkpt>
<trkpt lat="29.191579" lon="98.628503">
<time>2016-10-07T13:53:29Z</time></trkpt>
<trkpt lat="29.191639" lon="98.628593">
<time>2016-10-07T13:53:30Z</time></trkpt>
<trkpt lat="29.191728" lon="98.628732">
<time>2016-10-07T13:53:31Z</time></trkpt>
<trkpt lat="29.191808" lon="98.628892">
<time>2016-10-07T13:53:32Z</time></trkpt>
<trkpt lat="29.191878" lon="98.629032">
<time>2016-10-07T13:53:33Z</time></trkpt>
<trkpt lat="29.191978" lon="98.629211">
<time>2016-10-07T13:53:34Z</time></trkpt>
<trkpt lat="29.192067" lon="98.629381">
<time>2016-10-07T13:53:35Z</time></trkpt>
<trkpt lat="29.192177" lon="98.629621">
<time>2016-10-07T13:53:36Z</time></trkpt>
<trkpt lat="29.192237" lon="98.62974">
<time>2016-10-07T13:53:37Z</time></trkpt>
<trkpt lat="29.192296" lon="98.62986">
<time>2016-10-07T13:53:38Z</time></trkpt>
<trkpt lat="29.192356" lon="98.62999">
<time>2016-10-07T13:53:39Z</time></trkpt>
<trkpt lat="29.192396" lon="98.63005">
<time>2016-10-07T13:53:40Z</time></trkpt>
<trkpt lat="29.192446" lon="98.63013">
<time>2016-10-07T13:53:41Z</time></trkpt>
<trkpt lat="29.192516" lon="98.630219">
<time>2016-10-07T13:53:42Z</time></trkpt>
<trkpt lat="29.192576" lon="98.630269">
<time>2016-10-07T13:53:43Z</time></trkpt>
<trkpt lat="29.192666" lon="98.630329">
<time>2016-10-07T13:53:44Z</time></trkpt>
<trkpt lat="29.192726" lon="98.630359">
<time>2016-10-07T13:53:45Z</time></trkpt>
<trkpt lat="29.192835" lon="98.630399">
<time>2016-10-07T13:53:46Z</time></trkpt>
<trkpt lat="29.193015" lon="98.630449">
<time>2016-10-07T13:53:47Z</time></trkpt>
<trkpt lat="29.193205" lon="98.630499">
<time>2016-10-07T13:53:48Z</time></trkpt>
<trkpt lat="29.193405" lon="98.630559">
<time>2016-10-07T13:53:49Z</time></trkpt>
<trkpt lat="29.193565" lon="98.630599">
<time>2016-10-07T13:53:50Z</time></trkpt>
<trkpt lat="29.193644" lon="98.630639">
<time>2016-10-07T13:53:51Z</time></trkpt>
<trkpt lat="29.193734" lon="98.630688">
<time>2016-10-07T13:53:52Z</time></trkpt>
<trkpt lat="29.193854" lon="98.630788">
<time>2016-10-07T13:53:53Z</time></trkpt>
<trkpt lat="29.193964" lon="98.630928">
<time>2016-10-07T13:53:54Z</time></trkpt>
<trkpt lat="29.194114" lon="98.631118">
<time>2016-10-07T13:53:55Z</time></trkpt>
<trkpt lat="29.194253" lon="98.631337">
<time>2016-10-07T13:53:56Z</time></trkpt>
<trkpt lat="29.194343" lon="98.631497">
<time>2016-10-07T13:53:57Z</time></trkpt>
<trkpt lat="29.194383" lon="98.631547">
<time>2016-10-07T13:53:58Z</time></trkpt>
<trkpt lat="29.194423" lon="98.631617">
<time>2016-10-07T13:53:59Z</time></trkpt>
<trkpt lat="29.194532" lon="98.631736">
<time>2016-10-07T13:54:00Z</time></trkpt>
<trkpt lat="29.194592" lon="98.631786">
<time>2016-10-07T13:54:01Z</time></trkpt>
<trkpt lat="29.194632" lon="98.631816">
<time>2016-10-07T13:54:02Z</time></trkpt>
<trkpt lat="29.194732" lon="98.631856">
<time>2016-10-07T13:54:03Z</time></trkpt>
<trkpt lat="29.194962" lon="98.631896">
<time>2016-10-07T13:54:04Z</time></trkpt>
<trkpt lat="29.195182" lon="98.631926">
<time>2016-10-07T13:54:05Z</time></trkpt>
<trkpt lat="29.195282" lon="98.631956">
<time>2016-10-07T13:54:06Z</time></trkpt>
<trkpt lat="29.195342" lon="98.631986">
<time>2016-10-07T13:54:07Z</time></trkpt>
<trkpt lat="29.195471" lon="98.632096">
<time>2016-10-07T13:54:08Z</time></trkpt>
<trkpt lat="29.195531" lon="98.632165">
<time>2016-10-07T13:54:09Z</time></trkpt>
<trkpt lat="29.195561" lon="98.632235">
<time>2016-10-07T13:54:10Z</time></trkpt>
<trkpt lat="29.195671" lon="98.632495">
<time>2016-10-07T13:54:11Z</time></trkpt>
<trkpt lat="29.19579" lon="98.632844">
<time>2016-10-07T13:54:12Z</time></trkpt>
<trkpt lat="29.19588" lon="98.633074">
<time>2016-10-07T13:54:13Z</time></trkpt>
<trkpt lat="29.195929" lon="98.633233">
<time>2016-10-07T13:54:14Z</time></trkpt>
<trkpt lat="29.195999" lon="98.633383">
<time>2016-10-07T13:54:15Z</time></trkpt>
<trkpt lat="29.196049" lon="98.633463">
<time>2016-10-07T13:54:16Z</time></trkpt>
<trkpt lat="29.196099" lon="98.633523">
<time>2016-10-07T13:54:17Z</time></trkpt>
<trkpt lat="29.196159" lon="98.633592">
<time>2016-10-07T13:54:18Z</time></trkpt>
<trkpt lat="29.196219" lon="98.633632">
<time>2016-10-07T13:54:19Z</time></trkpt>
<trkpt lat="29.196328" lon="98.633722">
<time>2016-10-07T13:54:20Z</time></trkpt>
<trkpt lat="29.196498" lon="98.633822">
<time>2016-10-07T13:54:21Z</time></trkpt>
<trkpt lat="29.196618" lon="98.633882">
<time>2016-10-07T13:54:22Z</time></trkpt>
<trkpt lat="29.196698" lon="98.633932">
<time>2016-10-07T13:54:23Z</time></trkpt>
<trkpt lat="29.196728" lon="98.633972">
<time>2016-10-07T13:54:24Z</time></trkpt>
<trkpt lat="29.196758" lon="98.634012">
<time>2016-10-07T13:54:25Z</time></trkpt>
<trkpt lat="29.196798" lon="98.634091">
<time>2016-10-07T13:54:26Z</time></trkpt>
<trkpt lat="29.196817" lon="98.634161">
<time>2016-10-07T13:54:27Z</time></trkpt>
<trkpt lat="29.196827" lon="98.634221">
<time>2016-10-07T13:54:28Z</time></trkpt>
<trkpt lat="29.196827" lon="98.634301">
<time>2016-10-07T13:54:29Z</time></trkpt>
<trkpt lat="29.196827" lon="98.634431">
<time>2016-10-07T13:54:30Z</time></trkpt>
<trkpt lat="29.196827" lon="98.63456">
<time>2016-10-07T13:54:31Z</time></trkpt>
<trkpt lat="29.196837" lon="98.63465">
<time>2016-10-07T13:54:32Z</time></trkpt>
<trkpt lat="29.196857" lon="98.63472">
<time>2016-10-07T13:54:33Z</time></trkpt>
<trkpt lat="29.196887" lon="98.6348">
<time>2016-10-07T13:54:34Z</time></trkpt>
<trkpt lat="29.196916" lon="98.63486">
<time>2016-10-07T13:54:35Z</time></trkpt>
<trkpt lat="29.196946" lon="98.6349">
<time>2016-10-07T13:54:36Z</time></trkpt>
<trkpt lat="29.196986" lon="98.63494">
<time>2016-10-07T13:54:37Z</time></trkpt>
<trkpt lat="29.197036" lon="98.634979">
<time>2016-10-07T13:54:38Z</time></trkpt>
<trkpt lat="29.197096" lon="98.635019">
<time>2016-10-07T13:54:39Z</time></trkpt>
<trkpt lat="29.197136" lon="98.635029">
<time>2016-10-07T13:54:40Z</time></trkpt>
<trkpt lat="29.197166" lon="98.635039">
<time>2016-10-07T13:54:41Z</time></trkpt>
<trkpt lat="29.197216" lon="98.635059">
<time>2016-10-07T13:54:42Z</time></trkpt>
<trkpt lat="29.197256" lon="98.635059">
<time>2016-10-07T13:54:43Z</time></trkpt>
<trkpt lat="29.197286" lon="98.635059">
<time>2016-10-07T13:54:44Z</time></trkpt>
<trkpt lat="29.197296" lon="98.635059">
<time>2016-10-07T13:54:45Z</time></trkpt>
<trkpt lat="29.197346" lon="98.635059">
<time>2016-10-07T13:54:46Z</time></trkpt>
<trkpt lat="29.197406" lon="98.635059">
<time>2016-10-07T13:54:47Z</time></trkpt>
<trkpt lat="29.197476" lon="98.635049">
<time>2016-10-07T13:54:48Z</time></trkpt>
<trkpt lat="29.197556" lon="98.635049">
<time>2016-10-07T13:54:49Z</time></trkpt>
<trkpt lat="29.197646" lon="98.635039">
<time>2016-10-07T13:54:50Z</time></trkpt>
<trkpt lat="29.197826" lon="98.635019">
<time>2016-10-07T13:54:51Z</time></trkpt>
<trkpt lat="29.197965" lon="98.635009">
<time>2016-10-07T13:54:52Z</time></trkpt>
<trkpt lat="29.198095" lon="98.634989">
<time>2016-10-07T13:54:53Z</time></trkpt>
<trkpt lat="29.198175" lon="98.634989">
<time>2016-10-07T13:54:54Z</time></trkpt>
<trkpt lat="29.198305" lon="98.634979">
<time>2016-10-07T13:54:55Z</time></trkpt>
<trkpt lat="29.198445" lon="98.634969">
<time>2016-10-07T13:54:56Z</time></trkpt>
<trkpt lat="29.198575" lon="98.634959">
<time>2016-10-07T13:54:57Z</time></trkpt>
<trkpt lat="29.198625" lon="98.634959">
<time>2016-10-07T13:54:58Z</time></trkpt>
<trkpt lat="29.198665" lon="98.634959">
<time>2016-10-07T13:54:59Z</time></trkpt>
<trkpt lat="29.198725" lon="98.634979">
<time>2016-10-07T13:55:00Z</time></trkpt>
<trkpt lat="29.198775" lon="98.635009">
<time>2016-10-07T13:55:01Z</time></trkpt>
<trkpt lat="29.198825" lon="98.635049">
<time>2016-10-07T13:55:02Z</time></trkpt>
<trkpt lat="29.198865" lon="98.635089">
<time>2016-10-07T13:55:03Z</time></trkpt>
<trkpt lat="29.198905" lon="98.635149">
<time>2016-10-07T13:55:04Z</time></trkpt>
<trkpt lat="29.198944" lon="98.635229">
<time>2016-10-07T13:55:05Z</time></trkpt>
<trkpt lat="29.198974" lon="98.635299">
<time>2016-10-07T13:55:06Z</time></trkpt>
<trkpt lat="29.198994" lon="98.635369">
<time>2016-10-07T13:55:07Z</time></trkpt>
<trkpt lat="29.199054" lon="98.635518">
<time>2016-10-07T13:55:08Z</time></trkpt>
<trkpt lat="29.199084" lon="98.635608">
<time>2016-10-07T13:55:09Z</time></trkpt>
<trkpt lat="29.199104" lon="98.635678">
<time>2016-10-07T13:55:10Z</time></trkpt>
<trkpt lat="29.199134" lon="98.635758">
<time>2016-10-07T13:55:11Z</time></trkpt>
<trkpt lat="29.199163" lon="98.635848">
<time>2016-10-07T13:55:12Z</time></trkpt>
<trkpt lat="29.199193" lon="98.635937">
<time>2016-10-07T13:55:13Z</time></trkpt>
<trkpt lat="29.199223" lon="98.636027">
<time>2016-10-07T13:55:14Z</time></trkpt>
<trkpt lat="29.199243" lon="98.636087">
<time>2016-10-07T13:55:15Z</time></trkpt>
<trkpt lat="29.199263" lon="98.636157">
<time>2016-10-07T13:55:16Z</time></trkpt>
<trkpt lat="29.199293" lon="98.636227">
<time>2016-10-07T13:55:17Z</time></trkpt>
<trkpt lat="29.199313" lon="98.636317">
<time>2016-10-07T13:55:18Z</time></trkpt>
<trkpt lat="29.199332" lon="98.636396">
<time>2016-10-07T13:55:19Z</time></trkpt>
<trkpt lat="29.199342" lon="98.636456">
<time>2016-10-07T13:55:20Z</time></trkpt>
<trkpt lat="29.199352" lon="98.636536">
<time>2016-10-07T13:55:21Z</time></trkpt>
<trkpt lat="29.199362" lon="98.636586">
<time>2016-10-07T13:55:22Z</time></trkpt>
<trkpt lat="29.199362" lon="98.636656">
<time>2016-10-07T13:55:23Z</time></trkpt>
<trkpt lat="29.199352" lon="98.636716">
<time>2016-10-07T13:55:24Z</time></trkpt>
<trkpt lat="29.199352" lon="98.636785">
<time>2016-10-07T13:55:25Z</time></trkpt>
<trkpt lat="29.199342" lon="98.636865">
<time>2016-10-07T13:55:26Z</time></trkpt>
<trkpt lat="29.199332" lon="98.636935">
<time>2016-10-07T13:55:27Z</time></trkpt>
<trkpt lat="29.199322" lon="98.637025">
<time>2016-10-07T13:55:28Z</time></trkpt>
<trkpt lat="29.199312" lon="98.637085">
<time>2016-10-07T13:55:29Z</time></trkpt>
<trkpt lat="29.199311" lon="98.637165">
<time>2016-10-07T13:55:30Z</time></trkpt>
<trkpt lat="29.199311" lon="98.637234">
<time>2016-10-07T13:55:31Z</time></trkpt>
<trkpt lat="29.199321" lon="98.637334">
<time>2016-10-07T13:55:32Z</time></trkpt>
<trkpt lat="29.199351" lon="98.637434">
<time>2016-10-07T13:55:33Z</time></trkpt>
<trkpt lat="29.199371" lon="98.637514">
<time>2016-10-07T13:55:34Z</time></trkpt>
<trkpt lat="29.199411" lon="98.637594">
<time>2016-10-07T13:55:35Z</time></trkpt>
<trkpt lat="29.199451" lon="98.637673">
<time>2016-10-07T13:55:36Z</time></trkpt>
<trkpt lat="29.19949" lon="98.637733">
<time>2016-10-07T13:55:37Z</time></trkpt>
<trkpt lat="29.19953" lon="98.637803">
<time>2016-10-07T13:55:38Z</time></trkpt>
<trkpt lat="29.1996" lon="98.637903">
<time>2016-10-07T13:55:39Z</time></trkpt>
<trkpt lat="29.19971" lon="98.638113">
<time>2016-10-07T13:55:40Z</time></trkpt>
<trkpt lat="29.19974" lon="98.638172">
<time>2016-10-07T13:55:41Z</time></trkpt>
<trkpt lat="29.19977" lon="98.638222">
<time>2016-10-07T13:55:42Z</time></trkpt>
<trkpt lat="29.199789" lon="98.638272">
<time>2016-10-07T13:55:43Z</time></trkpt>
<trkpt lat="29.199819" lon="98.638352">
<time>2016-10-07T13:55:44Z</time></trkpt>
<trkpt lat="29.199869" lon="98.638472">
<time>2016-10-07T13:55:45Z</time></trkpt>
<trkpt lat="29.199909" lon="98.638581">
<time>2016-10-07T13:55:46Z</time></trkpt>
<trkpt lat="29.199959" lon="98.638721">
<time>2016-10-07T13:55:47Z</time></trkpt>
<trkpt lat="29.200008" lon="98.638891">
<time>2016-10-07T13:55:48Z</time></trkpt>
<trkpt lat="29.200038" lon="98.63902">
<time>2016-10-07T13:55:49Z</time></trkpt>
<trkpt lat="29.200058" lon="98.6391">
<time>2016-10-07T13:55:50Z</time></trkpt>
<trkpt lat="29.200068" lon="98.63916">
<time>2016-10-07T13:55:51Z</time></trkpt>
<trkpt lat="29.200078" lon="98.63921">
<time>2016-10-07T13:55:52Z</time></trkpt>
<trkpt lat="29.200078" lon="98.63925">
<time>2016-10-07T13:55:53Z</time></trkpt>
<trkpt lat="29.200078" lon="98.6393">
<time>2016-10-07T13:55:54Z</time></trkpt>
<trkpt lat="29.200097" lon="98.63942">
<time>2016-10-07T13:55:55Z</time></trkpt>
<trkpt lat="29.200107" lon="98.639509">
<time>2016-10-07T13:55:56Z</time></trkpt>
<trkpt lat="29.200117" lon="98.639579">
<time>2016-10-07T13:55:57Z</time></trkpt>
<trkpt lat="29.200127" lon="98.639649">
<time>2016-10-07T13:55:58Z</time></trkpt>
<trkpt lat="29.200147" lon="98.639719">
<time>2016-10-07T13:55:59Z</time></trkpt>
<trkpt lat="29.200167" lon="98.639789">
<time>2016-10-07T13:56:00Z</time></trkpt>
<trkpt lat="29.200177" lon="98.639829">
<time>2016-10-07T13:56:01Z</time></trkpt>
<trkpt lat="29.200217" lon="98.639938">
<time>2016-10-07T13:56:02Z</time></trkpt>
<trkpt lat="29.200276" lon="98.640078">
<time>2016-10-07T13:56:03Z</time></trkpt>
<trkpt lat="29.200346" lon="98.640218">
<time>2016-10-07T13:56:04Z</time></trkpt>
<trkpt lat="29.200396" lon="98.640327">
<time>2016-10-07T13:56:05Z</time></trkpt>
<trkpt lat="29.200466" lon="98.640467">
<time>2016-10-07T13:56:06Z</time></trkpt>
<trkpt lat="29.200535" lon="98.640637">
<time>2016-10-07T13:56:07Z</time></trkpt>
<trkpt lat="29.200565" lon="98.640736">
<time>2016-10-07T13:56:08Z</time></trkpt>
<trkpt lat="29.200575" lon="98.640796">
<time>2016-10-07T13:56:09Z</time></trkpt>
<trkpt lat="29.200585" lon="98.640856">
<time>2016-10-07T13:56:10Z</time></trkpt>
<trkpt lat="29.200585" lon="98.640916">
<time>2016-10-07T13:56:11Z</time></trkpt>
<trkpt lat="29.200575" lon="98.640966">
<time>2016-10-07T13:56:12Z</time></trkpt>
<trkpt lat="29.200555" lon="98.641016">
<time>2016-10-07T13:56:13Z</time></trkpt>
<trkpt lat="29.200525" lon="98.641086">
<time>2016-10-07T13:56:14Z</time></trkpt>
<trkpt lat="29.200495" lon="98.641146">
<time>2016-10-07T13:56:15Z</time></trkpt>
<trkpt lat="29.200454" lon="98.641185">
<time>2016-10-07T13:56:16Z</time></trkpt>
<trkpt lat="29.200384" lon="98.641235">
<time>2016-10-07T13:56:17Z</time></trkpt>
<trkpt lat="29.200254" lon="98.641305">
<time>2016-10-07T13:56:18Z</time></trkpt>
<trkpt lat="29.200154" lon="98.641365">
<time>2016-10-07T13:56:19Z</time></trkpt>
<trkpt lat="29.200064" lon="98.641415">
<time>2016-10-07T13:56:20Z</time></trkpt>
<trkpt lat="29.199994" lon="98.641455">
<time>2016-10-07T13:56:21Z</time></trkpt>
<trkpt lat="29.199924" lon="98.641505">
<time>2016-10-07T13:56:22Z</time></trkpt>
<trkpt lat="29.199874" lon="98.641575">
<time>2016-10-07T13:56:23Z</time></trkpt>
<trkpt lat="29.199794" lon="98.641674">
<time>2016-10-07T13:56:24Z</time></trkpt>
<trkpt lat="29.199724" lon="98.641814">
<time>2016-10-07T13:56:25Z</time></trkpt>
<trkpt lat="29.199674" lon="98.641934">
<time>2016-10-07T13:56:26Z</time></trkpt>
<trkpt lat="29.199654" lon="98.642033">
<time>2016-10-07T13:56:27Z</time></trkpt>
<trkpt lat="29.199644" lon="98.642113">
<time>2016-10-07T13:56:28Z</time></trkpt>
<trkpt lat="29.199643" lon="98.642203">
<time>2016-10-07T13:56:29Z</time></trkpt>
<trkpt lat="29.199643" lon="98.642303">
<time>2016-10-07T13:56:30Z</time></trkpt>
<trkpt lat="29.199663" lon="98.642422">
<time>2016-10-07T13:56:31Z</time></trkpt>
<trkpt lat="29.199693" lon="98.642542">
<time>2016-10-07T13:56:32Z</time></trkpt>
<trkpt lat="29.199713" lon="98.642642">
<time>2016-10-07T13:56:33Z</time></trkpt>
<trkpt lat="29.199733" lon="98.642722">
<time>2016-10-07T13:56:34Z</time></trkpt>
<trkpt lat="29.199743" lon="98.642752">
<time>2016-10-07T13:56:35Z</time></trkpt>
<trkpt lat="29.199742" lon="98.642812">
<time>2016-10-07T13:56:36Z</time></trkpt>
<trkpt lat="29.199752" lon="98.642861">
<time>2016-10-07T13:56:37Z</time></trkpt>
<trkpt lat="29.199742" lon="98.642911">
<time>2016-10-07T13:56:38Z</time></trkpt>
<trkpt lat="29.199742" lon="98.642971">
<time>2016-10-07T13:56:39Z</time></trkpt>
<trkpt lat="29.199732" lon="98.643021">
<time>2016-10-07T13:56:40Z</time></trkpt>
<trkpt lat="29.199722" lon="98.643071">
<time>2016-10-07T13:56:41Z</time></trkpt>
<trkpt lat="29.199702" lon="98.643131">
<time>2016-10-07T13:56:42Z</time></trkpt>
<trkpt lat="29.199662" lon="98.643191">
<time>2016-10-07T13:56:43Z</time></trkpt>
<trkpt lat="29.199582" lon="98.64331">
<time>2016-10-07T13:56:44Z</time></trkpt>
<trkpt lat="29.199522" lon="98.6434">
<time>2016-10-07T13:56:45Z</time></trkpt>
<trkpt lat="29.199462" lon="98.64348">
<time>2016-10-07T13:56:46Z</time></trkpt>
<trkpt lat="29.199392" lon="98.64356">
<time>2016-10-07T13:56:47Z</time></trkpt>
<trkpt lat="29.199291" lon="98.643679">
<time>2016-10-07T13:56:48Z</time></trkpt>
<trkpt lat="29.199211" lon="98.643779">
<time>2016-10-07T13:56:49Z</time></trkpt>
<trkpt lat="29.199141" lon="98.643859">
<time>2016-10-07T13:56:50Z</time></trkpt>
<trkpt lat="29.199011" lon="98.644019">
<time>2016-10-07T13:56:51Z</time></trkpt>
<trkpt lat="29.198821" lon="98.644258">
<time>2016-10-07T13:56:52Z</time></trkpt>
<trkpt lat="29.198701" lon="98.644398">
<time>2016-10-07T13:56:53Z</time></trkpt>
<trkpt lat="29.198631" lon="98.644488">
<time>2016-10-07T13:56:54Z</time></trkpt>
<trkpt lat="29.19859" lon="98.644577">
<time>2016-10-07T13:56:55Z</time></trkpt>
<trkpt lat="29.19856" lon="98.644647">
<time>2016-10-07T13:56:56Z</time></trkpt>
<trkpt lat="29.19854" lon="98.644707">
<time>2016-10-07T13:56:57Z</time></trkpt>
<trkpt lat="29.19852" lon="98.644787">
<time>2016-10-07T13:56:58Z</time></trkpt>
<trkpt lat="29.19852" lon="98.644857">
<time>2016-10-07T13:56:59Z</time></trkpt>
<trkpt lat="29.19852" lon="98.644956">
<time>2016-10-07T13:57:00Z</time></trkpt>
<trkpt lat="29.19854" lon="98.645026">
<time>2016-10-07T13:57:01Z</time></trkpt>
<trkpt lat="29.19855" lon="98.645086">
<time>2016-10-07T13:57:02Z</time></trkpt>
<trkpt lat="29.198579" lon="98.645166">
<time>2016-10-07T13:57:03Z</time></trkpt>
<trkpt lat="29.198609" lon="98.645236">
<time>2016-10-07T13:57:04Z</time></trkpt>
<trkpt lat="29.198649" lon="98.645306">
<time>2016-10-07T13:57:05Z</time></trkpt>
<trkpt lat="29.198689" lon="98.645365">
<time>2016-10-07T13:57:06Z</time></trkpt>
<trkpt lat="29.198789" lon="98.645505">
<time>2016-10-07T13:57:07Z</time></trkpt>
<trkpt lat="29.198829" lon="98.645575">
<time>2016-10-07T13:57:08Z</time></trkpt>
<trkpt lat="29.198858" lon="98.645655">
<time>2016-10-07T13:57:09Z</time></trkpt>
<trkpt lat="29.198878" lon="98.645724">
<time>2016-10-07T13:57:10Z</time></trkpt>
<trkpt lat="29.198888" lon="98.645784">
<time>2016-10-07T13:57:11Z</time></trkpt>
<trkpt lat="29.198888" lon="98.645834">
<time>2016-10-07T13:57:12Z</time></trkpt>
<trkpt lat="29.198888" lon="98.645894">
<time>2016-10-07T13:57:13Z</time></trkpt>
<trkpt lat="29.198878" lon="98.645974">
<time>2016-10-07T13:57:14Z</time></trkpt>
<trkpt lat="29.198838" lon="98.646094">
<time>2016-10-07T13:57:15Z</time></trkpt>
<trkpt lat="29.198808" lon="98.646153">
<time>2016-10-07T13:57:16Z</time></trkpt>
<trkpt lat="29.198778" lon="98.646223">
<time>2016-10-07T13:57:17Z</time></trkpt>
<trkpt lat="29.198677" lon="98.646383">
<time>2016-10-07T13:57:18Z</time></trkpt>
<trkpt lat="29.198607" lon="98.646513">
<time>2016-10-07T13:57:19Z</time></trkpt>
<trkpt lat="29.198567" lon="98.646582">
<time>2016-10-07T13:57:20Z</time></trkpt>
<trkpt lat="29.198537" lon="98.646652">
<time>2016-10-07T13:57:21Z</time></trkpt>
<trkpt lat="29.198517" lon="98.646732">
<time>2016-10-07T13:57:22Z</time></trkpt>
<trkpt lat="29.198507" lon="98.646792">
<time>2016-10-07T13:57:23Z</time></trkpt>
<trkpt lat="29.198497" lon="98.646852">
<time>2016-10-07T13:57:24Z</time></trkpt>
<trkpt lat="29.198507" lon="98.646912">
<time>2016-10-07T13:57:25Z</time></trkpt>
<trkpt lat="29.198527" lon="98.646961">
<time>2016-10-07T13:57:26Z</time></trkpt>
<trkpt lat="29.198546" lon="98.647011">
<time>2016-10-07T13:57:27Z</time></trkpt>
<trkpt lat="29.198586" lon="98.647081">
<time>2016-10-07T13:57:28Z</time></trkpt>
<trkpt lat="29.198656" lon="98.647151">
<time>2016-10-07T13:57:29Z</time></trkpt>
<trkpt lat="29.198706" lon="98.647191">
<time>2016-10-07T13:57:30Z</time></trkpt>
<trkpt lat="29.198826" lon="98.647271">
<time>2016-10-07T13:57:31Z</time></trkpt>
<trkpt lat="29.198916" lon="98.647321">
<time>2016-10-07T13:57:32Z</time></trkpt>
<trkpt lat="29.199085" lon="98.6474">
<time>2016-10-07T13:57:33Z</time></trkpt>
<trkpt lat="29.199195" lon="98.64746">
<time>2016-10-07T13:57:34Z</time></trkpt>
<trkpt lat="29.199315" lon="98.6475">
<time>2016-10-07T13:57:35Z</time></trkpt>
<trkpt lat="29.199425" lon="98.64755">
<time>2016-10-07T13:57:36Z</time></trkpt>
<trkpt lat="29.199565" lon="98.64758">
<time>2016-10-07T13:57:37Z</time></trkpt>
<trkpt lat="29.199655" lon="98.6476">
<time>2016-10-07T13:57:38Z</time></trkpt>
<trkpt lat="29.199735" lon="98.64761">
<time>2016-10-07T13:57:39Z</time></trkpt>
<trkpt lat="29.199874" lon="98.64762">
<time>2016-10-07T13:57:40Z</time></trkpt>
<trkpt lat="29.200044" lon="98.64762">
<time>2016-10-07T13:57:41Z</time></trkpt>
<trkpt lat="29.200194" lon="98.64761">
<time>2016-10-07T13:57:42Z</time></trkpt>
<trkpt lat="29.200284" lon="98.6476">
<time>2016-10-07T13:57:43Z</time></trkpt>
<trkpt lat="29.200424" lon="98.64757">
<time>2016-10-07T13:57:44Z</time></trkpt>
<trkpt lat="29.200664" lon="98.64751">
<time>2016-10-07T13:57:45Z</time></trkpt>
<trkpt lat="29.200944" lon="98.64745">
<time>2016-10-07T13:57:46Z</time></trkpt>
<trkpt lat="29.201184" lon="98.64739">
<time>2016-10-07T13:57:47Z</time></trkpt>
<trkpt lat="29.201354" lon="98.64734">
<time>2016-10-07T13:57:48Z</time></trkpt>
<trkpt lat="29.201534" lon="98.647301">
<time>2016-10-07T13:57:49Z</time></trkpt>
<trkpt lat="29.201664" lon="98.647271">
<time>2016-10-07T13:57:50Z</time></trkpt>
<trkpt lat="29.201764" lon="98.647261">
<time>2016-10-07T13:57:51Z</time></trkpt>
<trkpt lat="29.201824" lon="98.647251">
<time>2016-10-07T13:57:52Z</time></trkpt>
<trkpt lat="29.201894" lon="98.647251">
<time>2016-10-07T13:57:53Z</time></trkpt>
<trkpt lat="29.201954" lon="98.647261">
<time>2016-10-07T13:57:54Z</time></trkpt>
<trkpt lat="29.202163" lon="98.647281">
<time>2016-10-07T13:57:55Z</time></trkpt>
<trkpt lat="29.202423" lon="98.647291">
<time>2016-10-07T13:57:56Z</time></trkpt>
<trkpt lat="29.202583" lon="98.647301">
<time>2016-10-07T13:57:57Z</time></trkpt>
<trkpt lat="29.202743" lon="98.64731">
<time>2016-10-07T13:57:58Z</time></trkpt>
<trkpt lat="29.202863" lon="98.64733">
<time>2016-10-07T13:57:59Z</time></trkpt>
<trkpt lat="29.202923" lon="98.64734">
<time>2016-10-07T13:58:00Z</time></trkpt>
<trkpt lat="29.202963" lon="98.64736">
<time>2016-10-07T13:58:01Z</time></trkpt>
<trkpt lat="29.203013" lon="98.64738">
<time>2016-10-07T13:58:02Z</time></trkpt>
<trkpt lat="29.203042" lon="98.6474">
<time>2016-10-07T13:58:03Z</time></trkpt>
<trkpt lat="29.203072" lon="98.64743">
<time>2016-10-07T13:58:04Z</time></trkpt>
<trkpt lat="29.203102" lon="98.64745">
<time>2016-10-07T13:58:05Z</time></trkpt>
<trkpt lat="29.203122" lon="98.64749">
<time>2016-10-07T13:58:06Z</time></trkpt>
<trkpt lat="29.203152" lon="98.64754">
<time>2016-10-07T13:58:07Z</time></trkpt>
<trkpt lat="29.203182" lon="98.6476">
<time>2016-10-07T13:58:08Z</time></trkpt>
<trkpt lat="29.203192" lon="98.64767">
<time>2016-10-07T13:58:09Z</time></trkpt>
<trkpt lat="29.203202" lon="98.647759">
<time>2016-10-07T13:58:10Z</time></trkpt>
<trkpt lat="29.203182" lon="98.647829">
<time>2016-10-07T13:58:11Z</time></trkpt>
<trkpt lat="29.203162" lon="98.647889">
<time>2016-10-07T13:58:12Z</time></trkpt>
<trkpt lat="29.203131" lon="98.647949">
<time>2016-10-07T13:58:13Z</time></trkpt>
<trkpt lat="29.203081" lon="98.648039">
<time>2016-10-07T13:58:14Z</time></trkpt>
<trkpt lat="29.203021" lon="98.648128">
<time>2016-10-07T13:58:15Z</time></trkpt>
<trkpt lat="29.202961" lon="98.648208">
<time>2016-10-07T13:58:16Z</time></trkpt>
<trkpt lat="29.202901" lon="98.648278">
<time>2016-10-07T13:58:17Z</time></trkpt>
<trkpt lat="29.202841" lon="98.648368">
<time>2016-10-07T13:58:18Z</time></trkpt>
<trkpt lat="29.202741" lon="98.648488">
<time>2016-10-07T13:58:19Z</time></trkpt>
<trkpt lat="29.202681" lon="98.648567">
<time>2016-10-07T13:58:20Z</time></trkpt>
<trkpt lat="29.202631" lon="98.648647">
<time>2016-10-07T13:58:21Z</time></trkpt>
<trkpt lat="29.202571" lon="98.648717">
<time>2016-10-07T13:58:22Z</time></trkpt>
<trkpt lat="29.20249" lon="98.648817">
<time>2016-10-07T13:58:23Z</time></trkpt>
<trkpt lat="29.20238" lon="98.648966">
<time>2016-10-07T13:58:24Z</time></trkpt>
<trkpt lat="29.20231" lon="98.649046">
<time>2016-10-07T13:58:25Z</time></trkpt>
<trkpt lat="29.20222" lon="98.649166">
<time>2016-10-07T13:58:26Z</time></trkpt>
<trkpt lat="29.20203" lon="98.649415">
<time>2016-10-07T13:58:27Z</time></trkpt>
<trkpt lat="29.20192" lon="98.649535">
<time>2016-10-07T13:58:28Z</time></trkpt>
<trkpt lat="29.20187" lon="98.649615">
<time>2016-10-07T13:58:29Z</time></trkpt>
<trkpt lat="29.201819" lon="98.649675">
<time>2016-10-07T13:58:30Z</time></trkpt>
<trkpt lat="29.201769" lon="98.649744">
<time>2016-10-07T13:58:31Z</time></trkpt>
<trkpt lat="29.201729" lon="98.649804">
<time>2016-10-07T13:58:32Z</time></trkpt>
<trkpt lat="29.201669" lon="98.649894">
<time>2016-10-07T13:58:33Z</time></trkpt>
<trkpt lat="29.201589" lon="98.650034">
<time>2016-10-07T13:58:34Z</time></trkpt>
<trkpt lat="29.201519" lon="98.650183">
<time>2016-10-07T13:58:35Z</time></trkpt>
<trkpt lat="29.201449" lon="98.650313">
<time>2016-10-07T13:58:36Z</time></trkpt>
<trkpt lat="29.201388" lon="98.650433">
<time>2016-10-07T13:58:37Z</time></trkpt>
<trkpt lat="29.201358" lon="98.650492">
<time>2016-10-07T13:58:38Z</time></trkpt>
<trkpt lat="29.201328" lon="98.650572">
<time>2016-10-07T13:58:39Z</time></trkpt>
<trkpt lat="29.201288" lon="98.650632">
<time>2016-10-07T13:58:40Z</time></trkpt>
<trkpt lat="29.201258" lon="98.650692">
<time>2016-10-07T13:58:41Z</time></trkpt>
<trkpt lat="29.201208" lon="98.650782">
<time>2016-10-07T13:58:42Z</time></trkpt>
<trkpt lat="29.201148" lon="98.650871">
<time>2016-10-07T13:58:43Z</time></trkpt>
<trkpt lat="29.201088" lon="98.650961">
<time>2016-10-07T13:58:44Z</time></trkpt>
<trkpt lat="29.200998" lon="98.651081">
<time>2016-10-07T13:58:45Z</time></trkpt>
<trkpt lat="29.200918" lon="98.651191">
<time>2016-10-07T13:58:46Z</time></trkpt>
<trkpt lat="29.200877" lon="98.651231">
<time>2016-10-07T13:58:47Z</time></trkpt>
<trkpt lat="29.200837" lon="98.65129">
<time>2016-10-07T13:58:48Z</time></trkpt>
<trkpt lat="29.200797" lon="98.65134">
<time>2016-10-07T13:58:49Z</time></trkpt>
<trkpt lat="29.200727" lon="98.65143">
<time>2016-10-07T13:58:50Z</time></trkpt>
<trkpt lat="29.200627" lon="98.65157">
<time>2016-10-07T13:58:51Z</time></trkpt>
<trkpt lat="29.200527" lon="98.651749">
<time>2016-10-07T13:58:52Z</time></trkpt>
<trkpt lat="29.200497" lon="98.651849">
<time>2016-10-07T13:58:53Z</time></trkpt>
<trkpt lat="29.200447" lon="98.651959">
<time>2016-10-07T13:58:54Z</time></trkpt>
<trkpt lat="29.200406" lon="98.652058">
<time>2016-10-07T13:58:55Z</time></trkpt>
<trkpt lat="29.200386" lon="98.652148">
<time>2016-10-07T13:58:56Z</time></trkpt>
<trkpt lat="29.200376" lon="98.652238">
<time>2016-10-07T13:58:57Z</time></trkpt>
<trkpt lat="29.200386" lon="98.652338">
<time>2016-10-07T13:58:58Z</time></trkpt>
<trkpt lat="29.200406" lon="98.652417">
<time>2016-10-07T13:58:59Z</time></trkpt>
<trkpt lat="29.200456" lon="98.652497">
<time>2016-10-07T13:59:00Z</time></trkpt>
<trkpt lat="29.200585" lon="98.652617">
<time>2016-10-07T13:59:01Z</time></trkpt>
<trkpt lat="29.200775" lon="98.652757">
<time>2016-10-07T13:59:02Z</time></trkpt>
<trkpt lat="29.200825" lon="98.652826">
<time>2016-10-07T13:59:03Z</time></trkpt>
<trkpt lat="29.200874" lon="98.652916">
<time>2016-10-07T13:59:04Z</time></trkpt>
<trkpt lat="29.200894" lon="98.652996">
<time>2016-10-07T13:59:05Z</time></trkpt>
<trkpt lat="29.200904" lon="98.653106">
<time>2016-10-07T13:59:06Z</time></trkpt>
<trkpt lat="29.200884" lon="98.653205">
<time>2016-10-07T13:59:07Z</time></trkpt>
<trkpt lat="29.200844" lon="98.653335">
<time>2016-10-07T13:59:08Z</time></trkpt>
<trkpt lat="29.200784" lon="98.653465">
<time>2016-10-07T13:59:09Z</time></trkpt>
<trkpt lat="29.200733" lon="98.653564">
<time>2016-10-07T13:59:10Z</time></trkpt>
<trkpt lat="29.200693" lon="98.653634">
<time>2016-10-07T13:59:11Z</time></trkpt>
<trkpt lat="29.200643" lon="98.653734">
<time>2016-10-07T13:59:12Z</time></trkpt>
<trkpt lat="29.200593" lon="98.653814">
<time>2016-10-07T13:59:13Z</time></trkpt>
<trkpt lat="29.200533" lon="98.653923">
<time>2016-10-07T13:59:14Z</time></trkpt>
<trkpt lat="29.200443" lon="98.654113">
<time>2016-10-07T13:59:15Z</time></trkpt>
<trkpt lat="29.200332" lon="98.654312">
<time>2016-10-07T13:59:16Z</time></trkpt>
<trkpt lat="29.200282" lon="98.654412">
<time>2016-10-07T13:59:17Z</time></trkpt>
<trkpt lat="29.200232" lon="98.654492">
<time>2016-10-07T13:59:18Z</time></trkpt>
<trkpt lat="29.200172" lon="98.654552">
<time>2016-10-07T13:59:19Z</time></trkpt>
<trkpt lat="29.200102" lon="98.654592">
<time>2016-10-07T13:59:20Z</time></trkpt>
<trkpt lat="29.200042" lon="98.654612">
<time>2016-10-07T13:59:21Z</time></trkpt>
<trkpt lat="29.199992" lon="98.654622">
<time>2016-10-07T13:59:22Z</time></trkpt>
<trkpt lat="29.199942" lon="98.654612">
<time>2016-10-07T13:59:23Z</time></trkpt>
<trkpt lat="29.199882" lon="98.654602">
<time>2016-10-07T13:59:24Z</time></trkpt>
<trkpt lat="29.199762" lon="98.654562">
<time>2016-10-07T13:59:25Z</time></trkpt>
<trkpt lat="29.199682" lon="98.654522">
<time>2016-10-07T13:59:26Z</time></trkpt>
<trkpt lat="29.199583" lon="98.654492">
<time>2016-10-07T13:59:27Z</time></trkpt>
<trkpt lat="29.199513" lon="98.654472">
<time>2016-10-07T13:59:28Z</time></trkpt>
<trkpt lat="29.199453" lon="98.654462">
<time>2016-10-07T13:59:29Z</time></trkpt>
<trkpt lat="29.199363" lon="98.654452">
<time>2016-10-07T13:59:30Z</time></trkpt>
<trkpt lat="29.199273" lon="98.654452">
<time>2016-10-07T13:59:31Z</time></trkpt>
<trkpt lat="29.199193" lon="98.654472">
<time>2016-10-07T13:59:32Z</time></trkpt>
<trkpt lat="29.199093" lon="98.654492">
<time>2016-10-07T13:59:33Z</time></trkpt>
<trkpt lat="29.198963" lon="98.654542">
<time>2016-10-07T13:59:34Z</time></trkpt>
<trkpt lat="29.198773" lon="98.654632">
<time>2016-10-07T13:59:35Z</time></trkpt>
<trkpt lat="29.198593" lon="98.654721">
<time>2016-10-07T13:59:36Z</time></trkpt>
<trkpt lat="29.198453" lon="98.654791">
<time>2016-10-07T13:59:37Z</time></trkpt>
<trkpt lat="29.198193" lon="98.654931">
<time>2016-10-07T13:59:38Z</time></trkpt>
<trkpt lat="29.198093" lon="98.654981">
<time>2016-10-07T13:59:39Z</time></trkpt>
<trkpt lat="29.197813" lon="98.65512">
<time>2016-10-07T13:59:40Z</time></trkpt>
<trkpt lat="29.197653" lon="98.65521">
<time>2016-10-07T13:59:41Z</time></trkpt>
<trkpt lat="29.197593" lon="98.65525">
<time>2016-10-07T13:59:42Z</time></trkpt>
<trkpt lat="29.197513" lon="98.65531">
<time>2016-10-07T13:59:43Z</time></trkpt>
<trkpt lat="29.197483" lon="98.65535">
<time>2016-10-07T13:59:44Z</time></trkpt>
<trkpt lat="29.197453" lon="98.65538">
<time>2016-10-07T13:59:45Z</time></trkpt>
<trkpt lat="29.197413" lon="98.65543">
<time>2016-10-07T13:59:46Z</time></trkpt>
<trkpt lat="29.197372" lon="98.655479">
<time>2016-10-07T13:59:47Z</time></trkpt>
<trkpt lat="29.197292" lon="98.655589">
<time>2016-10-07T13:59:48Z</time></trkpt>
<trkpt lat="29.197202" lon="98.655719">
<time>2016-10-07T13:59:49Z</time></trkpt>
<trkpt lat="29.197142" lon="98.655769">
<time>2016-10-07T13:59:50Z</time></trkpt>
<trkpt lat="29.197092" lon="98.655819">
<time>2016-10-07T13:59:51Z</time></trkpt>
<trkpt lat="29.197042" lon="98.655848">
<time>2016-10-07T13:59:52Z</time></trkpt>
<trkpt lat="29.196952" lon="98.655878">
<time>2016-10-07T13:59:53Z</time></trkpt>
<trkpt lat="29.196882" lon="98.655888">
<time>2016-10-07T13:59:54Z</time></trkpt>
<trkpt lat="29.196772" lon="98.655898">
<time>2016-10-07T13:59:55Z</time></trkpt>
<trkpt lat="29.196642" lon="98.655908">
<time>2016-10-07T13:59:56Z</time></trkpt>
<trkpt lat="29.196512" lon="98.655918">
<time>2016-10-07T13:59:57Z</time></trkpt>
<trkpt lat="29.196412" lon="98.655938">
<time>2016-10-07T13:59:58Z</time></trkpt>
<trkpt lat="29.196272" lon="98.655998">
<time>2016-10-07T13:59:59Z</time></trkpt>
<trkpt lat="29.196152" lon="98.656058">
<time>2016-10-07T14:00:00Z</time></trkpt>
<trkpt lat="29.196082" lon="98.656108">
<time>2016-10-07T14:00:01Z</time></trkpt>
<trkpt lat="29.196022" lon="98.656148">
<time>2016-10-07T14:00:02Z</time></trkpt>
<trkpt lat="29.195962" lon="98.656227">
<time>2016-10-07T14:00:03Z</time></trkpt>
<trkpt lat="29.195922" lon="98.656297">
<time>2016-10-07T14:00:04Z</time></trkpt>
<trkpt lat="29.195872" lon="98.656367">
<time>2016-10-07T14:00:05Z</time></trkpt>
<trkpt lat="29.195832" lon="98.656427">
<time>2016-10-07T14:00:06Z</time></trkpt>
<trkpt lat="29.195802" lon="98.656487">
<time>2016-10-07T14:00:07Z</time></trkpt>
<trkpt lat="29.195772" lon="98.656547">
<time>2016-10-07T14:00:08Z</time></trkpt>
<trkpt lat="29.195752" lon="98.656626">
<time>2016-10-07T14:00:09Z</time></trkpt>
<trkpt lat="29.195711" lon="98.656746">
<time>2016-10-07T14:00:10Z</time></trkpt>
<trkpt lat="29.195691" lon="98.656836">
<time>2016-10-07T14:00:11Z</time></trkpt>
<trkpt lat="29.195661" lon="98.657025">
<time>2016-10-07T14:00:12Z</time></trkpt>
<trkpt lat="29.195651" lon="98.657125">
<time>2016-10-07T14:00:13Z</time></trkpt>
<trkpt lat="29.19564" lon="98.657275">
<time>2016-10-07T14:00:14Z</time></trkpt>
<trkpt lat="29.19563" lon="98.657384">
<time>2016-10-07T14:00:15Z</time></trkpt>
<trkpt lat="29.19562" lon="98.657464">
<time>2016-10-07T14:00:16Z</time></trkpt>
<trkpt lat="29.19561" lon="98.657584">
<time>2016-10-07T14:00:17Z</time></trkpt>
<trkpt lat="29.19559" lon="98.657743">
<time>2016-10-07T14:00:18Z</time></trkpt>
<trkpt lat="29.195579" lon="98.657853">
<time>2016-10-07T14:00:19Z</time></trkpt>
<trkpt lat="29.195549" lon="98.658053">
<time>2016-10-07T14:00:20Z</time></trkpt>
<trkpt lat="29.195519" lon="98.658192">
<time>2016-10-07T14:00:21Z</time></trkpt>
<trkpt lat="29.195479" lon="98.658292">
<time>2016-10-07T14:00:22Z</time></trkpt>
<trkpt lat="29.195418" lon="98.658422">
<time>2016-10-07T14:00:23Z</time></trkpt>
<trkpt lat="29.195328" lon="98.658561">
<time>2016-10-07T14:00:24Z</time></trkpt>
<trkpt lat="29.195198" lon="98.658741">
<time>2016-10-07T14:00:25Z</time></trkpt>
<trkpt lat="29.195098" lon="98.65888">
<time>2016-10-07T14:00:26Z</time></trkpt>
<trkpt lat="29.194948" lon="98.65909">
<time>2016-10-07T14:00:27Z</time></trkpt>
<trkpt lat="29.194898" lon="98.65915">
<time>2016-10-07T14:00:28Z</time></trkpt>
<trkpt lat="29.194857" lon="98.659229">
<time>2016-10-07T14:00:29Z</time></trkpt>
<trkpt lat="29.194827" lon="98.659289">
<time>2016-10-07T14:00:30Z</time></trkpt>
<trkpt lat="29.194807" lon="98.659339">
<time>2016-10-07T14:00:31Z</time></trkpt>
<trkpt lat="29.194807" lon="98.659399">
<time>2016-10-07T14:00:32Z</time></trkpt>
<trkpt lat="29.194807" lon="98.659459">
<time>2016-10-07T14:00:33Z</time></trkpt>
<trkpt lat="29.194827" lon="98.659509">
<time>2016-10-07T14:00:34Z</time></trkpt>
<trkpt lat="29.194847" lon="98.659558">
<time>2016-10-07T14:00:35Z</time></trkpt>
<trkpt lat="29.194877" lon="98.659598">
<time>2016-10-07T14:00:36Z</time></trkpt>
<trkpt lat="29.194907" lon="98.659628">
<time>2016-10-07T14:00:37Z</time></trkpt>
<trkpt lat="29.194957" lon="98.659638">
<time>2016-10-07T14:00:38Z</time></trkpt>
<trkpt lat="29.194997" lon="98.659658">
<time>2016-10-07T14:00:39Z</time></trkpt>
<trkpt lat="29.195036" lon="98.659658">
<time>2016-10-07T14:00:40Z</time></trkpt>
<trkpt lat="29.195086" lon="98.659658">
<time>2016-10-07T14:00:41Z</time></trkpt>
<trkpt lat="29.195156" lon="98.659648">
<time>2016-10-07T14:00:42Z</time></trkpt>
<trkpt lat="29.195206" lon="98.659628">
<time>2016-10-07T14:00:43Z</time></trkpt>
<trkpt lat="29.195316" lon="98.659598">
<time>2016-10-07T14:00:44Z</time></trkpt>
<trkpt lat="29.195636" lon="98.659509">
<time>2016-10-07T14:00:45Z</time></trkpt>
<trkpt lat="29.195726" lon="98.659469">
<time>2016-10-07T14:00:46Z</time></trkpt>
<trkpt lat="29.195836" lon="98.659439">
<time>2016-10-07T14:00:47Z</time></trkpt>
<trkpt lat="29.196036" lon="98.659369">
<time>2016-10-07T14:00:48Z</time></trkpt>
<trkpt lat="29.196186" lon="98.659309">
<time>2016-10-07T14:00:49Z</time></trkpt>
<trkpt lat="29.196356" lon="98.659229">
<time>2016-10-07T14:00:50Z</time></trkpt>
<trkpt lat="29.196406" lon="98.659189">
<time>2016-10-07T14:00:51Z</time></trkpt>
<trkpt lat="29.196506" lon="98.65913">
<time>2016-10-07T14:00:52Z</time></trkpt>
<trkpt lat="29.196606" lon="98.65906">
<time>2016-10-07T14:00:53Z</time></trkpt>
<trkpt lat="29.196696" lon="98.65899">
<time>2016-10-07T14:00:54Z</time></trkpt>
<trkpt lat="29.196777" lon="98.65893">
<time>2016-10-07T14:00:55Z</time></trkpt>
<trkpt lat="29.196967" lon="98.65882">
<time>2016-10-07T14:00:56Z</time></trkpt>
<trkpt lat="29.197117" lon="98.658771">
<time>2016-10-07T14:00:57Z</time></trkpt>
<trkpt lat="29.197207" lon="98.658761">
<time>2016-10-07T14:00:58Z</time></trkpt>
<trkpt lat="29.197326" lon="98.658761">
<time>2016-10-07T14:00:59Z</time></trkpt>
<trkpt lat="29.197486" lon="98.658771">
<time>2016-10-07T14:01:00Z</time></trkpt>
<trkpt lat="29.197656" lon="98.6588">
<time>2016-10-07T14:01:01Z</time></trkpt>
<trkpt lat="29.197746" lon="98.65881">
<time>2016-10-07T14:01:02Z</time></trkpt>
<trkpt lat="29.197836" lon="98.65881">
<time>2016-10-07T14:01:03Z</time></trkpt>
<trkpt lat="29.197916" lon="98.658791">
<time>2016-10-07T14:01:04Z</time></trkpt>
<trkpt lat="29.197996" lon="98.658771">
<time>2016-10-07T14:01:05Z</time></trkpt>
<trkpt lat="29.198106" lon="98.658721">
<time>2016-10-07T14:01:06Z</time></trkpt>
<trkpt lat="29.198266" lon="98.658651">
<time>2016-10-07T14:01:07Z</time></trkpt>
<trkpt lat="29.198356" lon="98.658631">
<time>2016-10-07T14:01:08Z</time></trkpt>
<trkpt lat="29.198426" lon="98.658621">
<time>2016-10-07T14:01:09Z</time></trkpt>
<trkpt lat="29.198486" lon="98.658621">
<time>2016-10-07T14:01:10Z</time></trkpt>
<trkpt lat="29.198526" lon="98.658631">
<time>2016-10-07T14:01:11Z</time></trkpt>
<trkpt lat="29.198556" lon="98.658631">
<time>2016-10-07T14:01:12Z</time></trkpt>
<trkpt lat="29.198596" lon="98.658641">
<time>2016-10-07T14:01:13Z</time></trkpt>
<trkpt lat="29.198646" lon="98.658651">
<time>2016-10-07T14:01:14Z</time></trkpt>
<trkpt lat="29.198736" lon="98.658691">
<time>2016-10-07T14:01:15Z</time></trkpt>
<trkpt lat="29.198815" lon="98.658721">
<time>2016-10-07T14:01:16Z</time></trkpt>
<trkpt lat="29.198875" lon="98.658741">
<time>2016-10-07T14:01:17Z</time></trkpt>
<trkpt lat="29.198925" lon="98.658761">
<time>2016-10-07T14:01:18Z</time></trkpt>
<trkpt lat="29.198995" lon="98.65879">
<time>2016-10-07T14:01:19Z</time></trkpt>
<trkpt lat="29.199075" lon="98.65881">
<time>2016-10-07T14:01:20Z</time></trkpt>
<trkpt lat="29.199115" lon="98.65882">
<time>2016-10-07T14:01:21Z</time></trkpt>
<trkpt lat="29.199155" lon="98.65883">
<time>2016-10-07T14:01:22Z</time></trkpt>
<trkpt lat="29.199195" lon="98.65885">
<time>2016-10-07T14:01:23Z</time></trkpt>
<trkpt lat="29.199285" lon="98.65891">
<time>2016-10-07T14:01:24Z</time></trkpt>
<trkpt lat="29.199355" lon="98.65894">
<time>2016-10-07T14:01:25Z</time></trkpt>
<trkpt lat="29.199415" lon="98.65896">
<time>2016-10-07T14:01:26Z</time></trkpt>
<trkpt lat="29.199484" lon="98.65898">
<time>2016-10-07T14:01:27Z</time></trkpt>
<trkpt lat="29.199584" lon="98.659">
<time>2016-10-07T14:01:28Z</time></trkpt>
<trkpt lat="29.199704" lon="98.65903">
<time>2016-10-07T14:01:29Z</time></trkpt>
<trkpt lat="29.199734" lon="98.65903">
<time>2016-10-07T14:01:30Z</time></trkpt>
<trkpt lat="29.199834" lon="98.65903">
<time>2016-10-07T14:01:31Z</time></trkpt>
<trkpt lat="29.199914" lon="98.65903">
<time>2016-10-07T14:01:32Z</time></trkpt>
<trkpt lat="29.199974" lon="98.65902">
<time>2016-10-07T14:01:33Z</time></trkpt>
<trkpt lat="29.200054" lon="98.65901">
<time>2016-10-07T14:01:34Z</time></trkpt>
<trkpt lat="29.200124" lon="98.659">
<time>2016-10-07T14:01:35Z</time></trkpt>
<trkpt lat="29.200204" lon="98.65898">
<time>2016-10-07T14:01:36Z</time></trkpt>
<trkpt lat="29.200244" lon="98.65896">
<time>2016-10-07T14:01:37Z</time></trkpt>
<trkpt lat="29.200324" lon="98.65892">
<time>2016-10-07T14:01:38Z</time></trkpt>
<trkpt lat="29.200374" lon="98.65889">
<time>2016-10-07T14:01:39Z</time></trkpt>
<trkpt lat="29.200454" lon="98.65885">
<time>2016-10-07T14:01:40Z</time></trkpt>
<trkpt lat="29.200534" lon="98.65878">
<time>2016-10-07T14:01:41Z</time></trkpt>
<trkpt lat="29.200604" lon="98.658721">
<time>2016-10-07T14:01:42Z</time></trkpt>
<trkpt lat="29.200674" lon="98.658661">
<time>2016-10-07T14:01:43Z</time></trkpt>
<trkpt lat="29.200724" lon="98.658631">
<time>2016-10-07T14:01:44Z</time></trkpt>
<trkpt lat="29.200774" lon="98.658601">
<time>2016-10-07T14:01:45Z</time></trkpt>
<trkpt lat="29.200824" lon="98.658581">
<time>2016-10-07T14:01:46Z</time></trkpt>
<trkpt lat="29.200874" lon="98.658551">
<time>2016-10-07T14:01:47Z</time></trkpt>
<trkpt lat="29.200924" lon="98.658541">
<time>2016-10-07T14:01:48Z</time></trkpt>
<trkpt lat="29.200994" lon="98.658531">
<time>2016-10-07T14:01:49Z</time></trkpt>
<trkpt lat="29.201064" lon="98.658531">
<time>2016-10-07T14:01:50Z</time></trkpt>
<trkpt lat="29.201114" lon="98.658541">
<time>2016-10-07T14:01:51Z</time></trkpt>
<trkpt lat="29.201154" lon="98.658561">
<time>2016-10-07T14:01:52Z</time></trkpt>
<trkpt lat="29.201204" lon="98.658581">
<time>2016-10-07T14:01:53Z</time></trkpt>
<trkpt lat="29.201244" lon="98.658601">
<time>2016-10-07T14:01:54Z</time></trkpt>
<trkpt lat="29.201284" lon="98.658631">
<time>2016-10-07T14:01:55Z</time></trkpt>
<trkpt lat="29.201324" lon="98.658671">
<time>2016-10-07T14:01:56Z</time></trkpt>
<trkpt lat="29.201423" lon="98.658751">
<time>2016-10-07T14:01:57Z</time></trkpt>
<trkpt lat="29.201463" lon="98.65879">
<time>2016-10-07T14:01:58Z</time></trkpt>
<trkpt lat="29.201573" lon="98.65889">
<time>2016-10-07T14:01:59Z</time></trkpt>
<trkpt lat="29.201653" lon="98.65896">
<time>2016-10-07T14:02:00Z</time></trkpt>
<trkpt lat="29.201753" lon="98.65906">
<time>2016-10-07T14:02:01Z</time></trkpt>
<trkpt lat="29.201813" lon="98.65911">
<time>2016-10-07T14:02:02Z</time></trkpt>
<trkpt lat="29.201872" lon="98.659159">
<time>2016-10-07T14:02:03Z</time></trkpt>
<trkpt lat="29.201932" lon="98.659219">
<time>2016-10-07T14:02:04Z</time></trkpt>
<trkpt lat="29.202012" lon="98.659289">
<time>2016-10-07T14:02:05Z</time></trkpt>
<trkpt lat="29.202052" lon="98.659329">
<time>2016-10-07T14:02:06Z</time></trkpt>
<trkpt lat="29.202102" lon="98.659369">
<time>2016-10-07T14:02:07Z</time></trkpt>
<trkpt lat="29.202232" lon="98.659489">
<time>2016-10-07T14:02:08Z</time></trkpt>
<trkpt lat="29.202311" lon="98.659568">
<time>2016-10-07T14:02:09Z</time></trkpt>
<trkpt lat="29.202371" lon="98.659628">
<time>2016-10-07T14:02:10Z</time></trkpt>
<trkpt lat="29.202421" lon="98.659678">
<time>2016-10-07T14:02:11Z</time></trkpt>
<trkpt lat="29.202461" lon="98.659738">
<time>2016-10-07T14:02:12Z</time></trkpt>
<trkpt lat="29.202491" lon="98.659808">
<time>2016-10-07T14:02:13Z</time></trkpt>
<trkpt lat="29.202531" lon="98.659877">
<time>2016-10-07T14:02:14Z</time></trkpt>
<trkpt lat="29.20255" lon="98.659947">
<time>2016-10-07T14:02:15Z</time></trkpt>
<trkpt lat="29.20257" lon="98.660027">
<time>2016-10-07T14:02:16Z</time></trkpt>
<trkpt lat="29.20261" lon="98.660197">
<time>2016-10-07T14:02:17Z</time></trkpt>
<trkpt lat="29.20264" lon="98.660296">
<time>2016-10-07T14:02:18Z</time></trkpt>
<trkpt lat="29.202669" lon="98.660396">
<time>2016-10-07T14:02:19Z</time></trkpt>
<trkpt lat="29.202709" lon="98.660476">
<time>2016-10-07T14:02:20Z</time></trkpt>
<trkpt lat="29.202729" lon="98.660516">
<time>2016-10-07T14:02:21Z</time></trkpt>
<trkpt lat="29.202759" lon="98.660566">
<time>2016-10-07T14:02:22Z</time></trkpt>
<trkpt lat="29.202799" lon="98.660605">
<time>2016-10-07T14:02:23Z</time></trkpt>
<trkpt lat="29.202859" lon="98.660655">
<time>2016-10-07T14:02:24Z</time></trkpt>
<trkpt lat="29.202899" lon="98.660695">
<time>2016-10-07T14:02:25Z</time></trkpt>
<trkpt lat="29.202949" lon="98.660725">
<time>2016-10-07T14:02:26Z</time></trkpt>
<trkpt lat="29.203009" lon="98.660755">
<time>2016-10-07T14:02:27Z</time></trkpt>
<trkpt lat="29.203088" lon="98.660775">
<time>2016-10-07T14:02:28Z</time></trkpt>
<trkpt lat="29.203178" lon="98.660785">
<time>2016-10-07T14:02:29Z</time></trkpt>
<trkpt lat="29.203268" lon="98.660795">
<time>2016-10-07T14:02:30Z</time></trkpt>
<trkpt lat="29.203368" lon="98.660805">
<time>2016-10-07T14:02:31Z</time></trkpt>
<trkpt lat="29.203448" lon="98.660815">
<time>2016-10-07T14:02:32Z</time></trkpt>
<trkpt lat="29.203528" lon="98.660835">
<time>2016-10-07T14:02:33Z</time></trkpt>
<trkpt lat="29.203588" lon="98.660855">
<time>2016-10-07T14:02:34Z</time></trkpt>
<trkpt lat="29.203648" lon="98.660895">
<time>2016-10-07T14:02:35Z</time></trkpt>
<trkpt lat="29.203708" lon="98.660935">
<time>2016-10-07T14:02:36Z</time></trkpt>
<trkpt lat="29.203758" lon="98.660984">
<time>2016-10-07T14:02:37Z</time></trkpt>
<trkpt lat="29.203807" lon="98.661054">
<time>2016-10-07T14:02:38Z</time></trkpt>
<trkpt lat="29.203847" lon="98.661114">
<time>2016-10-07T14:02:39Z</time></trkpt>
<trkpt lat="29.203927" lon="98.661254">
<time>2016-10-07T14:02:40Z</time></trkpt>
<trkpt lat="29.203987" lon="98.661373">
<time>2016-10-07T14:02:41Z</time></trkpt>
<trkpt lat="29.204027" lon="98.661433">
<time>2016-10-07T14:02:42Z</time></trkpt>
<trkpt lat="29.204056" lon="98.661483">
<time>2016-10-07T14:02:43Z</time></trkpt>
<trkpt lat="29.204076" lon="98.661523">
<time>2016-10-07T14:02:44Z</time></trkpt>
<trkpt lat="29.204126" lon="98.661613">
<time>2016-10-07T14:02:45Z</time></trkpt>
<trkpt lat="29.204196" lon="98.661722">
<time>2016-10-07T14:02:46Z</time></trkpt>
<trkpt lat="29.204276" lon="98.661882">
<time>2016-10-07T14:02:47Z</time></trkpt>
<trkpt lat="29.204395" lon="98.662091">
<time>2016-10-07T14:02:48Z</time></trkpt>
<trkpt lat="29.204495" lon="98.662281">
<time>2016-10-07T14:02:49Z</time></trkpt>
<trkpt lat="29.204584" lon="98.66244">
<time>2016-10-07T14:02:50Z</time></trkpt>
<trkpt lat="29.204654" lon="98.66257">
<time>2016-10-07T14:02:51Z</time></trkpt>
<trkpt lat="29.204704" lon="98.66266">
<time>2016-10-07T14:02:52Z</time></trkpt>
<trkpt lat="29.204734" lon="98.6627">
<time>2016-10-07T14:02:53Z</time></trkpt>
<trkpt lat="29.204793" lon="98.66277">
<time>2016-10-07T14:02:54Z</time></trkpt>
<trkpt lat="29.204863" lon="98.662849">
<time>2016-10-07T14:02:55Z</time></trkpt>
<trkpt lat="29.204903" lon="98.662889">
<time>2016-10-07T14:02:56Z</time></trkpt>
<trkpt lat="29.204953" lon="98.662929">
<time>2016-10-07T14:02:57Z</time></trkpt>
<trkpt lat="29.205023" lon="98.662969">
<time>2016-10-07T14:02:58Z</time></trkpt>
<trkpt lat="29.205063" lon="98.662989">
<time>2016-10-07T14:02:59Z</time></trkpt>
<trkpt lat="29.205153" lon="98.663029">
<time>2016-10-07T14:03:00Z</time></trkpt>
<trkpt lat="29.205233" lon="98.663049">
<time>2016-10-07T14:03:01Z</time></trkpt>
<trkpt lat="29.205313" lon="98.663069">
<time>2016-10-07T14:03:02Z</time></trkpt>
<trkpt lat="29.205402" lon="98.663079">
<time>2016-10-07T14:03:03Z</time></trkpt>
<trkpt lat="29.205482" lon="98.663079">
<time>2016-10-07T14:03:04Z</time></trkpt>
<trkpt lat="29.205592" lon="98.663059">
<time>2016-10-07T14:03:05Z</time></trkpt>
<trkpt lat="29.205632" lon="98.663039">
<time>2016-10-07T14:03:06Z</time></trkpt>
<trkpt lat="29.205672" lon="98.663029">
<time>2016-10-07T14:03:07Z</time></trkpt>
<trkpt lat="29.205722" lon="98.663009">
<time>2016-10-07T14:03:08Z</time></trkpt>
<trkpt lat="29.205782" lon="98.662979">
<time>2016-10-07T14:03:09Z</time></trkpt>
<trkpt lat="29.205852" lon="98.662939">
<time>2016-10-07T14:03:10Z</time></trkpt>
<trkpt lat="29.205922" lon="98.662879">
<time>2016-10-07T14:03:11Z</time></trkpt>
<trkpt lat="29.206033" lon="98.662779">
<time>2016-10-07T14:03:12Z</time></trkpt>
<trkpt lat="29.206133" lon="98.66268">
<time>2016-10-07T14:03:13Z</time></trkpt>
<trkpt lat="29.206193" lon="98.66261">
<time>2016-10-07T14:03:14Z</time></trkpt>
<trkpt lat="29.206263" lon="98.66251">
<time>2016-10-07T14:03:15Z</time></trkpt>
<trkpt lat="29.206303" lon="98.66244">
<time>2016-10-07T14:03:16Z</time></trkpt>
<trkpt lat="29.206343" lon="98.662321">
<time>2016-10-07T14:03:17Z</time></trkpt>
<trkpt lat="29.206373" lon="98.662191">
<time>2016-10-07T14:03:18Z</time></trkpt>
<trkpt lat="29.206394" lon="98.662071">
<time>2016-10-07T14:03:19Z</time></trkpt>
<trkpt lat="29.206414" lon="98.661982">
<time>2016-10-07T14:03:20Z</time></trkpt>
<trkpt lat="29.206434" lon="98.661912">
<time>2016-10-07T14:03:21Z</time></trkpt>
<trkpt lat="29.206464" lon="98.661872">
<time>2016-10-07T14:03:22Z</time></trkpt>
<trkpt lat="29.206504" lon="98.661822">
<time>2016-10-07T14:03:23Z</time></trkpt>
<trkpt lat="29.206534" lon="98.661802">
<time>2016-10-07T14:03:24Z</time></trkpt>
<trkpt lat="29.206574" lon="98.661782">
<time>2016-10-07T14:03:25Z</time></trkpt>
<trkpt lat="29.206614" lon="98.661772">
<time>2016-10-07T14:03:26Z</time></trkpt>
<trkpt lat="29.206664" lon="98.661762">
<time>2016-10-07T14:03:27Z</time></trkpt>
<trkpt lat="29.206724" lon="98.661782">
<time>2016-10-07T14:03:28Z</time></trkpt>
<trkpt lat="29.206764" lon="98.661792">
<time>2016-10-07T14:03:29Z</time></trkpt>
<trkpt lat="29.206794" lon="98.661812">
<time>2016-10-07T14:03:30Z</time></trkpt>
<trkpt lat="29.206844" lon="98.661852">
<time>2016-10-07T14:03:31Z</time></trkpt>
<trkpt lat="29.206943" lon="98.661952">
<time>2016-10-07T14:03:32Z</time></trkpt>
<trkpt lat="29.207103" lon="98.662121">
<time>2016-10-07T14:03:33Z</time></trkpt>
<trkpt lat="29.207312" lon="98.662331">
<time>2016-10-07T14:03:34Z</time></trkpt>
<trkpt lat="29.207462" lon="98.66248">
<time>2016-10-07T14:03:35Z</time></trkpt>
<trkpt lat="29.207592" lon="98.66262">
<time>2016-10-07T14:03:36Z</time></trkpt>
<trkpt lat="29.207721" lon="98.662779">
<time>2016-10-07T14:03:37Z</time></trkpt>
<trkpt lat="29.207781" lon="98.662869">
<time>2016-10-07T14:03:38Z</time></trkpt>
<trkpt lat="29.207821" lon="98.662949">
<time>2016-10-07T14:03:39Z</time></trkpt>
<trkpt lat="29.207861" lon="98.663029">
<time>2016-10-07T14:03:40Z</time></trkpt>
<trkpt lat="29.207881" lon="98.663118">
<time>2016-10-07T14:03:41Z</time></trkpt>
<trkpt lat="29.2079" lon="98.663188">
<time>2016-10-07T14:03:42Z</time></trkpt>
<trkpt lat="29.20791" lon="98.663258">
<time>2016-10-07T14:03:43Z</time></trkpt>
<trkpt lat="29.20791" lon="98.663308">
<time>2016-10-07T14:03:44Z</time></trkpt>
<trkpt lat="29.20793" lon="98.663418">
<time>2016-10-07T14:03:45Z</time></trkpt>
<trkpt lat="29.20794" lon="98.663507">
<time>2016-10-07T14:03:46Z</time></trkpt>
<trkpt lat="29.20797" lon="98.663607">
<time>2016-10-07T14:03:47Z</time></trkpt>
<trkpt lat="29.207999" lon="98.663717">
<time>2016-10-07T14:03:48Z</time></trkpt>
<trkpt lat="29.208029" lon="98.663797">
<time>2016-10-07T14:03:49Z</time></trkpt>
<trkpt lat="29.208049" lon="98.663856">
<time>2016-10-07T14:03:50Z</time></trkpt>
<trkpt lat="29.208099" lon="98.663926">
<time>2016-10-07T14:03:51Z</time></trkpt>
<trkpt lat="29.208139" lon="98.663996">
<time>2016-10-07T14:03:52Z</time></trkpt>
<trkpt lat="29.208208" lon="98.664106">
<time>2016-10-07T14:03:53Z</time></trkpt>
<trkpt lat="29.208268" lon="98.664196">
<time>2016-10-07T14:03:54Z</time></trkpt>
<trkpt lat="29.208318" lon="98.664295">
<time>2016-10-07T14:03:55Z</time></trkpt>
<trkpt lat="29.208348" lon="98.664365">
<time>2016-10-07T14:03:56Z</time></trkpt>
<trkpt lat="29.208368" lon="98.664425">
<time>2016-10-07T14:03:57Z</time></trkpt>
<trkpt lat="29.208378" lon="98.664485">
<time>2016-10-07T14:03:58Z</time></trkpt>
<trkpt lat="29.208387" lon="98.664545">
<time>2016-10-07T14:03:59Z</time></trkpt>
<trkpt lat="29.208397" lon="98.664614">
<time>2016-10-07T14:04:00Z</time></trkpt>
<trkpt lat="29.208427" lon="98.664923">
<time>2016-10-07T14:04:01Z</time></trkpt>
<trkpt lat="29.208436" lon="98.665073">
<time>2016-10-07T14:04:02Z</time></trkpt>
<trkpt lat="29.208436" lon="98.665223">
<time>2016-10-07T14:04:03Z</time></trkpt>
<trkpt lat="29.208446" lon="98.665472">
<time>2016-10-07T14:04:04Z</time></trkpt>
<trkpt lat="29.208455" lon="98.665641">
<time>2016-10-07T14:04:05Z</time></trkpt>
<trkpt lat="29.208475" lon="98.665781">
<time>2016-10-07T14:04:06Z</time></trkpt>
<trkpt lat="29.208495" lon="98.665881">
<time>2016-10-07T14:04:07Z</time></trkpt>
<trkpt lat="29.208515" lon="98.665961">
<time>2016-10-07T14:04:08Z</time></trkpt>
<trkpt lat="29.208545" lon="98.66604">
<time>2016-10-07T14:04:09Z</time></trkpt>
<trkpt lat="29.208564" lon="98.66609">
<time>2016-10-07T14:04:10Z</time></trkpt>
<trkpt lat="29.208604" lon="98.66618">
<time>2016-10-07T14:04:11Z</time></trkpt>
<trkpt lat="29.208634" lon="98.66623">
<time>2016-10-07T14:04:12Z</time></trkpt>
<trkpt lat="29.208674" lon="98.6663">
<time>2016-10-07T14:04:13Z</time></trkpt>
<trkpt lat="29.208714" lon="98.66635">
<time>2016-10-07T14:04:14Z</time></trkpt>
<trkpt lat="29.208774" lon="98.666409">
<time>2016-10-07T14:04:15Z</time></trkpt>
<trkpt lat="29.208814" lon="98.666449">
<time>2016-10-07T14:04:16Z</time></trkpt>
<trkpt lat="29.208853" lon="98.666489">
<time>2016-10-07T14:04:17Z</time></trkpt>
<trkpt lat="29.208943" lon="98.666549">
<time>2016-10-07T14:04:18Z</time></trkpt>
<trkpt lat="29.208983" lon="98.666569">
<time>2016-10-07T14:04:19Z</time></trkpt>
<trkpt lat="29.209043" lon="98.666609">
<time>2016-10-07T14:04:20Z</time></trkpt>
<trkpt lat="29.209103" lon="98.666629">
<time>2016-10-07T14:04:21Z</time></trkpt>
<trkpt lat="29.209193" lon="98.666659">
<time>2016-10-07T14:04:22Z</time></trkpt>
<trkpt lat="29.209273" lon="98.666679">
<time>2016-10-07T14:04:23Z</time></trkpt>
<trkpt lat="29.209363" lon="98.666699">
<time>2016-10-07T14:04:24Z</time></trkpt>
<trkpt lat="29.209423" lon="98.666699">
<time>2016-10-07T14:04:25Z</time></trkpt>
<trkpt lat="29.209563" lon="98.666699">
<time>2016-10-07T14:04:26Z</time></trkpt>
<trkpt lat="29.209692" lon="98.666689">
<time>2016-10-07T14:04:27Z</time></trkpt>
<trkpt lat="29.209792" lon="98.666679">
<time>2016-10-07T14:04:28Z</time></trkpt>
<trkpt lat="29.209902" lon="98.666689">
<time>2016-10-07T14:04:29Z</time></trkpt>
<trkpt lat="29.210012" lon="98.666708">
<time>2016-10-07T14:04:30Z</time></trkpt>
<trkpt lat="29.210122" lon="98.666738">
<time>2016-10-07T14:04:31Z</time></trkpt>
<trkpt lat="29.210222" lon="98.666778">
<time>2016-10-07T14:04:32Z</time></trkpt>
<trkpt lat="29.210312" lon="98.666818">
<time>2016-10-07T14:04:33Z</time></trkpt>
<trkpt lat="29.210372" lon="98.666858">
<time>2016-10-07T14:04:34Z</time></trkpt>
<trkpt lat="29.210471" lon="98.666928">
<time>2016-10-07T14:04:35Z</time></trkpt>
<trkpt lat="29.210541" lon="98.666988">
<time>2016-10-07T14:04:36Z</time></trkpt>
<trkpt lat="29.210611" lon="98.667058">
<time>2016-10-07T14:04:37Z</time></trkpt>
<trkpt lat="29.210651" lon="98.667097">
<time>2016-10-07T14:04:38Z</time></trkpt>
<trkpt lat="29.210701" lon="98.667157">
<time>2016-10-07T14:04:39Z</time></trkpt>
<trkpt lat="29.210761" lon="98.667237">
<time>2016-10-07T14:04:40Z</time></trkpt>
<trkpt lat="29.21081" lon="98.667307">
<time>2016-10-07T14:04:41Z</time></trkpt>
<trkpt lat="29.21086" lon="98.667377">
<time>2016-10-07T14:04:42Z</time></trkpt>
<trkpt lat="29.21091" lon="98.667446">
<time>2016-10-07T14:04:43Z</time></trkpt>
<trkpt lat="29.21097" lon="98.667516">
<time>2016-10-07T14:04:44Z</time></trkpt>
<trkpt lat="29.21106" lon="98.667586">
<time>2016-10-07T14:04:45Z</time></trkpt>
<trkpt lat="29.21113" lon="98.667646">
<time>2016-10-07T14:04:46Z</time></trkpt>
<trkpt lat="29.211199" lon="98.667696">
<time>2016-10-07T14:04:47Z</time></trkpt>
<trkpt lat="29.211249" lon="98.667716">
<time>2016-10-07T14:04:48Z</time></trkpt>
<trkpt lat="29.211309" lon="98.667726">
<time>2016-10-07T14:04:49Z</time></trkpt>
<trkpt lat="29.211389" lon="98.667746">
<time>2016-10-07T14:04:50Z</time></trkpt>
<trkpt lat="29.211459" lon="98.667756">
<time>2016-10-07T14:04:51Z</time></trkpt>
<trkpt lat="29.211529" lon="98.667756">
<time>2016-10-07T14:04:52Z</time></trkpt>
<trkpt lat="29.211599" lon="98.667746">
<time>2016-10-07T14:04:53Z</time></trkpt>
<trkpt lat="29.211669" lon="98.667716">
<time>2016-10-07T14:04:54Z</time></trkpt>
<trkpt lat="29.211769" lon="98.667666">
<time>2016-10-07T14:04:55Z</time></trkpt>
<trkpt lat="29.211899" lon="98.667586">
<time>2016-10-07T14:04:56Z</time></trkpt>
<trkpt lat="29.212079" lon="98.667456">
<time>2016-10-07T14:04:57Z</time></trkpt>
<trkpt lat="29.212219" lon="98.667347">
<time>2016-10-07T14:04:58Z</time></trkpt>
<trkpt lat="29.212339" lon="98.667257">
<time>2016-10-07T14:04:59Z</time></trkpt>
<trkpt lat="29.2125" lon="98.667137">
<time>2016-10-07T14:05:00Z</time></trkpt>
<trkpt lat="29.21263" lon="98.667038">
<time>2016-10-07T14:05:01Z</time></trkpt>
<trkpt lat="29.21273" lon="98.666978">
<time>2016-10-07T14:05:02Z</time></trkpt>
<trkpt lat="29.21279" lon="98.666928">
<time>2016-10-07T14:05:03Z</time></trkpt>
<trkpt lat="29.21287" lon="98.666898">
<time>2016-10-07T14:05:04Z</time></trkpt>
<trkpt lat="29.21292" lon="98.666878">
<time>2016-10-07T14:05:05Z</time></trkpt>
<trkpt lat="29.21297" lon="98.666858">
<time>2016-10-07T14:05:06Z</time></trkpt>
<trkpt lat="29.21306" lon="98.666858">
<time>2016-10-07T14:05:07Z</time></trkpt>
<trkpt lat="29.2131" lon="98.666858">
<time>2016-10-07T14:05:08Z</time></trkpt>
<trkpt lat="29.21318" lon="98.666878">
<time>2016-10-07T14:05:09Z</time></trkpt>
<trkpt lat="29.213249" lon="98.666908">
<time>2016-10-07T14:05:10Z</time></trkpt>
<trkpt lat="29.213319" lon="98.666948">
<time>2016-10-07T14:05:11Z</time></trkpt>
<trkpt lat="29.213409" lon="98.667018">
<time>2016-10-07T14:05:12Z</time></trkpt>
<trkpt lat="29.213479" lon="98.667057">
<time>2016-10-07T14:05:13Z</time></trkpt>
<trkpt lat="29.213519" lon="98.667077">
<time>2016-10-07T14:05:14Z</time></trkpt>
<trkpt lat="29.213569" lon="98.667097">
<time>2016-10-07T14:05:15Z</time></trkpt>
<trkpt lat="29.213629" lon="98.667107">
<time>2016-10-07T14:05:16Z</time></trkpt>
<trkpt lat="29.213669" lon="98.667107">
<time>2016-10-07T14:05:17Z</time></trkpt>
<trkpt lat="29.213709" lon="98.667097">
<time>2016-10-07T14:05:18Z</time></trkpt>
<trkpt lat="29.213749" lon="98.667077">
<time>2016-10-07T14:05:19Z</time></trkpt>
<trkpt lat="29.213779" lon="98.667047">
<time>2016-10-07T14:05:20Z</time></trkpt>
<trkpt lat="29.213809" lon="98.667008">
<time>2016-10-07T14:05:21Z</time></trkpt>
<trkpt lat="29.213839" lon="98.666968">
<time>2016-10-07T14:05:22Z</time></trkpt>
<trkpt lat="29.213859" lon="98.666918">
<time>2016-10-07T14:05:23Z</time></trkpt>
<trkpt lat="29.213869" lon="98.666858">
<time>2016-10-07T14:05:24Z</time></trkpt>
<trkpt lat="29.213869" lon="98.666798">
<time>2016-10-07T14:05:25Z</time></trkpt>
<trkpt lat="29.21387" lon="98.666609">
<time>2016-10-07T14:05:26Z</time></trkpt>
<trkpt lat="29.21386" lon="98.666399">
<time>2016-10-07T14:05:27Z</time></trkpt>
<trkpt lat="29.21386" lon="98.66619">
<time>2016-10-07T14:05:28Z</time></trkpt>
<trkpt lat="29.213841" lon="98.665781">
<time>2016-10-07T14:05:29Z</time></trkpt>
<trkpt lat="29.213841" lon="98.665661">
<time>2016-10-07T14:05:30Z</time></trkpt>
<trkpt lat="29.213842" lon="98.665312">
<time>2016-10-07T14:05:31Z</time></trkpt>
<trkpt lat="29.213862" lon="98.665193">
<time>2016-10-07T14:05:32Z</time></trkpt>
<trkpt lat="29.213893" lon="98.665053">
<time>2016-10-07T14:05:33Z</time></trkpt>
<trkpt lat="29.213923" lon="98.664953">
<time>2016-10-07T14:05:34Z</time></trkpt>
<trkpt lat="29.214003" lon="98.664694">
<time>2016-10-07T14:05:35Z</time></trkpt>
<trkpt lat="29.214114" lon="98.664385">
<time>2016-10-07T14:05:36Z</time></trkpt>
<trkpt lat="29.214174" lon="98.664215">
<time>2016-10-07T14:05:37Z</time></trkpt>
<trkpt lat="29.214224" lon="98.664116">
<time>2016-10-07T14:05:38Z</time></trkpt>
<trkpt lat="29.214264" lon="98.663976">
<time>2016-10-07T14:05:39Z</time></trkpt>
<trkpt lat="29.214305" lon="98.663826">
<time>2016-10-07T14:05:40Z</time></trkpt>
<trkpt lat="29.214315" lon="98.663707">
<time>2016-10-07T14:05:41Z</time></trkpt>
<trkpt lat="29.214315" lon="98.663577">
<time>2016-10-07T14:05:42Z</time></trkpt>
<trkpt lat="29.214295" lon="98.663368">
<time>2016-10-07T14:05:43Z</time></trkpt>
<trkpt lat="29.214296" lon="98.663248">
<time>2016-10-07T14:05:44Z</time></trkpt>
<trkpt lat="29.214296" lon="98.663158">
<time>2016-10-07T14:05:45Z</time></trkpt>
<trkpt lat="29.214296" lon="98.663069">
<time>2016-10-07T14:05:46Z</time></trkpt>
<trkpt lat="29.214306" lon="98.662999">
<time>2016-10-07T14:05:47Z</time></trkpt>
<trkpt lat="29.214336" lon="98.662909">
<time>2016-10-07T14:05:48Z</time></trkpt>
<trkpt lat="29.214376" lon="98.662799">
<time>2016-10-07T14:05:49Z</time></trkpt>
<trkpt lat="29.214427" lon="98.662729">
<time>2016-10-07T14:05:50Z</time></trkpt>
<trkpt lat="29.214487" lon="98.66265">
<time>2016-10-07T14:05:51Z</time></trkpt>
<trkpt lat="29.214617" lon="98.6625">
<time>2016-10-07T14:05:52Z</time></trkpt>
<trkpt lat="29.214677" lon="98.66244">
<time>2016-10-07T14:05:53Z</time></trkpt>
<trkpt lat="29.214747" lon="98.66237">
<time>2016-10-07T14:05:54Z</time></trkpt>
<trkpt lat="29.214797" lon="98.662311">
<time>2016-10-07T14:05:55Z</time></trkpt>
<trkpt lat="29.214917" lon="98.662191">
<time>2016-10-07T14:05:56Z</time></trkpt>
<trkpt lat="29.215148" lon="98.661942">
<time>2016-10-07T14:05:57Z</time></trkpt>
<trkpt lat="29.215388" lon="98.661672">
<time>2016-10-07T14:05:58Z</time></trkpt>
<trkpt lat="29.215568" lon="98.661503">
<time>2016-10-07T14:05:59Z</time></trkpt>
<trkpt lat="29.215678" lon="98.661443">
<time>2016-10-07T14:06:00Z</time></trkpt>
<trkpt lat="29.215778" lon="98.661403">
<time>2016-10-07T14:06:01Z</time></trkpt>
<trkpt lat="29.215868" lon="98.661393">
<time>2016-10-07T14:06:02Z</time></trkpt>
<trkpt lat="29.215938" lon="98.661403">
<time>2016-10-07T14:06:03Z</time></trkpt>
<trkpt lat="29.216028" lon="98.661413">
<time>2016-10-07T14:06:04Z</time></trkpt>
<trkpt lat="29.216118" lon="98.661433">
<time>2016-10-07T14:06:05Z</time></trkpt>
<trkpt lat="29.216268" lon="98.661473">
<time>2016-10-07T14:06:06Z</time></trkpt>
<trkpt lat="29.216467" lon="98.661523">
<time>2016-10-07T14:06:07Z</time></trkpt>
<trkpt lat="29.216697" lon="98.661573">
<time>2016-10-07T14:06:08Z</time></trkpt>
<trkpt lat="29.216857" lon="98.661612">
<time>2016-10-07T14:06:09Z</time></trkpt>
<trkpt lat="29.216987" lon="98.661662">
<time>2016-10-07T14:06:10Z</time></trkpt>
<trkpt lat="29.217087" lon="98.661692">
<time>2016-10-07T14:06:11Z</time></trkpt>
<trkpt lat="29.217156" lon="98.661722">
<time>2016-10-07T14:06:12Z</time></trkpt>
<trkpt lat="29.217206" lon="98.661752">
<time>2016-10-07T14:06:13Z</time></trkpt>
<trkpt lat="29.217256" lon="98.661782">
<time>2016-10-07T14:06:14Z</time></trkpt>
<trkpt lat="29.217336" lon="98.661832">
<time>2016-10-07T14:06:15Z</time></trkpt>
<trkpt lat="29.217436" lon="98.661902">
<time>2016-10-07T14:06:16Z</time></trkpt>
<trkpt lat="29.217566" lon="98.661981">
<time>2016-10-07T14:06:17Z</time></trkpt>
<trkpt lat="29.217626" lon="98.662021">
<time>2016-10-07T14:06:18Z</time></trkpt>
<trkpt lat="29.217675" lon="98.662041">
<time>2016-10-07T14:06:19Z</time></trkpt>
<trkpt lat="29.217715" lon="98.662071">
<time>2016-10-07T14:06:20Z</time></trkpt>
<trkpt lat="29.217775" lon="98.662101">
<time>2016-10-07T14:06:21Z</time></trkpt>
<trkpt lat="29.217885" lon="98.662161">
<time>2016-10-07T14:06:22Z</time></trkpt>
<trkpt lat="29.217985" lon="98.662201">
<time>2016-10-07T14:06:23Z</time></trkpt>
<trkpt lat="29.218065" lon="98.662251">
<time>2016-10-07T14:06:24Z</time></trkpt>
<trkpt lat="29.218135" lon="98.662301">
<time>2016-10-07T14:06:25Z</time></trkpt>
<trkpt lat="29.218175" lon="98.66234">
<time>2016-10-07T14:06:26Z</time></trkpt>
<trkpt lat="29.218204" lon="98.66237">
<time>2016-10-07T14:06:27Z</time></trkpt>
<trkpt lat="29.218234" lon="98.66241">
<time>2016-10-07T14:06:28Z</time></trkpt>
<trkpt lat="29.218264" lon="98.66245">
<time>2016-10-07T14:06:29Z</time></trkpt>
<trkpt lat="29.218294" lon="98.66252">
<time>2016-10-07T14:06:30Z</time></trkpt>
<trkpt lat="29.218314" lon="98.66258">
<time>2016-10-07T14:06:31Z</time></trkpt>
<trkpt lat="29.218324" lon="98.66264">
<time>2016-10-07T14:06:32Z</time></trkpt>
<trkpt lat="29.218334" lon="98.662709">
<time>2016-10-07T14:06:33Z</time></trkpt>
<trkpt lat="29.218344" lon="98.662799">
<time>2016-10-07T14:06:34Z</time></trkpt>
<trkpt lat="29.218343" lon="98.662899">
<time>2016-10-07T14:06:35Z</time></trkpt>
<trkpt lat="29.218333" lon="98.663039">
<time>2016-10-07T14:06:36Z</time></trkpt>
<trkpt lat="29.218343" lon="98.663138">
<time>2016-10-07T14:06:37Z</time></trkpt>
<trkpt lat="29.218363" lon="98.663278">
<time>2016-10-07T14:06:38Z</time></trkpt>
<trkpt lat="29.218393" lon="98.663348">
<time>2016-10-07T14:06:39Z</time></trkpt>
<trkpt lat="29.218412" lon="98.663417">
<time>2016-10-07T14:06:40Z</time></trkpt>
<trkpt lat="29.218442" lon="98.663467">
<time>2016-10-07T14:06:41Z</time></trkpt>
<trkpt lat="29.218502" lon="98.663557">
<time>2016-10-07T14:06:42Z</time></trkpt>
<trkpt lat="29.218542" lon="98.663607">
<time>2016-10-07T14:06:43Z</time></trkpt>
<trkpt lat="29.218612" lon="98.663667">
<time>2016-10-07T14:06:44Z</time></trkpt>
<trkpt lat="29.218682" lon="98.663717">
<time>2016-10-07T14:06:45Z</time></trkpt>
<trkpt lat="29.218731" lon="98.663767">
<time>2016-10-07T14:06:46Z</time></trkpt>
<trkpt lat="29.218811" lon="98.663806">
<time>2016-10-07T14:06:47Z</time></trkpt>
<trkpt lat="29.218861" lon="98.663846">
<time>2016-10-07T14:06:48Z</time></trkpt>
<trkpt lat="29.218901" lon="98.663886">
<time>2016-10-07T14:06:49Z</time></trkpt>
<trkpt lat="29.218951" lon="98.663926">
<time>2016-10-07T14:06:50Z</time></trkpt>
<trkpt lat="29.219001" lon="98.663976">
<time>2016-10-07T14:06:51Z</time></trkpt>
<trkpt lat="29.219071" lon="98.664086">
<time>2016-10-07T14:06:52Z</time></trkpt>
<trkpt lat="29.21917" lon="98.664235">
<time>2016-10-07T14:06:53Z</time></trkpt>
<trkpt lat="29.21925" lon="98.664365">
<time>2016-10-07T14:06:54Z</time></trkpt>
<trkpt lat="29.21928" lon="98.664415">
<time>2016-10-07T14:06:55Z</time></trkpt>
<trkpt lat="29.2193" lon="98.664455">
<time>2016-10-07T14:06:56Z</time></trkpt>
<trkpt lat="29.21932" lon="98.664504">
<time>2016-10-07T14:06:57Z</time></trkpt>
<trkpt lat="29.219359" lon="98.664564">
<time>2016-10-07T14:06:58Z</time></trkpt>
<trkpt lat="29.219389" lon="98.664624">
<time>2016-10-07T14:06:59Z</time></trkpt>
<trkpt lat="29.219419" lon="98.664674">
<time>2016-10-07T14:07:00Z</time></trkpt>
<trkpt lat="29.219439" lon="98.664724">
<time>2016-10-07T14:07:01Z</time></trkpt>
<trkpt lat="29.219479" lon="98.664804">
<time>2016-10-07T14:07:02Z</time></trkpt>
<trkpt lat="29.219539" lon="98.664913">
<time>2016-10-07T14:07:03Z</time></trkpt>
<trkpt lat="29.219588" lon="98.665013">
<time>2016-10-07T14:07:04Z</time></trkpt>
<trkpt lat="29.219608" lon="98.665073">
<time>2016-10-07T14:07:05Z</time></trkpt>
<trkpt lat="29.219638" lon="98.665123">
<time>2016-10-07T14:07:06Z</time></trkpt>
<trkpt lat="29.219718" lon="98.665262">
<time>2016-10-07T14:07:07Z</time></trkpt>
<trkpt lat="29.219798" lon="98.665432">
<time>2016-10-07T14:07:08Z</time></trkpt>
<trkpt lat="29.219877" lon="98.665581">
<time>2016-10-07T14:07:09Z</time></trkpt>
<trkpt lat="29.219917" lon="98.665651">
<time>2016-10-07T14:07:10Z</time></trkpt>
<trkpt lat="29.219957" lon="98.665731">
<time>2016-10-07T14:07:11Z</time></trkpt>
<trkpt lat="29.219987" lon="98.665791">
<time>2016-10-07T14:07:12Z</time></trkpt>
<trkpt lat="29.220017" lon="98.665831">
<time>2016-10-07T14:07:13Z</time></trkpt>
<trkpt lat="29.220067" lon="98.665871">
<time>2016-10-07T14:07:14Z</time></trkpt>
<trkpt lat="29.220106" lon="98.665891">
<time>2016-10-07T14:07:15Z</time></trkpt>
<trkpt lat="29.220156" lon="98.665911">
<time>2016-10-07T14:07:16Z</time></trkpt>
<trkpt lat="29.220216" lon="98.665901">
<time>2016-10-07T14:07:17Z</time></trkpt>
<trkpt lat="29.220266" lon="98.665891">
<time>2016-10-07T14:07:18Z</time></trkpt>
<trkpt lat="29.220316" lon="98.665861">
<time>2016-10-07T14:07:19Z</time></trkpt>
<trkpt lat="29.220356" lon="98.665831">
<time>2016-10-07T14:07:20Z</time></trkpt>
<trkpt lat="29.220416" lon="98.665781">
<time>2016-10-07T14:07:21Z</time></trkpt>
<trkpt lat="29.220487" lon="98.665701">
<time>2016-10-07T14:07:22Z</time></trkpt>
<trkpt lat="29.220587" lon="98.665562">
<time>2016-10-07T14:07:23Z</time></trkpt>
<trkpt lat="29.220707" lon="98.665412">
<time>2016-10-07T14:07:24Z</time></trkpt>
<trkpt lat="29.220797" lon="98.665312">
<time>2016-10-07T14:07:25Z</time></trkpt>
<trkpt lat="29.220857" lon="98.665242">
<time>2016-10-07T14:07:26Z</time></trkpt>
<trkpt lat="29.220917" lon="98.665183">
<time>2016-10-07T14:07:27Z</time></trkpt>
<trkpt lat="29.220967" lon="98.665143">
<time>2016-10-07T14:07:28Z</time></trkpt>
<trkpt lat="29.221017" lon="98.665113">
<time>2016-10-07T14:07:29Z</time></trkpt>
<trkpt lat="29.221087" lon="98.665083">
<time>2016-10-07T14:07:30Z</time></trkpt>
<trkpt lat="29.221187" lon="98.665073">
<time>2016-10-07T14:07:31Z</time></trkpt>
<trkpt lat="29.221227" lon="98.665073">
<time>2016-10-07T14:07:32Z</time></trkpt>
<trkpt lat="29.221277" lon="98.665093">
<time>2016-10-07T14:07:33Z</time></trkpt>
<trkpt lat="29.221317" lon="98.665113">
<time>2016-10-07T14:07:34Z</time></trkpt>
<trkpt lat="29.221367" lon="98.665173">
<time>2016-10-07T14:07:35Z</time></trkpt>
<trkpt lat="29.221447" lon="98.665282">
<time>2016-10-07T14:07:36Z</time></trkpt>
<trkpt lat="29.221496" lon="98.665362">
<time>2016-10-07T14:07:37Z</time></trkpt>
<trkpt lat="29.221556" lon="98.665452">
<time>2016-10-07T14:07:38Z</time></trkpt>
<trkpt lat="29.221606" lon="98.665512">
<time>2016-10-07T14:07:39Z</time></trkpt>
<trkpt lat="29.221656" lon="98.665571">
<time>2016-10-07T14:07:40Z</time></trkpt>
<trkpt lat="29.221726" lon="98.665621">
<time>2016-10-07T14:07:41Z</time></trkpt>
<trkpt lat="29.221786" lon="98.665641">
<time>2016-10-07T14:07:42Z</time></trkpt>
<trkpt lat="29.221836" lon="98.665661">
<time>2016-10-07T14:07:43Z</time></trkpt>
<trkpt lat="29.221886" lon="98.665671">
<time>2016-10-07T14:07:44Z</time></trkpt>
<trkpt lat="29.221936" lon="98.665671">
<time>2016-10-07T14:07:45Z</time></trkpt>
<trkpt lat="29.221985" lon="98.665671">
<time>2016-10-07T14:07:46Z</time></trkpt>
<trkpt lat="29.222035" lon="98.665671">
<time>2016-10-07T14:07:47Z</time></trkpt>
<trkpt lat="29.222085" lon="98.665651">
<time>2016-10-07T14:07:48Z</time></trkpt>
<trkpt lat="29.222135" lon="98.665631">
<time>2016-10-07T14:07:49Z</time></trkpt>
<trkpt lat="29.222205" lon="98.665591">
<time>2016-10-07T14:07:50Z</time></trkpt>
<trkpt lat="29.222306" lon="98.665532">
<time>2016-10-07T14:07:51Z</time></trkpt>
<trkpt lat="29.222396" lon="98.665482">
<time>2016-10-07T14:07:52Z</time></trkpt>
<trkpt lat="29.222476" lon="98.665452">
<time>2016-10-07T14:07:53Z</time></trkpt>
<trkpt lat="29.222536" lon="98.665442">
<time>2016-10-07T14:07:54Z</time></trkpt>
<trkpt lat="29.222566" lon="98.665452">
<time>2016-10-07T14:07:55Z</time></trkpt>
<trkpt lat="29.222625" lon="98.665462">
<time>2016-10-07T14:07:56Z</time></trkpt>
<trkpt lat="29.222705" lon="98.665492">
<time>2016-10-07T14:07:57Z</time></trkpt>
<trkpt lat="29.222755" lon="98.665542">
<time>2016-10-07T14:07:58Z</time></trkpt>
<trkpt lat="29.222785" lon="98.665571">
<time>2016-10-07T14:07:59Z</time></trkpt>
<trkpt lat="29.222815" lon="98.665631">
<time>2016-10-07T14:08:00Z</time></trkpt>
<trkpt lat="29.222835" lon="98.665681">
<time>2016-10-07T14:08:01Z</time></trkpt>
<trkpt lat="29.222855" lon="98.665751">
<time>2016-10-07T14:08:02Z</time></trkpt>
<trkpt lat="29.222864" lon="98.665891">
<time>2016-10-07T14:08:03Z</time></trkpt>
<trkpt lat="29.222864" lon="98.66603">
<time>2016-10-07T14:08:04Z</time></trkpt>
<trkpt lat="29.222854" lon="98.66623">
<time>2016-10-07T14:08:05Z</time></trkpt>
<trkpt lat="29.222844" lon="98.666359">
<time>2016-10-07T14:08:06Z</time></trkpt>
<trkpt lat="29.222833" lon="98.666579">
<time>2016-10-07T14:08:07Z</time></trkpt>
<trkpt lat="29.222823" lon="98.666668">
<time>2016-10-07T14:08:08Z</time></trkpt>
<trkpt lat="29.222823" lon="98.666758">
<time>2016-10-07T14:08:09Z</time></trkpt>
<trkpt lat="29.222813" lon="98.666848">
<time>2016-10-07T14:08:10Z</time></trkpt>
<trkpt lat="29.222813" lon="98.666918">
<time>2016-10-07T14:08:11Z</time></trkpt>
<trkpt lat="29.222812" lon="98.666978">
<time>2016-10-07T14:08:12Z</time></trkpt>
<trkpt lat="29.222812" lon="98.667027">
<time>2016-10-07T14:08:13Z</time></trkpt>
<trkpt lat="29.222822" lon="98.667097">
<time>2016-10-07T14:08:14Z</time></trkpt>
<trkpt lat="29.222832" lon="98.667137">
<time>2016-10-07T14:08:15Z</time></trkpt>
<trkpt lat="29.222852" lon="98.667207">
<time>2016-10-07T14:08:16Z</time></trkpt>
<trkpt lat="29.222872" lon="98.667267">
<time>2016-10-07T14:08:17Z</time></trkpt>
<trkpt lat="29.222912" lon="98.667346">
<time>2016-10-07T14:08:18Z</time></trkpt>
<trkpt lat="29.222961" lon="98.667426">
<time>2016-10-07T14:08:19Z</time></trkpt>
<trkpt lat="29.223061" lon="98.667546">
<time>2016-10-07T14:08:20Z</time></trkpt>
<trkpt lat="29.223141" lon="98.667636">
<time>2016-10-07T14:08:21Z</time></trkpt>
<trkpt lat="29.223271" lon="98.667765">
<time>2016-10-07T14:08:22Z</time></trkpt>
<trkpt lat="29.22335" lon="98.667835">
<time>2016-10-07T14:08:23Z</time></trkpt>
<trkpt lat="29.22352" lon="98.668005">
<time>2016-10-07T14:08:24Z</time></trkpt>
<trkpt lat="29.22363" lon="98.668114">
<time>2016-10-07T14:08:25Z</time></trkpt>
<trkpt lat="29.223739" lon="98.668244">
<time>2016-10-07T14:08:26Z</time></trkpt>
<trkpt lat="29.223799" lon="98.668314">
<time>2016-10-07T14:08:27Z</time></trkpt>
<trkpt lat="29.223849" lon="98.668374">
<time>2016-10-07T14:08:28Z</time></trkpt>
<trkpt lat="29.223889" lon="98.668443">
<time>2016-10-07T14:08:29Z</time></trkpt>
<trkpt lat="29.223929" lon="98.668523">
<time>2016-10-07T14:08:30Z</time></trkpt>
<trkpt lat="29.223958" lon="98.668603">
<time>2016-10-07T14:08:31Z</time></trkpt>
<trkpt lat="29.224008" lon="98.668753">
<time>2016-10-07T14:08:32Z</time></trkpt>
<trkpt lat="29.224028" lon="98.668842">
<time>2016-10-07T14:08:33Z</time></trkpt>
<trkpt lat="29.224038" lon="98.668902">
<time>2016-10-07T14:08:34Z</time></trkpt>
<trkpt lat="29.224038" lon="98.668962">
<time>2016-10-07T14:08:35Z</time></trkpt>
<trkpt lat="29.224048" lon="98.669042">
<time>2016-10-07T14:08:36Z</time></trkpt>
<trkpt lat="29.224037" lon="98.669122">
<time>2016-10-07T14:08:37Z</time></trkpt>
<trkpt lat="29.224027" lon="98.669211">
<time>2016-10-07T14:08:38Z</time></trkpt>
<trkpt lat="29.224007" lon="98.669321">
<time>2016-10-07T14:08:39Z</time></trkpt>
<trkpt lat="29.223977" lon="98.669441">
<time>2016-10-07T14:08:40Z</time></trkpt>
<trkpt lat="29.223907" lon="98.66961">
<time>2016-10-07T14:08:41Z</time></trkpt>
<trkpt lat="29.223866" lon="98.66973">
<time>2016-10-07T14:08:42Z</time></trkpt>
<trkpt lat="29.223856" lon="98.66979">
<time>2016-10-07T14:08:43Z</time></trkpt>
<trkpt lat="29.223846" lon="98.66984">
<time>2016-10-07T14:08:44Z</time></trkpt>
<trkpt lat="29.223846" lon="98.669899">
<time>2016-10-07T14:08:45Z</time></trkpt>
<trkpt lat="29.223846" lon="98.669949">
<time>2016-10-07T14:08:46Z</time></trkpt>
<trkpt lat="29.223856" lon="98.670019">
<time>2016-10-07T14:08:47Z</time></trkpt>
<trkpt lat="29.223876" lon="98.670079">
<time>2016-10-07T14:08:48Z</time></trkpt>
<trkpt lat="29.223896" lon="98.670139">
<time>2016-10-07T14:08:49Z</time></trkpt>
<trkpt lat="29.223925" lon="98.670169">
<time>2016-10-07T14:08:50Z</time></trkpt>
<trkpt lat="29.223965" lon="98.670228">
<time>2016-10-07T14:08:51Z</time></trkpt>
<trkpt lat="29.224015" lon="98.670278">
<time>2016-10-07T14:08:52Z</time></trkpt>
<trkpt lat="29.224095" lon="98.670328">
<time>2016-10-07T14:08:53Z</time></trkpt>
<trkpt lat="29.224155" lon="98.670368">
<time>2016-10-07T14:08:54Z</time></trkpt>
<trkpt lat="29.224215" lon="98.670398">
<time>2016-10-07T14:08:55Z</time></trkpt>
<trkpt lat="29.224295" lon="98.670428">
<time>2016-10-07T14:08:56Z</time></trkpt>
<trkpt lat="29.224395" lon="98.670488">
<time>2016-10-07T14:08:57Z</time></trkpt>
<trkpt lat="29.224434" lon="98.670518">
<time>2016-10-07T14:08:58Z</time></trkpt>
<trkpt lat="29.224464" lon="98.670538">
<time>2016-10-07T14:08:59Z</time></trkpt>
<trkpt lat="29.224484" lon="98.670557">
<time>2016-10-07T14:09:00Z</time></trkpt>
<trkpt lat="29.224514" lon="98.670587">
<time>2016-10-07T14:09:01Z</time></trkpt>
<trkpt lat="29.224534" lon="98.670617">
<time>2016-10-07T14:09:02Z</time></trkpt>
<trkpt lat="29.224584" lon="98.670687">
<time>2016-10-07T14:09:03Z</time></trkpt>
<trkpt lat="29.224634" lon="98.670777">
<time>2016-10-07T14:09:04Z</time></trkpt>
<trkpt lat="29.224674" lon="98.670877">
<time>2016-10-07T14:09:05Z</time></trkpt>
<trkpt lat="29.224703" lon="98.671006">
<time>2016-10-07T14:09:06Z</time></trkpt>
<trkpt lat="29.224743" lon="98.671106">
<time>2016-10-07T14:09:07Z</time></trkpt>
<trkpt lat="29.224773" lon="98.671166">
<time>2016-10-07T14:09:08Z</time></trkpt>
<trkpt lat="29.224813" lon="98.671246">
<time>2016-10-07T14:09:09Z</time></trkpt>
<trkpt lat="29.224853" lon="98.671305">
<time>2016-10-07T14:09:10Z</time></trkpt>
<trkpt lat="29.224903" lon="98.671365">
<time>2016-10-07T14:09:11Z</time></trkpt>
<trkpt lat="29.224952" lon="98.671405">
<time>2016-10-07T14:09:12Z</time></trkpt>
<trkpt lat="29.225112" lon="98.671505">
<time>2016-10-07T14:09:13Z</time></trkpt>
<trkpt lat="29.225282" lon="98.671615">
<time>2016-10-07T14:09:14Z</time></trkpt>
<trkpt lat="29.225402" lon="98.671674">
<time>2016-10-07T14:09:15Z</time></trkpt>
<trkpt lat="29.225481" lon="98.671724">
<time>2016-10-07T14:09:16Z</time></trkpt>
<trkpt lat="29.225571" lon="98.671794">
<time>2016-10-07T14:09:17Z</time></trkpt>
<trkpt lat="29.225671" lon="98.671854">
<time>2016-10-07T14:09:18Z</time></trkpt>
<trkpt lat="29.225681" lon="98.671864">
<time>2016-10-07T14:09:19Z</time></trkpt>
<trkpt lat="29.225761" lon="98.671924">
<time>2016-10-07T14:09:20Z</time></trkpt>
<trkpt lat="29.225811" lon="98.671983">
<time>2016-10-07T14:09:21Z</time></trkpt>
<trkpt lat="29.225851" lon="98.672053">
<time>2016-10-07T14:09:22Z</time></trkpt>
<trkpt lat="29.22589" lon="98.672133">
<time>2016-10-07T14:09:23Z</time></trkpt>
<trkpt lat="29.22592" lon="98.672213">
<time>2016-10-07T14:09:24Z</time></trkpt>
<trkpt lat="29.22593" lon="98.672303">
<time>2016-10-07T14:09:25Z</time></trkpt>
<trkpt lat="29.22593" lon="98.672392">
<time>2016-10-07T14:09:26Z</time></trkpt>
<trkpt lat="29.22592" lon="98.672512">
<time>2016-10-07T14:09:27Z</time></trkpt>
<trkpt lat="29.225889" lon="98.672662">
<time>2016-10-07T14:09:28Z</time></trkpt>
<trkpt lat="29.225829" lon="98.672881">
<time>2016-10-07T14:09:29Z</time></trkpt>
<trkpt lat="29.225779" lon="98.67307">
<time>2016-10-07T14:09:30Z</time></trkpt>
<trkpt lat="29.225718" lon="98.67334">
<time>2016-10-07T14:09:31Z</time></trkpt>
<trkpt lat="29.225688" lon="98.673499">
<time>2016-10-07T14:09:32Z</time></trkpt>
<trkpt lat="29.225667" lon="98.673709">
<time>2016-10-07T14:09:33Z</time></trkpt>
<trkpt lat="29.225647" lon="98.673888">
<time>2016-10-07T14:09:34Z</time></trkpt>
<trkpt lat="29.225647" lon="98.673998">
<time>2016-10-07T14:09:35Z</time></trkpt>
<trkpt lat="29.225657" lon="98.674187">
<time>2016-10-07T14:09:36Z</time></trkpt>
<trkpt lat="29.225656" lon="98.674357">
<time>2016-10-07T14:09:37Z</time></trkpt>
<trkpt lat="29.225636" lon="98.674466">
<time>2016-10-07T14:09:38Z</time></trkpt>
<trkpt lat="29.225606" lon="98.674666">
<time>2016-10-07T14:09:39Z</time></trkpt>
<trkpt lat="29.225545" lon="98.674905">
<time>2016-10-07T14:09:40Z</time></trkpt>
<trkpt lat="29.225465" lon="98.675184">
<time>2016-10-07T14:09:41Z</time></trkpt>
<trkpt lat="29.225344" lon="98.675573">
<time>2016-10-07T14:09:42Z</time></trkpt>
<trkpt lat="29.225304" lon="98.675703">
<time>2016-10-07T14:09:43Z</time></trkpt>
<trkpt lat="29.225183" lon="98.676182">
<time>2016-10-07T14:09:44Z</time></trkpt>
<trkpt lat="29.225103" lon="98.676471">
<time>2016-10-07T14:09:45Z</time></trkpt>
<trkpt lat="29.225072" lon="98.676601">
<time>2016-10-07T14:09:46Z</time></trkpt>
<trkpt lat="29.225052" lon="98.6767">
<time>2016-10-07T14:09:47Z</time></trkpt>
<trkpt lat="29.225032" lon="98.6768">
<time>2016-10-07T14:09:48Z</time></trkpt>
<trkpt lat="29.225032" lon="98.67691">
<time>2016-10-07T14:09:49Z</time></trkpt>
<trkpt lat="29.225032" lon="98.677059">
<time>2016-10-07T14:09:50Z</time></trkpt>
<trkpt lat="29.225031" lon="98.677239">
<time>2016-10-07T14:09:51Z</time></trkpt>
<trkpt lat="29.225021" lon="98.677358">
<time>2016-10-07T14:09:52Z</time></trkpt>
<trkpt lat="29.22503" lon="98.677658">
<time>2016-10-07T14:09:53Z</time></trkpt>
<trkpt lat="29.22504" lon="98.677927">
<time>2016-10-07T14:09:54Z</time></trkpt>
<trkpt lat="29.225049" lon="98.678136">
<time>2016-10-07T14:09:55Z</time></trkpt>
<trkpt lat="29.225039" lon="98.678316">
<time>2016-10-07T14:09:56Z</time></trkpt>
<trkpt lat="29.225039" lon="98.678445">
<time>2016-10-07T14:09:57Z</time></trkpt>
<trkpt lat="29.225039" lon="98.678565">
<time>2016-10-07T14:09:58Z</time></trkpt>
<trkpt lat="29.225048" lon="98.678675">
<time>2016-10-07T14:09:59Z</time></trkpt>
<trkpt lat="29.225058" lon="98.678774">
<time>2016-10-07T14:10:00Z</time></trkpt>
<trkpt lat="29.225068" lon="98.678854">
<time>2016-10-07T14:10:01Z</time></trkpt>
<trkpt lat="29.225088" lon="98.678954">
<time>2016-10-07T14:10:02Z</time></trkpt>
<trkpt lat="29.225128" lon="98.679064">
<time>2016-10-07T14:10:03Z</time></trkpt>
<trkpt lat="29.225177" lon="98.679133">
<time>2016-10-07T14:10:04Z</time></trkpt>
<trkpt lat="29.225227" lon="98.679203">
<time>2016-10-07T14:10:05Z</time></trkpt>
<trkpt lat="29.225317" lon="98.679293">
<time>2016-10-07T14:10:06Z</time></trkpt>
<trkpt lat="29.225357" lon="98.679333">
<time>2016-10-07T14:10:07Z</time></trkpt>
<trkpt lat="29.225457" lon="98.679413">
<time>2016-10-07T14:10:08Z</time></trkpt>
<trkpt lat="29.225557" lon="98.679482">
<time>2016-10-07T14:10:09Z</time></trkpt>
<trkpt lat="29.225696" lon="98.679602">
<time>2016-10-07T14:10:10Z</time></trkpt>
<trkpt lat="29.225716" lon="98.679642">
<time>2016-10-07T14:10:11Z</time></trkpt>
<trkpt lat="29.225746" lon="98.679702">
<time>2016-10-07T14:10:12Z</time></trkpt>
<trkpt lat="29.225766" lon="98.679772">
<time>2016-10-07T14:10:13Z</time></trkpt>
<trkpt lat="29.225796" lon="98.679851">
<time>2016-10-07T14:10:14Z</time></trkpt>
<trkpt lat="29.225805" lon="98.679961">
<time>2016-10-07T14:10:15Z</time></trkpt>
<trkpt lat="29.225815" lon="98.68019">
<time>2016-10-07T14:10:16Z</time></trkpt>
<trkpt lat="29.225805" lon="98.68036">
<time>2016-10-07T14:10:17Z</time></trkpt>
<trkpt lat="29.225794" lon="98.680619">
<time>2016-10-07T14:10:18Z</time></trkpt>
<trkpt lat="29.225784" lon="98.680938">
<time>2016-10-07T14:10:19Z</time></trkpt>
<trkpt lat="29.225773" lon="98.681218">
<time>2016-10-07T14:10:20Z</time></trkpt>
<trkpt lat="29.225773" lon="98.681447">
<time>2016-10-07T14:10:21Z</time></trkpt>
<trkpt lat="29.225762" lon="98.681627">
<time>2016-10-07T14:10:22Z</time></trkpt>
<trkpt lat="29.225772" lon="98.681756">
<time>2016-10-07T14:10:23Z</time></trkpt>
<trkpt lat="29.225772" lon="98.681856">
<time>2016-10-07T14:10:24Z</time></trkpt>
<trkpt lat="29.225782" lon="98.681936">
<time>2016-10-07T14:10:25Z</time></trkpt>
<trkpt lat="29.225792" lon="98.682045">
<time>2016-10-07T14:10:26Z</time></trkpt>
<trkpt lat="29.225821" lon="98.682135">
<time>2016-10-07T14:10:27Z</time></trkpt>
<trkpt lat="29.225851" lon="98.682225">
<time>2016-10-07T14:10:28Z</time></trkpt>
<trkpt lat="29.225901" lon="98.682335">
<time>2016-10-07T14:10:29Z</time></trkpt>
<trkpt lat="29.225971" lon="98.682454">
<time>2016-10-07T14:10:30Z</time></trkpt>
<trkpt lat="29.22611" lon="98.682644">
<time>2016-10-07T14:10:31Z</time></trkpt>
<trkpt lat="29.22623" lon="98.682753">
<time>2016-10-07T14:10:32Z</time></trkpt>
<trkpt lat="29.22635" lon="98.682823">
<time>2016-10-07T14:10:33Z</time></trkpt>
<trkpt lat="29.226469" lon="98.682883">
<time>2016-10-07T14:10:34Z</time></trkpt>
<trkpt lat="29.226629" lon="98.682953">
<time>2016-10-07T14:10:35Z</time></trkpt>
<trkpt lat="29.226709" lon="98.682983">
<time>2016-10-07T14:10:36Z</time></trkpt>
<trkpt lat="29.226749" lon="98.683003">
<time>2016-10-07T14:10:37Z</time></trkpt>
<trkpt lat="29.226809" lon="98.683033">
<time>2016-10-07T14:10:38Z</time></trkpt>
<trkpt lat="29.226849" lon="98.683072">
<time>2016-10-07T14:10:39Z</time></trkpt>
<trkpt lat="29.226889" lon="98.683112">
<time>2016-10-07T14:10:40Z</time></trkpt>
<trkpt lat="29.226909" lon="98.683162">
<time>2016-10-07T14:10:41Z</time></trkpt>
<trkpt lat="29.226939" lon="98.683212">
<time>2016-10-07T14:10:42Z</time></trkpt>
<trkpt lat="29.226948" lon="98.683272">
<time>2016-10-07T14:10:43Z</time></trkpt>
<trkpt lat="29.226958" lon="98.683322">
<time>2016-10-07T14:10:44Z</time></trkpt>
<trkpt lat="29.226958" lon="98.683392">
<time>2016-10-07T14:10:45Z</time></trkpt>
<trkpt lat="29.226878" lon="98.683631">
<time>2016-10-07T14:10:46Z</time></trkpt>
<trkpt lat="29.226838" lon="98.683751">
<time>2016-10-07T14:10:47Z</time></trkpt>
<trkpt lat="29.226767" lon="98.6839">
<time>2016-10-07T14:10:48Z</time></trkpt>
<trkpt lat="29.226747" lon="98.68396">
<time>2016-10-07T14:10:49Z</time></trkpt>
<trkpt lat="29.226717" lon="98.68406">
<time>2016-10-07T14:10:50Z</time></trkpt>
<trkpt lat="29.226647" lon="98.684199">
<time>2016-10-07T14:10:51Z</time></trkpt>
<trkpt lat="29.226607" lon="98.684279">
<time>2016-10-07T14:10:52Z</time></trkpt>
<trkpt lat="29.226557" lon="98.684439">
<time>2016-10-07T14:10:53Z</time></trkpt>
<trkpt lat="29.226546" lon="98.684528">
<time>2016-10-07T14:10:54Z</time></trkpt>
<trkpt lat="29.226546" lon="98.684668">
<time>2016-10-07T14:10:55Z</time></trkpt>
<trkpt lat="29.226566" lon="98.684818">
<time>2016-10-07T14:10:56Z</time></trkpt>
<trkpt lat="29.226606" lon="98.684927">
<time>2016-10-07T14:10:57Z</time></trkpt>
<trkpt lat="29.226675" lon="98.685047">
<time>2016-10-07T14:10:58Z</time></trkpt>
<trkpt lat="29.226815" lon="98.685207">
<time>2016-10-07T14:10:59Z</time></trkpt>
<trkpt lat="29.226925" lon="98.685316">
<time>2016-10-07T14:11:00Z</time></trkpt>
<trkpt lat="29.227104" lon="98.685466">
<time>2016-10-07T14:11:01Z</time></trkpt>
<trkpt lat="29.227334" lon="98.685665">
<time>2016-10-07T14:11:02Z</time></trkpt>
<trkpt lat="29.227443" lon="98.685775">
<time>2016-10-07T14:11:03Z</time></trkpt>
<trkpt lat="29.227493" lon="98.685855">
<time>2016-10-07T14:11:04Z</time></trkpt>
<trkpt lat="29.227513" lon="98.685925">
<time>2016-10-07T14:11:05Z</time></trkpt>
<trkpt lat="29.227523" lon="98.686004">
<time>2016-10-07T14:11:06Z</time></trkpt>
<trkpt lat="29.227523" lon="98.686074">
<time>2016-10-07T14:11:07Z</time></trkpt>
<trkpt lat="29.227513" lon="98.686154">
<time>2016-10-07T14:11:08Z</time></trkpt>
<trkpt lat="29.227493" lon="98.686244">
<time>2016-10-07T14:11:09Z</time></trkpt>
<trkpt lat="29.227432" lon="98.686403">
<time>2016-10-07T14:11:10Z</time></trkpt>
<trkpt lat="29.227372" lon="98.686563">
<time>2016-10-07T14:11:11Z</time></trkpt>
<trkpt lat="29.227322" lon="98.686683">
<time>2016-10-07T14:11:12Z</time></trkpt>
<trkpt lat="29.227262" lon="98.686822">
<time>2016-10-07T14:11:13Z</time></trkpt>
<trkpt lat="29.227181" lon="98.687042">
<time>2016-10-07T14:11:14Z</time></trkpt>
<trkpt lat="29.227121" lon="98.687201">
<time>2016-10-07T14:11:15Z</time></trkpt>
<trkpt lat="29.227101" lon="98.687291">
<time>2016-10-07T14:11:16Z</time></trkpt>
<trkpt lat="29.227081" lon="98.687371">
<time>2016-10-07T14:11:17Z</time></trkpt>
<trkpt lat="29.227081" lon="98.687451">
<time>2016-10-07T14:11:18Z</time></trkpt>
<trkpt lat="29.22709" lon="98.68751">
<time>2016-10-07T14:11:19Z</time></trkpt>
<trkpt lat="29.2271" lon="98.68757">
<time>2016-10-07T14:11:20Z</time></trkpt>
<trkpt lat="29.22712" lon="98.68763">
<time>2016-10-07T14:11:21Z</time></trkpt>
<trkpt lat="29.22716" lon="98.68769">
<time>2016-10-07T14:11:22Z</time></trkpt>
<trkpt lat="29.2272" lon="98.68775">
<time>2016-10-07T14:11:23Z</time></trkpt>
<trkpt lat="29.22729" lon="98.687829">
<time>2016-10-07T14:11:24Z</time></trkpt>
<trkpt lat="29.22741" lon="98.687909">
<time>2016-10-07T14:11:25Z</time></trkpt>
<trkpt lat="29.227529" lon="98.687999">
<time>2016-10-07T14:11:26Z</time></trkpt>
<trkpt lat="29.227639" lon="98.688069">
<time>2016-10-07T14:11:27Z</time></trkpt>
<trkpt lat="29.227749" lon="98.688159">
<time>2016-10-07T14:11:28Z</time></trkpt>
<trkpt lat="29.227829" lon="98.688218">
<time>2016-10-07T14:11:29Z</time></trkpt>
<trkpt lat="29.227938" lon="98.688288">
<time>2016-10-07T14:11:30Z</time></trkpt>
<trkpt lat="29.228058" lon="98.688368">
<time>2016-10-07T14:11:31Z</time></trkpt>
<trkpt lat="29.228138" lon="98.688398">
<time>2016-10-07T14:11:32Z</time></trkpt>
<trkpt lat="29.228198" lon="98.688418">
<time>2016-10-07T14:11:33Z</time></trkpt>
<trkpt lat="29.228268" lon="98.688428">
<time>2016-10-07T14:11:34Z</time></trkpt>
<trkpt lat="29.228328" lon="98.688428">
<time>2016-10-07T14:11:35Z</time></trkpt>
<trkpt lat="29.228378" lon="98.688408">
<time>2016-10-07T14:11:36Z</time></trkpt>
<trkpt lat="29.228448" lon="98.688378">
<time>2016-10-07T14:11:37Z</time></trkpt>
<trkpt lat="29.228508" lon="98.688338">
<time>2016-10-07T14:11:38Z</time></trkpt>
<trkpt lat="29.228548" lon="98.688298">
<time>2016-10-07T14:11:39Z</time></trkpt>
<trkpt lat="29.228608" lon="98.688228">
<time>2016-10-07T14:11:40Z</time></trkpt>
<trkpt lat="29.228638" lon="98.688188">
<time>2016-10-07T14:11:41Z</time></trkpt>
<trkpt lat="29.228658" lon="98.688129">
<time>2016-10-07T14:11:42Z</time></trkpt>
<trkpt lat="29.228718" lon="98.688029">
<time>2016-10-07T14:11:43Z</time></trkpt>
<trkpt lat="29.228778" lon="98.687939">
<time>2016-10-07T14:11:44Z</time></trkpt>
<trkpt lat="29.228839" lon="98.687869">
<time>2016-10-07T14:11:45Z</time></trkpt>
<trkpt lat="29.228929" lon="98.68777">
<time>2016-10-07T14:11:46Z</time></trkpt>
<trkpt lat="29.229009" lon="98.6877">
<time>2016-10-07T14:11:47Z</time></trkpt>
<trkpt lat="29.229099" lon="98.68764">
<time>2016-10-07T14:11:48Z</time></trkpt>
<trkpt lat="29.229199" lon="98.68757">
<time>2016-10-07T14:11:49Z</time></trkpt>
<trkpt lat="29.229329" lon="98.6875">
<time>2016-10-07T14:11:50Z</time></trkpt>
<trkpt lat="29.229479" lon="98.687411">
<time>2016-10-07T14:11:51Z</time></trkpt>
<trkpt lat="29.229579" lon="98.687351">
<time>2016-10-07T14:11:52Z</time></trkpt>
<trkpt lat="29.229699" lon="98.687271">
<time>2016-10-07T14:11:53Z</time></trkpt>
<trkpt lat="29.229839" lon="98.687191">
<time>2016-10-07T14:11:54Z</time></trkpt>
<trkpt lat="29.229969" lon="98.687101">
<time>2016-10-07T14:11:55Z</time></trkpt>
<trkpt lat="29.230159" lon="98.686992">
<time>2016-10-07T14:11:56Z</time></trkpt>
<trkpt lat="29.230239" lon="98.686932">
<time>2016-10-07T14:11:57Z</time></trkpt>
<trkpt lat="29.230299" lon="98.686892">
<time>2016-10-07T14:11:58Z</time></trkpt>
<trkpt lat="29.230359" lon="98.686872">
<time>2016-10-07T14:11:59Z</time></trkpt>
<trkpt lat="29.230429" lon="98.686862">
<time>2016-10-07T14:12:00Z</time></trkpt>
<trkpt lat="29.230469" lon="98.686862">
<time>2016-10-07T14:12:01Z</time></trkpt>
<trkpt lat="29.230549" lon="98.686872">
<time>2016-10-07T14:12:02Z</time></trkpt>
<trkpt lat="29.230649" lon="98.686922">
<time>2016-10-07T14:12:03Z</time></trkpt>
<trkpt lat="29.230749" lon="98.686982">
<time>2016-10-07T14:12:04Z</time></trkpt>
<trkpt lat="29.230899" lon="98.687101">
<time>2016-10-07T14:12:05Z</time></trkpt>
<trkpt lat="29.231168" lon="98.687321">
<time>2016-10-07T14:12:06Z</time></trkpt>
<trkpt lat="29.231338" lon="98.68746">
<time>2016-10-07T14:12:07Z</time></trkpt>
<trkpt lat="29.231437" lon="98.68756">
<time>2016-10-07T14:12:08Z</time></trkpt>
<trkpt lat="29.231507" lon="98.68763">
<time>2016-10-07T14:12:09Z</time></trkpt>
<trkpt lat="29.231547" lon="98.68769">
<time>2016-10-07T14:12:10Z</time></trkpt>
<trkpt lat="29.231587" lon="98.68774">
<time>2016-10-07T14:12:11Z</time></trkpt>
<trkpt lat="29.231627" lon="98.687819">
<time>2016-10-07T14:12:12Z</time></trkpt>
<trkpt lat="29.231666" lon="98.687959">
<time>2016-10-07T14:12:13Z</time></trkpt>
<trkpt lat="29.231676" lon="98.688049">
<time>2016-10-07T14:12:14Z</time></trkpt>
<trkpt lat="29.231696" lon="98.688248">
<time>2016-10-07T14:12:15Z</time></trkpt>
<trkpt lat="29.231705" lon="98.688498">
<time>2016-10-07T14:12:16Z</time></trkpt>
<trkpt lat="29.231715" lon="98.688587">
<time>2016-10-07T14:12:17Z</time></trkpt>
<trkpt lat="29.231725" lon="98.688687">
<time>2016-10-07T14:12:18Z</time></trkpt>
<trkpt lat="29.231765" lon="98.688837">
<time>2016-10-07T14:12:19Z</time></trkpt>
<trkpt lat="29.231814" lon="98.689006">
<time>2016-10-07T14:12:20Z</time></trkpt>
<trkpt lat="29.231854" lon="98.689106">
<time>2016-10-07T14:12:21Z</time></trkpt>
<trkpt lat="29.231894" lon="98.689216">
<time>2016-10-07T14:12:22Z</time></trkpt>
<trkpt lat="29.231974" lon="98.689395">
<time>2016-10-07T14:12:23Z</time></trkpt>
<trkpt lat="29.232053" lon="98.689535">
<time>2016-10-07T14:12:24Z</time></trkpt>
<trkpt lat="29.232123" lon="98.689654">
<time>2016-10-07T14:12:25Z</time></trkpt>
<trkpt lat="29.232193" lon="98.689764">
<time>2016-10-07T14:12:26Z</time></trkpt>
<trkpt lat="29.232282" lon="98.689904">
<time>2016-10-07T14:12:27Z</time></trkpt>
<trkpt lat="29.232322" lon="98.689964">
<time>2016-10-07T14:12:28Z</time></trkpt>
<trkpt lat="29.232362" lon="98.690043">
<time>2016-10-07T14:12:29Z</time></trkpt>
<trkpt lat="29.232482" lon="98.690263">
<time>2016-10-07T14:12:30Z</time></trkpt>
<trkpt lat="29.232591" lon="98.690472">
<time>2016-10-07T14:12:31Z</time></trkpt>
<trkpt lat="29.232711" lon="98.690682">
<time>2016-10-07T14:12:32Z</time></trkpt>
<trkpt lat="29.23282" lon="98.690891">
<time>2016-10-07T14:12:33Z</time></trkpt>
<trkpt lat="29.23291" lon="98.691041">
<time>2016-10-07T14:12:34Z</time></trkpt>
<trkpt lat="29.233" lon="98.69121">
<time>2016-10-07T14:12:35Z</time></trkpt>
<trkpt lat="29.233049" lon="98.69129">
<time>2016-10-07T14:12:36Z</time></trkpt>
<trkpt lat="29.233129" lon="98.69138">
<time>2016-10-07T14:12:37Z</time></trkpt>
<trkpt lat="29.233189" lon="98.69145">
<time>2016-10-07T14:12:38Z</time></trkpt>
<trkpt lat="29.233329" lon="98.691559">
<time>2016-10-07T14:12:39Z</time></trkpt>
<trkpt lat="29.233528" lon="98.691669">
<time>2016-10-07T14:12:40Z</time></trkpt>
<trkpt lat="29.233668" lon="98.691749">
<time>2016-10-07T14:12:41Z</time></trkpt>
<trkpt lat="29.233748" lon="98.691829">
<time>2016-10-07T14:12:42Z</time></trkpt>
<trkpt lat="29.233808" lon="98.691908">
<time>2016-10-07T14:12:43Z</time></trkpt>
<trkpt lat="29.233838" lon="98.691988">
<time>2016-10-07T14:12:44Z</time></trkpt>
<trkpt lat="29.233858" lon="98.692058">
<time>2016-10-07T14:12:45Z</time></trkpt>
<trkpt lat="29.233867" lon="98.692198">
<time>2016-10-07T14:12:46Z</time></trkpt>
<trkpt lat="29.233867" lon="98.692397">
<time>2016-10-07T14:12:47Z</time></trkpt>
<trkpt lat="29.233877" lon="98.692487">
<time>2016-10-07T14:12:48Z</time></trkpt>
<trkpt lat="29.233897" lon="98.692557">
<time>2016-10-07T14:12:49Z</time></trkpt>
<trkpt lat="29.233927" lon="98.692607">
<time>2016-10-07T14:12:50Z</time></trkpt>
<trkpt lat="29.233946" lon="98.692646">
<time>2016-10-07T14:12:51Z</time></trkpt>
<trkpt lat="29.233986" lon="98.692676">
<time>2016-10-07T14:12:52Z</time></trkpt>
<trkpt lat="29.234096" lon="98.692716">
<time>2016-10-07T14:12:53Z</time></trkpt>
<trkpt lat="29.234196" lon="98.692696">
<time>2016-10-07T14:12:54Z</time></trkpt>
<trkpt lat="29.234306" lon="98.692637">
<time>2016-10-07T14:12:55Z</time></trkpt>
<trkpt lat="29.234526" lon="98.692387">
<time>2016-10-07T14:12:56Z</time></trkpt>
<trkpt lat="29.234747" lon="98.692198">
<time>2016-10-07T14:12:57Z</time></trkpt>
<trkpt lat="29.234917" lon="98.692108">
<time>2016-10-07T14:12:58Z</time></trkpt>
<trkpt lat="29.235077" lon="98.692038">
<time>2016-10-07T14:12:59Z</time></trkpt>
<trkpt lat="29.235207" lon="98.691998">
<time>2016-10-07T14:13:00Z</time></trkpt>
<trkpt lat="29.235487" lon="98.691898">
<time>2016-10-07T14:13:01Z</time></trkpt>
<trkpt lat="29.235887" lon="98.691749">
<time>2016-10-07T14:13:02Z</time></trkpt>
<trkpt lat="29.236107" lon="98.691679">
<time>2016-10-07T14:13:03Z</time></trkpt>
<trkpt lat="29.236227" lon="98.691659">
<time>2016-10-07T14:13:04Z</time></trkpt>
<trkpt lat="29.236366" lon="98.691649">
<time>2016-10-07T14:13:05Z</time></trkpt>
<trkpt lat="29.236486" lon="98.691649">
<time>2016-10-07T14:13:06Z</time></trkpt>
<trkpt lat="29.236656" lon="98.691679">
<time>2016-10-07T14:13:07Z</time></trkpt>
<trkpt lat="29.236786" lon="98.691729">
<time>2016-10-07T14:13:08Z</time></trkpt>
<trkpt lat="29.236916" lon="98.691789">
<time>2016-10-07T14:13:09Z</time></trkpt>
<trkpt lat="29.237026" lon="98.691868">
<time>2016-10-07T14:13:10Z</time></trkpt>
<trkpt lat="29.237135" lon="98.691958">
<time>2016-10-07T14:13:11Z</time></trkpt>
<trkpt lat="29.237225" lon="98.692038">
<time>2016-10-07T14:13:12Z</time></trkpt>
<trkpt lat="29.237325" lon="98.692118">
<time>2016-10-07T14:13:13Z</time></trkpt>
<trkpt lat="29.237405" lon="98.692168">
<time>2016-10-07T14:13:14Z</time></trkpt>
<trkpt lat="29.237515" lon="98.692208">
<time>2016-10-07T14:13:15Z</time></trkpt>
<trkpt lat="29.237645" lon="98.692228">
<time>2016-10-07T14:13:16Z</time></trkpt>
<trkpt lat="29.237774" lon="98.692237">
<time>2016-10-07T14:13:17Z</time></trkpt>
<trkpt lat="29.237904" lon="98.692237">
<time>2016-10-07T14:13:18Z</time></trkpt>
<trkpt lat="29.238014" lon="98.692247">
<time>2016-10-07T14:13:19Z</time></trkpt>
<trkpt lat="29.238144" lon="98.692267">
<time>2016-10-07T14:13:20Z</time></trkpt>
<trkpt lat="29.238254" lon="98.692307">
<time>2016-10-07T14:13:21Z</time></trkpt>
<trkpt lat="29.238344" lon="98.692347">
<time>2016-10-07T14:13:22Z</time></trkpt>
<trkpt lat="29.238454" lon="98.692417">
<time>2016-10-07T14:13:23Z</time></trkpt>
<trkpt lat="29.238544" lon="98.692457">
<time>2016-10-07T14:13:24Z</time></trkpt>
<trkpt lat="29.238633" lon="98.692477">
<time>2016-10-07T14:13:25Z</time></trkpt>
<trkpt lat="29.238703" lon="98.692487">
<time>2016-10-07T14:13:26Z</time></trkpt>
<trkpt lat="29.238763" lon="98.692477">
<time>2016-10-07T14:13:27Z</time></trkpt>
<trkpt lat="29.238833" lon="98.692447">
<time>2016-10-07T14:13:28Z</time></trkpt>
<trkpt lat="29.238893" lon="98.692417">
<time>2016-10-07T14:13:29Z</time></trkpt>
<trkpt lat="29.238953" lon="98.692367">
<time>2016-10-07T14:13:30Z</time></trkpt>
<trkpt lat="29.239234" lon="98.692158">
<time>2016-10-07T14:13:31Z</time></trkpt>
<trkpt lat="29.239254" lon="98.692138">
<time>2016-10-07T14:13:32Z</time></trkpt>
<trkpt lat="29.239274" lon="98.692128">
<time>2016-10-07T14:13:33Z</time></trkpt>
<trkpt lat="29.239294" lon="98.692118">
<time>2016-10-07T14:13:34Z</time></trkpt>
<trkpt lat="29.239334" lon="98.692108">
<time>2016-10-07T14:13:35Z</time></trkpt>
<trkpt lat="29.239404" lon="98.692088">
<time>2016-10-07T14:13:36Z</time></trkpt>
<trkpt lat="29.239593" lon="98.692088">
<time>2016-10-07T14:13:37Z</time></trkpt>
<trkpt lat="29.239733" lon="98.692098">
<time>2016-10-07T14:13:38Z</time></trkpt>
<trkpt lat="29.239823" lon="98.692098">
<time>2016-10-07T14:13:39Z</time></trkpt>
<trkpt lat="29.239873" lon="98.692098">
<time>2016-10-07T14:13:40Z</time></trkpt>
<trkpt lat="29.239943" lon="98.692098">
<time>2016-10-07T14:13:41Z</time></trkpt>
<trkpt lat="29.240013" lon="98.692088">
<time>2016-10-07T14:13:42Z</time></trkpt>
<trkpt lat="29.240083" lon="98.692068">
<time>2016-10-07T14:13:43Z</time></trkpt>
<trkpt lat="29.240143" lon="98.692038">
<time>2016-10-07T14:13:44Z</time></trkpt>
<trkpt lat="29.240193" lon="98.692008">
<time>2016-10-07T14:13:45Z</time></trkpt>
<trkpt lat="29.240283" lon="98.691928">
<time>2016-10-07T14:13:46Z</time></trkpt>
<trkpt lat="29.240313" lon="98.691898">
<time>2016-10-07T14:13:47Z</time></trkpt>
<trkpt lat="29.240333" lon="98.691868">
<time>2016-10-07T14:13:48Z</time></trkpt>
<trkpt lat="29.240363" lon="98.691829">
<time>2016-10-07T14:13:49Z</time></trkpt>
<trkpt lat="29.240383" lon="98.691789">
<time>2016-10-07T14:13:50Z</time></trkpt>
<trkpt lat="29.240423" lon="98.691729">
<time>2016-10-07T14:13:51Z</time></trkpt>
<trkpt lat="29.240453" lon="98.691699">
<time>2016-10-07T14:13:52Z</time></trkpt>
<trkpt lat="29.240514" lon="98.691639">
<time>2016-10-07T14:13:53Z</time></trkpt>
<trkpt lat="29.240574" lon="98.691599">
<time>2016-10-07T14:13:54Z</time></trkpt>
<trkpt lat="29.240634" lon="98.691549">
<time>2016-10-07T14:13:55Z</time></trkpt>
<trkpt lat="29.240714" lon="98.691499">
<time>2016-10-07T14:13:56Z</time></trkpt>
<trkpt lat="29.240774" lon="98.691469">
<time>2016-10-07T14:13:57Z</time></trkpt>
<trkpt lat="29.240864" lon="98.69145">
<time>2016-10-07T14:13:58Z</time></trkpt>
<trkpt lat="29.240924" lon="98.69143">
<time>2016-10-07T14:13:59Z</time></trkpt>
<trkpt lat="29.241084" lon="98.69142">
<time>2016-10-07T14:14:00Z</time></trkpt>
<trkpt lat="29.241273" lon="98.69139">
<time>2016-10-07T14:14:01Z</time></trkpt>
<trkpt lat="29.241363" lon="98.69138">
<time>2016-10-07T14:14:02Z</time></trkpt>
<trkpt lat="29.241543" lon="98.69134">
<time>2016-10-07T14:14:03Z</time></trkpt>
<trkpt lat="29.241623" lon="98.69134">
<time>2016-10-07T14:14:04Z</time></trkpt>
<trkpt lat="29.241713" lon="98.69134">
<time>2016-10-07T14:14:05Z</time></trkpt>
<trkpt lat="29.241903" lon="98.69132">
<time>2016-10-07T14:14:06Z</time></trkpt>
<trkpt lat="29.242183" lon="98.69126">
<time>2016-10-07T14:14:07Z</time></trkpt>
<trkpt lat="29.242263" lon="98.69125">
<time>2016-10-07T14:14:08Z</time></trkpt>
<trkpt lat="29.242403" lon="98.69124">
<time>2016-10-07T14:14:09Z</time></trkpt>
<trkpt lat="29.242533" lon="98.69122">
<time>2016-10-07T14:14:10Z</time></trkpt>
<trkpt lat="29.242643" lon="98.6912">
<time>2016-10-07T14:14:11Z</time></trkpt>
<trkpt lat="29.242753" lon="98.69119">
<time>2016-10-07T14:14:12Z</time></trkpt>
<trkpt lat="29.242813" lon="98.69117">
<time>2016-10-07T14:14:13Z</time></trkpt>
<trkpt lat="29.243043" lon="98.691061">
<time>2016-10-07T14:14:14Z</time></trkpt>
<trkpt lat="29.243113" lon="98.691011">
<time>2016-10-07T14:14:15Z</time></trkpt>
<trkpt lat="29.243203" lon="98.690951">
<time>2016-10-07T14:14:16Z</time></trkpt>
<trkpt lat="29.243273" lon="98.690901">
<time>2016-10-07T14:14:17Z</time></trkpt>
<trkpt lat="29.243323" lon="98.690861">
<time>2016-10-07T14:14:18Z</time></trkpt>
<trkpt lat="29.243403" lon="98.690791">
<time>2016-10-07T14:14:19Z</time></trkpt>
<trkpt lat="29.243473" lon="98.690721">
<time>2016-10-07T14:14:20Z</time></trkpt>
<trkpt lat="29.243523" lon="98.690662">
<time>2016-10-07T14:14:21Z</time></trkpt>
<trkpt lat="29.243573" lon="98.690602">
<time>2016-10-07T14:14:22Z</time></trkpt>
<trkpt lat="29.243643" lon="98.690492">
<time>2016-10-07T14:14:23Z</time></trkpt>
<trkpt lat="29.243683" lon="98.690432">
<time>2016-10-07T14:14:24Z</time></trkpt>
<trkpt lat="29.243744" lon="98.690352">
<time>2016-10-07T14:14:25Z</time></trkpt>
<trkpt lat="29.243774" lon="98.690293">
<time>2016-10-07T14:14:26Z</time></trkpt>
<trkpt lat="29.243824" lon="98.690183">
<time>2016-10-07T14:14:27Z</time></trkpt>
<trkpt lat="29.243904" lon="98.689983">
<time>2016-10-07T14:14:28Z</time></trkpt>
<trkpt lat="29.243984" lon="98.689814">
<time>2016-10-07T14:14:29Z</time></trkpt>
<trkpt lat="29.244035" lon="98.689664">
<time>2016-10-07T14:14:30Z</time></trkpt>
<trkpt lat="29.244115" lon="98.689475">
<time>2016-10-07T14:14:31Z</time></trkpt>
<trkpt lat="29.244235" lon="98.689176">
<time>2016-10-07T14:14:32Z</time></trkpt>
<trkpt lat="29.244296" lon="98.689026">
<time>2016-10-07T14:14:33Z</time></trkpt>
<trkpt lat="29.244336" lon="98.688916">
<time>2016-10-07T14:14:34Z</time></trkpt>
<trkpt lat="29.244356" lon="98.688826">
<time>2016-10-07T14:14:35Z</time></trkpt>
<trkpt lat="29.244366" lon="98.688757">
<time>2016-10-07T14:14:36Z</time></trkpt>
<trkpt lat="29.244366" lon="98.688687">
<time>2016-10-07T14:14:37Z</time></trkpt>
<trkpt lat="29.244366" lon="98.688617">
<time>2016-10-07T14:14:38Z</time></trkpt>
<trkpt lat="29.244356" lon="98.688527">
<time>2016-10-07T14:14:39Z</time></trkpt>
<trkpt lat="29.244337" lon="98.688457">
<time>2016-10-07T14:14:40Z</time></trkpt>
<trkpt lat="29.244327" lon="98.688398">
<time>2016-10-07T14:14:41Z</time></trkpt>
<trkpt lat="29.244307" lon="98.688348">
<time>2016-10-07T14:14:42Z</time></trkpt>
<trkpt lat="29.244267" lon="98.688258">
<time>2016-10-07T14:14:43Z</time></trkpt>
<trkpt lat="29.244167" lon="98.688059">
<time>2016-10-07T14:14:44Z</time></trkpt>
<trkpt lat="29.244068" lon="98.687859">
<time>2016-10-07T14:14:45Z</time></trkpt>
<trkpt lat="29.243988" lon="98.68768">
<time>2016-10-07T14:14:46Z</time></trkpt>
<trkpt lat="29.243909" lon="98.6875">
<time>2016-10-07T14:14:47Z</time></trkpt>
<trkpt lat="29.243849" lon="98.68738">
<time>2016-10-07T14:14:48Z</time></trkpt>
<trkpt lat="29.243809" lon="98.687291">
<time>2016-10-07T14:14:49Z</time></trkpt>
<trkpt lat="29.243739" lon="98.687131">
<time>2016-10-07T14:14:50Z</time></trkpt>
<trkpt lat="29.24371" lon="98.687031">
<time>2016-10-07T14:14:51Z</time></trkpt>
<trkpt lat="29.2437" lon="98.686962">
<time>2016-10-07T14:14:52Z</time></trkpt>
<trkpt lat="29.24368" lon="98.686832">
<time>2016-10-07T14:14:53Z</time></trkpt>
<trkpt lat="29.24369" lon="98.686702">
<time>2016-10-07T14:14:54Z</time></trkpt>
<trkpt lat="29.24372" lon="98.686573">
<time>2016-10-07T14:14:55Z</time></trkpt>
<trkpt lat="29.243781" lon="98.686423">
<time>2016-10-07T14:14:56Z</time></trkpt>
<trkpt lat="29.243881" lon="98.686273">
<time>2016-10-07T14:14:57Z</time></trkpt>
<trkpt lat="29.243951" lon="98.686204">
<time>2016-10-07T14:14:58Z</time></trkpt>
<trkpt lat="29.244041" lon="98.686154">
<time>2016-10-07T14:14:59Z</time></trkpt>
<trkpt lat="29.244111" lon="98.686114">
<time>2016-10-07T14:15:00Z</time></trkpt>
<trkpt lat="29.244221" lon="98.686074">
<time>2016-10-07T14:15:01Z</time></trkpt>
<trkpt lat="29.244311" lon="98.686064">
<time>2016-10-07T14:15:02Z</time></trkpt>
<trkpt lat="29.244411" lon="98.686074">
<time>2016-10-07T14:15:03Z</time></trkpt>
<trkpt lat="29.244431" lon="98.686074">
<time>2016-10-07T14:15:04Z</time></trkpt>
<trkpt lat="29.244521" lon="98.686114">
<time>2016-10-07T14:15:05Z</time></trkpt>
<trkpt lat="29.244621" lon="98.686154">
<time>2016-10-07T14:15:06Z</time></trkpt>
<trkpt lat="29.24468" lon="98.686174">
<time>2016-10-07T14:15:07Z</time></trkpt>
<trkpt lat="29.24474" lon="98.686233">
<time>2016-10-07T14:15:08Z</time></trkpt>
<trkpt lat="29.24478" lon="98.686283">
<time>2016-10-07T14:15:09Z</time></trkpt>
<trkpt lat="29.24479" lon="98.686293">
<time>2016-10-07T14:15:10Z</time></trkpt>
<trkpt lat="29.24486" lon="98.686363">
<time>2016-10-07T14:15:11Z</time></trkpt>
<trkpt lat="29.24494" lon="98.686443">
<time>2016-10-07T14:15:12Z</time></trkpt>
<trkpt lat="29.245049" lon="98.686573">
<time>2016-10-07T14:15:13Z</time></trkpt>
<trkpt lat="29.245309" lon="98.686782">
<time>2016-10-07T14:15:14Z</time></trkpt>
<trkpt lat="29.245449" lon="98.686832">
<time>2016-10-07T14:15:15Z</time></trkpt>
<trkpt lat="29.245569" lon="98.686872">
<time>2016-10-07T14:15:16Z</time></trkpt>
<trkpt lat="29.245808" lon="98.686892">
<time>2016-10-07T14:15:17Z</time></trkpt>
<trkpt lat="29.245868" lon="98.686902">
<time>2016-10-07T14:15:18Z</time></trkpt>
<trkpt lat="29.245878" lon="98.686912">
<time>2016-10-07T14:15:19Z</time></trkpt>
<trkpt lat="29.245928" lon="98.686912">
<time>2016-10-07T14:15:20Z</time></trkpt>
<trkpt lat="29.245988" lon="98.686902">
<time>2016-10-07T14:15:21Z</time></trkpt>
<trkpt lat="29.246048" lon="98.686912">
<time>2016-10-07T14:15:22Z</time></trkpt>
<trkpt lat="29.246148" lon="98.686912">
<time>2016-10-07T14:15:23Z</time></trkpt>
<trkpt lat="29.246218" lon="98.686922">
<time>2016-10-07T14:15:24Z</time></trkpt>
<trkpt lat="29.246278" lon="98.686922">
<time>2016-10-07T14:15:25Z</time></trkpt>
<trkpt lat="29.246378" lon="98.686932">
<time>2016-10-07T14:15:26Z</time></trkpt>
<trkpt lat="29.246468" lon="98.686942">
<time>2016-10-07T14:15:27Z</time></trkpt>
<trkpt lat="29.246538" lon="98.686942">
<time>2016-10-07T14:15:28Z</time></trkpt>
<trkpt lat="29.246638" lon="98.686952">
<time>2016-10-07T14:15:29Z</time></trkpt>
<trkpt lat="29.246708" lon="98.686961">
<time>2016-10-07T14:15:30Z</time></trkpt>
<trkpt lat="29.246768" lon="98.686971">
<time>2016-10-07T14:15:31Z</time></trkpt>
<trkpt lat="29.246887" lon="98.686991">
<time>2016-10-07T14:15:32Z</time></trkpt>
<trkpt lat="29.246997" lon="98.687011">
<time>2016-10-07T14:15:33Z</time></trkpt>
<trkpt lat="29.247107" lon="98.687031">
<time>2016-10-07T14:15:34Z</time></trkpt>
<trkpt lat="29.247167" lon="98.687051">
<time>2016-10-07T14:15:35Z</time></trkpt>
<trkpt lat="29.247287" lon="98.687091">
<time>2016-10-07T14:15:36Z</time></trkpt>
<trkpt lat="29.247377" lon="98.687131">
<time>2016-10-07T14:15:37Z</time></trkpt>
<trkpt lat="29.247447" lon="98.687171">
<time>2016-10-07T14:15:38Z</time></trkpt>
<trkpt lat="29.247577" lon="98.687231">
<time>2016-10-07T14:15:39Z</time></trkpt>
<trkpt lat="29.247646" lon="98.687271">
<time>2016-10-07T14:15:40Z</time></trkpt>
<trkpt lat="29.247776" lon="98.68735">
<time>2016-10-07T14:15:41Z</time></trkpt>
<trkpt lat="29.247836" lon="98.68739">
<time>2016-10-07T14:15:42Z</time></trkpt>
<trkpt lat="29.247896" lon="98.68743">
<time>2016-10-07T14:15:43Z</time></trkpt>
<trkpt lat="29.247976" lon="98.68749">
<time>2016-10-07T14:15:44Z</time></trkpt>
<trkpt lat="29.248046" lon="98.68755">
<time>2016-10-07T14:15:45Z</time></trkpt>
<trkpt lat="29.248105" lon="98.6876">
<time>2016-10-07T14:15:46Z</time></trkpt>
<trkpt lat="29.248175" lon="98.68766">
<time>2016-10-07T14:15:47Z</time></trkpt>
<trkpt lat="29.248215" lon="98.687709">
<time>2016-10-07T14:15:48Z</time></trkpt>
<trkpt lat="29.248265" lon="98.687749">
<time>2016-10-07T14:15:49Z</time></trkpt>
<trkpt lat="29.248345" lon="98.687809">
<time>2016-10-07T14:15:50Z</time></trkpt>
<trkpt lat="29.248425" lon="98.687869">
<time>2016-10-07T14:15:51Z</time></trkpt>
<trkpt lat="29.248505" lon="98.687929">
<time>2016-10-07T14:15:52Z</time></trkpt>
<trkpt lat="29.248584" lon="98.687989">
<time>2016-10-07T14:15:53Z</time></trkpt>
<trkpt lat="29.248684" lon="98.688029">
<time>2016-10-07T14:15:54Z</time></trkpt>
<trkpt lat="29.248804" lon="98.688078">
<time>2016-10-07T14:15:55Z</time></trkpt>
<trkpt lat="29.248994" lon="98.688108">
<time>2016-10-07T14:15:56Z</time></trkpt>
<trkpt lat="29.249064" lon="98.688098">
<time>2016-10-07T14:15:57Z</time></trkpt>
<trkpt lat="29.249134" lon="98.688088">
<time>2016-10-07T14:15:58Z</time></trkpt>
<trkpt lat="29.249294" lon="98.688009">
<time>2016-10-07T14:15:59Z</time></trkpt>
<trkpt lat="29.249374" lon="98.687969">
<time>2016-10-07T14:16:00Z</time></trkpt>
<trkpt lat="29.249484" lon="98.687899">
<time>2016-10-07T14:16:01Z</time></trkpt>
<trkpt lat="29.249564" lon="98.687839">
<time>2016-10-07T14:16:02Z</time></trkpt>
<trkpt lat="29.249654" lon="98.687749">
<time>2016-10-07T14:16:03Z</time></trkpt>
<trkpt lat="29.249764" lon="98.68756">
<time>2016-10-07T14:16:04Z</time></trkpt>
<trkpt lat="29.249865" lon="98.687271">
<time>2016-10-07T14:16:05Z</time></trkpt>
<trkpt lat="29.249885" lon="98.687201">
<time>2016-10-07T14:16:06Z</time></trkpt>
<trkpt lat="29.249885" lon="98.687151">
<time>2016-10-07T14:16:07Z</time></trkpt>
<trkpt lat="29.249895" lon="98.687061">
<time>2016-10-07T14:16:08Z</time></trkpt>
<trkpt lat="29.249905" lon="98.686961">
<time>2016-10-07T14:16:09Z</time></trkpt>
<trkpt lat="29.249926" lon="98.686842">
<time>2016-10-07T14:16:10Z</time></trkpt>
<trkpt lat="29.249946" lon="98.686732">
<time>2016-10-07T14:16:11Z</time></trkpt>
<trkpt lat="29.249966" lon="98.686632">
<time>2016-10-07T14:16:12Z</time></trkpt>
<trkpt lat="29.249996" lon="98.686572">
<time>2016-10-07T14:16:13Z</time></trkpt>
<trkpt lat="29.250026" lon="98.686493">
<time>2016-10-07T14:16:14Z</time></trkpt>
<trkpt lat="29.250036" lon="98.686483">
<time>2016-10-07T14:16:15Z</time></trkpt>
<trkpt lat="29.250046" lon="98.686463">
<time>2016-10-07T14:16:16Z</time></trkpt>
<trkpt lat="29.250066" lon="98.686423">
<time>2016-10-07T14:16:17Z</time></trkpt>
<trkpt lat="29.250086" lon="98.686403">
<time>2016-10-07T14:16:18Z</time></trkpt>
<trkpt lat="29.250116" lon="98.686353">
<time>2016-10-07T14:16:19Z</time></trkpt>
<trkpt lat="29.250156" lon="98.686323">
<time>2016-10-07T14:16:20Z</time></trkpt>
<trkpt lat="29.250186" lon="98.686283">
<time>2016-10-07T14:16:21Z</time></trkpt>
<trkpt lat="29.250236" lon="98.686243">
<time>2016-10-07T14:16:22Z</time></trkpt>
<trkpt lat="29.250276" lon="98.686213">
<time>2016-10-07T14:16:23Z</time></trkpt>
<trkpt lat="29.250316" lon="98.686194">
<time>2016-10-07T14:16:24Z</time></trkpt>
<trkpt lat="29.250336" lon="98.686184">
<time>2016-10-07T14:16:25Z</time></trkpt>
<trkpt lat="29.250376" lon="98.686164">
<time>2016-10-07T14:16:26Z</time></trkpt>
<trkpt lat="29.250427" lon="98.686144">
<time>2016-10-07T14:16:27Z</time></trkpt>
<trkpt lat="29.250466" lon="98.686134">
<time>2016-10-07T14:16:28Z</time></trkpt>
<trkpt lat="29.250507" lon="98.686114">
<time>2016-10-07T14:16:29Z</time></trkpt>
<trkpt lat="29.250536" lon="98.686114">
<time>2016-10-07T14:16:30Z</time></trkpt>
<trkpt lat="29.250576" lon="98.686104">
<time>2016-10-07T14:16:31Z</time></trkpt>
<trkpt lat="29.250616" lon="98.686104">
<time>2016-10-07T14:16:32Z</time></trkpt>
<trkpt lat="29.250846" lon="98.686104">
<time>2016-10-07T14:16:33Z</time></trkpt>
<trkpt lat="29.250966" lon="98.686114">
<time>2016-10-07T14:16:34Z</time></trkpt>
<trkpt lat="29.251086" lon="98.686114">
<time>2016-10-07T14:16:35Z</time></trkpt>
<trkpt lat="29.251146" lon="98.686104">
<time>2016-10-07T14:16:36Z</time></trkpt>
<trkpt lat="29.251206" lon="98.686094">
<time>2016-10-07T14:16:37Z</time></trkpt>
<trkpt lat="29.251266" lon="98.686074">
<time>2016-10-07T14:16:38Z</time></trkpt>
<trkpt lat="29.251316" lon="98.686044">
<time>2016-10-07T14:16:39Z</time></trkpt>
<trkpt lat="29.251386" lon="98.685994">
<time>2016-10-07T14:16:40Z</time></trkpt>
<trkpt lat="29.251466" lon="98.685924">
<time>2016-10-07T14:16:41Z</time></trkpt>
<trkpt lat="29.251516" lon="98.685854">
<time>2016-10-07T14:16:42Z</time></trkpt>
<trkpt lat="29.251556" lon="98.685795">
<time>2016-10-07T14:16:43Z</time></trkpt>
<trkpt lat="29.251616" lon="98.685705">
<time>2016-10-07T14:16:44Z</time></trkpt>
<trkpt lat="29.251677" lon="98.685585">
<time>2016-10-07T14:16:45Z</time></trkpt>
<trkpt lat="29.251727" lon="98.685495">
<time>2016-10-07T14:16:46Z</time></trkpt>
<trkpt lat="29.251797" lon="98.685356">
<time>2016-10-07T14:16:47Z</time></trkpt>
<trkpt lat="29.251877" lon="98.685186">
<time>2016-10-07T14:16:48Z</time></trkpt>
<trkpt lat="29.251937" lon="98.685067">
<time>2016-10-07T14:16:49Z</time></trkpt>
<trkpt lat="29.251988" lon="98.684957">
<time>2016-10-07T14:16:50Z</time></trkpt>
<trkpt lat="29.252048" lon="98.684867">
<time>2016-10-07T14:16:51Z</time></trkpt>
<trkpt lat="29.252068" lon="98.684837">
<time>2016-10-07T14:16:52Z</time></trkpt>
<trkpt lat="29.252108" lon="98.684797">
<time>2016-10-07T14:16:53Z</time></trkpt>
<trkpt lat="29.252128" lon="98.684777">
<time>2016-10-07T14:16:54Z</time></trkpt>
<trkpt lat="29.252158" lon="98.684747">
<time>2016-10-07T14:16:55Z</time></trkpt>
<trkpt lat="29.252188" lon="98.684727">
<time>2016-10-07T14:16:56Z</time></trkpt>
<trkpt lat="29.252238" lon="98.684698">
<time>2016-10-07T14:16:57Z</time></trkpt>
<trkpt lat="29.252278" lon="98.684678">
<time>2016-10-07T14:16:58Z</time></trkpt>
<trkpt lat="29.252318" lon="98.684668">
<time>2016-10-07T14:16:59Z</time></trkpt>
<trkpt lat="29.252358" lon="98.684658">
<time>2016-10-07T14:17:00Z</time></trkpt>
<trkpt lat="29.252388" lon="98.684658">
<time>2016-10-07T14:17:01Z</time></trkpt>
<trkpt lat="29.252418" lon="98.684658">
<time>2016-10-07T14:17:02Z</time></trkpt>
<trkpt lat="29.252458" lon="98.684658">
<time>2016-10-07T14:17:03Z</time></trkpt>
<trkpt lat="29.252488" lon="98.684658">
<time>2016-10-07T14:17:04Z</time></trkpt>
<trkpt lat="29.252528" lon="98.684668">
<time>2016-10-07T14:17:05Z</time></trkpt>
<trkpt lat="29.252578" lon="98.684678">
<time>2016-10-07T14:17:06Z</time></trkpt>
<trkpt lat="29.252618" lon="98.684688">
<time>2016-10-07T14:17:07Z</time></trkpt>
<trkpt lat="29.252668" lon="98.684698">
<time>2016-10-07T14:17:08Z</time></trkpt>
<trkpt lat="29.252738" lon="98.684717">
<time>2016-10-07T14:17:09Z</time></trkpt>
<trkpt lat="29.252837" lon="98.684747">
<time>2016-10-07T14:17:10Z</time></trkpt>
<trkpt lat="29.252897" lon="98.684767">
<time>2016-10-07T14:17:11Z</time></trkpt>
<trkpt lat="29.252947" lon="98.684777">
<time>2016-10-07T14:17:12Z</time></trkpt>
<trkpt lat="29.253007" lon="98.684797">
<time>2016-10-07T14:17:13Z</time></trkpt>
<trkpt lat="29.253057" lon="98.684817">
<time>2016-10-07T14:17:14Z</time></trkpt>
<trkpt lat="29.253167" lon="98.684847">
<time>2016-10-07T14:17:15Z</time></trkpt>
<trkpt lat="29.253267" lon="98.684877">
<time>2016-10-07T14:17:16Z</time></trkpt>
<trkpt lat="29.253357" lon="98.684907">
<time>2016-10-07T14:17:17Z</time></trkpt>
<trkpt lat="29.253407" lon="98.684927">
<time>2016-10-07T14:17:18Z</time></trkpt>
<trkpt lat="29.253487" lon="98.684937">
<time>2016-10-07T14:17:19Z</time></trkpt>
<trkpt lat="29.253537" lon="98.684947">
<time>2016-10-07T14:17:20Z</time></trkpt>
<trkpt lat="29.253636" lon="98.684957">
<time>2016-10-07T14:17:21Z</time></trkpt>
<trkpt lat="29.253706" lon="98.684957">
<time>2016-10-07T14:17:22Z</time></trkpt>
<trkpt lat="29.253766" lon="98.684957">
<time>2016-10-07T14:17:23Z</time></trkpt>
<trkpt lat="29.253846" lon="98.684947">
<time>2016-10-07T14:17:24Z</time></trkpt>
<trkpt lat="29.253956" lon="98.684917">
<time>2016-10-07T14:17:25Z</time></trkpt>
<trkpt lat="29.254056" lon="98.684877">
<time>2016-10-07T14:17:26Z</time></trkpt>
<trkpt lat="29.254116" lon="98.684847">
<time>2016-10-07T14:17:27Z</time></trkpt>
<trkpt lat="29.254206" lon="98.684797">
<time>2016-10-07T14:17:28Z</time></trkpt>
<trkpt lat="29.254266" lon="98.684757">
<time>2016-10-07T14:17:29Z</time></trkpt>
<trkpt lat="29.254316" lon="98.684707">
<time>2016-10-07T14:17:30Z</time></trkpt>
<trkpt lat="29.254407" lon="98.684618">
<time>2016-10-07T14:17:31Z</time></trkpt>
<trkpt lat="29.254517" lon="98.684488">
<time>2016-10-07T14:17:32Z</time></trkpt>
<trkpt lat="29.254617" lon="98.684388">
<time>2016-10-07T14:17:33Z</time></trkpt>
<trkpt lat="29.254657" lon="98.684348">
<time>2016-10-07T14:17:34Z</time></trkpt>
<trkpt lat="29.254687" lon="98.684309">
<time>2016-10-07T14:17:35Z</time></trkpt>
<trkpt lat="29.254757" lon="98.684269">
<time>2016-10-07T14:17:36Z</time></trkpt>
<trkpt lat="29.254797" lon="98.684249">
<time>2016-10-07T14:17:37Z</time></trkpt>
<trkpt lat="29.254867" lon="98.684219">
<time>2016-10-07T14:17:38Z</time></trkpt>
<trkpt lat="29.254927" lon="98.684209">
<time>2016-10-07T14:17:39Z</time></trkpt>
<trkpt lat="29.254957" lon="98.684199">
<time>2016-10-07T14:17:40Z</time></trkpt>
<trkpt lat="29.255017" lon="98.684189">
<time>2016-10-07T14:17:41Z</time></trkpt>
<trkpt lat="29.255107" lon="98.684179">
<time>2016-10-07T14:17:42Z</time></trkpt>
<trkpt lat="29.255157" lon="98.684179">
<time>2016-10-07T14:17:43Z</time></trkpt>
<trkpt lat="29.255207" lon="98.684169">
<time>2016-10-07T14:17:44Z</time></trkpt>
<trkpt lat="29.255237" lon="98.684159">
<time>2016-10-07T14:17:45Z</time></trkpt>
<trkpt lat="29.255277" lon="98.684149">
<time>2016-10-07T14:17:46Z</time></trkpt>
<trkpt lat="29.255307" lon="98.684139">
<time>2016-10-07T14:17:47Z</time></trkpt>
<trkpt lat="29.255337" lon="98.684129">
<time>2016-10-07T14:17:48Z</time></trkpt>
<trkpt lat="29.255377" lon="98.684099">
<time>2016-10-07T14:17:49Z</time></trkpt>
<trkpt lat="29.255407" lon="98.684069">
<time>2016-10-07T14:17:50Z</time></trkpt>
<trkpt lat="29.255427" lon="98.684049">
<time>2016-10-07T14:17:51Z</time></trkpt>
<trkpt lat="29.255447" lon="98.684019">
<time>2016-10-07T14:17:52Z</time></trkpt>
<trkpt lat="29.255457" lon="98.683979">
<time>2016-10-07T14:17:53Z</time></trkpt>
<trkpt lat="29.255467" lon="98.68395">
<time>2016-10-07T14:17:54Z</time></trkpt>
<trkpt lat="29.255477" lon="98.68393">
<time>2016-10-07T14:17:55Z</time></trkpt>
<trkpt lat="29.255477" lon="98.68391">
<time>2016-10-07T14:17:56Z</time></trkpt>
<trkpt lat="29.255477" lon="98.68388">
<time>2016-10-07T14:17:57Z</time></trkpt>
<trkpt lat="29.255477" lon="98.68385">
<time>2016-10-07T14:17:58Z</time></trkpt>
<trkpt lat="29.255477" lon="98.68381">
<time>2016-10-07T14:17:59Z</time></trkpt>
<trkpt lat="29.255467" lon="98.68378">
<time>2016-10-07T14:18:00Z</time></trkpt>
<trkpt lat="29.255467" lon="98.68374">
<time>2016-10-07T14:18:01Z</time></trkpt>
<trkpt lat="29.255458" lon="98.68371">
<time>2016-10-07T14:18:02Z</time></trkpt>
<trkpt lat="29.255438" lon="98.68367">
<time>2016-10-07T14:18:03Z</time></trkpt>
<trkpt lat="29.255428" lon="98.68363">
<time>2016-10-07T14:18:04Z</time></trkpt>
<trkpt lat="29.255398" lon="98.683591">
<time>2016-10-07T14:18:05Z</time></trkpt>
<trkpt lat="29.255368" lon="98.683531">
<time>2016-10-07T14:18:06Z</time></trkpt>
<trkpt lat="29.255338" lon="98.683471">
<time>2016-10-07T14:18:07Z</time></trkpt>
<trkpt lat="29.255308" lon="98.683421">
<time>2016-10-07T14:18:08Z</time></trkpt>
<trkpt lat="29.255298" lon="98.683401">
<time>2016-10-07T14:18:09Z</time></trkpt>
<trkpt lat="29.255219" lon="98.683242">
<time>2016-10-07T14:18:10Z</time></trkpt>
<trkpt lat="29.255189" lon="98.683172">
<time>2016-10-07T14:18:11Z</time></trkpt>
<trkpt lat="29.255099" lon="98.682992">
<time>2016-10-07T14:18:12Z</time></trkpt>
<trkpt lat="29.255099" lon="98.682982">
<time>2016-10-07T14:18:13Z</time></trkpt>
<trkpt lat="29.255089" lon="98.682962">
<time>2016-10-07T14:18:14Z</time></trkpt>
<trkpt lat="29.255079" lon="98.682853">
<time>2016-10-07T14:18:15Z</time></trkpt>
<trkpt lat="29.25507" lon="98.682773">
<time>2016-10-07T14:18:16Z</time></trkpt>
<trkpt lat="29.25505" lon="98.682583">
<time>2016-10-07T14:18:17Z</time></trkpt>
<trkpt lat="29.25505" lon="98.682504">
<time>2016-10-07T14:18:18Z</time></trkpt>
<trkpt lat="29.25505" lon="98.682334">
<time>2016-10-07T14:18:19Z</time></trkpt>
<trkpt lat="29.255061" lon="98.682234">
<time>2016-10-07T14:18:20Z</time></trkpt>
<trkpt lat="29.255071" lon="98.682155">
<time>2016-10-07T14:18:21Z</time></trkpt>
<trkpt lat="29.255091" lon="98.682065">
<time>2016-10-07T14:18:22Z</time></trkpt>
<trkpt lat="29.255111" lon="98.682005">
<time>2016-10-07T14:18:23Z</time></trkpt>
<trkpt lat="29.255141" lon="98.681945">
<time>2016-10-07T14:18:24Z</time></trkpt>
<trkpt lat="29.255181" lon="98.681875">
<time>2016-10-07T14:18:25Z</time></trkpt>
<trkpt lat="29.255231" lon="98.681815">
<time>2016-10-07T14:18:26Z</time></trkpt>
<trkpt lat="29.255291" lon="98.681766">
<time>2016-10-07T14:18:27Z</time></trkpt>
<trkpt lat="29.255341" lon="98.681716">
<time>2016-10-07T14:18:28Z</time></trkpt>
<trkpt lat="29.255431" lon="98.681656">
<time>2016-10-07T14:18:29Z</time></trkpt>
<trkpt lat="29.255561" lon="98.681596">
<time>2016-10-07T14:18:30Z</time></trkpt>
<trkpt lat="29.255661" lon="98.681536">
<time>2016-10-07T14:18:31Z</time></trkpt>
<trkpt lat="29.255781" lon="98.681476">
<time>2016-10-07T14:18:32Z</time></trkpt>
<trkpt lat="29.255861" lon="98.681436">
<time>2016-10-07T14:18:33Z</time></trkpt>
<trkpt lat="29.255982" lon="98.681377">
<time>2016-10-07T14:18:34Z</time></trkpt>
<trkpt lat="29.256092" lon="98.681317">
<time>2016-10-07T14:18:35Z</time></trkpt>
<trkpt lat="29.256202" lon="98.681257">
<time>2016-10-07T14:18:36Z</time></trkpt>
<trkpt lat="29.256262" lon="98.681217">
<time>2016-10-07T14:18:37Z</time></trkpt>
<trkpt lat="29.256332" lon="98.681177">
<time>2016-10-07T14:18:38Z</time></trkpt>
<trkpt lat="29.256392" lon="98.681137">
<time>2016-10-07T14:18:39Z</time></trkpt>
<trkpt lat="29.256442" lon="98.681097">
<time>2016-10-07T14:18:40Z</time></trkpt>
<trkpt lat="29.256492" lon="98.681048">
<time>2016-10-07T14:18:41Z</time></trkpt>
<trkpt lat="29.256542" lon="98.680998">
<time>2016-10-07T14:18:42Z</time></trkpt>
<trkpt lat="29.256592" lon="98.680938">
<time>2016-10-07T14:18:43Z</time></trkpt>
<trkpt lat="29.256632" lon="98.680878">
<time>2016-10-07T14:18:44Z</time></trkpt>
<trkpt lat="29.256662" lon="98.680848">
<time>2016-10-07T14:18:45Z</time></trkpt>
<trkpt lat="29.256712" lon="98.680758">
<time>2016-10-07T14:18:46Z</time></trkpt>
<trkpt lat="29.256732" lon="98.680708">
<time>2016-10-07T14:18:47Z</time></trkpt>
<trkpt lat="29.256762" lon="98.680659">
<time>2016-10-07T14:18:48Z</time></trkpt>
<trkpt lat="29.256802" lon="98.680569">
<time>2016-10-07T14:18:49Z</time></trkpt>
<trkpt lat="29.256833" lon="98.680479">
<time>2016-10-07T14:18:50Z</time></trkpt>
<trkpt lat="29.256863" lon="98.680399">
<time>2016-10-07T14:18:51Z</time></trkpt>
<trkpt lat="29.256893" lon="98.68033">
<time>2016-10-07T14:18:52Z</time></trkpt>
<trkpt lat="29.256923" lon="98.68026">
<time>2016-10-07T14:18:53Z</time></trkpt>
<trkpt lat="29.256953" lon="98.68017">
<time>2016-10-07T14:18:54Z</time></trkpt>
<trkpt lat="29.256973" lon="98.68012">
<time>2016-10-07T14:18:55Z</time></trkpt>
<trkpt lat="29.256993" lon="98.68007">
<time>2016-10-07T14:18:56Z</time></trkpt>
<trkpt lat="29.257023" lon="98.68003">
<time>2016-10-07T14:18:57Z</time></trkpt>
<trkpt lat="29.257053" lon="98.67999">
<time>2016-10-07T14:18:58Z</time></trkpt>
<trkpt lat="29.257073" lon="98.679951">
<time>2016-10-07T14:18:59Z</time></trkpt>
<trkpt lat="29.257114" lon="98.679901">
<time>2016-10-07T14:19:00Z</time></trkpt>
<trkpt lat="29.257164" lon="98.679861">
<time>2016-10-07T14:19:01Z</time></trkpt>
<trkpt lat="29.257214" lon="98.679811">
<time>2016-10-07T14:19:02Z</time></trkpt>
<trkpt lat="29.257284" lon="98.679761">
<time>2016-10-07T14:19:03Z</time></trkpt>
<trkpt lat="29.257344" lon="98.679731">
<time>2016-10-07T14:19:04Z</time></trkpt>
<trkpt lat="29.257394" lon="98.679701">
<time>2016-10-07T14:19:05Z</time></trkpt>
<trkpt lat="29.257414" lon="98.679691">
<time>2016-10-07T14:19:06Z</time></trkpt>
<trkpt lat="29.257434" lon="98.679681">
<time>2016-10-07T14:19:07Z</time></trkpt>
<trkpt lat="29.257464" lon="98.679681">
<time>2016-10-07T14:19:08Z</time></trkpt>
<trkpt lat="29.257494" lon="98.679671">
<time>2016-10-07T14:19:09Z</time></trkpt>
<trkpt lat="29.257514" lon="98.679671">
<time>2016-10-07T14:19:10Z</time></trkpt>
<trkpt lat="29.257534" lon="98.679661">
<time>2016-10-07T14:19:11Z</time></trkpt>
<trkpt lat="29.257564" lon="98.679661">
<time>2016-10-07T14:19:12Z</time></trkpt>
<trkpt lat="29.257614" lon="98.679661">
<time>2016-10-07T14:19:13Z</time></trkpt>
<trkpt lat="29.257684" lon="98.679661">
<time>2016-10-07T14:19:14Z</time></trkpt>
<trkpt lat="29.257744" lon="98.679661">
<time>2016-10-07T14:19:15Z</time></trkpt>
<trkpt lat="29.257803" lon="98.679671">
<time>2016-10-07T14:19:16Z</time></trkpt>
<trkpt lat="29.257843" lon="98.679681">
<time>2016-10-07T14:19:17Z</time></trkpt>
<trkpt lat="29.257913" lon="98.679711">
<time>2016-10-07T14:19:18Z</time></trkpt>
<trkpt lat="29.257973" lon="98.679741">
<time>2016-10-07T14:19:19Z</time></trkpt>
<trkpt lat="29.258013" lon="98.679771">
<time>2016-10-07T14:19:20Z</time></trkpt>
<trkpt lat="29.258083" lon="98.679821">
<time>2016-10-07T14:19:21Z</time></trkpt>
<trkpt lat="29.258203" lon="98.679901">
<time>2016-10-07T14:19:22Z</time></trkpt>
<trkpt lat="29.258313" lon="98.67999">
<time>2016-10-07T14:19:23Z</time></trkpt>
<trkpt lat="29.258432" lon="98.6801">
<time>2016-10-07T14:19:24Z</time></trkpt>
<trkpt lat="29.258482" lon="98.68014">
<time>2016-10-07T14:19:25Z</time></trkpt>
<trkpt lat="29.258542" lon="98.68019">
<time>2016-10-07T14:19:26Z</time></trkpt>
<trkpt lat="29.258612" lon="98.68025">
<time>2016-10-07T14:19:27Z</time></trkpt>
<trkpt lat="29.258672" lon="98.68031">
<time>2016-10-07T14:19:28Z</time></trkpt>
<trkpt lat="29.258741" lon="98.680379">
<time>2016-10-07T14:19:29Z</time></trkpt>
<trkpt lat="29.258851" lon="98.680479">
<time>2016-10-07T14:19:30Z</time></trkpt>
<trkpt lat="29.258941" lon="98.680559">
<time>2016-10-07T14:19:31Z</time></trkpt>
<trkpt lat="29.259061" lon="98.680649">
<time>2016-10-07T14:19:32Z</time></trkpt>
<trkpt lat="29.25917" lon="98.680748">
<time>2016-10-07T14:19:33Z</time></trkpt>
<trkpt lat="29.25929" lon="98.680848">
<time>2016-10-07T14:19:34Z</time></trkpt>
<trkpt lat="29.25943" lon="98.680968">
<time>2016-10-07T14:19:35Z</time></trkpt>
<trkpt lat="29.25952" lon="98.681048">
<time>2016-10-07T14:19:36Z</time></trkpt>
<trkpt lat="29.25957" lon="98.681087">
<time>2016-10-07T14:19:37Z</time></trkpt>
<trkpt lat="29.259619" lon="98.681137">
<time>2016-10-07T14:19:38Z</time></trkpt>
<trkpt lat="29.259719" lon="98.681227">
<time>2016-10-07T14:19:39Z</time></trkpt>
<trkpt lat="29.259759" lon="98.681267">
<time>2016-10-07T14:19:40Z</time></trkpt>
<trkpt lat="29.259879" lon="98.681367">
<time>2016-10-07T14:19:41Z</time></trkpt>
<trkpt lat="29.259989" lon="98.681466">
<time>2016-10-07T14:19:42Z</time></trkpt>
<trkpt lat="29.260088" lon="98.681536">
<time>2016-10-07T14:19:43Z</time></trkpt>
<trkpt lat="29.260148" lon="98.681576">
<time>2016-10-07T14:19:44Z</time></trkpt>
<trkpt lat="29.260258" lon="98.681636">
<time>2016-10-07T14:19:45Z</time></trkpt>
<trkpt lat="29.260328" lon="98.681666">
<time>2016-10-07T14:19:46Z</time></trkpt>
<trkpt lat="29.260418" lon="98.681696">
<time>2016-10-07T14:19:47Z</time></trkpt>
<trkpt lat="29.260538" lon="98.681716">
<time>2016-10-07T14:19:48Z</time></trkpt>
<trkpt lat="29.260618" lon="98.681716">
<time>2016-10-07T14:19:49Z</time></trkpt>
<trkpt lat="29.260758" lon="98.681726">
<time>2016-10-07T14:19:50Z</time></trkpt>
<trkpt lat="29.260897" lon="98.681746">
<time>2016-10-07T14:19:51Z</time></trkpt>
<trkpt lat="29.260987" lon="98.681746">
<time>2016-10-07T14:19:52Z</time></trkpt>
<trkpt lat="29.261137" lon="98.681765">
<time>2016-10-07T14:19:53Z</time></trkpt>
<trkpt lat="29.261337" lon="98.681775">
<time>2016-10-07T14:19:54Z</time></trkpt>
<trkpt lat="29.261397" lon="98.681775">
<time>2016-10-07T14:19:55Z</time></trkpt>
<trkpt lat="29.261437" lon="98.681775">
<time>2016-10-07T14:19:56Z</time></trkpt>
<trkpt lat="29.261477" lon="98.681775">
<time>2016-10-07T14:19:57Z</time></trkpt>
<trkpt lat="29.261537" lon="98.681765">
<time>2016-10-07T14:19:58Z</time></trkpt>
<trkpt lat="29.261577" lon="98.681756">
<time>2016-10-07T14:19:59Z</time></trkpt>
<trkpt lat="29.261607" lon="98.681746">
<time>2016-10-07T14:20:00Z</time></trkpt>
<trkpt lat="29.261637" lon="98.681736">
<time>2016-10-07T14:20:01Z</time></trkpt>
<trkpt lat="29.261667" lon="98.681716">
<time>2016-10-07T14:20:02Z</time></trkpt>
<trkpt lat="29.261697" lon="98.681696">
<time>2016-10-07T14:20:03Z</time></trkpt>
<trkpt lat="29.261727" lon="98.681676">
<time>2016-10-07T14:20:04Z</time></trkpt>
<trkpt lat="29.261777" lon="98.681626">
<time>2016-10-07T14:20:05Z</time></trkpt>
<trkpt lat="29.261817" lon="98.681566">
<time>2016-10-07T14:20:06Z</time></trkpt>
<trkpt lat="29.261847" lon="98.681516">
<time>2016-10-07T14:20:07Z</time></trkpt>
<trkpt lat="29.261857" lon="98.681476">
<time>2016-10-07T14:20:08Z</time></trkpt>
<trkpt lat="29.261877" lon="98.681416">
<time>2016-10-07T14:20:09Z</time></trkpt>
<trkpt lat="29.261887" lon="98.681367">
<time>2016-10-07T14:20:10Z</time></trkpt>
<trkpt lat="29.261898" lon="98.681317">
<time>2016-10-07T14:20:11Z</time></trkpt>
<trkpt lat="29.261898" lon="98.681267">
<time>2016-10-07T14:20:12Z</time></trkpt>
<trkpt lat="29.261898" lon="98.681187">
<time>2016-10-07T14:20:13Z</time></trkpt>
<trkpt lat="29.261898" lon="98.681147">
<time>2016-10-07T14:20:14Z</time></trkpt>
<trkpt lat="29.261888" lon="98.681087">
<time>2016-10-07T14:20:15Z</time></trkpt>
<trkpt lat="29.261888" lon="98.681057">
<time>2016-10-07T14:20:16Z</time></trkpt>
<trkpt lat="29.261888" lon="98.681008">
<time>2016-10-07T14:20:17Z</time></trkpt>
<trkpt lat="29.261898" lon="98.680978">
<time>2016-10-07T14:20:18Z</time></trkpt>
<trkpt lat="29.261908" lon="98.680928">
<time>2016-10-07T14:20:19Z</time></trkpt>
<trkpt lat="29.261928" lon="98.680868">
<time>2016-10-07T14:20:20Z</time></trkpt>
<trkpt lat="29.261948" lon="98.680808">
<time>2016-10-07T14:20:21Z</time></trkpt>
<trkpt lat="29.261979" lon="98.680768">
<time>2016-10-07T14:20:22Z</time></trkpt>
<trkpt lat="29.261999" lon="98.680748">
<time>2016-10-07T14:20:23Z</time></trkpt>
<trkpt lat="29.262029" lon="98.680728">
<time>2016-10-07T14:20:24Z</time></trkpt>
<trkpt lat="29.262069" lon="98.680718">
<time>2016-10-07T14:20:25Z</time></trkpt>
<trkpt lat="29.262109" lon="98.680718">
<time>2016-10-07T14:20:26Z</time></trkpt>
<trkpt lat="29.262139" lon="98.680718">
<time>2016-10-07T14:20:27Z</time></trkpt>
<trkpt lat="29.262168" lon="98.680738">
<time>2016-10-07T14:20:28Z</time></trkpt>
<trkpt lat="29.262198" lon="98.680758">
<time>2016-10-07T14:20:29Z</time></trkpt>
<trkpt lat="29.262218" lon="98.680778">
<time>2016-10-07T14:20:30Z</time></trkpt>
<trkpt lat="29.262228" lon="98.680808">
<time>2016-10-07T14:20:31Z</time></trkpt>
<trkpt lat="29.262258" lon="98.680888">
<time>2016-10-07T14:20:32Z</time></trkpt>
<trkpt lat="29.262268" lon="98.680948">
<time>2016-10-07T14:20:33Z</time></trkpt>
<trkpt lat="29.262268" lon="98.681008">
<time>2016-10-07T14:20:34Z</time></trkpt>
<trkpt lat="29.262268" lon="98.681087">
<time>2016-10-07T14:20:35Z</time></trkpt>
<trkpt lat="29.262258" lon="98.681177">
<time>2016-10-07T14:20:36Z</time></trkpt>
<trkpt lat="29.262247" lon="98.681307">
<time>2016-10-07T14:20:37Z</time></trkpt>
<trkpt lat="29.262227" lon="98.681496">
<time>2016-10-07T14:20:38Z</time></trkpt>
<trkpt lat="29.262207" lon="98.681676">
<time>2016-10-07T14:20:39Z</time></trkpt>
<trkpt lat="29.262186" lon="98.681835">
<time>2016-10-07T14:20:40Z</time></trkpt>
<trkpt lat="29.262176" lon="98.681905">
<time>2016-10-07T14:20:41Z</time></trkpt>
<trkpt lat="29.262166" lon="98.681975">
<time>2016-10-07T14:20:42Z</time></trkpt>
<trkpt lat="29.262156" lon="98.682025">
<time>2016-10-07T14:20:43Z</time></trkpt>
<trkpt lat="29.262146" lon="98.682055">
<time>2016-10-07T14:20:44Z</time></trkpt>
<trkpt lat="29.262136" lon="98.682065">
<time>2016-10-07T14:20:45Z</time></trkpt>
<trkpt lat="29.262126" lon="98.682095">
<time>2016-10-07T14:20:46Z</time></trkpt>
<trkpt lat="29.262116" lon="98.682115">
<time>2016-10-07T14:20:47Z</time></trkpt>
<trkpt lat="29.262106" lon="98.682134">
<time>2016-10-07T14:20:48Z</time></trkpt>
<trkpt lat="29.262086" lon="98.682164">
<time>2016-10-07T14:20:49Z</time></trkpt>
<trkpt lat="29.262066" lon="98.682184">
<time>2016-10-07T14:20:50Z</time></trkpt>
<trkpt lat="29.262036" lon="98.682204">
<time>2016-10-07T14:20:51Z</time></trkpt>
<trkpt lat="29.262016" lon="98.682224">
<time>2016-10-07T14:20:52Z</time></trkpt>
<trkpt lat="29.261996" lon="98.682224">
<time>2016-10-07T14:20:53Z</time></trkpt>
<trkpt lat="29.261976" lon="98.682234">
<time>2016-10-07T14:20:54Z</time></trkpt>
<trkpt lat="29.261956" lon="98.682244">
<time>2016-10-07T14:20:55Z</time></trkpt>
<trkpt lat="29.261916" lon="98.682254">
<time>2016-10-07T14:20:56Z</time></trkpt>
<trkpt lat="29.261856" lon="98.682264">
<time>2016-10-07T14:20:57Z</time></trkpt>
<trkpt lat="29.261786" lon="98.682274">
<time>2016-10-07T14:20:58Z</time></trkpt>
<trkpt lat="29.261716" lon="98.682294">
<time>2016-10-07T14:20:59Z</time></trkpt>
<trkpt lat="29.261666" lon="98.682304">
<time>2016-10-07T14:21:00Z</time></trkpt>
<trkpt lat="29.261636" lon="98.682314">
<time>2016-10-07T14:21:01Z</time></trkpt>
<trkpt lat="29.261606" lon="98.682334">
<time>2016-10-07T14:21:02Z</time></trkpt>
<trkpt lat="29.261576" lon="98.682354">
<time>2016-10-07T14:21:03Z</time></trkpt>
<trkpt lat="29.261546" lon="98.682384">
<time>2016-10-07T14:21:04Z</time></trkpt>
<trkpt lat="29.261536" lon="98.682414">
<time>2016-10-07T14:21:05Z</time></trkpt>
<trkpt lat="29.261516" lon="98.682444">
<time>2016-10-07T14:21:06Z</time></trkpt>
<trkpt lat="29.261506" lon="98.682474">
<time>2016-10-07T14:21:07Z</time></trkpt>
<trkpt lat="29.261496" lon="98.682523">
<time>2016-10-07T14:21:08Z</time></trkpt>
<trkpt lat="29.261495" lon="98.682563">
<time>2016-10-07T14:21:09Z</time></trkpt>
<trkpt lat="29.261525" lon="98.682623">
<time>2016-10-07T14:21:10Z</time></trkpt>
<trkpt lat="29.261565" lon="98.682663">
<time>2016-10-07T14:21:11Z</time></trkpt>
<trkpt lat="29.261595" lon="98.682693">
<time>2016-10-07T14:21:12Z</time></trkpt>
<trkpt lat="29.261615" lon="98.682713">
<time>2016-10-07T14:21:13Z</time></trkpt>
<trkpt lat="29.261645" lon="98.682723">
<time>2016-10-07T14:21:14Z</time></trkpt>
<trkpt lat="29.261715" lon="98.682733">
<time>2016-10-07T14:21:15Z</time></trkpt>
<trkpt lat="29.261765" lon="98.682743">
<time>2016-10-07T14:21:16Z</time></trkpt>
<trkpt lat="29.261845" lon="98.682743">
<time>2016-10-07T14:21:17Z</time></trkpt>
<trkpt lat="29.261915" lon="98.682743">
<time>2016-10-07T14:21:18Z</time></trkpt>
<trkpt lat="29.261965" lon="98.682743">
<time>2016-10-07T14:21:19Z</time></trkpt>
<trkpt lat="29.262015" lon="98.682733">
<time>2016-10-07T14:21:20Z</time></trkpt>
<trkpt lat="29.262075" lon="98.682713">
<time>2016-10-07T14:21:21Z</time></trkpt>
<trkpt lat="29.262125" lon="98.682693">
<time>2016-10-07T14:21:22Z</time></trkpt>
<trkpt lat="29.262195" lon="98.682673">
<time>2016-10-07T14:21:23Z</time></trkpt>
<trkpt lat="29.262235" lon="98.682653">
<time>2016-10-07T14:21:24Z</time></trkpt>
<trkpt lat="29.262285" lon="98.682623">
<time>2016-10-07T14:21:25Z</time></trkpt>
<trkpt lat="29.262305" lon="98.682603">
<time>2016-10-07T14:21:26Z</time></trkpt>
<trkpt lat="29.262365" lon="98.682553">
<time>2016-10-07T14:21:27Z</time></trkpt>
<trkpt lat="29.262405" lon="98.682513">
<time>2016-10-07T14:21:28Z</time></trkpt>
<trkpt lat="29.262435" lon="98.682474">
<time>2016-10-07T14:21:29Z</time></trkpt>
<trkpt lat="29.262485" lon="98.682384">
<time>2016-10-07T14:21:30Z</time></trkpt>
<trkpt lat="29.262515" lon="98.682304">
<time>2016-10-07T14:21:31Z</time></trkpt>
<trkpt lat="29.262535" lon="98.682244">
<time>2016-10-07T14:21:32Z</time></trkpt>
<trkpt lat="29.262545" lon="98.682194">
<time>2016-10-07T14:21:33Z</time></trkpt>
<trkpt lat="29.262576" lon="98.682055">
<time>2016-10-07T14:21:34Z</time></trkpt>
<trkpt lat="29.262606" lon="98.681915">
<time>2016-10-07T14:21:35Z</time></trkpt>
<trkpt lat="29.262626" lon="98.681825">
<time>2016-10-07T14:21:36Z</time></trkpt>
<trkpt lat="29.262677" lon="98.681576">
<time>2016-10-07T14:21:37Z</time></trkpt>
<trkpt lat="29.262717" lon="98.681267">
<time>2016-10-07T14:21:38Z</time></trkpt>
<trkpt lat="29.262758" lon="98.680958">
<time>2016-10-07T14:21:39Z</time></trkpt>
<trkpt lat="29.262768" lon="98.680908">
<time>2016-10-07T14:21:40Z</time></trkpt>
<trkpt lat="29.262828" lon="98.680748">
<time>2016-10-07T14:21:41Z</time></trkpt>
<trkpt lat="29.262918" lon="98.680549">
<time>2016-10-07T14:21:42Z</time></trkpt>
<trkpt lat="29.263029" lon="98.680359">
<time>2016-10-07T14:21:43Z</time></trkpt>
<trkpt lat="29.263109" lon="98.68026">
<time>2016-10-07T14:21:44Z</time></trkpt>
<trkpt lat="29.263219" lon="98.68015">
<time>2016-10-07T14:21:45Z</time></trkpt>
<trkpt lat="29.263319" lon="98.68007">
<time>2016-10-07T14:21:46Z</time></trkpt>
<trkpt lat="29.263409" lon="98.68001">
<time>2016-10-07T14:21:47Z</time></trkpt>
<trkpt lat="29.263509" lon="98.67996">
<time>2016-10-07T14:21:48Z</time></trkpt>
<trkpt lat="29.263609" lon="98.679931">
<time>2016-10-07T14:21:49Z</time></trkpt>
<trkpt lat="29.263719" lon="98.679901">
<time>2016-10-07T14:21:50Z</time></trkpt>
<trkpt lat="29.263859" lon="98.679881">
<time>2016-10-07T14:21:51Z</time></trkpt>
<trkpt lat="29.263979" lon="98.679881">
<time>2016-10-07T14:21:52Z</time></trkpt>
<trkpt lat="29.264069" lon="98.679881">
<time>2016-10-07T14:21:53Z</time></trkpt>
<trkpt lat="29.264179" lon="98.679901">
<time>2016-10-07T14:21:54Z</time></trkpt>
<trkpt lat="29.264299" lon="98.679921">
<time>2016-10-07T14:21:55Z</time></trkpt>
<trkpt lat="29.264478" lon="98.67996">
<time>2016-10-07T14:21:56Z</time></trkpt>
<trkpt lat="29.264678" lon="98.68">
<time>2016-10-07T14:21:57Z</time></trkpt>
<trkpt lat="29.264858" lon="98.68004">
<time>2016-10-07T14:21:58Z</time></trkpt>
<trkpt lat="29.264988" lon="98.68007">
<time>2016-10-07T14:21:59Z</time></trkpt>
<trkpt lat="29.265128" lon="98.6801">
<time>2016-10-07T14:22:00Z</time></trkpt>
<trkpt lat="29.265277" lon="98.68013">
<time>2016-10-07T14:22:01Z</time></trkpt>
<trkpt lat="29.265467" lon="98.68016">
<time>2016-10-07T14:22:02Z</time></trkpt>
<trkpt lat="29.265557" lon="98.68017">
<time>2016-10-07T14:22:03Z</time></trkpt>
<trkpt lat="29.265777" lon="98.68018">
<time>2016-10-07T14:22:04Z</time></trkpt>
<trkpt lat="29.266097" lon="98.68017">
<time>2016-10-07T14:22:05Z</time></trkpt>
<trkpt lat="29.266207" lon="98.68016">
<time>2016-10-07T14:22:06Z</time></trkpt>
<trkpt lat="29.266257" lon="98.68015">
<time>2016-10-07T14:22:07Z</time></trkpt>
<trkpt lat="29.266337" lon="98.68013">
<time>2016-10-07T14:22:08Z</time></trkpt>
<trkpt lat="29.266407" lon="98.6801">
<time>2016-10-07T14:22:09Z</time></trkpt>
<trkpt lat="29.266477" lon="98.68006">
<time>2016-10-07T14:22:10Z</time></trkpt>
<trkpt lat="29.266567" lon="98.67999">
<time>2016-10-07T14:22:11Z</time></trkpt>
<trkpt lat="29.266657" lon="98.679891">
<time>2016-10-07T14:22:12Z</time></trkpt>
<trkpt lat="29.266767" lon="98.679771">
<time>2016-10-07T14:22:13Z</time></trkpt>
<trkpt lat="29.266857" lon="98.679631">
<time>2016-10-07T14:22:14Z</time></trkpt>
<trkpt lat="29.266958" lon="98.679492">
<time>2016-10-07T14:22:15Z</time></trkpt>
<trkpt lat="29.267018" lon="98.679432">
<time>2016-10-07T14:22:16Z</time></trkpt>
<trkpt lat="29.267108" lon="98.679342">
<time>2016-10-07T14:22:17Z</time></trkpt>
<trkpt lat="29.267178" lon="98.679282">
<time>2016-10-07T14:22:18Z</time></trkpt>
<trkpt lat="29.267258" lon="98.679232">
<time>2016-10-07T14:22:19Z</time></trkpt>
<trkpt lat="29.267348" lon="98.679183">
<time>2016-10-07T14:22:20Z</time></trkpt>
<trkpt lat="29.267458" lon="98.679123">
<time>2016-10-07T14:22:21Z</time></trkpt>
<trkpt lat="29.267588" lon="98.679053">
<time>2016-10-07T14:22:22Z</time></trkpt>
<trkpt lat="29.267828" lon="98.678943">
<time>2016-10-07T14:22:23Z</time></trkpt>
<trkpt lat="29.267948" lon="98.678873">
<time>2016-10-07T14:22:24Z</time></trkpt>
<trkpt lat="29.268058" lon="98.678824">
<time>2016-10-07T14:22:25Z</time></trkpt>
<trkpt lat="29.268168" lon="98.678764">
<time>2016-10-07T14:22:26Z</time></trkpt>
<trkpt lat="29.268258" lon="98.678704">
<time>2016-10-07T14:22:27Z</time></trkpt>
<trkpt lat="29.268388" lon="98.678594">
<time>2016-10-07T14:22:28Z</time></trkpt>
<trkpt lat="29.268508" lon="98.678475">
<time>2016-10-07T14:22:29Z</time></trkpt>
<trkpt lat="29.268609" lon="98.678355">
<time>2016-10-07T14:22:30Z</time></trkpt>
<trkpt lat="29.268679" lon="98.678285">
<time>2016-10-07T14:22:31Z</time></trkpt>
<trkpt lat="29.268789" lon="98.678195">
<time>2016-10-07T14:22:32Z</time></trkpt>
<trkpt lat="29.268909" lon="98.678125">
<time>2016-10-07T14:22:33Z</time></trkpt>
<trkpt lat="29.268999" lon="98.678086">
<time>2016-10-07T14:22:34Z</time></trkpt>
<trkpt lat="29.269149" lon="98.678026">
<time>2016-10-07T14:22:35Z</time></trkpt>
<trkpt lat="29.269299" lon="98.677986">
<time>2016-10-07T14:22:36Z</time></trkpt>
<trkpt lat="29.269449" lon="98.677936">
<time>2016-10-07T14:22:37Z</time></trkpt>
<trkpt lat="29.269519" lon="98.677916">
<time>2016-10-07T14:22:38Z</time></trkpt>
<trkpt lat="29.269539" lon="98.677906">
<time>2016-10-07T14:22:39Z</time></trkpt>
<trkpt lat="29.269599" lon="98.677876">
<time>2016-10-07T14:22:40Z</time></trkpt>
<trkpt lat="29.269699" lon="98.677826">
<time>2016-10-07T14:22:41Z</time></trkpt>
<trkpt lat="29.269839" lon="98.677747">
<time>2016-10-07T14:22:42Z</time></trkpt>
<trkpt lat="29.269959" lon="98.677687">
<time>2016-10-07T14:22:43Z</time></trkpt>
<trkpt lat="29.270069" lon="98.677617">
<time>2016-10-07T14:22:44Z</time></trkpt>
<trkpt lat="29.270189" lon="98.677547">
<time>2016-10-07T14:22:45Z</time></trkpt>
<trkpt lat="29.270319" lon="98.677457">
<time>2016-10-07T14:22:46Z</time></trkpt>
<trkpt lat="29.270469" lon="98.677348">
<time>2016-10-07T14:22:47Z</time></trkpt>
<trkpt lat="29.270619" lon="98.677248">
<time>2016-10-07T14:22:48Z</time></trkpt>
<trkpt lat="29.270749" lon="98.677158">
<time>2016-10-07T14:22:49Z</time></trkpt>
<trkpt lat="29.270899" lon="98.677068">
<time>2016-10-07T14:22:50Z</time></trkpt>
<trkpt lat="29.27105" lon="98.676969">
<time>2016-10-07T14:22:51Z</time></trkpt>
<trkpt lat="29.2712" lon="98.676869">
<time>2016-10-07T14:22:52Z</time></trkpt>
<trkpt lat="29.27131" lon="98.676759">
<time>2016-10-07T14:22:53Z</time></trkpt>
<trkpt lat="29.27139" lon="98.676689">
<time>2016-10-07T14:22:54Z</time></trkpt>
<trkpt lat="29.27144" lon="98.67663">
<time>2016-10-07T14:22:55Z</time></trkpt>
<trkpt lat="29.27148" lon="98.67658">
<time>2016-10-07T14:22:56Z</time></trkpt>
<trkpt lat="29.27152" lon="98.6765">
<time>2016-10-07T14:22:57Z</time></trkpt>
<trkpt lat="29.27155" lon="98.67644">
<time>2016-10-07T14:22:58Z</time></trkpt>
<trkpt lat="29.27157" lon="98.6764">
<time>2016-10-07T14:22:59Z</time></trkpt>
<trkpt lat="29.27158" lon="98.67635">
<time>2016-10-07T14:23:00Z</time></trkpt>
<trkpt lat="29.2716" lon="98.676281">
<time>2016-10-07T14:23:01Z</time></trkpt>
<trkpt lat="29.271611" lon="98.676211">
<time>2016-10-07T14:23:02Z</time></trkpt>
<trkpt lat="29.271631" lon="98.676061">
<time>2016-10-07T14:23:03Z</time></trkpt>
<trkpt lat="29.271631" lon="98.676051">
<time>2016-10-07T14:23:04Z</time></trkpt>
<trkpt lat="29.271621" lon="98.676001">
<time>2016-10-07T14:23:05Z</time></trkpt>
<trkpt lat="29.271601" lon="98.675902">
<time>2016-10-07T14:23:06Z</time></trkpt>
<trkpt lat="29.271571" lon="98.675812">
<time>2016-10-07T14:23:07Z</time></trkpt>
<trkpt lat="29.271552" lon="98.675752">
<time>2016-10-07T14:23:08Z</time></trkpt>
<trkpt lat="29.271532" lon="98.675702">
<time>2016-10-07T14:23:09Z</time></trkpt>
<trkpt lat="29.271532" lon="98.675672">
<time>2016-10-07T14:23:10Z</time></trkpt>
<trkpt lat="29.271522" lon="98.675642">
<time>2016-10-07T14:23:11Z</time></trkpt>
<trkpt lat="29.271512" lon="98.675612">
<time>2016-10-07T14:23:12Z</time></trkpt>
<trkpt lat="29.271512" lon="98.675583">
<time>2016-10-07T14:23:13Z</time></trkpt>
<trkpt lat="29.271502" lon="98.675553">
<time>2016-10-07T14:23:14Z</time></trkpt>
<trkpt lat="29.271502" lon="98.675513">
<time>2016-10-07T14:23:15Z</time></trkpt>
<trkpt lat="29.271492" lon="98.675403">
<time>2016-10-07T14:23:16Z</time></trkpt>
<trkpt lat="29.271492" lon="98.675313">
<time>2016-10-07T14:23:17Z</time></trkpt>
<trkpt lat="29.271502" lon="98.675313">
<time>2016-10-07T14:23:18Z</time></trkpt>
<trkpt lat="29.271523" lon="98.675243">
<time>2016-10-07T14:23:19Z</time></trkpt>
<trkpt lat="29.271563" lon="98.675154">
<time>2016-10-07T14:23:20Z</time></trkpt>
<trkpt lat="29.271603" lon="98.675084">
<time>2016-10-07T14:23:21Z</time></trkpt>
<trkpt lat="29.271693" lon="98.674964">
<time>2016-10-07T14:23:22Z</time></trkpt>
<trkpt lat="29.271773" lon="98.674885">
<time>2016-10-07T14:23:23Z</time></trkpt>
<trkpt lat="29.271833" lon="98.674815">
<time>2016-10-07T14:23:24Z</time></trkpt>
<trkpt lat="29.271883" lon="98.674745">
<time>2016-10-07T14:23:25Z</time></trkpt>
<trkpt lat="29.271943" lon="98.674685">
<time>2016-10-07T14:23:26Z</time></trkpt>
<trkpt lat="29.271983" lon="98.674615">
<time>2016-10-07T14:23:27Z</time></trkpt>
<trkpt lat="29.272014" lon="98.674545">
<time>2016-10-07T14:23:28Z</time></trkpt>
<trkpt lat="29.272044" lon="98.674476">
<time>2016-10-07T14:23:29Z</time></trkpt>
<trkpt lat="29.272054" lon="98.674406">
<time>2016-10-07T14:23:30Z</time></trkpt>
<trkpt lat="29.272054" lon="98.674286">
<time>2016-10-07T14:23:31Z</time></trkpt>
<trkpt lat="29.272064" lon="98.674037">
<time>2016-10-07T14:23:32Z</time></trkpt>
<trkpt lat="29.272065" lon="98.673847">
<time>2016-10-07T14:23:33Z</time></trkpt>
<trkpt lat="29.272055" lon="98.673718">
<time>2016-10-07T14:23:34Z</time></trkpt>
<trkpt lat="29.272046" lon="98.673468">
<time>2016-10-07T14:23:35Z</time></trkpt>
<trkpt lat="29.272066" lon="98.673349">
<time>2016-10-07T14:23:36Z</time></trkpt>
<trkpt lat="29.272086" lon="98.673259">
<time>2016-10-07T14:23:37Z</time></trkpt>
<trkpt lat="29.272126" lon="98.673159">
<time>2016-10-07T14:23:38Z</time></trkpt>
<trkpt lat="29.272186" lon="98.67306">
<time>2016-10-07T14:23:39Z</time></trkpt>
<trkpt lat="29.272226" lon="98.67302">
<time>2016-10-07T14:23:40Z</time></trkpt>
<trkpt lat="29.272266" lon="98.67299">
<time>2016-10-07T14:23:41Z</time></trkpt>
<trkpt lat="29.272316" lon="98.67295">
<time>2016-10-07T14:23:42Z</time></trkpt>
<trkpt lat="29.272356" lon="98.67292">
<time>2016-10-07T14:23:43Z</time></trkpt>
<trkpt lat="29.272426" lon="98.67286">
<time>2016-10-07T14:23:44Z</time></trkpt>
<trkpt lat="29.272526" lon="98.67281">
<time>2016-10-07T14:23:45Z</time></trkpt>
<trkpt lat="29.272597" lon="98.67276">
<time>2016-10-07T14:23:46Z</time></trkpt>
<trkpt lat="29.272657" lon="98.672721">
<time>2016-10-07T14:23:47Z</time></trkpt>
<trkpt lat="29.272717" lon="98.672681">
<time>2016-10-07T14:23:48Z</time></trkpt>
<trkpt lat="29.272767" lon="98.672641">
<time>2016-10-07T14:23:49Z</time></trkpt>
<trkpt lat="29.272837" lon="98.672571">
<time>2016-10-07T14:23:50Z</time></trkpt>
<trkpt lat="29.272877" lon="98.672531">
<time>2016-10-07T14:23:51Z</time></trkpt>
<trkpt lat="29.272987" lon="98.672401">
<time>2016-10-07T14:23:52Z</time></trkpt>
<trkpt lat="29.273067" lon="98.672312">
<time>2016-10-07T14:23:53Z</time></trkpt>
<trkpt lat="29.273167" lon="98.672182">
<time>2016-10-07T14:23:54Z</time></trkpt>
<trkpt lat="29.273267" lon="98.672062">
<time>2016-10-07T14:23:55Z</time></trkpt>
<trkpt lat="29.273338" lon="98.671993">
<time>2016-10-07T14:23:56Z</time></trkpt>
<trkpt lat="29.273388" lon="98.671953">
<time>2016-10-07T14:23:57Z</time></trkpt>
<trkpt lat="29.273498" lon="98.671883">
<time>2016-10-07T14:23:58Z</time></trkpt>
<trkpt lat="29.273548" lon="98.671863">
<time>2016-10-07T14:23:59Z</time></trkpt>
<trkpt lat="29.273618" lon="98.671853">
<time>2016-10-07T14:24:00Z</time></trkpt>
<trkpt lat="29.273777" lon="98.671873">
<time>2016-10-07T14:24:01Z</time></trkpt>
<trkpt lat="29.273947" lon="98.671923">
<time>2016-10-07T14:24:02Z</time></trkpt>
<trkpt lat="29.274027" lon="98.671963">
<time>2016-10-07T14:24:03Z</time></trkpt>
<trkpt lat="29.274147" lon="98.672013">
<time>2016-10-07T14:24:04Z</time></trkpt>
<trkpt lat="29.274227" lon="98.672062">
<time>2016-10-07T14:24:05Z</time></trkpt>
<trkpt lat="29.274337" lon="98.672132">
<time>2016-10-07T14:24:06Z</time></trkpt>
<trkpt lat="29.274416" lon="98.672182">
<time>2016-10-07T14:24:07Z</time></trkpt>
<trkpt lat="29.274546" lon="98.672262">
<time>2016-10-07T14:24:08Z</time></trkpt>
<trkpt lat="29.274746" lon="98.672371">
<time>2016-10-07T14:24:09Z</time></trkpt>
<trkpt lat="29.274965" lon="98.672501">
<time>2016-10-07T14:24:10Z</time></trkpt>
<trkpt lat="29.275005" lon="98.672521">
<time>2016-10-07T14:24:11Z</time></trkpt>
<trkpt lat="29.275075" lon="98.672531">
<time>2016-10-07T14:24:12Z</time></trkpt>
<trkpt lat="29.275145" lon="98.672521">
<time>2016-10-07T14:24:13Z</time></trkpt>
<trkpt lat="29.275285" lon="98.672521">
<time>2016-10-07T14:24:14Z</time></trkpt>
<trkpt lat="29.275395" lon="98.672531">
<time>2016-10-07T14:24:15Z</time></trkpt>
<trkpt lat="29.275525" lon="98.672531">
<time>2016-10-07T14:24:16Z</time></trkpt>
<trkpt lat="29.275695" lon="98.672541">
<time>2016-10-07T14:24:17Z</time></trkpt>
<trkpt lat="29.275915" lon="98.672531">
<time>2016-10-07T14:24:18Z</time></trkpt>
<trkpt lat="29.276115" lon="98.672541">
<time>2016-10-07T14:24:19Z</time></trkpt>
<trkpt lat="29.276334" lon="98.672561">
<time>2016-10-07T14:24:20Z</time></trkpt>
<trkpt lat="29.276664" lon="98.672571">
<time>2016-10-07T14:24:21Z</time></trkpt>
<trkpt lat="29.276914" lon="98.672571">
<time>2016-10-07T14:24:22Z</time></trkpt>
<trkpt lat="29.277114" lon="98.672571">
<time>2016-10-07T14:24:23Z</time></trkpt>
<trkpt lat="29.277234" lon="98.672591">
<time>2016-10-07T14:24:24Z</time></trkpt>
<trkpt lat="29.277394" lon="98.672591">
<time>2016-10-07T14:24:25Z</time></trkpt>
<trkpt lat="29.277534" lon="98.672591">
<time>2016-10-07T14:24:26Z</time></trkpt>
<trkpt lat="29.277613" lon="98.672591">
<time>2016-10-07T14:24:27Z</time></trkpt>
<trkpt lat="29.277693" lon="98.672581">
<time>2016-10-07T14:24:28Z</time></trkpt>
<trkpt lat="29.277763" lon="98.672551">
<time>2016-10-07T14:24:29Z</time></trkpt>
<trkpt lat="29.277843" lon="98.672511">
<time>2016-10-07T14:24:30Z</time></trkpt>
<trkpt lat="29.277904" lon="98.672471">
<time>2016-10-07T14:24:31Z</time></trkpt>
<trkpt lat="29.277954" lon="98.672421">
<time>2016-10-07T14:24:32Z</time></trkpt>
<trkpt lat="29.277994" lon="98.672371">
<time>2016-10-07T14:24:33Z</time></trkpt>
<trkpt lat="29.278024" lon="98.672312">
<time>2016-10-07T14:24:34Z</time></trkpt>
<trkpt lat="29.278074" lon="98.672232">
<time>2016-10-07T14:24:35Z</time></trkpt>
<trkpt lat="29.278134" lon="98.672072">
<time>2016-10-07T14:24:36Z</time></trkpt>
<trkpt lat="29.278204" lon="98.671903">
<time>2016-10-07T14:24:37Z</time></trkpt>
<trkpt lat="29.278295" lon="98.671793">
<time>2016-10-07T14:24:38Z</time></trkpt>
<trkpt lat="29.278405" lon="98.671683">
<time>2016-10-07T14:24:39Z</time></trkpt>
<trkpt lat="29.278475" lon="98.671643">
<time>2016-10-07T14:24:40Z</time></trkpt>
<trkpt lat="29.278525" lon="98.671624">
<time>2016-10-07T14:24:41Z</time></trkpt>
<trkpt lat="29.278615" lon="98.671604">
<time>2016-10-07T14:24:42Z</time></trkpt>
<trkpt lat="29.278675" lon="98.671604">
<time>2016-10-07T14:24:43Z</time></trkpt>
<trkpt lat="29.278725" lon="98.671604">
<time>2016-10-07T14:24:44Z</time></trkpt>
<trkpt lat="29.278805" lon="98.671614">
<time>2016-10-07T14:24:45Z</time></trkpt>
<trkpt lat="29.278914" lon="98.671643">
<time>2016-10-07T14:24:46Z</time></trkpt>
<trkpt lat="29.278984" lon="98.671653">
<time>2016-10-07T14:24:47Z</time></trkpt>
<trkpt lat="29.279064" lon="98.671673">
<time>2016-10-07T14:24:48Z</time></trkpt>
<trkpt lat="29.279134" lon="98.671673">
<time>2016-10-07T14:24:49Z</time></trkpt>
<trkpt lat="29.279204" lon="98.671673">
<time>2016-10-07T14:24:50Z</time></trkpt>
<trkpt lat="29.279274" lon="98.671653">
<time>2016-10-07T14:24:51Z</time></trkpt>
<trkpt lat="29.279314" lon="98.671624">
<time>2016-10-07T14:24:52Z</time></trkpt>
<trkpt lat="29.279394" lon="98.671574">
<time>2016-10-07T14:24:53Z</time></trkpt>
<trkpt lat="29.279474" lon="98.671494">
<time>2016-10-07T14:24:54Z</time></trkpt>
<trkpt lat="29.279524" lon="98.671384">
<time>2016-10-07T14:24:55Z</time></trkpt>
<trkpt lat="29.279575" lon="98.671294">
<time>2016-10-07T14:24:56Z</time></trkpt>
<trkpt lat="29.279635" lon="98.671165">
<time>2016-10-07T14:24:57Z</time></trkpt>
<trkpt lat="29.279685" lon="98.671095">
<time>2016-10-07T14:24:58Z</time></trkpt>
<trkpt lat="29.279745" lon="98.671015">
<time>2016-10-07T14:24:59Z</time></trkpt>
<trkpt lat="29.279795" lon="98.670955">
<time>2016-10-07T14:25:00Z</time></trkpt>
<trkpt lat="29.279885" lon="98.670886">
<time>2016-10-07T14:25:01Z</time></trkpt>
<trkpt lat="29.279985" lon="98.670806">
<time>2016-10-07T14:25:02Z</time></trkpt>
<trkpt lat="29.280035" lon="98.670756">
<time>2016-10-07T14:25:03Z</time></trkpt>
<trkpt lat="29.280115" lon="98.670686">
<time>2016-10-07T14:25:04Z</time></trkpt>
<trkpt lat="29.280206" lon="98.670606">
<time>2016-10-07T14:25:05Z</time></trkpt>
<trkpt lat="29.280296" lon="98.670537">
<time>2016-10-07T14:25:06Z</time></trkpt>
<trkpt lat="29.280346" lon="98.670497">
<time>2016-10-07T14:25:07Z</time></trkpt>
<trkpt lat="29.280456" lon="98.670407">
<time>2016-10-07T14:25:08Z</time></trkpt>
<trkpt lat="29.280596" lon="98.670307">
<time>2016-10-07T14:25:09Z</time></trkpt>
<trkpt lat="29.280766" lon="98.670188">
<time>2016-10-07T14:25:10Z</time></trkpt>
<trkpt lat="29.280946" lon="98.670048">
<time>2016-10-07T14:25:11Z</time></trkpt>
<trkpt lat="29.281076" lon="98.669938">
<time>2016-10-07T14:25:12Z</time></trkpt>
<trkpt lat="29.281216" lon="98.669848">
<time>2016-10-07T14:25:13Z</time></trkpt>
<trkpt lat="29.281296" lon="98.669789">
<time>2016-10-07T14:25:14Z</time></trkpt>
<trkpt lat="29.281306" lon="98.669789">
<time>2016-10-07T14:25:15Z</time></trkpt>
<trkpt lat="29.281306" lon="98.669789">
<time>2016-10-07T14:25:16Z</time></trkpt>
<trkpt lat="29.281396" lon="98.669749">
<time>2016-10-07T14:25:17Z</time></trkpt>
<trkpt lat="29.281546" lon="98.669659">
<time>2016-10-07T14:25:18Z</time></trkpt>
<trkpt lat="29.281586" lon="98.669639">
<time>2016-10-07T14:25:19Z</time></trkpt>
<trkpt lat="29.281616" lon="98.669629">
<time>2016-10-07T14:25:20Z</time></trkpt>
<trkpt lat="29.281646" lon="98.669629">
<time>2016-10-07T14:25:21Z</time></trkpt>
<trkpt lat="29.281656" lon="98.669629">
<time>2016-10-07T14:25:22Z</time></trkpt>
<trkpt lat="29.281686" lon="98.669639">
<time>2016-10-07T14:25:23Z</time></trkpt>
<trkpt lat="29.281696" lon="98.669659">
<time>2016-10-07T14:25:24Z</time></trkpt>
<trkpt lat="29.281716" lon="98.669679">
<time>2016-10-07T14:25:25Z</time></trkpt>
<trkpt lat="29.281756" lon="98.669739">
<time>2016-10-07T14:25:26Z</time></trkpt>
<trkpt lat="29.281796" lon="98.669789">
<time>2016-10-07T14:25:27Z</time></trkpt>
<trkpt lat="29.281836" lon="98.669819">
<time>2016-10-07T14:25:28Z</time></trkpt>
<trkpt lat="29.281856" lon="98.669848">
<time>2016-10-07T14:25:29Z</time></trkpt>
<trkpt lat="29.281896" lon="98.669878">
<time>2016-10-07T14:25:30Z</time></trkpt>
<trkpt lat="29.281996" lon="98.669938">
<time>2016-10-07T14:25:31Z</time></trkpt>
<trkpt lat="29.282085" lon="98.669998">
<time>2016-10-07T14:25:32Z</time></trkpt>
<trkpt lat="29.282195" lon="98.670048">
<time>2016-10-07T14:25:33Z</time></trkpt>
<trkpt lat="29.282305" lon="98.670108">
<time>2016-10-07T14:25:34Z</time></trkpt>
<trkpt lat="29.282425" lon="98.670168">
<time>2016-10-07T14:25:35Z</time></trkpt>
<trkpt lat="29.282535" lon="98.670217">
<time>2016-10-07T14:25:36Z</time></trkpt>
<trkpt lat="29.282684" lon="98.670297">
<time>2016-10-07T14:25:37Z</time></trkpt>
<trkpt lat="29.282894" lon="98.670397">
<time>2016-10-07T14:25:38Z</time></trkpt>
<trkpt lat="29.283044" lon="98.670477">
<time>2016-10-07T14:25:39Z</time></trkpt>
<trkpt lat="29.283174" lon="98.670536">
<time>2016-10-07T14:25:40Z</time></trkpt>
<trkpt lat="29.283313" lon="98.670596">
<time>2016-10-07T14:25:41Z</time></trkpt>
<trkpt lat="29.283433" lon="98.670666">
<time>2016-10-07T14:25:42Z</time></trkpt>
<trkpt lat="29.283513" lon="98.670726">
<time>2016-10-07T14:25:43Z</time></trkpt>
<trkpt lat="29.283623" lon="98.670806">
<time>2016-10-07T14:25:44Z</time></trkpt>
<trkpt lat="29.283733" lon="98.670886">
<time>2016-10-07T14:25:45Z</time></trkpt>
<trkpt lat="29.283822" lon="98.670965">
<time>2016-10-07T14:25:46Z</time></trkpt>
<trkpt lat="29.283942" lon="98.671105">
<time>2016-10-07T14:25:47Z</time></trkpt>
<trkpt lat="29.284052" lon="98.671215">
<time>2016-10-07T14:25:48Z</time></trkpt>
<trkpt lat="29.284151" lon="98.671344">
<time>2016-10-07T14:25:49Z</time></trkpt>
<trkpt lat="29.284241" lon="98.671484">
<time>2016-10-07T14:25:50Z</time></trkpt>
<trkpt lat="29.284321" lon="98.671633">
<time>2016-10-07T14:25:51Z</time></trkpt>
<trkpt lat="29.284381" lon="98.671743">
<time>2016-10-07T14:25:52Z</time></trkpt>
<trkpt lat="29.28448" lon="98.671893">
<time>2016-10-07T14:25:53Z</time></trkpt>
<trkpt lat="29.28457" lon="98.672082">
<time>2016-10-07T14:25:54Z</time></trkpt>
<trkpt lat="29.28464" lon="98.672202">
<time>2016-10-07T14:25:55Z</time></trkpt>
<trkpt lat="29.284679" lon="98.672272">
<time>2016-10-07T14:25:56Z</time></trkpt>
<trkpt lat="29.284749" lon="98.672371">
<time>2016-10-07T14:25:57Z</time></trkpt>
<trkpt lat="29.284819" lon="98.672471">
<time>2016-10-07T14:25:58Z</time></trkpt>
<trkpt lat="29.284859" lon="98.672521">
<time>2016-10-07T14:25:59Z</time></trkpt>
<trkpt lat="29.284919" lon="98.672581">
<time>2016-10-07T14:26:00Z</time></trkpt>
<trkpt lat="29.284988" lon="98.672631">
<time>2016-10-07T14:26:01Z</time></trkpt>
<trkpt lat="29.285028" lon="98.672661">
<time>2016-10-07T14:26:02Z</time></trkpt>
<trkpt lat="29.285128" lon="98.67271">
<time>2016-10-07T14:26:03Z</time></trkpt>
<trkpt lat="29.285198" lon="98.67276">
<time>2016-10-07T14:26:04Z</time></trkpt>
<trkpt lat="29.285318" lon="98.67282">
<time>2016-10-07T14:26:05Z</time></trkpt>
<trkpt lat="29.285388" lon="98.67286">
<time>2016-10-07T14:26:06Z</time></trkpt>
<trkpt lat="29.285428" lon="98.67289">
<time>2016-10-07T14:26:07Z</time></trkpt>
<trkpt lat="29.285448" lon="98.67291">
<time>2016-10-07T14:26:08Z</time></trkpt>
<trkpt lat="29.285488" lon="98.67295">
<time>2016-10-07T14:26:09Z</time></trkpt>
<trkpt lat="29.285527" lon="98.673">
<time>2016-10-07T14:26:10Z</time></trkpt>
<trkpt lat="29.285557" lon="98.673049">
<time>2016-10-07T14:26:11Z</time></trkpt>
<trkpt lat="29.285577" lon="98.673129">
<time>2016-10-07T14:26:12Z</time></trkpt>
<trkpt lat="29.285597" lon="98.673219">
<time>2016-10-07T14:26:13Z</time></trkpt>
<trkpt lat="29.285607" lon="98.673329">
<time>2016-10-07T14:26:14Z</time></trkpt>
<trkpt lat="29.285606" lon="98.673478">
<time>2016-10-07T14:26:15Z</time></trkpt>
<trkpt lat="29.285596" lon="98.673548">
<time>2016-10-07T14:26:16Z</time></trkpt>
<trkpt lat="29.285596" lon="98.673608">
<time>2016-10-07T14:26:17Z</time></trkpt>
<trkpt lat="29.285596" lon="98.673668">
<time>2016-10-07T14:26:18Z</time></trkpt>
<trkpt lat="29.285606" lon="98.673728">
<time>2016-10-07T14:26:19Z</time></trkpt>
<trkpt lat="29.285616" lon="98.673787">
<time>2016-10-07T14:26:20Z</time></trkpt>
<trkpt lat="29.285636" lon="98.673867">
<time>2016-10-07T14:26:21Z</time></trkpt>
<trkpt lat="29.285675" lon="98.673977">
<time>2016-10-07T14:26:22Z</time></trkpt>
<trkpt lat="29.285745" lon="98.674086">
<time>2016-10-07T14:26:23Z</time></trkpt>
<trkpt lat="29.285825" lon="98.674176">
<time>2016-10-07T14:26:24Z</time></trkpt>
<trkpt lat="29.285915" lon="98.674256">
<time>2016-10-07T14:26:25Z</time></trkpt>
<trkpt lat="29.286015" lon="98.674326">
<time>2016-10-07T14:26:26Z</time></trkpt>
<trkpt lat="29.286094" lon="98.674386">
<time>2016-10-07T14:26:27Z</time></trkpt>
<trkpt lat="29.286174" lon="98.674455">
<time>2016-10-07T14:26:28Z</time></trkpt>
<trkpt lat="29.286194" lon="98.674485">
<time>2016-10-07T14:26:29Z</time></trkpt>
<trkpt lat="29.286234" lon="98.674515">
<time>2016-10-07T14:26:30Z</time></trkpt>
<trkpt lat="29.286254" lon="98.674565">
<time>2016-10-07T14:26:31Z</time></trkpt>
<trkpt lat="29.286294" lon="98.674625">
<time>2016-10-07T14:26:32Z</time></trkpt>
<trkpt lat="29.286324" lon="98.674685">
<time>2016-10-07T14:26:33Z</time></trkpt>
<trkpt lat="29.286343" lon="98.674765">
<time>2016-10-07T14:26:34Z</time></trkpt>
<trkpt lat="29.286363" lon="98.674904">
<time>2016-10-07T14:26:35Z</time></trkpt>
<trkpt lat="29.286373" lon="98.674994">
<time>2016-10-07T14:26:36Z</time></trkpt>
<trkpt lat="29.286383" lon="98.675144">
<time>2016-10-07T14:26:37Z</time></trkpt>
<trkpt lat="29.286382" lon="98.675263">
<time>2016-10-07T14:26:38Z</time></trkpt>
<trkpt lat="29.286402" lon="98.675363">
<time>2016-10-07T14:26:39Z</time></trkpt>
<trkpt lat="29.286422" lon="98.675453">
<time>2016-10-07T14:26:40Z</time></trkpt>
<trkpt lat="29.286462" lon="98.675602">
<time>2016-10-07T14:26:41Z</time></trkpt>
<trkpt lat="29.286511" lon="98.675762">
<time>2016-10-07T14:26:42Z</time></trkpt>
<trkpt lat="29.286591" lon="98.675901">
<time>2016-10-07T14:26:43Z</time></trkpt>
<trkpt lat="29.286651" lon="98.676001">
<time>2016-10-07T14:26:44Z</time></trkpt>
<trkpt lat="29.286741" lon="98.676101">
<time>2016-10-07T14:26:45Z</time></trkpt>
<trkpt lat="29.28684" lon="98.676201">
<time>2016-10-07T14:26:46Z</time></trkpt>
<trkpt lat="29.28691" lon="98.67625">
<time>2016-10-07T14:26:47Z</time></trkpt>
<trkpt lat="29.28702" lon="98.67633">
<time>2016-10-07T14:26:48Z</time></trkpt>
<trkpt lat="29.28707" lon="98.67636">
<time>2016-10-07T14:26:49Z</time></trkpt>
<trkpt lat="29.28717" lon="98.67641">
<time>2016-10-07T14:26:50Z</time></trkpt>
<trkpt lat="29.28728" lon="98.67645">
<time>2016-10-07T14:26:51Z</time></trkpt>
<trkpt lat="29.287389" lon="98.67647">
<time>2016-10-07T14:26:52Z</time></trkpt>
<trkpt lat="29.287509" lon="98.67648">
<time>2016-10-07T14:26:53Z</time></trkpt>
<trkpt lat="29.287639" lon="98.67648">
<time>2016-10-07T14:26:54Z</time></trkpt>
<trkpt lat="29.287749" lon="98.67647">
<time>2016-10-07T14:26:55Z</time></trkpt>
<trkpt lat="29.287829" lon="98.67645">
<time>2016-10-07T14:26:56Z</time></trkpt>
<trkpt lat="29.287889" lon="98.67643">
<time>2016-10-07T14:26:57Z</time></trkpt>
<trkpt lat="29.287989" lon="98.67639">
<time>2016-10-07T14:26:58Z</time></trkpt>
<trkpt lat="29.288149" lon="98.67631">
<time>2016-10-07T14:26:59Z</time></trkpt>
<trkpt lat="29.288259" lon="98.67625">
<time>2016-10-07T14:27:00Z</time></trkpt>
<trkpt lat="29.288409" lon="98.676161">
<time>2016-10-07T14:27:01Z</time></trkpt>
<trkpt lat="29.288499" lon="98.676111">
<time>2016-10-07T14:27:02Z</time></trkpt>
<trkpt lat="29.288609" lon="98.676061">
<time>2016-10-07T14:27:03Z</time></trkpt>
<trkpt lat="29.28873" lon="98.676001">
<time>2016-10-07T14:27:04Z</time></trkpt>
<trkpt lat="29.28886" lon="98.675931">
<time>2016-10-07T14:27:05Z</time></trkpt>
<trkpt lat="29.28897" lon="98.675881">
<time>2016-10-07T14:27:06Z</time></trkpt>
<trkpt lat="29.28908" lon="98.675832">
<time>2016-10-07T14:27:07Z</time></trkpt>
<trkpt lat="29.28916" lon="98.675802">
<time>2016-10-07T14:27:08Z</time></trkpt>
<trkpt lat="29.28925" lon="98.675772">
<time>2016-10-07T14:27:09Z</time></trkpt>
<trkpt lat="29.28934" lon="98.675772">
<time>2016-10-07T14:27:10Z</time></trkpt>
<trkpt lat="29.289419" lon="98.675792">
<time>2016-10-07T14:27:11Z</time></trkpt>
<trkpt lat="29.289479" lon="98.675812">
<time>2016-10-07T14:27:12Z</time></trkpt>
<trkpt lat="29.289539" lon="98.675842">
<time>2016-10-07T14:27:13Z</time></trkpt>
<trkpt lat="29.289589" lon="98.675891">
<time>2016-10-07T14:27:14Z</time></trkpt>
<trkpt lat="29.289649" lon="98.675951">
<time>2016-10-07T14:27:15Z</time></trkpt>
<trkpt lat="29.289689" lon="98.676021">
<time>2016-10-07T14:27:16Z</time></trkpt>
<trkpt lat="29.289709" lon="98.676081">
<time>2016-10-07T14:27:17Z</time></trkpt>
<trkpt lat="29.289758" lon="98.67621">
<time>2016-10-07T14:27:18Z</time></trkpt>
<trkpt lat="29.289798" lon="98.67633">
<time>2016-10-07T14:27:19Z</time></trkpt>
<trkpt lat="29.289838" lon="98.67645">
<time>2016-10-07T14:27:20Z</time></trkpt>
<trkpt lat="29.289888" lon="98.676579">
<time>2016-10-07T14:27:21Z</time></trkpt>
<trkpt lat="29.289917" lon="98.676639">
<time>2016-10-07T14:27:22Z</time></trkpt>
<trkpt lat="29.289947" lon="98.676689">
<time>2016-10-07T14:27:23Z</time></trkpt>
<trkpt lat="29.289997" lon="98.676759">
<time>2016-10-07T14:27:24Z</time></trkpt>
<trkpt lat="29.290067" lon="98.676829">
<time>2016-10-07T14:27:25Z</time></trkpt>
<trkpt lat="29.290147" lon="98.676899">
<time>2016-10-07T14:27:26Z</time></trkpt>
<trkpt lat="29.290257" lon="98.676958">
<time>2016-10-07T14:27:27Z</time></trkpt>
<trkpt lat="29.290327" lon="98.676998">
<time>2016-10-07T14:27:28Z</time></trkpt>
<trkpt lat="29.290386" lon="98.677018">
<time>2016-10-07T14:27:29Z</time></trkpt>
<trkpt lat="29.290456" lon="98.677038">
<time>2016-10-07T14:27:30Z</time></trkpt>
<trkpt lat="29.290536" lon="98.677048">
<time>2016-10-07T14:27:31Z</time></trkpt>
<trkpt lat="29.290646" lon="98.677048">
<time>2016-10-07T14:27:32Z</time></trkpt>
<trkpt lat="29.290726" lon="98.677028">
<time>2016-10-07T14:27:33Z</time></trkpt>
<trkpt lat="29.290836" lon="98.676998">
<time>2016-10-07T14:27:34Z</time></trkpt>
<trkpt lat="29.290936" lon="98.676948">
<time>2016-10-07T14:27:35Z</time></trkpt>
<trkpt lat="29.291016" lon="98.676899">
<time>2016-10-07T14:27:36Z</time></trkpt>
<trkpt lat="29.291086" lon="98.676829">
<time>2016-10-07T14:27:37Z</time></trkpt>
<trkpt lat="29.291176" lon="98.676729">
<time>2016-10-07T14:27:38Z</time></trkpt>
<trkpt lat="29.291237" lon="98.676629">
<time>2016-10-07T14:27:39Z</time></trkpt>
<trkpt lat="29.291297" lon="98.67653">
<time>2016-10-07T14:27:40Z</time></trkpt>
<trkpt lat="29.291397" lon="98.67632">
<time>2016-10-07T14:27:41Z</time></trkpt>
<trkpt lat="29.291457" lon="98.67621">
<time>2016-10-07T14:27:42Z</time></trkpt>
<trkpt lat="29.291517" lon="98.676121">
<time>2016-10-07T14:27:43Z</time></trkpt>
<trkpt lat="29.291568" lon="98.676051">
<time>2016-10-07T14:27:44Z</time></trkpt>
<trkpt lat="29.291638" lon="98.675971">
<time>2016-10-07T14:27:45Z</time></trkpt>
<trkpt lat="29.291698" lon="98.675901">
<time>2016-10-07T14:27:46Z</time></trkpt>
<trkpt lat="29.291758" lon="98.675871">
<time>2016-10-07T14:27:47Z</time></trkpt>
<trkpt lat="29.291808" lon="98.675841">
<time>2016-10-07T14:27:48Z</time></trkpt>
<trkpt lat="29.291868" lon="98.675802">
<time>2016-10-07T14:27:49Z</time></trkpt>
<trkpt lat="29.291938" lon="98.675752">
<time>2016-10-07T14:27:50Z</time></trkpt>
<trkpt lat="29.292028" lon="98.675702">
<time>2016-10-07T14:27:51Z</time></trkpt>
<trkpt lat="29.292178" lon="98.675612">
<time>2016-10-07T14:27:52Z</time></trkpt>
<trkpt lat="29.292278" lon="98.675552">
<time>2016-10-07T14:27:53Z</time></trkpt>
<trkpt lat="29.292368" lon="98.675502">
<time>2016-10-07T14:27:54Z</time></trkpt>
<trkpt lat="29.292488" lon="98.675433">
<time>2016-10-07T14:27:55Z</time></trkpt>
<trkpt lat="29.292548" lon="98.675393">
<time>2016-10-07T14:27:56Z</time></trkpt>
<trkpt lat="29.292608" lon="98.675343">
<time>2016-10-07T14:27:57Z</time></trkpt>
<trkpt lat="29.292658" lon="98.675303">
<time>2016-10-07T14:27:58Z</time></trkpt>
<trkpt lat="29.292718" lon="98.675243">
<time>2016-10-07T14:27:59Z</time></trkpt>
<trkpt lat="29.292758" lon="98.675193">
<time>2016-10-07T14:28:00Z</time></trkpt>
<trkpt lat="29.292788" lon="98.675143">
<time>2016-10-07T14:28:01Z</time></trkpt>
<trkpt lat="29.292809" lon="98.675104">
<time>2016-10-07T14:28:02Z</time></trkpt>
<trkpt lat="29.292829" lon="98.675064">
<time>2016-10-07T14:28:03Z</time></trkpt>
<trkpt lat="29.292849" lon="98.674974">
<time>2016-10-07T14:28:04Z</time></trkpt>
<trkpt lat="29.292869" lon="98.674914">
<time>2016-10-07T14:28:05Z</time></trkpt>
<trkpt lat="29.292879" lon="98.674854">
<time>2016-10-07T14:28:06Z</time></trkpt>
<trkpt lat="29.292879" lon="98.674814">
<time>2016-10-07T14:28:07Z</time></trkpt>
<trkpt lat="29.292879" lon="98.674764">
<time>2016-10-07T14:28:08Z</time></trkpt>
<trkpt lat="29.292879" lon="98.674695">
<time>2016-10-07T14:28:09Z</time></trkpt>
<trkpt lat="29.292869" lon="98.674615">
<time>2016-10-07T14:28:10Z</time></trkpt>
<trkpt lat="29.29285" lon="98.674545">
<time>2016-10-07T14:28:11Z</time></trkpt>
<trkpt lat="29.29284" lon="98.674495">
<time>2016-10-07T14:28:12Z</time></trkpt>
<trkpt lat="29.29281" lon="98.674425">
<time>2016-10-07T14:28:13Z</time></trkpt>
<trkpt lat="29.29277" lon="98.674356">
<time>2016-10-07T14:28:14Z</time></trkpt>
<trkpt lat="29.29272" lon="98.674286">
<time>2016-10-07T14:28:15Z</time></trkpt>
<trkpt lat="29.29268" lon="98.674236">
<time>2016-10-07T14:28:16Z</time></trkpt>
<trkpt lat="29.29263" lon="98.674196">
<time>2016-10-07T14:28:17Z</time></trkpt>
<trkpt lat="29.29258" lon="98.674156">
<time>2016-10-07T14:28:18Z</time></trkpt>
<trkpt lat="29.292501" lon="98.674086">
<time>2016-10-07T14:28:19Z</time></trkpt>
<trkpt lat="29.292441" lon="98.674046">
<time>2016-10-07T14:28:20Z</time></trkpt>
<trkpt lat="29.292401" lon="98.674017">
<time>2016-10-07T14:28:21Z</time></trkpt>
<trkpt lat="29.292361" lon="98.673977">
<time>2016-10-07T14:28:22Z</time></trkpt>
<trkpt lat="29.292331" lon="98.673947">
<time>2016-10-07T14:28:23Z</time></trkpt>
<trkpt lat="29.292311" lon="98.673867">
<time>2016-10-07T14:28:24Z</time></trkpt>
<trkpt lat="29.292301" lon="98.673827">
<time>2016-10-07T14:28:25Z</time></trkpt>
<trkpt lat="29.292301" lon="98.673787">
<time>2016-10-07T14:28:26Z</time></trkpt>
<trkpt lat="29.292301" lon="98.673747">
<time>2016-10-07T14:28:27Z</time></trkpt>
<trkpt lat="29.292322" lon="98.673707">
<time>2016-10-07T14:28:28Z</time></trkpt>
<trkpt lat="29.292352" lon="98.673648">
<time>2016-10-07T14:28:29Z</time></trkpt>
<trkpt lat="29.292402" lon="98.673608">
<time>2016-10-07T14:28:30Z</time></trkpt>
<trkpt lat="29.292452" lon="98.673598">
<time>2016-10-07T14:28:31Z</time></trkpt>
<trkpt lat="29.292492" lon="98.673588">
<time>2016-10-07T14:28:32Z</time></trkpt>
<trkpt lat="29.292542" lon="98.673598">
<time>2016-10-07T14:28:33Z</time></trkpt>
<trkpt lat="29.292582" lon="98.673628">
<time>2016-10-07T14:28:34Z</time></trkpt>
<trkpt lat="29.292651" lon="98.673687">
<time>2016-10-07T14:28:35Z</time></trkpt>
<trkpt lat="29.292661" lon="98.673707">
<time>2016-10-07T14:28:36Z</time></trkpt>
<trkpt lat="29.292811" lon="98.673897">
<time>2016-10-07T14:28:37Z</time></trkpt>
<trkpt lat="29.29293" lon="98.674056">
<time>2016-10-07T14:28:38Z</time></trkpt>
<trkpt lat="29.29301" lon="98.674166">
<time>2016-10-07T14:28:39Z</time></trkpt>
<trkpt lat="29.29306" lon="98.674256">
<time>2016-10-07T14:28:40Z</time></trkpt>
<trkpt lat="29.29312" lon="98.674316">
<time>2016-10-07T14:28:41Z</time></trkpt>
<trkpt lat="29.29321" lon="98.674445">
<time>2016-10-07T14:28:42Z</time></trkpt>
<trkpt lat="29.293299" lon="98.674565">
<time>2016-10-07T14:28:43Z</time></trkpt>
<trkpt lat="29.293359" lon="98.674655">
<time>2016-10-07T14:28:44Z</time></trkpt>
<trkpt lat="29.293379" lon="98.674695">
<time>2016-10-07T14:28:45Z</time></trkpt>
<trkpt lat="29.293409" lon="98.674784">
<time>2016-10-07T14:28:46Z</time></trkpt>
<trkpt lat="29.293419" lon="98.674834">
<time>2016-10-07T14:28:47Z</time></trkpt>
<trkpt lat="29.293419" lon="98.674884">
<time>2016-10-07T14:28:48Z</time></trkpt>
<trkpt lat="29.293418" lon="98.674934">
<time>2016-10-07T14:28:49Z</time></trkpt>
<trkpt lat="29.293418" lon="98.674984">
<time>2016-10-07T14:28:50Z</time></trkpt>
<trkpt lat="29.293408" lon="98.675044">
<time>2016-10-07T14:28:51Z</time></trkpt>
<trkpt lat="29.293398" lon="98.675084">
<time>2016-10-07T14:28:52Z</time></trkpt>
<trkpt lat="29.293378" lon="98.675153">
<time>2016-10-07T14:28:53Z</time></trkpt>
<trkpt lat="29.293348" lon="98.675213">
<time>2016-10-07T14:28:54Z</time></trkpt>
<trkpt lat="29.293298" lon="98.675283">
<time>2016-10-07T14:28:55Z</time></trkpt>
<trkpt lat="29.293238" lon="98.675363">
<time>2016-10-07T14:28:56Z</time></trkpt>
<trkpt lat="29.293128" lon="98.675462">
<time>2016-10-07T14:28:57Z</time></trkpt>
<trkpt lat="29.293018" lon="98.675562">
<time>2016-10-07T14:28:58Z</time></trkpt>
<trkpt lat="29.292837" lon="98.675722">
<time>2016-10-07T14:28:59Z</time></trkpt>
<trkpt lat="29.292727" lon="98.675812">
<time>2016-10-07T14:29:00Z</time></trkpt>
<trkpt lat="29.292657" lon="98.675871">
<time>2016-10-07T14:29:01Z</time></trkpt>
<trkpt lat="29.292517" lon="98.676001">
<time>2016-10-07T14:29:02Z</time></trkpt>
<trkpt lat="29.292307" lon="98.67619">
<time>2016-10-07T14:29:03Z</time></trkpt>
<trkpt lat="29.292207" lon="98.67628">
<time>2016-10-07T14:29:04Z</time></trkpt>
<trkpt lat="29.292157" lon="98.67635">
<time>2016-10-07T14:29:05Z</time></trkpt>
<trkpt lat="29.292106" lon="98.67642">
<time>2016-10-07T14:29:06Z</time></trkpt>
<trkpt lat="29.292066" lon="98.6765">
<time>2016-10-07T14:29:07Z</time></trkpt>
<trkpt lat="29.292046" lon="98.676549">
<time>2016-10-07T14:29:08Z</time></trkpt>
<trkpt lat="29.292026" lon="98.676629">
<time>2016-10-07T14:29:09Z</time></trkpt>
<trkpt lat="29.292006" lon="98.676709">
<time>2016-10-07T14:29:10Z</time></trkpt>
<trkpt lat="29.291996" lon="98.676789">
<time>2016-10-07T14:29:11Z</time></trkpt>
<trkpt lat="29.291996" lon="98.676859">
<time>2016-10-07T14:29:12Z</time></trkpt>
<trkpt lat="29.292005" lon="98.676998">
<time>2016-10-07T14:29:13Z</time></trkpt>
<trkpt lat="29.292005" lon="98.677048">
<time>2016-10-07T14:29:14Z</time></trkpt>
<trkpt lat="29.292025" lon="98.677108">
<time>2016-10-07T14:29:15Z</time></trkpt>
<trkpt lat="29.292035" lon="98.677168">
<time>2016-10-07T14:29:16Z</time></trkpt>
<trkpt lat="29.292075" lon="98.677257">
<time>2016-10-07T14:29:17Z</time></trkpt>
<trkpt lat="29.292115" lon="98.677317">
<time>2016-10-07T14:29:18Z</time></trkpt>
<trkpt lat="29.292145" lon="98.677357">
<time>2016-10-07T14:29:19Z</time></trkpt>
<trkpt lat="29.292175" lon="98.677407">
<time>2016-10-07T14:29:20Z</time></trkpt>
<trkpt lat="29.292244" lon="98.677477">
<time>2016-10-07T14:29:21Z</time></trkpt>
<trkpt lat="29.292304" lon="98.677537">
<time>2016-10-07T14:29:22Z</time></trkpt>
<trkpt lat="29.292364" lon="98.677587">
<time>2016-10-07T14:29:23Z</time></trkpt>
<trkpt lat="29.292464" lon="98.677646">
<time>2016-10-07T14:29:24Z</time></trkpt>
<trkpt lat="29.292564" lon="98.677696">
<time>2016-10-07T14:29:25Z</time></trkpt>
<trkpt lat="29.292644" lon="98.677766">
<time>2016-10-07T14:29:26Z</time></trkpt>
<trkpt lat="29.292683" lon="98.677796">
<time>2016-10-07T14:29:27Z</time></trkpt>
<trkpt lat="29.292703" lon="98.677836">
<time>2016-10-07T14:29:28Z</time></trkpt>
<trkpt lat="29.292733" lon="98.677896">
<time>2016-10-07T14:29:29Z</time></trkpt>
<trkpt lat="29.292743" lon="98.677946">
<time>2016-10-07T14:29:30Z</time></trkpt>
<trkpt lat="29.292753" lon="98.677995">
<time>2016-10-07T14:29:31Z</time></trkpt>
<trkpt lat="29.292753" lon="98.678055">
<time>2016-10-07T14:29:32Z</time></trkpt>
<trkpt lat="29.292743" lon="98.678105">
<time>2016-10-07T14:29:33Z</time></trkpt>
<trkpt lat="29.292723" lon="98.678165">
<time>2016-10-07T14:29:34Z</time></trkpt>
<trkpt lat="29.292703" lon="98.678215">
<time>2016-10-07T14:29:35Z</time></trkpt>
<trkpt lat="29.292653" lon="98.678265">
<time>2016-10-07T14:29:36Z</time></trkpt>
<trkpt lat="29.292603" lon="98.678305">
<time>2016-10-07T14:29:37Z</time></trkpt>
<trkpt lat="29.292543" lon="98.678324">
<time>2016-10-07T14:29:38Z</time></trkpt>
<trkpt lat="29.292453" lon="98.678354">
<time>2016-10-07T14:29:39Z</time></trkpt>
<trkpt lat="29.292183" lon="98.678434">
<time>2016-10-07T14:29:40Z</time></trkpt>
<trkpt lat="29.292013" lon="98.678494">
<time>2016-10-07T14:29:41Z</time></trkpt>
<trkpt lat="29.291763" lon="98.678564">
<time>2016-10-07T14:29:42Z</time></trkpt>
<trkpt lat="29.291593" lon="98.678614">
<time>2016-10-07T14:29:43Z</time></trkpt>
<trkpt lat="29.291483" lon="98.678644">
<time>2016-10-07T14:29:44Z</time></trkpt>
<trkpt lat="29.291343" lon="98.678654">
<time>2016-10-07T14:29:45Z</time></trkpt>
<trkpt lat="29.291213" lon="98.678644">
<time>2016-10-07T14:29:46Z</time></trkpt>
<trkpt lat="29.291093" lon="98.678624">
<time>2016-10-07T14:29:47Z</time></trkpt>
<trkpt lat="29.291013" lon="98.678594">
<time>2016-10-07T14:29:48Z</time></trkpt>
<trkpt lat="29.290933" lon="98.678564">
<time>2016-10-07T14:29:49Z</time></trkpt>
<trkpt lat="29.290763" lon="98.678484">
<time>2016-10-07T14:29:50Z</time></trkpt>
<trkpt lat="29.290524" lon="98.678374">
<time>2016-10-07T14:29:51Z</time></trkpt>
<trkpt lat="29.290254" lon="98.678235">
<time>2016-10-07T14:29:52Z</time></trkpt>
<trkpt lat="29.290045" lon="98.678135">
<time>2016-10-07T14:29:53Z</time></trkpt>
<trkpt lat="29.289855" lon="98.678035">
<time>2016-10-07T14:29:54Z</time></trkpt>
<trkpt lat="29.289745" lon="98.677976">
<time>2016-10-07T14:29:55Z</time></trkpt>
<trkpt lat="29.289665" lon="98.677946">
<time>2016-10-07T14:29:56Z</time></trkpt>
<trkpt lat="29.289605" lon="98.677936">
<time>2016-10-07T14:29:57Z</time></trkpt>
<trkpt lat="29.289525" lon="98.677926">
<time>2016-10-07T14:29:58Z</time></trkpt>
<trkpt lat="29.289455" lon="98.677916">
<time>2016-10-07T14:29:59Z</time></trkpt>
<trkpt lat="29.289365" lon="98.677926">
<time>2016-10-07T14:30:00Z</time></trkpt>
<trkpt lat="29.289295" lon="98.677946">
<time>2016-10-07T14:30:01Z</time></trkpt>
<trkpt lat="29.289235" lon="98.677976">
<time>2016-10-07T14:30:02Z</time></trkpt>
<trkpt lat="29.289145" lon="98.678025">
<time>2016-10-07T14:30:03Z</time></trkpt>
<trkpt lat="29.289045" lon="98.678095">
<time>2016-10-07T14:30:04Z</time></trkpt>
<trkpt lat="29.288945" lon="98.678185">
<time>2016-10-07T14:30:05Z</time></trkpt>
<trkpt lat="29.288835" lon="98.678285">
<time>2016-10-07T14:30:06Z</time></trkpt>
<trkpt lat="29.288765" lon="98.678354">
<time>2016-10-07T14:30:07Z</time></trkpt>
<trkpt lat="29.288715" lon="98.678424">
<time>2016-10-07T14:30:08Z</time></trkpt>
<trkpt lat="29.288675" lon="98.678514">
<time>2016-10-07T14:30:09Z</time></trkpt>
<trkpt lat="29.288645" lon="98.678564">
<time>2016-10-07T14:30:10Z</time></trkpt>
<trkpt lat="29.288615" lon="98.678624">
<time>2016-10-07T14:30:11Z</time></trkpt>
<trkpt lat="29.288594" lon="98.678684">
<time>2016-10-07T14:30:12Z</time></trkpt>
<trkpt lat="29.288574" lon="98.678753">
<time>2016-10-07T14:30:13Z</time></trkpt>
<trkpt lat="29.288554" lon="98.678803">
<time>2016-10-07T14:30:14Z</time></trkpt>
<trkpt lat="29.288544" lon="98.678863">
<time>2016-10-07T14:30:15Z</time></trkpt>
<trkpt lat="29.288524" lon="98.678943">
<time>2016-10-07T14:30:16Z</time></trkpt>
<trkpt lat="29.288514" lon="98.679092">
<time>2016-10-07T14:30:17Z</time></trkpt>
<trkpt lat="29.288494" lon="98.679152">
<time>2016-10-07T14:30:18Z</time></trkpt>
<trkpt lat="29.288484" lon="98.679182">
<time>2016-10-07T14:30:19Z</time></trkpt>
<trkpt lat="29.288464" lon="98.679222">
<time>2016-10-07T14:30:20Z</time></trkpt>
<trkpt lat="29.288434" lon="98.679252">
<time>2016-10-07T14:30:21Z</time></trkpt>
<trkpt lat="29.288393" lon="98.679292">
<time>2016-10-07T14:30:22Z</time></trkpt>
<trkpt lat="29.288343" lon="98.679302">
<time>2016-10-07T14:30:23Z</time></trkpt>
<trkpt lat="29.288284" lon="98.679302">
<time>2016-10-07T14:30:24Z</time></trkpt>
<trkpt lat="29.288244" lon="98.679292">
<time>2016-10-07T14:30:25Z</time></trkpt>
<trkpt lat="29.288174" lon="98.679262">
<time>2016-10-07T14:30:26Z</time></trkpt>
<trkpt lat="29.288104" lon="98.679202">
<time>2016-10-07T14:30:27Z</time></trkpt>
<trkpt lat="29.288024" lon="98.679102">
<time>2016-10-07T14:30:28Z</time></trkpt>
<trkpt lat="29.287894" lon="98.678943">
<time>2016-10-07T14:30:29Z</time></trkpt>
<trkpt lat="29.287745" lon="98.678733">
<time>2016-10-07T14:30:30Z</time></trkpt>
<trkpt lat="29.287635" lon="98.678624">
<time>2016-10-07T14:30:31Z</time></trkpt>
<trkpt lat="29.287546" lon="98.678494">
<time>2016-10-07T14:30:32Z</time></trkpt>
<trkpt lat="29.287466" lon="98.678394">
<time>2016-10-07T14:30:33Z</time></trkpt>
<trkpt lat="29.287356" lon="98.678295">
<time>2016-10-07T14:30:34Z</time></trkpt>
<trkpt lat="29.287266" lon="98.678225">
<time>2016-10-07T14:30:35Z</time></trkpt>
<trkpt lat="29.287176" lon="98.678165">
<time>2016-10-07T14:30:36Z</time></trkpt>
<trkpt lat="29.287107" lon="98.678125">
<time>2016-10-07T14:30:37Z</time></trkpt>
<trkpt lat="29.286997" lon="98.678075">
<time>2016-10-07T14:30:38Z</time></trkpt>
<trkpt lat="29.286927" lon="98.678045">
<time>2016-10-07T14:30:39Z</time></trkpt>
<trkpt lat="29.286817" lon="98.678015">
<time>2016-10-07T14:30:40Z</time></trkpt>
<trkpt lat="29.286637" lon="98.677976">
<time>2016-10-07T14:30:41Z</time></trkpt>
<trkpt lat="29.286477" lon="98.677966">
<time>2016-10-07T14:30:42Z</time></trkpt>
<trkpt lat="29.286357" lon="98.677956">
<time>2016-10-07T14:30:43Z</time></trkpt>
<trkpt lat="29.286247" lon="98.677936">
<time>2016-10-07T14:30:44Z</time></trkpt>
<trkpt lat="29.286178" lon="98.677916">
<time>2016-10-07T14:30:45Z</time></trkpt>
<trkpt lat="29.286108" lon="98.677886">
<time>2016-10-07T14:30:46Z</time></trkpt>
<trkpt lat="29.286028" lon="98.677836">
<time>2016-10-07T14:30:47Z</time></trkpt>
<trkpt lat="29.285958" lon="98.677766">
<time>2016-10-07T14:30:48Z</time></trkpt>
<trkpt lat="29.285908" lon="98.677726">
<time>2016-10-07T14:30:49Z</time></trkpt>
<trkpt lat="29.285848" lon="98.677647">
<time>2016-10-07T14:30:50Z</time></trkpt>
<trkpt lat="29.285808" lon="98.677597">
<time>2016-10-07T14:30:51Z</time></trkpt>
<trkpt lat="29.285779" lon="98.677537">
<time>2016-10-07T14:30:52Z</time></trkpt>
<trkpt lat="29.285739" lon="98.677457">
<time>2016-10-07T14:30:53Z</time></trkpt>
<trkpt lat="29.285699" lon="98.677377">
<time>2016-10-07T14:30:54Z</time></trkpt>
<trkpt lat="29.285659" lon="98.677278">
<time>2016-10-07T14:30:55Z</time></trkpt>
<trkpt lat="29.285619" lon="98.677198">
<time>2016-10-07T14:30:56Z</time></trkpt>
<trkpt lat="29.28556" lon="98.677078">
<time>2016-10-07T14:30:57Z</time></trkpt>
<trkpt lat="29.28544" lon="98.676849">
<time>2016-10-07T14:30:58Z</time></trkpt>
<trkpt lat="29.285291" lon="98.67658">
<time>2016-10-07T14:30:59Z</time></trkpt>
<trkpt lat="29.285181" lon="98.67636">
<time>2016-10-07T14:31:00Z</time></trkpt>
<trkpt lat="29.285161" lon="98.67632">
<time>2016-10-07T14:31:01Z</time></trkpt>
<trkpt lat="29.285101" lon="98.67625">
<time>2016-10-07T14:31:02Z</time></trkpt>
<trkpt lat="29.285032" lon="98.676181">
<time>2016-10-07T14:31:03Z</time></trkpt>
<trkpt lat="29.284982" lon="98.676141">
<time>2016-10-07T14:31:04Z</time></trkpt>
<trkpt lat="29.284912" lon="98.676091">
<time>2016-10-07T14:31:05Z</time></trkpt>
<trkpt lat="29.284842" lon="98.676051">
<time>2016-10-07T14:31:06Z</time></trkpt>
<trkpt lat="29.284772" lon="98.676031">
<time>2016-10-07T14:31:07Z</time></trkpt>
<trkpt lat="29.284682" lon="98.676011">
<time>2016-10-07T14:31:08Z</time></trkpt>
<trkpt lat="29.284592" lon="98.676001">
<time>2016-10-07T14:31:09Z</time></trkpt>
<trkpt lat="29.284462" lon="98.676021">
<time>2016-10-07T14:31:10Z</time></trkpt>
<trkpt lat="29.284342" lon="98.676051">
<time>2016-10-07T14:31:11Z</time></trkpt>
<trkpt lat="29.284262" lon="98.676081">
<time>2016-10-07T14:31:12Z</time></trkpt>
<trkpt lat="29.284192" lon="98.676121">
<time>2016-10-07T14:31:13Z</time></trkpt>
<trkpt lat="29.284132" lon="98.676161">
<time>2016-10-07T14:31:14Z</time></trkpt>
<trkpt lat="29.284082" lon="98.676221">
<time>2016-10-07T14:31:15Z</time></trkpt>
<trkpt lat="29.284032" lon="98.67627">
<time>2016-10-07T14:31:16Z</time></trkpt>
<trkpt lat="29.283972" lon="98.67634">
<time>2016-10-07T14:31:17Z</time></trkpt>
<trkpt lat="29.283942" lon="98.67641">
<time>2016-10-07T14:31:18Z</time></trkpt>
<trkpt lat="29.283912" lon="98.67648">
<time>2016-10-07T14:31:19Z</time></trkpt>
<trkpt lat="29.283882" lon="98.67659">
<time>2016-10-07T14:31:20Z</time></trkpt>
<trkpt lat="29.283841" lon="98.676719">
<time>2016-10-07T14:31:21Z</time></trkpt>
<trkpt lat="29.283791" lon="98.676919">
<time>2016-10-07T14:31:22Z</time></trkpt>
<trkpt lat="29.283741" lon="98.677048">
<time>2016-10-07T14:31:23Z</time></trkpt>
<trkpt lat="29.283701" lon="98.677148">
<time>2016-10-07T14:31:24Z</time></trkpt>
<trkpt lat="29.283651" lon="98.677218">
<time>2016-10-07T14:31:25Z</time></trkpt>
<trkpt lat="29.2836" lon="98.677278">
<time>2016-10-07T14:31:26Z</time></trkpt>
<trkpt lat="29.28355" lon="98.677317">
<time>2016-10-07T14:31:27Z</time></trkpt>
<trkpt lat="29.28347" lon="98.677377">
<time>2016-10-07T14:31:28Z</time></trkpt>
<trkpt lat="29.28335" lon="98.677447">
<time>2016-10-07T14:31:29Z</time></trkpt>
<trkpt lat="29.28326" lon="98.677507">
<time>2016-10-07T14:31:30Z</time></trkpt>
<trkpt lat="29.28317" lon="98.677567">
<time>2016-10-07T14:31:31Z</time></trkpt>
<trkpt lat="29.28308" lon="98.677627">
<time>2016-10-07T14:31:32Z</time></trkpt>
<trkpt lat="29.28299" lon="98.677696">
<time>2016-10-07T14:31:33Z</time></trkpt>
<trkpt lat="29.2829" lon="98.677786">
<time>2016-10-07T14:31:34Z</time></trkpt>
<trkpt lat="29.28281" lon="98.677876">
<time>2016-10-07T14:31:35Z</time></trkpt>
<trkpt lat="29.28265" lon="98.678045">
<time>2016-10-07T14:31:36Z</time></trkpt>
<trkpt lat="29.282549" lon="98.678165">
<time>2016-10-07T14:31:37Z</time></trkpt>
<trkpt lat="29.282429" lon="98.678285">
<time>2016-10-07T14:31:38Z</time></trkpt>
<trkpt lat="29.282359" lon="98.678345">
<time>2016-10-07T14:31:39Z</time></trkpt>
<trkpt lat="29.282269" lon="98.678414">
<time>2016-10-07T14:31:40Z</time></trkpt>
<trkpt lat="29.282219" lon="98.678454">
<time>2016-10-07T14:31:41Z</time></trkpt>
<trkpt lat="29.282179" lon="98.678474">
<time>2016-10-07T14:31:42Z</time></trkpt>
<trkpt lat="29.282109" lon="98.678514">
<time>2016-10-07T14:31:43Z</time></trkpt>
<trkpt lat="29.282039" lon="98.678554">
<time>2016-10-07T14:31:44Z</time></trkpt>
<trkpt lat="29.281939" lon="98.678584">
<time>2016-10-07T14:31:45Z</time></trkpt>
<trkpt lat="29.281849" lon="98.678604">
<time>2016-10-07T14:31:46Z</time></trkpt>
<trkpt lat="29.281769" lon="98.678614">
<time>2016-10-07T14:31:47Z</time></trkpt>
<trkpt lat="29.281679" lon="98.678614">
<time>2016-10-07T14:31:48Z</time></trkpt>
<trkpt lat="29.281519" lon="98.678624">
<time>2016-10-07T14:31:49Z</time></trkpt>
<trkpt lat="29.281439" lon="98.678624">
<time>2016-10-07T14:31:50Z</time></trkpt>
<trkpt lat="29.281369" lon="98.678634">
<time>2016-10-07T14:31:51Z</time></trkpt>
<trkpt lat="29.281269" lon="98.678644">
<time>2016-10-07T14:31:52Z</time></trkpt>
<trkpt lat="29.281209" lon="98.678644">
<time>2016-10-07T14:31:53Z</time></trkpt>
<trkpt lat="29.28112" lon="98.678634">
<time>2016-10-07T14:31:54Z</time></trkpt>
<trkpt lat="29.28098" lon="98.678604">
<time>2016-10-07T14:31:55Z</time></trkpt>
<trkpt lat="29.28078" lon="98.678574">
<time>2016-10-07T14:31:56Z</time></trkpt>
<trkpt lat="29.28074" lon="98.678554">
<time>2016-10-07T14:31:57Z</time></trkpt>
<trkpt lat="29.28048" lon="98.678504">
<time>2016-10-07T14:31:58Z</time></trkpt>
<trkpt lat="29.28038" lon="98.678484">
<time>2016-10-07T14:31:59Z</time></trkpt>
<trkpt lat="29.28027" lon="98.678464">
<time>2016-10-07T14:32:00Z</time></trkpt>
<trkpt lat="29.28021" lon="98.678464">
<time>2016-10-07T14:32:01Z</time></trkpt>
<trkpt lat="29.280141" lon="98.678474">
<time>2016-10-07T14:32:02Z</time></trkpt>
<trkpt lat="29.280031" lon="98.678494">
<time>2016-10-07T14:32:03Z</time></trkpt>
<trkpt lat="29.279951" lon="98.678514">
<time>2016-10-07T14:32:04Z</time></trkpt>
<trkpt lat="29.279891" lon="98.678544">
<time>2016-10-07T14:32:05Z</time></trkpt>
<trkpt lat="29.279841" lon="98.678574">
<time>2016-10-07T14:32:06Z</time></trkpt>
<trkpt lat="29.27981" lon="98.678614">
<time>2016-10-07T14:32:07Z</time></trkpt>
<trkpt lat="29.27974" lon="98.678674">
<time>2016-10-07T14:32:08Z</time></trkpt>
<trkpt lat="29.27971" lon="98.678744">
<time>2016-10-07T14:32:09Z</time></trkpt>
<trkpt lat="29.27967" lon="98.678833">
<time>2016-10-07T14:32:10Z</time></trkpt>
<trkpt lat="29.27964" lon="98.678913">
<time>2016-10-07T14:32:11Z</time></trkpt>
<trkpt lat="29.27963" lon="98.678963">
<time>2016-10-07T14:32:12Z</time></trkpt>
<trkpt lat="29.27963" lon="98.679023">
<time>2016-10-07T14:32:13Z</time></trkpt>
<trkpt lat="29.27963" lon="98.679083">
<time>2016-10-07T14:32:14Z</time></trkpt>
<trkpt lat="29.27963" lon="98.679182">
<time>2016-10-07T14:32:15Z</time></trkpt>
<trkpt lat="29.279649" lon="98.679282">
<time>2016-10-07T14:32:16Z</time></trkpt>
<trkpt lat="29.279689" lon="98.679402">
<time>2016-10-07T14:32:17Z</time></trkpt>
<trkpt lat="29.279739" lon="98.679551">
<time>2016-10-07T14:32:18Z</time></trkpt>
<trkpt lat="29.279769" lon="98.679641">
<time>2016-10-07T14:32:19Z</time></trkpt>
<trkpt lat="29.279788" lon="98.679721">
<time>2016-10-07T14:32:20Z</time></trkpt>
<trkpt lat="29.279828" lon="98.679811">
<time>2016-10-07T14:32:21Z</time></trkpt>
<trkpt lat="29.279848" lon="98.67993">
<time>2016-10-07T14:32:22Z</time></trkpt>
<trkpt lat="29.279868" lon="98.68006">
<time>2016-10-07T14:32:23Z</time></trkpt>
<trkpt lat="29.279878" lon="98.68016">
<time>2016-10-07T14:32:24Z</time></trkpt>
<trkpt lat="29.279877" lon="98.680249">
<time>2016-10-07T14:32:25Z</time></trkpt>
<trkpt lat="29.279877" lon="98.680309">
<time>2016-10-07T14:32:26Z</time></trkpt>
<trkpt lat="29.279867" lon="98.680359">
<time>2016-10-07T14:32:27Z</time></trkpt>
<trkpt lat="29.279867" lon="98.680419">
<time>2016-10-07T14:32:28Z</time></trkpt>
<trkpt lat="29.279857" lon="98.680479">
<time>2016-10-07T14:32:29Z</time></trkpt>
<trkpt lat="29.279837" lon="98.680578">
<time>2016-10-07T14:32:30Z</time></trkpt>
<trkpt lat="29.279807" lon="98.680648">
<time>2016-10-07T14:32:31Z</time></trkpt>
<trkpt lat="29.279797" lon="98.680698">
<time>2016-10-07T14:32:32Z</time></trkpt>
<trkpt lat="29.279776" lon="98.680758">
<time>2016-10-07T14:32:33Z</time></trkpt>
<trkpt lat="29.279766" lon="98.680818">
<time>2016-10-07T14:32:34Z</time></trkpt>
<trkpt lat="29.279726" lon="98.680908">
<time>2016-10-07T14:32:35Z</time></trkpt>
<trkpt lat="29.279686" lon="98.680977">
<time>2016-10-07T14:32:36Z</time></trkpt>
<trkpt lat="29.279636" lon="98.681087">
<time>2016-10-07T14:32:37Z</time></trkpt>
<trkpt lat="29.279566" lon="98.681187">
<time>2016-10-07T14:32:38Z</time></trkpt>
<trkpt lat="29.279486" lon="98.681296">
<time>2016-10-07T14:32:39Z</time></trkpt>
<trkpt lat="29.279385" lon="98.681436">
<time>2016-10-07T14:32:40Z</time></trkpt>
<trkpt lat="29.279255" lon="98.681626">
<time>2016-10-07T14:32:41Z</time></trkpt>
<trkpt lat="29.279125" lon="98.681805">
<time>2016-10-07T14:32:42Z</time></trkpt>
<trkpt lat="29.278995" lon="98.681985">
<time>2016-10-07T14:32:43Z</time></trkpt>
<trkpt lat="29.278894" lon="98.682114">
<time>2016-10-07T14:32:44Z</time></trkpt>
<trkpt lat="29.278794" lon="98.682264">
<time>2016-10-07T14:32:45Z</time></trkpt>
<trkpt lat="29.278624" lon="98.682503">
<time>2016-10-07T14:32:46Z</time></trkpt>
<trkpt lat="29.278524" lon="98.682633">
<time>2016-10-07T14:32:47Z</time></trkpt>
<trkpt lat="29.278464" lon="98.682713">
<time>2016-10-07T14:32:48Z</time></trkpt>
<trkpt lat="29.278434" lon="98.682772">
<time>2016-10-07T14:32:49Z</time></trkpt>
<trkpt lat="29.278403" lon="98.682832">
<time>2016-10-07T14:32:50Z</time></trkpt>
<trkpt lat="29.278393" lon="98.682882">
<time>2016-10-07T14:32:51Z</time></trkpt>
<trkpt lat="29.278383" lon="98.682952">
<time>2016-10-07T14:32:52Z</time></trkpt>
<trkpt lat="29.278383" lon="98.683012">
<time>2016-10-07T14:32:53Z</time></trkpt>
<trkpt lat="29.278403" lon="98.683082">
<time>2016-10-07T14:32:54Z</time></trkpt>
<trkpt lat="29.278423" lon="98.683121">
<time>2016-10-07T14:32:55Z</time></trkpt>
<trkpt lat="29.278473" lon="98.683181">
<time>2016-10-07T14:32:56Z</time></trkpt>
<trkpt lat="29.278523" lon="98.683221">
<time>2016-10-07T14:32:57Z</time></trkpt>
<trkpt lat="29.278563" lon="98.683231">
<time>2016-10-07T14:32:58Z</time></trkpt>
<trkpt lat="29.278593" lon="98.683241">
<time>2016-10-07T14:32:59Z</time></trkpt>
<trkpt lat="29.278653" lon="98.683231">
<time>2016-10-07T14:33:00Z</time></trkpt>
<trkpt lat="29.278693" lon="98.683231">
<time>2016-10-07T14:33:01Z</time></trkpt>
<trkpt lat="29.278773" lon="98.683211">
<time>2016-10-07T14:33:02Z</time></trkpt>
<trkpt lat="29.278872" lon="98.683191">
<time>2016-10-07T14:33:03Z</time></trkpt>
<trkpt lat="29.278962" lon="98.683171">
<time>2016-10-07T14:33:04Z</time></trkpt>
<trkpt lat="29.279012" lon="98.683171">
<time>2016-10-07T14:33:05Z</time></trkpt>
<trkpt lat="29.279062" lon="98.683171">
<time>2016-10-07T14:33:06Z</time></trkpt>
<trkpt lat="29.279142" lon="98.683181">
<time>2016-10-07T14:33:07Z</time></trkpt>
<trkpt lat="29.279202" lon="98.683201">
<time>2016-10-07T14:33:08Z</time></trkpt>
<trkpt lat="29.279262" lon="98.683241">
<time>2016-10-07T14:33:09Z</time></trkpt>
<trkpt lat="29.279312" lon="98.683281">
<time>2016-10-07T14:33:10Z</time></trkpt>
<trkpt lat="29.279362" lon="98.683341">
<time>2016-10-07T14:33:11Z</time></trkpt>
<trkpt lat="29.279412" lon="98.683391">
<time>2016-10-07T14:33:12Z</time></trkpt>
<trkpt lat="29.279462" lon="98.68349">
<time>2016-10-07T14:33:13Z</time></trkpt>
<trkpt lat="29.279491" lon="98.68356">
<time>2016-10-07T14:33:14Z</time></trkpt>
<trkpt lat="29.279561" lon="98.68372">
<time>2016-10-07T14:33:15Z</time></trkpt>
<trkpt lat="29.279621" lon="98.683849">
<time>2016-10-07T14:33:16Z</time></trkpt>
<trkpt lat="29.279671" lon="98.683939">
<time>2016-10-07T14:33:17Z</time></trkpt>
<trkpt lat="29.27973" lon="98.684019">
<time>2016-10-07T14:33:18Z</time></trkpt>
<trkpt lat="29.27978" lon="98.684089">
<time>2016-10-07T14:33:19Z</time></trkpt>
<trkpt lat="29.27984" lon="98.684149">
<time>2016-10-07T14:33:20Z</time></trkpt>
<trkpt lat="29.27991" lon="98.684208">
<time>2016-10-07T14:33:21Z</time></trkpt>
<trkpt lat="29.28002" lon="98.684278">
<time>2016-10-07T14:33:22Z</time></trkpt>
<trkpt lat="29.28009" lon="98.684318">
<time>2016-10-07T14:33:23Z</time></trkpt>
<trkpt lat="29.280219" lon="98.684388">
<time>2016-10-07T14:33:24Z</time></trkpt>
<trkpt lat="29.280319" lon="98.684448">
<time>2016-10-07T14:33:25Z</time></trkpt>
<trkpt lat="29.280419" lon="98.684498">
<time>2016-10-07T14:33:26Z</time></trkpt>
<trkpt lat="29.280499" lon="98.684537">
<time>2016-10-07T14:33:27Z</time></trkpt>
<trkpt lat="29.280659" lon="98.684627">
<time>2016-10-07T14:33:28Z</time></trkpt>
<trkpt lat="29.280848" lon="98.684737">
<time>2016-10-07T14:33:29Z</time></trkpt>
<trkpt lat="29.281018" lon="98.684827">
<time>2016-10-07T14:33:30Z</time></trkpt>
<trkpt lat="29.281208" lon="98.684926">
<time>2016-10-07T14:33:31Z</time></trkpt>
<trkpt lat="29.281327" lon="98.684996">
<time>2016-10-07T14:33:32Z</time></trkpt>
<trkpt lat="29.281427" lon="98.685046">
<time>2016-10-07T14:33:33Z</time></trkpt>
<trkpt lat="29.281557" lon="98.685116">
<time>2016-10-07T14:33:34Z</time></trkpt>
<trkpt lat="29.281687" lon="98.685186">
<time>2016-10-07T14:33:35Z</time></trkpt>
<trkpt lat="29.281787" lon="98.685246">
<time>2016-10-07T14:33:36Z</time></trkpt>
<trkpt lat="29.281887" lon="98.685305">
<time>2016-10-07T14:33:37Z</time></trkpt>
<trkpt lat="29.281996" lon="98.685365">
<time>2016-10-07T14:33:38Z</time></trkpt>
<trkpt lat="29.282016" lon="98.685385">
<time>2016-10-07T14:33:39Z</time></trkpt>
<trkpt lat="29.282066" lon="98.685425">
<time>2016-10-07T14:33:40Z</time></trkpt>
<trkpt lat="29.282156" lon="98.685505">
<time>2016-10-07T14:33:41Z</time></trkpt>
<trkpt lat="29.282236" lon="98.685595">
<time>2016-10-07T14:33:42Z</time></trkpt>
<trkpt lat="29.282306" lon="98.685694">
<time>2016-10-07T14:33:43Z</time></trkpt>
<trkpt lat="29.282345" lon="98.685754">
<time>2016-10-07T14:33:44Z</time></trkpt>
<trkpt lat="29.282375" lon="98.685794">
<time>2016-10-07T14:33:45Z</time></trkpt>
<trkpt lat="29.282425" lon="98.685894">
<time>2016-10-07T14:33:46Z</time></trkpt>
<trkpt lat="29.282455" lon="98.685954">
<time>2016-10-07T14:33:47Z</time></trkpt>
<trkpt lat="29.282475" lon="98.686023">
<time>2016-10-07T14:33:48Z</time></trkpt>
<trkpt lat="29.282495" lon="98.686083">
<time>2016-10-07T14:33:49Z</time></trkpt>
<trkpt lat="29.282495" lon="98.686143">
<time>2016-10-07T14:33:50Z</time></trkpt>
<trkpt lat="29.282495" lon="98.686193">
<time>2016-10-07T14:33:51Z</time></trkpt>
<trkpt lat="29.282484" lon="98.686253">
<time>2016-10-07T14:33:52Z</time></trkpt>
<trkpt lat="29.282464" lon="98.686323">
<time>2016-10-07T14:33:53Z</time></trkpt>
<trkpt lat="29.282444" lon="98.686382">
<time>2016-10-07T14:33:54Z</time></trkpt>
<trkpt lat="29.282384" lon="98.686482">
<time>2016-10-07T14:33:55Z</time></trkpt>
<trkpt lat="29.282334" lon="98.686542">
<time>2016-10-07T14:33:56Z</time></trkpt>
<trkpt lat="29.282304" lon="98.686602">
<time>2016-10-07T14:33:57Z</time></trkpt>
<trkpt lat="29.282264" lon="98.686652">
<time>2016-10-07T14:33:58Z</time></trkpt>
<trkpt lat="29.282244" lon="98.686712">
<time>2016-10-07T14:33:59Z</time></trkpt>
<trkpt lat="29.282224" lon="98.686781">
<time>2016-10-07T14:34:00Z</time></trkpt>
<trkpt lat="29.282203" lon="98.686871">
<time>2016-10-07T14:34:01Z</time></trkpt>
<trkpt lat="29.282193" lon="98.686991">
<time>2016-10-07T14:34:02Z</time></trkpt>
<trkpt lat="29.282203" lon="98.6871">
<time>2016-10-07T14:34:03Z</time></trkpt>
<trkpt lat="29.282223" lon="98.68718">
<time>2016-10-07T14:34:04Z</time></trkpt>
<trkpt lat="29.282233" lon="98.68728">
<time>2016-10-07T14:34:05Z</time></trkpt>
<trkpt lat="29.282262" lon="98.68743">
<time>2016-10-07T14:34:06Z</time></trkpt>
<trkpt lat="29.282272" lon="98.687559">
<time>2016-10-07T14:34:07Z</time></trkpt>
<trkpt lat="29.282262" lon="98.687649">
<time>2016-10-07T14:34:08Z</time></trkpt>
<trkpt lat="29.282252" lon="98.687729">
<time>2016-10-07T14:34:09Z</time></trkpt>
<trkpt lat="29.282232" lon="98.687838">
<time>2016-10-07T14:34:10Z</time></trkpt>
<trkpt lat="29.282161" lon="98.688178">
<time>2016-10-07T14:34:11Z</time></trkpt>
<trkpt lat="29.282101" lon="98.688447">
<time>2016-10-07T14:34:12Z</time></trkpt>
<trkpt lat="29.28206" lon="98.688626">
<time>2016-10-07T14:34:13Z</time></trkpt>
<trkpt lat="29.28203" lon="98.688786">
<time>2016-10-07T14:34:14Z</time></trkpt>
<trkpt lat="29.28201" lon="98.688876">
<time>2016-10-07T14:34:15Z</time></trkpt>
<trkpt lat="29.28199" lon="98.689025">
<time>2016-10-07T14:34:16Z</time></trkpt>
<trkpt lat="29.281999" lon="98.689185">
<time>2016-10-07T14:34:17Z</time></trkpt>
<trkpt lat="29.282009" lon="98.689304">
<time>2016-10-07T14:34:18Z</time></trkpt>
<trkpt lat="29.282029" lon="98.689434">
<time>2016-10-07T14:34:19Z</time></trkpt>
<trkpt lat="29.282059" lon="98.689574">
<time>2016-10-07T14:34:20Z</time></trkpt>
<trkpt lat="29.282088" lon="98.689674">
<time>2016-10-07T14:34:21Z</time></trkpt>
<trkpt lat="29.282128" lon="98.689763">
<time>2016-10-07T14:34:22Z</time></trkpt>
<trkpt lat="29.282168" lon="98.689863">
<time>2016-10-07T14:34:23Z</time></trkpt>
<trkpt lat="29.282238" lon="98.689983">
<time>2016-10-07T14:34:24Z</time></trkpt>
<trkpt lat="29.282298" lon="98.690072">
<time>2016-10-07T14:34:25Z</time></trkpt>
<trkpt lat="29.282357" lon="98.690152">
<time>2016-10-07T14:34:26Z</time></trkpt>
<trkpt lat="29.282437" lon="98.690232">
<time>2016-10-07T14:34:27Z</time></trkpt>
<trkpt lat="29.282527" lon="98.690312">
<time>2016-10-07T14:34:28Z</time></trkpt>
<trkpt lat="29.282597" lon="98.690362">
<time>2016-10-07T14:34:29Z</time></trkpt>
<trkpt lat="29.282667" lon="98.690412">
<time>2016-10-07T14:34:30Z</time></trkpt>
<trkpt lat="29.282747" lon="98.690451">
<time>2016-10-07T14:34:31Z</time></trkpt>
<trkpt lat="29.282817" lon="98.690491">
<time>2016-10-07T14:34:32Z</time></trkpt>
<trkpt lat="29.282886" lon="98.690521">
<time>2016-10-07T14:34:33Z</time></trkpt>
<trkpt lat="29.283016" lon="98.690561">
<time>2016-10-07T14:34:34Z</time></trkpt>
<trkpt lat="29.283106" lon="98.690581">
<time>2016-10-07T14:34:35Z</time></trkpt>
<trkpt lat="29.283226" lon="98.690601">
<time>2016-10-07T14:34:36Z</time></trkpt>
<trkpt lat="29.283356" lon="98.690601">
<time>2016-10-07T14:34:37Z</time></trkpt>
<trkpt lat="29.283486" lon="98.690601">
<time>2016-10-07T14:34:38Z</time></trkpt>
<trkpt lat="29.283706" lon="98.690601">
<time>2016-10-07T14:34:39Z</time></trkpt>
<trkpt lat="29.283956" lon="98.690601">
<time>2016-10-07T14:34:40Z</time></trkpt>
<trkpt lat="29.284175" lon="98.690601">
<time>2016-10-07T14:34:41Z</time></trkpt>
<trkpt lat="29.284545" lon="98.690601">
<time>2016-10-07T14:34:42Z</time></trkpt>
<trkpt lat="29.284745" lon="98.690601">
<time>2016-10-07T14:34:43Z</time></trkpt>
<trkpt lat="29.284885" lon="98.690601">
<time>2016-10-07T14:34:44Z</time></trkpt>
<trkpt lat="29.284975" lon="98.690601">
<time>2016-10-07T14:34:45Z</time></trkpt>
<trkpt lat="29.285085" lon="98.690601">
<time>2016-10-07T14:34:46Z</time></trkpt>
<trkpt lat="29.285155" lon="98.690611">
<time>2016-10-07T14:34:47Z</time></trkpt>
<trkpt lat="29.285215" lon="98.690631">
<time>2016-10-07T14:34:48Z</time></trkpt>
<trkpt lat="29.285275" lon="98.690651">
<time>2016-10-07T14:34:49Z</time></trkpt>
<trkpt lat="29.285335" lon="98.690671">
<time>2016-10-07T14:34:50Z</time></trkpt>
<trkpt lat="29.285394" lon="98.690711">
<time>2016-10-07T14:34:51Z</time></trkpt>
<trkpt lat="29.285474" lon="98.690771">
<time>2016-10-07T14:34:52Z</time></trkpt>
<trkpt lat="29.285594" lon="98.6909">
<time>2016-10-07T14:34:53Z</time></trkpt>
<trkpt lat="29.285734" lon="98.69106">
<time>2016-10-07T14:34:54Z</time></trkpt>
<trkpt lat="29.285923" lon="98.691269">
<time>2016-10-07T14:34:55Z</time></trkpt>
<trkpt lat="29.286093" lon="98.691479">
<time>2016-10-07T14:34:56Z</time></trkpt>
<trkpt lat="29.286192" lon="98.691608">
<time>2016-10-07T14:34:57Z</time></trkpt>
<trkpt lat="29.286262" lon="98.691708">
<time>2016-10-07T14:34:58Z</time></trkpt>
<trkpt lat="29.286302" lon="98.691808">
<time>2016-10-07T14:34:59Z</time></trkpt>
<trkpt lat="29.286332" lon="98.691897">
<time>2016-10-07T14:35:00Z</time></trkpt>
<trkpt lat="29.286352" lon="98.691977">
<time>2016-10-07T14:35:01Z</time></trkpt>
<trkpt lat="29.286411" lon="98.692227">
<time>2016-10-07T14:35:02Z</time></trkpt>
<trkpt lat="29.286431" lon="98.692306">
<time>2016-10-07T14:35:03Z</time></trkpt>
<trkpt lat="29.286461" lon="98.692416">
<time>2016-10-07T14:35:04Z</time></trkpt>
<trkpt lat="29.28652" lon="98.692516">
<time>2016-10-07T14:35:05Z</time></trkpt>
<trkpt lat="29.28657" lon="98.692606">
<time>2016-10-07T14:35:06Z</time></trkpt>
<trkpt lat="29.2866" lon="98.692655">
<time>2016-10-07T14:35:07Z</time></trkpt>
<trkpt lat="29.28664" lon="98.692695">
<time>2016-10-07T14:35:08Z</time></trkpt>
<trkpt lat="29.28668" lon="98.692735">
<time>2016-10-07T14:35:09Z</time></trkpt>
<trkpt lat="29.28671" lon="98.692755">
<time>2016-10-07T14:35:10Z</time></trkpt>
<trkpt lat="29.28678" lon="98.692805">
<time>2016-10-07T14:35:11Z</time></trkpt>
<trkpt lat="29.28685" lon="98.692845">
<time>2016-10-07T14:35:12Z</time></trkpt>
<trkpt lat="29.28695" lon="98.692885">
<time>2016-10-07T14:35:13Z</time></trkpt>
<trkpt lat="29.287009" lon="98.692895">
<time>2016-10-07T14:35:14Z</time></trkpt>
<trkpt lat="29.287069" lon="98.692895">
<time>2016-10-07T14:35:15Z</time></trkpt>
<trkpt lat="29.287199" lon="98.692905">
<time>2016-10-07T14:35:16Z</time></trkpt>
<trkpt lat="29.287319" lon="98.692905">
<time>2016-10-07T14:35:17Z</time></trkpt>
<trkpt lat="29.287429" lon="98.692885">
<time>2016-10-07T14:35:18Z</time></trkpt>
<trkpt lat="29.287559" lon="98.692865">
<time>2016-10-07T14:35:19Z</time></trkpt>
<trkpt lat="29.287699" lon="98.692855">
<time>2016-10-07T14:35:20Z</time></trkpt>
<trkpt lat="29.287829" lon="98.692845">
<time>2016-10-07T14:35:21Z</time></trkpt>
<trkpt lat="29.287939" lon="98.692845">
<time>2016-10-07T14:35:22Z</time></trkpt>
<trkpt lat="29.288029" lon="98.692855">
<time>2016-10-07T14:35:23Z</time></trkpt>
<trkpt lat="29.288139" lon="98.692875">
<time>2016-10-07T14:35:24Z</time></trkpt>
<trkpt lat="29.288239" lon="98.692905">
<time>2016-10-07T14:35:25Z</time></trkpt>
<trkpt lat="29.288319" lon="98.692945">
<time>2016-10-07T14:35:26Z</time></trkpt>
<trkpt lat="29.288548" lon="98.693044">
<time>2016-10-07T14:35:27Z</time></trkpt>
<trkpt lat="29.288668" lon="98.693104">
<time>2016-10-07T14:35:28Z</time></trkpt>
<trkpt lat="29.288798" lon="98.693144">
<time>2016-10-07T14:35:29Z</time></trkpt>
<trkpt lat="29.288898" lon="98.693174">
<time>2016-10-07T14:35:30Z</time></trkpt>
<trkpt lat="29.289028" lon="98.693184">
<time>2016-10-07T14:35:31Z</time></trkpt>
<trkpt lat="29.289138" lon="98.693184">
<time>2016-10-07T14:35:32Z</time></trkpt>
<trkpt lat="29.289238" lon="98.693174">
<time>2016-10-07T14:35:33Z</time></trkpt>
<trkpt lat="29.289297" lon="98.693164">
<time>2016-10-07T14:35:34Z</time></trkpt>
<trkpt lat="29.289397" lon="98.693134">
<time>2016-10-07T14:35:35Z</time></trkpt>
<trkpt lat="29.289487" lon="98.693104">
<time>2016-10-07T14:35:36Z</time></trkpt>
<trkpt lat="29.289537" lon="98.693084">
<time>2016-10-07T14:35:37Z</time></trkpt>
<trkpt lat="29.289578" lon="98.693054">
<time>2016-10-07T14:35:38Z</time></trkpt>
<trkpt lat="29.289628" lon="98.693005">
<time>2016-10-07T14:35:39Z</time></trkpt>
<trkpt lat="29.289648" lon="98.692955">
<time>2016-10-07T14:35:40Z</time></trkpt>
<trkpt lat="29.289668" lon="98.692885">
<time>2016-10-07T14:35:41Z</time></trkpt>
<trkpt lat="29.289678" lon="98.692845">
<time>2016-10-07T14:35:42Z</time></trkpt>
<trkpt lat="29.289668" lon="98.692785">
<time>2016-10-07T14:35:43Z</time></trkpt>
<trkpt lat="29.289648" lon="98.692735">
<time>2016-10-07T14:35:44Z</time></trkpt>
<trkpt lat="29.289618" lon="98.692695">
<time>2016-10-07T14:35:45Z</time></trkpt>
<trkpt lat="29.289588" lon="98.692665">
<time>2016-10-07T14:35:46Z</time></trkpt>
<trkpt lat="29.289548" lon="98.692645">
<time>2016-10-07T14:35:47Z</time></trkpt>
<trkpt lat="29.289518" lon="98.692635">
<time>2016-10-07T14:35:48Z</time></trkpt>
<trkpt lat="29.289468" lon="98.692626">
<time>2016-10-07T14:35:49Z</time></trkpt>
<trkpt lat="29.289408" lon="98.692626">
<time>2016-10-07T14:35:50Z</time></trkpt>
<trkpt lat="29.289338" lon="98.692645">
<time>2016-10-07T14:35:51Z</time></trkpt>
<trkpt lat="29.289238" lon="98.692665">
<time>2016-10-07T14:35:52Z</time></trkpt>
<trkpt lat="29.289168" lon="98.692675">
<time>2016-10-07T14:35:53Z</time></trkpt>
<trkpt lat="29.288989" lon="98.692695">
<time>2016-10-07T14:35:54Z</time></trkpt>
<trkpt lat="29.288929" lon="98.692695">
<time>2016-10-07T14:35:55Z</time></trkpt>
<trkpt lat="29.288879" lon="98.692695">
<time>2016-10-07T14:35:56Z</time></trkpt>
<trkpt lat="29.288759" lon="98.692675">
<time>2016-10-07T14:35:57Z</time></trkpt>
<trkpt lat="29.288669" lon="98.692636">
<time>2016-10-07T14:35:58Z</time></trkpt>
<trkpt lat="29.288549" lon="98.692566">
<time>2016-10-07T14:35:59Z</time></trkpt>
<trkpt lat="29.288409" lon="98.692456">
<time>2016-10-07T14:36:00Z</time></trkpt>
<trkpt lat="29.28829" lon="98.692376">
<time>2016-10-07T14:36:01Z</time></trkpt>
<trkpt lat="29.28826" lon="98.692336">
<time>2016-10-07T14:36:02Z</time></trkpt>
<trkpt lat="29.28816" lon="98.692247">
<time>2016-10-07T14:36:03Z</time></trkpt>
<trkpt lat="29.28808" lon="98.692177">
<time>2016-10-07T14:36:04Z</time></trkpt>
<trkpt lat="29.28803" lon="98.692117">
<time>2016-10-07T14:36:05Z</time></trkpt>
<trkpt lat="29.28794" lon="98.692007">
<time>2016-10-07T14:36:06Z</time></trkpt>
<trkpt lat="29.287861" lon="98.691897">
<time>2016-10-07T14:36:07Z</time></trkpt>
<trkpt lat="29.287791" lon="98.691788">
<time>2016-10-07T14:36:08Z</time></trkpt>
<trkpt lat="29.287691" lon="98.691608">
<time>2016-10-07T14:36:09Z</time></trkpt>
<trkpt lat="29.287612" lon="98.691449">
<time>2016-10-07T14:36:10Z</time></trkpt>
<trkpt lat="29.287542" lon="98.691309">
<time>2016-10-07T14:36:11Z</time></trkpt>
<trkpt lat="29.287472" lon="98.691189">
<time>2016-10-07T14:36:12Z</time></trkpt>
<trkpt lat="29.287402" lon="98.69106">
<time>2016-10-07T14:36:13Z</time></trkpt>
<trkpt lat="29.287333" lon="98.69092">
<time>2016-10-07T14:36:14Z</time></trkpt>
<trkpt lat="29.287243" lon="98.690761">
<time>2016-10-07T14:36:15Z</time></trkpt>
<trkpt lat="29.287134" lon="98.690551">
<time>2016-10-07T14:36:16Z</time></trkpt>
<trkpt lat="29.287034" lon="98.690352">
<time>2016-10-07T14:36:17Z</time></trkpt>
<trkpt lat="29.286914" lon="98.690132">
<time>2016-10-07T14:36:18Z</time></trkpt>
<trkpt lat="29.286805" lon="98.689923">
<time>2016-10-07T14:36:19Z</time></trkpt>
<trkpt lat="29.286735" lon="98.689773">
<time>2016-10-07T14:36:20Z</time></trkpt>
<trkpt lat="29.286665" lon="98.689644">
<time>2016-10-07T14:36:21Z</time></trkpt>
<trkpt lat="29.286626" lon="98.689574">
<time>2016-10-07T14:36:22Z</time></trkpt>
<trkpt lat="29.286566" lon="98.689504">
<time>2016-10-07T14:36:23Z</time></trkpt>
<trkpt lat="29.286496" lon="98.689424">
<time>2016-10-07T14:36:24Z</time></trkpt>
<trkpt lat="29.286426" lon="98.689364">
<time>2016-10-07T14:36:25Z</time></trkpt>
<trkpt lat="29.286366" lon="98.689324">
<time>2016-10-07T14:36:26Z</time></trkpt>
<trkpt lat="29.286296" lon="98.689284">
<time>2016-10-07T14:36:27Z</time></trkpt>
<trkpt lat="29.286157" lon="98.689245">
<time>2016-10-07T14:36:28Z</time></trkpt>
<trkpt lat="29.286097" lon="98.689215">
<time>2016-10-07T14:36:29Z</time></trkpt>
<trkpt lat="29.286047" lon="98.689205">
<time>2016-10-07T14:36:30Z</time></trkpt>
<trkpt lat="29.285947" lon="98.689185">
<time>2016-10-07T14:36:31Z</time></trkpt>
<trkpt lat="29.285837" lon="98.689145">
<time>2016-10-07T14:36:32Z</time></trkpt>
<trkpt lat="29.285767" lon="98.689105">
<time>2016-10-07T14:36:33Z</time></trkpt>
<trkpt lat="29.285717" lon="98.689085">
<time>2016-10-07T14:36:34Z</time></trkpt>
<trkpt lat="29.285647" lon="98.689035">
<time>2016-10-07T14:36:35Z</time></trkpt>
<trkpt lat="29.285607" lon="98.688995">
<time>2016-10-07T14:36:36Z</time></trkpt>
<trkpt lat="29.285557" lon="98.688945">
<time>2016-10-07T14:36:37Z</time></trkpt>
<trkpt lat="29.285528" lon="98.688906">
<time>2016-10-07T14:36:38Z</time></trkpt>
<trkpt lat="29.285498" lon="98.688866">
<time>2016-10-07T14:36:39Z</time></trkpt>
<trkpt lat="29.285468" lon="98.688826">
<time>2016-10-07T14:36:40Z</time></trkpt>
<trkpt lat="29.285428" lon="98.688766">
<time>2016-10-07T14:36:41Z</time></trkpt>
<trkpt lat="29.285388" lon="98.688676">
<time>2016-10-07T14:36:42Z</time></trkpt>
<trkpt lat="29.285368" lon="98.688616">
<time>2016-10-07T14:36:43Z</time></trkpt>
<trkpt lat="29.285338" lon="98.688517">
<time>2016-10-07T14:36:44Z</time></trkpt>
<trkpt lat="29.285328" lon="98.688467">
<time>2016-10-07T14:36:45Z</time></trkpt>
<trkpt lat="29.285329" lon="98.688417">
<time>2016-10-07T14:36:46Z</time></trkpt>
<trkpt lat="29.285319" lon="98.688327">
<time>2016-10-07T14:36:47Z</time></trkpt>
<trkpt lat="29.285329" lon="98.688217">
<time>2016-10-07T14:36:48Z</time></trkpt>
<trkpt lat="29.285339" lon="98.688108">
<time>2016-10-07T14:36:49Z</time></trkpt>
<trkpt lat="29.285369" lon="98.687988">
<time>2016-10-07T14:36:50Z</time></trkpt>
<trkpt lat="29.285399" lon="98.687888">
<time>2016-10-07T14:36:51Z</time></trkpt>
<trkpt lat="29.28544" lon="98.687789">
<time>2016-10-07T14:36:52Z</time></trkpt>
<trkpt lat="29.2855" lon="98.687639">
<time>2016-10-07T14:36:53Z</time></trkpt>
<trkpt lat="29.28558" lon="98.687479">
<time>2016-10-07T14:36:54Z</time></trkpt>
<trkpt lat="29.28562" lon="98.68737">
<time>2016-10-07T14:36:55Z</time></trkpt>
<trkpt lat="29.28565" lon="98.6873">
<time>2016-10-07T14:36:56Z</time></trkpt>
<trkpt lat="29.285671" lon="98.68721">
<time>2016-10-07T14:36:57Z</time></trkpt>
<trkpt lat="29.285691" lon="98.6871">
<time>2016-10-07T14:36:58Z</time></trkpt>
<trkpt lat="29.285711" lon="98.687001">
<time>2016-10-07T14:36:59Z</time></trkpt>
<trkpt lat="29.285711" lon="98.686901">
<time>2016-10-07T14:37:00Z</time></trkpt>
<trkpt lat="29.285701" lon="98.686771">
<time>2016-10-07T14:37:01Z</time></trkpt>
<trkpt lat="29.285682" lon="98.686482">
<time>2016-10-07T14:37:02Z</time></trkpt>
<trkpt lat="29.285662" lon="98.686223">
<time>2016-10-07T14:37:03Z</time></trkpt>
<trkpt lat="29.285653" lon="98.686073">
<time>2016-10-07T14:37:04Z</time></trkpt>
<trkpt lat="29.285643" lon="98.685904">
<time>2016-10-07T14:37:05Z</time></trkpt>
<trkpt lat="29.285643" lon="98.685794">
<time>2016-10-07T14:37:06Z</time></trkpt>
<trkpt lat="29.285633" lon="98.685744">
<time>2016-10-07T14:37:07Z</time></trkpt>
<trkpt lat="29.285633" lon="98.685714">
<time>2016-10-07T14:37:08Z</time></trkpt>
<trkpt lat="29.285643" lon="98.685684">
<time>2016-10-07T14:37:09Z</time></trkpt>
<trkpt lat="29.285643" lon="98.685644">
<time>2016-10-07T14:37:10Z</time></trkpt>
<trkpt lat="29.285653" lon="98.685624">
<time>2016-10-07T14:37:11Z</time></trkpt>
<trkpt lat="29.285663" lon="98.685594">
<time>2016-10-07T14:37:12Z</time></trkpt>
<trkpt lat="29.285684" lon="98.685565">
<time>2016-10-07T14:37:13Z</time></trkpt>
<trkpt lat="29.285704" lon="98.685525">
<time>2016-10-07T14:37:14Z</time></trkpt>
<trkpt lat="29.285734" lon="98.685505">
<time>2016-10-07T14:37:15Z</time></trkpt>
<trkpt lat="29.285754" lon="98.685475">
<time>2016-10-07T14:37:16Z</time></trkpt>
<trkpt lat="29.285784" lon="98.685465">
<time>2016-10-07T14:37:17Z</time></trkpt>
<trkpt lat="29.285804" lon="98.685445">
<time>2016-10-07T14:37:18Z</time></trkpt>
<trkpt lat="29.285824" lon="98.685435">
<time>2016-10-07T14:37:19Z</time></trkpt>
<trkpt lat="29.285854" lon="98.685425">
<time>2016-10-07T14:37:20Z</time></trkpt>
<trkpt lat="29.285864" lon="98.685425">
<time>2016-10-07T14:37:21Z</time></trkpt>
<trkpt lat="29.285904" lon="98.685425">
<time>2016-10-07T14:37:22Z</time></trkpt>
<trkpt lat="29.285954" lon="98.685425">
<time>2016-10-07T14:37:23Z</time></trkpt>
<trkpt lat="29.285984" lon="98.685425">
<time>2016-10-07T14:37:24Z</time></trkpt>
<trkpt lat="29.286014" lon="98.685425">
<time>2016-10-07T14:37:25Z</time></trkpt>
<trkpt lat="29.286044" lon="98.685435">
<time>2016-10-07T14:37:26Z</time></trkpt>
<trkpt lat="29.286073" lon="98.685445">
<time>2016-10-07T14:37:27Z</time></trkpt>
<trkpt lat="29.286113" lon="98.685455">
<time>2016-10-07T14:37:28Z</time></trkpt>
<trkpt lat="29.286173" lon="98.685485">
<time>2016-10-07T14:37:29Z</time></trkpt>
<trkpt lat="29.286253" lon="98.685525">
<time>2016-10-07T14:37:30Z</time></trkpt>
<trkpt lat="29.286373" lon="98.685565">
<time>2016-10-07T14:37:31Z</time></trkpt>
<trkpt lat="29.286513" lon="98.685624">
<time>2016-10-07T14:37:32Z</time></trkpt>
<trkpt lat="29.286683" lon="98.685694">
<time>2016-10-07T14:37:33Z</time></trkpt>
<trkpt lat="29.286862" lon="98.685764">
<time>2016-10-07T14:37:34Z</time></trkpt>
<trkpt lat="29.286982" lon="98.685814">
<time>2016-10-07T14:37:35Z</time></trkpt>
<trkpt lat="29.287192" lon="98.685894">
<time>2016-10-07T14:37:36Z</time></trkpt>
<trkpt lat="29.287332" lon="98.685944">
<time>2016-10-07T14:37:37Z</time></trkpt>
<trkpt lat="29.287521" lon="98.686003">
<time>2016-10-07T14:37:38Z</time></trkpt>
<trkpt lat="29.287651" lon="98.686023">
<time>2016-10-07T14:37:39Z</time></trkpt>
<trkpt lat="29.287781" lon="98.686053">
<time>2016-10-07T14:37:40Z</time></trkpt>
<trkpt lat="29.287861" lon="98.686063">
<time>2016-10-07T14:37:41Z</time></trkpt>
<trkpt lat="29.288011" lon="98.686093">
<time>2016-10-07T14:37:42Z</time></trkpt>
<trkpt lat="29.288201" lon="98.686113">
<time>2016-10-07T14:37:43Z</time></trkpt>
<trkpt lat="29.288401" lon="98.686133">
<time>2016-10-07T14:37:44Z</time></trkpt>
<trkpt lat="29.288581" lon="98.686153">
<time>2016-10-07T14:37:45Z</time></trkpt>
<trkpt lat="29.28871" lon="98.686173">
<time>2016-10-07T14:37:46Z</time></trkpt>
<trkpt lat="29.2889" lon="98.686193">
<time>2016-10-07T14:37:47Z</time></trkpt>
<trkpt lat="29.28901" lon="98.686203">
<time>2016-10-07T14:37:48Z</time></trkpt>
<trkpt lat="29.28914" lon="98.686213">
<time>2016-10-07T14:37:49Z</time></trkpt>
<trkpt lat="29.28924" lon="98.686203">
<time>2016-10-07T14:37:50Z</time></trkpt>
<trkpt lat="29.28932" lon="98.686193">
<time>2016-10-07T14:37:51Z</time></trkpt>
<trkpt lat="29.2894" lon="98.686173">
<time>2016-10-07T14:37:52Z</time></trkpt>
<trkpt lat="29.28948" lon="98.686153">
<time>2016-10-07T14:37:53Z</time></trkpt>
<trkpt lat="29.28961" lon="98.686103">
<time>2016-10-07T14:37:54Z</time></trkpt>
<trkpt lat="29.28969" lon="98.686063">
<time>2016-10-07T14:37:55Z</time></trkpt>
<trkpt lat="29.28974" lon="98.686043">
<time>2016-10-07T14:37:56Z</time></trkpt>
<trkpt lat="29.28982" lon="98.686013">
<time>2016-10-07T14:37:57Z</time></trkpt>
<trkpt lat="29.28987" lon="98.685993">
<time>2016-10-07T14:37:58Z</time></trkpt>
<trkpt lat="29.28992" lon="98.685973">
<time>2016-10-07T14:37:59Z</time></trkpt>
<trkpt lat="29.29001" lon="98.685953">
<time>2016-10-07T14:38:00Z</time></trkpt>
<trkpt lat="29.2901" lon="98.685943">
<time>2016-10-07T14:38:01Z</time></trkpt>
<trkpt lat="29.29018" lon="98.685953">
<time>2016-10-07T14:38:02Z</time></trkpt>
<trkpt lat="29.29027" lon="98.685963">
<time>2016-10-07T14:38:03Z</time></trkpt>
<trkpt lat="29.29032" lon="98.685973">
<time>2016-10-07T14:38:04Z</time></trkpt>
<trkpt lat="29.29035" lon="98.685993">
<time>2016-10-07T14:38:05Z</time></trkpt>
<trkpt lat="29.29038" lon="98.686003">
<time>2016-10-07T14:38:06Z</time></trkpt>
<trkpt lat="29.29043" lon="98.686023">
<time>2016-10-07T14:38:07Z</time></trkpt>
<trkpt lat="29.290479" lon="98.686053">
<time>2016-10-07T14:38:08Z</time></trkpt>
<trkpt lat="29.290589" lon="98.686123">
<time>2016-10-07T14:38:09Z</time></trkpt>
<trkpt lat="29.290729" lon="98.686233">
<time>2016-10-07T14:38:10Z</time></trkpt>
<trkpt lat="29.290819" lon="98.686302">
<time>2016-10-07T14:38:11Z</time></trkpt>
<trkpt lat="29.290879" lon="98.686332">
<time>2016-10-07T14:38:12Z</time></trkpt>
<trkpt lat="29.290929" lon="98.686352">
<time>2016-10-07T14:38:13Z</time></trkpt>
<trkpt lat="29.290979" lon="98.686372">
<time>2016-10-07T14:38:14Z</time></trkpt>
<trkpt lat="29.291038" lon="98.686382">
<time>2016-10-07T14:38:15Z</time></trkpt>
<trkpt lat="29.291108" lon="98.686382">
<time>2016-10-07T14:38:16Z</time></trkpt>
<trkpt lat="29.291198" lon="98.686372">
<time>2016-10-07T14:38:17Z</time></trkpt>
<trkpt lat="29.291258" lon="98.686362">
<time>2016-10-07T14:38:18Z</time></trkpt>
<trkpt lat="29.291308" lon="98.686352">
<time>2016-10-07T14:38:19Z</time></trkpt>
<trkpt lat="29.291398" lon="98.686322">
<time>2016-10-07T14:38:20Z</time></trkpt>
<trkpt lat="29.291478" lon="98.686292">
<time>2016-10-07T14:38:21Z</time></trkpt>
<trkpt lat="29.291558" lon="98.686273">
<time>2016-10-07T14:38:22Z</time></trkpt>
<trkpt lat="29.291628" lon="98.686263">
<time>2016-10-07T14:38:23Z</time></trkpt>
<trkpt lat="29.291688" lon="98.686263">
<time>2016-10-07T14:38:24Z</time></trkpt>
<trkpt lat="29.291748" lon="98.686273">
<time>2016-10-07T14:38:25Z</time></trkpt>
<trkpt lat="29.291798" lon="98.686283">
<time>2016-10-07T14:38:26Z</time></trkpt>
<trkpt lat="29.291848" lon="98.686302">
<time>2016-10-07T14:38:27Z</time></trkpt>
<trkpt lat="29.291888" lon="98.686332">
<time>2016-10-07T14:38:28Z</time></trkpt>
<trkpt lat="29.291918" lon="98.686352">
<time>2016-10-07T14:38:29Z</time></trkpt>
<trkpt lat="29.291988" lon="98.686412">
<time>2016-10-07T14:38:30Z</time></trkpt>
<trkpt lat="29.292078" lon="98.686502">
<time>2016-10-07T14:38:31Z</time></trkpt>
<trkpt lat="29.292177" lon="98.686622">
<time>2016-10-07T14:38:32Z</time></trkpt>
<trkpt lat="29.292247" lon="98.686691">
<time>2016-10-07T14:38:33Z</time></trkpt>
<trkpt lat="29.292277" lon="98.686721">
<time>2016-10-07T14:38:34Z</time></trkpt>
<trkpt lat="29.292327" lon="98.686751">
<time>2016-10-07T14:38:35Z</time></trkpt>
<trkpt lat="29.292367" lon="98.686781">
<time>2016-10-07T14:38:36Z</time></trkpt>
<trkpt lat="29.292427" lon="98.686801">
<time>2016-10-07T14:38:37Z</time></trkpt>
<trkpt lat="29.292457" lon="98.686811">
<time>2016-10-07T14:38:38Z</time></trkpt>
<trkpt lat="29.292527" lon="98.686821">
<time>2016-10-07T14:38:39Z</time></trkpt>
<trkpt lat="29.292557" lon="98.686821">
<time>2016-10-07T14:38:40Z</time></trkpt>
<trkpt lat="29.292617" lon="98.686821">
<time>2016-10-07T14:38:41Z</time></trkpt>
<trkpt lat="29.292667" lon="98.686801">
<time>2016-10-07T14:38:42Z</time></trkpt>
<trkpt lat="29.292717" lon="98.686781">
<time>2016-10-07T14:38:43Z</time></trkpt>
<trkpt lat="29.292787" lon="98.686741">
<time>2016-10-07T14:38:44Z</time></trkpt>
<trkpt lat="29.292837" lon="98.686701">
<time>2016-10-07T14:38:45Z</time></trkpt>
<trkpt lat="29.292897" lon="98.686642">
<time>2016-10-07T14:38:46Z</time></trkpt>
<trkpt lat="29.292937" lon="98.686602">
<time>2016-10-07T14:38:47Z</time></trkpt>
<trkpt lat="29.292967" lon="98.686562">
<time>2016-10-07T14:38:48Z</time></trkpt>
<trkpt lat="29.293017" lon="98.686462">
<time>2016-10-07T14:38:49Z</time></trkpt>
<trkpt lat="29.293107" lon="98.686312">
<time>2016-10-07T14:38:50Z</time></trkpt>
<trkpt lat="29.293167" lon="98.686223">
<time>2016-10-07T14:38:51Z</time></trkpt>
<trkpt lat="29.293217" lon="98.686143">
<time>2016-10-07T14:38:52Z</time></trkpt>
<trkpt lat="29.293248" lon="98.686113">
<time>2016-10-07T14:38:53Z</time></trkpt>
<trkpt lat="29.293288" lon="98.686073">
<time>2016-10-07T14:38:54Z</time></trkpt>
<trkpt lat="29.293318" lon="98.686043">
<time>2016-10-07T14:38:55Z</time></trkpt>
<trkpt lat="29.293368" lon="98.686023">
<time>2016-10-07T14:38:56Z</time></trkpt>
<trkpt lat="29.293428" lon="98.685993">
<time>2016-10-07T14:38:57Z</time></trkpt>
<trkpt lat="29.293488" lon="98.685973">
<time>2016-10-07T14:38:58Z</time></trkpt>
<trkpt lat="29.293558" lon="98.685963">
<time>2016-10-07T14:38:59Z</time></trkpt>
<trkpt lat="29.293638" lon="98.685973">
<time>2016-10-07T14:39:00Z</time></trkpt>
<trkpt lat="29.293687" lon="98.685983">
<time>2016-10-07T14:39:01Z</time></trkpt>
<trkpt lat="29.293757" lon="98.685993">
<time>2016-10-07T14:39:02Z</time></trkpt>
<trkpt lat="29.293877" lon="98.686033">
<time>2016-10-07T14:39:03Z</time></trkpt>
<trkpt lat="29.294147" lon="98.686133">
<time>2016-10-07T14:39:04Z</time></trkpt>
<trkpt lat="29.294257" lon="98.686173">
<time>2016-10-07T14:39:05Z</time></trkpt>
<trkpt lat="29.294357" lon="98.686203">
<time>2016-10-07T14:39:06Z</time></trkpt>
<trkpt lat="29.294446" lon="98.686233">
<time>2016-10-07T14:39:07Z</time></trkpt>
<trkpt lat="29.294486" lon="98.686243">
<time>2016-10-07T14:39:08Z</time></trkpt>
<trkpt lat="29.294536" lon="98.686253">
<time>2016-10-07T14:39:09Z</time></trkpt>
<trkpt lat="29.294596" lon="98.686253">
<time>2016-10-07T14:39:10Z</time></trkpt>
<trkpt lat="29.294656" lon="98.686253">
<time>2016-10-07T14:39:11Z</time></trkpt>
<trkpt lat="29.294726" lon="98.686243">
<time>2016-10-07T14:39:12Z</time></trkpt>
<trkpt lat="29.294816" lon="98.686213">
<time>2016-10-07T14:39:13Z</time></trkpt>
<trkpt lat="29.294846" lon="98.686193">
<time>2016-10-07T14:39:14Z</time></trkpt>
<trkpt lat="29.294906" lon="98.686163">
<time>2016-10-07T14:39:15Z</time></trkpt>
<trkpt lat="29.295006" lon="98.686093">
<time>2016-10-07T14:39:16Z</time></trkpt>
<trkpt lat="29.295066" lon="98.686043">
<time>2016-10-07T14:39:17Z</time></trkpt>
<trkpt lat="29.295106" lon="98.686013">
<time>2016-10-07T14:39:18Z</time></trkpt>
<trkpt lat="29.295157" lon="98.685973">
<time>2016-10-07T14:39:19Z</time></trkpt>
<trkpt lat="29.295217" lon="98.685943">
<time>2016-10-07T14:39:20Z</time></trkpt>
<trkpt lat="29.295257" lon="98.685923">
<time>2016-10-07T14:39:21Z</time></trkpt>
<trkpt lat="29.295317" lon="98.685903">
<time>2016-10-07T14:39:22Z</time></trkpt>
<trkpt lat="29.295367" lon="98.685893">
<time>2016-10-07T14:39:23Z</time></trkpt>
<trkpt lat="29.295396" lon="98.685893">
<time>2016-10-07T14:39:24Z</time></trkpt>
<trkpt lat="29.295436" lon="98.685893">
<time>2016-10-07T14:39:25Z</time></trkpt>
<trkpt lat="29.295476" lon="98.685893">
<time>2016-10-07T14:39:26Z</time></trkpt>
<trkpt lat="29.295556" lon="98.685913">
<time>2016-10-07T14:39:27Z</time></trkpt>
<trkpt lat="29.295606" lon="98.685933">
<time>2016-10-07T14:39:28Z</time></trkpt>
<trkpt lat="29.295676" lon="98.685973">
<time>2016-10-07T14:39:29Z</time></trkpt>
<trkpt lat="29.295756" lon="98.686023">
<time>2016-10-07T14:39:30Z</time></trkpt>
<trkpt lat="29.295836" lon="98.686063">
<time>2016-10-07T14:39:31Z</time></trkpt>
<trkpt lat="29.295886" lon="98.686093">
<time>2016-10-07T14:39:32Z</time></trkpt>
<trkpt lat="29.295926" lon="98.686103">
<time>2016-10-07T14:39:33Z</time></trkpt>
<trkpt lat="29.295966" lon="98.686113">
<time>2016-10-07T14:39:34Z</time></trkpt>
<trkpt lat="29.295996" lon="98.686123">
<time>2016-10-07T14:39:35Z</time></trkpt>
<trkpt lat="29.296046" lon="98.686123">
<time>2016-10-07T14:39:36Z</time></trkpt>
<trkpt lat="29.296096" lon="98.686123">
<time>2016-10-07T14:39:37Z</time></trkpt>
<trkpt lat="29.296156" lon="98.686103">
<time>2016-10-07T14:39:38Z</time></trkpt>
<trkpt lat="29.296226" lon="98.686053">
<time>2016-10-07T14:39:39Z</time></trkpt>
<trkpt lat="29.296286" lon="98.686013">
<time>2016-10-07T14:39:40Z</time></trkpt>
<trkpt lat="29.296366" lon="98.685923">
<time>2016-10-07T14:39:41Z</time></trkpt>
<trkpt lat="29.296426" lon="98.685864">
<time>2016-10-07T14:39:42Z</time></trkpt>
<trkpt lat="29.296446" lon="98.685834">
<time>2016-10-07T14:39:43Z</time></trkpt>
<trkpt lat="29.296486" lon="98.685794">
<time>2016-10-07T14:39:44Z</time></trkpt>
<trkpt lat="29.296546" lon="98.685734">
<time>2016-10-07T14:39:45Z</time></trkpt>
<trkpt lat="29.296596" lon="98.685694">
<time>2016-10-07T14:39:46Z</time></trkpt>
<trkpt lat="29.296666" lon="98.685644">
<time>2016-10-07T14:39:47Z</time></trkpt>
<trkpt lat="29.296726" lon="98.685614">
<time>2016-10-07T14:39:48Z</time></trkpt>
<trkpt lat="29.296806" lon="98.685594">
<time>2016-10-07T14:39:49Z</time></trkpt>
<trkpt lat="29.296926" lon="98.685574">
<time>2016-10-07T14:39:50Z</time></trkpt>
<trkpt lat="29.297036" lon="98.685554">
<time>2016-10-07T14:39:51Z</time></trkpt>
<trkpt lat="29.297156" lon="98.685544">
<time>2016-10-07T14:39:52Z</time></trkpt>
<trkpt lat="29.297276" lon="98.685505">
<time>2016-10-07T14:39:53Z</time></trkpt>
<trkpt lat="29.297366" lon="98.685465">
<time>2016-10-07T14:39:54Z</time></trkpt>
<trkpt lat="29.297436" lon="98.685415">
<time>2016-10-07T14:39:55Z</time></trkpt>
<trkpt lat="29.297506" lon="98.685335">
<time>2016-10-07T14:39:56Z</time></trkpt>
<trkpt lat="29.297566" lon="98.685245">
<time>2016-10-07T14:39:57Z</time></trkpt>
<trkpt lat="29.297636" lon="98.685126">
<time>2016-10-07T14:39:58Z</time></trkpt>
<trkpt lat="29.297747" lon="98.684856">
<time>2016-10-07T14:39:59Z</time></trkpt>
<trkpt lat="29.297897" lon="98.684507">
<time>2016-10-07T14:40:00Z</time></trkpt>
<trkpt lat="29.298028" lon="98.684188">
<time>2016-10-07T14:40:01Z</time></trkpt>
<trkpt lat="29.298179" lon="98.683809">
<time>2016-10-07T14:40:02Z</time></trkpt>
<trkpt lat="29.298219" lon="98.683719">
<time>2016-10-07T14:40:03Z</time></trkpt>
<trkpt lat="29.298239" lon="98.68357">
<time>2016-10-07T14:40:04Z</time></trkpt>
<trkpt lat="29.298259" lon="98.6834">
<time>2016-10-07T14:40:05Z</time></trkpt>
<trkpt lat="29.298269" lon="98.683311">
<time>2016-10-07T14:40:06Z</time></trkpt>
<trkpt lat="29.29828" lon="98.683201">
<time>2016-10-07T14:40:07Z</time></trkpt>
<trkpt lat="29.29828" lon="98.682981">
<time>2016-10-07T14:40:08Z</time></trkpt>
<trkpt lat="29.2983" lon="98.682872">
<time>2016-10-07T14:40:09Z</time></trkpt>
<trkpt lat="29.29831" lon="98.682802">
<time>2016-10-07T14:40:10Z</time></trkpt>
<trkpt lat="29.29833" lon="98.682732">
<time>2016-10-07T14:40:11Z</time></trkpt>
<trkpt lat="29.29835" lon="98.682692">
<time>2016-10-07T14:40:12Z</time></trkpt>
<trkpt lat="29.298391" lon="98.682622">
<time>2016-10-07T14:40:13Z</time></trkpt>
<trkpt lat="29.298421" lon="98.682563">
<time>2016-10-07T14:40:14Z</time></trkpt>
<trkpt lat="29.298491" lon="98.682483">
<time>2016-10-07T14:40:15Z</time></trkpt>
<trkpt lat="29.298541" lon="98.682433">
<time>2016-10-07T14:40:16Z</time></trkpt>
<trkpt lat="29.298591" lon="98.682413">
<time>2016-10-07T14:40:17Z</time></trkpt>
<trkpt lat="29.298661" lon="98.682383">
<time>2016-10-07T14:40:18Z</time></trkpt>
<trkpt lat="29.298711" lon="98.682363">
<time>2016-10-07T14:40:19Z</time></trkpt>
<trkpt lat="29.298811" lon="98.682343">
<time>2016-10-07T14:40:20Z</time></trkpt>
<trkpt lat="29.298931" lon="98.682343">
<time>2016-10-07T14:40:21Z</time></trkpt>
<trkpt lat="29.299021" lon="98.682343">
<time>2016-10-07T14:40:22Z</time></trkpt>
<trkpt lat="29.299091" lon="98.682343">
<time>2016-10-07T14:40:23Z</time></trkpt>
<trkpt lat="29.299181" lon="98.682343">
<time>2016-10-07T14:40:24Z</time></trkpt>
<trkpt lat="29.299271" lon="98.682333">
<time>2016-10-07T14:40:25Z</time></trkpt>
<trkpt lat="29.299341" lon="98.682313">
<time>2016-10-07T14:40:26Z</time></trkpt>
<trkpt lat="29.299391" lon="98.682293">
<time>2016-10-07T14:40:27Z</time></trkpt>
<trkpt lat="29.299441" lon="98.682273">
<time>2016-10-07T14:40:28Z</time></trkpt>
<trkpt lat="29.299511" lon="98.682224">
<time>2016-10-07T14:40:29Z</time></trkpt>
<trkpt lat="29.299571" lon="98.682164">
<time>2016-10-07T14:40:30Z</time></trkpt>
<trkpt lat="29.299611" lon="98.682104">
<time>2016-10-07T14:40:31Z</time></trkpt>
<trkpt lat="29.299651" lon="98.682034">
<time>2016-10-07T14:40:32Z</time></trkpt>
<trkpt lat="29.299671" lon="98.681964">
<time>2016-10-07T14:40:33Z</time></trkpt>
<trkpt lat="29.299691" lon="98.681894">
<time>2016-10-07T14:40:34Z</time></trkpt>
<trkpt lat="29.299711" lon="98.681785">
<time>2016-10-07T14:40:35Z</time></trkpt>
<trkpt lat="29.299742" lon="98.681645">
<time>2016-10-07T14:40:36Z</time></trkpt>
<trkpt lat="29.299762" lon="98.681535">
<time>2016-10-07T14:40:37Z</time></trkpt>
<trkpt lat="29.299782" lon="98.681476">
<time>2016-10-07T14:40:38Z</time></trkpt>
<trkpt lat="29.299802" lon="98.681426">
<time>2016-10-07T14:40:39Z</time></trkpt>
<trkpt lat="29.299852" lon="98.681376">
<time>2016-10-07T14:40:40Z</time></trkpt>
<trkpt lat="29.299892" lon="98.681346">
<time>2016-10-07T14:40:41Z</time></trkpt>
<trkpt lat="29.299932" lon="98.681316">
<time>2016-10-07T14:40:42Z</time></trkpt>
<trkpt lat="29.299962" lon="98.681306">
<time>2016-10-07T14:40:43Z</time></trkpt>
<trkpt lat="29.299992" lon="98.681296">
<time>2016-10-07T14:40:44Z</time></trkpt>
<trkpt lat="29.300022" lon="98.681286">
<time>2016-10-07T14:40:45Z</time></trkpt>
<trkpt lat="29.300052" lon="98.681286">
<time>2016-10-07T14:40:46Z</time></trkpt>
<trkpt lat="29.300092" lon="98.681286">
<time>2016-10-07T14:40:47Z</time></trkpt>
<trkpt lat="29.300172" lon="98.681296">
<time>2016-10-07T14:40:48Z</time></trkpt>
<trkpt lat="29.300252" lon="98.681326">
<time>2016-10-07T14:40:49Z</time></trkpt>
<trkpt lat="29.300362" lon="98.681356">
<time>2016-10-07T14:40:50Z</time></trkpt>
<trkpt lat="29.300402" lon="98.681366">
<time>2016-10-07T14:40:51Z</time></trkpt>
<trkpt lat="29.300452" lon="98.681376">
<time>2016-10-07T14:40:52Z</time></trkpt>
<trkpt lat="29.300601" lon="98.681426">
<time>2016-10-07T14:40:53Z</time></trkpt>
<trkpt lat="29.300711" lon="98.681456">
<time>2016-10-07T14:40:54Z</time></trkpt>
<trkpt lat="29.300761" lon="98.681476">
<time>2016-10-07T14:40:55Z</time></trkpt>
<trkpt lat="29.300831" lon="98.681496">
<time>2016-10-07T14:40:56Z</time></trkpt>
<trkpt lat="29.300881" lon="98.681505">
<time>2016-10-07T14:40:57Z</time></trkpt>
<trkpt lat="29.300941" lon="98.681515">
<time>2016-10-07T14:40:58Z</time></trkpt>
<trkpt lat="29.300991" lon="98.681515">
<time>2016-10-07T14:40:59Z</time></trkpt>
<trkpt lat="29.301041" lon="98.681515">
<time>2016-10-07T14:41:00Z</time></trkpt>
<trkpt lat="29.301071" lon="98.681515">
<time>2016-10-07T14:41:01Z</time></trkpt>
<trkpt lat="29.301131" lon="98.681505">
<time>2016-10-07T14:41:02Z</time></trkpt>
<trkpt lat="29.301191" lon="98.681486">
<time>2016-10-07T14:41:03Z</time></trkpt>
<trkpt lat="29.301221" lon="98.681466">
<time>2016-10-07T14:41:04Z</time></trkpt>
<trkpt lat="29.301291" lon="98.681436">
<time>2016-10-07T14:41:05Z</time></trkpt>
<trkpt lat="29.301341" lon="98.681406">
<time>2016-10-07T14:41:06Z</time></trkpt>
<trkpt lat="29.301411" lon="98.681356">
<time>2016-10-07T14:41:07Z</time></trkpt>
<trkpt lat="29.301501" lon="98.681296">
<time>2016-10-07T14:41:08Z</time></trkpt>
<trkpt lat="29.301601" lon="98.681226">
<time>2016-10-07T14:41:09Z</time></trkpt>
<trkpt lat="29.301651" lon="98.681186">
<time>2016-10-07T14:41:10Z</time></trkpt>
<trkpt lat="29.301701" lon="98.681166">
<time>2016-10-07T14:41:11Z</time></trkpt>
<trkpt lat="29.301731" lon="98.681146">
<time>2016-10-07T14:41:12Z</time></trkpt>
<trkpt lat="29.301831" lon="98.681097">
<time>2016-10-07T14:41:13Z</time></trkpt>
<trkpt lat="29.301911" lon="98.681067">
<time>2016-10-07T14:41:14Z</time></trkpt>
<trkpt lat="29.301951" lon="98.681057">
<time>2016-10-07T14:41:15Z</time></trkpt>
<trkpt lat="29.302051" lon="98.681027">
<time>2016-10-07T14:41:16Z</time></trkpt>
<trkpt lat="29.302121" lon="98.680997">
<time>2016-10-07T14:41:17Z</time></trkpt>
<trkpt lat="29.302181" lon="98.680987">
<time>2016-10-07T14:41:18Z</time></trkpt>
<trkpt lat="29.302241" lon="98.680977">
<time>2016-10-07T14:41:19Z</time></trkpt>
<trkpt lat="29.302301" lon="98.680967">
<time>2016-10-07T14:41:20Z</time></trkpt>
<trkpt lat="29.302361" lon="98.680957">
<time>2016-10-07T14:41:21Z</time></trkpt>
<trkpt lat="29.302411" lon="98.680957">
<time>2016-10-07T14:41:22Z</time></trkpt>
<trkpt lat="29.302471" lon="98.680957">
<time>2016-10-07T14:41:23Z</time></trkpt>
<trkpt lat="29.302601" lon="98.680957">
<time>2016-10-07T14:41:24Z</time></trkpt>
<trkpt lat="29.302711" lon="98.680957">
<time>2016-10-07T14:41:25Z</time></trkpt>
<trkpt lat="29.302821" lon="98.680957">
<time>2016-10-07T14:41:26Z</time></trkpt>
<trkpt lat="29.302961" lon="98.680957">
<time>2016-10-07T14:41:27Z</time></trkpt>
<trkpt lat="29.303071" lon="98.680967">
<time>2016-10-07T14:41:28Z</time></trkpt>
<trkpt lat="29.30332" lon="98.680977">
<time>2016-10-07T14:41:29Z</time></trkpt>
<trkpt lat="29.30342" lon="98.680977">
<time>2016-10-07T14:41:30Z</time></trkpt>
<trkpt lat="29.30351" lon="98.680967">
<time>2016-10-07T14:41:31Z</time></trkpt>
<trkpt lat="29.30357" lon="98.680947">
<time>2016-10-07T14:41:32Z</time></trkpt>
<trkpt lat="29.30362" lon="98.680917">
<time>2016-10-07T14:41:33Z</time></trkpt>
<trkpt lat="29.30369" lon="98.680857">
<time>2016-10-07T14:41:34Z</time></trkpt>
<trkpt lat="29.303751" lon="98.680777">
<time>2016-10-07T14:41:35Z</time></trkpt>
<trkpt lat="29.303771" lon="98.680718">
<time>2016-10-07T14:41:36Z</time></trkpt>
<trkpt lat="29.303781" lon="98.680658">
<time>2016-10-07T14:41:37Z</time></trkpt>
<trkpt lat="29.303781" lon="98.680628">
<time>2016-10-07T14:41:38Z</time></trkpt>
<trkpt lat="29.303781" lon="98.680518">
<time>2016-10-07T14:41:39Z</time></trkpt>
<trkpt lat="29.303751" lon="98.680299">
<time>2016-10-07T14:41:40Z</time></trkpt>
<trkpt lat="29.303712" lon="98.680069">
<time>2016-10-07T14:41:41Z</time></trkpt>
<trkpt lat="29.303672" lon="98.67985">
<time>2016-10-07T14:41:42Z</time></trkpt>
<trkpt lat="29.303613" lon="98.679531">
<time>2016-10-07T14:41:43Z</time></trkpt>
<trkpt lat="29.303593" lon="98.679401">
<time>2016-10-07T14:41:44Z</time></trkpt>
<trkpt lat="29.303584" lon="98.679272">
<time>2016-10-07T14:41:45Z</time></trkpt>
<trkpt lat="29.303584" lon="98.679142">
<time>2016-10-07T14:41:46Z</time></trkpt>
<trkpt lat="29.303594" lon="98.679062">
<time>2016-10-07T14:41:47Z</time></trkpt>
<trkpt lat="29.303634" lon="98.678923">
<time>2016-10-07T14:41:48Z</time></trkpt>
<trkpt lat="29.303694" lon="98.678763">
<time>2016-10-07T14:41:49Z</time></trkpt>
<trkpt lat="29.303765" lon="98.678643">
<time>2016-10-07T14:41:50Z</time></trkpt>
<trkpt lat="29.303855" lon="98.678554">
<time>2016-10-07T14:41:51Z</time></trkpt>
<trkpt lat="29.303955" lon="98.678454">
<time>2016-10-07T14:41:52Z</time></trkpt>
<trkpt lat="29.304075" lon="98.678374">
<time>2016-10-07T14:41:53Z</time></trkpt>
<trkpt lat="29.304125" lon="98.678354">
<time>2016-10-07T14:41:54Z</time></trkpt>
<trkpt lat="29.304165" lon="98.678354">
<time>2016-10-07T14:41:55Z</time></trkpt>
<trkpt lat="29.304245" lon="98.678334">
<time>2016-10-07T14:41:56Z</time></trkpt>
<trkpt lat="29.304295" lon="98.678324">
<time>2016-10-07T14:41:57Z</time></trkpt>
<trkpt lat="29.304345" lon="98.678314">
<time>2016-10-07T14:41:58Z</time></trkpt>
<trkpt lat="29.304405" lon="98.678324">
<time>2016-10-07T14:41:59Z</time></trkpt>
<trkpt lat="29.304455" lon="98.678324">
<time>2016-10-07T14:42:00Z</time></trkpt>
<trkpt lat="29.304525" lon="98.678324">
<time>2016-10-07T14:42:01Z</time></trkpt>
<trkpt lat="29.304565" lon="98.678324">
<time>2016-10-07T14:42:02Z</time></trkpt>
<trkpt lat="29.304605" lon="98.678334">
<time>2016-10-07T14:42:03Z</time></trkpt>
<trkpt lat="29.304645" lon="98.678344">
<time>2016-10-07T14:42:04Z</time></trkpt>
<trkpt lat="29.304715" lon="98.678344">
<time>2016-10-07T14:42:05Z</time></trkpt>
<trkpt lat="29.304755" lon="98.678344">
<time>2016-10-07T14:42:06Z</time></trkpt>
<trkpt lat="29.304795" lon="98.678344">
<time>2016-10-07T14:42:07Z</time></trkpt>
<trkpt lat="29.304824" lon="98.678344">
<time>2016-10-07T14:42:08Z</time></trkpt>
<trkpt lat="29.304874" lon="98.678344">
<time>2016-10-07T14:42:09Z</time></trkpt>
<trkpt lat="29.304934" lon="98.678334">
<time>2016-10-07T14:42:10Z</time></trkpt>
<trkpt lat="29.304974" lon="98.678334">
<time>2016-10-07T14:42:11Z</time></trkpt>
<trkpt lat="29.305004" lon="98.678334">
<time>2016-10-07T14:42:12Z</time></trkpt>
<trkpt lat="29.305024" lon="98.678334">
<time>2016-10-07T14:42:13Z</time></trkpt>
<trkpt lat="29.305044" lon="98.678314">
<time>2016-10-07T14:42:14Z</time></trkpt>
<trkpt lat="29.305074" lon="98.678294">
<time>2016-10-07T14:42:15Z</time></trkpt>
<trkpt lat="29.305114" lon="98.678264">
<time>2016-10-07T14:42:16Z</time></trkpt>
<trkpt lat="29.305154" lon="98.678235">
<time>2016-10-07T14:42:17Z</time></trkpt>
<trkpt lat="29.305205" lon="98.678195">
<time>2016-10-07T14:42:18Z</time></trkpt>
<trkpt lat="29.305245" lon="98.678165">
<time>2016-10-07T14:42:19Z</time></trkpt>
<trkpt lat="29.305275" lon="98.678125">
<time>2016-10-07T14:42:20Z</time></trkpt>
<trkpt lat="29.305295" lon="98.678105">
<time>2016-10-07T14:42:21Z</time></trkpt>
<trkpt lat="29.305325" lon="98.678055">
<time>2016-10-07T14:42:22Z</time></trkpt>
<trkpt lat="29.305365" lon="98.677995">
<time>2016-10-07T14:42:23Z</time></trkpt>
<trkpt lat="29.305405" lon="98.677935">
<time>2016-10-07T14:42:24Z</time></trkpt>
<trkpt lat="29.305445" lon="98.677866">
<time>2016-10-07T14:42:25Z</time></trkpt>
<trkpt lat="29.305485" lon="98.677806">
<time>2016-10-07T14:42:26Z</time></trkpt>
<trkpt lat="29.305535" lon="98.677756">
<time>2016-10-07T14:42:27Z</time></trkpt>
<trkpt lat="29.305575" lon="98.677706">
<time>2016-10-07T14:42:28Z</time></trkpt>
<trkpt lat="29.305655" lon="98.677626">
<time>2016-10-07T14:42:29Z</time></trkpt>
<trkpt lat="29.305655" lon="98.677616">
<time>2016-10-07T14:42:30Z</time></trkpt>
<trkpt lat="29.305665" lon="98.677616">
<time>2016-10-07T14:42:31Z</time></trkpt>
<trkpt lat="29.305845" lon="98.677507">
<time>2016-10-07T14:42:32Z</time></trkpt>
<trkpt lat="29.305955" lon="98.677447">
<time>2016-10-07T14:42:33Z</time></trkpt>
<trkpt lat="29.306025" lon="98.677407">
<time>2016-10-07T14:42:34Z</time></trkpt>
<trkpt lat="29.306176" lon="98.677297">
<time>2016-10-07T14:42:35Z</time></trkpt>
<trkpt lat="29.306336" lon="98.677177">
<time>2016-10-07T14:42:36Z</time></trkpt>
<trkpt lat="29.306436" lon="98.677098">
<time>2016-10-07T14:42:37Z</time></trkpt>
<trkpt lat="29.306556" lon="98.676978">
<time>2016-10-07T14:42:38Z</time></trkpt>
<trkpt lat="29.306676" lon="98.676888">
<time>2016-10-07T14:42:39Z</time></trkpt>
<trkpt lat="29.306816" lon="98.676769">
<time>2016-10-07T14:42:40Z</time></trkpt>
<trkpt lat="29.306976" lon="98.676619">
<time>2016-10-07T14:42:41Z</time></trkpt>
<trkpt lat="29.307107" lon="98.676509">
<time>2016-10-07T14:42:42Z</time></trkpt>
<trkpt lat="29.307167" lon="98.676459">
<time>2016-10-07T14:42:43Z</time></trkpt>
<trkpt lat="29.307257" lon="98.6764">
<time>2016-10-07T14:42:44Z</time></trkpt>
<trkpt lat="29.307417" lon="98.67627">
<time>2016-10-07T14:42:45Z</time></trkpt>
<trkpt lat="29.307507" lon="98.67621">
<time>2016-10-07T14:42:46Z</time></trkpt>
<trkpt lat="29.307577" lon="98.67616">
<time>2016-10-07T14:42:47Z</time></trkpt>
<trkpt lat="29.307697" lon="98.67609">
<time>2016-10-07T14:42:48Z</time></trkpt>
<trkpt lat="29.307797" lon="98.676041">
<time>2016-10-07T14:42:49Z</time></trkpt>
<trkpt lat="29.307887" lon="98.676001">
<time>2016-10-07T14:42:50Z</time></trkpt>
<trkpt lat="29.307967" lon="98.675961">
<time>2016-10-07T14:42:51Z</time></trkpt>
<trkpt lat="29.308087" lon="98.675911">
<time>2016-10-07T14:42:52Z</time></trkpt>
<trkpt lat="29.308157" lon="98.675891">
<time>2016-10-07T14:42:53Z</time></trkpt>
<trkpt lat="29.308227" lon="98.675861">
<time>2016-10-07T14:42:54Z</time></trkpt>
<trkpt lat="29.308337" lon="98.675821">
<time>2016-10-07T14:42:55Z</time></trkpt>
<trkpt lat="29.308457" lon="98.675791">
<time>2016-10-07T14:42:56Z</time></trkpt>
<trkpt lat="29.308527" lon="98.675771">
<time>2016-10-07T14:42:57Z</time></trkpt>
<trkpt lat="29.308577" lon="98.675771">
<time>2016-10-07T14:42:58Z</time></trkpt>
<trkpt lat="29.308677" lon="98.675761">
<time>2016-10-07T14:42:59Z</time></trkpt>
<trkpt lat="29.308777" lon="98.675741">
<time>2016-10-07T14:43:00Z</time></trkpt>
<trkpt lat="29.309047" lon="98.675712">
<time>2016-10-07T14:43:01Z</time></trkpt>
<trkpt lat="29.309307" lon="98.675682">
<time>2016-10-07T14:43:02Z</time></trkpt>
<trkpt lat="29.309507" lon="98.675662">
<time>2016-10-07T14:43:03Z</time></trkpt>
<trkpt lat="29.309637" lon="98.675642">
<time>2016-10-07T14:43:04Z</time></trkpt>
<trkpt lat="29.309776" lon="98.675622">
<time>2016-10-07T14:43:05Z</time></trkpt>
<trkpt lat="29.309906" lon="98.675612">
<time>2016-10-07T14:43:06Z</time></trkpt>
<trkpt lat="29.309956" lon="98.675612">
<time>2016-10-07T14:43:07Z</time></trkpt>
<trkpt lat="29.310006" lon="98.675612">
<time>2016-10-07T14:43:08Z</time></trkpt>
<trkpt lat="29.310066" lon="98.675612">
<time>2016-10-07T14:43:09Z</time></trkpt>
<trkpt lat="29.310116" lon="98.675612">
<time>2016-10-07T14:43:10Z</time></trkpt>
<trkpt lat="29.310166" lon="98.675622">
<time>2016-10-07T14:43:11Z</time></trkpt>
<trkpt lat="29.310206" lon="98.675632">
<time>2016-10-07T14:43:12Z</time></trkpt>
<trkpt lat="29.310266" lon="98.675642">
<time>2016-10-07T14:43:13Z</time></trkpt>
<trkpt lat="29.310316" lon="98.675652">
<time>2016-10-07T14:43:14Z</time></trkpt>
<trkpt lat="29.310386" lon="98.675672">
<time>2016-10-07T14:43:15Z</time></trkpt>
<trkpt lat="29.310456" lon="98.675692">
<time>2016-10-07T14:43:16Z</time></trkpt>
<trkpt lat="29.310516" lon="98.675711">
<time>2016-10-07T14:43:17Z</time></trkpt>
<trkpt lat="29.310606" lon="98.675741">
<time>2016-10-07T14:43:18Z</time></trkpt>
<trkpt lat="29.310726" lon="98.675781">
<time>2016-10-07T14:43:19Z</time></trkpt>
<trkpt lat="29.310815" lon="98.675811">
<time>2016-10-07T14:43:20Z</time></trkpt>
<trkpt lat="29.310895" lon="98.675831">
<time>2016-10-07T14:43:21Z</time></trkpt>
<trkpt lat="29.310995" lon="98.675871">
<time>2016-10-07T14:43:22Z</time></trkpt>
<trkpt lat="29.311105" lon="98.675901">
<time>2016-10-07T14:43:23Z</time></trkpt>
<trkpt lat="29.311205" lon="98.675931">
<time>2016-10-07T14:43:24Z</time></trkpt>
<trkpt lat="29.311255" lon="98.675951">
<time>2016-10-07T14:43:25Z</time></trkpt>
<trkpt lat="29.311305" lon="98.675971">
<time>2016-10-07T14:43:26Z</time></trkpt>
<trkpt lat="29.311385" lon="98.676001">
<time>2016-10-07T14:43:27Z</time></trkpt>
<trkpt lat="29.311475" lon="98.676031">
<time>2016-10-07T14:43:28Z</time></trkpt>
<trkpt lat="29.311535" lon="98.676051">
<time>2016-10-07T14:43:29Z</time></trkpt>
<trkpt lat="29.311604" lon="98.67607">
<time>2016-10-07T14:43:30Z</time></trkpt>
<trkpt lat="29.311654" lon="98.67609">
<time>2016-10-07T14:43:31Z</time></trkpt>
<trkpt lat="29.311714" lon="98.6761">
<time>2016-10-07T14:43:32Z</time></trkpt>
<trkpt lat="29.311774" lon="98.67611">
<time>2016-10-07T14:43:33Z</time></trkpt>
<trkpt lat="29.311854" lon="98.67612">
<time>2016-10-07T14:43:34Z</time></trkpt>
<trkpt lat="29.311904" lon="98.67613">
<time>2016-10-07T14:43:35Z</time></trkpt>
<trkpt lat="29.311964" lon="98.67613">
<time>2016-10-07T14:43:36Z</time></trkpt>
<trkpt lat="29.312004" lon="98.67612">
<time>2016-10-07T14:43:37Z</time></trkpt>
<trkpt lat="29.312054" lon="98.67612">
<time>2016-10-07T14:43:38Z</time></trkpt>
<trkpt lat="29.312114" lon="98.6761">
<time>2016-10-07T14:43:39Z</time></trkpt>
<trkpt lat="29.312174" lon="98.67608">
<time>2016-10-07T14:43:40Z</time></trkpt>
<trkpt lat="29.312224" lon="98.67606">
<time>2016-10-07T14:43:41Z</time></trkpt>
<trkpt lat="29.312274" lon="98.676041">
<time>2016-10-07T14:43:42Z</time></trkpt>
<trkpt lat="29.312374" lon="98.675991">
<time>2016-10-07T14:43:43Z</time></trkpt>
<trkpt lat="29.312464" lon="98.675941">
<time>2016-10-07T14:43:44Z</time></trkpt>
<trkpt lat="29.312554" lon="98.675891">
<time>2016-10-07T14:43:45Z</time></trkpt>
<trkpt lat="29.312664" lon="98.675841">
<time>2016-10-07T14:43:46Z</time></trkpt>
<trkpt lat="29.312764" lon="98.675781">
<time>2016-10-07T14:43:47Z</time></trkpt>
<trkpt lat="29.312864" lon="98.675721">
<time>2016-10-07T14:43:48Z</time></trkpt>
<trkpt lat="29.312964" lon="98.675672">
<time>2016-10-07T14:43:49Z</time></trkpt>
<trkpt lat="29.313064" lon="98.675612">
<time>2016-10-07T14:43:50Z</time></trkpt>
<trkpt lat="29.313144" lon="98.675572">
<time>2016-10-07T14:43:51Z</time></trkpt>
<trkpt lat="29.313244" lon="98.675522">
<time>2016-10-07T14:43:52Z</time></trkpt>
<trkpt lat="29.313344" lon="98.675462">
<time>2016-10-07T14:43:53Z</time></trkpt>
<trkpt lat="29.313445" lon="98.675412">
<time>2016-10-07T14:43:54Z</time></trkpt>
<trkpt lat="29.313575" lon="98.675342">
<time>2016-10-07T14:43:55Z</time></trkpt>
<trkpt lat="29.313645" lon="98.675313">
<time>2016-10-07T14:43:56Z</time></trkpt>
<trkpt lat="29.313735" lon="98.675273">
<time>2016-10-07T14:43:57Z</time></trkpt>
<trkpt lat="29.313875" lon="98.675223">
<time>2016-10-07T14:43:58Z</time></trkpt>
<trkpt lat="29.313935" lon="98.675213">
<time>2016-10-07T14:43:59Z</time></trkpt>
<trkpt lat="29.314025" lon="98.675183">
<time>2016-10-07T14:44:00Z</time></trkpt>
<trkpt lat="29.314115" lon="98.675163">
<time>2016-10-07T14:44:01Z</time></trkpt>
<trkpt lat="29.314205" lon="98.675153">
<time>2016-10-07T14:44:02Z</time></trkpt>
<trkpt lat="29.314304" lon="98.675143">
<time>2016-10-07T14:44:03Z</time></trkpt>
<trkpt lat="29.314414" lon="98.675133">
<time>2016-10-07T14:44:04Z</time></trkpt>
<trkpt lat="29.314504" lon="98.675133">
<time>2016-10-07T14:44:05Z</time></trkpt>
<trkpt lat="29.314604" lon="98.675133">
<time>2016-10-07T14:44:06Z</time></trkpt>
<trkpt lat="29.314694" lon="98.675133">
<time>2016-10-07T14:44:07Z</time></trkpt>
<trkpt lat="29.314754" lon="98.675133">
<time>2016-10-07T14:44:08Z</time></trkpt>
<trkpt lat="29.314824" lon="98.675143">
<time>2016-10-07T14:44:09Z</time></trkpt>
<trkpt lat="29.314934" lon="98.675143">
<time>2016-10-07T14:44:10Z</time></trkpt>
<trkpt lat="29.315074" lon="98.675143">
<time>2016-10-07T14:44:11Z</time></trkpt>
<trkpt lat="29.315224" lon="98.675143">
<time>2016-10-07T14:44:12Z</time></trkpt>
<trkpt lat="29.315314" lon="98.675153">
<time>2016-10-07T14:44:13Z</time></trkpt>
<trkpt lat="29.315384" lon="98.675153">
<time>2016-10-07T14:44:14Z</time></trkpt>
<trkpt lat="29.315434" lon="98.675163">
<time>2016-10-07T14:44:15Z</time></trkpt>
<trkpt lat="29.315564" lon="98.675163">
<time>2016-10-07T14:44:16Z</time></trkpt>
<trkpt lat="29.315734" lon="98.675173">
<time>2016-10-07T14:44:17Z</time></trkpt>
<trkpt lat="29.315803" lon="98.675183">
<time>2016-10-07T14:44:18Z</time></trkpt>
<trkpt lat="29.315953" lon="98.675213">
<time>2016-10-07T14:44:19Z</time></trkpt>
<trkpt lat="29.316043" lon="98.675233">
<time>2016-10-07T14:44:20Z</time></trkpt>
<trkpt lat="29.316133" lon="98.675263">
<time>2016-10-07T14:44:21Z</time></trkpt>
<trkpt lat="29.316203" lon="98.675283">
<time>2016-10-07T14:44:22Z</time></trkpt>
<trkpt lat="29.316353" lon="98.675332">
<time>2016-10-07T14:44:23Z</time></trkpt>
<trkpt lat="29.316453" lon="98.675362">
<time>2016-10-07T14:44:24Z</time></trkpt>
<trkpt lat="29.316603" lon="98.675412">
<time>2016-10-07T14:44:25Z</time></trkpt>
<trkpt lat="29.316692" lon="98.675452">
<time>2016-10-07T14:44:26Z</time></trkpt>
<trkpt lat="29.317022" lon="98.675562">
<time>2016-10-07T14:44:27Z</time></trkpt>
<trkpt lat="29.317122" lon="98.675592">
<time>2016-10-07T14:44:28Z</time></trkpt>
<trkpt lat="29.317222" lon="98.675622">
<time>2016-10-07T14:44:29Z</time></trkpt>
<trkpt lat="29.317312" lon="98.675652">
<time>2016-10-07T14:44:30Z</time></trkpt>
<trkpt lat="29.317402" lon="98.675671">
<time>2016-10-07T14:44:31Z</time></trkpt>
<trkpt lat="29.317491" lon="98.675691">
<time>2016-10-07T14:44:32Z</time></trkpt>
<trkpt lat="29.317571" lon="98.675711">
<time>2016-10-07T14:44:33Z</time></trkpt>
<trkpt lat="29.317681" lon="98.675721">
<time>2016-10-07T14:44:34Z</time></trkpt>
<trkpt lat="29.317811" lon="98.675731">
<time>2016-10-07T14:44:35Z</time></trkpt>
<trkpt lat="29.317911" lon="98.675741">
<time>2016-10-07T14:44:36Z</time></trkpt>
<trkpt lat="29.318001" lon="98.675741">
<time>2016-10-07T14:44:37Z</time></trkpt>
<trkpt lat="29.318101" lon="98.675741">
<time>2016-10-07T14:44:38Z</time></trkpt>
<trkpt lat="29.318201" lon="98.675741">
<time>2016-10-07T14:44:39Z</time></trkpt>
<trkpt lat="29.318341" lon="98.675721">
<time>2016-10-07T14:44:40Z</time></trkpt>
<trkpt lat="29.318431" lon="98.675711">
<time>2016-10-07T14:44:41Z</time></trkpt>
<trkpt lat="29.318521" lon="98.675691">
<time>2016-10-07T14:44:42Z</time></trkpt>
<trkpt lat="29.318621" lon="98.675661">
<time>2016-10-07T14:44:43Z</time></trkpt>
<trkpt lat="29.318721" lon="98.675642">
<time>2016-10-07T14:44:44Z</time></trkpt>
<trkpt lat="29.318791" lon="98.675622">
<time>2016-10-07T14:44:45Z</time></trkpt>
<trkpt lat="29.318881" lon="98.675592">
<time>2016-10-07T14:44:46Z</time></trkpt>
<trkpt lat="29.318981" lon="98.675562">
<time>2016-10-07T14:44:47Z</time></trkpt>
<trkpt lat="29.319111" lon="98.675512">
<time>2016-10-07T14:44:48Z</time></trkpt>
<trkpt lat="29.319201" lon="98.675482">
<time>2016-10-07T14:44:49Z</time></trkpt>
<trkpt lat="29.319251" lon="98.675472">
<time>2016-10-07T14:44:50Z</time></trkpt>
<trkpt lat="29.319331" lon="98.675442">
<time>2016-10-07T14:44:51Z</time></trkpt>
<trkpt lat="29.319421" lon="98.675422">
<time>2016-10-07T14:44:52Z</time></trkpt>
<trkpt lat="29.319491" lon="98.675412">
<time>2016-10-07T14:44:53Z</time></trkpt>
<trkpt lat="29.319551" lon="98.675402">
<time>2016-10-07T14:44:54Z</time></trkpt>
<trkpt lat="29.319661" lon="98.675392">
<time>2016-10-07T14:44:55Z</time></trkpt>
<trkpt lat="29.319711" lon="98.675382">
<time>2016-10-07T14:44:56Z</time></trkpt>
<trkpt lat="29.319801" lon="98.675372">
<time>2016-10-07T14:44:57Z</time></trkpt>
<trkpt lat="29.319851" lon="98.675372">
<time>2016-10-07T14:44:58Z</time></trkpt>
<trkpt lat="29.31995" lon="98.675362">
<time>2016-10-07T14:44:59Z</time></trkpt>
<trkpt lat="29.32004" lon="98.675352">
<time>2016-10-07T14:45:00Z</time></trkpt>
<trkpt lat="29.32014" lon="98.675342">
<time>2016-10-07T14:45:01Z</time></trkpt>
<trkpt lat="29.32023" lon="98.675332">
<time>2016-10-07T14:45:02Z</time></trkpt>
<trkpt lat="29.32042" lon="98.675322">
<time>2016-10-07T14:45:03Z</time></trkpt>
<trkpt lat="29.32057" lon="98.675302">
<time>2016-10-07T14:45:04Z</time></trkpt>
<trkpt lat="29.32072" lon="98.675283">
<time>2016-10-07T14:45:05Z</time></trkpt>
<trkpt lat="29.32082" lon="98.675253">
<time>2016-10-07T14:45:06Z</time></trkpt>
<trkpt lat="29.3209" lon="98.675223">
<time>2016-10-07T14:45:07Z</time></trkpt>
<trkpt lat="29.32097" lon="98.675183">
<time>2016-10-07T14:45:08Z</time></trkpt>
<trkpt lat="29.32108" lon="98.675103">
<time>2016-10-07T14:45:09Z</time></trkpt>
<trkpt lat="29.32125" lon="98.674943">
<time>2016-10-07T14:45:10Z</time></trkpt>
<trkpt lat="29.321441" lon="98.674774">
<time>2016-10-07T14:45:11Z</time></trkpt>
<trkpt lat="29.321551" lon="98.674684">
<time>2016-10-07T14:45:12Z</time></trkpt>
<trkpt lat="29.321611" lon="98.674614">
<time>2016-10-07T14:45:13Z</time></trkpt>
<trkpt lat="29.321731" lon="98.674505">
<time>2016-10-07T14:45:14Z</time></trkpt>
<trkpt lat="29.321931" lon="98.674325">
<time>2016-10-07T14:45:15Z</time></trkpt>
<trkpt lat="29.322051" lon="98.674225">
<time>2016-10-07T14:45:16Z</time></trkpt>
<trkpt lat="29.322161" lon="98.674146">
<time>2016-10-07T14:45:17Z</time></trkpt>
<trkpt lat="29.322231" lon="98.674096">
<time>2016-10-07T14:45:18Z</time></trkpt>
<trkpt lat="29.322311" lon="98.674066">
<time>2016-10-07T14:45:19Z</time></trkpt>
<trkpt lat="29.322391" lon="98.674026">
<time>2016-10-07T14:45:20Z</time></trkpt>
<trkpt lat="29.322481" lon="98.673996">
<time>2016-10-07T14:45:21Z</time></trkpt>
<trkpt lat="29.322601" lon="98.673966">
<time>2016-10-07T14:45:22Z</time></trkpt>
<trkpt lat="29.322701" lon="98.673946">
<time>2016-10-07T14:45:23Z</time></trkpt>
<trkpt lat="29.322861" lon="98.673926">
<time>2016-10-07T14:45:24Z</time></trkpt>
<trkpt lat="29.322991" lon="98.673916">
<time>2016-10-07T14:45:25Z</time></trkpt>
<trkpt lat="29.323211" lon="98.673896">
<time>2016-10-07T14:45:26Z</time></trkpt>
<trkpt lat="29.323461" lon="98.673866">
<time>2016-10-07T14:45:27Z</time></trkpt>
<trkpt lat="29.323711" lon="98.673846">
<time>2016-10-07T14:45:28Z</time></trkpt>
<trkpt lat="29.324041" lon="98.673807">
<time>2016-10-07T14:45:29Z</time></trkpt>
<trkpt lat="29.324311" lon="98.673777">
<time>2016-10-07T14:45:30Z</time></trkpt>
<trkpt lat="29.324471" lon="98.673757">
<time>2016-10-07T14:45:31Z</time></trkpt>
<trkpt lat="29.324541" lon="98.673747">
<time>2016-10-07T14:45:32Z</time></trkpt>
<trkpt lat="29.324601" lon="98.673737">
<time>2016-10-07T14:45:33Z</time></trkpt>
<trkpt lat="29.324701" lon="98.673697">
<time>2016-10-07T14:45:34Z</time></trkpt>
<trkpt lat="29.324811" lon="98.673647">
<time>2016-10-07T14:45:35Z</time></trkpt>
<trkpt lat="29.325011" lon="98.673537">
<time>2016-10-07T14:45:36Z</time></trkpt>
<trkpt lat="29.325281" lon="98.673368">
<time>2016-10-07T14:45:37Z</time></trkpt>
<trkpt lat="29.325411" lon="98.673278">
<time>2016-10-07T14:45:38Z</time></trkpt>
<trkpt lat="29.325641" lon="98.673138">
<time>2016-10-07T14:45:39Z</time></trkpt>
<trkpt lat="29.325811" lon="98.673039">
<time>2016-10-07T14:45:40Z</time></trkpt>
<trkpt lat="29.325961" lon="98.672959">
<time>2016-10-07T14:45:41Z</time></trkpt>
<trkpt lat="29.326091" lon="98.672899">
<time>2016-10-07T14:45:42Z</time></trkpt>
<trkpt lat="29.326411" lon="98.672759">
<time>2016-10-07T14:45:43Z</time></trkpt>
<trkpt lat="29.326881" lon="98.67256">
<time>2016-10-07T14:45:44Z</time></trkpt>
<trkpt lat="29.327482" lon="98.672301">
<time>2016-10-07T14:45:45Z</time></trkpt>
<trkpt lat="29.327682" lon="98.672211">
<time>2016-10-07T14:45:46Z</time></trkpt>
<trkpt lat="29.327842" lon="98.672151">
<time>2016-10-07T14:45:47Z</time></trkpt>
<trkpt lat="29.327982" lon="98.672101">
<time>2016-10-07T14:45:48Z</time></trkpt>
<trkpt lat="29.328072" lon="98.672091">
<time>2016-10-07T14:45:49Z</time></trkpt>
<trkpt lat="29.328282" lon="98.672091">
<time>2016-10-07T14:45:50Z</time></trkpt>
<trkpt lat="29.328461" lon="98.672121">
<time>2016-10-07T14:45:51Z</time></trkpt>
<trkpt lat="29.328661" lon="98.672161">
<time>2016-10-07T14:45:52Z</time></trkpt>
<trkpt lat="29.328811" lon="98.672191">
<time>2016-10-07T14:45:53Z</time></trkpt>
<trkpt lat="29.329191" lon="98.672221">
<time>2016-10-07T14:45:54Z</time></trkpt>
<trkpt lat="29.329351" lon="98.672211">
<time>2016-10-07T14:45:55Z</time></trkpt>
<trkpt lat="29.329421" lon="98.672201">
<time>2016-10-07T14:45:56Z</time></trkpt>
<trkpt lat="29.329611" lon="98.672161">
<time>2016-10-07T14:45:57Z</time></trkpt>
<trkpt lat="29.32984" lon="98.672111">
<time>2016-10-07T14:45:58Z</time></trkpt>
<trkpt lat="29.33011" lon="98.672051">
<time>2016-10-07T14:45:59Z</time></trkpt>
<trkpt lat="29.33034" lon="98.672012">
<time>2016-10-07T14:46:00Z</time></trkpt>
<trkpt lat="29.33048" lon="98.672002">
<time>2016-10-07T14:46:01Z</time></trkpt>
<trkpt lat="29.33062" lon="98.672021">
<time>2016-10-07T14:46:02Z</time></trkpt>
<trkpt lat="29.33073" lon="98.672041">
<time>2016-10-07T14:46:03Z</time></trkpt>
<trkpt lat="29.33092" lon="98.672091">
<time>2016-10-07T14:46:04Z</time></trkpt>
<trkpt lat="29.33107" lon="98.672151">
<time>2016-10-07T14:46:05Z</time></trkpt>
<trkpt lat="29.331239" lon="98.672221">
<time>2016-10-07T14:46:06Z</time></trkpt>
<trkpt lat="29.331379" lon="98.672301">
<time>2016-10-07T14:46:07Z</time></trkpt>
<trkpt lat="29.331449" lon="98.672351">
<time>2016-10-07T14:46:08Z</time></trkpt>
<trkpt lat="29.331509" lon="98.67242">
<time>2016-10-07T14:46:09Z</time></trkpt>
<trkpt lat="29.331649" lon="98.67255">
<time>2016-10-07T14:46:10Z</time></trkpt>
<trkpt lat="29.331758" lon="98.67266">
<time>2016-10-07T14:46:11Z</time></trkpt>
<trkpt lat="29.331858" lon="98.672789">
<time>2016-10-07T14:46:12Z</time></trkpt>
<trkpt lat="29.331968" lon="98.672979">
<time>2016-10-07T14:46:13Z</time></trkpt>
<trkpt lat="29.332087" lon="98.673178">
<time>2016-10-07T14:46:14Z</time></trkpt>
<trkpt lat="29.332177" lon="98.673368">
<time>2016-10-07T14:46:15Z</time></trkpt>
<trkpt lat="29.332276" lon="98.673547">
<time>2016-10-07T14:46:16Z</time></trkpt>
<trkpt lat="29.332376" lon="98.673727">
<time>2016-10-07T14:46:17Z</time></trkpt>
<trkpt lat="29.332456" lon="98.673846">
<time>2016-10-07T14:46:18Z</time></trkpt>
<trkpt lat="29.332625" lon="98.674046">
<time>2016-10-07T14:46:19Z</time></trkpt>
<trkpt lat="29.332755" lon="98.674165">
<time>2016-10-07T14:46:20Z</time></trkpt>
<trkpt lat="29.332855" lon="98.674255">
<time>2016-10-07T14:46:21Z</time></trkpt>
<trkpt lat="29.332954" lon="98.674335">
<time>2016-10-07T14:46:22Z</time></trkpt>
<trkpt lat="29.333104" lon="98.674425">
<time>2016-10-07T14:46:23Z</time></trkpt>
<trkpt lat="29.333374" lon="98.674594">
<time>2016-10-07T14:46:24Z</time></trkpt>
<trkpt lat="29.333553" lon="98.674684">
<time>2016-10-07T14:46:25Z</time></trkpt>
<trkpt lat="29.333583" lon="98.674704">
<time>2016-10-07T14:46:26Z</time></trkpt>
<trkpt lat="29.333783" lon="98.674804">
<time>2016-10-07T14:46:27Z</time></trkpt>
<trkpt lat="29.333833" lon="98.674834">
<time>2016-10-07T14:46:28Z</time></trkpt>
<trkpt lat="29.334042" lon="98.674953">
<time>2016-10-07T14:46:29Z</time></trkpt>
<trkpt lat="29.334142" lon="98.674993">
<time>2016-10-07T14:46:30Z</time></trkpt>
<trkpt lat="29.334222" lon="98.675023">
<time>2016-10-07T14:46:31Z</time></trkpt>
<trkpt lat="29.334282" lon="98.675053">
<time>2016-10-07T14:46:32Z</time></trkpt>
<trkpt lat="29.334352" lon="98.675073">
<time>2016-10-07T14:46:33Z</time></trkpt>
<trkpt lat="29.334422" lon="98.675083">
<time>2016-10-07T14:46:34Z</time></trkpt>
<trkpt lat="29.334542" lon="98.675103">
<time>2016-10-07T14:46:35Z</time></trkpt>
<trkpt lat="29.334612" lon="98.675103">
<time>2016-10-07T14:46:36Z</time></trkpt>
<trkpt lat="29.334852" lon="98.675083">
<time>2016-10-07T14:46:37Z</time></trkpt>
<trkpt lat="29.335042" lon="98.675063">
<time>2016-10-07T14:46:38Z</time></trkpt>
<trkpt lat="29.335371" lon="98.675033">
<time>2016-10-07T14:46:39Z</time></trkpt>
<trkpt lat="29.335551" lon="98.675023">
<time>2016-10-07T14:46:40Z</time></trkpt>
<trkpt lat="29.335701" lon="98.675003">
<time>2016-10-07T14:46:41Z</time></trkpt>
<trkpt lat="29.335791" lon="98.674993">
<time>2016-10-07T14:46:42Z</time></trkpt>
<trkpt lat="29.335871" lon="98.674963">
<time>2016-10-07T14:46:43Z</time></trkpt>
<trkpt lat="29.335901" lon="98.674943">
<time>2016-10-07T14:46:44Z</time></trkpt>
<trkpt lat="29.335961" lon="98.674913">
<time>2016-10-07T14:46:45Z</time></trkpt>
<trkpt lat="29.336001" lon="98.674883">
<time>2016-10-07T14:46:46Z</time></trkpt>
<trkpt lat="29.336061" lon="98.674843">
<time>2016-10-07T14:46:47Z</time></trkpt>
<trkpt lat="29.336162" lon="98.674744">
<time>2016-10-07T14:46:48Z</time></trkpt>
<trkpt lat="29.336272" lon="98.674614">
<time>2016-10-07T14:46:49Z</time></trkpt>
<trkpt lat="29.336722" lon="98.674096">
<time>2016-10-07T14:46:50Z</time></trkpt>
<trkpt lat="29.336923" lon="98.673876">
<time>2016-10-07T14:46:51Z</time></trkpt>
<trkpt lat="29.336993" lon="98.673786">
<time>2016-10-07T14:46:52Z</time></trkpt>
<trkpt lat="29.337153" lon="98.673627">
<time>2016-10-07T14:46:53Z</time></trkpt>
<trkpt lat="29.337313" lon="98.673487">
<time>2016-10-07T14:46:54Z</time></trkpt>
<trkpt lat="29.337473" lon="98.673368">
<time>2016-10-07T14:46:55Z</time></trkpt>
<trkpt lat="29.337703" lon="98.673258">
<time>2016-10-07T14:46:56Z</time></trkpt>
<trkpt lat="29.337803" lon="98.673218">
<time>2016-10-07T14:46:57Z</time></trkpt>
<trkpt lat="29.337983" lon="98.673188">
<time>2016-10-07T14:46:58Z</time></trkpt>
<trkpt lat="29.338163" lon="98.673178">
<time>2016-10-07T14:46:59Z</time></trkpt>
<trkpt lat="29.338333" lon="98.673188">
<time>2016-10-07T14:47:00Z</time></trkpt>
<trkpt lat="29.338483" lon="98.673208">
<time>2016-10-07T14:47:01Z</time></trkpt>
<trkpt lat="29.338603" lon="98.673248">
<time>2016-10-07T14:47:02Z</time></trkpt>
<trkpt lat="29.338783" lon="98.673298">
<time>2016-10-07T14:47:03Z</time></trkpt>
<trkpt lat="29.339082" lon="98.673378">
<time>2016-10-07T14:47:04Z</time></trkpt>
<trkpt lat="29.339302" lon="98.673437">
<time>2016-10-07T14:47:05Z</time></trkpt>
<trkpt lat="29.339392" lon="98.673457">
<time>2016-10-07T14:47:06Z</time></trkpt>
<trkpt lat="29.339572" lon="98.673507">
<time>2016-10-07T14:47:07Z</time></trkpt>
<trkpt lat="29.339602" lon="98.673517">
<time>2016-10-07T14:47:08Z</time></trkpt>
<trkpt lat="29.339712" lon="98.673537">
<time>2016-10-07T14:47:09Z</time></trkpt>
<trkpt lat="29.339822" lon="98.673577">
<time>2016-10-07T14:47:10Z</time></trkpt>
<trkpt lat="29.339911" lon="98.673597">
<time>2016-10-07T14:47:11Z</time></trkpt>
<trkpt lat="29.339971" lon="98.673617">
<time>2016-10-07T14:47:12Z</time></trkpt>
<trkpt lat="29.340021" lon="98.673627">
<time>2016-10-07T14:47:13Z</time></trkpt>
<trkpt lat="29.340071" lon="98.673637">
<time>2016-10-07T14:47:14Z</time></trkpt>
<trkpt lat="29.340111" lon="98.673647">
<time>2016-10-07T14:47:15Z</time></trkpt>
<trkpt lat="29.340151" lon="98.673657">
<time>2016-10-07T14:47:16Z</time></trkpt>
<trkpt lat="29.340211" lon="98.673657">
<time>2016-10-07T14:47:17Z</time></trkpt>
<trkpt lat="29.340261" lon="98.673657">
<time>2016-10-07T14:47:18Z</time></trkpt>
<trkpt lat="29.340311" lon="98.673647">
<time>2016-10-07T14:47:19Z</time></trkpt>
<trkpt lat="29.340381" lon="98.673627">
<time>2016-10-07T14:47:20Z</time></trkpt>
<trkpt lat="29.340451" lon="98.673597">
<time>2016-10-07T14:47:21Z</time></trkpt>
<trkpt lat="29.340511" lon="98.673567">
<time>2016-10-07T14:47:22Z</time></trkpt>
<trkpt lat="29.340581" lon="98.673527">
<time>2016-10-07T14:47:23Z</time></trkpt>
<trkpt lat="29.340621" lon="98.673497">
<time>2016-10-07T14:47:24Z</time></trkpt>
<trkpt lat="29.340851" lon="98.673318">
<time>2016-10-07T14:47:25Z</time></trkpt>
<trkpt lat="29.340961" lon="98.673248">
<time>2016-10-07T14:47:26Z</time></trkpt>
<trkpt lat="29.340991" lon="98.673228">
<time>2016-10-07T14:47:27Z</time></trkpt>
<trkpt lat="29.341112" lon="98.673168">
<time>2016-10-07T14:47:28Z</time></trkpt>
<trkpt lat="29.341292" lon="98.673108">
<time>2016-10-07T14:47:29Z</time></trkpt>
<trkpt lat="29.341391" lon="98.673098">
<time>2016-10-07T14:47:30Z</time></trkpt>
<trkpt lat="29.341511" lon="98.673088">
<time>2016-10-07T14:47:31Z</time></trkpt>
<trkpt lat="29.341651" lon="98.673098">
<time>2016-10-07T14:47:32Z</time></trkpt>
<trkpt lat="29.341811" lon="98.673138">
<time>2016-10-07T14:47:33Z</time></trkpt>
<trkpt lat="29.341861" lon="98.673148">
<time>2016-10-07T14:47:34Z</time></trkpt>
<trkpt lat="29.341921" lon="98.673178">
<time>2016-10-07T14:47:35Z</time></trkpt>
<trkpt lat="29.341971" lon="98.673208">
<time>2016-10-07T14:47:36Z</time></trkpt>
<trkpt lat="29.342051" lon="98.673248">
<time>2016-10-07T14:47:37Z</time></trkpt>
<trkpt lat="29.342091" lon="98.673278">
<time>2016-10-07T14:47:38Z</time></trkpt>
<trkpt lat="29.342141" lon="98.673318">
<time>2016-10-07T14:47:39Z</time></trkpt>
<trkpt lat="29.342181" lon="98.673348">
<time>2016-10-07T14:47:40Z</time></trkpt>
<trkpt lat="29.34222" lon="98.673387">
<time>2016-10-07T14:47:41Z</time></trkpt>
<trkpt lat="29.34226" lon="98.673417">
<time>2016-10-07T14:47:42Z</time></trkpt>
<trkpt lat="29.34231" lon="98.673467">
<time>2016-10-07T14:47:43Z</time></trkpt>
<trkpt lat="29.34236" lon="98.673527">
<time>2016-10-07T14:47:44Z</time></trkpt>
<trkpt lat="29.34242" lon="98.673597">
<time>2016-10-07T14:47:45Z</time></trkpt>
<trkpt lat="29.34251" lon="98.673687">
<time>2016-10-07T14:47:46Z</time></trkpt>
<trkpt lat="29.34254" lon="98.673707">
<time>2016-10-07T14:47:47Z</time></trkpt>
<trkpt lat="29.342599" lon="98.673756">
<time>2016-10-07T14:47:48Z</time></trkpt>
<trkpt lat="29.342649" lon="98.673786">
<time>2016-10-07T14:47:49Z</time></trkpt>
<trkpt lat="29.342709" lon="98.673816">
<time>2016-10-07T14:47:50Z</time></trkpt>
<trkpt lat="29.342789" lon="98.673846">
<time>2016-10-07T14:47:51Z</time></trkpt>
<trkpt lat="29.342859" lon="98.673856">
<time>2016-10-07T14:47:52Z</time></trkpt>
<trkpt lat="29.342919" lon="98.673856">
<time>2016-10-07T14:47:53Z</time></trkpt>
<trkpt lat="29.342989" lon="98.673846">
<time>2016-10-07T14:47:54Z</time></trkpt>
<trkpt lat="29.343089" lon="98.673826">
<time>2016-10-07T14:47:55Z</time></trkpt>
<trkpt lat="29.343289" lon="98.673776">
<time>2016-10-07T14:47:56Z</time></trkpt>
<trkpt lat="29.343419" lon="98.673756">
<time>2016-10-07T14:47:57Z</time></trkpt>
<trkpt lat="29.343529" lon="98.673756">
<time>2016-10-07T14:47:58Z</time></trkpt>
<trkpt lat="29.343589" lon="98.673766">
<time>2016-10-07T14:47:59Z</time></trkpt>
<trkpt lat="29.343659" lon="98.673796">
<time>2016-10-07T14:48:00Z</time></trkpt>
<trkpt lat="29.343739" lon="98.673836">
<time>2016-10-07T14:48:01Z</time></trkpt>
<trkpt lat="29.343888" lon="98.673926">
<time>2016-10-07T14:48:02Z</time></trkpt>
<trkpt lat="29.344018" lon="98.674006">
<time>2016-10-07T14:48:03Z</time></trkpt>
<trkpt lat="29.344208" lon="98.674125">
<time>2016-10-07T14:48:04Z</time></trkpt>
<trkpt lat="29.344358" lon="98.674225">
<time>2016-10-07T14:48:05Z</time></trkpt>
<trkpt lat="29.344707" lon="98.674444">
<time>2016-10-07T14:48:06Z</time></trkpt>
<trkpt lat="29.344867" lon="98.674544">
<time>2016-10-07T14:48:07Z</time></trkpt>
<trkpt lat="29.345136" lon="98.674714">
<time>2016-10-07T14:48:08Z</time></trkpt>
<trkpt lat="29.345386" lon="98.674863">
<time>2016-10-07T14:48:09Z</time></trkpt>
<trkpt lat="29.345505" lon="98.674933">
<time>2016-10-07T14:48:10Z</time></trkpt>
<trkpt lat="29.345575" lon="98.674983">
<time>2016-10-07T14:48:11Z</time></trkpt>
<trkpt lat="29.345775" lon="98.675103">
<time>2016-10-07T14:48:12Z</time></trkpt>
<trkpt lat="29.345905" lon="98.675182">
<time>2016-10-07T14:48:13Z</time></trkpt>
<trkpt lat="29.346054" lon="98.675272">
<time>2016-10-07T14:48:14Z</time></trkpt>
<trkpt lat="29.346254" lon="98.675402">
<time>2016-10-07T14:48:15Z</time></trkpt>
<trkpt lat="29.346464" lon="98.675541">
<time>2016-10-07T14:48:16Z</time></trkpt>
<trkpt lat="29.346504" lon="98.675571">
<time>2016-10-07T14:48:17Z</time></trkpt>
<trkpt lat="29.346554" lon="98.675591">
<time>2016-10-07T14:48:18Z</time></trkpt>
<trkpt lat="29.346623" lon="98.675631">
<time>2016-10-07T14:48:19Z</time></trkpt>
<trkpt lat="29.346723" lon="98.675701">
<time>2016-10-07T14:48:20Z</time></trkpt>
<trkpt lat="29.346773" lon="98.675731">
<time>2016-10-07T14:48:21Z</time></trkpt>
<trkpt lat="29.346863" lon="98.675791">
<time>2016-10-07T14:48:22Z</time></trkpt>
<trkpt lat="29.346963" lon="98.67585">
<time>2016-10-07T14:48:23Z</time></trkpt>
<trkpt lat="29.347003" lon="98.67587">
<time>2016-10-07T14:48:24Z</time></trkpt>
<trkpt lat="29.347033" lon="98.67589">
<time>2016-10-07T14:48:25Z</time></trkpt>
<trkpt lat="29.347073" lon="98.67592">
<time>2016-10-07T14:48:26Z</time></trkpt>
<trkpt lat="29.347123" lon="98.67595">
<time>2016-10-07T14:48:27Z</time></trkpt>
<trkpt lat="29.347192" lon="98.676">
<time>2016-10-07T14:48:28Z</time></trkpt>
<trkpt lat="29.347282" lon="98.67605">
<time>2016-10-07T14:48:29Z</time></trkpt>
<trkpt lat="29.347352" lon="98.67608">
<time>2016-10-07T14:48:30Z</time></trkpt>
<trkpt lat="29.347402" lon="98.6761">
<time>2016-10-07T14:48:31Z</time></trkpt>
<trkpt lat="29.347492" lon="98.67613">
<time>2016-10-07T14:48:32Z</time></trkpt>
<trkpt lat="29.347532" lon="98.67614">
<time>2016-10-07T14:48:33Z</time></trkpt>
<trkpt lat="29.347572" lon="98.67614">
<time>2016-10-07T14:48:34Z</time></trkpt>
<trkpt lat="29.347672" lon="98.67615">
<time>2016-10-07T14:48:35Z</time></trkpt>
<trkpt lat="29.347732" lon="98.67615">
<time>2016-10-07T14:48:36Z</time></trkpt>
<trkpt lat="29.347802" lon="98.67614">
<time>2016-10-07T14:48:37Z</time></trkpt>
<trkpt lat="29.347872" lon="98.67613">
<time>2016-10-07T14:48:38Z</time></trkpt>
<trkpt lat="29.347892" lon="98.67612">
<time>2016-10-07T14:48:39Z</time></trkpt>
<trkpt lat="29.347932" lon="98.67611">
<time>2016-10-07T14:48:40Z</time></trkpt>
<trkpt lat="29.347962" lon="98.6761">
<time>2016-10-07T14:48:41Z</time></trkpt>
<trkpt lat="29.347992" lon="98.67609">
<time>2016-10-07T14:48:42Z</time></trkpt>
<trkpt lat="29.348062" lon="98.67606">
<time>2016-10-07T14:48:43Z</time></trkpt>
<trkpt lat="29.348172" lon="98.676">
<time>2016-10-07T14:48:44Z</time></trkpt>
<trkpt lat="29.348322" lon="98.67593">
<time>2016-10-07T14:48:45Z</time></trkpt>
<trkpt lat="29.348432" lon="98.6759">
<time>2016-10-07T14:48:46Z</time></trkpt>
<trkpt lat="29.348502" lon="98.6759">
<time>2016-10-07T14:48:47Z</time></trkpt>
<trkpt lat="29.348562" lon="98.6759">
<time>2016-10-07T14:48:48Z</time></trkpt>
<trkpt lat="29.348642" lon="98.67592">
<time>2016-10-07T14:48:49Z</time></trkpt>
<trkpt lat="29.348692" lon="98.67594">
<time>2016-10-07T14:48:50Z</time></trkpt>
<trkpt lat="29.348771" lon="98.67597">
<time>2016-10-07T14:48:51Z</time></trkpt>
<trkpt lat="29.348841" lon="98.67603">
<time>2016-10-07T14:48:52Z</time></trkpt>
<trkpt lat="29.348921" lon="98.67609">
<time>2016-10-07T14:48:53Z</time></trkpt>
<trkpt lat="29.349011" lon="98.676179">
<time>2016-10-07T14:48:54Z</time></trkpt>
<trkpt lat="29.349071" lon="98.676229">
<time>2016-10-07T14:48:55Z</time></trkpt>
<trkpt lat="29.349151" lon="98.676309">
<time>2016-10-07T14:48:56Z</time></trkpt>
<trkpt lat="29.349211" lon="98.676339">
<time>2016-10-07T14:48:57Z</time></trkpt>
<trkpt lat="29.34932" lon="98.676429">
<time>2016-10-07T14:48:58Z</time></trkpt>
<trkpt lat="29.34941" lon="98.676479">
<time>2016-10-07T14:48:59Z</time></trkpt>
<trkpt lat="29.34954" lon="98.676558">
<time>2016-10-07T14:49:00Z</time></trkpt>
<trkpt lat="29.34969" lon="98.676628">
<time>2016-10-07T14:49:01Z</time></trkpt>
<trkpt lat="29.349869" lon="98.676698">
<time>2016-10-07T14:49:02Z</time></trkpt>
<trkpt lat="29.350009" lon="98.676778">
<time>2016-10-07T14:49:03Z</time></trkpt>
<trkpt lat="29.350558" lon="98.677027">
<time>2016-10-07T14:49:04Z</time></trkpt>
<trkpt lat="29.350748" lon="98.677107">
<time>2016-10-07T14:49:05Z</time></trkpt>
<trkpt lat="29.350808" lon="98.677137">
<time>2016-10-07T14:49:06Z</time></trkpt>
<trkpt lat="29.351008" lon="98.677227">
<time>2016-10-07T14:49:07Z</time></trkpt>
<trkpt lat="29.351118" lon="98.677256">
<time>2016-10-07T14:49:08Z</time></trkpt>
<trkpt lat="29.351218" lon="98.677286">
<time>2016-10-07T14:49:09Z</time></trkpt>
<trkpt lat="29.351327" lon="98.677316">
<time>2016-10-07T14:49:10Z</time></trkpt>
<trkpt lat="29.351407" lon="98.677316">
<time>2016-10-07T14:49:11Z</time></trkpt>
<trkpt lat="29.351477" lon="98.677316">
<time>2016-10-07T14:49:12Z</time></trkpt>
<trkpt lat="29.351497" lon="98.677326">
<time>2016-10-07T14:49:13Z</time></trkpt>
<trkpt lat="29.351617" lon="98.677316">
<time>2016-10-07T14:49:14Z</time></trkpt>
<trkpt lat="29.351737" lon="98.677306">
<time>2016-10-07T14:49:15Z</time></trkpt>
<trkpt lat="29.351827" lon="98.677276">
<time>2016-10-07T14:49:16Z</time></trkpt>
<trkpt lat="29.351877" lon="98.677266">
<time>2016-10-07T14:49:17Z</time></trkpt>
<trkpt lat="29.351987" lon="98.677226">
<time>2016-10-07T14:49:18Z</time></trkpt>
<trkpt lat="29.352077" lon="98.677177">
<time>2016-10-07T14:49:19Z</time></trkpt>
<trkpt lat="29.352197" lon="98.677107">
<time>2016-10-07T14:49:20Z</time></trkpt>
<trkpt lat="29.352387" lon="98.676977">
<time>2016-10-07T14:49:21Z</time></trkpt>
<trkpt lat="29.352497" lon="98.676887">
<time>2016-10-07T14:49:22Z</time></trkpt>
<trkpt lat="29.352648" lon="98.676758">
<time>2016-10-07T14:49:23Z</time></trkpt>
<trkpt lat="29.352748" lon="98.676668">
<time>2016-10-07T14:49:24Z</time></trkpt>
<trkpt lat="29.352878" lon="98.676558">
<time>2016-10-07T14:49:25Z</time></trkpt>
<trkpt lat="29.352998" lon="98.676459">
<time>2016-10-07T14:49:26Z</time></trkpt>
<trkpt lat="29.353168" lon="98.676309">
<time>2016-10-07T14:49:27Z</time></trkpt>
<trkpt lat="29.353288" lon="98.676179">
<time>2016-10-07T14:49:28Z</time></trkpt>
<trkpt lat="29.353368" lon="98.67611">
<time>2016-10-07T14:49:29Z</time></trkpt>
<trkpt lat="29.353429" lon="98.67605">
<time>2016-10-07T14:49:30Z</time></trkpt>
<trkpt lat="29.353489" lon="98.67597">
<time>2016-10-07T14:49:31Z</time></trkpt>
<trkpt lat="29.353519" lon="98.6759">
<time>2016-10-07T14:49:32Z</time></trkpt>
<trkpt lat="29.353539" lon="98.67586">
<time>2016-10-07T14:49:33Z</time></trkpt>
<trkpt lat="29.353589" lon="98.675741">
<time>2016-10-07T14:49:34Z</time></trkpt>
<trkpt lat="29.353609" lon="98.675641">
<time>2016-10-07T14:49:35Z</time></trkpt>
<trkpt lat="29.353629" lon="98.675521">
<time>2016-10-07T14:49:36Z</time></trkpt>
<trkpt lat="29.35365" lon="98.675412">
<time>2016-10-07T14:49:37Z</time></trkpt>
<trkpt lat="29.35368" lon="98.675312">
<time>2016-10-07T14:49:38Z</time></trkpt>
<trkpt lat="29.35371" lon="98.675222">
<time>2016-10-07T14:49:39Z</time></trkpt>
<trkpt lat="29.35376" lon="98.675112">
<time>2016-10-07T14:49:40Z</time></trkpt>
<trkpt lat="29.3538" lon="98.675023">
<time>2016-10-07T14:49:41Z</time></trkpt>
<trkpt lat="29.35384" lon="98.674973">
<time>2016-10-07T14:49:42Z</time></trkpt>
<trkpt lat="29.35388" lon="98.674913">
<time>2016-10-07T14:49:43Z</time></trkpt>
<trkpt lat="29.353931" lon="98.674853">
<time>2016-10-07T14:49:44Z</time></trkpt>
<trkpt lat="29.353991" lon="98.674803">
<time>2016-10-07T14:49:45Z</time></trkpt>
<trkpt lat="29.354051" lon="98.674753">
<time>2016-10-07T14:49:46Z</time></trkpt>
<trkpt lat="29.354151" lon="98.674694">
<time>2016-10-07T14:49:47Z</time></trkpt>
<trkpt lat="29.354271" lon="98.674654">
<time>2016-10-07T14:49:48Z</time></trkpt>
<trkpt lat="29.354351" lon="98.674624">
<time>2016-10-07T14:49:49Z</time></trkpt>
<trkpt lat="29.354471" lon="98.674614">
<time>2016-10-07T14:49:50Z</time></trkpt>
<trkpt lat="29.354551" lon="98.674614">
<time>2016-10-07T14:49:51Z</time></trkpt>
<trkpt lat="29.35468" lon="98.674634">
<time>2016-10-07T14:49:52Z</time></trkpt>
<trkpt lat="29.35481" lon="98.674654">
<time>2016-10-07T14:49:53Z</time></trkpt>
<trkpt lat="29.35516" lon="98.674713">
<time>2016-10-07T14:49:54Z</time></trkpt>
<trkpt lat="29.35543" lon="98.674763">
<time>2016-10-07T14:49:55Z</time></trkpt>
<trkpt lat="29.35567" lon="98.674803">
<time>2016-10-07T14:49:56Z</time></trkpt>
<trkpt lat="29.355829" lon="98.674823">
<time>2016-10-07T14:49:57Z</time></trkpt>
<trkpt lat="29.356049" lon="98.674843">
<time>2016-10-07T14:49:58Z</time></trkpt>
<trkpt lat="29.356209" lon="98.674843">
<time>2016-10-07T14:49:59Z</time></trkpt>
<trkpt lat="29.356359" lon="98.674853">
<time>2016-10-07T14:50:00Z</time></trkpt>
<trkpt lat="29.356599" lon="98.674843">
<time>2016-10-07T14:50:01Z</time></trkpt>
<trkpt lat="29.356839" lon="98.674833">
<time>2016-10-07T14:50:02Z</time></trkpt>
<trkpt lat="29.357089" lon="98.674823">
<time>2016-10-07T14:50:03Z</time></trkpt>
<trkpt lat="29.357239" lon="98.674813">
<time>2016-10-07T14:50:04Z</time></trkpt>
<trkpt lat="29.357369" lon="98.674813">
<time>2016-10-07T14:50:05Z</time></trkpt>
<trkpt lat="29.357488" lon="98.674813">
<time>2016-10-07T14:50:06Z</time></trkpt>
<trkpt lat="29.357748" lon="98.674803">
<time>2016-10-07T14:50:07Z</time></trkpt>
<trkpt lat="29.357978" lon="98.674793">
<time>2016-10-07T14:50:08Z</time></trkpt>
<trkpt lat="29.358218" lon="98.674783">
<time>2016-10-07T14:50:09Z</time></trkpt>
<trkpt lat="29.358398" lon="98.674773">
<time>2016-10-07T14:50:10Z</time></trkpt>
<trkpt lat="29.358598" lon="98.674773">
<time>2016-10-07T14:50:11Z</time></trkpt>
<trkpt lat="29.358718" lon="98.674783">
<time>2016-10-07T14:50:12Z</time></trkpt>
<trkpt lat="29.358928" lon="98.674783">
<time>2016-10-07T14:50:13Z</time></trkpt>
<trkpt lat="29.359287" lon="98.674803">
<time>2016-10-07T14:50:14Z</time></trkpt>
<trkpt lat="29.359417" lon="98.674813">
<time>2016-10-07T14:50:15Z</time></trkpt>
<trkpt lat="29.359677" lon="98.674843">
<time>2016-10-07T14:50:16Z</time></trkpt>
<trkpt lat="29.359927" lon="98.674873">
<time>2016-10-07T14:50:17Z</time></trkpt>
<trkpt lat="29.360177" lon="98.674903">
<time>2016-10-07T14:50:18Z</time></trkpt>
<trkpt lat="29.360397" lon="98.674923">
<time>2016-10-07T14:50:19Z</time></trkpt>
<trkpt lat="29.360516" lon="98.674933">
<time>2016-10-07T14:50:20Z</time></trkpt>
<trkpt lat="29.360606" lon="98.674933">
<time>2016-10-07T14:50:21Z</time></trkpt>
<trkpt lat="29.360746" lon="98.674933">
<time>2016-10-07T14:50:22Z</time></trkpt>
<trkpt lat="29.360896" lon="98.674923">
<time>2016-10-07T14:50:23Z</time></trkpt>
<trkpt lat="29.361026" lon="98.674913">
<time>2016-10-07T14:50:24Z</time></trkpt>
<trkpt lat="29.361116" lon="98.674893">
<time>2016-10-07T14:50:25Z</time></trkpt>
<trkpt lat="29.361356" lon="98.674863">
<time>2016-10-07T14:50:26Z</time></trkpt>
<trkpt lat="29.361436" lon="98.674853">
<time>2016-10-07T14:50:27Z</time></trkpt>
<trkpt lat="29.361556" lon="98.674853">
<time>2016-10-07T14:50:28Z</time></trkpt>
<trkpt lat="29.361666" lon="98.674843">
<time>2016-10-07T14:50:29Z</time></trkpt>
<trkpt lat="29.361816" lon="98.674853">
<time>2016-10-07T14:50:30Z</time></trkpt>
<trkpt lat="29.361896" lon="98.674863">
<time>2016-10-07T14:50:31Z</time></trkpt>
<trkpt lat="29.362036" lon="98.674893">
<time>2016-10-07T14:50:32Z</time></trkpt>
<trkpt lat="29.362265" lon="98.674943">
<time>2016-10-07T14:50:33Z</time></trkpt>
<trkpt lat="29.362455" lon="98.674993">
<time>2016-10-07T14:50:34Z</time></trkpt>
<trkpt lat="29.362565" lon="98.675022">
<time>2016-10-07T14:50:35Z</time></trkpt>
<trkpt lat="29.362685" lon="98.675052">
<time>2016-10-07T14:50:36Z</time></trkpt>
<trkpt lat="29.362735" lon="98.675062">
<time>2016-10-07T14:50:37Z</time></trkpt>
<trkpt lat="29.362985" lon="98.675132">
<time>2016-10-07T14:50:38Z</time></trkpt>
<trkpt lat="29.363154" lon="98.675172">
<time>2016-10-07T14:50:39Z</time></trkpt>
<trkpt lat="29.363294" lon="98.675212">
<time>2016-10-07T14:50:40Z</time></trkpt>
<trkpt lat="29.363424" lon="98.675232">
<time>2016-10-07T14:50:41Z</time></trkpt>
<trkpt lat="29.363564" lon="98.675252">
<time>2016-10-07T14:50:42Z</time></trkpt>
<trkpt lat="29.363714" lon="98.675272">
<time>2016-10-07T14:50:43Z</time></trkpt>
<trkpt lat="29.363874" lon="98.675282">
<time>2016-10-07T14:50:44Z</time></trkpt>
<trkpt lat="29.364044" lon="98.675292">
<time>2016-10-07T14:50:45Z</time></trkpt>
<trkpt lat="29.364214" lon="98.675292">
<time>2016-10-07T14:50:46Z</time></trkpt>
<trkpt lat="29.364424" lon="98.675272">
<time>2016-10-07T14:50:47Z</time></trkpt>
<trkpt lat="29.364583" lon="98.675242">
<time>2016-10-07T14:50:48Z</time></trkpt>
<trkpt lat="29.364713" lon="98.675212">
<time>2016-10-07T14:50:49Z</time></trkpt>
<trkpt lat="29.364743" lon="98.675212">
<time>2016-10-07T14:50:50Z</time></trkpt>
<trkpt lat="29.364813" lon="98.675192">
<time>2016-10-07T14:50:51Z</time></trkpt>
<trkpt lat="29.364873" lon="98.675172">
<time>2016-10-07T14:50:52Z</time></trkpt>
<trkpt lat="29.365003" lon="98.675112">
<time>2016-10-07T14:50:53Z</time></trkpt>
<trkpt lat="29.365073" lon="98.675082">
<time>2016-10-07T14:50:54Z</time></trkpt>
<trkpt lat="29.365174" lon="98.675032">
<time>2016-10-07T14:50:55Z</time></trkpt>
<trkpt lat="29.365354" lon="98.674913">
<time>2016-10-07T14:50:56Z</time></trkpt>
<trkpt lat="29.365604" lon="98.674723">
<time>2016-10-07T14:50:57Z</time></trkpt>
<trkpt lat="29.365764" lon="98.674584">
<time>2016-10-07T14:50:58Z</time></trkpt>
<trkpt lat="29.365844" lon="98.674514">
<time>2016-10-07T14:50:59Z</time></trkpt>
<trkpt lat="29.366024" lon="98.674364">
<time>2016-10-07T14:51:00Z</time></trkpt>
<trkpt lat="29.366144" lon="98.674294">
<time>2016-10-07T14:51:01Z</time></trkpt>
<trkpt lat="29.366304" lon="98.674225">
<time>2016-10-07T14:51:02Z</time></trkpt>
<trkpt lat="29.366434" lon="98.674185">
<time>2016-10-07T14:51:03Z</time></trkpt>
<trkpt lat="29.366584" lon="98.674165">
<time>2016-10-07T14:51:04Z</time></trkpt>
<trkpt lat="29.366764" lon="98.674135">
<time>2016-10-07T14:51:05Z</time></trkpt>
<trkpt lat="29.367004" lon="98.674105">
<time>2016-10-07T14:51:06Z</time></trkpt>
<trkpt lat="29.367064" lon="98.674095">
<time>2016-10-07T14:51:07Z</time></trkpt>
<trkpt lat="29.367284" lon="98.674075">
<time>2016-10-07T14:51:08Z</time></trkpt>
<trkpt lat="29.367464" lon="98.674045">
<time>2016-10-07T14:51:09Z</time></trkpt>
<trkpt lat="29.367534" lon="98.674045">
<time>2016-10-07T14:51:10Z</time></trkpt>
<trkpt lat="29.367724" lon="98.674015">
<time>2016-10-07T14:51:11Z</time></trkpt>
<trkpt lat="29.367984" lon="98.673985">
<time>2016-10-07T14:51:12Z</time></trkpt>
<trkpt lat="29.368234" lon="98.673955">
<time>2016-10-07T14:51:13Z</time></trkpt>
<trkpt lat="29.368384" lon="98.673935">
<time>2016-10-07T14:51:14Z</time></trkpt>
<trkpt lat="29.368514" lon="98.673906">
<time>2016-10-07T14:51:15Z</time></trkpt>
<trkpt lat="29.368664" lon="98.673866">
<time>2016-10-07T14:51:16Z</time></trkpt>
<trkpt lat="29.368804" lon="98.673826">
<time>2016-10-07T14:51:17Z</time></trkpt>
<trkpt lat="29.369054" lon="98.673746">
<time>2016-10-07T14:51:18Z</time></trkpt>
<trkpt lat="29.369314" lon="98.673646">
<time>2016-10-07T14:51:19Z</time></trkpt>
<trkpt lat="29.369494" lon="98.673576">
<time>2016-10-07T14:51:20Z</time></trkpt>
<trkpt lat="29.369624" lon="98.673537">
<time>2016-10-07T14:51:21Z</time></trkpt>
<trkpt lat="29.369874" lon="98.673437">
<time>2016-10-07T14:51:22Z</time></trkpt>
<trkpt lat="29.370024" lon="98.673397">
<time>2016-10-07T14:51:23Z</time></trkpt>
<trkpt lat="29.370114" lon="98.673367">
<time>2016-10-07T14:51:24Z</time></trkpt>
<trkpt lat="29.370174" lon="98.673357">
<time>2016-10-07T14:51:25Z</time></trkpt>
<trkpt lat="29.370264" lon="98.673347">
<time>2016-10-07T14:51:26Z</time></trkpt>
<trkpt lat="29.370374" lon="98.673357">
<time>2016-10-07T14:51:27Z</time></trkpt>
<trkpt lat="29.370564" lon="98.673377">
<time>2016-10-07T14:51:28Z</time></trkpt>
<trkpt lat="29.370813" lon="98.673427">
<time>2016-10-07T14:51:29Z</time></trkpt>
<trkpt lat="29.371073" lon="98.673467">
<time>2016-10-07T14:51:30Z</time></trkpt>
<trkpt lat="29.371523" lon="98.673576">
<time>2016-10-07T14:51:31Z</time></trkpt>
<trkpt lat="29.372032" lon="98.673656">
<time>2016-10-07T14:51:32Z</time></trkpt>
<trkpt lat="29.372152" lon="98.673666">
<time>2016-10-07T14:51:33Z</time></trkpt>
<trkpt lat="29.372242" lon="98.673666">
<time>2016-10-07T14:51:34Z</time></trkpt>
<trkpt lat="29.372312" lon="98.673656">
<time>2016-10-07T14:51:35Z</time></trkpt>
<trkpt lat="29.372432" lon="98.673626">
<time>2016-10-07T14:51:36Z</time></trkpt>
<trkpt lat="29.372582" lon="98.673596">
<time>2016-10-07T14:51:37Z</time></trkpt>
<trkpt lat="29.372772" lon="98.673546">
<time>2016-10-07T14:51:38Z</time></trkpt>
<trkpt lat="29.372932" lon="98.673477">
<time>2016-10-07T14:51:39Z</time></trkpt>
<trkpt lat="29.373012" lon="98.673447">
<time>2016-10-07T14:51:40Z</time></trkpt>
<trkpt lat="29.373152" lon="98.673367">
<time>2016-10-07T14:51:41Z</time></trkpt>
<trkpt lat="29.373252" lon="98.673317">
<time>2016-10-07T14:51:42Z</time></trkpt>
<trkpt lat="29.373362" lon="98.673227">
<time>2016-10-07T14:51:43Z</time></trkpt>
<trkpt lat="29.373442" lon="98.673148">
<time>2016-10-07T14:51:44Z</time></trkpt>
<trkpt lat="29.373512" lon="98.673058">
<time>2016-10-07T14:51:45Z</time></trkpt>
<trkpt lat="29.373583" lon="98.672948">
<time>2016-10-07T14:51:46Z</time></trkpt>
<trkpt lat="29.373693" lon="98.672769">
<time>2016-10-07T14:51:47Z</time></trkpt>
<trkpt lat="29.373803" lon="98.672589">
<time>2016-10-07T14:51:48Z</time></trkpt>
<trkpt lat="29.373944" lon="98.67239">
<time>2016-10-07T14:51:49Z</time></trkpt>
<trkpt lat="29.374144" lon="98.67215">
<time>2016-10-07T14:51:50Z</time></trkpt>
<trkpt lat="29.374244" lon="98.672071">
<time>2016-10-07T14:51:51Z</time></trkpt>
<trkpt lat="29.374484" lon="98.671931">
<time>2016-10-07T14:51:52Z</time></trkpt>
<trkpt lat="29.374604" lon="98.671871">
<time>2016-10-07T14:51:53Z</time></trkpt>
<trkpt lat="29.374804" lon="98.671801">
<time>2016-10-07T14:51:54Z</time></trkpt>
<trkpt lat="29.375164" lon="98.671722">
<time>2016-10-07T14:51:55Z</time></trkpt>
<trkpt lat="29.375484" lon="98.671642">
<time>2016-10-07T14:51:56Z</time></trkpt>
<trkpt lat="29.375654" lon="98.671592">
<time>2016-10-07T14:51:57Z</time></trkpt>
<trkpt lat="29.375734" lon="98.671582">
<time>2016-10-07T14:51:58Z</time></trkpt>
<trkpt lat="29.375934" lon="98.671532">
<time>2016-10-07T14:51:59Z</time></trkpt>
<trkpt lat="29.376074" lon="98.671502">
<time>2016-10-07T14:52:00Z</time></trkpt>
<trkpt lat="29.376354" lon="98.671442">
<time>2016-10-07T14:52:01Z</time></trkpt>
<trkpt lat="29.376534" lon="98.671412">
<time>2016-10-07T14:52:02Z</time></trkpt>
<trkpt lat="29.376654" lon="98.671392">
<time>2016-10-07T14:52:03Z</time></trkpt>
<trkpt lat="29.376754" lon="98.671372">
<time>2016-10-07T14:52:04Z</time></trkpt>
<trkpt lat="29.377383" lon="98.671372">
<time>2016-10-07T14:52:05Z</time></trkpt>
<trkpt lat="29.377493" lon="98.671382">
<time>2016-10-07T14:52:06Z</time></trkpt>
<trkpt lat="29.377593" lon="98.671382">
<time>2016-10-07T14:52:07Z</time></trkpt>
<trkpt lat="29.377723" lon="98.671402">
<time>2016-10-07T14:52:08Z</time></trkpt>
<trkpt lat="29.377903" lon="98.671452">
<time>2016-10-07T14:52:09Z</time></trkpt>
<trkpt lat="29.378103" lon="98.671522">
<time>2016-10-07T14:52:10Z</time></trkpt>
<trkpt lat="29.378342" lon="98.671612">
<time>2016-10-07T14:52:11Z</time></trkpt>
<trkpt lat="29.378432" lon="98.671642">
<time>2016-10-07T14:52:12Z</time></trkpt>
<trkpt lat="29.378552" lon="98.671662">
<time>2016-10-07T14:52:13Z</time></trkpt>
<trkpt lat="29.378652" lon="98.671672">
<time>2016-10-07T14:52:14Z</time></trkpt>
<trkpt lat="29.378792" lon="98.671662">
<time>2016-10-07T14:52:15Z</time></trkpt>
<trkpt lat="29.378862" lon="98.671642">
<time>2016-10-07T14:52:16Z</time></trkpt>
<trkpt lat="29.378992" lon="98.671602">
<time>2016-10-07T14:52:17Z</time></trkpt>
<trkpt lat="29.379232" lon="98.671472">
<time>2016-10-07T14:52:18Z</time></trkpt>
<trkpt lat="29.379352" lon="98.671432">
<time>2016-10-07T14:52:19Z</time></trkpt>
<trkpt lat="29.379422" lon="98.671402">
<time>2016-10-07T14:52:20Z</time></trkpt>
<trkpt lat="29.379542" lon="98.671382">
<time>2016-10-07T14:52:21Z</time></trkpt>
<trkpt lat="29.379612" lon="98.671382">
<time>2016-10-07T14:52:22Z</time></trkpt>
<trkpt lat="29.379692" lon="98.671382">
<time>2016-10-07T14:52:23Z</time></trkpt>
<trkpt lat="29.379882" lon="98.671402">
<time>2016-10-07T14:52:24Z</time></trkpt>
<trkpt lat="29.380032" lon="98.671432">
<time>2016-10-07T14:52:25Z</time></trkpt>
<trkpt lat="29.380252" lon="98.671482">
<time>2016-10-07T14:52:26Z</time></trkpt>
<trkpt lat="29.380372" lon="98.671512">
<time>2016-10-07T14:52:27Z</time></trkpt>
<trkpt lat="29.380541" lon="98.671542">
<time>2016-10-07T14:52:28Z</time></trkpt>
<trkpt lat="29.380701" lon="98.671542">
<time>2016-10-07T14:52:29Z</time></trkpt>
<trkpt lat="29.380941" lon="98.671542">
<time>2016-10-07T14:52:30Z</time></trkpt>
<trkpt lat="29.381211" lon="98.671512">
<time>2016-10-07T14:52:31Z</time></trkpt>
<trkpt lat="29.381391" lon="98.671462">
<time>2016-10-07T14:52:32Z</time></trkpt>
<trkpt lat="29.381591" lon="98.671402">
<time>2016-10-07T14:52:33Z</time></trkpt>
<trkpt lat="29.381641" lon="98.671382">
<time>2016-10-07T14:52:34Z</time></trkpt>
<trkpt lat="29.381841" lon="98.671323">
<time>2016-10-07T14:52:35Z</time></trkpt>
<trkpt lat="29.382061" lon="98.671233">
<time>2016-10-07T14:52:36Z</time></trkpt>
<trkpt lat="29.382211" lon="98.671173">
<time>2016-10-07T14:52:37Z</time></trkpt>
<trkpt lat="29.382371" lon="98.671073">
<time>2016-10-07T14:52:38Z</time></trkpt>
<trkpt lat="29.382481" lon="98.671003">
<time>2016-10-07T14:52:39Z</time></trkpt>
<trkpt lat="29.382712" lon="98.670804">
<time>2016-10-07T14:52:40Z</time></trkpt>
<trkpt lat="29.382852" lon="98.670644">
<time>2016-10-07T14:52:41Z</time></trkpt>
<trkpt lat="29.382992" lon="98.670455">
<time>2016-10-07T14:52:42Z</time></trkpt>
<trkpt lat="29.383223" lon="98.670056">
<time>2016-10-07T14:52:43Z</time></trkpt>
<trkpt lat="29.383383" lon="98.669737">
<time>2016-10-07T14:52:44Z</time></trkpt>
<trkpt lat="29.383443" lon="98.669647">
<time>2016-10-07T14:52:45Z</time></trkpt>
<trkpt lat="29.383524" lon="98.669538">
<time>2016-10-07T14:52:46Z</time></trkpt>
<trkpt lat="29.383694" lon="98.669368">
<time>2016-10-07T14:52:47Z</time></trkpt>
<trkpt lat="29.383844" lon="98.669268">
<time>2016-10-07T14:52:48Z</time></trkpt>
<trkpt lat="29.383944" lon="98.669218">
<time>2016-10-07T14:52:49Z</time></trkpt>
<trkpt lat="29.384074" lon="98.669149">
<time>2016-10-07T14:52:50Z</time></trkpt>
<trkpt lat="29.384294" lon="98.669059">
<time>2016-10-07T14:52:51Z</time></trkpt>
<trkpt lat="29.384544" lon="98.668979">
<time>2016-10-07T14:52:52Z</time></trkpt>
<trkpt lat="29.384934" lon="98.668829">
<time>2016-10-07T14:52:53Z</time></trkpt>
<trkpt lat="29.385284" lon="98.6687">
<time>2016-10-07T14:52:54Z</time></trkpt>
<trkpt lat="29.385444" lon="98.66864">
<time>2016-10-07T14:52:55Z</time></trkpt>
<trkpt lat="29.385764" lon="98.66851">
<time>2016-10-07T14:52:56Z</time></trkpt>
<trkpt lat="29.385994" lon="98.668431">
<time>2016-10-07T14:52:57Z</time></trkpt>
<trkpt lat="29.386344" lon="98.668281">
<time>2016-10-07T14:52:58Z</time></trkpt>
<trkpt lat="29.386444" lon="98.668241">
<time>2016-10-07T14:52:59Z</time></trkpt>
<trkpt lat="29.386564" lon="98.668171">
<time>2016-10-07T14:53:00Z</time></trkpt>
<trkpt lat="29.386715" lon="98.668062">
<time>2016-10-07T14:53:01Z</time></trkpt>
<trkpt lat="29.386805" lon="98.667962">
<time>2016-10-07T14:53:02Z</time></trkpt>
<trkpt lat="29.386875" lon="98.667892">
<time>2016-10-07T14:53:03Z</time></trkpt>
<trkpt lat="29.386985" lon="98.667723">
<time>2016-10-07T14:53:04Z</time></trkpt>
<trkpt lat="29.387065" lon="98.667553">
<time>2016-10-07T14:53:05Z</time></trkpt>
<trkpt lat="29.387136" lon="98.667354">
<time>2016-10-07T14:53:06Z</time></trkpt>
<trkpt lat="29.387166" lon="98.667204">
<time>2016-10-07T14:53:07Z</time></trkpt>
<trkpt lat="29.387216" lon="98.666915">
<time>2016-10-07T14:53:08Z</time></trkpt>
<trkpt lat="29.387287" lon="98.666506">
<time>2016-10-07T14:53:09Z</time></trkpt>
<trkpt lat="29.387368" lon="98.665977">
<time>2016-10-07T14:53:10Z</time></trkpt>
<trkpt lat="29.387449" lon="98.665688">
<time>2016-10-07T14:53:11Z</time></trkpt>
<trkpt lat="29.387489" lon="98.665559">
<time>2016-10-07T14:53:12Z</time></trkpt>
<trkpt lat="29.387559" lon="98.665369">
<time>2016-10-07T14:53:13Z</time></trkpt>
<trkpt lat="29.387629" lon="98.665239">
<time>2016-10-07T14:53:14Z</time></trkpt>
<trkpt lat="29.3879" lon="98.664791">
<time>2016-10-07T14:53:15Z</time></trkpt>
<trkpt lat="29.388081" lon="98.664492">
<time>2016-10-07T14:53:16Z</time></trkpt>
<trkpt lat="29.388512" lon="98.663813">
<time>2016-10-07T14:53:17Z</time></trkpt>
<trkpt lat="29.388732" lon="98.663524">
<time>2016-10-07T14:53:18Z</time></trkpt>
<trkpt lat="29.388852" lon="98.663405">
<time>2016-10-07T14:53:19Z</time></trkpt>
<trkpt lat="29.389052" lon="98.663225">
<time>2016-10-07T14:53:20Z</time></trkpt>
<trkpt lat="29.389393" lon="98.662946">
<time>2016-10-07T14:53:21Z</time></trkpt>
<trkpt lat="29.389573" lon="98.662796">
<time>2016-10-07T14:53:22Z</time></trkpt>
<trkpt lat="29.389733" lon="98.662677">
<time>2016-10-07T14:53:23Z</time></trkpt>
<trkpt lat="29.389873" lon="98.662567">
<time>2016-10-07T14:53:24Z</time></trkpt>
<trkpt lat="29.390003" lon="98.662467">
<time>2016-10-07T14:53:25Z</time></trkpt>
<trkpt lat="29.390103" lon="98.662387">
<time>2016-10-07T14:53:26Z</time></trkpt>
<trkpt lat="29.390804" lon="98.661819">
<time>2016-10-07T14:53:27Z</time></trkpt>
<trkpt lat="29.391124" lon="98.66155">
<time>2016-10-07T14:53:28Z</time></trkpt>
<trkpt lat="29.391735" lon="98.661061">
<time>2016-10-07T14:53:29Z</time></trkpt>
<trkpt lat="29.391925" lon="98.660901">
<time>2016-10-07T14:53:30Z</time></trkpt>
<trkpt lat="29.392005" lon="98.660832">
<time>2016-10-07T14:53:31Z</time></trkpt>
<trkpt lat="29.392095" lon="98.660762">
<time>2016-10-07T14:53:32Z</time></trkpt>
<trkpt lat="29.392286" lon="98.660562">
<time>2016-10-07T14:53:33Z</time></trkpt>
<trkpt lat="29.392396" lon="98.660433">
<time>2016-10-07T14:53:34Z</time></trkpt>
<trkpt lat="29.392486" lon="98.660303">
<time>2016-10-07T14:53:35Z</time></trkpt>
<trkpt lat="29.392536" lon="98.660223">
<time>2016-10-07T14:53:36Z</time></trkpt>
<trkpt lat="29.392687" lon="98.659964">
<time>2016-10-07T14:53:37Z</time></trkpt>
<trkpt lat="29.392767" lon="98.659814">
<time>2016-10-07T14:53:38Z</time></trkpt>
<trkpt lat="29.392897" lon="98.659565">
<time>2016-10-07T14:53:39Z</time></trkpt>
<trkpt lat="29.393007" lon="98.659366">
<time>2016-10-07T14:53:40Z</time></trkpt>
<trkpt lat="29.393088" lon="98.659216">
<time>2016-10-07T14:53:41Z</time></trkpt>
<trkpt lat="29.393308" lon="98.658817">
<time>2016-10-07T14:53:42Z</time></trkpt>
<trkpt lat="29.393338" lon="98.658747">
<time>2016-10-07T14:53:43Z</time></trkpt>
<trkpt lat="29.393529" lon="98.658388">
<time>2016-10-07T14:53:44Z</time></trkpt>
<trkpt lat="29.39373" lon="98.657999">
<time>2016-10-07T14:53:45Z</time></trkpt>
<trkpt lat="29.39382" lon="98.6578">
<time>2016-10-07T14:53:46Z</time></trkpt>
<trkpt lat="29.39386" lon="98.6577">
<time>2016-10-07T14:53:47Z</time></trkpt>
<trkpt lat="29.39392" lon="98.65754">
<time>2016-10-07T14:53:48Z</time></trkpt>
<trkpt lat="29.393971" lon="98.657421">
<time>2016-10-07T14:53:49Z</time></trkpt>
<trkpt lat="29.394031" lon="98.657251">
<time>2016-10-07T14:53:50Z</time></trkpt>
<trkpt lat="29.394071" lon="98.657142">
<time>2016-10-07T14:53:51Z</time></trkpt>
<trkpt lat="29.394131" lon="98.656972">
<time>2016-10-07T14:53:52Z</time></trkpt>
<trkpt lat="29.394212" lon="98.656783">
<time>2016-10-07T14:53:53Z</time></trkpt>
<trkpt lat="29.394282" lon="98.656583">
<time>2016-10-07T14:53:54Z</time></trkpt>
<trkpt lat="29.394382" lon="98.656314">
<time>2016-10-07T14:53:55Z</time></trkpt>
<trkpt lat="29.394563" lon="98.655925">
<time>2016-10-07T14:53:56Z</time></trkpt>
<trkpt lat="29.394653" lon="98.655765">
<time>2016-10-07T14:53:57Z</time></trkpt>
<trkpt lat="29.394773" lon="98.655566">
<time>2016-10-07T14:53:58Z</time></trkpt>
<trkpt lat="29.394884" lon="98.655406">
<time>2016-10-07T14:53:59Z</time></trkpt>
<trkpt lat="29.394954" lon="98.655326">
<time>2016-10-07T14:54:00Z</time></trkpt>
<trkpt lat="29.395044" lon="98.655227">
<time>2016-10-07T14:54:01Z</time></trkpt>
<trkpt lat="29.395214" lon="98.655037">
<time>2016-10-07T14:54:02Z</time></trkpt>
<trkpt lat="29.395344" lon="98.654917">
<time>2016-10-07T14:54:03Z</time></trkpt>
<trkpt lat="29.395575" lon="98.654718">
<time>2016-10-07T14:54:04Z</time></trkpt>
<trkpt lat="29.395795" lon="98.654568">
<time>2016-10-07T14:54:05Z</time></trkpt>
<trkpt lat="29.395935" lon="98.654489">
<time>2016-10-07T14:54:06Z</time></trkpt>
<trkpt lat="29.396075" lon="98.654409">
<time>2016-10-07T14:54:07Z</time></trkpt>
<trkpt lat="29.396205" lon="98.654349">
<time>2016-10-07T14:54:08Z</time></trkpt>
<trkpt lat="29.396405" lon="98.654269">
<time>2016-10-07T14:54:09Z</time></trkpt>
<trkpt lat="29.396525" lon="98.654219">
<time>2016-10-07T14:54:10Z</time></trkpt>
<trkpt lat="29.396645" lon="98.654189">
<time>2016-10-07T14:54:11Z</time></trkpt>
<trkpt lat="29.396745" lon="98.654159">
<time>2016-10-07T14:54:12Z</time></trkpt>
<trkpt lat="29.396895" lon="98.65413">
<time>2016-10-07T14:54:13Z</time></trkpt>
<trkpt lat="29.397035" lon="98.65411">
<time>2016-10-07T14:54:14Z</time></trkpt>
<trkpt lat="29.397365" lon="98.65409">
<time>2016-10-07T14:54:15Z</time></trkpt>
<trkpt lat="29.397595" lon="98.65408">
<time>2016-10-07T14:54:16Z</time></trkpt>
<trkpt lat="29.397994" lon="98.65406">
<time>2016-10-07T14:54:17Z</time></trkpt>
<trkpt lat="29.398164" lon="98.65404">
<time>2016-10-07T14:54:18Z</time></trkpt>
<trkpt lat="29.398454" lon="98.65398">
<time>2016-10-07T14:54:19Z</time></trkpt>
<trkpt lat="29.398744" lon="98.65391">
<time>2016-10-07T14:54:20Z</time></trkpt>
<trkpt lat="29.398874" lon="98.65389">
<time>2016-10-07T14:54:21Z</time></trkpt>
<trkpt lat="29.399054" lon="98.65387">
<time>2016-10-07T14:54:22Z</time></trkpt>
<trkpt lat="29.399224" lon="98.65386">
<time>2016-10-07T14:54:23Z</time></trkpt>
<trkpt lat="29.399354" lon="98.65387">
<time>2016-10-07T14:54:24Z</time></trkpt>
<trkpt lat="29.399634" lon="98.65389">
<time>2016-10-07T14:54:25Z</time></trkpt>
<trkpt lat="29.399934" lon="98.65391">
<time>2016-10-07T14:54:26Z</time></trkpt>
<trkpt lat="29.400114" lon="98.65392">
<time>2016-10-07T14:54:27Z</time></trkpt>
<trkpt lat="29.400463" lon="98.65395">
<time>2016-10-07T14:54:28Z</time></trkpt>
<trkpt lat="29.400963" lon="98.65398">
<time>2016-10-07T14:54:29Z</time></trkpt>
<trkpt lat="29.401423" lon="98.65401">
<time>2016-10-07T14:54:30Z</time></trkpt>
<trkpt lat="29.401653" lon="98.65401">
<time>2016-10-07T14:54:31Z</time></trkpt>
<trkpt lat="29.401753" lon="98.654">
<time>2016-10-07T14:54:32Z</time></trkpt>
<trkpt lat="29.401882" lon="98.65398">
<time>2016-10-07T14:54:33Z</time></trkpt>
<trkpt lat="29.402012" lon="98.65394">
<time>2016-10-07T14:54:34Z</time></trkpt>
<trkpt lat="29.402112" lon="98.6539">
<time>2016-10-07T14:54:35Z</time></trkpt>
<trkpt lat="29.402243" lon="98.65384">
<time>2016-10-07T14:54:36Z</time></trkpt>
<trkpt lat="29.402383" lon="98.65376">
<time>2016-10-07T14:54:37Z</time></trkpt>
<trkpt lat="29.402523" lon="98.653641">
<time>2016-10-07T14:54:38Z</time></trkpt>
<trkpt lat="29.402653" lon="98.653511">
<time>2016-10-07T14:54:39Z</time></trkpt>
<trkpt lat="29.402793" lon="98.653342">
<time>2016-10-07T14:54:40Z</time></trkpt>
<trkpt lat="29.402883" lon="98.653212">
<time>2016-10-07T14:54:41Z</time></trkpt>
<trkpt lat="29.402943" lon="98.653132">
<time>2016-10-07T14:54:42Z</time></trkpt>
<trkpt lat="29.403044" lon="98.652963">
<time>2016-10-07T14:54:43Z</time></trkpt>
<trkpt lat="29.403234" lon="98.652673">
<time>2016-10-07T14:54:44Z</time></trkpt>
<trkpt lat="29.403324" lon="98.652524">
<time>2016-10-07T14:54:45Z</time></trkpt>
<trkpt lat="29.403555" lon="98.652165">
<time>2016-10-07T14:54:46Z</time></trkpt>
<trkpt lat="29.403685" lon="98.651935">
<time>2016-10-07T14:54:47Z</time></trkpt>
<trkpt lat="29.403745" lon="98.651776">
<time>2016-10-07T14:54:48Z</time></trkpt>
<trkpt lat="29.403826" lon="98.651526">
<time>2016-10-07T14:54:49Z</time></trkpt>
<trkpt lat="29.403856" lon="98.651427">
<time>2016-10-07T14:54:50Z</time></trkpt>
<trkpt lat="29.403886" lon="98.651267">
<time>2016-10-07T14:54:51Z</time></trkpt>
<trkpt lat="29.403926" lon="98.651137">
<time>2016-10-07T14:54:52Z</time></trkpt>
<trkpt lat="29.403977" lon="98.650978">
<time>2016-10-07T14:54:53Z</time></trkpt>
<trkpt lat="29.404047" lon="98.650808">
<time>2016-10-07T14:54:54Z</time></trkpt>
<trkpt lat="29.404107" lon="98.650688">
<time>2016-10-07T14:54:55Z</time></trkpt>
<trkpt lat="29.404257" lon="98.650479">
<time>2016-10-07T14:54:56Z</time></trkpt>
<trkpt lat="29.404398" lon="98.650339">
<time>2016-10-07T14:54:57Z</time></trkpt>
<trkpt lat="29.404518" lon="98.65023">
<time>2016-10-07T14:54:58Z</time></trkpt>
<trkpt lat="29.404598" lon="98.65018">
<time>2016-10-07T14:54:59Z</time></trkpt>
<trkpt lat="29.404668" lon="98.65013">
<time>2016-10-07T14:55:00Z</time></trkpt>
<trkpt lat="29.404758" lon="98.65009">
<time>2016-10-07T14:55:01Z</time></trkpt>
<trkpt lat="29.404838" lon="98.65005">
<time>2016-10-07T14:55:02Z</time></trkpt>
<trkpt lat="29.405008" lon="98.65">
<time>2016-10-07T14:55:03Z</time></trkpt>
<trkpt lat="29.405138" lon="98.64997">
<time>2016-10-07T14:55:04Z</time></trkpt>
<trkpt lat="29.405278" lon="98.64995">
<time>2016-10-07T14:55:05Z</time></trkpt>
<trkpt lat="29.405468" lon="98.64994">
<time>2016-10-07T14:55:06Z</time></trkpt>
<trkpt lat="29.405808" lon="98.64991">
<time>2016-10-07T14:55:07Z</time></trkpt>
<trkpt lat="29.406057" lon="98.64988">
<time>2016-10-07T14:55:08Z</time></trkpt>
<trkpt lat="29.406437" lon="98.649851">
<time>2016-10-07T14:55:09Z</time></trkpt>
<trkpt lat="29.406757" lon="98.649811">
<time>2016-10-07T14:55:10Z</time></trkpt>
<trkpt lat="29.407047" lon="98.649781">
<time>2016-10-07T14:55:11Z</time></trkpt>
<trkpt lat="29.407317" lon="98.649761">
<time>2016-10-07T14:55:12Z</time></trkpt>
<trkpt lat="29.407587" lon="98.649751">
<time>2016-10-07T14:55:13Z</time></trkpt>
<trkpt lat="29.407717" lon="98.649761">
<time>2016-10-07T14:55:14Z</time></trkpt>
<trkpt lat="29.407847" lon="98.649761">
<time>2016-10-07T14:55:15Z</time></trkpt>
<trkpt lat="29.407997" lon="98.649771">
<time>2016-10-07T14:55:16Z</time></trkpt>
<trkpt lat="29.408196" lon="98.649801">
<time>2016-10-07T14:55:17Z</time></trkpt>
<trkpt lat="29.408356" lon="98.649831">
<time>2016-10-07T14:55:18Z</time></trkpt>
<trkpt lat="29.408596" lon="98.64988">
<time>2016-10-07T14:55:19Z</time></trkpt>
<trkpt lat="29.408836" lon="98.64992">
<time>2016-10-07T14:55:20Z</time></trkpt>
<trkpt lat="29.409056" lon="98.64997">
<time>2016-10-07T14:55:21Z</time></trkpt>
<trkpt lat="29.409246" lon="98.65">
<time>2016-10-07T14:55:22Z</time></trkpt>
<trkpt lat="29.409345" lon="98.65001">
<time>2016-10-07T14:55:23Z</time></trkpt>
<trkpt lat="29.409515" lon="98.65002">
<time>2016-10-07T14:55:24Z</time></trkpt>
<trkpt lat="29.409605" lon="98.65003">
<time>2016-10-07T14:55:25Z</time></trkpt>
<trkpt lat="29.410065" lon="98.65003">
<time>2016-10-07T14:55:26Z</time></trkpt>
<trkpt lat="29.410695" lon="98.65003">
<time>2016-10-07T14:55:27Z</time></trkpt>
<trkpt lat="29.410905" lon="98.65003">
<time>2016-10-07T14:55:28Z</time></trkpt>
<trkpt lat="29.411454" lon="98.65003">
<time>2016-10-07T14:55:29Z</time></trkpt>
<trkpt lat="29.411684" lon="98.65003">
<time>2016-10-07T14:55:30Z</time></trkpt>
<trkpt lat="29.411884" lon="98.65003">
<time>2016-10-07T14:55:31Z</time></trkpt>
<trkpt lat="29.412164" lon="98.65002">
<time>2016-10-07T14:55:32Z</time></trkpt>
<trkpt lat="29.412354" lon="98.65002">
<time>2016-10-07T14:55:33Z</time></trkpt>
<trkpt lat="29.412644" lon="98.65002">
<time>2016-10-07T14:55:34Z</time></trkpt>
<trkpt lat="29.412824" lon="98.65002">
<time>2016-10-07T14:55:35Z</time></trkpt>
<trkpt lat="29.413113" lon="98.65003">
<time>2016-10-07T14:55:36Z</time></trkpt>
<trkpt lat="29.413483" lon="98.65003">
<time>2016-10-07T14:55:37Z</time></trkpt>
<trkpt lat="29.413663" lon="98.65003">
<time>2016-10-07T14:55:38Z</time></trkpt>
<trkpt lat="29.413883" lon="98.65005">
<time>2016-10-07T14:55:39Z</time></trkpt>
<trkpt lat="29.414023" lon="98.65006">
<time>2016-10-07T14:55:40Z</time></trkpt>
<trkpt lat="29.414293" lon="98.65009">
<time>2016-10-07T14:55:41Z</time></trkpt>
<trkpt lat="29.414493" lon="98.65012">
<time>2016-10-07T14:55:42Z</time></trkpt>
<trkpt lat="29.414712" lon="98.65016">
<time>2016-10-07T14:55:43Z</time></trkpt>
<trkpt lat="29.414972" lon="98.650209">
<time>2016-10-07T14:55:44Z</time></trkpt>
<trkpt lat="29.415092" lon="98.650219">
<time>2016-10-07T14:55:45Z</time></trkpt>
<trkpt lat="29.415222" lon="98.650229">
<time>2016-10-07T14:55:46Z</time></trkpt>
<trkpt lat="29.415302" lon="98.650239">
<time>2016-10-07T14:55:47Z</time></trkpt>
<trkpt lat="29.415402" lon="98.650229">
<time>2016-10-07T14:55:48Z</time></trkpt>
<trkpt lat="29.415472" lon="98.650219">
<time>2016-10-07T14:55:49Z</time></trkpt>
<trkpt lat="29.415572" lon="98.650199">
<time>2016-10-07T14:55:50Z</time></trkpt>
<trkpt lat="29.415642" lon="98.65018">
<time>2016-10-07T14:55:51Z</time></trkpt>
<trkpt lat="29.415752" lon="98.65013">
<time>2016-10-07T14:55:52Z</time></trkpt>
<trkpt lat="29.415842" lon="98.65009">
<time>2016-10-07T14:55:53Z</time></trkpt>
<trkpt lat="29.415952" lon="98.65001">
<time>2016-10-07T14:55:54Z</time></trkpt>
<trkpt lat="29.415982" lon="98.64998">
<time>2016-10-07T14:55:55Z</time></trkpt>
<trkpt lat="29.416072" lon="98.6499">
<time>2016-10-07T14:55:56Z</time></trkpt>
<trkpt lat="29.416192" lon="98.649781">
<time>2016-10-07T14:55:57Z</time></trkpt>
<trkpt lat="29.416332" lon="98.649631">
<time>2016-10-07T14:55:58Z</time></trkpt>
<trkpt lat="29.416433" lon="98.649531">
<time>2016-10-07T14:55:59Z</time></trkpt>
<trkpt lat="29.416533" lon="98.649431">
<time>2016-10-07T14:56:00Z</time></trkpt>
<trkpt lat="29.416623" lon="98.649372">
<time>2016-10-07T14:56:01Z</time></trkpt>
<trkpt lat="29.416683" lon="98.649332">
<time>2016-10-07T14:56:02Z</time></trkpt>
<trkpt lat="29.416703" lon="98.649312">
<time>2016-10-07T14:56:03Z</time></trkpt>
<trkpt lat="29.416763" lon="98.649282">
<time>2016-10-07T14:56:04Z</time></trkpt>
<trkpt lat="29.416833" lon="98.649232">
<time>2016-10-07T14:56:05Z</time></trkpt>
<trkpt lat="29.416923" lon="98.649182">
<time>2016-10-07T14:56:06Z</time></trkpt>
<trkpt lat="29.417023" lon="98.649142">
<time>2016-10-07T14:56:07Z</time></trkpt>
<trkpt lat="29.417113" lon="98.649112">
<time>2016-10-07T14:56:08Z</time></trkpt>
<trkpt lat="29.417283" lon="98.649052">
<time>2016-10-07T14:56:09Z</time></trkpt>
<trkpt lat="29.417393" lon="98.649022">
<time>2016-10-07T14:56:10Z</time></trkpt>
<trkpt lat="29.417583" lon="98.648973">
<time>2016-10-07T14:56:11Z</time></trkpt>
<trkpt lat="29.417683" lon="98.648943">
<time>2016-10-07T14:56:12Z</time></trkpt>
<trkpt lat="29.417883" lon="98.648883">
<time>2016-10-07T14:56:13Z</time></trkpt>
<trkpt lat="29.418233" lon="98.648793">
<time>2016-10-07T14:56:14Z</time></trkpt>
<trkpt lat="29.418523" lon="98.648693">
<time>2016-10-07T14:56:15Z</time></trkpt>
<trkpt lat="29.418713" lon="98.648604">
<time>2016-10-07T14:56:16Z</time></trkpt>
<trkpt lat="29.418833" lon="98.648544">
<time>2016-10-07T14:56:17Z</time></trkpt>
<trkpt lat="29.418913" lon="98.648494">
<time>2016-10-07T14:56:18Z</time></trkpt>
<trkpt lat="29.418983" lon="98.648454">
<time>2016-10-07T14:56:19Z</time></trkpt>
<trkpt lat="29.419103" lon="98.648364">
<time>2016-10-07T14:56:20Z</time></trkpt>
<trkpt lat="29.419253" lon="98.648254">
<time>2016-10-07T14:56:21Z</time></trkpt>
<trkpt lat="29.419323" lon="98.648185">
<time>2016-10-07T14:56:22Z</time></trkpt>
<trkpt lat="29.419433" lon="98.648085">
<time>2016-10-07T14:56:23Z</time></trkpt>
<trkpt lat="29.419524" lon="98.647995">
<time>2016-10-07T14:56:24Z</time></trkpt>
<trkpt lat="29.419624" lon="98.647885">
<time>2016-10-07T14:56:25Z</time></trkpt>
<trkpt lat="29.419684" lon="98.647816">
<time>2016-10-07T14:56:26Z</time></trkpt>
<trkpt lat="29.419734" lon="98.647756">
<time>2016-10-07T14:56:27Z</time></trkpt>
<trkpt lat="29.419794" lon="98.647686">
<time>2016-10-07T14:56:28Z</time></trkpt>
<trkpt lat="29.419854" lon="98.647616">
<time>2016-10-07T14:56:29Z</time></trkpt>
<trkpt lat="29.419924" lon="98.647536">
<time>2016-10-07T14:56:30Z</time></trkpt>
<trkpt lat="29.419994" lon="98.647476">
<time>2016-10-07T14:56:31Z</time></trkpt>
<trkpt lat="29.420124" lon="98.647387">
<time>2016-10-07T14:56:32Z</time></trkpt>
<trkpt lat="29.420244" lon="98.647307">
<time>2016-10-07T14:56:33Z</time></trkpt>
<trkpt lat="29.420384" lon="98.647237">
<time>2016-10-07T14:56:34Z</time></trkpt>
<trkpt lat="29.420554" lon="98.647177">
<time>2016-10-07T14:56:35Z</time></trkpt>
<trkpt lat="29.420874" lon="98.647087">
<time>2016-10-07T14:56:36Z</time></trkpt>
<trkpt lat="29.421034" lon="98.647037">
<time>2016-10-07T14:56:37Z</time></trkpt>
<trkpt lat="29.421314" lon="98.646938">
<time>2016-10-07T14:56:38Z</time></trkpt>
<trkpt lat="29.421704" lon="98.646808">
<time>2016-10-07T14:56:39Z</time></trkpt>
<trkpt lat="29.421844" lon="98.646788">
<time>2016-10-07T14:56:40Z</time></trkpt>
<trkpt lat="29.422124" lon="98.646768">
<time>2016-10-07T14:56:41Z</time></trkpt>
<trkpt lat="29.422414" lon="98.646758">
<time>2016-10-07T14:56:42Z</time></trkpt>
<trkpt lat="29.422634" lon="98.646748">
<time>2016-10-07T14:56:43Z</time></trkpt>
<trkpt lat="29.423044" lon="98.646728">
<time>2016-10-07T14:56:44Z</time></trkpt>
<trkpt lat="29.423504" lon="98.646718">
<time>2016-10-07T14:56:45Z</time></trkpt>
<trkpt lat="29.423923" lon="98.646718">
<time>2016-10-07T14:56:46Z</time></trkpt>
<trkpt lat="29.424063" lon="98.646718">
<time>2016-10-07T14:56:47Z</time></trkpt>
<trkpt lat="29.424163" lon="98.646728">
<time>2016-10-07T14:56:48Z</time></trkpt>
<trkpt lat="29.424253" lon="98.646738">
<time>2016-10-07T14:56:49Z</time></trkpt>
<trkpt lat="29.424493" lon="98.646788">
<time>2016-10-07T14:56:50Z</time></trkpt>
<trkpt lat="29.424743" lon="98.646858">
<time>2016-10-07T14:56:51Z</time></trkpt>
<trkpt lat="29.425052" lon="98.646928">
<time>2016-10-07T14:56:52Z</time></trkpt>
<trkpt lat="29.425172" lon="98.646958">
<time>2016-10-07T14:56:53Z</time></trkpt>
<trkpt lat="29.425282" lon="98.646978">
<time>2016-10-07T14:56:54Z</time></trkpt>
<trkpt lat="29.425392" lon="98.646987">
<time>2016-10-07T14:56:55Z</time></trkpt>
<trkpt lat="29.425452" lon="98.646987">
<time>2016-10-07T14:56:56Z</time></trkpt>
<trkpt lat="29.425522" lon="98.646987">
<time>2016-10-07T14:56:57Z</time></trkpt>
<trkpt lat="29.425602" lon="98.646987">
<time>2016-10-07T14:56:58Z</time></trkpt>
<trkpt lat="29.425692" lon="98.646987">
<time>2016-10-07T14:56:59Z</time></trkpt>
<trkpt lat="29.425832" lon="98.646987">
<time>2016-10-07T14:57:00Z</time></trkpt>
<trkpt lat="29.425992" lon="98.646977">
<time>2016-10-07T14:57:01Z</time></trkpt>
<trkpt lat="29.426132" lon="98.646968">
<time>2016-10-07T14:57:02Z</time></trkpt>
<trkpt lat="29.426462" lon="98.646948">
<time>2016-10-07T14:57:03Z</time></trkpt>
<trkpt lat="29.426672" lon="98.646938">
<time>2016-10-07T14:57:04Z</time></trkpt>
<trkpt lat="29.426802" lon="98.646938">
<time>2016-10-07T14:57:05Z</time></trkpt>
<trkpt lat="29.426871" lon="98.646938">
<time>2016-10-07T14:57:06Z</time></trkpt>
<trkpt lat="29.427091" lon="98.646938">
<time>2016-10-07T14:57:07Z</time></trkpt>
<trkpt lat="29.427221" lon="98.646938">
<time>2016-10-07T14:57:08Z</time></trkpt>
<trkpt lat="29.427391" lon="98.646958">
<time>2016-10-07T14:57:09Z</time></trkpt>
<trkpt lat="29.427541" lon="98.646987">
<time>2016-10-07T14:57:10Z</time></trkpt>
<trkpt lat="29.427591" lon="98.646997">
<time>2016-10-07T14:57:11Z</time></trkpt>
<trkpt lat="29.427741" lon="98.647047">
<time>2016-10-07T14:57:12Z</time></trkpt>
<trkpt lat="29.427981" lon="98.647157">
<time>2016-10-07T14:57:13Z</time></trkpt>
<trkpt lat="29.42817" lon="98.647237">
<time>2016-10-07T14:57:14Z</time></trkpt>
<trkpt lat="29.42841" lon="98.647357">
<time>2016-10-07T14:57:15Z</time></trkpt>
<trkpt lat="29.42854" lon="98.647416">
<time>2016-10-07T14:57:16Z</time></trkpt>
<trkpt lat="29.42858" lon="98.647436">
<time>2016-10-07T14:57:17Z</time></trkpt>
<trkpt lat="29.428789" lon="98.647536">
<time>2016-10-07T14:57:18Z</time></trkpt>
<trkpt lat="29.428899" lon="98.647576">
<time>2016-10-07T14:57:19Z</time></trkpt>
<trkpt lat="29.429059" lon="98.647656">
<time>2016-10-07T14:57:20Z</time></trkpt>
<trkpt lat="29.429239" lon="98.647726">
<time>2016-10-07T14:57:21Z</time></trkpt>
<trkpt lat="29.429309" lon="98.647746">
<time>2016-10-07T14:57:22Z</time></trkpt>
<trkpt lat="29.429529" lon="98.647785">
<time>2016-10-07T14:57:23Z</time></trkpt>
<trkpt lat="29.429679" lon="98.647795">
<time>2016-10-07T14:57:24Z</time></trkpt>
<trkpt lat="29.429919" lon="98.647775">
<time>2016-10-07T14:57:25Z</time></trkpt>
<trkpt lat="29.430208" lon="98.647706">
<time>2016-10-07T14:57:26Z</time></trkpt>
<trkpt lat="29.430448" lon="98.647646">
<time>2016-10-07T14:57:27Z</time></trkpt>
<trkpt lat="29.430538" lon="98.647616">
<time>2016-10-07T14:57:28Z</time></trkpt>
<trkpt lat="29.430678" lon="98.647596">
<time>2016-10-07T14:57:29Z</time></trkpt>
<trkpt lat="29.430808" lon="98.647596">
<time>2016-10-07T14:57:30Z</time></trkpt>
<trkpt lat="29.430918" lon="98.647616">
<time>2016-10-07T14:57:31Z</time></trkpt>
<trkpt lat="29.431028" lon="98.647646">
<time>2016-10-07T14:57:32Z</time></trkpt>
<trkpt lat="29.431108" lon="98.647686">
<time>2016-10-07T14:57:33Z</time></trkpt>
<trkpt lat="29.431198" lon="98.647745">
<time>2016-10-07T14:57:34Z</time></trkpt>
<trkpt lat="29.431318" lon="98.647835">
<time>2016-10-07T14:57:35Z</time></trkpt>
<trkpt lat="29.431388" lon="98.647905">
<time>2016-10-07T14:57:36Z</time></trkpt>
<trkpt lat="29.431447" lon="98.647975">
<time>2016-10-07T14:57:37Z</time></trkpt>
<trkpt lat="29.431527" lon="98.648075">
<time>2016-10-07T14:57:38Z</time></trkpt>
<trkpt lat="29.431657" lon="98.648254">
<time>2016-10-07T14:57:39Z</time></trkpt>
<trkpt lat="29.431836" lon="98.648484">
<time>2016-10-07T14:57:40Z</time></trkpt>
<trkpt lat="29.431986" lon="98.648673">
<time>2016-10-07T14:57:41Z</time></trkpt>
<trkpt lat="29.432126" lon="98.648863">
<time>2016-10-07T14:57:42Z</time></trkpt>
<trkpt lat="29.432305" lon="98.649092">
<time>2016-10-07T14:57:43Z</time></trkpt>
<trkpt lat="29.432375" lon="98.649172">
<time>2016-10-07T14:57:44Z</time></trkpt>
<trkpt lat="29.432425" lon="98.649222">
<time>2016-10-07T14:57:45Z</time></trkpt>
<trkpt lat="29.432445" lon="98.649242">
<time>2016-10-07T14:57:46Z</time></trkpt>
<trkpt lat="29.432515" lon="98.649302">
<time>2016-10-07T14:57:47Z</time></trkpt>
<trkpt lat="29.432604" lon="98.649371">
<time>2016-10-07T14:57:48Z</time></trkpt>
<trkpt lat="29.432754" lon="98.649441">
<time>2016-10-07T14:57:49Z</time></trkpt>
<trkpt lat="29.432844" lon="98.649491">
<time>2016-10-07T14:57:50Z</time></trkpt>
<trkpt lat="29.432944" lon="98.649511">
<time>2016-10-07T14:57:51Z</time></trkpt>
<trkpt lat="29.433094" lon="98.649541">
<time>2016-10-07T14:57:52Z</time></trkpt>
<trkpt lat="29.433314" lon="98.649561">
<time>2016-10-07T14:57:53Z</time></trkpt>
<trkpt lat="29.433544" lon="98.649571">
<time>2016-10-07T14:57:54Z</time></trkpt>
<trkpt lat="29.433674" lon="98.649581">
<time>2016-10-07T14:57:55Z</time></trkpt>
<trkpt lat="29.433843" lon="98.649601">
<time>2016-10-07T14:57:56Z</time></trkpt>
<trkpt lat="29.433923" lon="98.649601">
<time>2016-10-07T14:57:57Z</time></trkpt>
<trkpt lat="29.434153" lon="98.649621">
<time>2016-10-07T14:57:58Z</time></trkpt>
<trkpt lat="29.434273" lon="98.649621">
<time>2016-10-07T14:57:59Z</time></trkpt>
<trkpt lat="29.434483" lon="98.649621">
<time>2016-10-07T14:58:00Z</time></trkpt>
<trkpt lat="29.434563" lon="98.649611">
<time>2016-10-07T14:58:01Z</time></trkpt>
<trkpt lat="29.434633" lon="98.649601">
<time>2016-10-07T14:58:02Z</time></trkpt>
<trkpt lat="29.434723" lon="98.649591">
<time>2016-10-07T14:58:03Z</time></trkpt>
<trkpt lat="29.434833" lon="98.649551">
<time>2016-10-07T14:58:04Z</time></trkpt>
<trkpt lat="29.434893" lon="98.649521">
<time>2016-10-07T14:58:05Z</time></trkpt>
<trkpt lat="29.435013" lon="98.649461">
<time>2016-10-07T14:58:06Z</time></trkpt>
<trkpt lat="29.435133" lon="98.649361">
<time>2016-10-07T14:58:07Z</time></trkpt>
<trkpt lat="29.435263" lon="98.649232">
<time>2016-10-07T14:58:08Z</time></trkpt>
<trkpt lat="29.435353" lon="98.649112">
<time>2016-10-07T14:58:09Z</time></trkpt>
<trkpt lat="29.435434" lon="98.648982">
<time>2016-10-07T14:58:10Z</time></trkpt>
<trkpt lat="29.435745" lon="98.648384">
<time>2016-10-07T14:58:11Z</time></trkpt>
<trkpt lat="29.435765" lon="98.648344">
<time>2016-10-07T14:58:12Z</time></trkpt>
<trkpt lat="29.435855" lon="98.648164">
<time>2016-10-07T14:58:13Z</time></trkpt>
<trkpt lat="29.436035" lon="98.647845">
<time>2016-10-07T14:58:14Z</time></trkpt>
<trkpt lat="29.436085" lon="98.647755">
<time>2016-10-07T14:58:15Z</time></trkpt>
<trkpt lat="29.436196" lon="98.647536">
<time>2016-10-07T14:58:16Z</time></trkpt>
<trkpt lat="29.436286" lon="98.647336">
<time>2016-10-07T14:58:17Z</time></trkpt>
<trkpt lat="29.436316" lon="98.647257">
<time>2016-10-07T14:58:18Z</time></trkpt>
<trkpt lat="29.436356" lon="98.647137">
<time>2016-10-07T14:58:19Z</time></trkpt>
<trkpt lat="29.436387" lon="98.647017">
<time>2016-10-07T14:58:20Z</time></trkpt>
<trkpt lat="29.436407" lon="98.646888">
<time>2016-10-07T14:58:21Z</time></trkpt>
<trkpt lat="29.436437" lon="98.646728">
<time>2016-10-07T14:58:22Z</time></trkpt>
<trkpt lat="29.436447" lon="98.646628">
<time>2016-10-07T14:58:23Z</time></trkpt>
<trkpt lat="29.436467" lon="98.646449">
<time>2016-10-07T14:58:24Z</time></trkpt>
<trkpt lat="29.436488" lon="98.646359">
<time>2016-10-07T14:58:25Z</time></trkpt>
<trkpt lat="29.436498" lon="98.646269">
<time>2016-10-07T14:58:26Z</time></trkpt>
<trkpt lat="29.436518" lon="98.646189">
<time>2016-10-07T14:58:27Z</time></trkpt>
<trkpt lat="29.436548" lon="98.6461">
<time>2016-10-07T14:58:28Z</time></trkpt>
<trkpt lat="29.436598" lon="98.64595">
<time>2016-10-07T14:58:29Z</time></trkpt>
<trkpt lat="29.436688" lon="98.64576">
<time>2016-10-07T14:58:30Z</time></trkpt>
<trkpt lat="29.436789" lon="98.645621">
<time>2016-10-07T14:58:31Z</time></trkpt>
<trkpt lat="29.436949" lon="98.645411">
<time>2016-10-07T14:58:32Z</time></trkpt>
<trkpt lat="29.437299" lon="98.645012">
<time>2016-10-07T14:58:33Z</time></trkpt>
<trkpt lat="29.43742" lon="98.644863">
<time>2016-10-07T14:58:34Z</time></trkpt>
<trkpt lat="29.43747" lon="98.644793">
<time>2016-10-07T14:58:35Z</time></trkpt>
<trkpt lat="29.43755" lon="98.644663">
<time>2016-10-07T14:58:36Z</time></trkpt>
<trkpt lat="29.4376" lon="98.644553">
<time>2016-10-07T14:58:37Z</time></trkpt>
<trkpt lat="29.43768" lon="98.644394">
<time>2016-10-07T14:58:38Z</time></trkpt>
<trkpt lat="29.437811" lon="98.644025">
<time>2016-10-07T14:58:39Z</time></trkpt>
<trkpt lat="29.437881" lon="98.643785">
<time>2016-10-07T14:58:40Z</time></trkpt>
<trkpt lat="29.437931" lon="98.643596">
<time>2016-10-07T14:58:41Z</time></trkpt>
<trkpt lat="29.438002" lon="98.643356">
<time>2016-10-07T14:58:42Z</time></trkpt>
<trkpt lat="29.438052" lon="98.643167">
<time>2016-10-07T14:58:43Z</time></trkpt>
<trkpt lat="29.438243" lon="98.642648">
<time>2016-10-07T14:58:44Z</time></trkpt>
<trkpt lat="29.438393" lon="98.642359">
<time>2016-10-07T14:58:45Z</time></trkpt>
<trkpt lat="29.438493" lon="98.642149">
<time>2016-10-07T14:58:46Z</time></trkpt>
<trkpt lat="29.438664" lon="98.6419">
<time>2016-10-07T14:58:47Z</time></trkpt>
<trkpt lat="29.438804" lon="98.64171">
<time>2016-10-07T14:58:48Z</time></trkpt>
<trkpt lat="29.438844" lon="98.64166">
<time>2016-10-07T14:58:49Z</time></trkpt>
<trkpt lat="29.439044" lon="98.641431">
<time>2016-10-07T14:58:50Z</time></trkpt>
<trkpt lat="29.439114" lon="98.641361">
<time>2016-10-07T14:58:51Z</time></trkpt>
<trkpt lat="29.439234" lon="98.641241">
<time>2016-10-07T14:58:52Z</time></trkpt>
<trkpt lat="29.439305" lon="98.641171">
<time>2016-10-07T14:58:53Z</time></trkpt>
<trkpt lat="29.439395" lon="98.641102">
<time>2016-10-07T14:58:54Z</time></trkpt>
<trkpt lat="29.439455" lon="98.641052">
<time>2016-10-07T14:58:55Z</time></trkpt>
<trkpt lat="29.439535" lon="98.640992">
<time>2016-10-07T14:58:56Z</time></trkpt>
<trkpt lat="29.439605" lon="98.640942">
<time>2016-10-07T14:58:57Z</time></trkpt>
<trkpt lat="29.439665" lon="98.640902">
<time>2016-10-07T14:58:58Z</time></trkpt>
<trkpt lat="29.439725" lon="98.640872">
<time>2016-10-07T14:58:59Z</time></trkpt>
<trkpt lat="29.439785" lon="98.640842">
<time>2016-10-07T14:59:00Z</time></trkpt>
<trkpt lat="29.439935" lon="98.640772">
<time>2016-10-07T14:59:01Z</time></trkpt>
<trkpt lat="29.440065" lon="98.640712">
<time>2016-10-07T14:59:02Z</time></trkpt>
<trkpt lat="29.440135" lon="98.640683">
<time>2016-10-07T14:59:03Z</time></trkpt>
<trkpt lat="29.440245" lon="98.640643">
<time>2016-10-07T14:59:04Z</time></trkpt>
<trkpt lat="29.440355" lon="98.640613">
<time>2016-10-07T14:59:05Z</time></trkpt>
<trkpt lat="29.440475" lon="98.640583">
<time>2016-10-07T14:59:06Z</time></trkpt>
<trkpt lat="29.440575" lon="98.640573">
<time>2016-10-07T14:59:07Z</time></trkpt>
<trkpt lat="29.440685" lon="98.640563">
<time>2016-10-07T14:59:08Z</time></trkpt>
<trkpt lat="29.440825" lon="98.640553">
<time>2016-10-07T14:59:09Z</time></trkpt>
<trkpt lat="29.440935" lon="98.640553">
<time>2016-10-07T14:59:10Z</time></trkpt>
<trkpt lat="29.441075" lon="98.640553">
<time>2016-10-07T14:59:11Z</time></trkpt>
<trkpt lat="29.441215" lon="98.640553">
<time>2016-10-07T14:59:12Z</time></trkpt>
<trkpt lat="29.441434" lon="98.640563">
<time>2016-10-07T14:59:13Z</time></trkpt>
<trkpt lat="29.441524" lon="98.640573">
<time>2016-10-07T14:59:14Z</time></trkpt>
<trkpt lat="29.441604" lon="98.640573">
<time>2016-10-07T14:59:15Z</time></trkpt>
<trkpt lat="29.441804" lon="98.640573">
<time>2016-10-07T14:59:16Z</time></trkpt>
<trkpt lat="29.441864" lon="98.640573">
<time>2016-10-07T14:59:17Z</time></trkpt>
<trkpt lat="29.442064" lon="98.640583">
<time>2016-10-07T14:59:18Z</time></trkpt>
<trkpt lat="29.442194" lon="98.640583">
<time>2016-10-07T14:59:19Z</time></trkpt>
<trkpt lat="29.442334" lon="98.640593">
<time>2016-10-07T14:59:20Z</time></trkpt>
<trkpt lat="29.442604" lon="98.640593">
<time>2016-10-07T14:59:21Z</time></trkpt>
<trkpt lat="29.442794" lon="98.640593">
<time>2016-10-07T14:59:22Z</time></trkpt>
<trkpt lat="29.442974" lon="98.640573">
<time>2016-10-07T14:59:23Z</time></trkpt>
<trkpt lat="29.443114" lon="98.640553">
<time>2016-10-07T14:59:24Z</time></trkpt>
<trkpt lat="29.443214" lon="98.640533">
<time>2016-10-07T14:59:25Z</time></trkpt>
<trkpt lat="29.443254" lon="98.640523">
<time>2016-10-07T14:59:26Z</time></trkpt>
<trkpt lat="29.443334" lon="98.640493">
<time>2016-10-07T14:59:27Z</time></trkpt>
<trkpt lat="29.443444" lon="98.640443">
<time>2016-10-07T14:59:28Z</time></trkpt>
<trkpt lat="29.443494" lon="98.640413">
<time>2016-10-07T14:59:29Z</time></trkpt>
<trkpt lat="29.443674" lon="98.640303">
<time>2016-10-07T14:59:30Z</time></trkpt>
<trkpt lat="29.443794" lon="98.640224">
<time>2016-10-07T14:59:31Z</time></trkpt>
<trkpt lat="29.444024" lon="98.640044">
<time>2016-10-07T14:59:32Z</time></trkpt>
<trkpt lat="29.444354" lon="98.639795">
<time>2016-10-07T14:59:33Z</time></trkpt>
<trkpt lat="29.444644" lon="98.639585">
<time>2016-10-07T14:59:34Z</time></trkpt>
<trkpt lat="29.444774" lon="98.639485">
<time>2016-10-07T14:59:35Z</time></trkpt>
<trkpt lat="29.444944" lon="98.639365">
<time>2016-10-07T14:59:36Z</time></trkpt>
<trkpt lat="29.445175" lon="98.639196">
<time>2016-10-07T14:59:37Z</time></trkpt>
<trkpt lat="29.445385" lon="98.639056">
<time>2016-10-07T14:59:38Z</time></trkpt>
<trkpt lat="29.445485" lon="98.639006">
<time>2016-10-07T14:59:39Z</time></trkpt>
<trkpt lat="29.445555" lon="98.638976">
<time>2016-10-07T14:59:40Z</time></trkpt>
<trkpt lat="29.445715" lon="98.638926">
<time>2016-10-07T14:59:41Z</time></trkpt>
<trkpt lat="29.445875" lon="98.638897">
<time>2016-10-07T14:59:42Z</time></trkpt>
<trkpt lat="29.446015" lon="98.638877">
<time>2016-10-07T14:59:43Z</time></trkpt>
<trkpt lat="29.446385" lon="98.638847">
<time>2016-10-07T14:59:44Z</time></trkpt>
<trkpt lat="29.446704" lon="98.638827">
<time>2016-10-07T14:59:45Z</time></trkpt>
<trkpt lat="29.446964" lon="98.638807">
<time>2016-10-07T14:59:46Z</time></trkpt>
<trkpt lat="29.447214" lon="98.638787">
<time>2016-10-07T14:59:47Z</time></trkpt>
<trkpt lat="29.447364" lon="98.638777">
<time>2016-10-07T14:59:48Z</time></trkpt>
<trkpt lat="29.447584" lon="98.638757">
<time>2016-10-07T14:59:49Z</time></trkpt>
<trkpt lat="29.447744" lon="98.638747">
<time>2016-10-07T14:59:50Z</time></trkpt>
<trkpt lat="29.447964" lon="98.638727">
<time>2016-10-07T14:59:51Z</time></trkpt>
<trkpt lat="29.448144" lon="98.638717">
<time>2016-10-07T14:59:52Z</time></trkpt>
<trkpt lat="29.448294" lon="98.638707">
<time>2016-10-07T14:59:53Z</time></trkpt>
<trkpt lat="29.448374" lon="98.638697">
<time>2016-10-07T14:59:54Z</time></trkpt>
<trkpt lat="29.448634" lon="98.638687">
<time>2016-10-07T14:59:55Z</time></trkpt>
<trkpt lat="29.448734" lon="98.638677">
<time>2016-10-07T14:59:56Z</time></trkpt>
<trkpt lat="29.448834" lon="98.638667">
<time>2016-10-07T14:59:57Z</time></trkpt>
<trkpt lat="29.449024" lon="98.638657">
<time>2016-10-07T14:59:58Z</time></trkpt>
<trkpt lat="29.449183" lon="98.638647">
<time>2016-10-07T14:59:59Z</time></trkpt>
<trkpt lat="29.449413" lon="98.638637">
<time>2016-10-07T15:00:00Z</time></trkpt>
<trkpt lat="29.449563" lon="98.638637">
<time>2016-10-07T15:00:01Z</time></trkpt>
<trkpt lat="29.449703" lon="98.638647">
<time>2016-10-07T15:00:02Z</time></trkpt>
<trkpt lat="29.449883" lon="98.638697">
<time>2016-10-07T15:00:03Z</time></trkpt>
<trkpt lat="29.450073" lon="98.638757">
<time>2016-10-07T15:00:04Z</time></trkpt>
<trkpt lat="29.450253" lon="98.638847">
<time>2016-10-07T15:00:05Z</time></trkpt>
<trkpt lat="29.450412" lon="98.638946">
<time>2016-10-07T15:00:06Z</time></trkpt>
<trkpt lat="29.450582" lon="98.639046">
<time>2016-10-07T15:00:07Z</time></trkpt>
<trkpt lat="29.450752" lon="98.639166">
<time>2016-10-07T15:00:08Z</time></trkpt>
<trkpt lat="29.450932" lon="98.639296">
<time>2016-10-07T15:00:09Z</time></trkpt>
<trkpt lat="29.451051" lon="98.639375">
<time>2016-10-07T15:00:10Z</time></trkpt>
<trkpt lat="29.451301" lon="98.639545">
<time>2016-10-07T15:00:11Z</time></trkpt>
<trkpt lat="29.451681" lon="98.639814">
<time>2016-10-07T15:00:12Z</time></trkpt>
<trkpt lat="29.45186" lon="98.639944">
<time>2016-10-07T15:00:13Z</time></trkpt>
<trkpt lat="29.45196" lon="98.640014">
<time>2016-10-07T15:00:14Z</time></trkpt>
<trkpt lat="29.45206" lon="98.640074">
<time>2016-10-07T15:00:15Z</time></trkpt>
<trkpt lat="29.45224" lon="98.640183">
<time>2016-10-07T15:00:16Z</time></trkpt>
<trkpt lat="29.45235" lon="98.640233">
<time>2016-10-07T15:00:17Z</time></trkpt>
<trkpt lat="29.452469" lon="98.640283">
<time>2016-10-07T15:00:18Z</time></trkpt>
<trkpt lat="29.452629" lon="98.640343">
<time>2016-10-07T15:00:19Z</time></trkpt>
<trkpt lat="29.452939" lon="98.640413">
<time>2016-10-07T15:00:20Z</time></trkpt>
<trkpt lat="29.453139" lon="98.640453">
<time>2016-10-07T15:00:21Z</time></trkpt>
<trkpt lat="29.453459" lon="98.640523">
<time>2016-10-07T15:00:22Z</time></trkpt>
<trkpt lat="29.453748" lon="98.640563">
<time>2016-10-07T15:00:23Z</time></trkpt>
<trkpt lat="29.454128" lon="98.640632">
<time>2016-10-07T15:00:24Z</time></trkpt>
<trkpt lat="29.454398" lon="98.640672">
<time>2016-10-07T15:00:25Z</time></trkpt>
<trkpt lat="29.454558" lon="98.640702">
<time>2016-10-07T15:00:26Z</time></trkpt>
<trkpt lat="29.454788" lon="98.640742">
<time>2016-10-07T15:00:27Z</time></trkpt>
<trkpt lat="29.454978" lon="98.640742">
<time>2016-10-07T15:00:28Z</time></trkpt>
<trkpt lat="29.455097" lon="98.640742">
<time>2016-10-07T15:00:29Z</time></trkpt>
<trkpt lat="29.455177" lon="98.640732">
<time>2016-10-07T15:00:30Z</time></trkpt>
<trkpt lat="29.455287" lon="98.640712">
<time>2016-10-07T15:00:31Z</time></trkpt>
<trkpt lat="29.455357" lon="98.640692">
<time>2016-10-07T15:00:32Z</time></trkpt>
<trkpt lat="29.455547" lon="98.640602">
<time>2016-10-07T15:00:33Z</time></trkpt>
<trkpt lat="29.455697" lon="98.640523">
<time>2016-10-07T15:00:34Z</time></trkpt>
<trkpt lat="29.455798" lon="98.640463">
<time>2016-10-07T15:00:35Z</time></trkpt>
<trkpt lat="29.456088" lon="98.640243">
<time>2016-10-07T15:00:36Z</time></trkpt>
<trkpt lat="29.456448" lon="98.639984">
<time>2016-10-07T15:00:37Z</time></trkpt>
<trkpt lat="29.456768" lon="98.639754">
<time>2016-10-07T15:00:38Z</time></trkpt>
<trkpt lat="29.456868" lon="98.639675">
<time>2016-10-07T15:00:39Z</time></trkpt>
<trkpt lat="29.457028" lon="98.639585">
<time>2016-10-07T15:00:40Z</time></trkpt>
<trkpt lat="29.457128" lon="98.639525">
<time>2016-10-07T15:00:41Z</time></trkpt>
<trkpt lat="29.457288" lon="98.639465">
<time>2016-10-07T15:00:42Z</time></trkpt>
<trkpt lat="29.457388" lon="98.639445">
<time>2016-10-07T15:00:43Z</time></trkpt>
<trkpt lat="29.457518" lon="98.639435">
<time>2016-10-07T15:00:44Z</time></trkpt>
<trkpt lat="29.457598" lon="98.639425">
<time>2016-10-07T15:00:45Z</time></trkpt>
<trkpt lat="29.457648" lon="98.639425">
<time>2016-10-07T15:00:46Z</time></trkpt>
<trkpt lat="29.457708" lon="98.639425">
<time>2016-10-07T15:00:47Z</time></trkpt>
<trkpt lat="29.457868" lon="98.639445">
<time>2016-10-07T15:00:48Z</time></trkpt>
<trkpt lat="29.458018" lon="98.639485">
<time>2016-10-07T15:00:49Z</time></trkpt>
<trkpt lat="29.458168" lon="98.639515">
<time>2016-10-07T15:00:50Z</time></trkpt>
<trkpt lat="29.458388" lon="98.639575">
<time>2016-10-07T15:00:51Z</time></trkpt>
<trkpt lat="29.458647" lon="98.639635">
<time>2016-10-07T15:00:52Z</time></trkpt>
<trkpt lat="29.458807" lon="98.639675">
<time>2016-10-07T15:00:53Z</time></trkpt>
<trkpt lat="29.459227" lon="98.639784">
<time>2016-10-07T15:00:54Z</time></trkpt>
<trkpt lat="29.459607" lon="98.639874">
<time>2016-10-07T15:00:55Z</time></trkpt>
<trkpt lat="29.459916" lon="98.639954">
<time>2016-10-07T15:00:56Z</time></trkpt>
<trkpt lat="29.460176" lon="98.640024">
<time>2016-10-07T15:00:57Z</time></trkpt>
<trkpt lat="29.460296" lon="98.640054">
<time>2016-10-07T15:00:58Z</time></trkpt>
<trkpt lat="29.460596" lon="98.640123">
<time>2016-10-07T15:00:59Z</time></trkpt>
<trkpt lat="29.460776" lon="98.640173">
<time>2016-10-07T15:01:00Z</time></trkpt>
<trkpt lat="29.460925" lon="98.640223">
<time>2016-10-07T15:01:01Z</time></trkpt>
<trkpt lat="29.461205" lon="98.640323">
<time>2016-10-07T15:01:02Z</time></trkpt>
<trkpt lat="29.461375" lon="98.640393">
<time>2016-10-07T15:01:03Z</time></trkpt>
<trkpt lat="29.461495" lon="98.640453">
<time>2016-10-07T15:01:04Z</time></trkpt>
<trkpt lat="29.461585" lon="98.640513">
<time>2016-10-07T15:01:05Z</time></trkpt>
<trkpt lat="29.461695" lon="98.640572">
<time>2016-10-07T15:01:06Z</time></trkpt>
<trkpt lat="29.461854" lon="98.640672">
<time>2016-10-07T15:01:07Z</time></trkpt>
<trkpt lat="29.461974" lon="98.640752">
<time>2016-10-07T15:01:08Z</time></trkpt>
<trkpt lat="29.462094" lon="98.640832">
<time>2016-10-07T15:01:09Z</time></trkpt>
<trkpt lat="29.462394" lon="98.641021">
<time>2016-10-07T15:01:10Z</time></trkpt>
<trkpt lat="29.462563" lon="98.641131">
<time>2016-10-07T15:01:11Z</time></trkpt>
<trkpt lat="29.462683" lon="98.641211">
<time>2016-10-07T15:01:12Z</time></trkpt>
<trkpt lat="29.462833" lon="98.641311">
<time>2016-10-07T15:01:13Z</time></trkpt>
<trkpt lat="29.463102" lon="98.64149">
<time>2016-10-07T15:01:14Z</time></trkpt>
<trkpt lat="29.463262" lon="98.64158">
<time>2016-10-07T15:01:15Z</time></trkpt>
<trkpt lat="29.463432" lon="98.64169">
<time>2016-10-07T15:01:16Z</time></trkpt>
<trkpt lat="29.463622" lon="98.64178">
<time>2016-10-07T15:01:17Z</time></trkpt>
<trkpt lat="29.463742" lon="98.641829">
<time>2016-10-07T15:01:18Z</time></trkpt>
<trkpt lat="29.463842" lon="98.641869">
<time>2016-10-07T15:01:19Z</time></trkpt>
<trkpt lat="29.464001" lon="98.641919">
<time>2016-10-07T15:01:20Z</time></trkpt>
<trkpt lat="29.464271" lon="98.641989">
<time>2016-10-07T15:01:21Z</time></trkpt>
<trkpt lat="29.464561" lon="98.642059">
<time>2016-10-07T15:01:22Z</time></trkpt>
<trkpt lat="29.464781" lon="98.642099">
<time>2016-10-07T15:01:23Z</time></trkpt>
<trkpt lat="29.465031" lon="98.642139">
<time>2016-10-07T15:01:24Z</time></trkpt>
<trkpt lat="29.46515" lon="98.642169">
<time>2016-10-07T15:01:25Z</time></trkpt>
<trkpt lat="29.46537" lon="98.642218">
<time>2016-10-07T15:01:26Z</time></trkpt>
<trkpt lat="29.46547" lon="98.642238">
<time>2016-10-07T15:01:27Z</time></trkpt>
<trkpt lat="29.4656" lon="98.642278">
<time>2016-10-07T15:01:28Z</time></trkpt>
<trkpt lat="29.46575" lon="98.642338">
<time>2016-10-07T15:01:29Z</time></trkpt>
<trkpt lat="29.46588" lon="98.642408">
<time>2016-10-07T15:01:30Z</time></trkpt>
<trkpt lat="29.46598" lon="98.642478">
<time>2016-10-07T15:01:31Z</time></trkpt>
<trkpt lat="29.466069" lon="98.642548">
<time>2016-10-07T15:01:32Z</time></trkpt>
<trkpt lat="29.466199" lon="98.642677">
<time>2016-10-07T15:01:33Z</time></trkpt>
<trkpt lat="29.466299" lon="98.642817">
<time>2016-10-07T15:01:34Z</time></trkpt>
<trkpt lat="29.466379" lon="98.642947">
<time>2016-10-07T15:01:35Z</time></trkpt>
<trkpt lat="29.466458" lon="98.643056">
<time>2016-10-07T15:01:36Z</time></trkpt>
<trkpt lat="29.466678" lon="98.643416">
<time>2016-10-07T15:01:37Z</time></trkpt>
<trkpt lat="29.466987" lon="98.643904">
<time>2016-10-07T15:01:38Z</time></trkpt>
<trkpt lat="29.467146" lon="98.644144">
<time>2016-10-07T15:01:39Z</time></trkpt>
<trkpt lat="29.467386" lon="98.644483">
<time>2016-10-07T15:01:40Z</time></trkpt>
<trkpt lat="29.467475" lon="98.644573">
<time>2016-10-07T15:01:41Z</time></trkpt>
<trkpt lat="29.467585" lon="98.644672">
<time>2016-10-07T15:01:42Z</time></trkpt>
<trkpt lat="29.467715" lon="98.644752">
<time>2016-10-07T15:01:43Z</time></trkpt>
<trkpt lat="29.467845" lon="98.644822">
<time>2016-10-07T15:01:44Z</time></trkpt>
<trkpt lat="29.467935" lon="98.644862">
<time>2016-10-07T15:01:45Z</time></trkpt>
<trkpt lat="29.468015" lon="98.644882">
<time>2016-10-07T15:01:46Z</time></trkpt>
<trkpt lat="29.468125" lon="98.644912">
<time>2016-10-07T15:01:47Z</time></trkpt>
<trkpt lat="29.468255" lon="98.644922">
<time>2016-10-07T15:01:48Z</time></trkpt>
<trkpt lat="29.468394" lon="98.644922">
<time>2016-10-07T15:01:49Z</time></trkpt>
<trkpt lat="29.468724" lon="98.644882">
<time>2016-10-07T15:01:50Z</time></trkpt>
<trkpt lat="29.469084" lon="98.644812">
<time>2016-10-07T15:01:51Z</time></trkpt>
<trkpt lat="29.469314" lon="98.644762">
<time>2016-10-07T15:01:52Z</time></trkpt>
<trkpt lat="29.469534" lon="98.644682">
<time>2016-10-07T15:01:53Z</time></trkpt>
<trkpt lat="29.469674" lon="98.644613">
<time>2016-10-07T15:01:54Z</time></trkpt>
<trkpt lat="29.469874" lon="98.644503">
<time>2016-10-07T15:01:55Z</time></trkpt>
<trkpt lat="29.469965" lon="98.644433">
<time>2016-10-07T15:01:56Z</time></trkpt>
<trkpt lat="29.470025" lon="98.644373">
<time>2016-10-07T15:01:57Z</time></trkpt>
<trkpt lat="29.470165" lon="98.644224">
<time>2016-10-07T15:01:58Z</time></trkpt>
<trkpt lat="29.470235" lon="98.644144">
<time>2016-10-07T15:01:59Z</time></trkpt>
<trkpt lat="29.470365" lon="98.643964">
<time>2016-10-07T15:02:00Z</time></trkpt>
<trkpt lat="29.470445" lon="98.643844">
<time>2016-10-07T15:02:01Z</time></trkpt>
<trkpt lat="29.470546" lon="98.643655">
<time>2016-10-07T15:02:02Z</time></trkpt>
<trkpt lat="29.470596" lon="98.643525">
<time>2016-10-07T15:02:03Z</time></trkpt>
<trkpt lat="29.470666" lon="98.643356">
<time>2016-10-07T15:02:04Z</time></trkpt>
<trkpt lat="29.470716" lon="98.643236">
<time>2016-10-07T15:02:05Z</time></trkpt>
<trkpt lat="29.470776" lon="98.643076">
<time>2016-10-07T15:02:06Z</time></trkpt>
<trkpt lat="29.470807" lon="98.642987">
<time>2016-10-07T15:02:07Z</time></trkpt>
<trkpt lat="29.470837" lon="98.642907">
<time>2016-10-07T15:02:08Z</time></trkpt>
<trkpt lat="29.470947" lon="98.642667">
<time>2016-10-07T15:02:09Z</time></trkpt>
<trkpt lat="29.470997" lon="98.642548">
<time>2016-10-07T15:02:10Z</time></trkpt>
<trkpt lat="29.471057" lon="98.642428">
<time>2016-10-07T15:02:11Z</time></trkpt>
<trkpt lat="29.471198" lon="98.642168">
<time>2016-10-07T15:02:12Z</time></trkpt>
<trkpt lat="29.471288" lon="98.642019">
<time>2016-10-07T15:02:13Z</time></trkpt>
<trkpt lat="29.471418" lon="98.641839">
<time>2016-10-07T15:02:14Z</time></trkpt>
<trkpt lat="29.471498" lon="98.64172">
<time>2016-10-07T15:02:15Z</time></trkpt>
<trkpt lat="29.471578" lon="98.64159">
<time>2016-10-07T15:02:16Z</time></trkpt>
<trkpt lat="29.471659" lon="98.64147">
<time>2016-10-07T15:02:17Z</time></trkpt>
<trkpt lat="29.471709" lon="98.64139">
<time>2016-10-07T15:02:18Z</time></trkpt>
<trkpt lat="29.471759" lon="98.641291">
<time>2016-10-07T15:02:19Z</time></trkpt>
<trkpt lat="29.471789" lon="98.641231">
<time>2016-10-07T15:02:20Z</time></trkpt>
<trkpt lat="29.471829" lon="98.641141">
<time>2016-10-07T15:02:21Z</time></trkpt>
<trkpt lat="29.471879" lon="98.641021">
<time>2016-10-07T15:02:22Z</time></trkpt>
<trkpt lat="29.471899" lon="98.640951">
<time>2016-10-07T15:02:23Z</time></trkpt>
<trkpt lat="29.471969" lon="98.640752">
<time>2016-10-07T15:02:24Z</time></trkpt>
<trkpt lat="29.47203" lon="98.640562">
<time>2016-10-07T15:02:25Z</time></trkpt>
<trkpt lat="29.47207" lon="98.640403">
<time>2016-10-07T15:02:26Z</time></trkpt>
<trkpt lat="29.47215" lon="98.640133">
<time>2016-10-07T15:02:27Z</time></trkpt>
<trkpt lat="29.472191" lon="98.639984">
<time>2016-10-07T15:02:28Z</time></trkpt>
<trkpt lat="29.472271" lon="98.639784">
<time>2016-10-07T15:02:29Z</time></trkpt>
<trkpt lat="29.472311" lon="98.639684">
<time>2016-10-07T15:02:30Z</time></trkpt>
<trkpt lat="29.472381" lon="98.639555">
<time>2016-10-07T15:02:31Z</time></trkpt>
<trkpt lat="29.472481" lon="98.639315">
<time>2016-10-07T15:02:32Z</time></trkpt>
<trkpt lat="29.472582" lon="98.639086">
<time>2016-10-07T15:02:33Z</time></trkpt>
<trkpt lat="29.472702" lon="98.638836">
<time>2016-10-07T15:02:34Z</time></trkpt>
<trkpt lat="29.472822" lon="98.638567">
<time>2016-10-07T15:02:35Z</time></trkpt>
<trkpt lat="29.473003" lon="98.638158">
<time>2016-10-07T15:02:36Z</time></trkpt>
<trkpt lat="29.473163" lon="98.637799">
<time>2016-10-07T15:02:37Z</time></trkpt>
<trkpt lat="29.473414" lon="98.63724">
<time>2016-10-07T15:02:38Z</time></trkpt>
<trkpt lat="29.473575" lon="98.636891">
<time>2016-10-07T15:02:39Z</time></trkpt>
<trkpt lat="29.473675" lon="98.636711">
<time>2016-10-07T15:02:40Z</time></trkpt>
<trkpt lat="29.473775" lon="98.636541">
<time>2016-10-07T15:02:41Z</time></trkpt>
<trkpt lat="29.473895" lon="98.636382">
<time>2016-10-07T15:02:42Z</time></trkpt>
<trkpt lat="29.473995" lon="98.636262">
<time>2016-10-07T15:02:43Z</time></trkpt>
<trkpt lat="29.474085" lon="98.636172">
<time>2016-10-07T15:02:44Z</time></trkpt>
<trkpt lat="29.474175" lon="98.636082">
<time>2016-10-07T15:02:45Z</time></trkpt>
<trkpt lat="29.474306" lon="98.635983">
<time>2016-10-07T15:02:46Z</time></trkpt>
<trkpt lat="29.474456" lon="98.635883">
<time>2016-10-07T15:02:47Z</time></trkpt>
<trkpt lat="29.474576" lon="98.635813">
<time>2016-10-07T15:02:48Z</time></trkpt>
<trkpt lat="29.474726" lon="98.635733">
<time>2016-10-07T15:02:49Z</time></trkpt>
<trkpt lat="29.474896" lon="98.635653">
<time>2016-10-07T15:02:50Z</time></trkpt>
<trkpt lat="29.475066" lon="98.635573">
<time>2016-10-07T15:02:51Z</time></trkpt>
<trkpt lat="29.475156" lon="98.635524">
<time>2016-10-07T15:02:52Z</time></trkpt>
<trkpt lat="29.475346" lon="98.635444">
<time>2016-10-07T15:02:53Z</time></trkpt>
<trkpt lat="29.475476" lon="98.635394">
<time>2016-10-07T15:02:54Z</time></trkpt>
<trkpt lat="29.475676" lon="98.635304">
<time>2016-10-07T15:02:55Z</time></trkpt>
<trkpt lat="29.475976" lon="98.635164">
<time>2016-10-07T15:02:56Z</time></trkpt>
<trkpt lat="29.476286" lon="98.635015">
<time>2016-10-07T15:02:57Z</time></trkpt>
<trkpt lat="29.476386" lon="98.634955">
<time>2016-10-07T15:02:58Z</time></trkpt>
<trkpt lat="29.476686" lon="98.634795">
<time>2016-10-07T15:02:59Z</time></trkpt>
<trkpt lat="29.477066" lon="98.634556">
<time>2016-10-07T15:03:00Z</time></trkpt>
<trkpt lat="29.477276" lon="98.634416">
<time>2016-10-07T15:03:01Z</time></trkpt>
<trkpt lat="29.477406" lon="98.634316">
<time>2016-10-07T15:03:02Z</time></trkpt>
<trkpt lat="29.477456" lon="98.634276">
<time>2016-10-07T15:03:03Z</time></trkpt>
<trkpt lat="29.477687" lon="98.634087">
<time>2016-10-07T15:03:04Z</time></trkpt>
<trkpt lat="29.477807" lon="98.633987">
<time>2016-10-07T15:03:05Z</time></trkpt>
<trkpt lat="29.478277" lon="98.633608">
<time>2016-10-07T15:03:06Z</time></trkpt>
<trkpt lat="29.478657" lon="98.633308">
<time>2016-10-07T15:03:07Z</time></trkpt>
<trkpt lat="29.478867" lon="98.633159">
<time>2016-10-07T15:03:08Z</time></trkpt>
<trkpt lat="29.479268" lon="98.632899">
<time>2016-10-07T15:03:09Z</time></trkpt>
<trkpt lat="29.479698" lon="98.63264">
<time>2016-10-07T15:03:10Z</time></trkpt>
<trkpt lat="29.480068" lon="98.63244">
<time>2016-10-07T15:03:11Z</time></trkpt>
<trkpt lat="29.480408" lon="98.63227">
<time>2016-10-07T15:03:12Z</time></trkpt>
<trkpt lat="29.480788" lon="98.632101">
<time>2016-10-07T15:03:13Z</time></trkpt>
<trkpt lat="29.481048" lon="98.631981">
<time>2016-10-07T15:03:14Z</time></trkpt>
<trkpt lat="29.481368" lon="98.631831">
<time>2016-10-07T15:03:15Z</time></trkpt>
<trkpt lat="29.481538" lon="98.631761">
<time>2016-10-07T15:03:16Z</time></trkpt>
<trkpt lat="29.481608" lon="98.631732">
<time>2016-10-07T15:03:17Z</time></trkpt>
<trkpt lat="29.481928" lon="98.631582">
<time>2016-10-07T15:03:18Z</time></trkpt>
<trkpt lat="29.482348" lon="98.631392">
<time>2016-10-07T15:03:19Z</time></trkpt>
<trkpt lat="29.482618" lon="98.631272">
<time>2016-10-07T15:03:20Z</time></trkpt>
<trkpt lat="29.483058" lon="98.631083">
<time>2016-10-07T15:03:21Z</time></trkpt>
<trkpt lat="29.483438" lon="98.630893">
<time>2016-10-07T15:03:22Z</time></trkpt>
<trkpt lat="29.483678" lon="98.630793">
<time>2016-10-07T15:03:23Z</time></trkpt>
<trkpt lat="29.483818" lon="98.630734">
<time>2016-10-07T15:03:24Z</time></trkpt>
<trkpt lat="29.484198" lon="98.630564">
<time>2016-10-07T15:03:25Z</time></trkpt>
<trkpt lat="29.484658" lon="98.630354">
<time>2016-10-07T15:03:26Z</time></trkpt>
<trkpt lat="29.485118" lon="98.630135">
<time>2016-10-07T15:03:27Z</time></trkpt>
<trkpt lat="29.485299" lon="98.630055">
<time>2016-10-07T15:03:28Z</time></trkpt>
<trkpt lat="29.485809" lon="98.629835">
<time>2016-10-07T15:03:29Z</time></trkpt>
<trkpt lat="29.486099" lon="98.629706">
<time>2016-10-07T15:03:30Z</time></trkpt>
<trkpt lat="29.486409" lon="98.629566">
<time>2016-10-07T15:03:31Z</time></trkpt>
<trkpt lat="29.486609" lon="98.629476">
<time>2016-10-07T15:03:32Z</time></trkpt>
<trkpt lat="29.486849" lon="98.629356">
<time>2016-10-07T15:03:33Z</time></trkpt>
<trkpt lat="29.487159" lon="98.629197">
<time>2016-10-07T15:03:34Z</time></trkpt>
<trkpt lat="29.487349" lon="98.629077">
<time>2016-10-07T15:03:35Z</time></trkpt>
<trkpt lat="29.487499" lon="98.628987">
<time>2016-10-07T15:03:36Z</time></trkpt>
<trkpt lat="29.487659" lon="98.628867">
<time>2016-10-07T15:03:37Z</time></trkpt>
<trkpt lat="29.487809" lon="98.628757">
<time>2016-10-07T15:03:38Z</time></trkpt>
<trkpt lat="29.488049" lon="98.628548">
<time>2016-10-07T15:03:39Z</time></trkpt>
<trkpt lat="29.488249" lon="98.628378">
<time>2016-10-07T15:03:40Z</time></trkpt>
<trkpt lat="29.488339" lon="98.628308">
<time>2016-10-07T15:03:41Z</time></trkpt>
<trkpt lat="29.48876" lon="98.627949">
<time>2016-10-07T15:03:42Z</time></trkpt>
<trkpt lat="29.48895" lon="98.627799">
<time>2016-10-07T15:03:43Z</time></trkpt>
<trkpt lat="29.4891" lon="98.627679">
<time>2016-10-07T15:03:44Z</time></trkpt>
<trkpt lat="29.48925" lon="98.62757">
<time>2016-10-07T15:03:45Z</time></trkpt>
<trkpt lat="29.48937" lon="98.62748">
<time>2016-10-07T15:03:46Z</time></trkpt>
<trkpt lat="29.4895" lon="98.6274">
<time>2016-10-07T15:03:47Z</time></trkpt>
<trkpt lat="29.48966" lon="98.62729">
<time>2016-10-07T15:03:48Z</time></trkpt>
<trkpt lat="29.48986" lon="98.62718">
<time>2016-10-07T15:03:49Z</time></trkpt>
<trkpt lat="29.49002" lon="98.627091">
<time>2016-10-07T15:03:50Z</time></trkpt>
<trkpt lat="29.4902" lon="98.626981">
<time>2016-10-07T15:03:51Z</time></trkpt>
<trkpt lat="29.49044" lon="98.626841">
<time>2016-10-07T15:03:52Z</time></trkpt>
<trkpt lat="29.49103" lon="98.626492">
<time>2016-10-07T15:03:53Z</time></trkpt>
<trkpt lat="29.49133" lon="98.626322">
<time>2016-10-07T15:03:54Z</time></trkpt>
<trkpt lat="29.4915" lon="98.626212">
<time>2016-10-07T15:03:55Z</time></trkpt>
<trkpt lat="29.49166" lon="98.626112">
<time>2016-10-07T15:03:56Z</time></trkpt>
<trkpt lat="29.49197" lon="98.625923">
<time>2016-10-07T15:03:57Z</time></trkpt>
<trkpt lat="29.492231" lon="98.625723">
<time>2016-10-07T15:03:58Z</time></trkpt>
<trkpt lat="29.492441" lon="98.625523">
<time>2016-10-07T15:03:59Z</time></trkpt>
<trkpt lat="29.492621" lon="98.625324">
<time>2016-10-07T15:04:00Z</time></trkpt>
<trkpt lat="29.492741" lon="98.625194">
<time>2016-10-07T15:04:01Z</time></trkpt>
<trkpt lat="29.492851" lon="98.625064">
<time>2016-10-07T15:04:02Z</time></trkpt>
<trkpt lat="29.492871" lon="98.625044">
<time>2016-10-07T15:04:03Z</time></trkpt>
<trkpt lat="29.492901" lon="98.625014">
<time>2016-10-07T15:04:04Z</time></trkpt>
<trkpt lat="29.492951" lon="98.624954">
<time>2016-10-07T15:04:05Z</time></trkpt>
<trkpt lat="29.492981" lon="98.624924">
<time>2016-10-07T15:04:06Z</time></trkpt>
<trkpt lat="29.493151" lon="98.624725">
<time>2016-10-07T15:04:07Z</time></trkpt>
<trkpt lat="29.493261" lon="98.624595">
<time>2016-10-07T15:04:08Z</time></trkpt>
<trkpt lat="29.493442" lon="98.624375">
<time>2016-10-07T15:04:09Z</time></trkpt>
<trkpt lat="29.493482" lon="98.624336">
<time>2016-10-07T15:04:10Z</time></trkpt>
<trkpt lat="29.493612" lon="98.624176">
<time>2016-10-07T15:04:11Z</time></trkpt>
<trkpt lat="29.493702" lon="98.624046">
<time>2016-10-07T15:04:12Z</time></trkpt>
<trkpt lat="29.493772" lon="98.623956">
<time>2016-10-07T15:04:13Z</time></trkpt>
<trkpt lat="29.493802" lon="98.623906">
<time>2016-10-07T15:04:14Z</time></trkpt>
<trkpt lat="29.493862" lon="98.623816">
<time>2016-10-07T15:04:15Z</time></trkpt>
<trkpt lat="29.493922" lon="98.623727">
<time>2016-10-07T15:04:16Z</time></trkpt>
<trkpt lat="29.493962" lon="98.623667">
<time>2016-10-07T15:04:17Z</time></trkpt>
<trkpt lat="29.494062" lon="98.623497">
<time>2016-10-07T15:04:18Z</time></trkpt>
<trkpt lat="29.494252" lon="98.623207">
<time>2016-10-07T15:04:19Z</time></trkpt>
<trkpt lat="29.494463" lon="98.622868">
<time>2016-10-07T15:04:20Z</time></trkpt>
<trkpt lat="29.494533" lon="98.622728">
<time>2016-10-07T15:04:21Z</time></trkpt>
<trkpt lat="29.494603" lon="98.622618">
<time>2016-10-07T15:04:22Z</time></trkpt>
<trkpt lat="29.494783" lon="98.622279">
<time>2016-10-07T15:04:23Z</time></trkpt>
<trkpt lat="29.494853" lon="98.622169">
<time>2016-10-07T15:04:24Z</time></trkpt>
<trkpt lat="29.495033" lon="98.62192">
<time>2016-10-07T15:04:25Z</time></trkpt>
<trkpt lat="29.495274" lon="98.62155">
<time>2016-10-07T15:04:26Z</time></trkpt>
<trkpt lat="29.495364" lon="98.62143">
<time>2016-10-07T15:04:27Z</time></trkpt>
<trkpt lat="29.495444" lon="98.621341">
<time>2016-10-07T15:04:28Z</time></trkpt>
<trkpt lat="29.495484" lon="98.621291">
<time>2016-10-07T15:04:29Z</time></trkpt>
<trkpt lat="29.495564" lon="98.621201">
<time>2016-10-07T15:04:30Z</time></trkpt>
<trkpt lat="29.495674" lon="98.621091">
<time>2016-10-07T15:04:31Z</time></trkpt>
<trkpt lat="29.495794" lon="98.620991">
<time>2016-10-07T15:04:32Z</time></trkpt>
<trkpt lat="29.495864" lon="98.620941">
<time>2016-10-07T15:04:33Z</time></trkpt>
<trkpt lat="29.495944" lon="98.620871">
<time>2016-10-07T15:04:34Z</time></trkpt>
<trkpt lat="29.496024" lon="98.620831">
<time>2016-10-07T15:04:35Z</time></trkpt>
<trkpt lat="29.496134" lon="98.620752">
<time>2016-10-07T15:04:36Z</time></trkpt>
<trkpt lat="29.496204" lon="98.620712">
<time>2016-10-07T15:04:37Z</time></trkpt>
<trkpt lat="29.496274" lon="98.620672">
<time>2016-10-07T15:04:38Z</time></trkpt>
<trkpt lat="29.496324" lon="98.620652">
<time>2016-10-07T15:04:39Z</time></trkpt>
<trkpt lat="29.496464" lon="98.620592">
<time>2016-10-07T15:04:40Z</time></trkpt>
<trkpt lat="29.496554" lon="98.620562">
<time>2016-10-07T15:04:41Z</time></trkpt>
<trkpt lat="29.496674" lon="98.620522">
<time>2016-10-07T15:04:42Z</time></trkpt>
<trkpt lat="29.497054" lon="98.620432">
<time>2016-10-07T15:04:43Z</time></trkpt>
<trkpt lat="29.497404" lon="98.620342">
<time>2016-10-07T15:04:44Z</time></trkpt>
<trkpt lat="29.497624" lon="98.620302">
<time>2016-10-07T15:04:45Z</time></trkpt>
<trkpt lat="29.497804" lon="98.620262">
<time>2016-10-07T15:04:46Z</time></trkpt>
<trkpt lat="29.498084" lon="98.620202">
<time>2016-10-07T15:04:47Z</time></trkpt>
<trkpt lat="29.498354" lon="98.620152">
<time>2016-10-07T15:04:48Z</time></trkpt>
<trkpt lat="29.498484" lon="98.620113">
<time>2016-10-07T15:04:49Z</time></trkpt>
<trkpt lat="29.498664" lon="98.620073">
<time>2016-10-07T15:04:50Z</time></trkpt>
<trkpt lat="29.498774" lon="98.620053">
<time>2016-10-07T15:04:51Z</time></trkpt>
<trkpt lat="29.498994" lon="98.620003">
<time>2016-10-07T15:04:52Z</time></trkpt>
<trkpt lat="29.499233" lon="98.619933">
<time>2016-10-07T15:04:53Z</time></trkpt>
<trkpt lat="29.499393" lon="98.619883">
<time>2016-10-07T15:04:54Z</time></trkpt>
<trkpt lat="29.499513" lon="98.619833">
<time>2016-10-07T15:04:55Z</time></trkpt>
<trkpt lat="29.499633" lon="98.619773">
<time>2016-10-07T15:04:56Z</time></trkpt>
<trkpt lat="29.500033" lon="98.619613">
<time>2016-10-07T15:04:57Z</time></trkpt>
<trkpt lat="29.500083" lon="98.619583">
<time>2016-10-07T15:04:58Z</time></trkpt>
<trkpt lat="29.500213" lon="98.619503">
<time>2016-10-07T15:04:59Z</time></trkpt>
<trkpt lat="29.500423" lon="98.619354">
<time>2016-10-07T15:05:00Z</time></trkpt>
<trkpt lat="29.500544" lon="98.619264">
<time>2016-10-07T15:05:01Z</time></trkpt>
<trkpt lat="29.500764" lon="98.619084">
<time>2016-10-07T15:05:02Z</time></trkpt>
<trkpt lat="29.501054" lon="98.618835">
<time>2016-10-07T15:05:03Z</time></trkpt>
<trkpt lat="29.501314" lon="98.618615">
<time>2016-10-07T15:05:04Z</time></trkpt>
<trkpt lat="29.501354" lon="98.618575">
<time>2016-10-07T15:05:05Z</time></trkpt>
<trkpt lat="29.502204" lon="98.617856">
<time>2016-10-07T15:05:06Z</time></trkpt>
<trkpt lat="29.502924" lon="98.617247">
<time>2016-10-07T15:05:07Z</time></trkpt>
<trkpt lat="29.503254" lon="98.617007">
<time>2016-10-07T15:05:08Z</time></trkpt>
<trkpt lat="29.503484" lon="98.616847">
<time>2016-10-07T15:05:09Z</time></trkpt>
<trkpt lat="29.503704" lon="98.616718">
<time>2016-10-07T15:05:10Z</time></trkpt>
<trkpt lat="29.504044" lon="98.616518">
<time>2016-10-07T15:05:11Z</time></trkpt>
<trkpt lat="29.504394" lon="98.616308">
<time>2016-10-07T15:05:12Z</time></trkpt>
<trkpt lat="29.504664" lon="98.616148">
<time>2016-10-07T15:05:13Z</time></trkpt>
<trkpt lat="29.504914" lon="98.615999">
<time>2016-10-07T15:05:14Z</time></trkpt>
<trkpt lat="29.505124" lon="98.615849">
<time>2016-10-07T15:05:15Z</time></trkpt>
<trkpt lat="29.505224" lon="98.615769">
<time>2016-10-07T15:05:16Z</time></trkpt>
<trkpt lat="29.505344" lon="98.615649">
<time>2016-10-07T15:05:17Z</time></trkpt>
<trkpt lat="29.505475" lon="98.615529">
<time>2016-10-07T15:05:18Z</time></trkpt>
<trkpt lat="29.505595" lon="98.615409">
<time>2016-10-07T15:05:19Z</time></trkpt>
<trkpt lat="29.505655" lon="98.61536">
<time>2016-10-07T15:05:20Z</time></trkpt>
<trkpt lat="29.505775" lon="98.61526">
<time>2016-10-07T15:05:21Z</time></trkpt>
<trkpt lat="29.505945" lon="98.61513">
<time>2016-10-07T15:05:22Z</time></trkpt>
<trkpt lat="29.506115" lon="98.61504">
<time>2016-10-07T15:05:23Z</time></trkpt>
<trkpt lat="29.506265" lon="98.61499">
<time>2016-10-07T15:05:24Z</time></trkpt>
<trkpt lat="29.506405" lon="98.61497">
<time>2016-10-07T15:05:25Z</time></trkpt>
<trkpt lat="29.506544" lon="98.61496">
<time>2016-10-07T15:05:26Z</time></trkpt>
<trkpt lat="29.506764" lon="98.61497">
<time>2016-10-07T15:05:27Z</time></trkpt>
<trkpt lat="29.506964" lon="98.61499">
<time>2016-10-07T15:05:28Z</time></trkpt>
<trkpt lat="29.507284" lon="98.61501">
<time>2016-10-07T15:05:29Z</time></trkpt>
<trkpt lat="29.507564" lon="98.61499">
<time>2016-10-07T15:05:30Z</time></trkpt>
<trkpt lat="29.507744" lon="98.61495">
<time>2016-10-07T15:05:31Z</time></trkpt>
<trkpt lat="29.507864" lon="98.61492">
<time>2016-10-07T15:05:32Z</time></trkpt>
<trkpt lat="29.508064" lon="98.61486">
<time>2016-10-07T15:05:33Z</time></trkpt>
<trkpt lat="29.508264" lon="98.61475">
<time>2016-10-07T15:05:34Z</time></trkpt>
<trkpt lat="29.508494" lon="98.614621">
<time>2016-10-07T15:05:35Z</time></trkpt>
<trkpt lat="29.508704" lon="98.614491">
<time>2016-10-07T15:05:36Z</time></trkpt>
<trkpt lat="29.508824" lon="98.614381">
<time>2016-10-07T15:05:37Z</time></trkpt>
<trkpt lat="29.509024" lon="98.614211">
<time>2016-10-07T15:05:38Z</time></trkpt>
<trkpt lat="29.509234" lon="98.614001">
<time>2016-10-07T15:05:39Z</time></trkpt>
<trkpt lat="29.509354" lon="98.613872">
<time>2016-10-07T15:05:40Z</time></trkpt>
<trkpt lat="29.509564" lon="98.613622">
<time>2016-10-07T15:05:41Z</time></trkpt>
<trkpt lat="29.509724" lon="98.613442">
<time>2016-10-07T15:05:42Z</time></trkpt>
<trkpt lat="29.509884" lon="98.613232">
<time>2016-10-07T15:05:43Z</time></trkpt>
<trkpt lat="29.509964" lon="98.613142">
<time>2016-10-07T15:05:44Z</time></trkpt>
<trkpt lat="29.510154" lon="98.612943">
<time>2016-10-07T15:05:45Z</time></trkpt>
<trkpt lat="29.510314" lon="98.612793">
<time>2016-10-07T15:05:46Z</time></trkpt>
<trkpt lat="29.510474" lon="98.612663">
<time>2016-10-07T15:05:47Z</time></trkpt>
<trkpt lat="29.510704" lon="98.612523">
<time>2016-10-07T15:05:48Z</time></trkpt>
<trkpt lat="29.511144" lon="98.612264">
<time>2016-10-07T15:05:49Z</time></trkpt>
<trkpt lat="29.511704" lon="98.611954">
<time>2016-10-07T15:05:50Z</time></trkpt>
<trkpt lat="29.512064" lon="98.611744">
<time>2016-10-07T15:05:51Z</time></trkpt>
<trkpt lat="29.512154" lon="98.611694">
<time>2016-10-07T15:05:52Z</time></trkpt>
<trkpt lat="29.512444" lon="98.611514">
<time>2016-10-07T15:05:53Z</time></trkpt>
<trkpt lat="29.512664" lon="98.611365">
<time>2016-10-07T15:05:54Z</time></trkpt>
<trkpt lat="29.513084" lon="98.611015">
<time>2016-10-07T15:05:55Z</time></trkpt>
<trkpt lat="29.513404" lon="98.610685">
<time>2016-10-07T15:05:56Z</time></trkpt>
<trkpt lat="29.513624" lon="98.610406">
<time>2016-10-07T15:05:57Z</time></trkpt>
<trkpt lat="29.513915" lon="98.610006">
<time>2016-10-07T15:05:58Z</time></trkpt>
<trkpt lat="29.514145" lon="98.609687">
<time>2016-10-07T15:05:59Z</time></trkpt>
<trkpt lat="29.514555" lon="98.609107">
<time>2016-10-07T15:06:00Z</time></trkpt>
<trkpt lat="29.514855" lon="98.608678">
<time>2016-10-07T15:06:01Z</time></trkpt>
<trkpt lat="29.515385" lon="98.607918">
<time>2016-10-07T15:06:02Z</time></trkpt>
<trkpt lat="29.515875" lon="98.607219">
<time>2016-10-07T15:06:03Z</time></trkpt>
<trkpt lat="29.516425" lon="98.60643">
<time>2016-10-07T15:06:04Z</time></trkpt>
<trkpt lat="29.516855" lon="98.60581">
<time>2016-10-07T15:06:05Z</time></trkpt>
<trkpt lat="29.517335" lon="98.605141">
<time>2016-10-07T15:06:06Z</time></trkpt>
<trkpt lat="29.517735" lon="98.604562">
<time>2016-10-07T15:06:07Z</time></trkpt>
<trkpt lat="29.518025" lon="98.604162">
<time>2016-10-07T15:06:08Z</time></trkpt>
<trkpt lat="29.518415" lon="98.603662">
<time>2016-10-07T15:06:09Z</time></trkpt>
<trkpt lat="29.518775" lon="98.603253">
<time>2016-10-07T15:06:10Z</time></trkpt>
<trkpt lat="29.519205" lon="98.602813">
<time>2016-10-07T15:06:11Z</time></trkpt>
<trkpt lat="29.519515" lon="98.602513">
<time>2016-10-07T15:06:12Z</time></trkpt>
<trkpt lat="29.519865" lon="98.602134">
<time>2016-10-07T15:06:13Z</time></trkpt>
<trkpt lat="29.519985" lon="98.602014">
<time>2016-10-07T15:06:14Z</time></trkpt>
<trkpt lat="29.520165" lon="98.601844">
<time>2016-10-07T15:06:15Z</time></trkpt>
<trkpt lat="29.520295" lon="98.601714">
<time>2016-10-07T15:06:16Z</time></trkpt>
<trkpt lat="29.520415" lon="98.601624">
<time>2016-10-07T15:06:17Z</time></trkpt>
<trkpt lat="29.520595" lon="98.601514">
<time>2016-10-07T15:06:18Z</time></trkpt>
<trkpt lat="29.520735" lon="98.601444">
<time>2016-10-07T15:06:19Z</time></trkpt>
<trkpt lat="29.520795" lon="98.601424">
<time>2016-10-07T15:06:20Z</time></trkpt>
<trkpt lat="29.520865" lon="98.601404">
<time>2016-10-07T15:06:21Z</time></trkpt>
<trkpt lat="29.520935" lon="98.601384">
<time>2016-10-07T15:06:22Z</time></trkpt>
<trkpt lat="29.521015" lon="98.601374">
<time>2016-10-07T15:06:23Z</time></trkpt>
<trkpt lat="29.521065" lon="98.601374">
<time>2016-10-07T15:06:24Z</time></trkpt>
<trkpt lat="29.521135" lon="98.601364">
<time>2016-10-07T15:06:25Z</time></trkpt>
<trkpt lat="29.521265" lon="98.601354">
<time>2016-10-07T15:06:26Z</time></trkpt>
<trkpt lat="29.521535" lon="98.601354">
<time>2016-10-07T15:06:27Z</time></trkpt>
<trkpt lat="29.521734" lon="98.601344">
<time>2016-10-07T15:06:28Z</time></trkpt>
<trkpt lat="29.521864" lon="98.601334">
<time>2016-10-07T15:06:29Z</time></trkpt>
<trkpt lat="29.522024" lon="98.601304">
<time>2016-10-07T15:06:30Z</time></trkpt>
<trkpt lat="29.522184" lon="98.601264">
<time>2016-10-07T15:06:31Z</time></trkpt>
<trkpt lat="29.522264" lon="98.601234">
<time>2016-10-07T15:06:32Z</time></trkpt>
<trkpt lat="29.522484" lon="98.601154">
<time>2016-10-07T15:06:33Z</time></trkpt>
<trkpt lat="29.522654" lon="98.601064">
<time>2016-10-07T15:06:34Z</time></trkpt>
<trkpt lat="29.522804" lon="98.600994">
<time>2016-10-07T15:06:35Z</time></trkpt>
<trkpt lat="29.523024" lon="98.600864">
<time>2016-10-07T15:06:36Z</time></trkpt>
<trkpt lat="29.523264" lon="98.600744">
<time>2016-10-07T15:06:37Z</time></trkpt>
<trkpt lat="29.523564" lon="98.600585">
<time>2016-10-07T15:06:38Z</time></trkpt>
<trkpt lat="29.523804" lon="98.600445">
<time>2016-10-07T15:06:39Z</time></trkpt>
<trkpt lat="29.524184" lon="98.600235">
<time>2016-10-07T15:06:40Z</time></trkpt>
<trkpt lat="29.524694" lon="98.599995">
<time>2016-10-07T15:06:41Z</time></trkpt>
<trkpt lat="29.525323" lon="98.599705">
<time>2016-10-07T15:06:42Z</time></trkpt>
<trkpt lat="29.525953" lon="98.599455">
<time>2016-10-07T15:06:43Z</time></trkpt>
<trkpt lat="29.526443" lon="98.599275">
<time>2016-10-07T15:06:44Z</time></trkpt>
<trkpt lat="29.526843" lon="98.599125">
<time>2016-10-07T15:06:45Z</time></trkpt>
<trkpt lat="29.527902" lon="98.598736">
<time>2016-10-07T15:06:46Z</time></trkpt>
<trkpt lat="29.528522" lon="98.598506">
<time>2016-10-07T15:06:47Z</time></trkpt>
<trkpt lat="29.529282" lon="98.598216">
<time>2016-10-07T15:06:48Z</time></trkpt>
<trkpt lat="29.529572" lon="98.598106">
<time>2016-10-07T15:06:49Z</time></trkpt>
<trkpt lat="29.529662" lon="98.598076">
<time>2016-10-07T15:06:50Z</time></trkpt>
<trkpt lat="29.529842" lon="98.598016">
<time>2016-10-07T15:06:51Z</time></trkpt>
<trkpt lat="29.530102" lon="98.597926">
<time>2016-10-07T15:06:52Z</time></trkpt>
<trkpt lat="29.530301" lon="98.597866">
<time>2016-10-07T15:06:53Z</time></trkpt>
<trkpt lat="29.530401" lon="98.597846">
<time>2016-10-07T15:06:54Z</time></trkpt>
<trkpt lat="29.530551" lon="98.597816">
<time>2016-10-07T15:06:55Z</time></trkpt>
<trkpt lat="29.530641" lon="98.597816">
<time>2016-10-07T15:06:56Z</time></trkpt>
<trkpt lat="29.530751" lon="98.597816">
<time>2016-10-07T15:06:57Z</time></trkpt>
<trkpt lat="29.530851" lon="98.597816">
<time>2016-10-07T15:06:58Z</time></trkpt>
<trkpt lat="29.531031" lon="98.597826">
<time>2016-10-07T15:06:59Z</time></trkpt>
<trkpt lat="29.531251" lon="98.597856">
<time>2016-10-07T15:07:00Z</time></trkpt>
<trkpt lat="29.531451" lon="98.597896">
<time>2016-10-07T15:07:01Z</time></trkpt>
<trkpt lat="29.531671" lon="98.597926">
<time>2016-10-07T15:07:02Z</time></trkpt>
<trkpt lat="29.531891" lon="98.597956">
<time>2016-10-07T15:07:03Z</time></trkpt>
<trkpt lat="29.532111" lon="98.597966">
<time>2016-10-07T15:07:04Z</time></trkpt>
<trkpt lat="29.532341" lon="98.597956">
<time>2016-10-07T15:07:05Z</time></trkpt>
<trkpt lat="29.532631" lon="98.597926">
<time>2016-10-07T15:07:06Z</time></trkpt>
<trkpt lat="29.5332" lon="98.597856">
<time>2016-10-07T15:07:07Z</time></trkpt>
<trkpt lat="29.53365" lon="98.597786">
<time>2016-10-07T15:07:08Z</time></trkpt>
<trkpt lat="29.53406" lon="98.597726">
<time>2016-10-07T15:07:09Z</time></trkpt>
<trkpt lat="29.53437" lon="98.597676">
<time>2016-10-07T15:07:10Z</time></trkpt>
<trkpt lat="29.53448" lon="98.597656">
<time>2016-10-07T15:07:11Z</time></trkpt>
<trkpt lat="29.53465" lon="98.597606">
<time>2016-10-07T15:07:12Z</time></trkpt>
<trkpt lat="29.53476" lon="98.597576">
<time>2016-10-07T15:07:13Z</time></trkpt>
<trkpt lat="29.53486" lon="98.597536">
<time>2016-10-07T15:07:14Z</time></trkpt>
<trkpt lat="29.53501" lon="98.597476">
<time>2016-10-07T15:07:15Z</time></trkpt>
<trkpt lat="29.53513" lon="98.597416">
<time>2016-10-07T15:07:16Z</time></trkpt>
<trkpt lat="29.53529" lon="98.597316">
<time>2016-10-07T15:07:17Z</time></trkpt>
<trkpt lat="29.53534" lon="98.597286">
<time>2016-10-07T15:07:18Z</time></trkpt>
<trkpt lat="29.535489" lon="98.597186">
<time>2016-10-07T15:07:19Z</time></trkpt>
<trkpt lat="29.535959" lon="98.596817">
<time>2016-10-07T15:07:20Z</time></trkpt>
<trkpt lat="29.536399" lon="98.596477">
<time>2016-10-07T15:07:21Z</time></trkpt>
<trkpt lat="29.537049" lon="98.595967">
<time>2016-10-07T15:07:22Z</time></trkpt>
<trkpt lat="29.537579" lon="98.595557">
<time>2016-10-07T15:07:23Z</time></trkpt>
<trkpt lat="29.537978" lon="98.595237">
<time>2016-10-07T15:07:24Z</time></trkpt>
<trkpt lat="29.538108" lon="98.595137">
<time>2016-10-07T15:07:25Z</time></trkpt>
<trkpt lat="29.538228" lon="98.595057">
<time>2016-10-07T15:07:26Z</time></trkpt>
<trkpt lat="29.538408" lon="98.594957">
<time>2016-10-07T15:07:27Z</time></trkpt>
<trkpt lat="29.538448" lon="98.594937">
<time>2016-10-07T15:07:28Z</time></trkpt>
<trkpt lat="29.538568" lon="98.594897">
<time>2016-10-07T15:07:29Z</time></trkpt>
<trkpt lat="29.538718" lon="98.594847">
<time>2016-10-07T15:07:30Z</time></trkpt>
<trkpt lat="29.538818" lon="98.594827">
<time>2016-10-07T15:07:31Z</time></trkpt>
<trkpt lat="29.538898" lon="98.594807">
<time>2016-10-07T15:07:32Z</time></trkpt>
<trkpt lat="29.539008" lon="98.594787">
<time>2016-10-07T15:07:33Z</time></trkpt>
<trkpt lat="29.539138" lon="98.594757">
<time>2016-10-07T15:07:34Z</time></trkpt>
<trkpt lat="29.539298" lon="98.594707">
<time>2016-10-07T15:07:35Z</time></trkpt>
<trkpt lat="29.539398" lon="98.594677">
<time>2016-10-07T15:07:36Z</time></trkpt>
<trkpt lat="29.539508" lon="98.594627">
<time>2016-10-07T15:07:37Z</time></trkpt>
<trkpt lat="29.539738" lon="98.594517">
<time>2016-10-07T15:07:38Z</time></trkpt>
<trkpt lat="29.539978" lon="98.594408">
<time>2016-10-07T15:07:39Z</time></trkpt>
<trkpt lat="29.540107" lon="98.594358">
<time>2016-10-07T15:07:40Z</time></trkpt>
<trkpt lat="29.540247" lon="98.594318">
<time>2016-10-07T15:07:41Z</time></trkpt>
<trkpt lat="29.540307" lon="98.594308">
<time>2016-10-07T15:07:42Z</time></trkpt>
<trkpt lat="29.540427" lon="98.594298">
<time>2016-10-07T15:07:43Z</time></trkpt>
<trkpt lat="29.540607" lon="98.594288">
<time>2016-10-07T15:07:44Z</time></trkpt>
<trkpt lat="29.540777" lon="98.594268">
<time>2016-10-07T15:07:45Z</time></trkpt>
<trkpt lat="29.540957" lon="98.594258">
<time>2016-10-07T15:07:46Z</time></trkpt>
<trkpt lat="29.541177" lon="98.594248">
<time>2016-10-07T15:07:47Z</time></trkpt>
<trkpt lat="29.541357" lon="98.594238">
<time>2016-10-07T15:07:48Z</time></trkpt>
<trkpt lat="29.541597" lon="98.594228">
<time>2016-10-07T15:07:49Z</time></trkpt>
<trkpt lat="29.541807" lon="98.594208">
<time>2016-10-07T15:07:50Z</time></trkpt>
<trkpt lat="29.542027" lon="98.594198">
<time>2016-10-07T15:07:51Z</time></trkpt>
<trkpt lat="29.542177" lon="98.594188">
<time>2016-10-07T15:07:52Z</time></trkpt>
<trkpt lat="29.542477" lon="98.594168">
<time>2016-10-07T15:07:53Z</time></trkpt>
<trkpt lat="29.542826" lon="98.594148">
<time>2016-10-07T15:07:54Z</time></trkpt>
<trkpt lat="29.543136" lon="98.594128">
<time>2016-10-07T15:07:55Z</time></trkpt>
<trkpt lat="29.543436" lon="98.594108">
<time>2016-10-07T15:07:56Z</time></trkpt>
<trkpt lat="29.543686" lon="98.594088">
<time>2016-10-07T15:07:57Z</time></trkpt>
<trkpt lat="29.544076" lon="98.594068">
<time>2016-10-07T15:07:58Z</time></trkpt>
<trkpt lat="29.544256" lon="98.594058">
<time>2016-10-07T15:07:59Z</time></trkpt>
<trkpt lat="29.544426" lon="98.594038">
<time>2016-10-07T15:08:00Z</time></trkpt>
<trkpt lat="29.544596" lon="98.594008">
<time>2016-10-07T15:08:01Z</time></trkpt>
<trkpt lat="29.544706" lon="98.593978">
<time>2016-10-07T15:08:02Z</time></trkpt>
<trkpt lat="29.544876" lon="98.593918">
<time>2016-10-07T15:08:03Z</time></trkpt>
<trkpt lat="29.544946" lon="98.593888">
<time>2016-10-07T15:08:04Z</time></trkpt>
<trkpt lat="29.545046" lon="98.593838">
<time>2016-10-07T15:08:05Z</time></trkpt>
<trkpt lat="29.545235" lon="98.593728">
<time>2016-10-07T15:08:06Z</time></trkpt>
<trkpt lat="29.545405" lon="98.593648">
<time>2016-10-07T15:08:07Z</time></trkpt>
<trkpt lat="29.545495" lon="98.593598">
<time>2016-10-07T15:08:08Z</time></trkpt>
<trkpt lat="29.545545" lon="98.593588">
<time>2016-10-07T15:08:09Z</time></trkpt>
<trkpt lat="29.545595" lon="98.593568">
<time>2016-10-07T15:08:10Z</time></trkpt>
<trkpt lat="29.545675" lon="98.593548">
<time>2016-10-07T15:08:11Z</time></trkpt>
<trkpt lat="29.545735" lon="98.593538">
<time>2016-10-07T15:08:12Z</time></trkpt>
<trkpt lat="29.545775" lon="98.593538">
<time>2016-10-07T15:08:13Z</time></trkpt>
<trkpt lat="29.545835" lon="98.593528">
<time>2016-10-07T15:08:14Z</time></trkpt>
<trkpt lat="29.545935" lon="98.593528">
<time>2016-10-07T15:08:15Z</time></trkpt>
<trkpt lat="29.545995" lon="98.593538">
<time>2016-10-07T15:08:16Z</time></trkpt>
<trkpt lat="29.546045" lon="98.593548">
<time>2016-10-07T15:08:17Z</time></trkpt>
<trkpt lat="29.546105" lon="98.593558">
<time>2016-10-07T15:08:18Z</time></trkpt>
<trkpt lat="29.546175" lon="98.593578">
<time>2016-10-07T15:08:19Z</time></trkpt>
<trkpt lat="29.546235" lon="98.593608">
<time>2016-10-07T15:08:20Z</time></trkpt>
<trkpt lat="29.546285" lon="98.593618">
<time>2016-10-07T15:08:21Z</time></trkpt>
<trkpt lat="29.546355" lon="98.593658">
<time>2016-10-07T15:08:22Z</time></trkpt>
<trkpt lat="29.546415" lon="98.593698">
<time>2016-10-07T15:08:23Z</time></trkpt>
<trkpt lat="29.546475" lon="98.593738">
<time>2016-10-07T15:08:24Z</time></trkpt>
<trkpt lat="29.546525" lon="98.593768">
<time>2016-10-07T15:08:25Z</time></trkpt>
<trkpt lat="29.546575" lon="98.593808">
<time>2016-10-07T15:08:26Z</time></trkpt>
<trkpt lat="29.546655" lon="98.593858">
<time>2016-10-07T15:08:27Z</time></trkpt>
<trkpt lat="29.546715" lon="98.593898">
<time>2016-10-07T15:08:28Z</time></trkpt>
<trkpt lat="29.546795" lon="98.593958">
<time>2016-10-07T15:08:29Z</time></trkpt>
<trkpt lat="29.546895" lon="98.594038">
<time>2016-10-07T15:08:30Z</time></trkpt>
<trkpt lat="29.546985" lon="98.594097">
<time>2016-10-07T15:08:31Z</time></trkpt>
<trkpt lat="29.547085" lon="98.594147">
<time>2016-10-07T15:08:32Z</time></trkpt>
<trkpt lat="29.547195" lon="98.594197">
<time>2016-10-07T15:08:33Z</time></trkpt>
<trkpt lat="29.547295" lon="98.594227">
<time>2016-10-07T15:08:34Z</time></trkpt>
<trkpt lat="29.547395" lon="98.594257">
<time>2016-10-07T15:08:35Z</time></trkpt>
<trkpt lat="29.547515" lon="98.594277">
<time>2016-10-07T15:08:36Z</time></trkpt>
<trkpt lat="29.547635" lon="98.594287">
<time>2016-10-07T15:08:37Z</time></trkpt>
<trkpt lat="29.547705" lon="98.594287">
<time>2016-10-07T15:08:38Z</time></trkpt>
<trkpt lat="29.547805" lon="98.594277">
<time>2016-10-07T15:08:39Z</time></trkpt>
<trkpt lat="29.547865" lon="98.594267">
<time>2016-10-07T15:08:40Z</time></trkpt>
<trkpt lat="29.547955" lon="98.594247">
<time>2016-10-07T15:08:41Z</time></trkpt>
<trkpt lat="29.548025" lon="98.594227">
<time>2016-10-07T15:08:42Z</time></trkpt>
<trkpt lat="29.548105" lon="98.594207">
<time>2016-10-07T15:08:43Z</time></trkpt>
<trkpt lat="29.548154" lon="98.594187">
<time>2016-10-07T15:08:44Z</time></trkpt>
<trkpt lat="29.548224" lon="98.594147">
<time>2016-10-07T15:08:45Z</time></trkpt>
<trkpt lat="29.548284" lon="98.594117">
<time>2016-10-07T15:08:46Z</time></trkpt>
<trkpt lat="29.548354" lon="98.594077">
<time>2016-10-07T15:08:47Z</time></trkpt>
<trkpt lat="29.548394" lon="98.594057">
<time>2016-10-07T15:08:48Z</time></trkpt>
<trkpt lat="29.548444" lon="98.594027">
<time>2016-10-07T15:08:49Z</time></trkpt>
<trkpt lat="29.548474" lon="98.593998">
<time>2016-10-07T15:08:50Z</time></trkpt>
<trkpt lat="29.548524" lon="98.593958">
<time>2016-10-07T15:08:51Z</time></trkpt>
<trkpt lat="29.548594" lon="98.593908">
<time>2016-10-07T15:08:52Z</time></trkpt>
<trkpt lat="29.548624" lon="98.593868">
<time>2016-10-07T15:08:53Z</time></trkpt>
<trkpt lat="29.548684" lon="98.593818">
<time>2016-10-07T15:08:54Z</time></trkpt>
<trkpt lat="29.548714" lon="98.593778">
<time>2016-10-07T15:08:55Z</time></trkpt>
<trkpt lat="29.548754" lon="98.593738">
<time>2016-10-07T15:08:56Z</time></trkpt>
<trkpt lat="29.548784" lon="98.593698">
<time>2016-10-07T15:08:57Z</time></trkpt>
<trkpt lat="29.548824" lon="98.593668">
<time>2016-10-07T15:08:58Z</time></trkpt>
<trkpt lat="29.548904" lon="98.593568">
<time>2016-10-07T15:08:59Z</time></trkpt>
<trkpt lat="29.548994" lon="98.593468">
<time>2016-10-07T15:09:00Z</time></trkpt>
<trkpt lat="29.549054" lon="98.593408">
<time>2016-10-07T15:09:01Z</time></trkpt>
<trkpt lat="29.549084" lon="98.593368">
<time>2016-10-07T15:09:02Z</time></trkpt>
<trkpt lat="29.549194" lon="98.593248">
<time>2016-10-07T15:09:03Z</time></trkpt>
<trkpt lat="29.549274" lon="98.593148">
<time>2016-10-07T15:09:04Z</time></trkpt>
<trkpt lat="29.549384" lon="98.593028">
<time>2016-10-07T15:09:05Z</time></trkpt>
<trkpt lat="29.549454" lon="98.592948">
<time>2016-10-07T15:09:06Z</time></trkpt>
<trkpt lat="29.549554" lon="98.592828">
<time>2016-10-07T15:09:07Z</time></trkpt>
<trkpt lat="29.549624" lon="98.592748">
<time>2016-10-07T15:09:08Z</time></trkpt>
<trkpt lat="29.549774" lon="98.592588">
<time>2016-10-07T15:09:09Z</time></trkpt>
<trkpt lat="29.549944" lon="98.592448">
<time>2016-10-07T15:09:10Z</time></trkpt>
<trkpt lat="29.550083" lon="98.592338">
<time>2016-10-07T15:09:11Z</time></trkpt>
<trkpt lat="29.550353" lon="98.592178">
<time>2016-10-07T15:09:12Z</time></trkpt>
<trkpt lat="29.550543" lon="98.592078">
<time>2016-10-07T15:09:13Z</time></trkpt>
<trkpt lat="29.550723" lon="98.591998">
<time>2016-10-07T15:09:14Z</time></trkpt>
<trkpt lat="29.550843" lon="98.591948">
<time>2016-10-07T15:09:15Z</time></trkpt>
<trkpt lat="29.551063" lon="98.591848">
<time>2016-10-07T15:09:16Z</time></trkpt>
<trkpt lat="29.551293" lon="98.591748">
<time>2016-10-07T15:09:17Z</time></trkpt>
<trkpt lat="29.551473" lon="98.591658">
<time>2016-10-07T15:09:18Z</time></trkpt>
<trkpt lat="29.551703" lon="98.591568">
<time>2016-10-07T15:09:19Z</time></trkpt>
<trkpt lat="29.551943" lon="98.591468">
<time>2016-10-07T15:09:20Z</time></trkpt>
<trkpt lat="29.552252" lon="98.591368">
<time>2016-10-07T15:09:21Z</time></trkpt>
<trkpt lat="29.552482" lon="98.591318">
<time>2016-10-07T15:09:22Z</time></trkpt>
<trkpt lat="29.552692" lon="98.591268">
<time>2016-10-07T15:09:23Z</time></trkpt>
<trkpt lat="29.552852" lon="98.591248">
<time>2016-10-07T15:09:24Z</time></trkpt>
<trkpt lat="29.553322" lon="98.591188">
<time>2016-10-07T15:09:25Z</time></trkpt>
<trkpt lat="29.553752" lon="98.591148">
<time>2016-10-07T15:09:26Z</time></trkpt>
<trkpt lat="29.554232" lon="98.591098">
<time>2016-10-07T15:09:27Z</time></trkpt>
<trkpt lat="29.555941" lon="98.590928">
<time>2016-10-07T15:09:28Z</time></trkpt>
<trkpt lat="29.556551" lon="98.590858">
<time>2016-10-07T15:09:29Z</time></trkpt>
<trkpt lat="29.55809" lon="98.590698">
<time>2016-10-07T15:09:30Z</time></trkpt>
<trkpt lat="29.55845" lon="98.590668">
<time>2016-10-07T15:09:31Z</time></trkpt>
<trkpt lat="29.55897" lon="98.590608">
<time>2016-10-07T15:09:32Z</time></trkpt>
<trkpt lat="29.55968" lon="98.590538">
<time>2016-10-07T15:09:33Z</time></trkpt>
<trkpt lat="29.560449" lon="98.590458">
<time>2016-10-07T15:09:34Z</time></trkpt>
<trkpt lat="29.560779" lon="98.590428">
<time>2016-10-07T15:09:35Z</time></trkpt>
<trkpt lat="29.560919" lon="98.590418">
<time>2016-10-07T15:09:36Z</time></trkpt>
<trkpt lat="29.561099" lon="98.590408">
<time>2016-10-07T15:09:37Z</time></trkpt>
<trkpt lat="29.561279" lon="98.590398">
<time>2016-10-07T15:09:38Z</time></trkpt>
<trkpt lat="29.561399" lon="98.590408">
<time>2016-10-07T15:09:39Z</time></trkpt>
<trkpt lat="29.561519" lon="98.590408">
<time>2016-10-07T15:09:40Z</time></trkpt>
<trkpt lat="29.561639" lon="98.590418">
<time>2016-10-07T15:09:41Z</time></trkpt>
<trkpt lat="29.561769" lon="98.590438">
<time>2016-10-07T15:09:42Z</time></trkpt>
<trkpt lat="29.561939" lon="98.590458">
<time>2016-10-07T15:09:43Z</time></trkpt>
<trkpt lat="29.562059" lon="98.590478">
<time>2016-10-07T15:09:44Z</time></trkpt>
<trkpt lat="29.562179" lon="98.590498">
<time>2016-10-07T15:09:45Z</time></trkpt>
<trkpt lat="29.562299" lon="98.590528">
<time>2016-10-07T15:09:46Z</time></trkpt>
<trkpt lat="29.562469" lon="98.590558">
<time>2016-10-07T15:09:47Z</time></trkpt>
<trkpt lat="29.562589" lon="98.590578">
<time>2016-10-07T15:09:48Z</time></trkpt>
<trkpt lat="29.562708" lon="98.590598">
<time>2016-10-07T15:09:49Z</time></trkpt>
<trkpt lat="29.562798" lon="98.590618">
<time>2016-10-07T15:09:50Z</time></trkpt>
<trkpt lat="29.562918" lon="98.590638">
<time>2016-10-07T15:09:51Z</time></trkpt>
<trkpt lat="29.563078" lon="98.590668">
<time>2016-10-07T15:09:52Z</time></trkpt>
<trkpt lat="29.563158" lon="98.590678">
<time>2016-10-07T15:09:53Z</time></trkpt>
<trkpt lat="29.563328" lon="98.590698">
<time>2016-10-07T15:09:54Z</time></trkpt>
<trkpt lat="29.563448" lon="98.590708">
<time>2016-10-07T15:09:55Z</time></trkpt>
<trkpt lat="29.563538" lon="98.590698">
<time>2016-10-07T15:09:56Z</time></trkpt>
<trkpt lat="29.563618" lon="98.590698">
<time>2016-10-07T15:09:57Z</time></trkpt>
<trkpt lat="29.563718" lon="98.590678">
<time>2016-10-07T15:09:58Z</time></trkpt>
<trkpt lat="29.563798" lon="98.590658">
<time>2016-10-07T15:09:59Z</time></trkpt>
<trkpt lat="29.563888" lon="98.590628">
<time>2016-10-07T15:10:00Z</time></trkpt>
<trkpt lat="29.563958" lon="98.590598">
<time>2016-10-07T15:10:01Z</time></trkpt>
<trkpt lat="29.564028" lon="98.590568">
<time>2016-10-07T15:10:02Z</time></trkpt>
<trkpt lat="29.564108" lon="98.590528">
<time>2016-10-07T15:10:03Z</time></trkpt>
<trkpt lat="29.564188" lon="98.590478">
<time>2016-10-07T15:10:04Z</time></trkpt>
<trkpt lat="29.564248" lon="98.590438">
<time>2016-10-07T15:10:05Z</time></trkpt>
<trkpt lat="29.564348" lon="98.590368">
<time>2016-10-07T15:10:06Z</time></trkpt>
<trkpt lat="29.564438" lon="98.590298">
<time>2016-10-07T15:10:07Z</time></trkpt>
<trkpt lat="29.564518" lon="98.590238">
<time>2016-10-07T15:10:08Z</time></trkpt>
<trkpt lat="29.564638" lon="98.590138">
<time>2016-10-07T15:10:09Z</time></trkpt>
<trkpt lat="29.564868" lon="98.589948">
<time>2016-10-07T15:10:10Z</time></trkpt>
<trkpt lat="29.565197" lon="98.589668">
<time>2016-10-07T15:10:11Z</time></trkpt>
<trkpt lat="29.565577" lon="98.589378">
<time>2016-10-07T15:10:12Z</time></trkpt>
<trkpt lat="29.565867" lon="98.589168">
<time>2016-10-07T15:10:13Z</time></trkpt>
<trkpt lat="29.565957" lon="98.589118">
<time>2016-10-07T15:10:14Z</time></trkpt>
<trkpt lat="29.566087" lon="98.589048">
<time>2016-10-07T15:10:15Z</time></trkpt>
<trkpt lat="29.566317" lon="98.588918">
<time>2016-10-07T15:10:16Z</time></trkpt>
<trkpt lat="29.566597" lon="98.588788">
<time>2016-10-07T15:10:17Z</time></trkpt>
<trkpt lat="29.566996" lon="98.588638">
<time>2016-10-07T15:10:18Z</time></trkpt>
<trkpt lat="29.567136" lon="98.588588">
<time>2016-10-07T15:10:19Z</time></trkpt>
<trkpt lat="29.567596" lon="98.588448">
<time>2016-10-07T15:10:20Z</time></trkpt>
<trkpt lat="29.567756" lon="98.588398">
<time>2016-10-07T15:10:21Z</time></trkpt>
<trkpt lat="29.568496" lon="98.588158">
<time>2016-10-07T15:10:22Z</time></trkpt>
<trkpt lat="29.568915" lon="98.588018">
<time>2016-10-07T15:10:23Z</time></trkpt>
<trkpt lat="29.569125" lon="98.587958">
<time>2016-10-07T15:10:24Z</time></trkpt>
<trkpt lat="29.569555" lon="98.587818">
<time>2016-10-07T15:10:25Z</time></trkpt>
<trkpt lat="29.570095" lon="98.587638">
<time>2016-10-07T15:10:26Z</time></trkpt>
<trkpt lat="29.570335" lon="98.587578">
<time>2016-10-07T15:10:27Z</time></trkpt>
<trkpt lat="29.570525" lon="98.587538">
<time>2016-10-07T15:10:28Z</time></trkpt>
<trkpt lat="29.570825" lon="98.587488">
<time>2016-10-07T15:10:29Z</time></trkpt>
<trkpt lat="29.570895" lon="98.587478">
<time>2016-10-07T15:10:30Z</time></trkpt>
<trkpt lat="29.571124" lon="98.587448">
<time>2016-10-07T15:10:31Z</time></trkpt>
<trkpt lat="29.571414" lon="98.587428">
<time>2016-10-07T15:10:32Z</time></trkpt>
<trkpt lat="29.571674" lon="98.587428">
<time>2016-10-07T15:10:33Z</time></trkpt>
<trkpt lat="29.571814" lon="98.587428">
<time>2016-10-07T15:10:34Z</time></trkpt>
<trkpt lat="29.572154" lon="98.587448">
<time>2016-10-07T15:10:35Z</time></trkpt>
<trkpt lat="29.572364" lon="98.587458">
<time>2016-10-07T15:10:36Z</time></trkpt>
<trkpt lat="29.572804" lon="98.587498">
<time>2016-10-07T15:10:37Z</time></trkpt>
<trkpt lat="29.573554" lon="98.587538">
<time>2016-10-07T15:10:38Z</time></trkpt>
<trkpt lat="29.574543" lon="98.587588">
<time>2016-10-07T15:10:39Z</time></trkpt>
<trkpt lat="29.574913" lon="98.587618">
<time>2016-10-07T15:10:40Z</time></trkpt>
<trkpt lat="29.575673" lon="98.587658">
<time>2016-10-07T15:10:41Z</time></trkpt>
<trkpt lat="29.576393" lon="98.587698">
<time>2016-10-07T15:10:42Z</time></trkpt>
<trkpt lat="29.577402" lon="98.587758">
<time>2016-10-07T15:10:43Z</time></trkpt>
<trkpt lat="29.578542" lon="98.587828">
<time>2016-10-07T15:10:44Z</time></trkpt>
<trkpt lat="29.579592" lon="98.587888">
<time>2016-10-07T15:10:45Z</time></trkpt>
<trkpt lat="29.580082" lon="98.587918">
<time>2016-10-07T15:10:46Z</time></trkpt>
<trkpt lat="29.580292" lon="98.587908">
<time>2016-10-07T15:10:47Z</time></trkpt>
<trkpt lat="29.580432" lon="98.587898">
<time>2016-10-07T15:10:48Z</time></trkpt>
<trkpt lat="29.580561" lon="98.587878">
<time>2016-10-07T15:10:49Z</time></trkpt>
<trkpt lat="29.580701" lon="98.587858">
<time>2016-10-07T15:10:50Z</time></trkpt>
<trkpt lat="29.580811" lon="98.587828">
<time>2016-10-07T15:10:51Z</time></trkpt>
<trkpt lat="29.580971" lon="98.587788">
<time>2016-10-07T15:10:52Z</time></trkpt>
<trkpt lat="29.581041" lon="98.587758">
<time>2016-10-07T15:10:53Z</time></trkpt>
<trkpt lat="29.581141" lon="98.587718">
<time>2016-10-07T15:10:54Z</time></trkpt>
<trkpt lat="29.581251" lon="98.587668">
<time>2016-10-07T15:10:55Z</time></trkpt>
<trkpt lat="29.581321" lon="98.587628">
<time>2016-10-07T15:10:56Z</time></trkpt>
<trkpt lat="29.581401" lon="98.587578">
<time>2016-10-07T15:10:57Z</time></trkpt>
<trkpt lat="29.581491" lon="98.587518">
<time>2016-10-07T15:10:58Z</time></trkpt>
<trkpt lat="29.581561" lon="98.587468">
<time>2016-10-07T15:10:59Z</time></trkpt>
<trkpt lat="29.581651" lon="98.587398">
<time>2016-10-07T15:11:00Z</time></trkpt>
<trkpt lat="29.581731" lon="98.587328">
<time>2016-10-07T15:11:01Z</time></trkpt>
<trkpt lat="29.581811" lon="98.587258">
<time>2016-10-07T15:11:02Z</time></trkpt>
<trkpt lat="29.581901" lon="98.587178">
<time>2016-10-07T15:11:03Z</time></trkpt>
<trkpt lat="29.581961" lon="98.587128">
<time>2016-10-07T15:11:04Z</time></trkpt>
<trkpt lat="29.582041" lon="98.587048">
<time>2016-10-07T15:11:05Z</time></trkpt>
<trkpt lat="29.582101" lon="98.586988">
<time>2016-10-07T15:11:06Z</time></trkpt>
<trkpt lat="29.58228" lon="98.586828">
<time>2016-10-07T15:11:07Z</time></trkpt>
<trkpt lat="29.58237" lon="98.586738">
<time>2016-10-07T15:11:08Z</time></trkpt>
<trkpt lat="29.58245" lon="98.586668">
<time>2016-10-07T15:11:09Z</time></trkpt>
<trkpt lat="29.58258" lon="98.586558">
<time>2016-10-07T15:11:10Z</time></trkpt>
<trkpt lat="29.58271" lon="98.586468">
<time>2016-10-07T15:11:11Z</time></trkpt>
<trkpt lat="29.58291" lon="98.586338">
<time>2016-10-07T15:11:12Z</time></trkpt>
<trkpt lat="29.58308" lon="98.586248">
<time>2016-10-07T15:11:13Z</time></trkpt>
<trkpt lat="29.58328" lon="98.586158">
<time>2016-10-07T15:11:14Z</time></trkpt>
<trkpt lat="29.58337" lon="98.586128">
<time>2016-10-07T15:11:15Z</time></trkpt>
<trkpt lat="29.58347" lon="98.586098">
<time>2016-10-07T15:11:16Z</time></trkpt>
<trkpt lat="29.58353" lon="98.586088">
<time>2016-10-07T15:11:17Z</time></trkpt>
<trkpt lat="29.58361" lon="98.586068">
<time>2016-10-07T15:11:18Z</time></trkpt>
<trkpt lat="29.58377" lon="98.586038">
<time>2016-10-07T15:11:19Z</time></trkpt>
<trkpt lat="29.58391" lon="98.586018">
<time>2016-10-07T15:11:20Z</time></trkpt>
<trkpt lat="29.584069" lon="98.586008">
<time>2016-10-07T15:11:21Z</time></trkpt>
<trkpt lat="29.584279" lon="98.586018">
<time>2016-10-07T15:11:22Z</time></trkpt>
<trkpt lat="29.584409" lon="98.586028">
<time>2016-10-07T15:11:23Z</time></trkpt>
<trkpt lat="29.584669" lon="98.586068">
<time>2016-10-07T15:11:24Z</time></trkpt>
<trkpt lat="29.585099" lon="98.586168">
<time>2016-10-07T15:11:25Z</time></trkpt>
<trkpt lat="29.585719" lon="98.586338">
<time>2016-10-07T15:11:26Z</time></trkpt>
<trkpt lat="29.586499" lon="98.586528">
<time>2016-10-07T15:11:27Z</time></trkpt>
<trkpt lat="29.586779" lon="98.586608">
<time>2016-10-07T15:11:28Z</time></trkpt>
<trkpt lat="29.587149" lon="98.586698">
<time>2016-10-07T15:11:29Z</time></trkpt>
<trkpt lat="29.587479" lon="98.586788">
<time>2016-10-07T15:11:30Z</time></trkpt>
<trkpt lat="29.587899" lon="98.586898">
<time>2016-10-07T15:11:31Z</time></trkpt>
<trkpt lat="29.588039" lon="98.586938">
<time>2016-10-07T15:11:32Z</time></trkpt>
<trkpt lat="29.588219" lon="98.586978">
<time>2016-10-07T15:11:33Z</time></trkpt>
<trkpt lat="29.588349" lon="98.586988">
<time>2016-10-07T15:11:34Z</time></trkpt>
<trkpt lat="29.588459" lon="98.586998">
<time>2016-10-07T15:11:35Z</time></trkpt>
<trkpt lat="29.588578" lon="98.586988">
<time>2016-10-07T15:11:36Z</time></trkpt>
<trkpt lat="29.588708" lon="98.586968">
<time>2016-10-07T15:11:37Z</time></trkpt>
<trkpt lat="29.588818" lon="98.586928">
<time>2016-10-07T15:11:38Z</time></trkpt>
<trkpt lat="29.588918" lon="98.586898">
<time>2016-10-07T15:11:39Z</time></trkpt>
<trkpt lat="29.589018" lon="98.586858">
<time>2016-10-07T15:11:40Z</time></trkpt>
<trkpt lat="29.589128" lon="98.586798">
<time>2016-10-07T15:11:41Z</time></trkpt>
<trkpt lat="29.589238" lon="98.586728">
<time>2016-10-07T15:11:42Z</time></trkpt>
<trkpt lat="29.589468" lon="98.586558">
<time>2016-10-07T15:11:43Z</time></trkpt>
<trkpt lat="29.589808" lon="98.586308">
<time>2016-10-07T15:11:44Z</time></trkpt>
<trkpt lat="29.590008" lon="98.586158">
<time>2016-10-07T15:11:45Z</time></trkpt>
<trkpt lat="29.590148" lon="98.586058">
<time>2016-10-07T15:11:46Z</time></trkpt>
<trkpt lat="29.590377" lon="98.585908">
<time>2016-10-07T15:11:47Z</time></trkpt>
<trkpt lat="29.590577" lon="98.585758">
<time>2016-10-07T15:11:48Z</time></trkpt>
<trkpt lat="29.590857" lon="98.585548">
<time>2016-10-07T15:11:49Z</time></trkpt>
<trkpt lat="29.591107" lon="98.585378">
<time>2016-10-07T15:11:50Z</time></trkpt>
<trkpt lat="29.591676" lon="98.584958">
<time>2016-10-07T15:11:51Z</time></trkpt>
<trkpt lat="29.591906" lon="98.584798">
<time>2016-10-07T15:11:52Z</time></trkpt>
<trkpt lat="29.592076" lon="98.584688">
<time>2016-10-07T15:11:53Z</time></trkpt>
<trkpt lat="29.592316" lon="98.584538">
<time>2016-10-07T15:11:54Z</time></trkpt>
<trkpt lat="29.592516" lon="98.584428">
<time>2016-10-07T15:11:55Z</time></trkpt>
<trkpt lat="29.592696" lon="98.584338">
<time>2016-10-07T15:11:56Z</time></trkpt>
<trkpt lat="29.592856" lon="98.584258">
<time>2016-10-07T15:11:57Z</time></trkpt>
<trkpt lat="29.593086" lon="98.584157">
<time>2016-10-07T15:11:58Z</time></trkpt>
<trkpt lat="29.593265" lon="98.584087">
<time>2016-10-07T15:11:59Z</time></trkpt>
<trkpt lat="29.593445" lon="98.584017">
<time>2016-10-07T15:12:00Z</time></trkpt>
<trkpt lat="29.593635" lon="98.583957">
<time>2016-10-07T15:12:01Z</time></trkpt>
<trkpt lat="29.593825" lon="98.583907">
<time>2016-10-07T15:12:02Z</time></trkpt>
<trkpt lat="29.594055" lon="98.583847">
<time>2016-10-07T15:12:03Z</time></trkpt>
<trkpt lat="29.594305" lon="98.583797">
<time>2016-10-07T15:12:04Z</time></trkpt>
<trkpt lat="29.594445" lon="98.583777">
<time>2016-10-07T15:12:05Z</time></trkpt>
<trkpt lat="29.594605" lon="98.583747">
<time>2016-10-07T15:12:06Z</time></trkpt>
<trkpt lat="29.594835" lon="98.583727">
<time>2016-10-07T15:12:07Z</time></trkpt>
<trkpt lat="29.595215" lon="98.583697">
<time>2016-10-07T15:12:08Z</time></trkpt>
<trkpt lat="29.595545" lon="98.583697">
<time>2016-10-07T15:12:09Z</time></trkpt>
<trkpt lat="29.595944" lon="98.583727">
<time>2016-10-07T15:12:10Z</time></trkpt>
<trkpt lat="29.596434" lon="98.583787">
<time>2016-10-07T15:12:11Z</time></trkpt>
<trkpt lat="29.596764" lon="98.583857">
<time>2016-10-07T15:12:12Z</time></trkpt>
<trkpt lat="29.596944" lon="98.583907">
<time>2016-10-07T15:12:13Z</time></trkpt>
<trkpt lat="29.597084" lon="98.583947">
<time>2016-10-07T15:12:14Z</time></trkpt>
<trkpt lat="29.597304" lon="98.584007">
<time>2016-10-07T15:12:15Z</time></trkpt>
<trkpt lat="29.597614" lon="98.584117">
<time>2016-10-07T15:12:16Z</time></trkpt>
<trkpt lat="29.598184" lon="98.584357">
<time>2016-10-07T15:12:17Z</time></trkpt>
<trkpt lat="29.598394" lon="98.584437">
<time>2016-10-07T15:12:18Z</time></trkpt>
<trkpt lat="29.599054" lon="98.584697">
<time>2016-10-07T15:12:19Z</time></trkpt>
<trkpt lat="29.599524" lon="98.584898">
<time>2016-10-07T15:12:20Z</time></trkpt>
<trkpt lat="29.600064" lon="98.585108">
<time>2016-10-07T15:12:21Z</time></trkpt>
<trkpt lat="29.600744" lon="98.585358">
<time>2016-10-07T15:12:22Z</time></trkpt>
<trkpt lat="29.601324" lon="98.585548">
<time>2016-10-07T15:12:23Z</time></trkpt>
<trkpt lat="29.601754" lon="98.585678">
<time>2016-10-07T15:12:24Z</time></trkpt>
<trkpt lat="29.602314" lon="98.585838">
<time>2016-10-07T15:12:25Z</time></trkpt>
<trkpt lat="29.602874" lon="98.585988">
<time>2016-10-07T15:12:26Z</time></trkpt>
<trkpt lat="29.603194" lon="98.586058">
<time>2016-10-07T15:12:27Z</time></trkpt>
<trkpt lat="29.604393" lon="98.586368">
<time>2016-10-07T15:12:28Z</time></trkpt>
<trkpt lat="29.604653" lon="98.586448">
<time>2016-10-07T15:12:29Z</time></trkpt>
<trkpt lat="29.604873" lon="98.586508">
<time>2016-10-07T15:12:30Z</time></trkpt>
<trkpt lat="29.605263" lon="98.586658">
<time>2016-10-07T15:12:31Z</time></trkpt>
<trkpt lat="29.605523" lon="98.586768">
<time>2016-10-07T15:12:32Z</time></trkpt>
<trkpt lat="29.605693" lon="98.586838">
<time>2016-10-07T15:12:33Z</time></trkpt>
<trkpt lat="29.605923" lon="98.586958">
<time>2016-10-07T15:12:34Z</time></trkpt>
<trkpt lat="29.606393" lon="98.587238">
<time>2016-10-07T15:12:35Z</time></trkpt>
<trkpt lat="29.606793" lon="98.587488">
<time>2016-10-07T15:12:36Z</time></trkpt>
<trkpt lat="29.607123" lon="98.587688">
<time>2016-10-07T15:12:37Z</time></trkpt>
<trkpt lat="29.607293" lon="98.587788">
<time>2016-10-07T15:12:38Z</time></trkpt>
<trkpt lat="29.607493" lon="98.587898">
<time>2016-10-07T15:12:39Z</time></trkpt>
<trkpt lat="29.607793" lon="98.588048">
<time>2016-10-07T15:12:40Z</time></trkpt>
<trkpt lat="29.608023" lon="98.588148">
<time>2016-10-07T15:12:41Z</time></trkpt>
<trkpt lat="29.608183" lon="98.588218">
<time>2016-10-07T15:12:42Z</time></trkpt>
<trkpt lat="29.608973" lon="98.588528">
<time>2016-10-07T15:12:43Z</time></trkpt>
<trkpt lat="29.609423" lon="98.588708">
<time>2016-10-07T15:12:44Z</time></trkpt>
<trkpt lat="29.610183" lon="98.588988">
<time>2016-10-07T15:12:45Z</time></trkpt>
<trkpt lat="29.610573" lon="98.589137">
<time>2016-10-07T15:12:46Z</time></trkpt>
<trkpt lat="29.610773" lon="98.589197">
<time>2016-10-07T15:12:47Z</time></trkpt>
<trkpt lat="29.610953" lon="98.589247">
<time>2016-10-07T15:12:48Z</time></trkpt>
<trkpt lat="29.611153" lon="98.589277">
<time>2016-10-07T15:12:49Z</time></trkpt>
<trkpt lat="29.611373" lon="98.589297">
<time>2016-10-07T15:12:50Z</time></trkpt>
<trkpt lat="29.611543" lon="98.589307">
<time>2016-10-07T15:12:51Z</time></trkpt>
<trkpt lat="29.611722" lon="98.589297">
<time>2016-10-07T15:12:52Z</time></trkpt>
<trkpt lat="29.611942" lon="98.589267">
<time>2016-10-07T15:12:53Z</time></trkpt>
<trkpt lat="29.612172" lon="98.589217">
<time>2016-10-07T15:12:54Z</time></trkpt>
<trkpt lat="29.612382" lon="98.589167">
<time>2016-10-07T15:12:55Z</time></trkpt>
<trkpt lat="29.612592" lon="98.589087">
<time>2016-10-07T15:12:56Z</time></trkpt>
<trkpt lat="29.612822" lon="98.588987">
<time>2016-10-07T15:12:57Z</time></trkpt>
<trkpt lat="29.612952" lon="98.588907">
<time>2016-10-07T15:12:58Z</time></trkpt>
<trkpt lat="29.613102" lon="98.588817">
<time>2016-10-07T15:12:59Z</time></trkpt>
<trkpt lat="29.613322" lon="98.588657">
<time>2016-10-07T15:13:00Z</time></trkpt>
<trkpt lat="29.613572" lon="98.588447">
<time>2016-10-07T15:13:01Z</time></trkpt>
<trkpt lat="29.613731" lon="98.588267">
<time>2016-10-07T15:13:02Z</time></trkpt>
<trkpt lat="29.613931" lon="98.588037">
<time>2016-10-07T15:13:03Z</time></trkpt>
<trkpt lat="29.614111" lon="98.587787">
<time>2016-10-07T15:13:04Z</time></trkpt>
<trkpt lat="29.614181" lon="98.587677">
<time>2016-10-07T15:13:05Z</time></trkpt>
<trkpt lat="29.614261" lon="98.587527">
<time>2016-10-07T15:13:06Z</time></trkpt>
<trkpt lat="29.614331" lon="98.587397">
<time>2016-10-07T15:13:07Z</time></trkpt>
<trkpt lat="29.614641" lon="98.586737">
<time>2016-10-07T15:13:08Z</time></trkpt>
<trkpt lat="29.61513" lon="98.585637">
<time>2016-10-07T15:13:09Z</time></trkpt>
<trkpt lat="29.61532" lon="98.585247">
<time>2016-10-07T15:13:10Z</time></trkpt>
<trkpt lat="29.615449" lon="98.585017">
<time>2016-10-07T15:13:11Z</time></trkpt>
<trkpt lat="29.615589" lon="98.584817">
<time>2016-10-07T15:13:12Z</time></trkpt>
<trkpt lat="29.615719" lon="98.584677">
<time>2016-10-07T15:13:13Z</time></trkpt>
<trkpt lat="29.615849" lon="98.584557">
<time>2016-10-07T15:13:14Z</time></trkpt>
<trkpt lat="29.615959" lon="98.584457">
<time>2016-10-07T15:13:15Z</time></trkpt>
<trkpt lat="29.616079" lon="98.584367">
<time>2016-10-07T15:13:16Z</time></trkpt>
<trkpt lat="29.616229" lon="98.584267">
<time>2016-10-07T15:13:17Z</time></trkpt>
<trkpt lat="29.616419" lon="98.584167">
<time>2016-10-07T15:13:18Z</time></trkpt>
<trkpt lat="29.616569" lon="98.584097">
<time>2016-10-07T15:13:19Z</time></trkpt>
<trkpt lat="29.616758" lon="98.584037">
<time>2016-10-07T15:13:20Z</time></trkpt>
<trkpt lat="29.616948" lon="98.583987">
<time>2016-10-07T15:13:21Z</time></trkpt>
<trkpt lat="29.617268" lon="98.583907">
<time>2016-10-07T15:13:22Z</time></trkpt>
<trkpt lat="29.617678" lon="98.583807">
<time>2016-10-07T15:13:23Z</time></trkpt>
<trkpt lat="29.617748" lon="98.583797">
<time>2016-10-07T15:13:24Z</time></trkpt>
<trkpt lat="29.618108" lon="98.583707">
<time>2016-10-07T15:13:25Z</time></trkpt>
<trkpt lat="29.618968" lon="98.583487">
<time>2016-10-07T15:13:26Z</time></trkpt>
<trkpt lat="29.619537" lon="98.583367">
<time>2016-10-07T15:13:27Z</time></trkpt>
<trkpt lat="29.620067" lon="98.583257">
<time>2016-10-07T15:13:28Z</time></trkpt>
<trkpt lat="29.620297" lon="98.583227">
<time>2016-10-07T15:13:29Z</time></trkpt>
<trkpt lat="29.620867" lon="98.583157">
<time>2016-10-07T15:13:30Z</time></trkpt>
<trkpt lat="29.621397" lon="98.583107">
<time>2016-10-07T15:13:31Z</time></trkpt>
<trkpt lat="29.621996" lon="98.583047">
<time>2016-10-07T15:13:32Z</time></trkpt>
<trkpt lat="29.624456" lon="98.582797">
<time>2016-10-07T15:13:33Z</time></trkpt>
<trkpt lat="29.625885" lon="98.582657">
<time>2016-10-07T15:13:34Z</time></trkpt>
<trkpt lat="29.626325" lon="98.582617">
<time>2016-10-07T15:13:35Z</time></trkpt>
<trkpt lat="29.626705" lon="98.582597">
<time>2016-10-07T15:13:36Z</time></trkpt>
<trkpt lat="29.626905" lon="98.582607">
<time>2016-10-07T15:13:37Z</time></trkpt>
<trkpt lat="29.627035" lon="98.582627">
<time>2016-10-07T15:13:38Z</time></trkpt>
<trkpt lat="29.627255" lon="98.582667">
<time>2016-10-07T15:13:39Z</time></trkpt>
<trkpt lat="29.627465" lon="98.582707">
<time>2016-10-07T15:13:40Z</time></trkpt>
<trkpt lat="29.627715" lon="98.582747">
<time>2016-10-07T15:13:41Z</time></trkpt>
<trkpt lat="29.627905" lon="98.582787">
<time>2016-10-07T15:13:42Z</time></trkpt>
<trkpt lat="29.628305" lon="98.582857">
<time>2016-10-07T15:13:43Z</time></trkpt>
<trkpt lat="29.628495" lon="98.582887">
<time>2016-10-07T15:13:44Z</time></trkpt>
<trkpt lat="29.628625" lon="98.582897">
<time>2016-10-07T15:13:45Z</time></trkpt>
<trkpt lat="29.628994" lon="98.582877">
<time>2016-10-07T15:13:46Z</time></trkpt>
<trkpt lat="29.629284" lon="98.582817">
<time>2016-10-07T15:13:47Z</time></trkpt>
<trkpt lat="29.629604" lon="98.582737">
<time>2016-10-07T15:13:48Z</time></trkpt>
<trkpt lat="29.629934" lon="98.582657">
<time>2016-10-07T15:13:49Z</time></trkpt>
<trkpt lat="29.630154" lon="98.582627">
<time>2016-10-07T15:13:50Z</time></trkpt>
<trkpt lat="29.630374" lon="98.582597">
<time>2016-10-07T15:13:51Z</time></trkpt>
<trkpt lat="29.630594" lon="98.582597">
<time>2016-10-07T15:13:52Z</time></trkpt>
<trkpt lat="29.630774" lon="98.582607">
<time>2016-10-07T15:13:53Z</time></trkpt>
<trkpt lat="29.631074" lon="98.582637">
<time>2016-10-07T15:13:54Z</time></trkpt>
<trkpt lat="29.631364" lon="98.582697">
<time>2016-10-07T15:13:55Z</time></trkpt>
<trkpt lat="29.631584" lon="98.582757">
<time>2016-10-07T15:13:56Z</time></trkpt>
<trkpt lat="29.631764" lon="98.582817">
<time>2016-10-07T15:13:57Z</time></trkpt>
<trkpt lat="29.632254" lon="98.582977">
<time>2016-10-07T15:13:58Z</time></trkpt>
<trkpt lat="29.633464" lon="98.583357">
<time>2016-10-07T15:13:59Z</time></trkpt>
<trkpt lat="29.634733" lon="98.583757">
<time>2016-10-07T15:14:00Z</time></trkpt>
<trkpt lat="29.635103" lon="98.583867">
<time>2016-10-07T15:14:01Z</time></trkpt>
<trkpt lat="29.635403" lon="98.583917">
<time>2016-10-07T15:14:02Z</time></trkpt>
<trkpt lat="29.635723" lon="98.583947">
<time>2016-10-07T15:14:03Z</time></trkpt>
<trkpt lat="29.635993" lon="98.583977">
<time>2016-10-07T15:14:04Z</time></trkpt>
<trkpt lat="29.636203" lon="98.583997">
<time>2016-10-07T15:14:05Z</time></trkpt>
<trkpt lat="29.636473" lon="98.584057">
<time>2016-10-07T15:14:06Z</time></trkpt>
<trkpt lat="29.636653" lon="98.584107">
<time>2016-10-07T15:14:07Z</time></trkpt>
<trkpt lat="29.636943" lon="98.584207">
<time>2016-10-07T15:14:08Z</time></trkpt>
<trkpt lat="29.637243" lon="98.584337">
<time>2016-10-07T15:14:09Z</time></trkpt>
<trkpt lat="29.637663" lon="98.584597">
<time>2016-10-07T15:14:10Z</time></trkpt>
<trkpt lat="29.638003" lon="98.584807">
<time>2016-10-07T15:14:11Z</time></trkpt>
<trkpt lat="29.638333" lon="98.584967">
<time>2016-10-07T15:14:12Z</time></trkpt>
<trkpt lat="29.638503" lon="98.585027">
<time>2016-10-07T15:14:13Z</time></trkpt>
<trkpt lat="29.638663" lon="98.585077">
<time>2016-10-07T15:14:14Z</time></trkpt>
<trkpt lat="29.638863" lon="98.585117">
<time>2016-10-07T15:14:15Z</time></trkpt>
<trkpt lat="29.639003" lon="98.585137">
<time>2016-10-07T15:14:16Z</time></trkpt>
<trkpt lat="29.639103" lon="98.585147">
<time>2016-10-07T15:14:17Z</time></trkpt>
<trkpt lat="29.639183" lon="98.585147">
<time>2016-10-07T15:14:18Z</time></trkpt>
<trkpt lat="29.639313" lon="98.585147">
<time>2016-10-07T15:14:19Z</time></trkpt>
<trkpt lat="29.639503" lon="98.585147">
<time>2016-10-07T15:14:20Z</time></trkpt>
<trkpt lat="29.639933" lon="98.585127">
<time>2016-10-07T15:14:21Z</time></trkpt>
<trkpt lat="29.640583" lon="98.585097">
<time>2016-10-07T15:14:22Z</time></trkpt>
<trkpt lat="29.641003" lon="98.585077">
<time>2016-10-07T15:14:23Z</time></trkpt>
<trkpt lat="29.641392" lon="98.585067">
<time>2016-10-07T15:14:24Z</time></trkpt>
<trkpt lat="29.641712" lon="98.585087">
<time>2016-10-07T15:14:25Z</time></trkpt>
<trkpt lat="29.642172" lon="98.585117">
<time>2016-10-07T15:14:26Z</time></trkpt>
<trkpt lat="29.643002" lon="98.585217">
<time>2016-10-07T15:14:27Z</time></trkpt>
<trkpt lat="29.643472" lon="98.585267">
<time>2016-10-07T15:14:28Z</time></trkpt>
<trkpt lat="29.643822" lon="98.585307">
<time>2016-10-07T15:14:29Z</time></trkpt>
<trkpt lat="29.644102" lon="98.585327">
<time>2016-10-07T15:14:30Z</time></trkpt>
<trkpt lat="29.644412" lon="98.585347">
<time>2016-10-07T15:14:31Z</time></trkpt>
<trkpt lat="29.644802" lon="98.585327">
<time>2016-10-07T15:14:32Z</time></trkpt>
<trkpt lat="29.648851" lon="98.585177">
<time>2016-10-07T15:14:33Z</time></trkpt>
<trkpt lat="29.649081" lon="98.585177">
<time>2016-10-07T15:14:34Z</time></trkpt>
<trkpt lat="29.649241" lon="98.585197">
<time>2016-10-07T15:14:35Z</time></trkpt>
<trkpt lat="29.649391" lon="98.585217">
<time>2016-10-07T15:14:36Z</time></trkpt>
<trkpt lat="29.649541" lon="98.585247">
<time>2016-10-07T15:14:37Z</time></trkpt>
<trkpt lat="29.649641" lon="98.585287">
<time>2016-10-07T15:14:38Z</time></trkpt>
<trkpt lat="29.649771" lon="98.585337">
<time>2016-10-07T15:14:39Z</time></trkpt>
<trkpt lat="29.649881" lon="98.585387">
<time>2016-10-07T15:14:40Z</time></trkpt>
<trkpt lat="29.649971" lon="98.585437">
<time>2016-10-07T15:14:41Z</time></trkpt>
<trkpt lat="29.650071" lon="98.585507">
<time>2016-10-07T15:14:42Z</time></trkpt>
<trkpt lat="29.650171" lon="98.585577">
<time>2016-10-07T15:14:43Z</time></trkpt>
<trkpt lat="29.650291" lon="98.585677">
<time>2016-10-07T15:14:44Z</time></trkpt>
<trkpt lat="29.650421" lon="98.585797">
<time>2016-10-07T15:14:45Z</time></trkpt>
<trkpt lat="29.650551" lon="98.585917">
<time>2016-10-07T15:14:46Z</time></trkpt>
<trkpt lat="29.650711" lon="98.586077">
<time>2016-10-07T15:14:47Z</time></trkpt>
<trkpt lat="29.651011" lon="98.586377">
<time>2016-10-07T15:14:48Z</time></trkpt>
<trkpt lat="29.651181" lon="98.586537">
<time>2016-10-07T15:14:49Z</time></trkpt>
<trkpt lat="29.651571" lon="98.586937">
<time>2016-10-07T15:14:50Z</time></trkpt>
<trkpt lat="29.651721" lon="98.587087">
<time>2016-10-07T15:14:51Z</time></trkpt>
<trkpt lat="29.652141" lon="98.587487">
<time>2016-10-07T15:14:52Z</time></trkpt>
<trkpt lat="29.652301" lon="98.587647">
<time>2016-10-07T15:14:53Z</time></trkpt>
<trkpt lat="29.652491" lon="98.587827">
<time>2016-10-07T15:14:54Z</time></trkpt>
<trkpt lat="29.652671" lon="98.588017">
<time>2016-10-07T15:14:55Z</time></trkpt>
<trkpt lat="29.652811" lon="98.588147">
<time>2016-10-07T15:14:56Z</time></trkpt>
<trkpt lat="29.652921" lon="98.588257">
<time>2016-10-07T15:14:57Z</time></trkpt>
<trkpt lat="29.653001" lon="98.588327">
<time>2016-10-07T15:14:58Z</time></trkpt>
<trkpt lat="29.653101" lon="98.588397">
<time>2016-10-07T15:14:59Z</time></trkpt>
<trkpt lat="29.653391" lon="98.588617">
<time>2016-10-07T15:15:00Z</time></trkpt>
<trkpt lat="29.653581" lon="98.588747">
<time>2016-10-07T15:15:01Z</time></trkpt>
<trkpt lat="29.653711" lon="98.588827">
<time>2016-10-07T15:15:02Z</time></trkpt>
<trkpt lat="29.653871" lon="98.588917">
<time>2016-10-07T15:15:03Z</time></trkpt>
<trkpt lat="29.654011" lon="98.588987">
<time>2016-10-07T15:15:04Z</time></trkpt>
<trkpt lat="29.654111" lon="98.589037">
<time>2016-10-07T15:15:05Z</time></trkpt>
<trkpt lat="29.654211" lon="98.589077">
<time>2016-10-07T15:15:06Z</time></trkpt>
<trkpt lat="29.654311" lon="98.589117">
<time>2016-10-07T15:15:07Z</time></trkpt>
<trkpt lat="29.654451" lon="98.589177">
<time>2016-10-07T15:15:08Z</time></trkpt>
<trkpt lat="29.654541" lon="98.589197">
<time>2016-10-07T15:15:09Z</time></trkpt>
<trkpt lat="29.654701" lon="98.589247">
<time>2016-10-07T15:15:10Z</time></trkpt>
<trkpt lat="29.655011" lon="98.589327">
<time>2016-10-07T15:15:11Z</time></trkpt>
<trkpt lat="29.655211" lon="98.589367">
<time>2016-10-07T15:15:12Z</time></trkpt>
<trkpt lat="29.655361" lon="98.589397">
<time>2016-10-07T15:15:13Z</time></trkpt>
<trkpt lat="29.655521" lon="98.589417">
<time>2016-10-07T15:15:14Z</time></trkpt>
<trkpt lat="29.656091" lon="98.589477">
<time>2016-10-07T15:15:15Z</time></trkpt>
<trkpt lat="29.656731" lon="98.589547">
<time>2016-10-07T15:15:16Z</time></trkpt>
<trkpt lat="29.65931" lon="98.589817">
<time>2016-10-07T15:15:17Z</time></trkpt>
<trkpt lat="29.65964" lon="98.589857">
<time>2016-10-07T15:15:18Z</time></trkpt>
<trkpt lat="29.6599" lon="98.589907">
<time>2016-10-07T15:15:19Z</time></trkpt>
<trkpt lat="29.66003" lon="98.589947">
<time>2016-10-07T15:15:20Z</time></trkpt>
<trkpt lat="29.66011" lon="98.589977">
<time>2016-10-07T15:15:21Z</time></trkpt>
<trkpt lat="29.6602" lon="98.590017">
<time>2016-10-07T15:15:22Z</time></trkpt>
<trkpt lat="29.66028" lon="98.590047">
<time>2016-10-07T15:15:23Z</time></trkpt>
<trkpt lat="29.66044" lon="98.590127">
<time>2016-10-07T15:15:24Z</time></trkpt>
<trkpt lat="29.66065" lon="98.590247">
<time>2016-10-07T15:15:25Z</time></trkpt>
<trkpt lat="29.6608" lon="98.590357">
<time>2016-10-07T15:15:26Z</time></trkpt>
<trkpt lat="29.66102" lon="98.590527">
<time>2016-10-07T15:15:27Z</time></trkpt>
<trkpt lat="29.66136" lon="98.590806">
<time>2016-10-07T15:15:28Z</time></trkpt>
<trkpt lat="29.66167" lon="98.591056">
<time>2016-10-07T15:15:29Z</time></trkpt>
<trkpt lat="29.66197" lon="98.591296">
<time>2016-10-07T15:15:30Z</time></trkpt>
<trkpt lat="29.66223" lon="98.591506">
<time>2016-10-07T15:15:31Z</time></trkpt>
<trkpt lat="29.66247" lon="98.591686">
<time>2016-10-07T15:15:32Z</time></trkpt>
<trkpt lat="29.6627" lon="98.591826">
<time>2016-10-07T15:15:33Z</time></trkpt>
<trkpt lat="29.66289" lon="98.591926">
<time>2016-10-07T15:15:34Z</time></trkpt>
<trkpt lat="29.66316" lon="98.592036">
<time>2016-10-07T15:15:35Z</time></trkpt>
<trkpt lat="29.66421" lon="98.592466">
<time>2016-10-07T15:15:36Z</time></trkpt>
<trkpt lat="29.66575" lon="98.593086">
<time>2016-10-07T15:15:37Z</time></trkpt>
<trkpt lat="29.66612" lon="98.593246">
<time>2016-10-07T15:15:38Z</time></trkpt>
<trkpt lat="29.66628" lon="98.593316">
<time>2016-10-07T15:15:39Z</time></trkpt>
<trkpt lat="29.6665" lon="98.593426">
<time>2016-10-07T15:15:40Z</time></trkpt>
<trkpt lat="29.66664" lon="98.593496">
<time>2016-10-07T15:15:41Z</time></trkpt>
<trkpt lat="29.66671" lon="98.593546">
<time>2016-10-07T15:15:42Z</time></trkpt>
<trkpt lat="29.667149" lon="98.593846">
<time>2016-10-07T15:15:43Z</time></trkpt>
<trkpt lat="29.667479" lon="98.594066">
<time>2016-10-07T15:15:44Z</time></trkpt>
<trkpt lat="29.667649" lon="98.594146">
<time>2016-10-07T15:15:45Z</time></trkpt>
<trkpt lat="29.667829" lon="98.594205">
<time>2016-10-07T15:15:46Z</time></trkpt>
<trkpt lat="29.667999" lon="98.594265">
<time>2016-10-07T15:15:47Z</time></trkpt>
<trkpt lat="29.668129" lon="98.594295">
<time>2016-10-07T15:15:48Z</time></trkpt>
<trkpt lat="29.668259" lon="98.594315">
<time>2016-10-07T15:15:49Z</time></trkpt>
<trkpt lat="29.668419" lon="98.594325">
<time>2016-10-07T15:15:50Z</time></trkpt>
<trkpt lat="29.668629" lon="98.594335">
<time>2016-10-07T15:15:51Z</time></trkpt>
<trkpt lat="29.668799" lon="98.594345">
<time>2016-10-07T15:15:52Z</time></trkpt>
<trkpt lat="29.668979" lon="98.594335">
<time>2016-10-07T15:15:53Z</time></trkpt>
<trkpt lat="29.669199" lon="98.594365">
<time>2016-10-07T15:15:54Z</time></trkpt>
<trkpt lat="29.669349" lon="98.594385">
<time>2016-10-07T15:15:55Z</time></trkpt>
<trkpt lat="29.669469" lon="98.594415">
<time>2016-10-07T15:15:56Z</time></trkpt>
<trkpt lat="29.669579" lon="98.594455">
<time>2016-10-07T15:15:57Z</time></trkpt>
<trkpt lat="29.669789" lon="98.594545">
<time>2016-10-07T15:15:58Z</time></trkpt>
<trkpt lat="29.669979" lon="98.594655">
<time>2016-10-07T15:15:59Z</time></trkpt>
<trkpt lat="29.670279" lon="98.594895">
<time>2016-10-07T15:16:00Z</time></trkpt>
<trkpt lat="29.670409" lon="98.595005">
<time>2016-10-07T15:16:01Z</time></trkpt>
<trkpt lat="29.670479" lon="98.595065">
<time>2016-10-07T15:16:02Z</time></trkpt>
<trkpt lat="29.670569" lon="98.595125">
<time>2016-10-07T15:16:03Z</time></trkpt>
<trkpt lat="29.670679" lon="98.595195">
<time>2016-10-07T15:16:04Z</time></trkpt>
<trkpt lat="29.670859" lon="98.595275">
<time>2016-10-07T15:16:05Z</time></trkpt>
<trkpt lat="29.671009" lon="98.595295">
<time>2016-10-07T15:16:06Z</time></trkpt>
<trkpt lat="29.671169" lon="98.595325">
<time>2016-10-07T15:16:07Z</time></trkpt>
<trkpt lat="29.671359" lon="98.595335">
<time>2016-10-07T15:16:08Z</time></trkpt>
<trkpt lat="29.671559" lon="98.595315">
<time>2016-10-07T15:16:09Z</time></trkpt>
<trkpt lat="29.671729" lon="98.595275">
<time>2016-10-07T15:16:10Z</time></trkpt>
<trkpt lat="29.672059" lon="98.595205">
<time>2016-10-07T15:16:11Z</time></trkpt>
<trkpt lat="29.672758" lon="98.595055">
<time>2016-10-07T15:16:12Z</time></trkpt>
<trkpt lat="29.673458" lon="98.594915">
<time>2016-10-07T15:16:13Z</time></trkpt>
<trkpt lat="29.673698" lon="98.594885">
<time>2016-10-07T15:16:14Z</time></trkpt>
<trkpt lat="29.673908" lon="98.594875">
<time>2016-10-07T15:16:15Z</time></trkpt>
<trkpt lat="29.674388" lon="98.594895">
<time>2016-10-07T15:16:16Z</time></trkpt>
<trkpt lat="29.675068" lon="98.594965">
<time>2016-10-07T15:16:17Z</time></trkpt>
<trkpt lat="29.676328" lon="98.595085">
<time>2016-10-07T15:16:18Z</time></trkpt>
<trkpt lat="29.678117" lon="98.595275">
<time>2016-10-07T15:16:19Z</time></trkpt>
<trkpt lat="29.678547" lon="98.595325">
<time>2016-10-07T15:16:20Z</time></trkpt>
<trkpt lat="29.679357" lon="98.595415">
<time>2016-10-07T15:16:21Z</time></trkpt>
<trkpt lat="29.679537" lon="98.595425">
<time>2016-10-07T15:16:22Z</time></trkpt>
<trkpt lat="29.679727" lon="98.595425">
<time>2016-10-07T15:16:23Z</time></trkpt>
<trkpt lat="29.680037" lon="98.595385">
<time>2016-10-07T15:16:24Z</time></trkpt>
<trkpt lat="29.680347" lon="98.595335">
<time>2016-10-07T15:16:25Z</time></trkpt>
<trkpt lat="29.680477" lon="98.595305">
<time>2016-10-07T15:16:26Z</time></trkpt>
<trkpt lat="29.680547" lon="98.595285">
<time>2016-10-07T15:16:27Z</time></trkpt>
<trkpt lat="29.680617" lon="98.595245">
<time>2016-10-07T15:16:28Z</time></trkpt>
<trkpt lat="29.680697" lon="98.595185">
<time>2016-10-07T15:16:29Z</time></trkpt>
<trkpt lat="29.680807" lon="98.595065">
<time>2016-10-07T15:16:30Z</time></trkpt>
<trkpt lat="29.681047" lon="98.594625">
<time>2016-10-07T15:16:31Z</time></trkpt>
<trkpt lat="29.681107" lon="98.594505">
<time>2016-10-07T15:16:32Z</time></trkpt>
<trkpt lat="29.681177" lon="98.594405">
<time>2016-10-07T15:16:33Z</time></trkpt>
<trkpt lat="29.681196" lon="98.594365">
<time>2016-10-07T15:16:34Z</time></trkpt>
<trkpt lat="29.681246" lon="98.594315">
<time>2016-10-07T15:16:35Z</time></trkpt>
<trkpt lat="29.681286" lon="98.594285">
<time>2016-10-07T15:16:36Z</time></trkpt>
<trkpt lat="29.681336" lon="98.594265">
<time>2016-10-07T15:16:37Z</time></trkpt>
<trkpt lat="29.681676" lon="98.594275">
<time>2016-10-07T15:16:38Z</time></trkpt>
<trkpt lat="29.681906" lon="98.594305">
<time>2016-10-07T15:16:39Z</time></trkpt>
<trkpt lat="29.682476" lon="98.594335">
<time>2016-10-07T15:16:40Z</time></trkpt>
<trkpt lat="29.682796" lon="98.594375">
<time>2016-10-07T15:16:41Z</time></trkpt>
<trkpt lat="29.682826" lon="98.594375">
<time>2016-10-07T15:16:42Z</time></trkpt>
<trkpt lat="29.683066" lon="98.594385">
<time>2016-10-07T15:16:43Z</time></trkpt>
<trkpt lat="29.683256" lon="98.594395">
<time>2016-10-07T15:16:44Z</time></trkpt>
<trkpt lat="29.683416" lon="98.594425">
<time>2016-10-07T15:16:45Z</time></trkpt>
<trkpt lat="29.683596" lon="98.594475">
<time>2016-10-07T15:16:46Z</time></trkpt>
<trkpt lat="29.683786" lon="98.594535">
<time>2016-10-07T15:16:47Z</time></trkpt>
<trkpt lat="29.684406" lon="98.594745">
<time>2016-10-07T15:16:48Z</time></trkpt>
<trkpt lat="29.685176" lon="98.594995">
<time>2016-10-07T15:16:49Z</time></trkpt>
<trkpt lat="29.685536" lon="98.595045">
<time>2016-10-07T15:16:50Z</time></trkpt>
<trkpt lat="29.685726" lon="98.595075">
<time>2016-10-07T15:16:51Z</time></trkpt>
<trkpt lat="29.686136" lon="98.595115">
<time>2016-10-07T15:16:52Z</time></trkpt>
<trkpt lat="29.686176" lon="98.595125">
<time>2016-10-07T15:16:53Z</time></trkpt>
<trkpt lat="29.686495" lon="98.595165">
<time>2016-10-07T15:16:54Z</time></trkpt>
<trkpt lat="29.686825" lon="98.595215">
<time>2016-10-07T15:16:55Z</time></trkpt>
<trkpt lat="29.686855" lon="98.595215">
<time>2016-10-07T15:16:56Z</time></trkpt>
<trkpt lat="29.687735" lon="98.595325">
<time>2016-10-07T15:16:57Z</time></trkpt>
<trkpt lat="29.688635" lon="98.595425">
<time>2016-10-07T15:16:58Z</time></trkpt>
<trkpt lat="29.689425" lon="98.595505">
<time>2016-10-07T15:16:59Z</time></trkpt>
<trkpt lat="29.689655" lon="98.595515">
<time>2016-10-07T15:17:00Z</time></trkpt>
<trkpt lat="29.690005" lon="98.595515">
<time>2016-10-07T15:17:01Z</time></trkpt>
<trkpt lat="29.690505" lon="98.595485">
<time>2016-10-07T15:17:02Z</time></trkpt>
<trkpt lat="29.691025" lon="98.595435">
<time>2016-10-07T15:17:03Z</time></trkpt>
<trkpt lat="29.691804" lon="98.595305">
<time>2016-10-07T15:17:04Z</time></trkpt>
<trkpt lat="29.693234" lon="98.595115">
<time>2016-10-07T15:17:05Z</time></trkpt>
<trkpt lat="29.694874" lon="98.594875">
<time>2016-10-07T15:17:06Z</time></trkpt>
<trkpt lat="29.695204" lon="98.594835">
<time>2016-10-07T15:17:07Z</time></trkpt>
<trkpt lat="29.695704" lon="98.594775">
<time>2016-10-07T15:17:08Z</time></trkpt>
<trkpt lat="29.695854" lon="98.594655">
<time>2016-10-07T15:17:09Z</time></trkpt>
<trkpt lat="29.695964" lon="98.594565">
<time>2016-10-07T15:17:10Z</time></trkpt>
<trkpt lat="29.696014" lon="98.594525">
<time>2016-10-07T15:17:11Z</time></trkpt>
<trkpt lat="29.696064" lon="98.594435">
<time>2016-10-07T15:17:12Z</time></trkpt>
<trkpt lat="29.696283" lon="98.594075">
<time>2016-10-07T15:17:13Z</time></trkpt>
<trkpt lat="29.696743" lon="98.593215">
<time>2016-10-07T15:17:14Z</time></trkpt>
<trkpt lat="29.697193" lon="98.592406">
<time>2016-10-07T15:17:15Z</time></trkpt>
<trkpt lat="29.697513" lon="98.591806">
<time>2016-10-07T15:17:16Z</time></trkpt>
<trkpt lat="29.697633" lon="98.591556">
<time>2016-10-07T15:17:17Z</time></trkpt>
<trkpt lat="29.697703" lon="98.591386">
<time>2016-10-07T15:17:18Z</time></trkpt>
<trkpt lat="29.697783" lon="98.591146">
<time>2016-10-07T15:17:19Z</time></trkpt>
<trkpt lat="29.697852" lon="98.590896">
<time>2016-10-07T15:17:20Z</time></trkpt>
<trkpt lat="29.697922" lon="98.590596">
<time>2016-10-07T15:17:21Z</time></trkpt>
<trkpt lat="29.698062" lon="98.589886">
<time>2016-10-07T15:17:22Z</time></trkpt>
<trkpt lat="29.698252" lon="98.588926">
<time>2016-10-07T15:17:23Z</time></trkpt>
<trkpt lat="29.698401" lon="98.588146">
<time>2016-10-07T15:17:24Z</time></trkpt>
<trkpt lat="29.698571" lon="98.587346">
<time>2016-10-07T15:17:25Z</time></trkpt>
<trkpt lat="29.698661" lon="98.586866">
<time>2016-10-07T15:17:26Z</time></trkpt>
<trkpt lat="29.698681" lon="98.586446">
<time>2016-10-07T15:17:27Z</time></trkpt>
<trkpt lat="29.69867" lon="98.586036">
<time>2016-10-07T15:17:28Z</time></trkpt>
<trkpt lat="29.69867" lon="98.585836">
<time>2016-10-07T15:17:29Z</time></trkpt>
<trkpt lat="29.69868" lon="98.585686">
<time>2016-10-07T15:17:30Z</time></trkpt>
<trkpt lat="29.6987" lon="98.585596">
<time>2016-10-07T15:17:31Z</time></trkpt>
<trkpt lat="29.69873" lon="98.585496">
<time>2016-10-07T15:17:32Z</time></trkpt>
<trkpt lat="29.69877" lon="98.585376">
<time>2016-10-07T15:17:33Z</time></trkpt>
<trkpt lat="29.6988" lon="98.585286">
<time>2016-10-07T15:17:34Z</time></trkpt>
<trkpt lat="29.69891" lon="98.584986">
<time>2016-10-07T15:17:35Z</time></trkpt>
<trkpt lat="29.699439" lon="98.583476">
<time>2016-10-07T15:17:36Z</time></trkpt>
<trkpt lat="29.699489" lon="98.583336">
<time>2016-10-07T15:17:37Z</time></trkpt>
<trkpt lat="29.699698" lon="98.582715">
<time>2016-10-07T15:17:38Z</time></trkpt>
<trkpt lat="29.699868" lon="98.582225">
<time>2016-10-07T15:17:39Z</time></trkpt>
<trkpt lat="29.700008" lon="98.581855">
<time>2016-10-07T15:17:40Z</time></trkpt>
<trkpt lat="29.700057" lon="98.581725">
<time>2016-10-07T15:17:41Z</time></trkpt>
<trkpt lat="29.700097" lon="98.581605">
<time>2016-10-07T15:17:42Z</time></trkpt>
<trkpt lat="29.700167" lon="98.581455">
<time>2016-10-07T15:17:43Z</time></trkpt>
<trkpt lat="29.700237" lon="98.581325">
<time>2016-10-07T15:17:44Z</time></trkpt>
<trkpt lat="29.700507" lon="98.580905">
<time>2016-10-07T15:17:45Z</time></trkpt>
<trkpt lat="29.700717" lon="98.580585">
<time>2016-10-07T15:17:46Z</time></trkpt>
<trkpt lat="29.700846" lon="98.580355">
<time>2016-10-07T15:17:47Z</time></trkpt>
<trkpt lat="29.700946" lon="98.580105">
<time>2016-10-07T15:17:48Z</time></trkpt>
<trkpt lat="29.701275" lon="98.579254">
<time>2016-10-07T15:17:49Z</time></trkpt>
<trkpt lat="29.701625" lon="98.578334">
<time>2016-10-07T15:17:50Z</time></trkpt>
<trkpt lat="29.701904" lon="98.577583">
<time>2016-10-07T15:17:51Z</time></trkpt>
<trkpt lat="29.702043" lon="98.577203">
<time>2016-10-07T15:17:52Z</time></trkpt>
<trkpt lat="29.702113" lon="98.576983">
<time>2016-10-07T15:17:53Z</time></trkpt>
<trkpt lat="29.702143" lon="98.576763">
<time>2016-10-07T15:17:54Z</time></trkpt>
<trkpt lat="29.702163" lon="98.576613">
<time>2016-10-07T15:17:55Z</time></trkpt>
<trkpt lat="29.702163" lon="98.576353">
<time>2016-10-07T15:17:56Z</time></trkpt>
<trkpt lat="29.702162" lon="98.575442">
<time>2016-10-07T15:17:57Z</time></trkpt>
<trkpt lat="29.702151" lon="98.574852">
<time>2016-10-07T15:17:58Z</time></trkpt>
<trkpt lat="29.702151" lon="98.574491">
<time>2016-10-07T15:17:59Z</time></trkpt>
<trkpt lat="29.702161" lon="98.574281">
<time>2016-10-07T15:18:00Z</time></trkpt>
<trkpt lat="29.70217" lon="98.574011">
<time>2016-10-07T15:18:01Z</time></trkpt>
<trkpt lat="29.70224" lon="98.573341">
<time>2016-10-07T15:18:02Z</time></trkpt>
<trkpt lat="29.702329" lon="98.57251">
<time>2016-10-07T15:18:03Z</time></trkpt>
<trkpt lat="29.702408" lon="98.571729">
<time>2016-10-07T15:18:04Z</time></trkpt>
<trkpt lat="29.702437" lon="98.571359">
<time>2016-10-07T15:18:05Z</time></trkpt>
<trkpt lat="29.702477" lon="98.571039">
<time>2016-10-07T15:18:06Z</time></trkpt>
<trkpt lat="29.702477" lon="98.570899">
<time>2016-10-07T15:18:07Z</time></trkpt>
<trkpt lat="29.702457" lon="98.570758">
<time>2016-10-07T15:18:08Z</time></trkpt>
<trkpt lat="29.702427" lon="98.570678">
<time>2016-10-07T15:18:09Z</time></trkpt>
<trkpt lat="29.702396" lon="98.570608">
<time>2016-10-07T15:18:10Z</time></trkpt>
<trkpt lat="29.702336" lon="98.570528">
<time>2016-10-07T15:18:11Z</time></trkpt>
<trkpt lat="29.702266" lon="98.570448">
<time>2016-10-07T15:18:12Z</time></trkpt>
<trkpt lat="29.702116" lon="98.570308">
<time>2016-10-07T15:18:13Z</time></trkpt>
<trkpt lat="29.702096" lon="98.570288">
<time>2016-10-07T15:18:14Z</time></trkpt>
<trkpt lat="29.702026" lon="98.570208">
<time>2016-10-07T15:18:15Z</time></trkpt>
<trkpt lat="29.701996" lon="98.570148">
<time>2016-10-07T15:18:16Z</time></trkpt>
<trkpt lat="29.701966" lon="98.570088">
<time>2016-10-07T15:18:17Z</time></trkpt>
<trkpt lat="29.701936" lon="98.569998">
<time>2016-10-07T15:18:18Z</time></trkpt>
<trkpt lat="29.701936" lon="98.569928">
<time>2016-10-07T15:18:19Z</time></trkpt>
<trkpt lat="29.701936" lon="98.569848">
<time>2016-10-07T15:18:20Z</time></trkpt>
<trkpt lat="29.701965" lon="98.569697">
<time>2016-10-07T15:18:21Z</time></trkpt>
<trkpt lat="29.702005" lon="98.569537">
<time>2016-10-07T15:18:22Z</time></trkpt>
<trkpt lat="29.702184" lon="98.568867">
<time>2016-10-07T15:18:23Z</time></trkpt>
<trkpt lat="29.702314" lon="98.568406">
<time>2016-10-07T15:18:24Z</time></trkpt>
<trkpt lat="29.702453" lon="98.567976">
<time>2016-10-07T15:18:25Z</time></trkpt>
<trkpt lat="29.702553" lon="98.567705">
<time>2016-10-07T15:18:26Z</time></trkpt>
<trkpt lat="29.702682" lon="98.567445">
<time>2016-10-07T15:18:27Z</time></trkpt>
<trkpt lat="29.702732" lon="98.567355">
<time>2016-10-07T15:18:28Z</time></trkpt>
<trkpt lat="29.702812" lon="98.567245">
<time>2016-10-07T15:18:29Z</time></trkpt>
<trkpt lat="29.703022" lon="98.566985">
<time>2016-10-07T15:18:30Z</time></trkpt>
<trkpt lat="29.703431" lon="98.566564">
<time>2016-10-07T15:18:31Z</time></trkpt>
<trkpt lat="29.703641" lon="98.566294">
<time>2016-10-07T15:18:32Z</time></trkpt>
<trkpt lat="29.70378" lon="98.566064">
<time>2016-10-07T15:18:33Z</time></trkpt>
<trkpt lat="29.704" lon="98.565693">
<time>2016-10-07T15:18:34Z</time></trkpt>
<trkpt lat="29.704129" lon="98.565433">
<time>2016-10-07T15:18:35Z</time></trkpt>
<trkpt lat="29.704179" lon="98.565243">
<time>2016-10-07T15:18:36Z</time></trkpt>
<trkpt lat="29.704199" lon="98.565093">
<time>2016-10-07T15:18:37Z</time></trkpt>
<trkpt lat="29.704208" lon="98.564812">
<time>2016-10-07T15:18:38Z</time></trkpt>
<trkpt lat="29.704208" lon="98.564612">
<time>2016-10-07T15:18:39Z</time></trkpt>
<trkpt lat="29.704218" lon="98.564492">
<time>2016-10-07T15:18:40Z</time></trkpt>
<trkpt lat="29.704228" lon="98.564432">
<time>2016-10-07T15:18:41Z</time></trkpt>
<trkpt lat="29.704248" lon="98.564362">
<time>2016-10-07T15:18:42Z</time></trkpt>
<trkpt lat="29.704278" lon="98.564302">
<time>2016-10-07T15:18:43Z</time></trkpt>
<trkpt lat="29.704308" lon="98.564231">
<time>2016-10-07T15:18:44Z</time></trkpt>
<trkpt lat="29.704347" lon="98.564151">
<time>2016-10-07T15:18:45Z</time></trkpt>
<trkpt lat="29.704407" lon="98.564071">
<time>2016-10-07T15:18:46Z</time></trkpt>
<trkpt lat="29.704547" lon="98.563921">
<time>2016-10-07T15:18:47Z</time></trkpt>
<trkpt lat="29.704966" lon="98.563511">
<time>2016-10-07T15:18:48Z</time></trkpt>
<trkpt lat="29.705196" lon="98.5633">
<time>2016-10-07T15:18:49Z</time></trkpt>
<trkpt lat="29.705396" lon="98.56309">
<time>2016-10-07T15:18:50Z</time></trkpt>
<trkpt lat="29.705545" lon="98.56288">
<time>2016-10-07T15:18:51Z</time></trkpt>
<trkpt lat="29.705884" lon="98.562329">
<time>2016-10-07T15:18:52Z</time></trkpt>
<trkpt lat="29.706174" lon="98.561919">
<time>2016-10-07T15:18:53Z</time></trkpt>
<trkpt lat="29.706274" lon="98.561778">
<time>2016-10-07T15:18:54Z</time></trkpt>
<trkpt lat="29.706403" lon="98.561658">
<time>2016-10-07T15:18:55Z</time></trkpt>
<trkpt lat="29.706493" lon="98.561598">
<time>2016-10-07T15:18:56Z</time></trkpt>
<trkpt lat="29.706603" lon="98.561538">
<time>2016-10-07T15:18:57Z</time></trkpt>
<trkpt lat="29.706823" lon="98.561468">
<time>2016-10-07T15:18:58Z</time></trkpt>
<trkpt lat="29.707003" lon="98.561398">
<time>2016-10-07T15:18:59Z</time></trkpt>
<trkpt lat="29.707302" lon="98.561258">
<time>2016-10-07T15:19:00Z</time></trkpt>
<trkpt lat="29.707682" lon="98.560947">
<time>2016-10-07T15:19:01Z</time></trkpt>
<trkpt lat="29.707892" lon="98.560747">
<time>2016-10-07T15:19:02Z</time></trkpt>
<trkpt lat="29.708001" lon="98.560607">
<time>2016-10-07T15:19:03Z</time></trkpt>
<trkpt lat="29.708051" lon="98.560517">
<time>2016-10-07T15:19:04Z</time></trkpt>
<trkpt lat="29.708081" lon="98.560436">
<time>2016-10-07T15:19:05Z</time></trkpt>
<trkpt lat="29.708121" lon="98.560336">
<time>2016-10-07T15:19:06Z</time></trkpt>
<trkpt lat="29.708131" lon="98.560236">
<time>2016-10-07T15:19:07Z</time></trkpt>
<trkpt lat="29.70814" lon="98.560096">
<time>2016-10-07T15:19:08Z</time></trkpt>
<trkpt lat="29.70814" lon="98.559966">
<time>2016-10-07T15:19:09Z</time></trkpt>
<trkpt lat="29.70813" lon="98.559866">
<time>2016-10-07T15:19:10Z</time></trkpt>
<trkpt lat="29.70809" lon="98.559735">
<time>2016-10-07T15:19:11Z</time></trkpt>
<trkpt lat="29.70807" lon="98.559645">
<time>2016-10-07T15:19:12Z</time></trkpt>
<trkpt lat="29.708" lon="98.559505">
<time>2016-10-07T15:19:13Z</time></trkpt>
<trkpt lat="29.707869" lon="98.559255">
<time>2016-10-07T15:19:14Z</time></trkpt>
<trkpt lat="29.707548" lon="98.558724">
<time>2016-10-07T15:19:15Z</time></trkpt>
<trkpt lat="29.707297" lon="98.558203">
<time>2016-10-07T15:19:16Z</time></trkpt>
<trkpt lat="29.707036" lon="98.557582">
<time>2016-10-07T15:19:17Z</time></trkpt>
<trkpt lat="29.706826" lon="98.557051">
<time>2016-10-07T15:19:18Z</time></trkpt>
<trkpt lat="29.706665" lon="98.556641">
<time>2016-10-07T15:19:19Z</time></trkpt>
<trkpt lat="29.706594" lon="98.55644">
<time>2016-10-07T15:19:20Z</time></trkpt>
<trkpt lat="29.706544" lon="98.55627">
<time>2016-10-07T15:19:21Z</time></trkpt>
<trkpt lat="29.706514" lon="98.55613">
<time>2016-10-07T15:19:22Z</time></trkpt>
<trkpt lat="29.706484" lon="98.55595">
<time>2016-10-07T15:19:23Z</time></trkpt>
<trkpt lat="29.706463" lon="98.555829">
<time>2016-10-07T15:19:24Z</time></trkpt>
<trkpt lat="29.706443" lon="98.555639">
<time>2016-10-07T15:19:25Z</time></trkpt>
<trkpt lat="29.706433" lon="98.555439">
<time>2016-10-07T15:19:26Z</time></trkpt>
<trkpt lat="29.706423" lon="98.555379">
<time>2016-10-07T15:19:27Z</time></trkpt>
<trkpt lat="29.706392" lon="98.555309">
<time>2016-10-07T15:19:28Z</time></trkpt>
<trkpt lat="29.706372" lon="98.555259">
<time>2016-10-07T15:19:29Z</time></trkpt>
<trkpt lat="29.706342" lon="98.555229">
<time>2016-10-07T15:19:30Z</time></trkpt>
<trkpt lat="29.706322" lon="98.555208">
<time>2016-10-07T15:19:31Z</time></trkpt>
<trkpt lat="29.706292" lon="98.555188">
<time>2016-10-07T15:19:32Z</time></trkpt>
<trkpt lat="29.706262" lon="98.555178">
<time>2016-10-07T15:19:33Z</time></trkpt>
<trkpt lat="29.706222" lon="98.555168">
<time>2016-10-07T15:19:34Z</time></trkpt>
<trkpt lat="29.706192" lon="98.555168">
<time>2016-10-07T15:19:35Z</time></trkpt>
<trkpt lat="29.706152" lon="98.555178">
<time>2016-10-07T15:19:36Z</time></trkpt>
<trkpt lat="29.706122" lon="98.555188">
<time>2016-10-07T15:19:37Z</time></trkpt>
<trkpt lat="29.706092" lon="98.555218">
<time>2016-10-07T15:19:38Z</time></trkpt>
<trkpt lat="29.706072" lon="98.555249">
<time>2016-10-07T15:19:39Z</time></trkpt>
<trkpt lat="29.706043" lon="98.555289">
<time>2016-10-07T15:19:40Z</time></trkpt>
<trkpt lat="29.706033" lon="98.555329">
<time>2016-10-07T15:19:41Z</time></trkpt>
<trkpt lat="29.706023" lon="98.555399">
<time>2016-10-07T15:19:42Z</time></trkpt>
<trkpt lat="29.706023" lon="98.555449">
<time>2016-10-07T15:19:43Z</time></trkpt>
<trkpt lat="29.706023" lon="98.555529">
<time>2016-10-07T15:19:44Z</time></trkpt>
<trkpt lat="29.706043" lon="98.555769">
<time>2016-10-07T15:19:45Z</time></trkpt>
<trkpt lat="29.706054" lon="98.55601">
<time>2016-10-07T15:19:46Z</time></trkpt>
<trkpt lat="29.706064" lon="98.55629">
<time>2016-10-07T15:19:47Z</time></trkpt>
<trkpt lat="29.706085" lon="98.556561">
<time>2016-10-07T15:19:48Z</time></trkpt>
<trkpt lat="29.706136" lon="98.557102">
<time>2016-10-07T15:19:49Z</time></trkpt>
<trkpt lat="29.706166" lon="98.557372">
<time>2016-10-07T15:19:50Z</time></trkpt>
<trkpt lat="29.706227" lon="98.557642">
<time>2016-10-07T15:19:51Z</time></trkpt>
<trkpt lat="29.706267" lon="98.557783">
<time>2016-10-07T15:19:52Z</time></trkpt>
<trkpt lat="29.706327" lon="98.557973">
<time>2016-10-07T15:19:53Z</time></trkpt>
<trkpt lat="29.706367" lon="98.558103">
<time>2016-10-07T15:19:54Z</time></trkpt>
<trkpt lat="29.706388" lon="98.558193">
<time>2016-10-07T15:19:55Z</time></trkpt>
<trkpt lat="29.706448" lon="98.558444">
<time>2016-10-07T15:19:56Z</time></trkpt>
<trkpt lat="29.706488" lon="98.558714">
<time>2016-10-07T15:19:57Z</time></trkpt>
<trkpt lat="29.706549" lon="98.559225">
<time>2016-10-07T15:19:58Z</time></trkpt>
<trkpt lat="29.70656" lon="98.559425">
<time>2016-10-07T15:19:59Z</time></trkpt>
<trkpt lat="29.70655" lon="98.559495">
<time>2016-10-07T15:20:00Z</time></trkpt>
<trkpt lat="29.70653" lon="98.559535">
<time>2016-10-07T15:20:01Z</time></trkpt>
<trkpt lat="29.70651" lon="98.559575">
<time>2016-10-07T15:20:02Z</time></trkpt>
<trkpt lat="29.70648" lon="98.559595">
<time>2016-10-07T15:20:03Z</time></trkpt>
<trkpt lat="29.70646" lon="98.559605">
<time>2016-10-07T15:20:04Z</time></trkpt>
<trkpt lat="29.70643" lon="98.559625">
<time>2016-10-07T15:20:05Z</time></trkpt>
<trkpt lat="29.7064" lon="98.559625">
<time>2016-10-07T15:20:06Z</time></trkpt>
<trkpt lat="29.70637" lon="98.559625">
<time>2016-10-07T15:20:07Z</time></trkpt>
<trkpt lat="29.70634" lon="98.559615">
<time>2016-10-07T15:20:08Z</time></trkpt>
<trkpt lat="29.70631" lon="98.559595">
<time>2016-10-07T15:20:09Z</time></trkpt>
<trkpt lat="29.70628" lon="98.559575">
<time>2016-10-07T15:20:10Z</time></trkpt>
<trkpt lat="29.70627" lon="98.559545">
<time>2016-10-07T15:20:11Z</time></trkpt>
<trkpt lat="29.70623" lon="98.559435">
<time>2016-10-07T15:20:12Z</time></trkpt>
<trkpt lat="29.70621" lon="98.559335">
<time>2016-10-07T15:20:13Z</time></trkpt>
<trkpt lat="29.706199" lon="98.559095">
<time>2016-10-07T15:20:14Z</time></trkpt>
<trkpt lat="29.706179" lon="98.558884">
<time>2016-10-07T15:20:15Z</time></trkpt>
<trkpt lat="29.706119" lon="98.558724">
<time>2016-10-07T15:20:16Z</time></trkpt>
<trkpt lat="29.706048" lon="98.558544">
<time>2016-10-07T15:20:17Z</time></trkpt>
<trkpt lat="29.705918" lon="98.558343">
<time>2016-10-07T15:20:18Z</time></trkpt>
<trkpt lat="29.705818" lon="98.558193">
<time>2016-10-07T15:20:19Z</time></trkpt>
<trkpt lat="29.705597" lon="98.557863">
<time>2016-10-07T15:20:20Z</time></trkpt>
<trkpt lat="29.705447" lon="98.557612">
<time>2016-10-07T15:20:21Z</time></trkpt>
<trkpt lat="29.705226" lon="98.557272">
<time>2016-10-07T15:20:22Z</time></trkpt>
<trkpt lat="29.705166" lon="98.557142">
<time>2016-10-07T15:20:23Z</time></trkpt>
<trkpt lat="29.705116" lon="98.557031">
<time>2016-10-07T15:20:24Z</time></trkpt>
<trkpt lat="29.705076" lon="98.556941">
<time>2016-10-07T15:20:25Z</time></trkpt>
<trkpt lat="29.705025" lon="98.556791">
<time>2016-10-07T15:20:26Z</time></trkpt>
<trkpt lat="29.704945" lon="98.556521">
<time>2016-10-07T15:20:27Z</time></trkpt>
<trkpt lat="29.704724" lon="98.555809">
<time>2016-10-07T15:20:28Z</time></trkpt>
<trkpt lat="29.704633" lon="98.555499">
<time>2016-10-07T15:20:29Z</time></trkpt>
<trkpt lat="29.704573" lon="98.555269">
<time>2016-10-07T15:20:30Z</time></trkpt>
<trkpt lat="29.704512" lon="98.555018">
<time>2016-10-07T15:20:31Z</time></trkpt>
<trkpt lat="29.704482" lon="98.554828">
<time>2016-10-07T15:20:32Z</time></trkpt>
<trkpt lat="29.704472" lon="98.554708">
<time>2016-10-07T15:20:33Z</time></trkpt>
<trkpt lat="29.704461" lon="98.554577">
<time>2016-10-07T15:20:34Z</time></trkpt>
<trkpt lat="29.704481" lon="98.554457">
<time>2016-10-07T15:20:35Z</time></trkpt>
<trkpt lat="29.704491" lon="98.554277">
<time>2016-10-07T15:20:36Z</time></trkpt>
<trkpt lat="29.70458" lon="98.553746">
<time>2016-10-07T15:20:37Z</time></trkpt>
<trkpt lat="29.704619" lon="98.553385">
<time>2016-10-07T15:20:38Z</time></trkpt>
<trkpt lat="29.704629" lon="98.553205">
<time>2016-10-07T15:20:39Z</time></trkpt>
<trkpt lat="29.704618" lon="98.553005">
<time>2016-10-07T15:20:40Z</time></trkpt>
<trkpt lat="29.704588" lon="98.552764">
<time>2016-10-07T15:20:41Z</time></trkpt>
<trkpt lat="29.704518" lon="98.552534">
<time>2016-10-07T15:20:42Z</time></trkpt>
<trkpt lat="29.704437" lon="98.552344">
<time>2016-10-07T15:20:43Z</time></trkpt>
<trkpt lat="29.704327" lon="98.552103">
<time>2016-10-07T15:20:44Z</time></trkpt>
<trkpt lat="29.704186" lon="98.551803">
<time>2016-10-07T15:20:45Z</time></trkpt>
<trkpt lat="29.704016" lon="98.551532">
<time>2016-10-07T15:20:46Z</time></trkpt>
<trkpt lat="29.703715" lon="98.551101">
<time>2016-10-07T15:20:47Z</time></trkpt>
<trkpt lat="29.703484" lon="98.550791">
<time>2016-10-07T15:20:48Z</time></trkpt>
<trkpt lat="29.703264" lon="98.55051">
<time>2016-10-07T15:20:49Z</time></trkpt>
<trkpt lat="29.703083" lon="98.55028">
<time>2016-10-07T15:20:50Z</time></trkpt>
<trkpt lat="29.702933" lon="98.55013">
<time>2016-10-07T15:20:51Z</time></trkpt>
<trkpt lat="29.702783" lon="98.549999">
<time>2016-10-07T15:20:52Z</time></trkpt>
<trkpt lat="29.702573" lon="98.549859">
<time>2016-10-07T15:20:53Z</time></trkpt>
<trkpt lat="29.702252" lon="98.549649">
<time>2016-10-07T15:20:54Z</time></trkpt>
<trkpt lat="29.701682" lon="98.549258">
<time>2016-10-07T15:20:55Z</time></trkpt>
<trkpt lat="29.701511" lon="98.549148">
<time>2016-10-07T15:20:56Z</time></trkpt>
<trkpt lat="29.701381" lon="98.549038">
<time>2016-10-07T15:20:57Z</time></trkpt>
<trkpt lat="29.701241" lon="98.548907">
<time>2016-10-07T15:20:58Z</time></trkpt>
<trkpt lat="29.701121" lon="98.548767">
<time>2016-10-07T15:20:59Z</time></trkpt>
<trkpt lat="29.70102" lon="98.548627">
<time>2016-10-07T15:21:00Z</time></trkpt>
<trkpt lat="29.70093" lon="98.548456">
<time>2016-10-07T15:21:01Z</time></trkpt>
<trkpt lat="29.70085" lon="98.548266">
<time>2016-10-07T15:21:02Z</time></trkpt>
<trkpt lat="29.700468" lon="98.547324">
<time>2016-10-07T15:21:03Z</time></trkpt>
<trkpt lat="29.700267" lon="98.546803">
<time>2016-10-07T15:21:04Z</time></trkpt>
<trkpt lat="29.700196" lon="98.546643">
<time>2016-10-07T15:21:05Z</time></trkpt>
<trkpt lat="29.700126" lon="98.546452">
<time>2016-10-07T15:21:06Z</time></trkpt>
<trkpt lat="29.700036" lon="98.546292">
<time>2016-10-07T15:21:07Z</time></trkpt>
<trkpt lat="29.699925" lon="98.546142">
<time>2016-10-07T15:21:08Z</time></trkpt>
<trkpt lat="29.699805" lon="98.546012">
<time>2016-10-07T15:21:09Z</time></trkpt>
<trkpt lat="29.699675" lon="98.545901">
<time>2016-10-07T15:21:10Z</time></trkpt>
<trkpt lat="29.699525" lon="98.545791">
<time>2016-10-07T15:21:11Z</time></trkpt>
<trkpt lat="29.699374" lon="98.545681">
<time>2016-10-07T15:21:12Z</time></trkpt>
<trkpt lat="29.699244" lon="98.545581">
<time>2016-10-07T15:21:13Z</time></trkpt>
<trkpt lat="29.699104" lon="98.54546">
<time>2016-10-07T15:21:14Z</time></trkpt>
<trkpt lat="29.698954" lon="98.5453">
<time>2016-10-07T15:21:15Z</time></trkpt>
<trkpt lat="29.698884" lon="98.5452">
<time>2016-10-07T15:21:16Z</time></trkpt>
<trkpt lat="29.698813" lon="98.54505">
<time>2016-10-07T15:21:17Z</time></trkpt>
<trkpt lat="29.698763" lon="98.544899">
<time>2016-10-07T15:21:18Z</time></trkpt>
<trkpt lat="29.698723" lon="98.544749">
<time>2016-10-07T15:21:19Z</time></trkpt>
<trkpt lat="29.698692" lon="98.544609">
<time>2016-10-07T15:21:20Z</time></trkpt>
<trkpt lat="29.698662" lon="98.544418">
<time>2016-10-07T15:21:21Z</time></trkpt>
<trkpt lat="29.698611" lon="98.544238">
<time>2016-10-07T15:21:22Z</time></trkpt>
<trkpt lat="29.698601" lon="98.544168">
<time>2016-10-07T15:21:23Z</time></trkpt>
<trkpt lat="29.698571" lon="98.544098">
<time>2016-10-07T15:21:24Z</time></trkpt>
<trkpt lat="29.698541" lon="98.544047">
<time>2016-10-07T15:21:25Z</time></trkpt>
<trkpt lat="29.698511" lon="98.543997">
<time>2016-10-07T15:21:26Z</time></trkpt>
<trkpt lat="29.698471" lon="98.543977">
<time>2016-10-07T15:21:27Z</time></trkpt>
<trkpt lat="29.698451" lon="98.543967">
<time>2016-10-07T15:21:28Z</time></trkpt>
<trkpt lat="29.698421" lon="98.543957">
<time>2016-10-07T15:21:29Z</time></trkpt>
<trkpt lat="29.698381" lon="98.543967">
<time>2016-10-07T15:21:30Z</time></trkpt>
<trkpt lat="29.698341" lon="98.543987">
<time>2016-10-07T15:21:31Z</time></trkpt>
<trkpt lat="29.698301" lon="98.544017">
<time>2016-10-07T15:21:32Z</time></trkpt>
<trkpt lat="29.698271" lon="98.544047">
<time>2016-10-07T15:21:33Z</time></trkpt>
<trkpt lat="29.698251" lon="98.544098">
<time>2016-10-07T15:21:34Z</time></trkpt>
<trkpt lat="29.698231" lon="98.544168">
<time>2016-10-07T15:21:35Z</time></trkpt>
<trkpt lat="29.698221" lon="98.544228">
<time>2016-10-07T15:21:36Z</time></trkpt>
<trkpt lat="29.698222" lon="98.544308">
<time>2016-10-07T15:21:37Z</time></trkpt>
<trkpt lat="29.698222" lon="98.544468">
<time>2016-10-07T15:21:38Z</time></trkpt>
<trkpt lat="29.698233" lon="98.544769">
<time>2016-10-07T15:21:39Z</time></trkpt>
<trkpt lat="29.698253" lon="98.544899">
<time>2016-10-07T15:21:40Z</time></trkpt>
<trkpt lat="29.698273" lon="98.544969">
<time>2016-10-07T15:21:41Z</time></trkpt>
<trkpt lat="29.698323" lon="98.54512">
<time>2016-10-07T15:21:42Z</time></trkpt>
<trkpt lat="29.698394" lon="98.5453">
<time>2016-10-07T15:21:43Z</time></trkpt>
<trkpt lat="29.698484" lon="98.54548">
<time>2016-10-07T15:21:44Z</time></trkpt>
<trkpt lat="29.698575" lon="98.545681">
<time>2016-10-07T15:21:45Z</time></trkpt>
<trkpt lat="29.698715" lon="98.545931">
<time>2016-10-07T15:21:46Z</time></trkpt>
<trkpt lat="29.698856" lon="98.546142">
<time>2016-10-07T15:21:47Z</time></trkpt>
<trkpt lat="29.698966" lon="98.546272">
<time>2016-10-07T15:21:48Z</time></trkpt>
<trkpt lat="29.699106" lon="98.546472">
<time>2016-10-07T15:21:49Z</time></trkpt>
<trkpt lat="29.699206" lon="98.546603">
<time>2016-10-07T15:21:50Z</time></trkpt>
<trkpt lat="29.699257" lon="98.546703">
<time>2016-10-07T15:21:51Z</time></trkpt>
<trkpt lat="29.699287" lon="98.546813">
<time>2016-10-07T15:21:52Z</time></trkpt>
<trkpt lat="29.699307" lon="98.546903">
<time>2016-10-07T15:21:53Z</time></trkpt>
<trkpt lat="29.699317" lon="98.547024">
<time>2016-10-07T15:21:54Z</time></trkpt>
<trkpt lat="29.699308" lon="98.547324">
<time>2016-10-07T15:21:55Z</time></trkpt>
<trkpt lat="29.699299" lon="98.547685">
<time>2016-10-07T15:21:56Z</time></trkpt>
<trkpt lat="29.699289" lon="98.547986">
<time>2016-10-07T15:21:57Z</time></trkpt>
<trkpt lat="29.6993" lon="98.548326">
<time>2016-10-07T15:21:58Z</time></trkpt>
<trkpt lat="29.699341" lon="98.548627">
<time>2016-10-07T15:21:59Z</time></trkpt>
<trkpt lat="29.699371" lon="98.548767">
<time>2016-10-07T15:22:00Z</time></trkpt>
<trkpt lat="29.699391" lon="98.548897">
<time>2016-10-07T15:22:01Z</time></trkpt>
<trkpt lat="29.699401" lon="98.548987">
<time>2016-10-07T15:22:02Z</time></trkpt>
<trkpt lat="29.699412" lon="98.549058">
<time>2016-10-07T15:22:03Z</time></trkpt>
<trkpt lat="29.699402" lon="98.549118">
<time>2016-10-07T15:22:04Z</time></trkpt>
<trkpt lat="29.699382" lon="98.549168">
<time>2016-10-07T15:22:05Z</time></trkpt>
<trkpt lat="29.699352" lon="98.549208">
<time>2016-10-07T15:22:06Z</time></trkpt>
<trkpt lat="29.699322" lon="98.549238">
<time>2016-10-07T15:22:07Z</time></trkpt>
<trkpt lat="29.699302" lon="98.549248">
<time>2016-10-07T15:22:08Z</time></trkpt>
<trkpt lat="29.699282" lon="98.549258">
<time>2016-10-07T15:22:09Z</time></trkpt>
<trkpt lat="29.699252" lon="98.549258">
<time>2016-10-07T15:22:10Z</time></trkpt>
<trkpt lat="29.699212" lon="98.549258">
<time>2016-10-07T15:22:11Z</time></trkpt>
<trkpt lat="29.699182" lon="98.549238">
<time>2016-10-07T15:22:12Z</time></trkpt>
<trkpt lat="29.699152" lon="98.549228">
<time>2016-10-07T15:22:13Z</time></trkpt>
<trkpt lat="29.699132" lon="98.549208">
<time>2016-10-07T15:22:14Z</time></trkpt>
<trkpt lat="29.699112" lon="98.549178">
<time>2016-10-07T15:22:15Z</time></trkpt>
<trkpt lat="29.699072" lon="98.549118">
<time>2016-10-07T15:22:16Z</time></trkpt>
<trkpt lat="29.699062" lon="98.549088">
<time>2016-10-07T15:22:17Z</time></trkpt>
<trkpt lat="29.699052" lon="98.549048">
<time>2016-10-07T15:22:18Z</time></trkpt>
<trkpt lat="29.699031" lon="98.548877">
<time>2016-10-07T15:22:19Z</time></trkpt>
<trkpt lat="29.699031" lon="98.548667">
<time>2016-10-07T15:22:20Z</time></trkpt>
<trkpt lat="29.699" lon="98.548446">
<time>2016-10-07T15:22:21Z</time></trkpt>
<trkpt lat="29.69898" lon="98.548196">
<time>2016-10-07T15:22:22Z</time></trkpt>
<trkpt lat="29.69895" lon="98.548036">
<time>2016-10-07T15:22:23Z</time></trkpt>
<trkpt lat="29.698899" lon="98.547865">
<time>2016-10-07T15:22:24Z</time></trkpt>
<trkpt lat="29.698839" lon="98.547695">
<time>2016-10-07T15:22:25Z</time></trkpt>
<trkpt lat="29.698779" lon="98.547535">
<time>2016-10-07T15:22:26Z</time></trkpt>
<trkpt lat="29.698678" lon="98.547354">
<time>2016-10-07T15:22:27Z</time></trkpt>
<trkpt lat="29.698618" lon="98.547254">
<time>2016-10-07T15:22:28Z</time></trkpt>
<trkpt lat="29.698568" lon="98.547174">
<time>2016-10-07T15:22:29Z</time></trkpt>
<trkpt lat="29.698508" lon="98.547104">
<time>2016-10-07T15:22:30Z</time></trkpt>
<trkpt lat="29.698438" lon="98.547024">
<time>2016-10-07T15:22:31Z</time></trkpt>
<trkpt lat="29.698357" lon="98.546953">
<time>2016-10-07T15:22:32Z</time></trkpt>
<trkpt lat="29.698257" lon="98.546893">
<time>2016-10-07T15:22:33Z</time></trkpt>
<trkpt lat="29.697727" lon="98.546573">
<time>2016-10-07T15:22:34Z</time></trkpt>
<trkpt lat="29.697316" lon="98.546332">
<time>2016-10-07T15:22:35Z</time></trkpt>
<trkpt lat="29.697146" lon="98.546212">
<time>2016-10-07T15:22:36Z</time></trkpt>
<trkpt lat="29.697056" lon="98.546122">
<time>2016-10-07T15:22:37Z</time></trkpt>
<trkpt lat="29.696986" lon="98.546042">
<time>2016-10-07T15:22:38Z</time></trkpt>
<trkpt lat="29.696936" lon="98.545961">
<time>2016-10-07T15:22:39Z</time></trkpt>
<trkpt lat="29.696885" lon="98.545871">
<time>2016-10-07T15:22:40Z</time></trkpt>
<trkpt lat="29.696835" lon="98.545741">
<time>2016-10-07T15:22:41Z</time></trkpt>
<trkpt lat="29.696795" lon="98.545601">
<time>2016-10-07T15:22:42Z</time></trkpt>
<trkpt lat="29.696765" lon="98.54547">
<time>2016-10-07T15:22:43Z</time></trkpt>
<trkpt lat="29.696704" lon="98.54511">
<time>2016-10-07T15:22:44Z</time></trkpt>
<trkpt lat="29.696673" lon="98.544919">
<time>2016-10-07T15:22:45Z</time></trkpt>
<trkpt lat="29.696633" lon="98.544709">
<time>2016-10-07T15:22:46Z</time></trkpt>
<trkpt lat="29.696592" lon="98.544529">
<time>2016-10-07T15:22:47Z</time></trkpt>
<trkpt lat="29.696512" lon="98.544308">
<time>2016-10-07T15:22:48Z</time></trkpt>
<trkpt lat="29.696432" lon="98.544158">
<time>2016-10-07T15:22:49Z</time></trkpt>
<trkpt lat="29.696351" lon="98.544047">
<time>2016-10-07T15:22:50Z</time></trkpt>
<trkpt lat="29.696281" lon="98.543957">
<time>2016-10-07T15:22:51Z</time></trkpt>
<trkpt lat="29.696221" lon="98.543877">
<time>2016-10-07T15:22:52Z</time></trkpt>
<trkpt lat="29.696151" lon="98.543817">
<time>2016-10-07T15:22:53Z</time></trkpt>
<trkpt lat="29.696031" lon="98.543727">
<time>2016-10-07T15:22:54Z</time></trkpt>
<trkpt lat="29.695951" lon="98.543667">
<time>2016-10-07T15:22:55Z</time></trkpt>
<trkpt lat="29.695841" lon="98.543617">
<time>2016-10-07T15:22:56Z</time></trkpt>
<trkpt lat="29.695721" lon="98.543577">
<time>2016-10-07T15:22:57Z</time></trkpt>
<trkpt lat="29.6956" lon="98.543536">
<time>2016-10-07T15:22:58Z</time></trkpt>
<trkpt lat="29.69534" lon="98.543466">
<time>2016-10-07T15:22:59Z</time></trkpt>
<trkpt lat="29.69524" lon="98.543426">
<time>2016-10-07T15:23:00Z</time></trkpt>
<trkpt lat="29.69515" lon="98.543386">
<time>2016-10-07T15:23:01Z</time></trkpt>
<trkpt lat="29.69507" lon="98.543336">
<time>2016-10-07T15:23:02Z</time></trkpt>
<trkpt lat="29.695" lon="98.543286">
<time>2016-10-07T15:23:03Z</time></trkpt>
<trkpt lat="29.69493" lon="98.543226">
<time>2016-10-07T15:23:04Z</time></trkpt>
<trkpt lat="29.69485" lon="98.543146">
<time>2016-10-07T15:23:05Z</time></trkpt>
<trkpt lat="29.694709" lon="98.542965">
<time>2016-10-07T15:23:06Z</time></trkpt>
<trkpt lat="29.694519" lon="98.542705">
<time>2016-10-07T15:23:07Z</time></trkpt>
<trkpt lat="29.694158" lon="98.542204">
<time>2016-10-07T15:23:08Z</time></trkpt>
<trkpt lat="29.694108" lon="98.542123">
<time>2016-10-07T15:23:09Z</time></trkpt>
<trkpt lat="29.694037" lon="98.542003">
<time>2016-10-07T15:23:10Z</time></trkpt>
<trkpt lat="29.693987" lon="98.541893">
<time>2016-10-07T15:23:11Z</time></trkpt>
<trkpt lat="29.693937" lon="98.541722">
<time>2016-10-07T15:23:12Z</time></trkpt>
<trkpt lat="29.693896" lon="98.541502">
<time>2016-10-07T15:23:13Z</time></trkpt>
<trkpt lat="29.693785" lon="98.540981">
<time>2016-10-07T15:23:14Z</time></trkpt>
<trkpt lat="29.693755" lon="98.540851">
<time>2016-10-07T15:23:15Z</time></trkpt>
<trkpt lat="29.693724" lon="98.54073">
<time>2016-10-07T15:23:16Z</time></trkpt>
<trkpt lat="29.693694" lon="98.54066">
<time>2016-10-07T15:23:17Z</time></trkpt>
<trkpt lat="29.693684" lon="98.54063">
<time>2016-10-07T15:23:18Z</time></trkpt>
<trkpt lat="29.693664" lon="98.54059">
<time>2016-10-07T15:23:19Z</time></trkpt>
<trkpt lat="29.693644" lon="98.54056">
<time>2016-10-07T15:23:20Z</time></trkpt>
<trkpt lat="29.693624" lon="98.54054">
<time>2016-10-07T15:23:21Z</time></trkpt>
<trkpt lat="29.693604" lon="98.54052">
<time>2016-10-07T15:23:22Z</time></trkpt>
<trkpt lat="29.693584" lon="98.54051">
<time>2016-10-07T15:23:23Z</time></trkpt>
<trkpt lat="29.693564" lon="98.54051">
<time>2016-10-07T15:23:24Z</time></trkpt>
<trkpt lat="29.693544" lon="98.5405">
<time>2016-10-07T15:23:25Z</time></trkpt>
<trkpt lat="29.693514" lon="98.5405">
<time>2016-10-07T15:23:26Z</time></trkpt>
<trkpt lat="29.693474" lon="98.54051">
<time>2016-10-07T15:23:27Z</time></trkpt>
<trkpt lat="29.693454" lon="98.54052">
<time>2016-10-07T15:23:28Z</time></trkpt>
<trkpt lat="29.693434" lon="98.54054">
<time>2016-10-07T15:23:29Z</time></trkpt>
<trkpt lat="29.693414" lon="98.54056">
<time>2016-10-07T15:23:30Z</time></trkpt>
<trkpt lat="29.693394" lon="98.54059">
<time>2016-10-07T15:23:31Z</time></trkpt>
<trkpt lat="29.693384" lon="98.54061">
<time>2016-10-07T15:23:32Z</time></trkpt>
<trkpt lat="29.693364" lon="98.54069">
<time>2016-10-07T15:23:33Z</time></trkpt>
<trkpt lat="29.693345" lon="98.54081">
<time>2016-10-07T15:23:34Z</time></trkpt>
<trkpt lat="29.693345" lon="98.540931">
<time>2016-10-07T15:23:35Z</time></trkpt>
<trkpt lat="29.693345" lon="98.541181">
<time>2016-10-07T15:23:36Z</time></trkpt>
<trkpt lat="29.693346" lon="98.541382">
<time>2016-10-07T15:23:37Z</time></trkpt>
<trkpt lat="29.693356" lon="98.541582">
<time>2016-10-07T15:23:38Z</time></trkpt>
<trkpt lat="29.693357" lon="98.541903">
<time>2016-10-07T15:23:39Z</time></trkpt>
<trkpt lat="29.693369" lon="98.542524">
<time>2016-10-07T15:23:40Z</time></trkpt>
<trkpt lat="29.693379" lon="98.542865">
<time>2016-10-07T15:23:41Z</time></trkpt>
<trkpt lat="29.69338" lon="98.543186">
<time>2016-10-07T15:23:42Z</time></trkpt>
<trkpt lat="29.693391" lon="98.543737">
<time>2016-10-07T15:23:43Z</time></trkpt>
<trkpt lat="29.693412" lon="98.544168">
<time>2016-10-07T15:23:44Z</time></trkpt>
<trkpt lat="29.693423" lon="98.544278">
<time>2016-10-07T15:23:45Z</time></trkpt>
<trkpt lat="29.693433" lon="98.544368">
<time>2016-10-07T15:23:46Z</time></trkpt>
<trkpt lat="29.693453" lon="98.544458">
<time>2016-10-07T15:23:47Z</time></trkpt>
<trkpt lat="29.693493" lon="98.544539">
<time>2016-10-07T15:23:48Z</time></trkpt>
<trkpt lat="29.693533" lon="98.544619">
<time>2016-10-07T15:23:49Z</time></trkpt>
<trkpt lat="29.693573" lon="98.544679">
<time>2016-10-07T15:23:50Z</time></trkpt>
<trkpt lat="29.693624" lon="98.544739">
<time>2016-10-07T15:23:51Z</time></trkpt>
<trkpt lat="29.693734" lon="98.544829">
<time>2016-10-07T15:23:52Z</time></trkpt>
<trkpt lat="29.693894" lon="98.544949">
<time>2016-10-07T15:23:53Z</time></trkpt>
<trkpt lat="29.694054" lon="98.54506">
<time>2016-10-07T15:23:54Z</time></trkpt>
<trkpt lat="29.694264" lon="98.54521">
<time>2016-10-07T15:23:55Z</time></trkpt>
<trkpt lat="29.694375" lon="98.54528">
<time>2016-10-07T15:23:56Z</time></trkpt>
<trkpt lat="29.694435" lon="98.54534">
<time>2016-10-07T15:23:57Z</time></trkpt>
<trkpt lat="29.694475" lon="98.54538">
<time>2016-10-07T15:23:58Z</time></trkpt>
<trkpt lat="29.694495" lon="98.54542">
<time>2016-10-07T15:23:59Z</time></trkpt>
<trkpt lat="29.694515" lon="98.54545">
<time>2016-10-07T15:24:00Z</time></trkpt>
<trkpt lat="29.694535" lon="98.545481">
<time>2016-10-07T15:24:01Z</time></trkpt>
<trkpt lat="29.694535" lon="98.545521">
<time>2016-10-07T15:24:02Z</time></trkpt>
<trkpt lat="29.694535" lon="98.545581">
<time>2016-10-07T15:24:03Z</time></trkpt>
<trkpt lat="29.694525" lon="98.545611">
<time>2016-10-07T15:24:04Z</time></trkpt>
<trkpt lat="29.694505" lon="98.545651">
<time>2016-10-07T15:24:05Z</time></trkpt>
<trkpt lat="29.694485" lon="98.545691">
<time>2016-10-07T15:24:06Z</time></trkpt>
<trkpt lat="29.694445" lon="98.545711">
<time>2016-10-07T15:24:07Z</time></trkpt>
<trkpt lat="29.694406" lon="98.545741">
<time>2016-10-07T15:24:08Z</time></trkpt>
<trkpt lat="29.694376" lon="98.545751">
<time>2016-10-07T15:24:09Z</time></trkpt>
<trkpt lat="29.694326" lon="98.545751">
<time>2016-10-07T15:24:10Z</time></trkpt>
<trkpt lat="29.694266" lon="98.545741">
<time>2016-10-07T15:24:11Z</time></trkpt>
<trkpt lat="29.694175" lon="98.545691">
<time>2016-10-07T15:24:12Z</time></trkpt>
<trkpt lat="29.694085" lon="98.545631">
<time>2016-10-07T15:24:13Z</time></trkpt>
<trkpt lat="29.693825" lon="98.54544">
<time>2016-10-07T15:24:14Z</time></trkpt>
<trkpt lat="29.693575" lon="98.54528">
<time>2016-10-07T15:24:15Z</time></trkpt>
<trkpt lat="29.693064" lon="98.544949">
<time>2016-10-07T15:24:16Z</time></trkpt>
<trkpt lat="29.692764" lon="98.544749">
<time>2016-10-07T15:24:17Z</time></trkpt>
<trkpt lat="29.692593" lon="98.544629">
<time>2016-10-07T15:24:18Z</time></trkpt>
<trkpt lat="29.692463" lon="98.544519">
<time>2016-10-07T15:24:19Z</time></trkpt>
<trkpt lat="29.692363" lon="98.544418">
<time>2016-10-07T15:24:20Z</time></trkpt>
<trkpt lat="29.692283" lon="98.544308">
<time>2016-10-07T15:24:21Z</time></trkpt>
<trkpt lat="29.692203" lon="98.544198">
<time>2016-10-07T15:24:22Z</time></trkpt>
<trkpt lat="29.692112" lon="98.544018">
<time>2016-10-07T15:24:23Z</time></trkpt>
<trkpt lat="29.691851" lon="98.543516">
<time>2016-10-07T15:24:24Z</time></trkpt>
<trkpt lat="29.69147" lon="98.542805">
<time>2016-10-07T15:24:25Z</time></trkpt>
<trkpt lat="29.691349" lon="98.542554">
<time>2016-10-07T15:24:26Z</time></trkpt>
<trkpt lat="29.691269" lon="98.542314">
<time>2016-10-07T15:24:27Z</time></trkpt>
<trkpt lat="29.691208" lon="98.542103">
<time>2016-10-07T15:24:28Z</time></trkpt>
<trkpt lat="29.691026" lon="98.541262">
<time>2016-10-07T15:24:29Z</time></trkpt>
<trkpt lat="29.690844" lon="98.54037">
<time>2016-10-07T15:24:30Z</time></trkpt>
<trkpt lat="29.690763" lon="98.539979">
<time>2016-10-07T15:24:31Z</time></trkpt>
<trkpt lat="29.690703" lon="98.539708">
<time>2016-10-07T15:24:32Z</time></trkpt>
<trkpt lat="29.690672" lon="98.539528">
<time>2016-10-07T15:24:33Z</time></trkpt>
<trkpt lat="29.690672" lon="98.539457">
<time>2016-10-07T15:24:34Z</time></trkpt>
<trkpt lat="29.690672" lon="98.539407">
<time>2016-10-07T15:24:35Z</time></trkpt>
<trkpt lat="29.690672" lon="98.539337">
<time>2016-10-07T15:24:36Z</time></trkpt>
<trkpt lat="29.690692" lon="98.539267">
<time>2016-10-07T15:24:37Z</time></trkpt>
<trkpt lat="29.690711" lon="98.539177">
<time>2016-10-07T15:24:38Z</time></trkpt>
<trkpt lat="29.690741" lon="98.539107">
<time>2016-10-07T15:24:39Z</time></trkpt>
<trkpt lat="29.690781" lon="98.539036">
<time>2016-10-07T15:24:40Z</time></trkpt>
<trkpt lat="29.690821" lon="98.538966">
<time>2016-10-07T15:24:41Z</time></trkpt>
<trkpt lat="29.690871" lon="98.538896">
<time>2016-10-07T15:24:42Z</time></trkpt>
<trkpt lat="29.69092" lon="98.538836">
<time>2016-10-07T15:24:43Z</time></trkpt>
<trkpt lat="29.691718" lon="98.538074">
<time>2016-10-07T15:24:44Z</time></trkpt>
<trkpt lat="29.691868" lon="98.537914">
<time>2016-10-07T15:24:45Z</time></trkpt>
<trkpt lat="29.692068" lon="98.537713">
<time>2016-10-07T15:24:46Z</time></trkpt>
<trkpt lat="29.692177" lon="98.537563">
<time>2016-10-07T15:24:47Z</time></trkpt>
<trkpt lat="29.692267" lon="98.537423">
<time>2016-10-07T15:24:48Z</time></trkpt>
<trkpt lat="29.692336" lon="98.537282">
<time>2016-10-07T15:24:49Z</time></trkpt>
<trkpt lat="29.692376" lon="98.537112">
<time>2016-10-07T15:24:50Z</time></trkpt>
<trkpt lat="29.692386" lon="98.536992">
<time>2016-10-07T15:24:51Z</time></trkpt>
<trkpt lat="29.692405" lon="98.536811">
<time>2016-10-07T15:24:52Z</time></trkpt>
<trkpt lat="29.692405" lon="98.536571">
<time>2016-10-07T15:24:53Z</time></trkpt>
<trkpt lat="29.692423" lon="98.535849">
<time>2016-10-07T15:24:54Z</time></trkpt>
<trkpt lat="29.692422" lon="98.535358">
<time>2016-10-07T15:24:55Z</time></trkpt>
<trkpt lat="29.692441" lon="98.535197">
<time>2016-10-07T15:24:56Z</time></trkpt>
<trkpt lat="29.692451" lon="98.535097">
<time>2016-10-07T15:24:57Z</time></trkpt>
<trkpt lat="29.692481" lon="98.534987">
<time>2016-10-07T15:24:58Z</time></trkpt>
<trkpt lat="29.692511" lon="98.534917">
<time>2016-10-07T15:24:59Z</time></trkpt>
<trkpt lat="29.69256" lon="98.534806">
<time>2016-10-07T15:25:00Z</time></trkpt>
<trkpt lat="29.69264" lon="98.534686">
<time>2016-10-07T15:25:01Z</time></trkpt>
<trkpt lat="29.6927" lon="98.534616">
<time>2016-10-07T15:25:02Z</time></trkpt>
<trkpt lat="29.69277" lon="98.534536">
<time>2016-10-07T15:25:03Z</time></trkpt>
<trkpt lat="29.692819" lon="98.534506">
<time>2016-10-07T15:25:04Z</time></trkpt>
<trkpt lat="29.692879" lon="98.534465">
<time>2016-10-07T15:25:05Z</time></trkpt>
<trkpt lat="29.692929" lon="98.534445">
<time>2016-10-07T15:25:06Z</time></trkpt>
<trkpt lat="29.692999" lon="98.534445">
<time>2016-10-07T15:25:07Z</time></trkpt>
<trkpt lat="29.693059" lon="98.534445">
<time>2016-10-07T15:25:08Z</time></trkpt>
<trkpt lat="29.693099" lon="98.534445">
<time>2016-10-07T15:25:09Z</time></trkpt>
<trkpt lat="29.693159" lon="98.534465">
<time>2016-10-07T15:25:10Z</time></trkpt>
<trkpt lat="29.693219" lon="98.534506">
<time>2016-10-07T15:25:11Z</time></trkpt>
<trkpt lat="29.69329" lon="98.534566">
<time>2016-10-07T15:25:12Z</time></trkpt>
<trkpt lat="29.69335" lon="98.534616">
<time>2016-10-07T15:25:13Z</time></trkpt>
<trkpt lat="29.69352" lon="98.534887">
<time>2016-10-07T15:25:14Z</time></trkpt>
<trkpt lat="29.693651" lon="98.535067">
<time>2016-10-07T15:25:15Z</time></trkpt>
<trkpt lat="29.693751" lon="98.535187">
<time>2016-10-07T15:25:16Z</time></trkpt>
<trkpt lat="29.693861" lon="98.535287">
<time>2016-10-07T15:25:17Z</time></trkpt>
<trkpt lat="29.693961" lon="98.535358">
<time>2016-10-07T15:25:18Z</time></trkpt>
<trkpt lat="29.694172" lon="98.535448">
<time>2016-10-07T15:25:19Z</time></trkpt>
<trkpt lat="29.694352" lon="98.535518">
<time>2016-10-07T15:25:20Z</time></trkpt>
<trkpt lat="29.694542" lon="98.535578">
<time>2016-10-07T15:25:21Z</time></trkpt>
<trkpt lat="29.694722" lon="98.535648">
<time>2016-10-07T15:25:22Z</time></trkpt>
<trkpt lat="29.694872" lon="98.535698">
<time>2016-10-07T15:25:23Z</time></trkpt>
<trkpt lat="29.695022" lon="98.535719">
<time>2016-10-07T15:25:24Z</time></trkpt>
<trkpt lat="29.695182" lon="98.535698">
<time>2016-10-07T15:25:25Z</time></trkpt>
<trkpt lat="29.695392" lon="98.535638">
<time>2016-10-07T15:25:26Z</time></trkpt>
<trkpt lat="29.695542" lon="98.535578">
<time>2016-10-07T15:25:27Z</time></trkpt>
<trkpt lat="29.695681" lon="98.535508">
<time>2016-10-07T15:25:28Z</time></trkpt>
<trkpt lat="29.695761" lon="98.535458">
<time>2016-10-07T15:25:29Z</time></trkpt>
<trkpt lat="29.695871" lon="98.535348">
<time>2016-10-07T15:25:30Z</time></trkpt>
<trkpt lat="29.695991" lon="98.535227">
<time>2016-10-07T15:25:31Z</time></trkpt>
<trkpt lat="29.69612" lon="98.535017">
<time>2016-10-07T15:25:32Z</time></trkpt>
<trkpt lat="29.696329" lon="98.534656">
<time>2016-10-07T15:25:33Z</time></trkpt>
<trkpt lat="29.696608" lon="98.534125">
<time>2016-10-07T15:25:34Z</time></trkpt>
<trkpt lat="29.696737" lon="98.533884">
<time>2016-10-07T15:25:35Z</time></trkpt>
<trkpt lat="29.696876" lon="98.533573">
<time>2016-10-07T15:25:36Z</time></trkpt>
<trkpt lat="29.697005" lon="98.533132">
<time>2016-10-07T15:25:37Z</time></trkpt>
<trkpt lat="29.697064" lon="98.532831">
<time>2016-10-07T15:25:38Z</time></trkpt>
<trkpt lat="29.697144" lon="98.532501">
<time>2016-10-07T15:25:39Z</time></trkpt>
<trkpt lat="29.697173" lon="98.53223">
<time>2016-10-07T15:25:40Z</time></trkpt>
<trkpt lat="29.697162" lon="98.531909">
<time>2016-10-07T15:25:41Z</time></trkpt>
<trkpt lat="29.697141" lon="98.531638">
<time>2016-10-07T15:25:42Z</time></trkpt>
<trkpt lat="29.697131" lon="98.531498">
<time>2016-10-07T15:25:43Z</time></trkpt>
<trkpt lat="29.69713" lon="98.531297">
<time>2016-10-07T15:25:44Z</time></trkpt>
<trkpt lat="29.69713" lon="98.531177">
<time>2016-10-07T15:25:45Z</time></trkpt>
<trkpt lat="29.69715" lon="98.531067">
<time>2016-10-07T15:25:46Z</time></trkpt>
<trkpt lat="29.697199" lon="98.530776">
<time>2016-10-07T15:25:47Z</time></trkpt>
<trkpt lat="29.697228" lon="98.530525">
<time>2016-10-07T15:25:48Z</time></trkpt>
<trkpt lat="29.697228" lon="98.530345">
<time>2016-10-07T15:25:49Z</time></trkpt>
<trkpt lat="29.697197" lon="98.530144">
<time>2016-10-07T15:25:50Z</time></trkpt>
<trkpt lat="29.697157" lon="98.529874">
<time>2016-10-07T15:25:51Z</time></trkpt>
<trkpt lat="29.697005" lon="98.529042">
<time>2016-10-07T15:25:52Z</time></trkpt>
<trkpt lat="29.696923" lon="98.52858">
<time>2016-10-07T15:25:53Z</time></trkpt>
<trkpt lat="29.696833" lon="98.52828">
<time>2016-10-07T15:25:54Z</time></trkpt>
<trkpt lat="29.696742" lon="98.528009">
<time>2016-10-07T15:25:55Z</time></trkpt>
<trkpt lat="29.696671" lon="98.527868">
<time>2016-10-07T15:25:56Z</time></trkpt>
<trkpt lat="29.696571" lon="98.527638">
<time>2016-10-07T15:25:57Z</time></trkpt>
<trkpt lat="29.696541" lon="98.527538">
<time>2016-10-07T15:25:58Z</time></trkpt>
<trkpt lat="29.69652" lon="98.527397">
<time>2016-10-07T15:25:59Z</time></trkpt>
<trkpt lat="29.69652" lon="98.527287">
<time>2016-10-07T15:26:00Z</time></trkpt>
<trkpt lat="29.69653" lon="98.527217">
<time>2016-10-07T15:26:01Z</time></trkpt>
<trkpt lat="29.696549" lon="98.527137">
<time>2016-10-07T15:26:02Z</time></trkpt>
<trkpt lat="29.696579" lon="98.527016">
<time>2016-10-07T15:26:03Z</time></trkpt>
<trkpt lat="29.696629" lon="98.526826">
<time>2016-10-07T15:26:04Z</time></trkpt>
<trkpt lat="29.696648" lon="98.526665">
<time>2016-10-07T15:26:05Z</time></trkpt>
<trkpt lat="29.696658" lon="98.526585">
<time>2016-10-07T15:26:06Z</time></trkpt>
<trkpt lat="29.696658" lon="98.526475">
<time>2016-10-07T15:26:07Z</time></trkpt>
<trkpt lat="29.696657" lon="98.526314">
<time>2016-10-07T15:26:08Z</time></trkpt>
<trkpt lat="29.696596" lon="98.525873">
<time>2016-10-07T15:26:09Z</time></trkpt>
<trkpt lat="29.696524" lon="98.525251">
<time>2016-10-07T15:26:10Z</time></trkpt>
<trkpt lat="29.696484" lon="98.525011">
<time>2016-10-07T15:26:11Z</time></trkpt>
<trkpt lat="29.696463" lon="98.52484">
<time>2016-10-07T15:26:12Z</time></trkpt>
<trkpt lat="29.696413" lon="98.52461">
<time>2016-10-07T15:26:13Z</time></trkpt>
<trkpt lat="29.696382" lon="98.524499">
<time>2016-10-07T15:26:14Z</time></trkpt>
<trkpt lat="29.696272" lon="98.524259">
<time>2016-10-07T15:26:15Z</time></trkpt>
<trkpt lat="29.696161" lon="98.524078">
<time>2016-10-07T15:26:16Z</time></trkpt>
<trkpt lat="29.696001" lon="98.523828">
<time>2016-10-07T15:26:17Z</time></trkpt>
<trkpt lat="29.69594" lon="98.523727">
<time>2016-10-07T15:26:18Z</time></trkpt>
<trkpt lat="29.69586" lon="98.523617">
<time>2016-10-07T15:26:19Z</time></trkpt>
<trkpt lat="29.69578" lon="98.523527">
<time>2016-10-07T15:26:20Z</time></trkpt>
<trkpt lat="29.695639" lon="98.523386">
<time>2016-10-07T15:26:21Z</time></trkpt>
<trkpt lat="29.695479" lon="98.523256">
<time>2016-10-07T15:26:22Z</time></trkpt>
<trkpt lat="29.695309" lon="98.523095">
<time>2016-10-07T15:26:23Z</time></trkpt>
<trkpt lat="29.695228" lon="98.523015">
<time>2016-10-07T15:26:24Z</time></trkpt>
<trkpt lat="29.695108" lon="98.522865">
<time>2016-10-07T15:26:25Z</time></trkpt>
<trkpt lat="29.695048" lon="98.522734">
<time>2016-10-07T15:26:26Z</time></trkpt>
<trkpt lat="29.694997" lon="98.522614">
<time>2016-10-07T15:26:27Z</time></trkpt>
<trkpt lat="29.694957" lon="98.522474">
<time>2016-10-07T15:26:28Z</time></trkpt>
<trkpt lat="29.694916" lon="98.522133">
<time>2016-10-07T15:26:29Z</time></trkpt>
<trkpt lat="29.694895" lon="98.521902">
<time>2016-10-07T15:26:30Z</time></trkpt>
<trkpt lat="29.694895" lon="98.521611">
<time>2016-10-07T15:26:31Z</time></trkpt>
<trkpt lat="29.694913" lon="98.5212">
<time>2016-10-07T15:26:32Z</time></trkpt>
<trkpt lat="29.694923" lon="98.52107">
<time>2016-10-07T15:26:33Z</time></trkpt>
<trkpt lat="29.694953" lon="98.520919">
<time>2016-10-07T15:26:34Z</time></trkpt>
<trkpt lat="29.694982" lon="98.520769">
<time>2016-10-07T15:26:35Z</time></trkpt>
<trkpt lat="29.695071" lon="98.520488">
<time>2016-10-07T15:26:36Z</time></trkpt>
<trkpt lat="29.695171" lon="98.520197">
<time>2016-10-07T15:26:37Z</time></trkpt>
<trkpt lat="29.6952" lon="98.520057">
<time>2016-10-07T15:26:38Z</time></trkpt>
<trkpt lat="29.69522" lon="98.519947">
<time>2016-10-07T15:26:39Z</time></trkpt>
<trkpt lat="29.69522" lon="98.519866">
<time>2016-10-07T15:26:40Z</time></trkpt>
<trkpt lat="29.695219" lon="98.519816">
<time>2016-10-07T15:26:41Z</time></trkpt>
<trkpt lat="29.695219" lon="98.519756">
<time>2016-10-07T15:26:42Z</time></trkpt>
<trkpt lat="29.695209" lon="98.519706">
<time>2016-10-07T15:26:43Z</time></trkpt>
<trkpt lat="29.695199" lon="98.519636">
<time>2016-10-07T15:26:44Z</time></trkpt>
<trkpt lat="29.695169" lon="98.519495">
<time>2016-10-07T15:26:45Z</time></trkpt>
<trkpt lat="29.695068" lon="98.519154">
<time>2016-10-07T15:26:46Z</time></trkpt>
<trkpt lat="29.695007" lon="98.518974">
<time>2016-10-07T15:26:47Z</time></trkpt>
<trkpt lat="29.694927" lon="98.518803">
<time>2016-10-07T15:26:48Z</time></trkpt>
<trkpt lat="29.694866" lon="98.518693">
<time>2016-10-07T15:26:49Z</time></trkpt>
<trkpt lat="29.694766" lon="98.518553">
<time>2016-10-07T15:26:50Z</time></trkpt>
<trkpt lat="29.694575" lon="98.518332">
<time>2016-10-07T15:26:51Z</time></trkpt>
<trkpt lat="29.694465" lon="98.518192">
<time>2016-10-07T15:26:52Z</time></trkpt>
<trkpt lat="29.694375" lon="98.518021">
<time>2016-10-07T15:26:53Z</time></trkpt>
<trkpt lat="29.694304" lon="98.517881">
<time>2016-10-07T15:26:54Z</time></trkpt>
<trkpt lat="29.694254" lon="98.51778">
<time>2016-10-07T15:26:55Z</time></trkpt>
<trkpt lat="29.694194" lon="98.51766">
<time>2016-10-07T15:26:56Z</time></trkpt>
<trkpt lat="29.694143" lon="98.51752">
<time>2016-10-07T15:26:57Z</time></trkpt>
<trkpt lat="29.694093" lon="98.517369">
<time>2016-10-07T15:26:58Z</time></trkpt>
<trkpt lat="29.694042" lon="98.517189">
<time>2016-10-07T15:26:59Z</time></trkpt>
<trkpt lat="29.694022" lon="98.517058">
<time>2016-10-07T15:27:00Z</time></trkpt>
<trkpt lat="29.693981" lon="98.516898">
<time>2016-10-07T15:27:01Z</time></trkpt>
<trkpt lat="29.693951" lon="98.516737">
<time>2016-10-07T15:27:02Z</time></trkpt>
<trkpt lat="29.693931" lon="98.516667">
<time>2016-10-07T15:27:03Z</time></trkpt>
<trkpt lat="29.693911" lon="98.516597">
<time>2016-10-07T15:27:04Z</time></trkpt>
<trkpt lat="29.69389" lon="98.516527">
<time>2016-10-07T15:27:05Z</time></trkpt>
<trkpt lat="29.69385" lon="98.516457">
<time>2016-10-07T15:27:06Z</time></trkpt>
<trkpt lat="29.6938" lon="98.516376">
<time>2016-10-07T15:27:07Z</time></trkpt>
<trkpt lat="29.69375" lon="98.516296">
<time>2016-10-07T15:27:08Z</time></trkpt>
<trkpt lat="29.693659" lon="98.516176">
<time>2016-10-07T15:27:09Z</time></trkpt>
<trkpt lat="29.693589" lon="98.516035">
<time>2016-10-07T15:27:10Z</time></trkpt>
<trkpt lat="29.693549" lon="98.515925">
<time>2016-10-07T15:27:11Z</time></trkpt>
<trkpt lat="29.693528" lon="98.515855">
<time>2016-10-07T15:27:12Z</time></trkpt>
<trkpt lat="29.693508" lon="98.515785">
<time>2016-10-07T15:27:13Z</time></trkpt>
<trkpt lat="29.693508" lon="98.515734">
<time>2016-10-07T15:27:14Z</time></trkpt>
<trkpt lat="29.693508" lon="98.515674">
<time>2016-10-07T15:27:15Z</time></trkpt>
<trkpt lat="29.693508" lon="98.515634">
<time>2016-10-07T15:27:16Z</time></trkpt>
<trkpt lat="29.693528" lon="98.515524">
<time>2016-10-07T15:27:17Z</time></trkpt>
<trkpt lat="29.693547" lon="98.515444">
<time>2016-10-07T15:27:18Z</time></trkpt>
<trkpt lat="29.693587" lon="98.515353">
<time>2016-10-07T15:27:19Z</time></trkpt>
<trkpt lat="29.693617" lon="98.515283">
<time>2016-10-07T15:27:20Z</time></trkpt>
<trkpt lat="29.693677" lon="98.515203">
<time>2016-10-07T15:27:21Z</time></trkpt>
<trkpt lat="29.693716" lon="98.515143">
<time>2016-10-07T15:27:22Z</time></trkpt>
<trkpt lat="29.693776" lon="98.515073">
<time>2016-10-07T15:27:23Z</time></trkpt>
<trkpt lat="29.693896" lon="98.514932">
<time>2016-10-07T15:27:24Z</time></trkpt>
<trkpt lat="29.694274" lon="98.514521">
<time>2016-10-07T15:27:25Z</time></trkpt>
<trkpt lat="29.695092" lon="98.513618">
<time>2016-10-07T15:27:26Z</time></trkpt>
<trkpt lat="29.69543" lon="98.513237">
<time>2016-10-07T15:27:27Z</time></trkpt>
<trkpt lat="29.69567" lon="98.512966">
<time>2016-10-07T15:27:28Z</time></trkpt>
<trkpt lat="29.695919" lon="98.512625">
<time>2016-10-07T15:27:29Z</time></trkpt>
<trkpt lat="29.696257" lon="98.512174">
<time>2016-10-07T15:27:30Z</time></trkpt>
<trkpt lat="29.696446" lon="98.511923">
<time>2016-10-07T15:27:31Z</time></trkpt>
<trkpt lat="29.696576" lon="98.511763">
<time>2016-10-07T15:27:32Z</time></trkpt>
<trkpt lat="29.696646" lon="98.511672">
<time>2016-10-07T15:27:33Z</time></trkpt>
<trkpt lat="29.696685" lon="98.511592">
<time>2016-10-07T15:27:34Z</time></trkpt>
<trkpt lat="29.696725" lon="98.511492">
<time>2016-10-07T15:27:35Z</time></trkpt>
<trkpt lat="29.696745" lon="98.511402">
<time>2016-10-07T15:27:36Z</time></trkpt>
<trkpt lat="29.696765" lon="98.511311">
<time>2016-10-07T15:27:37Z</time></trkpt>
<trkpt lat="29.696774" lon="98.511221">
<time>2016-10-07T15:27:38Z</time></trkpt>
<trkpt lat="29.696774" lon="98.511121">
<time>2016-10-07T15:27:39Z</time></trkpt>
<trkpt lat="29.696802" lon="98.510399">
<time>2016-10-07T15:27:40Z</time></trkpt>
<trkpt lat="29.69683" lon="98.509787">
<time>2016-10-07T15:27:41Z</time></trkpt>
<trkpt lat="29.69683" lon="98.509626">
<time>2016-10-07T15:27:42Z</time></trkpt>
<trkpt lat="29.696829" lon="98.509325">
<time>2016-10-07T15:27:43Z</time></trkpt>
<trkpt lat="29.696828" lon="98.509225">
<time>2016-10-07T15:27:44Z</time></trkpt>
<trkpt lat="29.696798" lon="98.509075">
<time>2016-10-07T15:27:45Z</time></trkpt>
<trkpt lat="29.696758" lon="98.508984">
<time>2016-10-07T15:27:46Z</time></trkpt>
<trkpt lat="29.696697" lon="98.508874">
<time>2016-10-07T15:27:47Z</time></trkpt>
<trkpt lat="29.696637" lon="98.508774">
<time>2016-10-07T15:27:48Z</time></trkpt>
<trkpt lat="29.696537" lon="98.508633">
<time>2016-10-07T15:27:49Z</time></trkpt>
<trkpt lat="29.696356" lon="98.508372">
<time>2016-10-07T15:27:50Z</time></trkpt>
<trkpt lat="29.696306" lon="98.508252">
<time>2016-10-07T15:27:51Z</time></trkpt>
<trkpt lat="29.696265" lon="98.508132">
<time>2016-10-07T15:27:52Z</time></trkpt>
<trkpt lat="29.696255" lon="98.508001">
<time>2016-10-07T15:27:53Z</time></trkpt>
<trkpt lat="29.696245" lon="98.507901">
<time>2016-10-07T15:27:54Z</time></trkpt>
<trkpt lat="29.696254" lon="98.507801">
<time>2016-10-07T15:27:55Z</time></trkpt>
<trkpt lat="29.696264" lon="98.50772">
<time>2016-10-07T15:27:56Z</time></trkpt>
<trkpt lat="29.696284" lon="98.50762">
<time>2016-10-07T15:27:57Z</time></trkpt>
<trkpt lat="29.696343" lon="98.50741">
<time>2016-10-07T15:27:58Z</time></trkpt>
<trkpt lat="29.696382" lon="98.507199">
<time>2016-10-07T15:27:59Z</time></trkpt>
<trkpt lat="29.696402" lon="98.507119">
<time>2016-10-07T15:28:00Z</time></trkpt>
<trkpt lat="29.696412" lon="98.507018">
<time>2016-10-07T15:28:01Z</time></trkpt>
<trkpt lat="29.696402" lon="98.506898">
<time>2016-10-07T15:28:02Z</time></trkpt>
<trkpt lat="29.696381" lon="98.506798">
<time>2016-10-07T15:28:03Z</time></trkpt>
<trkpt lat="29.696331" lon="98.506577">
<time>2016-10-07T15:28:04Z</time></trkpt>
<trkpt lat="29.69629" lon="98.506376">
<time>2016-10-07T15:28:05Z</time></trkpt>
<trkpt lat="29.69628" lon="98.506296">
<time>2016-10-07T15:28:06Z</time></trkpt>
<trkpt lat="29.69628" lon="98.506206">
<time>2016-10-07T15:28:07Z</time></trkpt>
<trkpt lat="29.696289" lon="98.506106">
<time>2016-10-07T15:28:08Z</time></trkpt>
<trkpt lat="29.696319" lon="98.506015">
<time>2016-10-07T15:28:09Z</time></trkpt>
<trkpt lat="29.696379" lon="98.505895">
<time>2016-10-07T15:28:10Z</time></trkpt>
<trkpt lat="29.696448" lon="98.505754">
<time>2016-10-07T15:28:11Z</time></trkpt>
<trkpt lat="29.696567" lon="98.505494">
<time>2016-10-07T15:28:12Z</time></trkpt>
<trkpt lat="29.696806" lon="98.505012">
<time>2016-10-07T15:28:13Z</time></trkpt>
<trkpt lat="29.696905" lon="98.504802">
<time>2016-10-07T15:28:14Z</time></trkpt>
<trkpt lat="29.697025" lon="98.504601">
<time>2016-10-07T15:28:15Z</time></trkpt>
<trkpt lat="29.697503" lon="98.504029">
<time>2016-10-07T15:28:16Z</time></trkpt>
<trkpt lat="29.697991" lon="98.503457">
<time>2016-10-07T15:28:17Z</time></trkpt>
<trkpt lat="29.69821" lon="98.503197">
<time>2016-10-07T15:28:18Z</time></trkpt>
<trkpt lat="29.698409" lon="98.502966">
<time>2016-10-07T15:28:19Z</time></trkpt>
<trkpt lat="29.698688" lon="98.502645">
<time>2016-10-07T15:28:20Z</time></trkpt>
<trkpt lat="29.698748" lon="98.502555">
<time>2016-10-07T15:28:21Z</time></trkpt>
<trkpt lat="29.698808" lon="98.502454">
<time>2016-10-07T15:28:22Z</time></trkpt>
<trkpt lat="29.698937" lon="98.502234">
<time>2016-10-07T15:28:23Z</time></trkpt>
<trkpt lat="29.699126" lon="98.501873">
<time>2016-10-07T15:28:24Z</time></trkpt>
<trkpt lat="29.699375" lon="98.501411">
<time>2016-10-07T15:28:25Z</time></trkpt>
<trkpt lat="29.699494" lon="98.50114">
<time>2016-10-07T15:28:26Z</time></trkpt>
<trkpt lat="29.699603" lon="98.500849">
<time>2016-10-07T15:28:27Z</time></trkpt>
<trkpt lat="29.699692" lon="98.500558">
<time>2016-10-07T15:28:28Z</time></trkpt>
<trkpt lat="29.699722" lon="98.500428">
<time>2016-10-07T15:28:29Z</time></trkpt>
<trkpt lat="29.699741" lon="98.500308">
<time>2016-10-07T15:28:30Z</time></trkpt>
<trkpt lat="29.699741" lon="98.500207">
<time>2016-10-07T15:28:31Z</time></trkpt>
<trkpt lat="29.699741" lon="98.500117">
<time>2016-10-07T15:28:32Z</time></trkpt>
<trkpt lat="29.69971" lon="98.500047">
<time>2016-10-07T15:28:33Z</time></trkpt>
<trkpt lat="29.69969" lon="98.499997">
<time>2016-10-07T15:28:34Z</time></trkpt>
<trkpt lat="29.69966" lon="98.499947">
<time>2016-10-07T15:28:35Z</time></trkpt>
<trkpt lat="29.69961" lon="98.499856">
<time>2016-10-07T15:28:36Z</time></trkpt>
<trkpt lat="29.699519" lon="98.499726">
<time>2016-10-07T15:28:37Z</time></trkpt>
<trkpt lat="29.699439" lon="98.499606">
<time>2016-10-07T15:28:38Z</time></trkpt>
<trkpt lat="29.699379" lon="98.499525">
<time>2016-10-07T15:28:39Z</time></trkpt>
<trkpt lat="29.699329" lon="98.499425">
<time>2016-10-07T15:28:40Z</time></trkpt>
<trkpt lat="29.699288" lon="98.499335">
<time>2016-10-07T15:28:41Z</time></trkpt>
<trkpt lat="29.699248" lon="98.499214">
<time>2016-10-07T15:28:42Z</time></trkpt>
<trkpt lat="29.699218" lon="98.499094">
<time>2016-10-07T15:28:43Z</time></trkpt>
<trkpt lat="29.699197" lon="98.498974">
<time>2016-10-07T15:28:44Z</time></trkpt>
<trkpt lat="29.699177" lon="98.498863">
<time>2016-10-07T15:28:45Z</time></trkpt>
<trkpt lat="29.699167" lon="98.498763">
<time>2016-10-07T15:28:46Z</time></trkpt>
<trkpt lat="29.699166" lon="98.498663">
<time>2016-10-07T15:28:47Z</time></trkpt>
<trkpt lat="29.699166" lon="98.498562">
<time>2016-10-07T15:28:48Z</time></trkpt>
<trkpt lat="29.699186" lon="98.498402">
<time>2016-10-07T15:28:49Z</time></trkpt>
<trkpt lat="29.699195" lon="98.498241">
<time>2016-10-07T15:28:50Z</time></trkpt>
<trkpt lat="29.699215" lon="98.498151">
<time>2016-10-07T15:28:51Z</time></trkpt>
<trkpt lat="29.699244" lon="98.498041">
<time>2016-10-07T15:28:52Z</time></trkpt>
<trkpt lat="29.699294" lon="98.49792">
<time>2016-10-07T15:28:53Z</time></trkpt>
<trkpt lat="29.699324" lon="98.49785">
<time>2016-10-07T15:28:54Z</time></trkpt>
<trkpt lat="29.699374" lon="98.49778">
<time>2016-10-07T15:28:55Z</time></trkpt>
<trkpt lat="29.699414" lon="98.49773">
<time>2016-10-07T15:28:56Z</time></trkpt>
<trkpt lat="29.699473" lon="98.49767">
<time>2016-10-07T15:28:57Z</time></trkpt>
<trkpt lat="29.699543" lon="98.497619">
<time>2016-10-07T15:28:58Z</time></trkpt>
<trkpt lat="29.699653" lon="98.497559">
<time>2016-10-07T15:28:59Z</time></trkpt>
<trkpt lat="29.699823" lon="98.497489">
<time>2016-10-07T15:29:00Z</time></trkpt>
<trkpt lat="29.699923" lon="98.497449">
<time>2016-10-07T15:29:01Z</time></trkpt>
<trkpt lat="29.699993" lon="98.497429">
<time>2016-10-07T15:29:02Z</time></trkpt>
<trkpt lat="29.700062" lon="98.497419">
<time>2016-10-07T15:29:03Z</time></trkpt>
<trkpt lat="29.700102" lon="98.497419">
<time>2016-10-07T15:29:04Z</time></trkpt>
<trkpt lat="29.700122" lon="98.497419">
<time>2016-10-07T15:29:05Z</time></trkpt>
<trkpt lat="29.700142" lon="98.497429">
<time>2016-10-07T15:29:06Z</time></trkpt>
<trkpt lat="29.700143" lon="98.497439">
<time>2016-10-07T15:29:07Z</time></trkpt>
<trkpt lat="29.700163" lon="98.497469">
<time>2016-10-07T15:29:08Z</time></trkpt>
<trkpt lat="29.700173" lon="98.497549">
<time>2016-10-07T15:29:09Z</time></trkpt>
<trkpt lat="29.700163" lon="98.49769">
<time>2016-10-07T15:29:10Z</time></trkpt>
<trkpt lat="29.700134" lon="98.49791">
<time>2016-10-07T15:29:11Z</time></trkpt>
<trkpt lat="29.700095" lon="98.498101">
<time>2016-10-07T15:29:12Z</time></trkpt>
<trkpt lat="29.700055" lon="98.498322">
<time>2016-10-07T15:29:13Z</time></trkpt>
<trkpt lat="29.700026" lon="98.498542">
<time>2016-10-07T15:29:14Z</time></trkpt>
<trkpt lat="29.699996" lon="98.498723">
<time>2016-10-07T15:29:15Z</time></trkpt>
<trkpt lat="29.699987" lon="98.498843">
<time>2016-10-07T15:29:16Z</time></trkpt>
<trkpt lat="29.699977" lon="98.498933">
<time>2016-10-07T15:29:17Z</time></trkpt>
<trkpt lat="29.699987" lon="98.499014">
<time>2016-10-07T15:29:18Z</time></trkpt>
<trkpt lat="29.699997" lon="98.499084">
<time>2016-10-07T15:29:19Z</time></trkpt>
<trkpt lat="29.700028" lon="98.499154">
<time>2016-10-07T15:29:20Z</time></trkpt>
<trkpt lat="29.700058" lon="98.499234">
<time>2016-10-07T15:29:21Z</time></trkpt>
<trkpt lat="29.700098" lon="98.499305">
<time>2016-10-07T15:29:22Z</time></trkpt>
<trkpt lat="29.700158" lon="98.499385">
<time>2016-10-07T15:29:23Z</time></trkpt>
<trkpt lat="29.700239" lon="98.499485">
<time>2016-10-07T15:29:24Z</time></trkpt>
<trkpt lat="29.700279" lon="98.499555">
<time>2016-10-07T15:29:25Z</time></trkpt>
<trkpt lat="29.700309" lon="98.499606">
<time>2016-10-07T15:29:26Z</time></trkpt>
<trkpt lat="29.700349" lon="98.499686">
<time>2016-10-07T15:29:27Z</time></trkpt>
<trkpt lat="29.700389" lon="98.499776">
<time>2016-10-07T15:29:28Z</time></trkpt>
<trkpt lat="29.70041" lon="98.499876">
<time>2016-10-07T15:29:29Z</time></trkpt>
<trkpt lat="29.70043" lon="98.499967">
<time>2016-10-07T15:29:30Z</time></trkpt>
<trkpt lat="29.70045" lon="98.500047">
<time>2016-10-07T15:29:31Z</time></trkpt>
<trkpt lat="29.700501" lon="98.500398">
<time>2016-10-07T15:29:32Z</time></trkpt>
<trkpt lat="29.700522" lon="98.500769">
<time>2016-10-07T15:29:33Z</time></trkpt>
<trkpt lat="29.700524" lon="98.501271">
<time>2016-10-07T15:29:34Z</time></trkpt>
<trkpt lat="29.700535" lon="98.501481">
<time>2016-10-07T15:29:35Z</time></trkpt>
<trkpt lat="29.700575" lon="98.501792">
<time>2016-10-07T15:29:36Z</time></trkpt>
<trkpt lat="29.700747" lon="98.502464">
<time>2016-10-07T15:29:37Z</time></trkpt>
<trkpt lat="29.700869" lon="98.502856">
<time>2016-10-07T15:29:38Z</time></trkpt>
<trkpt lat="29.70097" lon="98.503327">
<time>2016-10-07T15:29:39Z</time></trkpt>
<trkpt lat="29.70101" lon="98.503477">
<time>2016-10-07T15:29:40Z</time></trkpt>
<trkpt lat="29.701041" lon="98.503568">
<time>2016-10-07T15:29:41Z</time></trkpt>
<trkpt lat="29.701061" lon="98.503598">
<time>2016-10-07T15:29:42Z</time></trkpt>
<trkpt lat="29.701081" lon="98.503628">
<time>2016-10-07T15:29:43Z</time></trkpt>
<trkpt lat="29.701111" lon="98.503648">
<time>2016-10-07T15:29:44Z</time></trkpt>
<trkpt lat="29.701131" lon="98.503658">
<time>2016-10-07T15:29:45Z</time></trkpt>
<trkpt lat="29.701161" lon="98.503668">
<time>2016-10-07T15:29:46Z</time></trkpt>
<trkpt lat="29.701191" lon="98.503668">
<time>2016-10-07T15:29:47Z</time></trkpt>
<trkpt lat="29.701231" lon="98.503658">
<time>2016-10-07T15:29:48Z</time></trkpt>
<trkpt lat="29.701251" lon="98.503648">
<time>2016-10-07T15:29:49Z</time></trkpt>
<trkpt lat="29.701271" lon="98.503628">
<time>2016-10-07T15:29:50Z</time></trkpt>
<trkpt lat="29.701291" lon="98.503608">
<time>2016-10-07T15:29:51Z</time></trkpt>
<trkpt lat="29.701301" lon="98.503578">
<time>2016-10-07T15:29:52Z</time></trkpt>
<trkpt lat="29.701321" lon="98.503528">
<time>2016-10-07T15:29:53Z</time></trkpt>
<trkpt lat="29.70132" lon="98.503477">
<time>2016-10-07T15:29:54Z</time></trkpt>
<trkpt lat="29.7013" lon="98.503367">
<time>2016-10-07T15:29:55Z</time></trkpt>
<trkpt lat="29.70128" lon="98.503247">
<time>2016-10-07T15:29:56Z</time></trkpt>
<trkpt lat="29.701249" lon="98.503146">
<time>2016-10-07T15:29:57Z</time></trkpt>
<trkpt lat="29.701219" lon="98.502996">
<time>2016-10-07T15:29:58Z</time></trkpt>
<trkpt lat="29.701178" lon="98.502765">
<time>2016-10-07T15:29:59Z</time></trkpt>
<trkpt lat="29.701138" lon="98.502575">
<time>2016-10-07T15:30:00Z</time></trkpt>
<trkpt lat="29.701117" lon="98.502384">
<time>2016-10-07T15:30:01Z</time></trkpt>
<trkpt lat="29.701127" lon="98.502254">
<time>2016-10-07T15:30:02Z</time></trkpt>
<trkpt lat="29.701137" lon="98.502173">
<time>2016-10-07T15:30:03Z</time></trkpt>
<trkpt lat="29.701156" lon="98.502003">
<time>2016-10-07T15:30:04Z</time></trkpt>
<trkpt lat="29.701205" lon="98.501762">
<time>2016-10-07T15:30:05Z</time></trkpt>
<trkpt lat="29.701284" lon="98.501331">
<time>2016-10-07T15:30:06Z</time></trkpt>
<trkpt lat="29.701363" lon="98.50102">
<time>2016-10-07T15:30:07Z</time></trkpt>
<trkpt lat="29.701432" lon="98.500749">
<time>2016-10-07T15:30:08Z</time></trkpt>
<trkpt lat="29.701522" lon="98.500528">
<time>2016-10-07T15:30:09Z</time></trkpt>
<trkpt lat="29.701631" lon="98.500258">
<time>2016-10-07T15:30:10Z</time></trkpt>
<trkpt lat="29.70168" lon="98.500047">
<time>2016-10-07T15:30:11Z</time></trkpt>
<trkpt lat="29.70168" lon="98.499997">
<time>2016-10-07T15:30:12Z</time></trkpt>
<trkpt lat="29.7017" lon="98.499906">
<time>2016-10-07T15:30:13Z</time></trkpt>
<trkpt lat="29.701709" lon="98.499786">
<time>2016-10-07T15:30:14Z</time></trkpt>
<trkpt lat="29.701719" lon="98.499636">
<time>2016-10-07T15:30:15Z</time></trkpt>
<trkpt lat="29.701728" lon="98.499485">
<time>2016-10-07T15:30:16Z</time></trkpt>
<trkpt lat="29.701718" lon="98.499295">
<time>2016-10-07T15:30:17Z</time></trkpt>
<trkpt lat="29.701727" lon="98.498923">
<time>2016-10-07T15:30:18Z</time></trkpt>
<trkpt lat="29.701726" lon="98.498562">
<time>2016-10-07T15:30:19Z</time></trkpt>
<trkpt lat="29.701704" lon="98.498131">
<time>2016-10-07T15:30:20Z</time></trkpt>
<trkpt lat="29.701684" lon="98.497991">
<time>2016-10-07T15:30:21Z</time></trkpt>
<trkpt lat="29.701664" lon="98.49787">
<time>2016-10-07T15:30:22Z</time></trkpt>
<trkpt lat="29.701623" lon="98.49769">
<time>2016-10-07T15:30:23Z</time></trkpt>
<trkpt lat="29.701593" lon="98.497549">
<time>2016-10-07T15:30:24Z</time></trkpt>
<trkpt lat="29.701592" lon="98.497439">
<time>2016-10-07T15:30:25Z</time></trkpt>
<trkpt lat="29.701582" lon="98.497329">
<time>2016-10-07T15:30:26Z</time></trkpt>
<trkpt lat="29.701592" lon="98.497238">
<time>2016-10-07T15:30:27Z</time></trkpt>
<trkpt lat="29.701611" lon="98.497128">
<time>2016-10-07T15:30:28Z</time></trkpt>
<trkpt lat="29.701641" lon="98.497018">
<time>2016-10-07T15:30:29Z</time></trkpt>
<trkpt lat="29.701701" lon="98.496867">
<time>2016-10-07T15:30:30Z</time></trkpt>
<trkpt lat="29.70179" lon="98.496707">
<time>2016-10-07T15:30:31Z</time></trkpt>
<trkpt lat="29.701899" lon="98.496526">
<time>2016-10-07T15:30:32Z</time></trkpt>
<trkpt lat="29.701969" lon="98.496406">
<time>2016-10-07T15:30:33Z</time></trkpt>
<trkpt lat="29.702019" lon="98.496285">
<time>2016-10-07T15:30:34Z</time></trkpt>
<trkpt lat="29.702048" lon="98.496205">
<time>2016-10-07T15:30:35Z</time></trkpt>
<trkpt lat="29.702058" lon="98.496145">
<time>2016-10-07T15:30:36Z</time></trkpt>
<trkpt lat="29.702068" lon="98.496065">
<time>2016-10-07T15:30:37Z</time></trkpt>
<trkpt lat="29.702078" lon="98.495984">
<time>2016-10-07T15:30:38Z</time></trkpt>
<trkpt lat="29.702067" lon="98.495884">
<time>2016-10-07T15:30:39Z</time></trkpt>
<trkpt lat="29.702037" lon="98.495724">
<time>2016-10-07T15:30:40Z</time></trkpt>
<trkpt lat="29.702027" lon="98.495603">
<time>2016-10-07T15:30:41Z</time></trkpt>
<trkpt lat="29.702026" lon="98.495523">
<time>2016-10-07T15:30:42Z</time></trkpt>
<trkpt lat="29.702036" lon="98.495473">
<time>2016-10-07T15:30:43Z</time></trkpt>
<trkpt lat="29.702046" lon="98.495433">
<time>2016-10-07T15:30:44Z</time></trkpt>
<trkpt lat="29.702076" lon="98.495383">
<time>2016-10-07T15:30:45Z</time></trkpt>
<trkpt lat="29.702106" lon="98.495352">
<time>2016-10-07T15:30:46Z</time></trkpt>
<trkpt lat="29.702136" lon="98.495332">
<time>2016-10-07T15:30:47Z</time></trkpt>
<trkpt lat="29.702166" lon="98.495322">
<time>2016-10-07T15:30:48Z</time></trkpt>
<trkpt lat="29.702196" lon="98.495322">
<time>2016-10-07T15:30:49Z</time></trkpt>
<trkpt lat="29.702236" lon="98.495342">
<time>2016-10-07T15:30:50Z</time></trkpt>
<trkpt lat="29.702266" lon="98.495372">
<time>2016-10-07T15:30:51Z</time></trkpt>
<trkpt lat="29.702296" lon="98.495423">
<time>2016-10-07T15:30:52Z</time></trkpt>
<trkpt lat="29.702326" lon="98.495513">
<time>2016-10-07T15:30:53Z</time></trkpt>
<trkpt lat="29.702367" lon="98.495673">
<time>2016-10-07T15:30:54Z</time></trkpt>
<trkpt lat="29.702378" lon="98.495914">
<time>2016-10-07T15:30:55Z</time></trkpt>
<trkpt lat="29.702368" lon="98.496065">
<time>2016-10-07T15:30:56Z</time></trkpt>
<trkpt lat="29.702329" lon="98.496265">
<time>2016-10-07T15:30:57Z</time></trkpt>
<trkpt lat="29.702279" lon="98.496416">
<time>2016-10-07T15:30:58Z</time></trkpt>
<trkpt lat="29.70219" lon="98.496676">
<time>2016-10-07T15:30:59Z</time></trkpt>
<trkpt lat="29.702131" lon="98.496907">
<time>2016-10-07T15:31:00Z</time></trkpt>
<trkpt lat="29.702111" lon="98.497028">
<time>2016-10-07T15:31:01Z</time></trkpt>
<trkpt lat="29.702111" lon="98.497138">
<time>2016-10-07T15:31:02Z</time></trkpt>
<trkpt lat="29.702122" lon="98.497258">
<time>2016-10-07T15:31:03Z</time></trkpt>
<trkpt lat="29.702142" lon="98.497349">
<time>2016-10-07T15:31:04Z</time></trkpt>
<trkpt lat="29.702182" lon="98.497449">
<time>2016-10-07T15:31:05Z</time></trkpt>
<trkpt lat="29.702273" lon="98.497589">
<time>2016-10-07T15:31:06Z</time></trkpt>
<trkpt lat="29.702383" lon="98.49772">
<time>2016-10-07T15:31:07Z</time></trkpt>
<trkpt lat="29.702503" lon="98.49791">
<time>2016-10-07T15:31:08Z</time></trkpt>
<trkpt lat="29.702634" lon="98.498111">
<time>2016-10-07T15:31:09Z</time></trkpt>
<trkpt lat="29.702745" lon="98.498322">
<time>2016-10-07T15:31:10Z</time></trkpt>
<trkpt lat="29.702805" lon="98.498492">
<time>2016-10-07T15:31:11Z</time></trkpt>
<trkpt lat="29.702866" lon="98.498693">
<time>2016-10-07T15:31:12Z</time></trkpt>
<trkpt lat="29.702916" lon="98.498883">
<time>2016-10-07T15:31:13Z</time></trkpt>
<trkpt lat="29.702987" lon="98.499174">
<time>2016-10-07T15:31:14Z</time></trkpt>
<trkpt lat="29.703038" lon="98.499355">
<time>2016-10-07T15:31:15Z</time></trkpt>
<trkpt lat="29.703078" lon="98.499485">
<time>2016-10-07T15:31:16Z</time></trkpt>
<trkpt lat="29.703138" lon="98.499616">
<time>2016-10-07T15:31:17Z</time></trkpt>
<trkpt lat="29.703189" lon="98.499706">
<time>2016-10-07T15:31:18Z</time></trkpt>
<trkpt lat="29.703269" lon="98.499806">
<time>2016-10-07T15:31:19Z</time></trkpt>
<trkpt lat="29.703309" lon="98.499856">
<time>2016-10-07T15:31:20Z</time></trkpt>
<trkpt lat="29.703359" lon="98.499896">
<time>2016-10-07T15:31:21Z</time></trkpt>
<trkpt lat="29.703389" lon="98.499906">
<time>2016-10-07T15:31:22Z</time></trkpt>
<trkpt lat="29.703419" lon="98.499906">
<time>2016-10-07T15:31:23Z</time></trkpt>
<trkpt lat="29.703459" lon="98.499886">
<time>2016-10-07T15:31:24Z</time></trkpt>
<trkpt lat="29.703489" lon="98.499866">
<time>2016-10-07T15:31:25Z</time></trkpt>
<trkpt lat="29.703519" lon="98.499816">
<time>2016-10-07T15:31:26Z</time></trkpt>
<trkpt lat="29.703529" lon="98.499746">
<time>2016-10-07T15:31:27Z</time></trkpt>
<trkpt lat="29.703519" lon="98.499676">
<time>2016-10-07T15:31:28Z</time></trkpt>
<trkpt lat="29.703488" lon="98.499545">
<time>2016-10-07T15:31:29Z</time></trkpt>
<trkpt lat="29.703438" lon="98.499415">
<time>2016-10-07T15:31:30Z</time></trkpt>
<trkpt lat="29.703387" lon="98.499264">
<time>2016-10-07T15:31:31Z</time></trkpt>
<trkpt lat="29.703347" lon="98.499144">
<time>2016-10-07T15:31:32Z</time></trkpt>
<trkpt lat="29.703317" lon="98.499034">
<time>2016-10-07T15:31:33Z</time></trkpt>
<trkpt lat="29.703296" lon="98.498903">
<time>2016-10-07T15:31:34Z</time></trkpt>
<trkpt lat="29.703286" lon="98.498753">
<time>2016-10-07T15:31:35Z</time></trkpt>
<trkpt lat="29.703295" lon="98.498602">
<time>2016-10-07T15:31:36Z</time></trkpt>
<trkpt lat="29.703314" lon="98.498251">
<time>2016-10-07T15:31:37Z</time></trkpt>
<trkpt lat="29.703381" lon="98.497198">
<time>2016-10-07T15:31:38Z</time></trkpt>
<trkpt lat="29.703409" lon="98.496616">
<time>2016-10-07T15:31:39Z</time></trkpt>
<trkpt lat="29.703438" lon="98.496195">
<time>2016-10-07T15:31:40Z</time></trkpt>
<trkpt lat="29.703467" lon="98.495794">
<time>2016-10-07T15:31:41Z</time></trkpt>
<trkpt lat="29.703466" lon="98.495463">
<time>2016-10-07T15:31:42Z</time></trkpt>
<trkpt lat="29.703455" lon="98.495182">
<time>2016-10-07T15:31:43Z</time></trkpt>
<trkpt lat="29.703445" lon="98.494971">
<time>2016-10-07T15:31:44Z</time></trkpt>
<trkpt lat="29.703424" lon="98.494791">
<time>2016-10-07T15:31:45Z</time></trkpt>
<trkpt lat="29.703393" lon="98.49449">
<time>2016-10-07T15:31:46Z</time></trkpt>
<trkpt lat="29.703373" lon="98.494329">
<time>2016-10-07T15:31:47Z</time></trkpt>
<trkpt lat="29.703352" lon="98.494219">
<time>2016-10-07T15:31:48Z</time></trkpt>
<trkpt lat="29.703332" lon="98.494149">
<time>2016-10-07T15:31:49Z</time></trkpt>
<trkpt lat="29.703322" lon="98.494109">
<time>2016-10-07T15:31:50Z</time></trkpt>
<trkpt lat="29.703302" lon="98.494068">
<time>2016-10-07T15:31:51Z</time></trkpt>
<trkpt lat="29.703282" lon="98.494028">
<time>2016-10-07T15:31:52Z</time></trkpt>
<trkpt lat="29.703242" lon="98.493988">
<time>2016-10-07T15:31:53Z</time></trkpt>
<trkpt lat="29.703202" lon="98.493968">
<time>2016-10-07T15:31:54Z</time></trkpt>
<trkpt lat="29.703161" lon="98.493938">
<time>2016-10-07T15:31:55Z</time></trkpt>
<trkpt lat="29.703121" lon="98.493928">
<time>2016-10-07T15:31:56Z</time></trkpt>
<trkpt lat="29.703071" lon="98.493928">
<time>2016-10-07T15:31:57Z</time></trkpt>
<trkpt lat="29.703021" lon="98.493938">
<time>2016-10-07T15:31:58Z</time></trkpt>
<trkpt lat="29.702972" lon="98.493948">
<time>2016-10-07T15:31:59Z</time></trkpt>
<trkpt lat="29.702892" lon="98.493968">
<time>2016-10-07T15:32:00Z</time></trkpt>
<trkpt lat="29.702732" lon="98.494028">
<time>2016-10-07T15:32:01Z</time></trkpt>
<trkpt lat="29.702652" lon="98.494058">
<time>2016-10-07T15:32:02Z</time></trkpt>
<trkpt lat="29.702562" lon="98.494078">
<time>2016-10-07T15:32:03Z</time></trkpt>
<trkpt lat="29.702472" lon="98.494089">
<time>2016-10-07T15:32:04Z</time></trkpt>
<trkpt lat="29.702392" lon="98.494089">
<time>2016-10-07T15:32:05Z</time></trkpt>
<trkpt lat="29.702322" lon="98.494068">
<time>2016-10-07T15:32:06Z</time></trkpt>
<trkpt lat="29.702212" lon="98.494038">
<time>2016-10-07T15:32:07Z</time></trkpt>
<trkpt lat="29.702072" lon="98.493988">
<time>2016-10-07T15:32:08Z</time></trkpt>
<trkpt lat="29.701952" lon="98.493948">
<time>2016-10-07T15:32:09Z</time></trkpt>
<trkpt lat="29.701842" lon="98.493928">
<time>2016-10-07T15:32:10Z</time></trkpt>
<trkpt lat="29.701752" lon="98.493928">
<time>2016-10-07T15:32:11Z</time></trkpt>
<trkpt lat="29.701662" lon="98.493938">
<time>2016-10-07T15:32:12Z</time></trkpt>
<trkpt lat="29.701602" lon="98.493958">
<time>2016-10-07T15:32:13Z</time></trkpt>
<trkpt lat="29.701522" lon="98.493988">
<time>2016-10-07T15:32:14Z</time></trkpt>
<trkpt lat="29.701402" lon="98.494028">
<time>2016-10-07T15:32:15Z</time></trkpt>
<trkpt lat="29.701352" lon="98.494048">
<time>2016-10-07T15:32:16Z</time></trkpt>
<trkpt lat="29.701292" lon="98.494038">
<time>2016-10-07T15:32:17Z</time></trkpt>
<trkpt lat="29.701242" lon="98.494018">
<time>2016-10-07T15:32:18Z</time></trkpt>
<trkpt lat="29.701212" lon="98.493978">
<time>2016-10-07T15:32:19Z</time></trkpt>
<trkpt lat="29.701192" lon="98.493938">
<time>2016-10-07T15:32:20Z</time></trkpt>
<trkpt lat="29.701192" lon="98.493898">
<time>2016-10-07T15:32:21Z</time></trkpt>
<trkpt lat="29.701202" lon="98.493848">
<time>2016-10-07T15:32:22Z</time></trkpt>
<trkpt lat="29.701211" lon="98.493818">
<time>2016-10-07T15:32:23Z</time></trkpt>
<trkpt lat="29.701241" lon="98.493778">
<time>2016-10-07T15:32:24Z</time></trkpt>
<trkpt lat="29.701291" lon="98.493737">
<time>2016-10-07T15:32:25Z</time></trkpt>
<trkpt lat="29.701341" lon="98.493717">
<time>2016-10-07T15:32:26Z</time></trkpt>
<trkpt lat="29.701401" lon="98.493687">
<time>2016-10-07T15:32:27Z</time></trkpt>
<trkpt lat="29.701511" lon="98.493667">
<time>2016-10-07T15:32:28Z</time></trkpt>
<trkpt lat="29.701681" lon="98.493647">
<time>2016-10-07T15:32:29Z</time></trkpt>
<trkpt lat="29.701901" lon="98.493607">
<time>2016-10-07T15:32:30Z</time></trkpt>
<trkpt lat="29.702261" lon="98.493567">
<time>2016-10-07T15:32:31Z</time></trkpt>
<trkpt lat="29.70249" lon="98.493517">
<time>2016-10-07T15:32:32Z</time></trkpt>
<trkpt lat="29.70265" lon="98.493477">
<time>2016-10-07T15:32:33Z</time></trkpt>
<trkpt lat="29.70276" lon="98.493437">
<time>2016-10-07T15:32:34Z</time></trkpt>
<trkpt lat="29.70288" lon="98.493366">
<time>2016-10-07T15:32:35Z</time></trkpt>
<trkpt lat="29.703019" lon="98.493246">
<time>2016-10-07T15:32:36Z</time></trkpt>
<trkpt lat="29.703169" lon="98.493116">
<time>2016-10-07T15:32:37Z</time></trkpt>
<trkpt lat="29.703239" lon="98.493045">
<time>2016-10-07T15:32:38Z</time></trkpt>
<trkpt lat="29.703289" lon="98.493005">
<time>2016-10-07T15:32:39Z</time></trkpt>
<trkpt lat="29.703339" lon="98.492975">
<time>2016-10-07T15:32:40Z</time></trkpt>
<trkpt lat="29.703408" lon="98.492955">
<time>2016-10-07T15:32:41Z</time></trkpt>
<trkpt lat="29.703458" lon="98.492955">
<time>2016-10-07T15:32:42Z</time></trkpt>
<trkpt lat="29.703518" lon="98.492965">
<time>2016-10-07T15:32:43Z</time></trkpt>
<trkpt lat="29.703569" lon="98.492975">
<time>2016-10-07T15:32:44Z</time></trkpt>
<trkpt lat="29.703619" lon="98.493005">
<time>2016-10-07T15:32:45Z</time></trkpt>
<trkpt lat="29.703699" lon="98.493065">
<time>2016-10-07T15:32:46Z</time></trkpt>
<trkpt lat="29.703769" lon="98.493136">
<time>2016-10-07T15:32:47Z</time></trkpt>
<trkpt lat="29.703829" lon="98.493226">
<time>2016-10-07T15:32:48Z</time></trkpt>
<trkpt lat="29.703889" lon="98.493316">
<time>2016-10-07T15:32:49Z</time></trkpt>
<trkpt lat="29.704" lon="98.493527">
<time>2016-10-07T15:32:50Z</time></trkpt>
<trkpt lat="29.704141" lon="98.493778">
<time>2016-10-07T15:32:51Z</time></trkpt>
<trkpt lat="29.704211" lon="98.493898">
<time>2016-10-07T15:32:52Z</time></trkpt>
<trkpt lat="29.704292" lon="98.494018">
<time>2016-10-07T15:32:53Z</time></trkpt>
<trkpt lat="29.704392" lon="98.494139">
<time>2016-10-07T15:32:54Z</time></trkpt>
<trkpt lat="29.704532" lon="98.494279">
<time>2016-10-07T15:32:55Z</time></trkpt>
<trkpt lat="29.704713" lon="98.49444">
<time>2016-10-07T15:32:56Z</time></trkpt>
<trkpt lat="29.704883" lon="98.49461">
<time>2016-10-07T15:32:57Z</time></trkpt>
<trkpt lat="29.705094" lon="98.494841">
<time>2016-10-07T15:32:58Z</time></trkpt>
<trkpt lat="29.705174" lon="98.494931">
<time>2016-10-07T15:32:59Z</time></trkpt>
<trkpt lat="29.705254" lon="98.495011">
<time>2016-10-07T15:33:00Z</time></trkpt>
<trkpt lat="29.705304" lon="98.495061">
<time>2016-10-07T15:33:01Z</time></trkpt>
<trkpt lat="29.705364" lon="98.495082">
<time>2016-10-07T15:33:02Z</time></trkpt>
<trkpt lat="29.705414" lon="98.495082">
<time>2016-10-07T15:33:03Z</time></trkpt>
<trkpt lat="29.705454" lon="98.495061">
<time>2016-10-07T15:33:04Z</time></trkpt>
<trkpt lat="29.705484" lon="98.495051">
<time>2016-10-07T15:33:05Z</time></trkpt>
<trkpt lat="29.705514" lon="98.495011">
<time>2016-10-07T15:33:06Z</time></trkpt>
<trkpt lat="29.705544" lon="98.494971">
<time>2016-10-07T15:33:07Z</time></trkpt>
<trkpt lat="29.705564" lon="98.494911">
<time>2016-10-07T15:33:08Z</time></trkpt>
<trkpt lat="29.705564" lon="98.494831">
<time>2016-10-07T15:33:09Z</time></trkpt>
<trkpt lat="29.705553" lon="98.494761">
<time>2016-10-07T15:33:10Z</time></trkpt>
<trkpt lat="29.705523" lon="98.49467">
<time>2016-10-07T15:33:11Z</time></trkpt>
<trkpt lat="29.705453" lon="98.49451">
<time>2016-10-07T15:33:12Z</time></trkpt>
<trkpt lat="29.705352" lon="98.494289">
<time>2016-10-07T15:33:13Z</time></trkpt>
<trkpt lat="29.705232" lon="98.494078">
<time>2016-10-07T15:33:14Z</time></trkpt>
<trkpt lat="29.705131" lon="98.493918">
<time>2016-10-07T15:33:15Z</time></trkpt>
<trkpt lat="29.70498" lon="98.493697">
<time>2016-10-07T15:33:16Z</time></trkpt>
<trkpt lat="29.70482" lon="98.493426">
<time>2016-10-07T15:33:17Z</time></trkpt>
<trkpt lat="29.704729" lon="98.493266">
<time>2016-10-07T15:33:18Z</time></trkpt>
<trkpt lat="29.704679" lon="98.493156">
<time>2016-10-07T15:33:19Z</time></trkpt>
<trkpt lat="29.704568" lon="98.492865">
<time>2016-10-07T15:33:20Z</time></trkpt>
<trkpt lat="29.704508" lon="98.492744">
<time>2016-10-07T15:33:21Z</time></trkpt>
<trkpt lat="29.704447" lon="98.492654">
<time>2016-10-07T15:33:22Z</time></trkpt>
<trkpt lat="29.704377" lon="98.492554">
<time>2016-10-07T15:33:23Z</time></trkpt>
<trkpt lat="29.704267" lon="98.492413">
<time>2016-10-07T15:33:24Z</time></trkpt>
<trkpt lat="29.704237" lon="98.492373">
<time>2016-10-07T15:33:25Z</time></trkpt>
<trkpt lat="29.704206" lon="98.492323">
<time>2016-10-07T15:33:26Z</time></trkpt>
<trkpt lat="29.704186" lon="98.492283">
<time>2016-10-07T15:33:27Z</time></trkpt>
<trkpt lat="29.704186" lon="98.492233">
<time>2016-10-07T15:33:28Z</time></trkpt>
<trkpt lat="29.704206" lon="98.492183">
<time>2016-10-07T15:33:29Z</time></trkpt>
<trkpt lat="29.704226" lon="98.492143">
<time>2016-10-07T15:33:30Z</time></trkpt>
<trkpt lat="29.704256" lon="98.492112">
<time>2016-10-07T15:33:31Z</time></trkpt>
<trkpt lat="29.704296" lon="98.492092">
<time>2016-10-07T15:33:32Z</time></trkpt>
<trkpt lat="29.704336" lon="98.492082">
<time>2016-10-07T15:33:33Z</time></trkpt>
<trkpt lat="29.704366" lon="98.492082">
<time>2016-10-07T15:33:34Z</time></trkpt>
<trkpt lat="29.704406" lon="98.492092">
<time>2016-10-07T15:33:35Z</time></trkpt>
<trkpt lat="29.704436" lon="98.492112">
<time>2016-10-07T15:33:36Z</time></trkpt>
<trkpt lat="29.704486" lon="98.492153">
<time>2016-10-07T15:33:37Z</time></trkpt>
<trkpt lat="29.704566" lon="98.492243">
<time>2016-10-07T15:33:38Z</time></trkpt>
<trkpt lat="29.704656" lon="98.492363">
<time>2016-10-07T15:33:39Z</time></trkpt>
<trkpt lat="29.704747" lon="98.492474">
<time>2016-10-07T15:33:40Z</time></trkpt>
<trkpt lat="29.704857" lon="98.492564">
<time>2016-10-07T15:33:41Z</time></trkpt>
<trkpt lat="29.704957" lon="98.492654">
<time>2016-10-07T15:33:42Z</time></trkpt>
<trkpt lat="29.705047" lon="98.492704">
<time>2016-10-07T15:33:43Z</time></trkpt>
<trkpt lat="29.705158" lon="98.492754">
<time>2016-10-07T15:33:44Z</time></trkpt>
<trkpt lat="29.705328" lon="98.492815">
<time>2016-10-07T15:33:45Z</time></trkpt>
<trkpt lat="29.705608" lon="98.492905">
<time>2016-10-07T15:33:46Z</time></trkpt>
<trkpt lat="29.705718" lon="98.492935">
<time>2016-10-07T15:33:47Z</time></trkpt>
<trkpt lat="29.705778" lon="98.492945">
<time>2016-10-07T15:33:48Z</time></trkpt>
<trkpt lat="29.705838" lon="98.492955">
<time>2016-10-07T15:33:49Z</time></trkpt>
<trkpt lat="29.705878" lon="98.492945">
<time>2016-10-07T15:33:50Z</time></trkpt>
<trkpt lat="29.705918" lon="98.492915">
<time>2016-10-07T15:33:51Z</time></trkpt>
<trkpt lat="29.705938" lon="98.492895">
<time>2016-10-07T15:33:52Z</time></trkpt>
<trkpt lat="29.705968" lon="98.492855">
<time>2016-10-07T15:33:53Z</time></trkpt>
<trkpt lat="29.705968" lon="98.492825">
<time>2016-10-07T15:33:54Z</time></trkpt>
<trkpt lat="29.705978" lon="98.492784">
<time>2016-10-07T15:33:55Z</time></trkpt>
<trkpt lat="29.705967" lon="98.492734">
<time>2016-10-07T15:33:56Z</time></trkpt>
<trkpt lat="29.705957" lon="98.492694">
<time>2016-10-07T15:33:57Z</time></trkpt>
<trkpt lat="29.705927" lon="98.492644">
<time>2016-10-07T15:33:58Z</time></trkpt>
<trkpt lat="29.705897" lon="98.492604">
<time>2016-10-07T15:33:59Z</time></trkpt>
<trkpt lat="29.705817" lon="98.492524">
<time>2016-10-07T15:34:00Z</time></trkpt>
<trkpt lat="29.705686" lon="98.492393">
<time>2016-10-07T15:34:01Z</time></trkpt>
<trkpt lat="29.705596" lon="98.492303">
<time>2016-10-07T15:34:02Z</time></trkpt>
<trkpt lat="29.705506" lon="98.492213">
<time>2016-10-07T15:34:03Z</time></trkpt>
<trkpt lat="29.705466" lon="98.492163">
<time>2016-10-07T15:34:04Z</time></trkpt>
<trkpt lat="29.705436" lon="98.492102">
<time>2016-10-07T15:34:05Z</time></trkpt>
<trkpt lat="29.705405" lon="98.492042">
<time>2016-10-07T15:34:06Z</time></trkpt>
<trkpt lat="29.705375" lon="98.491962">
<time>2016-10-07T15:34:07Z</time></trkpt>
<trkpt lat="29.705355" lon="98.491892">
<time>2016-10-07T15:34:08Z</time></trkpt>
<trkpt lat="29.705345" lon="98.491801">
<time>2016-10-07T15:34:09Z</time></trkpt>
<trkpt lat="29.705344" lon="98.491711">
<time>2016-10-07T15:34:10Z</time></trkpt>
<trkpt lat="29.705344" lon="98.491611">
<time>2016-10-07T15:34:11Z</time></trkpt>
<trkpt lat="29.705363" lon="98.49139">
<time>2016-10-07T15:34:12Z</time></trkpt>
<trkpt lat="29.705393" lon="98.491119">
<time>2016-10-07T15:34:13Z</time></trkpt>
<trkpt lat="29.705451" lon="98.490558">
<time>2016-10-07T15:34:14Z</time></trkpt>
<trkpt lat="29.70547" lon="98.490357">
<time>2016-10-07T15:34:15Z</time></trkpt>
<trkpt lat="29.70548" lon="98.490247">
<time>2016-10-07T15:34:16Z</time></trkpt>
<trkpt lat="29.7055" lon="98.490197">
<time>2016-10-07T15:34:17Z</time></trkpt>
<trkpt lat="29.70552" lon="98.490156">
<time>2016-10-07T15:34:18Z</time></trkpt>
<trkpt lat="29.70555" lon="98.490116">
<time>2016-10-07T15:34:19Z</time></trkpt>
<trkpt lat="29.70558" lon="98.490096">
<time>2016-10-07T15:34:20Z</time></trkpt>
<trkpt lat="29.70562" lon="98.490076">
<time>2016-10-07T15:34:21Z</time></trkpt>
<trkpt lat="29.705649" lon="98.490066">
<time>2016-10-07T15:34:22Z</time></trkpt>
<trkpt lat="29.705689" lon="98.490066">
<time>2016-10-07T15:34:23Z</time></trkpt>
<trkpt lat="29.70574" lon="98.490076">
<time>2016-10-07T15:34:24Z</time></trkpt>
<trkpt lat="29.70579" lon="98.490096">
<time>2016-10-07T15:34:25Z</time></trkpt>
<trkpt lat="29.70584" lon="98.490126">
<time>2016-10-07T15:34:26Z</time></trkpt>
<trkpt lat="29.70589" lon="98.490176">
<time>2016-10-07T15:34:27Z</time></trkpt>
<trkpt lat="29.70595" lon="98.490227">
<time>2016-10-07T15:34:28Z</time></trkpt>
<trkpt lat="29.70603" lon="98.490307">
<time>2016-10-07T15:34:29Z</time></trkpt>
<trkpt lat="29.70614" lon="98.490407">
<time>2016-10-07T15:34:30Z</time></trkpt>
<trkpt lat="29.706241" lon="98.490518">
<time>2016-10-07T15:34:31Z</time></trkpt>
<trkpt lat="29.706381" lon="98.490648">
<time>2016-10-07T15:34:32Z</time></trkpt>
<trkpt lat="29.706451" lon="98.490708">
<time>2016-10-07T15:34:33Z</time></trkpt>
<trkpt lat="29.706521" lon="98.490758">
<time>2016-10-07T15:34:34Z</time></trkpt>
<trkpt lat="29.706632" lon="98.490818">
<time>2016-10-07T15:34:35Z</time></trkpt>
<trkpt lat="29.706742" lon="98.490859">
<time>2016-10-07T15:34:36Z</time></trkpt>
<trkpt lat="29.706812" lon="98.490879">
<time>2016-10-07T15:34:37Z</time></trkpt>
<trkpt lat="29.706932" lon="98.490879">
<time>2016-10-07T15:34:38Z</time></trkpt>
<trkpt lat="29.707072" lon="98.490879">
<time>2016-10-07T15:34:39Z</time></trkpt>
<trkpt lat="29.707292" lon="98.490859">
<time>2016-10-07T15:34:40Z</time></trkpt>
<trkpt lat="29.707491" lon="98.490848">
<time>2016-10-07T15:34:41Z</time></trkpt>
<trkpt lat="29.707791" lon="98.490828">
<time>2016-10-07T15:34:42Z</time></trkpt>
<trkpt lat="29.707971" lon="98.490798">
<time>2016-10-07T15:34:43Z</time></trkpt>
<trkpt lat="29.708071" lon="98.490778">
<time>2016-10-07T15:34:44Z</time></trkpt>
<trkpt lat="29.708151" lon="98.490738">
<time>2016-10-07T15:34:45Z</time></trkpt>
<trkpt lat="29.708231" lon="98.490688">
<time>2016-10-07T15:34:46Z</time></trkpt>
<trkpt lat="29.708341" lon="98.490598">
<time>2016-10-07T15:34:47Z</time></trkpt>
<trkpt lat="29.7085" lon="98.490447">
<time>2016-10-07T15:34:48Z</time></trkpt>
<trkpt lat="29.70863" lon="98.490317">
<time>2016-10-07T15:34:49Z</time></trkpt>
<trkpt lat="29.708869" lon="98.490096">
<time>2016-10-07T15:34:50Z</time></trkpt>
<trkpt lat="29.709029" lon="98.489946">
<time>2016-10-07T15:34:51Z</time></trkpt>
<trkpt lat="29.709128" lon="98.489845">
<time>2016-10-07T15:34:52Z</time></trkpt>
<trkpt lat="29.709238" lon="98.489695">
<time>2016-10-07T15:34:53Z</time></trkpt>
<trkpt lat="29.709886" lon="98.489053">
<time>2016-10-07T15:34:54Z</time></trkpt>
<trkpt lat="29.710344" lon="98.488602">
<time>2016-10-07T15:34:55Z</time></trkpt>
<trkpt lat="29.710753" lon="98.4882">
<time>2016-10-07T15:34:56Z</time></trkpt>
<trkpt lat="29.710863" lon="98.48809">
<time>2016-10-07T15:34:57Z</time></trkpt>
<trkpt lat="29.710992" lon="98.48801">
<time>2016-10-07T15:34:58Z</time></trkpt>
<trkpt lat="29.711122" lon="98.48793">
<time>2016-10-07T15:34:59Z</time></trkpt>
<trkpt lat="29.711292" lon="98.487859">
<time>2016-10-07T15:35:00Z</time></trkpt>
<trkpt lat="29.711452" lon="98.487819">
<time>2016-10-07T15:35:01Z</time></trkpt>
<trkpt lat="29.711642" lon="98.487799">
<time>2016-10-07T15:35:02Z</time></trkpt>
<trkpt lat="29.711922" lon="98.487759">
<time>2016-10-07T15:35:03Z</time></trkpt>
<trkpt lat="29.712251" lon="98.487719">
<time>2016-10-07T15:35:04Z</time></trkpt>
<trkpt lat="29.712431" lon="98.487689">
<time>2016-10-07T15:35:05Z</time></trkpt>
<trkpt lat="29.712511" lon="98.487659">
<time>2016-10-07T15:35:06Z</time></trkpt>
<trkpt lat="29.712581" lon="98.487619">
<time>2016-10-07T15:35:07Z</time></trkpt>
<trkpt lat="29.712621" lon="98.487578">
<time>2016-10-07T15:35:08Z</time></trkpt>
<trkpt lat="29.712661" lon="98.487538">
<time>2016-10-07T15:35:09Z</time></trkpt>
<trkpt lat="29.712691" lon="98.487478">
<time>2016-10-07T15:35:10Z</time></trkpt>
<trkpt lat="29.7127" lon="98.487418">
<time>2016-10-07T15:35:11Z</time></trkpt>
<trkpt lat="29.7127" lon="98.487358">
<time>2016-10-07T15:35:12Z</time></trkpt>
<trkpt lat="29.7127" lon="98.487267">
<time>2016-10-07T15:35:13Z</time></trkpt>
<trkpt lat="29.71267" lon="98.487187">
<time>2016-10-07T15:35:14Z</time></trkpt>
<trkpt lat="29.71263" lon="98.487117">
<time>2016-10-07T15:35:15Z</time></trkpt>
<trkpt lat="29.712569" lon="98.487027">
<time>2016-10-07T15:35:16Z</time></trkpt>
<trkpt lat="29.712489" lon="98.486957">
<time>2016-10-07T15:35:17Z</time></trkpt>
<trkpt lat="29.712289" lon="98.486816">
<time>2016-10-07T15:35:18Z</time></trkpt>
<trkpt lat="29.711958" lon="98.486585">
<time>2016-10-07T15:35:19Z</time></trkpt>
<trkpt lat="29.711567" lon="98.486325">
<time>2016-10-07T15:35:20Z</time></trkpt>
<trkpt lat="29.711407" lon="98.486184">
<time>2016-10-07T15:35:21Z</time></trkpt>
<trkpt lat="29.711177" lon="98.486014">
<time>2016-10-07T15:35:22Z</time></trkpt>
<trkpt lat="29.711006" lon="98.485893">
<time>2016-10-07T15:35:23Z</time></trkpt>
<trkpt lat="29.710936" lon="98.485843">
<time>2016-10-07T15:35:24Z</time></trkpt>
<trkpt lat="29.710886" lon="98.485773">
<time>2016-10-07T15:35:25Z</time></trkpt>
<trkpt lat="29.710846" lon="98.485703">
<time>2016-10-07T15:35:26Z</time></trkpt>
<trkpt lat="29.710815" lon="98.485603">
<time>2016-10-07T15:35:27Z</time></trkpt>
<trkpt lat="29.710795" lon="98.485522">
<time>2016-10-07T15:35:28Z</time></trkpt>
<trkpt lat="29.710795" lon="98.485402">
<time>2016-10-07T15:35:29Z</time></trkpt>
<trkpt lat="29.710805" lon="98.485312">
<time>2016-10-07T15:35:30Z</time></trkpt>
<trkpt lat="29.710834" lon="98.485201">
<time>2016-10-07T15:35:31Z</time></trkpt>
<trkpt lat="29.710874" lon="98.485111">
<time>2016-10-07T15:35:32Z</time></trkpt>
<trkpt lat="29.710934" lon="98.485021">
<time>2016-10-07T15:35:33Z</time></trkpt>
<trkpt lat="29.711003" lon="98.48493">
<time>2016-10-07T15:35:34Z</time></trkpt>
<trkpt lat="29.711083" lon="98.48485">
<time>2016-10-07T15:35:35Z</time></trkpt>
<trkpt lat="29.711223" lon="98.48475">
<time>2016-10-07T15:35:36Z</time></trkpt>
<trkpt lat="29.711462" lon="98.48461">
<time>2016-10-07T15:35:37Z</time></trkpt>
<trkpt lat="29.711762" lon="98.484439">
<time>2016-10-07T15:35:38Z</time></trkpt>
<trkpt lat="29.712031" lon="98.484289">
<time>2016-10-07T15:35:39Z</time></trkpt>
<trkpt lat="29.712171" lon="98.484198">
<time>2016-10-07T15:35:40Z</time></trkpt>
<trkpt lat="29.712261" lon="98.484108">
<time>2016-10-07T15:35:41Z</time></trkpt>
<trkpt lat="29.71235" lon="98.483988">
<time>2016-10-07T15:35:42Z</time></trkpt>
<trkpt lat="29.71239" lon="98.483887">
<time>2016-10-07T15:35:43Z</time></trkpt>
<trkpt lat="29.71242" lon="98.483767">
<time>2016-10-07T15:35:44Z</time></trkpt>
<trkpt lat="29.712449" lon="98.483596">
<time>2016-10-07T15:35:45Z</time></trkpt>
<trkpt lat="29.712508" lon="98.483286">
<time>2016-10-07T15:35:46Z</time></trkpt>
<trkpt lat="29.712538" lon="98.483085">
<time>2016-10-07T15:35:47Z</time></trkpt>
<trkpt lat="29.712567" lon="98.482975">
<time>2016-10-07T15:35:48Z</time></trkpt>
<trkpt lat="29.712607" lon="98.482864">
<time>2016-10-07T15:35:49Z</time></trkpt>
<trkpt lat="29.712647" lon="98.482784">
<time>2016-10-07T15:35:50Z</time></trkpt>
<trkpt lat="29.712707" lon="98.482704">
<time>2016-10-07T15:35:51Z</time></trkpt>
<trkpt lat="29.712776" lon="98.482634">
<time>2016-10-07T15:35:52Z</time></trkpt>
<trkpt lat="29.712846" lon="98.482563">
<time>2016-10-07T15:35:53Z</time></trkpt>
<trkpt lat="29.712956" lon="98.482483">
<time>2016-10-07T15:35:54Z</time></trkpt>
<trkpt lat="29.713016" lon="98.482443">
<time>2016-10-07T15:35:55Z</time></trkpt>
<trkpt lat="29.713136" lon="98.482373">
<time>2016-10-07T15:35:56Z</time></trkpt>
<trkpt lat="29.713285" lon="98.482273">
<time>2016-10-07T15:35:57Z</time></trkpt>
<trkpt lat="29.713385" lon="98.482182">
<time>2016-10-07T15:35:58Z</time></trkpt>
<trkpt lat="29.713465" lon="98.482092">
<time>2016-10-07T15:35:59Z</time></trkpt>
<trkpt lat="29.713525" lon="98.482012">
<time>2016-10-07T15:36:00Z</time></trkpt>
<trkpt lat="29.713564" lon="98.481921">
<time>2016-10-07T15:36:01Z</time></trkpt>
<trkpt lat="29.713604" lon="98.481821">
<time>2016-10-07T15:36:02Z</time></trkpt>
<trkpt lat="29.713634" lon="98.481701">
<time>2016-10-07T15:36:03Z</time></trkpt>
<trkpt lat="29.713653" lon="98.48148">
<time>2016-10-07T15:36:04Z</time></trkpt>
<trkpt lat="29.713692" lon="98.481029">
<time>2016-10-07T15:36:05Z</time></trkpt>
<trkpt lat="29.713711" lon="98.480778">
<time>2016-10-07T15:36:06Z</time></trkpt>
<trkpt lat="29.71374" lon="98.480437">
<time>2016-10-07T15:36:07Z</time></trkpt>
<trkpt lat="29.71376" lon="98.480277">
<time>2016-10-07T15:36:08Z</time></trkpt>
<trkpt lat="29.713789" lon="98.480126">
<time>2016-10-07T15:36:09Z</time></trkpt>
<trkpt lat="29.713819" lon="98.479976">
<time>2016-10-07T15:36:10Z</time></trkpt>
<trkpt lat="29.713858" lon="98.479855">
<time>2016-10-07T15:36:11Z</time></trkpt>
<trkpt lat="29.713908" lon="98.479735">
<time>2016-10-07T15:36:12Z</time></trkpt>
<trkpt lat="29.713968" lon="98.479585">
<time>2016-10-07T15:36:13Z</time></trkpt>
<trkpt lat="29.714097" lon="98.479284">
<time>2016-10-07T15:36:14Z</time></trkpt>
<trkpt lat="29.714216" lon="98.479033">
<time>2016-10-07T15:36:15Z</time></trkpt>
<trkpt lat="29.714315" lon="98.478872">
<time>2016-10-07T15:36:16Z</time></trkpt>
<trkpt lat="29.714395" lon="98.478742">
<time>2016-10-07T15:36:17Z</time></trkpt>
<trkpt lat="29.714495" lon="98.478632">
<time>2016-10-07T15:36:18Z</time></trkpt>
<trkpt lat="29.714644" lon="98.478491">
<time>2016-10-07T15:36:19Z</time></trkpt>
<trkpt lat="29.714754" lon="98.478391">
<time>2016-10-07T15:36:20Z</time></trkpt>
<trkpt lat="29.714854" lon="98.478271">
<time>2016-10-07T15:36:21Z</time></trkpt>
<trkpt lat="29.714953" lon="98.47813">
<time>2016-10-07T15:36:22Z</time></trkpt>
<trkpt lat="29.715023" lon="98.47799">
<time>2016-10-07T15:36:23Z</time></trkpt>
<trkpt lat="29.715082" lon="98.477839">
<time>2016-10-07T15:36:24Z</time></trkpt>
<trkpt lat="29.715172" lon="98.477649">
<time>2016-10-07T15:36:25Z</time></trkpt>
<trkpt lat="29.715261" lon="98.477478">
<time>2016-10-07T15:36:26Z</time></trkpt>
<trkpt lat="29.715391" lon="98.477298">
<time>2016-10-07T15:36:27Z</time></trkpt>
<trkpt lat="29.7156" lon="98.477037">
<time>2016-10-07T15:36:28Z</time></trkpt>
<trkpt lat="29.71571" lon="98.476877">
<time>2016-10-07T15:36:29Z</time></trkpt>
<trkpt lat="29.715799" lon="98.476716">
<time>2016-10-07T15:36:30Z</time></trkpt>
<trkpt lat="29.715909" lon="98.476516">
<time>2016-10-07T15:36:31Z</time></trkpt>
<trkpt lat="29.716008" lon="98.476285">
<time>2016-10-07T15:36:32Z</time></trkpt>
<trkpt lat="29.716097" lon="98.476104">
<time>2016-10-07T15:36:33Z</time></trkpt>
<trkpt lat="29.716197" lon="98.475934">
<time>2016-10-07T15:36:34Z</time></trkpt>
<trkpt lat="29.716346" lon="98.475733">
<time>2016-10-07T15:36:35Z</time></trkpt>
<trkpt lat="29.716466" lon="98.475593">
<time>2016-10-07T15:36:36Z</time></trkpt>
<trkpt lat="29.716566" lon="98.475453">
<time>2016-10-07T15:36:37Z</time></trkpt>
<trkpt lat="29.716705" lon="98.475282">
<time>2016-10-07T15:36:38Z</time></trkpt>
<trkpt lat="29.716815" lon="98.475142">
<time>2016-10-07T15:36:39Z</time></trkpt>
<trkpt lat="29.716894" lon="98.475011">
<time>2016-10-07T15:36:40Z</time></trkpt>
<trkpt lat="29.716934" lon="98.474891">
<time>2016-10-07T15:36:41Z</time></trkpt>
<trkpt lat="29.716964" lon="98.474791">
<time>2016-10-07T15:36:42Z</time></trkpt>
<trkpt lat="29.716973" lon="98.47469">
<time>2016-10-07T15:36:43Z</time></trkpt>
<trkpt lat="29.716973" lon="98.4746">
<time>2016-10-07T15:36:44Z</time></trkpt>
<trkpt lat="29.716963" lon="98.4745">
<time>2016-10-07T15:36:45Z</time></trkpt>
<trkpt lat="29.716942" lon="98.474359">
<time>2016-10-07T15:36:46Z</time></trkpt>
<trkpt lat="29.716902" lon="98.474209">
<time>2016-10-07T15:36:47Z</time></trkpt>
<trkpt lat="29.716831" lon="98.473968">
<time>2016-10-07T15:36:48Z</time></trkpt>
<trkpt lat="29.716811" lon="98.473868">
<time>2016-10-07T15:36:49Z</time></trkpt>
<trkpt lat="29.716781" lon="98.473748">
<time>2016-10-07T15:36:50Z</time></trkpt>
<trkpt lat="29.71677" lon="98.473607">
<time>2016-10-07T15:36:51Z</time></trkpt>
<trkpt lat="29.71678" lon="98.473407">
<time>2016-10-07T15:36:52Z</time></trkpt>
<trkpt lat="29.716789" lon="98.473186">
<time>2016-10-07T15:36:53Z</time></trkpt>
<trkpt lat="29.716808" lon="98.472825">
<time>2016-10-07T15:36:54Z</time></trkpt>
<trkpt lat="29.716818" lon="98.472625">
<time>2016-10-07T15:36:55Z</time></trkpt>
<trkpt lat="29.716847" lon="98.472424">
<time>2016-10-07T15:36:56Z</time></trkpt>
<trkpt lat="29.716877" lon="98.472213">
<time>2016-10-07T15:36:57Z</time></trkpt>
<trkpt lat="29.716916" lon="98.472003">
<time>2016-10-07T15:36:58Z</time></trkpt>
<trkpt lat="29.716965" lon="98.471792">
<time>2016-10-07T15:36:59Z</time></trkpt>
<trkpt lat="29.717025" lon="98.471582">
<time>2016-10-07T15:37:00Z</time></trkpt>
<trkpt lat="29.717074" lon="98.471431">
<time>2016-10-07T15:37:01Z</time></trkpt>
<trkpt lat="29.717094" lon="98.471321">
<time>2016-10-07T15:37:02Z</time></trkpt>
<trkpt lat="29.717094" lon="98.471241">
<time>2016-10-07T15:37:03Z</time></trkpt>
<trkpt lat="29.717074" lon="98.471191">
<time>2016-10-07T15:37:04Z</time></trkpt>
<trkpt lat="29.717054" lon="98.47113">
<time>2016-10-07T15:37:05Z</time></trkpt>
<trkpt lat="29.717014" lon="98.47109">
<time>2016-10-07T15:37:06Z</time></trkpt>
<trkpt lat="29.716983" lon="98.47105">
<time>2016-10-07T15:37:07Z</time></trkpt>
<trkpt lat="29.716933" lon="98.47103">
<time>2016-10-07T15:37:08Z</time></trkpt>
<trkpt lat="29.716873" lon="98.47103">
<time>2016-10-07T15:37:09Z</time></trkpt>
<trkpt lat="29.716823" lon="98.47104">
<time>2016-10-07T15:37:10Z</time></trkpt>
<trkpt lat="29.716754" lon="98.47107">
<time>2016-10-07T15:37:11Z</time></trkpt>
<trkpt lat="29.716564" lon="98.471211">
<time>2016-10-07T15:37:12Z</time></trkpt>
<trkpt lat="29.716384" lon="98.471351">
<time>2016-10-07T15:37:13Z</time></trkpt>
<trkpt lat="29.716135" lon="98.471542">
<time>2016-10-07T15:37:14Z</time></trkpt>
<trkpt lat="29.715915" lon="98.471712">
<time>2016-10-07T15:37:15Z</time></trkpt>
<trkpt lat="29.715656" lon="98.471903">
<time>2016-10-07T15:37:16Z</time></trkpt>
<trkpt lat="29.715576" lon="98.471953">
<time>2016-10-07T15:37:17Z</time></trkpt>
<trkpt lat="29.715496" lon="98.471993">
<time>2016-10-07T15:37:18Z</time></trkpt>
<trkpt lat="29.715396" lon="98.472043">
<time>2016-10-07T15:37:19Z</time></trkpt>
<trkpt lat="29.715217" lon="98.472123">
<time>2016-10-07T15:37:20Z</time></trkpt>
<trkpt lat="29.715067" lon="98.472183">
<time>2016-10-07T15:37:21Z</time></trkpt>
<trkpt lat="29.714947" lon="98.472224">
<time>2016-10-07T15:37:22Z</time></trkpt>
<trkpt lat="29.714847" lon="98.472264">
<time>2016-10-07T15:37:23Z</time></trkpt>
<trkpt lat="29.714797" lon="98.472284">
<time>2016-10-07T15:37:24Z</time></trkpt>
<trkpt lat="29.714747" lon="98.472294">
<time>2016-10-07T15:37:25Z</time></trkpt>
<trkpt lat="29.714717" lon="98.472304">
<time>2016-10-07T15:37:26Z</time></trkpt>
<trkpt lat="29.714677" lon="98.472304">
<time>2016-10-07T15:37:27Z</time></trkpt>
<trkpt lat="29.714647" lon="98.472304">
<time>2016-10-07T15:37:28Z</time></trkpt>
<trkpt lat="29.714627" lon="98.472294">
<time>2016-10-07T15:37:29Z</time></trkpt>
<trkpt lat="29.714597" lon="98.472284">
<time>2016-10-07T15:37:30Z</time></trkpt>
<trkpt lat="29.714567" lon="98.472274">
<time>2016-10-07T15:37:31Z</time></trkpt>
<trkpt lat="29.714557" lon="98.472264">
<time>2016-10-07T15:37:32Z</time></trkpt>
<trkpt lat="29.714537" lon="98.472244">
<time>2016-10-07T15:37:33Z</time></trkpt>
<trkpt lat="29.714527" lon="98.472234">
<time>2016-10-07T15:37:34Z</time></trkpt>
<trkpt lat="29.714517" lon="98.472214">
<time>2016-10-07T15:37:35Z</time></trkpt>
<trkpt lat="29.714507" lon="98.472193">
<time>2016-10-07T15:37:36Z</time></trkpt>
<trkpt lat="29.714497" lon="98.472173">
<time>2016-10-07T15:37:37Z</time></trkpt>
<trkpt lat="29.714487" lon="98.472163">
<time>2016-10-07T15:37:38Z</time></trkpt>
<trkpt lat="29.714487" lon="98.472133">
<time>2016-10-07T15:37:39Z</time></trkpt>
<trkpt lat="29.714477" lon="98.472113">
<time>2016-10-07T15:37:40Z</time></trkpt>
<trkpt lat="29.714477" lon="98.472083">
<time>2016-10-07T15:37:41Z</time></trkpt>
<trkpt lat="29.714477" lon="98.472053">
<time>2016-10-07T15:37:42Z</time></trkpt>
<trkpt lat="29.714476" lon="98.472023">
<time>2016-10-07T15:37:43Z</time></trkpt>
<trkpt lat="29.714476" lon="98.471993">
<time>2016-10-07T15:37:44Z</time></trkpt>
<trkpt lat="29.714486" lon="98.471973">
<time>2016-10-07T15:37:45Z</time></trkpt>
<trkpt lat="29.714486" lon="98.471943">
<time>2016-10-07T15:37:46Z</time></trkpt>
<trkpt lat="29.714496" lon="98.471903">
<time>2016-10-07T15:37:47Z</time></trkpt>
<trkpt lat="29.714506" lon="98.471873">
<time>2016-10-07T15:37:48Z</time></trkpt>
<trkpt lat="29.714516" lon="98.471832">
<time>2016-10-07T15:37:49Z</time></trkpt>
<trkpt lat="29.714526" lon="98.471782">
<time>2016-10-07T15:37:50Z</time></trkpt>
<trkpt lat="29.714546" lon="98.471732">
<time>2016-10-07T15:37:51Z</time></trkpt>
<trkpt lat="29.714566" lon="98.471672">
<time>2016-10-07T15:37:52Z</time></trkpt>
<trkpt lat="29.714595" lon="98.471562">
<time>2016-10-07T15:37:53Z</time></trkpt>
<trkpt lat="29.714625" lon="98.471471">
<time>2016-10-07T15:37:54Z</time></trkpt>
<trkpt lat="29.714665" lon="98.471371">
<time>2016-10-07T15:37:55Z</time></trkpt>
<trkpt lat="29.714694" lon="98.471251">
<time>2016-10-07T15:37:56Z</time></trkpt>
<trkpt lat="29.714724" lon="98.471151">
<time>2016-10-07T15:37:57Z</time></trkpt>
<trkpt lat="29.714744" lon="98.47108">
<time>2016-10-07T15:37:58Z</time></trkpt>
<trkpt lat="29.714774" lon="98.47099">
<time>2016-10-07T15:37:59Z</time></trkpt>
<trkpt lat="29.714794" lon="98.47093">
<time>2016-10-07T15:38:00Z</time></trkpt>
<trkpt lat="29.714813" lon="98.47087">
<time>2016-10-07T15:38:01Z</time></trkpt>
<trkpt lat="29.714833" lon="98.47078">
<time>2016-10-07T15:38:02Z</time></trkpt>
<trkpt lat="29.714853" lon="98.470729">
<time>2016-10-07T15:38:03Z</time></trkpt>
<trkpt lat="29.714883" lon="98.470639">
<time>2016-10-07T15:38:04Z</time></trkpt>
<trkpt lat="29.714903" lon="98.470559">
<time>2016-10-07T15:38:05Z</time></trkpt>
<trkpt lat="29.714932" lon="98.470459">
<time>2016-10-07T15:38:06Z</time></trkpt>
<trkpt lat="29.714962" lon="98.470358">
<time>2016-10-07T15:38:07Z</time></trkpt>
<trkpt lat="29.715002" lon="98.470208">
<time>2016-10-07T15:38:08Z</time></trkpt>
<trkpt lat="29.715041" lon="98.470098">
<time>2016-10-07T15:38:09Z</time></trkpt>
<trkpt lat="29.715071" lon="98.469997">
<time>2016-10-07T15:38:10Z</time></trkpt>
<trkpt lat="29.715111" lon="98.469857">
<time>2016-10-07T15:38:11Z</time></trkpt>
<trkpt lat="29.71516" lon="98.469707">
<time>2016-10-07T15:38:12Z</time></trkpt>
<trkpt lat="29.71519" lon="98.469596">
<time>2016-10-07T15:38:13Z</time></trkpt>
<trkpt lat="29.71523" lon="98.469496">
<time>2016-10-07T15:38:14Z</time></trkpt>
<trkpt lat="29.715259" lon="98.469386">
<time>2016-10-07T15:38:15Z</time></trkpt>
<trkpt lat="29.715279" lon="98.469306">
<time>2016-10-07T15:38:16Z</time></trkpt>
<trkpt lat="29.715299" lon="98.469255">
<time>2016-10-07T15:38:17Z</time></trkpt>
<trkpt lat="29.715309" lon="98.469225">
<time>2016-10-07T15:38:18Z</time></trkpt>
<trkpt lat="29.715319" lon="98.469185">
<time>2016-10-07T15:38:19Z</time></trkpt>
<trkpt lat="29.715329" lon="98.469155">
<time>2016-10-07T15:38:20Z</time></trkpt>
<trkpt lat="29.715339" lon="98.469115">
<time>2016-10-07T15:38:21Z</time></trkpt>
<trkpt lat="29.715348" lon="98.469055">
<time>2016-10-07T15:38:22Z</time></trkpt>
<trkpt lat="29.715368" lon="98.468985">
<time>2016-10-07T15:38:23Z</time></trkpt>
<trkpt lat="29.715378" lon="98.468914">
<time>2016-10-07T15:38:24Z</time></trkpt>
<trkpt lat="29.715388" lon="98.468864">
<time>2016-10-07T15:38:25Z</time></trkpt>
<trkpt lat="29.715398" lon="98.468814">
<time>2016-10-07T15:38:26Z</time></trkpt>
<trkpt lat="29.715418" lon="98.468744">
<time>2016-10-07T15:38:27Z</time></trkpt>
<trkpt lat="29.715437" lon="98.468644">
<time>2016-10-07T15:38:28Z</time></trkpt>
<trkpt lat="29.715437" lon="98.468614">
<time>2016-10-07T15:38:29Z</time></trkpt>
<trkpt lat="29.715457" lon="98.468523">
<time>2016-10-07T15:38:30Z</time></trkpt>
<trkpt lat="29.715467" lon="98.468443">
<time>2016-10-07T15:38:31Z</time></trkpt>
<trkpt lat="29.715477" lon="98.468373">
<time>2016-10-07T15:38:32Z</time></trkpt>
<trkpt lat="29.715486" lon="98.468293">
<time>2016-10-07T15:38:33Z</time></trkpt>
<trkpt lat="29.715496" lon="98.468243">
<time>2016-10-07T15:38:34Z</time></trkpt>
<trkpt lat="29.715516" lon="98.468162">
<time>2016-10-07T15:38:35Z</time></trkpt>
<trkpt lat="29.715526" lon="98.468072">
<time>2016-10-07T15:38:36Z</time></trkpt>
<trkpt lat="29.715546" lon="98.467972">
<time>2016-10-07T15:38:37Z</time></trkpt>
<trkpt lat="29.715565" lon="98.467872">
<time>2016-10-07T15:38:38Z</time></trkpt>
<trkpt lat="29.715575" lon="98.467781">
<time>2016-10-07T15:38:39Z</time></trkpt>
<trkpt lat="29.715595" lon="98.467681">
<time>2016-10-07T15:38:40Z</time></trkpt>
<trkpt lat="29.715615" lon="98.467581">
<time>2016-10-07T15:38:41Z</time></trkpt>
<trkpt lat="29.715634" lon="98.467481">
<time>2016-10-07T15:38:42Z</time></trkpt>
<trkpt lat="29.715654" lon="98.46736">
<time>2016-10-07T15:38:43Z</time></trkpt>
<trkpt lat="29.715664" lon="98.46731">
<time>2016-10-07T15:38:44Z</time></trkpt>
<trkpt lat="29.715674" lon="98.46727">
<time>2016-10-07T15:38:45Z</time></trkpt>
<trkpt lat="29.715684" lon="98.46723">
<time>2016-10-07T15:38:46Z</time></trkpt>
<trkpt lat="29.715694" lon="98.4672">
<time>2016-10-07T15:38:47Z</time></trkpt>
<trkpt lat="29.715703" lon="98.46717">
<time>2016-10-07T15:38:48Z</time></trkpt>
<trkpt lat="29.715713" lon="98.46714">
<time>2016-10-07T15:38:49Z</time></trkpt>
<trkpt lat="29.715733" lon="98.46711">
<time>2016-10-07T15:38:50Z</time></trkpt>
<trkpt lat="29.715753" lon="98.46709">
<time>2016-10-07T15:38:51Z</time></trkpt>
<trkpt lat="29.715763" lon="98.46707">
<time>2016-10-07T15:38:52Z</time></trkpt>
<trkpt lat="29.715783" lon="98.467049">
<time>2016-10-07T15:38:53Z</time></trkpt>
<trkpt lat="29.715803" lon="98.467029">
<time>2016-10-07T15:38:54Z</time></trkpt>
<trkpt lat="29.715823" lon="98.467009">
<time>2016-10-07T15:38:55Z</time></trkpt>
<trkpt lat="29.715853" lon="98.466999">
<time>2016-10-07T15:38:56Z</time></trkpt>
<trkpt lat="29.715873" lon="98.466989">
<time>2016-10-07T15:38:57Z</time></trkpt>
<trkpt lat="29.715903" lon="98.466979">
<time>2016-10-07T15:38:58Z</time></trkpt>
<trkpt lat="29.715923" lon="98.466979">
<time>2016-10-07T15:38:59Z</time></trkpt>
<trkpt lat="29.715953" lon="98.466969">
<time>2016-10-07T15:39:00Z</time></trkpt>
<trkpt lat="29.715993" lon="98.466979">
<time>2016-10-07T15:39:01Z</time></trkpt>
<trkpt lat="29.716013" lon="98.466979">
<time>2016-10-07T15:39:02Z</time></trkpt>
<trkpt lat="29.716043" lon="98.466989">
<time>2016-10-07T15:39:03Z</time></trkpt>
<trkpt lat="29.716063" lon="98.466999">
<time>2016-10-07T15:39:04Z</time></trkpt>
<trkpt lat="29.716083" lon="98.467009">
<time>2016-10-07T15:39:05Z</time></trkpt>
<trkpt lat="29.716103" lon="98.467019">
<time>2016-10-07T15:39:06Z</time></trkpt>
<trkpt lat="29.716123" lon="98.467039">
<time>2016-10-07T15:39:07Z</time></trkpt>
<trkpt lat="29.716143" lon="98.46706">
<time>2016-10-07T15:39:08Z</time></trkpt>
<trkpt lat="29.716153" lon="98.46708">
<time>2016-10-07T15:39:09Z</time></trkpt>
<trkpt lat="29.716173" lon="98.4671">
<time>2016-10-07T15:39:10Z</time></trkpt>
<trkpt lat="29.716203" lon="98.46715">
<time>2016-10-07T15:39:11Z</time></trkpt>
<trkpt lat="29.716233" lon="98.4672">
<time>2016-10-07T15:39:12Z</time></trkpt>
<trkpt lat="29.716254" lon="98.46725">
<time>2016-10-07T15:39:13Z</time></trkpt>
<trkpt lat="29.716274" lon="98.4673">
<time>2016-10-07T15:39:14Z</time></trkpt>
<trkpt lat="29.716314" lon="98.46739">
<time>2016-10-07T15:39:15Z</time></trkpt>
<trkpt lat="29.716344" lon="98.467471">
<time>2016-10-07T15:39:16Z</time></trkpt>
<trkpt lat="29.716374" lon="98.467561">
<time>2016-10-07T15:39:17Z</time></trkpt>
<trkpt lat="29.716395" lon="98.467611">
<time>2016-10-07T15:39:18Z</time></trkpt>
<trkpt lat="29.716415" lon="98.467651">
<time>2016-10-07T15:39:19Z</time></trkpt>
<trkpt lat="29.716425" lon="98.467691">
<time>2016-10-07T15:39:20Z</time></trkpt>
<trkpt lat="29.716445" lon="98.467711">
<time>2016-10-07T15:39:21Z</time></trkpt>
<trkpt lat="29.716455" lon="98.467731">
<time>2016-10-07T15:39:22Z</time></trkpt>
<trkpt lat="29.716475" lon="98.467751">
<time>2016-10-07T15:39:23Z</time></trkpt>
<trkpt lat="29.716495" lon="98.467761">
<time>2016-10-07T15:39:24Z</time></trkpt>
<trkpt lat="29.716515" lon="98.467771">
<time>2016-10-07T15:39:25Z</time></trkpt>
<trkpt lat="29.716535" lon="98.467781">
<time>2016-10-07T15:39:26Z</time></trkpt>
<trkpt lat="29.716555" lon="98.467781">
<time>2016-10-07T15:39:27Z</time></trkpt>
<trkpt lat="29.716575" lon="98.467791">
<time>2016-10-07T15:39:28Z</time></trkpt>
<trkpt lat="29.716585" lon="98.467791">
<time>2016-10-07T15:39:29Z</time></trkpt>
<trkpt lat="29.716605" lon="98.467791">
<time>2016-10-07T15:39:30Z</time></trkpt>
<trkpt lat="29.716625" lon="98.467781">
<time>2016-10-07T15:39:31Z</time></trkpt>
<trkpt lat="29.716635" lon="98.467781">
<time>2016-10-07T15:39:32Z</time></trkpt>
<trkpt lat="29.716655" lon="98.467771">
<time>2016-10-07T15:39:33Z</time></trkpt>
<trkpt lat="29.716665" lon="98.467761">
<time>2016-10-07T15:39:34Z</time></trkpt>
<trkpt lat="29.716685" lon="98.467751">
<time>2016-10-07T15:39:35Z</time></trkpt>
<trkpt lat="29.716695" lon="98.467741">
<time>2016-10-07T15:39:36Z</time></trkpt>
<trkpt lat="29.716715" lon="98.467731">
<time>2016-10-07T15:39:37Z</time></trkpt>
<trkpt lat="29.716725" lon="98.467711">
<time>2016-10-07T15:39:38Z</time></trkpt>
<trkpt lat="29.716735" lon="98.467691">
<time>2016-10-07T15:39:39Z</time></trkpt>
<trkpt lat="29.716745" lon="98.467671">
<time>2016-10-07T15:39:40Z</time></trkpt>
<trkpt lat="29.716755" lon="98.467651">
<time>2016-10-07T15:39:41Z</time></trkpt>
<trkpt lat="29.716764" lon="98.467631">
<time>2016-10-07T15:39:42Z</time></trkpt>
<trkpt lat="29.716764" lon="98.467601">
<time>2016-10-07T15:39:43Z</time></trkpt>
<trkpt lat="29.716774" lon="98.467571">
<time>2016-10-07T15:39:44Z</time></trkpt>
<trkpt lat="29.716774" lon="98.467531">
<time>2016-10-07T15:39:45Z</time></trkpt>
<trkpt lat="29.716774" lon="98.467491">
<time>2016-10-07T15:39:46Z</time></trkpt>
<trkpt lat="29.716774" lon="98.467441">
<time>2016-10-07T15:39:47Z</time></trkpt>
<trkpt lat="29.716764" lon="98.46739">
<time>2016-10-07T15:39:48Z</time></trkpt>
<trkpt lat="29.716754" lon="98.46735">
<time>2016-10-07T15:39:49Z</time></trkpt>
<trkpt lat="29.716754" lon="98.4673">
<time>2016-10-07T15:39:50Z</time></trkpt>
<trkpt lat="29.716743" lon="98.46723">
<time>2016-10-07T15:39:51Z</time></trkpt>
<trkpt lat="29.716743" lon="98.46719">
<time>2016-10-07T15:39:52Z</time></trkpt>
<trkpt lat="29.716733" lon="98.46715">
<time>2016-10-07T15:39:53Z</time></trkpt>
<trkpt lat="29.716733" lon="98.4671">
<time>2016-10-07T15:39:54Z</time></trkpt>
<trkpt lat="29.716733" lon="98.467049">
<time>2016-10-07T15:39:55Z</time></trkpt>
<trkpt lat="29.716733" lon="98.466999">
<time>2016-10-07T15:39:56Z</time></trkpt>
<trkpt lat="29.716743" lon="98.466959">
<time>2016-10-07T15:39:57Z</time></trkpt>
<trkpt lat="29.716743" lon="98.466919">
<time>2016-10-07T15:39:58Z</time></trkpt>
<trkpt lat="29.716753" lon="98.466869">
<time>2016-10-07T15:39:59Z</time></trkpt>
<trkpt lat="29.716762" lon="98.466829">
<time>2016-10-07T15:40:00Z</time></trkpt>
<trkpt lat="29.716772" lon="98.466779">
<time>2016-10-07T15:40:01Z</time></trkpt>
<trkpt lat="29.716802" lon="98.466709">
<time>2016-10-07T15:40:02Z</time></trkpt>
<trkpt lat="29.716822" lon="98.466628">
<time>2016-10-07T15:40:03Z</time></trkpt>
<trkpt lat="29.716842" lon="98.466538">
<time>2016-10-07T15:40:04Z</time></trkpt>
<trkpt lat="29.716871" lon="98.466458">
<time>2016-10-07T15:40:05Z</time></trkpt>
<trkpt lat="29.716901" lon="98.466348">
<time>2016-10-07T15:40:06Z</time></trkpt>
<trkpt lat="29.716941" lon="98.466207">
<time>2016-10-07T15:40:07Z</time></trkpt>
<trkpt lat="29.716971" lon="98.466117">
<time>2016-10-07T15:40:08Z</time></trkpt>
<trkpt lat="29.71699" lon="98.466037">
<time>2016-10-07T15:40:09Z</time></trkpt>
<trkpt lat="29.71702" lon="98.465937">
<time>2016-10-07T15:40:10Z</time></trkpt>
<trkpt lat="29.71705" lon="98.465806">
<time>2016-10-07T15:40:11Z</time></trkpt>
<trkpt lat="29.71707" lon="98.465746">
<time>2016-10-07T15:40:12Z</time></trkpt>
<trkpt lat="29.717089" lon="98.465686">
<time>2016-10-07T15:40:13Z</time></trkpt>
<trkpt lat="29.717119" lon="98.465606">
<time>2016-10-07T15:40:14Z</time></trkpt>
<trkpt lat="29.717149" lon="98.465536">
<time>2016-10-07T15:40:15Z</time></trkpt>
<trkpt lat="29.717189" lon="98.465435">
<time>2016-10-07T15:40:16Z</time></trkpt>
<trkpt lat="29.717219" lon="98.465365">
<time>2016-10-07T15:40:17Z</time></trkpt>
<trkpt lat="29.717258" lon="98.465285">
<time>2016-10-07T15:40:18Z</time></trkpt>
<trkpt lat="29.717308" lon="98.465195">
<time>2016-10-07T15:40:19Z</time></trkpt>
<trkpt lat="29.717348" lon="98.465124">
<time>2016-10-07T15:40:20Z</time></trkpt>
<trkpt lat="29.717388" lon="98.465054">
<time>2016-10-07T15:40:21Z</time></trkpt>
<trkpt lat="29.717448" lon="98.464944">
<time>2016-10-07T15:40:22Z</time></trkpt>
<trkpt lat="29.717497" lon="98.464844">
<time>2016-10-07T15:40:23Z</time></trkpt>
<trkpt lat="29.717527" lon="98.464784">
<time>2016-10-07T15:40:24Z</time></trkpt>
<trkpt lat="29.717567" lon="98.464713">
<time>2016-10-07T15:40:25Z</time></trkpt>
<trkpt lat="29.717607" lon="98.464643">
<time>2016-10-07T15:40:26Z</time></trkpt>
<trkpt lat="29.717627" lon="98.464603">
<time>2016-10-07T15:40:27Z</time></trkpt>
<trkpt lat="29.717647" lon="98.464563">
<time>2016-10-07T15:40:28Z</time></trkpt>
<trkpt lat="29.717666" lon="98.464523">
<time>2016-10-07T15:40:29Z</time></trkpt>
<trkpt lat="29.717676" lon="98.464463">
<time>2016-10-07T15:40:30Z</time></trkpt>
<trkpt lat="29.717686" lon="98.464433">
<time>2016-10-07T15:40:31Z</time></trkpt>
<trkpt lat="29.717696" lon="98.464393">
<time>2016-10-07T15:40:32Z</time></trkpt>
<trkpt lat="29.717706" lon="98.464332">
<time>2016-10-07T15:40:33Z</time></trkpt>
<trkpt lat="29.717706" lon="98.464262">
<time>2016-10-07T15:40:34Z</time></trkpt>
<trkpt lat="29.717706" lon="98.464212">
<time>2016-10-07T15:40:35Z</time></trkpt>
<trkpt lat="29.717705" lon="98.464152">
<time>2016-10-07T15:40:36Z</time></trkpt>
<trkpt lat="29.717705" lon="98.464062">
<time>2016-10-07T15:40:37Z</time></trkpt>
<trkpt lat="29.717695" lon="98.464002">
<time>2016-10-07T15:40:38Z</time></trkpt>
<trkpt lat="29.717695" lon="98.463931">
<time>2016-10-07T15:40:39Z</time></trkpt>
<trkpt lat="29.717685" lon="98.463861">
<time>2016-10-07T15:40:40Z</time></trkpt>
<trkpt lat="29.717675" lon="98.463761">
<time>2016-10-07T15:40:41Z</time></trkpt>
<trkpt lat="29.717664" lon="98.463691">
<time>2016-10-07T15:40:42Z</time></trkpt>
<trkpt lat="29.717654" lon="98.463641">
<time>2016-10-07T15:40:43Z</time></trkpt>
<trkpt lat="29.717644" lon="98.46357">
<time>2016-10-07T15:40:44Z</time></trkpt>
<trkpt lat="29.717644" lon="98.46352">
<time>2016-10-07T15:40:45Z</time></trkpt>
<trkpt lat="29.717634" lon="98.46347">
<time>2016-10-07T15:40:46Z</time></trkpt>
<trkpt lat="29.717624" lon="98.4634">
<time>2016-10-07T15:40:47Z</time></trkpt>
<trkpt lat="29.717623" lon="98.46333">
<time>2016-10-07T15:40:48Z</time></trkpt>
<trkpt lat="29.717613" lon="98.46327">
<time>2016-10-07T15:40:49Z</time></trkpt>
<trkpt lat="29.717613" lon="98.463199">
<time>2016-10-07T15:40:50Z</time></trkpt>
<trkpt lat="29.717613" lon="98.463139">
<time>2016-10-07T15:40:51Z</time></trkpt>
<trkpt lat="29.717613" lon="98.463079">
<time>2016-10-07T15:40:52Z</time></trkpt>
<trkpt lat="29.717613" lon="98.462989">
<time>2016-10-07T15:40:53Z</time></trkpt>
<trkpt lat="29.717612" lon="98.462889">
<time>2016-10-07T15:40:54Z</time></trkpt>
<trkpt lat="29.717612" lon="98.462788">
<time>2016-10-07T15:40:55Z</time></trkpt>
<trkpt lat="29.717612" lon="98.462718">
<time>2016-10-07T15:40:56Z</time></trkpt>
<trkpt lat="29.717612" lon="98.462648">
<time>2016-10-07T15:40:57Z</time></trkpt>
<trkpt lat="29.717612" lon="98.462588">
<time>2016-10-07T15:40:58Z</time></trkpt>
<trkpt lat="29.717611" lon="98.462488">
<time>2016-10-07T15:40:59Z</time></trkpt>
<trkpt lat="29.717621" lon="98.462407">
<time>2016-10-07T15:41:00Z</time></trkpt>
<trkpt lat="29.717621" lon="98.462367">
<time>2016-10-07T15:41:01Z</time></trkpt>
<trkpt lat="29.717621" lon="98.462317">
<time>2016-10-07T15:41:02Z</time></trkpt>
<trkpt lat="29.717631" lon="98.462267">
<time>2016-10-07T15:41:03Z</time></trkpt>
<trkpt lat="29.717641" lon="98.462207">
<time>2016-10-07T15:41:04Z</time></trkpt>
<trkpt lat="29.717651" lon="98.462157">
<time>2016-10-07T15:41:05Z</time></trkpt>
<trkpt lat="29.71766" lon="98.462087">
<time>2016-10-07T15:41:06Z</time></trkpt>
<trkpt lat="29.71768" lon="98.462017">
<time>2016-10-07T15:41:07Z</time></trkpt>
<trkpt lat="29.7177" lon="98.461936">
<time>2016-10-07T15:41:08Z</time></trkpt>
<trkpt lat="29.71773" lon="98.461826">
<time>2016-10-07T15:41:09Z</time></trkpt>
<trkpt lat="29.717749" lon="98.461706">
<time>2016-10-07T15:41:10Z</time></trkpt>
<trkpt lat="29.717779" lon="98.461595">
<time>2016-10-07T15:41:11Z</time></trkpt>
<trkpt lat="29.717809" lon="98.461495">
<time>2016-10-07T15:41:12Z</time></trkpt>
<trkpt lat="29.717829" lon="98.461415">
<time>2016-10-07T15:41:13Z</time></trkpt>
<trkpt lat="29.717868" lon="98.461305">
<time>2016-10-07T15:41:14Z</time></trkpt>
<trkpt lat="29.717898" lon="98.461194">
<time>2016-10-07T15:41:15Z</time></trkpt>
<trkpt lat="29.717928" lon="98.461104">
<time>2016-10-07T15:41:16Z</time></trkpt>
<trkpt lat="29.717948" lon="98.461054">
<time>2016-10-07T15:41:17Z</time></trkpt>
<trkpt lat="29.717958" lon="98.461004">
<time>2016-10-07T15:41:18Z</time></trkpt>
<trkpt lat="29.717988" lon="98.460954">
<time>2016-10-07T15:41:19Z</time></trkpt>
<trkpt lat="29.718017" lon="98.460894">
<time>2016-10-07T15:41:20Z</time></trkpt>
<trkpt lat="29.718037" lon="98.460844">
<time>2016-10-07T15:41:21Z</time></trkpt>
<trkpt lat="29.718067" lon="98.460804">
<time>2016-10-07T15:41:22Z</time></trkpt>
<trkpt lat="29.718097" lon="98.460763">
<time>2016-10-07T15:41:23Z</time></trkpt>
<trkpt lat="29.718127" lon="98.460723">
<time>2016-10-07T15:41:24Z</time></trkpt>
<trkpt lat="29.718167" lon="98.460683">
<time>2016-10-07T15:41:25Z</time></trkpt>
<trkpt lat="29.718207" lon="98.460653">
<time>2016-10-07T15:41:26Z</time></trkpt>
<trkpt lat="29.718247" lon="98.460613">
<time>2016-10-07T15:41:27Z</time></trkpt>
<trkpt lat="29.718287" lon="98.460593">
<time>2016-10-07T15:41:28Z</time></trkpt>
<trkpt lat="29.718327" lon="98.460563">
<time>2016-10-07T15:41:29Z</time></trkpt>
<trkpt lat="29.718386" lon="98.460523">
<time>2016-10-07T15:41:30Z</time></trkpt>
<trkpt lat="29.718436" lon="98.460493">
<time>2016-10-07T15:41:31Z</time></trkpt>
<trkpt lat="29.718506" lon="98.460463">
<time>2016-10-07T15:41:32Z</time></trkpt>
<trkpt lat="29.718556" lon="98.460443">
<time>2016-10-07T15:41:33Z</time></trkpt>
<trkpt lat="29.718626" lon="98.460423">
<time>2016-10-07T15:41:34Z</time></trkpt>
<trkpt lat="29.718706" lon="98.460392">
<time>2016-10-07T15:41:35Z</time></trkpt>
<trkpt lat="29.718786" lon="98.460362">
<time>2016-10-07T15:41:36Z</time></trkpt>
<trkpt lat="29.718896" lon="98.460322">
<time>2016-10-07T15:41:37Z</time></trkpt>
<trkpt lat="29.718936" lon="98.460312">
<time>2016-10-07T15:41:38Z</time></trkpt>
<trkpt lat="29.718996" lon="98.460292">
<time>2016-10-07T15:41:39Z</time></trkpt>
<trkpt lat="29.719086" lon="98.460262">
<time>2016-10-07T15:41:40Z</time></trkpt>
<trkpt lat="29.719186" lon="98.460232">
<time>2016-10-07T15:41:41Z</time></trkpt>
<trkpt lat="29.719286" lon="98.460192">
<time>2016-10-07T15:41:42Z</time></trkpt>
<trkpt lat="29.719365" lon="98.460172">
<time>2016-10-07T15:41:43Z</time></trkpt>
<trkpt lat="29.719415" lon="98.460152">
<time>2016-10-07T15:41:44Z</time></trkpt>
<trkpt lat="29.719525" lon="98.460122">
<time>2016-10-07T15:41:45Z</time></trkpt>
<trkpt lat="29.719615" lon="98.460092">
<time>2016-10-07T15:41:46Z</time></trkpt>
<trkpt lat="29.719685" lon="98.460062">
<time>2016-10-07T15:41:47Z</time></trkpt>
<trkpt lat="29.719745" lon="98.460042">
<time>2016-10-07T15:41:48Z</time></trkpt>
<trkpt lat="29.719785" lon="98.460032">
<time>2016-10-07T15:41:49Z</time></trkpt>
<trkpt lat="29.719825" lon="98.460012">
<time>2016-10-07T15:41:50Z</time></trkpt>
<trkpt lat="29.719865" lon="98.459991">
<time>2016-10-07T15:41:51Z</time></trkpt>
<trkpt lat="29.719915" lon="98.459961">
<time>2016-10-07T15:41:52Z</time></trkpt>
<trkpt lat="29.719965" lon="98.459941">
<time>2016-10-07T15:41:53Z</time></trkpt>
<trkpt lat="29.720015" lon="98.459911">
<time>2016-10-07T15:41:54Z</time></trkpt>
<trkpt lat="29.720045" lon="98.459891">
<time>2016-10-07T15:41:55Z</time></trkpt>
<trkpt lat="29.720075" lon="98.459881">
<time>2016-10-07T15:41:56Z</time></trkpt>
<trkpt lat="29.720105" lon="98.459861">
<time>2016-10-07T15:41:57Z</time></trkpt>
<trkpt lat="29.720145" lon="98.459831">
<time>2016-10-07T15:41:58Z</time></trkpt>
<trkpt lat="29.720184" lon="98.459801">
<time>2016-10-07T15:41:59Z</time></trkpt>
<trkpt lat="29.720224" lon="98.459761">
<time>2016-10-07T15:42:00Z</time></trkpt>
<trkpt lat="29.720254" lon="98.459731">
<time>2016-10-07T15:42:01Z</time></trkpt>
<trkpt lat="29.720284" lon="98.459701">
<time>2016-10-07T15:42:02Z</time></trkpt>
<trkpt lat="29.720314" lon="98.459661">
<time>2016-10-07T15:42:03Z</time></trkpt>
<trkpt lat="29.720354" lon="98.459611">
<time>2016-10-07T15:42:04Z</time></trkpt>
<trkpt lat="29.720384" lon="98.45956">
<time>2016-10-07T15:42:05Z</time></trkpt>
<trkpt lat="29.720424" lon="98.45951">
<time>2016-10-07T15:42:06Z</time></trkpt>
<trkpt lat="29.720474" lon="98.45945">
<time>2016-10-07T15:42:07Z</time></trkpt>
<trkpt lat="29.720533" lon="98.45936">
<time>2016-10-07T15:42:08Z</time></trkpt>
<trkpt lat="29.720563" lon="98.45932">
<time>2016-10-07T15:42:09Z</time></trkpt>
<trkpt lat="29.720603" lon="98.45927">
<time>2016-10-07T15:42:10Z</time></trkpt>
<trkpt lat="29.720633" lon="98.45922">
<time>2016-10-07T15:42:11Z</time></trkpt>
<trkpt lat="29.720663" lon="98.45918">
<time>2016-10-07T15:42:12Z</time></trkpt>
<trkpt lat="29.720713" lon="98.459099">
<time>2016-10-07T15:42:13Z</time></trkpt>
<trkpt lat="29.720773" lon="98.459029">
<time>2016-10-07T15:42:14Z</time></trkpt>
<trkpt lat="29.720812" lon="98.458959">
<time>2016-10-07T15:42:15Z</time></trkpt>
<trkpt lat="29.720852" lon="98.458899">
<time>2016-10-07T15:42:16Z</time></trkpt>
<trkpt lat="29.720882" lon="98.458859">
<time>2016-10-07T15:42:17Z</time></trkpt>
<trkpt lat="29.720902" lon="98.458809">
<time>2016-10-07T15:42:18Z</time></trkpt>
<trkpt lat="29.720912" lon="98.458799">
<time>2016-10-07T15:42:19Z</time></trkpt>
<trkpt lat="29.720932" lon="98.458758">
<time>2016-10-07T15:42:20Z</time></trkpt>
<trkpt lat="29.720952" lon="98.458718">
<time>2016-10-07T15:42:21Z</time></trkpt>
<trkpt lat="29.720962" lon="98.458668">
<time>2016-10-07T15:42:22Z</time></trkpt>
<trkpt lat="29.720981" lon="98.458608">
<time>2016-10-07T15:42:23Z</time></trkpt>
<trkpt lat="29.721001" lon="98.458558">
<time>2016-10-07T15:42:24Z</time></trkpt>
<trkpt lat="29.721011" lon="98.458498">
<time>2016-10-07T15:42:25Z</time></trkpt>
<trkpt lat="29.721021" lon="98.458428">
<time>2016-10-07T15:42:26Z</time></trkpt>
<trkpt lat="29.721031" lon="98.458378">
<time>2016-10-07T15:42:27Z</time></trkpt>
<trkpt lat="29.721041" lon="98.458307">
<time>2016-10-07T15:42:28Z</time></trkpt>
<trkpt lat="29.721051" lon="98.458247">
<time>2016-10-07T15:42:29Z</time></trkpt>
<trkpt lat="29.721051" lon="98.458187">
<time>2016-10-07T15:42:30Z</time></trkpt>
<trkpt lat="29.72106" lon="98.458107">
<time>2016-10-07T15:42:31Z</time></trkpt>
<trkpt lat="29.72106" lon="98.458007">
<time>2016-10-07T15:42:32Z</time></trkpt>
<trkpt lat="29.72106" lon="98.457937">
<time>2016-10-07T15:42:33Z</time></trkpt>
<trkpt lat="29.72106" lon="98.457876">
<time>2016-10-07T15:42:34Z</time></trkpt>
<trkpt lat="29.72105" lon="98.457826">
<time>2016-10-07T15:42:35Z</time></trkpt>
<trkpt lat="29.72104" lon="98.457766">
<time>2016-10-07T15:42:36Z</time></trkpt>
<trkpt lat="29.721019" lon="98.457706">
<time>2016-10-07T15:42:37Z</time></trkpt>
<trkpt lat="29.720999" lon="98.457666">
<time>2016-10-07T15:42:38Z</time></trkpt>
<trkpt lat="29.720989" lon="98.457626">
<time>2016-10-07T15:42:39Z</time></trkpt>
<trkpt lat="29.720959" lon="98.457586">
<time>2016-10-07T15:42:40Z</time></trkpt>
<trkpt lat="29.720939" lon="98.457546">
<time>2016-10-07T15:42:41Z</time></trkpt>
<trkpt lat="29.720909" lon="98.457506">
<time>2016-10-07T15:42:42Z</time></trkpt>
<trkpt lat="29.720869" lon="98.457465">
<time>2016-10-07T15:42:43Z</time></trkpt>
<trkpt lat="29.720829" lon="98.457425">
<time>2016-10-07T15:42:44Z</time></trkpt>
<trkpt lat="29.720809" lon="98.457405">
<time>2016-10-07T15:42:45Z</time></trkpt>
<trkpt lat="29.720769" lon="98.457385">
<time>2016-10-07T15:42:46Z</time></trkpt>
<trkpt lat="29.720729" lon="98.457365">
<time>2016-10-07T15:42:47Z</time></trkpt>
<trkpt lat="29.720689" lon="98.457345">
<time>2016-10-07T15:42:48Z</time></trkpt>
<trkpt lat="29.720528" lon="98.457265">
<time>2016-10-07T15:42:49Z</time></trkpt>
<trkpt lat="29.720418" lon="98.457215">
<time>2016-10-07T15:42:50Z</time></trkpt>
<trkpt lat="29.720278" lon="98.457155">
<time>2016-10-07T15:42:51Z</time></trkpt>
<trkpt lat="29.720168" lon="98.457105">
<time>2016-10-07T15:42:52Z</time></trkpt>
<trkpt lat="29.720038" lon="98.457044">
<time>2016-10-07T15:42:53Z</time></trkpt>
<trkpt lat="29.719918" lon="98.456984">
<time>2016-10-07T15:42:54Z</time></trkpt>
<trkpt lat="29.719798" lon="98.456934">
<time>2016-10-07T15:42:55Z</time></trkpt>
<trkpt lat="29.719708" lon="98.456894">
<time>2016-10-07T15:42:56Z</time></trkpt>
<trkpt lat="29.719578" lon="98.456834">
<time>2016-10-07T15:42:57Z</time></trkpt>
<trkpt lat="29.719458" lon="98.456774">
<time>2016-10-07T15:42:58Z</time></trkpt>
<trkpt lat="29.719337" lon="98.456724">
<time>2016-10-07T15:42:59Z</time></trkpt>
<trkpt lat="29.719217" lon="98.456674">
<time>2016-10-07T15:43:00Z</time></trkpt>
<trkpt lat="29.719057" lon="98.456593">
<time>2016-10-07T15:43:01Z</time></trkpt>
<trkpt lat="29.718947" lon="98.456543">
<time>2016-10-07T15:43:02Z</time></trkpt>
<trkpt lat="29.718837" lon="98.456493">
<time>2016-10-07T15:43:03Z</time></trkpt>
<trkpt lat="29.718777" lon="98.456473">
<time>2016-10-07T15:43:04Z</time></trkpt>
<trkpt lat="29.718747" lon="98.456453">
<time>2016-10-07T15:43:05Z</time></trkpt>
<trkpt lat="29.718717" lon="98.456433">
<time>2016-10-07T15:43:06Z</time></trkpt>
<trkpt lat="29.718677" lon="98.456403">
<time>2016-10-07T15:43:07Z</time></trkpt>
<trkpt lat="29.718647" lon="98.456373">
<time>2016-10-07T15:43:08Z</time></trkpt>
<trkpt lat="29.718627" lon="98.456333">
<time>2016-10-07T15:43:09Z</time></trkpt>
<trkpt lat="29.718607" lon="98.456293">
<time>2016-10-07T15:43:10Z</time></trkpt>
<trkpt lat="29.718596" lon="98.456253">
<time>2016-10-07T15:43:11Z</time></trkpt>
<trkpt lat="29.718596" lon="98.456223">
<time>2016-10-07T15:43:12Z</time></trkpt>
<trkpt lat="29.718606" lon="98.456172">
<time>2016-10-07T15:43:13Z</time></trkpt>
<trkpt lat="29.718616" lon="98.456142">
<time>2016-10-07T15:43:14Z</time></trkpt>
<trkpt lat="29.718646" lon="98.456102">
<time>2016-10-07T15:43:15Z</time></trkpt>
<trkpt lat="29.718676" lon="98.456072">
<time>2016-10-07T15:43:16Z</time></trkpt>
<trkpt lat="29.718706" lon="98.456052">
<time>2016-10-07T15:43:17Z</time></trkpt>
<trkpt lat="29.718736" lon="98.456032">
<time>2016-10-07T15:43:18Z</time></trkpt>
<trkpt lat="29.718766" lon="98.456022">
<time>2016-10-07T15:43:19Z</time></trkpt>
<trkpt lat="29.718836" lon="98.456012">
<time>2016-10-07T15:43:20Z</time></trkpt>
<trkpt lat="29.718986" lon="98.456002">
<time>2016-10-07T15:43:21Z</time></trkpt>
<trkpt lat="29.719176" lon="98.455992">
<time>2016-10-07T15:43:22Z</time></trkpt>
<trkpt lat="29.719376" lon="98.455972">
<time>2016-10-07T15:43:23Z</time></trkpt>
<trkpt lat="29.719596" lon="98.455952">
<time>2016-10-07T15:43:24Z</time></trkpt>
<trkpt lat="29.719845" lon="98.455912">
<time>2016-10-07T15:43:25Z</time></trkpt>
<trkpt lat="29.720045" lon="98.455882">
<time>2016-10-07T15:43:26Z</time></trkpt>
<trkpt lat="29.720105" lon="98.455862">
<time>2016-10-07T15:43:27Z</time></trkpt>
<trkpt lat="29.720145" lon="98.455842">
<time>2016-10-07T15:43:28Z</time></trkpt>
<trkpt lat="29.720175" lon="98.455822">
<time>2016-10-07T15:43:29Z</time></trkpt>
<trkpt lat="29.720205" lon="98.455792">
<time>2016-10-07T15:43:30Z</time></trkpt>
<trkpt lat="29.720225" lon="98.455761">
<time>2016-10-07T15:43:31Z</time></trkpt>
<trkpt lat="29.720245" lon="98.455741">
<time>2016-10-07T15:43:32Z</time></trkpt>
<trkpt lat="29.720255" lon="98.455701">
<time>2016-10-07T15:43:33Z</time></trkpt>
<trkpt lat="29.720265" lon="98.455661">
<time>2016-10-07T15:43:34Z</time></trkpt>
<trkpt lat="29.720265" lon="98.455611">
<time>2016-10-07T15:43:35Z</time></trkpt>
<trkpt lat="29.720265" lon="98.455541">
<time>2016-10-07T15:43:36Z</time></trkpt>
<trkpt lat="29.720264" lon="98.455481">
<time>2016-10-07T15:43:37Z</time></trkpt>
<trkpt lat="29.720264" lon="98.455391">
<time>2016-10-07T15:43:38Z</time></trkpt>
<trkpt lat="29.720254" lon="98.45532">
<time>2016-10-07T15:43:39Z</time></trkpt>
<trkpt lat="29.720234" lon="98.45524">
<time>2016-10-07T15:43:40Z</time></trkpt>
<trkpt lat="29.720194" lon="98.4551">
<time>2016-10-07T15:43:41Z</time></trkpt>
<trkpt lat="29.720143" lon="98.45497">
<time>2016-10-07T15:43:42Z</time></trkpt>
<trkpt lat="29.720103" lon="98.454829">
<time>2016-10-07T15:43:43Z</time></trkpt>
<trkpt lat="29.720063" lon="98.454749">
<time>2016-10-07T15:43:44Z</time></trkpt>
<trkpt lat="29.720033" lon="98.454679">
<time>2016-10-07T15:43:45Z</time></trkpt>
<trkpt lat="29.719993" lon="98.454619">
<time>2016-10-07T15:43:46Z</time></trkpt>
<trkpt lat="29.719962" lon="98.454569">
<time>2016-10-07T15:43:47Z</time></trkpt>
<trkpt lat="29.719912" lon="98.454519">
<time>2016-10-07T15:43:48Z</time></trkpt>
<trkpt lat="29.719852" lon="98.454469">
<time>2016-10-07T15:43:49Z</time></trkpt>
<trkpt lat="29.719772" lon="98.454408">
<time>2016-10-07T15:43:50Z</time></trkpt>
<trkpt lat="29.719672" lon="98.454338">
<time>2016-10-07T15:43:51Z</time></trkpt>
<trkpt lat="29.719482" lon="98.454228">
<time>2016-10-07T15:43:52Z</time></trkpt>
<trkpt lat="29.718991" lon="98.453947">
<time>2016-10-07T15:43:53Z</time></trkpt>
<trkpt lat="29.718891" lon="98.453887">
<time>2016-10-07T15:43:54Z</time></trkpt>
<trkpt lat="29.718771" lon="98.453817">
<time>2016-10-07T15:43:55Z</time></trkpt>
<trkpt lat="29.718681" lon="98.453747">
<time>2016-10-07T15:43:56Z</time></trkpt>
<trkpt lat="29.718601" lon="98.453677">
<time>2016-10-07T15:43:57Z</time></trkpt>
<trkpt lat="29.718531" lon="98.453617">
<time>2016-10-07T15:43:58Z</time></trkpt>
<trkpt lat="29.71846" lon="98.453516">
<time>2016-10-07T15:43:59Z</time></trkpt>
<trkpt lat="29.7184" lon="98.453426">
<time>2016-10-07T15:44:00Z</time></trkpt>
<trkpt lat="29.71834" lon="98.453336">
<time>2016-10-07T15:44:01Z</time></trkpt>
<trkpt lat="29.7183" lon="98.453296">
<time>2016-10-07T15:44:02Z</time></trkpt>
<trkpt lat="29.71827" lon="98.453266">
<time>2016-10-07T15:44:03Z</time></trkpt>
<trkpt lat="29.71823" lon="98.453236">
<time>2016-10-07T15:44:04Z</time></trkpt>
<trkpt lat="29.71818" lon="98.453216">
<time>2016-10-07T15:44:05Z</time></trkpt>
<trkpt lat="29.71814" lon="98.453216">
<time>2016-10-07T15:44:06Z</time></trkpt>
<trkpt lat="29.7181" lon="98.453216">
<time>2016-10-07T15:44:07Z</time></trkpt>
<trkpt lat="29.71806" lon="98.453216">
<time>2016-10-07T15:44:08Z</time></trkpt>
<trkpt lat="29.71802" lon="98.453236">
<time>2016-10-07T15:44:09Z</time></trkpt>
<trkpt lat="29.71797" lon="98.453256">
<time>2016-10-07T15:44:10Z</time></trkpt>
<trkpt lat="29.71792" lon="98.453296">
<time>2016-10-07T15:44:11Z</time></trkpt>
<trkpt lat="29.71786" lon="98.453346">
<time>2016-10-07T15:44:12Z</time></trkpt>
<trkpt lat="29.71779" lon="98.453416">
<time>2016-10-07T15:44:13Z</time></trkpt>
<trkpt lat="29.71774" lon="98.453456">
<time>2016-10-07T15:44:14Z</time></trkpt>
<trkpt lat="29.71771" lon="98.453476">
<time>2016-10-07T15:44:15Z</time></trkpt>
<trkpt lat="29.717681" lon="98.453496">
<time>2016-10-07T15:44:16Z</time></trkpt>
<trkpt lat="29.717641" lon="98.453496">
<time>2016-10-07T15:44:17Z</time></trkpt>
<trkpt lat="29.717601" lon="98.453496">
<time>2016-10-07T15:44:18Z</time></trkpt>
<trkpt lat="29.717571" lon="98.453486">
<time>2016-10-07T15:44:19Z</time></trkpt>
<trkpt lat="29.71755" lon="98.453476">
<time>2016-10-07T15:44:20Z</time></trkpt>
<trkpt lat="29.71752" lon="98.453456">
<time>2016-10-07T15:44:21Z</time></trkpt>
<trkpt lat="29.7175" lon="98.453436">
<time>2016-10-07T15:44:22Z</time></trkpt>
<trkpt lat="29.71748" lon="98.453396">
<time>2016-10-07T15:44:23Z</time></trkpt>
<trkpt lat="29.71747" lon="98.453366">
<time>2016-10-07T15:44:24Z</time></trkpt>
<trkpt lat="29.71746" lon="98.453326">
<time>2016-10-07T15:44:25Z</time></trkpt>
<trkpt lat="29.71746" lon="98.453286">
<time>2016-10-07T15:44:26Z</time></trkpt>
<trkpt lat="29.71746" lon="98.453246">
<time>2016-10-07T15:44:27Z</time></trkpt>
<trkpt lat="29.71747" lon="98.453196">
<time>2016-10-07T15:44:28Z</time></trkpt>
<trkpt lat="29.71748" lon="98.453136">
<time>2016-10-07T15:44:29Z</time></trkpt>
<trkpt lat="29.717529" lon="98.452995">
<time>2016-10-07T15:44:30Z</time></trkpt>
<trkpt lat="29.717599" lon="98.452805">
<time>2016-10-07T15:44:31Z</time></trkpt>
<trkpt lat="29.717669" lon="98.452615">
<time>2016-10-07T15:44:32Z</time></trkpt>
<trkpt lat="29.717718" lon="98.452494">
<time>2016-10-07T15:44:33Z</time></trkpt>
<trkpt lat="29.717758" lon="98.452414">
<time>2016-10-07T15:44:34Z</time></trkpt>
<trkpt lat="29.717818" lon="98.452334">
<time>2016-10-07T15:44:35Z</time></trkpt>
<trkpt lat="29.717878" lon="98.452264">
<time>2016-10-07T15:44:36Z</time></trkpt>
<trkpt lat="29.717948" lon="98.452194">
<time>2016-10-07T15:44:37Z</time></trkpt>
<trkpt lat="29.718018" lon="98.452133">
<time>2016-10-07T15:44:38Z</time></trkpt>
<trkpt lat="29.718127" lon="98.452073">
<time>2016-10-07T15:44:39Z</time></trkpt>
<trkpt lat="29.718337" lon="98.451973">
<time>2016-10-07T15:44:40Z</time></trkpt>
<trkpt lat="29.718517" lon="98.451883">
<time>2016-10-07T15:44:41Z</time></trkpt>
<trkpt lat="29.718777" lon="98.451733">
<time>2016-10-07T15:44:42Z</time></trkpt>
<trkpt lat="29.719126" lon="98.451542">
<time>2016-10-07T15:44:43Z</time></trkpt>
<trkpt lat="29.719376" lon="98.451402">
<time>2016-10-07T15:44:44Z</time></trkpt>
<trkpt lat="29.719885" lon="98.451101">
<time>2016-10-07T15:44:45Z</time></trkpt>
<trkpt lat="29.720225" lon="98.450911">
<time>2016-10-07T15:44:46Z</time></trkpt>
<trkpt lat="29.720304" lon="98.450851">
<time>2016-10-07T15:44:47Z</time></trkpt>
<trkpt lat="29.720344" lon="98.450801">
<time>2016-10-07T15:44:48Z</time></trkpt>
<trkpt lat="29.720374" lon="98.45074">
<time>2016-10-07T15:44:49Z</time></trkpt>
<trkpt lat="29.720394" lon="98.45067">
<time>2016-10-07T15:44:50Z</time></trkpt>
<trkpt lat="29.720394" lon="98.4506">
<time>2016-10-07T15:44:51Z</time></trkpt>
<trkpt lat="29.720384" lon="98.45054">
<time>2016-10-07T15:44:52Z</time></trkpt>
<trkpt lat="29.720364" lon="98.4505">
<time>2016-10-07T15:44:53Z</time></trkpt>
<trkpt lat="29.720334" lon="98.45044">
<time>2016-10-07T15:44:54Z</time></trkpt>
<trkpt lat="29.720263" lon="98.45037">
<time>2016-10-07T15:44:55Z</time></trkpt>
<trkpt lat="29.720153" lon="98.45029">
<time>2016-10-07T15:44:56Z</time></trkpt>
<trkpt lat="29.719843" lon="98.450099">
<time>2016-10-07T15:44:57Z</time></trkpt>
<trkpt lat="29.719533" lon="98.449889">
<time>2016-10-07T15:44:58Z</time></trkpt>
<trkpt lat="29.718892" lon="98.449468">
<time>2016-10-07T15:44:59Z</time></trkpt>
<trkpt lat="29.718571" lon="98.449277">
<time>2016-10-07T15:45:00Z</time></trkpt>
<trkpt lat="29.718451" lon="98.449217">
<time>2016-10-07T15:45:01Z</time></trkpt>
<trkpt lat="29.718351" lon="98.449187">
<time>2016-10-07T15:45:02Z</time></trkpt>
<trkpt lat="29.718201" lon="98.449147">
<time>2016-10-07T15:45:03Z</time></trkpt>
<trkpt lat="29.718011" lon="98.449137">
<time>2016-10-07T15:45:04Z</time></trkpt>
<trkpt lat="29.717901" lon="98.449127">
<time>2016-10-07T15:45:05Z</time></trkpt>
<trkpt lat="29.717751" lon="98.449127">
<time>2016-10-07T15:45:06Z</time></trkpt>
<trkpt lat="29.717621" lon="98.449137">
<time>2016-10-07T15:45:07Z</time></trkpt>
<trkpt lat="29.717451" lon="98.449187">
<time>2016-10-07T15:45:08Z</time></trkpt>
<trkpt lat="29.717282" lon="98.449227">
<time>2016-10-07T15:45:09Z</time></trkpt>
<trkpt lat="29.717192" lon="98.449237">
<time>2016-10-07T15:45:10Z</time></trkpt>
<trkpt lat="29.717122" lon="98.449237">
<time>2016-10-07T15:45:11Z</time></trkpt>
<trkpt lat="29.717042" lon="98.449227">
<time>2016-10-07T15:45:12Z</time></trkpt>
<trkpt lat="29.716982" lon="98.449197">
<time>2016-10-07T15:45:13Z</time></trkpt>
<trkpt lat="29.716932" lon="98.449157">
<time>2016-10-07T15:45:14Z</time></trkpt>
<trkpt lat="29.716891" lon="98.449107">
<time>2016-10-07T15:45:15Z</time></trkpt>
<trkpt lat="29.716861" lon="98.449067">
<time>2016-10-07T15:45:16Z</time></trkpt>
<trkpt lat="29.716811" lon="98.448957">
<time>2016-10-07T15:45:17Z</time></trkpt>
<trkpt lat="29.716771" lon="98.448817">
<time>2016-10-07T15:45:18Z</time></trkpt>
<trkpt lat="29.71666" lon="98.448416">
<time>2016-10-07T15:45:19Z</time></trkpt>
<trkpt lat="29.7166" lon="98.448195">
<time>2016-10-07T15:45:20Z</time></trkpt>
<trkpt lat="29.716539" lon="98.448055">
<time>2016-10-07T15:45:21Z</time></trkpt>
<trkpt lat="29.716469" lon="98.447955">
<time>2016-10-07T15:45:22Z</time></trkpt>
<trkpt lat="29.716379" lon="98.447875">
<time>2016-10-07T15:45:23Z</time></trkpt>
<trkpt lat="29.716299" lon="98.447815">
<time>2016-10-07T15:45:24Z</time></trkpt>
<trkpt lat="29.716159" lon="98.447764">
<time>2016-10-07T15:45:25Z</time></trkpt>
<trkpt lat="29.715999" lon="98.447714">
<time>2016-10-07T15:45:26Z</time></trkpt>
<trkpt lat="29.715098" lon="98.447474">
<time>2016-10-07T15:45:27Z</time></trkpt>
<trkpt lat="29.714928" lon="98.447434">
<time>2016-10-07T15:45:28Z</time></trkpt>
<trkpt lat="29.714828" lon="98.447404">
<time>2016-10-07T15:45:29Z</time></trkpt>
<trkpt lat="29.714768" lon="98.447374">
<time>2016-10-07T15:45:30Z</time></trkpt>
<trkpt lat="29.714718" lon="98.447344">
<time>2016-10-07T15:45:31Z</time></trkpt>
<trkpt lat="29.714668" lon="98.447304">
<time>2016-10-07T15:45:32Z</time></trkpt>
<trkpt lat="29.714628" lon="98.447233">
<time>2016-10-07T15:45:33Z</time></trkpt>
<trkpt lat="29.714598" lon="98.447153">
<time>2016-10-07T15:45:34Z</time></trkpt>
<trkpt lat="29.714588" lon="98.447063">
<time>2016-10-07T15:45:35Z</time></trkpt>
<trkpt lat="29.714598" lon="98.446983">
<time>2016-10-07T15:45:36Z</time></trkpt>
<trkpt lat="29.714627" lon="98.446893">
<time>2016-10-07T15:45:37Z</time></trkpt>
<trkpt lat="29.714677" lon="98.446823">
<time>2016-10-07T15:45:38Z</time></trkpt>
<trkpt lat="29.714737" lon="98.446763">
<time>2016-10-07T15:45:39Z</time></trkpt>
<trkpt lat="29.714797" lon="98.446722">
<time>2016-10-07T15:45:40Z</time></trkpt>
<trkpt lat="29.714897" lon="98.446672">
<time>2016-10-07T15:45:41Z</time></trkpt>
<trkpt lat="29.715087" lon="98.446572">
<time>2016-10-07T15:45:42Z</time></trkpt>
<trkpt lat="29.715356" lon="98.446422">
<time>2016-10-07T15:45:43Z</time></trkpt>
<trkpt lat="29.715526" lon="98.446352">
<time>2016-10-07T15:45:44Z</time></trkpt>
<trkpt lat="29.715656" lon="98.446292">
<time>2016-10-07T15:45:45Z</time></trkpt>
<trkpt lat="29.715776" lon="98.446231">
<time>2016-10-07T15:45:46Z</time></trkpt>
<trkpt lat="29.715916" lon="98.446151">
<time>2016-10-07T15:45:47Z</time></trkpt>
<trkpt lat="29.716026" lon="98.446071">
<time>2016-10-07T15:45:48Z</time></trkpt>
<trkpt lat="29.716135" lon="98.445981">
<time>2016-10-07T15:45:49Z</time></trkpt>
<trkpt lat="29.716245" lon="98.445881">
<time>2016-10-07T15:45:50Z</time></trkpt>
<trkpt lat="29.716325" lon="98.445771">
<time>2016-10-07T15:45:51Z</time></trkpt>
<trkpt lat="29.716375" lon="98.44565">
<time>2016-10-07T15:45:52Z</time></trkpt>
<trkpt lat="29.716434" lon="98.44549">
<time>2016-10-07T15:45:53Z</time></trkpt>
<trkpt lat="29.716474" lon="98.44537">
<time>2016-10-07T15:45:54Z</time></trkpt>
<trkpt lat="29.716524" lon="98.44527">
<time>2016-10-07T15:45:55Z</time></trkpt>
<trkpt lat="29.716564" lon="98.44521">
<time>2016-10-07T15:45:56Z</time></trkpt>
<trkpt lat="29.716604" lon="98.445159">
<time>2016-10-07T15:45:57Z</time></trkpt>
<trkpt lat="29.716654" lon="98.445109">
<time>2016-10-07T15:45:58Z</time></trkpt>
<trkpt lat="29.716714" lon="98.445069">
<time>2016-10-07T15:45:59Z</time></trkpt>
<trkpt lat="29.716784" lon="98.445029">
<time>2016-10-07T15:46:00Z</time></trkpt>
<trkpt lat="29.716863" lon="98.444989">
<time>2016-10-07T15:46:01Z</time></trkpt>
<trkpt lat="29.717123" lon="98.444859">
<time>2016-10-07T15:46:02Z</time></trkpt>
<trkpt lat="29.717463" lon="98.444699">
<time>2016-10-07T15:46:03Z</time></trkpt>
<trkpt lat="29.717583" lon="98.444638">
<time>2016-10-07T15:46:04Z</time></trkpt>
<trkpt lat="29.717633" lon="98.444598">
<time>2016-10-07T15:46:05Z</time></trkpt>
<trkpt lat="29.717653" lon="98.444578">
<time>2016-10-07T15:46:06Z</time></trkpt>
<trkpt lat="29.717682" lon="98.444538">
<time>2016-10-07T15:46:07Z</time></trkpt>
<trkpt lat="29.717692" lon="98.444488">
<time>2016-10-07T15:46:08Z</time></trkpt>
<trkpt lat="29.717702" lon="98.444428">
<time>2016-10-07T15:46:09Z</time></trkpt>
<trkpt lat="29.717682" lon="98.444368">
<time>2016-10-07T15:46:10Z</time></trkpt>
<trkpt lat="29.717652" lon="98.444308">
<time>2016-10-07T15:46:11Z</time></trkpt>
<trkpt lat="29.717602" lon="98.444248">
<time>2016-10-07T15:46:12Z</time></trkpt>
<trkpt lat="29.717442" lon="98.444178">
<time>2016-10-07T15:46:13Z</time></trkpt>
<trkpt lat="29.717322" lon="98.444148">
<time>2016-10-07T15:46:14Z</time></trkpt>
<trkpt lat="29.717162" lon="98.444107">
<time>2016-10-07T15:46:15Z</time></trkpt>
<trkpt lat="29.717012" lon="98.444037">
<time>2016-10-07T15:46:16Z</time></trkpt>
<trkpt lat="29.716851" lon="98.443947">
<time>2016-10-07T15:46:17Z</time></trkpt>
<trkpt lat="29.716591" lon="98.443757">
<time>2016-10-07T15:46:18Z</time></trkpt>
<trkpt lat="29.716351" lon="98.443597">
<time>2016-10-07T15:46:19Z</time></trkpt>
<trkpt lat="29.716151" lon="98.443456">
<time>2016-10-07T15:46:20Z</time></trkpt>
<trkpt lat="29.71591" lon="98.443266">
<time>2016-10-07T15:46:21Z</time></trkpt>
<trkpt lat="29.71582" lon="98.443176">
<time>2016-10-07T15:46:22Z</time></trkpt>
<trkpt lat="29.71564" lon="98.443016">
<time>2016-10-07T15:46:23Z</time></trkpt>
<trkpt lat="29.71548" lon="98.442865">
<time>2016-10-07T15:46:24Z</time></trkpt>
<trkpt lat="29.71533" lon="98.442715">
<time>2016-10-07T15:46:25Z</time></trkpt>
<trkpt lat="29.715209" lon="98.442625">
<time>2016-10-07T15:46:26Z</time></trkpt>
<trkpt lat="29.715009" lon="98.442445">
<time>2016-10-07T15:46:27Z</time></trkpt>
<trkpt lat="29.714929" lon="98.442384">
<time>2016-10-07T15:46:28Z</time></trkpt>
<trkpt lat="29.714869" lon="98.442324">
<time>2016-10-07T15:46:29Z</time></trkpt>
<trkpt lat="29.714829" lon="98.442274">
<time>2016-10-07T15:46:30Z</time></trkpt>
<trkpt lat="29.714799" lon="98.442224">
<time>2016-10-07T15:46:31Z</time></trkpt>
<trkpt lat="29.714779" lon="98.442164">
<time>2016-10-07T15:46:32Z</time></trkpt>
<trkpt lat="29.714759" lon="98.442094">
<time>2016-10-07T15:46:33Z</time></trkpt>
<trkpt lat="29.714768" lon="98.442044">
<time>2016-10-07T15:46:34Z</time></trkpt>
<trkpt lat="29.714778" lon="98.441994">
<time>2016-10-07T15:46:35Z</time></trkpt>
<trkpt lat="29.714798" lon="98.441934">
<time>2016-10-07T15:46:36Z</time></trkpt>
<trkpt lat="29.714828" lon="98.441894">
<time>2016-10-07T15:46:37Z</time></trkpt>
<trkpt lat="29.714868" lon="98.441853">
<time>2016-10-07T15:46:38Z</time></trkpt>
<trkpt lat="29.714958" lon="98.441773">
<time>2016-10-07T15:46:39Z</time></trkpt>
<trkpt lat="29.715098" lon="98.441673">
<time>2016-10-07T15:46:40Z</time></trkpt>
<trkpt lat="29.715387" lon="98.441483">
<time>2016-10-07T15:46:41Z</time></trkpt>
<trkpt lat="29.715607" lon="98.441303">
<time>2016-10-07T15:46:42Z</time></trkpt>
<trkpt lat="29.715887" lon="98.441062">
<time>2016-10-07T15:46:43Z</time></trkpt>
<trkpt lat="29.716286" lon="98.440711">
<time>2016-10-07T15:46:44Z</time></trkpt>
<trkpt lat="29.716605" lon="98.440441">
<time>2016-10-07T15:46:45Z</time></trkpt>
<trkpt lat="29.717035" lon="98.44006">
<time>2016-10-07T15:46:46Z</time></trkpt>
<trkpt lat="29.717214" lon="98.4399">
<time>2016-10-07T15:46:47Z</time></trkpt>
<trkpt lat="29.717264" lon="98.43984">
<time>2016-10-07T15:46:48Z</time></trkpt>
<trkpt lat="29.717304" lon="98.43978">
<time>2016-10-07T15:46:49Z</time></trkpt>
<trkpt lat="29.717324" lon="98.43973">
<time>2016-10-07T15:46:50Z</time></trkpt>
<trkpt lat="29.717344" lon="98.43967">
<time>2016-10-07T15:46:51Z</time></trkpt>
<trkpt lat="29.717344" lon="98.4396">
<time>2016-10-07T15:46:52Z</time></trkpt>
<trkpt lat="29.717334" lon="98.43954">
<time>2016-10-07T15:46:53Z</time></trkpt>
<trkpt lat="29.717304" lon="98.439479">
<time>2016-10-07T15:46:54Z</time></trkpt>
<trkpt lat="29.717264" lon="98.439419">
<time>2016-10-07T15:46:55Z</time></trkpt>
<trkpt lat="29.717203" lon="98.439359">
<time>2016-10-07T15:46:56Z</time></trkpt>
<trkpt lat="29.717123" lon="98.439309">
<time>2016-10-07T15:46:57Z</time></trkpt>
<trkpt lat="29.716993" lon="98.439229">
<time>2016-10-07T15:46:58Z</time></trkpt>
<trkpt lat="29.716873" lon="98.439149">
<time>2016-10-07T15:46:59Z</time></trkpt>
<trkpt lat="29.716653" lon="98.439039">
<time>2016-10-07T15:47:00Z</time></trkpt>
<trkpt lat="29.716323" lon="98.438848">
<time>2016-10-07T15:47:01Z</time></trkpt>
<trkpt lat="29.716113" lon="98.438728">
<time>2016-10-07T15:47:02Z</time></trkpt>
<trkpt lat="29.716053" lon="98.438688">
<time>2016-10-07T15:47:03Z</time></trkpt>
<trkpt lat="29.716022" lon="98.438658">
<time>2016-10-07T15:47:04Z</time></trkpt>
<trkpt lat="29.715992" lon="98.438618">
<time>2016-10-07T15:47:05Z</time></trkpt>
<trkpt lat="29.715982" lon="98.438578">
<time>2016-10-07T15:47:06Z</time></trkpt>
<trkpt lat="29.715972" lon="98.438538">
<time>2016-10-07T15:47:07Z</time></trkpt>
<trkpt lat="29.715972" lon="98.438488">
<time>2016-10-07T15:47:08Z</time></trkpt>
<trkpt lat="29.715972" lon="98.438438">
<time>2016-10-07T15:47:09Z</time></trkpt>
<trkpt lat="29.715982" lon="98.438388">
<time>2016-10-07T15:47:10Z</time></trkpt>
<trkpt lat="29.716012" lon="98.438338">
<time>2016-10-07T15:47:11Z</time></trkpt>
<trkpt lat="29.716052" lon="98.438278">
<time>2016-10-07T15:47:12Z</time></trkpt>
<trkpt lat="29.716102" lon="98.438237">
<time>2016-10-07T15:47:13Z</time></trkpt>
<trkpt lat="29.716162" lon="98.438207">
<time>2016-10-07T15:47:14Z</time></trkpt>
<trkpt lat="29.716292" lon="98.438137">
<time>2016-10-07T15:47:15Z</time></trkpt>
<trkpt lat="29.716411" lon="98.438057">
<time>2016-10-07T15:47:16Z</time></trkpt>
<trkpt lat="29.716511" lon="98.437967">
<time>2016-10-07T15:47:17Z</time></trkpt>
<trkpt lat="29.716671" lon="98.437817">
<time>2016-10-07T15:47:18Z</time></trkpt>
<trkpt lat="29.716871" lon="98.437606">
<time>2016-10-07T15:47:19Z</time></trkpt>
<trkpt lat="29.71708" lon="98.437376">
<time>2016-10-07T15:47:20Z</time></trkpt>
<trkpt lat="29.71719" lon="98.437256">
<time>2016-10-07T15:47:21Z</time></trkpt>
<trkpt lat="29.71724" lon="98.437186">
<time>2016-10-07T15:47:22Z</time></trkpt>
<trkpt lat="29.71728" lon="98.437126">
<time>2016-10-07T15:47:23Z</time></trkpt>
<trkpt lat="29.71729" lon="98.437076">
<time>2016-10-07T15:47:24Z</time></trkpt>
<trkpt lat="29.7173" lon="98.437026">
<time>2016-10-07T15:47:25Z</time></trkpt>
<trkpt lat="29.7173" lon="98.436955">
<time>2016-10-07T15:47:26Z</time></trkpt>
<trkpt lat="29.71729" lon="98.436905">
<time>2016-10-07T15:47:27Z</time></trkpt>
<trkpt lat="29.717269" lon="98.436845">
<time>2016-10-07T15:47:28Z</time></trkpt>
<trkpt lat="29.717219" lon="98.436765">
<time>2016-10-07T15:47:29Z</time></trkpt>
<trkpt lat="29.717169" lon="98.436665">
<time>2016-10-07T15:47:30Z</time></trkpt>
<trkpt lat="29.717119" lon="98.436605">
<time>2016-10-07T15:47:31Z</time></trkpt>
<trkpt lat="29.717079" lon="98.436565">
<time>2016-10-07T15:47:32Z</time></trkpt>
<trkpt lat="29.717039" lon="98.436535">
<time>2016-10-07T15:47:33Z</time></trkpt>
<trkpt lat="29.716999" lon="98.436505">
<time>2016-10-07T15:47:34Z</time></trkpt>
<trkpt lat="29.716959" lon="98.436485">
<time>2016-10-07T15:47:35Z</time></trkpt>
<trkpt lat="29.716919" lon="98.436465">
<time>2016-10-07T15:47:36Z</time></trkpt>
<trkpt lat="29.716869" lon="98.436455">
<time>2016-10-07T15:47:37Z</time></trkpt>
<trkpt lat="29.716809" lon="98.436455">
<time>2016-10-07T15:47:38Z</time></trkpt>
<trkpt lat="29.716729" lon="98.436465">
<time>2016-10-07T15:47:39Z</time></trkpt>
<trkpt lat="29.716609" lon="98.436485">
<time>2016-10-07T15:47:40Z</time></trkpt>
<trkpt lat="29.716459" lon="98.436495">
<time>2016-10-07T15:47:41Z</time></trkpt>
<trkpt lat="29.716359" lon="98.436505">
<time>2016-10-07T15:47:42Z</time></trkpt>
<trkpt lat="29.716269" lon="98.436515">
<time>2016-10-07T15:47:43Z</time></trkpt>
<trkpt lat="29.716219" lon="98.436505">
<time>2016-10-07T15:47:44Z</time></trkpt>
<trkpt lat="29.716159" lon="98.436485">
<time>2016-10-07T15:47:45Z</time></trkpt>
<trkpt lat="29.716109" lon="98.436455">
<time>2016-10-07T15:47:46Z</time></trkpt>
<trkpt lat="29.716069" lon="98.436425">
<time>2016-10-07T15:47:47Z</time></trkpt>
<trkpt lat="29.716029" lon="98.436375">
<time>2016-10-07T15:47:48Z</time></trkpt>
<trkpt lat="29.715999" lon="98.436315">
<time>2016-10-07T15:47:49Z</time></trkpt>
<trkpt lat="29.715989" lon="98.436264">
<time>2016-10-07T15:47:50Z</time></trkpt>
<trkpt lat="29.715979" lon="98.436204">
<time>2016-10-07T15:47:51Z</time></trkpt>
<trkpt lat="29.715969" lon="98.436144">
<time>2016-10-07T15:47:52Z</time></trkpt>
<trkpt lat="29.715978" lon="98.436084">
<time>2016-10-07T15:47:53Z</time></trkpt>
<trkpt lat="29.715998" lon="98.436024">
<time>2016-10-07T15:47:54Z</time></trkpt>
<trkpt lat="29.716018" lon="98.435984">
<time>2016-10-07T15:47:55Z</time></trkpt>
<trkpt lat="29.716058" lon="98.435924">
<time>2016-10-07T15:47:56Z</time></trkpt>
<trkpt lat="29.716098" lon="98.435884">
<time>2016-10-07T15:47:57Z</time></trkpt>
<trkpt lat="29.716148" lon="98.435844">
<time>2016-10-07T15:47:58Z</time></trkpt>
<trkpt lat="29.716208" lon="98.435824">
<time>2016-10-07T15:47:59Z</time></trkpt>
<trkpt lat="29.716338" lon="98.435774">
<time>2016-10-07T15:48:00Z</time></trkpt>
<trkpt lat="29.716438" lon="98.435714">
<time>2016-10-07T15:48:01Z</time></trkpt>
<trkpt lat="29.716548" lon="98.435644">
<time>2016-10-07T15:48:02Z</time></trkpt>
<trkpt lat="29.716638" lon="98.435573">
<time>2016-10-07T15:48:03Z</time></trkpt>
<trkpt lat="29.716707" lon="98.435493">
<time>2016-10-07T15:48:04Z</time></trkpt>
<trkpt lat="29.716757" lon="98.435423">
<time>2016-10-07T15:48:05Z</time></trkpt>
<trkpt lat="29.716817" lon="98.435323">
<time>2016-10-07T15:48:06Z</time></trkpt>
<trkpt lat="29.716857" lon="98.435213">
<time>2016-10-07T15:48:07Z</time></trkpt>
<trkpt lat="29.716907" lon="98.435123">
<time>2016-10-07T15:48:08Z</time></trkpt>
<trkpt lat="29.716957" lon="98.435063">
<time>2016-10-07T15:48:09Z</time></trkpt>
<trkpt lat="29.717017" lon="98.435003">
<time>2016-10-07T15:48:10Z</time></trkpt>
<trkpt lat="29.717067" lon="98.434963">
<time>2016-10-07T15:48:11Z</time></trkpt>
<trkpt lat="29.717097" lon="98.434942">
<time>2016-10-07T15:48:12Z</time></trkpt>
<trkpt lat="29.717127" lon="98.434922">
<time>2016-10-07T15:48:13Z</time></trkpt>
<trkpt lat="29.717157" lon="98.434922">
<time>2016-10-07T15:48:14Z</time></trkpt>
<trkpt lat="29.717197" lon="98.434912">
<time>2016-10-07T15:48:15Z</time></trkpt>
<trkpt lat="29.717247" lon="98.434922">
<time>2016-10-07T15:48:16Z</time></trkpt>
<trkpt lat="29.717297" lon="98.434953">
<time>2016-10-07T15:48:17Z</time></trkpt>
<trkpt lat="29.717347" lon="98.434993">
<time>2016-10-07T15:48:18Z</time></trkpt>
<trkpt lat="29.717407" lon="98.435063">
<time>2016-10-07T15:48:19Z</time></trkpt>
<trkpt lat="29.717457" lon="98.435123">
<time>2016-10-07T15:48:20Z</time></trkpt>
<trkpt lat="29.717507" lon="98.435163">
<time>2016-10-07T15:48:21Z</time></trkpt>
<trkpt lat="29.717547" lon="98.435183">
<time>2016-10-07T15:48:22Z</time></trkpt>
<trkpt lat="29.717597" lon="98.435193">
<time>2016-10-07T15:48:23Z</time></trkpt>
<trkpt lat="29.717647" lon="98.435173">
<time>2016-10-07T15:48:24Z</time></trkpt>
<trkpt lat="29.717687" lon="98.435143">
<time>2016-10-07T15:48:25Z</time></trkpt>
<trkpt lat="29.717727" lon="98.435093">
<time>2016-10-07T15:48:26Z</time></trkpt>
<trkpt lat="29.717737" lon="98.435053">
<time>2016-10-07T15:48:27Z</time></trkpt>
<trkpt lat="29.717757" lon="98.434983">
<time>2016-10-07T15:48:28Z</time></trkpt>
<trkpt lat="29.717766" lon="98.434842">
<time>2016-10-07T15:48:29Z</time></trkpt>
<trkpt lat="29.717776" lon="98.434692">
<time>2016-10-07T15:48:30Z</time></trkpt>
<trkpt lat="29.717796" lon="98.434542">
<time>2016-10-07T15:48:31Z</time></trkpt>
<trkpt lat="29.717806" lon="98.434422">
<time>2016-10-07T15:48:32Z</time></trkpt>
<trkpt lat="29.717816" lon="98.434302">
<time>2016-10-07T15:48:33Z</time></trkpt>
<trkpt lat="29.717815" lon="98.434201">
<time>2016-10-07T15:48:34Z</time></trkpt>
<trkpt lat="29.717815" lon="98.434121">
<time>2016-10-07T15:48:35Z</time></trkpt>
<trkpt lat="29.717815" lon="98.434001">
<time>2016-10-07T15:48:36Z</time></trkpt>
<trkpt lat="29.717805" lon="98.433911">
<time>2016-10-07T15:48:37Z</time></trkpt>
<trkpt lat="29.717795" lon="98.433821">
<time>2016-10-07T15:48:38Z</time></trkpt>
<trkpt lat="29.717775" lon="98.433721">
<time>2016-10-07T15:48:39Z</time></trkpt>
<trkpt lat="29.717755" lon="98.433611">
<time>2016-10-07T15:48:40Z</time></trkpt>
<trkpt lat="29.717704" lon="98.43341">
<time>2016-10-07T15:48:41Z</time></trkpt>
<trkpt lat="29.717694" lon="98.43336">
<time>2016-10-07T15:48:42Z</time></trkpt>
<trkpt lat="29.717684" lon="98.43332">
<time>2016-10-07T15:48:43Z</time></trkpt>
<trkpt lat="29.717674" lon="98.43327">
<time>2016-10-07T15:48:44Z</time></trkpt>
<trkpt lat="29.717674" lon="98.43319">
<time>2016-10-07T15:48:45Z</time></trkpt>
<trkpt lat="29.717674" lon="98.43312">
<time>2016-10-07T15:48:46Z</time></trkpt>
<trkpt lat="29.717674" lon="98.43305">
<time>2016-10-07T15:48:47Z</time></trkpt>
<trkpt lat="29.717664" lon="98.43297">
<time>2016-10-07T15:48:48Z</time></trkpt>
<trkpt lat="29.717674" lon="98.4329">
<time>2016-10-07T15:48:49Z</time></trkpt>
<trkpt lat="29.717683" lon="98.43283">
<time>2016-10-07T15:48:50Z</time></trkpt>
<trkpt lat="29.717693" lon="98.432759">
<time>2016-10-07T15:48:51Z</time></trkpt>
<trkpt lat="29.717703" lon="98.432699">
<time>2016-10-07T15:48:52Z</time></trkpt>
<trkpt lat="29.717723" lon="98.432569">
<time>2016-10-07T15:48:53Z</time></trkpt>
<trkpt lat="29.717743" lon="98.432499">
<time>2016-10-07T15:48:54Z</time></trkpt>
<trkpt lat="29.717783" lon="98.432399">
<time>2016-10-07T15:48:55Z</time></trkpt>
<trkpt lat="29.717823" lon="98.432289">
<time>2016-10-07T15:48:56Z</time></trkpt>
<trkpt lat="29.717863" lon="98.432189">
<time>2016-10-07T15:48:57Z</time></trkpt>
<trkpt lat="29.717892" lon="98.432039">
<time>2016-10-07T15:48:58Z</time></trkpt>
<trkpt lat="29.717912" lon="98.431908">
<time>2016-10-07T15:48:59Z</time></trkpt>
<trkpt lat="29.717922" lon="98.431848">
<time>2016-10-07T15:49:00Z</time></trkpt>
<trkpt lat="29.717932" lon="98.431788">
<time>2016-10-07T15:49:01Z</time></trkpt>
<trkpt lat="29.717952" lon="98.431628">
<time>2016-10-07T15:49:02Z</time></trkpt>
<trkpt lat="29.717962" lon="98.431508">
<time>2016-10-07T15:49:03Z</time></trkpt>
<trkpt lat="29.717972" lon="98.431428">
<time>2016-10-07T15:49:04Z</time></trkpt>
<trkpt lat="29.717971" lon="98.431358">
<time>2016-10-07T15:49:05Z</time></trkpt>
<trkpt lat="29.717981" lon="98.431268">
<time>2016-10-07T15:49:06Z</time></trkpt>
<trkpt lat="29.717991" lon="98.431117">
<time>2016-10-07T15:49:07Z</time></trkpt>
<trkpt lat="29.718011" lon="98.431017">
<time>2016-10-07T15:49:08Z</time></trkpt>
<trkpt lat="29.718031" lon="98.430917">
<time>2016-10-07T15:49:09Z</time></trkpt>
<trkpt lat="29.718061" lon="98.430807">
<time>2016-10-07T15:49:10Z</time></trkpt>
<trkpt lat="29.718081" lon="98.430737">
<time>2016-10-07T15:49:11Z</time></trkpt>
<trkpt lat="29.718101" lon="98.430687">
<time>2016-10-07T15:49:12Z</time></trkpt>
<trkpt lat="29.71813" lon="98.430617">
<time>2016-10-07T15:49:13Z</time></trkpt>
<trkpt lat="29.71815" lon="98.430557">
<time>2016-10-07T15:49:14Z</time></trkpt>
<trkpt lat="29.71819" lon="98.430477">
<time>2016-10-07T15:49:15Z</time></trkpt>
<trkpt lat="29.71824" lon="98.430376">
<time>2016-10-07T15:49:16Z</time></trkpt>
<trkpt lat="29.71826" lon="98.430326">
<time>2016-10-07T15:49:17Z</time></trkpt>
<trkpt lat="29.71829" lon="98.430286">
<time>2016-10-07T15:49:18Z</time></trkpt>
<trkpt lat="29.71831" lon="98.430236">
<time>2016-10-07T15:49:19Z</time></trkpt>
<trkpt lat="29.71834" lon="98.430196">
<time>2016-10-07T15:49:20Z</time></trkpt>
<trkpt lat="29.71837" lon="98.430166">
<time>2016-10-07T15:49:21Z</time></trkpt>
<trkpt lat="29.7184" lon="98.430136">
<time>2016-10-07T15:49:22Z</time></trkpt>
<trkpt lat="29.71844" lon="98.430096">
<time>2016-10-07T15:49:23Z</time></trkpt>
<trkpt lat="29.71847" lon="98.430076">
<time>2016-10-07T15:49:24Z</time></trkpt>
<trkpt lat="29.71851" lon="98.430046">
<time>2016-10-07T15:49:25Z</time></trkpt>
<trkpt lat="29.71855" lon="98.430026">
<time>2016-10-07T15:49:26Z</time></trkpt>
<trkpt lat="29.71859" lon="98.430006">
<time>2016-10-07T15:49:27Z</time></trkpt>
<trkpt lat="29.71865" lon="98.429986">
<time>2016-10-07T15:49:28Z</time></trkpt>
<trkpt lat="29.71872" lon="98.429956">
<time>2016-10-07T15:49:29Z</time></trkpt>
<trkpt lat="29.718779" lon="98.429936">
<time>2016-10-07T15:49:30Z</time></trkpt>
<trkpt lat="29.718839" lon="98.429906">
<time>2016-10-07T15:49:31Z</time></trkpt>
<trkpt lat="29.718889" lon="98.429886">
<time>2016-10-07T15:49:32Z</time></trkpt>
<trkpt lat="29.718919" lon="98.429866">
<time>2016-10-07T15:49:33Z</time></trkpt>
<trkpt lat="29.718959" lon="98.429846">
<time>2016-10-07T15:49:34Z</time></trkpt>
<trkpt lat="29.718979" lon="98.429826">
<time>2016-10-07T15:49:35Z</time></trkpt>
<trkpt lat="29.719019" lon="98.429806">
<time>2016-10-07T15:49:36Z</time></trkpt>
<trkpt lat="29.719049" lon="98.429766">
<time>2016-10-07T15:49:37Z</time></trkpt>
<trkpt lat="29.719079" lon="98.429726">
<time>2016-10-07T15:49:38Z</time></trkpt>
<trkpt lat="29.719109" lon="98.429686">
<time>2016-10-07T15:49:39Z</time></trkpt>
<trkpt lat="29.719129" lon="98.429646">
<time>2016-10-07T15:49:40Z</time></trkpt>
<trkpt lat="29.719159" lon="98.429595">
<time>2016-10-07T15:49:41Z</time></trkpt>
<trkpt lat="29.719189" lon="98.429525">
<time>2016-10-07T15:49:42Z</time></trkpt>
<trkpt lat="29.719209" lon="98.429475">
<time>2016-10-07T15:49:43Z</time></trkpt>
<trkpt lat="29.719219" lon="98.429435">
<time>2016-10-07T15:49:44Z</time></trkpt>
<trkpt lat="29.719229" lon="98.429385">
<time>2016-10-07T15:49:45Z</time></trkpt>
<trkpt lat="29.719239" lon="98.429345">
<time>2016-10-07T15:49:46Z</time></trkpt>
<trkpt lat="29.719249" lon="98.429285">
<time>2016-10-07T15:49:47Z</time></trkpt>
<trkpt lat="29.719259" lon="98.429235">
<time>2016-10-07T15:49:48Z</time></trkpt>
<trkpt lat="29.719268" lon="98.429165">
<time>2016-10-07T15:49:49Z</time></trkpt>
<trkpt lat="29.719278" lon="98.429065">
<time>2016-10-07T15:49:50Z</time></trkpt>
<trkpt lat="29.719288" lon="98.428975">
<time>2016-10-07T15:49:51Z</time></trkpt>
<trkpt lat="29.719288" lon="98.428925">
<time>2016-10-07T15:49:52Z</time></trkpt>
<trkpt lat="29.719298" lon="98.428865">
<time>2016-10-07T15:49:53Z</time></trkpt>
<trkpt lat="29.719298" lon="98.428805">
<time>2016-10-07T15:49:54Z</time></trkpt>
<trkpt lat="29.719308" lon="98.428714">
<time>2016-10-07T15:49:55Z</time></trkpt>
<trkpt lat="29.719318" lon="98.428584">
<time>2016-10-07T15:49:56Z</time></trkpt>
<trkpt lat="29.719338" lon="98.428414">
<time>2016-10-07T15:49:57Z</time></trkpt>
<trkpt lat="29.719357" lon="98.428234">
<time>2016-10-07T15:49:58Z</time></trkpt>
<trkpt lat="29.719367" lon="98.428094">
<time>2016-10-07T15:49:59Z</time></trkpt>
<trkpt lat="29.719377" lon="98.428014">
<time>2016-10-07T15:50:00Z</time></trkpt>
<trkpt lat="29.719387" lon="98.427924">
<time>2016-10-07T15:50:01Z</time></trkpt>
<trkpt lat="29.719397" lon="98.427833">
<time>2016-10-07T15:50:02Z</time></trkpt>
<trkpt lat="29.719407" lon="98.427723">
<time>2016-10-07T15:50:03Z</time></trkpt>
<trkpt lat="29.719427" lon="98.427593">
<time>2016-10-07T15:50:04Z</time></trkpt>
<trkpt lat="29.719436" lon="98.427503">
<time>2016-10-07T15:50:05Z</time></trkpt>
<trkpt lat="29.719436" lon="98.427423">
<time>2016-10-07T15:50:06Z</time></trkpt>
<trkpt lat="29.719436" lon="98.427353">
<time>2016-10-07T15:50:07Z</time></trkpt>
<trkpt lat="29.719436" lon="98.427283">
<time>2016-10-07T15:50:08Z</time></trkpt>
<trkpt lat="29.719426" lon="98.427223">
<time>2016-10-07T15:50:09Z</time></trkpt>
<trkpt lat="29.719426" lon="98.427173">
<time>2016-10-07T15:50:10Z</time></trkpt>
<trkpt lat="29.719416" lon="98.427093">
<time>2016-10-07T15:50:11Z</time></trkpt>
<trkpt lat="29.719396" lon="98.426963">
<time>2016-10-07T15:50:12Z</time></trkpt>
<trkpt lat="29.719386" lon="98.426872">
<time>2016-10-07T15:50:13Z</time></trkpt>
<trkpt lat="29.719366" lon="98.426742">
<time>2016-10-07T15:50:14Z</time></trkpt>
<trkpt lat="29.719345" lon="98.426612">
<time>2016-10-07T15:50:15Z</time></trkpt>
<trkpt lat="29.719325" lon="98.426522">
<time>2016-10-07T15:50:16Z</time></trkpt>
<trkpt lat="29.719315" lon="98.426442">
<time>2016-10-07T15:50:17Z</time></trkpt>
<trkpt lat="29.719305" lon="98.426332">
<time>2016-10-07T15:50:18Z</time></trkpt>
<trkpt lat="29.719295" lon="98.426232">
<time>2016-10-07T15:50:19Z</time></trkpt>
<trkpt lat="29.719285" lon="98.426132">
<time>2016-10-07T15:50:20Z</time></trkpt>
<trkpt lat="29.719285" lon="98.426052">
<time>2016-10-07T15:50:21Z</time></trkpt>
<trkpt lat="29.719285" lon="98.425952">
<time>2016-10-07T15:50:22Z</time></trkpt>
<trkpt lat="29.719285" lon="98.425861">
<time>2016-10-07T15:50:23Z</time></trkpt>
<trkpt lat="29.719275" lon="98.425751">
<time>2016-10-07T15:50:24Z</time></trkpt>
<trkpt lat="29.719274" lon="98.425631">
<time>2016-10-07T15:50:25Z</time></trkpt>
<trkpt lat="29.719274" lon="98.425491">
<time>2016-10-07T15:50:26Z</time></trkpt>
<trkpt lat="29.719274" lon="98.425401">
<time>2016-10-07T15:50:27Z</time></trkpt>
<trkpt lat="29.719274" lon="98.425271">
<time>2016-10-07T15:50:28Z</time></trkpt>
<trkpt lat="29.719274" lon="98.425121">
<time>2016-10-07T15:50:29Z</time></trkpt>
<trkpt lat="29.719284" lon="98.425001">
<time>2016-10-07T15:50:30Z</time></trkpt>
<trkpt lat="29.719294" lon="98.424901">
<time>2016-10-07T15:50:31Z</time></trkpt>
<trkpt lat="29.719314" lon="98.4248">
<time>2016-10-07T15:50:32Z</time></trkpt>
<trkpt lat="29.719333" lon="98.42468">
<time>2016-10-07T15:50:33Z</time></trkpt>
<trkpt lat="29.719363" lon="98.42456">
<time>2016-10-07T15:50:34Z</time></trkpt>
<trkpt lat="29.719413" lon="98.42437">
<time>2016-10-07T15:50:35Z</time></trkpt>
<trkpt lat="29.719433" lon="98.42428">
<time>2016-10-07T15:50:36Z</time></trkpt>
<trkpt lat="29.719443" lon="98.4242">
<time>2016-10-07T15:50:37Z</time></trkpt>
<trkpt lat="29.719443" lon="98.42414">
<time>2016-10-07T15:50:38Z</time></trkpt>
<trkpt lat="29.719443" lon="98.4241">
<time>2016-10-07T15:50:39Z</time></trkpt>
<trkpt lat="29.719433" lon="98.42407">
<time>2016-10-07T15:50:40Z</time></trkpt>
<trkpt lat="29.719413" lon="98.42404">
<time>2016-10-07T15:50:41Z</time></trkpt>
<trkpt lat="29.719403" lon="98.42402">
<time>2016-10-07T15:50:42Z</time></trkpt>
<trkpt lat="29.719383" lon="98.424">
<time>2016-10-07T15:50:43Z</time></trkpt>
<trkpt lat="29.719363" lon="98.42398">
<time>2016-10-07T15:50:44Z</time></trkpt>
<trkpt lat="29.719343" lon="98.42397">
<time>2016-10-07T15:50:45Z</time></trkpt>
<trkpt lat="29.719323" lon="98.42396">
<time>2016-10-07T15:50:46Z</time></trkpt>
<trkpt lat="29.719293" lon="98.42395">
<time>2016-10-07T15:50:47Z</time></trkpt>
<trkpt lat="29.719273" lon="98.42395">
<time>2016-10-07T15:50:48Z</time></trkpt>
<trkpt lat="29.719243" lon="98.42395">
<time>2016-10-07T15:50:49Z</time></trkpt>
<trkpt lat="29.719203" lon="98.42395">
<time>2016-10-07T15:50:50Z</time></trkpt>
<trkpt lat="29.719163" lon="98.42396">
<time>2016-10-07T15:50:51Z</time></trkpt>
<trkpt lat="29.719133" lon="98.42397">
<time>2016-10-07T15:50:52Z</time></trkpt>
<trkpt lat="29.719083" lon="98.42398">
<time>2016-10-07T15:50:53Z</time></trkpt>
<trkpt lat="29.719033" lon="98.42401">
<time>2016-10-07T15:50:54Z</time></trkpt>
<trkpt lat="29.718923" lon="98.42407">
<time>2016-10-07T15:50:55Z</time></trkpt>
<trkpt lat="29.718833" lon="98.42411">
<time>2016-10-07T15:50:56Z</time></trkpt>
<trkpt lat="29.718743" lon="98.42416">
<time>2016-10-07T15:50:57Z</time></trkpt>
<trkpt lat="29.718643" lon="98.42421">
<time>2016-10-07T15:50:58Z</time></trkpt>
<trkpt lat="29.718483" lon="98.42429">
<time>2016-10-07T15:50:59Z</time></trkpt>
<trkpt lat="29.718263" lon="98.42441">
<time>2016-10-07T15:51:00Z</time></trkpt>
<trkpt lat="29.718053" lon="98.42452">
<time>2016-10-07T15:51:01Z</time></trkpt>
<trkpt lat="29.717864" lon="98.42463">
<time>2016-10-07T15:51:02Z</time></trkpt>
<trkpt lat="29.717654" lon="98.42473">
<time>2016-10-07T15:51:03Z</time></trkpt>
<trkpt lat="29.717554" lon="98.42478">
<time>2016-10-07T15:51:04Z</time></trkpt>
<trkpt lat="29.717484" lon="98.42482">
<time>2016-10-07T15:51:05Z</time></trkpt>
<trkpt lat="29.717404" lon="98.424871">
<time>2016-10-07T15:51:06Z</time></trkpt>
<trkpt lat="29.717344" lon="98.424911">
<time>2016-10-07T15:51:07Z</time></trkpt>
<trkpt lat="29.717304" lon="98.424951">
<time>2016-10-07T15:51:08Z</time></trkpt>
<trkpt lat="29.717264" lon="98.424991">
<time>2016-10-07T15:51:09Z</time></trkpt>
<trkpt lat="29.717224" lon="98.425051">
<time>2016-10-07T15:51:10Z</time></trkpt>
<trkpt lat="29.717204" lon="98.425101">
<time>2016-10-07T15:51:11Z</time></trkpt>
<trkpt lat="29.717194" lon="98.425151">
<time>2016-10-07T15:51:12Z</time></trkpt>
<trkpt lat="29.717174" lon="98.425211">
<time>2016-10-07T15:51:13Z</time></trkpt>
<trkpt lat="29.717164" lon="98.425281">
<time>2016-10-07T15:51:14Z</time></trkpt>
<trkpt lat="29.717164" lon="98.425341">
<time>2016-10-07T15:51:15Z</time></trkpt>
<trkpt lat="29.717165" lon="98.425411">
<time>2016-10-07T15:51:16Z</time></trkpt>
<trkpt lat="29.717175" lon="98.425571">
<time>2016-10-07T15:51:17Z</time></trkpt>
<trkpt lat="29.717165" lon="98.425621">
<time>2016-10-07T15:51:18Z</time></trkpt>
<trkpt lat="29.717165" lon="98.425681">
<time>2016-10-07T15:51:19Z</time></trkpt>
<trkpt lat="29.717145" lon="98.425731">
<time>2016-10-07T15:51:20Z</time></trkpt>
<trkpt lat="29.717135" lon="98.425771">
<time>2016-10-07T15:51:21Z</time></trkpt>
<trkpt lat="29.717105" lon="98.425831">
<time>2016-10-07T15:51:22Z</time></trkpt>
<trkpt lat="29.717075" lon="98.425861">
<time>2016-10-07T15:51:23Z</time></trkpt>
<trkpt lat="29.717045" lon="98.425892">
<time>2016-10-07T15:51:24Z</time></trkpt>
<trkpt lat="29.716995" lon="98.425922">
<time>2016-10-07T15:51:25Z</time></trkpt>
<trkpt lat="29.716955" lon="98.425932">
<time>2016-10-07T15:51:26Z</time></trkpt>
<trkpt lat="29.716905" lon="98.425952">
<time>2016-10-07T15:51:27Z</time></trkpt>
<trkpt lat="29.716845" lon="98.425952">
<time>2016-10-07T15:51:28Z</time></trkpt>
<trkpt lat="29.716785" lon="98.425962">
<time>2016-10-07T15:51:29Z</time></trkpt>
<trkpt lat="29.716735" lon="98.425952">
<time>2016-10-07T15:51:30Z</time></trkpt>
<trkpt lat="29.716675" lon="98.425942">
<time>2016-10-07T15:51:31Z</time></trkpt>
<trkpt lat="29.716645" lon="98.425922">
<time>2016-10-07T15:51:32Z</time></trkpt>
<trkpt lat="29.716605" lon="98.425902">
<time>2016-10-07T15:51:33Z</time></trkpt>
<trkpt lat="29.716555" lon="98.425862">
<time>2016-10-07T15:51:34Z</time></trkpt>
<trkpt lat="29.716535" lon="98.425831">
<time>2016-10-07T15:51:35Z</time></trkpt>
<trkpt lat="29.716505" lon="98.425791">
<time>2016-10-07T15:51:36Z</time></trkpt>
<trkpt lat="29.716465" lon="98.425731">
<time>2016-10-07T15:51:37Z</time></trkpt>
<trkpt lat="29.716445" lon="98.425671">
<time>2016-10-07T15:51:38Z</time></trkpt>
<trkpt lat="29.716425" lon="98.425611">
<time>2016-10-07T15:51:39Z</time></trkpt>
<trkpt lat="29.716415" lon="98.425561">
<time>2016-10-07T15:51:40Z</time></trkpt>
<trkpt lat="29.716405" lon="98.425481">
<time>2016-10-07T15:51:41Z</time></trkpt>
<trkpt lat="29.716405" lon="98.425401">
<time>2016-10-07T15:51:42Z</time></trkpt>
<trkpt lat="29.716405" lon="98.425291">
<time>2016-10-07T15:51:43Z</time></trkpt>
<trkpt lat="29.716404" lon="98.425161">
<time>2016-10-07T15:51:44Z</time></trkpt>
<trkpt lat="29.716394" lon="98.424981">
<time>2016-10-07T15:51:45Z</time></trkpt>
<trkpt lat="29.716394" lon="98.42474">
<time>2016-10-07T15:51:46Z</time></trkpt>
<trkpt lat="29.716394" lon="98.42457">
<time>2016-10-07T15:51:47Z</time></trkpt>
<trkpt lat="29.716384" lon="98.42441">
<time>2016-10-07T15:51:48Z</time></trkpt>
<trkpt lat="29.716383" lon="98.42427">
<time>2016-10-07T15:51:49Z</time></trkpt>
<trkpt lat="29.716383" lon="98.42416">
<time>2016-10-07T15:51:50Z</time></trkpt>
<trkpt lat="29.716383" lon="98.42405">
<time>2016-10-07T15:51:51Z</time></trkpt>
<trkpt lat="29.716363" lon="98.42394">
<time>2016-10-07T15:51:52Z</time></trkpt>
<trkpt lat="29.716353" lon="98.42384">
<time>2016-10-07T15:51:53Z</time></trkpt>
<trkpt lat="29.716333" lon="98.42375">
<time>2016-10-07T15:51:54Z</time></trkpt>
<trkpt lat="29.716303" lon="98.423639">
<time>2016-10-07T15:51:55Z</time></trkpt>
<trkpt lat="29.716263" lon="98.423559">
<time>2016-10-07T15:51:56Z</time></trkpt>
<trkpt lat="29.716223" lon="98.423489">
<time>2016-10-07T15:51:57Z</time></trkpt>
<trkpt lat="29.716183" lon="98.423409">
<time>2016-10-07T15:51:58Z</time></trkpt>
<trkpt lat="29.716103" lon="98.423299">
<time>2016-10-07T15:51:59Z</time></trkpt>
<trkpt lat="29.716012" lon="98.423169">
<time>2016-10-07T15:52:00Z</time></trkpt>
<trkpt lat="29.715862" lon="98.422969">
<time>2016-10-07T15:52:01Z</time></trkpt>
<trkpt lat="29.715782" lon="98.422849">
<time>2016-10-07T15:52:02Z</time></trkpt>
<trkpt lat="29.715722" lon="98.422769">
<time>2016-10-07T15:52:03Z</time></trkpt>
<trkpt lat="29.715672" lon="98.422689">
<time>2016-10-07T15:52:04Z</time></trkpt>
<trkpt lat="29.715622" lon="98.422589">
<time>2016-10-07T15:52:05Z</time></trkpt>
<trkpt lat="29.715572" lon="98.422498">
<time>2016-10-07T15:52:06Z</time></trkpt>
<trkpt lat="29.715522" lon="98.422408">
<time>2016-10-07T15:52:07Z</time></trkpt>
<trkpt lat="29.715492" lon="98.422338">
<time>2016-10-07T15:52:08Z</time></trkpt>
<trkpt lat="29.715442" lon="98.422238">
<time>2016-10-07T15:52:09Z</time></trkpt>
<trkpt lat="29.715402" lon="98.422128">
<time>2016-10-07T15:52:10Z</time></trkpt>
<trkpt lat="29.715351" lon="98.422008">
<time>2016-10-07T15:52:11Z</time></trkpt>
<trkpt lat="29.715321" lon="98.421938">
<time>2016-10-07T15:52:12Z</time></trkpt>
<trkpt lat="29.715281" lon="98.421868">
<time>2016-10-07T15:52:13Z</time></trkpt>
<trkpt lat="29.715251" lon="98.421808">
<time>2016-10-07T15:52:14Z</time></trkpt>
<trkpt lat="29.715201" lon="98.421728">
<time>2016-10-07T15:52:15Z</time></trkpt>
<trkpt lat="29.715151" lon="98.421668">
<time>2016-10-07T15:52:16Z</time></trkpt>
<trkpt lat="29.715081" lon="98.421598">
<time>2016-10-07T15:52:17Z</time></trkpt>
<trkpt lat="29.714921" lon="98.421408">
<time>2016-10-07T15:52:18Z</time></trkpt>
<trkpt lat="29.714781" lon="98.421257">
<time>2016-10-07T15:52:19Z</time></trkpt>
<trkpt lat="29.714551" lon="98.420997">
<time>2016-10-07T15:52:20Z</time></trkpt>
<trkpt lat="29.714451" lon="98.420887">
<time>2016-10-07T15:52:21Z</time></trkpt>
<trkpt lat="29.714361" lon="98.420787">
<time>2016-10-07T15:52:22Z</time></trkpt>
<trkpt lat="29.71428" lon="98.420677">
<time>2016-10-07T15:52:23Z</time></trkpt>
<trkpt lat="29.71419" lon="98.420557">
<time>2016-10-07T15:52:24Z</time></trkpt>
<trkpt lat="29.71409" lon="98.420437">
<time>2016-10-07T15:52:25Z</time></trkpt>
<trkpt lat="29.71399" lon="98.420297">
<time>2016-10-07T15:52:26Z</time></trkpt>
<trkpt lat="29.71387" lon="98.420117">
<time>2016-10-07T15:52:27Z</time></trkpt>
<trkpt lat="29.71376" lon="98.419967">
<time>2016-10-07T15:52:28Z</time></trkpt>
<trkpt lat="29.71364" lon="98.419756">
<time>2016-10-07T15:52:29Z</time></trkpt>
<trkpt lat="29.71357" lon="98.419636">
<time>2016-10-07T15:52:30Z</time></trkpt>
<trkpt lat="29.71351" lon="98.419526">
<time>2016-10-07T15:52:31Z</time></trkpt>
<trkpt lat="29.71344" lon="98.419366">
<time>2016-10-07T15:52:32Z</time></trkpt>
<trkpt lat="29.713389" lon="98.419266">
<time>2016-10-07T15:52:33Z</time></trkpt>
<trkpt lat="29.713349" lon="98.419176">
<time>2016-10-07T15:52:34Z</time></trkpt>
<trkpt lat="29.713329" lon="98.419106">
<time>2016-10-07T15:52:35Z</time></trkpt>
<trkpt lat="29.713329" lon="98.419056">
<time>2016-10-07T15:52:36Z</time></trkpt>
<trkpt lat="29.713329" lon="98.419016">
<time>2016-10-07T15:52:37Z</time></trkpt>
<trkpt lat="29.713339" lon="98.418966">
<time>2016-10-07T15:52:38Z</time></trkpt>
<trkpt lat="29.713359" lon="98.418926">
<time>2016-10-07T15:52:39Z</time></trkpt>
<trkpt lat="29.713379" lon="98.418896">
<time>2016-10-07T15:52:40Z</time></trkpt>
<trkpt lat="29.713409" lon="98.418876">
<time>2016-10-07T15:52:41Z</time></trkpt>
<trkpt lat="29.713449" lon="98.418856">
<time>2016-10-07T15:52:42Z</time></trkpt>
<trkpt lat="29.713489" lon="98.418846">
<time>2016-10-07T15:52:43Z</time></trkpt>
<trkpt lat="29.713529" lon="98.418846">
<time>2016-10-07T15:52:44Z</time></trkpt>
<trkpt lat="29.713559" lon="98.418856">
<time>2016-10-07T15:52:45Z</time></trkpt>
<trkpt lat="29.713609" lon="98.418876">
<time>2016-10-07T15:52:46Z</time></trkpt>
<trkpt lat="29.713659" lon="98.418896">
<time>2016-10-07T15:52:47Z</time></trkpt>
<trkpt lat="29.713739" lon="98.418936">
<time>2016-10-07T15:52:48Z</time></trkpt>
<trkpt lat="29.713929" lon="98.419046">
<time>2016-10-07T15:52:49Z</time></trkpt>
<trkpt lat="29.714139" lon="98.419166">
<time>2016-10-07T15:52:50Z</time></trkpt>
<trkpt lat="29.714229" lon="98.419216">
<time>2016-10-07T15:52:51Z</time></trkpt>
<trkpt lat="29.714289" lon="98.419246">
<time>2016-10-07T15:52:52Z</time></trkpt>
<trkpt lat="29.714349" lon="98.419286">
<time>2016-10-07T15:52:53Z</time></trkpt>
<trkpt lat="29.714389" lon="98.419296">
<time>2016-10-07T15:52:54Z</time></trkpt>
<trkpt lat="29.714419" lon="98.419316">
<time>2016-10-07T15:52:55Z</time></trkpt>
<trkpt lat="29.714469" lon="98.419326">
<time>2016-10-07T15:52:56Z</time></trkpt>
<trkpt lat="29.714499" lon="98.419336">
<time>2016-10-07T15:52:57Z</time></trkpt>
<trkpt lat="29.714529" lon="98.419336">
<time>2016-10-07T15:52:58Z</time></trkpt>
<trkpt lat="29.714549" lon="98.419336">
<time>2016-10-07T15:52:59Z</time></trkpt>
<trkpt lat="29.714569" lon="98.419336">
<time>2016-10-07T15:53:00Z</time></trkpt>
<trkpt lat="29.714599" lon="98.419326">
<time>2016-10-07T15:53:01Z</time></trkpt>
<trkpt lat="29.714619" lon="98.419316">
<time>2016-10-07T15:53:02Z</time></trkpt>
<trkpt lat="29.714649" lon="98.419306">
<time>2016-10-07T15:53:03Z</time></trkpt>
<trkpt lat="29.714669" lon="98.419296">
<time>2016-10-07T15:53:04Z</time></trkpt>
<trkpt lat="29.714679" lon="98.419286">
<time>2016-10-07T15:53:05Z</time></trkpt>
<trkpt lat="29.714699" lon="98.419256">
<time>2016-10-07T15:53:06Z</time></trkpt>
<trkpt lat="29.714719" lon="98.419236">
<time>2016-10-07T15:53:07Z</time></trkpt>
<trkpt lat="29.714739" lon="98.419216">
<time>2016-10-07T15:53:08Z</time></trkpt>
<trkpt lat="29.714759" lon="98.419186">
<time>2016-10-07T15:53:09Z</time></trkpt>
<trkpt lat="29.714769" lon="98.419156">
<time>2016-10-07T15:53:10Z</time></trkpt>
<trkpt lat="29.714779" lon="98.419136">
<time>2016-10-07T15:53:11Z</time></trkpt>
<trkpt lat="29.714779" lon="98.419106">
<time>2016-10-07T15:53:12Z</time></trkpt>
<trkpt lat="29.714789" lon="98.419076">
<time>2016-10-07T15:53:13Z</time></trkpt>
<trkpt lat="29.714789" lon="98.419046">
<time>2016-10-07T15:53:14Z</time></trkpt>
<trkpt lat="29.714779" lon="98.419006">
<time>2016-10-07T15:53:15Z</time></trkpt>
<trkpt lat="29.714779" lon="98.418986">
<time>2016-10-07T15:53:16Z</time></trkpt>
<trkpt lat="29.714769" lon="98.418956">
<time>2016-10-07T15:53:17Z</time></trkpt>
<trkpt lat="29.714759" lon="98.418926">
<time>2016-10-07T15:53:18Z</time></trkpt>
<trkpt lat="29.714749" lon="98.418896">
<time>2016-10-07T15:53:19Z</time></trkpt>
<trkpt lat="29.714739" lon="98.418866">
<time>2016-10-07T15:53:20Z</time></trkpt>
<trkpt lat="29.714719" lon="98.418846">
<time>2016-10-07T15:53:21Z</time></trkpt>
<trkpt lat="29.714699" lon="98.418806">
<time>2016-10-07T15:53:22Z</time></trkpt>
<trkpt lat="29.714609" lon="98.418686">
<time>2016-10-07T15:53:23Z</time></trkpt>
<trkpt lat="29.714479" lon="98.418506">
<time>2016-10-07T15:53:24Z</time></trkpt>
<trkpt lat="29.714289" lon="98.418245">
<time>2016-10-07T15:53:25Z</time></trkpt>
<trkpt lat="29.714028" lon="98.417905">
<time>2016-10-07T15:53:26Z</time></trkpt>
<trkpt lat="29.713928" lon="98.417775">
<time>2016-10-07T15:53:27Z</time></trkpt>
<trkpt lat="29.713838" lon="98.417675">
<time>2016-10-07T15:53:28Z</time></trkpt>
<trkpt lat="29.713728" lon="98.417575">
<time>2016-10-07T15:53:29Z</time></trkpt>
<trkpt lat="29.713538" lon="98.417425">
<time>2016-10-07T15:53:30Z</time></trkpt>
<trkpt lat="29.713378" lon="98.417305">
<time>2016-10-07T15:53:31Z</time></trkpt>
<trkpt lat="29.713188" lon="98.417155">
<time>2016-10-07T15:53:32Z</time></trkpt>
<trkpt lat="29.713068" lon="98.417045">
<time>2016-10-07T15:53:33Z</time></trkpt>
<trkpt lat="29.712958" lon="98.416925">
<time>2016-10-07T15:53:34Z</time></trkpt>
<trkpt lat="29.712848" lon="98.416795">
<time>2016-10-07T15:53:35Z</time></trkpt>
<trkpt lat="29.712688" lon="98.416564">
<time>2016-10-07T15:53:36Z</time></trkpt>
<trkpt lat="29.712568" lon="98.416394">
<time>2016-10-07T15:53:37Z</time></trkpt>
<trkpt lat="29.712477" lon="98.416254">
<time>2016-10-07T15:53:38Z</time></trkpt>
<trkpt lat="29.712407" lon="98.416124">
<time>2016-10-07T15:53:39Z</time></trkpt>
<trkpt lat="29.712327" lon="98.415954">
<time>2016-10-07T15:53:40Z</time></trkpt>
<trkpt lat="29.712257" lon="98.415804">
<time>2016-10-07T15:53:41Z</time></trkpt>
<trkpt lat="29.712197" lon="98.415684">
<time>2016-10-07T15:53:42Z</time></trkpt>
<trkpt lat="29.712147" lon="98.415594">
<time>2016-10-07T15:53:43Z</time></trkpt>
<trkpt lat="29.712087" lon="98.415494">
<time>2016-10-07T15:53:44Z</time></trkpt>
<trkpt lat="29.712027" lon="98.415414">
<time>2016-10-07T15:53:45Z</time></trkpt>
<trkpt lat="29.711977" lon="98.415354">
<time>2016-10-07T15:53:46Z</time></trkpt>
<trkpt lat="29.711917" lon="98.415294">
<time>2016-10-07T15:53:47Z</time></trkpt>
<trkpt lat="29.711867" lon="98.415244">
<time>2016-10-07T15:53:48Z</time></trkpt>
<trkpt lat="29.711797" lon="98.415184">
<time>2016-10-07T15:53:49Z</time></trkpt>
<trkpt lat="29.711727" lon="98.415124">
<time>2016-10-07T15:53:50Z</time></trkpt>
<trkpt lat="29.711647" lon="98.415074">
<time>2016-10-07T15:53:51Z</time></trkpt>
<trkpt lat="29.711547" lon="98.415004">
<time>2016-10-07T15:53:52Z</time></trkpt>
<trkpt lat="29.711487" lon="98.414964">
<time>2016-10-07T15:53:53Z</time></trkpt>
<trkpt lat="29.711427" lon="98.414914">
<time>2016-10-07T15:53:54Z</time></trkpt>
<trkpt lat="29.711357" lon="98.414854">
<time>2016-10-07T15:53:55Z</time></trkpt>
<trkpt lat="29.711297" lon="98.414784">
<time>2016-10-07T15:53:56Z</time></trkpt>
<trkpt lat="29.711247" lon="98.414714">
<time>2016-10-07T15:53:57Z</time></trkpt>
<trkpt lat="29.711207" lon="98.414644">
<time>2016-10-07T15:53:58Z</time></trkpt>
<trkpt lat="29.711167" lon="98.414594">
<time>2016-10-07T15:53:59Z</time></trkpt>
<trkpt lat="29.711147" lon="98.414524">
<time>2016-10-07T15:54:00Z</time></trkpt>
<trkpt lat="29.711127" lon="98.414484">
<time>2016-10-07T15:54:01Z</time></trkpt>
<trkpt lat="29.711117" lon="98.414433">
<time>2016-10-07T15:54:02Z</time></trkpt>
<trkpt lat="29.711107" lon="98.414393">
<time>2016-10-07T15:54:03Z</time></trkpt>
<trkpt lat="29.711107" lon="98.414313">
<time>2016-10-07T15:54:04Z</time></trkpt>
<trkpt lat="29.711116" lon="98.414193">
<time>2016-10-07T15:54:05Z</time></trkpt>
<trkpt lat="29.711126" lon="98.414063">
<time>2016-10-07T15:54:06Z</time></trkpt>
<trkpt lat="29.711136" lon="98.413993">
<time>2016-10-07T15:54:07Z</time></trkpt>
<trkpt lat="29.711156" lon="98.413843">
<time>2016-10-07T15:54:08Z</time></trkpt>
<trkpt lat="29.711186" lon="98.413703">
<time>2016-10-07T15:54:09Z</time></trkpt>
<trkpt lat="29.711196" lon="98.413583">
<time>2016-10-07T15:54:10Z</time></trkpt>
<trkpt lat="29.711216" lon="98.413473">
<time>2016-10-07T15:54:11Z</time></trkpt>
<trkpt lat="29.711226" lon="98.413393">
<time>2016-10-07T15:54:12Z</time></trkpt>
<trkpt lat="29.711246" lon="98.413323">
<time>2016-10-07T15:54:13Z</time></trkpt>
<trkpt lat="29.711256" lon="98.413293">
<time>2016-10-07T15:54:14Z</time></trkpt>
<trkpt lat="29.711276" lon="98.413253">
<time>2016-10-07T15:54:15Z</time></trkpt>
<trkpt lat="29.711296" lon="98.413233">
<time>2016-10-07T15:54:16Z</time></trkpt>
<trkpt lat="29.711316" lon="98.413213">
<time>2016-10-07T15:54:17Z</time></trkpt>
<trkpt lat="29.711336" lon="98.413193">
<time>2016-10-07T15:54:18Z</time></trkpt>
<trkpt lat="29.711356" lon="98.413183">
<time>2016-10-07T15:54:19Z</time></trkpt>
<trkpt lat="29.711386" lon="98.413183">
<time>2016-10-07T15:54:20Z</time></trkpt>
<trkpt lat="29.711416" lon="98.413173">
<time>2016-10-07T15:54:21Z</time></trkpt>
<trkpt lat="29.711456" lon="98.413173">
<time>2016-10-07T15:54:22Z</time></trkpt>
<trkpt lat="29.711496" lon="98.413183">
<time>2016-10-07T15:54:23Z</time></trkpt>
<trkpt lat="29.711546" lon="98.413193">
<time>2016-10-07T15:54:24Z</time></trkpt>
<trkpt lat="29.711616" lon="98.413213">
<time>2016-10-07T15:54:25Z</time></trkpt>
<trkpt lat="29.711686" lon="98.413243">
<time>2016-10-07T15:54:26Z</time></trkpt>
<trkpt lat="29.711726" lon="98.413253">
<time>2016-10-07T15:54:27Z</time></trkpt>
<trkpt lat="29.711766" lon="98.413263">
<time>2016-10-07T15:54:28Z</time></trkpt>
<trkpt lat="29.711806" lon="98.413273">
<time>2016-10-07T15:54:29Z</time></trkpt>
<trkpt lat="29.711836" lon="98.413273">
<time>2016-10-07T15:54:30Z</time></trkpt>
<trkpt lat="29.711866" lon="98.413273">
<time>2016-10-07T15:54:31Z</time></trkpt>
<trkpt lat="29.711896" lon="98.413263">
<time>2016-10-07T15:54:32Z</time></trkpt>
<trkpt lat="29.711906" lon="98.413253">
<time>2016-10-07T15:54:33Z</time></trkpt>
<trkpt lat="29.711926" lon="98.413243">
<time>2016-10-07T15:54:34Z</time></trkpt>
<trkpt lat="29.711946" lon="98.413223">
<time>2016-10-07T15:54:35Z</time></trkpt>
<trkpt lat="29.711956" lon="98.413213">
<time>2016-10-07T15:54:36Z</time></trkpt>
<trkpt lat="29.711966" lon="98.413203">
<time>2016-10-07T15:54:37Z</time></trkpt>
<trkpt lat="29.711976" lon="98.413183">
<time>2016-10-07T15:54:38Z</time></trkpt>
<trkpt lat="29.711976" lon="98.413173">
<time>2016-10-07T15:54:39Z</time></trkpt>
<trkpt lat="29.711986" lon="98.413163">
<time>2016-10-07T15:54:40Z</time></trkpt>
<trkpt lat="29.711986" lon="98.413153">
<time>2016-10-07T15:54:41Z</time></trkpt>
<trkpt lat="29.711986" lon="98.413153">
<time>2016-10-07T15:54:42Z</time></trkpt>
<trkpt lat="29.711986" lon="98.413143">
<time>2016-10-07T15:54:43Z</time></trkpt>
<trkpt lat="29.711986" lon="98.413123">
<time>2016-10-07T15:54:44Z</time></trkpt>
<trkpt lat="29.711986" lon="98.413103">
<time>2016-10-07T15:54:45Z</time></trkpt>
<trkpt lat="29.711986" lon="98.413083">
<time>2016-10-07T15:54:46Z</time></trkpt>
<trkpt lat="29.711976" lon="98.413073">
<time>2016-10-07T15:54:47Z</time></trkpt>
<trkpt lat="29.711976" lon="98.413053">
<time>2016-10-07T15:54:48Z</time></trkpt>
<trkpt lat="29.711966" lon="98.413043">
<time>2016-10-07T15:54:49Z</time></trkpt>
<trkpt lat="29.711956" lon="98.413023">
<time>2016-10-07T15:54:50Z</time></trkpt>
<trkpt lat="29.711956" lon="98.413013">
<time>2016-10-07T15:54:51Z</time></trkpt>
<trkpt lat="29.711946" lon="98.412993">
<time>2016-10-07T15:54:52Z</time></trkpt>
<trkpt lat="29.711936" lon="98.412983">
<time>2016-10-07T15:54:53Z</time></trkpt>
<trkpt lat="29.711916" lon="98.412973">
<time>2016-10-07T15:54:54Z</time></trkpt>
<trkpt lat="29.711906" lon="98.412963">
<time>2016-10-07T15:54:55Z</time></trkpt>
<trkpt lat="29.711896" lon="98.412943">
<time>2016-10-07T15:54:56Z</time></trkpt>
<trkpt lat="29.711876" lon="98.412923">
<time>2016-10-07T15:54:57Z</time></trkpt>
<trkpt lat="29.711856" lon="98.412903">
<time>2016-10-07T15:54:58Z</time></trkpt>
<trkpt lat="29.711826" lon="98.412883">
<time>2016-10-07T15:54:59Z</time></trkpt>
<trkpt lat="29.711806" lon="98.412863">
<time>2016-10-07T15:55:00Z</time></trkpt>
<trkpt lat="29.711756" lon="98.412833">
<time>2016-10-07T15:55:01Z</time></trkpt>
<trkpt lat="29.711736" lon="98.412803">
<time>2016-10-07T15:55:02Z</time></trkpt>
<trkpt lat="29.711706" lon="98.412783">
<time>2016-10-07T15:55:03Z</time></trkpt>
<trkpt lat="29.711666" lon="98.412753">
<time>2016-10-07T15:55:04Z</time></trkpt>
<trkpt lat="29.711616" lon="98.412723">
<time>2016-10-07T15:55:05Z</time></trkpt>
<trkpt lat="29.711576" lon="98.412683">
<time>2016-10-07T15:55:06Z</time></trkpt>
<trkpt lat="29.711526" lon="98.412653">
<time>2016-10-07T15:55:07Z</time></trkpt>
<trkpt lat="29.711476" lon="98.412613">
<time>2016-10-07T15:55:08Z</time></trkpt>
<trkpt lat="29.711436" lon="98.412583">
<time>2016-10-07T15:55:09Z</time></trkpt>
<trkpt lat="29.711376" lon="98.412543">
<time>2016-10-07T15:55:10Z</time></trkpt>
<trkpt lat="29.711316" lon="98.412503">
<time>2016-10-07T15:55:11Z</time></trkpt>
<trkpt lat="29.711286" lon="98.412483">
<time>2016-10-07T15:55:12Z</time></trkpt>
<trkpt lat="29.711226" lon="98.412443">
<time>2016-10-07T15:55:13Z</time></trkpt>
<trkpt lat="29.711166" lon="98.412403">
<time>2016-10-07T15:55:14Z</time></trkpt>
<trkpt lat="29.711116" lon="98.412363">
<time>2016-10-07T15:55:15Z</time></trkpt>
<trkpt lat="29.711076" lon="98.412333">
<time>2016-10-07T15:55:16Z</time></trkpt>
<trkpt lat="29.711036" lon="98.412303">
<time>2016-10-07T15:55:17Z</time></trkpt>
<trkpt lat="29.710986" lon="98.412273">
<time>2016-10-07T15:55:18Z</time></trkpt>
<trkpt lat="29.710946" lon="98.412243">
<time>2016-10-07T15:55:19Z</time></trkpt>
<trkpt lat="29.710926" lon="98.412223">
<time>2016-10-07T15:55:20Z</time></trkpt>
<trkpt lat="29.710906" lon="98.412213">
<time>2016-10-07T15:55:21Z</time></trkpt>
<trkpt lat="29.710885" lon="98.412193">
<time>2016-10-07T15:55:22Z</time></trkpt>
<trkpt lat="29.710865" lon="98.412173">
<time>2016-10-07T15:55:23Z</time></trkpt>
<trkpt lat="29.710845" lon="98.412153">
<time>2016-10-07T15:55:24Z</time></trkpt>
<trkpt lat="29.710825" lon="98.412133">
<time>2016-10-07T15:55:25Z</time></trkpt>
<trkpt lat="29.710805" lon="98.412113">
<time>2016-10-07T15:55:26Z</time></trkpt>
<trkpt lat="29.710785" lon="98.412093">
<time>2016-10-07T15:55:27Z</time></trkpt>
<trkpt lat="29.710765" lon="98.412073">
<time>2016-10-07T15:55:28Z</time></trkpt>
<trkpt lat="29.710745" lon="98.412053">
<time>2016-10-07T15:55:29Z</time></trkpt>
<trkpt lat="29.710725" lon="98.412043">
<time>2016-10-07T15:55:30Z</time></trkpt>
<trkpt lat="29.710705" lon="98.412023">
<time>2016-10-07T15:55:31Z</time></trkpt>
<trkpt lat="29.710695" lon="98.411993">
<time>2016-10-07T15:55:32Z</time></trkpt>
<trkpt lat="29.710675" lon="98.411973">
<time>2016-10-07T15:55:33Z</time></trkpt>
<trkpt lat="29.710665" lon="98.411953">
<time>2016-10-07T15:55:34Z</time></trkpt>
<trkpt lat="29.710645" lon="98.411933">
<time>2016-10-07T15:55:35Z</time></trkpt>
<trkpt lat="29.710635" lon="98.411903">
<time>2016-10-07T15:55:36Z</time></trkpt>
<trkpt lat="29.710625" lon="98.411883">
<time>2016-10-07T15:55:37Z</time></trkpt>
<trkpt lat="29.710615" lon="98.411853">
<time>2016-10-07T15:55:38Z</time></trkpt>
<trkpt lat="29.710605" lon="98.411823">
<time>2016-10-07T15:55:39Z</time></trkpt>
<trkpt lat="29.710595" lon="98.411783">
<time>2016-10-07T15:55:40Z</time></trkpt>
<trkpt lat="29.710585" lon="98.411753">
<time>2016-10-07T15:55:41Z</time></trkpt>
<trkpt lat="29.710575" lon="98.411713">
<time>2016-10-07T15:55:42Z</time></trkpt>
<trkpt lat="29.710565" lon="98.411663">
<time>2016-10-07T15:55:43Z</time></trkpt>
<trkpt lat="29.710555" lon="98.411612">
<time>2016-10-07T15:55:44Z</time></trkpt>
<trkpt lat="29.710535" lon="98.411552">
<time>2016-10-07T15:55:45Z</time></trkpt>
<trkpt lat="29.710525" lon="98.411512">
<time>2016-10-07T15:55:46Z</time></trkpt>
<trkpt lat="29.710515" lon="98.411482">
<time>2016-10-07T15:55:47Z</time></trkpt>
<trkpt lat="29.710495" lon="98.411442">
<time>2016-10-07T15:55:48Z</time></trkpt>
<trkpt lat="29.710485" lon="98.411402">
<time>2016-10-07T15:55:49Z</time></trkpt>
<trkpt lat="29.710465" lon="98.411372">
<time>2016-10-07T15:55:50Z</time></trkpt>
<trkpt lat="29.710445" lon="98.411342">
<time>2016-10-07T15:55:51Z</time></trkpt>
<trkpt lat="29.710415" lon="98.411302">
<time>2016-10-07T15:55:52Z</time></trkpt>
<trkpt lat="29.710395" lon="98.411272">
<time>2016-10-07T15:55:53Z</time></trkpt>
<trkpt lat="29.710365" lon="98.411232">
<time>2016-10-07T15:55:54Z</time></trkpt>
<trkpt lat="29.710325" lon="98.411202">
<time>2016-10-07T15:55:55Z</time></trkpt>
<trkpt lat="29.710285" lon="98.411162">
<time>2016-10-07T15:55:56Z</time></trkpt>
<trkpt lat="29.710235" lon="98.411122">
<time>2016-10-07T15:55:57Z</time></trkpt>
<trkpt lat="29.710185" lon="98.411072">
<time>2016-10-07T15:55:58Z</time></trkpt>
<trkpt lat="29.710125" lon="98.411022">
<time>2016-10-07T15:55:59Z</time></trkpt>
<trkpt lat="29.710045" lon="98.410962">
<time>2016-10-07T15:56:00Z</time></trkpt>
<trkpt lat="29.709995" lon="98.410912">
<time>2016-10-07T15:56:01Z</time></trkpt>
<trkpt lat="29.709935" lon="98.410872">
<time>2016-10-07T15:56:02Z</time></trkpt>
<trkpt lat="29.709865" lon="98.410812">
<time>2016-10-07T15:56:03Z</time></trkpt>
<trkpt lat="29.709805" lon="98.410752">
<time>2016-10-07T15:56:04Z</time></trkpt>
<trkpt lat="29.709725" lon="98.410692">
<time>2016-10-07T15:56:05Z</time></trkpt>
<trkpt lat="29.709625" lon="98.410592">
<time>2016-10-07T15:56:06Z</time></trkpt>
<trkpt lat="29.709565" lon="98.410542">
<time>2016-10-07T15:56:07Z</time></trkpt>
<trkpt lat="29.709515" lon="98.410492">
<time>2016-10-07T15:56:08Z</time></trkpt>
<trkpt lat="29.709475" lon="98.410452">
<time>2016-10-07T15:56:09Z</time></trkpt>
<trkpt lat="29.709425" lon="98.410402">
<time>2016-10-07T15:56:10Z</time></trkpt>
<trkpt lat="29.709385" lon="98.410352">
<time>2016-10-07T15:56:11Z</time></trkpt>
<trkpt lat="29.709305" lon="98.410262">
<time>2016-10-07T15:56:12Z</time></trkpt>
<trkpt lat="29.709245" lon="98.410202">
<time>2016-10-07T15:56:13Z</time></trkpt>
<trkpt lat="29.709195" lon="98.410142">
<time>2016-10-07T15:56:14Z</time></trkpt>
<trkpt lat="29.709155" lon="98.410102">
<time>2016-10-07T15:56:15Z</time></trkpt>
<trkpt lat="29.709085" lon="98.410022">
<time>2016-10-07T15:56:16Z</time></trkpt>
<trkpt lat="29.709045" lon="98.409982">
<time>2016-10-07T15:56:17Z</time></trkpt>
<trkpt lat="29.708985" lon="98.409922">
<time>2016-10-07T15:56:18Z</time></trkpt>
<trkpt lat="29.708945" lon="98.409862">
<time>2016-10-07T15:56:19Z</time></trkpt>
<trkpt lat="29.708875" lon="98.409792">
<time>2016-10-07T15:56:20Z</time></trkpt>
<trkpt lat="29.708815" lon="98.409712">
<time>2016-10-07T15:56:21Z</time></trkpt>
<trkpt lat="29.708755" lon="98.409652">
<time>2016-10-07T15:56:22Z</time></trkpt>
<trkpt lat="29.708695" lon="98.409592">
<time>2016-10-07T15:56:23Z</time></trkpt>
<trkpt lat="29.708635" lon="98.409532">
<time>2016-10-07T15:56:24Z</time></trkpt>
<trkpt lat="29.708585" lon="98.409482">
<time>2016-10-07T15:56:25Z</time></trkpt>
<trkpt lat="29.708535" lon="98.409442">
<time>2016-10-07T15:56:26Z</time></trkpt>
<trkpt lat="29.708495" lon="98.409402">
<time>2016-10-07T15:56:27Z</time></trkpt>
<trkpt lat="29.708445" lon="98.409362">
<time>2016-10-07T15:56:28Z</time></trkpt>
<trkpt lat="29.708375" lon="98.409312">
<time>2016-10-07T15:56:29Z</time></trkpt>
<trkpt lat="29.708285" lon="98.409252">
<time>2016-10-07T15:56:30Z</time></trkpt>
<trkpt lat="29.708215" lon="98.409202">
<time>2016-10-07T15:56:31Z</time></trkpt>
<trkpt lat="29.708125" lon="98.409142">
<time>2016-10-07T15:56:32Z</time></trkpt>
<trkpt lat="29.708055" lon="98.409092">
<time>2016-10-07T15:56:33Z</time></trkpt>
<trkpt lat="29.707965" lon="98.409032">
<time>2016-10-07T15:56:34Z</time></trkpt>
<trkpt lat="29.707895" lon="98.408982">
<time>2016-10-07T15:56:35Z</time></trkpt>
<trkpt lat="29.707815" lon="98.408922">
<time>2016-10-07T15:56:36Z</time></trkpt>
<trkpt lat="29.707755" lon="98.408882">
<time>2016-10-07T15:56:37Z</time></trkpt>
<trkpt lat="29.707705" lon="98.408842">
<time>2016-10-07T15:56:38Z</time></trkpt>
<trkpt lat="29.707645" lon="98.408792">
<time>2016-10-07T15:56:39Z</time></trkpt>
<trkpt lat="29.707585" lon="98.408732">
<time>2016-10-07T15:56:40Z</time></trkpt>
<trkpt lat="29.707535" lon="98.408682">
<time>2016-10-07T15:56:41Z</time></trkpt>
<trkpt lat="29.707485" lon="98.408642">
<time>2016-10-07T15:56:42Z</time></trkpt>
<trkpt lat="29.707435" lon="98.408582">
<time>2016-10-07T15:56:43Z</time></trkpt>
<trkpt lat="29.707385" lon="98.408532">
<time>2016-10-07T15:56:44Z</time></trkpt>
<trkpt lat="29.707325" lon="98.408462">
<time>2016-10-07T15:56:45Z</time></trkpt>
<trkpt lat="29.707285" lon="98.408412">
<time>2016-10-07T15:56:46Z</time></trkpt>
<trkpt lat="29.707205" lon="98.408312">
<time>2016-10-07T15:56:47Z</time></trkpt>
<trkpt lat="29.707135" lon="98.408222">
<time>2016-10-07T15:56:48Z</time></trkpt>
<trkpt lat="29.707065" lon="98.408142">
<time>2016-10-07T15:56:49Z</time></trkpt>
<trkpt lat="29.707025" lon="98.408092">
<time>2016-10-07T15:56:50Z</time></trkpt>
<trkpt lat="29.706975" lon="98.408032">
<time>2016-10-07T15:56:51Z</time></trkpt>
<trkpt lat="29.706925" lon="98.407982">
<time>2016-10-07T15:56:52Z</time></trkpt>
<trkpt lat="29.706885" lon="98.407932">
<time>2016-10-07T15:56:53Z</time></trkpt>
<trkpt lat="29.706825" lon="98.407882">
<time>2016-10-07T15:56:54Z</time></trkpt>
<trkpt lat="29.706745" lon="98.407812">
<time>2016-10-07T15:56:55Z</time></trkpt>
<trkpt lat="29.706665" lon="98.407732">
<time>2016-10-07T15:56:56Z</time></trkpt>
<trkpt lat="29.706585" lon="98.407672">
<time>2016-10-07T15:56:57Z</time></trkpt>
<trkpt lat="29.706515" lon="98.407612">
<time>2016-10-07T15:56:58Z</time></trkpt>
<trkpt lat="29.706445" lon="98.407552">
<time>2016-10-07T15:56:59Z</time></trkpt>
<trkpt lat="29.706385" lon="98.407502">
<time>2016-10-07T15:57:00Z</time></trkpt>
<trkpt lat="29.706315" lon="98.407452">
<time>2016-10-07T15:57:01Z</time></trkpt>
<trkpt lat="29.706235" lon="98.407382">
<time>2016-10-07T15:57:02Z</time></trkpt>
<trkpt lat="29.706185" lon="98.407342">
<time>2016-10-07T15:57:03Z</time></trkpt>
<trkpt lat="29.706095" lon="98.407272">
<time>2016-10-07T15:57:04Z</time></trkpt>
<trkpt lat="29.706035" lon="98.407222">
<time>2016-10-07T15:57:05Z</time></trkpt>
<trkpt lat="29.705955" lon="98.407152">
<time>2016-10-07T15:57:06Z</time></trkpt>
<trkpt lat="29.705865" lon="98.407082">
<time>2016-10-07T15:57:07Z</time></trkpt>
<trkpt lat="29.705785" lon="98.407022">
<time>2016-10-07T15:57:08Z</time></trkpt>
<trkpt lat="29.705715" lon="98.406972">
<time>2016-10-07T15:57:09Z</time></trkpt>
<trkpt lat="29.705665" lon="98.406932">
<time>2016-10-07T15:57:10Z</time></trkpt>
<trkpt lat="29.705615" lon="98.406902">
<time>2016-10-07T15:57:11Z</time></trkpt>
<trkpt lat="29.705565" lon="98.406862">
<time>2016-10-07T15:57:12Z</time></trkpt>
<trkpt lat="29.705495" lon="98.406822">
<time>2016-10-07T15:57:13Z</time></trkpt>
<trkpt lat="29.705405" lon="98.406772">
<time>2016-10-07T15:57:14Z</time></trkpt>
<trkpt lat="29.705305" lon="98.406712">
<time>2016-10-07T15:57:15Z</time></trkpt>
<trkpt lat="29.705195" lon="98.406652">
<time>2016-10-07T15:57:16Z</time></trkpt>
<trkpt lat="29.705125" lon="98.406602">
<time>2016-10-07T15:57:17Z</time></trkpt>
<trkpt lat="29.704975" lon="98.406512">
<time>2016-10-07T15:57:18Z</time></trkpt>
<trkpt lat="29.704895" lon="98.406472">
<time>2016-10-07T15:57:19Z</time></trkpt>
<trkpt lat="29.704815" lon="98.406422">
<time>2016-10-07T15:57:20Z</time></trkpt>
<trkpt lat="29.704655" lon="98.406322">
<time>2016-10-07T15:57:21Z</time></trkpt>
<trkpt lat="29.704575" lon="98.406282">
<time>2016-10-07T15:57:22Z</time></trkpt>
<trkpt lat="29.704535" lon="98.406252">
<time>2016-10-07T15:57:23Z</time></trkpt>
<trkpt lat="29.704485" lon="98.406222">
<time>2016-10-07T15:57:24Z</time></trkpt>
<trkpt lat="29.704445" lon="98.406192">
<time>2016-10-07T15:57:25Z</time></trkpt>
<trkpt lat="29.704405" lon="98.406162">
<time>2016-10-07T15:57:26Z</time></trkpt>
<trkpt lat="29.704375" lon="98.406142">
<time>2016-10-07T15:57:27Z</time></trkpt>
<trkpt lat="29.704315" lon="98.406092">
<time>2016-10-07T15:57:28Z</time></trkpt>
<trkpt lat="29.704275" lon="98.406062">
<time>2016-10-07T15:57:29Z</time></trkpt>
<trkpt lat="29.704235" lon="98.406022">
<time>2016-10-07T15:57:30Z</time></trkpt>
<trkpt lat="29.704175" lon="98.405962">
<time>2016-10-07T15:57:31Z</time></trkpt>
<trkpt lat="29.704115" lon="98.405902">
<time>2016-10-07T15:57:32Z</time></trkpt>
<trkpt lat="29.704065" lon="98.405842">
<time>2016-10-07T15:57:33Z</time></trkpt>
<trkpt lat="29.704005" lon="98.405782">
<time>2016-10-07T15:57:34Z</time></trkpt>
<trkpt lat="29.703935" lon="98.405702">
<time>2016-10-07T15:57:35Z</time></trkpt>
<trkpt lat="29.703845" lon="98.405582">
<time>2016-10-07T15:57:36Z</time></trkpt>
<trkpt lat="29.703785" lon="98.405522">
<time>2016-10-07T15:57:37Z</time></trkpt>
<trkpt lat="29.703725" lon="98.405442">
<time>2016-10-07T15:57:38Z</time></trkpt>
<trkpt lat="29.703675" lon="98.405392">
<time>2016-10-07T15:57:39Z</time></trkpt>
<trkpt lat="29.703625" lon="98.405342">
<time>2016-10-07T15:57:40Z</time></trkpt>
<trkpt lat="29.703575" lon="98.405292">
<time>2016-10-07T15:57:41Z</time></trkpt>
<trkpt lat="29.703535" lon="98.405252">
<time>2016-10-07T15:57:42Z</time></trkpt>
<trkpt lat="29.703475" lon="98.405202">
<time>2016-10-07T15:57:43Z</time></trkpt>
<trkpt lat="29.703415" lon="98.405142">
<time>2016-10-07T15:57:44Z</time></trkpt>
<trkpt lat="29.703315" lon="98.405052">
<time>2016-10-07T15:57:45Z</time></trkpt>
<trkpt lat="29.703245" lon="98.404982">
<time>2016-10-07T15:57:46Z</time></trkpt>
<trkpt lat="29.703185" lon="98.404932">
<time>2016-10-07T15:57:47Z</time></trkpt>
<trkpt lat="29.703085" lon="98.404842">
<time>2016-10-07T15:57:48Z</time></trkpt>
<trkpt lat="29.702995" lon="98.404762">
<time>2016-10-07T15:57:49Z</time></trkpt>
<trkpt lat="29.702905" lon="98.404682">
<time>2016-10-07T15:57:50Z</time></trkpt>
<trkpt lat="29.702855" lon="98.404642">
<time>2016-10-07T15:57:51Z</time></trkpt>
<trkpt lat="29.702805" lon="98.404592">
<time>2016-10-07T15:57:52Z</time></trkpt>
<trkpt lat="29.702765" lon="98.404542">
<time>2016-10-07T15:57:53Z</time></trkpt>
<trkpt lat="29.702715" lon="98.404492">
<time>2016-10-07T15:57:54Z</time></trkpt>
<trkpt lat="29.702655" lon="98.404422">
<time>2016-10-07T15:57:55Z</time></trkpt>
<trkpt lat="29.702625" lon="98.404382">
<time>2016-10-07T15:57:56Z</time></trkpt>
<trkpt lat="29.702575" lon="98.404322">
<time>2016-10-07T15:57:57Z</time></trkpt>
<trkpt lat="29.702485" lon="98.404222">
<time>2016-10-07T15:57:58Z</time></trkpt>
<trkpt lat="29.702405" lon="98.404122">
<time>2016-10-07T15:57:59Z</time></trkpt>
<trkpt lat="29.702325" lon="98.404012">
<time>2016-10-07T15:58:00Z</time></trkpt>
<trkpt lat="29.702215" lon="98.403882">
<time>2016-10-07T15:58:01Z</time></trkpt>
<trkpt lat="29.702165" lon="98.403812">
<time>2016-10-07T15:58:02Z</time></trkpt>
<trkpt lat="29.702065" lon="98.403692">
<time>2016-10-07T15:58:03Z</time></trkpt>
<trkpt lat="29.702015" lon="98.403632">
<time>2016-10-07T15:58:04Z</time></trkpt>
<trkpt lat="29.701965" lon="98.403572">
<time>2016-10-07T15:58:05Z</time></trkpt>
<trkpt lat="29.701935" lon="98.403542">
<time>2016-10-07T15:58:06Z</time></trkpt>
<trkpt lat="29.701895" lon="98.403502">
<time>2016-10-07T15:58:07Z</time></trkpt>
<trkpt lat="29.701855" lon="98.403472">
<time>2016-10-07T15:58:08Z</time></trkpt>
<trkpt lat="29.701815" lon="98.403452">
<time>2016-10-07T15:58:09Z</time></trkpt>
<trkpt lat="29.701775" lon="98.403432">
<time>2016-10-07T15:58:10Z</time></trkpt>
<trkpt lat="29.701745" lon="98.403412">
<time>2016-10-07T15:58:11Z</time></trkpt>
<trkpt lat="29.701705" lon="98.403392">
<time>2016-10-07T15:58:12Z</time></trkpt>
<trkpt lat="29.701665" lon="98.403382">
<time>2016-10-07T15:58:13Z</time></trkpt>
<trkpt lat="29.701615" lon="98.403362">
<time>2016-10-07T15:58:14Z</time></trkpt>
<trkpt lat="29.701565" lon="98.403352">
<time>2016-10-07T15:58:15Z</time></trkpt>
<trkpt lat="29.701505" lon="98.403342">
<time>2016-10-07T15:58:16Z</time></trkpt>
<trkpt lat="29.701185" lon="98.403292">
<time>2016-10-07T15:58:17Z</time></trkpt>
<trkpt lat="29.701065" lon="98.403272">
<time>2016-10-07T15:58:18Z</time></trkpt>
<trkpt lat="29.700955" lon="98.403262">
<time>2016-10-07T15:58:19Z</time></trkpt>
<trkpt lat="29.700915" lon="98.403262">
<time>2016-10-07T15:58:20Z</time></trkpt>
<trkpt lat="29.700875" lon="98.403252">
<time>2016-10-07T15:58:21Z</time></trkpt>
<trkpt lat="29.700835" lon="98.403252">
<time>2016-10-07T15:58:22Z</time></trkpt>
<trkpt lat="29.700805" lon="98.403262">
<time>2016-10-07T15:58:23Z</time></trkpt>
<trkpt lat="29.700785" lon="98.403262">
<time>2016-10-07T15:58:24Z</time></trkpt>
<trkpt lat="29.700765" lon="98.403272">
<time>2016-10-07T15:58:25Z</time></trkpt>
<trkpt lat="29.700745" lon="98.403282">
<time>2016-10-07T15:58:26Z</time></trkpt>
<trkpt lat="29.700725" lon="98.403292">
<time>2016-10-07T15:58:27Z</time></trkpt>
<trkpt lat="29.700705" lon="98.403312">
<time>2016-10-07T15:58:28Z</time></trkpt>
<trkpt lat="29.700685" lon="98.403332">
<time>2016-10-07T15:58:29Z</time></trkpt>
<trkpt lat="29.700675" lon="98.403352">
<time>2016-10-07T15:58:30Z</time></trkpt>
<trkpt lat="29.700665" lon="98.403372">
<time>2016-10-07T15:58:31Z</time></trkpt>
<trkpt lat="29.700655" lon="98.403402">
<time>2016-10-07T15:58:32Z</time></trkpt>
<trkpt lat="29.700645" lon="98.403422">
<time>2016-10-07T15:58:33Z</time></trkpt>
<trkpt lat="29.700645" lon="98.403452">
<time>2016-10-07T15:58:34Z</time></trkpt>
<trkpt lat="29.700645" lon="98.403472">
<time>2016-10-07T15:58:35Z</time></trkpt>
<trkpt lat="29.700645" lon="98.403492">
<time>2016-10-07T15:58:36Z</time></trkpt>
<trkpt lat="29.700655" lon="98.403512">
<time>2016-10-07T15:58:37Z</time></trkpt>
<trkpt lat="29.700655" lon="98.403522">
<time>2016-10-07T15:58:38Z</time></trkpt>
<trkpt lat="29.700665" lon="98.403542">
<time>2016-10-07T15:58:39Z</time></trkpt>
<trkpt lat="29.700675" lon="98.403552">
<time>2016-10-07T15:58:40Z</time></trkpt>
<trkpt lat="29.700675" lon="98.403572">
<time>2016-10-07T15:58:41Z</time></trkpt>
<trkpt lat="29.700685" lon="98.403582">
<time>2016-10-07T15:58:42Z</time></trkpt>
<trkpt lat="29.700695" lon="98.403602">
<time>2016-10-07T15:58:43Z</time></trkpt>
<trkpt lat="29.700715" lon="98.403612">
<time>2016-10-07T15:58:44Z</time></trkpt>
<trkpt lat="29.700725" lon="98.403622">
<time>2016-10-07T15:58:45Z</time></trkpt>
<trkpt lat="29.700745" lon="98.403632">
<time>2016-10-07T15:58:46Z</time></trkpt>
<trkpt lat="29.700755" lon="98.403652">
<time>2016-10-07T15:58:47Z</time></trkpt>
<trkpt lat="29.700775" lon="98.403652">
<time>2016-10-07T15:58:48Z</time></trkpt>
<trkpt lat="29.700795" lon="98.403662">
<time>2016-10-07T15:58:49Z</time></trkpt>
<trkpt lat="29.700815" lon="98.403672">
<time>2016-10-07T15:58:50Z</time></trkpt>
<trkpt lat="29.700835" lon="98.403672">
<time>2016-10-07T15:58:51Z</time></trkpt>
<trkpt lat="29.700865" lon="98.403682">
<time>2016-10-07T15:58:52Z</time></trkpt>
<trkpt lat="29.700885" lon="98.403682">
<time>2016-10-07T15:58:53Z</time></trkpt>
<trkpt lat="29.700935" lon="98.403692">
<time>2016-10-07T15:58:54Z</time></trkpt>
<trkpt lat="29.700975" lon="98.403692">
<time>2016-10-07T15:58:55Z</time></trkpt>
<trkpt lat="29.701035" lon="98.403702">
<time>2016-10-07T15:58:56Z</time></trkpt>
<trkpt lat="29.701105" lon="98.403712">
<time>2016-10-07T15:58:57Z</time></trkpt>
<trkpt lat="29.701145" lon="98.403712">
<time>2016-10-07T15:58:58Z</time></trkpt>
<trkpt lat="29.701205" lon="98.403722">
<time>2016-10-07T15:58:59Z</time></trkpt>
<trkpt lat="29.701225" lon="98.403722">
<time>2016-10-07T15:59:00Z</time></trkpt>
<trkpt lat="29.701255" lon="98.403722">
<time>2016-10-07T15:59:01Z</time></trkpt>
<trkpt lat="29.701295" lon="98.403732">
<time>2016-10-07T15:59:02Z</time></trkpt>
<trkpt lat="29.701315" lon="98.403732">
<time>2016-10-07T15:59:03Z</time></trkpt>
<trkpt lat="29.701345" lon="98.403742">
<time>2016-10-07T15:59:04Z</time></trkpt>
<trkpt lat="29.701365" lon="98.403752">
<time>2016-10-07T15:59:05Z</time></trkpt>
<trkpt lat="29.701385" lon="98.403752">
<time>2016-10-07T15:59:06Z</time></trkpt>
<trkpt lat="29.701405" lon="98.403762">
<time>2016-10-07T15:59:07Z</time></trkpt>
<trkpt lat="29.701425" lon="98.403772">
<time>2016-10-07T15:59:08Z</time></trkpt>
<trkpt lat="29.701455" lon="98.403792">
<time>2016-10-07T15:59:09Z</time></trkpt>
<trkpt lat="29.701475" lon="98.403802">
<time>2016-10-07T15:59:10Z</time></trkpt>
<trkpt lat="29.701495" lon="98.403822">
<time>2016-10-07T15:59:11Z</time></trkpt>
<trkpt lat="29.701525" lon="98.403852">
<time>2016-10-07T15:59:12Z</time></trkpt>
<trkpt lat="29.701555" lon="98.403872">
<time>2016-10-07T15:59:13Z</time></trkpt>
<trkpt lat="29.701575" lon="98.403892">
<time>2016-10-07T15:59:14Z</time></trkpt>
<trkpt lat="29.701595" lon="98.403922">
<time>2016-10-07T15:59:15Z</time></trkpt>
<trkpt lat="29.701615" lon="98.403952">
<time>2016-10-07T15:59:16Z</time></trkpt>
<trkpt lat="29.701635" lon="98.403982">
<time>2016-10-07T15:59:17Z</time></trkpt>
<trkpt lat="29.701665" lon="98.404022">
<time>2016-10-07T15:59:18Z</time></trkpt>
<trkpt lat="29.701685" lon="98.404062">
<time>2016-10-07T15:59:19Z</time></trkpt>
<trkpt lat="29.701755" lon="98.404162">
<time>2016-10-07T15:59:20Z</time></trkpt>
<trkpt lat="29.701825" lon="98.404282">
<time>2016-10-07T15:59:21Z</time></trkpt>
<trkpt lat="29.701885" lon="98.404372">
<time>2016-10-07T15:59:22Z</time></trkpt>
<trkpt lat="29.701985" lon="98.404532">
<time>2016-10-07T15:59:23Z</time></trkpt>
<trkpt lat="29.702145" lon="98.404782">
<time>2016-10-07T15:59:24Z</time></trkpt>
<trkpt lat="29.702235" lon="98.404932">
<time>2016-10-07T15:59:25Z</time></trkpt>
<trkpt lat="29.702295" lon="98.405032">
<time>2016-10-07T15:59:26Z</time></trkpt>
<trkpt lat="29.702335" lon="98.405112">
<time>2016-10-07T15:59:27Z</time></trkpt>
<trkpt lat="29.702355" lon="98.405162">
<time>2016-10-07T15:59:28Z</time></trkpt>
<trkpt lat="29.702355" lon="98.405232">
<time>2016-10-07T15:59:29Z</time></trkpt>
<trkpt lat="29.702345" lon="98.405272">
<time>2016-10-07T15:59:30Z</time></trkpt>
<trkpt lat="29.702335" lon="98.405312">
<time>2016-10-07T15:59:31Z</time></trkpt>
<trkpt lat="29.702315" lon="98.405342">
<time>2016-10-07T15:59:32Z</time></trkpt>
<trkpt lat="29.702285" lon="98.405382">
<time>2016-10-07T15:59:33Z</time></trkpt>
<trkpt lat="29.702245" lon="98.405402">
<time>2016-10-07T15:59:34Z</time></trkpt>
<trkpt lat="29.702215" lon="98.405412">
<time>2016-10-07T15:59:35Z</time></trkpt>
<trkpt lat="29.702165" lon="98.405422">
<time>2016-10-07T15:59:36Z</time></trkpt>
<trkpt lat="29.702125" lon="98.405422">
<time>2016-10-07T15:59:37Z</time></trkpt>
<trkpt lat="29.702085" lon="98.405402">
<time>2016-10-07T15:59:38Z</time></trkpt>
<trkpt lat="29.702035" lon="98.405372">
<time>2016-10-07T15:59:39Z</time></trkpt>
<trkpt lat="29.701965" lon="98.405322">
<time>2016-10-07T15:59:40Z</time></trkpt>
<trkpt lat="29.701755" lon="98.405142">
<time>2016-10-07T15:59:41Z</time></trkpt>
<trkpt lat="29.701565" lon="98.404992">
<time>2016-10-07T15:59:42Z</time></trkpt>
<trkpt lat="29.701415" lon="98.404862">
<time>2016-10-07T15:59:43Z</time></trkpt>
<trkpt lat="29.701275" lon="98.404752">
<time>2016-10-07T15:59:44Z</time></trkpt>
<trkpt lat="29.701165" lon="98.404682">
<time>2016-10-07T15:59:45Z</time></trkpt>
<trkpt lat="29.701055" lon="98.404622">
<time>2016-10-07T15:59:46Z</time></trkpt>
<trkpt lat="29.700955" lon="98.404572">
<time>2016-10-07T15:59:47Z</time></trkpt>
<trkpt lat="29.700865" lon="98.404532">
<time>2016-10-07T15:59:48Z</time></trkpt>
<trkpt lat="29.700785" lon="98.404512">
<time>2016-10-07T15:59:49Z</time></trkpt>
<trkpt lat="29.700665" lon="98.404492">
<time>2016-10-07T15:59:50Z</time></trkpt>
<trkpt lat="29.700515" lon="98.404462">
<time>2016-10-07T15:59:51Z</time></trkpt>
<trkpt lat="29.700375" lon="98.404442">
<time>2016-10-07T15:59:52Z</time></trkpt>
<trkpt lat="29.700255" lon="98.404432">
<time>2016-10-07T15:59:53Z</time></trkpt>
<trkpt lat="29.700135" lon="98.404412">
<time>2016-10-07T15:59:54Z</time></trkpt>
<trkpt lat="29.700035" lon="98.404382">
<time>2016-10-07T15:59:55Z</time></trkpt>
<trkpt lat="29.699925" lon="98.404342">
<time>2016-10-07T15:59:56Z</time></trkpt>
<trkpt lat="29.699755" lon="98.404282">
<time>2016-10-07T15:59:57Z</time></trkpt>
<trkpt lat="29.699625" lon="98.404232">
<time>2016-10-07T15:59:58Z</time></trkpt>
<trkpt lat="29.699505" lon="98.404162">
<time>2016-10-07T15:59:59Z</time></trkpt>
<trkpt lat="29.699385" lon="98.404082">
<time>2016-10-07T16:00:00Z</time></trkpt>
<trkpt lat="29.699265" lon="98.404002">
<time>2016-10-07T16:00:01Z</time></trkpt>
<trkpt lat="29.699055" lon="98.403862">
<time>2016-10-07T16:00:02Z</time></trkpt>
<trkpt lat="29.698975" lon="98.403802">
<time>2016-10-07T16:00:03Z</time></trkpt>
<trkpt lat="29.698885" lon="98.403732">
<time>2016-10-07T16:00:04Z</time></trkpt>
<trkpt lat="29.698795" lon="98.403652">
<time>2016-10-07T16:00:05Z</time></trkpt>
<trkpt lat="29.698745" lon="98.403602">
<time>2016-10-07T16:00:06Z</time></trkpt>
<trkpt lat="29.698675" lon="98.403512">
<time>2016-10-07T16:00:07Z</time></trkpt>
<trkpt lat="29.698635" lon="98.403432">
<time>2016-10-07T16:00:08Z</time></trkpt>
<trkpt lat="29.698585" lon="98.403342">
<time>2016-10-07T16:00:09Z</time></trkpt>
<trkpt lat="29.698535" lon="98.403232">
<time>2016-10-07T16:00:10Z</time></trkpt>
<trkpt lat="29.698455" lon="98.402962">
<time>2016-10-07T16:00:11Z</time></trkpt>
<trkpt lat="29.698355" lon="98.402622">
<time>2016-10-07T16:00:12Z</time></trkpt>
<trkpt lat="29.698285" lon="98.402382">
<time>2016-10-07T16:00:13Z</time></trkpt>
<trkpt lat="29.698225" lon="98.402132">
<time>2016-10-07T16:00:14Z</time></trkpt>
<trkpt lat="29.698185" lon="98.401902">
<time>2016-10-07T16:00:15Z</time></trkpt>
<trkpt lat="29.698145" lon="98.401712">
<time>2016-10-07T16:00:16Z</time></trkpt>
<trkpt lat="29.698095" lon="98.401502">
<time>2016-10-07T16:00:17Z</time></trkpt>
<trkpt lat="29.698045" lon="98.401322">
<time>2016-10-07T16:00:18Z</time></trkpt>
<trkpt lat="29.697965" lon="98.401122">
<time>2016-10-07T16:00:19Z</time></trkpt>
<trkpt lat="29.697895" lon="98.400973">
<time>2016-10-07T16:00:20Z</time></trkpt>
<trkpt lat="29.697815" lon="98.400833">
<time>2016-10-07T16:00:21Z</time></trkpt>
<trkpt lat="29.697726" lon="98.400713">
<time>2016-10-07T16:00:22Z</time></trkpt>
<trkpt lat="29.697606" lon="98.400603">
<time>2016-10-07T16:00:23Z</time></trkpt>
<trkpt lat="29.697476" lon="98.400493">
<time>2016-10-07T16:00:24Z</time></trkpt>
<trkpt lat="29.697336" lon="98.400393">
<time>2016-10-07T16:00:25Z</time></trkpt>
<trkpt lat="29.697166" lon="98.400283">
<time>2016-10-07T16:00:26Z</time></trkpt>
<trkpt lat="29.697076" lon="98.400213">
<time>2016-10-07T16:00:27Z</time></trkpt>
<trkpt lat="29.696966" lon="98.400123">
<time>2016-10-07T16:00:28Z</time></trkpt>
<trkpt lat="29.696856" lon="98.400013">
<time>2016-10-07T16:00:29Z</time></trkpt>
<trkpt lat="29.696756" lon="98.399903">
<time>2016-10-07T16:00:30Z</time></trkpt>
<trkpt lat="29.696436" lon="98.399503">
<time>2016-10-07T16:00:31Z</time></trkpt>
<trkpt lat="29.696146" lon="98.399173">
<time>2016-10-07T16:00:32Z</time></trkpt>
<trkpt lat="29.695786" lon="98.398753">
<time>2016-10-07T16:00:33Z</time></trkpt>
<trkpt lat="29.695366" lon="98.398253">
<time>2016-10-07T16:00:34Z</time></trkpt>
<trkpt lat="29.695136" lon="98.397984">
<time>2016-10-07T16:00:35Z</time></trkpt>
<trkpt lat="29.694946" lon="98.397744">
<time>2016-10-07T16:00:36Z</time></trkpt>
<trkpt lat="29.694646" lon="98.397394">
<time>2016-10-07T16:00:37Z</time></trkpt>
<trkpt lat="29.694427" lon="98.397154">
<time>2016-10-07T16:00:38Z</time></trkpt>
<trkpt lat="29.694117" lon="98.396834">
<time>2016-10-07T16:00:39Z</time></trkpt>
<trkpt lat="29.693857" lon="98.396574">
<time>2016-10-07T16:00:40Z</time></trkpt>
<trkpt lat="29.693527" lon="98.396254">
<time>2016-10-07T16:00:41Z</time></trkpt>
<trkpt lat="29.693097" lon="98.395825">
<time>2016-10-07T16:00:42Z</time></trkpt>
<trkpt lat="29.692827" lon="98.395555">
<time>2016-10-07T16:00:43Z</time></trkpt>
<trkpt lat="29.692617" lon="98.395355">
<time>2016-10-07T16:00:44Z</time></trkpt>
<trkpt lat="29.692487" lon="98.395225">
<time>2016-10-07T16:00:45Z</time></trkpt>
<trkpt lat="29.692387" lon="98.395105">
<time>2016-10-07T16:00:46Z</time></trkpt>
<trkpt lat="29.692318" lon="98.395005">
<time>2016-10-07T16:00:47Z</time></trkpt>
<trkpt lat="29.692258" lon="98.394895">
<time>2016-10-07T16:00:48Z</time></trkpt>
<trkpt lat="29.692218" lon="98.394795">
<time>2016-10-07T16:00:49Z</time></trkpt>
<trkpt lat="29.692178" lon="98.394685">
<time>2016-10-07T16:00:50Z</time></trkpt>
<trkpt lat="29.692128" lon="98.394515">
<time>2016-10-07T16:00:51Z</time></trkpt>
<trkpt lat="29.692108" lon="98.394325">
<time>2016-10-07T16:00:52Z</time></trkpt>
<trkpt lat="29.692098" lon="98.394135">
<time>2016-10-07T16:00:53Z</time></trkpt>
<trkpt lat="29.692088" lon="98.393876">
<time>2016-10-07T16:00:54Z</time></trkpt>
<trkpt lat="29.692078" lon="98.393596">
<time>2016-10-07T16:00:55Z</time></trkpt>
<trkpt lat="29.692058" lon="98.393266">
<time>2016-10-07T16:00:56Z</time></trkpt>
<trkpt lat="29.692048" lon="98.392976">
<time>2016-10-07T16:00:57Z</time></trkpt>
<trkpt lat="29.692038" lon="98.392756">
<time>2016-10-07T16:00:58Z</time></trkpt>
<trkpt lat="29.692018" lon="98.392556">
<time>2016-10-07T16:00:59Z</time></trkpt>
<trkpt lat="29.691988" lon="98.392386">
<time>2016-10-07T16:01:00Z</time></trkpt>
<trkpt lat="29.691949" lon="98.392217">
<time>2016-10-07T16:01:01Z</time></trkpt>
<trkpt lat="29.691909" lon="98.392037">
<time>2016-10-07T16:01:02Z</time></trkpt>
<trkpt lat="29.691799" lon="98.391717">
<time>2016-10-07T16:01:03Z</time></trkpt>
<trkpt lat="29.691689" lon="98.391367">
<time>2016-10-07T16:01:04Z</time></trkpt>
<trkpt lat="29.691589" lon="98.391067">
<time>2016-10-07T16:01:05Z</time></trkpt>
<trkpt lat="29.691539" lon="98.390917">
<time>2016-10-07T16:01:06Z</time></trkpt>
<trkpt lat="29.691519" lon="98.390818">
<time>2016-10-07T16:01:07Z</time></trkpt>
<trkpt lat="29.691509" lon="98.390708">
<time>2016-10-07T16:01:08Z</time></trkpt>
<trkpt lat="29.691499" lon="98.390608">
<time>2016-10-07T16:01:09Z</time></trkpt>
<trkpt lat="29.691509" lon="98.390488">
<time>2016-10-07T16:01:10Z</time></trkpt>
<trkpt lat="29.69155" lon="98.390298">
<time>2016-10-07T16:01:11Z</time></trkpt>
<trkpt lat="29.69159" lon="98.390088">
<time>2016-10-07T16:01:12Z</time></trkpt>
<trkpt lat="29.6916" lon="98.389928">
<time>2016-10-07T16:01:13Z</time></trkpt>
<trkpt lat="29.69161" lon="98.389658">
<time>2016-10-07T16:01:14Z</time></trkpt>
<trkpt lat="29.69161" lon="98.389309">
<time>2016-10-07T16:01:15Z</time></trkpt>
<trkpt lat="29.6916" lon="98.388929">
<time>2016-10-07T16:01:16Z</time></trkpt>
<trkpt lat="29.69159" lon="98.388789">
<time>2016-10-07T16:01:17Z</time></trkpt>
<trkpt lat="29.69157" lon="98.388679">
<time>2016-10-07T16:01:18Z</time></trkpt>
<trkpt lat="29.69153" lon="98.388589">
<time>2016-10-07T16:01:19Z</time></trkpt>
<trkpt lat="29.69149" lon="98.388519">
<time>2016-10-07T16:01:20Z</time></trkpt>
<trkpt lat="29.691391" lon="98.388419">
<time>2016-10-07T16:01:21Z</time></trkpt>
<trkpt lat="29.691191" lon="98.38824">
<time>2016-10-07T16:01:22Z</time></trkpt>
<trkpt lat="29.691021" lon="98.38808">
<time>2016-10-07T16:01:23Z</time></trkpt>
<trkpt lat="29.690901" lon="98.38796">
<time>2016-10-07T16:01:24Z</time></trkpt>
<trkpt lat="29.690751" lon="98.38778">
<time>2016-10-07T16:01:25Z</time></trkpt>
<trkpt lat="29.690671" lon="98.38766">
<time>2016-10-07T16:01:26Z</time></trkpt>
<trkpt lat="29.690611" lon="98.38755">
<time>2016-10-07T16:01:27Z</time></trkpt>
<trkpt lat="29.690571" lon="98.38744">
<time>2016-10-07T16:01:28Z</time></trkpt>
<trkpt lat="29.690541" lon="98.38732">
<time>2016-10-07T16:01:29Z</time></trkpt>
<trkpt lat="29.690481" lon="98.387071">
<time>2016-10-07T16:01:30Z</time></trkpt>
<trkpt lat="29.690402" lon="98.386741">
<time>2016-10-07T16:01:31Z</time></trkpt>
<trkpt lat="29.690322" lon="98.386411">
<time>2016-10-07T16:01:32Z</time></trkpt>
<trkpt lat="29.690252" lon="98.386101">
<time>2016-10-07T16:01:33Z</time></trkpt>
<trkpt lat="29.690202" lon="98.385962">
<time>2016-10-07T16:01:34Z</time></trkpt>
<trkpt lat="29.690172" lon="98.385872">
<time>2016-10-07T16:01:35Z</time></trkpt>
<trkpt lat="29.690122" lon="98.385752">
<time>2016-10-07T16:01:36Z</time></trkpt>
<trkpt lat="29.690013" lon="98.385522">
<time>2016-10-07T16:01:37Z</time></trkpt>
<trkpt lat="29.689833" lon="98.385162">
<time>2016-10-07T16:01:38Z</time></trkpt>
<trkpt lat="29.689733" lon="98.384973">
<time>2016-10-07T16:01:39Z</time></trkpt>
<trkpt lat="29.689663" lon="98.384843">
<time>2016-10-07T16:01:40Z</time></trkpt>
<trkpt lat="29.689583" lon="98.384723">
<time>2016-10-07T16:01:41Z</time></trkpt>
<trkpt lat="29.689523" lon="98.384643">
<time>2016-10-07T16:01:42Z</time></trkpt>
<trkpt lat="29.689443" lon="98.384563">
<time>2016-10-07T16:01:43Z</time></trkpt>
<trkpt lat="29.689383" lon="98.384513">
<time>2016-10-07T16:01:44Z</time></trkpt>
<trkpt lat="29.689303" lon="98.384463">
<time>2016-10-07T16:01:45Z</time></trkpt>
<trkpt lat="29.689194" lon="98.384413">
<time>2016-10-07T16:01:46Z</time></trkpt>
<trkpt lat="29.689104" lon="98.384363">
<time>2016-10-07T16:01:47Z</time></trkpt>
<trkpt lat="29.689034" lon="98.384313">
<time>2016-10-07T16:01:48Z</time></trkpt>
<trkpt lat="29.688964" lon="98.384263">
<time>2016-10-07T16:01:49Z</time></trkpt>
<trkpt lat="29.688914" lon="98.384213">
<time>2016-10-07T16:01:50Z</time></trkpt>
<trkpt lat="29.688844" lon="98.384143">
<time>2016-10-07T16:01:51Z</time></trkpt>
<trkpt lat="29.688794" lon="98.384064">
<time>2016-10-07T16:01:52Z</time></trkpt>
<trkpt lat="29.688734" lon="98.383964">
<time>2016-10-07T16:01:53Z</time></trkpt>
<trkpt lat="29.688694" lon="98.383874">
<time>2016-10-07T16:01:54Z</time></trkpt>
<trkpt lat="29.688654" lon="98.383774">
<time>2016-10-07T16:01:55Z</time></trkpt>
<trkpt lat="29.688604" lon="98.383664">
<time>2016-10-07T16:01:56Z</time></trkpt>
<trkpt lat="29.688544" lon="98.383564">
<time>2016-10-07T16:01:57Z</time></trkpt>
<trkpt lat="29.688474" lon="98.383484">
<time>2016-10-07T16:01:58Z</time></trkpt>
<trkpt lat="29.688404" lon="98.383414">
<time>2016-10-07T16:01:59Z</time></trkpt>
<trkpt lat="29.688295" lon="98.383304">
<time>2016-10-07T16:02:00Z</time></trkpt>
<trkpt lat="29.688195" lon="98.383204">
<time>2016-10-07T16:02:01Z</time></trkpt>
<trkpt lat="29.688135" lon="98.383124">
<time>2016-10-07T16:02:02Z</time></trkpt>
<trkpt lat="29.688065" lon="98.383025">
<time>2016-10-07T16:02:03Z</time></trkpt>
<trkpt lat="29.688015" lon="98.382935">
<time>2016-10-07T16:02:04Z</time></trkpt>
<trkpt lat="29.687975" lon="98.382845">
<time>2016-10-07T16:02:05Z</time></trkpt>
<trkpt lat="29.687955" lon="98.382765">
<time>2016-10-07T16:02:06Z</time></trkpt>
<trkpt lat="29.687935" lon="98.382685">
<time>2016-10-07T16:02:07Z</time></trkpt>
<trkpt lat="29.687935" lon="98.382595">
<time>2016-10-07T16:02:08Z</time></trkpt>
<trkpt lat="29.687935" lon="98.382525">
<time>2016-10-07T16:02:09Z</time></trkpt>
<trkpt lat="29.687945" lon="98.382465">
<time>2016-10-07T16:02:10Z</time></trkpt>
<trkpt lat="29.687985" lon="98.382365">
<time>2016-10-07T16:02:11Z</time></trkpt>
<trkpt lat="29.688025" lon="98.382305">
<time>2016-10-07T16:02:12Z</time></trkpt>
<trkpt lat="29.688055" lon="98.382265">
<time>2016-10-07T16:02:13Z</time></trkpt>
<trkpt lat="29.688105" lon="98.382235">
<time>2016-10-07T16:02:14Z</time></trkpt>
<trkpt lat="29.688155" lon="98.382215">
<time>2016-10-07T16:02:15Z</time></trkpt>
<trkpt lat="29.688205" lon="98.382205">
<time>2016-10-07T16:02:16Z</time></trkpt>
<trkpt lat="29.688265" lon="98.382195">
<time>2016-10-07T16:02:17Z</time></trkpt>
<trkpt lat="29.688365" lon="98.382195">
<time>2016-10-07T16:02:18Z</time></trkpt>
<trkpt lat="29.688495" lon="98.382195">
<time>2016-10-07T16:02:19Z</time></trkpt>
<trkpt lat="29.688665" lon="98.382205">
<time>2016-10-07T16:02:20Z</time></trkpt>
<trkpt lat="29.688795" lon="98.382205">
<time>2016-10-07T16:02:21Z</time></trkpt>
<trkpt lat="29.688895" lon="98.382205">
<time>2016-10-07T16:02:22Z</time></trkpt>
<trkpt lat="29.688945" lon="98.382195">
<time>2016-10-07T16:02:23Z</time></trkpt>
<trkpt lat="29.688985" lon="98.382176">
<time>2016-10-07T16:02:24Z</time></trkpt>
<trkpt lat="29.689015" lon="98.382156">
<time>2016-10-07T16:02:25Z</time></trkpt>
<trkpt lat="29.689055" lon="98.382116">
<time>2016-10-07T16:02:26Z</time></trkpt>
<trkpt lat="29.689075" lon="98.382076">
<time>2016-10-07T16:02:27Z</time></trkpt>
<trkpt lat="29.689095" lon="98.382016">
<time>2016-10-07T16:02:28Z</time></trkpt>
<trkpt lat="29.689095" lon="98.381946">
<time>2016-10-07T16:02:29Z</time></trkpt>
<trkpt lat="29.689106" lon="98.381836">
<time>2016-10-07T16:02:30Z</time></trkpt>
<trkpt lat="29.689106" lon="98.381756">
<time>2016-10-07T16:02:31Z</time></trkpt>
<trkpt lat="29.689106" lon="98.381676">
<time>2016-10-07T16:02:32Z</time></trkpt>
<trkpt lat="29.689096" lon="98.381616">
<time>2016-10-07T16:02:33Z</time></trkpt>
<trkpt lat="29.689066" lon="98.381556">
<time>2016-10-07T16:02:34Z</time></trkpt>
<trkpt lat="29.689036" lon="98.381516">
<time>2016-10-07T16:02:35Z</time></trkpt>
<trkpt lat="29.688986" lon="98.381486">
<time>2016-10-07T16:02:36Z</time></trkpt>
<trkpt lat="29.688946" lon="98.381466">
<time>2016-10-07T16:02:37Z</time></trkpt>
<trkpt lat="29.688896" lon="98.381446">
<time>2016-10-07T16:02:38Z</time></trkpt>
<trkpt lat="29.688846" lon="98.381436">
<time>2016-10-07T16:02:39Z</time></trkpt>
<trkpt lat="29.688756" lon="98.381446">
<time>2016-10-07T16:02:40Z</time></trkpt>
<trkpt lat="29.688566" lon="98.381466">
<time>2016-10-07T16:02:41Z</time></trkpt>
<trkpt lat="29.688236" lon="98.381506">
<time>2016-10-07T16:02:42Z</time></trkpt>
<trkpt lat="29.688106" lon="98.381526">
<time>2016-10-07T16:02:43Z</time></trkpt>
<trkpt lat="29.688026" lon="98.381526">
<time>2016-10-07T16:02:44Z</time></trkpt>
<trkpt lat="29.687946" lon="98.381526">
<time>2016-10-07T16:02:45Z</time></trkpt>
<trkpt lat="29.687856" lon="98.381506">
<time>2016-10-07T16:02:46Z</time></trkpt>
<trkpt lat="29.687786" lon="98.381496">
<time>2016-10-07T16:02:47Z</time></trkpt>
<trkpt lat="29.687546" lon="98.381406">
<time>2016-10-07T16:02:48Z</time></trkpt>
<trkpt lat="29.687346" lon="98.381316">
<time>2016-10-07T16:02:49Z</time></trkpt>
<trkpt lat="29.687146" lon="98.381217">
<time>2016-10-07T16:02:50Z</time></trkpt>
<trkpt lat="29.686957" lon="98.381117">
<time>2016-10-07T16:02:51Z</time></trkpt>
<trkpt lat="29.686787" lon="98.381017">
<time>2016-10-07T16:02:52Z</time></trkpt>
<trkpt lat="29.686657" lon="98.380927">
<time>2016-10-07T16:02:53Z</time></trkpt>
<trkpt lat="29.686507" lon="98.380817">
<time>2016-10-07T16:02:54Z</time></trkpt>
<trkpt lat="29.686367" lon="98.380717">
<time>2016-10-07T16:02:55Z</time></trkpt>
<trkpt lat="29.686237" lon="98.380637">
<time>2016-10-07T16:02:56Z</time></trkpt>
<trkpt lat="29.686087" lon="98.380567">
<time>2016-10-07T16:02:57Z</time></trkpt>
<trkpt lat="29.685927" lon="98.380507">
<time>2016-10-07T16:02:58Z</time></trkpt>
<trkpt lat="29.685787" lon="98.380448">
<time>2016-10-07T16:02:59Z</time></trkpt>
<trkpt lat="29.685667" lon="98.380398">
<time>2016-10-07T16:03:00Z</time></trkpt>
<trkpt lat="29.685597" lon="98.380368">
<time>2016-10-07T16:03:01Z</time></trkpt>
<trkpt lat="29.685518" lon="98.380308">
<time>2016-10-07T16:03:02Z</time></trkpt>
<trkpt lat="29.685448" lon="98.380238">
<time>2016-10-07T16:03:03Z</time></trkpt>
<trkpt lat="29.685348" lon="98.380128">
<time>2016-10-07T16:03:04Z</time></trkpt>
<trkpt lat="29.685248" lon="98.379998">
<time>2016-10-07T16:03:05Z</time></trkpt>
<trkpt lat="29.685148" lon="98.379848">
<time>2016-10-07T16:03:06Z</time></trkpt>
<trkpt lat="29.685068" lon="98.379748">
<time>2016-10-07T16:03:07Z</time></trkpt>
<trkpt lat="29.684978" lon="98.379629">
<time>2016-10-07T16:03:08Z</time></trkpt>
<trkpt lat="29.684888" lon="98.379539">
<time>2016-10-07T16:03:09Z</time></trkpt>
<trkpt lat="29.684788" lon="98.379449">
<time>2016-10-07T16:03:10Z</time></trkpt>
<trkpt lat="29.684689" lon="98.379379">
<time>2016-10-07T16:03:11Z</time></trkpt>
<trkpt lat="29.684559" lon="98.379299">
<time>2016-10-07T16:03:12Z</time></trkpt>
<trkpt lat="29.684309" lon="98.379159">
<time>2016-10-07T16:03:13Z</time></trkpt>
<trkpt lat="29.684089" lon="98.379029">
<time>2016-10-07T16:03:14Z</time></trkpt>
<trkpt lat="29.683879" lon="98.378889">
<time>2016-10-07T16:03:15Z</time></trkpt>
<trkpt lat="29.683619" lon="98.37871">
<time>2016-10-07T16:03:16Z</time></trkpt>
<trkpt lat="29.68342" lon="98.37856">
<time>2016-10-07T16:03:17Z</time></trkpt>
<trkpt lat="29.68328" lon="98.37846">
<time>2016-10-07T16:03:18Z</time></trkpt>
<trkpt lat="29.68314" lon="98.37838">
<time>2016-10-07T16:03:19Z</time></trkpt>
<trkpt lat="29.68301" lon="98.37832">
<time>2016-10-07T16:03:20Z</time></trkpt>
<trkpt lat="29.68285" lon="98.37825">
<time>2016-10-07T16:03:21Z</time></trkpt>
<trkpt lat="29.68271" lon="98.37819">
<time>2016-10-07T16:03:22Z</time></trkpt>
<trkpt lat="29.68258" lon="98.37812">
<time>2016-10-07T16:03:23Z</time></trkpt>
<trkpt lat="29.68247" lon="98.378031">
<time>2016-10-07T16:03:24Z</time></trkpt>
<trkpt lat="29.68234" lon="98.377941">
<time>2016-10-07T16:03:25Z</time></trkpt>
<trkpt lat="29.68221" lon="98.377851">
<time>2016-10-07T16:03:26Z</time></trkpt>
<trkpt lat="29.682021" lon="98.377701">
<time>2016-10-07T16:03:27Z</time></trkpt>
<trkpt lat="29.681811" lon="98.377541">
<time>2016-10-07T16:03:28Z</time></trkpt>
<trkpt lat="29.681731" lon="98.377481">
<time>2016-10-07T16:03:29Z</time></trkpt>
<trkpt lat="29.681701" lon="98.377441">
<time>2016-10-07T16:03:30Z</time></trkpt>
<trkpt lat="29.681671" lon="98.377401">
<time>2016-10-07T16:03:31Z</time></trkpt>
<trkpt lat="29.681651" lon="98.377341">
<time>2016-10-07T16:03:32Z</time></trkpt>
<trkpt lat="29.681631" lon="98.377291">
<time>2016-10-07T16:03:33Z</time></trkpt>
<trkpt lat="29.681601" lon="98.377142">
<time>2016-10-07T16:03:34Z</time></trkpt>
<trkpt lat="29.681571" lon="98.377012">
<time>2016-10-07T16:03:35Z</time></trkpt>
<trkpt lat="29.681542" lon="98.376882">
<time>2016-10-07T16:03:36Z</time></trkpt>
<trkpt lat="29.681522" lon="98.376802">
<time>2016-10-07T16:03:37Z</time></trkpt>
<trkpt lat="29.681492" lon="98.376742">
<time>2016-10-07T16:03:38Z</time></trkpt>
<trkpt lat="29.681472" lon="98.376702">
<time>2016-10-07T16:03:39Z</time></trkpt>
<trkpt lat="29.681442" lon="98.376672">
<time>2016-10-07T16:03:40Z</time></trkpt>
<trkpt lat="29.681402" lon="98.376652">
<time>2016-10-07T16:03:41Z</time></trkpt>
<trkpt lat="29.681362" lon="98.376642">
<time>2016-10-07T16:03:42Z</time></trkpt>
<trkpt lat="29.681322" lon="98.376662">
<time>2016-10-07T16:03:43Z</time></trkpt>
<trkpt lat="29.681292" lon="98.376672">
<time>2016-10-07T16:03:44Z</time></trkpt>
<trkpt lat="29.681252" lon="98.376712">
<time>2016-10-07T16:03:45Z</time></trkpt>
<trkpt lat="29.681232" lon="98.376752">
<time>2016-10-07T16:03:46Z</time></trkpt>
<trkpt lat="29.681222" lon="98.376792">
<time>2016-10-07T16:03:47Z</time></trkpt>
<trkpt lat="29.681222" lon="98.376842">
<time>2016-10-07T16:03:48Z</time></trkpt>
<trkpt lat="29.681232" lon="98.376922">
<time>2016-10-07T16:03:49Z</time></trkpt>
<trkpt lat="29.681252" lon="98.377012">
<time>2016-10-07T16:03:50Z</time></trkpt>
<trkpt lat="29.681311" lon="98.377172">
<time>2016-10-07T16:03:51Z</time></trkpt>
<trkpt lat="29.681351" lon="98.377272">
<time>2016-10-07T16:03:52Z</time></trkpt>
<trkpt lat="29.681381" lon="98.377351">
<time>2016-10-07T16:03:53Z</time></trkpt>
<trkpt lat="29.681431" lon="98.377421">
<time>2016-10-07T16:03:54Z</time></trkpt>
<trkpt lat="29.681481" lon="98.377481">
<time>2016-10-07T16:03:55Z</time></trkpt>
<trkpt lat="29.681541" lon="98.377541">
<time>2016-10-07T16:03:56Z</time></trkpt>
<trkpt lat="29.681661" lon="98.377631">
<time>2016-10-07T16:03:57Z</time></trkpt>
<trkpt lat="29.681781" lon="98.377731">
<time>2016-10-07T16:03:58Z</time></trkpt>
<trkpt lat="29.681941" lon="98.377861">
<time>2016-10-07T16:03:59Z</time></trkpt>
<trkpt lat="29.68207" lon="98.377971">
<time>2016-10-07T16:04:00Z</time></trkpt>
<trkpt lat="29.68218" lon="98.37808">
<time>2016-10-07T16:04:01Z</time></trkpt>
<trkpt lat="29.68228" lon="98.3782">
<time>2016-10-07T16:04:02Z</time></trkpt>
<trkpt lat="29.68237" lon="98.37832">
<time>2016-10-07T16:04:03Z</time></trkpt>
<trkpt lat="29.68246" lon="98.37846">
<time>2016-10-07T16:04:04Z</time></trkpt>
<trkpt lat="29.68253" lon="98.37855">
<time>2016-10-07T16:04:05Z</time></trkpt>
<trkpt lat="29.68257" lon="98.37862">
<time>2016-10-07T16:04:06Z</time></trkpt>
<trkpt lat="29.68259" lon="98.37867">
<time>2016-10-07T16:04:07Z</time></trkpt>
<trkpt lat="29.6826" lon="98.37872">
<time>2016-10-07T16:04:08Z</time></trkpt>
<trkpt lat="29.68259" lon="98.37876">
<time>2016-10-07T16:04:09Z</time></trkpt>
<trkpt lat="29.68258" lon="98.37881">
<time>2016-10-07T16:04:10Z</time></trkpt>
<trkpt lat="29.682549" lon="98.37884">
<time>2016-10-07T16:04:11Z</time></trkpt>
<trkpt lat="29.682509" lon="98.378869">
<time>2016-10-07T16:04:12Z</time></trkpt>
<trkpt lat="29.682459" lon="98.378879">
<time>2016-10-07T16:04:13Z</time></trkpt>
<trkpt lat="29.682419" lon="98.378889">
<time>2016-10-07T16:04:14Z</time></trkpt>
<trkpt lat="29.682379" lon="98.378879">
<time>2016-10-07T16:04:15Z</time></trkpt>
<trkpt lat="29.68234" lon="98.37886">
<time>2016-10-07T16:04:16Z</time></trkpt>
<trkpt lat="29.68231" lon="98.37883">
<time>2016-10-07T16:04:17Z</time></trkpt>
<trkpt lat="29.68228" lon="98.37878">
<time>2016-10-07T16:04:18Z</time></trkpt>
<trkpt lat="29.68225" lon="98.37872">
<time>2016-10-07T16:04:19Z</time></trkpt>
<trkpt lat="29.68221" lon="98.37863">
<time>2016-10-07T16:04:20Z</time></trkpt>
<trkpt lat="29.68217" lon="98.37852">
<time>2016-10-07T16:04:21Z</time></trkpt>
<trkpt lat="29.68212" lon="98.37842">
<time>2016-10-07T16:04:22Z</time></trkpt>
<trkpt lat="29.68207" lon="98.37833">
<time>2016-10-07T16:04:23Z</time></trkpt>
<trkpt lat="29.68202" lon="98.37825">
<time>2016-10-07T16:04:24Z</time></trkpt>
<trkpt lat="29.68195" lon="98.37817">
<time>2016-10-07T16:04:25Z</time></trkpt>
<trkpt lat="29.68187" lon="98.37808">
<time>2016-10-07T16:04:26Z</time></trkpt>
<trkpt lat="29.68176" lon="98.377971">
<time>2016-10-07T16:04:27Z</time></trkpt>
<trkpt lat="29.681521" lon="98.377791">
<time>2016-10-07T16:04:28Z</time></trkpt>
<trkpt lat="29.681251" lon="98.377591">
<time>2016-10-07T16:04:29Z</time></trkpt>
<trkpt lat="29.681021" lon="98.377431">
<time>2016-10-07T16:04:30Z</time></trkpt>
<trkpt lat="29.680801" lon="98.377252">
<time>2016-10-07T16:04:31Z</time></trkpt>
<trkpt lat="29.680652" lon="98.377122">
<time>2016-10-07T16:04:32Z</time></trkpt>
<trkpt lat="29.680492" lon="98.376962">
<time>2016-10-07T16:04:33Z</time></trkpt>
<trkpt lat="29.680252" lon="98.376702">
<time>2016-10-07T16:04:34Z</time></trkpt>
<trkpt lat="29.680112" lon="98.376533">
<time>2016-10-07T16:04:35Z</time></trkpt>
<trkpt lat="29.679992" lon="98.376393">
<time>2016-10-07T16:04:36Z</time></trkpt>
<trkpt lat="29.679893" lon="98.376243">
<time>2016-10-07T16:04:37Z</time></trkpt>
<trkpt lat="29.679743" lon="98.376013">
<time>2016-10-07T16:04:38Z</time></trkpt>
<trkpt lat="29.679613" lon="98.375794">
<time>2016-10-07T16:04:39Z</time></trkpt>
<trkpt lat="29.679553" lon="98.375704">
<time>2016-10-07T16:04:40Z</time></trkpt>
<trkpt lat="29.679493" lon="98.375634">
<time>2016-10-07T16:04:41Z</time></trkpt>
<trkpt lat="29.679423" lon="98.375544">
<time>2016-10-07T16:04:42Z</time></trkpt>
<trkpt lat="29.679334" lon="98.375444">
<time>2016-10-07T16:04:43Z</time></trkpt>
<trkpt lat="29.679234" lon="98.375334">
<time>2016-10-07T16:04:44Z</time></trkpt>
<trkpt lat="29.679124" lon="98.375214">
<time>2016-10-07T16:04:45Z</time></trkpt>
<trkpt lat="29.679044" lon="98.375144">
<time>2016-10-07T16:04:46Z</time></trkpt>
<trkpt lat="29.678994" lon="98.375104">
<time>2016-10-07T16:04:47Z</time></trkpt>
<trkpt lat="29.678934" lon="98.375065">
<time>2016-10-07T16:04:48Z</time></trkpt>
<trkpt lat="29.678904" lon="98.375035">
<time>2016-10-07T16:04:49Z</time></trkpt>
<trkpt lat="29.678864" lon="98.375015">
<time>2016-10-07T16:04:50Z</time></trkpt>
<trkpt lat="29.678824" lon="98.375005">
<time>2016-10-07T16:04:51Z</time></trkpt>
<trkpt lat="29.678784" lon="98.374985">
<time>2016-10-07T16:04:52Z</time></trkpt>
<trkpt lat="29.678734" lon="98.374975">
<time>2016-10-07T16:04:53Z</time></trkpt>
<trkpt lat="29.678684" lon="98.374965">
<time>2016-10-07T16:04:54Z</time></trkpt>
<trkpt lat="29.678604" lon="98.374945">
<time>2016-10-07T16:04:55Z</time></trkpt>
<trkpt lat="29.678444" lon="98.374905">
<time>2016-10-07T16:04:56Z</time></trkpt>
<trkpt lat="29.678304" lon="98.374855">
<time>2016-10-07T16:04:57Z</time></trkpt>
<trkpt lat="29.678254" lon="98.374835">
<time>2016-10-07T16:04:58Z</time></trkpt>
<trkpt lat="29.678164" lon="98.374805">
<time>2016-10-07T16:04:59Z</time></trkpt>
<trkpt lat="29.678085" lon="98.374755">
<time>2016-10-07T16:05:00Z</time></trkpt>
<trkpt lat="29.678035" lon="98.374705">
<time>2016-10-07T16:05:01Z</time></trkpt>
<trkpt lat="29.677935" lon="98.374605">
<time>2016-10-07T16:05:02Z</time></trkpt>
<trkpt lat="29.677845" lon="98.374495">
<time>2016-10-07T16:05:03Z</time></trkpt>
<trkpt lat="29.677805" lon="98.374445">
<time>2016-10-07T16:05:04Z</time></trkpt>
<trkpt lat="29.677765" lon="98.374366">
<time>2016-10-07T16:05:05Z</time></trkpt>
<trkpt lat="29.677685" lon="98.374226">
<time>2016-10-07T16:05:06Z</time></trkpt>
<trkpt lat="29.677625" lon="98.374116">
<time>2016-10-07T16:05:07Z</time></trkpt>
<trkpt lat="29.677595" lon="98.374036">
<time>2016-10-07T16:05:08Z</time></trkpt>
<trkpt lat="29.677565" lon="98.373956">
<time>2016-10-07T16:05:09Z</time></trkpt>
<trkpt lat="29.677536" lon="98.373876">
<time>2016-10-07T16:05:10Z</time></trkpt>
<trkpt lat="29.677506" lon="98.373786">
<time>2016-10-07T16:05:11Z</time></trkpt>
<trkpt lat="29.677486" lon="98.373716">
<time>2016-10-07T16:05:12Z</time></trkpt>
<trkpt lat="29.677456" lon="98.373637">
<time>2016-10-07T16:05:13Z</time></trkpt>
<trkpt lat="29.677436" lon="98.373587">
<time>2016-10-07T16:05:14Z</time></trkpt>
<trkpt lat="29.677416" lon="98.373547">
<time>2016-10-07T16:05:15Z</time></trkpt>
<trkpt lat="29.677396" lon="98.373517">
<time>2016-10-07T16:05:16Z</time></trkpt>
<trkpt lat="29.677366" lon="98.373497">
<time>2016-10-07T16:05:17Z</time></trkpt>
<trkpt lat="29.677356" lon="98.373477">
<time>2016-10-07T16:05:18Z</time></trkpt>
<trkpt lat="29.677326" lon="98.373467">
<time>2016-10-07T16:05:19Z</time></trkpt>
<trkpt lat="29.677296" lon="98.373467">
<time>2016-10-07T16:05:20Z</time></trkpt>
<trkpt lat="29.677266" lon="98.373477">
<time>2016-10-07T16:05:21Z</time></trkpt>
<trkpt lat="29.677246" lon="98.373497">
<time>2016-10-07T16:05:22Z</time></trkpt>
<trkpt lat="29.677226" lon="98.373507">
<time>2016-10-07T16:05:23Z</time></trkpt>
<trkpt lat="29.677206" lon="98.373537">
<time>2016-10-07T16:05:24Z</time></trkpt>
<trkpt lat="29.677196" lon="98.373577">
<time>2016-10-07T16:05:25Z</time></trkpt>
<trkpt lat="29.677186" lon="98.373617">
<time>2016-10-07T16:05:26Z</time></trkpt>
<trkpt lat="29.677196" lon="98.373647">
<time>2016-10-07T16:05:27Z</time></trkpt>
<trkpt lat="29.677196" lon="98.373686">
<time>2016-10-07T16:05:28Z</time></trkpt>
<trkpt lat="29.677216" lon="98.373726">
<time>2016-10-07T16:05:29Z</time></trkpt>
<trkpt lat="29.677246" lon="98.373776">
<time>2016-10-07T16:05:30Z</time></trkpt>
<trkpt lat="29.677276" lon="98.373826">
<time>2016-10-07T16:05:31Z</time></trkpt>
<trkpt lat="29.677366" lon="98.373976">
<time>2016-10-07T16:05:32Z</time></trkpt>
<trkpt lat="29.677495" lon="98.374176">
<time>2016-10-07T16:05:33Z</time></trkpt>
<trkpt lat="29.677635" lon="98.374415">
<time>2016-10-07T16:05:34Z</time></trkpt>
<trkpt lat="29.677675" lon="98.374475">
<time>2016-10-07T16:05:35Z</time></trkpt>
<trkpt lat="29.677695" lon="98.374555">
<time>2016-10-07T16:05:36Z</time></trkpt>
<trkpt lat="29.677715" lon="98.374625">
<time>2016-10-07T16:05:37Z</time></trkpt>
<trkpt lat="29.677715" lon="98.374705">
<time>2016-10-07T16:05:38Z</time></trkpt>
<trkpt lat="29.677695" lon="98.374795">
<time>2016-10-07T16:05:39Z</time></trkpt>
<trkpt lat="29.677664" lon="98.374945">
<time>2016-10-07T16:05:40Z</time></trkpt>
<trkpt lat="29.677644" lon="98.375005">
<time>2016-10-07T16:05:41Z</time></trkpt>
<trkpt lat="29.677634" lon="98.375035">
<time>2016-10-07T16:05:42Z</time></trkpt>
<trkpt lat="29.677614" lon="98.375075">
<time>2016-10-07T16:05:43Z</time></trkpt>
<trkpt lat="29.677594" lon="98.375095">
<time>2016-10-07T16:05:44Z</time></trkpt>
<trkpt lat="29.677574" lon="98.375114">
<time>2016-10-07T16:05:45Z</time></trkpt>
<trkpt lat="29.677554" lon="98.375124">
<time>2016-10-07T16:05:46Z</time></trkpt>
<trkpt lat="29.677534" lon="98.375134">
<time>2016-10-07T16:05:47Z</time></trkpt>
<trkpt lat="29.677514" lon="98.375144">
<time>2016-10-07T16:05:48Z</time></trkpt>
<trkpt lat="29.677474" lon="98.375144">
<time>2016-10-07T16:05:49Z</time></trkpt>
<trkpt lat="29.677444" lon="98.375144">
<time>2016-10-07T16:05:50Z</time></trkpt>
<trkpt lat="29.677414" lon="98.375144">
<time>2016-10-07T16:05:51Z</time></trkpt>
<trkpt lat="29.677384" lon="98.375134">
<time>2016-10-07T16:05:52Z</time></trkpt>
<trkpt lat="29.677354" lon="98.375124">
<time>2016-10-07T16:05:53Z</time></trkpt>
<trkpt lat="29.677334" lon="98.375105">
<time>2016-10-07T16:05:54Z</time></trkpt>
<trkpt lat="29.677284" lon="98.375075">
<time>2016-10-07T16:05:55Z</time></trkpt>
<trkpt lat="29.677254" lon="98.375055">
<time>2016-10-07T16:05:56Z</time></trkpt>
<trkpt lat="29.677234" lon="98.375035">
<time>2016-10-07T16:05:57Z</time></trkpt>
<trkpt lat="29.677194" lon="98.374995">
<time>2016-10-07T16:05:58Z</time></trkpt>
<trkpt lat="29.677095" lon="98.374905">
<time>2016-10-07T16:05:59Z</time></trkpt>
<trkpt lat="29.676905" lon="98.374725">
<time>2016-10-07T16:06:00Z</time></trkpt>
<trkpt lat="29.676665" lon="98.374505">
<time>2016-10-07T16:06:01Z</time></trkpt>
<trkpt lat="29.676545" lon="98.374425">
<time>2016-10-07T16:06:02Z</time></trkpt>
<trkpt lat="29.676325" lon="98.374276">
<time>2016-10-07T16:06:03Z</time></trkpt>
<trkpt lat="29.676066" lon="98.374106">
<time>2016-10-07T16:06:04Z</time></trkpt>
<trkpt lat="29.675886" lon="98.373986">
<time>2016-10-07T16:06:05Z</time></trkpt>
<trkpt lat="29.675726" lon="98.373876">
<time>2016-10-07T16:06:06Z</time></trkpt>
<trkpt lat="29.675576" lon="98.373756">
<time>2016-10-07T16:06:07Z</time></trkpt>
<trkpt lat="29.675416" lon="98.373617">
<time>2016-10-07T16:06:08Z</time></trkpt>
<trkpt lat="29.675257" lon="98.373477">
<time>2016-10-07T16:06:09Z</time></trkpt>
<trkpt lat="29.675087" lon="98.373347">
<time>2016-10-07T16:06:10Z</time></trkpt>
<trkpt lat="29.674987" lon="98.373287">
<time>2016-10-07T16:06:11Z</time></trkpt>
<trkpt lat="29.674907" lon="98.373247">
<time>2016-10-07T16:06:12Z</time></trkpt>
<trkpt lat="29.674837" lon="98.373217">
<time>2016-10-07T16:06:13Z</time></trkpt>
<trkpt lat="29.674787" lon="98.373207">
<time>2016-10-07T16:06:14Z</time></trkpt>
<trkpt lat="29.674727" lon="98.373197">
<time>2016-10-07T16:06:15Z</time></trkpt>
<trkpt lat="29.674607" lon="98.373197">
<time>2016-10-07T16:06:16Z</time></trkpt>
<trkpt lat="29.674497" lon="98.373207">
<time>2016-10-07T16:06:17Z</time></trkpt>
<trkpt lat="29.674397" lon="98.373217">
<time>2016-10-07T16:06:18Z</time></trkpt>
<trkpt lat="29.674277" lon="98.373237">
<time>2016-10-07T16:06:19Z</time></trkpt>
<trkpt lat="29.674157" lon="98.373257">
<time>2016-10-07T16:06:20Z</time></trkpt>
<trkpt lat="29.674057" lon="98.373277">
<time>2016-10-07T16:06:21Z</time></trkpt>
<trkpt lat="29.673987" lon="98.373297">
<time>2016-10-07T16:06:22Z</time></trkpt>
<trkpt lat="29.673897" lon="98.373327">
<time>2016-10-07T16:06:23Z</time></trkpt>
<trkpt lat="29.673837" lon="98.373357">
<time>2016-10-07T16:06:24Z</time></trkpt>
<trkpt lat="29.673777" lon="98.373397">
<time>2016-10-07T16:06:25Z</time></trkpt>
<trkpt lat="29.673707" lon="98.373447">
<time>2016-10-07T16:06:26Z</time></trkpt>
<trkpt lat="29.673647" lon="98.373487">
<time>2016-10-07T16:06:27Z</time></trkpt>
<trkpt lat="29.673597" lon="98.373517">
<time>2016-10-07T16:06:28Z</time></trkpt>
<trkpt lat="29.673547" lon="98.373537">
<time>2016-10-07T16:06:29Z</time></trkpt>
<trkpt lat="29.673497" lon="98.373557">
<time>2016-10-07T16:06:30Z</time></trkpt>
<trkpt lat="29.673457" lon="98.373567">
<time>2016-10-07T16:06:31Z</time></trkpt>
<trkpt lat="29.673407" lon="98.373577">
<time>2016-10-07T16:06:32Z</time></trkpt>
<trkpt lat="29.673357" lon="98.373577">
<time>2016-10-07T16:06:33Z</time></trkpt>
<trkpt lat="29.673297" lon="98.373567">
<time>2016-10-07T16:06:34Z</time></trkpt>
<trkpt lat="29.673237" lon="98.373547">
<time>2016-10-07T16:06:35Z</time></trkpt>
<trkpt lat="29.673037" lon="98.373477">
<time>2016-10-07T16:06:36Z</time></trkpt>
<trkpt lat="29.672907" lon="98.373437">
<time>2016-10-07T16:06:37Z</time></trkpt>
<trkpt lat="29.672757" lon="98.373407">
<time>2016-10-07T16:06:38Z</time></trkpt>
<trkpt lat="29.672637" lon="98.373387">
<time>2016-10-07T16:06:39Z</time></trkpt>
<trkpt lat="29.672467" lon="98.373347">
<time>2016-10-07T16:06:40Z</time></trkpt>
<trkpt lat="29.672407" lon="98.373337">
<time>2016-10-07T16:06:41Z</time></trkpt>
<trkpt lat="29.672367" lon="98.373317">
<time>2016-10-07T16:06:42Z</time></trkpt>
<trkpt lat="29.672327" lon="98.373297">
<time>2016-10-07T16:06:43Z</time></trkpt>
<trkpt lat="29.672307" lon="98.373277">
<time>2016-10-07T16:06:44Z</time></trkpt>
<trkpt lat="29.672277" lon="98.373247">
<time>2016-10-07T16:06:45Z</time></trkpt>
<trkpt lat="29.672267" lon="98.373207">
<time>2016-10-07T16:06:46Z</time></trkpt>
<trkpt lat="29.672257" lon="98.373177">
<time>2016-10-07T16:06:47Z</time></trkpt>
<trkpt lat="29.672258" lon="98.373137">
<time>2016-10-07T16:06:48Z</time></trkpt>
<trkpt lat="29.672268" lon="98.373097">
<time>2016-10-07T16:06:49Z</time></trkpt>
<trkpt lat="29.672288" lon="98.373067">
<time>2016-10-07T16:06:50Z</time></trkpt>
<trkpt lat="29.672318" lon="98.373048">
<time>2016-10-07T16:06:51Z</time></trkpt>
<trkpt lat="29.672348" lon="98.373028">
<time>2016-10-07T16:06:52Z</time></trkpt>
<trkpt lat="29.672378" lon="98.373028">
<time>2016-10-07T16:06:53Z</time></trkpt>
<trkpt lat="29.672408" lon="98.373018">
<time>2016-10-07T16:06:54Z</time></trkpt>
<trkpt lat="29.672458" lon="98.373018">
<time>2016-10-07T16:06:55Z</time></trkpt>
<trkpt lat="29.672658" lon="98.373048">
<time>2016-10-07T16:06:56Z</time></trkpt>
<trkpt lat="29.672768" lon="98.373048">
<time>2016-10-07T16:06:57Z</time></trkpt>
<trkpt lat="29.672887" lon="98.373057">
<time>2016-10-07T16:06:58Z</time></trkpt>
<trkpt lat="29.673097" lon="98.373087">
<time>2016-10-07T16:06:59Z</time></trkpt>
<trkpt lat="29.673257" lon="98.373107">
<time>2016-10-07T16:07:00Z</time></trkpt>
<trkpt lat="29.673347" lon="98.373117">
<time>2016-10-07T16:07:01Z</time></trkpt>
<trkpt lat="29.673407" lon="98.373127">
<time>2016-10-07T16:07:02Z</time></trkpt>
<trkpt lat="29.673457" lon="98.373127">
<time>2016-10-07T16:07:03Z</time></trkpt>
<trkpt lat="29.673507" lon="98.373117">
<time>2016-10-07T16:07:04Z</time></trkpt>
<trkpt lat="29.673557" lon="98.373107">
<time>2016-10-07T16:07:05Z</time></trkpt>
<trkpt lat="29.673587" lon="98.373087">
<time>2016-10-07T16:07:06Z</time></trkpt>
<trkpt lat="29.673617" lon="98.373067">
<time>2016-10-07T16:07:07Z</time></trkpt>
<trkpt lat="29.673647" lon="98.373037">
<time>2016-10-07T16:07:08Z</time></trkpt>
<trkpt lat="29.673667" lon="98.373008">
<time>2016-10-07T16:07:09Z</time></trkpt>
<trkpt lat="29.673687" lon="98.372978">
<time>2016-10-07T16:07:10Z</time></trkpt>
<trkpt lat="29.673697" lon="98.372938">
<time>2016-10-07T16:07:11Z</time></trkpt>
<trkpt lat="29.673697" lon="98.372898">
<time>2016-10-07T16:07:12Z</time></trkpt>
<trkpt lat="29.673698" lon="98.372858">
<time>2016-10-07T16:07:13Z</time></trkpt>
<trkpt lat="29.673678" lon="98.372818">
<time>2016-10-07T16:07:14Z</time></trkpt>
<trkpt lat="29.673658" lon="98.372788">
<time>2016-10-07T16:07:15Z</time></trkpt>
<trkpt lat="29.673638" lon="98.372768">
<time>2016-10-07T16:07:16Z</time></trkpt>
<trkpt lat="29.673608" lon="98.372748">
<time>2016-10-07T16:07:17Z</time></trkpt>
<trkpt lat="29.673568" lon="98.372738">
<time>2016-10-07T16:07:18Z</time></trkpt>
<trkpt lat="29.673518" lon="98.372728">
<time>2016-10-07T16:07:19Z</time></trkpt>
<trkpt lat="29.673428" lon="98.372728">
<time>2016-10-07T16:07:20Z</time></trkpt>
<trkpt lat="29.673268" lon="98.372728">
<time>2016-10-07T16:07:21Z</time></trkpt>
<trkpt lat="29.673068" lon="98.372738">
<time>2016-10-07T16:07:22Z</time></trkpt>
<trkpt lat="29.672848" lon="98.372738">
<time>2016-10-07T16:07:23Z</time></trkpt>
<trkpt lat="29.672608" lon="98.372748">
<time>2016-10-07T16:07:24Z</time></trkpt>
<trkpt lat="29.672418" lon="98.372758">
<time>2016-10-07T16:07:25Z</time></trkpt>
<trkpt lat="29.672298" lon="98.372758">
<time>2016-10-07T16:07:26Z</time></trkpt>
<trkpt lat="29.672128" lon="98.372748">
<time>2016-10-07T16:07:27Z</time></trkpt>
<trkpt lat="29.671988" lon="98.372738">
<time>2016-10-07T16:07:28Z</time></trkpt>
<trkpt lat="29.671848" lon="98.372718">
<time>2016-10-07T16:07:29Z</time></trkpt>
<trkpt lat="29.671678" lon="98.372688">
<time>2016-10-07T16:07:30Z</time></trkpt>
<trkpt lat="29.671508" lon="98.372638">
<time>2016-10-07T16:07:31Z</time></trkpt>
<trkpt lat="29.671348" lon="98.372588">
<time>2016-10-07T16:07:32Z</time></trkpt>
<trkpt lat="29.671158" lon="98.372518">
<time>2016-10-07T16:07:33Z</time></trkpt>
<trkpt lat="29.670999" lon="98.372448">
<time>2016-10-07T16:07:34Z</time></trkpt>
<trkpt lat="29.670889" lon="98.372389">
<time>2016-10-07T16:07:35Z</time></trkpt>
<trkpt lat="29.670759" lon="98.372299">
<time>2016-10-07T16:07:36Z</time></trkpt>
<trkpt lat="29.670659" lon="98.372199">
<time>2016-10-07T16:07:37Z</time></trkpt>
<trkpt lat="29.670559" lon="98.372089">
<time>2016-10-07T16:07:38Z</time></trkpt>
<trkpt lat="29.670459" lon="98.371969">
<time>2016-10-07T16:07:39Z</time></trkpt>
<trkpt lat="29.670369" lon="98.371879">
<time>2016-10-07T16:07:40Z</time></trkpt>
<trkpt lat="29.670289" lon="98.371819">
<time>2016-10-07T16:07:41Z</time></trkpt>
<trkpt lat="29.67019" lon="98.371749">
<time>2016-10-07T16:07:42Z</time></trkpt>
<trkpt lat="29.67007" lon="98.37169">
<time>2016-10-07T16:07:43Z</time></trkpt>
<trkpt lat="29.66997" lon="98.37165">
<time>2016-10-07T16:07:44Z</time></trkpt>
<trkpt lat="29.66985" lon="98.37162">
<time>2016-10-07T16:07:45Z</time></trkpt>
<trkpt lat="29.66977" lon="98.3716">
<time>2016-10-07T16:07:46Z</time></trkpt>
<trkpt lat="29.66969" lon="98.3716">
<time>2016-10-07T16:07:47Z</time></trkpt>
<trkpt lat="29.66963" lon="98.3716">
<time>2016-10-07T16:07:48Z</time></trkpt>
<trkpt lat="29.66956" lon="98.3716">
<time>2016-10-07T16:07:49Z</time></trkpt>
<trkpt lat="29.66948" lon="98.37162">
<time>2016-10-07T16:07:50Z</time></trkpt>
<trkpt lat="29.66939" lon="98.37163">
<time>2016-10-07T16:07:51Z</time></trkpt>
<trkpt lat="29.66926" lon="98.37166">
<time>2016-10-07T16:07:52Z</time></trkpt>
<trkpt lat="29.66913" lon="98.37168">
<time>2016-10-07T16:07:53Z</time></trkpt>
<trkpt lat="29.66901" lon="98.3717">
<time>2016-10-07T16:07:54Z</time></trkpt>
<trkpt lat="29.66892" lon="98.37171">
<time>2016-10-07T16:07:55Z</time></trkpt>
<trkpt lat="29.66872" lon="98.37172">
<time>2016-10-07T16:07:56Z</time></trkpt>
<trkpt lat="29.66861" lon="98.37172">
<time>2016-10-07T16:07:57Z</time></trkpt>
<trkpt lat="29.66837" lon="98.37171">
<time>2016-10-07T16:07:58Z</time></trkpt>
<trkpt lat="29.66827" lon="98.37171">
<time>2016-10-07T16:07:59Z</time></trkpt>
<trkpt lat="29.66814" lon="98.37171">
<time>2016-10-07T16:08:00Z</time></trkpt>
<trkpt lat="29.66795" lon="98.37171">
<time>2016-10-07T16:08:01Z</time></trkpt>
<trkpt lat="29.66775" lon="98.3717">
<time>2016-10-07T16:08:02Z</time></trkpt>
<trkpt lat="29.66756" lon="98.3717">
<time>2016-10-07T16:08:03Z</time></trkpt>
<trkpt lat="29.66728" lon="98.37169">
<time>2016-10-07T16:08:04Z</time></trkpt>
<trkpt lat="29.66718" lon="98.37169">
<time>2016-10-07T16:08:05Z</time></trkpt>
<trkpt lat="29.66708" lon="98.37168">
<time>2016-10-07T16:08:06Z</time></trkpt>
<trkpt lat="29.66694" lon="98.37167">
<time>2016-10-07T16:08:07Z</time></trkpt>
<trkpt lat="29.66679" lon="98.37164">
<time>2016-10-07T16:08:08Z</time></trkpt>
<trkpt lat="29.666701" lon="98.37162">
<time>2016-10-07T16:08:09Z</time></trkpt>
<trkpt lat="29.666581" lon="98.37159">
<time>2016-10-07T16:08:10Z</time></trkpt>
<trkpt lat="29.666461" lon="98.37155">
<time>2016-10-07T16:08:11Z</time></trkpt>
<trkpt lat="29.666361" lon="98.37152">
<time>2016-10-07T16:08:12Z</time></trkpt>
<trkpt lat="29.666191" lon="98.37144">
<time>2016-10-07T16:08:13Z</time></trkpt>
<trkpt lat="29.665921" lon="98.3713">
<time>2016-10-07T16:08:14Z</time></trkpt>
<trkpt lat="29.665641" lon="98.371121">
<time>2016-10-07T16:08:15Z</time></trkpt>
<trkpt lat="29.665142" lon="98.370761">
<time>2016-10-07T16:08:16Z</time></trkpt>
<trkpt lat="29.664553" lon="98.370312">
<time>2016-10-07T16:08:17Z</time></trkpt>
<trkpt lat="29.664373" lon="98.370192">
<time>2016-10-07T16:08:18Z</time></trkpt>
<trkpt lat="29.664193" lon="98.370102">
<time>2016-10-07T16:08:19Z</time></trkpt>
<trkpt lat="29.663823" lon="98.369942">
<time>2016-10-07T16:08:20Z</time></trkpt>
<trkpt lat="29.663543" lon="98.369833">
<time>2016-10-07T16:08:21Z</time></trkpt>
<trkpt lat="29.663373" lon="98.369773">
<time>2016-10-07T16:08:22Z</time></trkpt>
<trkpt lat="29.663204" lon="98.369733">
<time>2016-10-07T16:08:23Z</time></trkpt>
<trkpt lat="29.663084" lon="98.369693">
<time>2016-10-07T16:08:24Z</time></trkpt>
<trkpt lat="29.662954" lon="98.369643">
<time>2016-10-07T16:08:25Z</time></trkpt>
<trkpt lat="29.662834" lon="98.369583">
<time>2016-10-07T16:08:26Z</time></trkpt>
<trkpt lat="29.662724" lon="98.369513">
<time>2016-10-07T16:08:27Z</time></trkpt>
<trkpt lat="29.662574" lon="98.369393">
<time>2016-10-07T16:08:28Z</time></trkpt>
<trkpt lat="29.662474" lon="98.369313">
<time>2016-10-07T16:08:29Z</time></trkpt>
<trkpt lat="29.662324" lon="98.369214">
<time>2016-10-07T16:08:30Z</time></trkpt>
<trkpt lat="29.662244" lon="98.369174">
<time>2016-10-07T16:08:31Z</time></trkpt>
<trkpt lat="29.662065" lon="98.369094">
<time>2016-10-07T16:08:32Z</time></trkpt>
<trkpt lat="29.661755" lon="98.369004">
<time>2016-10-07T16:08:33Z</time></trkpt>
<trkpt lat="29.661485" lon="98.368934">
<time>2016-10-07T16:08:34Z</time></trkpt>
<trkpt lat="29.661095" lon="98.368834">
<time>2016-10-07T16:08:35Z</time></trkpt>
<trkpt lat="29.660865" lon="98.368774">
<time>2016-10-07T16:08:36Z</time></trkpt>
<trkpt lat="29.660675" lon="98.368714">
<time>2016-10-07T16:08:37Z</time></trkpt>
<trkpt lat="29.660476" lon="98.368634">
<time>2016-10-07T16:08:38Z</time></trkpt>
<trkpt lat="29.660276" lon="98.368535">
<time>2016-10-07T16:08:39Z</time></trkpt>
<trkpt lat="29.660066" lon="98.368395">
<time>2016-10-07T16:08:40Z</time></trkpt>
<trkpt lat="29.659856" lon="98.368205">
<time>2016-10-07T16:08:41Z</time></trkpt>
<trkpt lat="29.659577" lon="98.367906">
<time>2016-10-07T16:08:42Z</time></trkpt>
<trkpt lat="29.659477" lon="98.367806">
<time>2016-10-07T16:08:43Z</time></trkpt>
<trkpt lat="29.659377" lon="98.367716">
<time>2016-10-07T16:08:44Z</time></trkpt>
<trkpt lat="29.659267" lon="98.367626">
<time>2016-10-07T16:08:45Z</time></trkpt>
<trkpt lat="29.659037" lon="98.367496">
<time>2016-10-07T16:08:46Z</time></trkpt>
<trkpt lat="29.658848" lon="98.367407">
<time>2016-10-07T16:08:47Z</time></trkpt>
<trkpt lat="29.658678" lon="98.367307">
<time>2016-10-07T16:08:48Z</time></trkpt>
<trkpt lat="29.658538" lon="98.367197">
<time>2016-10-07T16:08:49Z</time></trkpt>
<trkpt lat="29.658428" lon="98.367097">
<time>2016-10-07T16:08:50Z</time></trkpt>
<trkpt lat="29.658288" lon="98.366967">
<time>2016-10-07T16:08:51Z</time></trkpt>
<trkpt lat="29.658139" lon="98.366798">
<time>2016-10-07T16:08:52Z</time></trkpt>
<trkpt lat="29.657969" lon="98.366598">
<time>2016-10-07T16:08:53Z</time></trkpt>
<trkpt lat="29.657809" lon="98.366348">
<time>2016-10-07T16:08:54Z</time></trkpt>
<trkpt lat="29.65765" lon="98.366089">
<time>2016-10-07T16:08:55Z</time></trkpt>
<trkpt lat="29.65748" lon="98.365809">
<time>2016-10-07T16:08:56Z</time></trkpt>
<trkpt lat="29.65728" lon="98.36549">
<time>2016-10-07T16:08:57Z</time></trkpt>
<trkpt lat="29.657171" lon="98.3653">
<time>2016-10-07T16:08:58Z</time></trkpt>
<trkpt lat="29.657121" lon="98.36521">
<time>2016-10-07T16:08:59Z</time></trkpt>
<trkpt lat="29.657061" lon="98.36509">
<time>2016-10-07T16:09:00Z</time></trkpt>
<trkpt lat="29.657031" lon="98.364991">
<time>2016-10-07T16:09:01Z</time></trkpt>
<trkpt lat="29.657011" lon="98.364871">
<time>2016-10-07T16:09:02Z</time></trkpt>
<trkpt lat="29.657002" lon="98.364661">
<time>2016-10-07T16:09:03Z</time></trkpt>
<trkpt lat="29.656992" lon="98.364472">
<time>2016-10-07T16:09:04Z</time></trkpt>
<trkpt lat="29.656972" lon="98.364292">
<time>2016-10-07T16:09:05Z</time></trkpt>
<trkpt lat="29.656933" lon="98.364062">
<time>2016-10-07T16:09:06Z</time></trkpt>
<trkpt lat="29.656883" lon="98.363893">
<time>2016-10-07T16:09:07Z</time></trkpt>
<trkpt lat="29.656813" lon="98.363733">
<time>2016-10-07T16:09:08Z</time></trkpt>
<trkpt lat="29.656743" lon="98.363583">
<time>2016-10-07T16:09:09Z</time></trkpt>
<trkpt lat="29.656594" lon="98.363373">
<time>2016-10-07T16:09:10Z</time></trkpt>
<trkpt lat="29.656474" lon="98.363264">
<time>2016-10-07T16:09:11Z</time></trkpt>
<trkpt lat="29.656324" lon="98.363184">
<time>2016-10-07T16:09:12Z</time></trkpt>
<trkpt lat="29.655974" lon="98.363014">
<time>2016-10-07T16:09:13Z</time></trkpt>
<trkpt lat="29.655814" lon="98.362924">
<time>2016-10-07T16:09:14Z</time></trkpt>
<trkpt lat="29.655675" lon="98.362814">
<time>2016-10-07T16:09:15Z</time></trkpt>
<trkpt lat="29.655475" lon="98.362635">
<time>2016-10-07T16:09:16Z</time></trkpt>
<trkpt lat="29.655285" lon="98.362455">
<time>2016-10-07T16:09:17Z</time></trkpt>
<trkpt lat="29.655205" lon="98.362385">
<time>2016-10-07T16:09:18Z</time></trkpt>
<trkpt lat="29.655105" lon="98.362295">
<time>2016-10-07T16:09:19Z</time></trkpt>
<trkpt lat="29.655016" lon="98.362246">
<time>2016-10-07T16:09:20Z</time></trkpt>
<trkpt lat="29.654916" lon="98.362206">
<time>2016-10-07T16:09:21Z</time></trkpt>
<trkpt lat="29.654776" lon="98.362166">
<time>2016-10-07T16:09:22Z</time></trkpt>
<trkpt lat="29.654396" lon="98.362126">
<time>2016-10-07T16:09:23Z</time></trkpt>
<trkpt lat="29.654276" lon="98.362116">
<time>2016-10-07T16:09:24Z</time></trkpt>
<trkpt lat="29.654186" lon="98.362116">
<time>2016-10-07T16:09:25Z</time></trkpt>
<trkpt lat="29.654096" lon="98.362136">
<time>2016-10-07T16:09:26Z</time></trkpt>
<trkpt lat="29.654036" lon="98.362176">
<time>2016-10-07T16:09:27Z</time></trkpt>
<trkpt lat="29.653996" lon="98.362226">
<time>2016-10-07T16:09:28Z</time></trkpt>
<trkpt lat="29.653986" lon="98.362265">
<time>2016-10-07T16:09:29Z</time></trkpt>
<trkpt lat="29.653976" lon="98.362315">
<time>2016-10-07T16:09:30Z</time></trkpt>
<trkpt lat="29.653976" lon="98.362365">
<time>2016-10-07T16:09:31Z</time></trkpt>
<trkpt lat="29.653986" lon="98.362425">
<time>2016-10-07T16:09:32Z</time></trkpt>
<trkpt lat="29.654005" lon="98.362575">
<time>2016-10-07T16:09:33Z</time></trkpt>
<trkpt lat="29.654025" lon="98.362695">
<time>2016-10-07T16:09:34Z</time></trkpt>
<trkpt lat="29.654035" lon="98.362785">
<time>2016-10-07T16:09:35Z</time></trkpt>
<trkpt lat="29.654025" lon="98.362864">
<time>2016-10-07T16:09:36Z</time></trkpt>
<trkpt lat="29.654005" lon="98.362924">
<time>2016-10-07T16:09:37Z</time></trkpt>
<trkpt lat="29.653975" lon="98.362964">
<time>2016-10-07T16:09:38Z</time></trkpt>
<trkpt lat="29.653945" lon="98.362984">
<time>2016-10-07T16:09:39Z</time></trkpt>
<trkpt lat="29.653905" lon="98.363004">
<time>2016-10-07T16:09:40Z</time></trkpt>
<trkpt lat="29.653865" lon="98.363004">
<time>2016-10-07T16:09:41Z</time></trkpt>
<trkpt lat="29.653825" lon="98.363004">
<time>2016-10-07T16:09:42Z</time></trkpt>
<trkpt lat="29.653785" lon="98.362984">
<time>2016-10-07T16:09:43Z</time></trkpt>
<trkpt lat="29.653755" lon="98.362964">
<time>2016-10-07T16:09:44Z</time></trkpt>
<trkpt lat="29.653695" lon="98.362924">
<time>2016-10-07T16:09:45Z</time></trkpt>
<trkpt lat="29.653495" lon="98.362715">
<time>2016-10-07T16:09:46Z</time></trkpt>
<trkpt lat="29.653306" lon="98.362505">
<time>2016-10-07T16:09:47Z</time></trkpt>
<trkpt lat="29.653176" lon="98.362345">
<time>2016-10-07T16:09:48Z</time></trkpt>
<trkpt lat="29.653106" lon="98.362216">
<time>2016-10-07T16:09:49Z</time></trkpt>
<trkpt lat="29.653046" lon="98.362076">
<time>2016-10-07T16:09:50Z</time></trkpt>
<trkpt lat="29.652987" lon="98.361876">
<time>2016-10-07T16:09:51Z</time></trkpt>
<trkpt lat="29.652927" lon="98.361707">
<time>2016-10-07T16:09:52Z</time></trkpt>
<trkpt lat="29.652867" lon="98.361547">
<time>2016-10-07T16:09:53Z</time></trkpt>
<trkpt lat="29.652807" lon="98.361457">
<time>2016-10-07T16:09:54Z</time></trkpt>
<trkpt lat="29.652717" lon="98.361367">
<time>2016-10-07T16:09:55Z</time></trkpt>
<trkpt lat="29.652388" lon="98.361068">
<time>2016-10-07T16:09:56Z</time></trkpt>
<trkpt lat="29.652328" lon="98.361008">
<time>2016-10-07T16:09:57Z</time></trkpt>
<trkpt lat="29.652258" lon="98.360928">
<time>2016-10-07T16:09:58Z</time></trkpt>
<trkpt lat="29.652218" lon="98.360858">
<time>2016-10-07T16:09:59Z</time></trkpt>
<trkpt lat="29.652178" lon="98.360788">
<time>2016-10-07T16:10:00Z</time></trkpt>
<trkpt lat="29.652169" lon="98.360708">
<time>2016-10-07T16:10:01Z</time></trkpt>
<trkpt lat="29.652149" lon="98.360619">
<time>2016-10-07T16:10:02Z</time></trkpt>
<trkpt lat="29.652139" lon="98.360309">
<time>2016-10-07T16:10:03Z</time></trkpt>
<trkpt lat="29.652129" lon="98.360199">
<time>2016-10-07T16:10:04Z</time></trkpt>
<trkpt lat="29.652109" lon="98.360129">
<time>2016-10-07T16:10:05Z</time></trkpt>
<trkpt lat="29.652089" lon="98.36006">
<time>2016-10-07T16:10:06Z</time></trkpt>
<trkpt lat="29.65207" lon="98.36003">
<time>2016-10-07T16:10:07Z</time></trkpt>
<trkpt lat="29.65204" lon="98.35999">
<time>2016-10-07T16:10:08Z</time></trkpt>
<trkpt lat="29.65199" lon="98.35993">
<time>2016-10-07T16:10:09Z</time></trkpt>
<trkpt lat="29.6518" lon="98.35978">
<time>2016-10-07T16:10:10Z</time></trkpt>
<trkpt lat="29.65166" lon="98.35969">
<time>2016-10-07T16:10:11Z</time></trkpt>
<trkpt lat="29.65145" lon="98.359551">
<time>2016-10-07T16:10:12Z</time></trkpt>
<trkpt lat="29.651131" lon="98.359301">
<time>2016-10-07T16:10:13Z</time></trkpt>
<trkpt lat="29.650851" lon="98.359081">
<time>2016-10-07T16:10:14Z</time></trkpt>
<trkpt lat="29.650642" lon="98.358912">
<time>2016-10-07T16:10:15Z</time></trkpt>
<trkpt lat="29.650422" lon="98.358722">
<time>2016-10-07T16:10:16Z</time></trkpt>
<trkpt lat="29.650272" lon="98.358592">
<time>2016-10-07T16:10:17Z</time></trkpt>
<trkpt lat="29.650112" lon="98.358493">
<time>2016-10-07T16:10:18Z</time></trkpt>
<trkpt lat="29.650012" lon="98.358423">
<time>2016-10-07T16:10:19Z</time></trkpt>
<trkpt lat="29.649903" lon="98.358363">
<time>2016-10-07T16:10:20Z</time></trkpt>
<trkpt lat="29.649723" lon="98.358313">
<time>2016-10-07T16:10:21Z</time></trkpt>
<trkpt lat="29.649583" lon="98.358283">
<time>2016-10-07T16:10:22Z</time></trkpt>
<trkpt lat="29.649413" lon="98.358233">
<time>2016-10-07T16:10:23Z</time></trkpt>
<trkpt lat="29.649223" lon="98.358143">
<time>2016-10-07T16:10:24Z</time></trkpt>
<trkpt lat="29.649083" lon="98.358053">
<time>2016-10-07T16:10:25Z</time></trkpt>
<trkpt lat="29.648963" lon="98.357984">
<time>2016-10-07T16:10:26Z</time></trkpt>
<trkpt lat="29.648824" lon="98.357934">
<time>2016-10-07T16:10:27Z</time></trkpt>
<trkpt lat="29.648694" lon="98.357924">
<time>2016-10-07T16:10:28Z</time></trkpt>
<trkpt lat="29.648584" lon="98.357934">
<time>2016-10-07T16:10:29Z</time></trkpt>
<trkpt lat="29.648504" lon="98.357934">
<time>2016-10-07T16:10:30Z</time></trkpt>
<trkpt lat="29.648434" lon="98.357924">
<time>2016-10-07T16:10:31Z</time></trkpt>
<trkpt lat="29.648374" lon="98.357884">
<time>2016-10-07T16:10:32Z</time></trkpt>
<trkpt lat="29.648334" lon="98.357834">
<time>2016-10-07T16:10:33Z</time></trkpt>
<trkpt lat="29.648304" lon="98.357764">
<time>2016-10-07T16:10:34Z</time></trkpt>
<trkpt lat="29.648274" lon="98.357654">
<time>2016-10-07T16:10:35Z</time></trkpt>
<trkpt lat="29.648244" lon="98.357455">
<time>2016-10-07T16:10:36Z</time></trkpt>
<trkpt lat="29.648195" lon="98.357035">
<time>2016-10-07T16:10:37Z</time></trkpt>
<trkpt lat="29.648175" lon="98.356916">
<time>2016-10-07T16:10:38Z</time></trkpt>
<trkpt lat="29.648135" lon="98.356806">
<time>2016-10-07T16:10:39Z</time></trkpt>
<trkpt lat="29.648096" lon="98.356736">
<time>2016-10-07T16:10:40Z</time></trkpt>
<trkpt lat="29.648016" lon="98.356656">
<time>2016-10-07T16:10:41Z</time></trkpt>
<trkpt lat="29.647946" lon="98.356586">
<time>2016-10-07T16:10:42Z</time></trkpt>
<trkpt lat="29.647876" lon="98.356516">
<time>2016-10-07T16:10:43Z</time></trkpt>
<trkpt lat="29.647786" lon="98.356437">
<time>2016-10-07T16:10:44Z</time></trkpt>
<trkpt lat="29.647557" lon="98.356237">
<time>2016-10-07T16:10:45Z</time></trkpt>
<trkpt lat="29.647437" lon="98.356127">
<time>2016-10-07T16:10:46Z</time></trkpt>
<trkpt lat="29.647307" lon="98.356037">
<time>2016-10-07T16:10:47Z</time></trkpt>
<trkpt lat="29.647077" lon="98.355888">
<time>2016-10-07T16:10:48Z</time></trkpt>
<trkpt lat="29.646398" lon="98.355469">
<time>2016-10-07T16:10:49Z</time></trkpt>
<trkpt lat="29.645929" lon="98.355179">
<time>2016-10-07T16:10:50Z</time></trkpt>
<trkpt lat="29.645719" lon="98.355049">
<time>2016-10-07T16:10:51Z</time></trkpt>
<trkpt lat="29.645519" lon="98.35492">
<time>2016-10-07T16:10:52Z</time></trkpt>
<trkpt lat="29.645259" lon="98.35477">
<time>2016-10-07T16:10:53Z</time></trkpt>
<trkpt lat="29.64509" lon="98.35465">
<time>2016-10-07T16:10:54Z</time></trkpt>
<trkpt lat="29.64497" lon="98.35459">
<time>2016-10-07T16:10:55Z</time></trkpt>
<trkpt lat="29.64469" lon="98.354471">
<time>2016-10-07T16:10:56Z</time></trkpt>
<trkpt lat="29.6446" lon="98.354431">
<time>2016-10-07T16:10:57Z</time></trkpt>
<trkpt lat="29.64443" lon="98.354371">
<time>2016-10-07T16:10:58Z</time></trkpt>
<trkpt lat="29.64431" lon="98.354301">
<time>2016-10-07T16:10:59Z</time></trkpt>
<trkpt lat="29.644121" lon="98.354151">
<time>2016-10-07T16:11:00Z</time></trkpt>
<trkpt lat="29.643981" lon="98.354041">
<time>2016-10-07T16:11:01Z</time></trkpt>
<trkpt lat="29.643881" lon="98.353982">
<time>2016-10-07T16:11:02Z</time></trkpt>
<trkpt lat="29.643781" lon="98.353932">
<time>2016-10-07T16:11:03Z</time></trkpt>
<trkpt lat="29.643661" lon="98.353872">
<time>2016-10-07T16:11:04Z</time></trkpt>
<trkpt lat="29.643442" lon="98.353782">
<time>2016-10-07T16:11:05Z</time></trkpt>
<trkpt lat="29.643262" lon="98.353712">
<time>2016-10-07T16:11:06Z</time></trkpt>
<trkpt lat="29.643062" lon="98.353622">
<time>2016-10-07T16:11:07Z</time></trkpt>
<trkpt lat="29.642912" lon="98.353522">
<time>2016-10-07T16:11:08Z</time></trkpt>
<trkpt lat="29.642772" lon="98.353413">
<time>2016-10-07T16:11:09Z</time></trkpt>
<trkpt lat="29.642563" lon="98.353193">
<time>2016-10-07T16:11:10Z</time></trkpt>
<trkpt lat="29.642303" lon="98.352924">
<time>2016-10-07T16:11:11Z</time></trkpt>
<trkpt lat="29.642034" lon="98.352624">
<time>2016-10-07T16:11:12Z</time></trkpt>
<trkpt lat="29.641585" lon="98.352055">
<time>2016-10-07T16:11:13Z</time></trkpt>
<trkpt lat="29.641455" lon="98.351856">
<time>2016-10-07T16:11:14Z</time></trkpt>
<trkpt lat="29.641356" lon="98.351666">
<time>2016-10-07T16:11:15Z</time></trkpt>
<trkpt lat="29.641296" lon="98.351497">
<time>2016-10-07T16:11:16Z</time></trkpt>
<trkpt lat="29.641216" lon="98.351367">
<time>2016-10-07T16:11:17Z</time></trkpt>
<trkpt lat="29.641096" lon="98.351237">
<time>2016-10-07T16:11:18Z</time></trkpt>
<trkpt lat="29.640987" lon="98.351167">
<time>2016-10-07T16:11:19Z</time></trkpt>
<trkpt lat="29.640847" lon="98.351088">
<time>2016-10-07T16:11:20Z</time></trkpt>
<trkpt lat="29.640707" lon="98.351038">
<time>2016-10-07T16:11:21Z</time></trkpt>
<trkpt lat="29.640607" lon="98.350998">
<time>2016-10-07T16:11:22Z</time></trkpt>
<trkpt lat="29.640527" lon="98.350978">
<time>2016-10-07T16:11:23Z</time></trkpt>
<trkpt lat="29.640467" lon="98.350978">
<time>2016-10-07T16:11:24Z</time></trkpt>
<trkpt lat="29.640367" lon="98.350988">
<time>2016-10-07T16:11:25Z</time></trkpt>
<trkpt lat="29.640267" lon="98.351008">
<time>2016-10-07T16:11:26Z</time></trkpt>
<trkpt lat="29.640157" lon="98.351038">
<time>2016-10-07T16:11:27Z</time></trkpt>
<trkpt lat="29.640037" lon="98.351048">
<time>2016-10-07T16:11:28Z</time></trkpt>
<trkpt lat="29.639817" lon="98.351038">
<time>2016-10-07T16:11:29Z</time></trkpt>
<trkpt lat="29.639517" lon="98.351038">
<time>2016-10-07T16:11:30Z</time></trkpt>
<trkpt lat="29.638727" lon="98.351078">
<time>2016-10-07T16:11:31Z</time></trkpt>
<trkpt lat="29.638567" lon="98.351078">
<time>2016-10-07T16:11:32Z</time></trkpt>
<trkpt lat="29.638427" lon="98.351048">
<time>2016-10-07T16:11:33Z</time></trkpt>
<trkpt lat="29.638277" lon="98.351008">
<time>2016-10-07T16:11:34Z</time></trkpt>
<trkpt lat="29.638098" lon="98.350958">
<time>2016-10-07T16:11:35Z</time></trkpt>
<trkpt lat="29.637928" lon="98.350888">
<time>2016-10-07T16:11:36Z</time></trkpt>
<trkpt lat="29.637818" lon="98.350838">
<time>2016-10-07T16:11:37Z</time></trkpt>
<trkpt lat="29.637718" lon="98.350778">
<time>2016-10-07T16:11:38Z</time></trkpt>
<trkpt lat="29.637588" lon="98.350698">
<time>2016-10-07T16:11:39Z</time></trkpt>
<trkpt lat="29.637458" lon="98.350638">
<time>2016-10-07T16:11:40Z</time></trkpt>
<trkpt lat="29.637378" lon="98.350599">
<time>2016-10-07T16:11:41Z</time></trkpt>
<trkpt lat="29.637298" lon="98.350579">
<time>2016-10-07T16:11:42Z</time></trkpt>
<trkpt lat="29.637238" lon="98.350589">
<time>2016-10-07T16:11:43Z</time></trkpt>
<trkpt lat="29.637178" lon="98.350609">
<time>2016-10-07T16:11:44Z</time></trkpt>
<trkpt lat="29.637148" lon="98.350639">
<time>2016-10-07T16:11:45Z</time></trkpt>
<trkpt lat="29.637118" lon="98.350678">
<time>2016-10-07T16:11:46Z</time></trkpt>
<trkpt lat="29.637088" lon="98.350748">
<time>2016-10-07T16:11:47Z</time></trkpt>
<trkpt lat="29.637038" lon="98.350978">
<time>2016-10-07T16:11:48Z</time></trkpt>
<trkpt lat="29.637018" lon="98.351058">
<time>2016-10-07T16:11:49Z</time></trkpt>
<trkpt lat="29.636998" lon="98.351127">
<time>2016-10-07T16:11:50Z</time></trkpt>
<trkpt lat="29.636978" lon="98.351187">
<time>2016-10-07T16:11:51Z</time></trkpt>
<trkpt lat="29.636957" lon="98.351237">
<time>2016-10-07T16:11:52Z</time></trkpt>
<trkpt lat="29.636927" lon="98.351277">
<time>2016-10-07T16:11:53Z</time></trkpt>
<trkpt lat="29.636867" lon="98.351307">
<time>2016-10-07T16:11:54Z</time></trkpt>
<trkpt lat="29.636817" lon="98.351297">
<time>2016-10-07T16:11:55Z</time></trkpt>
<trkpt lat="29.636757" lon="98.351277">
<time>2016-10-07T16:11:56Z</time></trkpt>
<trkpt lat="29.636648" lon="98.351207">
<time>2016-10-07T16:11:57Z</time></trkpt>
<trkpt lat="29.636528" lon="98.351128">
<time>2016-10-07T16:11:58Z</time></trkpt>
<trkpt lat="29.636428" lon="98.351068">
<time>2016-10-07T16:11:59Z</time></trkpt>
<trkpt lat="29.636328" lon="98.350998">
<time>2016-10-07T16:12:00Z</time></trkpt>
<trkpt lat="29.636248" lon="98.350948">
<time>2016-10-07T16:12:01Z</time></trkpt>
<trkpt lat="29.636188" lon="98.350908">
<time>2016-10-07T16:12:02Z</time></trkpt>
<trkpt lat="29.636128" lon="98.350878">
<time>2016-10-07T16:12:03Z</time></trkpt>
<trkpt lat="29.636068" lon="98.350858">
<time>2016-10-07T16:12:04Z</time></trkpt>
<trkpt lat="29.635998" lon="98.350838">
<time>2016-10-07T16:12:05Z</time></trkpt>
<trkpt lat="29.635878" lon="98.350838">
<time>2016-10-07T16:12:06Z</time></trkpt>
<trkpt lat="29.635748" lon="98.350838">
<time>2016-10-07T16:12:07Z</time></trkpt>
<trkpt lat="29.635608" lon="98.350848">
<time>2016-10-07T16:12:08Z</time></trkpt>
<trkpt lat="29.635478" lon="98.350888">
<time>2016-10-07T16:12:09Z</time></trkpt>
<trkpt lat="29.635268" lon="98.350968">
<time>2016-10-07T16:12:10Z</time></trkpt>
<trkpt lat="29.634868" lon="98.351098">
<time>2016-10-07T16:12:11Z</time></trkpt>
<trkpt lat="29.634718" lon="98.351157">
<time>2016-10-07T16:12:12Z</time></trkpt>
<trkpt lat="29.634528" lon="98.351257">
<time>2016-10-07T16:12:13Z</time></trkpt>
<trkpt lat="29.634298" lon="98.351357">
<time>2016-10-07T16:12:14Z</time></trkpt>
<trkpt lat="29.634028" lon="98.351467">
<time>2016-10-07T16:12:15Z</time></trkpt>
<trkpt lat="29.633818" lon="98.351567">
<time>2016-10-07T16:12:16Z</time></trkpt>
<trkpt lat="29.633608" lon="98.351686">
<time>2016-10-07T16:12:17Z</time></trkpt>
<trkpt lat="29.633397" lon="98.351806">
<time>2016-10-07T16:12:18Z</time></trkpt>
<trkpt lat="29.633237" lon="98.351926">
<time>2016-10-07T16:12:19Z</time></trkpt>
<trkpt lat="29.633067" lon="98.352056">
<time>2016-10-07T16:12:20Z</time></trkpt>
<trkpt lat="29.632727" lon="98.352315">
<time>2016-10-07T16:12:21Z</time></trkpt>
<trkpt lat="29.632517" lon="98.352445">
<time>2016-10-07T16:12:22Z</time></trkpt>
<trkpt lat="29.632056" lon="98.352704">
<time>2016-10-07T16:12:23Z</time></trkpt>
<trkpt lat="29.631706" lon="98.352894">
<time>2016-10-07T16:12:24Z</time></trkpt>
<trkpt lat="29.631416" lon="98.353034">
<time>2016-10-07T16:12:25Z</time></trkpt>
<trkpt lat="29.631156" lon="98.353163">
<time>2016-10-07T16:12:26Z</time></trkpt>
<trkpt lat="29.630906" lon="98.353273">
<time>2016-10-07T16:12:27Z</time></trkpt>
<trkpt lat="29.630505" lon="98.353423">
<time>2016-10-07T16:12:28Z</time></trkpt>
<trkpt lat="29.630005" lon="98.353593">
<time>2016-10-07T16:12:29Z</time></trkpt>
<trkpt lat="29.629805" lon="98.353652">
<time>2016-10-07T16:12:30Z</time></trkpt>
<trkpt lat="29.629595" lon="98.353712">
<time>2016-10-07T16:12:31Z</time></trkpt>
<trkpt lat="29.629225" lon="98.353772">
<time>2016-10-07T16:12:32Z</time></trkpt>
<trkpt lat="29.629005" lon="98.353812">
<time>2016-10-07T16:12:33Z</time></trkpt>
<trkpt lat="29.628785" lon="98.353842">
<time>2016-10-07T16:12:34Z</time></trkpt>
<trkpt lat="29.628585" lon="98.353852">
<time>2016-10-07T16:12:35Z</time></trkpt>
<trkpt lat="29.628475" lon="98.353832">
<time>2016-10-07T16:12:36Z</time></trkpt>
<trkpt lat="29.628375" lon="98.353812">
<time>2016-10-07T16:12:37Z</time></trkpt>
<trkpt lat="29.628265" lon="98.353782">
<time>2016-10-07T16:12:38Z</time></trkpt>
<trkpt lat="29.628036" lon="98.353702">
<time>2016-10-07T16:12:39Z</time></trkpt>
<trkpt lat="29.627916" lon="98.353672">
<time>2016-10-07T16:12:40Z</time></trkpt>
<trkpt lat="29.627836" lon="98.353662">
<time>2016-10-07T16:12:41Z</time></trkpt>
<trkpt lat="29.627746" lon="98.353662">
<time>2016-10-07T16:12:42Z</time></trkpt>
<trkpt lat="29.627666" lon="98.353672">
<time>2016-10-07T16:12:43Z</time></trkpt>
<trkpt lat="29.627496" lon="98.353692">
<time>2016-10-07T16:12:44Z</time></trkpt>
<trkpt lat="29.627396" lon="98.353692">
<time>2016-10-07T16:12:45Z</time></trkpt>
<trkpt lat="29.627186" lon="98.353682">
<time>2016-10-07T16:12:46Z</time></trkpt>
<trkpt lat="29.626886" lon="98.353653">
<time>2016-10-07T16:12:47Z</time></trkpt>
<trkpt lat="29.626646" lon="98.353623">
<time>2016-10-07T16:12:48Z</time></trkpt>
<trkpt lat="29.626406" lon="98.353593">
<time>2016-10-07T16:12:49Z</time></trkpt>
<trkpt lat="29.626216" lon="98.353573">
<time>2016-10-07T16:12:50Z</time></trkpt>
<trkpt lat="29.626046" lon="98.353553">
<time>2016-10-07T16:12:51Z</time></trkpt>
<trkpt lat="29.625936" lon="98.353563">
<time>2016-10-07T16:12:52Z</time></trkpt>
<trkpt lat="29.625816" lon="98.353573">
<time>2016-10-07T16:12:53Z</time></trkpt>
<trkpt lat="29.625696" lon="98.353593">
<time>2016-10-07T16:12:54Z</time></trkpt>
<trkpt lat="29.625536" lon="98.353633">
<time>2016-10-07T16:12:55Z</time></trkpt>
<trkpt lat="29.625386" lon="98.353692">
<time>2016-10-07T16:12:56Z</time></trkpt>
<trkpt lat="29.625136" lon="98.353772">
<time>2016-10-07T16:12:57Z</time></trkpt>
<trkpt lat="29.624906" lon="98.353812">
<time>2016-10-07T16:12:58Z</time></trkpt>
<trkpt lat="29.624656" lon="98.353832">
<time>2016-10-07T16:12:59Z</time></trkpt>
<trkpt lat="29.624446" lon="98.353852">
<time>2016-10-07T16:13:00Z</time></trkpt>
<trkpt lat="29.624056" lon="98.353872">
<time>2016-10-07T16:13:01Z</time></trkpt>
<trkpt lat="29.623887" lon="98.353862">
<time>2016-10-07T16:13:02Z</time></trkpt>
<trkpt lat="29.623767" lon="98.353862">
<time>2016-10-07T16:13:03Z</time></trkpt>
<trkpt lat="29.623657" lon="98.353852">
<time>2016-10-07T16:13:04Z</time></trkpt>
<trkpt lat="29.623577" lon="98.353842">
<time>2016-10-07T16:13:05Z</time></trkpt>
<trkpt lat="29.623487" lon="98.353832">
<time>2016-10-07T16:13:06Z</time></trkpt>
<trkpt lat="29.623377" lon="98.353812">
<time>2016-10-07T16:13:07Z</time></trkpt>
<trkpt lat="29.623297" lon="98.353792">
<time>2016-10-07T16:13:08Z</time></trkpt>
<trkpt lat="29.623157" lon="98.353752">
<time>2016-10-07T16:13:09Z</time></trkpt>
<trkpt lat="29.623067" lon="98.353712">
<time>2016-10-07T16:13:10Z</time></trkpt>
<trkpt lat="29.623007" lon="98.353673">
<time>2016-10-07T16:13:11Z</time></trkpt>
<trkpt lat="29.622938" lon="98.353333">
<time>2016-10-07T16:13:12Z</time></trkpt>
<trkpt lat="29.622878" lon="98.353044">
<time>2016-10-07T16:13:13Z</time></trkpt>
<trkpt lat="29.622689" lon="98.352315">
<time>2016-10-07T16:13:14Z</time></trkpt>
<trkpt lat="29.62257" lon="98.351856">
<time>2016-10-07T16:13:15Z</time></trkpt>
<trkpt lat="29.622481" lon="98.351517">
<time>2016-10-07T16:13:16Z</time></trkpt>
<trkpt lat="29.622352" lon="98.351068">
<time>2016-10-07T16:13:17Z</time></trkpt>
<trkpt lat="29.622272" lon="98.350848">
<time>2016-10-07T16:13:18Z</time></trkpt>
<trkpt lat="29.622182" lon="98.350689">
<time>2016-10-07T16:13:19Z</time></trkpt>
<trkpt lat="29.622053" lon="98.350519">
<time>2016-10-07T16:13:20Z</time></trkpt>
<trkpt lat="29.622003" lon="98.350469">
<time>2016-10-07T16:13:21Z</time></trkpt>
<trkpt lat="29.621943" lon="98.350409">
<time>2016-10-07T16:13:22Z</time></trkpt>
<trkpt lat="29.621753" lon="98.35028">
<time>2016-10-07T16:13:23Z</time></trkpt>
<trkpt lat="29.621553" lon="98.35019">
<time>2016-10-07T16:13:24Z</time></trkpt>
<trkpt lat="29.621423" lon="98.35015">
<time>2016-10-07T16:13:25Z</time></trkpt>
<trkpt lat="29.621324" lon="98.35013">
<time>2016-10-07T16:13:26Z</time></trkpt>
<trkpt lat="29.621234" lon="98.35009">
<time>2016-10-07T16:13:27Z</time></trkpt>
<trkpt lat="29.621094" lon="98.35007">
<time>2016-10-07T16:13:28Z</time></trkpt>
<trkpt lat="29.620814" lon="98.35005">
<time>2016-10-07T16:13:29Z</time></trkpt>
<trkpt lat="29.620274" lon="98.35003">
<time>2016-10-07T16:13:30Z</time></trkpt>
<trkpt lat="29.619914" lon="98.35002">
<time>2016-10-07T16:13:31Z</time></trkpt>
<trkpt lat="29.619774" lon="98.35002">
<time>2016-10-07T16:13:32Z</time></trkpt>
<trkpt lat="29.619674" lon="98.35004">
<time>2016-10-07T16:13:33Z</time></trkpt>
<trkpt lat="29.619174" lon="98.35019">
<time>2016-10-07T16:13:34Z</time></trkpt>
<trkpt lat="29.618854" lon="98.35027">
<time>2016-10-07T16:13:35Z</time></trkpt>
<trkpt lat="29.618734" lon="98.35029">
<time>2016-10-07T16:13:36Z</time></trkpt>
<trkpt lat="29.618464" lon="98.350359">
<time>2016-10-07T16:13:37Z</time></trkpt>
<trkpt lat="29.618194" lon="98.350399">
<time>2016-10-07T16:13:38Z</time></trkpt>
<trkpt lat="29.618024" lon="98.350399">
<time>2016-10-07T16:13:39Z</time></trkpt>
<trkpt lat="29.617604" lon="98.350419">
<time>2016-10-07T16:13:40Z</time></trkpt>
<trkpt lat="29.617364" lon="98.350439">
<time>2016-10-07T16:13:41Z</time></trkpt>
<trkpt lat="29.617264" lon="98.350459">
<time>2016-10-07T16:13:42Z</time></trkpt>
<trkpt lat="29.617174" lon="98.350499">
<time>2016-10-07T16:13:43Z</time></trkpt>
<trkpt lat="29.617074" lon="98.350559">
<time>2016-10-07T16:13:44Z</time></trkpt>
<trkpt lat="29.616964" lon="98.350639">
<time>2016-10-07T16:13:45Z</time></trkpt>
<trkpt lat="29.616794" lon="98.350819">
<time>2016-10-07T16:13:46Z</time></trkpt>
<trkpt lat="29.616643" lon="98.351008">
<time>2016-10-07T16:13:47Z</time></trkpt>
<trkpt lat="29.616543" lon="98.351128">
<time>2016-10-07T16:13:48Z</time></trkpt>
<trkpt lat="29.616473" lon="98.351258">
<time>2016-10-07T16:13:49Z</time></trkpt>
<trkpt lat="29.616433" lon="98.351357">
<time>2016-10-07T16:13:50Z</time></trkpt>
<trkpt lat="29.616403" lon="98.351487">
<time>2016-10-07T16:13:51Z</time></trkpt>
<trkpt lat="29.616382" lon="98.351617">
<time>2016-10-07T16:13:52Z</time></trkpt>
<trkpt lat="29.616382" lon="98.351946">
<time>2016-10-07T16:13:53Z</time></trkpt>
<trkpt lat="29.616372" lon="98.352086">
<time>2016-10-07T16:13:54Z</time></trkpt>
<trkpt lat="29.616371" lon="98.352196">
<time>2016-10-07T16:13:55Z</time></trkpt>
<trkpt lat="29.616371" lon="98.352285">
<time>2016-10-07T16:13:56Z</time></trkpt>
<trkpt lat="29.616351" lon="98.352395">
<time>2016-10-07T16:13:57Z</time></trkpt>
<trkpt lat="29.616311" lon="98.352455">
<time>2016-10-07T16:13:58Z</time></trkpt>
<trkpt lat="29.616251" lon="98.352515">
<time>2016-10-07T16:13:59Z</time></trkpt>
<trkpt lat="29.616211" lon="98.352535">
<time>2016-10-07T16:14:00Z</time></trkpt>
<trkpt lat="29.616161" lon="98.352555">
<time>2016-10-07T16:14:01Z</time></trkpt>
<trkpt lat="29.616101" lon="98.352555">
<time>2016-10-07T16:14:02Z</time></trkpt>
<trkpt lat="29.616021" lon="98.352535">
<time>2016-10-07T16:14:03Z</time></trkpt>
<trkpt lat="29.615781" lon="98.352445">
<time>2016-10-07T16:14:04Z</time></trkpt>
<trkpt lat="29.615521" lon="98.352345">
<time>2016-10-07T16:14:05Z</time></trkpt>
<trkpt lat="29.615431" lon="98.352325">
<time>2016-10-07T16:14:06Z</time></trkpt>
<trkpt lat="29.615362" lon="98.352286">
<time>2016-10-07T16:14:07Z</time></trkpt>
<trkpt lat="29.615282" lon="98.352236">
<time>2016-10-07T16:14:08Z</time></trkpt>
<trkpt lat="29.615182" lon="98.352166">
<time>2016-10-07T16:14:09Z</time></trkpt>
<trkpt lat="29.615112" lon="98.352096">
<time>2016-10-07T16:14:10Z</time></trkpt>
<trkpt lat="29.615042" lon="98.352006">
<time>2016-10-07T16:14:11Z</time></trkpt>
<trkpt lat="29.614982" lon="98.351876">
<time>2016-10-07T16:14:12Z</time></trkpt>
<trkpt lat="29.614923" lon="98.351757">
<time>2016-10-07T16:14:13Z</time></trkpt>
<trkpt lat="29.614833" lon="98.351497">
<time>2016-10-07T16:14:14Z</time></trkpt>
<trkpt lat="29.614733" lon="98.351278">
<time>2016-10-07T16:14:15Z</time></trkpt>
<trkpt lat="29.614634" lon="98.351058">
<time>2016-10-07T16:14:16Z</time></trkpt>
<trkpt lat="29.614554" lon="98.350888">
<time>2016-10-07T16:14:17Z</time></trkpt>
<trkpt lat="29.614474" lon="98.350679">
<time>2016-10-07T16:14:18Z</time></trkpt>
<trkpt lat="29.614375" lon="98.350569">
<time>2016-10-07T16:14:19Z</time></trkpt>
<trkpt lat="29.614255" lon="98.350469">
<time>2016-10-07T16:14:20Z</time></trkpt>
<trkpt lat="29.614135" lon="98.350409">
<time>2016-10-07T16:14:21Z</time></trkpt>
<trkpt lat="29.613985" lon="98.35033">
<time>2016-10-07T16:14:22Z</time></trkpt>
<trkpt lat="29.613725" lon="98.35022">
<time>2016-10-07T16:14:23Z</time></trkpt>
<trkpt lat="29.613486" lon="98.35012">
<time>2016-10-07T16:14:24Z</time></trkpt>
<trkpt lat="29.613316" lon="98.35006">
<time>2016-10-07T16:14:25Z</time></trkpt>
<trkpt lat="29.613086" lon="98.34998">
<time>2016-10-07T16:14:26Z</time></trkpt>
<trkpt lat="29.612976" lon="98.34995">
<time>2016-10-07T16:14:27Z</time></trkpt>
<trkpt lat="29.612816" lon="98.349901">
<time>2016-10-07T16:14:28Z</time></trkpt>
<trkpt lat="29.612706" lon="98.349851">
<time>2016-10-07T16:14:29Z</time></trkpt>
<trkpt lat="29.612577" lon="98.349791">
<time>2016-10-07T16:14:30Z</time></trkpt>
<trkpt lat="29.612487" lon="98.349741">
<time>2016-10-07T16:14:31Z</time></trkpt>
<trkpt lat="29.612407" lon="98.349681">
<time>2016-10-07T16:14:32Z</time></trkpt>
<trkpt lat="29.612347" lon="98.349611">
<time>2016-10-07T16:14:33Z</time></trkpt>
<trkpt lat="29.612297" lon="98.349531">
<time>2016-10-07T16:14:34Z</time></trkpt>
<trkpt lat="29.612247" lon="98.349422">
<time>2016-10-07T16:14:35Z</time></trkpt>
<trkpt lat="29.612208" lon="98.349272">
<time>2016-10-07T16:14:36Z</time></trkpt>
<trkpt lat="29.612158" lon="98.349082">
<time>2016-10-07T16:14:37Z</time></trkpt>
<trkpt lat="29.612128" lon="98.348933">
<time>2016-10-07T16:14:38Z</time></trkpt>
<trkpt lat="29.612118" lon="98.348803">
<time>2016-10-07T16:14:39Z</time></trkpt>
<trkpt lat="29.612119" lon="98.348713">
<time>2016-10-07T16:14:40Z</time></trkpt>
<trkpt lat="29.612129" lon="98.348474">
<time>2016-10-07T16:14:41Z</time></trkpt>
<trkpt lat="29.612139" lon="98.348264">
<time>2016-10-07T16:14:42Z</time></trkpt>
<trkpt lat="29.61214" lon="98.348074">
<time>2016-10-07T16:14:43Z</time></trkpt>
<trkpt lat="29.61213" lon="98.347955">
<time>2016-10-07T16:14:44Z</time></trkpt>
<trkpt lat="29.61212" lon="98.347875">
<time>2016-10-07T16:14:45Z</time></trkpt>
<trkpt lat="29.61211" lon="98.347825">
<time>2016-10-07T16:14:46Z</time></trkpt>
<trkpt lat="29.61209" lon="98.347785">
<time>2016-10-07T16:14:47Z</time></trkpt>
<trkpt lat="29.61207" lon="98.347725">
<time>2016-10-07T16:14:48Z</time></trkpt>
<trkpt lat="29.61202" lon="98.347655">
<time>2016-10-07T16:14:49Z</time></trkpt>
<trkpt lat="29.611971" lon="98.347595">
<time>2016-10-07T16:14:50Z</time></trkpt>
<trkpt lat="29.611901" lon="98.347526">
<time>2016-10-07T16:14:51Z</time></trkpt>
<trkpt lat="29.611831" lon="98.347486">
<time>2016-10-07T16:14:52Z</time></trkpt>
<trkpt lat="29.611731" lon="98.347446">
<time>2016-10-07T16:14:53Z</time></trkpt>
<trkpt lat="29.611651" lon="98.347426">
<time>2016-10-07T16:14:54Z</time></trkpt>
<trkpt lat="29.611611" lon="98.347436">
<time>2016-10-07T16:14:55Z</time></trkpt>
<trkpt lat="29.611541" lon="98.347436">
<time>2016-10-07T16:14:56Z</time></trkpt>
<trkpt lat="29.611481" lon="98.347456">
<time>2016-10-07T16:14:57Z</time></trkpt>
<trkpt lat="29.611401" lon="98.347486">
<time>2016-10-07T16:14:58Z</time></trkpt>
<trkpt lat="29.611341" lon="98.347526">
<time>2016-10-07T16:14:59Z</time></trkpt>
<trkpt lat="29.611271" lon="98.347555">
<time>2016-10-07T16:15:00Z</time></trkpt>
<trkpt lat="29.611211" lon="98.347585">
<time>2016-10-07T16:15:01Z</time></trkpt>
<trkpt lat="29.611141" lon="98.347615">
<time>2016-10-07T16:15:02Z</time></trkpt>
<trkpt lat="29.611031" lon="98.347635">
<time>2016-10-07T16:15:03Z</time></trkpt>
<trkpt lat="29.610951" lon="98.347635">
<time>2016-10-07T16:15:04Z</time></trkpt>
<trkpt lat="29.610881" lon="98.347615">
<time>2016-10-07T16:15:05Z</time></trkpt>
<trkpt lat="29.610811" lon="98.347585">
<time>2016-10-07T16:15:06Z</time></trkpt>
<trkpt lat="29.610741" lon="98.347546">
<time>2016-10-07T16:15:07Z</time></trkpt>
<trkpt lat="29.610681" lon="98.347496">
<time>2016-10-07T16:15:08Z</time></trkpt>
<trkpt lat="29.610641" lon="98.347446">
<time>2016-10-07T16:15:09Z</time></trkpt>
<trkpt lat="29.610611" lon="98.347396">
<time>2016-10-07T16:15:10Z</time></trkpt>
<trkpt lat="29.610571" lon="98.347306">
<time>2016-10-07T16:15:11Z</time></trkpt>
<trkpt lat="29.610542" lon="98.347236">
<time>2016-10-07T16:15:12Z</time></trkpt>
<trkpt lat="29.610512" lon="98.347166">
<time>2016-10-07T16:15:13Z</time></trkpt>
<trkpt lat="29.610482" lon="98.347017">
<time>2016-10-07T16:15:14Z</time></trkpt>
<trkpt lat="29.610462" lon="98.346887">
<time>2016-10-07T16:15:15Z</time></trkpt>
<trkpt lat="29.610462" lon="98.346797">
<time>2016-10-07T16:15:16Z</time></trkpt>
<trkpt lat="29.610463" lon="98.346687">
<time>2016-10-07T16:15:17Z</time></trkpt>
<trkpt lat="29.610463" lon="98.346608">
<time>2016-10-07T16:15:18Z</time></trkpt>
<trkpt lat="29.610463" lon="98.346478">
<time>2016-10-07T16:15:19Z</time></trkpt>
<trkpt lat="29.610483" lon="98.346238">
<time>2016-10-07T16:15:20Z</time></trkpt>
<trkpt lat="29.610514" lon="98.346059">
<time>2016-10-07T16:15:21Z</time></trkpt>
<trkpt lat="29.610534" lon="98.345819">
<time>2016-10-07T16:15:22Z</time></trkpt>
<trkpt lat="29.610544" lon="98.3457">
<time>2016-10-07T16:15:23Z</time></trkpt>
<trkpt lat="29.610565" lon="98.34557">
<time>2016-10-07T16:15:24Z</time></trkpt>
<trkpt lat="29.610575" lon="98.34541">
<time>2016-10-07T16:15:25Z</time></trkpt>
<trkpt lat="29.610575" lon="98.34532">
<time>2016-10-07T16:15:26Z</time></trkpt>
<trkpt lat="29.610575" lon="98.34524">
<time>2016-10-07T16:15:27Z</time></trkpt>
<trkpt lat="29.610555" lon="98.345171">
<time>2016-10-07T16:15:28Z</time></trkpt>
<trkpt lat="29.610545" lon="98.345111">
<time>2016-10-07T16:15:29Z</time></trkpt>
<trkpt lat="29.610525" lon="98.345071">
<time>2016-10-07T16:15:30Z</time></trkpt>
<trkpt lat="29.610496" lon="98.345031">
<time>2016-10-07T16:15:31Z</time></trkpt>
<trkpt lat="29.610466" lon="98.345001">
<time>2016-10-07T16:15:32Z</time></trkpt>
<trkpt lat="29.610426" lon="98.344971">
<time>2016-10-07T16:15:33Z</time></trkpt>
<trkpt lat="29.610386" lon="98.344961">
<time>2016-10-07T16:15:34Z</time></trkpt>
<trkpt lat="29.610336" lon="98.344961">
<time>2016-10-07T16:15:35Z</time></trkpt>
<trkpt lat="29.610296" lon="98.344961">
<time>2016-10-07T16:15:36Z</time></trkpt>
<trkpt lat="29.610246" lon="98.344981">
<time>2016-10-07T16:15:37Z</time></trkpt>
<trkpt lat="29.610186" lon="98.345001">
<time>2016-10-07T16:15:38Z</time></trkpt>
<trkpt lat="29.610116" lon="98.345041">
<time>2016-10-07T16:15:39Z</time></trkpt>
<trkpt lat="29.610036" lon="98.345111">
<time>2016-10-07T16:15:40Z</time></trkpt>
<trkpt lat="29.609925" lon="98.345211">
<time>2016-10-07T16:15:41Z</time></trkpt>
<trkpt lat="29.609835" lon="98.34529">
<time>2016-10-07T16:15:42Z</time></trkpt>
<trkpt lat="29.609715" lon="98.34539">
<time>2016-10-07T16:15:43Z</time></trkpt>
<trkpt lat="29.609595" lon="98.34554">
<time>2016-10-07T16:15:44Z</time></trkpt>
<trkpt lat="29.609545" lon="98.34563">
<time>2016-10-07T16:15:45Z</time></trkpt>
<trkpt lat="29.609495" lon="98.345769">
<time>2016-10-07T16:15:46Z</time></trkpt>
<trkpt lat="29.609454" lon="98.345919">
<time>2016-10-07T16:15:47Z</time></trkpt>
<trkpt lat="29.609414" lon="98.346019">
<time>2016-10-07T16:15:48Z</time></trkpt>
<trkpt lat="29.609354" lon="98.346099">
<time>2016-10-07T16:15:49Z</time></trkpt>
<trkpt lat="29.609324" lon="98.346139">
<time>2016-10-07T16:15:50Z</time></trkpt>
<trkpt lat="29.609284" lon="98.346159">
<time>2016-10-07T16:15:51Z</time></trkpt>
<trkpt lat="29.609234" lon="98.346188">
<time>2016-10-07T16:15:52Z</time></trkpt>
<trkpt lat="29.609184" lon="98.346198">
<time>2016-10-07T16:15:53Z</time></trkpt>
<trkpt lat="29.609134" lon="98.346208">
<time>2016-10-07T16:15:54Z</time></trkpt>
<trkpt lat="29.609094" lon="98.346198">
<time>2016-10-07T16:15:55Z</time></trkpt>
<trkpt lat="29.609054" lon="98.346198">
<time>2016-10-07T16:15:56Z</time></trkpt>
<trkpt lat="29.609004" lon="98.346188">
<time>2016-10-07T16:15:57Z</time></trkpt>
<trkpt lat="29.608934" lon="98.346178">
<time>2016-10-07T16:15:58Z</time></trkpt>
<trkpt lat="29.608804" lon="98.346149">
<time>2016-10-07T16:15:59Z</time></trkpt>
<trkpt lat="29.608584" lon="98.346089">
<time>2016-10-07T16:16:00Z</time></trkpt>
<trkpt lat="29.608404" lon="98.346039">
<time>2016-10-07T16:16:01Z</time></trkpt>
<trkpt lat="29.608194" lon="98.345989">
<time>2016-10-07T16:16:02Z</time></trkpt>
<trkpt lat="29.608035" lon="98.345939">
<time>2016-10-07T16:16:03Z</time></trkpt>
<trkpt lat="29.607765" lon="98.345869">
<time>2016-10-07T16:16:04Z</time></trkpt>
<trkpt lat="29.607535" lon="98.345829">
<time>2016-10-07T16:16:05Z</time></trkpt>
<trkpt lat="29.607275" lon="98.345799">
<time>2016-10-07T16:16:06Z</time></trkpt>
<trkpt lat="29.606945" lon="98.345759">
<time>2016-10-07T16:16:07Z</time></trkpt>
<trkpt lat="29.606705" lon="98.345739">
<time>2016-10-07T16:16:08Z</time></trkpt>
<trkpt lat="29.606505" lon="98.34571">
<time>2016-10-07T16:16:09Z</time></trkpt>
<trkpt lat="29.606416" lon="98.34569">
<time>2016-10-07T16:16:10Z</time></trkpt>
<trkpt lat="29.606356" lon="98.34568">
<time>2016-10-07T16:16:11Z</time></trkpt>
<trkpt lat="29.606266" lon="98.34564">
<time>2016-10-07T16:16:12Z</time></trkpt>
<trkpt lat="29.606186" lon="98.34561">
<time>2016-10-07T16:16:13Z</time></trkpt>
<trkpt lat="29.606136" lon="98.34559">
<time>2016-10-07T16:16:14Z</time></trkpt>
<trkpt lat="29.606046" lon="98.34557">
<time>2016-10-07T16:16:15Z</time></trkpt>
<trkpt lat="29.605966" lon="98.34557">
<time>2016-10-07T16:16:16Z</time></trkpt>
<trkpt lat="29.605916" lon="98.34557">
<time>2016-10-07T16:16:17Z</time></trkpt>
<trkpt lat="29.605726" lon="98.34558">
<time>2016-10-07T16:16:18Z</time></trkpt>
<trkpt lat="29.605626" lon="98.34558">
<time>2016-10-07T16:16:19Z</time></trkpt>
<trkpt lat="29.605436" lon="98.34556">
<time>2016-10-07T16:16:20Z</time></trkpt>
<trkpt lat="29.605256" lon="98.34555">
<time>2016-10-07T16:16:21Z</time></trkpt>
<trkpt lat="29.605056" lon="98.34553">
<time>2016-10-07T16:16:22Z</time></trkpt>
<trkpt lat="29.604846" lon="98.34554">
<time>2016-10-07T16:16:23Z</time></trkpt>
<trkpt lat="29.604596" lon="98.34556">
<time>2016-10-07T16:16:24Z</time></trkpt>
<trkpt lat="29.604416" lon="98.34556">
<time>2016-10-07T16:16:25Z</time></trkpt>
<trkpt lat="29.604306" lon="98.34556">
<time>2016-10-07T16:16:26Z</time></trkpt>
<trkpt lat="29.604186" lon="98.34554">
<time>2016-10-07T16:16:27Z</time></trkpt>
<trkpt lat="29.604037" lon="98.34548">
<time>2016-10-07T16:16:28Z</time></trkpt>
<trkpt lat="29.603927" lon="98.34541">
<time>2016-10-07T16:16:29Z</time></trkpt>
<trkpt lat="29.603797" lon="98.34532">
<time>2016-10-07T16:16:30Z</time></trkpt>
<trkpt lat="29.603697" lon="98.345231">
<time>2016-10-07T16:16:31Z</time></trkpt>
<trkpt lat="29.603617" lon="98.345161">
<time>2016-10-07T16:16:32Z</time></trkpt>
<trkpt lat="29.603538" lon="98.345061">
<time>2016-10-07T16:16:33Z</time></trkpt>
<trkpt lat="29.603448" lon="98.344941">
<time>2016-10-07T16:16:34Z</time></trkpt>
<trkpt lat="29.603398" lon="98.344871">
<time>2016-10-07T16:16:35Z</time></trkpt>
<trkpt lat="29.603338" lon="98.344792">
<time>2016-10-07T16:16:36Z</time></trkpt>
<trkpt lat="29.603248" lon="98.344652">
<time>2016-10-07T16:16:37Z</time></trkpt>
<trkpt lat="29.603099" lon="98.344422">
<time>2016-10-07T16:16:38Z</time></trkpt>
<trkpt lat="29.602999" lon="98.344263">
<time>2016-10-07T16:16:39Z</time></trkpt>
<trkpt lat="29.602939" lon="98.344103">
<time>2016-10-07T16:16:40Z</time></trkpt>
<trkpt lat="29.60292" lon="98.344013">
<time>2016-10-07T16:16:41Z</time></trkpt>
<trkpt lat="29.6029" lon="98.343894">
<time>2016-10-07T16:16:42Z</time></trkpt>
<trkpt lat="29.6029" lon="98.343794">
<time>2016-10-07T16:16:43Z</time></trkpt>
<trkpt lat="29.602951" lon="98.343465">
<time>2016-10-07T16:16:44Z</time></trkpt>
<trkpt lat="29.602951" lon="98.343355">
<time>2016-10-07T16:16:45Z</time></trkpt>
<trkpt lat="29.602941" lon="98.343255">
<time>2016-10-07T16:16:46Z</time></trkpt>
<trkpt lat="29.602921" lon="98.343175">
<time>2016-10-07T16:16:47Z</time></trkpt>
<trkpt lat="29.602911" lon="98.343115">
<time>2016-10-07T16:16:48Z</time></trkpt>
<trkpt lat="29.602851" lon="98.342986">
<time>2016-10-07T16:16:49Z</time></trkpt>
<trkpt lat="29.602822" lon="98.342896">
<time>2016-10-07T16:16:50Z</time></trkpt>
<trkpt lat="29.602802" lon="98.342806">
<time>2016-10-07T16:16:51Z</time></trkpt>
<trkpt lat="29.602802" lon="98.342716">
<time>2016-10-07T16:16:52Z</time></trkpt>
<trkpt lat="29.602802" lon="98.342596">
<time>2016-10-07T16:16:53Z</time></trkpt>
<trkpt lat="29.602822" lon="98.342467">
<time>2016-10-07T16:16:54Z</time></trkpt>
<trkpt lat="29.602843" lon="98.342327">
<time>2016-10-07T16:16:55Z</time></trkpt>
<trkpt lat="29.602873" lon="98.342167">
<time>2016-10-07T16:16:56Z</time></trkpt>
<trkpt lat="29.602883" lon="98.342048">
<time>2016-10-07T16:16:57Z</time></trkpt>
<trkpt lat="29.602893" lon="98.341938">
<time>2016-10-07T16:16:58Z</time></trkpt>
<trkpt lat="29.602884" lon="98.341808">
<time>2016-10-07T16:16:59Z</time></trkpt>
<trkpt lat="29.602874" lon="98.341718">
<time>2016-10-07T16:17:00Z</time></trkpt>
<trkpt lat="29.602864" lon="98.341639">
<time>2016-10-07T16:17:01Z</time></trkpt>
<trkpt lat="29.602864" lon="98.341579">
<time>2016-10-07T16:17:02Z</time></trkpt>
<trkpt lat="29.602864" lon="98.341519">
<time>2016-10-07T16:17:03Z</time></trkpt>
<trkpt lat="29.602884" lon="98.341449">
<time>2016-10-07T16:17:04Z</time></trkpt>
<trkpt lat="29.602924" lon="98.341369">
<time>2016-10-07T16:17:05Z</time></trkpt>
<trkpt lat="29.602954" lon="98.341339">
<time>2016-10-07T16:17:06Z</time></trkpt>
<trkpt lat="29.603025" lon="98.341309">
<time>2016-10-07T16:17:07Z</time></trkpt>
<trkpt lat="29.603085" lon="98.341289">
<time>2016-10-07T16:17:08Z</time></trkpt>
<trkpt lat="29.603155" lon="98.341269">
<time>2016-10-07T16:17:09Z</time></trkpt>
<trkpt lat="29.603205" lon="98.341249">
<time>2016-10-07T16:17:10Z</time></trkpt>
<trkpt lat="29.603245" lon="98.341229">
<time>2016-10-07T16:17:11Z</time></trkpt>
<trkpt lat="29.603275" lon="98.341209">
<time>2016-10-07T16:17:12Z</time></trkpt>
<trkpt lat="29.603305" lon="98.34118">
<time>2016-10-07T16:17:13Z</time></trkpt>
<trkpt lat="29.603345" lon="98.34113">
<time>2016-10-07T16:17:14Z</time></trkpt>
<trkpt lat="29.603405" lon="98.34104">
<time>2016-10-07T16:17:15Z</time></trkpt>
<trkpt lat="29.603455" lon="98.34094">
<time>2016-10-07T16:17:16Z</time></trkpt>
<trkpt lat="29.603495" lon="98.34088">
<time>2016-10-07T16:17:17Z</time></trkpt>
<trkpt lat="29.603515" lon="98.34083">
<time>2016-10-07T16:17:18Z</time></trkpt>
<trkpt lat="29.603535" lon="98.34077">
<time>2016-10-07T16:17:19Z</time></trkpt>
<trkpt lat="29.603566" lon="98.340691">
<time>2016-10-07T16:17:20Z</time></trkpt>
<trkpt lat="29.603576" lon="98.340611">
<time>2016-10-07T16:17:21Z</time></trkpt>
<trkpt lat="29.603576" lon="98.340571">
<time>2016-10-07T16:17:22Z</time></trkpt>
<trkpt lat="29.603576" lon="98.340511">
<time>2016-10-07T16:17:23Z</time></trkpt>
<trkpt lat="29.603566" lon="98.340441">
<time>2016-10-07T16:17:24Z</time></trkpt>
<trkpt lat="29.603556" lon="98.340371">
<time>2016-10-07T16:17:25Z</time></trkpt>
<trkpt lat="29.603536" lon="98.340311">
<time>2016-10-07T16:17:26Z</time></trkpt>
<trkpt lat="29.603516" lon="98.340272">
<time>2016-10-07T16:17:27Z</time></trkpt>
<trkpt lat="29.603496" lon="98.340232">
<time>2016-10-07T16:17:28Z</time></trkpt>
<trkpt lat="29.603446" lon="98.340172">
<time>2016-10-07T16:17:29Z</time></trkpt>
<trkpt lat="29.603397" lon="98.340122">
<time>2016-10-07T16:17:30Z</time></trkpt>
<trkpt lat="29.603367" lon="98.340082">
<time>2016-10-07T16:17:31Z</time></trkpt>
<trkpt lat="29.603327" lon="98.340042">
<time>2016-10-07T16:17:32Z</time></trkpt>
<trkpt lat="29.603277" lon="98.339992">
<time>2016-10-07T16:17:33Z</time></trkpt>
<trkpt lat="29.603237" lon="98.339932">
<time>2016-10-07T16:17:34Z</time></trkpt>
<trkpt lat="29.603207" lon="98.339862">
<time>2016-10-07T16:17:35Z</time></trkpt>
<trkpt lat="29.603177" lon="98.339763">
<time>2016-10-07T16:17:36Z</time></trkpt>
<trkpt lat="29.603128" lon="98.339543">
<time>2016-10-07T16:17:37Z</time></trkpt>
<trkpt lat="29.603118" lon="98.339493">
<time>2016-10-07T16:17:38Z</time></trkpt>
<trkpt lat="29.603088" lon="98.339414">
<time>2016-10-07T16:17:39Z</time></trkpt>
<trkpt lat="29.603068" lon="98.339344">
<time>2016-10-07T16:17:40Z</time></trkpt>
<trkpt lat="29.602989" lon="98.339144">
<time>2016-10-07T16:17:41Z</time></trkpt>
<trkpt lat="29.602949" lon="98.339044">
<time>2016-10-07T16:17:42Z</time></trkpt>
<trkpt lat="29.602919" lon="98.338955">
<time>2016-10-07T16:17:43Z</time></trkpt>
<trkpt lat="29.602899" lon="98.338905">
<time>2016-10-07T16:17:44Z</time></trkpt>
<trkpt lat="29.602869" lon="98.338785">
<time>2016-10-07T16:17:45Z</time></trkpt>
<trkpt lat="29.602849" lon="98.338685">
<time>2016-10-07T16:17:46Z</time></trkpt>
<trkpt lat="29.60283" lon="98.338615">
<time>2016-10-07T16:17:47Z</time></trkpt>
<trkpt lat="29.60281" lon="98.338545">
<time>2016-10-07T16:17:48Z</time></trkpt>
<trkpt lat="29.60277" lon="98.338486">
<time>2016-10-07T16:17:49Z</time></trkpt>
<trkpt lat="29.60274" lon="98.338436">
<time>2016-10-07T16:17:50Z</time></trkpt>
<trkpt lat="29.60269" lon="98.338396">
<time>2016-10-07T16:17:51Z</time></trkpt>
<trkpt lat="29.60263" lon="98.338356">
<time>2016-10-07T16:17:52Z</time></trkpt>
<trkpt lat="29.60253" lon="98.338276">
<time>2016-10-07T16:17:53Z</time></trkpt>
<trkpt lat="29.60246" lon="98.338206">
<time>2016-10-07T16:17:54Z</time></trkpt>
<trkpt lat="29.602401" lon="98.338136">
<time>2016-10-07T16:17:55Z</time></trkpt>
<trkpt lat="29.602371" lon="98.338067">
<time>2016-10-07T16:17:56Z</time></trkpt>
<trkpt lat="29.602341" lon="98.338007">
<time>2016-10-07T16:17:57Z</time></trkpt>
<trkpt lat="29.602331" lon="98.337937">
<time>2016-10-07T16:17:58Z</time></trkpt>
<trkpt lat="29.602321" lon="98.337837">
<time>2016-10-07T16:17:59Z</time></trkpt>
<trkpt lat="29.602331" lon="98.337737">
<time>2016-10-07T16:18:00Z</time></trkpt>
<trkpt lat="29.602362" lon="98.337657">
<time>2016-10-07T16:18:01Z</time></trkpt>
<trkpt lat="29.602452" lon="98.337438">
<time>2016-10-07T16:18:02Z</time></trkpt>
<trkpt lat="29.602482" lon="98.337328">
<time>2016-10-07T16:18:03Z</time></trkpt>
<trkpt lat="29.602512" lon="98.337208">
<time>2016-10-07T16:18:04Z</time></trkpt>
<trkpt lat="29.602513" lon="98.337109">
<time>2016-10-07T16:18:05Z</time></trkpt>
<trkpt lat="29.602513" lon="98.336959">
<time>2016-10-07T16:18:06Z</time></trkpt>
<trkpt lat="29.602503" lon="98.336839">
<time>2016-10-07T16:18:07Z</time></trkpt>
<trkpt lat="29.602453" lon="98.3367">
<time>2016-10-07T16:18:08Z</time></trkpt>
<trkpt lat="29.602393" lon="98.3366">
<time>2016-10-07T16:18:09Z</time></trkpt>
<trkpt lat="29.602314" lon="98.33648">
<time>2016-10-07T16:18:10Z</time></trkpt>
<trkpt lat="29.602224" lon="98.33637">
<time>2016-10-07T16:18:11Z</time></trkpt>
<trkpt lat="29.602124" lon="98.336271">
<time>2016-10-07T16:18:12Z</time></trkpt>
<trkpt lat="29.602024" lon="98.336161">
<time>2016-10-07T16:18:13Z</time></trkpt>
<trkpt lat="29.601895" lon="98.336071">
<time>2016-10-07T16:18:14Z</time></trkpt>
<trkpt lat="29.601755" lon="98.336011">
<time>2016-10-07T16:18:15Z</time></trkpt>
<trkpt lat="29.601575" lon="98.335951">
<time>2016-10-07T16:18:16Z</time></trkpt>
<trkpt lat="29.601445" lon="98.335901">
<time>2016-10-07T16:18:17Z</time></trkpt>
<trkpt lat="29.601325" lon="98.335852">
<time>2016-10-07T16:18:18Z</time></trkpt>
<trkpt lat="29.601175" lon="98.335772">
<time>2016-10-07T16:18:19Z</time></trkpt>
<trkpt lat="29.600946" lon="98.335632">
<time>2016-10-07T16:18:20Z</time></trkpt>
<trkpt lat="29.600866" lon="98.335582">
<time>2016-10-07T16:18:21Z</time></trkpt>
<trkpt lat="29.600806" lon="98.335552">
<time>2016-10-07T16:18:22Z</time></trkpt>
<trkpt lat="29.600756" lon="98.335502">
<time>2016-10-07T16:18:23Z</time></trkpt>
<trkpt lat="29.600716" lon="98.335452">
<time>2016-10-07T16:18:24Z</time></trkpt>
<trkpt lat="29.600676" lon="98.335423">
<time>2016-10-07T16:18:25Z</time></trkpt>
<trkpt lat="29.600646" lon="98.335363">
<time>2016-10-07T16:18:26Z</time></trkpt>
<trkpt lat="29.600607" lon="98.335273">
<time>2016-10-07T16:18:27Z</time></trkpt>
<trkpt lat="29.600557" lon="98.335203">
<time>2016-10-07T16:18:28Z</time></trkpt>
<trkpt lat="29.600517" lon="98.335123">
<time>2016-10-07T16:18:29Z</time></trkpt>
<trkpt lat="29.600437" lon="98.335023">
<time>2016-10-07T16:18:30Z</time></trkpt>
<trkpt lat="29.600357" lon="98.334924">
<time>2016-10-07T16:18:31Z</time></trkpt>
<trkpt lat="29.600297" lon="98.334854">
<time>2016-10-07T16:18:32Z</time></trkpt>
<trkpt lat="29.600258" lon="98.334804">
<time>2016-10-07T16:18:33Z</time></trkpt>
<trkpt lat="29.600218" lon="98.334764">
<time>2016-10-07T16:18:34Z</time></trkpt>
<trkpt lat="29.600178" lon="98.334724">
<time>2016-10-07T16:18:35Z</time></trkpt>
<trkpt lat="29.600138" lon="98.334684">
<time>2016-10-07T16:18:36Z</time></trkpt>
<trkpt lat="29.600108" lon="98.334664">
<time>2016-10-07T16:18:37Z</time></trkpt>
<trkpt lat="29.600048" lon="98.334634">
<time>2016-10-07T16:18:38Z</time></trkpt>
<trkpt lat="29.599988" lon="98.334624">
<time>2016-10-07T16:18:39Z</time></trkpt>
<trkpt lat="29.599928" lon="98.334614">
<time>2016-10-07T16:18:40Z</time></trkpt>
<trkpt lat="29.599878" lon="98.334614">
<time>2016-10-07T16:18:41Z</time></trkpt>
<trkpt lat="29.599798" lon="98.334604">
<time>2016-10-07T16:18:42Z</time></trkpt>
<trkpt lat="29.599748" lon="98.334594">
<time>2016-10-07T16:18:43Z</time></trkpt>
<trkpt lat="29.599708" lon="98.334594">
<time>2016-10-07T16:18:44Z</time></trkpt>
<trkpt lat="29.599628" lon="98.334565">
<time>2016-10-07T16:18:45Z</time></trkpt>
<trkpt lat="29.599568" lon="98.334545">
<time>2016-10-07T16:18:46Z</time></trkpt>
<trkpt lat="29.599528" lon="98.334515">
<time>2016-10-07T16:18:47Z</time></trkpt>
<trkpt lat="29.599468" lon="98.334485">
<time>2016-10-07T16:18:48Z</time></trkpt>
<trkpt lat="29.599398" lon="98.334435">
<time>2016-10-07T16:18:49Z</time></trkpt>
<trkpt lat="29.599329" lon="98.334385">
<time>2016-10-07T16:18:50Z</time></trkpt>
<trkpt lat="29.599239" lon="98.334315">
<time>2016-10-07T16:18:51Z</time></trkpt>
<trkpt lat="29.599179" lon="98.334285">
<time>2016-10-07T16:18:52Z</time></trkpt>
<trkpt lat="29.599139" lon="98.334265">
<time>2016-10-07T16:18:53Z</time></trkpt>
<trkpt lat="29.599089" lon="98.334245">
<time>2016-10-07T16:18:54Z</time></trkpt>
<trkpt lat="29.599029" lon="98.334245">
<time>2016-10-07T16:18:55Z</time></trkpt>
<trkpt lat="29.598949" lon="98.334235">
<time>2016-10-07T16:18:56Z</time></trkpt>
<trkpt lat="29.598849" lon="98.334245">
<time>2016-10-07T16:18:57Z</time></trkpt>
<trkpt lat="29.598689" lon="98.334245">
<time>2016-10-07T16:18:58Z</time></trkpt>
<trkpt lat="29.598639" lon="98.334235">
<time>2016-10-07T16:18:59Z</time></trkpt>
<trkpt lat="29.598589" lon="98.334225">
<time>2016-10-07T16:19:00Z</time></trkpt>
<trkpt lat="29.598539" lon="98.334215">
<time>2016-10-07T16:19:01Z</time></trkpt>
<trkpt lat="29.598489" lon="98.334205">
<time>2016-10-07T16:19:02Z</time></trkpt>
<trkpt lat="29.598379" lon="98.334165">
<time>2016-10-07T16:19:03Z</time></trkpt>
<trkpt lat="29.59815" lon="98.334056">
<time>2016-10-07T16:19:04Z</time></trkpt>
<trkpt lat="29.59808" lon="98.334036">
<time>2016-10-07T16:19:05Z</time></trkpt>
<trkpt lat="29.59803" lon="98.334026">
<time>2016-10-07T16:19:06Z</time></trkpt>
<trkpt lat="29.59797" lon="98.334026">
<time>2016-10-07T16:19:07Z</time></trkpt>
<trkpt lat="29.59791" lon="98.334016">
<time>2016-10-07T16:19:08Z</time></trkpt>
<trkpt lat="29.59785" lon="98.334016">
<time>2016-10-07T16:19:09Z</time></trkpt>
<trkpt lat="29.59782" lon="98.334016">
<time>2016-10-07T16:19:10Z</time></trkpt>
<trkpt lat="29.59779" lon="98.334006">
<time>2016-10-07T16:19:11Z</time></trkpt>
<trkpt lat="29.59775" lon="98.333996">
<time>2016-10-07T16:19:12Z</time></trkpt>
<trkpt lat="29.59771" lon="98.333976">
<time>2016-10-07T16:19:13Z</time></trkpt>
<trkpt lat="29.59769" lon="98.333956">
<time>2016-10-07T16:19:14Z</time></trkpt>
<trkpt lat="29.59767" lon="98.333926">
<time>2016-10-07T16:19:15Z</time></trkpt>
<trkpt lat="29.59765" lon="98.333906">
<time>2016-10-07T16:19:16Z</time></trkpt>
<trkpt lat="29.59763" lon="98.333866">
<time>2016-10-07T16:19:17Z</time></trkpt>
<trkpt lat="29.59761" lon="98.333826">
<time>2016-10-07T16:19:18Z</time></trkpt>
<trkpt lat="29.5976" lon="98.333776">
<time>2016-10-07T16:19:19Z</time></trkpt>
<trkpt lat="29.597531" lon="98.333357">
<time>2016-10-07T16:19:20Z</time></trkpt>
<trkpt lat="29.597511" lon="98.333248">
<time>2016-10-07T16:19:21Z</time></trkpt>
<trkpt lat="29.597491" lon="98.333168">
<time>2016-10-07T16:19:22Z</time></trkpt>
<trkpt lat="29.597482" lon="98.333088">
<time>2016-10-07T16:19:23Z</time></trkpt>
<trkpt lat="29.597472" lon="98.333008">
<time>2016-10-07T16:19:24Z</time></trkpt>
<trkpt lat="29.597462" lon="98.332918">
<time>2016-10-07T16:19:25Z</time></trkpt>
<trkpt lat="29.597442" lon="98.332819">
<time>2016-10-07T16:19:26Z</time></trkpt>
<trkpt lat="29.597403" lon="98.332579">
<time>2016-10-07T16:19:27Z</time></trkpt>
<trkpt lat="29.597373" lon="98.332409">
<time>2016-10-07T16:19:28Z</time></trkpt>
<trkpt lat="29.597363" lon="98.33232">
<time>2016-10-07T16:19:29Z</time></trkpt>
<trkpt lat="29.597363" lon="98.33222">
<time>2016-10-07T16:19:30Z</time></trkpt>
<trkpt lat="29.597394" lon="98.331951">
<time>2016-10-07T16:19:31Z</time></trkpt>
<trkpt lat="29.597444" lon="98.331611">
<time>2016-10-07T16:19:32Z</time></trkpt>
<trkpt lat="29.597455" lon="98.331522">
<time>2016-10-07T16:19:33Z</time></trkpt>
<trkpt lat="29.597455" lon="98.331412">
<time>2016-10-07T16:19:34Z</time></trkpt>
<trkpt lat="29.597435" lon="98.331242">
<time>2016-10-07T16:19:35Z</time></trkpt>
<trkpt lat="29.597406" lon="98.331063">
<time>2016-10-07T16:19:36Z</time></trkpt>
<trkpt lat="29.597346" lon="98.330813">
<time>2016-10-07T16:19:37Z</time></trkpt>
<trkpt lat="29.597286" lon="98.330644">
<time>2016-10-07T16:19:38Z</time></trkpt>
<trkpt lat="29.597207" lon="98.330434">
<time>2016-10-07T16:19:39Z</time></trkpt>
<trkpt lat="29.597028" lon="98.330035">
<time>2016-10-07T16:19:40Z</time></trkpt>
<trkpt lat="29.596848" lon="98.329736">
<time>2016-10-07T16:19:41Z</time></trkpt>
<trkpt lat="29.596798" lon="98.329676">
<time>2016-10-07T16:19:42Z</time></trkpt>
<trkpt lat="29.596768" lon="98.329626">
<time>2016-10-07T16:19:43Z</time></trkpt>
<trkpt lat="29.596729" lon="98.329596">
<time>2016-10-07T16:19:44Z</time></trkpt>
<trkpt lat="29.596679" lon="98.329586">
<time>2016-10-07T16:19:45Z</time></trkpt>
<trkpt lat="29.596619" lon="98.329586">
<time>2016-10-07T16:19:46Z</time></trkpt>
<trkpt lat="29.596539" lon="98.329596">
<time>2016-10-07T16:19:47Z</time></trkpt>
<trkpt lat="29.596469" lon="98.329616">
<time>2016-10-07T16:19:48Z</time></trkpt>
<trkpt lat="29.596288" lon="98.329726">
<time>2016-10-07T16:19:49Z</time></trkpt>
<trkpt lat="29.596198" lon="98.329776">
<time>2016-10-07T16:19:50Z</time></trkpt>
<trkpt lat="29.596098" lon="98.329835">
<time>2016-10-07T16:19:51Z</time></trkpt>
<trkpt lat="29.596048" lon="98.329875">
<time>2016-10-07T16:19:52Z</time></trkpt>
<trkpt lat="29.595978" lon="98.329935">
<time>2016-10-07T16:19:53Z</time></trkpt>
<trkpt lat="29.595928" lon="98.329995">
<time>2016-10-07T16:19:54Z</time></trkpt>
<trkpt lat="29.595888" lon="98.330055">
<time>2016-10-07T16:19:55Z</time></trkpt>
<trkpt lat="29.595858" lon="98.330115">
<time>2016-10-07T16:19:56Z</time></trkpt>
<trkpt lat="29.595818" lon="98.330264">
<time>2016-10-07T16:19:57Z</time></trkpt>
<trkpt lat="29.595787" lon="98.330414">
<time>2016-10-07T16:19:58Z</time></trkpt>
<trkpt lat="29.595767" lon="98.330514">
<time>2016-10-07T16:19:59Z</time></trkpt>
<trkpt lat="29.595727" lon="98.330624">
<time>2016-10-07T16:20:00Z</time></trkpt>
<trkpt lat="29.595697" lon="98.330713">
<time>2016-10-07T16:20:01Z</time></trkpt>
<trkpt lat="29.595647" lon="98.330833">
<time>2016-10-07T16:20:02Z</time></trkpt>
<trkpt lat="29.595576" lon="98.330923">
<time>2016-10-07T16:20:03Z</time></trkpt>
<trkpt lat="29.595476" lon="98.331043">
<time>2016-10-07T16:20:04Z</time></trkpt>
<trkpt lat="29.595396" lon="98.331132">
<time>2016-10-07T16:20:05Z</time></trkpt>
<trkpt lat="29.595346" lon="98.331202">
<time>2016-10-07T16:20:06Z</time></trkpt>
<trkpt lat="29.595296" lon="98.331282">
<time>2016-10-07T16:20:07Z</time></trkpt>
<trkpt lat="29.595256" lon="98.331352">
<time>2016-10-07T16:20:08Z</time></trkpt>
<trkpt lat="29.595216" lon="98.331422">
<time>2016-10-07T16:20:09Z</time></trkpt>
<trkpt lat="29.595165" lon="98.331512">
<time>2016-10-07T16:20:10Z</time></trkpt>
<trkpt lat="29.595125" lon="98.331581">
<time>2016-10-07T16:20:11Z</time></trkpt>
<trkpt lat="29.595075" lon="98.331671">
<time>2016-10-07T16:20:12Z</time></trkpt>
<trkpt lat="29.595045" lon="98.331721">
<time>2016-10-07T16:20:13Z</time></trkpt>
<trkpt lat="29.594985" lon="98.331801">
<time>2016-10-07T16:20:14Z</time></trkpt>
<trkpt lat="29.594905" lon="98.331901">
<time>2016-10-07T16:20:15Z</time></trkpt>
<trkpt lat="29.594855" lon="98.331971">
<time>2016-10-07T16:20:16Z</time></trkpt>
<trkpt lat="29.594804" lon="98.33203">
<time>2016-10-07T16:20:17Z</time></trkpt>
<trkpt lat="29.594784" lon="98.3321">
<time>2016-10-07T16:20:18Z</time></trkpt>
<trkpt lat="29.594754" lon="98.33217">
<time>2016-10-07T16:20:19Z</time></trkpt>
<trkpt lat="29.594754" lon="98.33226">
<time>2016-10-07T16:20:20Z</time></trkpt>
<trkpt lat="29.594744" lon="98.33233">
<time>2016-10-07T16:20:21Z</time></trkpt>
<trkpt lat="29.594714" lon="98.3324">
<time>2016-10-07T16:20:22Z</time></trkpt>
<trkpt lat="29.594694" lon="98.332459">
<time>2016-10-07T16:20:23Z</time></trkpt>
<trkpt lat="29.594654" lon="98.332519">
<time>2016-10-07T16:20:24Z</time></trkpt>
<trkpt lat="29.594604" lon="98.332559">
<time>2016-10-07T16:20:25Z</time></trkpt>
<trkpt lat="29.594563" lon="98.332599">
<time>2016-10-07T16:20:26Z</time></trkpt>
<trkpt lat="29.594523" lon="98.332629">
<time>2016-10-07T16:20:27Z</time></trkpt>
<trkpt lat="29.594443" lon="98.332699">
<time>2016-10-07T16:20:28Z</time></trkpt>
<trkpt lat="29.594373" lon="98.332769">
<time>2016-10-07T16:20:29Z</time></trkpt>
<trkpt lat="29.594323" lon="98.332829">
<time>2016-10-07T16:20:30Z</time></trkpt>
<trkpt lat="29.594273" lon="98.332908">
<time>2016-10-07T16:20:31Z</time></trkpt>
<trkpt lat="29.594213" lon="98.333008">
<time>2016-10-07T16:20:32Z</time></trkpt>
<trkpt lat="29.594153" lon="98.333118">
<time>2016-10-07T16:20:33Z</time></trkpt>
<trkpt lat="29.594102" lon="98.333208">
<time>2016-10-07T16:20:34Z</time></trkpt>
<trkpt lat="29.594062" lon="98.333278">
<time>2016-10-07T16:20:35Z</time></trkpt>
<trkpt lat="29.594022" lon="98.333337">
<time>2016-10-07T16:20:36Z</time></trkpt>
<trkpt lat="29.593972" lon="98.333397">
<time>2016-10-07T16:20:37Z</time></trkpt>
<trkpt lat="29.593912" lon="98.333467">
<time>2016-10-07T16:20:38Z</time></trkpt>
<trkpt lat="29.593832" lon="98.333527">
<time>2016-10-07T16:20:39Z</time></trkpt>
<trkpt lat="29.593742" lon="98.333567">
<time>2016-10-07T16:20:40Z</time></trkpt>
<trkpt lat="29.593662" lon="98.333587">
<time>2016-10-07T16:20:41Z</time></trkpt>
<trkpt lat="29.593582" lon="98.333597">
<time>2016-10-07T16:20:42Z</time></trkpt>
<trkpt lat="29.593482" lon="98.333597">
<time>2016-10-07T16:20:43Z</time></trkpt>
<trkpt lat="29.593392" lon="98.333587">
<time>2016-10-07T16:20:44Z</time></trkpt>
<trkpt lat="29.593302" lon="98.333567">
<time>2016-10-07T16:20:45Z</time></trkpt>
<trkpt lat="29.593212" lon="98.333557">
<time>2016-10-07T16:20:46Z</time></trkpt>
<trkpt lat="29.593122" lon="98.333537">
<time>2016-10-07T16:20:47Z</time></trkpt>
<trkpt lat="29.593022" lon="98.333517">
<time>2016-10-07T16:20:48Z</time></trkpt>
<trkpt lat="29.592982" lon="98.333517">
<time>2016-10-07T16:20:49Z</time></trkpt>
<trkpt lat="29.592952" lon="98.333517">
<time>2016-10-07T16:20:50Z</time></trkpt>
<trkpt lat="29.592912" lon="98.333517">
<time>2016-10-07T16:20:51Z</time></trkpt>
<trkpt lat="29.592872" lon="98.333517">
<time>2016-10-07T16:20:52Z</time></trkpt>
<trkpt lat="29.592822" lon="98.333537">
<time>2016-10-07T16:20:53Z</time></trkpt>
<trkpt lat="29.592732" lon="98.333567">
<time>2016-10-07T16:20:54Z</time></trkpt>
<trkpt lat="29.592672" lon="98.333587">
<time>2016-10-07T16:20:55Z</time></trkpt>
<trkpt lat="29.592622" lon="98.333597">
<time>2016-10-07T16:20:56Z</time></trkpt>
<trkpt lat="29.592592" lon="98.333597">
<time>2016-10-07T16:20:57Z</time></trkpt>
<trkpt lat="29.592552" lon="98.333597">
<time>2016-10-07T16:20:58Z</time></trkpt>
<trkpt lat="29.592532" lon="98.333597">
<time>2016-10-07T16:20:59Z</time></trkpt>
<trkpt lat="29.592502" lon="98.333587">
<time>2016-10-07T16:21:00Z</time></trkpt>
<trkpt lat="29.592462" lon="98.333567">
<time>2016-10-07T16:21:01Z</time></trkpt>
<trkpt lat="29.592422" lon="98.333547">
<time>2016-10-07T16:21:02Z</time></trkpt>
<trkpt lat="29.592372" lon="98.333507">
<time>2016-10-07T16:21:03Z</time></trkpt>
<trkpt lat="29.592263" lon="98.333417">
<time>2016-10-07T16:21:04Z</time></trkpt>
<trkpt lat="29.592203" lon="98.333367">
<time>2016-10-07T16:21:05Z</time></trkpt>
<trkpt lat="29.592123" lon="98.333308">
<time>2016-10-07T16:21:06Z</time></trkpt>
<trkpt lat="29.592043" lon="98.333238">
<time>2016-10-07T16:21:07Z</time></trkpt>
<trkpt lat="29.591993" lon="98.333208">
<time>2016-10-07T16:21:08Z</time></trkpt>
<trkpt lat="29.591923" lon="98.333178">
<time>2016-10-07T16:21:09Z</time></trkpt>
<trkpt lat="29.591863" lon="98.333158">
<time>2016-10-07T16:21:10Z</time></trkpt>
<trkpt lat="29.591813" lon="98.333148">
<time>2016-10-07T16:21:11Z</time></trkpt>
<trkpt lat="29.591753" lon="98.333138">
<time>2016-10-07T16:21:12Z</time></trkpt>
<trkpt lat="29.591703" lon="98.333128">
<time>2016-10-07T16:21:13Z</time></trkpt>
<trkpt lat="29.591663" lon="98.333108">
<time>2016-10-07T16:21:14Z</time></trkpt>
<trkpt lat="29.591613" lon="98.333088">
<time>2016-10-07T16:21:15Z</time></trkpt>
<trkpt lat="29.591564" lon="98.333058">
<time>2016-10-07T16:21:16Z</time></trkpt>
<trkpt lat="29.591494" lon="98.333018">
<time>2016-10-07T16:21:17Z</time></trkpt>
<trkpt lat="29.591424" lon="98.332968">
<time>2016-10-07T16:21:18Z</time></trkpt>
<trkpt lat="29.591334" lon="98.332888">
<time>2016-10-07T16:21:19Z</time></trkpt>
<trkpt lat="29.591254" lon="98.332829">
<time>2016-10-07T16:21:20Z</time></trkpt>
<trkpt lat="29.591134" lon="98.332729">
<time>2016-10-07T16:21:21Z</time></trkpt>
<trkpt lat="29.590975" lon="98.332599">
<time>2016-10-07T16:21:22Z</time></trkpt>
<trkpt lat="29.590875" lon="98.332509">
<time>2016-10-07T16:21:23Z</time></trkpt>
<trkpt lat="29.590775" lon="98.33242">
<time>2016-10-07T16:21:24Z</time></trkpt>
<trkpt lat="29.590685" lon="98.33235">
<time>2016-10-07T16:21:25Z</time></trkpt>
<trkpt lat="29.590615" lon="98.3323">
<time>2016-10-07T16:21:26Z</time></trkpt>
<trkpt lat="29.590545" lon="98.33227">
<time>2016-10-07T16:21:27Z</time></trkpt>
<trkpt lat="29.590475" lon="98.33225">
<time>2016-10-07T16:21:28Z</time></trkpt>
<trkpt lat="29.590395" lon="98.33224">
<time>2016-10-07T16:21:29Z</time></trkpt>
<trkpt lat="29.590265" lon="98.33224">
<time>2016-10-07T16:21:30Z</time></trkpt>
<trkpt lat="29.590116" lon="98.33225">
<time>2016-10-07T16:21:31Z</time></trkpt>
<trkpt lat="29.590006" lon="98.33225">
<time>2016-10-07T16:21:32Z</time></trkpt>
<trkpt lat="29.589896" lon="98.33225">
<time>2016-10-07T16:21:33Z</time></trkpt>
<trkpt lat="29.589776" lon="98.33225">
<time>2016-10-07T16:21:34Z</time></trkpt>
<trkpt lat="29.589696" lon="98.33225">
<time>2016-10-07T16:21:35Z</time></trkpt>
<trkpt lat="29.589626" lon="98.33224">
<time>2016-10-07T16:21:36Z</time></trkpt>
<trkpt lat="29.589586" lon="98.33222">
<time>2016-10-07T16:21:37Z</time></trkpt>
<trkpt lat="29.589536" lon="98.33219">
<time>2016-10-07T16:21:38Z</time></trkpt>
<trkpt lat="29.589486" lon="98.33215">
<time>2016-10-07T16:21:39Z</time></trkpt>
<trkpt lat="29.589446" lon="98.33209">
<time>2016-10-07T16:21:40Z</time></trkpt>
<trkpt lat="29.589356" lon="98.331921">
<time>2016-10-07T16:21:41Z</time></trkpt>
<trkpt lat="29.589237" lon="98.331631">
<time>2016-10-07T16:21:42Z</time></trkpt>
<trkpt lat="29.589138" lon="98.331342">
<time>2016-10-07T16:21:43Z</time></trkpt>
<trkpt lat="29.589108" lon="98.331242">
<time>2016-10-07T16:21:44Z</time></trkpt>
<trkpt lat="29.589058" lon="98.331053">
<time>2016-10-07T16:21:45Z</time></trkpt>
<trkpt lat="29.589038" lon="98.331013">
<time>2016-10-07T16:21:46Z</time></trkpt>
<trkpt lat="29.589018" lon="98.330973">
<time>2016-10-07T16:21:47Z</time></trkpt>
<trkpt lat="29.588978" lon="98.330923">
<time>2016-10-07T16:21:48Z</time></trkpt>
<trkpt lat="29.588929" lon="98.330883">
<time>2016-10-07T16:21:49Z</time></trkpt>
<trkpt lat="29.588879" lon="98.330853">
<time>2016-10-07T16:21:50Z</time></trkpt>
<trkpt lat="29.588839" lon="98.330833">
<time>2016-10-07T16:21:51Z</time></trkpt>
<trkpt lat="29.588799" lon="98.330813">
<time>2016-10-07T16:21:52Z</time></trkpt>
<trkpt lat="29.588769" lon="98.330783">
<time>2016-10-07T16:21:53Z</time></trkpt>
<trkpt lat="29.588739" lon="98.330753">
<time>2016-10-07T16:21:54Z</time></trkpt>
<trkpt lat="29.588699" lon="98.330714">
<time>2016-10-07T16:21:55Z</time></trkpt>
<trkpt lat="29.588669" lon="98.330654">
<time>2016-10-07T16:21:56Z</time></trkpt>
<trkpt lat="29.588639" lon="98.330594">
<time>2016-10-07T16:21:57Z</time></trkpt>
<trkpt lat="29.588629" lon="98.330534">
<time>2016-10-07T16:21:58Z</time></trkpt>
<trkpt lat="29.588609" lon="98.330484">
<time>2016-10-07T16:21:59Z</time></trkpt>
<trkpt lat="29.5886" lon="98.330404">
<time>2016-10-07T16:22:00Z</time></trkpt>
<trkpt lat="29.58856" lon="98.330314">
<time>2016-10-07T16:22:01Z</time></trkpt>
<trkpt lat="29.58854" lon="98.330275">
<time>2016-10-07T16:22:02Z</time></trkpt>
<trkpt lat="29.5885" lon="98.330235">
<time>2016-10-07T16:22:03Z</time></trkpt>
<trkpt lat="29.58847" lon="98.330215">
<time>2016-10-07T16:22:04Z</time></trkpt>
<trkpt lat="29.58842" lon="98.330195">
<time>2016-10-07T16:22:05Z</time></trkpt>
<trkpt lat="29.58837" lon="98.330185">
<time>2016-10-07T16:22:06Z</time></trkpt>
<trkpt lat="29.58831" lon="98.330175">
<time>2016-10-07T16:22:07Z</time></trkpt>
<trkpt lat="29.58823" lon="98.330205">
<time>2016-10-07T16:22:08Z</time></trkpt>
<trkpt lat="29.58812" lon="98.330255">
<time>2016-10-07T16:22:09Z</time></trkpt>
<trkpt lat="29.58782" lon="98.330384">
<time>2016-10-07T16:22:10Z</time></trkpt>
<trkpt lat="29.5877" lon="98.330424">
<time>2016-10-07T16:22:11Z</time></trkpt>
<trkpt lat="29.58759" lon="98.330464">
<time>2016-10-07T16:22:12Z</time></trkpt>
<trkpt lat="29.58749" lon="98.330494">
<time>2016-10-07T16:22:13Z</time></trkpt>
<trkpt lat="29.58741" lon="98.330484">
<time>2016-10-07T16:22:14Z</time></trkpt>
<trkpt lat="29.5873" lon="98.330474">
<time>2016-10-07T16:22:15Z</time></trkpt>
<trkpt lat="29.58717" lon="98.330444">
<time>2016-10-07T16:22:16Z</time></trkpt>
<trkpt lat="29.587" lon="98.330394">
<time>2016-10-07T16:22:17Z</time></trkpt>
<trkpt lat="29.58681" lon="98.330354">
<time>2016-10-07T16:22:18Z</time></trkpt>
<trkpt lat="29.58656" lon="98.330275">
<time>2016-10-07T16:22:19Z</time></trkpt>
<trkpt lat="29.586411" lon="98.330235">
<time>2016-10-07T16:22:20Z</time></trkpt>
<trkpt lat="29.586311" lon="98.330225">
<time>2016-10-07T16:22:21Z</time></trkpt>
<trkpt lat="29.586231" lon="98.330225">
<time>2016-10-07T16:22:22Z</time></trkpt>
<trkpt lat="29.586181" lon="98.330235">
<time>2016-10-07T16:22:23Z</time></trkpt>
<trkpt lat="29.586151" lon="98.330255">
<time>2016-10-07T16:22:24Z</time></trkpt>
<trkpt lat="29.586101" lon="98.330295">
<time>2016-10-07T16:22:25Z</time></trkpt>
<trkpt lat="29.58606" lon="98.330364">
<time>2016-10-07T16:22:26Z</time></trkpt>
<trkpt lat="29.58602" lon="98.330434">
<time>2016-10-07T16:22:27Z</time></trkpt>
<trkpt lat="29.58597" lon="98.330514">
<time>2016-10-07T16:22:28Z</time></trkpt>
<trkpt lat="29.58591" lon="98.330574">
<time>2016-10-07T16:22:29Z</time></trkpt>
<trkpt lat="29.58581" lon="98.330624">
<time>2016-10-07T16:22:30Z</time></trkpt>
<trkpt lat="29.58564" lon="98.330674">
<time>2016-10-07T16:22:31Z</time></trkpt>
<trkpt lat="29.58555" lon="98.330694">
<time>2016-10-07T16:22:32Z</time></trkpt>
<trkpt lat="29.58546" lon="98.330714">
<time>2016-10-07T16:22:33Z</time></trkpt>
<trkpt lat="29.58536" lon="98.330734">
<time>2016-10-07T16:22:34Z</time></trkpt>
<trkpt lat="29.58529" lon="98.330744">
<time>2016-10-07T16:22:35Z</time></trkpt>
<trkpt lat="29.58522" lon="98.330734">
<time>2016-10-07T16:22:36Z</time></trkpt>
<trkpt lat="29.58515" lon="98.330714">
<time>2016-10-07T16:22:37Z</time></trkpt>
<trkpt lat="29.58487" lon="98.330554">
<time>2016-10-07T16:22:38Z</time></trkpt>
<trkpt lat="29.584751" lon="98.330484">
<time>2016-10-07T16:22:39Z</time></trkpt>
<trkpt lat="29.584641" lon="98.330434">
<time>2016-10-07T16:22:40Z</time></trkpt>
<trkpt lat="29.584521" lon="98.330394">
<time>2016-10-07T16:22:41Z</time></trkpt>
<trkpt lat="29.584321" lon="98.330344">
<time>2016-10-07T16:22:42Z</time></trkpt>
<trkpt lat="29.584141" lon="98.330295">
<time>2016-10-07T16:22:43Z</time></trkpt>
<trkpt lat="29.584081" lon="98.330275">
<time>2016-10-07T16:22:44Z</time></trkpt>
<trkpt lat="29.584011" lon="98.330245">
<time>2016-10-07T16:22:45Z</time></trkpt>
<trkpt lat="29.583951" lon="98.330225">
<time>2016-10-07T16:22:46Z</time></trkpt>
<trkpt lat="29.583851" lon="98.330165">
<time>2016-10-07T16:22:47Z</time></trkpt>
<trkpt lat="29.583772" lon="98.330105">
<time>2016-10-07T16:22:48Z</time></trkpt>
<trkpt lat="29.583712" lon="98.330065">
<time>2016-10-07T16:22:49Z</time></trkpt>
<trkpt lat="29.583642" lon="98.330015">
<time>2016-10-07T16:22:50Z</time></trkpt>
<trkpt lat="29.583582" lon="98.329975">
<time>2016-10-07T16:22:51Z</time></trkpt>
<trkpt lat="29.583502" lon="98.329915">
<time>2016-10-07T16:22:52Z</time></trkpt>
<trkpt lat="29.583442" lon="98.329886">
<time>2016-10-07T16:22:53Z</time></trkpt>
<trkpt lat="29.583402" lon="98.329866">
<time>2016-10-07T16:22:54Z</time></trkpt>
<trkpt lat="29.583362" lon="98.329856">
<time>2016-10-07T16:22:55Z</time></trkpt>
<trkpt lat="29.583282" lon="98.329816">
<time>2016-10-07T16:22:56Z</time></trkpt>
<trkpt lat="29.583142" lon="98.329776">
<time>2016-10-07T16:22:57Z</time></trkpt>
<trkpt lat="29.582853" lon="98.329706">
<time>2016-10-07T16:22:58Z</time></trkpt>
<trkpt lat="29.582673" lon="98.329666">
<time>2016-10-07T16:22:59Z</time></trkpt>
<trkpt lat="29.582573" lon="98.329636">
<time>2016-10-07T16:23:00Z</time></trkpt>
<trkpt lat="29.582513" lon="98.329616">
<time>2016-10-07T16:23:01Z</time></trkpt>
<trkpt lat="29.582443" lon="98.329576">
<time>2016-10-07T16:23:02Z</time></trkpt>
<trkpt lat="29.582353" lon="98.329516">
<time>2016-10-07T16:23:03Z</time></trkpt>
<trkpt lat="29.582293" lon="98.329447">
<time>2016-10-07T16:23:04Z</time></trkpt>
<trkpt lat="29.582214" lon="98.329347">
<time>2016-10-07T16:23:05Z</time></trkpt>
<trkpt lat="29.582154" lon="98.329277">
<time>2016-10-07T16:23:06Z</time></trkpt>
<trkpt lat="29.582084" lon="98.329177">
<time>2016-10-07T16:23:07Z</time></trkpt>
<trkpt lat="29.582034" lon="98.329107">
<time>2016-10-07T16:23:08Z</time></trkpt>
<trkpt lat="29.581964" lon="98.329008">
<time>2016-10-07T16:23:09Z</time></trkpt>
<trkpt lat="29.581904" lon="98.328928">
<time>2016-10-07T16:23:10Z</time></trkpt>
<trkpt lat="29.581835" lon="98.328848">
<time>2016-10-07T16:23:11Z</time></trkpt>
<trkpt lat="29.581795" lon="98.328788">
<time>2016-10-07T16:23:12Z</time></trkpt>
<trkpt lat="29.581725" lon="98.328718">
<time>2016-10-07T16:23:13Z</time></trkpt>
<trkpt lat="29.581665" lon="98.328668">
<time>2016-10-07T16:23:14Z</time></trkpt>
<trkpt lat="29.581625" lon="98.328648">
<time>2016-10-07T16:23:15Z</time></trkpt>
<trkpt lat="29.581565" lon="98.328618">
<time>2016-10-07T16:23:16Z</time></trkpt>
<trkpt lat="29.581495" lon="98.328589">
<time>2016-10-07T16:23:17Z</time></trkpt>
<trkpt lat="29.581415" lon="98.328589">
<time>2016-10-07T16:23:18Z</time></trkpt>
<trkpt lat="29.581355" lon="98.328579">
<time>2016-10-07T16:23:19Z</time></trkpt>
<trkpt lat="29.581305" lon="98.328579">
<time>2016-10-07T16:23:20Z</time></trkpt>
<trkpt lat="29.581275" lon="98.328579">
<time>2016-10-07T16:23:21Z</time></trkpt>
<trkpt lat="29.581225" lon="98.328579">
<time>2016-10-07T16:23:22Z</time></trkpt>
<trkpt lat="29.581175" lon="98.328559">
<time>2016-10-07T16:23:23Z</time></trkpt>
<trkpt lat="29.581145" lon="98.328539">
<time>2016-10-07T16:23:24Z</time></trkpt>
<trkpt lat="29.581116" lon="98.328529">
<time>2016-10-07T16:23:25Z</time></trkpt>
<trkpt lat="29.581076" lon="98.328489">
<time>2016-10-07T16:23:26Z</time></trkpt>
<trkpt lat="29.581046" lon="98.328459">
<time>2016-10-07T16:23:27Z</time></trkpt>
<trkpt lat="29.581016" lon="98.328419">
<time>2016-10-07T16:23:28Z</time></trkpt>
<trkpt lat="29.580976" lon="98.328369">
<time>2016-10-07T16:23:29Z</time></trkpt>
<trkpt lat="29.580946" lon="98.328309">
<time>2016-10-07T16:23:30Z</time></trkpt>
<trkpt lat="29.580836" lon="98.32815">
<time>2016-10-07T16:23:31Z</time></trkpt>
<trkpt lat="29.580727" lon="98.328">
<time>2016-10-07T16:23:32Z</time></trkpt>
<trkpt lat="29.580647" lon="98.32788">
<time>2016-10-07T16:23:33Z</time></trkpt>
<trkpt lat="29.580587" lon="98.32779">
<time>2016-10-07T16:23:34Z</time></trkpt>
<trkpt lat="29.580557" lon="98.32773">
<time>2016-10-07T16:23:35Z</time></trkpt>
<trkpt lat="29.580547" lon="98.327681">
<time>2016-10-07T16:23:36Z</time></trkpt>
<trkpt lat="29.580527" lon="98.327621">
<time>2016-10-07T16:23:37Z</time></trkpt>
<trkpt lat="29.580528" lon="98.327571">
<time>2016-10-07T16:23:38Z</time></trkpt>
<trkpt lat="29.580528" lon="98.327511">
<time>2016-10-07T16:23:39Z</time></trkpt>
<trkpt lat="29.580538" lon="98.327461">
<time>2016-10-07T16:23:40Z</time></trkpt>
<trkpt lat="29.580548" lon="98.327401">
<time>2016-10-07T16:23:41Z</time></trkpt>
<trkpt lat="29.580558" lon="98.327321">
<time>2016-10-07T16:23:42Z</time></trkpt>
<trkpt lat="29.580588" lon="98.327212">
<time>2016-10-07T16:23:43Z</time></trkpt>
<trkpt lat="29.580608" lon="98.327122">
<time>2016-10-07T16:23:44Z</time></trkpt>
<trkpt lat="29.580618" lon="98.327072">
<time>2016-10-07T16:23:45Z</time></trkpt>
<trkpt lat="29.580629" lon="98.326992">
<time>2016-10-07T16:23:46Z</time></trkpt>
<trkpt lat="29.580649" lon="98.326902">
<time>2016-10-07T16:23:47Z</time></trkpt>
<trkpt lat="29.580649" lon="98.326793">
<time>2016-10-07T16:23:48Z</time></trkpt>
<trkpt lat="29.580639" lon="98.326723">
<time>2016-10-07T16:23:49Z</time></trkpt>
<trkpt lat="29.580629" lon="98.326643">
<time>2016-10-07T16:23:50Z</time></trkpt>
<trkpt lat="29.580599" lon="98.326553">
<time>2016-10-07T16:23:51Z</time></trkpt>
<trkpt lat="29.58058" lon="98.326493">
<time>2016-10-07T16:23:52Z</time></trkpt>
<trkpt lat="29.58056" lon="98.326433">
<time>2016-10-07T16:23:53Z</time></trkpt>
<trkpt lat="29.58054" lon="98.326384">
<time>2016-10-07T16:23:54Z</time></trkpt>
<trkpt lat="29.58051" lon="98.326344">
<time>2016-10-07T16:23:55Z</time></trkpt>
<trkpt lat="29.58048" lon="98.326294">
<time>2016-10-07T16:23:56Z</time></trkpt>
<trkpt lat="29.58045" lon="98.326254">
<time>2016-10-07T16:23:57Z</time></trkpt>
<trkpt lat="29.58041" lon="98.326214">
<time>2016-10-07T16:23:58Z</time></trkpt>
<trkpt lat="29.58034" lon="98.326144">
<time>2016-10-07T16:23:59Z</time></trkpt>
<trkpt lat="29.58028" lon="98.326094">
<time>2016-10-07T16:24:00Z</time></trkpt>
<trkpt lat="29.580231" lon="98.326074">
<time>2016-10-07T16:24:01Z</time></trkpt>
<trkpt lat="29.580181" lon="98.326034">
<time>2016-10-07T16:24:02Z</time></trkpt>
<trkpt lat="29.580121" lon="98.325984">
<time>2016-10-07T16:24:03Z</time></trkpt>
<trkpt lat="29.580091" lon="98.325945">
<time>2016-10-07T16:24:04Z</time></trkpt>
<trkpt lat="29.580051" lon="98.325875">
<time>2016-10-07T16:24:05Z</time></trkpt>
<trkpt lat="29.580021" lon="98.325815">
<time>2016-10-07T16:24:06Z</time></trkpt>
<trkpt lat="29.580011" lon="98.325785">
<time>2016-10-07T16:24:07Z</time></trkpt>
<trkpt lat="29.579991" lon="98.325745">
<time>2016-10-07T16:24:08Z</time></trkpt>
<trkpt lat="29.579981" lon="98.325695">
<time>2016-10-07T16:24:09Z</time></trkpt>
<trkpt lat="29.579981" lon="98.325645">
<time>2016-10-07T16:24:10Z</time></trkpt>
<trkpt lat="29.579981" lon="98.325605">
<time>2016-10-07T16:24:11Z</time></trkpt>
<trkpt lat="29.579982" lon="98.325565">
<time>2016-10-07T16:24:12Z</time></trkpt>
<trkpt lat="29.579992" lon="98.325516">
<time>2016-10-07T16:24:13Z</time></trkpt>
<trkpt lat="29.580012" lon="98.325466">
<time>2016-10-07T16:24:14Z</time></trkpt>
<trkpt lat="29.580052" lon="98.325396">
<time>2016-10-07T16:24:15Z</time></trkpt>
<trkpt lat="29.580102" lon="98.325336">
<time>2016-10-07T16:24:16Z</time></trkpt>
<trkpt lat="29.580142" lon="98.325276">
<time>2016-10-07T16:24:17Z</time></trkpt>
<trkpt lat="29.580202" lon="98.325186">
<time>2016-10-07T16:24:18Z</time></trkpt>
<trkpt lat="29.580232" lon="98.325126">
<time>2016-10-07T16:24:19Z</time></trkpt>
<trkpt lat="29.580262" lon="98.325047">
<time>2016-10-07T16:24:20Z</time></trkpt>
<trkpt lat="29.580323" lon="98.324857">
<time>2016-10-07T16:24:21Z</time></trkpt>
<trkpt lat="29.580383" lon="98.324588">
<time>2016-10-07T16:24:22Z</time></trkpt>
<trkpt lat="29.580494" lon="98.324189">
<time>2016-10-07T16:24:23Z</time></trkpt>
<trkpt lat="29.580605" lon="98.323819">
<time>2016-10-07T16:24:24Z</time></trkpt>
<trkpt lat="29.580655" lon="98.32368">
<time>2016-10-07T16:24:25Z</time></trkpt>
<trkpt lat="29.580685" lon="98.3236">
<time>2016-10-07T16:24:26Z</time></trkpt>
<trkpt lat="29.580725" lon="98.32353">
<time>2016-10-07T16:24:27Z</time></trkpt>
<trkpt lat="29.580765" lon="98.32348">
<time>2016-10-07T16:24:28Z</time></trkpt>
<trkpt lat="29.580805" lon="98.32344">
<time>2016-10-07T16:24:29Z</time></trkpt>
<trkpt lat="29.580885" lon="98.32337">
<time>2016-10-07T16:24:30Z</time></trkpt>
<trkpt lat="29.580956" lon="98.323331">
<time>2016-10-07T16:24:31Z</time></trkpt>
<trkpt lat="29.581006" lon="98.323301">
<time>2016-10-07T16:24:32Z</time></trkpt>
<trkpt lat="29.581036" lon="98.323281">
<time>2016-10-07T16:24:33Z</time></trkpt>
<trkpt lat="29.581076" lon="98.323261">
<time>2016-10-07T16:24:34Z</time></trkpt>
<trkpt lat="29.581106" lon="98.323231">
<time>2016-10-07T16:24:35Z</time></trkpt>
<trkpt lat="29.581136" lon="98.323181">
<time>2016-10-07T16:24:36Z</time></trkpt>
<trkpt lat="29.581156" lon="98.323131">
<time>2016-10-07T16:24:37Z</time></trkpt>
<trkpt lat="29.581176" lon="98.323091">
<time>2016-10-07T16:24:38Z</time></trkpt>
<trkpt lat="29.581176" lon="98.323041">
<time>2016-10-07T16:24:39Z</time></trkpt>
<trkpt lat="29.581186" lon="98.322981">
<time>2016-10-07T16:24:40Z</time></trkpt>
<trkpt lat="29.581186" lon="98.322941">
<time>2016-10-07T16:24:41Z</time></trkpt>
<trkpt lat="29.581176" lon="98.322901">
<time>2016-10-07T16:24:42Z</time></trkpt>
<trkpt lat="29.581166" lon="98.322862">
<time>2016-10-07T16:24:43Z</time></trkpt>
<trkpt lat="29.581156" lon="98.322812">
<time>2016-10-07T16:24:44Z</time></trkpt>
<trkpt lat="29.581137" lon="98.322762">
<time>2016-10-07T16:24:45Z</time></trkpt>
<trkpt lat="29.581117" lon="98.322722">
<time>2016-10-07T16:24:46Z</time></trkpt>
<trkpt lat="29.581087" lon="98.322672">
<time>2016-10-07T16:24:47Z</time></trkpt>
<trkpt lat="29.581047" lon="98.322622">
<time>2016-10-07T16:24:48Z</time></trkpt>
<trkpt lat="29.580987" lon="98.322562">
<time>2016-10-07T16:24:49Z</time></trkpt>
<trkpt lat="29.580907" lon="98.322492">
<time>2016-10-07T16:24:50Z</time></trkpt>
<trkpt lat="29.580737" lon="98.322373">
<time>2016-10-07T16:24:51Z</time></trkpt>
<trkpt lat="29.580558" lon="98.322253">
<time>2016-10-07T16:24:52Z</time></trkpt>
<trkpt lat="29.580518" lon="98.322223">
<time>2016-10-07T16:24:53Z</time></trkpt>
<trkpt lat="29.580438" lon="98.322153">
<time>2016-10-07T16:24:54Z</time></trkpt>
<trkpt lat="29.580408" lon="98.322123">
<time>2016-10-07T16:24:55Z</time></trkpt>
<trkpt lat="29.580368" lon="98.322073">
<time>2016-10-07T16:24:56Z</time></trkpt>
<trkpt lat="29.580328" lon="98.322023">
<time>2016-10-07T16:24:57Z</time></trkpt>
<trkpt lat="29.580308" lon="98.321974">
<time>2016-10-07T16:24:58Z</time></trkpt>
<trkpt lat="29.580268" lon="98.321904">
<time>2016-10-07T16:24:59Z</time></trkpt>
<trkpt lat="29.580239" lon="98.321844">
<time>2016-10-07T16:25:00Z</time></trkpt>
<trkpt lat="29.580199" lon="98.321774">
<time>2016-10-07T16:25:01Z</time></trkpt>
<trkpt lat="29.580129" lon="98.321664">
<time>2016-10-07T16:25:02Z</time></trkpt>
<trkpt lat="29.580069" lon="98.321594">
<time>2016-10-07T16:25:03Z</time></trkpt>
<trkpt lat="29.579989" lon="98.321515">
<time>2016-10-07T16:25:04Z</time></trkpt>
<trkpt lat="29.57986" lon="98.321385">
<time>2016-10-07T16:25:05Z</time></trkpt>
<trkpt lat="29.57975" lon="98.321275">
<time>2016-10-07T16:25:06Z</time></trkpt>
<trkpt lat="29.5797" lon="98.321205">
<time>2016-10-07T16:25:07Z</time></trkpt>
<trkpt lat="29.57966" lon="98.321155">
<time>2016-10-07T16:25:08Z</time></trkpt>
<trkpt lat="29.57963" lon="98.321096">
<time>2016-10-07T16:25:09Z</time></trkpt>
<trkpt lat="29.57959" lon="98.321016">
<time>2016-10-07T16:25:10Z</time></trkpt>
<trkpt lat="29.579561" lon="98.320946">
<time>2016-10-07T16:25:11Z</time></trkpt>
<trkpt lat="29.579551" lon="98.320906">
<time>2016-10-07T16:25:12Z</time></trkpt>
<trkpt lat="29.579541" lon="98.320846">
<time>2016-10-07T16:25:13Z</time></trkpt>
<trkpt lat="29.579531" lon="98.320786">
<time>2016-10-07T16:25:14Z</time></trkpt>
<trkpt lat="29.579521" lon="98.320736">
<time>2016-10-07T16:25:15Z</time></trkpt>
<trkpt lat="29.579521" lon="98.320677">
<time>2016-10-07T16:25:16Z</time></trkpt>
<trkpt lat="29.579521" lon="98.320597">
<time>2016-10-07T16:25:17Z</time></trkpt>
<trkpt lat="29.579521" lon="98.320537">
<time>2016-10-07T16:25:18Z</time></trkpt>
<trkpt lat="29.579541" lon="98.320447">
<time>2016-10-07T16:25:19Z</time></trkpt>
<trkpt lat="29.579572" lon="98.320317">
<time>2016-10-07T16:25:20Z</time></trkpt>
<trkpt lat="29.579602" lon="98.320198">
<time>2016-10-07T16:25:21Z</time></trkpt>
<trkpt lat="29.579642" lon="98.320078">
<time>2016-10-07T16:25:22Z</time></trkpt>
<trkpt lat="29.579672" lon="98.319948">
<time>2016-10-07T16:25:23Z</time></trkpt>
<trkpt lat="29.579693" lon="98.319868">
<time>2016-10-07T16:25:24Z</time></trkpt>
<trkpt lat="29.579713" lon="98.319789">
<time>2016-10-07T16:25:25Z</time></trkpt>
<trkpt lat="29.579713" lon="98.319729">
<time>2016-10-07T16:25:26Z</time></trkpt>
<trkpt lat="29.579713" lon="98.319649">
<time>2016-10-07T16:25:27Z</time></trkpt>
<trkpt lat="29.579713" lon="98.319579">
<time>2016-10-07T16:25:28Z</time></trkpt>
<trkpt lat="29.579703" lon="98.319539">
<time>2016-10-07T16:25:29Z</time></trkpt>
<trkpt lat="29.579693" lon="98.319509">
<time>2016-10-07T16:25:30Z</time></trkpt>
<trkpt lat="29.579683" lon="98.319479">
<time>2016-10-07T16:25:31Z</time></trkpt>
<trkpt lat="29.579673" lon="98.319439">
<time>2016-10-07T16:25:32Z</time></trkpt>
<trkpt lat="29.579653" lon="98.319409">
<time>2016-10-07T16:25:33Z</time></trkpt>
<trkpt lat="29.579643" lon="98.319379">
<time>2016-10-07T16:25:34Z</time></trkpt>
<trkpt lat="29.579624" lon="98.31935">
<time>2016-10-07T16:25:35Z</time></trkpt>
<trkpt lat="29.579594" lon="98.31932">
<time>2016-10-07T16:25:36Z</time></trkpt>
<trkpt lat="29.579574" lon="98.31929">
<time>2016-10-07T16:25:37Z</time></trkpt>
<trkpt lat="29.579544" lon="98.31925">
<time>2016-10-07T16:25:38Z</time></trkpt>
<trkpt lat="29.579474" lon="98.3192">
<time>2016-10-07T16:25:39Z</time></trkpt>
<trkpt lat="29.579384" lon="98.31913">
<time>2016-10-07T16:25:40Z</time></trkpt>
<trkpt lat="29.579284" lon="98.31906">
<time>2016-10-07T16:25:41Z</time></trkpt>
<trkpt lat="29.579204" lon="98.31901">
<time>2016-10-07T16:25:42Z</time></trkpt>
<trkpt lat="29.579174" lon="98.31899">
<time>2016-10-07T16:25:43Z</time></trkpt>
<trkpt lat="29.579134" lon="98.31895">
<time>2016-10-07T16:25:44Z</time></trkpt>
<trkpt lat="29.579115" lon="98.318911">
<time>2016-10-07T16:25:45Z</time></trkpt>
<trkpt lat="29.579085" lon="98.318861">
<time>2016-10-07T16:25:46Z</time></trkpt>
<trkpt lat="29.579065" lon="98.318821">
<time>2016-10-07T16:25:47Z</time></trkpt>
<trkpt lat="29.579055" lon="98.318761">
<time>2016-10-07T16:25:48Z</time></trkpt>
<trkpt lat="29.579035" lon="98.318661">
<time>2016-10-07T16:25:49Z</time></trkpt>
<trkpt lat="29.579005" lon="98.318511">
<time>2016-10-07T16:25:50Z</time></trkpt>
<trkpt lat="29.578956" lon="98.318312">
<time>2016-10-07T16:25:51Z</time></trkpt>
<trkpt lat="29.578896" lon="98.318082">
<time>2016-10-07T16:25:52Z</time></trkpt>
<trkpt lat="29.578866" lon="98.317943">
<time>2016-10-07T16:25:53Z</time></trkpt>
<trkpt lat="29.578837" lon="98.317833">
<time>2016-10-07T16:25:54Z</time></trkpt>
<trkpt lat="29.578817" lon="98.317763">
<time>2016-10-07T16:25:55Z</time></trkpt>
<trkpt lat="29.578797" lon="98.317713">
<time>2016-10-07T16:25:56Z</time></trkpt>
<trkpt lat="29.578777" lon="98.317673">
<time>2016-10-07T16:25:57Z</time></trkpt>
<trkpt lat="29.578757" lon="98.317633">
<time>2016-10-07T16:25:58Z</time></trkpt>
<trkpt lat="29.578717" lon="98.317593">
<time>2016-10-07T16:25:59Z</time></trkpt>
<trkpt lat="29.578687" lon="98.317564">
<time>2016-10-07T16:26:00Z</time></trkpt>
<trkpt lat="29.578637" lon="98.317524">
<time>2016-10-07T16:26:01Z</time></trkpt>
<trkpt lat="29.578607" lon="98.317514">
<time>2016-10-07T16:26:02Z</time></trkpt>
<trkpt lat="29.578567" lon="98.317504">
<time>2016-10-07T16:26:03Z</time></trkpt>
<trkpt lat="29.578517" lon="98.317484">
<time>2016-10-07T16:26:04Z</time></trkpt>
<trkpt lat="29.578467" lon="98.317474">
<time>2016-10-07T16:26:05Z</time></trkpt>
<trkpt lat="29.578407" lon="98.317464">
<time>2016-10-07T16:26:06Z</time></trkpt>
<trkpt lat="29.578348" lon="98.317454">
<time>2016-10-07T16:26:07Z</time></trkpt>
<trkpt lat="29.578278" lon="98.317434">
<time>2016-10-07T16:26:08Z</time></trkpt>
<trkpt lat="29.578218" lon="98.317424">
<time>2016-10-07T16:26:09Z</time></trkpt>
<trkpt lat="29.578188" lon="98.317414">
<time>2016-10-07T16:26:10Z</time></trkpt>
<trkpt lat="29.578158" lon="98.317394">
<time>2016-10-07T16:26:11Z</time></trkpt>
<trkpt lat="29.578118" lon="98.317364">
<time>2016-10-07T16:26:12Z</time></trkpt>
<trkpt lat="29.578088" lon="98.317334">
<time>2016-10-07T16:26:13Z</time></trkpt>
<trkpt lat="29.578068" lon="98.317304">
<time>2016-10-07T16:26:14Z</time></trkpt>
<trkpt lat="29.578048" lon="98.317264">
<time>2016-10-07T16:26:15Z</time></trkpt>
<trkpt lat="29.578038" lon="98.317234">
<time>2016-10-07T16:26:16Z</time></trkpt>
<trkpt lat="29.578028" lon="98.317204">
<time>2016-10-07T16:26:17Z</time></trkpt>
<trkpt lat="29.578018" lon="98.317154">
<time>2016-10-07T16:26:18Z</time></trkpt>
<trkpt lat="29.578008" lon="98.317075">
<time>2016-10-07T16:26:19Z</time></trkpt>
<trkpt lat="29.578008" lon="98.317035">
<time>2016-10-07T16:26:20Z</time></trkpt>
<trkpt lat="29.577999" lon="98.316985">
<time>2016-10-07T16:26:21Z</time></trkpt>
<trkpt lat="29.577989" lon="98.316935">
<time>2016-10-07T16:26:22Z</time></trkpt>
<trkpt lat="29.577979" lon="98.316855">
<time>2016-10-07T16:26:23Z</time></trkpt>
<trkpt lat="29.577979" lon="98.316815">
<time>2016-10-07T16:26:24Z</time></trkpt>
<trkpt lat="29.577969" lon="98.316755">
<time>2016-10-07T16:26:25Z</time></trkpt>
<trkpt lat="29.577959" lon="98.316705">
<time>2016-10-07T16:26:26Z</time></trkpt>
<trkpt lat="29.577949" lon="98.316646">
<time>2016-10-07T16:26:27Z</time></trkpt>
<trkpt lat="29.577939" lon="98.316596">
<time>2016-10-07T16:26:28Z</time></trkpt>
<trkpt lat="29.577939" lon="98.316556">
<time>2016-10-07T16:26:29Z</time></trkpt>
<trkpt lat="29.577929" lon="98.316506">
<time>2016-10-07T16:26:30Z</time></trkpt>
<trkpt lat="29.57793" lon="98.316446">
<time>2016-10-07T16:26:31Z</time></trkpt>
<trkpt lat="29.57792" lon="98.316386">
<time>2016-10-07T16:26:32Z</time></trkpt>
<trkpt lat="29.57792" lon="98.316336">
<time>2016-10-07T16:26:33Z</time></trkpt>
<trkpt lat="29.57792" lon="98.316266">
<time>2016-10-07T16:26:34Z</time></trkpt>
<trkpt lat="29.57792" lon="98.316187">
<time>2016-10-07T16:26:35Z</time></trkpt>
<trkpt lat="29.57791" lon="98.316097">
<time>2016-10-07T16:26:36Z</time></trkpt>
<trkpt lat="29.57791" lon="98.315967">
<time>2016-10-07T16:26:37Z</time></trkpt>
<trkpt lat="29.577901" lon="98.315837">
<time>2016-10-07T16:26:38Z</time></trkpt>
<trkpt lat="29.577901" lon="98.315807">
<time>2016-10-07T16:26:39Z</time></trkpt>
<trkpt lat="29.577861" lon="98.315638">
<time>2016-10-07T16:26:40Z</time></trkpt>
<trkpt lat="29.577752" lon="98.315279">
<time>2016-10-07T16:26:41Z</time></trkpt>
<trkpt lat="29.577662" lon="98.314959">
<time>2016-10-07T16:26:42Z</time></trkpt>
<trkpt lat="29.577613" lon="98.31477">
<time>2016-10-07T16:26:43Z</time></trkpt>
<trkpt lat="29.577593" lon="98.31469">
<time>2016-10-07T16:26:44Z</time></trkpt>
<trkpt lat="29.577583" lon="98.31459">
<time>2016-10-07T16:26:45Z</time></trkpt>
<trkpt lat="29.577563" lon="98.31446">
<time>2016-10-07T16:26:46Z</time></trkpt>
<trkpt lat="29.577554" lon="98.314291">
<time>2016-10-07T16:26:47Z</time></trkpt>
<trkpt lat="29.577544" lon="98.314171">
<time>2016-10-07T16:26:48Z</time></trkpt>
<trkpt lat="29.577524" lon="98.314121">
<time>2016-10-07T16:26:49Z</time></trkpt>
<trkpt lat="29.577504" lon="98.314071">
<time>2016-10-07T16:26:50Z</time></trkpt>
<trkpt lat="29.577484" lon="98.314031">
<time>2016-10-07T16:26:51Z</time></trkpt>
<trkpt lat="29.577464" lon="98.314001">
<time>2016-10-07T16:26:52Z</time></trkpt>
<trkpt lat="29.577434" lon="98.313961">
<time>2016-10-07T16:26:53Z</time></trkpt>
<trkpt lat="29.577414" lon="98.313942">
<time>2016-10-07T16:26:54Z</time></trkpt>
<trkpt lat="29.577384" lon="98.313912">
<time>2016-10-07T16:26:55Z</time></trkpt>
<trkpt lat="29.577345" lon="98.313882">
<time>2016-10-07T16:26:56Z</time></trkpt>
<trkpt lat="29.577305" lon="98.313842">
<time>2016-10-07T16:26:57Z</time></trkpt>
<trkpt lat="29.577285" lon="98.313822">
<time>2016-10-07T16:26:58Z</time></trkpt>
<trkpt lat="29.577265" lon="98.313782">
<time>2016-10-07T16:26:59Z</time></trkpt>
<trkpt lat="29.577255" lon="98.313762">
<time>2016-10-07T16:27:00Z</time></trkpt>
<trkpt lat="29.577245" lon="98.313722">
<time>2016-10-07T16:27:01Z</time></trkpt>
<trkpt lat="29.577235" lon="98.313672">
<time>2016-10-07T16:27:02Z</time></trkpt>
<trkpt lat="29.577235" lon="98.313612">
<time>2016-10-07T16:27:03Z</time></trkpt>
<trkpt lat="29.577245" lon="98.313582">
<time>2016-10-07T16:27:04Z</time></trkpt>
<trkpt lat="29.577235" lon="98.313493">
<time>2016-10-07T16:27:05Z</time></trkpt>
<trkpt lat="29.577225" lon="98.313433">
<time>2016-10-07T16:27:06Z</time></trkpt>
<trkpt lat="29.577206" lon="98.313363">
<time>2016-10-07T16:27:07Z</time></trkpt>
<trkpt lat="29.577186" lon="98.313323">
<time>2016-10-07T16:27:08Z</time></trkpt>
<trkpt lat="29.577156" lon="98.313283">
<time>2016-10-07T16:27:09Z</time></trkpt>
<trkpt lat="29.577116" lon="98.313233">
<time>2016-10-07T16:27:10Z</time></trkpt>
<trkpt lat="29.577066" lon="98.313193">
<time>2016-10-07T16:27:11Z</time></trkpt>
<trkpt lat="29.577026" lon="98.313173">
<time>2016-10-07T16:27:12Z</time></trkpt>
<trkpt lat="29.576976" lon="98.313143">
<time>2016-10-07T16:27:13Z</time></trkpt>
<trkpt lat="29.576926" lon="98.313123">
<time>2016-10-07T16:27:14Z</time></trkpt>
<trkpt lat="29.576896" lon="98.313103">
<time>2016-10-07T16:27:15Z</time></trkpt>
<trkpt lat="29.576866" lon="98.313073">
<time>2016-10-07T16:27:16Z</time></trkpt>
<trkpt lat="29.576836" lon="98.313034">
<time>2016-10-07T16:27:17Z</time></trkpt>
<trkpt lat="29.576816" lon="98.312994">
<time>2016-10-07T16:27:18Z</time></trkpt>
<trkpt lat="29.576796" lon="98.312904">
<time>2016-10-07T16:27:19Z</time></trkpt>
<trkpt lat="29.576797" lon="98.312834">
<time>2016-10-07T16:27:20Z</time></trkpt>
<trkpt lat="29.576797" lon="98.312774">
<time>2016-10-07T16:27:21Z</time></trkpt>
<trkpt lat="29.576817" lon="98.312674">
<time>2016-10-07T16:27:22Z</time></trkpt>
<trkpt lat="29.576857" lon="98.312555">
<time>2016-10-07T16:27:23Z</time></trkpt>
<trkpt lat="29.576887" lon="98.312445">
<time>2016-10-07T16:27:24Z</time></trkpt>
<trkpt lat="29.576907" lon="98.312375">
<time>2016-10-07T16:27:25Z</time></trkpt>
<trkpt lat="29.576928" lon="98.312285">
<time>2016-10-07T16:27:26Z</time></trkpt>
<trkpt lat="29.576978" lon="98.312145">
<time>2016-10-07T16:27:27Z</time></trkpt>
<trkpt lat="29.577068" lon="98.311816">
<time>2016-10-07T16:27:28Z</time></trkpt>
<trkpt lat="29.577159" lon="98.311537">
<time>2016-10-07T16:27:29Z</time></trkpt>
<trkpt lat="29.577289" lon="98.311178">
<time>2016-10-07T16:27:30Z</time></trkpt>
<trkpt lat="29.57739" lon="98.310938">
<time>2016-10-07T16:27:31Z</time></trkpt>
<trkpt lat="29.57743" lon="98.310828">
<time>2016-10-07T16:27:32Z</time></trkpt>
<trkpt lat="29.5775" lon="98.310718">
<time>2016-10-07T16:27:33Z</time></trkpt>
<trkpt lat="29.57758" lon="98.310609">
<time>2016-10-07T16:27:34Z</time></trkpt>
<trkpt lat="29.577681" lon="98.310509">
<time>2016-10-07T16:27:35Z</time></trkpt>
<trkpt lat="29.577751" lon="98.310449">
<time>2016-10-07T16:27:36Z</time></trkpt>
<trkpt lat="29.577811" lon="98.310379">
<time>2016-10-07T16:27:37Z</time></trkpt>
<trkpt lat="29.577941" lon="98.31022">
<time>2016-10-07T16:27:38Z</time></trkpt>
<trkpt lat="29.578081" lon="98.31002">
<time>2016-10-07T16:27:39Z</time></trkpt>
<trkpt lat="29.578262" lon="98.30978">
<time>2016-10-07T16:27:40Z</time></trkpt>
<trkpt lat="29.578412" lon="98.309611">
<time>2016-10-07T16:27:41Z</time></trkpt>
<trkpt lat="29.578572" lon="98.309451">
<time>2016-10-07T16:27:42Z</time></trkpt>
<trkpt lat="29.578762" lon="98.309272">
<time>2016-10-07T16:27:43Z</time></trkpt>
<trkpt lat="29.578883" lon="98.309162">
<time>2016-10-07T16:27:44Z</time></trkpt>
<trkpt lat="29.579013" lon="98.309032">
<time>2016-10-07T16:27:45Z</time></trkpt>
<trkpt lat="29.579203" lon="98.308822">
<time>2016-10-07T16:27:46Z</time></trkpt>
<trkpt lat="29.579403" lon="98.308583">
<time>2016-10-07T16:27:47Z</time></trkpt>
<trkpt lat="29.579614" lon="98.308343">
<time>2016-10-07T16:27:48Z</time></trkpt>
<trkpt lat="29.579834" lon="98.308094">
<time>2016-10-07T16:27:49Z</time></trkpt>
<trkpt lat="29.580064" lon="98.307864">
<time>2016-10-07T16:27:50Z</time></trkpt>
<trkpt lat="29.580295" lon="98.307625">
<time>2016-10-07T16:27:51Z</time></trkpt>
<trkpt lat="29.580395" lon="98.307525">
<time>2016-10-07T16:27:52Z</time></trkpt>
<trkpt lat="29.580435" lon="98.307475">
<time>2016-10-07T16:27:53Z</time></trkpt>
<trkpt lat="29.580485" lon="98.307405">
<time>2016-10-07T16:27:54Z</time></trkpt>
<trkpt lat="29.580515" lon="98.307365">
<time>2016-10-07T16:27:55Z</time></trkpt>
<trkpt lat="29.580555" lon="98.307286">
<time>2016-10-07T16:27:56Z</time></trkpt>
<trkpt lat="29.580585" lon="98.307236">
<time>2016-10-07T16:27:57Z</time></trkpt>
<trkpt lat="29.580626" lon="98.307146">
<time>2016-10-07T16:27:58Z</time></trkpt>
<trkpt lat="29.580656" lon="98.307026">
<time>2016-10-07T16:27:59Z</time></trkpt>
<trkpt lat="29.580706" lon="98.306827">
<time>2016-10-07T16:28:00Z</time></trkpt>
<trkpt lat="29.580767" lon="98.306577">
<time>2016-10-07T16:28:01Z</time></trkpt>
<trkpt lat="29.580807" lon="98.306407">
<time>2016-10-07T16:28:02Z</time></trkpt>
<trkpt lat="29.580887" lon="98.306138">
<time>2016-10-07T16:28:03Z</time></trkpt>
<trkpt lat="29.580907" lon="98.306048">
<time>2016-10-07T16:28:04Z</time></trkpt>
<trkpt lat="29.580938" lon="98.305958">
<time>2016-10-07T16:28:05Z</time></trkpt>
<trkpt lat="29.581008" lon="98.305799">
<time>2016-10-07T16:28:06Z</time></trkpt>
<trkpt lat="29.581038" lon="98.305739">
<time>2016-10-07T16:28:07Z</time></trkpt>
<trkpt lat="29.581088" lon="98.305629">
<time>2016-10-07T16:28:08Z</time></trkpt>
<trkpt lat="29.581118" lon="98.305539">
<time>2016-10-07T16:28:09Z</time></trkpt>
<trkpt lat="29.581138" lon="98.305499">
<time>2016-10-07T16:28:10Z</time></trkpt>
<trkpt lat="29.581148" lon="98.305459">
<time>2016-10-07T16:28:11Z</time></trkpt>
<trkpt lat="29.581148" lon="98.305419">
<time>2016-10-07T16:28:12Z</time></trkpt>
<trkpt lat="29.581138" lon="98.30538">
<time>2016-10-07T16:28:13Z</time></trkpt>
<trkpt lat="29.581129" lon="98.30534">
<time>2016-10-07T16:28:14Z</time></trkpt>
<trkpt lat="29.581119" lon="98.3053">
<time>2016-10-07T16:28:15Z</time></trkpt>
<trkpt lat="29.581109" lon="98.30527">
<time>2016-10-07T16:28:16Z</time></trkpt>
<trkpt lat="29.581089" lon="98.30524">
<time>2016-10-07T16:28:17Z</time></trkpt>
<trkpt lat="29.581059" lon="98.3052">
<time>2016-10-07T16:28:18Z</time></trkpt>
<trkpt lat="29.581029" lon="98.30516">
<time>2016-10-07T16:28:19Z</time></trkpt>
<trkpt lat="29.580999" lon="98.30513">
<time>2016-10-07T16:28:20Z</time></trkpt>
<trkpt lat="29.580969" lon="98.30509">
<time>2016-10-07T16:28:21Z</time></trkpt>
<trkpt lat="29.580929" lon="98.30504">
<time>2016-10-07T16:28:22Z</time></trkpt>
<trkpt lat="29.580889" lon="98.305">
<time>2016-10-07T16:28:23Z</time></trkpt>
<trkpt lat="29.580839" lon="98.30495">
<time>2016-10-07T16:28:24Z</time></trkpt>
<trkpt lat="29.580809" lon="98.30492">
<time>2016-10-07T16:28:25Z</time></trkpt>
<trkpt lat="29.580769" lon="98.304901">
<time>2016-10-07T16:28:26Z</time></trkpt>
<trkpt lat="29.580729" lon="98.304891">
<time>2016-10-07T16:28:27Z</time></trkpt>
<trkpt lat="29.580689" lon="98.304881">
<time>2016-10-07T16:28:28Z</time></trkpt>
<trkpt lat="29.580609" lon="98.304901">
<time>2016-10-07T16:28:29Z</time></trkpt>
<trkpt lat="29.580489" lon="98.30495">
<time>2016-10-07T16:28:30Z</time></trkpt>
<trkpt lat="29.580359" lon="98.305">
<time>2016-10-07T16:28:31Z</time></trkpt>
<trkpt lat="29.580209" lon="98.30507">
<time>2016-10-07T16:28:32Z</time></trkpt>
<trkpt lat="29.580039" lon="98.30516">
<time>2016-10-07T16:28:33Z</time></trkpt>
<trkpt lat="29.579909" lon="98.30524">
<time>2016-10-07T16:28:34Z</time></trkpt>
<trkpt lat="29.579739" lon="98.30533">
<time>2016-10-07T16:28:35Z</time></trkpt>
<trkpt lat="29.579529" lon="98.305429">
<time>2016-10-07T16:28:36Z</time></trkpt>
<trkpt lat="29.579349" lon="98.305489">
<time>2016-10-07T16:28:37Z</time></trkpt>
<trkpt lat="29.579239" lon="98.305509">
<time>2016-10-07T16:28:38Z</time></trkpt>
<trkpt lat="29.579129" lon="98.305509">
<time>2016-10-07T16:28:39Z</time></trkpt>
<trkpt lat="29.578969" lon="98.305509">
<time>2016-10-07T16:28:40Z</time></trkpt>
<trkpt lat="29.578789" lon="98.305499">
<time>2016-10-07T16:28:41Z</time></trkpt>
<trkpt lat="29.578579" lon="98.305479">
<time>2016-10-07T16:28:42Z</time></trkpt>
<trkpt lat="29.578299" lon="98.305449">
<time>2016-10-07T16:28:43Z</time></trkpt>
<trkpt lat="29.578069" lon="98.30543">
<time>2016-10-07T16:28:44Z</time></trkpt>
<trkpt lat="29.577869" lon="98.30543">
<time>2016-10-07T16:28:45Z</time></trkpt>
<trkpt lat="29.577679" lon="98.305449">
<time>2016-10-07T16:28:46Z</time></trkpt>
<trkpt lat="29.57736" lon="98.305499">
<time>2016-10-07T16:28:47Z</time></trkpt>
<trkpt lat="29.57712" lon="98.305519">
<time>2016-10-07T16:28:48Z</time></trkpt>
<trkpt lat="29.57701" lon="98.305519">
<time>2016-10-07T16:28:49Z</time></trkpt>
<trkpt lat="29.57682" lon="98.305499">
<time>2016-10-07T16:28:50Z</time></trkpt>
<trkpt lat="29.57602" lon="98.30533">
<time>2016-10-07T16:28:51Z</time></trkpt>
<trkpt lat="29.575591" lon="98.30524">
<time>2016-10-07T16:28:52Z</time></trkpt>
<trkpt lat="29.575451" lon="98.3052">
<time>2016-10-07T16:28:53Z</time></trkpt>
<trkpt lat="29.575291" lon="98.30516">
<time>2016-10-07T16:28:54Z</time></trkpt>
<trkpt lat="29.575171" lon="98.30511">
<time>2016-10-07T16:28:55Z</time></trkpt>
<trkpt lat="29.575021" lon="98.30504">
<time>2016-10-07T16:28:56Z</time></trkpt>
<trkpt lat="29.574662" lon="98.304851">
<time>2016-10-07T16:28:57Z</time></trkpt>
<trkpt lat="29.574502" lon="98.304751">
<time>2016-10-07T16:28:58Z</time></trkpt>
<trkpt lat="29.574432" lon="98.304711">
<time>2016-10-07T16:28:59Z</time></trkpt>
<trkpt lat="29.574372" lon="98.304681">
<time>2016-10-07T16:29:00Z</time></trkpt>
<trkpt lat="29.574292" lon="98.304651">
<time>2016-10-07T16:29:01Z</time></trkpt>
<trkpt lat="29.574162" lon="98.304611">
<time>2016-10-07T16:29:02Z</time></trkpt>
<trkpt lat="29.574072" lon="98.304591">
<time>2016-10-07T16:29:03Z</time></trkpt>
<trkpt lat="29.573922" lon="98.304571">
<time>2016-10-07T16:29:04Z</time></trkpt>
<trkpt lat="29.573852" lon="98.304571">
<time>2016-10-07T16:29:05Z</time></trkpt>
<trkpt lat="29.573642" lon="98.304581">
<time>2016-10-07T16:29:06Z</time></trkpt>
<trkpt lat="29.573532" lon="98.304581">
<time>2016-10-07T16:29:07Z</time></trkpt>
<trkpt lat="29.573472" lon="98.304571">
<time>2016-10-07T16:29:08Z</time></trkpt>
<trkpt lat="29.573422" lon="98.304571">
<time>2016-10-07T16:29:09Z</time></trkpt>
<trkpt lat="29.573372" lon="98.304551">
<time>2016-10-07T16:29:10Z</time></trkpt>
<trkpt lat="29.573322" lon="98.304541">
<time>2016-10-07T16:29:11Z</time></trkpt>
<trkpt lat="29.573283" lon="98.304511">
<time>2016-10-07T16:29:12Z</time></trkpt>
<trkpt lat="29.573233" lon="98.304482">
<time>2016-10-07T16:29:13Z</time></trkpt>
<trkpt lat="29.573193" lon="98.304442">
<time>2016-10-07T16:29:14Z</time></trkpt>
<trkpt lat="29.573023" lon="98.304282">
<time>2016-10-07T16:29:15Z</time></trkpt>
<trkpt lat="29.572863" lon="98.304132">
<time>2016-10-07T16:29:16Z</time></trkpt>
<trkpt lat="29.572793" lon="98.304062">
<time>2016-10-07T16:29:17Z</time></trkpt>
<trkpt lat="29.572724" lon="98.303993">
<time>2016-10-07T16:29:18Z</time></trkpt>
<trkpt lat="29.572694" lon="98.303963">
<time>2016-10-07T16:29:19Z</time></trkpt>
<trkpt lat="29.572674" lon="98.303943">
<time>2016-10-07T16:29:20Z</time></trkpt>
<trkpt lat="29.572644" lon="98.303923">
<time>2016-10-07T16:29:21Z</time></trkpt>
<trkpt lat="29.572614" lon="98.303903">
<time>2016-10-07T16:29:22Z</time></trkpt>
<trkpt lat="29.572604" lon="98.303893">
<time>2016-10-07T16:29:23Z</time></trkpt>
<trkpt lat="29.572574" lon="98.303883">
<time>2016-10-07T16:29:24Z</time></trkpt>
<trkpt lat="29.572544" lon="98.303883">
<time>2016-10-07T16:29:25Z</time></trkpt>
<trkpt lat="29.572524" lon="98.303873">
<time>2016-10-07T16:29:26Z</time></trkpt>
<trkpt lat="29.572504" lon="98.303873">
<time>2016-10-07T16:29:27Z</time></trkpt>
<trkpt lat="29.572474" lon="98.303873">
<time>2016-10-07T16:29:28Z</time></trkpt>
<trkpt lat="29.572444" lon="98.303883">
<time>2016-10-07T16:29:29Z</time></trkpt>
<trkpt lat="29.572424" lon="98.303883">
<time>2016-10-07T16:29:30Z</time></trkpt>
<trkpt lat="29.572404" lon="98.303893">
<time>2016-10-07T16:29:31Z</time></trkpt>
<trkpt lat="29.572374" lon="98.303913">
<time>2016-10-07T16:29:32Z</time></trkpt>
<trkpt lat="29.572354" lon="98.303923">
<time>2016-10-07T16:29:33Z</time></trkpt>
<trkpt lat="29.572334" lon="98.303943">
<time>2016-10-07T16:29:34Z</time></trkpt>
<trkpt lat="29.572314" lon="98.303973">
<time>2016-10-07T16:29:35Z</time></trkpt>
<trkpt lat="29.572294" lon="98.304002">
<time>2016-10-07T16:29:36Z</time></trkpt>
<trkpt lat="29.572284" lon="98.304032">
<time>2016-10-07T16:29:37Z</time></trkpt>
<trkpt lat="29.572264" lon="98.304062">
<time>2016-10-07T16:29:38Z</time></trkpt>
<trkpt lat="29.572264" lon="98.304102">
<time>2016-10-07T16:29:39Z</time></trkpt>
<trkpt lat="29.572254" lon="98.304132">
<time>2016-10-07T16:29:40Z</time></trkpt>
<trkpt lat="29.572253" lon="98.304162">
<time>2016-10-07T16:29:41Z</time></trkpt>
<trkpt lat="29.572253" lon="98.304202">
<time>2016-10-07T16:29:42Z</time></trkpt>
<trkpt lat="29.572253" lon="98.304252">
<time>2016-10-07T16:29:43Z</time></trkpt>
<trkpt lat="29.572253" lon="98.304292">
<time>2016-10-07T16:29:44Z</time></trkpt>
<trkpt lat="29.572263" lon="98.304352">
<time>2016-10-07T16:29:45Z</time></trkpt>
<trkpt lat="29.572263" lon="98.304402">
<time>2016-10-07T16:29:46Z</time></trkpt>
<trkpt lat="29.572273" lon="98.304472">
<time>2016-10-07T16:29:47Z</time></trkpt>
<trkpt lat="29.572273" lon="98.304501">
<time>2016-10-07T16:29:48Z</time></trkpt>
<trkpt lat="29.572273" lon="98.304521">
<time>2016-10-07T16:29:49Z</time></trkpt>
<trkpt lat="29.572273" lon="98.304551">
<time>2016-10-07T16:29:50Z</time></trkpt>
<trkpt lat="29.572273" lon="98.304611">
<time>2016-10-07T16:29:51Z</time></trkpt>
<trkpt lat="29.572273" lon="98.304641">
<time>2016-10-07T16:29:52Z</time></trkpt>
<trkpt lat="29.572273" lon="98.304691">
<time>2016-10-07T16:29:53Z</time></trkpt>
<trkpt lat="29.572273" lon="98.304721">
<time>2016-10-07T16:29:54Z</time></trkpt>
<trkpt lat="29.572262" lon="98.304761">
<time>2016-10-07T16:29:55Z</time></trkpt>
<trkpt lat="29.572262" lon="98.304811">
<time>2016-10-07T16:29:56Z</time></trkpt>
<trkpt lat="29.572252" lon="98.304871">
<time>2016-10-07T16:29:57Z</time></trkpt>
<trkpt lat="29.572242" lon="98.304911">
<time>2016-10-07T16:29:58Z</time></trkpt>
<trkpt lat="29.572232" lon="98.304961">
<time>2016-10-07T16:29:59Z</time></trkpt>
<trkpt lat="29.572131" lon="98.30536">
<time>2016-10-07T16:30:00Z</time></trkpt>
<trkpt lat="29.57197" lon="98.306038">
<time>2016-10-07T16:30:01Z</time></trkpt>
<trkpt lat="29.57193" lon="98.306308">
<time>2016-10-07T16:30:02Z</time></trkpt>
<trkpt lat="29.57191" lon="98.306507">
<time>2016-10-07T16:30:03Z</time></trkpt>
<trkpt lat="29.571899" lon="98.306627">
<time>2016-10-07T16:30:04Z</time></trkpt>
<trkpt lat="29.571879" lon="98.306827">
<time>2016-10-07T16:30:05Z</time></trkpt>
<trkpt lat="29.571869" lon="98.306907">
<time>2016-10-07T16:30:06Z</time></trkpt>
<trkpt lat="29.571849" lon="98.306986">
<time>2016-10-07T16:30:07Z</time></trkpt>
<trkpt lat="29.571809" lon="98.307066">
<time>2016-10-07T16:30:08Z</time></trkpt>
<trkpt lat="29.571769" lon="98.307136">
<time>2016-10-07T16:30:09Z</time></trkpt>
<trkpt lat="29.571728" lon="98.307186">
<time>2016-10-07T16:30:10Z</time></trkpt>
<trkpt lat="29.571678" lon="98.307226">
<time>2016-10-07T16:30:11Z</time></trkpt>
<trkpt lat="29.571668" lon="98.307236">
<time>2016-10-07T16:30:12Z</time></trkpt>
<trkpt lat="29.571618" lon="98.307266">
<time>2016-10-07T16:30:13Z</time></trkpt>
<trkpt lat="29.571578" lon="98.307276">
<time>2016-10-07T16:30:14Z</time></trkpt>
<trkpt lat="29.571518" lon="98.307296">
<time>2016-10-07T16:30:15Z</time></trkpt>
<trkpt lat="29.571468" lon="98.307296">
<time>2016-10-07T16:30:16Z</time></trkpt>
<trkpt lat="29.571418" lon="98.307296">
<time>2016-10-07T16:30:17Z</time></trkpt>
<trkpt lat="29.571358" lon="98.307286">
<time>2016-10-07T16:30:18Z</time></trkpt>
<trkpt lat="29.571308" lon="98.307266">
<time>2016-10-07T16:30:19Z</time></trkpt>
<trkpt lat="29.571258" lon="98.307256">
<time>2016-10-07T16:30:20Z</time></trkpt>
<trkpt lat="29.571189" lon="98.307226">
<time>2016-10-07T16:30:21Z</time></trkpt>
<trkpt lat="29.571129" lon="98.307196">
<time>2016-10-07T16:30:22Z</time></trkpt>
<trkpt lat="29.571069" lon="98.307176">
<time>2016-10-07T16:30:23Z</time></trkpt>
<trkpt lat="29.571019" lon="98.307146">
<time>2016-10-07T16:30:24Z</time></trkpt>
<trkpt lat="29.570949" lon="98.307116">
<time>2016-10-07T16:30:25Z</time></trkpt>
<trkpt lat="29.570899" lon="98.307096">
<time>2016-10-07T16:30:26Z</time></trkpt>
<trkpt lat="29.570839" lon="98.307076">
<time>2016-10-07T16:30:27Z</time></trkpt>
<trkpt lat="29.570789" lon="98.307046">
<time>2016-10-07T16:30:28Z</time></trkpt>
<trkpt lat="29.570729" lon="98.307026">
<time>2016-10-07T16:30:29Z</time></trkpt>
<trkpt lat="29.570669" lon="98.306996">
<time>2016-10-07T16:30:30Z</time></trkpt>
<trkpt lat="29.570609" lon="98.306966">
<time>2016-10-07T16:30:31Z</time></trkpt>
<trkpt lat="29.570549" lon="98.306947">
<time>2016-10-07T16:30:32Z</time></trkpt>
<trkpt lat="29.570489" lon="98.306927">
<time>2016-10-07T16:30:33Z</time></trkpt>
<trkpt lat="29.570429" lon="98.306917">
<time>2016-10-07T16:30:34Z</time></trkpt>
<trkpt lat="29.570369" lon="98.306927">
<time>2016-10-07T16:30:35Z</time></trkpt>
<trkpt lat="29.570319" lon="98.306937">
<time>2016-10-07T16:30:36Z</time></trkpt>
<trkpt lat="29.570279" lon="98.306957">
<time>2016-10-07T16:30:37Z</time></trkpt>
<trkpt lat="29.570209" lon="98.307006">
<time>2016-10-07T16:30:38Z</time></trkpt>
<trkpt lat="29.570159" lon="98.307056">
<time>2016-10-07T16:30:39Z</time></trkpt>
<trkpt lat="29.570129" lon="98.307106">
<time>2016-10-07T16:30:40Z</time></trkpt>
<trkpt lat="29.570099" lon="98.307156">
<time>2016-10-07T16:30:41Z</time></trkpt>
<trkpt lat="29.570079" lon="98.307196">
<time>2016-10-07T16:30:42Z</time></trkpt>
<trkpt lat="29.570049" lon="98.307246">
<time>2016-10-07T16:30:43Z</time></trkpt>
<trkpt lat="29.570019" lon="98.307326">
<time>2016-10-07T16:30:44Z</time></trkpt>
<trkpt lat="29.569989" lon="98.307396">
<time>2016-10-07T16:30:45Z</time></trkpt>
<trkpt lat="29.569969" lon="98.307455">
<time>2016-10-07T16:30:46Z</time></trkpt>
<trkpt lat="29.569948" lon="98.307515">
<time>2016-10-07T16:30:47Z</time></trkpt>
<trkpt lat="29.569918" lon="98.307595">
<time>2016-10-07T16:30:48Z</time></trkpt>
<trkpt lat="29.569888" lon="98.307625">
<time>2016-10-07T16:30:49Z</time></trkpt>
<trkpt lat="29.569858" lon="98.307665">
<time>2016-10-07T16:30:50Z</time></trkpt>
<trkpt lat="29.569828" lon="98.307695">
<time>2016-10-07T16:30:51Z</time></trkpt>
<trkpt lat="29.569808" lon="98.307715">
<time>2016-10-07T16:30:52Z</time></trkpt>
<trkpt lat="29.569778" lon="98.307725">
<time>2016-10-07T16:30:53Z</time></trkpt>
<trkpt lat="29.569748" lon="98.307745">
<time>2016-10-07T16:30:54Z</time></trkpt>
<trkpt lat="29.569708" lon="98.307755">
<time>2016-10-07T16:30:55Z</time></trkpt>
<trkpt lat="29.569668" lon="98.307755">
<time>2016-10-07T16:30:56Z</time></trkpt>
<trkpt lat="29.569648" lon="98.307755">
<time>2016-10-07T16:30:57Z</time></trkpt>
<trkpt lat="29.569608" lon="98.307755">
<time>2016-10-07T16:30:58Z</time></trkpt>
<trkpt lat="29.569558" lon="98.307745">
<time>2016-10-07T16:30:59Z</time></trkpt>
<trkpt lat="29.569508" lon="98.307745">
<time>2016-10-07T16:31:00Z</time></trkpt>
<trkpt lat="29.569458" lon="98.307745">
<time>2016-10-07T16:31:01Z</time></trkpt>
<trkpt lat="29.569418" lon="98.307755">
<time>2016-10-07T16:31:02Z</time></trkpt>
<trkpt lat="29.569368" lon="98.307765">
<time>2016-10-07T16:31:03Z</time></trkpt>
<trkpt lat="29.569308" lon="98.307805">
<time>2016-10-07T16:31:04Z</time></trkpt>
<trkpt lat="29.569268" lon="98.307845">
<time>2016-10-07T16:31:05Z</time></trkpt>
<trkpt lat="29.569218" lon="98.307885">
<time>2016-10-07T16:31:06Z</time></trkpt>
<trkpt lat="29.569188" lon="98.307944">
<time>2016-10-07T16:31:07Z</time></trkpt>
<trkpt lat="29.569168" lon="98.308004">
<time>2016-10-07T16:31:08Z</time></trkpt>
<trkpt lat="29.569148" lon="98.308054">
<time>2016-10-07T16:31:09Z</time></trkpt>
<trkpt lat="29.569138" lon="98.308114">
<time>2016-10-07T16:31:10Z</time></trkpt>
<trkpt lat="29.569138" lon="98.308174">
<time>2016-10-07T16:31:11Z</time></trkpt>
<trkpt lat="29.569127" lon="98.308234">
<time>2016-10-07T16:31:12Z</time></trkpt>
<trkpt lat="29.569117" lon="98.308314">
<time>2016-10-07T16:31:13Z</time></trkpt>
<trkpt lat="29.569107" lon="98.308374">
<time>2016-10-07T16:31:14Z</time></trkpt>
<trkpt lat="29.569107" lon="98.308443">
<time>2016-10-07T16:31:15Z</time></trkpt>
<trkpt lat="29.569097" lon="98.308523">
<time>2016-10-07T16:31:16Z</time></trkpt>
<trkpt lat="29.569097" lon="98.308623">
<time>2016-10-07T16:31:17Z</time></trkpt>
<trkpt lat="29.569097" lon="98.308693">
<time>2016-10-07T16:31:18Z</time></trkpt>
<trkpt lat="29.569117" lon="98.308743">
<time>2016-10-07T16:31:19Z</time></trkpt>
<trkpt lat="29.569146" lon="98.308833">
<time>2016-10-07T16:31:20Z</time></trkpt>
<trkpt lat="29.569216" lon="98.308902">
<time>2016-10-07T16:31:21Z</time></trkpt>
<trkpt lat="29.569246" lon="98.308942">
<time>2016-10-07T16:31:22Z</time></trkpt>
<trkpt lat="29.569296" lon="98.308972">
<time>2016-10-07T16:31:23Z</time></trkpt>
<trkpt lat="29.569386" lon="98.309022">
<time>2016-10-07T16:31:24Z</time></trkpt>
<trkpt lat="29.569486" lon="98.309082">
<time>2016-10-07T16:31:25Z</time></trkpt>
<trkpt lat="29.569546" lon="98.309132">
<time>2016-10-07T16:31:26Z</time></trkpt>
<trkpt lat="29.569655" lon="98.309262">
<time>2016-10-07T16:31:27Z</time></trkpt>
<trkpt lat="29.569725" lon="98.309332">
<time>2016-10-07T16:31:28Z</time></trkpt>
<trkpt lat="29.569765" lon="98.309381">
<time>2016-10-07T16:31:29Z</time></trkpt>
<trkpt lat="29.569915" lon="98.309561">
<time>2016-10-07T16:31:30Z</time></trkpt>
<trkpt lat="29.569995" lon="98.309651">
<time>2016-10-07T16:31:31Z</time></trkpt>
<trkpt lat="29.570094" lon="98.309751">
<time>2016-10-07T16:31:32Z</time></trkpt>
<trkpt lat="29.570144" lon="98.309821">
<time>2016-10-07T16:31:33Z</time></trkpt>
<trkpt lat="29.570174" lon="98.30986">
<time>2016-10-07T16:31:34Z</time></trkpt>
<trkpt lat="29.570204" lon="98.30991">
<time>2016-10-07T16:31:35Z</time></trkpt>
<trkpt lat="29.570254" lon="98.30999">
<time>2016-10-07T16:31:36Z</time></trkpt>
<trkpt lat="29.570274" lon="98.31004">
<time>2016-10-07T16:31:37Z</time></trkpt>
<trkpt lat="29.570294" lon="98.31012">
<time>2016-10-07T16:31:38Z</time></trkpt>
<trkpt lat="29.570304" lon="98.31019">
<time>2016-10-07T16:31:39Z</time></trkpt>
<trkpt lat="29.570313" lon="98.31027">
<time>2016-10-07T16:31:40Z</time></trkpt>
<trkpt lat="29.570313" lon="98.310349">
<time>2016-10-07T16:31:41Z</time></trkpt>
<trkpt lat="29.570303" lon="98.310429">
<time>2016-10-07T16:31:42Z</time></trkpt>
<trkpt lat="29.570293" lon="98.310529">
<time>2016-10-07T16:31:43Z</time></trkpt>
<trkpt lat="29.570293" lon="98.310619">
<time>2016-10-07T16:31:44Z</time></trkpt>
<trkpt lat="29.570283" lon="98.310709">
<time>2016-10-07T16:31:45Z</time></trkpt>
<trkpt lat="29.570273" lon="98.310788">
<time>2016-10-07T16:31:46Z</time></trkpt>
<trkpt lat="29.570272" lon="98.310858">
<time>2016-10-07T16:31:47Z</time></trkpt>
<trkpt lat="29.570262" lon="98.310948">
<time>2016-10-07T16:31:48Z</time></trkpt>
<trkpt lat="29.570262" lon="98.311028">
<time>2016-10-07T16:31:49Z</time></trkpt>
<trkpt lat="29.570272" lon="98.311108">
<time>2016-10-07T16:31:50Z</time></trkpt>
<trkpt lat="29.570282" lon="98.311188">
<time>2016-10-07T16:31:51Z</time></trkpt>
<trkpt lat="29.570302" lon="98.311337">
<time>2016-10-07T16:31:52Z</time></trkpt>
<trkpt lat="29.570331" lon="98.311487">
<time>2016-10-07T16:31:53Z</time></trkpt>
<trkpt lat="29.570371" lon="98.311647">
<time>2016-10-07T16:31:54Z</time></trkpt>
<trkpt lat="29.570411" lon="98.311826">
<time>2016-10-07T16:31:55Z</time></trkpt>
<trkpt lat="29.57042" lon="98.311886">
<time>2016-10-07T16:31:56Z</time></trkpt>
<trkpt lat="29.57044" lon="98.311956">
<time>2016-10-07T16:31:57Z</time></trkpt>
<trkpt lat="29.57045" lon="98.312026">
<time>2016-10-07T16:31:58Z</time></trkpt>
<trkpt lat="29.57046" lon="98.312076">
<time>2016-10-07T16:31:59Z</time></trkpt>
<trkpt lat="29.57046" lon="98.312116">
<time>2016-10-07T16:32:00Z</time></trkpt>
<trkpt lat="29.57045" lon="98.312146">
<time>2016-10-07T16:32:01Z</time></trkpt>
<trkpt lat="29.57045" lon="98.312175">
<time>2016-10-07T16:32:02Z</time></trkpt>
<trkpt lat="29.57044" lon="98.312195">
<time>2016-10-07T16:32:03Z</time></trkpt>
<trkpt lat="29.57043" lon="98.312205">
<time>2016-10-07T16:32:04Z</time></trkpt>
<trkpt lat="29.57043" lon="98.312215">
<time>2016-10-07T16:32:05Z</time></trkpt>
<trkpt lat="29.57041" lon="98.312235">
<time>2016-10-07T16:32:06Z</time></trkpt>
<trkpt lat="29.5704" lon="98.312245">
<time>2016-10-07T16:32:07Z</time></trkpt>
<trkpt lat="29.57038" lon="98.312255">
<time>2016-10-07T16:32:08Z</time></trkpt>
<trkpt lat="29.57037" lon="98.312265">
<time>2016-10-07T16:32:09Z</time></trkpt>
<trkpt lat="29.57036" lon="98.312265">
<time>2016-10-07T16:32:10Z</time></trkpt>
<trkpt lat="29.57034" lon="98.312275">
<time>2016-10-07T16:32:11Z</time></trkpt>
<trkpt lat="29.57031" lon="98.312275">
<time>2016-10-07T16:32:12Z</time></trkpt>
<trkpt lat="29.57029" lon="98.312265">
<time>2016-10-07T16:32:13Z</time></trkpt>
<trkpt lat="29.57028" lon="98.312255">
<time>2016-10-07T16:32:14Z</time></trkpt>
<trkpt lat="29.57026" lon="98.312245">
<time>2016-10-07T16:32:15Z</time></trkpt>
<trkpt lat="29.57025" lon="98.312235">
<time>2016-10-07T16:32:16Z</time></trkpt>
<trkpt lat="29.57023" lon="98.312215">
<time>2016-10-07T16:32:17Z</time></trkpt>
<trkpt lat="29.57022" lon="98.312195">
<time>2016-10-07T16:32:18Z</time></trkpt>
<trkpt lat="29.57021" lon="98.312166">
<time>2016-10-07T16:32:19Z</time></trkpt>
<trkpt lat="29.57021" lon="98.312136">
<time>2016-10-07T16:32:20Z</time></trkpt>
<trkpt lat="29.5702" lon="98.312126">
<time>2016-10-07T16:32:21Z</time></trkpt>
<trkpt lat="29.5702" lon="98.312086">
<time>2016-10-07T16:32:22Z</time></trkpt>
<trkpt lat="29.5702" lon="98.312046">
<time>2016-10-07T16:32:23Z</time></trkpt>
<trkpt lat="29.5702" lon="98.312006">
<time>2016-10-07T16:32:24Z</time></trkpt>
<trkpt lat="29.57021" lon="98.311936">
<time>2016-10-07T16:32:25Z</time></trkpt>
<trkpt lat="29.570211" lon="98.311856">
<time>2016-10-07T16:32:26Z</time></trkpt>
<trkpt lat="29.570211" lon="98.311776">
<time>2016-10-07T16:32:27Z</time></trkpt>
<trkpt lat="29.570211" lon="98.311716">
<time>2016-10-07T16:32:28Z</time></trkpt>
<trkpt lat="29.570201" lon="98.311677">
<time>2016-10-07T16:32:29Z</time></trkpt>
<trkpt lat="29.570191" lon="98.311597">
<time>2016-10-07T16:32:30Z</time></trkpt>
<trkpt lat="29.570161" lon="98.311497">
<time>2016-10-07T16:32:31Z</time></trkpt>
<trkpt lat="29.570131" lon="98.311397">
<time>2016-10-07T16:32:32Z</time></trkpt>
<trkpt lat="29.570082" lon="98.311267">
<time>2016-10-07T16:32:33Z</time></trkpt>
<trkpt lat="29.570052" lon="98.311158">
<time>2016-10-07T16:32:34Z</time></trkpt>
<trkpt lat="29.569992" lon="98.310988">
<time>2016-10-07T16:32:35Z</time></trkpt>
<trkpt lat="29.569953" lon="98.310818">
<time>2016-10-07T16:32:36Z</time></trkpt>
<trkpt lat="29.569923" lon="98.310619">
<time>2016-10-07T16:32:37Z</time></trkpt>
<trkpt lat="29.569873" lon="98.310379">
<time>2016-10-07T16:32:38Z</time></trkpt>
<trkpt lat="29.569824" lon="98.31018">
<time>2016-10-07T16:32:39Z</time></trkpt>
<trkpt lat="29.569814" lon="98.31013">
<time>2016-10-07T16:32:40Z</time></trkpt>
<trkpt lat="29.569794" lon="98.31005">
<time>2016-10-07T16:32:41Z</time></trkpt>
<trkpt lat="29.569784" lon="98.31002">
<time>2016-10-07T16:32:42Z</time></trkpt>
<trkpt lat="29.569774" lon="98.30999">
<time>2016-10-07T16:32:43Z</time></trkpt>
<trkpt lat="29.569764" lon="98.30996">
<time>2016-10-07T16:32:44Z</time></trkpt>
<trkpt lat="29.569744" lon="98.30993">
<time>2016-10-07T16:32:45Z</time></trkpt>
<trkpt lat="29.569734" lon="98.30991">
<time>2016-10-07T16:32:46Z</time></trkpt>
<trkpt lat="29.569714" lon="98.30989">
<time>2016-10-07T16:32:47Z</time></trkpt>
<trkpt lat="29.569704" lon="98.30988">
<time>2016-10-07T16:32:48Z</time></trkpt>
<trkpt lat="29.569694" lon="98.30987">
<time>2016-10-07T16:32:49Z</time></trkpt>
<trkpt lat="29.569674" lon="98.30987">
<time>2016-10-07T16:32:50Z</time></trkpt>
<trkpt lat="29.569664" lon="98.30986">
<time>2016-10-07T16:32:51Z</time></trkpt>
<trkpt lat="29.569654" lon="98.30986">
<time>2016-10-07T16:32:52Z</time></trkpt>
<trkpt lat="29.569634" lon="98.30986">
<time>2016-10-07T16:32:53Z</time></trkpt>
<trkpt lat="29.569614" lon="98.30987">
<time>2016-10-07T16:32:54Z</time></trkpt>
<trkpt lat="29.569594" lon="98.30987">
<time>2016-10-07T16:32:55Z</time></trkpt>
<trkpt lat="29.569584" lon="98.30988">
<time>2016-10-07T16:32:56Z</time></trkpt>
<trkpt lat="29.569564" lon="98.3099">
<time>2016-10-07T16:32:57Z</time></trkpt>
<trkpt lat="29.569554" lon="98.30992">
<time>2016-10-07T16:32:58Z</time></trkpt>
<trkpt lat="29.569544" lon="98.30994">
<time>2016-10-07T16:32:59Z</time></trkpt>
<trkpt lat="29.569534" lon="98.30996">
<time>2016-10-07T16:33:00Z</time></trkpt>
<trkpt lat="29.569524" lon="98.30998">
<time>2016-10-07T16:33:01Z</time></trkpt>
<trkpt lat="29.569524" lon="98.31002">
<time>2016-10-07T16:33:02Z</time></trkpt>
<trkpt lat="29.569534" lon="98.31006">
<time>2016-10-07T16:33:03Z</time></trkpt>
<trkpt lat="29.569544" lon="98.31011">
<time>2016-10-07T16:33:04Z</time></trkpt>
<trkpt lat="29.569564" lon="98.31016">
<time>2016-10-07T16:33:05Z</time></trkpt>
<trkpt lat="29.569584" lon="98.31019">
<time>2016-10-07T16:33:06Z</time></trkpt>
<trkpt lat="29.569614" lon="98.31027">
<time>2016-10-07T16:33:07Z</time></trkpt>
<trkpt lat="29.569673" lon="98.310389">
<time>2016-10-07T16:33:08Z</time></trkpt>
<trkpt lat="29.569703" lon="98.310469">
<time>2016-10-07T16:33:09Z</time></trkpt>
<trkpt lat="29.569723" lon="98.310559">
<time>2016-10-07T16:33:10Z</time></trkpt>
<trkpt lat="29.569743" lon="98.310649">
<time>2016-10-07T16:33:11Z</time></trkpt>
<trkpt lat="29.569743" lon="98.310739">
<time>2016-10-07T16:33:12Z</time></trkpt>
<trkpt lat="29.569743" lon="98.310798">
<time>2016-10-07T16:33:13Z</time></trkpt>
<trkpt lat="29.569743" lon="98.310888">
<time>2016-10-07T16:33:14Z</time></trkpt>
<trkpt lat="29.569742" lon="98.311028">
<time>2016-10-07T16:33:15Z</time></trkpt>
<trkpt lat="29.569742" lon="98.311168">
<time>2016-10-07T16:33:16Z</time></trkpt>
<trkpt lat="29.569752" lon="98.311297">
<time>2016-10-07T16:33:17Z</time></trkpt>
<trkpt lat="29.569772" lon="98.311407">
<time>2016-10-07T16:33:18Z</time></trkpt>
<trkpt lat="29.569801" lon="98.311527">
<time>2016-10-07T16:33:19Z</time></trkpt>
<trkpt lat="29.569831" lon="98.311677">
<time>2016-10-07T16:33:20Z</time></trkpt>
<trkpt lat="29.569841" lon="98.311756">
<time>2016-10-07T16:33:21Z</time></trkpt>
<trkpt lat="29.569831" lon="98.311806">
<time>2016-10-07T16:33:22Z</time></trkpt>
<trkpt lat="29.569831" lon="98.311836">
<time>2016-10-07T16:33:23Z</time></trkpt>
<trkpt lat="29.569821" lon="98.311856">
<time>2016-10-07T16:33:24Z</time></trkpt>
<trkpt lat="29.569811" lon="98.311876">
<time>2016-10-07T16:33:25Z</time></trkpt>
<trkpt lat="29.569791" lon="98.311896">
<time>2016-10-07T16:33:26Z</time></trkpt>
<trkpt lat="29.569761" lon="98.311916">
<time>2016-10-07T16:33:27Z</time></trkpt>
<trkpt lat="29.569751" lon="98.311926">
<time>2016-10-07T16:33:28Z</time></trkpt>
<trkpt lat="29.569721" lon="98.311926">
<time>2016-10-07T16:33:29Z</time></trkpt>
<trkpt lat="29.569711" lon="98.311926">
<time>2016-10-07T16:33:30Z</time></trkpt>
<trkpt lat="29.569691" lon="98.311926">
<time>2016-10-07T16:33:31Z</time></trkpt>
<trkpt lat="29.569671" lon="98.311916">
<time>2016-10-07T16:33:32Z</time></trkpt>
<trkpt lat="29.569651" lon="98.311906">
<time>2016-10-07T16:33:33Z</time></trkpt>
<trkpt lat="29.569631" lon="98.311896">
<time>2016-10-07T16:33:34Z</time></trkpt>
<trkpt lat="29.569611" lon="98.311866">
<time>2016-10-07T16:33:35Z</time></trkpt>
<trkpt lat="29.569601" lon="98.311846">
<time>2016-10-07T16:33:36Z</time></trkpt>
<trkpt lat="29.569591" lon="98.311816">
<time>2016-10-07T16:33:37Z</time></trkpt>
<trkpt lat="29.569581" lon="98.311786">
<time>2016-10-07T16:33:38Z</time></trkpt>
<trkpt lat="29.569581" lon="98.311756">
<time>2016-10-07T16:33:39Z</time></trkpt>
<trkpt lat="29.569591" lon="98.311707">
<time>2016-10-07T16:33:40Z</time></trkpt>
<trkpt lat="29.569601" lon="98.311617">
<time>2016-10-07T16:33:41Z</time></trkpt>
<trkpt lat="29.569601" lon="98.311567">
<time>2016-10-07T16:33:42Z</time></trkpt>
<trkpt lat="29.569601" lon="98.311517">
<time>2016-10-07T16:33:43Z</time></trkpt>
<trkpt lat="29.569602" lon="98.311447">
<time>2016-10-07T16:33:44Z</time></trkpt>
<trkpt lat="29.569592" lon="98.311387">
<time>2016-10-07T16:33:45Z</time></trkpt>
<trkpt lat="29.569572" lon="98.311267">
<time>2016-10-07T16:33:46Z</time></trkpt>
<trkpt lat="29.569552" lon="98.311188">
<time>2016-10-07T16:33:47Z</time></trkpt>
<trkpt lat="29.569522" lon="98.311078">
<time>2016-10-07T16:33:48Z</time></trkpt>
<trkpt lat="29.569492" lon="98.310998">
<time>2016-10-07T16:33:49Z</time></trkpt>
<trkpt lat="29.569443" lon="98.310808">
<time>2016-10-07T16:33:50Z</time></trkpt>
<trkpt lat="29.569383" lon="98.310619">
<time>2016-10-07T16:33:51Z</time></trkpt>
<trkpt lat="29.569353" lon="98.310529">
<time>2016-10-07T16:33:52Z</time></trkpt>
<trkpt lat="29.569324" lon="98.310399">
<time>2016-10-07T16:33:53Z</time></trkpt>
<trkpt lat="29.569294" lon="98.310319">
<time>2016-10-07T16:33:54Z</time></trkpt>
<trkpt lat="29.569264" lon="98.31021">
<time>2016-10-07T16:33:55Z</time></trkpt>
<trkpt lat="29.569234" lon="98.31012">
<time>2016-10-07T16:33:56Z</time></trkpt>
<trkpt lat="29.569214" lon="98.31009">
<time>2016-10-07T16:33:57Z</time></trkpt>
<trkpt lat="29.569204" lon="98.31006">
<time>2016-10-07T16:33:58Z</time></trkpt>
<trkpt lat="29.569194" lon="98.31003">
<time>2016-10-07T16:33:59Z</time></trkpt>
<trkpt lat="29.569184" lon="98.31001">
<time>2016-10-07T16:34:00Z</time></trkpt>
<trkpt lat="29.569174" lon="98.31">
<time>2016-10-07T16:34:01Z</time></trkpt>
<trkpt lat="29.569154" lon="98.30998">
<time>2016-10-07T16:34:02Z</time></trkpt>
<trkpt lat="29.569144" lon="98.30996">
<time>2016-10-07T16:34:03Z</time></trkpt>
<trkpt lat="29.569124" lon="98.30995">
<time>2016-10-07T16:34:04Z</time></trkpt>
<trkpt lat="29.569104" lon="98.30994">
<time>2016-10-07T16:34:05Z</time></trkpt>
<trkpt lat="29.569074" lon="98.30994">
<time>2016-10-07T16:34:06Z</time></trkpt>
<trkpt lat="29.569064" lon="98.30994">
<time>2016-10-07T16:34:07Z</time></trkpt>
<trkpt lat="29.569024" lon="98.30996">
<time>2016-10-07T16:34:08Z</time></trkpt>
<trkpt lat="29.569004" lon="98.30997">
<time>2016-10-07T16:34:09Z</time></trkpt>
<trkpt lat="29.568984" lon="98.30999">
<time>2016-10-07T16:34:10Z</time></trkpt>
<trkpt lat="29.568974" lon="98.31001">
<time>2016-10-07T16:34:11Z</time></trkpt>
<trkpt lat="29.568964" lon="98.31004">
<time>2016-10-07T16:34:12Z</time></trkpt>
<trkpt lat="29.568954" lon="98.31006">
<time>2016-10-07T16:34:13Z</time></trkpt>
<trkpt lat="29.568954" lon="98.31009">
<time>2016-10-07T16:34:14Z</time></trkpt>
<trkpt lat="29.568954" lon="98.31012">
<time>2016-10-07T16:34:15Z</time></trkpt>
<trkpt lat="29.568964" lon="98.31016">
<time>2016-10-07T16:34:16Z</time></trkpt>
<trkpt lat="29.568974" lon="98.31019">
<time>2016-10-07T16:34:17Z</time></trkpt>
<trkpt lat="29.568994" lon="98.31021">
<time>2016-10-07T16:34:18Z</time></trkpt>
<trkpt lat="29.569034" lon="98.31028">
<time>2016-10-07T16:34:19Z</time></trkpt>
<trkpt lat="29.569074" lon="98.310339">
<time>2016-10-07T16:34:20Z</time></trkpt>
<trkpt lat="29.569114" lon="98.310409">
<time>2016-10-07T16:34:21Z</time></trkpt>
<trkpt lat="29.569143" lon="98.310459">
<time>2016-10-07T16:34:22Z</time></trkpt>
<trkpt lat="29.569163" lon="98.310529">
<time>2016-10-07T16:34:23Z</time></trkpt>
<trkpt lat="29.569183" lon="98.310599">
<time>2016-10-07T16:34:24Z</time></trkpt>
<trkpt lat="29.569203" lon="98.310699">
<time>2016-10-07T16:34:25Z</time></trkpt>
<trkpt lat="29.569213" lon="98.310808">
<time>2016-10-07T16:34:26Z</time></trkpt>
<trkpt lat="29.569212" lon="98.311018">
<time>2016-10-07T16:34:27Z</time></trkpt>
<trkpt lat="29.569212" lon="98.311158">
<time>2016-10-07T16:34:28Z</time></trkpt>
<trkpt lat="29.569212" lon="98.311307">
<time>2016-10-07T16:34:29Z</time></trkpt>
<trkpt lat="29.569212" lon="98.311407">
<time>2016-10-07T16:34:30Z</time></trkpt>
<trkpt lat="29.569201" lon="98.311587">
<time>2016-10-07T16:34:31Z</time></trkpt>
<trkpt lat="29.569201" lon="98.311736">
<time>2016-10-07T16:34:32Z</time></trkpt>
<trkpt lat="29.569201" lon="98.311826">
<time>2016-10-07T16:34:33Z</time></trkpt>
<trkpt lat="29.569201" lon="98.311906">
<time>2016-10-07T16:34:34Z</time></trkpt>
<trkpt lat="29.569201" lon="98.311986">
<time>2016-10-07T16:34:35Z</time></trkpt>
<trkpt lat="29.569201" lon="98.312066">
<time>2016-10-07T16:34:36Z</time></trkpt>
<trkpt lat="29.56919" lon="98.312106">
<time>2016-10-07T16:34:37Z</time></trkpt>
<trkpt lat="29.56919" lon="98.312136">
<time>2016-10-07T16:34:38Z</time></trkpt>
<trkpt lat="29.56917" lon="98.312176">
<time>2016-10-07T16:34:39Z</time></trkpt>
<trkpt lat="29.56915" lon="98.312195">
<time>2016-10-07T16:34:40Z</time></trkpt>
<trkpt lat="29.56914" lon="98.312205">
<time>2016-10-07T16:34:41Z</time></trkpt>
<trkpt lat="29.56913" lon="98.312225">
<time>2016-10-07T16:34:42Z</time></trkpt>
<trkpt lat="29.56911" lon="98.312235">
<time>2016-10-07T16:34:43Z</time></trkpt>
<trkpt lat="29.56908" lon="98.312235">
<time>2016-10-07T16:34:44Z</time></trkpt>
<trkpt lat="29.56905" lon="98.312235">
<time>2016-10-07T16:34:45Z</time></trkpt>
<trkpt lat="29.56902" lon="98.312225">
<time>2016-10-07T16:34:46Z</time></trkpt>
<trkpt lat="29.569" lon="98.312205">
<time>2016-10-07T16:34:47Z</time></trkpt>
<trkpt lat="29.56898" lon="98.312185">
<time>2016-10-07T16:34:48Z</time></trkpt>
<trkpt lat="29.56896" lon="98.312156">
<time>2016-10-07T16:34:49Z</time></trkpt>
<trkpt lat="29.568941" lon="98.312106">
<time>2016-10-07T16:34:50Z</time></trkpt>
<trkpt lat="29.568931" lon="98.312056">
<time>2016-10-07T16:34:51Z</time></trkpt>
<trkpt lat="29.568921" lon="98.312006">
<time>2016-10-07T16:34:52Z</time></trkpt>
<trkpt lat="29.568921" lon="98.311936">
<time>2016-10-07T16:34:53Z</time></trkpt>
<trkpt lat="29.568921" lon="98.311836">
<time>2016-10-07T16:34:54Z</time></trkpt>
<trkpt lat="29.568921" lon="98.311736">
<time>2016-10-07T16:34:55Z</time></trkpt>
<trkpt lat="29.568901" lon="98.311627">
<time>2016-10-07T16:34:56Z</time></trkpt>
<trkpt lat="29.568882" lon="98.311527">
<time>2016-10-07T16:34:57Z</time></trkpt>
<trkpt lat="29.568862" lon="98.311457">
<time>2016-10-07T16:34:58Z</time></trkpt>
<trkpt lat="29.568832" lon="98.311377">
<time>2016-10-07T16:34:59Z</time></trkpt>
<trkpt lat="29.568772" lon="98.311248">
<time>2016-10-07T16:35:00Z</time></trkpt>
<trkpt lat="29.568702" lon="98.311118">
<time>2016-10-07T16:35:01Z</time></trkpt>
<trkpt lat="29.568623" lon="98.310958">
<time>2016-10-07T16:35:02Z</time></trkpt>
<trkpt lat="29.568543" lon="98.310798">
<time>2016-10-07T16:35:03Z</time></trkpt>
<trkpt lat="29.568463" lon="98.310639">
<time>2016-10-07T16:35:04Z</time></trkpt>
<trkpt lat="29.568394" lon="98.310499">
<time>2016-10-07T16:35:05Z</time></trkpt>
<trkpt lat="29.568334" lon="98.310359">
<time>2016-10-07T16:35:06Z</time></trkpt>
<trkpt lat="29.568304" lon="98.31028">
<time>2016-10-07T16:35:07Z</time></trkpt>
<trkpt lat="29.568264" lon="98.31022">
<time>2016-10-07T16:35:08Z</time></trkpt>
<trkpt lat="29.568224" lon="98.31014">
<time>2016-10-07T16:35:09Z</time></trkpt>
<trkpt lat="29.568194" lon="98.31009">
<time>2016-10-07T16:35:10Z</time></trkpt>
<trkpt lat="29.568135" lon="98.31">
<time>2016-10-07T16:35:11Z</time></trkpt>
<trkpt lat="29.568045" lon="98.30991">
<time>2016-10-07T16:35:12Z</time></trkpt>
<trkpt lat="29.568015" lon="98.30987">
<time>2016-10-07T16:35:13Z</time></trkpt>
<trkpt lat="29.567955" lon="98.309821">
<time>2016-10-07T16:35:14Z</time></trkpt>
<trkpt lat="29.567895" lon="98.309781">
<time>2016-10-07T16:35:15Z</time></trkpt>
<trkpt lat="29.567845" lon="98.309751">
<time>2016-10-07T16:35:16Z</time></trkpt>
<trkpt lat="29.567755" lon="98.309691">
<time>2016-10-07T16:35:17Z</time></trkpt>
<trkpt lat="29.567715" lon="98.309661">
<time>2016-10-07T16:35:18Z</time></trkpt>
<trkpt lat="29.567695" lon="98.309641">
<time>2016-10-07T16:35:19Z</time></trkpt>
<trkpt lat="29.567676" lon="98.309611">
<time>2016-10-07T16:35:20Z</time></trkpt>
<trkpt lat="29.567656" lon="98.309591">
<time>2016-10-07T16:35:21Z</time></trkpt>
<trkpt lat="29.567646" lon="98.309551">
<time>2016-10-07T16:35:22Z</time></trkpt>
<trkpt lat="29.567636" lon="98.309531">
<time>2016-10-07T16:35:23Z</time></trkpt>
<trkpt lat="29.567626" lon="98.309501">
<time>2016-10-07T16:35:24Z</time></trkpt>
<trkpt lat="29.567626" lon="98.309471">
<time>2016-10-07T16:35:25Z</time></trkpt>
<trkpt lat="29.567626" lon="98.309431">
<time>2016-10-07T16:35:26Z</time></trkpt>
<trkpt lat="29.567626" lon="98.309401">
<time>2016-10-07T16:35:27Z</time></trkpt>
<trkpt lat="29.567636" lon="98.309362">
<time>2016-10-07T16:35:28Z</time></trkpt>
<trkpt lat="29.567646" lon="98.309322">
<time>2016-10-07T16:35:29Z</time></trkpt>
<trkpt lat="29.567676" lon="98.309272">
<time>2016-10-07T16:35:30Z</time></trkpt>
<trkpt lat="29.567726" lon="98.309192">
<time>2016-10-07T16:35:31Z</time></trkpt>
<trkpt lat="29.567786" lon="98.309092">
<time>2016-10-07T16:35:32Z</time></trkpt>
<trkpt lat="29.567837" lon="98.308982">
<time>2016-10-07T16:35:33Z</time></trkpt>
<trkpt lat="29.567857" lon="98.308912">
<time>2016-10-07T16:35:34Z</time></trkpt>
<trkpt lat="29.567867" lon="98.308853">
<time>2016-10-07T16:35:35Z</time></trkpt>
<trkpt lat="29.567877" lon="98.308813">
<time>2016-10-07T16:35:36Z</time></trkpt>
<trkpt lat="29.567877" lon="98.308753">
<time>2016-10-07T16:35:37Z</time></trkpt>
<trkpt lat="29.567877" lon="98.308693">
<time>2016-10-07T16:35:38Z</time></trkpt>
<trkpt lat="29.567877" lon="98.308623">
<time>2016-10-07T16:35:39Z</time></trkpt>
<trkpt lat="29.567867" lon="98.308553">
<time>2016-10-07T16:35:40Z</time></trkpt>
<trkpt lat="29.567848" lon="98.308453">
<time>2016-10-07T16:35:41Z</time></trkpt>
<trkpt lat="29.567838" lon="98.308394">
<time>2016-10-07T16:35:42Z</time></trkpt>
<trkpt lat="29.567828" lon="98.308334">
<time>2016-10-07T16:35:43Z</time></trkpt>
<trkpt lat="29.567828" lon="98.308254">
<time>2016-10-07T16:35:44Z</time></trkpt>
<trkpt lat="29.567838" lon="98.308204">
<time>2016-10-07T16:35:45Z</time></trkpt>
<trkpt lat="29.567848" lon="98.308114">
<time>2016-10-07T16:35:46Z</time></trkpt>
<trkpt lat="29.567868" lon="98.308034">
<time>2016-10-07T16:35:47Z</time></trkpt>
<trkpt lat="29.567899" lon="98.307885">
<time>2016-10-07T16:35:48Z</time></trkpt>
<trkpt lat="29.567909" lon="98.307785">
<time>2016-10-07T16:35:49Z</time></trkpt>
<trkpt lat="29.567919" lon="98.307735">
<time>2016-10-07T16:35:50Z</time></trkpt>
<trkpt lat="29.567919" lon="98.307675">
<time>2016-10-07T16:35:51Z</time></trkpt>
<trkpt lat="29.567909" lon="98.307595">
<time>2016-10-07T16:35:52Z</time></trkpt>
<trkpt lat="29.567909" lon="98.307535">
<time>2016-10-07T16:35:53Z</time></trkpt>
<trkpt lat="29.567899" lon="98.307505">
<time>2016-10-07T16:35:54Z</time></trkpt>
<trkpt lat="29.567899" lon="98.307446">
<time>2016-10-07T16:35:55Z</time></trkpt>
<trkpt lat="29.567889" lon="98.307386">
<time>2016-10-07T16:35:56Z</time></trkpt>
<trkpt lat="29.567899" lon="98.307356">
<time>2016-10-07T16:35:57Z</time></trkpt>
<trkpt lat="29.5679" lon="98.307316">
<time>2016-10-07T16:35:58Z</time></trkpt>
<trkpt lat="29.56791" lon="98.307276">
<time>2016-10-07T16:35:59Z</time></trkpt>
<trkpt lat="29.56792" lon="98.307236">
<time>2016-10-07T16:36:00Z</time></trkpt>
<trkpt lat="29.56795" lon="98.307166">
<time>2016-10-07T16:36:01Z</time></trkpt>
<trkpt lat="29.56798" lon="98.307126">
<time>2016-10-07T16:36:02Z</time></trkpt>
<trkpt lat="29.56802" lon="98.307086">
<time>2016-10-07T16:36:03Z</time></trkpt>
<trkpt lat="29.56806" lon="98.307046">
<time>2016-10-07T16:36:04Z</time></trkpt>
<trkpt lat="29.56812" lon="98.307016">
<time>2016-10-07T16:36:05Z</time></trkpt>
<trkpt lat="29.56819" lon="98.306986">
<time>2016-10-07T16:36:06Z</time></trkpt>
<trkpt lat="29.56832" lon="98.306957">
<time>2016-10-07T16:36:07Z</time></trkpt>
<trkpt lat="29.56841" lon="98.306927">
<time>2016-10-07T16:36:08Z</time></trkpt>
<trkpt lat="29.5685" lon="98.306897">
<time>2016-10-07T16:36:09Z</time></trkpt>
<trkpt lat="29.56855" lon="98.306877">
<time>2016-10-07T16:36:10Z</time></trkpt>
<trkpt lat="29.56861" lon="98.306837">
<time>2016-10-07T16:36:11Z</time></trkpt>
<trkpt lat="29.56867" lon="98.306797">
<time>2016-10-07T16:36:12Z</time></trkpt>
<trkpt lat="29.5687" lon="98.306767">
<time>2016-10-07T16:36:13Z</time></trkpt>
<trkpt lat="29.56874" lon="98.306727">
<time>2016-10-07T16:36:14Z</time></trkpt>
<trkpt lat="29.56877" lon="98.306687">
<time>2016-10-07T16:36:15Z</time></trkpt>
<trkpt lat="29.56879" lon="98.306657">
<time>2016-10-07T16:36:16Z</time></trkpt>
<trkpt lat="29.568851" lon="98.306557">
<time>2016-10-07T16:36:17Z</time></trkpt>
<trkpt lat="29.568881" lon="98.306507">
<time>2016-10-07T16:36:18Z</time></trkpt>
<trkpt lat="29.568901" lon="98.306448">
<time>2016-10-07T16:36:19Z</time></trkpt>
<trkpt lat="29.568921" lon="98.306388">
<time>2016-10-07T16:36:20Z</time></trkpt>
<trkpt lat="29.568961" lon="98.306248">
<time>2016-10-07T16:36:21Z</time></trkpt>
<trkpt lat="29.569011" lon="98.306068">
<time>2016-10-07T16:36:22Z</time></trkpt>
<trkpt lat="29.569041" lon="98.305999">
<time>2016-10-07T16:36:23Z</time></trkpt>
<trkpt lat="29.569062" lon="98.305929">
<time>2016-10-07T16:36:24Z</time></trkpt>
<trkpt lat="29.569082" lon="98.305889">
<time>2016-10-07T16:36:25Z</time></trkpt>
<trkpt lat="29.569122" lon="98.305829">
<time>2016-10-07T16:36:26Z</time></trkpt>
<trkpt lat="29.569132" lon="98.305799">
<time>2016-10-07T16:36:27Z</time></trkpt>
<trkpt lat="29.569182" lon="98.305739">
<time>2016-10-07T16:36:28Z</time></trkpt>
<trkpt lat="29.569222" lon="98.305689">
<time>2016-10-07T16:36:29Z</time></trkpt>
<trkpt lat="29.569292" lon="98.305619">
<time>2016-10-07T16:36:30Z</time></trkpt>
<trkpt lat="29.569362" lon="98.305569">
<time>2016-10-07T16:36:31Z</time></trkpt>
<trkpt lat="29.569432" lon="98.305519">
<time>2016-10-07T16:36:32Z</time></trkpt>
<trkpt lat="29.569462" lon="98.3055">
<time>2016-10-07T16:36:33Z</time></trkpt>
<trkpt lat="29.569552" lon="98.30545">
<time>2016-10-07T16:36:34Z</time></trkpt>
<trkpt lat="29.569672" lon="98.3054">
<time>2016-10-07T16:36:35Z</time></trkpt>
<trkpt lat="29.569742" lon="98.30538">
<time>2016-10-07T16:36:36Z</time></trkpt>
<trkpt lat="29.569872" lon="98.30533">
<time>2016-10-07T16:36:37Z</time></trkpt>
<trkpt lat="29.569952" lon="98.30531">
<time>2016-10-07T16:36:38Z</time></trkpt>
<trkpt lat="29.570072" lon="98.30527">
<time>2016-10-07T16:36:39Z</time></trkpt>
<trkpt lat="29.570142" lon="98.30525">
<time>2016-10-07T16:36:40Z</time></trkpt>
<trkpt lat="29.570172" lon="98.30523">
<time>2016-10-07T16:36:41Z</time></trkpt>
<trkpt lat="29.570212" lon="98.30521">
<time>2016-10-07T16:36:42Z</time></trkpt>
<trkpt lat="29.570242" lon="98.30519">
<time>2016-10-07T16:36:43Z</time></trkpt>
<trkpt lat="29.570262" lon="98.30516">
<time>2016-10-07T16:36:44Z</time></trkpt>
<trkpt lat="29.570283" lon="98.30513">
<time>2016-10-07T16:36:45Z</time></trkpt>
<trkpt lat="29.570303" lon="98.30509">
<time>2016-10-07T16:36:46Z</time></trkpt>
<trkpt lat="29.570313" lon="98.30505">
<time>2016-10-07T16:36:47Z</time></trkpt>
<trkpt lat="29.570313" lon="98.30502">
<time>2016-10-07T16:36:48Z</time></trkpt>
<trkpt lat="29.570323" lon="98.304981">
<time>2016-10-07T16:36:49Z</time></trkpt>
<trkpt lat="29.570323" lon="98.304951">
<time>2016-10-07T16:36:50Z</time></trkpt>
<trkpt lat="29.570323" lon="98.304911">
<time>2016-10-07T16:36:51Z</time></trkpt>
<trkpt lat="29.570323" lon="98.304841">
<time>2016-10-07T16:36:52Z</time></trkpt>
<trkpt lat="29.570323" lon="98.304791">
<time>2016-10-07T16:36:53Z</time></trkpt>
<trkpt lat="29.570323" lon="98.304741">
<time>2016-10-07T16:36:54Z</time></trkpt>
<trkpt lat="29.570343" lon="98.304681">
<time>2016-10-07T16:36:55Z</time></trkpt>
<trkpt lat="29.570363" lon="98.304621">
<time>2016-10-07T16:36:56Z</time></trkpt>
<trkpt lat="29.570393" lon="98.304561">
<time>2016-10-07T16:36:57Z</time></trkpt>
<trkpt lat="29.570434" lon="98.304492">
<time>2016-10-07T16:36:58Z</time></trkpt>
<trkpt lat="29.570494" lon="98.304402">
<time>2016-10-07T16:36:59Z</time></trkpt>
<trkpt lat="29.570534" lon="98.304332">
<time>2016-10-07T16:37:00Z</time></trkpt>
<trkpt lat="29.570554" lon="98.304292">
<time>2016-10-07T16:37:01Z</time></trkpt>
<trkpt lat="29.570564" lon="98.304242">
<time>2016-10-07T16:37:02Z</time></trkpt>
<trkpt lat="29.570574" lon="98.304182">
<time>2016-10-07T16:37:03Z</time></trkpt>
<trkpt lat="29.570574" lon="98.304122">
<time>2016-10-07T16:37:04Z</time></trkpt>
<trkpt lat="29.570554" lon="98.304052">
<time>2016-10-07T16:37:05Z</time></trkpt>
<trkpt lat="29.570524" lon="98.304003">
<time>2016-10-07T16:37:06Z</time></trkpt>
<trkpt lat="29.570464" lon="98.303933">
<time>2016-10-07T16:37:07Z</time></trkpt>
<trkpt lat="29.570385" lon="98.303863">
<time>2016-10-07T16:37:08Z</time></trkpt>
<trkpt lat="29.570335" lon="98.303833">
<time>2016-10-07T16:37:09Z</time></trkpt>
<trkpt lat="29.570285" lon="98.303783">
<time>2016-10-07T16:37:10Z</time></trkpt>
<trkpt lat="29.570245" lon="98.303703">
<time>2016-10-07T16:37:11Z</time></trkpt>
<trkpt lat="29.570235" lon="98.303653">
<time>2016-10-07T16:37:12Z</time></trkpt>
<trkpt lat="29.570225" lon="98.303593">
<time>2016-10-07T16:37:13Z</time></trkpt>
<trkpt lat="29.570225" lon="98.303543">
<time>2016-10-07T16:37:14Z</time></trkpt>
<trkpt lat="29.570235" lon="98.303454">
<time>2016-10-07T16:37:15Z</time></trkpt>
<trkpt lat="29.570245" lon="98.303394">
<time>2016-10-07T16:37:16Z</time></trkpt>
<trkpt lat="29.570266" lon="98.303324">
<time>2016-10-07T16:37:17Z</time></trkpt>
<trkpt lat="29.570296" lon="98.303254">
<time>2016-10-07T16:37:18Z</time></trkpt>
<trkpt lat="29.570316" lon="98.303194">
<time>2016-10-07T16:37:19Z</time></trkpt>
<trkpt lat="29.570356" lon="98.303074">
<time>2016-10-07T16:37:20Z</time></trkpt>
<trkpt lat="29.570416" lon="98.302895">
<time>2016-10-07T16:37:21Z</time></trkpt>
<trkpt lat="29.570467" lon="98.302705">
<time>2016-10-07T16:37:22Z</time></trkpt>
<trkpt lat="29.570527" lon="98.302565">
<time>2016-10-07T16:37:23Z</time></trkpt>
<trkpt lat="29.570597" lon="98.302436">
<time>2016-10-07T16:37:24Z</time></trkpt>
<trkpt lat="29.570657" lon="98.302336">
<time>2016-10-07T16:37:25Z</time></trkpt>
<trkpt lat="29.570707" lon="98.302246">
<time>2016-10-07T16:37:26Z</time></trkpt>
<trkpt lat="29.570737" lon="98.302196">
<time>2016-10-07T16:37:27Z</time></trkpt>
<trkpt lat="29.570767" lon="98.302116">
<time>2016-10-07T16:37:28Z</time></trkpt>
<trkpt lat="29.570818" lon="98.301977">
<time>2016-10-07T16:37:29Z</time></trkpt>
<trkpt lat="29.570868" lon="98.301787">
<time>2016-10-07T16:37:30Z</time></trkpt>
<trkpt lat="29.570918" lon="98.301597">
<time>2016-10-07T16:37:31Z</time></trkpt>
<trkpt lat="29.570948" lon="98.301458">
<time>2016-10-07T16:37:32Z</time></trkpt>
<trkpt lat="29.570989" lon="98.301308">
<time>2016-10-07T16:37:33Z</time></trkpt>
<trkpt lat="29.571019" lon="98.301198">
<time>2016-10-07T16:37:34Z</time></trkpt>
<trkpt lat="29.571059" lon="98.301068">
<time>2016-10-07T16:37:35Z</time></trkpt>
<trkpt lat="29.571099" lon="98.300988">
<time>2016-10-07T16:37:36Z</time></trkpt>
<trkpt lat="29.571149" lon="98.300889">
<time>2016-10-07T16:37:37Z</time></trkpt>
<trkpt lat="29.57123" lon="98.300779">
<time>2016-10-07T16:37:38Z</time></trkpt>
<trkpt lat="29.57128" lon="98.300699">
<time>2016-10-07T16:37:39Z</time></trkpt>
<trkpt lat="29.57135" lon="98.300609">
<time>2016-10-07T16:37:40Z</time></trkpt>
<trkpt lat="29.57143" lon="98.300459">
<time>2016-10-07T16:37:41Z</time></trkpt>
<trkpt lat="29.57146" lon="98.30042">
<time>2016-10-07T16:37:42Z</time></trkpt>
<trkpt lat="29.57152" lon="98.30031">
<time>2016-10-07T16:37:43Z</time></trkpt>
<trkpt lat="29.57155" lon="98.30024">
<time>2016-10-07T16:37:44Z</time></trkpt>
<trkpt lat="29.57158" lon="98.30014">
<time>2016-10-07T16:37:45Z</time></trkpt>
<trkpt lat="29.571601" lon="98.30004">
<time>2016-10-07T16:37:46Z</time></trkpt>
<trkpt lat="29.571611" lon="98.29996">
<time>2016-10-07T16:37:47Z</time></trkpt>
<trkpt lat="29.571621" lon="98.299911">
<time>2016-10-07T16:37:48Z</time></trkpt>
<trkpt lat="29.571621" lon="98.299851">
<time>2016-10-07T16:37:49Z</time></trkpt>
<trkpt lat="29.571631" lon="98.299701">
<time>2016-10-07T16:37:50Z</time></trkpt>
<trkpt lat="29.571651" lon="98.299551">
<time>2016-10-07T16:37:51Z</time></trkpt>
<trkpt lat="29.571692" lon="98.299362">
<time>2016-10-07T16:37:52Z</time></trkpt>
<trkpt lat="29.571712" lon="98.299292">
<time>2016-10-07T16:37:53Z</time></trkpt>
<trkpt lat="29.571752" lon="98.299162">
<time>2016-10-07T16:37:54Z</time></trkpt>
<trkpt lat="29.571812" lon="98.299052">
<time>2016-10-07T16:37:55Z</time></trkpt>
<trkpt lat="29.571862" lon="98.298972">
<time>2016-10-07T16:37:56Z</time></trkpt>
<trkpt lat="29.571932" lon="98.298843">
<time>2016-10-07T16:37:57Z</time></trkpt>
<trkpt lat="29.571972" lon="98.298783">
<time>2016-10-07T16:37:58Z</time></trkpt>
<trkpt lat="29.571993" lon="98.298733">
<time>2016-10-07T16:37:59Z</time></trkpt>
<trkpt lat="29.572023" lon="98.298693">
<time>2016-10-07T16:38:00Z</time></trkpt>
<trkpt lat="29.572063" lon="98.298653">
<time>2016-10-07T16:38:01Z</time></trkpt>
<trkpt lat="29.572093" lon="98.298623">
<time>2016-10-07T16:38:02Z</time></trkpt>
<trkpt lat="29.572113" lon="98.298603">
<time>2016-10-07T16:38:03Z</time></trkpt>
<trkpt lat="29.572143" lon="98.298593">
<time>2016-10-07T16:38:04Z</time></trkpt>
<trkpt lat="29.572183" lon="98.298583">
<time>2016-10-07T16:38:05Z</time></trkpt>
<trkpt lat="29.572213" lon="98.298583">
<time>2016-10-07T16:38:06Z</time></trkpt>
<trkpt lat="29.572243" lon="98.298583">
<time>2016-10-07T16:38:07Z</time></trkpt>
<trkpt lat="29.572273" lon="98.298593">
<time>2016-10-07T16:38:08Z</time></trkpt>
<trkpt lat="29.572303" lon="98.298603">
<time>2016-10-07T16:38:09Z</time></trkpt>
<trkpt lat="29.572323" lon="98.298623">
<time>2016-10-07T16:38:10Z</time></trkpt>
<trkpt lat="29.572343" lon="98.298643">
<time>2016-10-07T16:38:11Z</time></trkpt>
<trkpt lat="29.572363" lon="98.298653">
<time>2016-10-07T16:38:12Z</time></trkpt>
<trkpt lat="29.572392" lon="98.298693">
<time>2016-10-07T16:38:13Z</time></trkpt>
<trkpt lat="29.572412" lon="98.298733">
<time>2016-10-07T16:38:14Z</time></trkpt>
<trkpt lat="29.572432" lon="98.298773">
<time>2016-10-07T16:38:15Z</time></trkpt>
<trkpt lat="29.572452" lon="98.298823">
<time>2016-10-07T16:38:16Z</time></trkpt>
<trkpt lat="29.572472" lon="98.298872">
<time>2016-10-07T16:38:17Z</time></trkpt>
<trkpt lat="29.572482" lon="98.298922">
<time>2016-10-07T16:38:18Z</time></trkpt>
<trkpt lat="29.572502" lon="98.298962">
<time>2016-10-07T16:38:19Z</time></trkpt>
<trkpt lat="29.572512" lon="98.299012">
<time>2016-10-07T16:38:20Z</time></trkpt>
<trkpt lat="29.572532" lon="98.299052">
<time>2016-10-07T16:38:21Z</time></trkpt>
<trkpt lat="29.572542" lon="98.299082">
<time>2016-10-07T16:38:22Z</time></trkpt>
<trkpt lat="29.572562" lon="98.299142">
<time>2016-10-07T16:38:23Z</time></trkpt>
<trkpt lat="29.572572" lon="98.299172">
<time>2016-10-07T16:38:24Z</time></trkpt>
<trkpt lat="29.572592" lon="98.299212">
<time>2016-10-07T16:38:25Z</time></trkpt>
<trkpt lat="29.572621" lon="98.299272">
<time>2016-10-07T16:38:26Z</time></trkpt>
<trkpt lat="29.572661" lon="98.299332">
<time>2016-10-07T16:38:27Z</time></trkpt>
<trkpt lat="29.572691" lon="98.299362">
<time>2016-10-07T16:38:28Z</time></trkpt>
<trkpt lat="29.572731" lon="98.299401">
<time>2016-10-07T16:38:29Z</time></trkpt>
<trkpt lat="29.572781" lon="98.299441">
<time>2016-10-07T16:38:30Z</time></trkpt>
<trkpt lat="29.572821" lon="98.299471">
<time>2016-10-07T16:38:31Z</time></trkpt>
<trkpt lat="29.572871" lon="98.299501">
<time>2016-10-07T16:38:32Z</time></trkpt>
<trkpt lat="29.572891" lon="98.299531">
<time>2016-10-07T16:38:33Z</time></trkpt>
<trkpt lat="29.572921" lon="98.299551">
<time>2016-10-07T16:38:34Z</time></trkpt>
<trkpt lat="29.572941" lon="98.299571">
<time>2016-10-07T16:38:35Z</time></trkpt>
<trkpt lat="29.572971" lon="98.299591">
<time>2016-10-07T16:38:36Z</time></trkpt>
<trkpt lat="29.573011" lon="98.299651">
<time>2016-10-07T16:38:37Z</time></trkpt>
<trkpt lat="29.573061" lon="98.299711">
<time>2016-10-07T16:38:38Z</time></trkpt>
<trkpt lat="29.573091" lon="98.299761">
<time>2016-10-07T16:38:39Z</time></trkpt>
<trkpt lat="29.57312" lon="98.299841">
<time>2016-10-07T16:38:40Z</time></trkpt>
<trkpt lat="29.57315" lon="98.29993">
<time>2016-10-07T16:38:41Z</time></trkpt>
<trkpt lat="29.57317" lon="98.3">
<time>2016-10-07T16:38:42Z</time></trkpt>
<trkpt lat="29.57321" lon="98.30017">
<time>2016-10-07T16:38:43Z</time></trkpt>
<trkpt lat="29.57325" lon="98.30035">
<time>2016-10-07T16:38:44Z</time></trkpt>
<trkpt lat="29.573289" lon="98.300459">
<time>2016-10-07T16:38:45Z</time></trkpt>
<trkpt lat="29.573329" lon="98.300549">
<time>2016-10-07T16:38:46Z</time></trkpt>
<trkpt lat="29.573369" lon="98.300629">
<time>2016-10-07T16:38:47Z</time></trkpt>
<trkpt lat="29.573449" lon="98.300749">
<time>2016-10-07T16:38:48Z</time></trkpt>
<trkpt lat="29.573529" lon="98.300839">
<time>2016-10-07T16:38:49Z</time></trkpt>
<trkpt lat="29.573598" lon="98.300929">
<time>2016-10-07T16:38:50Z</time></trkpt>
<trkpt lat="29.573638" lon="98.300968">
<time>2016-10-07T16:38:51Z</time></trkpt>
<trkpt lat="29.573748" lon="98.301058">
<time>2016-10-07T16:38:52Z</time></trkpt>
<trkpt lat="29.573898" lon="98.301138">
<time>2016-10-07T16:38:53Z</time></trkpt>
<trkpt lat="29.574108" lon="98.301248">
<time>2016-10-07T16:38:54Z</time></trkpt>
<trkpt lat="29.574218" lon="98.301318">
<time>2016-10-07T16:38:55Z</time></trkpt>
<trkpt lat="29.574298" lon="98.301368">
<time>2016-10-07T16:38:56Z</time></trkpt>
<trkpt lat="29.574367" lon="98.301428">
<time>2016-10-07T16:38:57Z</time></trkpt>
<trkpt lat="29.574627" lon="98.301637">
<time>2016-10-07T16:38:58Z</time></trkpt>
<trkpt lat="29.574747" lon="98.301747">
<time>2016-10-07T16:38:59Z</time></trkpt>
<trkpt lat="29.574797" lon="98.301797">
<time>2016-10-07T16:39:00Z</time></trkpt>
<trkpt lat="29.574847" lon="98.301827">
<time>2016-10-07T16:39:01Z</time></trkpt>
<trkpt lat="29.574897" lon="98.301847">
<time>2016-10-07T16:39:02Z</time></trkpt>
<trkpt lat="29.574927" lon="98.301847">
<time>2016-10-07T16:39:03Z</time></trkpt>
<trkpt lat="29.574966" lon="98.301857">
<time>2016-10-07T16:39:04Z</time></trkpt>
<trkpt lat="29.575006" lon="98.301847">
<time>2016-10-07T16:39:05Z</time></trkpt>
<trkpt lat="29.575036" lon="98.301847">
<time>2016-10-07T16:39:06Z</time></trkpt>
<trkpt lat="29.575076" lon="98.301837">
<time>2016-10-07T16:39:07Z</time></trkpt>
<trkpt lat="29.575126" lon="98.301817">
<time>2016-10-07T16:39:08Z</time></trkpt>
<trkpt lat="29.575167" lon="98.301797">
<time>2016-10-07T16:39:09Z</time></trkpt>
<trkpt lat="29.575197" lon="98.301787">
<time>2016-10-07T16:39:10Z</time></trkpt>
<trkpt lat="29.575227" lon="98.301777">
<time>2016-10-07T16:39:11Z</time></trkpt>
<trkpt lat="29.575257" lon="98.301767">
<time>2016-10-07T16:39:12Z</time></trkpt>
<trkpt lat="29.575297" lon="98.301767">
<time>2016-10-07T16:39:13Z</time></trkpt>
<trkpt lat="29.575327" lon="98.301767">
<time>2016-10-07T16:39:14Z</time></trkpt>
<trkpt lat="29.575376" lon="98.301777">
<time>2016-10-07T16:39:15Z</time></trkpt>
<trkpt lat="29.575416" lon="98.301787">
<time>2016-10-07T16:39:16Z</time></trkpt>
<trkpt lat="29.575476" lon="98.301817">
<time>2016-10-07T16:39:17Z</time></trkpt>
<trkpt lat="29.575506" lon="98.301827">
<time>2016-10-07T16:39:18Z</time></trkpt>
<trkpt lat="29.575566" lon="98.301847">
<time>2016-10-07T16:39:19Z</time></trkpt>
<trkpt lat="29.575606" lon="98.301857">
<time>2016-10-07T16:39:20Z</time></trkpt>
<trkpt lat="29.575636" lon="98.301857">
<time>2016-10-07T16:39:21Z</time></trkpt>
<trkpt lat="29.575666" lon="98.301857">
<time>2016-10-07T16:39:22Z</time></trkpt>
<trkpt lat="29.575696" lon="98.301857">
<time>2016-10-07T16:39:23Z</time></trkpt>
<trkpt lat="29.575726" lon="98.301857">
<time>2016-10-07T16:39:24Z</time></trkpt>
<trkpt lat="29.575756" lon="98.301857">
<time>2016-10-07T16:39:25Z</time></trkpt>
<trkpt lat="29.575796" lon="98.301847">
<time>2016-10-07T16:39:26Z</time></trkpt>
<trkpt lat="29.575816" lon="98.301847">
<time>2016-10-07T16:39:27Z</time></trkpt>
<trkpt lat="29.575856" lon="98.301837">
<time>2016-10-07T16:39:28Z</time></trkpt>
<trkpt lat="29.575906" lon="98.301827">
<time>2016-10-07T16:39:29Z</time></trkpt>
<trkpt lat="29.575936" lon="98.301827">
<time>2016-10-07T16:39:30Z</time></trkpt>
<trkpt lat="29.575976" lon="98.301817">
<time>2016-10-07T16:39:31Z</time></trkpt>
<trkpt lat="29.576026" lon="98.301827">
<time>2016-10-07T16:39:32Z</time></trkpt>
<trkpt lat="29.576096" lon="98.301837">
<time>2016-10-07T16:39:33Z</time></trkpt>
<trkpt lat="29.576156" lon="98.301857">
<time>2016-10-07T16:39:34Z</time></trkpt>
<trkpt lat="29.576206" lon="98.301877">
<time>2016-10-07T16:39:35Z</time></trkpt>
<trkpt lat="29.576306" lon="98.301917">
<time>2016-10-07T16:39:36Z</time></trkpt>
<trkpt lat="29.576466" lon="98.302006">
<time>2016-10-07T16:39:37Z</time></trkpt>
<trkpt lat="29.576606" lon="98.302086">
<time>2016-10-07T16:39:38Z</time></trkpt>
<trkpt lat="29.576646" lon="98.302106">
<time>2016-10-07T16:39:39Z</time></trkpt>
<trkpt lat="29.576715" lon="98.302126">
<time>2016-10-07T16:39:40Z</time></trkpt>
<trkpt lat="29.576745" lon="98.302126">
<time>2016-10-07T16:39:41Z</time></trkpt>
<trkpt lat="29.576785" lon="98.302126">
<time>2016-10-07T16:39:42Z</time></trkpt>
<trkpt lat="29.576815" lon="98.302126">
<time>2016-10-07T16:39:43Z</time></trkpt>
<trkpt lat="29.576845" lon="98.302116">
<time>2016-10-07T16:39:44Z</time></trkpt>
<trkpt lat="29.576885" lon="98.302096">
<time>2016-10-07T16:39:45Z</time></trkpt>
<trkpt lat="29.576966" lon="98.302026">
<time>2016-10-07T16:39:46Z</time></trkpt>
<trkpt lat="29.577046" lon="98.301956">
<time>2016-10-07T16:39:47Z</time></trkpt>
<trkpt lat="29.577116" lon="98.301887">
<time>2016-10-07T16:39:48Z</time></trkpt>
<trkpt lat="29.577156" lon="98.301847">
<time>2016-10-07T16:39:49Z</time></trkpt>
<trkpt lat="29.577196" lon="98.301817">
<time>2016-10-07T16:39:50Z</time></trkpt>
<trkpt lat="29.577236" lon="98.301797">
<time>2016-10-07T16:39:51Z</time></trkpt>
<trkpt lat="29.577306" lon="98.301767">
<time>2016-10-07T16:39:52Z</time></trkpt>
<trkpt lat="29.577356" lon="98.301757">
<time>2016-10-07T16:39:53Z</time></trkpt>
<trkpt lat="29.577446" lon="98.301747">
<time>2016-10-07T16:39:54Z</time></trkpt>
<trkpt lat="29.577586" lon="98.301737">
<time>2016-10-07T16:39:55Z</time></trkpt>
<trkpt lat="29.577776" lon="98.301727">
<time>2016-10-07T16:39:56Z</time></trkpt>
<trkpt lat="29.577856" lon="98.301727">
<time>2016-10-07T16:39:57Z</time></trkpt>
<trkpt lat="29.577926" lon="98.301717">
<time>2016-10-07T16:39:58Z</time></trkpt>
<trkpt lat="29.577976" lon="98.301707">
<time>2016-10-07T16:39:59Z</time></trkpt>
<trkpt lat="29.578076" lon="98.301677">
<time>2016-10-07T16:40:00Z</time></trkpt>
<trkpt lat="29.578126" lon="98.301667">
<time>2016-10-07T16:40:01Z</time></trkpt>
<trkpt lat="29.578216" lon="98.301617">
<time>2016-10-07T16:40:02Z</time></trkpt>
<trkpt lat="29.578256" lon="98.301597">
<time>2016-10-07T16:40:03Z</time></trkpt>
<trkpt lat="29.578346" lon="98.301557">
<time>2016-10-07T16:40:04Z</time></trkpt>
<trkpt lat="29.578376" lon="98.301547">
<time>2016-10-07T16:40:05Z</time></trkpt>
<trkpt lat="29.578446" lon="98.301517">
<time>2016-10-07T16:40:06Z</time></trkpt>
<trkpt lat="29.578506" lon="98.301507">
<time>2016-10-07T16:40:07Z</time></trkpt>
<trkpt lat="29.578556" lon="98.301497">
<time>2016-10-07T16:40:08Z</time></trkpt>
<trkpt lat="29.578626" lon="98.301507">
<time>2016-10-07T16:40:09Z</time></trkpt>
<trkpt lat="29.578736" lon="98.301517">
<time>2016-10-07T16:40:10Z</time></trkpt>
<trkpt lat="29.578836" lon="98.301537">
<time>2016-10-07T16:40:11Z</time></trkpt>
<trkpt lat="29.578876" lon="98.301537">
<time>2016-10-07T16:40:12Z</time></trkpt>
<trkpt lat="29.578896" lon="98.301537">
<time>2016-10-07T16:40:13Z</time></trkpt>
<trkpt lat="29.578926" lon="98.301527">
<time>2016-10-07T16:40:14Z</time></trkpt>
<trkpt lat="29.578936" lon="98.301527">
<time>2016-10-07T16:40:15Z</time></trkpt>
<trkpt lat="29.578956" lon="98.301517">
<time>2016-10-07T16:40:16Z</time></trkpt>
<trkpt lat="29.578976" lon="98.301497">
<time>2016-10-07T16:40:17Z</time></trkpt>
<trkpt lat="29.578996" lon="98.301477">
<time>2016-10-07T16:40:18Z</time></trkpt>
<trkpt lat="29.579006" lon="98.301457">
<time>2016-10-07T16:40:19Z</time></trkpt>
<trkpt lat="29.579016" lon="98.301437">
<time>2016-10-07T16:40:20Z</time></trkpt>
<trkpt lat="29.579026" lon="98.301408">
<time>2016-10-07T16:40:21Z</time></trkpt>
<trkpt lat="29.579026" lon="98.301388">
<time>2016-10-07T16:40:22Z</time></trkpt>
<trkpt lat="29.579026" lon="98.301358">
<time>2016-10-07T16:40:23Z</time></trkpt>
<trkpt lat="29.579016" lon="98.301318">
<time>2016-10-07T16:40:24Z</time></trkpt>
<trkpt lat="29.579006" lon="98.301298">
<time>2016-10-07T16:40:25Z</time></trkpt>
<trkpt lat="29.578996" lon="98.301278">
<time>2016-10-07T16:40:26Z</time></trkpt>
<trkpt lat="29.578986" lon="98.301268">
<time>2016-10-07T16:40:27Z</time></trkpt>
<trkpt lat="29.578966" lon="98.301248">
<time>2016-10-07T16:40:28Z</time></trkpt>
<trkpt lat="29.578936" lon="98.301238">
<time>2016-10-07T16:40:29Z</time></trkpt>
<trkpt lat="29.578906" lon="98.301228">
<time>2016-10-07T16:40:30Z</time></trkpt>
<trkpt lat="29.578876" lon="98.301218">
<time>2016-10-07T16:40:31Z</time></trkpt>
<trkpt lat="29.578826" lon="98.301228">
<time>2016-10-07T16:40:32Z</time></trkpt>
<trkpt lat="29.578776" lon="98.301238">
<time>2016-10-07T16:40:33Z</time></trkpt>
<trkpt lat="29.578716" lon="98.301258">
<time>2016-10-07T16:40:34Z</time></trkpt>
<trkpt lat="29.578656" lon="98.301288">
<time>2016-10-07T16:40:35Z</time></trkpt>
<trkpt lat="29.578576" lon="98.301308">
<time>2016-10-07T16:40:36Z</time></trkpt>
<trkpt lat="29.578516" lon="98.301338">
<time>2016-10-07T16:40:37Z</time></trkpt>
<trkpt lat="29.578466" lon="98.301358">
<time>2016-10-07T16:40:38Z</time></trkpt>
<trkpt lat="29.578416" lon="98.301378">
<time>2016-10-07T16:40:39Z</time></trkpt>
<trkpt lat="29.578356" lon="98.301398">
<time>2016-10-07T16:40:40Z</time></trkpt>
<trkpt lat="29.578266" lon="98.301427">
<time>2016-10-07T16:40:41Z</time></trkpt>
<trkpt lat="29.578206" lon="98.301457">
<time>2016-10-07T16:40:42Z</time></trkpt>
<trkpt lat="29.578106" lon="98.301497">
<time>2016-10-07T16:40:43Z</time></trkpt>
<trkpt lat="29.578016" lon="98.301517">
<time>2016-10-07T16:40:44Z</time></trkpt>
<trkpt lat="29.577946" lon="98.301537">
<time>2016-10-07T16:40:45Z</time></trkpt>
<trkpt lat="29.577856" lon="98.301547">
<time>2016-10-07T16:40:46Z</time></trkpt>
<trkpt lat="29.577746" lon="98.301547">
<time>2016-10-07T16:40:47Z</time></trkpt>
<trkpt lat="29.577656" lon="98.301547">
<time>2016-10-07T16:40:48Z</time></trkpt>
<trkpt lat="29.577526" lon="98.301527">
<time>2016-10-07T16:40:49Z</time></trkpt>
<trkpt lat="29.577406" lon="98.301507">
<time>2016-10-07T16:40:50Z</time></trkpt>
<trkpt lat="29.577326" lon="98.301507">
<time>2016-10-07T16:40:51Z</time></trkpt>
<trkpt lat="29.577266" lon="98.301507">
<time>2016-10-07T16:40:52Z</time></trkpt>
<trkpt lat="29.577186" lon="98.301517">
<time>2016-10-07T16:40:53Z</time></trkpt>
<trkpt lat="29.577126" lon="98.301537">
<time>2016-10-07T16:40:54Z</time></trkpt>
<trkpt lat="29.577076" lon="98.301557">
<time>2016-10-07T16:40:55Z</time></trkpt>
<trkpt lat="29.576996" lon="98.301597">
<time>2016-10-07T16:40:56Z</time></trkpt>
<trkpt lat="29.576916" lon="98.301637">
<time>2016-10-07T16:40:57Z</time></trkpt>
<trkpt lat="29.576846" lon="98.301667">
<time>2016-10-07T16:40:58Z</time></trkpt>
<trkpt lat="29.576816" lon="98.301667">
<time>2016-10-07T16:40:59Z</time></trkpt>
<trkpt lat="29.576786" lon="98.301667">
<time>2016-10-07T16:41:00Z</time></trkpt>
<trkpt lat="29.576746" lon="98.301667">
<time>2016-10-07T16:41:01Z</time></trkpt>
<trkpt lat="29.576686" lon="98.301657">
<time>2016-10-07T16:41:02Z</time></trkpt>
<trkpt lat="29.576616" lon="98.301627">
<time>2016-10-07T16:41:03Z</time></trkpt>
<trkpt lat="29.576526" lon="98.301567">
<time>2016-10-07T16:41:04Z</time></trkpt>
<trkpt lat="29.576377" lon="98.301477">
<time>2016-10-07T16:41:05Z</time></trkpt>
<trkpt lat="29.576207" lon="98.301398">
<time>2016-10-07T16:41:06Z</time></trkpt>
<trkpt lat="29.576097" lon="98.301358">
<time>2016-10-07T16:41:07Z</time></trkpt>
<trkpt lat="29.575957" lon="98.301318">
<time>2016-10-07T16:41:08Z</time></trkpt>
<trkpt lat="29.575797" lon="98.301278">
<time>2016-10-07T16:41:09Z</time></trkpt>
<trkpt lat="29.575697" lon="98.301248">
<time>2016-10-07T16:41:10Z</time></trkpt>
<trkpt lat="29.575517" lon="98.301198">
<time>2016-10-07T16:41:11Z</time></trkpt>
<trkpt lat="29.575357" lon="98.301158">
<time>2016-10-07T16:41:12Z</time></trkpt>
<trkpt lat="29.575228" lon="98.301128">
<time>2016-10-07T16:41:13Z</time></trkpt>
<trkpt lat="29.575058" lon="98.301078">
<time>2016-10-07T16:41:14Z</time></trkpt>
<trkpt lat="29.575008" lon="98.301058">
<time>2016-10-07T16:41:15Z</time></trkpt>
<trkpt lat="29.574948" lon="98.301028">
<time>2016-10-07T16:41:16Z</time></trkpt>
<trkpt lat="29.574918" lon="98.301018">
<time>2016-10-07T16:41:17Z</time></trkpt>
<trkpt lat="29.574898" lon="98.300998">
<time>2016-10-07T16:41:18Z</time></trkpt>
<trkpt lat="29.574848" lon="98.300958">
<time>2016-10-07T16:41:19Z</time></trkpt>
<trkpt lat="29.574828" lon="98.300938">
<time>2016-10-07T16:41:20Z</time></trkpt>
<trkpt lat="29.574768" lon="98.300869">
<time>2016-10-07T16:41:21Z</time></trkpt>
<trkpt lat="29.574738" lon="98.300849">
<time>2016-10-07T16:41:22Z</time></trkpt>
<trkpt lat="29.574708" lon="98.300809">
<time>2016-10-07T16:41:23Z</time></trkpt>
<trkpt lat="29.574688" lon="98.300779">
<time>2016-10-07T16:41:24Z</time></trkpt>
<trkpt lat="29.574648" lon="98.300729">
<time>2016-10-07T16:41:25Z</time></trkpt>
<trkpt lat="29.574609" lon="98.300689">
<time>2016-10-07T16:41:26Z</time></trkpt>
<trkpt lat="29.574549" lon="98.300619">
<time>2016-10-07T16:41:27Z</time></trkpt>
<trkpt lat="29.574439" lon="98.300539">
<time>2016-10-07T16:41:28Z</time></trkpt>
<trkpt lat="29.574339" lon="98.300469">
<time>2016-10-07T16:41:29Z</time></trkpt>
<trkpt lat="29.574259" lon="98.300419">
<time>2016-10-07T16:41:30Z</time></trkpt>
<trkpt lat="29.574209" lon="98.30039">
<time>2016-10-07T16:41:31Z</time></trkpt>
<trkpt lat="29.574179" lon="98.30036">
<time>2016-10-07T16:41:32Z</time></trkpt>
<trkpt lat="29.574119" lon="98.30031">
<time>2016-10-07T16:41:33Z</time></trkpt>
<trkpt lat="29.574089" lon="98.30028">
<time>2016-10-07T16:41:34Z</time></trkpt>
<trkpt lat="29.574069" lon="98.30025">
<time>2016-10-07T16:41:35Z</time></trkpt>
<trkpt lat="29.574039" lon="98.30021">
<time>2016-10-07T16:41:36Z</time></trkpt>
<trkpt lat="29.57403" lon="98.30018">
<time>2016-10-07T16:41:37Z</time></trkpt>
<trkpt lat="29.57402" lon="98.30015">
<time>2016-10-07T16:41:38Z</time></trkpt>
<trkpt lat="29.574" lon="98.30012">
<time>2016-10-07T16:41:39Z</time></trkpt>
<trkpt lat="29.57399" lon="98.30009">
<time>2016-10-07T16:41:40Z</time></trkpt>
<trkpt lat="29.57399" lon="98.30006">
<time>2016-10-07T16:41:41Z</time></trkpt>
<trkpt lat="29.57398" lon="98.30002">
<time>2016-10-07T16:41:42Z</time></trkpt>
<trkpt lat="29.57398" lon="98.29996">
<time>2016-10-07T16:41:43Z</time></trkpt>
<trkpt lat="29.57398" lon="98.2999">
<time>2016-10-07T16:41:44Z</time></trkpt>
<trkpt lat="29.57398" lon="98.299821">
<time>2016-10-07T16:41:45Z</time></trkpt>
<trkpt lat="29.57398" lon="98.299771">
<time>2016-10-07T16:41:46Z</time></trkpt>
<trkpt lat="29.57397" lon="98.299711">
<time>2016-10-07T16:41:47Z</time></trkpt>
<trkpt lat="29.57396" lon="98.299671">
<time>2016-10-07T16:41:48Z</time></trkpt>
<trkpt lat="29.57395" lon="98.299621">
<time>2016-10-07T16:41:49Z</time></trkpt>
<trkpt lat="29.573931" lon="98.299551">
<time>2016-10-07T16:41:50Z</time></trkpt>
<trkpt lat="29.573871" lon="98.299411">
<time>2016-10-07T16:41:51Z</time></trkpt>
<trkpt lat="29.573781" lon="98.299262">
<time>2016-10-07T16:41:52Z</time></trkpt>
<trkpt lat="29.573711" lon="98.299172">
<time>2016-10-07T16:41:53Z</time></trkpt>
<trkpt lat="29.573622" lon="98.299052">
<time>2016-10-07T16:41:54Z</time></trkpt>
<trkpt lat="29.573572" lon="98.298982">
<time>2016-10-07T16:41:55Z</time></trkpt>
<trkpt lat="29.573502" lon="98.298892">
<time>2016-10-07T16:41:56Z</time></trkpt>
<trkpt lat="29.573422" lon="98.298783">
<time>2016-10-07T16:41:57Z</time></trkpt>
<trkpt lat="29.573372" lon="98.298693">
<time>2016-10-07T16:41:58Z</time></trkpt>
<trkpt lat="29.573322" lon="98.298603">
<time>2016-10-07T16:41:59Z</time></trkpt>
<trkpt lat="29.573273" lon="98.298493">
<time>2016-10-07T16:42:00Z</time></trkpt>
<trkpt lat="29.573213" lon="98.298333">
<time>2016-10-07T16:42:01Z</time></trkpt>
<trkpt lat="29.573183" lon="98.298234">
<time>2016-10-07T16:42:02Z</time></trkpt>
<trkpt lat="29.573143" lon="98.298114">
<time>2016-10-07T16:42:03Z</time></trkpt>
<trkpt lat="29.573074" lon="98.297884">
<time>2016-10-07T16:42:04Z</time></trkpt>
<trkpt lat="29.573034" lon="98.297765">
<time>2016-10-07T16:42:05Z</time></trkpt>
<trkpt lat="29.573004" lon="98.297685">
<time>2016-10-07T16:42:06Z</time></trkpt>
<trkpt lat="29.572944" lon="98.297565">
<time>2016-10-07T16:42:07Z</time></trkpt>
<trkpt lat="29.572894" lon="98.297465">
<time>2016-10-07T16:42:08Z</time></trkpt>
<trkpt lat="29.572824" lon="98.297375">
<time>2016-10-07T16:42:09Z</time></trkpt>
<trkpt lat="29.572765" lon="98.297285">
<time>2016-10-07T16:42:10Z</time></trkpt>
<trkpt lat="29.572645" lon="98.297136">
<time>2016-10-07T16:42:11Z</time></trkpt>
<trkpt lat="29.572535" lon="98.297016">
<time>2016-10-07T16:42:12Z</time></trkpt>
<trkpt lat="29.572445" lon="98.296916">
<time>2016-10-07T16:42:13Z</time></trkpt>
<trkpt lat="29.572375" lon="98.296856">
<time>2016-10-07T16:42:14Z</time></trkpt>
<trkpt lat="29.572315" lon="98.296816">
<time>2016-10-07T16:42:15Z</time></trkpt>
<trkpt lat="29.572246" lon="98.296796">
<time>2016-10-07T16:42:16Z</time></trkpt>
<trkpt lat="29.572196" lon="98.296796">
<time>2016-10-07T16:42:17Z</time></trkpt>
<trkpt lat="29.572136" lon="98.296806">
<time>2016-10-07T16:42:18Z</time></trkpt>
<trkpt lat="29.572096" lon="98.296816">
<time>2016-10-07T16:42:19Z</time></trkpt>
<trkpt lat="29.572046" lon="98.296836">
<time>2016-10-07T16:42:20Z</time></trkpt>
<trkpt lat="29.571965" lon="98.296886">
<time>2016-10-07T16:42:21Z</time></trkpt>
<trkpt lat="29.571855" lon="98.296966">
<time>2016-10-07T16:42:22Z</time></trkpt>
<trkpt lat="29.571745" lon="98.297036">
<time>2016-10-07T16:42:23Z</time></trkpt>
<trkpt lat="29.571625" lon="98.297116">
<time>2016-10-07T16:42:24Z</time></trkpt>
<trkpt lat="29.571515" lon="98.297186">
<time>2016-10-07T16:42:25Z</time></trkpt>
<trkpt lat="29.571425" lon="98.297256">
<time>2016-10-07T16:42:26Z</time></trkpt>
<trkpt lat="29.571365" lon="98.297325">
<time>2016-10-07T16:42:27Z</time></trkpt>
<trkpt lat="29.571295" lon="98.297395">
<time>2016-10-07T16:42:28Z</time></trkpt>
<trkpt lat="29.571265" lon="98.297455">
<time>2016-10-07T16:42:29Z</time></trkpt>
<trkpt lat="29.571215" lon="98.297525">
<time>2016-10-07T16:42:30Z</time></trkpt>
<trkpt lat="29.571155" lon="98.297635">
<time>2016-10-07T16:42:31Z</time></trkpt>
<trkpt lat="29.571094" lon="98.297745">
<time>2016-10-07T16:42:32Z</time></trkpt>
<trkpt lat="29.571004" lon="98.297914">
<time>2016-10-07T16:42:33Z</time></trkpt>
<trkpt lat="29.570904" lon="98.298114">
<time>2016-10-07T16:42:34Z</time></trkpt>
<trkpt lat="29.570834" lon="98.298234">
<time>2016-10-07T16:42:35Z</time></trkpt>
<trkpt lat="29.570784" lon="98.298324">
<time>2016-10-07T16:42:36Z</time></trkpt>
<trkpt lat="29.570734" lon="98.298383">
<time>2016-10-07T16:42:37Z</time></trkpt>
<trkpt lat="29.570663" lon="98.298463">
<time>2016-10-07T16:42:38Z</time></trkpt>
<trkpt lat="29.570583" lon="98.298533">
<time>2016-10-07T16:42:39Z</time></trkpt>
<trkpt lat="29.570493" lon="98.298593">
<time>2016-10-07T16:42:40Z</time></trkpt>
<trkpt lat="29.570393" lon="98.298673">
<time>2016-10-07T16:42:41Z</time></trkpt>
<trkpt lat="29.570313" lon="98.298763">
<time>2016-10-07T16:42:42Z</time></trkpt>
<trkpt lat="29.570253" lon="98.298843">
<time>2016-10-07T16:42:43Z</time></trkpt>
<trkpt lat="29.570193" lon="98.298932">
<time>2016-10-07T16:42:44Z</time></trkpt>
<trkpt lat="29.570113" lon="98.299072">
<time>2016-10-07T16:42:45Z</time></trkpt>
<trkpt lat="29.569962" lon="98.299382">
<time>2016-10-07T16:42:46Z</time></trkpt>
<trkpt lat="29.569812" lon="98.299681">
<time>2016-10-07T16:42:47Z</time></trkpt>
<trkpt lat="29.569732" lon="98.299851">
<time>2016-10-07T16:42:48Z</time></trkpt>
<trkpt lat="29.569591" lon="98.30014">
<time>2016-10-07T16:42:49Z</time></trkpt>
<trkpt lat="29.569531" lon="98.30027">
<time>2016-10-07T16:42:50Z</time></trkpt>
<trkpt lat="29.569471" lon="98.30042">
<time>2016-10-07T16:42:51Z</time></trkpt>
<trkpt lat="29.569451" lon="98.300509">
<time>2016-10-07T16:42:52Z</time></trkpt>
<trkpt lat="29.56944" lon="98.300579">
<time>2016-10-07T16:42:53Z</time></trkpt>
<trkpt lat="29.56942" lon="98.300699">
<time>2016-10-07T16:42:54Z</time></trkpt>
<trkpt lat="29.5694" lon="98.300809">
<time>2016-10-07T16:42:55Z</time></trkpt>
<trkpt lat="29.56938" lon="98.300859">
<time>2016-10-07T16:42:56Z</time></trkpt>
<trkpt lat="29.56936" lon="98.300919">
<time>2016-10-07T16:42:57Z</time></trkpt>
<trkpt lat="29.56932" lon="98.300988">
<time>2016-10-07T16:42:58Z</time></trkpt>
<trkpt lat="29.56929" lon="98.301038">
<time>2016-10-07T16:42:59Z</time></trkpt>
<trkpt lat="29.56926" lon="98.301068">
<time>2016-10-07T16:43:00Z</time></trkpt>
<trkpt lat="29.56917" lon="98.301168">
<time>2016-10-07T16:43:01Z</time></trkpt>
<trkpt lat="29.568909" lon="98.301408">
<time>2016-10-07T16:43:02Z</time></trkpt>
<trkpt lat="29.568779" lon="98.301537">
<time>2016-10-07T16:43:03Z</time></trkpt>
<trkpt lat="29.568649" lon="98.301697">
<time>2016-10-07T16:43:04Z</time></trkpt>
<trkpt lat="29.568519" lon="98.301847">
<time>2016-10-07T16:43:05Z</time></trkpt>
<trkpt lat="29.568439" lon="98.301947">
<time>2016-10-07T16:43:06Z</time></trkpt>
<trkpt lat="29.568298" lon="98.302106">
<time>2016-10-07T16:43:07Z</time></trkpt>
<trkpt lat="29.568208" lon="98.302226">
<time>2016-10-07T16:43:08Z</time></trkpt>
<trkpt lat="29.568118" lon="98.302336">
<time>2016-10-07T16:43:09Z</time></trkpt>
<trkpt lat="29.568038" lon="98.302426">
<time>2016-10-07T16:43:10Z</time></trkpt>
<trkpt lat="29.567968" lon="98.302516">
<time>2016-10-07T16:43:11Z</time></trkpt>
<trkpt lat="29.567918" lon="98.302585">
<time>2016-10-07T16:43:12Z</time></trkpt>
<trkpt lat="29.567878" lon="98.302625">
<time>2016-10-07T16:43:13Z</time></trkpt>
<trkpt lat="29.567827" lon="98.302705">
<time>2016-10-07T16:43:14Z</time></trkpt>
<trkpt lat="29.567797" lon="98.302745">
<time>2016-10-07T16:43:15Z</time></trkpt>
<trkpt lat="29.567767" lon="98.302815">
<time>2016-10-07T16:43:16Z</time></trkpt>
<trkpt lat="29.567727" lon="98.302885">
<time>2016-10-07T16:43:17Z</time></trkpt>
<trkpt lat="29.567707" lon="98.302935">
<time>2016-10-07T16:43:18Z</time></trkpt>
<trkpt lat="29.567687" lon="98.303005">
<time>2016-10-07T16:43:19Z</time></trkpt>
<trkpt lat="29.567667" lon="98.303044">
<time>2016-10-07T16:43:20Z</time></trkpt>
<trkpt lat="29.567657" lon="98.303104">
<time>2016-10-07T16:43:21Z</time></trkpt>
<trkpt lat="29.567647" lon="98.303164">
<time>2016-10-07T16:43:22Z</time></trkpt>
<trkpt lat="29.567637" lon="98.303234">
<time>2016-10-07T16:43:23Z</time></trkpt>
<trkpt lat="29.567637" lon="98.303284">
<time>2016-10-07T16:43:24Z</time></trkpt>
<trkpt lat="29.567636" lon="98.303364">
<time>2016-10-07T16:43:25Z</time></trkpt>
<trkpt lat="29.567646" lon="98.303414">
<time>2016-10-07T16:43:26Z</time></trkpt>
<trkpt lat="29.567656" lon="98.303464">
<time>2016-10-07T16:43:27Z</time></trkpt>
<trkpt lat="29.567686" lon="98.303543">
<time>2016-10-07T16:43:28Z</time></trkpt>
<trkpt lat="29.567706" lon="98.303623">
<time>2016-10-07T16:43:29Z</time></trkpt>
<trkpt lat="29.567706" lon="98.303673">
<time>2016-10-07T16:43:30Z</time></trkpt>
<trkpt lat="29.567716" lon="98.303733">
<time>2016-10-07T16:43:31Z</time></trkpt>
<trkpt lat="29.567706" lon="98.303773">
<time>2016-10-07T16:43:32Z</time></trkpt>
<trkpt lat="29.567696" lon="98.303803">
<time>2016-10-07T16:43:33Z</time></trkpt>
<trkpt lat="29.567686" lon="98.303843">
<time>2016-10-07T16:43:34Z</time></trkpt>
<trkpt lat="29.567656" lon="98.303883">
<time>2016-10-07T16:43:35Z</time></trkpt>
<trkpt lat="29.567635" lon="98.303913">
<time>2016-10-07T16:43:36Z</time></trkpt>
<trkpt lat="29.567585" lon="98.303963">
<time>2016-10-07T16:43:37Z</time></trkpt>
<trkpt lat="29.567445" lon="98.304092">
<time>2016-10-07T16:43:38Z</time></trkpt>
<trkpt lat="29.567285" lon="98.304252">
<time>2016-10-07T16:43:39Z</time></trkpt>
<trkpt lat="29.567155" lon="98.304402">
<time>2016-10-07T16:43:40Z</time></trkpt>
<trkpt lat="29.566995" lon="98.304571">
<time>2016-10-07T16:43:41Z</time></trkpt>
<trkpt lat="29.566945" lon="98.304621">
<time>2016-10-07T16:43:42Z</time></trkpt>
<trkpt lat="29.566854" lon="98.304691">
<time>2016-10-07T16:43:43Z</time></trkpt>
<trkpt lat="29.566794" lon="98.304731">
<time>2016-10-07T16:43:44Z</time></trkpt>
<trkpt lat="29.566704" lon="98.304781">
<time>2016-10-07T16:43:45Z</time></trkpt>
<trkpt lat="29.566584" lon="98.304861">
<time>2016-10-07T16:43:46Z</time></trkpt>
<trkpt lat="29.566464" lon="98.304941">
<time>2016-10-07T16:43:47Z</time></trkpt>
<trkpt lat="29.566374" lon="98.305021">
<time>2016-10-07T16:43:48Z</time></trkpt>
<trkpt lat="29.566274" lon="98.30513">
<time>2016-10-07T16:43:49Z</time></trkpt>
<trkpt lat="29.566134" lon="98.30526">
<time>2016-10-07T16:43:50Z</time></trkpt>
<trkpt lat="29.565963" lon="98.30543">
<time>2016-10-07T16:43:51Z</time></trkpt>
<trkpt lat="29.565853" lon="98.30552">
<time>2016-10-07T16:43:52Z</time></trkpt>
<trkpt lat="29.565743" lon="98.305609">
<time>2016-10-07T16:43:53Z</time></trkpt>
<trkpt lat="29.565683" lon="98.305679">
<time>2016-10-07T16:43:54Z</time></trkpt>
<trkpt lat="29.565623" lon="98.305759">
<time>2016-10-07T16:43:55Z</time></trkpt>
<trkpt lat="29.565583" lon="98.305809">
<time>2016-10-07T16:43:56Z</time></trkpt>
<trkpt lat="29.565553" lon="98.305879">
<time>2016-10-07T16:43:57Z</time></trkpt>
<trkpt lat="29.565523" lon="98.305959">
<time>2016-10-07T16:43:58Z</time></trkpt>
<trkpt lat="29.565493" lon="98.306038">
<time>2016-10-07T16:43:59Z</time></trkpt>
<trkpt lat="29.565472" lon="98.306168">
<time>2016-10-07T16:44:00Z</time></trkpt>
<trkpt lat="29.565442" lon="98.306348">
<time>2016-10-07T16:44:01Z</time></trkpt>
<trkpt lat="29.565412" lon="98.306537">
<time>2016-10-07T16:44:02Z</time></trkpt>
<trkpt lat="29.565371" lon="98.306827">
<time>2016-10-07T16:44:03Z</time></trkpt>
<trkpt lat="29.565341" lon="98.306947">
<time>2016-10-07T16:44:04Z</time></trkpt>
<trkpt lat="29.565321" lon="98.307026">
<time>2016-10-07T16:44:05Z</time></trkpt>
<trkpt lat="29.565301" lon="98.307096">
<time>2016-10-07T16:44:06Z</time></trkpt>
<trkpt lat="29.565271" lon="98.307146">
<time>2016-10-07T16:44:07Z</time></trkpt>
<trkpt lat="29.565241" lon="98.307196">
<time>2016-10-07T16:44:08Z</time></trkpt>
<trkpt lat="29.565191" lon="98.307266">
<time>2016-10-07T16:44:09Z</time></trkpt>
<trkpt lat="29.5651" lon="98.307366">
<time>2016-10-07T16:44:10Z</time></trkpt>
<trkpt lat="29.565" lon="98.307456">
<time>2016-10-07T16:44:11Z</time></trkpt>
<trkpt lat="29.56492" lon="98.307525">
<time>2016-10-07T16:44:12Z</time></trkpt>
<trkpt lat="29.56483" lon="98.307625">
<time>2016-10-07T16:44:13Z</time></trkpt>
<trkpt lat="29.56479" lon="98.307685">
<time>2016-10-07T16:44:14Z</time></trkpt>
<trkpt lat="29.56474" lon="98.307775">
<time>2016-10-07T16:44:15Z</time></trkpt>
<trkpt lat="29.56472" lon="98.307835">
<time>2016-10-07T16:44:16Z</time></trkpt>
<trkpt lat="29.56471" lon="98.307895">
<time>2016-10-07T16:44:17Z</time></trkpt>
<trkpt lat="29.5647" lon="98.307935">
<time>2016-10-07T16:44:18Z</time></trkpt>
<trkpt lat="29.564689" lon="98.308034">
<time>2016-10-07T16:44:19Z</time></trkpt>
<trkpt lat="29.564679" lon="98.308114">
<time>2016-10-07T16:44:20Z</time></trkpt>
<trkpt lat="29.564669" lon="98.308214">
<time>2016-10-07T16:44:21Z</time></trkpt>
<trkpt lat="29.564659" lon="98.308264">
<time>2016-10-07T16:44:22Z</time></trkpt>
<trkpt lat="29.564629" lon="98.308344">
<time>2016-10-07T16:44:23Z</time></trkpt>
<trkpt lat="29.564579" lon="98.308454">
<time>2016-10-07T16:44:24Z</time></trkpt>
<trkpt lat="29.564518" lon="98.308573">
<time>2016-10-07T16:44:25Z</time></trkpt>
<trkpt lat="29.564448" lon="98.308703">
<time>2016-10-07T16:44:26Z</time></trkpt>
<trkpt lat="29.564398" lon="98.308823">
<time>2016-10-07T16:44:27Z</time></trkpt>
<trkpt lat="29.564348" lon="98.308913">
<time>2016-10-07T16:44:28Z</time></trkpt>
<trkpt lat="29.564328" lon="98.308972">
<time>2016-10-07T16:44:29Z</time></trkpt>
<trkpt lat="29.564318" lon="98.309022">
<time>2016-10-07T16:44:30Z</time></trkpt>
<trkpt lat="29.564318" lon="98.309062">
<time>2016-10-07T16:44:31Z</time></trkpt>
<trkpt lat="29.564318" lon="98.309102">
<time>2016-10-07T16:44:32Z</time></trkpt>
<trkpt lat="29.564327" lon="98.309192">
<time>2016-10-07T16:44:33Z</time></trkpt>
<trkpt lat="29.564347" lon="98.309252">
<time>2016-10-07T16:44:34Z</time></trkpt>
<trkpt lat="29.564367" lon="98.309312">
<time>2016-10-07T16:44:35Z</time></trkpt>
<trkpt lat="29.564387" lon="98.309372">
<time>2016-10-07T16:44:36Z</time></trkpt>
<trkpt lat="29.564397" lon="98.309441">
<time>2016-10-07T16:44:37Z</time></trkpt>
<trkpt lat="29.564397" lon="98.309491">
<time>2016-10-07T16:44:38Z</time></trkpt>
<trkpt lat="29.564397" lon="98.309521">
<time>2016-10-07T16:44:39Z</time></trkpt>
<trkpt lat="29.564397" lon="98.309561">
<time>2016-10-07T16:44:40Z</time></trkpt>
<trkpt lat="29.564387" lon="98.309601">
<time>2016-10-07T16:44:41Z</time></trkpt>
<trkpt lat="29.564367" lon="98.309631">
<time>2016-10-07T16:44:42Z</time></trkpt>
<trkpt lat="29.564337" lon="98.309681">
<time>2016-10-07T16:44:43Z</time></trkpt>
<trkpt lat="29.564306" lon="98.309731">
<time>2016-10-07T16:44:44Z</time></trkpt>
<trkpt lat="29.564256" lon="98.309791">
<time>2016-10-07T16:44:45Z</time></trkpt>
<trkpt lat="29.564206" lon="98.309881">
<time>2016-10-07T16:44:46Z</time></trkpt>
<trkpt lat="29.564176" lon="98.30993">
<time>2016-10-07T16:44:47Z</time></trkpt>
<trkpt lat="29.564146" lon="98.31004">
<time>2016-10-07T16:44:48Z</time></trkpt>
<trkpt lat="29.564126" lon="98.31014">
<time>2016-10-07T16:44:49Z</time></trkpt>
<trkpt lat="29.564116" lon="98.31023">
<time>2016-10-07T16:44:50Z</time></trkpt>
<trkpt lat="29.564105" lon="98.31031">
<time>2016-10-07T16:44:51Z</time></trkpt>
<trkpt lat="29.564115" lon="98.310519">
<time>2016-10-07T16:44:52Z</time></trkpt>
<trkpt lat="29.564105" lon="98.310679">
<time>2016-10-07T16:44:53Z</time></trkpt>
<trkpt lat="29.564074" lon="98.310868">
<time>2016-10-07T16:44:54Z</time></trkpt>
<trkpt lat="29.564064" lon="98.310998">
<time>2016-10-07T16:44:55Z</time></trkpt>
<trkpt lat="29.564054" lon="98.311128">
<time>2016-10-07T16:44:56Z</time></trkpt>
<trkpt lat="29.564064" lon="98.311238">
<time>2016-10-07T16:44:57Z</time></trkpt>
<trkpt lat="29.564064" lon="98.311297">
<time>2016-10-07T16:44:58Z</time></trkpt>
<trkpt lat="29.564094" lon="98.311397">
<time>2016-10-07T16:44:59Z</time></trkpt>
<trkpt lat="29.564113" lon="98.311467">
<time>2016-10-07T16:45:00Z</time></trkpt>
<trkpt lat="29.564113" lon="98.311517">
<time>2016-10-07T16:45:01Z</time></trkpt>
<trkpt lat="29.564113" lon="98.311547">
<time>2016-10-07T16:45:02Z</time></trkpt>
<trkpt lat="29.564113" lon="98.311567">
<time>2016-10-07T16:45:03Z</time></trkpt>
<trkpt lat="29.564103" lon="98.311587">
<time>2016-10-07T16:45:04Z</time></trkpt>
<trkpt lat="29.564093" lon="98.311617">
<time>2016-10-07T16:45:05Z</time></trkpt>
<trkpt lat="29.564083" lon="98.311637">
<time>2016-10-07T16:45:06Z</time></trkpt>
<trkpt lat="29.564063" lon="98.311657">
<time>2016-10-07T16:45:07Z</time></trkpt>
<trkpt lat="29.564043" lon="98.311667">
<time>2016-10-07T16:45:08Z</time></trkpt>
<trkpt lat="29.564023" lon="98.311667">
<time>2016-10-07T16:45:09Z</time></trkpt>
<trkpt lat="29.564003" lon="98.311677">
<time>2016-10-07T16:45:10Z</time></trkpt>
<trkpt lat="29.563983" lon="98.311677">
<time>2016-10-07T16:45:11Z</time></trkpt>
<trkpt lat="29.563953" lon="98.311667">
<time>2016-10-07T16:45:12Z</time></trkpt>
<trkpt lat="29.563943" lon="98.311667">
<time>2016-10-07T16:45:13Z</time></trkpt>
<trkpt lat="29.563923" lon="98.311647">
<time>2016-10-07T16:45:14Z</time></trkpt>
<trkpt lat="29.563903" lon="98.311637">
<time>2016-10-07T16:45:15Z</time></trkpt>
<trkpt lat="29.563893" lon="98.311617">
<time>2016-10-07T16:45:16Z</time></trkpt>
<trkpt lat="29.563883" lon="98.311597">
<time>2016-10-07T16:45:17Z</time></trkpt>
<trkpt lat="29.563873" lon="98.311567">
<time>2016-10-07T16:45:18Z</time></trkpt>
<trkpt lat="29.563863" lon="98.311537">
<time>2016-10-07T16:45:19Z</time></trkpt>
<trkpt lat="29.563863" lon="98.311507">
<time>2016-10-07T16:45:20Z</time></trkpt>
<trkpt lat="29.563863" lon="98.311477">
<time>2016-10-07T16:45:21Z</time></trkpt>
<trkpt lat="29.563874" lon="98.311417">
<time>2016-10-07T16:45:22Z</time></trkpt>
<trkpt lat="29.563884" lon="98.311377">
<time>2016-10-07T16:45:23Z</time></trkpt>
<trkpt lat="29.563894" lon="98.311327">
<time>2016-10-07T16:45:24Z</time></trkpt>
<trkpt lat="29.563904" lon="98.311297">
<time>2016-10-07T16:45:25Z</time></trkpt>
<trkpt lat="29.563914" lon="98.311238">
<time>2016-10-07T16:45:26Z</time></trkpt>
<trkpt lat="29.563914" lon="98.311198">
<time>2016-10-07T16:45:27Z</time></trkpt>
<trkpt lat="29.563914" lon="98.311158">
<time>2016-10-07T16:45:28Z</time></trkpt>
<trkpt lat="29.563924" lon="98.311128">
<time>2016-10-07T16:45:29Z</time></trkpt>
<trkpt lat="29.563924" lon="98.311098">
<time>2016-10-07T16:45:30Z</time></trkpt>
<trkpt lat="29.563924" lon="98.311068">
<time>2016-10-07T16:45:31Z</time></trkpt>
<trkpt lat="29.563934" lon="98.311038">
<time>2016-10-07T16:45:32Z</time></trkpt>
<trkpt lat="29.563934" lon="98.311018">
<time>2016-10-07T16:45:33Z</time></trkpt>
<trkpt lat="29.563934" lon="98.310988">
<time>2016-10-07T16:45:34Z</time></trkpt>
<trkpt lat="29.563944" lon="98.310968">
<time>2016-10-07T16:45:35Z</time></trkpt>
<trkpt lat="29.563944" lon="98.310938">
<time>2016-10-07T16:45:36Z</time></trkpt>
<trkpt lat="29.563954" lon="98.310918">
<time>2016-10-07T16:45:37Z</time></trkpt>
<trkpt lat="29.563955" lon="98.310878">
<time>2016-10-07T16:45:38Z</time></trkpt>
<trkpt lat="29.563955" lon="98.310848">
<time>2016-10-07T16:45:39Z</time></trkpt>
<trkpt lat="29.563965" lon="98.310819">
<time>2016-10-07T16:45:40Z</time></trkpt>
<trkpt lat="29.563965" lon="98.310789">
<time>2016-10-07T16:45:41Z</time></trkpt>
<trkpt lat="29.563965" lon="98.310769">
<time>2016-10-07T16:45:42Z</time></trkpt>
<trkpt lat="29.563965" lon="98.310729">
<time>2016-10-07T16:45:43Z</time></trkpt>
<trkpt lat="29.563975" lon="98.310709">
<time>2016-10-07T16:45:44Z</time></trkpt>
<trkpt lat="29.563975" lon="98.310689">
<time>2016-10-07T16:45:45Z</time></trkpt>
<trkpt lat="29.563975" lon="98.310639">
<time>2016-10-07T16:45:46Z</time></trkpt>
<trkpt lat="29.563975" lon="98.310619">
<time>2016-10-07T16:45:47Z</time></trkpt>
<trkpt lat="29.563975" lon="98.310589">
<time>2016-10-07T16:45:48Z</time></trkpt>
<trkpt lat="29.563975" lon="98.310529">
<time>2016-10-07T16:45:49Z</time></trkpt>
<trkpt lat="29.563975" lon="98.310489">
<time>2016-10-07T16:45:50Z</time></trkpt>
<trkpt lat="29.563965" lon="98.310429">
<time>2016-10-07T16:45:51Z</time></trkpt>
<trkpt lat="29.563965" lon="98.310359">
<time>2016-10-07T16:45:52Z</time></trkpt>
<trkpt lat="29.563966" lon="98.3103">
<time>2016-10-07T16:45:53Z</time></trkpt>
<trkpt lat="29.563956" lon="98.31026">
<time>2016-10-07T16:45:54Z</time></trkpt>
<trkpt lat="29.563956" lon="98.31022">
<time>2016-10-07T16:45:55Z</time></trkpt>
<trkpt lat="29.563956" lon="98.31018">
<time>2016-10-07T16:45:56Z</time></trkpt>
<trkpt lat="29.563956" lon="98.31011">
<time>2016-10-07T16:45:57Z</time></trkpt>
<trkpt lat="29.563956" lon="98.31004">
<time>2016-10-07T16:45:58Z</time></trkpt>
<trkpt lat="29.563956" lon="98.30997">
<time>2016-10-07T16:45:59Z</time></trkpt>
<trkpt lat="29.563966" lon="98.30991">
<time>2016-10-07T16:46:00Z</time></trkpt>
<trkpt lat="29.563986" lon="98.309781">
<time>2016-10-07T16:46:01Z</time></trkpt>
<trkpt lat="29.563997" lon="98.309701">
<time>2016-10-07T16:46:02Z</time></trkpt>
<trkpt lat="29.564017" lon="98.309611">
<time>2016-10-07T16:46:03Z</time></trkpt>
<trkpt lat="29.564017" lon="98.309531">
<time>2016-10-07T16:46:04Z</time></trkpt>
<trkpt lat="29.564017" lon="98.309441">
<time>2016-10-07T16:46:05Z</time></trkpt>
<trkpt lat="29.564007" lon="98.309362">
<time>2016-10-07T16:46:06Z</time></trkpt>
<trkpt lat="29.563987" lon="98.309302">
<time>2016-10-07T16:46:07Z</time></trkpt>
<trkpt lat="29.563977" lon="98.309242">
<time>2016-10-07T16:46:08Z</time></trkpt>
<trkpt lat="29.563958" lon="98.309162">
<time>2016-10-07T16:46:09Z</time></trkpt>
<trkpt lat="29.563938" lon="98.309042">
<time>2016-10-07T16:46:10Z</time></trkpt>
<trkpt lat="29.563928" lon="98.308982">
<time>2016-10-07T16:46:11Z</time></trkpt>
<trkpt lat="29.563928" lon="98.308903">
<time>2016-10-07T16:46:12Z</time></trkpt>
<trkpt lat="29.563938" lon="98.308843">
<time>2016-10-07T16:46:13Z</time></trkpt>
<trkpt lat="29.563938" lon="98.308793">
<time>2016-10-07T16:46:14Z</time></trkpt>
<trkpt lat="29.563958" lon="98.308743">
<time>2016-10-07T16:46:15Z</time></trkpt>
<trkpt lat="29.563968" lon="98.308673">
<time>2016-10-07T16:46:16Z</time></trkpt>
<trkpt lat="29.563999" lon="98.308593">
<time>2016-10-07T16:46:17Z</time></trkpt>
<trkpt lat="29.564019" lon="98.308503">
<time>2016-10-07T16:46:18Z</time></trkpt>
<trkpt lat="29.564039" lon="98.308434">
<time>2016-10-07T16:46:19Z</time></trkpt>
<trkpt lat="29.564099" lon="98.308244">
<time>2016-10-07T16:46:20Z</time></trkpt>
<trkpt lat="29.564129" lon="98.308134">
<time>2016-10-07T16:46:21Z</time></trkpt>
<trkpt lat="29.56417" lon="98.308024">
<time>2016-10-07T16:46:22Z</time></trkpt>
<trkpt lat="29.5642" lon="98.307905">
<time>2016-10-07T16:46:23Z</time></trkpt>
<trkpt lat="29.56423" lon="98.307785">
<time>2016-10-07T16:46:24Z</time></trkpt>
<trkpt lat="29.56425" lon="98.307715">
<time>2016-10-07T16:46:25Z</time></trkpt>
<trkpt lat="29.56428" lon="98.307635">
<time>2016-10-07T16:46:26Z</time></trkpt>
<trkpt lat="29.56431" lon="98.307555">
<time>2016-10-07T16:46:27Z</time></trkpt>
<trkpt lat="29.56435" lon="98.307476">
<time>2016-10-07T16:46:28Z</time></trkpt>
<trkpt lat="29.564381" lon="98.307426">
<time>2016-10-07T16:46:29Z</time></trkpt>
<trkpt lat="29.564421" lon="98.307376">
<time>2016-10-07T16:46:30Z</time></trkpt>
<trkpt lat="29.564471" lon="98.307306">
<time>2016-10-07T16:46:31Z</time></trkpt>
<trkpt lat="29.564521" lon="98.307246">
<time>2016-10-07T16:46:32Z</time></trkpt>
<trkpt lat="29.564571" lon="98.307206">
<time>2016-10-07T16:46:33Z</time></trkpt>
<trkpt lat="29.564611" lon="98.307156">
<time>2016-10-07T16:46:34Z</time></trkpt>
<trkpt lat="29.564641" lon="98.307116">
<time>2016-10-07T16:46:35Z</time></trkpt>
<trkpt lat="29.564691" lon="98.307046">
<time>2016-10-07T16:46:36Z</time></trkpt>
<trkpt lat="29.564721" lon="98.306987">
<time>2016-10-07T16:46:37Z</time></trkpt>
<trkpt lat="29.564751" lon="98.306907">
<time>2016-10-07T16:46:38Z</time></trkpt>
<trkpt lat="29.564761" lon="98.306857">
<time>2016-10-07T16:46:39Z</time></trkpt>
<trkpt lat="29.564772" lon="98.306747">
<time>2016-10-07T16:46:40Z</time></trkpt>
<trkpt lat="29.564782" lon="98.306647">
<time>2016-10-07T16:46:41Z</time></trkpt>
<trkpt lat="29.564792" lon="98.306488">
<time>2016-10-07T16:46:42Z</time></trkpt>
<trkpt lat="29.564802" lon="98.306328">
<time>2016-10-07T16:46:43Z</time></trkpt>
<trkpt lat="29.564813" lon="98.306148">
<time>2016-10-07T16:46:44Z</time></trkpt>
<trkpt lat="29.564813" lon="98.305959">
<time>2016-10-07T16:46:45Z</time></trkpt>
<trkpt lat="29.564823" lon="98.305799">
<time>2016-10-07T16:46:46Z</time></trkpt>
<trkpt lat="29.564833" lon="98.305709">
<time>2016-10-07T16:46:47Z</time></trkpt>
<trkpt lat="29.564843" lon="98.305649">
<time>2016-10-07T16:46:48Z</time></trkpt>
<trkpt lat="29.564854" lon="98.305589">
<time>2016-10-07T16:46:49Z</time></trkpt>
<trkpt lat="29.564874" lon="98.30547">
<time>2016-10-07T16:46:50Z</time></trkpt>
<trkpt lat="29.564884" lon="98.30539">
<time>2016-10-07T16:46:51Z</time></trkpt>
<trkpt lat="29.564914" lon="98.30532">
<time>2016-10-07T16:46:52Z</time></trkpt>
<trkpt lat="29.564934" lon="98.30526">
<time>2016-10-07T16:46:53Z</time></trkpt>
<trkpt lat="29.564954" lon="98.30522">
<time>2016-10-07T16:46:54Z</time></trkpt>
<trkpt lat="29.564974" lon="98.30518">
<time>2016-10-07T16:46:55Z</time></trkpt>
<trkpt lat="29.565004" lon="98.3051">
<time>2016-10-07T16:46:56Z</time></trkpt>
<trkpt lat="29.565034" lon="98.30506">
<time>2016-10-07T16:46:57Z</time></trkpt>
<trkpt lat="29.565065" lon="98.305001">
<time>2016-10-07T16:46:58Z</time></trkpt>
<trkpt lat="29.565105" lon="98.304951">
<time>2016-10-07T16:46:59Z</time></trkpt>
<trkpt lat="29.565145" lon="98.304901">
<time>2016-10-07T16:47:00Z</time></trkpt>
<trkpt lat="29.565225" lon="98.304791">
<time>2016-10-07T16:47:01Z</time></trkpt>
<trkpt lat="29.565315" lon="98.304681">
<time>2016-10-07T16:47:02Z</time></trkpt>
<trkpt lat="29.565415" lon="98.304561">
<time>2016-10-07T16:47:03Z</time></trkpt>
<trkpt lat="29.565465" lon="98.304502">
<time>2016-10-07T16:47:04Z</time></trkpt>
<trkpt lat="29.565545" lon="98.304412">
<time>2016-10-07T16:47:05Z</time></trkpt>
<trkpt lat="29.565585" lon="98.304362">
<time>2016-10-07T16:47:06Z</time></trkpt>
<trkpt lat="29.565646" lon="98.304302">
<time>2016-10-07T16:47:07Z</time></trkpt>
<trkpt lat="29.565666" lon="98.304272">
<time>2016-10-07T16:47:08Z</time></trkpt>
<trkpt lat="29.565686" lon="98.304242">
<time>2016-10-07T16:47:09Z</time></trkpt>
<trkpt lat="29.565706" lon="98.304212">
<time>2016-10-07T16:47:10Z</time></trkpt>
<trkpt lat="29.565736" lon="98.304172">
<time>2016-10-07T16:47:11Z</time></trkpt>
<trkpt lat="29.565766" lon="98.304142">
<time>2016-10-07T16:47:12Z</time></trkpt>
<trkpt lat="29.565786" lon="98.304112">
<time>2016-10-07T16:47:13Z</time></trkpt>
<trkpt lat="29.565806" lon="98.304072">
<time>2016-10-07T16:47:14Z</time></trkpt>
<trkpt lat="29.565816" lon="98.304043">
<time>2016-10-07T16:47:15Z</time></trkpt>
<trkpt lat="29.565816" lon="98.304013">
<time>2016-10-07T16:47:16Z</time></trkpt>
<trkpt lat="29.565816" lon="98.303983">
<time>2016-10-07T16:47:17Z</time></trkpt>
<trkpt lat="29.565816" lon="98.303953">
<time>2016-10-07T16:47:18Z</time></trkpt>
<trkpt lat="29.565796" lon="98.303923">
<time>2016-10-07T16:47:19Z</time></trkpt>
<trkpt lat="29.565786" lon="98.303903">
<time>2016-10-07T16:47:20Z</time></trkpt>
<trkpt lat="29.565776" lon="98.303893">
<time>2016-10-07T16:47:21Z</time></trkpt>
<trkpt lat="29.565756" lon="98.303873">
<time>2016-10-07T16:47:22Z</time></trkpt>
<trkpt lat="29.565736" lon="98.303863">
<time>2016-10-07T16:47:23Z</time></trkpt>
<trkpt lat="29.565706" lon="98.303853">
<time>2016-10-07T16:47:24Z</time></trkpt>
<trkpt lat="29.565696" lon="98.303853">
<time>2016-10-07T16:47:25Z</time></trkpt>
<trkpt lat="29.565656" lon="98.303863">
<time>2016-10-07T16:47:26Z</time></trkpt>
<trkpt lat="29.565616" lon="98.303883">
<time>2016-10-07T16:47:27Z</time></trkpt>
<trkpt lat="29.565576" lon="98.303933">
<time>2016-10-07T16:47:28Z</time></trkpt>
<trkpt lat="29.565526" lon="98.303993">
<time>2016-10-07T16:47:29Z</time></trkpt>
<trkpt lat="29.565506" lon="98.304043">
<time>2016-10-07T16:47:30Z</time></trkpt>
<trkpt lat="29.565396" lon="98.304242">
<time>2016-10-07T16:47:31Z</time></trkpt>
<trkpt lat="29.565295" lon="98.304382">
<time>2016-10-07T16:47:32Z</time></trkpt>
<trkpt lat="29.565165" lon="98.304532">
<time>2016-10-07T16:47:33Z</time></trkpt>
<trkpt lat="29.565045" lon="98.304661">
<time>2016-10-07T16:47:34Z</time></trkpt>
<trkpt lat="29.564965" lon="98.304731">
<time>2016-10-07T16:47:35Z</time></trkpt>
<trkpt lat="29.564845" lon="98.304851">
<time>2016-10-07T16:47:36Z</time></trkpt>
<trkpt lat="29.564785" lon="98.304931">
<time>2016-10-07T16:47:37Z</time></trkpt>
<trkpt lat="29.564735" lon="98.305001">
<time>2016-10-07T16:47:38Z</time></trkpt>
<trkpt lat="29.564695" lon="98.30507">
<time>2016-10-07T16:47:39Z</time></trkpt>
<trkpt lat="29.564654" lon="98.30514">
<time>2016-10-07T16:47:40Z</time></trkpt>
<trkpt lat="29.564614" lon="98.30523">
<time>2016-10-07T16:47:41Z</time></trkpt>
<trkpt lat="29.564584" lon="98.30531">
<time>2016-10-07T16:47:42Z</time></trkpt>
<trkpt lat="29.564544" lon="98.30546">
<time>2016-10-07T16:47:43Z</time></trkpt>
<trkpt lat="29.564524" lon="98.305589">
<time>2016-10-07T16:47:44Z</time></trkpt>
<trkpt lat="29.564483" lon="98.305809">
<time>2016-10-07T16:47:45Z</time></trkpt>
<trkpt lat="29.564362" lon="98.306438">
<time>2016-10-07T16:47:46Z</time></trkpt>
<trkpt lat="29.564332" lon="98.306627">
<time>2016-10-07T16:47:47Z</time></trkpt>
<trkpt lat="29.564292" lon="98.306737">
<time>2016-10-07T16:47:48Z</time></trkpt>
<trkpt lat="29.564252" lon="98.306837">
<time>2016-10-07T16:47:49Z</time></trkpt>
<trkpt lat="29.564211" lon="98.306907">
<time>2016-10-07T16:47:50Z</time></trkpt>
<trkpt lat="29.564161" lon="98.306967">
<time>2016-10-07T16:47:51Z</time></trkpt>
<trkpt lat="29.564121" lon="98.307017">
<time>2016-10-07T16:47:52Z</time></trkpt>
<trkpt lat="29.564021" lon="98.307086">
<time>2016-10-07T16:47:53Z</time></trkpt>
<trkpt lat="29.563951" lon="98.307136">
<time>2016-10-07T16:47:54Z</time></trkpt>
<trkpt lat="29.563861" lon="98.307186">
<time>2016-10-07T16:47:55Z</time></trkpt>
<trkpt lat="29.563821" lon="98.307216">
<time>2016-10-07T16:47:56Z</time></trkpt>
<trkpt lat="29.563751" lon="98.307296">
<time>2016-10-07T16:47:57Z</time></trkpt>
<trkpt lat="29.563701" lon="98.307376">
<time>2016-10-07T16:47:58Z</time></trkpt>
<trkpt lat="29.56352" lon="98.307705">
<time>2016-10-07T16:47:59Z</time></trkpt>
<trkpt lat="29.56342" lon="98.307865">
<time>2016-10-07T16:48:00Z</time></trkpt>
<trkpt lat="29.56328" lon="98.308034">
<time>2016-10-07T16:48:01Z</time></trkpt>
<trkpt lat="29.56317" lon="98.308174">
<time>2016-10-07T16:48:02Z</time></trkpt>
<trkpt lat="29.562999" lon="98.308384">
<time>2016-10-07T16:48:03Z</time></trkpt>
<trkpt lat="29.562899" lon="98.308513">
<time>2016-10-07T16:48:04Z</time></trkpt>
<trkpt lat="29.562809" lon="98.308653">
<time>2016-10-07T16:48:05Z</time></trkpt>
<trkpt lat="29.562749" lon="98.308773">
<time>2016-10-07T16:48:06Z</time></trkpt>
<trkpt lat="29.562688" lon="98.308933">
<time>2016-10-07T16:48:07Z</time></trkpt>
<trkpt lat="29.562628" lon="98.309112">
<time>2016-10-07T16:48:08Z</time></trkpt>
<trkpt lat="29.562598" lon="98.309212">
<time>2016-10-07T16:48:09Z</time></trkpt>
<trkpt lat="29.562568" lon="98.309322">
<time>2016-10-07T16:48:10Z</time></trkpt>
<trkpt lat="29.562548" lon="98.309402">
<time>2016-10-07T16:48:11Z</time></trkpt>
<trkpt lat="29.562538" lon="98.309481">
<time>2016-10-07T16:48:12Z</time></trkpt>
<trkpt lat="29.562517" lon="98.309611">
<time>2016-10-07T16:48:13Z</time></trkpt>
<trkpt lat="29.562517" lon="98.309841">
<time>2016-10-07T16:48:14Z</time></trkpt>
<trkpt lat="29.562536" lon="98.31015">
<time>2016-10-07T16:48:15Z</time></trkpt>
<trkpt lat="29.562526" lon="98.31036">
<time>2016-10-07T16:48:16Z</time></trkpt>
<trkpt lat="29.562506" lon="98.310599">
<time>2016-10-07T16:48:17Z</time></trkpt>
<trkpt lat="29.562495" lon="98.310619">
<time>2016-10-07T16:48:18Z</time></trkpt>
<trkpt lat="29.562485" lon="98.310759">
<time>2016-10-07T16:48:19Z</time></trkpt>
<trkpt lat="29.562475" lon="98.310868">
<time>2016-10-07T16:48:20Z</time></trkpt>
<trkpt lat="29.562455" lon="98.311038">
<time>2016-10-07T16:48:21Z</time></trkpt>
<trkpt lat="29.562424" lon="98.311327">
<time>2016-10-07T16:48:22Z</time></trkpt>
<trkpt lat="29.562424" lon="98.311577">
<time>2016-10-07T16:48:23Z</time></trkpt>
<trkpt lat="29.562424" lon="98.311657">
<time>2016-10-07T16:48:24Z</time></trkpt>
<trkpt lat="29.562443" lon="98.311796">
<time>2016-10-07T16:48:25Z</time></trkpt>
<trkpt lat="29.562473" lon="98.311956">
<time>2016-10-07T16:48:26Z</time></trkpt>
<trkpt lat="29.562523" lon="98.312106">
<time>2016-10-07T16:48:27Z</time></trkpt>
<trkpt lat="29.562563" lon="98.312245">
<time>2016-10-07T16:48:28Z</time></trkpt>
<trkpt lat="29.562632" lon="98.312385">
<time>2016-10-07T16:48:29Z</time></trkpt>
<trkpt lat="29.562702" lon="98.312555">
<time>2016-10-07T16:48:30Z</time></trkpt>
<trkpt lat="29.562782" lon="98.312724">
<time>2016-10-07T16:48:31Z</time></trkpt>
<trkpt lat="29.562821" lon="98.312834">
<time>2016-10-07T16:48:32Z</time></trkpt>
<trkpt lat="29.562871" lon="98.312954">
<time>2016-10-07T16:48:33Z</time></trkpt>
<trkpt lat="29.562951" lon="98.313233">
<time>2016-10-07T16:48:34Z</time></trkpt>
<trkpt lat="29.563" lon="98.313383">
<time>2016-10-07T16:48:35Z</time></trkpt>
<trkpt lat="29.56306" lon="98.313503">
<time>2016-10-07T16:48:36Z</time></trkpt>
<trkpt lat="29.56313" lon="98.313603">
<time>2016-10-07T16:48:37Z</time></trkpt>
<trkpt lat="29.5632" lon="98.313702">
<time>2016-10-07T16:48:38Z</time></trkpt>
<trkpt lat="29.563299" lon="98.313862">
<time>2016-10-07T16:48:39Z</time></trkpt>
<trkpt lat="29.563359" lon="98.313962">
<time>2016-10-07T16:48:40Z</time></trkpt>
<trkpt lat="29.563548" lon="98.314331">
<time>2016-10-07T16:48:41Z</time></trkpt>
<trkpt lat="29.563678" lon="98.31463">
<time>2016-10-07T16:48:42Z</time></trkpt>
<trkpt lat="29.563787" lon="98.31487">
<time>2016-10-07T16:48:43Z</time></trkpt>
<trkpt lat="29.563857" lon="98.315059">
<time>2016-10-07T16:48:44Z</time></trkpt>
<trkpt lat="29.563937" lon="98.315219">
<time>2016-10-07T16:48:45Z</time></trkpt>
<trkpt lat="29.563986" lon="98.315339">
<time>2016-10-07T16:48:46Z</time></trkpt>
<trkpt lat="29.564026" lon="98.315409">
<time>2016-10-07T16:48:47Z</time></trkpt>
<trkpt lat="29.564066" lon="98.315448">
<time>2016-10-07T16:48:48Z</time></trkpt>
<trkpt lat="29.564156" lon="98.315558">
<time>2016-10-07T16:48:49Z</time></trkpt>
<trkpt lat="29.564246" lon="98.315638">
<time>2016-10-07T16:48:50Z</time></trkpt>
<trkpt lat="29.564365" lon="98.315748">
<time>2016-10-07T16:48:51Z</time></trkpt>
<trkpt lat="29.564525" lon="98.315887">
<time>2016-10-07T16:48:52Z</time></trkpt>
<trkpt lat="29.564635" lon="98.315967">
<time>2016-10-07T16:48:53Z</time></trkpt>
<trkpt lat="29.564765" lon="98.316057">
<time>2016-10-07T16:48:54Z</time></trkpt>
<trkpt lat="29.564865" lon="98.316117">
<time>2016-10-07T16:48:55Z</time></trkpt>
<trkpt lat="29.564924" lon="98.316147">
<time>2016-10-07T16:48:56Z</time></trkpt>
<trkpt lat="29.564984" lon="98.316167">
<time>2016-10-07T16:48:57Z</time></trkpt>
<trkpt lat="29.565074" lon="98.316187">
<time>2016-10-07T16:48:58Z</time></trkpt>
<trkpt lat="29.565144" lon="98.316197">
<time>2016-10-07T16:48:59Z</time></trkpt>
<trkpt lat="29.565314" lon="98.316217">
<time>2016-10-07T16:49:00Z</time></trkpt>
<trkpt lat="29.565524" lon="98.316227">
<time>2016-10-07T16:49:01Z</time></trkpt>
<trkpt lat="29.565784" lon="98.316237">
<time>2016-10-07T16:49:02Z</time></trkpt>
<trkpt lat="29.565884" lon="98.316247">
<time>2016-10-07T16:49:03Z</time></trkpt>
<trkpt lat="29.565944" lon="98.316257">
<time>2016-10-07T16:49:04Z</time></trkpt>
<trkpt lat="29.565994" lon="98.316287">
<time>2016-10-07T16:49:05Z</time></trkpt>
<trkpt lat="29.566014" lon="98.316297">
<time>2016-10-07T16:49:06Z</time></trkpt>
<trkpt lat="29.566044" lon="98.316327">
<time>2016-10-07T16:49:07Z</time></trkpt>
<trkpt lat="29.566074" lon="98.316356">
<time>2016-10-07T16:49:08Z</time></trkpt>
<trkpt lat="29.566094" lon="98.316406">
<time>2016-10-07T16:49:09Z</time></trkpt>
<trkpt lat="29.566114" lon="98.316456">
<time>2016-10-07T16:49:10Z</time></trkpt>
<trkpt lat="29.566133" lon="98.316556">
<time>2016-10-07T16:49:11Z</time></trkpt>
<trkpt lat="29.566153" lon="98.316646">
<time>2016-10-07T16:49:12Z</time></trkpt>
<trkpt lat="29.566193" lon="98.316825">
<time>2016-10-07T16:49:13Z</time></trkpt>
<trkpt lat="29.566232" lon="98.317015">
<time>2016-10-07T16:49:14Z</time></trkpt>
<trkpt lat="29.566272" lon="98.317244">
<time>2016-10-07T16:49:15Z</time></trkpt>
<trkpt lat="29.566282" lon="98.317304">
<time>2016-10-07T16:49:16Z</time></trkpt>
<trkpt lat="29.566292" lon="98.317374">
<time>2016-10-07T16:49:17Z</time></trkpt>
<trkpt lat="29.566292" lon="98.317424">
<time>2016-10-07T16:49:18Z</time></trkpt>
<trkpt lat="29.566282" lon="98.317484">
<time>2016-10-07T16:49:19Z</time></trkpt>
<trkpt lat="29.566261" lon="98.317524">
<time>2016-10-07T16:49:20Z</time></trkpt>
<trkpt lat="29.566231" lon="98.317574">
<time>2016-10-07T16:49:21Z</time></trkpt>
<trkpt lat="29.566201" lon="98.317604">
<time>2016-10-07T16:49:22Z</time></trkpt>
<trkpt lat="29.566171" lon="98.317624">
<time>2016-10-07T16:49:23Z</time></trkpt>
<trkpt lat="29.566121" lon="98.317654">
<time>2016-10-07T16:49:24Z</time></trkpt>
<trkpt lat="29.566061" lon="98.317664">
<time>2016-10-07T16:49:25Z</time></trkpt>
<trkpt lat="29.565951" lon="98.317683">
<time>2016-10-07T16:49:26Z</time></trkpt>
<trkpt lat="29.565671" lon="98.317693">
<time>2016-10-07T16:49:27Z</time></trkpt>
<trkpt lat="29.565411" lon="98.317703">
<time>2016-10-07T16:49:28Z</time></trkpt>
<trkpt lat="29.565251" lon="98.317693">
<time>2016-10-07T16:49:29Z</time></trkpt>
<trkpt lat="29.565142" lon="98.317674">
<time>2016-10-07T16:49:30Z</time></trkpt>
<trkpt lat="29.565032" lon="98.317644">
<time>2016-10-07T16:49:31Z</time></trkpt>
<trkpt lat="29.564852" lon="98.317594">
<time>2016-10-07T16:49:32Z</time></trkpt>
<trkpt lat="29.564742" lon="98.317554">
<time>2016-10-07T16:49:33Z</time></trkpt>
<trkpt lat="29.564632" lon="98.317514">
<time>2016-10-07T16:49:34Z</time></trkpt>
<trkpt lat="29.564582" lon="98.317504">
<time>2016-10-07T16:49:35Z</time></trkpt>
<trkpt lat="29.564502" lon="98.317474">
<time>2016-10-07T16:49:36Z</time></trkpt>
<trkpt lat="29.564412" lon="98.317444">
<time>2016-10-07T16:49:37Z</time></trkpt>
<trkpt lat="29.564372" lon="98.317434">
<time>2016-10-07T16:49:38Z</time></trkpt>
<trkpt lat="29.564302" lon="98.317424">
<time>2016-10-07T16:49:39Z</time></trkpt>
<trkpt lat="29.564212" lon="98.317414">
<time>2016-10-07T16:49:40Z</time></trkpt>
<trkpt lat="29.564162" lon="98.317424">
<time>2016-10-07T16:49:41Z</time></trkpt>
<trkpt lat="29.564082" lon="98.317444">
<time>2016-10-07T16:49:42Z</time></trkpt>
<trkpt lat="29.564012" lon="98.317464">
<time>2016-10-07T16:49:43Z</time></trkpt>
<trkpt lat="29.563912" lon="98.317494">
<time>2016-10-07T16:49:44Z</time></trkpt>
<trkpt lat="29.563822" lon="98.317514">
<time>2016-10-07T16:49:45Z</time></trkpt>
<trkpt lat="29.563722" lon="98.317524">
<time>2016-10-07T16:49:46Z</time></trkpt>
<trkpt lat="29.563612" lon="98.317544">
<time>2016-10-07T16:49:47Z</time></trkpt>
<trkpt lat="29.563522" lon="98.317554">
<time>2016-10-07T16:49:48Z</time></trkpt>
<trkpt lat="29.563432" lon="98.317554">
<time>2016-10-07T16:49:49Z</time></trkpt>
<trkpt lat="29.563332" lon="98.317554">
<time>2016-10-07T16:49:50Z</time></trkpt>
<trkpt lat="29.563252" lon="98.317554">
<time>2016-10-07T16:49:51Z</time></trkpt>
<trkpt lat="29.563212" lon="98.317544">
<time>2016-10-07T16:49:52Z</time></trkpt>
<trkpt lat="29.563163" lon="98.317524">
<time>2016-10-07T16:49:53Z</time></trkpt>
<trkpt lat="29.563133" lon="98.317514">
<time>2016-10-07T16:49:54Z</time></trkpt>
<trkpt lat="29.563093" lon="98.317494">
<time>2016-10-07T16:49:55Z</time></trkpt>
<trkpt lat="29.563053" lon="98.317464">
<time>2016-10-07T16:49:56Z</time></trkpt>
<trkpt lat="29.563043" lon="98.317444">
<time>2016-10-07T16:49:57Z</time></trkpt>
<trkpt lat="29.563013" lon="98.317424">
<time>2016-10-07T16:49:58Z</time></trkpt>
<trkpt lat="29.562993" lon="98.317394">
<time>2016-10-07T16:49:59Z</time></trkpt>
<trkpt lat="29.562943" lon="98.317344">
<time>2016-10-07T16:50:00Z</time></trkpt>
<trkpt lat="29.562923" lon="98.317304">
<time>2016-10-07T16:50:01Z</time></trkpt>
<trkpt lat="29.562803" lon="98.317135">
<time>2016-10-07T16:50:02Z</time></trkpt>
<trkpt lat="29.562714" lon="98.317005">
<time>2016-10-07T16:50:03Z</time></trkpt>
<trkpt lat="29.562694" lon="98.316955">
<time>2016-10-07T16:50:04Z</time></trkpt>
<trkpt lat="29.562664" lon="98.316895">
<time>2016-10-07T16:50:05Z</time></trkpt>
<trkpt lat="29.562634" lon="98.316845">
<time>2016-10-07T16:50:06Z</time></trkpt>
<trkpt lat="29.562624" lon="98.316796">
<time>2016-10-07T16:50:07Z</time></trkpt>
<trkpt lat="29.562614" lon="98.316736">
<time>2016-10-07T16:50:08Z</time></trkpt>
<trkpt lat="29.562594" lon="98.316686">
<time>2016-10-07T16:50:09Z</time></trkpt>
<trkpt lat="29.562594" lon="98.316606">
<time>2016-10-07T16:50:10Z</time></trkpt>
<trkpt lat="29.562585" lon="98.316556">
<time>2016-10-07T16:50:11Z</time></trkpt>
<trkpt lat="29.562585" lon="98.316476">
<time>2016-10-07T16:50:12Z</time></trkpt>
<trkpt lat="29.562575" lon="98.316366">
<time>2016-10-07T16:50:13Z</time></trkpt>
<trkpt lat="29.562545" lon="98.316257">
<time>2016-10-07T16:50:14Z</time></trkpt>
<trkpt lat="29.562535" lon="98.316207">
<time>2016-10-07T16:50:15Z</time></trkpt>
<trkpt lat="29.562515" lon="98.316157">
<time>2016-10-07T16:50:16Z</time></trkpt>
<trkpt lat="29.562485" lon="98.316087">
<time>2016-10-07T16:50:17Z</time></trkpt>
<trkpt lat="29.562456" lon="98.316037">
<time>2016-10-07T16:50:18Z</time></trkpt>
<trkpt lat="29.562426" lon="98.315997">
<time>2016-10-07T16:50:19Z</time></trkpt>
<trkpt lat="29.562386" lon="98.315947">
<time>2016-10-07T16:50:20Z</time></trkpt>
<trkpt lat="29.562326" lon="98.315888">
<time>2016-10-07T16:50:21Z</time></trkpt>
<trkpt lat="29.562246" lon="98.315808">
<time>2016-10-07T16:50:22Z</time></trkpt>
<trkpt lat="29.562106" lon="98.315728">
<time>2016-10-07T16:50:23Z</time></trkpt>
<trkpt lat="29.561926" lon="98.315628">
<time>2016-10-07T16:50:24Z</time></trkpt>
<trkpt lat="29.561727" lon="98.315528">
<time>2016-10-07T16:50:25Z</time></trkpt>
<trkpt lat="29.561567" lon="98.315439">
<time>2016-10-07T16:50:26Z</time></trkpt>
<trkpt lat="29.561457" lon="98.315369">
<time>2016-10-07T16:50:27Z</time></trkpt>
<trkpt lat="29.561387" lon="98.315309">
<time>2016-10-07T16:50:28Z</time></trkpt>
<trkpt lat="29.561327" lon="98.315259">
<time>2016-10-07T16:50:29Z</time></trkpt>
<trkpt lat="29.561258" lon="98.315179">
<time>2016-10-07T16:50:30Z</time></trkpt>
<trkpt lat="29.561198" lon="98.315099">
<time>2016-10-07T16:50:31Z</time></trkpt>
<trkpt lat="29.561148" lon="98.315">
<time>2016-10-07T16:50:32Z</time></trkpt>
<trkpt lat="29.561108" lon="98.31491">
<time>2016-10-07T16:50:33Z</time></trkpt>
<trkpt lat="29.561078" lon="98.31481">
<time>2016-10-07T16:50:34Z</time></trkpt>
<trkpt lat="29.561029" lon="98.31468">
<time>2016-10-07T16:50:35Z</time></trkpt>
<trkpt lat="29.560979" lon="98.314531">
<time>2016-10-07T16:50:36Z</time></trkpt>
<trkpt lat="29.560929" lon="98.314371">
<time>2016-10-07T16:50:37Z</time></trkpt>
<trkpt lat="29.560889" lon="98.314211">
<time>2016-10-07T16:50:38Z</time></trkpt>
<trkpt lat="29.56084" lon="98.314101">
<time>2016-10-07T16:50:39Z</time></trkpt>
<trkpt lat="29.56079" lon="98.314002">
<time>2016-10-07T16:50:40Z</time></trkpt>
<trkpt lat="29.56072" lon="98.313922">
<time>2016-10-07T16:50:41Z</time></trkpt>
<trkpt lat="29.56063" lon="98.313852">
<time>2016-10-07T16:50:42Z</time></trkpt>
<trkpt lat="29.56057" lon="98.313802">
<time>2016-10-07T16:50:43Z</time></trkpt>
<trkpt lat="29.560471" lon="98.313722">
<time>2016-10-07T16:50:44Z</time></trkpt>
<trkpt lat="29.560381" lon="98.313642">
<time>2016-10-07T16:50:45Z</time></trkpt>
<trkpt lat="29.560181" lon="98.313483">
<time>2016-10-07T16:50:46Z</time></trkpt>
<trkpt lat="29.560081" lon="98.313423">
<time>2016-10-07T16:50:47Z</time></trkpt>
<trkpt lat="29.559981" lon="98.313383">
<time>2016-10-07T16:50:48Z</time></trkpt>
<trkpt lat="29.559861" lon="98.313353">
<time>2016-10-07T16:50:49Z</time></trkpt>
<trkpt lat="29.559771" lon="98.313353">
<time>2016-10-07T16:50:50Z</time></trkpt>
<trkpt lat="29.559651" lon="98.313353">
<time>2016-10-07T16:50:51Z</time></trkpt>
<trkpt lat="29.559532" lon="98.313373">
<time>2016-10-07T16:50:52Z</time></trkpt>
<trkpt lat="29.559461" lon="98.313393">
<time>2016-10-07T16:50:53Z</time></trkpt>
<trkpt lat="29.559401" lon="98.313413">
<time>2016-10-07T16:50:54Z</time></trkpt>
<trkpt lat="29.559341" lon="98.313433">
<time>2016-10-07T16:50:55Z</time></trkpt>
<trkpt lat="29.559241" lon="98.313493">
<time>2016-10-07T16:50:56Z</time></trkpt>
<trkpt lat="29.559171" lon="98.313523">
<time>2016-10-07T16:50:57Z</time></trkpt>
<trkpt lat="29.559091" lon="98.313543">
<time>2016-10-07T16:50:58Z</time></trkpt>
<trkpt lat="29.559011" lon="98.313563">
<time>2016-10-07T16:50:59Z</time></trkpt>
<trkpt lat="29.558851" lon="98.313583">
<time>2016-10-07T16:51:00Z</time></trkpt>
<trkpt lat="29.558731" lon="98.313593">
<time>2016-10-07T16:51:01Z</time></trkpt>
<trkpt lat="29.558631" lon="98.313603">
<time>2016-10-07T16:51:02Z</time></trkpt>
<trkpt lat="29.558501" lon="98.313603">
<time>2016-10-07T16:51:03Z</time></trkpt>
<trkpt lat="29.558421" lon="98.313593">
<time>2016-10-07T16:51:04Z</time></trkpt>
<trkpt lat="29.558262" lon="98.313583">
<time>2016-10-07T16:51:05Z</time></trkpt>
<trkpt lat="29.558122" lon="98.313573">
<time>2016-10-07T16:51:06Z</time></trkpt>
<trkpt lat="29.558042" lon="98.313563">
<time>2016-10-07T16:51:07Z</time></trkpt>
<trkpt lat="29.557902" lon="98.313543">
<time>2016-10-07T16:51:08Z</time></trkpt>
<trkpt lat="29.557702" lon="98.313533">
<time>2016-10-07T16:51:09Z</time></trkpt>
<trkpt lat="29.557502" lon="98.313533">
<time>2016-10-07T16:51:10Z</time></trkpt>
<trkpt lat="29.557332" lon="98.313543">
<time>2016-10-07T16:51:11Z</time></trkpt>
<trkpt lat="29.557222" lon="98.313553">
<time>2016-10-07T16:51:12Z</time></trkpt>
<trkpt lat="29.557112" lon="98.313563">
<time>2016-10-07T16:51:13Z</time></trkpt>
<trkpt lat="29.557012" lon="98.313573">
<time>2016-10-07T16:51:14Z</time></trkpt>
<trkpt lat="29.556932" lon="98.313583">
<time>2016-10-07T16:51:15Z</time></trkpt>
<trkpt lat="29.556862" lon="98.313603">
<time>2016-10-07T16:51:16Z</time></trkpt>
<trkpt lat="29.556802" lon="98.313623">
<time>2016-10-07T16:51:17Z</time></trkpt>
<trkpt lat="29.556752" lon="98.313643">
<time>2016-10-07T16:51:18Z</time></trkpt>
<trkpt lat="29.556692" lon="98.313682">
<time>2016-10-07T16:51:19Z</time></trkpt>
<trkpt lat="29.556622" lon="98.313722">
<time>2016-10-07T16:51:20Z</time></trkpt>
<trkpt lat="29.556552" lon="98.313792">
<time>2016-10-07T16:51:21Z</time></trkpt>
<trkpt lat="29.556492" lon="98.313862">
<time>2016-10-07T16:51:22Z</time></trkpt>
<trkpt lat="29.556422" lon="98.313922">
<time>2016-10-07T16:51:23Z</time></trkpt>
<trkpt lat="29.556372" lon="98.313982">
<time>2016-10-07T16:51:24Z</time></trkpt>
<trkpt lat="29.556321" lon="98.314032">
<time>2016-10-07T16:51:25Z</time></trkpt>
<trkpt lat="29.556291" lon="98.314062">
<time>2016-10-07T16:51:26Z</time></trkpt>
<trkpt lat="29.556241" lon="98.314102">
<time>2016-10-07T16:51:27Z</time></trkpt>
<trkpt lat="29.556171" lon="98.314151">
<time>2016-10-07T16:51:28Z</time></trkpt>
<trkpt lat="29.556091" lon="98.314181">
<time>2016-10-07T16:51:29Z</time></trkpt>
<trkpt lat="29.556031" lon="98.314201">
<time>2016-10-07T16:51:30Z</time></trkpt>
<trkpt lat="29.555941" lon="98.314221">
<time>2016-10-07T16:51:31Z</time></trkpt>
<trkpt lat="29.555851" lon="98.314241">
<time>2016-10-07T16:51:32Z</time></trkpt>
<trkpt lat="29.555721" lon="98.314261">
<time>2016-10-07T16:51:33Z</time></trkpt>
<trkpt lat="29.555651" lon="98.314291">
<time>2016-10-07T16:51:34Z</time></trkpt>
<trkpt lat="29.555601" lon="98.314321">
<time>2016-10-07T16:51:35Z</time></trkpt>
<trkpt lat="29.555541" lon="98.314351">
<time>2016-10-07T16:51:36Z</time></trkpt>
<trkpt lat="29.555481" lon="98.314401">
<time>2016-10-07T16:51:37Z</time></trkpt>
<trkpt lat="29.555401" lon="98.314471">
<time>2016-10-07T16:51:38Z</time></trkpt>
<trkpt lat="29.555331" lon="98.314561">
<time>2016-10-07T16:51:39Z</time></trkpt>
<trkpt lat="29.555241" lon="98.31467">
<time>2016-10-07T16:51:40Z</time></trkpt>
<trkpt lat="29.55515" lon="98.3148">
<time>2016-10-07T16:51:41Z</time></trkpt>
<trkpt lat="29.55507" lon="98.3149">
<time>2016-10-07T16:51:42Z</time></trkpt>
<trkpt lat="29.55501" lon="98.31497">
<time>2016-10-07T16:51:43Z</time></trkpt>
<trkpt lat="29.55498" lon="98.31501">
<time>2016-10-07T16:51:44Z</time></trkpt>
<trkpt lat="29.55495" lon="98.315069">
<time>2016-10-07T16:51:45Z</time></trkpt>
<trkpt lat="29.55491" lon="98.315139">
<time>2016-10-07T16:51:46Z</time></trkpt>
<trkpt lat="29.55489" lon="98.315179">
<time>2016-10-07T16:51:47Z</time></trkpt>
<trkpt lat="29.55487" lon="98.315229">
<time>2016-10-07T16:51:48Z</time></trkpt>
<trkpt lat="29.55485" lon="98.315309">
<time>2016-10-07T16:51:49Z</time></trkpt>
<trkpt lat="29.554849" lon="98.315389">
<time>2016-10-07T16:51:50Z</time></trkpt>
<trkpt lat="29.554849" lon="98.315449">
<time>2016-10-07T16:51:51Z</time></trkpt>
<trkpt lat="29.554859" lon="98.315548">
<time>2016-10-07T16:51:52Z</time></trkpt>
<trkpt lat="29.554879" lon="98.315648">
<time>2016-10-07T16:51:53Z</time></trkpt>
<trkpt lat="29.554909" lon="98.315768">
<time>2016-10-07T16:51:54Z</time></trkpt>
<trkpt lat="29.554948" lon="98.315908">
<time>2016-10-07T16:51:55Z</time></trkpt>
<trkpt lat="29.554998" lon="98.316067">
<time>2016-10-07T16:51:56Z</time></trkpt>
<trkpt lat="29.555048" lon="98.316227">
<time>2016-10-07T16:51:57Z</time></trkpt>
<trkpt lat="29.555117" lon="98.316446">
<time>2016-10-07T16:51:58Z</time></trkpt>
<trkpt lat="29.555147" lon="98.316536">
<time>2016-10-07T16:51:59Z</time></trkpt>
<trkpt lat="29.555187" lon="98.316646">
<time>2016-10-07T16:52:00Z</time></trkpt>
<trkpt lat="29.555227" lon="98.316716">
<time>2016-10-07T16:52:01Z</time></trkpt>
<trkpt lat="29.555247" lon="98.316766">
<time>2016-10-07T16:52:02Z</time></trkpt>
<trkpt lat="29.555267" lon="98.316786">
<time>2016-10-07T16:52:03Z</time></trkpt>
<trkpt lat="29.555317" lon="98.316866">
<time>2016-10-07T16:52:04Z</time></trkpt>
<trkpt lat="29.555366" lon="98.316935">
<time>2016-10-07T16:52:05Z</time></trkpt>
<trkpt lat="29.555416" lon="98.317005">
<time>2016-10-07T16:52:06Z</time></trkpt>
<trkpt lat="29.555456" lon="98.317065">
<time>2016-10-07T16:52:07Z</time></trkpt>
<trkpt lat="29.555476" lon="98.317085">
<time>2016-10-07T16:52:08Z</time></trkpt>
<trkpt lat="29.555486" lon="98.317115">
<time>2016-10-07T16:52:09Z</time></trkpt>
<trkpt lat="29.555486" lon="98.317145">
<time>2016-10-07T16:52:10Z</time></trkpt>
<trkpt lat="29.555486" lon="98.317165">
<time>2016-10-07T16:52:11Z</time></trkpt>
<trkpt lat="29.555486" lon="98.317185">
<time>2016-10-07T16:52:12Z</time></trkpt>
<trkpt lat="29.555486" lon="98.317205">
<time>2016-10-07T16:52:13Z</time></trkpt>
<trkpt lat="29.555476" lon="98.317225">
<time>2016-10-07T16:52:14Z</time></trkpt>
<trkpt lat="29.555466" lon="98.317255">
<time>2016-10-07T16:52:15Z</time></trkpt>
<trkpt lat="29.555456" lon="98.317265">
<time>2016-10-07T16:52:16Z</time></trkpt>
<trkpt lat="29.555446" lon="98.317285">
<time>2016-10-07T16:52:17Z</time></trkpt>
<trkpt lat="29.555436" lon="98.317295">
<time>2016-10-07T16:52:18Z</time></trkpt>
<trkpt lat="29.555416" lon="98.317305">
<time>2016-10-07T16:52:19Z</time></trkpt>
<trkpt lat="29.555396" lon="98.317315">
<time>2016-10-07T16:52:20Z</time></trkpt>
<trkpt lat="29.555386" lon="98.317315">
<time>2016-10-07T16:52:21Z</time></trkpt>
<trkpt lat="29.555366" lon="98.317315">
<time>2016-10-07T16:52:22Z</time></trkpt>
<trkpt lat="29.555346" lon="98.317315">
<time>2016-10-07T16:52:23Z</time></trkpt>
<trkpt lat="29.555336" lon="98.317315">
<time>2016-10-07T16:52:24Z</time></trkpt>
<trkpt lat="29.555316" lon="98.317305">
<time>2016-10-07T16:52:25Z</time></trkpt>
<trkpt lat="29.555296" lon="98.317295">
<time>2016-10-07T16:52:26Z</time></trkpt>
<trkpt lat="29.555276" lon="98.317275">
<time>2016-10-07T16:52:27Z</time></trkpt>
<trkpt lat="29.555256" lon="98.317255">
<time>2016-10-07T16:52:28Z</time></trkpt>
<trkpt lat="29.555246" lon="98.317235">
<time>2016-10-07T16:52:29Z</time></trkpt>
<trkpt lat="29.555226" lon="98.317215">
<time>2016-10-07T16:52:30Z</time></trkpt>
<trkpt lat="29.555216" lon="98.317185">
<time>2016-10-07T16:52:31Z</time></trkpt>
<trkpt lat="29.555196" lon="98.317145">
<time>2016-10-07T16:52:32Z</time></trkpt>
<trkpt lat="29.555186" lon="98.317105">
<time>2016-10-07T16:52:33Z</time></trkpt>
<trkpt lat="29.555166" lon="98.317055">
<time>2016-10-07T16:52:34Z</time></trkpt>
<trkpt lat="29.555146" lon="98.317015">
<time>2016-10-07T16:52:35Z</time></trkpt>
<trkpt lat="29.555126" lon="98.316955">
<time>2016-10-07T16:52:36Z</time></trkpt>
<trkpt lat="29.555097" lon="98.316905">
<time>2016-10-07T16:52:37Z</time></trkpt>
<trkpt lat="29.555087" lon="98.316875">
<time>2016-10-07T16:52:38Z</time></trkpt>
<trkpt lat="29.555067" lon="98.316816">
<time>2016-10-07T16:52:39Z</time></trkpt>
<trkpt lat="29.555057" lon="98.316796">
<time>2016-10-07T16:52:40Z</time></trkpt>
<trkpt lat="29.555037" lon="98.316746">
<time>2016-10-07T16:52:41Z</time></trkpt>
<trkpt lat="29.555017" lon="98.316706">
<time>2016-10-07T16:52:42Z</time></trkpt>
<trkpt lat="29.554987" lon="98.316636">
<time>2016-10-07T16:52:43Z</time></trkpt>
<trkpt lat="29.554977" lon="98.316596">
<time>2016-10-07T16:52:44Z</time></trkpt>
<trkpt lat="29.554947" lon="98.316556">
<time>2016-10-07T16:52:45Z</time></trkpt>
<trkpt lat="29.554927" lon="98.316506">
<time>2016-10-07T16:52:46Z</time></trkpt>
<trkpt lat="29.554907" lon="98.316466">
<time>2016-10-07T16:52:47Z</time></trkpt>
<trkpt lat="29.554888" lon="98.316407">
<time>2016-10-07T16:52:48Z</time></trkpt>
<trkpt lat="29.554868" lon="98.316367">
<time>2016-10-07T16:52:49Z</time></trkpt>
<trkpt lat="29.554838" lon="98.316307">
<time>2016-10-07T16:52:50Z</time></trkpt>
<trkpt lat="29.554828" lon="98.316277">
<time>2016-10-07T16:52:51Z</time></trkpt>
<trkpt lat="29.554798" lon="98.316227">
<time>2016-10-07T16:52:52Z</time></trkpt>
<trkpt lat="29.554768" lon="98.316167">
<time>2016-10-07T16:52:53Z</time></trkpt>
<trkpt lat="29.554728" lon="98.316067">
<time>2016-10-07T16:52:54Z</time></trkpt>
<trkpt lat="29.554668" lon="98.315948">
<time>2016-10-07T16:52:55Z</time></trkpt>
<trkpt lat="29.554639" lon="98.315888">
<time>2016-10-07T16:52:56Z</time></trkpt>
<trkpt lat="29.554599" lon="98.315778">
<time>2016-10-07T16:52:57Z</time></trkpt>
<trkpt lat="29.554559" lon="98.315698">
<time>2016-10-07T16:52:58Z</time></trkpt>
<trkpt lat="29.554519" lon="98.315628">
<time>2016-10-07T16:52:59Z</time></trkpt>
<trkpt lat="29.554469" lon="98.315509">
<time>2016-10-07T16:53:00Z</time></trkpt>
<trkpt lat="29.55443" lon="98.315409">
<time>2016-10-07T16:53:01Z</time></trkpt>
<trkpt lat="29.55441" lon="98.315359">
<time>2016-10-07T16:53:02Z</time></trkpt>
<trkpt lat="29.5544" lon="98.315289">
<time>2016-10-07T16:53:03Z</time></trkpt>
<trkpt lat="29.55439" lon="98.315249">
<time>2016-10-07T16:53:04Z</time></trkpt>
<trkpt lat="29.55439" lon="98.315209">
<time>2016-10-07T16:53:05Z</time></trkpt>
<trkpt lat="29.5544" lon="98.315159">
<time>2016-10-07T16:53:06Z</time></trkpt>
<trkpt lat="29.55441" lon="98.315109">
<time>2016-10-07T16:53:07Z</time></trkpt>
<trkpt lat="29.55442" lon="98.315069">
<time>2016-10-07T16:53:08Z</time></trkpt>
<trkpt lat="29.55443" lon="98.31503">
<time>2016-10-07T16:53:09Z</time></trkpt>
<trkpt lat="29.55446" lon="98.31498">
<time>2016-10-07T16:53:10Z</time></trkpt>
<trkpt lat="29.55448" lon="98.31493">
<time>2016-10-07T16:53:11Z</time></trkpt>
<trkpt lat="29.5545" lon="98.3149">
<time>2016-10-07T16:53:12Z</time></trkpt>
<trkpt lat="29.554531" lon="98.31485">
<time>2016-10-07T16:53:13Z</time></trkpt>
<trkpt lat="29.554571" lon="98.31479">
<time>2016-10-07T16:53:14Z</time></trkpt>
<trkpt lat="29.554591" lon="98.31475">
<time>2016-10-07T16:53:15Z</time></trkpt>
<trkpt lat="29.554641" lon="98.31466">
<time>2016-10-07T16:53:16Z</time></trkpt>
<trkpt lat="29.554661" lon="98.31463">
<time>2016-10-07T16:53:17Z</time></trkpt>
<trkpt lat="29.554691" lon="98.314591">
<time>2016-10-07T16:53:18Z</time></trkpt>
<trkpt lat="29.554721" lon="98.314531">
<time>2016-10-07T16:53:19Z</time></trkpt>
<trkpt lat="29.554741" lon="98.314481">
<time>2016-10-07T16:53:20Z</time></trkpt>
<trkpt lat="29.554781" lon="98.314411">
<time>2016-10-07T16:53:21Z</time></trkpt>
<trkpt lat="29.554811" lon="98.314341">
<time>2016-10-07T16:53:22Z</time></trkpt>
<trkpt lat="29.554831" lon="98.314281">
<time>2016-10-07T16:53:23Z</time></trkpt>
<trkpt lat="29.554912" lon="98.314082">
<time>2016-10-07T16:53:24Z</time></trkpt>
<trkpt lat="29.554932" lon="98.314002">
<time>2016-10-07T16:53:25Z</time></trkpt>
<trkpt lat="29.554982" lon="98.313902">
<time>2016-10-07T16:53:26Z</time></trkpt>
<trkpt lat="29.555052" lon="98.313802">
<time>2016-10-07T16:53:27Z</time></trkpt>
<trkpt lat="29.555092" lon="98.313762">
<time>2016-10-07T16:53:28Z</time></trkpt>
<trkpt lat="29.555162" lon="98.313702">
<time>2016-10-07T16:53:29Z</time></trkpt>
<trkpt lat="29.555213" lon="98.313663">
<time>2016-10-07T16:53:30Z</time></trkpt>
<trkpt lat="29.555313" lon="98.313593">
<time>2016-10-07T16:53:31Z</time></trkpt>
<trkpt lat="29.555373" lon="98.313543">
<time>2016-10-07T16:53:32Z</time></trkpt>
<trkpt lat="29.555453" lon="98.313473">
<time>2016-10-07T16:53:33Z</time></trkpt>
<trkpt lat="29.555513" lon="98.313423">
<time>2016-10-07T16:53:34Z</time></trkpt>
<trkpt lat="29.555553" lon="98.313383">
<time>2016-10-07T16:53:35Z</time></trkpt>
<trkpt lat="29.555633" lon="98.313293">
<time>2016-10-07T16:53:36Z</time></trkpt>
<trkpt lat="29.555693" lon="98.313204">
<time>2016-10-07T16:53:37Z</time></trkpt>
<trkpt lat="29.555753" lon="98.313124">
<time>2016-10-07T16:53:38Z</time></trkpt>
<trkpt lat="29.555823" lon="98.313024">
<time>2016-10-07T16:53:39Z</time></trkpt>
<trkpt lat="29.555914" lon="98.312924">
<time>2016-10-07T16:53:40Z</time></trkpt>
<trkpt lat="29.555974" lon="98.312854">
<time>2016-10-07T16:53:41Z</time></trkpt>
<trkpt lat="29.556004" lon="98.312824">
<time>2016-10-07T16:53:42Z</time></trkpt>
<trkpt lat="29.556094" lon="98.312735">
<time>2016-10-07T16:53:43Z</time></trkpt>
<trkpt lat="29.556244" lon="98.312605">
<time>2016-10-07T16:53:44Z</time></trkpt>
<trkpt lat="29.556474" lon="98.312415">
<time>2016-10-07T16:53:45Z</time></trkpt>
<trkpt lat="29.556635" lon="98.312266">
<time>2016-10-07T16:53:46Z</time></trkpt>
<trkpt lat="29.556755" lon="98.312166">
<time>2016-10-07T16:53:47Z</time></trkpt>
<trkpt lat="29.556865" lon="98.312076">
<time>2016-10-07T16:53:48Z</time></trkpt>
<trkpt lat="29.556965" lon="98.311996">
<time>2016-10-07T16:53:49Z</time></trkpt>
<trkpt lat="29.557085" lon="98.311926">
<time>2016-10-07T16:53:50Z</time></trkpt>
<trkpt lat="29.557205" lon="98.311866">
<time>2016-10-07T16:53:51Z</time></trkpt>
<trkpt lat="29.557335" lon="98.311816">
<time>2016-10-07T16:53:52Z</time></trkpt>
<trkpt lat="29.557425" lon="98.311787">
<time>2016-10-07T16:53:53Z</time></trkpt>
<trkpt lat="29.557525" lon="98.311747">
<time>2016-10-07T16:53:54Z</time></trkpt>
<trkpt lat="29.557615" lon="98.311717">
<time>2016-10-07T16:53:55Z</time></trkpt>
<trkpt lat="29.557745" lon="98.311697">
<time>2016-10-07T16:53:56Z</time></trkpt>
<trkpt lat="29.557845" lon="98.311677">
<time>2016-10-07T16:53:57Z</time></trkpt>
<trkpt lat="29.558005" lon="98.311677">
<time>2016-10-07T16:53:58Z</time></trkpt>
<trkpt lat="29.558165" lon="98.311667">
<time>2016-10-07T16:53:59Z</time></trkpt>
<trkpt lat="29.558505" lon="98.311667">
<time>2016-10-07T16:54:00Z</time></trkpt>
<trkpt lat="29.558615" lon="98.311657">
<time>2016-10-07T16:54:01Z</time></trkpt>
<trkpt lat="29.558895" lon="98.311657">
<time>2016-10-07T16:54:02Z</time></trkpt>
<trkpt lat="29.558995" lon="98.311647">
<time>2016-10-07T16:54:03Z</time></trkpt>
<trkpt lat="29.559145" lon="98.311637">
<time>2016-10-07T16:54:04Z</time></trkpt>
<trkpt lat="29.559335" lon="98.311617">
<time>2016-10-07T16:54:05Z</time></trkpt>
<trkpt lat="29.559405" lon="98.311607">
<time>2016-10-07T16:54:06Z</time></trkpt>
<trkpt lat="29.559505" lon="98.311597">
<time>2016-10-07T16:54:07Z</time></trkpt>
<trkpt lat="29.559545" lon="98.311587">
<time>2016-10-07T16:54:08Z</time></trkpt>
<trkpt lat="29.559595" lon="98.311567">
<time>2016-10-07T16:54:09Z</time></trkpt>
<trkpt lat="29.559615" lon="98.311567">
<time>2016-10-07T16:54:10Z</time></trkpt>
<trkpt lat="29.559635" lon="98.311547">
<time>2016-10-07T16:54:11Z</time></trkpt>
<trkpt lat="29.559655" lon="98.311537">
<time>2016-10-07T16:54:12Z</time></trkpt>
<trkpt lat="29.559675" lon="98.311527">
<time>2016-10-07T16:54:13Z</time></trkpt>
<trkpt lat="29.559685" lon="98.311507">
<time>2016-10-07T16:54:14Z</time></trkpt>
<trkpt lat="29.559685" lon="98.311497">
<time>2016-10-07T16:54:15Z</time></trkpt>
<trkpt lat="29.559695" lon="98.311477">
<time>2016-10-07T16:54:16Z</time></trkpt>
<trkpt lat="29.559705" lon="98.311467">
<time>2016-10-07T16:54:17Z</time></trkpt>
<trkpt lat="29.559705" lon="98.311447">
<time>2016-10-07T16:54:18Z</time></trkpt>
<trkpt lat="29.559705" lon="98.311427">
<time>2016-10-07T16:54:19Z</time></trkpt>
<trkpt lat="29.559705" lon="98.311397">
<time>2016-10-07T16:54:20Z</time></trkpt>
<trkpt lat="29.559695" lon="98.311377">
<time>2016-10-07T16:54:21Z</time></trkpt>
<trkpt lat="29.559695" lon="98.311357">
<time>2016-10-07T16:54:22Z</time></trkpt>
<trkpt lat="29.559685" lon="98.311347">
<time>2016-10-07T16:54:23Z</time></trkpt>
<trkpt lat="29.559675" lon="98.311328">
<time>2016-10-07T16:54:24Z</time></trkpt>
<trkpt lat="29.559655" lon="98.311318">
<time>2016-10-07T16:54:25Z</time></trkpt>
<trkpt lat="29.559645" lon="98.311308">
<time>2016-10-07T16:54:26Z</time></trkpt>
<trkpt lat="29.559625" lon="98.311288">
<time>2016-10-07T16:54:27Z</time></trkpt>
<trkpt lat="29.559595" lon="98.311288">
<time>2016-10-07T16:54:28Z</time></trkpt>
<trkpt lat="29.559575" lon="98.311278">
<time>2016-10-07T16:54:29Z</time></trkpt>
<trkpt lat="29.559535" lon="98.311278">
<time>2016-10-07T16:54:30Z</time></trkpt>
<trkpt lat="29.559485" lon="98.311288">
<time>2016-10-07T16:54:31Z</time></trkpt>
<trkpt lat="29.559375" lon="98.311328">
<time>2016-10-07T16:54:32Z</time></trkpt>
<trkpt lat="29.559275" lon="98.311367">
<time>2016-10-07T16:54:33Z</time></trkpt>
<trkpt lat="29.559135" lon="98.311387">
<time>2016-10-07T16:54:34Z</time></trkpt>
<trkpt lat="29.559015" lon="98.311407">
<time>2016-10-07T16:54:35Z</time></trkpt>
<trkpt lat="29.558925" lon="98.311407">
<time>2016-10-07T16:54:36Z</time></trkpt>
<trkpt lat="29.558895" lon="98.311407">
<time>2016-10-07T16:54:37Z</time></trkpt>
<trkpt lat="29.558815" lon="98.311397">
<time>2016-10-07T16:54:38Z</time></trkpt>
<trkpt lat="29.558735" lon="98.311377">
<time>2016-10-07T16:54:39Z</time></trkpt>
<trkpt lat="29.558675" lon="98.311367">
<time>2016-10-07T16:54:40Z</time></trkpt>
<trkpt lat="29.558426" lon="98.311318">
<time>2016-10-07T16:54:41Z</time></trkpt>
<trkpt lat="29.557936" lon="98.311218">
<time>2016-10-07T16:54:42Z</time></trkpt>
<trkpt lat="29.557756" lon="98.311188">
<time>2016-10-07T16:54:43Z</time></trkpt>
<trkpt lat="29.557626" lon="98.311168">
<time>2016-10-07T16:54:44Z</time></trkpt>
<trkpt lat="29.557486" lon="98.311158">
<time>2016-10-07T16:54:45Z</time></trkpt>
<trkpt lat="29.557366" lon="98.311158">
<time>2016-10-07T16:54:46Z</time></trkpt>
<trkpt lat="29.557236" lon="98.311168">
<time>2016-10-07T16:54:47Z</time></trkpt>
<trkpt lat="29.557116" lon="98.311168">
<time>2016-10-07T16:54:48Z</time></trkpt>
<trkpt lat="29.556976" lon="98.311188">
<time>2016-10-07T16:54:49Z</time></trkpt>
<trkpt lat="29.556816" lon="98.311198">
<time>2016-10-07T16:54:50Z</time></trkpt>
<trkpt lat="29.556666" lon="98.311218">
<time>2016-10-07T16:54:51Z</time></trkpt>
<trkpt lat="29.556506" lon="98.311228">
<time>2016-10-07T16:54:52Z</time></trkpt>
<trkpt lat="29.556386" lon="98.311248">
<time>2016-10-07T16:54:53Z</time></trkpt>
<trkpt lat="29.556306" lon="98.311268">
<time>2016-10-07T16:54:54Z</time></trkpt>
<trkpt lat="29.556156" lon="98.311318">
<time>2016-10-07T16:54:55Z</time></trkpt>
<trkpt lat="29.555966" lon="98.311377">
<time>2016-10-07T16:54:56Z</time></trkpt>
<trkpt lat="29.555846" lon="98.311437">
<time>2016-10-07T16:54:57Z</time></trkpt>
<trkpt lat="29.555726" lon="98.311497">
<time>2016-10-07T16:54:58Z</time></trkpt>
<trkpt lat="29.555616" lon="98.311557">
<time>2016-10-07T16:54:59Z</time></trkpt>
<trkpt lat="29.555556" lon="98.311597">
<time>2016-10-07T16:55:00Z</time></trkpt>
<trkpt lat="29.555416" lon="98.311687">
<time>2016-10-07T16:55:01Z</time></trkpt>
<trkpt lat="29.555286" lon="98.311767">
<time>2016-10-07T16:55:02Z</time></trkpt>
<trkpt lat="29.555116" lon="98.311886">
<time>2016-10-07T16:55:03Z</time></trkpt>
<trkpt lat="29.554906" lon="98.312056">
<time>2016-10-07T16:55:04Z</time></trkpt>
<trkpt lat="29.554725" lon="98.312226">
<time>2016-10-07T16:55:05Z</time></trkpt>
<trkpt lat="29.554595" lon="98.312355">
<time>2016-10-07T16:55:06Z</time></trkpt>
<trkpt lat="29.554445" lon="98.312505">
<time>2016-10-07T16:55:07Z</time></trkpt>
<trkpt lat="29.554315" lon="98.312635">
<time>2016-10-07T16:55:08Z</time></trkpt>
<trkpt lat="29.554225" lon="98.312725">
<time>2016-10-07T16:55:09Z</time></trkpt>
<trkpt lat="29.554154" lon="98.312814">
<time>2016-10-07T16:55:10Z</time></trkpt>
<trkpt lat="29.554044" lon="98.312934">
<time>2016-10-07T16:55:11Z</time></trkpt>
<trkpt lat="29.553884" lon="98.313134">
<time>2016-10-07T16:55:12Z</time></trkpt>
<trkpt lat="29.553774" lon="98.313283">
<time>2016-10-07T16:55:13Z</time></trkpt>
<trkpt lat="29.553653" lon="98.313453">
<time>2016-10-07T16:55:14Z</time></trkpt>
<trkpt lat="29.553533" lon="98.313623">
<time>2016-10-07T16:55:15Z</time></trkpt>
<trkpt lat="29.553433" lon="98.313762">
<time>2016-10-07T16:55:16Z</time></trkpt>
<trkpt lat="29.553343" lon="98.313892">
<time>2016-10-07T16:55:17Z</time></trkpt>
<trkpt lat="29.553243" lon="98.314032">
<time>2016-10-07T16:55:18Z</time></trkpt>
<trkpt lat="29.553182" lon="98.314112">
<time>2016-10-07T16:55:19Z</time></trkpt>
<trkpt lat="29.553122" lon="98.314201">
<time>2016-10-07T16:55:20Z</time></trkpt>
<trkpt lat="29.553062" lon="98.314281">
<time>2016-10-07T16:55:21Z</time></trkpt>
<trkpt lat="29.553012" lon="98.314371">
<time>2016-10-07T16:55:22Z</time></trkpt>
<trkpt lat="29.552972" lon="98.314431">
<time>2016-10-07T16:55:23Z</time></trkpt>
<trkpt lat="29.552932" lon="98.314491">
<time>2016-10-07T16:55:24Z</time></trkpt>
<trkpt lat="29.552892" lon="98.314581">
<time>2016-10-07T16:55:25Z</time></trkpt>
<trkpt lat="29.552862" lon="98.31464">
<time>2016-10-07T16:55:26Z</time></trkpt>
<trkpt lat="29.552821" lon="98.31472">
<time>2016-10-07T16:55:27Z</time></trkpt>
<trkpt lat="29.552781" lon="98.31481">
<time>2016-10-07T16:55:28Z</time></trkpt>
<trkpt lat="29.552741" lon="98.3149">
<time>2016-10-07T16:55:29Z</time></trkpt>
<trkpt lat="29.552701" lon="98.315">
<time>2016-10-07T16:55:30Z</time></trkpt>
<trkpt lat="29.552661" lon="98.315099">
<time>2016-10-07T16:55:31Z</time></trkpt>
<trkpt lat="29.552631" lon="98.315209">
<time>2016-10-07T16:55:32Z</time></trkpt>
<trkpt lat="29.55261" lon="98.315319">
<time>2016-10-07T16:55:33Z</time></trkpt>
<trkpt lat="29.55259" lon="98.315419">
<time>2016-10-07T16:55:34Z</time></trkpt>
<trkpt lat="29.55258" lon="98.315509">
<time>2016-10-07T16:55:35Z</time></trkpt>
<trkpt lat="29.55257" lon="98.315638">
<time>2016-10-07T16:55:36Z</time></trkpt>
<trkpt lat="29.55256" lon="98.315758">
<time>2016-10-07T16:55:37Z</time></trkpt>
<trkpt lat="29.552549" lon="98.315878">
<time>2016-10-07T16:55:38Z</time></trkpt>
<trkpt lat="29.552549" lon="98.315948">
<time>2016-10-07T16:55:39Z</time></trkpt>
<trkpt lat="29.552539" lon="98.316027">
<time>2016-10-07T16:55:40Z</time></trkpt>
<trkpt lat="29.552529" lon="98.316087">
<time>2016-10-07T16:55:41Z</time></trkpt>
<trkpt lat="29.552519" lon="98.316117">
<time>2016-10-07T16:55:42Z</time></trkpt>
<trkpt lat="29.552499" lon="98.316147">
<time>2016-10-07T16:55:43Z</time></trkpt>
<trkpt lat="29.552479" lon="98.316167">
<time>2016-10-07T16:55:44Z</time></trkpt>
<trkpt lat="29.552459" lon="98.316187">
<time>2016-10-07T16:55:45Z</time></trkpt>
<trkpt lat="29.552429" lon="98.316207">
<time>2016-10-07T16:55:46Z</time></trkpt>
<trkpt lat="29.552409" lon="98.316227">
<time>2016-10-07T16:55:47Z</time></trkpt>
<trkpt lat="29.552389" lon="98.316227">
<time>2016-10-07T16:55:48Z</time></trkpt>
<trkpt lat="29.552339" lon="98.316247">
<time>2016-10-07T16:55:49Z</time></trkpt>
<trkpt lat="29.552289" lon="98.316247">
<time>2016-10-07T16:55:50Z</time></trkpt>
<trkpt lat="29.552249" lon="98.316237">
<time>2016-10-07T16:55:51Z</time></trkpt>
<trkpt lat="29.552219" lon="98.316227">
<time>2016-10-07T16:55:52Z</time></trkpt>
<trkpt lat="29.552209" lon="98.316227">
<time>2016-10-07T16:55:53Z</time></trkpt>
<trkpt lat="29.552189" lon="98.316217">
<time>2016-10-07T16:55:54Z</time></trkpt>
<trkpt lat="29.552159" lon="98.316197">
<time>2016-10-07T16:55:55Z</time></trkpt>
<trkpt lat="29.552129" lon="98.316157">
<time>2016-10-07T16:55:56Z</time></trkpt>
<trkpt lat="29.552099" lon="98.316107">
<time>2016-10-07T16:55:57Z</time></trkpt>
<trkpt lat="29.552069" lon="98.316037">
<time>2016-10-07T16:55:58Z</time></trkpt>
<trkpt lat="29.552049" lon="98.316007">
<time>2016-10-07T16:55:59Z</time></trkpt>
<trkpt lat="29.552" lon="98.315888">
<time>2016-10-07T16:56:00Z</time></trkpt>
<trkpt lat="29.55199" lon="98.315848">
<time>2016-10-07T16:56:01Z</time></trkpt>
<trkpt lat="29.55196" lon="98.315778">
<time>2016-10-07T16:56:02Z</time></trkpt>
<trkpt lat="29.55194" lon="98.315738">
<time>2016-10-07T16:56:03Z</time></trkpt>
<trkpt lat="29.5519" lon="98.315638">
<time>2016-10-07T16:56:04Z</time></trkpt>
<trkpt lat="29.55188" lon="98.315588">
<time>2016-10-07T16:56:05Z</time></trkpt>
<trkpt lat="29.55186" lon="98.315519">
<time>2016-10-07T16:56:06Z</time></trkpt>
<trkpt lat="29.55184" lon="98.315449">
<time>2016-10-07T16:56:07Z</time></trkpt>
<trkpt lat="29.551831" lon="98.315399">
<time>2016-10-07T16:56:08Z</time></trkpt>
<trkpt lat="29.551831" lon="98.315349">
<time>2016-10-07T16:56:09Z</time></trkpt>
<trkpt lat="29.551821" lon="98.315279">
<time>2016-10-07T16:56:10Z</time></trkpt>
<trkpt lat="29.551821" lon="98.315229">
<time>2016-10-07T16:56:11Z</time></trkpt>
<trkpt lat="29.551801" lon="98.315089">
<time>2016-10-07T16:56:12Z</time></trkpt>
<trkpt lat="29.551801" lon="98.31503">
<time>2016-10-07T16:56:13Z</time></trkpt>
<trkpt lat="29.551791" lon="98.31493">
<time>2016-10-07T16:56:14Z</time></trkpt>
<trkpt lat="29.551791" lon="98.31488">
<time>2016-10-07T16:56:15Z</time></trkpt>
<trkpt lat="29.551782" lon="98.31478">
<time>2016-10-07T16:56:16Z</time></trkpt>
<trkpt lat="29.551782" lon="98.31473">
<time>2016-10-07T16:56:17Z</time></trkpt>
<trkpt lat="29.551772" lon="98.31466">
<time>2016-10-07T16:56:18Z</time></trkpt>
<trkpt lat="29.551772" lon="98.314561">
<time>2016-10-07T16:56:19Z</time></trkpt>
<trkpt lat="29.551762" lon="98.314521">
<time>2016-10-07T16:56:20Z</time></trkpt>
<trkpt lat="29.551762" lon="98.314471">
<time>2016-10-07T16:56:21Z</time></trkpt>
<trkpt lat="29.551762" lon="98.314381">
<time>2016-10-07T16:56:22Z</time></trkpt>
<trkpt lat="29.551753" lon="98.314331">
<time>2016-10-07T16:56:23Z</time></trkpt>
<trkpt lat="29.551753" lon="98.314281">
<time>2016-10-07T16:56:24Z</time></trkpt>
<trkpt lat="29.551753" lon="98.314221">
<time>2016-10-07T16:56:25Z</time></trkpt>
<trkpt lat="29.551753" lon="98.314171">
<time>2016-10-07T16:56:26Z</time></trkpt>
<trkpt lat="29.551753" lon="98.314122">
<time>2016-10-07T16:56:27Z</time></trkpt>
<trkpt lat="29.551753" lon="98.314082">
<time>2016-10-07T16:56:28Z</time></trkpt>
<trkpt lat="29.551753" lon="98.314032">
<time>2016-10-07T16:56:29Z</time></trkpt>
<trkpt lat="29.551763" lon="98.314002">
<time>2016-10-07T16:56:30Z</time></trkpt>
<trkpt lat="29.551763" lon="98.313972">
<time>2016-10-07T16:56:31Z</time></trkpt>
<trkpt lat="29.551763" lon="98.313942">
<time>2016-10-07T16:56:32Z</time></trkpt>
<trkpt lat="29.551773" lon="98.313892">
<time>2016-10-07T16:56:33Z</time></trkpt>
<trkpt lat="29.551783" lon="98.313862">
<time>2016-10-07T16:56:34Z</time></trkpt>
<trkpt lat="29.551783" lon="98.313832">
<time>2016-10-07T16:56:35Z</time></trkpt>
<trkpt lat="29.551793" lon="98.313792">
<time>2016-10-07T16:56:36Z</time></trkpt>
<trkpt lat="29.551794" lon="98.313752">
<time>2016-10-07T16:56:37Z</time></trkpt>
<trkpt lat="29.551814" lon="98.313683">
<time>2016-10-07T16:56:38Z</time></trkpt>
<trkpt lat="29.551824" lon="98.313643">
<time>2016-10-07T16:56:39Z</time></trkpt>
<trkpt lat="29.551834" lon="98.313593">
<time>2016-10-07T16:56:40Z</time></trkpt>
<trkpt lat="29.551844" lon="98.313553">
<time>2016-10-07T16:56:41Z</time></trkpt>
<trkpt lat="29.551854" lon="98.313523">
<time>2016-10-07T16:56:42Z</time></trkpt>
<trkpt lat="29.551864" lon="98.313493">
<time>2016-10-07T16:56:43Z</time></trkpt>
<trkpt lat="29.551874" lon="98.313443">
<time>2016-10-07T16:56:44Z</time></trkpt>
<trkpt lat="29.551884" lon="98.313413">
<time>2016-10-07T16:56:45Z</time></trkpt>
<trkpt lat="29.551904" lon="98.313373">
<time>2016-10-07T16:56:46Z</time></trkpt>
<trkpt lat="29.551914" lon="98.313333">
<time>2016-10-07T16:56:47Z</time></trkpt>
<trkpt lat="29.551934" lon="98.313283">
<time>2016-10-07T16:56:48Z</time></trkpt>
<trkpt lat="29.551954" lon="98.313244">
<time>2016-10-07T16:56:49Z</time></trkpt>
<trkpt lat="29.551985" lon="98.313194">
<time>2016-10-07T16:56:50Z</time></trkpt>
<trkpt lat="29.552025" lon="98.313114">
<time>2016-10-07T16:56:51Z</time></trkpt>
<trkpt lat="29.552045" lon="98.313074">
<time>2016-10-07T16:56:52Z</time></trkpt>
<trkpt lat="29.552085" lon="98.313004">
<time>2016-10-07T16:56:53Z</time></trkpt>
<trkpt lat="29.552105" lon="98.312954">
<time>2016-10-07T16:56:54Z</time></trkpt>
<trkpt lat="29.552155" lon="98.312844">
<time>2016-10-07T16:56:55Z</time></trkpt>
<trkpt lat="29.552185" lon="98.312775">
<time>2016-10-07T16:56:56Z</time></trkpt>
<trkpt lat="29.552215" lon="98.312685">
<time>2016-10-07T16:56:57Z</time></trkpt>
<trkpt lat="29.552236" lon="98.312595">
<time>2016-10-07T16:56:58Z</time></trkpt>
<trkpt lat="29.552256" lon="98.312495">
<time>2016-10-07T16:56:59Z</time></trkpt>
<trkpt lat="29.552256" lon="98.312405">
<time>2016-10-07T16:57:00Z</time></trkpt>
<trkpt lat="29.552256" lon="98.312286">
<time>2016-10-07T16:57:01Z</time></trkpt>
<trkpt lat="29.552256" lon="98.312216">
<time>2016-10-07T16:57:02Z</time></trkpt>
<trkpt lat="29.552246" lon="98.312126">
<time>2016-10-07T16:57:03Z</time></trkpt>
<trkpt lat="29.552217" lon="98.311936">
<time>2016-10-07T16:57:04Z</time></trkpt>
<trkpt lat="29.552187" lon="98.311757">
<time>2016-10-07T16:57:05Z</time></trkpt>
<trkpt lat="29.552147" lon="98.311587">
<time>2016-10-07T16:57:06Z</time></trkpt>
<trkpt lat="29.552118" lon="98.311338">
<time>2016-10-07T16:57:07Z</time></trkpt>
<trkpt lat="29.552088" lon="98.310998">
<time>2016-10-07T16:57:08Z</time></trkpt>
<trkpt lat="29.552079" lon="98.310809">
<time>2016-10-07T16:57:09Z</time></trkpt>
<trkpt lat="29.552069" lon="98.310629">
<time>2016-10-07T16:57:10Z</time></trkpt>
<trkpt lat="29.552069" lon="98.310569">
<time>2016-10-07T16:57:11Z</time></trkpt>
<trkpt lat="29.552059" lon="98.310499">
<time>2016-10-07T16:57:12Z</time></trkpt>
<trkpt lat="29.552049" lon="98.310459">
<time>2016-10-07T16:57:13Z</time></trkpt>
<trkpt lat="29.55204" lon="98.31043">
<time>2016-10-07T16:57:14Z</time></trkpt>
<trkpt lat="29.55201" lon="98.31035">
<time>2016-10-07T16:57:15Z</time></trkpt>
<trkpt lat="29.55197" lon="98.31028">
<time>2016-10-07T16:57:16Z</time></trkpt>
<trkpt lat="29.55194" lon="98.31022">
<time>2016-10-07T16:57:17Z</time></trkpt>
<trkpt lat="29.55192" lon="98.31018">
<time>2016-10-07T16:57:18Z</time></trkpt>
<trkpt lat="29.55188" lon="98.31011">
<time>2016-10-07T16:57:19Z</time></trkpt>
<trkpt lat="29.55186" lon="98.31007">
<time>2016-10-07T16:57:20Z</time></trkpt>
<trkpt lat="29.55181" lon="98.30999">
<time>2016-10-07T16:57:21Z</time></trkpt>
<trkpt lat="29.551771" lon="98.309941">
<time>2016-10-07T16:57:22Z</time></trkpt>
<trkpt lat="29.551711" lon="98.309871">
<time>2016-10-07T16:57:23Z</time></trkpt>
<trkpt lat="29.551661" lon="98.309821">
<time>2016-10-07T16:57:24Z</time></trkpt>
<trkpt lat="29.551631" lon="98.309801">
<time>2016-10-07T16:57:25Z</time></trkpt>
<trkpt lat="29.551591" lon="98.309761">
<time>2016-10-07T16:57:26Z</time></trkpt>
<trkpt lat="29.551561" lon="98.309741">
<time>2016-10-07T16:57:27Z</time></trkpt>
<trkpt lat="29.551501" lon="98.309701">
<time>2016-10-07T16:57:28Z</time></trkpt>
<trkpt lat="29.551431" lon="98.309651">
<time>2016-10-07T16:57:29Z</time></trkpt>
<trkpt lat="29.551361" lon="98.309601">
<time>2016-10-07T16:57:30Z</time></trkpt>
<trkpt lat="29.551311" lon="98.309571">
<time>2016-10-07T16:57:31Z</time></trkpt>
<trkpt lat="29.551251" lon="98.309531">
<time>2016-10-07T16:57:32Z</time></trkpt>
<trkpt lat="29.551221" lon="98.309502">
<time>2016-10-07T16:57:33Z</time></trkpt>
<trkpt lat="29.551202" lon="98.309472">
<time>2016-10-07T16:57:34Z</time></trkpt>
<trkpt lat="29.551162" lon="98.309412">
<time>2016-10-07T16:57:35Z</time></trkpt>
<trkpt lat="29.551142" lon="98.309372">
<time>2016-10-07T16:57:36Z</time></trkpt>
<trkpt lat="29.551132" lon="98.309332">
<time>2016-10-07T16:57:37Z</time></trkpt>
<trkpt lat="29.551102" lon="98.309242">
<time>2016-10-07T16:57:38Z</time></trkpt>
<trkpt lat="29.551082" lon="98.309152">
<time>2016-10-07T16:57:39Z</time></trkpt>
<trkpt lat="29.551052" lon="98.309072">
<time>2016-10-07T16:57:40Z</time></trkpt>
<trkpt lat="29.551012" lon="98.308993">
<time>2016-10-07T16:57:41Z</time></trkpt>
<trkpt lat="29.550963" lon="98.308903">
<time>2016-10-07T16:57:42Z</time></trkpt>
<trkpt lat="29.550913" lon="98.308843">
<time>2016-10-07T16:57:43Z</time></trkpt>
<trkpt lat="29.550883" lon="98.308813">
<time>2016-10-07T16:57:44Z</time></trkpt>
<trkpt lat="29.550833" lon="98.308763">
<time>2016-10-07T16:57:45Z</time></trkpt>
<trkpt lat="29.550793" lon="98.308733">
<time>2016-10-07T16:57:46Z</time></trkpt>
<trkpt lat="29.550733" lon="98.308693">
<time>2016-10-07T16:57:47Z</time></trkpt>
<trkpt lat="29.550693" lon="98.308663">
<time>2016-10-07T16:57:48Z</time></trkpt>
<trkpt lat="29.550643" lon="98.308613">
<time>2016-10-07T16:57:49Z</time></trkpt>
<trkpt lat="29.550633" lon="98.308593">
<time>2016-10-07T16:57:50Z</time></trkpt>
<trkpt lat="29.550603" lon="98.308554">
<time>2016-10-07T16:57:51Z</time></trkpt>
<trkpt lat="29.550593" lon="98.308514">
<time>2016-10-07T16:57:52Z</time></trkpt>
<trkpt lat="29.550584" lon="98.308484">
<time>2016-10-07T16:57:53Z</time></trkpt>
<trkpt lat="29.550584" lon="98.308444">
<time>2016-10-07T16:57:54Z</time></trkpt>
<trkpt lat="29.550574" lon="98.308394">
<time>2016-10-07T16:57:55Z</time></trkpt>
<trkpt lat="29.550574" lon="98.308364">
<time>2016-10-07T16:57:56Z</time></trkpt>
<trkpt lat="29.550564" lon="98.308314">
<time>2016-10-07T16:57:57Z</time></trkpt>
<trkpt lat="29.550544" lon="98.308264">
<time>2016-10-07T16:57:58Z</time></trkpt>
<trkpt lat="29.550524" lon="98.308214">
<time>2016-10-07T16:57:59Z</time></trkpt>
<trkpt lat="29.550514" lon="98.308184">
<time>2016-10-07T16:58:00Z</time></trkpt>
<trkpt lat="29.550474" lon="98.308124">
<time>2016-10-07T16:58:01Z</time></trkpt>
<trkpt lat="29.550434" lon="98.308065">
<time>2016-10-07T16:58:02Z</time></trkpt>
<trkpt lat="29.550374" lon="98.307995">
<time>2016-10-07T16:58:03Z</time></trkpt>
<trkpt lat="29.550345" lon="98.307965">
<time>2016-10-07T16:58:04Z</time></trkpt>
<trkpt lat="29.550305" lon="98.307905">
<time>2016-10-07T16:58:05Z</time></trkpt>
<trkpt lat="29.550285" lon="98.307875">
<time>2016-10-07T16:58:06Z</time></trkpt>
<trkpt lat="29.550255" lon="98.307845">
<time>2016-10-07T16:58:07Z</time></trkpt>
<trkpt lat="29.550245" lon="98.307815">
<time>2016-10-07T16:58:08Z</time></trkpt>
<trkpt lat="29.550235" lon="98.307785">
<time>2016-10-07T16:58:09Z</time></trkpt>
<trkpt lat="29.550225" lon="98.307755">
<time>2016-10-07T16:58:10Z</time></trkpt>
<trkpt lat="29.550225" lon="98.307705">
<time>2016-10-07T16:58:11Z</time></trkpt>
<trkpt lat="29.550225" lon="98.307665">
<time>2016-10-07T16:58:12Z</time></trkpt>
<trkpt lat="29.550225" lon="98.307625">
<time>2016-10-07T16:58:13Z</time></trkpt>
<trkpt lat="29.550235" lon="98.307576">
<time>2016-10-07T16:58:14Z</time></trkpt>
<trkpt lat="29.550245" lon="98.307526">
<time>2016-10-07T16:58:15Z</time></trkpt>
<trkpt lat="29.550255" lon="98.307456">
<time>2016-10-07T16:58:16Z</time></trkpt>
<trkpt lat="29.550266" lon="98.307416">
<time>2016-10-07T16:58:17Z</time></trkpt>
<trkpt lat="29.550276" lon="98.307376">
<time>2016-10-07T16:58:18Z</time></trkpt>
<trkpt lat="29.550276" lon="98.307346">
<time>2016-10-07T16:58:19Z</time></trkpt>
<trkpt lat="29.550276" lon="98.307326">
<time>2016-10-07T16:58:20Z</time></trkpt>
<trkpt lat="29.550276" lon="98.307276">
<time>2016-10-07T16:58:21Z</time></trkpt>
<trkpt lat="29.550276" lon="98.307246">
<time>2016-10-07T16:58:22Z</time></trkpt>
<trkpt lat="29.550266" lon="98.307226">
<time>2016-10-07T16:58:23Z</time></trkpt>
<trkpt lat="29.550246" lon="98.307176">
<time>2016-10-07T16:58:24Z</time></trkpt>
<trkpt lat="29.550226" lon="98.307137">
<time>2016-10-07T16:58:25Z</time></trkpt>
<trkpt lat="29.550196" lon="98.307117">
<time>2016-10-07T16:58:26Z</time></trkpt>
<trkpt lat="29.550166" lon="98.307087">
<time>2016-10-07T16:58:27Z</time></trkpt>
<trkpt lat="29.550126" lon="98.307057">
<time>2016-10-07T16:58:28Z</time></trkpt>
<trkpt lat="29.550086" lon="98.307037">
<time>2016-10-07T16:58:29Z</time></trkpt>
<trkpt lat="29.550056" lon="98.307027">
<time>2016-10-07T16:58:30Z</time></trkpt>
<trkpt lat="29.549996" lon="98.306997">
<time>2016-10-07T16:58:31Z</time></trkpt>
<trkpt lat="29.549926" lon="98.306977">
<time>2016-10-07T16:58:32Z</time></trkpt>
<trkpt lat="29.549837" lon="98.306957">
<time>2016-10-07T16:58:33Z</time></trkpt>
<trkpt lat="29.549757" lon="98.306927">
<time>2016-10-07T16:58:34Z</time></trkpt>
<trkpt lat="29.549727" lon="98.306907">
<time>2016-10-07T16:58:35Z</time></trkpt>
<trkpt lat="29.549677" lon="98.306867">
<time>2016-10-07T16:58:36Z</time></trkpt>
<trkpt lat="29.549647" lon="98.306837">
<time>2016-10-07T16:58:37Z</time></trkpt>
<trkpt lat="29.549607" lon="98.306787">
<time>2016-10-07T16:58:38Z</time></trkpt>
<trkpt lat="29.549587" lon="98.306757">
<time>2016-10-07T16:58:39Z</time></trkpt>
<trkpt lat="29.549567" lon="98.306717">
<time>2016-10-07T16:58:40Z</time></trkpt>
<trkpt lat="29.549547" lon="98.306687">
<time>2016-10-07T16:58:41Z</time></trkpt>
<trkpt lat="29.549537" lon="98.306658">
<time>2016-10-07T16:58:42Z</time></trkpt>
<trkpt lat="29.549527" lon="98.306598">
<time>2016-10-07T16:58:43Z</time></trkpt>
<trkpt lat="29.549507" lon="98.306478">
<time>2016-10-07T16:58:44Z</time></trkpt>
<trkpt lat="29.549498" lon="98.306328">
<time>2016-10-07T16:58:45Z</time></trkpt>
<trkpt lat="29.549498" lon="98.306258">
<time>2016-10-07T16:58:46Z</time></trkpt>
<trkpt lat="29.549498" lon="98.306169">
<time>2016-10-07T16:58:47Z</time></trkpt>
<trkpt lat="29.549488" lon="98.306059">
<time>2016-10-07T16:58:48Z</time></trkpt>
<trkpt lat="29.549478" lon="98.305989">
<time>2016-10-07T16:58:49Z</time></trkpt>
<trkpt lat="29.549459" lon="98.305889">
<time>2016-10-07T16:58:50Z</time></trkpt>
<trkpt lat="29.549409" lon="98.305759">
<time>2016-10-07T16:58:51Z</time></trkpt>
<trkpt lat="29.549339" lon="98.30556">
<time>2016-10-07T16:58:52Z</time></trkpt>
<trkpt lat="29.549319" lon="98.30548">
<time>2016-10-07T16:58:53Z</time></trkpt>
<trkpt lat="29.549319" lon="98.30543">
<time>2016-10-07T16:58:54Z</time></trkpt>
<trkpt lat="29.549319" lon="98.30538">
<time>2016-10-07T16:58:55Z</time></trkpt>
<trkpt lat="29.54934" lon="98.30533">
<time>2016-10-07T16:58:56Z</time></trkpt>
<trkpt lat="29.54936" lon="98.30528">
<time>2016-10-07T16:58:57Z</time></trkpt>
<trkpt lat="29.54938" lon="98.30524">
<time>2016-10-07T16:58:58Z</time></trkpt>
<trkpt lat="29.54949" lon="98.305081">
<time>2016-10-07T16:58:59Z</time></trkpt>
<trkpt lat="29.5496" lon="98.304941">
<time>2016-10-07T16:59:00Z</time></trkpt>
<trkpt lat="29.54968" lon="98.304841">
<time>2016-10-07T16:59:01Z</time></trkpt>
<trkpt lat="29.54976" lon="98.304771">
<time>2016-10-07T16:59:02Z</time></trkpt>
<trkpt lat="29.54985" lon="98.304701">
<time>2016-10-07T16:59:03Z</time></trkpt>
<trkpt lat="29.54997" lon="98.304642">
<time>2016-10-07T16:59:04Z</time></trkpt>
<trkpt lat="29.550171" lon="98.304552">
<time>2016-10-07T16:59:05Z</time></trkpt>
<trkpt lat="29.550281" lon="98.304502">
<time>2016-10-07T16:59:06Z</time></trkpt>
<trkpt lat="29.550361" lon="98.304452">
<time>2016-10-07T16:59:07Z</time></trkpt>
<trkpt lat="29.550421" lon="98.304392">
<time>2016-10-07T16:59:08Z</time></trkpt>
<trkpt lat="29.550461" lon="98.304342">
<time>2016-10-07T16:59:09Z</time></trkpt>
<trkpt lat="29.550481" lon="98.304282">
<time>2016-10-07T16:59:10Z</time></trkpt>
<trkpt lat="29.550501" lon="98.304232">
<time>2016-10-07T16:59:11Z</time></trkpt>
<trkpt lat="29.550521" lon="98.304153">
<time>2016-10-07T16:59:12Z</time></trkpt>
<trkpt lat="29.550551" lon="98.304013">
<time>2016-10-07T16:59:13Z</time></trkpt>
<trkpt lat="29.550591" lon="98.303923">
<time>2016-10-07T16:59:14Z</time></trkpt>
<trkpt lat="29.550632" lon="98.303853">
<time>2016-10-07T16:59:15Z</time></trkpt>
<trkpt lat="29.550682" lon="98.303773">
<time>2016-10-07T16:59:16Z</time></trkpt>
<trkpt lat="29.550732" lon="98.303713">
<time>2016-10-07T16:59:17Z</time></trkpt>
<trkpt lat="29.550832" lon="98.303564">
<time>2016-10-07T16:59:18Z</time></trkpt>
<trkpt lat="29.550862" lon="98.303514">
<time>2016-10-07T16:59:19Z</time></trkpt>
<trkpt lat="29.550892" lon="98.303474">
<time>2016-10-07T16:59:20Z</time></trkpt>
<trkpt lat="29.550912" lon="98.303424">
<time>2016-10-07T16:59:21Z</time></trkpt>
<trkpt lat="29.550922" lon="98.303384">
<time>2016-10-07T16:59:22Z</time></trkpt>
<trkpt lat="29.550932" lon="98.303344">
<time>2016-10-07T16:59:23Z</time></trkpt>
<trkpt lat="29.550942" lon="98.303294">
<time>2016-10-07T16:59:24Z</time></trkpt>
<trkpt lat="29.550943" lon="98.303234">
<time>2016-10-07T16:59:25Z</time></trkpt>
<trkpt lat="29.550943" lon="98.303135">
<time>2016-10-07T16:59:26Z</time></trkpt>
<trkpt lat="29.550953" lon="98.303075">
<time>2016-10-07T16:59:27Z</time></trkpt>
<trkpt lat="29.550963" lon="98.303035">
<time>2016-10-07T16:59:28Z</time></trkpt>
<trkpt lat="29.550973" lon="98.303005">
<time>2016-10-07T16:59:29Z</time></trkpt>
<trkpt lat="29.550993" lon="98.302965">
<time>2016-10-07T16:59:30Z</time></trkpt>
<trkpt lat="29.551033" lon="98.302895">
<time>2016-10-07T16:59:31Z</time></trkpt>
<trkpt lat="29.551083" lon="98.302825">
<time>2016-10-07T16:59:32Z</time></trkpt>
<trkpt lat="29.551183" lon="98.302735">
<time>2016-10-07T16:59:33Z</time></trkpt>
<trkpt lat="29.551273" lon="98.302636">
<time>2016-10-07T16:59:34Z</time></trkpt>
<trkpt lat="29.551313" lon="98.302576">
<time>2016-10-07T16:59:35Z</time></trkpt>
<trkpt lat="29.551354" lon="98.302496">
<time>2016-10-07T16:59:36Z</time></trkpt>
<trkpt lat="29.551384" lon="98.302426">
<time>2016-10-07T16:59:37Z</time></trkpt>
<trkpt lat="29.551414" lon="98.302356">
<time>2016-10-07T16:59:38Z</time></trkpt>
<trkpt lat="29.551424" lon="98.302276">
<time>2016-10-07T16:59:39Z</time></trkpt>
<trkpt lat="29.551444" lon="98.302176">
<time>2016-10-07T16:59:40Z</time></trkpt>
<trkpt lat="29.551444" lon="98.302107">
<time>2016-10-07T16:59:41Z</time></trkpt>
<trkpt lat="29.551454" lon="98.301987">
<time>2016-10-07T16:59:42Z</time></trkpt>
<trkpt lat="29.551455" lon="98.301907">
<time>2016-10-07T16:59:43Z</time></trkpt>
<trkpt lat="29.551465" lon="98.301807">
<time>2016-10-07T16:59:44Z</time></trkpt>
<trkpt lat="29.551465" lon="98.301767">
<time>2016-10-07T16:59:45Z</time></trkpt>
<trkpt lat="29.551475" lon="98.301727">
<time>2016-10-07T16:59:46Z</time></trkpt>
<trkpt lat="29.551485" lon="98.301687">
<time>2016-10-07T16:59:47Z</time></trkpt>
<trkpt lat="29.551505" lon="98.301648">
<time>2016-10-07T16:59:48Z</time></trkpt>
<trkpt lat="29.551525" lon="98.301608">
<time>2016-10-07T16:59:49Z</time></trkpt>
<trkpt lat="29.551565" lon="98.301578">
<time>2016-10-07T16:59:50Z</time></trkpt>
<trkpt lat="29.551605" lon="98.301548">
<time>2016-10-07T16:59:51Z</time></trkpt>
<trkpt lat="29.551655" lon="98.301528">
<time>2016-10-07T16:59:52Z</time></trkpt>
<trkpt lat="29.551715" lon="98.301498">
<time>2016-10-07T16:59:53Z</time></trkpt>
<trkpt lat="29.551795" lon="98.301448">
<time>2016-10-07T16:59:54Z</time></trkpt>
<trkpt lat="29.551885" lon="98.301398">
<time>2016-10-07T16:59:55Z</time></trkpt>
<trkpt lat="29.551955" lon="98.301348">
<time>2016-10-07T16:59:56Z</time></trkpt>
<trkpt lat="29.552146" lon="98.301178">
<time>2016-10-07T16:59:57Z</time></trkpt>
<trkpt lat="29.552216" lon="98.301109">
<time>2016-10-07T16:59:58Z</time></trkpt>
<trkpt lat="29.552236" lon="98.301099">
<time>2016-10-07T16:59:59Z</time></trkpt>
<trkpt lat="29.552276" lon="98.301049">
<time>2016-10-07T17:00:00Z</time></trkpt>
<trkpt lat="29.552286" lon="98.301019">
<time>2016-10-07T17:00:01Z</time></trkpt>
<trkpt lat="29.552316" lon="98.300969">
<time>2016-10-07T17:00:02Z</time></trkpt>
<trkpt lat="29.552326" lon="98.300919">
<time>2016-10-07T17:00:03Z</time></trkpt>
<trkpt lat="29.552336" lon="98.300869">
<time>2016-10-07T17:00:04Z</time></trkpt>
<trkpt lat="29.552336" lon="98.300819">
<time>2016-10-07T17:00:05Z</time></trkpt>
<trkpt lat="29.552326" lon="98.300789">
<time>2016-10-07T17:00:06Z</time></trkpt>
<trkpt lat="29.552316" lon="98.300719">
<time>2016-10-07T17:00:07Z</time></trkpt>
<trkpt lat="29.552286" lon="98.30061">
<time>2016-10-07T17:00:08Z</time></trkpt>
<trkpt lat="29.552247" lon="98.3005">
<time>2016-10-07T17:00:09Z</time></trkpt>
<trkpt lat="29.552227" lon="98.30043">
<time>2016-10-07T17:00:10Z</time></trkpt>
<trkpt lat="29.552197" lon="98.30028">
<time>2016-10-07T17:00:11Z</time></trkpt>
<trkpt lat="29.552157" lon="98.300021">
<time>2016-10-07T17:00:12Z</time></trkpt>
<trkpt lat="29.552118" lon="98.299801">
<time>2016-10-07T17:00:13Z</time></trkpt>
<trkpt lat="29.552118" lon="98.299741">
<time>2016-10-07T17:00:14Z</time></trkpt>
<trkpt lat="29.552118" lon="98.299641">
<time>2016-10-07T17:00:15Z</time></trkpt>
<trkpt lat="29.552128" lon="98.299562">
<time>2016-10-07T17:00:16Z</time></trkpt>
<trkpt lat="29.552148" lon="98.299492">
<time>2016-10-07T17:00:17Z</time></trkpt>
<trkpt lat="29.552178" lon="98.299432">
<time>2016-10-07T17:00:18Z</time></trkpt>
<trkpt lat="29.552259" lon="98.299262">
<time>2016-10-07T17:00:19Z</time></trkpt>
<trkpt lat="29.552369" lon="98.299023">
<time>2016-10-07T17:00:20Z</time></trkpt>
<trkpt lat="29.552489" lon="98.298783">
<time>2016-10-07T17:00:21Z</time></trkpt>
<trkpt lat="29.552539" lon="98.298673">
<time>2016-10-07T17:00:22Z</time></trkpt>
<trkpt lat="29.55255" lon="98.298623">
<time>2016-10-07T17:00:23Z</time></trkpt>
<trkpt lat="29.55256" lon="98.298583">
<time>2016-10-07T17:00:24Z</time></trkpt>
<trkpt lat="29.55257" lon="98.298543">
<time>2016-10-07T17:00:25Z</time></trkpt>
<trkpt lat="29.55257" lon="98.298504">
<time>2016-10-07T17:00:26Z</time></trkpt>
<trkpt lat="29.55257" lon="98.298454">
<time>2016-10-07T17:00:27Z</time></trkpt>
<trkpt lat="29.55256" lon="98.298404">
<time>2016-10-07T17:00:28Z</time></trkpt>
<trkpt lat="29.55253" lon="98.298324">
<time>2016-10-07T17:00:29Z</time></trkpt>
<trkpt lat="29.55249" lon="98.298224">
<time>2016-10-07T17:00:30Z</time></trkpt>
<trkpt lat="29.55242" lon="98.298084">
<time>2016-10-07T17:00:31Z</time></trkpt>
<trkpt lat="29.552311" lon="98.297875">
<time>2016-10-07T17:00:32Z</time></trkpt>
<trkpt lat="29.552291" lon="98.297825">
<time>2016-10-07T17:00:33Z</time></trkpt>
<trkpt lat="29.552271" lon="98.297735">
<time>2016-10-07T17:00:34Z</time></trkpt>
<trkpt lat="29.552261" lon="98.297675">
<time>2016-10-07T17:00:35Z</time></trkpt>
<trkpt lat="29.552261" lon="98.297615">
<time>2016-10-07T17:00:36Z</time></trkpt>
<trkpt lat="29.552261" lon="98.297565">
<time>2016-10-07T17:00:37Z</time></trkpt>
<trkpt lat="29.552281" lon="98.297495">
<time>2016-10-07T17:00:38Z</time></trkpt>
<trkpt lat="29.552301" lon="98.297445">
<time>2016-10-07T17:00:39Z</time></trkpt>
<trkpt lat="29.552322" lon="98.297376">
<time>2016-10-07T17:00:40Z</time></trkpt>
<trkpt lat="29.552362" lon="98.297296">
<time>2016-10-07T17:00:41Z</time></trkpt>
<trkpt lat="29.552392" lon="98.297196">
<time>2016-10-07T17:00:42Z</time></trkpt>
<trkpt lat="29.552432" lon="98.297086">
<time>2016-10-07T17:00:43Z</time></trkpt>
<trkpt lat="29.552452" lon="98.297016">
<time>2016-10-07T17:00:44Z</time></trkpt>
<trkpt lat="29.552452" lon="98.296956">
<time>2016-10-07T17:00:45Z</time></trkpt>
<trkpt lat="29.552462" lon="98.296906">
<time>2016-10-07T17:00:46Z</time></trkpt>
<trkpt lat="29.552452" lon="98.296857">
<time>2016-10-07T17:00:47Z</time></trkpt>
<trkpt lat="29.552442" lon="98.296817">
<time>2016-10-07T17:00:48Z</time></trkpt>
<trkpt lat="29.552413" lon="98.296747">
<time>2016-10-07T17:00:49Z</time></trkpt>
<trkpt lat="29.552343" lon="98.296657">
<time>2016-10-07T17:00:50Z</time></trkpt>
<trkpt lat="29.552273" lon="98.296547">
<time>2016-10-07T17:00:51Z</time></trkpt>
<trkpt lat="29.552193" lon="98.296447">
<time>2016-10-07T17:00:52Z</time></trkpt>
<trkpt lat="29.552143" lon="98.296377">
<time>2016-10-07T17:00:53Z</time></trkpt>
<trkpt lat="29.552093" lon="98.296288">
<time>2016-10-07T17:00:54Z</time></trkpt>
<trkpt lat="29.552063" lon="98.296228">
<time>2016-10-07T17:00:55Z</time></trkpt>
<trkpt lat="29.552034" lon="98.296148">
<time>2016-10-07T17:00:56Z</time></trkpt>
<trkpt lat="29.552004" lon="98.296028">
<time>2016-10-07T17:00:57Z</time></trkpt>
<trkpt lat="29.551984" lon="98.295938">
<time>2016-10-07T17:00:58Z</time></trkpt>
<trkpt lat="29.551964" lon="98.295858">
<time>2016-10-07T17:00:59Z</time></trkpt>
<trkpt lat="29.551934" lon="98.295808">
<time>2016-10-07T17:01:00Z</time></trkpt>
<trkpt lat="29.551904" lon="98.295759">
<time>2016-10-07T17:01:01Z</time></trkpt>
<trkpt lat="29.551864" lon="98.295709">
<time>2016-10-07T17:01:02Z</time></trkpt>
<trkpt lat="29.551774" lon="98.295619">
<time>2016-10-07T17:01:03Z</time></trkpt>
<trkpt lat="29.551695" lon="98.295539">
<time>2016-10-07T17:01:04Z</time></trkpt>
<trkpt lat="29.551575" lon="98.295439">
<time>2016-10-07T17:01:05Z</time></trkpt>
<trkpt lat="29.551465" lon="98.295349">
<time>2016-10-07T17:01:06Z</time></trkpt>
<trkpt lat="29.551375" lon="98.295269">
<time>2016-10-07T17:01:07Z</time></trkpt>
<trkpt lat="29.551315" lon="98.29522">
<time>2016-10-07T17:01:08Z</time></trkpt>
<trkpt lat="29.551255" lon="98.29514">
<time>2016-10-07T17:01:09Z</time></trkpt>
<trkpt lat="29.551225" lon="98.2951">
<time>2016-10-07T17:01:10Z</time></trkpt>
<trkpt lat="29.551186" lon="98.29504">
<time>2016-10-07T17:01:11Z</time></trkpt>
<trkpt lat="29.551146" lon="98.29496">
<time>2016-10-07T17:01:12Z</time></trkpt>
<trkpt lat="29.551136" lon="98.2949">
<time>2016-10-07T17:01:13Z</time></trkpt>
<trkpt lat="29.551126" lon="98.29486">
<time>2016-10-07T17:01:14Z</time></trkpt>
<trkpt lat="29.551126" lon="98.29483">
<time>2016-10-07T17:01:15Z</time></trkpt>
<trkpt lat="29.551126" lon="98.29476">
<time>2016-10-07T17:01:16Z</time></trkpt>
<trkpt lat="29.551136" lon="98.29471">
<time>2016-10-07T17:01:17Z</time></trkpt>
<trkpt lat="29.551176" lon="98.294621">
<time>2016-10-07T17:01:18Z</time></trkpt>
<trkpt lat="29.551226" lon="98.294511">
<time>2016-10-07T17:01:19Z</time></trkpt>
<trkpt lat="29.551246" lon="98.294431">
<time>2016-10-07T17:01:20Z</time></trkpt>
<trkpt lat="29.551247" lon="98.294351">
<time>2016-10-07T17:01:21Z</time></trkpt>
<trkpt lat="29.551247" lon="98.294311">
<time>2016-10-07T17:01:22Z</time></trkpt>
<trkpt lat="29.551237" lon="98.294261">
<time>2016-10-07T17:01:23Z</time></trkpt>
<trkpt lat="29.551227" lon="98.294201">
<time>2016-10-07T17:01:24Z</time></trkpt>
<trkpt lat="29.551177" lon="98.294072">
<time>2016-10-07T17:01:25Z</time></trkpt>
<trkpt lat="29.551137" lon="98.293962">
<time>2016-10-07T17:01:26Z</time></trkpt>
<trkpt lat="29.551067" lon="98.293812">
<time>2016-10-07T17:01:27Z</time></trkpt>
<trkpt lat="29.551008" lon="98.293692">
<time>2016-10-07T17:01:28Z</time></trkpt>
<trkpt lat="29.550968" lon="98.293622">
<time>2016-10-07T17:01:29Z</time></trkpt>
<trkpt lat="29.550908" lon="98.293543">
<time>2016-10-07T17:01:30Z</time></trkpt>
<trkpt lat="29.550858" lon="98.293503">
<time>2016-10-07T17:01:31Z</time></trkpt>
<trkpt lat="29.550818" lon="98.293483">
<time>2016-10-07T17:01:32Z</time></trkpt>
<trkpt lat="29.550778" lon="98.293453">
<time>2016-10-07T17:01:33Z</time></trkpt>
<trkpt lat="29.550728" lon="98.293433">
<time>2016-10-07T17:01:34Z</time></trkpt>
<trkpt lat="29.550678" lon="98.293423">
<time>2016-10-07T17:01:35Z</time></trkpt>
<trkpt lat="29.550568" lon="98.293393">
<time>2016-10-07T17:01:36Z</time></trkpt>
<trkpt lat="29.550438" lon="98.293383">
<time>2016-10-07T17:01:37Z</time></trkpt>
<trkpt lat="29.550308" lon="98.293363">
<time>2016-10-07T17:01:38Z</time></trkpt>
<trkpt lat="29.550228" lon="98.293343">
<time>2016-10-07T17:01:39Z</time></trkpt>
<trkpt lat="29.550189" lon="98.293323">
<time>2016-10-07T17:01:40Z</time></trkpt>
<trkpt lat="29.550149" lon="98.293313">
<time>2016-10-07T17:01:41Z</time></trkpt>
<trkpt lat="29.550099" lon="98.293263">
<time>2016-10-07T17:01:42Z</time></trkpt>
<trkpt lat="29.550079" lon="98.293213">
<time>2016-10-07T17:01:43Z</time></trkpt>
<trkpt lat="29.550059" lon="98.293163">
<time>2016-10-07T17:01:44Z</time></trkpt>
<trkpt lat="29.550039" lon="98.293123">
<time>2016-10-07T17:01:45Z</time></trkpt>
<trkpt lat="29.550029" lon="98.293063">
<time>2016-10-07T17:01:46Z</time></trkpt>
<trkpt lat="29.550019" lon="98.293023">
<time>2016-10-07T17:01:47Z</time></trkpt>
<trkpt lat="29.549999" lon="98.292993">
<time>2016-10-07T17:01:48Z</time></trkpt>
<trkpt lat="29.549989" lon="98.292944">
<time>2016-10-07T17:01:49Z</time></trkpt>
<trkpt lat="29.549949" lon="98.292874">
<time>2016-10-07T17:01:50Z</time></trkpt>
<trkpt lat="29.549939" lon="98.292844">
<time>2016-10-07T17:01:51Z</time></trkpt>
<trkpt lat="29.549899" lon="98.292804">
<time>2016-10-07T17:01:52Z</time></trkpt>
<trkpt lat="29.549869" lon="98.292784">
<time>2016-10-07T17:01:53Z</time></trkpt>
<trkpt lat="29.54978" lon="98.292744">
<time>2016-10-07T17:01:54Z</time></trkpt>
<trkpt lat="29.54964" lon="98.292684">
<time>2016-10-07T17:01:55Z</time></trkpt>
<trkpt lat="29.54954" lon="98.292644">
<time>2016-10-07T17:01:56Z</time></trkpt>
<trkpt lat="29.5495" lon="98.292624">
<time>2016-10-07T17:01:57Z</time></trkpt>
<trkpt lat="29.54946" lon="98.292584">
<time>2016-10-07T17:01:58Z</time></trkpt>
<trkpt lat="29.54944" lon="98.292554">
<time>2016-10-07T17:01:59Z</time></trkpt>
<trkpt lat="29.54943" lon="98.292514">
<time>2016-10-07T17:02:00Z</time></trkpt>
<trkpt lat="29.54942" lon="98.292474">
<time>2016-10-07T17:02:01Z</time></trkpt>
<trkpt lat="29.54942" lon="98.292434">
<time>2016-10-07T17:02:02Z</time></trkpt>
<trkpt lat="29.54943" lon="98.292365">
<time>2016-10-07T17:02:03Z</time></trkpt>
<trkpt lat="29.54944" lon="98.292305">
<time>2016-10-07T17:02:04Z</time></trkpt>
<trkpt lat="29.54945" lon="98.292255">
<time>2016-10-07T17:02:05Z</time></trkpt>
<trkpt lat="29.54944" lon="98.292195">
<time>2016-10-07T17:02:06Z</time></trkpt>
<trkpt lat="29.54944" lon="98.292175">
<time>2016-10-07T17:02:07Z</time></trkpt>
<trkpt lat="29.549421" lon="98.292125">
<time>2016-10-07T17:02:08Z</time></trkpt>
<trkpt lat="29.549391" lon="98.292075">
<time>2016-10-07T17:02:09Z</time></trkpt>
<trkpt lat="29.549371" lon="98.292045">
<time>2016-10-07T17:02:10Z</time></trkpt>
<trkpt lat="29.549311" lon="98.291975">
<time>2016-10-07T17:02:11Z</time></trkpt>
<trkpt lat="29.549201" lon="98.291885">
<time>2016-10-07T17:02:12Z</time></trkpt>
<trkpt lat="29.549151" lon="98.291845">
<time>2016-10-07T17:02:13Z</time></trkpt>
<trkpt lat="29.549111" lon="98.291806">
<time>2016-10-07T17:02:14Z</time></trkpt>
<trkpt lat="29.549061" lon="98.291776">
<time>2016-10-07T17:02:15Z</time></trkpt>
<trkpt lat="29.549011" lon="98.291746">
<time>2016-10-07T17:02:16Z</time></trkpt>
<trkpt lat="29.548961" lon="98.291736">
<time>2016-10-07T17:02:17Z</time></trkpt>
<trkpt lat="29.548931" lon="98.291726">
<time>2016-10-07T17:02:18Z</time></trkpt>
<trkpt lat="29.548871" lon="98.291716">
<time>2016-10-07T17:02:19Z</time></trkpt>
<trkpt lat="29.548821" lon="98.291716">
<time>2016-10-07T17:02:20Z</time></trkpt>
<trkpt lat="29.548771" lon="98.291726">
<time>2016-10-07T17:02:21Z</time></trkpt>
<trkpt lat="29.548711" lon="98.291736">
<time>2016-10-07T17:02:22Z</time></trkpt>
<trkpt lat="29.548621" lon="98.291746">
<time>2016-10-07T17:02:23Z</time></trkpt>
<trkpt lat="29.548581" lon="98.291746">
<time>2016-10-07T17:02:24Z</time></trkpt>
<trkpt lat="29.548541" lon="98.291736">
<time>2016-10-07T17:02:25Z</time></trkpt>
<trkpt lat="29.548511" lon="98.291716">
<time>2016-10-07T17:02:26Z</time></trkpt>
<trkpt lat="29.548482" lon="98.291686">
<time>2016-10-07T17:02:27Z</time></trkpt>
<trkpt lat="29.548452" lon="98.291656">
<time>2016-10-07T17:02:28Z</time></trkpt>
<trkpt lat="29.548442" lon="98.291596">
<time>2016-10-07T17:02:29Z</time></trkpt>
<trkpt lat="29.548432" lon="98.291566">
<time>2016-10-07T17:02:30Z</time></trkpt>
<trkpt lat="29.548422" lon="98.291496">
<time>2016-10-07T17:02:31Z</time></trkpt>
<trkpt lat="29.548412" lon="98.291456">
<time>2016-10-07T17:02:32Z</time></trkpt>
<trkpt lat="29.548412" lon="98.291416">
<time>2016-10-07T17:02:33Z</time></trkpt>
<trkpt lat="29.548412" lon="98.291346">
<time>2016-10-07T17:02:34Z</time></trkpt>
<trkpt lat="29.548412" lon="98.291316">
<time>2016-10-07T17:02:35Z</time></trkpt>
<trkpt lat="29.548412" lon="98.291276">
<time>2016-10-07T17:02:36Z</time></trkpt>
<trkpt lat="29.548412" lon="98.291246">
<time>2016-10-07T17:02:37Z</time></trkpt>
<trkpt lat="29.548422" lon="98.291207">
<time>2016-10-07T17:02:38Z</time></trkpt>
<trkpt lat="29.548432" lon="98.291167">
<time>2016-10-07T17:02:39Z</time></trkpt>
<trkpt lat="29.548432" lon="98.291127">
<time>2016-10-07T17:02:40Z</time></trkpt>
<trkpt lat="29.548442" lon="98.291087">
<time>2016-10-07T17:02:41Z</time></trkpt>
<trkpt lat="29.548442" lon="98.291017">
<time>2016-10-07T17:02:42Z</time></trkpt>
<trkpt lat="29.548433" lon="98.290927">
<time>2016-10-07T17:02:43Z</time></trkpt>
<trkpt lat="29.548423" lon="98.290877">
<time>2016-10-07T17:02:44Z</time></trkpt>
<trkpt lat="29.548403" lon="98.290807">
<time>2016-10-07T17:02:45Z</time></trkpt>
<trkpt lat="29.548373" lon="98.290767">
<time>2016-10-07T17:02:46Z</time></trkpt>
<trkpt lat="29.548313" lon="98.290657">
<time>2016-10-07T17:02:47Z</time></trkpt>
<trkpt lat="29.548293" lon="98.290588">
<time>2016-10-07T17:02:48Z</time></trkpt>
<trkpt lat="29.548293" lon="98.290538">
<time>2016-10-07T17:02:49Z</time></trkpt>
<trkpt lat="29.548303" lon="98.290488">
<time>2016-10-07T17:02:50Z</time></trkpt>
<trkpt lat="29.548313" lon="98.290438">
<time>2016-10-07T17:02:51Z</time></trkpt>
<trkpt lat="29.548364" lon="98.290308">
<time>2016-10-07T17:02:52Z</time></trkpt>
<trkpt lat="29.548504" lon="98.290038">
<time>2016-10-07T17:02:53Z</time></trkpt>
<trkpt lat="29.548574" lon="98.289879">
<time>2016-10-07T17:02:54Z</time></trkpt>
<trkpt lat="29.548604" lon="98.289779">
<time>2016-10-07T17:02:55Z</time></trkpt>
<trkpt lat="29.548614" lon="98.289749">
<time>2016-10-07T17:02:56Z</time></trkpt>
<trkpt lat="29.548614" lon="98.289699">
<time>2016-10-07T17:02:57Z</time></trkpt>
<trkpt lat="29.548614" lon="98.289649">
<time>2016-10-07T17:02:58Z</time></trkpt>
<trkpt lat="29.548614" lon="98.289589">
<time>2016-10-07T17:02:59Z</time></trkpt>
<trkpt lat="29.548615" lon="98.289519">
<time>2016-10-07T17:03:00Z</time></trkpt>
<trkpt lat="29.548615" lon="98.289459">
<time>2016-10-07T17:03:01Z</time></trkpt>
<trkpt lat="29.548625" lon="98.289419">
<time>2016-10-07T17:03:02Z</time></trkpt>
<trkpt lat="29.548645" lon="98.28937">
<time>2016-10-07T17:03:03Z</time></trkpt>
<trkpt lat="29.548675" lon="98.2893">
<time>2016-10-07T17:03:04Z</time></trkpt>
<trkpt lat="29.548705" lon="98.28923">
<time>2016-10-07T17:03:05Z</time></trkpt>
<trkpt lat="29.548715" lon="98.28919">
<time>2016-10-07T17:03:06Z</time></trkpt>
<trkpt lat="29.548725" lon="98.28912">
<time>2016-10-07T17:03:07Z</time></trkpt>
<trkpt lat="29.548715" lon="98.28906">
<time>2016-10-07T17:03:08Z</time></trkpt>
<trkpt lat="29.548705" lon="98.289">
<time>2016-10-07T17:03:09Z</time></trkpt>
<trkpt lat="29.548675" lon="98.28894">
<time>2016-10-07T17:03:10Z</time></trkpt>
<trkpt lat="29.548655" lon="98.28888">
<time>2016-10-07T17:03:11Z</time></trkpt>
<trkpt lat="29.548625" lon="98.28883">
<time>2016-10-07T17:03:12Z</time></trkpt>
<trkpt lat="29.548586" lon="98.288761">
<time>2016-10-07T17:03:13Z</time></trkpt>
<trkpt lat="29.548556" lon="98.288711">
<time>2016-10-07T17:03:14Z</time></trkpt>
<trkpt lat="29.548506" lon="98.288641">
<time>2016-10-07T17:03:15Z</time></trkpt>
<trkpt lat="29.548476" lon="98.288591">
<time>2016-10-07T17:03:16Z</time></trkpt>
<trkpt lat="29.548436" lon="98.288551">
<time>2016-10-07T17:03:17Z</time></trkpt>
<trkpt lat="29.548366" lon="98.288461">
<time>2016-10-07T17:03:18Z</time></trkpt>
<trkpt lat="29.548316" lon="98.288421">
<time>2016-10-07T17:03:19Z</time></trkpt>
<trkpt lat="29.548266" lon="98.288391">
<time>2016-10-07T17:03:20Z</time></trkpt>
<trkpt lat="29.548186" lon="98.288331">
<time>2016-10-07T17:03:21Z</time></trkpt>
<trkpt lat="29.548146" lon="98.288301">
<time>2016-10-07T17:03:22Z</time></trkpt>
<trkpt lat="29.548106" lon="98.288261">
<time>2016-10-07T17:03:23Z</time></trkpt>
<trkpt lat="29.548086" lon="98.288241">
<time>2016-10-07T17:03:24Z</time></trkpt>
<trkpt lat="29.548076" lon="98.288211">
<time>2016-10-07T17:03:25Z</time></trkpt>
<trkpt lat="29.548067" lon="98.288181">
<time>2016-10-07T17:03:26Z</time></trkpt>
<trkpt lat="29.548067" lon="98.288141">
<time>2016-10-07T17:03:27Z</time></trkpt>
<trkpt lat="29.548067" lon="98.288102">
<time>2016-10-07T17:03:28Z</time></trkpt>
<trkpt lat="29.548077" lon="98.288072">
<time>2016-10-07T17:03:29Z</time></trkpt>
<trkpt lat="29.548087" lon="98.288042">
<time>2016-10-07T17:03:30Z</time></trkpt>
<trkpt lat="29.548097" lon="98.288012">
<time>2016-10-07T17:03:31Z</time></trkpt>
<trkpt lat="29.548117" lon="98.287992">
<time>2016-10-07T17:03:32Z</time></trkpt>
<trkpt lat="29.548127" lon="98.287962">
<time>2016-10-07T17:03:33Z</time></trkpt>
<trkpt lat="29.548147" lon="98.287932">
<time>2016-10-07T17:03:34Z</time></trkpt>
<trkpt lat="29.548177" lon="98.287902">
<time>2016-10-07T17:03:35Z</time></trkpt>
<trkpt lat="29.548227" lon="98.287842">
<time>2016-10-07T17:03:36Z</time></trkpt>
<trkpt lat="29.548287" lon="98.287802">
<time>2016-10-07T17:03:37Z</time></trkpt>
<trkpt lat="29.548377" lon="98.287752">
<time>2016-10-07T17:03:38Z</time></trkpt>
<trkpt lat="29.548497" lon="98.287702">
<time>2016-10-07T17:03:39Z</time></trkpt>
<trkpt lat="29.548567" lon="98.287662">
<time>2016-10-07T17:03:40Z</time></trkpt>
<trkpt lat="29.548647" lon="98.287592">
<time>2016-10-07T17:03:41Z</time></trkpt>
<trkpt lat="29.548707" lon="98.287532">
<time>2016-10-07T17:03:42Z</time></trkpt>
<trkpt lat="29.548737" lon="98.287483">
<time>2016-10-07T17:03:43Z</time></trkpt>
<trkpt lat="29.548767" lon="98.287423">
<time>2016-10-07T17:03:44Z</time></trkpt>
<trkpt lat="29.548817" lon="98.287313">
<time>2016-10-07T17:03:45Z</time></trkpt>
<trkpt lat="29.548848" lon="98.287193">
<time>2016-10-07T17:03:46Z</time></trkpt>
<trkpt lat="29.548868" lon="98.287093">
<time>2016-10-07T17:03:47Z</time></trkpt>
<trkpt lat="29.548898" lon="98.286953">
<time>2016-10-07T17:03:48Z</time></trkpt>
<trkpt lat="29.548898" lon="98.286873">
<time>2016-10-07T17:03:49Z</time></trkpt>
<trkpt lat="29.548898" lon="98.286764">
<time>2016-10-07T17:03:50Z</time></trkpt>
<trkpt lat="29.548878" lon="98.286664">
<time>2016-10-07T17:03:51Z</time></trkpt>
<trkpt lat="29.548868" lon="98.286584">
<time>2016-10-07T17:03:52Z</time></trkpt>
<trkpt lat="29.548829" lon="98.286464">
<time>2016-10-07T17:03:53Z</time></trkpt>
<trkpt lat="29.548809" lon="98.286394">
<time>2016-10-07T17:03:54Z</time></trkpt>
<trkpt lat="29.548719" lon="98.286155">
<time>2016-10-07T17:03:55Z</time></trkpt>
<trkpt lat="29.548689" lon="98.286085">
<time>2016-10-07T17:03:56Z</time></trkpt>
<trkpt lat="29.548629" lon="98.285975">
<time>2016-10-07T17:03:57Z</time></trkpt>
<trkpt lat="29.548589" lon="98.285915">
<time>2016-10-07T17:03:58Z</time></trkpt>
<trkpt lat="29.548519" lon="98.285845">
<time>2016-10-07T17:03:59Z</time></trkpt>
<trkpt lat="29.54845" lon="98.285795">
<time>2016-10-07T17:04:00Z</time></trkpt>
<trkpt lat="29.54839" lon="98.285755">
<time>2016-10-07T17:04:01Z</time></trkpt>
<trkpt lat="29.54832" lon="98.285725">
<time>2016-10-07T17:04:02Z</time></trkpt>
<trkpt lat="29.54813" lon="98.285655">
<time>2016-10-07T17:04:03Z</time></trkpt>
<trkpt lat="29.54797" lon="98.285595">
<time>2016-10-07T17:04:04Z</time></trkpt>
<trkpt lat="29.54789" lon="98.285565">
<time>2016-10-07T17:04:05Z</time></trkpt>
<trkpt lat="29.54777" lon="98.285515">
<time>2016-10-07T17:04:06Z</time></trkpt>
<trkpt lat="29.54768" lon="98.285476">
<time>2016-10-07T17:04:07Z</time></trkpt>
<trkpt lat="29.54749" lon="98.285356">
<time>2016-10-07T17:04:08Z</time></trkpt>
<trkpt lat="29.547411" lon="98.285306">
<time>2016-10-07T17:04:09Z</time></trkpt>
<trkpt lat="29.547361" lon="98.285286">
<time>2016-10-07T17:04:10Z</time></trkpt>
<trkpt lat="29.547301" lon="98.285266">
<time>2016-10-07T17:04:11Z</time></trkpt>
<trkpt lat="29.547151" lon="98.285236">
<time>2016-10-07T17:04:12Z</time></trkpt>
<trkpt lat="29.547101" lon="98.285216">
<time>2016-10-07T17:04:13Z</time></trkpt>
<trkpt lat="29.547061" lon="98.285196">
<time>2016-10-07T17:04:14Z</time></trkpt>
<trkpt lat="29.547021" lon="98.285166">
<time>2016-10-07T17:04:15Z</time></trkpt>
<trkpt lat="29.546991" lon="98.285116">
<time>2016-10-07T17:04:16Z</time></trkpt>
<trkpt lat="29.546981" lon="98.285076">
<time>2016-10-07T17:04:17Z</time></trkpt>
<trkpt lat="29.546981" lon="98.285056">
<time>2016-10-07T17:04:18Z</time></trkpt>
<trkpt lat="29.546971" lon="98.285026">
<time>2016-10-07T17:04:19Z</time></trkpt>
<trkpt lat="29.546981" lon="98.284986">
<time>2016-10-07T17:04:20Z</time></trkpt>
<trkpt lat="29.547001" lon="98.284906">
<time>2016-10-07T17:04:21Z</time></trkpt>
<trkpt lat="29.547021" lon="98.284827">
<time>2016-10-07T17:04:22Z</time></trkpt>
<trkpt lat="29.547041" lon="98.284727">
<time>2016-10-07T17:04:23Z</time></trkpt>
<trkpt lat="29.547051" lon="98.284647">
<time>2016-10-07T17:04:24Z</time></trkpt>
<trkpt lat="29.547062" lon="98.284497">
<time>2016-10-07T17:04:25Z</time></trkpt>
<trkpt lat="29.547062" lon="98.284307">
<time>2016-10-07T17:04:26Z</time></trkpt>
<trkpt lat="29.547062" lon="98.284267">
<time>2016-10-07T17:04:27Z</time></trkpt>
<trkpt lat="29.547092" lon="98.284148">
<time>2016-10-07T17:04:28Z</time></trkpt>
<trkpt lat="29.547132" lon="98.284028">
<time>2016-10-07T17:04:29Z</time></trkpt>
<trkpt lat="29.547182" lon="98.283878">
<time>2016-10-07T17:04:30Z</time></trkpt>
<trkpt lat="29.547192" lon="98.283798">
<time>2016-10-07T17:04:31Z</time></trkpt>
<trkpt lat="29.547213" lon="98.283738">
<time>2016-10-07T17:04:32Z</time></trkpt>
<trkpt lat="29.547223" lon="98.283648">
<time>2016-10-07T17:04:33Z</time></trkpt>
<trkpt lat="29.547223" lon="98.283538">
<time>2016-10-07T17:04:34Z</time></trkpt>
<trkpt lat="29.547213" lon="98.283419">
<time>2016-10-07T17:04:35Z</time></trkpt>
<trkpt lat="29.547183" lon="98.283309">
<time>2016-10-07T17:04:36Z</time></trkpt>
<trkpt lat="29.547153" lon="98.283209">
<time>2016-10-07T17:04:37Z</time></trkpt>
<trkpt lat="29.547103" lon="98.283069">
<time>2016-10-07T17:04:38Z</time></trkpt>
<trkpt lat="29.547064" lon="98.282949">
<time>2016-10-07T17:04:39Z</time></trkpt>
<trkpt lat="29.547034" lon="98.282859">
<time>2016-10-07T17:04:40Z</time></trkpt>
<trkpt lat="29.547034" lon="98.282759">
<time>2016-10-07T17:04:41Z</time></trkpt>
<trkpt lat="29.547044" lon="98.28269">
<time>2016-10-07T17:04:42Z</time></trkpt>
<trkpt lat="29.547074" lon="98.28262">
<time>2016-10-07T17:04:43Z</time></trkpt>
<trkpt lat="29.547094" lon="98.28257">
<time>2016-10-07T17:04:44Z</time></trkpt>
<trkpt lat="29.547134" lon="98.28252">
<time>2016-10-07T17:04:45Z</time></trkpt>
<trkpt lat="29.547174" lon="98.28246">
<time>2016-10-07T17:04:46Z</time></trkpt>
<trkpt lat="29.547214" lon="98.28242">
<time>2016-10-07T17:04:47Z</time></trkpt>
<trkpt lat="29.547304" lon="98.28234">
<time>2016-10-07T17:04:48Z</time></trkpt>
<trkpt lat="29.547414" lon="98.28226">
<time>2016-10-07T17:04:49Z</time></trkpt>
<trkpt lat="29.547504" lon="98.28217">
<time>2016-10-07T17:04:50Z</time></trkpt>
<trkpt lat="29.547594" lon="98.28208">
<time>2016-10-07T17:04:51Z</time></trkpt>
<trkpt lat="29.547684" lon="98.281981">
<time>2016-10-07T17:04:52Z</time></trkpt>
<trkpt lat="29.547785" lon="98.281871">
<time>2016-10-07T17:04:53Z</time></trkpt>
<trkpt lat="29.547875" lon="98.281791">
<time>2016-10-07T17:04:54Z</time></trkpt>
<trkpt lat="29.547985" lon="98.281721">
<time>2016-10-07T17:04:55Z</time></trkpt>
<trkpt lat="29.548245" lon="98.281581">
<time>2016-10-07T17:04:56Z</time></trkpt>
<trkpt lat="29.548345" lon="98.281521">
<time>2016-10-07T17:04:57Z</time></trkpt>
<trkpt lat="29.548435" lon="98.281451">
<time>2016-10-07T17:04:58Z</time></trkpt>
<trkpt lat="29.548535" lon="98.281331">
<time>2016-10-07T17:04:59Z</time></trkpt>
<trkpt lat="29.548625" lon="98.281182">
<time>2016-10-07T17:05:00Z</time></trkpt>
<trkpt lat="29.548665" lon="98.281122">
<time>2016-10-07T17:05:01Z</time></trkpt>
<trkpt lat="29.548725" lon="98.281042">
<time>2016-10-07T17:05:02Z</time></trkpt>
<trkpt lat="29.548835" lon="98.280942">
<time>2016-10-07T17:05:03Z</time></trkpt>
<trkpt lat="29.549045" lon="98.280812">
<time>2016-10-07T17:05:04Z</time></trkpt>
<trkpt lat="29.549115" lon="98.280752">
<time>2016-10-07T17:05:05Z</time></trkpt>
<trkpt lat="29.549165" lon="98.280712">
<time>2016-10-07T17:05:06Z</time></trkpt>
<trkpt lat="29.549205" lon="98.280672">
<time>2016-10-07T17:05:07Z</time></trkpt>
<trkpt lat="29.549255" lon="98.280602">
<time>2016-10-07T17:05:08Z</time></trkpt>
<trkpt lat="29.549285" lon="98.280552">
<time>2016-10-07T17:05:09Z</time></trkpt>
<trkpt lat="29.549326" lon="98.280472">
<time>2016-10-07T17:05:10Z</time></trkpt>
<trkpt lat="29.549346" lon="98.280423">
<time>2016-10-07T17:05:11Z</time></trkpt>
<trkpt lat="29.549376" lon="98.280363">
<time>2016-10-07T17:05:12Z</time></trkpt>
<trkpt lat="29.549386" lon="98.280313">
<time>2016-10-07T17:05:13Z</time></trkpt>
<trkpt lat="29.549386" lon="98.280243">
<time>2016-10-07T17:05:14Z</time></trkpt>
<trkpt lat="29.549386" lon="98.280203">
<time>2016-10-07T17:05:15Z</time></trkpt>
<trkpt lat="29.549366" lon="98.280163">
<time>2016-10-07T17:05:16Z</time></trkpt>
<trkpt lat="29.549346" lon="98.280123">
<time>2016-10-07T17:05:17Z</time></trkpt>
<trkpt lat="29.549296" lon="98.280073">
<time>2016-10-07T17:05:18Z</time></trkpt>
<trkpt lat="29.549256" lon="98.280043">
<time>2016-10-07T17:05:19Z</time></trkpt>
<trkpt lat="29.548956" lon="98.279903">
<time>2016-10-07T17:05:20Z</time></trkpt>
<trkpt lat="29.548347" lon="98.279624">
<time>2016-10-07T17:05:21Z</time></trkpt>
<trkpt lat="29.548107" lon="98.279514">
<time>2016-10-07T17:05:22Z</time></trkpt>
<trkpt lat="29.547957" lon="98.279444">
<time>2016-10-07T17:05:23Z</time></trkpt>
<trkpt lat="29.547817" lon="98.279384">
<time>2016-10-07T17:05:24Z</time></trkpt>
<trkpt lat="29.547687" lon="98.279344">
<time>2016-10-07T17:05:25Z</time></trkpt>
<trkpt lat="29.547517" lon="98.279314">
<time>2016-10-07T17:05:26Z</time></trkpt>
<trkpt lat="29.547278" lon="98.279264">
<time>2016-10-07T17:05:27Z</time></trkpt>
<trkpt lat="29.547128" lon="98.279244">
<time>2016-10-07T17:05:28Z</time></trkpt>
<trkpt lat="29.547018" lon="98.279234">
<time>2016-10-07T17:05:29Z</time></trkpt>
<trkpt lat="29.546928" lon="98.279214">
<time>2016-10-07T17:05:30Z</time></trkpt>
<trkpt lat="29.546868" lon="98.279194">
<time>2016-10-07T17:05:31Z</time></trkpt>
<trkpt lat="29.546818" lon="98.279164">
<time>2016-10-07T17:05:32Z</time></trkpt>
<trkpt lat="29.546788" lon="98.279134">
<time>2016-10-07T17:05:33Z</time></trkpt>
<trkpt lat="29.546768" lon="98.279104">
<time>2016-10-07T17:05:34Z</time></trkpt>
<trkpt lat="29.546738" lon="98.279064">
<time>2016-10-07T17:05:35Z</time></trkpt>
<trkpt lat="29.546718" lon="98.279014">
<time>2016-10-07T17:05:36Z</time></trkpt>
<trkpt lat="29.546708" lon="98.278974">
<time>2016-10-07T17:05:37Z</time></trkpt>
<trkpt lat="29.546678" lon="98.278915">
<time>2016-10-07T17:05:38Z</time></trkpt>
<trkpt lat="29.546648" lon="98.278855">
<time>2016-10-07T17:05:39Z</time></trkpt>
<trkpt lat="29.546608" lon="98.278815">
<time>2016-10-07T17:05:40Z</time></trkpt>
<trkpt lat="29.546578" lon="98.278785">
<time>2016-10-07T17:05:41Z</time></trkpt>
<trkpt lat="29.546548" lon="98.278765">
<time>2016-10-07T17:05:42Z</time></trkpt>
<trkpt lat="29.546468" lon="98.278735">
<time>2016-10-07T17:05:43Z</time></trkpt>
<trkpt lat="29.546409" lon="98.278715">
<time>2016-10-07T17:05:44Z</time></trkpt>
<trkpt lat="29.546339" lon="98.278675">
<time>2016-10-07T17:05:45Z</time></trkpt>
<trkpt lat="29.546309" lon="98.278655">
<time>2016-10-07T17:05:46Z</time></trkpt>
<trkpt lat="29.546279" lon="98.278615">
<time>2016-10-07T17:05:47Z</time></trkpt>
<trkpt lat="29.546229" lon="98.278515">
<time>2016-10-07T17:05:48Z</time></trkpt>
<trkpt lat="29.546179" lon="98.278405">
<time>2016-10-07T17:05:49Z</time></trkpt>
<trkpt lat="29.546139" lon="98.278345">
<time>2016-10-07T17:05:50Z</time></trkpt>
<trkpt lat="29.546099" lon="98.278305">
<time>2016-10-07T17:05:51Z</time></trkpt>
<trkpt lat="29.546049" lon="98.278265">
<time>2016-10-07T17:05:52Z</time></trkpt>
<trkpt lat="29.545999" lon="98.278235">
<time>2016-10-07T17:05:53Z</time></trkpt>
<trkpt lat="29.545919" lon="98.278205">
<time>2016-10-07T17:05:54Z</time></trkpt>
<trkpt lat="29.545689" lon="98.278125">
<time>2016-10-07T17:05:55Z</time></trkpt>
<trkpt lat="29.545639" lon="98.278116">
<time>2016-10-07T17:05:56Z</time></trkpt>
<trkpt lat="29.545569" lon="98.278086">
<time>2016-10-07T17:05:57Z</time></trkpt>
<trkpt lat="29.54546" lon="98.278026">
<time>2016-10-07T17:05:58Z</time></trkpt>
<trkpt lat="29.54542" lon="98.277996">
<time>2016-10-07T17:05:59Z</time></trkpt>
<trkpt lat="29.54532" lon="98.277926">
<time>2016-10-07T17:06:00Z</time></trkpt>
<trkpt lat="29.54513" lon="98.277766">
<time>2016-10-07T17:06:01Z</time></trkpt>
<trkpt lat="29.54501" lon="98.277666">
<time>2016-10-07T17:06:02Z</time></trkpt>
<trkpt lat="29.54492" lon="98.277566">
<time>2016-10-07T17:06:03Z</time></trkpt>
<trkpt lat="29.54483" lon="98.277476">
<time>2016-10-07T17:06:04Z</time></trkpt>
<trkpt lat="29.54478" lon="98.277416">
<time>2016-10-07T17:06:05Z</time></trkpt>
<trkpt lat="29.544701" lon="98.277287">
<time>2016-10-07T17:06:06Z</time></trkpt>
<trkpt lat="29.544631" lon="98.277157">
<time>2016-10-07T17:06:07Z</time></trkpt>
<trkpt lat="29.544591" lon="98.277057">
<time>2016-10-07T17:06:08Z</time></trkpt>
<trkpt lat="29.544521" lon="98.276847">
<time>2016-10-07T17:06:09Z</time></trkpt>
<trkpt lat="29.544481" lon="98.276747">
<time>2016-10-07T17:06:10Z</time></trkpt>
<trkpt lat="29.544451" lon="98.276687">
<time>2016-10-07T17:06:11Z</time></trkpt>
<trkpt lat="29.544411" lon="98.276607">
<time>2016-10-07T17:06:12Z</time></trkpt>
<trkpt lat="29.544361" lon="98.276557">
<time>2016-10-07T17:06:13Z</time></trkpt>
<trkpt lat="29.544302" lon="98.276507">
<time>2016-10-07T17:06:14Z</time></trkpt>
<trkpt lat="29.544272" lon="98.276487">
<time>2016-10-07T17:06:15Z</time></trkpt>
<trkpt lat="29.544222" lon="98.276457">
<time>2016-10-07T17:06:16Z</time></trkpt>
<trkpt lat="29.544172" lon="98.276438">
<time>2016-10-07T17:06:17Z</time></trkpt>
<trkpt lat="29.544102" lon="98.276408">
<time>2016-10-07T17:06:18Z</time></trkpt>
<trkpt lat="29.544032" lon="98.276388">
<time>2016-10-07T17:06:19Z</time></trkpt>
<trkpt lat="29.543882" lon="98.276348">
<time>2016-10-07T17:06:20Z</time></trkpt>
<trkpt lat="29.543842" lon="98.276328">
<time>2016-10-07T17:06:21Z</time></trkpt>
<trkpt lat="29.543772" lon="98.276288">
<time>2016-10-07T17:06:22Z</time></trkpt>
<trkpt lat="29.543732" lon="98.276258">
<time>2016-10-07T17:06:23Z</time></trkpt>
<trkpt lat="29.543692" lon="98.276218">
<time>2016-10-07T17:06:24Z</time></trkpt>
<trkpt lat="29.543642" lon="98.276158">
<time>2016-10-07T17:06:25Z</time></trkpt>
<trkpt lat="29.543602" lon="98.276088">
<time>2016-10-07T17:06:26Z</time></trkpt>
<trkpt lat="29.543572" lon="98.276008">
<time>2016-10-07T17:06:27Z</time></trkpt>
<trkpt lat="29.543542" lon="98.275888">
<time>2016-10-07T17:06:28Z</time></trkpt>
<trkpt lat="29.543542" lon="98.275848">
<time>2016-10-07T17:06:29Z</time></trkpt>
<trkpt lat="29.543543" lon="98.275788">
<time>2016-10-07T17:06:30Z</time></trkpt>
<trkpt lat="29.543543" lon="98.275738">
<time>2016-10-07T17:06:31Z</time></trkpt>
<trkpt lat="29.543563" lon="98.275648">
<time>2016-10-07T17:06:32Z</time></trkpt>
<trkpt lat="29.543603" lon="98.275539">
<time>2016-10-07T17:06:33Z</time></trkpt>
<trkpt lat="29.543653" lon="98.275409">
<time>2016-10-07T17:06:34Z</time></trkpt>
<trkpt lat="29.543783" lon="98.275129">
<time>2016-10-07T17:06:35Z</time></trkpt>
<trkpt lat="29.543873" lon="98.274919">
<time>2016-10-07T17:06:36Z</time></trkpt>
<trkpt lat="29.543933" lon="98.274799">
<time>2016-10-07T17:06:37Z</time></trkpt>
<trkpt lat="29.543983" lon="98.274669">
<time>2016-10-07T17:06:38Z</time></trkpt>
<trkpt lat="29.544054" lon="98.27448">
<time>2016-10-07T17:06:39Z</time></trkpt>
<trkpt lat="29.544184" lon="98.27402">
<time>2016-10-07T17:06:40Z</time></trkpt>
<trkpt lat="29.544324" lon="98.273511">
<time>2016-10-07T17:06:41Z</time></trkpt>
<trkpt lat="29.544374" lon="98.273341">
<time>2016-10-07T17:06:42Z</time></trkpt>
<trkpt lat="29.544395" lon="98.273221">
<time>2016-10-07T17:06:43Z</time></trkpt>
<trkpt lat="29.544395" lon="98.273161">
<time>2016-10-07T17:06:44Z</time></trkpt>
<trkpt lat="29.544395" lon="98.273101">
<time>2016-10-07T17:06:45Z</time></trkpt>
<trkpt lat="29.544385" lon="98.273061">
<time>2016-10-07T17:06:46Z</time></trkpt>
<trkpt lat="29.544375" lon="98.272991">
<time>2016-10-07T17:06:47Z</time></trkpt>
<trkpt lat="29.544355" lon="98.272931">
<time>2016-10-07T17:06:48Z</time></trkpt>
<trkpt lat="29.544305" lon="98.272791">
<time>2016-10-07T17:06:49Z</time></trkpt>
<trkpt lat="29.544275" lon="98.272712">
<time>2016-10-07T17:06:50Z</time></trkpt>
<trkpt lat="29.544195" lon="98.272512">
<time>2016-10-07T17:06:51Z</time></trkpt>
<trkpt lat="29.544135" lon="98.272362">
<time>2016-10-07T17:06:52Z</time></trkpt>
<trkpt lat="29.544096" lon="98.272242">
<time>2016-10-07T17:06:53Z</time></trkpt>
<trkpt lat="29.544056" lon="98.272142">
<time>2016-10-07T17:06:54Z</time></trkpt>
<trkpt lat="29.544016" lon="98.272032">
<time>2016-10-07T17:06:55Z</time></trkpt>
<trkpt lat="29.543986" lon="98.271902">
<time>2016-10-07T17:06:56Z</time></trkpt>
<trkpt lat="29.543976" lon="98.271812">
<time>2016-10-07T17:06:57Z</time></trkpt>
<trkpt lat="29.543976" lon="98.271653">
<time>2016-10-07T17:06:58Z</time></trkpt>
<trkpt lat="29.543966" lon="98.271493">
<time>2016-10-07T17:06:59Z</time></trkpt>
<trkpt lat="29.543956" lon="98.271413">
<time>2016-10-07T17:07:00Z</time></trkpt>
<trkpt lat="29.543926" lon="98.271333">
<time>2016-10-07T17:07:01Z</time></trkpt>
<trkpt lat="29.543896" lon="98.271273">
<time>2016-10-07T17:07:02Z</time></trkpt>
<trkpt lat="29.543856" lon="98.271233">
<time>2016-10-07T17:07:03Z</time></trkpt>
<trkpt lat="29.543807" lon="98.271183">
<time>2016-10-07T17:07:04Z</time></trkpt>
<trkpt lat="29.543727" lon="98.271103">
<time>2016-10-07T17:07:05Z</time></trkpt>
<trkpt lat="29.543637" lon="98.271043">
<time>2016-10-07T17:07:06Z</time></trkpt>
<trkpt lat="29.543587" lon="98.270993">
<time>2016-10-07T17:07:07Z</time></trkpt>
<trkpt lat="29.543527" lon="98.270943">
<time>2016-10-07T17:07:08Z</time></trkpt>
<trkpt lat="29.543467" lon="98.270883">
<time>2016-10-07T17:07:09Z</time></trkpt>
<trkpt lat="29.543407" lon="98.270823">
<time>2016-10-07T17:07:10Z</time></trkpt>
<trkpt lat="29.543317" lon="98.270713">
<time>2016-10-07T17:07:11Z</time></trkpt>
<trkpt lat="29.543197" lon="98.270564">
<time>2016-10-07T17:07:12Z</time></trkpt>
<trkpt lat="29.543097" lon="98.270474">
<time>2016-10-07T17:07:13Z</time></trkpt>
<trkpt lat="29.543027" lon="98.270414">
<time>2016-10-07T17:07:14Z</time></trkpt>
<trkpt lat="29.542977" lon="98.270384">
<time>2016-10-07T17:07:15Z</time></trkpt>
<trkpt lat="29.542908" lon="98.270354">
<time>2016-10-07T17:07:16Z</time></trkpt>
<trkpt lat="29.542858" lon="98.270344">
<time>2016-10-07T17:07:17Z</time></trkpt>
<trkpt lat="29.542788" lon="98.270324">
<time>2016-10-07T17:07:18Z</time></trkpt>
<trkpt lat="29.542718" lon="98.270314">
<time>2016-10-07T17:07:19Z</time></trkpt>
<trkpt lat="29.542568" lon="98.270324">
<time>2016-10-07T17:07:20Z</time></trkpt>
<trkpt lat="29.542488" lon="98.270324">
<time>2016-10-07T17:07:21Z</time></trkpt>
<trkpt lat="29.542408" lon="98.270324">
<time>2016-10-07T17:07:22Z</time></trkpt>
<trkpt lat="29.542268" lon="98.270354">
<time>2016-10-07T17:07:23Z</time></trkpt>
<trkpt lat="29.542128" lon="98.270394">
<time>2016-10-07T17:07:24Z</time></trkpt>
<trkpt lat="29.541978" lon="98.270434">
<time>2016-10-07T17:07:25Z</time></trkpt>
<trkpt lat="29.541918" lon="98.270454">
<time>2016-10-07T17:07:26Z</time></trkpt>
<trkpt lat="29.541848" lon="98.270464">
<time>2016-10-07T17:07:27Z</time></trkpt>
<trkpt lat="29.541808" lon="98.270464">
<time>2016-10-07T17:07:28Z</time></trkpt>
<trkpt lat="29.541768" lon="98.270454">
<time>2016-10-07T17:07:29Z</time></trkpt>
<trkpt lat="29.541718" lon="98.270444">
<time>2016-10-07T17:07:30Z</time></trkpt>
<trkpt lat="29.541678" lon="98.270414">
<time>2016-10-07T17:07:31Z</time></trkpt>
<trkpt lat="29.541638" lon="98.270384">
<time>2016-10-07T17:07:32Z</time></trkpt>
<trkpt lat="29.541608" lon="98.270344">
<time>2016-10-07T17:07:33Z</time></trkpt>
<trkpt lat="29.541588" lon="98.270304">
<time>2016-10-07T17:07:34Z</time></trkpt>
<trkpt lat="29.541558" lon="98.270264">
<time>2016-10-07T17:07:35Z</time></trkpt>
<trkpt lat="29.541538" lon="98.270214">
<time>2016-10-07T17:07:36Z</time></trkpt>
<trkpt lat="29.541528" lon="98.270164">
<time>2016-10-07T17:07:37Z</time></trkpt>
<trkpt lat="29.541518" lon="98.270084">
<time>2016-10-07T17:07:38Z</time></trkpt>
<trkpt lat="29.541518" lon="98.269964">
<time>2016-10-07T17:07:39Z</time></trkpt>
<trkpt lat="29.541528" lon="98.269814">
<time>2016-10-07T17:07:40Z</time></trkpt>
<trkpt lat="29.541559" lon="98.269674">
<time>2016-10-07T17:07:41Z</time></trkpt>
<trkpt lat="29.541589" lon="98.269545">
<time>2016-10-07T17:07:42Z</time></trkpt>
<trkpt lat="29.541639" lon="98.269425">
<time>2016-10-07T17:07:43Z</time></trkpt>
<trkpt lat="29.541719" lon="98.269235">
<time>2016-10-07T17:07:44Z</time></trkpt>
<trkpt lat="29.541919" lon="98.268745">
<time>2016-10-07T17:07:45Z</time></trkpt>
<trkpt lat="29.541969" lon="98.268635">
<time>2016-10-07T17:07:46Z</time></trkpt>
<trkpt lat="29.542009" lon="98.268495">
<time>2016-10-07T17:07:47Z</time></trkpt>
<trkpt lat="29.542039" lon="98.268425">
<time>2016-10-07T17:07:48Z</time></trkpt>
<trkpt lat="29.542069" lon="98.268316">
<time>2016-10-07T17:07:49Z</time></trkpt>
<trkpt lat="29.542109" lon="98.268096">
<time>2016-10-07T17:07:50Z</time></trkpt>
<trkpt lat="29.54212" lon="98.268006">
<time>2016-10-07T17:07:51Z</time></trkpt>
<trkpt lat="29.54215" lon="98.267806">
<time>2016-10-07T17:07:52Z</time></trkpt>
<trkpt lat="29.54217" lon="98.267726">
<time>2016-10-07T17:07:53Z</time></trkpt>
<trkpt lat="29.5422" lon="98.267486">
<time>2016-10-07T17:07:54Z</time></trkpt>
<trkpt lat="29.54221" lon="98.267376">
<time>2016-10-07T17:07:55Z</time></trkpt>
<trkpt lat="29.54222" lon="98.267256">
<time>2016-10-07T17:07:56Z</time></trkpt>
<trkpt lat="29.54222" lon="98.267126">
<time>2016-10-07T17:07:57Z</time></trkpt>
<trkpt lat="29.54221" lon="98.266917">
<time>2016-10-07T17:07:58Z</time></trkpt>
<trkpt lat="29.54221" lon="98.266727">
<time>2016-10-07T17:07:59Z</time></trkpt>
<trkpt lat="29.54222" lon="98.266677">
<time>2016-10-07T17:08:00Z</time></trkpt>
<trkpt lat="29.54222" lon="98.266627">
<time>2016-10-07T17:08:01Z</time></trkpt>
<trkpt lat="29.54225" lon="98.266547">
<time>2016-10-07T17:08:02Z</time></trkpt>
<trkpt lat="29.542271" lon="98.266497">
<time>2016-10-07T17:08:03Z</time></trkpt>
<trkpt lat="29.542311" lon="98.266447">
<time>2016-10-07T17:08:04Z</time></trkpt>
<trkpt lat="29.542351" lon="98.266397">
<time>2016-10-07T17:08:05Z</time></trkpt>
<trkpt lat="29.542381" lon="98.266367">
<time>2016-10-07T17:08:06Z</time></trkpt>
<trkpt lat="29.542431" lon="98.266337">
<time>2016-10-07T17:08:07Z</time></trkpt>
<trkpt lat="29.542491" lon="98.266277">
<time>2016-10-07T17:08:08Z</time></trkpt>
<trkpt lat="29.542531" lon="98.266247">
<time>2016-10-07T17:08:09Z</time></trkpt>
<trkpt lat="29.542561" lon="98.266207">
<time>2016-10-07T17:08:10Z</time></trkpt>
<trkpt lat="29.542601" lon="98.266167">
<time>2016-10-07T17:08:11Z</time></trkpt>
<trkpt lat="29.542621" lon="98.266117">
<time>2016-10-07T17:08:12Z</time></trkpt>
<trkpt lat="29.542621" lon="98.266087">
<time>2016-10-07T17:08:13Z</time></trkpt>
<trkpt lat="29.542631" lon="98.266057">
<time>2016-10-07T17:08:14Z</time></trkpt>
<trkpt lat="29.542631" lon="98.266017">
<time>2016-10-07T17:08:15Z</time></trkpt>
<trkpt lat="29.542621" lon="98.265957">
<time>2016-10-07T17:08:16Z</time></trkpt>
<trkpt lat="29.542611" lon="98.265907">
<time>2016-10-07T17:08:17Z</time></trkpt>
<trkpt lat="29.542591" lon="98.265867">
<time>2016-10-07T17:08:18Z</time></trkpt>
<trkpt lat="29.542561" lon="98.265817">
<time>2016-10-07T17:08:19Z</time></trkpt>
<trkpt lat="29.542511" lon="98.265738">
<time>2016-10-07T17:08:20Z</time></trkpt>
<trkpt lat="29.542381" lon="98.265538">
<time>2016-10-07T17:08:21Z</time></trkpt>
<trkpt lat="29.542341" lon="98.265468">
<time>2016-10-07T17:08:22Z</time></trkpt>
<trkpt lat="29.542231" lon="98.265308">
<time>2016-10-07T17:08:23Z</time></trkpt>
<trkpt lat="29.542141" lon="98.265168">
<time>2016-10-07T17:08:24Z</time></trkpt>
<trkpt lat="29.542081" lon="98.265078">
<time>2016-10-07T17:08:25Z</time></trkpt>
<trkpt lat="29.542051" lon="98.265008">
<time>2016-10-07T17:08:26Z</time></trkpt>
<trkpt lat="29.542032" lon="98.264968">
<time>2016-10-07T17:08:27Z</time></trkpt>
<trkpt lat="29.542012" lon="98.264898">
<time>2016-10-07T17:08:28Z</time></trkpt>
<trkpt lat="29.542002" lon="98.264858">
<time>2016-10-07T17:08:29Z</time></trkpt>
<trkpt lat="29.542002" lon="98.264808">
<time>2016-10-07T17:08:30Z</time></trkpt>
<trkpt lat="29.542002" lon="98.264758">
<time>2016-10-07T17:08:31Z</time></trkpt>
<trkpt lat="29.542012" lon="98.264708">
<time>2016-10-07T17:08:32Z</time></trkpt>
<trkpt lat="29.542022" lon="98.264648">
<time>2016-10-07T17:08:33Z</time></trkpt>
<trkpt lat="29.542032" lon="98.264598">
<time>2016-10-07T17:08:34Z</time></trkpt>
<trkpt lat="29.542032" lon="98.264538">
<time>2016-10-07T17:08:35Z</time></trkpt>
<trkpt lat="29.542032" lon="98.264508">
<time>2016-10-07T17:08:36Z</time></trkpt>
<trkpt lat="29.542022" lon="98.264468">
<time>2016-10-07T17:08:37Z</time></trkpt>
<trkpt lat="29.542012" lon="98.264438">
<time>2016-10-07T17:08:38Z</time></trkpt>
<trkpt lat="29.541992" lon="98.264418">
<time>2016-10-07T17:08:39Z</time></trkpt>
<trkpt lat="29.541972" lon="98.264398">
<time>2016-10-07T17:08:40Z</time></trkpt>
<trkpt lat="29.541942" lon="98.264388">
<time>2016-10-07T17:08:41Z</time></trkpt>
<trkpt lat="29.541922" lon="98.264388">
<time>2016-10-07T17:08:42Z</time></trkpt>
<trkpt lat="29.541902" lon="98.264388">
<time>2016-10-07T17:08:43Z</time></trkpt>
<trkpt lat="29.541872" lon="98.264398">
<time>2016-10-07T17:08:44Z</time></trkpt>
<trkpt lat="29.541852" lon="98.264418">
<time>2016-10-07T17:08:45Z</time></trkpt>
<trkpt lat="29.541832" lon="98.264438">
<time>2016-10-07T17:08:46Z</time></trkpt>
<trkpt lat="29.541812" lon="98.264468">
<time>2016-10-07T17:08:47Z</time></trkpt>
<trkpt lat="29.541802" lon="98.264498">
<time>2016-10-07T17:08:48Z</time></trkpt>
<trkpt lat="29.541792" lon="98.264538">
<time>2016-10-07T17:08:49Z</time></trkpt>
<trkpt lat="29.541792" lon="98.264568">
<time>2016-10-07T17:08:50Z</time></trkpt>
<trkpt lat="29.541792" lon="98.264598">
<time>2016-10-07T17:08:51Z</time></trkpt>
<trkpt lat="29.541792" lon="98.264628">
<time>2016-10-07T17:08:52Z</time></trkpt>
<trkpt lat="29.541802" lon="98.264678">
<time>2016-10-07T17:08:53Z</time></trkpt>
<trkpt lat="29.541812" lon="98.264718">
<time>2016-10-07T17:08:54Z</time></trkpt>
<trkpt lat="29.541822" lon="98.264768">
<time>2016-10-07T17:08:55Z</time></trkpt>
<trkpt lat="29.541892" lon="98.264968">
<time>2016-10-07T17:08:56Z</time></trkpt>
<trkpt lat="29.541922" lon="98.265058">
<time>2016-10-07T17:08:57Z</time></trkpt>
<trkpt lat="29.541971" lon="98.265188">
<time>2016-10-07T17:08:58Z</time></trkpt>
<trkpt lat="29.542031" lon="98.265298">
<time>2016-10-07T17:08:59Z</time></trkpt>
<trkpt lat="29.542131" lon="98.265508">
<time>2016-10-07T17:09:00Z</time></trkpt>
<trkpt lat="29.542241" lon="98.265728">
<time>2016-10-07T17:09:01Z</time></trkpt>
<trkpt lat="29.542281" lon="98.265797">
<time>2016-10-07T17:09:02Z</time></trkpt>
<trkpt lat="29.542291" lon="98.265857">
<time>2016-10-07T17:09:03Z</time></trkpt>
<trkpt lat="29.542301" lon="98.265907">
<time>2016-10-07T17:09:04Z</time></trkpt>
<trkpt lat="29.542301" lon="98.265977">
<time>2016-10-07T17:09:05Z</time></trkpt>
<trkpt lat="29.542291" lon="98.266017">
<time>2016-10-07T17:09:06Z</time></trkpt>
<trkpt lat="29.542271" lon="98.266057">
<time>2016-10-07T17:09:07Z</time></trkpt>
<trkpt lat="29.542251" lon="98.266097">
<time>2016-10-07T17:09:08Z</time></trkpt>
<trkpt lat="29.542221" lon="98.266127">
<time>2016-10-07T17:09:09Z</time></trkpt>
<trkpt lat="29.542191" lon="98.266157">
<time>2016-10-07T17:09:10Z</time></trkpt>
<trkpt lat="29.542151" lon="98.266187">
<time>2016-10-07T17:09:11Z</time></trkpt>
<trkpt lat="29.542101" lon="98.266207">
<time>2016-10-07T17:09:12Z</time></trkpt>
<trkpt lat="29.541951" lon="98.266237">
<time>2016-10-07T17:09:13Z</time></trkpt>
<trkpt lat="29.541901" lon="98.266257">
<time>2016-10-07T17:09:14Z</time></trkpt>
<trkpt lat="29.541831" lon="98.266287">
<time>2016-10-07T17:09:15Z</time></trkpt>
<trkpt lat="29.541801" lon="98.266317">
<time>2016-10-07T17:09:16Z</time></trkpt>
<trkpt lat="29.541771" lon="98.266357">
<time>2016-10-07T17:09:17Z</time></trkpt>
<trkpt lat="29.541751" lon="98.266387">
<time>2016-10-07T17:09:18Z</time></trkpt>
<trkpt lat="29.541731" lon="98.266427">
<time>2016-10-07T17:09:19Z</time></trkpt>
<trkpt lat="29.541721" lon="98.266457">
<time>2016-10-07T17:09:20Z</time></trkpt>
<trkpt lat="29.541711" lon="98.266517">
<time>2016-10-07T17:09:21Z</time></trkpt>
<trkpt lat="29.541701" lon="98.266587">
<time>2016-10-07T17:09:22Z</time></trkpt>
<trkpt lat="29.541691" lon="98.266787">
<time>2016-10-07T17:09:23Z</time></trkpt>
<trkpt lat="29.54169" lon="98.267246">
<time>2016-10-07T17:09:24Z</time></trkpt>
<trkpt lat="29.54168" lon="98.267526">
<time>2016-10-07T17:09:25Z</time></trkpt>
<trkpt lat="29.54165" lon="98.267726">
<time>2016-10-07T17:09:26Z</time></trkpt>
<trkpt lat="29.54161" lon="98.267916">
<time>2016-10-07T17:09:27Z</time></trkpt>
<trkpt lat="29.54158" lon="98.268036">
<time>2016-10-07T17:09:28Z</time></trkpt>
<trkpt lat="29.54151" lon="98.268196">
<time>2016-10-07T17:09:29Z</time></trkpt>
<trkpt lat="29.54146" lon="98.268296">
<time>2016-10-07T17:09:30Z</time></trkpt>
<trkpt lat="29.54141" lon="98.268386">
<time>2016-10-07T17:09:31Z</time></trkpt>
<trkpt lat="29.541299" lon="98.268585">
<time>2016-10-07T17:09:32Z</time></trkpt>
<trkpt lat="29.541199" lon="98.268755">
<time>2016-10-07T17:09:33Z</time></trkpt>
<trkpt lat="29.541149" lon="98.268855">
<time>2016-10-07T17:09:34Z</time></trkpt>
<trkpt lat="29.541079" lon="98.268995">
<time>2016-10-07T17:09:35Z</time></trkpt>
<trkpt lat="29.541049" lon="98.269075">
<time>2016-10-07T17:09:36Z</time></trkpt>
<trkpt lat="29.541019" lon="98.269155">
<time>2016-10-07T17:09:37Z</time></trkpt>
<trkpt lat="29.540989" lon="98.269255">
<time>2016-10-07T17:09:38Z</time></trkpt>
<trkpt lat="29.540939" lon="98.269445">
<time>2016-10-07T17:09:39Z</time></trkpt>
<trkpt lat="29.540909" lon="98.269594">
<time>2016-10-07T17:09:40Z</time></trkpt>
<trkpt lat="29.540879" lon="98.269854">
<time>2016-10-07T17:09:41Z</time></trkpt>
<trkpt lat="29.540859" lon="98.270024">
<time>2016-10-07T17:09:42Z</time></trkpt>
<trkpt lat="29.540838" lon="98.270174">
<time>2016-10-07T17:09:43Z</time></trkpt>
<trkpt lat="29.540818" lon="98.270344">
<time>2016-10-07T17:09:44Z</time></trkpt>
<trkpt lat="29.540808" lon="98.270424">
<time>2016-10-07T17:09:45Z</time></trkpt>
<trkpt lat="29.540778" lon="98.270674">
<time>2016-10-07T17:09:46Z</time></trkpt>
<trkpt lat="29.540758" lon="98.270883">
<time>2016-10-07T17:09:47Z</time></trkpt>
<trkpt lat="29.540748" lon="98.270993">
<time>2016-10-07T17:09:48Z</time></trkpt>
<trkpt lat="29.540748" lon="98.271033">
<time>2016-10-07T17:09:49Z</time></trkpt>
<trkpt lat="29.540758" lon="98.271063">
<time>2016-10-07T17:09:50Z</time></trkpt>
<trkpt lat="29.540758" lon="98.271113">
<time>2016-10-07T17:09:51Z</time></trkpt>
<trkpt lat="29.540768" lon="98.271143">
<time>2016-10-07T17:09:52Z</time></trkpt>
<trkpt lat="29.540778" lon="98.271173">
<time>2016-10-07T17:09:53Z</time></trkpt>
<trkpt lat="29.540798" lon="98.271223">
<time>2016-10-07T17:09:54Z</time></trkpt>
<trkpt lat="29.540818" lon="98.271253">
<time>2016-10-07T17:09:55Z</time></trkpt>
<trkpt lat="29.540838" lon="98.271283">
<time>2016-10-07T17:09:56Z</time></trkpt>
<trkpt lat="29.540858" lon="98.271303">
<time>2016-10-07T17:09:57Z</time></trkpt>
<trkpt lat="29.540878" lon="98.271323">
<time>2016-10-07T17:09:58Z</time></trkpt>
<trkpt lat="29.540897" lon="98.271353">
<time>2016-10-07T17:09:59Z</time></trkpt>
<trkpt lat="29.540927" lon="98.271373">
<time>2016-10-07T17:10:00Z</time></trkpt>
<trkpt lat="29.540967" lon="98.271403">
<time>2016-10-07T17:10:01Z</time></trkpt>
<trkpt lat="29.540987" lon="98.271413">
<time>2016-10-07T17:10:02Z</time></trkpt>
<trkpt lat="29.541017" lon="98.271433">
<time>2016-10-07T17:10:03Z</time></trkpt>
<trkpt lat="29.541047" lon="98.271443">
<time>2016-10-07T17:10:04Z</time></trkpt>
<trkpt lat="29.541077" lon="98.271453">
<time>2016-10-07T17:10:05Z</time></trkpt>
<trkpt lat="29.541117" lon="98.271463">
<time>2016-10-07T17:10:06Z</time></trkpt>
<trkpt lat="29.541147" lon="98.271473">
<time>2016-10-07T17:10:07Z</time></trkpt>
<trkpt lat="29.541187" lon="98.271483">
<time>2016-10-07T17:10:08Z</time></trkpt>
<trkpt lat="29.541237" lon="98.271483">
<time>2016-10-07T17:10:09Z</time></trkpt>
<trkpt lat="29.541257" lon="98.271493">
<time>2016-10-07T17:10:10Z</time></trkpt>
<trkpt lat="29.541287" lon="98.271493">
<time>2016-10-07T17:10:11Z</time></trkpt>
<trkpt lat="29.541327" lon="98.271503">
<time>2016-10-07T17:10:12Z</time></trkpt>
<trkpt lat="29.541357" lon="98.271503">
<time>2016-10-07T17:10:13Z</time></trkpt>
<trkpt lat="29.541387" lon="98.271513">
<time>2016-10-07T17:10:14Z</time></trkpt>
<trkpt lat="29.541437" lon="98.271523">
<time>2016-10-07T17:10:15Z</time></trkpt>
<trkpt lat="29.541467" lon="98.271543">
<time>2016-10-07T17:10:16Z</time></trkpt>
<trkpt lat="29.541497" lon="98.271553">
<time>2016-10-07T17:10:17Z</time></trkpt>
<trkpt lat="29.541527" lon="98.271563">
<time>2016-10-07T17:10:18Z</time></trkpt>
<trkpt lat="29.541557" lon="98.271583">
<time>2016-10-07T17:10:19Z</time></trkpt>
<trkpt lat="29.541577" lon="98.271593">
<time>2016-10-07T17:10:20Z</time></trkpt>
<trkpt lat="29.541617" lon="98.271613">
<time>2016-10-07T17:10:21Z</time></trkpt>
<trkpt lat="29.541637" lon="98.271633">
<time>2016-10-07T17:10:22Z</time></trkpt>
<trkpt lat="29.541697" lon="98.271693">
<time>2016-10-07T17:10:23Z</time></trkpt>
<trkpt lat="29.541717" lon="98.271733">
<time>2016-10-07T17:10:24Z</time></trkpt>
<trkpt lat="29.541737" lon="98.271752">
<time>2016-10-07T17:10:25Z</time></trkpt>
<trkpt lat="29.541757" lon="98.271792">
<time>2016-10-07T17:10:26Z</time></trkpt>
<trkpt lat="29.541777" lon="98.271852">
<time>2016-10-07T17:10:27Z</time></trkpt>
<trkpt lat="29.541777" lon="98.271892">
<time>2016-10-07T17:10:28Z</time></trkpt>
<trkpt lat="29.541787" lon="98.271942">
<time>2016-10-07T17:10:29Z</time></trkpt>
<trkpt lat="29.541787" lon="98.271972">
<time>2016-10-07T17:10:30Z</time></trkpt>
<trkpt lat="29.541797" lon="98.272012">
<time>2016-10-07T17:10:31Z</time></trkpt>
<trkpt lat="29.541797" lon="98.272052">
<time>2016-10-07T17:10:32Z</time></trkpt>
<trkpt lat="29.541797" lon="98.272102">
<time>2016-10-07T17:10:33Z</time></trkpt>
<trkpt lat="29.541796" lon="98.272162">
<time>2016-10-07T17:10:34Z</time></trkpt>
<trkpt lat="29.541786" lon="98.272262">
<time>2016-10-07T17:10:35Z</time></trkpt>
<trkpt lat="29.541796" lon="98.272392">
<time>2016-10-07T17:10:36Z</time></trkpt>
<trkpt lat="29.541806" lon="98.272502">
<time>2016-10-07T17:10:37Z</time></trkpt>
<trkpt lat="29.541836" lon="98.272612">
<time>2016-10-07T17:10:38Z</time></trkpt>
<trkpt lat="29.541866" lon="98.272662">
<time>2016-10-07T17:10:39Z</time></trkpt>
<trkpt lat="29.541886" lon="98.272702">
<time>2016-10-07T17:10:40Z</time></trkpt>
<trkpt lat="29.541926" lon="98.272762">
<time>2016-10-07T17:10:41Z</time></trkpt>
<trkpt lat="29.541946" lon="98.272791">
<time>2016-10-07T17:10:42Z</time></trkpt>
<trkpt lat="29.541976" lon="98.272811">
<time>2016-10-07T17:10:43Z</time></trkpt>
<trkpt lat="29.542006" lon="98.272841">
<time>2016-10-07T17:10:44Z</time></trkpt>
<trkpt lat="29.542026" lon="98.272871">
<time>2016-10-07T17:10:45Z</time></trkpt>
<trkpt lat="29.542056" lon="98.272891">
<time>2016-10-07T17:10:46Z</time></trkpt>
<trkpt lat="29.542086" lon="98.272941">
<time>2016-10-07T17:10:47Z</time></trkpt>
<trkpt lat="29.542096" lon="98.272971">
<time>2016-10-07T17:10:48Z</time></trkpt>
<trkpt lat="29.542106" lon="98.273001">
<time>2016-10-07T17:10:49Z</time></trkpt>
<trkpt lat="29.542106" lon="98.273031">
<time>2016-10-07T17:10:50Z</time></trkpt>
<trkpt lat="29.542096" lon="98.273061">
<time>2016-10-07T17:10:51Z</time></trkpt>
<trkpt lat="29.542086" lon="98.273091">
<time>2016-10-07T17:10:52Z</time></trkpt>
<trkpt lat="29.542066" lon="98.273111">
<time>2016-10-07T17:10:53Z</time></trkpt>
<trkpt lat="29.542056" lon="98.273121">
<time>2016-10-07T17:10:54Z</time></trkpt>
<trkpt lat="29.542036" lon="98.273131">
<time>2016-10-07T17:10:55Z</time></trkpt>
<trkpt lat="29.542016" lon="98.273141">
<time>2016-10-07T17:10:56Z</time></trkpt>
<trkpt lat="29.541996" lon="98.273141">
<time>2016-10-07T17:10:57Z</time></trkpt>
<trkpt lat="29.541976" lon="98.273141">
<time>2016-10-07T17:10:58Z</time></trkpt>
<trkpt lat="29.541946" lon="98.273131">
<time>2016-10-07T17:10:59Z</time></trkpt>
<trkpt lat="29.541916" lon="98.273121">
<time>2016-10-07T17:11:00Z</time></trkpt>
<trkpt lat="29.541896" lon="98.273101">
<time>2016-10-07T17:11:01Z</time></trkpt>
<trkpt lat="29.541876" lon="98.273071">
<time>2016-10-07T17:11:02Z</time></trkpt>
<trkpt lat="29.541836" lon="98.273011">
<time>2016-10-07T17:11:03Z</time></trkpt>
<trkpt lat="29.541736" lon="98.272821">
<time>2016-10-07T17:11:04Z</time></trkpt>
<trkpt lat="29.541636" lon="98.272632">
<time>2016-10-07T17:11:05Z</time></trkpt>
<trkpt lat="29.541556" lon="98.272472">
<time>2016-10-07T17:11:06Z</time></trkpt>
<trkpt lat="29.541466" lon="98.272292">
<time>2016-10-07T17:11:07Z</time></trkpt>
<trkpt lat="29.541387" lon="98.272092">
<time>2016-10-07T17:11:08Z</time></trkpt>
<trkpt lat="29.541337" lon="98.272002">
<time>2016-10-07T17:11:09Z</time></trkpt>
<trkpt lat="29.541307" lon="98.271942">
<time>2016-10-07T17:11:10Z</time></trkpt>
<trkpt lat="29.541257" lon="98.271872">
<time>2016-10-07T17:11:11Z</time></trkpt>
<trkpt lat="29.541227" lon="98.271832">
<time>2016-10-07T17:11:12Z</time></trkpt>
<trkpt lat="29.541197" lon="98.271802">
<time>2016-10-07T17:11:13Z</time></trkpt>
<trkpt lat="29.541147" lon="98.271772">
<time>2016-10-07T17:11:14Z</time></trkpt>
<trkpt lat="29.541097" lon="98.271743">
<time>2016-10-07T17:11:15Z</time></trkpt>
<trkpt lat="29.541047" lon="98.271723">
<time>2016-10-07T17:11:16Z</time></trkpt>
<trkpt lat="29.540967" lon="98.271693">
<time>2016-10-07T17:11:17Z</time></trkpt>
<trkpt lat="29.540867" lon="98.271663">
<time>2016-10-07T17:11:18Z</time></trkpt>
<trkpt lat="29.540737" lon="98.271623">
<time>2016-10-07T17:11:19Z</time></trkpt>
<trkpt lat="29.540677" lon="98.271613">
<time>2016-10-07T17:11:20Z</time></trkpt>
<trkpt lat="29.540597" lon="98.271583">
<time>2016-10-07T17:11:21Z</time></trkpt>
<trkpt lat="29.540567" lon="98.271573">
<time>2016-10-07T17:11:22Z</time></trkpt>
<trkpt lat="29.540517" lon="98.271553">
<time>2016-10-07T17:11:23Z</time></trkpt>
<trkpt lat="29.540487" lon="98.271533">
<time>2016-10-07T17:11:24Z</time></trkpt>
<trkpt lat="29.540458" lon="98.271503">
<time>2016-10-07T17:11:25Z</time></trkpt>
<trkpt lat="29.540438" lon="98.271493">
<time>2016-10-07T17:11:26Z</time></trkpt>
<trkpt lat="29.540418" lon="98.271463">
<time>2016-10-07T17:11:27Z</time></trkpt>
<trkpt lat="29.540388" lon="98.271443">
<time>2016-10-07T17:11:28Z</time></trkpt>
<trkpt lat="29.540378" lon="98.271413">
<time>2016-10-07T17:11:29Z</time></trkpt>
<trkpt lat="29.540358" lon="98.271393">
<time>2016-10-07T17:11:30Z</time></trkpt>
<trkpt lat="29.540338" lon="98.271353">
<time>2016-10-07T17:11:31Z</time></trkpt>
<trkpt lat="29.540328" lon="98.271313">
<time>2016-10-07T17:11:32Z</time></trkpt>
<trkpt lat="29.540318" lon="98.271233">
<time>2016-10-07T17:11:33Z</time></trkpt>
<trkpt lat="29.540308" lon="98.271143">
<time>2016-10-07T17:11:34Z</time></trkpt>
<trkpt lat="29.540318" lon="98.271073">
<time>2016-10-07T17:11:35Z</time></trkpt>
<trkpt lat="29.540338" lon="98.270993">
<time>2016-10-07T17:11:36Z</time></trkpt>
<trkpt lat="29.540368" lon="98.270813">
<time>2016-10-07T17:11:37Z</time></trkpt>
<trkpt lat="29.540398" lon="98.270624">
<time>2016-10-07T17:11:38Z</time></trkpt>
<trkpt lat="29.540418" lon="98.270494">
<time>2016-10-07T17:11:39Z</time></trkpt>
<trkpt lat="29.540419" lon="98.270284">
<time>2016-10-07T17:11:40Z</time></trkpt>
<trkpt lat="29.540419" lon="98.270104">
<time>2016-10-07T17:11:41Z</time></trkpt>
<trkpt lat="29.540409" lon="98.269994">
<time>2016-10-07T17:11:42Z</time></trkpt>
<trkpt lat="29.540389" lon="98.269884">
<time>2016-10-07T17:11:43Z</time></trkpt>
<trkpt lat="29.540369" lon="98.269774">
<time>2016-10-07T17:11:44Z</time></trkpt>
<trkpt lat="29.540349" lon="98.269724">
<time>2016-10-07T17:11:45Z</time></trkpt>
<trkpt lat="29.540299" lon="98.269555">
<time>2016-10-07T17:11:46Z</time></trkpt>
<trkpt lat="29.540279" lon="98.269495">
<time>2016-10-07T17:11:47Z</time></trkpt>
<trkpt lat="29.540249" lon="98.269375">
<time>2016-10-07T17:11:48Z</time></trkpt>
<trkpt lat="29.540249" lon="98.269265">
<time>2016-10-07T17:11:49Z</time></trkpt>
<trkpt lat="29.540259" lon="98.269095">
<time>2016-10-07T17:11:50Z</time></trkpt>
<trkpt lat="29.54029" lon="98.268855">
<time>2016-10-07T17:11:51Z</time></trkpt>
<trkpt lat="29.54032" lon="98.268645">
<time>2016-10-07T17:11:52Z</time></trkpt>
<trkpt lat="29.54035" lon="98.268425">
<time>2016-10-07T17:11:53Z</time></trkpt>
<trkpt lat="29.54038" lon="98.268216">
<time>2016-10-07T17:11:54Z</time></trkpt>
<trkpt lat="29.5404" lon="98.268076">
<time>2016-10-07T17:11:55Z</time></trkpt>
<trkpt lat="29.54046" lon="98.267886">
<time>2016-10-07T17:11:56Z</time></trkpt>
<trkpt lat="29.54056" lon="98.267546">
<time>2016-10-07T17:11:57Z</time></trkpt>
<trkpt lat="29.540601" lon="98.267366">
<time>2016-10-07T17:11:58Z</time></trkpt>
<trkpt lat="29.540621" lon="98.267226">
<time>2016-10-07T17:11:59Z</time></trkpt>
<trkpt lat="29.540621" lon="98.267156">
<time>2016-10-07T17:12:00Z</time></trkpt>
<trkpt lat="29.540621" lon="98.267057">
<time>2016-10-07T17:12:01Z</time></trkpt>
<trkpt lat="29.540601" lon="98.266917">
<time>2016-10-07T17:12:02Z</time></trkpt>
<trkpt lat="29.540581" lon="98.266787">
<time>2016-10-07T17:12:03Z</time></trkpt>
<trkpt lat="29.540541" lon="98.266607">
<time>2016-10-07T17:12:04Z</time></trkpt>
<trkpt lat="29.540491" lon="98.266457">
<time>2016-10-07T17:12:05Z</time></trkpt>
<trkpt lat="29.540451" lon="98.266337">
<time>2016-10-07T17:12:06Z</time></trkpt>
<trkpt lat="29.540391" lon="98.266147">
<time>2016-10-07T17:12:07Z</time></trkpt>
<trkpt lat="29.540362" lon="98.266047">
<time>2016-10-07T17:12:08Z</time></trkpt>
<trkpt lat="29.540362" lon="98.265987">
<time>2016-10-07T17:12:09Z</time></trkpt>
<trkpt lat="29.540362" lon="98.265947">
<time>2016-10-07T17:12:10Z</time></trkpt>
<trkpt lat="29.540382" lon="98.265877">
<time>2016-10-07T17:12:11Z</time></trkpt>
<trkpt lat="29.540392" lon="98.265827">
<time>2016-10-07T17:12:12Z</time></trkpt>
<trkpt lat="29.540422" lon="98.265778">
<time>2016-10-07T17:12:13Z</time></trkpt>
<trkpt lat="29.540462" lon="98.265708">
<time>2016-10-07T17:12:14Z</time></trkpt>
<trkpt lat="29.540532" lon="98.265588">
<time>2016-10-07T17:12:15Z</time></trkpt>
<trkpt lat="29.540572" lon="98.265508">
<time>2016-10-07T17:12:16Z</time></trkpt>
<trkpt lat="29.540592" lon="98.265448">
<time>2016-10-07T17:12:17Z</time></trkpt>
<trkpt lat="29.540612" lon="98.265358">
<time>2016-10-07T17:12:18Z</time></trkpt>
<trkpt lat="29.540612" lon="98.265318">
<time>2016-10-07T17:12:19Z</time></trkpt>
<trkpt lat="29.540612" lon="98.265238">
<time>2016-10-07T17:12:20Z</time></trkpt>
<trkpt lat="29.540602" lon="98.265188">
<time>2016-10-07T17:12:21Z</time></trkpt>
<trkpt lat="29.540592" lon="98.265128">
<time>2016-10-07T17:12:22Z</time></trkpt>
<trkpt lat="29.540562" lon="98.265068">
<time>2016-10-07T17:12:23Z</time></trkpt>
<trkpt lat="29.540532" lon="98.265018">
<time>2016-10-07T17:12:24Z</time></trkpt>
<trkpt lat="29.540512" lon="98.264978">
<time>2016-10-07T17:12:25Z</time></trkpt>
<trkpt lat="29.540482" lon="98.264918">
<time>2016-10-07T17:12:26Z</time></trkpt>
<trkpt lat="29.540452" lon="98.264868">
<time>2016-10-07T17:12:27Z</time></trkpt>
<trkpt lat="29.540432" lon="98.264768">
<time>2016-10-07T17:12:28Z</time></trkpt>
<trkpt lat="29.540422" lon="98.264668">
<time>2016-10-07T17:12:29Z</time></trkpt>
<trkpt lat="29.540422" lon="98.264548">
<time>2016-10-07T17:12:30Z</time></trkpt>
<trkpt lat="29.540412" lon="98.264418">
<time>2016-10-07T17:12:31Z</time></trkpt>
<trkpt lat="29.540393" lon="98.264289">
<time>2016-10-07T17:12:32Z</time></trkpt>
<trkpt lat="29.540373" lon="98.264169">
<time>2016-10-07T17:12:33Z</time></trkpt>
<trkpt lat="29.540343" lon="98.264049">
<time>2016-10-07T17:12:34Z</time></trkpt>
<trkpt lat="29.540333" lon="98.264009">
<time>2016-10-07T17:12:35Z</time></trkpt>
<trkpt lat="29.540333" lon="98.263949">
<time>2016-10-07T17:12:36Z</time></trkpt>
<trkpt lat="29.540333" lon="98.263889">
<time>2016-10-07T17:12:37Z</time></trkpt>
<trkpt lat="29.540353" lon="98.263839">
<time>2016-10-07T17:12:38Z</time></trkpt>
<trkpt lat="29.540373" lon="98.263779">
<time>2016-10-07T17:12:39Z</time></trkpt>
<trkpt lat="29.540403" lon="98.263719">
<time>2016-10-07T17:12:40Z</time></trkpt>
<trkpt lat="29.540453" lon="98.263629">
<time>2016-10-07T17:12:41Z</time></trkpt>
<trkpt lat="29.540533" lon="98.263509">
<time>2016-10-07T17:12:42Z</time></trkpt>
<trkpt lat="29.540563" lon="98.263429">
<time>2016-10-07T17:12:43Z</time></trkpt>
<trkpt lat="29.540593" lon="98.263339">
<time>2016-10-07T17:12:44Z</time></trkpt>
<trkpt lat="29.540623" lon="98.263209">
<time>2016-10-07T17:12:45Z</time></trkpt>
<trkpt lat="29.540653" lon="98.263009">
<time>2016-10-07T17:12:46Z</time></trkpt>
<trkpt lat="29.540693" lon="98.262819">
<time>2016-10-07T17:12:47Z</time></trkpt>
<trkpt lat="29.540773" lon="98.26255">
<time>2016-10-07T17:12:48Z</time></trkpt>
<trkpt lat="29.540803" lon="98.26243">
<time>2016-10-07T17:12:49Z</time></trkpt>
<trkpt lat="29.540853" lon="98.26229">
<time>2016-10-07T17:12:50Z</time></trkpt>
<trkpt lat="29.540873" lon="98.26224">
<time>2016-10-07T17:12:51Z</time></trkpt>
<trkpt lat="29.540893" lon="98.26219">
<time>2016-10-07T17:12:52Z</time></trkpt>
<trkpt lat="29.540923" lon="98.26215">
<time>2016-10-07T17:12:53Z</time></trkpt>
<trkpt lat="29.540953" lon="98.26209">
<time>2016-10-07T17:12:54Z</time></trkpt>
<trkpt lat="29.541013" lon="98.26203">
<time>2016-10-07T17:12:55Z</time></trkpt>
<trkpt lat="29.541103" lon="98.26194">
<time>2016-10-07T17:12:56Z</time></trkpt>
<trkpt lat="29.541163" lon="98.2619">
<time>2016-10-07T17:12:57Z</time></trkpt>
<trkpt lat="29.541233" lon="98.26184">
<time>2016-10-07T17:12:58Z</time></trkpt>
<trkpt lat="29.541303" lon="98.26177">
<time>2016-10-07T17:12:59Z</time></trkpt>
<trkpt lat="29.541344" lon="98.26172">
<time>2016-10-07T17:13:00Z</time></trkpt>
<trkpt lat="29.541374" lon="98.26167">
<time>2016-10-07T17:13:01Z</time></trkpt>
<trkpt lat="29.541404" lon="98.26162">
<time>2016-10-07T17:13:02Z</time></trkpt>
<trkpt lat="29.541444" lon="98.26154">
<time>2016-10-07T17:13:03Z</time></trkpt>
<trkpt lat="29.541484" lon="98.26143">
<time>2016-10-07T17:13:04Z</time></trkpt>
<trkpt lat="29.541524" lon="98.26132">
<time>2016-10-07T17:13:05Z</time></trkpt>
<trkpt lat="29.541554" lon="98.26122">
<time>2016-10-07T17:13:06Z</time></trkpt>
<trkpt lat="29.541594" lon="98.26114">
<time>2016-10-07T17:13:07Z</time></trkpt>
<trkpt lat="29.541634" lon="98.26108">
<time>2016-10-07T17:13:08Z</time></trkpt>
<trkpt lat="29.541674" lon="98.26102">
<time>2016-10-07T17:13:09Z</time></trkpt>
<trkpt lat="29.541784" lon="98.2609">
<time>2016-10-07T17:13:10Z</time></trkpt>
<trkpt lat="29.541854" lon="98.2608">
<time>2016-10-07T17:13:11Z</time></trkpt>
<trkpt lat="29.541884" lon="98.260741">
<time>2016-10-07T17:13:12Z</time></trkpt>
<trkpt lat="29.541934" lon="98.260661">
<time>2016-10-07T17:13:13Z</time></trkpt>
<trkpt lat="29.541984" lon="98.260541">
<time>2016-10-07T17:13:14Z</time></trkpt>
<trkpt lat="29.542034" lon="98.260421">
<time>2016-10-07T17:13:15Z</time></trkpt>
<trkpt lat="29.542134" lon="98.260141">
<time>2016-10-07T17:13:16Z</time></trkpt>
<trkpt lat="29.542184" lon="98.259961">
<time>2016-10-07T17:13:17Z</time></trkpt>
<trkpt lat="29.542204" lon="98.259891">
<time>2016-10-07T17:13:18Z</time></trkpt>
<trkpt lat="29.542224" lon="98.259761">
<time>2016-10-07T17:13:19Z</time></trkpt>
<trkpt lat="29.542244" lon="98.259641">
<time>2016-10-07T17:13:20Z</time></trkpt>
<trkpt lat="29.542254" lon="98.259511">
<time>2016-10-07T17:13:21Z</time></trkpt>
<trkpt lat="29.542264" lon="98.259391">
<time>2016-10-07T17:13:22Z</time></trkpt>
<trkpt lat="29.542264" lon="98.259301">
<time>2016-10-07T17:13:23Z</time></trkpt>
<trkpt lat="29.542274" lon="98.259161">
<time>2016-10-07T17:13:24Z</time></trkpt>
<trkpt lat="29.542274" lon="98.259111">
<time>2016-10-07T17:13:25Z</time></trkpt>
<trkpt lat="29.542284" lon="98.259071">
<time>2016-10-07T17:13:26Z</time></trkpt>
<trkpt lat="29.542304" lon="98.259031">
<time>2016-10-07T17:13:27Z</time></trkpt>
<trkpt lat="29.542334" lon="98.258991">
<time>2016-10-07T17:13:28Z</time></trkpt>
<trkpt lat="29.542374" lon="98.258961">
<time>2016-10-07T17:13:29Z</time></trkpt>
<trkpt lat="29.542424" lon="98.258941">
<time>2016-10-07T17:13:30Z</time></trkpt>
<trkpt lat="29.542454" lon="98.258941">
<time>2016-10-07T17:13:31Z</time></trkpt>
<trkpt lat="29.542504" lon="98.258941">
<time>2016-10-07T17:13:32Z</time></trkpt>
<trkpt lat="29.542564" lon="98.258961">
<time>2016-10-07T17:13:33Z</time></trkpt>
<trkpt lat="29.542674" lon="98.259021">
<time>2016-10-07T17:13:34Z</time></trkpt>
<trkpt lat="29.542904" lon="98.259131">
<time>2016-10-07T17:13:35Z</time></trkpt>
<trkpt lat="29.543074" lon="98.259211">
<time>2016-10-07T17:13:36Z</time></trkpt>
<trkpt lat="29.543244" lon="98.259281">
<time>2016-10-07T17:13:37Z</time></trkpt>
<trkpt lat="29.543444" lon="98.259331">
<time>2016-10-07T17:13:38Z</time></trkpt>
<trkpt lat="29.543504" lon="98.259351">
<time>2016-10-07T17:13:39Z</time></trkpt>
<trkpt lat="29.543724" lon="98.259401">
<time>2016-10-07T17:13:40Z</time></trkpt>
<trkpt lat="29.543904" lon="98.259451">
<time>2016-10-07T17:13:41Z</time></trkpt>
<trkpt lat="29.543963" lon="98.259461">
<time>2016-10-07T17:13:42Z</time></trkpt>
<trkpt lat="29.544053" lon="98.259471">
<time>2016-10-07T17:13:43Z</time></trkpt>
<trkpt lat="29.544093" lon="98.259471">
<time>2016-10-07T17:13:44Z</time></trkpt>
<trkpt lat="29.544143" lon="98.259471">
<time>2016-10-07T17:13:45Z</time></trkpt>
<trkpt lat="29.544183" lon="98.259461">
<time>2016-10-07T17:13:46Z</time></trkpt>
<trkpt lat="29.544213" lon="98.259441">
<time>2016-10-07T17:13:47Z</time></trkpt>
<trkpt lat="29.544233" lon="98.259421">
<time>2016-10-07T17:13:48Z</time></trkpt>
<trkpt lat="29.544253" lon="98.259401">
<time>2016-10-07T17:13:49Z</time></trkpt>
<trkpt lat="29.544263" lon="98.259381">
<time>2016-10-07T17:13:50Z</time></trkpt>
<trkpt lat="29.544273" lon="98.259341">
<time>2016-10-07T17:13:51Z</time></trkpt>
<trkpt lat="29.544283" lon="98.259321">
<time>2016-10-07T17:13:52Z</time></trkpt>
<trkpt lat="29.544283" lon="98.259291">
<time>2016-10-07T17:13:53Z</time></trkpt>
<trkpt lat="29.544283" lon="98.259271">
<time>2016-10-07T17:13:54Z</time></trkpt>
<trkpt lat="29.544273" lon="98.259251">
<time>2016-10-07T17:13:55Z</time></trkpt>
<trkpt lat="29.544263" lon="98.259211">
<time>2016-10-07T17:13:56Z</time></trkpt>
<trkpt lat="29.544253" lon="98.259191">
<time>2016-10-07T17:13:57Z</time></trkpt>
<trkpt lat="29.544243" lon="98.259161">
<time>2016-10-07T17:13:58Z</time></trkpt>
<trkpt lat="29.544224" lon="98.259151">
<time>2016-10-07T17:13:59Z</time></trkpt>
<trkpt lat="29.544204" lon="98.259121">
<time>2016-10-07T17:14:00Z</time></trkpt>
<trkpt lat="29.544184" lon="98.259111">
<time>2016-10-07T17:14:01Z</time></trkpt>
<trkpt lat="29.544154" lon="98.259091">
<time>2016-10-07T17:14:02Z</time></trkpt>
<trkpt lat="29.544094" lon="98.259061">
<time>2016-10-07T17:14:03Z</time></trkpt>
<trkpt lat="29.544034" lon="98.259031">
<time>2016-10-07T17:14:04Z</time></trkpt>
<trkpt lat="29.543984" lon="98.259001">
<time>2016-10-07T17:14:05Z</time></trkpt>
<trkpt lat="29.543934" lon="98.258981">
<time>2016-10-07T17:14:06Z</time></trkpt>
<trkpt lat="29.543894" lon="98.258961">
<time>2016-10-07T17:14:07Z</time></trkpt>
<trkpt lat="29.543844" lon="98.258931">
<time>2016-10-07T17:14:08Z</time></trkpt>
<trkpt lat="29.543814" lon="98.258911">
<time>2016-10-07T17:14:09Z</time></trkpt>
<trkpt lat="29.543774" lon="98.258891">
<time>2016-10-07T17:14:10Z</time></trkpt>
<trkpt lat="29.543734" lon="98.258871">
<time>2016-10-07T17:14:11Z</time></trkpt>
<trkpt lat="29.543694" lon="98.258841">
<time>2016-10-07T17:14:12Z</time></trkpt>
<trkpt lat="29.543664" lon="98.258821">
<time>2016-10-07T17:14:13Z</time></trkpt>
<trkpt lat="29.543614" lon="98.258791">
<time>2016-10-07T17:14:14Z</time></trkpt>
<trkpt lat="29.543574" lon="98.258761">
<time>2016-10-07T17:14:15Z</time></trkpt>
<trkpt lat="29.543554" lon="98.258741">
<time>2016-10-07T17:14:16Z</time></trkpt>
<trkpt lat="29.543524" lon="98.258721">
<time>2016-10-07T17:14:17Z</time></trkpt>
<trkpt lat="29.543504" lon="98.258701">
<time>2016-10-07T17:14:18Z</time></trkpt>
<trkpt lat="29.543474" lon="98.258671">
<time>2016-10-07T17:14:19Z</time></trkpt>
<trkpt lat="29.543444" lon="98.258651">
<time>2016-10-07T17:14:20Z</time></trkpt>
<trkpt lat="29.543384" lon="98.258601">
<time>2016-10-07T17:14:21Z</time></trkpt>
<trkpt lat="29.543294" lon="98.258521">
<time>2016-10-07T17:14:22Z</time></trkpt>
<trkpt lat="29.543154" lon="98.258402">
<time>2016-10-07T17:14:23Z</time></trkpt>
<trkpt lat="29.543054" lon="98.258292">
<time>2016-10-07T17:14:24Z</time></trkpt>
<trkpt lat="29.542984" lon="98.258172">
<time>2016-10-07T17:14:25Z</time></trkpt>
<trkpt lat="29.542944" lon="98.258072">
<time>2016-10-07T17:14:26Z</time></trkpt>
<trkpt lat="29.542934" lon="98.257972">
<time>2016-10-07T17:14:27Z</time></trkpt>
<trkpt lat="29.542934" lon="98.257832">
<time>2016-10-07T17:14:28Z</time></trkpt>
<trkpt lat="29.542954" lon="98.257692">
<time>2016-10-07T17:14:29Z</time></trkpt>
<trkpt lat="29.542995" lon="98.257512">
<time>2016-10-07T17:14:30Z</time></trkpt>
<trkpt lat="29.543055" lon="98.257282">
<time>2016-10-07T17:14:31Z</time></trkpt>
<trkpt lat="29.543105" lon="98.257102">
<time>2016-10-07T17:14:32Z</time></trkpt>
<trkpt lat="29.543135" lon="98.256962">
<time>2016-10-07T17:14:33Z</time></trkpt>
<trkpt lat="29.543145" lon="98.256852">
<time>2016-10-07T17:14:34Z</time></trkpt>
<trkpt lat="29.543145" lon="98.256772">
<time>2016-10-07T17:14:35Z</time></trkpt>
<trkpt lat="29.543125" lon="98.256692">
<time>2016-10-07T17:14:36Z</time></trkpt>
<trkpt lat="29.543105" lon="98.256612">
<time>2016-10-07T17:14:37Z</time></trkpt>
<trkpt lat="29.543055" lon="98.256522">
<time>2016-10-07T17:14:38Z</time></trkpt>
<trkpt lat="29.542985" lon="98.256412">
<time>2016-10-07T17:14:39Z</time></trkpt>
<trkpt lat="29.542845" lon="98.256212">
<time>2016-10-07T17:14:40Z</time></trkpt>
<trkpt lat="29.542725" lon="98.256072">
<time>2016-10-07T17:14:41Z</time></trkpt>
<trkpt lat="29.542585" lon="98.255922">
<time>2016-10-07T17:14:42Z</time></trkpt>
<trkpt lat="29.542485" lon="98.255842">
<time>2016-10-07T17:14:43Z</time></trkpt>
<trkpt lat="29.542435" lon="98.255802">
<time>2016-10-07T17:14:44Z</time></trkpt>
<trkpt lat="29.542395" lon="98.255772">
<time>2016-10-07T17:14:45Z</time></trkpt>
<trkpt lat="29.542305" lon="98.255732">
<time>2016-10-07T17:14:46Z</time></trkpt>
<trkpt lat="29.542195" lon="98.255702">
<time>2016-10-07T17:14:47Z</time></trkpt>
<trkpt lat="29.542055" lon="98.255682">
<time>2016-10-07T17:14:48Z</time></trkpt>
<trkpt lat="29.541935" lon="98.255662">
<time>2016-10-07T17:14:49Z</time></trkpt>
<trkpt lat="29.541845" lon="98.255642">
<time>2016-10-07T17:14:50Z</time></trkpt>
<trkpt lat="29.541746" lon="98.255592">
<time>2016-10-07T17:14:51Z</time></trkpt>
<trkpt lat="29.541676" lon="98.255552">
<time>2016-10-07T17:14:52Z</time></trkpt>
<trkpt lat="29.541596" lon="98.255483">
<time>2016-10-07T17:14:53Z</time></trkpt>
<trkpt lat="29.541466" lon="98.255353">
<time>2016-10-07T17:14:54Z</time></trkpt>
<trkpt lat="29.541416" lon="98.255303">
<time>2016-10-07T17:14:55Z</time></trkpt>
<trkpt lat="29.541376" lon="98.255263">
<time>2016-10-07T17:14:56Z</time></trkpt>
<trkpt lat="29.541346" lon="98.255203">
<time>2016-10-07T17:14:57Z</time></trkpt>
<trkpt lat="29.541326" lon="98.255143">
<time>2016-10-07T17:14:58Z</time></trkpt>
<trkpt lat="29.541316" lon="98.255073">
<time>2016-10-07T17:14:59Z</time></trkpt>
<trkpt lat="29.541306" lon="98.254933">
<time>2016-10-07T17:15:00Z</time></trkpt>
<trkpt lat="29.541296" lon="98.254823">
<time>2016-10-07T17:15:01Z</time></trkpt>
<trkpt lat="29.541266" lon="98.254723">
<time>2016-10-07T17:15:02Z</time></trkpt>
<trkpt lat="29.541236" lon="98.254673">
<time>2016-10-07T17:15:03Z</time></trkpt>
<trkpt lat="29.541196" lon="98.254593">
<time>2016-10-07T17:15:04Z</time></trkpt>
<trkpt lat="29.541096" lon="98.254463">
<time>2016-10-07T17:15:05Z</time></trkpt>
<trkpt lat="29.541016" lon="98.254343">
<time>2016-10-07T17:15:06Z</time></trkpt>
<trkpt lat="29.540976" lon="98.254233">
<time>2016-10-07T17:15:07Z</time></trkpt>
<trkpt lat="29.540946" lon="98.254133">
<time>2016-10-07T17:15:08Z</time></trkpt>
<trkpt lat="29.540926" lon="98.254023">
<time>2016-10-07T17:15:09Z</time></trkpt>
<trkpt lat="29.540886" lon="98.253683">
<time>2016-10-07T17:15:10Z</time></trkpt>
<trkpt lat="29.540836" lon="98.253343">
<time>2016-10-07T17:15:11Z</time></trkpt>
<trkpt lat="29.540806" lon="98.253123">
<time>2016-10-07T17:15:12Z</time></trkpt>
<trkpt lat="29.540806" lon="98.253053">
<time>2016-10-07T17:15:13Z</time></trkpt>
<trkpt lat="29.540796" lon="98.253003">
<time>2016-10-07T17:15:14Z</time></trkpt>
<trkpt lat="29.540796" lon="98.252903">
<time>2016-10-07T17:15:15Z</time></trkpt>
<trkpt lat="29.540806" lon="98.252783">
<time>2016-10-07T17:15:16Z</time></trkpt>
<trkpt lat="29.540816" lon="98.252733">
<time>2016-10-07T17:15:17Z</time></trkpt>
<trkpt lat="29.540826" lon="98.252633">
<time>2016-10-07T17:15:18Z</time></trkpt>
<trkpt lat="29.540826" lon="98.252493">
<time>2016-10-07T17:15:19Z</time></trkpt>
<trkpt lat="29.540816" lon="98.252363">
<time>2016-10-07T17:15:20Z</time></trkpt>
<trkpt lat="29.540816" lon="98.252283">
<time>2016-10-07T17:15:21Z</time></trkpt>
<trkpt lat="29.540806" lon="98.252133">
<time>2016-10-07T17:15:22Z</time></trkpt>
<trkpt lat="29.540816" lon="98.252003">
<time>2016-10-07T17:15:23Z</time></trkpt>
<trkpt lat="29.540836" lon="98.251873">
<time>2016-10-07T17:15:24Z</time></trkpt>
<trkpt lat="29.540856" lon="98.251763">
<time>2016-10-07T17:15:25Z</time></trkpt>
<trkpt lat="29.540886" lon="98.251663">
<time>2016-10-07T17:15:26Z</time></trkpt>
<trkpt lat="29.540926" lon="98.251543">
<time>2016-10-07T17:15:27Z</time></trkpt>
<trkpt lat="29.540936" lon="98.251473">
<time>2016-10-07T17:15:28Z</time></trkpt>
<trkpt lat="29.540946" lon="98.251413">
<time>2016-10-07T17:15:29Z</time></trkpt>
<trkpt lat="29.540936" lon="98.251303">
<time>2016-10-07T17:15:30Z</time></trkpt>
<trkpt lat="29.540917" lon="98.251213">
<time>2016-10-07T17:15:31Z</time></trkpt>
<trkpt lat="29.540887" lon="98.251123">
<time>2016-10-07T17:15:32Z</time></trkpt>
<trkpt lat="29.540837" lon="98.250973">
<time>2016-10-07T17:15:33Z</time></trkpt>
<trkpt lat="29.540787" lon="98.250833">
<time>2016-10-07T17:15:34Z</time></trkpt>
<trkpt lat="29.540757" lon="98.250723">
<time>2016-10-07T17:15:35Z</time></trkpt>
<trkpt lat="29.540747" lon="98.250653">
<time>2016-10-07T17:15:36Z</time></trkpt>
<trkpt lat="29.540737" lon="98.250583">
<time>2016-10-07T17:15:37Z</time></trkpt>
<trkpt lat="29.540737" lon="98.250503">
<time>2016-10-07T17:15:38Z</time></trkpt>
<trkpt lat="29.540737" lon="98.250213">
<time>2016-10-07T17:15:39Z</time></trkpt>
<trkpt lat="29.540737" lon="98.250043">
<time>2016-10-07T17:15:40Z</time></trkpt>
<trkpt lat="29.540737" lon="98.249933">
<time>2016-10-07T17:15:41Z</time></trkpt>
<trkpt lat="29.540757" lon="98.249753">
<time>2016-10-07T17:15:42Z</time></trkpt>
<trkpt lat="29.540787" lon="98.249523">
<time>2016-10-07T17:15:43Z</time></trkpt>
<trkpt lat="29.540817" lon="98.249323">
<time>2016-10-07T17:15:44Z</time></trkpt>
<trkpt lat="29.540827" lon="98.249213">
<time>2016-10-07T17:15:45Z</time></trkpt>
<trkpt lat="29.540857" lon="98.249043">
<time>2016-10-07T17:15:46Z</time></trkpt>
<trkpt lat="29.540877" lon="98.248883">
<time>2016-10-07T17:15:47Z</time></trkpt>
<trkpt lat="29.540877" lon="98.248803">
<time>2016-10-07T17:15:48Z</time></trkpt>
<trkpt lat="29.540857" lon="98.248723">
<time>2016-10-07T17:15:49Z</time></trkpt>
<trkpt lat="29.540837" lon="98.248663">
<time>2016-10-07T17:15:50Z</time></trkpt>
<trkpt lat="29.540787" lon="98.248553">
<time>2016-10-07T17:15:51Z</time></trkpt>
<trkpt lat="29.540677" lon="98.248383">
<time>2016-10-07T17:15:52Z</time></trkpt>
<trkpt lat="29.540527" lon="98.248173">
<time>2016-10-07T17:15:53Z</time></trkpt>
<trkpt lat="29.540417" lon="98.248053">
<time>2016-10-07T17:15:54Z</time></trkpt>
<trkpt lat="29.540307" lon="98.247943">
<time>2016-10-07T17:15:55Z</time></trkpt>
<trkpt lat="29.540157" lon="98.247803">
<time>2016-10-07T17:15:56Z</time></trkpt>
<trkpt lat="29.540037" lon="98.247713">
<time>2016-10-07T17:15:57Z</time></trkpt>
<trkpt lat="29.539967" lon="98.247673">
<time>2016-10-07T17:15:58Z</time></trkpt>
<trkpt lat="29.539857" lon="98.247613">
<time>2016-10-07T17:15:59Z</time></trkpt>
<trkpt lat="29.539757" lon="98.247593">
<time>2016-10-07T17:16:00Z</time></trkpt>
<trkpt lat="29.539657" lon="98.247563">
<time>2016-10-07T17:16:01Z</time></trkpt>
<trkpt lat="29.539537" lon="98.247543">
<time>2016-10-07T17:16:02Z</time></trkpt>
<trkpt lat="29.539467" lon="98.247523">
<time>2016-10-07T17:16:03Z</time></trkpt>
<trkpt lat="29.539377" lon="98.247493">
<time>2016-10-07T17:16:04Z</time></trkpt>
<trkpt lat="29.539327" lon="98.247463">
<time>2016-10-07T17:16:05Z</time></trkpt>
<trkpt lat="29.539277" lon="98.247413">
<time>2016-10-07T17:16:06Z</time></trkpt>
<trkpt lat="29.539237" lon="98.247363">
<time>2016-10-07T17:16:07Z</time></trkpt>
<trkpt lat="29.539197" lon="98.247273">
<time>2016-10-07T17:16:08Z</time></trkpt>
<trkpt lat="29.539137" lon="98.247113">
<time>2016-10-07T17:16:09Z</time></trkpt>
<trkpt lat="29.539097" lon="98.246943">
<time>2016-10-07T17:16:10Z</time></trkpt>
<trkpt lat="29.539077" lon="98.246833">
<time>2016-10-07T17:16:11Z</time></trkpt>
<trkpt lat="29.539077" lon="98.246753">
<time>2016-10-07T17:16:12Z</time></trkpt>
<trkpt lat="29.539097" lon="98.246653">
<time>2016-10-07T17:16:13Z</time></trkpt>
<trkpt lat="29.539137" lon="98.246563">
<time>2016-10-07T17:16:14Z</time></trkpt>
<trkpt lat="29.539197" lon="98.246443">
<time>2016-10-07T17:16:15Z</time></trkpt>
<trkpt lat="29.539247" lon="98.246323">
<time>2016-10-07T17:16:16Z</time></trkpt>
<trkpt lat="29.539257" lon="98.246283">
<time>2016-10-07T17:16:17Z</time></trkpt>
<trkpt lat="29.539267" lon="98.246233">
<time>2016-10-07T17:16:18Z</time></trkpt>
<trkpt lat="29.539267" lon="98.246143">
<time>2016-10-07T17:16:19Z</time></trkpt>
<trkpt lat="29.539267" lon="98.246093">
<time>2016-10-07T17:16:20Z</time></trkpt>
<trkpt lat="29.539247" lon="98.246033">
<time>2016-10-07T17:16:21Z</time></trkpt>
<trkpt lat="29.539227" lon="98.245963">
<time>2016-10-07T17:16:22Z</time></trkpt>
<trkpt lat="29.539187" lon="98.245893">
<time>2016-10-07T17:16:23Z</time></trkpt>
<trkpt lat="29.539147" lon="98.245793">
<time>2016-10-07T17:16:24Z</time></trkpt>
<trkpt lat="29.539077" lon="98.245533">
<time>2016-10-07T17:16:25Z</time></trkpt>
<trkpt lat="29.539037" lon="98.245373">
<time>2016-10-07T17:16:26Z</time></trkpt>
<trkpt lat="29.539017" lon="98.245293">
<time>2016-10-07T17:16:27Z</time></trkpt>
<trkpt lat="29.538997" lon="98.245203">
<time>2016-10-07T17:16:28Z</time></trkpt>
<trkpt lat="29.538987" lon="98.245153">
<time>2016-10-07T17:16:29Z</time></trkpt>
<trkpt lat="29.538987" lon="98.245083">
<time>2016-10-07T17:16:30Z</time></trkpt>
<trkpt lat="29.538997" lon="98.245003">
<time>2016-10-07T17:16:31Z</time></trkpt>
<trkpt lat="29.539017" lon="98.244953">
<time>2016-10-07T17:16:32Z</time></trkpt>
<trkpt lat="29.539047" lon="98.244873">
<time>2016-10-07T17:16:33Z</time></trkpt>
<trkpt lat="29.539087" lon="98.244783">
<time>2016-10-07T17:16:34Z</time></trkpt>
<trkpt lat="29.539117" lon="98.244703">
<time>2016-10-07T17:16:35Z</time></trkpt>
<trkpt lat="29.539127" lon="98.244643">
<time>2016-10-07T17:16:36Z</time></trkpt>
<trkpt lat="29.539137" lon="98.244583">
<time>2016-10-07T17:16:37Z</time></trkpt>
<trkpt lat="29.539147" lon="98.244503">
<time>2016-10-07T17:16:38Z</time></trkpt>
<trkpt lat="29.539147" lon="98.244413">
<time>2016-10-07T17:16:39Z</time></trkpt>
<trkpt lat="29.539147" lon="98.244293">
<time>2016-10-07T17:16:40Z</time></trkpt>
<trkpt lat="29.539157" lon="98.244193">
<time>2016-10-07T17:16:41Z</time></trkpt>
<trkpt lat="29.539177" lon="98.244083">
<time>2016-10-07T17:16:42Z</time></trkpt>
<trkpt lat="29.539197" lon="98.244003">
<time>2016-10-07T17:16:43Z</time></trkpt>
<trkpt lat="29.539247" lon="98.243873">
<time>2016-10-07T17:16:44Z</time></trkpt>
<trkpt lat="29.539307" lon="98.243713">
<time>2016-10-07T17:16:45Z</time></trkpt>
<trkpt lat="29.539377" lon="98.243562">
<time>2016-10-07T17:16:46Z</time></trkpt>
<trkpt lat="29.539436" lon="98.243402">
<time>2016-10-07T17:16:47Z</time></trkpt>
<trkpt lat="29.539466" lon="98.243292">
<time>2016-10-07T17:16:48Z</time></trkpt>
<trkpt lat="29.539476" lon="98.243182">
<time>2016-10-07T17:16:49Z</time></trkpt>
<trkpt lat="29.539466" lon="98.243072">
<time>2016-10-07T17:16:50Z</time></trkpt>
<trkpt lat="29.539456" lon="98.243012">
<time>2016-10-07T17:16:51Z</time></trkpt>
<trkpt lat="29.539446" lon="98.242952">
<time>2016-10-07T17:16:52Z</time></trkpt>
<trkpt lat="29.539366" lon="98.242762">
<time>2016-10-07T17:16:53Z</time></trkpt>
<trkpt lat="29.539286" lon="98.242572">
<time>2016-10-07T17:16:54Z</time></trkpt>
<trkpt lat="29.539206" lon="98.242382">
<time>2016-10-07T17:16:55Z</time></trkpt>
<trkpt lat="29.539186" lon="98.242322">
<time>2016-10-07T17:16:56Z</time></trkpt>
<trkpt lat="29.539176" lon="98.242262">
<time>2016-10-07T17:16:57Z</time></trkpt>
<trkpt lat="29.539136" lon="98.241942">
<time>2016-10-07T17:16:58Z</time></trkpt>
<trkpt lat="29.539106" lon="98.241682">
<time>2016-10-07T17:16:59Z</time></trkpt>
<trkpt lat="29.539096" lon="98.241482">
<time>2016-10-07T17:17:00Z</time></trkpt>
<trkpt lat="29.539096" lon="98.241382">
<time>2016-10-07T17:17:01Z</time></trkpt>
<trkpt lat="29.539106" lon="98.241332">
<time>2016-10-07T17:17:02Z</time></trkpt>
<trkpt lat="29.539116" lon="98.241262">
<time>2016-10-07T17:17:03Z</time></trkpt>
<trkpt lat="29.539156" lon="98.241192">
<time>2016-10-07T17:17:04Z</time></trkpt>
<trkpt lat="29.539176" lon="98.241152">
<time>2016-10-07T17:17:05Z</time></trkpt>
<trkpt lat="29.539256" lon="98.241052">
<time>2016-10-07T17:17:06Z</time></trkpt>
<trkpt lat="29.539316" lon="98.240952">
<time>2016-10-07T17:17:07Z</time></trkpt>
<trkpt lat="29.539346" lon="98.240902">
<time>2016-10-07T17:17:08Z</time></trkpt>
<trkpt lat="29.539366" lon="98.240842">
<time>2016-10-07T17:17:09Z</time></trkpt>
<trkpt lat="29.539396" lon="98.240752">
<time>2016-10-07T17:17:10Z</time></trkpt>
<trkpt lat="29.539396" lon="98.240692">
<time>2016-10-07T17:17:11Z</time></trkpt>
<trkpt lat="29.539396" lon="98.240511">
<time>2016-10-07T17:17:12Z</time></trkpt>
<trkpt lat="29.539386" lon="98.240421">
<time>2016-10-07T17:17:13Z</time></trkpt>
<trkpt lat="29.539406" lon="98.240231">
<time>2016-10-07T17:17:14Z</time></trkpt>
<trkpt lat="29.539436" lon="98.240121">
<time>2016-10-07T17:17:15Z</time></trkpt>
<trkpt lat="29.539475" lon="98.240031">
<time>2016-10-07T17:17:16Z</time></trkpt>
<trkpt lat="29.539535" lon="98.239921">
<time>2016-10-07T17:17:17Z</time></trkpt>
<trkpt lat="29.539595" lon="98.239831">
<time>2016-10-07T17:17:18Z</time></trkpt>
<trkpt lat="29.539665" lon="98.239731">
<time>2016-10-07T17:17:19Z</time></trkpt>
<trkpt lat="29.539715" lon="98.239621">
<time>2016-10-07T17:17:20Z</time></trkpt>
<trkpt lat="29.539745" lon="98.239531">
<time>2016-10-07T17:17:21Z</time></trkpt>
<trkpt lat="29.539765" lon="98.239421">
<time>2016-10-07T17:17:22Z</time></trkpt>
<trkpt lat="29.539795" lon="98.239211">
<time>2016-10-07T17:17:23Z</time></trkpt>
<trkpt lat="29.539815" lon="98.239011">
<time>2016-10-07T17:17:24Z</time></trkpt>
<trkpt lat="29.539855" lon="98.238871">
<time>2016-10-07T17:17:25Z</time></trkpt>
<trkpt lat="29.539905" lon="98.238781">
<time>2016-10-07T17:17:26Z</time></trkpt>
<trkpt lat="29.539955" lon="98.238711">
<time>2016-10-07T17:17:27Z</time></trkpt>
<trkpt lat="29.540005" lon="98.238621">
<time>2016-10-07T17:17:28Z</time></trkpt>
<trkpt lat="29.540035" lon="98.238541">
<time>2016-10-07T17:17:29Z</time></trkpt>
<trkpt lat="29.540045" lon="98.238491">
<time>2016-10-07T17:17:30Z</time></trkpt>
<trkpt lat="29.540045" lon="98.238411">
<time>2016-10-07T17:17:31Z</time></trkpt>
<trkpt lat="29.540025" lon="98.23833">
<time>2016-10-07T17:17:32Z</time></trkpt>
<trkpt lat="29.539965" lon="98.23819">
<time>2016-10-07T17:17:33Z</time></trkpt>
<trkpt lat="29.539865" lon="98.23799">
<time>2016-10-07T17:17:34Z</time></trkpt>
<trkpt lat="29.539805" lon="98.23787">
<time>2016-10-07T17:17:35Z</time></trkpt>
<trkpt lat="29.539734" lon="98.23773">
<time>2016-10-07T17:17:36Z</time></trkpt>
<trkpt lat="29.539674" lon="98.23762">
<time>2016-10-07T17:17:37Z</time></trkpt>
<trkpt lat="29.539644" lon="98.23753">
<time>2016-10-07T17:17:38Z</time></trkpt>
<trkpt lat="29.539624" lon="98.23747">
<time>2016-10-07T17:17:39Z</time></trkpt>
<trkpt lat="29.539614" lon="98.23732">
<time>2016-10-07T17:17:40Z</time></trkpt>
<trkpt lat="29.539624" lon="98.23715">
<time>2016-10-07T17:17:41Z</time></trkpt>
<trkpt lat="29.539624" lon="98.23705">
<time>2016-10-07T17:17:42Z</time></trkpt>
<trkpt lat="29.539654" lon="98.23695">
<time>2016-10-07T17:17:43Z</time></trkpt>
<trkpt lat="29.539704" lon="98.23677">
<time>2016-10-07T17:17:44Z</time></trkpt>
<trkpt lat="29.539764" lon="98.23659">
<time>2016-10-07T17:17:45Z</time></trkpt>
<trkpt lat="29.539824" lon="98.236409">
<time>2016-10-07T17:17:46Z</time></trkpt>
<trkpt lat="29.539854" lon="98.236249">
<time>2016-10-07T17:17:47Z</time></trkpt>
<trkpt lat="29.539854" lon="98.236169">
<time>2016-10-07T17:17:48Z</time></trkpt>
<trkpt lat="29.539854" lon="98.236089">
<time>2016-10-07T17:17:49Z</time></trkpt>
<trkpt lat="29.539824" lon="98.235889">
<time>2016-10-07T17:17:50Z</time></trkpt>
<trkpt lat="29.539784" lon="98.235719">
<time>2016-10-07T17:17:51Z</time></trkpt>
<trkpt lat="29.539753" lon="98.235549">
<time>2016-10-07T17:17:52Z</time></trkpt>
<trkpt lat="29.539733" lon="98.235369">
<time>2016-10-07T17:17:53Z</time></trkpt>
<trkpt lat="29.539723" lon="98.235289">
<time>2016-10-07T17:17:54Z</time></trkpt>
<trkpt lat="29.539723" lon="98.235169">
<time>2016-10-07T17:17:55Z</time></trkpt>
<trkpt lat="29.539743" lon="98.235049">
<time>2016-10-07T17:17:56Z</time></trkpt>
<trkpt lat="29.539783" lon="98.234929">
<time>2016-10-07T17:17:57Z</time></trkpt>
<trkpt lat="29.539853" lon="98.234728">
<time>2016-10-07T17:17:58Z</time></trkpt>
<trkpt lat="29.539933" lon="98.234498">
<time>2016-10-07T17:17:59Z</time></trkpt>
<trkpt lat="29.539963" lon="98.234348">
<time>2016-10-07T17:18:00Z</time></trkpt>
<trkpt lat="29.539973" lon="98.234298">
<time>2016-10-07T17:18:01Z</time></trkpt>
<trkpt lat="29.539983" lon="98.234228">
<time>2016-10-07T17:18:02Z</time></trkpt>
<trkpt lat="29.539973" lon="98.234168">
<time>2016-10-07T17:18:03Z</time></trkpt>
<trkpt lat="29.539973" lon="98.234118">
<time>2016-10-07T17:18:04Z</time></trkpt>
<trkpt lat="29.539943" lon="98.234028">
<time>2016-10-07T17:18:05Z</time></trkpt>
<trkpt lat="29.539893" lon="98.233958">
<time>2016-10-07T17:18:06Z</time></trkpt>
<trkpt lat="29.539833" lon="98.233888">
<time>2016-10-07T17:18:07Z</time></trkpt>
<trkpt lat="29.539753" lon="98.233828">
<time>2016-10-07T17:18:08Z</time></trkpt>
<trkpt lat="29.539723" lon="98.233808">
<time>2016-10-07T17:18:09Z</time></trkpt>
<trkpt lat="29.539692" lon="98.233778">
<time>2016-10-07T17:18:10Z</time></trkpt>
<trkpt lat="29.539642" lon="98.233718">
<time>2016-10-07T17:18:11Z</time></trkpt>
<trkpt lat="29.539612" lon="98.233638">
<time>2016-10-07T17:18:12Z</time></trkpt>
<trkpt lat="29.539592" lon="98.233558">
<time>2016-10-07T17:18:13Z</time></trkpt>
<trkpt lat="29.539582" lon="98.233468">
<time>2016-10-07T17:18:14Z</time></trkpt>
<trkpt lat="29.539572" lon="98.233097">
<time>2016-10-07T17:18:15Z</time></trkpt>
<trkpt lat="29.539552" lon="98.232827">
<time>2016-10-07T17:18:16Z</time></trkpt>
<trkpt lat="29.539532" lon="98.232657">
<time>2016-10-07T17:18:17Z</time></trkpt>
<trkpt lat="29.539512" lon="98.232497">
<time>2016-10-07T17:18:18Z</time></trkpt>
<trkpt lat="29.539482" lon="98.232317">
<time>2016-10-07T17:18:19Z</time></trkpt>
<trkpt lat="29.539472" lon="98.232237">
<time>2016-10-07T17:18:20Z</time></trkpt>
<trkpt lat="29.539462" lon="98.232107">
<time>2016-10-07T17:18:21Z</time></trkpt>
<trkpt lat="29.539472" lon="98.232026">
<time>2016-10-07T17:18:22Z</time></trkpt>
<trkpt lat="29.539481" lon="98.231936">
<time>2016-10-07T17:18:23Z</time></trkpt>
<trkpt lat="29.539501" lon="98.231836">
<time>2016-10-07T17:18:24Z</time></trkpt>
<trkpt lat="29.539531" lon="98.231736">
<time>2016-10-07T17:18:25Z</time></trkpt>
<trkpt lat="29.539581" lon="98.231626">
<time>2016-10-07T17:18:26Z</time></trkpt>
<trkpt lat="29.539641" lon="98.231526">
<time>2016-10-07T17:18:27Z</time></trkpt>
<trkpt lat="29.539751" lon="98.231376">
<time>2016-10-07T17:18:28Z</time></trkpt>
<trkpt lat="29.539861" lon="98.231276">
<time>2016-10-07T17:18:29Z</time></trkpt>
<trkpt lat="29.540001" lon="98.231166">
<time>2016-10-07T17:18:30Z</time></trkpt>
<trkpt lat="29.540131" lon="98.231076">
<time>2016-10-07T17:18:31Z</time></trkpt>
<trkpt lat="29.540201" lon="98.231006">
<time>2016-10-07T17:18:32Z</time></trkpt>
<trkpt lat="29.54031" lon="98.230886">
<time>2016-10-07T17:18:33Z</time></trkpt>
<trkpt lat="29.54037" lon="98.230785">
<time>2016-10-07T17:18:34Z</time></trkpt>
<trkpt lat="29.5404" lon="98.230745">
<time>2016-10-07T17:18:35Z</time></trkpt>
<trkpt lat="29.54044" lon="98.230635">
<time>2016-10-07T17:18:36Z</time></trkpt>
<trkpt lat="29.54047" lon="98.230535">
<time>2016-10-07T17:18:37Z</time></trkpt>
<trkpt lat="29.54047" lon="98.230485">
<time>2016-10-07T17:18:38Z</time></trkpt>
<trkpt lat="29.54047" lon="98.230425">
<time>2016-10-07T17:18:39Z</time></trkpt>
<trkpt lat="29.54046" lon="98.230335">
<time>2016-10-07T17:18:40Z</time></trkpt>
<trkpt lat="29.54045" lon="98.230205">
<time>2016-10-07T17:18:41Z</time></trkpt>
<trkpt lat="29.54041" lon="98.230085">
<time>2016-10-07T17:18:42Z</time></trkpt>
<trkpt lat="29.54038" lon="98.230025">
<time>2016-10-07T17:18:43Z</time></trkpt>
<trkpt lat="29.54029" lon="98.229835">
<time>2016-10-07T17:18:44Z</time></trkpt>
<trkpt lat="29.54023" lon="98.229715">
<time>2016-10-07T17:18:45Z</time></trkpt>
<trkpt lat="29.54021" lon="98.229655">
<time>2016-10-07T17:18:46Z</time></trkpt>
<trkpt lat="29.54019" lon="98.229584">
<time>2016-10-07T17:18:47Z</time></trkpt>
<trkpt lat="29.540179" lon="98.229474">
<time>2016-10-07T17:18:48Z</time></trkpt>
<trkpt lat="29.540199" lon="98.229094">
<time>2016-10-07T17:18:49Z</time></trkpt>
<trkpt lat="29.540199" lon="98.228934">
<time>2016-10-07T17:18:50Z</time></trkpt>
<trkpt lat="29.540199" lon="98.228864">
<time>2016-10-07T17:18:51Z</time></trkpt>
<trkpt lat="29.540209" lon="98.228764">
<time>2016-10-07T17:18:52Z</time></trkpt>
<trkpt lat="29.540229" lon="98.228624">
<time>2016-10-07T17:18:53Z</time></trkpt>
<trkpt lat="29.540259" lon="98.228544">
<time>2016-10-07T17:18:54Z</time></trkpt>
<trkpt lat="29.540309" lon="98.228363">
<time>2016-10-07T17:18:55Z</time></trkpt>
<trkpt lat="29.540388" lon="98.228143">
<time>2016-10-07T17:18:56Z</time></trkpt>
<trkpt lat="29.540428" lon="98.228023">
<time>2016-10-07T17:18:57Z</time></trkpt>
<trkpt lat="29.540468" lon="98.227873">
<time>2016-10-07T17:18:58Z</time></trkpt>
<trkpt lat="29.540528" lon="98.227573">
<time>2016-10-07T17:18:59Z</time></trkpt>
<trkpt lat="29.540548" lon="98.227392">
<time>2016-10-07T17:19:00Z</time></trkpt>
<trkpt lat="29.540548" lon="98.227232">
<time>2016-10-07T17:19:01Z</time></trkpt>
<trkpt lat="29.540548" lon="98.227142">
<time>2016-10-07T17:19:02Z</time></trkpt>
<trkpt lat="29.540527" lon="98.227062">
<time>2016-10-07T17:19:03Z</time></trkpt>
<trkpt lat="29.540487" lon="98.226882">
<time>2016-10-07T17:19:04Z</time></trkpt>
<trkpt lat="29.540417" lon="98.226722">
<time>2016-10-07T17:19:05Z</time></trkpt>
<trkpt lat="29.540297" lon="98.226512">
<time>2016-10-07T17:19:06Z</time></trkpt>
<trkpt lat="29.540247" lon="98.226411">
<time>2016-10-07T17:19:07Z</time></trkpt>
<trkpt lat="29.540197" lon="98.226311">
<time>2016-10-07T17:19:08Z</time></trkpt>
<trkpt lat="29.540157" lon="98.226191">
<time>2016-10-07T17:19:09Z</time></trkpt>
<trkpt lat="29.540127" lon="98.226051">
<time>2016-10-07T17:19:10Z</time></trkpt>
<trkpt lat="29.540127" lon="98.225881">
<time>2016-10-07T17:19:11Z</time></trkpt>
<trkpt lat="29.540147" lon="98.225741">
<time>2016-10-07T17:19:12Z</time></trkpt>
<trkpt lat="29.540176" lon="98.225581">
<time>2016-10-07T17:19:13Z</time></trkpt>
<trkpt lat="29.540196" lon="98.22545">
<time>2016-10-07T17:19:14Z</time></trkpt>
<trkpt lat="29.540246" lon="98.22524">
<time>2016-10-07T17:19:15Z</time></trkpt>
<trkpt lat="29.540256" lon="98.22509">
<time>2016-10-07T17:19:16Z</time></trkpt>
<trkpt lat="29.540266" lon="98.22486">
<time>2016-10-07T17:19:17Z</time></trkpt>
<trkpt lat="29.540265" lon="98.22457">
<time>2016-10-07T17:19:18Z</time></trkpt>
<trkpt lat="29.540265" lon="98.224409">
<time>2016-10-07T17:19:19Z</time></trkpt>
<trkpt lat="29.540245" lon="98.224289">
<time>2016-10-07T17:19:20Z</time></trkpt>
<trkpt lat="29.540215" lon="98.224179">
<time>2016-10-07T17:19:21Z</time></trkpt>
<trkpt lat="29.540145" lon="98.223959">
<time>2016-10-07T17:19:22Z</time></trkpt>
<trkpt lat="29.540085" lon="98.223819">
<time>2016-10-07T17:19:23Z</time></trkpt>
<trkpt lat="29.540035" lon="98.223699">
<time>2016-10-07T17:19:24Z</time></trkpt>
<trkpt lat="29.540015" lon="98.223558">
<time>2016-10-07T17:19:25Z</time></trkpt>
<trkpt lat="29.539994" lon="98.223328">
<time>2016-10-07T17:19:26Z</time></trkpt>
<trkpt lat="29.540014" lon="98.223028">
<time>2016-10-07T17:19:27Z</time></trkpt>
<trkpt lat="29.540034" lon="98.222868">
<time>2016-10-07T17:19:28Z</time></trkpt>
<trkpt lat="29.540074" lon="98.222728">
<time>2016-10-07T17:19:29Z</time></trkpt>
<trkpt lat="29.540124" lon="98.222597">
<time>2016-10-07T17:19:30Z</time></trkpt>
<trkpt lat="29.540243" lon="98.222327">
<time>2016-10-07T17:19:31Z</time></trkpt>
<trkpt lat="29.540353" lon="98.222067">
<time>2016-10-07T17:19:32Z</time></trkpt>
<trkpt lat="29.540403" lon="98.221897">
<time>2016-10-07T17:19:33Z</time></trkpt>
<trkpt lat="29.540433" lon="98.221766">
<time>2016-10-07T17:19:34Z</time></trkpt>
<trkpt lat="29.540463" lon="98.221606">
<time>2016-10-07T17:19:35Z</time></trkpt>
<trkpt lat="29.540502" lon="98.221296">
<time>2016-10-07T17:19:36Z</time></trkpt>
<trkpt lat="29.540522" lon="98.220945">
<time>2016-10-07T17:19:37Z</time></trkpt>
<trkpt lat="29.540542" lon="98.220805">
<time>2016-10-07T17:19:38Z</time></trkpt>
<trkpt lat="29.540581" lon="98.220555">
<time>2016-10-07T17:19:39Z</time></trkpt>
<trkpt lat="29.540611" lon="98.220405">
<time>2016-10-07T17:19:40Z</time></trkpt>
<trkpt lat="29.540661" lon="98.220255">
<time>2016-10-07T17:19:41Z</time></trkpt>
<trkpt lat="29.540781" lon="98.219994">
<time>2016-10-07T17:19:42Z</time></trkpt>
<trkpt lat="29.540871" lon="98.219804">
<time>2016-10-07T17:19:43Z</time></trkpt>
<trkpt lat="29.54099" lon="98.219534">
<time>2016-10-07T17:19:44Z</time></trkpt>
<trkpt lat="29.54105" lon="98.219434">
<time>2016-10-07T17:19:45Z</time></trkpt>
<trkpt lat="29.5411" lon="98.219353">
<time>2016-10-07T17:19:46Z</time></trkpt>
<trkpt lat="29.54115" lon="98.219303">
<time>2016-10-07T17:19:47Z</time></trkpt>
<trkpt lat="29.54121" lon="98.219263">
<time>2016-10-07T17:19:48Z</time></trkpt>
<trkpt lat="29.54133" lon="98.219193">
<time>2016-10-07T17:19:49Z</time></trkpt>
<trkpt lat="29.54143" lon="98.219143">
<time>2016-10-07T17:19:50Z</time></trkpt>
<trkpt lat="29.54158" lon="98.219073">
<time>2016-10-07T17:19:51Z</time></trkpt>
<trkpt lat="29.541719" lon="98.219003">
<time>2016-10-07T17:19:52Z</time></trkpt>
<trkpt lat="29.541899" lon="98.218923">
<time>2016-10-07T17:19:53Z</time></trkpt>
<trkpt lat="29.542099" lon="98.218853">
<time>2016-10-07T17:19:54Z</time></trkpt>
<trkpt lat="29.542359" lon="98.218763">
<time>2016-10-07T17:19:55Z</time></trkpt>
<trkpt lat="29.542549" lon="98.218693">
<time>2016-10-07T17:19:56Z</time></trkpt>
<trkpt lat="29.542679" lon="98.218612">
<time>2016-10-07T17:19:57Z</time></trkpt>
<trkpt lat="29.542808" lon="98.218512">
<time>2016-10-07T17:19:58Z</time></trkpt>
<trkpt lat="29.542948" lon="98.218382">
<time>2016-10-07T17:19:59Z</time></trkpt>
<trkpt lat="29.543038" lon="98.218292">
<time>2016-10-07T17:20:00Z</time></trkpt>
<trkpt lat="29.543278" lon="98.218032">
<time>2016-10-07T17:20:01Z</time></trkpt>
<trkpt lat="29.543428" lon="98.217871">
<time>2016-10-07T17:20:02Z</time></trkpt>
<trkpt lat="29.543507" lon="98.217801">
<time>2016-10-07T17:20:03Z</time></trkpt>
<trkpt lat="29.543597" lon="98.217731">
<time>2016-10-07T17:20:04Z</time></trkpt>
<trkpt lat="29.543697" lon="98.217671">
<time>2016-10-07T17:20:05Z</time></trkpt>
<trkpt lat="29.543917" lon="98.217541">
<time>2016-10-07T17:20:06Z</time></trkpt>
<trkpt lat="29.544207" lon="98.217381">
<time>2016-10-07T17:20:07Z</time></trkpt>
<trkpt lat="29.544387" lon="98.217291">
<time>2016-10-07T17:20:08Z</time></trkpt>
<trkpt lat="29.544466" lon="98.217261">
<time>2016-10-07T17:20:09Z</time></trkpt>
<trkpt lat="29.544596" lon="98.217231">
<time>2016-10-07T17:20:10Z</time></trkpt>
<trkpt lat="29.544856" lon="98.217191">
<time>2016-10-07T17:20:11Z</time></trkpt>
<trkpt lat="29.545016" lon="98.21717">
<time>2016-10-07T17:20:12Z</time></trkpt>
<trkpt lat="29.545106" lon="98.21715">
<time>2016-10-07T17:20:13Z</time></trkpt>
<trkpt lat="29.545236" lon="98.21711">
<time>2016-10-07T17:20:14Z</time></trkpt>
<trkpt lat="29.545336" lon="98.21706">
<time>2016-10-07T17:20:15Z</time></trkpt>
<trkpt lat="29.545516" lon="98.21694">
<time>2016-10-07T17:20:16Z</time></trkpt>
<trkpt lat="29.545695" lon="98.2168">
<time>2016-10-07T17:20:17Z</time></trkpt>
<trkpt lat="29.545805" lon="98.2167">
<time>2016-10-07T17:20:18Z</time></trkpt>
<trkpt lat="29.545845" lon="98.21665">
<time>2016-10-07T17:20:19Z</time></trkpt>
<trkpt lat="29.545895" lon="98.2166">
<time>2016-10-07T17:20:20Z</time></trkpt>
<trkpt lat="29.545965" lon="98.21651">
<time>2016-10-07T17:20:21Z</time></trkpt>
<trkpt lat="29.546155" lon="98.216219">
<time>2016-10-07T17:20:22Z</time></trkpt>
<trkpt lat="29.546374" lon="98.215869">
<time>2016-10-07T17:20:23Z</time></trkpt>
<trkpt lat="29.546444" lon="98.215749">
<time>2016-10-07T17:20:24Z</time></trkpt>
<trkpt lat="29.546504" lon="98.215648">
<time>2016-10-07T17:20:25Z</time></trkpt>
<trkpt lat="29.546534" lon="98.215558">
<time>2016-10-07T17:20:26Z</time></trkpt>
<trkpt lat="29.546564" lon="98.215448">
<time>2016-10-07T17:20:27Z</time></trkpt>
<trkpt lat="29.546573" lon="98.215308">
<time>2016-10-07T17:20:28Z</time></trkpt>
<trkpt lat="29.546573" lon="98.215198">
<time>2016-10-07T17:20:29Z</time></trkpt>
<trkpt lat="29.546573" lon="98.215108">
<time>2016-10-07T17:20:30Z</time></trkpt>
<trkpt lat="29.546573" lon="98.214917">
<time>2016-10-07T17:20:31Z</time></trkpt>
<trkpt lat="29.546583" lon="98.214817">
<time>2016-10-07T17:20:32Z</time></trkpt>
<trkpt lat="29.546603" lon="98.214737">
<time>2016-10-07T17:20:33Z</time></trkpt>
<trkpt lat="29.546633" lon="98.214687">
<time>2016-10-07T17:20:34Z</time></trkpt>
<trkpt lat="29.546683" lon="98.214597">
<time>2016-10-07T17:20:35Z</time></trkpt>
<trkpt lat="29.546742" lon="98.214547">
<time>2016-10-07T17:20:36Z</time></trkpt>
<trkpt lat="29.546822" lon="98.214527">
<time>2016-10-07T17:20:37Z</time></trkpt>
<trkpt lat="29.546892" lon="98.214527">
<time>2016-10-07T17:20:38Z</time></trkpt>
<trkpt lat="29.546952" lon="98.214527">
<time>2016-10-07T17:20:39Z</time></trkpt>
<trkpt lat="29.547042" lon="98.214557">
<time>2016-10-07T17:20:40Z</time></trkpt>
<trkpt lat="29.547122" lon="98.214567">
<time>2016-10-07T17:20:41Z</time></trkpt>
<trkpt lat="29.547192" lon="98.214567">
<time>2016-10-07T17:20:42Z</time></trkpt>
<trkpt lat="29.547282" lon="98.214547">
<time>2016-10-07T17:20:43Z</time></trkpt>
<trkpt lat="29.547352" lon="98.214527">
<time>2016-10-07T17:20:44Z</time></trkpt>
<trkpt lat="29.547472" lon="98.214417">
<time>2016-10-07T17:20:45Z</time></trkpt>
<trkpt lat="29.547632" lon="98.214226">
<time>2016-10-07T17:20:46Z</time></trkpt>
<trkpt lat="29.547791" lon="98.214006">
<time>2016-10-07T17:20:47Z</time></trkpt>
<trkpt lat="29.547851" lon="98.213906">
<time>2016-10-07T17:20:48Z</time></trkpt>
<trkpt lat="29.547891" lon="98.213806">
<time>2016-10-07T17:20:49Z</time></trkpt>
<trkpt lat="29.547921" lon="98.213696">
<time>2016-10-07T17:20:50Z</time></trkpt>
<trkpt lat="29.547991" lon="98.213405">
<time>2016-10-07T17:20:51Z</time></trkpt>
<trkpt lat="29.54804" lon="98.213255">
<time>2016-10-07T17:20:52Z</time></trkpt>
<trkpt lat="29.54811" lon="98.213085">
<time>2016-10-07T17:20:53Z</time></trkpt>
<trkpt lat="29.54817" lon="98.212984">
<time>2016-10-07T17:20:54Z</time></trkpt>
<trkpt lat="29.54824" lon="98.212874">
<time>2016-10-07T17:20:55Z</time></trkpt>
<trkpt lat="29.54833" lon="98.212744">
<time>2016-10-07T17:20:56Z</time></trkpt>
<trkpt lat="29.548449" lon="98.212554">
<time>2016-10-07T17:20:57Z</time></trkpt>
<trkpt lat="29.548579" lon="98.212364">
<time>2016-10-07T17:20:58Z</time></trkpt>
<trkpt lat="29.548709" lon="98.212223">
<time>2016-10-07T17:20:59Z</time></trkpt>
<trkpt lat="29.548849" lon="98.212103">
<time>2016-10-07T17:21:00Z</time></trkpt>
<trkpt lat="29.549048" lon="98.211943">
<time>2016-10-07T17:21:01Z</time></trkpt>
<trkpt lat="29.549198" lon="98.211823">
<time>2016-10-07T17:21:02Z</time></trkpt>
<trkpt lat="29.549318" lon="98.211733">
<time>2016-10-07T17:21:03Z</time></trkpt>
<trkpt lat="29.549398" lon="98.211632">
<time>2016-10-07T17:21:04Z</time></trkpt>
<trkpt lat="29.549528" lon="98.211472">
<time>2016-10-07T17:21:05Z</time></trkpt>
<trkpt lat="29.549657" lon="98.211322">
<time>2016-10-07T17:21:06Z</time></trkpt>
<trkpt lat="29.549707" lon="98.211292">
<time>2016-10-07T17:21:07Z</time></trkpt>
<trkpt lat="29.549787" lon="98.211242">
<time>2016-10-07T17:21:08Z</time></trkpt>
<trkpt lat="29.549927" lon="98.211192">
<time>2016-10-07T17:21:09Z</time></trkpt>
<trkpt lat="29.550017" lon="98.211192">
<time>2016-10-07T17:21:10Z</time></trkpt>
<trkpt lat="29.550097" lon="98.211192">
<time>2016-10-07T17:21:11Z</time></trkpt>
<trkpt lat="29.550287" lon="98.211232">
<time>2016-10-07T17:21:12Z</time></trkpt>
<trkpt lat="29.550397" lon="98.211252">
<time>2016-10-07T17:21:13Z</time></trkpt>
<trkpt lat="29.550487" lon="98.211262">
<time>2016-10-07T17:21:14Z</time></trkpt>
<trkpt lat="29.550587" lon="98.211262">
<time>2016-10-07T17:21:15Z</time></trkpt>
<trkpt lat="29.550747" lon="98.211252">
<time>2016-10-07T17:21:16Z</time></trkpt>
<trkpt lat="29.550957" lon="98.211232">
<time>2016-10-07T17:21:17Z</time></trkpt>
<trkpt lat="29.551117" lon="98.211192">
<time>2016-10-07T17:21:18Z</time></trkpt>
<trkpt lat="29.551296" lon="98.211112">
<time>2016-10-07T17:21:19Z</time></trkpt>
<trkpt lat="29.551486" lon="98.211011">
<time>2016-10-07T17:21:20Z</time></trkpt>
<trkpt lat="29.551696" lon="98.210901">
<time>2016-10-07T17:21:21Z</time></trkpt>
<trkpt lat="29.551826" lon="98.210801">
<time>2016-10-07T17:21:22Z</time></trkpt>
<trkpt lat="29.551926" lon="98.210721">
<time>2016-10-07T17:21:23Z</time></trkpt>
<trkpt lat="29.552105" lon="98.210561">
<time>2016-10-07T17:21:24Z</time></trkpt>
<trkpt lat="29.552265" lon="98.21041">
<time>2016-10-07T17:21:25Z</time></trkpt>
<trkpt lat="29.552495" lon="98.2102">
<time>2016-10-07T17:21:26Z</time></trkpt>
<trkpt lat="29.552635" lon="98.21009">
<time>2016-10-07T17:21:27Z</time></trkpt>
<trkpt lat="29.552824" lon="98.20995">
<time>2016-10-07T17:21:28Z</time></trkpt>
<trkpt lat="29.552934" lon="98.20986">
<time>2016-10-07T17:21:29Z</time></trkpt>
<trkpt lat="29.553014" lon="98.209739">
<time>2016-10-07T17:21:30Z</time></trkpt>
<trkpt lat="29.553084" lon="98.209599">
<time>2016-10-07T17:21:31Z</time></trkpt>
<trkpt lat="29.553144" lon="98.209469">
<time>2016-10-07T17:21:32Z</time></trkpt>
<trkpt lat="29.553203" lon="98.209379">
<time>2016-10-07T17:21:33Z</time></trkpt>
<trkpt lat="29.553273" lon="98.209279">
<time>2016-10-07T17:21:34Z</time></trkpt>
<trkpt lat="29.553363" lon="98.209158">
<time>2016-10-07T17:21:35Z</time></trkpt>
<trkpt lat="29.553493" lon="98.208988">
<time>2016-10-07T17:21:36Z</time></trkpt>
<trkpt lat="29.553633" lon="98.208808">
<time>2016-10-07T17:21:37Z</time></trkpt>
<trkpt lat="29.553772" lon="98.208618">
<time>2016-10-07T17:21:38Z</time></trkpt>
<trkpt lat="29.553872" lon="98.208417">
<time>2016-10-07T17:21:39Z</time></trkpt>
<trkpt lat="29.553962" lon="98.208257">
<time>2016-10-07T17:21:40Z</time></trkpt>
<trkpt lat="29.554041" lon="98.208127">
<time>2016-10-07T17:21:41Z</time></trkpt>
<trkpt lat="29.554121" lon="98.208047">
<time>2016-10-07T17:21:42Z</time></trkpt>
<trkpt lat="29.554181" lon="98.207997">
<time>2016-10-07T17:21:43Z</time></trkpt>
<trkpt lat="29.554311" lon="98.207916">
<time>2016-10-07T17:21:44Z</time></trkpt>
<trkpt lat="29.554481" lon="98.207826">
<time>2016-10-07T17:21:45Z</time></trkpt>
<trkpt lat="29.554641" lon="98.207736">
<time>2016-10-07T17:21:46Z</time></trkpt>
<trkpt lat="29.55482" lon="98.207636">
<time>2016-10-07T17:21:47Z</time></trkpt>
<trkpt lat="29.55495" lon="98.207536">
<time>2016-10-07T17:21:48Z</time></trkpt>
<trkpt lat="29.55501" lon="98.207476">
<time>2016-10-07T17:21:49Z</time></trkpt>
<trkpt lat="29.55505" lon="98.207436">
<time>2016-10-07T17:21:50Z</time></trkpt>
<trkpt lat="29.55511" lon="98.207365">
<time>2016-10-07T17:21:51Z</time></trkpt>
<trkpt lat="29.5552" lon="98.207245">
<time>2016-10-07T17:21:52Z</time></trkpt>
<trkpt lat="29.555329" lon="98.207005">
<time>2016-10-07T17:21:53Z</time></trkpt>
<trkpt lat="29.555389" lon="98.206895">
<time>2016-10-07T17:21:54Z</time></trkpt>
<trkpt lat="29.555489" lon="98.206734">
<time>2016-10-07T17:21:55Z</time></trkpt>
<trkpt lat="29.555579" lon="98.206604">
<time>2016-10-07T17:21:56Z</time></trkpt>
<trkpt lat="29.555659" lon="98.206504">
<time>2016-10-07T17:21:57Z</time></trkpt>
<trkpt lat="29.555938" lon="98.206193">
<time>2016-10-07T17:21:58Z</time></trkpt>
<trkpt lat="29.556038" lon="98.206053">
<time>2016-10-07T17:21:59Z</time></trkpt>
<trkpt lat="29.556187" lon="98.205843">
<time>2016-10-07T17:22:00Z</time></trkpt>
<trkpt lat="29.556277" lon="98.205663">
<time>2016-10-07T17:22:01Z</time></trkpt>
<trkpt lat="29.556327" lon="98.205532">
<time>2016-10-07T17:22:02Z</time></trkpt>
<trkpt lat="29.556347" lon="98.205442">
<time>2016-10-07T17:22:03Z</time></trkpt>
<trkpt lat="29.556387" lon="98.205292">
<time>2016-10-07T17:22:04Z</time></trkpt>
<trkpt lat="29.556416" lon="98.205082">
<time>2016-10-07T17:22:05Z</time></trkpt>
<trkpt lat="29.556436" lon="98.204761">
<time>2016-10-07T17:22:06Z</time></trkpt>
<trkpt lat="29.556445" lon="98.204521">
<time>2016-10-07T17:22:07Z</time></trkpt>
<trkpt lat="29.556455" lon="98.20443">
<time>2016-10-07T17:22:08Z</time></trkpt>
<trkpt lat="29.556465" lon="98.20438">
<time>2016-10-07T17:22:09Z</time></trkpt>
<trkpt lat="29.556475" lon="98.20435">
<time>2016-10-07T17:22:10Z</time></trkpt>
<trkpt lat="29.556495" lon="98.20432">
<time>2016-10-07T17:22:11Z</time></trkpt>
<trkpt lat="29.556515" lon="98.20429">
<time>2016-10-07T17:22:12Z</time></trkpt>
<trkpt lat="29.556535" lon="98.20428">
<time>2016-10-07T17:22:13Z</time></trkpt>
<trkpt lat="29.556545" lon="98.20427">
<time>2016-10-07T17:22:14Z</time></trkpt>
<trkpt lat="29.556575" lon="98.20426">
<time>2016-10-07T17:22:15Z</time></trkpt>
<trkpt lat="29.556605" lon="98.20426">
<time>2016-10-07T17:22:16Z</time></trkpt>
<trkpt lat="29.556625" lon="98.20427">
<time>2016-10-07T17:22:17Z</time></trkpt>
<trkpt lat="29.556655" lon="98.20428">
<time>2016-10-07T17:22:18Z</time></trkpt>
<trkpt lat="29.556665" lon="98.20428">
<time>2016-10-07T17:22:19Z</time></trkpt>
<trkpt lat="29.556685" lon="98.2043">
<time>2016-10-07T17:22:20Z</time></trkpt>
<trkpt lat="29.556705" lon="98.20432">
<time>2016-10-07T17:22:21Z</time></trkpt>
<trkpt lat="29.556715" lon="98.20434">
<time>2016-10-07T17:22:22Z</time></trkpt>
<trkpt lat="29.556735" lon="98.20439">
<time>2016-10-07T17:22:23Z</time></trkpt>
<trkpt lat="29.556735" lon="98.20444">
<time>2016-10-07T17:22:24Z</time></trkpt>
<trkpt lat="29.556755" lon="98.204551">
<time>2016-10-07T17:22:25Z</time></trkpt>
<trkpt lat="29.556766" lon="98.204861">
<time>2016-10-07T17:22:26Z</time></trkpt>
<trkpt lat="29.556776" lon="98.205232">
<time>2016-10-07T17:22:27Z</time></trkpt>
<trkpt lat="29.556787" lon="98.205442">
<time>2016-10-07T17:22:28Z</time></trkpt>
<trkpt lat="29.556767" lon="98.205572">
<time>2016-10-07T17:22:29Z</time></trkpt>
<trkpt lat="29.556747" lon="98.205723">
<time>2016-10-07T17:22:30Z</time></trkpt>
<trkpt lat="29.556727" lon="98.205823">
<time>2016-10-07T17:22:31Z</time></trkpt>
<trkpt lat="29.556697" lon="98.205903">
<time>2016-10-07T17:22:32Z</time></trkpt>
<trkpt lat="29.556657" lon="98.205993">
<time>2016-10-07T17:22:33Z</time></trkpt>
<trkpt lat="29.556608" lon="98.206093">
<time>2016-10-07T17:22:34Z</time></trkpt>
<trkpt lat="29.556548" lon="98.206193">
<time>2016-10-07T17:22:35Z</time></trkpt>
<trkpt lat="29.556478" lon="98.206294">
<time>2016-10-07T17:22:36Z</time></trkpt>
<trkpt lat="29.556378" lon="98.206464">
<time>2016-10-07T17:22:37Z</time></trkpt>
<trkpt lat="29.556308" lon="98.206594">
<time>2016-10-07T17:22:38Z</time></trkpt>
<trkpt lat="29.556289" lon="98.206644">
<time>2016-10-07T17:22:39Z</time></trkpt>
<trkpt lat="29.556289" lon="98.206684">
<time>2016-10-07T17:22:40Z</time></trkpt>
<trkpt lat="29.556289" lon="98.206734">
<time>2016-10-07T17:22:41Z</time></trkpt>
<trkpt lat="29.556299" lon="98.206764">
<time>2016-10-07T17:22:42Z</time></trkpt>
<trkpt lat="29.556309" lon="98.206784">
<time>2016-10-07T17:22:43Z</time></trkpt>
<trkpt lat="29.556319" lon="98.206804">
<time>2016-10-07T17:22:44Z</time></trkpt>
<trkpt lat="29.556349" lon="98.206825">
<time>2016-10-07T17:22:45Z</time></trkpt>
<trkpt lat="29.556379" lon="98.206825">
<time>2016-10-07T17:22:46Z</time></trkpt>
<trkpt lat="29.556409" lon="98.206825">
<time>2016-10-07T17:22:47Z</time></trkpt>
<trkpt lat="29.556439" lon="98.206825">
<time>2016-10-07T17:22:48Z</time></trkpt>
<trkpt lat="29.556469" lon="98.206804">
<time>2016-10-07T17:22:49Z</time></trkpt>
<trkpt lat="29.556499" lon="98.206774">
<time>2016-10-07T17:22:50Z</time></trkpt>
<trkpt lat="29.556529" lon="98.206734">
<time>2016-10-07T17:22:51Z</time></trkpt>
<trkpt lat="29.556618" lon="98.206544">
<time>2016-10-07T17:22:52Z</time></trkpt>
<trkpt lat="29.556698" lon="98.206334">
<time>2016-10-07T17:22:53Z</time></trkpt>
<trkpt lat="29.556788" lon="98.206133">
<time>2016-10-07T17:22:54Z</time></trkpt>
<trkpt lat="29.556817" lon="98.206053">
<time>2016-10-07T17:22:55Z</time></trkpt>
<trkpt lat="29.556907" lon="98.205853">
<time>2016-10-07T17:22:56Z</time></trkpt>
<trkpt lat="29.556957" lon="98.205723">
<time>2016-10-07T17:22:57Z</time></trkpt>
<trkpt lat="29.557057" lon="98.205462">
<time>2016-10-07T17:22:58Z</time></trkpt>
<trkpt lat="29.557106" lon="98.205302">
<time>2016-10-07T17:22:59Z</time></trkpt>
<trkpt lat="29.557146" lon="98.205081">
<time>2016-10-07T17:23:00Z</time></trkpt>
<trkpt lat="29.557156" lon="98.204851">
<time>2016-10-07T17:23:01Z</time></trkpt>
<trkpt lat="29.557165" lon="98.204681">
<time>2016-10-07T17:23:02Z</time></trkpt>
<trkpt lat="29.557165" lon="98.204551">
<time>2016-10-07T17:23:03Z</time></trkpt>
<trkpt lat="29.557145" lon="98.20436">
<time>2016-10-07T17:23:04Z</time></trkpt>
<trkpt lat="29.557105" lon="98.20408">
<time>2016-10-07T17:23:05Z</time></trkpt>
<trkpt lat="29.557054" lon="98.203829">
<time>2016-10-07T17:23:06Z</time></trkpt>
<trkpt lat="29.557044" lon="98.203709">
<time>2016-10-07T17:23:07Z</time></trkpt>
<trkpt lat="29.557044" lon="98.203599">
<time>2016-10-07T17:23:08Z</time></trkpt>
<trkpt lat="29.557054" lon="98.203469">
<time>2016-10-07T17:23:09Z</time></trkpt>
<trkpt lat="29.557073" lon="98.203368">
<time>2016-10-07T17:23:10Z</time></trkpt>
<trkpt lat="29.557093" lon="98.203228">
<time>2016-10-07T17:23:11Z</time></trkpt>
<trkpt lat="29.557103" lon="98.203048">
<time>2016-10-07T17:23:12Z</time></trkpt>
<trkpt lat="29.557103" lon="98.202838">
<time>2016-10-07T17:23:13Z</time></trkpt>
<trkpt lat="29.557102" lon="98.202697">
<time>2016-10-07T17:23:14Z</time></trkpt>
<trkpt lat="29.557112" lon="98.202577">
<time>2016-10-07T17:23:15Z</time></trkpt>
<trkpt lat="29.557152" lon="98.202447">
<time>2016-10-07T17:23:16Z</time></trkpt>
<trkpt lat="29.557182" lon="98.202357">
<time>2016-10-07T17:23:17Z</time></trkpt>
<trkpt lat="29.557192" lon="98.202327">
<time>2016-10-07T17:23:18Z</time></trkpt>
<trkpt lat="29.557202" lon="98.202287">
<time>2016-10-07T17:23:19Z</time></trkpt>
<trkpt lat="29.557242" lon="98.202176">
<time>2016-10-07T17:23:20Z</time></trkpt>
<trkpt lat="29.557251" lon="98.202096">
<time>2016-10-07T17:23:21Z</time></trkpt>
<trkpt lat="29.557251" lon="98.202016">
<time>2016-10-07T17:23:22Z</time></trkpt>
<trkpt lat="29.557261" lon="98.201846">
<time>2016-10-07T17:23:23Z</time></trkpt>
<trkpt lat="29.557221" lon="98.201615">
<time>2016-10-07T17:23:24Z</time></trkpt>
<trkpt lat="29.55719" lon="98.201345">
<time>2016-10-07T17:23:25Z</time></trkpt>
<trkpt lat="29.55719" lon="98.201144">
<time>2016-10-07T17:23:26Z</time></trkpt>
<trkpt lat="29.5572" lon="98.201014">
<time>2016-10-07T17:23:27Z</time></trkpt>
<trkpt lat="29.55722" lon="98.200864">
<time>2016-10-07T17:23:28Z</time></trkpt>
<trkpt lat="29.557299" lon="98.200603">
<time>2016-10-07T17:23:29Z</time></trkpt>
<trkpt lat="29.557409" lon="98.200333">
<time>2016-10-07T17:23:30Z</time></trkpt>
<trkpt lat="29.557488" lon="98.200123">
<time>2016-10-07T17:23:31Z</time></trkpt>
<trkpt lat="29.557548" lon="98.199932">
<time>2016-10-07T17:23:32Z</time></trkpt>
<trkpt lat="29.557608" lon="98.199712">
<time>2016-10-07T17:23:33Z</time></trkpt>
<trkpt lat="29.557657" lon="98.199561">
<time>2016-10-07T17:23:34Z</time></trkpt>
<trkpt lat="29.557727" lon="98.199421">
<time>2016-10-07T17:23:35Z</time></trkpt>
<trkpt lat="29.557787" lon="98.199291">
<time>2016-10-07T17:23:36Z</time></trkpt>
<trkpt lat="29.557897" lon="98.199141">
<time>2016-10-07T17:23:37Z</time></trkpt>
<trkpt lat="29.558056" lon="98.19886">
<time>2016-10-07T17:23:38Z</time></trkpt>
<trkpt lat="29.558196" lon="98.19866">
<time>2016-10-07T17:23:39Z</time></trkpt>
<trkpt lat="29.558345" lon="98.198479">
<time>2016-10-07T17:23:40Z</time></trkpt>
<trkpt lat="29.558485" lon="98.198339">
<time>2016-10-07T17:23:41Z</time></trkpt>
<trkpt lat="29.558585" lon="98.198239">
<time>2016-10-07T17:23:42Z</time></trkpt>
<trkpt lat="29.558655" lon="98.198159">
<time>2016-10-07T17:23:43Z</time></trkpt>
<trkpt lat="29.558705" lon="98.198069">
<time>2016-10-07T17:23:44Z</time></trkpt>
<trkpt lat="29.558724" lon="98.198008">
<time>2016-10-07T17:23:45Z</time></trkpt>
<trkpt lat="29.558734" lon="98.197928">
<time>2016-10-07T17:23:46Z</time></trkpt>
<trkpt lat="29.558734" lon="98.197798">
<time>2016-10-07T17:23:47Z</time></trkpt>
<trkpt lat="29.558714" lon="98.197668">
<time>2016-10-07T17:23:48Z</time></trkpt>
<trkpt lat="29.558684" lon="98.197548">
<time>2016-10-07T17:23:49Z</time></trkpt>
<trkpt lat="29.558674" lon="98.197437">
<time>2016-10-07T17:23:50Z</time></trkpt>
<trkpt lat="29.558683" lon="98.197267">
<time>2016-10-07T17:23:51Z</time></trkpt>
<trkpt lat="29.558693" lon="98.197137">
<time>2016-10-07T17:23:52Z</time></trkpt>
<trkpt lat="29.558733" lon="98.196976">
<time>2016-10-07T17:23:53Z</time></trkpt>
<trkpt lat="29.558802" lon="98.196776">
<time>2016-10-07T17:23:54Z</time></trkpt>
<trkpt lat="29.558882" lon="98.196486">
<time>2016-10-07T17:23:55Z</time></trkpt>
<trkpt lat="29.558912" lon="98.196365">
<time>2016-10-07T17:23:56Z</time></trkpt>
<trkpt lat="29.558931" lon="98.196165">
<time>2016-10-07T17:23:57Z</time></trkpt>
<trkpt lat="29.558921" lon="98.195985">
<time>2016-10-07T17:23:58Z</time></trkpt>
<trkpt lat="29.558911" lon="98.195864">
<time>2016-10-07T17:23:59Z</time></trkpt>
<trkpt lat="29.558891" lon="98.195724">
<time>2016-10-07T17:24:00Z</time></trkpt>
<trkpt lat="29.55883" lon="98.195464">
<time>2016-10-07T17:24:01Z</time></trkpt>
<trkpt lat="29.55875" lon="98.195103">
<time>2016-10-07T17:24:02Z</time></trkpt>
<trkpt lat="29.558719" lon="98.194872">
<time>2016-10-07T17:24:03Z</time></trkpt>
<trkpt lat="29.558709" lon="98.194722">
<time>2016-10-07T17:24:04Z</time></trkpt>
<trkpt lat="29.558719" lon="98.194632">
<time>2016-10-07T17:24:05Z</time></trkpt>
<trkpt lat="29.558739" lon="98.194542">
<time>2016-10-07T17:24:06Z</time></trkpt>
<trkpt lat="29.558759" lon="98.194482">
<time>2016-10-07T17:24:07Z</time></trkpt>
<trkpt lat="29.558789" lon="98.194441">
<time>2016-10-07T17:24:08Z</time></trkpt>
<trkpt lat="29.558818" lon="98.194391">
<time>2016-10-07T17:24:09Z</time></trkpt>
<trkpt lat="29.558868" lon="98.194341">
<time>2016-10-07T17:24:10Z</time></trkpt>
<trkpt lat="29.558948" lon="98.194291">
<time>2016-10-07T17:24:11Z</time></trkpt>
<trkpt lat="29.559048" lon="98.194241">
<time>2016-10-07T17:24:12Z</time></trkpt>
<trkpt lat="29.559168" lon="98.194211">
<time>2016-10-07T17:24:13Z</time></trkpt>
<trkpt lat="29.559228" lon="98.194211">
<time>2016-10-07T17:24:14Z</time></trkpt>
<trkpt lat="29.559308" lon="98.194211">
<time>2016-10-07T17:24:15Z</time></trkpt>
<trkpt lat="29.559378" lon="98.194211">
<time>2016-10-07T17:24:16Z</time></trkpt>
<trkpt lat="29.559448" lon="98.194231">
<time>2016-10-07T17:24:17Z</time></trkpt>
<trkpt lat="29.559528" lon="98.194261">
<time>2016-10-07T17:24:18Z</time></trkpt>
<trkpt lat="29.559658" lon="98.194321">
<time>2016-10-07T17:24:19Z</time></trkpt>
<trkpt lat="29.559778" lon="98.194411">
<time>2016-10-07T17:24:20Z</time></trkpt>
<trkpt lat="29.559888" lon="98.194472">
<time>2016-10-07T17:24:21Z</time></trkpt>
<trkpt lat="29.559948" lon="98.194472">
<time>2016-10-07T17:24:22Z</time></trkpt>
<trkpt lat="29.560008" lon="98.194472">
<time>2016-10-07T17:24:23Z</time></trkpt>
<trkpt lat="29.560048" lon="98.194461">
<time>2016-10-07T17:24:24Z</time></trkpt>
<trkpt lat="29.560088" lon="98.194441">
<time>2016-10-07T17:24:25Z</time></trkpt>
<trkpt lat="29.560138" lon="98.194401">
<time>2016-10-07T17:24:26Z</time></trkpt>
<trkpt lat="29.560248" lon="98.194311">
<time>2016-10-07T17:24:27Z</time></trkpt>
<trkpt lat="29.560398" lon="98.194181">
<time>2016-10-07T17:24:28Z</time></trkpt>
<trkpt lat="29.560567" lon="98.194021">
<time>2016-10-07T17:24:29Z</time></trkpt>
<trkpt lat="29.560737" lon="98.19388">
<time>2016-10-07T17:24:30Z</time></trkpt>
<trkpt lat="29.560887" lon="98.19374">
<time>2016-10-07T17:24:31Z</time></trkpt>
<trkpt lat="29.560956" lon="98.19365">
<time>2016-10-07T17:24:32Z</time></trkpt>
<trkpt lat="29.561006" lon="98.19356">
<time>2016-10-07T17:24:33Z</time></trkpt>
<trkpt lat="29.561036" lon="98.19349">
<time>2016-10-07T17:24:34Z</time></trkpt>
<trkpt lat="29.561116" lon="98.193289">
<time>2016-10-07T17:24:35Z</time></trkpt>
<trkpt lat="29.561195" lon="98.193069">
<time>2016-10-07T17:24:36Z</time></trkpt>
<trkpt lat="29.561285" lon="98.192848">
<time>2016-10-07T17:24:37Z</time></trkpt>
<trkpt lat="29.561365" lon="98.192668">
<time>2016-10-07T17:24:38Z</time></trkpt>
<trkpt lat="29.561414" lon="98.192538">
<time>2016-10-07T17:24:39Z</time></trkpt>
<trkpt lat="29.561444" lon="98.192387">
<time>2016-10-07T17:24:40Z</time></trkpt>
<trkpt lat="29.561464" lon="98.192277">
<time>2016-10-07T17:24:41Z</time></trkpt>
<trkpt lat="29.561474" lon="98.192167">
<time>2016-10-07T17:24:42Z</time></trkpt>
<trkpt lat="29.561474" lon="98.192067">
<time>2016-10-07T17:24:43Z</time></trkpt>
<trkpt lat="29.561453" lon="98.191856">
<time>2016-10-07T17:24:44Z</time></trkpt>
<trkpt lat="29.561413" lon="98.191606">
<time>2016-10-07T17:24:45Z</time></trkpt>
<trkpt lat="29.561392" lon="98.191385">
<time>2016-10-07T17:24:46Z</time></trkpt>
<trkpt lat="29.561392" lon="98.191215">
<time>2016-10-07T17:24:47Z</time></trkpt>
<trkpt lat="29.561402" lon="98.191095">
<time>2016-10-07T17:24:48Z</time></trkpt>
<trkpt lat="29.561412" lon="98.191024">
<time>2016-10-07T17:24:49Z</time></trkpt>
<trkpt lat="29.561432" lon="98.190944">
<time>2016-10-07T17:24:50Z</time></trkpt>
<trkpt lat="29.561471" lon="98.190834">
<time>2016-10-07T17:24:51Z</time></trkpt>
<trkpt lat="29.561531" lon="98.190704">
<time>2016-10-07T17:24:52Z</time></trkpt>
<trkpt lat="29.561601" lon="98.190604">
<time>2016-10-07T17:24:53Z</time></trkpt>
<trkpt lat="29.561711" lon="98.190463">
<time>2016-10-07T17:24:54Z</time></trkpt>
<trkpt lat="29.5619" lon="98.190263">
<time>2016-10-07T17:24:55Z</time></trkpt>
<trkpt lat="29.56213" lon="98.190022">
<time>2016-10-07T17:24:56Z</time></trkpt>
<trkpt lat="29.56228" lon="98.189872">
<time>2016-10-07T17:24:57Z</time></trkpt>
<trkpt lat="29.562429" lon="98.189712">
<time>2016-10-07T17:24:58Z</time></trkpt>
<trkpt lat="29.562489" lon="98.189642">
<time>2016-10-07T17:24:59Z</time></trkpt>
<trkpt lat="29.562549" lon="98.189551">
<time>2016-10-07T17:25:00Z</time></trkpt>
<trkpt lat="29.562609" lon="98.189431">
<time>2016-10-07T17:25:01Z</time></trkpt>
<trkpt lat="29.562648" lon="98.189301">
<time>2016-10-07T17:25:02Z</time></trkpt>
<trkpt lat="29.562698" lon="98.189161">
<time>2016-10-07T17:25:03Z</time></trkpt>
<trkpt lat="29.562758" lon="98.18901">
<time>2016-10-07T17:25:04Z</time></trkpt>
<trkpt lat="29.562818" lon="98.1889">
<time>2016-10-07T17:25:05Z</time></trkpt>
<trkpt lat="29.562857" lon="98.18884">
<time>2016-10-07T17:25:06Z</time></trkpt>
<trkpt lat="29.562907" lon="98.18879">
<time>2016-10-07T17:25:07Z</time></trkpt>
<trkpt lat="29.562967" lon="98.18873">
<time>2016-10-07T17:25:08Z</time></trkpt>
<trkpt lat="29.563077" lon="98.188649">
<time>2016-10-07T17:25:09Z</time></trkpt>
<trkpt lat="29.563207" lon="98.188569">
<time>2016-10-07T17:25:10Z</time></trkpt>
<trkpt lat="29.563327" lon="98.188509">
<time>2016-10-07T17:25:11Z</time></trkpt>
<trkpt lat="29.563427" lon="98.188439">
<time>2016-10-07T17:25:12Z</time></trkpt>
<trkpt lat="29.563536" lon="98.188339">
<time>2016-10-07T17:25:13Z</time></trkpt>
<trkpt lat="29.563586" lon="98.188289">
<time>2016-10-07T17:25:14Z</time></trkpt>
<trkpt lat="29.563666" lon="98.188209">
<time>2016-10-07T17:25:15Z</time></trkpt>
<trkpt lat="29.563716" lon="98.188108">
<time>2016-10-07T17:25:16Z</time></trkpt>
<trkpt lat="29.563766" lon="98.188018">
<time>2016-10-07T17:25:17Z</time></trkpt>
<trkpt lat="29.563845" lon="98.187858">
<time>2016-10-07T17:25:18Z</time></trkpt>
<trkpt lat="29.563945" lon="98.187637">
<time>2016-10-07T17:25:19Z</time></trkpt>
<trkpt lat="29.564045" lon="98.187427">
<time>2016-10-07T17:25:20Z</time></trkpt>
<trkpt lat="29.564144" lon="98.187307">
<time>2016-10-07T17:25:21Z</time></trkpt>
<trkpt lat="29.564224" lon="98.187226">
<time>2016-10-07T17:25:22Z</time></trkpt>
<trkpt lat="29.564364" lon="98.187116">
<time>2016-10-07T17:25:23Z</time></trkpt>
<trkpt lat="29.564474" lon="98.187046">
<time>2016-10-07T17:25:24Z</time></trkpt>
<trkpt lat="29.564564" lon="98.186986">
<time>2016-10-07T17:25:25Z</time></trkpt>
<trkpt lat="29.564624" lon="98.186946">
<time>2016-10-07T17:25:26Z</time></trkpt>
<trkpt lat="29.564683" lon="98.186886">
<time>2016-10-07T17:25:27Z</time></trkpt>
<trkpt lat="29.564713" lon="98.186856">
<time>2016-10-07T17:25:28Z</time></trkpt>
<trkpt lat="29.564733" lon="98.186826">
<time>2016-10-07T17:25:29Z</time></trkpt>
<trkpt lat="29.564743" lon="98.186785">
<time>2016-10-07T17:25:30Z</time></trkpt>
<trkpt lat="29.564753" lon="98.186735">
<time>2016-10-07T17:25:31Z</time></trkpt>
<trkpt lat="29.564753" lon="98.186705">
<time>2016-10-07T17:25:32Z</time></trkpt>
<trkpt lat="29.564753" lon="98.186675">
<time>2016-10-07T17:25:33Z</time></trkpt>
<trkpt lat="29.564743" lon="98.186635">
<time>2016-10-07T17:25:34Z</time></trkpt>
<trkpt lat="29.564723" lon="98.186615">
<time>2016-10-07T17:25:35Z</time></trkpt>
<trkpt lat="29.564703" lon="98.186595">
<time>2016-10-07T17:25:36Z</time></trkpt>
<trkpt lat="29.564683" lon="98.186575">
<time>2016-10-07T17:25:37Z</time></trkpt>
<trkpt lat="29.564643" lon="98.186555">
<time>2016-10-07T17:25:38Z</time></trkpt>
<trkpt lat="29.564593" lon="98.186555">
<time>2016-10-07T17:25:39Z</time></trkpt>
<trkpt lat="29.564553" lon="98.186565">
<time>2016-10-07T17:25:40Z</time></trkpt>
<trkpt lat="29.564533" lon="98.186575">
<time>2016-10-07T17:25:41Z</time></trkpt>
<trkpt lat="29.564503" lon="98.186605">
<time>2016-10-07T17:25:42Z</time></trkpt>
<trkpt lat="29.564443" lon="98.186675">
<time>2016-10-07T17:25:43Z</time></trkpt>
<trkpt lat="29.564373" lon="98.186755">
<time>2016-10-07T17:25:44Z</time></trkpt>
<trkpt lat="29.564254" lon="98.186896">
<time>2016-10-07T17:25:45Z</time></trkpt>
<trkpt lat="29.564074" lon="98.187066">
<time>2016-10-07T17:25:46Z</time></trkpt>
<trkpt lat="29.563924" lon="98.187216">
<time>2016-10-07T17:25:47Z</time></trkpt>
<trkpt lat="29.563834" lon="98.187307">
<time>2016-10-07T17:25:48Z</time></trkpt>
<trkpt lat="29.563745" lon="98.187417">
<time>2016-10-07T17:25:49Z</time></trkpt>
<trkpt lat="29.563675" lon="98.187537">
<time>2016-10-07T17:25:50Z</time></trkpt>
<trkpt lat="29.563615" lon="98.187647">
<time>2016-10-07T17:25:51Z</time></trkpt>
<trkpt lat="29.563565" lon="98.187738">
<time>2016-10-07T17:25:52Z</time></trkpt>
<trkpt lat="29.563515" lon="98.187778">
<time>2016-10-07T17:25:53Z</time></trkpt>
<trkpt lat="29.563495" lon="98.187788">
<time>2016-10-07T17:25:54Z</time></trkpt>
<trkpt lat="29.563475" lon="98.187798">
<time>2016-10-07T17:25:55Z</time></trkpt>
<trkpt lat="29.563455" lon="98.187798">
<time>2016-10-07T17:25:56Z</time></trkpt>
<trkpt lat="29.563435" lon="98.187798">
<time>2016-10-07T17:25:57Z</time></trkpt>
<trkpt lat="29.563425" lon="98.187788">
<time>2016-10-07T17:25:58Z</time></trkpt>
<trkpt lat="29.563405" lon="98.187768">
<time>2016-10-07T17:25:59Z</time></trkpt>
<trkpt lat="29.563385" lon="98.187738">
<time>2016-10-07T17:26:00Z</time></trkpt>
<trkpt lat="29.563375" lon="98.187718">
<time>2016-10-07T17:26:01Z</time></trkpt>
<trkpt lat="29.563365" lon="98.187697">
<time>2016-10-07T17:26:02Z</time></trkpt>
<trkpt lat="29.563355" lon="98.187657">
<time>2016-10-07T17:26:03Z</time></trkpt>
<trkpt lat="29.563355" lon="98.187607">
<time>2016-10-07T17:26:04Z</time></trkpt>
<trkpt lat="29.563365" lon="98.187557">
<time>2016-10-07T17:26:05Z</time></trkpt>
<trkpt lat="29.563395" lon="98.187517">
<time>2016-10-07T17:26:06Z</time></trkpt>
<trkpt lat="29.563435" lon="98.187467">
<time>2016-10-07T17:26:07Z</time></trkpt>
<trkpt lat="29.563545" lon="98.187367">
<time>2016-10-07T17:26:08Z</time></trkpt>
<trkpt lat="29.563604" lon="98.187297">
<time>2016-10-07T17:26:09Z</time></trkpt>
<trkpt lat="29.563674" lon="98.187226">
<time>2016-10-07T17:26:10Z</time></trkpt>
<trkpt lat="29.563794" lon="98.187066">
<time>2016-10-07T17:26:11Z</time></trkpt>
<trkpt lat="29.563984" lon="98.186826">
<time>2016-10-07T17:26:12Z</time></trkpt>
<trkpt lat="29.564183" lon="98.186605">
<time>2016-10-07T17:26:13Z</time></trkpt>
<trkpt lat="29.564293" lon="98.186475">
<time>2016-10-07T17:26:14Z</time></trkpt>
<trkpt lat="29.564422" lon="98.186294">
<time>2016-10-07T17:26:15Z</time></trkpt>
<trkpt lat="29.564512" lon="98.186094">
<time>2016-10-07T17:26:16Z</time></trkpt>
<trkpt lat="29.564562" lon="98.185944">
<time>2016-10-07T17:26:17Z</time></trkpt>
<trkpt lat="29.564631" lon="98.185683">
<time>2016-10-07T17:26:18Z</time></trkpt>
<trkpt lat="29.564691" lon="98.185533">
<time>2016-10-07T17:26:19Z</time></trkpt>
<trkpt lat="29.564741" lon="98.185423">
<time>2016-10-07T17:26:20Z</time></trkpt>
<trkpt lat="29.56482" lon="98.185292">
<time>2016-10-07T17:26:21Z</time></trkpt>
<trkpt lat="29.56495" lon="98.185122">
<time>2016-10-07T17:26:22Z</time></trkpt>
<trkpt lat="29.56503" lon="98.184962">
<time>2016-10-07T17:26:23Z</time></trkpt>
<trkpt lat="29.56507" lon="98.184851">
<time>2016-10-07T17:26:24Z</time></trkpt>
<trkpt lat="29.565139" lon="98.184631">
<time>2016-10-07T17:26:25Z</time></trkpt>
<trkpt lat="29.565159" lon="98.184581">
<time>2016-10-07T17:26:26Z</time></trkpt>
<trkpt lat="29.565189" lon="98.184531">
<time>2016-10-07T17:26:27Z</time></trkpt>
<trkpt lat="29.565209" lon="98.184491">
<time>2016-10-07T17:26:28Z</time></trkpt>
<trkpt lat="29.565239" lon="98.18446">
<time>2016-10-07T17:26:29Z</time></trkpt>
<trkpt lat="29.565319" lon="98.1844">
<time>2016-10-07T17:26:30Z</time></trkpt>
<trkpt lat="29.565419" lon="98.18436">
<time>2016-10-07T17:26:31Z</time></trkpt>
<trkpt lat="29.565489" lon="98.18434">
<time>2016-10-07T17:26:32Z</time></trkpt>
<trkpt lat="29.565558" lon="98.18434">
<time>2016-10-07T17:26:33Z</time></trkpt>
<trkpt lat="29.565608" lon="98.18435">
<time>2016-10-07T17:26:34Z</time></trkpt>
<trkpt lat="29.565658" lon="98.18436">
<time>2016-10-07T17:26:35Z</time></trkpt>
<trkpt lat="29.565729" lon="98.18439">
<time>2016-10-07T17:26:36Z</time></trkpt>
<trkpt lat="29.565769" lon="98.18442">
<time>2016-10-07T17:26:37Z</time></trkpt>
<trkpt lat="29.565809" lon="98.18446">
<time>2016-10-07T17:26:38Z</time></trkpt>
<trkpt lat="29.565869" lon="98.184541">
<time>2016-10-07T17:26:39Z</time></trkpt>
<trkpt lat="29.565919" lon="98.184631">
<time>2016-10-07T17:26:40Z</time></trkpt>
<trkpt lat="29.565989" lon="98.184791">
<time>2016-10-07T17:26:41Z</time></trkpt>
<trkpt lat="29.566019" lon="98.184851">
<time>2016-10-07T17:26:42Z</time></trkpt>
<trkpt lat="29.566069" lon="98.184942">
<time>2016-10-07T17:26:43Z</time></trkpt>
<trkpt lat="29.56616" lon="98.185042">
<time>2016-10-07T17:26:44Z</time></trkpt>
<trkpt lat="29.56629" lon="98.185152">
<time>2016-10-07T17:26:45Z</time></trkpt>
<trkpt lat="29.56636" lon="98.185182">
<time>2016-10-07T17:26:46Z</time></trkpt>
<trkpt lat="29.56642" lon="98.185202">
<time>2016-10-07T17:26:47Z</time></trkpt>
<trkpt lat="29.56646" lon="98.185202">
<time>2016-10-07T17:26:48Z</time></trkpt>
<trkpt lat="29.56651" lon="98.185202">
<time>2016-10-07T17:26:49Z</time></trkpt>
<trkpt lat="29.5666" lon="98.185182">
<time>2016-10-07T17:26:50Z</time></trkpt>
<trkpt lat="29.56668" lon="98.185152">
<time>2016-10-07T17:26:51Z</time></trkpt>
<trkpt lat="29.566779" lon="98.185092">
<time>2016-10-07T17:26:52Z</time></trkpt>
<trkpt lat="29.566889" lon="98.185022">
<time>2016-10-07T17:26:53Z</time></trkpt>
<trkpt lat="29.566979" lon="98.184962">
<time>2016-10-07T17:26:54Z</time></trkpt>
<trkpt lat="29.567029" lon="98.184941">
<time>2016-10-07T17:26:55Z</time></trkpt>
<trkpt lat="29.567089" lon="98.184921">
<time>2016-10-07T17:26:56Z</time></trkpt>
<trkpt lat="29.567149" lon="98.184911">
<time>2016-10-07T17:26:57Z</time></trkpt>
<trkpt lat="29.567199" lon="98.184921">
<time>2016-10-07T17:26:58Z</time></trkpt>
<trkpt lat="29.567279" lon="98.184931">
<time>2016-10-07T17:26:59Z</time></trkpt>
<trkpt lat="29.567349" lon="98.184972">
<time>2016-10-07T17:27:00Z</time></trkpt>
<trkpt lat="29.567439" lon="98.185012">
<time>2016-10-07T17:27:01Z</time></trkpt>
<trkpt lat="29.567579" lon="98.185102">
<time>2016-10-07T17:27:02Z</time></trkpt>
<trkpt lat="29.567839" lon="98.185252">
<time>2016-10-07T17:27:03Z</time></trkpt>
<trkpt lat="29.56807" lon="98.185382">
<time>2016-10-07T17:27:04Z</time></trkpt>
<trkpt lat="29.5682" lon="98.185473">
<time>2016-10-07T17:27:05Z</time></trkpt>
<trkpt lat="29.5684" lon="98.185603">
<time>2016-10-07T17:27:06Z</time></trkpt>
<trkpt lat="29.56855" lon="98.185703">
<time>2016-10-07T17:27:07Z</time></trkpt>
<trkpt lat="29.5686" lon="98.185743">
<time>2016-10-07T17:27:08Z</time></trkpt>
<trkpt lat="29.56867" lon="98.185773">
<time>2016-10-07T17:27:09Z</time></trkpt>
<trkpt lat="29.56875" lon="98.185793">
<time>2016-10-07T17:27:10Z</time></trkpt>
<trkpt lat="29.56881" lon="98.185813">
<time>2016-10-07T17:27:11Z</time></trkpt>
<trkpt lat="29.5689" lon="98.185823">
<time>2016-10-07T17:27:12Z</time></trkpt>
<trkpt lat="29.56899" lon="98.185813">
<time>2016-10-07T17:27:13Z</time></trkpt>
<trkpt lat="29.56911" lon="98.185803">
<time>2016-10-07T17:27:14Z</time></trkpt>
<trkpt lat="29.56922" lon="98.185783">
<time>2016-10-07T17:27:15Z</time></trkpt>
<trkpt lat="29.56934" lon="98.185773">
<time>2016-10-07T17:27:16Z</time></trkpt>
<trkpt lat="29.56952" lon="98.185753">
<time>2016-10-07T17:27:17Z</time></trkpt>
<trkpt lat="29.56973" lon="98.185763">
<time>2016-10-07T17:27:18Z</time></trkpt>
<trkpt lat="29.56986" lon="98.185773">
<time>2016-10-07T17:27:19Z</time></trkpt>
<trkpt lat="29.56995" lon="98.185793">
<time>2016-10-07T17:27:20Z</time></trkpt>
<trkpt lat="29.57008" lon="98.185813">
<time>2016-10-07T17:27:21Z</time></trkpt>
<trkpt lat="29.57021" lon="98.185833">
<time>2016-10-07T17:27:22Z</time></trkpt>
<trkpt lat="29.57033" lon="98.185823">
<time>2016-10-07T17:27:23Z</time></trkpt>
<trkpt lat="29.570439" lon="98.185793">
<time>2016-10-07T17:27:24Z</time></trkpt>
<trkpt lat="29.570599" lon="98.185763">
<time>2016-10-07T17:27:25Z</time></trkpt>
<trkpt lat="29.570769" lon="98.185723">
<time>2016-10-07T17:27:26Z</time></trkpt>
<trkpt lat="29.570949" lon="98.185703">
<time>2016-10-07T17:27:27Z</time></trkpt>
<trkpt lat="29.571059" lon="98.185693">
<time>2016-10-07T17:27:28Z</time></trkpt>
<trkpt lat="29.571269" lon="98.185663">
<time>2016-10-07T17:27:29Z</time></trkpt>
<trkpt lat="29.571339" lon="98.185653">
<time>2016-10-07T17:27:30Z</time></trkpt>
<trkpt lat="29.571409" lon="98.185623">
<time>2016-10-07T17:27:31Z</time></trkpt>
<trkpt lat="29.571469" lon="98.185583">
<time>2016-10-07T17:27:32Z</time></trkpt>
<trkpt lat="29.571549" lon="98.185523">
<time>2016-10-07T17:27:33Z</time></trkpt>
<trkpt lat="29.571618" lon="98.185453">
<time>2016-10-07T17:27:34Z</time></trkpt>
<trkpt lat="29.571658" lon="98.185412">
<time>2016-10-07T17:27:35Z</time></trkpt>
<trkpt lat="29.571728" lon="98.185322">
<time>2016-10-07T17:27:36Z</time></trkpt>
<trkpt lat="29.571838" lon="98.185172">
<time>2016-10-07T17:27:37Z</time></trkpt>
<trkpt lat="29.571918" lon="98.185082">
<time>2016-10-07T17:27:38Z</time></trkpt>
<trkpt lat="29.571987" lon="98.185002">
<time>2016-10-07T17:27:39Z</time></trkpt>
<trkpt lat="29.572047" lon="98.184941">
<time>2016-10-07T17:27:40Z</time></trkpt>
<trkpt lat="29.572207" lon="98.184791">
<time>2016-10-07T17:27:41Z</time></trkpt>
<trkpt lat="29.572307" lon="98.184681">
<time>2016-10-07T17:27:42Z</time></trkpt>
<trkpt lat="29.572377" lon="98.184591">
<time>2016-10-07T17:27:43Z</time></trkpt>
<trkpt lat="29.572496" lon="98.18442">
<time>2016-10-07T17:27:44Z</time></trkpt>
<trkpt lat="29.572566" lon="98.18429">
<time>2016-10-07T17:27:45Z</time></trkpt>
<trkpt lat="29.572646" lon="98.1842">
<time>2016-10-07T17:27:46Z</time></trkpt>
<trkpt lat="29.572736" lon="98.18413">
<time>2016-10-07T17:27:47Z</time></trkpt>
<trkpt lat="29.572836" lon="98.184069">
<time>2016-10-07T17:27:48Z</time></trkpt>
<trkpt lat="29.572915" lon="98.184049">
<time>2016-10-07T17:27:49Z</time></trkpt>
<trkpt lat="29.573005" lon="98.184019">
<time>2016-10-07T17:27:50Z</time></trkpt>
<trkpt lat="29.573165" lon="98.184009">
<time>2016-10-07T17:27:51Z</time></trkpt>
<trkpt lat="29.573345" lon="98.183999">
<time>2016-10-07T17:27:52Z</time></trkpt>
<trkpt lat="29.573455" lon="98.183979">
<time>2016-10-07T17:27:53Z</time></trkpt>
<trkpt lat="29.573545" lon="98.183969">
<time>2016-10-07T17:27:54Z</time></trkpt>
<trkpt lat="29.573725" lon="98.183919">
<time>2016-10-07T17:27:55Z</time></trkpt>
<trkpt lat="29.574025" lon="98.183819">
<time>2016-10-07T17:27:56Z</time></trkpt>
<trkpt lat="29.574254" lon="98.183749">
<time>2016-10-07T17:27:57Z</time></trkpt>
<trkpt lat="29.574504" lon="98.183659">
<time>2016-10-07T17:27:58Z</time></trkpt>
<trkpt lat="29.574604" lon="98.183629">
<time>2016-10-07T17:27:59Z</time></trkpt>
<trkpt lat="29.574684" lon="98.183598">
<time>2016-10-07T17:28:00Z</time></trkpt>
<trkpt lat="29.574814" lon="98.183558">
<time>2016-10-07T17:28:01Z</time></trkpt>
<trkpt lat="29.575074" lon="98.183468">
<time>2016-10-07T17:28:02Z</time></trkpt>
<trkpt lat="29.575224" lon="98.183428">
<time>2016-10-07T17:28:03Z</time></trkpt>
<trkpt lat="29.575353" lon="98.183398">
<time>2016-10-07T17:28:04Z</time></trkpt>
<trkpt lat="29.575433" lon="98.183378">
<time>2016-10-07T17:28:05Z</time></trkpt>
<trkpt lat="29.575513" lon="98.183358">
<time>2016-10-07T17:28:06Z</time></trkpt>
<trkpt lat="29.575643" lon="98.183348">
<time>2016-10-07T17:28:07Z</time></trkpt>
<trkpt lat="29.575863" lon="98.183318">
<time>2016-10-07T17:28:08Z</time></trkpt>
<trkpt lat="29.575953" lon="98.183308">
<time>2016-10-07T17:28:09Z</time></trkpt>
<trkpt lat="29.576083" lon="98.183288">
<time>2016-10-07T17:28:10Z</time></trkpt>
<trkpt lat="29.576323" lon="98.183238">
<time>2016-10-07T17:28:11Z</time></trkpt>
<trkpt lat="29.576443" lon="98.183228">
<time>2016-10-07T17:28:12Z</time></trkpt>
<trkpt lat="29.576553" lon="98.183208">
<time>2016-10-07T17:28:13Z</time></trkpt>
<trkpt lat="29.576683" lon="98.183208">
<time>2016-10-07T17:28:14Z</time></trkpt>
<trkpt lat="29.576793" lon="98.183208">
<time>2016-10-07T17:28:15Z</time></trkpt>
<trkpt lat="29.576893" lon="98.183208">
<time>2016-10-07T17:28:16Z</time></trkpt>
<trkpt lat="29.576993" lon="98.183208">
<time>2016-10-07T17:28:17Z</time></trkpt>
<trkpt lat="29.577103" lon="98.183198">
<time>2016-10-07T17:28:18Z</time></trkpt>
<trkpt lat="29.577222" lon="98.183157">
<time>2016-10-07T17:28:19Z</time></trkpt>
<trkpt lat="29.577292" lon="98.183127">
<time>2016-10-07T17:28:20Z</time></trkpt>
<trkpt lat="29.577352" lon="98.183097">
<time>2016-10-07T17:28:21Z</time></trkpt>
<trkpt lat="29.577442" lon="98.183037">
<time>2016-10-07T17:28:22Z</time></trkpt>
<trkpt lat="29.577542" lon="98.182977">
<time>2016-10-07T17:28:23Z</time></trkpt>
<trkpt lat="29.577692" lon="98.182837">
<time>2016-10-07T17:28:24Z</time></trkpt>
<trkpt lat="29.577891" lon="98.182636">
<time>2016-10-07T17:28:25Z</time></trkpt>
<trkpt lat="29.578081" lon="98.182446">
<time>2016-10-07T17:28:26Z</time></trkpt>
<trkpt lat="29.578171" lon="98.182336">
<time>2016-10-07T17:28:27Z</time></trkpt>
<trkpt lat="29.57822" lon="98.182225">
<time>2016-10-07T17:28:28Z</time></trkpt>
<trkpt lat="29.5783" lon="98.182095">
<time>2016-10-07T17:28:29Z</time></trkpt>
<trkpt lat="29.57837" lon="98.182005">
<time>2016-10-07T17:28:30Z</time></trkpt>
<trkpt lat="29.57848" lon="98.181875">
<time>2016-10-07T17:28:31Z</time></trkpt>
<trkpt lat="29.578599" lon="98.181754">
<time>2016-10-07T17:28:32Z</time></trkpt>
<trkpt lat="29.578719" lon="98.181644">
<time>2016-10-07T17:28:33Z</time></trkpt>
<trkpt lat="29.578829" lon="98.181584">
<time>2016-10-07T17:28:34Z</time></trkpt>
<trkpt lat="29.578929" lon="98.181524">
<time>2016-10-07T17:28:35Z</time></trkpt>
<trkpt lat="29.579019" lon="98.181494">
<time>2016-10-07T17:28:36Z</time></trkpt>
<trkpt lat="29.579179" lon="98.181434">
<time>2016-10-07T17:28:37Z</time></trkpt>
<trkpt lat="29.579328" lon="98.181363">
<time>2016-10-07T17:28:38Z</time></trkpt>
<trkpt lat="29.579518" lon="98.181253">
<time>2016-10-07T17:28:39Z</time></trkpt>
<trkpt lat="29.579738" lon="98.181123">
<time>2016-10-07T17:28:40Z</time></trkpt>
<trkpt lat="29.579928" lon="98.181003">
<time>2016-10-07T17:28:41Z</time></trkpt>
<trkpt lat="29.580077" lon="98.180902">
<time>2016-10-07T17:28:42Z</time></trkpt>
<trkpt lat="29.580227" lon="98.180792">
<time>2016-10-07T17:28:43Z</time></trkpt>
<trkpt lat="29.580397" lon="98.180652">
<time>2016-10-07T17:28:44Z</time></trkpt>
<trkpt lat="29.580566" lon="98.180492">
<time>2016-10-07T17:28:45Z</time></trkpt>
<trkpt lat="29.580666" lon="98.180391">
<time>2016-10-07T17:28:46Z</time></trkpt>
<trkpt lat="29.580826" lon="98.180221">
<time>2016-10-07T17:28:47Z</time></trkpt>
<trkpt lat="29.580896" lon="98.180161">
<time>2016-10-07T17:28:48Z</time></trkpt>
<trkpt lat="29.581045" lon="98.180051">
<time>2016-10-07T17:28:49Z</time></trkpt>
<trkpt lat="29.581225" lon="98.17992">
<time>2016-10-07T17:28:50Z</time></trkpt>
<trkpt lat="29.581385" lon="98.1798">
<time>2016-10-07T17:28:51Z</time></trkpt>
<trkpt lat="29.581475" lon="98.17973">
<time>2016-10-07T17:28:52Z</time></trkpt>
<trkpt lat="29.581604" lon="98.17961">
<time>2016-10-07T17:28:53Z</time></trkpt>
<trkpt lat="29.581674" lon="98.179529">
<time>2016-10-07T17:28:54Z</time></trkpt>
<trkpt lat="29.581754" lon="98.179439">
<time>2016-10-07T17:28:55Z</time></trkpt>
<trkpt lat="29.581934" lon="98.179229">
<time>2016-10-07T17:28:56Z</time></trkpt>
<trkpt lat="29.582113" lon="98.179008">
<time>2016-10-07T17:28:57Z</time></trkpt>
<trkpt lat="29.582363" lon="98.178718">
<time>2016-10-07T17:28:58Z</time></trkpt>
<trkpt lat="29.582512" lon="98.178537">
<time>2016-10-07T17:28:59Z</time></trkpt>
<trkpt lat="29.582612" lon="98.178407">
<time>2016-10-07T17:29:00Z</time></trkpt>
<trkpt lat="29.582771" lon="98.178226">
<time>2016-10-07T17:29:01Z</time></trkpt>
<trkpt lat="29.582901" lon="98.178096">
<time>2016-10-07T17:29:02Z</time></trkpt>
<trkpt lat="29.583001" lon="98.178006">
<time>2016-10-07T17:29:03Z</time></trkpt>
<trkpt lat="29.583091" lon="98.177946">
<time>2016-10-07T17:29:04Z</time></trkpt>
<trkpt lat="29.583171" lon="98.177916">
<time>2016-10-07T17:29:05Z</time></trkpt>
<trkpt lat="29.583251" lon="98.177886">
<time>2016-10-07T17:29:06Z</time></trkpt>
<trkpt lat="29.583351" lon="98.177866">
<time>2016-10-07T17:29:07Z</time></trkpt>
<trkpt lat="29.583431" lon="98.177856">
<time>2016-10-07T17:29:08Z</time></trkpt>
<trkpt lat="29.58355" lon="98.177836">
<time>2016-10-07T17:29:09Z</time></trkpt>
<trkpt lat="29.58376" lon="98.177805">
<time>2016-10-07T17:29:10Z</time></trkpt>
<trkpt lat="29.58394" lon="98.177765">
<time>2016-10-07T17:29:11Z</time></trkpt>
<trkpt lat="29.58421" lon="98.177695">
<time>2016-10-07T17:29:12Z</time></trkpt>
<trkpt lat="29.58435" lon="98.177645">
<time>2016-10-07T17:29:13Z</time></trkpt>
<trkpt lat="29.58449" lon="98.177595">
<time>2016-10-07T17:29:14Z</time></trkpt>
<trkpt lat="29.58457" lon="98.177555">
<time>2016-10-07T17:29:15Z</time></trkpt>
<trkpt lat="29.584659" lon="98.177495">
<time>2016-10-07T17:29:16Z</time></trkpt>
<trkpt lat="29.584729" lon="98.177415">
<time>2016-10-07T17:29:17Z</time></trkpt>
<trkpt lat="29.584789" lon="98.177364">
<time>2016-10-07T17:29:18Z</time></trkpt>
<trkpt lat="29.584849" lon="98.177304">
<time>2016-10-07T17:29:19Z</time></trkpt>
<trkpt lat="29.584939" lon="98.177234">
<time>2016-10-07T17:29:20Z</time></trkpt>
<trkpt lat="29.585079" lon="98.177154">
<time>2016-10-07T17:29:21Z</time></trkpt>
<trkpt lat="29.585348" lon="98.177014">
<time>2016-10-07T17:29:22Z</time></trkpt>
<trkpt lat="29.585648" lon="98.176863">
<time>2016-10-07T17:29:23Z</time></trkpt>
<trkpt lat="29.585918" lon="98.176723">
<time>2016-10-07T17:29:24Z</time></trkpt>
<trkpt lat="29.586217" lon="98.176553">
<time>2016-10-07T17:29:25Z</time></trkpt>
<trkpt lat="29.586487" lon="98.176392">
<time>2016-10-07T17:29:26Z</time></trkpt>
<trkpt lat="29.586726" lon="98.176242">
<time>2016-10-07T17:29:27Z</time></trkpt>
<trkpt lat="29.586816" lon="98.176162">
<time>2016-10-07T17:29:28Z</time></trkpt>
<trkpt lat="29.586916" lon="98.176092">
<time>2016-10-07T17:29:29Z</time></trkpt>
<trkpt lat="29.587016" lon="98.176001">
<time>2016-10-07T17:29:30Z</time></trkpt>
<trkpt lat="29.587136" lon="98.175881">
<time>2016-10-07T17:29:31Z</time></trkpt>
<trkpt lat="29.587186" lon="98.175831">
<time>2016-10-07T17:29:32Z</time></trkpt>
<trkpt lat="29.587245" lon="98.175771">
<time>2016-10-07T17:29:33Z</time></trkpt>
<trkpt lat="29.587315" lon="98.175671">
<time>2016-10-07T17:29:34Z</time></trkpt>
<trkpt lat="29.587345" lon="98.175611">
<time>2016-10-07T17:29:35Z</time></trkpt>
<trkpt lat="29.587385" lon="98.17553">
<time>2016-10-07T17:29:36Z</time></trkpt>
<trkpt lat="29.587425" lon="98.17545">
<time>2016-10-07T17:29:37Z</time></trkpt>
<trkpt lat="29.587455" lon="98.17536">
<time>2016-10-07T17:29:38Z</time></trkpt>
<trkpt lat="29.587484" lon="98.17526">
<time>2016-10-07T17:29:39Z</time></trkpt>
<trkpt lat="29.587514" lon="98.17517">
<time>2016-10-07T17:29:40Z</time></trkpt>
<trkpt lat="29.587564" lon="98.175069">
<time>2016-10-07T17:29:41Z</time></trkpt>
<trkpt lat="29.587604" lon="98.175009">
<time>2016-10-07T17:29:42Z</time></trkpt>
<trkpt lat="29.587654" lon="98.174959">
<time>2016-10-07T17:29:43Z</time></trkpt>
<trkpt lat="29.587704" lon="98.174909">
<time>2016-10-07T17:29:44Z</time></trkpt>
<trkpt lat="29.587774" lon="98.174859">
<time>2016-10-07T17:29:45Z</time></trkpt>
<trkpt lat="29.587843" lon="98.174809">
<time>2016-10-07T17:29:46Z</time></trkpt>
<trkpt lat="29.587933" lon="98.174749">
<time>2016-10-07T17:29:47Z</time></trkpt>
<trkpt lat="29.587983" lon="98.174708">
<time>2016-10-07T17:29:48Z</time></trkpt>
<trkpt lat="29.588043" lon="98.174668">
<time>2016-10-07T17:29:49Z</time></trkpt>
<trkpt lat="29.588073" lon="98.174628">
<time>2016-10-07T17:29:50Z</time></trkpt>
<trkpt lat="29.588113" lon="98.174588">
<time>2016-10-07T17:29:51Z</time></trkpt>
<trkpt lat="29.588153" lon="98.174538">
<time>2016-10-07T17:29:52Z</time></trkpt>
<trkpt lat="29.588193" lon="98.174468">
<time>2016-10-07T17:29:53Z</time></trkpt>
<trkpt lat="29.588223" lon="98.174388">
<time>2016-10-07T17:29:54Z</time></trkpt>
<trkpt lat="29.588252" lon="98.174308">
<time>2016-10-07T17:29:55Z</time></trkpt>
<trkpt lat="29.588292" lon="98.174127">
<time>2016-10-07T17:29:56Z</time></trkpt>
<trkpt lat="29.588312" lon="98.174037">
<time>2016-10-07T17:29:57Z</time></trkpt>
<trkpt lat="29.588381" lon="98.173756">
<time>2016-10-07T17:29:58Z</time></trkpt>
<trkpt lat="29.588461" lon="98.173365">
<time>2016-10-07T17:29:59Z</time></trkpt>
<trkpt lat="29.58849" lon="98.173185">
<time>2016-10-07T17:30:00Z</time></trkpt>
<trkpt lat="29.58857" lon="98.172884">
<time>2016-10-07T17:30:01Z</time></trkpt>
<trkpt lat="29.588629" lon="98.172614">
<time>2016-10-07T17:30:02Z</time></trkpt>
<trkpt lat="29.588689" lon="98.172463">
<time>2016-10-07T17:30:03Z</time></trkpt>
<trkpt lat="29.588739" lon="98.172333">
<time>2016-10-07T17:30:04Z</time></trkpt>
<trkpt lat="29.588838" lon="98.172133">
<time>2016-10-07T17:30:05Z</time></trkpt>
<trkpt lat="29.588918" lon="98.171992">
<time>2016-10-07T17:30:06Z</time></trkpt>
<trkpt lat="29.589037" lon="98.171802">
<time>2016-10-07T17:30:07Z</time></trkpt>
<trkpt lat="29.589147" lon="98.171652">
<time>2016-10-07T17:30:08Z</time></trkpt>
<trkpt lat="29.589277" lon="98.171561">
<time>2016-10-07T17:30:09Z</time></trkpt>
<trkpt lat="29.589447" lon="98.171491">
<time>2016-10-07T17:30:10Z</time></trkpt>
<trkpt lat="29.590156" lon="98.171361">
<time>2016-10-07T17:30:11Z</time></trkpt>
<trkpt lat="29.590576" lon="98.171291">
<time>2016-10-07T17:30:12Z</time></trkpt>
<trkpt lat="29.590736" lon="98.171251">
<time>2016-10-07T17:30:13Z</time></trkpt>
<trkpt lat="29.590846" lon="98.171201">
<time>2016-10-07T17:30:14Z</time></trkpt>
<trkpt lat="29.590976" lon="98.17113">
<time>2016-10-07T17:30:15Z</time></trkpt>
<trkpt lat="29.591055" lon="98.17106">
<time>2016-10-07T17:30:16Z</time></trkpt>
<trkpt lat="29.591145" lon="98.17097">
<time>2016-10-07T17:30:17Z</time></trkpt>
<trkpt lat="29.591215" lon="98.17088">
<time>2016-10-07T17:30:18Z</time></trkpt>
<trkpt lat="29.591285" lon="98.17077">
<time>2016-10-07T17:30:19Z</time></trkpt>
<trkpt lat="29.591335" lon="98.170659">
<time>2016-10-07T17:30:20Z</time></trkpt>
<trkpt lat="29.591384" lon="98.170519">
<time>2016-10-07T17:30:21Z</time></trkpt>
<trkpt lat="29.591424" lon="98.170409">
<time>2016-10-07T17:30:22Z</time></trkpt>
<trkpt lat="29.591454" lon="98.170318">
<time>2016-10-07T17:30:23Z</time></trkpt>
<trkpt lat="29.591494" lon="98.170228">
<time>2016-10-07T17:30:24Z</time></trkpt>
<trkpt lat="29.591534" lon="98.170148">
<time>2016-10-07T17:30:25Z</time></trkpt>
<trkpt lat="29.591583" lon="98.170088">
<time>2016-10-07T17:30:26Z</time></trkpt>
<trkpt lat="29.591743" lon="98.169867">
<time>2016-10-07T17:30:27Z</time></trkpt>
<trkpt lat="29.591883" lon="98.169677">
<time>2016-10-07T17:30:28Z</time></trkpt>
<trkpt lat="29.592012" lon="98.169477">
<time>2016-10-07T17:30:29Z</time></trkpt>
<trkpt lat="29.592092" lon="98.169326">
<time>2016-10-07T17:30:30Z</time></trkpt>
<trkpt lat="29.592151" lon="98.169156">
<time>2016-10-07T17:30:31Z</time></trkpt>
<trkpt lat="29.59237" lon="98.168615">
<time>2016-10-07T17:30:32Z</time></trkpt>
<trkpt lat="29.59243" lon="98.168474">
<time>2016-10-07T17:30:33Z</time></trkpt>
<trkpt lat="29.59249" lon="98.168374">
<time>2016-10-07T17:30:34Z</time></trkpt>
<trkpt lat="29.59258" lon="98.168274">
<time>2016-10-07T17:30:35Z</time></trkpt>
<trkpt lat="29.59266" lon="98.168214">
<time>2016-10-07T17:30:36Z</time></trkpt>
<trkpt lat="29.592819" lon="98.168113">
<time>2016-10-07T17:30:37Z</time></trkpt>
<trkpt lat="29.593099" lon="98.167963">
<time>2016-10-07T17:30:38Z</time></trkpt>
<trkpt lat="29.593648" lon="98.167693">
<time>2016-10-07T17:30:39Z</time></trkpt>
<trkpt lat="29.594098" lon="98.167512">
<time>2016-10-07T17:30:40Z</time></trkpt>
<trkpt lat="29.594467" lon="98.167362">
<time>2016-10-07T17:30:41Z</time></trkpt>
<trkpt lat="29.594587" lon="98.167312">
<time>2016-10-07T17:30:42Z</time></trkpt>
<trkpt lat="29.594667" lon="98.167302">
<time>2016-10-07T17:30:43Z</time></trkpt>
<trkpt lat="29.594747" lon="98.167302">
<time>2016-10-07T17:30:44Z</time></trkpt>
<trkpt lat="29.594817" lon="98.167312">
<time>2016-10-07T17:30:45Z</time></trkpt>
<trkpt lat="29.594877" lon="98.167332">
<time>2016-10-07T17:30:46Z</time></trkpt>
<trkpt lat="29.594977" lon="98.167402">
<time>2016-10-07T17:30:47Z</time></trkpt>
<trkpt lat="29.595268" lon="98.167652">
<time>2016-10-07T17:30:48Z</time></trkpt>
<trkpt lat="29.595919" lon="98.168244">
<time>2016-10-07T17:30:49Z</time></trkpt>
<trkpt lat="29.596019" lon="98.168334">
<time>2016-10-07T17:30:50Z</time></trkpt>
<trkpt lat="29.596089" lon="98.168374">
<time>2016-10-07T17:30:51Z</time></trkpt>
<trkpt lat="29.596159" lon="98.168394">
<time>2016-10-07T17:30:52Z</time></trkpt>
<trkpt lat="29.596209" lon="98.168394">
<time>2016-10-07T17:30:53Z</time></trkpt>
<trkpt lat="29.596279" lon="98.168374">
<time>2016-10-07T17:30:54Z</time></trkpt>
<trkpt lat="29.596339" lon="98.168314">
<time>2016-10-07T17:30:55Z</time></trkpt>
<trkpt lat="29.596378" lon="98.168264">
<time>2016-10-07T17:30:56Z</time></trkpt>
<trkpt lat="29.596418" lon="98.168174">
<time>2016-10-07T17:30:57Z</time></trkpt>
<trkpt lat="29.596458" lon="98.168063">
<time>2016-10-07T17:30:58Z</time></trkpt>
<trkpt lat="29.596518" lon="98.167923">
<time>2016-10-07T17:30:59Z</time></trkpt>
<trkpt lat="29.596588" lon="98.167813">
<time>2016-10-07T17:31:00Z</time></trkpt>
<trkpt lat="29.596677" lon="98.167702">
<time>2016-10-07T17:31:01Z</time></trkpt>
<trkpt lat="29.596817" lon="98.167572">
<time>2016-10-07T17:31:02Z</time></trkpt>
<trkpt lat="29.597007" lon="98.167402">
<time>2016-10-07T17:31:03Z</time></trkpt>
<trkpt lat="29.597096" lon="98.167322">
<time>2016-10-07T17:31:04Z</time></trkpt>
<trkpt lat="29.597176" lon="98.167241">
<time>2016-10-07T17:31:05Z</time></trkpt>
<trkpt lat="29.597306" lon="98.167071">
<time>2016-10-07T17:31:06Z</time></trkpt>
<trkpt lat="29.597545" lon="98.16673">
<time>2016-10-07T17:31:07Z</time></trkpt>
<trkpt lat="29.597685" lon="98.16654">
<time>2016-10-07T17:31:08Z</time></trkpt>
<trkpt lat="29.597765" lon="98.16647">
<time>2016-10-07T17:31:09Z</time></trkpt>
<trkpt lat="29.597874" lon="98.16639">
<time>2016-10-07T17:31:10Z</time></trkpt>
<trkpt lat="29.597974" lon="98.166349">
<time>2016-10-07T17:31:11Z</time></trkpt>
<trkpt lat="29.598034" lon="98.166329">
<time>2016-10-07T17:31:12Z</time></trkpt>
<trkpt lat="29.598084" lon="98.166319">
<time>2016-10-07T17:31:13Z</time></trkpt>
<trkpt lat="29.598164" lon="98.166309">
<time>2016-10-07T17:31:14Z</time></trkpt>
<trkpt lat="29.598214" lon="98.166309">
<time>2016-10-07T17:31:15Z</time></trkpt>
<trkpt lat="29.598284" lon="98.166319">
<time>2016-10-07T17:31:16Z</time></trkpt>
<trkpt lat="29.598374" lon="98.166349">
<time>2016-10-07T17:31:17Z</time></trkpt>
<trkpt lat="29.598464" lon="98.16639">
<time>2016-10-07T17:31:18Z</time></trkpt>
<trkpt lat="29.598594" lon="98.16644">
<time>2016-10-07T17:31:19Z</time></trkpt>
<trkpt lat="29.598734" lon="98.16649">
<time>2016-10-07T17:31:20Z</time></trkpt>
<trkpt lat="29.598824" lon="98.16651">
<time>2016-10-07T17:31:21Z</time></trkpt>
<trkpt lat="29.598904" lon="98.16651">
<time>2016-10-07T17:31:22Z</time></trkpt>
<trkpt lat="29.599014" lon="98.16649">
<time>2016-10-07T17:31:23Z</time></trkpt>
<trkpt lat="29.599224" lon="98.16643">
<time>2016-10-07T17:31:24Z</time></trkpt>
<trkpt lat="29.599434" lon="98.1664">
<time>2016-10-07T17:31:25Z</time></trkpt>
<trkpt lat="29.599574" lon="98.166369">
<time>2016-10-07T17:31:26Z</time></trkpt>
<trkpt lat="29.599684" lon="98.166349">
<time>2016-10-07T17:31:27Z</time></trkpt>
<trkpt lat="29.599794" lon="98.166289">
<time>2016-10-07T17:31:28Z</time></trkpt>
<trkpt lat="29.599913" lon="98.166179">
<time>2016-10-07T17:31:29Z</time></trkpt>
<trkpt lat="29.600023" lon="98.166029">
<time>2016-10-07T17:31:30Z</time></trkpt>
<trkpt lat="29.600123" lon="98.165868">
<time>2016-10-07T17:31:31Z</time></trkpt>
<trkpt lat="29.600232" lon="98.165668">
<time>2016-10-07T17:31:32Z</time></trkpt>
<trkpt lat="29.600312" lon="98.165457">
<time>2016-10-07T17:31:33Z</time></trkpt>
<trkpt lat="29.600362" lon="98.165297">
<time>2016-10-07T17:31:34Z</time></trkpt>
<trkpt lat="29.600401" lon="98.165016">
<time>2016-10-07T17:31:35Z</time></trkpt>
<trkpt lat="29.600421" lon="98.164856">
<time>2016-10-07T17:31:36Z</time></trkpt>
<trkpt lat="29.60049" lon="98.164455">
<time>2016-10-07T17:31:37Z</time></trkpt>
<trkpt lat="29.60051" lon="98.164385">
<time>2016-10-07T17:31:38Z</time></trkpt>
<trkpt lat="29.60053" lon="98.164295">
<time>2016-10-07T17:31:39Z</time></trkpt>
<trkpt lat="29.60057" lon="98.164225">
<time>2016-10-07T17:31:40Z</time></trkpt>
<trkpt lat="29.600639" lon="98.164094">
<time>2016-10-07T17:31:41Z</time></trkpt>
<trkpt lat="29.600759" lon="98.163864">
<time>2016-10-07T17:31:42Z</time></trkpt>
<trkpt lat="29.600898" lon="98.163633">
<time>2016-10-07T17:31:43Z</time></trkpt>
<trkpt lat="29.601078" lon="98.163363">
<time>2016-10-07T17:31:44Z</time></trkpt>
<trkpt lat="29.601227" lon="98.163142">
<time>2016-10-07T17:31:45Z</time></trkpt>
<trkpt lat="29.601427" lon="98.162862">
<time>2016-10-07T17:31:46Z</time></trkpt>
<trkpt lat="29.601596" lon="98.162611">
<time>2016-10-07T17:31:47Z</time></trkpt>
<trkpt lat="29.601726" lon="98.162441">
<time>2016-10-07T17:31:48Z</time></trkpt>
<trkpt lat="29.601876" lon="98.16233">
<time>2016-10-07T17:31:49Z</time></trkpt>
<trkpt lat="29.601976" lon="98.16228">
<time>2016-10-07T17:31:50Z</time></trkpt>
<trkpt lat="29.602075" lon="98.16224">
<time>2016-10-07T17:31:51Z</time></trkpt>
<trkpt lat="29.602185" lon="98.16221">
<time>2016-10-07T17:31:52Z</time></trkpt>
<trkpt lat="29.602295" lon="98.16218">
<time>2016-10-07T17:31:53Z</time></trkpt>
<trkpt lat="29.602485" lon="98.16214">
<time>2016-10-07T17:31:54Z</time></trkpt>
<trkpt lat="29.602995" lon="98.16202">
<time>2016-10-07T17:31:55Z</time></trkpt>
<trkpt lat="29.603125" lon="98.16199">
<time>2016-10-07T17:31:56Z</time></trkpt>
<trkpt lat="29.603255" lon="98.16198">
<time>2016-10-07T17:31:57Z</time></trkpt>
<trkpt lat="29.603405" lon="98.16197">
<time>2016-10-07T17:31:58Z</time></trkpt>
<trkpt lat="29.603585" lon="98.16197">
<time>2016-10-07T17:31:59Z</time></trkpt>
<trkpt lat="29.603834" lon="98.16197">
<time>2016-10-07T17:32:00Z</time></trkpt>
<trkpt lat="29.603964" lon="98.161949">
<time>2016-10-07T17:32:01Z</time></trkpt>
<trkpt lat="29.604044" lon="98.161939">
<time>2016-10-07T17:32:02Z</time></trkpt>
<trkpt lat="29.604124" lon="98.161909">
<time>2016-10-07T17:32:03Z</time></trkpt>
<trkpt lat="29.604224" lon="98.161869">
<time>2016-10-07T17:32:04Z</time></trkpt>
<trkpt lat="29.604444" lon="98.161779">
<time>2016-10-07T17:32:05Z</time></trkpt>
<trkpt lat="29.604514" lon="98.161759">
<time>2016-10-07T17:32:06Z</time></trkpt>
<trkpt lat="29.604594" lon="98.161749">
<time>2016-10-07T17:32:07Z</time></trkpt>
<trkpt lat="29.604654" lon="98.161759">
<time>2016-10-07T17:32:08Z</time></trkpt>
<trkpt lat="29.604714" lon="98.161769">
<time>2016-10-07T17:32:09Z</time></trkpt>
<trkpt lat="29.604824" lon="98.161799">
<time>2016-10-07T17:32:10Z</time></trkpt>
<trkpt lat="29.604924" lon="98.161839">
<time>2016-10-07T17:32:11Z</time></trkpt>
<trkpt lat="29.605034" lon="98.161899">
<time>2016-10-07T17:32:12Z</time></trkpt>
<trkpt lat="29.605104" lon="98.161929">
<time>2016-10-07T17:32:13Z</time></trkpt>
<trkpt lat="29.605204" lon="98.161979">
<time>2016-10-07T17:32:14Z</time></trkpt>
<trkpt lat="29.605274" lon="98.16201">
<time>2016-10-07T17:32:15Z</time></trkpt>
<trkpt lat="29.605304" lon="98.16203">
<time>2016-10-07T17:32:16Z</time></trkpt>
<trkpt lat="29.605324" lon="98.16203">
<time>2016-10-07T17:32:17Z</time></trkpt>
<trkpt lat="29.605334" lon="98.16204">
<time>2016-10-07T17:32:18Z</time></trkpt>
<trkpt lat="29.605354" lon="98.16204">
<time>2016-10-07T17:32:19Z</time></trkpt>
<trkpt lat="29.605364" lon="98.16204">
<time>2016-10-07T17:32:20Z</time></trkpt>
<trkpt lat="29.605384" lon="98.16203">
<time>2016-10-07T17:32:21Z</time></trkpt>
<trkpt lat="29.605394" lon="98.16203">
<time>2016-10-07T17:32:22Z</time></trkpt>
<trkpt lat="29.605414" lon="98.16202">
<time>2016-10-07T17:32:23Z</time></trkpt>
<trkpt lat="29.605444" lon="98.162">
<time>2016-10-07T17:32:24Z</time></trkpt>
<trkpt lat="29.605474" lon="98.161969">
<time>2016-10-07T17:32:25Z</time></trkpt>
<trkpt lat="29.605524" lon="98.161939">
<time>2016-10-07T17:32:26Z</time></trkpt>
<trkpt lat="29.605564" lon="98.161899">
<time>2016-10-07T17:32:27Z</time></trkpt>
<trkpt lat="29.605594" lon="98.161869">
<time>2016-10-07T17:32:28Z</time></trkpt>
<trkpt lat="29.605983" lon="98.161458">
<time>2016-10-07T17:32:29Z</time></trkpt>
<trkpt lat="29.606083" lon="98.161308">
<time>2016-10-07T17:32:30Z</time></trkpt>
<trkpt lat="29.606172" lon="98.161138">
<time>2016-10-07T17:32:31Z</time></trkpt>
<trkpt lat="29.606252" lon="98.160977">
<time>2016-10-07T17:32:32Z</time></trkpt>
<trkpt lat="29.606322" lon="98.160837">
<time>2016-10-07T17:32:33Z</time></trkpt>
<trkpt lat="29.606431" lon="98.160606">
<time>2016-10-07T17:32:34Z</time></trkpt>
<trkpt lat="29.606501" lon="98.160496">
<time>2016-10-07T17:32:35Z</time></trkpt>
<trkpt lat="29.606561" lon="98.160416">
<time>2016-10-07T17:32:36Z</time></trkpt>
<trkpt lat="29.606641" lon="98.160336">
<time>2016-10-07T17:32:37Z</time></trkpt>
<trkpt lat="29.60673" lon="98.160276">
<time>2016-10-07T17:32:38Z</time></trkpt>
<trkpt lat="29.60685" lon="98.160216">
<time>2016-10-07T17:32:39Z</time></trkpt>
<trkpt lat="29.60695" lon="98.160185">
<time>2016-10-07T17:32:40Z</time></trkpt>
<trkpt lat="29.60711" lon="98.160155">
<time>2016-10-07T17:32:41Z</time></trkpt>
<trkpt lat="29.60731" lon="98.160135">
<time>2016-10-07T17:32:42Z</time></trkpt>
<trkpt lat="29.60742" lon="98.160115">
<time>2016-10-07T17:32:43Z</time></trkpt>
<trkpt lat="29.6075" lon="98.160085">
<time>2016-10-07T17:32:44Z</time></trkpt>
<trkpt lat="29.60758" lon="98.160035">
<time>2016-10-07T17:32:45Z</time></trkpt>
<trkpt lat="29.60765" lon="98.159975">
<time>2016-10-07T17:32:46Z</time></trkpt>
<trkpt lat="29.60772" lon="98.159905">
<time>2016-10-07T17:32:47Z</time></trkpt>
<trkpt lat="29.607779" lon="98.159815">
<time>2016-10-07T17:32:48Z</time></trkpt>
<trkpt lat="29.607899" lon="98.159614">
<time>2016-10-07T17:32:49Z</time></trkpt>
<trkpt lat="29.607999" lon="98.159454">
<time>2016-10-07T17:32:50Z</time></trkpt>
<trkpt lat="29.608068" lon="98.159324">
<time>2016-10-07T17:32:51Z</time></trkpt>
<trkpt lat="29.608148" lon="98.159203">
<time>2016-10-07T17:32:52Z</time></trkpt>
<trkpt lat="29.608248" lon="98.159093">
<time>2016-10-07T17:32:53Z</time></trkpt>
<trkpt lat="29.608318" lon="98.159013">
<time>2016-10-07T17:32:54Z</time></trkpt>
<trkpt lat="29.608378" lon="98.158953">
<time>2016-10-07T17:32:55Z</time></trkpt>
<trkpt lat="29.608457" lon="98.158883">
<time>2016-10-07T17:32:56Z</time></trkpt>
<trkpt lat="29.608537" lon="98.158832">
<time>2016-10-07T17:32:57Z</time></trkpt>
<trkpt lat="29.608637" lon="98.158762">
<time>2016-10-07T17:32:58Z</time></trkpt>
<trkpt lat="29.608797" lon="98.158642">
<time>2016-10-07T17:32:59Z</time></trkpt>
<trkpt lat="29.608907" lon="98.158552">
<time>2016-10-07T17:33:00Z</time></trkpt>
<trkpt lat="29.609086" lon="98.158371">
<time>2016-10-07T17:33:01Z</time></trkpt>
<trkpt lat="29.610134" lon="98.157259">
<time>2016-10-07T17:33:02Z</time></trkpt>
<trkpt lat="29.610304" lon="98.157039">
<time>2016-10-07T17:33:03Z</time></trkpt>
<trkpt lat="29.610453" lon="98.156848">
<time>2016-10-07T17:33:04Z</time></trkpt>
<trkpt lat="29.610553" lon="98.156698">
<time>2016-10-07T17:33:05Z</time></trkpt>
<trkpt lat="29.610653" lon="98.156547">
<time>2016-10-07T17:33:06Z</time></trkpt>
<trkpt lat="29.610742" lon="98.156437">
<time>2016-10-07T17:33:07Z</time></trkpt>
<trkpt lat="29.610852" lon="98.156317">
<time>2016-10-07T17:33:08Z</time></trkpt>
<trkpt lat="29.610942" lon="98.156217">
<time>2016-10-07T17:33:09Z</time></trkpt>
<trkpt lat="29.611062" lon="98.156116">
<time>2016-10-07T17:33:10Z</time></trkpt>
<trkpt lat="29.611211" lon="98.156016">
<time>2016-10-07T17:33:11Z</time></trkpt>
<trkpt lat="29.611621" lon="98.155756">
<time>2016-10-07T17:33:12Z</time></trkpt>
<trkpt lat="29.611781" lon="98.155625">
<time>2016-10-07T17:33:13Z</time></trkpt>
<trkpt lat="29.61192" lon="98.155495">
<time>2016-10-07T17:33:14Z</time></trkpt>
<trkpt lat="29.61208" lon="98.155335">
<time>2016-10-07T17:33:15Z</time></trkpt>
<trkpt lat="29.612359" lon="98.155064">
<time>2016-10-07T17:33:16Z</time></trkpt>
<trkpt lat="29.612589" lon="98.154844">
<time>2016-10-07T17:33:17Z</time></trkpt>
<trkpt lat="29.612799" lon="98.154633">
<time>2016-10-07T17:33:18Z</time></trkpt>
<trkpt lat="29.612918" lon="98.154533">
<time>2016-10-07T17:33:19Z</time></trkpt>
<trkpt lat="29.613048" lon="98.154453">
<time>2016-10-07T17:33:20Z</time></trkpt>
<trkpt lat="29.613138" lon="98.154413">
<time>2016-10-07T17:33:21Z</time></trkpt>
<trkpt lat="29.613228" lon="98.154383">
<time>2016-10-07T17:33:22Z</time></trkpt>
<trkpt lat="29.613338" lon="98.154343">
<time>2016-10-07T17:33:23Z</time></trkpt>
<trkpt lat="29.613408" lon="98.154313">
<time>2016-10-07T17:33:24Z</time></trkpt>
<trkpt lat="29.613518" lon="98.154262">
<time>2016-10-07T17:33:25Z</time></trkpt>
<trkpt lat="29.613588" lon="98.154212">
<time>2016-10-07T17:33:26Z</time></trkpt>
<trkpt lat="29.613707" lon="98.154102">
<time>2016-10-07T17:33:27Z</time></trkpt>
<trkpt lat="29.613807" lon="98.153982">
<time>2016-10-07T17:33:28Z</time></trkpt>
<trkpt lat="29.613897" lon="98.153872">
<time>2016-10-07T17:33:29Z</time></trkpt>
<trkpt lat="29.613977" lon="98.153771">
<time>2016-10-07T17:33:30Z</time></trkpt>
<trkpt lat="29.614086" lon="98.153671">
<time>2016-10-07T17:33:31Z</time></trkpt>
<trkpt lat="29.614196" lon="98.153581">
<time>2016-10-07T17:33:32Z</time></trkpt>
<trkpt lat="29.614236" lon="98.153541">
<time>2016-10-07T17:33:33Z</time></trkpt>
<trkpt lat="29.614316" lon="98.153491">
<time>2016-10-07T17:33:34Z</time></trkpt>
<trkpt lat="29.614396" lon="98.153441">
<time>2016-10-07T17:33:35Z</time></trkpt>
<trkpt lat="29.614486" lon="98.153391">
<time>2016-10-07T17:33:36Z</time></trkpt>
<trkpt lat="29.614586" lon="98.15336">
<time>2016-10-07T17:33:37Z</time></trkpt>
<trkpt lat="29.614746" lon="98.15331">
<time>2016-10-07T17:33:38Z</time></trkpt>
<trkpt lat="29.614916" lon="98.15326">
<time>2016-10-07T17:33:39Z</time></trkpt>
<trkpt lat="29.615015" lon="98.15324">
<time>2016-10-07T17:33:40Z</time></trkpt>
<trkpt lat="29.615175" lon="98.1532">
<time>2016-10-07T17:33:41Z</time></trkpt>
<trkpt lat="29.615295" lon="98.15318">
<time>2016-10-07T17:33:42Z</time></trkpt>
<trkpt lat="29.615405" lon="98.15317">
<time>2016-10-07T17:33:43Z</time></trkpt>
<trkpt lat="29.615515" lon="98.15316">
<time>2016-10-07T17:33:44Z</time></trkpt>
<trkpt lat="29.615605" lon="98.15315">
<time>2016-10-07T17:33:45Z</time></trkpt>
<trkpt lat="29.615705" lon="98.15313">
<time>2016-10-07T17:33:46Z</time></trkpt>
<trkpt lat="29.615835" lon="98.15309">
<time>2016-10-07T17:33:47Z</time></trkpt>
<trkpt lat="29.615935" lon="98.15305">
<time>2016-10-07T17:33:48Z</time></trkpt>
<trkpt lat="29.616015" lon="98.15301">
<time>2016-10-07T17:33:49Z</time></trkpt>
<trkpt lat="29.616095" lon="98.15295">
<time>2016-10-07T17:33:50Z</time></trkpt>
<trkpt lat="29.616184" lon="98.152879">
<time>2016-10-07T17:33:51Z</time></trkpt>
<trkpt lat="29.616284" lon="98.152809">
<time>2016-10-07T17:33:52Z</time></trkpt>
<trkpt lat="29.616394" lon="98.152689">
<time>2016-10-07T17:33:53Z</time></trkpt>
<trkpt lat="29.616574" lon="98.152519">
<time>2016-10-07T17:33:54Z</time></trkpt>
<trkpt lat="29.616674" lon="98.152439">
<time>2016-10-07T17:33:55Z</time></trkpt>
<trkpt lat="29.616783" lon="98.152378">
<time>2016-10-07T17:33:56Z</time></trkpt>
<trkpt lat="29.616973" lon="98.152278">
<time>2016-10-07T17:33:57Z</time></trkpt>
<trkpt lat="29.617163" lon="98.152198">
<time>2016-10-07T17:33:58Z</time></trkpt>
<trkpt lat="29.617313" lon="98.152128">
<time>2016-10-07T17:33:59Z</time></trkpt>
<trkpt lat="29.617533" lon="98.152018">
<time>2016-10-07T17:34:00Z</time></trkpt>
<trkpt lat="29.617662" lon="98.151947">
<time>2016-10-07T17:34:01Z</time></trkpt>
<trkpt lat="29.617782" lon="98.151867">
<time>2016-10-07T17:34:02Z</time></trkpt>
<trkpt lat="29.618022" lon="98.151727">
<time>2016-10-07T17:34:03Z</time></trkpt>
<trkpt lat="29.618122" lon="98.151677">
<time>2016-10-07T17:34:04Z</time></trkpt>
<trkpt lat="29.618272" lon="98.151607">
<time>2016-10-07T17:34:05Z</time></trkpt>
<trkpt lat="29.618372" lon="98.151547">
<time>2016-10-07T17:34:06Z</time></trkpt>
<trkpt lat="29.618461" lon="98.151476">
<time>2016-10-07T17:34:07Z</time></trkpt>
<trkpt lat="29.618531" lon="98.151406">
<time>2016-10-07T17:34:08Z</time></trkpt>
<trkpt lat="29.618581" lon="98.151346">
<time>2016-10-07T17:34:09Z</time></trkpt>
<trkpt lat="29.618641" lon="98.151256">
<time>2016-10-07T17:34:10Z</time></trkpt>
<trkpt lat="29.618681" lon="98.151176">
<time>2016-10-07T17:34:11Z</time></trkpt>
<trkpt lat="29.618701" lon="98.151086">
<time>2016-10-07T17:34:12Z</time></trkpt>
<trkpt lat="29.61871" lon="98.150945">
<time>2016-10-07T17:34:13Z</time></trkpt>
<trkpt lat="29.61871" lon="98.150835">
<time>2016-10-07T17:34:14Z</time></trkpt>
<trkpt lat="29.61871" lon="98.150695">
<time>2016-10-07T17:34:15Z</time></trkpt>
<trkpt lat="29.61872" lon="98.150595">
<time>2016-10-07T17:34:16Z</time></trkpt>
<trkpt lat="29.61873" lon="98.150454">
<time>2016-10-07T17:34:17Z</time></trkpt>
<trkpt lat="29.618749" lon="98.150354">
<time>2016-10-07T17:34:18Z</time></trkpt>
<trkpt lat="29.618779" lon="98.150294">
<time>2016-10-07T17:34:19Z</time></trkpt>
<trkpt lat="29.618809" lon="98.150234">
<time>2016-10-07T17:34:20Z</time></trkpt>
<trkpt lat="29.618869" lon="98.150154">
<time>2016-10-07T17:34:21Z</time></trkpt>
<trkpt lat="29.618979" lon="98.150053">
<time>2016-10-07T17:34:22Z</time></trkpt>
<trkpt lat="29.619139" lon="98.149933">
<time>2016-10-07T17:34:23Z</time></trkpt>
<trkpt lat="29.619298" lon="98.149813">
<time>2016-10-07T17:34:24Z</time></trkpt>
<trkpt lat="29.619478" lon="98.149663">
<time>2016-10-07T17:34:25Z</time></trkpt>
<trkpt lat="29.619608" lon="98.149552">
<time>2016-10-07T17:34:26Z</time></trkpt>
<trkpt lat="29.619728" lon="98.149412">
<time>2016-10-07T17:34:27Z</time></trkpt>
<trkpt lat="29.619777" lon="98.149312">
<time>2016-10-07T17:34:28Z</time></trkpt>
<trkpt lat="29.619797" lon="98.149232">
<time>2016-10-07T17:34:29Z</time></trkpt>
<trkpt lat="29.619807" lon="98.149162">
<time>2016-10-07T17:34:30Z</time></trkpt>
<trkpt lat="29.619817" lon="98.149081">
<time>2016-10-07T17:34:31Z</time></trkpt>
<trkpt lat="29.619827" lon="98.148971">
<time>2016-10-07T17:34:32Z</time></trkpt>
<trkpt lat="29.619837" lon="98.148841">
<time>2016-10-07T17:34:33Z</time></trkpt>
<trkpt lat="29.619866" lon="98.148721">
<time>2016-10-07T17:34:34Z</time></trkpt>
<trkpt lat="29.619926" lon="98.14857">
<time>2016-10-07T17:34:35Z</time></trkpt>
<trkpt lat="29.620026" lon="98.14838">
<time>2016-10-07T17:34:36Z</time></trkpt>
<trkpt lat="29.620125" lon="98.14819">
<time>2016-10-07T17:34:37Z</time></trkpt>
<trkpt lat="29.620295" lon="98.147879">
<time>2016-10-07T17:34:38Z</time></trkpt>
<trkpt lat="29.620474" lon="98.147548">
<time>2016-10-07T17:34:39Z</time></trkpt>
<trkpt lat="29.620664" lon="98.147208">
<time>2016-10-07T17:34:40Z</time></trkpt>
<trkpt lat="29.620843" lon="98.146887">
<time>2016-10-07T17:34:41Z</time></trkpt>
<trkpt lat="29.621003" lon="98.146677">
<time>2016-10-07T17:34:42Z</time></trkpt>
<trkpt lat="29.621142" lon="98.146526">
<time>2016-10-07T17:34:43Z</time></trkpt>
<trkpt lat="29.621302" lon="98.146386">
<time>2016-10-07T17:34:44Z</time></trkpt>
<trkpt lat="29.621422" lon="98.146296">
<time>2016-10-07T17:34:45Z</time></trkpt>
<trkpt lat="29.621552" lon="98.146206">
<time>2016-10-07T17:34:46Z</time></trkpt>
<trkpt lat="29.621731" lon="98.146095">
<time>2016-10-07T17:34:47Z</time></trkpt>
<trkpt lat="29.621971" lon="98.145975">
<time>2016-10-07T17:34:48Z</time></trkpt>
<trkpt lat="29.622171" lon="98.145845">
<time>2016-10-07T17:34:49Z</time></trkpt>
<trkpt lat="29.62254" lon="98.145594">
<time>2016-10-07T17:34:50Z</time></trkpt>
<trkpt lat="29.62314" lon="98.145173">
<time>2016-10-07T17:34:51Z</time></trkpt>
<trkpt lat="29.623459" lon="98.144963">
<time>2016-10-07T17:34:52Z</time></trkpt>
<trkpt lat="29.623839" lon="98.144713">
<time>2016-10-07T17:34:53Z</time></trkpt>
<trkpt lat="29.624438" lon="98.144342">
<time>2016-10-07T17:34:54Z</time></trkpt>
<trkpt lat="29.624817" lon="98.144111">
<time>2016-10-07T17:34:55Z</time></trkpt>
<trkpt lat="29.625177" lon="98.143871">
<time>2016-10-07T17:34:56Z</time></trkpt>
<trkpt lat="29.625506" lon="98.14364">
<time>2016-10-07T17:34:57Z</time></trkpt>
<trkpt lat="29.625736" lon="98.14346">
<time>2016-10-07T17:34:58Z</time></trkpt>
<trkpt lat="29.625856" lon="98.14336">
<time>2016-10-07T17:34:59Z</time></trkpt>
<trkpt lat="29.625976" lon="98.14326">
<time>2016-10-07T17:35:00Z</time></trkpt>
<trkpt lat="29.626086" lon="98.14319">
<time>2016-10-07T17:35:01Z</time></trkpt>
<trkpt lat="29.626205" lon="98.143099">
<time>2016-10-07T17:35:02Z</time></trkpt>
<trkpt lat="29.626355" lon="98.143009">
<time>2016-10-07T17:35:03Z</time></trkpt>
<trkpt lat="29.626545" lon="98.142919">
<time>2016-10-07T17:35:04Z</time></trkpt>
<trkpt lat="29.626795" lon="98.142819">
<time>2016-10-07T17:35:05Z</time></trkpt>
<trkpt lat="29.627165" lon="98.142689">
<time>2016-10-07T17:35:06Z</time></trkpt>
<trkpt lat="29.627404" lon="98.142598">
<time>2016-10-07T17:35:07Z</time></trkpt>
<trkpt lat="29.627624" lon="98.142518">
<time>2016-10-07T17:35:08Z</time></trkpt>
<trkpt lat="29.627784" lon="98.142438">
<time>2016-10-07T17:35:09Z</time></trkpt>
<trkpt lat="29.628193" lon="98.142198">
<time>2016-10-07T17:35:10Z</time></trkpt>
<trkpt lat="29.628483" lon="98.142007">
<time>2016-10-07T17:35:11Z</time></trkpt>
<trkpt lat="29.628763" lon="98.141817">
<time>2016-10-07T17:35:12Z</time></trkpt>
<trkpt lat="29.629162" lon="98.141566">
<time>2016-10-07T17:35:13Z</time></trkpt>
<trkpt lat="29.629492" lon="98.141346">
<time>2016-10-07T17:35:14Z</time></trkpt>
<trkpt lat="29.629642" lon="98.141266">
<time>2016-10-07T17:35:15Z</time></trkpt>
<trkpt lat="29.629762" lon="98.141216">
<time>2016-10-07T17:35:16Z</time></trkpt>
<trkpt lat="29.629891" lon="98.141186">
<time>2016-10-07T17:35:17Z</time></trkpt>
<trkpt lat="29.630011" lon="98.141166">
<time>2016-10-07T17:35:18Z</time></trkpt>
<trkpt lat="29.630191" lon="98.141146">
<time>2016-10-07T17:35:19Z</time></trkpt>
<trkpt lat="29.630261" lon="98.141126">
<time>2016-10-07T17:35:20Z</time></trkpt>
<trkpt lat="29.630331" lon="98.141085">
<time>2016-10-07T17:35:21Z</time></trkpt>
<trkpt lat="29.630401" lon="98.141045">
<time>2016-10-07T17:35:22Z</time></trkpt>
<trkpt lat="29.630501" lon="98.140985">
<time>2016-10-07T17:35:23Z</time></trkpt>
<trkpt lat="29.630601" lon="98.140925">
<time>2016-10-07T17:35:24Z</time></trkpt>
<trkpt lat="29.630691" lon="98.140895">
<time>2016-10-07T17:35:25Z</time></trkpt>
<trkpt lat="29.630781" lon="98.140875">
<time>2016-10-07T17:35:26Z</time></trkpt>
<trkpt lat="29.630881" lon="98.140865">
<time>2016-10-07T17:35:27Z</time></trkpt>
<trkpt lat="29.630971" lon="98.140875">
<time>2016-10-07T17:35:28Z</time></trkpt>
<trkpt lat="29.631101" lon="98.140895">
<time>2016-10-07T17:35:29Z</time></trkpt>
<trkpt lat="29.631181" lon="98.140905">
<time>2016-10-07T17:35:30Z</time></trkpt>
<trkpt lat="29.631291" lon="98.140905">
<time>2016-10-07T17:35:31Z</time></trkpt>
<trkpt lat="29.631401" lon="98.140885">
<time>2016-10-07T17:35:32Z</time></trkpt>
<trkpt lat="29.6315" lon="98.140835">
<time>2016-10-07T17:35:33Z</time></trkpt>
<trkpt lat="29.63161" lon="98.140765">
<time>2016-10-07T17:35:34Z</time></trkpt>
<trkpt lat="29.63177" lon="98.140665">
<time>2016-10-07T17:35:35Z</time></trkpt>
<trkpt lat="29.63188" lon="98.140615">
<time>2016-10-07T17:35:36Z</time></trkpt>
<trkpt lat="29.63199" lon="98.140584">
<time>2016-10-07T17:35:37Z</time></trkpt>
<trkpt lat="29.63217" lon="98.140554">
<time>2016-10-07T17:35:38Z</time></trkpt>
<trkpt lat="29.63232" lon="98.140494">
<time>2016-10-07T17:35:39Z</time></trkpt>
<trkpt lat="29.63244" lon="98.140424">
<time>2016-10-07T17:35:40Z</time></trkpt>
<trkpt lat="29.632579" lon="98.140324">
<time>2016-10-07T17:35:41Z</time></trkpt>
<trkpt lat="29.632989" lon="98.140023">
<time>2016-10-07T17:35:42Z</time></trkpt>
<trkpt lat="29.633239" lon="98.139853">
<time>2016-10-07T17:35:43Z</time></trkpt>
<trkpt lat="29.633548" lon="98.139653">
<time>2016-10-07T17:35:44Z</time></trkpt>
<trkpt lat="29.633718" lon="98.139563">
<time>2016-10-07T17:35:45Z</time></trkpt>
<trkpt lat="29.633968" lon="98.139472">
<time>2016-10-07T17:35:46Z</time></trkpt>
<trkpt lat="29.634128" lon="98.139432">
<time>2016-10-07T17:35:47Z</time></trkpt>
<trkpt lat="29.634298" lon="98.139412">
<time>2016-10-07T17:35:48Z</time></trkpt>
<trkpt lat="29.634438" lon="98.139412">
<time>2016-10-07T17:35:49Z</time></trkpt>
<trkpt lat="29.634578" lon="98.139432">
<time>2016-10-07T17:35:50Z</time></trkpt>
<trkpt lat="29.634718" lon="98.139452">
<time>2016-10-07T17:35:51Z</time></trkpt>
<trkpt lat="29.634828" lon="98.139462">
<time>2016-10-07T17:35:52Z</time></trkpt>
<trkpt lat="29.634958" lon="98.139472">
<time>2016-10-07T17:35:53Z</time></trkpt>
<trkpt lat="29.635048" lon="98.139472">
<time>2016-10-07T17:35:54Z</time></trkpt>
<trkpt lat="29.635177" lon="98.139442">
<time>2016-10-07T17:35:55Z</time></trkpt>
<trkpt lat="29.635277" lon="98.139392">
<time>2016-10-07T17:35:56Z</time></trkpt>
<trkpt lat="29.635367" lon="98.139322">
<time>2016-10-07T17:35:57Z</time></trkpt>
<trkpt lat="29.635507" lon="98.139212">
<time>2016-10-07T17:35:58Z</time></trkpt>
<trkpt lat="29.635677" lon="98.139122">
<time>2016-10-07T17:35:59Z</time></trkpt>
<trkpt lat="29.635767" lon="98.139092">
<time>2016-10-07T17:36:00Z</time></trkpt>
<trkpt lat="29.635837" lon="98.139072">
<time>2016-10-07T17:36:01Z</time></trkpt>
<trkpt lat="29.635907" lon="98.139062">
<time>2016-10-07T17:36:02Z</time></trkpt>
<trkpt lat="29.636007" lon="98.139062">
<time>2016-10-07T17:36:03Z</time></trkpt>
<trkpt lat="29.636537" lon="98.139132">
<time>2016-10-07T17:36:04Z</time></trkpt>
<trkpt lat="29.636687" lon="98.139132">
<time>2016-10-07T17:36:05Z</time></trkpt>
<trkpt lat="29.636827" lon="98.139122">
<time>2016-10-07T17:36:06Z</time></trkpt>
<trkpt lat="29.636936" lon="98.139112">
<time>2016-10-07T17:36:07Z</time></trkpt>
<trkpt lat="29.637076" lon="98.139072">
<time>2016-10-07T17:36:08Z</time></trkpt>
<trkpt lat="29.637276" lon="98.139001">
<time>2016-10-07T17:36:09Z</time></trkpt>
<trkpt lat="29.637486" lon="98.138911">
<time>2016-10-07T17:36:10Z</time></trkpt>
<trkpt lat="29.637686" lon="98.138801">
<time>2016-10-07T17:36:11Z</time></trkpt>
<trkpt lat="29.638305" lon="98.13848">
<time>2016-10-07T17:36:12Z</time></trkpt>
<trkpt lat="29.639384" lon="98.137919">
<time>2016-10-07T17:36:13Z</time></trkpt>
<trkpt lat="29.640383" lon="98.137409">
<time>2016-10-07T17:36:14Z</time></trkpt>
<trkpt lat="29.641202" lon="98.136968">
<time>2016-10-07T17:36:15Z</time></trkpt>
<trkpt lat="29.641392" lon="98.136868">
<time>2016-10-07T17:36:16Z</time></trkpt>
<trkpt lat="29.641632" lon="98.136707">
<time>2016-10-07T17:36:17Z</time></trkpt>
<trkpt lat="29.641872" lon="98.136547">
<time>2016-10-07T17:36:18Z</time></trkpt>
<trkpt lat="29.642201" lon="98.136307">
<time>2016-10-07T17:36:19Z</time></trkpt>
<trkpt lat="29.642471" lon="98.136116">
<time>2016-10-07T17:36:20Z</time></trkpt>
<trkpt lat="29.64269" lon="98.135936">
<time>2016-10-07T17:36:21Z</time></trkpt>
<trkpt lat="29.64287" lon="98.135756">
<time>2016-10-07T17:36:22Z</time></trkpt>
<trkpt lat="29.64306" lon="98.135575">
<time>2016-10-07T17:36:23Z</time></trkpt>
<trkpt lat="29.64318" lon="98.135455">
<time>2016-10-07T17:36:24Z</time></trkpt>
<trkpt lat="29.643309" lon="98.135355">
<time>2016-10-07T17:36:25Z</time></trkpt>
<trkpt lat="29.643389" lon="98.135305">
<time>2016-10-07T17:36:26Z</time></trkpt>
<trkpt lat="29.643479" lon="98.135255">
<time>2016-10-07T17:36:27Z</time></trkpt>
<trkpt lat="29.643589" lon="98.135215">
<time>2016-10-07T17:36:28Z</time></trkpt>
<trkpt lat="29.643739" lon="98.135175">
<time>2016-10-07T17:36:29Z</time></trkpt>
<trkpt lat="29.643909" lon="98.135124">
<time>2016-10-07T17:36:30Z</time></trkpt>
<trkpt lat="29.644039" lon="98.135094">
<time>2016-10-07T17:36:31Z</time></trkpt>
<trkpt lat="29.644229" lon="98.135044">
<time>2016-10-07T17:36:32Z</time></trkpt>
<trkpt lat="29.644419" lon="98.134974">
<time>2016-10-07T17:36:33Z</time></trkpt>
<trkpt lat="29.644619" lon="98.134884">
<time>2016-10-07T17:36:34Z</time></trkpt>
<trkpt lat="29.644788" lon="98.134784">
<time>2016-10-07T17:36:35Z</time></trkpt>
<trkpt lat="29.644918" lon="98.134694">
<time>2016-10-07T17:36:36Z</time></trkpt>
<trkpt lat="29.645028" lon="98.134614">
<time>2016-10-07T17:36:37Z</time></trkpt>
<trkpt lat="29.645198" lon="98.134523">
<time>2016-10-07T17:36:38Z</time></trkpt>
<trkpt lat="29.645358" lon="98.134443">
<time>2016-10-07T17:36:39Z</time></trkpt>
<trkpt lat="29.645508" lon="98.134393">
<time>2016-10-07T17:36:40Z</time></trkpt>
<trkpt lat="29.645668" lon="98.134363">
<time>2016-10-07T17:36:41Z</time></trkpt>
<trkpt lat="29.645807" lon="98.134333">
<time>2016-10-07T17:36:42Z</time></trkpt>
<trkpt lat="29.645997" lon="98.134283">
<time>2016-10-07T17:36:43Z</time></trkpt>
<trkpt lat="29.646107" lon="98.134233">
<time>2016-10-07T17:36:44Z</time></trkpt>
<trkpt lat="29.646317" lon="98.134113">
<time>2016-10-07T17:36:45Z</time></trkpt>
<trkpt lat="29.646507" lon="98.134003">
<time>2016-10-07T17:36:46Z</time></trkpt>
<trkpt lat="29.646797" lon="98.133812">
<time>2016-10-07T17:36:47Z</time></trkpt>
<trkpt lat="29.647086" lon="98.133642">
<time>2016-10-07T17:36:48Z</time></trkpt>
<trkpt lat="29.647296" lon="98.133512">
<time>2016-10-07T17:36:49Z</time></trkpt>
<trkpt lat="29.647466" lon="98.133391">
<time>2016-10-07T17:36:50Z</time></trkpt>
<trkpt lat="29.647665" lon="98.133211">
<time>2016-10-07T17:36:51Z</time></trkpt>
<trkpt lat="29.647865" lon="98.133021">
<time>2016-10-07T17:36:52Z</time></trkpt>
<trkpt lat="29.648045" lon="98.13281">
<time>2016-10-07T17:36:53Z</time></trkpt>
<trkpt lat="29.648244" lon="98.13256">
<time>2016-10-07T17:36:54Z</time></trkpt>
<trkpt lat="29.648414" lon="98.13235">
<time>2016-10-07T17:36:55Z</time></trkpt>
<trkpt lat="29.648504" lon="98.13225">
<time>2016-10-07T17:36:56Z</time></trkpt>
<trkpt lat="29.648584" lon="98.132189">
<time>2016-10-07T17:36:57Z</time></trkpt>
<trkpt lat="29.648684" lon="98.132119">
<time>2016-10-07T17:36:58Z</time></trkpt>
<trkpt lat="29.648804" lon="98.132059">
<time>2016-10-07T17:36:59Z</time></trkpt>
<trkpt lat="29.649103" lon="98.131899">
<time>2016-10-07T17:37:00Z</time></trkpt>
<trkpt lat="29.649213" lon="98.131829">
<time>2016-10-07T17:37:01Z</time></trkpt>
<trkpt lat="29.649323" lon="98.131739">
<time>2016-10-07T17:37:02Z</time></trkpt>
<trkpt lat="29.649463" lon="98.131578">
<time>2016-10-07T17:37:03Z</time></trkpt>
<trkpt lat="29.649573" lon="98.131448">
<time>2016-10-07T17:37:04Z</time></trkpt>
<trkpt lat="29.649663" lon="98.131378">
<time>2016-10-07T17:37:05Z</time></trkpt>
<trkpt lat="29.649743" lon="98.131328">
<time>2016-10-07T17:37:06Z</time></trkpt>
<trkpt lat="29.649832" lon="98.131298">
<time>2016-10-07T17:37:07Z</time></trkpt>
<trkpt lat="29.649962" lon="98.131268">
<time>2016-10-07T17:37:08Z</time></trkpt>
<trkpt lat="29.650182" lon="98.131208">
<time>2016-10-07T17:37:09Z</time></trkpt>
<trkpt lat="29.650342" lon="98.131168">
<time>2016-10-07T17:37:10Z</time></trkpt>
<trkpt lat="29.650512" lon="98.131138">
<time>2016-10-07T17:37:11Z</time></trkpt>
<trkpt lat="29.650602" lon="98.131128">
<time>2016-10-07T17:37:12Z</time></trkpt>
<trkpt lat="29.650692" lon="98.131128">
<time>2016-10-07T17:37:13Z</time></trkpt>
<trkpt lat="29.650782" lon="98.131138">
<time>2016-10-07T17:37:14Z</time></trkpt>
<trkpt lat="29.650912" lon="98.131148">
<time>2016-10-07T17:37:15Z</time></trkpt>
<trkpt lat="29.651852" lon="98.131328">
<time>2016-10-07T17:37:16Z</time></trkpt>
<trkpt lat="29.652022" lon="98.131348">
<time>2016-10-07T17:37:17Z</time></trkpt>
<trkpt lat="29.652162" lon="98.131348">
<time>2016-10-07T17:37:18Z</time></trkpt>
<trkpt lat="29.652312" lon="98.131338">
<time>2016-10-07T17:37:19Z</time></trkpt>
<trkpt lat="29.652502" lon="98.131318">
<time>2016-10-07T17:37:20Z</time></trkpt>
<trkpt lat="29.652802" lon="98.131258">
<time>2016-10-07T17:37:21Z</time></trkpt>
<trkpt lat="29.653172" lon="98.131168">
<time>2016-10-07T17:37:22Z</time></trkpt>
<trkpt lat="29.653671" lon="98.131048">
<time>2016-10-07T17:37:23Z</time></trkpt>
<trkpt lat="29.654171" lon="98.130947">
<time>2016-10-07T17:37:24Z</time></trkpt>
<trkpt lat="29.654791" lon="98.130817">
<time>2016-10-07T17:37:25Z</time></trkpt>
<trkpt lat="29.65527" lon="98.130727">
<time>2016-10-07T17:37:26Z</time></trkpt>
<trkpt lat="29.65572" lon="98.130647">
<time>2016-10-07T17:37:27Z</time></trkpt>
<trkpt lat="29.65639" lon="98.130567">
<time>2016-10-07T17:37:28Z</time></trkpt>
<trkpt lat="29.65716" lon="98.130497">
<time>2016-10-07T17:37:29Z</time></trkpt>
<trkpt lat="29.65747" lon="98.130467">
<time>2016-10-07T17:37:30Z</time></trkpt>
<trkpt lat="29.65764" lon="98.130437">
<time>2016-10-07T17:37:31Z</time></trkpt>
<trkpt lat="29.657859" lon="98.130376">
<time>2016-10-07T17:37:32Z</time></trkpt>
<trkpt lat="29.658119" lon="98.130306">
<time>2016-10-07T17:37:33Z</time></trkpt>
<trkpt lat="29.659319" lon="98.129976">
<time>2016-10-07T17:37:34Z</time></trkpt>
<trkpt lat="29.659598" lon="98.129876">
<time>2016-10-07T17:37:35Z</time></trkpt>
<trkpt lat="29.659788" lon="98.129795">
<time>2016-10-07T17:37:36Z</time></trkpt>
<trkpt lat="29.659938" lon="98.129705">
<time>2016-10-07T17:37:37Z</time></trkpt>
<trkpt lat="29.660178" lon="98.129555">
<time>2016-10-07T17:37:38Z</time></trkpt>
<trkpt lat="29.660478" lon="98.129335">
<time>2016-10-07T17:37:39Z</time></trkpt>
<trkpt lat="29.660757" lon="98.129154">
<time>2016-10-07T17:37:40Z</time></trkpt>
<trkpt lat="29.660937" lon="98.129064">
<time>2016-10-07T17:37:41Z</time></trkpt>
<trkpt lat="29.661147" lon="98.128964">
<time>2016-10-07T17:37:42Z</time></trkpt>
<trkpt lat="29.661537" lon="98.128804">
<time>2016-10-07T17:37:43Z</time></trkpt>
<trkpt lat="29.661946" lon="98.128644">
<time>2016-10-07T17:37:44Z</time></trkpt>
<trkpt lat="29.662126" lon="98.128574">
<time>2016-10-07T17:37:45Z</time></trkpt>
<trkpt lat="29.662556" lon="98.128403">
<time>2016-10-07T17:37:46Z</time></trkpt>
<trkpt lat="29.662736" lon="98.128343">
<time>2016-10-07T17:37:47Z</time></trkpt>
<trkpt lat="29.662936" lon="98.128273">
<time>2016-10-07T17:37:48Z</time></trkpt>
<trkpt lat="29.663126" lon="98.128203">
<time>2016-10-07T17:37:49Z</time></trkpt>
<trkpt lat="29.663305" lon="98.128143">
<time>2016-10-07T17:37:50Z</time></trkpt>
<trkpt lat="29.663525" lon="98.128093">
<time>2016-10-07T17:37:51Z</time></trkpt>
<trkpt lat="29.663805" lon="98.128033">
<time>2016-10-07T17:37:52Z</time></trkpt>
<trkpt lat="29.663945" lon="98.128003">
<time>2016-10-07T17:37:53Z</time></trkpt>
<trkpt lat="29.664065" lon="98.127983">
<time>2016-10-07T17:37:54Z</time></trkpt>
<trkpt lat="29.664255" lon="98.127953">
<time>2016-10-07T17:37:55Z</time></trkpt>
<trkpt lat="29.664425" lon="98.127933">
<time>2016-10-07T17:37:56Z</time></trkpt>
<trkpt lat="29.664565" lon="98.127903">
<time>2016-10-07T17:37:57Z</time></trkpt>
<trkpt lat="29.664795" lon="98.127862">
<time>2016-10-07T17:37:58Z</time></trkpt>
<trkpt lat="29.664975" lon="98.127832">
<time>2016-10-07T17:37:59Z</time></trkpt>
<trkpt lat="29.665055" lon="98.127812">
<time>2016-10-07T17:38:00Z</time></trkpt>
<trkpt lat="29.665145" lon="98.127802">
<time>2016-10-07T17:38:01Z</time></trkpt>
<trkpt lat="29.665305" lon="98.127792">
<time>2016-10-07T17:38:02Z</time></trkpt>
<trkpt lat="29.665455" lon="98.127782">
<time>2016-10-07T17:38:03Z</time></trkpt>
<trkpt lat="29.665575" lon="98.127772">
<time>2016-10-07T17:38:04Z</time></trkpt>
<trkpt lat="29.665914" lon="98.127772">
<time>2016-10-07T17:38:05Z</time></trkpt>
<trkpt lat="29.666134" lon="98.127772">
<time>2016-10-07T17:38:06Z</time></trkpt>
<trkpt lat="29.666294" lon="98.127762">
<time>2016-10-07T17:38:07Z</time></trkpt>
<trkpt lat="29.666544" lon="98.127732">
<time>2016-10-07T17:38:08Z</time></trkpt>
<trkpt lat="29.666684" lon="98.127712">
<time>2016-10-07T17:38:09Z</time></trkpt>
<trkpt lat="29.666774" lon="98.127702">
<time>2016-10-07T17:38:10Z</time></trkpt>
<trkpt lat="29.666874" lon="98.127682">
<time>2016-10-07T17:38:11Z</time></trkpt>
<trkpt lat="29.666984" lon="98.127662">
<time>2016-10-07T17:38:12Z</time></trkpt>
<trkpt lat="29.667044" lon="98.127652">
<time>2016-10-07T17:38:13Z</time></trkpt>
<trkpt lat="29.667154" lon="98.127632">
<time>2016-10-07T17:38:14Z</time></trkpt>
<trkpt lat="29.667304" lon="98.127602">
<time>2016-10-07T17:38:15Z</time></trkpt>
<trkpt lat="29.667404" lon="98.127582">
<time>2016-10-07T17:38:16Z</time></trkpt>
<trkpt lat="29.667474" lon="98.127572">
<time>2016-10-07T17:38:17Z</time></trkpt>
<trkpt lat="29.667594" lon="98.127542">
<time>2016-10-07T17:38:18Z</time></trkpt>
<trkpt lat="29.667664" lon="98.127522">
<time>2016-10-07T17:38:19Z</time></trkpt>
<trkpt lat="29.667694" lon="98.127512">
<time>2016-10-07T17:38:20Z</time></trkpt>
<trkpt lat="29.667774" lon="98.127482">
<time>2016-10-07T17:38:21Z</time></trkpt>
<trkpt lat="29.667854" lon="98.127452">
<time>2016-10-07T17:38:22Z</time></trkpt>
<trkpt lat="29.667894" lon="98.127432">
<time>2016-10-07T17:38:23Z</time></trkpt>
<trkpt lat="29.667934" lon="98.127402">
<time>2016-10-07T17:38:24Z</time></trkpt>
<trkpt lat="29.667994" lon="98.127372">
<time>2016-10-07T17:38:25Z</time></trkpt>
<trkpt lat="29.668073" lon="98.127332">
<time>2016-10-07T17:38:26Z</time></trkpt>
<trkpt lat="29.668133" lon="98.127292">
<time>2016-10-07T17:38:27Z</time></trkpt>
<trkpt lat="29.668183" lon="98.127261">
<time>2016-10-07T17:38:28Z</time></trkpt>
<trkpt lat="29.668233" lon="98.127251">
<time>2016-10-07T17:38:29Z</time></trkpt>
<trkpt lat="29.668253" lon="98.127241">
<time>2016-10-07T17:38:30Z</time></trkpt>
<trkpt lat="29.668273" lon="98.127241">
<time>2016-10-07T17:38:31Z</time></trkpt>
<trkpt lat="29.668293" lon="98.127251">
<time>2016-10-07T17:38:32Z</time></trkpt>
<trkpt lat="29.668313" lon="98.127251">
<time>2016-10-07T17:38:33Z</time></trkpt>
<trkpt lat="29.668333" lon="98.127272">
<time>2016-10-07T17:38:34Z</time></trkpt>
<trkpt lat="29.668343" lon="98.127282">
<time>2016-10-07T17:38:35Z</time></trkpt>
<trkpt lat="29.668353" lon="98.127302">
<time>2016-10-07T17:38:36Z</time></trkpt>
<trkpt lat="29.668363" lon="98.127312">
<time>2016-10-07T17:38:37Z</time></trkpt>
<trkpt lat="29.668383" lon="98.127352">
<time>2016-10-07T17:38:38Z</time></trkpt>
<trkpt lat="29.668393" lon="98.127382">
<time>2016-10-07T17:38:39Z</time></trkpt>
<trkpt lat="29.668393" lon="98.127412">
<time>2016-10-07T17:38:40Z</time></trkpt>
<trkpt lat="29.668383" lon="98.127442">
<time>2016-10-07T17:38:41Z</time></trkpt>
<trkpt lat="29.668374" lon="98.127472">
<time>2016-10-07T17:38:42Z</time></trkpt>
<trkpt lat="29.668364" lon="98.127502">
<time>2016-10-07T17:38:43Z</time></trkpt>
<trkpt lat="29.668334" lon="98.127522">
<time>2016-10-07T17:38:44Z</time></trkpt>
<trkpt lat="29.668314" lon="98.127542">
<time>2016-10-07T17:38:45Z</time></trkpt>
<trkpt lat="29.668294" lon="98.127552">
<time>2016-10-07T17:38:46Z</time></trkpt>
<trkpt lat="29.668244" lon="98.127572">
<time>2016-10-07T17:38:47Z</time></trkpt>
<trkpt lat="29.668174" lon="98.127602">
<time>2016-10-07T17:38:48Z</time></trkpt>
<trkpt lat="29.668034" lon="98.127662">
<time>2016-10-07T17:38:49Z</time></trkpt>
<trkpt lat="29.667924" lon="98.127722">
<time>2016-10-07T17:38:50Z</time></trkpt>
<trkpt lat="29.667794" lon="98.127772">
<time>2016-10-07T17:38:51Z</time></trkpt>
<trkpt lat="29.667674" lon="98.127832">
<time>2016-10-07T17:38:52Z</time></trkpt>
<trkpt lat="29.667514" lon="98.127902">
<time>2016-10-07T17:38:53Z</time></trkpt>
<trkpt lat="29.667364" lon="98.127973">
<time>2016-10-07T17:38:54Z</time></trkpt>
<trkpt lat="29.667234" lon="98.128043">
<time>2016-10-07T17:38:55Z</time></trkpt>
<trkpt lat="29.667125" lon="98.128113">
<time>2016-10-07T17:38:56Z</time></trkpt>
<trkpt lat="29.667015" lon="98.128183">
<time>2016-10-07T17:38:57Z</time></trkpt>
<trkpt lat="29.666885" lon="98.128273">
<time>2016-10-07T17:38:58Z</time></trkpt>
<trkpt lat="29.666795" lon="98.128323">
<time>2016-10-07T17:38:59Z</time></trkpt>
<trkpt lat="29.666685" lon="98.128403">
<time>2016-10-07T17:39:00Z</time></trkpt>
<trkpt lat="29.666655" lon="98.128423">
<time>2016-10-07T17:39:01Z</time></trkpt>
<trkpt lat="29.666595" lon="98.128463">
<time>2016-10-07T17:39:02Z</time></trkpt>
<trkpt lat="29.666475" lon="98.128533">
<time>2016-10-07T17:39:03Z</time></trkpt>
<trkpt lat="29.666355" lon="98.128583">
<time>2016-10-07T17:39:04Z</time></trkpt>
<trkpt lat="29.666235" lon="98.128624">
<time>2016-10-07T17:39:05Z</time></trkpt>
<trkpt lat="29.666105" lon="98.128674">
<time>2016-10-07T17:39:06Z</time></trkpt>
<trkpt lat="29.666065" lon="98.128684">
<time>2016-10-07T17:39:07Z</time></trkpt>
<trkpt lat="29.666035" lon="98.128704">
<time>2016-10-07T17:39:08Z</time></trkpt>
<trkpt lat="29.666006" lon="98.128734">
<time>2016-10-07T17:39:09Z</time></trkpt>
<trkpt lat="29.665986" lon="98.128774">
<time>2016-10-07T17:39:10Z</time></trkpt>
<trkpt lat="29.665976" lon="98.128814">
<time>2016-10-07T17:39:11Z</time></trkpt>
<trkpt lat="29.665986" lon="98.128864">
<time>2016-10-07T17:39:12Z</time></trkpt>
<trkpt lat="29.666006" lon="98.128904">
<time>2016-10-07T17:39:13Z</time></trkpt>
<trkpt lat="29.666036" lon="98.128934">
<time>2016-10-07T17:39:14Z</time></trkpt>
<trkpt lat="29.666086" lon="98.128954">
<time>2016-10-07T17:39:15Z</time></trkpt>
<trkpt lat="29.666126" lon="98.128954">
<time>2016-10-07T17:39:16Z</time></trkpt>
<trkpt lat="29.666176" lon="98.128944">
<time>2016-10-07T17:39:17Z</time></trkpt>
<trkpt lat="29.666266" lon="98.128914">
<time>2016-10-07T17:39:18Z</time></trkpt>
<trkpt lat="29.666456" lon="98.128834">
<time>2016-10-07T17:39:19Z</time></trkpt>
<trkpt lat="29.666685" lon="98.128734">
<time>2016-10-07T17:39:20Z</time></trkpt>
<trkpt lat="29.666845" lon="98.128664">
<time>2016-10-07T17:39:21Z</time></trkpt>
<trkpt lat="29.667005" lon="98.128593">
<time>2016-10-07T17:39:22Z</time></trkpt>
<trkpt lat="29.667125" lon="98.128533">
<time>2016-10-07T17:39:23Z</time></trkpt>
<trkpt lat="29.667205" lon="98.128503">
<time>2016-10-07T17:39:24Z</time></trkpt>
<trkpt lat="29.667325" lon="98.128453">
<time>2016-10-07T17:39:25Z</time></trkpt>
<trkpt lat="29.667405" lon="98.128423">
<time>2016-10-07T17:39:26Z</time></trkpt>
<trkpt lat="29.667485" lon="98.128393">
<time>2016-10-07T17:39:27Z</time></trkpt>
<trkpt lat="29.667575" lon="98.128363">
<time>2016-10-07T17:39:28Z</time></trkpt>
<trkpt lat="29.667655" lon="98.128333">
<time>2016-10-07T17:39:29Z</time></trkpt>
<trkpt lat="29.667725" lon="98.128313">
<time>2016-10-07T17:39:30Z</time></trkpt>
<trkpt lat="29.667805" lon="98.128293">
<time>2016-10-07T17:39:31Z</time></trkpt>
<trkpt lat="29.667885" lon="98.128273">
<time>2016-10-07T17:39:32Z</time></trkpt>
<trkpt lat="29.667965" lon="98.128253">
<time>2016-10-07T17:39:33Z</time></trkpt>
<trkpt lat="29.668045" lon="98.128243">
<time>2016-10-07T17:39:34Z</time></trkpt>
<trkpt lat="29.668114" lon="98.128223">
<time>2016-10-07T17:39:35Z</time></trkpt>
<trkpt lat="29.668194" lon="98.128213">
<time>2016-10-07T17:39:36Z</time></trkpt>
<trkpt lat="29.668274" lon="98.128203">
<time>2016-10-07T17:39:37Z</time></trkpt>
<trkpt lat="29.668384" lon="98.128193">
<time>2016-10-07T17:39:38Z</time></trkpt>
<trkpt lat="29.668474" lon="98.128193">
<time>2016-10-07T17:39:39Z</time></trkpt>
<trkpt lat="29.668554" lon="98.128203">
<time>2016-10-07T17:39:40Z</time></trkpt>
<trkpt lat="29.668624" lon="98.128203">
<time>2016-10-07T17:39:41Z</time></trkpt>
<trkpt lat="29.668714" lon="98.128213">
<time>2016-10-07T17:39:42Z</time></trkpt>
<trkpt lat="29.668824" lon="98.128223">
<time>2016-10-07T17:39:43Z</time></trkpt>
<trkpt lat="29.668904" lon="98.128223">
<time>2016-10-07T17:39:44Z</time></trkpt>
<trkpt lat="29.668994" lon="98.128223">
<time>2016-10-07T17:39:45Z</time></trkpt>
<trkpt lat="29.669114" lon="98.128213">
<time>2016-10-07T17:39:46Z</time></trkpt>
<trkpt lat="29.669204" lon="98.128203">
<time>2016-10-07T17:39:47Z</time></trkpt>
<trkpt lat="29.669314" lon="98.128183">
<time>2016-10-07T17:39:48Z</time></trkpt>
<trkpt lat="29.669414" lon="98.128163">
<time>2016-10-07T17:39:49Z</time></trkpt>
<trkpt lat="29.669494" lon="98.128143">
<time>2016-10-07T17:39:50Z</time></trkpt>
<trkpt lat="29.669564" lon="98.128123">
<time>2016-10-07T17:39:51Z</time></trkpt>
<trkpt lat="29.669644" lon="98.128103">
<time>2016-10-07T17:39:52Z</time></trkpt>
<trkpt lat="29.669694" lon="98.128083">
<time>2016-10-07T17:39:53Z</time></trkpt>
<trkpt lat="29.669744" lon="98.128063">
<time>2016-10-07T17:39:54Z</time></trkpt>
<trkpt lat="29.669824" lon="98.128023">
<time>2016-10-07T17:39:55Z</time></trkpt>
<trkpt lat="29.669884" lon="98.128003">
<time>2016-10-07T17:39:56Z</time></trkpt>
<trkpt lat="29.669974" lon="98.127952">
<time>2016-10-07T17:39:57Z</time></trkpt>
<trkpt lat="29.670044" lon="98.127912">
<time>2016-10-07T17:39:58Z</time></trkpt>
<trkpt lat="29.670144" lon="98.127852">
<time>2016-10-07T17:39:59Z</time></trkpt>
<trkpt lat="29.670214" lon="98.127822">
<time>2016-10-07T17:40:00Z</time></trkpt>
<trkpt lat="29.670283" lon="98.127792">
<time>2016-10-07T17:40:01Z</time></trkpt>
<trkpt lat="29.670353" lon="98.127772">
<time>2016-10-07T17:40:02Z</time></trkpt>
<trkpt lat="29.670403" lon="98.127752">
<time>2016-10-07T17:40:03Z</time></trkpt>
<trkpt lat="29.670483" lon="98.127722">
<time>2016-10-07T17:40:04Z</time></trkpt>
<trkpt lat="29.670603" lon="98.127692">
<time>2016-10-07T17:40:05Z</time></trkpt>
<trkpt lat="29.670743" lon="98.127662">
<time>2016-10-07T17:40:06Z</time></trkpt>
<trkpt lat="29.670793" lon="98.127652">
<time>2016-10-07T17:40:07Z</time></trkpt>
<trkpt lat="29.670863" lon="98.127622">
<time>2016-10-07T17:40:08Z</time></trkpt>
<trkpt lat="29.670923" lon="98.127602">
<time>2016-10-07T17:40:09Z</time></trkpt>
<trkpt lat="29.670983" lon="98.127582">
<time>2016-10-07T17:40:10Z</time></trkpt>
<trkpt lat="29.671043" lon="98.127562">
<time>2016-10-07T17:40:11Z</time></trkpt>
<trkpt lat="29.671093" lon="98.127532">
<time>2016-10-07T17:40:12Z</time></trkpt>
<trkpt lat="29.671133" lon="98.127522">
<time>2016-10-07T17:40:13Z</time></trkpt>
<trkpt lat="29.671183" lon="98.127492">
<time>2016-10-07T17:40:14Z</time></trkpt>
<trkpt lat="29.671213" lon="98.127472">
<time>2016-10-07T17:40:15Z</time></trkpt>
<trkpt lat="29.671263" lon="98.127442">
<time>2016-10-07T17:40:16Z</time></trkpt>
<trkpt lat="29.671293" lon="98.127412">
<time>2016-10-07T17:40:17Z</time></trkpt>
<trkpt lat="29.671353" lon="98.127382">
<time>2016-10-07T17:40:18Z</time></trkpt>
<trkpt lat="29.671393" lon="98.127342">
<time>2016-10-07T17:40:19Z</time></trkpt>
<trkpt lat="29.671433" lon="98.127312">
<time>2016-10-07T17:40:20Z</time></trkpt>
<trkpt lat="29.671483" lon="98.127261">
<time>2016-10-07T17:40:21Z</time></trkpt>
<trkpt lat="29.671543" lon="98.127211">
<time>2016-10-07T17:40:22Z</time></trkpt>
<trkpt lat="29.671622" lon="98.127151">
<time>2016-10-07T17:40:23Z</time></trkpt>
<trkpt lat="29.671672" lon="98.127091">
<time>2016-10-07T17:40:24Z</time></trkpt>
<trkpt lat="29.671742" lon="98.127051">
<time>2016-10-07T17:40:25Z</time></trkpt>
<trkpt lat="29.671792" lon="98.127011">
<time>2016-10-07T17:40:26Z</time></trkpt>
<trkpt lat="29.671862" lon="98.126961">
<time>2016-10-07T17:40:27Z</time></trkpt>
<trkpt lat="29.671912" lon="98.126931">
<time>2016-10-07T17:40:28Z</time></trkpt>
<trkpt lat="29.671962" lon="98.126901">
<time>2016-10-07T17:40:29Z</time></trkpt>
<trkpt lat="29.672012" lon="98.126881">
<time>2016-10-07T17:40:30Z</time></trkpt>
<trkpt lat="29.672062" lon="98.126851">
<time>2016-10-07T17:40:31Z</time></trkpt>
<trkpt lat="29.672152" lon="98.126811">
<time>2016-10-07T17:40:32Z</time></trkpt>
<trkpt lat="29.672222" lon="98.126781">
<time>2016-10-07T17:40:33Z</time></trkpt>
<trkpt lat="29.672282" lon="98.126751">
<time>2016-10-07T17:40:34Z</time></trkpt>
<trkpt lat="29.672352" lon="98.126731">
<time>2016-10-07T17:40:35Z</time></trkpt>
<trkpt lat="29.672422" lon="98.126701">
<time>2016-10-07T17:40:36Z</time></trkpt>
<trkpt lat="29.672482" lon="98.126671">
<time>2016-10-07T17:40:37Z</time></trkpt>
<trkpt lat="29.672552" lon="98.126641">
<time>2016-10-07T17:40:38Z</time></trkpt>
<trkpt lat="29.672602" lon="98.12662">
<time>2016-10-07T17:40:39Z</time></trkpt>
<trkpt lat="29.672642" lon="98.1266">
<time>2016-10-07T17:40:40Z</time></trkpt>
<trkpt lat="29.672702" lon="98.12657">
<time>2016-10-07T17:40:41Z</time></trkpt>
<trkpt lat="29.672771" lon="98.12653">
<time>2016-10-07T17:40:42Z</time></trkpt>
<trkpt lat="29.672821" lon="98.1265">
<time>2016-10-07T17:40:43Z</time></trkpt>
<trkpt lat="29.672871" lon="98.12647">
<time>2016-10-07T17:40:44Z</time></trkpt>
<trkpt lat="29.672921" lon="98.12643">
<time>2016-10-07T17:40:45Z</time></trkpt>
<trkpt lat="29.672981" lon="98.12639">
<time>2016-10-07T17:40:46Z</time></trkpt>
<trkpt lat="29.673061" lon="98.12633">
<time>2016-10-07T17:40:47Z</time></trkpt>
<trkpt lat="29.673141" lon="98.12627">
<time>2016-10-07T17:40:48Z</time></trkpt>
<trkpt lat="29.673181" lon="98.12624">
<time>2016-10-07T17:40:49Z</time></trkpt>
<trkpt lat="29.673231" lon="98.12621">
<time>2016-10-07T17:40:50Z</time></trkpt>
<trkpt lat="29.673281" lon="98.12617">
<time>2016-10-07T17:40:51Z</time></trkpt>
<trkpt lat="29.673321" lon="98.12615">
<time>2016-10-07T17:40:52Z</time></trkpt>
<trkpt lat="29.673361" lon="98.12613">
<time>2016-10-07T17:40:53Z</time></trkpt>
<trkpt lat="29.673441" lon="98.1261">
<time>2016-10-07T17:40:54Z</time></trkpt>
<trkpt lat="29.673541" lon="98.12606">
<time>2016-10-07T17:40:55Z</time></trkpt>
<trkpt lat="29.673641" lon="98.12602">
<time>2016-10-07T17:40:56Z</time></trkpt>
<trkpt lat="29.673681" lon="98.126">
<time>2016-10-07T17:40:57Z</time></trkpt>
<trkpt lat="29.673731" lon="98.12598">
<time>2016-10-07T17:40:58Z</time></trkpt>
<trkpt lat="29.673761" lon="98.12596">
<time>2016-10-07T17:40:59Z</time></trkpt>
<trkpt lat="29.673791" lon="98.125939">
<time>2016-10-07T17:41:00Z</time></trkpt>
<trkpt lat="29.673831" lon="98.125919">
<time>2016-10-07T17:41:01Z</time></trkpt>
<trkpt lat="29.673851" lon="98.125909">
<time>2016-10-07T17:41:02Z</time></trkpt>
<trkpt lat="29.673871" lon="98.125889">
<time>2016-10-07T17:41:03Z</time></trkpt>
<trkpt lat="29.673911" lon="98.125859">
<time>2016-10-07T17:41:04Z</time></trkpt>
<trkpt lat="29.67395" lon="98.125819">
<time>2016-10-07T17:41:05Z</time></trkpt>
<trkpt lat="29.67399" lon="98.125779">
<time>2016-10-07T17:41:06Z</time></trkpt>
<trkpt lat="29.67402" lon="98.125739">
<time>2016-10-07T17:41:07Z</time></trkpt>
<trkpt lat="29.67405" lon="98.125709">
<time>2016-10-07T17:41:08Z</time></trkpt>
<trkpt lat="29.67408" lon="98.125659">
<time>2016-10-07T17:41:09Z</time></trkpt>
<trkpt lat="29.67412" lon="98.125589">
<time>2016-10-07T17:41:10Z</time></trkpt>
<trkpt lat="29.67415" lon="98.125529">
<time>2016-10-07T17:41:11Z</time></trkpt>
<trkpt lat="29.67416" lon="98.125499">
<time>2016-10-07T17:41:12Z</time></trkpt>
<trkpt lat="29.67417" lon="98.125459">
<time>2016-10-07T17:41:13Z</time></trkpt>
<trkpt lat="29.67418" lon="98.125419">
<time>2016-10-07T17:41:14Z</time></trkpt>
<trkpt lat="29.67419" lon="98.125389">
<time>2016-10-07T17:41:15Z</time></trkpt>
<trkpt lat="29.6742" lon="98.125339">
<time>2016-10-07T17:41:16Z</time></trkpt>
<trkpt lat="29.67421" lon="98.125299">
<time>2016-10-07T17:41:17Z</time></trkpt>
<trkpt lat="29.67421" lon="98.125259">
<time>2016-10-07T17:41:18Z</time></trkpt>
<trkpt lat="29.67422" lon="98.125188">
<time>2016-10-07T17:41:19Z</time></trkpt>
<trkpt lat="29.67422" lon="98.125148">
<time>2016-10-07T17:41:20Z</time></trkpt>
<trkpt lat="29.67422" lon="98.125068">
<time>2016-10-07T17:41:21Z</time></trkpt>
<trkpt lat="29.67421" lon="98.125018">
<time>2016-10-07T17:41:22Z</time></trkpt>
<trkpt lat="29.674209" lon="98.124908">
<time>2016-10-07T17:41:23Z</time></trkpt>
<trkpt lat="29.674209" lon="98.124848">
<time>2016-10-07T17:41:24Z</time></trkpt>
<trkpt lat="29.674209" lon="98.124808">
<time>2016-10-07T17:41:25Z</time></trkpt>
<trkpt lat="29.674209" lon="98.124778">
<time>2016-10-07T17:41:26Z</time></trkpt>
<trkpt lat="29.674209" lon="98.124748">
<time>2016-10-07T17:41:27Z</time></trkpt>
<trkpt lat="29.674219" lon="98.124698">
<time>2016-10-07T17:41:28Z</time></trkpt>
<trkpt lat="29.674229" lon="98.124658">
<time>2016-10-07T17:41:29Z</time></trkpt>
<trkpt lat="29.674239" lon="98.124608">
<time>2016-10-07T17:41:30Z</time></trkpt>
<trkpt lat="29.674249" lon="98.124578">
<time>2016-10-07T17:41:31Z</time></trkpt>
<trkpt lat="29.674269" lon="98.124518">
<time>2016-10-07T17:41:32Z</time></trkpt>
<trkpt lat="29.674289" lon="98.124467">
<time>2016-10-07T17:41:33Z</time></trkpt>
<trkpt lat="29.674319" lon="98.124397">
<time>2016-10-07T17:41:34Z</time></trkpt>
<trkpt lat="29.674359" lon="98.124347">
<time>2016-10-07T17:41:35Z</time></trkpt>
<trkpt lat="29.674379" lon="98.124307">
<time>2016-10-07T17:41:36Z</time></trkpt>
<trkpt lat="29.674409" lon="98.124267">
<time>2016-10-07T17:41:37Z</time></trkpt>
<trkpt lat="29.674918" lon="98.123566">
<time>2016-10-07T17:41:38Z</time></trkpt>
<trkpt lat="29.674968" lon="98.123506">
<time>2016-10-07T17:41:39Z</time></trkpt>
<trkpt lat="29.675088" lon="98.123346">
<time>2016-10-07T17:41:40Z</time></trkpt>
<trkpt lat="29.675217" lon="98.123166">
<time>2016-10-07T17:41:41Z</time></trkpt>
<trkpt lat="29.675327" lon="98.123026">
<time>2016-10-07T17:41:42Z</time></trkpt>
<trkpt lat="29.675367" lon="98.122975">
<time>2016-10-07T17:41:43Z</time></trkpt>
<trkpt lat="29.675427" lon="98.122915">
<time>2016-10-07T17:41:44Z</time></trkpt>
<trkpt lat="29.675487" lon="98.122855">
<time>2016-10-07T17:41:45Z</time></trkpt>
<trkpt lat="29.675557" lon="98.122795">
<time>2016-10-07T17:41:46Z</time></trkpt>
<trkpt lat="29.675617" lon="98.122755">
<time>2016-10-07T17:41:47Z</time></trkpt>
<trkpt lat="29.675647" lon="98.122745">
<time>2016-10-07T17:41:48Z</time></trkpt>
<trkpt lat="29.675697" lon="98.122715">
<time>2016-10-07T17:41:49Z</time></trkpt>
<trkpt lat="29.675777" lon="98.122675">
<time>2016-10-07T17:41:50Z</time></trkpt>
<trkpt lat="29.675817" lon="98.122655">
<time>2016-10-07T17:41:51Z</time></trkpt>
<trkpt lat="29.675897" lon="98.122625">
<time>2016-10-07T17:41:52Z</time></trkpt>
<trkpt lat="29.675997" lon="98.122595">
<time>2016-10-07T17:41:53Z</time></trkpt>
<trkpt lat="29.676087" lon="98.122565">
<time>2016-10-07T17:41:54Z</time></trkpt>
<trkpt lat="29.676286" lon="98.122515">
<time>2016-10-07T17:41:55Z</time></trkpt>
<trkpt lat="29.676646" lon="98.122435">
<time>2016-10-07T17:41:56Z</time></trkpt>
<trkpt lat="29.676776" lon="98.122405">
<time>2016-10-07T17:41:57Z</time></trkpt>
<trkpt lat="29.676896" lon="98.122375">
<time>2016-10-07T17:41:58Z</time></trkpt>
<trkpt lat="29.676996" lon="98.122345">
<time>2016-10-07T17:41:59Z</time></trkpt>
<trkpt lat="29.677056" lon="98.122345">
<time>2016-10-07T17:42:00Z</time></trkpt>
<trkpt lat="29.677106" lon="98.122335">
<time>2016-10-07T17:42:01Z</time></trkpt>
<trkpt lat="29.677166" lon="98.122335">
<time>2016-10-07T17:42:02Z</time></trkpt>
<trkpt lat="29.677206" lon="98.122345">
<time>2016-10-07T17:42:03Z</time></trkpt>
<trkpt lat="29.677246" lon="98.122345">
<time>2016-10-07T17:42:04Z</time></trkpt>
<trkpt lat="29.677286" lon="98.122355">
<time>2016-10-07T17:42:05Z</time></trkpt>
<trkpt lat="29.677366" lon="98.122375">
<time>2016-10-07T17:42:06Z</time></trkpt>
<trkpt lat="29.677426" lon="98.122405">
<time>2016-10-07T17:42:07Z</time></trkpt>
<trkpt lat="29.677486" lon="98.122425">
<time>2016-10-07T17:42:08Z</time></trkpt>
<trkpt lat="29.677566" lon="98.122465">
<time>2016-10-07T17:42:09Z</time></trkpt>
<trkpt lat="29.677666" lon="98.122525">
<time>2016-10-07T17:42:10Z</time></trkpt>
<trkpt lat="29.677876" lon="98.122655">
<time>2016-10-07T17:42:11Z</time></trkpt>
<trkpt lat="29.678096" lon="98.122805">
<time>2016-10-07T17:42:12Z</time></trkpt>
<trkpt lat="29.678206" lon="98.122875">
<time>2016-10-07T17:42:13Z</time></trkpt>
<trkpt lat="29.678306" lon="98.122935">
<time>2016-10-07T17:42:14Z</time></trkpt>
<trkpt lat="29.678377" lon="98.122975">
<time>2016-10-07T17:42:15Z</time></trkpt>
<trkpt lat="29.678467" lon="98.123005">
<time>2016-10-07T17:42:16Z</time></trkpt>
<trkpt lat="29.678527" lon="98.123015">
<time>2016-10-07T17:42:17Z</time></trkpt>
<trkpt lat="29.678557" lon="98.123025">
<time>2016-10-07T17:42:18Z</time></trkpt>
<trkpt lat="29.678637" lon="98.123035">
<time>2016-10-07T17:42:19Z</time></trkpt>
<trkpt lat="29.678707" lon="98.123035">
<time>2016-10-07T17:42:20Z</time></trkpt>
<trkpt lat="29.678756" lon="98.123035">
<time>2016-10-07T17:42:21Z</time></trkpt>
<trkpt lat="29.678856" lon="98.123025">
<time>2016-10-07T17:42:22Z</time></trkpt>
<trkpt lat="29.679106" lon="98.122995">
<time>2016-10-07T17:42:23Z</time></trkpt>
<trkpt lat="29.679406" lon="98.122955">
<time>2016-10-07T17:42:24Z</time></trkpt>
<trkpt lat="29.679946" lon="98.122895">
<time>2016-10-07T17:42:25Z</time></trkpt>
<trkpt lat="29.680206" lon="98.122855">
<time>2016-10-07T17:42:26Z</time></trkpt>
<trkpt lat="29.680286" lon="98.122855">
<time>2016-10-07T17:42:27Z</time></trkpt>
<trkpt lat="29.680386" lon="98.122835">
<time>2016-10-07T17:42:28Z</time></trkpt>
<trkpt lat="29.680446" lon="98.122815">
<time>2016-10-07T17:42:29Z</time></trkpt>
<trkpt lat="29.680496" lon="98.122805">
<time>2016-10-07T17:42:30Z</time></trkpt>
<trkpt lat="29.680566" lon="98.122775">
<time>2016-10-07T17:42:31Z</time></trkpt>
<trkpt lat="29.680636" lon="98.122735">
<time>2016-10-07T17:42:32Z</time></trkpt>
<trkpt lat="29.680726" lon="98.122685">
<time>2016-10-07T17:42:33Z</time></trkpt>
<trkpt lat="29.680796" lon="98.122615">
<time>2016-10-07T17:42:34Z</time></trkpt>
<trkpt lat="29.680945" lon="98.122465">
<time>2016-10-07T17:42:35Z</time></trkpt>
<trkpt lat="29.681035" lon="98.122375">
<time>2016-10-07T17:42:36Z</time></trkpt>
<trkpt lat="29.681105" lon="98.122314">
<time>2016-10-07T17:42:37Z</time></trkpt>
<trkpt lat="29.681215" lon="98.122244">
<time>2016-10-07T17:42:38Z</time></trkpt>
<trkpt lat="29.681295" lon="98.122184">
<time>2016-10-07T17:42:39Z</time></trkpt>
<trkpt lat="29.681475" lon="98.122074">
<time>2016-10-07T17:42:40Z</time></trkpt>
<trkpt lat="29.682164" lon="98.121674">
<time>2016-10-07T17:42:41Z</time></trkpt>
<trkpt lat="29.682644" lon="98.121393">
<time>2016-10-07T17:42:42Z</time></trkpt>
<trkpt lat="29.683633" lon="98.120823">
<time>2016-10-07T17:42:43Z</time></trkpt>
<trkpt lat="29.684103" lon="98.120552">
<time>2016-10-07T17:42:44Z</time></trkpt>
<trkpt lat="29.684892" lon="98.120082">
<time>2016-10-07T17:42:45Z</time></trkpt>
<trkpt lat="29.685562" lon="98.119641">
<time>2016-10-07T17:42:46Z</time></trkpt>
<trkpt lat="29.685852" lon="98.119451">
<time>2016-10-07T17:42:47Z</time></trkpt>
<trkpt lat="29.686041" lon="98.119331">
<time>2016-10-07T17:42:48Z</time></trkpt>
<trkpt lat="29.686261" lon="98.119201">
<time>2016-10-07T17:42:49Z</time></trkpt>
<trkpt lat="29.686351" lon="98.119161">
<time>2016-10-07T17:42:50Z</time></trkpt>
<trkpt lat="29.686451" lon="98.119111">
<time>2016-10-07T17:42:51Z</time></trkpt>
<trkpt lat="29.686511" lon="98.11908">
<time>2016-10-07T17:42:52Z</time></trkpt>
<trkpt lat="29.686571" lon="98.11906">
<time>2016-10-07T17:42:53Z</time></trkpt>
<trkpt lat="29.686711" lon="98.11901">
<time>2016-10-07T17:42:54Z</time></trkpt>
<trkpt lat="29.687481" lon="98.11877">
<time>2016-10-07T17:42:55Z</time></trkpt>
<trkpt lat="29.687631" lon="98.11872">
<time>2016-10-07T17:42:56Z</time></trkpt>
<trkpt lat="29.687761" lon="98.11867">
<time>2016-10-07T17:42:57Z</time></trkpt>
<trkpt lat="29.687871" lon="98.11863">
<time>2016-10-07T17:42:58Z</time></trkpt>
<trkpt lat="29.68808" lon="98.11852">
<time>2016-10-07T17:42:59Z</time></trkpt>
<trkpt lat="29.68837" lon="98.11836">
<time>2016-10-07T17:43:00Z</time></trkpt>
<trkpt lat="29.68851" lon="98.11827">
<time>2016-10-07T17:43:01Z</time></trkpt>
<trkpt lat="29.68869" lon="98.118139">
<time>2016-10-07T17:43:02Z</time></trkpt>
<trkpt lat="29.68886" lon="98.117999">
<time>2016-10-07T17:43:03Z</time></trkpt>
<trkpt lat="29.68899" lon="98.117869">
<time>2016-10-07T17:43:04Z</time></trkpt>
<trkpt lat="29.689289" lon="98.117579">
<time>2016-10-07T17:43:05Z</time></trkpt>
<trkpt lat="29.690698" lon="98.116127">
<time>2016-10-07T17:43:06Z</time></trkpt>
<trkpt lat="29.691347" lon="98.115456">
<time>2016-10-07T17:43:07Z</time></trkpt>
<trkpt lat="29.691867" lon="98.114926">
<time>2016-10-07T17:43:08Z</time></trkpt>
<trkpt lat="29.692057" lon="98.114726">
<time>2016-10-07T17:43:09Z</time></trkpt>
<trkpt lat="29.692197" lon="98.114566">
<time>2016-10-07T17:43:10Z</time></trkpt>
<trkpt lat="29.692416" lon="98.114305">
<time>2016-10-07T17:43:11Z</time></trkpt>
<trkpt lat="29.693365" lon="98.113164">
<time>2016-10-07T17:43:12Z</time></trkpt>
<trkpt lat="29.693935" lon="98.112484">
<time>2016-10-07T17:43:13Z</time></trkpt>
<trkpt lat="29.694025" lon="98.112364">
<time>2016-10-07T17:43:14Z</time></trkpt>
<trkpt lat="29.694075" lon="98.112304">
<time>2016-10-07T17:43:15Z</time></trkpt>
<trkpt lat="29.694115" lon="98.112233">
<time>2016-10-07T17:43:16Z</time></trkpt>
<trkpt lat="29.694145" lon="98.112193">
<time>2016-10-07T17:43:17Z</time></trkpt>
<trkpt lat="29.694195" lon="98.112093">
<time>2016-10-07T17:43:18Z</time></trkpt>
<trkpt lat="29.694264" lon="98.111953">
<time>2016-10-07T17:43:19Z</time></trkpt>
<trkpt lat="29.694394" lon="98.111693">
<time>2016-10-07T17:43:20Z</time></trkpt>
<trkpt lat="29.694464" lon="98.111573">
<time>2016-10-07T17:43:21Z</time></trkpt>
<trkpt lat="29.694494" lon="98.111533">
<time>2016-10-07T17:43:22Z</time></trkpt>
<trkpt lat="29.694524" lon="98.111493">
<time>2016-10-07T17:43:23Z</time></trkpt>
<trkpt lat="29.694554" lon="98.111443">
<time>2016-10-07T17:43:24Z</time></trkpt>
<trkpt lat="29.694594" lon="98.111393">
<time>2016-10-07T17:43:25Z</time></trkpt>
<trkpt lat="29.694624" lon="98.111353">
<time>2016-10-07T17:43:26Z</time></trkpt>
<trkpt lat="29.694684" lon="98.111293">
<time>2016-10-07T17:43:27Z</time></trkpt>
<trkpt lat="29.694744" lon="98.111223">
<time>2016-10-07T17:43:28Z</time></trkpt>
<trkpt lat="29.694824" lon="98.111133">
<time>2016-10-07T17:43:29Z</time></trkpt>
<trkpt lat="29.694954" lon="98.110992">
<time>2016-10-07T17:43:30Z</time></trkpt>
<trkpt lat="29.695194" lon="98.110732">
<time>2016-10-07T17:43:31Z</time></trkpt>
<trkpt lat="29.695293" lon="98.110632">
<time>2016-10-07T17:43:32Z</time></trkpt>
<trkpt lat="29.695403" lon="98.110522">
<time>2016-10-07T17:43:33Z</time></trkpt>
<trkpt lat="29.695513" lon="98.110432">
<time>2016-10-07T17:43:34Z</time></trkpt>
<trkpt lat="29.695643" lon="98.110332">
<time>2016-10-07T17:43:35Z</time></trkpt>
<trkpt lat="29.695733" lon="98.110262">
<time>2016-10-07T17:43:36Z</time></trkpt>
<trkpt lat="29.695903" lon="98.110162">
<time>2016-10-07T17:43:37Z</time></trkpt>
<trkpt lat="29.696423" lon="98.109831">
<time>2016-10-07T17:43:38Z</time></trkpt>
<trkpt lat="29.696623" lon="98.109701">
<time>2016-10-07T17:43:39Z</time></trkpt>
<trkpt lat="29.696713" lon="98.109641">
<time>2016-10-07T17:43:40Z</time></trkpt>
<trkpt lat="29.696773" lon="98.109591">
<time>2016-10-07T17:43:41Z</time></trkpt>
<trkpt lat="29.696853" lon="98.109531">
<time>2016-10-07T17:43:42Z</time></trkpt>
<trkpt lat="29.696963" lon="98.109441">
<time>2016-10-07T17:43:43Z</time></trkpt>
<trkpt lat="29.697042" lon="98.109361">
<time>2016-10-07T17:43:44Z</time></trkpt>
<trkpt lat="29.697102" lon="98.109301">
<time>2016-10-07T17:43:45Z</time></trkpt>
<trkpt lat="29.697182" lon="98.109201">
<time>2016-10-07T17:43:46Z</time></trkpt>
<trkpt lat="29.697392" lon="98.108961">
<time>2016-10-07T17:43:47Z</time></trkpt>
<trkpt lat="29.697552" lon="98.108801">
<time>2016-10-07T17:43:48Z</time></trkpt>
<trkpt lat="29.697662" lon="98.108681">
<time>2016-10-07T17:43:49Z</time></trkpt>
<trkpt lat="29.697712" lon="98.108641">
<time>2016-10-07T17:43:50Z</time></trkpt>
<trkpt lat="29.697772" lon="98.108571">
<time>2016-10-07T17:43:51Z</time></trkpt>
<trkpt lat="29.697882" lon="98.108491">
<time>2016-10-07T17:43:52Z</time></trkpt>
<trkpt lat="29.698282" lon="98.10817">
<time>2016-10-07T17:43:53Z</time></trkpt>
<trkpt lat="29.698621" lon="98.1079">
<time>2016-10-07T17:43:54Z</time></trkpt>
<trkpt lat="29.699061" lon="98.10756">
<time>2016-10-07T17:43:55Z</time></trkpt>
<trkpt lat="29.699301" lon="98.10739">
<time>2016-10-07T17:43:56Z</time></trkpt>
<trkpt lat="29.699431" lon="98.1073">
<time>2016-10-07T17:43:57Z</time></trkpt>
<trkpt lat="29.699591" lon="98.1072">
<time>2016-10-07T17:43:58Z</time></trkpt>
<trkpt lat="29.699701" lon="98.10714">
<time>2016-10-07T17:43:59Z</time></trkpt>
<trkpt lat="29.699881" lon="98.10706">
<time>2016-10-07T17:44:00Z</time></trkpt>
<trkpt lat="29.700031" lon="98.106999">
<time>2016-10-07T17:44:01Z</time></trkpt>
<trkpt lat="29.700321" lon="98.106899">
<time>2016-10-07T17:44:02Z</time></trkpt>
<trkpt lat="29.700711" lon="98.106759">
<time>2016-10-07T17:44:03Z</time></trkpt>
<trkpt lat="29.70127" lon="98.106569">
<time>2016-10-07T17:44:04Z</time></trkpt>
<trkpt lat="29.7014" lon="98.106529">
<time>2016-10-07T17:44:05Z</time></trkpt>
<trkpt lat="29.70151" lon="98.106489">
<time>2016-10-07T17:44:06Z</time></trkpt>
<trkpt lat="29.70159" lon="98.106449">
<time>2016-10-07T17:44:07Z</time></trkpt>
<trkpt lat="29.70171" lon="98.106399">
<time>2016-10-07T17:44:08Z</time></trkpt>
<trkpt lat="29.70181" lon="98.106359">
<time>2016-10-07T17:44:09Z</time></trkpt>
<trkpt lat="29.7019" lon="98.106309">
<time>2016-10-07T17:44:10Z</time></trkpt>
<trkpt lat="29.70198" lon="98.106269">
<time>2016-10-07T17:44:11Z</time></trkpt>
<trkpt lat="29.70203" lon="98.106239">
<time>2016-10-07T17:44:12Z</time></trkpt>
<trkpt lat="29.70213" lon="98.106169">
<time>2016-10-07T17:44:13Z</time></trkpt>
<trkpt lat="29.7024" lon="98.105999">
<time>2016-10-07T17:44:14Z</time></trkpt>
<trkpt lat="29.70274" lon="98.105769">
<time>2016-10-07T17:44:15Z</time></trkpt>
<trkpt lat="29.70297" lon="98.105619">
<time>2016-10-07T17:44:16Z</time></trkpt>
<trkpt lat="29.70307" lon="98.105549">
<time>2016-10-07T17:44:17Z</time></trkpt>
<trkpt lat="29.70324" lon="98.105449">
<time>2016-10-07T17:44:18Z</time></trkpt>
<trkpt lat="29.70335" lon="98.105399">
<time>2016-10-07T17:44:19Z</time></trkpt>
<trkpt lat="29.70351" lon="98.105328">
<time>2016-10-07T17:44:20Z</time></trkpt>
<trkpt lat="29.704069" lon="98.105108">
<time>2016-10-07T17:44:21Z</time></trkpt>
<trkpt lat="29.704929" lon="98.104778">
<time>2016-10-07T17:44:22Z</time></trkpt>
<trkpt lat="29.705169" lon="98.104688">
<time>2016-10-07T17:44:23Z</time></trkpt>
<trkpt lat="29.705389" lon="98.104598">
<time>2016-10-07T17:44:24Z</time></trkpt>
<trkpt lat="29.705489" lon="98.104558">
<time>2016-10-07T17:44:25Z</time></trkpt>
<trkpt lat="29.705569" lon="98.104508">
<time>2016-10-07T17:44:26Z</time></trkpt>
<trkpt lat="29.705629" lon="98.104478">
<time>2016-10-07T17:44:27Z</time></trkpt>
<trkpt lat="29.705679" lon="98.104438">
<time>2016-10-07T17:44:28Z</time></trkpt>
<trkpt lat="29.705749" lon="98.104388">
<time>2016-10-07T17:44:29Z</time></trkpt>
<trkpt lat="29.705869" lon="98.104278">
<time>2016-10-07T17:44:30Z</time></trkpt>
<trkpt lat="29.706189" lon="98.103948">
<time>2016-10-07T17:44:31Z</time></trkpt>
<trkpt lat="29.706269" lon="98.103868">
<time>2016-10-07T17:44:32Z</time></trkpt>
<trkpt lat="29.706319" lon="98.103818">
<time>2016-10-07T17:44:33Z</time></trkpt>
<trkpt lat="29.706399" lon="98.103738">
<time>2016-10-07T17:44:34Z</time></trkpt>
<trkpt lat="29.706469" lon="98.103678">
<time>2016-10-07T17:44:35Z</time></trkpt>
<trkpt lat="29.706559" lon="98.103618">
<time>2016-10-07T17:44:36Z</time></trkpt>
<trkpt lat="29.706649" lon="98.103548">
<time>2016-10-07T17:44:37Z</time></trkpt>
<trkpt lat="29.706738" lon="98.103487">
<time>2016-10-07T17:44:38Z</time></trkpt>
<trkpt lat="29.706828" lon="98.103437">
<time>2016-10-07T17:44:39Z</time></trkpt>
<trkpt lat="29.706968" lon="98.103357">
<time>2016-10-07T17:44:40Z</time></trkpt>
<trkpt lat="29.707108" lon="98.103277">
<time>2016-10-07T17:44:41Z</time></trkpt>
<trkpt lat="29.707218" lon="98.103207">
<time>2016-10-07T17:44:42Z</time></trkpt>
<trkpt lat="29.707288" lon="98.103157">
<time>2016-10-07T17:44:43Z</time></trkpt>
<trkpt lat="29.707358" lon="98.103107">
<time>2016-10-07T17:44:44Z</time></trkpt>
<trkpt lat="29.707438" lon="98.103037">
<time>2016-10-07T17:44:45Z</time></trkpt>
<trkpt lat="29.707548" lon="98.102947">
<time>2016-10-07T17:44:46Z</time></trkpt>
<trkpt lat="29.707708" lon="98.102787">
<time>2016-10-07T17:44:47Z</time></trkpt>
<trkpt lat="29.707908" lon="98.102607">
<time>2016-10-07T17:44:48Z</time></trkpt>
<trkpt lat="29.708078" lon="98.102447">
<time>2016-10-07T17:44:49Z</time></trkpt>
<trkpt lat="29.708118" lon="98.102407">
<time>2016-10-07T17:44:50Z</time></trkpt>
<trkpt lat="29.708208" lon="98.102317">
<time>2016-10-07T17:44:51Z</time></trkpt>
<trkpt lat="29.708398" lon="98.102117">
<time>2016-10-07T17:44:52Z</time></trkpt>
<trkpt lat="29.708588" lon="98.101907">
<time>2016-10-07T17:44:53Z</time></trkpt>
<trkpt lat="29.708698" lon="98.101787">
<time>2016-10-07T17:44:54Z</time></trkpt>
<trkpt lat="29.708838" lon="98.101637">
<time>2016-10-07T17:44:55Z</time></trkpt>
<trkpt lat="29.708928" lon="98.101537">
<time>2016-10-07T17:44:56Z</time></trkpt>
<trkpt lat="29.708998" lon="98.101447">
<time>2016-10-07T17:44:57Z</time></trkpt>
<trkpt lat="29.709048" lon="98.101397">
<time>2016-10-07T17:44:58Z</time></trkpt>
<trkpt lat="29.709098" lon="98.101327">
<time>2016-10-07T17:44:59Z</time></trkpt>
<trkpt lat="29.709158" lon="98.101237">
<time>2016-10-07T17:45:00Z</time></trkpt>
<trkpt lat="29.709298" lon="98.101016">
<time>2016-10-07T17:45:01Z</time></trkpt>
<trkpt lat="29.709557" lon="98.100656">
<time>2016-10-07T17:45:02Z</time></trkpt>
<trkpt lat="29.709727" lon="98.100426">
<time>2016-10-07T17:45:03Z</time></trkpt>
<trkpt lat="29.709807" lon="98.100326">
<time>2016-10-07T17:45:04Z</time></trkpt>
<trkpt lat="29.709937" lon="98.100136">
<time>2016-10-07T17:45:05Z</time></trkpt>
<trkpt lat="29.710067" lon="98.099936">
<time>2016-10-07T17:45:06Z</time></trkpt>
<trkpt lat="29.710137" lon="98.099806">
<time>2016-10-07T17:45:07Z</time></trkpt>
<trkpt lat="29.710297" lon="98.099506">
<time>2016-10-07T17:45:08Z</time></trkpt>
<trkpt lat="29.710577" lon="98.098986">
<time>2016-10-07T17:45:09Z</time></trkpt>
<trkpt lat="29.710757" lon="98.098656">
<time>2016-10-07T17:45:10Z</time></trkpt>
<trkpt lat="29.710867" lon="98.098436">
<time>2016-10-07T17:45:11Z</time></trkpt>
<trkpt lat="29.710957" lon="98.098286">
<time>2016-10-07T17:45:12Z</time></trkpt>
<trkpt lat="29.711017" lon="98.098176">
<time>2016-10-07T17:45:13Z</time></trkpt>
<trkpt lat="29.711197" lon="98.097886">
<time>2016-10-07T17:45:14Z</time></trkpt>
<trkpt lat="29.711267" lon="98.097776">
<time>2016-10-07T17:45:15Z</time></trkpt>
<trkpt lat="29.711347" lon="98.097666">
<time>2016-10-07T17:45:16Z</time></trkpt>
<trkpt lat="29.711437" lon="98.097536">
<time>2016-10-07T17:45:17Z</time></trkpt>
<trkpt lat="29.711497" lon="98.097466">
<time>2016-10-07T17:45:18Z</time></trkpt>
<trkpt lat="29.711557" lon="98.097396">
<time>2016-10-07T17:45:19Z</time></trkpt>
<trkpt lat="29.711637" lon="98.097316">
<time>2016-10-07T17:45:20Z</time></trkpt>
<trkpt lat="29.711727" lon="98.097226">
<time>2016-10-07T17:45:21Z</time></trkpt>
<trkpt lat="29.711797" lon="98.097145">
<time>2016-10-07T17:45:22Z</time></trkpt>
<trkpt lat="29.711867" lon="98.097095">
<time>2016-10-07T17:45:23Z</time></trkpt>
<trkpt lat="29.712107" lon="98.096905">
<time>2016-10-07T17:45:24Z</time></trkpt>
<trkpt lat="29.712227" lon="98.096805">
<time>2016-10-07T17:45:25Z</time></trkpt>
<trkpt lat="29.712397" lon="98.096695">
<time>2016-10-07T17:45:26Z</time></trkpt>
<trkpt lat="29.712597" lon="98.096555">
<time>2016-10-07T17:45:27Z</time></trkpt>
<trkpt lat="29.712667" lon="98.096505">
<time>2016-10-07T17:45:28Z</time></trkpt>
<trkpt lat="29.712767" lon="98.096425">
<time>2016-10-07T17:45:29Z</time></trkpt>
<trkpt lat="29.712877" lon="98.096335">
<time>2016-10-07T17:45:30Z</time></trkpt>
<trkpt lat="29.712967" lon="98.096255">
<time>2016-10-07T17:45:31Z</time></trkpt>
<trkpt lat="29.713037" lon="98.096175">
<time>2016-10-07T17:45:32Z</time></trkpt>
<trkpt lat="29.713267" lon="98.095905">
<time>2016-10-07T17:45:33Z</time></trkpt>
<trkpt lat="29.713397" lon="98.095745">
<time>2016-10-07T17:45:34Z</time></trkpt>
<trkpt lat="29.713847" lon="98.095195">
<time>2016-10-07T17:45:35Z</time></trkpt>
<trkpt lat="29.714217" lon="98.094765">
<time>2016-10-07T17:45:36Z</time></trkpt>
<trkpt lat="29.714687" lon="98.094185">
<time>2016-10-07T17:45:37Z</time></trkpt>
<trkpt lat="29.714967" lon="98.093845">
<time>2016-10-07T17:45:38Z</time></trkpt>
<trkpt lat="29.715227" lon="98.093535">
<time>2016-10-07T17:45:39Z</time></trkpt>
<trkpt lat="29.715357" lon="98.093365">
<time>2016-10-07T17:45:40Z</time></trkpt>
<trkpt lat="29.715437" lon="98.093255">
<time>2016-10-07T17:45:41Z</time></trkpt>
<trkpt lat="29.715537" lon="98.093105">
<time>2016-10-07T17:45:42Z</time></trkpt>
<trkpt lat="29.715977" lon="98.092335">
<time>2016-10-07T17:45:43Z</time></trkpt>
<trkpt lat="29.716097" lon="98.092135">
<time>2016-10-07T17:45:44Z</time></trkpt>
<trkpt lat="29.716217" lon="98.091935">
<time>2016-10-07T17:45:45Z</time></trkpt>
<trkpt lat="29.716337" lon="98.091755">
<time>2016-10-07T17:45:46Z</time></trkpt>
<trkpt lat="29.716487" lon="98.091525">
<time>2016-10-07T17:45:47Z</time></trkpt>
<trkpt lat="29.716597" lon="98.091355">
<time>2016-10-07T17:45:48Z</time></trkpt>
<trkpt lat="29.717007" lon="98.090766">
<time>2016-10-07T17:45:49Z</time></trkpt>
<trkpt lat="29.717497" lon="98.090076">
<time>2016-10-07T17:45:50Z</time></trkpt>
<trkpt lat="29.717977" lon="98.089396">
<time>2016-10-07T17:45:51Z</time></trkpt>
<trkpt lat="29.718097" lon="98.089236">
<time>2016-10-07T17:45:52Z</time></trkpt>
<trkpt lat="29.718207" lon="98.089096">
<time>2016-10-07T17:45:53Z</time></trkpt>
<trkpt lat="29.718327" lon="98.088936">
<time>2016-10-07T17:45:54Z</time></trkpt>
<trkpt lat="29.718768" lon="98.088436">
<time>2016-10-07T17:45:55Z</time></trkpt>
<trkpt lat="29.719028" lon="98.088146">
<time>2016-10-07T17:45:56Z</time></trkpt>
<trkpt lat="29.719508" lon="98.087596">
<time>2016-10-07T17:45:57Z</time></trkpt>
<trkpt lat="29.719818" lon="98.087236">
<time>2016-10-07T17:45:58Z</time></trkpt>
<trkpt lat="29.720118" lon="98.086897">
<time>2016-10-07T17:45:59Z</time></trkpt>
<trkpt lat="29.720508" lon="98.086437">
<time>2016-10-07T17:46:00Z</time></trkpt>
<trkpt lat="29.721068" lon="98.085797">
<time>2016-10-07T17:46:01Z</time></trkpt>
<trkpt lat="29.722619" lon="98.084048">
<time>2016-10-07T17:46:02Z</time></trkpt>
<trkpt lat="29.7237" lon="98.082808">
<time>2016-10-07T17:46:03Z</time></trkpt>
<trkpt lat="29.72433" lon="98.082109">
<time>2016-10-07T17:46:04Z</time></trkpt>
<trkpt lat="29.725341" lon="98.08093">
<time>2016-10-07T17:46:05Z</time></trkpt>
<trkpt lat="29.725761" lon="98.08047">
<time>2016-10-07T17:46:06Z</time></trkpt>
<trkpt lat="29.726091" lon="98.0801">
<time>2016-10-07T17:46:07Z</time></trkpt>
<trkpt lat="29.726171" lon="98.08001">
<time>2016-10-07T17:46:08Z</time></trkpt>
<trkpt lat="29.726241" lon="98.07991">
<time>2016-10-07T17:46:09Z</time></trkpt>
<trkpt lat="29.726271" lon="98.07987">
<time>2016-10-07T17:46:10Z</time></trkpt>
<trkpt lat="29.726322" lon="98.0798">
<time>2016-10-07T17:46:11Z</time></trkpt>
<trkpt lat="29.726352" lon="98.07974">
<time>2016-10-07T17:46:12Z</time></trkpt>
<trkpt lat="29.726382" lon="98.07969">
<time>2016-10-07T17:46:13Z</time></trkpt>
<trkpt lat="29.726392" lon="98.07964">
<time>2016-10-07T17:46:14Z</time></trkpt>
<trkpt lat="29.726412" lon="98.0796">
<time>2016-10-07T17:46:15Z</time></trkpt>
<trkpt lat="29.726432" lon="98.079531">
<time>2016-10-07T17:46:16Z</time></trkpt>
<trkpt lat="29.726462" lon="98.079421">
<time>2016-10-07T17:46:17Z</time></trkpt>
<trkpt lat="29.726472" lon="98.079321">
<time>2016-10-07T17:46:18Z</time></trkpt>
<trkpt lat="29.726512" lon="98.079061">
<time>2016-10-07T17:46:19Z</time></trkpt>
<trkpt lat="29.726522" lon="98.078901">
<time>2016-10-07T17:46:20Z</time></trkpt>
<trkpt lat="29.726593" lon="98.078152">
<time>2016-10-07T17:46:21Z</time></trkpt>
<trkpt lat="29.726643" lon="98.077612">
<time>2016-10-07T17:46:22Z</time></trkpt>
<trkpt lat="29.726704" lon="98.077033">
<time>2016-10-07T17:46:23Z</time></trkpt>
<trkpt lat="29.726765" lon="98.076333">
<time>2016-10-07T17:46:24Z</time></trkpt>
<trkpt lat="29.726855" lon="98.075414">
<time>2016-10-07T17:46:25Z</time></trkpt>
<trkpt lat="29.726886" lon="98.075014">
<time>2016-10-07T17:46:26Z</time></trkpt>
<trkpt lat="29.726906" lon="98.074785">
<time>2016-10-07T17:46:27Z</time></trkpt>
<trkpt lat="29.726906" lon="98.074525">
<time>2016-10-07T17:46:28Z</time></trkpt>
<trkpt lat="29.726907" lon="98.074005">
<time>2016-10-07T17:46:29Z</time></trkpt>
<trkpt lat="29.726918" lon="98.073066">
<time>2016-10-07T17:46:30Z</time></trkpt>
<trkpt lat="29.726918" lon="98.072767">
<time>2016-10-07T17:46:31Z</time></trkpt>
<trkpt lat="29.726919" lon="98.072387">
<time>2016-10-07T17:46:32Z</time></trkpt>
<trkpt lat="29.726919" lon="98.072217">
<time>2016-10-07T17:46:33Z</time></trkpt>
<trkpt lat="29.726919" lon="98.071988">
<time>2016-10-07T17:46:34Z</time></trkpt>
<trkpt lat="29.726929" lon="98.071748">
<time>2016-10-07T17:46:35Z</time></trkpt>
<trkpt lat="29.72693" lon="98.070939">
<time>2016-10-07T17:46:36Z</time></trkpt>
<trkpt lat="29.726931" lon="98.070549">
<time>2016-10-07T17:46:37Z</time></trkpt>
<trkpt lat="29.726931" lon="98.07014">
<time>2016-10-07T17:46:38Z</time></trkpt>
<trkpt lat="29.726942" lon="98.069551">
<time>2016-10-07T17:46:39Z</time></trkpt>
<trkpt lat="29.726943" lon="98.069011">
<time>2016-10-07T17:46:40Z</time></trkpt>
<trkpt lat="29.726953" lon="98.068702">
<time>2016-10-07T17:46:41Z</time></trkpt>
<trkpt lat="29.726954" lon="98.068042">
<time>2016-10-07T17:46:42Z</time></trkpt>
<trkpt lat="29.726955" lon="98.067274">
<time>2016-10-07T17:46:43Z</time></trkpt>
<trkpt lat="29.726955" lon="98.066934">
<time>2016-10-07T17:46:44Z</time></trkpt>
<trkpt lat="29.726956" lon="98.066864">
<time>2016-10-07T17:46:45Z</time></trkpt>
<trkpt lat="29.726946" lon="98.066804">
<time>2016-10-07T17:46:46Z</time></trkpt>
<trkpt lat="29.726936" lon="98.066714">
<time>2016-10-07T17:46:47Z</time></trkpt>
<trkpt lat="29.726926" lon="98.066664">
<time>2016-10-07T17:46:48Z</time></trkpt>
<trkpt lat="29.726916" lon="98.066614">
<time>2016-10-07T17:46:49Z</time></trkpt>
<trkpt lat="29.726896" lon="98.066574">
<time>2016-10-07T17:46:50Z</time></trkpt>
<trkpt lat="29.726876" lon="98.066505">
<time>2016-10-07T17:46:51Z</time></trkpt>
<trkpt lat="29.726836" lon="98.066395">
<time>2016-10-07T17:46:52Z</time></trkpt>
<trkpt lat="29.726786" lon="98.066235">
<time>2016-10-07T17:46:53Z</time></trkpt>
<trkpt lat="29.726707" lon="98.066025">
<time>2016-10-07T17:46:54Z</time></trkpt>
<trkpt lat="29.726597" lon="98.065726">
<time>2016-10-07T17:46:55Z</time></trkpt>
<trkpt lat="29.726478" lon="98.065416">
<time>2016-10-07T17:46:56Z</time></trkpt>
<trkpt lat="29.726378" lon="98.065147">
<time>2016-10-07T17:46:57Z</time></trkpt>
<trkpt lat="29.726318" lon="98.064977">
<time>2016-10-07T17:46:58Z</time></trkpt>
<trkpt lat="29.726259" lon="98.064777">
<time>2016-10-07T17:46:59Z</time></trkpt>
<trkpt lat="29.726209" lon="98.064607">
<time>2016-10-07T17:47:00Z</time></trkpt>
<trkpt lat="29.726189" lon="98.064478">
<time>2016-10-07T17:47:01Z</time></trkpt>
<trkpt lat="29.726169" lon="98.064368">
<time>2016-10-07T17:47:02Z</time></trkpt>
<trkpt lat="29.726159" lon="98.064258">
<time>2016-10-07T17:47:03Z</time></trkpt>
<trkpt lat="29.72616" lon="98.064128">
<time>2016-10-07T17:47:04Z</time></trkpt>
<trkpt lat="29.72617" lon="98.063948">
<time>2016-10-07T17:47:05Z</time></trkpt>
<trkpt lat="29.72617" lon="98.063829">
<time>2016-10-07T17:47:06Z</time></trkpt>
<trkpt lat="29.72619" lon="98.063639">
<time>2016-10-07T17:47:07Z</time></trkpt>
<trkpt lat="29.726231" lon="98.063399">
<time>2016-10-07T17:47:08Z</time></trkpt>
<trkpt lat="29.726241" lon="98.063309">
<time>2016-10-07T17:47:09Z</time></trkpt>
<trkpt lat="29.726261" lon="98.063199">
<time>2016-10-07T17:47:10Z</time></trkpt>
<trkpt lat="29.726271" lon="98.06305">
<time>2016-10-07T17:47:11Z</time></trkpt>
<trkpt lat="29.726281" lon="98.06291">
<time>2016-10-07T17:47:12Z</time></trkpt>
<trkpt lat="29.726272" lon="98.0628">
<time>2016-10-07T17:47:13Z</time></trkpt>
<trkpt lat="29.726242" lon="98.06262">
<time>2016-10-07T17:47:14Z</time></trkpt>
<trkpt lat="29.726232" lon="98.06255">
<time>2016-10-07T17:47:15Z</time></trkpt>
<trkpt lat="29.726212" lon="98.062481">
<time>2016-10-07T17:47:16Z</time></trkpt>
<trkpt lat="29.726162" lon="98.062331">
<time>2016-10-07T17:47:17Z</time></trkpt>
<trkpt lat="29.726113" lon="98.062211">
<time>2016-10-07T17:47:18Z</time></trkpt>
<trkpt lat="29.726083" lon="98.062141">
<time>2016-10-07T17:47:19Z</time></trkpt>
<trkpt lat="29.726043" lon="98.062011">
<time>2016-10-07T17:47:20Z</time></trkpt>
<trkpt lat="29.725844" lon="98.061502">
<time>2016-10-07T17:47:21Z</time></trkpt>
<trkpt lat="29.725724" lon="98.061183">
<time>2016-10-07T17:47:22Z</time></trkpt>
<trkpt lat="29.725625" lon="98.060913">
<time>2016-10-07T17:47:23Z</time></trkpt>
<trkpt lat="29.725585" lon="98.060813">
<time>2016-10-07T17:47:24Z</time></trkpt>
<trkpt lat="29.725535" lon="98.060674">
<time>2016-10-07T17:47:25Z</time></trkpt>
<trkpt lat="29.725426" lon="98.060374">
<time>2016-10-07T17:47:26Z</time></trkpt>
<trkpt lat="29.725366" lon="98.060224">
<time>2016-10-07T17:47:27Z</time></trkpt>
<trkpt lat="29.725187" lon="98.059755">
<time>2016-10-07T17:47:28Z</time></trkpt>
<trkpt lat="29.725147" lon="98.059635">
<time>2016-10-07T17:47:29Z</time></trkpt>
<trkpt lat="29.725117" lon="98.059546">
<time>2016-10-07T17:47:30Z</time></trkpt>
<trkpt lat="29.725097" lon="98.059436">
<time>2016-10-07T17:47:31Z</time></trkpt>
<trkpt lat="29.725067" lon="98.059296">
<time>2016-10-07T17:47:32Z</time></trkpt>
<trkpt lat="29.725058" lon="98.059216">
<time>2016-10-07T17:47:33Z</time></trkpt>
<trkpt lat="29.725038" lon="98.059136">
<time>2016-10-07T17:47:34Z</time></trkpt>
<trkpt lat="29.725038" lon="98.059066">
<time>2016-10-07T17:47:35Z</time></trkpt>
<trkpt lat="29.725028" lon="98.058967">
<time>2016-10-07T17:47:36Z</time></trkpt>
<trkpt lat="29.725028" lon="98.058897">
<time>2016-10-07T17:47:37Z</time></trkpt>
<trkpt lat="29.725028" lon="98.058757">
<time>2016-10-07T17:47:38Z</time></trkpt>
<trkpt lat="29.725029" lon="98.058627">
<time>2016-10-07T17:47:39Z</time></trkpt>
<trkpt lat="29.725039" lon="98.058487">
<time>2016-10-07T17:47:40Z</time></trkpt>
<trkpt lat="29.725049" lon="98.058178">
<time>2016-10-07T17:47:41Z</time></trkpt>
<trkpt lat="29.72507" lon="98.057968">
<time>2016-10-07T17:47:42Z</time></trkpt>
<trkpt lat="29.72508" lon="98.057809">
<time>2016-10-07T17:47:43Z</time></trkpt>
<trkpt lat="29.72509" lon="98.057629">
<time>2016-10-07T17:47:44Z</time></trkpt>
<trkpt lat="29.725101" lon="98.057329">
<time>2016-10-07T17:47:45Z</time></trkpt>
<trkpt lat="29.725111" lon="98.05721">
<time>2016-10-07T17:47:46Z</time></trkpt>
<trkpt lat="29.725131" lon="98.057">
<time>2016-10-07T17:47:47Z</time></trkpt>
<trkpt lat="29.725142" lon="98.05679">
<time>2016-10-07T17:47:48Z</time></trkpt>
<trkpt lat="29.725162" lon="98.056461">
<time>2016-10-07T17:47:49Z</time></trkpt>
<trkpt lat="29.725173" lon="98.056251">
<time>2016-10-07T17:47:50Z</time></trkpt>
<trkpt lat="29.725163" lon="98.056102">
<time>2016-10-07T17:47:51Z</time></trkpt>
<trkpt lat="29.725163" lon="98.055922">
<time>2016-10-07T17:47:52Z</time></trkpt>
<trkpt lat="29.725154" lon="98.055722">
<time>2016-10-07T17:47:53Z</time></trkpt>
<trkpt lat="29.725115" lon="98.055223">
<time>2016-10-07T17:47:54Z</time></trkpt>
<trkpt lat="29.725056" lon="98.054625">
<time>2016-10-07T17:47:55Z</time></trkpt>
<trkpt lat="29.725017" lon="98.054215">
<time>2016-10-07T17:47:56Z</time></trkpt>
<trkpt lat="29.725007" lon="98.053996">
<time>2016-10-07T17:47:57Z</time></trkpt>
<trkpt lat="29.724987" lon="98.053846">
<time>2016-10-07T17:47:58Z</time></trkpt>
<trkpt lat="29.724967" lon="98.053756">
<time>2016-10-07T17:47:59Z</time></trkpt>
<trkpt lat="29.724948" lon="98.053676">
<time>2016-10-07T17:48:00Z</time></trkpt>
<trkpt lat="29.724918" lon="98.053587">
<time>2016-10-07T17:48:01Z</time></trkpt>
<trkpt lat="29.724898" lon="98.053537">
<time>2016-10-07T17:48:02Z</time></trkpt>
<trkpt lat="29.724848" lon="98.053457">
<time>2016-10-07T17:48:03Z</time></trkpt>
<trkpt lat="29.724748" lon="98.053307">
<time>2016-10-07T17:48:04Z</time></trkpt>
<trkpt lat="29.724718" lon="98.053237">
<time>2016-10-07T17:48:05Z</time></trkpt>
<trkpt lat="29.724669" lon="98.053157">
<time>2016-10-07T17:48:06Z</time></trkpt>
<trkpt lat="29.724629" lon="98.053048">
<time>2016-10-07T17:48:07Z</time></trkpt>
<trkpt lat="29.724609" lon="98.052988">
<time>2016-10-07T17:48:08Z</time></trkpt>
<trkpt lat="29.724589" lon="98.052918">
<time>2016-10-07T17:48:09Z</time></trkpt>
<trkpt lat="29.724579" lon="98.052828">
<time>2016-10-07T17:48:10Z</time></trkpt>
<trkpt lat="29.724579" lon="98.052768">
<time>2016-10-07T17:48:11Z</time></trkpt>
<trkpt lat="29.72457" lon="98.052668">
<time>2016-10-07T17:48:12Z</time></trkpt>
<trkpt lat="29.72457" lon="98.052589">
<time>2016-10-07T17:48:13Z</time></trkpt>
<trkpt lat="29.72458" lon="98.052489">
<time>2016-10-07T17:48:14Z</time></trkpt>
<trkpt lat="29.72459" lon="98.052409">
<time>2016-10-07T17:48:15Z</time></trkpt>
<trkpt lat="29.724621" lon="98.052199">
<time>2016-10-07T17:48:16Z</time></trkpt>
<trkpt lat="29.724651" lon="98.05199">
<time>2016-10-07T17:48:17Z</time></trkpt>
<trkpt lat="29.724671" lon="98.05186">
<time>2016-10-07T17:48:18Z</time></trkpt>
<trkpt lat="29.724681" lon="98.05171">
<time>2016-10-07T17:48:19Z</time></trkpt>
<trkpt lat="29.724682" lon="98.051611">
<time>2016-10-07T17:48:20Z</time></trkpt>
<trkpt lat="29.724672" lon="98.051521">
<time>2016-10-07T17:48:21Z</time></trkpt>
<trkpt lat="29.724662" lon="98.051421">
<time>2016-10-07T17:48:22Z</time></trkpt>
<trkpt lat="29.724652" lon="98.051351">
<time>2016-10-07T17:48:23Z</time></trkpt>
<trkpt lat="29.724642" lon="98.051281">
<time>2016-10-07T17:48:24Z</time></trkpt>
<trkpt lat="29.724613" lon="98.051172">
<time>2016-10-07T17:48:25Z</time></trkpt>
<trkpt lat="29.724543" lon="98.050952">
<time>2016-10-07T17:48:26Z</time></trkpt>
<trkpt lat="29.724463" lon="98.050713">
<time>2016-10-07T17:48:27Z</time></trkpt>
<trkpt lat="29.724394" lon="98.050523">
<time>2016-10-07T17:48:28Z</time></trkpt>
<trkpt lat="29.724334" lon="98.050313">
<time>2016-10-07T17:48:29Z</time></trkpt>
<trkpt lat="29.724195" lon="98.049874">
<time>2016-10-07T17:48:30Z</time></trkpt>
<trkpt lat="29.724146" lon="98.049715">
<time>2016-10-07T17:48:31Z</time></trkpt>
<trkpt lat="29.724096" lon="98.049555">
<time>2016-10-07T17:48:32Z</time></trkpt>
<trkpt lat="29.724076" lon="98.049475">
<time>2016-10-07T17:48:33Z</time></trkpt>
<trkpt lat="29.724046" lon="98.049345">
<time>2016-10-07T17:48:34Z</time></trkpt>
<trkpt lat="29.724037" lon="98.049266">
<time>2016-10-07T17:48:35Z</time></trkpt>
<trkpt lat="29.724027" lon="98.049206">
<time>2016-10-07T17:48:36Z</time></trkpt>
<trkpt lat="29.724027" lon="98.049106">
<time>2016-10-07T17:48:37Z</time></trkpt>
<trkpt lat="29.724027" lon="98.048906">
<time>2016-10-07T17:48:38Z</time></trkpt>
<trkpt lat="29.724027" lon="98.048827">
<time>2016-10-07T17:48:39Z</time></trkpt>
<trkpt lat="29.724018" lon="98.048737">
<time>2016-10-07T17:48:40Z</time></trkpt>
<trkpt lat="29.723998" lon="98.048657">
<time>2016-10-07T17:48:41Z</time></trkpt>
<trkpt lat="29.723978" lon="98.048587">
<time>2016-10-07T17:48:42Z</time></trkpt>
<trkpt lat="29.723918" lon="98.048398">
<time>2016-10-07T17:48:43Z</time></trkpt>
<trkpt lat="29.723779" lon="98.047959">
<time>2016-10-07T17:48:44Z</time></trkpt>
<trkpt lat="29.72369" lon="98.047689">
<time>2016-10-07T17:48:45Z</time></trkpt>
<trkpt lat="29.72365" lon="98.047549">
<time>2016-10-07T17:48:46Z</time></trkpt>
<trkpt lat="29.723611" lon="98.04732">
<time>2016-10-07T17:48:47Z</time></trkpt>
<trkpt lat="29.723591" lon="98.04723">
<time>2016-10-07T17:48:48Z</time></trkpt>
<trkpt lat="29.723571" lon="98.04711">
<time>2016-10-07T17:48:49Z</time></trkpt>
<trkpt lat="29.723532" lon="98.046931">
<time>2016-10-07T17:48:50Z</time></trkpt>
<trkpt lat="29.723462" lon="98.046632">
<time>2016-10-07T17:48:51Z</time></trkpt>
<trkpt lat="29.723403" lon="98.046402">
<time>2016-10-07T17:48:52Z</time></trkpt>
<trkpt lat="29.723294" lon="98.045973">
<time>2016-10-07T17:48:53Z</time></trkpt>
<trkpt lat="29.723165" lon="98.045524">
<time>2016-10-07T17:48:54Z</time></trkpt>
<trkpt lat="29.723026" lon="98.044985">
<time>2016-10-07T17:48:55Z</time></trkpt>
<trkpt lat="29.722976" lon="98.044826">
<time>2016-10-07T17:48:56Z</time></trkpt>
<trkpt lat="29.722937" lon="98.044636">
<time>2016-10-07T17:48:57Z</time></trkpt>
<trkpt lat="29.722917" lon="98.044506">
<time>2016-10-07T17:48:58Z</time></trkpt>
<trkpt lat="29.722897" lon="98.044377">
<time>2016-10-07T17:48:59Z</time></trkpt>
<trkpt lat="29.722888" lon="98.044177">
<time>2016-10-07T17:49:00Z</time></trkpt>
<trkpt lat="29.722888" lon="98.043998">
<time>2016-10-07T17:49:01Z</time></trkpt>
<trkpt lat="29.722879" lon="98.043738">
<time>2016-10-07T17:49:02Z</time></trkpt>
<trkpt lat="29.72287" lon="98.043399">
<time>2016-10-07T17:49:03Z</time></trkpt>
<trkpt lat="29.72287" lon="98.04305">
<time>2016-10-07T17:49:04Z</time></trkpt>
<trkpt lat="29.722892" lon="98.042352">
<time>2016-10-07T17:49:05Z</time></trkpt>
<trkpt lat="29.722892" lon="98.042142">
<time>2016-10-07T17:49:06Z</time></trkpt>
<trkpt lat="29.722913" lon="98.041903">
<time>2016-10-07T17:49:07Z</time></trkpt>
<trkpt lat="29.722933" lon="98.041703">
<time>2016-10-07T17:49:08Z</time></trkpt>
<trkpt lat="29.722974" lon="98.041314">
<time>2016-10-07T17:49:09Z</time></trkpt>
<trkpt lat="29.723097" lon="98.040297">
<time>2016-10-07T17:49:10Z</time></trkpt>
<trkpt lat="29.723137" lon="98.039968">
<time>2016-10-07T17:49:11Z</time></trkpt>
<trkpt lat="29.723189" lon="98.039469">
<time>2016-10-07T17:49:12Z</time></trkpt>
<trkpt lat="29.723251" lon="98.038691">
<time>2016-10-07T17:49:13Z</time></trkpt>
<trkpt lat="29.723271" lon="98.038382">
<time>2016-10-07T17:49:14Z</time></trkpt>
<trkpt lat="29.723292" lon="98.037923">
<time>2016-10-07T17:49:15Z</time></trkpt>
<trkpt lat="29.723303" lon="98.037713">
<time>2016-10-07T17:49:16Z</time></trkpt>
<trkpt lat="29.723304" lon="98.037324">
<time>2016-10-07T17:49:17Z</time></trkpt>
<trkpt lat="29.723314" lon="98.037245">
<time>2016-10-07T17:49:18Z</time></trkpt>
<trkpt lat="29.723304" lon="98.037135">
<time>2016-10-07T17:49:19Z</time></trkpt>
<trkpt lat="29.723305" lon="98.037025">
<time>2016-10-07T17:49:20Z</time></trkpt>
<trkpt lat="29.723285" lon="98.036776">
<time>2016-10-07T17:49:21Z</time></trkpt>
<trkpt lat="29.723276" lon="98.036646">
<time>2016-10-07T17:49:22Z</time></trkpt>
<trkpt lat="29.723276" lon="98.036606">
<time>2016-10-07T17:49:23Z</time></trkpt>
<trkpt lat="29.723276" lon="98.036477">
<time>2016-10-07T17:49:24Z</time></trkpt>
<trkpt lat="29.723286" lon="98.036387">
<time>2016-10-07T17:49:25Z</time></trkpt>
<trkpt lat="29.723286" lon="98.036297">
<time>2016-10-07T17:49:26Z</time></trkpt>
<trkpt lat="29.723317" lon="98.036048">
<time>2016-10-07T17:49:27Z</time></trkpt>
<trkpt lat="29.723338" lon="98.035818">
<time>2016-10-07T17:49:28Z</time></trkpt>
<trkpt lat="29.723348" lon="98.035549">
<time>2016-10-07T17:49:29Z</time></trkpt>
<trkpt lat="29.723349" lon="98.03536">
<time>2016-10-07T17:49:30Z</time></trkpt>
<trkpt lat="29.723349" lon="98.03511">
<time>2016-10-07T17:49:31Z</time></trkpt>
<trkpt lat="29.72335" lon="98.034731">
<time>2016-10-07T17:49:32Z</time></trkpt>
<trkpt lat="29.723352" lon="98.034153">
<time>2016-10-07T17:49:33Z</time></trkpt>
<trkpt lat="29.723342" lon="98.033983">
<time>2016-10-07T17:49:34Z</time></trkpt>
<trkpt lat="29.723343" lon="98.033844">
<time>2016-10-07T17:49:35Z</time></trkpt>
<trkpt lat="29.723323" lon="98.033664">
<time>2016-10-07T17:49:36Z</time></trkpt>
<trkpt lat="29.723275" lon="98.033116">
<time>2016-10-07T17:49:37Z</time></trkpt>
<trkpt lat="29.723226" lon="98.032607">
<time>2016-10-07T17:49:38Z</time></trkpt>
<trkpt lat="29.723177" lon="98.032138">
<time>2016-10-07T17:49:39Z</time></trkpt>
<trkpt lat="29.723157" lon="98.031989">
<time>2016-10-07T17:49:40Z</time></trkpt>
<trkpt lat="29.723148" lon="98.031819">
<time>2016-10-07T17:49:41Z</time></trkpt>
<trkpt lat="29.723128" lon="98.03167">
<time>2016-10-07T17:49:42Z</time></trkpt>
<trkpt lat="29.723099" lon="98.03157">
<time>2016-10-07T17:49:43Z</time></trkpt>
<trkpt lat="29.723079" lon="98.03148">
<time>2016-10-07T17:49:44Z</time></trkpt>
<trkpt lat="29.722989" lon="98.031231">
<time>2016-10-07T17:49:45Z</time></trkpt>
<trkpt lat="29.72291" lon="98.031002">
<time>2016-10-07T17:49:46Z</time></trkpt>
<trkpt lat="29.722811" lon="98.030702">
<time>2016-10-07T17:49:47Z</time></trkpt>
<trkpt lat="29.722712" lon="98.030373">
<time>2016-10-07T17:49:48Z</time></trkpt>
<trkpt lat="29.722603" lon="98.029975">
<time>2016-10-07T17:49:49Z</time></trkpt>
<trkpt lat="29.722494" lon="98.029616">
<time>2016-10-07T17:49:50Z</time></trkpt>
<trkpt lat="29.722444" lon="98.029446">
<time>2016-10-07T17:49:51Z</time></trkpt>
<trkpt lat="29.722375" lon="98.029237">
<time>2016-10-07T17:49:52Z</time></trkpt>
<trkpt lat="29.722286" lon="98.028997">
<time>2016-10-07T17:49:53Z</time></trkpt>
<trkpt lat="29.722196" lon="98.028798">
<time>2016-10-07T17:49:54Z</time></trkpt>
<trkpt lat="29.722037" lon="98.028479">
<time>2016-10-07T17:49:55Z</time></trkpt>
<trkpt lat="29.721898" lon="98.02822">
<time>2016-10-07T17:49:56Z</time></trkpt>
<trkpt lat="29.721838" lon="98.0281">
<time>2016-10-07T17:49:57Z</time></trkpt>
<trkpt lat="29.721778" lon="98.02797">
<time>2016-10-07T17:49:58Z</time></trkpt>
<trkpt lat="29.721759" lon="98.02792">
<time>2016-10-07T17:49:59Z</time></trkpt>
<trkpt lat="29.721729" lon="98.027851">
<time>2016-10-07T17:50:00Z</time></trkpt>
<trkpt lat="29.721659" lon="98.027661">
<time>2016-10-07T17:50:01Z</time></trkpt>
<trkpt lat="29.72159" lon="98.027472">
<time>2016-10-07T17:50:02Z</time></trkpt>
<trkpt lat="29.72151" lon="98.027222">
<time>2016-10-07T17:50:03Z</time></trkpt>
<trkpt lat="29.721382" lon="98.026844">
<time>2016-10-07T17:50:04Z</time></trkpt>
<trkpt lat="29.721253" lon="98.026505">
<time>2016-10-07T17:50:05Z</time></trkpt>
<trkpt lat="29.721223" lon="98.026415">
<time>2016-10-07T17:50:06Z</time></trkpt>
<trkpt lat="29.721173" lon="98.026275">
<time>2016-10-07T17:50:07Z</time></trkpt>
<trkpt lat="29.721084" lon="98.026066">
<time>2016-10-07T17:50:08Z</time></trkpt>
<trkpt lat="29.721004" lon="98.025876">
<time>2016-10-07T17:50:09Z</time></trkpt>
<trkpt lat="29.720915" lon="98.025677">
<time>2016-10-07T17:50:10Z</time></trkpt>
<trkpt lat="29.720825" lon="98.025498">
<time>2016-10-07T17:50:11Z</time></trkpt>
<trkpt lat="29.720676" lon="98.025208">
<time>2016-10-07T17:50:12Z</time></trkpt>
<trkpt lat="29.720607" lon="98.025069">
<time>2016-10-07T17:50:13Z</time></trkpt>
<trkpt lat="29.720557" lon="98.024979">
<time>2016-10-07T17:50:14Z</time></trkpt>
<trkpt lat="29.720358" lon="98.02466">
<time>2016-10-07T17:50:15Z</time></trkpt>
<trkpt lat="29.720208" lon="98.024431">
<time>2016-10-07T17:50:16Z</time></trkpt>
<trkpt lat="29.720149" lon="98.024321">
<time>2016-10-07T17:50:17Z</time></trkpt>
<trkpt lat="29.720039" lon="98.024122">
<time>2016-10-07T17:50:18Z</time></trkpt>
<trkpt lat="29.71993" lon="98.023892">
<time>2016-10-07T17:50:19Z</time></trkpt>
<trkpt lat="29.719831" lon="98.023683">
<time>2016-10-07T17:50:20Z</time></trkpt>
<trkpt lat="29.719761" lon="98.023514">
<time>2016-10-07T17:50:21Z</time></trkpt>
<trkpt lat="29.719731" lon="98.023444">
<time>2016-10-07T17:50:22Z</time></trkpt>
<trkpt lat="29.719682" lon="98.023314">
<time>2016-10-07T17:50:23Z</time></trkpt>
<trkpt lat="29.719632" lon="98.023175">
<time>2016-10-07T17:50:24Z</time></trkpt>
<trkpt lat="29.719582" lon="98.023015">
<time>2016-10-07T17:50:25Z</time></trkpt>
<trkpt lat="29.719493" lon="98.022696">
<time>2016-10-07T17:50:26Z</time></trkpt>
<trkpt lat="29.719365" lon="98.022297">
<time>2016-10-07T17:50:27Z</time></trkpt>
<trkpt lat="29.719335" lon="98.022188">
<time>2016-10-07T17:50:28Z</time></trkpt>
<trkpt lat="29.719295" lon="98.022098">
<time>2016-10-07T17:50:29Z</time></trkpt>
<trkpt lat="29.719236" lon="98.021938">
<time>2016-10-07T17:50:30Z</time></trkpt>
<trkpt lat="29.719186" lon="98.021819">
<time>2016-10-07T17:50:31Z</time></trkpt>
<trkpt lat="29.719117" lon="98.021619">
<time>2016-10-07T17:50:32Z</time></trkpt>
<trkpt lat="29.719067" lon="98.0215">
<time>2016-10-07T17:50:33Z</time></trkpt>
<trkpt lat="29.719057" lon="98.02144">
<time>2016-10-07T17:50:34Z</time></trkpt>
<trkpt lat="29.719037" lon="98.02137">
<time>2016-10-07T17:50:35Z</time></trkpt>
<trkpt lat="29.718998" lon="98.021201">
<time>2016-10-07T17:50:36Z</time></trkpt>
<trkpt lat="29.718968" lon="98.021051">
<time>2016-10-07T17:50:37Z</time></trkpt>
<trkpt lat="29.718949" lon="98.020822">
<time>2016-10-07T17:50:38Z</time></trkpt>
<trkpt lat="29.718939" lon="98.020602">
<time>2016-10-07T17:50:39Z</time></trkpt>
<trkpt lat="29.71893" lon="98.020383">
<time>2016-10-07T17:50:40Z</time></trkpt>
<trkpt lat="29.718921" lon="98.020233">
<time>2016-10-07T17:50:41Z</time></trkpt>
<trkpt lat="29.718911" lon="98.020174">
<time>2016-10-07T17:50:42Z</time></trkpt>
<trkpt lat="29.718901" lon="98.020124">
<time>2016-10-07T17:50:43Z</time></trkpt>
<trkpt lat="29.718881" lon="98.020034">
<time>2016-10-07T17:50:44Z</time></trkpt>
<trkpt lat="29.718861" lon="98.019964">
<time>2016-10-07T17:50:45Z</time></trkpt>
<trkpt lat="29.718851" lon="98.019944">
<time>2016-10-07T17:50:46Z</time></trkpt>
<trkpt lat="29.718782" lon="98.019755">
<time>2016-10-07T17:50:47Z</time></trkpt>
<trkpt lat="29.718752" lon="98.019675">
<time>2016-10-07T17:50:48Z</time></trkpt>
<trkpt lat="29.718742" lon="98.019595">
<time>2016-10-07T17:50:49Z</time></trkpt>
<trkpt lat="29.718703" lon="98.019326">
<time>2016-10-07T17:50:50Z</time></trkpt>
<trkpt lat="29.718693" lon="98.019237">
<time>2016-10-07T17:50:51Z</time></trkpt>
<trkpt lat="29.718634" lon="98.018878">
<time>2016-10-07T17:50:52Z</time></trkpt>
<trkpt lat="29.718586" lon="98.018429">
<time>2016-10-07T17:50:53Z</time></trkpt>
<trkpt lat="29.718537" lon="98.01806">
<time>2016-10-07T17:50:54Z</time></trkpt>
<trkpt lat="29.718517" lon="98.017891">
<time>2016-10-07T17:50:55Z</time></trkpt>
<trkpt lat="29.718498" lon="98.017721">
<time>2016-10-07T17:50:56Z</time></trkpt>
<trkpt lat="29.718488" lon="98.017632">
<time>2016-10-07T17:50:57Z</time></trkpt>
<trkpt lat="29.718478" lon="98.017532">
<time>2016-10-07T17:50:58Z</time></trkpt>
<trkpt lat="29.718479" lon="98.017342">
<time>2016-10-07T17:50:59Z</time></trkpt>
<trkpt lat="29.71847" lon="98.017053">
<time>2016-10-07T17:51:00Z</time></trkpt>
<trkpt lat="29.71846" lon="98.016874">
<time>2016-10-07T17:51:01Z</time></trkpt>
<trkpt lat="29.718451" lon="98.016605">
<time>2016-10-07T17:51:02Z</time></trkpt>
<trkpt lat="29.718452" lon="98.016395">
<time>2016-10-07T17:51:03Z</time></trkpt>
<trkpt lat="29.718452" lon="98.016226">
<time>2016-10-07T17:51:04Z</time></trkpt>
<trkpt lat="29.718463" lon="98.016106">
<time>2016-10-07T17:51:05Z</time></trkpt>
<trkpt lat="29.718483" lon="98.015967">
<time>2016-10-07T17:51:06Z</time></trkpt>
<trkpt lat="29.718534" lon="98.015678">
<time>2016-10-07T17:51:07Z</time></trkpt>
<trkpt lat="29.718585" lon="98.015438">
<time>2016-10-07T17:51:08Z</time></trkpt>
<trkpt lat="29.718585" lon="98.015399">
<time>2016-10-07T17:51:09Z</time></trkpt>
<trkpt lat="29.718595" lon="98.015339">
<time>2016-10-07T17:51:10Z</time></trkpt>
<trkpt lat="29.718605" lon="98.015259">
<time>2016-10-07T17:51:11Z</time></trkpt>
<trkpt lat="29.718605" lon="98.015199">
<time>2016-10-07T17:51:12Z</time></trkpt>
<trkpt lat="29.718605" lon="98.015169">
<time>2016-10-07T17:51:13Z</time></trkpt>
<trkpt lat="29.718605" lon="98.015109">
<time>2016-10-07T17:51:14Z</time></trkpt>
<trkpt lat="29.718596" lon="98.01504">
<time>2016-10-07T17:51:15Z</time></trkpt>
<trkpt lat="29.718596" lon="98.01501">
<time>2016-10-07T17:51:16Z</time></trkpt>
<trkpt lat="29.718586" lon="98.01496">
<time>2016-10-07T17:51:17Z</time></trkpt>
<trkpt lat="29.718566" lon="98.01491">
<time>2016-10-07T17:51:18Z</time></trkpt>
<trkpt lat="29.718556" lon="98.01488">
<time>2016-10-07T17:51:19Z</time></trkpt>
<trkpt lat="29.718546" lon="98.01484">
<time>2016-10-07T17:51:20Z</time></trkpt>
<trkpt lat="29.718526" lon="98.01481">
<time>2016-10-07T17:51:21Z</time></trkpt>
<trkpt lat="29.718516" lon="98.01478">
<time>2016-10-07T17:51:22Z</time></trkpt>
<trkpt lat="29.718497" lon="98.014741">
<time>2016-10-07T17:51:23Z</time></trkpt>
<trkpt lat="29.718467" lon="98.014681">
<time>2016-10-07T17:51:24Z</time></trkpt>
<trkpt lat="29.718447" lon="98.014651">
<time>2016-10-07T17:51:25Z</time></trkpt>
<trkpt lat="29.718427" lon="98.014611">
<time>2016-10-07T17:51:26Z</time></trkpt>
<trkpt lat="29.718347" lon="98.014501">
<time>2016-10-07T17:51:27Z</time></trkpt>
<trkpt lat="29.718268" lon="98.014382">
<time>2016-10-07T17:51:28Z</time></trkpt>
<trkpt lat="29.718049" lon="98.014043">
<time>2016-10-07T17:51:29Z</time></trkpt>
<trkpt lat="29.71787" lon="98.013784">
<time>2016-10-07T17:51:30Z</time></trkpt>
<trkpt lat="29.717631" lon="98.013405">
<time>2016-10-07T17:51:31Z</time></trkpt>
<trkpt lat="29.717541" lon="98.013275">
<time>2016-10-07T17:51:32Z</time></trkpt>
<trkpt lat="29.717422" lon="98.013086">
<time>2016-10-07T17:51:33Z</time></trkpt>
<trkpt lat="29.717372" lon="98.012976">
<time>2016-10-07T17:51:34Z</time></trkpt>
<trkpt lat="29.717352" lon="98.012916">
<time>2016-10-07T17:51:35Z</time></trkpt>
<trkpt lat="29.717342" lon="98.012877">
<time>2016-10-07T17:51:36Z</time></trkpt>
<trkpt lat="29.717332" lon="98.012827">
<time>2016-10-07T17:51:37Z</time></trkpt>
<trkpt lat="29.717333" lon="98.012777">
<time>2016-10-07T17:51:38Z</time></trkpt>
<trkpt lat="29.717333" lon="98.012737">
<time>2016-10-07T17:51:39Z</time></trkpt>
<trkpt lat="29.717343" lon="98.012697">
<time>2016-10-07T17:51:40Z</time></trkpt>
<trkpt lat="29.717353" lon="98.012657">
<time>2016-10-07T17:51:41Z</time></trkpt>
<trkpt lat="29.717363" lon="98.012607">
<time>2016-10-07T17:51:42Z</time></trkpt>
<trkpt lat="29.717383" lon="98.012508">
<time>2016-10-07T17:51:43Z</time></trkpt>
<trkpt lat="29.717383" lon="98.012478">
<time>2016-10-07T17:51:44Z</time></trkpt>
<trkpt lat="29.717384" lon="98.012458">
<time>2016-10-07T17:51:45Z</time></trkpt>
<trkpt lat="29.717394" lon="98.012428">
<time>2016-10-07T17:51:46Z</time></trkpt>
<trkpt lat="29.717394" lon="98.012398">
<time>2016-10-07T17:51:47Z</time></trkpt>
<trkpt lat="29.717384" lon="98.012368">
<time>2016-10-07T17:51:48Z</time></trkpt>
<trkpt lat="29.717384" lon="98.012348">
<time>2016-10-07T17:51:49Z</time></trkpt>
<trkpt lat="29.717374" lon="98.012298">
<time>2016-10-07T17:51:50Z</time></trkpt>
<trkpt lat="29.717364" lon="98.012259">
<time>2016-10-07T17:51:51Z</time></trkpt>
<trkpt lat="29.717354" lon="98.012239">
<time>2016-10-07T17:51:52Z</time></trkpt>
<trkpt lat="29.717344" lon="98.012189">
<time>2016-10-07T17:51:53Z</time></trkpt>
<trkpt lat="29.717315" lon="98.012129">
<time>2016-10-07T17:51:54Z</time></trkpt>
<trkpt lat="29.717275" lon="98.012059">
<time>2016-10-07T17:51:55Z</time></trkpt>
<trkpt lat="29.717126" lon="98.01177">
<time>2016-10-07T17:51:56Z</time></trkpt>
<trkpt lat="29.716877" lon="98.011292">
<time>2016-10-07T17:51:57Z</time></trkpt>
<trkpt lat="29.716708" lon="98.010983">
<time>2016-10-07T17:51:58Z</time></trkpt>
<trkpt lat="29.716499" lon="98.010574">
<time>2016-10-07T17:51:59Z</time></trkpt>
<trkpt lat="29.71643" lon="98.010434">
<time>2016-10-07T17:52:00Z</time></trkpt>
<trkpt lat="29.71634" lon="98.010275">
<time>2016-10-07T17:52:01Z</time></trkpt>
<trkpt lat="29.716291" lon="98.010185">
<time>2016-10-07T17:52:02Z</time></trkpt>
<trkpt lat="29.716191" lon="98.010036">
<time>2016-10-07T17:52:03Z</time></trkpt>
<trkpt lat="29.716131" lon="98.009946">
<time>2016-10-07T17:52:04Z</time></trkpt>
<trkpt lat="29.716042" lon="98.009826">
<time>2016-10-07T17:52:05Z</time></trkpt>
<trkpt lat="29.716002" lon="98.009767">
<time>2016-10-07T17:52:06Z</time></trkpt>
<trkpt lat="29.715703" lon="98.009418">
<time>2016-10-07T17:52:07Z</time></trkpt>
<trkpt lat="29.715633" lon="98.009318">
<time>2016-10-07T17:52:08Z</time></trkpt>
<trkpt lat="29.715573" lon="98.009248">
<time>2016-10-07T17:52:09Z</time></trkpt>
<trkpt lat="29.715404" lon="98.009039">
<time>2016-10-07T17:52:10Z</time></trkpt>
<trkpt lat="29.715275" lon="98.008859">
<time>2016-10-07T17:52:11Z</time></trkpt>
<trkpt lat="29.715016" lon="98.008481">
<time>2016-10-07T17:52:12Z</time></trkpt>
<trkpt lat="29.714797" lon="98.008172">
<time>2016-10-07T17:52:13Z</time></trkpt>
<trkpt lat="29.714647" lon="98.007982">
<time>2016-10-07T17:52:14Z</time></trkpt>
<trkpt lat="29.714588" lon="98.007893">
<time>2016-10-07T17:52:15Z</time></trkpt>
<trkpt lat="29.714488" lon="98.007763">
<time>2016-10-07T17:52:16Z</time></trkpt>
<trkpt lat="29.714398" lon="98.007653">
<time>2016-10-07T17:52:17Z</time></trkpt>
<trkpt lat="29.714329" lon="98.007584">
<time>2016-10-07T17:52:18Z</time></trkpt>
<trkpt lat="29.714289" lon="98.007544">
<time>2016-10-07T17:52:19Z</time></trkpt>
<trkpt lat="29.714259" lon="98.007514">
<time>2016-10-07T17:52:20Z</time></trkpt>
<trkpt lat="29.714219" lon="98.007474">
<time>2016-10-07T17:52:21Z</time></trkpt>
<trkpt lat="29.714159" lon="98.007434">
<time>2016-10-07T17:52:22Z</time></trkpt>
<trkpt lat="29.714109" lon="98.007394">
<time>2016-10-07T17:52:23Z</time></trkpt>
<trkpt lat="29.71402" lon="98.007305">
<time>2016-10-07T17:52:24Z</time></trkpt>
<trkpt lat="29.71394" lon="98.007225">
<time>2016-10-07T17:52:25Z</time></trkpt>
<trkpt lat="29.71389" lon="98.007165">
<time>2016-10-07T17:52:26Z</time></trkpt>
<trkpt lat="29.71377" lon="98.007025">
<time>2016-10-07T17:52:27Z</time></trkpt>
<trkpt lat="29.713591" lon="98.006806">
<time>2016-10-07T17:52:28Z</time></trkpt>
<trkpt lat="29.713521" lon="98.006726">
<time>2016-10-07T17:52:29Z</time></trkpt>
<trkpt lat="29.713412" lon="98.006597">
<time>2016-10-07T17:52:30Z</time></trkpt>
<trkpt lat="29.713232" lon="98.006388">
<time>2016-10-07T17:52:31Z</time></trkpt>
<trkpt lat="29.713143" lon="98.006298">
<time>2016-10-07T17:52:32Z</time></trkpt>
<trkpt lat="29.713093" lon="98.006248">
<time>2016-10-07T17:52:33Z</time></trkpt>
<trkpt lat="29.713053" lon="98.006208">
<time>2016-10-07T17:52:34Z</time></trkpt>
<trkpt lat="29.712993" lon="98.006168">
<time>2016-10-07T17:52:35Z</time></trkpt>
<trkpt lat="29.712913" lon="98.006118">
<time>2016-10-07T17:52:36Z</time></trkpt>
<trkpt lat="29.712834" lon="98.006069">
<time>2016-10-07T17:52:37Z</time></trkpt>
<trkpt lat="29.712784" lon="98.006029">
<time>2016-10-07T17:52:38Z</time></trkpt>
<trkpt lat="29.712714" lon="98.005979">
<time>2016-10-07T17:52:39Z</time></trkpt>
<trkpt lat="29.712684" lon="98.005949">
<time>2016-10-07T17:52:40Z</time></trkpt>
<trkpt lat="29.712644" lon="98.005909">
<time>2016-10-07T17:52:41Z</time></trkpt>
<trkpt lat="29.712624" lon="98.005889">
<time>2016-10-07T17:52:42Z</time></trkpt>
<trkpt lat="29.712574" lon="98.005839">
<time>2016-10-07T17:52:43Z</time></trkpt>
<trkpt lat="29.712505" lon="98.00574">
<time>2016-10-07T17:52:44Z</time></trkpt>
<trkpt lat="29.712445" lon="98.00566">
<time>2016-10-07T17:52:45Z</time></trkpt>
<trkpt lat="29.712325" lon="98.005461">
<time>2016-10-07T17:52:46Z</time></trkpt>
<trkpt lat="29.712246" lon="98.005341">
<time>2016-10-07T17:52:47Z</time></trkpt>
<trkpt lat="29.712146" lon="98.005181">
<time>2016-10-07T17:52:48Z</time></trkpt>
<trkpt lat="29.712087" lon="98.005092">
<time>2016-10-07T17:52:49Z</time></trkpt>
<trkpt lat="29.712037" lon="98.005012">
<time>2016-10-07T17:52:50Z</time></trkpt>
<trkpt lat="29.711947" lon="98.004863">
<time>2016-10-07T17:52:51Z</time></trkpt>
<trkpt lat="29.711888" lon="98.004773">
<time>2016-10-07T17:52:52Z</time></trkpt>
<trkpt lat="29.711848" lon="98.004733">
<time>2016-10-07T17:52:53Z</time></trkpt>
<trkpt lat="29.711808" lon="98.004683">
<time>2016-10-07T17:52:54Z</time></trkpt>
<trkpt lat="29.711748" lon="98.004623">
<time>2016-10-07T17:52:55Z</time></trkpt>
<trkpt lat="29.711648" lon="98.004544">
<time>2016-10-07T17:52:56Z</time></trkpt>
<trkpt lat="29.711608" lon="98.004514">
<time>2016-10-07T17:52:57Z</time></trkpt>
<trkpt lat="29.711529" lon="98.004464">
<time>2016-10-07T17:52:58Z</time></trkpt>
<trkpt lat="29.711329" lon="98.004364">
<time>2016-10-07T17:52:59Z</time></trkpt>
<trkpt lat="29.711189" lon="98.004294">
<time>2016-10-07T17:53:00Z</time></trkpt>
<trkpt lat="29.711099" lon="98.004245">
<time>2016-10-07T17:53:01Z</time></trkpt>
<trkpt lat="29.71097" lon="98.004185">
<time>2016-10-07T17:53:02Z</time></trkpt>
<trkpt lat="29.71064" lon="98.004025">
<time>2016-10-07T17:53:03Z</time></trkpt>
<trkpt lat="29.71059" lon="98.003995">
<time>2016-10-07T17:53:04Z</time></trkpt>
<trkpt lat="29.71056" lon="98.003975">
<time>2016-10-07T17:53:05Z</time></trkpt>
<trkpt lat="29.71052" lon="98.003946">
<time>2016-10-07T17:53:06Z</time></trkpt>
<trkpt lat="29.71048" lon="98.003906">
<time>2016-10-07T17:53:07Z</time></trkpt>
<trkpt lat="29.710441" lon="98.003866">
<time>2016-10-07T17:53:08Z</time></trkpt>
<trkpt lat="29.710411" lon="98.003826">
<time>2016-10-07T17:53:09Z</time></trkpt>
<trkpt lat="29.710391" lon="98.003786">
<time>2016-10-07T17:53:10Z</time></trkpt>
<trkpt lat="29.710381" lon="98.003746">
<time>2016-10-07T17:53:11Z</time></trkpt>
<trkpt lat="29.710371" lon="98.003706">
<time>2016-10-07T17:53:12Z</time></trkpt>
<trkpt lat="29.710361" lon="98.003666">
<time>2016-10-07T17:53:13Z</time></trkpt>
<trkpt lat="29.710361" lon="98.003627">
<time>2016-10-07T17:53:14Z</time></trkpt>
<trkpt lat="29.710372" lon="98.003577">
<time>2016-10-07T17:53:15Z</time></trkpt>
<trkpt lat="29.710382" lon="98.003527">
<time>2016-10-07T17:53:16Z</time></trkpt>
<trkpt lat="29.710392" lon="98.003487">
<time>2016-10-07T17:53:17Z</time></trkpt>
<trkpt lat="29.710412" lon="98.003407">
<time>2016-10-07T17:53:18Z</time></trkpt>
<trkpt lat="29.710432" lon="98.003377">
<time>2016-10-07T17:53:19Z</time></trkpt>
<trkpt lat="29.710452" lon="98.003338">
<time>2016-10-07T17:53:20Z</time></trkpt>
<trkpt lat="29.710482" lon="98.003268">
<time>2016-10-07T17:53:21Z</time></trkpt>
<trkpt lat="29.710533" lon="98.003208">
<time>2016-10-07T17:53:22Z</time></trkpt>
<trkpt lat="29.710623" lon="98.003048">
<time>2016-10-07T17:53:23Z</time></trkpt>
<trkpt lat="29.710693" lon="98.002919">
<time>2016-10-07T17:53:24Z</time></trkpt>
<trkpt lat="29.710714" lon="98.002869">
<time>2016-10-07T17:53:25Z</time></trkpt>
<trkpt lat="29.710734" lon="98.002829">
<time>2016-10-07T17:53:26Z</time></trkpt>
<trkpt lat="29.710744" lon="98.002769">
<time>2016-10-07T17:53:27Z</time></trkpt>
<trkpt lat="29.710754" lon="98.00271">
<time>2016-10-07T17:53:28Z</time></trkpt>
<trkpt lat="29.710764" lon="98.00264">
<time>2016-10-07T17:53:29Z</time></trkpt>
<trkpt lat="29.710754" lon="98.00258">
<time>2016-10-07T17:53:30Z</time></trkpt>
<trkpt lat="29.710755" lon="98.00253">
<time>2016-10-07T17:53:31Z</time></trkpt>
<trkpt lat="29.710745" lon="98.00247">
<time>2016-10-07T17:53:32Z</time></trkpt>
<trkpt lat="29.710735" lon="98.002381">
<time>2016-10-07T17:53:33Z</time></trkpt>
<trkpt lat="29.710715" lon="98.002251">
<time>2016-10-07T17:53:34Z</time></trkpt>
<trkpt lat="29.710716" lon="98.002181">
<time>2016-10-07T17:53:35Z</time></trkpt>
<trkpt lat="29.710706" lon="98.002092">
<time>2016-10-07T17:53:36Z</time></trkpt>
<trkpt lat="29.710706" lon="98.002042">
<time>2016-10-07T17:53:37Z</time></trkpt>
<trkpt lat="29.710706" lon="98.001992">
<time>2016-10-07T17:53:38Z</time></trkpt>
<trkpt lat="29.710706" lon="98.001942">
<time>2016-10-07T17:53:39Z</time></trkpt>
<trkpt lat="29.710707" lon="98.001902">
<time>2016-10-07T17:53:40Z</time></trkpt>
<trkpt lat="29.710717" lon="98.001862">
<time>2016-10-07T17:53:41Z</time></trkpt>
<trkpt lat="29.710727" lon="98.001822">
<time>2016-10-07T17:53:42Z</time></trkpt>
<trkpt lat="29.710747" lon="98.001753">
<time>2016-10-07T17:53:43Z</time></trkpt>
<trkpt lat="29.710767" lon="98.001693">
<time>2016-10-07T17:53:44Z</time></trkpt>
<trkpt lat="29.710787" lon="98.001653">
<time>2016-10-07T17:53:45Z</time></trkpt>
<trkpt lat="29.710817" lon="98.001593">
<time>2016-10-07T17:53:46Z</time></trkpt>
<trkpt lat="29.710868" lon="98.001523">
<time>2016-10-07T17:53:47Z</time></trkpt>
<trkpt lat="29.710908" lon="98.001464">
<time>2016-10-07T17:53:48Z</time></trkpt>
<trkpt lat="29.710978" lon="98.001404">
<time>2016-10-07T17:53:49Z</time></trkpt>
<trkpt lat="29.711068" lon="98.001334">
<time>2016-10-07T17:53:50Z</time></trkpt>
<trkpt lat="29.711148" lon="98.001294">
<time>2016-10-07T17:53:51Z</time></trkpt>
<trkpt lat="29.711238" lon="98.001244">
<time>2016-10-07T17:53:52Z</time></trkpt>
<trkpt lat="29.711359" lon="98.001194">
<time>2016-10-07T17:53:53Z</time></trkpt>
<trkpt lat="29.711499" lon="98.001125">
<time>2016-10-07T17:53:54Z</time></trkpt>
<trkpt lat="29.711609" lon="98.001055">
<time>2016-10-07T17:53:55Z</time></trkpt>
<trkpt lat="29.711859" lon="98.000876">
<time>2016-10-07T17:53:56Z</time></trkpt>
<trkpt lat="29.71202" lon="98.000766">
<time>2016-10-07T17:53:57Z</time></trkpt>
<trkpt lat="29.71214" lon="98.000686">
<time>2016-10-07T17:53:58Z</time></trkpt>
<trkpt lat="29.7122" lon="98.000646">
<time>2016-10-07T17:53:59Z</time></trkpt>
<trkpt lat="29.71222" lon="98.000626">
<time>2016-10-07T17:54:00Z</time></trkpt>
<trkpt lat="29.71223" lon="98.000606">
<time>2016-10-07T17:54:01Z</time></trkpt>
<trkpt lat="29.71225" lon="98.000576">
<time>2016-10-07T17:54:02Z</time></trkpt>
<trkpt lat="29.71226" lon="98.000557">
<time>2016-10-07T17:54:03Z</time></trkpt>
<trkpt lat="29.71227" lon="98.000527">
<time>2016-10-07T17:54:04Z</time></trkpt>
<trkpt lat="29.712271" lon="98.000507">
<time>2016-10-07T17:54:05Z</time></trkpt>
<trkpt lat="29.712271" lon="98.000497">
<time>2016-10-07T17:54:06Z</time></trkpt>
<trkpt lat="29.712271" lon="98.000487">
<time>2016-10-07T17:54:07Z</time></trkpt>
<trkpt lat="29.712271" lon="98.000467">
<time>2016-10-07T17:54:08Z</time></trkpt>
<trkpt lat="29.712271" lon="98.000447">
<time>2016-10-07T17:54:09Z</time></trkpt>
<trkpt lat="29.712261" lon="98.000437">
<time>2016-10-07T17:54:10Z</time></trkpt>
<trkpt lat="29.712261" lon="98.000427">
<time>2016-10-07T17:54:11Z</time></trkpt>
<trkpt lat="29.712251" lon="98.000417">
<time>2016-10-07T17:54:12Z</time></trkpt>
<trkpt lat="29.712251" lon="98.000407">
<time>2016-10-07T17:54:13Z</time></trkpt>
<trkpt lat="29.712241" lon="98.000397">
<time>2016-10-07T17:54:14Z</time></trkpt>
<trkpt lat="29.712231" lon="98.000387">
<time>2016-10-07T17:54:15Z</time></trkpt>
<trkpt lat="29.712231" lon="98.000377">
<time>2016-10-07T17:54:16Z</time></trkpt>
<trkpt lat="29.712221" lon="98.000377">
<time>2016-10-07T17:54:17Z</time></trkpt>
<trkpt lat="29.712201" lon="98.000367">
<time>2016-10-07T17:54:18Z</time></trkpt>
<trkpt lat="29.712181" lon="98.000357">
<time>2016-10-07T17:54:19Z</time></trkpt>
<trkpt lat="29.712171" lon="98.000357">
<time>2016-10-07T17:54:20Z</time></trkpt>
<trkpt lat="29.712161" lon="98.000357">
<time>2016-10-07T17:54:21Z</time></trkpt>
<trkpt lat="29.712141" lon="98.000357">
<time>2016-10-07T17:54:22Z</time></trkpt>
<trkpt lat="29.712131" lon="98.000367">
<time>2016-10-07T17:54:23Z</time></trkpt>
<trkpt lat="29.712101" lon="98.000377">
<time>2016-10-07T17:54:24Z</time></trkpt>
<trkpt lat="29.712081" lon="98.000387">
<time>2016-10-07T17:54:25Z</time></trkpt>
<trkpt lat="29.712051" lon="98.000397">
<time>2016-10-07T17:54:26Z</time></trkpt>
<trkpt lat="29.71188" lon="98.000547">
<time>2016-10-07T17:54:27Z</time></trkpt>
<trkpt lat="29.71178" lon="98.000626">
<time>2016-10-07T17:54:28Z</time></trkpt>
<trkpt lat="29.71155" lon="98.000806">
<time>2016-10-07T17:54:29Z</time></trkpt>
<trkpt lat="29.71146" lon="98.000876">
<time>2016-10-07T17:54:30Z</time></trkpt>
<trkpt lat="29.711409" lon="98.000895">
<time>2016-10-07T17:54:31Z</time></trkpt>
<trkpt lat="29.711369" lon="98.000905">
<time>2016-10-07T17:54:32Z</time></trkpt>
<trkpt lat="29.711339" lon="98.000915">
<time>2016-10-07T17:54:33Z</time></trkpt>
<trkpt lat="29.711299" lon="98.000915">
<time>2016-10-07T17:54:34Z</time></trkpt>
<trkpt lat="29.711269" lon="98.000915">
<time>2016-10-07T17:54:35Z</time></trkpt>
<trkpt lat="29.711249" lon="98.000905">
<time>2016-10-07T17:54:36Z</time></trkpt>
<trkpt lat="29.71122" lon="98.000885">
<time>2016-10-07T17:54:37Z</time></trkpt>
<trkpt lat="29.7112" lon="98.000866">
<time>2016-10-07T17:54:38Z</time></trkpt>
<trkpt lat="29.71119" lon="98.000856">
<time>2016-10-07T17:54:39Z</time></trkpt>
<trkpt lat="29.71118" lon="98.000826">
<time>2016-10-07T17:54:40Z</time></trkpt>
<trkpt lat="29.71117" lon="98.000806">
<time>2016-10-07T17:54:41Z</time></trkpt>
<trkpt lat="29.71117" lon="98.000776">
<time>2016-10-07T17:54:42Z</time></trkpt>
<trkpt lat="29.71117" lon="98.000746">
<time>2016-10-07T17:54:43Z</time></trkpt>
<trkpt lat="29.71118" lon="98.000716">
<time>2016-10-07T17:54:44Z</time></trkpt>
<trkpt lat="29.71119" lon="98.000696">
<time>2016-10-07T17:54:45Z</time></trkpt>
<trkpt lat="29.71121" lon="98.000676">
<time>2016-10-07T17:54:46Z</time></trkpt>
<trkpt lat="29.71122" lon="98.000666">
<time>2016-10-07T17:54:47Z</time></trkpt>
<trkpt lat="29.71125" lon="98.000646">
<time>2016-10-07T17:54:48Z</time></trkpt>
<trkpt lat="29.71128" lon="98.000626">
<time>2016-10-07T17:54:49Z</time></trkpt>
<trkpt lat="29.71136" lon="98.000606">
<time>2016-10-07T17:54:50Z</time></trkpt>
<trkpt lat="29.71139" lon="98.000596">
<time>2016-10-07T17:54:51Z</time></trkpt>
<trkpt lat="29.71144" lon="98.000576">
<time>2016-10-07T17:54:52Z</time></trkpt>
<trkpt lat="29.711491" lon="98.000557">
<time>2016-10-07T17:54:53Z</time></trkpt>
<trkpt lat="29.711551" lon="98.000527">
<time>2016-10-07T17:54:54Z</time></trkpt>
<trkpt lat="29.711611" lon="98.000497">
<time>2016-10-07T17:54:55Z</time></trkpt>
<trkpt lat="29.711651" lon="98.000467">
<time>2016-10-07T17:54:56Z</time></trkpt>
<trkpt lat="29.711701" lon="98.000437">
<time>2016-10-07T17:54:57Z</time></trkpt>
<trkpt lat="29.711761" lon="98.000387">
<time>2016-10-07T17:54:58Z</time></trkpt>
<trkpt lat="29.711841" lon="98.000307">
<time>2016-10-07T17:54:59Z</time></trkpt>
<trkpt lat="29.712072" lon="98.000088">
<time>2016-10-07T17:55:00Z</time></trkpt>
<trkpt lat="29.712142" lon="98.000038">
<time>2016-10-07T17:55:01Z</time></trkpt>
<trkpt lat="29.712152" lon="98.000028">
<time>2016-10-07T17:55:02Z</time></trkpt>
<trkpt lat="29.712272" lon="97.999909">
<time>2016-10-07T17:55:03Z</time></trkpt>
<trkpt lat="29.712353" lon="97.999819">
<time>2016-10-07T17:55:04Z</time></trkpt>
<trkpt lat="29.712403" lon="97.999749">
<time>2016-10-07T17:55:05Z</time></trkpt>
<trkpt lat="29.712443" lon="97.999679">
<time>2016-10-07T17:55:06Z</time></trkpt>
<trkpt lat="29.712483" lon="97.99962">
<time>2016-10-07T17:55:07Z</time></trkpt>
<trkpt lat="29.712503" lon="97.99955">
<time>2016-10-07T17:55:08Z</time></trkpt>
<trkpt lat="29.712544" lon="97.99946">
<time>2016-10-07T17:55:09Z</time></trkpt>
<trkpt lat="29.712564" lon="97.99941">
<time>2016-10-07T17:55:10Z</time></trkpt>
<trkpt lat="29.712604" lon="97.999271">
<time>2016-10-07T17:55:11Z</time></trkpt>
<trkpt lat="29.712776" lon="97.998762">
<time>2016-10-07T17:55:12Z</time></trkpt>
<trkpt lat="29.712988" lon="97.998144">
<time>2016-10-07T17:55:13Z</time></trkpt>
<trkpt lat="29.713008" lon="97.998065">
<time>2016-10-07T17:55:14Z</time></trkpt>
<trkpt lat="29.713048" lon="97.997975">
<time>2016-10-07T17:55:15Z</time></trkpt>
<trkpt lat="29.713088" lon="97.997925">
<time>2016-10-07T17:55:16Z</time></trkpt>
<trkpt lat="29.713128" lon="97.997855">
<time>2016-10-07T17:55:17Z</time></trkpt>
<trkpt lat="29.713189" lon="97.997796">
<time>2016-10-07T17:55:18Z</time></trkpt>
<trkpt lat="29.713279" lon="97.997696">
<time>2016-10-07T17:55:19Z</time></trkpt>
<trkpt lat="29.713349" lon="97.997626">
<time>2016-10-07T17:55:20Z</time></trkpt>
<trkpt lat="29.713379" lon="97.997596">
<time>2016-10-07T17:55:21Z</time></trkpt>
<trkpt lat="29.713409" lon="97.997536">
<time>2016-10-07T17:55:22Z</time></trkpt>
<trkpt lat="29.71345" lon="97.997467">
<time>2016-10-07T17:55:23Z</time></trkpt>
<trkpt lat="29.71349" lon="97.997357">
<time>2016-10-07T17:55:24Z</time></trkpt>
<trkpt lat="29.71351" lon="97.997297">
<time>2016-10-07T17:55:25Z</time></trkpt>
<trkpt lat="29.71353" lon="97.997207">
<time>2016-10-07T17:55:26Z</time></trkpt>
<trkpt lat="29.713581" lon="97.996889">
<time>2016-10-07T17:55:27Z</time></trkpt>
<trkpt lat="29.713592" lon="97.996729">
<time>2016-10-07T17:55:28Z</time></trkpt>
<trkpt lat="29.713622" lon="97.99658">
<time>2016-10-07T17:55:29Z</time></trkpt>
<trkpt lat="29.713663" lon="97.99642">
<time>2016-10-07T17:55:30Z</time></trkpt>
<trkpt lat="29.713925" lon="97.995662">
<time>2016-10-07T17:55:31Z</time></trkpt>
<trkpt lat="29.714167" lon="97.994945">
<time>2016-10-07T17:55:32Z</time></trkpt>
<trkpt lat="29.714308" lon="97.994536">
<time>2016-10-07T17:55:33Z</time></trkpt>
<trkpt lat="29.714379" lon="97.994337">
<time>2016-10-07T17:55:34Z</time></trkpt>
<trkpt lat="29.714449" lon="97.994147">
<time>2016-10-07T17:55:35Z</time></trkpt>
<trkpt lat="29.71454" lon="97.993958">
<time>2016-10-07T17:55:36Z</time></trkpt>
<trkpt lat="29.714711" lon="97.993649">
<time>2016-10-07T17:55:37Z</time></trkpt>
<trkpt lat="29.714741" lon="97.993599">
<time>2016-10-07T17:55:38Z</time></trkpt>
<trkpt lat="29.714761" lon="97.993539">
<time>2016-10-07T17:55:39Z</time></trkpt>
<trkpt lat="29.714761" lon="97.993509">
<time>2016-10-07T17:55:40Z</time></trkpt>
<trkpt lat="29.714761" lon="97.99349">
<time>2016-10-07T17:55:41Z</time></trkpt>
<trkpt lat="29.714752" lon="97.99345">
<time>2016-10-07T17:55:42Z</time></trkpt>
<trkpt lat="29.714732" lon="97.99341">
<time>2016-10-07T17:55:43Z</time></trkpt>
<trkpt lat="29.714712" lon="97.99339">
<time>2016-10-07T17:55:44Z</time></trkpt>
<trkpt lat="29.714672" lon="97.99338">
<time>2016-10-07T17:55:45Z</time></trkpt>
<trkpt lat="29.714632" lon="97.99338">
<time>2016-10-07T17:55:46Z</time></trkpt>
<trkpt lat="29.714612" lon="97.99339">
<time>2016-10-07T17:55:47Z</time></trkpt>
<trkpt lat="29.714582" lon="97.99341">
<time>2016-10-07T17:55:48Z</time></trkpt>
<trkpt lat="29.714552" lon="97.99344">
<time>2016-10-07T17:55:49Z</time></trkpt>
<trkpt lat="29.714542" lon="97.99346">
<time>2016-10-07T17:55:50Z</time></trkpt>
<trkpt lat="29.714532" lon="97.99348">
<time>2016-10-07T17:55:51Z</time></trkpt>
<trkpt lat="29.714501" lon="97.993549">
<time>2016-10-07T17:55:52Z</time></trkpt>
<trkpt lat="29.714481" lon="97.993609">
<time>2016-10-07T17:55:53Z</time></trkpt>
<trkpt lat="29.714441" lon="97.993719">
<time>2016-10-07T17:55:54Z</time></trkpt>
<trkpt lat="29.714401" lon="97.993809">
<time>2016-10-07T17:55:55Z</time></trkpt>
<trkpt lat="29.71436" lon="97.993888">
<time>2016-10-07T17:55:56Z</time></trkpt>
<trkpt lat="29.71431" lon="97.993958">
<time>2016-10-07T17:55:57Z</time></trkpt>
<trkpt lat="29.71416" lon="97.994137">
<time>2016-10-07T17:55:58Z</time></trkpt>
<trkpt lat="29.713969" lon="97.994347">
<time>2016-10-07T17:55:59Z</time></trkpt>
<trkpt lat="29.713788" lon="97.994546">
<time>2016-10-07T17:56:00Z</time></trkpt>
<trkpt lat="29.713588" lon="97.994755">
<time>2016-10-07T17:56:01Z</time></trkpt>
<trkpt lat="29.713508" lon="97.994845">
<time>2016-10-07T17:56:02Z</time></trkpt>
<trkpt lat="29.713457" lon="97.994905">
<time>2016-10-07T17:56:03Z</time></trkpt>
<trkpt lat="29.713397" lon="97.994995">
<time>2016-10-07T17:56:04Z</time></trkpt>
<trkpt lat="29.713377" lon="97.995045">
<time>2016-10-07T17:56:05Z</time></trkpt>
<trkpt lat="29.713347" lon="97.995124">
<time>2016-10-07T17:56:06Z</time></trkpt>
<trkpt lat="29.713306" lon="97.995284">
<time>2016-10-07T17:56:07Z</time></trkpt>
<trkpt lat="29.713286" lon="97.995403">
<time>2016-10-07T17:56:08Z</time></trkpt>
<trkpt lat="29.713266" lon="97.995503">
<time>2016-10-07T17:56:09Z</time></trkpt>
<trkpt lat="29.713235" lon="97.995573">
<time>2016-10-07T17:56:10Z</time></trkpt>
<trkpt lat="29.713195" lon="97.995623">
<time>2016-10-07T17:56:11Z</time></trkpt>
<trkpt lat="29.713165" lon="97.995653">
<time>2016-10-07T17:56:12Z</time></trkpt>
<trkpt lat="29.713115" lon="97.995682">
<time>2016-10-07T17:56:13Z</time></trkpt>
<trkpt lat="29.713065" lon="97.995692">
<time>2016-10-07T17:56:14Z</time></trkpt>
<trkpt lat="29.713015" lon="97.995702">
<time>2016-10-07T17:56:15Z</time></trkpt>
<trkpt lat="29.712955" lon="97.995692">
<time>2016-10-07T17:56:16Z</time></trkpt>
<trkpt lat="29.712905" lon="97.995672">
<time>2016-10-07T17:56:17Z</time></trkpt>
<trkpt lat="29.712855" lon="97.995623">
<time>2016-10-07T17:56:18Z</time></trkpt>
<trkpt lat="29.712825" lon="97.995593">
<time>2016-10-07T17:56:19Z</time></trkpt>
<trkpt lat="29.712806" lon="97.995533">
<time>2016-10-07T17:56:20Z</time></trkpt>
<trkpt lat="29.712786" lon="97.995493">
<time>2016-10-07T17:56:21Z</time></trkpt>
<trkpt lat="29.712786" lon="97.995463">
<time>2016-10-07T17:56:22Z</time></trkpt>
<trkpt lat="29.712776" lon="97.995423">
<time>2016-10-07T17:56:23Z</time></trkpt>
<trkpt lat="29.712776" lon="97.995383">
<time>2016-10-07T17:56:24Z</time></trkpt>
<trkpt lat="29.712796" lon="97.995344">
<time>2016-10-07T17:56:25Z</time></trkpt>
<trkpt lat="29.712806" lon="97.995304">
<time>2016-10-07T17:56:26Z</time></trkpt>
<trkpt lat="29.712816" lon="97.995264">
<time>2016-10-07T17:56:27Z</time></trkpt>
<trkpt lat="29.712836" lon="97.995234">
<time>2016-10-07T17:56:28Z</time></trkpt>
<trkpt lat="29.712867" lon="97.995184">
<time>2016-10-07T17:56:29Z</time></trkpt>
<trkpt lat="29.712897" lon="97.995144">
<time>2016-10-07T17:56:30Z</time></trkpt>
<trkpt lat="29.713027" lon="97.994995">
<time>2016-10-07T17:56:31Z</time></trkpt>
<trkpt lat="29.713218" lon="97.994775">
<time>2016-10-07T17:56:32Z</time></trkpt>
<trkpt lat="29.713428" lon="97.994546">
<time>2016-10-07T17:56:33Z</time></trkpt>
<trkpt lat="29.713519" lon="97.994436">
<time>2016-10-07T17:56:34Z</time></trkpt>
<trkpt lat="29.713619" lon="97.994307">
<time>2016-10-07T17:56:35Z</time></trkpt>
<trkpt lat="29.71371" lon="97.994157">
<time>2016-10-07T17:56:36Z</time></trkpt>
<trkpt lat="29.71374" lon="97.994118">
<time>2016-10-07T17:56:37Z</time></trkpt>
<trkpt lat="29.71388" lon="97.993858">
<time>2016-10-07T17:56:38Z</time></trkpt>
<trkpt lat="29.713941" lon="97.993749">
<time>2016-10-07T17:56:39Z</time></trkpt>
<trkpt lat="29.713981" lon="97.993629">
<time>2016-10-07T17:56:40Z</time></trkpt>
<trkpt lat="29.714122" lon="97.99324">
<time>2016-10-07T17:56:41Z</time></trkpt>
<trkpt lat="29.714183" lon="97.993111">
<time>2016-10-07T17:56:42Z</time></trkpt>
<trkpt lat="29.714243" lon="97.993011">
<time>2016-10-07T17:56:43Z</time></trkpt>
<trkpt lat="29.714303" lon="97.992921">
<time>2016-10-07T17:56:44Z</time></trkpt>
<trkpt lat="29.714363" lon="97.992842">
<time>2016-10-07T17:56:45Z</time></trkpt>
<trkpt lat="29.714464" lon="97.992712">
<time>2016-10-07T17:56:46Z</time></trkpt>
<trkpt lat="29.714534" lon="97.992632">
<time>2016-10-07T17:56:47Z</time></trkpt>
<trkpt lat="29.715197" lon="97.991785">
<time>2016-10-07T17:56:48Z</time></trkpt>
<trkpt lat="29.715708" lon="97.991207">
<time>2016-10-07T17:56:49Z</time></trkpt>
<trkpt lat="29.71623" lon="97.990629">
<time>2016-10-07T17:56:50Z</time></trkpt>
<trkpt lat="29.716461" lon="97.99039">
<time>2016-10-07T17:56:51Z</time></trkpt>
<trkpt lat="29.716902" lon="97.989951">
<time>2016-10-07T17:56:52Z</time></trkpt>
<trkpt lat="29.716992" lon="97.989841">
<time>2016-10-07T17:56:53Z</time></trkpt>
<trkpt lat="29.717022" lon="97.989801">
<time>2016-10-07T17:56:54Z</time></trkpt>
<trkpt lat="29.717042" lon="97.989762">
<time>2016-10-07T17:56:55Z</time></trkpt>
<trkpt lat="29.717052" lon="97.989722">
<time>2016-10-07T17:56:56Z</time></trkpt>
<trkpt lat="29.717053" lon="97.989692">
<time>2016-10-07T17:56:57Z</time></trkpt>
<trkpt lat="29.717043" lon="97.989652">
<time>2016-10-07T17:56:58Z</time></trkpt>
<trkpt lat="29.717033" lon="97.989622">
<time>2016-10-07T17:56:59Z</time></trkpt>
<trkpt lat="29.717013" lon="97.989602">
<time>2016-10-07T17:57:00Z</time></trkpt>
<trkpt lat="29.716983" lon="97.989592">
<time>2016-10-07T17:57:01Z</time></trkpt>
<trkpt lat="29.716953" lon="97.989582">
<time>2016-10-07T17:57:02Z</time></trkpt>
<trkpt lat="29.716923" lon="97.989582">
<time>2016-10-07T17:57:03Z</time></trkpt>
<trkpt lat="29.716883" lon="97.989602">
<time>2016-10-07T17:57:04Z</time></trkpt>
<trkpt lat="29.716853" lon="97.989622">
<time>2016-10-07T17:57:05Z</time></trkpt>
<trkpt lat="29.716823" lon="97.989642">
<time>2016-10-07T17:57:06Z</time></trkpt>
<trkpt lat="29.716793" lon="97.989672">
<time>2016-10-07T17:57:07Z</time></trkpt>
<trkpt lat="29.716773" lon="97.989702">
<time>2016-10-07T17:57:08Z</time></trkpt>
<trkpt lat="29.716662" lon="97.989851">
<time>2016-10-07T17:57:09Z</time></trkpt>
<trkpt lat="29.716532" lon="97.990021">
<time>2016-10-07T17:57:10Z</time></trkpt>
<trkpt lat="29.716301" lon="97.99024">
<time>2016-10-07T17:57:11Z</time></trkpt>
<trkpt lat="29.716" lon="97.990499">
<time>2016-10-07T17:57:12Z</time></trkpt>
<trkpt lat="29.715379" lon="97.991057">
<time>2016-10-07T17:57:13Z</time></trkpt>
<trkpt lat="29.715228" lon="97.991157">
<time>2016-10-07T17:57:14Z</time></trkpt>
<trkpt lat="29.714998" lon="97.991277">
<time>2016-10-07T17:57:15Z</time></trkpt>
<trkpt lat="29.714788" lon="97.991386">
<time>2016-10-07T17:57:16Z</time></trkpt>
<trkpt lat="29.714608" lon="97.991476">
<time>2016-10-07T17:57:17Z</time></trkpt>
<trkpt lat="29.714477" lon="97.991556">
<time>2016-10-07T17:57:18Z</time></trkpt>
<trkpt lat="29.714317" lon="97.991685">
<time>2016-10-07T17:57:19Z</time></trkpt>
<trkpt lat="29.714177" lon="97.991815">
<time>2016-10-07T17:57:20Z</time></trkpt>
<trkpt lat="29.714076" lon="97.991945">
<time>2016-10-07T17:57:21Z</time></trkpt>
<trkpt lat="29.714016" lon="97.992014">
<time>2016-10-07T17:57:22Z</time></trkpt>
<trkpt lat="29.713986" lon="97.992044">
<time>2016-10-07T17:57:23Z</time></trkpt>
<trkpt lat="29.713966" lon="97.992054">
<time>2016-10-07T17:57:24Z</time></trkpt>
<trkpt lat="29.713946" lon="97.992064">
<time>2016-10-07T17:57:25Z</time></trkpt>
<trkpt lat="29.713916" lon="97.992064">
<time>2016-10-07T17:57:26Z</time></trkpt>
<trkpt lat="29.713876" lon="97.992054">
<time>2016-10-07T17:57:27Z</time></trkpt>
<trkpt lat="29.713846" lon="97.992044">
<time>2016-10-07T17:57:28Z</time></trkpt>
<trkpt lat="29.713826" lon="97.992034">
<time>2016-10-07T17:57:29Z</time></trkpt>
<trkpt lat="29.713806" lon="97.992024">
<time>2016-10-07T17:57:30Z</time></trkpt>
<trkpt lat="29.713786" lon="97.992004">
<time>2016-10-07T17:57:31Z</time></trkpt>
<trkpt lat="29.713776" lon="97.991984">
<time>2016-10-07T17:57:32Z</time></trkpt>
<trkpt lat="29.713756" lon="97.991955">
<time>2016-10-07T17:57:33Z</time></trkpt>
<trkpt lat="29.713756" lon="97.991925">
<time>2016-10-07T17:57:34Z</time></trkpt>
<trkpt lat="29.713746" lon="97.991895">
<time>2016-10-07T17:57:35Z</time></trkpt>
<trkpt lat="29.713747" lon="97.991865">
<time>2016-10-07T17:57:36Z</time></trkpt>
<trkpt lat="29.713747" lon="97.991835">
<time>2016-10-07T17:57:37Z</time></trkpt>
<trkpt lat="29.713757" lon="97.991805">
<time>2016-10-07T17:57:38Z</time></trkpt>
<trkpt lat="29.713767" lon="97.991775">
<time>2016-10-07T17:57:39Z</time></trkpt>
<trkpt lat="29.713787" lon="97.991735">
<time>2016-10-07T17:57:40Z</time></trkpt>
<trkpt lat="29.713867" lon="97.991566">
<time>2016-10-07T17:57:41Z</time></trkpt>
<trkpt lat="29.714018" lon="97.991337">
<time>2016-10-07T17:57:42Z</time></trkpt>
<trkpt lat="29.714129" lon="97.991117">
<time>2016-10-07T17:57:43Z</time></trkpt>
<trkpt lat="29.714239" lon="97.990938">
<time>2016-10-07T17:57:44Z</time></trkpt>
<trkpt lat="29.71437" lon="97.990709">
<time>2016-10-07T17:57:45Z</time></trkpt>
<trkpt lat="29.71452" lon="97.990519">
<time>2016-10-07T17:57:46Z</time></trkpt>
<trkpt lat="29.714791" lon="97.9902">
<time>2016-10-07T17:57:47Z</time></trkpt>
<trkpt lat="29.715082" lon="97.989871">
<time>2016-10-07T17:57:48Z</time></trkpt>
<trkpt lat="29.715423" lon="97.989482">
<time>2016-10-07T17:57:49Z</time></trkpt>
<trkpt lat="29.715694" lon="97.989163">
<time>2016-10-07T17:57:50Z</time></trkpt>
<trkpt lat="29.715875" lon="97.988934">
<time>2016-10-07T17:57:51Z</time></trkpt>
<trkpt lat="29.716016" lon="97.988745">
<time>2016-10-07T17:57:52Z</time></trkpt>
<trkpt lat="29.716347" lon="97.988276">
<time>2016-10-07T17:57:53Z</time></trkpt>
<trkpt lat="29.716879" lon="97.987499">
<time>2016-10-07T17:57:54Z</time></trkpt>
<trkpt lat="29.71713" lon="97.98713">
<time>2016-10-07T17:57:55Z</time></trkpt>
<trkpt lat="29.717542" lon="97.986532">
<time>2016-10-07T17:57:56Z</time></trkpt>
<trkpt lat="29.717592" lon="97.986462">
<time>2016-10-07T17:57:57Z</time></trkpt>
<trkpt lat="29.717642" lon="97.986402">
<time>2016-10-07T17:57:58Z</time></trkpt>
<trkpt lat="29.717732" lon="97.986323">
<time>2016-10-07T17:57:59Z</time></trkpt>
<trkpt lat="29.717913" lon="97.986183">
<time>2016-10-07T17:58:00Z</time></trkpt>
<trkpt lat="29.718073" lon="97.986083">
<time>2016-10-07T17:58:01Z</time></trkpt>
<trkpt lat="29.718284" lon="97.985904">
<time>2016-10-07T17:58:02Z</time></trkpt>
<trkpt lat="29.718424" lon="97.985744">
<time>2016-10-07T17:58:03Z</time></trkpt>
<trkpt lat="29.718585" lon="97.985555">
<time>2016-10-07T17:58:04Z</time></trkpt>
<trkpt lat="29.718695" lon="97.985445">
<time>2016-10-07T17:58:05Z</time></trkpt>
<trkpt lat="29.718755" lon="97.985395">
<time>2016-10-07T17:58:06Z</time></trkpt>
<trkpt lat="29.718805" lon="97.985356">
<time>2016-10-07T17:58:07Z</time></trkpt>
<trkpt lat="29.718935" lon="97.985276">
<time>2016-10-07T17:58:08Z</time></trkpt>
<trkpt lat="29.719096" lon="97.985196">
<time>2016-10-07T17:58:09Z</time></trkpt>
<trkpt lat="29.719516" lon="97.984957">
<time>2016-10-07T17:58:10Z</time></trkpt>
<trkpt lat="29.719707" lon="97.984817">
<time>2016-10-07T17:58:11Z</time></trkpt>
<trkpt lat="29.719907" lon="97.984638">
<time>2016-10-07T17:58:12Z</time></trkpt>
<trkpt lat="29.720037" lon="97.984548">
<time>2016-10-07T17:58:13Z</time></trkpt>
<trkpt lat="29.720138" lon="97.984478">
<time>2016-10-07T17:58:14Z</time></trkpt>
<trkpt lat="29.720278" lon="97.984399">
<time>2016-10-07T17:58:15Z</time></trkpt>
<trkpt lat="29.720438" lon="97.984329">
<time>2016-10-07T17:58:16Z</time></trkpt>
<trkpt lat="29.720608" lon="97.984259">
<time>2016-10-07T17:58:17Z</time></trkpt>
<trkpt lat="29.720758" lon="97.984169">
<time>2016-10-07T17:58:18Z</time></trkpt>
<trkpt lat="29.720919" lon="97.98406">
<time>2016-10-07T17:58:19Z</time></trkpt>
<trkpt lat="29.721069" lon="97.98394">
<time>2016-10-07T17:58:20Z</time></trkpt>
<trkpt lat="29.721309" lon="97.983741">
<time>2016-10-07T17:58:21Z</time></trkpt>
<trkpt lat="29.7216" lon="97.983511">
<time>2016-10-07T17:58:22Z</time></trkpt>
<trkpt lat="29.722011" lon="97.983142">
<time>2016-10-07T17:58:23Z</time></trkpt>
<trkpt lat="29.722282" lon="97.982863">
<time>2016-10-07T17:58:24Z</time></trkpt>
<trkpt lat="29.722453" lon="97.982644">
<time>2016-10-07T17:58:25Z</time></trkpt>
<trkpt lat="29.722563" lon="97.982495">
<time>2016-10-07T17:58:26Z</time></trkpt>
<trkpt lat="29.722693" lon="97.982305">
<time>2016-10-07T17:58:27Z</time></trkpt>
<trkpt lat="29.722834" lon="97.982076">
<time>2016-10-07T17:58:28Z</time></trkpt>
<trkpt lat="29.722945" lon="97.981926">
<time>2016-10-07T17:58:29Z</time></trkpt>
<trkpt lat="29.723035" lon="97.981817">
<time>2016-10-07T17:58:30Z</time></trkpt>
<trkpt lat="29.723125" lon="97.981707">
<time>2016-10-07T17:58:31Z</time></trkpt>
<trkpt lat="29.723235" lon="97.981607">
<time>2016-10-07T17:58:32Z</time></trkpt>
<trkpt lat="29.723456" lon="97.981418">
<time>2016-10-07T17:58:33Z</time></trkpt>
<trkpt lat="29.723747" lon="97.981199">
<time>2016-10-07T17:58:34Z</time></trkpt>
<trkpt lat="29.723857" lon="97.981099">
<time>2016-10-07T17:58:35Z</time></trkpt>
<trkpt lat="29.723977" lon="97.980979">
<time>2016-10-07T17:58:36Z</time></trkpt>
<trkpt lat="29.724178" lon="97.98075">
<time>2016-10-07T17:58:37Z</time></trkpt>
<trkpt lat="29.724429" lon="97.980451">
<time>2016-10-07T17:58:38Z</time></trkpt>
<trkpt lat="29.724639" lon="97.980182">
<time>2016-10-07T17:58:39Z</time></trkpt>
<trkpt lat="29.72479" lon="97.979982">
<time>2016-10-07T17:58:40Z</time></trkpt>
<trkpt lat="29.72494" lon="97.979763">
<time>2016-10-07T17:58:41Z</time></trkpt>
<trkpt lat="29.725101" lon="97.979514">
<time>2016-10-07T17:58:42Z</time></trkpt>
<trkpt lat="29.725171" lon="97.979404">
<time>2016-10-07T17:58:43Z</time></trkpt>
<trkpt lat="29.725252" lon="97.979284">
<time>2016-10-07T17:58:44Z</time></trkpt>
<trkpt lat="29.725352" lon="97.979165">
<time>2016-10-07T17:58:45Z</time></trkpt>
<trkpt lat="29.725422" lon="97.979095">
<time>2016-10-07T17:58:46Z</time></trkpt>
<trkpt lat="29.725492" lon="97.979035">
<time>2016-10-07T17:58:47Z</time></trkpt>
<trkpt lat="29.725563" lon="97.978975">
<time>2016-10-07T17:58:48Z</time></trkpt>
<trkpt lat="29.725703" lon="97.978866">
<time>2016-10-07T17:58:49Z</time></trkpt>
<trkpt lat="29.725733" lon="97.978846">
<time>2016-10-07T17:58:50Z</time></trkpt>
<trkpt lat="29.725763" lon="97.978816">
<time>2016-10-07T17:58:51Z</time></trkpt>
<trkpt lat="29.725793" lon="97.978786">
<time>2016-10-07T17:58:52Z</time></trkpt>
<trkpt lat="29.725803" lon="97.978766">
<time>2016-10-07T17:58:53Z</time></trkpt>
<trkpt lat="29.725813" lon="97.978756">
<time>2016-10-07T17:58:54Z</time></trkpt>
<trkpt lat="29.725823" lon="97.978736">
<time>2016-10-07T17:58:55Z</time></trkpt>
<trkpt lat="29.725833" lon="97.978726">
<time>2016-10-07T17:58:56Z</time></trkpt>
<trkpt lat="29.725833" lon="97.978716">
<time>2016-10-07T17:58:57Z</time></trkpt>
<trkpt lat="29.725843" lon="97.978696">
<time>2016-10-07T17:58:58Z</time></trkpt>
<trkpt lat="29.725843" lon="97.978686">
<time>2016-10-07T17:58:59Z</time></trkpt>
<trkpt lat="29.725843" lon="97.978666">
<time>2016-10-07T17:59:00Z</time></trkpt>
<trkpt lat="29.725844" lon="97.978656">
<time>2016-10-07T17:59:01Z</time></trkpt>
<trkpt lat="29.725844" lon="97.978646">
<time>2016-10-07T17:59:02Z</time></trkpt>
<trkpt lat="29.725844" lon="97.978626">
<time>2016-10-07T17:59:03Z</time></trkpt>
<trkpt lat="29.725834" lon="97.978616">
<time>2016-10-07T17:59:04Z</time></trkpt>
<trkpt lat="29.725834" lon="97.978606">
<time>2016-10-07T17:59:05Z</time></trkpt>
<trkpt lat="29.725824" lon="97.978596">
<time>2016-10-07T17:59:06Z</time></trkpt>
<trkpt lat="29.725814" lon="97.978587">
<time>2016-10-07T17:59:07Z</time></trkpt>
<trkpt lat="29.725804" lon="97.978577">
<time>2016-10-07T17:59:08Z</time></trkpt>
<trkpt lat="29.725794" lon="97.978567">
<time>2016-10-07T17:59:09Z</time></trkpt>
<trkpt lat="29.725784" lon="97.978567">
<time>2016-10-07T17:59:10Z</time></trkpt>
<trkpt lat="29.725774" lon="97.978557">
<time>2016-10-07T17:59:11Z</time></trkpt>
<trkpt lat="29.725764" lon="97.978557">
<time>2016-10-07T17:59:12Z</time></trkpt>
<trkpt lat="29.725744" lon="97.978557">
<time>2016-10-07T17:59:13Z</time></trkpt>
<trkpt lat="29.725734" lon="97.978557">
<time>2016-10-07T17:59:14Z</time></trkpt>
<trkpt lat="29.725714" lon="97.978557">
<time>2016-10-07T17:59:15Z</time></trkpt>
<trkpt lat="29.725694" lon="97.978567">
<time>2016-10-07T17:59:16Z</time></trkpt>
<trkpt lat="29.725674" lon="97.978577">
<time>2016-10-07T17:59:17Z</time></trkpt>
<trkpt lat="29.725664" lon="97.978577">
<time>2016-10-07T17:59:18Z</time></trkpt>
<trkpt lat="29.725644" lon="97.978596">
<time>2016-10-07T17:59:19Z</time></trkpt>
<trkpt lat="29.725604" lon="97.978626">
<time>2016-10-07T17:59:20Z</time></trkpt>
<trkpt lat="29.725403" lon="97.978836">
<time>2016-10-07T17:59:21Z</time></trkpt>
<trkpt lat="29.725243" lon="97.979025">
<time>2016-10-07T17:59:22Z</time></trkpt>
<trkpt lat="29.725002" lon="97.979314">
<time>2016-10-07T17:59:23Z</time></trkpt>
<trkpt lat="29.724791" lon="97.979524">
<time>2016-10-07T17:59:24Z</time></trkpt>
<trkpt lat="29.724611" lon="97.979693">
<time>2016-10-07T17:59:25Z</time></trkpt>
<trkpt lat="29.72423" lon="97.979992">
<time>2016-10-07T17:59:26Z</time></trkpt>
<trkpt lat="29.72406" lon="97.980122">
<time>2016-10-07T17:59:27Z</time></trkpt>
<trkpt lat="29.723849" lon="97.980261">
<time>2016-10-07T17:59:28Z</time></trkpt>
<trkpt lat="29.723749" lon="97.980311">
<time>2016-10-07T17:59:29Z</time></trkpt>
<trkpt lat="29.723379" lon="97.980511">
<time>2016-10-07T17:59:30Z</time></trkpt>
<trkpt lat="29.723228" lon="97.98058">
<time>2016-10-07T17:59:31Z</time></trkpt>
<trkpt lat="29.723118" lon="97.98063">
<time>2016-10-07T17:59:32Z</time></trkpt>
<trkpt lat="29.722908" lon="97.98074">
<time>2016-10-07T17:59:33Z</time></trkpt>
<trkpt lat="29.722597" lon="97.980939">
<time>2016-10-07T17:59:34Z</time></trkpt>
<trkpt lat="29.722427" lon="97.981069">
<time>2016-10-07T17:59:35Z</time></trkpt>
<trkpt lat="29.722237" lon="97.981218">
<time>2016-10-07T17:59:36Z</time></trkpt>
<trkpt lat="29.722056" lon="97.981398">
<time>2016-10-07T17:59:37Z</time></trkpt>
<trkpt lat="29.721896" lon="97.981557">
<time>2016-10-07T17:59:38Z</time></trkpt>
<trkpt lat="29.721836" lon="97.981597">
<time>2016-10-07T17:59:39Z</time></trkpt>
<trkpt lat="29.721806" lon="97.981617">
<time>2016-10-07T17:59:40Z</time></trkpt>
<trkpt lat="29.721776" lon="97.981627">
<time>2016-10-07T17:59:41Z</time></trkpt>
<trkpt lat="29.721746" lon="97.981637">
<time>2016-10-07T17:59:42Z</time></trkpt>
<trkpt lat="29.721716" lon="97.981637">
<time>2016-10-07T17:59:43Z</time></trkpt>
<trkpt lat="29.721696" lon="97.981637">
<time>2016-10-07T17:59:44Z</time></trkpt>
<trkpt lat="29.721686" lon="97.981637">
<time>2016-10-07T17:59:45Z</time></trkpt>
<trkpt lat="29.721666" lon="97.981627">
<time>2016-10-07T17:59:46Z</time></trkpt>
<trkpt lat="29.721646" lon="97.981607">
<time>2016-10-07T17:59:47Z</time></trkpt>
<trkpt lat="29.721626" lon="97.981587">
<time>2016-10-07T17:59:48Z</time></trkpt>
<trkpt lat="29.721616" lon="97.981557">
<time>2016-10-07T17:59:49Z</time></trkpt>
<trkpt lat="29.721606" lon="97.981538">
<time>2016-10-07T17:59:50Z</time></trkpt>
<trkpt lat="29.721606" lon="97.981518">
<time>2016-10-07T17:59:51Z</time></trkpt>
<trkpt lat="29.721606" lon="97.981498">
<time>2016-10-07T17:59:52Z</time></trkpt>
<trkpt lat="29.721606" lon="97.981488">
<time>2016-10-07T17:59:53Z</time></trkpt>
<trkpt lat="29.721606" lon="97.981458">
<time>2016-10-07T17:59:54Z</time></trkpt>
<trkpt lat="29.721616" lon="97.981438">
<time>2016-10-07T17:59:55Z</time></trkpt>
<trkpt lat="29.721626" lon="97.981398">
<time>2016-10-07T17:59:56Z</time></trkpt>
<trkpt lat="29.721666" lon="97.981348">
<time>2016-10-07T17:59:57Z</time></trkpt>
<trkpt lat="29.721727" lon="97.981278">
<time>2016-10-07T17:59:58Z</time></trkpt>
<trkpt lat="29.721877" lon="97.981109">
<time>2016-10-07T17:59:59Z</time></trkpt>
<trkpt lat="29.722078" lon="97.980909">
<time>2016-10-07T18:00:00Z</time></trkpt>
<trkpt lat="29.722218" lon="97.98076">
<time>2016-10-07T18:00:01Z</time></trkpt>
<trkpt lat="29.722549" lon="97.980401">
<time>2016-10-07T18:00:02Z</time></trkpt>
<trkpt lat="29.7228" lon="97.980132">
<time>2016-10-07T18:00:03Z</time></trkpt>
<trkpt lat="29.72301" lon="97.979922">
<time>2016-10-07T18:00:04Z</time></trkpt>
<trkpt lat="29.723161" lon="97.979773">
<time>2016-10-07T18:00:05Z</time></trkpt>
<trkpt lat="29.723291" lon="97.979643">
<time>2016-10-07T18:00:06Z</time></trkpt>
<trkpt lat="29.723411" lon="97.979564">
<time>2016-10-07T18:00:07Z</time></trkpt>
<trkpt lat="29.723582" lon="97.979454">
<time>2016-10-07T18:00:08Z</time></trkpt>
<trkpt lat="29.723762" lon="97.979354">
<time>2016-10-07T18:00:09Z</time></trkpt>
<trkpt lat="29.723922" lon="97.979245">
<time>2016-10-07T18:00:10Z</time></trkpt>
<trkpt lat="29.724233" lon="97.978985">
<time>2016-10-07T18:00:11Z</time></trkpt>
<trkpt lat="29.724443" lon="97.978786">
<time>2016-10-07T18:00:12Z</time></trkpt>
<trkpt lat="29.724624" lon="97.978587">
<time>2016-10-07T18:00:13Z</time></trkpt>
<trkpt lat="29.724684" lon="97.978507">
<time>2016-10-07T18:00:14Z</time></trkpt>
<trkpt lat="29.724744" lon="97.978417">
<time>2016-10-07T18:00:15Z</time></trkpt>
<trkpt lat="29.724805" lon="97.978307">
<time>2016-10-07T18:00:16Z</time></trkpt>
<trkpt lat="29.724855" lon="97.978208">
<time>2016-10-07T18:00:17Z</time></trkpt>
<trkpt lat="29.724895" lon="97.978108">
<time>2016-10-07T18:00:18Z</time></trkpt>
<trkpt lat="29.724926" lon="97.977998">
<time>2016-10-07T18:00:19Z</time></trkpt>
<trkpt lat="29.724986" lon="97.977759">
<time>2016-10-07T18:00:20Z</time></trkpt>
<trkpt lat="29.725037" lon="97.97744">
<time>2016-10-07T18:00:21Z</time></trkpt>
<trkpt lat="29.725068" lon="97.97729">
<time>2016-10-07T18:00:22Z</time></trkpt>
<trkpt lat="29.725108" lon="97.977171">
<time>2016-10-07T18:00:23Z</time></trkpt>
<trkpt lat="29.725158" lon="97.977021">
<time>2016-10-07T18:00:24Z</time></trkpt>
<trkpt lat="29.725189" lon="97.976942">
<time>2016-10-07T18:00:25Z</time></trkpt>
<trkpt lat="29.725349" lon="97.976593">
<time>2016-10-07T18:00:26Z</time></trkpt>
<trkpt lat="29.725551" lon="97.976204">
<time>2016-10-07T18:00:27Z</time></trkpt>
<trkpt lat="29.725631" lon="97.976034">
<time>2016-10-07T18:00:28Z</time></trkpt>
<trkpt lat="29.725762" lon="97.975795">
<time>2016-10-07T18:00:29Z</time></trkpt>
<trkpt lat="29.725822" lon="97.975685">
<time>2016-10-07T18:00:30Z</time></trkpt>
<trkpt lat="29.725892" lon="97.975566">
<time>2016-10-07T18:00:31Z</time></trkpt>
<trkpt lat="29.726033" lon="97.975376">
<time>2016-10-07T18:00:32Z</time></trkpt>
<trkpt lat="29.726273" lon="97.975107">
<time>2016-10-07T18:00:33Z</time></trkpt>
<trkpt lat="29.726404" lon="97.974947">
<time>2016-10-07T18:00:34Z</time></trkpt>
<trkpt lat="29.726534" lon="97.974778">
<time>2016-10-07T18:00:35Z</time></trkpt>
<trkpt lat="29.726795" lon="97.974419">
<time>2016-10-07T18:00:36Z</time></trkpt>
<trkpt lat="29.727006" lon="97.97411">
<time>2016-10-07T18:00:37Z</time></trkpt>
<trkpt lat="29.727197" lon="97.973811">
<time>2016-10-07T18:00:38Z</time></trkpt>
<trkpt lat="29.727328" lon="97.973542">
<time>2016-10-07T18:00:39Z</time></trkpt>
<trkpt lat="29.727408" lon="97.973332">
<time>2016-10-07T18:00:40Z</time></trkpt>
<trkpt lat="29.727519" lon="97.973063">
<time>2016-10-07T18:00:41Z</time></trkpt>
<trkpt lat="29.72762" lon="97.972834">
<time>2016-10-07T18:00:42Z</time></trkpt>
<trkpt lat="29.72767" lon="97.972684">
<time>2016-10-07T18:00:43Z</time></trkpt>
<trkpt lat="29.72774" lon="97.972505">
<time>2016-10-07T18:00:44Z</time></trkpt>
<trkpt lat="29.727781" lon="97.972305">
<time>2016-10-07T18:00:45Z</time></trkpt>
<trkpt lat="29.727882" lon="97.971906">
<time>2016-10-07T18:00:46Z</time></trkpt>
<trkpt lat="29.727983" lon="97.971557">
<time>2016-10-07T18:00:47Z</time></trkpt>
<trkpt lat="29.728034" lon="97.971248">
<time>2016-10-07T18:00:48Z</time></trkpt>
<trkpt lat="29.728126" lon="97.97061">
<time>2016-10-07T18:00:49Z</time></trkpt>
<trkpt lat="29.728177" lon="97.970131">
<time>2016-10-07T18:00:50Z</time></trkpt>
<trkpt lat="29.728269" lon="97.969423">
<time>2016-10-07T18:00:51Z</time></trkpt>
<trkpt lat="29.72836" lon="97.968975">
<time>2016-10-07T18:00:52Z</time></trkpt>
<trkpt lat="29.728532" lon="97.968227">
<time>2016-10-07T18:00:53Z</time></trkpt>
<trkpt lat="29.728623" lon="97.967888">
<time>2016-10-07T18:00:54Z</time></trkpt>
<trkpt lat="29.728764" lon="97.967499">
<time>2016-10-07T18:00:55Z</time></trkpt>
<trkpt lat="29.728945" lon="97.96707">
<time>2016-10-07T18:00:56Z</time></trkpt>
<trkpt lat="29.729055" lon="97.966851">
<time>2016-10-07T18:00:57Z</time></trkpt>
<trkpt lat="29.729317" lon="97.966322">
<time>2016-10-07T18:00:58Z</time></trkpt>
<trkpt lat="29.729578" lon="97.965843">
<time>2016-10-07T18:00:59Z</time></trkpt>
<trkpt lat="29.729668" lon="97.965654">
<time>2016-10-07T18:01:00Z</time></trkpt>
<trkpt lat="29.729709" lon="97.965524">
<time>2016-10-07T18:01:01Z</time></trkpt>
<trkpt lat="29.72985" lon="97.965175">
<time>2016-10-07T18:01:02Z</time></trkpt>
<trkpt lat="29.72992" lon="97.965006">
<time>2016-10-07T18:01:03Z</time></trkpt>
<trkpt lat="29.730051" lon="97.964786">
<time>2016-10-07T18:01:04Z</time></trkpt>
<trkpt lat="29.730181" lon="97.964557">
<time>2016-10-07T18:01:05Z</time></trkpt>
<trkpt lat="29.730312" lon="97.964308">
<time>2016-10-07T18:01:06Z</time></trkpt>
<trkpt lat="29.730433" lon="97.963978">
<time>2016-10-07T18:01:07Z</time></trkpt>
<trkpt lat="29.730694" lon="97.96333">
<time>2016-10-07T18:01:08Z</time></trkpt>
<trkpt lat="29.730754" lon="97.96319">
<time>2016-10-07T18:01:09Z</time></trkpt>
<trkpt lat="29.730805" lon="97.963061">
<time>2016-10-07T18:01:10Z</time></trkpt>
<trkpt lat="29.730855" lon="97.962951">
<time>2016-10-07T18:01:11Z</time></trkpt>
<trkpt lat="29.730915" lon="97.962871">
<time>2016-10-07T18:01:12Z</time></trkpt>
<trkpt lat="29.730996" lon="97.962752">
<time>2016-10-07T18:01:13Z</time></trkpt>
<trkpt lat="29.731046" lon="97.962692">
<time>2016-10-07T18:01:14Z</time></trkpt>
<trkpt lat="29.731106" lon="97.962642">
<time>2016-10-07T18:01:15Z</time></trkpt>
<trkpt lat="29.731186" lon="97.962582">
<time>2016-10-07T18:01:16Z</time></trkpt>
<trkpt lat="29.731256" lon="97.962512">
<time>2016-10-07T18:01:17Z</time></trkpt>
<trkpt lat="29.731286" lon="97.962472">
<time>2016-10-07T18:01:18Z</time></trkpt>
<trkpt lat="29.731296" lon="97.962452">
<time>2016-10-07T18:01:19Z</time></trkpt>
<trkpt lat="29.731306" lon="97.962432">
<time>2016-10-07T18:01:20Z</time></trkpt>
<trkpt lat="29.731306" lon="97.962413">
<time>2016-10-07T18:01:21Z</time></trkpt>
<trkpt lat="29.731306" lon="97.962393">
<time>2016-10-07T18:01:22Z</time></trkpt>
<trkpt lat="29.731306" lon="97.962373">
<time>2016-10-07T18:01:23Z</time></trkpt>
<trkpt lat="29.731296" lon="97.962363">
<time>2016-10-07T18:01:24Z</time></trkpt>
<trkpt lat="29.731287" lon="97.962333">
<time>2016-10-07T18:01:25Z</time></trkpt>
<trkpt lat="29.731257" lon="97.962313">
<time>2016-10-07T18:01:26Z</time></trkpt>
<trkpt lat="29.731247" lon="97.962303">
<time>2016-10-07T18:01:27Z</time></trkpt>
<trkpt lat="29.731227" lon="97.962293">
<time>2016-10-07T18:01:28Z</time></trkpt>
<trkpt lat="29.731207" lon="97.962293">
<time>2016-10-07T18:01:29Z</time></trkpt>
<trkpt lat="29.731187" lon="97.962303">
<time>2016-10-07T18:01:30Z</time></trkpt>
<trkpt lat="29.731177" lon="97.962313">
<time>2016-10-07T18:01:31Z</time></trkpt>
<trkpt lat="29.731157" lon="97.962323">
<time>2016-10-07T18:01:32Z</time></trkpt>
<trkpt lat="29.731117" lon="97.962353">
<time>2016-10-07T18:01:33Z</time></trkpt>
<trkpt lat="29.731076" lon="97.962393">
<time>2016-10-07T18:01:34Z</time></trkpt>
<trkpt lat="29.731056" lon="97.962432">
<time>2016-10-07T18:01:35Z</time></trkpt>
<trkpt lat="29.731006" lon="97.962492">
<time>2016-10-07T18:01:36Z</time></trkpt>
<trkpt lat="29.730896" lon="97.962662">
<time>2016-10-07T18:01:37Z</time></trkpt>
<trkpt lat="29.730695" lon="97.962941">
<time>2016-10-07T18:01:38Z</time></trkpt>
<trkpt lat="29.730605" lon="97.963071">
<time>2016-10-07T18:01:39Z</time></trkpt>
<trkpt lat="29.730474" lon="97.96327">
<time>2016-10-07T18:01:40Z</time></trkpt>
<trkpt lat="29.730364" lon="97.96346">
<time>2016-10-07T18:01:41Z</time></trkpt>
<trkpt lat="29.730284" lon="97.963589">
<time>2016-10-07T18:01:42Z</time></trkpt>
<trkpt lat="29.730223" lon="97.963689">
<time>2016-10-07T18:01:43Z</time></trkpt>
<trkpt lat="29.730173" lon="97.963759">
<time>2016-10-07T18:01:44Z</time></trkpt>
<trkpt lat="29.730063" lon="97.963938">
<time>2016-10-07T18:01:45Z</time></trkpt>
<trkpt lat="29.729972" lon="97.964078">
<time>2016-10-07T18:01:46Z</time></trkpt>
<trkpt lat="29.729922" lon="97.964148">
<time>2016-10-07T18:01:47Z</time></trkpt>
<trkpt lat="29.729872" lon="97.964208">
<time>2016-10-07T18:01:48Z</time></trkpt>
<trkpt lat="29.729832" lon="97.964258">
<time>2016-10-07T18:01:49Z</time></trkpt>
<trkpt lat="29.729752" lon="97.964347">
<time>2016-10-07T18:01:50Z</time></trkpt>
<trkpt lat="29.729702" lon="97.964397">
<time>2016-10-07T18:01:51Z</time></trkpt>
<trkpt lat="29.729652" lon="97.964437">
<time>2016-10-07T18:01:52Z</time></trkpt>
<trkpt lat="29.729491" lon="97.964567">
<time>2016-10-07T18:01:53Z</time></trkpt>
<trkpt lat="29.729251" lon="97.964756">
<time>2016-10-07T18:01:54Z</time></trkpt>
<trkpt lat="29.729191" lon="97.964816">
<time>2016-10-07T18:01:55Z</time></trkpt>
<trkpt lat="29.729141" lon="97.964856">
<time>2016-10-07T18:01:56Z</time></trkpt>
<trkpt lat="29.72909" lon="97.964906">
<time>2016-10-07T18:01:57Z</time></trkpt>
<trkpt lat="29.72907" lon="97.964936">
<time>2016-10-07T18:01:58Z</time></trkpt>
<trkpt lat="29.72904" lon="97.964956">
<time>2016-10-07T18:01:59Z</time></trkpt>
<trkpt lat="29.72902" lon="97.964996">
<time>2016-10-07T18:02:00Z</time></trkpt>
<trkpt lat="29.72898" lon="97.965046">
<time>2016-10-07T18:02:01Z</time></trkpt>
<trkpt lat="29.72895" lon="97.965105">
<time>2016-10-07T18:02:02Z</time></trkpt>
<trkpt lat="29.72893" lon="97.965145">
<time>2016-10-07T18:02:03Z</time></trkpt>
<trkpt lat="29.7289" lon="97.965205">
<time>2016-10-07T18:02:04Z</time></trkpt>
<trkpt lat="29.72887" lon="97.965245">
<time>2016-10-07T18:02:05Z</time></trkpt>
<trkpt lat="29.72886" lon="97.965255">
<time>2016-10-07T18:02:06Z</time></trkpt>
<trkpt lat="29.72885" lon="97.965275">
<time>2016-10-07T18:02:07Z</time></trkpt>
<trkpt lat="29.728839" lon="97.965285">
<time>2016-10-07T18:02:08Z</time></trkpt>
<trkpt lat="29.728829" lon="97.965305">
<time>2016-10-07T18:02:09Z</time></trkpt>
<trkpt lat="29.728809" lon="97.965305">
<time>2016-10-07T18:02:10Z</time></trkpt>
<trkpt lat="29.728789" lon="97.965315">
<time>2016-10-07T18:02:11Z</time></trkpt>
<trkpt lat="29.728769" lon="97.965325">
<time>2016-10-07T18:02:12Z</time></trkpt>
<trkpt lat="29.728749" lon="97.965325">
<time>2016-10-07T18:02:13Z</time></trkpt>
<trkpt lat="29.728729" lon="97.965325">
<time>2016-10-07T18:02:14Z</time></trkpt>
<trkpt lat="29.728709" lon="97.965325">
<time>2016-10-07T18:02:15Z</time></trkpt>
<trkpt lat="29.728689" lon="97.965315">
<time>2016-10-07T18:02:16Z</time></trkpt>
<trkpt lat="29.728679" lon="97.965305">
<time>2016-10-07T18:02:17Z</time></trkpt>
<trkpt lat="29.728669" lon="97.965295">
<time>2016-10-07T18:02:18Z</time></trkpt>
<trkpt lat="29.72865" lon="97.965275">
<time>2016-10-07T18:02:19Z</time></trkpt>
<trkpt lat="29.72864" lon="97.965255">
<time>2016-10-07T18:02:20Z</time></trkpt>
<trkpt lat="29.72863" lon="97.965235">
<time>2016-10-07T18:02:21Z</time></trkpt>
<trkpt lat="29.72863" lon="97.965225">
<time>2016-10-07T18:02:22Z</time></trkpt>
<trkpt lat="29.72863" lon="97.965205">
<time>2016-10-07T18:02:23Z</time></trkpt>
<trkpt lat="29.72863" lon="97.965185">
<time>2016-10-07T18:02:24Z</time></trkpt>
<trkpt lat="29.72863" lon="97.965165">
<time>2016-10-07T18:02:25Z</time></trkpt>
<trkpt lat="29.72863" lon="97.965145">
<time>2016-10-07T18:02:26Z</time></trkpt>
<trkpt lat="29.72865" lon="97.965115">
<time>2016-10-07T18:02:27Z</time></trkpt>
<trkpt lat="29.72866" lon="97.965095">
<time>2016-10-07T18:02:28Z</time></trkpt>
<trkpt lat="29.72867" lon="97.965065">
<time>2016-10-07T18:02:29Z</time></trkpt>
<trkpt lat="29.72871" lon="97.965026">
<time>2016-10-07T18:02:30Z</time></trkpt>
<trkpt lat="29.72874" lon="97.964996">
<time>2016-10-07T18:02:31Z</time></trkpt>
<trkpt lat="29.728861" lon="97.964876">
<time>2016-10-07T18:02:32Z</time></trkpt>
<trkpt lat="29.729001" lon="97.964736">
<time>2016-10-07T18:02:33Z</time></trkpt>
<trkpt lat="29.729051" lon="97.964667">
<time>2016-10-07T18:02:34Z</time></trkpt>
<trkpt lat="29.729141" lon="97.964557">
<time>2016-10-07T18:02:35Z</time></trkpt>
<trkpt lat="29.729252" lon="97.964397">
<time>2016-10-07T18:02:36Z</time></trkpt>
<trkpt lat="29.729402" lon="97.964178">
<time>2016-10-07T18:02:37Z</time></trkpt>
<trkpt lat="29.729533" lon="97.963968">
<time>2016-10-07T18:02:38Z</time></trkpt>
<trkpt lat="29.729673" lon="97.963709">
<time>2016-10-07T18:02:39Z</time></trkpt>
<trkpt lat="29.729794" lon="97.96352">
<time>2016-10-07T18:02:40Z</time></trkpt>
<trkpt lat="29.729924" lon="97.96329">
<time>2016-10-07T18:02:41Z</time></trkpt>
<trkpt lat="29.730025" lon="97.963111">
<time>2016-10-07T18:02:42Z</time></trkpt>
<trkpt lat="29.730075" lon="97.962991">
<time>2016-10-07T18:02:43Z</time></trkpt>
<trkpt lat="29.730156" lon="97.962821">
<time>2016-10-07T18:02:44Z</time></trkpt>
<trkpt lat="29.730256" lon="97.962582">
<time>2016-10-07T18:02:45Z</time></trkpt>
<trkpt lat="29.730316" lon="97.962413">
<time>2016-10-07T18:02:46Z</time></trkpt>
<trkpt lat="29.730377" lon="97.962203">
<time>2016-10-07T18:02:47Z</time></trkpt>
<trkpt lat="29.730407" lon="97.962083">
<time>2016-10-07T18:02:48Z</time></trkpt>
<trkpt lat="29.730428" lon="97.961984">
<time>2016-10-07T18:02:49Z</time></trkpt>
<trkpt lat="29.730448" lon="97.961894">
<time>2016-10-07T18:02:50Z</time></trkpt>
<trkpt lat="29.730458" lon="97.961774">
<time>2016-10-07T18:02:51Z</time></trkpt>
<trkpt lat="29.730468" lon="97.961635">
<time>2016-10-07T18:02:52Z</time></trkpt>
<trkpt lat="29.730479" lon="97.961505">
<time>2016-10-07T18:02:53Z</time></trkpt>
<trkpt lat="29.730489" lon="97.961435">
<time>2016-10-07T18:02:54Z</time></trkpt>
<trkpt lat="29.730499" lon="97.961375">
<time>2016-10-07T18:02:55Z</time></trkpt>
<trkpt lat="29.730509" lon="97.961325">
<time>2016-10-07T18:02:56Z</time></trkpt>
<trkpt lat="29.730519" lon="97.961305">
<time>2016-10-07T18:02:57Z</time></trkpt>
<trkpt lat="29.730529" lon="97.961275">
<time>2016-10-07T18:02:58Z</time></trkpt>
<trkpt lat="29.730549" lon="97.961236">
<time>2016-10-07T18:02:59Z</time></trkpt>
<trkpt lat="29.730579" lon="97.961196">
<time>2016-10-07T18:03:00Z</time></trkpt>
<trkpt lat="29.73063" lon="97.961146">
<time>2016-10-07T18:03:01Z</time></trkpt>
<trkpt lat="29.73068" lon="97.961086">
<time>2016-10-07T18:03:02Z</time></trkpt>
<trkpt lat="29.73078" lon="97.961006">
<time>2016-10-07T18:03:03Z</time></trkpt>
<trkpt lat="29.73089" lon="97.960936">
<time>2016-10-07T18:03:04Z</time></trkpt>
<trkpt lat="29.731311" lon="97.960647">
<time>2016-10-07T18:03:05Z</time></trkpt>
<trkpt lat="29.731541" lon="97.960487">
<time>2016-10-07T18:03:06Z</time></trkpt>
<trkpt lat="29.731721" lon="97.960358">
<time>2016-10-07T18:03:07Z</time></trkpt>
<trkpt lat="29.731842" lon="97.960268">
<time>2016-10-07T18:03:08Z</time></trkpt>
<trkpt lat="29.731942" lon="97.960188">
<time>2016-10-07T18:03:09Z</time></trkpt>
<trkpt lat="29.732032" lon="97.960108">
<time>2016-10-07T18:03:10Z</time></trkpt>
<trkpt lat="29.732122" lon="97.960009">
<time>2016-10-07T18:03:11Z</time></trkpt>
<trkpt lat="29.732232" lon="97.959869">
<time>2016-10-07T18:03:12Z</time></trkpt>
<trkpt lat="29.732283" lon="97.959809">
<time>2016-10-07T18:03:13Z</time></trkpt>
<trkpt lat="29.732353" lon="97.959709">
<time>2016-10-07T18:03:14Z</time></trkpt>
<trkpt lat="29.732493" lon="97.95951">
<time>2016-10-07T18:03:15Z</time></trkpt>
<trkpt lat="29.732624" lon="97.95931">
<time>2016-10-07T18:03:16Z</time></trkpt>
<trkpt lat="29.732724" lon="97.959151">
<time>2016-10-07T18:03:17Z</time></trkpt>
<trkpt lat="29.732965" lon="97.958832">
<time>2016-10-07T18:03:18Z</time></trkpt>
<trkpt lat="29.733055" lon="97.958722">
<time>2016-10-07T18:03:19Z</time></trkpt>
<trkpt lat="29.733195" lon="97.958602">
<time>2016-10-07T18:03:20Z</time></trkpt>
<trkpt lat="29.733506" lon="97.958333">
<time>2016-10-07T18:03:21Z</time></trkpt>
<trkpt lat="29.733736" lon="97.958133">
<time>2016-10-07T18:03:22Z</time></trkpt>
<trkpt lat="29.733847" lon="97.958034">
<time>2016-10-07T18:03:23Z</time></trkpt>
<trkpt lat="29.733897" lon="97.957984">
<time>2016-10-07T18:03:24Z</time></trkpt>
<trkpt lat="29.733917" lon="97.957964">
<time>2016-10-07T18:03:25Z</time></trkpt>
<trkpt lat="29.733937" lon="97.957944">
<time>2016-10-07T18:03:26Z</time></trkpt>
<trkpt lat="29.733947" lon="97.957934">
<time>2016-10-07T18:03:27Z</time></trkpt>
<trkpt lat="29.733977" lon="97.957894">
<time>2016-10-07T18:03:28Z</time></trkpt>
<trkpt lat="29.733987" lon="97.957874">
<time>2016-10-07T18:03:29Z</time></trkpt>
<trkpt lat="29.733997" lon="97.957854">
<time>2016-10-07T18:03:30Z</time></trkpt>
<trkpt lat="29.733997" lon="97.957834">
<time>2016-10-07T18:03:31Z</time></trkpt>
<trkpt lat="29.734007" lon="97.957814">
<time>2016-10-07T18:03:32Z</time></trkpt>
<trkpt lat="29.734007" lon="97.957794">
<time>2016-10-07T18:03:33Z</time></trkpt>
<trkpt lat="29.733997" lon="97.957774">
<time>2016-10-07T18:03:34Z</time></trkpt>
<trkpt lat="29.733997" lon="97.957754">
<time>2016-10-07T18:03:35Z</time></trkpt>
<trkpt lat="29.733987" lon="97.957744">
<time>2016-10-07T18:03:36Z</time></trkpt>
<trkpt lat="29.733977" lon="97.957724">
<time>2016-10-07T18:03:37Z</time></trkpt>
<trkpt lat="29.733967" lon="97.957704">
<time>2016-10-07T18:03:38Z</time></trkpt>
<trkpt lat="29.733937" lon="97.957684">
<time>2016-10-07T18:03:39Z</time></trkpt>
<trkpt lat="29.733917" lon="97.957674">
<time>2016-10-07T18:03:40Z</time></trkpt>
<trkpt lat="29.733897" lon="97.957674">
<time>2016-10-07T18:03:41Z</time></trkpt>
<trkpt lat="29.733867" lon="97.957674">
<time>2016-10-07T18:03:42Z</time></trkpt>
<trkpt lat="29.733837" lon="97.957674">
<time>2016-10-07T18:03:43Z</time></trkpt>
<trkpt lat="29.733817" lon="97.957684">
<time>2016-10-07T18:03:44Z</time></trkpt>
<trkpt lat="29.733797" lon="97.957704">
<time>2016-10-07T18:03:45Z</time></trkpt>
<trkpt lat="29.733777" lon="97.957714">
<time>2016-10-07T18:03:46Z</time></trkpt>
<trkpt lat="29.733757" lon="97.957744">
<time>2016-10-07T18:03:47Z</time></trkpt>
<trkpt lat="29.733717" lon="97.957794">
<time>2016-10-07T18:03:48Z</time></trkpt>
<trkpt lat="29.733677" lon="97.957834">
<time>2016-10-07T18:03:49Z</time></trkpt>
<trkpt lat="29.733657" lon="97.957864">
<time>2016-10-07T18:03:50Z</time></trkpt>
<trkpt lat="29.733617" lon="97.957904">
<time>2016-10-07T18:03:51Z</time></trkpt>
<trkpt lat="29.733577" lon="97.957934">
<time>2016-10-07T18:03:52Z</time></trkpt>
<trkpt lat="29.733547" lon="97.957954">
<time>2016-10-07T18:03:53Z</time></trkpt>
<trkpt lat="29.733507" lon="97.957984">
<time>2016-10-07T18:03:54Z</time></trkpt>
<trkpt lat="29.733457" lon="97.958004">
<time>2016-10-07T18:03:55Z</time></trkpt>
<trkpt lat="29.733427" lon="97.958024">
<time>2016-10-07T18:03:56Z</time></trkpt>
<trkpt lat="29.733327" lon="97.958064">
<time>2016-10-07T18:03:57Z</time></trkpt>
<trkpt lat="29.733216" lon="97.958103">
<time>2016-10-07T18:03:58Z</time></trkpt>
<trkpt lat="29.732976" lon="97.958183">
<time>2016-10-07T18:03:59Z</time></trkpt>
<trkpt lat="29.732836" lon="97.958223">
<time>2016-10-07T18:04:00Z</time></trkpt>
<trkpt lat="29.732756" lon="97.958253">
<time>2016-10-07T18:04:01Z</time></trkpt>
<trkpt lat="29.732656" lon="97.958303">
<time>2016-10-07T18:04:02Z</time></trkpt>
<trkpt lat="29.732466" lon="97.958393">
<time>2016-10-07T18:04:03Z</time></trkpt>
<trkpt lat="29.732386" lon="97.958443">
<time>2016-10-07T18:04:04Z</time></trkpt>
<trkpt lat="29.732306" lon="97.958492">
<time>2016-10-07T18:04:05Z</time></trkpt>
<trkpt lat="29.732246" lon="97.958532">
<time>2016-10-07T18:04:06Z</time></trkpt>
<trkpt lat="29.732216" lon="97.958542">
<time>2016-10-07T18:04:07Z</time></trkpt>
<trkpt lat="29.732186" lon="97.958562">
<time>2016-10-07T18:04:08Z</time></trkpt>
<trkpt lat="29.732156" lon="97.958572">
<time>2016-10-07T18:04:09Z</time></trkpt>
<trkpt lat="29.732126" lon="97.958582">
<time>2016-10-07T18:04:10Z</time></trkpt>
<trkpt lat="29.732075" lon="97.958602">
<time>2016-10-07T18:04:11Z</time></trkpt>
<trkpt lat="29.732035" lon="97.958612">
<time>2016-10-07T18:04:12Z</time></trkpt>
<trkpt lat="29.732005" lon="97.958612">
<time>2016-10-07T18:04:13Z</time></trkpt>
<trkpt lat="29.731995" lon="97.958612">
<time>2016-10-07T18:04:14Z</time></trkpt>
<trkpt lat="29.731975" lon="97.958612">
<time>2016-10-07T18:04:15Z</time></trkpt>
<trkpt lat="29.731955" lon="97.958612">
<time>2016-10-07T18:04:16Z</time></trkpt>
<trkpt lat="29.731945" lon="97.958602">
<time>2016-10-07T18:04:17Z</time></trkpt>
<trkpt lat="29.731916" lon="97.958592">
<time>2016-10-07T18:04:18Z</time></trkpt>
<trkpt lat="29.731896" lon="97.958582">
<time>2016-10-07T18:04:19Z</time></trkpt>
<trkpt lat="29.731886" lon="97.958572">
<time>2016-10-07T18:04:20Z</time></trkpt>
<trkpt lat="29.731866" lon="97.958552">
<time>2016-10-07T18:04:21Z</time></trkpt>
<trkpt lat="29.731856" lon="97.958542">
<time>2016-10-07T18:04:22Z</time></trkpt>
<trkpt lat="29.731846" lon="97.958522">
<time>2016-10-07T18:04:23Z</time></trkpt>
<trkpt lat="29.731836" lon="97.958502">
<time>2016-10-07T18:04:24Z</time></trkpt>
<trkpt lat="29.731826" lon="97.958482">
<time>2016-10-07T18:04:25Z</time></trkpt>
<trkpt lat="29.731816" lon="97.958463">
<time>2016-10-07T18:04:26Z</time></trkpt>
<trkpt lat="29.731816" lon="97.958433">
<time>2016-10-07T18:04:27Z</time></trkpt>
<trkpt lat="29.731806" lon="97.958383">
<time>2016-10-07T18:04:28Z</time></trkpt>
<trkpt lat="29.731806" lon="97.958353">
<time>2016-10-07T18:04:29Z</time></trkpt>
<trkpt lat="29.731816" lon="97.958313">
<time>2016-10-07T18:04:30Z</time></trkpt>
<trkpt lat="29.731816" lon="97.958283">
<time>2016-10-07T18:04:31Z</time></trkpt>
<trkpt lat="29.731826" lon="97.958243">
<time>2016-10-07T18:04:32Z</time></trkpt>
<trkpt lat="29.731846" lon="97.958193">
<time>2016-10-07T18:04:33Z</time></trkpt>
<trkpt lat="29.731857" lon="97.958143">
<time>2016-10-07T18:04:34Z</time></trkpt>
<trkpt lat="29.731907" lon="97.957984">
<time>2016-10-07T18:04:35Z</time></trkpt>
<trkpt lat="29.731937" lon="97.957914">
<time>2016-10-07T18:04:36Z</time></trkpt>
<trkpt lat="29.731967" lon="97.957794">
<time>2016-10-07T18:04:37Z</time></trkpt>
<trkpt lat="29.731988" lon="97.957724">
<time>2016-10-07T18:04:38Z</time></trkpt>
<trkpt lat="29.732008" lon="97.957635">
<time>2016-10-07T18:04:39Z</time></trkpt>
<trkpt lat="29.732028" lon="97.957535">
<time>2016-10-07T18:04:40Z</time></trkpt>
<trkpt lat="29.732028" lon="97.957435">
<time>2016-10-07T18:04:41Z</time></trkpt>
<trkpt lat="29.732038" lon="97.957335">
<time>2016-10-07T18:04:42Z</time></trkpt>
<trkpt lat="29.732039" lon="97.957216">
<time>2016-10-07T18:04:43Z</time></trkpt>
<trkpt lat="29.732039" lon="97.957046">
<time>2016-10-07T18:04:44Z</time></trkpt>
<trkpt lat="29.732029" lon="97.956896">
<time>2016-10-07T18:04:45Z</time></trkpt>
<trkpt lat="29.73203" lon="97.956797">
<time>2016-10-07T18:04:46Z</time></trkpt>
<trkpt lat="29.73202" lon="97.956717">
<time>2016-10-07T18:04:47Z</time></trkpt>
<trkpt lat="29.732" lon="97.956487">
<time>2016-10-07T18:04:48Z</time></trkpt>
<trkpt lat="29.731961" lon="97.956248">
<time>2016-10-07T18:04:49Z</time></trkpt>
<trkpt lat="29.731931" lon="97.956058">
<time>2016-10-07T18:04:50Z</time></trkpt>
<trkpt lat="29.731882" lon="97.955819">
<time>2016-10-07T18:04:51Z</time></trkpt>
<trkpt lat="29.731872" lon="97.955699">
<time>2016-10-07T18:04:52Z</time></trkpt>
<trkpt lat="29.731862" lon="97.955679">
<time>2016-10-07T18:04:53Z</time></trkpt>
<trkpt lat="29.731862" lon="97.955659">
<time>2016-10-07T18:04:54Z</time></trkpt>
<trkpt lat="29.731862" lon="97.955639">
<time>2016-10-07T18:04:55Z</time></trkpt>
<trkpt lat="29.731862" lon="97.955619">
<time>2016-10-07T18:04:56Z</time></trkpt>
<trkpt lat="29.731863" lon="97.95559">
<time>2016-10-07T18:04:57Z</time></trkpt>
<trkpt lat="29.731873" lon="97.95557">
<time>2016-10-07T18:04:58Z</time></trkpt>
<trkpt lat="29.731883" lon="97.95554">
<time>2016-10-07T18:04:59Z</time></trkpt>
<trkpt lat="29.731893" lon="97.95553">
<time>2016-10-07T18:05:00Z</time></trkpt>
<trkpt lat="29.731903" lon="97.95551">
<time>2016-10-07T18:05:01Z</time></trkpt>
<trkpt lat="29.731913" lon="97.9555">
<time>2016-10-07T18:05:02Z</time></trkpt>
<trkpt lat="29.731933" lon="97.95549">
<time>2016-10-07T18:05:03Z</time></trkpt>
<trkpt lat="29.731943" lon="97.95548">
<time>2016-10-07T18:05:04Z</time></trkpt>
<trkpt lat="29.731963" lon="97.95547">
<time>2016-10-07T18:05:05Z</time></trkpt>
<trkpt lat="29.731973" lon="97.95547">
<time>2016-10-07T18:05:06Z</time></trkpt>
<trkpt lat="29.731983" lon="97.95547">
<time>2016-10-07T18:05:07Z</time></trkpt>
<trkpt lat="29.732003" lon="97.95547">
<time>2016-10-07T18:05:08Z</time></trkpt>
<trkpt lat="29.732023" lon="97.95547">
<time>2016-10-07T18:05:09Z</time></trkpt>
<trkpt lat="29.732033" lon="97.95548">
<time>2016-10-07T18:05:10Z</time></trkpt>
<trkpt lat="29.732053" lon="97.95549">
<time>2016-10-07T18:05:11Z</time></trkpt>
<trkpt lat="29.732063" lon="97.9555">
<time>2016-10-07T18:05:12Z</time></trkpt>
<trkpt lat="29.732073" lon="97.95551">
<time>2016-10-07T18:05:13Z</time></trkpt>
<trkpt lat="29.732083" lon="97.95553">
<time>2016-10-07T18:05:14Z</time></trkpt>
<trkpt lat="29.732103" lon="97.95555">
<time>2016-10-07T18:05:15Z</time></trkpt>
<trkpt lat="29.732112" lon="97.95558">
<time>2016-10-07T18:05:16Z</time></trkpt>
<trkpt lat="29.732122" lon="97.955609">
<time>2016-10-07T18:05:17Z</time></trkpt>
<trkpt lat="29.732122" lon="97.955649">
<time>2016-10-07T18:05:18Z</time></trkpt>
<trkpt lat="29.732122" lon="97.955689">
<time>2016-10-07T18:05:19Z</time></trkpt>
<trkpt lat="29.732122" lon="97.955779">
<time>2016-10-07T18:05:20Z</time></trkpt>
<trkpt lat="29.732122" lon="97.955839">
<time>2016-10-07T18:05:21Z</time></trkpt>
<trkpt lat="29.732122" lon="97.955879">
<time>2016-10-07T18:05:22Z</time></trkpt>
<trkpt lat="29.732132" lon="97.955959">
<time>2016-10-07T18:05:23Z</time></trkpt>
<trkpt lat="29.732151" lon="97.956028">
<time>2016-10-07T18:05:24Z</time></trkpt>
<trkpt lat="29.732161" lon="97.956068">
<time>2016-10-07T18:05:25Z</time></trkpt>
<trkpt lat="29.732171" lon="97.956118">
<time>2016-10-07T18:05:26Z</time></trkpt>
<trkpt lat="29.732191" lon="97.956168">
<time>2016-10-07T18:05:27Z</time></trkpt>
<trkpt lat="29.732211" lon="97.956218">
<time>2016-10-07T18:05:28Z</time></trkpt>
<trkpt lat="29.732221" lon="97.956248">
<time>2016-10-07T18:05:29Z</time></trkpt>
<trkpt lat="29.732241" lon="97.956268">
<time>2016-10-07T18:05:30Z</time></trkpt>
<trkpt lat="29.732261" lon="97.956308">
<time>2016-10-07T18:05:31Z</time></trkpt>
<trkpt lat="29.732281" lon="97.956328">
<time>2016-10-07T18:05:32Z</time></trkpt>
<trkpt lat="29.732301" lon="97.956358">
<time>2016-10-07T18:05:33Z</time></trkpt>
<trkpt lat="29.732311" lon="97.956378">
<time>2016-10-07T18:05:34Z</time></trkpt>
<trkpt lat="29.732331" lon="97.956398">
<time>2016-10-07T18:05:35Z</time></trkpt>
<trkpt lat="29.73237" lon="97.956437">
<time>2016-10-07T18:05:36Z</time></trkpt>
<trkpt lat="29.73241" lon="97.956467">
<time>2016-10-07T18:05:37Z</time></trkpt>
<trkpt lat="29.73244" lon="97.956487">
<time>2016-10-07T18:05:38Z</time></trkpt>
<trkpt lat="29.73247" lon="97.956507">
<time>2016-10-07T18:05:39Z</time></trkpt>
<trkpt lat="29.73249" lon="97.956517">
<time>2016-10-07T18:05:40Z</time></trkpt>
<trkpt lat="29.73252" lon="97.956517">
<time>2016-10-07T18:05:41Z</time></trkpt>
<trkpt lat="29.73254" lon="97.956517">
<time>2016-10-07T18:05:42Z</time></trkpt>
<trkpt lat="29.73256" lon="97.956517">
<time>2016-10-07T18:05:43Z</time></trkpt>
<trkpt lat="29.73259" lon="97.956517">
<time>2016-10-07T18:05:44Z</time></trkpt>
<trkpt lat="29.73261" lon="97.956507">
<time>2016-10-07T18:05:45Z</time></trkpt>
<trkpt lat="29.73263" lon="97.956497">
<time>2016-10-07T18:05:46Z</time></trkpt>
<trkpt lat="29.73266" lon="97.956477">
<time>2016-10-07T18:05:47Z</time></trkpt>
<trkpt lat="29.73268" lon="97.956457">
<time>2016-10-07T18:05:48Z</time></trkpt>
<trkpt lat="29.7327" lon="97.956437">
<time>2016-10-07T18:05:49Z</time></trkpt>
<trkpt lat="29.73272" lon="97.956408">
<time>2016-10-07T18:05:50Z</time></trkpt>
<trkpt lat="29.732731" lon="97.956378">
<time>2016-10-07T18:05:51Z</time></trkpt>
<trkpt lat="29.732741" lon="97.956348">
<time>2016-10-07T18:05:52Z</time></trkpt>
<trkpt lat="29.732751" lon="97.956328">
<time>2016-10-07T18:05:53Z</time></trkpt>
<trkpt lat="29.732751" lon="97.956298">
<time>2016-10-07T18:05:54Z</time></trkpt>
<trkpt lat="29.732751" lon="97.956278">
<time>2016-10-07T18:05:55Z</time></trkpt>
<trkpt lat="29.732761" lon="97.956238">
<time>2016-10-07T18:05:56Z</time></trkpt>
<trkpt lat="29.732761" lon="97.956188">
<time>2016-10-07T18:05:57Z</time></trkpt>
<trkpt lat="29.732761" lon="97.955999">
<time>2016-10-07T18:05:58Z</time></trkpt>
<trkpt lat="29.732762" lon="97.955799">
<time>2016-10-07T18:05:59Z</time></trkpt>
<trkpt lat="29.732762" lon="97.955629">
<time>2016-10-07T18:06:00Z</time></trkpt>
<trkpt lat="29.732773" lon="97.95542">
<time>2016-10-07T18:06:01Z</time></trkpt>
<trkpt lat="29.732773" lon="97.95521">
<time>2016-10-07T18:06:02Z</time></trkpt>
<trkpt lat="29.732774" lon="97.955041">
<time>2016-10-07T18:06:03Z</time></trkpt>
<trkpt lat="29.732774" lon="97.954991">
<time>2016-10-07T18:06:04Z</time></trkpt>
<trkpt lat="29.732764" lon="97.954941">
<time>2016-10-07T18:06:05Z</time></trkpt>
<trkpt lat="29.732754" lon="97.954891">
<time>2016-10-07T18:06:06Z</time></trkpt>
<trkpt lat="29.732744" lon="97.954861">
<time>2016-10-07T18:06:07Z</time></trkpt>
<trkpt lat="29.732744" lon="97.954841">
<time>2016-10-07T18:06:08Z</time></trkpt>
<trkpt lat="29.732724" lon="97.954811">
<time>2016-10-07T18:06:09Z</time></trkpt>
<trkpt lat="29.732714" lon="97.954781">
<time>2016-10-07T18:06:10Z</time></trkpt>
<trkpt lat="29.732704" lon="97.954761">
<time>2016-10-07T18:06:11Z</time></trkpt>
<trkpt lat="29.732694" lon="97.954741">
<time>2016-10-07T18:06:12Z</time></trkpt>
<trkpt lat="29.732674" lon="97.954722">
<time>2016-10-07T18:06:13Z</time></trkpt>
<trkpt lat="29.732654" lon="97.954692">
<time>2016-10-07T18:06:14Z</time></trkpt>
<trkpt lat="29.732644" lon="97.954682">
<time>2016-10-07T18:06:15Z</time></trkpt>
<trkpt lat="29.732634" lon="97.954672">
<time>2016-10-07T18:06:16Z</time></trkpt>
<trkpt lat="29.732615" lon="97.954652">
<time>2016-10-07T18:06:17Z</time></trkpt>
<trkpt lat="29.732585" lon="97.954632">
<time>2016-10-07T18:06:18Z</time></trkpt>
<trkpt lat="29.732555" lon="97.954622">
<time>2016-10-07T18:06:19Z</time></trkpt>
<trkpt lat="29.732545" lon="97.954612">
<time>2016-10-07T18:06:20Z</time></trkpt>
<trkpt lat="29.732525" lon="97.954602">
<time>2016-10-07T18:06:21Z</time></trkpt>
<trkpt lat="29.732495" lon="97.954602">
<time>2016-10-07T18:06:22Z</time></trkpt>
<trkpt lat="29.732405" lon="97.954582">
<time>2016-10-07T18:06:23Z</time></trkpt>
<trkpt lat="29.732375" lon="97.954582">
<time>2016-10-07T18:06:24Z</time></trkpt>
<trkpt lat="29.732355" lon="97.954572">
<time>2016-10-07T18:06:25Z</time></trkpt>
<trkpt lat="29.732335" lon="97.954562">
<time>2016-10-07T18:06:26Z</time></trkpt>
<trkpt lat="29.732295" lon="97.954552">
<time>2016-10-07T18:06:27Z</time></trkpt>
<trkpt lat="29.732275" lon="97.954532">
<time>2016-10-07T18:06:28Z</time></trkpt>
<trkpt lat="29.732265" lon="97.954522">
<time>2016-10-07T18:06:29Z</time></trkpt>
<trkpt lat="29.732235" lon="97.954502">
<time>2016-10-07T18:06:30Z</time></trkpt>
<trkpt lat="29.732215" lon="97.954482">
<time>2016-10-07T18:06:31Z</time></trkpt>
<trkpt lat="29.732195" lon="97.954452">
<time>2016-10-07T18:06:32Z</time></trkpt>
<trkpt lat="29.732175" lon="97.954422">
<time>2016-10-07T18:06:33Z</time></trkpt>
<trkpt lat="29.732165" lon="97.954402">
<time>2016-10-07T18:06:34Z</time></trkpt>
<trkpt lat="29.732145" lon="97.954362">
<time>2016-10-07T18:06:35Z</time></trkpt>
<trkpt lat="29.732135" lon="97.954332">
<time>2016-10-07T18:06:36Z</time></trkpt>
<trkpt lat="29.732125" lon="97.954303">
<time>2016-10-07T18:06:37Z</time></trkpt>
<trkpt lat="29.732125" lon="97.954273">
<time>2016-10-07T18:06:38Z</time></trkpt>
<trkpt lat="29.732116" lon="97.954233">
<time>2016-10-07T18:06:39Z</time></trkpt>
<trkpt lat="29.732116" lon="97.954163">
<time>2016-10-07T18:06:40Z</time></trkpt>
<trkpt lat="29.732086" lon="97.953893">
<time>2016-10-07T18:06:41Z</time></trkpt>
<trkpt lat="29.732037" lon="97.953574">
<time>2016-10-07T18:06:42Z</time></trkpt>
<trkpt lat="29.731878" lon="97.952946">
<time>2016-10-07T18:06:43Z</time></trkpt>
<trkpt lat="29.73174" lon="97.952437">
<time>2016-10-07T18:06:44Z</time></trkpt>
<trkpt lat="29.731531" lon="97.951748">
<time>2016-10-07T18:06:45Z</time></trkpt>
<trkpt lat="29.731392" lon="97.951349">
<time>2016-10-07T18:06:46Z</time></trkpt>
<trkpt lat="29.731322" lon="97.95114">
<time>2016-10-07T18:06:47Z</time></trkpt>
<trkpt lat="29.731243" lon="97.95097">
<time>2016-10-07T18:06:48Z</time></trkpt>
<trkpt lat="29.731133" lon="97.95076">
<time>2016-10-07T18:06:49Z</time></trkpt>
<trkpt lat="29.731073" lon="97.950671">
<time>2016-10-07T18:06:50Z</time></trkpt>
<trkpt lat="29.731034" lon="97.950581">
<time>2016-10-07T18:06:51Z</time></trkpt>
<trkpt lat="29.730984" lon="97.950481">
<time>2016-10-07T18:06:52Z</time></trkpt>
<trkpt lat="29.730954" lon="97.950381">
<time>2016-10-07T18:06:53Z</time></trkpt>
<trkpt lat="29.730884" lon="97.950212">
<time>2016-10-07T18:06:54Z</time></trkpt>
<trkpt lat="29.730825" lon="97.950092">
<time>2016-10-07T18:06:55Z</time></trkpt>
<trkpt lat="29.730775" lon="97.950022">
<time>2016-10-07T18:06:56Z</time></trkpt>
<trkpt lat="29.730745" lon="97.949982">
<time>2016-10-07T18:06:57Z</time></trkpt>
<trkpt lat="29.730685" lon="97.949902">
<time>2016-10-07T18:06:58Z</time></trkpt>
<trkpt lat="29.730625" lon="97.949823">
<time>2016-10-07T18:06:59Z</time></trkpt>
<trkpt lat="29.730426" lon="97.949623">
<time>2016-10-07T18:07:00Z</time></trkpt>
<trkpt lat="29.730216" lon="97.949413">
<time>2016-10-07T18:07:01Z</time></trkpt>
<trkpt lat="29.730086" lon="97.949304">
<time>2016-10-07T18:07:02Z</time></trkpt>
<trkpt lat="29.729967" lon="97.949224">
<time>2016-10-07T18:07:03Z</time></trkpt>
<trkpt lat="29.729867" lon="97.949164">
<time>2016-10-07T18:07:04Z</time></trkpt>
<trkpt lat="29.729787" lon="97.949124">
<time>2016-10-07T18:07:05Z</time></trkpt>
<trkpt lat="29.729547" lon="97.949014">
<time>2016-10-07T18:07:06Z</time></trkpt>
<trkpt lat="29.729287" lon="97.948895">
<time>2016-10-07T18:07:07Z</time></trkpt>
<trkpt lat="29.729028" lon="97.948775">
<time>2016-10-07T18:07:08Z</time></trkpt>
<trkpt lat="29.728808" lon="97.948665">
<time>2016-10-07T18:07:09Z</time></trkpt>
<trkpt lat="29.728628" lon="97.948585">
<time>2016-10-07T18:07:10Z</time></trkpt>
<trkpt lat="29.728488" lon="97.948525">
<time>2016-10-07T18:07:11Z</time></trkpt>
<trkpt lat="29.728408" lon="97.948495">
<time>2016-10-07T18:07:12Z</time></trkpt>
<trkpt lat="29.728308" lon="97.948455">
<time>2016-10-07T18:07:13Z</time></trkpt>
<trkpt lat="29.728129" lon="97.948396">
<time>2016-10-07T18:07:14Z</time></trkpt>
<trkpt lat="29.727849" lon="97.948306">
<time>2016-10-07T18:07:15Z</time></trkpt>
<trkpt lat="29.727689" lon="97.948266">
<time>2016-10-07T18:07:16Z</time></trkpt>
<trkpt lat="29.727579" lon="97.948246">
<time>2016-10-07T18:07:17Z</time></trkpt>
<trkpt lat="29.727549" lon="97.948236">
<time>2016-10-07T18:07:18Z</time></trkpt>
<trkpt lat="29.727519" lon="97.948236">
<time>2016-10-07T18:07:19Z</time></trkpt>
<trkpt lat="29.727509" lon="97.948236">
<time>2016-10-07T18:07:20Z</time></trkpt>
<trkpt lat="29.727479" lon="97.948236">
<time>2016-10-07T18:07:21Z</time></trkpt>
<trkpt lat="29.727459" lon="97.948236">
<time>2016-10-07T18:07:22Z</time></trkpt>
<trkpt lat="29.727449" lon="97.948236">
<time>2016-10-07T18:07:23Z</time></trkpt>
<trkpt lat="29.727429" lon="97.948236">
<time>2016-10-07T18:07:24Z</time></trkpt>
<trkpt lat="29.727409" lon="97.948236">
<time>2016-10-07T18:07:25Z</time></trkpt>
<trkpt lat="29.727379" lon="97.948246">
<time>2016-10-07T18:07:26Z</time></trkpt>
<trkpt lat="29.727359" lon="97.948246">
<time>2016-10-07T18:07:27Z</time></trkpt>
<trkpt lat="29.727329" lon="97.948256">
<time>2016-10-07T18:07:28Z</time></trkpt>
<trkpt lat="29.727299" lon="97.948266">
<time>2016-10-07T18:07:29Z</time></trkpt>
<trkpt lat="29.727269" lon="97.948286">
<time>2016-10-07T18:07:30Z</time></trkpt>
<trkpt lat="29.727229" lon="97.948296">
<time>2016-10-07T18:07:31Z</time></trkpt>
<trkpt lat="29.727149" lon="97.948336">
<time>2016-10-07T18:07:32Z</time></trkpt>
<trkpt lat="29.727129" lon="97.948346">
<time>2016-10-07T18:07:33Z</time></trkpt>
<trkpt lat="29.727109" lon="97.948346">
<time>2016-10-07T18:07:34Z</time></trkpt>
<trkpt lat="29.727089" lon="97.948356">
<time>2016-10-07T18:07:35Z</time></trkpt>
<trkpt lat="29.727069" lon="97.948356">
<time>2016-10-07T18:07:36Z</time></trkpt>
<trkpt lat="29.727039" lon="97.948356">
<time>2016-10-07T18:07:37Z</time></trkpt>
<trkpt lat="29.727019" lon="97.948356">
<time>2016-10-07T18:07:38Z</time></trkpt>
<trkpt lat="29.727009" lon="97.948356">
<time>2016-10-07T18:07:39Z</time></trkpt>
<trkpt lat="29.726999" lon="97.948346">
<time>2016-10-07T18:07:40Z</time></trkpt>
<trkpt lat="29.726989" lon="97.948346">
<time>2016-10-07T18:07:41Z</time></trkpt>
<trkpt lat="29.726979" lon="97.948336">
<time>2016-10-07T18:07:42Z</time></trkpt>
<trkpt lat="29.726969" lon="97.948326">
<time>2016-10-07T18:07:43Z</time></trkpt>
<trkpt lat="29.726959" lon="97.948306">
<time>2016-10-07T18:07:44Z</time></trkpt>
<trkpt lat="29.726949" lon="97.948296">
<time>2016-10-07T18:07:45Z</time></trkpt>
<trkpt lat="29.726949" lon="97.948286">
<time>2016-10-07T18:07:46Z</time></trkpt>
<trkpt lat="29.726939" lon="97.948266">
<time>2016-10-07T18:07:47Z</time></trkpt>
<trkpt lat="29.726939" lon="97.948256">
<time>2016-10-07T18:07:48Z</time></trkpt>
<trkpt lat="29.726929" lon="97.948236">
<time>2016-10-07T18:07:49Z</time></trkpt>
<trkpt lat="29.726929" lon="97.948226">
<time>2016-10-07T18:07:50Z</time></trkpt>
<trkpt lat="29.726929" lon="97.948216">
<time>2016-10-07T18:07:51Z</time></trkpt>
<trkpt lat="29.726939" lon="97.948206">
<time>2016-10-07T18:07:52Z</time></trkpt>
<trkpt lat="29.726939" lon="97.948196">
<time>2016-10-07T18:07:53Z</time></trkpt>
<trkpt lat="29.726939" lon="97.948186">
<time>2016-10-07T18:07:54Z</time></trkpt>
<trkpt lat="29.726949" lon="97.948166">
<time>2016-10-07T18:07:55Z</time></trkpt>
<trkpt lat="29.726959" lon="97.948156">
<time>2016-10-07T18:07:56Z</time></trkpt>
<trkpt lat="29.726959" lon="97.948146">
<time>2016-10-07T18:07:57Z</time></trkpt>
<trkpt lat="29.726969" lon="97.948146">
<time>2016-10-07T18:07:58Z</time></trkpt>
<trkpt lat="29.726969" lon="97.948136">
<time>2016-10-07T18:07:59Z</time></trkpt>
<trkpt lat="29.726979" lon="97.948126">
<time>2016-10-07T18:08:00Z</time></trkpt>
<trkpt lat="29.726999" lon="97.948106">
<time>2016-10-07T18:08:01Z</time></trkpt>
<trkpt lat="29.727029" lon="97.948096">
<time>2016-10-07T18:08:02Z</time></trkpt>
<trkpt lat="29.727099" lon="97.948086">
<time>2016-10-07T18:08:03Z</time></trkpt>
<trkpt lat="29.727249" lon="97.948076">
<time>2016-10-07T18:08:04Z</time></trkpt>
<trkpt lat="29.727399" lon="97.948076">
<time>2016-10-07T18:08:05Z</time></trkpt>
<trkpt lat="29.727589" lon="97.948066">
<time>2016-10-07T18:08:06Z</time></trkpt>
<trkpt lat="29.727699" lon="97.948066">
<time>2016-10-07T18:08:07Z</time></trkpt>
<trkpt lat="29.727869" lon="97.948066">
<time>2016-10-07T18:08:08Z</time></trkpt>
<trkpt lat="29.728079" lon="97.948066">
<time>2016-10-07T18:08:09Z</time></trkpt>
<trkpt lat="29.728369" lon="97.948066">
<time>2016-10-07T18:08:10Z</time></trkpt>
<trkpt lat="29.728459" lon="97.948066">
<time>2016-10-07T18:08:11Z</time></trkpt>
<trkpt lat="29.728529" lon="97.948076">
<time>2016-10-07T18:08:12Z</time></trkpt>
<trkpt lat="29.728599" lon="97.948076">
<time>2016-10-07T18:08:13Z</time></trkpt>
<trkpt lat="29.728689" lon="97.948096">
<time>2016-10-07T18:08:14Z</time></trkpt>
<trkpt lat="29.728759" lon="97.948116">
<time>2016-10-07T18:08:15Z</time></trkpt>
<trkpt lat="29.728869" lon="97.948156">
<time>2016-10-07T18:08:16Z</time></trkpt>
<trkpt lat="29.728989" lon="97.948196">
<time>2016-10-07T18:08:17Z</time></trkpt>
<trkpt lat="29.729099" lon="97.948226">
<time>2016-10-07T18:08:18Z</time></trkpt>
<trkpt lat="29.729179" lon="97.948256">
<time>2016-10-07T18:08:19Z</time></trkpt>
<trkpt lat="29.729259" lon="97.948266">
<time>2016-10-07T18:08:20Z</time></trkpt>
<trkpt lat="29.729439" lon="97.948296">
<time>2016-10-07T18:08:21Z</time></trkpt>
<trkpt lat="29.729708" lon="97.948326">
<time>2016-10-07T18:08:22Z</time></trkpt>
<trkpt lat="29.729938" lon="97.948356">
<time>2016-10-07T18:08:23Z</time></trkpt>
<trkpt lat="29.730088" lon="97.948366">
<time>2016-10-07T18:08:24Z</time></trkpt>
<trkpt lat="29.730258" lon="97.948386">
<time>2016-10-07T18:08:25Z</time></trkpt>
<trkpt lat="29.730428" lon="97.948415">
<time>2016-10-07T18:08:26Z</time></trkpt>
<trkpt lat="29.730508" lon="97.948425">
<time>2016-10-07T18:08:27Z</time></trkpt>
<trkpt lat="29.730568" lon="97.948445">
<time>2016-10-07T18:08:28Z</time></trkpt>
<trkpt lat="29.730648" lon="97.948465">
<time>2016-10-07T18:08:29Z</time></trkpt>
<trkpt lat="29.730808" lon="97.948505">
<time>2016-10-07T18:08:30Z</time></trkpt>
<trkpt lat="29.730868" lon="97.948525">
<time>2016-10-07T18:08:31Z</time></trkpt>
<trkpt lat="29.730918" lon="97.948545">
<time>2016-10-07T18:08:32Z</time></trkpt>
<trkpt lat="29.731018" lon="97.948575">
<time>2016-10-07T18:08:33Z</time></trkpt>
<trkpt lat="29.731078" lon="97.948595">
<time>2016-10-07T18:08:34Z</time></trkpt>
<trkpt lat="29.731128" lon="97.948625">
<time>2016-10-07T18:08:35Z</time></trkpt>
<trkpt lat="29.731198" lon="97.948655">
<time>2016-10-07T18:08:36Z</time></trkpt>
<trkpt lat="29.731257" lon="97.948705">
<time>2016-10-07T18:08:37Z</time></trkpt>
<trkpt lat="29.731347" lon="97.948765">
<time>2016-10-07T18:08:38Z</time></trkpt>
<trkpt lat="29.731407" lon="97.948815">
<time>2016-10-07T18:08:39Z</time></trkpt>
<trkpt lat="29.731457" lon="97.948865">
<time>2016-10-07T18:08:40Z</time></trkpt>
<trkpt lat="29.731577" lon="97.948984">
<time>2016-10-07T18:08:41Z</time></trkpt>
<trkpt lat="29.731657" lon="97.949084">
<time>2016-10-07T18:08:42Z</time></trkpt>
<trkpt lat="29.731776" lon="97.949234">
<time>2016-10-07T18:08:43Z</time></trkpt>
<trkpt lat="29.731856" lon="97.949344">
<time>2016-10-07T18:08:44Z</time></trkpt>
<trkpt lat="29.731976" lon="97.949513">
<time>2016-10-07T18:08:45Z</time></trkpt>
<trkpt lat="29.732035" lon="97.949603">
<time>2016-10-07T18:08:46Z</time></trkpt>
<trkpt lat="29.732095" lon="97.949693">
<time>2016-10-07T18:08:47Z</time></trkpt>
<trkpt lat="29.732145" lon="97.949763">
<time>2016-10-07T18:08:48Z</time></trkpt>
<trkpt lat="29.732195" lon="97.949832">
<time>2016-10-07T18:08:49Z</time></trkpt>
<trkpt lat="29.732235" lon="97.949902">
<time>2016-10-07T18:08:50Z</time></trkpt>
<trkpt lat="29.732275" lon="97.949952">
<time>2016-10-07T18:08:51Z</time></trkpt>
<trkpt lat="29.732305" lon="97.949982">
<time>2016-10-07T18:08:52Z</time></trkpt>
<trkpt lat="29.732335" lon="97.950022">
<time>2016-10-07T18:08:53Z</time></trkpt>
<trkpt lat="29.732364" lon="97.950052">
<time>2016-10-07T18:08:54Z</time></trkpt>
<trkpt lat="29.732394" lon="97.950072">
<time>2016-10-07T18:08:55Z</time></trkpt>
<trkpt lat="29.732414" lon="97.950092">
<time>2016-10-07T18:08:56Z</time></trkpt>
<trkpt lat="29.732434" lon="97.950102">
<time>2016-10-07T18:08:57Z</time></trkpt>
<trkpt lat="29.732484" lon="97.950132">
<time>2016-10-07T18:08:58Z</time></trkpt>
<trkpt lat="29.732524" lon="97.950142">
<time>2016-10-07T18:08:59Z</time></trkpt>
<trkpt lat="29.732564" lon="97.950162">
<time>2016-10-07T18:09:00Z</time></trkpt>
<trkpt lat="29.732604" lon="97.950172">
<time>2016-10-07T18:09:01Z</time></trkpt>
<trkpt lat="29.732644" lon="97.950172">
<time>2016-10-07T18:09:02Z</time></trkpt>
<trkpt lat="29.732694" lon="97.950172">
<time>2016-10-07T18:09:03Z</time></trkpt>
<trkpt lat="29.732714" lon="97.950172">
<time>2016-10-07T18:09:04Z</time></trkpt>
<trkpt lat="29.732754" lon="97.950172">
<time>2016-10-07T18:09:05Z</time></trkpt>
<trkpt lat="29.732784" lon="97.950162">
<time>2016-10-07T18:09:06Z</time></trkpt>
<trkpt lat="29.732824" lon="97.950152">
<time>2016-10-07T18:09:07Z</time></trkpt>
<trkpt lat="29.732874" lon="97.950132">
<time>2016-10-07T18:09:08Z</time></trkpt>
<trkpt lat="29.732914" lon="97.950112">
<time>2016-10-07T18:09:09Z</time></trkpt>
<trkpt lat="29.732934" lon="97.950092">
<time>2016-10-07T18:09:10Z</time></trkpt>
<trkpt lat="29.732964" lon="97.950082">
<time>2016-10-07T18:09:11Z</time></trkpt>
<trkpt lat="29.732984" lon="97.950062">
<time>2016-10-07T18:09:12Z</time></trkpt>
<trkpt lat="29.733004" lon="97.950052">
<time>2016-10-07T18:09:13Z</time></trkpt>
<trkpt lat="29.733024" lon="97.950022">
<time>2016-10-07T18:09:14Z</time></trkpt>
<trkpt lat="29.733065" lon="97.949982">
<time>2016-10-07T18:09:15Z</time></trkpt>
<trkpt lat="29.733095" lon="97.949952">
<time>2016-10-07T18:09:16Z</time></trkpt>
<trkpt lat="29.733115" lon="97.949912">
<time>2016-10-07T18:09:17Z</time></trkpt>
<trkpt lat="29.733135" lon="97.949862">
<time>2016-10-07T18:09:18Z</time></trkpt>
<trkpt lat="29.733155" lon="97.949822">
<time>2016-10-07T18:09:19Z</time></trkpt>
<trkpt lat="29.733175" lon="97.949763">
<time>2016-10-07T18:09:20Z</time></trkpt>
<trkpt lat="29.733185" lon="97.949703">
<time>2016-10-07T18:09:21Z</time></trkpt>
<trkpt lat="29.733195" lon="97.949653">
<time>2016-10-07T18:09:22Z</time></trkpt>
<trkpt lat="29.733195" lon="97.949613">
<time>2016-10-07T18:09:23Z</time></trkpt>
<trkpt lat="29.733195" lon="97.949573">
<time>2016-10-07T18:09:24Z</time></trkpt>
<trkpt lat="29.733195" lon="97.949523">
<time>2016-10-07T18:09:25Z</time></trkpt>
<trkpt lat="29.733186" lon="97.949463">
<time>2016-10-07T18:09:26Z</time></trkpt>
<trkpt lat="29.733176" lon="97.949403">
<time>2016-10-07T18:09:27Z</time></trkpt>
<trkpt lat="29.733156" lon="97.949334">
<time>2016-10-07T18:09:28Z</time></trkpt>
<trkpt lat="29.733146" lon="97.949274">
<time>2016-10-07T18:09:29Z</time></trkpt>
<trkpt lat="29.733126" lon="97.949204">
<time>2016-10-07T18:09:30Z</time></trkpt>
<trkpt lat="29.733106" lon="97.949124">
<time>2016-10-07T18:09:31Z</time></trkpt>
<trkpt lat="29.733086" lon="97.949074">
<time>2016-10-07T18:09:32Z</time></trkpt>
<trkpt lat="29.733076" lon="97.949034">
<time>2016-10-07T18:09:33Z</time></trkpt>
<trkpt lat="29.733077" lon="97.948994">
<time>2016-10-07T18:09:34Z</time></trkpt>
<trkpt lat="29.733067" lon="97.948964">
<time>2016-10-07T18:09:35Z</time></trkpt>
<trkpt lat="29.733067" lon="97.948914">
<time>2016-10-07T18:09:36Z</time></trkpt>
<trkpt lat="29.733067" lon="97.948874">
<time>2016-10-07T18:09:37Z</time></trkpt>
<trkpt lat="29.733077" lon="97.948805">
<time>2016-10-07T18:09:38Z</time></trkpt>
<trkpt lat="29.733077" lon="97.948755">
<time>2016-10-07T18:09:39Z</time></trkpt>
<trkpt lat="29.733087" lon="97.948725">
<time>2016-10-07T18:09:40Z</time></trkpt>
<trkpt lat="29.733097" lon="97.948695">
<time>2016-10-07T18:09:41Z</time></trkpt>
<trkpt lat="29.733107" lon="97.948665">
<time>2016-10-07T18:09:42Z</time></trkpt>
<trkpt lat="29.733127" lon="97.948625">
<time>2016-10-07T18:09:43Z</time></trkpt>
<trkpt lat="29.733147" lon="97.948605">
<time>2016-10-07T18:09:44Z</time></trkpt>
<trkpt lat="29.733167" lon="97.948575">
<time>2016-10-07T18:09:45Z</time></trkpt>
<trkpt lat="29.733187" lon="97.948555">
<time>2016-10-07T18:09:46Z</time></trkpt>
<trkpt lat="29.733207" lon="97.948535">
<time>2016-10-07T18:09:47Z</time></trkpt>
<trkpt lat="29.733227" lon="97.948525">
<time>2016-10-07T18:09:48Z</time></trkpt>
<trkpt lat="29.733238" lon="97.948515">
<time>2016-10-07T18:09:49Z</time></trkpt>
<trkpt lat="29.733278" lon="97.948485">
<time>2016-10-07T18:09:50Z</time></trkpt>
<trkpt lat="29.733338" lon="97.948465">
<time>2016-10-07T18:09:51Z</time></trkpt>
<trkpt lat="29.733438" lon="97.948415">
<time>2016-10-07T18:09:52Z</time></trkpt>
<trkpt lat="29.733548" lon="97.948376">
<time>2016-10-07T18:09:53Z</time></trkpt>
<trkpt lat="29.733638" lon="97.948346">
<time>2016-10-07T18:09:54Z</time></trkpt>
<trkpt lat="29.733718" lon="97.948306">
<time>2016-10-07T18:09:55Z</time></trkpt>
<trkpt lat="29.733838" lon="97.948246">
<time>2016-10-07T18:09:56Z</time></trkpt>
<trkpt lat="29.733928" lon="97.948206">
<time>2016-10-07T18:09:57Z</time></trkpt>
<trkpt lat="29.733978" lon="97.948186">
<time>2016-10-07T18:09:58Z</time></trkpt>
<trkpt lat="29.734018" lon="97.948166">
<time>2016-10-07T18:09:59Z</time></trkpt>
<trkpt lat="29.734068" lon="97.948146">
<time>2016-10-07T18:10:00Z</time></trkpt>
<trkpt lat="29.734128" lon="97.948136">
<time>2016-10-07T18:10:01Z</time></trkpt>
<trkpt lat="29.734178" lon="97.948126">
<time>2016-10-07T18:10:02Z</time></trkpt>
<trkpt lat="29.734258" lon="97.948116">
<time>2016-10-07T18:10:03Z</time></trkpt>
<trkpt lat="29.734368" lon="97.948106">
<time>2016-10-07T18:10:04Z</time></trkpt>
<trkpt lat="29.734448" lon="97.948106">
<time>2016-10-07T18:10:05Z</time></trkpt>
<trkpt lat="29.734488" lon="97.948096">
<time>2016-10-07T18:10:06Z</time></trkpt>
<trkpt lat="29.734518" lon="97.948096">
<time>2016-10-07T18:10:07Z</time></trkpt>
<trkpt lat="29.734538" lon="97.948086">
<time>2016-10-07T18:10:08Z</time></trkpt>
<trkpt lat="29.734568" lon="97.948076">
<time>2016-10-07T18:10:09Z</time></trkpt>
<trkpt lat="29.734588" lon="97.948066">
<time>2016-10-07T18:10:10Z</time></trkpt>
<trkpt lat="29.734598" lon="97.948056">
<time>2016-10-07T18:10:11Z</time></trkpt>
<trkpt lat="29.734618" lon="97.948036">
<time>2016-10-07T18:10:12Z</time></trkpt>
<trkpt lat="29.734638" lon="97.948026">
<time>2016-10-07T18:10:13Z</time></trkpt>
<trkpt lat="29.734648" lon="97.948006">
<time>2016-10-07T18:10:14Z</time></trkpt>
<trkpt lat="29.734668" lon="97.947986">
<time>2016-10-07T18:10:15Z</time></trkpt>
<trkpt lat="29.734678" lon="97.947956">
<time>2016-10-07T18:10:16Z</time></trkpt>
<trkpt lat="29.734688" lon="97.947936">
<time>2016-10-07T18:10:17Z</time></trkpt>
<trkpt lat="29.734698" lon="97.947916">
<time>2016-10-07T18:10:18Z</time></trkpt>
<trkpt lat="29.734699" lon="97.947897">
<time>2016-10-07T18:10:19Z</time></trkpt>
<trkpt lat="29.734709" lon="97.947857">
<time>2016-10-07T18:10:20Z</time></trkpt>
<trkpt lat="29.734709" lon="97.947837">
<time>2016-10-07T18:10:21Z</time></trkpt>
<trkpt lat="29.734709" lon="97.947817">
<time>2016-10-07T18:10:22Z</time></trkpt>
<trkpt lat="29.734709" lon="97.947787">
<time>2016-10-07T18:10:23Z</time></trkpt>
<trkpt lat="29.734699" lon="97.947757">
<time>2016-10-07T18:10:24Z</time></trkpt>
<trkpt lat="29.734699" lon="97.947737">
<time>2016-10-07T18:10:25Z</time></trkpt>
<trkpt lat="29.734689" lon="97.947707">
<time>2016-10-07T18:10:26Z</time></trkpt>
<trkpt lat="29.734679" lon="97.947687">
<time>2016-10-07T18:10:27Z</time></trkpt>
<trkpt lat="29.734659" lon="97.947637">
<time>2016-10-07T18:10:28Z</time></trkpt>
<trkpt lat="29.734629" lon="97.947607">
<time>2016-10-07T18:10:29Z</time></trkpt>
<trkpt lat="29.734589" lon="97.947567">
<time>2016-10-07T18:10:30Z</time></trkpt>
<trkpt lat="29.734579" lon="97.947557">
<time>2016-10-07T18:10:31Z</time></trkpt>
<trkpt lat="29.734559" lon="97.947537">
<time>2016-10-07T18:10:32Z</time></trkpt>
<trkpt lat="29.734529" lon="97.947517">
<time>2016-10-07T18:10:33Z</time></trkpt>
<trkpt lat="29.734499" lon="97.947507">
<time>2016-10-07T18:10:34Z</time></trkpt>
<trkpt lat="29.734469" lon="97.947487">
<time>2016-10-07T18:10:35Z</time></trkpt>
<trkpt lat="29.734409" lon="97.947467">
<time>2016-10-07T18:10:36Z</time></trkpt>
<trkpt lat="29.734309" lon="97.947447">
<time>2016-10-07T18:10:37Z</time></trkpt>
<trkpt lat="29.73409" lon="97.947417">
<time>2016-10-07T18:10:38Z</time></trkpt>
<trkpt lat="29.73395" lon="97.947398">
<time>2016-10-07T18:10:39Z</time></trkpt>
<trkpt lat="29.73385" lon="97.947378">
<time>2016-10-07T18:10:40Z</time></trkpt>
<trkpt lat="29.73368" lon="97.947338">
<time>2016-10-07T18:10:41Z</time></trkpt>
<trkpt lat="29.73338" lon="97.947278">
<time>2016-10-07T18:10:42Z</time></trkpt>
<trkpt lat="29.73323" lon="97.947238">
<time>2016-10-07T18:10:43Z</time></trkpt>
<trkpt lat="29.73311" lon="97.947218">
<time>2016-10-07T18:10:44Z</time></trkpt>
<trkpt lat="29.73303" lon="97.947188">
<time>2016-10-07T18:10:45Z</time></trkpt>
<trkpt lat="29.73299" lon="97.947168">
<time>2016-10-07T18:10:46Z</time></trkpt>
<trkpt lat="29.73292" lon="97.947138">
<time>2016-10-07T18:10:47Z</time></trkpt>
<trkpt lat="29.73287" lon="97.947118">
<time>2016-10-07T18:10:48Z</time></trkpt>
<trkpt lat="29.732721" lon="97.947038">
<time>2016-10-07T18:10:49Z</time></trkpt>
<trkpt lat="29.732641" lon="97.946998">
<time>2016-10-07T18:10:50Z</time></trkpt>
<trkpt lat="29.732571" lon="97.946978">
<time>2016-10-07T18:10:51Z</time></trkpt>
<trkpt lat="29.732451" lon="97.946929">
<time>2016-10-07T18:10:52Z</time></trkpt>
<trkpt lat="29.732331" lon="97.946889">
<time>2016-10-07T18:10:53Z</time></trkpt>
<trkpt lat="29.732141" lon="97.946829">
<time>2016-10-07T18:10:54Z</time></trkpt>
<trkpt lat="29.731811" lon="97.946719">
<time>2016-10-07T18:10:55Z</time></trkpt>
<trkpt lat="29.731581" lon="97.946639">
<time>2016-10-07T18:10:56Z</time></trkpt>
<trkpt lat="29.731372" lon="97.946559">
<time>2016-10-07T18:10:57Z</time></trkpt>
<trkpt lat="29.731152" lon="97.946479">
<time>2016-10-07T18:10:58Z</time></trkpt>
<trkpt lat="29.730952" lon="97.9464">
<time>2016-10-07T18:10:59Z</time></trkpt>
<trkpt lat="29.730792" lon="97.94634">
<time>2016-10-07T18:11:00Z</time></trkpt>
<trkpt lat="29.730672" lon="97.94629">
<time>2016-10-07T18:11:01Z</time></trkpt>
<trkpt lat="29.730572" lon="97.94623">
<time>2016-10-07T18:11:02Z</time></trkpt>
<trkpt lat="29.730483" lon="97.94615">
<time>2016-10-07T18:11:03Z</time></trkpt>
<trkpt lat="29.730413" lon="97.94608">
<time>2016-10-07T18:11:04Z</time></trkpt>
<trkpt lat="29.730283" lon="97.945941">
<time>2016-10-07T18:11:05Z</time></trkpt>
<trkpt lat="29.730133" lon="97.945781">
<time>2016-10-07T18:11:06Z</time></trkpt>
<trkpt lat="29.730054" lon="97.945701">
<time>2016-10-07T18:11:07Z</time></trkpt>
<trkpt lat="29.729964" lon="97.945611">
<time>2016-10-07T18:11:08Z</time></trkpt>
<trkpt lat="29.729774" lon="97.945441">
<time>2016-10-07T18:11:09Z</time></trkpt>
<trkpt lat="29.729465" lon="97.945182">
<time>2016-10-07T18:11:10Z</time></trkpt>
<trkpt lat="29.729255" lon="97.945032">
<time>2016-10-07T18:11:11Z</time></trkpt>
<trkpt lat="29.728985" lon="97.944873">
<time>2016-10-07T18:11:12Z</time></trkpt>
<trkpt lat="29.728626" lon="97.944653">
<time>2016-10-07T18:11:13Z</time></trkpt>
<trkpt lat="29.728396" lon="97.944523">
<time>2016-10-07T18:11:14Z</time></trkpt>
<trkpt lat="29.728306" lon="97.944463">
<time>2016-10-07T18:11:15Z</time></trkpt>
<trkpt lat="29.728246" lon="97.944433">
<time>2016-10-07T18:11:16Z</time></trkpt>
<trkpt lat="29.728146" lon="97.944394">
<time>2016-10-07T18:11:17Z</time></trkpt>
<trkpt lat="29.728016" lon="97.944364">
<time>2016-10-07T18:11:18Z</time></trkpt>
<trkpt lat="29.727866" lon="97.944324">
<time>2016-10-07T18:11:19Z</time></trkpt>
<trkpt lat="29.727787" lon="97.944304">
<time>2016-10-07T18:11:20Z</time></trkpt>
<trkpt lat="29.727737" lon="97.944284">
<time>2016-10-07T18:11:21Z</time></trkpt>
<trkpt lat="29.727497" lon="97.944174">
<time>2016-10-07T18:11:22Z</time></trkpt>
<trkpt lat="29.727057" lon="97.943974">
<time>2016-10-07T18:11:23Z</time></trkpt>
<trkpt lat="29.726897" lon="97.943895">
<time>2016-10-07T18:11:24Z</time></trkpt>
<trkpt lat="29.726728" lon="97.943815">
<time>2016-10-07T18:11:25Z</time></trkpt>
<trkpt lat="29.726478" lon="97.943705">
<time>2016-10-07T18:11:26Z</time></trkpt>
<trkpt lat="29.726298" lon="97.943625">
<time>2016-10-07T18:11:27Z</time></trkpt>
<trkpt lat="29.726188" lon="97.943565">
<time>2016-10-07T18:11:28Z</time></trkpt>
<trkpt lat="29.725839" lon="97.943385">
<time>2016-10-07T18:11:29Z</time></trkpt>
<trkpt lat="29.725649" lon="97.943286">
<time>2016-10-07T18:11:30Z</time></trkpt>
<trkpt lat="29.725459" lon="97.943186">
<time>2016-10-07T18:11:31Z</time></trkpt>
<trkpt lat="29.725269" lon="97.943086">
<time>2016-10-07T18:11:32Z</time></trkpt>
<trkpt lat="29.725169" lon="97.943036">
<time>2016-10-07T18:11:33Z</time></trkpt>
<trkpt lat="29.725099" lon="97.942996">
<time>2016-10-07T18:11:34Z</time></trkpt>
<trkpt lat="29.725039" lon="97.942976">
<time>2016-10-07T18:11:35Z</time></trkpt>
<trkpt lat="29.724989" lon="97.942956">
<time>2016-10-07T18:11:36Z</time></trkpt>
<trkpt lat="29.72494" lon="97.942936">
<time>2016-10-07T18:11:37Z</time></trkpt>
<trkpt lat="29.72482" lon="97.942896">
<time>2016-10-07T18:11:38Z</time></trkpt>
<trkpt lat="29.72473" lon="97.942876">
<time>2016-10-07T18:11:39Z</time></trkpt>
<trkpt lat="29.72466" lon="97.942846">
<time>2016-10-07T18:11:40Z</time></trkpt>
<trkpt lat="29.72459" lon="97.942827">
<time>2016-10-07T18:11:41Z</time></trkpt>
<trkpt lat="29.72454" lon="97.942807">
<time>2016-10-07T18:11:42Z</time></trkpt>
<trkpt lat="29.72447" lon="97.942777">
<time>2016-10-07T18:11:43Z</time></trkpt>
<trkpt lat="29.72444" lon="97.942757">
<time>2016-10-07T18:11:44Z</time></trkpt>
<trkpt lat="29.72438" lon="97.942727">
<time>2016-10-07T18:11:45Z</time></trkpt>
<trkpt lat="29.72406" lon="97.942567">
<time>2016-10-07T18:11:46Z</time></trkpt>
<trkpt lat="29.72401" lon="97.942537">
<time>2016-10-07T18:11:47Z</time></trkpt>
<trkpt lat="29.72396" lon="97.942517">
<time>2016-10-07T18:11:48Z</time></trkpt>
<trkpt lat="29.72391" lon="97.942487">
<time>2016-10-07T18:11:49Z</time></trkpt>
<trkpt lat="29.723861" lon="97.942467">
<time>2016-10-07T18:11:50Z</time></trkpt>
<trkpt lat="29.723831" lon="97.942447">
<time>2016-10-07T18:11:51Z</time></trkpt>
<trkpt lat="29.723821" lon="97.942447">
<time>2016-10-07T18:11:52Z</time></trkpt>
<trkpt lat="29.723781" lon="97.942427">
<time>2016-10-07T18:11:53Z</time></trkpt>
<trkpt lat="29.723761" lon="97.942417">
<time>2016-10-07T18:11:54Z</time></trkpt>
<trkpt lat="29.723741" lon="97.942407">
<time>2016-10-07T18:11:55Z</time></trkpt>
<trkpt lat="29.723731" lon="97.942407">
<time>2016-10-07T18:11:56Z</time></trkpt>
<trkpt lat="29.723721" lon="97.942407">
<time>2016-10-07T18:11:57Z</time></trkpt>
<trkpt lat="29.723721" lon="97.942397">
<time>2016-10-07T18:11:58Z</time></trkpt>
<trkpt lat="29.723711" lon="97.942397">
<time>2016-10-07T18:11:59Z</time></trkpt>
<trkpt lat="29.723701" lon="97.942397">
<time>2016-10-07T18:12:00Z</time></trkpt>
<trkpt lat="29.723691" lon="97.942397">
<time>2016-10-07T18:12:01Z</time></trkpt>
<trkpt lat="29.723681" lon="97.942397">
<time>2016-10-07T18:12:02Z</time></trkpt>
<trkpt lat="29.723671" lon="97.942397">
<time>2016-10-07T18:12:03Z</time></trkpt>
<trkpt lat="29.723661" lon="97.942397">
<time>2016-10-07T18:12:04Z</time></trkpt>
<trkpt lat="29.723651" lon="97.942397">
<time>2016-10-07T18:12:05Z</time></trkpt>
<trkpt lat="29.723641" lon="97.942397">
<time>2016-10-07T18:12:06Z</time></trkpt>
<trkpt lat="29.723631" lon="97.942407">
<time>2016-10-07T18:12:07Z</time></trkpt>
<trkpt lat="29.723611" lon="97.942417">
<time>2016-10-07T18:12:08Z</time></trkpt>
<trkpt lat="29.723601" lon="97.942417">
<time>2016-10-07T18:12:09Z</time></trkpt>
<trkpt lat="29.723591" lon="97.942427">
<time>2016-10-07T18:12:10Z</time></trkpt>
<trkpt lat="29.723581" lon="97.942437">
<time>2016-10-07T18:12:11Z</time></trkpt>
<trkpt lat="29.723571" lon="97.942457">
<time>2016-10-07T18:12:12Z</time></trkpt>
<trkpt lat="29.723561" lon="97.942467">
<time>2016-10-07T18:12:13Z</time></trkpt>
<trkpt lat="29.723561" lon="97.942487">
<time>2016-10-07T18:12:14Z</time></trkpt>
<trkpt lat="29.723551" lon="97.942497">
<time>2016-10-07T18:12:15Z</time></trkpt>
<trkpt lat="29.723551" lon="97.942507">
<time>2016-10-07T18:12:16Z</time></trkpt>
<trkpt lat="29.72355" lon="97.942517">
<time>2016-10-07T18:12:17Z</time></trkpt>
<trkpt lat="29.72355" lon="97.942537">
<time>2016-10-07T18:12:18Z</time></trkpt>
<trkpt lat="29.72355" lon="97.942547">
<time>2016-10-07T18:12:19Z</time></trkpt>
<trkpt lat="29.72355" lon="97.942567">
<time>2016-10-07T18:12:20Z</time></trkpt>
<trkpt lat="29.72355" lon="97.942577">
<time>2016-10-07T18:12:21Z</time></trkpt>
<trkpt lat="29.72356" lon="97.942587">
<time>2016-10-07T18:12:22Z</time></trkpt>
<trkpt lat="29.72356" lon="97.942597">
<time>2016-10-07T18:12:23Z</time></trkpt>
<trkpt lat="29.72357" lon="97.942607">
<time>2016-10-07T18:12:24Z</time></trkpt>
<trkpt lat="29.72357" lon="97.942617">
<time>2016-10-07T18:12:25Z</time></trkpt>
<trkpt lat="29.72358" lon="97.942627">
<time>2016-10-07T18:12:26Z</time></trkpt>
<trkpt lat="29.72358" lon="97.942637">
<time>2016-10-07T18:12:27Z</time></trkpt>
<trkpt lat="29.72359" lon="97.942647">
<time>2016-10-07T18:12:28Z</time></trkpt>
<trkpt lat="29.7236" lon="97.942657">
<time>2016-10-07T18:12:29Z</time></trkpt>
<trkpt lat="29.72362" lon="97.942667">
<time>2016-10-07T18:12:30Z</time></trkpt>
<trkpt lat="29.72363" lon="97.942667">
<time>2016-10-07T18:12:31Z</time></trkpt>
<trkpt lat="29.72364" lon="97.942677">
<time>2016-10-07T18:12:32Z</time></trkpt>
<trkpt lat="29.72365" lon="97.942677">
<time>2016-10-07T18:12:33Z</time></trkpt>
<trkpt lat="29.72367" lon="97.942687">
<time>2016-10-07T18:12:34Z</time></trkpt>
<trkpt lat="29.7237" lon="97.942697">
<time>2016-10-07T18:12:35Z</time></trkpt>
<trkpt lat="29.72374" lon="97.942697">
<time>2016-10-07T18:12:36Z</time></trkpt>
<trkpt lat="29.72382" lon="97.942707">
<time>2016-10-07T18:12:37Z</time></trkpt>
<trkpt lat="29.72391" lon="97.942707">
<time>2016-10-07T18:12:38Z</time></trkpt>
<trkpt lat="29.72395" lon="97.942717">
<time>2016-10-07T18:12:39Z</time></trkpt>
<trkpt lat="29.72399" lon="97.942727">
<time>2016-10-07T18:12:40Z</time></trkpt>
<trkpt lat="29.72404" lon="97.942757">
<time>2016-10-07T18:12:41Z</time></trkpt>
<trkpt lat="29.72408" lon="97.942767">
<time>2016-10-07T18:12:42Z</time></trkpt>
<trkpt lat="29.72414" lon="97.942807">
<time>2016-10-07T18:12:43Z</time></trkpt>
<trkpt lat="29.72431" lon="97.942936">
<time>2016-10-07T18:12:44Z</time></trkpt>
<trkpt lat="29.724429" lon="97.943036">
<time>2016-10-07T18:12:45Z</time></trkpt>
<trkpt lat="29.724499" lon="97.943086">
<time>2016-10-07T18:12:46Z</time></trkpt>
<trkpt lat="29.724559" lon="97.943126">
<time>2016-10-07T18:12:47Z</time></trkpt>
<trkpt lat="29.724619" lon="97.943166">
<time>2016-10-07T18:12:48Z</time></trkpt>
<trkpt lat="29.724689" lon="97.943196">
<time>2016-10-07T18:12:49Z</time></trkpt>
<trkpt lat="29.724829" lon="97.943256">
<time>2016-10-07T18:12:50Z</time></trkpt>
<trkpt lat="29.724979" lon="97.943316">
<time>2016-10-07T18:12:51Z</time></trkpt>
<trkpt lat="29.725099" lon="97.943366">
<time>2016-10-07T18:12:52Z</time></trkpt>
<trkpt lat="29.725179" lon="97.943405">
<time>2016-10-07T18:12:53Z</time></trkpt>
<trkpt lat="29.725289" lon="97.943445">
<time>2016-10-07T18:12:54Z</time></trkpt>
<trkpt lat="29.725328" lon="97.943475">
<time>2016-10-07T18:12:55Z</time></trkpt>
<trkpt lat="29.725358" lon="97.943495">
<time>2016-10-07T18:12:56Z</time></trkpt>
<trkpt lat="29.725388" lon="97.943515">
<time>2016-10-07T18:12:57Z</time></trkpt>
<trkpt lat="29.725408" lon="97.943535">
<time>2016-10-07T18:12:58Z</time></trkpt>
<trkpt lat="29.725428" lon="97.943555">
<time>2016-10-07T18:12:59Z</time></trkpt>
<trkpt lat="29.725438" lon="97.943575">
<time>2016-10-07T18:13:00Z</time></trkpt>
<trkpt lat="29.725438" lon="97.943595">
<time>2016-10-07T18:13:01Z</time></trkpt>
<trkpt lat="29.725448" lon="97.943615">
<time>2016-10-07T18:13:02Z</time></trkpt>
<trkpt lat="29.725448" lon="97.943645">
<time>2016-10-07T18:13:03Z</time></trkpt>
<trkpt lat="29.725438" lon="97.943685">
<time>2016-10-07T18:13:04Z</time></trkpt>
<trkpt lat="29.725428" lon="97.943715">
<time>2016-10-07T18:13:05Z</time></trkpt>
<trkpt lat="29.725408" lon="97.943735">
<time>2016-10-07T18:13:06Z</time></trkpt>
<trkpt lat="29.725378" lon="97.943755">
<time>2016-10-07T18:13:07Z</time></trkpt>
<trkpt lat="29.725348" lon="97.943765">
<time>2016-10-07T18:13:08Z</time></trkpt>
<trkpt lat="29.725318" lon="97.943775">
<time>2016-10-07T18:13:09Z</time></trkpt>
<trkpt lat="29.725278" lon="97.943765">
<time>2016-10-07T18:13:10Z</time></trkpt>
<trkpt lat="29.725248" lon="97.943755">
<time>2016-10-07T18:13:11Z</time></trkpt>
<trkpt lat="29.725218" lon="97.943735">
<time>2016-10-07T18:13:12Z</time></trkpt>
<trkpt lat="29.725188" lon="97.943715">
<time>2016-10-07T18:13:13Z</time></trkpt>
<trkpt lat="29.725098" lon="97.943645">
<time>2016-10-07T18:13:14Z</time></trkpt>
<trkpt lat="29.724978" lon="97.943565">
<time>2016-10-07T18:13:15Z</time></trkpt>
<trkpt lat="29.724878" lon="97.943505">
<time>2016-10-07T18:13:16Z</time></trkpt>
<trkpt lat="29.724639" lon="97.943405">
<time>2016-10-07T18:13:17Z</time></trkpt>
<trkpt lat="29.724449" lon="97.943326">
<time>2016-10-07T18:13:18Z</time></trkpt>
<trkpt lat="29.724109" lon="97.943196">
<time>2016-10-07T18:13:19Z</time></trkpt>
<trkpt lat="29.723799" lon="97.943086">
<time>2016-10-07T18:13:20Z</time></trkpt>
<trkpt lat="29.72362" lon="97.943026">
<time>2016-10-07T18:13:21Z</time></trkpt>
<trkpt lat="29.72347" lon="97.942996">
<time>2016-10-07T18:13:22Z</time></trkpt>
<trkpt lat="29.72298" lon="97.942866">
<time>2016-10-07T18:13:23Z</time></trkpt>
<trkpt lat="29.72265" lon="97.942767">
<time>2016-10-07T18:13:24Z</time></trkpt>
<trkpt lat="29.721501" lon="97.942367">
<time>2016-10-07T18:13:25Z</time></trkpt>
<trkpt lat="29.720942" lon="97.942178">
<time>2016-10-07T18:13:26Z</time></trkpt>
<trkpt lat="29.720382" lon="97.941998">
<time>2016-10-07T18:13:27Z</time></trkpt>
<trkpt lat="29.719872" lon="97.941818">
<time>2016-10-07T18:13:28Z</time></trkpt>
<trkpt lat="29.719662" lon="97.941749">
<time>2016-10-07T18:13:29Z</time></trkpt>
<trkpt lat="29.719363" lon="97.941619">
<time>2016-10-07T18:13:30Z</time></trkpt>
<trkpt lat="29.719233" lon="97.941569">
<time>2016-10-07T18:13:31Z</time></trkpt>
<trkpt lat="29.719073" lon="97.941489">
<time>2016-10-07T18:13:32Z</time></trkpt>
<trkpt lat="29.718743" lon="97.941339">
<time>2016-10-07T18:13:33Z</time></trkpt>
<trkpt lat="29.718074" lon="97.94101">
<time>2016-10-07T18:13:34Z</time></trkpt>
<trkpt lat="29.717834" lon="97.94089">
<time>2016-10-07T18:13:35Z</time></trkpt>
<trkpt lat="29.717784" lon="97.94087">
<time>2016-10-07T18:13:36Z</time></trkpt>
<trkpt lat="29.717734" lon="97.94084">
<time>2016-10-07T18:13:37Z</time></trkpt>
<trkpt lat="29.717655" lon="97.94078">
<time>2016-10-07T18:13:38Z</time></trkpt>
<trkpt lat="29.717605" lon="97.94074">
<time>2016-10-07T18:13:39Z</time></trkpt>
<trkpt lat="29.717555" lon="97.94071">
<time>2016-10-07T18:13:40Z</time></trkpt>
<trkpt lat="29.717505" lon="97.940661">
<time>2016-10-07T18:13:41Z</time></trkpt>
<trkpt lat="29.717465" lon="97.940631">
<time>2016-10-07T18:13:42Z</time></trkpt>
<trkpt lat="29.717415" lon="97.940571">
<time>2016-10-07T18:13:43Z</time></trkpt>
<trkpt lat="29.717375" lon="97.940521">
<time>2016-10-07T18:13:44Z</time></trkpt>
<trkpt lat="29.717175" lon="97.940281">
<time>2016-10-07T18:13:45Z</time></trkpt>
<trkpt lat="29.717046" lon="97.940131">
<time>2016-10-07T18:13:46Z</time></trkpt>
<trkpt lat="29.717006" lon="97.940082">
<time>2016-10-07T18:13:47Z</time></trkpt>
<trkpt lat="29.716986" lon="97.940062">
<time>2016-10-07T18:13:48Z</time></trkpt>
<trkpt lat="29.716966" lon="97.940042">
<time>2016-10-07T18:13:49Z</time></trkpt>
<trkpt lat="29.716936" lon="97.940022">
<time>2016-10-07T18:13:50Z</time></trkpt>
<trkpt lat="29.716916" lon="97.940002">
<time>2016-10-07T18:13:51Z</time></trkpt>
<trkpt lat="29.716886" lon="97.939992">
<time>2016-10-07T18:13:52Z</time></trkpt>
<trkpt lat="29.716866" lon="97.939982">
<time>2016-10-07T18:13:53Z</time></trkpt>
<trkpt lat="29.716846" lon="97.939982">
<time>2016-10-07T18:13:54Z</time></trkpt>
<trkpt lat="29.716836" lon="97.939982">
<time>2016-10-07T18:13:55Z</time></trkpt>
<trkpt lat="29.716816" lon="97.939972">
<time>2016-10-07T18:13:56Z</time></trkpt>
<trkpt lat="29.716806" lon="97.939972">
<time>2016-10-07T18:13:57Z</time></trkpt>
<trkpt lat="29.716796" lon="97.939972">
<time>2016-10-07T18:13:58Z</time></trkpt>
<trkpt lat="29.716776" lon="97.939982">
<time>2016-10-07T18:13:59Z</time></trkpt>
<trkpt lat="29.716766" lon="97.939982">
<time>2016-10-07T18:14:00Z</time></trkpt>
<trkpt lat="29.716756" lon="97.939982">
<time>2016-10-07T18:14:01Z</time></trkpt>
<trkpt lat="29.716736" lon="97.939992">
<time>2016-10-07T18:14:02Z</time></trkpt>
<trkpt lat="29.716726" lon="97.940002">
<time>2016-10-07T18:14:03Z</time></trkpt>
<trkpt lat="29.716706" lon="97.940012">
<time>2016-10-07T18:14:04Z</time></trkpt>
<trkpt lat="29.716696" lon="97.940022">
<time>2016-10-07T18:14:05Z</time></trkpt>
<trkpt lat="29.716686" lon="97.940032">
<time>2016-10-07T18:14:06Z</time></trkpt>
<trkpt lat="29.716676" lon="97.940052">
<time>2016-10-07T18:14:07Z</time></trkpt>
<trkpt lat="29.716666" lon="97.940072">
<time>2016-10-07T18:14:08Z</time></trkpt>
<trkpt lat="29.716666" lon="97.940082">
<time>2016-10-07T18:14:09Z</time></trkpt>
<trkpt lat="29.716656" lon="97.940101">
<time>2016-10-07T18:14:10Z</time></trkpt>
<trkpt lat="29.716646" lon="97.940121">
<time>2016-10-07T18:14:11Z</time></trkpt>
<trkpt lat="29.716646" lon="97.940141">
<time>2016-10-07T18:14:12Z</time></trkpt>
<trkpt lat="29.716646" lon="97.940161">
<time>2016-10-07T18:14:13Z</time></trkpt>
<trkpt lat="29.716646" lon="97.940181">
<time>2016-10-07T18:14:14Z</time></trkpt>
<trkpt lat="29.716646" lon="97.940201">
<time>2016-10-07T18:14:15Z</time></trkpt>
<trkpt lat="29.716646" lon="97.940221">
<time>2016-10-07T18:14:16Z</time></trkpt>
<trkpt lat="29.716656" lon="97.940241">
<time>2016-10-07T18:14:17Z</time></trkpt>
<trkpt lat="29.716666" lon="97.940271">
<time>2016-10-07T18:14:18Z</time></trkpt>
<trkpt lat="29.716666" lon="97.940291">
<time>2016-10-07T18:14:19Z</time></trkpt>
<trkpt lat="29.716685" lon="97.940311">
<time>2016-10-07T18:14:20Z</time></trkpt>
<trkpt lat="29.716705" lon="97.940351">
<time>2016-10-07T18:14:21Z</time></trkpt>
<trkpt lat="29.716745" lon="97.940391">
<time>2016-10-07T18:14:22Z</time></trkpt>
<trkpt lat="29.716805" lon="97.940441">
<time>2016-10-07T18:14:23Z</time></trkpt>
<trkpt lat="29.716925" lon="97.940531">
<time>2016-10-07T18:14:24Z</time></trkpt>
<trkpt lat="29.717005" lon="97.940581">
<time>2016-10-07T18:14:25Z</time></trkpt>
<trkpt lat="29.717125" lon="97.94068">
<time>2016-10-07T18:14:26Z</time></trkpt>
<trkpt lat="29.717205" lon="97.94076">
<time>2016-10-07T18:14:27Z</time></trkpt>
<trkpt lat="29.717304" lon="97.94088">
<time>2016-10-07T18:14:28Z</time></trkpt>
<trkpt lat="29.717374" lon="97.94096">
<time>2016-10-07T18:14:29Z</time></trkpt>
<trkpt lat="29.717424" lon="97.94103">
<time>2016-10-07T18:14:30Z</time></trkpt>
<trkpt lat="29.717464" lon="97.9411">
<time>2016-10-07T18:14:31Z</time></trkpt>
<trkpt lat="29.717514" lon="97.94117">
<time>2016-10-07T18:14:32Z</time></trkpt>
<trkpt lat="29.717544" lon="97.94123">
<time>2016-10-07T18:14:33Z</time></trkpt>
<trkpt lat="29.717574" lon="97.941269">
<time>2016-10-07T18:14:34Z</time></trkpt>
<trkpt lat="29.717623" lon="97.941389">
<time>2016-10-07T18:14:35Z</time></trkpt>
<trkpt lat="29.717673" lon="97.941499">
<time>2016-10-07T18:14:36Z</time></trkpt>
<trkpt lat="29.717713" lon="97.941579">
<time>2016-10-07T18:14:37Z</time></trkpt>
<trkpt lat="29.717753" lon="97.941629">
<time>2016-10-07T18:14:38Z</time></trkpt>
<trkpt lat="29.717783" lon="97.941669">
<time>2016-10-07T18:14:39Z</time></trkpt>
<trkpt lat="29.717823" lon="97.941709">
<time>2016-10-07T18:14:40Z</time></trkpt>
<trkpt lat="29.717873" lon="97.941749">
<time>2016-10-07T18:14:41Z</time></trkpt>
<trkpt lat="29.717953" lon="97.941798">
<time>2016-10-07T18:14:42Z</time></trkpt>
<trkpt lat="29.718063" lon="97.941868">
<time>2016-10-07T18:14:43Z</time></trkpt>
<trkpt lat="29.718113" lon="97.941888">
<time>2016-10-07T18:14:44Z</time></trkpt>
<trkpt lat="29.718302" lon="97.941998">
<time>2016-10-07T18:14:45Z</time></trkpt>
<trkpt lat="29.718392" lon="97.942068">
<time>2016-10-07T18:14:46Z</time></trkpt>
<trkpt lat="29.718432" lon="97.942108">
<time>2016-10-07T18:14:47Z</time></trkpt>
<trkpt lat="29.718452" lon="97.942128">
<time>2016-10-07T18:14:48Z</time></trkpt>
<trkpt lat="29.718472" lon="97.942158">
<time>2016-10-07T18:14:49Z</time></trkpt>
<trkpt lat="29.718492" lon="97.942188">
<time>2016-10-07T18:14:50Z</time></trkpt>
<trkpt lat="29.718502" lon="97.942208">
<time>2016-10-07T18:14:51Z</time></trkpt>
<trkpt lat="29.718512" lon="97.942248">
<time>2016-10-07T18:14:52Z</time></trkpt>
<trkpt lat="29.718522" lon="97.942288">
<time>2016-10-07T18:14:53Z</time></trkpt>
<trkpt lat="29.718532" lon="97.942318">
<time>2016-10-07T18:14:54Z</time></trkpt>
<trkpt lat="29.718532" lon="97.942357">
<time>2016-10-07T18:14:55Z</time></trkpt>
<trkpt lat="29.718532" lon="97.942407">
<time>2016-10-07T18:14:56Z</time></trkpt>
<trkpt lat="29.718531" lon="97.942467">
<time>2016-10-07T18:14:57Z</time></trkpt>
<trkpt lat="29.718521" lon="97.942537">
<time>2016-10-07T18:14:58Z</time></trkpt>
<trkpt lat="29.718511" lon="97.942567">
<time>2016-10-07T18:14:59Z</time></trkpt>
<trkpt lat="29.718511" lon="97.942597">
<time>2016-10-07T18:15:00Z</time></trkpt>
<trkpt lat="29.718501" lon="97.942627">
<time>2016-10-07T18:15:01Z</time></trkpt>
<trkpt lat="29.718491" lon="97.942637">
<time>2016-10-07T18:15:02Z</time></trkpt>
<trkpt lat="29.718481" lon="97.942677">
<time>2016-10-07T18:15:03Z</time></trkpt>
<trkpt lat="29.718461" lon="97.942697">
<time>2016-10-07T18:15:04Z</time></trkpt>
<trkpt lat="29.718451" lon="97.942717">
<time>2016-10-07T18:15:05Z</time></trkpt>
<trkpt lat="29.718431" lon="97.942727">
<time>2016-10-07T18:15:06Z</time></trkpt>
<trkpt lat="29.718401" lon="97.942747">
<time>2016-10-07T18:15:07Z</time></trkpt>
<trkpt lat="29.718361" lon="97.942767">
<time>2016-10-07T18:15:08Z</time></trkpt>
<trkpt lat="29.718331" lon="97.942767">
<time>2016-10-07T18:15:09Z</time></trkpt>
<trkpt lat="29.718301" lon="97.942767">
<time>2016-10-07T18:15:10Z</time></trkpt>
<trkpt lat="29.718251" lon="97.942757">
<time>2016-10-07T18:15:11Z</time></trkpt>
<trkpt lat="29.718131" lon="97.942717">
<time>2016-10-07T18:15:12Z</time></trkpt>
<trkpt lat="29.717921" lon="97.942657">
<time>2016-10-07T18:15:13Z</time></trkpt>
<trkpt lat="29.717731" lon="97.942597">
<time>2016-10-07T18:15:14Z</time></trkpt>
<trkpt lat="29.717631" lon="97.942557">
<time>2016-10-07T18:15:15Z</time></trkpt>
<trkpt lat="29.717551" lon="97.942537">
<time>2016-10-07T18:15:16Z</time></trkpt>
<trkpt lat="29.717452" lon="97.942487">
<time>2016-10-07T18:15:17Z</time></trkpt>
<trkpt lat="29.717362" lon="97.942437">
<time>2016-10-07T18:15:18Z</time></trkpt>
<trkpt lat="29.717192" lon="97.942318">
<time>2016-10-07T18:15:19Z</time></trkpt>
<trkpt lat="29.717012" lon="97.942188">
<time>2016-10-07T18:15:20Z</time></trkpt>
<trkpt lat="29.716753" lon="97.941998">
<time>2016-10-07T18:15:21Z</time></trkpt>
<trkpt lat="29.716653" lon="97.941918">
<time>2016-10-07T18:15:22Z</time></trkpt>
<trkpt lat="29.716583" lon="97.941858">
<time>2016-10-07T18:15:23Z</time></trkpt>
<trkpt lat="29.716323" lon="97.941639">
<time>2016-10-07T18:15:24Z</time></trkpt>
<trkpt lat="29.716204" lon="97.941509">
<time>2016-10-07T18:15:25Z</time></trkpt>
<trkpt lat="29.716134" lon="97.941439">
<time>2016-10-07T18:15:26Z</time></trkpt>
<trkpt lat="29.716034" lon="97.941359">
<time>2016-10-07T18:15:27Z</time></trkpt>
<trkpt lat="29.715944" lon="97.941299">
<time>2016-10-07T18:15:28Z</time></trkpt>
<trkpt lat="29.715834" lon="97.94123">
<time>2016-10-07T18:15:29Z</time></trkpt>
<trkpt lat="29.715754" lon="97.94118">
<time>2016-10-07T18:15:30Z</time></trkpt>
<trkpt lat="29.715694" lon="97.94113">
<time>2016-10-07T18:15:31Z</time></trkpt>
<trkpt lat="29.715624" lon="97.94109">
<time>2016-10-07T18:15:32Z</time></trkpt>
<trkpt lat="29.715574" lon="97.94104">
<time>2016-10-07T18:15:33Z</time></trkpt>
<trkpt lat="29.715485" lon="97.94096">
<time>2016-10-07T18:15:34Z</time></trkpt>
<trkpt lat="29.715415" lon="97.94088">
<time>2016-10-07T18:15:35Z</time></trkpt>
<trkpt lat="29.715345" lon="97.94079">
<time>2016-10-07T18:15:36Z</time></trkpt>
<trkpt lat="29.715275" lon="97.9407">
<time>2016-10-07T18:15:37Z</time></trkpt>
<trkpt lat="29.715195" lon="97.940561">
<time>2016-10-07T18:15:38Z</time></trkpt>
<trkpt lat="29.715145" lon="97.940501">
<time>2016-10-07T18:15:39Z</time></trkpt>
<trkpt lat="29.715106" lon="97.940441">
<time>2016-10-07T18:15:40Z</time></trkpt>
<trkpt lat="29.715066" lon="97.940401">
<time>2016-10-07T18:15:41Z</time></trkpt>
<trkpt lat="29.715016" lon="97.940361">
<time>2016-10-07T18:15:42Z</time></trkpt>
<trkpt lat="29.714956" lon="97.940311">
<time>2016-10-07T18:15:43Z</time></trkpt>
<trkpt lat="29.714896" lon="97.940271">
<time>2016-10-07T18:15:44Z</time></trkpt>
<trkpt lat="29.714816" lon="97.940221">
<time>2016-10-07T18:15:45Z</time></trkpt>
<trkpt lat="29.714756" lon="97.940171">
<time>2016-10-07T18:15:46Z</time></trkpt>
<trkpt lat="29.714716" lon="97.940131">
<time>2016-10-07T18:15:47Z</time></trkpt>
<trkpt lat="29.714676" lon="97.940092">
<time>2016-10-07T18:15:48Z</time></trkpt>
<trkpt lat="29.714616" lon="97.940022">
<time>2016-10-07T18:15:49Z</time></trkpt>
<trkpt lat="29.714557" lon="97.939932">
<time>2016-10-07T18:15:50Z</time></trkpt>
<trkpt lat="29.714377" lon="97.939662">
<time>2016-10-07T18:15:51Z</time></trkpt>
<trkpt lat="29.714207" lon="97.939413">
<time>2016-10-07T18:15:52Z</time></trkpt>
<trkpt lat="29.713988" lon="97.939073">
<time>2016-10-07T18:15:53Z</time></trkpt>
<trkpt lat="29.713898" lon="97.938943">
<time>2016-10-07T18:15:54Z</time></trkpt>
<trkpt lat="29.713739" lon="97.938684">
<time>2016-10-07T18:15:55Z</time></trkpt>
<trkpt lat="29.713639" lon="97.938544">
<time>2016-10-07T18:15:56Z</time></trkpt>
<trkpt lat="29.713559" lon="97.938424">
<time>2016-10-07T18:15:57Z</time></trkpt>
<trkpt lat="29.713489" lon="97.938344">
<time>2016-10-07T18:15:58Z</time></trkpt>
<trkpt lat="29.713409" lon="97.938265">
<time>2016-10-07T18:15:59Z</time></trkpt>
<trkpt lat="29.71333" lon="97.938185">
<time>2016-10-07T18:16:00Z</time></trkpt>
<trkpt lat="29.71324" lon="97.938105">
<time>2016-10-07T18:16:01Z</time></trkpt>
<trkpt lat="29.71309" lon="97.937985">
<time>2016-10-07T18:16:02Z</time></trkpt>
<trkpt lat="29.71295" lon="97.937855">
<time>2016-10-07T18:16:03Z</time></trkpt>
<trkpt lat="29.7128" lon="97.937715">
<time>2016-10-07T18:16:04Z</time></trkpt>
<trkpt lat="29.712661" lon="97.937586">
<time>2016-10-07T18:16:05Z</time></trkpt>
<trkpt lat="29.712401" lon="97.937326">
<time>2016-10-07T18:16:06Z</time></trkpt>
<trkpt lat="29.712301" lon="97.937236">
<time>2016-10-07T18:16:07Z</time></trkpt>
<trkpt lat="29.712251" lon="97.937196">
<time>2016-10-07T18:16:08Z</time></trkpt>
<trkpt lat="29.712181" lon="97.937136">
<time>2016-10-07T18:16:09Z</time></trkpt>
<trkpt lat="29.712112" lon="97.937096">
<time>2016-10-07T18:16:10Z</time></trkpt>
<trkpt lat="29.712042" lon="97.937047">
<time>2016-10-07T18:16:11Z</time></trkpt>
<trkpt lat="29.711992" lon="97.937017">
<time>2016-10-07T18:16:12Z</time></trkpt>
<trkpt lat="29.711942" lon="97.936987">
<time>2016-10-07T18:16:13Z</time></trkpt>
<trkpt lat="29.711902" lon="97.936957">
<time>2016-10-07T18:16:14Z</time></trkpt>
<trkpt lat="29.711872" lon="97.936937">
<time>2016-10-07T18:16:15Z</time></trkpt>
<trkpt lat="29.711792" lon="97.936877">
<time>2016-10-07T18:16:16Z</time></trkpt>
<trkpt lat="29.711742" lon="97.936817">
<time>2016-10-07T18:16:17Z</time></trkpt>
<trkpt lat="29.711582" lon="97.936667">
<time>2016-10-07T18:16:18Z</time></trkpt>
<trkpt lat="29.711512" lon="97.936597">
<time>2016-10-07T18:16:19Z</time></trkpt>
<trkpt lat="29.711423" lon="97.936517">
<time>2016-10-07T18:16:20Z</time></trkpt>
<trkpt lat="29.711303" lon="97.936438">
<time>2016-10-07T18:16:21Z</time></trkpt>
<trkpt lat="29.711193" lon="97.936358">
<time>2016-10-07T18:16:22Z</time></trkpt>
<trkpt lat="29.710893" lon="97.936148">
<time>2016-10-07T18:16:23Z</time></trkpt>
<trkpt lat="29.710713" lon="97.936028">
<time>2016-10-07T18:16:24Z</time></trkpt>
<trkpt lat="29.710534" lon="97.935898">
<time>2016-10-07T18:16:25Z</time></trkpt>
<trkpt lat="29.710464" lon="97.935858">
<time>2016-10-07T18:16:26Z</time></trkpt>
<trkpt lat="29.710404" lon="97.935818">
<time>2016-10-07T18:16:27Z</time></trkpt>
<trkpt lat="29.710304" lon="97.935759">
<time>2016-10-07T18:16:28Z</time></trkpt>
<trkpt lat="29.710224" lon="97.935719">
<time>2016-10-07T18:16:29Z</time></trkpt>
<trkpt lat="29.710164" lon="97.935689">
<time>2016-10-07T18:16:30Z</time></trkpt>
<trkpt lat="29.710094" lon="97.935669">
<time>2016-10-07T18:16:31Z</time></trkpt>
<trkpt lat="29.710044" lon="97.935649">
<time>2016-10-07T18:16:32Z</time></trkpt>
<trkpt lat="29.709994" lon="97.935629">
<time>2016-10-07T18:16:33Z</time></trkpt>
<trkpt lat="29.709954" lon="97.935619">
<time>2016-10-07T18:16:34Z</time></trkpt>
<trkpt lat="29.709904" lon="97.935609">
<time>2016-10-07T18:16:35Z</time></trkpt>
<trkpt lat="29.709794" lon="97.935589">
<time>2016-10-07T18:16:36Z</time></trkpt>
<trkpt lat="29.709624" lon="97.935569">
<time>2016-10-07T18:16:37Z</time></trkpt>
<trkpt lat="29.709364" lon="97.935529">
<time>2016-10-07T18:16:38Z</time></trkpt>
<trkpt lat="29.709075" lon="97.935489">
<time>2016-10-07T18:16:39Z</time></trkpt>
<trkpt lat="29.708895" lon="97.935459">
<time>2016-10-07T18:16:40Z</time></trkpt>
<trkpt lat="29.708705" lon="97.935439">
<time>2016-10-07T18:16:41Z</time></trkpt>
<trkpt lat="29.708625" lon="97.935429">
<time>2016-10-07T18:16:42Z</time></trkpt>
<trkpt lat="29.708535" lon="97.935409">
<time>2016-10-07T18:16:43Z</time></trkpt>
<trkpt lat="29.708465" lon="97.935399">
<time>2016-10-07T18:16:44Z</time></trkpt>
<trkpt lat="29.708395" lon="97.935389">
<time>2016-10-07T18:16:45Z</time></trkpt>
<trkpt lat="29.708315" lon="97.935379">
<time>2016-10-07T18:16:46Z</time></trkpt>
<trkpt lat="29.708245" lon="97.935369">
<time>2016-10-07T18:16:47Z</time></trkpt>
<trkpt lat="29.708195" lon="97.935369">
<time>2016-10-07T18:16:48Z</time></trkpt>
<trkpt lat="29.708155" lon="97.935359">
<time>2016-10-07T18:16:49Z</time></trkpt>
<trkpt lat="29.708085" lon="97.935369">
<time>2016-10-07T18:16:50Z</time></trkpt>
<trkpt lat="29.708005" lon="97.935369">
<time>2016-10-07T18:16:51Z</time></trkpt>
<trkpt lat="29.707905" lon="97.935389">
<time>2016-10-07T18:16:52Z</time></trkpt>
<trkpt lat="29.707785" lon="97.935419">
<time>2016-10-07T18:16:53Z</time></trkpt>
<trkpt lat="29.707705" lon="97.935429">
<time>2016-10-07T18:16:54Z</time></trkpt>
<trkpt lat="29.707645" lon="97.935459">
<time>2016-10-07T18:16:55Z</time></trkpt>
<trkpt lat="29.707605" lon="97.935469">
<time>2016-10-07T18:16:56Z</time></trkpt>
<trkpt lat="29.707575" lon="97.935469">
<time>2016-10-07T18:16:57Z</time></trkpt>
<trkpt lat="29.707555" lon="97.935479">
<time>2016-10-07T18:16:58Z</time></trkpt>
<trkpt lat="29.707535" lon="97.935479">
<time>2016-10-07T18:16:59Z</time></trkpt>
<trkpt lat="29.707525" lon="97.935469">
<time>2016-10-07T18:17:00Z</time></trkpt>
<trkpt lat="29.707505" lon="97.935469">
<time>2016-10-07T18:17:01Z</time></trkpt>
<trkpt lat="29.707485" lon="97.935459">
<time>2016-10-07T18:17:02Z</time></trkpt>
<trkpt lat="29.707475" lon="97.935459">
<time>2016-10-07T18:17:03Z</time></trkpt>
<trkpt lat="29.707455" lon="97.935439">
<time>2016-10-07T18:17:04Z</time></trkpt>
<trkpt lat="29.707445" lon="97.935429">
<time>2016-10-07T18:17:05Z</time></trkpt>
<trkpt lat="29.707435" lon="97.935419">
<time>2016-10-07T18:17:06Z</time></trkpt>
<trkpt lat="29.707435" lon="97.935409">
<time>2016-10-07T18:17:07Z</time></trkpt>
<trkpt lat="29.707425" lon="97.935389">
<time>2016-10-07T18:17:08Z</time></trkpt>
<trkpt lat="29.707415" lon="97.935369">
<time>2016-10-07T18:17:09Z</time></trkpt>
<trkpt lat="29.707415" lon="97.935349">
<time>2016-10-07T18:17:10Z</time></trkpt>
<trkpt lat="29.707415" lon="97.935329">
<time>2016-10-07T18:17:11Z</time></trkpt>
<trkpt lat="29.707415" lon="97.935319">
<time>2016-10-07T18:17:12Z</time></trkpt>
<trkpt lat="29.707415" lon="97.935299">
<time>2016-10-07T18:17:13Z</time></trkpt>
<trkpt lat="29.707425" lon="97.935279">
<time>2016-10-07T18:17:14Z</time></trkpt>
<trkpt lat="29.707445" lon="97.935259">
<time>2016-10-07T18:17:15Z</time></trkpt>
<trkpt lat="29.707455" lon="97.935239">
<time>2016-10-07T18:17:16Z</time></trkpt>
<trkpt lat="29.707475" lon="97.935219">
<time>2016-10-07T18:17:17Z</time></trkpt>
<trkpt lat="29.707505" lon="97.935199">
<time>2016-10-07T18:17:18Z</time></trkpt>
<trkpt lat="29.707525" lon="97.935189">
<time>2016-10-07T18:17:19Z</time></trkpt>
<trkpt lat="29.707575" lon="97.935179">
<time>2016-10-07T18:17:20Z</time></trkpt>
<trkpt lat="29.707695" lon="97.935159">
<time>2016-10-07T18:17:21Z</time></trkpt>
<trkpt lat="29.707915" lon="97.93513">
<time>2016-10-07T18:17:22Z</time></trkpt>
<trkpt lat="29.708005" lon="97.93512">
<time>2016-10-07T18:17:23Z</time></trkpt>
<trkpt lat="29.708105" lon="97.93512">
<time>2016-10-07T18:17:24Z</time></trkpt>
<trkpt lat="29.708245" lon="97.93512">
<time>2016-10-07T18:17:25Z</time></trkpt>
<trkpt lat="29.708315" lon="97.93512">
<time>2016-10-07T18:17:26Z</time></trkpt>
<trkpt lat="29.708415" lon="97.93512">
<time>2016-10-07T18:17:27Z</time></trkpt>
<trkpt lat="29.708465" lon="97.93511">
<time>2016-10-07T18:17:28Z</time></trkpt>
<trkpt lat="29.708565" lon="97.93509">
<time>2016-10-07T18:17:29Z</time></trkpt>
<trkpt lat="29.708885" lon="97.93501">
<time>2016-10-07T18:17:30Z</time></trkpt>
<trkpt lat="29.708965" lon="97.93499">
<time>2016-10-07T18:17:31Z</time></trkpt>
<trkpt lat="29.709055" lon="97.93497">
<time>2016-10-07T18:17:32Z</time></trkpt>
<trkpt lat="29.709115" lon="97.93496">
<time>2016-10-07T18:17:33Z</time></trkpt>
<trkpt lat="29.709175" lon="97.93495">
<time>2016-10-07T18:17:34Z</time></trkpt>
<trkpt lat="29.709285" lon="97.93494">
<time>2016-10-07T18:17:35Z</time></trkpt>
<trkpt lat="29.709405" lon="97.93494">
<time>2016-10-07T18:17:36Z</time></trkpt>
<trkpt lat="29.709545" lon="97.93494">
<time>2016-10-07T18:17:37Z</time></trkpt>
<trkpt lat="29.709755" lon="97.93493">
<time>2016-10-07T18:17:38Z</time></trkpt>
<trkpt lat="29.709855" lon="97.93493">
<time>2016-10-07T18:17:39Z</time></trkpt>
<trkpt lat="29.709915" lon="97.93493">
<time>2016-10-07T18:17:40Z</time></trkpt>
<trkpt lat="29.709965" lon="97.93492">
<time>2016-10-07T18:17:41Z</time></trkpt>
<trkpt lat="29.710005" lon="97.93491">
<time>2016-10-07T18:17:42Z</time></trkpt>
<trkpt lat="29.710035" lon="97.9349">
<time>2016-10-07T18:17:43Z</time></trkpt>
<trkpt lat="29.710055" lon="97.93489">
<time>2016-10-07T18:17:44Z</time></trkpt>
<trkpt lat="29.710075" lon="97.93488">
<time>2016-10-07T18:17:45Z</time></trkpt>
<trkpt lat="29.710085" lon="97.93486">
<time>2016-10-07T18:17:46Z</time></trkpt>
<trkpt lat="29.710105" lon="97.93484">
<time>2016-10-07T18:17:47Z</time></trkpt>
<trkpt lat="29.710115" lon="97.93482">
<time>2016-10-07T18:17:48Z</time></trkpt>
<trkpt lat="29.710115" lon="97.93479">
<time>2016-10-07T18:17:49Z</time></trkpt>
<trkpt lat="29.710115" lon="97.93476">
<time>2016-10-07T18:17:50Z</time></trkpt>
<trkpt lat="29.710116" lon="97.93474">
<time>2016-10-07T18:17:51Z</time></trkpt>
<trkpt lat="29.710106" lon="97.93471">
<time>2016-10-07T18:17:52Z</time></trkpt>
<trkpt lat="29.710096" lon="97.93468">
<time>2016-10-07T18:17:53Z</time></trkpt>
<trkpt lat="29.710066" lon="97.93466">
<time>2016-10-07T18:17:54Z</time></trkpt>
<trkpt lat="29.710046" lon="97.93464">
<time>2016-10-07T18:17:55Z</time></trkpt>
<trkpt lat="29.710026" lon="97.93463">
<time>2016-10-07T18:17:56Z</time></trkpt>
<trkpt lat="29.709996" lon="97.93462">
<time>2016-10-07T18:17:57Z</time></trkpt>
<trkpt lat="29.709976" lon="97.93462">
<time>2016-10-07T18:17:58Z</time></trkpt>
<trkpt lat="29.709876" lon="97.93461">
<time>2016-10-07T18:17:59Z</time></trkpt>
<trkpt lat="29.709486" lon="97.93461">
<time>2016-10-07T18:18:00Z</time></trkpt>
<trkpt lat="29.709236" lon="97.9346">
<time>2016-10-07T18:18:01Z</time></trkpt>
<trkpt lat="29.708936" lon="97.93457">
<time>2016-10-07T18:18:02Z</time></trkpt>
<trkpt lat="29.708716" lon="97.93455">
<time>2016-10-07T18:18:03Z</time></trkpt>
<trkpt lat="29.708706" lon="97.93455">
<time>2016-10-07T18:18:04Z</time></trkpt>
<trkpt lat="29.708656" lon="97.93455">
<time>2016-10-07T18:18:05Z</time></trkpt>
<trkpt lat="29.708556" lon="97.93454">
<time>2016-10-07T18:18:06Z</time></trkpt>
<trkpt lat="29.708386" lon="97.93454">
<time>2016-10-07T18:18:07Z</time></trkpt>
<trkpt lat="29.708286" lon="97.93453">
<time>2016-10-07T18:18:08Z</time></trkpt>
<trkpt lat="29.708146" lon="97.93454">
<time>2016-10-07T18:18:09Z</time></trkpt>
<trkpt lat="29.707986" lon="97.93455">
<time>2016-10-07T18:18:10Z</time></trkpt>
<trkpt lat="29.707706" lon="97.93459">
<time>2016-10-07T18:18:11Z</time></trkpt>
<trkpt lat="29.707416" lon="97.93463">
<time>2016-10-07T18:18:12Z</time></trkpt>
<trkpt lat="29.707196" lon="97.93466">
<time>2016-10-07T18:18:13Z</time></trkpt>
<trkpt lat="29.706886" lon="97.9347">
<time>2016-10-07T18:18:14Z</time></trkpt>
<trkpt lat="29.706676" lon="97.93473">
<time>2016-10-07T18:18:15Z</time></trkpt>
<trkpt lat="29.706486" lon="97.93477">
<time>2016-10-07T18:18:16Z</time></trkpt>
<trkpt lat="29.706266" lon="97.93482">
<time>2016-10-07T18:18:17Z</time></trkpt>
<trkpt lat="29.706166" lon="97.93484">
<time>2016-10-07T18:18:18Z</time></trkpt>
<trkpt lat="29.705926" lon="97.93491">
<time>2016-10-07T18:18:19Z</time></trkpt>
<trkpt lat="29.705586" lon="97.93502">
<time>2016-10-07T18:18:20Z</time></trkpt>
<trkpt lat="29.705366" lon="97.9351">
<time>2016-10-07T18:18:21Z</time></trkpt>
<trkpt lat="29.704896" lon="97.935289">
<time>2016-10-07T18:18:22Z</time></trkpt>
<trkpt lat="29.704676" lon="97.935379">
<time>2016-10-07T18:18:23Z</time></trkpt>
<trkpt lat="29.704535" lon="97.935429">
<time>2016-10-07T18:18:24Z</time></trkpt>
<trkpt lat="29.704415" lon="97.935479">
<time>2016-10-07T18:18:25Z</time></trkpt>
<trkpt lat="29.704285" lon="97.935529">
<time>2016-10-07T18:18:26Z</time></trkpt>
<trkpt lat="29.704205" lon="97.935549">
<time>2016-10-07T18:18:27Z</time></trkpt>
<trkpt lat="29.704115" lon="97.935569">
<time>2016-10-07T18:18:28Z</time></trkpt>
<trkpt lat="29.704035" lon="97.935589">
<time>2016-10-07T18:18:29Z</time></trkpt>
<trkpt lat="29.703955" lon="97.935599">
<time>2016-10-07T18:18:30Z</time></trkpt>
<trkpt lat="29.703835" lon="97.935619">
<time>2016-10-07T18:18:31Z</time></trkpt>
<trkpt lat="29.703755" lon="97.935619">
<time>2016-10-07T18:18:32Z</time></trkpt>
<trkpt lat="29.703445" lon="97.935619">
<time>2016-10-07T18:18:33Z</time></trkpt>
<trkpt lat="29.703325" lon="97.935629">
<time>2016-10-07T18:18:34Z</time></trkpt>
<trkpt lat="29.703155" lon="97.935619">
<time>2016-10-07T18:18:35Z</time></trkpt>
<trkpt lat="29.702866" lon="97.935589">
<time>2016-10-07T18:18:36Z</time></trkpt>
<trkpt lat="29.702576" lon="97.935549">
<time>2016-10-07T18:18:37Z</time></trkpt>
<trkpt lat="29.702356" lon="97.935509">
<time>2016-10-07T18:18:38Z</time></trkpt>
<trkpt lat="29.702106" lon="97.935479">
<time>2016-10-07T18:18:39Z</time></trkpt>
<trkpt lat="29.701906" lon="97.935449">
<time>2016-10-07T18:18:40Z</time></trkpt>
<trkpt lat="29.701816" lon="97.935429">
<time>2016-10-07T18:18:41Z</time></trkpt>
<trkpt lat="29.701726" lon="97.935419">
<time>2016-10-07T18:18:42Z</time></trkpt>
<trkpt lat="29.701616" lon="97.935419">
<time>2016-10-07T18:18:43Z</time></trkpt>
<trkpt lat="29.701486" lon="97.935409">
<time>2016-10-07T18:18:44Z</time></trkpt>
<trkpt lat="29.701336" lon="97.935409">
<time>2016-10-07T18:18:45Z</time></trkpt>
<trkpt lat="29.701206" lon="97.935419">
<time>2016-10-07T18:18:46Z</time></trkpt>
<trkpt lat="29.700876" lon="97.935439">
<time>2016-10-07T18:18:47Z</time></trkpt>
<trkpt lat="29.700536" lon="97.935469">
<time>2016-10-07T18:18:48Z</time></trkpt>
<trkpt lat="29.700266" lon="97.935499">
<time>2016-10-07T18:18:49Z</time></trkpt>
<trkpt lat="29.700176" lon="97.935499">
<time>2016-10-07T18:18:50Z</time></trkpt>
<trkpt lat="29.700056" lon="97.935519">
<time>2016-10-07T18:18:51Z</time></trkpt>
<trkpt lat="29.699986" lon="97.935519">
<time>2016-10-07T18:18:52Z</time></trkpt>
<trkpt lat="29.699906" lon="97.935539">
<time>2016-10-07T18:18:53Z</time></trkpt>
<trkpt lat="29.699816" lon="97.935559">
<time>2016-10-07T18:18:54Z</time></trkpt>
<trkpt lat="29.699746" lon="97.935579">
<time>2016-10-07T18:18:55Z</time></trkpt>
<trkpt lat="29.699626" lon="97.935619">
<time>2016-10-07T18:18:56Z</time></trkpt>
<trkpt lat="29.699496" lon="97.935659">
<time>2016-10-07T18:18:57Z</time></trkpt>
<trkpt lat="29.699396" lon="97.935709">
<time>2016-10-07T18:18:58Z</time></trkpt>
<trkpt lat="29.699346" lon="97.935719">
<time>2016-10-07T18:18:59Z</time></trkpt>
<trkpt lat="29.699306" lon="97.935729">
<time>2016-10-07T18:19:00Z</time></trkpt>
<trkpt lat="29.699266" lon="97.935749">
<time>2016-10-07T18:19:01Z</time></trkpt>
<trkpt lat="29.699206" lon="97.935759">
<time>2016-10-07T18:19:02Z</time></trkpt>
<trkpt lat="29.699156" lon="97.935769">
<time>2016-10-07T18:19:03Z</time></trkpt>
<trkpt lat="29.699076" lon="97.935769">
<time>2016-10-07T18:19:04Z</time></trkpt>
<trkpt lat="29.698976" lon="97.935769">
<time>2016-10-07T18:19:05Z</time></trkpt>
<trkpt lat="29.698896" lon="97.935769">
<time>2016-10-07T18:19:06Z</time></trkpt>
<trkpt lat="29.698666" lon="97.935749">
<time>2016-10-07T18:19:07Z</time></trkpt>
<trkpt lat="29.698486" lon="97.935729">
<time>2016-10-07T18:19:08Z</time></trkpt>
<trkpt lat="29.698356" lon="97.935729">
<time>2016-10-07T18:19:09Z</time></trkpt>
<trkpt lat="29.698256" lon="97.935729">
<time>2016-10-07T18:19:10Z</time></trkpt>
<trkpt lat="29.698166" lon="97.935739">
<time>2016-10-07T18:19:11Z</time></trkpt>
<trkpt lat="29.698086" lon="97.935749">
<time>2016-10-07T18:19:12Z</time></trkpt>
<trkpt lat="29.697906" lon="97.935789">
<time>2016-10-07T18:19:13Z</time></trkpt>
<trkpt lat="29.697786" lon="97.935809">
<time>2016-10-07T18:19:14Z</time></trkpt>
<trkpt lat="29.697706" lon="97.935819">
<time>2016-10-07T18:19:15Z</time></trkpt>
<trkpt lat="29.697626" lon="97.935829">
<time>2016-10-07T18:19:16Z</time></trkpt>
<trkpt lat="29.697576" lon="97.935829">
<time>2016-10-07T18:19:17Z</time></trkpt>
<trkpt lat="29.697506" lon="97.935819">
<time>2016-10-07T18:19:18Z</time></trkpt>
<trkpt lat="29.697436" lon="97.935809">
<time>2016-10-07T18:19:19Z</time></trkpt>
<trkpt lat="29.697286" lon="97.935759">
<time>2016-10-07T18:19:20Z</time></trkpt>
<trkpt lat="29.696807" lon="97.935599">
<time>2016-10-07T18:19:21Z</time></trkpt>
<trkpt lat="29.696617" lon="97.935539">
<time>2016-10-07T18:19:22Z</time></trkpt>
<trkpt lat="29.696467" lon="97.935489">
<time>2016-10-07T18:19:23Z</time></trkpt>
<trkpt lat="29.696327" lon="97.935449">
<time>2016-10-07T18:19:24Z</time></trkpt>
<trkpt lat="29.696227" lon="97.935419">
<time>2016-10-07T18:19:25Z</time></trkpt>
<trkpt lat="29.696137" lon="97.935399">
<time>2016-10-07T18:19:26Z</time></trkpt>
<trkpt lat="29.696057" lon="97.935389">
<time>2016-10-07T18:19:27Z</time></trkpt>
<trkpt lat="29.695947" lon="97.935379">
<time>2016-10-07T18:19:28Z</time></trkpt>
<trkpt lat="29.695837" lon="97.935379">
<time>2016-10-07T18:19:29Z</time></trkpt>
<trkpt lat="29.695647" lon="97.935389">
<time>2016-10-07T18:19:30Z</time></trkpt>
<trkpt lat="29.695357" lon="97.935419">
<time>2016-10-07T18:19:31Z</time></trkpt>
<trkpt lat="29.695077" lon="97.935449">
<time>2016-10-07T18:19:32Z</time></trkpt>
<trkpt lat="29.694737" lon="97.935479">
<time>2016-10-07T18:19:33Z</time></trkpt>
<trkpt lat="29.694597" lon="97.935489">
<time>2016-10-07T18:19:34Z</time></trkpt>
<trkpt lat="29.694477" lon="97.935509">
<time>2016-10-07T18:19:35Z</time></trkpt>
<trkpt lat="29.694317" lon="97.935539">
<time>2016-10-07T18:19:36Z</time></trkpt>
<trkpt lat="29.694197" lon="97.935559">
<time>2016-10-07T18:19:37Z</time></trkpt>
<trkpt lat="29.694127" lon="97.935579">
<time>2016-10-07T18:19:38Z</time></trkpt>
<trkpt lat="29.694007" lon="97.935609">
<time>2016-10-07T18:19:39Z</time></trkpt>
<trkpt lat="29.693927" lon="97.935639">
<time>2016-10-07T18:19:40Z</time></trkpt>
<trkpt lat="29.693847" lon="97.935669">
<time>2016-10-07T18:19:41Z</time></trkpt>
<trkpt lat="29.693677" lon="97.935729">
<time>2016-10-07T18:19:42Z</time></trkpt>
<trkpt lat="29.693477" lon="97.935819">
<time>2016-10-07T18:19:43Z</time></trkpt>
<trkpt lat="29.693257" lon="97.935909">
<time>2016-10-07T18:19:44Z</time></trkpt>
<trkpt lat="29.693167" lon="97.935949">
<time>2016-10-07T18:19:45Z</time></trkpt>
<trkpt lat="29.692997" lon="97.936018">
<time>2016-10-07T18:19:46Z</time></trkpt>
<trkpt lat="29.692747" lon="97.936118">
<time>2016-10-07T18:19:47Z</time></trkpt>
<trkpt lat="29.692477" lon="97.936228">
<time>2016-10-07T18:19:48Z</time></trkpt>
<trkpt lat="29.692336" lon="97.936288">
<time>2016-10-07T18:19:49Z</time></trkpt>
<trkpt lat="29.692156" lon="97.936368">
<time>2016-10-07T18:19:50Z</time></trkpt>
<trkpt lat="29.692026" lon="97.936408">
<time>2016-10-07T18:19:51Z</time></trkpt>
<trkpt lat="29.691856" lon="97.936458">
<time>2016-10-07T18:19:52Z</time></trkpt>
<trkpt lat="29.691796" lon="97.936478">
<time>2016-10-07T18:19:53Z</time></trkpt>
<trkpt lat="29.691696" lon="97.936488">
<time>2016-10-07T18:19:54Z</time></trkpt>
<trkpt lat="29.691566" lon="97.936508">
<time>2016-10-07T18:19:55Z</time></trkpt>
<trkpt lat="29.691446" lon="97.936518">
<time>2016-10-07T18:19:56Z</time></trkpt>
<trkpt lat="29.691346" lon="97.936528">
<time>2016-10-07T18:19:57Z</time></trkpt>
<trkpt lat="29.691176" lon="97.936548">
<time>2016-10-07T18:19:58Z</time></trkpt>
<trkpt lat="29.690946" lon="97.936568">
<time>2016-10-07T18:19:59Z</time></trkpt>
<trkpt lat="29.690806" lon="97.936578">
<time>2016-10-07T18:20:00Z</time></trkpt>
<trkpt lat="29.690656" lon="97.936578">
<time>2016-10-07T18:20:01Z</time></trkpt>
<trkpt lat="29.690516" lon="97.936568">
<time>2016-10-07T18:20:02Z</time></trkpt>
<trkpt lat="29.690316" lon="97.936558">
<time>2016-10-07T18:20:03Z</time></trkpt>
<trkpt lat="29.690206" lon="97.936548">
<time>2016-10-07T18:20:04Z</time></trkpt>
<trkpt lat="29.690067" lon="97.936548">
<time>2016-10-07T18:20:05Z</time></trkpt>
<trkpt lat="29.689967" lon="97.936538">
<time>2016-10-07T18:20:06Z</time></trkpt>
<trkpt lat="29.689817" lon="97.936508">
<time>2016-10-07T18:20:07Z</time></trkpt>
<trkpt lat="29.689607" lon="97.936478">
<time>2016-10-07T18:20:08Z</time></trkpt>
<trkpt lat="29.689477" lon="97.936468">
<time>2016-10-07T18:20:09Z</time></trkpt>
<trkpt lat="29.689347" lon="97.936448">
<time>2016-10-07T18:20:10Z</time></trkpt>
<trkpt lat="29.689177" lon="97.936428">
<time>2016-10-07T18:20:11Z</time></trkpt>
<trkpt lat="29.689097" lon="97.936418">
<time>2016-10-07T18:20:12Z</time></trkpt>
<trkpt lat="29.689007" lon="97.936408">
<time>2016-10-07T18:20:13Z</time></trkpt>
<trkpt lat="29.688907" lon="97.936368">
<time>2016-10-07T18:20:14Z</time></trkpt>
<trkpt lat="29.688797" lon="97.936338">
<time>2016-10-07T18:20:15Z</time></trkpt>
<trkpt lat="29.688697" lon="97.936288">
<time>2016-10-07T18:20:16Z</time></trkpt>
<trkpt lat="29.688487" lon="97.936188">
<time>2016-10-07T18:20:17Z</time></trkpt>
<trkpt lat="29.688308" lon="97.936108">
<time>2016-10-07T18:20:18Z</time></trkpt>
<trkpt lat="29.688168" lon="97.936048">
<time>2016-10-07T18:20:19Z</time></trkpt>
<trkpt lat="29.687998" lon="97.935989">
<time>2016-10-07T18:20:20Z</time></trkpt>
<trkpt lat="29.687858" lon="97.935959">
<time>2016-10-07T18:20:21Z</time></trkpt>
<trkpt lat="29.687728" lon="97.935919">
<time>2016-10-07T18:20:22Z</time></trkpt>
<trkpt lat="29.687588" lon="97.935889">
<time>2016-10-07T18:20:23Z</time></trkpt>
<trkpt lat="29.687438" lon="97.935869">
<time>2016-10-07T18:20:24Z</time></trkpt>
<trkpt lat="29.687278" lon="97.935849">
<time>2016-10-07T18:20:25Z</time></trkpt>
<trkpt lat="29.687168" lon="97.935809">
<time>2016-10-07T18:20:26Z</time></trkpt>
<trkpt lat="29.687068" lon="97.935779">
<time>2016-10-07T18:20:27Z</time></trkpt>
<trkpt lat="29.686958" lon="97.935739">
<time>2016-10-07T18:20:28Z</time></trkpt>
<trkpt lat="29.686878" lon="97.935689">
<time>2016-10-07T18:20:29Z</time></trkpt>
<trkpt lat="29.686819" lon="97.935649">
<time>2016-10-07T18:20:30Z</time></trkpt>
<trkpt lat="29.686729" lon="97.935579">
<time>2016-10-07T18:20:31Z</time></trkpt>
<trkpt lat="29.686629" lon="97.935479">
<time>2016-10-07T18:20:32Z</time></trkpt>
<trkpt lat="29.686429" lon="97.93527">
<time>2016-10-07T18:20:33Z</time></trkpt>
<trkpt lat="29.68624" lon="97.93509">
<time>2016-10-07T18:20:34Z</time></trkpt>
<trkpt lat="29.68614" lon="97.93498">
<time>2016-10-07T18:20:35Z</time></trkpt>
<trkpt lat="29.68605" lon="97.93488">
<time>2016-10-07T18:20:36Z</time></trkpt>
<trkpt lat="29.68594" lon="97.93478">
<time>2016-10-07T18:20:37Z</time></trkpt>
<trkpt lat="29.68581" lon="97.934661">
<time>2016-10-07T18:20:38Z</time></trkpt>
<trkpt lat="29.685591" lon="97.934431">
<time>2016-10-07T18:20:39Z</time></trkpt>
<trkpt lat="29.685281" lon="97.934111">
<time>2016-10-07T18:20:40Z</time></trkpt>
<trkpt lat="29.685171" lon="97.933992">
<time>2016-10-07T18:20:41Z</time></trkpt>
<trkpt lat="29.684952" lon="97.933752">
<time>2016-10-07T18:20:42Z</time></trkpt>
<trkpt lat="29.684622" lon="97.933342">
<time>2016-10-07T18:20:43Z</time></trkpt>
<trkpt lat="29.684353" lon="97.932993">
<time>2016-10-07T18:20:44Z</time></trkpt>
<trkpt lat="29.684063" lon="97.932623">
<time>2016-10-07T18:20:45Z</time></trkpt>
<trkpt lat="29.683824" lon="97.932304">
<time>2016-10-07T18:20:46Z</time></trkpt>
<trkpt lat="29.683764" lon="97.932224">
<time>2016-10-07T18:20:47Z</time></trkpt>
<trkpt lat="29.683714" lon="97.932164">
<time>2016-10-07T18:20:48Z</time></trkpt>
<trkpt lat="29.683674" lon="97.932124">
<time>2016-10-07T18:20:49Z</time></trkpt>
<trkpt lat="29.683644" lon="97.932104">
<time>2016-10-07T18:20:50Z</time></trkpt>
<trkpt lat="29.683614" lon="97.932084">
<time>2016-10-07T18:20:51Z</time></trkpt>
<trkpt lat="29.683564" lon="97.932054">
<time>2016-10-07T18:20:52Z</time></trkpt>
<trkpt lat="29.683514" lon="97.932034">
<time>2016-10-07T18:20:53Z</time></trkpt>
<trkpt lat="29.683474" lon="97.932024">
<time>2016-10-07T18:20:54Z</time></trkpt>
<trkpt lat="29.683444" lon="97.932004">
<time>2016-10-07T18:20:55Z</time></trkpt>
<trkpt lat="29.683394" lon="97.931994">
<time>2016-10-07T18:20:56Z</time></trkpt>
<trkpt lat="29.683345" lon="97.931984">
<time>2016-10-07T18:20:57Z</time></trkpt>
<trkpt lat="29.683295" lon="97.931974">
<time>2016-10-07T18:20:58Z</time></trkpt>
<trkpt lat="29.683185" lon="97.931964">
<time>2016-10-07T18:20:59Z</time></trkpt>
<trkpt lat="29.683035" lon="97.931944">
<time>2016-10-07T18:21:00Z</time></trkpt>
<trkpt lat="29.682955" lon="97.931934">
<time>2016-10-07T18:21:01Z</time></trkpt>
<trkpt lat="29.682905" lon="97.931924">
<time>2016-10-07T18:21:02Z</time></trkpt>
<trkpt lat="29.682875" lon="97.931924">
<time>2016-10-07T18:21:03Z</time></trkpt>
<trkpt lat="29.682815" lon="97.931904">
<time>2016-10-07T18:21:04Z</time></trkpt>
<trkpt lat="29.682775" lon="97.931894">
<time>2016-10-07T18:21:05Z</time></trkpt>
<trkpt lat="29.682745" lon="97.931874">
<time>2016-10-07T18:21:06Z</time></trkpt>
<trkpt lat="29.682715" lon="97.931864">
<time>2016-10-07T18:21:07Z</time></trkpt>
<trkpt lat="29.682685" lon="97.931854">
<time>2016-10-07T18:21:08Z</time></trkpt>
<trkpt lat="29.682645" lon="97.931825">
<time>2016-10-07T18:21:09Z</time></trkpt>
<trkpt lat="29.682615" lon="97.931795">
<time>2016-10-07T18:21:10Z</time></trkpt>
<trkpt lat="29.682575" lon="97.931765">
<time>2016-10-07T18:21:11Z</time></trkpt>
<trkpt lat="29.682535" lon="97.931715">
<time>2016-10-07T18:21:12Z</time></trkpt>
<trkpt lat="29.682495" lon="97.931675">
<time>2016-10-07T18:21:13Z</time></trkpt>
<trkpt lat="29.682445" lon="97.931615">
<time>2016-10-07T18:21:14Z</time></trkpt>
<trkpt lat="29.682355" lon="97.931515">
<time>2016-10-07T18:21:15Z</time></trkpt>
<trkpt lat="29.682285" lon="97.931445">
<time>2016-10-07T18:21:16Z</time></trkpt>
<trkpt lat="29.682166" lon="97.931285">
<time>2016-10-07T18:21:17Z</time></trkpt>
<trkpt lat="29.682076" lon="97.931175">
<time>2016-10-07T18:21:18Z</time></trkpt>
<trkpt lat="29.681966" lon="97.931036">
<time>2016-10-07T18:21:19Z</time></trkpt>
<trkpt lat="29.681916" lon="97.930976">
<time>2016-10-07T18:21:20Z</time></trkpt>
<trkpt lat="29.681876" lon="97.930926">
<time>2016-10-07T18:21:21Z</time></trkpt>
<trkpt lat="29.681836" lon="97.930856">
<time>2016-10-07T18:21:22Z</time></trkpt>
<trkpt lat="29.681816" lon="97.930806">
<time>2016-10-07T18:21:23Z</time></trkpt>
<trkpt lat="29.681786" lon="97.930756">
<time>2016-10-07T18:21:24Z</time></trkpt>
<trkpt lat="29.681757" lon="97.930686">
<time>2016-10-07T18:21:25Z</time></trkpt>
<trkpt lat="29.681737" lon="97.930636">
<time>2016-10-07T18:21:26Z</time></trkpt>
<trkpt lat="29.681707" lon="97.930556">
<time>2016-10-07T18:21:27Z</time></trkpt>
<trkpt lat="29.681637" lon="97.930396">
<time>2016-10-07T18:21:28Z</time></trkpt>
<trkpt lat="29.681617" lon="97.930346">
<time>2016-10-07T18:21:29Z</time></trkpt>
<trkpt lat="29.681587" lon="97.930286">
<time>2016-10-07T18:21:30Z</time></trkpt>
<trkpt lat="29.681557" lon="97.930227">
<time>2016-10-07T18:21:31Z</time></trkpt>
<trkpt lat="29.681537" lon="97.930187">
<time>2016-10-07T18:21:32Z</time></trkpt>
<trkpt lat="29.681497" lon="97.930137">
<time>2016-10-07T18:21:33Z</time></trkpt>
<trkpt lat="29.681477" lon="97.930097">
<time>2016-10-07T18:21:34Z</time></trkpt>
<trkpt lat="29.681437" lon="97.930047">
<time>2016-10-07T18:21:35Z</time></trkpt>
<trkpt lat="29.681408" lon="97.930007">
<time>2016-10-07T18:21:36Z</time></trkpt>
<trkpt lat="29.681378" lon="97.929977">
<time>2016-10-07T18:21:37Z</time></trkpt>
<trkpt lat="29.681328" lon="97.929937">
<time>2016-10-07T18:21:38Z</time></trkpt>
<trkpt lat="29.681258" lon="97.929867">
<time>2016-10-07T18:21:39Z</time></trkpt>
<trkpt lat="29.681198" lon="97.929817">
<time>2016-10-07T18:21:40Z</time></trkpt>
<trkpt lat="29.681148" lon="97.929767">
<time>2016-10-07T18:21:41Z</time></trkpt>
<trkpt lat="29.681118" lon="97.929737">
<time>2016-10-07T18:21:42Z</time></trkpt>
<trkpt lat="29.681068" lon="97.929687">
<time>2016-10-07T18:21:43Z</time></trkpt>
<trkpt lat="29.681038" lon="97.929627">
<time>2016-10-07T18:21:44Z</time></trkpt>
<trkpt lat="29.681008" lon="97.929587">
<time>2016-10-07T18:21:45Z</time></trkpt>
<trkpt lat="29.680988" lon="97.929567">
<time>2016-10-07T18:21:46Z</time></trkpt>
<trkpt lat="29.680968" lon="97.929517">
<time>2016-10-07T18:21:47Z</time></trkpt>
<trkpt lat="29.680938" lon="97.929448">
<time>2016-10-07T18:21:48Z</time></trkpt>
<trkpt lat="29.680918" lon="97.929408">
<time>2016-10-07T18:21:49Z</time></trkpt>
<trkpt lat="29.680898" lon="97.929338">
<time>2016-10-07T18:21:50Z</time></trkpt>
<trkpt lat="29.680839" lon="97.929168">
<time>2016-10-07T18:21:51Z</time></trkpt>
<trkpt lat="29.680799" lon="97.929048">
<time>2016-10-07T18:21:52Z</time></trkpt>
<trkpt lat="29.680769" lon="97.928938">
<time>2016-10-07T18:21:53Z</time></trkpt>
<trkpt lat="29.680719" lon="97.928818">
<time>2016-10-07T18:21:54Z</time></trkpt>
<trkpt lat="29.680689" lon="97.928738">
<time>2016-10-07T18:21:55Z</time></trkpt>
<trkpt lat="29.680639" lon="97.928638">
<time>2016-10-07T18:21:56Z</time></trkpt>
<trkpt lat="29.680599" lon="97.928569">
<time>2016-10-07T18:21:57Z</time></trkpt>
<trkpt lat="29.68055" lon="97.928479">
<time>2016-10-07T18:21:58Z</time></trkpt>
<trkpt lat="29.6805" lon="97.928399">
<time>2016-10-07T18:21:59Z</time></trkpt>
<trkpt lat="29.68043" lon="97.928289">
<time>2016-10-07T18:22:00Z</time></trkpt>
<trkpt lat="29.68031" lon="97.928119">
<time>2016-10-07T18:22:01Z</time></trkpt>
<trkpt lat="29.68017" lon="97.927929">
<time>2016-10-07T18:22:02Z</time></trkpt>
<trkpt lat="29.680001" lon="97.92768">
<time>2016-10-07T18:22:03Z</time></trkpt>
<trkpt lat="29.679432" lon="97.92691">
<time>2016-10-07T18:22:04Z</time></trkpt>
<trkpt lat="29.678923" lon="97.926241">
<time>2016-10-07T18:22:05Z</time></trkpt>
<trkpt lat="29.678763" lon="97.926021">
<time>2016-10-07T18:22:06Z</time></trkpt>
<trkpt lat="29.678573" lon="97.925722">
<time>2016-10-07T18:22:07Z</time></trkpt>
<trkpt lat="29.678164" lon="97.924982">
<time>2016-10-07T18:22:08Z</time></trkpt>
<trkpt lat="29.678004" lon="97.924703">
<time>2016-10-07T18:22:09Z</time></trkpt>
<trkpt lat="29.677805" lon="97.924373">
<time>2016-10-07T18:22:10Z</time></trkpt>
<trkpt lat="29.677605" lon="97.923963">
<time>2016-10-07T18:22:11Z</time></trkpt>
<trkpt lat="29.677545" lon="97.923833">
<time>2016-10-07T18:22:12Z</time></trkpt>
<trkpt lat="29.677495" lon="97.923714">
<time>2016-10-07T18:22:13Z</time></trkpt>
<trkpt lat="29.677436" lon="97.923574">
<time>2016-10-07T18:22:14Z</time></trkpt>
<trkpt lat="29.677386" lon="97.923454">
<time>2016-10-07T18:22:15Z</time></trkpt>
<trkpt lat="29.677336" lon="97.923284">
<time>2016-10-07T18:22:16Z</time></trkpt>
<trkpt lat="29.677276" lon="97.922984">
<time>2016-10-07T18:22:17Z</time></trkpt>
<trkpt lat="29.677197" lon="97.922595">
<time>2016-10-07T18:22:18Z</time></trkpt>
<trkpt lat="29.677157" lon="97.922435">
<time>2016-10-07T18:22:19Z</time></trkpt>
<trkpt lat="29.677107" lon="97.922305">
<time>2016-10-07T18:22:20Z</time></trkpt>
<trkpt lat="29.677057" lon="97.922185">
<time>2016-10-07T18:22:21Z</time></trkpt>
<trkpt lat="29.676967" lon="97.922055">
<time>2016-10-07T18:22:22Z</time></trkpt>
<trkpt lat="29.676907" lon="97.921965">
<time>2016-10-07T18:22:23Z</time></trkpt>
<trkpt lat="29.676817" lon="97.921885">
<time>2016-10-07T18:22:24Z</time></trkpt>
<trkpt lat="29.676727" lon="97.921815">
<time>2016-10-07T18:22:25Z</time></trkpt>
<trkpt lat="29.676628" lon="97.921745">
<time>2016-10-07T18:22:26Z</time></trkpt>
<trkpt lat="29.676538" lon="97.921685">
<time>2016-10-07T18:22:27Z</time></trkpt>
<trkpt lat="29.676448" lon="97.921615">
<time>2016-10-07T18:22:28Z</time></trkpt>
<trkpt lat="29.676378" lon="97.921555">
<time>2016-10-07T18:22:29Z</time></trkpt>
<trkpt lat="29.676328" lon="97.921495">
<time>2016-10-07T18:22:30Z</time></trkpt>
<trkpt lat="29.676268" lon="97.921416">
<time>2016-10-07T18:22:31Z</time></trkpt>
<trkpt lat="29.676218" lon="97.921336">
<time>2016-10-07T18:22:32Z</time></trkpt>
<trkpt lat="29.676158" lon="97.921216">
<time>2016-10-07T18:22:33Z</time></trkpt>
<trkpt lat="29.676118" lon="97.921106">
<time>2016-10-07T18:22:34Z</time></trkpt>
<trkpt lat="29.676098" lon="97.921016">
<time>2016-10-07T18:22:35Z</time></trkpt>
<trkpt lat="29.676068" lon="97.920886">
<time>2016-10-07T18:22:36Z</time></trkpt>
<trkpt lat="29.676069" lon="97.920776">
<time>2016-10-07T18:22:37Z</time></trkpt>
<trkpt lat="29.676069" lon="97.920656">
<time>2016-10-07T18:22:38Z</time></trkpt>
<trkpt lat="29.676099" lon="97.920356">
<time>2016-10-07T18:22:39Z</time></trkpt>
<trkpt lat="29.676099" lon="97.920186">
<time>2016-10-07T18:22:40Z</time></trkpt>
<trkpt lat="29.676089" lon="97.920057">
<time>2016-10-07T18:22:41Z</time></trkpt>
<trkpt lat="29.676089" lon="97.919987">
<time>2016-10-07T18:22:42Z</time></trkpt>
<trkpt lat="29.676069" lon="97.919917">
<time>2016-10-07T18:22:43Z</time></trkpt>
<trkpt lat="29.676049" lon="97.919827">
<time>2016-10-07T18:22:44Z</time></trkpt>
<trkpt lat="29.676029" lon="97.919747">
<time>2016-10-07T18:22:45Z</time></trkpt>
<trkpt lat="29.67597" lon="97.919547">
<time>2016-10-07T18:22:46Z</time></trkpt>
<trkpt lat="29.67589" lon="97.919317">
<time>2016-10-07T18:22:47Z</time></trkpt>
<trkpt lat="29.67583" lon="97.919147">
<time>2016-10-07T18:22:48Z</time></trkpt>
<trkpt lat="29.67578" lon="97.919057">
<time>2016-10-07T18:22:49Z</time></trkpt>
<trkpt lat="29.67575" lon="97.918997">
<time>2016-10-07T18:22:50Z</time></trkpt>
<trkpt lat="29.67569" lon="97.918907">
<time>2016-10-07T18:22:51Z</time></trkpt>
<trkpt lat="29.67561" lon="97.918797">
<time>2016-10-07T18:22:52Z</time></trkpt>
<trkpt lat="29.67555" lon="97.918717">
<time>2016-10-07T18:22:53Z</time></trkpt>
<trkpt lat="29.67546" lon="97.918588">
<time>2016-10-07T18:22:54Z</time></trkpt>
<trkpt lat="29.67542" lon="97.918528">
<time>2016-10-07T18:22:55Z</time></trkpt>
<trkpt lat="29.675381" lon="97.918458">
<time>2016-10-07T18:22:56Z</time></trkpt>
<trkpt lat="29.675341" lon="97.918378">
<time>2016-10-07T18:22:57Z</time></trkpt>
<trkpt lat="29.675311" lon="97.918288">
<time>2016-10-07T18:22:58Z</time></trkpt>
<trkpt lat="29.675261" lon="97.918158">
<time>2016-10-07T18:22:59Z</time></trkpt>
<trkpt lat="29.675211" lon="97.917988">
<time>2016-10-07T18:23:00Z</time></trkpt>
<trkpt lat="29.675191" lon="97.917898">
<time>2016-10-07T18:23:01Z</time></trkpt>
<trkpt lat="29.675171" lon="97.917818">
<time>2016-10-07T18:23:02Z</time></trkpt>
<trkpt lat="29.675161" lon="97.917728">
<time>2016-10-07T18:23:03Z</time></trkpt>
<trkpt lat="29.675161" lon="97.917628">
<time>2016-10-07T18:23:04Z</time></trkpt>
<trkpt lat="29.675181" lon="97.917538">
<time>2016-10-07T18:23:05Z</time></trkpt>
<trkpt lat="29.675191" lon="97.917458">
<time>2016-10-07T18:23:06Z</time></trkpt>
<trkpt lat="29.675221" lon="97.917368">
<time>2016-10-07T18:23:07Z</time></trkpt>
<trkpt lat="29.675231" lon="97.917318">
<time>2016-10-07T18:23:08Z</time></trkpt>
<trkpt lat="29.675251" lon="97.917218">
<time>2016-10-07T18:23:09Z</time></trkpt>
<trkpt lat="29.675261" lon="97.917168">
<time>2016-10-07T18:23:10Z</time></trkpt>
<trkpt lat="29.675272" lon="97.917118">
<time>2016-10-07T18:23:11Z</time></trkpt>
<trkpt lat="29.675262" lon="97.917078">
<time>2016-10-07T18:23:12Z</time></trkpt>
<trkpt lat="29.675262" lon="97.917028">
<time>2016-10-07T18:23:13Z</time></trkpt>
<trkpt lat="29.675262" lon="97.916979">
<time>2016-10-07T18:23:14Z</time></trkpt>
<trkpt lat="29.675252" lon="97.916939">
<time>2016-10-07T18:23:15Z</time></trkpt>
<trkpt lat="29.675232" lon="97.916899">
<time>2016-10-07T18:23:16Z</time></trkpt>
<trkpt lat="29.675222" lon="97.916849">
<time>2016-10-07T18:23:17Z</time></trkpt>
<trkpt lat="29.675202" lon="97.916809">
<time>2016-10-07T18:23:18Z</time></trkpt>
<trkpt lat="29.675192" lon="97.916779">
<time>2016-10-07T18:23:19Z</time></trkpt>
<trkpt lat="29.675162" lon="97.916749">
<time>2016-10-07T18:23:20Z</time></trkpt>
<trkpt lat="29.675142" lon="97.916709">
<time>2016-10-07T18:23:21Z</time></trkpt>
<trkpt lat="29.675112" lon="97.916669">
<time>2016-10-07T18:23:22Z</time></trkpt>
<trkpt lat="29.675082" lon="97.916629">
<time>2016-10-07T18:23:23Z</time></trkpt>
<trkpt lat="29.675022" lon="97.916559">
<time>2016-10-07T18:23:24Z</time></trkpt>
<trkpt lat="29.674932" lon="97.916469">
<time>2016-10-07T18:23:25Z</time></trkpt>
<trkpt lat="29.674852" lon="97.916379">
<time>2016-10-07T18:23:26Z</time></trkpt>
<trkpt lat="29.674832" lon="97.916349">
<time>2016-10-07T18:23:27Z</time></trkpt>
<trkpt lat="29.674802" lon="97.916309">
<time>2016-10-07T18:23:28Z</time></trkpt>
<trkpt lat="29.674752" lon="97.916239">
<time>2016-10-07T18:23:29Z</time></trkpt>
<trkpt lat="29.674722" lon="97.916179">
<time>2016-10-07T18:23:30Z</time></trkpt>
<trkpt lat="29.674672" lon="97.916079">
<time>2016-10-07T18:23:31Z</time></trkpt>
<trkpt lat="29.674622" lon="97.915969">
<time>2016-10-07T18:23:32Z</time></trkpt>
<trkpt lat="29.674592" lon="97.915889">
<time>2016-10-07T18:23:33Z</time></trkpt>
<trkpt lat="29.674573" lon="97.915829">
<time>2016-10-07T18:23:34Z</time></trkpt>
<trkpt lat="29.674563" lon="97.915769">
<time>2016-10-07T18:23:35Z</time></trkpt>
<trkpt lat="29.674543" lon="97.915699">
<time>2016-10-07T18:23:36Z</time></trkpt>
<trkpt lat="29.674533" lon="97.915609">
<time>2016-10-07T18:23:37Z</time></trkpt>
<trkpt lat="29.674533" lon="97.915549">
<time>2016-10-07T18:23:38Z</time></trkpt>
<trkpt lat="29.674533" lon="97.915499">
<time>2016-10-07T18:23:39Z</time></trkpt>
<trkpt lat="29.674533" lon="97.915409">
<time>2016-10-07T18:23:40Z</time></trkpt>
<trkpt lat="29.674533" lon="97.915319">
<time>2016-10-07T18:23:41Z</time></trkpt>
<trkpt lat="29.674533" lon="97.915259">
<time>2016-10-07T18:23:42Z</time></trkpt>
<trkpt lat="29.674523" lon="97.915199">
<time>2016-10-07T18:23:43Z</time></trkpt>
<trkpt lat="29.674503" lon="97.915099">
<time>2016-10-07T18:23:44Z</time></trkpt>
<trkpt lat="29.674453" lon="97.9149">
<time>2016-10-07T18:23:45Z</time></trkpt>
<trkpt lat="29.674423" lon="97.91476">
<time>2016-10-07T18:23:46Z</time></trkpt>
<trkpt lat="29.674353" lon="97.91452">
<time>2016-10-07T18:23:47Z</time></trkpt>
<trkpt lat="29.674294" lon="97.91432">
<time>2016-10-07T18:23:48Z</time></trkpt>
<trkpt lat="29.674264" lon="97.91423">
<time>2016-10-07T18:23:49Z</time></trkpt>
<trkpt lat="29.674224" lon="97.91413">
<time>2016-10-07T18:23:50Z</time></trkpt>
<trkpt lat="29.674184" lon="97.91403">
<time>2016-10-07T18:23:51Z</time></trkpt>
<trkpt lat="29.674104" lon="97.91386">
<time>2016-10-07T18:23:52Z</time></trkpt>
<trkpt lat="29.673944" lon="97.91355">
<time>2016-10-07T18:23:53Z</time></trkpt>
<trkpt lat="29.673784" lon="97.91324">
<time>2016-10-07T18:23:54Z</time></trkpt>
<trkpt lat="29.673694" lon="97.91307">
<time>2016-10-07T18:23:55Z</time></trkpt>
<trkpt lat="29.673674" lon="97.91303">
<time>2016-10-07T18:23:56Z</time></trkpt>
<trkpt lat="29.673664" lon="97.91299">
<time>2016-10-07T18:23:57Z</time></trkpt>
<trkpt lat="29.673634" lon="97.91293">
<time>2016-10-07T18:23:58Z</time></trkpt>
<trkpt lat="29.673614" lon="97.91287">
<time>2016-10-07T18:23:59Z</time></trkpt>
<trkpt lat="29.673594" lon="97.9128">
<time>2016-10-07T18:24:00Z</time></trkpt>
<trkpt lat="29.673575" lon="97.91272">
<time>2016-10-07T18:24:01Z</time></trkpt>
<trkpt lat="29.673565" lon="97.91267">
<time>2016-10-07T18:24:02Z</time></trkpt>
<trkpt lat="29.673535" lon="97.91256">
<time>2016-10-07T18:24:03Z</time></trkpt>
<trkpt lat="29.673485" lon="97.912321">
<time>2016-10-07T18:24:04Z</time></trkpt>
<trkpt lat="29.673415" lon="97.912061">
<time>2016-10-07T18:24:05Z</time></trkpt>
<trkpt lat="29.673365" lon="97.911851">
<time>2016-10-07T18:24:06Z</time></trkpt>
<trkpt lat="29.673315" lon="97.911681">
<time>2016-10-07T18:24:07Z</time></trkpt>
<trkpt lat="29.673255" lon="97.911511">
<time>2016-10-07T18:24:08Z</time></trkpt>
<trkpt lat="29.673165" lon="97.911241">
<time>2016-10-07T18:24:09Z</time></trkpt>
<trkpt lat="29.673026" lon="97.910821">
<time>2016-10-07T18:24:10Z</time></trkpt>
<trkpt lat="29.672936" lon="97.910571">
<time>2016-10-07T18:24:11Z</time></trkpt>
<trkpt lat="29.672876" lon="97.910401">
<time>2016-10-07T18:24:12Z</time></trkpt>
<trkpt lat="29.672846" lon="97.910321">
<time>2016-10-07T18:24:13Z</time></trkpt>
<trkpt lat="29.672806" lon="97.910221">
<time>2016-10-07T18:24:14Z</time></trkpt>
<trkpt lat="29.672776" lon="97.910151">
<time>2016-10-07T18:24:15Z</time></trkpt>
<trkpt lat="29.672736" lon="97.910061">
<time>2016-10-07T18:24:16Z</time></trkpt>
<trkpt lat="29.672706" lon="97.910001">
<time>2016-10-07T18:24:17Z</time></trkpt>
<trkpt lat="29.672656" lon="97.909921">
<time>2016-10-07T18:24:18Z</time></trkpt>
<trkpt lat="29.672616" lon="97.909851">
<time>2016-10-07T18:24:19Z</time></trkpt>
<trkpt lat="29.672576" lon="97.909791">
<time>2016-10-07T18:24:20Z</time></trkpt>
<trkpt lat="29.672536" lon="97.909741">
<time>2016-10-07T18:24:21Z</time></trkpt>
<trkpt lat="29.672456" lon="97.909641">
<time>2016-10-07T18:24:22Z</time></trkpt>
<trkpt lat="29.672416" lon="97.909591">
<time>2016-10-07T18:24:23Z</time></trkpt>
<trkpt lat="29.672346" lon="97.909521">
<time>2016-10-07T18:24:24Z</time></trkpt>
<trkpt lat="29.672236" lon="97.909421">
<time>2016-10-07T18:24:25Z</time></trkpt>
<trkpt lat="29.672136" lon="97.909331">
<time>2016-10-07T18:24:26Z</time></trkpt>
<trkpt lat="29.671996" lon="97.909191">
<time>2016-10-07T18:24:27Z</time></trkpt>
<trkpt lat="29.671836" lon="97.909051">
<time>2016-10-07T18:24:28Z</time></trkpt>
<trkpt lat="29.671756" lon="97.908981">
<time>2016-10-07T18:24:29Z</time></trkpt>
<trkpt lat="29.671716" lon="97.908931">
<time>2016-10-07T18:24:30Z</time></trkpt>
<trkpt lat="29.671677" lon="97.908881">
<time>2016-10-07T18:24:31Z</time></trkpt>
<trkpt lat="29.671667" lon="97.908861">
<time>2016-10-07T18:24:32Z</time></trkpt>
<trkpt lat="29.671647" lon="97.908821">
<time>2016-10-07T18:24:33Z</time></trkpt>
<trkpt lat="29.671627" lon="97.908771">
<time>2016-10-07T18:24:34Z</time></trkpt>
<trkpt lat="29.671607" lon="97.908701">
<time>2016-10-07T18:24:35Z</time></trkpt>
<trkpt lat="29.671567" lon="97.908561">
<time>2016-10-07T18:24:36Z</time></trkpt>
<trkpt lat="29.671557" lon="97.908521">
<time>2016-10-07T18:24:37Z</time></trkpt>
<trkpt lat="29.671537" lon="97.908441">
<time>2016-10-07T18:24:38Z</time></trkpt>
<trkpt lat="29.671487" lon="97.908321">
<time>2016-10-07T18:24:39Z</time></trkpt>
<trkpt lat="29.671457" lon="97.908241">
<time>2016-10-07T18:24:40Z</time></trkpt>
<trkpt lat="29.671417" lon="97.908151">
<time>2016-10-07T18:24:41Z</time></trkpt>
<trkpt lat="29.671337" lon="97.907991">
<time>2016-10-07T18:24:42Z</time></trkpt>
<trkpt lat="29.671267" lon="97.907861">
<time>2016-10-07T18:24:43Z</time></trkpt>
<trkpt lat="29.671137" lon="97.907601">
<time>2016-10-07T18:24:44Z</time></trkpt>
<trkpt lat="29.670937" lon="97.907232">
<time>2016-10-07T18:24:45Z</time></trkpt>
<trkpt lat="29.670727" lon="97.906832">
<time>2016-10-07T18:24:46Z</time></trkpt>
<trkpt lat="29.670637" lon="97.906662">
<time>2016-10-07T18:24:47Z</time></trkpt>
<trkpt lat="29.670567" lon="97.906532">
<time>2016-10-07T18:24:48Z</time></trkpt>
<trkpt lat="29.670537" lon="97.906472">
<time>2016-10-07T18:24:49Z</time></trkpt>
<trkpt lat="29.670507" lon="97.906432">
<time>2016-10-07T18:24:50Z</time></trkpt>
<trkpt lat="29.670457" lon="97.906372">
<time>2016-10-07T18:24:51Z</time></trkpt>
<trkpt lat="29.670427" lon="97.906342">
<time>2016-10-07T18:24:52Z</time></trkpt>
<trkpt lat="29.670407" lon="97.906312">
<time>2016-10-07T18:24:53Z</time></trkpt>
<trkpt lat="29.670358" lon="97.906282">
<time>2016-10-07T18:24:54Z</time></trkpt>
<trkpt lat="29.670308" lon="97.906242">
<time>2016-10-07T18:24:55Z</time></trkpt>
<trkpt lat="29.670258" lon="97.906212">
<time>2016-10-07T18:24:56Z</time></trkpt>
<trkpt lat="29.670118" lon="97.906132">
<time>2016-10-07T18:24:57Z</time></trkpt>
<trkpt lat="29.670018" lon="97.906072">
<time>2016-10-07T18:24:58Z</time></trkpt>
<trkpt lat="29.669898" lon="97.906022">
<time>2016-10-07T18:24:59Z</time></trkpt>
<trkpt lat="29.669728" lon="97.905962">
<time>2016-10-07T18:25:00Z</time></trkpt>
<trkpt lat="29.669508" lon="97.905892">
<time>2016-10-07T18:25:01Z</time></trkpt>
<trkpt lat="29.669458" lon="97.905872">
<time>2016-10-07T18:25:02Z</time></trkpt>
<trkpt lat="29.669408" lon="97.905852">
<time>2016-10-07T18:25:03Z</time></trkpt>
<trkpt lat="29.669368" lon="97.905832">
<time>2016-10-07T18:25:04Z</time></trkpt>
<trkpt lat="29.669318" lon="97.905802">
<time>2016-10-07T18:25:05Z</time></trkpt>
<trkpt lat="29.669188" lon="97.905702">
<time>2016-10-07T18:25:06Z</time></trkpt>
<trkpt lat="29.669108" lon="97.905652">
<time>2016-10-07T18:25:07Z</time></trkpt>
<trkpt lat="29.668958" lon="97.905532">
<time>2016-10-07T18:25:08Z</time></trkpt>
<trkpt lat="29.668678" lon="97.905322">
<time>2016-10-07T18:25:09Z</time></trkpt>
<trkpt lat="29.668568" lon="97.905242">
<time>2016-10-07T18:25:10Z</time></trkpt>
<trkpt lat="29.668348" lon="97.905072">
<time>2016-10-07T18:25:11Z</time></trkpt>
<trkpt lat="29.668228" lon="97.904992">
<time>2016-10-07T18:25:12Z</time></trkpt>
<trkpt lat="29.668168" lon="97.904942">
<time>2016-10-07T18:25:13Z</time></trkpt>
<trkpt lat="29.668108" lon="97.904882">
<time>2016-10-07T18:25:14Z</time></trkpt>
<trkpt lat="29.668058" lon="97.904832">
<time>2016-10-07T18:25:15Z</time></trkpt>
<trkpt lat="29.668018" lon="97.904782">
<time>2016-10-07T18:25:16Z</time></trkpt>
<trkpt lat="29.667908" lon="97.904632">
<time>2016-10-07T18:25:17Z</time></trkpt>
<trkpt lat="29.667828" lon="97.904512">
<time>2016-10-07T18:25:18Z</time></trkpt>
<trkpt lat="29.667798" lon="97.904482">
<time>2016-10-07T18:25:19Z</time></trkpt>
<trkpt lat="29.667768" lon="97.904452">
<time>2016-10-07T18:25:20Z</time></trkpt>
<trkpt lat="29.667728" lon="97.904422">
<time>2016-10-07T18:25:21Z</time></trkpt>
<trkpt lat="29.667688" lon="97.904392">
<time>2016-10-07T18:25:22Z</time></trkpt>
<trkpt lat="29.667658" lon="97.904382">
<time>2016-10-07T18:25:23Z</time></trkpt>
<trkpt lat="29.667628" lon="97.904372">
<time>2016-10-07T18:25:24Z</time></trkpt>
<trkpt lat="29.667588" lon="97.904362">
<time>2016-10-07T18:25:25Z</time></trkpt>
<trkpt lat="29.667538" lon="97.904362">
<time>2016-10-07T18:25:26Z</time></trkpt>
<trkpt lat="29.667458" lon="97.904352">
<time>2016-10-07T18:25:27Z</time></trkpt>
<trkpt lat="29.667368" lon="97.904352">
<time>2016-10-07T18:25:28Z</time></trkpt>
<trkpt lat="29.667299" lon="97.904342">
<time>2016-10-07T18:25:29Z</time></trkpt>
<trkpt lat="29.667249" lon="97.904332">
<time>2016-10-07T18:25:30Z</time></trkpt>
<trkpt lat="29.667189" lon="97.904322">
<time>2016-10-07T18:25:31Z</time></trkpt>
<trkpt lat="29.667139" lon="97.904312">
<time>2016-10-07T18:25:32Z</time></trkpt>
<trkpt lat="29.666909" lon="97.904252">
<time>2016-10-07T18:25:33Z</time></trkpt>
<trkpt lat="29.666839" lon="97.904232">
<time>2016-10-07T18:25:34Z</time></trkpt>
<trkpt lat="29.666779" lon="97.904202">
<time>2016-10-07T18:25:35Z</time></trkpt>
<trkpt lat="29.666729" lon="97.904182">
<time>2016-10-07T18:25:36Z</time></trkpt>
<trkpt lat="29.666689" lon="97.904152">
<time>2016-10-07T18:25:37Z</time></trkpt>
<trkpt lat="29.666419" lon="97.904021">
<time>2016-10-07T18:25:38Z</time></trkpt>
<trkpt lat="29.666319" lon="97.903961">
<time>2016-10-07T18:25:39Z</time></trkpt>
<trkpt lat="29.666249" lon="97.903921">
<time>2016-10-07T18:25:40Z</time></trkpt>
<trkpt lat="29.666169" lon="97.903891">
<time>2016-10-07T18:25:41Z</time></trkpt>
<trkpt lat="29.666089" lon="97.903871">
<time>2016-10-07T18:25:42Z</time></trkpt>
<trkpt lat="29.666009" lon="97.903851">
<time>2016-10-07T18:25:43Z</time></trkpt>
<trkpt lat="29.665899" lon="97.903831">
<time>2016-10-07T18:25:44Z</time></trkpt>
<trkpt lat="29.665769" lon="97.903811">
<time>2016-10-07T18:25:45Z</time></trkpt>
<trkpt lat="29.665659" lon="97.903801">
<time>2016-10-07T18:25:46Z</time></trkpt>
<trkpt lat="29.665519" lon="97.903801">
<time>2016-10-07T18:25:47Z</time></trkpt>
<trkpt lat="29.665339" lon="97.903801">
<time>2016-10-07T18:25:48Z</time></trkpt>
<trkpt lat="29.665199" lon="97.903821">
<time>2016-10-07T18:25:49Z</time></trkpt>
<trkpt lat="29.664929" lon="97.903861">
<time>2016-10-07T18:25:50Z</time></trkpt>
<trkpt lat="29.664499" lon="97.903922">
<time>2016-10-07T18:25:51Z</time></trkpt>
<trkpt lat="29.664349" lon="97.903942">
<time>2016-10-07T18:25:52Z</time></trkpt>
<trkpt lat="29.664189" lon="97.903942">
<time>2016-10-07T18:25:53Z</time></trkpt>
<trkpt lat="29.663379" lon="97.903892">
<time>2016-10-07T18:25:54Z</time></trkpt>
<trkpt lat="29.66305" lon="97.903882">
<time>2016-10-07T18:25:55Z</time></trkpt>
<trkpt lat="29.66283" lon="97.903882">
<time>2016-10-07T18:25:56Z</time></trkpt>
<trkpt lat="29.66277" lon="97.903882">
<time>2016-10-07T18:25:57Z</time></trkpt>
<trkpt lat="29.66265" lon="97.903902">
<time>2016-10-07T18:25:58Z</time></trkpt>
<trkpt lat="29.66252" lon="97.903932">
<time>2016-10-07T18:25:59Z</time></trkpt>
<trkpt lat="29.66236" lon="97.903972">
<time>2016-10-07T18:26:00Z</time></trkpt>
<trkpt lat="29.66214" lon="97.904022">
<time>2016-10-07T18:26:01Z</time></trkpt>
<trkpt lat="29.66196" lon="97.904062">
<time>2016-10-07T18:26:02Z</time></trkpt>
<trkpt lat="29.66177" lon="97.904082">
<time>2016-10-07T18:26:03Z</time></trkpt>
<trkpt lat="29.66138" lon="97.904092">
<time>2016-10-07T18:26:04Z</time></trkpt>
<trkpt lat="29.66102" lon="97.904102">
<time>2016-10-07T18:26:05Z</time></trkpt>
<trkpt lat="29.66077" lon="97.904112">
<time>2016-10-07T18:26:06Z</time></trkpt>
<trkpt lat="29.66048" lon="97.904132">
<time>2016-10-07T18:26:07Z</time></trkpt>
<trkpt lat="29.66017" lon="97.904162">
<time>2016-10-07T18:26:08Z</time></trkpt>
<trkpt lat="29.65938" lon="97.904242">
<time>2016-10-07T18:26:09Z</time></trkpt>
<trkpt lat="29.65875" lon="97.904312">
<time>2016-10-07T18:26:10Z</time></trkpt>
<trkpt lat="29.657761" lon="97.904412">
<time>2016-10-07T18:26:11Z</time></trkpt>
<trkpt lat="29.657351" lon="97.904462">
<time>2016-10-07T18:26:12Z</time></trkpt>
<trkpt lat="29.656681" lon="97.904512">
<time>2016-10-07T18:26:13Z</time></trkpt>
<trkpt lat="29.656211" lon="97.904552">
<time>2016-10-07T18:26:14Z</time></trkpt>
<trkpt lat="29.655941" lon="97.904572">
<time>2016-10-07T18:26:15Z</time></trkpt>
<trkpt lat="29.655801" lon="97.904562">
<time>2016-10-07T18:26:16Z</time></trkpt>
<trkpt lat="29.655621" lon="97.904552">
<time>2016-10-07T18:26:17Z</time></trkpt>
<trkpt lat="29.655411" lon="97.904532">
<time>2016-10-07T18:26:18Z</time></trkpt>
<trkpt lat="29.655171" lon="97.904512">
<time>2016-10-07T18:26:19Z</time></trkpt>
<trkpt lat="29.654981" lon="97.904482">
<time>2016-10-07T18:26:20Z</time></trkpt>
<trkpt lat="29.654771" lon="97.904432">
<time>2016-10-07T18:26:21Z</time></trkpt>
<trkpt lat="29.654421" lon="97.904322">
<time>2016-10-07T18:26:22Z</time></trkpt>
<trkpt lat="29.654212" lon="97.904252">
<time>2016-10-07T18:26:23Z</time></trkpt>
<trkpt lat="29.654062" lon="97.904222">
<time>2016-10-07T18:26:24Z</time></trkpt>
<trkpt lat="29.653872" lon="97.904182">
<time>2016-10-07T18:26:25Z</time></trkpt>
<trkpt lat="29.653722" lon="97.904162">
<time>2016-10-07T18:26:26Z</time></trkpt>
<trkpt lat="29.653462" lon="97.904142">
<time>2016-10-07T18:26:27Z</time></trkpt>
<trkpt lat="29.653182" lon="97.904122">
<time>2016-10-07T18:26:28Z</time></trkpt>
<trkpt lat="29.652762" lon="97.904042">
<time>2016-10-07T18:26:29Z</time></trkpt>
<trkpt lat="29.652482" lon="97.904002">
<time>2016-10-07T18:26:30Z</time></trkpt>
<trkpt lat="29.652032" lon="97.903972">
<time>2016-10-07T18:26:31Z</time></trkpt>
<trkpt lat="29.651852" lon="97.903952">
<time>2016-10-07T18:26:32Z</time></trkpt>
<trkpt lat="29.651682" lon="97.903922">
<time>2016-10-07T18:26:33Z</time></trkpt>
<trkpt lat="29.651472" lon="97.903872">
<time>2016-10-07T18:26:34Z</time></trkpt>
<trkpt lat="29.651332" lon="97.903832">
<time>2016-10-07T18:26:35Z</time></trkpt>
<trkpt lat="29.651222" lon="97.903812">
<time>2016-10-07T18:26:36Z</time></trkpt>
<trkpt lat="29.651022" lon="97.903762">
<time>2016-10-07T18:26:37Z</time></trkpt>
<trkpt lat="29.650892" lon="97.903732">
<time>2016-10-07T18:26:38Z</time></trkpt>
<trkpt lat="29.650792" lon="97.903712">
<time>2016-10-07T18:26:39Z</time></trkpt>
<trkpt lat="29.650712" lon="97.903712">
<time>2016-10-07T18:26:40Z</time></trkpt>
<trkpt lat="29.650662" lon="97.903712">
<time>2016-10-07T18:26:41Z</time></trkpt>
<trkpt lat="29.650602" lon="97.903712">
<time>2016-10-07T18:26:42Z</time></trkpt>
<trkpt lat="29.650492" lon="97.903742">
<time>2016-10-07T18:26:43Z</time></trkpt>
<trkpt lat="29.650412" lon="97.903752">
<time>2016-10-07T18:26:44Z</time></trkpt>
<trkpt lat="29.650253" lon="97.903782">
<time>2016-10-07T18:26:45Z</time></trkpt>
<trkpt lat="29.650133" lon="97.903822">
<time>2016-10-07T18:26:46Z</time></trkpt>
<trkpt lat="29.650003" lon="97.903852">
<time>2016-10-07T18:26:47Z</time></trkpt>
<trkpt lat="29.649913" lon="97.903862">
<time>2016-10-07T18:26:48Z</time></trkpt>
<trkpt lat="29.649763" lon="97.903872">
<time>2016-10-07T18:26:49Z</time></trkpt>
<trkpt lat="29.649643" lon="97.903862">
<time>2016-10-07T18:26:50Z</time></trkpt>
<trkpt lat="29.649573" lon="97.903852">
<time>2016-10-07T18:26:51Z</time></trkpt>
<trkpt lat="29.649513" lon="97.903842">
<time>2016-10-07T18:26:52Z</time></trkpt>
<trkpt lat="29.649423" lon="97.903802">
<time>2016-10-07T18:26:53Z</time></trkpt>
<trkpt lat="29.649343" lon="97.903772">
<time>2016-10-07T18:26:54Z</time></trkpt>
<trkpt lat="29.649273" lon="97.903722">
<time>2016-10-07T18:26:55Z</time></trkpt>
<trkpt lat="29.649153" lon="97.903642">
<time>2016-10-07T18:26:56Z</time></trkpt>
<trkpt lat="29.648963" lon="97.903482">
<time>2016-10-07T18:26:57Z</time></trkpt>
<trkpt lat="29.648803" lon="97.903352">
<time>2016-10-07T18:26:58Z</time></trkpt>
<trkpt lat="29.648693" lon="97.903262">
<time>2016-10-07T18:26:59Z</time></trkpt>
<trkpt lat="29.648603" lon="97.903172">
<time>2016-10-07T18:27:00Z</time></trkpt>
<trkpt lat="29.648543" lon="97.903102">
<time>2016-10-07T18:27:01Z</time></trkpt>
<trkpt lat="29.648443" lon="97.902972">
<time>2016-10-07T18:27:02Z</time></trkpt>
<trkpt lat="29.648353" lon="97.902852">
<time>2016-10-07T18:27:03Z</time></trkpt>
<trkpt lat="29.648283" lon="97.902762">
<time>2016-10-07T18:27:04Z</time></trkpt>
<trkpt lat="29.648223" lon="97.902692">
<time>2016-10-07T18:27:05Z</time></trkpt>
<trkpt lat="29.648173" lon="97.902632">
<time>2016-10-07T18:27:06Z</time></trkpt>
<trkpt lat="29.648113" lon="97.902582">
<time>2016-10-07T18:27:07Z</time></trkpt>
<trkpt lat="29.648073" lon="97.902542">
<time>2016-10-07T18:27:08Z</time></trkpt>
<trkpt lat="29.647983" lon="97.902472">
<time>2016-10-07T18:27:09Z</time></trkpt>
<trkpt lat="29.647873" lon="97.902382">
<time>2016-10-07T18:27:10Z</time></trkpt>
<trkpt lat="29.647503" lon="97.902121">
<time>2016-10-07T18:27:11Z</time></trkpt>
<trkpt lat="29.647433" lon="97.902081">
<time>2016-10-07T18:27:12Z</time></trkpt>
<trkpt lat="29.647373" lon="97.902031">
<time>2016-10-07T18:27:13Z</time></trkpt>
<trkpt lat="29.647323" lon="97.901991">
<time>2016-10-07T18:27:14Z</time></trkpt>
<trkpt lat="29.647263" lon="97.901931">
<time>2016-10-07T18:27:15Z</time></trkpt>
<trkpt lat="29.647223" lon="97.901891">
<time>2016-10-07T18:27:16Z</time></trkpt>
<trkpt lat="29.647193" lon="97.901851">
<time>2016-10-07T18:27:17Z</time></trkpt>
<trkpt lat="29.647173" lon="97.901811">
<time>2016-10-07T18:27:18Z</time></trkpt>
<trkpt lat="29.647153" lon="97.901771">
<time>2016-10-07T18:27:19Z</time></trkpt>
<trkpt lat="29.647113" lon="97.901701">
<time>2016-10-07T18:27:20Z</time></trkpt>
<trkpt lat="29.647093" lon="97.901661">
<time>2016-10-07T18:27:21Z</time></trkpt>
<trkpt lat="29.647053" lon="97.901561">
<time>2016-10-07T18:27:22Z</time></trkpt>
<trkpt lat="29.647003" lon="97.901421">
<time>2016-10-07T18:27:23Z</time></trkpt>
<trkpt lat="29.646933" lon="97.901221">
<time>2016-10-07T18:27:24Z</time></trkpt>
<trkpt lat="29.646853" lon="97.901001">
<time>2016-10-07T18:27:25Z</time></trkpt>
<trkpt lat="29.646833" lon="97.900941">
<time>2016-10-07T18:27:26Z</time></trkpt>
<trkpt lat="29.646803" lon="97.900901">
<time>2016-10-07T18:27:27Z</time></trkpt>
<trkpt lat="29.646773" lon="97.900841">
<time>2016-10-07T18:27:28Z</time></trkpt>
<trkpt lat="29.646743" lon="97.900801">
<time>2016-10-07T18:27:29Z</time></trkpt>
<trkpt lat="29.646703" lon="97.900741">
<time>2016-10-07T18:27:30Z</time></trkpt>
<trkpt lat="29.646644" lon="97.900681">
<time>2016-10-07T18:27:31Z</time></trkpt>
<trkpt lat="29.646594" lon="97.900621">
<time>2016-10-07T18:27:32Z</time></trkpt>
<trkpt lat="29.646524" lon="97.900561">
<time>2016-10-07T18:27:33Z</time></trkpt>
<trkpt lat="29.646414" lon="97.900461">
<time>2016-10-07T18:27:34Z</time></trkpt>
<trkpt lat="29.646204" lon="97.900291">
<time>2016-10-07T18:27:35Z</time></trkpt>
<trkpt lat="29.646064" lon="97.900171">
<time>2016-10-07T18:27:36Z</time></trkpt>
<trkpt lat="29.645994" lon="97.900111">
<time>2016-10-07T18:27:37Z</time></trkpt>
<trkpt lat="29.645914" lon="97.900021">
<time>2016-10-07T18:27:38Z</time></trkpt>
<trkpt lat="29.645754" lon="97.899821">
<time>2016-10-07T18:27:39Z</time></trkpt>
<trkpt lat="29.645534" lon="97.899541">
<time>2016-10-07T18:27:40Z</time></trkpt>
<trkpt lat="29.645374" lon="97.899321">
<time>2016-10-07T18:27:41Z</time></trkpt>
<trkpt lat="29.645234" lon="97.899151">
<time>2016-10-07T18:27:42Z</time></trkpt>
<trkpt lat="29.645144" lon="97.899041">
<time>2016-10-07T18:27:43Z</time></trkpt>
<trkpt lat="29.645044" lon="97.898931">
<time>2016-10-07T18:27:44Z</time></trkpt>
<trkpt lat="29.644884" lon="97.898781">
<time>2016-10-07T18:27:45Z</time></trkpt>
<trkpt lat="29.644554" lon="97.89847">
<time>2016-10-07T18:27:46Z</time></trkpt>
<trkpt lat="29.644304" lon="97.89823">
<time>2016-10-07T18:27:47Z</time></trkpt>
<trkpt lat="29.644204" lon="97.89812">
<time>2016-10-07T18:27:48Z</time></trkpt>
<trkpt lat="29.644114" lon="97.89801">
<time>2016-10-07T18:27:49Z</time></trkpt>
<trkpt lat="29.643954" lon="97.89778">
<time>2016-10-07T18:27:50Z</time></trkpt>
<trkpt lat="29.643864" lon="97.89765">
<time>2016-10-07T18:27:51Z</time></trkpt>
<trkpt lat="29.643784" lon="97.89751">
<time>2016-10-07T18:27:52Z</time></trkpt>
<trkpt lat="29.643724" lon="97.8974">
<time>2016-10-07T18:27:53Z</time></trkpt>
<trkpt lat="29.643684" lon="97.89731">
<time>2016-10-07T18:27:54Z</time></trkpt>
<trkpt lat="29.643654" lon="97.89723">
<time>2016-10-07T18:27:55Z</time></trkpt>
<trkpt lat="29.643624" lon="97.89716">
<time>2016-10-07T18:27:56Z</time></trkpt>
<trkpt lat="29.643604" lon="97.89708">
<time>2016-10-07T18:27:57Z</time></trkpt>
<trkpt lat="29.643584" lon="97.89701">
<time>2016-10-07T18:27:58Z</time></trkpt>
<trkpt lat="29.643564" lon="97.89689">
<time>2016-10-07T18:27:59Z</time></trkpt>
<trkpt lat="29.643544" lon="97.89678">
<time>2016-10-07T18:28:00Z</time></trkpt>
<trkpt lat="29.643514" lon="97.8965">
<time>2016-10-07T18:28:01Z</time></trkpt>
<trkpt lat="29.643504" lon="97.89642">
<time>2016-10-07T18:28:02Z</time></trkpt>
<trkpt lat="29.643484" lon="97.89637">
<time>2016-10-07T18:28:03Z</time></trkpt>
<trkpt lat="29.643474" lon="97.896319">
<time>2016-10-07T18:28:04Z</time></trkpt>
<trkpt lat="29.643454" lon="97.896259">
<time>2016-10-07T18:28:05Z</time></trkpt>
<trkpt lat="29.643424" lon="97.896189">
<time>2016-10-07T18:28:06Z</time></trkpt>
<trkpt lat="29.643404" lon="97.896139">
<time>2016-10-07T18:28:07Z</time></trkpt>
<trkpt lat="29.643304" lon="97.895959">
<time>2016-10-07T18:28:08Z</time></trkpt>
<trkpt lat="29.642984" lon="97.895359">
<time>2016-10-07T18:28:09Z</time></trkpt>
<trkpt lat="29.642804" lon="97.894999">
<time>2016-10-07T18:28:10Z</time></trkpt>
<trkpt lat="29.642724" lon="97.894839">
<time>2016-10-07T18:28:11Z</time></trkpt>
<trkpt lat="29.642654" lon="97.894719">
<time>2016-10-07T18:28:12Z</time></trkpt>
<trkpt lat="29.642603" lon="97.894639">
<time>2016-10-07T18:28:13Z</time></trkpt>
<trkpt lat="29.642563" lon="97.894579">
<time>2016-10-07T18:28:14Z</time></trkpt>
<trkpt lat="29.642493" lon="97.894509">
<time>2016-10-07T18:28:15Z</time></trkpt>
<trkpt lat="29.642463" lon="97.894469">
<time>2016-10-07T18:28:16Z</time></trkpt>
<trkpt lat="29.642403" lon="97.894428">
<time>2016-10-07T18:28:17Z</time></trkpt>
<trkpt lat="29.642353" lon="97.894398">
<time>2016-10-07T18:28:18Z</time></trkpt>
<trkpt lat="29.642273" lon="97.894358">
<time>2016-10-07T18:28:19Z</time></trkpt>
<trkpt lat="29.642094" lon="97.894288">
<time>2016-10-07T18:28:20Z</time></trkpt>
<trkpt lat="29.641994" lon="97.894248">
<time>2016-10-07T18:28:21Z</time></trkpt>
<trkpt lat="29.641944" lon="97.894218">
<time>2016-10-07T18:28:22Z</time></trkpt>
<trkpt lat="29.641874" lon="97.894168">
<time>2016-10-07T18:28:23Z</time></trkpt>
<trkpt lat="29.641804" lon="97.894118">
<time>2016-10-07T18:28:24Z</time></trkpt>
<trkpt lat="29.641734" lon="97.894028">
<time>2016-10-07T18:28:25Z</time></trkpt>
<trkpt lat="29.641694" lon="97.893958">
<time>2016-10-07T18:28:26Z</time></trkpt>
<trkpt lat="29.641643" lon="97.893848">
<time>2016-10-07T18:28:27Z</time></trkpt>
<trkpt lat="29.641523" lon="97.893498">
<time>2016-10-07T18:28:28Z</time></trkpt>
<trkpt lat="29.641313" lon="97.892828">
<time>2016-10-07T18:28:29Z</time></trkpt>
<trkpt lat="29.641243" lon="97.892617">
<time>2016-10-07T18:28:30Z</time></trkpt>
<trkpt lat="29.641223" lon="97.892517">
<time>2016-10-07T18:28:31Z</time></trkpt>
<trkpt lat="29.641203" lon="97.892437">
<time>2016-10-07T18:28:32Z</time></trkpt>
<trkpt lat="29.641203" lon="97.892357">
<time>2016-10-07T18:28:33Z</time></trkpt>
<trkpt lat="29.641203" lon="97.892267">
<time>2016-10-07T18:28:34Z</time></trkpt>
<trkpt lat="29.641223" lon="97.892147">
<time>2016-10-07T18:28:35Z</time></trkpt>
<trkpt lat="29.641273" lon="97.891987">
<time>2016-10-07T18:28:36Z</time></trkpt>
<trkpt lat="29.641433" lon="97.891477">
<time>2016-10-07T18:28:37Z</time></trkpt>
<trkpt lat="29.641582" lon="97.890986">
<time>2016-10-07T18:28:38Z</time></trkpt>
<trkpt lat="29.641822" lon="97.890206">
<time>2016-10-07T18:28:39Z</time></trkpt>
<trkpt lat="29.641862" lon="97.890086">
<time>2016-10-07T18:28:40Z</time></trkpt>
<trkpt lat="29.641882" lon="97.890025">
<time>2016-10-07T18:28:41Z</time></trkpt>
<trkpt lat="29.641922" lon="97.889945">
<time>2016-10-07T18:28:42Z</time></trkpt>
<trkpt lat="29.641952" lon="97.889885">
<time>2016-10-07T18:28:43Z</time></trkpt>
<trkpt lat="29.641972" lon="97.889865">
<time>2016-10-07T18:28:44Z</time></trkpt>
<trkpt lat="29.641992" lon="97.889825">
<time>2016-10-07T18:28:45Z</time></trkpt>
<trkpt lat="29.642022" lon="97.889805">
<time>2016-10-07T18:28:46Z</time></trkpt>
<trkpt lat="29.642062" lon="97.889775">
<time>2016-10-07T18:28:47Z</time></trkpt>
<trkpt lat="29.642082" lon="97.889765">
<time>2016-10-07T18:28:48Z</time></trkpt>
<trkpt lat="29.642132" lon="97.889745">
<time>2016-10-07T18:28:49Z</time></trkpt>
<trkpt lat="29.642182" lon="97.889735">
<time>2016-10-07T18:28:50Z</time></trkpt>
<trkpt lat="29.642232" lon="97.889735">
<time>2016-10-07T18:28:51Z</time></trkpt>
<trkpt lat="29.642372" lon="97.889755">
<time>2016-10-07T18:28:52Z</time></trkpt>
<trkpt lat="29.642422" lon="97.889745">
<time>2016-10-07T18:28:53Z</time></trkpt>
<trkpt lat="29.642512" lon="97.889725">
<time>2016-10-07T18:28:54Z</time></trkpt>
<trkpt lat="29.642572" lon="97.889695">
<time>2016-10-07T18:28:55Z</time></trkpt>
<trkpt lat="29.642651" lon="97.889645">
<time>2016-10-07T18:28:56Z</time></trkpt>
<trkpt lat="29.642741" lon="97.889555">
<time>2016-10-07T18:28:57Z</time></trkpt>
<trkpt lat="29.642831" lon="97.889435">
<time>2016-10-07T18:28:58Z</time></trkpt>
<trkpt lat="29.642961" lon="97.889265">
<time>2016-10-07T18:28:59Z</time></trkpt>
<trkpt lat="29.643081" lon="97.889095">
<time>2016-10-07T18:29:00Z</time></trkpt>
<trkpt lat="29.643171" lon="97.888935">
<time>2016-10-07T18:29:01Z</time></trkpt>
<trkpt lat="29.643271" lon="97.888744">
<time>2016-10-07T18:29:02Z</time></trkpt>
<trkpt lat="29.643381" lon="97.888484">
<time>2016-10-07T18:29:03Z</time></trkpt>
<trkpt lat="29.643461" lon="97.888284">
<time>2016-10-07T18:29:04Z</time></trkpt>
<trkpt lat="29.64357" lon="97.888044">
<time>2016-10-07T18:29:05Z</time></trkpt>
<trkpt lat="29.64383" lon="97.887563">
<time>2016-10-07T18:29:06Z</time></trkpt>
<trkpt lat="29.64424" lon="97.886813">
<time>2016-10-07T18:29:07Z</time></trkpt>
<trkpt lat="29.644319" lon="97.886683">
<time>2016-10-07T18:29:08Z</time></trkpt>
<trkpt lat="29.644359" lon="97.886612">
<time>2016-10-07T18:29:09Z</time></trkpt>
<trkpt lat="29.644419" lon="97.886542">
<time>2016-10-07T18:29:10Z</time></trkpt>
<trkpt lat="29.644479" lon="97.886482">
<time>2016-10-07T18:29:11Z</time></trkpt>
<trkpt lat="29.644559" lon="97.886432">
<time>2016-10-07T18:29:12Z</time></trkpt>
<trkpt lat="29.644649" lon="97.886392">
<time>2016-10-07T18:29:13Z</time></trkpt>
<trkpt lat="29.644769" lon="97.886382">
<time>2016-10-07T18:29:14Z</time></trkpt>
<trkpt lat="29.644999" lon="97.886382">
<time>2016-10-07T18:29:15Z</time></trkpt>
<trkpt lat="29.645369" lon="97.886412">
<time>2016-10-07T18:29:16Z</time></trkpt>
<trkpt lat="29.646199" lon="97.886442">
<time>2016-10-07T18:29:17Z</time></trkpt>
<trkpt lat="29.646589" lon="97.886452">
<time>2016-10-07T18:29:18Z</time></trkpt>
<trkpt lat="29.646899" lon="97.886472">
<time>2016-10-07T18:29:19Z</time></trkpt>
<trkpt lat="29.647239" lon="97.886472">
<time>2016-10-07T18:29:20Z</time></trkpt>
<trkpt lat="29.647788" lon="97.886432">
<time>2016-10-07T18:29:21Z</time></trkpt>
<trkpt lat="29.647948" lon="97.886422">
<time>2016-10-07T18:29:22Z</time></trkpt>
<trkpt lat="29.648168" lon="97.886372">
<time>2016-10-07T18:29:23Z</time></trkpt>
<trkpt lat="29.648388" lon="97.886312">
<time>2016-10-07T18:29:24Z</time></trkpt>
<trkpt lat="29.648628" lon="97.886232">
<time>2016-10-07T18:29:25Z</time></trkpt>
<trkpt lat="29.648928" lon="97.886072">
<time>2016-10-07T18:29:26Z</time></trkpt>
<trkpt lat="29.649507" lon="97.885701">
<time>2016-10-07T18:29:27Z</time></trkpt>
<trkpt lat="29.650197" lon="97.885251">
<time>2016-10-07T18:29:28Z</time></trkpt>
<trkpt lat="29.650407" lon="97.885121">
<time>2016-10-07T18:29:29Z</time></trkpt>
<trkpt lat="29.650557" lon="97.885031">
<time>2016-10-07T18:29:30Z</time></trkpt>
<trkpt lat="29.650667" lon="97.884941">
<time>2016-10-07T18:29:31Z</time></trkpt>
<trkpt lat="29.650757" lon="97.884851">
<time>2016-10-07T18:29:32Z</time></trkpt>
<trkpt lat="29.650827" lon="97.884781">
<time>2016-10-07T18:29:33Z</time></trkpt>
<trkpt lat="29.651026" lon="97.88454">
<time>2016-10-07T18:29:34Z</time></trkpt>
<trkpt lat="29.651146" lon="97.88438">
<time>2016-10-07T18:29:35Z</time></trkpt>
<trkpt lat="29.651216" lon="97.88426">
<time>2016-10-07T18:29:36Z</time></trkpt>
<trkpt lat="29.651406" lon="97.88394">
<time>2016-10-07T18:29:37Z</time></trkpt>
<trkpt lat="29.651576" lon="97.883689">
<time>2016-10-07T18:29:38Z</time></trkpt>
<trkpt lat="29.651875" lon="97.883309">
<time>2016-10-07T18:29:39Z</time></trkpt>
<trkpt lat="29.652135" lon="97.882989">
<time>2016-10-07T18:29:40Z</time></trkpt>
<trkpt lat="29.652265" lon="97.882778">
<time>2016-10-07T18:29:41Z</time></trkpt>
<trkpt lat="29.652395" lon="97.882528">
<time>2016-10-07T18:29:42Z</time></trkpt>
<trkpt lat="29.652534" lon="97.882158">
<time>2016-10-07T18:29:43Z</time></trkpt>
<trkpt lat="29.652764" lon="97.881537">
<time>2016-10-07T18:29:44Z</time></trkpt>
<trkpt lat="29.652963" lon="97.881016">
<time>2016-10-07T18:29:45Z</time></trkpt>
<trkpt lat="29.653073" lon="97.880726">
<time>2016-10-07T18:29:46Z</time></trkpt>
<trkpt lat="29.653173" lon="97.880536">
<time>2016-10-07T18:29:47Z</time></trkpt>
<trkpt lat="29.653312" lon="97.880295">
<time>2016-10-07T18:29:48Z</time></trkpt>
<trkpt lat="29.653562" lon="97.879855">
<time>2016-10-07T18:29:49Z</time></trkpt>
<trkpt lat="29.653702" lon="97.879555">
<time>2016-10-07T18:29:50Z</time></trkpt>
<trkpt lat="29.653821" lon="97.879284">
<time>2016-10-07T18:29:51Z</time></trkpt>
<trkpt lat="29.653891" lon="97.879074">
<time>2016-10-07T18:29:52Z</time></trkpt>
<trkpt lat="29.653951" lon="97.878924">
<time>2016-10-07T18:29:53Z</time></trkpt>
<trkpt lat="29.653991" lon="97.878754">
<time>2016-10-07T18:29:54Z</time></trkpt>
<trkpt lat="29.654071" lon="97.878353">
<time>2016-10-07T18:29:55Z</time></trkpt>
<trkpt lat="29.65412" lon="97.878133">
<time>2016-10-07T18:29:56Z</time></trkpt>
<trkpt lat="29.65415" lon="97.878003">
<time>2016-10-07T18:29:57Z</time></trkpt>
<trkpt lat="29.65419" lon="97.877862">
<time>2016-10-07T18:29:58Z</time></trkpt>
<trkpt lat="29.65424" lon="97.877722">
<time>2016-10-07T18:29:59Z</time></trkpt>
<trkpt lat="29.65434" lon="97.877462">
<time>2016-10-07T18:30:00Z</time></trkpt>
<trkpt lat="29.654499" lon="97.877041">
<time>2016-10-07T18:30:01Z</time></trkpt>
<trkpt lat="29.654569" lon="97.876871">
<time>2016-10-07T18:30:02Z</time></trkpt>
<trkpt lat="29.654649" lon="97.876711">
<time>2016-10-07T18:30:03Z</time></trkpt>
<trkpt lat="29.654709" lon="97.876581">
<time>2016-10-07T18:30:04Z</time></trkpt>
<trkpt lat="29.654759" lon="97.87648">
<time>2016-10-07T18:30:05Z</time></trkpt>
<trkpt lat="29.654788" lon="97.87641">
<time>2016-10-07T18:30:06Z</time></trkpt>
<trkpt lat="29.654818" lon="97.87629">
<time>2016-10-07T18:30:07Z</time></trkpt>
<trkpt lat="29.654828" lon="97.8762">
<time>2016-10-07T18:30:08Z</time></trkpt>
<trkpt lat="29.654848" lon="97.87603">
<time>2016-10-07T18:30:09Z</time></trkpt>
<trkpt lat="29.654868" lon="97.87593">
<time>2016-10-07T18:30:10Z</time></trkpt>
<trkpt lat="29.654908" lon="97.87581">
<time>2016-10-07T18:30:11Z</time></trkpt>
<trkpt lat="29.654958" lon="97.875689">
<time>2016-10-07T18:30:12Z</time></trkpt>
<trkpt lat="29.655087" lon="97.875419">
<time>2016-10-07T18:30:13Z</time></trkpt>
<trkpt lat="29.655137" lon="97.875299">
<time>2016-10-07T18:30:14Z</time></trkpt>
<trkpt lat="29.655187" lon="97.875169">
<time>2016-10-07T18:30:15Z</time></trkpt>
<trkpt lat="29.655217" lon="97.875028">
<time>2016-10-07T18:30:16Z</time></trkpt>
<trkpt lat="29.655247" lon="97.874928">
<time>2016-10-07T18:30:17Z</time></trkpt>
<trkpt lat="29.655297" lon="97.874708">
<time>2016-10-07T18:30:18Z</time></trkpt>
<trkpt lat="29.655326" lon="97.874508">
<time>2016-10-07T18:30:19Z</time></trkpt>
<trkpt lat="29.655356" lon="97.874197">
<time>2016-10-07T18:30:20Z</time></trkpt>
<trkpt lat="29.655386" lon="97.873867">
<time>2016-10-07T18:30:21Z</time></trkpt>
<trkpt lat="29.655415" lon="97.873606">
<time>2016-10-07T18:30:22Z</time></trkpt>
<trkpt lat="29.655495" lon="97.873106">
<time>2016-10-07T18:30:23Z</time></trkpt>
<trkpt lat="29.655534" lon="97.872795">
<time>2016-10-07T18:30:24Z</time></trkpt>
<trkpt lat="29.655544" lon="97.872585">
<time>2016-10-07T18:30:25Z</time></trkpt>
<trkpt lat="29.655534" lon="97.872385">
<time>2016-10-07T18:30:26Z</time></trkpt>
<trkpt lat="29.655514" lon="97.872224">
<time>2016-10-07T18:30:27Z</time></trkpt>
<trkpt lat="29.655433" lon="97.871744">
<time>2016-10-07T18:30:28Z</time></trkpt>
<trkpt lat="29.655333" lon="97.871183">
<time>2016-10-07T18:30:29Z</time></trkpt>
<trkpt lat="29.655292" lon="97.870992">
<time>2016-10-07T18:30:30Z</time></trkpt>
<trkpt lat="29.655242" lon="97.870812">
<time>2016-10-07T18:30:31Z</time></trkpt>
<trkpt lat="29.655172" lon="97.870582">
<time>2016-10-07T18:30:32Z</time></trkpt>
<trkpt lat="29.655062" lon="97.870241">
<time>2016-10-07T18:30:33Z</time></trkpt>
<trkpt lat="29.655001" lon="97.870031">
<time>2016-10-07T18:30:34Z</time></trkpt>
<trkpt lat="29.654951" lon="97.86978">
<time>2016-10-07T18:30:35Z</time></trkpt>
<trkpt lat="29.654911" lon="97.86961">
<time>2016-10-07T18:30:36Z</time></trkpt>
<trkpt lat="29.654871" lon="97.86942">
<time>2016-10-07T18:30:37Z</time></trkpt>
<trkpt lat="29.65484" lon="97.869219">
<time>2016-10-07T18:30:38Z</time></trkpt>
<trkpt lat="29.65483" lon="97.869069">
<time>2016-10-07T18:30:39Z</time></trkpt>
<trkpt lat="29.65483" lon="97.868909">
<time>2016-10-07T18:30:40Z</time></trkpt>
<trkpt lat="29.65483" lon="97.868769">
<time>2016-10-07T18:30:41Z</time></trkpt>
<trkpt lat="29.65486" lon="97.868618">
<time>2016-10-07T18:30:42Z</time></trkpt>
<trkpt lat="29.65489" lon="97.868488">
<time>2016-10-07T18:30:43Z</time></trkpt>
<trkpt lat="29.655049" lon="97.867847">
<time>2016-10-07T18:30:44Z</time></trkpt>
<trkpt lat="29.655218" lon="97.867156">
<time>2016-10-07T18:30:45Z</time></trkpt>
<trkpt lat="29.655327" lon="97.866685">
<time>2016-10-07T18:30:46Z</time></trkpt>
<trkpt lat="29.655426" lon="97.866164">
<time>2016-10-07T18:30:47Z</time></trkpt>
<trkpt lat="29.655496" lon="97.865734">
<time>2016-10-07T18:30:48Z</time></trkpt>
<trkpt lat="29.655565" lon="97.865393">
<time>2016-10-07T18:30:49Z</time></trkpt>
<trkpt lat="29.655615" lon="97.865173">
<time>2016-10-07T18:30:50Z</time></trkpt>
<trkpt lat="29.655665" lon="97.865032">
<time>2016-10-07T18:30:51Z</time></trkpt>
<trkpt lat="29.655774" lon="97.864772">
<time>2016-10-07T18:30:52Z</time></trkpt>
<trkpt lat="29.655834" lon="97.864682">
<time>2016-10-07T18:30:53Z</time></trkpt>
<trkpt lat="29.655904" lon="97.864561">
<time>2016-10-07T18:30:54Z</time></trkpt>
<trkpt lat="29.656203" lon="97.86401">
<time>2016-10-07T18:30:55Z</time></trkpt>
<trkpt lat="29.656313" lon="97.86379">
<time>2016-10-07T18:30:56Z</time></trkpt>
<trkpt lat="29.656363" lon="97.86365">
<time>2016-10-07T18:30:57Z</time></trkpt>
<trkpt lat="29.656393" lon="97.86354">
<time>2016-10-07T18:30:58Z</time></trkpt>
<trkpt lat="29.656422" lon="97.863399">
<time>2016-10-07T18:30:59Z</time></trkpt>
<trkpt lat="29.656432" lon="97.863189">
<time>2016-10-07T18:31:00Z</time></trkpt>
<trkpt lat="29.656442" lon="97.862818">
<time>2016-10-07T18:31:01Z</time></trkpt>
<trkpt lat="29.656451" lon="97.862608">
<time>2016-10-07T18:31:02Z</time></trkpt>
<trkpt lat="29.656471" lon="97.862397">
<time>2016-10-07T18:31:03Z</time></trkpt>
<trkpt lat="29.656481" lon="97.862277">
<time>2016-10-07T18:31:04Z</time></trkpt>
<trkpt lat="29.656501" lon="97.862177">
<time>2016-10-07T18:31:05Z</time></trkpt>
<trkpt lat="29.656531" lon="97.862077">
<time>2016-10-07T18:31:06Z</time></trkpt>
<trkpt lat="29.65656" lon="97.861987">
<time>2016-10-07T18:31:07Z</time></trkpt>
<trkpt lat="29.65663" lon="97.861826">
<time>2016-10-07T18:31:08Z</time></trkpt>
<trkpt lat="29.65672" lon="97.861636">
<time>2016-10-07T18:31:09Z</time></trkpt>
<trkpt lat="29.65682" lon="97.861436">
<time>2016-10-07T18:31:10Z</time></trkpt>
<trkpt lat="29.656929" lon="97.861275">
<time>2016-10-07T18:31:11Z</time></trkpt>
<trkpt lat="29.657029" lon="97.861135">
<time>2016-10-07T18:31:12Z</time></trkpt>
<trkpt lat="29.657259" lon="97.860875">
<time>2016-10-07T18:31:13Z</time></trkpt>
<trkpt lat="29.657398" lon="97.860694">
<time>2016-10-07T18:31:14Z</time></trkpt>
<trkpt lat="29.657468" lon="97.860604">
<time>2016-10-07T18:31:15Z</time></trkpt>
<trkpt lat="29.657528" lon="97.860514">
<time>2016-10-07T18:31:16Z</time></trkpt>
<trkpt lat="29.657608" lon="97.860364">
<time>2016-10-07T18:31:17Z</time></trkpt>
<trkpt lat="29.657817" lon="97.859943">
<time>2016-10-07T18:31:18Z</time></trkpt>
<trkpt lat="29.658106" lon="97.859332">
<time>2016-10-07T18:31:19Z</time></trkpt>
<trkpt lat="29.658305" lon="97.858931">
<time>2016-10-07T18:31:20Z</time></trkpt>
<trkpt lat="29.658495" lon="97.85854">
<time>2016-10-07T18:31:21Z</time></trkpt>
<trkpt lat="29.658555" lon="97.85842">
<time>2016-10-07T18:31:22Z</time></trkpt>
<trkpt lat="29.658595" lon="97.85837">
<time>2016-10-07T18:31:23Z</time></trkpt>
<trkpt lat="29.658634" lon="97.8583">
<time>2016-10-07T18:31:24Z</time></trkpt>
<trkpt lat="29.658684" lon="97.858239">
<time>2016-10-07T18:31:25Z</time></trkpt>
<trkpt lat="29.658724" lon="97.858199">
<time>2016-10-07T18:31:26Z</time></trkpt>
<trkpt lat="29.658834" lon="97.858099">
<time>2016-10-07T18:31:27Z</time></trkpt>
<trkpt lat="29.659303" lon="97.857728">
<time>2016-10-07T18:31:28Z</time></trkpt>
<trkpt lat="29.659733" lon="97.857398">
<time>2016-10-07T18:31:29Z</time></trkpt>
<trkpt lat="29.659982" lon="97.857207">
<time>2016-10-07T18:31:30Z</time></trkpt>
<trkpt lat="29.660072" lon="97.857147">
<time>2016-10-07T18:31:31Z</time></trkpt>
<trkpt lat="29.660172" lon="97.857097">
<time>2016-10-07T18:31:32Z</time></trkpt>
<trkpt lat="29.660282" lon="97.857047">
<time>2016-10-07T18:31:33Z</time></trkpt>
<trkpt lat="29.660392" lon="97.857007">
<time>2016-10-07T18:31:34Z</time></trkpt>
<trkpt lat="29.660642" lon="97.856927">
<time>2016-10-07T18:31:35Z</time></trkpt>
<trkpt lat="29.660862" lon="97.856847">
<time>2016-10-07T18:31:36Z</time></trkpt>
<trkpt lat="29.661151" lon="97.856726">
<time>2016-10-07T18:31:37Z</time></trkpt>
<trkpt lat="29.661421" lon="97.856606">
<time>2016-10-07T18:31:38Z</time></trkpt>
<trkpt lat="29.661571" lon="97.856526">
<time>2016-10-07T18:31:39Z</time></trkpt>
<trkpt lat="29.661711" lon="97.856426">
<time>2016-10-07T18:31:40Z</time></trkpt>
<trkpt lat="29.661821" lon="97.856336">
<time>2016-10-07T18:31:41Z</time></trkpt>
<trkpt lat="29.6619" lon="97.856225">
<time>2016-10-07T18:31:42Z</time></trkpt>
<trkpt lat="29.662" lon="97.856085">
<time>2016-10-07T18:31:43Z</time></trkpt>
<trkpt lat="29.66211" lon="97.855895">
<time>2016-10-07T18:31:44Z</time></trkpt>
<trkpt lat="29.662279" lon="97.855594">
<time>2016-10-07T18:31:45Z</time></trkpt>
<trkpt lat="29.662409" lon="97.855404">
<time>2016-10-07T18:31:46Z</time></trkpt>
<trkpt lat="29.662658" lon="97.855043">
<time>2016-10-07T18:31:47Z</time></trkpt>
<trkpt lat="29.662798" lon="97.854833">
<time>2016-10-07T18:31:48Z</time></trkpt>
<trkpt lat="29.662898" lon="97.854662">
<time>2016-10-07T18:31:49Z</time></trkpt>
<trkpt lat="29.662977" lon="97.854492">
<time>2016-10-07T18:31:50Z</time></trkpt>
<trkpt lat="29.663037" lon="97.854321">
<time>2016-10-07T18:31:51Z</time></trkpt>
<trkpt lat="29.663107" lon="97.854061">
<time>2016-10-07T18:31:52Z</time></trkpt>
<trkpt lat="29.663146" lon="97.853861">
<time>2016-10-07T18:31:53Z</time></trkpt>
<trkpt lat="29.663186" lon="97.85366">
<time>2016-10-07T18:31:54Z</time></trkpt>
<trkpt lat="29.663216" lon="97.85358">
<time>2016-10-07T18:31:55Z</time></trkpt>
<trkpt lat="29.663246" lon="97.85348">
<time>2016-10-07T18:31:56Z</time></trkpt>
<trkpt lat="29.663276" lon="97.85342">
<time>2016-10-07T18:31:57Z</time></trkpt>
<trkpt lat="29.663306" lon="97.853369">
<time>2016-10-07T18:31:58Z</time></trkpt>
<trkpt lat="29.663385" lon="97.853249">
<time>2016-10-07T18:31:59Z</time></trkpt>
<trkpt lat="29.663535" lon="97.853079">
<time>2016-10-07T18:32:00Z</time></trkpt>
<trkpt lat="29.663705" lon="97.852898">
<time>2016-10-07T18:32:01Z</time></trkpt>
<trkpt lat="29.664014" lon="97.852548">
<time>2016-10-07T18:32:02Z</time></trkpt>
<trkpt lat="29.664124" lon="97.852397">
<time>2016-10-07T18:32:03Z</time></trkpt>
<trkpt lat="29.664204" lon="97.852277">
<time>2016-10-07T18:32:04Z</time></trkpt>
<trkpt lat="29.664303" lon="97.852127">
<time>2016-10-07T18:32:05Z</time></trkpt>
<trkpt lat="29.664373" lon="97.852007">
<time>2016-10-07T18:32:06Z</time></trkpt>
<trkpt lat="29.664702" lon="97.851335">
<time>2016-10-07T18:32:07Z</time></trkpt>
<trkpt lat="29.664981" lon="97.850774">
<time>2016-10-07T18:32:08Z</time></trkpt>
<trkpt lat="29.665489" lon="97.849782">
<time>2016-10-07T18:32:09Z</time></trkpt>
<trkpt lat="29.665728" lon="97.849321">
<time>2016-10-07T18:32:10Z</time></trkpt>
<trkpt lat="29.665997" lon="97.84878">
<time>2016-10-07T18:32:11Z</time></trkpt>
<trkpt lat="29.666207" lon="97.848389">
<time>2016-10-07T18:32:12Z</time></trkpt>
<trkpt lat="29.666386" lon="97.848048">
<time>2016-10-07T18:32:13Z</time></trkpt>
<trkpt lat="29.666575" lon="97.847687">
<time>2016-10-07T18:32:14Z</time></trkpt>
<trkpt lat="29.666695" lon="97.847457">
<time>2016-10-07T18:32:15Z</time></trkpt>
<trkpt lat="29.666725" lon="97.847417">
<time>2016-10-07T18:32:16Z</time></trkpt>
<trkpt lat="29.666745" lon="97.847366">
<time>2016-10-07T18:32:17Z</time></trkpt>
<trkpt lat="29.666775" lon="97.847296">
<time>2016-10-07T18:32:18Z</time></trkpt>
<trkpt lat="29.666824" lon="97.847216">
<time>2016-10-07T18:32:19Z</time></trkpt>
<trkpt lat="29.666874" lon="97.847126">
<time>2016-10-07T18:32:20Z</time></trkpt>
<trkpt lat="29.666954" lon="97.846966">
<time>2016-10-07T18:32:21Z</time></trkpt>
<trkpt lat="29.667004" lon="97.846885">
<time>2016-10-07T18:32:22Z</time></trkpt>
<trkpt lat="29.667034" lon="97.846825">
<time>2016-10-07T18:32:23Z</time></trkpt>
<trkpt lat="29.667064" lon="97.846775">
<time>2016-10-07T18:32:24Z</time></trkpt>
<trkpt lat="29.667084" lon="97.846755">
<time>2016-10-07T18:32:25Z</time></trkpt>
<trkpt lat="29.667113" lon="97.846715">
<time>2016-10-07T18:32:26Z</time></trkpt>
<trkpt lat="29.667153" lon="97.846665">
<time>2016-10-07T18:32:27Z</time></trkpt>
<trkpt lat="29.667183" lon="97.846645">
<time>2016-10-07T18:32:28Z</time></trkpt>
<trkpt lat="29.667223" lon="97.846615">
<time>2016-10-07T18:32:29Z</time></trkpt>
<trkpt lat="29.667243" lon="97.846605">
<time>2016-10-07T18:32:30Z</time></trkpt>
<trkpt lat="29.667273" lon="97.846585">
<time>2016-10-07T18:32:31Z</time></trkpt>
<trkpt lat="29.667353" lon="97.846565">
<time>2016-10-07T18:32:32Z</time></trkpt>
<trkpt lat="29.667433" lon="97.846535">
<time>2016-10-07T18:32:33Z</time></trkpt>
<trkpt lat="29.667463" lon="97.846535">
<time>2016-10-07T18:32:34Z</time></trkpt>
<trkpt lat="29.667503" lon="97.846535">
<time>2016-10-07T18:32:35Z</time></trkpt>
<trkpt lat="29.667653" lon="97.846565">
<time>2016-10-07T18:32:36Z</time></trkpt>
<trkpt lat="29.667703" lon="97.846575">
<time>2016-10-07T18:32:37Z</time></trkpt>
<trkpt lat="29.667763" lon="97.846595">
<time>2016-10-07T18:32:38Z</time></trkpt>
<trkpt lat="29.667833" lon="97.846615">
<time>2016-10-07T18:32:39Z</time></trkpt>
<trkpt lat="29.667943" lon="97.846665">
<time>2016-10-07T18:32:40Z</time></trkpt>
<trkpt lat="29.668373" lon="97.846805">
<time>2016-10-07T18:32:41Z</time></trkpt>
<trkpt lat="29.668904" lon="97.846986">
<time>2016-10-07T18:32:42Z</time></trkpt>
<trkpt lat="29.669104" lon="97.847066">
<time>2016-10-07T18:32:43Z</time></trkpt>
<trkpt lat="29.669774" lon="97.847226">
<time>2016-10-07T18:32:44Z</time></trkpt>
<trkpt lat="29.670004" lon="97.847286">
<time>2016-10-07T18:32:45Z</time></trkpt>
<trkpt lat="29.670274" lon="97.847366">
<time>2016-10-07T18:32:46Z</time></trkpt>
<trkpt lat="29.670464" lon="97.847437">
<time>2016-10-07T18:32:47Z</time></trkpt>
<trkpt lat="29.670574" lon="97.847477">
<time>2016-10-07T18:32:48Z</time></trkpt>
<trkpt lat="29.670684" lon="97.847507">
<time>2016-10-07T18:32:49Z</time></trkpt>
<trkpt lat="29.670784" lon="97.847517">
<time>2016-10-07T18:32:50Z</time></trkpt>
<trkpt lat="29.670894" lon="97.847517">
<time>2016-10-07T18:32:51Z</time></trkpt>
<trkpt lat="29.671034" lon="97.847527">
<time>2016-10-07T18:32:52Z</time></trkpt>
<trkpt lat="29.671134" lon="97.847507">
<time>2016-10-07T18:32:53Z</time></trkpt>
<trkpt lat="29.671294" lon="97.847477">
<time>2016-10-07T18:32:54Z</time></trkpt>
<trkpt lat="29.671404" lon="97.847467">
<time>2016-10-07T18:32:55Z</time></trkpt>
<trkpt lat="29.671454" lon="97.847457">
<time>2016-10-07T18:32:56Z</time></trkpt>
<trkpt lat="29.671504" lon="97.847437">
<time>2016-10-07T18:32:57Z</time></trkpt>
<trkpt lat="29.671644" lon="97.847386">
<time>2016-10-07T18:32:58Z</time></trkpt>
<trkpt lat="29.671823" lon="97.847296">
<time>2016-10-07T18:32:59Z</time></trkpt>
<trkpt lat="29.671913" lon="97.847246">
<time>2016-10-07T18:33:00Z</time></trkpt>
<trkpt lat="29.671983" lon="97.847206">
<time>2016-10-07T18:33:01Z</time></trkpt>
<trkpt lat="29.672063" lon="97.847136">
<time>2016-10-07T18:33:02Z</time></trkpt>
<trkpt lat="29.672163" lon="97.847046">
<time>2016-10-07T18:33:03Z</time></trkpt>
<trkpt lat="29.672243" lon="97.846966">
<time>2016-10-07T18:33:04Z</time></trkpt>
<trkpt lat="29.672303" lon="97.846905">
<time>2016-10-07T18:33:05Z</time></trkpt>
<trkpt lat="29.672392" lon="97.846765">
<time>2016-10-07T18:33:06Z</time></trkpt>
<trkpt lat="29.672512" lon="97.846575">
<time>2016-10-07T18:33:07Z</time></trkpt>
<trkpt lat="29.672632" lon="97.846364">
<time>2016-10-07T18:33:08Z</time></trkpt>
<trkpt lat="29.672731" lon="97.846134">
<time>2016-10-07T18:33:09Z</time></trkpt>
<trkpt lat="29.672811" lon="97.845913">
<time>2016-10-07T18:33:10Z</time></trkpt>
<trkpt lat="29.672851" lon="97.845773">
<time>2016-10-07T18:33:11Z</time></trkpt>
<trkpt lat="29.67292" lon="97.845532">
<time>2016-10-07T18:33:12Z</time></trkpt>
<trkpt lat="29.67294" lon="97.845442">
<time>2016-10-07T18:33:13Z</time></trkpt>
<trkpt lat="29.67296" lon="97.845382">
<time>2016-10-07T18:33:14Z</time></trkpt>
<trkpt lat="29.673009" lon="97.845051">
<time>2016-10-07T18:33:15Z</time></trkpt>
<trkpt lat="29.673049" lon="97.844811">
<time>2016-10-07T18:33:16Z</time></trkpt>
<trkpt lat="29.673108" lon="97.8445">
<time>2016-10-07T18:33:17Z</time></trkpt>
<trkpt lat="29.673197" lon="97.843989">
<time>2016-10-07T18:33:18Z</time></trkpt>
<trkpt lat="29.673217" lon="97.843849">
<time>2016-10-07T18:33:19Z</time></trkpt>
<trkpt lat="29.673286" lon="97.843468">
<time>2016-10-07T18:33:20Z</time></trkpt>
<trkpt lat="29.673326" lon="97.843197">
<time>2016-10-07T18:33:21Z</time></trkpt>
<trkpt lat="29.673395" lon="97.842856">
<time>2016-10-07T18:33:22Z</time></trkpt>
<trkpt lat="29.673455" lon="97.842455">
<time>2016-10-07T18:33:23Z</time></trkpt>
<trkpt lat="29.673544" lon="97.841984">
<time>2016-10-07T18:33:24Z</time></trkpt>
<trkpt lat="29.673613" lon="97.841613">
<time>2016-10-07T18:33:25Z</time></trkpt>
<trkpt lat="29.673633" lon="97.841493">
<time>2016-10-07T18:33:26Z</time></trkpt>
<trkpt lat="29.673722" lon="97.840962">
<time>2016-10-07T18:33:27Z</time></trkpt>
<trkpt lat="29.673771" lon="97.840641">
<time>2016-10-07T18:33:28Z</time></trkpt>
<trkpt lat="29.67384" lon="97.84027">
<time>2016-10-07T18:33:29Z</time></trkpt>
<trkpt lat="29.67389" lon="97.83997">
<time>2016-10-07T18:33:30Z</time></trkpt>
<trkpt lat="29.673949" lon="97.839639">
<time>2016-10-07T18:33:31Z</time></trkpt>
<trkpt lat="29.673959" lon="97.839539">
<time>2016-10-07T18:33:32Z</time></trkpt>
<trkpt lat="29.673969" lon="97.839458">
<time>2016-10-07T18:33:33Z</time></trkpt>
<trkpt lat="29.674009" lon="97.839318">
<time>2016-10-07T18:33:34Z</time></trkpt>
<trkpt lat="29.674058" lon="97.839017">
<time>2016-10-07T18:33:35Z</time></trkpt>
<trkpt lat="29.674118" lon="97.838727">
<time>2016-10-07T18:33:36Z</time></trkpt>
<trkpt lat="29.674177" lon="97.838366">
<time>2016-10-07T18:33:37Z</time></trkpt>
<trkpt lat="29.674216" lon="97.838085">
<time>2016-10-07T18:33:38Z</time></trkpt>
<trkpt lat="29.674256" lon="97.837925">
<time>2016-10-07T18:33:39Z</time></trkpt>
<trkpt lat="29.674266" lon="97.837855">
<time>2016-10-07T18:33:40Z</time></trkpt>
<trkpt lat="29.674296" lon="97.837754">
<time>2016-10-07T18:33:41Z</time></trkpt>
<trkpt lat="29.674325" lon="97.837594">
<time>2016-10-07T18:33:42Z</time></trkpt>
<trkpt lat="29.674345" lon="97.837484">
<time>2016-10-07T18:33:43Z</time></trkpt>
<trkpt lat="29.674355" lon="97.837364">
<time>2016-10-07T18:33:44Z</time></trkpt>
<trkpt lat="29.674385" lon="97.837133">
<time>2016-10-07T18:33:45Z</time></trkpt>
<trkpt lat="29.674404" lon="97.837043">
<time>2016-10-07T18:33:46Z</time></trkpt>
<trkpt lat="29.674414" lon="97.836973">
<time>2016-10-07T18:33:47Z</time></trkpt>
<trkpt lat="29.674434" lon="97.836912">
<time>2016-10-07T18:33:48Z</time></trkpt>
<trkpt lat="29.674464" lon="97.836852">
<time>2016-10-07T18:33:49Z</time></trkpt>
<trkpt lat="29.674484" lon="97.836782">
<time>2016-10-07T18:33:50Z</time></trkpt>
<trkpt lat="29.674504" lon="97.836692">
<time>2016-10-07T18:33:51Z</time></trkpt>
<trkpt lat="29.674514" lon="97.836612">
<time>2016-10-07T18:33:52Z</time></trkpt>
<trkpt lat="29.674534" lon="97.836552">
<time>2016-10-07T18:33:53Z</time></trkpt>
<trkpt lat="29.674543" lon="97.836512">
<time>2016-10-07T18:33:54Z</time></trkpt>
<trkpt lat="29.674573" lon="97.836441">
<time>2016-10-07T18:33:55Z</time></trkpt>
<trkpt lat="29.674583" lon="97.836421">
<time>2016-10-07T18:33:56Z</time></trkpt>
<trkpt lat="29.674603" lon="97.836381">
<time>2016-10-07T18:33:57Z</time></trkpt>
<trkpt lat="29.674623" lon="97.836351">
<time>2016-10-07T18:33:58Z</time></trkpt>
<trkpt lat="29.674653" lon="97.836321">
<time>2016-10-07T18:33:59Z</time></trkpt>
<trkpt lat="29.674683" lon="97.836281">
<time>2016-10-07T18:34:00Z</time></trkpt>
<trkpt lat="29.674723" lon="97.836251">
<time>2016-10-07T18:34:01Z</time></trkpt>
<trkpt lat="29.674763" lon="97.836221">
<time>2016-10-07T18:34:02Z</time></trkpt>
<trkpt lat="29.674793" lon="97.836201">
<time>2016-10-07T18:34:03Z</time></trkpt>
<trkpt lat="29.674843" lon="97.836181">
<time>2016-10-07T18:34:04Z</time></trkpt>
<trkpt lat="29.674873" lon="97.836161">
<time>2016-10-07T18:34:05Z</time></trkpt>
<trkpt lat="29.674943" lon="97.836141">
<time>2016-10-07T18:34:06Z</time></trkpt>
<trkpt lat="29.675073" lon="97.836101">
<time>2016-10-07T18:34:07Z</time></trkpt>
<trkpt lat="29.675302" lon="97.83604">
<time>2016-10-07T18:34:08Z</time></trkpt>
<trkpt lat="29.675502" lon="97.83598">
<time>2016-10-07T18:34:09Z</time></trkpt>
<trkpt lat="29.675672" lon="97.83592">
<time>2016-10-07T18:34:10Z</time></trkpt>
<trkpt lat="29.675782" lon="97.83588">
<time>2016-10-07T18:34:11Z</time></trkpt>
<trkpt lat="29.675982" lon="97.83579">
<time>2016-10-07T18:34:12Z</time></trkpt>
<trkpt lat="29.676092" lon="97.83574">
<time>2016-10-07T18:34:13Z</time></trkpt>
<trkpt lat="29.676182" lon="97.8357">
<time>2016-10-07T18:34:14Z</time></trkpt>
<trkpt lat="29.676291" lon="97.835639">
<time>2016-10-07T18:34:15Z</time></trkpt>
<trkpt lat="29.676391" lon="97.835579">
<time>2016-10-07T18:34:16Z</time></trkpt>
<trkpt lat="29.676481" lon="97.835519">
<time>2016-10-07T18:34:17Z</time></trkpt>
<trkpt lat="29.676591" lon="97.835439">
<time>2016-10-07T18:34:18Z</time></trkpt>
<trkpt lat="29.676681" lon="97.835359">
<time>2016-10-07T18:34:19Z</time></trkpt>
<trkpt lat="29.676741" lon="97.835289">
<time>2016-10-07T18:34:20Z</time></trkpt>
<trkpt lat="29.676791" lon="97.835228">
<time>2016-10-07T18:34:21Z</time></trkpt>
<trkpt lat="29.67685" lon="97.835158">
<time>2016-10-07T18:34:22Z</time></trkpt>
<trkpt lat="29.67697" lon="97.834958">
<time>2016-10-07T18:34:23Z</time></trkpt>
<trkpt lat="29.677209" lon="97.834567">
<time>2016-10-07T18:34:24Z</time></trkpt>
<trkpt lat="29.677498" lon="97.834066">
<time>2016-10-07T18:34:25Z</time></trkpt>
<trkpt lat="29.677658" lon="97.833825">
<time>2016-10-07T18:34:26Z</time></trkpt>
<trkpt lat="29.677797" lon="97.833615">
<time>2016-10-07T18:34:27Z</time></trkpt>
<trkpt lat="29.677957" lon="97.833484">
<time>2016-10-07T18:34:28Z</time></trkpt>
<trkpt lat="29.678187" lon="97.833314">
<time>2016-10-07T18:34:29Z</time></trkpt>
<trkpt lat="29.678326" lon="97.833224">
<time>2016-10-07T18:34:30Z</time></trkpt>
<trkpt lat="29.678486" lon="97.833123">
<time>2016-10-07T18:34:31Z</time></trkpt>
<trkpt lat="29.678576" lon="97.833083">
<time>2016-10-07T18:34:32Z</time></trkpt>
<trkpt lat="29.678636" lon="97.833063">
<time>2016-10-07T18:34:33Z</time></trkpt>
<trkpt lat="29.678706" lon="97.833033">
<time>2016-10-07T18:34:34Z</time></trkpt>
<trkpt lat="29.678766" lon="97.833013">
<time>2016-10-07T18:34:35Z</time></trkpt>
<trkpt lat="29.678836" lon="97.833003">
<time>2016-10-07T18:34:36Z</time></trkpt>
<trkpt lat="29.678926" lon="97.833003">
<time>2016-10-07T18:34:37Z</time></trkpt>
<trkpt lat="29.678986" lon="97.833003">
<time>2016-10-07T18:34:38Z</time></trkpt>
<trkpt lat="29.679096" lon="97.833013">
<time>2016-10-07T18:34:39Z</time></trkpt>
<trkpt lat="29.679276" lon="97.833043">
<time>2016-10-07T18:34:40Z</time></trkpt>
<trkpt lat="29.680236" lon="97.833234">
<time>2016-10-07T18:34:41Z</time></trkpt>
<trkpt lat="29.681176" lon="97.833404">
<time>2016-10-07T18:34:42Z</time></trkpt>
<trkpt lat="29.681296" lon="97.833424">
<time>2016-10-07T18:34:43Z</time></trkpt>
<trkpt lat="29.681466" lon="97.833454">
<time>2016-10-07T18:34:44Z</time></trkpt>
<trkpt lat="29.681586" lon="97.833474">
<time>2016-10-07T18:34:45Z</time></trkpt>
<trkpt lat="29.681706" lon="97.833504">
<time>2016-10-07T18:34:46Z</time></trkpt>
<trkpt lat="29.681766" lon="97.833524">
<time>2016-10-07T18:34:47Z</time></trkpt>
<trkpt lat="29.681816" lon="97.833544">
<time>2016-10-07T18:34:48Z</time></trkpt>
<trkpt lat="29.681856" lon="97.833564">
<time>2016-10-07T18:34:49Z</time></trkpt>
<trkpt lat="29.681896" lon="97.833595">
<time>2016-10-07T18:34:50Z</time></trkpt>
<trkpt lat="29.681967" lon="97.833645">
<time>2016-10-07T18:34:51Z</time></trkpt>
<trkpt lat="29.682047" lon="97.833725">
<time>2016-10-07T18:34:52Z</time></trkpt>
<trkpt lat="29.682147" lon="97.833835">
<time>2016-10-07T18:34:53Z</time></trkpt>
<trkpt lat="29.682187" lon="97.833865">
<time>2016-10-07T18:34:54Z</time></trkpt>
<trkpt lat="29.682227" lon="97.833895">
<time>2016-10-07T18:34:55Z</time></trkpt>
<trkpt lat="29.682267" lon="97.833925">
<time>2016-10-07T18:34:56Z</time></trkpt>
<trkpt lat="29.682317" lon="97.833945">
<time>2016-10-07T18:34:57Z</time></trkpt>
<trkpt lat="29.682357" lon="97.833955">
<time>2016-10-07T18:34:58Z</time></trkpt>
<trkpt lat="29.682417" lon="97.833965">
<time>2016-10-07T18:34:59Z</time></trkpt>
<trkpt lat="29.682477" lon="97.833965">
<time>2016-10-07T18:35:00Z</time></trkpt>
<trkpt lat="29.682577" lon="97.833955">
<time>2016-10-07T18:35:01Z</time></trkpt>
<trkpt lat="29.682767" lon="97.833945">
<time>2016-10-07T18:35:02Z</time></trkpt>
<trkpt lat="29.682907" lon="97.833935">
<time>2016-10-07T18:35:03Z</time></trkpt>
<trkpt lat="29.683027" lon="97.833935">
<time>2016-10-07T18:35:04Z</time></trkpt>
<trkpt lat="29.683087" lon="97.833935">
<time>2016-10-07T18:35:05Z</time></trkpt>
<trkpt lat="29.683157" lon="97.833925">
<time>2016-10-07T18:35:06Z</time></trkpt>
<trkpt lat="29.683197" lon="97.833925">
<time>2016-10-07T18:35:07Z</time></trkpt>
<trkpt lat="29.683217" lon="97.833915">
<time>2016-10-07T18:35:08Z</time></trkpt>
<trkpt lat="29.683247" lon="97.833905">
<time>2016-10-07T18:35:09Z</time></trkpt>
<trkpt lat="29.683267" lon="97.833895">
<time>2016-10-07T18:35:10Z</time></trkpt>
<trkpt lat="29.683287" lon="97.833885">
<time>2016-10-07T18:35:11Z</time></trkpt>
<trkpt lat="29.683297" lon="97.833875">
<time>2016-10-07T18:35:12Z</time></trkpt>
<trkpt lat="29.683327" lon="97.833865">
<time>2016-10-07T18:35:13Z</time></trkpt>
<trkpt lat="29.683347" lon="97.833865">
<time>2016-10-07T18:35:14Z</time></trkpt>
<trkpt lat="29.683367" lon="97.833865">
<time>2016-10-07T18:35:15Z</time></trkpt>
<trkpt lat="29.683417" lon="97.833875">
<time>2016-10-07T18:35:16Z</time></trkpt>
<trkpt lat="29.683467" lon="97.833895">
<time>2016-10-07T18:35:17Z</time></trkpt>
<trkpt lat="29.683527" lon="97.833895">
<time>2016-10-07T18:35:18Z</time></trkpt>
<trkpt lat="29.683557" lon="97.833895">
<time>2016-10-07T18:35:19Z</time></trkpt>
<trkpt lat="29.683627" lon="97.833895">
<time>2016-10-07T18:35:20Z</time></trkpt>
<trkpt lat="29.683717" lon="97.833885">
<time>2016-10-07T18:35:21Z</time></trkpt>
<trkpt lat="29.683827" lon="97.833865">
<time>2016-10-07T18:35:22Z</time></trkpt>
<trkpt lat="29.684036" lon="97.833825">
<time>2016-10-07T18:35:23Z</time></trkpt>
<trkpt lat="29.684226" lon="97.833765">
<time>2016-10-07T18:35:24Z</time></trkpt>
<trkpt lat="29.684406" lon="97.833695">
<time>2016-10-07T18:35:25Z</time></trkpt>
<trkpt lat="29.684596" lon="97.833605">
<time>2016-10-07T18:35:26Z</time></trkpt>
<trkpt lat="29.684686" lon="97.833564">
<time>2016-10-07T18:35:27Z</time></trkpt>
<trkpt lat="29.684826" lon="97.833484">
<time>2016-10-07T18:35:28Z</time></trkpt>
<trkpt lat="29.684916" lon="97.833424">
<time>2016-10-07T18:35:29Z</time></trkpt>
<trkpt lat="29.685065" lon="97.833334">
<time>2016-10-07T18:35:30Z</time></trkpt>
<trkpt lat="29.685355" lon="97.833153">
<time>2016-10-07T18:35:31Z</time></trkpt>
<trkpt lat="29.685545" lon="97.833033">
<time>2016-10-07T18:35:32Z</time></trkpt>
<trkpt lat="29.685644" lon="97.832963">
<time>2016-10-07T18:35:33Z</time></trkpt>
<trkpt lat="29.685874" lon="97.832793">
<time>2016-10-07T18:35:34Z</time></trkpt>
<trkpt lat="29.686094" lon="97.832612">
<time>2016-10-07T18:35:35Z</time></trkpt>
<trkpt lat="29.686543" lon="97.832211">
<time>2016-10-07T18:35:36Z</time></trkpt>
<trkpt lat="29.686673" lon="97.832091">
<time>2016-10-07T18:35:37Z</time></trkpt>
<trkpt lat="29.686772" lon="97.831991">
<time>2016-10-07T18:35:38Z</time></trkpt>
<trkpt lat="29.686862" lon="97.83188">
<time>2016-10-07T18:35:39Z</time></trkpt>
<trkpt lat="29.686942" lon="97.83177">
<time>2016-10-07T18:35:40Z</time></trkpt>
<trkpt lat="29.687002" lon="97.83168">
<time>2016-10-07T18:35:41Z</time></trkpt>
<trkpt lat="29.687072" lon="97.83156">
<time>2016-10-07T18:35:42Z</time></trkpt>
<trkpt lat="29.687301" lon="97.831078">
<time>2016-10-07T18:35:43Z</time></trkpt>
<trkpt lat="29.68754" lon="97.830547">
<time>2016-10-07T18:35:44Z</time></trkpt>
<trkpt lat="29.687629" lon="97.830357">
<time>2016-10-07T18:35:45Z</time></trkpt>
<trkpt lat="29.687719" lon="97.830146">
<time>2016-10-07T18:35:46Z</time></trkpt>
<trkpt lat="29.687759" lon="97.830016">
<time>2016-10-07T18:35:47Z</time></trkpt>
<trkpt lat="29.687808" lon="97.829846">
<time>2016-10-07T18:35:48Z</time></trkpt>
<trkpt lat="29.687858" lon="97.829645">
<time>2016-10-07T18:35:49Z</time></trkpt>
<trkpt lat="29.687907" lon="97.829364">
<time>2016-10-07T18:35:50Z</time></trkpt>
<trkpt lat="29.687947" lon="97.829044">
<time>2016-10-07T18:35:51Z</time></trkpt>
<trkpt lat="29.687956" lon="97.828733">
<time>2016-10-07T18:35:52Z</time></trkpt>
<trkpt lat="29.687946" lon="97.828482">
<time>2016-10-07T18:35:53Z</time></trkpt>
<trkpt lat="29.687935" lon="97.828332">
<time>2016-10-07T18:35:54Z</time></trkpt>
<trkpt lat="29.687905" lon="97.828172">
<time>2016-10-07T18:35:55Z</time></trkpt>
<trkpt lat="29.687845" lon="97.827911">
<time>2016-10-07T18:35:56Z</time></trkpt>
<trkpt lat="29.687774" lon="97.82765">
<time>2016-10-07T18:35:57Z</time></trkpt>
<trkpt lat="29.687674" lon="97.82736">
<time>2016-10-07T18:35:58Z</time></trkpt>
<trkpt lat="29.687613" lon="97.827209">
<time>2016-10-07T18:35:59Z</time></trkpt>
<trkpt lat="29.687573" lon="97.827109">
<time>2016-10-07T18:36:00Z</time></trkpt>
<trkpt lat="29.687513" lon="97.826989">
<time>2016-10-07T18:36:01Z</time></trkpt>
<trkpt lat="29.687443" lon="97.826878">
<time>2016-10-07T18:36:02Z</time></trkpt>
<trkpt lat="29.687322" lon="97.826678">
<time>2016-10-07T18:36:03Z</time></trkpt>
<trkpt lat="29.687152" lon="97.826407">
<time>2016-10-07T18:36:04Z</time></trkpt>
<trkpt lat="29.686941" lon="97.826047">
<time>2016-10-07T18:36:05Z</time></trkpt>
<trkpt lat="29.6866" lon="97.825395">
<time>2016-10-07T18:36:06Z</time></trkpt>
<trkpt lat="29.686359" lon="97.824964">
<time>2016-10-07T18:36:07Z</time></trkpt>
<trkpt lat="29.686289" lon="97.824844">
<time>2016-10-07T18:36:08Z</time></trkpt>
<trkpt lat="29.686219" lon="97.824733">
<time>2016-10-07T18:36:09Z</time></trkpt>
<trkpt lat="29.686139" lon="97.824613">
<time>2016-10-07T18:36:10Z</time></trkpt>
<trkpt lat="29.686069" lon="97.824533">
<time>2016-10-07T18:36:11Z</time></trkpt>
<trkpt lat="29.685978" lon="97.824463">
<time>2016-10-07T18:36:12Z</time></trkpt>
<trkpt lat="29.685918" lon="97.824423">
<time>2016-10-07T18:36:13Z</time></trkpt>
<trkpt lat="29.685848" lon="97.824373">
<time>2016-10-07T18:36:14Z</time></trkpt>
<trkpt lat="29.685778" lon="97.824332">
<time>2016-10-07T18:36:15Z</time></trkpt>
<trkpt lat="29.685638" lon="97.824272">
<time>2016-10-07T18:36:16Z</time></trkpt>
<trkpt lat="29.685528" lon="97.824222">
<time>2016-10-07T18:36:17Z</time></trkpt>
<trkpt lat="29.685438" lon="97.824202">
<time>2016-10-07T18:36:18Z</time></trkpt>
<trkpt lat="29.685348" lon="97.824172">
<time>2016-10-07T18:36:19Z</time></trkpt>
<trkpt lat="29.685228" lon="97.824142">
<time>2016-10-07T18:36:20Z</time></trkpt>
<trkpt lat="29.685118" lon="97.824132">
<time>2016-10-07T18:36:21Z</time></trkpt>
<trkpt lat="29.684978" lon="97.824102">
<time>2016-10-07T18:36:22Z</time></trkpt>
<trkpt lat="29.684788" lon="97.824082">
<time>2016-10-07T18:36:23Z</time></trkpt>
<trkpt lat="29.684368" lon="97.824042">
<time>2016-10-07T18:36:24Z</time></trkpt>
<trkpt lat="29.683738" lon="97.823942">
<time>2016-10-07T18:36:25Z</time></trkpt>
<trkpt lat="29.683458" lon="97.823891">
<time>2016-10-07T18:36:26Z</time></trkpt>
<trkpt lat="29.683288" lon="97.823851">
<time>2016-10-07T18:36:27Z</time></trkpt>
<trkpt lat="29.683248" lon="97.823841">
<time>2016-10-07T18:36:28Z</time></trkpt>
<trkpt lat="29.683208" lon="97.823831">
<time>2016-10-07T18:36:29Z</time></trkpt>
<trkpt lat="29.683158" lon="97.823811">
<time>2016-10-07T18:36:30Z</time></trkpt>
<trkpt lat="29.683128" lon="97.823791">
<time>2016-10-07T18:36:31Z</time></trkpt>
<trkpt lat="29.683108" lon="97.823781">
<time>2016-10-07T18:36:32Z</time></trkpt>
<trkpt lat="29.683088" lon="97.823761">
<time>2016-10-07T18:36:33Z</time></trkpt>
<trkpt lat="29.683068" lon="97.823751">
<time>2016-10-07T18:36:34Z</time></trkpt>
<trkpt lat="29.683058" lon="97.823731">
<time>2016-10-07T18:36:35Z</time></trkpt>
<trkpt lat="29.683038" lon="97.823721">
<time>2016-10-07T18:36:36Z</time></trkpt>
<trkpt lat="29.683028" lon="97.823701">
<time>2016-10-07T18:36:37Z</time></trkpt>
<trkpt lat="29.683008" lon="97.823671">
<time>2016-10-07T18:36:38Z</time></trkpt>
<trkpt lat="29.682977" lon="97.823621">
<time>2016-10-07T18:36:39Z</time></trkpt>
<trkpt lat="29.682947" lon="97.823561">
<time>2016-10-07T18:36:40Z</time></trkpt>
<trkpt lat="29.682857" lon="97.82339">
<time>2016-10-07T18:36:41Z</time></trkpt>
<trkpt lat="29.682586" lon="97.822869">
<time>2016-10-07T18:36:42Z</time></trkpt>
<trkpt lat="29.682476" lon="97.822659">
<time>2016-10-07T18:36:43Z</time></trkpt>
<trkpt lat="29.682365" lon="97.822448">
<time>2016-10-07T18:36:44Z</time></trkpt>
<trkpt lat="29.682335" lon="97.822398">
<time>2016-10-07T18:36:45Z</time></trkpt>
<trkpt lat="29.682295" lon="97.822328">
<time>2016-10-07T18:36:46Z</time></trkpt>
<trkpt lat="29.682255" lon="97.822278">
<time>2016-10-07T18:36:47Z</time></trkpt>
<trkpt lat="29.682215" lon="97.822228">
<time>2016-10-07T18:36:48Z</time></trkpt>
<trkpt lat="29.682175" lon="97.822177">
<time>2016-10-07T18:36:49Z</time></trkpt>
<trkpt lat="29.682145" lon="97.822147">
<time>2016-10-07T18:36:50Z</time></trkpt>
<trkpt lat="29.682065" lon="97.822067">
<time>2016-10-07T18:36:51Z</time></trkpt>
<trkpt lat="29.681604" lon="97.821606">
<time>2016-10-07T18:36:52Z</time></trkpt>
<trkpt lat="29.681404" lon="97.821416">
<time>2016-10-07T18:36:53Z</time></trkpt>
<trkpt lat="29.681354" lon="97.821356">
<time>2016-10-07T18:36:54Z</time></trkpt>
<trkpt lat="29.681314" lon="97.821315">
<time>2016-10-07T18:36:55Z</time></trkpt>
<trkpt lat="29.681283" lon="97.821275">
<time>2016-10-07T18:36:56Z</time></trkpt>
<trkpt lat="29.681253" lon="97.821225">
<time>2016-10-07T18:36:57Z</time></trkpt>
<trkpt lat="29.681233" lon="97.821185">
<time>2016-10-07T18:36:58Z</time></trkpt>
<trkpt lat="29.681223" lon="97.821155">
<time>2016-10-07T18:36:59Z</time></trkpt>
<trkpt lat="29.681213" lon="97.821125">
<time>2016-10-07T18:37:00Z</time></trkpt>
<trkpt lat="29.681203" lon="97.821075">
<time>2016-10-07T18:37:01Z</time></trkpt>
<trkpt lat="29.681193" lon="97.821025">
<time>2016-10-07T18:37:02Z</time></trkpt>
<trkpt lat="29.681193" lon="97.821005">
<time>2016-10-07T18:37:03Z</time></trkpt>
<trkpt lat="29.681193" lon="97.820975">
<time>2016-10-07T18:37:04Z</time></trkpt>
<trkpt lat="29.681203" lon="97.820914">
<time>2016-10-07T18:37:05Z</time></trkpt>
<trkpt lat="29.681213" lon="97.820854">
<time>2016-10-07T18:37:06Z</time></trkpt>
<trkpt lat="29.681222" lon="97.820764">
<time>2016-10-07T18:37:07Z</time></trkpt>
<trkpt lat="29.681242" lon="97.820684">
<time>2016-10-07T18:37:08Z</time></trkpt>
<trkpt lat="29.681252" lon="97.820654">
<time>2016-10-07T18:37:09Z</time></trkpt>
<trkpt lat="29.681272" lon="97.820604">
<time>2016-10-07T18:37:10Z</time></trkpt>
<trkpt lat="29.681292" lon="97.820544">
<time>2016-10-07T18:37:11Z</time></trkpt>
<trkpt lat="29.681332" lon="97.820463">
<time>2016-10-07T18:37:12Z</time></trkpt>
<trkpt lat="29.681372" lon="97.820383">
<time>2016-10-07T18:37:13Z</time></trkpt>
<trkpt lat="29.681392" lon="97.820353">
<time>2016-10-07T18:37:14Z</time></trkpt>
<trkpt lat="29.681422" lon="97.820313">
<time>2016-10-07T18:37:15Z</time></trkpt>
<trkpt lat="29.681461" lon="97.820253">
<time>2016-10-07T18:37:16Z</time></trkpt>
<trkpt lat="29.681491" lon="97.820223">
<time>2016-10-07T18:37:17Z</time></trkpt>
<trkpt lat="29.681521" lon="97.820193">
<time>2016-10-07T18:37:18Z</time></trkpt>
<trkpt lat="29.681541" lon="97.820173">
<time>2016-10-07T18:37:19Z</time></trkpt>
<trkpt lat="29.681581" lon="97.820153">
<time>2016-10-07T18:37:20Z</time></trkpt>
<trkpt lat="29.681641" lon="97.820113">
<time>2016-10-07T18:37:21Z</time></trkpt>
<trkpt lat="29.681701" lon="97.820093">
<time>2016-10-07T18:37:22Z</time></trkpt>
<trkpt lat="29.681791" lon="97.820052">
<time>2016-10-07T18:37:23Z</time></trkpt>
<trkpt lat="29.681851" lon="97.820022">
<time>2016-10-07T18:37:24Z</time></trkpt>
<trkpt lat="29.681931" lon="97.820002">
<time>2016-10-07T18:37:25Z</time></trkpt>
<trkpt lat="29.681961" lon="97.819992">
<time>2016-10-07T18:37:26Z</time></trkpt>
<trkpt lat="29.681991" lon="97.819982">
<time>2016-10-07T18:37:27Z</time></trkpt>
<trkpt lat="29.682041" lon="97.819972">
<time>2016-10-07T18:37:28Z</time></trkpt>
<trkpt lat="29.682081" lon="97.819972">
<time>2016-10-07T18:37:29Z</time></trkpt>
<trkpt lat="29.682141" lon="97.819962">
<time>2016-10-07T18:37:30Z</time></trkpt>
<trkpt lat="29.682201" lon="97.819962">
<time>2016-10-07T18:37:31Z</time></trkpt>
<trkpt lat="29.682231" lon="97.819962">
<time>2016-10-07T18:37:32Z</time></trkpt>
<trkpt lat="29.682301" lon="97.819962">
<time>2016-10-07T18:37:33Z</time></trkpt>
<trkpt lat="29.682391" lon="97.819972">
<time>2016-10-07T18:37:34Z</time></trkpt>
<trkpt lat="29.682471" lon="97.819982">
<time>2016-10-07T18:37:35Z</time></trkpt>
<trkpt lat="29.682541" lon="97.820002">
<time>2016-10-07T18:37:36Z</time></trkpt>
<trkpt lat="29.682781" lon="97.820052">
<time>2016-10-07T18:37:37Z</time></trkpt>
<trkpt lat="29.683101" lon="97.820123">
<time>2016-10-07T18:37:38Z</time></trkpt>
<trkpt lat="29.683321" lon="97.820163">
<time>2016-10-07T18:37:39Z</time></trkpt>
<trkpt lat="29.683401" lon="97.820173">
<time>2016-10-07T18:37:40Z</time></trkpt>
<trkpt lat="29.683471" lon="97.820183">
<time>2016-10-07T18:37:41Z</time></trkpt>
<trkpt lat="29.683541" lon="97.820193">
<time>2016-10-07T18:37:42Z</time></trkpt>
<trkpt lat="29.683611" lon="97.820203">
<time>2016-10-07T18:37:43Z</time></trkpt>
<trkpt lat="29.683671" lon="97.820213">
<time>2016-10-07T18:37:44Z</time></trkpt>
<trkpt lat="29.683741" lon="97.820213">
<time>2016-10-07T18:37:45Z</time></trkpt>
<trkpt lat="29.683881" lon="97.820213">
<time>2016-10-07T18:37:46Z</time></trkpt>
<trkpt lat="29.683981" lon="97.820213">
<time>2016-10-07T18:37:47Z</time></trkpt>
<trkpt lat="29.684031" lon="97.820213">
<time>2016-10-07T18:37:48Z</time></trkpt>
<trkpt lat="29.684101" lon="97.820213">
<time>2016-10-07T18:37:49Z</time></trkpt>
<trkpt lat="29.684161" lon="97.820203">
<time>2016-10-07T18:37:50Z</time></trkpt>
<trkpt lat="29.684231" lon="97.820203">
<time>2016-10-07T18:37:51Z</time></trkpt>
<trkpt lat="29.684281" lon="97.820193">
<time>2016-10-07T18:37:52Z</time></trkpt>
<trkpt lat="29.684371" lon="97.820173">
<time>2016-10-07T18:37:53Z</time></trkpt>
<trkpt lat="29.684441" lon="97.820153">
<time>2016-10-07T18:37:54Z</time></trkpt>
<trkpt lat="29.684521" lon="97.820123">
<time>2016-10-07T18:37:55Z</time></trkpt>
<trkpt lat="29.684561" lon="97.820103">
<time>2016-10-07T18:37:56Z</time></trkpt>
<trkpt lat="29.684641" lon="97.820072">
<time>2016-10-07T18:37:57Z</time></trkpt>
<trkpt lat="29.68472" lon="97.820042">
<time>2016-10-07T18:37:58Z</time></trkpt>
<trkpt lat="29.68478" lon="97.820002">
<time>2016-10-07T18:37:59Z</time></trkpt>
<trkpt lat="29.68485" lon="97.819962">
<time>2016-10-07T18:38:00Z</time></trkpt>
<trkpt lat="29.68491" lon="97.819912">
<time>2016-10-07T18:38:01Z</time></trkpt>
<trkpt lat="29.68498" lon="97.819852">
<time>2016-10-07T18:38:02Z</time></trkpt>
<trkpt lat="29.68509" lon="97.819772">
<time>2016-10-07T18:38:03Z</time></trkpt>
<trkpt lat="29.685399" lon="97.819511">
<time>2016-10-07T18:38:04Z</time></trkpt>
<trkpt lat="29.685549" lon="97.819401">
<time>2016-10-07T18:38:05Z</time></trkpt>
<trkpt lat="29.685719" lon="97.819301">
<time>2016-10-07T18:38:06Z</time></trkpt>
<trkpt lat="29.686118" lon="97.81905">
<time>2016-10-07T18:38:07Z</time></trkpt>
<trkpt lat="29.686318" lon="97.81891">
<time>2016-10-07T18:38:08Z</time></trkpt>
<trkpt lat="29.686598" lon="97.818699">
<time>2016-10-07T18:38:09Z</time></trkpt>
<trkpt lat="29.686957" lon="97.818408">
<time>2016-10-07T18:38:10Z</time></trkpt>
<trkpt lat="29.687017" lon="97.818358">
<time>2016-10-07T18:38:11Z</time></trkpt>
<trkpt lat="29.687107" lon="97.818308">
<time>2016-10-07T18:38:12Z</time></trkpt>
<trkpt lat="29.687257" lon="97.818248">
<time>2016-10-07T18:38:13Z</time></trkpt>
<trkpt lat="29.687346" lon="97.818198">
<time>2016-10-07T18:38:14Z</time></trkpt>
<trkpt lat="29.687426" lon="97.818158">
<time>2016-10-07T18:38:15Z</time></trkpt>
<trkpt lat="29.687456" lon="97.818138">
<time>2016-10-07T18:38:16Z</time></trkpt>
<trkpt lat="29.687486" lon="97.818118">
<time>2016-10-07T18:38:17Z</time></trkpt>
<trkpt lat="29.687546" lon="97.818068">
<time>2016-10-07T18:38:18Z</time></trkpt>
<trkpt lat="29.687606" lon="97.817988">
<time>2016-10-07T18:38:19Z</time></trkpt>
<trkpt lat="29.687666" lon="97.817917">
<time>2016-10-07T18:38:20Z</time></trkpt>
<trkpt lat="29.687726" lon="97.817827">
<time>2016-10-07T18:38:21Z</time></trkpt>
<trkpt lat="29.687845" lon="97.817617">
<time>2016-10-07T18:38:22Z</time></trkpt>
<trkpt lat="29.687925" lon="97.817526">
<time>2016-10-07T18:38:23Z</time></trkpt>
<trkpt lat="29.687975" lon="97.817466">
<time>2016-10-07T18:38:24Z</time></trkpt>
<trkpt lat="29.688045" lon="97.817416">
<time>2016-10-07T18:38:25Z</time></trkpt>
<trkpt lat="29.688125" lon="97.817356">
<time>2016-10-07T18:38:26Z</time></trkpt>
<trkpt lat="29.688185" lon="97.817336">
<time>2016-10-07T18:38:27Z</time></trkpt>
<trkpt lat="29.688245" lon="97.817316">
<time>2016-10-07T18:38:28Z</time></trkpt>
<trkpt lat="29.688305" lon="97.817296">
<time>2016-10-07T18:38:29Z</time></trkpt>
<trkpt lat="29.688405" lon="97.817276">
<time>2016-10-07T18:38:30Z</time></trkpt>
<trkpt lat="29.688495" lon="97.817256">
<time>2016-10-07T18:38:31Z</time></trkpt>
<trkpt lat="29.688664" lon="97.817226">
<time>2016-10-07T18:38:32Z</time></trkpt>
<trkpt lat="29.689044" lon="97.817216">
<time>2016-10-07T18:38:33Z</time></trkpt>
<trkpt lat="29.689334" lon="97.817186">
<time>2016-10-07T18:38:34Z</time></trkpt>
<trkpt lat="29.689524" lon="97.817166">
<time>2016-10-07T18:38:35Z</time></trkpt>
<trkpt lat="29.689804" lon="97.817135">
<time>2016-10-07T18:38:36Z</time></trkpt>
<trkpt lat="29.689874" lon="97.817135">
<time>2016-10-07T18:38:37Z</time></trkpt>
<trkpt lat="29.690004" lon="97.817125">
<time>2016-10-07T18:38:38Z</time></trkpt>
<trkpt lat="29.690124" lon="97.817135">
<time>2016-10-07T18:38:39Z</time></trkpt>
<trkpt lat="29.690264" lon="97.817146">
<time>2016-10-07T18:38:40Z</time></trkpt>
<trkpt lat="29.690434" lon="97.817166">
<time>2016-10-07T18:38:41Z</time></trkpt>
<trkpt lat="29.690564" lon="97.817186">
<time>2016-10-07T18:38:42Z</time></trkpt>
<trkpt lat="29.690764" lon="97.817196">
<time>2016-10-07T18:38:43Z</time></trkpt>
<trkpt lat="29.690874" lon="97.817206">
<time>2016-10-07T18:38:44Z</time></trkpt>
<trkpt lat="29.690984" lon="97.817196">
<time>2016-10-07T18:38:45Z</time></trkpt>
<trkpt lat="29.691054" lon="97.817186">
<time>2016-10-07T18:38:46Z</time></trkpt>
<trkpt lat="29.691144" lon="97.817166">
<time>2016-10-07T18:38:47Z</time></trkpt>
<trkpt lat="29.691244" lon="97.817145">
<time>2016-10-07T18:38:48Z</time></trkpt>
<trkpt lat="29.691384" lon="97.817105">
<time>2016-10-07T18:38:49Z</time></trkpt>
<trkpt lat="29.691624" lon="97.817045">
<time>2016-10-07T18:38:50Z</time></trkpt>
<trkpt lat="29.691813" lon="97.816995">
<time>2016-10-07T18:38:51Z</time></trkpt>
<trkpt lat="29.691893" lon="97.816985">
<time>2016-10-07T18:38:52Z</time></trkpt>
<trkpt lat="29.691993" lon="97.816965">
<time>2016-10-07T18:38:53Z</time></trkpt>
<trkpt lat="29.692083" lon="97.816955">
<time>2016-10-07T18:38:54Z</time></trkpt>
<trkpt lat="29.692233" lon="97.816945">
<time>2016-10-07T18:38:55Z</time></trkpt>
<trkpt lat="29.692373" lon="97.816945">
<time>2016-10-07T18:38:56Z</time></trkpt>
<trkpt lat="29.692523" lon="97.816945">
<time>2016-10-07T18:38:57Z</time></trkpt>
<trkpt lat="29.692763" lon="97.816925">
<time>2016-10-07T18:38:58Z</time></trkpt>
<trkpt lat="29.693013" lon="97.816915">
<time>2016-10-07T18:38:59Z</time></trkpt>
<trkpt lat="29.693153" lon="97.816915">
<time>2016-10-07T18:39:00Z</time></trkpt>
<trkpt lat="29.693253" lon="97.816905">
<time>2016-10-07T18:39:01Z</time></trkpt>
<trkpt lat="29.693353" lon="97.816905">
<time>2016-10-07T18:39:02Z</time></trkpt>
<trkpt lat="29.693443" lon="97.816915">
<time>2016-10-07T18:39:03Z</time></trkpt>
<trkpt lat="29.693523" lon="97.816925">
<time>2016-10-07T18:39:04Z</time></trkpt>
<trkpt lat="29.693573" lon="97.816935">
<time>2016-10-07T18:39:05Z</time></trkpt>
<trkpt lat="29.693653" lon="97.816955">
<time>2016-10-07T18:39:06Z</time></trkpt>
<trkpt lat="29.693733" lon="97.816985">
<time>2016-10-07T18:39:07Z</time></trkpt>
<trkpt lat="29.693833" lon="97.817015">
<time>2016-10-07T18:39:08Z</time></trkpt>
<trkpt lat="29.693933" lon="97.817045">
<time>2016-10-07T18:39:09Z</time></trkpt>
<trkpt lat="29.694033" lon="97.817065">
<time>2016-10-07T18:39:10Z</time></trkpt>
<trkpt lat="29.694213" lon="97.817085">
<time>2016-10-07T18:39:11Z</time></trkpt>
<trkpt lat="29.694443" lon="97.817115">
<time>2016-10-07T18:39:12Z</time></trkpt>
<trkpt lat="29.694773" lon="97.817155">
<time>2016-10-07T18:39:13Z</time></trkpt>
<trkpt lat="29.694873" lon="97.817165">
<time>2016-10-07T18:39:14Z</time></trkpt>
<trkpt lat="29.694953" lon="97.817155">
<time>2016-10-07T18:39:15Z</time></trkpt>
<trkpt lat="29.695023" lon="97.817155">
<time>2016-10-07T18:39:16Z</time></trkpt>
<trkpt lat="29.695113" lon="97.817145">
<time>2016-10-07T18:39:17Z</time></trkpt>
<trkpt lat="29.695193" lon="97.817125">
<time>2016-10-07T18:39:18Z</time></trkpt>
<trkpt lat="29.695273" lon="97.817095">
<time>2016-10-07T18:39:19Z</time></trkpt>
<trkpt lat="29.695473" lon="97.817035">
<time>2016-10-07T18:39:20Z</time></trkpt>
<trkpt lat="29.695543" lon="97.817015">
<time>2016-10-07T18:39:21Z</time></trkpt>
<trkpt lat="29.695693" lon="97.816945">
<time>2016-10-07T18:39:22Z</time></trkpt>
<trkpt lat="29.696142" lon="97.816724">
<time>2016-10-07T18:39:23Z</time></trkpt>
<trkpt lat="29.696961" lon="97.816323">
<time>2016-10-07T18:39:24Z</time></trkpt>
<trkpt lat="29.697351" lon="97.816143">
<time>2016-10-07T18:39:25Z</time></trkpt>
<trkpt lat="29.697571" lon="97.816043">
<time>2016-10-07T18:39:26Z</time></trkpt>
<trkpt lat="29.69767" lon="97.815983">
<time>2016-10-07T18:39:27Z</time></trkpt>
<trkpt lat="29.69773" lon="97.815943">
<time>2016-10-07T18:39:28Z</time></trkpt>
<trkpt lat="29.69781" lon="97.815882">
<time>2016-10-07T18:39:29Z</time></trkpt>
<trkpt lat="29.69786" lon="97.815842">
<time>2016-10-07T18:39:30Z</time></trkpt>
<trkpt lat="29.69791" lon="97.815782">
<time>2016-10-07T18:39:31Z</time></trkpt>
<trkpt lat="29.69799" lon="97.815672">
<time>2016-10-07T18:39:32Z</time></trkpt>
<trkpt lat="29.69806" lon="97.815592">
<time>2016-10-07T18:39:33Z</time></trkpt>
<trkpt lat="29.698119" lon="97.815522">
<time>2016-10-07T18:39:34Z</time></trkpt>
<trkpt lat="29.698379" lon="97.815201">
<time>2016-10-07T18:39:35Z</time></trkpt>
<trkpt lat="29.698728" lon="97.81477">
<time>2016-10-07T18:39:36Z</time></trkpt>
<trkpt lat="29.698967" lon="97.814469">
<time>2016-10-07T18:39:37Z</time></trkpt>
<trkpt lat="29.699147" lon="97.814219">
<time>2016-10-07T18:39:38Z</time></trkpt>
<trkpt lat="29.699366" lon="97.813878">
<time>2016-10-07T18:39:39Z</time></trkpt>
<trkpt lat="29.699516" lon="97.813627">
<time>2016-10-07T18:39:40Z</time></trkpt>
<trkpt lat="29.699845" lon="97.813096">
<time>2016-10-07T18:39:41Z</time></trkpt>
<trkpt lat="29.699984" lon="97.812865">
<time>2016-10-07T18:39:42Z</time></trkpt>
<trkpt lat="29.700044" lon="97.812755">
<time>2016-10-07T18:39:43Z</time></trkpt>
<trkpt lat="29.700104" lon="97.812645">
<time>2016-10-07T18:39:44Z</time></trkpt>
<trkpt lat="29.700154" lon="97.812535">
<time>2016-10-07T18:39:45Z</time></trkpt>
<trkpt lat="29.700174" lon="97.812475">
<time>2016-10-07T18:39:46Z</time></trkpt>
<trkpt lat="29.700243" lon="97.812314">
<time>2016-10-07T18:39:47Z</time></trkpt>
<trkpt lat="29.700333" lon="97.812134">
<time>2016-10-07T18:39:48Z</time></trkpt>
<trkpt lat="29.700433" lon="97.811913">
<time>2016-10-07T18:39:49Z</time></trkpt>
<trkpt lat="29.700462" lon="97.811833">
<time>2016-10-07T18:39:50Z</time></trkpt>
<trkpt lat="29.700492" lon="97.811743">
<time>2016-10-07T18:39:51Z</time></trkpt>
<trkpt lat="29.700512" lon="97.811673">
<time>2016-10-07T18:39:52Z</time></trkpt>
<trkpt lat="29.700522" lon="97.811603">
<time>2016-10-07T18:39:53Z</time></trkpt>
<trkpt lat="29.700532" lon="97.811532">
<time>2016-10-07T18:39:54Z</time></trkpt>
<trkpt lat="29.700542" lon="97.811472">
<time>2016-10-07T18:39:55Z</time></trkpt>
<trkpt lat="29.700542" lon="97.811402">
<time>2016-10-07T18:39:56Z</time></trkpt>
<trkpt lat="29.700531" lon="97.811212">
<time>2016-10-07T18:39:57Z</time></trkpt>
<trkpt lat="29.700501" lon="97.811001">
<time>2016-10-07T18:39:58Z</time></trkpt>
<trkpt lat="29.700481" lon="97.810851">
<time>2016-10-07T18:39:59Z</time></trkpt>
<trkpt lat="29.70048" lon="97.810731">
<time>2016-10-07T18:40:00Z</time></trkpt>
<trkpt lat="29.70047" lon="97.81062">
<time>2016-10-07T18:40:01Z</time></trkpt>
<trkpt lat="29.70048" lon="97.81044">
<time>2016-10-07T18:40:02Z</time></trkpt>
<trkpt lat="29.700549" lon="97.809879">
<time>2016-10-07T18:40:03Z</time></trkpt>
<trkpt lat="29.700687" lon="97.808846">
<time>2016-10-07T18:40:04Z</time></trkpt>
<trkpt lat="29.700697" lon="97.808666">
<time>2016-10-07T18:40:05Z</time></trkpt>
<trkpt lat="29.700726" lon="97.808405">
<time>2016-10-07T18:40:06Z</time></trkpt>
<trkpt lat="29.700756" lon="97.808195">
<time>2016-10-07T18:40:07Z</time></trkpt>
<trkpt lat="29.700776" lon="97.808045">
<time>2016-10-07T18:40:08Z</time></trkpt>
<trkpt lat="29.700786" lon="97.807975">
<time>2016-10-07T18:40:09Z</time></trkpt>
<trkpt lat="29.700805" lon="97.807874">
<time>2016-10-07T18:40:10Z</time></trkpt>
<trkpt lat="29.700835" lon="97.807764">
<time>2016-10-07T18:40:11Z</time></trkpt>
<trkpt lat="29.700875" lon="97.807664">
<time>2016-10-07T18:40:12Z</time></trkpt>
<trkpt lat="29.700925" lon="97.807524">
<time>2016-10-07T18:40:13Z</time></trkpt>
<trkpt lat="29.700965" lon="97.807433">
<time>2016-10-07T18:40:14Z</time></trkpt>
<trkpt lat="29.701024" lon="97.807323">
<time>2016-10-07T18:40:15Z</time></trkpt>
<trkpt lat="29.701124" lon="97.807153">
<time>2016-10-07T18:40:16Z</time></trkpt>
<trkpt lat="29.701214" lon="97.807032">
<time>2016-10-07T18:40:17Z</time></trkpt>
<trkpt lat="29.701423" lon="97.806742">
<time>2016-10-07T18:40:18Z</time></trkpt>
<trkpt lat="29.702092" lon="97.80581">
<time>2016-10-07T18:40:19Z</time></trkpt>
<trkpt lat="29.702371" lon="97.805409">
<time>2016-10-07T18:40:20Z</time></trkpt>
<trkpt lat="29.70255" lon="97.805148">
<time>2016-10-07T18:40:21Z</time></trkpt>
<trkpt lat="29.702999" lon="97.804517">
<time>2016-10-07T18:40:22Z</time></trkpt>
<trkpt lat="29.703298" lon="97.804096">
<time>2016-10-07T18:40:23Z</time></trkpt>
<trkpt lat="29.703568" lon="97.803705">
<time>2016-10-07T18:40:24Z</time></trkpt>
<trkpt lat="29.703747" lon="97.803435">
<time>2016-10-07T18:40:25Z</time></trkpt>
<trkpt lat="29.703887" lon="97.803204">
<time>2016-10-07T18:40:26Z</time></trkpt>
<trkpt lat="29.703957" lon="97.803094">
<time>2016-10-07T18:40:27Z</time></trkpt>
<trkpt lat="29.704026" lon="97.802964">
<time>2016-10-07T18:40:28Z</time></trkpt>
<trkpt lat="29.704086" lon="97.802843">
<time>2016-10-07T18:40:29Z</time></trkpt>
<trkpt lat="29.704146" lon="97.802713">
<time>2016-10-07T18:40:30Z</time></trkpt>
<trkpt lat="29.704216" lon="97.802553">
<time>2016-10-07T18:40:31Z</time></trkpt>
<trkpt lat="29.704295" lon="97.802352">
<time>2016-10-07T18:40:32Z</time></trkpt>
<trkpt lat="29.704395" lon="97.802082">
<time>2016-10-07T18:40:33Z</time></trkpt>
<trkpt lat="29.704465" lon="97.801851">
<time>2016-10-07T18:40:34Z</time></trkpt>
<trkpt lat="29.704534" lon="97.801651">
<time>2016-10-07T18:40:35Z</time></trkpt>
<trkpt lat="29.704703" lon="97.80108">
<time>2016-10-07T18:40:36Z</time></trkpt>
<trkpt lat="29.704803" lon="97.800739">
<time>2016-10-07T18:40:37Z</time></trkpt>
<trkpt lat="29.704952" lon="97.800248">
<time>2016-10-07T18:40:38Z</time></trkpt>
<trkpt lat="29.705191" lon="97.799456">
<time>2016-10-07T18:40:39Z</time></trkpt>
<trkpt lat="29.70527" lon="97.799196">
<time>2016-10-07T18:40:40Z</time></trkpt>
<trkpt lat="29.70538" lon="97.798825">
<time>2016-10-07T18:40:41Z</time></trkpt>
<trkpt lat="29.705459" lon="97.798595">
<time>2016-10-07T18:40:42Z</time></trkpt>
<trkpt lat="29.705529" lon="97.798334">
<time>2016-10-07T18:40:43Z</time></trkpt>
<trkpt lat="29.705618" lon="97.798054">
<time>2016-10-07T18:40:44Z</time></trkpt>
<trkpt lat="29.705857" lon="97.797282">
<time>2016-10-07T18:40:45Z</time></trkpt>
<trkpt lat="29.706016" lon="97.796761">
<time>2016-10-07T18:40:46Z</time></trkpt>
<trkpt lat="29.706116" lon="97.79642">
<time>2016-10-07T18:40:47Z</time></trkpt>
<trkpt lat="29.706315" lon="97.795789">
<time>2016-10-07T18:40:48Z</time></trkpt>
<trkpt lat="29.706454" lon="97.795308">
<time>2016-10-07T18:40:49Z</time></trkpt>
<trkpt lat="29.706573" lon="97.794938">
<time>2016-10-07T18:40:50Z</time></trkpt>
<trkpt lat="29.706623" lon="97.794757">
<time>2016-10-07T18:40:51Z</time></trkpt>
<trkpt lat="29.706742" lon="97.794366">
<time>2016-10-07T18:40:52Z</time></trkpt>
<trkpt lat="29.706902" lon="97.793855">
<time>2016-10-07T18:40:53Z</time></trkpt>
<trkpt lat="29.707091" lon="97.793214">
<time>2016-10-07T18:40:54Z</time></trkpt>
<trkpt lat="29.70734" lon="97.792393">
<time>2016-10-07T18:40:55Z</time></trkpt>
<trkpt lat="29.707449" lon="97.792052">
<time>2016-10-07T18:40:56Z</time></trkpt>
<trkpt lat="29.707549" lon="97.791802">
<time>2016-10-07T18:40:57Z</time></trkpt>
<trkpt lat="29.707608" lon="97.791621">
<time>2016-10-07T18:40:58Z</time></trkpt>
<trkpt lat="29.707638" lon="97.791551">
<time>2016-10-07T18:40:59Z</time></trkpt>
<trkpt lat="29.707668" lon="97.791461">
<time>2016-10-07T18:41:00Z</time></trkpt>
<trkpt lat="29.707698" lon="97.791361">
<time>2016-10-07T18:41:01Z</time></trkpt>
<trkpt lat="29.707718" lon="97.791281">
<time>2016-10-07T18:41:02Z</time></trkpt>
<trkpt lat="29.707768" lon="97.79101">
<time>2016-10-07T18:41:03Z</time></trkpt>
<trkpt lat="29.707777" lon="97.79094">
<time>2016-10-07T18:41:04Z</time></trkpt>
<trkpt lat="29.707807" lon="97.79087">
<time>2016-10-07T18:41:05Z</time></trkpt>
<trkpt lat="29.707827" lon="97.7908">
<time>2016-10-07T18:41:06Z</time></trkpt>
<trkpt lat="29.707847" lon="97.79074">
<time>2016-10-07T18:41:07Z</time></trkpt>
<trkpt lat="29.707877" lon="97.79066">
<time>2016-10-07T18:41:08Z</time></trkpt>
<trkpt lat="29.707927" lon="97.790569">
<time>2016-10-07T18:41:09Z</time></trkpt>
<trkpt lat="29.708027" lon="97.790389">
<time>2016-10-07T18:41:10Z</time></trkpt>
<trkpt lat="29.708106" lon="97.790239">
<time>2016-10-07T18:41:11Z</time></trkpt>
<trkpt lat="29.708186" lon="97.790089">
<time>2016-10-07T18:41:12Z</time></trkpt>
<trkpt lat="29.708266" lon="97.789928">
<time>2016-10-07T18:41:13Z</time></trkpt>
<trkpt lat="29.708346" lon="97.789738">
<time>2016-10-07T18:41:14Z</time></trkpt>
<trkpt lat="29.708415" lon="97.789558">
<time>2016-10-07T18:41:15Z</time></trkpt>
<trkpt lat="29.708485" lon="97.789367">
<time>2016-10-07T18:41:16Z</time></trkpt>
<trkpt lat="29.708545" lon="97.789207">
<time>2016-10-07T18:41:17Z</time></trkpt>
<trkpt lat="29.708575" lon="97.789137">
<time>2016-10-07T18:41:18Z</time></trkpt>
<trkpt lat="29.708615" lon="97.789067">
<time>2016-10-07T18:41:19Z</time></trkpt>
<trkpt lat="29.708705" lon="97.788927">
<time>2016-10-07T18:41:20Z</time></trkpt>
<trkpt lat="29.709034" lon="97.788426">
<time>2016-10-07T18:41:21Z</time></trkpt>
<trkpt lat="29.709183" lon="97.788215">
<time>2016-10-07T18:41:22Z</time></trkpt>
<trkpt lat="29.709872" lon="97.787184">
<time>2016-10-07T18:41:23Z</time></trkpt>
<trkpt lat="29.710012" lon="97.786993">
<time>2016-10-07T18:41:24Z</time></trkpt>
<trkpt lat="29.710062" lon="97.786933">
<time>2016-10-07T18:41:25Z</time></trkpt>
<trkpt lat="29.710112" lon="97.786893">
<time>2016-10-07T18:41:26Z</time></trkpt>
<trkpt lat="29.710152" lon="97.786873">
<time>2016-10-07T18:41:27Z</time></trkpt>
<trkpt lat="29.710202" lon="97.786843">
<time>2016-10-07T18:41:28Z</time></trkpt>
<trkpt lat="29.710262" lon="97.786823">
<time>2016-10-07T18:41:29Z</time></trkpt>
<trkpt lat="29.710311" lon="97.786813">
<time>2016-10-07T18:41:30Z</time></trkpt>
<trkpt lat="29.710381" lon="97.786813">
<time>2016-10-07T18:41:31Z</time></trkpt>
<trkpt lat="29.710421" lon="97.786813">
<time>2016-10-07T18:41:32Z</time></trkpt>
<trkpt lat="29.710481" lon="97.786823">
<time>2016-10-07T18:41:33Z</time></trkpt>
<trkpt lat="29.710531" lon="97.786843">
<time>2016-10-07T18:41:34Z</time></trkpt>
<trkpt lat="29.710591" lon="97.786853">
<time>2016-10-07T18:41:35Z</time></trkpt>
<trkpt lat="29.710712" lon="97.786903">
<time>2016-10-07T18:41:36Z</time></trkpt>
<trkpt lat="29.710822" lon="97.786953">
<time>2016-10-07T18:41:37Z</time></trkpt>
<trkpt lat="29.710952" lon="97.787013">
<time>2016-10-07T18:41:38Z</time></trkpt>
<trkpt lat="29.711152" lon="97.787103">
<time>2016-10-07T18:41:39Z</time></trkpt>
<trkpt lat="29.711292" lon="97.787163">
<time>2016-10-07T18:41:40Z</time></trkpt>
<trkpt lat="29.711692" lon="97.787344">
<time>2016-10-07T18:41:41Z</time></trkpt>
<trkpt lat="29.711912" lon="97.787444">
<time>2016-10-07T18:41:42Z</time></trkpt>
<trkpt lat="29.712002" lon="97.787484">
<time>2016-10-07T18:41:43Z</time></trkpt>
<trkpt lat="29.712102" lon="97.787524">
<time>2016-10-07T18:41:44Z</time></trkpt>
<trkpt lat="29.712142" lon="97.787544">
<time>2016-10-07T18:41:45Z</time></trkpt>
<trkpt lat="29.712182" lon="97.787554">
<time>2016-10-07T18:41:46Z</time></trkpt>
<trkpt lat="29.712232" lon="97.787564">
<time>2016-10-07T18:41:47Z</time></trkpt>
<trkpt lat="29.712282" lon="97.787574">
<time>2016-10-07T18:41:48Z</time></trkpt>
<trkpt lat="29.712332" lon="97.787584">
<time>2016-10-07T18:41:49Z</time></trkpt>
<trkpt lat="29.712402" lon="97.787584">
<time>2016-10-07T18:41:50Z</time></trkpt>
<trkpt lat="29.712472" lon="97.787584">
<time>2016-10-07T18:41:51Z</time></trkpt>
<trkpt lat="29.712542" lon="97.787594">
<time>2016-10-07T18:41:52Z</time></trkpt>
<trkpt lat="29.712732" lon="97.787594">
<time>2016-10-07T18:41:53Z</time></trkpt>
<trkpt lat="29.712912" lon="97.787594">
<time>2016-10-07T18:41:54Z</time></trkpt>
<trkpt lat="29.713152" lon="97.787604">
<time>2016-10-07T18:41:55Z</time></trkpt>
<trkpt lat="29.713452" lon="97.787614">
<time>2016-10-07T18:41:56Z</time></trkpt>
<trkpt lat="29.713542" lon="97.787614">
<time>2016-10-07T18:41:57Z</time></trkpt>
<trkpt lat="29.713702" lon="97.787624">
<time>2016-10-07T18:41:58Z</time></trkpt>
<trkpt lat="29.713922" lon="97.787644">
<time>2016-10-07T18:41:59Z</time></trkpt>
<trkpt lat="29.714052" lon="97.787664">
<time>2016-10-07T18:42:00Z</time></trkpt>
<trkpt lat="29.714402" lon="97.787704">
<time>2016-10-07T18:42:01Z</time></trkpt>
<trkpt lat="29.714532" lon="97.787714">
<time>2016-10-07T18:42:02Z</time></trkpt>
<trkpt lat="29.714752" lon="97.787724">
<time>2016-10-07T18:42:03Z</time></trkpt>
<trkpt lat="29.715012" lon="97.787744">
<time>2016-10-07T18:42:04Z</time></trkpt>
<trkpt lat="29.715332" lon="97.787744">
<time>2016-10-07T18:42:05Z</time></trkpt>
<trkpt lat="29.715482" lon="97.787744">
<time>2016-10-07T18:42:06Z</time></trkpt>
<trkpt lat="29.715672" lon="97.787754">
<time>2016-10-07T18:42:07Z</time></trkpt>
<trkpt lat="29.715732" lon="97.787754">
<time>2016-10-07T18:42:08Z</time></trkpt>
<trkpt lat="29.715762" lon="97.787764">
<time>2016-10-07T18:42:09Z</time></trkpt>
<trkpt lat="29.715802" lon="97.787764">
<time>2016-10-07T18:42:10Z</time></trkpt>
<trkpt lat="29.715852" lon="97.787774">
<time>2016-10-07T18:42:11Z</time></trkpt>
<trkpt lat="29.715882" lon="97.787784">
<time>2016-10-07T18:42:12Z</time></trkpt>
<trkpt lat="29.715922" lon="97.787804">
<time>2016-10-07T18:42:13Z</time></trkpt>
<trkpt lat="29.715992" lon="97.787825">
<time>2016-10-07T18:42:14Z</time></trkpt>
<trkpt lat="29.716042" lon="97.787855">
<time>2016-10-07T18:42:15Z</time></trkpt>
<trkpt lat="29.716142" lon="97.787905">
<time>2016-10-07T18:42:16Z</time></trkpt>
<trkpt lat="29.716292" lon="97.787975">
<time>2016-10-07T18:42:17Z</time></trkpt>
<trkpt lat="29.716522" lon="97.788095">
<time>2016-10-07T18:42:18Z</time></trkpt>
<trkpt lat="29.716592" lon="97.788135">
<time>2016-10-07T18:42:19Z</time></trkpt>
<trkpt lat="29.716692" lon="97.788175">
<time>2016-10-07T18:42:20Z</time></trkpt>
<trkpt lat="29.716802" lon="97.788225">
<time>2016-10-07T18:42:21Z</time></trkpt>
<trkpt lat="29.716852" lon="97.788245">
<time>2016-10-07T18:42:22Z</time></trkpt>
<trkpt lat="29.716902" lon="97.788255">
<time>2016-10-07T18:42:23Z</time></trkpt>
<trkpt lat="29.716932" lon="97.788265">
<time>2016-10-07T18:42:24Z</time></trkpt>
<trkpt lat="29.716962" lon="97.788275">
<time>2016-10-07T18:42:25Z</time></trkpt>
<trkpt lat="29.717042" lon="97.788285">
<time>2016-10-07T18:42:26Z</time></trkpt>
<trkpt lat="29.717092" lon="97.788295">
<time>2016-10-07T18:42:27Z</time></trkpt>
<trkpt lat="29.717182" lon="97.788305">
<time>2016-10-07T18:42:28Z</time></trkpt>
<trkpt lat="29.717232" lon="97.788305">
<time>2016-10-07T18:42:29Z</time></trkpt>
<trkpt lat="29.717262" lon="97.788305">
<time>2016-10-07T18:42:30Z</time></trkpt>
<trkpt lat="29.717342" lon="97.788295">
<time>2016-10-07T18:42:31Z</time></trkpt>
<trkpt lat="29.717402" lon="97.788295">
<time>2016-10-07T18:42:32Z</time></trkpt>
<trkpt lat="29.717472" lon="97.788285">
<time>2016-10-07T18:42:33Z</time></trkpt>
<trkpt lat="29.717582" lon="97.788255">
<time>2016-10-07T18:42:34Z</time></trkpt>
<trkpt lat="29.717752" lon="97.788225">
<time>2016-10-07T18:42:35Z</time></trkpt>
<trkpt lat="29.717922" lon="97.788185">
<time>2016-10-07T18:42:36Z</time></trkpt>
<trkpt lat="29.718222" lon="97.788125">
<time>2016-10-07T18:42:37Z</time></trkpt>
<trkpt lat="29.718272" lon="97.788105">
<time>2016-10-07T18:42:38Z</time></trkpt>
<trkpt lat="29.718352" lon="97.788075">
<time>2016-10-07T18:42:39Z</time></trkpt>
<trkpt lat="29.718472" lon="97.788005">
<time>2016-10-07T18:42:40Z</time></trkpt>
<trkpt lat="29.718562" lon="97.787965">
<time>2016-10-07T18:42:41Z</time></trkpt>
<trkpt lat="29.718701" lon="97.787885">
<time>2016-10-07T18:42:42Z</time></trkpt>
<trkpt lat="29.719021" lon="97.787694">
<time>2016-10-07T18:42:43Z</time></trkpt>
<trkpt lat="29.719661" lon="97.787314">
<time>2016-10-07T18:42:44Z</time></trkpt>
<trkpt lat="29.72038" lon="97.786873">
<time>2016-10-07T18:42:45Z</time></trkpt>
<trkpt lat="29.720959" lon="97.786532">
<time>2016-10-07T18:42:46Z</time></trkpt>
<trkpt lat="29.721249" lon="97.786352">
<time>2016-10-07T18:42:47Z</time></trkpt>
<trkpt lat="29.722038" lon="97.785881">
<time>2016-10-07T18:42:48Z</time></trkpt>
<trkpt lat="29.722957" lon="97.78532">
<time>2016-10-07T18:42:49Z</time></trkpt>
<trkpt lat="29.723347" lon="97.78509">
<time>2016-10-07T18:42:50Z</time></trkpt>
<trkpt lat="29.723517" lon="97.78497">
<time>2016-10-07T18:42:51Z</time></trkpt>
<trkpt lat="29.723607" lon="97.78491">
<time>2016-10-07T18:42:52Z</time></trkpt>
<trkpt lat="29.723687" lon="97.784849">
<time>2016-10-07T18:42:53Z</time></trkpt>
<trkpt lat="29.723767" lon="97.784779">
<time>2016-10-07T18:42:54Z</time></trkpt>
<trkpt lat="29.723877" lon="97.784679">
<time>2016-10-07T18:42:55Z</time></trkpt>
<trkpt lat="29.723956" lon="97.784579">
<time>2016-10-07T18:42:56Z</time></trkpt>
<trkpt lat="29.724056" lon="97.784469">
<time>2016-10-07T18:42:57Z</time></trkpt>
<trkpt lat="29.724146" lon="97.784349">
<time>2016-10-07T18:42:58Z</time></trkpt>
<trkpt lat="29.724226" lon="97.784239">
<time>2016-10-07T18:42:59Z</time></trkpt>
<trkpt lat="29.724286" lon="97.784138">
<time>2016-10-07T18:43:00Z</time></trkpt>
<trkpt lat="29.724356" lon="97.784018">
<time>2016-10-07T18:43:01Z</time></trkpt>
<trkpt lat="29.724445" lon="97.783858">
<time>2016-10-07T18:43:02Z</time></trkpt>
<trkpt lat="29.724525" lon="97.783688">
<time>2016-10-07T18:43:03Z</time></trkpt>
<trkpt lat="29.724555" lon="97.783597">
<time>2016-10-07T18:43:04Z</time></trkpt>
<trkpt lat="29.724605" lon="97.783467">
<time>2016-10-07T18:43:05Z</time></trkpt>
<trkpt lat="29.724754" lon="97.783047">
<time>2016-10-07T18:43:06Z</time></trkpt>
<trkpt lat="29.725033" lon="97.782215">
<time>2016-10-07T18:43:07Z</time></trkpt>
<trkpt lat="29.725422" lon="97.781084">
<time>2016-10-07T18:43:08Z</time></trkpt>
<trkpt lat="29.725751" lon="97.780092">
<time>2016-10-07T18:43:09Z</time></trkpt>
<trkpt lat="29.726429" lon="97.778099">
<time>2016-10-07T18:43:10Z</time></trkpt>
<trkpt lat="29.726538" lon="97.777789">
<time>2016-10-07T18:43:11Z</time></trkpt>
<trkpt lat="29.726638" lon="97.777479">
<time>2016-10-07T18:43:12Z</time></trkpt>
<trkpt lat="29.726748" lon="97.777168">
<time>2016-10-07T18:43:13Z</time></trkpt>
<trkpt lat="29.726967" lon="97.776497">
<time>2016-10-07T18:43:14Z</time></trkpt>
<trkpt lat="29.727137" lon="97.775997">
<time>2016-10-07T18:43:15Z</time></trkpt>
<trkpt lat="29.727226" lon="97.775756">
<time>2016-10-07T18:43:16Z</time></trkpt>
<trkpt lat="29.727276" lon="97.775646">
<time>2016-10-07T18:43:17Z</time></trkpt>
<trkpt lat="29.727326" lon="97.775516">
<time>2016-10-07T18:43:18Z</time></trkpt>
<trkpt lat="29.727436" lon="97.775286">
<time>2016-10-07T18:43:19Z</time></trkpt>
<trkpt lat="29.727526" lon="97.775106">
<time>2016-10-07T18:43:20Z</time></trkpt>
<trkpt lat="29.727675" lon="97.774855">
<time>2016-10-07T18:43:21Z</time></trkpt>
<trkpt lat="29.727775" lon="97.774725">
<time>2016-10-07T18:43:22Z</time></trkpt>
<trkpt lat="29.727885" lon="97.774585">
<time>2016-10-07T18:43:23Z</time></trkpt>
<trkpt lat="29.727985" lon="97.774495">
<time>2016-10-07T18:43:24Z</time></trkpt>
<trkpt lat="29.728045" lon="97.774455">
<time>2016-10-07T18:43:25Z</time></trkpt>
<trkpt lat="29.728115" lon="97.774395">
<time>2016-10-07T18:43:26Z</time></trkpt>
<trkpt lat="29.728375" lon="97.774244">
<time>2016-10-07T18:43:27Z</time></trkpt>
<trkpt lat="29.728615" lon="97.774124">
<time>2016-10-07T18:43:28Z</time></trkpt>
<trkpt lat="29.728885" lon="97.773984">
<time>2016-10-07T18:43:29Z</time></trkpt>
<trkpt lat="29.729184" lon="97.773824">
<time>2016-10-07T18:43:30Z</time></trkpt>
<trkpt lat="29.729944" lon="97.773423">
<time>2016-10-07T18:43:31Z</time></trkpt>
<trkpt lat="29.730494" lon="97.773133">
<time>2016-10-07T18:43:32Z</time></trkpt>
<trkpt lat="29.730693" lon="97.773053">
<time>2016-10-07T18:43:33Z</time></trkpt>
<trkpt lat="29.731003" lon="97.772933">
<time>2016-10-07T18:43:34Z</time></trkpt>
<trkpt lat="29.731263" lon="97.772843">
<time>2016-10-07T18:43:35Z</time></trkpt>
<trkpt lat="29.731393" lon="97.772793">
<time>2016-10-07T18:43:36Z</time></trkpt>
<trkpt lat="29.731543" lon="97.772743">
<time>2016-10-07T18:43:37Z</time></trkpt>
<trkpt lat="29.731703" lon="97.772713">
<time>2016-10-07T18:43:38Z</time></trkpt>
<trkpt lat="29.731833" lon="97.772683">
<time>2016-10-07T18:43:39Z</time></trkpt>
<trkpt lat="29.732123" lon="97.772652">
<time>2016-10-07T18:43:40Z</time></trkpt>
<trkpt lat="29.732393" lon="97.772622">
<time>2016-10-07T18:43:41Z</time></trkpt>
<trkpt lat="29.732543" lon="97.772612">
<time>2016-10-07T18:43:42Z</time></trkpt>
<trkpt lat="29.732673" lon="97.772612">
<time>2016-10-07T18:43:43Z</time></trkpt>
<trkpt lat="29.732783" lon="97.772612">
<time>2016-10-07T18:43:44Z</time></trkpt>
<trkpt lat="29.732913" lon="97.772622">
<time>2016-10-07T18:43:45Z</time></trkpt>
<trkpt lat="29.733153" lon="97.772652">
<time>2016-10-07T18:43:46Z</time></trkpt>
<trkpt lat="29.733413" lon="97.772693">
<time>2016-10-07T18:43:47Z</time></trkpt>
<trkpt lat="29.733693" lon="97.772733">
<time>2016-10-07T18:43:48Z</time></trkpt>
<trkpt lat="29.733903" lon="97.772763">
<time>2016-10-07T18:43:49Z</time></trkpt>
<trkpt lat="29.734043" lon="97.772783">
<time>2016-10-07T18:43:50Z</time></trkpt>
<trkpt lat="29.734163" lon="97.772793">
<time>2016-10-07T18:43:51Z</time></trkpt>
<trkpt lat="29.734233" lon="97.772793">
<time>2016-10-07T18:43:52Z</time></trkpt>
<trkpt lat="29.734343" lon="97.772793">
<time>2016-10-07T18:43:53Z</time></trkpt>
<trkpt lat="29.734413" lon="97.772773">
<time>2016-10-07T18:43:54Z</time></trkpt>
<trkpt lat="29.734493" lon="97.772763">
<time>2016-10-07T18:43:55Z</time></trkpt>
<trkpt lat="29.734623" lon="97.772713">
<time>2016-10-07T18:43:56Z</time></trkpt>
<trkpt lat="29.734723" lon="97.772682">
<time>2016-10-07T18:43:57Z</time></trkpt>
<trkpt lat="29.734802" lon="97.772652">
<time>2016-10-07T18:43:58Z</time></trkpt>
<trkpt lat="29.734972" lon="97.772562">
<time>2016-10-07T18:43:59Z</time></trkpt>
<trkpt lat="29.735192" lon="97.772442">
<time>2016-10-07T18:44:00Z</time></trkpt>
<trkpt lat="29.735422" lon="97.772312">
<time>2016-10-07T18:44:01Z</time></trkpt>
<trkpt lat="29.735592" lon="97.772242">
<time>2016-10-07T18:44:02Z</time></trkpt>
<trkpt lat="29.735732" lon="97.772192">
<time>2016-10-07T18:44:03Z</time></trkpt>
<trkpt lat="29.735902" lon="97.772162">
<time>2016-10-07T18:44:04Z</time></trkpt>
<trkpt lat="29.736322" lon="97.772072">
<time>2016-10-07T18:44:05Z</time></trkpt>
<trkpt lat="29.736512" lon="97.772042">
<time>2016-10-07T18:44:06Z</time></trkpt>
<trkpt lat="29.736622" lon="97.772002">
<time>2016-10-07T18:44:07Z</time></trkpt>
<trkpt lat="29.736742" lon="97.771962">
<time>2016-10-07T18:44:08Z</time></trkpt>
<trkpt lat="29.736822" lon="97.771922">
<time>2016-10-07T18:44:09Z</time></trkpt>
<trkpt lat="29.736921" lon="97.771862">
<time>2016-10-07T18:44:10Z</time></trkpt>
<trkpt lat="29.737081" lon="97.771751">
<time>2016-10-07T18:44:11Z</time></trkpt>
<trkpt lat="29.737241" lon="97.771631">
<time>2016-10-07T18:44:12Z</time></trkpt>
<trkpt lat="29.737381" lon="97.771521">
<time>2016-10-07T18:44:13Z</time></trkpt>
<trkpt lat="29.737521" lon="97.771401">
<time>2016-10-07T18:44:14Z</time></trkpt>
<trkpt lat="29.737651" lon="97.771271">
<time>2016-10-07T18:44:15Z</time></trkpt>
<trkpt lat="29.737721" lon="97.771161">
<time>2016-10-07T18:44:16Z</time></trkpt>
<trkpt lat="29.737761" lon="97.771091">
<time>2016-10-07T18:44:17Z</time></trkpt>
<trkpt lat="29.737781" lon="97.771041">
<time>2016-10-07T18:44:18Z</time></trkpt>
<trkpt lat="29.737831" lon="97.7709">
<time>2016-10-07T18:44:19Z</time></trkpt>
<trkpt lat="29.737861" lon="97.77078">
<time>2016-10-07T18:44:20Z</time></trkpt>
<trkpt lat="29.7379" lon="97.77066">
<time>2016-10-07T18:44:21Z</time></trkpt>
<trkpt lat="29.73792" lon="97.77059">
<time>2016-10-07T18:44:22Z</time></trkpt>
<trkpt lat="29.73795" lon="97.77051">
<time>2016-10-07T18:44:23Z</time></trkpt>
<trkpt lat="29.73797" lon="97.77046">
<time>2016-10-07T18:44:24Z</time></trkpt>
<trkpt lat="29.73802" lon="97.77039">
<time>2016-10-07T18:44:25Z</time></trkpt>
<trkpt lat="29.7381" lon="97.77028">
<time>2016-10-07T18:44:26Z</time></trkpt>
<trkpt lat="29.73821" lon="97.77018">
<time>2016-10-07T18:44:27Z</time></trkpt>
<trkpt lat="29.73845" lon="97.769999">
<time>2016-10-07T18:44:28Z</time></trkpt>
<trkpt lat="29.73856" lon="97.769919">
<time>2016-10-07T18:44:29Z</time></trkpt>
<trkpt lat="29.73886" lon="97.769699">
<time>2016-10-07T18:44:30Z</time></trkpt>
<trkpt lat="29.738969" lon="97.769619">
<time>2016-10-07T18:44:31Z</time></trkpt>
<trkpt lat="29.739089" lon="97.769519">
<time>2016-10-07T18:44:32Z</time></trkpt>
<trkpt lat="29.739159" lon="97.769459">
<time>2016-10-07T18:44:33Z</time></trkpt>
<trkpt lat="29.739209" lon="97.769399">
<time>2016-10-07T18:44:34Z</time></trkpt>
<trkpt lat="29.739249" lon="97.769359">
<time>2016-10-07T18:44:35Z</time></trkpt>
<trkpt lat="29.739309" lon="97.769289">
<time>2016-10-07T18:44:36Z</time></trkpt>
<trkpt lat="29.739369" lon="97.769199">
<time>2016-10-07T18:44:37Z</time></trkpt>
<trkpt lat="29.739399" lon="97.769139">
<time>2016-10-07T18:44:38Z</time></trkpt>
<trkpt lat="29.739459" lon="97.769018">
<time>2016-10-07T18:44:39Z</time></trkpt>
<trkpt lat="29.739509" lon="97.768878">
<time>2016-10-07T18:44:40Z</time></trkpt>
<trkpt lat="29.739559" lon="97.768748">
<time>2016-10-07T18:44:41Z</time></trkpt>
<trkpt lat="29.739599" lon="97.768608">
<time>2016-10-07T18:44:42Z</time></trkpt>
<trkpt lat="29.739669" lon="97.768388">
<time>2016-10-07T18:44:43Z</time></trkpt>
<trkpt lat="29.739758" lon="97.768077">
<time>2016-10-07T18:44:44Z</time></trkpt>
<trkpt lat="29.739928" lon="97.767537">
<time>2016-10-07T18:44:45Z</time></trkpt>
<trkpt lat="29.739958" lon="97.767407">
<time>2016-10-07T18:44:46Z</time></trkpt>
<trkpt lat="29.739998" lon="97.767257">
<time>2016-10-07T18:44:47Z</time></trkpt>
<trkpt lat="29.740028" lon="97.766996">
<time>2016-10-07T18:44:48Z</time></trkpt>
<trkpt lat="29.740047" lon="97.766676">
<time>2016-10-07T18:44:49Z</time></trkpt>
<trkpt lat="29.740067" lon="97.766336">
<time>2016-10-07T18:44:50Z</time></trkpt>
<trkpt lat="29.740077" lon="97.765986">
<time>2016-10-07T18:44:51Z</time></trkpt>
<trkpt lat="29.740097" lon="97.765655">
<time>2016-10-07T18:44:52Z</time></trkpt>
<trkpt lat="29.740107" lon="97.765485">
<time>2016-10-07T18:44:53Z</time></trkpt>
<trkpt lat="29.740126" lon="97.765035">
<time>2016-10-07T18:44:54Z</time></trkpt>
<trkpt lat="29.740126" lon="97.764684">
<time>2016-10-07T18:44:55Z</time></trkpt>
<trkpt lat="29.740126" lon="97.764534">
<time>2016-10-07T18:44:56Z</time></trkpt>
<trkpt lat="29.740106" lon="97.764374">
<time>2016-10-07T18:44:57Z</time></trkpt>
<trkpt lat="29.740096" lon="97.764224">
<time>2016-10-07T18:44:58Z</time></trkpt>
<trkpt lat="29.740076" lon="97.764064">
<time>2016-10-07T18:44:59Z</time></trkpt>
<trkpt lat="29.740036" lon="97.763784">
<time>2016-10-07T18:45:00Z</time></trkpt>
<trkpt lat="29.739986" lon="97.763473">
<time>2016-10-07T18:45:01Z</time></trkpt>
<trkpt lat="29.739875" lon="97.762883">
<time>2016-10-07T18:45:02Z</time></trkpt>
<trkpt lat="29.739775" lon="97.762303">
<time>2016-10-07T18:45:03Z</time></trkpt>
<trkpt lat="29.739725" lon="97.762052">
<time>2016-10-07T18:45:04Z</time></trkpt>
<trkpt lat="29.739635" lon="97.761742">
<time>2016-10-07T18:45:05Z</time></trkpt>
<trkpt lat="29.739515" lon="97.761372">
<time>2016-10-07T18:45:06Z</time></trkpt>
<trkpt lat="29.739404" lon="97.760992">
<time>2016-10-07T18:45:07Z</time></trkpt>
<trkpt lat="29.739324" lon="97.760772">
<time>2016-10-07T18:45:08Z</time></trkpt>
<trkpt lat="29.739274" lon="97.760641">
<time>2016-10-07T18:45:09Z</time></trkpt>
<trkpt lat="29.739174" lon="97.760441">
<time>2016-10-07T18:45:10Z</time></trkpt>
<trkpt lat="29.739064" lon="97.760221">
<time>2016-10-07T18:45:11Z</time></trkpt>
<trkpt lat="29.738934" lon="97.759971">
<time>2016-10-07T18:45:12Z</time></trkpt>
<trkpt lat="29.738794" lon="97.759721">
<time>2016-10-07T18:45:13Z</time></trkpt>
<trkpt lat="29.738744" lon="97.759601">
<time>2016-10-07T18:45:14Z</time></trkpt>
<trkpt lat="29.738674" lon="97.759441">
<time>2016-10-07T18:45:15Z</time></trkpt>
<trkpt lat="29.738594" lon="97.759231">
<time>2016-10-07T18:45:16Z</time></trkpt>
<trkpt lat="29.738534" lon="97.75901">
<time>2016-10-07T18:45:17Z</time></trkpt>
<trkpt lat="29.738414" lon="97.75862">
<time>2016-10-07T18:45:18Z</time></trkpt>
<trkpt lat="29.738374" lon="97.75847">
<time>2016-10-07T18:45:19Z</time></trkpt>
<trkpt lat="29.738324" lon="97.75834">
<time>2016-10-07T18:45:20Z</time></trkpt>
<trkpt lat="29.738244" lon="97.75816">
<time>2016-10-07T18:45:21Z</time></trkpt>
<trkpt lat="29.738144" lon="97.75799">
<time>2016-10-07T18:45:22Z</time></trkpt>
<trkpt lat="29.738094" lon="97.7579">
<time>2016-10-07T18:45:23Z</time></trkpt>
<trkpt lat="29.737984" lon="97.75776">
<time>2016-10-07T18:45:24Z</time></trkpt>
<trkpt lat="29.737863" lon="97.75761">
<time>2016-10-07T18:45:25Z</time></trkpt>
<trkpt lat="29.737693" lon="97.75743">
<time>2016-10-07T18:45:26Z</time></trkpt>
<trkpt lat="29.737603" lon="97.75733">
<time>2016-10-07T18:45:27Z</time></trkpt>
<trkpt lat="29.737523" lon="97.757229">
<time>2016-10-07T18:45:28Z</time></trkpt>
<trkpt lat="29.737453" lon="97.757119">
<time>2016-10-07T18:45:29Z</time></trkpt>
<trkpt lat="29.737373" lon="97.756969">
<time>2016-10-07T18:45:30Z</time></trkpt>
<trkpt lat="29.737303" lon="97.756859">
<time>2016-10-07T18:45:31Z</time></trkpt>
<trkpt lat="29.737243" lon="97.756789">
<time>2016-10-07T18:45:32Z</time></trkpt>
<trkpt lat="29.737203" lon="97.756749">
<time>2016-10-07T18:45:33Z</time></trkpt>
<trkpt lat="29.737133" lon="97.756689">
<time>2016-10-07T18:45:34Z</time></trkpt>
<trkpt lat="29.737073" lon="97.756649">
<time>2016-10-07T18:45:35Z</time></trkpt>
<trkpt lat="29.737023" lon="97.756619">
<time>2016-10-07T18:45:36Z</time></trkpt>
<trkpt lat="29.736903" lon="97.756569">
<time>2016-10-07T18:45:37Z</time></trkpt>
<trkpt lat="29.736793" lon="97.756519">
<time>2016-10-07T18:45:38Z</time></trkpt>
<trkpt lat="29.736673" lon="97.756469">
<time>2016-10-07T18:45:39Z</time></trkpt>
<trkpt lat="29.736603" lon="97.756449">
<time>2016-10-07T18:45:40Z</time></trkpt>
<trkpt lat="29.736533" lon="97.756439">
<time>2016-10-07T18:45:41Z</time></trkpt>
<trkpt lat="29.736473" lon="97.756429">
<time>2016-10-07T18:45:42Z</time></trkpt>
<trkpt lat="29.736403" lon="97.756439">
<time>2016-10-07T18:45:43Z</time></trkpt>
<trkpt lat="29.736313" lon="97.756459">
<time>2016-10-07T18:45:44Z</time></trkpt>
<trkpt lat="29.736243" lon="97.756479">
<time>2016-10-07T18:45:45Z</time></trkpt>
<trkpt lat="29.736033" lon="97.756579">
<time>2016-10-07T18:45:46Z</time></trkpt>
<trkpt lat="29.735814" lon="97.756699">
<time>2016-10-07T18:45:47Z</time></trkpt>
<trkpt lat="29.735584" lon="97.756829">
<time>2016-10-07T18:45:48Z</time></trkpt>
<trkpt lat="29.735344" lon="97.756969">
<time>2016-10-07T18:45:49Z</time></trkpt>
<trkpt lat="29.735164" lon="97.757059">
<time>2016-10-07T18:45:50Z</time></trkpt>
<trkpt lat="29.734954" lon="97.75718">
<time>2016-10-07T18:45:51Z</time></trkpt>
<trkpt lat="29.734664" lon="97.75733">
<time>2016-10-07T18:45:52Z</time></trkpt>
<trkpt lat="29.734414" lon="97.75747">
<time>2016-10-07T18:45:53Z</time></trkpt>
<trkpt lat="29.734174" lon="97.7576">
<time>2016-10-07T18:45:54Z</time></trkpt>
<trkpt lat="29.734054" lon="97.75766">
<time>2016-10-07T18:45:55Z</time></trkpt>
<trkpt lat="29.733934" lon="97.75774">
<time>2016-10-07T18:45:56Z</time></trkpt>
<trkpt lat="29.733814" lon="97.75782">
<time>2016-10-07T18:45:57Z</time></trkpt>
<trkpt lat="29.733744" lon="97.75789">
<time>2016-10-07T18:45:58Z</time></trkpt>
<trkpt lat="29.733654" lon="97.75797">
<time>2016-10-07T18:45:59Z</time></trkpt>
<trkpt lat="29.733594" lon="97.75807">
<time>2016-10-07T18:46:00Z</time></trkpt>
<trkpt lat="29.733564" lon="97.75812">
<time>2016-10-07T18:46:01Z</time></trkpt>
<trkpt lat="29.733534" lon="97.75819">
<time>2016-10-07T18:46:02Z</time></trkpt>
<trkpt lat="29.733504" lon="97.75827">
<time>2016-10-07T18:46:03Z</time></trkpt>
<trkpt lat="29.733494" lon="97.75834">
<time>2016-10-07T18:46:04Z</time></trkpt>
<trkpt lat="29.733474" lon="97.75849">
<time>2016-10-07T18:46:05Z</time></trkpt>
<trkpt lat="29.733454" lon="97.75862">
<time>2016-10-07T18:46:06Z</time></trkpt>
<trkpt lat="29.733434" lon="97.75869">
<time>2016-10-07T18:46:07Z</time></trkpt>
<trkpt lat="29.733415" lon="97.75875">
<time>2016-10-07T18:46:08Z</time></trkpt>
<trkpt lat="29.733395" lon="97.7588">
<time>2016-10-07T18:46:09Z</time></trkpt>
<trkpt lat="29.733375" lon="97.75883">
<time>2016-10-07T18:46:10Z</time></trkpt>
<trkpt lat="29.733325" lon="97.7589">
<time>2016-10-07T18:46:11Z</time></trkpt>
<trkpt lat="29.733275" lon="97.75893">
<time>2016-10-07T18:46:12Z</time></trkpt>
<trkpt lat="29.733225" lon="97.758961">
<time>2016-10-07T18:46:13Z</time></trkpt>
<trkpt lat="29.733185" lon="97.758981">
<time>2016-10-07T18:46:14Z</time></trkpt>
<trkpt lat="29.733155" lon="97.758991">
<time>2016-10-07T18:46:15Z</time></trkpt>
<trkpt lat="29.733115" lon="97.759001">
<time>2016-10-07T18:46:16Z</time></trkpt>
<trkpt lat="29.733085" lon="97.759011">
<time>2016-10-07T18:46:17Z</time></trkpt>
<trkpt lat="29.733075" lon="97.759011">
<time>2016-10-07T18:46:18Z</time></trkpt>
<trkpt lat="29.733045" lon="97.759011">
<time>2016-10-07T18:46:19Z</time></trkpt>
<trkpt lat="29.733015" lon="97.759011">
<time>2016-10-07T18:46:20Z</time></trkpt>
<trkpt lat="29.732985" lon="97.759011">
<time>2016-10-07T18:46:21Z</time></trkpt>
<trkpt lat="29.732955" lon="97.759001">
<time>2016-10-07T18:46:22Z</time></trkpt>
<trkpt lat="29.732935" lon="97.758991">
<time>2016-10-07T18:46:23Z</time></trkpt>
<trkpt lat="29.732905" lon="97.758981">
<time>2016-10-07T18:46:24Z</time></trkpt>
<trkpt lat="29.732865" lon="97.758951">
<time>2016-10-07T18:46:25Z</time></trkpt>
<trkpt lat="29.732835" lon="97.758921">
<time>2016-10-07T18:46:26Z</time></trkpt>
<trkpt lat="29.732795" lon="97.75888">
<time>2016-10-07T18:46:27Z</time></trkpt>
<trkpt lat="29.732775" lon="97.75884">
<time>2016-10-07T18:46:28Z</time></trkpt>
<trkpt lat="29.732755" lon="97.75881">
<time>2016-10-07T18:46:29Z</time></trkpt>
<trkpt lat="29.732735" lon="97.75877">
<time>2016-10-07T18:46:30Z</time></trkpt>
<trkpt lat="29.732735" lon="97.75875">
<time>2016-10-07T18:46:31Z</time></trkpt>
<trkpt lat="29.732725" lon="97.75872">
<time>2016-10-07T18:46:32Z</time></trkpt>
<trkpt lat="29.732715" lon="97.75868">
<time>2016-10-07T18:46:33Z</time></trkpt>
<trkpt lat="29.732705" lon="97.75864">
<time>2016-10-07T18:46:34Z</time></trkpt>
<trkpt lat="29.732705" lon="97.7586">
<time>2016-10-07T18:46:35Z</time></trkpt>
<trkpt lat="29.732705" lon="97.75855">
<time>2016-10-07T18:46:36Z</time></trkpt>
<trkpt lat="29.732705" lon="97.75847">
<time>2016-10-07T18:46:37Z</time></trkpt>
<trkpt lat="29.732704" lon="97.7582">
<time>2016-10-07T18:46:38Z</time></trkpt>
<trkpt lat="29.732704" lon="97.75813">
<time>2016-10-07T18:46:39Z</time></trkpt>
<trkpt lat="29.732714" lon="97.75803">
<time>2016-10-07T18:46:40Z</time></trkpt>
<trkpt lat="29.732714" lon="97.75796">
<time>2016-10-07T18:46:41Z</time></trkpt>
<trkpt lat="29.732724" lon="97.7579">
<time>2016-10-07T18:46:42Z</time></trkpt>
<trkpt lat="29.732734" lon="97.75784">
<time>2016-10-07T18:46:43Z</time></trkpt>
<trkpt lat="29.732764" lon="97.75772">
<time>2016-10-07T18:46:44Z</time></trkpt>
<trkpt lat="29.732794" lon="97.75764">
<time>2016-10-07T18:46:45Z</time></trkpt>
<trkpt lat="29.732824" lon="97.75755">
<time>2016-10-07T18:46:46Z</time></trkpt>
<trkpt lat="29.732854" lon="97.75749">
<time>2016-10-07T18:46:47Z</time></trkpt>
<trkpt lat="29.732914" lon="97.7574">
<time>2016-10-07T18:46:48Z</time></trkpt>
<trkpt lat="29.732954" lon="97.75734">
<time>2016-10-07T18:46:49Z</time></trkpt>
<trkpt lat="29.733024" lon="97.75726">
<time>2016-10-07T18:46:50Z</time></trkpt>
<trkpt lat="29.733194" lon="97.7571">
<time>2016-10-07T18:46:51Z</time></trkpt>
<trkpt lat="29.733404" lon="97.756919">
<time>2016-10-07T18:46:52Z</time></trkpt>
<trkpt lat="29.733624" lon="97.756729">
<time>2016-10-07T18:46:53Z</time></trkpt>
<trkpt lat="29.733724" lon="97.756649">
<time>2016-10-07T18:46:54Z</time></trkpt>
<trkpt lat="29.733824" lon="97.756579">
<time>2016-10-07T18:46:55Z</time></trkpt>
<trkpt lat="29.733884" lon="97.756549">
<time>2016-10-07T18:46:56Z</time></trkpt>
<trkpt lat="29.733944" lon="97.756509">
<time>2016-10-07T18:46:57Z</time></trkpt>
<trkpt lat="29.734014" lon="97.756479">
<time>2016-10-07T18:46:58Z</time></trkpt>
<trkpt lat="29.734044" lon="97.756459">
<time>2016-10-07T18:46:59Z</time></trkpt>
<trkpt lat="29.734274" lon="97.756379">
<time>2016-10-07T18:47:00Z</time></trkpt>
<trkpt lat="29.734484" lon="97.756279">
<time>2016-10-07T18:47:01Z</time></trkpt>
<trkpt lat="29.734664" lon="97.756189">
<time>2016-10-07T18:47:02Z</time></trkpt>
<trkpt lat="29.734814" lon="97.756109">
<time>2016-10-07T18:47:03Z</time></trkpt>
<trkpt lat="29.734993" lon="97.755999">
<time>2016-10-07T18:47:04Z</time></trkpt>
<trkpt lat="29.735193" lon="97.755889">
<time>2016-10-07T18:47:05Z</time></trkpt>
<trkpt lat="29.735423" lon="97.755769">
<time>2016-10-07T18:47:06Z</time></trkpt>
<trkpt lat="29.735573" lon="97.755719">
<time>2016-10-07T18:47:07Z</time></trkpt>
<trkpt lat="29.735693" lon="97.755669">
<time>2016-10-07T18:47:08Z</time></trkpt>
<trkpt lat="29.735893" lon="97.755609">
<time>2016-10-07T18:47:09Z</time></trkpt>
<trkpt lat="29.736143" lon="97.755549">
<time>2016-10-07T18:47:10Z</time></trkpt>
<trkpt lat="29.736273" lon="97.755519">
<time>2016-10-07T18:47:11Z</time></trkpt>
<trkpt lat="29.736363" lon="97.755509">
<time>2016-10-07T18:47:12Z</time></trkpt>
<trkpt lat="29.736433" lon="97.755499">
<time>2016-10-07T18:47:13Z</time></trkpt>
<trkpt lat="29.736473" lon="97.755499">
<time>2016-10-07T18:47:14Z</time></trkpt>
<trkpt lat="29.736523" lon="97.755499">
<time>2016-10-07T18:47:15Z</time></trkpt>
<trkpt lat="29.736603" lon="97.755509">
<time>2016-10-07T18:47:16Z</time></trkpt>
<trkpt lat="29.736663" lon="97.755519">
<time>2016-10-07T18:47:17Z</time></trkpt>
<trkpt lat="29.736733" lon="97.755539">
<time>2016-10-07T18:47:18Z</time></trkpt>
<trkpt lat="29.736843" lon="97.755559">
<time>2016-10-07T18:47:19Z</time></trkpt>
<trkpt lat="29.736973" lon="97.755599">
<time>2016-10-07T18:47:20Z</time></trkpt>
<trkpt lat="29.737023" lon="97.755619">
<time>2016-10-07T18:47:21Z</time></trkpt>
<trkpt lat="29.737083" lon="97.755639">
<time>2016-10-07T18:47:22Z</time></trkpt>
<trkpt lat="29.737123" lon="97.755659">
<time>2016-10-07T18:47:23Z</time></trkpt>
<trkpt lat="29.737163" lon="97.755669">
<time>2016-10-07T18:47:24Z</time></trkpt>
<trkpt lat="29.737203" lon="97.755689">
<time>2016-10-07T18:47:25Z</time></trkpt>
<trkpt lat="29.737233" lon="97.755709">
<time>2016-10-07T18:47:26Z</time></trkpt>
<trkpt lat="29.737273" lon="97.755739">
<time>2016-10-07T18:47:27Z</time></trkpt>
<trkpt lat="29.737313" lon="97.755769">
<time>2016-10-07T18:47:28Z</time></trkpt>
<trkpt lat="29.737343" lon="97.755789">
<time>2016-10-07T18:47:29Z</time></trkpt>
<trkpt lat="29.737373" lon="97.755819">
<time>2016-10-07T18:47:30Z</time></trkpt>
<trkpt lat="29.737433" lon="97.755889">
<time>2016-10-07T18:47:31Z</time></trkpt>
<trkpt lat="29.737493" lon="97.755979">
<time>2016-10-07T18:47:32Z</time></trkpt>
<trkpt lat="29.737583" lon="97.756089">
<time>2016-10-07T18:47:33Z</time></trkpt>
<trkpt lat="29.737653" lon="97.756169">
<time>2016-10-07T18:47:34Z</time></trkpt>
<trkpt lat="29.737723" lon="97.756239">
<time>2016-10-07T18:47:35Z</time></trkpt>
<trkpt lat="29.738003" lon="97.756509">
<time>2016-10-07T18:47:36Z</time></trkpt>
<trkpt lat="29.738213" lon="97.756719">
<time>2016-10-07T18:47:37Z</time></trkpt>
<trkpt lat="29.738313" lon="97.756809">
<time>2016-10-07T18:47:38Z</time></trkpt>
<trkpt lat="29.738443" lon="97.756899">
<time>2016-10-07T18:47:39Z</time></trkpt>
<trkpt lat="29.738603" lon="97.757019">
<time>2016-10-07T18:47:40Z</time></trkpt>
<trkpt lat="29.738773" lon="97.757149">
<time>2016-10-07T18:47:41Z</time></trkpt>
<trkpt lat="29.739043" lon="97.75738">
<time>2016-10-07T18:47:42Z</time></trkpt>
<trkpt lat="29.739233" lon="97.75753">
<time>2016-10-07T18:47:43Z</time></trkpt>
<trkpt lat="29.739323" lon="97.75759">
<time>2016-10-07T18:47:44Z</time></trkpt>
<trkpt lat="29.739443" lon="97.75768">
<time>2016-10-07T18:47:45Z</time></trkpt>
<trkpt lat="29.739583" lon="97.75777">
<time>2016-10-07T18:47:46Z</time></trkpt>
<trkpt lat="29.739673" lon="97.75782">
<time>2016-10-07T18:47:47Z</time></trkpt>
<trkpt lat="29.739723" lon="97.75784">
<time>2016-10-07T18:47:48Z</time></trkpt>
<trkpt lat="29.739803" lon="97.75787">
<time>2016-10-07T18:47:49Z</time></trkpt>
<trkpt lat="29.739933" lon="97.7579">
<time>2016-10-07T18:47:50Z</time></trkpt>
<trkpt lat="29.740043" lon="97.7579">
<time>2016-10-07T18:47:51Z</time></trkpt>
<trkpt lat="29.740083" lon="97.7579">
<time>2016-10-07T18:47:52Z</time></trkpt>
<trkpt lat="29.740143" lon="97.75789">
<time>2016-10-07T18:47:53Z</time></trkpt>
<trkpt lat="29.740243" lon="97.75786">
<time>2016-10-07T18:47:54Z</time></trkpt>
<trkpt lat="29.740363" lon="97.75781">
<time>2016-10-07T18:47:55Z</time></trkpt>
<trkpt lat="29.740533" lon="97.75772">
<time>2016-10-07T18:47:56Z</time></trkpt>
<trkpt lat="29.741213" lon="97.757339">
<time>2016-10-07T18:47:57Z</time></trkpt>
<trkpt lat="29.741543" lon="97.757169">
<time>2016-10-07T18:47:58Z</time></trkpt>
<trkpt lat="29.741933" lon="97.756929">
<time>2016-10-07T18:47:59Z</time></trkpt>
<trkpt lat="29.742433" lon="97.756609">
<time>2016-10-07T18:48:00Z</time></trkpt>
<trkpt lat="29.742702" lon="97.756409">
<time>2016-10-07T18:48:01Z</time></trkpt>
<trkpt lat="29.742912" lon="97.756209">
<time>2016-10-07T18:48:02Z</time></trkpt>
<trkpt lat="29.743002" lon="97.756109">
<time>2016-10-07T18:48:03Z</time></trkpt>
<trkpt lat="29.743112" lon="97.755979">
<time>2016-10-07T18:48:04Z</time></trkpt>
<trkpt lat="29.743182" lon="97.755869">
<time>2016-10-07T18:48:05Z</time></trkpt>
<trkpt lat="29.743262" lon="97.755749">
<time>2016-10-07T18:48:06Z</time></trkpt>
<trkpt lat="29.743362" lon="97.755579">
<time>2016-10-07T18:48:07Z</time></trkpt>
<trkpt lat="29.743492" lon="97.755329">
<time>2016-10-07T18:48:08Z</time></trkpt>
<trkpt lat="29.743582" lon="97.755118">
<time>2016-10-07T18:48:09Z</time></trkpt>
<trkpt lat="29.743652" lon="97.754958">
<time>2016-10-07T18:48:10Z</time></trkpt>
<trkpt lat="29.743722" lon="97.754778">
<time>2016-10-07T18:48:11Z</time></trkpt>
<trkpt lat="29.743762" lon="97.754658">
<time>2016-10-07T18:48:12Z</time></trkpt>
<trkpt lat="29.743812" lon="97.754508">
<time>2016-10-07T18:48:13Z</time></trkpt>
<trkpt lat="29.743832" lon="97.754428">
<time>2016-10-07T18:48:14Z</time></trkpt>
<trkpt lat="29.743862" lon="97.754318">
<time>2016-10-07T18:48:15Z</time></trkpt>
<trkpt lat="29.743892" lon="97.754148">
<time>2016-10-07T18:48:16Z</time></trkpt>
<trkpt lat="29.743912" lon="97.753998">
<time>2016-10-07T18:48:17Z</time></trkpt>
<trkpt lat="29.743952" lon="97.753768">
<time>2016-10-07T18:48:18Z</time></trkpt>
<trkpt lat="29.744002" lon="97.753388">
<time>2016-10-07T18:48:19Z</time></trkpt>
<trkpt lat="29.744052" lon="97.753078">
<time>2016-10-07T18:48:20Z</time></trkpt>
<trkpt lat="29.744092" lon="97.752828">
<time>2016-10-07T18:48:21Z</time></trkpt>
<trkpt lat="29.744142" lon="97.752607">
<time>2016-10-07T18:48:22Z</time></trkpt>
<trkpt lat="29.744172" lon="97.752447">
<time>2016-10-07T18:48:23Z</time></trkpt>
<trkpt lat="29.744202" lon="97.752307">
<time>2016-10-07T18:48:24Z</time></trkpt>
<trkpt lat="29.744242" lon="97.752157">
<time>2016-10-07T18:48:25Z</time></trkpt>
<trkpt lat="29.744411" lon="97.751537">
<time>2016-10-07T18:48:26Z</time></trkpt>
<trkpt lat="29.744501" lon="97.751197">
<time>2016-10-07T18:48:27Z</time></trkpt>
<trkpt lat="29.744521" lon="97.751087">
<time>2016-10-07T18:48:28Z</time></trkpt>
<trkpt lat="29.744541" lon="97.750977">
<time>2016-10-07T18:48:29Z</time></trkpt>
<trkpt lat="29.744561" lon="97.750857">
<time>2016-10-07T18:48:30Z</time></trkpt>
<trkpt lat="29.744571" lon="97.750787">
<time>2016-10-07T18:48:31Z</time></trkpt>
<trkpt lat="29.744581" lon="97.750707">
<time>2016-10-07T18:48:32Z</time></trkpt>
<trkpt lat="29.744591" lon="97.750587">
<time>2016-10-07T18:48:33Z</time></trkpt>
<trkpt lat="29.744591" lon="97.750407">
<time>2016-10-07T18:48:34Z</time></trkpt>
<trkpt lat="29.744601" lon="97.750227">
<time>2016-10-07T18:48:35Z</time></trkpt>
<trkpt lat="29.744601" lon="97.750037">
<time>2016-10-07T18:48:36Z</time></trkpt>
<trkpt lat="29.744601" lon="97.749797">
<time>2016-10-07T18:48:37Z</time></trkpt>
<trkpt lat="29.744611" lon="97.749567">
<time>2016-10-07T18:48:38Z</time></trkpt>
<trkpt lat="29.744661" lon="97.749167">
<time>2016-10-07T18:48:39Z</time></trkpt>
<trkpt lat="29.744771" lon="97.748197">
<time>2016-10-07T18:48:40Z</time></trkpt>
<trkpt lat="29.744831" lon="97.747677">
<time>2016-10-07T18:48:41Z</time></trkpt>
<trkpt lat="29.744891" lon="97.747316">
<time>2016-10-07T18:48:42Z</time></trkpt>
<trkpt lat="29.744911" lon="97.747196">
<time>2016-10-07T18:48:43Z</time></trkpt>
<trkpt lat="29.744941" lon="97.747056">
<time>2016-10-07T18:48:44Z</time></trkpt>
<trkpt lat="29.745032" lon="97.746736">
<time>2016-10-07T18:48:45Z</time></trkpt>
<trkpt lat="29.745172" lon="97.746306">
<time>2016-10-07T18:48:46Z</time></trkpt>
<trkpt lat="29.745292" lon="97.745946">
<time>2016-10-07T18:48:47Z</time></trkpt>
<trkpt lat="29.745422" lon="97.745536">
<time>2016-10-07T18:48:48Z</time></trkpt>
<trkpt lat="29.745592" lon="97.745036">
<time>2016-10-07T18:48:49Z</time></trkpt>
<trkpt lat="29.745822" lon="97.744366">
<time>2016-10-07T18:48:50Z</time></trkpt>
<trkpt lat="29.745882" lon="97.744186">
<time>2016-10-07T18:48:51Z</time></trkpt>
<trkpt lat="29.745952" lon="97.744026">
<time>2016-10-07T18:48:52Z</time></trkpt>
<trkpt lat="29.746002" lon="97.743916">
<time>2016-10-07T18:48:53Z</time></trkpt>
<trkpt lat="29.746062" lon="97.743816">
<time>2016-10-07T18:48:54Z</time></trkpt>
<trkpt lat="29.746122" lon="97.743736">
<time>2016-10-07T18:48:55Z</time></trkpt>
<trkpt lat="29.746182" lon="97.743646">
<time>2016-10-07T18:48:56Z</time></trkpt>
<trkpt lat="29.746252" lon="97.743566">
<time>2016-10-07T18:48:57Z</time></trkpt>
<trkpt lat="29.746332" lon="97.743487">
<time>2016-10-07T18:48:58Z</time></trkpt>
<trkpt lat="29.746532" lon="97.743277">
<time>2016-10-07T18:48:59Z</time></trkpt>
<trkpt lat="29.747032" lon="97.742767">
<time>2016-10-07T18:49:00Z</time></trkpt>
<trkpt lat="29.747432" lon="97.742377">
<time>2016-10-07T18:49:01Z</time></trkpt>
<trkpt lat="29.747682" lon="97.742127">
<time>2016-10-07T18:49:02Z</time></trkpt>
<trkpt lat="29.747772" lon="97.742057">
<time>2016-10-07T18:49:03Z</time></trkpt>
<trkpt lat="29.747872" lon="97.741997">
<time>2016-10-07T18:49:04Z</time></trkpt>
<trkpt lat="29.747912" lon="97.741977">
<time>2016-10-07T18:49:05Z</time></trkpt>
<trkpt lat="29.747992" lon="97.741957">
<time>2016-10-07T18:49:06Z</time></trkpt>
<trkpt lat="29.748042" lon="97.741957">
<time>2016-10-07T18:49:07Z</time></trkpt>
<trkpt lat="29.748122" lon="97.741967">
<time>2016-10-07T18:49:08Z</time></trkpt>
<trkpt lat="29.748212" lon="97.741987">
<time>2016-10-07T18:49:09Z</time></trkpt>
<trkpt lat="29.748292" lon="97.742017">
<time>2016-10-07T18:49:10Z</time></trkpt>
<trkpt lat="29.748342" lon="97.742037">
<time>2016-10-07T18:49:11Z</time></trkpt>
<trkpt lat="29.748392" lon="97.742057">
<time>2016-10-07T18:49:12Z</time></trkpt>
<trkpt lat="29.748442" lon="97.742087">
<time>2016-10-07T18:49:13Z</time></trkpt>
<trkpt lat="29.748542" lon="97.742157">
<time>2016-10-07T18:49:14Z</time></trkpt>
<trkpt lat="29.748592" lon="97.742207">
<time>2016-10-07T18:49:15Z</time></trkpt>
<trkpt lat="29.748652" lon="97.742257">
<time>2016-10-07T18:49:16Z</time></trkpt>
<trkpt lat="29.748712" lon="97.742327">
<time>2016-10-07T18:49:17Z</time></trkpt>
<trkpt lat="29.748782" lon="97.742417">
<time>2016-10-07T18:49:18Z</time></trkpt>
<trkpt lat="29.748882" lon="97.742547">
<time>2016-10-07T18:49:19Z</time></trkpt>
<trkpt lat="29.749032" lon="97.742767">
<time>2016-10-07T18:49:20Z</time></trkpt>
<trkpt lat="29.749202" lon="97.743016">
<time>2016-10-07T18:49:21Z</time></trkpt>
<trkpt lat="29.749292" lon="97.743146">
<time>2016-10-07T18:49:22Z</time></trkpt>
<trkpt lat="29.749382" lon="97.743256">
<time>2016-10-07T18:49:23Z</time></trkpt>
<trkpt lat="29.749511" lon="97.743396">
<time>2016-10-07T18:49:24Z</time></trkpt>
<trkpt lat="29.749581" lon="97.743456">
<time>2016-10-07T18:49:25Z</time></trkpt>
<trkpt lat="29.749681" lon="97.743536">
<time>2016-10-07T18:49:26Z</time></trkpt>
<trkpt lat="29.749821" lon="97.743616">
<time>2016-10-07T18:49:27Z</time></trkpt>
<trkpt lat="29.749901" lon="97.743656">
<time>2016-10-07T18:49:28Z</time></trkpt>
<trkpt lat="29.750031" lon="97.743716">
<time>2016-10-07T18:49:29Z</time></trkpt>
<trkpt lat="29.750391" lon="97.743886">
<time>2016-10-07T18:49:30Z</time></trkpt>
<trkpt lat="29.750801" lon="97.744086">
<time>2016-10-07T18:49:31Z</time></trkpt>
<trkpt lat="29.751071" lon="97.744216">
<time>2016-10-07T18:49:32Z</time></trkpt>
<trkpt lat="29.751281" lon="97.744326">
<time>2016-10-07T18:49:33Z</time></trkpt>
<trkpt lat="29.751501" lon="97.744426">
<time>2016-10-07T18:49:34Z</time></trkpt>
<trkpt lat="29.751671" lon="97.744516">
<time>2016-10-07T18:49:35Z</time></trkpt>
<trkpt lat="29.751971" lon="97.744656">
<time>2016-10-07T18:49:36Z</time></trkpt>
<trkpt lat="29.752231" lon="97.744786">
<time>2016-10-07T18:49:37Z</time></trkpt>
<trkpt lat="29.752331" lon="97.744846">
<time>2016-10-07T18:49:38Z</time></trkpt>
<trkpt lat="29.752421" lon="97.744886">
<time>2016-10-07T18:49:39Z</time></trkpt>
<trkpt lat="29.752521" lon="97.744926">
<time>2016-10-07T18:49:40Z</time></trkpt>
<trkpt lat="29.752601" lon="97.744956">
<time>2016-10-07T18:49:41Z</time></trkpt>
<trkpt lat="29.752691" lon="97.744976">
<time>2016-10-07T18:49:42Z</time></trkpt>
<trkpt lat="29.752761" lon="97.744986">
<time>2016-10-07T18:49:43Z</time></trkpt>
<trkpt lat="29.752811" lon="97.744986">
<time>2016-10-07T18:49:44Z</time></trkpt>
<trkpt lat="29.752921" lon="97.744986">
<time>2016-10-07T18:49:45Z</time></trkpt>
<trkpt lat="29.752981" lon="97.744976">
<time>2016-10-07T18:49:46Z</time></trkpt>
<trkpt lat="29.753031" lon="97.744966">
<time>2016-10-07T18:49:47Z</time></trkpt>
<trkpt lat="29.753091" lon="97.744946">
<time>2016-10-07T18:49:48Z</time></trkpt>
<trkpt lat="29.753141" lon="97.744926">
<time>2016-10-07T18:49:49Z</time></trkpt>
<trkpt lat="29.753261" lon="97.744876">
<time>2016-10-07T18:49:50Z</time></trkpt>
<trkpt lat="29.753361" lon="97.744826">
<time>2016-10-07T18:49:51Z</time></trkpt>
<trkpt lat="29.753481" lon="97.744756">
<time>2016-10-07T18:49:52Z</time></trkpt>
<trkpt lat="29.753601" lon="97.744686">
<time>2016-10-07T18:49:53Z</time></trkpt>
<trkpt lat="29.753831" lon="97.744556">
<time>2016-10-07T18:49:54Z</time></trkpt>
<trkpt lat="29.753951" lon="97.744486">
<time>2016-10-07T18:49:55Z</time></trkpt>
<trkpt lat="29.754061" lon="97.744426">
<time>2016-10-07T18:49:56Z</time></trkpt>
<trkpt lat="29.754181" lon="97.744336">
<time>2016-10-07T18:49:57Z</time></trkpt>
<trkpt lat="29.754301" lon="97.744256">
<time>2016-10-07T18:49:58Z</time></trkpt>
<trkpt lat="29.754641" lon="97.743996">
<time>2016-10-07T18:49:59Z</time></trkpt>
<trkpt lat="29.754771" lon="97.743886">
<time>2016-10-07T18:50:00Z</time></trkpt>
<trkpt lat="29.754901" lon="97.743766">
<time>2016-10-07T18:50:01Z</time></trkpt>
<trkpt lat="29.754991" lon="97.743676">
<time>2016-10-07T18:50:02Z</time></trkpt>
<trkpt lat="29.755091" lon="97.743566">
<time>2016-10-07T18:50:03Z</time></trkpt>
<trkpt lat="29.755201" lon="97.743436">
<time>2016-10-07T18:50:04Z</time></trkpt>
<trkpt lat="29.755391" lon="97.743146">
<time>2016-10-07T18:50:05Z</time></trkpt>
<trkpt lat="29.755581" lon="97.742876">
<time>2016-10-07T18:50:06Z</time></trkpt>
<trkpt lat="29.755731" lon="97.742666">
<time>2016-10-07T18:50:07Z</time></trkpt>
<trkpt lat="29.755791" lon="97.742586">
<time>2016-10-07T18:50:08Z</time></trkpt>
<trkpt lat="29.755951" lon="97.742386">
<time>2016-10-07T18:50:09Z</time></trkpt>
<trkpt lat="29.756141" lon="97.742136">
<time>2016-10-07T18:50:10Z</time></trkpt>
<trkpt lat="29.756361" lon="97.741807">
<time>2016-10-07T18:50:11Z</time></trkpt>
<trkpt lat="29.756511" lon="97.741597">
<time>2016-10-07T18:50:12Z</time></trkpt>
<trkpt lat="29.756741" lon="97.741277">
<time>2016-10-07T18:50:13Z</time></trkpt>
<trkpt lat="29.756881" lon="97.741077">
<time>2016-10-07T18:50:14Z</time></trkpt>
<trkpt lat="29.757051" lon="97.740837">
<time>2016-10-07T18:50:15Z</time></trkpt>
<trkpt lat="29.757211" lon="97.740617">
<time>2016-10-07T18:50:16Z</time></trkpt>
<trkpt lat="29.757371" lon="97.740397">
<time>2016-10-07T18:50:17Z</time></trkpt>
<trkpt lat="29.757521" lon="97.740197">
<time>2016-10-07T18:50:18Z</time></trkpt>
<trkpt lat="29.757651" lon="97.739997">
<time>2016-10-07T18:50:19Z</time></trkpt>
<trkpt lat="29.757782" lon="97.739817">
<time>2016-10-07T18:50:20Z</time></trkpt>
<trkpt lat="29.758172" lon="97.739267">
<time>2016-10-07T18:50:21Z</time></trkpt>
<trkpt lat="29.758282" lon="97.739117">
<time>2016-10-07T18:50:22Z</time></trkpt>
<trkpt lat="29.758382" lon="97.738927">
<time>2016-10-07T18:50:23Z</time></trkpt>
<trkpt lat="29.758482" lon="97.738697">
<time>2016-10-07T18:50:24Z</time></trkpt>
<trkpt lat="29.758542" lon="97.738417">
<time>2016-10-07T18:50:25Z</time></trkpt>
<trkpt lat="29.758572" lon="97.738197">
<time>2016-10-07T18:50:26Z</time></trkpt>
<trkpt lat="29.758582" lon="97.737957">
<time>2016-10-07T18:50:27Z</time></trkpt>
<trkpt lat="29.758552" lon="97.737728">
<time>2016-10-07T18:50:28Z</time></trkpt>
<trkpt lat="29.758522" lon="97.737478">
<time>2016-10-07T18:50:29Z</time></trkpt>
<trkpt lat="29.758503" lon="97.737288">
<time>2016-10-07T18:50:30Z</time></trkpt>
<trkpt lat="29.758463" lon="97.737048">
<time>2016-10-07T18:50:31Z</time></trkpt>
<trkpt lat="29.758433" lon="97.736768">
<time>2016-10-07T18:50:32Z</time></trkpt>
<trkpt lat="29.758403" lon="97.736538">
<time>2016-10-07T18:50:33Z</time></trkpt>
<trkpt lat="29.758343" lon="97.736118">
<time>2016-10-07T18:50:34Z</time></trkpt>
<trkpt lat="29.758313" lon="97.735858">
<time>2016-10-07T18:50:35Z</time></trkpt>
<trkpt lat="29.758283" lon="97.735598">
<time>2016-10-07T18:50:36Z</time></trkpt>
<trkpt lat="29.758244" lon="97.735299">
<time>2016-10-07T18:50:37Z</time></trkpt>
<trkpt lat="29.758204" lon="97.734979">
<time>2016-10-07T18:50:38Z</time></trkpt>
<trkpt lat="29.758154" lon="97.734629">
<time>2016-10-07T18:50:39Z</time></trkpt>
<trkpt lat="29.758104" lon="97.734299">
<time>2016-10-07T18:50:40Z</time></trkpt>
<trkpt lat="29.758064" lon="97.734169">
<time>2016-10-07T18:50:41Z</time></trkpt>
<trkpt lat="29.758024" lon="97.734009">
<time>2016-10-07T18:50:42Z</time></trkpt>
<trkpt lat="29.757915" lon="97.733709">
<time>2016-10-07T18:50:43Z</time></trkpt>
<trkpt lat="29.757775" lon="97.7333">
<time>2016-10-07T18:50:44Z</time></trkpt>
<trkpt lat="29.757595" lon="97.73282">
<time>2016-10-07T18:50:45Z</time></trkpt>
<trkpt lat="29.757485" lon="97.73251">
<time>2016-10-07T18:50:46Z</time></trkpt>
<trkpt lat="29.757445" lon="97.73239">
<time>2016-10-07T18:50:47Z</time></trkpt>
<trkpt lat="29.757385" lon="97.7323">
<time>2016-10-07T18:50:48Z</time></trkpt>
<trkpt lat="29.757336" lon="97.73224">
<time>2016-10-07T18:50:49Z</time></trkpt>
<trkpt lat="29.757286" lon="97.73219">
<time>2016-10-07T18:50:50Z</time></trkpt>
<trkpt lat="29.757206" lon="97.73214">
<time>2016-10-07T18:50:51Z</time></trkpt>
<trkpt lat="29.757106" lon="97.7321">
<time>2016-10-07T18:50:52Z</time></trkpt>
<trkpt lat="29.756976" lon="97.73205">
<time>2016-10-07T18:50:53Z</time></trkpt>
<trkpt lat="29.756776" lon="97.73198">
<time>2016-10-07T18:50:54Z</time></trkpt>
<trkpt lat="29.756506" lon="97.73189">
<time>2016-10-07T18:50:55Z</time></trkpt>
<trkpt lat="29.756396" lon="97.73185">
<time>2016-10-07T18:50:56Z</time></trkpt>
<trkpt lat="29.756296" lon="97.73181">
<time>2016-10-07T18:50:57Z</time></trkpt>
<trkpt lat="29.756246" lon="97.73176">
<time>2016-10-07T18:50:58Z</time></trkpt>
<trkpt lat="29.756196" lon="97.73172">
<time>2016-10-07T18:50:59Z</time></trkpt>
<trkpt lat="29.756146" lon="97.73166">
<time>2016-10-07T18:51:00Z</time></trkpt>
<trkpt lat="29.756106" lon="97.731591">
<time>2016-10-07T18:51:01Z</time></trkpt>
<trkpt lat="29.756036" lon="97.731481">
<time>2016-10-07T18:51:02Z</time></trkpt>
<trkpt lat="29.755996" lon="97.731371">
<time>2016-10-07T18:51:03Z</time></trkpt>
<trkpt lat="29.755976" lon="97.731291">
<time>2016-10-07T18:51:04Z</time></trkpt>
<trkpt lat="29.755956" lon="97.731171">
<time>2016-10-07T18:51:05Z</time></trkpt>
<trkpt lat="29.755946" lon="97.731071">
<time>2016-10-07T18:51:06Z</time></trkpt>
<trkpt lat="29.755927" lon="97.730911">
<time>2016-10-07T18:51:07Z</time></trkpt>
<trkpt lat="29.755887" lon="97.730741">
<time>2016-10-07T18:51:08Z</time></trkpt>
<trkpt lat="29.755817" lon="97.730501">
<time>2016-10-07T18:51:09Z</time></trkpt>
<trkpt lat="29.755697" lon="97.730141">
<time>2016-10-07T18:51:10Z</time></trkpt>
<trkpt lat="29.755538" lon="97.729732">
<time>2016-10-07T18:51:11Z</time></trkpt>
<trkpt lat="29.755358" lon="97.729302">
<time>2016-10-07T18:51:12Z</time></trkpt>
<trkpt lat="29.755148" lon="97.728852">
<time>2016-10-07T18:51:13Z</time></trkpt>
<trkpt lat="29.755098" lon="97.728732">
<time>2016-10-07T18:51:14Z</time></trkpt>
<trkpt lat="29.755038" lon="97.728563">
<time>2016-10-07T18:51:15Z</time></trkpt>
<trkpt lat="29.754979" lon="97.728363">
<time>2016-10-07T18:51:16Z</time></trkpt>
<trkpt lat="29.754959" lon="97.728213">
<time>2016-10-07T18:51:17Z</time></trkpt>
<trkpt lat="29.754949" lon="97.728063">
<time>2016-10-07T18:51:18Z</time></trkpt>
<trkpt lat="29.754969" lon="97.727903">
<time>2016-10-07T18:51:19Z</time></trkpt>
<trkpt lat="29.755009" lon="97.727713">
<time>2016-10-07T18:51:20Z</time></trkpt>
<trkpt lat="29.755069" lon="97.727373">
<time>2016-10-07T18:51:21Z</time></trkpt>
<trkpt lat="29.75519" lon="97.726834">
<time>2016-10-07T18:51:22Z</time></trkpt>
<trkpt lat="29.75524" lon="97.726634">
<time>2016-10-07T18:51:23Z</time></trkpt>
<trkpt lat="29.75527" lon="97.726534">
<time>2016-10-07T18:51:24Z</time></trkpt>
<trkpt lat="29.7553" lon="97.726454">
<time>2016-10-07T18:51:25Z</time></trkpt>
<trkpt lat="29.75536" lon="97.726314">
<time>2016-10-07T18:51:26Z</time></trkpt>
<trkpt lat="29.75542" lon="97.726214">
<time>2016-10-07T18:51:27Z</time></trkpt>
<trkpt lat="29.755561" lon="97.725985">
<time>2016-10-07T18:51:28Z</time></trkpt>
<trkpt lat="29.755701" lon="97.725745">
<time>2016-10-07T18:51:29Z</time></trkpt>
<trkpt lat="29.755811" lon="97.725525">
<time>2016-10-07T18:51:30Z</time></trkpt>
<trkpt lat="29.755941" lon="97.725245">
<time>2016-10-07T18:51:31Z</time></trkpt>
<trkpt lat="29.756081" lon="97.724995">
<time>2016-10-07T18:51:32Z</time></trkpt>
<trkpt lat="29.756161" lon="97.724876">
<time>2016-10-07T18:51:33Z</time></trkpt>
<trkpt lat="29.756242" lon="97.724766">
<time>2016-10-07T18:51:34Z</time></trkpt>
<trkpt lat="29.756322" lon="97.724686">
<time>2016-10-07T18:51:35Z</time></trkpt>
<trkpt lat="29.756512" lon="97.724546">
<time>2016-10-07T18:51:36Z</time></trkpt>
<trkpt lat="29.757672" lon="97.723936">
<time>2016-10-07T18:51:37Z</time></trkpt>
<trkpt lat="29.758022" lon="97.723727">
<time>2016-10-07T18:51:38Z</time></trkpt>
<trkpt lat="29.758152" lon="97.723647">
<time>2016-10-07T18:51:39Z</time></trkpt>
<trkpt lat="29.758282" lon="97.723557">
<time>2016-10-07T18:51:40Z</time></trkpt>
<trkpt lat="29.758513" lon="97.723387">
<time>2016-10-07T18:51:41Z</time></trkpt>
<trkpt lat="29.758733" lon="97.723197">
<time>2016-10-07T18:51:42Z</time></trkpt>
<trkpt lat="29.758973" lon="97.722987">
<time>2016-10-07T18:51:43Z</time></trkpt>
<trkpt lat="29.759183" lon="97.722787">
<time>2016-10-07T18:51:44Z</time></trkpt>
<trkpt lat="29.759333" lon="97.722657">
<time>2016-10-07T18:51:45Z</time></trkpt>
<trkpt lat="29.759463" lon="97.722518">
<time>2016-10-07T18:51:46Z</time></trkpt>
<trkpt lat="29.759734" lon="97.722188">
<time>2016-10-07T18:51:47Z</time></trkpt>
<trkpt lat="29.760074" lon="97.721778">
<time>2016-10-07T18:51:48Z</time></trkpt>
<trkpt lat="29.760204" lon="97.721589">
<time>2016-10-07T18:51:49Z</time></trkpt>
<trkpt lat="29.760314" lon="97.721459">
<time>2016-10-07T18:51:50Z</time></trkpt>
<trkpt lat="29.760444" lon="97.721299">
<time>2016-10-07T18:51:51Z</time></trkpt>
<trkpt lat="29.760625" lon="97.721139">
<time>2016-10-07T18:51:52Z</time></trkpt>
<trkpt lat="29.760795" lon="97.720989">
<time>2016-10-07T18:51:53Z</time></trkpt>
<trkpt lat="29.761035" lon="97.720819">
<time>2016-10-07T18:51:54Z</time></trkpt>
<trkpt lat="29.761895" lon="97.72019">
<time>2016-10-07T18:51:55Z</time></trkpt>
<trkpt lat="29.762196" lon="97.71997">
<time>2016-10-07T18:51:56Z</time></trkpt>
<trkpt lat="29.762446" lon="97.71978">
<time>2016-10-07T18:51:57Z</time></trkpt>
<trkpt lat="29.762556" lon="97.7197">
<time>2016-10-07T18:51:58Z</time></trkpt>
<trkpt lat="29.762666" lon="97.719641">
<time>2016-10-07T18:51:59Z</time></trkpt>
<trkpt lat="29.762736" lon="97.719601">
<time>2016-10-07T18:52:00Z</time></trkpt>
<trkpt lat="29.762826" lon="97.719551">
<time>2016-10-07T18:52:01Z</time></trkpt>
<trkpt lat="29.762916" lon="97.719521">
<time>2016-10-07T18:52:02Z</time></trkpt>
<trkpt lat="29.763006" lon="97.719491">
<time>2016-10-07T18:52:03Z</time></trkpt>
<trkpt lat="29.763116" lon="97.719471">
<time>2016-10-07T18:52:04Z</time></trkpt>
<trkpt lat="29.763196" lon="97.719461">
<time>2016-10-07T18:52:05Z</time></trkpt>
<trkpt lat="29.763336" lon="97.719441">
<time>2016-10-07T18:52:06Z</time></trkpt>
<trkpt lat="29.763486" lon="97.719431">
<time>2016-10-07T18:52:07Z</time></trkpt>
<trkpt lat="29.763756" lon="97.719411">
<time>2016-10-07T18:52:08Z</time></trkpt>
<trkpt lat="29.764406" lon="97.719361">
<time>2016-10-07T18:52:09Z</time></trkpt>
<trkpt lat="29.764586" lon="97.719351">
<time>2016-10-07T18:52:10Z</time></trkpt>
<trkpt lat="29.764756" lon="97.719341">
<time>2016-10-07T18:52:11Z</time></trkpt>
<trkpt lat="29.764836" lon="97.719351">
<time>2016-10-07T18:52:12Z</time></trkpt>
<trkpt lat="29.764916" lon="97.719351">
<time>2016-10-07T18:52:13Z</time></trkpt>
<trkpt lat="29.765016" lon="97.719371">
<time>2016-10-07T18:52:14Z</time></trkpt>
<trkpt lat="29.765186" lon="97.719411">
<time>2016-10-07T18:52:15Z</time></trkpt>
<trkpt lat="29.765396" lon="97.719451">
<time>2016-10-07T18:52:16Z</time></trkpt>
<trkpt lat="29.765506" lon="97.719471">
<time>2016-10-07T18:52:17Z</time></trkpt>
<trkpt lat="29.765636" lon="97.719471">
<time>2016-10-07T18:52:18Z</time></trkpt>
<trkpt lat="29.765816" lon="97.719451">
<time>2016-10-07T18:52:19Z</time></trkpt>
<trkpt lat="29.766046" lon="97.719421">
<time>2016-10-07T18:52:20Z</time></trkpt>
<trkpt lat="29.766346" lon="97.719381">
<time>2016-10-07T18:52:21Z</time></trkpt>
<trkpt lat="29.766466" lon="97.719361">
<time>2016-10-07T18:52:22Z</time></trkpt>
<trkpt lat="29.766566" lon="97.719331">
<time>2016-10-07T18:52:23Z</time></trkpt>
<trkpt lat="29.766736" lon="97.719251">
<time>2016-10-07T18:52:24Z</time></trkpt>
<trkpt lat="29.766846" lon="97.719201">
<time>2016-10-07T18:52:25Z</time></trkpt>
<trkpt lat="29.767086" lon="97.719121">
<time>2016-10-07T18:52:26Z</time></trkpt>
<trkpt lat="29.767276" lon="97.719071">
<time>2016-10-07T18:52:27Z</time></trkpt>
<trkpt lat="29.767566" lon="97.719011">
<time>2016-10-07T18:52:28Z</time></trkpt>
<trkpt lat="29.767896" lon="97.718931">
<time>2016-10-07T18:52:29Z</time></trkpt>
<trkpt lat="29.768186" lon="97.718861">
<time>2016-10-07T18:52:30Z</time></trkpt>
<trkpt lat="29.768296" lon="97.718821">
<time>2016-10-07T18:52:31Z</time></trkpt>
<trkpt lat="29.768386" lon="97.718791">
<time>2016-10-07T18:52:32Z</time></trkpt>
<trkpt lat="29.768466" lon="97.718741">
<time>2016-10-07T18:52:33Z</time></trkpt>
<trkpt lat="29.768636" lon="97.718642">
<time>2016-10-07T18:52:34Z</time></trkpt>
<trkpt lat="29.768866" lon="97.718492">
<time>2016-10-07T18:52:35Z</time></trkpt>
<trkpt lat="29.769557" lon="97.718052">
<time>2016-10-07T18:52:36Z</time></trkpt>
<trkpt lat="29.770007" lon="97.717752">
<time>2016-10-07T18:52:37Z</time></trkpt>
<trkpt lat="29.770437" lon="97.717473">
<time>2016-10-07T18:52:38Z</time></trkpt>
<trkpt lat="29.770798" lon="97.717243">
<time>2016-10-07T18:52:39Z</time></trkpt>
<trkpt lat="29.771128" lon="97.717053">
<time>2016-10-07T18:52:40Z</time></trkpt>
<trkpt lat="29.771418" lon="97.716893">
<time>2016-10-07T18:52:41Z</time></trkpt>
<trkpt lat="29.771588" lon="97.716824">
<time>2016-10-07T18:52:42Z</time></trkpt>
<trkpt lat="29.771698" lon="97.716774">
<time>2016-10-07T18:52:43Z</time></trkpt>
<trkpt lat="29.771828" lon="97.716734">
<time>2016-10-07T18:52:44Z</time></trkpt>
<trkpt lat="29.771968" lon="97.716684">
<time>2016-10-07T18:52:45Z</time></trkpt>
<trkpt lat="29.772268" lon="97.716604">
<time>2016-10-07T18:52:46Z</time></trkpt>
<trkpt lat="29.772588" lon="97.716534">
<time>2016-10-07T18:52:47Z</time></trkpt>
<trkpt lat="29.772928" lon="97.716494">
<time>2016-10-07T18:52:48Z</time></trkpt>
<trkpt lat="29.773198" lon="97.716474">
<time>2016-10-07T18:52:49Z</time></trkpt>
<trkpt lat="29.773498" lon="97.716454">
<time>2016-10-07T18:52:50Z</time></trkpt>
<trkpt lat="29.773798" lon="97.716464">
<time>2016-10-07T18:52:51Z</time></trkpt>
<trkpt lat="29.774108" lon="97.716494">
<time>2016-10-07T18:52:52Z</time></trkpt>
<trkpt lat="29.774358" lon="97.716534">
<time>2016-10-07T18:52:53Z</time></trkpt>
<trkpt lat="29.774538" lon="97.716584">
<time>2016-10-07T18:52:54Z</time></trkpt>
<trkpt lat="29.774768" lon="97.716644">
<time>2016-10-07T18:52:55Z</time></trkpt>
<trkpt lat="29.774998" lon="97.716724">
<time>2016-10-07T18:52:56Z</time></trkpt>
<trkpt lat="29.775218" lon="97.716794">
<time>2016-10-07T18:52:57Z</time></trkpt>
<trkpt lat="29.775477" lon="97.716873">
<time>2016-10-07T18:52:58Z</time></trkpt>
<trkpt lat="29.775727" lon="97.716953">
<time>2016-10-07T18:52:59Z</time></trkpt>
<trkpt lat="29.776477" lon="97.717193">
<time>2016-10-07T18:53:00Z</time></trkpt>
<trkpt lat="29.776767" lon="97.717283">
<time>2016-10-07T18:53:01Z</time></trkpt>
<trkpt lat="29.778686" lon="97.717932">
<time>2016-10-07T18:53:02Z</time></trkpt>
<trkpt lat="29.778946" lon="97.718032">
<time>2016-10-07T18:53:03Z</time></trkpt>
<trkpt lat="29.779116" lon="97.718102">
<time>2016-10-07T18:53:04Z</time></trkpt>
<trkpt lat="29.779295" lon="97.718232">
<time>2016-10-07T18:53:05Z</time></trkpt>
<trkpt lat="29.779535" lon="97.718521">
<time>2016-10-07T18:53:06Z</time></trkpt>
<trkpt lat="29.779855" lon="97.718891">
<time>2016-10-07T18:53:07Z</time></trkpt>
<trkpt lat="29.780024" lon="97.719091">
<time>2016-10-07T18:53:08Z</time></trkpt>
<trkpt lat="29.780214" lon="97.719311">
<time>2016-10-07T18:53:09Z</time></trkpt>
<trkpt lat="29.780304" lon="97.71939">
<time>2016-10-07T18:53:10Z</time></trkpt>
<trkpt lat="29.780424" lon="97.71947">
<time>2016-10-07T18:53:11Z</time></trkpt>
<trkpt lat="29.780564" lon="97.71954">
<time>2016-10-07T18:53:12Z</time></trkpt>
<trkpt lat="29.780774" lon="97.71962">
<time>2016-10-07T18:53:13Z</time></trkpt>
<trkpt lat="29.780904" lon="97.71968">
<time>2016-10-07T18:53:14Z</time></trkpt>
<trkpt lat="29.781004" lon="97.71973">
<time>2016-10-07T18:53:15Z</time></trkpt>
<trkpt lat="29.781094" lon="97.7198">
<time>2016-10-07T18:53:16Z</time></trkpt>
<trkpt lat="29.781173" lon="97.71987">
<time>2016-10-07T18:53:17Z</time></trkpt>
<trkpt lat="29.781263" lon="97.71996">
<time>2016-10-07T18:53:18Z</time></trkpt>
<trkpt lat="29.781473" lon="97.72017">
<time>2016-10-07T18:53:19Z</time></trkpt>
<trkpt lat="29.781633" lon="97.720329">
<time>2016-10-07T18:53:20Z</time></trkpt>
<trkpt lat="29.781743" lon="97.720419">
<time>2016-10-07T18:53:21Z</time></trkpt>
<trkpt lat="29.782842" lon="97.721248">
<time>2016-10-07T18:53:22Z</time></trkpt>
<trkpt lat="29.782942" lon="97.721308">
<time>2016-10-07T18:53:23Z</time></trkpt>
<trkpt lat="29.783042" lon="97.721348">
<time>2016-10-07T18:53:24Z</time></trkpt>
<trkpt lat="29.783192" lon="97.721378">
<time>2016-10-07T18:53:25Z</time></trkpt>
<trkpt lat="29.783292" lon="97.721388">
<time>2016-10-07T18:53:26Z</time></trkpt>
<trkpt lat="29.783382" lon="97.721378">
<time>2016-10-07T18:53:27Z</time></trkpt>
<trkpt lat="29.783512" lon="97.721338">
<time>2016-10-07T18:53:28Z</time></trkpt>
<trkpt lat="29.783612" lon="97.721298">
<time>2016-10-07T18:53:29Z</time></trkpt>
<trkpt lat="29.783722" lon="97.721228">
<time>2016-10-07T18:53:30Z</time></trkpt>
<trkpt lat="29.784052" lon="97.720999">
<time>2016-10-07T18:53:31Z</time></trkpt>
<trkpt lat="29.784142" lon="97.720929">
<time>2016-10-07T18:53:32Z</time></trkpt>
<trkpt lat="29.784292" lon="97.720849">
<time>2016-10-07T18:53:33Z</time></trkpt>
<trkpt lat="29.784432" lon="97.720789">
<time>2016-10-07T18:53:34Z</time></trkpt>
<trkpt lat="29.784602" lon="97.720719">
<time>2016-10-07T18:53:35Z</time></trkpt>
<trkpt lat="29.784742" lon="97.720679">
<time>2016-10-07T18:53:36Z</time></trkpt>
<trkpt lat="29.784902" lon="97.720649">
<time>2016-10-07T18:53:37Z</time></trkpt>
<trkpt lat="29.785102" lon="97.720639">
<time>2016-10-07T18:53:38Z</time></trkpt>
<trkpt lat="29.785252" lon="97.720639">
<time>2016-10-07T18:53:39Z</time></trkpt>
<trkpt lat="29.785412" lon="97.720669">
<time>2016-10-07T18:53:40Z</time></trkpt>
<trkpt lat="29.785532" lon="97.720699">
<time>2016-10-07T18:53:41Z</time></trkpt>
<trkpt lat="29.785762" lon="97.720769">
<time>2016-10-07T18:53:42Z</time></trkpt>
<trkpt lat="29.786032" lon="97.720879">
<time>2016-10-07T18:53:43Z</time></trkpt>
<trkpt lat="29.786462" lon="97.721049">
<time>2016-10-07T18:53:44Z</time></trkpt>
<trkpt lat="29.786891" lon="97.721228">
<time>2016-10-07T18:53:45Z</time></trkpt>
<trkpt lat="29.787181" lon="97.721348">
<time>2016-10-07T18:53:46Z</time></trkpt>
<trkpt lat="29.787471" lon="97.721478">
<time>2016-10-07T18:53:47Z</time></trkpt>
<trkpt lat="29.787671" lon="97.721548">
<time>2016-10-07T18:53:48Z</time></trkpt>
<trkpt lat="29.787771" lon="97.721578">
<time>2016-10-07T18:53:49Z</time></trkpt>
<trkpt lat="29.787841" lon="97.721588">
<time>2016-10-07T18:53:50Z</time></trkpt>
<trkpt lat="29.787931" lon="97.721598">
<time>2016-10-07T18:53:51Z</time></trkpt>
<trkpt lat="29.788021" lon="97.721588">
<time>2016-10-07T18:53:52Z</time></trkpt>
<trkpt lat="29.788121" lon="97.721588">
<time>2016-10-07T18:53:53Z</time></trkpt>
<trkpt lat="29.788251" lon="97.721568">
<time>2016-10-07T18:53:54Z</time></trkpt>
<trkpt lat="29.788401" lon="97.721538">
<time>2016-10-07T18:53:55Z</time></trkpt>
<trkpt lat="29.788481" lon="97.721518">
<time>2016-10-07T18:53:56Z</time></trkpt>
<trkpt lat="29.788581" lon="97.721478">
<time>2016-10-07T18:53:57Z</time></trkpt>
<trkpt lat="29.788721" lon="97.721398">
<time>2016-10-07T18:53:58Z</time></trkpt>
<trkpt lat="29.788811" lon="97.721338">
<time>2016-10-07T18:53:59Z</time></trkpt>
<trkpt lat="29.788881" lon="97.721278">
<time>2016-10-07T18:54:00Z</time></trkpt>
<trkpt lat="29.789021" lon="97.721138">
<time>2016-10-07T18:54:01Z</time></trkpt>
<trkpt lat="29.789402" lon="97.720739">
<time>2016-10-07T18:54:02Z</time></trkpt>
<trkpt lat="29.790092" lon="97.72001">
<time>2016-10-07T18:54:03Z</time></trkpt>
<trkpt lat="29.790233" lon="97.71986">
<time>2016-10-07T18:54:04Z</time></trkpt>
<trkpt lat="29.790383" lon="97.71966">
<time>2016-10-07T18:54:05Z</time></trkpt>
<trkpt lat="29.790613" lon="97.71934">
<time>2016-10-07T18:54:06Z</time></trkpt>
<trkpt lat="29.790924" lon="97.718901">
<time>2016-10-07T18:54:07Z</time></trkpt>
<trkpt lat="29.791294" lon="97.718341">
<time>2016-10-07T18:54:08Z</time></trkpt>
<trkpt lat="29.791414" lon="97.718122">
<time>2016-10-07T18:54:09Z</time></trkpt>
<trkpt lat="29.791635" lon="97.717722">
<time>2016-10-07T18:54:10Z</time></trkpt>
<trkpt lat="29.791895" lon="97.717163">
<time>2016-10-07T18:54:11Z</time></trkpt>
<trkpt lat="29.792026" lon="97.716873">
<time>2016-10-07T18:54:12Z</time></trkpt>
<trkpt lat="29.792146" lon="97.716603">
<time>2016-10-07T18:54:13Z</time></trkpt>
<trkpt lat="29.792276" lon="97.716324">
<time>2016-10-07T18:54:14Z</time></trkpt>
<trkpt lat="29.792377" lon="97.716074">
<time>2016-10-07T18:54:15Z</time></trkpt>
<trkpt lat="29.792437" lon="97.715914">
<time>2016-10-07T18:54:16Z</time></trkpt>
<trkpt lat="29.792487" lon="97.715724">
<time>2016-10-07T18:54:17Z</time></trkpt>
<trkpt lat="29.792507" lon="97.715575">
<time>2016-10-07T18:54:18Z</time></trkpt>
<trkpt lat="29.792507" lon="97.715465">
<time>2016-10-07T18:54:19Z</time></trkpt>
<trkpt lat="29.792497" lon="97.715375">
<time>2016-10-07T18:54:20Z</time></trkpt>
<trkpt lat="29.792488" lon="97.715305">
<time>2016-10-07T18:54:21Z</time></trkpt>
<trkpt lat="29.792478" lon="97.715235">
<time>2016-10-07T18:54:22Z</time></trkpt>
<trkpt lat="29.792458" lon="97.715135">
<time>2016-10-07T18:54:23Z</time></trkpt>
<trkpt lat="29.792368" lon="97.714856">
<time>2016-10-07T18:54:24Z</time></trkpt>
<trkpt lat="29.792229" lon="97.714456">
<time>2016-10-07T18:54:25Z</time></trkpt>
<trkpt lat="29.792109" lon="97.714186">
<time>2016-10-07T18:54:26Z</time></trkpt>
<trkpt lat="29.792009" lon="97.713997">
<time>2016-10-07T18:54:27Z</time></trkpt>
<trkpt lat="29.791869" lon="97.713797">
<time>2016-10-07T18:54:28Z</time></trkpt>
<trkpt lat="29.79171" lon="97.713547">
<time>2016-10-07T18:54:29Z</time></trkpt>
<trkpt lat="29.79148" lon="97.713208">
<time>2016-10-07T18:54:30Z</time></trkpt>
<trkpt lat="29.791261" lon="97.712878">
<time>2016-10-07T18:54:31Z</time></trkpt>
<trkpt lat="29.791121" lon="97.712658">
<time>2016-10-07T18:54:32Z</time></trkpt>
<trkpt lat="29.791081" lon="97.712579">
<time>2016-10-07T18:54:33Z</time></trkpt>
<trkpt lat="29.791031" lon="97.712479">
<time>2016-10-07T18:54:34Z</time></trkpt>
<trkpt lat="29.790972" lon="97.712249">
<time>2016-10-07T18:54:35Z</time></trkpt>
<trkpt lat="29.790932" lon="97.712059">
<time>2016-10-07T18:54:36Z</time></trkpt>
<trkpt lat="29.790902" lon="97.711909">
<time>2016-10-07T18:54:37Z</time></trkpt>
<trkpt lat="29.790862" lon="97.71163">
<time>2016-10-07T18:54:38Z</time></trkpt>
<trkpt lat="29.790783" lon="97.711031">
<time>2016-10-07T18:54:39Z</time></trkpt>
<trkpt lat="29.790744" lon="97.710791">
<time>2016-10-07T18:54:40Z</time></trkpt>
<trkpt lat="29.790684" lon="97.710342">
<time>2016-10-07T18:54:41Z</time></trkpt>
<trkpt lat="29.790635" lon="97.710082">
<time>2016-10-07T18:54:42Z</time></trkpt>
<trkpt lat="29.790615" lon="97.709942">
<time>2016-10-07T18:54:43Z</time></trkpt>
<trkpt lat="29.790605" lon="97.709792">
<time>2016-10-07T18:54:44Z</time></trkpt>
<trkpt lat="29.790615" lon="97.709643">
<time>2016-10-07T18:54:45Z</time></trkpt>
<trkpt lat="29.790645" lon="97.709463">
<time>2016-10-07T18:54:46Z</time></trkpt>
<trkpt lat="29.790686" lon="97.709323">
<time>2016-10-07T18:54:47Z</time></trkpt>
<trkpt lat="29.790736" lon="97.709183">
<time>2016-10-07T18:54:48Z</time></trkpt>
<trkpt lat="29.790766" lon="97.709063">
<time>2016-10-07T18:54:49Z</time></trkpt>
<trkpt lat="29.790826" lon="97.708944">
<time>2016-10-07T18:54:50Z</time></trkpt>
<trkpt lat="29.790886" lon="97.708854">
<time>2016-10-07T18:54:51Z</time></trkpt>
<trkpt lat="29.790966" lon="97.708784">
<time>2016-10-07T18:54:52Z</time></trkpt>
<trkpt lat="29.791086" lon="97.708724">
<time>2016-10-07T18:54:53Z</time></trkpt>
<trkpt lat="29.791236" lon="97.708664">
<time>2016-10-07T18:54:54Z</time></trkpt>
<trkpt lat="29.791506" lon="97.708584">
<time>2016-10-07T18:54:55Z</time></trkpt>
<trkpt lat="29.791777" lon="97.708534">
<time>2016-10-07T18:54:56Z</time></trkpt>
<trkpt lat="29.792827" lon="97.708404">
<time>2016-10-07T18:54:57Z</time></trkpt>
<trkpt lat="29.793117" lon="97.708364">
<time>2016-10-07T18:54:58Z</time></trkpt>
<trkpt lat="29.793347" lon="97.708344">
<time>2016-10-07T18:54:59Z</time></trkpt>
<trkpt lat="29.793527" lon="97.708364">
<time>2016-10-07T18:55:00Z</time></trkpt>
<trkpt lat="29.793787" lon="97.708404">
<time>2016-10-07T18:55:01Z</time></trkpt>
<trkpt lat="29.795386" lon="97.708744">
<time>2016-10-07T18:55:02Z</time></trkpt>
<trkpt lat="29.796685" lon="97.709013">
<time>2016-10-07T18:55:03Z</time></trkpt>
<trkpt lat="29.797215" lon="97.709123">
<time>2016-10-07T18:55:04Z</time></trkpt>
<trkpt lat="29.797675" lon="97.709243">
<time>2016-10-07T18:55:05Z</time></trkpt>
<trkpt lat="29.797915" lon="97.709313">
<time>2016-10-07T18:55:06Z</time></trkpt>
<trkpt lat="29.798245" lon="97.709453">
<time>2016-10-07T18:55:07Z</time></trkpt>
<trkpt lat="29.798634" lon="97.709632">
<time>2016-10-07T18:55:08Z</time></trkpt>
<trkpt lat="29.799524" lon="97.710002">
<time>2016-10-07T18:55:09Z</time></trkpt>
<trkpt lat="29.800203" lon="97.710301">
<time>2016-10-07T18:55:10Z</time></trkpt>
<trkpt lat="29.800503" lon="97.710421">
<time>2016-10-07T18:55:11Z</time></trkpt>
<trkpt lat="29.800673" lon="97.710481">
<time>2016-10-07T18:55:12Z</time></trkpt>
<trkpt lat="29.800803" lon="97.710511">
<time>2016-10-07T18:55:13Z</time></trkpt>
<trkpt lat="29.800963" lon="97.710531">
<time>2016-10-07T18:55:14Z</time></trkpt>
<trkpt lat="29.801123" lon="97.710551">
<time>2016-10-07T18:55:15Z</time></trkpt>
<trkpt lat="29.801283" lon="97.710561">
<time>2016-10-07T18:55:16Z</time></trkpt>
<trkpt lat="29.801423" lon="97.710551">
<time>2016-10-07T18:55:17Z</time></trkpt>
<trkpt lat="29.801583" lon="97.710541">
<time>2016-10-07T18:55:18Z</time></trkpt>
<trkpt lat="29.801733" lon="97.710521">
<time>2016-10-07T18:55:19Z</time></trkpt>
<trkpt lat="29.801983" lon="97.710441">
<time>2016-10-07T18:55:20Z</time></trkpt>
<trkpt lat="29.802143" lon="97.710391">
<time>2016-10-07T18:55:21Z</time></trkpt>
<trkpt lat="29.802283" lon="97.710321">
<time>2016-10-07T18:55:22Z</time></trkpt>
<trkpt lat="29.802643" lon="97.710122">
<time>2016-10-07T18:55:23Z</time></trkpt>
<trkpt lat="29.803394" lon="97.709692">
<time>2016-10-07T18:55:24Z</time></trkpt>
<trkpt lat="29.803694" lon="97.709532">
<time>2016-10-07T18:55:25Z</time></trkpt>
<trkpt lat="29.803984" lon="97.709363">
<time>2016-10-07T18:55:26Z</time></trkpt>
<trkpt lat="29.804134" lon="97.709263">
<time>2016-10-07T18:55:27Z</time></trkpt>
<trkpt lat="29.804295" lon="97.709133">
<time>2016-10-07T18:55:28Z</time></trkpt>
<trkpt lat="29.804915" lon="97.708634">
<time>2016-10-07T18:55:29Z</time></trkpt>
<trkpt lat="29.808029" lon="97.705998">
<time>2016-10-07T18:55:30Z</time></trkpt>
<trkpt lat="29.808299" lon="97.705778">
<time>2016-10-07T18:55:31Z</time></trkpt>
<trkpt lat="29.808579" lon="97.705568">
<time>2016-10-07T18:55:32Z</time></trkpt>
<trkpt lat="29.80887" lon="97.705399">
<time>2016-10-07T18:55:33Z</time></trkpt>
<trkpt lat="29.80916" lon="97.705259">
<time>2016-10-07T18:55:34Z</time></trkpt>
<trkpt lat="29.80972" lon="97.705019">
<time>2016-10-07T18:55:35Z</time></trkpt>
<trkpt lat="29.81003" lon="97.704889">
<time>2016-10-07T18:55:36Z</time></trkpt>
<trkpt lat="29.810771" lon="97.70457">
<time>2016-10-07T18:55:37Z</time></trkpt>
<trkpt lat="29.811271" lon="97.70436">
<time>2016-10-07T18:55:38Z</time></trkpt>
<trkpt lat="29.811591" lon="97.70422">
<time>2016-10-07T18:55:39Z</time></trkpt>
<trkpt lat="29.812171" lon="97.704021">
<time>2016-10-07T18:55:40Z</time></trkpt>
<trkpt lat="29.812962" lon="97.703771">
<time>2016-10-07T18:55:41Z</time></trkpt>
<trkpt lat="29.813422" lon="97.703641">
<time>2016-10-07T18:55:42Z</time></trkpt>
<trkpt lat="29.814282" lon="97.703392">
<time>2016-10-07T18:55:43Z</time></trkpt>
<trkpt lat="29.815593" lon="97.703032">
<time>2016-10-07T18:55:44Z</time></trkpt>
<trkpt lat="29.816743" lon="97.702733">
<time>2016-10-07T18:55:45Z</time></trkpt>
<trkpt lat="29.817083" lon="97.702633">
<time>2016-10-07T18:55:46Z</time></trkpt>
<trkpt lat="29.817393" lon="97.702533">
<time>2016-10-07T18:55:47Z</time></trkpt>
<trkpt lat="29.817663" lon="97.702423">
<time>2016-10-07T18:55:48Z</time></trkpt>
<trkpt lat="29.817813" lon="97.702353">
<time>2016-10-07T18:55:49Z</time></trkpt>
<trkpt lat="29.817943" lon="97.702293">
<time>2016-10-07T18:55:50Z</time></trkpt>
<trkpt lat="29.818224" lon="97.702124">
<time>2016-10-07T18:55:51Z</time></trkpt>
<trkpt lat="29.818494" lon="97.701944">
<time>2016-10-07T18:55:52Z</time></trkpt>
<trkpt lat="29.818764" lon="97.701764">
<time>2016-10-07T18:55:53Z</time></trkpt>
<trkpt lat="29.819375" lon="97.701335">
<time>2016-10-07T18:55:54Z</time></trkpt>
<trkpt lat="29.819905" lon="97.700965">
<time>2016-10-07T18:55:55Z</time></trkpt>
<trkpt lat="29.820316" lon="97.700686">
<time>2016-10-07T18:55:56Z</time></trkpt>
<trkpt lat="29.820826" lon="97.700336">
<time>2016-10-07T18:55:57Z</time></trkpt>
<trkpt lat="29.821057" lon="97.700177">
<time>2016-10-07T18:55:58Z</time></trkpt>
<trkpt lat="29.821287" lon="97.700037">
<time>2016-10-07T18:55:59Z</time></trkpt>
<trkpt lat="29.821527" lon="97.699937">
<time>2016-10-07T18:56:00Z</time></trkpt>
<trkpt lat="29.821657" lon="97.699887">
<time>2016-10-07T18:56:01Z</time></trkpt>
<trkpt lat="29.821757" lon="97.699857">
<time>2016-10-07T18:56:02Z</time></trkpt>
<trkpt lat="29.821997" lon="97.699827">
<time>2016-10-07T18:56:03Z</time></trkpt>
<trkpt lat="29.822097" lon="97.699797">
<time>2016-10-07T18:56:04Z</time></trkpt>
<trkpt lat="29.822207" lon="97.699747">
<time>2016-10-07T18:56:05Z</time></trkpt>
<trkpt lat="29.822257" lon="97.699718">
<time>2016-10-07T18:56:06Z</time></trkpt>
<trkpt lat="29.822347" lon="97.699628">
<time>2016-10-07T18:56:07Z</time></trkpt>
<trkpt lat="29.822418" lon="97.699548">
<time>2016-10-07T18:56:08Z</time></trkpt>
<trkpt lat="29.822458" lon="97.699478">
<time>2016-10-07T18:56:09Z</time></trkpt>
<trkpt lat="29.822508" lon="97.699368">
<time>2016-10-07T18:56:10Z</time></trkpt>
<trkpt lat="29.822558" lon="97.699258">
<time>2016-10-07T18:56:11Z</time></trkpt>
<trkpt lat="29.822678" lon="97.698969">
<time>2016-10-07T18:56:12Z</time></trkpt>
<trkpt lat="29.822839" lon="97.698579">
<time>2016-10-07T18:56:13Z</time></trkpt>
<trkpt lat="29.822929" lon="97.69838">
<time>2016-10-07T18:56:14Z</time></trkpt>
<trkpt lat="29.82299" lon="97.69824">
<time>2016-10-07T18:56:15Z</time></trkpt>
<trkpt lat="29.82306" lon="97.6981">
<time>2016-10-07T18:56:16Z</time></trkpt>
<trkpt lat="29.82316" lon="97.697961">
<time>2016-10-07T18:56:17Z</time></trkpt>
<trkpt lat="29.82326" lon="97.697841">
<time>2016-10-07T18:56:18Z</time></trkpt>
<trkpt lat="29.82338" lon="97.697711">
<time>2016-10-07T18:56:19Z</time></trkpt>
<trkpt lat="29.823501" lon="97.697611">
<time>2016-10-07T18:56:20Z</time></trkpt>
<trkpt lat="29.823651" lon="97.697501">
<time>2016-10-07T18:56:21Z</time></trkpt>
<trkpt lat="29.823931" lon="97.697282">
<time>2016-10-07T18:56:22Z</time></trkpt>
<trkpt lat="29.824312" lon="97.697002">
<time>2016-10-07T18:56:23Z</time></trkpt>
<trkpt lat="29.824702" lon="97.696703">
<time>2016-10-07T18:56:24Z</time></trkpt>
<trkpt lat="29.825052" lon="97.696433">
<time>2016-10-07T18:56:25Z</time></trkpt>
<trkpt lat="29.825233" lon="97.696303">
<time>2016-10-07T18:56:26Z</time></trkpt>
<trkpt lat="29.825323" lon="97.696243">
<time>2016-10-07T18:56:27Z</time></trkpt>
<trkpt lat="29.825403" lon="97.696194">
<time>2016-10-07T18:56:28Z</time></trkpt>
<trkpt lat="29.825623" lon="97.696074">
<time>2016-10-07T18:56:29Z</time></trkpt>
<trkpt lat="29.825803" lon="97.695994">
<time>2016-10-07T18:56:30Z</time></trkpt>
<trkpt lat="29.826053" lon="97.695894">
<time>2016-10-07T18:56:31Z</time></trkpt>
<trkpt lat="29.826463" lon="97.695764">
<time>2016-10-07T18:56:32Z</time></trkpt>
<trkpt lat="29.827074" lon="97.695565">
<time>2016-10-07T18:56:33Z</time></trkpt>
<trkpt lat="29.827564" lon="97.695395">
<time>2016-10-07T18:56:34Z</time></trkpt>
<trkpt lat="29.828024" lon="97.695235">
<time>2016-10-07T18:56:35Z</time></trkpt>
<trkpt lat="29.828274" lon="97.695165">
<time>2016-10-07T18:56:36Z</time></trkpt>
<trkpt lat="29.828424" lon="97.695115">
<time>2016-10-07T18:56:37Z</time></trkpt>
<trkpt lat="29.828554" lon="97.695086">
<time>2016-10-07T18:56:38Z</time></trkpt>
<trkpt lat="29.828725" lon="97.695056">
<time>2016-10-07T18:56:39Z</time></trkpt>
<trkpt lat="29.828985" lon="97.695016">
<time>2016-10-07T18:56:40Z</time></trkpt>
<trkpt lat="29.829205" lon="97.695006">
<time>2016-10-07T18:56:41Z</time></trkpt>
<trkpt lat="29.829505" lon="97.695016">
<time>2016-10-07T18:56:42Z</time></trkpt>
<trkpt lat="29.829915" lon="97.695016">
<time>2016-10-07T18:56:43Z</time></trkpt>
<trkpt lat="29.830104" lon="97.695016">
<time>2016-10-07T18:56:44Z</time></trkpt>
<trkpt lat="29.830964" lon="97.695036">
<time>2016-10-07T18:56:45Z</time></trkpt>
<trkpt lat="29.831394" lon="97.695056">
<time>2016-10-07T18:56:46Z</time></trkpt>
<trkpt lat="29.831984" lon="97.695065">
<time>2016-10-07T18:56:47Z</time></trkpt>
<trkpt lat="29.832174" lon="97.695046">
<time>2016-10-07T18:56:48Z</time></trkpt>
<trkpt lat="29.832344" lon="97.695026">
<time>2016-10-07T18:56:49Z</time></trkpt>
<trkpt lat="29.832444" lon="97.694996">
<time>2016-10-07T18:56:50Z</time></trkpt>
<trkpt lat="29.832534" lon="97.694966">
<time>2016-10-07T18:56:51Z</time></trkpt>
<trkpt lat="29.832674" lon="97.694916">
<time>2016-10-07T18:56:52Z</time></trkpt>
<trkpt lat="29.832755" lon="97.694866">
<time>2016-10-07T18:56:53Z</time></trkpt>
<trkpt lat="29.832855" lon="97.694816">
<time>2016-10-07T18:56:54Z</time></trkpt>
<trkpt lat="29.832995" lon="97.694716">
<time>2016-10-07T18:56:55Z</time></trkpt>
<trkpt lat="29.833135" lon="97.694596">
<time>2016-10-07T18:56:56Z</time></trkpt>
<trkpt lat="29.833285" lon="97.694447">
<time>2016-10-07T18:56:57Z</time></trkpt>
<trkpt lat="29.833365" lon="97.694367">
<time>2016-10-07T18:56:58Z</time></trkpt>
<trkpt lat="29.833445" lon="97.694297">
<time>2016-10-07T18:56:59Z</time></trkpt>
<trkpt lat="29.833646" lon="97.694087">
<time>2016-10-07T18:57:00Z</time></trkpt>
<trkpt lat="29.833756" lon="97.694007">
<time>2016-10-07T18:57:01Z</time></trkpt>
<trkpt lat="29.833896" lon="97.693908">
<time>2016-10-07T18:57:02Z</time></trkpt>
<trkpt lat="29.834066" lon="97.693808">
<time>2016-10-07T18:57:03Z</time></trkpt>
<trkpt lat="29.834246" lon="97.693728">
<time>2016-10-07T18:57:04Z</time></trkpt>
<trkpt lat="29.834437" lon="97.693658">
<time>2016-10-07T18:57:05Z</time></trkpt>
<trkpt lat="29.834697" lon="97.693588">
<time>2016-10-07T18:57:06Z</time></trkpt>
<trkpt lat="29.834817" lon="97.693578">
<time>2016-10-07T18:57:07Z</time></trkpt>
<trkpt lat="29.835067" lon="97.693558">
<time>2016-10-07T18:57:08Z</time></trkpt>
<trkpt lat="29.835227" lon="97.693568">
<time>2016-10-07T18:57:09Z</time></trkpt>
<trkpt lat="29.835437" lon="97.693588">
<time>2016-10-07T18:57:10Z</time></trkpt>
<trkpt lat="29.835577" lon="97.693618">
<time>2016-10-07T18:57:11Z</time></trkpt>
<trkpt lat="29.835806" lon="97.693698">
<time>2016-10-07T18:57:12Z</time></trkpt>
<trkpt lat="29.835996" lon="97.693758">
<time>2016-10-07T18:57:13Z</time></trkpt>
<trkpt lat="29.836336" lon="97.693898">
<time>2016-10-07T18:57:14Z</time></trkpt>
<trkpt lat="29.836846" lon="97.694097">
<time>2016-10-07T18:57:15Z</time></trkpt>
<trkpt lat="29.837165" lon="97.694227">
<time>2016-10-07T18:57:16Z</time></trkpt>
<trkpt lat="29.837755" lon="97.694456">
<time>2016-10-07T18:57:17Z</time></trkpt>
<trkpt lat="29.838005" lon="97.694556">
<time>2016-10-07T18:57:18Z</time></trkpt>
<trkpt lat="29.838374" lon="97.694696">
<time>2016-10-07T18:57:19Z</time></trkpt>
<trkpt lat="29.838834" lon="97.694886">
<time>2016-10-07T18:57:20Z</time></trkpt>
<trkpt lat="29.839014" lon="97.694946">
<time>2016-10-07T18:57:21Z</time></trkpt>
<trkpt lat="29.839164" lon="97.694966">
<time>2016-10-07T18:57:22Z</time></trkpt>
<trkpt lat="29.839294" lon="97.694976">
<time>2016-10-07T18:57:23Z</time></trkpt>
<trkpt lat="29.839394" lon="97.694986">
<time>2016-10-07T18:57:24Z</time></trkpt>
<trkpt lat="29.839504" lon="97.694976">
<time>2016-10-07T18:57:25Z</time></trkpt>
<trkpt lat="29.839634" lon="97.694956">
<time>2016-10-07T18:57:26Z</time></trkpt>
<trkpt lat="29.839754" lon="97.694936">
<time>2016-10-07T18:57:27Z</time></trkpt>
<trkpt lat="29.839864" lon="97.694906">
<time>2016-10-07T18:57:28Z</time></trkpt>
<trkpt lat="29.839954" lon="97.694876">
<time>2016-10-07T18:57:29Z</time></trkpt>
<trkpt lat="29.840084" lon="97.694816">
<time>2016-10-07T18:57:30Z</time></trkpt>
<trkpt lat="29.840204" lon="97.694736">
<time>2016-10-07T18:57:31Z</time></trkpt>
<trkpt lat="29.840365" lon="97.694616">
<time>2016-10-07T18:57:32Z</time></trkpt>
<trkpt lat="29.840645" lon="97.694387">
<time>2016-10-07T18:57:33Z</time></trkpt>
<trkpt lat="29.840785" lon="97.694177">
<time>2016-10-07T18:57:34Z</time></trkpt>
<trkpt lat="29.841116" lon="97.693558">
<time>2016-10-07T18:57:35Z</time></trkpt>
<trkpt lat="29.841337" lon="97.693109">
<time>2016-10-07T18:57:36Z</time></trkpt>
<trkpt lat="29.841568" lon="97.69268">
<time>2016-10-07T18:57:37Z</time></trkpt>
<trkpt lat="29.841839" lon="97.692151">
<time>2016-10-07T18:57:38Z</time></trkpt>
<trkpt lat="29.84217" lon="97.691542">
<time>2016-10-07T18:57:39Z</time></trkpt>
<trkpt lat="29.842461" lon="97.691003">
<time>2016-10-07T18:57:40Z</time></trkpt>
<trkpt lat="29.843052" lon="97.690085">
<time>2016-10-07T18:57:41Z</time></trkpt>
<trkpt lat="29.843433" lon="97.689466">
<time>2016-10-07T18:57:42Z</time></trkpt>
<trkpt lat="29.843554" lon="97.689276">
<time>2016-10-07T18:57:43Z</time></trkpt>
<trkpt lat="29.843664" lon="97.689106">
<time>2016-10-07T18:57:44Z</time></trkpt>
<trkpt lat="29.843885" lon="97.688757">
<time>2016-10-07T18:57:45Z</time></trkpt>
<trkpt lat="29.844085" lon="97.688438">
<time>2016-10-07T18:57:46Z</time></trkpt>
<trkpt lat="29.844286" lon="97.688118">
<time>2016-10-07T18:57:47Z</time></trkpt>
<trkpt lat="29.844577" lon="97.687659">
<time>2016-10-07T18:57:48Z</time></trkpt>
<trkpt lat="29.844687" lon="97.687499">
<time>2016-10-07T18:57:49Z</time></trkpt>
<trkpt lat="29.844777" lon="97.68737">
<time>2016-10-07T18:57:50Z</time></trkpt>
<trkpt lat="29.844857" lon="97.68727">
<time>2016-10-07T18:57:51Z</time></trkpt>
<trkpt lat="29.844947" lon="97.68719">
<time>2016-10-07T18:57:52Z</time></trkpt>
<trkpt lat="29.845048" lon="97.68709">
<time>2016-10-07T18:57:53Z</time></trkpt>
<trkpt lat="29.845228" lon="97.686931">
<time>2016-10-07T18:57:54Z</time></trkpt>
<trkpt lat="29.845478" lon="97.686721">
<time>2016-10-07T18:57:55Z</time></trkpt>
<trkpt lat="29.845799" lon="97.686451">
<time>2016-10-07T18:57:56Z</time></trkpt>
<trkpt lat="29.845999" lon="97.686302">
<time>2016-10-07T18:57:57Z</time></trkpt>
<trkpt lat="29.846199" lon="97.686152">
<time>2016-10-07T18:57:58Z</time></trkpt>
<trkpt lat="29.846399" lon="97.686002">
<time>2016-10-07T18:57:59Z</time></trkpt>
<trkpt lat="29.8466" lon="97.685843">
<time>2016-10-07T18:58:00Z</time></trkpt>
<trkpt lat="29.84681" lon="97.685683">
<time>2016-10-07T18:58:01Z</time></trkpt>
<trkpt lat="29.84701" lon="97.685533">
<time>2016-10-07T18:58:02Z</time></trkpt>
<trkpt lat="29.847231" lon="97.685384">
<time>2016-10-07T18:58:03Z</time></trkpt>
<trkpt lat="29.847451" lon="97.685254">
<time>2016-10-07T18:58:04Z</time></trkpt>
<trkpt lat="29.847671" lon="97.685124">
<time>2016-10-07T18:58:05Z</time></trkpt>
<trkpt lat="29.848131" lon="97.684924">
<time>2016-10-07T18:58:06Z</time></trkpt>
<trkpt lat="29.848362" lon="97.684835">
<time>2016-10-07T18:58:07Z</time></trkpt>
<trkpt lat="29.848582" lon="97.684735">
<time>2016-10-07T18:58:08Z</time></trkpt>
<trkpt lat="29.848852" lon="97.684625">
<time>2016-10-07T18:58:09Z</time></trkpt>
<trkpt lat="29.849002" lon="97.684575">
<time>2016-10-07T18:58:10Z</time></trkpt>
<trkpt lat="29.849232" lon="97.684535">
<time>2016-10-07T18:58:11Z</time></trkpt>
<trkpt lat="29.849332" lon="97.684535">
<time>2016-10-07T18:58:12Z</time></trkpt>
<trkpt lat="29.849432" lon="97.684535">
<time>2016-10-07T18:58:13Z</time></trkpt>
<trkpt lat="29.849732" lon="97.684575">
<time>2016-10-07T18:58:14Z</time></trkpt>
<trkpt lat="29.850172" lon="97.684625">
<time>2016-10-07T18:58:15Z</time></trkpt>
<trkpt lat="29.850782" lon="97.684695">
<time>2016-10-07T18:58:16Z</time></trkpt>
<trkpt lat="29.851741" lon="97.684815">
<time>2016-10-07T18:58:17Z</time></trkpt>
<trkpt lat="29.851951" lon="97.684835">
<time>2016-10-07T18:58:18Z</time></trkpt>
<trkpt lat="29.852041" lon="97.684855">
<time>2016-10-07T18:58:19Z</time></trkpt>
<trkpt lat="29.852091" lon="97.684864">
<time>2016-10-07T18:58:20Z</time></trkpt>
<trkpt lat="29.852171" lon="97.684904">
<time>2016-10-07T18:58:21Z</time></trkpt>
<trkpt lat="29.852231" lon="97.684954">
<time>2016-10-07T18:58:22Z</time></trkpt>
<trkpt lat="29.852301" lon="97.685024">
<time>2016-10-07T18:58:23Z</time></trkpt>
<trkpt lat="29.852371" lon="97.685094">
<time>2016-10-07T18:58:24Z</time></trkpt>
<trkpt lat="29.8525" lon="97.685284">
<time>2016-10-07T18:58:25Z</time></trkpt>
<trkpt lat="29.85266" lon="97.685483">
<time>2016-10-07T18:58:26Z</time></trkpt>
<trkpt lat="29.85283" lon="97.685703">
<time>2016-10-07T18:58:27Z</time></trkpt>
<trkpt lat="29.852939" lon="97.685823">
<time>2016-10-07T18:58:28Z</time></trkpt>
<trkpt lat="29.853039" lon="97.685902">
<time>2016-10-07T18:58:29Z</time></trkpt>
<trkpt lat="29.853099" lon="97.685942">
<time>2016-10-07T18:58:30Z</time></trkpt>
<trkpt lat="29.853189" lon="97.686002">
<time>2016-10-07T18:58:31Z</time></trkpt>
<trkpt lat="29.853279" lon="97.686042">
<time>2016-10-07T18:58:32Z</time></trkpt>
<trkpt lat="29.853739" lon="97.686192">
<time>2016-10-07T18:58:33Z</time></trkpt>
<trkpt lat="29.854478" lon="97.686431">
<time>2016-10-07T18:58:34Z</time></trkpt>
<trkpt lat="29.854708" lon="97.686511">
<time>2016-10-07T18:58:35Z</time></trkpt>
<trkpt lat="29.854918" lon="97.686591">
<time>2016-10-07T18:58:36Z</time></trkpt>
<trkpt lat="29.855138" lon="97.686681">
<time>2016-10-07T18:58:37Z</time></trkpt>
<trkpt lat="29.855777" lon="97.68697">
<time>2016-10-07T18:58:38Z</time></trkpt>
<trkpt lat="29.855897" lon="97.68701">
<time>2016-10-07T18:58:39Z</time></trkpt>
<trkpt lat="29.856047" lon="97.68704">
<time>2016-10-07T18:58:40Z</time></trkpt>
<trkpt lat="29.856157" lon="97.68706">
<time>2016-10-07T18:58:41Z</time></trkpt>
<trkpt lat="29.856227" lon="97.68707">
<time>2016-10-07T18:58:42Z</time></trkpt>
<trkpt lat="29.856387" lon="97.6871">
<time>2016-10-07T18:58:43Z</time></trkpt>
<trkpt lat="29.856537" lon="97.68711">
<time>2016-10-07T18:58:44Z</time></trkpt>
<trkpt lat="29.856657" lon="97.68712">
<time>2016-10-07T18:58:45Z</time></trkpt>
<trkpt lat="29.856737" lon="97.68712">
<time>2016-10-07T18:58:46Z</time></trkpt>
<trkpt lat="29.856827" lon="97.68711">
<time>2016-10-07T18:58:47Z</time></trkpt>
<trkpt lat="29.856897" lon="97.68708">
<time>2016-10-07T18:58:48Z</time></trkpt>
<trkpt lat="29.856937" lon="97.68706">
<time>2016-10-07T18:58:49Z</time></trkpt>
<trkpt lat="29.856987" lon="97.68703">
<time>2016-10-07T18:58:50Z</time></trkpt>
<trkpt lat="29.857027" lon="97.68699">
<time>2016-10-07T18:58:51Z</time></trkpt>
<trkpt lat="29.857067" lon="97.68696">
<time>2016-10-07T18:58:52Z</time></trkpt>
<trkpt lat="29.857107" lon="97.68691">
<time>2016-10-07T18:58:53Z</time></trkpt>
<trkpt lat="29.857157" lon="97.686851">
<time>2016-10-07T18:58:54Z</time></trkpt>
<trkpt lat="29.857208" lon="97.686761">
<time>2016-10-07T18:58:55Z</time></trkpt>
<trkpt lat="29.857348" lon="97.686531">
<time>2016-10-07T18:58:56Z</time></trkpt>
<trkpt lat="29.857579" lon="97.686152">
<time>2016-10-07T18:58:57Z</time></trkpt>
<trkpt lat="29.857839" lon="97.685733">
<time>2016-10-07T18:58:58Z</time></trkpt>
<trkpt lat="29.85798" lon="97.685493">
<time>2016-10-07T18:58:59Z</time></trkpt>
<trkpt lat="29.85812" lon="97.685274">
<time>2016-10-07T18:59:00Z</time></trkpt>
<trkpt lat="29.858271" lon="97.685024">
<time>2016-10-07T18:59:01Z</time></trkpt>
<trkpt lat="29.858421" lon="97.684785">
<time>2016-10-07T18:59:02Z</time></trkpt>
<trkpt lat="29.858521" lon="97.684635">
<time>2016-10-07T18:59:03Z</time></trkpt>
<trkpt lat="29.858581" lon="97.684555">
<time>2016-10-07T18:59:04Z</time></trkpt>
<trkpt lat="29.858662" lon="97.684465">
<time>2016-10-07T18:59:05Z</time></trkpt>
<trkpt lat="29.858722" lon="97.684395">
<time>2016-10-07T18:59:06Z</time></trkpt>
<trkpt lat="29.858832" lon="97.684286">
<time>2016-10-07T18:59:07Z</time></trkpt>
<trkpt lat="29.859062" lon="97.684066">
<time>2016-10-07T18:59:08Z</time></trkpt>
<trkpt lat="29.859183" lon="97.683956">
<time>2016-10-07T18:59:09Z</time></trkpt>
<trkpt lat="29.859423" lon="97.683727">
<time>2016-10-07T18:59:10Z</time></trkpt>
<trkpt lat="29.859513" lon="97.683637">
<time>2016-10-07T18:59:11Z</time></trkpt>
<trkpt lat="29.859583" lon="97.683537">
<time>2016-10-07T18:59:12Z</time></trkpt>
<trkpt lat="29.859643" lon="97.683457">
<time>2016-10-07T18:59:13Z</time></trkpt>
<trkpt lat="29.859724" lon="97.683337">
<time>2016-10-07T18:59:14Z</time></trkpt>
<trkpt lat="29.859784" lon="97.683218">
<time>2016-10-07T18:59:15Z</time></trkpt>
<trkpt lat="29.859854" lon="97.683048">
<time>2016-10-07T18:59:16Z</time></trkpt>
<trkpt lat="29.859975" lon="97.682749">
<time>2016-10-07T18:59:17Z</time></trkpt>
<trkpt lat="29.860085" lon="97.682459">
<time>2016-10-07T18:59:18Z</time></trkpt>
<trkpt lat="29.860216" lon="97.68215">
<time>2016-10-07T18:59:19Z</time></trkpt>
<trkpt lat="29.860296" lon="97.68199">
<time>2016-10-07T18:59:20Z</time></trkpt>
<trkpt lat="29.860407" lon="97.68179">
<time>2016-10-07T18:59:21Z</time></trkpt>
<trkpt lat="29.860477" lon="97.681641">
<time>2016-10-07T18:59:22Z</time></trkpt>
<trkpt lat="29.860517" lon="97.681511">
<time>2016-10-07T18:59:23Z</time></trkpt>
<trkpt lat="29.860557" lon="97.681331">
<time>2016-10-07T18:59:24Z</time></trkpt>
<trkpt lat="29.860578" lon="97.681142">
<time>2016-10-07T18:59:25Z</time></trkpt>
<trkpt lat="29.860618" lon="97.680832">
<time>2016-10-07T18:59:26Z</time></trkpt>
<trkpt lat="29.860649" lon="97.680663">
<time>2016-10-07T18:59:27Z</time></trkpt>
<trkpt lat="29.860729" lon="97.680383">
<time>2016-10-07T18:59:28Z</time></trkpt>
<trkpt lat="29.861122" lon="97.679026">
<time>2016-10-07T18:59:29Z</time></trkpt>
<trkpt lat="29.861293" lon="97.678427">
<time>2016-10-07T18:59:30Z</time></trkpt>
<trkpt lat="29.861434" lon="97.677978">
<time>2016-10-07T18:59:31Z</time></trkpt>
<trkpt lat="29.861615" lon="97.67732">
<time>2016-10-07T18:59:32Z</time></trkpt>
<trkpt lat="29.862158" lon="97.675453">
<time>2016-10-07T18:59:33Z</time></trkpt>
<trkpt lat="29.8624" lon="97.674625">
<time>2016-10-07T18:59:34Z</time></trkpt>
<trkpt lat="29.862531" lon="97.674166">
<time>2016-10-07T18:59:35Z</time></trkpt>
<trkpt lat="29.862994" lon="97.672559">
<time>2016-10-07T18:59:36Z</time></trkpt>
<trkpt lat="29.863125" lon="97.67214">
<time>2016-10-07T18:59:37Z</time></trkpt>
<trkpt lat="29.863316" lon="97.671452">
<time>2016-10-07T18:59:38Z</time></trkpt>
<trkpt lat="29.863719" lon="97.670025">
<time>2016-10-07T18:59:39Z</time></trkpt>
<trkpt lat="29.863789" lon="97.669835">
<time>2016-10-07T18:59:40Z</time></trkpt>
<trkpt lat="29.863859" lon="97.669665">
<time>2016-10-07T18:59:41Z</time></trkpt>
<trkpt lat="29.8639" lon="97.669595">
<time>2016-10-07T18:59:42Z</time></trkpt>
<trkpt lat="29.86396" lon="97.669496">
<time>2016-10-07T18:59:43Z</time></trkpt>
<trkpt lat="29.86402" lon="97.669416">
<time>2016-10-07T18:59:44Z</time></trkpt>
<trkpt lat="29.86407" lon="97.669356">
<time>2016-10-07T18:59:45Z</time></trkpt>
<trkpt lat="29.86413" lon="97.669306">
<time>2016-10-07T18:59:46Z</time></trkpt>
<trkpt lat="29.86422" lon="97.669236">
<time>2016-10-07T18:59:47Z</time></trkpt>
<trkpt lat="29.864411" lon="97.669116">
<time>2016-10-07T18:59:48Z</time></trkpt>
<trkpt lat="29.864671" lon="97.668947">
<time>2016-10-07T18:59:49Z</time></trkpt>
<trkpt lat="29.864851" lon="97.668827">
<time>2016-10-07T18:59:50Z</time></trkpt>
<trkpt lat="29.865121" lon="97.668657">
<time>2016-10-07T18:59:51Z</time></trkpt>
<trkpt lat="29.865231" lon="97.668597">
<time>2016-10-07T18:59:52Z</time></trkpt>
<trkpt lat="29.865301" lon="97.668587">
<time>2016-10-07T18:59:53Z</time></trkpt>
<trkpt lat="29.865401" lon="97.668587">
<time>2016-10-07T18:59:54Z</time></trkpt>
<trkpt lat="29.865481" lon="97.668597">
<time>2016-10-07T18:59:55Z</time></trkpt>
<trkpt lat="29.865531" lon="97.668607">
<time>2016-10-07T18:59:56Z</time></trkpt>
<trkpt lat="29.865571" lon="97.668627">
<time>2016-10-07T18:59:57Z</time></trkpt>
<trkpt lat="29.865661" lon="97.668687">
<time>2016-10-07T18:59:58Z</time></trkpt>
<trkpt lat="29.865751" lon="97.668777">
<time>2016-10-07T18:59:59Z</time></trkpt>
<trkpt lat="29.865881" lon="97.668917">
<time>2016-10-07T19:00:00Z</time></trkpt>
<trkpt lat="29.865991" lon="97.669037">
<time>2016-10-07T19:00:01Z</time></trkpt>
<trkpt lat="29.86608" lon="97.669126">
<time>2016-10-07T19:00:02Z</time></trkpt>
<trkpt lat="29.86614" lon="97.669176">
<time>2016-10-07T19:00:03Z</time></trkpt>
<trkpt lat="29.86618" lon="97.669206">
<time>2016-10-07T19:00:04Z</time></trkpt>
<trkpt lat="29.86624" lon="97.669236">
<time>2016-10-07T19:00:05Z</time></trkpt>
<trkpt lat="29.86629" lon="97.669256">
<time>2016-10-07T19:00:06Z</time></trkpt>
<trkpt lat="29.86635" lon="97.669276">
<time>2016-10-07T19:00:07Z</time></trkpt>
<trkpt lat="29.86647" lon="97.669316">
<time>2016-10-07T19:00:08Z</time></trkpt>
<trkpt lat="29.86665" lon="97.669366">
<time>2016-10-07T19:00:09Z</time></trkpt>
<trkpt lat="29.86685" lon="97.669416">
<time>2016-10-07T19:00:10Z</time></trkpt>
<trkpt lat="29.86693" lon="97.669426">
<time>2016-10-07T19:00:11Z</time></trkpt>
<trkpt lat="29.86698" lon="97.669426">
<time>2016-10-07T19:00:12Z</time></trkpt>
<trkpt lat="29.86702" lon="97.669426">
<time>2016-10-07T19:00:13Z</time></trkpt>
<trkpt lat="29.86708" lon="97.669416">
<time>2016-10-07T19:00:14Z</time></trkpt>
<trkpt lat="29.86714" lon="97.669396">
<time>2016-10-07T19:00:15Z</time></trkpt>
<trkpt lat="29.86722" lon="97.669366">
<time>2016-10-07T19:00:16Z</time></trkpt>
<trkpt lat="29.86737" lon="97.669306">
<time>2016-10-07T19:00:17Z</time></trkpt>
<trkpt lat="29.86752" lon="97.669236">
<time>2016-10-07T19:00:18Z</time></trkpt>
<trkpt lat="29.86761" lon="97.669206">
<time>2016-10-07T19:00:19Z</time></trkpt>
<trkpt lat="29.86771" lon="97.669176">
<time>2016-10-07T19:00:20Z</time></trkpt>
<trkpt lat="29.86785" lon="97.669166">
<time>2016-10-07T19:00:21Z</time></trkpt>
<trkpt lat="29.86815" lon="97.669146">
<time>2016-10-07T19:00:22Z</time></trkpt>
<trkpt lat="29.8682" lon="97.669146">
<time>2016-10-07T19:00:23Z</time></trkpt>
<trkpt lat="29.8683" lon="97.669116">
<time>2016-10-07T19:00:24Z</time></trkpt>
<trkpt lat="29.8684" lon="97.669086">
<time>2016-10-07T19:00:25Z</time></trkpt>
<trkpt lat="29.868571" lon="97.669007">
<time>2016-10-07T19:00:26Z</time></trkpt>
<trkpt lat="29.868911" lon="97.668827">
<time>2016-10-07T19:00:27Z</time></trkpt>
<trkpt lat="29.869151" lon="97.668697">
<time>2016-10-07T19:00:28Z</time></trkpt>
<trkpt lat="29.869351" lon="97.668567">
<time>2016-10-07T19:00:29Z</time></trkpt>
<trkpt lat="29.869522" lon="97.668418">
<time>2016-10-07T19:00:30Z</time></trkpt>
<trkpt lat="29.869702" lon="97.668248">
<time>2016-10-07T19:00:31Z</time></trkpt>
<trkpt lat="29.869872" lon="97.668078">
<time>2016-10-07T19:00:32Z</time></trkpt>
<trkpt lat="29.870053" lon="97.667909">
<time>2016-10-07T19:00:33Z</time></trkpt>
<trkpt lat="29.870233" lon="97.667739">
<time>2016-10-07T19:00:34Z</time></trkpt>
<trkpt lat="29.870413" lon="97.667569">
<time>2016-10-07T19:00:35Z</time></trkpt>
<trkpt lat="29.870513" lon="97.66749">
<time>2016-10-07T19:00:36Z</time></trkpt>
<trkpt lat="29.870603" lon="97.66744">
<time>2016-10-07T19:00:37Z</time></trkpt>
<trkpt lat="29.870874" lon="97.6673">
<time>2016-10-07T19:00:38Z</time></trkpt>
<trkpt lat="29.871014" lon="97.66723">
<time>2016-10-07T19:00:39Z</time></trkpt>
<trkpt lat="29.871114" lon="97.66718">
<time>2016-10-07T19:00:40Z</time></trkpt>
<trkpt lat="29.871204" lon="97.66711">
<time>2016-10-07T19:00:41Z</time></trkpt>
<trkpt lat="29.871284" lon="97.667051">
<time>2016-10-07T19:00:42Z</time></trkpt>
<trkpt lat="29.871434" lon="97.666901">
<time>2016-10-07T19:00:43Z</time></trkpt>
<trkpt lat="29.871535" lon="97.666781">
<time>2016-10-07T19:00:44Z</time></trkpt>
<trkpt lat="29.871655" lon="97.666621">
<time>2016-10-07T19:00:45Z</time></trkpt>
<trkpt lat="29.871906" lon="97.666272">
<time>2016-10-07T19:00:46Z</time></trkpt>
<trkpt lat="29.872016" lon="97.666083">
<time>2016-10-07T19:00:47Z</time></trkpt>
<trkpt lat="29.872066" lon="97.665973">
<time>2016-10-07T19:00:48Z</time></trkpt>
<trkpt lat="29.872096" lon="97.665873">
<time>2016-10-07T19:00:49Z</time></trkpt>
<trkpt lat="29.872217" lon="97.665404">
<time>2016-10-07T19:00:50Z</time></trkpt>
<trkpt lat="29.872288" lon="97.665234">
<time>2016-10-07T19:00:51Z</time></trkpt>
<trkpt lat="29.872408" lon="97.664965">
<time>2016-10-07T19:00:52Z</time></trkpt>
<trkpt lat="29.872509" lon="97.664715">
<time>2016-10-07T19:00:53Z</time></trkpt>
<trkpt lat="29.872549" lon="97.664536">
<time>2016-10-07T19:00:54Z</time></trkpt>
<trkpt lat="29.872569" lon="97.664376">
<time>2016-10-07T19:00:55Z</time></trkpt>
<trkpt lat="29.872579" lon="97.664226">
<time>2016-10-07T19:00:56Z</time></trkpt>
<trkpt lat="29.87257" lon="97.663897">
<time>2016-10-07T19:00:57Z</time></trkpt>
<trkpt lat="29.872561" lon="97.663687">
<time>2016-10-07T19:00:58Z</time></trkpt>
<trkpt lat="29.872521" lon="97.663418">
<time>2016-10-07T19:00:59Z</time></trkpt>
<trkpt lat="29.872472" lon="97.663139">
<time>2016-10-07T19:01:00Z</time></trkpt>
<trkpt lat="29.872313" lon="97.66248">
<time>2016-10-07T19:01:01Z</time></trkpt>
<trkpt lat="29.872154" lon="97.661871">
<time>2016-10-07T19:01:02Z</time></trkpt>
<trkpt lat="29.871787" lon="97.660414">
<time>2016-10-07T19:01:03Z</time></trkpt>
<trkpt lat="29.871707" lon="97.660095">
<time>2016-10-07T19:01:04Z</time></trkpt>
<trkpt lat="29.871519" lon="97.659336">
<time>2016-10-07T19:01:05Z</time></trkpt>
<trkpt lat="29.871419" lon="97.658967">
<time>2016-10-07T19:01:06Z</time></trkpt>
<trkpt lat="29.87134" lon="97.658628">
<time>2016-10-07T19:01:07Z</time></trkpt>
<trkpt lat="29.87131" lon="97.658438">
<time>2016-10-07T19:01:08Z</time></trkpt>
<trkpt lat="29.871281" lon="97.658189">
<time>2016-10-07T19:01:09Z</time></trkpt>
<trkpt lat="29.871261" lon="97.657969">
<time>2016-10-07T19:01:10Z</time></trkpt>
<trkpt lat="29.871203" lon="97.657111">
<time>2016-10-07T19:01:11Z</time></trkpt>
<trkpt lat="29.871203" lon="97.656931">
<time>2016-10-07T19:01:12Z</time></trkpt>
<trkpt lat="29.871213" lon="97.656771">
<time>2016-10-07T19:01:13Z</time></trkpt>
<trkpt lat="29.871234" lon="97.656622">
<time>2016-10-07T19:01:14Z</time></trkpt>
<trkpt lat="29.871254" lon="97.656472">
<time>2016-10-07T19:01:15Z</time></trkpt>
<trkpt lat="29.871324" lon="97.656212">
<time>2016-10-07T19:01:16Z</time></trkpt>
<trkpt lat="29.871415" lon="97.655903">
<time>2016-10-07T19:01:17Z</time></trkpt>
<trkpt lat="29.871606" lon="97.655274">
<time>2016-10-07T19:01:18Z</time></trkpt>
<trkpt lat="29.871697" lon="97.654945">
<time>2016-10-07T19:01:19Z</time></trkpt>
<trkpt lat="29.871848" lon="97.654436">
<time>2016-10-07T19:01:20Z</time></trkpt>
<trkpt lat="29.871938" lon="97.654147">
<time>2016-10-07T19:01:21Z</time></trkpt>
<trkpt lat="29.871998" lon="97.653987">
<time>2016-10-07T19:01:22Z</time></trkpt>
<trkpt lat="29.872049" lon="97.653857">
<time>2016-10-07T19:01:23Z</time></trkpt>
<trkpt lat="29.872099" lon="97.653757">
<time>2016-10-07T19:01:24Z</time></trkpt>
<trkpt lat="29.872179" lon="97.653598">
<time>2016-10-07T19:01:25Z</time></trkpt>
<trkpt lat="29.872279" lon="97.653448">
<time>2016-10-07T19:01:26Z</time></trkpt>
<trkpt lat="29.8724" lon="97.653288">
<time>2016-10-07T19:01:27Z</time></trkpt>
<trkpt lat="29.87245" lon="97.653218">
<time>2016-10-07T19:01:28Z</time></trkpt>
<trkpt lat="29.87253" lon="97.653119">
<time>2016-10-07T19:01:29Z</time></trkpt>
<trkpt lat="29.87264" lon="97.653009">
<time>2016-10-07T19:01:30Z</time></trkpt>
<trkpt lat="29.872831" lon="97.652809">
<time>2016-10-07T19:01:31Z</time></trkpt>
<trkpt lat="29.873001" lon="97.652629">
<time>2016-10-07T19:01:32Z</time></trkpt>
<trkpt lat="29.873041" lon="97.65259">
<time>2016-10-07T19:01:33Z</time></trkpt>
<trkpt lat="29.873101" lon="97.65255">
<time>2016-10-07T19:01:34Z</time></trkpt>
<trkpt lat="29.873171" lon="97.6525">
<time>2016-10-07T19:01:35Z</time></trkpt>
<trkpt lat="29.873211" lon="97.65247">
<time>2016-10-07T19:01:36Z</time></trkpt>
<trkpt lat="29.873241" lon="97.65245">
<time>2016-10-07T19:01:37Z</time></trkpt>
<trkpt lat="29.873301" lon="97.65243">
<time>2016-10-07T19:01:38Z</time></trkpt>
<trkpt lat="29.873341" lon="97.65241">
<time>2016-10-07T19:01:39Z</time></trkpt>
<trkpt lat="29.873401" lon="97.6524">
<time>2016-10-07T19:01:40Z</time></trkpt>
<trkpt lat="29.873501" lon="97.65238">
<time>2016-10-07T19:01:41Z</time></trkpt>
<trkpt lat="29.873651" lon="97.65238">
<time>2016-10-07T19:01:42Z</time></trkpt>
<trkpt lat="29.873761" lon="97.65237">
<time>2016-10-07T19:01:43Z</time></trkpt>
<trkpt lat="29.874141" lon="97.65237">
<time>2016-10-07T19:01:44Z</time></trkpt>
<trkpt lat="29.874331" lon="97.65236">
<time>2016-10-07T19:01:45Z</time></trkpt>
<trkpt lat="29.874541" lon="97.65236">
<time>2016-10-07T19:01:46Z</time></trkpt>
<trkpt lat="29.874741" lon="97.65236">
<time>2016-10-07T19:01:47Z</time></trkpt>
<trkpt lat="29.874881" lon="97.65236">
<time>2016-10-07T19:01:48Z</time></trkpt>
<trkpt lat="29.874991" lon="97.65237">
<time>2016-10-07T19:01:49Z</time></trkpt>
<trkpt lat="29.875061" lon="97.65238">
<time>2016-10-07T19:01:50Z</time></trkpt>
<trkpt lat="29.875131" lon="97.65239">
<time>2016-10-07T19:01:51Z</time></trkpt>
<trkpt lat="29.875201" lon="97.65241">
<time>2016-10-07T19:01:52Z</time></trkpt>
<trkpt lat="29.875571" lon="97.65252">
<time>2016-10-07T19:01:53Z</time></trkpt>
<trkpt lat="29.875841" lon="97.652619">
<time>2016-10-07T19:01:54Z</time></trkpt>
<trkpt lat="29.876151" lon="97.652729">
<time>2016-10-07T19:01:55Z</time></trkpt>
<trkpt lat="29.87637" lon="97.652799">
<time>2016-10-07T19:01:56Z</time></trkpt>
<trkpt lat="29.87654" lon="97.652859">
<time>2016-10-07T19:01:57Z</time></trkpt>
<trkpt lat="29.87666" lon="97.652889">
<time>2016-10-07T19:01:58Z</time></trkpt>
<trkpt lat="29.87679" lon="97.652919">
<time>2016-10-07T19:01:59Z</time></trkpt>
<trkpt lat="29.87693" lon="97.652949">
<time>2016-10-07T19:02:00Z</time></trkpt>
<trkpt lat="29.87708" lon="97.652959">
<time>2016-10-07T19:02:01Z</time></trkpt>
<trkpt lat="29.87729" lon="97.652959">
<time>2016-10-07T19:02:02Z</time></trkpt>
<trkpt lat="29.87741" lon="97.652949">
<time>2016-10-07T19:02:03Z</time></trkpt>
<trkpt lat="29.87751" lon="97.652939">
<time>2016-10-07T19:02:04Z</time></trkpt>
<trkpt lat="29.87809" lon="97.652819">
<time>2016-10-07T19:02:05Z</time></trkpt>
<trkpt lat="29.8785" lon="97.652749">
<time>2016-10-07T19:02:06Z</time></trkpt>
<trkpt lat="29.878721" lon="97.652699">
<time>2016-10-07T19:02:07Z</time></trkpt>
<trkpt lat="29.878991" lon="97.652619">
<time>2016-10-07T19:02:08Z</time></trkpt>
<trkpt lat="29.879181" lon="97.65253">
<time>2016-10-07T19:02:09Z</time></trkpt>
<trkpt lat="29.879271" lon="97.65248">
<time>2016-10-07T19:02:10Z</time></trkpt>
<trkpt lat="29.879391" lon="97.65241">
<time>2016-10-07T19:02:11Z</time></trkpt>
<trkpt lat="29.879541" lon="97.65229">
<time>2016-10-07T19:02:12Z</time></trkpt>
<trkpt lat="29.879701" lon="97.65217">
<time>2016-10-07T19:02:13Z</time></trkpt>
<trkpt lat="29.879862" lon="97.65202">
<time>2016-10-07T19:02:14Z</time></trkpt>
<trkpt lat="29.879952" lon="97.651921">
<time>2016-10-07T19:02:15Z</time></trkpt>
<trkpt lat="29.880212" lon="97.651661">
<time>2016-10-07T19:02:16Z</time></trkpt>
<trkpt lat="29.880633" lon="97.651252">
<time>2016-10-07T19:02:17Z</time></trkpt>
<trkpt lat="29.881264" lon="97.650643">
<time>2016-10-07T19:02:18Z</time></trkpt>
<trkpt lat="29.881785" lon="97.650144">
<time>2016-10-07T19:02:19Z</time></trkpt>
<trkpt lat="29.882176" lon="97.649755">
<time>2016-10-07T19:02:20Z</time></trkpt>
<trkpt lat="29.882416" lon="97.649525">
<time>2016-10-07T19:02:21Z</time></trkpt>
<trkpt lat="29.882656" lon="97.649286">
<time>2016-10-07T19:02:22Z</time></trkpt>
<trkpt lat="29.882767" lon="97.649176">
<time>2016-10-07T19:02:23Z</time></trkpt>
<trkpt lat="29.882897" lon="97.649056">
<time>2016-10-07T19:02:24Z</time></trkpt>
<trkpt lat="29.883127" lon="97.648826">
<time>2016-10-07T19:02:25Z</time></trkpt>
<trkpt lat="29.883267" lon="97.648687">
<time>2016-10-07T19:02:26Z</time></trkpt>
<trkpt lat="29.883468" lon="97.648497">
<time>2016-10-07T19:02:27Z</time></trkpt>
<trkpt lat="29.883598" lon="97.648397">
<time>2016-10-07T19:02:28Z</time></trkpt>
<trkpt lat="29.883718" lon="97.648307">
<time>2016-10-07T19:02:29Z</time></trkpt>
<trkpt lat="29.883838" lon="97.648228">
<time>2016-10-07T19:02:30Z</time></trkpt>
<trkpt lat="29.883958" lon="97.648168">
<time>2016-10-07T19:02:31Z</time></trkpt>
<trkpt lat="29.884108" lon="97.648098">
<time>2016-10-07T19:02:32Z</time></trkpt>
<trkpt lat="29.884228" lon="97.648048">
<time>2016-10-07T19:02:33Z</time></trkpt>
<trkpt lat="29.884379" lon="97.647998">
<time>2016-10-07T19:02:34Z</time></trkpt>
<trkpt lat="29.884559" lon="97.647948">
<time>2016-10-07T19:02:35Z</time></trkpt>
<trkpt lat="29.884669" lon="97.647918">
<time>2016-10-07T19:02:36Z</time></trkpt>
<trkpt lat="29.884789" lon="97.647898">
<time>2016-10-07T19:02:37Z</time></trkpt>
<trkpt lat="29.884949" lon="97.647888">
<time>2016-10-07T19:02:38Z</time></trkpt>
<trkpt lat="29.885239" lon="97.647868">
<time>2016-10-07T19:02:39Z</time></trkpt>
<trkpt lat="29.885519" lon="97.647848">
<time>2016-10-07T19:02:40Z</time></trkpt>
<trkpt lat="29.885829" lon="97.647828">
<time>2016-10-07T19:02:41Z</time></trkpt>
<trkpt lat="29.886369" lon="97.647798">
<time>2016-10-07T19:02:42Z</time></trkpt>
<trkpt lat="29.886619" lon="97.647778">
<time>2016-10-07T19:02:43Z</time></trkpt>
<trkpt lat="29.887129" lon="97.647758">
<time>2016-10-07T19:02:44Z</time></trkpt>
<trkpt lat="29.887379" lon="97.647728">
<time>2016-10-07T19:02:45Z</time></trkpt>
<trkpt lat="29.887629" lon="97.647718">
<time>2016-10-07T19:02:46Z</time></trkpt>
<trkpt lat="29.887769" lon="97.647708">
<time>2016-10-07T19:02:47Z</time></trkpt>
<trkpt lat="29.887899" lon="97.647688">
<time>2016-10-07T19:02:48Z</time></trkpt>
<trkpt lat="29.887949" lon="97.647669">
<time>2016-10-07T19:02:49Z</time></trkpt>
<trkpt lat="29.888019" lon="97.647649">
<time>2016-10-07T19:02:50Z</time></trkpt>
<trkpt lat="29.888129" lon="97.647599">
<time>2016-10-07T19:02:51Z</time></trkpt>
<trkpt lat="29.888229" lon="97.647529">
<time>2016-10-07T19:02:52Z</time></trkpt>
<trkpt lat="29.888289" lon="97.647479">
<time>2016-10-07T19:02:53Z</time></trkpt>
<trkpt lat="29.888339" lon="97.647429">
<time>2016-10-07T19:02:54Z</time></trkpt>
<trkpt lat="29.88847" lon="97.647289">
<time>2016-10-07T19:02:55Z</time></trkpt>
<trkpt lat="29.88874" lon="97.647">
<time>2016-10-07T19:02:56Z</time></trkpt>
<trkpt lat="29.88896" lon="97.64674">
<time>2016-10-07T19:02:57Z</time></trkpt>
<trkpt lat="29.889081" lon="97.6466">
<time>2016-10-07T19:02:58Z</time></trkpt>
<trkpt lat="29.889211" lon="97.646441">
<time>2016-10-07T19:02:59Z</time></trkpt>
<trkpt lat="29.889462" lon="97.646101">
<time>2016-10-07T19:03:00Z</time></trkpt>
<trkpt lat="29.889622" lon="97.645882">
<time>2016-10-07T19:03:01Z</time></trkpt>
<trkpt lat="29.889712" lon="97.645762">
<time>2016-10-07T19:03:02Z</time></trkpt>
<trkpt lat="29.889782" lon="97.645642">
<time>2016-10-07T19:03:03Z</time></trkpt>
<trkpt lat="29.890003" lon="97.645303">
<time>2016-10-07T19:03:04Z</time></trkpt>
<trkpt lat="29.890324" lon="97.644794">
<time>2016-10-07T19:03:05Z</time></trkpt>
<trkpt lat="29.890554" lon="97.644434">
<time>2016-10-07T19:03:06Z</time></trkpt>
<trkpt lat="29.890895" lon="97.643905">
<time>2016-10-07T19:03:07Z</time></trkpt>
<trkpt lat="29.891146" lon="97.643516">
<time>2016-10-07T19:03:08Z</time></trkpt>
<trkpt lat="29.891306" lon="97.643276">
<time>2016-10-07T19:03:09Z</time></trkpt>
<trkpt lat="29.891416" lon="97.643087">
<time>2016-10-07T19:03:10Z</time></trkpt>
<trkpt lat="29.891557" lon="97.642857">
<time>2016-10-07T19:03:11Z</time></trkpt>
<trkpt lat="29.891657" lon="97.642687">
<time>2016-10-07T19:03:12Z</time></trkpt>
<trkpt lat="29.891818" lon="97.642368">
<time>2016-10-07T19:03:13Z</time></trkpt>
<trkpt lat="29.891958" lon="97.642048">
<time>2016-10-07T19:03:14Z</time></trkpt>
<trkpt lat="29.892069" lon="97.641719">
<time>2016-10-07T19:03:15Z</time></trkpt>
<trkpt lat="29.892179" lon="97.641379">
<time>2016-10-07T19:03:16Z</time></trkpt>
<trkpt lat="29.892552" lon="97.639752">
<time>2016-10-07T19:03:17Z</time></trkpt>
<trkpt lat="29.892612" lon="97.639463">
<time>2016-10-07T19:03:18Z</time></trkpt>
<trkpt lat="29.892723" lon="97.638944">
<time>2016-10-07T19:03:19Z</time></trkpt>
<trkpt lat="29.892954" lon="97.637915">
<time>2016-10-07T19:03:20Z</time></trkpt>
<trkpt lat="29.893136" lon="97.637037">
<time>2016-10-07T19:03:21Z</time></trkpt>
<trkpt lat="29.893176" lon="97.636817">
<time>2016-10-07T19:03:22Z</time></trkpt>
<trkpt lat="29.893327" lon="97.636058">
<time>2016-10-07T19:03:23Z</time></trkpt>
<trkpt lat="29.893357" lon="97.635868">
<time>2016-10-07T19:03:24Z</time></trkpt>
<trkpt lat="29.893488" lon="97.63503">
<time>2016-10-07T19:03:25Z</time></trkpt>
<trkpt lat="29.89368" lon="97.633722">
<time>2016-10-07T19:03:26Z</time></trkpt>
<trkpt lat="29.893862" lon="97.632413">
<time>2016-10-07T19:03:27Z</time></trkpt>
<trkpt lat="29.893933" lon="97.631704">
<time>2016-10-07T19:03:28Z</time></trkpt>
<trkpt lat="29.894014" lon="97.630616">
<time>2016-10-07T19:03:29Z</time></trkpt>
<trkpt lat="29.894065" lon="97.629817">
<time>2016-10-07T19:03:30Z</time></trkpt>
<trkpt lat="29.894086" lon="97.629597">
<time>2016-10-07T19:03:31Z</time></trkpt>
<trkpt lat="29.894096" lon="97.629477">
<time>2016-10-07T19:03:32Z</time></trkpt>
<trkpt lat="29.894116" lon="97.629418">
<time>2016-10-07T19:03:33Z</time></trkpt>
<trkpt lat="29.894126" lon="97.629388">
<time>2016-10-07T19:03:34Z</time></trkpt>
<trkpt lat="29.894146" lon="97.629348">
<time>2016-10-07T19:03:35Z</time></trkpt>
<trkpt lat="29.894176" lon="97.629318">
<time>2016-10-07T19:03:36Z</time></trkpt>
<trkpt lat="29.894206" lon="97.629288">
<time>2016-10-07T19:03:37Z</time></trkpt>
<trkpt lat="29.894236" lon="97.629268">
<time>2016-10-07T19:03:38Z</time></trkpt>
<trkpt lat="29.894276" lon="97.629248">
<time>2016-10-07T19:03:39Z</time></trkpt>
<trkpt lat="29.894306" lon="97.629238">
<time>2016-10-07T19:03:40Z</time></trkpt>
<trkpt lat="29.894346" lon="97.629228">
<time>2016-10-07T19:03:41Z</time></trkpt>
<trkpt lat="29.894376" lon="97.629218">
<time>2016-10-07T19:03:42Z</time></trkpt>
<trkpt lat="29.894416" lon="97.629218">
<time>2016-10-07T19:03:43Z</time></trkpt>
<trkpt lat="29.894506" lon="97.629218">
<time>2016-10-07T19:03:44Z</time></trkpt>
<trkpt lat="29.894696" lon="97.629218">
<time>2016-10-07T19:03:45Z</time></trkpt>
<trkpt lat="29.894906" lon="97.629218">
<time>2016-10-07T19:03:46Z</time></trkpt>
<trkpt lat="29.895116" lon="97.629218">
<time>2016-10-07T19:03:47Z</time></trkpt>
<trkpt lat="29.895236" lon="97.629228">
<time>2016-10-07T19:03:48Z</time></trkpt>
<trkpt lat="29.895326" lon="97.629238">
<time>2016-10-07T19:03:49Z</time></trkpt>
<trkpt lat="29.895526" lon="97.629248">
<time>2016-10-07T19:03:50Z</time></trkpt>
<trkpt lat="29.895726" lon="97.629248">
<time>2016-10-07T19:03:51Z</time></trkpt>
<trkpt lat="29.895856" lon="97.629248">
<time>2016-10-07T19:03:52Z</time></trkpt>
<trkpt lat="29.895946" lon="97.629238">
<time>2016-10-07T19:03:53Z</time></trkpt>
<trkpt lat="29.896166" lon="97.629208">
<time>2016-10-07T19:03:54Z</time></trkpt>
<trkpt lat="29.896376" lon="97.629168">
<time>2016-10-07T19:03:55Z</time></trkpt>
<trkpt lat="29.896486" lon="97.629148">
<time>2016-10-07T19:03:56Z</time></trkpt>
<trkpt lat="29.896676" lon="97.629098">
<time>2016-10-07T19:03:57Z</time></trkpt>
<trkpt lat="29.896816" lon="97.629058">
<time>2016-10-07T19:03:58Z</time></trkpt>
<trkpt lat="29.897606" lon="97.628808">
<time>2016-10-07T19:03:59Z</time></trkpt>
<trkpt lat="29.898247" lon="97.628618">
<time>2016-10-07T19:04:00Z</time></trkpt>
<trkpt lat="29.898627" lon="97.628499">
<time>2016-10-07T19:04:01Z</time></trkpt>
<trkpt lat="29.898827" lon="97.628439">
<time>2016-10-07T19:04:02Z</time></trkpt>
<trkpt lat="29.898897" lon="97.628419">
<time>2016-10-07T19:04:03Z</time></trkpt>
<trkpt lat="29.898947" lon="97.628399">
<time>2016-10-07T19:04:04Z</time></trkpt>
<trkpt lat="29.898997" lon="97.628369">
<time>2016-10-07T19:04:05Z</time></trkpt>
<trkpt lat="29.899037" lon="97.628349">
<time>2016-10-07T19:04:06Z</time></trkpt>
<trkpt lat="29.899077" lon="97.628319">
<time>2016-10-07T19:04:07Z</time></trkpt>
<trkpt lat="29.899127" lon="97.628279">
<time>2016-10-07T19:04:08Z</time></trkpt>
<trkpt lat="29.899207" lon="97.628189">
<time>2016-10-07T19:04:09Z</time></trkpt>
<trkpt lat="29.899277" lon="97.628099">
<time>2016-10-07T19:04:10Z</time></trkpt>
<trkpt lat="29.899327" lon="97.628019">
<time>2016-10-07T19:04:11Z</time></trkpt>
<trkpt lat="29.899367" lon="97.627939">
<time>2016-10-07T19:04:12Z</time></trkpt>
<trkpt lat="29.899438" lon="97.6278">
<time>2016-10-07T19:04:13Z</time></trkpt>
<trkpt lat="29.899889" lon="97.626931">
<time>2016-10-07T19:04:14Z</time></trkpt>
<trkpt lat="29.90071" lon="97.625323">
<time>2016-10-07T19:04:15Z</time></trkpt>
<trkpt lat="29.900801" lon="97.625133">
<time>2016-10-07T19:04:16Z</time></trkpt>
<trkpt lat="29.900851" lon="97.625033">
<time>2016-10-07T19:04:17Z</time></trkpt>
<trkpt lat="29.900901" lon="97.624963">
<time>2016-10-07T19:04:18Z</time></trkpt>
<trkpt lat="29.900981" lon="97.624803">
<time>2016-10-07T19:04:19Z</time></trkpt>
<trkpt lat="29.901041" lon="97.624713">
<time>2016-10-07T19:04:20Z</time></trkpt>
<trkpt lat="29.901111" lon="97.624613">
<time>2016-10-07T19:04:21Z</time></trkpt>
<trkpt lat="29.901181" lon="97.624533">
<time>2016-10-07T19:04:22Z</time></trkpt>
<trkpt lat="29.901281" lon="97.624454">
<time>2016-10-07T19:04:23Z</time></trkpt>
<trkpt lat="29.901401" lon="97.624364">
<time>2016-10-07T19:04:24Z</time></trkpt>
<trkpt lat="29.901652" lon="97.624214">
<time>2016-10-07T19:04:25Z</time></trkpt>
<trkpt lat="29.901902" lon="97.624054">
<time>2016-10-07T19:04:26Z</time></trkpt>
<trkpt lat="29.902082" lon="97.623934">
<time>2016-10-07T19:04:27Z</time></trkpt>
<trkpt lat="29.902242" lon="97.623804">
<time>2016-10-07T19:04:28Z</time></trkpt>
<trkpt lat="29.902482" lon="97.623594">
<time>2016-10-07T19:04:29Z</time></trkpt>
<trkpt lat="29.902632" lon="97.623425">
<time>2016-10-07T19:04:30Z</time></trkpt>
<trkpt lat="29.902743" lon="97.623295">
<time>2016-10-07T19:04:31Z</time></trkpt>
<trkpt lat="29.903093" lon="97.622865">
<time>2016-10-07T19:04:32Z</time></trkpt>
<trkpt lat="29.903373" lon="97.622496">
<time>2016-10-07T19:04:33Z</time></trkpt>
<trkpt lat="29.903674" lon="97.622176">
<time>2016-10-07T19:04:34Z</time></trkpt>
<trkpt lat="29.903934" lon="97.621906">
<time>2016-10-07T19:04:35Z</time></trkpt>
<trkpt lat="29.904064" lon="97.621756">
<time>2016-10-07T19:04:36Z</time></trkpt>
<trkpt lat="29.904164" lon="97.621627">
<time>2016-10-07T19:04:37Z</time></trkpt>
<trkpt lat="29.904284" lon="97.621457">
<time>2016-10-07T19:04:38Z</time></trkpt>
<trkpt lat="29.904445" lon="97.621197">
<time>2016-10-07T19:04:39Z</time></trkpt>
<trkpt lat="29.904645" lon="97.620917">
<time>2016-10-07T19:04:40Z</time></trkpt>
<trkpt lat="29.904955" lon="97.620548">
<time>2016-10-07T19:04:41Z</time></trkpt>
<trkpt lat="29.905215" lon="97.620278">
<time>2016-10-07T19:04:42Z</time></trkpt>
<trkpt lat="29.905356" lon="97.620098">
<time>2016-10-07T19:04:43Z</time></trkpt>
<trkpt lat="29.905446" lon="97.619958">
<time>2016-10-07T19:04:44Z</time></trkpt>
<trkpt lat="29.905496" lon="97.619868">
<time>2016-10-07T19:04:45Z</time></trkpt>
<trkpt lat="29.905626" lon="97.619599">
<time>2016-10-07T19:04:46Z</time></trkpt>
<trkpt lat="29.905686" lon="97.619439">
<time>2016-10-07T19:04:47Z</time></trkpt>
<trkpt lat="29.905917" lon="97.618929">
<time>2016-10-07T19:04:48Z</time></trkpt>
<trkpt lat="29.906027" lon="97.618669">
<time>2016-10-07T19:04:49Z</time></trkpt>
<trkpt lat="29.906067" lon="97.618549">
<time>2016-10-07T19:04:50Z</time></trkpt>
<trkpt lat="29.906117" lon="97.61842">
<time>2016-10-07T19:04:51Z</time></trkpt>
<trkpt lat="29.906147" lon="97.6183">
<time>2016-10-07T19:04:52Z</time></trkpt>
<trkpt lat="29.906167" lon="97.61817">
<time>2016-10-07T19:04:53Z</time></trkpt>
<trkpt lat="29.906218" lon="97.61789">
<time>2016-10-07T19:04:54Z</time></trkpt>
<trkpt lat="29.906268" lon="97.61766">
<time>2016-10-07T19:04:55Z</time></trkpt>
<trkpt lat="29.906338" lon="97.61739">
<time>2016-10-07T19:04:56Z</time></trkpt>
<trkpt lat="29.906408" lon="97.617191">
<time>2016-10-07T19:04:57Z</time></trkpt>
<trkpt lat="29.906508" lon="97.616931">
<time>2016-10-07T19:04:58Z</time></trkpt>
<trkpt lat="29.906629" lon="97.616631">
<time>2016-10-07T19:04:59Z</time></trkpt>
<trkpt lat="29.906819" lon="97.616191">
<time>2016-10-07T19:05:00Z</time></trkpt>
<trkpt lat="29.906879" lon="97.616022">
<time>2016-10-07T19:05:01Z</time></trkpt>
<trkpt lat="29.906929" lon="97.615892">
<time>2016-10-07T19:05:02Z</time></trkpt>
<trkpt lat="29.906949" lon="97.615772">
<time>2016-10-07T19:05:03Z</time></trkpt>
<trkpt lat="29.906959" lon="97.615652">
<time>2016-10-07T19:05:04Z</time></trkpt>
<trkpt lat="29.906959" lon="97.615522">
<time>2016-10-07T19:05:05Z</time></trkpt>
<trkpt lat="29.90694" lon="97.615342">
<time>2016-10-07T19:05:06Z</time></trkpt>
<trkpt lat="29.9069" lon="97.615112">
<time>2016-10-07T19:05:07Z</time></trkpt>
<trkpt lat="29.90677" lon="97.614453">
<time>2016-10-07T19:05:08Z</time></trkpt>
<trkpt lat="29.906661" lon="97.613933">
<time>2016-10-07T19:05:09Z</time></trkpt>
<trkpt lat="29.906601" lon="97.613593">
<time>2016-10-07T19:05:10Z</time></trkpt>
<trkpt lat="29.906571" lon="97.613344">
<time>2016-10-07T19:05:11Z</time></trkpt>
<trkpt lat="29.906561" lon="97.613084">
<time>2016-10-07T19:05:12Z</time></trkpt>
<trkpt lat="29.906561" lon="97.613074">
<time>2016-10-07T19:05:13Z</time></trkpt>
<trkpt lat="29.906551" lon="97.612924">
<time>2016-10-07T19:05:14Z</time></trkpt>
<trkpt lat="29.906551" lon="97.612674">
<time>2016-10-07T19:05:15Z</time></trkpt>
<trkpt lat="29.906542" lon="97.612464">
<time>2016-10-07T19:05:16Z</time></trkpt>
<trkpt lat="29.906542" lon="97.612364">
<time>2016-10-07T19:05:17Z</time></trkpt>
<trkpt lat="29.906552" lon="97.612274">
<time>2016-10-07T19:05:18Z</time></trkpt>
<trkpt lat="29.906552" lon="97.612174">
<time>2016-10-07T19:05:19Z</time></trkpt>
<trkpt lat="29.906572" lon="97.612014">
<time>2016-10-07T19:05:20Z</time></trkpt>
<trkpt lat="29.906582" lon="97.611925">
<time>2016-10-07T19:05:21Z</time></trkpt>
<trkpt lat="29.906592" lon="97.611845">
<time>2016-10-07T19:05:22Z</time></trkpt>
<trkpt lat="29.906612" lon="97.611775">
<time>2016-10-07T19:05:23Z</time></trkpt>
<trkpt lat="29.906632" lon="97.611675">
<time>2016-10-07T19:05:24Z</time></trkpt>
<trkpt lat="29.906682" lon="97.611475">
<time>2016-10-07T19:05:25Z</time></trkpt>
<trkpt lat="29.906732" lon="97.611335">
<time>2016-10-07T19:05:26Z</time></trkpt>
<trkpt lat="29.906782" lon="97.611165">
<time>2016-10-07T19:05:27Z</time></trkpt>
<trkpt lat="29.906903" lon="97.610775">
<time>2016-10-07T19:05:28Z</time></trkpt>
<trkpt lat="29.907033" lon="97.610395">
<time>2016-10-07T19:05:29Z</time></trkpt>
<trkpt lat="29.907604" lon="97.608586">
<time>2016-10-07T19:05:30Z</time></trkpt>
<trkpt lat="29.907904" lon="97.607667">
<time>2016-10-07T19:05:31Z</time></trkpt>
<trkpt lat="29.908024" lon="97.607277">
<time>2016-10-07T19:05:32Z</time></trkpt>
<trkpt lat="29.908214" lon="97.606687">
<time>2016-10-07T19:05:33Z</time></trkpt>
<trkpt lat="29.908425" lon="97.606007">
<time>2016-10-07T19:05:34Z</time></trkpt>
<trkpt lat="29.908525" lon="97.605697">
<time>2016-10-07T19:05:35Z</time></trkpt>
<trkpt lat="29.908565" lon="97.605607">
<time>2016-10-07T19:05:36Z</time></trkpt>
<trkpt lat="29.908605" lon="97.605538">
<time>2016-10-07T19:05:37Z</time></trkpt>
<trkpt lat="29.908675" lon="97.605428">
<time>2016-10-07T19:05:38Z</time></trkpt>
<trkpt lat="29.908765" lon="97.605328">
<time>2016-10-07T19:05:39Z</time></trkpt>
<trkpt lat="29.908875" lon="97.605208">
<time>2016-10-07T19:05:40Z</time></trkpt>
<trkpt lat="29.909015" lon="97.605078">
<time>2016-10-07T19:05:41Z</time></trkpt>
<trkpt lat="29.909255" lon="97.604868">
<time>2016-10-07T19:05:42Z</time></trkpt>
<trkpt lat="29.909705" lon="97.604488">
<time>2016-10-07T19:05:43Z</time></trkpt>
<trkpt lat="29.909795" lon="97.604398">
<time>2016-10-07T19:05:44Z</time></trkpt>
<trkpt lat="29.909895" lon="97.604288">
<time>2016-10-07T19:05:45Z</time></trkpt>
<trkpt lat="29.909985" lon="97.604178">
<time>2016-10-07T19:05:46Z</time></trkpt>
<trkpt lat="29.910065" lon="97.604068">
<time>2016-10-07T19:05:47Z</time></trkpt>
<trkpt lat="29.910145" lon="97.603928">
<time>2016-10-07T19:05:48Z</time></trkpt>
<trkpt lat="29.910205" lon="97.603798">
<time>2016-10-07T19:05:49Z</time></trkpt>
<trkpt lat="29.910275" lon="97.603648">
<time>2016-10-07T19:05:50Z</time></trkpt>
<trkpt lat="29.910396" lon="97.603368">
<time>2016-10-07T19:05:51Z</time></trkpt>
<trkpt lat="29.910486" lon="97.603148">
<time>2016-10-07T19:05:52Z</time></trkpt>
<trkpt lat="29.910566" lon="97.602978">
<time>2016-10-07T19:05:53Z</time></trkpt>
<trkpt lat="29.910636" lon="97.602828">
<time>2016-10-07T19:05:54Z</time></trkpt>
<trkpt lat="29.910696" lon="97.602748">
<time>2016-10-07T19:05:55Z</time></trkpt>
<trkpt lat="29.910746" lon="97.602678">
<time>2016-10-07T19:05:56Z</time></trkpt>
<trkpt lat="29.910806" lon="97.602628">
<time>2016-10-07T19:05:57Z</time></trkpt>
<trkpt lat="29.910966" lon="97.602468">
<time>2016-10-07T19:05:58Z</time></trkpt>
<trkpt lat="29.911086" lon="97.602338">
<time>2016-10-07T19:05:59Z</time></trkpt>
<trkpt lat="29.911146" lon="97.602228">
<time>2016-10-07T19:06:00Z</time></trkpt>
<trkpt lat="29.911196" lon="97.602108">
<time>2016-10-07T19:06:01Z</time></trkpt>
<trkpt lat="29.911246" lon="97.601948">
<time>2016-10-07T19:06:02Z</time></trkpt>
<trkpt lat="29.911306" lon="97.601748">
<time>2016-10-07T19:06:03Z</time></trkpt>
<trkpt lat="29.911396" lon="97.601378">
<time>2016-10-07T19:06:04Z</time></trkpt>
<trkpt lat="29.911456" lon="97.601148">
<time>2016-10-07T19:06:05Z</time></trkpt>
<trkpt lat="29.911496" lon="97.600988">
<time>2016-10-07T19:06:06Z</time></trkpt>
<trkpt lat="29.911526" lon="97.600888">
<time>2016-10-07T19:06:07Z</time></trkpt>
<trkpt lat="29.911546" lon="97.600838">
<time>2016-10-07T19:06:08Z</time></trkpt>
<trkpt lat="29.911576" lon="97.600768">
<time>2016-10-07T19:06:09Z</time></trkpt>
<trkpt lat="29.911606" lon="97.600718">
<time>2016-10-07T19:06:10Z</time></trkpt>
<trkpt lat="29.911646" lon="97.600648">
<time>2016-10-07T19:06:11Z</time></trkpt>
<trkpt lat="29.911726" lon="97.600568">
<time>2016-10-07T19:06:12Z</time></trkpt>
<trkpt lat="29.911836" lon="97.600458">
<time>2016-10-07T19:06:13Z</time></trkpt>
<trkpt lat="29.912076" lon="97.600259">
<time>2016-10-07T19:06:14Z</time></trkpt>
<trkpt lat="29.912226" lon="97.600129">
<time>2016-10-07T19:06:15Z</time></trkpt>
<trkpt lat="29.912536" lon="97.599859">
<time>2016-10-07T19:06:16Z</time></trkpt>
<trkpt lat="29.912986" lon="97.599469">
<time>2016-10-07T19:06:17Z</time></trkpt>
<trkpt lat="29.913076" lon="97.599399">
<time>2016-10-07T19:06:18Z</time></trkpt>
<trkpt lat="29.913126" lon="97.599369">
<time>2016-10-07T19:06:19Z</time></trkpt>
<trkpt lat="29.913156" lon="97.599339">
<time>2016-10-07T19:06:20Z</time></trkpt>
<trkpt lat="29.913216" lon="97.599309">
<time>2016-10-07T19:06:21Z</time></trkpt>
<trkpt lat="29.913286" lon="97.599289">
<time>2016-10-07T19:06:22Z</time></trkpt>
<trkpt lat="29.913326" lon="97.599269">
<time>2016-10-07T19:06:23Z</time></trkpt>
<trkpt lat="29.913376" lon="97.599269">
<time>2016-10-07T19:06:24Z</time></trkpt>
<trkpt lat="29.913416" lon="97.599259">
<time>2016-10-07T19:06:25Z</time></trkpt>
<trkpt lat="29.913466" lon="97.599259">
<time>2016-10-07T19:06:26Z</time></trkpt>
<trkpt lat="29.913516" lon="97.599269">
<time>2016-10-07T19:06:27Z</time></trkpt>
<trkpt lat="29.913626" lon="97.599279">
<time>2016-10-07T19:06:28Z</time></trkpt>
<trkpt lat="29.913766" lon="97.599309">
<time>2016-10-07T19:06:29Z</time></trkpt>
<trkpt lat="29.914166" lon="97.599379">
<time>2016-10-07T19:06:30Z</time></trkpt>
<trkpt lat="29.914306" lon="97.599409">
<time>2016-10-07T19:06:31Z</time></trkpt>
<trkpt lat="29.914426" lon="97.599419">
<time>2016-10-07T19:06:32Z</time></trkpt>
<trkpt lat="29.914546" lon="97.599429">
<time>2016-10-07T19:06:33Z</time></trkpt>
<trkpt lat="29.914626" lon="97.599429">
<time>2016-10-07T19:06:34Z</time></trkpt>
<trkpt lat="29.914716" lon="97.599419">
<time>2016-10-07T19:06:35Z</time></trkpt>
<trkpt lat="29.914806" lon="97.599409">
<time>2016-10-07T19:06:36Z</time></trkpt>
<trkpt lat="29.914886" lon="97.599399">
<time>2016-10-07T19:06:37Z</time></trkpt>
<trkpt lat="29.915066" lon="97.599369">
<time>2016-10-07T19:06:38Z</time></trkpt>
<trkpt lat="29.915266" lon="97.599339">
<time>2016-10-07T19:06:39Z</time></trkpt>
<trkpt lat="29.915336" lon="97.599339">
<time>2016-10-07T19:06:40Z</time></trkpt>
<trkpt lat="29.915396" lon="97.599339">
<time>2016-10-07T19:06:41Z</time></trkpt>
<trkpt lat="29.915506" lon="97.599338">
<time>2016-10-07T19:06:42Z</time></trkpt>
<trkpt lat="29.915666" lon="97.599368">
<time>2016-10-07T19:06:43Z</time></trkpt>
<trkpt lat="29.915796" lon="97.599388">
<time>2016-10-07T19:06:44Z</time></trkpt>
<trkpt lat="29.915966" lon="97.599418">
<time>2016-10-07T19:06:45Z</time></trkpt>
<trkpt lat="29.916076" lon="97.599438">
<time>2016-10-07T19:06:46Z</time></trkpt>
<trkpt lat="29.916156" lon="97.599448">
<time>2016-10-07T19:06:47Z</time></trkpt>
<trkpt lat="29.916276" lon="97.599468">
<time>2016-10-07T19:06:48Z</time></trkpt>
<trkpt lat="29.916386" lon="97.599488">
<time>2016-10-07T19:06:49Z</time></trkpt>
<trkpt lat="29.916456" lon="97.599488">
<time>2016-10-07T19:06:50Z</time></trkpt>
<trkpt lat="29.916586" lon="97.599508">
<time>2016-10-07T19:06:51Z</time></trkpt>
<trkpt lat="29.916696" lon="97.599508">
<time>2016-10-07T19:06:52Z</time></trkpt>
<trkpt lat="29.916916" lon="97.599508">
<time>2016-10-07T19:06:53Z</time></trkpt>
<trkpt lat="29.917146" lon="97.599508">
<time>2016-10-07T19:06:54Z</time></trkpt>
<trkpt lat="29.917256" lon="97.599508">
<time>2016-10-07T19:06:55Z</time></trkpt>
<trkpt lat="29.917446" lon="97.599528">
<time>2016-10-07T19:06:56Z</time></trkpt>
<trkpt lat="29.917606" lon="97.599548">
<time>2016-10-07T19:06:57Z</time></trkpt>
<trkpt lat="29.917686" lon="97.599548">
<time>2016-10-07T19:06:58Z</time></trkpt>
<trkpt lat="29.917766" lon="97.599558">
<time>2016-10-07T19:06:59Z</time></trkpt>
<trkpt lat="29.917856" lon="97.599558">
<time>2016-10-07T19:07:00Z</time></trkpt>
<trkpt lat="29.917926" lon="97.599538">
<time>2016-10-07T19:07:01Z</time></trkpt>
<trkpt lat="29.918006" lon="97.599518">
<time>2016-10-07T19:07:02Z</time></trkpt>
<trkpt lat="29.918116" lon="97.599468">
<time>2016-10-07T19:07:03Z</time></trkpt>
<trkpt lat="29.918206" lon="97.599408">
<time>2016-10-07T19:07:04Z</time></trkpt>
<trkpt lat="29.918336" lon="97.599308">
<time>2016-10-07T19:07:05Z</time></trkpt>
<trkpt lat="29.918426" lon="97.599248">
<time>2016-10-07T19:07:06Z</time></trkpt>
<trkpt lat="29.918526" lon="97.599178">
<time>2016-10-07T19:07:07Z</time></trkpt>
<trkpt lat="29.918596" lon="97.599148">
<time>2016-10-07T19:07:08Z</time></trkpt>
<trkpt lat="29.918676" lon="97.599108">
<time>2016-10-07T19:07:09Z</time></trkpt>
<trkpt lat="29.918816" lon="97.599058">
<time>2016-10-07T19:07:10Z</time></trkpt>
<trkpt lat="29.918966" lon="97.598998">
<time>2016-10-07T19:07:11Z</time></trkpt>
<trkpt lat="29.919096" lon="97.598938">
<time>2016-10-07T19:07:12Z</time></trkpt>
<trkpt lat="29.919186" lon="97.598898">
<time>2016-10-07T19:07:13Z</time></trkpt>
<trkpt lat="29.919256" lon="97.598858">
<time>2016-10-07T19:07:14Z</time></trkpt>
<trkpt lat="29.919306" lon="97.598818">
<time>2016-10-07T19:07:15Z</time></trkpt>
<trkpt lat="29.919356" lon="97.598778">
<time>2016-10-07T19:07:16Z</time></trkpt>
<trkpt lat="29.919406" lon="97.598728">
<time>2016-10-07T19:07:17Z</time></trkpt>
<trkpt lat="29.919456" lon="97.598658">
<time>2016-10-07T19:07:18Z</time></trkpt>
<trkpt lat="29.919506" lon="97.598578">
<time>2016-10-07T19:07:19Z</time></trkpt>
<trkpt lat="29.919566" lon="97.598438">
<time>2016-10-07T19:07:20Z</time></trkpt>
<trkpt lat="29.919656" lon="97.598208">
<time>2016-10-07T19:07:21Z</time></trkpt>
<trkpt lat="29.919776" lon="97.597918">
<time>2016-10-07T19:07:22Z</time></trkpt>
<trkpt lat="29.919916" lon="97.597588">
<time>2016-10-07T19:07:23Z</time></trkpt>
<trkpt lat="29.920056" lon="97.597258">
<time>2016-10-07T19:07:24Z</time></trkpt>
<trkpt lat="29.920176" lon="97.596968">
<time>2016-10-07T19:07:25Z</time></trkpt>
<trkpt lat="29.920286" lon="97.596708">
<time>2016-10-07T19:07:26Z</time></trkpt>
<trkpt lat="29.920436" lon="97.596348">
<time>2016-10-07T19:07:27Z</time></trkpt>
<trkpt lat="29.920566" lon="97.596048">
<time>2016-10-07T19:07:28Z</time></trkpt>
<trkpt lat="29.920696" lon="97.595748">
<time>2016-10-07T19:07:29Z</time></trkpt>
<trkpt lat="29.920846" lon="97.595398">
<time>2016-10-07T19:07:30Z</time></trkpt>
<trkpt lat="29.921026" lon="97.594958">
<time>2016-10-07T19:07:31Z</time></trkpt>
<trkpt lat="29.921136" lon="97.594728">
<time>2016-10-07T19:07:32Z</time></trkpt>
<trkpt lat="29.921196" lon="97.594608">
<time>2016-10-07T19:07:33Z</time></trkpt>
<trkpt lat="29.921266" lon="97.594508">
<time>2016-10-07T19:07:34Z</time></trkpt>
<trkpt lat="29.921356" lon="97.594408">
<time>2016-10-07T19:07:35Z</time></trkpt>
<trkpt lat="29.921496" lon="97.594268">
<time>2016-10-07T19:07:36Z</time></trkpt>
<trkpt lat="29.921656" lon="97.594118">
<time>2016-10-07T19:07:37Z</time></trkpt>
<trkpt lat="29.921836" lon="97.593948">
<time>2016-10-07T19:07:38Z</time></trkpt>
<trkpt lat="29.921946" lon="97.593848">
<time>2016-10-07T19:07:39Z</time></trkpt>
<trkpt lat="29.922046" lon="97.593738">
<time>2016-10-07T19:07:40Z</time></trkpt>
<trkpt lat="29.922126" lon="97.593638">
<time>2016-10-07T19:07:41Z</time></trkpt>
<trkpt lat="29.922206" lon="97.593528">
<time>2016-10-07T19:07:42Z</time></trkpt>
<trkpt lat="29.922266" lon="97.593428">
<time>2016-10-07T19:07:43Z</time></trkpt>
<trkpt lat="29.922306" lon="97.593338">
<time>2016-10-07T19:07:44Z</time></trkpt>
<trkpt lat="29.922346" lon="97.593258">
<time>2016-10-07T19:07:45Z</time></trkpt>
<trkpt lat="29.922426" lon="97.593048">
<time>2016-10-07T19:07:46Z</time></trkpt>
<trkpt lat="29.922466" lon="97.592948">
<time>2016-10-07T19:07:47Z</time></trkpt>
<trkpt lat="29.922516" lon="97.592868">
<time>2016-10-07T19:07:48Z</time></trkpt>
<trkpt lat="29.922606" lon="97.592767">
<time>2016-10-07T19:07:49Z</time></trkpt>
<trkpt lat="29.922806" lon="97.592597">
<time>2016-10-07T19:07:50Z</time></trkpt>
<trkpt lat="29.922996" lon="97.592467">
<time>2016-10-07T19:07:51Z</time></trkpt>
<trkpt lat="29.923136" lon="97.592367">
<time>2016-10-07T19:07:52Z</time></trkpt>
<trkpt lat="29.923236" lon="97.592287">
<time>2016-10-07T19:07:53Z</time></trkpt>
<trkpt lat="29.923345" lon="97.592167">
<time>2016-10-07T19:07:54Z</time></trkpt>
<trkpt lat="29.923405" lon="97.592087">
<time>2016-10-07T19:07:55Z</time></trkpt>
<trkpt lat="29.923465" lon="97.592007">
<time>2016-10-07T19:07:56Z</time></trkpt>
<trkpt lat="29.923565" lon="97.591837">
<time>2016-10-07T19:07:57Z</time></trkpt>
<trkpt lat="29.923765" lon="97.591427">
<time>2016-10-07T19:07:58Z</time></trkpt>
<trkpt lat="29.923935" lon="97.591107">
<time>2016-10-07T19:07:59Z</time></trkpt>
<trkpt lat="29.924045" lon="97.590897">
<time>2016-10-07T19:08:00Z</time></trkpt>
<trkpt lat="29.924215" lon="97.590597">
<time>2016-10-07T19:08:01Z</time></trkpt>
<trkpt lat="29.924375" lon="97.590337">
<time>2016-10-07T19:08:02Z</time></trkpt>
<trkpt lat="29.924545" lon="97.590066">
<time>2016-10-07T19:08:03Z</time></trkpt>
<trkpt lat="29.924705" lon="97.589786">
<time>2016-10-07T19:08:04Z</time></trkpt>
<trkpt lat="29.924815" lon="97.589576">
<time>2016-10-07T19:08:05Z</time></trkpt>
<trkpt lat="29.924885" lon="97.589426">
<time>2016-10-07T19:08:06Z</time></trkpt>
<trkpt lat="29.924955" lon="97.589246">
<time>2016-10-07T19:08:07Z</time></trkpt>
<trkpt lat="29.924995" lon="97.589086">
<time>2016-10-07T19:08:08Z</time></trkpt>
<trkpt lat="29.925024" lon="97.588906">
<time>2016-10-07T19:08:09Z</time></trkpt>
<trkpt lat="29.925054" lon="97.588646">
<time>2016-10-07T19:08:10Z</time></trkpt>
<trkpt lat="29.925074" lon="97.588416">
<time>2016-10-07T19:08:11Z</time></trkpt>
<trkpt lat="29.925084" lon="97.588216">
<time>2016-10-07T19:08:12Z</time></trkpt>
<trkpt lat="29.925104" lon="97.588065">
<time>2016-10-07T19:08:13Z</time></trkpt>
<trkpt lat="29.925124" lon="97.587945">
<time>2016-10-07T19:08:14Z</time></trkpt>
<trkpt lat="29.925154" lon="97.587845">
<time>2016-10-07T19:08:15Z</time></trkpt>
<trkpt lat="29.925194" lon="97.587725">
<time>2016-10-07T19:08:16Z</time></trkpt>
<trkpt lat="29.925284" lon="97.587545">
<time>2016-10-07T19:08:17Z</time></trkpt>
<trkpt lat="29.925424" lon="97.587285">
<time>2016-10-07T19:08:18Z</time></trkpt>
<trkpt lat="29.925574" lon="97.587005">
<time>2016-10-07T19:08:19Z</time></trkpt>
<trkpt lat="29.925744" lon="97.586695">
<time>2016-10-07T19:08:20Z</time></trkpt>
<trkpt lat="29.925893" lon="97.586405">
<time>2016-10-07T19:08:21Z</time></trkpt>
<trkpt lat="29.926053" lon="97.586124">
<time>2016-10-07T19:08:22Z</time></trkpt>
<trkpt lat="29.926203" lon="97.585844">
<time>2016-10-07T19:08:23Z</time></trkpt>
<trkpt lat="29.926373" lon="97.585554">
<time>2016-10-07T19:08:24Z</time></trkpt>
<trkpt lat="29.926503" lon="97.585314">
<time>2016-10-07T19:08:25Z</time></trkpt>
<trkpt lat="29.926573" lon="97.585184">
<time>2016-10-07T19:08:26Z</time></trkpt>
<trkpt lat="29.926643" lon="97.585074">
<time>2016-10-07T19:08:27Z</time></trkpt>
<trkpt lat="29.926703" lon="97.584934">
<time>2016-10-07T19:08:28Z</time></trkpt>
<trkpt lat="29.926763" lon="97.584803">
<time>2016-10-07T19:08:29Z</time></trkpt>
<trkpt lat="29.926852" lon="97.584593">
<time>2016-10-07T19:08:30Z</time></trkpt>
<trkpt lat="29.926942" lon="97.584373">
<time>2016-10-07T19:08:31Z</time></trkpt>
<trkpt lat="29.927032" lon="97.584163">
<time>2016-10-07T19:08:32Z</time></trkpt>
<trkpt lat="29.927122" lon="97.583953">
<time>2016-10-07T19:08:33Z</time></trkpt>
<trkpt lat="29.927202" lon="97.583783">
<time>2016-10-07T19:08:34Z</time></trkpt>
<trkpt lat="29.927252" lon="97.583633">
<time>2016-10-07T19:08:35Z</time></trkpt>
<trkpt lat="29.927302" lon="97.583492">
<time>2016-10-07T19:08:36Z</time></trkpt>
<trkpt lat="29.927352" lon="97.583332">
<time>2016-10-07T19:08:37Z</time></trkpt>
<trkpt lat="29.927411" lon="97.583032">
<time>2016-10-07T19:08:38Z</time></trkpt>
<trkpt lat="29.927461" lon="97.582822">
<time>2016-10-07T19:08:39Z</time></trkpt>
<trkpt lat="29.927501" lon="97.582642">
<time>2016-10-07T19:08:40Z</time></trkpt>
<trkpt lat="29.927521" lon="97.582442">
<time>2016-10-07T19:08:41Z</time></trkpt>
<trkpt lat="29.927531" lon="97.582291">
<time>2016-10-07T19:08:42Z</time></trkpt>
<trkpt lat="29.927531" lon="97.582151">
<time>2016-10-07T19:08:43Z</time></trkpt>
<trkpt lat="29.927531" lon="97.581761">
<time>2016-10-07T19:08:44Z</time></trkpt>
<trkpt lat="29.92752" lon="97.581471">
<time>2016-10-07T19:08:45Z</time></trkpt>
<trkpt lat="29.92753" lon="97.581261">
<time>2016-10-07T19:08:46Z</time></trkpt>
<trkpt lat="29.92753" lon="97.58111">
<time>2016-10-07T19:08:47Z</time></trkpt>
<trkpt lat="29.92755" lon="97.58087">
<time>2016-10-07T19:08:48Z</time></trkpt>
<trkpt lat="29.92757" lon="97.58066">
<time>2016-10-07T19:08:49Z</time></trkpt>
<trkpt lat="29.927629" lon="97.58028">
<time>2016-10-07T19:08:50Z</time></trkpt>
<trkpt lat="29.927679" lon="97.579909">
<time>2016-10-07T19:08:51Z</time></trkpt>
<trkpt lat="29.927689" lon="97.579719">
<time>2016-10-07T19:08:52Z</time></trkpt>
<trkpt lat="29.927699" lon="97.579479">
<time>2016-10-07T19:08:53Z</time></trkpt>
<trkpt lat="29.927689" lon="97.579199">
<time>2016-10-07T19:08:54Z</time></trkpt>
<trkpt lat="29.927678" lon="97.579028">
<time>2016-10-07T19:08:55Z</time></trkpt>
<trkpt lat="29.927658" lon="97.578938">
<time>2016-10-07T19:08:56Z</time></trkpt>
<trkpt lat="29.927648" lon="97.578858">
<time>2016-10-07T19:08:57Z</time></trkpt>
<trkpt lat="29.927628" lon="97.578778">
<time>2016-10-07T19:08:58Z</time></trkpt>
<trkpt lat="29.927608" lon="97.578718">
<time>2016-10-07T19:08:59Z</time></trkpt>
<trkpt lat="29.927578" lon="97.578638">
<time>2016-10-07T19:09:00Z</time></trkpt>
<trkpt lat="29.927518" lon="97.578508">
<time>2016-10-07T19:09:01Z</time></trkpt>
<trkpt lat="29.927438" lon="97.578358">
<time>2016-10-07T19:09:02Z</time></trkpt>
<trkpt lat="29.927278" lon="97.578088">
<time>2016-10-07T19:09:03Z</time></trkpt>
<trkpt lat="29.927198" lon="97.577947">
<time>2016-10-07T19:09:04Z</time></trkpt>
<trkpt lat="29.927107" lon="97.577757">
<time>2016-10-07T19:09:05Z</time></trkpt>
<trkpt lat="29.927047" lon="97.577627">
<time>2016-10-07T19:09:06Z</time></trkpt>
<trkpt lat="29.926997" lon="97.577477">
<time>2016-10-07T19:09:07Z</time></trkpt>
<trkpt lat="29.926937" lon="97.577277">
<time>2016-10-07T19:09:08Z</time></trkpt>
<trkpt lat="29.926917" lon="97.577117">
<time>2016-10-07T19:09:09Z</time></trkpt>
<trkpt lat="29.926897" lon="97.576986">
<time>2016-10-07T19:09:10Z</time></trkpt>
<trkpt lat="29.926856" lon="97.576696">
<time>2016-10-07T19:09:11Z</time></trkpt>
<trkpt lat="29.926826" lon="97.576386">
<time>2016-10-07T19:09:12Z</time></trkpt>
<trkpt lat="29.926796" lon="97.576085">
<time>2016-10-07T19:09:13Z</time></trkpt>
<trkpt lat="29.926766" lon="97.575875">
<time>2016-10-07T19:09:14Z</time></trkpt>
<trkpt lat="29.926766" lon="97.575725">
<time>2016-10-07T19:09:15Z</time></trkpt>
<trkpt lat="29.926785" lon="97.575585">
<time>2016-10-07T19:09:16Z</time></trkpt>
<trkpt lat="29.926845" lon="97.575284">
<time>2016-10-07T19:09:17Z</time></trkpt>
<trkpt lat="29.926905" lon="97.575014">
<time>2016-10-07T19:09:18Z</time></trkpt>
<trkpt lat="29.927044" lon="97.574393">
<time>2016-10-07T19:09:19Z</time></trkpt>
<trkpt lat="29.927154" lon="97.573893">
<time>2016-10-07T19:09:20Z</time></trkpt>
<trkpt lat="29.927253" lon="97.573452">
<time>2016-10-07T19:09:21Z</time></trkpt>
<trkpt lat="29.927343" lon="97.573082">
<time>2016-10-07T19:09:22Z</time></trkpt>
<trkpt lat="29.927383" lon="97.572942">
<time>2016-10-07T19:09:23Z</time></trkpt>
<trkpt lat="29.927443" lon="97.572841">
<time>2016-10-07T19:09:24Z</time></trkpt>
<trkpt lat="29.927522" lon="97.572761">
<time>2016-10-07T19:09:25Z</time></trkpt>
<trkpt lat="29.927732" lon="97.572581">
<time>2016-10-07T19:09:26Z</time></trkpt>
<trkpt lat="29.927962" lon="97.572421">
<time>2016-10-07T19:09:27Z</time></trkpt>
<trkpt lat="29.928172" lon="97.572331">
<time>2016-10-07T19:09:28Z</time></trkpt>
<trkpt lat="29.928732" lon="97.57216">
<time>2016-10-07T19:09:29Z</time></trkpt>
<trkpt lat="29.929092" lon="97.57205">
<time>2016-10-07T19:09:30Z</time></trkpt>
<trkpt lat="29.929242" lon="97.57202">
<time>2016-10-07T19:09:31Z</time></trkpt>
<trkpt lat="29.929342" lon="97.57201">
<time>2016-10-07T19:09:32Z</time></trkpt>
<trkpt lat="29.929482" lon="97.57202">
<time>2016-10-07T19:09:33Z</time></trkpt>
<trkpt lat="29.929692" lon="97.57206">
<time>2016-10-07T19:09:34Z</time></trkpt>
<trkpt lat="29.929962" lon="97.57211">
<time>2016-10-07T19:09:35Z</time></trkpt>
<trkpt lat="29.930152" lon="97.57213">
<time>2016-10-07T19:09:36Z</time></trkpt>
<trkpt lat="29.930262" lon="97.57212">
<time>2016-10-07T19:09:37Z</time></trkpt>
<trkpt lat="29.930382" lon="97.5721">
<time>2016-10-07T19:09:38Z</time></trkpt>
<trkpt lat="29.930522" lon="97.57205">
<time>2016-10-07T19:09:39Z</time></trkpt>
<trkpt lat="29.930672" lon="97.57196">
<time>2016-10-07T19:09:40Z</time></trkpt>
<trkpt lat="29.930831" lon="97.57182">
<time>2016-10-07T19:09:41Z</time></trkpt>
<trkpt lat="29.931101" lon="97.57157">
<time>2016-10-07T19:09:42Z</time></trkpt>
<trkpt lat="29.931321" lon="97.571349">
<time>2016-10-07T19:09:43Z</time></trkpt>
<trkpt lat="29.931521" lon="97.571119">
<time>2016-10-07T19:09:44Z</time></trkpt>
<trkpt lat="29.93188" lon="97.570648">
<time>2016-10-07T19:09:45Z</time></trkpt>
<trkpt lat="29.93214" lon="97.570348">
<time>2016-10-07T19:09:46Z</time></trkpt>
<trkpt lat="29.932299" lon="97.570138">
<time>2016-10-07T19:09:47Z</time></trkpt>
<trkpt lat="29.932409" lon="97.569987">
<time>2016-10-07T19:09:48Z</time></trkpt>
<trkpt lat="29.932489" lon="97.569837">
<time>2016-10-07T19:09:49Z</time></trkpt>
<trkpt lat="29.932649" lon="97.569447">
<time>2016-10-07T19:09:50Z</time></trkpt>
<trkpt lat="29.932808" lon="97.569056">
<time>2016-10-07T19:09:51Z</time></trkpt>
<trkpt lat="29.932868" lon="97.568916">
<time>2016-10-07T19:09:52Z</time></trkpt>
<trkpt lat="29.932958" lon="97.568685">
<time>2016-10-07T19:09:53Z</time></trkpt>
<trkpt lat="29.933047" lon="97.568435">
<time>2016-10-07T19:09:54Z</time></trkpt>
<trkpt lat="29.933107" lon="97.568185">
<time>2016-10-07T19:09:55Z</time></trkpt>
<trkpt lat="29.933137" lon="97.567974">
<time>2016-10-07T19:09:56Z</time></trkpt>
<trkpt lat="29.933166" lon="97.567724">
<time>2016-10-07T19:09:57Z</time></trkpt>
<trkpt lat="29.933196" lon="97.567343">
<time>2016-10-07T19:09:58Z</time></trkpt>
<trkpt lat="29.933235" lon="97.566883">
<time>2016-10-07T19:09:59Z</time></trkpt>
<trkpt lat="29.933245" lon="97.566662">
<time>2016-10-07T19:10:00Z</time></trkpt>
<trkpt lat="29.933285" lon="97.566422">
<time>2016-10-07T19:10:01Z</time></trkpt>
<trkpt lat="29.933334" lon="97.566141">
<time>2016-10-07T19:10:02Z</time></trkpt>
<trkpt lat="29.933354" lon="97.565971">
<time>2016-10-07T19:10:03Z</time></trkpt>
<trkpt lat="29.933364" lon="97.565831">
<time>2016-10-07T19:10:04Z</time></trkpt>
<trkpt lat="29.933363" lon="97.565651">
<time>2016-10-07T19:10:05Z</time></trkpt>
<trkpt lat="29.933343" lon="97.5651">
<time>2016-10-07T19:10:06Z</time></trkpt>
<trkpt lat="29.933322" lon="97.564509">
<time>2016-10-07T19:10:07Z</time></trkpt>
<trkpt lat="29.933301" lon="97.564028">
<time>2016-10-07T19:10:08Z</time></trkpt>
<trkpt lat="29.933281" lon="97.563687">
<time>2016-10-07T19:10:09Z</time></trkpt>
<trkpt lat="29.93328" lon="97.563527">
<time>2016-10-07T19:10:10Z</time></trkpt>
<trkpt lat="29.9333" lon="97.563427">
<time>2016-10-07T19:10:11Z</time></trkpt>
<trkpt lat="29.93334" lon="97.563287">
<time>2016-10-07T19:10:12Z</time></trkpt>
<trkpt lat="29.93344" lon="97.563116">
<time>2016-10-07T19:10:13Z</time></trkpt>
<trkpt lat="29.933569" lon="97.562926">
<time>2016-10-07T19:10:14Z</time></trkpt>
<trkpt lat="29.933849" lon="97.562525">
<time>2016-10-07T19:10:15Z</time></trkpt>
<trkpt lat="29.934218" lon="97.562034">
<time>2016-10-07T19:10:16Z</time></trkpt>
<trkpt lat="29.934627" lon="97.561543">
<time>2016-10-07T19:10:17Z</time></trkpt>
<trkpt lat="29.935037" lon="97.561052">
<time>2016-10-07T19:10:18Z</time></trkpt>
<trkpt lat="29.935356" lon="97.560662">
<time>2016-10-07T19:10:19Z</time></trkpt>
<trkpt lat="29.935536" lon="97.560451">
<time>2016-10-07T19:10:20Z</time></trkpt>
<trkpt lat="29.935655" lon="97.560321">
<time>2016-10-07T19:10:21Z</time></trkpt>
<trkpt lat="29.935795" lon="97.560181">
<time>2016-10-07T19:10:22Z</time></trkpt>
<trkpt lat="29.936095" lon="97.55994">
<time>2016-10-07T19:10:23Z</time></trkpt>
<trkpt lat="29.936364" lon="97.55976">
<time>2016-10-07T19:10:24Z</time></trkpt>
<trkpt lat="29.936664" lon="97.55961">
<time>2016-10-07T19:10:25Z</time></trkpt>
<trkpt lat="29.936864" lon="97.55952">
<time>2016-10-07T19:10:26Z</time></trkpt>
<trkpt lat="29.937064" lon="97.559439">
<time>2016-10-07T19:10:27Z</time></trkpt>
<trkpt lat="29.937474" lon="97.559289">
<time>2016-10-07T19:10:28Z</time></trkpt>
<trkpt lat="29.938563" lon="97.558898">
<time>2016-10-07T19:10:29Z</time></trkpt>
<trkpt lat="29.939103" lon="97.558708">
<time>2016-10-07T19:10:30Z</time></trkpt>
<trkpt lat="29.939672" lon="97.558477">
<time>2016-10-07T19:10:31Z</time></trkpt>
<trkpt lat="29.940102" lon="97.558297">
<time>2016-10-07T19:10:32Z</time></trkpt>
<trkpt lat="29.940462" lon="97.558137">
<time>2016-10-07T19:10:33Z</time></trkpt>
<trkpt lat="29.940851" lon="97.557946">
<time>2016-10-07T19:10:34Z</time></trkpt>
<trkpt lat="29.941161" lon="97.557776">
<time>2016-10-07T19:10:35Z</time></trkpt>
<trkpt lat="29.941391" lon="97.557636">
<time>2016-10-07T19:10:36Z</time></trkpt>
<trkpt lat="29.941591" lon="97.557505">
<time>2016-10-07T19:10:37Z</time></trkpt>
<trkpt lat="29.94178" lon="97.557355">
<time>2016-10-07T19:10:38Z</time></trkpt>
<trkpt lat="29.94198" lon="97.557195">
<time>2016-10-07T19:10:39Z</time></trkpt>
<trkpt lat="29.94213" lon="97.557075">
<time>2016-10-07T19:10:40Z</time></trkpt>
<trkpt lat="29.94228" lon="97.556924">
<time>2016-10-07T19:10:41Z</time></trkpt>
<trkpt lat="29.942409" lon="97.556794">
<time>2016-10-07T19:10:42Z</time></trkpt>
<trkpt lat="29.942509" lon="97.556674">
<time>2016-10-07T19:10:43Z</time></trkpt>
<trkpt lat="29.942609" lon="97.556533">
<time>2016-10-07T19:10:44Z</time></trkpt>
<trkpt lat="29.942818" lon="97.556233">
<time>2016-10-07T19:10:45Z</time></trkpt>
<trkpt lat="29.943028" lon="97.555922">
<time>2016-10-07T19:10:46Z</time></trkpt>
<trkpt lat="29.943227" lon="97.555602">
<time>2016-10-07T19:10:47Z</time></trkpt>
<trkpt lat="29.943397" lon="97.555291">
<time>2016-10-07T19:10:48Z</time></trkpt>
<trkpt lat="29.943476" lon="97.55512">
<time>2016-10-07T19:10:49Z</time></trkpt>
<trkpt lat="29.943556" lon="97.55493">
<time>2016-10-07T19:10:50Z</time></trkpt>
<trkpt lat="29.943606" lon="97.55475">
<time>2016-10-07T19:10:51Z</time></trkpt>
<trkpt lat="29.943645" lon="97.554589">
<time>2016-10-07T19:10:52Z</time></trkpt>
<trkpt lat="29.943685" lon="97.554399">
<time>2016-10-07T19:10:53Z</time></trkpt>
<trkpt lat="29.943695" lon="97.554219">
<time>2016-10-07T19:10:54Z</time></trkpt>
<trkpt lat="29.943704" lon="97.554038">
<time>2016-10-07T19:10:55Z</time></trkpt>
<trkpt lat="29.943684" lon="97.553848">
<time>2016-10-07T19:10:56Z</time></trkpt>
<trkpt lat="29.943654" lon="97.553667">
<time>2016-10-07T19:10:57Z</time></trkpt>
<trkpt lat="29.943583" lon="97.553327">
<time>2016-10-07T19:10:58Z</time></trkpt>
<trkpt lat="29.943552" lon="97.553046">
<time>2016-10-07T19:10:59Z</time></trkpt>
<trkpt lat="29.943511" lon="97.552525">
<time>2016-10-07T19:11:00Z</time></trkpt>
<trkpt lat="29.94348" lon="97.551974">
<time>2016-10-07T19:11:01Z</time></trkpt>
<trkpt lat="29.94347" lon="97.551673">
<time>2016-10-07T19:11:02Z</time></trkpt>
<trkpt lat="29.943459" lon="97.551523">
<time>2016-10-07T19:11:03Z</time></trkpt>
<trkpt lat="29.943469" lon="97.551382">
<time>2016-10-07T19:11:04Z</time></trkpt>
<trkpt lat="29.943489" lon="97.551061">
<time>2016-10-07T19:11:05Z</time></trkpt>
<trkpt lat="29.943498" lon="97.55063">
<time>2016-10-07T19:11:06Z</time></trkpt>
<trkpt lat="29.943507" lon="97.55027">
<time>2016-10-07T19:11:07Z</time></trkpt>
<trkpt lat="29.943526" lon="97.549919">
<time>2016-10-07T19:11:08Z</time></trkpt>
<trkpt lat="29.943536" lon="97.549748">
<time>2016-10-07T19:11:09Z</time></trkpt>
<trkpt lat="29.943536" lon="97.549598">
<time>2016-10-07T19:11:10Z</time></trkpt>
<trkpt lat="29.943515" lon="97.549418">
<time>2016-10-07T19:11:11Z</time></trkpt>
<trkpt lat="29.943485" lon="97.549267">
<time>2016-10-07T19:11:12Z</time></trkpt>
<trkpt lat="29.943415" lon="97.549077">
<time>2016-10-07T19:11:13Z</time></trkpt>
<trkpt lat="29.943324" lon="97.548886">
<time>2016-10-07T19:11:14Z</time></trkpt>
<trkpt lat="29.943214" lon="97.548666">
<time>2016-10-07T19:11:15Z</time></trkpt>
<trkpt lat="29.943103" lon="97.548465">
<time>2016-10-07T19:11:16Z</time></trkpt>
<trkpt lat="29.943013" lon="97.548335">
<time>2016-10-07T19:11:17Z</time></trkpt>
<trkpt lat="29.942933" lon="97.548235">
<time>2016-10-07T19:11:18Z</time></trkpt>
<trkpt lat="29.942873" lon="97.548175">
<time>2016-10-07T19:11:19Z</time></trkpt>
<trkpt lat="29.942813" lon="97.548104">
<time>2016-10-07T19:11:20Z</time></trkpt>
<trkpt lat="29.942692" lon="97.548014">
<time>2016-10-07T19:11:21Z</time></trkpt>
<trkpt lat="29.942552" lon="97.547894">
<time>2016-10-07T19:11:22Z</time></trkpt>
<trkpt lat="29.942302" lon="97.547683">
<time>2016-10-07T19:11:23Z</time></trkpt>
<trkpt lat="29.942101" lon="97.547513">
<time>2016-10-07T19:11:24Z</time></trkpt>
<trkpt lat="29.941851" lon="97.547293">
<time>2016-10-07T19:11:25Z</time></trkpt>
<trkpt lat="29.94162" lon="97.547092">
<time>2016-10-07T19:11:26Z</time></trkpt>
<trkpt lat="29.9414" lon="97.546912">
<time>2016-10-07T19:11:27Z</time></trkpt>
<trkpt lat="29.94128" lon="97.546811">
<time>2016-10-07T19:11:28Z</time></trkpt>
<trkpt lat="29.94121" lon="97.546741">
<time>2016-10-07T19:11:29Z</time></trkpt>
<trkpt lat="29.94115" lon="97.546681">
<time>2016-10-07T19:11:30Z</time></trkpt>
<trkpt lat="29.941119" lon="97.546611">
<time>2016-10-07T19:11:31Z</time></trkpt>
<trkpt lat="29.941089" lon="97.546551">
<time>2016-10-07T19:11:32Z</time></trkpt>
<trkpt lat="29.941069" lon="97.54645">
<time>2016-10-07T19:11:33Z</time></trkpt>
<trkpt lat="29.941049" lon="97.54631">
<time>2016-10-07T19:11:34Z</time></trkpt>
<trkpt lat="29.941048" lon="97.54617">
<time>2016-10-07T19:11:35Z</time></trkpt>
<trkpt lat="29.941058" lon="97.546029">
<time>2016-10-07T19:11:36Z</time></trkpt>
<trkpt lat="29.941068" lon="97.545949">
<time>2016-10-07T19:11:37Z</time></trkpt>
<trkpt lat="29.941078" lon="97.545859">
<time>2016-10-07T19:11:38Z</time></trkpt>
<trkpt lat="29.941127" lon="97.545709">
<time>2016-10-07T19:11:39Z</time></trkpt>
<trkpt lat="29.941187" lon="97.545588">
<time>2016-10-07T19:11:40Z</time></trkpt>
<trkpt lat="29.941247" lon="97.545458">
<time>2016-10-07T19:11:41Z</time></trkpt>
<trkpt lat="29.941366" lon="97.545247">
<time>2016-10-07T19:11:42Z</time></trkpt>
<trkpt lat="29.941486" lon="97.545067">
<time>2016-10-07T19:11:43Z</time></trkpt>
<trkpt lat="29.941616" lon="97.544887">
<time>2016-10-07T19:11:44Z</time></trkpt>
<trkpt lat="29.941775" lon="97.544706">
<time>2016-10-07T19:11:45Z</time></trkpt>
<trkpt lat="29.941895" lon="97.544586">
<time>2016-10-07T19:11:46Z</time></trkpt>
<trkpt lat="29.942035" lon="97.544465">
<time>2016-10-07T19:11:47Z</time></trkpt>
<trkpt lat="29.942244" lon="97.544265">
<time>2016-10-07T19:11:48Z</time></trkpt>
<trkpt lat="29.942484" lon="97.544054">
<time>2016-10-07T19:11:49Z</time></trkpt>
<trkpt lat="29.942683" lon="97.543874">
<time>2016-10-07T19:11:50Z</time></trkpt>
<trkpt lat="29.942913" lon="97.543653">
<time>2016-10-07T19:11:51Z</time></trkpt>
<trkpt lat="29.943142" lon="97.543453">
<time>2016-10-07T19:11:52Z</time></trkpt>
<trkpt lat="29.943272" lon="97.543332">
<time>2016-10-07T19:11:53Z</time></trkpt>
<trkpt lat="29.943432" lon="97.543202">
<time>2016-10-07T19:11:54Z</time></trkpt>
<trkpt lat="29.943542" lon="97.543132">
<time>2016-10-07T19:11:55Z</time></trkpt>
<trkpt lat="29.943652" lon="97.543072">
<time>2016-10-07T19:11:56Z</time></trkpt>
<trkpt lat="29.943811" lon="97.543012">
<time>2016-10-07T19:11:57Z</time></trkpt>
<trkpt lat="29.944091" lon="97.542941">
<time>2016-10-07T19:11:58Z</time></trkpt>
<trkpt lat="29.944301" lon="97.542881">
<time>2016-10-07T19:11:59Z</time></trkpt>
<trkpt lat="29.944541" lon="97.542801">
<time>2016-10-07T19:12:00Z</time></trkpt>
<trkpt lat="29.944711" lon="97.542741">
<time>2016-10-07T19:12:01Z</time></trkpt>
<trkpt lat="29.944851" lon="97.542671">
<time>2016-10-07T19:12:02Z</time></trkpt>
<trkpt lat="29.945001" lon="97.542591">
<time>2016-10-07T19:12:03Z</time></trkpt>
<trkpt lat="29.94517" lon="97.54249">
<time>2016-10-07T19:12:04Z</time></trkpt>
<trkpt lat="29.94538" lon="97.54235">
<time>2016-10-07T19:12:05Z</time></trkpt>
<trkpt lat="29.94555" lon="97.54223">
<time>2016-10-07T19:12:06Z</time></trkpt>
<trkpt lat="29.945679" lon="97.542149">
<time>2016-10-07T19:12:07Z</time></trkpt>
<trkpt lat="29.945759" lon="97.542109">
<time>2016-10-07T19:12:08Z</time></trkpt>
<trkpt lat="29.945829" lon="97.542079">
<time>2016-10-07T19:12:09Z</time></trkpt>
<trkpt lat="29.945959" lon="97.542039">
<time>2016-10-07T19:12:10Z</time></trkpt>
<trkpt lat="29.946079" lon="97.542009">
<time>2016-10-07T19:12:11Z</time></trkpt>
<trkpt lat="29.946199" lon="97.541999">
<time>2016-10-07T19:12:12Z</time></trkpt>
<trkpt lat="29.946339" lon="97.541999">
<time>2016-10-07T19:12:13Z</time></trkpt>
<trkpt lat="29.946599" lon="97.542009">
<time>2016-10-07T19:12:14Z</time></trkpt>
<trkpt lat="29.946809" lon="97.542009">
<time>2016-10-07T19:12:15Z</time></trkpt>
<trkpt lat="29.946989" lon="97.541999">
<time>2016-10-07T19:12:16Z</time></trkpt>
<trkpt lat="29.947119" lon="97.541989">
<time>2016-10-07T19:12:17Z</time></trkpt>
<trkpt lat="29.947239" lon="97.541969">
<time>2016-10-07T19:12:18Z</time></trkpt>
<trkpt lat="29.947339" lon="97.541939">
<time>2016-10-07T19:12:19Z</time></trkpt>
<trkpt lat="29.947489" lon="97.541899">
<time>2016-10-07T19:12:20Z</time></trkpt>
<trkpt lat="29.947659" lon="97.541828">
<time>2016-10-07T19:12:21Z</time></trkpt>
<trkpt lat="29.947859" lon="97.541738">
<time>2016-10-07T19:12:22Z</time></trkpt>
<trkpt lat="29.948058" lon="97.541648">
<time>2016-10-07T19:12:23Z</time></trkpt>
<trkpt lat="29.948258" lon="97.541558">
<time>2016-10-07T19:12:24Z</time></trkpt>
<trkpt lat="29.948428" lon="97.541478">
<time>2016-10-07T19:12:25Z</time></trkpt>
<trkpt lat="29.948598" lon="97.541407">
<time>2016-10-07T19:12:26Z</time></trkpt>
<trkpt lat="29.948758" lon="97.541337">
<time>2016-10-07T19:12:27Z</time></trkpt>
<trkpt lat="29.948887" lon="97.541257">
<time>2016-10-07T19:12:28Z</time></trkpt>
<trkpt lat="29.948997" lon="97.541187">
<time>2016-10-07T19:12:29Z</time></trkpt>
<trkpt lat="29.949097" lon="97.541127">
<time>2016-10-07T19:12:30Z</time></trkpt>
<trkpt lat="29.949177" lon="97.541046">
<time>2016-10-07T19:12:31Z</time></trkpt>
<trkpt lat="29.949337" lon="97.540896">
<time>2016-10-07T19:12:32Z</time></trkpt>
<trkpt lat="29.949446" lon="97.540786">
<time>2016-10-07T19:12:33Z</time></trkpt>
<trkpt lat="29.949536" lon="97.540695">
<time>2016-10-07T19:12:34Z</time></trkpt>
<trkpt lat="29.949606" lon="97.540595">
<time>2016-10-07T19:12:35Z</time></trkpt>
<trkpt lat="29.949676" lon="97.540475">
<time>2016-10-07T19:12:36Z</time></trkpt>
<trkpt lat="29.949735" lon="97.540334">
<time>2016-10-07T19:12:37Z</time></trkpt>
<trkpt lat="29.949755" lon="97.540264">
<time>2016-10-07T19:12:38Z</time></trkpt>
<trkpt lat="29.949785" lon="97.540154">
<time>2016-10-07T19:12:39Z</time></trkpt>
<trkpt lat="29.949805" lon="97.540034">
<time>2016-10-07T19:12:40Z</time></trkpt>
<trkpt lat="29.949834" lon="97.539893">
<time>2016-10-07T19:12:41Z</time></trkpt>
<trkpt lat="29.949854" lon="97.539753">
<time>2016-10-07T19:12:42Z</time></trkpt>
<trkpt lat="29.949864" lon="97.539633">
<time>2016-10-07T19:12:43Z</time></trkpt>
<trkpt lat="29.949873" lon="97.539462">
<time>2016-10-07T19:12:44Z</time></trkpt>
<trkpt lat="29.949873" lon="97.539272">
<time>2016-10-07T19:12:45Z</time></trkpt>
<trkpt lat="29.949862" lon="97.539121">
<time>2016-10-07T19:12:46Z</time></trkpt>
<trkpt lat="29.949832" lon="97.53889">
<time>2016-10-07T19:12:47Z</time></trkpt>
<trkpt lat="29.949811" lon="97.53867">
<time>2016-10-07T19:12:48Z</time></trkpt>
<trkpt lat="29.949801" lon="97.538479">
<time>2016-10-07T19:12:49Z</time></trkpt>
<trkpt lat="29.94981" lon="97.538319">
<time>2016-10-07T19:12:50Z</time></trkpt>
<trkpt lat="29.94984" lon="97.538098">
<time>2016-10-07T19:12:51Z</time></trkpt>
<trkpt lat="29.949899" lon="97.537818">
<time>2016-10-07T19:12:52Z</time></trkpt>
<trkpt lat="29.949939" lon="97.537637">
<time>2016-10-07T19:12:53Z</time></trkpt>
<trkpt lat="29.949998" lon="97.537396">
<time>2016-10-07T19:12:54Z</time></trkpt>
<trkpt lat="29.950058" lon="97.537216">
<time>2016-10-07T19:12:55Z</time></trkpt>
<trkpt lat="29.950108" lon="97.537106">
<time>2016-10-07T19:12:56Z</time></trkpt>
<trkpt lat="29.950157" lon="97.537005">
<time>2016-10-07T19:12:57Z</time></trkpt>
<trkpt lat="29.950237" lon="97.536875">
<time>2016-10-07T19:12:58Z</time></trkpt>
<trkpt lat="29.950317" lon="97.536765">
<time>2016-10-07T19:12:59Z</time></trkpt>
<trkpt lat="29.950486" lon="97.536544">
<time>2016-10-07T19:13:00Z</time></trkpt>
<trkpt lat="29.950556" lon="97.536464">
<time>2016-10-07T19:13:01Z</time></trkpt>
<trkpt lat="29.950606" lon="97.536393">
<time>2016-10-07T19:13:02Z</time></trkpt>
<trkpt lat="29.950646" lon="97.536323">
<time>2016-10-07T19:13:03Z</time></trkpt>
<trkpt lat="29.950685" lon="97.536223">
<time>2016-10-07T19:13:04Z</time></trkpt>
<trkpt lat="29.950705" lon="97.536113">
<time>2016-10-07T19:13:05Z</time></trkpt>
<trkpt lat="29.950725" lon="97.536012">
<time>2016-10-07T19:13:06Z</time></trkpt>
<trkpt lat="29.950735" lon="97.535982">
<time>2016-10-07T19:13:07Z</time></trkpt>
<trkpt lat="29.950814" lon="97.535531">
<time>2016-10-07T19:13:08Z</time></trkpt>
<trkpt lat="29.950853" lon="97.535361">
<time>2016-10-07T19:13:09Z</time></trkpt>
<trkpt lat="29.950903" lon="97.53519">
<time>2016-10-07T19:13:10Z</time></trkpt>
<trkpt lat="29.950963" lon="97.53509">
<time>2016-10-07T19:13:11Z</time></trkpt>
<trkpt lat="29.951022" lon="97.53501">
<time>2016-10-07T19:13:12Z</time></trkpt>
<trkpt lat="29.951092" lon="97.534939">
<time>2016-10-07T19:13:13Z</time></trkpt>
<trkpt lat="29.951192" lon="97.534859">
<time>2016-10-07T19:13:14Z</time></trkpt>
<trkpt lat="29.951352" lon="97.534739">
<time>2016-10-07T19:13:15Z</time></trkpt>
<trkpt lat="29.951541" lon="97.534618">
<time>2016-10-07T19:13:16Z</time></trkpt>
<trkpt lat="29.951691" lon="97.534508">
<time>2016-10-07T19:13:17Z</time></trkpt>
<trkpt lat="29.951781" lon="97.534438">
<time>2016-10-07T19:13:18Z</time></trkpt>
<trkpt lat="29.951861" lon="97.534398">
<time>2016-10-07T19:13:19Z</time></trkpt>
<trkpt lat="29.951921" lon="97.534368">
<time>2016-10-07T19:13:20Z</time></trkpt>
<trkpt lat="29.952021" lon="97.534358">
<time>2016-10-07T19:13:21Z</time></trkpt>
<trkpt lat="29.952101" lon="97.534368">
<time>2016-10-07T19:13:22Z</time></trkpt>
<trkpt lat="29.952171" lon="97.534378">
<time>2016-10-07T19:13:23Z</time></trkpt>
<trkpt lat="29.952261" lon="97.534408">
<time>2016-10-07T19:13:24Z</time></trkpt>
<trkpt lat="29.952351" lon="97.534448">
<time>2016-10-07T19:13:25Z</time></trkpt>
<trkpt lat="29.952601" lon="97.534578">
<time>2016-10-07T19:13:26Z</time></trkpt>
<trkpt lat="29.952731" lon="97.534628">
<time>2016-10-07T19:13:27Z</time></trkpt>
<trkpt lat="29.952882" lon="97.534679">
<time>2016-10-07T19:13:28Z</time></trkpt>
<trkpt lat="29.953052" lon="97.534709">
<time>2016-10-07T19:13:29Z</time></trkpt>
<trkpt lat="29.953212" lon="97.534719">
<time>2016-10-07T19:13:30Z</time></trkpt>
<trkpt lat="29.953312" lon="97.534719">
<time>2016-10-07T19:13:31Z</time></trkpt>
<trkpt lat="29.953432" lon="97.534719">
<time>2016-10-07T19:13:32Z</time></trkpt>
<trkpt lat="29.953582" lon="97.534709">
<time>2016-10-07T19:13:33Z</time></trkpt>
<trkpt lat="29.953702" lon="97.534689">
<time>2016-10-07T19:13:34Z</time></trkpt>
<trkpt lat="29.953841" lon="97.534648">
<time>2016-10-07T19:13:35Z</time></trkpt>
<trkpt lat="29.954031" lon="97.534588">
<time>2016-10-07T19:13:36Z</time></trkpt>
<trkpt lat="29.954221" lon="97.534508">
<time>2016-10-07T19:13:37Z</time></trkpt>
<trkpt lat="29.954441" lon="97.534428">
<time>2016-10-07T19:13:38Z</time></trkpt>
<trkpt lat="29.954681" lon="97.534338">
<time>2016-10-07T19:13:39Z</time></trkpt>
<trkpt lat="29.95483" lon="97.534257">
<time>2016-10-07T19:13:40Z</time></trkpt>
<trkpt lat="29.95497" lon="97.534167">
<time>2016-10-07T19:13:41Z</time></trkpt>
<trkpt lat="29.9551" lon="97.534057">
<time>2016-10-07T19:13:42Z</time></trkpt>
<trkpt lat="29.955289" lon="97.533866">
<time>2016-10-07T19:13:43Z</time></trkpt>
<trkpt lat="29.955509" lon="97.533635">
<time>2016-10-07T19:13:44Z</time></trkpt>
<trkpt lat="29.955788" lon="97.533345">
<time>2016-10-07T19:13:45Z</time></trkpt>
<trkpt lat="29.956018" lon="97.533104">
<time>2016-10-07T19:13:46Z</time></trkpt>
<trkpt lat="29.956247" lon="97.532863">
<time>2016-10-07T19:13:47Z</time></trkpt>
<trkpt lat="29.956556" lon="97.532542">
<time>2016-10-07T19:13:48Z</time></trkpt>
<trkpt lat="29.956845" lon="97.532241">
<time>2016-10-07T19:13:49Z</time></trkpt>
<trkpt lat="29.957035" lon="97.532041">
<time>2016-10-07T19:13:50Z</time></trkpt>
<trkpt lat="29.957264" lon="97.5318">
<time>2016-10-07T19:13:51Z</time></trkpt>
<trkpt lat="29.957533" lon="97.531519">
<time>2016-10-07T19:13:52Z</time></trkpt>
<trkpt lat="29.957723" lon="97.531319">
<time>2016-10-07T19:13:53Z</time></trkpt>
<trkpt lat="29.957863" lon="97.531148">
<time>2016-10-07T19:13:54Z</time></trkpt>
<trkpt lat="29.957922" lon="97.531068">
<time>2016-10-07T19:13:55Z</time></trkpt>
<trkpt lat="29.957992" lon="97.530957">
<time>2016-10-07T19:13:56Z</time></trkpt>
<trkpt lat="29.958042" lon="97.530847">
<time>2016-10-07T19:13:57Z</time></trkpt>
<trkpt lat="29.958081" lon="97.530727">
<time>2016-10-07T19:13:58Z</time></trkpt>
<trkpt lat="29.958121" lon="97.530616">
<time>2016-10-07T19:13:59Z</time></trkpt>
<trkpt lat="29.958151" lon="97.530446">
<time>2016-10-07T19:14:00Z</time></trkpt>
<trkpt lat="29.95819" lon="97.530235">
<time>2016-10-07T19:14:01Z</time></trkpt>
<trkpt lat="29.95823" lon="97.530015">
<time>2016-10-07T19:14:02Z</time></trkpt>
<trkpt lat="29.958259" lon="97.529904">
<time>2016-10-07T19:14:03Z</time></trkpt>
<trkpt lat="29.958309" lon="97.529794">
<time>2016-10-07T19:14:04Z</time></trkpt>
<trkpt lat="29.958349" lon="97.529694">
<time>2016-10-07T19:14:05Z</time></trkpt>
<trkpt lat="29.958428" lon="97.529563">
<time>2016-10-07T19:14:06Z</time></trkpt>
<trkpt lat="29.958528" lon="97.529393">
<time>2016-10-07T19:14:07Z</time></trkpt>
<trkpt lat="29.958598" lon="97.529272">
<time>2016-10-07T19:14:08Z</time></trkpt>
<trkpt lat="29.958627" lon="97.529182">
<time>2016-10-07T19:14:09Z</time></trkpt>
<trkpt lat="29.958637" lon="97.529102">
<time>2016-10-07T19:14:10Z</time></trkpt>
<trkpt lat="29.958647" lon="97.529032">
<time>2016-10-07T19:14:11Z</time></trkpt>
<trkpt lat="29.958637" lon="97.528921">
<time>2016-10-07T19:14:12Z</time></trkpt>
<trkpt lat="29.958626" lon="97.528831">
<time>2016-10-07T19:14:13Z</time></trkpt>
<trkpt lat="29.958596" lon="97.528731">
<time>2016-10-07T19:14:14Z</time></trkpt>
<trkpt lat="29.958556" lon="97.52862">
<time>2016-10-07T19:14:15Z</time></trkpt>
<trkpt lat="29.958516" lon="97.52853">
<time>2016-10-07T19:14:16Z</time></trkpt>
<trkpt lat="29.958445" lon="97.52841">
<time>2016-10-07T19:14:17Z</time></trkpt>
<trkpt lat="29.958365" lon="97.528289">
<time>2016-10-07T19:14:18Z</time></trkpt>
<trkpt lat="29.958275" lon="97.528159">
<time>2016-10-07T19:14:19Z</time></trkpt>
<trkpt lat="29.958184" lon="97.528059">
<time>2016-10-07T19:14:20Z</time></trkpt>
<trkpt lat="29.958114" lon="97.527999">
<time>2016-10-07T19:14:21Z</time></trkpt>
<trkpt lat="29.958014" lon="97.527938">
<time>2016-10-07T19:14:22Z</time></trkpt>
<trkpt lat="29.957834" lon="97.527858">
<time>2016-10-07T19:14:23Z</time></trkpt>
<trkpt lat="29.957594" lon="97.527778">
<time>2016-10-07T19:14:24Z</time></trkpt>
<trkpt lat="29.957353" lon="97.527668">
<time>2016-10-07T19:14:25Z</time></trkpt>
<trkpt lat="29.957213" lon="97.527617">
<time>2016-10-07T19:14:26Z</time></trkpt>
<trkpt lat="29.957063" lon="97.527557">
<time>2016-10-07T19:14:27Z</time></trkpt>
<trkpt lat="29.956923" lon="97.527517">
<time>2016-10-07T19:14:28Z</time></trkpt>
<trkpt lat="29.956743" lon="97.527477">
<time>2016-10-07T19:14:29Z</time></trkpt>
<trkpt lat="29.956483" lon="97.527437">
<time>2016-10-07T19:14:30Z</time></trkpt>
<trkpt lat="29.956223" lon="97.527407">
<time>2016-10-07T19:14:31Z</time></trkpt>
<trkpt lat="29.955942" lon="97.527357">
<time>2016-10-07T19:14:32Z</time></trkpt>
<trkpt lat="29.955712" lon="97.527296">
<time>2016-10-07T19:14:33Z</time></trkpt>
<trkpt lat="29.955492" lon="97.527246">
<time>2016-10-07T19:14:34Z</time></trkpt>
<trkpt lat="29.955322" lon="97.527216">
<time>2016-10-07T19:14:35Z</time></trkpt>
<trkpt lat="29.955182" lon="97.527206">
<time>2016-10-07T19:14:36Z</time></trkpt>
<trkpt lat="29.955032" lon="97.527206">
<time>2016-10-07T19:14:37Z</time></trkpt>
<trkpt lat="29.954772" lon="97.527206">
<time>2016-10-07T19:14:38Z</time></trkpt>
<trkpt lat="29.954482" lon="97.527226">
<time>2016-10-07T19:14:39Z</time></trkpt>
<trkpt lat="29.954382" lon="97.527226">
<time>2016-10-07T19:14:40Z</time></trkpt>
<trkpt lat="29.954312" lon="97.527216">
<time>2016-10-07T19:14:41Z</time></trkpt>
<trkpt lat="29.954252" lon="97.527206">
<time>2016-10-07T19:14:42Z</time></trkpt>
<trkpt lat="29.954202" lon="97.527176">
<time>2016-10-07T19:14:43Z</time></trkpt>
<trkpt lat="29.954142" lon="97.527136">
<time>2016-10-07T19:14:44Z</time></trkpt>
<trkpt lat="29.954092" lon="97.527096">
<time>2016-10-07T19:14:45Z</time></trkpt>
<trkpt lat="29.954032" lon="97.527026">
<time>2016-10-07T19:14:46Z</time></trkpt>
<trkpt lat="29.954001" lon="97.526965">
<time>2016-10-07T19:14:47Z</time></trkpt>
<trkpt lat="29.953971" lon="97.526895">
<time>2016-10-07T19:14:48Z</time></trkpt>
<trkpt lat="29.953951" lon="97.526815">
<time>2016-10-07T19:14:49Z</time></trkpt>
<trkpt lat="29.953951" lon="97.526735">
<time>2016-10-07T19:14:50Z</time></trkpt>
<trkpt lat="29.953951" lon="97.526624">
<time>2016-10-07T19:14:51Z</time></trkpt>
<trkpt lat="29.95396" lon="97.526554">
<time>2016-10-07T19:14:52Z</time></trkpt>
<trkpt lat="29.95399" lon="97.526434">
<time>2016-10-07T19:14:53Z</time></trkpt>
<trkpt lat="29.954099" lon="97.526053">
<time>2016-10-07T19:14:54Z</time></trkpt>
<trkpt lat="29.954198" lon="97.525732">
<time>2016-10-07T19:14:55Z</time></trkpt>
<trkpt lat="29.954297" lon="97.525401">
<time>2016-10-07T19:14:56Z</time></trkpt>
<trkpt lat="29.954377" lon="97.52517">
<time>2016-10-07T19:14:57Z</time></trkpt>
<trkpt lat="29.954496" lon="97.524869">
<time>2016-10-07T19:14:58Z</time></trkpt>
<trkpt lat="29.954585" lon="97.524618">
<time>2016-10-07T19:14:59Z</time></trkpt>
<trkpt lat="29.954654" lon="97.524407">
<time>2016-10-07T19:15:00Z</time></trkpt>
<trkpt lat="29.954734" lon="97.524106">
<time>2016-10-07T19:15:01Z</time></trkpt>
<trkpt lat="29.954813" lon="97.523775">
<time>2016-10-07T19:15:02Z</time></trkpt>
<trkpt lat="29.954902" lon="97.523404">
<time>2016-10-07T19:15:03Z</time></trkpt>
<trkpt lat="29.954981" lon="97.523063">
<time>2016-10-07T19:15:04Z</time></trkpt>
<trkpt lat="29.955109" lon="97.522582">
<time>2016-10-07T19:15:05Z</time></trkpt>
<trkpt lat="29.955248" lon="97.52207">
<time>2016-10-07T19:15:06Z</time></trkpt>
<trkpt lat="29.955357" lon="97.521689">
<time>2016-10-07T19:15:07Z</time></trkpt>
<trkpt lat="29.955476" lon="97.521257">
<time>2016-10-07T19:15:08Z</time></trkpt>
<trkpt lat="29.955575" lon="97.520866">
<time>2016-10-07T19:15:09Z</time></trkpt>
<trkpt lat="29.955654" lon="97.520595">
<time>2016-10-07T19:15:10Z</time></trkpt>
<trkpt lat="29.955733" lon="97.520384">
<time>2016-10-07T19:15:11Z</time></trkpt>
<trkpt lat="29.955852" lon="97.520094">
<time>2016-10-07T19:15:12Z</time></trkpt>
<trkpt lat="29.956011" lon="97.519762">
<time>2016-10-07T19:15:13Z</time></trkpt>
<trkpt lat="29.956131" lon="97.519492">
<time>2016-10-07T19:15:14Z</time></trkpt>
<trkpt lat="29.95621" lon="97.519341">
<time>2016-10-07T19:15:15Z</time></trkpt>
<trkpt lat="29.95629" lon="97.519211">
<time>2016-10-07T19:15:16Z</time></trkpt>
<trkpt lat="29.95638" lon="97.51909">
<time>2016-10-07T19:15:17Z</time></trkpt>
<trkpt lat="29.956449" lon="97.51901">
<time>2016-10-07T19:15:18Z</time></trkpt>
<trkpt lat="29.956539" lon="97.51891">
<time>2016-10-07T19:15:19Z</time></trkpt>
<trkpt lat="29.956679" lon="97.518799">
<time>2016-10-07T19:15:20Z</time></trkpt>
<trkpt lat="29.956808" lon="97.518679">
<time>2016-10-07T19:15:21Z</time></trkpt>
<trkpt lat="29.956888" lon="97.518579">
<time>2016-10-07T19:15:22Z</time></trkpt>
<trkpt lat="29.956978" lon="97.518468">
<time>2016-10-07T19:15:23Z</time></trkpt>
<trkpt lat="29.957057" lon="97.518338">
<time>2016-10-07T19:15:24Z</time></trkpt>
<trkpt lat="29.957117" lon="97.518227">
<time>2016-10-07T19:15:25Z</time></trkpt>
<trkpt lat="29.957167" lon="97.518107">
<time>2016-10-07T19:15:26Z</time></trkpt>
<trkpt lat="29.957206" lon="97.517997">
<time>2016-10-07T19:15:27Z</time></trkpt>
<trkpt lat="29.957236" lon="97.517856">
<time>2016-10-07T19:15:28Z</time></trkpt>
<trkpt lat="29.957266" lon="97.517676">
<time>2016-10-07T19:15:29Z</time></trkpt>
<trkpt lat="29.957305" lon="97.517495">
<time>2016-10-07T19:15:30Z</time></trkpt>
<trkpt lat="29.957335" lon="97.517385">
<time>2016-10-07T19:15:31Z</time></trkpt>
<trkpt lat="29.957374" lon="97.517284">
<time>2016-10-07T19:15:32Z</time></trkpt>
<trkpt lat="29.957434" lon="97.517164">
<time>2016-10-07T19:15:33Z</time></trkpt>
<trkpt lat="29.957514" lon="97.517034">
<time>2016-10-07T19:15:34Z</time></trkpt>
<trkpt lat="29.957583" lon="97.516903">
<time>2016-10-07T19:15:35Z</time></trkpt>
<trkpt lat="29.957623" lon="97.516833">
<time>2016-10-07T19:15:36Z</time></trkpt>
<trkpt lat="29.957653" lon="97.516763">
<time>2016-10-07T19:15:37Z</time></trkpt>
<trkpt lat="29.957703" lon="97.516642">
<time>2016-10-07T19:15:38Z</time></trkpt>
<trkpt lat="29.957732" lon="97.516512">
<time>2016-10-07T19:15:39Z</time></trkpt>
<trkpt lat="29.957752" lon="97.516351">
<time>2016-10-07T19:15:40Z</time></trkpt>
<trkpt lat="29.957761" lon="97.516201">
<time>2016-10-07T19:15:41Z</time></trkpt>
<trkpt lat="29.957761" lon="97.51599">
<time>2016-10-07T19:15:42Z</time></trkpt>
<trkpt lat="29.95776" lon="97.515639">
<time>2016-10-07T19:15:43Z</time></trkpt>
<trkpt lat="29.957749" lon="97.515288">
<time>2016-10-07T19:15:44Z</time></trkpt>
<trkpt lat="29.957728" lon="97.515037">
<time>2016-10-07T19:15:45Z</time></trkpt>
<trkpt lat="29.957728" lon="97.514927">
<time>2016-10-07T19:15:46Z</time></trkpt>
<trkpt lat="29.957717" lon="97.514856">
<time>2016-10-07T19:15:47Z</time></trkpt>
<trkpt lat="29.957707" lon="97.514766">
<time>2016-10-07T19:15:48Z</time></trkpt>
<trkpt lat="29.957687" lon="97.514666">
<time>2016-10-07T19:15:49Z</time></trkpt>
<trkpt lat="29.957657" lon="97.514565">
<time>2016-10-07T19:15:50Z</time></trkpt>
<trkpt lat="29.957616" lon="97.514445">
<time>2016-10-07T19:15:51Z</time></trkpt>
<trkpt lat="29.957556" lon="97.514325">
<time>2016-10-07T19:15:52Z</time></trkpt>
<trkpt lat="29.957496" lon="97.514204">
<time>2016-10-07T19:15:53Z</time></trkpt>
<trkpt lat="29.957435" lon="97.514114">
<time>2016-10-07T19:15:54Z</time></trkpt>
<trkpt lat="29.957385" lon="97.514044">
<time>2016-10-07T19:15:55Z</time></trkpt>
<trkpt lat="29.957315" lon="97.513963">
<time>2016-10-07T19:15:56Z</time></trkpt>
<trkpt lat="29.957245" lon="97.513883">
<time>2016-10-07T19:15:57Z</time></trkpt>
<trkpt lat="29.957104" lon="97.513763">
<time>2016-10-07T19:15:58Z</time></trkpt>
<trkpt lat="29.956803" lon="97.513512">
<time>2016-10-07T19:15:59Z</time></trkpt>
<trkpt lat="29.956413" lon="97.513181">
<time>2016-10-07T19:16:00Z</time></trkpt>
<trkpt lat="29.956052" lon="97.51289">
<time>2016-10-07T19:16:01Z</time></trkpt>
<trkpt lat="29.955831" lon="97.512709">
<time>2016-10-07T19:16:02Z</time></trkpt>
<trkpt lat="29.955781" lon="97.512649">
<time>2016-10-07T19:16:03Z</time></trkpt>
<trkpt lat="29.955741" lon="97.512599">
<time>2016-10-07T19:16:04Z</time></trkpt>
<trkpt lat="29.955711" lon="97.512549">
<time>2016-10-07T19:16:05Z</time></trkpt>
<trkpt lat="29.955691" lon="97.512488">
<time>2016-10-07T19:16:06Z</time></trkpt>
<trkpt lat="29.95567" lon="97.512418">
<time>2016-10-07T19:16:07Z</time></trkpt>
<trkpt lat="29.95566" lon="97.512358">
<time>2016-10-07T19:16:08Z</time></trkpt>
<trkpt lat="29.95566" lon="97.512248">
<time>2016-10-07T19:16:09Z</time></trkpt>
<trkpt lat="29.955679" lon="97.512057">
<time>2016-10-07T19:16:10Z</time></trkpt>
<trkpt lat="29.955688" lon="97.511736">
<time>2016-10-07T19:16:11Z</time></trkpt>
<trkpt lat="29.955707" lon="97.511204">
<time>2016-10-07T19:16:12Z</time></trkpt>
<trkpt lat="29.955716" lon="97.510963">
<time>2016-10-07T19:16:13Z</time></trkpt>
<trkpt lat="29.955736" lon="97.510853">
<time>2016-10-07T19:16:14Z</time></trkpt>
<trkpt lat="29.955765" lon="97.510733">
<time>2016-10-07T19:16:15Z</time></trkpt>
<trkpt lat="29.955825" lon="97.510622">
<time>2016-10-07T19:16:16Z</time></trkpt>
<trkpt lat="29.955875" lon="97.510542">
<time>2016-10-07T19:16:17Z</time></trkpt>
<trkpt lat="29.955935" lon="97.510472">
<time>2016-10-07T19:16:18Z</time></trkpt>
<trkpt lat="29.956004" lon="97.510401">
<time>2016-10-07T19:16:19Z</time></trkpt>
<trkpt lat="29.956094" lon="97.510341">
<time>2016-10-07T19:16:20Z</time></trkpt>
<trkpt lat="29.956224" lon="97.510261">
<time>2016-10-07T19:16:21Z</time></trkpt>
<trkpt lat="29.956364" lon="97.510171">
<time>2016-10-07T19:16:22Z</time></trkpt>
<trkpt lat="29.956483" lon="97.5101">
<time>2016-10-07T19:16:23Z</time></trkpt>
<trkpt lat="29.956613" lon="97.51001">
<time>2016-10-07T19:16:24Z</time></trkpt>
<trkpt lat="29.956763" lon="97.50995">
<time>2016-10-07T19:16:25Z</time></trkpt>
<trkpt lat="29.956893" lon="97.50991">
<time>2016-10-07T19:16:26Z</time></trkpt>
<trkpt lat="29.957003" lon="97.50987">
<time>2016-10-07T19:16:27Z</time></trkpt>
<trkpt lat="29.957083" lon="97.509819">
<time>2016-10-07T19:16:28Z</time></trkpt>
<trkpt lat="29.957172" lon="97.509749">
<time>2016-10-07T19:16:29Z</time></trkpt>
<trkpt lat="29.957242" lon="97.509679">
<time>2016-10-07T19:16:30Z</time></trkpt>
<trkpt lat="29.957322" lon="97.509579">
<time>2016-10-07T19:16:31Z</time></trkpt>
<trkpt lat="29.957441" lon="97.509418">
<time>2016-10-07T19:16:32Z</time></trkpt>
<trkpt lat="29.957551" lon="97.509278">
<time>2016-10-07T19:16:33Z</time></trkpt>
<trkpt lat="29.957661" lon="97.509177">
<time>2016-10-07T19:16:34Z</time></trkpt>
<trkpt lat="29.9579" lon="97.508977">
<time>2016-10-07T19:16:35Z</time></trkpt>
<trkpt lat="29.958608" lon="97.508415">
<time>2016-10-07T19:16:36Z</time></trkpt>
<trkpt lat="29.958938" lon="97.508134">
<time>2016-10-07T19:16:37Z</time></trkpt>
<trkpt lat="29.959127" lon="97.507963">
<time>2016-10-07T19:16:38Z</time></trkpt>
<trkpt lat="29.959307" lon="97.507793">
<time>2016-10-07T19:16:39Z</time></trkpt>
<trkpt lat="29.959406" lon="97.507692">
<time>2016-10-07T19:16:40Z</time></trkpt>
<trkpt lat="29.959476" lon="97.507592">
<time>2016-10-07T19:16:41Z</time></trkpt>
<trkpt lat="29.959536" lon="97.507481">
<time>2016-10-07T19:16:42Z</time></trkpt>
<trkpt lat="29.959595" lon="97.507361">
<time>2016-10-07T19:16:43Z</time></trkpt>
<trkpt lat="29.959695" lon="97.50712">
<time>2016-10-07T19:16:44Z</time></trkpt>
<trkpt lat="29.959814" lon="97.506849">
<time>2016-10-07T19:16:45Z</time></trkpt>
<trkpt lat="29.959873" lon="97.506699">
<time>2016-10-07T19:16:46Z</time></trkpt>
<trkpt lat="29.959913" lon="97.506548">
<time>2016-10-07T19:16:47Z</time></trkpt>
<trkpt lat="29.959933" lon="97.506408">
<time>2016-10-07T19:16:48Z</time></trkpt>
<trkpt lat="29.959932" lon="97.506247">
<time>2016-10-07T19:16:49Z</time></trkpt>
<trkpt lat="29.959911" lon="97.506057">
<time>2016-10-07T19:16:50Z</time></trkpt>
<trkpt lat="29.959871" lon="97.505846">
<time>2016-10-07T19:16:51Z</time></trkpt>
<trkpt lat="29.95982" lon="97.505705">
<time>2016-10-07T19:16:52Z</time></trkpt>
<trkpt lat="29.95974" lon="97.505525">
<time>2016-10-07T19:16:53Z</time></trkpt>
<trkpt lat="29.959649" lon="97.505354">
<time>2016-10-07T19:16:54Z</time></trkpt>
<trkpt lat="29.959539" lon="97.505174">
<time>2016-10-07T19:16:55Z</time></trkpt>
<trkpt lat="29.959438" lon="97.505023">
<time>2016-10-07T19:16:56Z</time></trkpt>
<trkpt lat="29.959288" lon="97.504822">
<time>2016-10-07T19:16:57Z</time></trkpt>
<trkpt lat="29.959097" lon="97.504612">
<time>2016-10-07T19:16:58Z</time></trkpt>
<trkpt lat="29.958856" lon="97.504351">
<time>2016-10-07T19:16:59Z</time></trkpt>
<trkpt lat="29.958576" lon="97.50407">
<time>2016-10-07T19:17:00Z</time></trkpt>
<trkpt lat="29.958295" lon="97.503809">
<time>2016-10-07T19:17:01Z</time></trkpt>
<trkpt lat="29.957994" lon="97.503548">
<time>2016-10-07T19:17:02Z</time></trkpt>
<trkpt lat="29.957352" lon="97.502956">
<time>2016-10-07T19:17:03Z</time></trkpt>
<trkpt lat="29.956861" lon="97.502474">
<time>2016-10-07T19:17:04Z</time></trkpt>
<trkpt lat="29.956169" lon="97.501792">
<time>2016-10-07T19:17:05Z</time></trkpt>
<trkpt lat="29.955768" lon="97.501401">
<time>2016-10-07T19:17:06Z</time></trkpt>
<trkpt lat="29.955045" lon="97.500688">
<time>2016-10-07T19:17:07Z</time></trkpt>
<trkpt lat="29.954403" lon="97.500046">
<time>2016-10-07T19:17:08Z</time></trkpt>
<trkpt lat="29.954293" lon="97.499926">
<time>2016-10-07T19:17:09Z</time></trkpt>
<trkpt lat="29.954173" lon="97.499785">
<time>2016-10-07T19:17:10Z</time></trkpt>
<trkpt lat="29.954032" lon="97.499544">
<time>2016-10-07T19:17:11Z</time></trkpt>
<trkpt lat="29.95371" lon="97.498932">
<time>2016-10-07T19:17:12Z</time></trkpt>
<trkpt lat="29.953348" lon="97.49824">
<time>2016-10-07T19:17:13Z</time></trkpt>
<trkpt lat="29.953026" lon="97.497618">
<time>2016-10-07T19:17:14Z</time></trkpt>
<trkpt lat="29.952704" lon="97.497016">
<time>2016-10-07T19:17:15Z</time></trkpt>
<trkpt lat="29.952473" lon="97.496564">
<time>2016-10-07T19:17:16Z</time></trkpt>
<trkpt lat="29.952302" lon="97.496243">
<time>2016-10-07T19:17:17Z</time></trkpt>
<trkpt lat="29.952232" lon="97.496083">
<time>2016-10-07T19:17:18Z</time></trkpt>
<trkpt lat="29.952201" lon="97.495992">
<time>2016-10-07T19:17:19Z</time></trkpt>
<trkpt lat="29.952171" lon="97.495892">
<time>2016-10-07T19:17:20Z</time></trkpt>
<trkpt lat="29.952151" lon="97.495772">
<time>2016-10-07T19:17:21Z</time></trkpt>
<trkpt lat="29.95213" lon="97.495611">
<time>2016-10-07T19:17:22Z</time></trkpt>
<trkpt lat="29.95211" lon="97.49544">
<time>2016-10-07T19:17:23Z</time></trkpt>
<trkpt lat="29.952069" lon="97.495059">
<time>2016-10-07T19:17:24Z</time></trkpt>
<trkpt lat="29.952048" lon="97.494899">
<time>2016-10-07T19:17:25Z</time></trkpt>
<trkpt lat="29.952028" lon="97.494718">
<time>2016-10-07T19:17:26Z</time></trkpt>
<trkpt lat="29.952017" lon="97.494567">
<time>2016-10-07T19:17:27Z</time></trkpt>
<trkpt lat="29.951997" lon="97.494437">
<time>2016-10-07T19:17:28Z</time></trkpt>
<trkpt lat="29.951966" lon="97.494166">
<time>2016-10-07T19:17:29Z</time></trkpt>
<trkpt lat="29.951945" lon="97.494036">
<time>2016-10-07T19:17:30Z</time></trkpt>
<trkpt lat="29.951865" lon="97.493715">
<time>2016-10-07T19:17:31Z</time></trkpt>
<trkpt lat="29.951814" lon="97.493494">
<time>2016-10-07T19:17:32Z</time></trkpt>
<trkpt lat="29.951773" lon="97.493303">
<time>2016-10-07T19:17:33Z</time></trkpt>
<trkpt lat="29.951733" lon="97.493133">
<time>2016-10-07T19:17:34Z</time></trkpt>
<trkpt lat="29.951702" lon="97.492962">
<time>2016-10-07T19:17:35Z</time></trkpt>
<trkpt lat="29.951692" lon="97.492862">
<time>2016-10-07T19:17:36Z</time></trkpt>
<trkpt lat="29.951682" lon="97.492761">
<time>2016-10-07T19:17:37Z</time></trkpt>
<trkpt lat="29.951671" lon="97.492661">
<time>2016-10-07T19:17:38Z</time></trkpt>
<trkpt lat="29.951671" lon="97.492581">
<time>2016-10-07T19:17:39Z</time></trkpt>
<trkpt lat="29.951671" lon="97.49249">
<time>2016-10-07T19:17:40Z</time></trkpt>
<trkpt lat="29.951681" lon="97.49239">
<time>2016-10-07T19:17:41Z</time></trkpt>
<trkpt lat="29.9517" lon="97.49227">
<time>2016-10-07T19:17:42Z</time></trkpt>
<trkpt lat="29.95171" lon="97.492189">
<time>2016-10-07T19:17:43Z</time></trkpt>
<trkpt lat="29.95173" lon="97.492069">
<time>2016-10-07T19:17:44Z</time></trkpt>
<trkpt lat="29.951779" lon="97.491828">
<time>2016-10-07T19:17:45Z</time></trkpt>
<trkpt lat="29.951828" lon="97.491617">
<time>2016-10-07T19:17:46Z</time></trkpt>
<trkpt lat="29.951868" lon="97.491417">
<time>2016-10-07T19:17:47Z</time></trkpt>
<trkpt lat="29.951897" lon="97.491286">
<time>2016-10-07T19:17:48Z</time></trkpt>
<trkpt lat="29.951917" lon="97.491166">
<time>2016-10-07T19:17:49Z</time></trkpt>
<trkpt lat="29.951937" lon="97.491056">
<time>2016-10-07T19:17:50Z</time></trkpt>
<trkpt lat="29.951946" lon="97.490935">
<time>2016-10-07T19:17:51Z</time></trkpt>
<trkpt lat="29.951956" lon="97.490805">
<time>2016-10-07T19:17:52Z</time></trkpt>
<trkpt lat="29.951956" lon="97.490694">
<time>2016-10-07T19:17:53Z</time></trkpt>
<trkpt lat="29.951955" lon="97.490554">
<time>2016-10-07T19:17:54Z</time></trkpt>
<trkpt lat="29.951945" lon="97.490413">
<time>2016-10-07T19:17:55Z</time></trkpt>
<trkpt lat="29.951914" lon="97.490082">
<time>2016-10-07T19:17:56Z</time></trkpt>
<trkpt lat="29.951903" lon="97.489972">
<time>2016-10-07T19:17:57Z</time></trkpt>
<trkpt lat="29.951893" lon="97.489862">
<time>2016-10-07T19:17:58Z</time></trkpt>
<trkpt lat="29.951893" lon="97.489771">
<time>2016-10-07T19:17:59Z</time></trkpt>
<trkpt lat="29.951883" lon="97.489691">
<time>2016-10-07T19:18:00Z</time></trkpt>
<trkpt lat="29.951872" lon="97.489631">
<time>2016-10-07T19:18:01Z</time></trkpt>
<trkpt lat="29.951862" lon="97.489571">
<time>2016-10-07T19:18:02Z</time></trkpt>
<trkpt lat="29.951852" lon="97.48951">
<time>2016-10-07T19:18:03Z</time></trkpt>
<trkpt lat="29.951842" lon="97.48946">
<time>2016-10-07T19:18:04Z</time></trkpt>
<trkpt lat="29.951832" lon="97.48941">
<time>2016-10-07T19:18:05Z</time></trkpt>
<trkpt lat="29.951822" lon="97.48936">
<time>2016-10-07T19:18:06Z</time></trkpt>
<trkpt lat="29.951801" lon="97.48932">
<time>2016-10-07T19:18:07Z</time></trkpt>
<trkpt lat="29.951781" lon="97.48927">
<time>2016-10-07T19:18:08Z</time></trkpt>
<trkpt lat="29.951761" lon="97.489229">
<time>2016-10-07T19:18:09Z</time></trkpt>
<trkpt lat="29.951731" lon="97.489179">
<time>2016-10-07T19:18:10Z</time></trkpt>
<trkpt lat="29.951701" lon="97.489149">
<time>2016-10-07T19:18:11Z</time></trkpt>
<trkpt lat="29.951631" lon="97.489069">
<time>2016-10-07T19:18:12Z</time></trkpt>
<trkpt lat="29.951571" lon="97.489019">
<time>2016-10-07T19:18:13Z</time></trkpt>
<trkpt lat="29.9515" lon="97.488959">
<time>2016-10-07T19:18:14Z</time></trkpt>
<trkpt lat="29.95143" lon="97.488908">
<time>2016-10-07T19:18:15Z</time></trkpt>
<trkpt lat="29.95129" lon="97.488808">
<time>2016-10-07T19:18:16Z</time></trkpt>
<trkpt lat="29.95111" lon="97.488698">
<time>2016-10-07T19:18:17Z</time></trkpt>
<trkpt lat="29.950919" lon="97.488567">
<time>2016-10-07T19:18:18Z</time></trkpt>
<trkpt lat="29.950689" lon="97.488417">
<time>2016-10-07T19:18:19Z</time></trkpt>
<trkpt lat="29.950448" lon="97.488246">
<time>2016-10-07T19:18:20Z</time></trkpt>
<trkpt lat="29.950218" lon="97.488096">
<time>2016-10-07T19:18:21Z</time></trkpt>
<trkpt lat="29.950017" lon="97.487955">
<time>2016-10-07T19:18:22Z</time></trkpt>
<trkpt lat="29.949737" lon="97.487765">
<time>2016-10-07T19:18:23Z</time></trkpt>
<trkpt lat="29.949547" lon="97.487644">
<time>2016-10-07T19:18:24Z</time></trkpt>
<trkpt lat="29.949306" lon="97.487474">
<time>2016-10-07T19:18:25Z</time></trkpt>
<trkpt lat="29.949126" lon="97.487353">
<time>2016-10-07T19:18:26Z</time></trkpt>
<trkpt lat="29.948935" lon="97.487223">
<time>2016-10-07T19:18:27Z</time></trkpt>
<trkpt lat="29.948755" lon="97.487102">
<time>2016-10-07T19:18:28Z</time></trkpt>
<trkpt lat="29.948514" lon="97.486932">
<time>2016-10-07T19:18:29Z</time></trkpt>
<trkpt lat="29.948324" lon="97.486801">
<time>2016-10-07T19:18:30Z</time></trkpt>
<trkpt lat="29.948144" lon="97.486681">
<time>2016-10-07T19:18:31Z</time></trkpt>
<trkpt lat="29.947983" lon="97.486581">
<time>2016-10-07T19:18:32Z</time></trkpt>
<trkpt lat="29.947843" lon="97.48648">
<time>2016-10-07T19:18:33Z</time></trkpt>
<trkpt lat="29.947703" lon="97.48639">
<time>2016-10-07T19:18:34Z</time></trkpt>
<trkpt lat="29.947563" lon="97.48629">
<time>2016-10-07T19:18:35Z</time></trkpt>
<trkpt lat="29.947452" lon="97.486209">
<time>2016-10-07T19:18:36Z</time></trkpt>
<trkpt lat="29.947352" lon="97.486119">
<time>2016-10-07T19:18:37Z</time></trkpt>
<trkpt lat="29.947282" lon="97.486059">
<time>2016-10-07T19:18:38Z</time></trkpt>
<trkpt lat="29.947222" lon="97.485999">
<time>2016-10-07T19:18:39Z</time></trkpt>
<trkpt lat="29.947172" lon="97.485949">
<time>2016-10-07T19:18:40Z</time></trkpt>
<trkpt lat="29.947001" lon="97.485728">
<time>2016-10-07T19:18:41Z</time></trkpt>
<trkpt lat="29.94682" lon="97.485497">
<time>2016-10-07T19:18:42Z</time></trkpt>
<trkpt lat="29.94664" lon="97.485256">
<time>2016-10-07T19:18:43Z</time></trkpt>
<trkpt lat="29.946429" lon="97.484985">
<time>2016-10-07T19:18:44Z</time></trkpt>
<trkpt lat="29.946268" lon="97.484775">
<time>2016-10-07T19:18:45Z</time></trkpt>
<trkpt lat="29.946128" lon="97.484584">
<time>2016-10-07T19:18:46Z</time></trkpt>
<trkpt lat="29.945987" lon="97.484403">
<time>2016-10-07T19:18:47Z</time></trkpt>
<trkpt lat="29.945887" lon="97.484273">
<time>2016-10-07T19:18:48Z</time></trkpt>
<trkpt lat="29.945736" lon="97.484082">
<time>2016-10-07T19:18:49Z</time></trkpt>
<trkpt lat="29.945616" lon="97.483932">
<time>2016-10-07T19:18:50Z</time></trkpt>
<trkpt lat="29.945515" lon="97.483812">
<time>2016-10-07T19:18:51Z</time></trkpt>
<trkpt lat="29.945435" lon="97.483681">
<time>2016-10-07T19:18:52Z</time></trkpt>
<trkpt lat="29.945365" lon="97.483581">
<time>2016-10-07T19:18:53Z</time></trkpt>
<trkpt lat="29.945294" lon="97.48346">
<time>2016-10-07T19:18:54Z</time></trkpt>
<trkpt lat="29.945254" lon="97.48336">
<time>2016-10-07T19:18:55Z</time></trkpt>
<trkpt lat="29.945194" lon="97.48324">
<time>2016-10-07T19:18:56Z</time></trkpt>
<trkpt lat="29.945163" lon="97.483169">
<time>2016-10-07T19:18:57Z</time></trkpt>
<trkpt lat="29.945133" lon="97.483059">
<time>2016-10-07T19:18:58Z</time></trkpt>
<trkpt lat="29.945093" lon="97.482949">
<time>2016-10-07T19:18:59Z</time></trkpt>
<trkpt lat="29.945063" lon="97.482838">
<time>2016-10-07T19:19:00Z</time></trkpt>
<trkpt lat="29.945012" lon="97.482638">
<time>2016-10-07T19:19:01Z</time></trkpt>
<trkpt lat="29.944971" lon="97.482457">
<time>2016-10-07T19:19:02Z</time></trkpt>
<trkpt lat="29.944921" lon="97.482256">
<time>2016-10-07T19:19:03Z</time></trkpt>
<trkpt lat="29.94488" lon="97.482076">
<time>2016-10-07T19:19:04Z</time></trkpt>
<trkpt lat="29.94484" lon="97.481915">
<time>2016-10-07T19:19:05Z</time></trkpt>
<trkpt lat="29.944799" lon="97.481755">
<time>2016-10-07T19:19:06Z</time></trkpt>
<trkpt lat="29.944769" lon="97.481634">
<time>2016-10-07T19:19:07Z</time></trkpt>
<trkpt lat="29.944729" lon="97.481464">
<time>2016-10-07T19:19:08Z</time></trkpt>
<trkpt lat="29.944678" lon="97.481263">
<time>2016-10-07T19:19:09Z</time></trkpt>
<trkpt lat="29.944628" lon="97.481103">
<time>2016-10-07T19:19:10Z</time></trkpt>
<trkpt lat="29.944607" lon="97.481002">
<time>2016-10-07T19:19:11Z</time></trkpt>
<trkpt lat="29.944577" lon="97.480882">
<time>2016-10-07T19:19:12Z</time></trkpt>
<trkpt lat="29.944557" lon="97.480762">
<time>2016-10-07T19:19:13Z</time></trkpt>
<trkpt lat="29.944536" lon="97.480611">
<time>2016-10-07T19:19:14Z</time></trkpt>
<trkpt lat="29.944505" lon="97.48023">
<time>2016-10-07T19:19:15Z</time></trkpt>
<trkpt lat="29.944454" lon="97.479768">
<time>2016-10-07T19:19:16Z</time></trkpt>
<trkpt lat="29.944402" lon="97.479247">
<time>2016-10-07T19:19:17Z</time></trkpt>
<trkpt lat="29.944341" lon="97.478635">
<time>2016-10-07T19:19:18Z</time></trkpt>
<trkpt lat="29.94432" lon="97.478444">
<time>2016-10-07T19:19:19Z</time></trkpt>
<trkpt lat="29.9443" lon="97.478284">
<time>2016-10-07T19:19:20Z</time></trkpt>
<trkpt lat="29.944289" lon="97.478163">
<time>2016-10-07T19:19:21Z</time></trkpt>
<trkpt lat="29.944269" lon="97.478043">
<time>2016-10-07T19:19:22Z</time></trkpt>
<trkpt lat="29.944239" lon="97.477922">
<time>2016-10-07T19:19:23Z</time></trkpt>
<trkpt lat="29.944198" lon="97.477702">
<time>2016-10-07T19:19:24Z</time></trkpt>
<trkpt lat="29.944147" lon="97.477521">
<time>2016-10-07T19:19:25Z</time></trkpt>
<trkpt lat="29.944117" lon="97.477391">
<time>2016-10-07T19:19:26Z</time></trkpt>
<trkpt lat="29.944077" lon="97.47726">
<time>2016-10-07T19:19:27Z</time></trkpt>
<trkpt lat="29.943986" lon="97.476959">
<time>2016-10-07T19:19:28Z</time></trkpt>
<trkpt lat="29.943915" lon="97.476729">
<time>2016-10-07T19:19:29Z</time></trkpt>
<trkpt lat="29.943845" lon="97.476518">
<time>2016-10-07T19:19:30Z</time></trkpt>
<trkpt lat="29.943814" lon="97.476428">
<time>2016-10-07T19:19:31Z</time></trkpt>
<trkpt lat="29.943784" lon="97.476347">
<time>2016-10-07T19:19:32Z</time></trkpt>
<trkpt lat="29.943764" lon="97.476287">
<time>2016-10-07T19:19:33Z</time></trkpt>
<trkpt lat="29.943714" lon="97.476197">
<time>2016-10-07T19:19:34Z</time></trkpt>
<trkpt lat="29.943653" lon="97.476087">
<time>2016-10-07T19:19:35Z</time></trkpt>
<trkpt lat="29.943563" lon="97.475936">
<time>2016-10-07T19:19:36Z</time></trkpt>
<trkpt lat="29.943483" lon="97.475786">
<time>2016-10-07T19:19:37Z</time></trkpt>
<trkpt lat="29.943402" lon="97.475655">
<time>2016-10-07T19:19:38Z</time></trkpt>
<trkpt lat="29.943352" lon="97.475565">
<time>2016-10-07T19:19:39Z</time></trkpt>
<trkpt lat="29.943312" lon="97.475485">
<time>2016-10-07T19:19:40Z</time></trkpt>
<trkpt lat="29.943282" lon="97.475405">
<time>2016-10-07T19:19:41Z</time></trkpt>
<trkpt lat="29.943251" lon="97.475314">
<time>2016-10-07T19:19:42Z</time></trkpt>
<trkpt lat="29.943211" lon="97.475164">
<time>2016-10-07T19:19:43Z</time></trkpt>
<trkpt lat="29.94315" lon="97.474933">
<time>2016-10-07T19:19:44Z</time></trkpt>
<trkpt lat="29.9431" lon="97.474732">
<time>2016-10-07T19:19:45Z</time></trkpt>
<trkpt lat="29.943049" lon="97.474492">
<time>2016-10-07T19:19:46Z</time></trkpt>
<trkpt lat="29.942978" lon="97.474161">
<time>2016-10-07T19:19:47Z</time></trkpt>
<trkpt lat="29.942938" lon="97.47398">
<time>2016-10-07T19:19:48Z</time></trkpt>
<trkpt lat="29.942786" lon="97.473378">
<time>2016-10-07T19:19:49Z</time></trkpt>
<trkpt lat="29.942695" lon="97.472997">
<time>2016-10-07T19:19:50Z</time></trkpt>
<trkpt lat="29.942563" lon="97.472435">
<time>2016-10-07T19:19:51Z</time></trkpt>
<trkpt lat="29.942523" lon="97.472255">
<time>2016-10-07T19:19:52Z</time></trkpt>
<trkpt lat="29.942492" lon="97.472094">
<time>2016-10-07T19:19:53Z</time></trkpt>
<trkpt lat="29.942462" lon="97.471944">
<time>2016-10-07T19:19:54Z</time></trkpt>
<trkpt lat="29.942422" lon="97.471743">
<time>2016-10-07T19:19:55Z</time></trkpt>
<trkpt lat="29.942361" lon="97.471493">
<time>2016-10-07T19:19:56Z</time></trkpt>
<trkpt lat="29.94232" lon="97.471342">
<time>2016-10-07T19:19:57Z</time></trkpt>
<trkpt lat="29.9423" lon="97.471242">
<time>2016-10-07T19:19:58Z</time></trkpt>
<trkpt lat="29.94228" lon="97.471162">
<time>2016-10-07T19:19:59Z</time></trkpt>
<trkpt lat="29.94227" lon="97.471121">
<time>2016-10-07T19:20:00Z</time></trkpt>
<trkpt lat="29.94226" lon="97.471081">
<time>2016-10-07T19:20:01Z</time></trkpt>
<trkpt lat="29.94225" lon="97.471061">
<time>2016-10-07T19:20:02Z</time></trkpt>
<trkpt lat="29.94224" lon="97.471031">
<time>2016-10-07T19:20:03Z</time></trkpt>
<trkpt lat="29.94223" lon="97.471001">
<time>2016-10-07T19:20:04Z</time></trkpt>
<trkpt lat="29.942199" lon="97.470971">
<time>2016-10-07T19:20:05Z</time></trkpt>
<trkpt lat="29.942189" lon="97.470951">
<time>2016-10-07T19:20:06Z</time></trkpt>
<trkpt lat="29.942139" lon="97.470901">
<time>2016-10-07T19:20:07Z</time></trkpt>
<trkpt lat="29.942089" lon="97.470861">
<time>2016-10-07T19:20:08Z</time></trkpt>
<trkpt lat="29.941959" lon="97.47075">
<time>2016-10-07T19:20:09Z</time></trkpt>
<trkpt lat="29.941859" lon="97.47069">
<time>2016-10-07T19:20:10Z</time></trkpt>
<trkpt lat="29.941698" lon="97.4706">
<time>2016-10-07T19:20:11Z</time></trkpt>
<trkpt lat="29.941538" lon="97.4705">
<time>2016-10-07T19:20:12Z</time></trkpt>
<trkpt lat="29.941408" lon="97.470409">
<time>2016-10-07T19:20:13Z</time></trkpt>
<trkpt lat="29.941268" lon="97.470329">
<time>2016-10-07T19:20:14Z</time></trkpt>
<trkpt lat="29.941158" lon="97.470249">
<time>2016-10-07T19:20:15Z</time></trkpt>
<trkpt lat="29.941117" lon="97.470199">
<time>2016-10-07T19:20:16Z</time></trkpt>
<trkpt lat="29.941177" lon="97.469958">
<time>2016-10-07T19:20:17Z</time></trkpt>
<trkpt lat="29.941256" lon="97.469707">
<time>2016-10-07T19:20:18Z</time></trkpt>
<trkpt lat="29.941365" lon="97.469386">
<time>2016-10-07T19:20:19Z</time></trkpt>
<trkpt lat="29.941663" lon="97.468474">
<time>2016-10-07T19:20:20Z</time></trkpt>
<trkpt lat="29.941841" lon="97.467912">
<time>2016-10-07T19:20:21Z</time></trkpt>
<trkpt lat="29.94203" lon="97.46733">
<time>2016-10-07T19:20:22Z</time></trkpt>
<trkpt lat="29.942179" lon="97.466869">
<time>2016-10-07T19:20:23Z</time></trkpt>
<trkpt lat="29.942357" lon="97.466317">
<time>2016-10-07T19:20:24Z</time></trkpt>
<trkpt lat="29.942506" lon="97.465836">
<time>2016-10-07T19:20:25Z</time></trkpt>
<trkpt lat="29.942685" lon="97.465274">
<time>2016-10-07T19:20:26Z</time></trkpt>
<trkpt lat="29.942814" lon="97.464853">
<time>2016-10-07T19:20:27Z</time></trkpt>
<trkpt lat="29.942913" lon="97.464552">
<time>2016-10-07T19:20:28Z</time></trkpt>
<trkpt lat="29.943012" lon="97.464271">
<time>2016-10-07T19:20:29Z</time></trkpt>
<trkpt lat="29.943121" lon="97.46392">
<time>2016-10-07T19:20:30Z</time></trkpt>
<trkpt lat="29.943201" lon="97.46368">
<time>2016-10-07T19:20:31Z</time></trkpt>
<trkpt lat="29.94328" lon="97.463479">
<time>2016-10-07T19:20:32Z</time></trkpt>
<trkpt lat="29.94338" lon="97.463238">
<time>2016-10-07T19:20:33Z</time></trkpt>
<trkpt lat="29.943449" lon="97.463088">
<time>2016-10-07T19:20:34Z</time></trkpt>
<trkpt lat="29.943529" lon="97.462938">
<time>2016-10-07T19:20:35Z</time></trkpt>
<trkpt lat="29.943618" lon="97.462787">
<time>2016-10-07T19:20:36Z</time></trkpt>
<trkpt lat="29.943708" lon="97.462657">
<time>2016-10-07T19:20:37Z</time></trkpt>
<trkpt lat="29.943758" lon="97.462567">
<time>2016-10-07T19:20:38Z</time></trkpt>
<trkpt lat="29.943878" lon="97.462416">
<time>2016-10-07T19:20:39Z</time></trkpt>
<trkpt lat="29.944047" lon="97.462206">
<time>2016-10-07T19:20:40Z</time></trkpt>
<trkpt lat="29.944236" lon="97.461975">
<time>2016-10-07T19:20:41Z</time></trkpt>
<trkpt lat="29.944386" lon="97.461804">
<time>2016-10-07T19:20:42Z</time></trkpt>
<trkpt lat="29.944556" lon="97.461614">
<time>2016-10-07T19:20:43Z</time></trkpt>
<trkpt lat="29.944715" lon="97.461444">
<time>2016-10-07T19:20:44Z</time></trkpt>
<trkpt lat="29.944815" lon="97.461343">
<time>2016-10-07T19:20:45Z</time></trkpt>
<trkpt lat="29.944915" lon="97.461253">
<time>2016-10-07T19:20:46Z</time></trkpt>
<trkpt lat="29.945144" lon="97.461042">
<time>2016-10-07T19:20:47Z</time></trkpt>
<trkpt lat="29.945344" lon="97.460882">
<time>2016-10-07T19:20:48Z</time></trkpt>
<trkpt lat="29.945474" lon="97.460782">
<time>2016-10-07T19:20:49Z</time></trkpt>
<trkpt lat="29.945623" lon="97.460681">
<time>2016-10-07T19:20:50Z</time></trkpt>
<trkpt lat="29.945933" lon="97.460481">
<time>2016-10-07T19:20:51Z</time></trkpt>
<trkpt lat="29.946212" lon="97.46029">
<time>2016-10-07T19:20:52Z</time></trkpt>
<trkpt lat="29.946572" lon="97.46006">
<time>2016-10-07T19:20:53Z</time></trkpt>
<trkpt lat="29.947121" lon="97.459699">
<time>2016-10-07T19:20:54Z</time></trkpt>
<trkpt lat="29.947351" lon="97.459558">
<time>2016-10-07T19:20:55Z</time></trkpt>
<trkpt lat="29.94759" lon="97.459428">
<time>2016-10-07T19:20:56Z</time></trkpt>
<trkpt lat="29.94781" lon="97.459318">
<time>2016-10-07T19:20:57Z</time></trkpt>
<trkpt lat="29.94808" lon="97.459207">
<time>2016-10-07T19:20:58Z</time></trkpt>
<trkpt lat="29.948369" lon="97.459077">
<time>2016-10-07T19:20:59Z</time></trkpt>
<trkpt lat="29.948689" lon="97.458937">
<time>2016-10-07T19:21:00Z</time></trkpt>
<trkpt lat="29.948939" lon="97.458836">
<time>2016-10-07T19:21:01Z</time></trkpt>
<trkpt lat="29.949169" lon="97.458736">
<time>2016-10-07T19:21:02Z</time></trkpt>
<trkpt lat="29.949368" lon="97.458656">
<time>2016-10-07T19:21:03Z</time></trkpt>
<trkpt lat="29.949538" lon="97.458596">
<time>2016-10-07T19:21:04Z</time></trkpt>
<trkpt lat="29.949728" lon="97.458526">
<time>2016-10-07T19:21:05Z</time></trkpt>
<trkpt lat="29.949858" lon="97.458486">
<time>2016-10-07T19:21:06Z</time></trkpt>
<trkpt lat="29.949978" lon="97.458465">
<time>2016-10-07T19:21:07Z</time></trkpt>
<trkpt lat="29.950128" lon="97.458445">
<time>2016-10-07T19:21:08Z</time></trkpt>
<trkpt lat="29.950238" lon="97.458445">
<time>2016-10-07T19:21:09Z</time></trkpt>
<trkpt lat="29.950358" lon="97.458445">
<time>2016-10-07T19:21:10Z</time></trkpt>
<trkpt lat="29.950568" lon="97.458465">
<time>2016-10-07T19:21:11Z</time></trkpt>
<trkpt lat="29.950708" lon="97.458496">
<time>2016-10-07T19:21:12Z</time></trkpt>
<trkpt lat="29.950898" lon="97.458526">
<time>2016-10-07T19:21:13Z</time></trkpt>
<trkpt lat="29.951088" lon="97.458566">
<time>2016-10-07T19:21:14Z</time></trkpt>
<trkpt lat="29.951238" lon="97.458596">
<time>2016-10-07T19:21:15Z</time></trkpt>
<trkpt lat="29.951709" lon="97.458676">
<time>2016-10-07T19:21:16Z</time></trkpt>
<trkpt lat="29.952099" lon="97.458756">
<time>2016-10-07T19:21:17Z</time></trkpt>
<trkpt lat="29.952459" lon="97.458826">
<time>2016-10-07T19:21:18Z</time></trkpt>
<trkpt lat="29.952849" lon="97.458907">
<time>2016-10-07T19:21:19Z</time></trkpt>
<trkpt lat="29.953199" lon="97.458977">
<time>2016-10-07T19:21:20Z</time></trkpt>
<trkpt lat="29.953499" lon="97.459027">
<time>2016-10-07T19:21:21Z</time></trkpt>
<trkpt lat="29.953819" lon="97.459087">
<time>2016-10-07T19:21:22Z</time></trkpt>
<trkpt lat="29.95402" lon="97.459127">
<time>2016-10-07T19:21:23Z</time></trkpt>
<trkpt lat="29.95423" lon="97.459167">
<time>2016-10-07T19:21:24Z</time></trkpt>
<trkpt lat="29.95438" lon="97.459187">
<time>2016-10-07T19:21:25Z</time></trkpt>
<trkpt lat="29.95454" lon="97.459197">
<time>2016-10-07T19:21:26Z</time></trkpt>
<trkpt lat="29.95469" lon="97.459197">
<time>2016-10-07T19:21:27Z</time></trkpt>
<trkpt lat="29.95484" lon="97.459197">
<time>2016-10-07T19:21:28Z</time></trkpt>
<trkpt lat="29.95512" lon="97.459187">
<time>2016-10-07T19:21:29Z</time></trkpt>
<trkpt lat="29.95539" lon="97.459167">
<time>2016-10-07T19:21:30Z</time></trkpt>
<trkpt lat="29.95557" lon="97.459157">
<time>2016-10-07T19:21:31Z</time></trkpt>
<trkpt lat="29.95585" lon="97.459137">
<time>2016-10-07T19:21:32Z</time></trkpt>
<trkpt lat="29.95609" lon="97.459117">
<time>2016-10-07T19:21:33Z</time></trkpt>
<trkpt lat="29.95636" lon="97.459107">
<time>2016-10-07T19:21:34Z</time></trkpt>
<trkpt lat="29.956669" lon="97.459077">
<time>2016-10-07T19:21:35Z</time></trkpt>
<trkpt lat="29.957059" lon="97.459047">
<time>2016-10-07T19:21:36Z</time></trkpt>
<trkpt lat="29.957429" lon="97.459017">
<time>2016-10-07T19:21:37Z</time></trkpt>
<trkpt lat="29.957729" lon="97.458997">
<time>2016-10-07T19:21:38Z</time></trkpt>
<trkpt lat="29.958019" lon="97.458987">
<time>2016-10-07T19:21:39Z</time></trkpt>
<trkpt lat="29.958209" lon="97.458967">
<time>2016-10-07T19:21:40Z</time></trkpt>
<trkpt lat="29.958369" lon="97.458957">
<time>2016-10-07T19:21:41Z</time></trkpt>
<trkpt lat="29.958539" lon="97.458947">
<time>2016-10-07T19:21:42Z</time></trkpt>
<trkpt lat="29.958649" lon="97.458926">
<time>2016-10-07T19:21:43Z</time></trkpt>
<trkpt lat="29.958749" lon="97.458916">
<time>2016-10-07T19:21:44Z</time></trkpt>
<trkpt lat="29.958929" lon="97.458876">
<time>2016-10-07T19:21:45Z</time></trkpt>
<trkpt lat="29.959079" lon="97.458836">
<time>2016-10-07T19:21:46Z</time></trkpt>
<trkpt lat="29.959199" lon="97.458796">
<time>2016-10-07T19:21:47Z</time></trkpt>
<trkpt lat="29.959319" lon="97.458746">
<time>2016-10-07T19:21:48Z</time></trkpt>
<trkpt lat="29.959538" lon="97.458646">
<time>2016-10-07T19:21:49Z</time></trkpt>
<trkpt lat="29.959808" lon="97.458525">
<time>2016-10-07T19:21:50Z</time></trkpt>
<trkpt lat="29.960108" lon="97.458395">
<time>2016-10-07T19:21:51Z</time></trkpt>
<trkpt lat="29.960388" lon="97.458265">
<time>2016-10-07T19:21:52Z</time></trkpt>
<trkpt lat="29.960617" lon="97.458164">
<time>2016-10-07T19:21:53Z</time></trkpt>
<trkpt lat="29.961177" lon="97.457914">
<time>2016-10-07T19:21:54Z</time></trkpt>
<trkpt lat="29.961476" lon="97.457773">
<time>2016-10-07T19:21:55Z</time></trkpt>
<trkpt lat="29.961676" lon="97.457683">
<time>2016-10-07T19:21:56Z</time></trkpt>
<trkpt lat="29.961876" lon="97.457593">
<time>2016-10-07T19:21:57Z</time></trkpt>
<trkpt lat="29.962076" lon="97.457503">
<time>2016-10-07T19:21:58Z</time></trkpt>
<trkpt lat="29.962236" lon="97.457423">
<time>2016-10-07T19:21:59Z</time></trkpt>
<trkpt lat="29.962415" lon="97.457332">
<time>2016-10-07T19:22:00Z</time></trkpt>
<trkpt lat="29.962605" lon="97.457242">
<time>2016-10-07T19:22:01Z</time></trkpt>
<trkpt lat="29.962745" lon="97.457162">
<time>2016-10-07T19:22:02Z</time></trkpt>
<trkpt lat="29.962925" lon="97.457062">
<time>2016-10-07T19:22:03Z</time></trkpt>
<trkpt lat="29.963055" lon="97.456971">
<time>2016-10-07T19:22:04Z</time></trkpt>
<trkpt lat="29.963194" lon="97.456881">
<time>2016-10-07T19:22:05Z</time></trkpt>
<trkpt lat="29.963284" lon="97.456811">
<time>2016-10-07T19:22:06Z</time></trkpt>
<trkpt lat="29.963384" lon="97.456741">
<time>2016-10-07T19:22:07Z</time></trkpt>
<trkpt lat="29.963554" lon="97.45659">
<time>2016-10-07T19:22:08Z</time></trkpt>
<trkpt lat="29.963733" lon="97.45643">
<time>2016-10-07T19:22:09Z</time></trkpt>
<trkpt lat="29.963953" lon="97.456219">
<time>2016-10-07T19:22:10Z</time></trkpt>
<trkpt lat="29.964093" lon="97.456079">
<time>2016-10-07T19:22:11Z</time></trkpt>
<trkpt lat="29.964192" lon="97.455969">
<time>2016-10-07T19:22:12Z</time></trkpt>
<trkpt lat="29.964312" lon="97.455838">
<time>2016-10-07T19:22:13Z</time></trkpt>
<trkpt lat="29.964412" lon="97.455708">
<time>2016-10-07T19:22:14Z</time></trkpt>
<trkpt lat="29.964521" lon="97.455578">
<time>2016-10-07T19:22:15Z</time></trkpt>
<trkpt lat="29.964731" lon="97.455307">
<time>2016-10-07T19:22:16Z</time></trkpt>
<trkpt lat="29.96488" lon="97.455127">
<time>2016-10-07T19:22:17Z</time></trkpt>
<trkpt lat="29.96501" lon="97.454986">
<time>2016-10-07T19:22:18Z</time></trkpt>
<trkpt lat="29.96512" lon="97.454876">
<time>2016-10-07T19:22:19Z</time></trkpt>
<trkpt lat="29.96527" lon="97.454756">
<time>2016-10-07T19:22:20Z</time></trkpt>
<trkpt lat="29.965379" lon="97.454686">
<time>2016-10-07T19:22:21Z</time></trkpt>
<trkpt lat="29.965499" lon="97.454605">
<time>2016-10-07T19:22:22Z</time></trkpt>
<trkpt lat="29.965769" lon="97.454455">
<time>2016-10-07T19:22:23Z</time></trkpt>
<trkpt lat="29.966029" lon="97.454315">
<time>2016-10-07T19:22:24Z</time></trkpt>
<trkpt lat="29.966318" lon="97.454154">
<time>2016-10-07T19:22:25Z</time></trkpt>
<trkpt lat="29.966528" lon="97.454044">
<time>2016-10-07T19:22:26Z</time></trkpt>
<trkpt lat="29.966808" lon="97.453904">
<time>2016-10-07T19:22:27Z</time></trkpt>
<trkpt lat="29.967077" lon="97.453783">
<time>2016-10-07T19:22:28Z</time></trkpt>
<trkpt lat="29.967347" lon="97.453673">
<time>2016-10-07T19:22:29Z</time></trkpt>
<trkpt lat="29.967577" lon="97.453593">
<time>2016-10-07T19:22:30Z</time></trkpt>
<trkpt lat="29.967837" lon="97.453513">
<time>2016-10-07T19:22:31Z</time></trkpt>
<trkpt lat="29.968037" lon="97.453462">
<time>2016-10-07T19:22:32Z</time></trkpt>
<trkpt lat="29.968277" lon="97.453402">
<time>2016-10-07T19:22:33Z</time></trkpt>
<trkpt lat="29.968546" lon="97.453342">
<time>2016-10-07T19:22:34Z</time></trkpt>
<trkpt lat="29.968756" lon="97.453292">
<time>2016-10-07T19:22:35Z</time></trkpt>
<trkpt lat="29.968986" lon="97.453232">
<time>2016-10-07T19:22:36Z</time></trkpt>
<trkpt lat="29.969236" lon="97.453172">
<time>2016-10-07T19:22:37Z</time></trkpt>
<trkpt lat="29.969466" lon="97.453122">
<time>2016-10-07T19:22:38Z</time></trkpt>
<trkpt lat="29.969676" lon="97.453082">
<time>2016-10-07T19:22:39Z</time></trkpt>
<trkpt lat="29.969816" lon="97.453061">
<time>2016-10-07T19:22:40Z</time></trkpt>
<trkpt lat="29.969936" lon="97.453051">
<time>2016-10-07T19:22:41Z</time></trkpt>
<trkpt lat="29.970116" lon="97.453041">
<time>2016-10-07T19:22:42Z</time></trkpt>
<trkpt lat="29.970286" lon="97.453041">
<time>2016-10-07T19:22:43Z</time></trkpt>
<trkpt lat="29.970516" lon="97.453061">
<time>2016-10-07T19:22:44Z</time></trkpt>
<trkpt lat="29.970666" lon="97.453081">
<time>2016-10-07T19:22:45Z</time></trkpt>
<trkpt lat="29.970806" lon="97.453112">
<time>2016-10-07T19:22:46Z</time></trkpt>
<trkpt lat="29.971036" lon="97.453172">
<time>2016-10-07T19:22:47Z</time></trkpt>
<trkpt lat="29.971316" lon="97.453262">
<time>2016-10-07T19:22:48Z</time></trkpt>
<trkpt lat="29.971597" lon="97.453362">
<time>2016-10-07T19:22:49Z</time></trkpt>
<trkpt lat="29.971787" lon="97.453442">
<time>2016-10-07T19:22:50Z</time></trkpt>
<trkpt lat="29.971977" lon="97.453523">
<time>2016-10-07T19:22:51Z</time></trkpt>
<trkpt lat="29.972177" lon="97.453623">
<time>2016-10-07T19:22:52Z</time></trkpt>
<trkpt lat="29.972327" lon="97.453713">
<time>2016-10-07T19:22:53Z</time></trkpt>
<trkpt lat="29.972528" lon="97.453863">
<time>2016-10-07T19:22:54Z</time></trkpt>
<trkpt lat="29.972718" lon="97.454024">
<time>2016-10-07T19:22:55Z</time></trkpt>
<trkpt lat="29.972828" lon="97.454124">
<time>2016-10-07T19:22:56Z</time></trkpt>
<trkpt lat="29.973009" lon="97.454304">
<time>2016-10-07T19:22:57Z</time></trkpt>
<trkpt lat="29.973119" lon="97.454425">
<time>2016-10-07T19:22:58Z</time></trkpt>
<trkpt lat="29.97341" lon="97.454725">
<time>2016-10-07T19:22:59Z</time></trkpt>
<trkpt lat="29.97368" lon="97.455006">
<time>2016-10-07T19:23:00Z</time></trkpt>
<trkpt lat="29.973931" lon="97.455267">
<time>2016-10-07T19:23:01Z</time></trkpt>
<trkpt lat="29.974191" lon="97.455537">
<time>2016-10-07T19:23:02Z</time></trkpt>
<trkpt lat="29.974522" lon="97.455868">
<time>2016-10-07T19:23:03Z</time></trkpt>
<trkpt lat="29.974763" lon="97.456129">
<time>2016-10-07T19:23:04Z</time></trkpt>
<trkpt lat="29.975003" lon="97.45638">
<time>2016-10-07T19:23:05Z</time></trkpt>
<trkpt lat="29.975224" lon="97.4566">
<time>2016-10-07T19:23:06Z</time></trkpt>
<trkpt lat="29.975424" lon="97.456781">
<time>2016-10-07T19:23:07Z</time></trkpt>
<trkpt lat="29.975584" lon="97.456911">
<time>2016-10-07T19:23:08Z</time></trkpt>
<trkpt lat="29.975735" lon="97.457031">
<time>2016-10-07T19:23:09Z</time></trkpt>
<trkpt lat="29.975865" lon="97.457121">
<time>2016-10-07T19:23:10Z</time></trkpt>
<trkpt lat="29.976195" lon="97.457342">
<time>2016-10-07T19:23:11Z</time></trkpt>
<trkpt lat="29.976486" lon="97.457533">
<time>2016-10-07T19:23:12Z</time></trkpt>
<trkpt lat="29.976686" lon="97.457663">
<time>2016-10-07T19:23:13Z</time></trkpt>
<trkpt lat="29.976977" lon="97.457853">
<time>2016-10-07T19:23:14Z</time></trkpt>
<trkpt lat="29.977327" lon="97.458084">
<time>2016-10-07T19:23:15Z</time></trkpt>
<trkpt lat="29.977618" lon="97.458274">
<time>2016-10-07T19:23:16Z</time></trkpt>
<trkpt lat="29.977938" lon="97.458495">
<time>2016-10-07T19:23:17Z</time></trkpt>
<trkpt lat="29.978209" lon="97.458665">
<time>2016-10-07T19:23:18Z</time></trkpt>
<trkpt lat="29.978439" lon="97.458816">
<time>2016-10-07T19:23:19Z</time></trkpt>
<trkpt lat="29.978749" lon="97.459026">
<time>2016-10-07T19:23:20Z</time></trkpt>
<trkpt lat="29.97913" lon="97.459277">
<time>2016-10-07T19:23:21Z</time></trkpt>
<trkpt lat="29.979571" lon="97.459558">
<time>2016-10-07T19:23:22Z</time></trkpt>
<trkpt lat="29.979861" lon="97.459758">
<time>2016-10-07T19:23:23Z</time></trkpt>
<trkpt lat="29.980222" lon="97.459999">
<time>2016-10-07T19:23:24Z</time></trkpt>
<trkpt lat="29.980522" lon="97.460189">
<time>2016-10-07T19:23:25Z</time></trkpt>
<trkpt lat="29.980883" lon="97.46042">
<time>2016-10-07T19:23:26Z</time></trkpt>
<trkpt lat="29.981153" lon="97.460601">
<time>2016-10-07T19:23:27Z</time></trkpt>
<trkpt lat="29.981544" lon="97.460861">
<time>2016-10-07T19:23:28Z</time></trkpt>
<trkpt lat="29.981844" lon="97.461062">
<time>2016-10-07T19:23:29Z</time></trkpt>
<trkpt lat="29.982105" lon="97.461222">
<time>2016-10-07T19:23:30Z</time></trkpt>
<trkpt lat="29.982385" lon="97.461413">
<time>2016-10-07T19:23:31Z</time></trkpt>
<trkpt lat="29.982646" lon="97.461583">
<time>2016-10-07T19:23:32Z</time></trkpt>
<trkpt lat="29.982816" lon="97.461693">
<time>2016-10-07T19:23:33Z</time></trkpt>
<trkpt lat="29.982916" lon="97.461754">
<time>2016-10-07T19:23:34Z</time></trkpt>
<trkpt lat="29.983026" lon="97.461814">
<time>2016-10-07T19:23:35Z</time></trkpt>
<trkpt lat="29.983196" lon="97.461894">
<time>2016-10-07T19:23:36Z</time></trkpt>
<trkpt lat="29.983326" lon="97.461934">
<time>2016-10-07T19:23:37Z</time></trkpt>
<trkpt lat="29.983456" lon="97.461974">
<time>2016-10-07T19:23:38Z</time></trkpt>
<trkpt lat="29.983677" lon="97.462034">
<time>2016-10-07T19:23:39Z</time></trkpt>
<trkpt lat="29.983937" lon="97.462085">
<time>2016-10-07T19:23:40Z</time></trkpt>
<trkpt lat="29.984247" lon="97.462165">
<time>2016-10-07T19:23:41Z</time></trkpt>
<trkpt lat="29.984537" lon="97.462225">
<time>2016-10-07T19:23:42Z</time></trkpt>
<trkpt lat="29.984767" lon="97.462275">
<time>2016-10-07T19:23:43Z</time></trkpt>
<trkpt lat="29.985017" lon="97.462325">
<time>2016-10-07T19:23:44Z</time></trkpt>
<trkpt lat="29.985257" lon="97.462375">
<time>2016-10-07T19:23:45Z</time></trkpt>
<trkpt lat="29.985468" lon="97.462435">
<time>2016-10-07T19:23:46Z</time></trkpt>
<trkpt lat="29.985698" lon="97.462476">
<time>2016-10-07T19:23:47Z</time></trkpt>
<trkpt lat="29.985908" lon="97.462516">
<time>2016-10-07T19:23:48Z</time></trkpt>
<trkpt lat="29.986128" lon="97.462556">
<time>2016-10-07T19:23:49Z</time></trkpt>
<trkpt lat="29.986248" lon="97.462576">
<time>2016-10-07T19:23:50Z</time></trkpt>
<trkpt lat="29.986358" lon="97.462596">
<time>2016-10-07T19:23:51Z</time></trkpt>
<trkpt lat="29.986458" lon="97.462606">
<time>2016-10-07T19:23:52Z</time></trkpt>
<trkpt lat="29.986568" lon="97.462616">
<time>2016-10-07T19:23:53Z</time></trkpt>
<trkpt lat="29.986668" lon="97.462616">
<time>2016-10-07T19:23:54Z</time></trkpt>
<trkpt lat="29.986778" lon="97.462606">
<time>2016-10-07T19:23:55Z</time></trkpt>
<trkpt lat="29.986918" lon="97.462596">
<time>2016-10-07T19:23:56Z</time></trkpt>
<trkpt lat="29.987058" lon="97.462576">
<time>2016-10-07T19:23:57Z</time></trkpt>
<trkpt lat="29.987368" lon="97.462516">
<time>2016-10-07T19:23:58Z</time></trkpt>
<trkpt lat="29.987648" lon="97.462466">
<time>2016-10-07T19:23:59Z</time></trkpt>
<trkpt lat="29.988008" lon="97.462405">
<time>2016-10-07T19:24:00Z</time></trkpt>
<trkpt lat="29.988287" lon="97.462355">
<time>2016-10-07T19:24:01Z</time></trkpt>
<trkpt lat="29.988567" lon="97.462305">
<time>2016-10-07T19:24:02Z</time></trkpt>
<trkpt lat="29.988777" lon="97.462265">
<time>2016-10-07T19:24:03Z</time></trkpt>
<trkpt lat="29.988947" lon="97.462225">
<time>2016-10-07T19:24:04Z</time></trkpt>
<trkpt lat="29.989117" lon="97.462195">
<time>2016-10-07T19:24:05Z</time></trkpt>
<trkpt lat="29.989257" lon="97.462155">
<time>2016-10-07T19:24:06Z</time></trkpt>
<trkpt lat="29.989377" lon="97.462104">
<time>2016-10-07T19:24:07Z</time></trkpt>
<trkpt lat="29.989517" lon="97.462044">
<time>2016-10-07T19:24:08Z</time></trkpt>
<trkpt lat="29.989647" lon="97.461984">
<time>2016-10-07T19:24:09Z</time></trkpt>
<trkpt lat="29.989886" lon="97.461844">
<time>2016-10-07T19:24:10Z</time></trkpt>
<trkpt lat="29.990186" lon="97.461653">
<time>2016-10-07T19:24:11Z</time></trkpt>
<trkpt lat="29.990525" lon="97.461443">
<time>2016-10-07T19:24:12Z</time></trkpt>
<trkpt lat="29.990805" lon="97.461262">
<time>2016-10-07T19:24:13Z</time></trkpt>
<trkpt lat="29.991074" lon="97.461092">
<time>2016-10-07T19:24:14Z</time></trkpt>
<trkpt lat="29.991374" lon="97.460911">
<time>2016-10-07T19:24:15Z</time></trkpt>
<trkpt lat="29.991693" lon="97.460711">
<time>2016-10-07T19:24:16Z</time></trkpt>
<trkpt lat="29.991963" lon="97.46054">
<time>2016-10-07T19:24:17Z</time></trkpt>
<trkpt lat="29.992163" lon="97.46041">
<time>2016-10-07T19:24:18Z</time></trkpt>
<trkpt lat="29.992352" lon="97.460289">
<time>2016-10-07T19:24:19Z</time></trkpt>
<trkpt lat="29.992472" lon="97.460199">
<time>2016-10-07T19:24:20Z</time></trkpt>
<trkpt lat="29.992612" lon="97.460089">
<time>2016-10-07T19:24:21Z</time></trkpt>
<trkpt lat="29.992792" lon="97.459949">
<time>2016-10-07T19:24:22Z</time></trkpt>
<trkpt lat="29.992871" lon="97.459878">
<time>2016-10-07T19:24:23Z</time></trkpt>
<trkpt lat="29.992981" lon="97.459768">
<time>2016-10-07T19:24:24Z</time></trkpt>
<trkpt lat="29.993091" lon="97.459658">
<time>2016-10-07T19:24:25Z</time></trkpt>
<trkpt lat="29.99338" lon="97.459367">
<time>2016-10-07T19:24:26Z</time></trkpt>
<trkpt lat="29.99356" lon="97.459187">
<time>2016-10-07T19:24:27Z</time></trkpt>
<trkpt lat="29.993699" lon="97.459026">
<time>2016-10-07T19:24:28Z</time></trkpt>
<trkpt lat="29.993829" lon="97.458856">
<time>2016-10-07T19:24:29Z</time></trkpt>
<trkpt lat="29.993909" lon="97.458745">
<time>2016-10-07T19:24:30Z</time></trkpt>
<trkpt lat="29.993999" lon="97.458625">
<time>2016-10-07T19:24:31Z</time></trkpt>
<trkpt lat="29.994128" lon="97.458425">
<time>2016-10-07T19:24:32Z</time></trkpt>
<trkpt lat="29.994317" lon="97.458124">
<time>2016-10-07T19:24:33Z</time></trkpt>
<trkpt lat="29.994566" lon="97.457713">
<time>2016-10-07T19:24:34Z</time></trkpt>
<trkpt lat="29.994776" lon="97.457372">
<time>2016-10-07T19:24:35Z</time></trkpt>
<trkpt lat="29.995035" lon="97.456941">
<time>2016-10-07T19:24:36Z</time></trkpt>
<trkpt lat="29.995294" lon="97.45652">
<time>2016-10-07T19:24:37Z</time></trkpt>
<trkpt lat="29.995493" lon="97.456209">
<time>2016-10-07T19:24:38Z</time></trkpt>
<trkpt lat="29.995682" lon="97.455888">
<time>2016-10-07T19:24:39Z</time></trkpt>
<trkpt lat="29.995852" lon="97.455617">
<time>2016-10-07T19:24:40Z</time></trkpt>
<trkpt lat="29.996091" lon="97.455226">
<time>2016-10-07T19:24:41Z</time></trkpt>
<trkpt lat="29.99632" lon="97.454845">
<time>2016-10-07T19:24:42Z</time></trkpt>
<trkpt lat="29.996559" lon="97.454454">
<time>2016-10-07T19:24:43Z</time></trkpt>
<trkpt lat="29.996699" lon="97.454234">
<time>2016-10-07T19:24:44Z</time></trkpt>
<trkpt lat="29.996788" lon="97.454073">
<time>2016-10-07T19:24:45Z</time></trkpt>
<trkpt lat="29.996868" lon="97.453933">
<time>2016-10-07T19:24:46Z</time></trkpt>
<trkpt lat="29.996938" lon="97.453773">
<time>2016-10-07T19:24:47Z</time></trkpt>
<trkpt lat="29.997007" lon="97.453582">
<time>2016-10-07T19:24:48Z</time></trkpt>
<trkpt lat="29.997077" lon="97.453382">
<time>2016-10-07T19:24:49Z</time></trkpt>
<trkpt lat="29.997136" lon="97.453171">
<time>2016-10-07T19:24:50Z</time></trkpt>
<trkpt lat="29.997206" lon="97.452921">
<time>2016-10-07T19:24:51Z</time></trkpt>
<trkpt lat="29.997265" lon="97.45272">
<time>2016-10-07T19:24:52Z</time></trkpt>
<trkpt lat="29.997335" lon="97.45255">
<time>2016-10-07T19:24:53Z</time></trkpt>
<trkpt lat="29.997415" lon="97.452389">
<time>2016-10-07T19:24:54Z</time></trkpt>
<trkpt lat="29.997534" lon="97.452219">
<time>2016-10-07T19:24:55Z</time></trkpt>
<trkpt lat="29.997584" lon="97.452149">
<time>2016-10-07T19:24:56Z</time></trkpt>
<trkpt lat="29.997654" lon="97.452079">
<time>2016-10-07T19:24:57Z</time></trkpt>
<trkpt lat="29.997774" lon="97.451958">
<time>2016-10-07T19:24:58Z</time></trkpt>
<trkpt lat="29.997893" lon="97.451838">
<time>2016-10-07T19:24:59Z</time></trkpt>
<trkpt lat="29.998003" lon="97.451728">
<time>2016-10-07T19:25:00Z</time></trkpt>
<trkpt lat="29.998093" lon="97.451648">
<time>2016-10-07T19:25:01Z</time></trkpt>
<trkpt lat="29.998183" lon="97.451577">
<time>2016-10-07T19:25:02Z</time></trkpt>
<trkpt lat="29.998233" lon="97.451527">
<time>2016-10-07T19:25:03Z</time></trkpt>
<trkpt lat="29.998313" lon="97.451477">
<time>2016-10-07T19:25:04Z</time></trkpt>
<trkpt lat="29.998383" lon="97.451427">
<time>2016-10-07T19:25:05Z</time></trkpt>
<trkpt lat="29.998442" lon="97.451397">
<time>2016-10-07T19:25:06Z</time></trkpt>
<trkpt lat="29.998602" lon="97.451307">
<time>2016-10-07T19:25:07Z</time></trkpt>
<trkpt lat="29.998752" lon="97.451237">
<time>2016-10-07T19:25:08Z</time></trkpt>
<trkpt lat="29.998912" lon="97.451166">
<time>2016-10-07T19:25:09Z</time></trkpt>
<trkpt lat="29.999312" lon="97.450996">
<time>2016-10-07T19:25:10Z</time></trkpt>
<trkpt lat="29.999611" lon="97.450856">
<time>2016-10-07T19:25:11Z</time></trkpt>
<trkpt lat="30.000041" lon="97.450675">
<time>2016-10-07T19:25:12Z</time></trkpt>
<trkpt lat="30.000371" lon="97.450525">
<time>2016-10-07T19:25:13Z</time></trkpt>
<trkpt lat="30.00062" lon="97.450415">
<time>2016-10-07T19:25:14Z</time></trkpt>
<trkpt lat="30.00086" lon="97.450314">
<time>2016-10-07T19:25:15Z</time></trkpt>
<trkpt lat="30.00129" lon="97.450114">
<time>2016-10-07T19:25:16Z</time></trkpt>
<trkpt lat="30.00167" lon="97.449954">
<time>2016-10-07T19:25:17Z</time></trkpt>
<trkpt lat="30.002089" lon="97.449773">
<time>2016-10-07T19:25:18Z</time></trkpt>
<trkpt lat="30.002589" lon="97.449553">
<time>2016-10-07T19:25:19Z</time></trkpt>
<trkpt lat="30.002968" lon="97.449382">
<time>2016-10-07T19:25:20Z</time></trkpt>
<trkpt lat="30.003388" lon="97.449192">
<time>2016-10-07T19:25:21Z</time></trkpt>
<trkpt lat="30.003648" lon="97.449082">
<time>2016-10-07T19:25:22Z</time></trkpt>
<trkpt lat="30.003788" lon="97.449011">
<time>2016-10-07T19:25:23Z</time></trkpt>
<trkpt lat="30.003908" lon="97.448971">
<time>2016-10-07T19:25:24Z</time></trkpt>
<trkpt lat="30.004277" lon="97.448801">
<time>2016-10-07T19:25:25Z</time></trkpt>
<trkpt lat="30.004567" lon="97.448671">
<time>2016-10-07T19:25:26Z</time></trkpt>
<trkpt lat="30.005096" lon="97.44843">
<time>2016-10-07T19:25:27Z</time></trkpt>
<trkpt lat="30.005666" lon="97.44819">
<time>2016-10-07T19:25:28Z</time></trkpt>
<trkpt lat="30.006445" lon="97.447839">
<time>2016-10-07T19:25:29Z</time></trkpt>
<trkpt lat="30.006945" lon="97.447618">
<time>2016-10-07T19:25:30Z</time></trkpt>
<trkpt lat="30.007374" lon="97.447428">
<time>2016-10-07T19:25:31Z</time></trkpt>
<trkpt lat="30.007904" lon="97.447177">
<time>2016-10-07T19:25:32Z</time></trkpt>
<trkpt lat="30.008374" lon="97.446947">
<time>2016-10-07T19:25:33Z</time></trkpt>
<trkpt lat="30.009073" lon="97.446576">
<time>2016-10-07T19:25:34Z</time></trkpt>
<trkpt lat="30.009223" lon="97.446506">
<time>2016-10-07T19:25:35Z</time></trkpt>
<trkpt lat="30.009373" lon="97.446446">
<time>2016-10-07T19:25:36Z</time></trkpt>
<trkpt lat="30.009572" lon="97.446386">
<time>2016-10-07T19:25:37Z</time></trkpt>
<trkpt lat="30.009742" lon="97.446355">
<time>2016-10-07T19:25:38Z</time></trkpt>
<trkpt lat="30.009902" lon="97.446355">
<time>2016-10-07T19:25:39Z</time></trkpt>
<trkpt lat="30.010052" lon="97.446375">
<time>2016-10-07T19:25:40Z</time></trkpt>
<trkpt lat="30.010343" lon="97.446456">
<time>2016-10-07T19:25:41Z</time></trkpt>
<trkpt lat="30.010543" lon="97.446556">
<time>2016-10-07T19:25:42Z</time></trkpt>
<trkpt lat="30.010863" lon="97.446716">
<time>2016-10-07T19:25:43Z</time></trkpt>
<trkpt lat="30.011033" lon="97.446816">
<time>2016-10-07T19:25:44Z</time></trkpt>
<trkpt lat="30.011204" lon="97.446927">
<time>2016-10-07T19:25:45Z</time></trkpt>
<trkpt lat="30.011434" lon="97.447107">
<time>2016-10-07T19:25:46Z</time></trkpt>
<trkpt lat="30.011614" lon="97.447287">
<time>2016-10-07T19:25:47Z</time></trkpt>
<trkpt lat="30.011785" lon="97.447518">
<time>2016-10-07T19:25:48Z</time></trkpt>
<trkpt lat="30.011945" lon="97.447748">
<time>2016-10-07T19:25:49Z</time></trkpt>
<trkpt lat="30.012336" lon="97.44833">
<time>2016-10-07T19:25:50Z</time></trkpt>
<trkpt lat="30.012788" lon="97.449011">
<time>2016-10-07T19:25:51Z</time></trkpt>
<trkpt lat="30.013079" lon="97.449442">
<time>2016-10-07T19:25:52Z</time></trkpt>
<trkpt lat="30.013369" lon="97.449823">
<time>2016-10-07T19:25:53Z</time></trkpt>
<trkpt lat="30.01361" lon="97.450094">
<time>2016-10-07T19:25:54Z</time></trkpt>
<trkpt lat="30.013911" lon="97.450414">
<time>2016-10-07T19:25:55Z</time></trkpt>
<trkpt lat="30.014412" lon="97.450875">
<time>2016-10-07T19:25:56Z</time></trkpt>
<trkpt lat="30.015123" lon="97.451547">
<time>2016-10-07T19:25:57Z</time></trkpt>
<trkpt lat="30.015393" lon="97.451788">
<time>2016-10-07T19:25:58Z</time></trkpt>
<trkpt lat="30.015774" lon="97.452118">
<time>2016-10-07T19:25:59Z</time></trkpt>
<trkpt lat="30.016045" lon="97.452349">
<time>2016-10-07T19:26:00Z</time></trkpt>
<trkpt lat="30.016255" lon="97.452489">
<time>2016-10-07T19:26:01Z</time></trkpt>
<trkpt lat="30.016395" lon="97.452559">
<time>2016-10-07T19:26:02Z</time></trkpt>
<trkpt lat="30.016555" lon="97.45262">
<time>2016-10-07T19:26:03Z</time></trkpt>
<trkpt lat="30.016715" lon="97.45265">
<time>2016-10-07T19:26:04Z</time></trkpt>
<trkpt lat="30.016845" lon="97.45266">
<time>2016-10-07T19:26:05Z</time></trkpt>
<trkpt lat="30.017045" lon="97.45266">
<time>2016-10-07T19:26:06Z</time></trkpt>
<trkpt lat="30.017655" lon="97.45263">
<time>2016-10-07T19:26:07Z</time></trkpt>
<trkpt lat="30.017935" lon="97.452619">
<time>2016-10-07T19:26:08Z</time></trkpt>
<trkpt lat="30.018155" lon="97.452609">
<time>2016-10-07T19:26:09Z</time></trkpt>
<trkpt lat="30.018465" lon="97.452599">
<time>2016-10-07T19:26:10Z</time></trkpt>
<trkpt lat="30.018635" lon="97.452599">
<time>2016-10-07T19:26:11Z</time></trkpt>
<trkpt lat="30.018795" lon="97.452609">
<time>2016-10-07T19:26:12Z</time></trkpt>
<trkpt lat="30.018955" lon="97.45264">
<time>2016-10-07T19:26:13Z</time></trkpt>
<trkpt lat="30.019155" lon="97.45269">
<time>2016-10-07T19:26:14Z</time></trkpt>
<trkpt lat="30.019306" lon="97.45274">
<time>2016-10-07T19:26:15Z</time></trkpt>
<trkpt lat="30.019426" lon="97.45278">
<time>2016-10-07T19:26:16Z</time></trkpt>
<trkpt lat="30.019576" lon="97.45284">
<time>2016-10-07T19:26:17Z</time></trkpt>
<trkpt lat="30.019876" lon="97.45296">
<time>2016-10-07T19:26:18Z</time></trkpt>
<trkpt lat="30.020136" lon="97.45304">
<time>2016-10-07T19:26:19Z</time></trkpt>
<trkpt lat="30.020286" lon="97.453091">
<time>2016-10-07T19:26:20Z</time></trkpt>
<trkpt lat="30.020436" lon="97.453121">
<time>2016-10-07T19:26:21Z</time></trkpt>
<trkpt lat="30.020556" lon="97.453151">
<time>2016-10-07T19:26:22Z</time></trkpt>
<trkpt lat="30.020687" lon="97.453171">
<time>2016-10-07T19:26:23Z</time></trkpt>
<trkpt lat="30.020807" lon="97.453181">
<time>2016-10-07T19:26:24Z</time></trkpt>
<trkpt lat="30.020937" lon="97.453191">
<time>2016-10-07T19:26:25Z</time></trkpt>
<trkpt lat="30.021057" lon="97.453191">
<time>2016-10-07T19:26:26Z</time></trkpt>
<trkpt lat="30.021247" lon="97.453181">
<time>2016-10-07T19:26:27Z</time></trkpt>
<trkpt lat="30.021436" lon="97.453161">
<time>2016-10-07T19:26:28Z</time></trkpt>
<trkpt lat="30.021666" lon="97.453121">
<time>2016-10-07T19:26:29Z</time></trkpt>
<trkpt lat="30.021826" lon="97.453101">
<time>2016-10-07T19:26:30Z</time></trkpt>
<trkpt lat="30.022026" lon="97.45306">
<time>2016-10-07T19:26:31Z</time></trkpt>
<trkpt lat="30.022126" lon="97.45303">
<time>2016-10-07T19:26:32Z</time></trkpt>
<trkpt lat="30.022196" lon="97.45301">
<time>2016-10-07T19:26:33Z</time></trkpt>
<trkpt lat="30.022316" lon="97.45297">
<time>2016-10-07T19:26:34Z</time></trkpt>
<trkpt lat="30.022446" lon="97.45292">
<time>2016-10-07T19:26:35Z</time></trkpt>
<trkpt lat="30.022546" lon="97.45286">
<time>2016-10-07T19:26:36Z</time></trkpt>
<trkpt lat="30.022606" lon="97.45283">
<time>2016-10-07T19:26:37Z</time></trkpt>
<trkpt lat="30.022666" lon="97.45278">
<time>2016-10-07T19:26:38Z</time></trkpt>
<trkpt lat="30.022726" lon="97.45274">
<time>2016-10-07T19:26:39Z</time></trkpt>
<trkpt lat="30.022775" lon="97.45269">
<time>2016-10-07T19:26:40Z</time></trkpt>
<trkpt lat="30.022865" lon="97.452609">
<time>2016-10-07T19:26:41Z</time></trkpt>
<trkpt lat="30.022955" lon="97.452509">
<time>2016-10-07T19:26:42Z</time></trkpt>
<trkpt lat="30.023025" lon="97.452419">
<time>2016-10-07T19:26:43Z</time></trkpt>
<trkpt lat="30.023085" lon="97.452339">
<time>2016-10-07T19:26:44Z</time></trkpt>
<trkpt lat="30.023184" lon="97.452188">
<time>2016-10-07T19:26:45Z</time></trkpt>
<trkpt lat="30.023294" lon="97.452018">
<time>2016-10-07T19:26:46Z</time></trkpt>
<trkpt lat="30.023354" lon="97.451918">
<time>2016-10-07T19:26:47Z</time></trkpt>
<trkpt lat="30.023414" lon="97.451817">
<time>2016-10-07T19:26:48Z</time></trkpt>
<trkpt lat="30.023473" lon="97.451707">
<time>2016-10-07T19:26:49Z</time></trkpt>
<trkpt lat="30.023543" lon="97.451577">
<time>2016-10-07T19:26:50Z</time></trkpt>
<trkpt lat="30.023603" lon="97.451437">
<time>2016-10-07T19:26:51Z</time></trkpt>
<trkpt lat="30.023643" lon="97.451306">
<time>2016-10-07T19:26:52Z</time></trkpt>
<trkpt lat="30.023692" lon="97.451156">
<time>2016-10-07T19:26:53Z</time></trkpt>
<trkpt lat="30.023722" lon="97.451016">
<time>2016-10-07T19:26:54Z</time></trkpt>
<trkpt lat="30.023752" lon="97.450845">
<time>2016-10-07T19:26:55Z</time></trkpt>
<trkpt lat="30.023761" lon="97.450715">
<time>2016-10-07T19:26:56Z</time></trkpt>
<trkpt lat="30.023761" lon="97.450575">
<time>2016-10-07T19:26:57Z</time></trkpt>
<trkpt lat="30.023761" lon="97.450404">
<time>2016-10-07T19:26:58Z</time></trkpt>
<trkpt lat="30.02375" lon="97.450264">
<time>2016-10-07T19:26:59Z</time></trkpt>
<trkpt lat="30.02373" lon="97.450103">
<time>2016-10-07T19:27:00Z</time></trkpt>
<trkpt lat="30.0237" lon="97.449913">
<time>2016-10-07T19:27:01Z</time></trkpt>
<trkpt lat="30.023659" lon="97.449672">
<time>2016-10-07T19:27:02Z</time></trkpt>
<trkpt lat="30.023639" lon="97.449552">
<time>2016-10-07T19:27:03Z</time></trkpt>
<trkpt lat="30.023619" lon="97.449432">
<time>2016-10-07T19:27:04Z</time></trkpt>
<trkpt lat="30.023608" lon="97.449262">
<time>2016-10-07T19:27:05Z</time></trkpt>
<trkpt lat="30.023598" lon="97.449071">
<time>2016-10-07T19:27:06Z</time></trkpt>
<trkpt lat="30.023598" lon="97.448971">
<time>2016-10-07T19:27:07Z</time></trkpt>
<trkpt lat="30.023597" lon="97.448841">
<time>2016-10-07T19:27:08Z</time></trkpt>
<trkpt lat="30.023617" lon="97.44862">
<time>2016-10-07T19:27:09Z</time></trkpt>
<trkpt lat="30.023647" lon="97.44839">
<time>2016-10-07T19:27:10Z</time></trkpt>
<trkpt lat="30.023686" lon="97.448069">
<time>2016-10-07T19:27:11Z</time></trkpt>
<trkpt lat="30.023715" lon="97.447738">
<time>2016-10-07T19:27:12Z</time></trkpt>
<trkpt lat="30.023764" lon="97.447277">
<time>2016-10-07T19:27:13Z</time></trkpt>
<trkpt lat="30.023814" lon="97.446906">
<time>2016-10-07T19:27:14Z</time></trkpt>
<trkpt lat="30.023833" lon="97.446766">
<time>2016-10-07T19:27:15Z</time></trkpt>
<trkpt lat="30.023853" lon="97.446626">
<time>2016-10-07T19:27:16Z</time></trkpt>
<trkpt lat="30.023893" lon="97.446405">
<time>2016-10-07T19:27:17Z</time></trkpt>
<trkpt lat="30.023932" lon="97.446235">
<time>2016-10-07T19:27:18Z</time></trkpt>
<trkpt lat="30.023992" lon="97.446024">
<time>2016-10-07T19:27:19Z</time></trkpt>
<trkpt lat="30.024072" lon="97.445794">
<time>2016-10-07T19:27:20Z</time></trkpt>
<trkpt lat="30.024141" lon="97.445604">
<time>2016-10-07T19:27:21Z</time></trkpt>
<trkpt lat="30.024211" lon="97.445403">
<time>2016-10-07T19:27:22Z</time></trkpt>
<trkpt lat="30.02429" lon="97.445233">
<time>2016-10-07T19:27:23Z</time></trkpt>
<trkpt lat="30.02438" lon="97.445042">
<time>2016-10-07T19:27:24Z</time></trkpt>
<trkpt lat="30.02444" lon="97.444942">
<time>2016-10-07T19:27:25Z</time></trkpt>
<trkpt lat="30.0245" lon="97.444832">
<time>2016-10-07T19:27:26Z</time></trkpt>
<trkpt lat="30.024599" lon="97.444672">
<time>2016-10-07T19:27:27Z</time></trkpt>
<trkpt lat="30.024729" lon="97.444461">
<time>2016-10-07T19:27:28Z</time></trkpt>
<trkpt lat="30.024859" lon="97.444281">
<time>2016-10-07T19:27:29Z</time></trkpt>
<trkpt lat="30.024939" lon="97.444181">
<time>2016-10-07T19:27:30Z</time></trkpt>
<trkpt lat="30.025018" lon="97.44409">
<time>2016-10-07T19:27:31Z</time></trkpt>
<trkpt lat="30.025098" lon="97.44399">
<time>2016-10-07T19:27:32Z</time></trkpt>
<trkpt lat="30.025198" lon="97.44388">
<time>2016-10-07T19:27:33Z</time></trkpt>
<trkpt lat="30.025348" lon="97.44372">
<time>2016-10-07T19:27:34Z</time></trkpt>
<trkpt lat="30.025607" lon="97.443469">
<time>2016-10-07T19:27:35Z</time></trkpt>
<trkpt lat="30.025907" lon="97.443159">
<time>2016-10-07T19:27:36Z</time></trkpt>
<trkpt lat="30.026266" lon="97.442798">
<time>2016-10-07T19:27:37Z</time></trkpt>
<trkpt lat="30.026655" lon="97.442407">
<time>2016-10-07T19:27:38Z</time></trkpt>
<trkpt lat="30.027015" lon="97.442046">
<time>2016-10-07T19:27:39Z</time></trkpt>
<trkpt lat="30.027424" lon="97.441636">
<time>2016-10-07T19:27:40Z</time></trkpt>
<trkpt lat="30.027654" lon="97.441405">
<time>2016-10-07T19:27:41Z</time></trkpt>
<trkpt lat="30.027883" lon="97.441185">
<time>2016-10-07T19:27:42Z</time></trkpt>
<trkpt lat="30.028053" lon="97.441054">
<time>2016-10-07T19:27:43Z</time></trkpt>
<trkpt lat="30.028183" lon="97.440954">
<time>2016-10-07T19:27:44Z</time></trkpt>
<trkpt lat="30.028333" lon="97.440854">
<time>2016-10-07T19:27:45Z</time></trkpt>
<trkpt lat="30.028463" lon="97.440784">
<time>2016-10-07T19:27:46Z</time></trkpt>
<trkpt lat="30.028622" lon="97.440704">
<time>2016-10-07T19:27:47Z</time></trkpt>
<trkpt lat="30.028792" lon="97.440634">
<time>2016-10-07T19:27:48Z</time></trkpt>
<trkpt lat="30.028962" lon="97.440583">
<time>2016-10-07T19:27:49Z</time></trkpt>
<trkpt lat="30.029132" lon="97.440533">
<time>2016-10-07T19:27:50Z</time></trkpt>
<trkpt lat="30.029302" lon="97.440503">
<time>2016-10-07T19:27:51Z</time></trkpt>
<trkpt lat="30.029452" lon="97.440483">
<time>2016-10-07T19:27:52Z</time></trkpt>
<trkpt lat="30.029602" lon="97.440463">
<time>2016-10-07T19:27:53Z</time></trkpt>
<trkpt lat="30.029792" lon="97.440463">
<time>2016-10-07T19:27:54Z</time></trkpt>
<trkpt lat="30.030012" lon="97.440473">
<time>2016-10-07T19:27:55Z</time></trkpt>
<trkpt lat="30.030362" lon="97.440493">
<time>2016-10-07T19:27:56Z</time></trkpt>
<trkpt lat="30.030762" lon="97.440513">
<time>2016-10-07T19:27:57Z</time></trkpt>
<trkpt lat="30.031122" lon="97.440533">
<time>2016-10-07T19:27:58Z</time></trkpt>
<trkpt lat="30.031592" lon="97.440563">
<time>2016-10-07T19:27:59Z</time></trkpt>
<trkpt lat="30.032022" lon="97.440613">
<time>2016-10-07T19:28:00Z</time></trkpt>
<trkpt lat="30.032252" lon="97.440634">
<time>2016-10-07T19:28:01Z</time></trkpt>
<trkpt lat="30.032382" lon="97.440634">
<time>2016-10-07T19:28:02Z</time></trkpt>
<trkpt lat="30.032632" lon="97.440634">
<time>2016-10-07T19:28:03Z</time></trkpt>
<trkpt lat="30.032842" lon="97.440644">
<time>2016-10-07T19:28:04Z</time></trkpt>
<trkpt lat="30.033002" lon="97.440664">
<time>2016-10-07T19:28:05Z</time></trkpt>
<trkpt lat="30.033192" lon="97.440704">
<time>2016-10-07T19:28:06Z</time></trkpt>
<trkpt lat="30.033363" lon="97.440744">
<time>2016-10-07T19:28:07Z</time></trkpt>
<trkpt lat="30.033743" lon="97.440834">
<time>2016-10-07T19:28:08Z</time></trkpt>
<trkpt lat="30.034553" lon="97.441034">
<time>2016-10-07T19:28:09Z</time></trkpt>
<trkpt lat="30.035083" lon="97.441164">
<time>2016-10-07T19:28:10Z</time></trkpt>
<trkpt lat="30.035644" lon="97.441305">
<time>2016-10-07T19:28:11Z</time></trkpt>
<trkpt lat="30.036204" lon="97.441445">
<time>2016-10-07T19:28:12Z</time></trkpt>
<trkpt lat="30.036424" lon="97.441475">
<time>2016-10-07T19:28:13Z</time></trkpt>
<trkpt lat="30.036634" lon="97.441505">
<time>2016-10-07T19:28:14Z</time></trkpt>
<trkpt lat="30.036834" lon="97.441525">
<time>2016-10-07T19:28:15Z</time></trkpt>
<trkpt lat="30.037094" lon="97.441535">
<time>2016-10-07T19:28:16Z</time></trkpt>
<trkpt lat="30.037634" lon="97.441545">
<time>2016-10-07T19:28:17Z</time></trkpt>
<trkpt lat="30.038074" lon="97.441565">
<time>2016-10-07T19:28:18Z</time></trkpt>
<trkpt lat="30.038884" lon="97.441585">
<time>2016-10-07T19:28:19Z</time></trkpt>
<trkpt lat="30.039494" lon="97.441605">
<time>2016-10-07T19:28:20Z</time></trkpt>
<trkpt lat="30.039744" lon="97.441615">
<time>2016-10-07T19:28:21Z</time></trkpt>
<trkpt lat="30.039954" lon="97.441625">
<time>2016-10-07T19:28:22Z</time></trkpt>
<trkpt lat="30.040214" lon="97.441665">
<time>2016-10-07T19:28:23Z</time></trkpt>
<trkpt lat="30.040504" lon="97.441735">
<time>2016-10-07T19:28:24Z</time></trkpt>
<trkpt lat="30.040734" lon="97.441816">
<time>2016-10-07T19:28:25Z</time></trkpt>
<trkpt lat="30.041105" lon="97.441976">
<time>2016-10-07T19:28:26Z</time></trkpt>
<trkpt lat="30.041685" lon="97.442236">
<time>2016-10-07T19:28:27Z</time></trkpt>
<trkpt lat="30.042356" lon="97.442527">
<time>2016-10-07T19:28:28Z</time></trkpt>
<trkpt lat="30.042976" lon="97.442808">
<time>2016-10-07T19:28:29Z</time></trkpt>
<trkpt lat="30.043657" lon="97.443098">
<time>2016-10-07T19:28:30Z</time></trkpt>
<trkpt lat="30.043967" lon="97.443218">
<time>2016-10-07T19:28:31Z</time></trkpt>
<trkpt lat="30.044177" lon="97.443268">
<time>2016-10-07T19:28:32Z</time></trkpt>
<trkpt lat="30.044417" lon="97.443318">
<time>2016-10-07T19:28:33Z</time></trkpt>
<trkpt lat="30.044607" lon="97.443349">
<time>2016-10-07T19:28:34Z</time></trkpt>
<trkpt lat="30.044787" lon="97.443359">
<time>2016-10-07T19:28:35Z</time></trkpt>
<trkpt lat="30.044957" lon="97.443379">
<time>2016-10-07T19:28:36Z</time></trkpt>
<trkpt lat="30.045197" lon="97.443399">
<time>2016-10-07T19:28:37Z</time></trkpt>
<trkpt lat="30.045347" lon="97.443429">
<time>2016-10-07T19:28:38Z</time></trkpt>
<trkpt lat="30.045497" lon="97.443459">
<time>2016-10-07T19:28:39Z</time></trkpt>
<trkpt lat="30.045658" lon="97.443519">
<time>2016-10-07T19:28:40Z</time></trkpt>
<trkpt lat="30.045898" lon="97.443619">
<time>2016-10-07T19:28:41Z</time></trkpt>
<trkpt lat="30.046228" lon="97.443789">
<time>2016-10-07T19:28:42Z</time></trkpt>
<trkpt lat="30.046558" lon="97.44396">
<time>2016-10-07T19:28:43Z</time></trkpt>
<trkpt lat="30.047139" lon="97.44427">
<time>2016-10-07T19:28:44Z</time></trkpt>
<trkpt lat="30.047539" lon="97.444481">
<time>2016-10-07T19:28:45Z</time></trkpt>
<trkpt lat="30.04774" lon="97.444571">
<time>2016-10-07T19:28:46Z</time></trkpt>
<trkpt lat="30.04788" lon="97.444631">
<time>2016-10-07T19:28:47Z</time></trkpt>
<trkpt lat="30.04801" lon="97.444661">
<time>2016-10-07T19:28:48Z</time></trkpt>
<trkpt lat="30.04812" lon="97.444681">
<time>2016-10-07T19:28:49Z</time></trkpt>
<trkpt lat="30.04824" lon="97.444701">
<time>2016-10-07T19:28:50Z</time></trkpt>
<trkpt lat="30.04836" lon="97.444691">
<time>2016-10-07T19:28:51Z</time></trkpt>
<trkpt lat="30.04849" lon="97.444671">
<time>2016-10-07T19:28:52Z</time></trkpt>
<trkpt lat="30.04861" lon="97.444631">
<time>2016-10-07T19:28:53Z</time></trkpt>
<trkpt lat="30.04872" lon="97.444581">
<time>2016-10-07T19:28:54Z</time></trkpt>
<trkpt lat="30.048859" lon="97.444481">
<time>2016-10-07T19:28:55Z</time></trkpt>
<trkpt lat="30.049029" lon="97.44433">
<time>2016-10-07T19:28:56Z</time></trkpt>
<trkpt lat="30.049309" lon="97.44404">
<time>2016-10-07T19:28:57Z</time></trkpt>
<trkpt lat="30.049698" lon="97.443629">
<time>2016-10-07T19:28:58Z</time></trkpt>
<trkpt lat="30.049838" lon="97.443459">
<time>2016-10-07T19:28:59Z</time></trkpt>
<trkpt lat="30.050007" lon="97.443288">
<time>2016-10-07T19:29:00Z</time></trkpt>
<trkpt lat="30.050177" lon="97.443138">
<time>2016-10-07T19:29:01Z</time></trkpt>
<trkpt lat="30.050317" lon="97.443028">
<time>2016-10-07T19:29:02Z</time></trkpt>
<trkpt lat="30.050477" lon="97.442928">
<time>2016-10-07T19:29:03Z</time></trkpt>
<trkpt lat="30.050646" lon="97.442837">
<time>2016-10-07T19:29:04Z</time></trkpt>
<trkpt lat="30.050866" lon="97.442757">
<time>2016-10-07T19:29:05Z</time></trkpt>
<trkpt lat="30.051226" lon="97.442627">
<time>2016-10-07T19:29:06Z</time></trkpt>
<trkpt lat="30.051856" lon="97.442407">
<time>2016-10-07T19:29:07Z</time></trkpt>
<trkpt lat="30.052275" lon="97.442266">
<time>2016-10-07T19:29:08Z</time></trkpt>
<trkpt lat="30.052525" lon="97.442176">
<time>2016-10-07T19:29:09Z</time></trkpt>
<trkpt lat="30.053575" lon="97.441795">
<time>2016-10-07T19:29:10Z</time></trkpt>
<trkpt lat="30.054684" lon="97.441405">
<time>2016-10-07T19:29:11Z</time></trkpt>
<trkpt lat="30.055753" lon="97.441024">
<time>2016-10-07T19:29:12Z</time></trkpt>
<trkpt lat="30.056603" lon="97.440723">
<time>2016-10-07T19:29:13Z</time></trkpt>
<trkpt lat="30.057382" lon="97.440453">
<time>2016-10-07T19:29:14Z</time></trkpt>
<trkpt lat="30.057692" lon="97.440332">
<time>2016-10-07T19:29:15Z</time></trkpt>
<trkpt lat="30.057922" lon="97.440222">
<time>2016-10-07T19:29:16Z</time></trkpt>
<trkpt lat="30.058212" lon="97.440072">
<time>2016-10-07T19:29:17Z</time></trkpt>
<trkpt lat="30.058491" lon="97.439912">
<time>2016-10-07T19:29:18Z</time></trkpt>
<trkpt lat="30.058801" lon="97.439721">
<time>2016-10-07T19:29:19Z</time></trkpt>
<trkpt lat="30.059231" lon="97.439471">
<time>2016-10-07T19:29:20Z</time></trkpt>
<trkpt lat="30.05966" lon="97.43923">
<time>2016-10-07T19:29:21Z</time></trkpt>
<trkpt lat="30.05988" lon="97.43912">
<time>2016-10-07T19:29:22Z</time></trkpt>
<trkpt lat="30.06005" lon="97.43904">
<time>2016-10-07T19:29:23Z</time></trkpt>
<trkpt lat="30.06021" lon="97.43899">
<time>2016-10-07T19:29:24Z</time></trkpt>
<trkpt lat="30.06041" lon="97.43894">
<time>2016-10-07T19:29:25Z</time></trkpt>
<trkpt lat="30.06066" lon="97.43889">
<time>2016-10-07T19:29:26Z</time></trkpt>
<trkpt lat="30.06087" lon="97.43887">
<time>2016-10-07T19:29:27Z</time></trkpt>
<trkpt lat="30.06105" lon="97.43886">
<time>2016-10-07T19:29:28Z</time></trkpt>
<trkpt lat="30.06123" lon="97.43886">
<time>2016-10-07T19:29:29Z</time></trkpt>
<trkpt lat="30.06142" lon="97.43888">
<time>2016-10-07T19:29:30Z</time></trkpt>
<trkpt lat="30.06162" lon="97.43891">
<time>2016-10-07T19:29:31Z</time></trkpt>
<trkpt lat="30.06198" lon="97.43896">
<time>2016-10-07T19:29:32Z</time></trkpt>
<trkpt lat="30.0627" lon="97.43907">
<time>2016-10-07T19:29:33Z</time></trkpt>
<trkpt lat="30.06311" lon="97.43914">
<time>2016-10-07T19:29:34Z</time></trkpt>
<trkpt lat="30.06377" lon="97.43924">
<time>2016-10-07T19:29:35Z</time></trkpt>
<trkpt lat="30.064471" lon="97.439351">
<time>2016-10-07T19:29:36Z</time></trkpt>
<trkpt lat="30.065251" lon="97.439461">
<time>2016-10-07T19:29:37Z</time></trkpt>
<trkpt lat="30.065661" lon="97.439531">
<time>2016-10-07T19:29:38Z</time></trkpt>
<trkpt lat="30.066321" lon="97.439631">
<time>2016-10-07T19:29:39Z</time></trkpt>
<trkpt lat="30.066951" lon="97.439721">
<time>2016-10-07T19:29:40Z</time></trkpt>
<trkpt lat="30.067591" lon="97.439821">
<time>2016-10-07T19:29:41Z</time></trkpt>
<trkpt lat="30.068222" lon="97.439932">
<time>2016-10-07T19:29:42Z</time></trkpt>
<trkpt lat="30.068532" lon="97.439982">
<time>2016-10-07T19:29:43Z</time></trkpt>
<trkpt lat="30.068732" lon="97.440032">
<time>2016-10-07T19:29:44Z</time></trkpt>
<trkpt lat="30.069022" lon="97.440132">
<time>2016-10-07T19:29:45Z</time></trkpt>
<trkpt lat="30.069422" lon="97.440292">
<time>2016-10-07T19:29:46Z</time></trkpt>
<trkpt lat="30.069572" lon="97.440362">
<time>2016-10-07T19:29:47Z</time></trkpt>
<trkpt lat="30.069893" lon="97.440513">
<time>2016-10-07T19:29:48Z</time></trkpt>
<trkpt lat="30.070333" lon="97.440733">
<time>2016-10-07T19:29:49Z</time></trkpt>
<trkpt lat="30.070633" lon="97.440873">
<time>2016-10-07T19:29:50Z</time></trkpt>
<trkpt lat="30.070903" lon="97.440973">
<time>2016-10-07T19:29:51Z</time></trkpt>
<trkpt lat="30.071164" lon="97.441054">
<time>2016-10-07T19:29:52Z</time></trkpt>
<trkpt lat="30.071484" lon="97.441124">
<time>2016-10-07T19:29:53Z</time></trkpt>
<trkpt lat="30.072004" lon="97.441254">
<time>2016-10-07T19:29:54Z</time></trkpt>
<trkpt lat="30.072424" lon="97.441354">
<time>2016-10-07T19:29:55Z</time></trkpt>
<trkpt lat="30.072704" lon="97.441414">
<time>2016-10-07T19:29:56Z</time></trkpt>
<trkpt lat="30.072914" lon="97.441444">
<time>2016-10-07T19:29:57Z</time></trkpt>
<trkpt lat="30.073104" lon="97.441474">
<time>2016-10-07T19:29:58Z</time></trkpt>
<trkpt lat="30.073414" lon="97.441494">
<time>2016-10-07T19:29:59Z</time></trkpt>
<trkpt lat="30.073864" lon="97.441514">
<time>2016-10-07T19:30:00Z</time></trkpt>
<trkpt lat="30.074514" lon="97.441524">
<time>2016-10-07T19:30:01Z</time></trkpt>
<trkpt lat="30.074944" lon="97.441534">
<time>2016-10-07T19:30:02Z</time></trkpt>
<trkpt lat="30.075474" lon="97.441554">
<time>2016-10-07T19:30:03Z</time></trkpt>
<trkpt lat="30.075914" lon="97.441574">
<time>2016-10-07T19:30:04Z</time></trkpt>
<trkpt lat="30.076595" lon="97.441584">
<time>2016-10-07T19:30:05Z</time></trkpt>
<trkpt lat="30.076735" lon="97.441594">
<time>2016-10-07T19:30:06Z</time></trkpt>
<trkpt lat="30.077075" lon="97.441615">
<time>2016-10-07T19:30:07Z</time></trkpt>
<trkpt lat="30.077405" lon="97.441655">
<time>2016-10-07T19:30:08Z</time></trkpt>
<trkpt lat="30.077725" lon="97.441715">
<time>2016-10-07T19:30:09Z</time></trkpt>
<trkpt lat="30.078155" lon="97.441805">
<time>2016-10-07T19:30:10Z</time></trkpt>
<trkpt lat="30.078575" lon="97.441905">
<time>2016-10-07T19:30:11Z</time></trkpt>
<trkpt lat="30.079565" lon="97.442105">
<time>2016-10-07T19:30:12Z</time></trkpt>
<trkpt lat="30.080076" lon="97.442206">
<time>2016-10-07T19:30:13Z</time></trkpt>
<trkpt lat="30.080446" lon="97.442286">
<time>2016-10-07T19:30:14Z</time></trkpt>
<trkpt lat="30.080786" lon="97.442366">
<time>2016-10-07T19:30:15Z</time></trkpt>
<trkpt lat="30.081176" lon="97.442446">
<time>2016-10-07T19:30:16Z</time></trkpt>
<trkpt lat="30.081766" lon="97.442566">
<time>2016-10-07T19:30:17Z</time></trkpt>
<trkpt lat="30.082116" lon="97.442646">
<time>2016-10-07T19:30:18Z</time></trkpt>
<trkpt lat="30.082647" lon="97.442737">
<time>2016-10-07T19:30:19Z</time></trkpt>
<trkpt lat="30.082917" lon="97.442777">
<time>2016-10-07T19:30:20Z</time></trkpt>
<trkpt lat="30.083127" lon="97.442807">
<time>2016-10-07T19:30:21Z</time></trkpt>
<trkpt lat="30.083377" lon="97.442827">
<time>2016-10-07T19:30:22Z</time></trkpt>
<trkpt lat="30.083687" lon="97.442857">
<time>2016-10-07T19:30:23Z</time></trkpt>
<trkpt lat="30.083857" lon="97.442867">
<time>2016-10-07T19:30:24Z</time></trkpt>
<trkpt lat="30.084027" lon="97.442877">
<time>2016-10-07T19:30:25Z</time></trkpt>
<trkpt lat="30.084177" lon="97.442867">
<time>2016-10-07T19:30:26Z</time></trkpt>
<trkpt lat="30.084317" lon="97.442857">
<time>2016-10-07T19:30:27Z</time></trkpt>
<trkpt lat="30.084437" lon="97.442827">
<time>2016-10-07T19:30:28Z</time></trkpt>
<trkpt lat="30.084577" lon="97.442787">
<time>2016-10-07T19:30:29Z</time></trkpt>
<trkpt lat="30.084717" lon="97.442727">
<time>2016-10-07T19:30:30Z</time></trkpt>
<trkpt lat="30.084886" lon="97.442636">
<time>2016-10-07T19:30:31Z</time></trkpt>
<trkpt lat="30.085116" lon="97.442506">
<time>2016-10-07T19:30:32Z</time></trkpt>
<trkpt lat="30.085286" lon="97.442396">
<time>2016-10-07T19:30:33Z</time></trkpt>
<trkpt lat="30.085386" lon="97.442326">
<time>2016-10-07T19:30:34Z</time></trkpt>
<trkpt lat="30.085516" lon="97.442226">
<time>2016-10-07T19:30:35Z</time></trkpt>
<trkpt lat="30.085695" lon="97.442065">
<time>2016-10-07T19:30:36Z</time></trkpt>
<trkpt lat="30.085805" lon="97.441965">
<time>2016-10-07T19:30:37Z</time></trkpt>
<trkpt lat="30.085925" lon="97.441825">
<time>2016-10-07T19:30:38Z</time></trkpt>
<trkpt lat="30.086115" lon="97.441604">
<time>2016-10-07T19:30:39Z</time></trkpt>
<trkpt lat="30.087312" lon="97.440192">
<time>2016-10-07T19:30:40Z</time></trkpt>
<trkpt lat="30.087891" lon="97.43951">
<time>2016-10-07T19:30:41Z</time></trkpt>
<trkpt lat="30.088749" lon="97.438519">
<time>2016-10-07T19:30:42Z</time></trkpt>
<trkpt lat="30.089278" lon="97.437867">
<time>2016-10-07T19:30:43Z</time></trkpt>
<trkpt lat="30.089698" lon="97.437387">
<time>2016-10-07T19:30:44Z</time></trkpt>
<trkpt lat="30.090007" lon="97.437096">
<time>2016-10-07T19:30:45Z</time></trkpt>
<trkpt lat="30.090287" lon="97.436866">
<time>2016-10-07T19:30:46Z</time></trkpt>
<trkpt lat="30.090836" lon="97.436425">
<time>2016-10-07T19:30:47Z</time></trkpt>
<trkpt lat="30.091236" lon="97.436074">
<time>2016-10-07T19:30:48Z</time></trkpt>
<trkpt lat="30.091385" lon="97.435924">
<time>2016-10-07T19:30:49Z</time></trkpt>
<trkpt lat="30.091505" lon="97.435744">
<time>2016-10-07T19:30:50Z</time></trkpt>
<trkpt lat="30.091605" lon="97.435553">
<time>2016-10-07T19:30:51Z</time></trkpt>
<trkpt lat="30.091685" lon="97.435313">
<time>2016-10-07T19:30:52Z</time></trkpt>
<trkpt lat="30.091744" lon="97.435063">
<time>2016-10-07T19:30:53Z</time></trkpt>
<trkpt lat="30.091804" lon="97.434662">
<time>2016-10-07T19:30:54Z</time></trkpt>
<trkpt lat="30.091873" lon="97.434231">
<time>2016-10-07T19:30:55Z</time></trkpt>
<trkpt lat="30.091942" lon="97.433851">
<time>2016-10-07T19:30:56Z</time></trkpt>
<trkpt lat="30.092002" lon="97.43362">
<time>2016-10-07T19:30:57Z</time></trkpt>
<trkpt lat="30.092092" lon="97.43338">
<time>2016-10-07T19:30:58Z</time></trkpt>
<trkpt lat="30.092211" lon="97.43313">
<time>2016-10-07T19:30:59Z</time></trkpt>
<trkpt lat="30.092351" lon="97.432879">
<time>2016-10-07T19:31:00Z</time></trkpt>
<trkpt lat="30.092491" lon="97.432669">
<time>2016-10-07T19:31:01Z</time></trkpt>
<trkpt lat="30.09272" lon="97.432399">
<time>2016-10-07T19:31:02Z</time></trkpt>
<trkpt lat="30.09292" lon="97.432178">
<time>2016-10-07T19:31:03Z</time></trkpt>
<trkpt lat="30.09312" lon="97.431958">
<time>2016-10-07T19:31:04Z</time></trkpt>
<trkpt lat="30.093319" lon="97.431687">
<time>2016-10-07T19:31:05Z</time></trkpt>
<trkpt lat="30.093489" lon="97.431447">
<time>2016-10-07T19:31:06Z</time></trkpt>
<trkpt lat="30.093679" lon="97.431117">
<time>2016-10-07T19:31:07Z</time></trkpt>
<trkpt lat="30.094836" lon="97.428914">
<time>2016-10-07T19:31:08Z</time></trkpt>
<trkpt lat="30.095425" lon="97.427782">
<time>2016-10-07T19:31:09Z</time></trkpt>
<trkpt lat="30.096183" lon="97.42633">
<time>2016-10-07T19:31:10Z</time></trkpt>
<trkpt lat="30.096402" lon="97.4259">
<time>2016-10-07T19:31:11Z</time></trkpt>
<trkpt lat="30.096522" lon="97.42563">
<time>2016-10-07T19:31:12Z</time></trkpt>
<trkpt lat="30.096622" lon="97.425379">
<time>2016-10-07T19:31:13Z</time></trkpt>
<trkpt lat="30.096682" lon="97.425169">
<time>2016-10-07T19:31:14Z</time></trkpt>
<trkpt lat="30.096761" lon="97.424899">
<time>2016-10-07T19:31:15Z</time></trkpt>
<trkpt lat="30.096851" lon="97.424568">
<time>2016-10-07T19:31:16Z</time></trkpt>
<trkpt lat="30.096961" lon="97.424168">
<time>2016-10-07T19:31:17Z</time></trkpt>
<trkpt lat="30.09712" lon="97.423607">
<time>2016-10-07T19:31:18Z</time></trkpt>
<trkpt lat="30.09723" lon="97.423287">
<time>2016-10-07T19:31:19Z</time></trkpt>
<trkpt lat="30.09736" lon="97.423017">
<time>2016-10-07T19:31:20Z</time></trkpt>
<trkpt lat="30.097459" lon="97.422857">
<time>2016-10-07T19:31:21Z</time></trkpt>
<trkpt lat="30.097639" lon="97.422596">
<time>2016-10-07T19:31:22Z</time></trkpt>
<trkpt lat="30.097889" lon="97.422286">
<time>2016-10-07T19:31:23Z</time></trkpt>
<trkpt lat="30.098149" lon="97.421956">
<time>2016-10-07T19:31:24Z</time></trkpt>
<trkpt lat="30.098678" lon="97.421285">
<time>2016-10-07T19:31:25Z</time></trkpt>
<trkpt lat="30.098838" lon="97.421075">
<time>2016-10-07T19:31:26Z</time></trkpt>
<trkpt lat="30.098968" lon="97.420855">
<time>2016-10-07T19:31:27Z</time></trkpt>
<trkpt lat="30.099057" lon="97.420655">
<time>2016-10-07T19:31:28Z</time></trkpt>
<trkpt lat="30.099147" lon="97.420404">
<time>2016-10-07T19:31:29Z</time></trkpt>
<trkpt lat="30.099297" lon="97.419854">
<time>2016-10-07T19:31:30Z</time></trkpt>
<trkpt lat="30.099446" lon="97.419363">
<time>2016-10-07T19:31:31Z</time></trkpt>
<trkpt lat="30.099516" lon="97.419163">
<time>2016-10-07T19:31:32Z</time></trkpt>
<trkpt lat="30.099616" lon="97.418893">
<time>2016-10-07T19:31:33Z</time></trkpt>
<trkpt lat="30.099706" lon="97.418683">
<time>2016-10-07T19:31:34Z</time></trkpt>
<trkpt lat="30.099836" lon="97.418443">
<time>2016-10-07T19:31:35Z</time></trkpt>
<trkpt lat="30.099965" lon="97.418203">
<time>2016-10-07T19:31:36Z</time></trkpt>
<trkpt lat="30.100075" lon="97.418022">
<time>2016-10-07T19:31:37Z</time></trkpt>
<trkpt lat="30.100245" lon="97.417792">
<time>2016-10-07T19:31:38Z</time></trkpt>
<trkpt lat="30.100495" lon="97.417452">
<time>2016-10-07T19:31:39Z</time></trkpt>
<trkpt lat="30.100675" lon="97.417222">
<time>2016-10-07T19:31:40Z</time></trkpt>
<trkpt lat="30.100865" lon="97.416962">
<time>2016-10-07T19:31:41Z</time></trkpt>
<trkpt lat="30.101184" lon="97.416531">
<time>2016-10-07T19:31:42Z</time></trkpt>
<trkpt lat="30.101414" lon="97.416231">
<time>2016-10-07T19:31:43Z</time></trkpt>
<trkpt lat="30.101584" lon="97.416041">
<time>2016-10-07T19:31:44Z</time></trkpt>
<trkpt lat="30.101784" lon="97.415831">
<time>2016-10-07T19:31:45Z</time></trkpt>
<trkpt lat="30.102344" lon="97.415361">
<time>2016-10-07T19:31:46Z</time></trkpt>
<trkpt lat="30.102483" lon="97.41524">
<time>2016-10-07T19:31:47Z</time></trkpt>
<trkpt lat="30.102613" lon="97.41509">
<time>2016-10-07T19:31:48Z</time></trkpt>
<trkpt lat="30.102703" lon="97.41495">
<time>2016-10-07T19:31:49Z</time></trkpt>
<trkpt lat="30.102773" lon="97.41479">
<time>2016-10-07T19:31:50Z</time></trkpt>
<trkpt lat="30.102833" lon="97.41465">
<time>2016-10-07T19:31:51Z</time></trkpt>
<trkpt lat="30.102873" lon="97.41449">
<time>2016-10-07T19:31:52Z</time></trkpt>
<trkpt lat="30.102903" lon="97.41427">
<time>2016-10-07T19:31:53Z</time></trkpt>
<trkpt lat="30.102923" lon="97.414">
<time>2016-10-07T19:31:54Z</time></trkpt>
<trkpt lat="30.102963" lon="97.41366">
<time>2016-10-07T19:31:55Z</time></trkpt>
<trkpt lat="30.102992" lon="97.413399">
<time>2016-10-07T19:31:56Z</time></trkpt>
<trkpt lat="30.103052" lon="97.413139">
<time>2016-10-07T19:31:57Z</time></trkpt>
<trkpt lat="30.103132" lon="97.412859">
<time>2016-10-07T19:31:58Z</time></trkpt>
<trkpt lat="30.103222" lon="97.412609">
<time>2016-10-07T19:31:59Z</time></trkpt>
<trkpt lat="30.103332" lon="97.412389">
<time>2016-10-07T19:32:00Z</time></trkpt>
<trkpt lat="30.103452" lon="97.412169">
<time>2016-10-07T19:32:01Z</time></trkpt>
<trkpt lat="30.103642" lon="97.411889">
<time>2016-10-07T19:32:02Z</time></trkpt>
<trkpt lat="30.103832" lon="97.411619">
<time>2016-10-07T19:32:03Z</time></trkpt>
<trkpt lat="30.104012" lon="97.411389">
<time>2016-10-07T19:32:04Z</time></trkpt>
<trkpt lat="30.104151" lon="97.411228">
<time>2016-10-07T19:32:05Z</time></trkpt>
<trkpt lat="30.104321" lon="97.411058">
<time>2016-10-07T19:32:06Z</time></trkpt>
<trkpt lat="30.104521" lon="97.410908">
<time>2016-10-07T19:32:07Z</time></trkpt>
<trkpt lat="30.104701" lon="97.410778">
<time>2016-10-07T19:32:08Z</time></trkpt>
<trkpt lat="30.104911" lon="97.410658">
<time>2016-10-07T19:32:09Z</time></trkpt>
<trkpt lat="30.105191" lon="97.410528">
<time>2016-10-07T19:32:10Z</time></trkpt>
<trkpt lat="30.105431" lon="97.410438">
<time>2016-10-07T19:32:11Z</time></trkpt>
<trkpt lat="30.105871" lon="97.410298">
<time>2016-10-07T19:32:12Z</time></trkpt>
<trkpt lat="30.106311" lon="97.410158">
<time>2016-10-07T19:32:13Z</time></trkpt>
<trkpt lat="30.106681" lon="97.410038">
<time>2016-10-07T19:32:14Z</time></trkpt>
<trkpt lat="30.106921" lon="97.409968">
<time>2016-10-07T19:32:15Z</time></trkpt>
<trkpt lat="30.107101" lon="97.409898">
<time>2016-10-07T19:32:16Z</time></trkpt>
<trkpt lat="30.107281" lon="97.409808">
<time>2016-10-07T19:32:17Z</time></trkpt>
<trkpt lat="30.107451" lon="97.409698">
<time>2016-10-07T19:32:18Z</time></trkpt>
<trkpt lat="30.107561" lon="97.409588">
<time>2016-10-07T19:32:19Z</time></trkpt>
<trkpt lat="30.107661" lon="97.409478">
<time>2016-10-07T19:32:20Z</time></trkpt>
<trkpt lat="30.107751" lon="97.409338">
<time>2016-10-07T19:32:21Z</time></trkpt>
<trkpt lat="30.107821" lon="97.409188">
<time>2016-10-07T19:32:22Z</time></trkpt>
<trkpt lat="30.107861" lon="97.409058">
<time>2016-10-07T19:32:23Z</time></trkpt>
<trkpt lat="30.107901" lon="97.408908">
<time>2016-10-07T19:32:24Z</time></trkpt>
<trkpt lat="30.107921" lon="97.408728">
<time>2016-10-07T19:32:25Z</time></trkpt>
<trkpt lat="30.10793" lon="97.408528">
<time>2016-10-07T19:32:26Z</time></trkpt>
<trkpt lat="30.10791" lon="97.408368">
<time>2016-10-07T19:32:27Z</time></trkpt>
<trkpt lat="30.10787" lon="97.408097">
<time>2016-10-07T19:32:28Z</time></trkpt>
<trkpt lat="30.10784" lon="97.407897">
<time>2016-10-07T19:32:29Z</time></trkpt>
<trkpt lat="30.10782" lon="97.407727">
<time>2016-10-07T19:32:30Z</time></trkpt>
<trkpt lat="30.10781" lon="97.407507">
<time>2016-10-07T19:32:31Z</time></trkpt>
<trkpt lat="30.10782" lon="97.407347">
<time>2016-10-07T19:32:32Z</time></trkpt>
<trkpt lat="30.10785" lon="97.407187">
<time>2016-10-07T19:32:33Z</time></trkpt>
<trkpt lat="30.10789" lon="97.407007">
<time>2016-10-07T19:32:34Z</time></trkpt>
<trkpt lat="30.10797" lon="97.406807">
<time>2016-10-07T19:32:35Z</time></trkpt>
<trkpt lat="30.10807" lon="97.406577">
<time>2016-10-07T19:32:36Z</time></trkpt>
<trkpt lat="30.10823" lon="97.406217">
<time>2016-10-07T19:32:37Z</time></trkpt>
<trkpt lat="30.10839" lon="97.405917">
<time>2016-10-07T19:32:38Z</time></trkpt>
<trkpt lat="30.1085" lon="97.405737">
<time>2016-10-07T19:32:39Z</time></trkpt>
<trkpt lat="30.10862" lon="97.405577">
<time>2016-10-07T19:32:40Z</time></trkpt>
<trkpt lat="30.10877" lon="97.405437">
<time>2016-10-07T19:32:41Z</time></trkpt>
<trkpt lat="30.10889" lon="97.405327">
<time>2016-10-07T19:32:42Z</time></trkpt>
<trkpt lat="30.10902" lon="97.405237">
<time>2016-10-07T19:32:43Z</time></trkpt>
<trkpt lat="30.10917" lon="97.405147">
<time>2016-10-07T19:32:44Z</time></trkpt>
<trkpt lat="30.10933" lon="97.405057">
<time>2016-10-07T19:32:45Z</time></trkpt>
<trkpt lat="30.10951" lon="97.404987">
<time>2016-10-07T19:32:46Z</time></trkpt>
<trkpt lat="30.10971" lon="97.404917">
<time>2016-10-07T19:32:47Z</time></trkpt>
<trkpt lat="30.11022" lon="97.404747">
<time>2016-10-07T19:32:48Z</time></trkpt>
<trkpt lat="30.1104" lon="97.404707">
<time>2016-10-07T19:32:49Z</time></trkpt>
<trkpt lat="30.11055" lon="97.404677">
<time>2016-10-07T19:32:50Z</time></trkpt>
<trkpt lat="30.11071" lon="97.404667">
<time>2016-10-07T19:32:51Z</time></trkpt>
<trkpt lat="30.11095" lon="97.404677">
<time>2016-10-07T19:32:52Z</time></trkpt>
<trkpt lat="30.11112" lon="97.404707">
<time>2016-10-07T19:32:53Z</time></trkpt>
<trkpt lat="30.11137" lon="97.404777">
<time>2016-10-07T19:32:54Z</time></trkpt>
<trkpt lat="30.11167" lon="97.404877">
<time>2016-10-07T19:32:55Z</time></trkpt>
<trkpt lat="30.11243" lon="97.405147">
<time>2016-10-07T19:32:56Z</time></trkpt>
<trkpt lat="30.11302" lon="97.405347">
<time>2016-10-07T19:32:57Z</time></trkpt>
<trkpt lat="30.11322" lon="97.405407">
<time>2016-10-07T19:32:58Z</time></trkpt>
<trkpt lat="30.11341" lon="97.405457">
<time>2016-10-07T19:32:59Z</time></trkpt>
<trkpt lat="30.11358" lon="97.405477">
<time>2016-10-07T19:33:00Z</time></trkpt>
<trkpt lat="30.11373" lon="97.405467">
<time>2016-10-07T19:33:01Z</time></trkpt>
<trkpt lat="30.11385" lon="97.405457">
<time>2016-10-07T19:33:02Z</time></trkpt>
<trkpt lat="30.11397" lon="97.405417">
<time>2016-10-07T19:33:03Z</time></trkpt>
<trkpt lat="30.11406" lon="97.405387">
<time>2016-10-07T19:33:04Z</time></trkpt>
<trkpt lat="30.11419" lon="97.405317">
<time>2016-10-07T19:33:05Z</time></trkpt>
<trkpt lat="30.11429" lon="97.405247">
<time>2016-10-07T19:33:06Z</time></trkpt>
<trkpt lat="30.11442" lon="97.405127">
<time>2016-10-07T19:33:07Z</time></trkpt>
<trkpt lat="30.1145" lon="97.405027">
<time>2016-10-07T19:33:08Z</time></trkpt>
<trkpt lat="30.11457" lon="97.404927">
<time>2016-10-07T19:33:09Z</time></trkpt>
<trkpt lat="30.1147" lon="97.404707">
<time>2016-10-07T19:33:10Z</time></trkpt>
<trkpt lat="30.11487" lon="97.404357">
<time>2016-10-07T19:33:11Z</time></trkpt>
<trkpt lat="30.11505" lon="97.403977">
<time>2016-10-07T19:33:12Z</time></trkpt>
<trkpt lat="30.11529" lon="97.403477">
<time>2016-10-07T19:33:13Z</time></trkpt>
<trkpt lat="30.11538" lon="97.403327">
<time>2016-10-07T19:33:14Z</time></trkpt>
<trkpt lat="30.11546" lon="97.403217">
<time>2016-10-07T19:33:15Z</time></trkpt>
<trkpt lat="30.11556" lon="97.403107">
<time>2016-10-07T19:33:16Z</time></trkpt>
<trkpt lat="30.11565" lon="97.403007">
<time>2016-10-07T19:33:17Z</time></trkpt>
<trkpt lat="30.11573" lon="97.402947">
<time>2016-10-07T19:33:18Z</time></trkpt>
<trkpt lat="30.11586" lon="97.402867">
<time>2016-10-07T19:33:19Z</time></trkpt>
<trkpt lat="30.11597" lon="97.402817">
<time>2016-10-07T19:33:20Z</time></trkpt>
<trkpt lat="30.116099" lon="97.402767">
<time>2016-10-07T19:33:21Z</time></trkpt>
<trkpt lat="30.116349" lon="97.402707">
<time>2016-10-07T19:33:22Z</time></trkpt>
<trkpt lat="30.116849" lon="97.402597">
<time>2016-10-07T19:33:23Z</time></trkpt>
<trkpt lat="30.117319" lon="97.402487">
<time>2016-10-07T19:33:24Z</time></trkpt>
<trkpt lat="30.117589" lon="97.402427">
<time>2016-10-07T19:33:25Z</time></trkpt>
<trkpt lat="30.117749" lon="97.402387">
<time>2016-10-07T19:33:26Z</time></trkpt>
<trkpt lat="30.117899" lon="97.402327">
<time>2016-10-07T19:33:27Z</time></trkpt>
<trkpt lat="30.118059" lon="97.402257">
<time>2016-10-07T19:33:28Z</time></trkpt>
<trkpt lat="30.118209" lon="97.402157">
<time>2016-10-07T19:33:29Z</time></trkpt>
<trkpt lat="30.118349" lon="97.402047">
<time>2016-10-07T19:33:30Z</time></trkpt>
<trkpt lat="30.118459" lon="97.401947">
<time>2016-10-07T19:33:31Z</time></trkpt>
<trkpt lat="30.118609" lon="97.401797">
<time>2016-10-07T19:33:32Z</time></trkpt>
<trkpt lat="30.119009" lon="97.401367">
<time>2016-10-07T19:33:33Z</time></trkpt>
<trkpt lat="30.119329" lon="97.401007">
<time>2016-10-07T19:33:34Z</time></trkpt>
<trkpt lat="30.11973" lon="97.400567">
<time>2016-10-07T19:33:35Z</time></trkpt>
<trkpt lat="30.12011" lon="97.400167">
<time>2016-10-07T19:33:36Z</time></trkpt>
<trkpt lat="30.12036" lon="97.399887">
<time>2016-10-07T19:33:37Z</time></trkpt>
<trkpt lat="30.12052" lon="97.399727">
<time>2016-10-07T19:33:38Z</time></trkpt>
<trkpt lat="30.12068" lon="97.399597">
<time>2016-10-07T19:33:39Z</time></trkpt>
<trkpt lat="30.12085" lon="97.399497">
<time>2016-10-07T19:33:40Z</time></trkpt>
<trkpt lat="30.12106" lon="97.399387">
<time>2016-10-07T19:33:41Z</time></trkpt>
<trkpt lat="30.1212" lon="97.399347">
<time>2016-10-07T19:33:42Z</time></trkpt>
<trkpt lat="30.12136" lon="97.399307">
<time>2016-10-07T19:33:43Z</time></trkpt>
<trkpt lat="30.12155" lon="97.399287">
<time>2016-10-07T19:33:44Z</time></trkpt>
<trkpt lat="30.12237" lon="97.399267">
<time>2016-10-07T19:33:45Z</time></trkpt>
<trkpt lat="30.12266" lon="97.399237">
<time>2016-10-07T19:33:46Z</time></trkpt>
<trkpt lat="30.12292" lon="97.399227">
<time>2016-10-07T19:33:47Z</time></trkpt>
<trkpt lat="30.12321" lon="97.399247">
<time>2016-10-07T19:33:48Z</time></trkpt>
<trkpt lat="30.12361" lon="97.399307">
<time>2016-10-07T19:33:49Z</time></trkpt>
<trkpt lat="30.12385" lon="97.399337">
<time>2016-10-07T19:33:50Z</time></trkpt>
<trkpt lat="30.12407" lon="97.399357">
<time>2016-10-07T19:33:51Z</time></trkpt>
<trkpt lat="30.12427" lon="97.399347">
<time>2016-10-07T19:33:52Z</time></trkpt>
<trkpt lat="30.12445" lon="97.399317">
<time>2016-10-07T19:33:53Z</time></trkpt>
<trkpt lat="30.12461" lon="97.399267">
<time>2016-10-07T19:33:54Z</time></trkpt>
<trkpt lat="30.12482" lon="97.399167">
<time>2016-10-07T19:33:55Z</time></trkpt>
<trkpt lat="30.12503" lon="97.399047">
<time>2016-10-07T19:33:56Z</time></trkpt>
<trkpt lat="30.12527" lon="97.398867">
<time>2016-10-07T19:33:57Z</time></trkpt>
<trkpt lat="30.12551" lon="97.398707">
<time>2016-10-07T19:33:58Z</time></trkpt>
<trkpt lat="30.12564" lon="97.398627">
<time>2016-10-07T19:33:59Z</time></trkpt>
<trkpt lat="30.126" lon="97.398397">
<time>2016-10-07T19:34:00Z</time></trkpt>
<trkpt lat="30.12635" lon="97.398208">
<time>2016-10-07T19:34:01Z</time></trkpt>
<trkpt lat="30.12696" lon="97.397958">
<time>2016-10-07T19:34:02Z</time></trkpt>
<trkpt lat="30.1275" lon="97.397628">
<time>2016-10-07T19:34:03Z</time></trkpt>
<trkpt lat="30.12784" lon="97.397388">
<time>2016-10-07T19:34:04Z</time></trkpt>
<trkpt lat="30.12876" lon="97.396798">
<time>2016-10-07T19:34:05Z</time></trkpt>
<trkpt lat="30.12977" lon="97.396138">
<time>2016-10-07T19:34:06Z</time></trkpt>
<trkpt lat="30.13026" lon="97.395818">
<time>2016-10-07T19:34:07Z</time></trkpt>
<trkpt lat="30.13103" lon="97.395289">
<time>2016-10-07T19:34:08Z</time></trkpt>
<trkpt lat="30.13143" lon="97.394929">
<time>2016-10-07T19:34:09Z</time></trkpt>
<trkpt lat="30.131751" lon="97.394569">
<time>2016-10-07T19:34:10Z</time></trkpt>
<trkpt lat="30.132001" lon="97.394279">
<time>2016-10-07T19:34:11Z</time></trkpt>
<trkpt lat="30.132281" lon="97.394039">
<time>2016-10-07T19:34:12Z</time></trkpt>
<trkpt lat="30.132601" lon="97.393829">
<time>2016-10-07T19:34:13Z</time></trkpt>
<trkpt lat="30.133011" lon="97.393639">
<time>2016-10-07T19:34:14Z</time></trkpt>
<trkpt lat="30.134071" lon="97.39315">
<time>2016-10-07T19:34:15Z</time></trkpt>
<trkpt lat="30.134991" lon="97.39271">
<time>2016-10-07T19:34:16Z</time></trkpt>
<trkpt lat="30.135331" lon="97.39254">
<time>2016-10-07T19:34:17Z</time></trkpt>
<trkpt lat="30.135581" lon="97.3924">
<time>2016-10-07T19:34:18Z</time></trkpt>
<trkpt lat="30.135901" lon="97.39217">
<time>2016-10-07T19:34:19Z</time></trkpt>
<trkpt lat="30.136272" lon="97.39186">
<time>2016-10-07T19:34:20Z</time></trkpt>
<trkpt lat="30.136512" lon="97.39163">
<time>2016-10-07T19:34:21Z</time></trkpt>
<trkpt lat="30.136782" lon="97.391321">
<time>2016-10-07T19:34:22Z</time></trkpt>
<trkpt lat="30.137222" lon="97.390721">
<time>2016-10-07T19:34:23Z</time></trkpt>
<trkpt lat="30.137472" lon="97.390361">
<time>2016-10-07T19:34:24Z</time></trkpt>
<trkpt lat="30.137712" lon="97.390021">
<time>2016-10-07T19:34:25Z</time></trkpt>
<trkpt lat="30.137893" lon="97.389752">
<time>2016-10-07T19:34:26Z</time></trkpt>
<trkpt lat="30.138033" lon="97.389512">
<time>2016-10-07T19:34:27Z</time></trkpt>
<trkpt lat="30.138163" lon="97.389212">
<time>2016-10-07T19:34:28Z</time></trkpt>
<trkpt lat="30.138243" lon="97.388982">
<time>2016-10-07T19:34:29Z</time></trkpt>
<trkpt lat="30.138303" lon="97.388712">
<time>2016-10-07T19:34:30Z</time></trkpt>
<trkpt lat="30.138333" lon="97.388502">
<time>2016-10-07T19:34:31Z</time></trkpt>
<trkpt lat="30.138363" lon="97.388273">
<time>2016-10-07T19:34:32Z</time></trkpt>
<trkpt lat="30.138373" lon="97.388063">
<time>2016-10-07T19:34:33Z</time></trkpt>
<trkpt lat="30.138354" lon="97.387783">
<time>2016-10-07T19:34:34Z</time></trkpt>
<trkpt lat="30.138314" lon="97.387523">
<time>2016-10-07T19:34:35Z</time></trkpt>
<trkpt lat="30.138254" lon="97.387214">
<time>2016-10-07T19:34:36Z</time></trkpt>
<trkpt lat="30.138174" lon="97.386884">
<time>2016-10-07T19:34:37Z</time></trkpt>
<trkpt lat="30.138094" lon="97.386484">
<time>2016-10-07T19:34:38Z</time></trkpt>
<trkpt lat="30.138025" lon="97.386174">
<time>2016-10-07T19:34:39Z</time></trkpt>
<trkpt lat="30.137925" lon="97.385785">
<time>2016-10-07T19:34:40Z</time></trkpt>
<trkpt lat="30.137885" lon="97.385565">
<time>2016-10-07T19:34:41Z</time></trkpt>
<trkpt lat="30.137855" lon="97.385335">
<time>2016-10-07T19:34:42Z</time></trkpt>
<trkpt lat="30.137835" lon="97.385125">
<time>2016-10-07T19:34:43Z</time></trkpt>
<trkpt lat="30.137825" lon="97.384876">
<time>2016-10-07T19:34:44Z</time></trkpt>
<trkpt lat="30.137836" lon="97.384466">
<time>2016-10-07T19:34:45Z</time></trkpt>
<trkpt lat="30.137846" lon="97.384216">
<time>2016-10-07T19:34:46Z</time></trkpt>
<trkpt lat="30.137876" lon="97.383996">
<time>2016-10-07T19:34:47Z</time></trkpt>
<trkpt lat="30.137916" lon="97.383777">
<time>2016-10-07T19:34:48Z</time></trkpt>
<trkpt lat="30.137976" lon="97.383557">
<time>2016-10-07T19:34:49Z</time></trkpt>
<trkpt lat="30.138037" lon="97.383387">
<time>2016-10-07T19:34:50Z</time></trkpt>
<trkpt lat="30.138097" lon="97.383247">
<time>2016-10-07T19:34:51Z</time></trkpt>
<trkpt lat="30.138197" lon="97.383037">
<time>2016-10-07T19:34:52Z</time></trkpt>
<trkpt lat="30.138287" lon="97.382868">
<time>2016-10-07T19:34:53Z</time></trkpt>
<trkpt lat="30.138417" lon="97.382628">
<time>2016-10-07T19:34:54Z</time></trkpt>
<trkpt lat="30.138527" lon="97.382458">
<time>2016-10-07T19:34:55Z</time></trkpt>
<trkpt lat="30.138637" lon="97.382318">
<time>2016-10-07T19:34:56Z</time></trkpt>
<trkpt lat="30.138778" lon="97.382168">
<time>2016-10-07T19:34:57Z</time></trkpt>
<trkpt lat="30.138938" lon="97.382038">
<time>2016-10-07T19:34:58Z</time></trkpt>
<trkpt lat="30.139088" lon="97.381939">
<time>2016-10-07T19:34:59Z</time></trkpt>
<trkpt lat="30.139238" lon="97.381859">
<time>2016-10-07T19:35:00Z</time></trkpt>
<trkpt lat="30.139428" lon="97.381779">
<time>2016-10-07T19:35:01Z</time></trkpt>
<trkpt lat="30.139638" lon="97.381709">
<time>2016-10-07T19:35:02Z</time></trkpt>
<trkpt lat="30.139938" lon="97.381609">
<time>2016-10-07T19:35:03Z</time></trkpt>
<trkpt lat="30.140198" lon="97.381519">
<time>2016-10-07T19:35:04Z</time></trkpt>
<trkpt lat="30.140468" lon="97.381429">
<time>2016-10-07T19:35:05Z</time></trkpt>
<trkpt lat="30.140788" lon="97.381319">
<time>2016-10-07T19:35:06Z</time></trkpt>
<trkpt lat="30.141008" lon="97.381229">
<time>2016-10-07T19:35:07Z</time></trkpt>
<trkpt lat="30.141198" lon="97.381119">
<time>2016-10-07T19:35:08Z</time></trkpt>
<trkpt lat="30.141348" lon="97.381019">
<time>2016-10-07T19:35:09Z</time></trkpt>
<trkpt lat="30.141519" lon="97.38088">
<time>2016-10-07T19:35:10Z</time></trkpt>
<trkpt lat="30.141649" lon="97.38075">
<time>2016-10-07T19:35:11Z</time></trkpt>
<trkpt lat="30.141829" lon="97.38054">
<time>2016-10-07T19:35:12Z</time></trkpt>
<trkpt lat="30.142059" lon="97.3803">
<time>2016-10-07T19:35:13Z</time></trkpt>
<trkpt lat="30.142269" lon="97.380041">
<time>2016-10-07T19:35:14Z</time></trkpt>
<trkpt lat="30.14247" lon="97.379791">
<time>2016-10-07T19:35:15Z</time></trkpt>
<trkpt lat="30.14261" lon="97.379591">
<time>2016-10-07T19:35:16Z</time></trkpt>
<trkpt lat="30.14276" lon="97.379371">
<time>2016-10-07T19:35:17Z</time></trkpt>
<trkpt lat="30.14291" lon="97.379132">
<time>2016-10-07T19:35:18Z</time></trkpt>
<trkpt lat="30.143311" lon="97.378442">
<time>2016-10-07T19:35:19Z</time></trkpt>
<trkpt lat="30.143461" lon="97.378173">
<time>2016-10-07T19:35:20Z</time></trkpt>
<trkpt lat="30.143581" lon="97.377933">
<time>2016-10-07T19:35:21Z</time></trkpt>
<trkpt lat="30.143641" lon="97.377773">
<time>2016-10-07T19:35:22Z</time></trkpt>
<trkpt lat="30.143692" lon="97.377584">
<time>2016-10-07T19:35:23Z</time></trkpt>
<trkpt lat="30.143722" lon="97.377424">
<time>2016-10-07T19:35:24Z</time></trkpt>
<trkpt lat="30.143732" lon="97.377264">
<time>2016-10-07T19:35:25Z</time></trkpt>
<trkpt lat="30.143722" lon="97.377104">
<time>2016-10-07T19:35:26Z</time></trkpt>
<trkpt lat="30.143702" lon="97.376974">
<time>2016-10-07T19:35:27Z</time></trkpt>
<trkpt lat="30.143672" lon="97.376824">
<time>2016-10-07T19:35:28Z</time></trkpt>
<trkpt lat="30.143622" lon="97.376685">
<time>2016-10-07T19:35:29Z</time></trkpt>
<trkpt lat="30.143553" lon="97.376505">
<time>2016-10-07T19:35:30Z</time></trkpt>
<trkpt lat="30.143453" lon="97.376325">
<time>2016-10-07T19:35:31Z</time></trkpt>
<trkpt lat="30.143303" lon="97.376055">
<time>2016-10-07T19:35:32Z</time></trkpt>
<trkpt lat="30.143123" lon="97.375726">
<time>2016-10-07T19:35:33Z</time></trkpt>
<trkpt lat="30.142884" lon="97.375277">
<time>2016-10-07T19:35:34Z</time></trkpt>
<trkpt lat="30.142764" lon="97.375047">
<time>2016-10-07T19:35:35Z</time></trkpt>
<trkpt lat="30.142405" lon="97.374368">
<time>2016-10-07T19:35:36Z</time></trkpt>
<trkpt lat="30.142325" lon="97.374158">
<time>2016-10-07T19:35:37Z</time></trkpt>
<trkpt lat="30.142275" lon="97.374028">
<time>2016-10-07T19:35:38Z</time></trkpt>
<trkpt lat="30.142235" lon="97.373868">
<time>2016-10-07T19:35:39Z</time></trkpt>
<trkpt lat="30.142216" lon="97.373719">
<time>2016-10-07T19:35:40Z</time></trkpt>
<trkpt lat="30.142206" lon="97.373579">
<time>2016-10-07T19:35:41Z</time></trkpt>
<trkpt lat="30.142206" lon="97.373479">
<time>2016-10-07T19:35:42Z</time></trkpt>
<trkpt lat="30.142226" lon="97.373279">
<time>2016-10-07T19:35:43Z</time></trkpt>
<trkpt lat="30.142297" lon="97.37279">
<time>2016-10-07T19:35:44Z</time></trkpt>
<trkpt lat="30.142337" lon="97.37258">
<time>2016-10-07T19:35:45Z</time></trkpt>
<trkpt lat="30.142387" lon="97.372431">
<time>2016-10-07T19:35:46Z</time></trkpt>
<trkpt lat="30.142457" lon="97.372241">
<time>2016-10-07T19:35:47Z</time></trkpt>
<trkpt lat="30.142527" lon="97.372091">
<time>2016-10-07T19:35:48Z</time></trkpt>
<trkpt lat="30.142628" lon="97.371931">
<time>2016-10-07T19:35:49Z</time></trkpt>
<trkpt lat="30.142728" lon="97.371791">
<time>2016-10-07T19:35:50Z</time></trkpt>
<trkpt lat="30.142848" lon="97.371672">
<time>2016-10-07T19:35:51Z</time></trkpt>
<trkpt lat="30.142948" lon="97.371582">
<time>2016-10-07T19:35:52Z</time></trkpt>
<trkpt lat="30.143078" lon="97.371492">
<time>2016-10-07T19:35:53Z</time></trkpt>
<trkpt lat="30.143228" lon="97.371412">
<time>2016-10-07T19:35:54Z</time></trkpt>
<trkpt lat="30.143508" lon="97.371312">
<time>2016-10-07T19:35:55Z</time></trkpt>
<trkpt lat="30.143758" lon="97.371232">
<time>2016-10-07T19:35:56Z</time></trkpt>
<trkpt lat="30.144219" lon="97.371083">
<time>2016-10-07T19:35:57Z</time></trkpt>
<trkpt lat="30.144399" lon="97.371013">
<time>2016-10-07T19:35:58Z</time></trkpt>
<trkpt lat="30.144559" lon="97.370943">
<time>2016-10-07T19:35:59Z</time></trkpt>
<trkpt lat="30.144689" lon="97.370853">
<time>2016-10-07T19:36:00Z</time></trkpt>
<trkpt lat="30.144749" lon="97.370803">
<time>2016-10-07T19:36:01Z</time></trkpt>
<trkpt lat="30.144849" lon="97.370703">
<time>2016-10-07T19:36:02Z</time></trkpt>
<trkpt lat="30.144919" lon="97.370613">
<time>2016-10-07T19:36:03Z</time></trkpt>
<trkpt lat="30.144989" lon="97.370513">
<time>2016-10-07T19:36:04Z</time></trkpt>
<trkpt lat="30.145059" lon="97.370374">
<time>2016-10-07T19:36:05Z</time></trkpt>
<trkpt lat="30.14511" lon="97.370264">
<time>2016-10-07T19:36:06Z</time></trkpt>
<trkpt lat="30.14515" lon="97.370134">
<time>2016-10-07T19:36:07Z</time></trkpt>
<trkpt lat="30.1452" lon="97.369934">
<time>2016-10-07T19:36:08Z</time></trkpt>
<trkpt lat="30.14523" lon="97.369755">
<time>2016-10-07T19:36:09Z</time></trkpt>
<trkpt lat="30.145261" lon="97.369475">
<time>2016-10-07T19:36:10Z</time></trkpt>
<trkpt lat="30.145341" lon="97.368876">
<time>2016-10-07T19:36:11Z</time></trkpt>
<trkpt lat="30.145392" lon="97.368586">
<time>2016-10-07T19:36:12Z</time></trkpt>
<trkpt lat="30.145432" lon="97.368457">
<time>2016-10-07T19:36:13Z</time></trkpt>
<trkpt lat="30.145502" lon="97.368277">
<time>2016-10-07T19:36:14Z</time></trkpt>
<trkpt lat="30.145592" lon="97.368117">
<time>2016-10-07T19:36:15Z</time></trkpt>
<trkpt lat="30.145692" lon="97.367977">
<time>2016-10-07T19:36:16Z</time></trkpt>
<trkpt lat="30.145783" lon="97.367888">
<time>2016-10-07T19:36:17Z</time></trkpt>
<trkpt lat="30.145893" lon="97.367768">
<time>2016-10-07T19:36:18Z</time></trkpt>
<trkpt lat="30.146053" lon="97.367608">
<time>2016-10-07T19:36:19Z</time></trkpt>
<trkpt lat="30.146223" lon="97.367428">
<time>2016-10-07T19:36:20Z</time></trkpt>
<trkpt lat="30.146323" lon="97.367288">
<time>2016-10-07T19:36:21Z</time></trkpt>
<trkpt lat="30.146414" lon="97.367129">
<time>2016-10-07T19:36:22Z</time></trkpt>
<trkpt lat="30.146484" lon="97.366999">
<time>2016-10-07T19:36:23Z</time></trkpt>
<trkpt lat="30.146544" lon="97.366849">
<time>2016-10-07T19:36:24Z</time></trkpt>
<trkpt lat="30.146604" lon="97.36659">
<time>2016-10-07T19:36:25Z</time></trkpt>
<trkpt lat="30.146634" lon="97.36643">
<time>2016-10-07T19:36:26Z</time></trkpt>
<trkpt lat="30.146775" lon="97.365741">
<time>2016-10-07T19:36:27Z</time></trkpt>
<trkpt lat="30.146836" lon="97.365492">
<time>2016-10-07T19:36:28Z</time></trkpt>
<trkpt lat="30.146906" lon="97.365282">
<time>2016-10-07T19:36:29Z</time></trkpt>
<trkpt lat="30.146966" lon="97.365122">
<time>2016-10-07T19:36:30Z</time></trkpt>
<trkpt lat="30.147056" lon="97.364972">
<time>2016-10-07T19:36:31Z</time></trkpt>
<trkpt lat="30.147167" lon="97.364823">
<time>2016-10-07T19:36:32Z</time></trkpt>
<trkpt lat="30.147267" lon="97.364693">
<time>2016-10-07T19:36:33Z</time></trkpt>
<trkpt lat="30.147467" lon="97.364483">
<time>2016-10-07T19:36:34Z</time></trkpt>
<trkpt lat="30.147647" lon="97.364314">
<time>2016-10-07T19:36:35Z</time></trkpt>
<trkpt lat="30.147848" lon="97.364134">
<time>2016-10-07T19:36:36Z</time></trkpt>
<trkpt lat="30.148068" lon="97.363964">
<time>2016-10-07T19:36:37Z</time></trkpt>
<trkpt lat="30.148318" lon="97.363794">
<time>2016-10-07T19:36:38Z</time></trkpt>
<trkpt lat="30.148518" lon="97.363675">
<time>2016-10-07T19:36:39Z</time></trkpt>
<trkpt lat="30.148668" lon="97.363585">
<time>2016-10-07T19:36:40Z</time></trkpt>
<trkpt lat="30.148959" lon="97.363445">
<time>2016-10-07T19:36:41Z</time></trkpt>
<trkpt lat="30.149579" lon="97.363166">
<time>2016-10-07T19:36:42Z</time></trkpt>
<trkpt lat="30.149889" lon="97.363016">
<time>2016-10-07T19:36:43Z</time></trkpt>
<trkpt lat="30.150189" lon="97.362836">
<time>2016-10-07T19:36:44Z</time></trkpt>
<trkpt lat="30.15037" lon="97.362666">
<time>2016-10-07T19:36:45Z</time></trkpt>
<trkpt lat="30.15052" lon="97.362467">
<time>2016-10-07T19:36:46Z</time></trkpt>
<trkpt lat="30.15061" lon="97.362277">
<time>2016-10-07T19:36:47Z</time></trkpt>
<trkpt lat="30.150681" lon="97.362067">
<time>2016-10-07T19:36:48Z</time></trkpt>
<trkpt lat="30.150711" lon="97.361948">
<time>2016-10-07T19:36:49Z</time></trkpt>
<trkpt lat="30.150721" lon="97.361888">
<time>2016-10-07T19:36:50Z</time></trkpt>
<trkpt lat="30.150731" lon="97.361808">
<time>2016-10-07T19:36:51Z</time></trkpt>
<trkpt lat="30.150721" lon="97.361678">
<time>2016-10-07T19:36:52Z</time></trkpt>
<trkpt lat="30.150701" lon="97.361518">
<time>2016-10-07T19:36:53Z</time></trkpt>
<trkpt lat="30.150672" lon="97.361379">
<time>2016-10-07T19:36:54Z</time></trkpt>
<trkpt lat="30.150612" lon="97.361189">
<time>2016-10-07T19:36:55Z</time></trkpt>
<trkpt lat="30.150572" lon="97.361059">
<time>2016-10-07T19:36:56Z</time></trkpt>
<trkpt lat="30.150522" lon="97.36092">
<time>2016-10-07T19:36:57Z</time></trkpt>
<trkpt lat="30.150472" lon="97.3608">
<time>2016-10-07T19:36:58Z</time></trkpt>
<trkpt lat="30.150433" lon="97.36072">
<time>2016-10-07T19:36:59Z</time></trkpt>
<trkpt lat="30.150393" lon="97.36066">
<time>2016-10-07T19:37:00Z</time></trkpt>
<trkpt lat="30.150313" lon="97.36052">
<time>2016-10-07T19:37:01Z</time></trkpt>
<trkpt lat="30.150283" lon="97.360441">
<time>2016-10-07T19:37:02Z</time></trkpt>
<trkpt lat="30.150243" lon="97.360321">
<time>2016-10-07T19:37:03Z</time></trkpt>
<trkpt lat="30.150203" lon="97.360211">
<time>2016-10-07T19:37:04Z</time></trkpt>
<trkpt lat="30.150184" lon="97.360071">
<time>2016-10-07T19:37:05Z</time></trkpt>
<trkpt lat="30.150174" lon="97.359882">
<time>2016-10-07T19:37:06Z</time></trkpt>
<trkpt lat="30.150174" lon="97.359712">
<time>2016-10-07T19:37:07Z</time></trkpt>
<trkpt lat="30.150184" lon="97.359582">
<time>2016-10-07T19:37:08Z</time></trkpt>
<trkpt lat="30.150215" lon="97.359323">
<time>2016-10-07T19:37:09Z</time></trkpt>
<trkpt lat="30.150265" lon="97.359053">
<time>2016-10-07T19:37:10Z</time></trkpt>
<trkpt lat="30.150315" lon="97.358854">
<time>2016-10-07T19:37:11Z</time></trkpt>
<trkpt lat="30.150376" lon="97.358704">
<time>2016-10-07T19:37:12Z</time></trkpt>
<trkpt lat="30.150506" lon="97.358464">
<time>2016-10-07T19:37:13Z</time></trkpt>
<trkpt lat="30.150616" lon="97.358315">
<time>2016-10-07T19:37:14Z</time></trkpt>
<trkpt lat="30.150716" lon="97.358205">
<time>2016-10-07T19:37:15Z</time></trkpt>
<trkpt lat="30.150817" lon="97.358095">
<time>2016-10-07T19:37:16Z</time></trkpt>
<trkpt lat="30.150997" lon="97.357925">
<time>2016-10-07T19:37:17Z</time></trkpt>
<trkpt lat="30.151177" lon="97.357766">
<time>2016-10-07T19:37:18Z</time></trkpt>
<trkpt lat="30.151347" lon="97.357646">
<time>2016-10-07T19:37:19Z</time></trkpt>
<trkpt lat="30.151597" lon="97.357516">
<time>2016-10-07T19:37:20Z</time></trkpt>
<trkpt lat="30.151758" lon="97.357446">
<time>2016-10-07T19:37:21Z</time></trkpt>
<trkpt lat="30.151918" lon="97.357396">
<time>2016-10-07T19:37:22Z</time></trkpt>
<trkpt lat="30.152098" lon="97.357346">
<time>2016-10-07T19:37:23Z</time></trkpt>
<trkpt lat="30.152268" lon="97.357297">
<time>2016-10-07T19:37:24Z</time></trkpt>
<trkpt lat="30.152448" lon="97.357237">
<time>2016-10-07T19:37:25Z</time></trkpt>
<trkpt lat="30.152618" lon="97.357147">
<time>2016-10-07T19:37:26Z</time></trkpt>
<trkpt lat="30.152788" lon="97.357047">
<time>2016-10-07T19:37:27Z</time></trkpt>
<trkpt lat="30.152928" lon="97.356937">
<time>2016-10-07T19:37:28Z</time></trkpt>
<trkpt lat="30.153039" lon="97.356817">
<time>2016-10-07T19:37:29Z</time></trkpt>
<trkpt lat="30.153109" lon="97.356738">
<time>2016-10-07T19:37:30Z</time></trkpt>
<trkpt lat="30.153179" lon="97.356638">
<time>2016-10-07T19:37:31Z</time></trkpt>
<trkpt lat="30.153299" lon="97.356468">
<time>2016-10-07T19:37:32Z</time></trkpt>
<trkpt lat="30.153379" lon="97.356318">
<time>2016-10-07T19:37:33Z</time></trkpt>
<trkpt lat="30.15349" lon="97.356119">
<time>2016-10-07T19:37:34Z</time></trkpt>
<trkpt lat="30.15373" lon="97.35566">
<time>2016-10-07T19:37:35Z</time></trkpt>
<trkpt lat="30.154031" lon="97.355101">
<time>2016-10-07T19:37:36Z</time></trkpt>
<trkpt lat="30.154643" lon="97.353943">
<time>2016-10-07T19:37:37Z</time></trkpt>
<trkpt lat="30.154994" lon="97.353295">
<time>2016-10-07T19:37:38Z</time></trkpt>
<trkpt lat="30.155255" lon="97.352786">
<time>2016-10-07T19:37:39Z</time></trkpt>
<trkpt lat="30.155365" lon="97.352526">
<time>2016-10-07T19:37:40Z</time></trkpt>
<trkpt lat="30.155416" lon="97.352396">
<time>2016-10-07T19:37:41Z</time></trkpt>
<trkpt lat="30.155476" lon="97.352217">
<time>2016-10-07T19:37:42Z</time></trkpt>
<trkpt lat="30.155536" lon="97.351997">
<time>2016-10-07T19:37:43Z</time></trkpt>
<trkpt lat="30.155617" lon="97.351718">
<time>2016-10-07T19:37:44Z</time></trkpt>
<trkpt lat="30.155707" lon="97.351349">
<time>2016-10-07T19:37:45Z</time></trkpt>
<trkpt lat="30.155758" lon="97.351189">
<time>2016-10-07T19:37:46Z</time></trkpt>
<trkpt lat="30.155838" lon="97.350959">
<time>2016-10-07T19:37:47Z</time></trkpt>
<trkpt lat="30.155928" lon="97.35076">
<time>2016-10-07T19:37:48Z</time></trkpt>
<trkpt lat="30.156069" lon="97.35055">
<time>2016-10-07T19:37:49Z</time></trkpt>
<trkpt lat="30.156269" lon="97.350321">
<time>2016-10-07T19:37:50Z</time></trkpt>
<trkpt lat="30.157481" lon="97.349143">
<time>2016-10-07T19:37:51Z</time></trkpt>
<trkpt lat="30.157702" lon="97.348904">
<time>2016-10-07T19:37:52Z</time></trkpt>
<trkpt lat="30.157892" lon="97.348654">
<time>2016-10-07T19:37:53Z</time></trkpt>
<trkpt lat="30.158033" lon="97.348375">
<time>2016-10-07T19:37:54Z</time></trkpt>
<trkpt lat="30.158173" lon="97.347966">
<time>2016-10-07T19:37:55Z</time></trkpt>
<trkpt lat="30.158234" lon="97.347686">
<time>2016-10-07T19:37:56Z</time></trkpt>
<trkpt lat="30.158304" lon="97.347297">
<time>2016-10-07T19:37:57Z</time></trkpt>
<trkpt lat="30.158325" lon="97.346968">
<time>2016-10-07T19:37:58Z</time></trkpt>
<trkpt lat="30.158336" lon="97.346599">
<time>2016-10-07T19:37:59Z</time></trkpt>
<trkpt lat="30.158347" lon="97.34605">
<time>2016-10-07T19:38:00Z</time></trkpt>
<trkpt lat="30.158367" lon="97.345691">
<time>2016-10-07T19:38:01Z</time></trkpt>
<trkpt lat="30.158418" lon="97.345421">
<time>2016-10-07T19:38:02Z</time></trkpt>
<trkpt lat="30.158468" lon="97.345252">
<time>2016-10-07T19:38:03Z</time></trkpt>
<trkpt lat="30.158518" lon="97.345122">
<time>2016-10-07T19:38:04Z</time></trkpt>
<trkpt lat="30.158609" lon="97.344923">
<time>2016-10-07T19:38:05Z</time></trkpt>
<trkpt lat="30.158799" lon="97.344474">
<time>2016-10-07T19:38:06Z</time></trkpt>
<trkpt lat="30.159" lon="97.344034">
<time>2016-10-07T19:38:07Z</time></trkpt>
<trkpt lat="30.159191" lon="97.343795">
<time>2016-10-07T19:38:08Z</time></trkpt>
<trkpt lat="30.159311" lon="97.343645">
<time>2016-10-07T19:38:09Z</time></trkpt>
<trkpt lat="30.159481" lon="97.343486">
<time>2016-10-07T19:38:10Z</time></trkpt>
<trkpt lat="30.159591" lon="97.343396">
<time>2016-10-07T19:38:11Z</time></trkpt>
<trkpt lat="30.159932" lon="97.343156">
<time>2016-10-07T19:38:12Z</time></trkpt>
<trkpt lat="30.160142" lon="97.343017">
<time>2016-10-07T19:38:13Z</time></trkpt>
<trkpt lat="30.160402" lon="97.342857">
<time>2016-10-07T19:38:14Z</time></trkpt>
<trkpt lat="30.160613" lon="97.342747">
<time>2016-10-07T19:38:15Z</time></trkpt>
<trkpt lat="30.160883" lon="97.342648">
<time>2016-10-07T19:38:16Z</time></trkpt>
<trkpt lat="30.161123" lon="97.342578">
<time>2016-10-07T19:38:17Z</time></trkpt>
<trkpt lat="30.161373" lon="97.342518">
<time>2016-10-07T19:38:18Z</time></trkpt>
<trkpt lat="30.161693" lon="97.342468">
<time>2016-10-07T19:38:19Z</time></trkpt>
<trkpt lat="30.161893" lon="97.342458">
<time>2016-10-07T19:38:20Z</time></trkpt>
<trkpt lat="30.162053" lon="97.342458">
<time>2016-10-07T19:38:21Z</time></trkpt>
<trkpt lat="30.162203" lon="97.342468">
<time>2016-10-07T19:38:22Z</time></trkpt>
<trkpt lat="30.162453" lon="97.342498">
<time>2016-10-07T19:38:23Z</time></trkpt>
<trkpt lat="30.162823" lon="97.342568">
<time>2016-10-07T19:38:24Z</time></trkpt>
<trkpt lat="30.162963" lon="97.342578">
<time>2016-10-07T19:38:25Z</time></trkpt>
<trkpt lat="30.163093" lon="97.342568">
<time>2016-10-07T19:38:26Z</time></trkpt>
<trkpt lat="30.163203" lon="97.342558">
<time>2016-10-07T19:38:27Z</time></trkpt>
<trkpt lat="30.163353" lon="97.342528">
<time>2016-10-07T19:38:28Z</time></trkpt>
<trkpt lat="30.163483" lon="97.342478">
<time>2016-10-07T19:38:29Z</time></trkpt>
<trkpt lat="30.163613" lon="97.342418">
<time>2016-10-07T19:38:30Z</time></trkpt>
<trkpt lat="30.163753" lon="97.342338">
<time>2016-10-07T19:38:31Z</time></trkpt>
<trkpt lat="30.163903" lon="97.342228">
<time>2016-10-07T19:38:32Z</time></trkpt>
<trkpt lat="30.164074" lon="97.342069">
<time>2016-10-07T19:38:33Z</time></trkpt>
<trkpt lat="30.164344" lon="97.341809">
<time>2016-10-07T19:38:34Z</time></trkpt>
<trkpt lat="30.164725" lon="97.34146">
<time>2016-10-07T19:38:35Z</time></trkpt>
<trkpt lat="30.165015" lon="97.341191">
<time>2016-10-07T19:38:36Z</time></trkpt>
<trkpt lat="30.165326" lon="97.340822">
<time>2016-10-07T19:38:37Z</time></trkpt>
<trkpt lat="30.165497" lon="97.340552">
<time>2016-10-07T19:38:38Z</time></trkpt>
<trkpt lat="30.165667" lon="97.340173">
<time>2016-10-07T19:38:39Z</time></trkpt>
<trkpt lat="30.165798" lon="97.339884">
<time>2016-10-07T19:38:40Z</time></trkpt>
<trkpt lat="30.165958" lon="97.339525">
<time>2016-10-07T19:38:41Z</time></trkpt>
<trkpt lat="30.166109" lon="97.339225">
<time>2016-10-07T19:38:42Z</time></trkpt>
<trkpt lat="30.166229" lon="97.339016">
<time>2016-10-07T19:38:43Z</time></trkpt>
<trkpt lat="30.16631" lon="97.338896">
<time>2016-10-07T19:38:44Z</time></trkpt>
<trkpt lat="30.16641" lon="97.338766">
<time>2016-10-07T19:38:45Z</time></trkpt>
<trkpt lat="30.1665" lon="97.338667">
<time>2016-10-07T19:38:46Z</time></trkpt>
<trkpt lat="30.16662" lon="97.338517">
<time>2016-10-07T19:38:47Z</time></trkpt>
<trkpt lat="30.166711" lon="97.338417">
<time>2016-10-07T19:38:48Z</time></trkpt>
<trkpt lat="30.166711" lon="97.338407">
<time>2016-10-07T19:38:49Z</time></trkpt>
<trkpt lat="30.166881" lon="97.338218">
<time>2016-10-07T19:38:50Z</time></trkpt>
<trkpt lat="30.167041" lon="97.338058">
<time>2016-10-07T19:38:51Z</time></trkpt>
<trkpt lat="30.167191" lon="97.337938">
<time>2016-10-07T19:38:52Z</time></trkpt>
<trkpt lat="30.167312" lon="97.337878">
<time>2016-10-07T19:38:53Z</time></trkpt>
<trkpt lat="30.167422" lon="97.337829">
<time>2016-10-07T19:38:54Z</time></trkpt>
<trkpt lat="30.167552" lon="97.337779">
<time>2016-10-07T19:38:55Z</time></trkpt>
<trkpt lat="30.167682" lon="97.337749">
<time>2016-10-07T19:38:56Z</time></trkpt>
<trkpt lat="30.167912" lon="97.337699">
<time>2016-10-07T19:38:57Z</time></trkpt>
<trkpt lat="30.168152" lon="97.337669">
<time>2016-10-07T19:38:58Z</time></trkpt>
<trkpt lat="30.168362" lon="97.337659">
<time>2016-10-07T19:38:59Z</time></trkpt>
<trkpt lat="30.168672" lon="97.337679">
<time>2016-10-07T19:39:00Z</time></trkpt>
<trkpt lat="30.168902" lon="97.337699">
<time>2016-10-07T19:39:01Z</time></trkpt>
<trkpt lat="30.169292" lon="97.337739">
<time>2016-10-07T19:39:02Z</time></trkpt>
<trkpt lat="30.169532" lon="97.337739">
<time>2016-10-07T19:39:03Z</time></trkpt>
<trkpt lat="30.169742" lon="97.337709">
<time>2016-10-07T19:39:04Z</time></trkpt>
<trkpt lat="30.169902" lon="97.337649">
<time>2016-10-07T19:39:05Z</time></trkpt>
<trkpt lat="30.170042" lon="97.337579">
<time>2016-10-07T19:39:06Z</time></trkpt>
<trkpt lat="30.170162" lon="97.337499">
<time>2016-10-07T19:39:07Z</time></trkpt>
<trkpt lat="30.170272" lon="97.33738">
<time>2016-10-07T19:39:08Z</time></trkpt>
<trkpt lat="30.170383" lon="97.33724">
<time>2016-10-07T19:39:09Z</time></trkpt>
<trkpt lat="30.170463" lon="97.33709">
<time>2016-10-07T19:39:10Z</time></trkpt>
<trkpt lat="30.170543" lon="97.336931">
<time>2016-10-07T19:39:11Z</time></trkpt>
<trkpt lat="30.170594" lon="97.336751">
<time>2016-10-07T19:39:12Z</time></trkpt>
<trkpt lat="30.170624" lon="97.336552">
<time>2016-10-07T19:39:13Z</time></trkpt>
<trkpt lat="30.170644" lon="97.336332">
<time>2016-10-07T19:39:14Z</time></trkpt>
<trkpt lat="30.170665" lon="97.335823">
<time>2016-10-07T19:39:15Z</time></trkpt>
<trkpt lat="30.170686" lon="97.335584">
<time>2016-10-07T19:39:16Z</time></trkpt>
<trkpt lat="30.170726" lon="97.335384">
<time>2016-10-07T19:39:17Z</time></trkpt>
<trkpt lat="30.170766" lon="97.335235">
<time>2016-10-07T19:39:18Z</time></trkpt>
<trkpt lat="30.170837" lon="97.335085">
<time>2016-10-07T19:39:19Z</time></trkpt>
<trkpt lat="30.170917" lon="97.334935">
<time>2016-10-07T19:39:20Z</time></trkpt>
<trkpt lat="30.171017" lon="97.334776">
<time>2016-10-07T19:39:21Z</time></trkpt>
<trkpt lat="30.171158" lon="97.334596">
<time>2016-10-07T19:39:22Z</time></trkpt>
<trkpt lat="30.171448" lon="97.334277">
<time>2016-10-07T19:39:23Z</time></trkpt>
<trkpt lat="30.171619" lon="97.334127">
<time>2016-10-07T19:39:24Z</time></trkpt>
<trkpt lat="30.171769" lon="97.333998">
<time>2016-10-07T19:39:25Z</time></trkpt>
<trkpt lat="30.171959" lon="97.333868">
<time>2016-10-07T19:39:26Z</time></trkpt>
<trkpt lat="30.172149" lon="97.333798">
<time>2016-10-07T19:39:27Z</time></trkpt>
<trkpt lat="30.172309" lon="97.333758">
<time>2016-10-07T19:39:28Z</time></trkpt>
<trkpt lat="30.172459" lon="97.333758">
<time>2016-10-07T19:39:29Z</time></trkpt>
<trkpt lat="30.172609" lon="97.333768">
<time>2016-10-07T19:39:30Z</time></trkpt>
<trkpt lat="30.172749" lon="97.333798">
<time>2016-10-07T19:39:31Z</time></trkpt>
<trkpt lat="30.172909" lon="97.333848">
<time>2016-10-07T19:39:32Z</time></trkpt>
<trkpt lat="30.173159" lon="97.333958">
<time>2016-10-07T19:39:33Z</time></trkpt>
<trkpt lat="30.173469" lon="97.334107">
<time>2016-10-07T19:39:34Z</time></trkpt>
<trkpt lat="30.173968" lon="97.334337">
<time>2016-10-07T19:39:35Z</time></trkpt>
<trkpt lat="30.174498" lon="97.334576">
<time>2016-10-07T19:39:36Z</time></trkpt>
<trkpt lat="30.174727" lon="97.334676">
<time>2016-10-07T19:39:37Z</time></trkpt>
<trkpt lat="30.174947" lon="97.334736">
<time>2016-10-07T19:39:38Z</time></trkpt>
<trkpt lat="30.175127" lon="97.334756">
<time>2016-10-07T19:39:39Z</time></trkpt>
<trkpt lat="30.175307" lon="97.334766">
<time>2016-10-07T19:39:40Z</time></trkpt>
<trkpt lat="30.175477" lon="97.334746">
<time>2016-10-07T19:39:41Z</time></trkpt>
<trkpt lat="30.175687" lon="97.334696">
<time>2016-10-07T19:39:42Z</time></trkpt>
<trkpt lat="30.175848" lon="97.334626">
<time>2016-10-07T19:39:43Z</time></trkpt>
<trkpt lat="30.175998" lon="97.334556">
<time>2016-10-07T19:39:44Z</time></trkpt>
<trkpt lat="30.176438" lon="97.334317">
<time>2016-10-07T19:39:45Z</time></trkpt>
<trkpt lat="30.176608" lon="97.334217">
<time>2016-10-07T19:39:46Z</time></trkpt>
<trkpt lat="30.176899" lon="97.334047">
<time>2016-10-07T19:39:47Z</time></trkpt>
<trkpt lat="30.177119" lon="97.333908">
<time>2016-10-07T19:39:48Z</time></trkpt>
<trkpt lat="30.177459" lon="97.333648">
<time>2016-10-07T19:39:49Z</time></trkpt>
<trkpt lat="30.17774" lon="97.333429">
<time>2016-10-07T19:39:50Z</time></trkpt>
<trkpt lat="30.17795" lon="97.333239">
<time>2016-10-07T19:39:51Z</time></trkpt>
<trkpt lat="30.17809" lon="97.33308">
<time>2016-10-07T19:39:52Z</time></trkpt>
<trkpt lat="30.178271" lon="97.33286">
<time>2016-10-07T19:39:53Z</time></trkpt>
<trkpt lat="30.178401" lon="97.33268">
<time>2016-10-07T19:39:54Z</time></trkpt>
<trkpt lat="30.178852" lon="97.331992">
<time>2016-10-07T19:39:55Z</time></trkpt>
<trkpt lat="30.179093" lon="97.331653">
<time>2016-10-07T19:39:56Z</time></trkpt>
<trkpt lat="30.179324" lon="97.331374">
<time>2016-10-07T19:39:57Z</time></trkpt>
<trkpt lat="30.179564" lon="97.331124">
<time>2016-10-07T19:39:58Z</time></trkpt>
<trkpt lat="30.180035" lon="97.330725">
<time>2016-10-07T19:39:59Z</time></trkpt>
<trkpt lat="30.180456" lon="97.330376">
<time>2016-10-07T19:40:00Z</time></trkpt>
<trkpt lat="30.181097" lon="97.329847">
<time>2016-10-07T19:40:01Z</time></trkpt>
<trkpt lat="30.181617" lon="97.329438">
<time>2016-10-07T19:40:02Z</time></trkpt>
<trkpt lat="30.181808" lon="97.329298">
<time>2016-10-07T19:40:03Z</time></trkpt>
<trkpt lat="30.182008" lon="97.329169">
<time>2016-10-07T19:40:04Z</time></trkpt>
<trkpt lat="30.182198" lon="97.329089">
<time>2016-10-07T19:40:05Z</time></trkpt>
<trkpt lat="30.182398" lon="97.329019">
<time>2016-10-07T19:40:06Z</time></trkpt>
<trkpt lat="30.182628" lon="97.328969">
<time>2016-10-07T19:40:07Z</time></trkpt>
<trkpt lat="30.182798" lon="97.328949">
<time>2016-10-07T19:40:08Z</time></trkpt>
<trkpt lat="30.182998" lon="97.328959">
<time>2016-10-07T19:40:09Z</time></trkpt>
<trkpt lat="30.183308" lon="97.328999">
<time>2016-10-07T19:40:10Z</time></trkpt>
<trkpt lat="30.183588" lon="97.329049">
<time>2016-10-07T19:40:11Z</time></trkpt>
<trkpt lat="30.184018" lon="97.329119">
<time>2016-10-07T19:40:12Z</time></trkpt>
<trkpt lat="30.184228" lon="97.329139">
<time>2016-10-07T19:40:13Z</time></trkpt>
<trkpt lat="30.184358" lon="97.329139">
<time>2016-10-07T19:40:14Z</time></trkpt>
<trkpt lat="30.184508" lon="97.329119">
<time>2016-10-07T19:40:15Z</time></trkpt>
<trkpt lat="30.184668" lon="97.329069">
<time>2016-10-07T19:40:16Z</time></trkpt>
<trkpt lat="30.184758" lon="97.329019">
<time>2016-10-07T19:40:17Z</time></trkpt>
<trkpt lat="30.184858" lon="97.328969">
<time>2016-10-07T19:40:18Z</time></trkpt>
<trkpt lat="30.184988" lon="97.328879">
<time>2016-10-07T19:40:19Z</time></trkpt>
<trkpt lat="30.185209" lon="97.32868">
<time>2016-10-07T19:40:20Z</time></trkpt>
<trkpt lat="30.185399" lon="97.3285">
<time>2016-10-07T19:40:21Z</time></trkpt>
<trkpt lat="30.18565" lon="97.328261">
<time>2016-10-07T19:40:22Z</time></trkpt>
<trkpt lat="30.18592" lon="97.328011">
<time>2016-10-07T19:40:23Z</time></trkpt>
<trkpt lat="30.18611" lon="97.327842">
<time>2016-10-07T19:40:24Z</time></trkpt>
<trkpt lat="30.186301" lon="97.327712">
<time>2016-10-07T19:40:25Z</time></trkpt>
<trkpt lat="30.186501" lon="97.327582">
<time>2016-10-07T19:40:26Z</time></trkpt>
<trkpt lat="30.186671" lon="97.327493">
<time>2016-10-07T19:40:27Z</time></trkpt>
<trkpt lat="30.187081" lon="97.327273">
<time>2016-10-07T19:40:28Z</time></trkpt>
<trkpt lat="30.187452" lon="97.327074">
<time>2016-10-07T19:40:29Z</time></trkpt>
<trkpt lat="30.187662" lon="97.326954">
<time>2016-10-07T19:40:30Z</time></trkpt>
<trkpt lat="30.187832" lon="97.326854">
<time>2016-10-07T19:40:31Z</time></trkpt>
<trkpt lat="30.187972" lon="97.326725">
<time>2016-10-07T19:40:32Z</time></trkpt>
<trkpt lat="30.188103" lon="97.326575">
<time>2016-10-07T19:40:33Z</time></trkpt>
<trkpt lat="30.188213" lon="97.326385">
<time>2016-10-07T19:40:34Z</time></trkpt>
<trkpt lat="30.188344" lon="97.326136">
<time>2016-10-07T19:40:35Z</time></trkpt>
<trkpt lat="30.188434" lon="97.325916">
<time>2016-10-07T19:40:36Z</time></trkpt>
<trkpt lat="30.188514" lon="97.325747">
<time>2016-10-07T19:40:37Z</time></trkpt>
<trkpt lat="30.188635" lon="97.325537">
<time>2016-10-07T19:40:38Z</time></trkpt>
<trkpt lat="30.188725" lon="97.325408">
<time>2016-10-07T19:40:39Z</time></trkpt>
<trkpt lat="30.188815" lon="97.325298">
<time>2016-10-07T19:40:40Z</time></trkpt>
<trkpt lat="30.188905" lon="97.325198">
<time>2016-10-07T19:40:41Z</time></trkpt>
<trkpt lat="30.189005" lon="97.325098">
<time>2016-10-07T19:40:42Z</time></trkpt>
<trkpt lat="30.189206" lon="97.324939">
<time>2016-10-07T19:40:43Z</time></trkpt>
<trkpt lat="30.189496" lon="97.324709">
<time>2016-10-07T19:40:44Z</time></trkpt>
<trkpt lat="30.189817" lon="97.32447">
<time>2016-10-07T19:40:45Z</time></trkpt>
<trkpt lat="30.190107" lon="97.32425">
<time>2016-10-07T19:40:46Z</time></trkpt>
<trkpt lat="30.190297" lon="97.324081">
<time>2016-10-07T19:40:47Z</time></trkpt>
<trkpt lat="30.190498" lon="97.323901">
<time>2016-10-07T19:40:48Z</time></trkpt>
<trkpt lat="30.190818" lon="97.323582">
<time>2016-10-07T19:40:49Z</time></trkpt>
<trkpt lat="30.191439" lon="97.322993">
<time>2016-10-07T19:40:50Z</time></trkpt>
<trkpt lat="30.19189" lon="97.322544">
<time>2016-10-07T19:40:51Z</time></trkpt>
<trkpt lat="30.192251" lon="97.322205">
<time>2016-10-07T19:40:52Z</time></trkpt>
<trkpt lat="30.192541" lon="97.321946">
<time>2016-10-07T19:40:53Z</time></trkpt>
<trkpt lat="30.192752" lon="97.321806">
<time>2016-10-07T19:40:54Z</time></trkpt>
<trkpt lat="30.193032" lon="97.321657">
<time>2016-10-07T19:40:55Z</time></trkpt>
<trkpt lat="30.193392" lon="97.321477">
<time>2016-10-07T19:40:56Z</time></trkpt>
<trkpt lat="30.193653" lon="97.321337">
<time>2016-10-07T19:40:57Z</time></trkpt>
<trkpt lat="30.193893" lon="97.321198">
<time>2016-10-07T19:40:58Z</time></trkpt>
<trkpt lat="30.194403" lon="97.320858">
<time>2016-10-07T19:40:59Z</time></trkpt>
<trkpt lat="30.194924" lon="97.320489">
<time>2016-10-07T19:41:00Z</time></trkpt>
<trkpt lat="30.195164" lon="97.3203">
<time>2016-10-07T19:41:01Z</time></trkpt>
<trkpt lat="30.195375" lon="97.3201">
<time>2016-10-07T19:41:02Z</time></trkpt>
<trkpt lat="30.195495" lon="97.31997">
<time>2016-10-07T19:41:03Z</time></trkpt>
<trkpt lat="30.195605" lon="97.319831">
<time>2016-10-07T19:41:04Z</time></trkpt>
<trkpt lat="30.195686" lon="97.319721">
<time>2016-10-07T19:41:05Z</time></trkpt>
<trkpt lat="30.195746" lon="97.319601">
<time>2016-10-07T19:41:06Z</time></trkpt>
<trkpt lat="30.195896" lon="97.319312">
<time>2016-10-07T19:41:07Z</time></trkpt>
<trkpt lat="30.195977" lon="97.319113">
<time>2016-10-07T19:41:08Z</time></trkpt>
<trkpt lat="30.196037" lon="97.318913">
<time>2016-10-07T19:41:09Z</time></trkpt>
<trkpt lat="30.196088" lon="97.318664">
<time>2016-10-07T19:41:10Z</time></trkpt>
<trkpt lat="30.196118" lon="97.318494">
<time>2016-10-07T19:41:11Z</time></trkpt>
<trkpt lat="30.196138" lon="97.318284">
<time>2016-10-07T19:41:12Z</time></trkpt>
<trkpt lat="30.196159" lon="97.317925">
<time>2016-10-07T19:41:13Z</time></trkpt>
<trkpt lat="30.1962" lon="97.317526">
<time>2016-10-07T19:41:14Z</time></trkpt>
<trkpt lat="30.19622" lon="97.317317">
<time>2016-10-07T19:41:15Z</time></trkpt>
<trkpt lat="30.19626" lon="97.317167">
<time>2016-10-07T19:41:16Z</time></trkpt>
<trkpt lat="30.196321" lon="97.316958">
<time>2016-10-07T19:41:17Z</time></trkpt>
<trkpt lat="30.196401" lon="97.316748">
<time>2016-10-07T19:41:18Z</time></trkpt>
<trkpt lat="30.196502" lon="97.316529">
<time>2016-10-07T19:41:19Z</time></trkpt>
<trkpt lat="30.196612" lon="97.316289">
<time>2016-10-07T19:41:20Z</time></trkpt>
<trkpt lat="30.196742" lon="97.31605">
<time>2016-10-07T19:41:21Z</time></trkpt>
<trkpt lat="30.196843" lon="97.3159">
<time>2016-10-07T19:41:22Z</time></trkpt>
<trkpt lat="30.196943" lon="97.31577">
<time>2016-10-07T19:41:23Z</time></trkpt>
<trkpt lat="30.197043" lon="97.315651">
<time>2016-10-07T19:41:24Z</time></trkpt>
<trkpt lat="30.197284" lon="97.315441">
<time>2016-10-07T19:41:25Z</time></trkpt>
<trkpt lat="30.197594" lon="97.315152">
<time>2016-10-07T19:41:26Z</time></trkpt>
<trkpt lat="30.198005" lon="97.314803">
<time>2016-10-07T19:41:27Z</time></trkpt>
<trkpt lat="30.198365" lon="97.314493">
<time>2016-10-07T19:41:28Z</time></trkpt>
<trkpt lat="30.198736" lon="97.314154">
<time>2016-10-07T19:41:29Z</time></trkpt>
<trkpt lat="30.199006" lon="97.313925">
<time>2016-10-07T19:41:30Z</time></trkpt>
<trkpt lat="30.199227" lon="97.313735">
<time>2016-10-07T19:41:31Z</time></trkpt>
<trkpt lat="30.199477" lon="97.313516">
<time>2016-10-07T19:41:32Z</time></trkpt>
<trkpt lat="30.199647" lon="97.313366">
<time>2016-10-07T19:41:33Z</time></trkpt>
<trkpt lat="30.199818" lon="97.313206">
<time>2016-10-07T19:41:34Z</time></trkpt>
<trkpt lat="30.199938" lon="97.313077">
<time>2016-10-07T19:41:35Z</time></trkpt>
<trkpt lat="30.200048" lon="97.312947">
<time>2016-10-07T19:41:36Z</time></trkpt>
<trkpt lat="30.200158" lon="97.312807">
<time>2016-10-07T19:41:37Z</time></trkpt>
<trkpt lat="30.200309" lon="97.312598">
<time>2016-10-07T19:41:38Z</time></trkpt>
<trkpt lat="30.200429" lon="97.312398">
<time>2016-10-07T19:41:39Z</time></trkpt>
<trkpt lat="30.200529" lon="97.312219">
<time>2016-10-07T19:41:40Z</time></trkpt>
<trkpt lat="30.20076" lon="97.311799">
<time>2016-10-07T19:41:41Z</time></trkpt>
<trkpt lat="30.200981" lon="97.3114">
<time>2016-10-07T19:41:42Z</time></trkpt>
<trkpt lat="30.201161" lon="97.311071">
<time>2016-10-07T19:41:43Z</time></trkpt>
<trkpt lat="30.201402" lon="97.310642">
<time>2016-10-07T19:41:44Z</time></trkpt>
<trkpt lat="30.201593" lon="97.310363">
<time>2016-10-07T19:41:45Z</time></trkpt>
<trkpt lat="30.201783" lon="97.310123">
<time>2016-10-07T19:41:46Z</time></trkpt>
<trkpt lat="30.202194" lon="97.309654">
<time>2016-10-07T19:41:47Z</time></trkpt>
<trkpt lat="30.202595" lon="97.309195">
<time>2016-10-07T19:41:48Z</time></trkpt>
<trkpt lat="30.202815" lon="97.308926">
<time>2016-10-07T19:41:49Z</time></trkpt>
<trkpt lat="30.202936" lon="97.308766">
<time>2016-10-07T19:41:50Z</time></trkpt>
<trkpt lat="30.203066" lon="97.308557">
<time>2016-10-07T19:41:51Z</time></trkpt>
<trkpt lat="30.203206" lon="97.308317">
<time>2016-10-07T19:41:52Z</time></trkpt>
<trkpt lat="30.203387" lon="97.307958">
<time>2016-10-07T19:41:53Z</time></trkpt>
<trkpt lat="30.203859" lon="97.30705">
<time>2016-10-07T19:41:54Z</time></trkpt>
<trkpt lat="30.20427" lon="97.306252">
<time>2016-10-07T19:41:55Z</time></trkpt>
<trkpt lat="30.204711" lon="97.305404">
<time>2016-10-07T19:41:56Z</time></trkpt>
<trkpt lat="30.205073" lon="97.304705">
<time>2016-10-07T19:41:57Z</time></trkpt>
<trkpt lat="30.205303" lon="97.304246">
<time>2016-10-07T19:41:58Z</time></trkpt>
<trkpt lat="30.205504" lon="97.303887">
<time>2016-10-07T19:41:59Z</time></trkpt>
<trkpt lat="30.205684" lon="97.303598">
<time>2016-10-07T19:42:00Z</time></trkpt>
<trkpt lat="30.205935" lon="97.303228">
<time>2016-10-07T19:42:01Z</time></trkpt>
<trkpt lat="30.206697" lon="97.302191">
<time>2016-10-07T19:42:02Z</time></trkpt>
<trkpt lat="30.207038" lon="97.301702">
<time>2016-10-07T19:42:03Z</time></trkpt>
<trkpt lat="30.207439" lon="97.301153">
<time>2016-10-07T19:42:04Z</time></trkpt>
<trkpt lat="30.207839" lon="97.300584">
<time>2016-10-07T19:42:05Z</time></trkpt>
<trkpt lat="30.20818" lon="97.300125">
<time>2016-10-07T19:42:06Z</time></trkpt>
<trkpt lat="30.208571" lon="97.299586">
<time>2016-10-07T19:42:07Z</time></trkpt>
<trkpt lat="30.209012" lon="97.298977">
<time>2016-10-07T19:42:08Z</time></trkpt>
<trkpt lat="30.209363" lon="97.298478">
<time>2016-10-07T19:42:09Z</time></trkpt>
<trkpt lat="30.209683" lon="97.298049">
<time>2016-10-07T19:42:10Z</time></trkpt>
<trkpt lat="30.209944" lon="97.29768">
<time>2016-10-07T19:42:11Z</time></trkpt>
<trkpt lat="30.210094" lon="97.29745">
<time>2016-10-07T19:42:12Z</time></trkpt>
<trkpt lat="30.210235" lon="97.297211">
<time>2016-10-07T19:42:13Z</time></trkpt>
<trkpt lat="30.210385" lon="97.296901">
<time>2016-10-07T19:42:14Z</time></trkpt>
<trkpt lat="30.210586" lon="97.296492">
<time>2016-10-07T19:42:15Z</time></trkpt>
<trkpt lat="30.210716" lon="97.296203">
<time>2016-10-07T19:42:16Z</time></trkpt>
<trkpt lat="30.210797" lon="97.295983">
<time>2016-10-07T19:42:17Z</time></trkpt>
<trkpt lat="30.210877" lon="97.295744">
<time>2016-10-07T19:42:18Z</time></trkpt>
<trkpt lat="30.210927" lon="97.295534">
<time>2016-10-07T19:42:19Z</time></trkpt>
<trkpt lat="30.210968" lon="97.295315">
<time>2016-10-07T19:42:20Z</time></trkpt>
<trkpt lat="30.211159" lon="97.294177">
<time>2016-10-07T19:42:21Z</time></trkpt>
<trkpt lat="30.211351" lon="97.292949">
<time>2016-10-07T19:42:22Z</time></trkpt>
<trkpt lat="30.211422" lon="97.29246">
<time>2016-10-07T19:42:23Z</time></trkpt>
<trkpt lat="30.211422" lon="97.29246">
<time>2016-10-07T19:42:24Z</time></trkpt>
<trkpt lat="30.211152" lon="97.29235">
<time>2016-10-07T19:42:25Z</time></trkpt>
<trkpt lat="30.210982" lon="97.2923">
<time>2016-10-07T19:42:26Z</time></trkpt>
<trkpt lat="30.210702" lon="97.292241">
<time>2016-10-07T19:42:27Z</time></trkpt>
<trkpt lat="30.210422" lon="97.292171">
<time>2016-10-07T19:42:28Z</time></trkpt>
<trkpt lat="30.210013" lon="97.292081">
<time>2016-10-07T19:42:29Z</time></trkpt>
<trkpt lat="30.210003" lon="97.292081">
<time>2016-10-07T19:42:30Z</time></trkpt>
<trkpt lat="30.209863" lon="97.292041">
<time>2016-10-07T19:42:31Z</time></trkpt>
<trkpt lat="30.209703" lon="97.291981">
<time>2016-10-07T19:42:32Z</time></trkpt>
<trkpt lat="30.209613" lon="97.291931">
<time>2016-10-07T19:42:33Z</time></trkpt>
<trkpt lat="30.209543" lon="97.291881">
<time>2016-10-07T19:42:34Z</time></trkpt>
<trkpt lat="30.209453" lon="97.291791">
<time>2016-10-07T19:42:35Z</time></trkpt>
<trkpt lat="30.209323" lon="97.291612">
<time>2016-10-07T19:42:36Z</time></trkpt>
<trkpt lat="30.209114" lon="97.291272">
<time>2016-10-07T19:42:37Z</time></trkpt>
<trkpt lat="30.208775" lon="97.290693">
<time>2016-10-07T19:42:38Z</time></trkpt>
<trkpt lat="30.208525" lon="97.290284">
<time>2016-10-07T19:42:39Z</time></trkpt>
<trkpt lat="30.208246" lon="97.289795">
<time>2016-10-07T19:42:40Z</time></trkpt>
<trkpt lat="30.208066" lon="97.289496">
<time>2016-10-07T19:42:41Z</time></trkpt>
<trkpt lat="30.207927" lon="97.289276">
<time>2016-10-07T19:42:42Z</time></trkpt>
<trkpt lat="30.207797" lon="97.289086">
<time>2016-10-07T19:42:43Z</time></trkpt>
<trkpt lat="30.207637" lon="97.288887">
<time>2016-10-07T19:42:44Z</time></trkpt>
<trkpt lat="30.207417" lon="97.288637">
<time>2016-10-07T19:42:45Z</time></trkpt>
<trkpt lat="30.206988" lon="97.288148">
<time>2016-10-07T19:42:46Z</time></trkpt>
<trkpt lat="30.206659" lon="97.287769">
<time>2016-10-07T19:42:47Z</time></trkpt>
<trkpt lat="30.206369" lon="97.287439">
<time>2016-10-07T19:42:48Z</time></trkpt>
<trkpt lat="30.206159" lon="97.2872">
<time>2016-10-07T19:42:49Z</time></trkpt>
<trkpt lat="30.20602" lon="97.28701">
<time>2016-10-07T19:42:50Z</time></trkpt>
<trkpt lat="30.20589" lon="97.28682">
<time>2016-10-07T19:42:51Z</time></trkpt>
<trkpt lat="30.20578" lon="97.286621">
<time>2016-10-07T19:42:52Z</time></trkpt>
<trkpt lat="30.205661" lon="97.286361">
<time>2016-10-07T19:42:53Z</time></trkpt>
<trkpt lat="30.205451" lon="97.285912">
<time>2016-10-07T19:42:54Z</time></trkpt>
<trkpt lat="30.205272" lon="97.285513">
<time>2016-10-07T19:42:55Z</time></trkpt>
<trkpt lat="30.205112" lon="97.285133">
<time>2016-10-07T19:42:56Z</time></trkpt>
<trkpt lat="30.204993" lon="97.284774">
<time>2016-10-07T19:42:57Z</time></trkpt>
<trkpt lat="30.204913" lon="97.284474">
<time>2016-10-07T19:42:58Z</time></trkpt>
<trkpt lat="30.204774" lon="97.283905">
<time>2016-10-07T19:42:59Z</time></trkpt>
<trkpt lat="30.204624" lon="97.283296">
<time>2016-10-07T19:43:00Z</time></trkpt>
<trkpt lat="30.204495" lon="97.282797">
<time>2016-10-07T19:43:01Z</time></trkpt>
<trkpt lat="30.204445" lon="97.282567">
<time>2016-10-07T19:43:02Z</time></trkpt>
<trkpt lat="30.204356" lon="97.282258">
<time>2016-10-07T19:43:03Z</time></trkpt>
<trkpt lat="30.204286" lon="97.282018">
<time>2016-10-07T19:43:04Z</time></trkpt>
<trkpt lat="30.204216" lon="97.281829">
<time>2016-10-07T19:43:05Z</time></trkpt>
<trkpt lat="30.203977" lon="97.281339">
<time>2016-10-07T19:43:06Z</time></trkpt>
<trkpt lat="30.203717" lon="97.2808">
<time>2016-10-07T19:43:07Z</time></trkpt>
<trkpt lat="30.203498" lon="97.280371">
<time>2016-10-07T19:43:08Z</time></trkpt>
<trkpt lat="30.203198" lon="97.279782">
<time>2016-10-07T19:43:09Z</time></trkpt>
<trkpt lat="30.202959" lon="97.279312">
<time>2016-10-07T19:43:10Z</time></trkpt>
<trkpt lat="30.202819" lon="97.279013">
<time>2016-10-07T19:43:11Z</time></trkpt>
<trkpt lat="30.202729" lon="97.278833">
<time>2016-10-07T19:43:12Z</time></trkpt>
<trkpt lat="30.20267" lon="97.278653">
<time>2016-10-07T19:43:13Z</time></trkpt>
<trkpt lat="30.20257" lon="97.278334">
<time>2016-10-07T19:43:14Z</time></trkpt>
<trkpt lat="30.202411" lon="97.277755">
<time>2016-10-07T19:43:15Z</time></trkpt>
<trkpt lat="30.202251" lon="97.277155">
<time>2016-10-07T19:43:16Z</time></trkpt>
<trkpt lat="30.202122" lon="97.276666">
<time>2016-10-07T19:43:17Z</time></trkpt>
<trkpt lat="30.202042" lon="97.276377">
<time>2016-10-07T19:43:18Z</time></trkpt>
<trkpt lat="30.202002" lon="97.276267">
<time>2016-10-07T19:43:19Z</time></trkpt>
<trkpt lat="30.201952" lon="97.276177">
<time>2016-10-07T19:43:20Z</time></trkpt>
<trkpt lat="30.201882" lon="97.276097">
<time>2016-10-07T19:43:21Z</time></trkpt>
<trkpt lat="30.201812" lon="97.276027">
<time>2016-10-07T19:43:22Z</time></trkpt>
<trkpt lat="30.201742" lon="97.275977">
<time>2016-10-07T19:43:23Z</time></trkpt>
<trkpt lat="30.201652" lon="97.275947">
<time>2016-10-07T19:43:24Z</time></trkpt>
<trkpt lat="30.201572" lon="97.275937">
<time>2016-10-07T19:43:25Z</time></trkpt>
<trkpt lat="30.201502" lon="97.275957">
<time>2016-10-07T19:43:26Z</time></trkpt>
<trkpt lat="30.201432" lon="97.275987">
<time>2016-10-07T19:43:27Z</time></trkpt>
<trkpt lat="30.201362" lon="97.276037">
<time>2016-10-07T19:43:28Z</time></trkpt>
<trkpt lat="30.201282" lon="97.276117">
<time>2016-10-07T19:43:29Z</time></trkpt>
<trkpt lat="30.201192" lon="97.276247">
<time>2016-10-07T19:43:30Z</time></trkpt>
<trkpt lat="30.201042" lon="97.276526">
<time>2016-10-07T19:43:31Z</time></trkpt>
<trkpt lat="30.200711" lon="97.277225">
<time>2016-10-07T19:43:32Z</time></trkpt>
<trkpt lat="30.200601" lon="97.277465">
<time>2016-10-07T19:43:33Z</time></trkpt>
<trkpt lat="30.200571" lon="97.277565">
<time>2016-10-07T19:43:34Z</time></trkpt>
<trkpt lat="30.200541" lon="97.277675">
<time>2016-10-07T19:43:35Z</time></trkpt>
<trkpt lat="30.200491" lon="97.277904">
<time>2016-10-07T19:43:36Z</time></trkpt>
<trkpt lat="30.20042" lon="97.278324">
<time>2016-10-07T19:43:37Z</time></trkpt>
<trkpt lat="30.20038" lon="97.278583">
<time>2016-10-07T19:43:38Z</time></trkpt>
<trkpt lat="30.20035" lon="97.278713">
<time>2016-10-07T19:43:39Z</time></trkpt>
<trkpt lat="30.20031" lon="97.278843">
<time>2016-10-07T19:43:40Z</time></trkpt>
<trkpt lat="30.200259" lon="97.278953">
<time>2016-10-07T19:43:41Z</time></trkpt>
<trkpt lat="30.200179" lon="97.279093">
<time>2016-10-07T19:43:42Z</time></trkpt>
<trkpt lat="30.200019" lon="97.279362">
<time>2016-10-07T19:43:43Z</time></trkpt>
<trkpt lat="30.199839" lon="97.279682">
<time>2016-10-07T19:43:44Z</time></trkpt>
<trkpt lat="30.199758" lon="97.279842">
<time>2016-10-07T19:43:45Z</time></trkpt>
<trkpt lat="30.199718" lon="97.279981">
<time>2016-10-07T19:43:46Z</time></trkpt>
<trkpt lat="30.199688" lon="97.280121">
<time>2016-10-07T19:43:47Z</time></trkpt>
<trkpt lat="30.199678" lon="97.280281">
<time>2016-10-07T19:43:48Z</time></trkpt>
<trkpt lat="30.199648" lon="97.280561">
<time>2016-10-07T19:43:49Z</time></trkpt>
<trkpt lat="30.199617" lon="97.28081">
<time>2016-10-07T19:43:50Z</time></trkpt>
<trkpt lat="30.199567" lon="97.28106">
<time>2016-10-07T19:43:51Z</time></trkpt>
<trkpt lat="30.199507" lon="97.281329">
<time>2016-10-07T19:43:52Z</time></trkpt>
<trkpt lat="30.199386" lon="97.281809">
<time>2016-10-07T19:43:53Z</time></trkpt>
<trkpt lat="30.199155" lon="97.282567">
<time>2016-10-07T19:43:54Z</time></trkpt>
<trkpt lat="30.199085" lon="97.282797">
<time>2016-10-07T19:43:55Z</time></trkpt>
<trkpt lat="30.199045" lon="97.282997">
<time>2016-10-07T19:43:56Z</time></trkpt>
<trkpt lat="30.199035" lon="97.283097">
<time>2016-10-07T19:43:57Z</time></trkpt>
<trkpt lat="30.199025" lon="97.283236">
<time>2016-10-07T19:43:58Z</time></trkpt>
<trkpt lat="30.199024" lon="97.283416">
<time>2016-10-07T19:43:59Z</time></trkpt>
<trkpt lat="30.199034" lon="97.283756">
<time>2016-10-07T19:44:00Z</time></trkpt>
<trkpt lat="30.199063" lon="97.284285">
<time>2016-10-07T19:44:01Z</time></trkpt>
<trkpt lat="30.199073" lon="97.284504">
<time>2016-10-07T19:44:02Z</time></trkpt>
<trkpt lat="30.199073" lon="97.284664">
<time>2016-10-07T19:44:03Z</time></trkpt>
<trkpt lat="30.199053" lon="97.284764">
<time>2016-10-07T19:44:04Z</time></trkpt>
<trkpt lat="30.199023" lon="97.284854">
<time>2016-10-07T19:44:05Z</time></trkpt>
<trkpt lat="30.198973" lon="97.284954">
<time>2016-10-07T19:44:06Z</time></trkpt>
<trkpt lat="30.198892" lon="97.285043">
<time>2016-10-07T19:44:07Z</time></trkpt>
<trkpt lat="30.198812" lon="97.285093">
<time>2016-10-07T19:44:08Z</time></trkpt>
<trkpt lat="30.198712" lon="97.285123">
<time>2016-10-07T19:44:09Z</time></trkpt>
<trkpt lat="30.198612" lon="97.285133">
<time>2016-10-07T19:44:10Z</time></trkpt>
<trkpt lat="30.198432" lon="97.285113">
<time>2016-10-07T19:44:11Z</time></trkpt>
<trkpt lat="30.198272" lon="97.285093">
<time>2016-10-07T19:44:12Z</time></trkpt>
<trkpt lat="30.198152" lon="97.285053">
<time>2016-10-07T19:44:13Z</time></trkpt>
<trkpt lat="30.198052" lon="97.285014">
<time>2016-10-07T19:44:14Z</time></trkpt>
<trkpt lat="30.197943" lon="97.284934">
<time>2016-10-07T19:44:15Z</time></trkpt>
<trkpt lat="30.197823" lon="97.284824">
<time>2016-10-07T19:44:16Z</time></trkpt>
<trkpt lat="30.197653" lon="97.284634">
<time>2016-10-07T19:44:17Z</time></trkpt>
<trkpt lat="30.197573" lon="97.284574">
<time>2016-10-07T19:44:18Z</time></trkpt>
<trkpt lat="30.197533" lon="97.284544">
<time>2016-10-07T19:44:19Z</time></trkpt>
<trkpt lat="30.197483" lon="97.284524">
<time>2016-10-07T19:44:20Z</time></trkpt>
<trkpt lat="30.197423" lon="97.284514">
<time>2016-10-07T19:44:21Z</time></trkpt>
<trkpt lat="30.197343" lon="97.284534">
<time>2016-10-07T19:44:22Z</time></trkpt>
<trkpt lat="30.197263" lon="97.284564">
<time>2016-10-07T19:44:23Z</time></trkpt>
<trkpt lat="30.197143" lon="97.284594">
<time>2016-10-07T19:44:24Z</time></trkpt>
<trkpt lat="30.197013" lon="97.284614">
<time>2016-10-07T19:44:25Z</time></trkpt>
<trkpt lat="30.196913" lon="97.284604">
<time>2016-10-07T19:44:26Z</time></trkpt>
<trkpt lat="30.196843" lon="97.284594">
<time>2016-10-07T19:44:27Z</time></trkpt>
<trkpt lat="30.196753" lon="97.284554">
<time>2016-10-07T19:44:28Z</time></trkpt>
<trkpt lat="30.196583" lon="97.284494">
<time>2016-10-07T19:44:29Z</time></trkpt>
<trkpt lat="30.196253" lon="97.284355">
<time>2016-10-07T19:44:30Z</time></trkpt>
<trkpt lat="30.196043" lon="97.284265">
<time>2016-10-07T19:44:31Z</time></trkpt>
<trkpt lat="30.195814" lon="97.284155">
<time>2016-10-07T19:44:32Z</time></trkpt>
<trkpt lat="30.195564" lon="97.284005">
<time>2016-10-07T19:44:33Z</time></trkpt>
<trkpt lat="30.195344" lon="97.283855">
<time>2016-10-07T19:44:34Z</time></trkpt>
<trkpt lat="30.195234" lon="97.283796">
<time>2016-10-07T19:44:35Z</time></trkpt>
<trkpt lat="30.195144" lon="97.283756">
<time>2016-10-07T19:44:36Z</time></trkpt>
<trkpt lat="30.195024" lon="97.283726">
<time>2016-10-07T19:44:37Z</time></trkpt>
<trkpt lat="30.194884" lon="97.283706">
<time>2016-10-07T19:44:38Z</time></trkpt>
<trkpt lat="30.194674" lon="97.283696">
<time>2016-10-07T19:44:39Z</time></trkpt>
<trkpt lat="30.194484" lon="97.283666">
<time>2016-10-07T19:44:40Z</time></trkpt>
<trkpt lat="30.194364" lon="97.283626">
<time>2016-10-07T19:44:41Z</time></trkpt>
<trkpt lat="30.194244" lon="97.283566">
<time>2016-10-07T19:44:42Z</time></trkpt>
<trkpt lat="30.193965" lon="97.283406">
<time>2016-10-07T19:44:43Z</time></trkpt>
<trkpt lat="30.193505" lon="97.283147">
<time>2016-10-07T19:44:44Z</time></trkpt>
<trkpt lat="30.193245" lon="97.282987">
<time>2016-10-07T19:44:45Z</time></trkpt>
<trkpt lat="30.192995" lon="97.282807">
<time>2016-10-07T19:44:46Z</time></trkpt>
<trkpt lat="30.192795" lon="97.282627">
<time>2016-10-07T19:44:47Z</time></trkpt>
<trkpt lat="30.192686" lon="97.282548">
<time>2016-10-07T19:44:48Z</time></trkpt>
<trkpt lat="30.192586" lon="97.282498">
<time>2016-10-07T19:44:49Z</time></trkpt>
<trkpt lat="30.192506" lon="97.282478">
<time>2016-10-07T19:44:50Z</time></trkpt>
<trkpt lat="30.192426" lon="97.282478">
<time>2016-10-07T19:44:51Z</time></trkpt>
<trkpt lat="30.192346" lon="97.282508">
<time>2016-10-07T19:44:52Z</time></trkpt>
<trkpt lat="30.192266" lon="97.282558">
<time>2016-10-07T19:44:53Z</time></trkpt>
<trkpt lat="30.192206" lon="97.282618">
<time>2016-10-07T19:44:54Z</time></trkpt>
<trkpt lat="30.192165" lon="97.282697">
<time>2016-10-07T19:44:55Z</time></trkpt>
<trkpt lat="30.192105" lon="97.282857">
<time>2016-10-07T19:44:56Z</time></trkpt>
<trkpt lat="30.192055" lon="97.283047">
<time>2016-10-07T19:44:57Z</time></trkpt>
<trkpt lat="30.192025" lon="97.283217">
<time>2016-10-07T19:44:58Z</time></trkpt>
<trkpt lat="30.192005" lon="97.283426">
<time>2016-10-07T19:44:59Z</time></trkpt>
<trkpt lat="30.192004" lon="97.283556">
<time>2016-10-07T19:45:00Z</time></trkpt>
<trkpt lat="30.192044" lon="97.283965">
<time>2016-10-07T19:45:01Z</time></trkpt>
<trkpt lat="30.192103" lon="97.284574">
<time>2016-10-07T19:45:02Z</time></trkpt>
<trkpt lat="30.192152" lon="97.285193">
<time>2016-10-07T19:45:03Z</time></trkpt>
<trkpt lat="30.192192" lon="97.285593">
<time>2016-10-07T19:45:04Z</time></trkpt>
<trkpt lat="30.192212" lon="97.285802">
<time>2016-10-07T19:45:05Z</time></trkpt>
<trkpt lat="30.192251" lon="97.286002">
<time>2016-10-07T19:45:06Z</time></trkpt>
<trkpt lat="30.192331" lon="97.286262">
<time>2016-10-07T19:45:07Z</time></trkpt>
<trkpt lat="30.192431" lon="97.286511">
<time>2016-10-07T19:45:08Z</time></trkpt>
<trkpt lat="30.19263" lon="97.287">
<time>2016-10-07T19:45:09Z</time></trkpt>
<trkpt lat="30.19279" lon="97.28736">
<time>2016-10-07T19:45:10Z</time></trkpt>
<trkpt lat="30.192879" lon="97.287609">
<time>2016-10-07T19:45:11Z</time></trkpt>
<trkpt lat="30.192959" lon="97.287819">
<time>2016-10-07T19:45:12Z</time></trkpt>
<trkpt lat="30.193019" lon="97.288038">
<time>2016-10-07T19:45:13Z</time></trkpt>
<trkpt lat="30.193068" lon="97.288268">
<time>2016-10-07T19:45:14Z</time></trkpt>
<trkpt lat="30.193188" lon="97.288887">
<time>2016-10-07T19:45:15Z</time></trkpt>
<trkpt lat="30.193257" lon="97.289296">
<time>2016-10-07T19:45:16Z</time></trkpt>
<trkpt lat="30.193327" lon="97.289546">
<time>2016-10-07T19:45:17Z</time></trkpt>
<trkpt lat="30.193436" lon="97.289835">
<time>2016-10-07T19:45:18Z</time></trkpt>
<trkpt lat="30.193656" lon="97.290324">
<time>2016-10-07T19:45:19Z</time></trkpt>
<trkpt lat="30.193835" lon="97.290734">
<time>2016-10-07T19:45:20Z</time></trkpt>
<trkpt lat="30.194054" lon="97.291203">
<time>2016-10-07T19:45:21Z</time></trkpt>
<trkpt lat="30.194373" lon="97.291901">
<time>2016-10-07T19:45:22Z</time></trkpt>
<trkpt lat="30.194652" lon="97.29252">
<time>2016-10-07T19:45:23Z</time></trkpt>
<trkpt lat="30.194882" lon="97.293009">
<time>2016-10-07T19:45:24Z</time></trkpt>
<trkpt lat="30.194981" lon="97.293189">
<time>2016-10-07T19:45:25Z</time></trkpt>
<trkpt lat="30.195101" lon="97.293359">
<time>2016-10-07T19:45:26Z</time></trkpt>
<trkpt lat="30.195201" lon="97.293458">
<time>2016-10-07T19:45:27Z</time></trkpt>
<trkpt lat="30.195361" lon="97.293598">
<time>2016-10-07T19:45:28Z</time></trkpt>
<trkpt lat="30.195571" lon="97.293748">
<time>2016-10-07T19:45:29Z</time></trkpt>
<trkpt lat="30.19603" lon="97.294017">
<time>2016-10-07T19:45:30Z</time></trkpt>
<trkpt lat="30.19643" lon="97.294257">
<time>2016-10-07T19:45:31Z</time></trkpt>
<trkpt lat="30.196879" lon="97.294546">
<time>2016-10-07T19:45:32Z</time></trkpt>
<trkpt lat="30.197019" lon="97.294636">
<time>2016-10-07T19:45:33Z</time></trkpt>
<trkpt lat="30.197129" lon="97.294746">
<time>2016-10-07T19:45:34Z</time></trkpt>
<trkpt lat="30.197239" lon="97.294866">
<time>2016-10-07T19:45:35Z</time></trkpt>
<trkpt lat="30.197369" lon="97.295025">
<time>2016-10-07T19:45:36Z</time></trkpt>
<trkpt lat="30.197548" lon="97.295305">
<time>2016-10-07T19:45:37Z</time></trkpt>
<trkpt lat="30.197788" lon="97.295664">
<time>2016-10-07T19:45:38Z</time></trkpt>
<trkpt lat="30.197987" lon="97.295954">
<time>2016-10-07T19:45:39Z</time></trkpt>
<trkpt lat="30.198117" lon="97.296123">
<time>2016-10-07T19:45:40Z</time></trkpt>
<trkpt lat="30.198247" lon="97.296243">
<time>2016-10-07T19:45:41Z</time></trkpt>
<trkpt lat="30.198386" lon="97.296373">
<time>2016-10-07T19:45:42Z</time></trkpt>
<trkpt lat="30.198546" lon="97.296493">
<time>2016-10-07T19:45:43Z</time></trkpt>
<trkpt lat="30.198736" lon="97.296632">
<time>2016-10-07T19:45:44Z</time></trkpt>
<trkpt lat="30.198886" lon="97.296752">
<time>2016-10-07T19:45:45Z</time></trkpt>
<trkpt lat="30.198946" lon="97.296802">
<time>2016-10-07T19:45:46Z</time></trkpt>
<trkpt lat="30.198956" lon="97.296832">
<time>2016-10-07T19:45:47Z</time></trkpt>
<trkpt lat="30.198976" lon="97.296862">
<time>2016-10-07T19:45:48Z</time></trkpt>
<trkpt lat="30.198996" lon="97.296902">
<time>2016-10-07T19:45:49Z</time></trkpt>
<trkpt lat="30.198996" lon="97.296952">
<time>2016-10-07T19:45:50Z</time></trkpt>
<trkpt lat="30.198995" lon="97.297011">
<time>2016-10-07T19:45:51Z</time></trkpt>
<trkpt lat="30.198975" lon="97.297061">
<time>2016-10-07T19:45:52Z</time></trkpt>
<trkpt lat="30.198945" lon="97.297101">
<time>2016-10-07T19:45:53Z</time></trkpt>
<trkpt lat="30.198905" lon="97.297151">
<time>2016-10-07T19:45:54Z</time></trkpt>
<trkpt lat="30.198845" lon="97.297171">
<time>2016-10-07T19:45:55Z</time></trkpt>
<trkpt lat="30.198775" lon="97.297171">
<time>2016-10-07T19:45:56Z</time></trkpt>
<trkpt lat="30.198625" lon="97.297131">
<time>2016-10-07T19:45:57Z</time></trkpt>
<trkpt lat="30.198405" lon="97.297041">
<time>2016-10-07T19:45:58Z</time></trkpt>
<trkpt lat="30.198016" lon="97.296892">
<time>2016-10-07T19:45:59Z</time></trkpt>
<trkpt lat="30.197456" lon="97.296692">
<time>2016-10-07T19:46:00Z</time></trkpt>
<trkpt lat="30.196866" lon="97.296463">
<time>2016-10-07T19:46:01Z</time></trkpt>
<trkpt lat="30.196317" lon="97.296253">
<time>2016-10-07T19:46:02Z</time></trkpt>
<trkpt lat="30.196107" lon="97.296173">
<time>2016-10-07T19:46:03Z</time></trkpt>
<trkpt lat="30.195937" lon="97.296113">
<time>2016-10-07T19:46:04Z</time></trkpt>
<trkpt lat="30.195737" lon="97.296073">
<time>2016-10-07T19:46:05Z</time></trkpt>
<trkpt lat="30.195557" lon="97.296043">
<time>2016-10-07T19:46:06Z</time></trkpt>
<trkpt lat="30.195277" lon="97.296023">
<time>2016-10-07T19:46:07Z</time></trkpt>
<trkpt lat="30.195087" lon="97.296024">
<time>2016-10-07T19:46:08Z</time></trkpt>
<trkpt lat="30.194877" lon="97.296043">
<time>2016-10-07T19:46:09Z</time></trkpt>
<trkpt lat="30.194647" lon="97.296083">
<time>2016-10-07T19:46:10Z</time></trkpt>
<trkpt lat="30.194317" lon="97.296163">
<time>2016-10-07T19:46:11Z</time></trkpt>
<trkpt lat="30.193957" lon="97.296263">
<time>2016-10-07T19:46:12Z</time></trkpt>
<trkpt lat="30.193587" lon="97.296363">
<time>2016-10-07T19:46:13Z</time></trkpt>
<trkpt lat="30.193116" lon="97.296483">
<time>2016-10-07T19:46:14Z</time></trkpt>
<trkpt lat="30.192716" lon="97.296592">
<time>2016-10-07T19:46:15Z</time></trkpt>
<trkpt lat="30.192546" lon="97.296632">
<time>2016-10-07T19:46:16Z</time></trkpt>
<trkpt lat="30.192256" lon="97.296672">
<time>2016-10-07T19:46:17Z</time></trkpt>
<trkpt lat="30.192126" lon="97.296682">
<time>2016-10-07T19:46:18Z</time></trkpt>
<trkpt lat="30.191956" lon="97.296672">
<time>2016-10-07T19:46:19Z</time></trkpt>
<trkpt lat="30.191336" lon="97.296562">
<time>2016-10-07T19:46:20Z</time></trkpt>
<trkpt lat="30.190976" lon="97.296493">
<time>2016-10-07T19:46:21Z</time></trkpt>
<trkpt lat="30.190637" lon="97.296443">
<time>2016-10-07T19:46:22Z</time></trkpt>
<trkpt lat="30.190247" lon="97.296373">
<time>2016-10-07T19:46:23Z</time></trkpt>
<trkpt lat="30.190037" lon="97.296333">
<time>2016-10-07T19:46:24Z</time></trkpt>
<trkpt lat="30.189927" lon="97.296293">
<time>2016-10-07T19:46:25Z</time></trkpt>
<trkpt lat="30.189837" lon="97.296243">
<time>2016-10-07T19:46:26Z</time></trkpt>
<trkpt lat="30.189747" lon="97.296183">
<time>2016-10-07T19:46:27Z</time></trkpt>
<trkpt lat="30.189667" lon="97.296123">
<time>2016-10-07T19:46:28Z</time></trkpt>
<trkpt lat="30.189597" lon="97.296034">
<time>2016-10-07T19:46:29Z</time></trkpt>
<trkpt lat="30.189537" lon="97.295934">
<time>2016-10-07T19:46:30Z</time></trkpt>
<trkpt lat="30.189438" lon="97.295704">
<time>2016-10-07T19:46:31Z</time></trkpt>
<trkpt lat="30.189219" lon="97.295075">
<time>2016-10-07T19:46:32Z</time></trkpt>
<trkpt lat="30.189099" lon="97.294726">
<time>2016-10-07T19:46:33Z</time></trkpt>
<trkpt lat="30.189" lon="97.294427">
<time>2016-10-07T19:46:34Z</time></trkpt>
<trkpt lat="30.18896" lon="97.294327">
<time>2016-10-07T19:46:35Z</time></trkpt>
<trkpt lat="30.18891" lon="97.294227">
<time>2016-10-07T19:46:36Z</time></trkpt>
<trkpt lat="30.18885" lon="97.294137">
<time>2016-10-07T19:46:37Z</time></trkpt>
<trkpt lat="30.18879" lon="97.294077">
<time>2016-10-07T19:46:38Z</time></trkpt>
<trkpt lat="30.18874" lon="97.294028">
<time>2016-10-07T19:46:39Z</time></trkpt>
<trkpt lat="30.18865" lon="97.293978">
<time>2016-10-07T19:46:40Z</time></trkpt>
<trkpt lat="30.18854" lon="97.293928">
<time>2016-10-07T19:46:41Z</time></trkpt>
<trkpt lat="30.18841" lon="97.293878">
<time>2016-10-07T19:46:42Z</time></trkpt>
<trkpt lat="30.188151" lon="97.293788">
<time>2016-10-07T19:46:43Z</time></trkpt>
<trkpt lat="30.188041" lon="97.293758">
<time>2016-10-07T19:46:44Z</time></trkpt>
<trkpt lat="30.188041" lon="97.293758">
<time>2016-10-07T19:46:45Z</time></trkpt>
<trkpt lat="30.187801" lon="97.293688">
<time>2016-10-07T19:46:46Z</time></trkpt>
<trkpt lat="30.187661" lon="97.293658">
<time>2016-10-07T19:46:47Z</time></trkpt>
<trkpt lat="30.187531" lon="97.293638">
<time>2016-10-07T19:46:48Z</time></trkpt>
<trkpt lat="30.187451" lon="97.293628">
<time>2016-10-07T19:46:49Z</time></trkpt>
<trkpt lat="30.187361" lon="97.293628">
<time>2016-10-07T19:46:50Z</time></trkpt>
<trkpt lat="30.187231" lon="97.293638">
<time>2016-10-07T19:46:51Z</time></trkpt>
<trkpt lat="30.187031" lon="97.293678">
<time>2016-10-07T19:46:52Z</time></trkpt>
<trkpt lat="30.186761" lon="97.293728">
<time>2016-10-07T19:46:53Z</time></trkpt>
<trkpt lat="30.186551" lon="97.293768">
<time>2016-10-07T19:46:54Z</time></trkpt>
<trkpt lat="30.186301" lon="97.293818">
<time>2016-10-07T19:46:55Z</time></trkpt>
<trkpt lat="30.186071" lon="97.293868">
<time>2016-10-07T19:46:56Z</time></trkpt>
<trkpt lat="30.185971" lon="97.293888">
<time>2016-10-07T19:46:57Z</time></trkpt>
<trkpt lat="30.185881" lon="97.293908">
<time>2016-10-07T19:46:58Z</time></trkpt>
<trkpt lat="30.18574" lon="97.293918">
<time>2016-10-07T19:46:59Z</time></trkpt>
<trkpt lat="30.18553" lon="97.293938">
<time>2016-10-07T19:47:00Z</time></trkpt>
<trkpt lat="30.18533" lon="97.293958">
<time>2016-10-07T19:47:01Z</time></trkpt>
<trkpt lat="30.18505" lon="97.293968">
<time>2016-10-07T19:47:02Z</time></trkpt>
<trkpt lat="30.18467" lon="97.293988">
<time>2016-10-07T19:47:03Z</time></trkpt>
<trkpt lat="30.18428" lon="97.294008">
<time>2016-10-07T19:47:04Z</time></trkpt>
<trkpt lat="30.18413" lon="97.294018">
<time>2016-10-07T19:47:05Z</time></trkpt>
<trkpt lat="30.18402" lon="97.294028">
<time>2016-10-07T19:47:06Z</time></trkpt>
<trkpt lat="30.18393" lon="97.294058">
<time>2016-10-07T19:47:07Z</time></trkpt>
<trkpt lat="30.18381" lon="97.294087">
<time>2016-10-07T19:47:08Z</time></trkpt>
<trkpt lat="30.18368" lon="97.294137">
<time>2016-10-07T19:47:09Z</time></trkpt>
<trkpt lat="30.18354" lon="97.294187">
<time>2016-10-07T19:47:10Z</time></trkpt>
<trkpt lat="30.18336" lon="97.294257">
<time>2016-10-07T19:47:11Z</time></trkpt>
<trkpt lat="30.18315" lon="97.294347">
<time>2016-10-07T19:47:12Z</time></trkpt>
<trkpt lat="30.18289" lon="97.294477">
<time>2016-10-07T19:47:13Z</time></trkpt>
<trkpt lat="30.18258" lon="97.294607">
<time>2016-10-07T19:47:14Z</time></trkpt>
<trkpt lat="30.182359" lon="97.294706">
<time>2016-10-07T19:47:15Z</time></trkpt>
<trkpt lat="30.182089" lon="97.294836">
<time>2016-10-07T19:47:16Z</time></trkpt>
<trkpt lat="30.182019" lon="97.294866">
<time>2016-10-07T19:47:17Z</time></trkpt>
<trkpt lat="30.181789" lon="97.294966">
<time>2016-10-07T19:47:18Z</time></trkpt>
<trkpt lat="30.181699" lon="97.295006">
<time>2016-10-07T19:47:19Z</time></trkpt>
<trkpt lat="30.181599" lon="97.295026">
<time>2016-10-07T19:47:20Z</time></trkpt>
<trkpt lat="30.181549" lon="97.295036">
<time>2016-10-07T19:47:21Z</time></trkpt>
<trkpt lat="30.181509" lon="97.295046">
<time>2016-10-07T19:47:22Z</time></trkpt>
<trkpt lat="30.181449" lon="97.295036">
<time>2016-10-07T19:47:23Z</time></trkpt>
<trkpt lat="30.181369" lon="97.295026">
<time>2016-10-07T19:47:24Z</time></trkpt>
<trkpt lat="30.181309" lon="97.295006">
<time>2016-10-07T19:47:25Z</time></trkpt>
<trkpt lat="30.181239" lon="97.294976">
<time>2016-10-07T19:47:26Z</time></trkpt>
<trkpt lat="30.181149" lon="97.294926">
<time>2016-10-07T19:47:27Z</time></trkpt>
<trkpt lat="30.181049" lon="97.294846">
<time>2016-10-07T19:47:28Z</time></trkpt>
<trkpt lat="30.18084" lon="97.294626">
<time>2016-10-07T19:47:29Z</time></trkpt>
<trkpt lat="30.18061" lon="97.294387">
<time>2016-10-07T19:47:30Z</time></trkpt>
<trkpt lat="30.180161" lon="97.293918">
<time>2016-10-07T19:47:31Z</time></trkpt>
<trkpt lat="30.179582" lon="97.293299">
<time>2016-10-07T19:47:32Z</time></trkpt>
<trkpt lat="30.179462" lon="97.293179">
<time>2016-10-07T19:47:33Z</time></trkpt>
<trkpt lat="30.179332" lon="97.29307">
<time>2016-10-07T19:47:34Z</time></trkpt>
<trkpt lat="30.179182" lon="97.29298">
<time>2016-10-07T19:47:35Z</time></trkpt>
<trkpt lat="30.179052" lon="97.29292">
<time>2016-10-07T19:47:36Z</time></trkpt>
<trkpt lat="30.178862" lon="97.29285">
<time>2016-10-07T19:47:37Z</time></trkpt>
<trkpt lat="30.178492" lon="97.29273">
<time>2016-10-07T19:47:38Z</time></trkpt>
<trkpt lat="30.177983" lon="97.292561">
<time>2016-10-07T19:47:39Z</time></trkpt>
<trkpt lat="30.177823" lon="97.292501">
<time>2016-10-07T19:47:40Z</time></trkpt>
<trkpt lat="30.177723" lon="97.292451">
<time>2016-10-07T19:47:41Z</time></trkpt>
<trkpt lat="30.177633" lon="97.292371">
<time>2016-10-07T19:47:42Z</time></trkpt>
<trkpt lat="30.177583" lon="97.292281">
<time>2016-10-07T19:47:43Z</time></trkpt>
<trkpt lat="30.177563" lon="97.292241">
<time>2016-10-07T19:47:44Z</time></trkpt>
<trkpt lat="30.177533" lon="97.292161">
<time>2016-10-07T19:47:45Z</time></trkpt>
<trkpt lat="30.177444" lon="97.291782">
<time>2016-10-07T19:47:46Z</time></trkpt>
<trkpt lat="30.177414" lon="97.291642">
<time>2016-10-07T19:47:47Z</time></trkpt>
<trkpt lat="30.177364" lon="97.291502">
<time>2016-10-07T19:47:48Z</time></trkpt>
<trkpt lat="30.177314" lon="97.291393">
<time>2016-10-07T19:47:49Z</time></trkpt>
<trkpt lat="30.177235" lon="97.291273">
<time>2016-10-07T19:47:50Z</time></trkpt>
<trkpt lat="30.177145" lon="97.291163">
<time>2016-10-07T19:47:51Z</time></trkpt>
<trkpt lat="30.177075" lon="97.291103">
<time>2016-10-07T19:47:52Z</time></trkpt>
<trkpt lat="30.177015" lon="97.291063">
<time>2016-10-07T19:47:53Z</time></trkpt>
<trkpt lat="30.176945" lon="97.291033">
<time>2016-10-07T19:47:54Z</time></trkpt>
<trkpt lat="30.176885" lon="97.291033">
<time>2016-10-07T19:47:55Z</time></trkpt>
<trkpt lat="30.176815" lon="97.291043">
<time>2016-10-07T19:47:56Z</time></trkpt>
<trkpt lat="30.176745" lon="97.291073">
<time>2016-10-07T19:47:57Z</time></trkpt>
<trkpt lat="30.176665" lon="97.291103">
<time>2016-10-07T19:47:58Z</time></trkpt>
<trkpt lat="30.176435" lon="97.291233">
<time>2016-10-07T19:47:59Z</time></trkpt>
<trkpt lat="30.176194" lon="97.291363">
<time>2016-10-07T19:48:00Z</time></trkpt>
<trkpt lat="30.176094" lon="97.291413">
<time>2016-10-07T19:48:01Z</time></trkpt>
<trkpt lat="30.176004" lon="97.291433">
<time>2016-10-07T19:48:02Z</time></trkpt>
<trkpt lat="30.175914" lon="97.291453">
<time>2016-10-07T19:48:03Z</time></trkpt>
<trkpt lat="30.175814" lon="97.291453">
<time>2016-10-07T19:48:04Z</time></trkpt>
<trkpt lat="30.175724" lon="97.291443">
<time>2016-10-07T19:48:05Z</time></trkpt>
<trkpt lat="30.175644" lon="97.291423">
<time>2016-10-07T19:48:06Z</time></trkpt>
<trkpt lat="30.175554" lon="97.291373">
<time>2016-10-07T19:48:07Z</time></trkpt>
<trkpt lat="30.175445" lon="97.291303">
<time>2016-10-07T19:48:08Z</time></trkpt>
<trkpt lat="30.175135" lon="97.291063">
<time>2016-10-07T19:48:09Z</time></trkpt>
<trkpt lat="30.174975" lon="97.290934">
<time>2016-10-07T19:48:10Z</time></trkpt>
<trkpt lat="30.174795" lon="97.290764">
<time>2016-10-07T19:48:11Z</time></trkpt>
<trkpt lat="30.174636" lon="97.290594">
<time>2016-10-07T19:48:12Z</time></trkpt>
<trkpt lat="30.174496" lon="97.290395">
<time>2016-10-07T19:48:13Z</time></trkpt>
<trkpt lat="30.174326" lon="97.290145">
<time>2016-10-07T19:48:14Z</time></trkpt>
<trkpt lat="30.174206" lon="97.289965">
<time>2016-10-07T19:48:15Z</time></trkpt>
<trkpt lat="30.174047" lon="97.289796">
<time>2016-10-07T19:48:16Z</time></trkpt>
<trkpt lat="30.173957" lon="97.289726">
<time>2016-10-07T19:48:17Z</time></trkpt>
<trkpt lat="30.173867" lon="97.289666">
<time>2016-10-07T19:48:18Z</time></trkpt>
<trkpt lat="30.173557" lon="97.289506">
<time>2016-10-07T19:48:19Z</time></trkpt>
<trkpt lat="30.173307" lon="97.289366">
<time>2016-10-07T19:48:20Z</time></trkpt>
<trkpt lat="30.173107" lon="97.289277">
<time>2016-10-07T19:48:21Z</time></trkpt>
<trkpt lat="30.172828" lon="97.289177">
<time>2016-10-07T19:48:22Z</time></trkpt>
<trkpt lat="30.172408" lon="97.289067">
<time>2016-10-07T19:48:23Z</time></trkpt>
<trkpt lat="30.172128" lon="97.288987">
<time>2016-10-07T19:48:24Z</time></trkpt>
<trkpt lat="30.171978" lon="97.288917">
<time>2016-10-07T19:48:25Z</time></trkpt>
<trkpt lat="30.171888" lon="97.288857">
<time>2016-10-07T19:48:26Z</time></trkpt>
<trkpt lat="30.171808" lon="97.288778">
<time>2016-10-07T19:48:27Z</time></trkpt>
<trkpt lat="30.171738" lon="97.288678">
<time>2016-10-07T19:48:28Z</time></trkpt>
<trkpt lat="30.171688" lon="97.288578">
<time>2016-10-07T19:48:29Z</time></trkpt>
<trkpt lat="30.171629" lon="97.288408">
<time>2016-10-07T19:48:30Z</time></trkpt>
<trkpt lat="30.171599" lon="97.288278">
<time>2016-10-07T19:48:31Z</time></trkpt>
<trkpt lat="30.171549" lon="97.288159">
<time>2016-10-07T19:48:32Z</time></trkpt>
<trkpt lat="30.171519" lon="97.288089">
<time>2016-10-07T19:48:33Z</time></trkpt>
<trkpt lat="30.171479" lon="97.288039">
<time>2016-10-07T19:48:34Z</time></trkpt>
<trkpt lat="30.171429" lon="97.288009">
<time>2016-10-07T19:48:35Z</time></trkpt>
<trkpt lat="30.171359" lon="97.287979">
<time>2016-10-07T19:48:36Z</time></trkpt>
<trkpt lat="30.171279" lon="97.287979">
<time>2016-10-07T19:48:37Z</time></trkpt>
<trkpt lat="30.171179" lon="97.288009">
<time>2016-10-07T19:48:38Z</time></trkpt>
<trkpt lat="30.171039" lon="97.288079">
<time>2016-10-07T19:48:39Z</time></trkpt>
<trkpt lat="30.170829" lon="97.288199">
<time>2016-10-07T19:48:40Z</time></trkpt>
<trkpt lat="30.170629" lon="97.288308">
<time>2016-10-07T19:48:41Z</time></trkpt>
<trkpt lat="30.170479" lon="97.288368">
<time>2016-10-07T19:48:42Z</time></trkpt>
<trkpt lat="30.170329" lon="97.288398">
<time>2016-10-07T19:48:43Z</time></trkpt>
<trkpt lat="30.170189" lon="97.288398">
<time>2016-10-07T19:48:44Z</time></trkpt>
<trkpt lat="30.169959" lon="97.288368">
<time>2016-10-07T19:48:45Z</time></trkpt>
<trkpt lat="30.169809" lon="97.288348">
<time>2016-10-07T19:48:46Z</time></trkpt>
<trkpt lat="30.169669" lon="97.288348">
<time>2016-10-07T19:48:47Z</time></trkpt>
<trkpt lat="30.169499" lon="97.288358">
<time>2016-10-07T19:48:48Z</time></trkpt>
<trkpt lat="30.169079" lon="97.288408">
<time>2016-10-07T19:48:49Z</time></trkpt>
<trkpt lat="30.168889" lon="97.288418">
<time>2016-10-07T19:48:50Z</time></trkpt>
<trkpt lat="30.168609" lon="97.288408">
<time>2016-10-07T19:48:51Z</time></trkpt>
<trkpt lat="30.168349" lon="97.288388">
<time>2016-10-07T19:48:52Z</time></trkpt>
<trkpt lat="30.168019" lon="97.288368">
<time>2016-10-07T19:48:53Z</time></trkpt>
<trkpt lat="30.167829" lon="97.288348">
<time>2016-10-07T19:48:54Z</time></trkpt>
<trkpt lat="30.167709" lon="97.288318">
<time>2016-10-07T19:48:55Z</time></trkpt>
<trkpt lat="30.167569" lon="97.288269">
<time>2016-10-07T19:48:56Z</time></trkpt>
<trkpt lat="30.167369" lon="97.288189">
<time>2016-10-07T19:48:57Z</time></trkpt>
<trkpt lat="30.167149" lon="97.288089">
<time>2016-10-07T19:48:58Z</time></trkpt>
<trkpt lat="30.166909" lon="97.287999">
<time>2016-10-07T19:48:59Z</time></trkpt>
<trkpt lat="30.166809" lon="97.287969">
<time>2016-10-07T19:49:00Z</time></trkpt>
<trkpt lat="30.166709" lon="97.287939">
<time>2016-10-07T19:49:01Z</time></trkpt>
<trkpt lat="30.166529" lon="97.287889">
<time>2016-10-07T19:49:02Z</time></trkpt>
<trkpt lat="30.166409" lon="97.287849">
<time>2016-10-07T19:49:03Z</time></trkpt>
<trkpt lat="30.16626" lon="97.287759">
<time>2016-10-07T19:49:04Z</time></trkpt>
<trkpt lat="30.16612" lon="97.28765">
<time>2016-10-07T19:49:05Z</time></trkpt>
<trkpt lat="30.16587" lon="97.28738">
<time>2016-10-07T19:49:06Z</time></trkpt>
<trkpt lat="30.165521" lon="97.286931">
<time>2016-10-07T19:49:07Z</time></trkpt>
<trkpt lat="30.165481" lon="97.286901">
<time>2016-10-07T19:49:08Z</time></trkpt>
<trkpt lat="30.165441" lon="97.286871">
<time>2016-10-07T19:49:09Z</time></trkpt>
<trkpt lat="30.165401" lon="97.286851">
<time>2016-10-07T19:49:10Z</time></trkpt>
<trkpt lat="30.165371" lon="97.286841">
<time>2016-10-07T19:49:11Z</time></trkpt>
<trkpt lat="30.165331" lon="97.286831">
<time>2016-10-07T19:49:12Z</time></trkpt>
<trkpt lat="30.165311" lon="97.286831">
<time>2016-10-07T19:49:13Z</time></trkpt>
<trkpt lat="30.165271" lon="97.286841">
<time>2016-10-07T19:49:14Z</time></trkpt>
<trkpt lat="30.165241" lon="97.286851">
<time>2016-10-07T19:49:15Z</time></trkpt>
<trkpt lat="30.165181" lon="97.286881">
<time>2016-10-07T19:49:16Z</time></trkpt>
<trkpt lat="30.165151" lon="97.286901">
<time>2016-10-07T19:49:17Z</time></trkpt>
<trkpt lat="30.165101" lon="97.286941">
<time>2016-10-07T19:49:18Z</time></trkpt>
<trkpt lat="30.165071" lon="97.286971">
<time>2016-10-07T19:49:19Z</time></trkpt>
<trkpt lat="30.165031" lon="97.287021">
<time>2016-10-07T19:49:20Z</time></trkpt>
<trkpt lat="30.16501" lon="97.287071">
<time>2016-10-07T19:49:21Z</time></trkpt>
<trkpt lat="30.16501" lon="97.287111">
<time>2016-10-07T19:49:22Z</time></trkpt>
<trkpt lat="30.16501" lon="97.28717">
<time>2016-10-07T19:49:23Z</time></trkpt>
<trkpt lat="30.16502" lon="97.28722">
<time>2016-10-07T19:49:24Z</time></trkpt>
<trkpt lat="30.16503" lon="97.28728">
<time>2016-10-07T19:49:25Z</time></trkpt>
<trkpt lat="30.16514" lon="97.28771">
<time>2016-10-07T19:49:26Z</time></trkpt>
<trkpt lat="30.165179" lon="97.287839">
<time>2016-10-07T19:49:27Z</time></trkpt>
<trkpt lat="30.165219" lon="97.287949">
<time>2016-10-07T19:49:28Z</time></trkpt>
<trkpt lat="30.165249" lon="97.288029">
<time>2016-10-07T19:49:29Z</time></trkpt>
<trkpt lat="30.165289" lon="97.288099">
<time>2016-10-07T19:49:30Z</time></trkpt>
<trkpt lat="30.165379" lon="97.288209">
<time>2016-10-07T19:49:31Z</time></trkpt>
<trkpt lat="30.165609" lon="97.288468">
<time>2016-10-07T19:49:32Z</time></trkpt>
<trkpt lat="30.165758" lon="97.288668">
<time>2016-10-07T19:49:33Z</time></trkpt>
<trkpt lat="30.165868" lon="97.288828">
<time>2016-10-07T19:49:34Z</time></trkpt>
<trkpt lat="30.165978" lon="97.289017">
<time>2016-10-07T19:49:35Z</time></trkpt>
<trkpt lat="30.166048" lon="97.289147">
<time>2016-10-07T19:49:36Z</time></trkpt>
<trkpt lat="30.166137" lon="97.289287">
<time>2016-10-07T19:49:37Z</time></trkpt>
<trkpt lat="30.166247" lon="97.289426">
<time>2016-10-07T19:49:38Z</time></trkpt>
<trkpt lat="30.166427" lon="97.289646">
<time>2016-10-07T19:49:39Z</time></trkpt>
<trkpt lat="30.166707" lon="97.289965">
<time>2016-10-07T19:49:40Z</time></trkpt>
<trkpt lat="30.166796" lon="97.290075">
<time>2016-10-07T19:49:41Z</time></trkpt>
<trkpt lat="30.166966" lon="97.290275">
<time>2016-10-07T19:49:42Z</time></trkpt>
<trkpt lat="30.167046" lon="97.290395">
<time>2016-10-07T19:49:43Z</time></trkpt>
<trkpt lat="30.167106" lon="97.290505">
<time>2016-10-07T19:49:44Z</time></trkpt>
<trkpt lat="30.167305" lon="97.290854">
<time>2016-10-07T19:49:45Z</time></trkpt>
<trkpt lat="30.167525" lon="97.291263">
<time>2016-10-07T19:49:46Z</time></trkpt>
<trkpt lat="30.167744" lon="97.291682">
<time>2016-10-07T19:49:47Z</time></trkpt>
<trkpt lat="30.167854" lon="97.291892">
<time>2016-10-07T19:49:48Z</time></trkpt>
<trkpt lat="30.167983" lon="97.292112">
<time>2016-10-07T19:49:49Z</time></trkpt>
<trkpt lat="30.168063" lon="97.292231">
<time>2016-10-07T19:49:50Z</time></trkpt>
<trkpt lat="30.168173" lon="97.292361">
<time>2016-10-07T19:49:51Z</time></trkpt>
<trkpt lat="30.168323" lon="97.292501">
<time>2016-10-07T19:49:52Z</time></trkpt>
<trkpt lat="30.168473" lon="97.29265">
<time>2016-10-07T19:49:53Z</time></trkpt>
<trkpt lat="30.168752" lon="97.2929">
<time>2016-10-07T19:49:54Z</time></trkpt>
<trkpt lat="30.168972" lon="97.29305">
<time>2016-10-07T19:49:55Z</time></trkpt>
<trkpt lat="30.169222" lon="97.293199">
<time>2016-10-07T19:49:56Z</time></trkpt>
<trkpt lat="30.169342" lon="97.293259">
<time>2016-10-07T19:49:57Z</time></trkpt>
<trkpt lat="30.169452" lon="97.293349">
<time>2016-10-07T19:49:58Z</time></trkpt>
<trkpt lat="30.169541" lon="97.293449">
<time>2016-10-07T19:49:59Z</time></trkpt>
<trkpt lat="30.169651" lon="97.293609">
<time>2016-10-07T19:50:00Z</time></trkpt>
<trkpt lat="30.169761" lon="97.293838">
<time>2016-10-07T19:50:01Z</time></trkpt>
<trkpt lat="30.1699" lon="97.294158">
<time>2016-10-07T19:50:02Z</time></trkpt>
<trkpt lat="30.16999" lon="97.294377">
<time>2016-10-07T19:50:03Z</time></trkpt>
<trkpt lat="30.17003" lon="97.294497">
<time>2016-10-07T19:50:04Z</time></trkpt>
<trkpt lat="30.17004" lon="97.294587">
<time>2016-10-07T19:50:05Z</time></trkpt>
<trkpt lat="30.17005" lon="97.294677">
<time>2016-10-07T19:50:06Z</time></trkpt>
<trkpt lat="30.17004" lon="97.294756">
<time>2016-10-07T19:50:07Z</time></trkpt>
<trkpt lat="30.170019" lon="97.294866">
<time>2016-10-07T19:50:08Z</time></trkpt>
<trkpt lat="30.169969" lon="97.294986">
<time>2016-10-07T19:50:09Z</time></trkpt>
<trkpt lat="30.169899" lon="97.295146">
<time>2016-10-07T19:50:10Z</time></trkpt>
<trkpt lat="30.169789" lon="97.295315">
<time>2016-10-07T19:50:11Z</time></trkpt>
<trkpt lat="30.169698" lon="97.295465">
<time>2016-10-07T19:50:12Z</time></trkpt>
<trkpt lat="30.169638" lon="97.295565">
<time>2016-10-07T19:50:13Z</time></trkpt>
<trkpt lat="30.169578" lon="97.295685">
<time>2016-10-07T19:50:14Z</time></trkpt>
<trkpt lat="30.169548" lon="97.295794">
<time>2016-10-07T19:50:15Z</time></trkpt>
<trkpt lat="30.169528" lon="97.295924">
<time>2016-10-07T19:50:16Z</time></trkpt>
<trkpt lat="30.169527" lon="97.296134">
<time>2016-10-07T19:50:17Z</time></trkpt>
<trkpt lat="30.169537" lon="97.296573">
<time>2016-10-07T19:50:18Z</time></trkpt>
<trkpt lat="30.169546" lon="97.296762">
<time>2016-10-07T19:50:19Z</time></trkpt>
<trkpt lat="30.169566" lon="97.296962">
<time>2016-10-07T19:50:20Z</time></trkpt>
<trkpt lat="30.169586" lon="97.297112">
<time>2016-10-07T19:50:21Z</time></trkpt>
<trkpt lat="30.169646" lon="97.297301">
<time>2016-10-07T19:50:22Z</time></trkpt>
<trkpt lat="30.169715" lon="97.297481">
<time>2016-10-07T19:50:23Z</time></trkpt>
<trkpt lat="30.169805" lon="97.297721">
<time>2016-10-07T19:50:24Z</time></trkpt>
<trkpt lat="30.169875" lon="97.29792">
<time>2016-10-07T19:50:25Z</time></trkpt>
<trkpt lat="30.169914" lon="97.29809">
<time>2016-10-07T19:50:26Z</time></trkpt>
<trkpt lat="30.169944" lon="97.298239">
<time>2016-10-07T19:50:27Z</time></trkpt>
<trkpt lat="30.169944" lon="97.298379">
<time>2016-10-07T19:50:28Z</time></trkpt>
<trkpt lat="30.169934" lon="97.298539">
<time>2016-10-07T19:50:29Z</time></trkpt>
<trkpt lat="30.169913" lon="97.298778">
<time>2016-10-07T19:50:30Z</time></trkpt>
<trkpt lat="30.169873" lon="97.299088">
<time>2016-10-07T19:50:31Z</time></trkpt>
<trkpt lat="30.169822" lon="97.299607">
<time>2016-10-07T19:50:32Z</time></trkpt>
<trkpt lat="30.169782" lon="97.299756">
<time>2016-10-07T19:50:33Z</time></trkpt>
<trkpt lat="30.169752" lon="97.299866">
<time>2016-10-07T19:50:34Z</time></trkpt>
<trkpt lat="30.169671" lon="97.300066">
<time>2016-10-07T19:50:35Z</time></trkpt>
<trkpt lat="30.169541" lon="97.300345">
<time>2016-10-07T19:50:36Z</time></trkpt>
<trkpt lat="30.16941" lon="97.300605">
<time>2016-10-07T19:50:37Z</time></trkpt>
<trkpt lat="30.16929" lon="97.300824">
<time>2016-10-07T19:50:38Z</time></trkpt>
<trkpt lat="30.16921" lon="97.300934">
<time>2016-10-07T19:50:39Z</time></trkpt>
<trkpt lat="30.16913" lon="97.301034">
<time>2016-10-07T19:50:40Z</time></trkpt>
<trkpt lat="30.169009" lon="97.301144">
<time>2016-10-07T19:50:41Z</time></trkpt>
<trkpt lat="30.168889" lon="97.301223">
<time>2016-10-07T19:50:42Z</time></trkpt>
<trkpt lat="30.168739" lon="97.301303">
<time>2016-10-07T19:50:43Z</time></trkpt>
<trkpt lat="30.168629" lon="97.301343">
<time>2016-10-07T19:50:44Z</time></trkpt>
<trkpt lat="30.168509" lon="97.301363">
<time>2016-10-07T19:50:45Z</time></trkpt>
<trkpt lat="30.168349" lon="97.301373">
<time>2016-10-07T19:50:46Z</time></trkpt>
<trkpt lat="30.168209" lon="97.301353">
<time>2016-10-07T19:50:47Z</time></trkpt>
<trkpt lat="30.168029" lon="97.301333">
<time>2016-10-07T19:50:48Z</time></trkpt>
<trkpt lat="30.167819" lon="97.301313">
<time>2016-10-07T19:50:49Z</time></trkpt>
<trkpt lat="30.167509" lon="97.301283">
<time>2016-10-07T19:50:50Z</time></trkpt>
<trkpt lat="30.167179" lon="97.301243">
<time>2016-10-07T19:50:51Z</time></trkpt>
<trkpt lat="30.166919" lon="97.301223">
<time>2016-10-07T19:50:52Z</time></trkpt>
<trkpt lat="30.166709" lon="97.301213">
<time>2016-10-07T19:50:53Z</time></trkpt>
<trkpt lat="30.166589" lon="97.301203">
<time>2016-10-07T19:50:54Z</time></trkpt>
<trkpt lat="30.166489" lon="97.301213">
<time>2016-10-07T19:50:55Z</time></trkpt>
<trkpt lat="30.166399" lon="97.301223">
<time>2016-10-07T19:50:56Z</time></trkpt>
<trkpt lat="30.166279" lon="97.301253">
<time>2016-10-07T19:50:57Z</time></trkpt>
<trkpt lat="30.166139" lon="97.301293">
<time>2016-10-07T19:50:58Z</time></trkpt>
<trkpt lat="30.165189" lon="97.301623">
<time>2016-10-07T19:50:59Z</time></trkpt>
<trkpt lat="30.164208" lon="97.301952">
<time>2016-10-07T19:51:00Z</time></trkpt>
<trkpt lat="30.164058" lon="97.302022">
<time>2016-10-07T19:51:01Z</time></trkpt>
<trkpt lat="30.163718" lon="97.302211">
<time>2016-10-07T19:51:02Z</time></trkpt>
<trkpt lat="30.163588" lon="97.302301">
<time>2016-10-07T19:51:03Z</time></trkpt>
<trkpt lat="30.163387" lon="97.302431">
<time>2016-10-07T19:51:04Z</time></trkpt>
<trkpt lat="30.162587" lon="97.30293">
<time>2016-10-07T19:51:05Z</time></trkpt>
<trkpt lat="30.162456" lon="97.30302">
<time>2016-10-07T19:51:06Z</time></trkpt>
<trkpt lat="30.162236" lon="97.303159">
<time>2016-10-07T19:51:07Z</time></trkpt>
<trkpt lat="30.162086" lon="97.303269">
<time>2016-10-07T19:51:08Z</time></trkpt>
<trkpt lat="30.161956" lon="97.303389">
<time>2016-10-07T19:51:09Z</time></trkpt>
<trkpt lat="30.161785" lon="97.303578">
<time>2016-10-07T19:51:10Z</time></trkpt>
<trkpt lat="30.161635" lon="97.303798">
<time>2016-10-07T19:51:11Z</time></trkpt>
<trkpt lat="30.161435" lon="97.304097">
<time>2016-10-07T19:51:12Z</time></trkpt>
<trkpt lat="30.161013" lon="97.304756">
<time>2016-10-07T19:51:13Z</time></trkpt>
<trkpt lat="30.160773" lon="97.305115">
<time>2016-10-07T19:51:14Z</time></trkpt>
<trkpt lat="30.160582" lon="97.305414">
<time>2016-10-07T19:51:15Z</time></trkpt>
<trkpt lat="30.160312" lon="97.305834">
<time>2016-10-07T19:51:16Z</time></trkpt>
<trkpt lat="30.160071" lon="97.306213">
<time>2016-10-07T19:51:17Z</time></trkpt>
<trkpt lat="30.15969" lon="97.306801">
<time>2016-10-07T19:51:18Z</time></trkpt>
<trkpt lat="30.159088" lon="97.307719">
<time>2016-10-07T19:51:19Z</time></trkpt>
<trkpt lat="30.158918" lon="97.307969">
<time>2016-10-07T19:51:20Z</time></trkpt>
<trkpt lat="30.158778" lon="97.308158">
<time>2016-10-07T19:51:21Z</time></trkpt>
<trkpt lat="30.158627" lon="97.308348">
<time>2016-10-07T19:51:22Z</time></trkpt>
<trkpt lat="30.158467" lon="97.308518">
<time>2016-10-07T19:51:23Z</time></trkpt>
<trkpt lat="30.158016" lon="97.308997">
<time>2016-10-07T19:51:24Z</time></trkpt>
<trkpt lat="30.157756" lon="97.309276">
<time>2016-10-07T19:51:25Z</time></trkpt>
<trkpt lat="30.157555" lon="97.309486">
<time>2016-10-07T19:51:26Z</time></trkpt>
<trkpt lat="30.157355" lon="97.309685">
<time>2016-10-07T19:51:27Z</time></trkpt>
<trkpt lat="30.157235" lon="97.309805">
<time>2016-10-07T19:51:28Z</time></trkpt>
<trkpt lat="30.157094" lon="97.309934">
<time>2016-10-07T19:51:29Z</time></trkpt>
<trkpt lat="30.157004" lon="97.310004">
<time>2016-10-07T19:51:30Z</time></trkpt>
<trkpt lat="30.156874" lon="97.310094">
<time>2016-10-07T19:51:31Z</time></trkpt>
<trkpt lat="30.156744" lon="97.310164">
<time>2016-10-07T19:51:32Z</time></trkpt>
<trkpt lat="30.156604" lon="97.310204">
<time>2016-10-07T19:51:33Z</time></trkpt>
<trkpt lat="30.156494" lon="97.310214">
<time>2016-10-07T19:51:34Z</time></trkpt>
<trkpt lat="30.156374" lon="97.310214">
<time>2016-10-07T19:51:35Z</time></trkpt>
<trkpt lat="30.156244" lon="97.310194">
<time>2016-10-07T19:51:36Z</time></trkpt>
<trkpt lat="30.156094" lon="97.310144">
<time>2016-10-07T19:51:37Z</time></trkpt>
<trkpt lat="30.156024" lon="97.310114">
<time>2016-10-07T19:51:38Z</time></trkpt>
<trkpt lat="30.155974" lon="97.310094">
<time>2016-10-07T19:51:39Z</time></trkpt>
<trkpt lat="30.155884" lon="97.310044">
<time>2016-10-07T19:51:40Z</time></trkpt>
<trkpt lat="30.155804" lon="97.310004">
<time>2016-10-07T19:51:41Z</time></trkpt>
<trkpt lat="30.155704" lon="97.309944">
<time>2016-10-07T19:51:42Z</time></trkpt>
<trkpt lat="30.155664" lon="97.309925">
<time>2016-10-07T19:51:43Z</time></trkpt>
<trkpt lat="30.155415" lon="97.309785">
<time>2016-10-07T19:51:44Z</time></trkpt>
<trkpt lat="30.155095" lon="97.309605">
<time>2016-10-07T19:51:45Z</time></trkpt>
<trkpt lat="30.154885" lon="97.309496">
<time>2016-10-07T19:51:46Z</time></trkpt>
<trkpt lat="30.154765" lon="97.309436">
<time>2016-10-07T19:51:47Z</time></trkpt>
<trkpt lat="30.154585" lon="97.309366">
<time>2016-10-07T19:51:48Z</time></trkpt>
<trkpt lat="30.154276" lon="97.309256">
<time>2016-10-07T19:51:49Z</time></trkpt>
<trkpt lat="30.153986" lon="97.309156">
<time>2016-10-07T19:51:50Z</time></trkpt>
<trkpt lat="30.153786" lon="97.309096">
<time>2016-10-07T19:51:51Z</time></trkpt>
<trkpt lat="30.153636" lon="97.309047">
<time>2016-10-07T19:51:52Z</time></trkpt>
<trkpt lat="30.153506" lon="97.309017">
<time>2016-10-07T19:51:53Z</time></trkpt>
<trkpt lat="30.153376" lon="97.308997">
<time>2016-10-07T19:51:54Z</time></trkpt>
<trkpt lat="30.153166" lon="97.308967">
<time>2016-10-07T19:51:55Z</time></trkpt>
<trkpt lat="30.152736" lon="97.308937">
<time>2016-10-07T19:51:56Z</time></trkpt>
<trkpt lat="30.150906" lon="97.308827">
<time>2016-10-07T19:51:57Z</time></trkpt>
<trkpt lat="30.150586" lon="97.308807">
<time>2016-10-07T19:51:58Z</time></trkpt>
<trkpt lat="30.150526" lon="97.308807">
<time>2016-10-07T19:51:59Z</time></trkpt>
<trkpt lat="30.150446" lon="97.308787">
<time>2016-10-07T19:52:00Z</time></trkpt>
<trkpt lat="30.150406" lon="97.308777">
<time>2016-10-07T19:52:01Z</time></trkpt>
<trkpt lat="30.150367" lon="97.308757">
<time>2016-10-07T19:52:02Z</time></trkpt>
<trkpt lat="30.150327" lon="97.308727">
<time>2016-10-07T19:52:03Z</time></trkpt>
<trkpt lat="30.150297" lon="97.308697">
<time>2016-10-07T19:52:04Z</time></trkpt>
<trkpt lat="30.150267" lon="97.308657">
<time>2016-10-07T19:52:05Z</time></trkpt>
<trkpt lat="30.150257" lon="97.308628">
<time>2016-10-07T19:52:06Z</time></trkpt>
<trkpt lat="30.150247" lon="97.308588">
<time>2016-10-07T19:52:07Z</time></trkpt>
<trkpt lat="30.150237" lon="97.308538">
<time>2016-10-07T19:52:08Z</time></trkpt>
<trkpt lat="30.150237" lon="97.308498">
<time>2016-10-07T19:52:09Z</time></trkpt>
<trkpt lat="30.150247" lon="97.308458">
<time>2016-10-07T19:52:10Z</time></trkpt>
<trkpt lat="30.150267" lon="97.308408">
<time>2016-10-07T19:52:11Z</time></trkpt>
<trkpt lat="30.150297" lon="97.308348">
<time>2016-10-07T19:52:12Z</time></trkpt>
<trkpt lat="30.150337" lon="97.308298">
<time>2016-10-07T19:52:13Z</time></trkpt>
<trkpt lat="30.150387" lon="97.308248">
<time>2016-10-07T19:52:14Z</time></trkpt>
<trkpt lat="30.150417" lon="97.308208">
<time>2016-10-07T19:52:15Z</time></trkpt>
<trkpt lat="30.150658" lon="97.308009">
<time>2016-10-07T19:52:16Z</time></trkpt>
<trkpt lat="30.150848" lon="97.307829">
<time>2016-10-07T19:52:17Z</time></trkpt>
<trkpt lat="30.150928" lon="97.307759">
<time>2016-10-07T19:52:18Z</time></trkpt>
<trkpt lat="30.150988" lon="97.3077">
<time>2016-10-07T19:52:19Z</time></trkpt>
<trkpt lat="30.151038" lon="97.30764">
<time>2016-10-07T19:52:20Z</time></trkpt>
<trkpt lat="30.151069" lon="97.3076">
<time>2016-10-07T19:52:21Z</time></trkpt>
<trkpt lat="30.151139" lon="97.3075">
<time>2016-10-07T19:52:22Z</time></trkpt>
<trkpt lat="30.151319" lon="97.307201">
<time>2016-10-07T19:52:23Z</time></trkpt>
<trkpt lat="30.15139" lon="97.307051">
<time>2016-10-07T19:52:24Z</time></trkpt>
<trkpt lat="30.15146" lon="97.306941">
<time>2016-10-07T19:52:25Z</time></trkpt>
<trkpt lat="30.15154" lon="97.306822">
<time>2016-10-07T19:52:26Z</time></trkpt>
<trkpt lat="30.15162" lon="97.306722">
<time>2016-10-07T19:52:27Z</time></trkpt>
<trkpt lat="30.15171" lon="97.306632">
<time>2016-10-07T19:52:28Z</time></trkpt>
<trkpt lat="30.1518" lon="97.306552">
<time>2016-10-07T19:52:29Z</time></trkpt>
<trkpt lat="30.151881" lon="97.306492">
<time>2016-10-07T19:52:30Z</time></trkpt>
<trkpt lat="30.152101" lon="97.306313">
<time>2016-10-07T19:52:31Z</time></trkpt>
<trkpt lat="30.152321" lon="97.306103">
<time>2016-10-07T19:52:32Z</time></trkpt>
<trkpt lat="30.152532" lon="97.305864">
<time>2016-10-07T19:52:33Z</time></trkpt>
<trkpt lat="30.152832" lon="97.305534">
<time>2016-10-07T19:52:34Z</time></trkpt>
<trkpt lat="30.153033" lon="97.305305">
<time>2016-10-07T19:52:35Z</time></trkpt>
<trkpt lat="30.153133" lon="97.305175">
<time>2016-10-07T19:52:36Z</time></trkpt>
<trkpt lat="30.153253" lon="97.305006">
<time>2016-10-07T19:52:37Z</time></trkpt>
<trkpt lat="30.153313" lon="97.304906">
<time>2016-10-07T19:52:38Z</time></trkpt>
<trkpt lat="30.153484" lon="97.304616">
<time>2016-10-07T19:52:39Z</time></trkpt>
<trkpt lat="30.153604" lon="97.304407">
<time>2016-10-07T19:52:40Z</time></trkpt>
<trkpt lat="30.153724" lon="97.304197">
<time>2016-10-07T19:52:41Z</time></trkpt>
<trkpt lat="30.153835" lon="97.304028">
<time>2016-10-07T19:52:42Z</time></trkpt>
<trkpt lat="30.153995" lon="97.303818">
<time>2016-10-07T19:52:43Z</time></trkpt>
<trkpt lat="30.154105" lon="97.303688">
<time>2016-10-07T19:52:44Z</time></trkpt>
<trkpt lat="30.154226" lon="97.303539">
<time>2016-10-07T19:52:45Z</time></trkpt>
<trkpt lat="30.154316" lon="97.303419">
<time>2016-10-07T19:52:46Z</time></trkpt>
<trkpt lat="30.154456" lon="97.303249">
<time>2016-10-07T19:52:47Z</time></trkpt>
<trkpt lat="30.154576" lon="97.30309">
<time>2016-10-07T19:52:48Z</time></trkpt>
<trkpt lat="30.154626" lon="97.30302">
<time>2016-10-07T19:52:49Z</time></trkpt>
<trkpt lat="30.154697" lon="97.30291">
<time>2016-10-07T19:52:50Z</time></trkpt>
<trkpt lat="30.154757" lon="97.3028">
<time>2016-10-07T19:52:51Z</time></trkpt>
<trkpt lat="30.154827" lon="97.30269">
<time>2016-10-07T19:52:52Z</time></trkpt>
<trkpt lat="30.154957" lon="97.302451">
<time>2016-10-07T19:52:53Z</time></trkpt>
<trkpt lat="30.155038" lon="97.302301">
<time>2016-10-07T19:52:54Z</time></trkpt>
<trkpt lat="30.155098" lon="97.302212">
<time>2016-10-07T19:52:55Z</time></trkpt>
<trkpt lat="30.155158" lon="97.302142">
<time>2016-10-07T19:52:56Z</time></trkpt>
<trkpt lat="30.155208" lon="97.302082">
<time>2016-10-07T19:52:57Z</time></trkpt>
<trkpt lat="30.155508" lon="97.301812">
<time>2016-10-07T19:52:58Z</time></trkpt>
<trkpt lat="30.155799" lon="97.301553">
<time>2016-10-07T19:52:59Z</time></trkpt>
<trkpt lat="30.155859" lon="97.301483">
<time>2016-10-07T19:53:00Z</time></trkpt>
<trkpt lat="30.155919" lon="97.301413">
<time>2016-10-07T19:53:01Z</time></trkpt>
<trkpt lat="30.155959" lon="97.301333">
<time>2016-10-07T19:53:02Z</time></trkpt>
<trkpt lat="30.155989" lon="97.301263">
<time>2016-10-07T19:53:03Z</time></trkpt>
<trkpt lat="30.15602" lon="97.301174">
<time>2016-10-07T19:53:04Z</time></trkpt>
<trkpt lat="30.15602" lon="97.301084">
<time>2016-10-07T19:53:05Z</time></trkpt>
<trkpt lat="30.15602" lon="97.300994">
<time>2016-10-07T19:53:06Z</time></trkpt>
<trkpt lat="30.156" lon="97.300874">
<time>2016-10-07T19:53:07Z</time></trkpt>
<trkpt lat="30.15597" lon="97.300735">
<time>2016-10-07T19:53:08Z</time></trkpt>
<trkpt lat="30.15594" lon="97.300625">
<time>2016-10-07T19:53:09Z</time></trkpt>
<trkpt lat="30.155901" lon="97.300505">
<time>2016-10-07T19:53:10Z</time></trkpt>
<trkpt lat="30.155831" lon="97.300325">
<time>2016-10-07T19:53:11Z</time></trkpt>
<trkpt lat="30.155781" lon="97.300206">
<time>2016-10-07T19:53:12Z</time></trkpt>
<trkpt lat="30.155701" lon="97.300076">
<time>2016-10-07T19:53:13Z</time></trkpt>
<trkpt lat="30.155641" lon="97.299976">
<time>2016-10-07T19:53:14Z</time></trkpt>
<trkpt lat="30.155592" lon="97.299886">
<time>2016-10-07T19:53:15Z</time></trkpt>
<trkpt lat="30.155562" lon="97.299817">
<time>2016-10-07T19:53:16Z</time></trkpt>
<trkpt lat="30.155542" lon="97.299747">
<time>2016-10-07T19:53:17Z</time></trkpt>
<trkpt lat="30.155532" lon="97.299667">
<time>2016-10-07T19:53:18Z</time></trkpt>
<trkpt lat="30.155542" lon="97.299607">
<time>2016-10-07T19:53:19Z</time></trkpt>
<trkpt lat="30.155552" lon="97.299547">
<time>2016-10-07T19:53:20Z</time></trkpt>
<trkpt lat="30.155572" lon="97.299487">
<time>2016-10-07T19:53:21Z</time></trkpt>
<trkpt lat="30.155602" lon="97.299407">
<time>2016-10-07T19:53:22Z</time></trkpt>
<trkpt lat="30.155683" lon="97.299228">
<time>2016-10-07T19:53:23Z</time></trkpt>
<trkpt lat="30.155723" lon="97.299118">
<time>2016-10-07T19:53:24Z</time></trkpt>
<trkpt lat="30.155763" lon="97.299008">
<time>2016-10-07T19:53:25Z</time></trkpt>
<trkpt lat="30.155793" lon="97.298898">
<time>2016-10-07T19:53:26Z</time></trkpt>
<trkpt lat="30.155823" lon="97.298779">
<time>2016-10-07T19:53:27Z</time></trkpt>
<trkpt lat="30.155844" lon="97.298609">
<time>2016-10-07T19:53:28Z</time></trkpt>
<trkpt lat="30.155854" lon="97.298439">
<time>2016-10-07T19:53:29Z</time></trkpt>
<trkpt lat="30.155884" lon="97.29811">
<time>2016-10-07T19:53:30Z</time></trkpt>
<trkpt lat="30.155905" lon="97.297821">
<time>2016-10-07T19:53:31Z</time></trkpt>
<trkpt lat="30.155905" lon="97.297651">
<time>2016-10-07T19:53:32Z</time></trkpt>
<trkpt lat="30.155915" lon="97.297521">
<time>2016-10-07T19:53:33Z</time></trkpt>
<trkpt lat="30.155906" lon="97.297391">
<time>2016-10-07T19:53:34Z</time></trkpt>
<trkpt lat="30.155866" lon="97.297212">
<time>2016-10-07T19:53:35Z</time></trkpt>
<trkpt lat="30.155786" lon="97.296982">
<time>2016-10-07T19:53:36Z</time></trkpt>
<trkpt lat="30.155697" lon="97.296733">
<time>2016-10-07T19:53:37Z</time></trkpt>
<trkpt lat="30.155637" lon="97.296623">
<time>2016-10-07T19:53:38Z</time></trkpt>
<trkpt lat="30.155547" lon="97.296503">
<time>2016-10-07T19:53:39Z</time></trkpt>
<trkpt lat="30.155477" lon="97.296443">
<time>2016-10-07T19:53:40Z</time></trkpt>
<trkpt lat="30.155417" lon="97.296403">
<time>2016-10-07T19:53:41Z</time></trkpt>
<trkpt lat="30.155287" lon="97.296334">
<time>2016-10-07T19:53:42Z</time></trkpt>
<trkpt lat="30.155067" lon="97.296274">
<time>2016-10-07T19:53:43Z</time></trkpt>
<trkpt lat="30.154817" lon="97.296224">
<time>2016-10-07T19:53:44Z</time></trkpt>
<trkpt lat="30.154537" lon="97.296194">
<time>2016-10-07T19:53:45Z</time></trkpt>
<trkpt lat="30.153827" lon="97.296194">
<time>2016-10-07T19:53:46Z</time></trkpt>
<trkpt lat="30.153308" lon="97.296194">
<time>2016-10-07T19:53:47Z</time></trkpt>
<trkpt lat="30.153128" lon="97.296194">
<time>2016-10-07T19:53:48Z</time></trkpt>
<trkpt lat="30.153058" lon="97.296184">
<time>2016-10-07T19:53:49Z</time></trkpt>
<trkpt lat="30.152998" lon="97.296154">
<time>2016-10-07T19:53:50Z</time></trkpt>
<trkpt lat="30.152938" lon="97.296114">
<time>2016-10-07T19:53:51Z</time></trkpt>
<trkpt lat="30.152908" lon="97.296084">
<time>2016-10-07T19:53:52Z</time></trkpt>
<trkpt lat="30.152878" lon="97.296044">
<time>2016-10-07T19:53:53Z</time></trkpt>
<trkpt lat="30.152858" lon="97.296014">
<time>2016-10-07T19:53:54Z</time></trkpt>
<trkpt lat="30.152838" lon="97.295964">
<time>2016-10-07T19:53:55Z</time></trkpt>
<trkpt lat="30.152818" lon="97.295904">
<time>2016-10-07T19:53:56Z</time></trkpt>
<trkpt lat="30.152808" lon="97.295835">
<time>2016-10-07T19:53:57Z</time></trkpt>
<trkpt lat="30.152778" lon="97.295585">
<time>2016-10-07T19:53:58Z</time></trkpt>
<trkpt lat="30.152759" lon="97.295216">
<time>2016-10-07T19:53:59Z</time></trkpt>
<trkpt lat="30.152739" lon="97.294956">
<time>2016-10-07T19:54:00Z</time></trkpt>
<trkpt lat="30.15272" lon="97.294747">
<time>2016-10-07T19:54:01Z</time></trkpt>
<trkpt lat="30.15267" lon="97.294557">
<time>2016-10-07T19:54:02Z</time></trkpt>
<trkpt lat="30.15259" lon="97.294367">
<time>2016-10-07T19:54:03Z</time></trkpt>
<trkpt lat="30.152491" lon="97.294208">
<time>2016-10-07T19:54:04Z</time></trkpt>
<trkpt lat="30.152411" lon="97.294118">
<time>2016-10-07T19:54:05Z</time></trkpt>
<trkpt lat="30.152251" lon="97.293998">
<time>2016-10-07T19:54:06Z</time></trkpt>
<trkpt lat="30.152111" lon="97.293928">
<time>2016-10-07T19:54:07Z</time></trkpt>
<trkpt lat="30.152011" lon="97.293878">
<time>2016-10-07T19:54:08Z</time></trkpt>
<trkpt lat="30.151811" lon="97.293809">
<time>2016-10-07T19:54:09Z</time></trkpt>
<trkpt lat="30.151671" lon="97.293759">
<time>2016-10-07T19:54:10Z</time></trkpt>
<trkpt lat="30.151501" lon="97.293699">
<time>2016-10-07T19:54:11Z</time></trkpt>
<trkpt lat="30.151331" lon="97.293649">
<time>2016-10-07T19:54:12Z</time></trkpt>
<trkpt lat="30.151221" lon="97.293609">
<time>2016-10-07T19:54:13Z</time></trkpt>
<trkpt lat="30.151141" lon="97.293589">
<time>2016-10-07T19:54:14Z</time></trkpt>
<trkpt lat="30.151091" lon="97.293579">
<time>2016-10-07T19:54:15Z</time></trkpt>
<trkpt lat="30.151031" lon="97.293569">
<time>2016-10-07T19:54:16Z</time></trkpt>
<trkpt lat="30.150971" lon="97.293569">
<time>2016-10-07T19:54:17Z</time></trkpt>
<trkpt lat="30.150911" lon="97.293569">
<time>2016-10-07T19:54:18Z</time></trkpt>
<trkpt lat="30.150841" lon="97.293589">
<time>2016-10-07T19:54:19Z</time></trkpt>
<trkpt lat="30.150731" lon="97.293619">
<time>2016-10-07T19:54:20Z</time></trkpt>
<trkpt lat="30.150471" lon="97.293719">
<time>2016-10-07T19:54:21Z</time></trkpt>
<trkpt lat="30.150201" lon="97.293839">
<time>2016-10-07T19:54:22Z</time></trkpt>
<trkpt lat="30.149961" lon="97.293928">
<time>2016-10-07T19:54:23Z</time></trkpt>
<trkpt lat="30.149771" lon="97.293988">
<time>2016-10-07T19:54:24Z</time></trkpt>
<trkpt lat="30.149441" lon="97.294078">
<time>2016-10-07T19:54:25Z</time></trkpt>
<trkpt lat="30.149061" lon="97.294168">
<time>2016-10-07T19:54:26Z</time></trkpt>
<trkpt lat="30.148881" lon="97.294208">
<time>2016-10-07T19:54:27Z</time></trkpt>
<trkpt lat="30.148751" lon="97.294208">
<time>2016-10-07T19:54:28Z</time></trkpt>
<trkpt lat="30.148601" lon="97.294208">
<time>2016-10-07T19:54:29Z</time></trkpt>
<trkpt lat="30.148541" lon="97.294198">
<time>2016-10-07T19:54:30Z</time></trkpt>
<trkpt lat="30.148431" lon="97.294168">
<time>2016-10-07T19:54:31Z</time></trkpt>
<trkpt lat="30.148171" lon="97.294088">
<time>2016-10-07T19:54:32Z</time></trkpt>
<trkpt lat="30.148051" lon="97.294068">
<time>2016-10-07T19:54:33Z</time></trkpt>
<trkpt lat="30.147931" lon="97.294048">
<time>2016-10-07T19:54:34Z</time></trkpt>
<trkpt lat="30.147801" lon="97.294058">
<time>2016-10-07T19:54:35Z</time></trkpt>
<trkpt lat="30.147641" lon="97.294088">
<time>2016-10-07T19:54:36Z</time></trkpt>
<trkpt lat="30.147221" lon="97.294238">
<time>2016-10-07T19:54:37Z</time></trkpt>
<trkpt lat="30.14696" lon="97.294318">
<time>2016-10-07T19:54:38Z</time></trkpt>
<trkpt lat="30.14676" lon="97.294388">
<time>2016-10-07T19:54:39Z</time></trkpt>
<trkpt lat="30.14656" lon="97.294457">
<time>2016-10-07T19:54:40Z</time></trkpt>
<trkpt lat="30.14643" lon="97.294497">
<time>2016-10-07T19:54:41Z</time></trkpt>
<trkpt lat="30.1463" lon="97.294527">
<time>2016-10-07T19:54:42Z</time></trkpt>
<trkpt lat="30.14613" lon="97.294537">
<time>2016-10-07T19:54:43Z</time></trkpt>
<trkpt lat="30.14598" lon="97.294527">
<time>2016-10-07T19:54:44Z</time></trkpt>
<trkpt lat="30.14585" lon="97.294507">
<time>2016-10-07T19:54:45Z</time></trkpt>
<trkpt lat="30.14548" lon="97.294457">
<time>2016-10-07T19:54:46Z</time></trkpt>
<trkpt lat="30.14526" lon="97.294428">
<time>2016-10-07T19:54:47Z</time></trkpt>
<trkpt lat="30.1451" lon="97.294408">
<time>2016-10-07T19:54:48Z</time></trkpt>
<trkpt lat="30.14491" lon="97.294378">
<time>2016-10-07T19:54:49Z</time></trkpt>
<trkpt lat="30.14471" lon="97.294348">
<time>2016-10-07T19:54:50Z</time></trkpt>
<trkpt lat="30.14452" lon="97.294308">
<time>2016-10-07T19:54:51Z</time></trkpt>
<trkpt lat="30.144211" lon="97.294208">
<time>2016-10-07T19:54:52Z</time></trkpt>
<trkpt lat="30.143941" lon="97.294088">
<time>2016-10-07T19:54:53Z</time></trkpt>
<trkpt lat="30.143681" lon="97.293928">
<time>2016-10-07T19:54:54Z</time></trkpt>
<trkpt lat="30.143541" lon="97.293839">
<time>2016-10-07T19:54:55Z</time></trkpt>
<trkpt lat="30.143411" lon="97.293769">
<time>2016-10-07T19:54:56Z</time></trkpt>
<trkpt lat="30.143281" lon="97.293699">
<time>2016-10-07T19:54:57Z</time></trkpt>
<trkpt lat="30.143241" lon="97.293679">
<time>2016-10-07T19:54:58Z</time></trkpt>
<trkpt lat="30.143171" lon="97.293659">
<time>2016-10-07T19:54:59Z</time></trkpt>
<trkpt lat="30.143111" lon="97.293649">
<time>2016-10-07T19:55:00Z</time></trkpt>
<trkpt lat="30.143021" lon="97.293649">
<time>2016-10-07T19:55:01Z</time></trkpt>
<trkpt lat="30.142901" lon="97.293659">
<time>2016-10-07T19:55:02Z</time></trkpt>
<trkpt lat="30.142711" lon="97.293689">
<time>2016-10-07T19:55:03Z</time></trkpt>
<trkpt lat="30.142521" lon="97.293739">
<time>2016-10-07T19:55:04Z</time></trkpt>
<trkpt lat="30.142311" lon="97.293779">
<time>2016-10-07T19:55:05Z</time></trkpt>
<trkpt lat="30.142151" lon="97.293789">
<time>2016-10-07T19:55:06Z</time></trkpt>
<trkpt lat="30.142041" lon="97.293779">
<time>2016-10-07T19:55:07Z</time></trkpt>
<trkpt lat="30.141941" lon="97.293759">
<time>2016-10-07T19:55:08Z</time></trkpt>
<trkpt lat="30.141811" lon="97.293729">
<time>2016-10-07T19:55:09Z</time></trkpt>
<trkpt lat="30.141631" lon="97.293659">
<time>2016-10-07T19:55:10Z</time></trkpt>
<trkpt lat="30.141501" lon="97.293609">
<time>2016-10-07T19:55:11Z</time></trkpt>
<trkpt lat="30.141412" lon="97.293569">
<time>2016-10-07T19:55:12Z</time></trkpt>
<trkpt lat="30.141362" lon="97.293519">
<time>2016-10-07T19:55:13Z</time></trkpt>
<trkpt lat="30.141322" lon="97.293459">
<time>2016-10-07T19:55:14Z</time></trkpt>
<trkpt lat="30.141302" lon="97.2934">
<time>2016-10-07T19:55:15Z</time></trkpt>
<trkpt lat="30.141292" lon="97.29333">
<time>2016-10-07T19:55:16Z</time></trkpt>
<trkpt lat="30.141302" lon="97.29327">
<time>2016-10-07T19:55:17Z</time></trkpt>
<trkpt lat="30.141312" lon="97.29322">
<time>2016-10-07T19:55:18Z</time></trkpt>
<trkpt lat="30.141332" lon="97.29317">
<time>2016-10-07T19:55:19Z</time></trkpt>
<trkpt lat="30.141382" lon="97.29311">
<time>2016-10-07T19:55:20Z</time></trkpt>
<trkpt lat="30.141452" lon="97.29304">
<time>2016-10-07T19:55:21Z</time></trkpt>
<trkpt lat="30.141753" lon="97.292801">
<time>2016-10-07T19:55:22Z</time></trkpt>
<trkpt lat="30.141893" lon="97.292711">
<time>2016-10-07T19:55:23Z</time></trkpt>
<trkpt lat="30.142013" lon="97.292641">
<time>2016-10-07T19:55:24Z</time></trkpt>
<trkpt lat="30.142123" lon="97.292591">
<time>2016-10-07T19:55:25Z</time></trkpt>
<trkpt lat="30.142263" lon="97.292531">
<time>2016-10-07T19:55:26Z</time></trkpt>
<trkpt lat="30.142483" lon="97.292441">
<time>2016-10-07T19:55:27Z</time></trkpt>
<trkpt lat="30.142713" lon="97.292361">
<time>2016-10-07T19:55:28Z</time></trkpt>
<trkpt lat="30.142813" lon="97.292322">
<time>2016-10-07T19:55:29Z</time></trkpt>
<trkpt lat="30.142893" lon="97.292272">
<time>2016-10-07T19:55:30Z</time></trkpt>
<trkpt lat="30.143084" lon="97.292062">
<time>2016-10-07T19:55:31Z</time></trkpt>
<trkpt lat="30.143234" lon="97.291872">
<time>2016-10-07T19:55:32Z</time></trkpt>
<trkpt lat="30.143404" lon="97.291643">
<time>2016-10-07T19:55:33Z</time></trkpt>
<trkpt lat="30.143615" lon="97.291383">
<time>2016-10-07T19:55:34Z</time></trkpt>
<trkpt lat="30.143765" lon="97.291234">
<time>2016-10-07T19:55:35Z</time></trkpt>
<trkpt lat="30.143925" lon="97.291094">
<time>2016-10-07T19:55:36Z</time></trkpt>
<trkpt lat="30.144115" lon="97.290924">
<time>2016-10-07T19:55:37Z</time></trkpt>
<trkpt lat="30.144155" lon="97.290864">
<time>2016-10-07T19:55:38Z</time></trkpt>
<trkpt lat="30.144206" lon="97.290804">
<time>2016-10-07T19:55:39Z</time></trkpt>
<trkpt lat="30.144296" lon="97.290645">
<time>2016-10-07T19:55:40Z</time></trkpt>
<trkpt lat="30.144386" lon="97.290505">
<time>2016-10-07T19:55:41Z</time></trkpt>
<trkpt lat="30.144436" lon="97.290385">
<time>2016-10-07T19:55:42Z</time></trkpt>
<trkpt lat="30.144486" lon="97.290295">
<time>2016-10-07T19:55:43Z</time></trkpt>
<trkpt lat="30.144516" lon="97.290215">
<time>2016-10-07T19:55:44Z</time></trkpt>
<trkpt lat="30.144546" lon="97.290146">
<time>2016-10-07T19:55:45Z</time></trkpt>
<trkpt lat="30.144557" lon="97.290086">
<time>2016-10-07T19:55:46Z</time></trkpt>
<trkpt lat="30.144567" lon="97.289956">
<time>2016-10-07T19:55:47Z</time></trkpt>
<trkpt lat="30.144557" lon="97.289876">
<time>2016-10-07T19:55:48Z</time></trkpt>
<trkpt lat="30.144547" lon="97.289776">
<time>2016-10-07T19:55:49Z</time></trkpt>
<trkpt lat="30.144517" lon="97.289646">
<time>2016-10-07T19:55:50Z</time></trkpt>
<trkpt lat="30.144447" lon="97.289467">
<time>2016-10-07T19:55:51Z</time></trkpt>
<trkpt lat="30.144318" lon="97.289237">
<time>2016-10-07T19:55:52Z</time></trkpt>
<trkpt lat="30.144178" lon="97.288998">
<time>2016-10-07T19:55:53Z</time></trkpt>
<trkpt lat="30.144048" lon="97.288848">
<time>2016-10-07T19:55:54Z</time></trkpt>
<trkpt lat="30.143968" lon="97.288768">
<time>2016-10-07T19:55:55Z</time></trkpt>
<trkpt lat="30.143838" lon="97.288678">
<time>2016-10-07T19:55:56Z</time></trkpt>
<trkpt lat="30.143689" lon="97.288598">
<time>2016-10-07T19:55:57Z</time></trkpt>
<trkpt lat="30.143149" lon="97.288319">
<time>2016-10-07T19:55:58Z</time></trkpt>
<trkpt lat="30.142899" lon="97.288199">
<time>2016-10-07T19:55:59Z</time></trkpt>
<trkpt lat="30.142659" lon="97.288129">
<time>2016-10-07T19:56:00Z</time></trkpt>
<trkpt lat="30.142459" lon="97.288079">
<time>2016-10-07T19:56:01Z</time></trkpt>
<trkpt lat="30.142319" lon="97.288049">
<time>2016-10-07T19:56:02Z</time></trkpt>
<trkpt lat="30.142179" lon="97.288029">
<time>2016-10-07T19:56:03Z</time></trkpt>
<trkpt lat="30.142069" lon="97.288029">
<time>2016-10-07T19:56:04Z</time></trkpt>
<trkpt lat="30.141919" lon="97.288049">
<time>2016-10-07T19:56:05Z</time></trkpt>
<trkpt lat="30.141809" lon="97.288069">
<time>2016-10-07T19:56:06Z</time></trkpt>
<trkpt lat="30.141439" lon="97.288139">
<time>2016-10-07T19:56:07Z</time></trkpt>
<trkpt lat="30.141259" lon="97.288189">
<time>2016-10-07T19:56:08Z</time></trkpt>
<trkpt lat="30.141179" lon="97.288219">
<time>2016-10-07T19:56:09Z</time></trkpt>
<trkpt lat="30.141089" lon="97.288259">
<time>2016-10-07T19:56:10Z</time></trkpt>
<trkpt lat="30.141009" lon="97.288319">
<time>2016-10-07T19:56:11Z</time></trkpt>
<trkpt lat="30.140869" lon="97.288419">
<time>2016-10-07T19:56:12Z</time></trkpt>
<trkpt lat="30.140779" lon="97.288509">
<time>2016-10-07T19:56:13Z</time></trkpt>
<trkpt lat="30.140649" lon="97.288648">
<time>2016-10-07T19:56:14Z</time></trkpt>
<trkpt lat="30.140578" lon="97.288728">
<time>2016-10-07T19:56:15Z</time></trkpt>
<trkpt lat="30.140528" lon="97.288778">
<time>2016-10-07T19:56:16Z</time></trkpt>
<trkpt lat="30.140458" lon="97.288818">
<time>2016-10-07T19:56:17Z</time></trkpt>
<trkpt lat="30.140398" lon="97.288838">
<time>2016-10-07T19:56:18Z</time></trkpt>
<trkpt lat="30.140358" lon="97.288828">
<time>2016-10-07T19:56:19Z</time></trkpt>
<trkpt lat="30.140308" lon="97.288808">
<time>2016-10-07T19:56:20Z</time></trkpt>
<trkpt lat="30.140268" lon="97.288748">
<time>2016-10-07T19:56:21Z</time></trkpt>
<trkpt lat="30.140239" lon="97.288658">
<time>2016-10-07T19:56:22Z</time></trkpt>
<trkpt lat="30.140189" lon="97.288419">
<time>2016-10-07T19:56:23Z</time></trkpt>
<trkpt lat="30.140149" lon="97.288209">
<time>2016-10-07T19:56:24Z</time></trkpt>
<trkpt lat="30.140119" lon="97.288019">
<time>2016-10-07T19:56:25Z</time></trkpt>
<trkpt lat="30.14011" lon="97.28787">
<time>2016-10-07T19:56:26Z</time></trkpt>
<trkpt lat="30.1401" lon="97.2875">
<time>2016-10-07T19:56:27Z</time></trkpt>
<trkpt lat="30.140091" lon="97.287161">
<time>2016-10-07T19:56:28Z</time></trkpt>
<trkpt lat="30.140101" lon="97.286901">
<time>2016-10-07T19:56:29Z</time></trkpt>
<trkpt lat="30.140111" lon="97.286812">
<time>2016-10-07T19:56:30Z</time></trkpt>
<trkpt lat="30.140121" lon="97.286732">
<time>2016-10-07T19:56:31Z</time></trkpt>
<trkpt lat="30.140141" lon="97.286682">
<time>2016-10-07T19:56:32Z</time></trkpt>
<trkpt lat="30.140171" lon="97.286622">
<time>2016-10-07T19:56:33Z</time></trkpt>
<trkpt lat="30.140231" lon="97.286532">
<time>2016-10-07T19:56:34Z</time></trkpt>
<trkpt lat="30.140301" lon="97.286472">
<time>2016-10-07T19:56:35Z</time></trkpt>
<trkpt lat="30.140381" lon="97.286432">
<time>2016-10-07T19:56:36Z</time></trkpt>
<trkpt lat="30.140462" lon="97.286392">
<time>2016-10-07T19:56:37Z</time></trkpt>
<trkpt lat="30.140542" lon="97.286332">
<time>2016-10-07T19:56:38Z</time></trkpt>
<trkpt lat="30.140622" lon="97.286262">
<time>2016-10-07T19:56:39Z</time></trkpt>
<trkpt lat="30.140682" lon="97.286193">
<time>2016-10-07T19:56:40Z</time></trkpt>
<trkpt lat="30.140742" lon="97.286093">
<time>2016-10-07T19:56:41Z</time></trkpt>
<trkpt lat="30.140812" lon="97.285983">
<time>2016-10-07T19:56:42Z</time></trkpt>
<trkpt lat="30.140832" lon="97.285933">
<time>2016-10-07T19:56:43Z</time></trkpt>
<trkpt lat="30.140852" lon="97.285873">
<time>2016-10-07T19:56:44Z</time></trkpt>
<trkpt lat="30.140872" lon="97.285793">
<time>2016-10-07T19:56:45Z</time></trkpt>
<trkpt lat="30.140862" lon="97.285733">
<time>2016-10-07T19:56:46Z</time></trkpt>
<trkpt lat="30.140842" lon="97.285673">
<time>2016-10-07T19:56:47Z</time></trkpt>
<trkpt lat="30.140823" lon="97.285624">
<time>2016-10-07T19:56:48Z</time></trkpt>
<trkpt lat="30.140783" lon="97.285584">
<time>2016-10-07T19:56:49Z</time></trkpt>
<trkpt lat="30.140733" lon="97.285544">
<time>2016-10-07T19:56:50Z</time></trkpt>
<trkpt lat="30.140693" lon="97.285514">
<time>2016-10-07T19:56:51Z</time></trkpt>
<trkpt lat="30.140653" lon="97.285504">
<time>2016-10-07T19:56:52Z</time></trkpt>
<trkpt lat="30.140613" lon="97.285504">
<time>2016-10-07T19:56:53Z</time></trkpt>
<trkpt lat="30.140573" lon="97.285504">
<time>2016-10-07T19:56:54Z</time></trkpt>
<trkpt lat="30.140483" lon="97.285524">
<time>2016-10-07T19:56:55Z</time></trkpt>
<trkpt lat="30.140363" lon="97.285544">
<time>2016-10-07T19:56:56Z</time></trkpt>
<trkpt lat="30.140283" lon="97.285534">
<time>2016-10-07T19:56:57Z</time></trkpt>
<trkpt lat="30.140243" lon="97.285524">
<time>2016-10-07T19:56:58Z</time></trkpt>
<trkpt lat="30.140203" lon="97.285504">
<time>2016-10-07T19:56:59Z</time></trkpt>
<trkpt lat="30.140133" lon="97.285454">
<time>2016-10-07T19:57:00Z</time></trkpt>
<trkpt lat="30.140073" lon="97.285374">
<time>2016-10-07T19:57:01Z</time></trkpt>
<trkpt lat="30.140033" lon="97.285304">
<time>2016-10-07T19:57:02Z</time></trkpt>
<trkpt lat="30.139953" lon="97.285154">
<time>2016-10-07T19:57:03Z</time></trkpt>
<trkpt lat="30.139893" lon="97.285015">
<time>2016-10-07T19:57:04Z</time></trkpt>
<trkpt lat="30.139843" lon="97.284925">
<time>2016-10-07T19:57:05Z</time></trkpt>
<trkpt lat="30.139803" lon="97.284855">
<time>2016-10-07T19:57:06Z</time></trkpt>
<trkpt lat="30.139764" lon="97.284805">
<time>2016-10-07T19:57:07Z</time></trkpt>
<trkpt lat="30.139704" lon="97.284765">
<time>2016-10-07T19:57:08Z</time></trkpt>
<trkpt lat="30.139654" lon="97.284745">
<time>2016-10-07T19:57:09Z</time></trkpt>
<trkpt lat="30.139594" lon="97.284725">
<time>2016-10-07T19:57:10Z</time></trkpt>
<trkpt lat="30.139524" lon="97.284715">
<time>2016-10-07T19:57:11Z</time></trkpt>
<trkpt lat="30.139444" lon="97.284735">
<time>2016-10-07T19:57:12Z</time></trkpt>
<trkpt lat="30.139384" lon="97.284745">
<time>2016-10-07T19:57:13Z</time></trkpt>
<trkpt lat="30.139344" lon="97.284785">
<time>2016-10-07T19:57:14Z</time></trkpt>
<trkpt lat="30.139314" lon="97.284825">
<time>2016-10-07T19:57:15Z</time></trkpt>
<trkpt lat="30.139273" lon="97.284895">
<time>2016-10-07T19:57:16Z</time></trkpt>
<trkpt lat="30.139243" lon="97.285005">
<time>2016-10-07T19:57:17Z</time></trkpt>
<trkpt lat="30.139213" lon="97.285144">
<time>2016-10-07T19:57:18Z</time></trkpt>
<trkpt lat="30.139203" lon="97.285344">
<time>2016-10-07T19:57:19Z</time></trkpt>
<trkpt lat="30.139203" lon="97.285464">
<time>2016-10-07T19:57:20Z</time></trkpt>
<trkpt lat="30.139193" lon="97.285544">
<time>2016-10-07T19:57:21Z</time></trkpt>
<trkpt lat="30.139173" lon="97.285614">
<time>2016-10-07T19:57:22Z</time></trkpt>
<trkpt lat="30.139142" lon="97.285693">
<time>2016-10-07T19:57:23Z</time></trkpt>
<trkpt lat="30.139102" lon="97.285753">
<time>2016-10-07T19:57:24Z</time></trkpt>
<trkpt lat="30.139022" lon="97.285853">
<time>2016-10-07T19:57:25Z</time></trkpt>
<trkpt lat="30.138942" lon="97.285923">
<time>2016-10-07T19:57:26Z</time></trkpt>
<trkpt lat="30.138842" lon="97.286003">
<time>2016-10-07T19:57:27Z</time></trkpt>
<trkpt lat="30.138742" lon="97.286103">
<time>2016-10-07T19:57:28Z</time></trkpt>
<trkpt lat="30.138662" lon="97.286223">
<time>2016-10-07T19:57:29Z</time></trkpt>
<trkpt lat="30.138572" lon="97.286362">
<time>2016-10-07T19:57:30Z</time></trkpt>
<trkpt lat="30.138441" lon="97.286592">
<time>2016-10-07T19:57:31Z</time></trkpt>
<trkpt lat="30.138311" lon="97.286842">
<time>2016-10-07T19:57:32Z</time></trkpt>
<trkpt lat="30.138141" lon="97.287141">
<time>2016-10-07T19:57:33Z</time></trkpt>
<trkpt lat="30.1381" lon="97.287201">
<time>2016-10-07T19:57:34Z</time></trkpt>
<trkpt lat="30.13807" lon="97.287241">
<time>2016-10-07T19:57:35Z</time></trkpt>
<trkpt lat="30.13803" lon="97.287281">
<time>2016-10-07T19:57:36Z</time></trkpt>
<trkpt lat="30.13798" lon="97.287321">
<time>2016-10-07T19:57:37Z</time></trkpt>
<trkpt lat="30.13793" lon="97.287341">
<time>2016-10-07T19:57:38Z</time></trkpt>
<trkpt lat="30.13786" lon="97.287361">
<time>2016-10-07T19:57:39Z</time></trkpt>
<trkpt lat="30.13777" lon="97.287381">
<time>2016-10-07T19:57:40Z</time></trkpt>
<trkpt lat="30.13768" lon="97.287401">
<time>2016-10-07T19:57:41Z</time></trkpt>
<trkpt lat="30.13758" lon="97.28744">
<time>2016-10-07T19:57:42Z</time></trkpt>
<trkpt lat="30.13749" lon="97.28748">
<time>2016-10-07T19:57:43Z</time></trkpt>
<trkpt lat="30.1374" lon="97.28754">
<time>2016-10-07T19:57:44Z</time></trkpt>
<trkpt lat="30.1373" lon="97.2876">
<time>2016-10-07T19:57:45Z</time></trkpt>
<trkpt lat="30.13721" lon="97.28767">
<time>2016-10-07T19:57:46Z</time></trkpt>
<trkpt lat="30.13714" lon="97.28774">
<time>2016-10-07T19:57:47Z</time></trkpt>
<trkpt lat="30.13708" lon="97.28782">
<time>2016-10-07T19:57:48Z</time></trkpt>
<trkpt lat="30.13704" lon="97.28791">
<time>2016-10-07T19:57:49Z</time></trkpt>
<trkpt lat="30.136959" lon="97.288079">
<time>2016-10-07T19:57:50Z</time></trkpt>
<trkpt lat="30.136909" lon="97.288179">
<time>2016-10-07T19:57:51Z</time></trkpt>
<trkpt lat="30.136839" lon="97.288309">
<time>2016-10-07T19:57:52Z</time></trkpt>
<trkpt lat="30.136759" lon="97.288419">
<time>2016-10-07T19:57:53Z</time></trkpt>
<trkpt lat="30.136669" lon="97.288499">
<time>2016-10-07T19:57:54Z</time></trkpt>
<trkpt lat="30.136599" lon="97.288549">
<time>2016-10-07T19:57:55Z</time></trkpt>
<trkpt lat="30.136529" lon="97.288588">
<time>2016-10-07T19:57:56Z</time></trkpt>
<trkpt lat="30.136198" lon="97.288698">
<time>2016-10-07T19:57:57Z</time></trkpt>
<trkpt lat="30.135968" lon="97.288788">
<time>2016-10-07T19:57:58Z</time></trkpt>
<trkpt lat="30.135768" lon="97.288858">
<time>2016-10-07T19:57:59Z</time></trkpt>
<trkpt lat="30.135668" lon="97.288888">
<time>2016-10-07T19:58:00Z</time></trkpt>
<trkpt lat="30.135578" lon="97.288928">
<time>2016-10-07T19:58:01Z</time></trkpt>
<trkpt lat="30.135498" lon="97.288968">
<time>2016-10-07T19:58:02Z</time></trkpt>
<trkpt lat="30.135398" lon="97.289018">
<time>2016-10-07T19:58:03Z</time></trkpt>
<trkpt lat="30.135318" lon="97.289068">
<time>2016-10-07T19:58:04Z</time></trkpt>
<trkpt lat="30.135238" lon="97.289128">
<time>2016-10-07T19:58:05Z</time></trkpt>
<trkpt lat="30.134837" lon="97.289467">
<time>2016-10-07T19:58:06Z</time></trkpt>
<trkpt lat="30.134727" lon="97.289547">
<time>2016-10-07T19:58:07Z</time></trkpt>
<trkpt lat="30.134687" lon="97.289577">
<time>2016-10-07T19:58:08Z</time></trkpt>
<trkpt lat="30.134647" lon="97.289607">
<time>2016-10-07T19:58:09Z</time></trkpt>
<trkpt lat="30.134587" lon="97.289627">
<time>2016-10-07T19:58:10Z</time></trkpt>
<trkpt lat="30.134517" lon="97.289637">
<time>2016-10-07T19:58:11Z</time></trkpt>
<trkpt lat="30.134437" lon="97.289627">
<time>2016-10-07T19:58:12Z</time></trkpt>
<trkpt lat="30.134237" lon="97.289597">
<time>2016-10-07T19:58:13Z</time></trkpt>
<trkpt lat="30.134027" lon="97.289567">
<time>2016-10-07T19:58:14Z</time></trkpt>
<trkpt lat="30.133907" lon="97.289557">
<time>2016-10-07T19:58:15Z</time></trkpt>
<trkpt lat="30.133807" lon="97.289557">
<time>2016-10-07T19:58:16Z</time></trkpt>
<trkpt lat="30.133707" lon="97.289567">
<time>2016-10-07T19:58:17Z</time></trkpt>
<trkpt lat="30.133577" lon="97.289597">
<time>2016-10-07T19:58:18Z</time></trkpt>
<trkpt lat="30.133397" lon="97.289677">
<time>2016-10-07T19:58:19Z</time></trkpt>
<trkpt lat="30.133057" lon="97.289866">
<time>2016-10-07T19:58:20Z</time></trkpt>
<trkpt lat="30.132717" lon="97.290046">
<time>2016-10-07T19:58:21Z</time></trkpt>
<trkpt lat="30.132617" lon="97.290066">
<time>2016-10-07T19:58:22Z</time></trkpt>
<trkpt lat="30.132367" lon="97.290076">
<time>2016-10-07T19:58:23Z</time></trkpt>
<trkpt lat="30.132217" lon="97.290106">
<time>2016-10-07T19:58:24Z</time></trkpt>
<trkpt lat="30.132006" lon="97.290186">
<time>2016-10-07T19:58:25Z</time></trkpt>
<trkpt lat="30.131856" lon="97.290286">
<time>2016-10-07T19:58:26Z</time></trkpt>
<trkpt lat="30.131706" lon="97.290405">
<time>2016-10-07T19:58:27Z</time></trkpt>
<trkpt lat="30.131506" lon="97.290565">
<time>2016-10-07T19:58:28Z</time></trkpt>
<trkpt lat="30.131336" lon="97.290685">
<time>2016-10-07T19:58:29Z</time></trkpt>
<trkpt lat="30.131196" lon="97.290755">
<time>2016-10-07T19:58:30Z</time></trkpt>
<trkpt lat="30.131096" lon="97.290795">
<time>2016-10-07T19:58:31Z</time></trkpt>
<trkpt lat="30.130936" lon="97.290825">
<time>2016-10-07T19:58:32Z</time></trkpt>
<trkpt lat="30.130756" lon="97.290835">
<time>2016-10-07T19:58:33Z</time></trkpt>
<trkpt lat="30.130586" lon="97.290845">
<time>2016-10-07T19:58:34Z</time></trkpt>
<trkpt lat="30.130476" lon="97.290835">
<time>2016-10-07T19:58:35Z</time></trkpt>
<trkpt lat="30.130396" lon="97.290835">
<time>2016-10-07T19:58:36Z</time></trkpt>
<trkpt lat="30.130306" lon="97.290825">
<time>2016-10-07T19:58:37Z</time></trkpt>
<trkpt lat="30.130226" lon="97.290795">
<time>2016-10-07T19:58:38Z</time></trkpt>
<trkpt lat="30.130156" lon="97.290765">
<time>2016-10-07T19:58:39Z</time></trkpt>
<trkpt lat="30.130106" lon="97.290735">
<time>2016-10-07T19:58:40Z</time></trkpt>
<trkpt lat="30.130066" lon="97.290695">
<time>2016-10-07T19:58:41Z</time></trkpt>
<trkpt lat="30.130026" lon="97.290635">
<time>2016-10-07T19:58:42Z</time></trkpt>
<trkpt lat="30.130016" lon="97.290605">
<time>2016-10-07T19:58:43Z</time></trkpt>
<trkpt lat="30.130006" lon="97.290575">
<time>2016-10-07T19:58:44Z</time></trkpt>
<trkpt lat="30.129996" lon="97.290525">
<time>2016-10-07T19:58:45Z</time></trkpt>
<trkpt lat="30.129986" lon="97.290445">
<time>2016-10-07T19:58:46Z</time></trkpt>
<trkpt lat="30.129996" lon="97.290345">
<time>2016-10-07T19:58:47Z</time></trkpt>
<trkpt lat="30.130047" lon="97.289956">
<time>2016-10-07T19:58:48Z</time></trkpt>
<trkpt lat="30.130077" lon="97.289587">
<time>2016-10-07T19:58:49Z</time></trkpt>
<trkpt lat="30.130098" lon="97.289417">
<time>2016-10-07T19:58:50Z</time></trkpt>
<trkpt lat="30.130138" lon="97.289237">
<time>2016-10-07T19:58:51Z</time></trkpt>
<trkpt lat="30.130178" lon="97.289058">
<time>2016-10-07T19:58:52Z</time></trkpt>
<trkpt lat="30.130298" lon="97.288698">
<time>2016-10-07T19:58:53Z</time></trkpt>
<trkpt lat="30.130359" lon="97.288509">
<time>2016-10-07T19:58:54Z</time></trkpt>
<trkpt lat="30.130399" lon="97.288399">
<time>2016-10-07T19:58:55Z</time></trkpt>
<trkpt lat="30.130419" lon="97.288289">
<time>2016-10-07T19:58:56Z</time></trkpt>
<trkpt lat="30.130419" lon="97.288219">
<time>2016-10-07T19:58:57Z</time></trkpt>
<trkpt lat="30.130409" lon="97.288109">
<time>2016-10-07T19:58:58Z</time></trkpt>
<trkpt lat="30.130389" lon="97.28805">
<time>2016-10-07T19:58:59Z</time></trkpt>
<trkpt lat="30.130369" lon="97.28797">
<time>2016-10-07T19:59:00Z</time></trkpt>
<trkpt lat="30.13031" lon="97.28782">
<time>2016-10-07T19:59:01Z</time></trkpt>
<trkpt lat="30.13025" lon="97.28765">
<time>2016-10-07T19:59:02Z</time></trkpt>
<trkpt lat="30.13021" lon="97.28753">
<time>2016-10-07T19:59:03Z</time></trkpt>
<trkpt lat="30.13013" lon="97.287191">
<time>2016-10-07T19:59:04Z</time></trkpt>
<trkpt lat="30.130111" lon="97.287111">
<time>2016-10-07T19:59:05Z</time></trkpt>
<trkpt lat="30.130101" lon="97.287051">
<time>2016-10-07T19:59:06Z</time></trkpt>
<trkpt lat="30.130091" lon="97.286991">
<time>2016-10-07T19:59:07Z</time></trkpt>
<trkpt lat="30.130091" lon="97.286922">
<time>2016-10-07T19:59:08Z</time></trkpt>
<trkpt lat="30.130091" lon="97.286842">
<time>2016-10-07T19:59:09Z</time></trkpt>
<trkpt lat="30.130101" lon="97.286732">
<time>2016-10-07T19:59:10Z</time></trkpt>
<trkpt lat="30.130121" lon="97.286542">
<time>2016-10-07T19:59:11Z</time></trkpt>
<trkpt lat="30.130162" lon="97.286362">
<time>2016-10-07T19:59:12Z</time></trkpt>
<trkpt lat="30.130222" lon="97.286203">
<time>2016-10-07T19:59:13Z</time></trkpt>
<trkpt lat="30.130332" lon="97.285903">
<time>2016-10-07T19:59:14Z</time></trkpt>
<trkpt lat="30.130433" lon="97.285614">
<time>2016-10-07T19:59:15Z</time></trkpt>
<trkpt lat="30.130533" lon="97.285294">
<time>2016-10-07T19:59:16Z</time></trkpt>
<trkpt lat="30.130563" lon="97.285154">
<time>2016-10-07T19:59:17Z</time></trkpt>
<trkpt lat="30.130593" lon="97.285025">
<time>2016-10-07T19:59:18Z</time></trkpt>
<trkpt lat="30.130593" lon="97.284875">
<time>2016-10-07T19:59:19Z</time></trkpt>
<trkpt lat="30.130604" lon="97.284755">
<time>2016-10-07T19:59:20Z</time></trkpt>
<trkpt lat="30.130604" lon="97.284456">
<time>2016-10-07T19:59:21Z</time></trkpt>
<trkpt lat="30.130604" lon="97.284316">
<time>2016-10-07T19:59:22Z</time></trkpt>
<trkpt lat="30.130625" lon="97.284026">
<time>2016-10-07T19:59:23Z</time></trkpt>
<trkpt lat="30.130645" lon="97.283707">
<time>2016-10-07T19:59:24Z</time></trkpt>
<trkpt lat="30.130685" lon="97.283397">
<time>2016-10-07T19:59:25Z</time></trkpt>
<trkpt lat="30.130706" lon="97.283178">
<time>2016-10-07T19:59:26Z</time></trkpt>
<trkpt lat="30.130736" lon="97.283008">
<time>2016-10-07T19:59:27Z</time></trkpt>
<trkpt lat="30.130786" lon="97.282868">
<time>2016-10-07T19:59:28Z</time></trkpt>
<trkpt lat="30.130856" lon="97.282758">
<time>2016-10-07T19:59:29Z</time></trkpt>
<trkpt lat="30.130936" lon="97.282659">
<time>2016-10-07T19:59:30Z</time></trkpt>
<trkpt lat="30.131126" lon="97.282479">
<time>2016-10-07T19:59:31Z</time></trkpt>
<trkpt lat="30.131196" lon="97.282379">
<time>2016-10-07T19:59:32Z</time></trkpt>
<trkpt lat="30.131257" lon="97.282289">
<time>2016-10-07T19:59:33Z</time></trkpt>
<trkpt lat="30.131287" lon="97.282169">
<time>2016-10-07T19:59:34Z</time></trkpt>
<trkpt lat="30.131327" lon="97.28198">
<time>2016-10-07T19:59:35Z</time></trkpt>
<trkpt lat="30.131438" lon="97.281351">
<time>2016-10-07T19:59:36Z</time></trkpt>
<trkpt lat="30.131488" lon="97.280991">
<time>2016-10-07T19:59:37Z</time></trkpt>
<trkpt lat="30.131528" lon="97.280722">
<time>2016-10-07T19:59:38Z</time></trkpt>
<trkpt lat="30.131579" lon="97.280562">
<time>2016-10-07T19:59:39Z</time></trkpt>
<trkpt lat="30.131629" lon="97.280472">
<time>2016-10-07T19:59:40Z</time></trkpt>
<trkpt lat="30.131719" lon="97.280352">
<time>2016-10-07T19:59:41Z</time></trkpt>
<trkpt lat="30.131829" lon="97.280232">
<time>2016-10-07T19:59:42Z</time></trkpt>
<trkpt lat="30.132219" lon="97.279863">
<time>2016-10-07T19:59:43Z</time></trkpt>
<trkpt lat="30.13274" lon="97.279363">
<time>2016-10-07T19:59:44Z</time></trkpt>
<trkpt lat="30.13308" lon="97.279014">
<time>2016-10-07T19:59:45Z</time></trkpt>
<trkpt lat="30.13315" lon="97.278924">
<time>2016-10-07T19:59:46Z</time></trkpt>
<trkpt lat="30.13318" lon="97.278854">
<time>2016-10-07T19:59:47Z</time></trkpt>
<trkpt lat="30.133201" lon="97.278774">
<time>2016-10-07T19:59:48Z</time></trkpt>
<trkpt lat="30.133201" lon="97.278655">
<time>2016-10-07T19:59:49Z</time></trkpt>
<trkpt lat="30.133141" lon="97.278305">
<time>2016-10-07T19:59:50Z</time></trkpt>
<trkpt lat="30.133121" lon="97.278135">
<time>2016-10-07T19:59:51Z</time></trkpt>
<trkpt lat="30.133121" lon="97.277966">
<time>2016-10-07T19:59:52Z</time></trkpt>
<trkpt lat="30.133142" lon="97.277806">
<time>2016-10-07T19:59:53Z</time></trkpt>
<trkpt lat="30.133172" lon="97.277706">
<time>2016-10-07T19:59:54Z</time></trkpt>
<trkpt lat="30.133523" lon="97.276408">
<time>2016-10-07T19:59:55Z</time></trkpt>
<trkpt lat="30.133553" lon="97.276228">
<time>2016-10-07T19:59:56Z</time></trkpt>
<trkpt lat="30.133563" lon="97.276108">
<time>2016-10-07T19:59:57Z</time></trkpt>
<trkpt lat="30.133563" lon="97.275988">
<time>2016-10-07T19:59:58Z</time></trkpt>
<trkpt lat="30.133534" lon="97.275749">
<time>2016-10-07T19:59:59Z</time></trkpt>
<trkpt lat="30.133524" lon="97.275599">
<time>2016-10-07T20:00:00Z</time></trkpt>
<trkpt lat="30.133514" lon="97.275489">
<time>2016-10-07T20:00:01Z</time></trkpt>
<trkpt lat="30.133544" lon="97.275309">
<time>2016-10-07T20:00:02Z</time></trkpt>
<trkpt lat="30.133564" lon="97.275179">
<time>2016-10-07T20:00:03Z</time></trkpt>
<trkpt lat="30.133584" lon="97.275089">
<time>2016-10-07T20:00:04Z</time></trkpt>
<trkpt lat="30.133584" lon="97.275029">
<time>2016-10-07T20:00:05Z</time></trkpt>
<trkpt lat="30.133584" lon="97.27496">
<time>2016-10-07T20:00:06Z</time></trkpt>
<trkpt lat="30.133554" lon="97.27489">
<time>2016-10-07T20:00:07Z</time></trkpt>
<trkpt lat="30.133514" lon="97.27483">
<time>2016-10-07T20:00:08Z</time></trkpt>
<trkpt lat="30.133465" lon="97.2748">
<time>2016-10-07T20:00:09Z</time></trkpt>
<trkpt lat="30.133435" lon="97.27478">
<time>2016-10-07T20:00:10Z</time></trkpt>
<trkpt lat="30.133385" lon="97.27477">
<time>2016-10-07T20:00:11Z</time></trkpt>
<trkpt lat="30.133365" lon="97.27477">
<time>2016-10-07T20:00:12Z</time></trkpt>
<trkpt lat="30.133345" lon="97.27477">
<time>2016-10-07T20:00:13Z</time></trkpt>
<trkpt lat="30.133315" lon="97.27477">
<time>2016-10-07T20:00:14Z</time></trkpt>
<trkpt lat="30.133275" lon="97.27478">
<time>2016-10-07T20:00:15Z</time></trkpt>
<trkpt lat="30.133164" lon="97.27482">
<time>2016-10-07T20:00:16Z</time></trkpt>
<trkpt lat="30.133024" lon="97.27488">
<time>2016-10-07T20:00:17Z</time></trkpt>
<trkpt lat="30.132914" lon="97.27493">
<time>2016-10-07T20:00:18Z</time></trkpt>
<trkpt lat="30.132834" lon="97.27499">
<time>2016-10-07T20:00:19Z</time></trkpt>
<trkpt lat="30.132704" lon="97.275089">
<time>2016-10-07T20:00:20Z</time></trkpt>
<trkpt lat="30.132444" lon="97.275339">
<time>2016-10-07T20:00:21Z</time></trkpt>
<trkpt lat="30.132204" lon="97.275589">
<time>2016-10-07T20:00:22Z</time></trkpt>
<trkpt lat="30.132054" lon="97.275729">
<time>2016-10-07T20:00:23Z</time></trkpt>
<trkpt lat="30.131944" lon="97.275818">
<time>2016-10-07T20:00:24Z</time></trkpt>
<trkpt lat="30.131833" lon="97.275868">
<time>2016-10-07T20:00:25Z</time></trkpt>
<trkpt lat="30.131693" lon="97.275908">
<time>2016-10-07T20:00:26Z</time></trkpt>
<trkpt lat="30.131403" lon="97.275928">
<time>2016-10-07T20:00:27Z</time></trkpt>
<trkpt lat="30.131273" lon="97.275938">
<time>2016-10-07T20:00:28Z</time></trkpt>
<trkpt lat="30.131203" lon="97.275958">
<time>2016-10-07T20:00:29Z</time></trkpt>
<trkpt lat="30.131133" lon="97.275978">
<time>2016-10-07T20:00:30Z</time></trkpt>
<trkpt lat="30.131033" lon="97.276038">
<time>2016-10-07T20:00:31Z</time></trkpt>
<trkpt lat="30.130973" lon="97.276098">
<time>2016-10-07T20:00:32Z</time></trkpt>
<trkpt lat="30.130883" lon="97.276168">
<time>2016-10-07T20:00:33Z</time></trkpt>
<trkpt lat="30.130703" lon="97.276358">
<time>2016-10-07T20:00:34Z</time></trkpt>
<trkpt lat="30.130283" lon="97.276787">
<time>2016-10-07T20:00:35Z</time></trkpt>
<trkpt lat="30.130213" lon="97.276867">
<time>2016-10-07T20:00:36Z</time></trkpt>
<trkpt lat="30.130152" lon="97.276907">
<time>2016-10-07T20:00:37Z</time></trkpt>
<trkpt lat="30.130072" lon="97.276947">
<time>2016-10-07T20:00:38Z</time></trkpt>
<trkpt lat="30.129982" lon="97.276957">
<time>2016-10-07T20:00:39Z</time></trkpt>
<trkpt lat="30.129922" lon="97.276947">
<time>2016-10-07T20:00:40Z</time></trkpt>
<trkpt lat="30.129872" lon="97.276927">
<time>2016-10-07T20:00:41Z</time></trkpt>
<trkpt lat="30.129802" lon="97.276877">
<time>2016-10-07T20:00:42Z</time></trkpt>
<trkpt lat="30.129733" lon="97.276787">
<time>2016-10-07T20:00:43Z</time></trkpt>
<trkpt lat="30.129613" lon="97.276627">
<time>2016-10-07T20:00:44Z</time></trkpt>
<trkpt lat="30.129483" lon="97.276488">
<time>2016-10-07T20:00:45Z</time></trkpt>
<trkpt lat="30.129393" lon="97.276438">
<time>2016-10-07T20:00:46Z</time></trkpt>
<trkpt lat="30.129223" lon="97.276358">
<time>2016-10-07T20:00:47Z</time></trkpt>
<trkpt lat="30.129133" lon="97.276338">
<time>2016-10-07T20:00:48Z</time></trkpt>
<trkpt lat="30.128903" lon="97.276318">
<time>2016-10-07T20:00:49Z</time></trkpt>
<trkpt lat="30.128783" lon="97.276298">
<time>2016-10-07T20:00:50Z</time></trkpt>
<trkpt lat="30.128683" lon="97.276298">
<time>2016-10-07T20:00:51Z</time></trkpt>
<trkpt lat="30.128623" lon="97.276308">
<time>2016-10-07T20:00:52Z</time></trkpt>
<trkpt lat="30.128583" lon="97.276328">
<time>2016-10-07T20:00:53Z</time></trkpt>
<trkpt lat="30.128533" lon="97.276358">
<time>2016-10-07T20:00:54Z</time></trkpt>
<trkpt lat="30.128483" lon="97.276398">
<time>2016-10-07T20:00:55Z</time></trkpt>
<trkpt lat="30.128433" lon="97.276448">
<time>2016-10-07T20:00:56Z</time></trkpt>
<trkpt lat="30.128373" lon="97.276578">
<time>2016-10-07T20:00:57Z</time></trkpt>
<trkpt lat="30.128283" lon="97.276817">
<time>2016-10-07T20:00:58Z</time></trkpt>
<trkpt lat="30.128222" lon="97.276967">
<time>2016-10-07T20:00:59Z</time></trkpt>
<trkpt lat="30.128172" lon="97.277077">
<time>2016-10-07T20:01:00Z</time></trkpt>
<trkpt lat="30.128122" lon="97.277157">
<time>2016-10-07T20:01:01Z</time></trkpt>
<trkpt lat="30.128052" lon="97.277227">
<time>2016-10-07T20:01:02Z</time></trkpt>
<trkpt lat="30.127962" lon="97.277297">
<time>2016-10-07T20:01:03Z</time></trkpt>
<trkpt lat="30.127852" lon="97.277346">
<time>2016-10-07T20:01:04Z</time></trkpt>
<trkpt lat="30.127612" lon="97.277446">
<time>2016-10-07T20:01:05Z</time></trkpt>
<trkpt lat="30.127522" lon="97.277486">
<time>2016-10-07T20:01:06Z</time></trkpt>
<trkpt lat="30.127462" lon="97.277526">
<time>2016-10-07T20:01:07Z</time></trkpt>
<trkpt lat="30.127412" lon="97.277586">
<time>2016-10-07T20:01:08Z</time></trkpt>
<trkpt lat="30.127362" lon="97.277646">
<time>2016-10-07T20:01:09Z</time></trkpt>
<trkpt lat="30.127322" lon="97.277716">
<time>2016-10-07T20:01:10Z</time></trkpt>
<trkpt lat="30.127262" lon="97.277826">
<time>2016-10-07T20:01:11Z</time></trkpt>
<trkpt lat="30.127211" lon="97.277896">
<time>2016-10-07T20:01:12Z</time></trkpt>
<trkpt lat="30.127161" lon="97.277936">
<time>2016-10-07T20:01:13Z</time></trkpt>
<trkpt lat="30.127111" lon="97.277966">
<time>2016-10-07T20:01:14Z</time></trkpt>
<trkpt lat="30.127031" lon="97.277986">
<time>2016-10-07T20:01:15Z</time></trkpt>
<trkpt lat="30.126981" lon="97.277986">
<time>2016-10-07T20:01:16Z</time></trkpt>
<trkpt lat="30.126911" lon="97.277976">
<time>2016-10-07T20:01:17Z</time></trkpt>
<trkpt lat="30.126861" lon="97.277946">
<time>2016-10-07T20:01:18Z</time></trkpt>
<trkpt lat="30.126801" lon="97.277906">
<time>2016-10-07T20:01:19Z</time></trkpt>
<trkpt lat="30.126741" lon="97.277856">
<time>2016-10-07T20:01:20Z</time></trkpt>
<trkpt lat="30.126642" lon="97.277766">
<time>2016-10-07T20:01:21Z</time></trkpt>
<trkpt lat="30.126522" lon="97.277646">
<time>2016-10-07T20:01:22Z</time></trkpt>
<trkpt lat="30.126442" lon="97.277586">
<time>2016-10-07T20:01:23Z</time></trkpt>
<trkpt lat="30.126362" lon="97.277536">
<time>2016-10-07T20:01:24Z</time></trkpt>
<trkpt lat="30.126292" lon="97.277516">
<time>2016-10-07T20:01:25Z</time></trkpt>
<trkpt lat="30.126232" lon="97.277496">
<time>2016-10-07T20:01:26Z</time></trkpt>
<trkpt lat="30.126182" lon="97.277496">
<time>2016-10-07T20:01:27Z</time></trkpt>
<trkpt lat="30.126122" lon="97.277506">
<time>2016-10-07T20:01:28Z</time></trkpt>
<trkpt lat="30.126072" lon="97.277526">
<time>2016-10-07T20:01:29Z</time></trkpt>
<trkpt lat="30.125952" lon="97.277566">
<time>2016-10-07T20:01:30Z</time></trkpt>
<trkpt lat="30.125822" lon="97.277616">
<time>2016-10-07T20:01:31Z</time></trkpt>
<trkpt lat="30.125702" lon="97.277656">
<time>2016-10-07T20:01:32Z</time></trkpt>
<trkpt lat="30.125512" lon="97.277706">
<time>2016-10-07T20:01:33Z</time></trkpt>
<trkpt lat="30.125442" lon="97.277746">
<time>2016-10-07T20:01:34Z</time></trkpt>
<trkpt lat="30.125382" lon="97.277776">
<time>2016-10-07T20:01:35Z</time></trkpt>
<trkpt lat="30.125322" lon="97.277826">
<time>2016-10-07T20:01:36Z</time></trkpt>
<trkpt lat="30.125251" lon="97.277906">
<time>2016-10-07T20:01:37Z</time></trkpt>
<trkpt lat="30.125131" lon="97.278056">
<time>2016-10-07T20:01:38Z</time></trkpt>
<trkpt lat="30.124931" lon="97.278335">
<time>2016-10-07T20:01:39Z</time></trkpt>
<trkpt lat="30.124891" lon="97.278385">
<time>2016-10-07T20:01:40Z</time></trkpt>
<trkpt lat="30.124841" lon="97.278455">
<time>2016-10-07T20:01:41Z</time></trkpt>
<trkpt lat="30.124771" lon="97.278535">
<time>2016-10-07T20:01:42Z</time></trkpt>
<trkpt lat="30.124681" lon="97.278615">
<time>2016-10-07T20:01:43Z</time></trkpt>
<trkpt lat="30.124521" lon="97.278745">
<time>2016-10-07T20:01:44Z</time></trkpt>
<trkpt lat="30.12439" lon="97.278824">
<time>2016-10-07T20:01:45Z</time></trkpt>
<trkpt lat="30.12423" lon="97.278914">
<time>2016-10-07T20:01:46Z</time></trkpt>
<trkpt lat="30.1241" lon="97.278974">
<time>2016-10-07T20:01:47Z</time></trkpt>
<trkpt lat="30.12401" lon="97.279014">
<time>2016-10-07T20:01:48Z</time></trkpt>
<trkpt lat="30.12388" lon="97.279064">
<time>2016-10-07T20:01:49Z</time></trkpt>
<trkpt lat="30.12381" lon="97.279084">
<time>2016-10-07T20:01:50Z</time></trkpt>
<trkpt lat="30.12376" lon="97.279084">
<time>2016-10-07T20:01:51Z</time></trkpt>
<trkpt lat="30.1237" lon="97.279084">
<time>2016-10-07T20:01:52Z</time></trkpt>
<trkpt lat="30.12362" lon="97.279074">
<time>2016-10-07T20:01:53Z</time></trkpt>
<trkpt lat="30.12352" lon="97.279054">
<time>2016-10-07T20:01:54Z</time></trkpt>
<trkpt lat="30.12326" lon="97.278994">
<time>2016-10-07T20:01:55Z</time></trkpt>
<trkpt lat="30.12294" lon="97.278914">
<time>2016-10-07T20:01:56Z</time></trkpt>
<trkpt lat="30.1228" lon="97.278874">
<time>2016-10-07T20:01:57Z</time></trkpt>
<trkpt lat="30.12271" lon="97.278864">
<time>2016-10-07T20:01:58Z</time></trkpt>
<trkpt lat="30.12267" lon="97.278854">
<time>2016-10-07T20:01:59Z</time></trkpt>
<trkpt lat="30.12262" lon="97.278864">
<time>2016-10-07T20:02:00Z</time></trkpt>
<trkpt lat="30.12257" lon="97.278884">
<time>2016-10-07T20:02:01Z</time></trkpt>
<trkpt lat="30.12251" lon="97.278914">
<time>2016-10-07T20:02:02Z</time></trkpt>
<trkpt lat="30.1224" lon="97.279004">
<time>2016-10-07T20:02:03Z</time></trkpt>
<trkpt lat="30.12231" lon="97.279104">
<time>2016-10-07T20:02:04Z</time></trkpt>
<trkpt lat="30.12225" lon="97.279184">
<time>2016-10-07T20:02:05Z</time></trkpt>
<trkpt lat="30.12221" lon="97.279244">
<time>2016-10-07T20:02:06Z</time></trkpt>
<trkpt lat="30.12215" lon="97.279314">
<time>2016-10-07T20:02:07Z</time></trkpt>
<trkpt lat="30.12201" lon="97.279454">
<time>2016-10-07T20:02:08Z</time></trkpt>
<trkpt lat="30.12194" lon="97.279523">
<time>2016-10-07T20:02:09Z</time></trkpt>
<trkpt lat="30.12173" lon="97.279693">
<time>2016-10-07T20:02:10Z</time></trkpt>
<trkpt lat="30.121539" lon="97.279833">
<time>2016-10-07T20:02:11Z</time></trkpt>
<trkpt lat="30.121219" lon="97.280063">
<time>2016-10-07T20:02:12Z</time></trkpt>
<trkpt lat="30.120849" lon="97.280312">
<time>2016-10-07T20:02:13Z</time></trkpt>
<trkpt lat="30.120378" lon="97.280652">
<time>2016-10-07T20:02:14Z</time></trkpt>
<trkpt lat="30.120038" lon="97.280871">
<time>2016-10-07T20:02:15Z</time></trkpt>
<trkpt lat="30.119718" lon="97.281131">
<time>2016-10-07T20:02:16Z</time></trkpt>
<trkpt lat="30.119538" lon="97.281311">
<time>2016-10-07T20:02:17Z</time></trkpt>
<trkpt lat="30.119408" lon="97.281461">
<time>2016-10-07T20:02:18Z</time></trkpt>
<trkpt lat="30.119287" lon="97.28161">
<time>2016-10-07T20:02:19Z</time></trkpt>
<trkpt lat="30.119197" lon="97.28169">
<time>2016-10-07T20:02:20Z</time></trkpt>
<trkpt lat="30.119097" lon="97.28176">
<time>2016-10-07T20:02:21Z</time></trkpt>
<trkpt lat="30.118967" lon="97.28181">
<time>2016-10-07T20:02:22Z</time></trkpt>
<trkpt lat="30.118587" lon="97.28193">
<time>2016-10-07T20:02:23Z</time></trkpt>
<trkpt lat="30.118477" lon="97.28197">
<time>2016-10-07T20:02:24Z</time></trkpt>
<trkpt lat="30.118377" lon="97.28202">
<time>2016-10-07T20:02:25Z</time></trkpt>
<trkpt lat="30.118297" lon="97.28209">
<time>2016-10-07T20:02:26Z</time></trkpt>
<trkpt lat="30.118197" lon="97.282199">
<time>2016-10-07T20:02:27Z</time></trkpt>
<trkpt lat="30.118127" lon="97.282339">
<time>2016-10-07T20:02:28Z</time></trkpt>
<trkpt lat="30.118066" lon="97.282509">
<time>2016-10-07T20:02:29Z</time></trkpt>
<trkpt lat="30.117956" lon="97.282799">
<time>2016-10-07T20:02:30Z</time></trkpt>
<trkpt lat="30.117876" lon="97.283018">
<time>2016-10-07T20:02:31Z</time></trkpt>
<trkpt lat="30.117846" lon="97.283128">
<time>2016-10-07T20:02:32Z</time></trkpt>
<trkpt lat="30.117835" lon="97.283238">
<time>2016-10-07T20:02:33Z</time></trkpt>
<trkpt lat="30.117855" lon="97.283288">
<time>2016-10-07T20:02:34Z</time></trkpt>
<trkpt lat="30.117865" lon="97.283318">
<time>2016-10-07T20:02:35Z</time></trkpt>
<trkpt lat="30.117895" lon="97.283358">
<time>2016-10-07T20:02:36Z</time></trkpt>
<trkpt lat="30.117935" lon="97.283378">
<time>2016-10-07T20:02:37Z</time></trkpt>
<trkpt lat="30.117965" lon="97.283388">
<time>2016-10-07T20:02:38Z</time></trkpt>
<trkpt lat="30.117995" lon="97.283388">
<time>2016-10-07T20:02:39Z</time></trkpt>
<trkpt lat="30.118035" lon="97.283378">
<time>2016-10-07T20:02:40Z</time></trkpt>
<trkpt lat="30.118055" lon="97.283348">
<time>2016-10-07T20:02:41Z</time></trkpt>
<trkpt lat="30.118085" lon="97.283308">
<time>2016-10-07T20:02:42Z</time></trkpt>
<trkpt lat="30.118115" lon="97.283248">
<time>2016-10-07T20:02:43Z</time></trkpt>
<trkpt lat="30.118166" lon="97.283098">
<time>2016-10-07T20:02:44Z</time></trkpt>
<trkpt lat="30.118326" lon="97.282619">
<time>2016-10-07T20:02:45Z</time></trkpt>
<trkpt lat="30.118366" lon="97.282519">
<time>2016-10-07T20:02:46Z</time></trkpt>
<trkpt lat="30.118406" lon="97.282439">
<time>2016-10-07T20:02:47Z</time></trkpt>
<trkpt lat="30.118446" lon="97.282379">
<time>2016-10-07T20:02:48Z</time></trkpt>
<trkpt lat="30.118497" lon="97.282319">
<time>2016-10-07T20:02:49Z</time></trkpt>
<trkpt lat="30.118597" lon="97.282279">
<time>2016-10-07T20:02:50Z</time></trkpt>
<trkpt lat="30.118697" lon="97.282259">
<time>2016-10-07T20:02:51Z</time></trkpt>
<trkpt lat="30.119097" lon="97.282239">
<time>2016-10-07T20:02:52Z</time></trkpt>
<trkpt lat="30.119247" lon="97.282229">
<time>2016-10-07T20:02:53Z</time></trkpt>
<trkpt lat="30.119327" lon="97.282219">
<time>2016-10-07T20:02:54Z</time></trkpt>
<trkpt lat="30.119397" lon="97.282199">
<time>2016-10-07T20:02:55Z</time></trkpt>
<trkpt lat="30.119477" lon="97.282179">
<time>2016-10-07T20:02:56Z</time></trkpt>
<trkpt lat="30.119537" lon="97.28215">
<time>2016-10-07T20:02:57Z</time></trkpt>
<trkpt lat="30.119627" lon="97.28211">
<time>2016-10-07T20:02:58Z</time></trkpt>
<trkpt lat="30.119727" lon="97.28204">
<time>2016-10-07T20:02:59Z</time></trkpt>
<trkpt lat="30.119987" lon="97.28186">
<time>2016-10-07T20:03:00Z</time></trkpt>
<trkpt lat="30.120347" lon="97.28163">
<time>2016-10-07T20:03:01Z</time></trkpt>
<trkpt lat="30.120568" lon="97.281501">
<time>2016-10-07T20:03:02Z</time></trkpt>
<trkpt lat="30.120678" lon="97.281461">
<time>2016-10-07T20:03:03Z</time></trkpt>
<trkpt lat="30.120758" lon="97.281451">
<time>2016-10-07T20:03:04Z</time></trkpt>
<trkpt lat="30.120928" lon="97.281441">
<time>2016-10-07T20:03:05Z</time></trkpt>
<trkpt lat="30.121098" lon="97.281461">
<time>2016-10-07T20:03:06Z</time></trkpt>
<trkpt lat="30.121198" lon="97.281481">
<time>2016-10-07T20:03:07Z</time></trkpt>
<trkpt lat="30.121467" lon="97.28152">
<time>2016-10-07T20:03:08Z</time></trkpt>
<trkpt lat="30.121627" lon="97.28155">
<time>2016-10-07T20:03:09Z</time></trkpt>
<trkpt lat="30.121687" lon="97.28156">
<time>2016-10-07T20:03:10Z</time></trkpt>
<trkpt lat="30.121767" lon="97.28157">
<time>2016-10-07T20:03:11Z</time></trkpt>
<trkpt lat="30.121827" lon="97.28157">
<time>2016-10-07T20:03:12Z</time></trkpt>
<trkpt lat="30.121937" lon="97.28155">
<time>2016-10-07T20:03:13Z</time></trkpt>
<trkpt lat="30.122067" lon="97.28151">
<time>2016-10-07T20:03:14Z</time></trkpt>
<trkpt lat="30.122168" lon="97.281451">
<time>2016-10-07T20:03:15Z</time></trkpt>
<trkpt lat="30.122298" lon="97.281381">
<time>2016-10-07T20:03:16Z</time></trkpt>
<trkpt lat="30.122518" lon="97.281221">
<time>2016-10-07T20:03:17Z</time></trkpt>
<trkpt lat="30.122758" lon="97.281071">
<time>2016-10-07T20:03:18Z</time></trkpt>
<trkpt lat="30.122908" lon="97.280991">
<time>2016-10-07T20:03:19Z</time></trkpt>
<trkpt lat="30.122948" lon="97.280971">
<time>2016-10-07T20:03:20Z</time></trkpt>
<trkpt lat="30.122988" lon="97.280961">
<time>2016-10-07T20:03:21Z</time></trkpt>
<trkpt lat="30.123018" lon="97.280961">
<time>2016-10-07T20:03:22Z</time></trkpt>
<trkpt lat="30.123048" lon="97.280961">
<time>2016-10-07T20:03:23Z</time></trkpt>
<trkpt lat="30.123098" lon="97.280961">
<time>2016-10-07T20:03:24Z</time></trkpt>
<trkpt lat="30.123128" lon="97.280981">
<time>2016-10-07T20:03:25Z</time></trkpt>
<trkpt lat="30.123168" lon="97.281001">
<time>2016-10-07T20:03:26Z</time></trkpt>
<trkpt lat="30.123198" lon="97.281021">
<time>2016-10-07T20:03:27Z</time></trkpt>
<trkpt lat="30.123228" lon="97.281041">
<time>2016-10-07T20:03:28Z</time></trkpt>
<trkpt lat="30.123308" lon="97.281131">
<time>2016-10-07T20:03:29Z</time></trkpt>
<trkpt lat="30.123488" lon="97.281381">
<time>2016-10-07T20:03:30Z</time></trkpt>
<trkpt lat="30.123617" lon="97.28157">
<time>2016-10-07T20:03:31Z</time></trkpt>
<trkpt lat="30.123897" lon="97.28198">
<time>2016-10-07T20:03:32Z</time></trkpt>
<trkpt lat="30.123937" lon="97.28203">
<time>2016-10-07T20:03:33Z</time></trkpt>
<trkpt lat="30.123967" lon="97.2821">
<time>2016-10-07T20:03:34Z</time></trkpt>
<trkpt lat="30.123987" lon="97.282179">
<time>2016-10-07T20:03:35Z</time></trkpt>
<trkpt lat="30.123987" lon="97.282229">
<time>2016-10-07T20:03:36Z</time></trkpt>
<trkpt lat="30.123987" lon="97.282259">
<time>2016-10-07T20:03:37Z</time></trkpt>
<trkpt lat="30.123967" lon="97.282299">
<time>2016-10-07T20:03:38Z</time></trkpt>
<trkpt lat="30.123947" lon="97.282319">
<time>2016-10-07T20:03:39Z</time></trkpt>
<trkpt lat="30.123917" lon="97.282339">
<time>2016-10-07T20:03:40Z</time></trkpt>
<trkpt lat="30.123887" lon="97.282349">
<time>2016-10-07T20:03:41Z</time></trkpt>
<trkpt lat="30.123847" lon="97.282349">
<time>2016-10-07T20:03:42Z</time></trkpt>
<trkpt lat="30.123817" lon="97.282329">
<time>2016-10-07T20:03:43Z</time></trkpt>
<trkpt lat="30.123767" lon="97.282279">
<time>2016-10-07T20:03:44Z</time></trkpt>
<trkpt lat="30.123707" lon="97.282209">
<time>2016-10-07T20:03:45Z</time></trkpt>
<trkpt lat="30.123607" lon="97.28203">
<time>2016-10-07T20:03:46Z</time></trkpt>
<trkpt lat="30.123517" lon="97.28186">
<time>2016-10-07T20:03:47Z</time></trkpt>
<trkpt lat="30.123467" lon="97.28179">
<time>2016-10-07T20:03:48Z</time></trkpt>
<trkpt lat="30.123427" lon="97.28175">
<time>2016-10-07T20:03:49Z</time></trkpt>
<trkpt lat="30.123367" lon="97.28172">
<time>2016-10-07T20:03:50Z</time></trkpt>
<trkpt lat="30.123317" lon="97.28171">
<time>2016-10-07T20:03:51Z</time></trkpt>
<trkpt lat="30.123267" lon="97.2817">
<time>2016-10-07T20:03:52Z</time></trkpt>
<trkpt lat="30.123167" lon="97.2817">
<time>2016-10-07T20:03:53Z</time></trkpt>
<trkpt lat="30.122987" lon="97.28171">
<time>2016-10-07T20:03:54Z</time></trkpt>
<trkpt lat="30.122787" lon="97.28173">
<time>2016-10-07T20:03:55Z</time></trkpt>
<trkpt lat="30.122617" lon="97.28177">
<time>2016-10-07T20:03:56Z</time></trkpt>
<trkpt lat="30.122517" lon="97.28182">
<time>2016-10-07T20:03:57Z</time></trkpt>
<trkpt lat="30.122377" lon="97.28192">
<time>2016-10-07T20:03:58Z</time></trkpt>
<trkpt lat="30.122347" lon="97.28195">
<time>2016-10-07T20:03:59Z</time></trkpt>
<trkpt lat="30.122257" lon="97.28203">
<time>2016-10-07T20:04:00Z</time></trkpt>
<trkpt lat="30.122077" lon="97.282199">
<time>2016-10-07T20:04:01Z</time></trkpt>
<trkpt lat="30.121947" lon="97.282329">
<time>2016-10-07T20:04:02Z</time></trkpt>
<trkpt lat="30.121876" lon="97.282379">
<time>2016-10-07T20:04:03Z</time></trkpt>
<trkpt lat="30.121796" lon="97.282449">
<time>2016-10-07T20:04:04Z</time></trkpt>
<trkpt lat="30.121696" lon="97.282499">
<time>2016-10-07T20:04:05Z</time></trkpt>
<trkpt lat="30.121636" lon="97.282519">
<time>2016-10-07T20:04:06Z</time></trkpt>
<trkpt lat="30.121586" lon="97.282529">
<time>2016-10-07T20:04:07Z</time></trkpt>
<trkpt lat="30.121506" lon="97.282539">
<time>2016-10-07T20:04:08Z</time></trkpt>
<trkpt lat="30.121386" lon="97.282529">
<time>2016-10-07T20:04:09Z</time></trkpt>
<trkpt lat="30.121176" lon="97.282509">
<time>2016-10-07T20:04:10Z</time></trkpt>
<trkpt lat="30.121106" lon="97.282499">
<time>2016-10-07T20:04:11Z</time></trkpt>
<trkpt lat="30.121046" lon="97.282499">
<time>2016-10-07T20:04:12Z</time></trkpt>
<trkpt lat="30.120986" lon="97.282519">
<time>2016-10-07T20:04:13Z</time></trkpt>
<trkpt lat="30.120916" lon="97.282559">
<time>2016-10-07T20:04:14Z</time></trkpt>
<trkpt lat="30.120796" lon="97.282679">
<time>2016-10-07T20:04:15Z</time></trkpt>
<trkpt lat="30.120686" lon="97.282798">
<time>2016-10-07T20:04:16Z</time></trkpt>
<trkpt lat="30.120506" lon="97.283078">
<time>2016-10-07T20:04:17Z</time></trkpt>
<trkpt lat="30.120405" lon="97.283238">
<time>2016-10-07T20:04:18Z</time></trkpt>
<trkpt lat="30.120305" lon="97.283368">
<time>2016-10-07T20:04:19Z</time></trkpt>
<trkpt lat="30.120175" lon="97.283507">
<time>2016-10-07T20:04:20Z</time></trkpt>
<trkpt lat="30.120085" lon="97.283577">
<time>2016-10-07T20:04:21Z</time></trkpt>
<trkpt lat="30.120005" lon="97.283617">
<time>2016-10-07T20:04:22Z</time></trkpt>
<trkpt lat="30.119875" lon="97.283667">
<time>2016-10-07T20:04:23Z</time></trkpt>
<trkpt lat="30.119755" lon="97.283747">
<time>2016-10-07T20:04:24Z</time></trkpt>
<trkpt lat="30.119685" lon="97.283807">
<time>2016-10-07T20:04:25Z</time></trkpt>
<trkpt lat="30.119645" lon="97.283857">
<time>2016-10-07T20:04:26Z</time></trkpt>
<trkpt lat="30.119605" lon="97.283927">
<time>2016-10-07T20:04:27Z</time></trkpt>
<trkpt lat="30.119555" lon="97.284007">
<time>2016-10-07T20:04:28Z</time></trkpt>
<trkpt lat="30.119514" lon="97.284116">
<time>2016-10-07T20:04:29Z</time></trkpt>
<trkpt lat="30.119464" lon="97.284286">
<time>2016-10-07T20:04:30Z</time></trkpt>
<trkpt lat="30.119424" lon="97.284426">
<time>2016-10-07T20:04:31Z</time></trkpt>
<trkpt lat="30.119364" lon="97.284636">
<time>2016-10-07T20:04:32Z</time></trkpt>
<trkpt lat="30.119314" lon="97.284775">
<time>2016-10-07T20:04:33Z</time></trkpt>
<trkpt lat="30.119273" lon="97.284855">
<time>2016-10-07T20:04:34Z</time></trkpt>
<trkpt lat="30.119223" lon="97.284945">
<time>2016-10-07T20:04:35Z</time></trkpt>
<trkpt lat="30.119123" lon="97.285085">
<time>2016-10-07T20:04:36Z</time></trkpt>
<trkpt lat="30.118933" lon="97.285314">
<time>2016-10-07T20:04:37Z</time></trkpt>
<trkpt lat="30.118783" lon="97.285504">
<time>2016-10-07T20:04:38Z</time></trkpt>
<trkpt lat="30.118713" lon="97.285594">
<time>2016-10-07T20:04:39Z</time></trkpt>
<trkpt lat="30.118612" lon="97.285734">
<time>2016-10-07T20:04:40Z</time></trkpt>
<trkpt lat="30.118592" lon="97.285794">
<time>2016-10-07T20:04:41Z</time></trkpt>
<trkpt lat="30.118582" lon="97.285834">
<time>2016-10-07T20:04:42Z</time></trkpt>
<trkpt lat="30.118582" lon="97.285883">
<time>2016-10-07T20:04:43Z</time></trkpt>
<trkpt lat="30.118602" lon="97.285933">
<time>2016-10-07T20:04:44Z</time></trkpt>
<trkpt lat="30.118622" lon="97.285953">
<time>2016-10-07T20:04:45Z</time></trkpt>
<trkpt lat="30.118642" lon="97.285973">
<time>2016-10-07T20:04:46Z</time></trkpt>
<trkpt lat="30.118662" lon="97.285983">
<time>2016-10-07T20:04:47Z</time></trkpt>
<trkpt lat="30.118702" lon="97.285993">
<time>2016-10-07T20:04:48Z</time></trkpt>
<trkpt lat="30.118732" lon="97.285983">
<time>2016-10-07T20:04:49Z</time></trkpt>
<trkpt lat="30.118762" lon="97.285973">
<time>2016-10-07T20:04:50Z</time></trkpt>
<trkpt lat="30.118892" lon="97.285864">
<time>2016-10-07T20:04:51Z</time></trkpt>
<trkpt lat="30.119193" lon="97.285564">
<time>2016-10-07T20:04:52Z</time></trkpt>
<trkpt lat="30.119493" lon="97.285245">
<time>2016-10-07T20:04:53Z</time></trkpt>
<trkpt lat="30.119673" lon="97.285065">
<time>2016-10-07T20:04:54Z</time></trkpt>
<trkpt lat="30.119863" lon="97.284855">
<time>2016-10-07T20:04:55Z</time></trkpt>
<trkpt lat="30.119944" lon="97.284775">
<time>2016-10-07T20:04:56Z</time></trkpt>
<trkpt lat="30.120034" lon="97.284695">
<time>2016-10-07T20:04:57Z</time></trkpt>
<trkpt lat="30.120154" lon="97.284616">
<time>2016-10-07T20:04:58Z</time></trkpt>
<trkpt lat="30.120294" lon="97.284506">
<time>2016-10-07T20:04:59Z</time></trkpt>
<trkpt lat="30.120424" lon="97.284446">
<time>2016-10-07T20:05:00Z</time></trkpt>
<trkpt lat="30.120564" lon="97.284376">
<time>2016-10-07T20:05:01Z</time></trkpt>
<trkpt lat="30.120694" lon="97.284296">
<time>2016-10-07T20:05:02Z</time></trkpt>
<trkpt lat="30.120794" lon="97.284226">
<time>2016-10-07T20:05:03Z</time></trkpt>
<trkpt lat="30.120924" lon="97.284126">
<time>2016-10-07T20:05:04Z</time></trkpt>
<trkpt lat="30.121065" lon="97.283997">
<time>2016-10-07T20:05:05Z</time></trkpt>
<trkpt lat="30.121185" lon="97.283897">
<time>2016-10-07T20:05:06Z</time></trkpt>
<trkpt lat="30.121335" lon="97.283767">
<time>2016-10-07T20:05:07Z</time></trkpt>
<trkpt lat="30.121405" lon="97.283717">
<time>2016-10-07T20:05:08Z</time></trkpt>
<trkpt lat="30.121465" lon="97.283677">
<time>2016-10-07T20:05:09Z</time></trkpt>
<trkpt lat="30.121505" lon="97.283657">
<time>2016-10-07T20:05:10Z</time></trkpt>
<trkpt lat="30.121565" lon="97.283657">
<time>2016-10-07T20:05:11Z</time></trkpt>
<trkpt lat="30.121605" lon="97.283667">
<time>2016-10-07T20:05:12Z</time></trkpt>
<trkpt lat="30.121635" lon="97.283687">
<time>2016-10-07T20:05:13Z</time></trkpt>
<trkpt lat="30.121655" lon="97.283717">
<time>2016-10-07T20:05:14Z</time></trkpt>
<trkpt lat="30.121665" lon="97.283747">
<time>2016-10-07T20:05:15Z</time></trkpt>
<trkpt lat="30.121675" lon="97.283777">
<time>2016-10-07T20:05:16Z</time></trkpt>
<trkpt lat="30.121675" lon="97.283827">
<time>2016-10-07T20:05:17Z</time></trkpt>
<trkpt lat="30.121675" lon="97.283847">
<time>2016-10-07T20:05:18Z</time></trkpt>
<trkpt lat="30.121655" lon="97.283887">
<time>2016-10-07T20:05:19Z</time></trkpt>
<trkpt lat="30.121635" lon="97.283907">
<time>2016-10-07T20:05:20Z</time></trkpt>
<trkpt lat="30.121605" lon="97.283937">
<time>2016-10-07T20:05:21Z</time></trkpt>
<trkpt lat="30.121575" lon="97.283957">
<time>2016-10-07T20:05:22Z</time></trkpt>
<trkpt lat="30.121444" lon="97.284036">
<time>2016-10-07T20:05:23Z</time></trkpt>
<trkpt lat="30.121294" lon="97.284126">
<time>2016-10-07T20:05:24Z</time></trkpt>
<trkpt lat="30.121154" lon="97.284206">
<time>2016-10-07T20:05:25Z</time></trkpt>
<trkpt lat="30.121084" lon="97.284246">
<time>2016-10-07T20:05:26Z</time></trkpt>
<trkpt lat="30.121034" lon="97.284306">
<time>2016-10-07T20:05:27Z</time></trkpt>
<trkpt lat="30.120974" lon="97.284376">
<time>2016-10-07T20:05:28Z</time></trkpt>
<trkpt lat="30.120924" lon="97.284486">
<time>2016-10-07T20:05:29Z</time></trkpt>
<trkpt lat="30.120894" lon="97.284626">
<time>2016-10-07T20:05:30Z</time></trkpt>
<trkpt lat="30.120853" lon="97.284845">
<time>2016-10-07T20:05:31Z</time></trkpt>
<trkpt lat="30.120803" lon="97.285065">
<time>2016-10-07T20:05:32Z</time></trkpt>
<trkpt lat="30.120763" lon="97.285145">
<time>2016-10-07T20:05:33Z</time></trkpt>
<trkpt lat="30.120733" lon="97.285195">
<time>2016-10-07T20:05:34Z</time></trkpt>
<trkpt lat="30.120683" lon="97.285235">
<time>2016-10-07T20:05:35Z</time></trkpt>
<trkpt lat="30.120613" lon="97.285284">
<time>2016-10-07T20:05:36Z</time></trkpt>
<trkpt lat="30.120463" lon="97.285344">
<time>2016-10-07T20:05:37Z</time></trkpt>
<trkpt lat="30.120343" lon="97.285384">
<time>2016-10-07T20:05:38Z</time></trkpt>
<trkpt lat="30.120263" lon="97.285414">
<time>2016-10-07T20:05:39Z</time></trkpt>
<trkpt lat="30.120183" lon="97.285484">
<time>2016-10-07T20:05:40Z</time></trkpt>
<trkpt lat="30.120103" lon="97.285574">
<time>2016-10-07T20:05:41Z</time></trkpt>
<trkpt lat="30.119982" lon="97.285754">
<time>2016-10-07T20:05:42Z</time></trkpt>
<trkpt lat="30.119732" lon="97.286163">
<time>2016-10-07T20:05:43Z</time></trkpt>
<trkpt lat="30.119491" lon="97.286522">
<time>2016-10-07T20:05:44Z</time></trkpt>
<trkpt lat="30.119421" lon="97.286632">
<time>2016-10-07T20:05:45Z</time></trkpt>
<trkpt lat="30.119391" lon="97.286692">
<time>2016-10-07T20:05:46Z</time></trkpt>
<trkpt lat="30.119381" lon="97.286742">
<time>2016-10-07T20:05:47Z</time></trkpt>
<trkpt lat="30.119341" lon="97.286942">
<time>2016-10-07T20:05:48Z</time></trkpt>
<trkpt lat="30.119331" lon="97.287012">
<time>2016-10-07T20:05:49Z</time></trkpt>
<trkpt lat="30.119281" lon="97.287101">
<time>2016-10-07T20:05:50Z</time></trkpt>
<trkpt lat="30.119211" lon="97.287171">
<time>2016-10-07T20:05:51Z</time></trkpt>
<trkpt lat="30.11913" lon="97.287221">
<time>2016-10-07T20:05:52Z</time></trkpt>
<trkpt lat="30.119" lon="97.287271">
<time>2016-10-07T20:05:53Z</time></trkpt>
<trkpt lat="30.11883" lon="97.287321">
<time>2016-10-07T20:05:54Z</time></trkpt>
<trkpt lat="30.11872" lon="97.287351">
<time>2016-10-07T20:05:55Z</time></trkpt>
<trkpt lat="30.1186" lon="97.287391">
<time>2016-10-07T20:05:56Z</time></trkpt>
<trkpt lat="30.11851" lon="97.287441">
<time>2016-10-07T20:05:57Z</time></trkpt>
<trkpt lat="30.11845" lon="97.287481">
<time>2016-10-07T20:05:58Z</time></trkpt>
<trkpt lat="30.11837" lon="97.287551">
<time>2016-10-07T20:05:59Z</time></trkpt>
<trkpt lat="30.11829" lon="97.28765">
<time>2016-10-07T20:06:00Z</time></trkpt>
<trkpt lat="30.11823" lon="97.28774">
<time>2016-10-07T20:06:01Z</time></trkpt>
<trkpt lat="30.11819" lon="97.28785">
<time>2016-10-07T20:06:02Z</time></trkpt>
<trkpt lat="30.118129" lon="97.28804">
<time>2016-10-07T20:06:03Z</time></trkpt>
<trkpt lat="30.118089" lon="97.28816">
<time>2016-10-07T20:06:04Z</time></trkpt>
<trkpt lat="30.118039" lon="97.288259">
<time>2016-10-07T20:06:05Z</time></trkpt>
<trkpt lat="30.117959" lon="97.288409">
<time>2016-10-07T20:06:06Z</time></trkpt>
<trkpt lat="30.117889" lon="97.288539">
<time>2016-10-07T20:06:07Z</time></trkpt>
<trkpt lat="30.117768" lon="97.288719">
<time>2016-10-07T20:06:08Z</time></trkpt>
<trkpt lat="30.117608" lon="97.288918">
<time>2016-10-07T20:06:09Z</time></trkpt>
<trkpt lat="30.117428" lon="97.289088">
<time>2016-10-07T20:06:10Z</time></trkpt>
<trkpt lat="30.117158" lon="97.289357">
<time>2016-10-07T20:06:11Z</time></trkpt>
<trkpt lat="30.116907" lon="97.289597">
<time>2016-10-07T20:06:12Z</time></trkpt>
<trkpt lat="30.116817" lon="97.289697">
<time>2016-10-07T20:06:13Z</time></trkpt>
<trkpt lat="30.116747" lon="97.289777">
<time>2016-10-07T20:06:14Z</time></trkpt>
<trkpt lat="30.116687" lon="97.289877">
<time>2016-10-07T20:06:15Z</time></trkpt>
<trkpt lat="30.116647" lon="97.289946">
<time>2016-10-07T20:06:16Z</time></trkpt>
<trkpt lat="30.116617" lon="97.290036">
<time>2016-10-07T20:06:17Z</time></trkpt>
<trkpt lat="30.116556" lon="97.290236">
<time>2016-10-07T20:06:18Z</time></trkpt>
<trkpt lat="30.116526" lon="97.290326">
<time>2016-10-07T20:06:19Z</time></trkpt>
<trkpt lat="30.116476" lon="97.290426">
<time>2016-10-07T20:06:20Z</time></trkpt>
<trkpt lat="30.116426" lon="97.290515">
<time>2016-10-07T20:06:21Z</time></trkpt>
<trkpt lat="30.116316" lon="97.290615">
<time>2016-10-07T20:06:22Z</time></trkpt>
<trkpt lat="30.116156" lon="97.290775">
<time>2016-10-07T20:06:23Z</time></trkpt>
<trkpt lat="30.116055" lon="97.290865">
<time>2016-10-07T20:06:24Z</time></trkpt>
<trkpt lat="30.115925" lon="97.291004">
<time>2016-10-07T20:06:25Z</time></trkpt>
<trkpt lat="30.115865" lon="97.291084">
<time>2016-10-07T20:06:26Z</time></trkpt>
<trkpt lat="30.115835" lon="97.291164">
<time>2016-10-07T20:06:27Z</time></trkpt>
<trkpt lat="30.115795" lon="97.291254">
<time>2016-10-07T20:06:28Z</time></trkpt>
<trkpt lat="30.115765" lon="97.291334">
<time>2016-10-07T20:06:29Z</time></trkpt>
<trkpt lat="30.115735" lon="97.291494">
<time>2016-10-07T20:06:30Z</time></trkpt>
<trkpt lat="30.115724" lon="97.291603">
<time>2016-10-07T20:06:31Z</time></trkpt>
<trkpt lat="30.115714" lon="97.291703">
<time>2016-10-07T20:06:32Z</time></trkpt>
<trkpt lat="30.115704" lon="97.291773">
<time>2016-10-07T20:06:33Z</time></trkpt>
<trkpt lat="30.115684" lon="97.291863">
<time>2016-10-07T20:06:34Z</time></trkpt>
<trkpt lat="30.115654" lon="97.291943">
<time>2016-10-07T20:06:35Z</time></trkpt>
<trkpt lat="30.115584" lon="97.292082">
<time>2016-10-07T20:06:36Z</time></trkpt>
<trkpt lat="30.115463" lon="97.292272">
<time>2016-10-07T20:06:37Z</time></trkpt>
<trkpt lat="30.115373" lon="97.292412">
<time>2016-10-07T20:06:38Z</time></trkpt>
<trkpt lat="30.115303" lon="97.292522">
<time>2016-10-07T20:06:39Z</time></trkpt>
<trkpt lat="30.115233" lon="97.292621">
<time>2016-10-07T20:06:40Z</time></trkpt>
<trkpt lat="30.115193" lon="97.292681">
<time>2016-10-07T20:06:41Z</time></trkpt>
<trkpt lat="30.115173" lon="97.292731">
<time>2016-10-07T20:06:42Z</time></trkpt>
<trkpt lat="30.115153" lon="97.292791">
<time>2016-10-07T20:06:43Z</time></trkpt>
<trkpt lat="30.115122" lon="97.292941">
<time>2016-10-07T20:06:44Z</time></trkpt>
<trkpt lat="30.115092" lon="97.293141">
<time>2016-10-07T20:06:45Z</time></trkpt>
<trkpt lat="30.115062" lon="97.2933">
<time>2016-10-07T20:06:46Z</time></trkpt>
<trkpt lat="30.115032" lon="97.29343">
<time>2016-10-07T20:06:47Z</time></trkpt>
<trkpt lat="30.115012" lon="97.29349">
<time>2016-10-07T20:06:48Z</time></trkpt>
<trkpt lat="30.114982" lon="97.29355">
<time>2016-10-07T20:06:49Z</time></trkpt>
<trkpt lat="30.114941" lon="97.2936">
<time>2016-10-07T20:06:50Z</time></trkpt>
<trkpt lat="30.114811" lon="97.293729">
<time>2016-10-07T20:06:51Z</time></trkpt>
<trkpt lat="30.114701" lon="97.293839">
<time>2016-10-07T20:06:52Z</time></trkpt>
<trkpt lat="30.114671" lon="97.293879">
<time>2016-10-07T20:06:53Z</time></trkpt>
<trkpt lat="30.114621" lon="97.293939">
<time>2016-10-07T20:06:54Z</time></trkpt>
<trkpt lat="30.114581" lon="97.294029">
<time>2016-10-07T20:06:55Z</time></trkpt>
<trkpt lat="30.114541" lon="97.294119">
<time>2016-10-07T20:06:56Z</time></trkpt>
<trkpt lat="30.11448" lon="97.294328">
<time>2016-10-07T20:06:57Z</time></trkpt>
<trkpt lat="30.11448" lon="97.294408">
<time>2016-10-07T20:06:58Z</time></trkpt>
<trkpt lat="30.1145" lon="97.294468">
<time>2016-10-07T20:06:59Z</time></trkpt>
<trkpt lat="30.11452" lon="97.294498">
<time>2016-10-07T20:07:00Z</time></trkpt>
<trkpt lat="30.11455" lon="97.294518">
<time>2016-10-07T20:07:01Z</time></trkpt>
<trkpt lat="30.11459" lon="97.294538">
<time>2016-10-07T20:07:02Z</time></trkpt>
<trkpt lat="30.11462" lon="97.294548">
<time>2016-10-07T20:07:03Z</time></trkpt>
<trkpt lat="30.11465" lon="97.294538">
<time>2016-10-07T20:07:04Z</time></trkpt>
<trkpt lat="30.11468" lon="97.294528">
<time>2016-10-07T20:07:05Z</time></trkpt>
<trkpt lat="30.1147" lon="97.294508">
<time>2016-10-07T20:07:06Z</time></trkpt>
<trkpt lat="30.11473" lon="97.294478">
<time>2016-10-07T20:07:07Z</time></trkpt>
<trkpt lat="30.11474" lon="97.294448">
<time>2016-10-07T20:07:08Z</time></trkpt>
<trkpt lat="30.11475" lon="97.294418">
<time>2016-10-07T20:07:09Z</time></trkpt>
<trkpt lat="30.11475" lon="97.294318">
<time>2016-10-07T20:07:10Z</time></trkpt>
<trkpt lat="30.114751" lon="97.294228">
<time>2016-10-07T20:07:11Z</time></trkpt>
<trkpt lat="30.114761" lon="97.294169">
<time>2016-10-07T20:07:12Z</time></trkpt>
<trkpt lat="30.114771" lon="97.294119">
<time>2016-10-07T20:07:13Z</time></trkpt>
<trkpt lat="30.114781" lon="97.294059">
<time>2016-10-07T20:07:14Z</time></trkpt>
<trkpt lat="30.114811" lon="97.293989">
<time>2016-10-07T20:07:15Z</time></trkpt>
<trkpt lat="30.114851" lon="97.293929">
<time>2016-10-07T20:07:16Z</time></trkpt>
<trkpt lat="30.114901" lon="97.293869">
<time>2016-10-07T20:07:17Z</time></trkpt>
<trkpt lat="30.114971" lon="97.293799">
<time>2016-10-07T20:07:18Z</time></trkpt>
<trkpt lat="30.115021" lon="97.293769">
<time>2016-10-07T20:07:19Z</time></trkpt>
<trkpt lat="30.115061" lon="97.293729">
<time>2016-10-07T20:07:20Z</time></trkpt>
<trkpt lat="30.115101" lon="97.293689">
<time>2016-10-07T20:07:21Z</time></trkpt>
<trkpt lat="30.115131" lon="97.29365">
<time>2016-10-07T20:07:22Z</time></trkpt>
<trkpt lat="30.115161" lon="97.2936">
<time>2016-10-07T20:07:23Z</time></trkpt>
<trkpt lat="30.115222" lon="97.29347">
<time>2016-10-07T20:07:24Z</time></trkpt>
<trkpt lat="30.115292" lon="97.2933">
<time>2016-10-07T20:07:25Z</time></trkpt>
<trkpt lat="30.115352" lon="97.29316">
<time>2016-10-07T20:07:26Z</time></trkpt>
<trkpt lat="30.115412" lon="97.293041">
<time>2016-10-07T20:07:27Z</time></trkpt>
<trkpt lat="30.115472" lon="97.292931">
<time>2016-10-07T20:07:28Z</time></trkpt>
<trkpt lat="30.115543" lon="97.292841">
<time>2016-10-07T20:07:29Z</time></trkpt>
<trkpt lat="30.115623" lon="97.292751">
<time>2016-10-07T20:07:30Z</time></trkpt>
<trkpt lat="30.115783" lon="97.292612">
<time>2016-10-07T20:07:31Z</time></trkpt>
<trkpt lat="30.115843" lon="97.292542">
<time>2016-10-07T20:07:32Z</time></trkpt>
<trkpt lat="30.115883" lon="97.292462">
<time>2016-10-07T20:07:33Z</time></trkpt>
<trkpt lat="30.116064" lon="97.292092">
<time>2016-10-07T20:07:34Z</time></trkpt>
<trkpt lat="30.116184" lon="97.291843">
<time>2016-10-07T20:07:35Z</time></trkpt>
<trkpt lat="30.116244" lon="97.291723">
<time>2016-10-07T20:07:36Z</time></trkpt>
<trkpt lat="30.116264" lon="97.291693">
<time>2016-10-07T20:07:37Z</time></trkpt>
<trkpt lat="30.116284" lon="97.291673">
<time>2016-10-07T20:07:38Z</time></trkpt>
<trkpt lat="30.116324" lon="97.291643">
<time>2016-10-07T20:07:39Z</time></trkpt>
<trkpt lat="30.116354" lon="97.291633">
<time>2016-10-07T20:07:40Z</time></trkpt>
<trkpt lat="30.116414" lon="97.291633">
<time>2016-10-07T20:07:41Z</time></trkpt>
<trkpt lat="30.116474" lon="97.291643">
<time>2016-10-07T20:07:42Z</time></trkpt>
<trkpt lat="30.116534" lon="97.291663">
<time>2016-10-07T20:07:43Z</time></trkpt>
<trkpt lat="30.116784" lon="97.291763">
<time>2016-10-07T20:07:44Z</time></trkpt>
<trkpt lat="30.116904" lon="97.291803">
<time>2016-10-07T20:07:45Z</time></trkpt>
<trkpt lat="30.116964" lon="97.291823">
<time>2016-10-07T20:07:46Z</time></trkpt>
<trkpt lat="30.117034" lon="97.291823">
<time>2016-10-07T20:07:47Z</time></trkpt>
<trkpt lat="30.117104" lon="97.291813">
<time>2016-10-07T20:07:48Z</time></trkpt>
<trkpt lat="30.117184" lon="97.291773">
<time>2016-10-07T20:07:49Z</time></trkpt>
<trkpt lat="30.117244" lon="97.291723">
<time>2016-10-07T20:07:50Z</time></trkpt>
<trkpt lat="30.117284" lon="97.291693">
<time>2016-10-07T20:07:51Z</time></trkpt>
<trkpt lat="30.117314" lon="97.291643">
<time>2016-10-07T20:07:52Z</time></trkpt>
<trkpt lat="30.117324" lon="97.291603">
<time>2016-10-07T20:07:53Z</time></trkpt>
<trkpt lat="30.117355" lon="97.291524">
<time>2016-10-07T20:07:54Z</time></trkpt>
<trkpt lat="30.117375" lon="97.291434">
<time>2016-10-07T20:07:55Z</time></trkpt>
<trkpt lat="30.117405" lon="97.291234">
<time>2016-10-07T20:07:56Z</time></trkpt>
<trkpt lat="30.117435" lon="97.291084">
<time>2016-10-07T20:07:57Z</time></trkpt>
<trkpt lat="30.117455" lon="97.290994">
<time>2016-10-07T20:07:58Z</time></trkpt>
<trkpt lat="30.117475" lon="97.290945">
<time>2016-10-07T20:07:59Z</time></trkpt>
<trkpt lat="30.117505" lon="97.290885">
<time>2016-10-07T20:08:00Z</time></trkpt>
<trkpt lat="30.117536" lon="97.290835">
<time>2016-10-07T20:08:01Z</time></trkpt>
<trkpt lat="30.117576" lon="97.290795">
<time>2016-10-07T20:08:02Z</time></trkpt>
<trkpt lat="30.117606" lon="97.290755">
<time>2016-10-07T20:08:03Z</time></trkpt>
<trkpt lat="30.117656" lon="97.290725">
<time>2016-10-07T20:08:04Z</time></trkpt>
<trkpt lat="30.117696" lon="97.290705">
<time>2016-10-07T20:08:05Z</time></trkpt>
<trkpt lat="30.117746" lon="97.290685">
<time>2016-10-07T20:08:06Z</time></trkpt>
<trkpt lat="30.117806" lon="97.290655">
<time>2016-10-07T20:08:07Z</time></trkpt>
<trkpt lat="30.117996" lon="97.290575">
<time>2016-10-07T20:08:08Z</time></trkpt>
<trkpt lat="30.118316" lon="97.290445">
<time>2016-10-07T20:08:09Z</time></trkpt>
<trkpt lat="30.118436" lon="97.290386">
<time>2016-10-07T20:08:10Z</time></trkpt>
<trkpt lat="30.118526" lon="97.290326">
<time>2016-10-07T20:08:11Z</time></trkpt>
<trkpt lat="30.118576" lon="97.290286">
<time>2016-10-07T20:08:12Z</time></trkpt>
<trkpt lat="30.118606" lon="97.290246">
<time>2016-10-07T20:08:13Z</time></trkpt>
<trkpt lat="30.118636" lon="97.290216">
<time>2016-10-07T20:08:14Z</time></trkpt>
<trkpt lat="30.118686" lon="97.290136">
<time>2016-10-07T20:08:15Z</time></trkpt>
<trkpt lat="30.118757" lon="97.290016">
<time>2016-10-07T20:08:16Z</time></trkpt>
<trkpt lat="30.118997" lon="97.289607">
<time>2016-10-07T20:08:17Z</time></trkpt>
<trkpt lat="30.119097" lon="97.289437">
<time>2016-10-07T20:08:18Z</time></trkpt>
<trkpt lat="30.119198" lon="97.289258">
<time>2016-10-07T20:08:19Z</time></trkpt>
<trkpt lat="30.119278" lon="97.289128">
<time>2016-10-07T20:08:20Z</time></trkpt>
<trkpt lat="30.119348" lon="97.289038">
<time>2016-10-07T20:08:21Z</time></trkpt>
<trkpt lat="30.119388" lon="97.288988">
<time>2016-10-07T20:08:22Z</time></trkpt>
<trkpt lat="30.119458" lon="97.288918">
<time>2016-10-07T20:08:23Z</time></trkpt>
<trkpt lat="30.119698" lon="97.288739">
<time>2016-10-07T20:08:24Z</time></trkpt>
<trkpt lat="30.119799" lon="97.288659">
<time>2016-10-07T20:08:25Z</time></trkpt>
<trkpt lat="30.119889" lon="97.288559">
<time>2016-10-07T20:08:26Z</time></trkpt>
<trkpt lat="30.119989" lon="97.288459">
<time>2016-10-07T20:08:27Z</time></trkpt>
<trkpt lat="30.120059" lon="97.288399">
<time>2016-10-07T20:08:28Z</time></trkpt>
<trkpt lat="30.120129" lon="97.288369">
<time>2016-10-07T20:08:29Z</time></trkpt>
<trkpt lat="30.120199" lon="97.288339">
<time>2016-10-07T20:08:30Z</time></trkpt>
<trkpt lat="30.120309" lon="97.288329">
<time>2016-10-07T20:08:31Z</time></trkpt>
<trkpt lat="30.120419" lon="97.288309">
<time>2016-10-07T20:08:32Z</time></trkpt>
<trkpt lat="30.120509" lon="97.288299">
<time>2016-10-07T20:08:33Z</time></trkpt>
<trkpt lat="30.120589" lon="97.288269">
<time>2016-10-07T20:08:34Z</time></trkpt>
<trkpt lat="30.120649" lon="97.288249">
<time>2016-10-07T20:08:35Z</time></trkpt>
<trkpt lat="30.120709" lon="97.288219">
<time>2016-10-07T20:08:36Z</time></trkpt>
<trkpt lat="30.120789" lon="97.28817">
<time>2016-10-07T20:08:37Z</time></trkpt>
<trkpt lat="30.120899" lon="97.2881">
<time>2016-10-07T20:08:38Z</time></trkpt>
<trkpt lat="30.12128" lon="97.28781">
<time>2016-10-07T20:08:39Z</time></trkpt>
<trkpt lat="30.12162" lon="97.287591">
<time>2016-10-07T20:08:40Z</time></trkpt>
<trkpt lat="30.12199" lon="97.287381">
<time>2016-10-07T20:08:41Z</time></trkpt>
<trkpt lat="30.12206" lon="97.287341">
<time>2016-10-07T20:08:42Z</time></trkpt>
<trkpt lat="30.12219" lon="97.287241">
<time>2016-10-07T20:08:43Z</time></trkpt>
<trkpt lat="30.122261" lon="97.287161">
<time>2016-10-07T20:08:44Z</time></trkpt>
<trkpt lat="30.122331" lon="97.287111">
<time>2016-10-07T20:08:45Z</time></trkpt>
<trkpt lat="30.122361" lon="97.287081">
<time>2016-10-07T20:08:46Z</time></trkpt>
<trkpt lat="30.122401" lon="97.287061">
<time>2016-10-07T20:08:47Z</time></trkpt>
<trkpt lat="30.122481" lon="97.287021">
<time>2016-10-07T20:08:48Z</time></trkpt>
<trkpt lat="30.122641" lon="97.286962">
<time>2016-10-07T20:08:49Z</time></trkpt>
<trkpt lat="30.122771" lon="97.286902">
<time>2016-10-07T20:08:50Z</time></trkpt>
<trkpt lat="30.122941" lon="97.286802">
<time>2016-10-07T20:08:51Z</time></trkpt>
<trkpt lat="30.123171" lon="97.286662">
<time>2016-10-07T20:08:52Z</time></trkpt>
<trkpt lat="30.123231" lon="97.286612">
<time>2016-10-07T20:08:53Z</time></trkpt>
<trkpt lat="30.123281" lon="97.286572">
<time>2016-10-07T20:08:54Z</time></trkpt>
<trkpt lat="30.123341" lon="97.286512">
<time>2016-10-07T20:08:55Z</time></trkpt>
<trkpt lat="30.123452" lon="97.286363">
<time>2016-10-07T20:08:56Z</time></trkpt>
<trkpt lat="30.123482" lon="97.286323">
<time>2016-10-07T20:08:57Z</time></trkpt>
<trkpt lat="30.123512" lon="97.286283">
<time>2016-10-07T20:08:58Z</time></trkpt>
<trkpt lat="30.123542" lon="97.286253">
<time>2016-10-07T20:08:59Z</time></trkpt>
<trkpt lat="30.123562" lon="97.286233">
<time>2016-10-07T20:09:00Z</time></trkpt>
<trkpt lat="30.123582" lon="97.286233">
<time>2016-10-07T20:09:01Z</time></trkpt>
<trkpt lat="30.123602" lon="97.286223">
<time>2016-10-07T20:09:02Z</time></trkpt>
<trkpt lat="30.123622" lon="97.286223">
<time>2016-10-07T20:09:03Z</time></trkpt>
<trkpt lat="30.123652" lon="97.286223">
<time>2016-10-07T20:09:04Z</time></trkpt>
<trkpt lat="30.123672" lon="97.286233">
<time>2016-10-07T20:09:05Z</time></trkpt>
<trkpt lat="30.123682" lon="97.286233">
<time>2016-10-07T20:09:06Z</time></trkpt>
<trkpt lat="30.123712" lon="97.286253">
<time>2016-10-07T20:09:07Z</time></trkpt>
<trkpt lat="30.123722" lon="97.286283">
<time>2016-10-07T20:09:08Z</time></trkpt>
<trkpt lat="30.123732" lon="97.286313">
<time>2016-10-07T20:09:09Z</time></trkpt>
<trkpt lat="30.123732" lon="97.286343">
<time>2016-10-07T20:09:10Z</time></trkpt>
<trkpt lat="30.123732" lon="97.286363">
<time>2016-10-07T20:09:11Z</time></trkpt>
<trkpt lat="30.123722" lon="97.286393">
<time>2016-10-07T20:09:12Z</time></trkpt>
<trkpt lat="30.123681" lon="97.286432">
<time>2016-10-07T20:09:13Z</time></trkpt>
<trkpt lat="30.123651" lon="97.286462">
<time>2016-10-07T20:09:14Z</time></trkpt>
<trkpt lat="30.123521" lon="97.286552">
<time>2016-10-07T20:09:15Z</time></trkpt>
<trkpt lat="30.123411" lon="97.286622">
<time>2016-10-07T20:09:16Z</time></trkpt>
<trkpt lat="30.123341" lon="97.286682">
<time>2016-10-07T20:09:17Z</time></trkpt>
<trkpt lat="30.123251" lon="97.286762">
<time>2016-10-07T20:09:18Z</time></trkpt>
<trkpt lat="30.123141" lon="97.286892">
<time>2016-10-07T20:09:19Z</time></trkpt>
<trkpt lat="30.123051" lon="97.286972">
<time>2016-10-07T20:09:20Z</time></trkpt>
<trkpt lat="30.122991" lon="97.287031">
<time>2016-10-07T20:09:21Z</time></trkpt>
<trkpt lat="30.122911" lon="97.287081">
<time>2016-10-07T20:09:22Z</time></trkpt>
<trkpt lat="30.12261" lon="97.287311">
<time>2016-10-07T20:09:23Z</time></trkpt>
<trkpt lat="30.12243" lon="97.287451">
<time>2016-10-07T20:09:24Z</time></trkpt>
<trkpt lat="30.12226" lon="97.2876">
<time>2016-10-07T20:09:25Z</time></trkpt>
<trkpt lat="30.1221" lon="97.28773">
<time>2016-10-07T20:09:26Z</time></trkpt>
<trkpt lat="30.12194" lon="97.28782">
<time>2016-10-07T20:09:27Z</time></trkpt>
<trkpt lat="30.12184" lon="97.28788">
<time>2016-10-07T20:09:28Z</time></trkpt>
<trkpt lat="30.121759" lon="97.28794">
<time>2016-10-07T20:09:29Z</time></trkpt>
<trkpt lat="30.121669" lon="97.28802">
<time>2016-10-07T20:09:30Z</time></trkpt>
<trkpt lat="30.121539" lon="97.288189">
<time>2016-10-07T20:09:31Z</time></trkpt>
<trkpt lat="30.121339" lon="97.288469">
<time>2016-10-07T20:09:32Z</time></trkpt>
<trkpt lat="30.121209" lon="97.288639">
<time>2016-10-07T20:09:33Z</time></trkpt>
<trkpt lat="30.121098" lon="97.288748">
<time>2016-10-07T20:09:34Z</time></trkpt>
<trkpt lat="30.121018" lon="97.288818">
<time>2016-10-07T20:09:35Z</time></trkpt>
<trkpt lat="30.120908" lon="97.288898">
<time>2016-10-07T20:09:36Z</time></trkpt>
<trkpt lat="30.120758" lon="97.288998">
<time>2016-10-07T20:09:37Z</time></trkpt>
<trkpt lat="30.120668" lon="97.289048">
<time>2016-10-07T20:09:38Z</time></trkpt>
<trkpt lat="30.120578" lon="97.289098">
<time>2016-10-07T20:09:39Z</time></trkpt>
<trkpt lat="30.120438" lon="97.289148">
<time>2016-10-07T20:09:40Z</time></trkpt>
<trkpt lat="30.120338" lon="97.289188">
<time>2016-10-07T20:09:41Z</time></trkpt>
<trkpt lat="30.120258" lon="97.289218">
<time>2016-10-07T20:09:42Z</time></trkpt>
<trkpt lat="30.120208" lon="97.289248">
<time>2016-10-07T20:09:43Z</time></trkpt>
<trkpt lat="30.120168" lon="97.289268">
<time>2016-10-07T20:09:44Z</time></trkpt>
<trkpt lat="30.120068" lon="97.289347">
<time>2016-10-07T20:09:45Z</time></trkpt>
<trkpt lat="30.119897" lon="97.289487">
<time>2016-10-07T20:09:46Z</time></trkpt>
<trkpt lat="30.119807" lon="97.289587">
<time>2016-10-07T20:09:47Z</time></trkpt>
<trkpt lat="30.119767" lon="97.289637">
<time>2016-10-07T20:09:48Z</time></trkpt>
<trkpt lat="30.119727" lon="97.289707">
<time>2016-10-07T20:09:49Z</time></trkpt>
<trkpt lat="30.119677" lon="97.289807">
<time>2016-10-07T20:09:50Z</time></trkpt>
<trkpt lat="30.119657" lon="97.289876">
<time>2016-10-07T20:09:51Z</time></trkpt>
<trkpt lat="30.119637" lon="97.289956">
<time>2016-10-07T20:09:52Z</time></trkpt>
<trkpt lat="30.119596" lon="97.290296">
<time>2016-10-07T20:09:53Z</time></trkpt>
<trkpt lat="30.119566" lon="97.290435">
<time>2016-10-07T20:09:54Z</time></trkpt>
<trkpt lat="30.119556" lon="97.290635">
<time>2016-10-07T20:09:55Z</time></trkpt>
<trkpt lat="30.119546" lon="97.290775">
<time>2016-10-07T20:09:56Z</time></trkpt>
<trkpt lat="30.119565" lon="97.290865">
<time>2016-10-07T20:09:57Z</time></trkpt>
<trkpt lat="30.119575" lon="97.290935">
<time>2016-10-07T20:09:58Z</time></trkpt>
<trkpt lat="30.119605" lon="97.290994">
<time>2016-10-07T20:09:59Z</time></trkpt>
<trkpt lat="30.119625" lon="97.291034">
<time>2016-10-07T20:10:00Z</time></trkpt>
<trkpt lat="30.119635" lon="97.291074">
<time>2016-10-07T20:10:01Z</time></trkpt>
<trkpt lat="30.119635" lon="97.291104">
<time>2016-10-07T20:10:02Z</time></trkpt>
<trkpt lat="30.119635" lon="97.291124">
<time>2016-10-07T20:10:03Z</time></trkpt>
<trkpt lat="30.119635" lon="97.291154">
<time>2016-10-07T20:10:04Z</time></trkpt>
<trkpt lat="30.119635" lon="97.291184">
<time>2016-10-07T20:10:05Z</time></trkpt>
<trkpt lat="30.119615" lon="97.291244">
<time>2016-10-07T20:10:06Z</time></trkpt>
<trkpt lat="30.119595" lon="97.291314">
<time>2016-10-07T20:10:07Z</time></trkpt>
<trkpt lat="30.119545" lon="97.291434">
<time>2016-10-07T20:10:08Z</time></trkpt>
<trkpt lat="30.119424" lon="97.291733">
<time>2016-10-07T20:10:09Z</time></trkpt>
<trkpt lat="30.119274" lon="97.292052">
<time>2016-10-07T20:10:10Z</time></trkpt>
<trkpt lat="30.119224" lon="97.292142">
<time>2016-10-07T20:10:11Z</time></trkpt>
<trkpt lat="30.119144" lon="97.292222">
<time>2016-10-07T20:10:12Z</time></trkpt>
<trkpt lat="30.119053" lon="97.292282">
<time>2016-10-07T20:10:13Z</time></trkpt>
<trkpt lat="30.118883" lon="97.292392">
<time>2016-10-07T20:10:14Z</time></trkpt>
<trkpt lat="30.118743" lon="97.292462">
<time>2016-10-07T20:10:15Z</time></trkpt>
<trkpt lat="30.118643" lon="97.292552">
<time>2016-10-07T20:10:16Z</time></trkpt>
<trkpt lat="30.118583" lon="97.292631">
<time>2016-10-07T20:10:17Z</time></trkpt>
<trkpt lat="30.118543" lon="97.292701">
<time>2016-10-07T20:10:18Z</time></trkpt>
<trkpt lat="30.118513" lon="97.292801">
<time>2016-10-07T20:10:19Z</time></trkpt>
<trkpt lat="30.118482" lon="97.293011">
<time>2016-10-07T20:10:20Z</time></trkpt>
<trkpt lat="30.118472" lon="97.29313">
<time>2016-10-07T20:10:21Z</time></trkpt>
<trkpt lat="30.118452" lon="97.2932">
<time>2016-10-07T20:10:22Z</time></trkpt>
<trkpt lat="30.118442" lon="97.29324">
<time>2016-10-07T20:10:23Z</time></trkpt>
<trkpt lat="30.118412" lon="97.29329">
<time>2016-10-07T20:10:24Z</time></trkpt>
<trkpt lat="30.118362" lon="97.29335">
<time>2016-10-07T20:10:25Z</time></trkpt>
<trkpt lat="30.118322" lon="97.29337">
<time>2016-10-07T20:10:26Z</time></trkpt>
<trkpt lat="30.118252" lon="97.2934">
<time>2016-10-07T20:10:27Z</time></trkpt>
<trkpt lat="30.118072" lon="97.29343">
<time>2016-10-07T20:10:28Z</time></trkpt>
<trkpt lat="30.117952" lon="97.29346">
<time>2016-10-07T20:10:29Z</time></trkpt>
<trkpt lat="30.117862" lon="97.29349">
<time>2016-10-07T20:10:30Z</time></trkpt>
<trkpt lat="30.117792" lon="97.2935">
<time>2016-10-07T20:10:31Z</time></trkpt>
<trkpt lat="30.117722" lon="97.2935">
<time>2016-10-07T20:10:32Z</time></trkpt>
<trkpt lat="30.117602" lon="97.29349">
<time>2016-10-07T20:10:33Z</time></trkpt>
<trkpt lat="30.117542" lon="97.29347">
<time>2016-10-07T20:10:34Z</time></trkpt>
<trkpt lat="30.117492" lon="97.29347">
<time>2016-10-07T20:10:35Z</time></trkpt>
<trkpt lat="30.117442" lon="97.29347">
<time>2016-10-07T20:10:36Z</time></trkpt>
<trkpt lat="30.117382" lon="97.29349">
<time>2016-10-07T20:10:37Z</time></trkpt>
<trkpt lat="30.117332" lon="97.29352">
<time>2016-10-07T20:10:38Z</time></trkpt>
<trkpt lat="30.117292" lon="97.29357">
<time>2016-10-07T20:10:39Z</time></trkpt>
<trkpt lat="30.117251" lon="97.29363">
<time>2016-10-07T20:10:40Z</time></trkpt>
<trkpt lat="30.117231" lon="97.293689">
<time>2016-10-07T20:10:41Z</time></trkpt>
<trkpt lat="30.117221" lon="97.293769">
<time>2016-10-07T20:10:42Z</time></trkpt>
<trkpt lat="30.117221" lon="97.293849">
<time>2016-10-07T20:10:43Z</time></trkpt>
<trkpt lat="30.117241" lon="97.293989">
<time>2016-10-07T20:10:44Z</time></trkpt>
<trkpt lat="30.117251" lon="97.294099">
<time>2016-10-07T20:10:45Z</time></trkpt>
<trkpt lat="30.117261" lon="97.294169">
<time>2016-10-07T20:10:46Z</time></trkpt>
<trkpt lat="30.117251" lon="97.294238">
<time>2016-10-07T20:10:47Z</time></trkpt>
<trkpt lat="30.11724" lon="97.294298">
<time>2016-10-07T20:10:48Z</time></trkpt>
<trkpt lat="30.1172" lon="97.294368">
<time>2016-10-07T20:10:49Z</time></trkpt>
<trkpt lat="30.11715" lon="97.294428">
<time>2016-10-07T20:10:50Z</time></trkpt>
<trkpt lat="30.11698" lon="97.294538">
<time>2016-10-07T20:10:51Z</time></trkpt>
<trkpt lat="30.11691" lon="97.294588">
<time>2016-10-07T20:10:52Z</time></trkpt>
<trkpt lat="30.11687" lon="97.294638">
<time>2016-10-07T20:10:53Z</time></trkpt>
<trkpt lat="30.11683" lon="97.294707">
<time>2016-10-07T20:10:54Z</time></trkpt>
<trkpt lat="30.11678" lon="97.294797">
<time>2016-10-07T20:10:55Z</time></trkpt>
<trkpt lat="30.11673" lon="97.294877">
<time>2016-10-07T20:10:56Z</time></trkpt>
<trkpt lat="30.116689" lon="97.294937">
<time>2016-10-07T20:10:57Z</time></trkpt>
<trkpt lat="30.116639" lon="97.294987">
<time>2016-10-07T20:10:58Z</time></trkpt>
<trkpt lat="30.116549" lon="97.295057">
<time>2016-10-07T20:10:59Z</time></trkpt>
<trkpt lat="30.116449" lon="97.295127">
<time>2016-10-07T20:11:00Z</time></trkpt>
<trkpt lat="30.116409" lon="97.295157">
<time>2016-10-07T20:11:01Z</time></trkpt>
<trkpt lat="30.116349" lon="97.295197">
<time>2016-10-07T20:11:02Z</time></trkpt>
<trkpt lat="30.116289" lon="97.295256">
<time>2016-10-07T20:11:03Z</time></trkpt>
<trkpt lat="30.116249" lon="97.295306">
<time>2016-10-07T20:11:04Z</time></trkpt>
<trkpt lat="30.116209" lon="97.295386">
<time>2016-10-07T20:11:05Z</time></trkpt>
<trkpt lat="30.116169" lon="97.295486">
<time>2016-10-07T20:11:06Z</time></trkpt>
<trkpt lat="30.116139" lon="97.295576">
<time>2016-10-07T20:11:07Z</time></trkpt>
<trkpt lat="30.116128" lon="97.295636">
<time>2016-10-07T20:11:08Z</time></trkpt>
<trkpt lat="30.116118" lon="97.295686">
<time>2016-10-07T20:11:09Z</time></trkpt>
<trkpt lat="30.116108" lon="97.295775">
<time>2016-10-07T20:11:10Z</time></trkpt>
<trkpt lat="30.116118" lon="97.295865">
<time>2016-10-07T20:11:11Z</time></trkpt>
<trkpt lat="30.116128" lon="97.295955">
<time>2016-10-07T20:11:12Z</time></trkpt>
<trkpt lat="30.116158" lon="97.296035">
<time>2016-10-07T20:11:13Z</time></trkpt>
<trkpt lat="30.116188" lon="97.296155">
<time>2016-10-07T20:11:14Z</time></trkpt>
<trkpt lat="30.116217" lon="97.296264">
<time>2016-10-07T20:11:15Z</time></trkpt>
<trkpt lat="30.116237" lon="97.296384">
<time>2016-10-07T20:11:16Z</time></trkpt>
<trkpt lat="30.116237" lon="97.296484">
<time>2016-10-07T20:11:17Z</time></trkpt>
<trkpt lat="30.116227" lon="97.296564">
<time>2016-10-07T20:11:18Z</time></trkpt>
<trkpt lat="30.116207" lon="97.296684">
<time>2016-10-07T20:11:19Z</time></trkpt>
<trkpt lat="30.116197" lon="97.296793">
<time>2016-10-07T20:11:20Z</time></trkpt>
<trkpt lat="30.116186" lon="97.296953">
<time>2016-10-07T20:11:21Z</time></trkpt>
<trkpt lat="30.116176" lon="97.297063">
<time>2016-10-07T20:11:22Z</time></trkpt>
<trkpt lat="30.116156" lon="97.297113">
<time>2016-10-07T20:11:23Z</time></trkpt>
<trkpt lat="30.116126" lon="97.297183">
<time>2016-10-07T20:11:24Z</time></trkpt>
<trkpt lat="30.116096" lon="97.297213">
<time>2016-10-07T20:11:25Z</time></trkpt>
<trkpt lat="30.116056" lon="97.297242">
<time>2016-10-07T20:11:26Z</time></trkpt>
<trkpt lat="30.116006" lon="97.297272">
<time>2016-10-07T20:11:27Z</time></trkpt>
<trkpt lat="30.115936" lon="97.297282">
<time>2016-10-07T20:11:28Z</time></trkpt>
<trkpt lat="30.115886" lon="97.297292">
<time>2016-10-07T20:11:29Z</time></trkpt>
<trkpt lat="30.115796" lon="97.297292">
<time>2016-10-07T20:11:30Z</time></trkpt>
<trkpt lat="30.115726" lon="97.297292">
<time>2016-10-07T20:11:31Z</time></trkpt>
<trkpt lat="30.115666" lon="97.297292">
<time>2016-10-07T20:11:32Z</time></trkpt>
<trkpt lat="30.115596" lon="97.297312">
<time>2016-10-07T20:11:33Z</time></trkpt>
<trkpt lat="30.115556" lon="97.297322">
<time>2016-10-07T20:11:34Z</time></trkpt>
<trkpt lat="30.115496" lon="97.297352">
<time>2016-10-07T20:11:35Z</time></trkpt>
<trkpt lat="30.115326" lon="97.297492">
<time>2016-10-07T20:11:36Z</time></trkpt>
<trkpt lat="30.115225" lon="97.297582">
<time>2016-10-07T20:11:37Z</time></trkpt>
<trkpt lat="30.115135" lon="97.297682">
<time>2016-10-07T20:11:38Z</time></trkpt>
<trkpt lat="30.115065" lon="97.297781">
<time>2016-10-07T20:11:39Z</time></trkpt>
<trkpt lat="30.114975" lon="97.297961">
<time>2016-10-07T20:11:40Z</time></trkpt>
<trkpt lat="30.114945" lon="97.298041">
<time>2016-10-07T20:11:41Z</time></trkpt>
<trkpt lat="30.114905" lon="97.298131">
<time>2016-10-07T20:11:42Z</time></trkpt>
<trkpt lat="30.114894" lon="97.29823">
<time>2016-10-07T20:11:43Z</time></trkpt>
<trkpt lat="30.114894" lon="97.29837">
<time>2016-10-07T20:11:44Z</time></trkpt>
<trkpt lat="30.114934" lon="97.29862">
<time>2016-10-07T20:11:45Z</time></trkpt>
<trkpt lat="30.114954" lon="97.298749">
<time>2016-10-07T20:11:46Z</time></trkpt>
<trkpt lat="30.114973" lon="97.298849">
<time>2016-10-07T20:11:47Z</time></trkpt>
<trkpt lat="30.114973" lon="97.298929">
<time>2016-10-07T20:11:48Z</time></trkpt>
<trkpt lat="30.114963" lon="97.298989">
<time>2016-10-07T20:11:49Z</time></trkpt>
<trkpt lat="30.114943" lon="97.299049">
<time>2016-10-07T20:11:50Z</time></trkpt>
<trkpt lat="30.114893" lon="97.299119">
<time>2016-10-07T20:11:51Z</time></trkpt>
<trkpt lat="30.114823" lon="97.299199">
<time>2016-10-07T20:11:52Z</time></trkpt>
<trkpt lat="30.114773" lon="97.299248">
<time>2016-10-07T20:11:53Z</time></trkpt>
<trkpt lat="30.114743" lon="97.299278">
<time>2016-10-07T20:11:54Z</time></trkpt>
<trkpt lat="30.114723" lon="97.299318">
<time>2016-10-07T20:11:55Z</time></trkpt>
<trkpt lat="30.114713" lon="97.299358">
<time>2016-10-07T20:11:56Z</time></trkpt>
<trkpt lat="30.114712" lon="97.299418">
<time>2016-10-07T20:11:57Z</time></trkpt>
<trkpt lat="30.114722" lon="97.299458">
<time>2016-10-07T20:11:58Z</time></trkpt>
<trkpt lat="30.114742" lon="97.299488">
<time>2016-10-07T20:11:59Z</time></trkpt>
<trkpt lat="30.114762" lon="97.299508">
<time>2016-10-07T20:12:00Z</time></trkpt>
<trkpt lat="30.114782" lon="97.299518">
<time>2016-10-07T20:12:01Z</time></trkpt>
<trkpt lat="30.114812" lon="97.299518">
<time>2016-10-07T20:12:02Z</time></trkpt>
<trkpt lat="30.114862" lon="97.299508">
<time>2016-10-07T20:12:03Z</time></trkpt>
<trkpt lat="30.114892" lon="97.299498">
<time>2016-10-07T20:12:04Z</time></trkpt>
<trkpt lat="30.114952" lon="97.299448">
<time>2016-10-07T20:12:05Z</time></trkpt>
<trkpt lat="30.115003" lon="97.299368">
<time>2016-10-07T20:12:06Z</time></trkpt>
<trkpt lat="30.115033" lon="97.299308">
<time>2016-10-07T20:12:07Z</time></trkpt>
<trkpt lat="30.115073" lon="97.299208">
<time>2016-10-07T20:12:08Z</time></trkpt>
<trkpt lat="30.115103" lon="97.299119">
<time>2016-10-07T20:12:09Z</time></trkpt>
<trkpt lat="30.115113" lon="97.299059">
<time>2016-10-07T20:12:10Z</time></trkpt>
<trkpt lat="30.115123" lon="97.298989">
<time>2016-10-07T20:12:11Z</time></trkpt>
<trkpt lat="30.115104" lon="97.298719">
<time>2016-10-07T20:12:12Z</time></trkpt>
<trkpt lat="30.115094" lon="97.29845">
<time>2016-10-07T20:12:13Z</time></trkpt>
<trkpt lat="30.115114" lon="97.29833">
<time>2016-10-07T20:12:14Z</time></trkpt>
<trkpt lat="30.115134" lon="97.29823">
<time>2016-10-07T20:12:15Z</time></trkpt>
<trkpt lat="30.115175" lon="97.298141">
<time>2016-10-07T20:12:16Z</time></trkpt>
<trkpt lat="30.115235" lon="97.298041">
<time>2016-10-07T20:12:17Z</time></trkpt>
<trkpt lat="30.115315" lon="97.297931">
<time>2016-10-07T20:12:18Z</time></trkpt>
<trkpt lat="30.115415" lon="97.297811">
<time>2016-10-07T20:12:19Z</time></trkpt>
<trkpt lat="30.115515" lon="97.297731">
<time>2016-10-07T20:12:20Z</time></trkpt>
<trkpt lat="30.115615" lon="97.297682">
<time>2016-10-07T20:12:21Z</time></trkpt>
<trkpt lat="30.115715" lon="97.297662">
<time>2016-10-07T20:12:22Z</time></trkpt>
<trkpt lat="30.116395" lon="97.297662">
<time>2016-10-07T20:12:23Z</time></trkpt>
<trkpt lat="30.116485" lon="97.297662">
<time>2016-10-07T20:12:24Z</time></trkpt>
<trkpt lat="30.116565" lon="97.297652">
<time>2016-10-07T20:12:25Z</time></trkpt>
<trkpt lat="30.116685" lon="97.297632">
<time>2016-10-07T20:12:26Z</time></trkpt>
<trkpt lat="30.116755" lon="97.297612">
<time>2016-10-07T20:12:27Z</time></trkpt>
<trkpt lat="30.116805" lon="97.297592">
<time>2016-10-07T20:12:28Z</time></trkpt>
<trkpt lat="30.116855" lon="97.297552">
<time>2016-10-07T20:12:29Z</time></trkpt>
<trkpt lat="30.116885" lon="97.297522">
<time>2016-10-07T20:12:30Z</time></trkpt>
<trkpt lat="30.116916" lon="97.297472">
<time>2016-10-07T20:12:31Z</time></trkpt>
<trkpt lat="30.116936" lon="97.297422">
<time>2016-10-07T20:12:32Z</time></trkpt>
<trkpt lat="30.116956" lon="97.297342">
<time>2016-10-07T20:12:33Z</time></trkpt>
<trkpt lat="30.116966" lon="97.297262">
<time>2016-10-07T20:12:34Z</time></trkpt>
<trkpt lat="30.116956" lon="97.297153">
<time>2016-10-07T20:12:35Z</time></trkpt>
<trkpt lat="30.116936" lon="97.296893">
<time>2016-10-07T20:12:36Z</time></trkpt>
<trkpt lat="30.116937" lon="97.296733">
<time>2016-10-07T20:12:37Z</time></trkpt>
<trkpt lat="30.116947" lon="97.296624">
<time>2016-10-07T20:12:38Z</time></trkpt>
<trkpt lat="30.116967" lon="97.296514">
<time>2016-10-07T20:12:39Z</time></trkpt>
<trkpt lat="30.117017" lon="97.296414">
<time>2016-10-07T20:12:40Z</time></trkpt>
<trkpt lat="30.117087" lon="97.296314">
<time>2016-10-07T20:12:41Z</time></trkpt>
<trkpt lat="30.117188" lon="97.296195">
<time>2016-10-07T20:12:42Z</time></trkpt>
<trkpt lat="30.117258" lon="97.296125">
<time>2016-10-07T20:12:43Z</time></trkpt>
<trkpt lat="30.117318" lon="97.296045">
<time>2016-10-07T20:12:44Z</time></trkpt>
<trkpt lat="30.117378" lon="97.296005">
<time>2016-10-07T20:12:45Z</time></trkpt>
<trkpt lat="30.117458" lon="97.295945">
<time>2016-10-07T20:12:46Z</time></trkpt>
<trkpt lat="30.117528" lon="97.295915">
<time>2016-10-07T20:12:47Z</time></trkpt>
<trkpt lat="30.117618" lon="97.295885">
<time>2016-10-07T20:12:48Z</time></trkpt>
<trkpt lat="30.117708" lon="97.295865">
<time>2016-10-07T20:12:49Z</time></trkpt>
<trkpt lat="30.117838" lon="97.295835">
<time>2016-10-07T20:12:50Z</time></trkpt>
<trkpt lat="30.117898" lon="97.295825">
<time>2016-10-07T20:12:51Z</time></trkpt>
<trkpt lat="30.117928" lon="97.295805">
<time>2016-10-07T20:12:52Z</time></trkpt>
<trkpt lat="30.117968" lon="97.295775">
<time>2016-10-07T20:12:53Z</time></trkpt>
<trkpt lat="30.117998" lon="97.295735">
<time>2016-10-07T20:12:54Z</time></trkpt>
<trkpt lat="30.118008" lon="97.295676">
<time>2016-10-07T20:12:55Z</time></trkpt>
<trkpt lat="30.118018" lon="97.295626">
<time>2016-10-07T20:12:56Z</time></trkpt>
<trkpt lat="30.118039" lon="97.295536">
<time>2016-10-07T20:12:57Z</time></trkpt>
<trkpt lat="30.118049" lon="97.295456">
<time>2016-10-07T20:12:58Z</time></trkpt>
<trkpt lat="30.118069" lon="97.295406">
<time>2016-10-07T20:12:59Z</time></trkpt>
<trkpt lat="30.118109" lon="97.295346">
<time>2016-10-07T20:13:00Z</time></trkpt>
<trkpt lat="30.118149" lon="97.295296">
<time>2016-10-07T20:13:01Z</time></trkpt>
<trkpt lat="30.118199" lon="97.295256">
<time>2016-10-07T20:13:02Z</time></trkpt>
<trkpt lat="30.118319" lon="97.295196">
<time>2016-10-07T20:13:03Z</time></trkpt>
<trkpt lat="30.118379" lon="97.295137">
<time>2016-10-07T20:13:04Z</time></trkpt>
<trkpt lat="30.118429" lon="97.295097">
<time>2016-10-07T20:13:05Z</time></trkpt>
<trkpt lat="30.118509" lon="97.294987">
<time>2016-10-07T20:13:06Z</time></trkpt>
<trkpt lat="30.1187" lon="97.294697">
<time>2016-10-07T20:13:07Z</time></trkpt>
<trkpt lat="30.1189" lon="97.294368">
<time>2016-10-07T20:13:08Z</time></trkpt>
<trkpt lat="30.119011" lon="97.294208">
<time>2016-10-07T20:13:09Z</time></trkpt>
<trkpt lat="30.119091" lon="97.294119">
<time>2016-10-07T20:13:10Z</time></trkpt>
<trkpt lat="30.119171" lon="97.294049">
<time>2016-10-07T20:13:11Z</time></trkpt>
<trkpt lat="30.119441" lon="97.293839">
<time>2016-10-07T20:13:12Z</time></trkpt>
<trkpt lat="30.119501" lon="97.293809">
<time>2016-10-07T20:13:13Z</time></trkpt>
<trkpt lat="30.119541" lon="97.293779">
<time>2016-10-07T20:13:14Z</time></trkpt>
<trkpt lat="30.119611" lon="97.293749">
<time>2016-10-07T20:13:15Z</time></trkpt>
<trkpt lat="30.119701" lon="97.293729">
<time>2016-10-07T20:13:16Z</time></trkpt>
<trkpt lat="30.119761" lon="97.293699">
<time>2016-10-07T20:13:17Z</time></trkpt>
<trkpt lat="30.119811" lon="97.293669">
<time>2016-10-07T20:13:18Z</time></trkpt>
<trkpt lat="30.119851" lon="97.293629">
<time>2016-10-07T20:13:19Z</time></trkpt>
<trkpt lat="30.119892" lon="97.29358">
<time>2016-10-07T20:13:20Z</time></trkpt>
<trkpt lat="30.120042" lon="97.29337">
<time>2016-10-07T20:13:21Z</time></trkpt>
<trkpt lat="30.120102" lon="97.29328">
<time>2016-10-07T20:13:22Z</time></trkpt>
<trkpt lat="30.120182" lon="97.29318">
<time>2016-10-07T20:13:23Z</time></trkpt>
<trkpt lat="30.120272" lon="97.293081">
<time>2016-10-07T20:13:24Z</time></trkpt>
<trkpt lat="30.120352" lon="97.292981">
<time>2016-10-07T20:13:25Z</time></trkpt>
<trkpt lat="30.120393" lon="97.292921">
<time>2016-10-07T20:13:26Z</time></trkpt>
<trkpt lat="30.120433" lon="97.292861">
<time>2016-10-07T20:13:27Z</time></trkpt>
<trkpt lat="30.120463" lon="97.292811">
<time>2016-10-07T20:13:28Z</time></trkpt>
<trkpt lat="30.120613" lon="97.292492">
<time>2016-10-07T20:13:29Z</time></trkpt>
<trkpt lat="30.120673" lon="97.292382">
<time>2016-10-07T20:13:30Z</time></trkpt>
<trkpt lat="30.120713" lon="97.292312">
<time>2016-10-07T20:13:31Z</time></trkpt>
<trkpt lat="30.120753" lon="97.292262">
<time>2016-10-07T20:13:32Z</time></trkpt>
<trkpt lat="30.120813" lon="97.292242">
<time>2016-10-07T20:13:33Z</time></trkpt>
<trkpt lat="30.120853" lon="97.292242">
<time>2016-10-07T20:13:34Z</time></trkpt>
<trkpt lat="30.120883" lon="97.292252">
<time>2016-10-07T20:13:35Z</time></trkpt>
<trkpt lat="30.120923" lon="97.292272">
<time>2016-10-07T20:13:36Z</time></trkpt>
<trkpt lat="30.120943" lon="97.292302">
<time>2016-10-07T20:13:37Z</time></trkpt>
<trkpt lat="30.120953" lon="97.292332">
<time>2016-10-07T20:13:38Z</time></trkpt>
<trkpt lat="30.120953" lon="97.292362">
<time>2016-10-07T20:13:39Z</time></trkpt>
<trkpt lat="30.120943" lon="97.292422">
<time>2016-10-07T20:13:40Z</time></trkpt>
<trkpt lat="30.120913" lon="97.292492">
<time>2016-10-07T20:13:41Z</time></trkpt>
<trkpt lat="30.120833" lon="97.292631">
<time>2016-10-07T20:13:42Z</time></trkpt>
<trkpt lat="30.120723" lon="97.292801">
<time>2016-10-07T20:13:43Z</time></trkpt>
<trkpt lat="30.120472" lon="97.29319">
<time>2016-10-07T20:13:44Z</time></trkpt>
<trkpt lat="30.120212" lon="97.29359">
<time>2016-10-07T20:13:45Z</time></trkpt>
<trkpt lat="30.120111" lon="97.293729">
<time>2016-10-07T20:13:46Z</time></trkpt>
<trkpt lat="30.120031" lon="97.293839">
<time>2016-10-07T20:13:47Z</time></trkpt>
<trkpt lat="30.119911" lon="97.293959">
<time>2016-10-07T20:13:48Z</time></trkpt>
<trkpt lat="30.119691" lon="97.294158">
<time>2016-10-07T20:13:49Z</time></trkpt>
<trkpt lat="30.11956" lon="97.294288">
<time>2016-10-07T20:13:50Z</time></trkpt>
<trkpt lat="30.11946" lon="97.294418">
<time>2016-10-07T20:13:51Z</time></trkpt>
<trkpt lat="30.11934" lon="97.294568">
<time>2016-10-07T20:13:52Z</time></trkpt>
<trkpt lat="30.11923" lon="97.294707">
<time>2016-10-07T20:13:53Z</time></trkpt>
<trkpt lat="30.11914" lon="97.294857">
<time>2016-10-07T20:13:54Z</time></trkpt>
<trkpt lat="30.119059" lon="97.295017">
<time>2016-10-07T20:13:55Z</time></trkpt>
<trkpt lat="30.119009" lon="97.295137">
<time>2016-10-07T20:13:56Z</time></trkpt>
<trkpt lat="30.118909" lon="97.295356">
<time>2016-10-07T20:13:57Z</time></trkpt>
<trkpt lat="30.118809" lon="97.295576">
<time>2016-10-07T20:13:58Z</time></trkpt>
<trkpt lat="30.118758" lon="97.295695">
<time>2016-10-07T20:13:59Z</time></trkpt>
<trkpt lat="30.118718" lon="97.295835">
<time>2016-10-07T20:14:00Z</time></trkpt>
<trkpt lat="30.118668" lon="97.296085">
<time>2016-10-07T20:14:01Z</time></trkpt>
<trkpt lat="30.118547" lon="97.296753">
<time>2016-10-07T20:14:02Z</time></trkpt>
<trkpt lat="30.118516" lon="97.296933">
<time>2016-10-07T20:14:03Z</time></trkpt>
<trkpt lat="30.118476" lon="97.297073">
<time>2016-10-07T20:14:04Z</time></trkpt>
<trkpt lat="30.118416" lon="97.297222">
<time>2016-10-07T20:14:05Z</time></trkpt>
<trkpt lat="30.118336" lon="97.297362">
<time>2016-10-07T20:14:06Z</time></trkpt>
<trkpt lat="30.118205" lon="97.297542">
<time>2016-10-07T20:14:07Z</time></trkpt>
<trkpt lat="30.118085" lon="97.297692">
<time>2016-10-07T20:14:08Z</time></trkpt>
<trkpt lat="30.118055" lon="97.297771">
<time>2016-10-07T20:14:09Z</time></trkpt>
<trkpt lat="30.118015" lon="97.297901">
<time>2016-10-07T20:14:10Z</time></trkpt>
<trkpt lat="30.117985" lon="97.298141">
<time>2016-10-07T20:14:11Z</time></trkpt>
<trkpt lat="30.117964" lon="97.29835">
<time>2016-10-07T20:14:12Z</time></trkpt>
<trkpt lat="30.117924" lon="97.29851">
<time>2016-10-07T20:14:13Z</time></trkpt>
<trkpt lat="30.117904" lon="97.29858">
<time>2016-10-07T20:14:14Z</time></trkpt>
<trkpt lat="30.117864" lon="97.29865">
<time>2016-10-07T20:14:15Z</time></trkpt>
<trkpt lat="30.117764" lon="97.298749">
<time>2016-10-07T20:14:16Z</time></trkpt>
<trkpt lat="30.117543" lon="97.298899">
<time>2016-10-07T20:14:17Z</time></trkpt>
<trkpt lat="30.117133" lon="97.299149">
<time>2016-10-07T20:14:18Z</time></trkpt>
<trkpt lat="30.117073" lon="97.299188">
<time>2016-10-07T20:14:19Z</time></trkpt>
<trkpt lat="30.117033" lon="97.299238">
<time>2016-10-07T20:14:20Z</time></trkpt>
<trkpt lat="30.117003" lon="97.299268">
<time>2016-10-07T20:14:21Z</time></trkpt>
<trkpt lat="30.116993" lon="97.299298">
<time>2016-10-07T20:14:22Z</time></trkpt>
<trkpt lat="30.116963" lon="97.299348">
<time>2016-10-07T20:14:23Z</time></trkpt>
<trkpt lat="30.116942" lon="97.299478">
<time>2016-10-07T20:14:24Z</time></trkpt>
<trkpt lat="30.116922" lon="97.299608">
<time>2016-10-07T20:14:25Z</time></trkpt>
<trkpt lat="30.116872" lon="97.299807">
<time>2016-10-07T20:14:26Z</time></trkpt>
<trkpt lat="30.116771" lon="97.300057">
<time>2016-10-07T20:14:27Z</time></trkpt>
<trkpt lat="30.116651" lon="97.300296">
<time>2016-10-07T20:14:28Z</time></trkpt>
<trkpt lat="30.116501" lon="97.300556">
<time>2016-10-07T20:14:29Z</time></trkpt>
<trkpt lat="30.11623" lon="97.301015">
<time>2016-10-07T20:14:30Z</time></trkpt>
<trkpt lat="30.11613" lon="97.301174">
<time>2016-10-07T20:14:31Z</time></trkpt>
<trkpt lat="30.116079" lon="97.301244">
<time>2016-10-07T20:14:32Z</time></trkpt>
<trkpt lat="30.116029" lon="97.301304">
<time>2016-10-07T20:14:33Z</time></trkpt>
<trkpt lat="30.115969" lon="97.301344">
<time>2016-10-07T20:14:34Z</time></trkpt>
<trkpt lat="30.115909" lon="97.301364">
<time>2016-10-07T20:14:35Z</time></trkpt>
<trkpt lat="30.115829" lon="97.301384">
<time>2016-10-07T20:14:36Z</time></trkpt>
<trkpt lat="30.115709" lon="97.301404">
<time>2016-10-07T20:14:37Z</time></trkpt>
<trkpt lat="30.115639" lon="97.301414">
<time>2016-10-07T20:14:38Z</time></trkpt>
<trkpt lat="30.115569" lon="97.301444">
<time>2016-10-07T20:14:39Z</time></trkpt>
<trkpt lat="30.115499" lon="97.301484">
<time>2016-10-07T20:14:40Z</time></trkpt>
<trkpt lat="30.115439" lon="97.301554">
<time>2016-10-07T20:14:41Z</time></trkpt>
<trkpt lat="30.115339" lon="97.301723">
<time>2016-10-07T20:14:42Z</time></trkpt>
<trkpt lat="30.115208" lon="97.301903">
<time>2016-10-07T20:14:43Z</time></trkpt>
<trkpt lat="30.115078" lon="97.302082">
<time>2016-10-07T20:14:44Z</time></trkpt>
<trkpt lat="30.114928" lon="97.302242">
<time>2016-10-07T20:14:45Z</time></trkpt>
<trkpt lat="30.114677" lon="97.302462">
<time>2016-10-07T20:14:46Z</time></trkpt>
<trkpt lat="30.114437" lon="97.302641">
<time>2016-10-07T20:14:47Z</time></trkpt>
<trkpt lat="30.114347" lon="97.302731">
<time>2016-10-07T20:14:48Z</time></trkpt>
<trkpt lat="30.114307" lon="97.302811">
<time>2016-10-07T20:14:49Z</time></trkpt>
<trkpt lat="30.114277" lon="97.302931">
<time>2016-10-07T20:14:50Z</time></trkpt>
<trkpt lat="30.114297" lon="97.302991">
<time>2016-10-07T20:14:51Z</time></trkpt>
<trkpt lat="30.114326" lon="97.30304">
<time>2016-10-07T20:14:52Z</time></trkpt>
<trkpt lat="30.114366" lon="97.30307">
<time>2016-10-07T20:14:53Z</time></trkpt>
<trkpt lat="30.114416" lon="97.30308">
<time>2016-10-07T20:14:54Z</time></trkpt>
<trkpt lat="30.114466" lon="97.30308">
<time>2016-10-07T20:14:55Z</time></trkpt>
<trkpt lat="30.114506" lon="97.30307">
<time>2016-10-07T20:14:56Z</time></trkpt>
<trkpt lat="30.114546" lon="97.30304">
<time>2016-10-07T20:14:57Z</time></trkpt>
<trkpt lat="30.114577" lon="97.303001">
<time>2016-10-07T20:14:58Z</time></trkpt>
<trkpt lat="30.114597" lon="97.302961">
<time>2016-10-07T20:14:59Z</time></trkpt>
<trkpt lat="30.114617" lon="97.302911">
<time>2016-10-07T20:15:00Z</time></trkpt>
<trkpt lat="30.114647" lon="97.302851">
<time>2016-10-07T20:15:01Z</time></trkpt>
<trkpt lat="30.114737" lon="97.302651">
<time>2016-10-07T20:15:02Z</time></trkpt>
<trkpt lat="30.114797" lon="97.302561">
<time>2016-10-07T20:15:03Z</time></trkpt>
<trkpt lat="30.114857" lon="97.302492">
<time>2016-10-07T20:15:04Z</time></trkpt>
<trkpt lat="30.115028" lon="97.302332">
<time>2016-10-07T20:15:05Z</time></trkpt>
<trkpt lat="30.115138" lon="97.302232">
<time>2016-10-07T20:15:06Z</time></trkpt>
<trkpt lat="30.115188" lon="97.302182">
<time>2016-10-07T20:15:07Z</time></trkpt>
<trkpt lat="30.115298" lon="97.302112">
<time>2016-10-07T20:15:08Z</time></trkpt>
<trkpt lat="30.115408" lon="97.302013">
<time>2016-10-07T20:15:09Z</time></trkpt>
<trkpt lat="30.115508" lon="97.301923">
<time>2016-10-07T20:15:10Z</time></trkpt>
<trkpt lat="30.115568" lon="97.301893">
<time>2016-10-07T20:15:11Z</time></trkpt>
<trkpt lat="30.115638" lon="97.301863">
<time>2016-10-07T20:15:12Z</time></trkpt>
<trkpt lat="30.115849" lon="97.301793">
<time>2016-10-07T20:15:13Z</time></trkpt>
<trkpt lat="30.116009" lon="97.301753">
<time>2016-10-07T20:15:14Z</time></trkpt>
<trkpt lat="30.116069" lon="97.301723">
<time>2016-10-07T20:15:15Z</time></trkpt>
<trkpt lat="30.116109" lon="97.301693">
<time>2016-10-07T20:15:16Z</time></trkpt>
<trkpt lat="30.116279" lon="97.301564">
<time>2016-10-07T20:15:17Z</time></trkpt>
<trkpt lat="30.116459" lon="97.301364">
<time>2016-10-07T20:15:18Z</time></trkpt>
<trkpt lat="30.11687" lon="97.300955">
<time>2016-10-07T20:15:19Z</time></trkpt>
<trkpt lat="30.11711" lon="97.300715">
<time>2016-10-07T20:15:20Z</time></trkpt>
<trkpt lat="30.117221" lon="97.300556">
<time>2016-10-07T20:15:21Z</time></trkpt>
<trkpt lat="30.117421" lon="97.300226">
<time>2016-10-07T20:15:22Z</time></trkpt>
<trkpt lat="30.117582" lon="97.299947">
<time>2016-10-07T20:15:23Z</time></trkpt>
<trkpt lat="30.117672" lon="97.299837">
<time>2016-10-07T20:15:24Z</time></trkpt>
<trkpt lat="30.118002" lon="97.299578">
<time>2016-10-07T20:15:25Z</time></trkpt>
<trkpt lat="30.118253" lon="97.299398">
<time>2016-10-07T20:15:26Z</time></trkpt>
<trkpt lat="30.118363" lon="97.299308">
<time>2016-10-07T20:15:27Z</time></trkpt>
<trkpt lat="30.118453" lon="97.299248">
<time>2016-10-07T20:15:28Z</time></trkpt>
<trkpt lat="30.118503" lon="97.299228">
<time>2016-10-07T20:15:29Z</time></trkpt>
<trkpt lat="30.118553" lon="97.299218">
<time>2016-10-07T20:15:30Z</time></trkpt>
<trkpt lat="30.118593" lon="97.299228">
<time>2016-10-07T20:15:31Z</time></trkpt>
<trkpt lat="30.118643" lon="97.299248">
<time>2016-10-07T20:15:32Z</time></trkpt>
<trkpt lat="30.118693" lon="97.299288">
<time>2016-10-07T20:15:33Z</time></trkpt>
<trkpt lat="30.118723" lon="97.299338">
<time>2016-10-07T20:15:34Z</time></trkpt>
<trkpt lat="30.118742" lon="97.299408">
<time>2016-10-07T20:15:35Z</time></trkpt>
<trkpt lat="30.118752" lon="97.299458">
<time>2016-10-07T20:15:36Z</time></trkpt>
<trkpt lat="30.118752" lon="97.299518">
<time>2016-10-07T20:15:37Z</time></trkpt>
<trkpt lat="30.118742" lon="97.299687">
<time>2016-10-07T20:15:38Z</time></trkpt>
<trkpt lat="30.118732" lon="97.299957">
<time>2016-10-07T20:15:39Z</time></trkpt>
<trkpt lat="30.118701" lon="97.300276">
<time>2016-10-07T20:15:40Z</time></trkpt>
<trkpt lat="30.118681" lon="97.300456">
<time>2016-10-07T20:15:41Z</time></trkpt>
<trkpt lat="30.11866" lon="97.300685">
<time>2016-10-07T20:15:42Z</time></trkpt>
<trkpt lat="30.11864" lon="97.301144">
<time>2016-10-07T20:15:43Z</time></trkpt>
<trkpt lat="30.118619" lon="97.301354">
<time>2016-10-07T20:15:44Z</time></trkpt>
<trkpt lat="30.118609" lon="97.301613">
<time>2016-10-07T20:15:45Z</time></trkpt>
<trkpt lat="30.118599" lon="97.301753">
<time>2016-10-07T20:15:46Z</time></trkpt>
<trkpt lat="30.118599" lon="97.301793">
<time>2016-10-07T20:15:47Z</time></trkpt>
<trkpt lat="30.118599" lon="97.301833">
<time>2016-10-07T20:15:48Z</time></trkpt>
<trkpt lat="30.118598" lon="97.301883">
<time>2016-10-07T20:15:49Z</time></trkpt>
<trkpt lat="30.118598" lon="97.301923">
<time>2016-10-07T20:15:50Z</time></trkpt>
<trkpt lat="30.118618" lon="97.301983">
<time>2016-10-07T20:15:51Z</time></trkpt>
<trkpt lat="30.118648" lon="97.302052">
<time>2016-10-07T20:15:52Z</time></trkpt>
<trkpt lat="30.118678" lon="97.302122">
<time>2016-10-07T20:15:53Z</time></trkpt>
<trkpt lat="30.118738" lon="97.302202">
<time>2016-10-07T20:15:54Z</time></trkpt>
<trkpt lat="30.118818" lon="97.302282">
<time>2016-10-07T20:15:55Z</time></trkpt>
<trkpt lat="30.119027" lon="97.302442">
<time>2016-10-07T20:15:56Z</time></trkpt>
<trkpt lat="30.119197" lon="97.302561">
<time>2016-10-07T20:15:57Z</time></trkpt>
<trkpt lat="30.119397" lon="97.302681">
<time>2016-10-07T20:15:58Z</time></trkpt>
<trkpt lat="30.119537" lon="97.302751">
<time>2016-10-07T20:15:59Z</time></trkpt>
<trkpt lat="30.119857" lon="97.302901">
<time>2016-10-07T20:16:00Z</time></trkpt>
<trkpt lat="30.119967" lon="97.302971">
<time>2016-10-07T20:16:01Z</time></trkpt>
<trkpt lat="30.120036" lon="97.30304">
<time>2016-10-07T20:16:02Z</time></trkpt>
<trkpt lat="30.120076" lon="97.3031">
<time>2016-10-07T20:16:03Z</time></trkpt>
<trkpt lat="30.120096" lon="97.30318">
<time>2016-10-07T20:16:04Z</time></trkpt>
<trkpt lat="30.120106" lon="97.30324">
<time>2016-10-07T20:16:05Z</time></trkpt>
<trkpt lat="30.120106" lon="97.30331">
<time>2016-10-07T20:16:06Z</time></trkpt>
<trkpt lat="30.120086" lon="97.30338">
<time>2016-10-07T20:16:07Z</time></trkpt>
<trkpt lat="30.120046" lon="97.30344">
<time>2016-10-07T20:16:08Z</time></trkpt>
<trkpt lat="30.120026" lon="97.303469">
<time>2016-10-07T20:16:09Z</time></trkpt>
<trkpt lat="30.119996" lon="97.303489">
<time>2016-10-07T20:16:10Z</time></trkpt>
<trkpt lat="30.119946" lon="97.303509">
<time>2016-10-07T20:16:11Z</time></trkpt>
<trkpt lat="30.119866" lon="97.303529">
<time>2016-10-07T20:16:12Z</time></trkpt>
<trkpt lat="30.119686" lon="97.303549">
<time>2016-10-07T20:16:13Z</time></trkpt>
<trkpt lat="30.119036" lon="97.303619">
<time>2016-10-07T20:16:14Z</time></trkpt>
<trkpt lat="30.118915" lon="97.303629">
<time>2016-10-07T20:16:15Z</time></trkpt>
<trkpt lat="30.118795" lon="97.303659">
<time>2016-10-07T20:16:16Z</time></trkpt>
<trkpt lat="30.118605" lon="97.303729">
<time>2016-10-07T20:16:17Z</time></trkpt>
<trkpt lat="30.118405" lon="97.303829">
<time>2016-10-07T20:16:18Z</time></trkpt>
<trkpt lat="30.118165" lon="97.303988">
<time>2016-10-07T20:16:19Z</time></trkpt>
<trkpt lat="30.117874" lon="97.304248">
<time>2016-10-07T20:16:20Z</time></trkpt>
<trkpt lat="30.117464" lon="97.304597">
<time>2016-10-07T20:16:21Z</time></trkpt>
<trkpt lat="30.117113" lon="97.304876">
<time>2016-10-07T20:16:22Z</time></trkpt>
<trkpt lat="30.116853" lon="97.305096">
<time>2016-10-07T20:16:23Z</time></trkpt>
<trkpt lat="30.116613" lon="97.305286">
<time>2016-10-07T20:16:24Z</time></trkpt>
<trkpt lat="30.116422" lon="97.305435">
<time>2016-10-07T20:16:25Z</time></trkpt>
<trkpt lat="30.116292" lon="97.305585">
<time>2016-10-07T20:16:26Z</time></trkpt>
<trkpt lat="30.116222" lon="97.305695">
<time>2016-10-07T20:16:27Z</time></trkpt>
<trkpt lat="30.116182" lon="97.305804">
<time>2016-10-07T20:16:28Z</time></trkpt>
<trkpt lat="30.116162" lon="97.305944">
<time>2016-10-07T20:16:29Z</time></trkpt>
<trkpt lat="30.116181" lon="97.306114">
<time>2016-10-07T20:16:30Z</time></trkpt>
<trkpt lat="30.11634" lon="97.306792">
<time>2016-10-07T20:16:31Z</time></trkpt>
<trkpt lat="30.11634" lon="97.306912">
<time>2016-10-07T20:16:32Z</time></trkpt>
<trkpt lat="30.11633" lon="97.307002">
<time>2016-10-07T20:16:33Z</time></trkpt>
<trkpt lat="30.11629" lon="97.307092">
<time>2016-10-07T20:16:34Z</time></trkpt>
<trkpt lat="30.116239" lon="97.307151">
<time>2016-10-07T20:16:35Z</time></trkpt>
<trkpt lat="30.116179" lon="97.307211">
<time>2016-10-07T20:16:36Z</time></trkpt>
<trkpt lat="30.116109" lon="97.307261">
<time>2016-10-07T20:16:37Z</time></trkpt>
<trkpt lat="30.116019" lon="97.307301">
<time>2016-10-07T20:16:38Z</time></trkpt>
<trkpt lat="30.115939" lon="97.307321">
<time>2016-10-07T20:16:39Z</time></trkpt>
<trkpt lat="30.115859" lon="97.307311">
<time>2016-10-07T20:16:40Z</time></trkpt>
<trkpt lat="30.115739" lon="97.307271">
<time>2016-10-07T20:16:41Z</time></trkpt>
<trkpt lat="30.115549" lon="97.307201">
<time>2016-10-07T20:16:42Z</time></trkpt>
<trkpt lat="30.115389" lon="97.307142">
<time>2016-10-07T20:16:43Z</time></trkpt>
<trkpt lat="30.115309" lon="97.307092">
<time>2016-10-07T20:16:44Z</time></trkpt>
<trkpt lat="30.1151" lon="97.306962">
<time>2016-10-07T20:16:45Z</time></trkpt>
<trkpt lat="30.11493" lon="97.306852">
<time>2016-10-07T20:16:46Z</time></trkpt>
<trkpt lat="30.11478" lon="97.306772">
<time>2016-10-07T20:16:47Z</time></trkpt>
<trkpt lat="30.11467" lon="97.306742">
<time>2016-10-07T20:16:48Z</time></trkpt>
<trkpt lat="30.11454" lon="97.306702">
<time>2016-10-07T20:16:49Z</time></trkpt>
<trkpt lat="30.11442" lon="97.306693">
<time>2016-10-07T20:16:50Z</time></trkpt>
<trkpt lat="30.11433" lon="97.306693">
<time>2016-10-07T20:16:51Z</time></trkpt>
<trkpt lat="30.1142" lon="97.306702">
<time>2016-10-07T20:16:52Z</time></trkpt>
<trkpt lat="30.11402" lon="97.306732">
<time>2016-10-07T20:16:53Z</time></trkpt>
<trkpt lat="30.11392" lon="97.306742">
<time>2016-10-07T20:16:54Z</time></trkpt>
<trkpt lat="30.11387" lon="97.306732">
<time>2016-10-07T20:16:55Z</time></trkpt>
<trkpt lat="30.11382" lon="97.306703">
<time>2016-10-07T20:16:56Z</time></trkpt>
<trkpt lat="30.1138" lon="97.306673">
<time>2016-10-07T20:16:57Z</time></trkpt>
<trkpt lat="30.11379" lon="97.306633">
<time>2016-10-07T20:16:58Z</time></trkpt>
<trkpt lat="30.11379" lon="97.306583">
<time>2016-10-07T20:16:59Z</time></trkpt>
<trkpt lat="30.1138" lon="97.306543">
<time>2016-10-07T20:17:00Z</time></trkpt>
<trkpt lat="30.113821" lon="97.306513">
<time>2016-10-07T20:17:01Z</time></trkpt>
<trkpt lat="30.113851" lon="97.306493">
<time>2016-10-07T20:17:02Z</time></trkpt>
<trkpt lat="30.113881" lon="97.306483">
<time>2016-10-07T20:17:03Z</time></trkpt>
<trkpt lat="30.113941" lon="97.306473">
<time>2016-10-07T20:17:04Z</time></trkpt>
<trkpt lat="30.114121" lon="97.306493">
<time>2016-10-07T20:17:05Z</time></trkpt>
<trkpt lat="30.114251" lon="97.306493">
<time>2016-10-07T20:17:06Z</time></trkpt>
<trkpt lat="30.114461" lon="97.306483">
<time>2016-10-07T20:17:07Z</time></trkpt>
<trkpt lat="30.114671" lon="97.306493">
<time>2016-10-07T20:17:08Z</time></trkpt>
<trkpt lat="30.114861" lon="97.306513">
<time>2016-10-07T20:17:09Z</time></trkpt>
<trkpt lat="30.115" lon="97.306533">
<time>2016-10-07T20:17:10Z</time></trkpt>
<trkpt lat="30.11506" lon="97.306523">
<time>2016-10-07T20:17:11Z</time></trkpt>
<trkpt lat="30.115101" lon="97.306513">
<time>2016-10-07T20:17:12Z</time></trkpt>
<trkpt lat="30.115141" lon="97.306493">
<time>2016-10-07T20:17:13Z</time></trkpt>
<trkpt lat="30.115171" lon="97.306463">
<time>2016-10-07T20:17:14Z</time></trkpt>
<trkpt lat="30.115181" lon="97.306423">
<time>2016-10-07T20:17:15Z</time></trkpt>
<trkpt lat="30.115191" lon="97.306383">
<time>2016-10-07T20:17:16Z</time></trkpt>
<trkpt lat="30.115191" lon="97.306333">
<time>2016-10-07T20:17:17Z</time></trkpt>
<trkpt lat="30.115181" lon="97.306283">
<time>2016-10-07T20:17:18Z</time></trkpt>
<trkpt lat="30.115161" lon="97.306234">
<time>2016-10-07T20:17:19Z</time></trkpt>
<trkpt lat="30.115121" lon="97.306204">
<time>2016-10-07T20:17:20Z</time></trkpt>
<trkpt lat="30.115081" lon="97.306184">
<time>2016-10-07T20:17:21Z</time></trkpt>
<trkpt lat="30.115041" lon="97.306164">
<time>2016-10-07T20:17:22Z</time></trkpt>
<trkpt lat="30.114991" lon="97.306164">
<time>2016-10-07T20:17:23Z</time></trkpt>
<trkpt lat="30.114941" lon="97.306164">
<time>2016-10-07T20:17:24Z</time></trkpt>
<trkpt lat="30.114841" lon="97.306174">
<time>2016-10-07T20:17:25Z</time></trkpt>
<trkpt lat="30.114651" lon="97.306214">
<time>2016-10-07T20:17:26Z</time></trkpt>
<trkpt lat="30.114581" lon="97.306224">
<time>2016-10-07T20:17:27Z</time></trkpt>
<trkpt lat="30.114481" lon="97.306224">
<time>2016-10-07T20:17:28Z</time></trkpt>
<trkpt lat="30.114361" lon="97.306234">
<time>2016-10-07T20:17:29Z</time></trkpt>
<trkpt lat="30.114201" lon="97.306224">
<time>2016-10-07T20:17:30Z</time></trkpt>
<trkpt lat="30.114031" lon="97.306204">
<time>2016-10-07T20:17:31Z</time></trkpt>
<trkpt lat="30.113931" lon="97.306194">
<time>2016-10-07T20:17:32Z</time></trkpt>
<trkpt lat="30.113891" lon="97.306184">
<time>2016-10-07T20:17:33Z</time></trkpt>
<trkpt lat="30.113871" lon="97.306154">
<time>2016-10-07T20:17:34Z</time></trkpt>
<trkpt lat="30.113851" lon="97.306134">
<time>2016-10-07T20:17:35Z</time></trkpt>
<trkpt lat="30.113841" lon="97.306114">
<time>2016-10-07T20:17:36Z</time></trkpt>
<trkpt lat="30.113831" lon="97.306074">
<time>2016-10-07T20:17:37Z</time></trkpt>
<trkpt lat="30.113831" lon="97.306044">
<time>2016-10-07T20:17:38Z</time></trkpt>
<trkpt lat="30.113841" lon="97.306024">
<time>2016-10-07T20:17:39Z</time></trkpt>
<trkpt lat="30.113851" lon="97.306004">
<time>2016-10-07T20:17:40Z</time></trkpt>
<trkpt lat="30.113861" lon="97.305994">
<time>2016-10-07T20:17:41Z</time></trkpt>
<trkpt lat="30.113871" lon="97.305974">
<time>2016-10-07T20:17:42Z</time></trkpt>
<trkpt lat="30.113901" lon="97.305964">
<time>2016-10-07T20:17:43Z</time></trkpt>
<trkpt lat="30.113921" lon="97.305954">
<time>2016-10-07T20:17:44Z</time></trkpt>
<trkpt lat="30.113961" lon="97.305944">
<time>2016-10-07T20:17:45Z</time></trkpt>
<trkpt lat="30.114022" lon="97.305934">
<time>2016-10-07T20:17:46Z</time></trkpt>
<trkpt lat="30.114122" lon="97.305934">
<time>2016-10-07T20:17:47Z</time></trkpt>
<trkpt lat="30.114192" lon="97.305924">
<time>2016-10-07T20:17:48Z</time></trkpt>
<trkpt lat="30.114222" lon="97.305914">
<time>2016-10-07T20:17:49Z</time></trkpt>
<trkpt lat="30.114252" lon="97.305904">
<time>2016-10-07T20:17:50Z</time></trkpt>
<trkpt lat="30.114272" lon="97.305884">
<time>2016-10-07T20:17:51Z</time></trkpt>
<trkpt lat="30.114292" lon="97.305864">
<time>2016-10-07T20:17:52Z</time></trkpt>
<trkpt lat="30.114312" lon="97.305834">
<time>2016-10-07T20:17:53Z</time></trkpt>
<trkpt lat="30.114322" lon="97.305794">
<time>2016-10-07T20:17:54Z</time></trkpt>
<trkpt lat="30.114332" lon="97.305755">
<time>2016-10-07T20:17:55Z</time></trkpt>
<trkpt lat="30.114342" lon="97.305725">
<time>2016-10-07T20:17:56Z</time></trkpt>
<trkpt lat="30.114332" lon="97.305685">
<time>2016-10-07T20:17:57Z</time></trkpt>
<trkpt lat="30.114322" lon="97.305605">
<time>2016-10-07T20:17:58Z</time></trkpt>
<trkpt lat="30.114282" lon="97.305505">
<time>2016-10-07T20:17:59Z</time></trkpt>
<trkpt lat="30.114252" lon="97.305425">
<time>2016-10-07T20:18:00Z</time></trkpt>
<trkpt lat="30.114233" lon="97.305365">
<time>2016-10-07T20:18:01Z</time></trkpt>
<trkpt lat="30.114043" lon="97.304966">
<time>2016-10-07T20:18:02Z</time></trkpt>
<trkpt lat="30.113993" lon="97.304837">
<time>2016-10-07T20:18:03Z</time></trkpt>
<trkpt lat="30.113944" lon="97.304757">
<time>2016-10-07T20:18:04Z</time></trkpt>
<trkpt lat="30.113884" lon="97.304677">
<time>2016-10-07T20:18:05Z</time></trkpt>
<trkpt lat="30.113824" lon="97.304607">
<time>2016-10-07T20:18:06Z</time></trkpt>
<trkpt lat="30.113714" lon="97.304497">
<time>2016-10-07T20:18:07Z</time></trkpt>
<trkpt lat="30.113514" lon="97.304298">
<time>2016-10-07T20:18:08Z</time></trkpt>
<trkpt lat="30.113385" lon="97.304148">
<time>2016-10-07T20:18:09Z</time></trkpt>
<trkpt lat="30.113255" lon="97.303998">
<time>2016-10-07T20:18:10Z</time></trkpt>
<trkpt lat="30.113125" lon="97.303829">
<time>2016-10-07T20:18:11Z</time></trkpt>
<trkpt lat="30.113015" lon="97.303639">
<time>2016-10-07T20:18:12Z</time></trkpt>
<trkpt lat="30.112926" lon="97.30349">
<time>2016-10-07T20:18:13Z</time></trkpt>
<trkpt lat="30.112856" lon="97.30337">
<time>2016-10-07T20:18:14Z</time></trkpt>
<trkpt lat="30.112826" lon="97.30332">
<time>2016-10-07T20:18:15Z</time></trkpt>
<trkpt lat="30.112796" lon="97.30328">
<time>2016-10-07T20:18:16Z</time></trkpt>
<trkpt lat="30.112776" lon="97.30327">
<time>2016-10-07T20:18:17Z</time></trkpt>
<trkpt lat="30.112756" lon="97.30326">
<time>2016-10-07T20:18:18Z</time></trkpt>
<trkpt lat="30.112726" lon="97.30326">
<time>2016-10-07T20:18:19Z</time></trkpt>
<trkpt lat="30.112706" lon="97.30326">
<time>2016-10-07T20:18:20Z</time></trkpt>
<trkpt lat="30.112686" lon="97.30327">
<time>2016-10-07T20:18:21Z</time></trkpt>
<trkpt lat="30.112666" lon="97.30329">
<time>2016-10-07T20:18:22Z</time></trkpt>
<trkpt lat="30.112656" lon="97.3033">
<time>2016-10-07T20:18:23Z</time></trkpt>
<trkpt lat="30.112656" lon="97.30333">
<time>2016-10-07T20:18:24Z</time></trkpt>
<trkpt lat="30.112646" lon="97.30336">
<time>2016-10-07T20:18:25Z</time></trkpt>
<trkpt lat="30.112656" lon="97.3034">
<time>2016-10-07T20:18:26Z</time></trkpt>
<trkpt lat="30.112666" lon="97.30343">
<time>2016-10-07T20:18:27Z</time></trkpt>
<trkpt lat="30.112696" lon="97.30347">
<time>2016-10-07T20:18:28Z</time></trkpt>
<trkpt lat="30.112965" lon="97.303829">
<time>2016-10-07T20:18:29Z</time></trkpt>
<trkpt lat="30.113215" lon="97.304158">
<time>2016-10-07T20:18:30Z</time></trkpt>
<trkpt lat="30.113234" lon="97.304208">
<time>2016-10-07T20:18:31Z</time></trkpt>
<trkpt lat="30.113244" lon="97.304248">
<time>2016-10-07T20:18:32Z</time></trkpt>
<trkpt lat="30.113244" lon="97.304278">
<time>2016-10-07T20:18:33Z</time></trkpt>
<trkpt lat="30.113234" lon="97.304318">
<time>2016-10-07T20:18:34Z</time></trkpt>
<trkpt lat="30.113224" lon="97.304348">
<time>2016-10-07T20:18:35Z</time></trkpt>
<trkpt lat="30.113194" lon="97.304388">
<time>2016-10-07T20:18:36Z</time></trkpt>
<trkpt lat="30.113164" lon="97.304418">
<time>2016-10-07T20:18:37Z</time></trkpt>
<trkpt lat="30.113134" lon="97.304427">
<time>2016-10-07T20:18:38Z</time></trkpt>
<trkpt lat="30.113094" lon="97.304437">
<time>2016-10-07T20:18:39Z</time></trkpt>
<trkpt lat="30.113074" lon="97.304447">
<time>2016-10-07T20:18:40Z</time></trkpt>
<trkpt lat="30.113024" lon="97.304447">
<time>2016-10-07T20:18:41Z</time></trkpt>
<trkpt lat="30.112994" lon="97.304447">
<time>2016-10-07T20:18:42Z</time></trkpt>
<trkpt lat="30.112964" lon="97.304437">
<time>2016-10-07T20:18:43Z</time></trkpt>
<trkpt lat="30.112914" lon="97.304408">
<time>2016-10-07T20:18:44Z</time></trkpt>
<trkpt lat="30.112774" lon="97.304318">
<time>2016-10-07T20:18:45Z</time></trkpt>
<trkpt lat="30.112654" lon="97.304228">
<time>2016-10-07T20:18:46Z</time></trkpt>
<trkpt lat="30.112545" lon="97.304138">
<time>2016-10-07T20:18:47Z</time></trkpt>
<trkpt lat="30.112485" lon="97.304088">
<time>2016-10-07T20:18:48Z</time></trkpt>
<trkpt lat="30.112415" lon="97.304058">
<time>2016-10-07T20:18:49Z</time></trkpt>
<trkpt lat="30.112335" lon="97.304028">
<time>2016-10-07T20:18:50Z</time></trkpt>
<trkpt lat="30.112265" lon="97.304018">
<time>2016-10-07T20:18:51Z</time></trkpt>
<trkpt lat="30.112165" lon="97.304018">
<time>2016-10-07T20:18:52Z</time></trkpt>
<trkpt lat="30.112105" lon="97.304038">
<time>2016-10-07T20:18:53Z</time></trkpt>
<trkpt lat="30.112035" lon="97.304058">
<time>2016-10-07T20:18:54Z</time></trkpt>
<trkpt lat="30.111985" lon="97.304098">
<time>2016-10-07T20:18:55Z</time></trkpt>
<trkpt lat="30.111804" lon="97.304238">
<time>2016-10-07T20:18:56Z</time></trkpt>
<trkpt lat="30.111624" lon="97.304388">
<time>2016-10-07T20:18:57Z</time></trkpt>
<trkpt lat="30.111474" lon="97.304507">
<time>2016-10-07T20:18:58Z</time></trkpt>
<trkpt lat="30.111414" lon="97.304527">
<time>2016-10-07T20:18:59Z</time></trkpt>
<trkpt lat="30.111344" lon="97.304547">
<time>2016-10-07T20:19:00Z</time></trkpt>
<trkpt lat="30.111284" lon="97.304547">
<time>2016-10-07T20:19:01Z</time></trkpt>
<trkpt lat="30.111194" lon="97.304547">
<time>2016-10-07T20:19:02Z</time></trkpt>
<trkpt lat="30.111004" lon="97.304507">
<time>2016-10-07T20:19:03Z</time></trkpt>
<trkpt lat="30.110514" lon="97.304408">
<time>2016-10-07T20:19:04Z</time></trkpt>
<trkpt lat="30.110354" lon="97.304358">
<time>2016-10-07T20:19:05Z</time></trkpt>
<trkpt lat="30.110264" lon="97.304318">
<time>2016-10-07T20:19:06Z</time></trkpt>
<trkpt lat="30.109845" lon="97.304098">
<time>2016-10-07T20:19:07Z</time></trkpt>
<trkpt lat="30.109735" lon="97.304058">
<time>2016-10-07T20:19:08Z</time></trkpt>
<trkpt lat="30.109655" lon="97.304018">
<time>2016-10-07T20:19:09Z</time></trkpt>
<trkpt lat="30.109585" lon="97.303989">
<time>2016-10-07T20:19:10Z</time></trkpt>
<trkpt lat="30.109535" lon="97.303959">
<time>2016-10-07T20:19:11Z</time></trkpt>
<trkpt lat="30.109495" lon="97.303909">
<time>2016-10-07T20:19:12Z</time></trkpt>
<trkpt lat="30.109455" lon="97.303859">
<time>2016-10-07T20:19:13Z</time></trkpt>
<trkpt lat="30.109425" lon="97.303799">
<time>2016-10-07T20:19:14Z</time></trkpt>
<trkpt lat="30.109385" lon="97.303719">
<time>2016-10-07T20:19:15Z</time></trkpt>
<trkpt lat="30.109355" lon="97.303679">
<time>2016-10-07T20:19:16Z</time></trkpt>
<trkpt lat="30.109325" lon="97.303639">
<time>2016-10-07T20:19:17Z</time></trkpt>
<trkpt lat="30.109276" lon="97.303589">
<time>2016-10-07T20:19:18Z</time></trkpt>
<trkpt lat="30.109216" lon="97.303539">
<time>2016-10-07T20:19:19Z</time></trkpt>
<trkpt lat="30.109176" lon="97.30352">
<time>2016-10-07T20:19:20Z</time></trkpt>
<trkpt lat="30.109096" lon="97.3035">
<time>2016-10-07T20:19:21Z</time></trkpt>
<trkpt lat="30.108756" lon="97.30343">
<time>2016-10-07T20:19:22Z</time></trkpt>
<trkpt lat="30.108356" lon="97.30335">
<time>2016-10-07T20:19:23Z</time></trkpt>
<trkpt lat="30.107886" lon="97.30326">
<time>2016-10-07T20:19:24Z</time></trkpt>
<trkpt lat="30.107656" lon="97.30323">
<time>2016-10-07T20:19:25Z</time></trkpt>
<trkpt lat="30.107526" lon="97.30323">
<time>2016-10-07T20:19:26Z</time></trkpt>
<trkpt lat="30.107366" lon="97.30326">
<time>2016-10-07T20:19:27Z</time></trkpt>
<trkpt lat="30.107116" lon="97.30333">
<time>2016-10-07T20:19:28Z</time></trkpt>
<trkpt lat="30.107006" lon="97.30336">
<time>2016-10-07T20:19:29Z</time></trkpt>
<trkpt lat="30.106946" lon="97.30336">
<time>2016-10-07T20:19:30Z</time></trkpt>
<trkpt lat="30.106896" lon="97.30335">
<time>2016-10-07T20:19:31Z</time></trkpt>
<trkpt lat="30.106876" lon="97.30333">
<time>2016-10-07T20:19:32Z</time></trkpt>
<trkpt lat="30.106866" lon="97.30331">
<time>2016-10-07T20:19:33Z</time></trkpt>
<trkpt lat="30.106846" lon="97.30329">
<time>2016-10-07T20:19:34Z</time></trkpt>
<trkpt lat="30.106846" lon="97.30326">
<time>2016-10-07T20:19:35Z</time></trkpt>
<trkpt lat="30.106836" lon="97.30323">
<time>2016-10-07T20:19:36Z</time></trkpt>
<trkpt lat="30.106846" lon="97.3032">
<time>2016-10-07T20:19:37Z</time></trkpt>
<trkpt lat="30.106856" lon="97.30317">
<time>2016-10-07T20:19:38Z</time></trkpt>
<trkpt lat="30.106866" lon="97.30315">
<time>2016-10-07T20:19:39Z</time></trkpt>
<trkpt lat="30.106886" lon="97.30313">
<time>2016-10-07T20:19:40Z</time></trkpt>
<trkpt lat="30.106916" lon="97.30311">
<time>2016-10-07T20:19:41Z</time></trkpt>
<trkpt lat="30.106976" lon="97.30309">
<time>2016-10-07T20:19:42Z</time></trkpt>
<trkpt lat="30.107086" lon="97.303071">
<time>2016-10-07T20:19:43Z</time></trkpt>
<trkpt lat="30.107206" lon="97.303061">
<time>2016-10-07T20:19:44Z</time></trkpt>
<trkpt lat="30.107996" lon="97.303021">
<time>2016-10-07T20:19:45Z</time></trkpt>
<trkpt lat="30.108357" lon="97.303001">
<time>2016-10-07T20:19:46Z</time></trkpt>
<trkpt lat="30.108777" lon="97.302991">
<time>2016-10-07T20:19:47Z</time></trkpt>
<trkpt lat="30.108897" lon="97.302991">
<time>2016-10-07T20:19:48Z</time></trkpt>
<trkpt lat="30.108987" lon="97.302991">
<time>2016-10-07T20:19:49Z</time></trkpt>
<trkpt lat="30.109047" lon="97.302981">
<time>2016-10-07T20:19:50Z</time></trkpt>
<trkpt lat="30.109087" lon="97.302971">
<time>2016-10-07T20:19:51Z</time></trkpt>
<trkpt lat="30.109137" lon="97.302941">
<time>2016-10-07T20:19:52Z</time></trkpt>
<trkpt lat="30.109177" lon="97.302911">
<time>2016-10-07T20:19:53Z</time></trkpt>
<trkpt lat="30.109197" lon="97.302881">
<time>2016-10-07T20:19:54Z</time></trkpt>
<trkpt lat="30.109217" lon="97.302851">
<time>2016-10-07T20:19:55Z</time></trkpt>
<trkpt lat="30.109217" lon="97.302821">
<time>2016-10-07T20:19:56Z</time></trkpt>
<trkpt lat="30.109227" lon="97.302761">
<time>2016-10-07T20:19:57Z</time></trkpt>
<trkpt lat="30.109217" lon="97.302711">
<time>2016-10-07T20:19:58Z</time></trkpt>
<trkpt lat="30.109197" lon="97.302671">
<time>2016-10-07T20:19:59Z</time></trkpt>
<trkpt lat="30.109157" lon="97.302621">
<time>2016-10-07T20:20:00Z</time></trkpt>
<trkpt lat="30.108927" lon="97.302492">
<time>2016-10-07T20:20:01Z</time></trkpt>
<trkpt lat="30.108768" lon="97.302382">
<time>2016-10-07T20:20:02Z</time></trkpt>
<trkpt lat="30.108558" lon="97.302212">
<time>2016-10-07T20:20:03Z</time></trkpt>
<trkpt lat="30.108318" lon="97.302023">
<time>2016-10-07T20:20:04Z</time></trkpt>
<trkpt lat="30.108108" lon="97.301893">
<time>2016-10-07T20:20:05Z</time></trkpt>
<trkpt lat="30.107899" lon="97.301783">
<time>2016-10-07T20:20:06Z</time></trkpt>
<trkpt lat="30.107599" lon="97.301614">
<time>2016-10-07T20:20:07Z</time></trkpt>
<trkpt lat="30.107479" lon="97.301544">
<time>2016-10-07T20:20:08Z</time></trkpt>
<trkpt lat="30.107389" lon="97.301494">
<time>2016-10-07T20:20:09Z</time></trkpt>
<trkpt lat="30.107349" lon="97.301474">
<time>2016-10-07T20:20:10Z</time></trkpt>
<trkpt lat="30.107319" lon="97.301454">
<time>2016-10-07T20:20:11Z</time></trkpt>
<trkpt lat="30.107289" lon="97.301444">
<time>2016-10-07T20:20:12Z</time></trkpt>
<trkpt lat="30.107259" lon="97.301444">
<time>2016-10-07T20:20:13Z</time></trkpt>
<trkpt lat="30.107229" lon="97.301434">
<time>2016-10-07T20:20:14Z</time></trkpt>
<trkpt lat="30.107189" lon="97.301444">
<time>2016-10-07T20:20:15Z</time></trkpt>
<trkpt lat="30.107159" lon="97.301464">
<time>2016-10-07T20:20:16Z</time></trkpt>
<trkpt lat="30.107129" lon="97.301484">
<time>2016-10-07T20:20:17Z</time></trkpt>
<trkpt lat="30.107109" lon="97.301514">
<time>2016-10-07T20:20:18Z</time></trkpt>
<trkpt lat="30.107089" lon="97.301534">
<time>2016-10-07T20:20:19Z</time></trkpt>
<trkpt lat="30.107079" lon="97.301574">
<time>2016-10-07T20:20:20Z</time></trkpt>
<trkpt lat="30.107069" lon="97.301604">
<time>2016-10-07T20:20:21Z</time></trkpt>
<trkpt lat="30.107069" lon="97.301624">
<time>2016-10-07T20:20:22Z</time></trkpt>
<trkpt lat="30.107069" lon="97.301664">
<time>2016-10-07T20:20:23Z</time></trkpt>
<trkpt lat="30.107069" lon="97.301703">
<time>2016-10-07T20:20:24Z</time></trkpt>
<trkpt lat="30.107079" lon="97.301743">
<time>2016-10-07T20:20:25Z</time></trkpt>
<trkpt lat="30.107109" lon="97.301783">
<time>2016-10-07T20:20:26Z</time></trkpt>
<trkpt lat="30.107138" lon="97.301813">
<time>2016-10-07T20:20:27Z</time></trkpt>
<trkpt lat="30.107178" lon="97.301833">
<time>2016-10-07T20:20:28Z</time></trkpt>
<trkpt lat="30.107308" lon="97.301883">
<time>2016-10-07T20:20:29Z</time></trkpt>
<trkpt lat="30.107578" lon="97.301983">
<time>2016-10-07T20:20:30Z</time></trkpt>
<trkpt lat="30.107658" lon="97.302023">
<time>2016-10-07T20:20:31Z</time></trkpt>
<trkpt lat="30.107708" lon="97.302063">
<time>2016-10-07T20:20:32Z</time></trkpt>
<trkpt lat="30.107738" lon="97.302113">
<time>2016-10-07T20:20:33Z</time></trkpt>
<trkpt lat="30.107758" lon="97.302182">
<time>2016-10-07T20:20:34Z</time></trkpt>
<trkpt lat="30.107768" lon="97.302232">
<time>2016-10-07T20:20:35Z</time></trkpt>
<trkpt lat="30.107758" lon="97.302292">
<time>2016-10-07T20:20:36Z</time></trkpt>
<trkpt lat="30.107748" lon="97.302342">
<time>2016-10-07T20:20:37Z</time></trkpt>
<trkpt lat="30.107718" lon="97.302392">
<time>2016-10-07T20:20:38Z</time></trkpt>
<trkpt lat="30.107687" lon="97.302422">
<time>2016-10-07T20:20:39Z</time></trkpt>
<trkpt lat="30.107667" lon="97.302442">
<time>2016-10-07T20:20:40Z</time></trkpt>
<trkpt lat="30.107637" lon="97.302452">
<time>2016-10-07T20:20:41Z</time></trkpt>
<trkpt lat="30.107527" lon="97.302452">
<time>2016-10-07T20:20:42Z</time></trkpt>
<trkpt lat="30.107357" lon="97.302462">
<time>2016-10-07T20:20:43Z</time></trkpt>
<trkpt lat="30.107247" lon="97.302472">
<time>2016-10-07T20:20:44Z</time></trkpt>
<trkpt lat="30.107097" lon="97.302492">
<time>2016-10-07T20:20:45Z</time></trkpt>
<trkpt lat="30.106967" lon="97.302512">
<time>2016-10-07T20:20:46Z</time></trkpt>
<trkpt lat="30.106887" lon="97.302512">
<time>2016-10-07T20:20:47Z</time></trkpt>
<trkpt lat="30.106807" lon="97.302512">
<time>2016-10-07T20:20:48Z</time></trkpt>
<trkpt lat="30.106747" lon="97.302492">
<time>2016-10-07T20:20:49Z</time></trkpt>
<trkpt lat="30.106667" lon="97.302472">
<time>2016-10-07T20:20:50Z</time></trkpt>
<trkpt lat="30.106527" lon="97.302432">
<time>2016-10-07T20:20:51Z</time></trkpt>
<trkpt lat="30.106467" lon="97.302422">
<time>2016-10-07T20:20:52Z</time></trkpt>
<trkpt lat="30.106427" lon="97.302422">
<time>2016-10-07T20:20:53Z</time></trkpt>
<trkpt lat="30.106377" lon="97.302432">
<time>2016-10-07T20:20:54Z</time></trkpt>
<trkpt lat="30.106347" lon="97.302442">
<time>2016-10-07T20:20:55Z</time></trkpt>
<trkpt lat="30.106317" lon="97.302452">
<time>2016-10-07T20:20:56Z</time></trkpt>
<trkpt lat="30.106197" lon="97.302532">
<time>2016-10-07T20:20:57Z</time></trkpt>
<trkpt lat="30.106127" lon="97.302562">
<time>2016-10-07T20:20:58Z</time></trkpt>
<trkpt lat="30.105957" lon="97.302641">
<time>2016-10-07T20:20:59Z</time></trkpt>
<trkpt lat="30.105807" lon="97.302701">
<time>2016-10-07T20:21:00Z</time></trkpt>
<trkpt lat="30.105677" lon="97.302741">
<time>2016-10-07T20:21:01Z</time></trkpt>
<trkpt lat="30.105587" lon="97.302751">
<time>2016-10-07T20:21:02Z</time></trkpt>
<trkpt lat="30.105507" lon="97.302751">
<time>2016-10-07T20:21:03Z</time></trkpt>
<trkpt lat="30.105407" lon="97.302731">
<time>2016-10-07T20:21:04Z</time></trkpt>
<trkpt lat="30.105317" lon="97.302701">
<time>2016-10-07T20:21:05Z</time></trkpt>
<trkpt lat="30.104827" lon="97.302492">
<time>2016-10-07T20:21:06Z</time></trkpt>
<trkpt lat="30.104697" lon="97.302462">
<time>2016-10-07T20:21:07Z</time></trkpt>
<trkpt lat="30.104577" lon="97.302462">
<time>2016-10-07T20:21:08Z</time></trkpt>
<trkpt lat="30.104457" lon="97.302472">
<time>2016-10-07T20:21:09Z</time></trkpt>
<trkpt lat="30.104037" lon="97.302592">
<time>2016-10-07T20:21:10Z</time></trkpt>
<trkpt lat="30.103807" lon="97.302651">
<time>2016-10-07T20:21:11Z</time></trkpt>
<trkpt lat="30.103527" lon="97.302731">
<time>2016-10-07T20:21:12Z</time></trkpt>
<trkpt lat="30.103277" lon="97.302821">
<time>2016-10-07T20:21:13Z</time></trkpt>
<trkpt lat="30.103077" lon="97.302921">
<time>2016-10-07T20:21:14Z</time></trkpt>
<trkpt lat="30.102636" lon="97.30315">
<time>2016-10-07T20:21:15Z</time></trkpt>
<trkpt lat="30.102606" lon="97.30316">
<time>2016-10-07T20:21:16Z</time></trkpt>
<trkpt lat="30.102586" lon="97.30317">
<time>2016-10-07T20:21:17Z</time></trkpt>
<trkpt lat="30.102556" lon="97.30317">
<time>2016-10-07T20:21:18Z</time></trkpt>
<trkpt lat="30.102536" lon="97.30317">
<time>2016-10-07T20:21:19Z</time></trkpt>
<trkpt lat="30.102516" lon="97.30317">
<time>2016-10-07T20:21:20Z</time></trkpt>
<trkpt lat="30.102496" lon="97.30316">
<time>2016-10-07T20:21:21Z</time></trkpt>
<trkpt lat="30.102486" lon="97.30314">
<time>2016-10-07T20:21:22Z</time></trkpt>
<trkpt lat="30.102476" lon="97.30313">
<time>2016-10-07T20:21:23Z</time></trkpt>
<trkpt lat="30.102466" lon="97.303111">
<time>2016-10-07T20:21:24Z</time></trkpt>
<trkpt lat="30.102456" lon="97.303081">
<time>2016-10-07T20:21:25Z</time></trkpt>
<trkpt lat="30.102456" lon="97.303061">
<time>2016-10-07T20:21:26Z</time></trkpt>
<trkpt lat="30.102456" lon="97.303041">
<time>2016-10-07T20:21:27Z</time></trkpt>
<trkpt lat="30.102456" lon="97.303021">
<time>2016-10-07T20:21:28Z</time></trkpt>
<trkpt lat="30.102466" lon="97.303011">
<time>2016-10-07T20:21:29Z</time></trkpt>
<trkpt lat="30.102476" lon="97.302991">
<time>2016-10-07T20:21:30Z</time></trkpt>
<trkpt lat="30.102487" lon="97.302971">
<time>2016-10-07T20:21:31Z</time></trkpt>
<trkpt lat="30.102527" lon="97.302941">
<time>2016-10-07T20:21:32Z</time></trkpt>
<trkpt lat="30.102727" lon="97.302881">
<time>2016-10-07T20:21:33Z</time></trkpt>
<trkpt lat="30.102797" lon="97.302861">
<time>2016-10-07T20:21:34Z</time></trkpt>
<trkpt lat="30.102867" lon="97.302831">
<time>2016-10-07T20:21:35Z</time></trkpt>
<trkpt lat="30.103117" lon="97.302691">
<time>2016-10-07T20:21:36Z</time></trkpt>
<trkpt lat="30.103597" lon="97.302442">
<time>2016-10-07T20:21:37Z</time></trkpt>
<trkpt lat="30.103938" lon="97.302272">
<time>2016-10-07T20:21:38Z</time></trkpt>
<trkpt lat="30.104188" lon="97.302143">
<time>2016-10-07T20:21:39Z</time></trkpt>
<trkpt lat="30.104288" lon="97.302103">
<time>2016-10-07T20:21:40Z</time></trkpt>
<trkpt lat="30.104328" lon="97.302073">
<time>2016-10-07T20:21:41Z</time></trkpt>
<trkpt lat="30.104348" lon="97.302043">
<time>2016-10-07T20:21:42Z</time></trkpt>
<trkpt lat="30.104378" lon="97.302003">
<time>2016-10-07T20:21:43Z</time></trkpt>
<trkpt lat="30.104398" lon="97.301963">
<time>2016-10-07T20:21:44Z</time></trkpt>
<trkpt lat="30.104418" lon="97.301903">
<time>2016-10-07T20:21:45Z</time></trkpt>
<trkpt lat="30.104418" lon="97.301843">
<time>2016-10-07T20:21:46Z</time></trkpt>
<trkpt lat="30.104418" lon="97.301803">
<time>2016-10-07T20:21:47Z</time></trkpt>
<trkpt lat="30.104419" lon="97.301753">
<time>2016-10-07T20:21:48Z</time></trkpt>
<trkpt lat="30.104409" lon="97.301703">
<time>2016-10-07T20:21:49Z</time></trkpt>
<trkpt lat="30.104389" lon="97.301674">
<time>2016-10-07T20:21:50Z</time></trkpt>
<trkpt lat="30.104359" lon="97.301624">
<time>2016-10-07T20:21:51Z</time></trkpt>
<trkpt lat="30.104339" lon="97.301604">
<time>2016-10-07T20:21:52Z</time></trkpt>
<trkpt lat="30.104319" lon="97.301594">
<time>2016-10-07T20:21:53Z</time></trkpt>
<trkpt lat="30.104269" lon="97.301574">
<time>2016-10-07T20:21:54Z</time></trkpt>
<trkpt lat="30.104229" lon="97.301554">
<time>2016-10-07T20:21:55Z</time></trkpt>
<trkpt lat="30.104199" lon="97.301554">
<time>2016-10-07T20:21:56Z</time></trkpt>
<trkpt lat="30.104099" lon="97.301544">
<time>2016-10-07T20:21:57Z</time></trkpt>
<trkpt lat="30.103889" lon="97.301564">
<time>2016-10-07T20:21:58Z</time></trkpt>
<trkpt lat="30.103619" lon="97.301614">
<time>2016-10-07T20:21:59Z</time></trkpt>
<trkpt lat="30.103389" lon="97.301644">
<time>2016-10-07T20:22:00Z</time></trkpt>
<trkpt lat="30.103259" lon="97.301664">
<time>2016-10-07T20:22:01Z</time></trkpt>
<trkpt lat="30.103189" lon="97.301664">
<time>2016-10-07T20:22:02Z</time></trkpt>
<trkpt lat="30.103139" lon="97.301654">
<time>2016-10-07T20:22:03Z</time></trkpt>
<trkpt lat="30.103089" lon="97.301634">
<time>2016-10-07T20:22:04Z</time></trkpt>
<trkpt lat="30.102959" lon="97.301604">
<time>2016-10-07T20:22:05Z</time></trkpt>
<trkpt lat="30.102829" lon="97.301554">
<time>2016-10-07T20:22:06Z</time></trkpt>
<trkpt lat="30.102729" lon="97.301534">
<time>2016-10-07T20:22:07Z</time></trkpt>
<trkpt lat="30.102639" lon="97.301504">
<time>2016-10-07T20:22:08Z</time></trkpt>
<trkpt lat="30.102509" lon="97.301514">
<time>2016-10-07T20:22:09Z</time></trkpt>
<trkpt lat="30.102379" lon="97.301534">
<time>2016-10-07T20:22:10Z</time></trkpt>
<trkpt lat="30.102069" lon="97.301614">
<time>2016-10-07T20:22:11Z</time></trkpt>
<trkpt lat="30.101869" lon="97.301674">
<time>2016-10-07T20:22:12Z</time></trkpt>
<trkpt lat="30.101659" lon="97.301753">
<time>2016-10-07T20:22:13Z</time></trkpt>
<trkpt lat="30.101398" lon="97.301853">
<time>2016-10-07T20:22:14Z</time></trkpt>
<trkpt lat="30.101218" lon="97.301943">
<time>2016-10-07T20:22:15Z</time></trkpt>
<trkpt lat="30.100998" lon="97.302063">
<time>2016-10-07T20:22:16Z</time></trkpt>
<trkpt lat="30.100728" lon="97.302202">
<time>2016-10-07T20:22:17Z</time></trkpt>
<trkpt lat="30.100618" lon="97.302242">
<time>2016-10-07T20:22:18Z</time></trkpt>
<trkpt lat="30.100528" lon="97.302272">
<time>2016-10-07T20:22:19Z</time></trkpt>
<trkpt lat="30.100468" lon="97.302282">
<time>2016-10-07T20:22:20Z</time></trkpt>
<trkpt lat="30.100418" lon="97.302282">
<time>2016-10-07T20:22:21Z</time></trkpt>
<trkpt lat="30.100328" lon="97.302272">
<time>2016-10-07T20:22:22Z</time></trkpt>
<trkpt lat="30.100268" lon="97.302262">
<time>2016-10-07T20:22:23Z</time></trkpt>
<trkpt lat="30.100198" lon="97.302242">
<time>2016-10-07T20:22:24Z</time></trkpt>
<trkpt lat="30.100118" lon="97.302212">
<time>2016-10-07T20:22:25Z</time></trkpt>
<trkpt lat="30.099998" lon="97.302163">
<time>2016-10-07T20:22:26Z</time></trkpt>
<trkpt lat="30.099948" lon="97.302153">
<time>2016-10-07T20:22:27Z</time></trkpt>
<trkpt lat="30.099928" lon="97.302143">
<time>2016-10-07T20:22:28Z</time></trkpt>
<trkpt lat="30.099908" lon="97.302153">
<time>2016-10-07T20:22:29Z</time></trkpt>
<trkpt lat="30.099878" lon="97.302153">
<time>2016-10-07T20:22:30Z</time></trkpt>
<trkpt lat="30.099858" lon="97.302173">
<time>2016-10-07T20:22:31Z</time></trkpt>
<trkpt lat="30.099848" lon="97.302183">
<time>2016-10-07T20:22:32Z</time></trkpt>
<trkpt lat="30.099828" lon="97.302212">
<time>2016-10-07T20:22:33Z</time></trkpt>
<trkpt lat="30.099818" lon="97.302222">
<time>2016-10-07T20:22:34Z</time></trkpt>
<trkpt lat="30.099808" lon="97.302242">
<time>2016-10-07T20:22:35Z</time></trkpt>
<trkpt lat="30.099808" lon="97.302262">
<time>2016-10-07T20:22:36Z</time></trkpt>
<trkpt lat="30.099808" lon="97.302282">
<time>2016-10-07T20:22:37Z</time></trkpt>
<trkpt lat="30.099808" lon="97.302302">
<time>2016-10-07T20:22:38Z</time></trkpt>
<trkpt lat="30.099818" lon="97.302332">
<time>2016-10-07T20:22:39Z</time></trkpt>
<trkpt lat="30.099828" lon="97.302362">
<time>2016-10-07T20:22:40Z</time></trkpt>
<trkpt lat="30.099847" lon="97.302392">
<time>2016-10-07T20:22:41Z</time></trkpt>
<trkpt lat="30.099877" lon="97.302412">
<time>2016-10-07T20:22:42Z</time></trkpt>
<trkpt lat="30.099927" lon="97.302442">
<time>2016-10-07T20:22:43Z</time></trkpt>
<trkpt lat="30.099997" lon="97.302472">
<time>2016-10-07T20:22:44Z</time></trkpt>
<trkpt lat="30.100087" lon="97.302512">
<time>2016-10-07T20:22:45Z</time></trkpt>
<trkpt lat="30.100167" lon="97.302522">
<time>2016-10-07T20:22:46Z</time></trkpt>
<trkpt lat="30.100207" lon="97.302522">
<time>2016-10-07T20:22:47Z</time></trkpt>
<trkpt lat="30.100267" lon="97.302512">
<time>2016-10-07T20:22:48Z</time></trkpt>
<trkpt lat="30.100337" lon="97.302502">
<time>2016-10-07T20:22:49Z</time></trkpt>
<trkpt lat="30.100517" lon="97.302432">
<time>2016-10-07T20:22:50Z</time></trkpt>
<trkpt lat="30.101038" lon="97.302232">
<time>2016-10-07T20:22:51Z</time></trkpt>
<trkpt lat="30.101408" lon="97.302093">
<time>2016-10-07T20:22:52Z</time></trkpt>
<trkpt lat="30.101468" lon="97.302073">
<time>2016-10-07T20:22:53Z</time></trkpt>
<trkpt lat="30.101518" lon="97.302073">
<time>2016-10-07T20:22:54Z</time></trkpt>
<trkpt lat="30.101558" lon="97.302083">
<time>2016-10-07T20:22:55Z</time></trkpt>
<trkpt lat="30.101598" lon="97.302113">
<time>2016-10-07T20:22:56Z</time></trkpt>
<trkpt lat="30.101618" lon="97.302143">
<time>2016-10-07T20:22:57Z</time></trkpt>
<trkpt lat="30.101638" lon="97.302163">
<time>2016-10-07T20:22:58Z</time></trkpt>
<trkpt lat="30.101648" lon="97.302202">
<time>2016-10-07T20:22:59Z</time></trkpt>
<trkpt lat="30.101658" lon="97.302242">
<time>2016-10-07T20:23:00Z</time></trkpt>
<trkpt lat="30.101658" lon="97.302312">
<time>2016-10-07T20:23:01Z</time></trkpt>
<trkpt lat="30.101648" lon="97.302372">
<time>2016-10-07T20:23:02Z</time></trkpt>
<trkpt lat="30.101617" lon="97.302432">
<time>2016-10-07T20:23:03Z</time></trkpt>
<trkpt lat="30.101557" lon="97.302512">
<time>2016-10-07T20:23:04Z</time></trkpt>
<trkpt lat="30.101417" lon="97.302671">
<time>2016-10-07T20:23:05Z</time></trkpt>
<trkpt lat="30.100886" lon="97.30328">
<time>2016-10-07T20:23:06Z</time></trkpt>
<trkpt lat="30.100425" lon="97.303799">
<time>2016-10-07T20:23:07Z</time></trkpt>
<trkpt lat="30.100335" lon="97.303909">
<time>2016-10-07T20:23:08Z</time></trkpt>
<trkpt lat="30.100265" lon="97.303979">
<time>2016-10-07T20:23:09Z</time></trkpt>
<trkpt lat="30.100225" lon="97.304019">
<time>2016-10-07T20:23:10Z</time></trkpt>
<trkpt lat="30.100155" lon="97.304059">
<time>2016-10-07T20:23:11Z</time></trkpt>
<trkpt lat="30.100055" lon="97.304118">
<time>2016-10-07T20:23:12Z</time></trkpt>
<trkpt lat="30.100005" lon="97.304148">
<time>2016-10-07T20:23:13Z</time></trkpt>
<trkpt lat="30.099964" lon="97.304168">
<time>2016-10-07T20:23:14Z</time></trkpt>
<trkpt lat="30.099924" lon="97.304168">
<time>2016-10-07T20:23:15Z</time></trkpt>
<trkpt lat="30.099874" lon="97.304158">
<time>2016-10-07T20:23:16Z</time></trkpt>
<trkpt lat="30.099845" lon="97.304138">
<time>2016-10-07T20:23:17Z</time></trkpt>
<trkpt lat="30.099825" lon="97.304108">
<time>2016-10-07T20:23:18Z</time></trkpt>
<trkpt lat="30.099815" lon="97.304069">
<time>2016-10-07T20:23:19Z</time></trkpt>
<trkpt lat="30.099805" lon="97.304039">
<time>2016-10-07T20:23:20Z</time></trkpt>
<trkpt lat="30.099805" lon="97.304009">
<time>2016-10-07T20:23:21Z</time></trkpt>
<trkpt lat="30.099815" lon="97.303969">
<time>2016-10-07T20:23:22Z</time></trkpt>
<trkpt lat="30.099815" lon="97.303939">
<time>2016-10-07T20:23:23Z</time></trkpt>
<trkpt lat="30.099835" lon="97.303899">
<time>2016-10-07T20:23:24Z</time></trkpt>
<trkpt lat="30.099855" lon="97.303869">
<time>2016-10-07T20:23:25Z</time></trkpt>
<trkpt lat="30.099895" lon="97.303819">
<time>2016-10-07T20:23:26Z</time></trkpt>
<trkpt lat="30.099935" lon="97.303769">
<time>2016-10-07T20:23:27Z</time></trkpt>
<trkpt lat="30.100045" lon="97.303649">
<time>2016-10-07T20:23:28Z</time></trkpt>
<trkpt lat="30.100146" lon="97.30355">
<time>2016-10-07T20:23:29Z</time></trkpt>
<trkpt lat="30.100246" lon="97.30344">
<time>2016-10-07T20:23:30Z</time></trkpt>
<trkpt lat="30.100356" lon="97.30332">
<time>2016-10-07T20:23:31Z</time></trkpt>
<trkpt lat="30.100376" lon="97.30327">
<time>2016-10-07T20:23:32Z</time></trkpt>
<trkpt lat="30.100386" lon="97.30323">
<time>2016-10-07T20:23:33Z</time></trkpt>
<trkpt lat="30.100396" lon="97.3032">
<time>2016-10-07T20:23:34Z</time></trkpt>
<trkpt lat="30.100396" lon="97.30317">
<time>2016-10-07T20:23:35Z</time></trkpt>
<trkpt lat="30.100386" lon="97.303131">
<time>2016-10-07T20:23:36Z</time></trkpt>
<trkpt lat="30.100376" lon="97.303101">
<time>2016-10-07T20:23:37Z</time></trkpt>
<trkpt lat="30.100346" lon="97.303061">
<time>2016-10-07T20:23:38Z</time></trkpt>
<trkpt lat="30.100316" lon="97.303021">
<time>2016-10-07T20:23:39Z</time></trkpt>
<trkpt lat="30.100286" lon="97.303001">
<time>2016-10-07T20:23:40Z</time></trkpt>
<trkpt lat="30.100236" lon="97.302991">
<time>2016-10-07T20:23:41Z</time></trkpt>
<trkpt lat="30.100166" lon="97.302991">
<time>2016-10-07T20:23:42Z</time></trkpt>
<trkpt lat="30.099956" lon="97.303011">
<time>2016-10-07T20:23:43Z</time></trkpt>
<trkpt lat="30.099876" lon="97.303011">
<time>2016-10-07T20:23:44Z</time></trkpt>
<trkpt lat="30.099786" lon="97.303001">
<time>2016-10-07T20:23:45Z</time></trkpt>
<trkpt lat="30.099736" lon="97.302991">
<time>2016-10-07T20:23:46Z</time></trkpt>
<trkpt lat="30.099667" lon="97.302951">
<time>2016-10-07T20:23:47Z</time></trkpt>
<trkpt lat="30.099607" lon="97.302891">
<time>2016-10-07T20:23:48Z</time></trkpt>
<trkpt lat="30.099367" lon="97.302672">
<time>2016-10-07T20:23:49Z</time></trkpt>
<trkpt lat="30.099217" lon="97.302552">
<time>2016-10-07T20:23:50Z</time></trkpt>
<trkpt lat="30.099087" lon="97.302472">
<time>2016-10-07T20:23:51Z</time></trkpt>
<trkpt lat="30.098947" lon="97.302382">
<time>2016-10-07T20:23:52Z</time></trkpt>
<trkpt lat="30.098868" lon="97.302322">
<time>2016-10-07T20:23:53Z</time></trkpt>
<trkpt lat="30.098808" lon="97.302252">
<time>2016-10-07T20:23:54Z</time></trkpt>
<trkpt lat="30.098738" lon="97.302163">
<time>2016-10-07T20:23:55Z</time></trkpt>
<trkpt lat="30.098668" lon="97.302033">
<time>2016-10-07T20:23:56Z</time></trkpt>
<trkpt lat="30.098598" lon="97.301893">
<time>2016-10-07T20:23:57Z</time></trkpt>
<trkpt lat="30.098568" lon="97.301843">
<time>2016-10-07T20:23:58Z</time></trkpt>
<trkpt lat="30.098538" lon="97.301823">
<time>2016-10-07T20:23:59Z</time></trkpt>
<trkpt lat="30.098498" lon="97.301823">
<time>2016-10-07T20:24:00Z</time></trkpt>
<trkpt lat="30.098468" lon="97.301833">
<time>2016-10-07T20:24:01Z</time></trkpt>
<trkpt lat="30.098448" lon="97.301853">
<time>2016-10-07T20:24:02Z</time></trkpt>
<trkpt lat="30.098418" lon="97.301883">
<time>2016-10-07T20:24:03Z</time></trkpt>
<trkpt lat="30.098408" lon="97.301923">
<time>2016-10-07T20:24:04Z</time></trkpt>
<trkpt lat="30.098418" lon="97.301963">
<time>2016-10-07T20:24:05Z</time></trkpt>
<trkpt lat="30.098438" lon="97.302023">
<time>2016-10-07T20:24:06Z</time></trkpt>
<trkpt lat="30.098498" lon="97.302113">
<time>2016-10-07T20:24:07Z</time></trkpt>
<trkpt lat="30.098628" lon="97.302282">
<time>2016-10-07T20:24:08Z</time></trkpt>
<trkpt lat="30.098837" lon="97.302562">
<time>2016-10-07T20:24:09Z</time></trkpt>
<trkpt lat="30.098887" lon="97.302662">
<time>2016-10-07T20:24:10Z</time></trkpt>
<trkpt lat="30.098907" lon="97.302731">
<time>2016-10-07T20:24:11Z</time></trkpt>
<trkpt lat="30.098907" lon="97.302801">
<time>2016-10-07T20:24:12Z</time></trkpt>
<trkpt lat="30.098907" lon="97.302851">
<time>2016-10-07T20:24:13Z</time></trkpt>
<trkpt lat="30.098897" lon="97.302881">
<time>2016-10-07T20:24:14Z</time></trkpt>
<trkpt lat="30.098877" lon="97.302911">
<time>2016-10-07T20:24:15Z</time></trkpt>
<trkpt lat="30.098857" lon="97.302931">
<time>2016-10-07T20:24:16Z</time></trkpt>
<trkpt lat="30.098837" lon="97.302951">
<time>2016-10-07T20:24:17Z</time></trkpt>
<trkpt lat="30.098806" lon="97.302971">
<time>2016-10-07T20:24:18Z</time></trkpt>
<trkpt lat="30.098776" lon="97.302981">
<time>2016-10-07T20:24:19Z</time></trkpt>
<trkpt lat="30.098736" lon="97.302991">
<time>2016-10-07T20:24:20Z</time></trkpt>
<trkpt lat="30.098696" lon="97.302981">
<time>2016-10-07T20:24:21Z</time></trkpt>
<trkpt lat="30.098647" lon="97.302951">
<time>2016-10-07T20:24:22Z</time></trkpt>
<trkpt lat="30.098597" lon="97.302881">
<time>2016-10-07T20:24:23Z</time></trkpt>
<trkpt lat="30.098537" lon="97.302771">
<time>2016-10-07T20:24:24Z</time></trkpt>
<trkpt lat="30.098467" lon="97.302632">
<time>2016-10-07T20:24:25Z</time></trkpt>
<trkpt lat="30.098367" lon="97.302412">
<time>2016-10-07T20:24:26Z</time></trkpt>
<trkpt lat="30.098258" lon="97.302193">
<time>2016-10-07T20:24:27Z</time></trkpt>
<trkpt lat="30.098088" lon="97.301873">
<time>2016-10-07T20:24:28Z</time></trkpt>
<trkpt lat="30.097689" lon="97.301215">
<time>2016-10-07T20:24:29Z</time></trkpt>
<trkpt lat="30.0976" lon="97.301095">
<time>2016-10-07T20:24:30Z</time></trkpt>
<trkpt lat="30.09748" lon="97.300975">
<time>2016-10-07T20:24:31Z</time></trkpt>
<trkpt lat="30.09712" lon="97.300656">
<time>2016-10-07T20:24:32Z</time></trkpt>
<trkpt lat="30.096981" lon="97.300536">
<time>2016-10-07T20:24:33Z</time></trkpt>
<trkpt lat="30.096891" lon="97.300436">
<time>2016-10-07T20:24:34Z</time></trkpt>
<trkpt lat="30.096422" lon="97.299698">
<time>2016-10-07T20:24:35Z</time></trkpt>
<trkpt lat="30.096382" lon="97.299678">
<time>2016-10-07T20:24:36Z</time></trkpt>
<trkpt lat="30.096352" lon="97.299668">
<time>2016-10-07T20:24:37Z</time></trkpt>
<trkpt lat="30.096322" lon="97.299678">
<time>2016-10-07T20:24:38Z</time></trkpt>
<trkpt lat="30.096282" lon="97.299698">
<time>2016-10-07T20:24:39Z</time></trkpt>
<trkpt lat="30.096262" lon="97.299728">
<time>2016-10-07T20:24:40Z</time></trkpt>
<trkpt lat="30.096252" lon="97.299778">
<time>2016-10-07T20:24:41Z</time></trkpt>
<trkpt lat="30.096272" lon="97.299838">
<time>2016-10-07T20:24:42Z</time></trkpt>
<trkpt lat="30.096501" lon="97.300137">
<time>2016-10-07T20:24:43Z</time></trkpt>
<trkpt lat="30.096651" lon="97.300336">
<time>2016-10-07T20:24:44Z</time></trkpt>
<trkpt lat="30.096741" lon="97.300476">
<time>2016-10-07T20:24:45Z</time></trkpt>
<trkpt lat="30.09679" lon="97.300596">
<time>2016-10-07T20:24:46Z</time></trkpt>
<trkpt lat="30.09683" lon="97.300686">
<time>2016-10-07T20:24:47Z</time></trkpt>
<trkpt lat="30.09686" lon="97.300766">
<time>2016-10-07T20:24:48Z</time></trkpt>
<trkpt lat="30.097188" lon="97.302063">
<time>2016-10-07T20:24:49Z</time></trkpt>
<trkpt lat="30.097178" lon="97.302133">
<time>2016-10-07T20:24:50Z</time></trkpt>
<trkpt lat="30.097148" lon="97.302183">
<time>2016-10-07T20:24:51Z</time></trkpt>
<trkpt lat="30.097078" lon="97.302213">
<time>2016-10-07T20:24:52Z</time></trkpt>
<trkpt lat="30.097018" lon="97.302203">
<time>2016-10-07T20:24:53Z</time></trkpt>
<trkpt lat="30.096938" lon="97.302163">
<time>2016-10-07T20:24:54Z</time></trkpt>
<trkpt lat="30.096848" lon="97.302103">
<time>2016-10-07T20:24:55Z</time></trkpt>
<trkpt lat="30.096668" lon="97.301903">
<time>2016-10-07T20:24:56Z</time></trkpt>
<trkpt lat="30.096588" lon="97.301783">
<time>2016-10-07T20:24:57Z</time></trkpt>
<trkpt lat="30.096539" lon="97.301674">
<time>2016-10-07T20:24:58Z</time></trkpt>
<trkpt lat="30.096509" lon="97.301584">
<time>2016-10-07T20:24:59Z</time></trkpt>
<trkpt lat="30.096479" lon="97.301514">
<time>2016-10-07T20:25:00Z</time></trkpt>
<trkpt lat="30.096449" lon="97.301454">
<time>2016-10-07T20:25:01Z</time></trkpt>
<trkpt lat="30.096409" lon="97.301414">
<time>2016-10-07T20:25:02Z</time></trkpt>
<trkpt lat="30.096379" lon="97.301384">
<time>2016-10-07T20:25:03Z</time></trkpt>
<trkpt lat="30.096309" lon="97.301344">
<time>2016-10-07T20:25:04Z</time></trkpt>
<trkpt lat="30.096199" lon="97.301324">
<time>2016-10-07T20:25:05Z</time></trkpt>
<trkpt lat="30.095899" lon="97.301314">
<time>2016-10-07T20:25:06Z</time></trkpt>
<trkpt lat="30.095639" lon="97.301314">
<time>2016-10-07T20:25:07Z</time></trkpt>
<trkpt lat="30.095389" lon="97.301304">
<time>2016-10-07T20:25:08Z</time></trkpt>
<trkpt lat="30.095319" lon="97.301295">
<time>2016-10-07T20:25:09Z</time></trkpt>
<trkpt lat="30.095279" lon="97.301285">
<time>2016-10-07T20:25:10Z</time></trkpt>
<trkpt lat="30.095239" lon="97.301265">
<time>2016-10-07T20:25:11Z</time></trkpt>
<trkpt lat="30.095179" lon="97.301235">
<time>2016-10-07T20:25:12Z</time></trkpt>
<trkpt lat="30.095119" lon="97.301205">
<time>2016-10-07T20:25:13Z</time></trkpt>
<trkpt lat="30.09498" lon="97.301105">
<time>2016-10-07T20:25:14Z</time></trkpt>
<trkpt lat="30.09485" lon="97.301015">
<time>2016-10-07T20:25:15Z</time></trkpt>
<trkpt lat="30.09473" lon="97.300915">
<time>2016-10-07T20:25:16Z</time></trkpt>
<trkpt lat="30.09466" lon="97.300855">
<time>2016-10-07T20:25:17Z</time></trkpt>
<trkpt lat="30.09455" lon="97.300756">
<time>2016-10-07T20:25:18Z</time></trkpt>
<trkpt lat="30.09437" lon="97.300566">
<time>2016-10-07T20:25:19Z</time></trkpt>
<trkpt lat="30.094291" lon="97.300476">
<time>2016-10-07T20:25:20Z</time></trkpt>
<trkpt lat="30.094251" lon="97.300406">
<time>2016-10-07T20:25:21Z</time></trkpt>
<trkpt lat="30.094221" lon="97.300356">
<time>2016-10-07T20:25:22Z</time></trkpt>
<trkpt lat="30.094181" lon="97.300267">
<time>2016-10-07T20:25:23Z</time></trkpt>
<trkpt lat="30.094151" lon="97.300167">
<time>2016-10-07T20:25:24Z</time></trkpt>
<trkpt lat="30.094111" lon="97.300017">
<time>2016-10-07T20:25:25Z</time></trkpt>
<trkpt lat="30.094082" lon="97.299877">
<time>2016-10-07T20:25:26Z</time></trkpt>
<trkpt lat="30.094052" lon="97.299778">
<time>2016-10-07T20:25:27Z</time></trkpt>
<trkpt lat="30.094012" lon="97.299668">
<time>2016-10-07T20:25:28Z</time></trkpt>
<trkpt lat="30.093992" lon="97.299618">
<time>2016-10-07T20:25:29Z</time></trkpt>
<trkpt lat="30.093952" lon="97.299558">
<time>2016-10-07T20:25:30Z</time></trkpt>
<trkpt lat="30.093892" lon="97.299458">
<time>2016-10-07T20:25:31Z</time></trkpt>
<trkpt lat="30.093832" lon="97.299379">
<time>2016-10-07T20:25:32Z</time></trkpt>
<trkpt lat="30.093802" lon="97.299329">
<time>2016-10-07T20:25:33Z</time></trkpt>
<trkpt lat="30.093773" lon="97.299289">
<time>2016-10-07T20:25:34Z</time></trkpt>
<trkpt lat="30.093763" lon="97.299259">
<time>2016-10-07T20:25:35Z</time></trkpt>
<trkpt lat="30.093763" lon="97.299239">
<time>2016-10-07T20:25:36Z</time></trkpt>
<trkpt lat="30.093763" lon="97.299229">
<time>2016-10-07T20:25:37Z</time></trkpt>
<trkpt lat="30.093763" lon="97.299199">
<time>2016-10-07T20:25:38Z</time></trkpt>
<trkpt lat="30.093763" lon="97.299189">
<time>2016-10-07T20:25:39Z</time></trkpt>
<trkpt lat="30.093763" lon="97.299179">
<time>2016-10-07T20:25:40Z</time></trkpt>
<trkpt lat="30.093773" lon="97.299159">
<time>2016-10-07T20:25:41Z</time></trkpt>
<trkpt lat="30.093783" lon="97.299139">
<time>2016-10-07T20:25:42Z</time></trkpt>
<trkpt lat="30.093803" lon="97.299129">
<time>2016-10-07T20:25:43Z</time></trkpt>
<trkpt lat="30.093823" lon="97.299119">
<time>2016-10-07T20:25:44Z</time></trkpt>
<trkpt lat="30.093853" lon="97.299119">
<time>2016-10-07T20:25:45Z</time></trkpt>
<trkpt lat="30.093863" lon="97.299119">
<time>2016-10-07T20:25:46Z</time></trkpt>
<trkpt lat="30.093883" lon="97.299129">
<time>2016-10-07T20:25:47Z</time></trkpt>
<trkpt lat="30.093893" lon="97.299139">
<time>2016-10-07T20:25:48Z</time></trkpt>
<trkpt lat="30.093913" lon="97.299149">
<time>2016-10-07T20:25:49Z</time></trkpt>
<trkpt lat="30.093923" lon="97.299169">
<time>2016-10-07T20:25:50Z</time></trkpt>
<trkpt lat="30.093933" lon="97.299189">
<time>2016-10-07T20:25:51Z</time></trkpt>
<trkpt lat="30.093973" lon="97.299269">
<time>2016-10-07T20:25:52Z</time></trkpt>
<trkpt lat="30.094062" lon="97.299468">
<time>2016-10-07T20:25:53Z</time></trkpt>
<trkpt lat="30.094122" lon="97.299638">
<time>2016-10-07T20:25:54Z</time></trkpt>
<trkpt lat="30.094182" lon="97.299798">
<time>2016-10-07T20:25:55Z</time></trkpt>
<trkpt lat="30.094232" lon="97.299907">
<time>2016-10-07T20:25:56Z</time></trkpt>
<trkpt lat="30.094301" lon="97.300017">
<time>2016-10-07T20:25:57Z</time></trkpt>
<trkpt lat="30.094391" lon="97.300127">
<time>2016-10-07T20:25:58Z</time></trkpt>
<trkpt lat="30.094521" lon="97.300257">
<time>2016-10-07T20:25:59Z</time></trkpt>
<trkpt lat="30.094751" lon="97.300486">
<time>2016-10-07T20:26:00Z</time></trkpt>
<trkpt lat="30.09498" lon="97.300726">
<time>2016-10-07T20:26:01Z</time></trkpt>
<trkpt lat="30.0951" lon="97.300845">
<time>2016-10-07T20:26:02Z</time></trkpt>
<trkpt lat="30.0952" lon="97.300935">
<time>2016-10-07T20:26:03Z</time></trkpt>
<trkpt lat="30.09524" lon="97.300955">
<time>2016-10-07T20:26:04Z</time></trkpt>
<trkpt lat="30.09528" lon="97.300975">
<time>2016-10-07T20:26:05Z</time></trkpt>
<trkpt lat="30.09531" lon="97.300985">
<time>2016-10-07T20:26:06Z</time></trkpt>
<trkpt lat="30.09534" lon="97.300985">
<time>2016-10-07T20:26:07Z</time></trkpt>
<trkpt lat="30.09538" lon="97.300985">
<time>2016-10-07T20:26:08Z</time></trkpt>
<trkpt lat="30.09546" lon="97.300955">
<time>2016-10-07T20:26:09Z</time></trkpt>
<trkpt lat="30.09556" lon="97.300895">
<time>2016-10-07T20:26:10Z</time></trkpt>
<trkpt lat="30.09561" lon="97.300855">
<time>2016-10-07T20:26:11Z</time></trkpt>
<trkpt lat="30.09564" lon="97.300825">
<time>2016-10-07T20:26:12Z</time></trkpt>
<trkpt lat="30.09565" lon="97.300796">
<time>2016-10-07T20:26:13Z</time></trkpt>
<trkpt lat="30.09566" lon="97.300766">
<time>2016-10-07T20:26:14Z</time></trkpt>
<trkpt lat="30.09565" lon="97.300716">
<time>2016-10-07T20:26:15Z</time></trkpt>
<trkpt lat="30.09565" lon="97.300696">
<time>2016-10-07T20:26:16Z</time></trkpt>
<trkpt lat="30.09564" lon="97.300666">
<time>2016-10-07T20:26:17Z</time></trkpt>
<trkpt lat="30.09562" lon="97.300636">
<time>2016-10-07T20:26:18Z</time></trkpt>
<trkpt lat="30.09561" lon="97.300616">
<time>2016-10-07T20:26:19Z</time></trkpt>
<trkpt lat="30.0956" lon="97.300596">
<time>2016-10-07T20:26:20Z</time></trkpt>
<trkpt lat="30.09558" lon="97.300576">
<time>2016-10-07T20:26:21Z</time></trkpt>
<trkpt lat="30.095391" lon="97.300446">
<time>2016-10-07T20:26:22Z</time></trkpt>
<trkpt lat="30.095311" lon="97.300386">
<time>2016-10-07T20:26:23Z</time></trkpt>
<trkpt lat="30.095261" lon="97.300337">
<time>2016-10-07T20:26:24Z</time></trkpt>
<trkpt lat="30.095171" lon="97.300227">
<time>2016-10-07T20:26:25Z</time></trkpt>
<trkpt lat="30.095031" lon="97.300057">
<time>2016-10-07T20:26:26Z</time></trkpt>
<trkpt lat="30.094872" lon="97.299848">
<time>2016-10-07T20:26:27Z</time></trkpt>
<trkpt lat="30.094812" lon="97.299758">
<time>2016-10-07T20:26:28Z</time></trkpt>
<trkpt lat="30.094762" lon="97.299668">
<time>2016-10-07T20:26:29Z</time></trkpt>
<trkpt lat="30.094732" lon="97.299578">
<time>2016-10-07T20:26:30Z</time></trkpt>
<trkpt lat="30.094702" lon="97.299458">
<time>2016-10-07T20:26:31Z</time></trkpt>
<trkpt lat="30.094683" lon="97.299309">
<time>2016-10-07T20:26:32Z</time></trkpt>
<trkpt lat="30.094653" lon="97.298979">
<time>2016-10-07T20:26:33Z</time></trkpt>
<trkpt lat="30.094614" lon="97.29866">
<time>2016-10-07T20:26:34Z</time></trkpt>
<trkpt lat="30.094584" lon="97.29852">
<time>2016-10-07T20:26:35Z</time></trkpt>
<trkpt lat="30.094534" lon="97.298351">
<time>2016-10-07T20:26:36Z</time></trkpt>
<trkpt lat="30.094474" lon="97.298181">
<time>2016-10-07T20:26:37Z</time></trkpt>
<trkpt lat="30.094385" lon="97.297981">
<time>2016-10-07T20:26:38Z</time></trkpt>
<trkpt lat="30.094325" lon="97.297832">
<time>2016-10-07T20:26:39Z</time></trkpt>
<trkpt lat="30.094275" lon="97.297692">
<time>2016-10-07T20:26:40Z</time></trkpt>
<trkpt lat="30.094196" lon="97.297363">
<time>2016-10-07T20:26:41Z</time></trkpt>
<trkpt lat="30.094116" lon="97.297153">
<time>2016-10-07T20:26:42Z</time></trkpt>
<trkpt lat="30.094036" lon="97.297013">
<time>2016-10-07T20:26:43Z</time></trkpt>
<trkpt lat="30.093896" lon="97.296824">
<time>2016-10-07T20:26:44Z</time></trkpt>
<trkpt lat="30.093727" lon="97.296594">
<time>2016-10-07T20:26:45Z</time></trkpt>
<trkpt lat="30.093627" lon="97.296434">
<time>2016-10-07T20:26:46Z</time></trkpt>
<trkpt lat="30.093547" lon="97.296255">
<time>2016-10-07T20:26:47Z</time></trkpt>
<trkpt lat="30.093498" lon="97.296085">
<time>2016-10-07T20:26:48Z</time></trkpt>
<trkpt lat="30.093458" lon="97.295925">
<time>2016-10-07T20:26:49Z</time></trkpt>
<trkpt lat="30.093448" lon="97.295886">
<time>2016-10-07T20:26:50Z</time></trkpt>
<trkpt lat="30.093428" lon="97.295856">
<time>2016-10-07T20:26:51Z</time></trkpt>
<trkpt lat="30.093388" lon="97.295826">
<time>2016-10-07T20:26:52Z</time></trkpt>
<trkpt lat="30.093358" lon="97.295816">
<time>2016-10-07T20:26:53Z</time></trkpt>
<trkpt lat="30.093328" lon="97.295816">
<time>2016-10-07T20:26:54Z</time></trkpt>
<trkpt lat="30.093298" lon="97.295826">
<time>2016-10-07T20:26:55Z</time></trkpt>
<trkpt lat="30.093268" lon="97.295836">
<time>2016-10-07T20:26:56Z</time></trkpt>
<trkpt lat="30.093248" lon="97.295866">
<time>2016-10-07T20:26:57Z</time></trkpt>
<trkpt lat="30.093228" lon="97.295896">
<time>2016-10-07T20:26:58Z</time></trkpt>
<trkpt lat="30.093228" lon="97.295935">
<time>2016-10-07T20:26:59Z</time></trkpt>
<trkpt lat="30.093238" lon="97.295965">
<time>2016-10-07T20:27:00Z</time></trkpt>
<trkpt lat="30.093258" lon="97.296035">
<time>2016-10-07T20:27:01Z</time></trkpt>
<trkpt lat="30.093317" lon="97.296155">
<time>2016-10-07T20:27:02Z</time></trkpt>
<trkpt lat="30.093457" lon="97.296415">
<time>2016-10-07T20:27:03Z</time></trkpt>
<trkpt lat="30.093607" lon="97.296654">
<time>2016-10-07T20:27:04Z</time></trkpt>
<trkpt lat="30.093766" lon="97.296933">
<time>2016-10-07T20:27:05Z</time></trkpt>
<trkpt lat="30.093906" lon="97.297363">
<time>2016-10-07T20:27:06Z</time></trkpt>
<trkpt lat="30.093965" lon="97.297522">
<time>2016-10-07T20:27:07Z</time></trkpt>
<trkpt lat="30.093985" lon="97.297592">
<time>2016-10-07T20:27:08Z</time></trkpt>
<trkpt lat="30.093995" lon="97.297672">
<time>2016-10-07T20:27:09Z</time></trkpt>
<trkpt lat="30.093995" lon="97.297702">
<time>2016-10-07T20:27:10Z</time></trkpt>
<trkpt lat="30.093985" lon="97.297742">
<time>2016-10-07T20:27:11Z</time></trkpt>
<trkpt lat="30.093975" lon="97.297762">
<time>2016-10-07T20:27:12Z</time></trkpt>
<trkpt lat="30.093945" lon="97.297792">
<time>2016-10-07T20:27:13Z</time></trkpt>
<trkpt lat="30.093915" lon="97.297802">
<time>2016-10-07T20:27:14Z</time></trkpt>
<trkpt lat="30.093885" lon="97.297812">
<time>2016-10-07T20:27:15Z</time></trkpt>
<trkpt lat="30.093845" lon="97.297802">
<time>2016-10-07T20:27:16Z</time></trkpt>
<trkpt lat="30.093815" lon="97.297782">
<time>2016-10-07T20:27:17Z</time></trkpt>
<trkpt lat="30.093785" lon="97.297742">
<time>2016-10-07T20:27:18Z</time></trkpt>
<trkpt lat="30.093735" lon="97.297672">
<time>2016-10-07T20:27:19Z</time></trkpt>
<trkpt lat="30.093606" lon="97.297343">
<time>2016-10-07T20:27:20Z</time></trkpt>
<trkpt lat="30.093476" lon="97.297043">
<time>2016-10-07T20:27:21Z</time></trkpt>
<trkpt lat="30.093337" lon="97.296664">
<time>2016-10-07T20:27:22Z</time></trkpt>
<trkpt lat="30.093277" lon="97.296534">
<time>2016-10-07T20:27:23Z</time></trkpt>
<trkpt lat="30.093197" lon="97.296405">
<time>2016-10-07T20:27:24Z</time></trkpt>
<trkpt lat="30.093097" lon="97.296285">
<time>2016-10-07T20:27:25Z</time></trkpt>
<trkpt lat="30.092997" lon="97.296175">
<time>2016-10-07T20:27:26Z</time></trkpt>
<trkpt lat="30.092908" lon="97.296085">
<time>2016-10-07T20:27:27Z</time></trkpt>
<trkpt lat="30.092848" lon="97.296005">
<time>2016-10-07T20:27:28Z</time></trkpt>
<trkpt lat="30.092808" lon="97.295926">
<time>2016-10-07T20:27:29Z</time></trkpt>
<trkpt lat="30.092738" lon="97.295756">
<time>2016-10-07T20:27:30Z</time></trkpt>
<trkpt lat="30.092619" lon="97.295436">
<time>2016-10-07T20:27:31Z</time></trkpt>
<trkpt lat="30.092549" lon="97.295237">
<time>2016-10-07T20:27:32Z</time></trkpt>
<trkpt lat="30.092449" lon="97.294987">
<time>2016-10-07T20:27:33Z</time></trkpt>
<trkpt lat="30.09234" lon="97.294808">
<time>2016-10-07T20:27:34Z</time></trkpt>
<trkpt lat="30.09224" lon="97.294698">
<time>2016-10-07T20:27:35Z</time></trkpt>
<trkpt lat="30.09211" lon="97.294578">
<time>2016-10-07T20:27:36Z</time></trkpt>
<trkpt lat="30.09196" lon="97.294458">
<time>2016-10-07T20:27:37Z</time></trkpt>
<trkpt lat="30.09176" lon="97.294299">
<time>2016-10-07T20:27:38Z</time></trkpt>
<trkpt lat="30.09165" lon="97.294189">
<time>2016-10-07T20:27:39Z</time></trkpt>
<trkpt lat="30.091511" lon="97.294039">
<time>2016-10-07T20:27:40Z</time></trkpt>
<trkpt lat="30.091311" lon="97.29378">
<time>2016-10-07T20:27:41Z</time></trkpt>
<trkpt lat="30.091251" lon="97.29368">
<time>2016-10-07T20:27:42Z</time></trkpt>
<trkpt lat="30.091161" lon="97.2935">
<time>2016-10-07T20:27:43Z</time></trkpt>
<trkpt lat="30.091102" lon="97.29341">
<time>2016-10-07T20:27:44Z</time></trkpt>
<trkpt lat="30.091052" lon="97.293351">
<time>2016-10-07T20:27:45Z</time></trkpt>
<trkpt lat="30.090942" lon="97.293271">
<time>2016-10-07T20:27:46Z</time></trkpt>
<trkpt lat="30.090772" lon="97.293141">
<time>2016-10-07T20:27:47Z</time></trkpt>
<trkpt lat="30.090672" lon="97.293041">
<time>2016-10-07T20:27:48Z</time></trkpt>
<trkpt lat="30.090562" lon="97.292891">
<time>2016-10-07T20:27:49Z</time></trkpt>
<trkpt lat="30.090423" lon="97.292722">
<time>2016-10-07T20:27:50Z</time></trkpt>
<trkpt lat="30.090343" lon="97.292622">
<time>2016-10-07T20:27:51Z</time></trkpt>
<trkpt lat="30.090253" lon="97.292502">
<time>2016-10-07T20:27:52Z</time></trkpt>
<trkpt lat="30.090213" lon="97.292452">
<time>2016-10-07T20:27:53Z</time></trkpt>
<trkpt lat="30.090163" lon="97.292412">
<time>2016-10-07T20:27:54Z</time></trkpt>
<trkpt lat="30.090123" lon="97.292392">
<time>2016-10-07T20:27:55Z</time></trkpt>
<trkpt lat="30.090073" lon="97.292362">
<time>2016-10-07T20:27:56Z</time></trkpt>
<trkpt lat="30.089783" lon="97.292233">
<time>2016-10-07T20:27:57Z</time></trkpt>
<trkpt lat="30.089563" lon="97.292123">
<time>2016-10-07T20:27:58Z</time></trkpt>
<trkpt lat="30.089324" lon="97.291953">
<time>2016-10-07T20:27:59Z</time></trkpt>
<trkpt lat="30.089204" lon="97.291883">
<time>2016-10-07T20:28:00Z</time></trkpt>
<trkpt lat="30.089094" lon="97.291813">
<time>2016-10-07T20:28:01Z</time></trkpt>
<trkpt lat="30.088924" lon="97.291754">
<time>2016-10-07T20:28:02Z</time></trkpt>
<trkpt lat="30.088644" lon="97.291654">
<time>2016-10-07T20:28:03Z</time></trkpt>
<trkpt lat="30.088544" lon="97.291614">
<time>2016-10-07T20:28:04Z</time></trkpt>
<trkpt lat="30.088464" lon="97.291574">
<time>2016-10-07T20:28:05Z</time></trkpt>
<trkpt lat="30.088384" lon="97.291524">
<time>2016-10-07T20:28:06Z</time></trkpt>
<trkpt lat="30.088274" lon="97.291424">
<time>2016-10-07T20:28:07Z</time></trkpt>
<trkpt lat="30.088205" lon="97.291344">
<time>2016-10-07T20:28:08Z</time></trkpt>
<trkpt lat="30.088165" lon="97.291304">
<time>2016-10-07T20:28:09Z</time></trkpt>
<trkpt lat="30.088125" lon="97.291255">
<time>2016-10-07T20:28:10Z</time></trkpt>
<trkpt lat="30.088095" lon="97.291235">
<time>2016-10-07T20:28:11Z</time></trkpt>
<trkpt lat="30.088055" lon="97.291225">
<time>2016-10-07T20:28:12Z</time></trkpt>
<trkpt lat="30.088015" lon="97.291225">
<time>2016-10-07T20:28:13Z</time></trkpt>
<trkpt lat="30.087995" lon="97.291245">
<time>2016-10-07T20:28:14Z</time></trkpt>
<trkpt lat="30.087975" lon="97.291255">
<time>2016-10-07T20:28:15Z</time></trkpt>
<trkpt lat="30.087965" lon="97.291284">
<time>2016-10-07T20:28:16Z</time></trkpt>
<trkpt lat="30.087955" lon="97.291304">
<time>2016-10-07T20:28:17Z</time></trkpt>
<trkpt lat="30.087955" lon="97.291344">
<time>2016-10-07T20:28:18Z</time></trkpt>
<trkpt lat="30.087965" lon="97.291384">
<time>2016-10-07T20:28:19Z</time></trkpt>
<trkpt lat="30.088004" lon="97.291434">
<time>2016-10-07T20:28:20Z</time></trkpt>
<trkpt lat="30.088054" lon="97.291494">
<time>2016-10-07T20:28:21Z</time></trkpt>
<trkpt lat="30.088104" lon="97.291534">
<time>2016-10-07T20:28:22Z</time></trkpt>
<trkpt lat="30.088184" lon="97.291584">
<time>2016-10-07T20:28:23Z</time></trkpt>
<trkpt lat="30.088314" lon="97.291654">
<time>2016-10-07T20:28:24Z</time></trkpt>
<trkpt lat="30.088614" lon="97.291803">
<time>2016-10-07T20:28:25Z</time></trkpt>
<trkpt lat="30.088754" lon="97.291883">
<time>2016-10-07T20:28:26Z</time></trkpt>
<trkpt lat="30.088914" lon="97.291983">
<time>2016-10-07T20:28:27Z</time></trkpt>
<trkpt lat="30.089054" lon="97.292093">
<time>2016-10-07T20:28:28Z</time></trkpt>
<trkpt lat="30.089223" lon="97.292263">
<time>2016-10-07T20:28:29Z</time></trkpt>
<trkpt lat="30.089313" lon="97.292342">
<time>2016-10-07T20:28:30Z</time></trkpt>
<trkpt lat="30.089403" lon="97.292422">
<time>2016-10-07T20:28:31Z</time></trkpt>
<trkpt lat="30.089453" lon="97.292472">
<time>2016-10-07T20:28:32Z</time></trkpt>
<trkpt lat="30.089483" lon="97.292522">
<time>2016-10-07T20:28:33Z</time></trkpt>
<trkpt lat="30.089503" lon="97.292572">
<time>2016-10-07T20:28:34Z</time></trkpt>
<trkpt lat="30.089513" lon="97.292602">
<time>2016-10-07T20:28:35Z</time></trkpt>
<trkpt lat="30.089503" lon="97.292642">
<time>2016-10-07T20:28:36Z</time></trkpt>
<trkpt lat="30.089483" lon="97.292682">
<time>2016-10-07T20:28:37Z</time></trkpt>
<trkpt lat="30.089453" lon="97.292702">
<time>2016-10-07T20:28:38Z</time></trkpt>
<trkpt lat="30.089413" lon="97.292722">
<time>2016-10-07T20:28:39Z</time></trkpt>
<trkpt lat="30.089393" lon="97.292712">
<time>2016-10-07T20:28:40Z</time></trkpt>
<trkpt lat="30.089373" lon="97.292712">
<time>2016-10-07T20:28:41Z</time></trkpt>
<trkpt lat="30.089343" lon="97.292692">
<time>2016-10-07T20:28:42Z</time></trkpt>
<trkpt lat="30.089303" lon="97.292662">
<time>2016-10-07T20:28:43Z</time></trkpt>
<trkpt lat="30.089203" lon="97.292532">
<time>2016-10-07T20:28:44Z</time></trkpt>
<trkpt lat="30.089113" lon="97.292412">
<time>2016-10-07T20:28:45Z</time></trkpt>
<trkpt lat="30.089043" lon="97.292332">
<time>2016-10-07T20:28:46Z</time></trkpt>
<trkpt lat="30.089003" lon="97.292283">
<time>2016-10-07T20:28:47Z</time></trkpt>
<trkpt lat="30.088933" lon="97.292213">
<time>2016-10-07T20:28:48Z</time></trkpt>
<trkpt lat="30.088863" lon="97.292163">
<time>2016-10-07T20:28:49Z</time></trkpt>
<trkpt lat="30.088783" lon="97.292113">
<time>2016-10-07T20:28:50Z</time></trkpt>
<trkpt lat="30.088704" lon="97.292083">
<time>2016-10-07T20:28:51Z</time></trkpt>
<trkpt lat="30.088494" lon="97.292023">
<time>2016-10-07T20:28:52Z</time></trkpt>
<trkpt lat="30.088234" lon="97.291973">
<time>2016-10-07T20:28:53Z</time></trkpt>
<trkpt lat="30.088144" lon="97.291943">
<time>2016-10-07T20:28:54Z</time></trkpt>
<trkpt lat="30.088054" lon="97.291903">
<time>2016-10-07T20:28:55Z</time></trkpt>
<trkpt lat="30.087974" lon="97.291863">
<time>2016-10-07T20:28:56Z</time></trkpt>
<trkpt lat="30.087924" lon="97.291823">
<time>2016-10-07T20:28:57Z</time></trkpt>
<trkpt lat="30.087884" lon="97.291774">
<time>2016-10-07T20:28:58Z</time></trkpt>
<trkpt lat="30.087834" lon="97.291714">
<time>2016-10-07T20:28:59Z</time></trkpt>
<trkpt lat="30.087784" lon="97.291644">
<time>2016-10-07T20:29:00Z</time></trkpt>
<trkpt lat="30.087625" lon="97.291304">
<time>2016-10-07T20:29:01Z</time></trkpt>
<trkpt lat="30.087605" lon="97.291284">
<time>2016-10-07T20:29:02Z</time></trkpt>
<trkpt lat="30.087595" lon="97.291274">
<time>2016-10-07T20:29:03Z</time></trkpt>
<trkpt lat="30.087575" lon="97.291265">
<time>2016-10-07T20:29:04Z</time></trkpt>
<trkpt lat="30.087535" lon="97.291265">
<time>2016-10-07T20:29:05Z</time></trkpt>
<trkpt lat="30.087495" lon="97.291274">
<time>2016-10-07T20:29:06Z</time></trkpt>
<trkpt lat="30.087465" lon="97.291304">
<time>2016-10-07T20:29:07Z</time></trkpt>
<trkpt lat="30.087445" lon="97.291344">
<time>2016-10-07T20:29:08Z</time></trkpt>
<trkpt lat="30.087444" lon="97.291394">
<time>2016-10-07T20:29:09Z</time></trkpt>
<trkpt lat="30.087474" lon="97.291464">
<time>2016-10-07T20:29:10Z</time></trkpt>
<trkpt lat="30.087624" lon="97.291704">
<time>2016-10-07T20:29:11Z</time></trkpt>
<trkpt lat="30.087714" lon="97.291833">
<time>2016-10-07T20:29:12Z</time></trkpt>
<trkpt lat="30.087834" lon="97.291983">
<time>2016-10-07T20:29:13Z</time></trkpt>
<trkpt lat="30.088203" lon="97.292352">
<time>2016-10-07T20:29:14Z</time></trkpt>
<trkpt lat="30.088403" lon="97.292542">
<time>2016-10-07T20:29:15Z</time></trkpt>
<trkpt lat="30.088463" lon="97.292602">
<time>2016-10-07T20:29:16Z</time></trkpt>
<trkpt lat="30.088483" lon="97.292642">
<time>2016-10-07T20:29:17Z</time></trkpt>
<trkpt lat="30.088493" lon="97.292672">
<time>2016-10-07T20:29:18Z</time></trkpt>
<trkpt lat="30.088493" lon="97.292712">
<time>2016-10-07T20:29:19Z</time></trkpt>
<trkpt lat="30.088493" lon="97.292752">
<time>2016-10-07T20:29:20Z</time></trkpt>
<trkpt lat="30.088472" lon="97.292792">
<time>2016-10-07T20:29:21Z</time></trkpt>
<trkpt lat="30.088452" lon="97.292822">
<time>2016-10-07T20:29:22Z</time></trkpt>
<trkpt lat="30.088432" lon="97.292842">
<time>2016-10-07T20:29:23Z</time></trkpt>
<trkpt lat="30.088402" lon="97.292862">
<time>2016-10-07T20:29:24Z</time></trkpt>
<trkpt lat="30.088362" lon="97.292871">
<time>2016-10-07T20:29:25Z</time></trkpt>
<trkpt lat="30.088322" lon="97.292881">
<time>2016-10-07T20:29:26Z</time></trkpt>
<trkpt lat="30.088282" lon="97.292881">
<time>2016-10-07T20:29:27Z</time></trkpt>
<trkpt lat="30.088232" lon="97.292871">
<time>2016-10-07T20:29:28Z</time></trkpt>
<trkpt lat="30.088162" lon="97.292862">
<time>2016-10-07T20:29:29Z</time></trkpt>
<trkpt lat="30.088022" lon="97.292822">
<time>2016-10-07T20:29:30Z</time></trkpt>
<trkpt lat="30.087922" lon="97.292782">
<time>2016-10-07T20:29:31Z</time></trkpt>
<trkpt lat="30.087783" lon="97.292722">
<time>2016-10-07T20:29:32Z</time></trkpt>
<trkpt lat="30.087643" lon="97.292652">
<time>2016-10-07T20:29:33Z</time></trkpt>
<trkpt lat="30.087333" lon="97.292542">
<time>2016-10-07T20:29:34Z</time></trkpt>
<trkpt lat="30.087053" lon="97.292422">
<time>2016-10-07T20:29:35Z</time></trkpt>
<trkpt lat="30.086693" lon="97.292233">
<time>2016-10-07T20:29:36Z</time></trkpt>
<trkpt lat="30.086144" lon="97.291933">
<time>2016-10-07T20:29:37Z</time></trkpt>
<trkpt lat="30.085784" lon="97.291734">
<time>2016-10-07T20:29:38Z</time></trkpt>
<trkpt lat="30.085424" lon="97.291524">
<time>2016-10-07T20:29:39Z</time></trkpt>
<trkpt lat="30.085214" lon="97.291404">
<time>2016-10-07T20:29:40Z</time></trkpt>
<trkpt lat="30.085165" lon="97.291374">
<time>2016-10-07T20:29:41Z</time></trkpt>
<trkpt lat="30.085135" lon="97.291334">
<time>2016-10-07T20:29:42Z</time></trkpt>
<trkpt lat="30.085115" lon="97.291285">
<time>2016-10-07T20:29:43Z</time></trkpt>
<trkpt lat="30.085105" lon="97.291235">
<time>2016-10-07T20:29:44Z</time></trkpt>
<trkpt lat="30.085115" lon="97.291205">
<time>2016-10-07T20:29:45Z</time></trkpt>
<trkpt lat="30.085125" lon="97.291165">
<time>2016-10-07T20:29:46Z</time></trkpt>
<trkpt lat="30.085135" lon="97.291145">
<time>2016-10-07T20:29:47Z</time></trkpt>
<trkpt lat="30.085165" lon="97.291125">
<time>2016-10-07T20:29:48Z</time></trkpt>
<trkpt lat="30.085195" lon="97.291105">
<time>2016-10-07T20:29:49Z</time></trkpt>
<trkpt lat="30.085235" lon="97.291105">
<time>2016-10-07T20:29:50Z</time></trkpt>
<trkpt lat="30.085275" lon="97.291115">
<time>2016-10-07T20:29:51Z</time></trkpt>
<trkpt lat="30.085325" lon="97.291135">
<time>2016-10-07T20:29:52Z</time></trkpt>
<trkpt lat="30.085425" lon="97.291205">
<time>2016-10-07T20:29:53Z</time></trkpt>
<trkpt lat="30.085515" lon="97.291275">
<time>2016-10-07T20:29:54Z</time></trkpt>
<trkpt lat="30.085605" lon="97.291324">
<time>2016-10-07T20:29:55Z</time></trkpt>
<trkpt lat="30.085685" lon="97.291354">
<time>2016-10-07T20:29:56Z</time></trkpt>
<trkpt lat="30.085735" lon="97.291364">
<time>2016-10-07T20:29:57Z</time></trkpt>
<trkpt lat="30.085805" lon="97.291364">
<time>2016-10-07T20:29:58Z</time></trkpt>
<trkpt lat="30.085905" lon="97.291344">
<time>2016-10-07T20:29:59Z</time></trkpt>
<trkpt lat="30.086285" lon="97.291245">
<time>2016-10-07T20:30:00Z</time></trkpt>
<trkpt lat="30.086445" lon="97.291215">
<time>2016-10-07T20:30:01Z</time></trkpt>
<trkpt lat="30.086495" lon="97.291195">
<time>2016-10-07T20:30:02Z</time></trkpt>
<trkpt lat="30.086535" lon="97.291175">
<time>2016-10-07T20:30:03Z</time></trkpt>
<trkpt lat="30.086575" lon="97.291135">
<time>2016-10-07T20:30:04Z</time></trkpt>
<trkpt lat="30.086595" lon="97.291085">
<time>2016-10-07T20:30:05Z</time></trkpt>
<trkpt lat="30.086605" lon="97.291045">
<time>2016-10-07T20:30:06Z</time></trkpt>
<trkpt lat="30.086605" lon="97.290995">
<time>2016-10-07T20:30:07Z</time></trkpt>
<trkpt lat="30.086595" lon="97.290955">
<time>2016-10-07T20:30:08Z</time></trkpt>
<trkpt lat="30.086565" lon="97.290925">
<time>2016-10-07T20:30:09Z</time></trkpt>
<trkpt lat="30.086515" lon="97.290875">
<time>2016-10-07T20:30:10Z</time></trkpt>
<trkpt lat="30.086455" lon="97.290845">
<time>2016-10-07T20:30:11Z</time></trkpt>
<trkpt lat="30.086385" lon="97.290815">
<time>2016-10-07T20:30:12Z</time></trkpt>
<trkpt lat="30.086275" lon="97.290785">
<time>2016-10-07T20:30:13Z</time></trkpt>
<trkpt lat="30.086165" lon="97.290755">
<time>2016-10-07T20:30:14Z</time></trkpt>
<trkpt lat="30.086085" lon="97.290716">
<time>2016-10-07T20:30:15Z</time></trkpt>
<trkpt lat="30.085986" lon="97.290656">
<time>2016-10-07T20:30:16Z</time></trkpt>
<trkpt lat="30.085776" lon="97.290506">
<time>2016-10-07T20:30:17Z</time></trkpt>
<trkpt lat="30.085556" lon="97.290326">
<time>2016-10-07T20:30:18Z</time></trkpt>
<trkpt lat="30.085466" lon="97.290256">
<time>2016-10-07T20:30:19Z</time></trkpt>
<trkpt lat="30.085306" lon="97.290097">
<time>2016-10-07T20:30:20Z</time></trkpt>
<trkpt lat="30.085147" lon="97.289917">
<time>2016-10-07T20:30:21Z</time></trkpt>
<trkpt lat="30.084997" lon="97.289727">
<time>2016-10-07T20:30:22Z</time></trkpt>
<trkpt lat="30.084727" lon="97.289368">
<time>2016-10-07T20:30:23Z</time></trkpt>
<trkpt lat="30.084358" lon="97.288849">
<time>2016-10-07T20:30:24Z</time></trkpt>
<trkpt lat="30.084039" lon="97.28841">
<time>2016-10-07T20:30:25Z</time></trkpt>
<trkpt lat="30.083929" lon="97.28828">
<time>2016-10-07T20:30:26Z</time></trkpt>
<trkpt lat="30.083809" lon="97.28818">
<time>2016-10-07T20:30:27Z</time></trkpt>
<trkpt lat="30.083729" lon="97.28813">
<time>2016-10-07T20:30:28Z</time></trkpt>
<trkpt lat="30.083669" lon="97.2881">
<time>2016-10-07T20:30:29Z</time></trkpt>
<trkpt lat="30.083529" lon="97.28805">
<time>2016-10-07T20:30:30Z</time></trkpt>
<trkpt lat="30.083429" lon="97.28801">
<time>2016-10-07T20:30:31Z</time></trkpt>
<trkpt lat="30.083379" lon="97.28799">
<time>2016-10-07T20:30:32Z</time></trkpt>
<trkpt lat="30.083319" lon="97.287941">
<time>2016-10-07T20:30:33Z</time></trkpt>
<trkpt lat="30.083269" lon="97.287901">
<time>2016-10-07T20:30:34Z</time></trkpt>
<trkpt lat="30.083219" lon="97.287861">
<time>2016-10-07T20:30:35Z</time></trkpt>
<trkpt lat="30.083179" lon="97.287791">
<time>2016-10-07T20:30:36Z</time></trkpt>
<trkpt lat="30.08313" lon="97.287711">
<time>2016-10-07T20:30:37Z</time></trkpt>
<trkpt lat="30.08304" lon="97.287551">
<time>2016-10-07T20:30:38Z</time></trkpt>
<trkpt lat="30.08298" lon="97.287441">
<time>2016-10-07T20:30:39Z</time></trkpt>
<trkpt lat="30.08293" lon="97.287332">
<time>2016-10-07T20:30:40Z</time></trkpt>
<trkpt lat="30.0829" lon="97.287232">
<time>2016-10-07T20:30:41Z</time></trkpt>
<trkpt lat="30.08288" lon="97.287152">
<time>2016-10-07T20:30:42Z</time></trkpt>
<trkpt lat="30.08287" lon="97.287052">
<time>2016-10-07T20:30:43Z</time></trkpt>
<trkpt lat="30.082851" lon="97.286882">
<time>2016-10-07T20:30:44Z</time></trkpt>
<trkpt lat="30.082821" lon="97.286733">
<time>2016-10-07T20:30:45Z</time></trkpt>
<trkpt lat="30.082801" lon="97.286623">
<time>2016-10-07T20:30:46Z</time></trkpt>
<trkpt lat="30.082761" lon="97.286513">
<time>2016-10-07T20:30:47Z</time></trkpt>
<trkpt lat="30.082701" lon="97.286383">
<time>2016-10-07T20:30:48Z</time></trkpt>
<trkpt lat="30.082532" lon="97.286084">
<time>2016-10-07T20:30:49Z</time></trkpt>
<trkpt lat="30.082402" lon="97.285834">
<time>2016-10-07T20:30:50Z</time></trkpt>
<trkpt lat="30.082292" lon="97.285635">
<time>2016-10-07T20:30:51Z</time></trkpt>
<trkpt lat="30.082232" lon="97.285545">
<time>2016-10-07T20:30:52Z</time></trkpt>
<trkpt lat="30.082172" lon="97.285465">
<time>2016-10-07T20:30:53Z</time></trkpt>
<trkpt lat="30.082083" lon="97.285355">
<time>2016-10-07T20:30:54Z</time></trkpt>
<trkpt lat="30.081903" lon="97.285155">
<time>2016-10-07T20:30:55Z</time></trkpt>
<trkpt lat="30.081783" lon="97.285036">
<time>2016-10-07T20:30:56Z</time></trkpt>
<trkpt lat="30.081713" lon="97.284956">
<time>2016-10-07T20:30:57Z</time></trkpt>
<trkpt lat="30.081653" lon="97.284876">
<time>2016-10-07T20:30:58Z</time></trkpt>
<trkpt lat="30.081593" lon="97.284776">
<time>2016-10-07T20:30:59Z</time></trkpt>
<trkpt lat="30.081563" lon="97.284736">
<time>2016-10-07T20:31:00Z</time></trkpt>
<trkpt lat="30.081533" lon="97.284686">
<time>2016-10-07T20:31:01Z</time></trkpt>
<trkpt lat="30.081503" lon="97.284656">
<time>2016-10-07T20:31:02Z</time></trkpt>
<trkpt lat="30.081464" lon="97.284616">
<time>2016-10-07T20:31:03Z</time></trkpt>
<trkpt lat="30.081414" lon="97.284576">
<time>2016-10-07T20:31:04Z</time></trkpt>
<trkpt lat="30.081354" lon="97.284536">
<time>2016-10-07T20:31:05Z</time></trkpt>
<trkpt lat="30.081244" lon="97.284476">
<time>2016-10-07T20:31:06Z</time></trkpt>
<trkpt lat="30.081094" lon="97.284397">
<time>2016-10-07T20:31:07Z</time></trkpt>
<trkpt lat="30.080934" lon="97.284327">
<time>2016-10-07T20:31:08Z</time></trkpt>
<trkpt lat="30.080834" lon="97.284267">
<time>2016-10-07T20:31:09Z</time></trkpt>
<trkpt lat="30.080744" lon="97.284207">
<time>2016-10-07T20:31:10Z</time></trkpt>
<trkpt lat="30.080604" lon="97.284107">
<time>2016-10-07T20:31:11Z</time></trkpt>
<trkpt lat="30.080504" lon="97.284027">
<time>2016-10-07T20:31:12Z</time></trkpt>
<trkpt lat="30.080474" lon="97.284007">
<time>2016-10-07T20:31:13Z</time></trkpt>
<trkpt lat="30.080444" lon="97.283997">
<time>2016-10-07T20:31:14Z</time></trkpt>
<trkpt lat="30.080414" lon="97.283987">
<time>2016-10-07T20:31:15Z</time></trkpt>
<trkpt lat="30.080384" lon="97.283977">
<time>2016-10-07T20:31:16Z</time></trkpt>
<trkpt lat="30.080374" lon="97.283987">
<time>2016-10-07T20:31:17Z</time></trkpt>
<trkpt lat="30.080354" lon="97.283987">
<time>2016-10-07T20:31:18Z</time></trkpt>
<trkpt lat="30.080344" lon="97.283997">
<time>2016-10-07T20:31:19Z</time></trkpt>
<trkpt lat="30.080334" lon="97.284007">
<time>2016-10-07T20:31:20Z</time></trkpt>
<trkpt lat="30.080324" lon="97.284017">
<time>2016-10-07T20:31:21Z</time></trkpt>
<trkpt lat="30.080314" lon="97.284037">
<time>2016-10-07T20:31:22Z</time></trkpt>
<trkpt lat="30.080314" lon="97.284047">
<time>2016-10-07T20:31:23Z</time></trkpt>
<trkpt lat="30.080304" lon="97.284067">
<time>2016-10-07T20:31:24Z</time></trkpt>
<trkpt lat="30.080304" lon="97.284087">
<time>2016-10-07T20:31:25Z</time></trkpt>
<trkpt lat="30.080314" lon="97.284107">
<time>2016-10-07T20:31:26Z</time></trkpt>
<trkpt lat="30.080314" lon="97.284127">
<time>2016-10-07T20:31:27Z</time></trkpt>
<trkpt lat="30.080324" lon="97.284147">
<time>2016-10-07T20:31:28Z</time></trkpt>
<trkpt lat="30.080334" lon="97.284167">
<time>2016-10-07T20:31:29Z</time></trkpt>
<trkpt lat="30.080364" lon="97.284197">
<time>2016-10-07T20:31:30Z</time></trkpt>
<trkpt lat="30.080384" lon="97.284227">
<time>2016-10-07T20:31:31Z</time></trkpt>
<trkpt lat="30.080414" lon="97.284247">
<time>2016-10-07T20:31:32Z</time></trkpt>
<trkpt lat="30.080514" lon="97.284307">
<time>2016-10-07T20:31:33Z</time></trkpt>
<trkpt lat="30.080764" lon="97.284457">
<time>2016-10-07T20:31:34Z</time></trkpt>
<trkpt lat="30.080964" lon="97.284576">
<time>2016-10-07T20:31:35Z</time></trkpt>
<trkpt lat="30.081083" lon="97.284656">
<time>2016-10-07T20:31:36Z</time></trkpt>
<trkpt lat="30.081183" lon="97.284736">
<time>2016-10-07T20:31:37Z</time></trkpt>
<trkpt lat="30.081263" lon="97.284826">
<time>2016-10-07T20:31:38Z</time></trkpt>
<trkpt lat="30.081353" lon="97.284966">
<time>2016-10-07T20:31:39Z</time></trkpt>
<trkpt lat="30.081533" lon="97.285245">
<time>2016-10-07T20:31:40Z</time></trkpt>
<trkpt lat="30.081722" lon="97.285515">
<time>2016-10-07T20:31:41Z</time></trkpt>
<trkpt lat="30.081852" lon="97.285734">
<time>2016-10-07T20:31:42Z</time></trkpt>
<trkpt lat="30.081912" lon="97.285824">
<time>2016-10-07T20:31:43Z</time></trkpt>
<trkpt lat="30.081972" lon="97.285954">
<time>2016-10-07T20:31:44Z</time></trkpt>
<trkpt lat="30.082042" lon="97.286134">
<time>2016-10-07T20:31:45Z</time></trkpt>
<trkpt lat="30.082111" lon="97.286303">
<time>2016-10-07T20:31:46Z</time></trkpt>
<trkpt lat="30.082171" lon="97.286483">
<time>2016-10-07T20:31:47Z</time></trkpt>
<trkpt lat="30.082251" lon="97.286673">
<time>2016-10-07T20:31:48Z</time></trkpt>
<trkpt lat="30.082291" lon="97.286783">
<time>2016-10-07T20:31:49Z</time></trkpt>
<trkpt lat="30.082311" lon="97.286852">
<time>2016-10-07T20:31:50Z</time></trkpt>
<trkpt lat="30.082311" lon="97.286882">
<time>2016-10-07T20:31:51Z</time></trkpt>
<trkpt lat="30.082311" lon="97.286922">
<time>2016-10-07T20:31:52Z</time></trkpt>
<trkpt lat="30.082291" lon="97.286962">
<time>2016-10-07T20:31:53Z</time></trkpt>
<trkpt lat="30.08227" lon="97.286992">
<time>2016-10-07T20:31:54Z</time></trkpt>
<trkpt lat="30.08223" lon="97.287012">
<time>2016-10-07T20:31:55Z</time></trkpt>
<trkpt lat="30.08219" lon="97.287012">
<time>2016-10-07T20:31:56Z</time></trkpt>
<trkpt lat="30.08215" lon="97.286992">
<time>2016-10-07T20:31:57Z</time></trkpt>
<trkpt lat="30.082121" lon="97.286962">
<time>2016-10-07T20:31:58Z</time></trkpt>
<trkpt lat="30.082101" lon="97.286922">
<time>2016-10-07T20:31:59Z</time></trkpt>
<trkpt lat="30.082091" lon="97.286852">
<time>2016-10-07T20:32:00Z</time></trkpt>
<trkpt lat="30.082081" lon="97.286803">
<time>2016-10-07T20:32:01Z</time></trkpt>
<trkpt lat="30.082071" lon="97.286653">
<time>2016-10-07T20:32:02Z</time></trkpt>
<trkpt lat="30.082061" lon="97.286543">
<time>2016-10-07T20:32:03Z</time></trkpt>
<trkpt lat="30.082031" lon="97.286433">
<time>2016-10-07T20:32:04Z</time></trkpt>
<trkpt lat="30.081991" lon="97.286303">
<time>2016-10-07T20:32:05Z</time></trkpt>
<trkpt lat="30.081882" lon="97.286104">
<time>2016-10-07T20:32:06Z</time></trkpt>
<trkpt lat="30.081762" lon="97.285914">
<time>2016-10-07T20:32:07Z</time></trkpt>
<trkpt lat="30.081662" lon="97.285784">
<time>2016-10-07T20:32:08Z</time></trkpt>
<trkpt lat="30.081532" lon="97.285625">
<time>2016-10-07T20:32:09Z</time></trkpt>
<trkpt lat="30.081382" lon="97.285455">
<time>2016-10-07T20:32:10Z</time></trkpt>
<trkpt lat="30.081283" lon="97.285355">
<time>2016-10-07T20:32:11Z</time></trkpt>
<trkpt lat="30.081163" lon="97.285235">
<time>2016-10-07T20:32:12Z</time></trkpt>
<trkpt lat="30.081073" lon="97.285155">
<time>2016-10-07T20:32:13Z</time></trkpt>
<trkpt lat="30.080953" lon="97.285075">
<time>2016-10-07T20:32:14Z</time></trkpt>
<trkpt lat="30.080813" lon="97.285006">
<time>2016-10-07T20:32:15Z</time></trkpt>
<trkpt lat="30.080653" lon="97.284926">
<time>2016-10-07T20:32:16Z</time></trkpt>
<trkpt lat="30.080373" lon="97.284806">
<time>2016-10-07T20:32:17Z</time></trkpt>
<trkpt lat="30.080153" lon="97.284706">
<time>2016-10-07T20:32:18Z</time></trkpt>
<trkpt lat="30.080043" lon="97.284646">
<time>2016-10-07T20:32:19Z</time></trkpt>
<trkpt lat="30.079944" lon="97.284586">
<time>2016-10-07T20:32:20Z</time></trkpt>
<trkpt lat="30.079884" lon="97.284516">
<time>2016-10-07T20:32:21Z</time></trkpt>
<trkpt lat="30.079824" lon="97.284437">
<time>2016-10-07T20:32:22Z</time></trkpt>
<trkpt lat="30.079714" lon="97.284237">
<time>2016-10-07T20:32:23Z</time></trkpt>
<trkpt lat="30.079475" lon="97.283748">
<time>2016-10-07T20:32:24Z</time></trkpt>
<trkpt lat="30.079305" lon="97.283408">
<time>2016-10-07T20:32:25Z</time></trkpt>
<trkpt lat="30.079245" lon="97.283288">
<time>2016-10-07T20:32:26Z</time></trkpt>
<trkpt lat="30.079135" lon="97.283069">
<time>2016-10-07T20:32:27Z</time></trkpt>
<trkpt lat="30.079036" lon="97.282889">
<time>2016-10-07T20:32:28Z</time></trkpt>
<trkpt lat="30.078976" lon="97.282779">
<time>2016-10-07T20:32:29Z</time></trkpt>
<trkpt lat="30.078896" lon="97.282649">
<time>2016-10-07T20:32:30Z</time></trkpt>
<trkpt lat="30.078746" lon="97.28249">
<time>2016-10-07T20:32:31Z</time></trkpt>
<trkpt lat="30.078566" lon="97.28228">
<time>2016-10-07T20:32:32Z</time></trkpt>
<trkpt lat="30.078327" lon="97.28201">
<time>2016-10-07T20:32:33Z</time></trkpt>
<trkpt lat="30.078217" lon="97.281881">
<time>2016-10-07T20:32:34Z</time></trkpt>
<trkpt lat="30.078167" lon="97.281801">
<time>2016-10-07T20:32:35Z</time></trkpt>
<trkpt lat="30.078117" lon="97.281701">
<time>2016-10-07T20:32:36Z</time></trkpt>
<trkpt lat="30.078097" lon="97.281591">
<time>2016-10-07T20:32:37Z</time></trkpt>
<trkpt lat="30.078077" lon="97.281441">
<time>2016-10-07T20:32:38Z</time></trkpt>
<trkpt lat="30.078058" lon="97.281222">
<time>2016-10-07T20:32:39Z</time></trkpt>
<trkpt lat="30.078018" lon="97.280772">
<time>2016-10-07T20:32:40Z</time></trkpt>
<trkpt lat="30.077998" lon="97.280523">
<time>2016-10-07T20:32:41Z</time></trkpt>
<trkpt lat="30.077969" lon="97.280283">
<time>2016-10-07T20:32:42Z</time></trkpt>
<trkpt lat="30.077939" lon="97.280113">
<time>2016-10-07T20:32:43Z</time></trkpt>
<trkpt lat="30.077899" lon="97.279974">
<time>2016-10-07T20:32:44Z</time></trkpt>
<trkpt lat="30.077859" lon="97.279844">
<time>2016-10-07T20:32:45Z</time></trkpt>
<trkpt lat="30.077789" lon="97.279614">
<time>2016-10-07T20:32:46Z</time></trkpt>
<trkpt lat="30.077739" lon="97.279434">
<time>2016-10-07T20:32:47Z</time></trkpt>
<trkpt lat="30.0777" lon="97.279305">
<time>2016-10-07T20:32:48Z</time></trkpt>
<trkpt lat="30.07761" lon="97.279025">
<time>2016-10-07T20:32:49Z</time></trkpt>
<trkpt lat="30.07755" lon="97.278765">
<time>2016-10-07T20:32:50Z</time></trkpt>
<trkpt lat="30.077501" lon="97.278486">
<time>2016-10-07T20:32:51Z</time></trkpt>
<trkpt lat="30.077461" lon="97.278246">
<time>2016-10-07T20:32:52Z</time></trkpt>
<trkpt lat="30.077421" lon="97.278086">
<time>2016-10-07T20:32:53Z</time></trkpt>
<trkpt lat="30.077391" lon="97.277996">
<time>2016-10-07T20:32:54Z</time></trkpt>
<trkpt lat="30.077331" lon="97.277847">
<time>2016-10-07T20:32:55Z</time></trkpt>
<trkpt lat="30.077251" lon="97.277697">
<time>2016-10-07T20:32:56Z</time></trkpt>
<trkpt lat="30.077152" lon="97.277497">
<time>2016-10-07T20:32:57Z</time></trkpt>
<trkpt lat="30.077042" lon="97.277277">
<time>2016-10-07T20:32:58Z</time></trkpt>
<trkpt lat="30.076942" lon="97.277048">
<time>2016-10-07T20:32:59Z</time></trkpt>
<trkpt lat="30.076842" lon="97.276808">
<time>2016-10-07T20:33:00Z</time></trkpt>
<trkpt lat="30.076772" lon="97.276598">
<time>2016-10-07T20:33:01Z</time></trkpt>
<trkpt lat="30.076723" lon="97.276469">
<time>2016-10-07T20:33:02Z</time></trkpt>
<trkpt lat="30.076693" lon="97.276359">
<time>2016-10-07T20:33:03Z</time></trkpt>
<trkpt lat="30.076663" lon="97.276249">
<time>2016-10-07T20:33:04Z</time></trkpt>
<trkpt lat="30.076653" lon="97.276169">
<time>2016-10-07T20:33:05Z</time></trkpt>
<trkpt lat="30.076643" lon="97.276049">
<time>2016-10-07T20:33:06Z</time></trkpt>
<trkpt lat="30.076633" lon="97.27562">
<time>2016-10-07T20:33:07Z</time></trkpt>
<trkpt lat="30.076624" lon="97.27548">
<time>2016-10-07T20:33:08Z</time></trkpt>
<trkpt lat="30.076604" lon="97.27539">
<time>2016-10-07T20:33:09Z</time></trkpt>
<trkpt lat="30.076574" lon="97.27532">
<time>2016-10-07T20:33:10Z</time></trkpt>
<trkpt lat="30.076544" lon="97.27526">
<time>2016-10-07T20:33:11Z</time></trkpt>
<trkpt lat="30.076514" lon="97.27521">
<time>2016-10-07T20:33:12Z</time></trkpt>
<trkpt lat="30.076474" lon="97.27514">
<time>2016-10-07T20:33:13Z</time></trkpt>
<trkpt lat="30.076404" lon="97.27505">
<time>2016-10-07T20:33:14Z</time></trkpt>
<trkpt lat="30.076314" lon="97.274941">
<time>2016-10-07T20:33:15Z</time></trkpt>
<trkpt lat="30.076204" lon="97.274811">
<time>2016-10-07T20:33:16Z</time></trkpt>
<trkpt lat="30.076134" lon="97.274711">
<time>2016-10-07T20:33:17Z</time></trkpt>
<trkpt lat="30.076104" lon="97.274651">
<time>2016-10-07T20:33:18Z</time></trkpt>
<trkpt lat="30.076074" lon="97.274581">
<time>2016-10-07T20:33:19Z</time></trkpt>
<trkpt lat="30.076064" lon="97.274501">
<time>2016-10-07T20:33:20Z</time></trkpt>
<trkpt lat="30.076065" lon="97.274411">
<time>2016-10-07T20:33:21Z</time></trkpt>
<trkpt lat="30.076075" lon="97.274311">
<time>2016-10-07T20:33:22Z</time></trkpt>
<trkpt lat="30.076105" lon="97.274092">
<time>2016-10-07T20:33:23Z</time></trkpt>
<trkpt lat="30.076145" lon="97.273722">
<time>2016-10-07T20:33:24Z</time></trkpt>
<trkpt lat="30.076175" lon="97.273393">
<time>2016-10-07T20:33:25Z</time></trkpt>
<trkpt lat="30.076206" lon="97.273023">
<time>2016-10-07T20:33:26Z</time></trkpt>
<trkpt lat="30.076226" lon="97.272564">
<time>2016-10-07T20:33:27Z</time></trkpt>
<trkpt lat="30.076236" lon="97.272414">
<time>2016-10-07T20:33:28Z</time></trkpt>
<trkpt lat="30.076256" lon="97.272284">
<time>2016-10-07T20:33:29Z</time></trkpt>
<trkpt lat="30.076276" lon="97.272174">
<time>2016-10-07T20:33:30Z</time></trkpt>
<trkpt lat="30.076307" lon="97.272104">
<time>2016-10-07T20:33:31Z</time></trkpt>
<trkpt lat="30.076347" lon="97.272034">
<time>2016-10-07T20:33:32Z</time></trkpt>
<trkpt lat="30.076397" lon="97.271984">
<time>2016-10-07T20:33:33Z</time></trkpt>
<trkpt lat="30.076487" lon="97.271924">
<time>2016-10-07T20:33:34Z</time></trkpt>
<trkpt lat="30.076607" lon="97.271824">
<time>2016-10-07T20:33:35Z</time></trkpt>
<trkpt lat="30.076657" lon="97.271755">
<time>2016-10-07T20:33:36Z</time></trkpt>
<trkpt lat="30.076697" lon="97.271695">
<time>2016-10-07T20:33:37Z</time></trkpt>
<trkpt lat="30.076717" lon="97.271625">
<time>2016-10-07T20:33:38Z</time></trkpt>
<trkpt lat="30.076727" lon="97.271545">
<time>2016-10-07T20:33:39Z</time></trkpt>
<trkpt lat="30.076737" lon="97.271445">
<time>2016-10-07T20:33:40Z</time></trkpt>
<trkpt lat="30.076727" lon="97.271295">
<time>2016-10-07T20:33:41Z</time></trkpt>
<trkpt lat="30.076717" lon="97.271095">
<time>2016-10-07T20:33:42Z</time></trkpt>
<trkpt lat="30.076717" lon="97.270975">
<time>2016-10-07T20:33:43Z</time></trkpt>
<trkpt lat="30.076738" lon="97.270886">
<time>2016-10-07T20:33:44Z</time></trkpt>
<trkpt lat="30.076768" lon="97.270786">
<time>2016-10-07T20:33:45Z</time></trkpt>
<trkpt lat="30.076868" lon="97.270536">
<time>2016-10-07T20:33:46Z</time></trkpt>
<trkpt lat="30.076968" lon="97.270316">
<time>2016-10-07T20:33:47Z</time></trkpt>
<trkpt lat="30.077048" lon="97.270156">
<time>2016-10-07T20:33:48Z</time></trkpt>
<trkpt lat="30.077088" lon="97.270096">
<time>2016-10-07T20:33:49Z</time></trkpt>
<trkpt lat="30.077158" lon="97.270026">
<time>2016-10-07T20:33:50Z</time></trkpt>
<trkpt lat="30.077218" lon="97.269987">
<time>2016-10-07T20:33:51Z</time></trkpt>
<trkpt lat="30.077288" lon="97.269947">
<time>2016-10-07T20:33:52Z</time></trkpt>
<trkpt lat="30.077398" lon="97.269917">
<time>2016-10-07T20:33:53Z</time></trkpt>
<trkpt lat="30.077518" lon="97.269887">
<time>2016-10-07T20:33:54Z</time></trkpt>
<trkpt lat="30.077638" lon="97.269867">
<time>2016-10-07T20:33:55Z</time></trkpt>
<trkpt lat="30.077708" lon="97.269837">
<time>2016-10-07T20:33:56Z</time></trkpt>
<trkpt lat="30.077778" lon="97.269787">
<time>2016-10-07T20:33:57Z</time></trkpt>
<trkpt lat="30.077828" lon="97.269747">
<time>2016-10-07T20:33:58Z</time></trkpt>
<trkpt lat="30.077869" lon="97.269687">
<time>2016-10-07T20:33:59Z</time></trkpt>
<trkpt lat="30.077909" lon="97.269597">
<time>2016-10-07T20:34:00Z</time></trkpt>
<trkpt lat="30.077929" lon="97.269507">
<time>2016-10-07T20:34:01Z</time></trkpt>
<trkpt lat="30.077939" lon="97.269417">
<time>2016-10-07T20:34:02Z</time></trkpt>
<trkpt lat="30.077949" lon="97.269207">
<time>2016-10-07T20:34:03Z</time></trkpt>
<trkpt lat="30.077959" lon="97.268648">
<time>2016-10-07T20:34:04Z</time></trkpt>
<trkpt lat="30.077979" lon="97.268498">
<time>2016-10-07T20:34:05Z</time></trkpt>
<trkpt lat="30.077999" lon="97.268348">
<time>2016-10-07T20:34:06Z</time></trkpt>
<trkpt lat="30.07803" lon="97.268168">
<time>2016-10-07T20:34:07Z</time></trkpt>
<trkpt lat="30.07807" lon="97.267969">
<time>2016-10-07T20:34:08Z</time></trkpt>
<trkpt lat="30.07808" lon="97.267889">
<time>2016-10-07T20:34:09Z</time></trkpt>
<trkpt lat="30.07809" lon="97.267809">
<time>2016-10-07T20:34:10Z</time></trkpt>
<trkpt lat="30.07808" lon="97.267729">
<time>2016-10-07T20:34:11Z</time></trkpt>
<trkpt lat="30.07806" lon="97.267649">
<time>2016-10-07T20:34:12Z</time></trkpt>
<trkpt lat="30.07803" lon="97.267549">
<time>2016-10-07T20:34:13Z</time></trkpt>
<trkpt lat="30.07799" lon="97.267429">
<time>2016-10-07T20:34:14Z</time></trkpt>
<trkpt lat="30.07797" lon="97.267339">
<time>2016-10-07T20:34:15Z</time></trkpt>
<trkpt lat="30.07796" lon="97.267269">
<time>2016-10-07T20:34:16Z</time></trkpt>
<trkpt lat="30.07795" lon="97.267209">
<time>2016-10-07T20:34:17Z</time></trkpt>
<trkpt lat="30.07796" lon="97.26713">
<time>2016-10-07T20:34:18Z</time></trkpt>
<trkpt lat="30.07797" lon="97.26704">
<time>2016-10-07T20:34:19Z</time></trkpt>
<trkpt lat="30.07802" lon="97.26694">
<time>2016-10-07T20:34:20Z</time></trkpt>
<trkpt lat="30.078081" lon="97.26681">
<time>2016-10-07T20:34:21Z</time></trkpt>
<trkpt lat="30.078251" lon="97.26647">
<time>2016-10-07T20:34:22Z</time></trkpt>
<trkpt lat="30.078341" lon="97.2663">
<time>2016-10-07T20:34:23Z</time></trkpt>
<trkpt lat="30.078431" lon="97.26618">
<time>2016-10-07T20:34:24Z</time></trkpt>
<trkpt lat="30.078601" lon="97.266001">
<time>2016-10-07T20:34:25Z</time></trkpt>
<trkpt lat="30.078781" lon="97.265811">
<time>2016-10-07T20:34:26Z</time></trkpt>
<trkpt lat="30.079191" lon="97.265371">
<time>2016-10-07T20:34:27Z</time></trkpt>
<trkpt lat="30.079432" lon="97.265101">
<time>2016-10-07T20:34:28Z</time></trkpt>
<trkpt lat="30.079602" lon="97.264922">
<time>2016-10-07T20:34:29Z</time></trkpt>
<trkpt lat="30.079702" lon="97.264812">
<time>2016-10-07T20:34:30Z</time></trkpt>
<trkpt lat="30.079782" lon="97.264702">
<time>2016-10-07T20:34:31Z</time></trkpt>
<trkpt lat="30.079812" lon="97.264652">
<time>2016-10-07T20:34:32Z</time></trkpt>
<trkpt lat="30.079822" lon="97.264622">
<time>2016-10-07T20:34:33Z</time></trkpt>
<trkpt lat="30.079822" lon="97.264592">
<time>2016-10-07T20:34:34Z</time></trkpt>
<trkpt lat="30.079822" lon="97.264562">
<time>2016-10-07T20:34:35Z</time></trkpt>
<trkpt lat="30.079812" lon="97.264532">
<time>2016-10-07T20:34:36Z</time></trkpt>
<trkpt lat="30.079792" lon="97.264492">
<time>2016-10-07T20:34:37Z</time></trkpt>
<trkpt lat="30.079752" lon="97.264472">
<time>2016-10-07T20:34:38Z</time></trkpt>
<trkpt lat="30.079722" lon="97.264462">
<time>2016-10-07T20:34:39Z</time></trkpt>
<trkpt lat="30.079702" lon="97.264452">
<time>2016-10-07T20:34:40Z</time></trkpt>
<trkpt lat="30.079672" lon="97.264452">
<time>2016-10-07T20:34:41Z</time></trkpt>
<trkpt lat="30.079652" lon="97.264462">
<time>2016-10-07T20:34:42Z</time></trkpt>
<trkpt lat="30.079622" lon="97.264482">
<time>2016-10-07T20:34:43Z</time></trkpt>
<trkpt lat="30.079592" lon="97.264502">
<time>2016-10-07T20:34:44Z</time></trkpt>
<trkpt lat="30.079512" lon="97.264582">
<time>2016-10-07T20:34:45Z</time></trkpt>
<trkpt lat="30.079372" lon="97.264752">
<time>2016-10-07T20:34:46Z</time></trkpt>
<trkpt lat="30.079082" lon="97.265111">
<time>2016-10-07T20:34:47Z</time></trkpt>
<trkpt lat="30.078871" lon="97.265391">
<time>2016-10-07T20:34:48Z</time></trkpt>
<trkpt lat="30.078811" lon="97.265461">
<time>2016-10-07T20:34:49Z</time></trkpt>
<trkpt lat="30.078751" lon="97.265521">
<time>2016-10-07T20:34:50Z</time></trkpt>
<trkpt lat="30.078731" lon="97.265531">
<time>2016-10-07T20:34:51Z</time></trkpt>
<trkpt lat="30.078701" lon="97.265551">
<time>2016-10-07T20:34:52Z</time></trkpt>
<trkpt lat="30.078681" lon="97.265561">
<time>2016-10-07T20:34:53Z</time></trkpt>
<trkpt lat="30.078661" lon="97.265561">
<time>2016-10-07T20:34:54Z</time></trkpt>
<trkpt lat="30.078641" lon="97.265561">
<time>2016-10-07T20:34:55Z</time></trkpt>
<trkpt lat="30.078621" lon="97.265561">
<time>2016-10-07T20:34:56Z</time></trkpt>
<trkpt lat="30.078601" lon="97.265561">
<time>2016-10-07T20:34:57Z</time></trkpt>
<trkpt lat="30.078591" lon="97.265551">
<time>2016-10-07T20:34:58Z</time></trkpt>
<trkpt lat="30.078581" lon="97.265541">
<time>2016-10-07T20:34:59Z</time></trkpt>
<trkpt lat="30.078561" lon="97.265531">
<time>2016-10-07T20:35:00Z</time></trkpt>
<trkpt lat="30.078551" lon="97.265521">
<time>2016-10-07T20:35:01Z</time></trkpt>
<trkpt lat="30.078541" lon="97.265501">
<time>2016-10-07T20:35:02Z</time></trkpt>
<trkpt lat="30.078531" lon="97.265481">
<time>2016-10-07T20:35:03Z</time></trkpt>
<trkpt lat="30.078531" lon="97.265461">
<time>2016-10-07T20:35:04Z</time></trkpt>
<trkpt lat="30.078531" lon="97.265441">
<time>2016-10-07T20:35:05Z</time></trkpt>
<trkpt lat="30.078531" lon="97.265421">
<time>2016-10-07T20:35:06Z</time></trkpt>
<trkpt lat="30.078531" lon="97.265401">
<time>2016-10-07T20:35:07Z</time></trkpt>
<trkpt lat="30.078531" lon="97.265371">
<time>2016-10-07T20:35:08Z</time></trkpt>
<trkpt lat="30.078541" lon="97.265351">
<time>2016-10-07T20:35:09Z</time></trkpt>
<trkpt lat="30.078551" lon="97.265321">
<time>2016-10-07T20:35:10Z</time></trkpt>
<trkpt lat="30.078592" lon="97.265271">
<time>2016-10-07T20:35:11Z</time></trkpt>
<trkpt lat="30.078622" lon="97.265241">
<time>2016-10-07T20:35:12Z</time></trkpt>
<trkpt lat="30.078672" lon="97.265201">
<time>2016-10-07T20:35:13Z</time></trkpt>
<trkpt lat="30.078812" lon="97.265101">
<time>2016-10-07T20:35:14Z</time></trkpt>
<trkpt lat="30.078912" lon="97.265012">
<time>2016-10-07T20:35:15Z</time></trkpt>
<trkpt lat="30.078992" lon="97.264922">
<time>2016-10-07T20:35:16Z</time></trkpt>
<trkpt lat="30.079032" lon="97.264882">
<time>2016-10-07T20:35:17Z</time></trkpt>
<trkpt lat="30.079072" lon="97.264832">
<time>2016-10-07T20:35:18Z</time></trkpt>
<trkpt lat="30.079102" lon="97.264782">
<time>2016-10-07T20:35:19Z</time></trkpt>
<trkpt lat="30.079132" lon="97.264722">
<time>2016-10-07T20:35:20Z</time></trkpt>
<trkpt lat="30.079192" lon="97.264582">
<time>2016-10-07T20:35:21Z</time></trkpt>
<trkpt lat="30.079252" lon="97.264432">
<time>2016-10-07T20:35:22Z</time></trkpt>
<trkpt lat="30.079302" lon="97.264342">
<time>2016-10-07T20:35:23Z</time></trkpt>
<trkpt lat="30.079342" lon="97.264292">
<time>2016-10-07T20:35:24Z</time></trkpt>
<trkpt lat="30.079392" lon="97.264242">
<time>2016-10-07T20:35:25Z</time></trkpt>
<trkpt lat="30.079442" lon="97.264182">
<time>2016-10-07T20:35:26Z</time></trkpt>
<trkpt lat="30.079542" lon="97.264112">
<time>2016-10-07T20:35:27Z</time></trkpt>
<trkpt lat="30.079672" lon="97.264022">
<time>2016-10-07T20:35:28Z</time></trkpt>
<trkpt lat="30.079732" lon="97.263972">
<time>2016-10-07T20:35:29Z</time></trkpt>
<trkpt lat="30.079782" lon="97.263922">
<time>2016-10-07T20:35:30Z</time></trkpt>
<trkpt lat="30.079832" lon="97.263853">
<time>2016-10-07T20:35:31Z</time></trkpt>
<trkpt lat="30.079892" lon="97.263763">
<time>2016-10-07T20:35:32Z</time></trkpt>
<trkpt lat="30.079942" lon="97.263653">
<time>2016-10-07T20:35:33Z</time></trkpt>
<trkpt lat="30.080003" lon="97.263513">
<time>2016-10-07T20:35:34Z</time></trkpt>
<trkpt lat="30.080063" lon="97.263373">
<time>2016-10-07T20:35:35Z</time></trkpt>
<trkpt lat="30.080113" lon="97.263273">
<time>2016-10-07T20:35:36Z</time></trkpt>
<trkpt lat="30.080183" lon="97.263173">
<time>2016-10-07T20:35:37Z</time></trkpt>
<trkpt lat="30.080293" lon="97.263043">
<time>2016-10-07T20:35:38Z</time></trkpt>
<trkpt lat="30.080403" lon="97.262913">
<time>2016-10-07T20:35:39Z</time></trkpt>
<trkpt lat="30.080513" lon="97.262783">
<time>2016-10-07T20:35:40Z</time></trkpt>
<trkpt lat="30.080703" lon="97.262564">
<time>2016-10-07T20:35:41Z</time></trkpt>
<trkpt lat="30.080803" lon="97.262454">
<time>2016-10-07T20:35:42Z</time></trkpt>
<trkpt lat="30.080883" lon="97.262374">
<time>2016-10-07T20:35:43Z</time></trkpt>
<trkpt lat="30.081033" lon="97.262264">
<time>2016-10-07T20:35:44Z</time></trkpt>
<trkpt lat="30.081143" lon="97.262174">
<time>2016-10-07T20:35:45Z</time></trkpt>
<trkpt lat="30.081233" lon="97.262074">
<time>2016-10-07T20:35:46Z</time></trkpt>
<trkpt lat="30.081303" lon="97.261964">
<time>2016-10-07T20:35:47Z</time></trkpt>
<trkpt lat="30.081393" lon="97.261824">
<time>2016-10-07T20:35:48Z</time></trkpt>
<trkpt lat="30.081504" lon="97.261614">
<time>2016-10-07T20:35:49Z</time></trkpt>
<trkpt lat="30.081634" lon="97.261374">
<time>2016-10-07T20:35:50Z</time></trkpt>
<trkpt lat="30.081754" lon="97.261155">
<time>2016-10-07T20:35:51Z</time></trkpt>
<trkpt lat="30.081804" lon="97.261065">
<time>2016-10-07T20:35:52Z</time></trkpt>
<trkpt lat="30.081864" lon="97.260985">
<time>2016-10-07T20:35:53Z</time></trkpt>
<trkpt lat="30.081924" lon="97.260905">
<time>2016-10-07T20:35:54Z</time></trkpt>
<trkpt lat="30.081974" lon="97.260845">
<time>2016-10-07T20:35:55Z</time></trkpt>
<trkpt lat="30.082024" lon="97.260795">
<time>2016-10-07T20:35:56Z</time></trkpt>
<trkpt lat="30.082124" lon="97.260715">
<time>2016-10-07T20:35:57Z</time></trkpt>
<trkpt lat="30.082214" lon="97.260655">
<time>2016-10-07T20:35:58Z</time></trkpt>
<trkpt lat="30.082334" lon="97.260575">
<time>2016-10-07T20:35:59Z</time></trkpt>
<trkpt lat="30.082434" lon="97.260505">
<time>2016-10-07T20:36:00Z</time></trkpt>
<trkpt lat="30.082534" lon="97.260415">
<time>2016-10-07T20:36:01Z</time></trkpt>
<trkpt lat="30.082584" lon="97.260335">
<time>2016-10-07T20:36:02Z</time></trkpt>
<trkpt lat="30.082634" lon="97.260275">
<time>2016-10-07T20:36:03Z</time></trkpt>
<trkpt lat="30.082694" lon="97.260175">
<time>2016-10-07T20:36:04Z</time></trkpt>
<trkpt lat="30.082794" lon="97.260005">
<time>2016-10-07T20:36:05Z</time></trkpt>
<trkpt lat="30.082864" lon="97.259876">
<time>2016-10-07T20:36:06Z</time></trkpt>
<trkpt lat="30.082944" lon="97.259766">
<time>2016-10-07T20:36:07Z</time></trkpt>
<trkpt lat="30.083014" lon="97.259686">
<time>2016-10-07T20:36:08Z</time></trkpt>
<trkpt lat="30.083084" lon="97.259626">
<time>2016-10-07T20:36:09Z</time></trkpt>
<trkpt lat="30.083174" lon="97.259566">
<time>2016-10-07T20:36:10Z</time></trkpt>
<trkpt lat="30.083284" lon="97.259516">
<time>2016-10-07T20:36:11Z</time></trkpt>
<trkpt lat="30.083374" lon="97.259476">
<time>2016-10-07T20:36:12Z</time></trkpt>
<trkpt lat="30.083464" lon="97.259436">
<time>2016-10-07T20:36:13Z</time></trkpt>
<trkpt lat="30.083534" lon="97.259396">
<time>2016-10-07T20:36:14Z</time></trkpt>
<trkpt lat="30.083594" lon="97.259346">
<time>2016-10-07T20:36:15Z</time></trkpt>
<trkpt lat="30.083655" lon="97.259286">
<time>2016-10-07T20:36:16Z</time></trkpt>
<trkpt lat="30.083705" lon="97.259216">
<time>2016-10-07T20:36:17Z</time></trkpt>
<trkpt lat="30.083795" lon="97.259096">
<time>2016-10-07T20:36:18Z</time></trkpt>
<trkpt lat="30.083865" lon="97.258986">
<time>2016-10-07T20:36:19Z</time></trkpt>
<trkpt lat="30.083915" lon="97.258926">
<time>2016-10-07T20:36:20Z</time></trkpt>
<trkpt lat="30.083945" lon="97.258886">
<time>2016-10-07T20:36:21Z</time></trkpt>
<trkpt lat="30.084045" lon="97.258796">
<time>2016-10-07T20:36:22Z</time></trkpt>
<trkpt lat="30.084195" lon="97.258676">
<time>2016-10-07T20:36:23Z</time></trkpt>
<trkpt lat="30.084345" lon="97.258556">
<time>2016-10-07T20:36:24Z</time></trkpt>
<trkpt lat="30.084415" lon="97.258456">
<time>2016-10-07T20:36:25Z</time></trkpt>
<trkpt lat="30.084515" lon="97.258227">
<time>2016-10-07T20:36:26Z</time></trkpt>
<trkpt lat="30.084555" lon="97.257967">
<time>2016-10-07T20:36:27Z</time></trkpt>
<trkpt lat="30.084575" lon="97.257747">
<time>2016-10-07T20:36:28Z</time></trkpt>
<trkpt lat="30.084565" lon="97.257577">
<time>2016-10-07T20:36:29Z</time></trkpt>
<trkpt lat="30.084545" lon="97.257457">
<time>2016-10-07T20:36:30Z</time></trkpt>
<trkpt lat="30.084505" lon="97.257317">
<time>2016-10-07T20:36:31Z</time></trkpt>
<trkpt lat="30.084445" lon="97.257147">
<time>2016-10-07T20:36:32Z</time></trkpt>
<trkpt lat="30.084355" lon="97.256937">
<time>2016-10-07T20:36:33Z</time></trkpt>
<trkpt lat="30.084295" lon="97.256787">
<time>2016-10-07T20:36:34Z</time></trkpt>
<trkpt lat="30.084245" lon="97.256638">
<time>2016-10-07T20:36:35Z</time></trkpt>
<trkpt lat="30.084215" lon="97.256498">
<time>2016-10-07T20:36:36Z</time></trkpt>
<trkpt lat="30.084205" lon="97.256318">
<time>2016-10-07T20:36:37Z</time></trkpt>
<trkpt lat="30.084226" lon="97.256128">
<time>2016-10-07T20:36:38Z</time></trkpt>
<trkpt lat="30.084256" lon="97.255848">
<time>2016-10-07T20:36:39Z</time></trkpt>
<trkpt lat="30.084296" lon="97.255448">
<time>2016-10-07T20:36:40Z</time></trkpt>
<trkpt lat="30.084346" lon="97.255018">
<time>2016-10-07T20:36:41Z</time></trkpt>
<trkpt lat="30.084406" lon="97.254719">
<time>2016-10-07T20:36:42Z</time></trkpt>
<trkpt lat="30.084456" lon="97.254499">
<time>2016-10-07T20:36:43Z</time></trkpt>
<trkpt lat="30.084566" lon="97.254229">
<time>2016-10-07T20:36:44Z</time></trkpt>
<trkpt lat="30.084706" lon="97.253879">
<time>2016-10-07T20:36:45Z</time></trkpt>
<trkpt lat="30.084796" lon="97.253659">
<time>2016-10-07T20:36:46Z</time></trkpt>
<trkpt lat="30.084856" lon="97.253509">
<time>2016-10-07T20:36:47Z</time></trkpt>
<trkpt lat="30.084886" lon="97.253379">
<time>2016-10-07T20:36:48Z</time></trkpt>
<trkpt lat="30.084896" lon="97.253239">
<time>2016-10-07T20:36:49Z</time></trkpt>
<trkpt lat="30.084896" lon="97.253089">
<time>2016-10-07T20:36:50Z</time></trkpt>
<trkpt lat="30.084876" lon="97.252949">
<time>2016-10-07T20:36:51Z</time></trkpt>
<trkpt lat="30.084826" lon="97.252639">
<time>2016-10-07T20:36:52Z</time></trkpt>
<trkpt lat="30.084786" lon="97.25241">
<time>2016-10-07T20:36:53Z</time></trkpt>
<trkpt lat="30.084756" lon="97.25226">
<time>2016-10-07T20:36:54Z</time></trkpt>
<trkpt lat="30.084716" lon="97.25209">
<time>2016-10-07T20:36:55Z</time></trkpt>
<trkpt lat="30.084666" lon="97.25196">
<time>2016-10-07T20:36:56Z</time></trkpt>
<trkpt lat="30.084556" lon="97.25175">
<time>2016-10-07T20:36:57Z</time></trkpt>
<trkpt lat="30.084486" lon="97.25162">
<time>2016-10-07T20:36:58Z</time></trkpt>
<trkpt lat="30.084426" lon="97.25149">
<time>2016-10-07T20:36:59Z</time></trkpt>
<trkpt lat="30.084356" lon="97.25134">
<time>2016-10-07T20:37:00Z</time></trkpt>
<trkpt lat="30.084296" lon="97.2512">
<time>2016-10-07T20:37:01Z</time></trkpt>
<trkpt lat="30.084226" lon="97.25107">
<time>2016-10-07T20:37:02Z</time></trkpt>
<trkpt lat="30.084146" lon="97.25091">
<time>2016-10-07T20:37:03Z</time></trkpt>
<trkpt lat="30.084086" lon="97.25077">
<time>2016-10-07T20:37:04Z</time></trkpt>
<trkpt lat="30.084046" lon="97.25066">
<time>2016-10-07T20:37:05Z</time></trkpt>
<trkpt lat="30.084016" lon="97.25054">
<time>2016-10-07T20:37:06Z</time></trkpt>
<trkpt lat="30.083996" lon="97.25043">
<time>2016-10-07T20:37:07Z</time></trkpt>
<trkpt lat="30.083986" lon="97.25015">
<time>2016-10-07T20:37:08Z</time></trkpt>
<trkpt lat="30.083986" lon="97.25005">
<time>2016-10-07T20:37:09Z</time></trkpt>
<trkpt lat="30.084006" lon="97.248531">
<time>2016-10-07T20:37:10Z</time></trkpt>
<trkpt lat="30.084006" lon="97.248331">
<time>2016-10-07T20:37:11Z</time></trkpt>
<trkpt lat="30.084036" lon="97.248101">
<time>2016-10-07T20:37:12Z</time></trkpt>
<trkpt lat="30.084066" lon="97.247871">
<time>2016-10-07T20:37:13Z</time></trkpt>
<trkpt lat="30.084116" lon="97.247581">
<time>2016-10-07T20:37:14Z</time></trkpt>
<trkpt lat="30.084166" lon="97.247311">
<time>2016-10-07T20:37:15Z</time></trkpt>
<trkpt lat="30.084336" lon="97.246371">
<time>2016-10-07T20:37:16Z</time></trkpt>
<trkpt lat="30.084406" lon="97.245961">
<time>2016-10-07T20:37:17Z</time></trkpt>
<trkpt lat="30.084466" lon="97.245691">
<time>2016-10-07T20:37:18Z</time></trkpt>
<trkpt lat="30.084526" lon="97.245431">
<time>2016-10-07T20:37:19Z</time></trkpt>
<trkpt lat="30.084626" lon="97.245071">
<time>2016-10-07T20:37:20Z</time></trkpt>
<trkpt lat="30.084756" lon="97.244581">
<time>2016-10-07T20:37:21Z</time></trkpt>
<trkpt lat="30.084856" lon="97.244171">
<time>2016-10-07T20:37:22Z</time></trkpt>
<trkpt lat="30.084926" lon="97.243911">
<time>2016-10-07T20:37:23Z</time></trkpt>
<trkpt lat="30.084956" lon="97.243821">
<time>2016-10-07T20:37:24Z</time></trkpt>
<trkpt lat="30.084966" lon="97.243761">
<time>2016-10-07T20:37:25Z</time></trkpt>
<trkpt lat="30.084966" lon="97.243711">
<time>2016-10-07T20:37:26Z</time></trkpt>
<trkpt lat="30.084966" lon="97.243671">
<time>2016-10-07T20:37:27Z</time></trkpt>
<trkpt lat="30.084956" lon="97.243631">
<time>2016-10-07T20:37:28Z</time></trkpt>
<trkpt lat="30.084946" lon="97.243601">
<time>2016-10-07T20:37:29Z</time></trkpt>
<trkpt lat="30.084936" lon="97.243561">
<time>2016-10-07T20:37:30Z</time></trkpt>
<trkpt lat="30.084916" lon="97.243531">
<time>2016-10-07T20:37:31Z</time></trkpt>
<trkpt lat="30.084896" lon="97.243511">
<time>2016-10-07T20:37:32Z</time></trkpt>
<trkpt lat="30.084876" lon="97.243491">
<time>2016-10-07T20:37:33Z</time></trkpt>
<trkpt lat="30.084856" lon="97.243471">
<time>2016-10-07T20:37:34Z</time></trkpt>
<trkpt lat="30.084836" lon="97.243461">
<time>2016-10-07T20:37:35Z</time></trkpt>
<trkpt lat="30.084816" lon="97.243461">
<time>2016-10-07T20:37:36Z</time></trkpt>
<trkpt lat="30.084786" lon="97.243451">
<time>2016-10-07T20:37:37Z</time></trkpt>
<trkpt lat="30.084746" lon="97.243461">
<time>2016-10-07T20:37:38Z</time></trkpt>
<trkpt lat="30.084706" lon="97.243481">
<time>2016-10-07T20:37:39Z</time></trkpt>
<trkpt lat="30.084676" lon="97.243501">
<time>2016-10-07T20:37:40Z</time></trkpt>
<trkpt lat="30.084656" lon="97.243531">
<time>2016-10-07T20:37:41Z</time></trkpt>
<trkpt lat="30.084626" lon="97.243571">
<time>2016-10-07T20:37:42Z</time></trkpt>
<trkpt lat="30.084606" lon="97.243621">
<time>2016-10-07T20:37:43Z</time></trkpt>
<trkpt lat="30.084596" lon="97.243711">
<time>2016-10-07T20:37:44Z</time></trkpt>
<trkpt lat="30.084576" lon="97.243841">
<time>2016-10-07T20:37:45Z</time></trkpt>
<trkpt lat="30.084556" lon="97.243961">
<time>2016-10-07T20:37:46Z</time></trkpt>
<trkpt lat="30.084516" lon="97.244151">
<time>2016-10-07T20:37:47Z</time></trkpt>
<trkpt lat="30.084476" lon="97.244361">
<time>2016-10-07T20:37:48Z</time></trkpt>
<trkpt lat="30.084436" lon="97.244541">
<time>2016-10-07T20:37:49Z</time></trkpt>
<trkpt lat="30.084386" lon="97.244671">
<time>2016-10-07T20:37:50Z</time></trkpt>
<trkpt lat="30.084326" lon="97.244801">
<time>2016-10-07T20:37:51Z</time></trkpt>
<trkpt lat="30.084246" lon="97.244951">
<time>2016-10-07T20:37:52Z</time></trkpt>
<trkpt lat="30.084166" lon="97.245071">
<time>2016-10-07T20:37:53Z</time></trkpt>
<trkpt lat="30.084056" lon="97.245221">
<time>2016-10-07T20:37:54Z</time></trkpt>
<trkpt lat="30.083986" lon="97.245311">
<time>2016-10-07T20:37:55Z</time></trkpt>
<trkpt lat="30.083916" lon="97.245371">
<time>2016-10-07T20:37:56Z</time></trkpt>
<trkpt lat="30.083856" lon="97.245411">
<time>2016-10-07T20:37:57Z</time></trkpt>
<trkpt lat="30.083786" lon="97.245461">
<time>2016-10-07T20:37:58Z</time></trkpt>
<trkpt lat="30.083716" lon="97.245481">
<time>2016-10-07T20:37:59Z</time></trkpt>
<trkpt lat="30.083616" lon="97.245521">
<time>2016-10-07T20:38:00Z</time></trkpt>
<trkpt lat="30.083496" lon="97.245551">
<time>2016-10-07T20:38:01Z</time></trkpt>
<trkpt lat="30.083376" lon="97.245571">
<time>2016-10-07T20:38:02Z</time></trkpt>
<trkpt lat="30.083206" lon="97.245611">
<time>2016-10-07T20:38:03Z</time></trkpt>
<trkpt lat="30.083006" lon="97.245661">
<time>2016-10-07T20:38:04Z</time></trkpt>
<trkpt lat="30.082796" lon="97.245711">
<time>2016-10-07T20:38:05Z</time></trkpt>
<trkpt lat="30.082676" lon="97.245731">
<time>2016-10-07T20:38:06Z</time></trkpt>
<trkpt lat="30.082636" lon="97.245731">
<time>2016-10-07T20:38:07Z</time></trkpt>
<trkpt lat="30.082606" lon="97.245731">
<time>2016-10-07T20:38:08Z</time></trkpt>
<trkpt lat="30.082576" lon="97.245731">
<time>2016-10-07T20:38:09Z</time></trkpt>
<trkpt lat="30.082546" lon="97.245721">
<time>2016-10-07T20:38:10Z</time></trkpt>
<trkpt lat="30.082516" lon="97.245701">
<time>2016-10-07T20:38:11Z</time></trkpt>
<trkpt lat="30.082486" lon="97.245681">
<time>2016-10-07T20:38:12Z</time></trkpt>
<trkpt lat="30.082456" lon="97.245651">
<time>2016-10-07T20:38:13Z</time></trkpt>
<trkpt lat="30.082436" lon="97.245621">
<time>2016-10-07T20:38:14Z</time></trkpt>
<trkpt lat="30.082416" lon="97.245591">
<time>2016-10-07T20:38:15Z</time></trkpt>
<trkpt lat="30.082406" lon="97.245561">
<time>2016-10-07T20:38:16Z</time></trkpt>
<trkpt lat="30.082396" lon="97.245531">
<time>2016-10-07T20:38:17Z</time></trkpt>
<trkpt lat="30.082386" lon="97.245501">
<time>2016-10-07T20:38:18Z</time></trkpt>
<trkpt lat="30.082386" lon="97.245471">
<time>2016-10-07T20:38:19Z</time></trkpt>
<trkpt lat="30.082386" lon="97.245431">
<time>2016-10-07T20:38:20Z</time></trkpt>
<trkpt lat="30.082396" lon="97.245391">
<time>2016-10-07T20:38:21Z</time></trkpt>
<trkpt lat="30.082406" lon="97.245361">
<time>2016-10-07T20:38:22Z</time></trkpt>
<trkpt lat="30.082416" lon="97.245341">
<time>2016-10-07T20:38:23Z</time></trkpt>
<trkpt lat="30.082426" lon="97.245291">
<time>2016-10-07T20:38:24Z</time></trkpt>
<trkpt lat="30.082476" lon="97.245211">
<time>2016-10-07T20:38:25Z</time></trkpt>
<trkpt lat="30.082546" lon="97.245071">
<time>2016-10-07T20:38:26Z</time></trkpt>
<trkpt lat="30.082596" lon="97.244971">
<time>2016-10-07T20:38:27Z</time></trkpt>
<trkpt lat="30.082636" lon="97.244901">
<time>2016-10-07T20:38:28Z</time></trkpt>
<trkpt lat="30.082656" lon="97.244831">
<time>2016-10-07T20:38:29Z</time></trkpt>
<trkpt lat="30.082686" lon="97.244761">
<time>2016-10-07T20:38:30Z</time></trkpt>
<trkpt lat="30.082716" lon="97.244681">
<time>2016-10-07T20:38:31Z</time></trkpt>
<trkpt lat="30.082756" lon="97.244541">
<time>2016-10-07T20:38:32Z</time></trkpt>
<trkpt lat="30.082806" lon="97.244381">
<time>2016-10-07T20:38:33Z</time></trkpt>
<trkpt lat="30.082856" lon="97.244221">
<time>2016-10-07T20:38:34Z</time></trkpt>
<trkpt lat="30.082886" lon="97.244101">
<time>2016-10-07T20:38:35Z</time></trkpt>
<trkpt lat="30.082926" lon="97.243981">
<time>2016-10-07T20:38:36Z</time></trkpt>
<trkpt lat="30.082966" lon="97.243841">
<time>2016-10-07T20:38:37Z</time></trkpt>
<trkpt lat="30.083006" lon="97.243721">
<time>2016-10-07T20:38:38Z</time></trkpt>
<trkpt lat="30.083056" lon="97.243581">
<time>2016-10-07T20:38:39Z</time></trkpt>
<trkpt lat="30.083096" lon="97.243471">
<time>2016-10-07T20:38:40Z</time></trkpt>
<trkpt lat="30.083126" lon="97.243381">
<time>2016-10-07T20:38:41Z</time></trkpt>
<trkpt lat="30.083166" lon="97.243291">
<time>2016-10-07T20:38:42Z</time></trkpt>
<trkpt lat="30.083226" lon="97.243181">
<time>2016-10-07T20:38:43Z</time></trkpt>
<trkpt lat="30.083286" lon="97.243081">
<time>2016-10-07T20:38:44Z</time></trkpt>
<trkpt lat="30.083326" lon="97.243021">
<time>2016-10-07T20:38:45Z</time></trkpt>
<trkpt lat="30.083376" lon="97.242961">
<time>2016-10-07T20:38:46Z</time></trkpt>
<trkpt lat="30.083426" lon="97.242891">
<time>2016-10-07T20:38:47Z</time></trkpt>
<trkpt lat="30.083536" lon="97.242761">
<time>2016-10-07T20:38:48Z</time></trkpt>
<trkpt lat="30.083676" lon="97.242601">
<time>2016-10-07T20:38:49Z</time></trkpt>
<trkpt lat="30.083816" lon="97.242471">
<time>2016-10-07T20:38:50Z</time></trkpt>
<trkpt lat="30.084275" lon="97.242071">
<time>2016-10-07T20:38:51Z</time></trkpt>
<trkpt lat="30.084415" lon="97.241941">
<time>2016-10-07T20:38:52Z</time></trkpt>
<trkpt lat="30.084525" lon="97.241811">
<time>2016-10-07T20:38:53Z</time></trkpt>
<trkpt lat="30.084635" lon="97.241661">
<time>2016-10-07T20:38:54Z</time></trkpt>
<trkpt lat="30.084775" lon="97.241441">
<time>2016-10-07T20:38:55Z</time></trkpt>
<trkpt lat="30.084985" lon="97.241121">
<time>2016-10-07T20:38:56Z</time></trkpt>
<trkpt lat="30.085165" lon="97.240861">
<time>2016-10-07T20:38:57Z</time></trkpt>
<trkpt lat="30.085325" lon="97.240621">
<time>2016-10-07T20:38:58Z</time></trkpt>
<trkpt lat="30.085445" lon="97.240441">
<time>2016-10-07T20:38:59Z</time></trkpt>
<trkpt lat="30.085565" lon="97.240291">
<time>2016-10-07T20:39:00Z</time></trkpt>
<trkpt lat="30.085695" lon="97.240151">
<time>2016-10-07T20:39:01Z</time></trkpt>
<trkpt lat="30.085875" lon="97.239981">
<time>2016-10-07T20:39:02Z</time></trkpt>
<trkpt lat="30.086035" lon="97.239831">
<time>2016-10-07T20:39:03Z</time></trkpt>
<trkpt lat="30.086195" lon="97.239671">
<time>2016-10-07T20:39:04Z</time></trkpt>
<trkpt lat="30.086295" lon="97.239551">
<time>2016-10-07T20:39:05Z</time></trkpt>
<trkpt lat="30.086415" lon="97.239381">
<time>2016-10-07T20:39:06Z</time></trkpt>
<trkpt lat="30.086545" lon="97.239171">
<time>2016-10-07T20:39:07Z</time></trkpt>
<trkpt lat="30.086774" lon="97.238831">
<time>2016-10-07T20:39:08Z</time></trkpt>
<trkpt lat="30.086994" lon="97.23848">
<time>2016-10-07T20:39:09Z</time></trkpt>
<trkpt lat="30.087184" lon="97.23819">
<time>2016-10-07T20:39:10Z</time></trkpt>
<trkpt lat="30.087404" lon="97.23786">
<time>2016-10-07T20:39:11Z</time></trkpt>
<trkpt lat="30.087614" lon="97.23755">
<time>2016-10-07T20:39:12Z</time></trkpt>
<trkpt lat="30.088164" lon="97.23683">
<time>2016-10-07T20:39:13Z</time></trkpt>
<trkpt lat="30.088353" lon="97.23662">
<time>2016-10-07T20:39:14Z</time></trkpt>
<trkpt lat="30.088873" lon="97.23602">
<time>2016-10-07T20:39:15Z</time></trkpt>
<trkpt lat="30.089123" lon="97.23571">
<time>2016-10-07T20:39:16Z</time></trkpt>
<trkpt lat="30.089353" lon="97.23541">
<time>2016-10-07T20:39:17Z</time></trkpt>
<trkpt lat="30.089613" lon="97.235069">
<time>2016-10-07T20:39:18Z</time></trkpt>
<trkpt lat="30.089843" lon="97.234739">
<time>2016-10-07T20:39:19Z</time></trkpt>
<trkpt lat="30.090002" lon="97.234489">
<time>2016-10-07T20:39:20Z</time></trkpt>
<trkpt lat="30.090092" lon="97.234309">
<time>2016-10-07T20:39:21Z</time></trkpt>
<trkpt lat="30.090172" lon="97.234119">
<time>2016-10-07T20:39:22Z</time></trkpt>
<trkpt lat="30.090382" lon="97.233609">
<time>2016-10-07T20:39:23Z</time></trkpt>
<trkpt lat="30.090442" lon="97.233449">
<time>2016-10-07T20:39:24Z</time></trkpt>
<trkpt lat="30.090542" lon="97.233239">
<time>2016-10-07T20:39:25Z</time></trkpt>
<trkpt lat="30.090692" lon="97.232929">
<time>2016-10-07T20:39:26Z</time></trkpt>
<trkpt lat="30.090921" lon="97.232548">
<time>2016-10-07T20:39:27Z</time></trkpt>
<trkpt lat="30.091291" lon="97.231908">
<time>2016-10-07T20:39:28Z</time></trkpt>
<trkpt lat="30.091581" lon="97.231368">
<time>2016-10-07T20:39:29Z</time></trkpt>
<trkpt lat="30.09176" lon="97.231028">
<time>2016-10-07T20:39:30Z</time></trkpt>
<trkpt lat="30.09198" lon="97.230647">
<time>2016-10-07T20:39:31Z</time></trkpt>
<trkpt lat="30.09218" lon="97.230327">
<time>2016-10-07T20:39:32Z</time></trkpt>
<trkpt lat="30.09235" lon="97.230097">
<time>2016-10-07T20:39:33Z</time></trkpt>
<trkpt lat="30.092879" lon="97.229527">
<time>2016-10-07T20:39:34Z</time></trkpt>
<trkpt lat="30.093019" lon="97.229377">
<time>2016-10-07T20:39:35Z</time></trkpt>
<trkpt lat="30.093099" lon="97.229247">
<time>2016-10-07T20:39:36Z</time></trkpt>
<trkpt lat="30.093159" lon="97.229126">
<time>2016-10-07T20:39:37Z</time></trkpt>
<trkpt lat="30.093209" lon="97.228966">
<time>2016-10-07T20:39:38Z</time></trkpt>
<trkpt lat="30.093289" lon="97.228706">
<time>2016-10-07T20:39:39Z</time></trkpt>
<trkpt lat="30.093349" lon="97.228516">
<time>2016-10-07T20:39:40Z</time></trkpt>
<trkpt lat="30.093428" lon="97.228326">
<time>2016-10-07T20:39:41Z</time></trkpt>
<trkpt lat="30.093528" lon="97.228126">
<time>2016-10-07T20:39:42Z</time></trkpt>
<trkpt lat="30.093768" lon="97.227706">
<time>2016-10-07T20:39:43Z</time></trkpt>
<trkpt lat="30.093878" lon="97.227495">
<time>2016-10-07T20:39:44Z</time></trkpt>
<trkpt lat="30.094087" lon="97.227065">
<time>2016-10-07T20:39:45Z</time></trkpt>
<trkpt lat="30.094227" lon="97.226735">
<time>2016-10-07T20:39:46Z</time></trkpt>
<trkpt lat="30.094427" lon="97.226305">
<time>2016-10-07T20:39:47Z</time></trkpt>
<trkpt lat="30.094567" lon="97.226044">
<time>2016-10-07T20:39:48Z</time></trkpt>
<trkpt lat="30.094686" lon="97.225844">
<time>2016-10-07T20:39:49Z</time></trkpt>
<trkpt lat="30.094836" lon="97.225644">
<time>2016-10-07T20:39:50Z</time></trkpt>
<trkpt lat="30.094996" lon="97.225444">
<time>2016-10-07T20:39:51Z</time></trkpt>
<trkpt lat="30.095156" lon="97.225254">
<time>2016-10-07T20:39:52Z</time></trkpt>
<trkpt lat="30.095256" lon="97.225104">
<time>2016-10-07T20:39:53Z</time></trkpt>
<trkpt lat="30.095366" lon="97.224934">
<time>2016-10-07T20:39:54Z</time></trkpt>
<trkpt lat="30.095435" lon="97.224793">
<time>2016-10-07T20:39:55Z</time></trkpt>
<trkpt lat="30.095635" lon="97.224393">
<time>2016-10-07T20:39:56Z</time></trkpt>
<trkpt lat="30.095785" lon="97.224133">
<time>2016-10-07T20:39:57Z</time></trkpt>
<trkpt lat="30.096054" lon="97.223693">
<time>2016-10-07T20:39:58Z</time></trkpt>
<trkpt lat="30.096184" lon="97.223442">
<time>2016-10-07T20:39:59Z</time></trkpt>
<trkpt lat="30.096354" lon="97.223092">
<time>2016-10-07T20:40:00Z</time></trkpt>
<trkpt lat="30.096533" lon="97.222652">
<time>2016-10-07T20:40:01Z</time></trkpt>
<trkpt lat="30.096753" lon="97.222131">
<time>2016-10-07T20:40:02Z</time></trkpt>
<trkpt lat="30.096863" lon="97.221801">
<time>2016-10-07T20:40:03Z</time></trkpt>
<trkpt lat="30.096982" lon="97.221461">
<time>2016-10-07T20:40:04Z</time></trkpt>
<trkpt lat="30.097132" lon="97.22095">
<time>2016-10-07T20:40:05Z</time></trkpt>
<trkpt lat="30.097182" lon="97.22075">
<time>2016-10-07T20:40:06Z</time></trkpt>
<trkpt lat="30.097201" lon="97.22056">
<time>2016-10-07T20:40:07Z</time></trkpt>
<trkpt lat="30.097211" lon="97.22034">
<time>2016-10-07T20:40:08Z</time></trkpt>
<trkpt lat="30.097221" lon="97.219939">
<time>2016-10-07T20:40:09Z</time></trkpt>
<trkpt lat="30.09727" lon="97.219409">
<time>2016-10-07T20:40:10Z</time></trkpt>
<trkpt lat="30.09731" lon="97.218888">
<time>2016-10-07T20:40:11Z</time></trkpt>
<trkpt lat="30.097329" lon="97.218608">
<time>2016-10-07T20:40:12Z</time></trkpt>
<trkpt lat="30.097339" lon="97.218338">
<time>2016-10-07T20:40:13Z</time></trkpt>
<trkpt lat="30.097349" lon="97.218127">
<time>2016-10-07T20:40:14Z</time></trkpt>
<trkpt lat="30.097358" lon="97.217457">
<time>2016-10-07T20:40:15Z</time></trkpt>
<trkpt lat="30.097367" lon="97.216786">
<time>2016-10-07T20:40:16Z</time></trkpt>
<trkpt lat="30.097407" lon="97.216125">
<time>2016-10-07T20:40:17Z</time></trkpt>
<trkpt lat="30.097416" lon="97.215725">
<time>2016-10-07T20:40:18Z</time></trkpt>
<trkpt lat="30.097455" lon="97.215174">
<time>2016-10-07T20:40:19Z</time></trkpt>
<trkpt lat="30.097524" lon="97.214043">
<time>2016-10-07T20:40:20Z</time></trkpt>
<trkpt lat="30.097544" lon="97.213713">
<time>2016-10-07T20:40:21Z</time></trkpt>
<trkpt lat="30.097573" lon="97.213442">
<time>2016-10-07T20:40:22Z</time></trkpt>
<trkpt lat="30.097652" lon="97.212772">
<time>2016-10-07T20:40:23Z</time></trkpt>
<trkpt lat="30.097722" lon="97.212241">
<time>2016-10-07T20:40:24Z</time></trkpt>
<trkpt lat="30.097781" lon="97.21182">
<time>2016-10-07T20:40:25Z</time></trkpt>
<trkpt lat="30.097831" lon="97.21155">
<time>2016-10-07T20:40:26Z</time></trkpt>
<trkpt lat="30.097871" lon="97.21136">
<time>2016-10-07T20:40:27Z</time></trkpt>
<trkpt lat="30.09792" lon="97.21122">
<time>2016-10-07T20:40:28Z</time></trkpt>
<trkpt lat="30.098" lon="97.211069">
<time>2016-10-07T20:40:29Z</time></trkpt>
<trkpt lat="30.09809" lon="97.210949">
<time>2016-10-07T20:40:30Z</time></trkpt>
<trkpt lat="30.09818" lon="97.210809">
<time>2016-10-07T20:40:31Z</time></trkpt>
<trkpt lat="30.09825" lon="97.210699">
<time>2016-10-07T20:40:32Z</time></trkpt>
<trkpt lat="30.0983" lon="97.210599">
<time>2016-10-07T20:40:33Z</time></trkpt>
<trkpt lat="30.09833" lon="97.210509">
<time>2016-10-07T20:40:34Z</time></trkpt>
<trkpt lat="30.098359" lon="97.210429">
<time>2016-10-07T20:40:35Z</time></trkpt>
<trkpt lat="30.098419" lon="97.210198">
<time>2016-10-07T20:40:36Z</time></trkpt>
<trkpt lat="30.098509" lon="97.209878">
<time>2016-10-07T20:40:37Z</time></trkpt>
<trkpt lat="30.098569" lon="97.209718">
<time>2016-10-07T20:40:38Z</time></trkpt>
<trkpt lat="30.098628" lon="97.209557">
<time>2016-10-07T20:40:39Z</time></trkpt>
<trkpt lat="30.098718" lon="97.209327">
<time>2016-10-07T20:40:40Z</time></trkpt>
<trkpt lat="30.098848" lon="97.209087">
<time>2016-10-07T20:40:41Z</time></trkpt>
<trkpt lat="30.099007" lon="97.208796">
<time>2016-10-07T20:40:42Z</time></trkpt>
<trkpt lat="30.099147" lon="97.208576">
<time>2016-10-07T20:40:43Z</time></trkpt>
<trkpt lat="30.099247" lon="97.208376">
<time>2016-10-07T20:40:44Z</time></trkpt>
<trkpt lat="30.099307" lon="97.208246">
<time>2016-10-07T20:40:45Z</time></trkpt>
<trkpt lat="30.099376" lon="97.208056">
<time>2016-10-07T20:40:46Z</time></trkpt>
<trkpt lat="30.099496" lon="97.207765">
<time>2016-10-07T20:40:47Z</time></trkpt>
<trkpt lat="30.099566" lon="97.207605">
<time>2016-10-07T20:40:48Z</time></trkpt>
<trkpt lat="30.099675" lon="97.207435">
<time>2016-10-07T20:40:49Z</time></trkpt>
<trkpt lat="30.099805" lon="97.207264">
<time>2016-10-07T20:40:50Z</time></trkpt>
<trkpt lat="30.100115" lon="97.206914">
<time>2016-10-07T20:40:51Z</time></trkpt>
<trkpt lat="30.100554" lon="97.206443">
<time>2016-10-07T20:40:52Z</time></trkpt>
<trkpt lat="30.100804" lon="97.206153">
<time>2016-10-07T20:40:53Z</time></trkpt>
<trkpt lat="30.101003" lon="97.205913">
<time>2016-10-07T20:40:54Z</time></trkpt>
<trkpt lat="30.101133" lon="97.205752">
<time>2016-10-07T20:40:55Z</time></trkpt>
<trkpt lat="30.101253" lon="97.205552">
<time>2016-10-07T20:40:56Z</time></trkpt>
<trkpt lat="30.101412" lon="97.205272">
<time>2016-10-07T20:40:57Z</time></trkpt>
<trkpt lat="30.101652" lon="97.204841">
<time>2016-10-07T20:40:58Z</time></trkpt>
<trkpt lat="30.101801" lon="97.204571">
<time>2016-10-07T20:40:59Z</time></trkpt>
<trkpt lat="30.101921" lon="97.20435">
<time>2016-10-07T20:41:00Z</time></trkpt>
<trkpt lat="30.102041" lon="97.20416">
<time>2016-10-07T20:41:01Z</time></trkpt>
<trkpt lat="30.10217" lon="97.20399">
<time>2016-10-07T20:41:02Z</time></trkpt>
<trkpt lat="30.10231" lon="97.20383">
<time>2016-10-07T20:41:03Z</time></trkpt>
<trkpt lat="30.10245" lon="97.203679">
<time>2016-10-07T20:41:04Z</time></trkpt>
<trkpt lat="30.10256" lon="97.203559">
<time>2016-10-07T20:41:05Z</time></trkpt>
<trkpt lat="30.10273" lon="97.203419">
<time>2016-10-07T20:41:06Z</time></trkpt>
<trkpt lat="30.102969" lon="97.203239">
<time>2016-10-07T20:41:07Z</time></trkpt>
<trkpt lat="30.103199" lon="97.203058">
<time>2016-10-07T20:41:08Z</time></trkpt>
<trkpt lat="30.103389" lon="97.202918">
<time>2016-10-07T20:41:09Z</time></trkpt>
<trkpt lat="30.103529" lon="97.202778">
<time>2016-10-07T20:41:10Z</time></trkpt>
<trkpt lat="30.103738" lon="97.202538">
<time>2016-10-07T20:41:11Z</time></trkpt>
<trkpt lat="30.103888" lon="97.202347">
<time>2016-10-07T20:41:12Z</time></trkpt>
<trkpt lat="30.104058" lon="97.202117">
<time>2016-10-07T20:41:13Z</time></trkpt>
<trkpt lat="30.104237" lon="97.201907">
<time>2016-10-07T20:41:14Z</time></trkpt>
<trkpt lat="30.104547" lon="97.201596">
<time>2016-10-07T20:41:15Z</time></trkpt>
<trkpt lat="30.104956" lon="97.201176">
<time>2016-10-07T20:41:16Z</time></trkpt>
<trkpt lat="30.105036" lon="97.201095">
<time>2016-10-07T20:41:17Z</time></trkpt>
<trkpt lat="30.105126" lon="97.200995">
<time>2016-10-07T20:41:18Z</time></trkpt>
<trkpt lat="30.105176" lon="97.200895">
<time>2016-10-07T20:41:19Z</time></trkpt>
<trkpt lat="30.105226" lon="97.200795">
<time>2016-10-07T20:41:20Z</time></trkpt>
<trkpt lat="30.105325" lon="97.200625">
<time>2016-10-07T20:41:21Z</time></trkpt>
<trkpt lat="30.105395" lon="97.200515">
<time>2016-10-07T20:41:22Z</time></trkpt>
<trkpt lat="30.105465" lon="97.200404">
<time>2016-10-07T20:41:23Z</time></trkpt>
<trkpt lat="30.105645" lon="97.200164">
<time>2016-10-07T20:41:24Z</time></trkpt>
<trkpt lat="30.105764" lon="97.200004">
<time>2016-10-07T20:41:25Z</time></trkpt>
<trkpt lat="30.105854" lon="97.199874">
<time>2016-10-07T20:41:26Z</time></trkpt>
<trkpt lat="30.105944" lon="97.199723">
<time>2016-10-07T20:41:27Z</time></trkpt>
<trkpt lat="30.105984" lon="97.199613">
<time>2016-10-07T20:41:28Z</time></trkpt>
<trkpt lat="30.106034" lon="97.199503">
<time>2016-10-07T20:41:29Z</time></trkpt>
<trkpt lat="30.106073" lon="97.199393">
<time>2016-10-07T20:41:30Z</time></trkpt>
<trkpt lat="30.106103" lon="97.199343">
<time>2016-10-07T20:41:31Z</time></trkpt>
<trkpt lat="30.106133" lon="97.199293">
<time>2016-10-07T20:41:32Z</time></trkpt>
<trkpt lat="30.106183" lon="97.199243">
<time>2016-10-07T20:41:33Z</time></trkpt>
<trkpt lat="30.106293" lon="97.199122">
<time>2016-10-07T20:41:34Z</time></trkpt>
<trkpt lat="30.106403" lon="97.199032">
<time>2016-10-07T20:41:35Z</time></trkpt>
<trkpt lat="30.106633" lon="97.198882">
<time>2016-10-07T20:41:36Z</time></trkpt>
<trkpt lat="30.106692" lon="97.198832">
<time>2016-10-07T20:41:37Z</time></trkpt>
<trkpt lat="30.106742" lon="97.198782">
<time>2016-10-07T20:41:38Z</time></trkpt>
<trkpt lat="30.106812" lon="97.198682">
<time>2016-10-07T20:41:39Z</time></trkpt>
<trkpt lat="30.106852" lon="97.198632">
<time>2016-10-07T20:41:40Z</time></trkpt>
<trkpt lat="30.106872" lon="97.198591">
<time>2016-10-07T20:41:41Z</time></trkpt>
<trkpt lat="30.106882" lon="97.198561">
<time>2016-10-07T20:41:42Z</time></trkpt>
<trkpt lat="30.106892" lon="97.198531">
<time>2016-10-07T20:41:43Z</time></trkpt>
<trkpt lat="30.106892" lon="97.198501">
<time>2016-10-07T20:41:44Z</time></trkpt>
<trkpt lat="30.106892" lon="97.198461">
<time>2016-10-07T20:41:45Z</time></trkpt>
<trkpt lat="30.106892" lon="97.198411">
<time>2016-10-07T20:41:46Z</time></trkpt>
<trkpt lat="30.106892" lon="97.198371">
<time>2016-10-07T20:41:47Z</time></trkpt>
<trkpt lat="30.106852" lon="97.198291">
<time>2016-10-07T20:41:48Z</time></trkpt>
<trkpt lat="30.106801" lon="97.198171">
<time>2016-10-07T20:41:49Z</time></trkpt>
<trkpt lat="30.106731" lon="97.198041">
<time>2016-10-07T20:41:50Z</time></trkpt>
<trkpt lat="30.106581" lon="97.19777">
<time>2016-10-07T20:41:51Z</time></trkpt>
<trkpt lat="30.10649" lon="97.19759">
<time>2016-10-07T20:41:52Z</time></trkpt>
<trkpt lat="30.10645" lon="97.19751">
<time>2016-10-07T20:41:53Z</time></trkpt>
<trkpt lat="30.10643" lon="97.19743">
<time>2016-10-07T20:41:54Z</time></trkpt>
<trkpt lat="30.10642" lon="97.19737">
<time>2016-10-07T20:41:55Z</time></trkpt>
<trkpt lat="30.10642" lon="97.197319">
<time>2016-10-07T20:41:56Z</time></trkpt>
<trkpt lat="30.10642" lon="97.197209">
<time>2016-10-07T20:41:57Z</time></trkpt>
<trkpt lat="30.10643" lon="97.197099">
<time>2016-10-07T20:41:58Z</time></trkpt>
<trkpt lat="30.106439" lon="97.196949">
<time>2016-10-07T20:41:59Z</time></trkpt>
<trkpt lat="30.106469" lon="97.196829">
<time>2016-10-07T20:42:00Z</time></trkpt>
<trkpt lat="30.106499" lon="97.196698">
<time>2016-10-07T20:42:01Z</time></trkpt>
<trkpt lat="30.106569" lon="97.196408">
<time>2016-10-07T20:42:02Z</time></trkpt>
<trkpt lat="30.106648" lon="97.196158">
<time>2016-10-07T20:42:03Z</time></trkpt>
<trkpt lat="30.106688" lon="97.196007">
<time>2016-10-07T20:42:04Z</time></trkpt>
<trkpt lat="30.106718" lon="97.195877">
<time>2016-10-07T20:42:05Z</time></trkpt>
<trkpt lat="30.106728" lon="97.195787">
<time>2016-10-07T20:42:06Z</time></trkpt>
<trkpt lat="30.106727" lon="97.195697">
<time>2016-10-07T20:42:07Z</time></trkpt>
<trkpt lat="30.106707" lon="97.195587">
<time>2016-10-07T20:42:08Z</time></trkpt>
<trkpt lat="30.106677" lon="97.195476">
<time>2016-10-07T20:42:09Z</time></trkpt>
<trkpt lat="30.106647" lon="97.195376">
<time>2016-10-07T20:42:10Z</time></trkpt>
<trkpt lat="30.106617" lon="97.195236">
<time>2016-10-07T20:42:11Z</time></trkpt>
<trkpt lat="30.106606" lon="97.195146">
<time>2016-10-07T20:42:12Z</time></trkpt>
<trkpt lat="30.106606" lon="97.195076">
<time>2016-10-07T20:42:13Z</time></trkpt>
<trkpt lat="30.106626" lon="97.194996">
<time>2016-10-07T20:42:14Z</time></trkpt>
<trkpt lat="30.106646" lon="97.194926">
<time>2016-10-07T20:42:15Z</time></trkpt>
<trkpt lat="30.106686" lon="97.194825">
<time>2016-10-07T20:42:16Z</time></trkpt>
<trkpt lat="30.106756" lon="97.194725">
<time>2016-10-07T20:42:17Z</time></trkpt>
<trkpt lat="30.106905" lon="97.194555">
<time>2016-10-07T20:42:18Z</time></trkpt>
<trkpt lat="30.107015" lon="97.194435">
<time>2016-10-07T20:42:19Z</time></trkpt>
<trkpt lat="30.107185" lon="97.194254">
<time>2016-10-07T20:42:20Z</time></trkpt>
<trkpt lat="30.107335" lon="97.194104">
<time>2016-10-07T20:42:21Z</time></trkpt>
<trkpt lat="30.107435" lon="97.193984">
<time>2016-10-07T20:42:22Z</time></trkpt>
<trkpt lat="30.107484" lon="97.193904">
<time>2016-10-07T20:42:23Z</time></trkpt>
<trkpt lat="30.107524" lon="97.193814">
<time>2016-10-07T20:42:24Z</time></trkpt>
<trkpt lat="30.107544" lon="97.193754">
<time>2016-10-07T20:42:25Z</time></trkpt>
<trkpt lat="30.107564" lon="97.193683">
<time>2016-10-07T20:42:26Z</time></trkpt>
<trkpt lat="30.107574" lon="97.193613">
<time>2016-10-07T20:42:27Z</time></trkpt>
<trkpt lat="30.107574" lon="97.193533">
<time>2016-10-07T20:42:28Z</time></trkpt>
<trkpt lat="30.107574" lon="97.193433">
<time>2016-10-07T20:42:29Z</time></trkpt>
<trkpt lat="30.107563" lon="97.193323">
<time>2016-10-07T20:42:30Z</time></trkpt>
<trkpt lat="30.107563" lon="97.193173">
<time>2016-10-07T20:42:31Z</time></trkpt>
<trkpt lat="30.107573" lon="97.193032">
<time>2016-10-07T20:42:32Z</time></trkpt>
<trkpt lat="30.107603" lon="97.192842">
<time>2016-10-07T20:42:33Z</time></trkpt>
<trkpt lat="30.107612" lon="97.192722">
<time>2016-10-07T20:42:34Z</time></trkpt>
<trkpt lat="30.107612" lon="97.192612">
<time>2016-10-07T20:42:35Z</time></trkpt>
<trkpt lat="30.107602" lon="97.192441">
<time>2016-10-07T20:42:36Z</time></trkpt>
<trkpt lat="30.107561" lon="97.192111">
<time>2016-10-07T20:42:37Z</time></trkpt>
<trkpt lat="30.107541" lon="97.19187">
<time>2016-10-07T20:42:38Z</time></trkpt>
<trkpt lat="30.107531" lon="97.19175">
<time>2016-10-07T20:42:39Z</time></trkpt>
<trkpt lat="30.107531" lon="97.19164">
<time>2016-10-07T20:42:40Z</time></trkpt>
<trkpt lat="30.10756" lon="97.19149">
<time>2016-10-07T20:42:41Z</time></trkpt>
<trkpt lat="30.10761" lon="97.191339">
<time>2016-10-07T20:42:42Z</time></trkpt>
<trkpt lat="30.1077" lon="97.191109">
<time>2016-10-07T20:42:43Z</time></trkpt>
<trkpt lat="30.107869" lon="97.190738">
<time>2016-10-07T20:42:44Z</time></trkpt>
<trkpt lat="30.108008" lon="97.190428">
<time>2016-10-07T20:42:45Z</time></trkpt>
<trkpt lat="30.108068" lon="97.190288">
<time>2016-10-07T20:42:46Z</time></trkpt>
<trkpt lat="30.108088" lon="97.190248">
<time>2016-10-07T20:42:47Z</time></trkpt>
<trkpt lat="30.108088" lon="97.190197">
<time>2016-10-07T20:42:48Z</time></trkpt>
<trkpt lat="30.108088" lon="97.190137">
<time>2016-10-07T20:42:49Z</time></trkpt>
<trkpt lat="30.108078" lon="97.190087">
<time>2016-10-07T20:42:50Z</time></trkpt>
<trkpt lat="30.108068" lon="97.190037">
<time>2016-10-07T20:42:51Z</time></trkpt>
<trkpt lat="30.108038" lon="97.189977">
<time>2016-10-07T20:42:52Z</time></trkpt>
<trkpt lat="30.107967" lon="97.189857">
<time>2016-10-07T20:42:53Z</time></trkpt>
<trkpt lat="30.107847" lon="97.189657">
<time>2016-10-07T20:42:54Z</time></trkpt>
<trkpt lat="30.107767" lon="97.189526">
<time>2016-10-07T20:42:55Z</time></trkpt>
<trkpt lat="30.107687" lon="97.189356">
<time>2016-10-07T20:42:56Z</time></trkpt>
<trkpt lat="30.107626" lon="97.189126">
<time>2016-10-07T20:42:57Z</time></trkpt>
<trkpt lat="30.107556" lon="97.188865">
<time>2016-10-07T20:42:58Z</time></trkpt>
<trkpt lat="30.107485" lon="97.188525">
<time>2016-10-07T20:42:59Z</time></trkpt>
<trkpt lat="30.107435" lon="97.188324">
<time>2016-10-07T20:43:00Z</time></trkpt>
<trkpt lat="30.107405" lon="97.188224">
<time>2016-10-07T20:43:01Z</time></trkpt>
<trkpt lat="30.107344" lon="97.188094">
<time>2016-10-07T20:43:02Z</time></trkpt>
<trkpt lat="30.107264" lon="97.187933">
<time>2016-10-07T20:43:03Z</time></trkpt>
<trkpt lat="30.107164" lon="97.187803">
<time>2016-10-07T20:43:04Z</time></trkpt>
<trkpt lat="30.107084" lon="97.187703">
<time>2016-10-07T20:43:05Z</time></trkpt>
<trkpt lat="30.106923" lon="97.187553">
<time>2016-10-07T20:43:06Z</time></trkpt>
<trkpt lat="30.106833" lon="97.187453">
<time>2016-10-07T20:43:07Z</time></trkpt>
<trkpt lat="30.106613" lon="97.187172">
<time>2016-10-07T20:43:08Z</time></trkpt>
<trkpt lat="30.106412" lon="97.186862">
<time>2016-10-07T20:43:09Z</time></trkpt>
<trkpt lat="30.106081" lon="97.186361">
<time>2016-10-07T20:43:10Z</time></trkpt>
<trkpt lat="30.10582" lon="97.18595">
<time>2016-10-07T20:43:11Z</time></trkpt>
<trkpt lat="30.10567" lon="97.185679">
<time>2016-10-07T20:43:12Z</time></trkpt>
<trkpt lat="30.105529" lon="97.185369">
<time>2016-10-07T20:43:13Z</time></trkpt>
<trkpt lat="30.105369" lon="97.184918">
<time>2016-10-07T20:43:14Z</time></trkpt>
<trkpt lat="30.105178" lon="97.184407">
<time>2016-10-07T20:43:15Z</time></trkpt>
<trkpt lat="30.105047" lon="97.184036">
<time>2016-10-07T20:43:16Z</time></trkpt>
<trkpt lat="30.104926" lon="97.183696">
<time>2016-10-07T20:43:17Z</time></trkpt>
<trkpt lat="30.104866" lon="97.183516">
<time>2016-10-07T20:43:18Z</time></trkpt>
<trkpt lat="30.104806" lon="97.183345">
<time>2016-10-07T20:43:19Z</time></trkpt>
<trkpt lat="30.104775" lon="97.183225">
<time>2016-10-07T20:43:20Z</time></trkpt>
<trkpt lat="30.104705" lon="97.182914">
<time>2016-10-07T20:43:21Z</time></trkpt>
<trkpt lat="30.104644" lon="97.182604">
<time>2016-10-07T20:43:22Z</time></trkpt>
<trkpt lat="30.104614" lon="97.182383">
<time>2016-10-07T20:43:23Z</time></trkpt>
<trkpt lat="30.104583" lon="97.182103">
<time>2016-10-07T20:43:24Z</time></trkpt>
<trkpt lat="30.104573" lon="97.181893">
<time>2016-10-07T20:43:25Z</time></trkpt>
<trkpt lat="30.104562" lon="97.181522">
<time>2016-10-07T20:43:26Z</time></trkpt>
<trkpt lat="30.104552" lon="97.181271">
<time>2016-10-07T20:43:27Z</time></trkpt>
<trkpt lat="30.104522" lon="97.181061">
<time>2016-10-07T20:43:28Z</time></trkpt>
<trkpt lat="30.104461" lon="97.180791">
<time>2016-10-07T20:43:29Z</time></trkpt>
<trkpt lat="30.10438" lon="97.18049">
<time>2016-10-07T20:43:30Z</time></trkpt>
<trkpt lat="30.103927" lon="97.178817">
<time>2016-10-07T20:43:31Z</time></trkpt>
<trkpt lat="30.103817" lon="97.178426">
<time>2016-10-07T20:43:32Z</time></trkpt>
<trkpt lat="30.103726" lon="97.178116">
<time>2016-10-07T20:43:33Z</time></trkpt>
<trkpt lat="30.103665" lon="97.177765">
<time>2016-10-07T20:43:34Z</time></trkpt>
<trkpt lat="30.103595" lon="97.177494">
<time>2016-10-07T20:43:35Z</time></trkpt>
<trkpt lat="30.103585" lon="97.177444">
<time>2016-10-07T20:43:36Z</time></trkpt>
<trkpt lat="30.103565" lon="97.177374">
<time>2016-10-07T20:43:37Z</time></trkpt>
<trkpt lat="30.103545" lon="97.177324">
<time>2016-10-07T20:43:38Z</time></trkpt>
<trkpt lat="30.103524" lon="97.177284">
<time>2016-10-07T20:43:39Z</time></trkpt>
<trkpt lat="30.103494" lon="97.177234">
<time>2016-10-07T20:43:40Z</time></trkpt>
<trkpt lat="30.103474" lon="97.177204">
<time>2016-10-07T20:43:41Z</time></trkpt>
<trkpt lat="30.103434" lon="97.177154">
<time>2016-10-07T20:43:42Z</time></trkpt>
<trkpt lat="30.103394" lon="97.177114">
<time>2016-10-07T20:43:43Z</time></trkpt>
<trkpt lat="30.103284" lon="97.177013">
<time>2016-10-07T20:43:44Z</time></trkpt>
<trkpt lat="30.103134" lon="97.176893">
<time>2016-10-07T20:43:45Z</time></trkpt>
<trkpt lat="30.103003" lon="97.176753">
<time>2016-10-07T20:43:46Z</time></trkpt>
<trkpt lat="30.102923" lon="97.176613">
<time>2016-10-07T20:43:47Z</time></trkpt>
<trkpt lat="30.102843" lon="97.176442">
<time>2016-10-07T20:43:48Z</time></trkpt>
<trkpt lat="30.102762" lon="97.176132">
<time>2016-10-07T20:43:49Z</time></trkpt>
<trkpt lat="30.102642" lon="97.175731">
<time>2016-10-07T20:43:50Z</time></trkpt>
<trkpt lat="30.102551" lon="97.17541">
<time>2016-10-07T20:43:51Z</time></trkpt>
<trkpt lat="30.102501" lon="97.17526">
<time>2016-10-07T20:43:52Z</time></trkpt>
<trkpt lat="30.10244" lon="97.17514">
<time>2016-10-07T20:43:53Z</time></trkpt>
<trkpt lat="30.10238" lon="97.17505">
<time>2016-10-07T20:43:54Z</time></trkpt>
<trkpt lat="30.10229" lon="97.17495">
<time>2016-10-07T20:43:55Z</time></trkpt>
<trkpt lat="30.10218" lon="97.174849">
<time>2016-10-07T20:43:56Z</time></trkpt>
<trkpt lat="30.10194" lon="97.174689">
<time>2016-10-07T20:43:57Z</time></trkpt>
<trkpt lat="30.101649" lon="97.174499">
<time>2016-10-07T20:43:58Z</time></trkpt>
<trkpt lat="30.101479" lon="97.174399">
<time>2016-10-07T20:43:59Z</time></trkpt>
<trkpt lat="30.101369" lon="97.174348">
<time>2016-10-07T20:44:00Z</time></trkpt>
<trkpt lat="30.101229" lon="97.174318">
<time>2016-10-07T20:44:01Z</time></trkpt>
<trkpt lat="30.100879" lon="97.174228">
<time>2016-10-07T20:44:02Z</time></trkpt>
<trkpt lat="30.100779" lon="97.174178">
<time>2016-10-07T20:44:03Z</time></trkpt>
<trkpt lat="30.100608" lon="97.174098">
<time>2016-10-07T20:44:04Z</time></trkpt>
<trkpt lat="30.100498" lon="97.174018">
<time>2016-10-07T20:44:05Z</time></trkpt>
<trkpt lat="30.100378" lon="97.173938">
<time>2016-10-07T20:44:06Z</time></trkpt>
<trkpt lat="30.100138" lon="97.173717">
<time>2016-10-07T20:44:07Z</time></trkpt>
<trkpt lat="30.099867" lon="97.173417">
<time>2016-10-07T20:44:08Z</time></trkpt>
<trkpt lat="30.099767" lon="97.173297">
<time>2016-10-07T20:44:09Z</time></trkpt>
<trkpt lat="30.099687" lon="97.173176">
<time>2016-10-07T20:44:10Z</time></trkpt>
<trkpt lat="30.099536" lon="97.172956">
<time>2016-10-07T20:44:11Z</time></trkpt>
<trkpt lat="30.099426" lon="97.172806">
<time>2016-10-07T20:44:12Z</time></trkpt>
<trkpt lat="30.099336" lon="97.172625">
<time>2016-10-07T20:44:13Z</time></trkpt>
<trkpt lat="30.099235" lon="97.172375">
<time>2016-10-07T20:44:14Z</time></trkpt>
<trkpt lat="30.099105" lon="97.172034">
<time>2016-10-07T20:44:15Z</time></trkpt>
<trkpt lat="30.098994" lon="97.171754">
<time>2016-10-07T20:44:16Z</time></trkpt>
<trkpt lat="30.098924" lon="97.171563">
<time>2016-10-07T20:44:17Z</time></trkpt>
<trkpt lat="30.098843" lon="97.171413">
<time>2016-10-07T20:44:18Z</time></trkpt>
<trkpt lat="30.098763" lon="97.171293">
<time>2016-10-07T20:44:19Z</time></trkpt>
<trkpt lat="30.098633" lon="97.171122">
<time>2016-10-07T20:44:20Z</time></trkpt>
<trkpt lat="30.098553" lon="97.171012">
<time>2016-10-07T20:44:21Z</time></trkpt>
<trkpt lat="30.098442" lon="97.170822">
<time>2016-10-07T20:44:22Z</time></trkpt>
<trkpt lat="30.098332" lon="97.170551">
<time>2016-10-07T20:44:23Z</time></trkpt>
<trkpt lat="30.098191" lon="97.170211">
<time>2016-10-07T20:44:24Z</time></trkpt>
<trkpt lat="30.098071" lon="97.16992">
<time>2016-10-07T20:44:25Z</time></trkpt>
<trkpt lat="30.09801" lon="97.16975">
<time>2016-10-07T20:44:26Z</time></trkpt>
<trkpt lat="30.097879" lon="97.169229">
<time>2016-10-07T20:44:27Z</time></trkpt>
<trkpt lat="30.097799" lon="97.168848">
<time>2016-10-07T20:44:28Z</time></trkpt>
<trkpt lat="30.097728" lon="97.168638">
<time>2016-10-07T20:44:29Z</time></trkpt>
<trkpt lat="30.097638" lon="97.168357">
<time>2016-10-07T20:44:30Z</time></trkpt>
<trkpt lat="30.097266" lon="97.167345">
<time>2016-10-07T20:44:31Z</time></trkpt>
<trkpt lat="30.097015" lon="97.166784">
<time>2016-10-07T20:44:32Z</time></trkpt>
<trkpt lat="30.096854" lon="97.166434">
<time>2016-10-07T20:44:33Z</time></trkpt>
<trkpt lat="30.096714" lon="97.166153">
<time>2016-10-07T20:44:34Z</time></trkpt>
<trkpt lat="30.096643" lon="97.165993">
<time>2016-10-07T20:44:35Z</time></trkpt>
<trkpt lat="30.096543" lon="97.165842">
<time>2016-10-07T20:44:36Z</time></trkpt>
<trkpt lat="30.096493" lon="97.165772">
<time>2016-10-07T20:44:37Z</time></trkpt>
<trkpt lat="30.096433" lon="97.165722">
<time>2016-10-07T20:44:38Z</time></trkpt>
<trkpt lat="30.096152" lon="97.165492">
<time>2016-10-07T20:44:39Z</time></trkpt>
<trkpt lat="30.095912" lon="97.165301">
<time>2016-10-07T20:44:40Z</time></trkpt>
<trkpt lat="30.095662" lon="97.165111">
<time>2016-10-07T20:44:41Z</time></trkpt>
<trkpt lat="30.095471" lon="97.164991">
<time>2016-10-07T20:44:42Z</time></trkpt>
<trkpt lat="30.095251" lon="97.164881">
<time>2016-10-07T20:44:43Z</time></trkpt>
<trkpt lat="30.094961" lon="97.164781">
<time>2016-10-07T20:44:44Z</time></trkpt>
<trkpt lat="30.094711" lon="97.16468">
<time>2016-10-07T20:44:45Z</time></trkpt>
<trkpt lat="30.094511" lon="97.16459">
<time>2016-10-07T20:44:46Z</time></trkpt>
<trkpt lat="30.09441" lon="97.16454">
<time>2016-10-07T20:44:47Z</time></trkpt>
<trkpt lat="30.09432" lon="97.16448">
<time>2016-10-07T20:44:48Z</time></trkpt>
<trkpt lat="30.09425" lon="97.16442">
<time>2016-10-07T20:44:49Z</time></trkpt>
<trkpt lat="30.09415" lon="97.16431">
<time>2016-10-07T20:44:50Z</time></trkpt>
<trkpt lat="30.09405" lon="97.164219">
<time>2016-10-07T20:44:51Z</time></trkpt>
<trkpt lat="30.09397" lon="97.164159">
<time>2016-10-07T20:44:52Z</time></trkpt>
<trkpt lat="30.0939" lon="97.164129">
<time>2016-10-07T20:44:53Z</time></trkpt>
<trkpt lat="30.09376" lon="97.164089">
<time>2016-10-07T20:44:54Z</time></trkpt>
<trkpt lat="30.09353" lon="97.164029">
<time>2016-10-07T20:44:55Z</time></trkpt>
<trkpt lat="30.093309" lon="97.163969">
<time>2016-10-07T20:44:56Z</time></trkpt>
<trkpt lat="30.093219" lon="97.163919">
<time>2016-10-07T20:44:57Z</time></trkpt>
<trkpt lat="30.093139" lon="97.163859">
<time>2016-10-07T20:44:58Z</time></trkpt>
<trkpt lat="30.092989" lon="97.163729">
<time>2016-10-07T20:44:59Z</time></trkpt>
<trkpt lat="30.092859" lon="97.163628">
<time>2016-10-07T20:45:00Z</time></trkpt>
<trkpt lat="30.092749" lon="97.163548">
<time>2016-10-07T20:45:01Z</time></trkpt>
<trkpt lat="30.092649" lon="97.163498">
<time>2016-10-07T20:45:02Z</time></trkpt>
<trkpt lat="30.092598" lon="97.163478">
<time>2016-10-07T20:45:03Z</time></trkpt>
<trkpt lat="30.092508" lon="97.163448">
<time>2016-10-07T20:45:04Z</time></trkpt>
<trkpt lat="30.092218" lon="97.163368">
<time>2016-10-07T20:45:05Z</time></trkpt>
<trkpt lat="30.091968" lon="97.163298">
<time>2016-10-07T20:45:06Z</time></trkpt>
<trkpt lat="30.091648" lon="97.163208">
<time>2016-10-07T20:45:07Z</time></trkpt>
<trkpt lat="30.091568" lon="97.163198">
<time>2016-10-07T20:45:08Z</time></trkpt>
<trkpt lat="30.091468" lon="97.163188">
<time>2016-10-07T20:45:09Z</time></trkpt>
<trkpt lat="30.091338" lon="97.163188">
<time>2016-10-07T20:45:10Z</time></trkpt>
<trkpt lat="30.091088" lon="97.163218">
<time>2016-10-07T20:45:11Z</time></trkpt>
<trkpt lat="30.090928" lon="97.163218">
<time>2016-10-07T20:45:12Z</time></trkpt>
<trkpt lat="30.090788" lon="97.163208">
<time>2016-10-07T20:45:13Z</time></trkpt>
<trkpt lat="30.090678" lon="97.163158">
<time>2016-10-07T20:45:14Z</time></trkpt>
<trkpt lat="30.090538" lon="97.163077">
<time>2016-10-07T20:45:15Z</time></trkpt>
<trkpt lat="30.090408" lon="97.162977">
<time>2016-10-07T20:45:16Z</time></trkpt>
<trkpt lat="30.090267" lon="97.162857">
<time>2016-10-07T20:45:17Z</time></trkpt>
<trkpt lat="30.090087" lon="97.162717">
<time>2016-10-07T20:45:18Z</time></trkpt>
<trkpt lat="30.090007" lon="97.162657">
<time>2016-10-07T20:45:19Z</time></trkpt>
<trkpt lat="30.089937" lon="97.162617">
<time>2016-10-07T20:45:20Z</time></trkpt>
<trkpt lat="30.089817" lon="97.162566">
<time>2016-10-07T20:45:21Z</time></trkpt>
<trkpt lat="30.089627" lon="97.162506">
<time>2016-10-07T20:45:22Z</time></trkpt>
<trkpt lat="30.089226" lon="97.162396">
<time>2016-10-07T20:45:23Z</time></trkpt>
<trkpt lat="30.089106" lon="97.162356">
<time>2016-10-07T20:45:24Z</time></trkpt>
<trkpt lat="30.089026" lon="97.162346">
<time>2016-10-07T20:45:25Z</time></trkpt>
<trkpt lat="30.088936" lon="97.162356">
<time>2016-10-07T20:45:26Z</time></trkpt>
<trkpt lat="30.088866" lon="97.162366">
<time>2016-10-07T20:45:27Z</time></trkpt>
<trkpt lat="30.088836" lon="97.162386">
<time>2016-10-07T20:45:28Z</time></trkpt>
<trkpt lat="30.088776" lon="97.162416">
<time>2016-10-07T20:45:29Z</time></trkpt>
<trkpt lat="30.088657" lon="97.162516">
<time>2016-10-07T20:45:30Z</time></trkpt>
<trkpt lat="30.088447" lon="97.162677">
<time>2016-10-07T20:45:31Z</time></trkpt>
<trkpt lat="30.088287" lon="97.162807">
<time>2016-10-07T20:45:32Z</time></trkpt>
<trkpt lat="30.088147" lon="97.162937">
<time>2016-10-07T20:45:33Z</time></trkpt>
<trkpt lat="30.088018" lon="97.163037">
<time>2016-10-07T20:45:34Z</time></trkpt>
<trkpt lat="30.087928" lon="97.163098">
<time>2016-10-07T20:45:35Z</time></trkpt>
<trkpt lat="30.087718" lon="97.163228">
<time>2016-10-07T20:45:36Z</time></trkpt>
<trkpt lat="30.087298" lon="97.163438">
<time>2016-10-07T20:45:37Z</time></trkpt>
<trkpt lat="30.087069" lon="97.163568">
<time>2016-10-07T20:45:38Z</time></trkpt>
<trkpt lat="30.086869" lon="97.163659">
<time>2016-10-07T20:45:39Z</time></trkpt>
<trkpt lat="30.086719" lon="97.163729">
<time>2016-10-07T20:45:40Z</time></trkpt>
<trkpt lat="30.086549" lon="97.163789">
<time>2016-10-07T20:45:41Z</time></trkpt>
<trkpt lat="30.086369" lon="97.163829">
<time>2016-10-07T20:45:42Z</time></trkpt>
<trkpt lat="30.086099" lon="97.163879">
<time>2016-10-07T20:45:43Z</time></trkpt>
<trkpt lat="30.08472" lon="97.164129">
<time>2016-10-07T20:45:44Z</time></trkpt>
<trkpt lat="30.08452" lon="97.16417">
<time>2016-10-07T20:45:45Z</time></trkpt>
<trkpt lat="30.08438" lon="97.16421">
<time>2016-10-07T20:45:46Z</time></trkpt>
<trkpt lat="30.08424" lon="97.16423">
<time>2016-10-07T20:45:47Z</time></trkpt>
<trkpt lat="30.08411" lon="97.16424">
<time>2016-10-07T20:45:48Z</time></trkpt>
<trkpt lat="30.08403" lon="97.16423">
<time>2016-10-07T20:45:49Z</time></trkpt>
<trkpt lat="30.08392" lon="97.16421">
<time>2016-10-07T20:45:50Z</time></trkpt>
<trkpt lat="30.08353" lon="97.164069">
<time>2016-10-07T20:45:51Z</time></trkpt>
<trkpt lat="30.083379" lon="97.163999">
<time>2016-10-07T20:45:52Z</time></trkpt>
<trkpt lat="30.083259" lon="97.163949">
<time>2016-10-07T20:45:53Z</time></trkpt>
<trkpt lat="30.083089" lon="97.163899">
<time>2016-10-07T20:45:54Z</time></trkpt>
<trkpt lat="30.083039" lon="97.163879">
<time>2016-10-07T20:45:55Z</time></trkpt>
<trkpt lat="30.082959" lon="97.163859">
<time>2016-10-07T20:45:56Z</time></trkpt>
<trkpt lat="30.082809" lon="97.163839">
<time>2016-10-07T20:45:57Z</time></trkpt>
<trkpt lat="30.082659" lon="97.163829">
<time>2016-10-07T20:45:58Z</time></trkpt>
<trkpt lat="30.082519" lon="97.163829">
<time>2016-10-07T20:45:59Z</time></trkpt>
<trkpt lat="30.082359" lon="97.163849">
<time>2016-10-07T20:46:00Z</time></trkpt>
<trkpt lat="30.082219" lon="97.163889">
<time>2016-10-07T20:46:01Z</time></trkpt>
<trkpt lat="30.082069" lon="97.163959">
<time>2016-10-07T20:46:02Z</time></trkpt>
<trkpt lat="30.081969" lon="97.164009">
<time>2016-10-07T20:46:03Z</time></trkpt>
<trkpt lat="30.08178" lon="97.164099">
<time>2016-10-07T20:46:04Z</time></trkpt>
<trkpt lat="30.08155" lon="97.16421">
<time>2016-10-07T20:46:05Z</time></trkpt>
<trkpt lat="30.08135" lon="97.1643">
<time>2016-10-07T20:46:06Z</time></trkpt>
<trkpt lat="30.08122" lon="97.16435">
<time>2016-10-07T20:46:07Z</time></trkpt>
<trkpt lat="30.0811" lon="97.1644">
<time>2016-10-07T20:46:08Z</time></trkpt>
<trkpt lat="30.08085" lon="97.16448">
<time>2016-10-07T20:46:09Z</time></trkpt>
<trkpt lat="30.08059" lon="97.16457">
<time>2016-10-07T20:46:10Z</time></trkpt>
<trkpt lat="30.080321" lon="97.164651">
<time>2016-10-07T20:46:11Z</time></trkpt>
<trkpt lat="30.080041" lon="97.164741">
<time>2016-10-07T20:46:12Z</time></trkpt>
<trkpt lat="30.079841" lon="97.164811">
<time>2016-10-07T20:46:13Z</time></trkpt>
<trkpt lat="30.079711" lon="97.164841">
<time>2016-10-07T20:46:14Z</time></trkpt>
<trkpt lat="30.079611" lon="97.164871">
<time>2016-10-07T20:46:15Z</time></trkpt>
<trkpt lat="30.079501" lon="97.164891">
<time>2016-10-07T20:46:16Z</time></trkpt>
<trkpt lat="30.079411" lon="97.164901">
<time>2016-10-07T20:46:17Z</time></trkpt>
<trkpt lat="30.079291" lon="97.164921">
<time>2016-10-07T20:46:18Z</time></trkpt>
<trkpt lat="30.079151" lon="97.164921">
<time>2016-10-07T20:46:19Z</time></trkpt>
<trkpt lat="30.078981" lon="97.164911">
<time>2016-10-07T20:46:20Z</time></trkpt>
<trkpt lat="30.078831" lon="97.164891">
<time>2016-10-07T20:46:21Z</time></trkpt>
<trkpt lat="30.078741" lon="97.164881">
<time>2016-10-07T20:46:22Z</time></trkpt>
<trkpt lat="30.078641" lon="97.164861">
<time>2016-10-07T20:46:23Z</time></trkpt>
<trkpt lat="30.078461" lon="97.164831">
<time>2016-10-07T20:46:24Z</time></trkpt>
<trkpt lat="30.078281" lon="97.164791">
<time>2016-10-07T20:46:25Z</time></trkpt>
<trkpt lat="30.078141" lon="97.164741">
<time>2016-10-07T20:46:26Z</time></trkpt>
<trkpt lat="30.077961" lon="97.164671">
<time>2016-10-07T20:46:27Z</time></trkpt>
<trkpt lat="30.07737" lon="97.16441">
<time>2016-10-07T20:46:28Z</time></trkpt>
<trkpt lat="30.07717" lon="97.16432">
<time>2016-10-07T20:46:29Z</time></trkpt>
<trkpt lat="30.07706" lon="97.16428">
<time>2016-10-07T20:46:30Z</time></trkpt>
<trkpt lat="30.07695" lon="97.16424">
<time>2016-10-07T20:46:31Z</time></trkpt>
<trkpt lat="30.07685" lon="97.16422">
<time>2016-10-07T20:46:32Z</time></trkpt>
<trkpt lat="30.07672" lon="97.16421">
<time>2016-10-07T20:46:33Z</time></trkpt>
<trkpt lat="30.07657" lon="97.16421">
<time>2016-10-07T20:46:34Z</time></trkpt>
<trkpt lat="30.07559" lon="97.16421">
<time>2016-10-07T20:46:35Z</time></trkpt>
<trkpt lat="30.07497" lon="97.16422">
<time>2016-10-07T20:46:36Z</time></trkpt>
<trkpt lat="30.07457" lon="97.16422">
<time>2016-10-07T20:46:37Z</time></trkpt>
<trkpt lat="30.07415" lon="97.16422">
<time>2016-10-07T20:46:38Z</time></trkpt>
<trkpt lat="30.07405" lon="97.16421">
<time>2016-10-07T20:46:39Z</time></trkpt>
<trkpt lat="30.07397" lon="97.16419">
<time>2016-10-07T20:46:40Z</time></trkpt>
<trkpt lat="30.07389" lon="97.16417">
<time>2016-10-07T20:46:41Z</time></trkpt>
<trkpt lat="30.073739" lon="97.16412">
<time>2016-10-07T20:46:42Z</time></trkpt>
<trkpt lat="30.073589" lon="97.16405">
<time>2016-10-07T20:46:43Z</time></trkpt>
<trkpt lat="30.073299" lon="97.163899">
<time>2016-10-07T20:46:44Z</time></trkpt>
<trkpt lat="30.072949" lon="97.163699">
<time>2016-10-07T20:46:45Z</time></trkpt>
<trkpt lat="30.072758" lon="97.163579">
<time>2016-10-07T20:46:46Z</time></trkpt>
<trkpt lat="30.072568" lon="97.163438">
<time>2016-10-07T20:46:47Z</time></trkpt>
<trkpt lat="30.072398" lon="97.163278">
<time>2016-10-07T20:46:48Z</time></trkpt>
<trkpt lat="30.071897" lon="97.162797">
<time>2016-10-07T20:46:49Z</time></trkpt>
<trkpt lat="30.071596" lon="97.162507">
<time>2016-10-07T20:46:50Z</time></trkpt>
<trkpt lat="30.070955" lon="97.161906">
<time>2016-10-07T20:46:51Z</time></trkpt>
<trkpt lat="30.070775" lon="97.161745">
<time>2016-10-07T20:46:52Z</time></trkpt>
<trkpt lat="30.070585" lon="97.161595">
<time>2016-10-07T20:46:53Z</time></trkpt>
<trkpt lat="30.070274" lon="97.161355">
<time>2016-10-07T20:46:54Z</time></trkpt>
<trkpt lat="30.069713" lon="97.160884">
<time>2016-10-07T20:46:55Z</time></trkpt>
<trkpt lat="30.069613" lon="97.160784">
<time>2016-10-07T20:46:56Z</time></trkpt>
<trkpt lat="30.069483" lon="97.160633">
<time>2016-10-07T20:46:57Z</time></trkpt>
<trkpt lat="30.069413" lon="97.160533">
<time>2016-10-07T20:46:58Z</time></trkpt>
<trkpt lat="30.069312" lon="97.160363">
<time>2016-10-07T20:46:59Z</time></trkpt>
<trkpt lat="30.069152" lon="97.160042">
<time>2016-10-07T20:47:00Z</time></trkpt>
<trkpt lat="30.069072" lon="97.159882">
<time>2016-10-07T20:47:01Z</time></trkpt>
<trkpt lat="30.068981" lon="97.159732">
<time>2016-10-07T20:47:02Z</time></trkpt>
<trkpt lat="30.068851" lon="97.159561">
<time>2016-10-07T20:47:03Z</time></trkpt>
<trkpt lat="30.068691" lon="97.159391">
<time>2016-10-07T20:47:04Z</time></trkpt>
<trkpt lat="30.06852" lon="97.159221">
<time>2016-10-07T20:47:05Z</time></trkpt>
<trkpt lat="30.06839" lon="97.15909">
<time>2016-10-07T20:47:06Z</time></trkpt>
<trkpt lat="30.06827" lon="97.15895">
<time>2016-10-07T20:47:07Z</time></trkpt>
<trkpt lat="30.06815" lon="97.15883">
<time>2016-10-07T20:47:08Z</time></trkpt>
<trkpt lat="30.067869" lon="97.15859">
<time>2016-10-07T20:47:09Z</time></trkpt>
<trkpt lat="30.067659" lon="97.158419">
<time>2016-10-07T20:47:10Z</time></trkpt>
<trkpt lat="30.067429" lon="97.158199">
<time>2016-10-07T20:47:11Z</time></trkpt>
<trkpt lat="30.067128" lon="97.157958">
<time>2016-10-07T20:47:12Z</time></trkpt>
<trkpt lat="30.066898" lon="97.157778">
<time>2016-10-07T20:47:13Z</time></trkpt>
<trkpt lat="30.066808" lon="97.157708">
<time>2016-10-07T20:47:14Z</time></trkpt>
<trkpt lat="30.066718" lon="97.157668">
<time>2016-10-07T20:47:15Z</time></trkpt>
<trkpt lat="30.066637" lon="97.157638">
<time>2016-10-07T20:47:16Z</time></trkpt>
<trkpt lat="30.066557" lon="97.157618">
<time>2016-10-07T20:47:17Z</time></trkpt>
<trkpt lat="30.066157" lon="97.157598">
<time>2016-10-07T20:47:18Z</time></trkpt>
<trkpt lat="30.065957" lon="97.157578">
<time>2016-10-07T20:47:19Z</time></trkpt>
<trkpt lat="30.065787" lon="97.157538">
<time>2016-10-07T20:47:20Z</time></trkpt>
<trkpt lat="30.065657" lon="97.157508">
<time>2016-10-07T20:47:21Z</time></trkpt>
<trkpt lat="30.065497" lon="97.157458">
<time>2016-10-07T20:47:22Z</time></trkpt>
<trkpt lat="30.065377" lon="97.157397">
<time>2016-10-07T20:47:23Z</time></trkpt>
<trkpt lat="30.065197" lon="97.157287">
<time>2016-10-07T20:47:24Z</time></trkpt>
<trkpt lat="30.065077" lon="97.157217">
<time>2016-10-07T20:47:25Z</time></trkpt>
<trkpt lat="30.064967" lon="97.157177">
<time>2016-10-07T20:47:26Z</time></trkpt>
<trkpt lat="30.064877" lon="97.157147">
<time>2016-10-07T20:47:27Z</time></trkpt>
<trkpt lat="30.064747" lon="97.157127">
<time>2016-10-07T20:47:28Z</time></trkpt>
<trkpt lat="30.064517" lon="97.157107">
<time>2016-10-07T20:47:29Z</time></trkpt>
<trkpt lat="30.064266" lon="97.157087">
<time>2016-10-07T20:47:30Z</time></trkpt>
<trkpt lat="30.064096" lon="97.157087">
<time>2016-10-07T20:47:31Z</time></trkpt>
<trkpt lat="30.063916" lon="97.157087">
<time>2016-10-07T20:47:32Z</time></trkpt>
<trkpt lat="30.063736" lon="97.157067">
<time>2016-10-07T20:47:33Z</time></trkpt>
<trkpt lat="30.063486" lon="97.157027">
<time>2016-10-07T20:47:34Z</time></trkpt>
<trkpt lat="30.063286" lon="97.156997">
<time>2016-10-07T20:47:35Z</time></trkpt>
<trkpt lat="30.063086" lon="97.156957">
<time>2016-10-07T20:47:36Z</time></trkpt>
<trkpt lat="30.062646" lon="97.156826">
<time>2016-10-07T20:47:37Z</time></trkpt>
<trkpt lat="30.062466" lon="97.156776">
<time>2016-10-07T20:47:38Z</time></trkpt>
<trkpt lat="30.062326" lon="97.156746">
<time>2016-10-07T20:47:39Z</time></trkpt>
<trkpt lat="30.062206" lon="97.156746">
<time>2016-10-07T20:47:40Z</time></trkpt>
<trkpt lat="30.062106" lon="97.156756">
<time>2016-10-07T20:47:41Z</time></trkpt>
<trkpt lat="30.061996" lon="97.156806">
<time>2016-10-07T20:47:42Z</time></trkpt>
<trkpt lat="30.061856" lon="97.156867">
<time>2016-10-07T20:47:43Z</time></trkpt>
<trkpt lat="30.061546" lon="97.157027">
<time>2016-10-07T20:47:44Z</time></trkpt>
<trkpt lat="30.061316" lon="97.157117">
<time>2016-10-07T20:47:45Z</time></trkpt>
<trkpt lat="30.061117" lon="97.157177">
<time>2016-10-07T20:47:46Z</time></trkpt>
<trkpt lat="30.060887" lon="97.157207">
<time>2016-10-07T20:47:47Z</time></trkpt>
<trkpt lat="30.060557" lon="97.157227">
<time>2016-10-07T20:47:48Z</time></trkpt>
<trkpt lat="30.060257" lon="97.157217">
<time>2016-10-07T20:47:49Z</time></trkpt>
<trkpt lat="30.059917" lon="97.157217">
<time>2016-10-07T20:47:50Z</time></trkpt>
<trkpt lat="30.059687" lon="97.157237">
<time>2016-10-07T20:47:51Z</time></trkpt>
<trkpt lat="30.059367" lon="97.157287">
<time>2016-10-07T20:47:52Z</time></trkpt>
<trkpt lat="30.059167" lon="97.157307">
<time>2016-10-07T20:47:53Z</time></trkpt>
<trkpt lat="30.058977" lon="97.157307">
<time>2016-10-07T20:47:54Z</time></trkpt>
<trkpt lat="30.058817" lon="97.157277">
<time>2016-10-07T20:47:55Z</time></trkpt>
<trkpt lat="30.058567" lon="97.157217">
<time>2016-10-07T20:47:56Z</time></trkpt>
<trkpt lat="30.058247" lon="97.157157">
<time>2016-10-07T20:47:57Z</time></trkpt>
<trkpt lat="30.058056" lon="97.157117">
<time>2016-10-07T20:47:58Z</time></trkpt>
<trkpt lat="30.057896" lon="97.157107">
<time>2016-10-07T20:47:59Z</time></trkpt>
<trkpt lat="30.057676" lon="97.157127">
<time>2016-10-07T20:48:00Z</time></trkpt>
<trkpt lat="30.057476" lon="97.157127">
<time>2016-10-07T20:48:01Z</time></trkpt>
<trkpt lat="30.057296" lon="97.157097">
<time>2016-10-07T20:48:02Z</time></trkpt>
<trkpt lat="30.057146" lon="97.157057">
<time>2016-10-07T20:48:03Z</time></trkpt>
<trkpt lat="30.056996" lon="97.156987">
<time>2016-10-07T20:48:04Z</time></trkpt>
<trkpt lat="30.056716" lon="97.156847">
<time>2016-10-07T20:48:05Z</time></trkpt>
<trkpt lat="30.056376" lon="97.156676">
<time>2016-10-07T20:48:06Z</time></trkpt>
<trkpt lat="30.056165" lon="97.156556">
<time>2016-10-07T20:48:07Z</time></trkpt>
<trkpt lat="30.055995" lon="97.156506">
<time>2016-10-07T20:48:08Z</time></trkpt>
<trkpt lat="30.055815" lon="97.156466">
<time>2016-10-07T20:48:09Z</time></trkpt>
<trkpt lat="30.055625" lon="97.156436">
<time>2016-10-07T20:48:10Z</time></trkpt>
<trkpt lat="30.055345" lon="97.156386">
<time>2016-10-07T20:48:11Z</time></trkpt>
<trkpt lat="30.055195" lon="97.156336">
<time>2016-10-07T20:48:12Z</time></trkpt>
<trkpt lat="30.055025" lon="97.156266">
<time>2016-10-07T20:48:13Z</time></trkpt>
<trkpt lat="30.054815" lon="97.156155">
<time>2016-10-07T20:48:14Z</time></trkpt>
<trkpt lat="30.054665" lon="97.156085">
<time>2016-10-07T20:48:15Z</time></trkpt>
<trkpt lat="30.054524" lon="97.156035">
<time>2016-10-07T20:48:16Z</time></trkpt>
<trkpt lat="30.054364" lon="97.155985">
<time>2016-10-07T20:48:17Z</time></trkpt>
<trkpt lat="30.054284" lon="97.155975">
<time>2016-10-07T20:48:18Z</time></trkpt>
<trkpt lat="30.054174" lon="97.155955">
<time>2016-10-07T20:48:19Z</time></trkpt>
<trkpt lat="30.053974" lon="97.155945">
<time>2016-10-07T20:48:20Z</time></trkpt>
<trkpt lat="30.053774" lon="97.155935">
<time>2016-10-07T20:48:21Z</time></trkpt>
<trkpt lat="30.053574" lon="97.155915">
<time>2016-10-07T20:48:22Z</time></trkpt>
<trkpt lat="30.053334" lon="97.155885">
<time>2016-10-07T20:48:23Z</time></trkpt>
<trkpt lat="30.053174" lon="97.155835">
<time>2016-10-07T20:48:24Z</time></trkpt>
<trkpt lat="30.053024" lon="97.155795">
<time>2016-10-07T20:48:25Z</time></trkpt>
<trkpt lat="30.052664" lon="97.155625">
<time>2016-10-07T20:48:26Z</time></trkpt>
<trkpt lat="30.052243" lon="97.155434">
<time>2016-10-07T20:48:27Z</time></trkpt>
<trkpt lat="30.051863" lon="97.155264">
<time>2016-10-07T20:48:28Z</time></trkpt>
<trkpt lat="30.051623" lon="97.155154">
<time>2016-10-07T20:48:29Z</time></trkpt>
<trkpt lat="30.051253" lon="97.154983">
<time>2016-10-07T20:48:30Z</time></trkpt>
<trkpt lat="30.050942" lon="97.154823">
<time>2016-10-07T20:48:31Z</time></trkpt>
<trkpt lat="30.050762" lon="97.154733">
<time>2016-10-07T20:48:32Z</time></trkpt>
<trkpt lat="30.050592" lon="97.154643">
<time>2016-10-07T20:48:33Z</time></trkpt>
<trkpt lat="30.050452" lon="97.154573">
<time>2016-10-07T20:48:34Z</time></trkpt>
<trkpt lat="30.050342" lon="97.154513">
<time>2016-10-07T20:48:35Z</time></trkpt>
<trkpt lat="30.050252" lon="97.154473">
<time>2016-10-07T20:48:36Z</time></trkpt>
<trkpt lat="30.050182" lon="97.154442">
<time>2016-10-07T20:48:37Z</time></trkpt>
<trkpt lat="30.050051" lon="97.154392">
<time>2016-10-07T20:48:38Z</time></trkpt>
<trkpt lat="30.049921" lon="97.154352">
<time>2016-10-07T20:48:39Z</time></trkpt>
<trkpt lat="30.049741" lon="97.154302">
<time>2016-10-07T20:48:40Z</time></trkpt>
<trkpt lat="30.049561" lon="97.154252">
<time>2016-10-07T20:48:41Z</time></trkpt>
<trkpt lat="30.049441" lon="97.154222">
<time>2016-10-07T20:48:42Z</time></trkpt>
<trkpt lat="30.049311" lon="97.154182">
<time>2016-10-07T20:48:43Z</time></trkpt>
<trkpt lat="30.049171" lon="97.154132">
<time>2016-10-07T20:48:44Z</time></trkpt>
<trkpt lat="30.049031" lon="97.154062">
<time>2016-10-07T20:48:45Z</time></trkpt>
<trkpt lat="30.048841" lon="97.153962">
<time>2016-10-07T20:48:46Z</time></trkpt>
<trkpt lat="30.048711" lon="97.153902">
<time>2016-10-07T20:48:47Z</time></trkpt>
<trkpt lat="30.048601" lon="97.153861">
<time>2016-10-07T20:48:48Z</time></trkpt>
<trkpt lat="30.04842" lon="97.153831">
<time>2016-10-07T20:48:49Z</time></trkpt>
<trkpt lat="30.04818" lon="97.153791">
<time>2016-10-07T20:48:50Z</time></trkpt>
<trkpt lat="30.04793" lon="97.153751">
<time>2016-10-07T20:48:51Z</time></trkpt>
<trkpt lat="30.04776" lon="97.153711">
<time>2016-10-07T20:48:52Z</time></trkpt>
<trkpt lat="30.04763" lon="97.153691">
<time>2016-10-07T20:48:53Z</time></trkpt>
<trkpt lat="30.04747" lon="97.153661">
<time>2016-10-07T20:48:54Z</time></trkpt>
<trkpt lat="30.04733" lon="97.153641">
<time>2016-10-07T20:48:55Z</time></trkpt>
<trkpt lat="30.04721" lon="97.153611">
<time>2016-10-07T20:48:56Z</time></trkpt>
<trkpt lat="30.04709" lon="97.153591">
<time>2016-10-07T20:48:57Z</time></trkpt>
<trkpt lat="30.04697" lon="97.153571">
<time>2016-10-07T20:48:58Z</time></trkpt>
<trkpt lat="30.04685" lon="97.153541">
<time>2016-10-07T20:48:59Z</time></trkpt>
<trkpt lat="30.04673" lon="97.153511">
<time>2016-10-07T20:49:00Z</time></trkpt>
<trkpt lat="30.04666" lon="97.153481">
<time>2016-10-07T20:49:01Z</time></trkpt>
<trkpt lat="30.04661" lon="97.153451">
<time>2016-10-07T20:49:02Z</time></trkpt>
<trkpt lat="30.04654" lon="97.153421">
<time>2016-10-07T20:49:03Z</time></trkpt>
<trkpt lat="30.04644" lon="97.153361">
<time>2016-10-07T20:49:04Z</time></trkpt>
<trkpt lat="30.046339" lon="97.153301">
<time>2016-10-07T20:49:05Z</time></trkpt>
<trkpt lat="30.046219" lon="97.15322">
<time>2016-10-07T20:49:06Z</time></trkpt>
<trkpt lat="30.046109" lon="97.15314">
<time>2016-10-07T20:49:07Z</time></trkpt>
<trkpt lat="30.046049" lon="97.15309">
<time>2016-10-07T20:49:08Z</time></trkpt>
<trkpt lat="30.045969" lon="97.15301">
<time>2016-10-07T20:49:09Z</time></trkpt>
<trkpt lat="30.045889" lon="97.15292">
<time>2016-10-07T20:49:10Z</time></trkpt>
<trkpt lat="30.045829" lon="97.15283">
<time>2016-10-07T20:49:11Z</time></trkpt>
<trkpt lat="30.045768" lon="97.15273">
<time>2016-10-07T20:49:12Z</time></trkpt>
<trkpt lat="30.045708" lon="97.152619">
<time>2016-10-07T20:49:13Z</time></trkpt>
<trkpt lat="30.045668" lon="97.152549">
<time>2016-10-07T20:49:14Z</time></trkpt>
<trkpt lat="30.045628" lon="97.152479">
<time>2016-10-07T20:49:15Z</time></trkpt>
<trkpt lat="30.045568" lon="97.152409">
<time>2016-10-07T20:49:16Z</time></trkpt>
<trkpt lat="30.045518" lon="97.152359">
<time>2016-10-07T20:49:17Z</time></trkpt>
<trkpt lat="30.045458" lon="97.152299">
<time>2016-10-07T20:49:18Z</time></trkpt>
<trkpt lat="30.045378" lon="97.152239">
<time>2016-10-07T20:49:19Z</time></trkpt>
<trkpt lat="30.045308" lon="97.152199">
<time>2016-10-07T20:49:20Z</time></trkpt>
<trkpt lat="30.045227" lon="97.152149">
<time>2016-10-07T20:49:21Z</time></trkpt>
<trkpt lat="30.045147" lon="97.152119">
<time>2016-10-07T20:49:22Z</time></trkpt>
<trkpt lat="30.045087" lon="97.152088">
<time>2016-10-07T20:49:23Z</time></trkpt>
<trkpt lat="30.045037" lon="97.152078">
<time>2016-10-07T20:49:24Z</time></trkpt>
<trkpt lat="30.044997" lon="97.152068">
<time>2016-10-07T20:49:25Z</time></trkpt>
<trkpt lat="30.044957" lon="97.152068">
<time>2016-10-07T20:49:26Z</time></trkpt>
<trkpt lat="30.044877" lon="97.152058">
<time>2016-10-07T20:49:27Z</time></trkpt>
<trkpt lat="30.044797" lon="97.152058">
<time>2016-10-07T20:49:28Z</time></trkpt>
<trkpt lat="30.044747" lon="97.152048">
<time>2016-10-07T20:49:29Z</time></trkpt>
<trkpt lat="30.044687" lon="97.152038">
<time>2016-10-07T20:49:30Z</time></trkpt>
<trkpt lat="30.044637" lon="97.152008">
<time>2016-10-07T20:49:31Z</time></trkpt>
<trkpt lat="30.044587" lon="97.151978">
<time>2016-10-07T20:49:32Z</time></trkpt>
<trkpt lat="30.044537" lon="97.151938">
<time>2016-10-07T20:49:33Z</time></trkpt>
<trkpt lat="30.044397" lon="97.151808">
<time>2016-10-07T20:49:34Z</time></trkpt>
<trkpt lat="30.044237" lon="97.151648">
<time>2016-10-07T20:49:35Z</time></trkpt>
<trkpt lat="30.044096" lon="97.151518">
<time>2016-10-07T20:49:36Z</time></trkpt>
<trkpt lat="30.043936" lon="97.151377">
<time>2016-10-07T20:49:37Z</time></trkpt>
<trkpt lat="30.043786" lon="97.151247">
<time>2016-10-07T20:49:38Z</time></trkpt>
<trkpt lat="30.043646" lon="97.151097">
<time>2016-10-07T20:49:39Z</time></trkpt>
<trkpt lat="30.043485" lon="97.150916">
<time>2016-10-07T20:49:40Z</time></trkpt>
<trkpt lat="30.043395" lon="97.150816">
<time>2016-10-07T20:49:41Z</time></trkpt>
<trkpt lat="30.043315" lon="97.150736">
<time>2016-10-07T20:49:42Z</time></trkpt>
<trkpt lat="30.043165" lon="97.150606">
<time>2016-10-07T20:49:43Z</time></trkpt>
<trkpt lat="30.042944" lon="97.150426">
<time>2016-10-07T20:49:44Z</time></trkpt>
<trkpt lat="30.042844" lon="97.150336">
<time>2016-10-07T20:49:45Z</time></trkpt>
<trkpt lat="30.042774" lon="97.150255">
<time>2016-10-07T20:49:46Z</time></trkpt>
<trkpt lat="30.042704" lon="97.150165">
<time>2016-10-07T20:49:47Z</time></trkpt>
<trkpt lat="30.042554" lon="97.149955">
<time>2016-10-07T20:49:48Z</time></trkpt>
<trkpt lat="30.042453" lon="97.149815">
<time>2016-10-07T20:49:49Z</time></trkpt>
<trkpt lat="30.042353" lon="97.149674">
<time>2016-10-07T20:49:50Z</time></trkpt>
<trkpt lat="30.042223" lon="97.149524">
<time>2016-10-07T20:49:51Z</time></trkpt>
<trkpt lat="30.042063" lon="97.149364">
<time>2016-10-07T20:49:52Z</time></trkpt>
<trkpt lat="30.041812" lon="97.149134">
<time>2016-10-07T20:49:53Z</time></trkpt>
<trkpt lat="30.041602" lon="97.148953">
<time>2016-10-07T20:49:54Z</time></trkpt>
<trkpt lat="30.041462" lon="97.148823">
<time>2016-10-07T20:49:55Z</time></trkpt>
<trkpt lat="30.041372" lon="97.148763">
<time>2016-10-07T20:49:56Z</time></trkpt>
<trkpt lat="30.041302" lon="97.148713">
<time>2016-10-07T20:49:57Z</time></trkpt>
<trkpt lat="30.041191" lon="97.148653">
<time>2016-10-07T20:49:58Z</time></trkpt>
<trkpt lat="30.041051" lon="97.148583">
<time>2016-10-07T20:49:59Z</time></trkpt>
<trkpt lat="30.040841" lon="97.148482">
<time>2016-10-07T20:50:00Z</time></trkpt>
<trkpt lat="30.040691" lon="97.148422">
<time>2016-10-07T20:50:01Z</time></trkpt>
<trkpt lat="30.040591" lon="97.148372">
<time>2016-10-07T20:50:02Z</time></trkpt>
<trkpt lat="30.040431" lon="97.148282">
<time>2016-10-07T20:50:03Z</time></trkpt>
<trkpt lat="30.040231" lon="97.148112">
<time>2016-10-07T20:50:04Z</time></trkpt>
<trkpt lat="30.04006" lon="97.147972">
<time>2016-10-07T20:50:05Z</time></trkpt>
<trkpt lat="30.04" lon="97.147922">
<time>2016-10-07T20:50:06Z</time></trkpt>
<trkpt lat="30.03994" lon="97.147892">
<time>2016-10-07T20:50:07Z</time></trkpt>
<trkpt lat="30.03973" lon="97.147761">
<time>2016-10-07T20:50:08Z</time></trkpt>
<trkpt lat="30.03951" lon="97.147631">
<time>2016-10-07T20:50:09Z</time></trkpt>
<trkpt lat="30.03939" lon="97.147551">
<time>2016-10-07T20:50:10Z</time></trkpt>
<trkpt lat="30.039299" lon="97.147481">
<time>2016-10-07T20:50:11Z</time></trkpt>
<trkpt lat="30.039229" lon="97.147411">
<time>2016-10-07T20:50:12Z</time></trkpt>
<trkpt lat="30.039179" lon="97.147361">
<time>2016-10-07T20:50:13Z</time></trkpt>
<trkpt lat="30.039129" lon="97.147301">
<time>2016-10-07T20:50:14Z</time></trkpt>
<trkpt lat="30.039059" lon="97.14721">
<time>2016-10-07T20:50:15Z</time></trkpt>
<trkpt lat="30.038999" lon="97.14711">
<time>2016-10-07T20:50:16Z</time></trkpt>
<trkpt lat="30.038868" lon="97.14689">
<time>2016-10-07T20:50:17Z</time></trkpt>
<trkpt lat="30.038738" lon="97.14668">
<time>2016-10-07T20:50:18Z</time></trkpt>
<trkpt lat="30.038678" lon="97.146579">
<time>2016-10-07T20:50:19Z</time></trkpt>
<trkpt lat="30.038618" lon="97.146489">
<time>2016-10-07T20:50:20Z</time></trkpt>
<trkpt lat="30.038528" lon="97.146369">
<time>2016-10-07T20:50:21Z</time></trkpt>
<trkpt lat="30.038427" lon="97.146249">
<time>2016-10-07T20:50:22Z</time></trkpt>
<trkpt lat="30.038237" lon="97.146008">
<time>2016-10-07T20:50:23Z</time></trkpt>
<trkpt lat="30.038027" lon="97.145778">
<time>2016-10-07T20:50:24Z</time></trkpt>
<trkpt lat="30.037836" lon="97.145558">
<time>2016-10-07T20:50:25Z</time></trkpt>
<trkpt lat="30.037706" lon="97.145418">
<time>2016-10-07T20:50:26Z</time></trkpt>
<trkpt lat="30.037576" lon="97.145267">
<time>2016-10-07T20:50:27Z</time></trkpt>
<trkpt lat="30.037395" lon="97.145047">
<time>2016-10-07T20:50:28Z</time></trkpt>
<trkpt lat="30.037215" lon="97.144837">
<time>2016-10-07T20:50:29Z</time></trkpt>
<trkpt lat="30.037065" lon="97.144646">
<time>2016-10-07T20:50:30Z</time></trkpt>
<trkpt lat="30.036905" lon="97.144466">
<time>2016-10-07T20:50:31Z</time></trkpt>
<trkpt lat="30.036614" lon="97.144116">
<time>2016-10-07T20:50:32Z</time></trkpt>
<trkpt lat="30.036374" lon="97.143845">
<time>2016-10-07T20:50:33Z</time></trkpt>
<trkpt lat="30.036163" lon="97.143615">
<time>2016-10-07T20:50:34Z</time></trkpt>
<trkpt lat="30.035973" lon="97.143384">
<time>2016-10-07T20:50:35Z</time></trkpt>
<trkpt lat="30.035772" lon="97.143164">
<time>2016-10-07T20:50:36Z</time></trkpt>
<trkpt lat="30.035632" lon="97.143014">
<time>2016-10-07T20:50:37Z</time></trkpt>
<trkpt lat="30.035562" lon="97.142924">
<time>2016-10-07T20:50:38Z</time></trkpt>
<trkpt lat="30.035492" lon="97.142814">
<time>2016-10-07T20:50:39Z</time></trkpt>
<trkpt lat="30.035442" lon="97.142723">
<time>2016-10-07T20:50:40Z</time></trkpt>
<trkpt lat="30.035392" lon="97.142613">
<time>2016-10-07T20:50:41Z</time></trkpt>
<trkpt lat="30.035331" lon="97.142483">
<time>2016-10-07T20:50:42Z</time></trkpt>
<trkpt lat="30.035271" lon="97.142353">
<time>2016-10-07T20:50:43Z</time></trkpt>
<trkpt lat="30.035241" lon="97.142253">
<time>2016-10-07T20:50:44Z</time></trkpt>
<trkpt lat="30.035181" lon="97.142062">
<time>2016-10-07T20:50:45Z</time></trkpt>
<trkpt lat="30.03511" lon="97.141842">
<time>2016-10-07T20:50:46Z</time></trkpt>
<trkpt lat="30.03504" lon="97.141622">
<time>2016-10-07T20:50:47Z</time></trkpt>
<trkpt lat="30.03501" lon="97.141522">
<time>2016-10-07T20:50:48Z</time></trkpt>
<trkpt lat="30.03499" lon="97.141421">
<time>2016-10-07T20:50:49Z</time></trkpt>
<trkpt lat="30.03498" lon="97.141331">
<time>2016-10-07T20:50:50Z</time></trkpt>
<trkpt lat="30.034969" lon="97.141231">
<time>2016-10-07T20:50:51Z</time></trkpt>
<trkpt lat="30.034959" lon="97.141091">
<time>2016-10-07T20:50:52Z</time></trkpt>
<trkpt lat="30.034949" lon="97.140881">
<time>2016-10-07T20:50:53Z</time></trkpt>
<trkpt lat="30.034939" lon="97.14072">
<time>2016-10-07T20:50:54Z</time></trkpt>
<trkpt lat="30.034928" lon="97.14057">
<time>2016-10-07T20:50:55Z</time></trkpt>
<trkpt lat="30.034908" lon="97.14043">
<time>2016-10-07T20:50:56Z</time></trkpt>
<trkpt lat="30.034878" lon="97.14027">
<time>2016-10-07T20:50:57Z</time></trkpt>
<trkpt lat="30.034838" lon="97.1401">
<time>2016-10-07T20:50:58Z</time></trkpt>
<trkpt lat="30.034727" lon="97.139779">
<time>2016-10-07T20:50:59Z</time></trkpt>
<trkpt lat="30.034577" lon="97.139348">
<time>2016-10-07T20:51:00Z</time></trkpt>
<trkpt lat="30.034436" lon="97.138928">
<time>2016-10-07T20:51:01Z</time></trkpt>
<trkpt lat="30.034356" lon="97.138688">
<time>2016-10-07T20:51:02Z</time></trkpt>
<trkpt lat="30.034295" lon="97.138467">
<time>2016-10-07T20:51:03Z</time></trkpt>
<trkpt lat="30.034225" lon="97.138297">
<time>2016-10-07T20:51:04Z</time></trkpt>
<trkpt lat="30.034175" lon="97.138197">
<time>2016-10-07T20:51:05Z</time></trkpt>
<trkpt lat="30.034105" lon="97.138067">
<time>2016-10-07T20:51:06Z</time></trkpt>
<trkpt lat="30.034065" lon="97.137987">
<time>2016-10-07T20:51:07Z</time></trkpt>
<trkpt lat="30.033954" lon="97.137816">
<time>2016-10-07T20:51:08Z</time></trkpt>
<trkpt lat="30.033744" lon="97.137496">
<time>2016-10-07T20:51:09Z</time></trkpt>
<trkpt lat="30.033413" lon="97.136995">
<time>2016-10-07T20:51:10Z</time></trkpt>
<trkpt lat="30.033233" lon="97.136735">
<time>2016-10-07T20:51:11Z</time></trkpt>
<trkpt lat="30.032972" lon="97.136344">
<time>2016-10-07T20:51:12Z</time></trkpt>
<trkpt lat="30.032742" lon="97.135984">
<time>2016-10-07T20:51:13Z</time></trkpt>
<trkpt lat="30.032551" lon="97.135703">
<time>2016-10-07T20:51:14Z</time></trkpt>
<trkpt lat="30.032421" lon="97.135493">
<time>2016-10-07T20:51:15Z</time></trkpt>
<trkpt lat="30.032351" lon="97.135383">
<time>2016-10-07T20:51:16Z</time></trkpt>
<trkpt lat="30.032271" lon="97.135273">
<time>2016-10-07T20:51:17Z</time></trkpt>
<trkpt lat="30.0321" lon="97.135083">
<time>2016-10-07T20:51:18Z</time></trkpt>
<trkpt lat="30.03186" lon="97.134832">
<time>2016-10-07T20:51:19Z</time></trkpt>
<trkpt lat="30.03155" lon="97.134532">
<time>2016-10-07T20:51:20Z</time></trkpt>
<trkpt lat="30.031309" lon="97.134302">
<time>2016-10-07T20:51:21Z</time></trkpt>
<trkpt lat="30.031099" lon="97.134101">
<time>2016-10-07T20:51:22Z</time></trkpt>
<trkpt lat="30.030929" lon="97.133931">
<time>2016-10-07T20:51:23Z</time></trkpt>
<trkpt lat="30.030819" lon="97.133831">
<time>2016-10-07T20:51:24Z</time></trkpt>
<trkpt lat="30.030749" lon="97.133741">
<time>2016-10-07T20:51:25Z</time></trkpt>
<trkpt lat="30.030688" lon="97.133641">
<time>2016-10-07T20:51:26Z</time></trkpt>
<trkpt lat="30.030648" lon="97.133561">
<time>2016-10-07T20:51:27Z</time></trkpt>
<trkpt lat="30.030588" lon="97.133441">
<time>2016-10-07T20:51:28Z</time></trkpt>
<trkpt lat="30.030538" lon="97.13333">
<time>2016-10-07T20:51:29Z</time></trkpt>
<trkpt lat="30.030478" lon="97.13322">
<time>2016-10-07T20:51:30Z</time></trkpt>
<trkpt lat="30.030368" lon="97.13303">
<time>2016-10-07T20:51:31Z</time></trkpt>
<trkpt lat="30.030287" lon="97.13285">
<time>2016-10-07T20:51:32Z</time></trkpt>
<trkpt lat="30.030237" lon="97.13273">
<time>2016-10-07T20:51:33Z</time></trkpt>
<trkpt lat="30.030207" lon="97.13261">
<time>2016-10-07T20:51:34Z</time></trkpt>
<trkpt lat="30.030187" lon="97.132469">
<time>2016-10-07T20:51:35Z</time></trkpt>
<trkpt lat="30.030167" lon="97.132349">
<time>2016-10-07T20:51:36Z</time></trkpt>
<trkpt lat="30.030156" lon="97.132099">
<time>2016-10-07T20:51:37Z</time></trkpt>
<trkpt lat="30.030136" lon="97.131989">
<time>2016-10-07T20:51:38Z</time></trkpt>
<trkpt lat="30.030106" lon="97.131879">
<time>2016-10-07T20:51:39Z</time></trkpt>
<trkpt lat="30.030056" lon="97.131779">
<time>2016-10-07T20:51:40Z</time></trkpt>
<trkpt lat="30.029956" lon="97.131648">
<time>2016-10-07T20:51:41Z</time></trkpt>
<trkpt lat="30.029746" lon="97.131428">
<time>2016-10-07T20:51:42Z</time></trkpt>
<trkpt lat="30.029675" lon="97.131358">
<time>2016-10-07T20:51:43Z</time></trkpt>
<trkpt lat="30.029605" lon="97.131278">
<time>2016-10-07T20:51:44Z</time></trkpt>
<trkpt lat="30.029525" lon="97.131158">
<time>2016-10-07T20:51:45Z</time></trkpt>
<trkpt lat="30.029455" lon="97.131018">
<time>2016-10-07T20:51:46Z</time></trkpt>
<trkpt lat="30.029325" lon="97.130677">
<time>2016-10-07T20:51:47Z</time></trkpt>
<trkpt lat="30.029134" lon="97.130167">
<time>2016-10-07T20:51:48Z</time></trkpt>
<trkpt lat="30.029074" lon="97.130027">
<time>2016-10-07T20:51:49Z</time></trkpt>
<trkpt lat="30.029014" lon="97.129916">
<time>2016-10-07T20:51:50Z</time></trkpt>
<trkpt lat="30.028913" lon="97.129766">
<time>2016-10-07T20:51:51Z</time></trkpt>
<trkpt lat="30.028843" lon="97.129666">
<time>2016-10-07T20:51:52Z</time></trkpt>
<trkpt lat="30.028783" lon="97.129596">
<time>2016-10-07T20:51:53Z</time></trkpt>
<trkpt lat="30.028543" lon="97.129396">
<time>2016-10-07T20:51:54Z</time></trkpt>
<trkpt lat="30.028293" lon="97.129166">
<time>2016-10-07T20:51:55Z</time></trkpt>
<trkpt lat="30.027982" lon="97.128825">
<time>2016-10-07T20:51:56Z</time></trkpt>
<trkpt lat="30.027732" lon="97.128425">
<time>2016-10-07T20:51:57Z</time></trkpt>
<trkpt lat="30.027561" lon="97.128165">
<time>2016-10-07T20:51:58Z</time></trkpt>
<trkpt lat="30.027461" lon="97.127994">
<time>2016-10-07T20:51:59Z</time></trkpt>
<trkpt lat="30.027241" lon="97.127674">
<time>2016-10-07T20:52:00Z</time></trkpt>
<trkpt lat="30.027051" lon="97.127424">
<time>2016-10-07T20:52:01Z</time></trkpt>
<trkpt lat="30.02691" lon="97.127274">
<time>2016-10-07T20:52:02Z</time></trkpt>
<trkpt lat="30.02665" lon="97.127003">
<time>2016-10-07T20:52:03Z</time></trkpt>
<trkpt lat="30.02642" lon="97.126783">
<time>2016-10-07T20:52:04Z</time></trkpt>
<trkpt lat="30.02625" lon="97.126653">
<time>2016-10-07T20:52:05Z</time></trkpt>
<trkpt lat="30.02613" lon="97.126553">
<time>2016-10-07T20:52:06Z</time></trkpt>
<trkpt lat="30.026" lon="97.126473">
<time>2016-10-07T20:52:07Z</time></trkpt>
<trkpt lat="30.025749" lon="97.126323">
<time>2016-10-07T20:52:08Z</time></trkpt>
<trkpt lat="30.025449" lon="97.126142">
<time>2016-10-07T20:52:09Z</time></trkpt>
<trkpt lat="30.025059" lon="97.125912">
<time>2016-10-07T20:52:10Z</time></trkpt>
<trkpt lat="30.024899" lon="97.125802">
<time>2016-10-07T20:52:11Z</time></trkpt>
<trkpt lat="30.024749" lon="97.125662">
<time>2016-10-07T20:52:12Z</time></trkpt>
<trkpt lat="30.024588" lon="97.125472">
<time>2016-10-07T20:52:13Z</time></trkpt>
<trkpt lat="30.024518" lon="97.125372">
<time>2016-10-07T20:52:14Z</time></trkpt>
<trkpt lat="30.024448" lon="97.125262">
<time>2016-10-07T20:52:15Z</time></trkpt>
<trkpt lat="30.024348" lon="97.125051">
<time>2016-10-07T20:52:16Z</time></trkpt>
<trkpt lat="30.024238" lon="97.124741">
<time>2016-10-07T20:52:17Z</time></trkpt>
<trkpt lat="30.024017" lon="97.124081">
<time>2016-10-07T20:52:18Z</time></trkpt>
<trkpt lat="30.023977" lon="97.124">
<time>2016-10-07T20:52:19Z</time></trkpt>
<trkpt lat="30.023937" lon="97.12391">
<time>2016-10-07T20:52:20Z</time></trkpt>
<trkpt lat="30.023897" lon="97.12386">
<time>2016-10-07T20:52:21Z</time></trkpt>
<trkpt lat="30.023847" lon="97.12382">
<time>2016-10-07T20:52:22Z</time></trkpt>
<trkpt lat="30.023807" lon="97.12379">
<time>2016-10-07T20:52:23Z</time></trkpt>
<trkpt lat="30.023777" lon="97.12377">
<time>2016-10-07T20:52:24Z</time></trkpt>
<trkpt lat="30.023737" lon="97.12375">
<time>2016-10-07T20:52:25Z</time></trkpt>
<trkpt lat="30.023687" lon="97.12374">
<time>2016-10-07T20:52:26Z</time></trkpt>
<trkpt lat="30.023647" lon="97.12374">
<time>2016-10-07T20:52:27Z</time></trkpt>
<trkpt lat="30.023607" lon="97.12374">
<time>2016-10-07T20:52:28Z</time></trkpt>
<trkpt lat="30.023537" lon="97.12374">
<time>2016-10-07T20:52:29Z</time></trkpt>
<trkpt lat="30.023467" lon="97.12376">
<time>2016-10-07T20:52:30Z</time></trkpt>
<trkpt lat="30.023267" lon="97.1238">
<time>2016-10-07T20:52:31Z</time></trkpt>
<trkpt lat="30.023177" lon="97.12382">
<time>2016-10-07T20:52:32Z</time></trkpt>
<trkpt lat="30.023087" lon="97.12383">
<time>2016-10-07T20:52:33Z</time></trkpt>
<trkpt lat="30.023047" lon="97.12383">
<time>2016-10-07T20:52:34Z</time></trkpt>
<trkpt lat="30.023017" lon="97.12383">
<time>2016-10-07T20:52:35Z</time></trkpt>
<trkpt lat="30.022977" lon="97.12382">
<time>2016-10-07T20:52:36Z</time></trkpt>
<trkpt lat="30.022937" lon="97.1238">
<time>2016-10-07T20:52:37Z</time></trkpt>
<trkpt lat="30.022907" lon="97.12379">
<time>2016-10-07T20:52:38Z</time></trkpt>
<trkpt lat="30.022877" lon="97.12376">
<time>2016-10-07T20:52:39Z</time></trkpt>
<trkpt lat="30.022837" lon="97.12373">
<time>2016-10-07T20:52:40Z</time></trkpt>
<trkpt lat="30.022786" lon="97.12368">
<time>2016-10-07T20:52:41Z</time></trkpt>
<trkpt lat="30.022676" lon="97.12353">
<time>2016-10-07T20:52:42Z</time></trkpt>
<trkpt lat="30.022516" lon="97.12328">
<time>2016-10-07T20:52:43Z</time></trkpt>
<trkpt lat="30.021985" lon="97.122429">
<time>2016-10-07T20:52:44Z</time></trkpt>
<trkpt lat="30.021615" lon="97.121839">
<time>2016-10-07T20:52:45Z</time></trkpt>
<trkpt lat="30.021484" lon="97.121668">
<time>2016-10-07T20:52:46Z</time></trkpt>
<trkpt lat="30.021284" lon="97.121488">
<time>2016-10-07T20:52:47Z</time></trkpt>
<trkpt lat="30.020814" lon="97.121098">
<time>2016-10-07T20:52:48Z</time></trkpt>
<trkpt lat="30.020404" lon="97.120758">
<time>2016-10-07T20:52:49Z</time></trkpt>
<trkpt lat="30.020133" lon="97.120528">
<time>2016-10-07T20:52:50Z</time></trkpt>
<trkpt lat="30.020053" lon="97.120438">
<time>2016-10-07T20:52:51Z</time></trkpt>
<trkpt lat="30.020003" lon="97.120347">
<time>2016-10-07T20:52:52Z</time></trkpt>
<trkpt lat="30.019963" lon="97.120227">
<time>2016-10-07T20:52:53Z</time></trkpt>
<trkpt lat="30.019943" lon="97.120107">
<time>2016-10-07T20:52:54Z</time></trkpt>
<trkpt lat="30.019953" lon="97.119997">
<time>2016-10-07T20:52:55Z</time></trkpt>
<trkpt lat="30.019963" lon="97.119897">
<time>2016-10-07T20:52:56Z</time></trkpt>
<trkpt lat="30.019993" lon="97.119787">
<time>2016-10-07T20:52:57Z</time></trkpt>
<trkpt lat="30.020043" lon="97.119627">
<time>2016-10-07T20:52:58Z</time></trkpt>
<trkpt lat="30.020172" lon="97.119287">
<time>2016-10-07T20:52:59Z</time></trkpt>
<trkpt lat="30.020282" lon="97.118976">
<time>2016-10-07T20:53:00Z</time></trkpt>
<trkpt lat="30.020342" lon="97.118796">
<time>2016-10-07T20:53:01Z</time></trkpt>
<trkpt lat="30.020382" lon="97.118606">
<time>2016-10-07T20:53:02Z</time></trkpt>
<trkpt lat="30.020382" lon="97.118436">
<time>2016-10-07T20:53:03Z</time></trkpt>
<trkpt lat="30.020351" lon="97.118236">
<time>2016-10-07T20:53:04Z</time></trkpt>
<trkpt lat="30.020201" lon="97.117575">
<time>2016-10-07T20:53:05Z</time></trkpt>
<trkpt lat="30.020121" lon="97.117205">
<time>2016-10-07T20:53:06Z</time></trkpt>
<trkpt lat="30.02005" lon="97.116815">
<time>2016-10-07T20:53:07Z</time></trkpt>
<trkpt lat="30.02004" lon="97.116555">
<time>2016-10-07T20:53:08Z</time></trkpt>
<trkpt lat="30.02006" lon="97.116335">
<time>2016-10-07T20:53:09Z</time></trkpt>
<trkpt lat="30.02011" lon="97.116125">
<time>2016-10-07T20:53:10Z</time></trkpt>
<trkpt lat="30.02023" lon="97.115894">
<time>2016-10-07T20:53:11Z</time></trkpt>
<trkpt lat="30.020399" lon="97.115624">
<time>2016-10-07T20:53:12Z</time></trkpt>
<trkpt lat="30.020579" lon="97.115374">
<time>2016-10-07T20:53:13Z</time></trkpt>
<trkpt lat="30.021129" lon="97.114654">
<time>2016-10-07T20:53:14Z</time></trkpt>
<trkpt lat="30.021388" lon="97.114314">
<time>2016-10-07T20:53:15Z</time></trkpt>
<trkpt lat="30.021698" lon="97.113833">
<time>2016-10-07T20:53:16Z</time></trkpt>
<trkpt lat="30.022108" lon="97.113173">
<time>2016-10-07T20:53:17Z</time></trkpt>
<trkpt lat="30.022267" lon="97.112903">
<time>2016-10-07T20:53:18Z</time></trkpt>
<trkpt lat="30.022407" lon="97.112663">
<time>2016-10-07T20:53:19Z</time></trkpt>
<trkpt lat="30.022487" lon="97.112393">
<time>2016-10-07T20:53:20Z</time></trkpt>
<trkpt lat="30.022557" lon="97.112133">
<time>2016-10-07T20:53:21Z</time></trkpt>
<trkpt lat="30.022617" lon="97.111922">
<time>2016-10-07T20:53:22Z</time></trkpt>
<trkpt lat="30.022677" lon="97.111742">
<time>2016-10-07T20:53:23Z</time></trkpt>
<trkpt lat="30.022747" lon="97.111552">
<time>2016-10-07T20:53:24Z</time></trkpt>
<trkpt lat="30.022827" lon="97.111442">
<time>2016-10-07T20:53:25Z</time></trkpt>
<trkpt lat="30.022927" lon="97.111342">
<time>2016-10-07T20:53:26Z</time></trkpt>
<trkpt lat="30.023156" lon="97.111202">
<time>2016-10-07T20:53:27Z</time></trkpt>
<trkpt lat="30.024106" lon="97.110632">
<time>2016-10-07T20:53:28Z</time></trkpt>
<trkpt lat="30.024766" lon="97.110242">
<time>2016-10-07T20:53:29Z</time></trkpt>
<trkpt lat="30.025116" lon="97.110032">
<time>2016-10-07T20:53:30Z</time></trkpt>
<trkpt lat="30.025276" lon="97.109912">
<time>2016-10-07T20:53:31Z</time></trkpt>
<trkpt lat="30.025396" lon="97.109792">
<time>2016-10-07T20:53:32Z</time></trkpt>
<trkpt lat="30.025456" lon="97.109672">
<time>2016-10-07T20:53:33Z</time></trkpt>
<trkpt lat="30.025586" lon="97.109402">
<time>2016-10-07T20:53:34Z</time></trkpt>
<trkpt lat="30.025775" lon="97.108971">
<time>2016-10-07T20:53:35Z</time></trkpt>
<trkpt lat="30.025905" lon="97.108741">
<time>2016-10-07T20:53:36Z</time></trkpt>
<trkpt lat="30.026105" lon="97.108421">
<time>2016-10-07T20:53:37Z</time></trkpt>
<trkpt lat="30.026435" lon="97.107951">
<time>2016-10-07T20:53:38Z</time></trkpt>
<trkpt lat="30.026535" lon="97.107781">
<time>2016-10-07T20:53:39Z</time></trkpt>
<trkpt lat="30.026585" lon="97.107671">
<time>2016-10-07T20:53:40Z</time></trkpt>
<trkpt lat="30.026615" lon="97.107581">
<time>2016-10-07T20:53:41Z</time></trkpt>
<trkpt lat="30.026635" lon="97.107471">
<time>2016-10-07T20:53:42Z</time></trkpt>
<trkpt lat="30.026645" lon="97.107371">
<time>2016-10-07T20:53:43Z</time></trkpt>
<trkpt lat="30.026634" lon="97.107101">
<time>2016-10-07T20:53:44Z</time></trkpt>
<trkpt lat="30.026654" lon="97.106801">
<time>2016-10-07T20:53:45Z</time></trkpt>
<trkpt lat="30.026684" lon="97.106561">
<time>2016-10-07T20:53:46Z</time></trkpt>
<trkpt lat="30.026724" lon="97.106341">
<time>2016-10-07T20:53:47Z</time></trkpt>
<trkpt lat="30.026794" lon="97.106071">
<time>2016-10-07T20:53:48Z</time></trkpt>
<trkpt lat="30.026994" lon="97.105581">
<time>2016-10-07T20:53:49Z</time></trkpt>
<trkpt lat="30.027084" lon="97.105341">
<time>2016-10-07T20:53:50Z</time></trkpt>
<trkpt lat="30.027134" lon="97.105171">
<time>2016-10-07T20:53:51Z</time></trkpt>
<trkpt lat="30.027144" lon="97.105011">
<time>2016-10-07T20:53:52Z</time></trkpt>
<trkpt lat="30.027144" lon="97.104701">
<time>2016-10-07T20:53:53Z</time></trkpt>
<trkpt lat="30.027134" lon="97.104321">
<time>2016-10-07T20:53:54Z</time></trkpt>
<trkpt lat="30.027123" lon="97.103901">
<time>2016-10-07T20:53:55Z</time></trkpt>
<trkpt lat="30.027133" lon="97.103651">
<time>2016-10-07T20:53:56Z</time></trkpt>
<trkpt lat="30.027163" lon="97.103411">
<time>2016-10-07T20:53:57Z</time></trkpt>
<trkpt lat="30.027253" lon="97.102891">
<time>2016-10-07T20:53:58Z</time></trkpt>
<trkpt lat="30.027323" lon="97.102501">
<time>2016-10-07T20:53:59Z</time></trkpt>
<trkpt lat="30.027413" lon="97.101941">
<time>2016-10-07T20:54:00Z</time></trkpt>
<trkpt lat="30.027503" lon="97.101361">
<time>2016-10-07T20:54:01Z</time></trkpt>
<trkpt lat="30.027603" lon="97.100741">
<time>2016-10-07T20:54:02Z</time></trkpt>
<trkpt lat="30.027643" lon="97.100471">
<time>2016-10-07T20:54:03Z</time></trkpt>
<trkpt lat="30.027713" lon="97.100291">
<time>2016-10-07T20:54:04Z</time></trkpt>
<trkpt lat="30.027813" lon="97.100131">
<time>2016-10-07T20:54:05Z</time></trkpt>
<trkpt lat="30.027953" lon="97.099981">
<time>2016-10-07T20:54:06Z</time></trkpt>
<trkpt lat="30.028113" lon="97.099861">
<time>2016-10-07T20:54:07Z</time></trkpt>
<trkpt lat="30.028263" lon="97.099741">
<time>2016-10-07T20:54:08Z</time></trkpt>
<trkpt lat="30.028373" lon="97.099641">
<time>2016-10-07T20:54:09Z</time></trkpt>
<trkpt lat="30.028463" lon="97.099521">
<time>2016-10-07T20:54:10Z</time></trkpt>
<trkpt lat="30.028533" lon="97.099361">
<time>2016-10-07T20:54:11Z</time></trkpt>
<trkpt lat="30.028583" lon="97.099161">
<time>2016-10-07T20:54:12Z</time></trkpt>
<trkpt lat="30.028593" lon="97.099011">
<time>2016-10-07T20:54:13Z</time></trkpt>
<trkpt lat="30.028573" lon="97.098841">
<time>2016-10-07T20:54:14Z</time></trkpt>
<trkpt lat="30.028513" lon="97.098661">
<time>2016-10-07T20:54:15Z</time></trkpt>
<trkpt lat="30.028453" lon="97.098531">
<time>2016-10-07T20:54:16Z</time></trkpt>
<trkpt lat="30.028333" lon="97.098371">
<time>2016-10-07T20:54:17Z</time></trkpt>
<trkpt lat="30.027973" lon="97.097991">
<time>2016-10-07T20:54:18Z</time></trkpt>
<trkpt lat="30.027873" lon="97.097841">
<time>2016-10-07T20:54:19Z</time></trkpt>
<trkpt lat="30.027813" lon="97.097721">
<time>2016-10-07T20:54:20Z</time></trkpt>
<trkpt lat="30.027773" lon="97.097591">
<time>2016-10-07T20:54:21Z</time></trkpt>
<trkpt lat="30.027773" lon="97.097392">
<time>2016-10-07T20:54:22Z</time></trkpt>
<trkpt lat="30.027823" lon="97.096992">
<time>2016-10-07T20:54:23Z</time></trkpt>
<trkpt lat="30.028053" lon="97.095182">
<time>2016-10-07T20:54:24Z</time></trkpt>
<trkpt lat="30.028143" lon="97.094433">
<time>2016-10-07T20:54:25Z</time></trkpt>
<trkpt lat="30.028263" lon="97.093583">
<time>2016-10-07T20:54:26Z</time></trkpt>
<trkpt lat="30.028303" lon="97.093113">
<time>2016-10-07T20:54:27Z</time></trkpt>
<trkpt lat="30.028303" lon="97.092843">
<time>2016-10-07T20:54:28Z</time></trkpt>
<trkpt lat="30.028263" lon="97.091354">
<time>2016-10-07T20:54:29Z</time></trkpt>
<trkpt lat="30.028244" lon="97.090505">
<time>2016-10-07T20:54:30Z</time></trkpt>
<trkpt lat="30.028234" lon="97.090145">
<time>2016-10-07T20:54:31Z</time></trkpt>
<trkpt lat="30.028194" lon="97.089925">
<time>2016-10-07T20:54:32Z</time></trkpt>
<trkpt lat="30.028134" lon="97.089755">
<time>2016-10-07T20:54:33Z</time></trkpt>
<trkpt lat="30.028034" lon="97.089555">
<time>2016-10-07T20:54:34Z</time></trkpt>
<trkpt lat="30.027704" lon="97.088966">
<time>2016-10-07T20:54:35Z</time></trkpt>
<trkpt lat="30.027534" lon="97.088596">
<time>2016-10-07T20:54:36Z</time></trkpt>
<trkpt lat="30.027455" lon="97.088326">
<time>2016-10-07T20:54:37Z</time></trkpt>
<trkpt lat="30.027415" lon="97.088067">
<time>2016-10-07T20:54:38Z</time></trkpt>
<trkpt lat="30.027305" lon="97.087117">
<time>2016-10-07T20:54:39Z</time></trkpt>
<trkpt lat="30.027255" lon="97.086838">
<time>2016-10-07T20:54:40Z</time></trkpt>
<trkpt lat="30.027195" lon="97.086598">
<time>2016-10-07T20:54:41Z</time></trkpt>
<trkpt lat="30.027085" lon="97.086298">
<time>2016-10-07T20:54:42Z</time></trkpt>
<trkpt lat="30.026996" lon="97.086078">
<time>2016-10-07T20:54:43Z</time></trkpt>
<trkpt lat="30.026826" lon="97.085689">
<time>2016-10-07T20:54:44Z</time></trkpt>
<trkpt lat="30.026676" lon="97.085289">
<time>2016-10-07T20:54:45Z</time></trkpt>
<trkpt lat="30.026626" lon="97.085069">
<time>2016-10-07T20:54:46Z</time></trkpt>
<trkpt lat="30.026596" lon="97.084869">
<time>2016-10-07T20:54:47Z</time></trkpt>
<trkpt lat="30.026566" lon="97.08454">
<time>2016-10-07T20:54:48Z</time></trkpt>
<trkpt lat="30.026547" lon="97.08412">
<time>2016-10-07T20:54:49Z</time></trkpt>
<trkpt lat="30.026547" lon="97.083441">
<time>2016-10-07T20:54:50Z</time></trkpt>
<trkpt lat="30.026527" lon="97.083211">
<time>2016-10-07T20:54:51Z</time></trkpt>
<trkpt lat="30.026467" lon="97.082971">
<time>2016-10-07T20:54:52Z</time></trkpt>
<trkpt lat="30.026278" lon="97.082352">
<time>2016-10-07T20:54:53Z</time></trkpt>
<trkpt lat="30.026018" lon="97.081553">
<time>2016-10-07T20:54:54Z</time></trkpt>
<trkpt lat="30.025889" lon="97.081173">
<time>2016-10-07T20:54:55Z</time></trkpt>
<trkpt lat="30.025799" lon="97.080943">
<time>2016-10-07T20:54:56Z</time></trkpt>
<trkpt lat="30.025689" lon="97.080734">
<time>2016-10-07T20:54:57Z</time></trkpt>
<trkpt lat="30.025489" lon="97.080434">
<time>2016-10-07T20:54:58Z</time></trkpt>
<trkpt lat="30.02518" lon="97.080015">
<time>2016-10-07T20:54:59Z</time></trkpt>
<trkpt lat="30.02488" lon="97.079605">
<time>2016-10-07T20:55:00Z</time></trkpt>
<trkpt lat="30.02448" lon="97.079076">
<time>2016-10-07T20:55:01Z</time></trkpt>
<trkpt lat="30.02435" lon="97.078856">
<time>2016-10-07T20:55:02Z</time></trkpt>
<trkpt lat="30.024271" lon="97.078676">
<time>2016-10-07T20:55:03Z</time></trkpt>
<trkpt lat="30.024231" lon="97.078516">
<time>2016-10-07T20:55:04Z</time></trkpt>
<trkpt lat="30.024221" lon="97.078287">
<time>2016-10-07T20:55:05Z</time></trkpt>
<trkpt lat="30.024271" lon="97.077697">
<time>2016-10-07T20:55:06Z</time></trkpt>
<trkpt lat="30.024352" lon="97.076978">
<time>2016-10-07T20:55:07Z</time></trkpt>
<trkpt lat="30.024392" lon="97.076589">
<time>2016-10-07T20:55:08Z</time></trkpt>
<trkpt lat="30.024383" lon="97.076379">
<time>2016-10-07T20:55:09Z</time></trkpt>
<trkpt lat="30.024353" lon="97.07616">
<time>2016-10-07T20:55:10Z</time></trkpt>
<trkpt lat="30.024293" lon="97.07598">
<time>2016-10-07T20:55:11Z</time></trkpt>
<trkpt lat="30.024193" lon="97.0758">
<time>2016-10-07T20:55:12Z</time></trkpt>
<trkpt lat="30.023993" lon="97.07554">
<time>2016-10-07T20:55:13Z</time></trkpt>
<trkpt lat="30.023394" lon="97.074802">
<time>2016-10-07T20:55:14Z</time></trkpt>
<trkpt lat="30.022895" lon="97.074182">
<time>2016-10-07T20:55:15Z</time></trkpt>
<trkpt lat="30.022515" lon="97.073723">
<time>2016-10-07T20:55:16Z</time></trkpt>
<trkpt lat="30.022296" lon="97.073404">
<time>2016-10-07T20:55:17Z</time></trkpt>
<trkpt lat="30.022026" lon="97.072944">
<time>2016-10-07T20:55:18Z</time></trkpt>
<trkpt lat="30.021717" lon="97.072365">
<time>2016-10-07T20:55:19Z</time></trkpt>
<trkpt lat="30.021627" lon="97.072216">
<time>2016-10-07T20:55:20Z</time></trkpt>
<trkpt lat="30.021018" lon="97.071127">
<time>2016-10-07T20:55:21Z</time></trkpt>
<trkpt lat="30.0203" lon="97.06982">
<time>2016-10-07T20:55:22Z</time></trkpt>
<trkpt lat="30.019831" lon="97.068981">
<time>2016-10-07T20:55:23Z</time></trkpt>
<trkpt lat="30.019362" lon="97.068133">
<time>2016-10-07T20:55:24Z</time></trkpt>
<trkpt lat="30.019103" lon="97.067673">
<time>2016-10-07T20:55:25Z</time></trkpt>
<trkpt lat="30.018783" lon="97.067074">
<time>2016-10-07T20:55:26Z</time></trkpt>
<trkpt lat="30.018564" lon="97.066665">
<time>2016-10-07T20:55:27Z</time></trkpt>
<trkpt lat="30.018365" lon="97.066246">
<time>2016-10-07T20:55:28Z</time></trkpt>
<trkpt lat="30.018145" lon="97.065777">
<time>2016-10-07T20:55:29Z</time></trkpt>
<trkpt lat="30.017986" lon="97.065448">
<time>2016-10-07T20:55:30Z</time></trkpt>
<trkpt lat="30.017866" lon="97.065208">
<time>2016-10-07T20:55:31Z</time></trkpt>
<trkpt lat="30.017776" lon="97.065048">
<time>2016-10-07T20:55:32Z</time></trkpt>
<trkpt lat="30.017656" lon="97.064889">
<time>2016-10-07T20:55:33Z</time></trkpt>
<trkpt lat="30.017477" lon="97.064719">
<time>2016-10-07T20:55:34Z</time></trkpt>
<trkpt lat="30.017167" lon="97.06443">
<time>2016-10-07T20:55:35Z</time></trkpt>
<trkpt lat="30.016748" lon="97.06403">
<time>2016-10-07T20:55:36Z</time></trkpt>
<trkpt lat="30.016418" lon="97.063721">
<time>2016-10-07T20:55:37Z</time></trkpt>
<trkpt lat="30.016079" lon="97.063452">
<time>2016-10-07T20:55:38Z</time></trkpt>
<trkpt lat="30.015739" lon="97.063202">
<time>2016-10-07T20:55:39Z</time></trkpt>
<trkpt lat="30.015399" lon="97.062933">
<time>2016-10-07T20:55:40Z</time></trkpt>
<trkpt lat="30.01522" lon="97.062763">
<time>2016-10-07T20:55:41Z</time></trkpt>
<trkpt lat="30.01505" lon="97.062583">
<time>2016-10-07T20:55:42Z</time></trkpt>
<trkpt lat="30.01478" lon="97.062234">
<time>2016-10-07T20:55:43Z</time></trkpt>
<trkpt lat="30.014601" lon="97.061975">
<time>2016-10-07T20:55:44Z</time></trkpt>
<trkpt lat="30.014491" lon="97.061795">
<time>2016-10-07T20:55:45Z</time></trkpt>
<trkpt lat="30.014411" lon="97.061625">
<time>2016-10-07T20:55:46Z</time></trkpt>
<trkpt lat="30.014372" lon="97.061436">
<time>2016-10-07T20:55:47Z</time></trkpt>
<trkpt lat="30.014362" lon="97.061236">
<time>2016-10-07T20:55:48Z</time></trkpt>
<trkpt lat="30.014402" lon="97.061017">
<time>2016-10-07T20:55:49Z</time></trkpt>
<trkpt lat="30.014493" lon="97.060657">
<time>2016-10-07T20:55:50Z</time></trkpt>
<trkpt lat="30.014614" lon="97.060198">
<time>2016-10-07T20:55:51Z</time></trkpt>
<trkpt lat="30.014765" lon="97.0596">
<time>2016-10-07T20:55:52Z</time></trkpt>
<trkpt lat="30.014855" lon="97.05927">
<time>2016-10-07T20:55:53Z</time></trkpt>
<trkpt lat="30.014996" lon="97.058752">
<time>2016-10-07T20:55:54Z</time></trkpt>
<trkpt lat="30.015097" lon="97.058372">
<time>2016-10-07T20:55:55Z</time></trkpt>
<trkpt lat="30.015157" lon="97.058153">
<time>2016-10-07T20:55:56Z</time></trkpt>
<trkpt lat="30.015258" lon="97.057864">
<time>2016-10-07T20:55:57Z</time></trkpt>
<trkpt lat="30.015368" lon="97.057664">
<time>2016-10-07T20:55:58Z</time></trkpt>
<trkpt lat="30.015458" lon="97.057544">
<time>2016-10-07T20:55:59Z</time></trkpt>
<trkpt lat="30.015579" lon="97.057425">
<time>2016-10-07T20:56:00Z</time></trkpt>
<trkpt lat="30.015889" lon="97.057155">
<time>2016-10-07T20:56:01Z</time></trkpt>
<trkpt lat="30.016149" lon="97.056936">
<time>2016-10-07T20:56:02Z</time></trkpt>
<trkpt lat="30.01649" lon="97.056646">
<time>2016-10-07T20:56:03Z</time></trkpt>
<trkpt lat="30.01677" lon="97.056397">
<time>2016-10-07T20:56:04Z</time></trkpt>
<trkpt lat="30.017201" lon="97.056038">
<time>2016-10-07T20:56:05Z</time></trkpt>
<trkpt lat="30.017461" lon="97.055808">
<time>2016-10-07T20:56:06Z</time></trkpt>
<trkpt lat="30.017612" lon="97.055649">
<time>2016-10-07T20:56:07Z</time></trkpt>
<trkpt lat="30.017772" lon="97.055439">
<time>2016-10-07T20:56:08Z</time></trkpt>
<trkpt lat="30.018123" lon="97.054901">
<time>2016-10-07T20:56:09Z</time></trkpt>
<trkpt lat="30.018394" lon="97.054482">
<time>2016-10-07T20:56:10Z</time></trkpt>
<trkpt lat="30.018615" lon="97.054093">
<time>2016-10-07T20:56:11Z</time></trkpt>
<trkpt lat="30.018896" lon="97.053534">
<time>2016-10-07T20:56:12Z</time></trkpt>
<trkpt lat="30.019147" lon="97.053035">
<time>2016-10-07T20:56:13Z</time></trkpt>
<trkpt lat="30.019378" lon="97.052546">
<time>2016-10-07T20:56:14Z</time></trkpt>
<trkpt lat="30.019669" lon="97.051878">
<time>2016-10-07T20:56:15Z</time></trkpt>
<trkpt lat="30.01989" lon="97.051369">
<time>2016-10-07T20:56:16Z</time></trkpt>
<trkpt lat="30.020061" lon="97.05104">
<time>2016-10-07T20:56:17Z</time></trkpt>
<trkpt lat="30.020372" lon="97.050492">
<time>2016-10-07T20:56:18Z</time></trkpt>
<trkpt lat="30.020733" lon="97.049873">
<time>2016-10-07T20:56:19Z</time></trkpt>
<trkpt lat="30.020924" lon="97.049554">
<time>2016-10-07T20:56:20Z</time></trkpt>
<trkpt lat="30.021114" lon="97.049225">
<time>2016-10-07T20:56:21Z</time></trkpt>
<trkpt lat="30.021155" lon="97.049125">
<time>2016-10-07T20:56:22Z</time></trkpt>
<trkpt lat="30.021175" lon="97.049065">
<time>2016-10-07T20:56:23Z</time></trkpt>
<trkpt lat="30.021175" lon="97.049006">
<time>2016-10-07T20:56:24Z</time></trkpt>
<trkpt lat="30.021165" lon="97.048946">
<time>2016-10-07T20:56:25Z</time></trkpt>
<trkpt lat="30.021145" lon="97.048886">
<time>2016-10-07T20:56:26Z</time></trkpt>
<trkpt lat="30.021105" lon="97.048836">
<time>2016-10-07T20:56:27Z</time></trkpt>
<trkpt lat="30.021065" lon="97.048806">
<time>2016-10-07T20:56:28Z</time></trkpt>
<trkpt lat="30.021005" lon="97.048776">
<time>2016-10-07T20:56:29Z</time></trkpt>
<trkpt lat="30.020855" lon="97.048746">
<time>2016-10-07T20:56:30Z</time></trkpt>
<trkpt lat="30.020625" lon="97.048726">
<time>2016-10-07T20:56:31Z</time></trkpt>
<trkpt lat="30.020415" lon="97.048696">
<time>2016-10-07T20:56:32Z</time></trkpt>
<trkpt lat="30.020216" lon="97.048657">
<time>2016-10-07T20:56:33Z</time></trkpt>
<trkpt lat="30.020056" lon="97.048607">
<time>2016-10-07T20:56:34Z</time></trkpt>
<trkpt lat="30.019906" lon="97.048527">
<time>2016-10-07T20:56:35Z</time></trkpt>
<trkpt lat="30.019766" lon="97.048417">
<time>2016-10-07T20:56:36Z</time></trkpt>
<trkpt lat="30.019646" lon="97.048288">
<time>2016-10-07T20:56:37Z</time></trkpt>
<trkpt lat="30.019477" lon="97.048048">
<time>2016-10-07T20:56:38Z</time></trkpt>
<trkpt lat="30.019307" lon="97.047759">
<time>2016-10-07T20:56:39Z</time></trkpt>
<trkpt lat="30.019088" lon="97.04738">
<time>2016-10-07T20:56:40Z</time></trkpt>
<trkpt lat="30.018969" lon="97.047151">
<time>2016-10-07T20:56:41Z</time></trkpt>
<trkpt lat="30.018859" lon="97.046862">
<time>2016-10-07T20:56:42Z</time></trkpt>
<trkpt lat="30.01874" lon="97.046473">
<time>2016-10-07T20:56:43Z</time></trkpt>
<trkpt lat="30.018512" lon="97.045685">
<time>2016-10-07T20:56:44Z</time></trkpt>
<trkpt lat="30.018294" lon="97.044907">
<time>2016-10-07T20:56:45Z</time></trkpt>
<trkpt lat="30.018115" lon="97.044289">
<time>2016-10-07T20:56:46Z</time></trkpt>
<trkpt lat="30.017946" lon="97.043691">
<time>2016-10-07T20:56:47Z</time></trkpt>
<trkpt lat="30.017857" lon="97.043312">
<time>2016-10-07T20:56:48Z</time></trkpt>
<trkpt lat="30.017838" lon="97.043022">
<time>2016-10-07T20:56:49Z</time></trkpt>
<trkpt lat="30.017858" lon="97.042793">
<time>2016-10-07T20:56:50Z</time></trkpt>
<trkpt lat="30.017889" lon="97.042634">
<time>2016-10-07T20:56:51Z</time></trkpt>
<trkpt lat="30.017969" lon="97.042404">
<time>2016-10-07T20:56:52Z</time></trkpt>
<trkpt lat="30.01811" lon="97.042145">
<time>2016-10-07T20:56:53Z</time></trkpt>
<trkpt lat="30.018261" lon="97.041856">
<time>2016-10-07T20:56:54Z</time></trkpt>
<trkpt lat="30.018361" lon="97.041647">
<time>2016-10-07T20:56:55Z</time></trkpt>
<trkpt lat="30.018462" lon="97.041417">
<time>2016-10-07T20:56:56Z</time></trkpt>
<trkpt lat="30.018562" lon="97.041118">
<time>2016-10-07T20:56:57Z</time></trkpt>
<trkpt lat="30.018734" lon="97.04055">
<time>2016-10-07T20:56:58Z</time></trkpt>
<trkpt lat="30.018976" lon="97.039772">
<time>2016-10-07T20:56:59Z</time></trkpt>
<trkpt lat="30.019197" lon="97.038965">
<time>2016-10-07T20:57:00Z</time></trkpt>
<trkpt lat="30.019379" lon="97.038287">
<time>2016-10-07T20:57:01Z</time></trkpt>
<trkpt lat="30.01945" lon="97.037988">
<time>2016-10-07T20:57:02Z</time></trkpt>
<trkpt lat="30.01949" lon="97.037758">
<time>2016-10-07T20:57:03Z</time></trkpt>
<trkpt lat="30.019521" lon="97.037499">
<time>2016-10-07T20:57:04Z</time></trkpt>
<trkpt lat="30.019532" lon="97.03723">
<time>2016-10-07T20:57:05Z</time></trkpt>
<trkpt lat="30.019542" lon="97.036921">
<time>2016-10-07T20:57:06Z</time></trkpt>
<trkpt lat="30.019563" lon="97.036761">
<time>2016-10-07T20:57:07Z</time></trkpt>
<trkpt lat="30.019613" lon="97.036602">
<time>2016-10-07T20:57:08Z</time></trkpt>
<trkpt lat="30.019684" lon="97.036452">
<time>2016-10-07T20:57:09Z</time></trkpt>
<trkpt lat="30.019834" lon="97.036203">
<time>2016-10-07T20:57:10Z</time></trkpt>
<trkpt lat="30.019995" lon="97.035974">
<time>2016-10-07T20:57:11Z</time></trkpt>
<trkpt lat="30.020226" lon="97.035625">
<time>2016-10-07T20:57:12Z</time></trkpt>
<trkpt lat="30.020296" lon="97.035495">
<time>2016-10-07T20:57:13Z</time></trkpt>
<trkpt lat="30.020346" lon="97.035376">
<time>2016-10-07T20:57:14Z</time></trkpt>
<trkpt lat="30.020397" lon="97.035236">
<time>2016-10-07T20:57:15Z</time></trkpt>
<trkpt lat="30.020457" lon="97.035007">
<time>2016-10-07T20:57:16Z</time></trkpt>
<trkpt lat="30.020558" lon="97.034598">
<time>2016-10-07T20:57:17Z</time></trkpt>
<trkpt lat="30.020639" lon="97.034349">
<time>2016-10-07T20:57:18Z</time></trkpt>
<trkpt lat="30.02078" lon="97.03391">
<time>2016-10-07T20:57:19Z</time></trkpt>
<trkpt lat="30.020881" lon="97.033661">
<time>2016-10-07T20:57:20Z</time></trkpt>
<trkpt lat="30.021072" lon="97.033213">
<time>2016-10-07T20:57:21Z</time></trkpt>
<trkpt lat="30.021223" lon="97.032864">
<time>2016-10-07T20:57:22Z</time></trkpt>
<trkpt lat="30.021293" lon="97.032684">
<time>2016-10-07T20:57:23Z</time></trkpt>
<trkpt lat="30.021364" lon="97.032465">
<time>2016-10-07T20:57:24Z</time></trkpt>
<trkpt lat="30.021384" lon="97.032276">
<time>2016-10-07T20:57:25Z</time></trkpt>
<trkpt lat="30.021405" lon="97.032057">
<time>2016-10-07T20:57:26Z</time></trkpt>
<trkpt lat="30.021406" lon="97.031518">
<time>2016-10-07T20:57:27Z</time></trkpt>
<trkpt lat="30.021417" lon="97.031329">
<time>2016-10-07T20:57:28Z</time></trkpt>
<trkpt lat="30.021437" lon="97.03114">
<time>2016-10-07T20:57:29Z</time></trkpt>
<trkpt lat="30.021488" lon="97.03093">
<time>2016-10-07T20:57:30Z</time></trkpt>
<trkpt lat="30.021579" lon="97.030681">
<time>2016-10-07T20:57:31Z</time></trkpt>
<trkpt lat="30.021709" lon="97.030362">
<time>2016-10-07T20:57:32Z</time></trkpt>
<trkpt lat="30.021951" lon="97.029834">
<time>2016-10-07T20:57:33Z</time></trkpt>
<trkpt lat="30.022212" lon="97.029266">
<time>2016-10-07T20:57:34Z</time></trkpt>
<trkpt lat="30.022353" lon="97.029007">
<time>2016-10-07T20:57:35Z</time></trkpt>
<trkpt lat="30.022795" lon="97.028329">
<time>2016-10-07T20:57:36Z</time></trkpt>
<trkpt lat="30.023096" lon="97.027841">
<time>2016-10-07T20:57:37Z</time></trkpt>
<trkpt lat="30.023347" lon="97.027432">
<time>2016-10-07T20:57:38Z</time></trkpt>
<trkpt lat="30.023578" lon="97.027073">
<time>2016-10-07T20:57:39Z</time></trkpt>
<trkpt lat="30.023759" lon="97.026824">
<time>2016-10-07T20:57:40Z</time></trkpt>
<trkpt lat="30.024" lon="97.026475">
<time>2016-10-07T20:57:41Z</time></trkpt>
<trkpt lat="30.024301" lon="97.026027">
<time>2016-10-07T20:57:42Z</time></trkpt>
<trkpt lat="30.024532" lon="97.025698">
<time>2016-10-07T20:57:43Z</time></trkpt>
<trkpt lat="30.024663" lon="97.025538">
<time>2016-10-07T20:57:44Z</time></trkpt>
<trkpt lat="30.024833" lon="97.025369">
<time>2016-10-07T20:57:45Z</time></trkpt>
<trkpt lat="30.025094" lon="97.02515">
<time>2016-10-07T20:57:46Z</time></trkpt>
<trkpt lat="30.025334" lon="97.024951">
<time>2016-10-07T20:57:47Z</time></trkpt>
<trkpt lat="30.025625" lon="97.024681">
<time>2016-10-07T20:57:48Z</time></trkpt>
<trkpt lat="30.025775" lon="97.024512">
<time>2016-10-07T20:57:49Z</time></trkpt>
<trkpt lat="30.025896" lon="97.024353">
<time>2016-10-07T20:57:50Z</time></trkpt>
<trkpt lat="30.025996" lon="97.024163">
<time>2016-10-07T20:57:51Z</time></trkpt>
<trkpt lat="30.026278" lon="97.023685">
<time>2016-10-07T20:57:52Z</time></trkpt>
<trkpt lat="30.026619" lon="97.023087">
<time>2016-10-07T20:57:53Z</time></trkpt>
<trkpt lat="30.027011" lon="97.022449">
<time>2016-10-07T20:57:54Z</time></trkpt>
<trkpt lat="30.027534" lon="97.021532">
<time>2016-10-07T20:57:55Z</time></trkpt>
<trkpt lat="30.027966" lon="97.020805">
<time>2016-10-07T20:57:56Z</time></trkpt>
<trkpt lat="30.028348" lon="97.020147">
<time>2016-10-07T20:57:57Z</time></trkpt>
<trkpt lat="30.028629" lon="97.019659">
<time>2016-10-07T20:57:58Z</time></trkpt>
<trkpt lat="30.02887" lon="97.019251">
<time>2016-10-07T20:57:59Z</time></trkpt>
<trkpt lat="30.029192" lon="97.018693">
<time>2016-10-07T20:58:00Z</time></trkpt>
<trkpt lat="30.029353" lon="97.018414">
<time>2016-10-07T20:58:01Z</time></trkpt>
<trkpt lat="30.029684" lon="97.017856">
<time>2016-10-07T20:58:02Z</time></trkpt>
<trkpt lat="30.029905" lon="97.017497">
<time>2016-10-07T20:58:03Z</time></trkpt>
<trkpt lat="30.030116" lon="97.017238">
<time>2016-10-07T20:58:04Z</time></trkpt>
<trkpt lat="30.030257" lon="97.017088">
<time>2016-10-07T20:58:05Z</time></trkpt>
<trkpt lat="30.030818" lon="97.01656">
<time>2016-10-07T20:58:06Z</time></trkpt>
<trkpt lat="30.030979" lon="97.016421">
<time>2016-10-07T20:58:07Z</time></trkpt>
<trkpt lat="30.031149" lon="97.016301">
<time>2016-10-07T20:58:08Z</time></trkpt>
<trkpt lat="30.03172" lon="97.015972">
<time>2016-10-07T20:58:09Z</time></trkpt>
<trkpt lat="30.032361" lon="97.015614">
<time>2016-10-07T20:58:10Z</time></trkpt>
<trkpt lat="30.033052" lon="97.015225">
<time>2016-10-07T20:58:11Z</time></trkpt>
<trkpt lat="30.034074" lon="97.014657">
<time>2016-10-07T20:58:12Z</time></trkpt>
<trkpt lat="30.034605" lon="97.014358">
<time>2016-10-07T20:58:13Z</time></trkpt>
<trkpt lat="30.035546" lon="97.01384">
<time>2016-10-07T20:58:14Z</time></trkpt>
<trkpt lat="30.035937" lon="97.013621">
<time>2016-10-07T20:58:15Z</time></trkpt>
<trkpt lat="30.036127" lon="97.013501">
<time>2016-10-07T20:58:16Z</time></trkpt>
<trkpt lat="30.036238" lon="97.013412">
<time>2016-10-07T20:58:17Z</time></trkpt>
<trkpt lat="30.036318" lon="97.013312">
<time>2016-10-07T20:58:18Z</time></trkpt>
<trkpt lat="30.036529" lon="97.013003">
<time>2016-10-07T20:58:19Z</time></trkpt>
<trkpt lat="30.036709" lon="97.012774">
<time>2016-10-07T20:58:20Z</time></trkpt>
<trkpt lat="30.03686" lon="97.012645">
<time>2016-10-07T20:58:21Z</time></trkpt>
<trkpt lat="30.03704" lon="97.012535">
<time>2016-10-07T20:58:22Z</time></trkpt>
<trkpt lat="30.03725" lon="97.012455">
<time>2016-10-07T20:58:23Z</time></trkpt>
<trkpt lat="30.037661" lon="97.012306">
<time>2016-10-07T20:58:24Z</time></trkpt>
<trkpt lat="30.038121" lon="97.012127">
<time>2016-10-07T20:58:25Z</time></trkpt>
<trkpt lat="30.038512" lon="97.011967">
<time>2016-10-07T20:58:26Z</time></trkpt>
<trkpt lat="30.038923" lon="97.011758">
<time>2016-10-07T20:58:27Z</time></trkpt>
<trkpt lat="30.039453" lon="97.011519">
<time>2016-10-07T20:58:28Z</time></trkpt>
<trkpt lat="30.039804" lon="97.011379">
<time>2016-10-07T20:58:29Z</time></trkpt>
<trkpt lat="30.040204" lon="97.01123">
<time>2016-10-07T20:58:30Z</time></trkpt>
<trkpt lat="30.040655" lon="97.01105">
<time>2016-10-07T20:58:31Z</time></trkpt>
<trkpt lat="30.040985" lon="97.010921">
<time>2016-10-07T20:58:32Z</time></trkpt>
<trkpt lat="30.041416" lon="97.010732">
<time>2016-10-07T20:58:33Z</time></trkpt>
<trkpt lat="30.041816" lon="97.010522">
<time>2016-10-07T20:58:34Z</time></trkpt>
<trkpt lat="30.042387" lon="97.010233">
<time>2016-10-07T20:58:35Z</time></trkpt>
<trkpt lat="30.042608" lon="97.010114">
<time>2016-10-07T20:58:36Z</time></trkpt>
<trkpt lat="30.042828" lon="97.009984">
<time>2016-10-07T20:58:37Z</time></trkpt>
<trkpt lat="30.043018" lon="97.009845">
<time>2016-10-07T20:58:38Z</time></trkpt>
<trkpt lat="30.043279" lon="97.009606">
<time>2016-10-07T20:58:39Z</time></trkpt>
<trkpt lat="30.04367" lon="97.009217">
<time>2016-10-07T20:58:40Z</time></trkpt>
<trkpt lat="30.043981" lon="97.008938">
<time>2016-10-07T20:58:41Z</time></trkpt>
<trkpt lat="30.044201" lon="97.008799">
<time>2016-10-07T20:58:42Z</time></trkpt>
<trkpt lat="30.044412" lon="97.008699">
<time>2016-10-07T20:58:43Z</time></trkpt>
<trkpt lat="30.044712" lon="97.00858">
<time>2016-10-07T20:58:44Z</time></trkpt>
<trkpt lat="30.045043" lon="97.00845">
<time>2016-10-07T20:58:45Z</time></trkpt>
<trkpt lat="30.045213" lon="97.00836">
<time>2016-10-07T20:58:46Z</time></trkpt>
<trkpt lat="30.045343" lon="97.008261">
<time>2016-10-07T20:58:47Z</time></trkpt>
<trkpt lat="30.045484" lon="97.008121">
<time>2016-10-07T20:58:48Z</time></trkpt>
<trkpt lat="30.045744" lon="97.007832">
<time>2016-10-07T20:58:49Z</time></trkpt>
<trkpt lat="30.045975" lon="97.007593">
<time>2016-10-07T20:58:50Z</time></trkpt>
<trkpt lat="30.046236" lon="97.007304">
<time>2016-10-07T20:58:51Z</time></trkpt>
<trkpt lat="30.046527" lon="97.006996">
<time>2016-10-07T20:58:52Z</time></trkpt>
<trkpt lat="30.046758" lon="97.006796">
<time>2016-10-07T20:58:53Z</time></trkpt>
<trkpt lat="30.047018" lon="97.006627">
<time>2016-10-07T20:58:54Z</time></trkpt>
<trkpt lat="30.047258" lon="97.006497">
<time>2016-10-07T20:58:55Z</time></trkpt>
<trkpt lat="30.047629" lon="97.006308">
<time>2016-10-07T20:58:56Z</time></trkpt>
<trkpt lat="30.047849" lon="97.006169">
<time>2016-10-07T20:58:57Z</time></trkpt>
<trkpt lat="30.048" lon="97.006049">
<time>2016-10-07T20:58:58Z</time></trkpt>
<trkpt lat="30.04818" lon="97.00586">
<time>2016-10-07T20:58:59Z</time></trkpt>
<trkpt lat="30.048351" lon="97.00568">
<time>2016-10-07T20:59:00Z</time></trkpt>
<trkpt lat="30.048562" lon="97.005461">
<time>2016-10-07T20:59:01Z</time></trkpt>
<trkpt lat="30.048933" lon="97.005083">
<time>2016-10-07T20:59:02Z</time></trkpt>
<trkpt lat="30.049133" lon="97.004854">
<time>2016-10-07T20:59:03Z</time></trkpt>
<trkpt lat="30.049294" lon="97.004644">
<time>2016-10-07T20:59:04Z</time></trkpt>
<trkpt lat="30.049535" lon="97.004286">
<time>2016-10-07T20:59:05Z</time></trkpt>
<trkpt lat="30.049877" lon="97.003718">
<time>2016-10-07T20:59:06Z</time></trkpt>
<trkpt lat="30.05041" lon="97.002841">
<time>2016-10-07T20:59:07Z</time></trkpt>
<trkpt lat="30.050631" lon="97.002463">
<time>2016-10-07T20:59:08Z</time></trkpt>
<trkpt lat="30.050782" lon="97.002094">
<time>2016-10-07T20:59:09Z</time></trkpt>
<trkpt lat="30.050863" lon="97.001775">
<time>2016-10-07T20:59:10Z</time></trkpt>
<trkpt lat="30.050944" lon="97.001416">
<time>2016-10-07T20:59:11Z</time></trkpt>
<trkpt lat="30.051025" lon="97.001048">
<time>2016-10-07T20:59:12Z</time></trkpt>
<trkpt lat="30.051076" lon="97.000849">
<time>2016-10-07T20:59:13Z</time></trkpt>
<trkpt lat="30.051146" lon="97.000679">
<time>2016-10-07T20:59:14Z</time></trkpt>
<trkpt lat="30.051237" lon="97.00053">
<time>2016-10-07T20:59:15Z</time></trkpt>
<trkpt lat="30.051367" lon="97.00038">
<time>2016-10-07T20:59:16Z</time></trkpt>
<trkpt lat="30.051638" lon="97.000161">
<time>2016-10-07T20:59:17Z</time></trkpt>
<trkpt lat="30.051788" lon="97.000052">
<time>2016-10-07T20:59:18Z</time></trkpt>
<trkpt lat="30.051918" lon="96.999942">
<time>2016-10-07T20:59:19Z</time></trkpt>
<trkpt lat="30.052069" lon="96.999783">
<time>2016-10-07T20:59:20Z</time></trkpt>
<trkpt lat="30.052149" lon="96.999693">
<time>2016-10-07T20:59:21Z</time></trkpt>
<trkpt lat="30.05221" lon="96.999583">
<time>2016-10-07T20:59:22Z</time></trkpt>
<trkpt lat="30.0523" lon="96.999404">
<time>2016-10-07T20:59:23Z</time></trkpt>
<trkpt lat="30.052532" lon="96.998926">
<time>2016-10-07T20:59:24Z</time></trkpt>
<trkpt lat="30.052833" lon="96.998328">
<time>2016-10-07T20:59:25Z</time></trkpt>
<trkpt lat="30.052994" lon="96.997989">
<time>2016-10-07T20:59:26Z</time></trkpt>
<trkpt lat="30.053135" lon="96.997671">
<time>2016-10-07T20:59:27Z</time></trkpt>
<trkpt lat="30.053196" lon="96.997521">
<time>2016-10-07T20:59:28Z</time></trkpt>
<trkpt lat="30.053216" lon="96.997431">
<time>2016-10-07T20:59:29Z</time></trkpt>
<trkpt lat="30.053236" lon="96.997362">
<time>2016-10-07T20:59:30Z</time></trkpt>
<trkpt lat="30.053247" lon="96.997242">
<time>2016-10-07T20:59:31Z</time></trkpt>
<trkpt lat="30.053247" lon="96.997043">
<time>2016-10-07T20:59:32Z</time></trkpt>
<trkpt lat="30.053218" lon="96.996824">
<time>2016-10-07T20:59:33Z</time></trkpt>
<trkpt lat="30.053169" lon="96.996415">
<time>2016-10-07T20:59:34Z</time></trkpt>
<trkpt lat="30.05312" lon="96.996067">
<time>2016-10-07T20:59:35Z</time></trkpt>
<trkpt lat="30.053071" lon="96.995808">
<time>2016-10-07T20:59:36Z</time></trkpt>
<trkpt lat="30.053042" lon="96.995449">
<time>2016-10-07T20:59:37Z</time></trkpt>
<trkpt lat="30.053043" lon="96.99519">
<time>2016-10-07T20:59:38Z</time></trkpt>
<trkpt lat="30.053084" lon="96.994901">
<time>2016-10-07T20:59:39Z</time></trkpt>
<trkpt lat="30.053134" lon="96.994702">
<time>2016-10-07T20:59:40Z</time></trkpt>
<trkpt lat="30.053195" lon="96.994522">
<time>2016-10-07T20:59:41Z</time></trkpt>
<trkpt lat="30.053306" lon="96.994234">
<time>2016-10-07T20:59:42Z</time></trkpt>
<trkpt lat="30.053427" lon="96.993965">
<time>2016-10-07T20:59:43Z</time></trkpt>
<trkpt lat="30.053527" lon="96.993755">
<time>2016-10-07T20:59:44Z</time></trkpt>
<trkpt lat="30.053648" lon="96.993586">
<time>2016-10-07T20:59:45Z</time></trkpt>
<trkpt lat="30.053828" lon="96.993417">
<time>2016-10-07T20:59:46Z</time></trkpt>
<trkpt lat="30.053989" lon="96.993307">
<time>2016-10-07T20:59:47Z</time></trkpt>
<trkpt lat="30.054159" lon="96.993217">
<time>2016-10-07T20:59:48Z</time></trkpt>
<trkpt lat="30.05464" lon="96.992958">
<time>2016-10-07T20:59:49Z</time></trkpt>
<trkpt lat="30.055" lon="96.992759">
<time>2016-10-07T20:59:50Z</time></trkpt>
<trkpt lat="30.055251" lon="96.9926">
<time>2016-10-07T20:59:51Z</time></trkpt>
<trkpt lat="30.055431" lon="96.99244">
<time>2016-10-07T20:59:52Z</time></trkpt>
<trkpt lat="30.055572" lon="96.992281">
<time>2016-10-07T20:59:53Z</time></trkpt>
<trkpt lat="30.055763" lon="96.992032">
<time>2016-10-07T20:59:54Z</time></trkpt>
<trkpt lat="30.056084" lon="96.991613">
<time>2016-10-07T20:59:55Z</time></trkpt>
<trkpt lat="30.056526" lon="96.991045">
<time>2016-10-07T20:59:56Z</time></trkpt>
<trkpt lat="30.056857" lon="96.990607">
<time>2016-10-07T20:59:57Z</time></trkpt>
<trkpt lat="30.057278" lon="96.990069">
<time>2016-10-07T20:59:58Z</time></trkpt>
<trkpt lat="30.05757" lon="96.9897">
<time>2016-10-07T20:59:59Z</time></trkpt>
<trkpt lat="30.057951" lon="96.989232">
<time>2016-10-07T21:00:00Z</time></trkpt>
<trkpt lat="30.058242" lon="96.988883">
<time>2016-10-07T21:00:01Z</time></trkpt>
<trkpt lat="30.058343" lon="96.988734">
<time>2016-10-07T21:00:02Z</time></trkpt>
<trkpt lat="30.058393" lon="96.988624">
<time>2016-10-07T21:00:03Z</time></trkpt>
<trkpt lat="30.058413" lon="96.988505">
<time>2016-10-07T21:00:04Z</time></trkpt>
<trkpt lat="30.058414" lon="96.988385">
<time>2016-10-07T21:00:05Z</time></trkpt>
<trkpt lat="30.058394" lon="96.988176">
<time>2016-10-07T21:00:06Z</time></trkpt>
<trkpt lat="30.058296" lon="96.987598">
<time>2016-10-07T21:00:07Z</time></trkpt>
<trkpt lat="30.058208" lon="96.98704">
<time>2016-10-07T21:00:08Z</time></trkpt>
<trkpt lat="30.058159" lon="96.986652">
<time>2016-10-07T21:00:09Z</time></trkpt>
<trkpt lat="30.05815" lon="96.986383">
<time>2016-10-07T21:00:10Z</time></trkpt>
<trkpt lat="30.0582" lon="96.986134">
<time>2016-10-07T21:00:11Z</time></trkpt>
<trkpt lat="30.058281" lon="96.985885">
<time>2016-10-07T21:00:12Z</time></trkpt>
<trkpt lat="30.058372" lon="96.985665">
<time>2016-10-07T21:00:13Z</time></trkpt>
<trkpt lat="30.058502" lon="96.985436">
<time>2016-10-07T21:00:14Z</time></trkpt>
<trkpt lat="30.058633" lon="96.985257">
<time>2016-10-07T21:00:15Z</time></trkpt>
<trkpt lat="30.058773" lon="96.985077">
<time>2016-10-07T21:00:16Z</time></trkpt>
<trkpt lat="30.058894" lon="96.984938">
<time>2016-10-07T21:00:17Z</time></trkpt>
<trkpt lat="30.059094" lon="96.984739">
<time>2016-10-07T21:00:18Z</time></trkpt>
<trkpt lat="30.059475" lon="96.98439">
<time>2016-10-07T21:00:19Z</time></trkpt>
<trkpt lat="30.059636" lon="96.984221">
<time>2016-10-07T21:00:20Z</time></trkpt>
<trkpt lat="30.059726" lon="96.984121">
<time>2016-10-07T21:00:21Z</time></trkpt>
<trkpt lat="30.059797" lon="96.983991">
<time>2016-10-07T21:00:22Z</time></trkpt>
<trkpt lat="30.059847" lon="96.983892">
<time>2016-10-07T21:00:23Z</time></trkpt>
<trkpt lat="30.059877" lon="96.983732">
<time>2016-10-07T21:00:24Z</time></trkpt>
<trkpt lat="30.059878" lon="96.983533">
<time>2016-10-07T21:00:25Z</time></trkpt>
<trkpt lat="30.059869" lon="96.983314">
<time>2016-10-07T21:00:26Z</time></trkpt>
<trkpt lat="30.05982" lon="96.982836">
<time>2016-10-07T21:00:27Z</time></trkpt>
<trkpt lat="30.059791" lon="96.982467">
<time>2016-10-07T21:00:28Z</time></trkpt>
<trkpt lat="30.059792" lon="96.982208">
<time>2016-10-07T21:00:29Z</time></trkpt>
<trkpt lat="30.059823" lon="96.981939">
<time>2016-10-07T21:00:30Z</time></trkpt>
<trkpt lat="30.059914" lon="96.98154">
<time>2016-10-07T21:00:31Z</time></trkpt>
<trkpt lat="30.060005" lon="96.981162">
<time>2016-10-07T21:00:32Z</time></trkpt>
<trkpt lat="30.060156" lon="96.980654">
<time>2016-10-07T21:00:33Z</time></trkpt>
<trkpt lat="30.060308" lon="96.980195">
<time>2016-10-07T21:00:34Z</time></trkpt>
<trkpt lat="30.060459" lon="96.979846">
<time>2016-10-07T21:00:35Z</time></trkpt>
<trkpt lat="30.06072" lon="96.979288">
<time>2016-10-07T21:00:36Z</time></trkpt>
<trkpt lat="30.060871" lon="96.97896">
<time>2016-10-07T21:00:37Z</time></trkpt>
<trkpt lat="30.060962" lon="96.978701">
<time>2016-10-07T21:00:38Z</time></trkpt>
<trkpt lat="30.060993" lon="96.978491">
<time>2016-10-07T21:00:39Z</time></trkpt>
<trkpt lat="30.061003" lon="96.978262">
<time>2016-10-07T21:00:40Z</time></trkpt>
<trkpt lat="30.061004" lon="96.977903">
<time>2016-10-07T21:00:41Z</time></trkpt>
<trkpt lat="30.061015" lon="96.977594">
<time>2016-10-07T21:00:42Z</time></trkpt>
<trkpt lat="30.061056" lon="96.977186">
<time>2016-10-07T21:00:43Z</time></trkpt>
<trkpt lat="30.061158" lon="96.976727">
<time>2016-10-07T21:00:44Z</time></trkpt>
<trkpt lat="30.061249" lon="96.976329">
<time>2016-10-07T21:00:45Z</time></trkpt>
<trkpt lat="30.06134" lon="96.97607">
<time>2016-10-07T21:00:46Z</time></trkpt>
<trkpt lat="30.06142" lon="96.97592">
<time>2016-10-07T21:00:47Z</time></trkpt>
<trkpt lat="30.06154" lon="96.975761">
<time>2016-10-07T21:00:48Z</time></trkpt>
<trkpt lat="30.061791" lon="96.975482">
<time>2016-10-07T21:00:49Z</time></trkpt>
<trkpt lat="30.061962" lon="96.975312">
<time>2016-10-07T21:00:50Z</time></trkpt>
<trkpt lat="30.062082" lon="96.975153">
<time>2016-10-07T21:00:51Z</time></trkpt>
<trkpt lat="30.062132" lon="96.975063">
<time>2016-10-07T21:00:52Z</time></trkpt>
<trkpt lat="30.062173" lon="96.974984">
<time>2016-10-07T21:00:53Z</time></trkpt>
<trkpt lat="30.062193" lon="96.974894">
<time>2016-10-07T21:00:54Z</time></trkpt>
<trkpt lat="30.062213" lon="96.974774">
<time>2016-10-07T21:00:55Z</time></trkpt>
<trkpt lat="30.062224" lon="96.974545">
<time>2016-10-07T21:00:56Z</time></trkpt>
<trkpt lat="30.062215" lon="96.974206">
<time>2016-10-07T21:00:57Z</time></trkpt>
<trkpt lat="30.062206" lon="96.973748">
<time>2016-10-07T21:00:58Z</time></trkpt>
<trkpt lat="30.062227" lon="96.973309">
<time>2016-10-07T21:00:59Z</time></trkpt>
<trkpt lat="30.062248" lon="96.972921">
<time>2016-10-07T21:01:00Z</time></trkpt>
<trkpt lat="30.062279" lon="96.972682">
<time>2016-10-07T21:01:01Z</time></trkpt>
<trkpt lat="30.06234" lon="96.972223">
<time>2016-10-07T21:01:02Z</time></trkpt>
<trkpt lat="30.062351" lon="96.971994">
<time>2016-10-07T21:01:03Z</time></trkpt>
<trkpt lat="30.062331" lon="96.971775">
<time>2016-10-07T21:01:04Z</time></trkpt>
<trkpt lat="30.062292" lon="96.971575">
<time>2016-10-07T21:01:05Z</time></trkpt>
<trkpt lat="30.062223" lon="96.971316">
<time>2016-10-07T21:01:06Z</time></trkpt>
<trkpt lat="30.062144" lon="96.970997">
<time>2016-10-07T21:01:07Z</time></trkpt>
<trkpt lat="30.062084" lon="96.970748">
<time>2016-10-07T21:01:08Z</time></trkpt>
<trkpt lat="30.062075" lon="96.970569">
<time>2016-10-07T21:01:09Z</time></trkpt>
<trkpt lat="30.062095" lon="96.970329">
<time>2016-10-07T21:01:10Z</time></trkpt>
<trkpt lat="30.062136" lon="96.97005">
<time>2016-10-07T21:01:11Z</time></trkpt>
<trkpt lat="30.062177" lon="96.969731">
<time>2016-10-07T21:01:12Z</time></trkpt>
<trkpt lat="30.062207" lon="96.969532">
<time>2016-10-07T21:01:13Z</time></trkpt>
<trkpt lat="30.062258" lon="96.969383">
<time>2016-10-07T21:01:14Z</time></trkpt>
<trkpt lat="30.062298" lon="96.969313">
<time>2016-10-07T21:01:15Z</time></trkpt>
<trkpt lat="30.062358" lon="96.969233">
<time>2016-10-07T21:01:16Z</time></trkpt>
<trkpt lat="30.062448" lon="96.969153">
<time>2016-10-07T21:01:17Z</time></trkpt>
<trkpt lat="30.062579" lon="96.969094">
<time>2016-10-07T21:01:18Z</time></trkpt>
<trkpt lat="30.062739" lon="96.969064">
<time>2016-10-07T21:01:19Z</time></trkpt>
<trkpt lat="30.062989" lon="96.969024">
<time>2016-10-07T21:01:20Z</time></trkpt>
<trkpt lat="30.063309" lon="96.968974">
<time>2016-10-07T21:01:21Z</time></trkpt>
<trkpt lat="30.063619" lon="96.968924">
<time>2016-10-07T21:01:22Z</time></trkpt>
<trkpt lat="30.063769" lon="96.968884">
<time>2016-10-07T21:01:23Z</time></trkpt>
<trkpt lat="30.063899" lon="96.968824">
<time>2016-10-07T21:01:24Z</time></trkpt>
<trkpt lat="30.06402" lon="96.968725">
<time>2016-10-07T21:01:25Z</time></trkpt>
<trkpt lat="30.06412" lon="96.968625">
<time>2016-10-07T21:01:26Z</time></trkpt>
<trkpt lat="30.06426" lon="96.968416">
<time>2016-10-07T21:01:27Z</time></trkpt>
<trkpt lat="30.064461" lon="96.968097">
<time>2016-10-07T21:01:28Z</time></trkpt>
<trkpt lat="30.064622" lon="96.967858">
<time>2016-10-07T21:01:29Z</time></trkpt>
<trkpt lat="30.064793" lon="96.967638">
<time>2016-10-07T21:01:30Z</time></trkpt>
<trkpt lat="30.064993" lon="96.967459">
<time>2016-10-07T21:01:31Z</time></trkpt>
<trkpt lat="30.065304" lon="96.96721">
<time>2016-10-07T21:01:32Z</time></trkpt>
<trkpt lat="30.065454" lon="96.96707">
<time>2016-10-07T21:01:33Z</time></trkpt>
<trkpt lat="30.065544" lon="96.966971">
<time>2016-10-07T21:01:34Z</time></trkpt>
<trkpt lat="30.065655" lon="96.966811">
<time>2016-10-07T21:01:35Z</time></trkpt>
<trkpt lat="30.065876" lon="96.966472">
<time>2016-10-07T21:01:36Z</time></trkpt>
<trkpt lat="30.066026" lon="96.966223">
<time>2016-10-07T21:01:37Z</time></trkpt>
<trkpt lat="30.066087" lon="96.966063">
<time>2016-10-07T21:01:38Z</time></trkpt>
<trkpt lat="30.066147" lon="96.965874">
<time>2016-10-07T21:01:39Z</time></trkpt>
<trkpt lat="30.066198" lon="96.965645">
<time>2016-10-07T21:01:40Z</time></trkpt>
<trkpt lat="30.066228" lon="96.965475">
<time>2016-10-07T21:01:41Z</time></trkpt>
<trkpt lat="30.066239" lon="96.965326">
<time>2016-10-07T21:01:42Z</time></trkpt>
<trkpt lat="30.066229" lon="96.965166">
<time>2016-10-07T21:01:43Z</time></trkpt>
<trkpt lat="30.066209" lon="96.964997">
<time>2016-10-07T21:01:44Z</time></trkpt>
<trkpt lat="30.06614" lon="96.964648">
<time>2016-10-07T21:01:45Z</time></trkpt>
<trkpt lat="30.066081" lon="96.964349">
<time>2016-10-07T21:01:46Z</time></trkpt>
<trkpt lat="30.066042" lon="96.96412">
<time>2016-10-07T21:01:47Z</time></trkpt>
<trkpt lat="30.065992" lon="96.96394">
<time>2016-10-07T21:01:48Z</time></trkpt>
<trkpt lat="30.065903" lon="96.963731">
<time>2016-10-07T21:01:49Z</time></trkpt>
<trkpt lat="30.065753" lon="96.963462">
<time>2016-10-07T21:01:50Z</time></trkpt>
<trkpt lat="30.065584" lon="96.963163">
<time>2016-10-07T21:01:51Z</time></trkpt>
<trkpt lat="30.065245" lon="96.962634">
<time>2016-10-07T21:01:52Z</time></trkpt>
<trkpt lat="30.065096" lon="96.962355">
<time>2016-10-07T21:01:53Z</time></trkpt>
<trkpt lat="30.065056" lon="96.962246">
<time>2016-10-07T21:01:54Z</time></trkpt>
<trkpt lat="30.065017" lon="96.962086">
<time>2016-10-07T21:01:55Z</time></trkpt>
<trkpt lat="30.064997" lon="96.961897">
<time>2016-10-07T21:01:56Z</time></trkpt>
<trkpt lat="30.064998" lon="96.961717">
<time>2016-10-07T21:01:57Z</time></trkpt>
<trkpt lat="30.065038" lon="96.961528">
<time>2016-10-07T21:01:58Z</time></trkpt>
<trkpt lat="30.065089" lon="96.961318">
<time>2016-10-07T21:01:59Z</time></trkpt>
<trkpt lat="30.065139" lon="96.961109">
<time>2016-10-07T21:02:00Z</time></trkpt>
<trkpt lat="30.065159" lon="96.96096">
<time>2016-10-07T21:02:01Z</time></trkpt>
<trkpt lat="30.06517" lon="96.96076">
<time>2016-10-07T21:02:02Z</time></trkpt>
<trkpt lat="30.06515" lon="96.960561">
<time>2016-10-07T21:02:03Z</time></trkpt>
<trkpt lat="30.065092" lon="96.960042">
<time>2016-10-07T21:02:04Z</time></trkpt>
<trkpt lat="30.065033" lon="96.959554">
<time>2016-10-07T21:02:05Z</time></trkpt>
<trkpt lat="30.064964" lon="96.958926">
<time>2016-10-07T21:02:06Z</time></trkpt>
<trkpt lat="30.064866" lon="96.958068">
<time>2016-10-07T21:02:07Z</time></trkpt>
<trkpt lat="30.064808" lon="96.95752">
<time>2016-10-07T21:02:08Z</time></trkpt>
<trkpt lat="30.064778" lon="96.957191">
<time>2016-10-07T21:02:09Z</time></trkpt>
<trkpt lat="30.064739" lon="96.956762">
<time>2016-10-07T21:02:10Z</time></trkpt>
<trkpt lat="30.0647" lon="96.956463">
<time>2016-10-07T21:02:11Z</time></trkpt>
<trkpt lat="30.064651" lon="96.956234">
<time>2016-10-07T21:02:12Z</time></trkpt>
<trkpt lat="30.064571" lon="96.955905">
<time>2016-10-07T21:02:13Z</time></trkpt>
<trkpt lat="30.064512" lon="96.955556">
<time>2016-10-07T21:02:14Z</time></trkpt>
<trkpt lat="30.064493" lon="96.955326">
<time>2016-10-07T21:02:15Z</time></trkpt>
<trkpt lat="30.064473" lon="96.955067">
<time>2016-10-07T21:02:16Z</time></trkpt>
<trkpt lat="30.064474" lon="96.954728">
<time>2016-10-07T21:02:17Z</time></trkpt>
<trkpt lat="30.064455" lon="96.954479">
<time>2016-10-07T21:02:18Z</time></trkpt>
<trkpt lat="30.064425" lon="96.95418">
<time>2016-10-07T21:02:19Z</time></trkpt>
<trkpt lat="30.064406" lon="96.95389">
<time>2016-10-07T21:02:20Z</time></trkpt>
<trkpt lat="30.064407" lon="96.953621">
<time>2016-10-07T21:02:21Z</time></trkpt>
<trkpt lat="30.064437" lon="96.953342">
<time>2016-10-07T21:02:22Z</time></trkpt>
<trkpt lat="30.064488" lon="96.952913">
<time>2016-10-07T21:02:23Z</time></trkpt>
<trkpt lat="30.064509" lon="96.952644">
<time>2016-10-07T21:02:24Z</time></trkpt>
<trkpt lat="30.064499" lon="96.952384">
<time>2016-10-07T21:02:25Z</time></trkpt>
<trkpt lat="30.06448" lon="96.952145">
<time>2016-10-07T21:02:26Z</time></trkpt>
<trkpt lat="30.06443" lon="96.951796">
<time>2016-10-07T21:02:27Z</time></trkpt>
<trkpt lat="30.064381" lon="96.951487">
<time>2016-10-07T21:02:28Z</time></trkpt>
<trkpt lat="30.064372" lon="96.951287">
<time>2016-10-07T21:02:29Z</time></trkpt>
<trkpt lat="30.064402" lon="96.951118">
<time>2016-10-07T21:02:30Z</time></trkpt>
<trkpt lat="30.064462" lon="96.950948">
<time>2016-10-07T21:02:31Z</time></trkpt>
<trkpt lat="30.064543" lon="96.950799">
<time>2016-10-07T21:02:32Z</time></trkpt>
<trkpt lat="30.064683" lon="96.95052">
<time>2016-10-07T21:02:33Z</time></trkpt>
<trkpt lat="30.064854" lon="96.9502">
<time>2016-10-07T21:02:34Z</time></trkpt>
<trkpt lat="30.064984" lon="96.949901">
<time>2016-10-07T21:02:35Z</time></trkpt>
<trkpt lat="30.065075" lon="96.949642">
<time>2016-10-07T21:02:36Z</time></trkpt>
<trkpt lat="30.065156" lon="96.949313">
<time>2016-10-07T21:02:37Z</time></trkpt>
<trkpt lat="30.065226" lon="96.948934">
<time>2016-10-07T21:02:38Z</time></trkpt>
<trkpt lat="30.065308" lon="96.948425">
<time>2016-10-07T21:02:39Z</time></trkpt>
<trkpt lat="30.065378" lon="96.948006">
<time>2016-10-07T21:02:40Z</time></trkpt>
<trkpt lat="30.065439" lon="96.947687">
<time>2016-10-07T21:02:41Z</time></trkpt>
<trkpt lat="30.06553" lon="96.947308">
<time>2016-10-07T21:02:42Z</time></trkpt>
<trkpt lat="30.06561" lon="96.947088">
<time>2016-10-07T21:02:43Z</time></trkpt>
<trkpt lat="30.065701" lon="96.946899">
<time>2016-10-07T21:02:44Z</time></trkpt>
<trkpt lat="30.065901" lon="96.94659">
<time>2016-10-07T21:02:45Z</time></trkpt>
<trkpt lat="30.066172" lon="96.946151">
<time>2016-10-07T21:02:46Z</time></trkpt>
<trkpt lat="30.066383" lon="96.945812">
<time>2016-10-07T21:02:47Z</time></trkpt>
<trkpt lat="30.066553" lon="96.945522">
<time>2016-10-07T21:02:48Z</time></trkpt>
<trkpt lat="30.066674" lon="96.945333">
<time>2016-10-07T21:02:49Z</time></trkpt>
<trkpt lat="30.066754" lon="96.945153">
<time>2016-10-07T21:02:50Z</time></trkpt>
<trkpt lat="30.066794" lon="96.944994">
<time>2016-10-07T21:02:51Z</time></trkpt>
<trkpt lat="30.066815" lon="96.944794">
<time>2016-10-07T21:02:52Z</time></trkpt>
<trkpt lat="30.066795" lon="96.944604">
<time>2016-10-07T21:02:53Z</time></trkpt>
<trkpt lat="30.066755" lon="96.944345">
<time>2016-10-07T21:02:54Z</time></trkpt>
<trkpt lat="30.066706" lon="96.943996">
<time>2016-10-07T21:02:55Z</time></trkpt>
<trkpt lat="30.066637" lon="96.943607">
<time>2016-10-07T21:02:56Z</time></trkpt>
<trkpt lat="30.066567" lon="96.943357">
<time>2016-10-07T21:02:57Z</time></trkpt>
<trkpt lat="30.066488" lon="96.943178">
<time>2016-10-07T21:02:58Z</time></trkpt>
<trkpt lat="30.066368" lon="96.942958">
<time>2016-10-07T21:02:59Z</time></trkpt>
<trkpt lat="30.066228" lon="96.942769">
<time>2016-10-07T21:03:00Z</time></trkpt>
<trkpt lat="30.065999" lon="96.942509">
<time>2016-10-07T21:03:01Z</time></trkpt>
<trkpt lat="30.065809" lon="96.9423">
<time>2016-10-07T21:03:02Z</time></trkpt>
<trkpt lat="30.065629" lon="96.94213">
<time>2016-10-07T21:03:03Z</time></trkpt>
<trkpt lat="30.06544" lon="96.942001">
<time>2016-10-07T21:03:04Z</time></trkpt>
<trkpt lat="30.06512" lon="96.941801">
<time>2016-10-07T21:03:05Z</time></trkpt>
<trkpt lat="30.06474" lon="96.941562">
<time>2016-10-07T21:03:06Z</time></trkpt>
<trkpt lat="30.064411" lon="96.941362">
<time>2016-10-07T21:03:07Z</time></trkpt>
<trkpt lat="30.064161" lon="96.941172">
<time>2016-10-07T21:03:08Z</time></trkpt>
<trkpt lat="30.064051" lon="96.941053">
<time>2016-10-07T21:03:09Z</time></trkpt>
<trkpt lat="30.063942" lon="96.940853">
<time>2016-10-07T21:03:10Z</time></trkpt>
<trkpt lat="30.063882" lon="96.940704">
<time>2016-10-07T21:03:11Z</time></trkpt>
<trkpt lat="30.063832" lon="96.940504">
<time>2016-10-07T21:03:12Z</time></trkpt>
<trkpt lat="30.063813" lon="96.940364">
<time>2016-10-07T21:03:13Z</time></trkpt>
<trkpt lat="30.063803" lon="96.940185">
<time>2016-10-07T21:03:14Z</time></trkpt>
<trkpt lat="30.063804" lon="96.939556">
<time>2016-10-07T21:03:15Z</time></trkpt>
<trkpt lat="30.063805" lon="96.938778">
<time>2016-10-07T21:03:16Z</time></trkpt>
<trkpt lat="30.063797" lon="96.93777">
<time>2016-10-07T21:03:17Z</time></trkpt>
<trkpt lat="30.063798" lon="96.937061">
<time>2016-10-07T21:03:18Z</time></trkpt>
<trkpt lat="30.063789" lon="96.936642">
<time>2016-10-07T21:03:19Z</time></trkpt>
<trkpt lat="30.063739" lon="96.936243">
<time>2016-10-07T21:03:20Z</time></trkpt>
<trkpt lat="30.06367" lon="96.935794">
<time>2016-10-07T21:03:21Z</time></trkpt>
<trkpt lat="30.06363" lon="96.935514">
<time>2016-10-07T21:03:22Z</time></trkpt>
<trkpt lat="30.063561" lon="96.935235">
<time>2016-10-07T21:03:23Z</time></trkpt>
<trkpt lat="30.063471" lon="96.934975">
<time>2016-10-07T21:03:24Z</time></trkpt>
<trkpt lat="30.063352" lon="96.934696">
<time>2016-10-07T21:03:25Z</time></trkpt>
<trkpt lat="30.063192" lon="96.934337">
<time>2016-10-07T21:03:26Z</time></trkpt>
<trkpt lat="30.062863" lon="96.933568">
<time>2016-10-07T21:03:27Z</time></trkpt>
<trkpt lat="30.062654" lon="96.933069">
<time>2016-10-07T21:03:28Z</time></trkpt>
<trkpt lat="30.062285" lon="96.932221">
<time>2016-10-07T21:03:29Z</time></trkpt>
<trkpt lat="30.061926" lon="96.931392">
<time>2016-10-07T21:03:30Z</time></trkpt>
<trkpt lat="30.061747" lon="96.930963">
<time>2016-10-07T21:03:31Z</time></trkpt>
<trkpt lat="30.061458" lon="96.930274">
<time>2016-10-07T21:03:32Z</time></trkpt>
<trkpt lat="30.061208" lon="96.929705">
<time>2016-10-07T21:03:33Z</time></trkpt>
<trkpt lat="30.060979" lon="96.929176">
<time>2016-10-07T21:03:34Z</time></trkpt>
<trkpt lat="30.06065" lon="96.928457">
<time>2016-10-07T21:03:35Z</time></trkpt>
<trkpt lat="30.060371" lon="96.927808">
<time>2016-10-07T21:03:36Z</time></trkpt>
<trkpt lat="30.060041" lon="96.927069">
<time>2016-10-07T21:03:37Z</time></trkpt>
<trkpt lat="30.059842" lon="96.92658">
<time>2016-10-07T21:03:38Z</time></trkpt>
<trkpt lat="30.059603" lon="96.926041">
<time>2016-10-07T21:03:39Z</time></trkpt>
<trkpt lat="30.059323" lon="96.925402">
<time>2016-10-07T21:03:40Z</time></trkpt>
<trkpt lat="30.059024" lon="96.924723">
<time>2016-10-07T21:03:41Z</time></trkpt>
<trkpt lat="30.058904" lon="96.924453">
<time>2016-10-07T21:03:42Z</time></trkpt>
<trkpt lat="30.058645" lon="96.923834">
<time>2016-10-07T21:03:43Z</time></trkpt>
<trkpt lat="30.058116" lon="96.922646">
<time>2016-10-07T21:03:44Z</time></trkpt>
<trkpt lat="30.057787" lon="96.921897">
<time>2016-10-07T21:03:45Z</time></trkpt>
<trkpt lat="30.057437" lon="96.921078">
<time>2016-10-07T21:03:46Z</time></trkpt>
<trkpt lat="30.056908" lon="96.919849">
<time>2016-10-07T21:03:47Z</time></trkpt>
<trkpt lat="30.056829" lon="96.919669">
<time>2016-10-07T21:03:48Z</time></trkpt>
<trkpt lat="30.056369" lon="96.918611">
<time>2016-10-07T21:03:49Z</time></trkpt>
<trkpt lat="30.05605" lon="96.917881">
<time>2016-10-07T21:03:50Z</time></trkpt>
<trkpt lat="30.05578" lon="96.917262">
<time>2016-10-07T21:03:51Z</time></trkpt>
<trkpt lat="30.055511" lon="96.916653">
<time>2016-10-07T21:03:52Z</time></trkpt>
<trkpt lat="30.054932" lon="96.915364">
<time>2016-10-07T21:03:53Z</time></trkpt>
<trkpt lat="30.054722" lon="96.914894">
<time>2016-10-07T21:03:54Z</time></trkpt>
<trkpt lat="30.054372" lon="96.914105">
<time>2016-10-07T21:03:55Z</time></trkpt>
<trkpt lat="30.054223" lon="96.913775">
<time>2016-10-07T21:03:56Z</time></trkpt>
<trkpt lat="30.054113" lon="96.913486">
<time>2016-10-07T21:03:57Z</time></trkpt>
<trkpt lat="30.054063" lon="96.913316">
<time>2016-10-07T21:03:58Z</time></trkpt>
<trkpt lat="30.054043" lon="96.913226">
<time>2016-10-07T21:03:59Z</time></trkpt>
<trkpt lat="30.054023" lon="96.913126">
<time>2016-10-07T21:04:00Z</time></trkpt>
<trkpt lat="30.054033" lon="96.912976">
<time>2016-10-07T21:04:01Z</time></trkpt>
<trkpt lat="30.054053" lon="96.912816">
<time>2016-10-07T21:04:02Z</time></trkpt>
<trkpt lat="30.054083" lon="96.912636">
<time>2016-10-07T21:04:03Z</time></trkpt>
<trkpt lat="30.054133" lon="96.912357">
<time>2016-10-07T21:04:04Z</time></trkpt>
<trkpt lat="30.054163" lon="96.912107">
<time>2016-10-07T21:04:05Z</time></trkpt>
<trkpt lat="30.054163" lon="96.911997">
<time>2016-10-07T21:04:06Z</time></trkpt>
<trkpt lat="30.054164" lon="96.911907">
<time>2016-10-07T21:04:07Z</time></trkpt>
<trkpt lat="30.054134" lon="96.911747">
<time>2016-10-07T21:04:08Z</time></trkpt>
<trkpt lat="30.054094" lon="96.911567">
<time>2016-10-07T21:04:09Z</time></trkpt>
<trkpt lat="30.054034" lon="96.911387">
<time>2016-10-07T21:04:10Z</time></trkpt>
<trkpt lat="30.053864" lon="96.910808">
<time>2016-10-07T21:04:11Z</time></trkpt>
<trkpt lat="30.053624" lon="96.910068">
<time>2016-10-07T21:04:12Z</time></trkpt>
<trkpt lat="30.053415" lon="96.909419">
<time>2016-10-07T21:04:13Z</time></trkpt>
<trkpt lat="30.053285" lon="96.908959">
<time>2016-10-07T21:04:14Z</time></trkpt>
<trkpt lat="30.053025" lon="96.908099">
<time>2016-10-07T21:04:15Z</time></trkpt>
<trkpt lat="30.052875" lon="96.90761">
<time>2016-10-07T21:04:16Z</time></trkpt>
<trkpt lat="30.052735" lon="96.90714">
<time>2016-10-07T21:04:17Z</time></trkpt>
<trkpt lat="30.052655" lon="96.90685">
<time>2016-10-07T21:04:18Z</time></trkpt>
<trkpt lat="30.052615" lon="96.9066">
<time>2016-10-07T21:04:19Z</time></trkpt>
<trkpt lat="30.052575" lon="96.90623">
<time>2016-10-07T21:04:20Z</time></trkpt>
<trkpt lat="30.052585" lon="96.905871">
<time>2016-10-07T21:04:21Z</time></trkpt>
<trkpt lat="30.052626" lon="96.905571">
<time>2016-10-07T21:04:22Z</time></trkpt>
<trkpt lat="30.052656" lon="96.905421">
<time>2016-10-07T21:04:23Z</time></trkpt>
<trkpt lat="30.052676" lon="96.905251">
<time>2016-10-07T21:04:24Z</time></trkpt>
<trkpt lat="30.052666" lon="96.905061">
<time>2016-10-07T21:04:25Z</time></trkpt>
<trkpt lat="30.052616" lon="96.904871">
<time>2016-10-07T21:04:26Z</time></trkpt>
<trkpt lat="30.052546" lon="96.904701">
<time>2016-10-07T21:04:27Z</time></trkpt>
<trkpt lat="30.052366" lon="96.904431">
<time>2016-10-07T21:04:28Z</time></trkpt>
<trkpt lat="30.052116" lon="96.904081">
<time>2016-10-07T21:04:29Z</time></trkpt>
<trkpt lat="30.051986" lon="96.903881">
<time>2016-10-07T21:04:30Z</time></trkpt>
<trkpt lat="30.051906" lon="96.903751">
<time>2016-10-07T21:04:31Z</time></trkpt>
<trkpt lat="30.051836" lon="96.903601">
<time>2016-10-07T21:04:32Z</time></trkpt>
<trkpt lat="30.051786" lon="96.903431">
<time>2016-10-07T21:04:33Z</time></trkpt>
<trkpt lat="30.051736" lon="96.903232">
<time>2016-10-07T21:04:34Z</time></trkpt>
<trkpt lat="30.051716" lon="96.903072">
<time>2016-10-07T21:04:35Z</time></trkpt>
<trkpt lat="30.051616" lon="96.902562">
<time>2016-10-07T21:04:36Z</time></trkpt>
<trkpt lat="30.051536" lon="96.902092">
<time>2016-10-07T21:04:37Z</time></trkpt>
<trkpt lat="30.051466" lon="96.901712">
<time>2016-10-07T21:04:38Z</time></trkpt>
<trkpt lat="30.051416" lon="96.901412">
<time>2016-10-07T21:04:39Z</time></trkpt>
<trkpt lat="30.051396" lon="96.901172">
<time>2016-10-07T21:04:40Z</time></trkpt>
<trkpt lat="30.051396" lon="96.900942">
<time>2016-10-07T21:04:41Z</time></trkpt>
<trkpt lat="30.051416" lon="96.900762">
<time>2016-10-07T21:04:42Z</time></trkpt>
<trkpt lat="30.051466" lon="96.900542">
<time>2016-10-07T21:04:43Z</time></trkpt>
<trkpt lat="30.051536" lon="96.900352">
<time>2016-10-07T21:04:44Z</time></trkpt>
<trkpt lat="30.051626" lon="96.900122">
<time>2016-10-07T21:04:45Z</time></trkpt>
<trkpt lat="30.051736" lon="96.899842">
<time>2016-10-07T21:04:46Z</time></trkpt>
<trkpt lat="30.051796" lon="96.899652">
<time>2016-10-07T21:04:47Z</time></trkpt>
<trkpt lat="30.051836" lon="96.899402">
<time>2016-10-07T21:04:48Z</time></trkpt>
<trkpt lat="30.051856" lon="96.899142">
<time>2016-10-07T21:04:49Z</time></trkpt>
<trkpt lat="30.051856" lon="96.898802">
<time>2016-10-07T21:04:50Z</time></trkpt>
<trkpt lat="30.051846" lon="96.898462">
<time>2016-10-07T21:04:51Z</time></trkpt>
<trkpt lat="30.051866" lon="96.898192">
<time>2016-10-07T21:04:52Z</time></trkpt>
<trkpt lat="30.051906" lon="96.897922">
<time>2016-10-07T21:04:53Z</time></trkpt>
<trkpt lat="30.051985" lon="96.897562">
<time>2016-10-07T21:04:54Z</time></trkpt>
<trkpt lat="30.052075" lon="96.897172">
<time>2016-10-07T21:04:55Z</time></trkpt>
<trkpt lat="30.052175" lon="96.896752">
<time>2016-10-07T21:04:56Z</time></trkpt>
<trkpt lat="30.052455" lon="96.895572">
<time>2016-10-07T21:04:57Z</time></trkpt>
<trkpt lat="30.052565" lon="96.895102">
<time>2016-10-07T21:04:58Z</time></trkpt>
<trkpt lat="30.052805" lon="96.894082">
<time>2016-10-07T21:04:59Z</time></trkpt>
<trkpt lat="30.052974" lon="96.893302">
<time>2016-10-07T21:05:00Z</time></trkpt>
<trkpt lat="30.053124" lon="96.892552">
<time>2016-10-07T21:05:01Z</time></trkpt>
<trkpt lat="30.053354" lon="96.891492">
<time>2016-10-07T21:05:02Z</time></trkpt>
<trkpt lat="30.053613" lon="96.890341">
<time>2016-10-07T21:05:03Z</time></trkpt>
<trkpt lat="30.053753" lon="96.889801">
<time>2016-10-07T21:05:04Z</time></trkpt>
<trkpt lat="30.053823" lon="96.889441">
<time>2016-10-07T21:05:05Z</time></trkpt>
<trkpt lat="30.053892" lon="96.889051">
<time>2016-10-07T21:05:06Z</time></trkpt>
<trkpt lat="30.053942" lon="96.888721">
<time>2016-10-07T21:05:07Z</time></trkpt>
<trkpt lat="30.053992" lon="96.88816">
<time>2016-10-07T21:05:08Z</time></trkpt>
<trkpt lat="30.054042" lon="96.88771">
<time>2016-10-07T21:05:09Z</time></trkpt>
<trkpt lat="30.054111" lon="96.88715">
<time>2016-10-07T21:05:10Z</time></trkpt>
<trkpt lat="30.054201" lon="96.886269">
<time>2016-10-07T21:05:11Z</time></trkpt>
<trkpt lat="30.05428" lon="96.885549">
<time>2016-10-07T21:05:12Z</time></trkpt>
<trkpt lat="30.05433" lon="96.885159">
<time>2016-10-07T21:05:13Z</time></trkpt>
<trkpt lat="30.05438" lon="96.884959">
<time>2016-10-07T21:05:14Z</time></trkpt>
<trkpt lat="30.05444" lon="96.884739">
<time>2016-10-07T21:05:15Z</time></trkpt>
<trkpt lat="30.054619" lon="96.884228">
<time>2016-10-07T21:05:16Z</time></trkpt>
<trkpt lat="30.054769" lon="96.883778">
<time>2016-10-07T21:05:17Z</time></trkpt>
<trkpt lat="30.054829" lon="96.883528">
<time>2016-10-07T21:05:18Z</time></trkpt>
<trkpt lat="30.054879" lon="96.883258">
<time>2016-10-07T21:05:19Z</time></trkpt>
<trkpt lat="30.054978" lon="96.882527">
<time>2016-10-07T21:05:20Z</time></trkpt>
<trkpt lat="30.055078" lon="96.881907">
<time>2016-10-07T21:05:21Z</time></trkpt>
<trkpt lat="30.055217" lon="96.880976">
<time>2016-10-07T21:05:22Z</time></trkpt>
<trkpt lat="30.055366" lon="96.879935">
<time>2016-10-07T21:05:23Z</time></trkpt>
<trkpt lat="30.055535" lon="96.878744">
<time>2016-10-07T21:05:24Z</time></trkpt>
<trkpt lat="30.055704" lon="96.877633">
<time>2016-10-07T21:05:25Z</time></trkpt>
<trkpt lat="30.055863" lon="96.876512">
<time>2016-10-07T21:05:26Z</time></trkpt>
<trkpt lat="30.056002" lon="96.875531">
<time>2016-10-07T21:05:27Z</time></trkpt>
<trkpt lat="30.056071" lon="96.875051">
<time>2016-10-07T21:05:28Z</time></trkpt>
<trkpt lat="30.056151" lon="96.8745">
<time>2016-10-07T21:05:29Z</time></trkpt>
<trkpt lat="30.056369" lon="96.873039">
<time>2016-10-07T21:05:30Z</time></trkpt>
<trkpt lat="30.056429" lon="96.872598">
<time>2016-10-07T21:05:31Z</time></trkpt>
<trkpt lat="30.056538" lon="96.871877">
<time>2016-10-07T21:05:32Z</time></trkpt>
<trkpt lat="30.056657" lon="96.871006">
<time>2016-10-07T21:05:33Z</time></trkpt>
<trkpt lat="30.056845" lon="96.869715">
<time>2016-10-07T21:05:34Z</time></trkpt>
<trkpt lat="30.057024" lon="96.868563">
<time>2016-10-07T21:05:35Z</time></trkpt>
<trkpt lat="30.057143" lon="96.867672">
<time>2016-10-07T21:05:36Z</time></trkpt>
<trkpt lat="30.057242" lon="96.867001">
<time>2016-10-07T21:05:37Z</time></trkpt>
<trkpt lat="30.057291" lon="96.866551">
<time>2016-10-07T21:05:38Z</time></trkpt>
<trkpt lat="30.057321" lon="96.86621">
<time>2016-10-07T21:05:39Z</time></trkpt>
<trkpt lat="30.05733" lon="96.86586">
<time>2016-10-07T21:05:40Z</time></trkpt>
<trkpt lat="30.05732" lon="96.865459">
<time>2016-10-07T21:05:41Z</time></trkpt>
<trkpt lat="30.057289" lon="96.864818">
<time>2016-10-07T21:05:42Z</time></trkpt>
<trkpt lat="30.057248" lon="96.864298">
<time>2016-10-07T21:05:43Z</time></trkpt>
<trkpt lat="30.057166" lon="96.862906">
<time>2016-10-07T21:05:44Z</time></trkpt>
<trkpt lat="30.057095" lon="96.861884">
<time>2016-10-07T21:05:45Z</time></trkpt>
<trkpt lat="30.057033" lon="96.860843">
<time>2016-10-07T21:05:46Z</time></trkpt>
<trkpt lat="30.056952" lon="96.859671">
<time>2016-10-07T21:05:47Z</time></trkpt>
<trkpt lat="30.05687" lon="96.858389">
<time>2016-10-07T21:05:48Z</time></trkpt>
<trkpt lat="30.056818" lon="96.857528">
<time>2016-10-07T21:05:49Z</time></trkpt>
<trkpt lat="30.056747" lon="96.856506">
<time>2016-10-07T21:05:50Z</time></trkpt>
<trkpt lat="30.056685" lon="96.855474">
<time>2016-10-07T21:05:51Z</time></trkpt>
<trkpt lat="30.056613" lon="96.854342">
<time>2016-10-07T21:05:52Z</time></trkpt>
<trkpt lat="30.056563" lon="96.853882">
<time>2016-10-07T21:05:53Z</time></trkpt>
<trkpt lat="30.056492" lon="96.853521">
<time>2016-10-07T21:05:54Z</time></trkpt>
<trkpt lat="30.056411" lon="96.85319">
<time>2016-10-07T21:05:55Z</time></trkpt>
<trkpt lat="30.05623" lon="96.852429">
<time>2016-10-07T21:05:56Z</time></trkpt>
<trkpt lat="30.056039" lon="96.851668">
<time>2016-10-07T21:05:57Z</time></trkpt>
<trkpt lat="30.055858" lon="96.850917">
<time>2016-10-07T21:05:58Z</time></trkpt>
<trkpt lat="30.055676" lon="96.850125">
<time>2016-10-07T21:05:59Z</time></trkpt>
<trkpt lat="30.055596" lon="96.849845">
<time>2016-10-07T21:06:00Z</time></trkpt>
<trkpt lat="30.055506" lon="96.849634">
<time>2016-10-07T21:06:01Z</time></trkpt>
<trkpt lat="30.055355" lon="96.849354">
<time>2016-10-07T21:06:02Z</time></trkpt>
<trkpt lat="30.055215" lon="96.849143">
<time>2016-10-07T21:06:03Z</time></trkpt>
<trkpt lat="30.054894" lon="96.848643">
<time>2016-10-07T21:06:04Z</time></trkpt>
<trkpt lat="30.054453" lon="96.847981">
<time>2016-10-07T21:06:05Z</time></trkpt>
<trkpt lat="30.054022" lon="96.84734">
<time>2016-10-07T21:06:06Z</time></trkpt>
<trkpt lat="30.053681" lon="96.846819">
<time>2016-10-07T21:06:07Z</time></trkpt>
<trkpt lat="30.05337" lon="96.846348">
<time>2016-10-07T21:06:08Z</time></trkpt>
<trkpt lat="30.053029" lon="96.845837">
<time>2016-10-07T21:06:09Z</time></trkpt>
<trkpt lat="30.052798" lon="96.845467">
<time>2016-10-07T21:06:10Z</time></trkpt>
<trkpt lat="30.052638" lon="96.845146">
<time>2016-10-07T21:06:11Z</time></trkpt>
<trkpt lat="30.052547" lon="96.844956">
<time>2016-10-07T21:06:12Z</time></trkpt>
<trkpt lat="30.052487" lon="96.844785">
<time>2016-10-07T21:06:13Z</time></trkpt>
<trkpt lat="30.052296" lon="96.844194">
<time>2016-10-07T21:06:14Z</time></trkpt>
<trkpt lat="30.052125" lon="96.843623">
<time>2016-10-07T21:06:15Z</time></trkpt>
<trkpt lat="30.052035" lon="96.843373">
<time>2016-10-07T21:06:16Z</time></trkpt>
<trkpt lat="30.051984" lon="96.843283">
<time>2016-10-07T21:06:17Z</time></trkpt>
<trkpt lat="30.051904" lon="96.843193">
<time>2016-10-07T21:06:18Z</time></trkpt>
<trkpt lat="30.051784" lon="96.843112">
<time>2016-10-07T21:06:19Z</time></trkpt>
<trkpt lat="30.051604" lon="96.843012">
<time>2016-10-07T21:06:20Z</time></trkpt>
<trkpt lat="30.051344" lon="96.842892">
<time>2016-10-07T21:06:21Z</time></trkpt>
<trkpt lat="30.051063" lon="96.842762">
<time>2016-10-07T21:06:22Z</time></trkpt>
<trkpt lat="30.050923" lon="96.842662">
<time>2016-10-07T21:06:23Z</time></trkpt>
<trkpt lat="30.050783" lon="96.842531">
<time>2016-10-07T21:06:24Z</time></trkpt>
<trkpt lat="30.050502" lon="96.842221">
<time>2016-10-07T21:06:25Z</time></trkpt>
<trkpt lat="30.050252" lon="96.84189">
<time>2016-10-07T21:06:26Z</time></trkpt>
<trkpt lat="30.049991" lon="96.841499">
<time>2016-10-07T21:06:27Z</time></trkpt>
<trkpt lat="30.049851" lon="96.841239">
<time>2016-10-07T21:06:28Z</time></trkpt>
<trkpt lat="30.04971" lon="96.840968">
<time>2016-10-07T21:06:29Z</time></trkpt>
<trkpt lat="30.04963" lon="96.840748">
<time>2016-10-07T21:06:30Z</time></trkpt>
<trkpt lat="30.049569" lon="96.840517">
<time>2016-10-07T21:06:31Z</time></trkpt>
<trkpt lat="30.049489" lon="96.840127">
<time>2016-10-07T21:06:32Z</time></trkpt>
<trkpt lat="30.049438" lon="96.839886">
<time>2016-10-07T21:06:33Z</time></trkpt>
<trkpt lat="30.049368" lon="96.839656">
<time>2016-10-07T21:06:34Z</time></trkpt>
<trkpt lat="30.049287" lon="96.839445">
<time>2016-10-07T21:06:35Z</time></trkpt>
<trkpt lat="30.049127" lon="96.839085">
<time>2016-10-07T21:06:36Z</time></trkpt>
<trkpt lat="30.049046" lon="96.838884">
<time>2016-10-07T21:06:37Z</time></trkpt>
<trkpt lat="30.049006" lon="96.838684">
<time>2016-10-07T21:06:38Z</time></trkpt>
<trkpt lat="30.049006" lon="96.838524">
<time>2016-10-07T21:06:39Z</time></trkpt>
<trkpt lat="30.049045" lon="96.838303">
<time>2016-10-07T21:06:40Z</time></trkpt>
<trkpt lat="30.049095" lon="96.838043">
<time>2016-10-07T21:06:41Z</time></trkpt>
<trkpt lat="30.049184" lon="96.837692">
<time>2016-10-07T21:06:42Z</time></trkpt>
<trkpt lat="30.049383" lon="96.83686">
<time>2016-10-07T21:06:43Z</time></trkpt>
<trkpt lat="30.049601" lon="96.835928">
<time>2016-10-07T21:06:44Z</time></trkpt>
<trkpt lat="30.049829" lon="96.834906">
<time>2016-10-07T21:06:45Z</time></trkpt>
<trkpt lat="30.049849" lon="96.834786">
<time>2016-10-07T21:06:46Z</time></trkpt>
<trkpt lat="30.049849" lon="96.834666">
<time>2016-10-07T21:06:47Z</time></trkpt>
<trkpt lat="30.049838" lon="96.834576">
<time>2016-10-07T21:06:48Z</time></trkpt>
<trkpt lat="30.049818" lon="96.834476">
<time>2016-10-07T21:06:49Z</time></trkpt>
<trkpt lat="30.049768" lon="96.834365">
<time>2016-10-07T21:06:50Z</time></trkpt>
<trkpt lat="30.049688" lon="96.834215">
<time>2016-10-07T21:06:51Z</time></trkpt>
<trkpt lat="30.049577" lon="96.834075">
<time>2016-10-07T21:06:52Z</time></trkpt>
<trkpt lat="30.049367" lon="96.833854">
<time>2016-10-07T21:06:53Z</time></trkpt>
<trkpt lat="30.048836" lon="96.833303">
<time>2016-10-07T21:06:54Z</time></trkpt>
<trkpt lat="30.048636" lon="96.833103">
<time>2016-10-07T21:06:55Z</time></trkpt>
<trkpt lat="30.048485" lon="96.832923">
<time>2016-10-07T21:06:56Z</time></trkpt>
<trkpt lat="30.048405" lon="96.832782">
<time>2016-10-07T21:06:57Z</time></trkpt>
<trkpt lat="30.048355" lon="96.832622">
<time>2016-10-07T21:06:58Z</time></trkpt>
<trkpt lat="30.048344" lon="96.832462">
<time>2016-10-07T21:06:59Z</time></trkpt>
<trkpt lat="30.048354" lon="96.832301">
<time>2016-10-07T21:07:00Z</time></trkpt>
<trkpt lat="30.048384" lon="96.832041">
<time>2016-10-07T21:07:01Z</time></trkpt>
<trkpt lat="30.048443" lon="96.83177">
<time>2016-10-07T21:07:02Z</time></trkpt>
<trkpt lat="30.048523" lon="96.83149">
<time>2016-10-07T21:07:03Z</time></trkpt>
<trkpt lat="30.048701" lon="96.830888">
<time>2016-10-07T21:07:04Z</time></trkpt>
<trkpt lat="30.048781" lon="96.830608">
<time>2016-10-07T21:07:05Z</time></trkpt>
<trkpt lat="30.048811" lon="96.830438">
<time>2016-10-07T21:07:06Z</time></trkpt>
<trkpt lat="30.04882" lon="96.830217">
<time>2016-10-07T21:07:07Z</time></trkpt>
<trkpt lat="30.048799" lon="96.829716">
<time>2016-10-07T21:07:08Z</time></trkpt>
<trkpt lat="30.048788" lon="96.829225">
<time>2016-10-07T21:07:09Z</time></trkpt>
<trkpt lat="30.048788" lon="96.828935">
<time>2016-10-07T21:07:10Z</time></trkpt>
<trkpt lat="30.048827" lon="96.828283">
<time>2016-10-07T21:07:11Z</time></trkpt>
<trkpt lat="30.048816" lon="96.827742">
<time>2016-10-07T21:07:12Z</time></trkpt>
<trkpt lat="30.048794" lon="96.827121">
<time>2016-10-07T21:07:13Z</time></trkpt>
<trkpt lat="30.048794" lon="96.82672">
<time>2016-10-07T21:07:14Z</time></trkpt>
<trkpt lat="30.048783" lon="96.826419">
<time>2016-10-07T21:07:15Z</time></trkpt>
<trkpt lat="30.048733" lon="96.826159">
<time>2016-10-07T21:07:16Z</time></trkpt>
<trkpt lat="30.048662" lon="96.825929">
<time>2016-10-07T21:07:17Z</time></trkpt>
<trkpt lat="30.048511" lon="96.825558">
<time>2016-10-07T21:07:18Z</time></trkpt>
<trkpt lat="30.048341" lon="96.825157">
<time>2016-10-07T21:07:19Z</time></trkpt>
<trkpt lat="30.04816" lon="96.824716">
<time>2016-10-07T21:07:20Z</time></trkpt>
<trkpt lat="30.048039" lon="96.824415">
<time>2016-10-07T21:07:21Z</time></trkpt>
<trkpt lat="30.047949" lon="96.824085">
<time>2016-10-07T21:07:22Z</time></trkpt>
<trkpt lat="30.047828" lon="96.823744">
<time>2016-10-07T21:07:23Z</time></trkpt>
<trkpt lat="30.047507" lon="96.822973">
<time>2016-10-07T21:07:24Z</time></trkpt>
<trkpt lat="30.047185" lon="96.822171">
<time>2016-10-07T21:07:25Z</time></trkpt>
<trkpt lat="30.046914" lon="96.82154">
<time>2016-10-07T21:07:26Z</time></trkpt>
<trkpt lat="30.046834" lon="96.821349">
<time>2016-10-07T21:07:27Z</time></trkpt>
<trkpt lat="30.046773" lon="96.821219">
<time>2016-10-07T21:07:28Z</time></trkpt>
<trkpt lat="30.046653" lon="96.821009">
<time>2016-10-07T21:07:29Z</time></trkpt>
<trkpt lat="30.046462" lon="96.820698">
<time>2016-10-07T21:07:30Z</time></trkpt>
<trkpt lat="30.046161" lon="96.820197">
<time>2016-10-07T21:07:31Z</time></trkpt>
<trkpt lat="30.04587" lon="96.819716">
<time>2016-10-07T21:07:32Z</time></trkpt>
<trkpt lat="30.04562" lon="96.819315">
<time>2016-10-07T21:07:33Z</time></trkpt>
<trkpt lat="30.045239" lon="96.818674">
<time>2016-10-07T21:07:34Z</time></trkpt>
<trkpt lat="30.045078" lon="96.818363">
<time>2016-10-07T21:07:35Z</time></trkpt>
<trkpt lat="30.044907" lon="96.817983">
<time>2016-10-07T21:07:36Z</time></trkpt>
<trkpt lat="30.044797" lon="96.817692">
<time>2016-10-07T21:07:37Z</time></trkpt>
<trkpt lat="30.044556" lon="96.817111">
<time>2016-10-07T21:07:38Z</time></trkpt>
<trkpt lat="30.044214" lon="96.816299">
<time>2016-10-07T21:07:39Z</time></trkpt>
<trkpt lat="30.043832" lon="96.815388">
<time>2016-10-07T21:07:40Z</time></trkpt>
<trkpt lat="30.043662" lon="96.814957">
<time>2016-10-07T21:07:41Z</time></trkpt>
<trkpt lat="30.043491" lon="96.814496">
<time>2016-10-07T21:07:42Z</time></trkpt>
<trkpt lat="30.04333" lon="96.814115">
<time>2016-10-07T21:07:43Z</time></trkpt>
<trkpt lat="30.043049" lon="96.813454">
<time>2016-10-07T21:07:44Z</time></trkpt>
<trkpt lat="30.042738" lon="96.812742">
<time>2016-10-07T21:07:45Z</time></trkpt>
<trkpt lat="30.042366" lon="96.811891">
<time>2016-10-07T21:07:46Z</time></trkpt>
<trkpt lat="30.042095" lon="96.81125">
<time>2016-10-07T21:07:47Z</time></trkpt>
<trkpt lat="30.041693" lon="96.810328">
<time>2016-10-07T21:07:48Z</time></trkpt>
<trkpt lat="30.041272" lon="96.809356">
<time>2016-10-07T21:07:49Z</time></trkpt>
<trkpt lat="30.04093" lon="96.808565">
<time>2016-10-07T21:07:50Z</time></trkpt>
<trkpt lat="30.04082" lon="96.808304">
<time>2016-10-07T21:07:51Z</time></trkpt>
<trkpt lat="30.040729" lon="96.808084">
<time>2016-10-07T21:07:52Z</time></trkpt>
<trkpt lat="30.040609" lon="96.807883">
<time>2016-10-07T21:07:53Z</time></trkpt>
<trkpt lat="30.040378" lon="96.807533">
<time>2016-10-07T21:07:54Z</time></trkpt>
<trkpt lat="30.040148" lon="96.807182">
<time>2016-10-07T21:07:55Z</time></trkpt>
<trkpt lat="30.039987" lon="96.806881">
<time>2016-10-07T21:07:56Z</time></trkpt>
<trkpt lat="30.039787" lon="96.806511">
<time>2016-10-07T21:07:57Z</time></trkpt>
<trkpt lat="30.039646" lon="96.80617">
<time>2016-10-07T21:07:58Z</time></trkpt>
<trkpt lat="30.039536" lon="96.80587">
<time>2016-10-07T21:07:59Z</time></trkpt>
<trkpt lat="30.039335" lon="96.805279">
<time>2016-10-07T21:08:00Z</time></trkpt>
<trkpt lat="30.039204" lon="96.804848">
<time>2016-10-07T21:08:01Z</time></trkpt>
<trkpt lat="30.039133" lon="96.804547">
<time>2016-10-07T21:08:02Z</time></trkpt>
<trkpt lat="30.039093" lon="96.804357">
<time>2016-10-07T21:08:03Z</time></trkpt>
<trkpt lat="30.038972" lon="96.803786">
<time>2016-10-07T21:08:04Z</time></trkpt>
<trkpt lat="30.038851" lon="96.803145">
<time>2016-10-07T21:08:05Z</time></trkpt>
<trkpt lat="30.0388" lon="96.802794">
<time>2016-10-07T21:08:06Z</time></trkpt>
<trkpt lat="30.03873" lon="96.802243">
<time>2016-10-07T21:08:07Z</time></trkpt>
<trkpt lat="30.038659" lon="96.801913">
<time>2016-10-07T21:08:08Z</time></trkpt>
<trkpt lat="30.038548" lon="96.801552">
<time>2016-10-07T21:08:09Z</time></trkpt>
<trkpt lat="30.038448" lon="96.801161">
<time>2016-10-07T21:08:10Z</time></trkpt>
<trkpt lat="30.038417" lon="96.800941">
<time>2016-10-07T21:08:11Z</time></trkpt>
<trkpt lat="30.038377" lon="96.80068">
<time>2016-10-07T21:08:12Z</time></trkpt>
<trkpt lat="30.038357" lon="96.80039">
<time>2016-10-07T21:08:13Z</time></trkpt>
<trkpt lat="30.038336" lon="96.799909">
<time>2016-10-07T21:08:14Z</time></trkpt>
<trkpt lat="30.038344" lon="96.798797">
<time>2016-10-07T21:08:15Z</time></trkpt>
<trkpt lat="30.038343" lon="96.797826">
<time>2016-10-07T21:08:16Z</time></trkpt>
<trkpt lat="30.038351" lon="96.796574">
<time>2016-10-07T21:08:17Z</time></trkpt>
<trkpt lat="30.038358" lon="96.794661">
<time>2016-10-07T21:08:18Z</time></trkpt>
<trkpt lat="30.038356" lon="96.793469">
<time>2016-10-07T21:08:19Z</time></trkpt>
<trkpt lat="30.038365" lon="96.792497">
<time>2016-10-07T21:08:20Z</time></trkpt>
<trkpt lat="30.038363" lon="96.791406">
<time>2016-10-07T21:08:21Z</time></trkpt>
<trkpt lat="30.038362" lon="96.790324">
<time>2016-10-07T21:08:22Z</time></trkpt>
<trkpt lat="30.038371" lon="96.789743">
<time>2016-10-07T21:08:23Z</time></trkpt>
<trkpt lat="30.038369" lon="96.788111">
<time>2016-10-07T21:08:24Z</time></trkpt>
<trkpt lat="30.038365" lon="96.785347">
<time>2016-10-07T21:08:25Z</time></trkpt>
<trkpt lat="30.038374" lon="96.784226">
<time>2016-10-07T21:08:26Z</time></trkpt>
<trkpt lat="30.038383" lon="96.783244">
<time>2016-10-07T21:08:27Z</time></trkpt>
<trkpt lat="30.038382" lon="96.782754">
<time>2016-10-07T21:08:28Z</time></trkpt>
<trkpt lat="30.038382" lon="96.782544">
<time>2016-10-07T21:08:29Z</time></trkpt>
<trkpt lat="30.038372" lon="96.782323">
<time>2016-10-07T21:08:30Z</time></trkpt>
<trkpt lat="30.038341" lon="96.782033">
<time>2016-10-07T21:08:31Z</time></trkpt>
<trkpt lat="30.038281" lon="96.781803">
<time>2016-10-07T21:08:32Z</time></trkpt>
<trkpt lat="30.038201" lon="96.781552">
<time>2016-10-07T21:08:33Z</time></trkpt>
<trkpt lat="30.03811" lon="96.781332">
<time>2016-10-07T21:08:34Z</time></trkpt>
<trkpt lat="30.03801" lon="96.781112">
<time>2016-10-07T21:08:35Z</time></trkpt>
<trkpt lat="30.03792" lon="96.780932">
<time>2016-10-07T21:08:36Z</time></trkpt>
<trkpt lat="30.03786" lon="96.780781">
<time>2016-10-07T21:08:37Z</time></trkpt>
<trkpt lat="30.03782" lon="96.780641">
<time>2016-10-07T21:08:38Z</time></trkpt>
<trkpt lat="30.03781" lon="96.780551">
<time>2016-10-07T21:08:39Z</time></trkpt>
<trkpt lat="30.037799" lon="96.780451">
<time>2016-10-07T21:08:40Z</time></trkpt>
<trkpt lat="30.037809" lon="96.780351">
<time>2016-10-07T21:08:41Z</time></trkpt>
<trkpt lat="30.037829" lon="96.780181">
<time>2016-10-07T21:08:42Z</time></trkpt>
<trkpt lat="30.037889" lon="96.77985">
<time>2016-10-07T21:08:43Z</time></trkpt>
<trkpt lat="30.037939" lon="96.77954">
<time>2016-10-07T21:08:44Z</time></trkpt>
<trkpt lat="30.037988" lon="96.77921">
<time>2016-10-07T21:08:45Z</time></trkpt>
<trkpt lat="30.038088" lon="96.778669">
<time>2016-10-07T21:08:46Z</time></trkpt>
<trkpt lat="30.038177" lon="96.778279">
<time>2016-10-07T21:08:47Z</time></trkpt>
<trkpt lat="30.038297" lon="96.777918">
<time>2016-10-07T21:08:48Z</time></trkpt>
<trkpt lat="30.038446" lon="96.777508">
<time>2016-10-07T21:08:49Z</time></trkpt>
<trkpt lat="30.038506" lon="96.777268">
<time>2016-10-07T21:08:50Z</time></trkpt>
<trkpt lat="30.038596" lon="96.776767">
<time>2016-10-07T21:08:51Z</time></trkpt>
<trkpt lat="30.038695" lon="96.776317">
<time>2016-10-07T21:08:52Z</time></trkpt>
<trkpt lat="30.038805" lon="96.775896">
<time>2016-10-07T21:08:53Z</time></trkpt>
<trkpt lat="30.038865" lon="96.775676">
<time>2016-10-07T21:08:54Z</time></trkpt>
<trkpt lat="30.038905" lon="96.775486">
<time>2016-10-07T21:08:55Z</time></trkpt>
<trkpt lat="30.038924" lon="96.775206">
<time>2016-10-07T21:08:56Z</time></trkpt>
<trkpt lat="30.038944" lon="96.774725">
<time>2016-10-07T21:08:57Z</time></trkpt>
<trkpt lat="30.038964" lon="96.774525">
<time>2016-10-07T21:08:58Z</time></trkpt>
<trkpt lat="30.039003" lon="96.774235">
<time>2016-10-07T21:08:59Z</time></trkpt>
<trkpt lat="30.039053" lon="96.773984">
<time>2016-10-07T21:09:00Z</time></trkpt>
<trkpt lat="30.039113" lon="96.773754">
<time>2016-10-07T21:09:01Z</time></trkpt>
<trkpt lat="30.039143" lon="96.773494">
<time>2016-10-07T21:09:02Z</time></trkpt>
<trkpt lat="30.039172" lon="96.773094">
<time>2016-10-07T21:09:03Z</time></trkpt>
<trkpt lat="30.039202" lon="96.772653">
<time>2016-10-07T21:09:04Z</time></trkpt>
<trkpt lat="30.039242" lon="96.772053">
<time>2016-10-07T21:09:05Z</time></trkpt>
<trkpt lat="30.039291" lon="96.771552">
<time>2016-10-07T21:09:06Z</time></trkpt>
<trkpt lat="30.039371" lon="96.770882">
<time>2016-10-07T21:09:07Z</time></trkpt>
<trkpt lat="30.03942" lon="96.770371">
<time>2016-10-07T21:09:08Z</time></trkpt>
<trkpt lat="30.03948" lon="96.769621">
<time>2016-10-07T21:09:09Z</time></trkpt>
<trkpt lat="30.039539" lon="96.76894">
<time>2016-10-07T21:09:10Z</time></trkpt>
<trkpt lat="30.039569" lon="96.76856">
<time>2016-10-07T21:09:11Z</time></trkpt>
<trkpt lat="30.039589" lon="96.76824">
<time>2016-10-07T21:09:12Z</time></trkpt>
<trkpt lat="30.039579" lon="96.76794">
<time>2016-10-07T21:09:13Z</time></trkpt>
<trkpt lat="30.039558" lon="96.767659">
<time>2016-10-07T21:09:14Z</time></trkpt>
<trkpt lat="30.039538" lon="96.767269">
<time>2016-10-07T21:09:15Z</time></trkpt>
<trkpt lat="30.039508" lon="96.766779">
<time>2016-10-07T21:09:16Z</time></trkpt>
<trkpt lat="30.039467" lon="96.766269">
<time>2016-10-07T21:09:17Z</time></trkpt>
<trkpt lat="30.039467" lon="96.766129">
<time>2016-10-07T21:09:18Z</time></trkpt>
<trkpt lat="30.039467" lon="96.766008">
<time>2016-10-07T21:09:19Z</time></trkpt>
<trkpt lat="30.039497" lon="96.765858">
<time>2016-10-07T21:09:20Z</time></trkpt>
<trkpt lat="30.039557" lon="96.765688">
<time>2016-10-07T21:09:21Z</time></trkpt>
<trkpt lat="30.039647" lon="96.765458">
<time>2016-10-07T21:09:22Z</time></trkpt>
<trkpt lat="30.039767" lon="96.765168">
<time>2016-10-07T21:09:23Z</time></trkpt>
<trkpt lat="30.039877" lon="96.764918">
<time>2016-10-07T21:09:24Z</time></trkpt>
<trkpt lat="30.039937" lon="96.764738">
<time>2016-10-07T21:09:25Z</time></trkpt>
<trkpt lat="30.039957" lon="96.764578">
<time>2016-10-07T21:09:26Z</time></trkpt>
<trkpt lat="30.039956" lon="96.764438">
<time>2016-10-07T21:09:27Z</time></trkpt>
<trkpt lat="30.039916" lon="96.764217">
<time>2016-10-07T21:09:28Z</time></trkpt>
<trkpt lat="30.039856" lon="96.763837">
<time>2016-10-07T21:09:29Z</time></trkpt>
<trkpt lat="30.039816" lon="96.763587">
<time>2016-10-07T21:09:30Z</time></trkpt>
<trkpt lat="30.039776" lon="96.763367">
<time>2016-10-07T21:09:31Z</time></trkpt>
<trkpt lat="30.039726" lon="96.763237">
<time>2016-10-07T21:09:32Z</time></trkpt>
<trkpt lat="30.039646" lon="96.763117">
<time>2016-10-07T21:09:33Z</time></trkpt>
<trkpt lat="30.039546" lon="96.763037">
<time>2016-10-07T21:09:34Z</time></trkpt>
<trkpt lat="30.039416" lon="96.762967">
<time>2016-10-07T21:09:35Z</time></trkpt>
<trkpt lat="30.039276" lon="96.762907">
<time>2016-10-07T21:09:36Z</time></trkpt>
<trkpt lat="30.039126" lon="96.762807">
<time>2016-10-07T21:09:37Z</time></trkpt>
<trkpt lat="30.039016" lon="96.762707">
<time>2016-10-07T21:09:38Z</time></trkpt>
<trkpt lat="30.038915" lon="96.762567">
<time>2016-10-07T21:09:39Z</time></trkpt>
<trkpt lat="30.038855" lon="96.762417">
<time>2016-10-07T21:09:40Z</time></trkpt>
<trkpt lat="30.038795" lon="96.762196">
<time>2016-10-07T21:09:41Z</time></trkpt>
<trkpt lat="30.038675" lon="96.761616">
<time>2016-10-07T21:09:42Z</time></trkpt>
<trkpt lat="30.038585" lon="96.761156">
<time>2016-10-07T21:09:43Z</time></trkpt>
<trkpt lat="30.038445" lon="96.760506">
<time>2016-10-07T21:09:44Z</time></trkpt>
<trkpt lat="30.038334" lon="96.759996">
<time>2016-10-07T21:09:45Z</time></trkpt>
<trkpt lat="30.038274" lon="96.759655">
<time>2016-10-07T21:09:46Z</time></trkpt>
<trkpt lat="30.038244" lon="96.759335">
<time>2016-10-07T21:09:47Z</time></trkpt>
<trkpt lat="30.038224" lon="96.759065">
<time>2016-10-07T21:09:48Z</time></trkpt>
<trkpt lat="30.038204" lon="96.758775">
<time>2016-10-07T21:09:49Z</time></trkpt>
<trkpt lat="30.038214" lon="96.758595">
<time>2016-10-07T21:09:50Z</time></trkpt>
<trkpt lat="30.038244" lon="96.758415">
<time>2016-10-07T21:09:51Z</time></trkpt>
<trkpt lat="30.038314" lon="96.758195">
<time>2016-10-07T21:09:52Z</time></trkpt>
<trkpt lat="30.038444" lon="96.757865">
<time>2016-10-07T21:09:53Z</time></trkpt>
<trkpt lat="30.038753" lon="96.757145">
<time>2016-10-07T21:09:54Z</time></trkpt>
<trkpt lat="30.038983" lon="96.756615">
<time>2016-10-07T21:09:55Z</time></trkpt>
<trkpt lat="30.039073" lon="96.756415">
<time>2016-10-07T21:09:56Z</time></trkpt>
<trkpt lat="30.039173" lon="96.756215">
<time>2016-10-07T21:09:57Z</time></trkpt>
<trkpt lat="30.039343" lon="96.755944">
<time>2016-10-07T21:09:58Z</time></trkpt>
<trkpt lat="30.039413" lon="96.755804">
<time>2016-10-07T21:09:59Z</time></trkpt>
<trkpt lat="30.039483" lon="96.755604">
<time>2016-10-07T21:10:00Z</time></trkpt>
<trkpt lat="30.039593" lon="96.755204">
<time>2016-10-07T21:10:01Z</time></trkpt>
<trkpt lat="30.039843" lon="96.754294">
<time>2016-10-07T21:10:02Z</time></trkpt>
<trkpt lat="30.039963" lon="96.753874">
<time>2016-10-07T21:10:03Z</time></trkpt>
<trkpt lat="30.040073" lon="96.753534">
<time>2016-10-07T21:10:04Z</time></trkpt>
<trkpt lat="30.040183" lon="96.753194">
<time>2016-10-07T21:10:05Z</time></trkpt>
<trkpt lat="30.040293" lon="96.752784">
<time>2016-10-07T21:10:06Z</time></trkpt>
<trkpt lat="30.040383" lon="96.752444">
<time>2016-10-07T21:10:07Z</time></trkpt>
<trkpt lat="30.040453" lon="96.752254">
<time>2016-10-07T21:10:08Z</time></trkpt>
<trkpt lat="30.040543" lon="96.752034">
<time>2016-10-07T21:10:09Z</time></trkpt>
<trkpt lat="30.040683" lon="96.751724">
<time>2016-10-07T21:10:10Z</time></trkpt>
<trkpt lat="30.040913" lon="96.751214">
<time>2016-10-07T21:10:11Z</time></trkpt>
<trkpt lat="30.041313" lon="96.750324">
<time>2016-10-07T21:10:12Z</time></trkpt>
<trkpt lat="30.041443" lon="96.750054">
<time>2016-10-07T21:10:13Z</time></trkpt>
<trkpt lat="30.041533" lon="96.749844">
<time>2016-10-07T21:10:14Z</time></trkpt>
<trkpt lat="30.041593" lon="96.749664">
<time>2016-10-07T21:10:15Z</time></trkpt>
<trkpt lat="30.041633" lon="96.749524">
<time>2016-10-07T21:10:16Z</time></trkpt>
<trkpt lat="30.041683" lon="96.749254">
<time>2016-10-07T21:10:17Z</time></trkpt>
<trkpt lat="30.041703" lon="96.748924">
<time>2016-10-07T21:10:18Z</time></trkpt>
<trkpt lat="30.041713" lon="96.748614">
<time>2016-10-07T21:10:19Z</time></trkpt>
<trkpt lat="30.041693" lon="96.748394">
<time>2016-10-07T21:10:20Z</time></trkpt>
<trkpt lat="30.041643" lon="96.748114">
<time>2016-10-07T21:10:21Z</time></trkpt>
<trkpt lat="30.041553" lon="96.747724">
<time>2016-10-07T21:10:22Z</time></trkpt>
<trkpt lat="30.041433" lon="96.747304">
<time>2016-10-07T21:10:23Z</time></trkpt>
<trkpt lat="30.041333" lon="96.746955">
<time>2016-10-07T21:10:24Z</time></trkpt>
<trkpt lat="30.041233" lon="96.746575">
<time>2016-10-07T21:10:25Z</time></trkpt>
<trkpt lat="30.041163" lon="96.746225">
<time>2016-10-07T21:10:26Z</time></trkpt>
<trkpt lat="30.041063" lon="96.745615">
<time>2016-10-07T21:10:27Z</time></trkpt>
<trkpt lat="30.041003" lon="96.745205">
<time>2016-10-07T21:10:28Z</time></trkpt>
<trkpt lat="30.040963" lon="96.744895">
<time>2016-10-07T21:10:29Z</time></trkpt>
<trkpt lat="30.040933" lon="96.744605">
<time>2016-10-07T21:10:30Z</time></trkpt>
<trkpt lat="30.040893" lon="96.744195">
<time>2016-10-07T21:10:31Z</time></trkpt>
<trkpt lat="30.040873" lon="96.743965">
<time>2016-10-07T21:10:32Z</time></trkpt>
<trkpt lat="30.040823" lon="96.743745">
<time>2016-10-07T21:10:33Z</time></trkpt>
<trkpt lat="30.040743" lon="96.743485">
<time>2016-10-07T21:10:34Z</time></trkpt>
<trkpt lat="30.040703" lon="96.743346">
<time>2016-10-07T21:10:35Z</time></trkpt>
<trkpt lat="30.040653" lon="96.743156">
<time>2016-10-07T21:10:36Z</time></trkpt>
<trkpt lat="30.040633" lon="96.742976">
<time>2016-10-07T21:10:37Z</time></trkpt>
<trkpt lat="30.040624" lon="96.742826">
<time>2016-10-07T21:10:38Z</time></trkpt>
<trkpt lat="30.040594" lon="96.742246">
<time>2016-10-07T21:10:39Z</time></trkpt>
<trkpt lat="30.040564" lon="96.741516">
<time>2016-10-07T21:10:40Z</time></trkpt>
<trkpt lat="30.040544" lon="96.741036">
<time>2016-10-07T21:10:41Z</time></trkpt>
<trkpt lat="30.040514" lon="96.740737">
<time>2016-10-07T21:10:42Z</time></trkpt>
<trkpt lat="30.040474" lon="96.740437">
<time>2016-10-07T21:10:43Z</time></trkpt>
<trkpt lat="30.040394" lon="96.740037">
<time>2016-10-07T21:10:44Z</time></trkpt>
<trkpt lat="30.040295" lon="96.739527">
<time>2016-10-07T21:10:45Z</time></trkpt>
<trkpt lat="30.040215" lon="96.739037">
<time>2016-10-07T21:10:46Z</time></trkpt>
<trkpt lat="30.040135" lon="96.738538">
<time>2016-10-07T21:10:47Z</time></trkpt>
<trkpt lat="30.040085" lon="96.738198">
<time>2016-10-07T21:10:48Z</time></trkpt>
<trkpt lat="30.040025" lon="96.737978">
<time>2016-10-07T21:10:49Z</time></trkpt>
<trkpt lat="30.039915" lon="96.737608">
<time>2016-10-07T21:10:50Z</time></trkpt>
<trkpt lat="30.039836" lon="96.737338">
<time>2016-10-07T21:10:51Z</time></trkpt>
<trkpt lat="30.039796" lon="96.737138">
<time>2016-10-07T21:10:52Z</time></trkpt>
<trkpt lat="30.039786" lon="96.736939">
<time>2016-10-07T21:10:53Z</time></trkpt>
<trkpt lat="30.039776" lon="96.736649">
<time>2016-10-07T21:10:54Z</time></trkpt>
<trkpt lat="30.039756" lon="96.736039">
<time>2016-10-07T21:10:55Z</time></trkpt>
<trkpt lat="30.039727" lon="96.73551">
<time>2016-10-07T21:10:56Z</time></trkpt>
<trkpt lat="30.039697" lon="96.7353">
<time>2016-10-07T21:10:57Z</time></trkpt>
<trkpt lat="30.039607" lon="96.73489">
<time>2016-10-07T21:10:58Z</time></trkpt>
<trkpt lat="30.039537" lon="96.73455">
<time>2016-10-07T21:10:59Z</time></trkpt>
<trkpt lat="30.039358" lon="96.733781">
<time>2016-10-07T21:11:00Z</time></trkpt>
<trkpt lat="30.039178" lon="96.733121">
<time>2016-10-07T21:11:01Z</time></trkpt>
<trkpt lat="30.038928" lon="96.732232">
<time>2016-10-07T21:11:02Z</time></trkpt>
<trkpt lat="30.038789" lon="96.731702">
<time>2016-10-07T21:11:03Z</time></trkpt>
<trkpt lat="30.038709" lon="96.731413">
<time>2016-10-07T21:11:04Z</time></trkpt>
<trkpt lat="30.038599" lon="96.731113">
<time>2016-10-07T21:11:05Z</time></trkpt>
<trkpt lat="30.038499" lon="96.730893">
<time>2016-10-07T21:11:06Z</time></trkpt>
<trkpt lat="30.03834" lon="96.730573">
<time>2016-10-07T21:11:07Z</time></trkpt>
<trkpt lat="30.03822" lon="96.730354">
<time>2016-10-07T21:11:08Z</time></trkpt>
<trkpt lat="30.03811" lon="96.730194">
<time>2016-10-07T21:11:09Z</time></trkpt>
<trkpt lat="30.03799" lon="96.730064">
<time>2016-10-07T21:11:10Z</time></trkpt>
<trkpt lat="30.03775" lon="96.729854">
<time>2016-10-07T21:11:11Z</time></trkpt>
<trkpt lat="30.03737" lon="96.729524">
<time>2016-10-07T21:11:12Z</time></trkpt>
<trkpt lat="30.036941" lon="96.729155">
<time>2016-10-07T21:11:13Z</time></trkpt>
<trkpt lat="30.036511" lon="96.728785">
<time>2016-10-07T21:11:14Z</time></trkpt>
<trkpt lat="30.036231" lon="96.728565">
<time>2016-10-07T21:11:15Z</time></trkpt>
<trkpt lat="30.035971" lon="96.728375">
<time>2016-10-07T21:11:16Z</time></trkpt>
<trkpt lat="30.035671" lon="96.728156">
<time>2016-10-07T21:11:17Z</time></trkpt>
<trkpt lat="30.035282" lon="96.727876">
<time>2016-10-07T21:11:18Z</time></trkpt>
<trkpt lat="30.035002" lon="96.727656">
<time>2016-10-07T21:11:19Z</time></trkpt>
<trkpt lat="30.034772" lon="96.727466">
<time>2016-10-07T21:11:20Z</time></trkpt>
<trkpt lat="30.034572" lon="96.727296">
<time>2016-10-07T21:11:21Z</time></trkpt>
<trkpt lat="30.034282" lon="96.727047">
<time>2016-10-07T21:11:22Z</time></trkpt>
<trkpt lat="30.034033" lon="96.726797">
<time>2016-10-07T21:11:23Z</time></trkpt>
<trkpt lat="30.033423" lon="96.726208">
<time>2016-10-07T21:11:24Z</time></trkpt>
<trkpt lat="30.033133" lon="96.725928">
<time>2016-10-07T21:11:25Z</time></trkpt>
<trkpt lat="30.032854" lon="96.725668">
<time>2016-10-07T21:11:26Z</time></trkpt>
<trkpt lat="30.032404" lon="96.725319">
<time>2016-10-07T21:11:27Z</time></trkpt>
<trkpt lat="30.032064" lon="96.725079">
<time>2016-10-07T21:11:28Z</time></trkpt>
<trkpt lat="30.031574" lon="96.724719">
<time>2016-10-07T21:11:29Z</time></trkpt>
<trkpt lat="30.031325" lon="96.724569">
<time>2016-10-07T21:11:30Z</time></trkpt>
<trkpt lat="30.031135" lon="96.72445">
<time>2016-10-07T21:11:31Z</time></trkpt>
<trkpt lat="30.030995" lon="96.72437">
<time>2016-10-07T21:11:32Z</time></trkpt>
<trkpt lat="30.030725" lon="96.72423">
<time>2016-10-07T21:11:33Z</time></trkpt>
<trkpt lat="30.030435" lon="96.72409">
<time>2016-10-07T21:11:34Z</time></trkpt>
<trkpt lat="30.030075" lon="96.72389">
<time>2016-10-07T21:11:35Z</time></trkpt>
<trkpt lat="30.029855" lon="96.72378">
<time>2016-10-07T21:11:36Z</time></trkpt>
<trkpt lat="30.029605" lon="96.72368">
<time>2016-10-07T21:11:37Z</time></trkpt>
<trkpt lat="30.029125" lon="96.723511">
<time>2016-10-07T21:11:38Z</time></trkpt>
<trkpt lat="30.028836" lon="96.723401">
<time>2016-10-07T21:11:39Z</time></trkpt>
<trkpt lat="30.028296" lon="96.723201">
<time>2016-10-07T21:11:40Z</time></trkpt>
<trkpt lat="30.027746" lon="96.723001">
<time>2016-10-07T21:11:41Z</time></trkpt>
<trkpt lat="30.027276" lon="96.722821">
<time>2016-10-07T21:11:42Z</time></trkpt>
<trkpt lat="30.026866" lon="96.722662">
<time>2016-10-07T21:11:43Z</time></trkpt>
<trkpt lat="30.026496" lon="96.722522">
<time>2016-10-07T21:11:44Z</time></trkpt>
<trkpt lat="30.026366" lon="96.722482">
<time>2016-10-07T21:11:45Z</time></trkpt>
<trkpt lat="30.026226" lon="96.722462">
<time>2016-10-07T21:11:46Z</time></trkpt>
<trkpt lat="30.026106" lon="96.722472">
<time>2016-10-07T21:11:47Z</time></trkpt>
<trkpt lat="30.025996" lon="96.722512">
<time>2016-10-07T21:11:48Z</time></trkpt>
<trkpt lat="30.025866" lon="96.722602">
<time>2016-10-07T21:11:49Z</time></trkpt>
<trkpt lat="30.025736" lon="96.722732">
<time>2016-10-07T21:11:50Z</time></trkpt>
<trkpt lat="30.025606" lon="96.722871">
<time>2016-10-07T21:11:51Z</time></trkpt>
<trkpt lat="30.025396" lon="96.723051">
<time>2016-10-07T21:11:52Z</time></trkpt>
<trkpt lat="30.025236" lon="96.723161">
<time>2016-10-07T21:11:53Z</time></trkpt>
<trkpt lat="30.025096" lon="96.723251">
<time>2016-10-07T21:11:54Z</time></trkpt>
<trkpt lat="30.024976" lon="96.723301">
<time>2016-10-07T21:11:55Z</time></trkpt>
<trkpt lat="30.024866" lon="96.723331">
<time>2016-10-07T21:11:56Z</time></trkpt>
<trkpt lat="30.024716" lon="96.723341">
<time>2016-10-07T21:11:57Z</time></trkpt>
<trkpt lat="30.024506" lon="96.723321">
<time>2016-10-07T21:11:58Z</time></trkpt>
<trkpt lat="30.024266" lon="96.723281">
<time>2016-10-07T21:11:59Z</time></trkpt>
<trkpt lat="30.023996" lon="96.723191">
<time>2016-10-07T21:12:00Z</time></trkpt>
<trkpt lat="30.023536" lon="96.723071">
<time>2016-10-07T21:12:01Z</time></trkpt>
<trkpt lat="30.023396" lon="96.723021">
<time>2016-10-07T21:12:02Z</time></trkpt>
<trkpt lat="30.023266" lon="96.722951">
<time>2016-10-07T21:12:03Z</time></trkpt>
<trkpt lat="30.023146" lon="96.722871">
<time>2016-10-07T21:12:04Z</time></trkpt>
<trkpt lat="30.023066" lon="96.722792">
<time>2016-10-07T21:12:05Z</time></trkpt>
<trkpt lat="30.022986" lon="96.722692">
<time>2016-10-07T21:12:06Z</time></trkpt>
<trkpt lat="30.022747" lon="96.722352">
<time>2016-10-07T21:12:07Z</time></trkpt>
<trkpt lat="30.022367" lon="96.721793">
<time>2016-10-07T21:12:08Z</time></trkpt>
<trkpt lat="30.022028" lon="96.721273">
<time>2016-10-07T21:12:09Z</time></trkpt>
<trkpt lat="30.021708" lon="96.720824">
<time>2016-10-07T21:12:10Z</time></trkpt>
<trkpt lat="30.021498" lon="96.720504">
<time>2016-10-07T21:12:11Z</time></trkpt>
<trkpt lat="30.020979" lon="96.719735">
<time>2016-10-07T21:12:12Z</time></trkpt>
<trkpt lat="30.02064" lon="96.719246">
<time>2016-10-07T21:12:13Z</time></trkpt>
<trkpt lat="30.02043" lon="96.718886">
<time>2016-10-07T21:12:14Z</time></trkpt>
<trkpt lat="30.020261" lon="96.718547">
<time>2016-10-07T21:12:15Z</time></trkpt>
<trkpt lat="30.020111" lon="96.718247">
<time>2016-10-07T21:12:16Z</time></trkpt>
<trkpt lat="30.019872" lon="96.717628">
<time>2016-10-07T21:12:17Z</time></trkpt>
<trkpt lat="30.019602" lon="96.716919">
<time>2016-10-07T21:12:18Z</time></trkpt>
<trkpt lat="30.019254" lon="96.716">
<time>2016-10-07T21:12:19Z</time></trkpt>
<trkpt lat="30.019154" lon="96.715631">
<time>2016-10-07T21:12:20Z</time></trkpt>
<trkpt lat="30.019074" lon="96.715261">
<time>2016-10-07T21:12:21Z</time></trkpt>
<trkpt lat="30.018985" lon="96.714692">
<time>2016-10-07T21:12:22Z</time></trkpt>
<trkpt lat="30.018965" lon="96.714453">
<time>2016-10-07T21:12:23Z</time></trkpt>
<trkpt lat="30.018966" lon="96.714203">
<time>2016-10-07T21:12:24Z</time></trkpt>
<trkpt lat="30.018956" lon="96.713923">
<time>2016-10-07T21:12:25Z</time></trkpt>
<trkpt lat="30.018926" lon="96.713704">
<time>2016-10-07T21:12:26Z</time></trkpt>
<trkpt lat="30.018857" lon="96.713404">
<time>2016-10-07T21:12:27Z</time></trkpt>
<trkpt lat="30.018707" lon="96.712855">
<time>2016-10-07T21:12:28Z</time></trkpt>
<trkpt lat="30.018528" lon="96.712186">
<time>2016-10-07T21:12:29Z</time></trkpt>
<trkpt lat="30.018081" lon="96.710479">
<time>2016-10-07T21:12:30Z</time></trkpt>
<trkpt lat="30.017762" lon="96.709271">
<time>2016-10-07T21:12:31Z</time></trkpt>
<trkpt lat="30.017543" lon="96.708462">
<time>2016-10-07T21:12:32Z</time></trkpt>
<trkpt lat="30.017514" lon="96.708322">
<time>2016-10-07T21:12:33Z</time></trkpt>
<trkpt lat="30.017494" lon="96.708192">
<time>2016-10-07T21:12:34Z</time></trkpt>
<trkpt lat="30.017494" lon="96.708082">
<time>2016-10-07T21:12:35Z</time></trkpt>
<trkpt lat="30.017514" lon="96.707983">
<time>2016-10-07T21:12:36Z</time></trkpt>
<trkpt lat="30.017544" lon="96.707893">
<time>2016-10-07T21:12:37Z</time></trkpt>
<trkpt lat="30.017604" lon="96.707803">
<time>2016-10-07T21:12:38Z</time></trkpt>
<trkpt lat="30.017684" lon="96.707733">
<time>2016-10-07T21:12:39Z</time></trkpt>
<trkpt lat="30.017784" lon="96.707673">
<time>2016-10-07T21:12:40Z</time></trkpt>
<trkpt lat="30.017965" lon="96.707603">
<time>2016-10-07T21:12:41Z</time></trkpt>
<trkpt lat="30.018225" lon="96.707493">
<time>2016-10-07T21:12:42Z</time></trkpt>
<trkpt lat="30.018475" lon="96.707374">
<time>2016-10-07T21:12:43Z</time></trkpt>
<trkpt lat="30.018595" lon="96.707334">
<time>2016-10-07T21:12:44Z</time></trkpt>
<trkpt lat="30.018695" lon="96.707264">
<time>2016-10-07T21:12:45Z</time></trkpt>
<trkpt lat="30.018765" lon="96.707204">
<time>2016-10-07T21:12:46Z</time></trkpt>
<trkpt lat="30.018835" lon="96.707114">
<time>2016-10-07T21:12:47Z</time></trkpt>
<trkpt lat="30.018875" lon="96.707004">
<time>2016-10-07T21:12:48Z</time></trkpt>
<trkpt lat="30.018886" lon="96.706934">
<time>2016-10-07T21:12:49Z</time></trkpt>
<trkpt lat="30.018886" lon="96.706854">
<time>2016-10-07T21:12:50Z</time></trkpt>
<trkpt lat="30.018876" lon="96.706755">
<time>2016-10-07T21:12:51Z</time></trkpt>
<trkpt lat="30.018806" lon="96.706525">
<time>2016-10-07T21:12:52Z</time></trkpt>
<trkpt lat="30.018497" lon="96.705617">
<time>2016-10-07T21:12:53Z</time></trkpt>
<trkpt lat="30.018418" lon="96.705307">
<time>2016-10-07T21:12:54Z</time></trkpt>
<trkpt lat="30.018339" lon="96.704938">
<time>2016-10-07T21:12:55Z</time></trkpt>
<trkpt lat="30.018269" lon="96.704578">
<time>2016-10-07T21:12:56Z</time></trkpt>
<trkpt lat="30.01821" lon="96.704259">
<time>2016-10-07T21:12:57Z</time></trkpt>
<trkpt lat="30.01813" lon="96.703979">
<time>2016-10-07T21:12:58Z</time></trkpt>
<trkpt lat="30.01801" lon="96.70367">
<time>2016-10-07T21:12:59Z</time></trkpt>
<trkpt lat="30.017881" lon="96.703351">
<time>2016-10-07T21:13:00Z</time></trkpt>
<trkpt lat="30.017801" lon="96.703141">
<time>2016-10-07T21:13:01Z</time></trkpt>
<trkpt lat="30.017752" lon="96.702951">
<time>2016-10-07T21:13:02Z</time></trkpt>
<trkpt lat="30.017712" lon="96.702742">
<time>2016-10-07T21:13:03Z</time></trkpt>
<trkpt lat="30.017653" lon="96.702213">
<time>2016-10-07T21:13:04Z</time></trkpt>
<trkpt lat="30.017603" lon="96.701823">
<time>2016-10-07T21:13:05Z</time></trkpt>
<trkpt lat="30.017564" lon="96.701474">
<time>2016-10-07T21:13:06Z</time></trkpt>
<trkpt lat="30.017534" lon="96.701304">
<time>2016-10-07T21:13:07Z</time></trkpt>
<trkpt lat="30.017454" lon="96.701115">
<time>2016-10-07T21:13:08Z</time></trkpt>
<trkpt lat="30.017375" lon="96.700985">
<time>2016-10-07T21:13:09Z</time></trkpt>
<trkpt lat="30.017265" lon="96.700855">
<time>2016-10-07T21:13:10Z</time></trkpt>
<trkpt lat="30.017105" lon="96.700705">
<time>2016-10-07T21:13:11Z</time></trkpt>
<trkpt lat="30.016975" lon="96.700596">
<time>2016-10-07T21:13:12Z</time></trkpt>
<trkpt lat="30.016845" lon="96.700526">
<time>2016-10-07T21:13:13Z</time></trkpt>
<trkpt lat="30.016665" lon="96.700486">
<time>2016-10-07T21:13:14Z</time></trkpt>
<trkpt lat="30.016415" lon="96.700436">
<time>2016-10-07T21:13:15Z</time></trkpt>
<trkpt lat="30.016136" lon="96.700396">
<time>2016-10-07T21:13:16Z</time></trkpt>
<trkpt lat="30.015666" lon="96.700306">
<time>2016-10-07T21:13:17Z</time></trkpt>
<trkpt lat="30.015286" lon="96.700246">
<time>2016-10-07T21:13:18Z</time></trkpt>
<trkpt lat="30.014506" lon="96.700116">
<time>2016-10-07T21:13:19Z</time></trkpt>
<trkpt lat="30.014236" lon="96.700067">
<time>2016-10-07T21:13:20Z</time></trkpt>
<trkpt lat="30.014036" lon="96.700017">
<time>2016-10-07T21:13:21Z</time></trkpt>
<trkpt lat="30.013896" lon="96.699957">
<time>2016-10-07T21:13:22Z</time></trkpt>
<trkpt lat="30.013776" lon="96.699887">
<time>2016-10-07T21:13:23Z</time></trkpt>
<trkpt lat="30.013666" lon="96.699787">
<time>2016-10-07T21:13:24Z</time></trkpt>
<trkpt lat="30.013517" lon="96.699657">
<time>2016-10-07T21:13:25Z</time></trkpt>
<trkpt lat="30.013227" lon="96.699378">
<time>2016-10-07T21:13:26Z</time></trkpt>
<trkpt lat="30.012958" lon="96.699128">
<time>2016-10-07T21:13:27Z</time></trkpt>
<trkpt lat="30.012748" lon="96.698929">
<time>2016-10-07T21:13:28Z</time></trkpt>
<trkpt lat="30.012588" lon="96.698779">
<time>2016-10-07T21:13:29Z</time></trkpt>
<trkpt lat="30.012448" lon="96.698629">
<time>2016-10-07T21:13:30Z</time></trkpt>
<trkpt lat="30.012349" lon="96.69848">
<time>2016-10-07T21:13:31Z</time></trkpt>
<trkpt lat="30.012259" lon="96.69832">
<time>2016-10-07T21:13:32Z</time></trkpt>
<trkpt lat="30.012169" lon="96.6981">
<time>2016-10-07T21:13:33Z</time></trkpt>
<trkpt lat="30.01205" lon="96.697801">
<time>2016-10-07T21:13:34Z</time></trkpt>
<trkpt lat="30.01191" lon="96.697461">
<time>2016-10-07T21:13:35Z</time></trkpt>
<trkpt lat="30.011751" lon="96.697082">
<time>2016-10-07T21:13:36Z</time></trkpt>
<trkpt lat="30.011562" lon="96.696633">
<time>2016-10-07T21:13:37Z</time></trkpt>
<trkpt lat="30.011372" lon="96.696154">
<time>2016-10-07T21:13:38Z</time></trkpt>
<trkpt lat="30.011243" lon="96.695795">
<time>2016-10-07T21:13:39Z</time></trkpt>
<trkpt lat="30.011134" lon="96.695395">
<time>2016-10-07T21:13:40Z</time></trkpt>
<trkpt lat="30.011034" lon="96.695016">
<time>2016-10-07T21:13:41Z</time></trkpt>
<trkpt lat="30.010945" lon="96.694737">
<time>2016-10-07T21:13:42Z</time></trkpt>
<trkpt lat="30.010845" lon="96.694497">
<time>2016-10-07T21:13:43Z</time></trkpt>
<trkpt lat="30.010736" lon="96.694308">
<time>2016-10-07T21:13:44Z</time></trkpt>
<trkpt lat="30.010576" lon="96.694098">
<time>2016-10-07T21:13:45Z</time></trkpt>
<trkpt lat="30.010416" lon="96.693858">
<time>2016-10-07T21:13:46Z</time></trkpt>
<trkpt lat="30.010257" lon="96.693669">
<time>2016-10-07T21:13:47Z</time></trkpt>
<trkpt lat="30.010087" lon="96.693489">
<time>2016-10-07T21:13:48Z</time></trkpt>
<trkpt lat="30.009897" lon="96.6933">
<time>2016-10-07T21:13:49Z</time></trkpt>
<trkpt lat="30.009598" lon="96.69303">
<time>2016-10-07T21:13:50Z</time></trkpt>
<trkpt lat="30.009218" lon="96.692671">
<time>2016-10-07T21:13:51Z</time></trkpt>
<trkpt lat="30.008779" lon="96.692272">
<time>2016-10-07T21:13:52Z</time></trkpt>
<trkpt lat="30.008559" lon="96.692062">
<time>2016-10-07T21:13:53Z</time></trkpt>
<trkpt lat="30.00796" lon="96.691493">
<time>2016-10-07T21:13:54Z</time></trkpt>
<trkpt lat="30.007751" lon="96.691284">
<time>2016-10-07T21:13:55Z</time></trkpt>
<trkpt lat="30.007561" lon="96.691094">
<time>2016-10-07T21:13:56Z</time></trkpt>
<trkpt lat="30.007232" lon="96.690775">
<time>2016-10-07T21:13:57Z</time></trkpt>
<trkpt lat="30.006992" lon="96.690535">
<time>2016-10-07T21:13:58Z</time></trkpt>
<trkpt lat="30.006613" lon="96.690166">
<time>2016-10-07T21:13:59Z</time></trkpt>
<trkpt lat="30.006313" lon="96.689867">
<time>2016-10-07T21:14:00Z</time></trkpt>
<trkpt lat="30.006044" lon="96.689597">
<time>2016-10-07T21:14:01Z</time></trkpt>
<trkpt lat="30.005784" lon="96.689348">
<time>2016-10-07T21:14:02Z</time></trkpt>
<trkpt lat="30.005525" lon="96.689098">
<time>2016-10-07T21:14:03Z</time></trkpt>
<trkpt lat="30.005395" lon="96.688968">
<time>2016-10-07T21:14:04Z</time></trkpt>
<trkpt lat="30.005275" lon="96.688819">
<time>2016-10-07T21:14:05Z</time></trkpt>
<trkpt lat="30.005146" lon="96.688649">
<time>2016-10-07T21:14:06Z</time></trkpt>
<trkpt lat="30.005056" lon="96.688489">
<time>2016-10-07T21:14:07Z</time></trkpt>
<trkpt lat="30.004956" lon="96.68827">
<time>2016-10-07T21:14:08Z</time></trkpt>
<trkpt lat="30.004847" lon="96.68798">
<time>2016-10-07T21:14:09Z</time></trkpt>
<trkpt lat="30.004747" lon="96.687681">
<time>2016-10-07T21:14:10Z</time></trkpt>
<trkpt lat="30.004668" lon="96.687452">
<time>2016-10-07T21:14:11Z</time></trkpt>
<trkpt lat="30.004568" lon="96.687152">
<time>2016-10-07T21:14:12Z</time></trkpt>
<trkpt lat="30.004439" lon="96.686753">
<time>2016-10-07T21:14:13Z</time></trkpt>
<trkpt lat="30.00424" lon="96.686184">
<time>2016-10-07T21:14:14Z</time></trkpt>
<trkpt lat="30.004071" lon="96.685675">
<time>2016-10-07T21:14:15Z</time></trkpt>
<trkpt lat="30.003872" lon="96.685087">
<time>2016-10-07T21:14:16Z</time></trkpt>
<trkpt lat="30.003673" lon="96.684478">
<time>2016-10-07T21:14:17Z</time></trkpt>
<trkpt lat="30.003584" lon="96.684238">
<time>2016-10-07T21:14:18Z</time></trkpt>
<trkpt lat="30.003504" lon="96.684059">
<time>2016-10-07T21:14:19Z</time></trkpt>
<trkpt lat="30.003384" lon="96.683879">
<time>2016-10-07T21:14:20Z</time></trkpt>
<trkpt lat="30.003245" lon="96.683719">
<time>2016-10-07T21:14:21Z</time></trkpt>
<trkpt lat="30.003105" lon="96.68358">
<time>2016-10-07T21:14:22Z</time></trkpt>
<trkpt lat="30.002935" lon="96.68343">
<time>2016-10-07T21:14:23Z</time></trkpt>
<trkpt lat="30.002745" lon="96.68328">
<time>2016-10-07T21:14:24Z</time></trkpt>
<trkpt lat="30.002436" lon="96.683031">
<time>2016-10-07T21:14:25Z</time></trkpt>
<trkpt lat="30.002076" lon="96.682732">
<time>2016-10-07T21:14:26Z</time></trkpt>
<trkpt lat="30.001937" lon="96.682622">
<time>2016-10-07T21:14:27Z</time></trkpt>
<trkpt lat="30.001727" lon="96.682452">
<time>2016-10-07T21:14:28Z</time></trkpt>
<trkpt lat="30.001577" lon="96.682312">
<time>2016-10-07T21:14:29Z</time></trkpt>
<trkpt lat="30.001487" lon="96.682233">
<time>2016-10-07T21:14:30Z</time></trkpt>
<trkpt lat="30.001427" lon="96.682143">
<time>2016-10-07T21:14:31Z</time></trkpt>
<trkpt lat="30.001358" lon="96.682013">
<time>2016-10-07T21:14:32Z</time></trkpt>
<trkpt lat="30.001318" lon="96.681903">
<time>2016-10-07T21:14:33Z</time></trkpt>
<trkpt lat="30.001278" lon="96.681754">
<time>2016-10-07T21:14:34Z</time></trkpt>
<trkpt lat="30.001238" lon="96.681594">
<time>2016-10-07T21:14:35Z</time></trkpt>
<trkpt lat="30.001169" lon="96.681434">
<time>2016-10-07T21:14:36Z</time></trkpt>
<trkpt lat="30.001099" lon="96.681325">
<time>2016-10-07T21:14:37Z</time></trkpt>
<trkpt lat="30.000999" lon="96.681205">
<time>2016-10-07T21:14:38Z</time></trkpt>
<trkpt lat="30.000849" lon="96.681085">
<time>2016-10-07T21:14:39Z</time></trkpt>
<trkpt lat="30.00057" lon="96.680856">
<time>2016-10-07T21:14:40Z</time></trkpt>
<trkpt lat="30.00031" lon="96.680646">
<time>2016-10-07T21:14:41Z</time></trkpt>
<trkpt lat="30.000041" lon="96.680426">
<time>2016-10-07T21:14:42Z</time></trkpt>
<trkpt lat="29.999911" lon="96.680307">
<time>2016-10-07T21:14:43Z</time></trkpt>
<trkpt lat="29.999771" lon="96.680177">
<time>2016-10-07T21:14:44Z</time></trkpt>
<trkpt lat="29.999671" lon="96.680077">
<time>2016-10-07T21:14:45Z</time></trkpt>
<trkpt lat="29.999601" lon="96.679997">
<time>2016-10-07T21:14:46Z</time></trkpt>
<trkpt lat="29.999502" lon="96.679888">
<time>2016-10-07T21:14:47Z</time></trkpt>
<trkpt lat="29.999332" lon="96.679688">
<time>2016-10-07T21:14:48Z</time></trkpt>
<trkpt lat="29.999133" lon="96.679449">
<time>2016-10-07T21:14:49Z</time></trkpt>
<trkpt lat="29.998963" lon="96.679259">
<time>2016-10-07T21:14:50Z</time></trkpt>
<trkpt lat="29.998813" lon="96.679089">
<time>2016-10-07T21:14:51Z</time></trkpt>
<trkpt lat="29.998693" lon="96.67895">
<time>2016-10-07T21:14:52Z</time></trkpt>
<trkpt lat="29.998614" lon="96.67885">
<time>2016-10-07T21:14:53Z</time></trkpt>
<trkpt lat="29.998524" lon="96.67878">
<time>2016-10-07T21:14:54Z</time></trkpt>
<trkpt lat="29.998444" lon="96.67873">
<time>2016-10-07T21:14:55Z</time></trkpt>
<trkpt lat="29.998374" lon="96.6787">
<time>2016-10-07T21:14:56Z</time></trkpt>
<trkpt lat="29.998304" lon="96.67867">
<time>2016-10-07T21:14:57Z</time></trkpt>
<trkpt lat="29.998224" lon="96.67865">
<time>2016-10-07T21:14:58Z</time></trkpt>
<trkpt lat="29.998154" lon="96.67864">
<time>2016-10-07T21:14:59Z</time></trkpt>
<trkpt lat="29.998064" lon="96.67863">
<time>2016-10-07T21:15:00Z</time></trkpt>
<trkpt lat="29.997904" lon="96.67862">
<time>2016-10-07T21:15:01Z</time></trkpt>
<trkpt lat="29.997634" lon="96.6786">
<time>2016-10-07T21:15:02Z</time></trkpt>
<trkpt lat="29.997514" lon="96.67859">
<time>2016-10-07T21:15:03Z</time></trkpt>
<trkpt lat="29.997414" lon="96.67858">
<time>2016-10-07T21:15:04Z</time></trkpt>
<trkpt lat="29.997314" lon="96.67857">
<time>2016-10-07T21:15:05Z</time></trkpt>
<trkpt lat="29.997194" lon="96.678551">
<time>2016-10-07T21:15:06Z</time></trkpt>
<trkpt lat="29.997084" lon="96.678521">
<time>2016-10-07T21:15:07Z</time></trkpt>
<trkpt lat="29.996944" lon="96.678481">
<time>2016-10-07T21:15:08Z</time></trkpt>
<trkpt lat="29.996774" lon="96.678431">
<time>2016-10-07T21:15:09Z</time></trkpt>
<trkpt lat="29.996625" lon="96.678381">
<time>2016-10-07T21:15:10Z</time></trkpt>
<trkpt lat="29.996505" lon="96.678341">
<time>2016-10-07T21:15:11Z</time></trkpt>
<trkpt lat="29.996445" lon="96.678311">
<time>2016-10-07T21:15:12Z</time></trkpt>
<trkpt lat="29.996395" lon="96.678291">
<time>2016-10-07T21:15:13Z</time></trkpt>
<trkpt lat="29.996325" lon="96.678261">
<time>2016-10-07T21:15:14Z</time></trkpt>
<trkpt lat="29.996255" lon="96.678221">
<time>2016-10-07T21:15:15Z</time></trkpt>
<trkpt lat="29.996185" lon="96.678171">
<time>2016-10-07T21:15:16Z</time></trkpt>
<trkpt lat="29.996125" lon="96.678121">
<time>2016-10-07T21:15:17Z</time></trkpt>
<trkpt lat="29.996065" lon="96.678052">
<time>2016-10-07T21:15:18Z</time></trkpt>
<trkpt lat="29.995995" lon="96.677962">
<time>2016-10-07T21:15:19Z</time></trkpt>
<trkpt lat="29.995916" lon="96.677822">
<time>2016-10-07T21:15:20Z</time></trkpt>
<trkpt lat="29.995816" lon="96.677652">
<time>2016-10-07T21:15:21Z</time></trkpt>
<trkpt lat="29.995746" lon="96.677523">
<time>2016-10-07T21:15:22Z</time></trkpt>
<trkpt lat="29.995696" lon="96.677443">
<time>2016-10-07T21:15:23Z</time></trkpt>
<trkpt lat="29.995636" lon="96.677353">
<time>2016-10-07T21:15:24Z</time></trkpt>
<trkpt lat="29.995577" lon="96.677273">
<time>2016-10-07T21:15:25Z</time></trkpt>
<trkpt lat="29.995517" lon="96.677193">
<time>2016-10-07T21:15:26Z</time></trkpt>
<trkpt lat="29.995417" lon="96.677104">
<time>2016-10-07T21:15:27Z</time></trkpt>
<trkpt lat="29.995317" lon="96.677024">
<time>2016-10-07T21:15:28Z</time></trkpt>
<trkpt lat="29.995147" lon="96.676894">
<time>2016-10-07T21:15:29Z</time></trkpt>
<trkpt lat="29.994998" lon="96.676774">
<time>2016-10-07T21:15:30Z</time></trkpt>
<trkpt lat="29.994888" lon="96.676695">
<time>2016-10-07T21:15:31Z</time></trkpt>
<trkpt lat="29.994758" lon="96.676595">
<time>2016-10-07T21:15:32Z</time></trkpt>
<trkpt lat="29.994588" lon="96.676465">
<time>2016-10-07T21:15:33Z</time></trkpt>
<trkpt lat="29.994398" lon="96.676325">
<time>2016-10-07T21:15:34Z</time></trkpt>
<trkpt lat="29.994259" lon="96.676226">
<time>2016-10-07T21:15:35Z</time></trkpt>
<trkpt lat="29.994089" lon="96.676136">
<time>2016-10-07T21:15:36Z</time></trkpt>
<trkpt lat="29.993929" lon="96.676056">
<time>2016-10-07T21:15:37Z</time></trkpt>
<trkpt lat="29.993749" lon="96.675956">
<time>2016-10-07T21:15:38Z</time></trkpt>
<trkpt lat="29.993639" lon="96.675896">
<time>2016-10-07T21:15:39Z</time></trkpt>
<trkpt lat="29.993579" lon="96.675856">
<time>2016-10-07T21:15:40Z</time></trkpt>
<trkpt lat="29.993529" lon="96.675826">
<time>2016-10-07T21:15:41Z</time></trkpt>
<trkpt lat="29.993469" lon="96.675767">
<time>2016-10-07T21:15:42Z</time></trkpt>
<trkpt lat="29.99339" lon="96.675687">
<time>2016-10-07T21:15:43Z</time></trkpt>
<trkpt lat="29.99334" lon="96.675627">
<time>2016-10-07T21:15:44Z</time></trkpt>
<trkpt lat="29.99328" lon="96.675527">
<time>2016-10-07T21:15:45Z</time></trkpt>
<trkpt lat="29.99324" lon="96.675447">
<time>2016-10-07T21:15:46Z</time></trkpt>
<trkpt lat="29.993161" lon="96.675228">
<time>2016-10-07T21:15:47Z</time></trkpt>
<trkpt lat="29.993121" lon="96.675138">
<time>2016-10-07T21:15:48Z</time></trkpt>
<trkpt lat="29.993091" lon="96.675068">
<time>2016-10-07T21:15:49Z</time></trkpt>
<trkpt lat="29.993051" lon="96.674978">
<time>2016-10-07T21:15:50Z</time></trkpt>
<trkpt lat="29.992991" lon="96.674888">
<time>2016-10-07T21:15:51Z</time></trkpt>
<trkpt lat="29.992931" lon="96.674809">
<time>2016-10-07T21:15:52Z</time></trkpt>
<trkpt lat="29.992871" lon="96.674739">
<time>2016-10-07T21:15:53Z</time></trkpt>
<trkpt lat="29.992792" lon="96.674669">
<time>2016-10-07T21:15:54Z</time></trkpt>
<trkpt lat="29.992712" lon="96.674609">
<time>2016-10-07T21:15:55Z</time></trkpt>
<trkpt lat="29.992632" lon="96.674559">
<time>2016-10-07T21:15:56Z</time></trkpt>
<trkpt lat="29.992522" lon="96.674509">
<time>2016-10-07T21:15:57Z</time></trkpt>
<trkpt lat="29.992372" lon="96.674459">
<time>2016-10-07T21:15:58Z</time></trkpt>
<trkpt lat="29.992132" lon="96.67436">
<time>2016-10-07T21:15:59Z</time></trkpt>
<trkpt lat="29.991842" lon="96.67425">
<time>2016-10-07T21:16:00Z</time></trkpt>
<trkpt lat="29.991563" lon="96.67415">
<time>2016-10-07T21:16:01Z</time></trkpt>
<trkpt lat="29.991433" lon="96.6741">
<time>2016-10-07T21:16:02Z</time></trkpt>
<trkpt lat="29.991193" lon="96.674">
<time>2016-10-07T21:16:03Z</time></trkpt>
<trkpt lat="29.990963" lon="96.673911">
<time>2016-10-07T21:16:04Z</time></trkpt>
<trkpt lat="29.990763" lon="96.673811">
<time>2016-10-07T21:16:05Z</time></trkpt>
<trkpt lat="29.990543" lon="96.673711">
<time>2016-10-07T21:16:06Z</time></trkpt>
<trkpt lat="29.990324" lon="96.673601">
<time>2016-10-07T21:16:07Z</time></trkpt>
<trkpt lat="29.990034" lon="96.673462">
<time>2016-10-07T21:16:08Z</time></trkpt>
<trkpt lat="29.989734" lon="96.673312">
<time>2016-10-07T21:16:09Z</time></trkpt>
<trkpt lat="29.989245" lon="96.673072">
<time>2016-10-07T21:16:10Z</time></trkpt>
<trkpt lat="29.988935" lon="96.672923">
<time>2016-10-07T21:16:11Z</time></trkpt>
<trkpt lat="29.988715" lon="96.672803">
<time>2016-10-07T21:16:12Z</time></trkpt>
<trkpt lat="29.988405" lon="96.672653">
<time>2016-10-07T21:16:13Z</time></trkpt>
<trkpt lat="29.987876" lon="96.672394">
<time>2016-10-07T21:16:14Z</time></trkpt>
<trkpt lat="29.987546" lon="96.672234">
<time>2016-10-07T21:16:15Z</time></trkpt>
<trkpt lat="29.987187" lon="96.672055">
<time>2016-10-07T21:16:16Z</time></trkpt>
<trkpt lat="29.986937" lon="96.671925">
<time>2016-10-07T21:16:17Z</time></trkpt>
<trkpt lat="29.986827" lon="96.671855">
<time>2016-10-07T21:16:18Z</time></trkpt>
<trkpt lat="29.986727" lon="96.671785">
<time>2016-10-07T21:16:19Z</time></trkpt>
<trkpt lat="29.986557" lon="96.671656">
<time>2016-10-07T21:16:20Z</time></trkpt>
<trkpt lat="29.986378" lon="96.671496">
<time>2016-10-07T21:16:21Z</time></trkpt>
<trkpt lat="29.986148" lon="96.671256">
<time>2016-10-07T21:16:22Z</time></trkpt>
<trkpt lat="29.985909" lon="96.670997">
<time>2016-10-07T21:16:23Z</time></trkpt>
<trkpt lat="29.985659" lon="96.670738">
<time>2016-10-07T21:16:24Z</time></trkpt>
<trkpt lat="29.985549" lon="96.670628">
<time>2016-10-07T21:16:25Z</time></trkpt>
<trkpt lat="29.985449" lon="96.670538">
<time>2016-10-07T21:16:26Z</time></trkpt>
<trkpt lat="29.98536" lon="96.670468">
<time>2016-10-07T21:16:27Z</time></trkpt>
<trkpt lat="29.98526" lon="96.670408">
<time>2016-10-07T21:16:28Z</time></trkpt>
<trkpt lat="29.98516" lon="96.670358">
<time>2016-10-07T21:16:29Z</time></trkpt>
<trkpt lat="29.98505" lon="96.670309">
<time>2016-10-07T21:16:30Z</time></trkpt>
<trkpt lat="29.98494" lon="96.670269">
<time>2016-10-07T21:16:31Z</time></trkpt>
<trkpt lat="29.98479" lon="96.670239">
<time>2016-10-07T21:16:32Z</time></trkpt>
<trkpt lat="29.98468" lon="96.670219">
<time>2016-10-07T21:16:33Z</time></trkpt>
<trkpt lat="29.98458" lon="96.670209">
<time>2016-10-07T21:16:34Z</time></trkpt>
<trkpt lat="29.98448" lon="96.670219">
<time>2016-10-07T21:16:35Z</time></trkpt>
<trkpt lat="29.98435" lon="96.670229">
<time>2016-10-07T21:16:36Z</time></trkpt>
<trkpt lat="29.9842" lon="96.670239">
<time>2016-10-07T21:16:37Z</time></trkpt>
<trkpt lat="29.98406" lon="96.670259">
<time>2016-10-07T21:16:38Z</time></trkpt>
<trkpt lat="29.98395" lon="96.670279">
<time>2016-10-07T21:16:39Z</time></trkpt>
<trkpt lat="29.98381" lon="96.670318">
<time>2016-10-07T21:16:40Z</time></trkpt>
<trkpt lat="29.98363" lon="96.670398">
<time>2016-10-07T21:16:41Z</time></trkpt>
<trkpt lat="29.98349" lon="96.670458">
<time>2016-10-07T21:16:42Z</time></trkpt>
<trkpt lat="29.98342" lon="96.670488">
<time>2016-10-07T21:16:43Z</time></trkpt>
<trkpt lat="29.983359" lon="96.670508">
<time>2016-10-07T21:16:44Z</time></trkpt>
<trkpt lat="29.983239" lon="96.670548">
<time>2016-10-07T21:16:45Z</time></trkpt>
<trkpt lat="29.983169" lon="96.670558">
<time>2016-10-07T21:16:46Z</time></trkpt>
<trkpt lat="29.983099" lon="96.670558">
<time>2016-10-07T21:16:47Z</time></trkpt>
<trkpt lat="29.983019" lon="96.670558">
<time>2016-10-07T21:16:48Z</time></trkpt>
<trkpt lat="29.982889" lon="96.670548">
<time>2016-10-07T21:16:49Z</time></trkpt>
<trkpt lat="29.982659" lon="96.670518">
<time>2016-10-07T21:16:50Z</time></trkpt>
<trkpt lat="29.98244" lon="96.670478">
<time>2016-10-07T21:16:51Z</time></trkpt>
<trkpt lat="29.98212" lon="96.670428">
<time>2016-10-07T21:16:52Z</time></trkpt>
<trkpt lat="29.98151" lon="96.670338">
<time>2016-10-07T21:16:53Z</time></trkpt>
<trkpt lat="29.98134" lon="96.670309">
<time>2016-10-07T21:16:54Z</time></trkpt>
<trkpt lat="29.98117" lon="96.670289">
<time>2016-10-07T21:16:55Z</time></trkpt>
<trkpt lat="29.98083" lon="96.670259">
<time>2016-10-07T21:16:56Z</time></trkpt>
<trkpt lat="29.9806" lon="96.670249">
<time>2016-10-07T21:16:57Z</time></trkpt>
<trkpt lat="29.98038" lon="96.670229">
<time>2016-10-07T21:16:58Z</time></trkpt>
<trkpt lat="29.98022" lon="96.670199">
<time>2016-10-07T21:16:59Z</time></trkpt>
<trkpt lat="29.97998" lon="96.670149">
<time>2016-10-07T21:17:00Z</time></trkpt>
<trkpt lat="29.97983" lon="96.670099">
<time>2016-10-07T21:17:01Z</time></trkpt>
<trkpt lat="29.97973" lon="96.670059">
<time>2016-10-07T21:17:02Z</time></trkpt>
<trkpt lat="29.97964" lon="96.670019">
<time>2016-10-07T21:17:03Z</time></trkpt>
<trkpt lat="29.979501" lon="96.669939">
<time>2016-10-07T21:17:04Z</time></trkpt>
<trkpt lat="29.979361" lon="96.66985">
<time>2016-10-07T21:17:05Z</time></trkpt>
<trkpt lat="29.979201" lon="96.66972">
<time>2016-10-07T21:17:06Z</time></trkpt>
<trkpt lat="29.979021" lon="96.66957">
<time>2016-10-07T21:17:07Z</time></trkpt>
<trkpt lat="29.978822" lon="96.669421">
<time>2016-10-07T21:17:08Z</time></trkpt>
<trkpt lat="29.978522" lon="96.669171">
<time>2016-10-07T21:17:09Z</time></trkpt>
<trkpt lat="29.978173" lon="96.668892">
<time>2016-10-07T21:17:10Z</time></trkpt>
<trkpt lat="29.978073" lon="96.668802">
<time>2016-10-07T21:17:11Z</time></trkpt>
<trkpt lat="29.977953" lon="96.668722">
<time>2016-10-07T21:17:12Z</time></trkpt>
<trkpt lat="29.977813" lon="96.668632">
<time>2016-10-07T21:17:13Z</time></trkpt>
<trkpt lat="29.977304" lon="96.668293">
<time>2016-10-07T21:17:14Z</time></trkpt>
<trkpt lat="29.977204" lon="96.668223">
<time>2016-10-07T21:17:15Z</time></trkpt>
<trkpt lat="29.977064" lon="96.668143">
<time>2016-10-07T21:17:16Z</time></trkpt>
<trkpt lat="29.976864" lon="96.668043">
<time>2016-10-07T21:17:17Z</time></trkpt>
<trkpt lat="29.976664" lon="96.667944">
<time>2016-10-07T21:17:18Z</time></trkpt>
<trkpt lat="29.976435" lon="96.667824">
<time>2016-10-07T21:17:19Z</time></trkpt>
<trkpt lat="29.976235" lon="96.667744">
<time>2016-10-07T21:17:20Z</time></trkpt>
<trkpt lat="29.975845" lon="96.667584">
<time>2016-10-07T21:17:21Z</time></trkpt>
<trkpt lat="29.975505" lon="96.667445">
<time>2016-10-07T21:17:22Z</time></trkpt>
<trkpt lat="29.975295" lon="96.667345">
<time>2016-10-07T21:17:23Z</time></trkpt>
<trkpt lat="29.975066" lon="96.667255">
<time>2016-10-07T21:17:24Z</time></trkpt>
<trkpt lat="29.974836" lon="96.667165">
<time>2016-10-07T21:17:25Z</time></trkpt>
<trkpt lat="29.974566" lon="96.667056">
<time>2016-10-07T21:17:26Z</time></trkpt>
<trkpt lat="29.974316" lon="96.666956">
<time>2016-10-07T21:17:27Z</time></trkpt>
<trkpt lat="29.973667" lon="96.666676">
<time>2016-10-07T21:17:28Z</time></trkpt>
<trkpt lat="29.973047" lon="96.666437">
<time>2016-10-07T21:17:29Z</time></trkpt>
<trkpt lat="29.972268" lon="96.666118">
<time>2016-10-07T21:17:30Z</time></trkpt>
<trkpt lat="29.971948" lon="96.665998">
<time>2016-10-07T21:17:31Z</time></trkpt>
<trkpt lat="29.971598" lon="96.665868">
<time>2016-10-07T21:17:32Z</time></trkpt>
<trkpt lat="29.971219" lon="96.665729">
<time>2016-10-07T21:17:33Z</time></trkpt>
<trkpt lat="29.970349" lon="96.665379">
<time>2016-10-07T21:17:34Z</time></trkpt>
<trkpt lat="29.9697" lon="96.66512">
<time>2016-10-07T21:17:35Z</time></trkpt>
<trkpt lat="29.96902" lon="96.66485">
<time>2016-10-07T21:17:36Z</time></trkpt>
<trkpt lat="29.968621" lon="96.664691">
<time>2016-10-07T21:17:37Z</time></trkpt>
<trkpt lat="29.968321" lon="96.664571">
<time>2016-10-07T21:17:38Z</time></trkpt>
<trkpt lat="29.967931" lon="96.664411">
<time>2016-10-07T21:17:39Z</time></trkpt>
<trkpt lat="29.967421" lon="96.664212">
<time>2016-10-07T21:17:40Z</time></trkpt>
<trkpt lat="29.966572" lon="96.663873">
<time>2016-10-07T21:17:41Z</time></trkpt>
<trkpt lat="29.966182" lon="96.663713">
<time>2016-10-07T21:17:42Z</time></trkpt>
<trkpt lat="29.965573" lon="96.663463">
<time>2016-10-07T21:17:43Z</time></trkpt>
<trkpt lat="29.964933" lon="96.663204">
<time>2016-10-07T21:17:44Z</time></trkpt>
<trkpt lat="29.964214" lon="96.662925">
<time>2016-10-07T21:17:45Z</time></trkpt>
<trkpt lat="29.963804" lon="96.662765">
<time>2016-10-07T21:17:46Z</time></trkpt>
<trkpt lat="29.963335" lon="96.662565">
<time>2016-10-07T21:17:47Z</time></trkpt>
<trkpt lat="29.962765" lon="96.662336">
<time>2016-10-07T21:17:48Z</time></trkpt>
<trkpt lat="29.962275" lon="96.662146">
<time>2016-10-07T21:17:49Z</time></trkpt>
<trkpt lat="29.961386" lon="96.661777">
<time>2016-10-07T21:17:50Z</time></trkpt>
<trkpt lat="29.960856" lon="96.661568">
<time>2016-10-07T21:17:51Z</time></trkpt>
<trkpt lat="29.960547" lon="96.661448">
<time>2016-10-07T21:17:52Z</time></trkpt>
<trkpt lat="29.960417" lon="96.661408">
<time>2016-10-07T21:17:53Z</time></trkpt>
<trkpt lat="29.960277" lon="96.661388">
<time>2016-10-07T21:17:54Z</time></trkpt>
<trkpt lat="29.960167" lon="96.661368">
<time>2016-10-07T21:17:55Z</time></trkpt>
<trkpt lat="29.960007" lon="96.661368">
<time>2016-10-07T21:17:56Z</time></trkpt>
<trkpt lat="29.959797" lon="96.661388">
<time>2016-10-07T21:17:57Z</time></trkpt>
<trkpt lat="29.959387" lon="96.661418">
<time>2016-10-07T21:17:58Z</time></trkpt>
<trkpt lat="29.958697" lon="96.661468">
<time>2016-10-07T21:17:59Z</time></trkpt>
<trkpt lat="29.958497" lon="96.661478">
<time>2016-10-07T21:18:00Z</time></trkpt>
<trkpt lat="29.958257" lon="96.661498">
<time>2016-10-07T21:18:01Z</time></trkpt>
<trkpt lat="29.958017" lon="96.661498">
<time>2016-10-07T21:18:02Z</time></trkpt>
<trkpt lat="29.957667" lon="96.661478">
<time>2016-10-07T21:18:03Z</time></trkpt>
<trkpt lat="29.957507" lon="96.661468">
<time>2016-10-07T21:18:04Z</time></trkpt>
<trkpt lat="29.957277" lon="96.661448">
<time>2016-10-07T21:18:05Z</time></trkpt>
<trkpt lat="29.956367" lon="96.661318">
<time>2016-10-07T21:18:06Z</time></trkpt>
<trkpt lat="29.955817" lon="96.661268">
<time>2016-10-07T21:18:07Z</time></trkpt>
<trkpt lat="29.955627" lon="96.661248">
<time>2016-10-07T21:18:08Z</time></trkpt>
<trkpt lat="29.955187" lon="96.661168">
<time>2016-10-07T21:18:09Z</time></trkpt>
<trkpt lat="29.954917" lon="96.661119">
<time>2016-10-07T21:18:10Z</time></trkpt>
<trkpt lat="29.954107" lon="96.660999">
<time>2016-10-07T21:18:11Z</time></trkpt>
<trkpt lat="29.953618" lon="96.660919">
<time>2016-10-07T21:18:12Z</time></trkpt>
<trkpt lat="29.953188" lon="96.660859">
<time>2016-10-07T21:18:13Z</time></trkpt>
<trkpt lat="29.952288" lon="96.660729">
<time>2016-10-07T21:18:14Z</time></trkpt>
<trkpt lat="29.951978" lon="96.660679">
<time>2016-10-07T21:18:15Z</time></trkpt>
<trkpt lat="29.951608" lon="96.66063">
<time>2016-10-07T21:18:16Z</time></trkpt>
<trkpt lat="29.951318" lon="96.66059">
<time>2016-10-07T21:18:17Z</time></trkpt>
<trkpt lat="29.951028" lon="96.66054">
<time>2016-10-07T21:18:18Z</time></trkpt>
<trkpt lat="29.950738" lon="96.6605">
<time>2016-10-07T21:18:19Z</time></trkpt>
<trkpt lat="29.950458" lon="96.66046">
<time>2016-10-07T21:18:20Z</time></trkpt>
<trkpt lat="29.950079" lon="96.6604">
<time>2016-10-07T21:18:21Z</time></trkpt>
<trkpt lat="29.949459" lon="96.66031">
<time>2016-10-07T21:18:22Z</time></trkpt>
<trkpt lat="29.949279" lon="96.66029">
<time>2016-10-07T21:18:23Z</time></trkpt>
<trkpt lat="29.949219" lon="96.66029">
<time>2016-10-07T21:18:24Z</time></trkpt>
<trkpt lat="29.949159" lon="96.66029">
<time>2016-10-07T21:18:25Z</time></trkpt>
<trkpt lat="29.949069" lon="96.6603">
<time>2016-10-07T21:18:26Z</time></trkpt>
<trkpt lat="29.948939" lon="96.66034">
<time>2016-10-07T21:18:27Z</time></trkpt>
<trkpt lat="29.948849" lon="96.66037">
<time>2016-10-07T21:18:28Z</time></trkpt>
<trkpt lat="29.948478" lon="96.66051">
<time>2016-10-07T21:18:29Z</time></trkpt>
<trkpt lat="29.948288" lon="96.66059">
<time>2016-10-07T21:18:30Z</time></trkpt>
<trkpt lat="29.947978" lon="96.660699">
<time>2016-10-07T21:18:31Z</time></trkpt>
<trkpt lat="29.947548" lon="96.660869">
<time>2016-10-07T21:18:32Z</time></trkpt>
<trkpt lat="29.947067" lon="96.661059">
<time>2016-10-07T21:18:33Z</time></trkpt>
<trkpt lat="29.946407" lon="96.661318">
<time>2016-10-07T21:18:34Z</time></trkpt>
<trkpt lat="29.946137" lon="96.661418">
<time>2016-10-07T21:18:35Z</time></trkpt>
<trkpt lat="29.945846" lon="96.661528">
<time>2016-10-07T21:18:36Z</time></trkpt>
<trkpt lat="29.945546" lon="96.661638">
<time>2016-10-07T21:18:37Z</time></trkpt>
<trkpt lat="29.945266" lon="96.661747">
<time>2016-10-07T21:18:38Z</time></trkpt>
<trkpt lat="29.944966" lon="96.661867">
<time>2016-10-07T21:18:39Z</time></trkpt>
<trkpt lat="29.944706" lon="96.661967">
<time>2016-10-07T21:18:40Z</time></trkpt>
<trkpt lat="29.944506" lon="96.662047">
<time>2016-10-07T21:18:41Z</time></trkpt>
<trkpt lat="29.944375" lon="96.662097">
<time>2016-10-07T21:18:42Z</time></trkpt>
<trkpt lat="29.944095" lon="96.662206">
<time>2016-10-07T21:18:43Z</time></trkpt>
<trkpt lat="29.943865" lon="96.662286">
<time>2016-10-07T21:18:44Z</time></trkpt>
<trkpt lat="29.943575" lon="96.662416">
<time>2016-10-07T21:18:45Z</time></trkpt>
<trkpt lat="29.943375" lon="96.662516">
<time>2016-10-07T21:18:46Z</time></trkpt>
<trkpt lat="29.943054" lon="96.662705">
<time>2016-10-07T21:18:47Z</time></trkpt>
<trkpt lat="29.942704" lon="96.662915">
<time>2016-10-07T21:18:48Z</time></trkpt>
<trkpt lat="29.942404" lon="96.663085">
<time>2016-10-07T21:18:49Z</time></trkpt>
<trkpt lat="29.941853" lon="96.663404">
<time>2016-10-07T21:18:50Z</time></trkpt>
<trkpt lat="29.941543" lon="96.663584">
<time>2016-10-07T21:18:51Z</time></trkpt>
<trkpt lat="29.941012" lon="96.663903">
<time>2016-10-07T21:18:52Z</time></trkpt>
<trkpt lat="29.940702" lon="96.664082">
<time>2016-10-07T21:18:53Z</time></trkpt>
<trkpt lat="29.940361" lon="96.664282">
<time>2016-10-07T21:18:54Z</time></trkpt>
<trkpt lat="29.940021" lon="96.664482">
<time>2016-10-07T21:18:55Z</time></trkpt>
<trkpt lat="29.939821" lon="96.664601">
<time>2016-10-07T21:18:56Z</time></trkpt>
<trkpt lat="29.93951" lon="96.664781">
<time>2016-10-07T21:18:57Z</time></trkpt>
<trkpt lat="29.93933" lon="96.664881">
<time>2016-10-07T21:18:58Z</time></trkpt>
<trkpt lat="29.93919" lon="96.664941">
<time>2016-10-07T21:18:59Z</time></trkpt>
<trkpt lat="29.93906" lon="96.664991">
<time>2016-10-07T21:19:00Z</time></trkpt>
<trkpt lat="29.93893" lon="96.66502">
<time>2016-10-07T21:19:01Z</time></trkpt>
<trkpt lat="29.93877" lon="96.66505">
<time>2016-10-07T21:19:02Z</time></trkpt>
<trkpt lat="29.93849" lon="96.66508">
<time>2016-10-07T21:19:03Z</time></trkpt>
<trkpt lat="29.9382" lon="96.66512">
<time>2016-10-07T21:19:04Z</time></trkpt>
<trkpt lat="29.93797" lon="96.66515">
<time>2016-10-07T21:19:05Z</time></trkpt>
<trkpt lat="29.93777" lon="96.66517">
<time>2016-10-07T21:19:06Z</time></trkpt>
<trkpt lat="29.93755" lon="96.66521">
<time>2016-10-07T21:19:07Z</time></trkpt>
<trkpt lat="29.93734" lon="96.66525">
<time>2016-10-07T21:19:08Z</time></trkpt>
<trkpt lat="29.936839" lon="96.66535">
<time>2016-10-07T21:19:09Z</time></trkpt>
<trkpt lat="29.936399" lon="96.66544">
<time>2016-10-07T21:19:10Z</time></trkpt>
<trkpt lat="29.935809" lon="96.665559">
<time>2016-10-07T21:19:11Z</time></trkpt>
<trkpt lat="29.935429" lon="96.665629">
<time>2016-10-07T21:19:12Z</time></trkpt>
<trkpt lat="29.935219" lon="96.665649">
<time>2016-10-07T21:19:13Z</time></trkpt>
<trkpt lat="29.935069" lon="96.665659">
<time>2016-10-07T21:19:14Z</time></trkpt>
<trkpt lat="29.934859" lon="96.665639">
<time>2016-10-07T21:19:15Z</time></trkpt>
<trkpt lat="29.934499" lon="96.665589">
<time>2016-10-07T21:19:16Z</time></trkpt>
<trkpt lat="29.934119" lon="96.665549">
<time>2016-10-07T21:19:17Z</time></trkpt>
<trkpt lat="29.933789" lon="96.66548">
<time>2016-10-07T21:19:18Z</time></trkpt>
<trkpt lat="29.933599" lon="96.66544">
<time>2016-10-07T21:19:19Z</time></trkpt>
<trkpt lat="29.933439" lon="96.66541">
<time>2016-10-07T21:19:20Z</time></trkpt>
<trkpt lat="29.933319" lon="96.66541">
<time>2016-10-07T21:19:21Z</time></trkpt>
<trkpt lat="29.933189" lon="96.66542">
<time>2016-10-07T21:19:22Z</time></trkpt>
<trkpt lat="29.933089" lon="96.66544">
<time>2016-10-07T21:19:23Z</time></trkpt>
<trkpt lat="29.932969" lon="96.66547">
<time>2016-10-07T21:19:24Z</time></trkpt>
<trkpt lat="29.932779" lon="96.665559">
<time>2016-10-07T21:19:25Z</time></trkpt>
<trkpt lat="29.932288" lon="96.665809">
<time>2016-10-07T21:19:26Z</time></trkpt>
<trkpt lat="29.931758" lon="96.666098">
<time>2016-10-07T21:19:27Z</time></trkpt>
<trkpt lat="29.931217" lon="96.666388">
<time>2016-10-07T21:19:28Z</time></trkpt>
<trkpt lat="29.930827" lon="96.666597">
<time>2016-10-07T21:19:29Z</time></trkpt>
<trkpt lat="29.930276" lon="96.666897">
<time>2016-10-07T21:19:30Z</time></trkpt>
<trkpt lat="29.929956" lon="96.667066">
<time>2016-10-07T21:19:31Z</time></trkpt>
<trkpt lat="29.929616" lon="96.667246">
<time>2016-10-07T21:19:32Z</time></trkpt>
<trkpt lat="29.929245" lon="96.667445">
<time>2016-10-07T21:19:33Z</time></trkpt>
<trkpt lat="29.928795" lon="96.667685">
<time>2016-10-07T21:19:34Z</time></trkpt>
<trkpt lat="29.928495" lon="96.667845">
<time>2016-10-07T21:19:35Z</time></trkpt>
<trkpt lat="29.928344" lon="96.667934">
<time>2016-10-07T21:19:36Z</time></trkpt>
<trkpt lat="29.928244" lon="96.668044">
<time>2016-10-07T21:19:37Z</time></trkpt>
<trkpt lat="29.928144" lon="96.668164">
<time>2016-10-07T21:19:38Z</time></trkpt>
<trkpt lat="29.928054" lon="96.668324">
<time>2016-10-07T21:19:39Z</time></trkpt>
<trkpt lat="29.927963" lon="96.668513">
<time>2016-10-07T21:19:40Z</time></trkpt>
<trkpt lat="29.927843" lon="96.668773">
<time>2016-10-07T21:19:41Z</time></trkpt>
<trkpt lat="29.927632" lon="96.669212">
<time>2016-10-07T21:19:42Z</time></trkpt>
<trkpt lat="29.927441" lon="96.669611">
<time>2016-10-07T21:19:43Z</time></trkpt>
<trkpt lat="29.927341" lon="96.66981">
<time>2016-10-07T21:19:44Z</time></trkpt>
<trkpt lat="29.927291" lon="96.6699">
<time>2016-10-07T21:19:45Z</time></trkpt>
<trkpt lat="29.927251" lon="96.66995">
<time>2016-10-07T21:19:46Z</time></trkpt>
<trkpt lat="29.927211" lon="96.67001">
<time>2016-10-07T21:19:47Z</time></trkpt>
<trkpt lat="29.92715" lon="96.67009">
<time>2016-10-07T21:19:48Z</time></trkpt>
<trkpt lat="29.92708" lon="96.67017">
<time>2016-10-07T21:19:49Z</time></trkpt>
<trkpt lat="29.927" lon="96.670259">
<time>2016-10-07T21:19:50Z</time></trkpt>
<trkpt lat="29.92687" lon="96.670389">
<time>2016-10-07T21:19:51Z</time></trkpt>
<trkpt lat="29.926699" lon="96.670559">
<time>2016-10-07T21:19:52Z</time></trkpt>
<trkpt lat="29.926239" lon="96.671018">
<time>2016-10-07T21:19:53Z</time></trkpt>
<trkpt lat="29.926108" lon="96.671128">
<time>2016-10-07T21:19:54Z</time></trkpt>
<trkpt lat="29.925958" lon="96.671237">
<time>2016-10-07T21:19:55Z</time></trkpt>
<trkpt lat="29.925868" lon="96.671297">
<time>2016-10-07T21:19:56Z</time></trkpt>
<trkpt lat="29.925768" lon="96.671347">
<time>2016-10-07T21:19:57Z</time></trkpt>
<trkpt lat="29.925648" lon="96.671407">
<time>2016-10-07T21:19:58Z</time></trkpt>
<trkpt lat="29.925508" lon="96.671457">
<time>2016-10-07T21:19:59Z</time></trkpt>
<trkpt lat="29.925318" lon="96.671527">
<time>2016-10-07T21:20:00Z</time></trkpt>
<trkpt lat="29.925158" lon="96.671567">
<time>2016-10-07T21:20:01Z</time></trkpt>
<trkpt lat="29.924947" lon="96.671626">
<time>2016-10-07T21:20:02Z</time></trkpt>
<trkpt lat="29.924577" lon="96.671736">
<time>2016-10-07T21:20:03Z</time></trkpt>
<trkpt lat="29.924207" lon="96.671836">
<time>2016-10-07T21:20:04Z</time></trkpt>
<trkpt lat="29.924017" lon="96.671886">
<time>2016-10-07T21:20:05Z</time></trkpt>
<trkpt lat="29.923737" lon="96.671976">
<time>2016-10-07T21:20:06Z</time></trkpt>
<trkpt lat="29.923537" lon="96.672026">
<time>2016-10-07T21:20:07Z</time></trkpt>
<trkpt lat="29.923187" lon="96.672125">
<time>2016-10-07T21:20:08Z</time></trkpt>
<trkpt lat="29.922806" lon="96.672235">
<time>2016-10-07T21:20:09Z</time></trkpt>
<trkpt lat="29.922466" lon="96.672335">
<time>2016-10-07T21:20:10Z</time></trkpt>
<trkpt lat="29.921926" lon="96.672485">
<time>2016-10-07T21:20:11Z</time></trkpt>
<trkpt lat="29.921706" lon="96.672555">
<time>2016-10-07T21:20:12Z</time></trkpt>
<trkpt lat="29.921155" lon="96.672704">
<time>2016-10-07T21:20:13Z</time></trkpt>
<trkpt lat="29.920885" lon="96.672794">
<time>2016-10-07T21:20:14Z</time></trkpt>
<trkpt lat="29.920565" lon="96.672904">
<time>2016-10-07T21:20:15Z</time></trkpt>
<trkpt lat="29.920385" lon="96.672984">
<time>2016-10-07T21:20:16Z</time></trkpt>
<trkpt lat="29.920215" lon="96.673063">
<time>2016-10-07T21:20:17Z</time></trkpt>
<trkpt lat="29.920025" lon="96.673183">
<time>2016-10-07T21:20:18Z</time></trkpt>
<trkpt lat="29.919864" lon="96.673283">
<time>2016-10-07T21:20:19Z</time></trkpt>
<trkpt lat="29.919484" lon="96.673542">
<time>2016-10-07T21:20:20Z</time></trkpt>
<trkpt lat="29.919043" lon="96.673832">
<time>2016-10-07T21:20:21Z</time></trkpt>
<trkpt lat="29.918463" lon="96.674221">
<time>2016-10-07T21:20:22Z</time></trkpt>
<trkpt lat="29.917882" lon="96.67461">
<time>2016-10-07T21:20:23Z</time></trkpt>
<trkpt lat="29.917331" lon="96.674979">
<time>2016-10-07T21:20:24Z</time></trkpt>
<trkpt lat="29.917121" lon="96.675129">
<time>2016-10-07T21:20:25Z</time></trkpt>
<trkpt lat="29.916951" lon="96.675239">
<time>2016-10-07T21:20:26Z</time></trkpt>
<trkpt lat="29.91671" lon="96.675398">
<time>2016-10-07T21:20:27Z</time></trkpt>
<trkpt lat="29.9165" lon="96.675538">
<time>2016-10-07T21:20:28Z</time></trkpt>
<trkpt lat="29.91641" lon="96.675608">
<time>2016-10-07T21:20:29Z</time></trkpt>
<trkpt lat="29.91611" lon="96.675808">
<time>2016-10-07T21:20:30Z</time></trkpt>
<trkpt lat="29.915959" lon="96.675917">
<time>2016-10-07T21:20:31Z</time></trkpt>
<trkpt lat="29.915719" lon="96.676077">
<time>2016-10-07T21:20:32Z</time></trkpt>
<trkpt lat="29.915579" lon="96.676167">
<time>2016-10-07T21:20:33Z</time></trkpt>
<trkpt lat="29.915349" lon="96.676326">
<time>2016-10-07T21:20:34Z</time></trkpt>
<trkpt lat="29.915128" lon="96.676466">
<time>2016-10-07T21:20:35Z</time></trkpt>
<trkpt lat="29.914918" lon="96.676596">
<time>2016-10-07T21:20:36Z</time></trkpt>
<trkpt lat="29.914778" lon="96.676686">
<time>2016-10-07T21:20:37Z</time></trkpt>
<trkpt lat="29.914728" lon="96.676716">
<time>2016-10-07T21:20:38Z</time></trkpt>
<trkpt lat="29.914568" lon="96.676815">
<time>2016-10-07T21:20:39Z</time></trkpt>
<trkpt lat="29.914307" lon="96.676965">
<time>2016-10-07T21:20:40Z</time></trkpt>
<trkpt lat="29.914207" lon="96.677025">
<time>2016-10-07T21:20:41Z</time></trkpt>
<trkpt lat="29.914077" lon="96.677105">
<time>2016-10-07T21:20:42Z</time></trkpt>
<trkpt lat="29.913957" lon="96.677165">
<time>2016-10-07T21:20:43Z</time></trkpt>
<trkpt lat="29.913867" lon="96.677205">
<time>2016-10-07T21:20:44Z</time></trkpt>
<trkpt lat="29.913687" lon="96.677284">
<time>2016-10-07T21:20:45Z</time></trkpt>
<trkpt lat="29.913437" lon="96.677394">
<time>2016-10-07T21:20:46Z</time></trkpt>
<trkpt lat="29.913306" lon="96.677454">
<time>2016-10-07T21:20:47Z</time></trkpt>
<trkpt lat="29.913206" lon="96.677494">
<time>2016-10-07T21:20:48Z</time></trkpt>
<trkpt lat="29.913126" lon="96.677544">
<time>2016-10-07T21:20:49Z</time></trkpt>
<trkpt lat="29.912966" lon="96.677634">
<time>2016-10-07T21:20:50Z</time></trkpt>
<trkpt lat="29.912826" lon="96.677724">
<time>2016-10-07T21:20:51Z</time></trkpt>
<trkpt lat="29.912616" lon="96.677863">
<time>2016-10-07T21:20:52Z</time></trkpt>
<trkpt lat="29.912476" lon="96.677953">
<time>2016-10-07T21:20:53Z</time></trkpt>
<trkpt lat="29.912315" lon="96.678043">
<time>2016-10-07T21:20:54Z</time></trkpt>
<trkpt lat="29.912155" lon="96.678133">
<time>2016-10-07T21:20:55Z</time></trkpt>
<trkpt lat="29.911995" lon="96.678232">
<time>2016-10-07T21:20:56Z</time></trkpt>
<trkpt lat="29.911845" lon="96.678312">
<time>2016-10-07T21:20:57Z</time></trkpt>
<trkpt lat="29.911675" lon="96.678402">
<time>2016-10-07T21:20:58Z</time></trkpt>
<trkpt lat="29.911505" lon="96.678502">
<time>2016-10-07T21:20:59Z</time></trkpt>
<trkpt lat="29.911254" lon="96.678642">
<time>2016-10-07T21:21:00Z</time></trkpt>
<trkpt lat="29.911104" lon="96.678721">
<time>2016-10-07T21:21:01Z</time></trkpt>
<trkpt lat="29.910904" lon="96.678831">
<time>2016-10-07T21:21:02Z</time></trkpt>
<trkpt lat="29.910754" lon="96.678921">
<time>2016-10-07T21:21:03Z</time></trkpt>
<trkpt lat="29.910634" lon="96.678981">
<time>2016-10-07T21:21:04Z</time></trkpt>
<trkpt lat="29.910524" lon="96.679041">
<time>2016-10-07T21:21:05Z</time></trkpt>
<trkpt lat="29.910373" lon="96.679121">
<time>2016-10-07T21:21:06Z</time></trkpt>
<trkpt lat="29.910263" lon="96.67917">
<time>2016-10-07T21:21:07Z</time></trkpt>
<trkpt lat="29.910123" lon="96.67924">
<time>2016-10-07T21:21:08Z</time></trkpt>
<trkpt lat="29.909823" lon="96.67937">
<time>2016-10-07T21:21:09Z</time></trkpt>
<trkpt lat="29.909543" lon="96.67946">
<time>2016-10-07T21:21:10Z</time></trkpt>
<trkpt lat="29.909293" lon="96.67953">
<time>2016-10-07T21:21:11Z</time></trkpt>
<trkpt lat="29.909243" lon="96.67955">
<time>2016-10-07T21:21:12Z</time></trkpt>
<trkpt lat="29.908912" lon="96.679629">
<time>2016-10-07T21:21:13Z</time></trkpt>
<trkpt lat="29.908552" lon="96.679709">
<time>2016-10-07T21:21:14Z</time></trkpt>
<trkpt lat="29.908222" lon="96.679799">
<time>2016-10-07T21:21:15Z</time></trkpt>
<trkpt lat="29.907652" lon="96.680009">
<time>2016-10-07T21:21:16Z</time></trkpt>
<trkpt lat="29.907412" lon="96.680108">
<time>2016-10-07T21:21:17Z</time></trkpt>
<trkpt lat="29.907221" lon="96.680218">
<time>2016-10-07T21:21:18Z</time></trkpt>
<trkpt lat="29.907061" lon="96.680308">
<time>2016-10-07T21:21:19Z</time></trkpt>
<trkpt lat="29.906871" lon="96.680408">
<time>2016-10-07T21:21:20Z</time></trkpt>
<trkpt lat="29.906681" lon="96.680508">
<time>2016-10-07T21:21:21Z</time></trkpt>
<trkpt lat="29.906481" lon="96.680607">
<time>2016-10-07T21:21:22Z</time></trkpt>
<trkpt lat="29.906401" lon="96.680667">
<time>2016-10-07T21:21:23Z</time></trkpt>
<trkpt lat="29.90632" lon="96.680717">
<time>2016-10-07T21:21:24Z</time></trkpt>
<trkpt lat="29.90607" lon="96.680937">
<time>2016-10-07T21:21:25Z</time></trkpt>
<trkpt lat="29.90594" lon="96.681046">
<time>2016-10-07T21:21:26Z</time></trkpt>
<trkpt lat="29.90585" lon="96.681116">
<time>2016-10-07T21:21:27Z</time></trkpt>
<trkpt lat="29.90573" lon="96.681206">
<time>2016-10-07T21:21:28Z</time></trkpt>
<trkpt lat="29.905579" lon="96.681296">
<time>2016-10-07T21:21:29Z</time></trkpt>
<trkpt lat="29.905409" lon="96.681386">
<time>2016-10-07T21:21:30Z</time></trkpt>
<trkpt lat="29.905209" lon="96.681476">
<time>2016-10-07T21:21:31Z</time></trkpt>
<trkpt lat="29.905019" lon="96.681535">
<time>2016-10-07T21:21:32Z</time></trkpt>
<trkpt lat="29.904739" lon="96.681595">
<time>2016-10-07T21:21:33Z</time></trkpt>
<trkpt lat="29.904369" lon="96.681635">
<time>2016-10-07T21:21:34Z</time></trkpt>
<trkpt lat="29.904199" lon="96.681665">
<time>2016-10-07T21:21:35Z</time></trkpt>
<trkpt lat="29.903979" lon="96.681705">
<time>2016-10-07T21:21:36Z</time></trkpt>
<trkpt lat="29.903869" lon="96.681745">
<time>2016-10-07T21:21:37Z</time></trkpt>
<trkpt lat="29.903748" lon="96.681785">
<time>2016-10-07T21:21:38Z</time></trkpt>
<trkpt lat="29.903548" lon="96.681865">
<time>2016-10-07T21:21:39Z</time></trkpt>
<trkpt lat="29.903328" lon="96.681975">
<time>2016-10-07T21:21:40Z</time></trkpt>
<trkpt lat="29.903238" lon="96.682014">
<time>2016-10-07T21:21:41Z</time></trkpt>
<trkpt lat="29.903128" lon="96.682064">
<time>2016-10-07T21:21:42Z</time></trkpt>
<trkpt lat="29.903008" lon="96.682114">
<time>2016-10-07T21:21:43Z</time></trkpt>
<trkpt lat="29.902868" lon="96.682174">
<time>2016-10-07T21:21:44Z</time></trkpt>
<trkpt lat="29.902688" lon="96.682234">
<time>2016-10-07T21:21:45Z</time></trkpt>
<trkpt lat="29.902498" lon="96.682284">
<time>2016-10-07T21:21:46Z</time></trkpt>
<trkpt lat="29.902247" lon="96.682324">
<time>2016-10-07T21:21:47Z</time></trkpt>
<trkpt lat="29.902037" lon="96.682324">
<time>2016-10-07T21:21:48Z</time></trkpt>
<trkpt lat="29.901778" lon="96.682294">
<time>2016-10-07T21:21:49Z</time></trkpt>
<trkpt lat="29.901448" lon="96.682234">
<time>2016-10-07T21:21:50Z</time></trkpt>
<trkpt lat="29.901058" lon="96.682164">
<time>2016-10-07T21:21:51Z</time></trkpt>
<trkpt lat="29.900728" lon="96.682084">
<time>2016-10-07T21:21:52Z</time></trkpt>
<trkpt lat="29.900358" lon="96.681995">
<time>2016-10-07T21:21:53Z</time></trkpt>
<trkpt lat="29.900028" lon="96.681915">
<time>2016-10-07T21:21:54Z</time></trkpt>
<trkpt lat="29.899579" lon="96.681785">
<time>2016-10-07T21:21:55Z</time></trkpt>
<trkpt lat="29.899379" lon="96.681725">
<time>2016-10-07T21:21:56Z</time></trkpt>
<trkpt lat="29.899219" lon="96.681685">
<time>2016-10-07T21:21:57Z</time></trkpt>
<trkpt lat="29.898889" lon="96.681605">
<time>2016-10-07T21:21:58Z</time></trkpt>
<trkpt lat="29.898649" lon="96.681546">
<time>2016-10-07T21:21:59Z</time></trkpt>
<trkpt lat="29.898309" lon="96.681466">
<time>2016-10-07T21:22:00Z</time></trkpt>
<trkpt lat="29.898079" lon="96.681416">
<time>2016-10-07T21:22:01Z</time></trkpt>
<trkpt lat="29.897789" lon="96.681356">
<time>2016-10-07T21:22:02Z</time></trkpt>
<trkpt lat="29.89743" lon="96.681266">
<time>2016-10-07T21:22:03Z</time></trkpt>
<trkpt lat="29.89711" lon="96.681196">
<time>2016-10-07T21:22:04Z</time></trkpt>
<trkpt lat="29.89693" lon="96.681156">
<time>2016-10-07T21:22:05Z</time></trkpt>
<trkpt lat="29.8966" lon="96.681077">
<time>2016-10-07T21:22:06Z</time></trkpt>
<trkpt lat="29.89625" lon="96.680987">
<time>2016-10-07T21:22:07Z</time></trkpt>
<trkpt lat="29.89597" lon="96.680907">
<time>2016-10-07T21:22:08Z</time></trkpt>
<trkpt lat="29.89572" lon="96.680837">
<time>2016-10-07T21:22:09Z</time></trkpt>
<trkpt lat="29.895361" lon="96.680737">
<time>2016-10-07T21:22:10Z</time></trkpt>
<trkpt lat="29.895111" lon="96.680667">
<time>2016-10-07T21:22:11Z</time></trkpt>
<trkpt lat="29.894771" lon="96.680578">
<time>2016-10-07T21:22:12Z</time></trkpt>
<trkpt lat="29.894421" lon="96.680498">
<time>2016-10-07T21:22:13Z</time></trkpt>
<trkpt lat="29.894091" lon="96.680428">
<time>2016-10-07T21:22:14Z</time></trkpt>
<trkpt lat="29.893731" lon="96.680358">
<time>2016-10-07T21:22:15Z</time></trkpt>
<trkpt lat="29.893481" lon="96.680308">
<time>2016-10-07T21:22:16Z</time></trkpt>
<trkpt lat="29.893262" lon="96.680288">
<time>2016-10-07T21:22:17Z</time></trkpt>
<trkpt lat="29.893072" lon="96.680298">
<time>2016-10-07T21:22:18Z</time></trkpt>
<trkpt lat="29.892911" lon="96.680348">
<time>2016-10-07T21:22:19Z</time></trkpt>
<trkpt lat="29.892761" lon="96.680418">
<time>2016-10-07T21:22:20Z</time></trkpt>
<trkpt lat="29.892641" lon="96.680488">
<time>2016-10-07T21:22:21Z</time></trkpt>
<trkpt lat="29.892551" lon="96.680538">
<time>2016-10-07T21:22:22Z</time></trkpt>
<trkpt lat="29.892461" lon="96.680598">
<time>2016-10-07T21:22:23Z</time></trkpt>
<trkpt lat="29.892381" lon="96.680638">
<time>2016-10-07T21:22:24Z</time></trkpt>
<trkpt lat="29.892251" lon="96.680707">
<time>2016-10-07T21:22:25Z</time></trkpt>
<trkpt lat="29.892131" lon="96.680767">
<time>2016-10-07T21:22:26Z</time></trkpt>
<trkpt lat="29.892061" lon="96.680787">
<time>2016-10-07T21:22:27Z</time></trkpt>
<trkpt lat="29.891921" lon="96.680847">
<time>2016-10-07T21:22:28Z</time></trkpt>
<trkpt lat="29.89186" lon="96.680867">
<time>2016-10-07T21:22:29Z</time></trkpt>
<trkpt lat="29.89178" lon="96.680887">
<time>2016-10-07T21:22:30Z</time></trkpt>
<trkpt lat="29.89167" lon="96.680907">
<time>2016-10-07T21:22:31Z</time></trkpt>
<trkpt lat="29.89158" lon="96.680927">
<time>2016-10-07T21:22:32Z</time></trkpt>
<trkpt lat="29.8915" lon="96.680947">
<time>2016-10-07T21:22:33Z</time></trkpt>
<trkpt lat="29.89139" lon="96.680957">
<time>2016-10-07T21:22:34Z</time></trkpt>
<trkpt lat="29.8912" lon="96.680987">
<time>2016-10-07T21:22:35Z</time></trkpt>
<trkpt lat="29.89014" lon="96.681107">
<time>2016-10-07T21:22:36Z</time></trkpt>
<trkpt lat="29.89001" lon="96.681117">
<time>2016-10-07T21:22:37Z</time></trkpt>
<trkpt lat="29.88983" lon="96.681137">
<time>2016-10-07T21:22:38Z</time></trkpt>
<trkpt lat="29.88966" lon="96.681146">
<time>2016-10-07T21:22:39Z</time></trkpt>
<trkpt lat="29.88957" lon="96.681156">
<time>2016-10-07T21:22:40Z</time></trkpt>
<trkpt lat="29.88935" lon="96.681176">
<time>2016-10-07T21:22:41Z</time></trkpt>
<trkpt lat="29.88918" lon="96.681186">
<time>2016-10-07T21:22:42Z</time></trkpt>
<trkpt lat="29.88877" lon="96.681216">
<time>2016-10-07T21:22:43Z</time></trkpt>
<trkpt lat="29.88861" lon="96.681246">
<time>2016-10-07T21:22:44Z</time></trkpt>
<trkpt lat="29.88821" lon="96.681336">
<time>2016-10-07T21:22:45Z</time></trkpt>
<trkpt lat="29.88782" lon="96.681446">
<time>2016-10-07T21:22:46Z</time></trkpt>
<trkpt lat="29.887649" lon="96.681466">
<time>2016-10-07T21:22:47Z</time></trkpt>
<trkpt lat="29.887389" lon="96.681496">
<time>2016-10-07T21:22:48Z</time></trkpt>
<trkpt lat="29.887079" lon="96.681526">
<time>2016-10-07T21:22:49Z</time></trkpt>
<trkpt lat="29.886879" lon="96.681556">
<time>2016-10-07T21:22:50Z</time></trkpt>
<trkpt lat="29.886649" lon="96.681576">
<time>2016-10-07T21:22:51Z</time></trkpt>
<trkpt lat="29.886409" lon="96.681596">
<time>2016-10-07T21:22:52Z</time></trkpt>
<trkpt lat="29.886179" lon="96.681616">
<time>2016-10-07T21:22:53Z</time></trkpt>
<trkpt lat="29.885849" lon="96.681655">
<time>2016-10-07T21:22:54Z</time></trkpt>
<trkpt lat="29.885609" lon="96.681675">
<time>2016-10-07T21:22:55Z</time></trkpt>
<trkpt lat="29.885469" lon="96.681695">
<time>2016-10-07T21:22:56Z</time></trkpt>
<trkpt lat="29.885199" lon="96.681715">
<time>2016-10-07T21:22:57Z</time></trkpt>
<trkpt lat="29.884989" lon="96.681745">
<time>2016-10-07T21:22:58Z</time></trkpt>
<trkpt lat="29.884699" lon="96.681785">
<time>2016-10-07T21:22:59Z</time></trkpt>
<trkpt lat="29.884539" lon="96.681815">
<time>2016-10-07T21:23:00Z</time></trkpt>
<trkpt lat="29.884379" lon="96.681845">
<time>2016-10-07T21:23:01Z</time></trkpt>
<trkpt lat="29.884189" lon="96.681885">
<time>2016-10-07T21:23:02Z</time></trkpt>
<trkpt lat="29.883899" lon="96.681955">
<time>2016-10-07T21:23:03Z</time></trkpt>
<trkpt lat="29.883499" lon="96.682045">
<time>2016-10-07T21:23:04Z</time></trkpt>
<trkpt lat="29.883228" lon="96.682105">
<time>2016-10-07T21:23:05Z</time></trkpt>
<trkpt lat="29.882818" lon="96.682194">
<time>2016-10-07T21:23:06Z</time></trkpt>
<trkpt lat="29.882468" lon="96.682264">
<time>2016-10-07T21:23:07Z</time></trkpt>
<trkpt lat="29.882098" lon="96.682334">
<time>2016-10-07T21:23:08Z</time></trkpt>
<trkpt lat="29.881658" lon="96.682424">
<time>2016-10-07T21:23:09Z</time></trkpt>
<trkpt lat="29.881198" lon="96.682504">
<time>2016-10-07T21:23:10Z</time></trkpt>
<trkpt lat="29.880718" lon="96.682594">
<time>2016-10-07T21:23:11Z</time></trkpt>
<trkpt lat="29.880448" lon="96.682643">
<time>2016-10-07T21:23:12Z</time></trkpt>
<trkpt lat="29.880347" lon="96.682663">
<time>2016-10-07T21:23:13Z</time></trkpt>
<trkpt lat="29.880167" lon="96.682693">
<time>2016-10-07T21:23:14Z</time></trkpt>
<trkpt lat="29.879877" lon="96.682753">
<time>2016-10-07T21:23:15Z</time></trkpt>
<trkpt lat="29.879477" lon="96.682833">
<time>2016-10-07T21:23:16Z</time></trkpt>
<trkpt lat="29.879127" lon="96.682893">
<time>2016-10-07T21:23:17Z</time></trkpt>
<trkpt lat="29.878667" lon="96.682983">
<time>2016-10-07T21:23:18Z</time></trkpt>
<trkpt lat="29.878317" lon="96.683053">
<time>2016-10-07T21:23:19Z</time></trkpt>
<trkpt lat="29.877977" lon="96.683112">
<time>2016-10-07T21:23:20Z</time></trkpt>
<trkpt lat="29.877747" lon="96.683152">
<time>2016-10-07T21:23:21Z</time></trkpt>
<trkpt lat="29.877397" lon="96.683222">
<time>2016-10-07T21:23:22Z</time></trkpt>
<trkpt lat="29.877066" lon="96.683282">
<time>2016-10-07T21:23:23Z</time></trkpt>
<trkpt lat="29.876716" lon="96.683342">
<time>2016-10-07T21:23:24Z</time></trkpt>
<trkpt lat="29.876386" lon="96.683412">
<time>2016-10-07T21:23:25Z</time></trkpt>
<trkpt lat="29.876116" lon="96.683462">
<time>2016-10-07T21:23:26Z</time></trkpt>
<trkpt lat="29.875786" lon="96.683522">
<time>2016-10-07T21:23:27Z</time></trkpt>
<trkpt lat="29.875556" lon="96.683562">
<time>2016-10-07T21:23:28Z</time></trkpt>
<trkpt lat="29.875196" lon="96.683631">
<time>2016-10-07T21:23:29Z</time></trkpt>
<trkpt lat="29.874846" lon="96.683721">
<time>2016-10-07T21:23:30Z</time></trkpt>
<trkpt lat="29.874636" lon="96.683781">
<time>2016-10-07T21:23:31Z</time></trkpt>
<trkpt lat="29.874486" lon="96.683831">
<time>2016-10-07T21:23:32Z</time></trkpt>
<trkpt lat="29.874375" lon="96.683881">
<time>2016-10-07T21:23:33Z</time></trkpt>
<trkpt lat="29.874045" lon="96.684031">
<time>2016-10-07T21:23:34Z</time></trkpt>
<trkpt lat="29.873765" lon="96.68417">
<time>2016-10-07T21:23:35Z</time></trkpt>
<trkpt lat="29.873415" lon="96.68437">
<time>2016-10-07T21:23:36Z</time></trkpt>
<trkpt lat="29.873154" lon="96.68452">
<time>2016-10-07T21:23:37Z</time></trkpt>
<trkpt lat="29.872814" lon="96.684739">
<time>2016-10-07T21:23:38Z</time></trkpt>
<trkpt lat="29.872584" lon="96.684879">
<time>2016-10-07T21:23:39Z</time></trkpt>
<trkpt lat="29.872273" lon="96.685078">
<time>2016-10-07T21:23:40Z</time></trkpt>
<trkpt lat="29.872243" lon="96.685098">
<time>2016-10-07T21:23:41Z</time></trkpt>
<trkpt lat="29.871913" lon="96.685298">
<time>2016-10-07T21:23:42Z</time></trkpt>
<trkpt lat="29.871683" lon="96.685428">
<time>2016-10-07T21:23:43Z</time></trkpt>
<trkpt lat="29.871412" lon="96.685587">
<time>2016-10-07T21:23:44Z</time></trkpt>
<trkpt lat="29.871002" lon="96.685847">
<time>2016-10-07T21:23:45Z</time></trkpt>
<trkpt lat="29.870762" lon="96.685997">
<time>2016-10-07T21:23:46Z</time></trkpt>
<trkpt lat="29.870471" lon="96.686176">
<time>2016-10-07T21:23:47Z</time></trkpt>
<trkpt lat="29.870161" lon="96.686366">
<time>2016-10-07T21:23:48Z</time></trkpt>
<trkpt lat="29.869861" lon="96.686535">
<time>2016-10-07T21:23:49Z</time></trkpt>
<trkpt lat="29.86959" lon="96.686705">
<time>2016-10-07T21:23:50Z</time></trkpt>
<trkpt lat="29.86934" lon="96.686855">
<time>2016-10-07T21:23:51Z</time></trkpt>
<trkpt lat="29.86914" lon="96.686975">
<time>2016-10-07T21:23:52Z</time></trkpt>
<trkpt lat="29.86898" lon="96.687044">
<time>2016-10-07T21:23:53Z</time></trkpt>
<trkpt lat="29.86872" lon="96.687144">
<time>2016-10-07T21:23:54Z</time></trkpt>
<trkpt lat="29.868359" lon="96.687254">
<time>2016-10-07T21:23:55Z</time></trkpt>
<trkpt lat="29.868159" lon="96.687304">
<time>2016-10-07T21:23:56Z</time></trkpt>
<trkpt lat="29.867869" lon="96.687364">
<time>2016-10-07T21:23:57Z</time></trkpt>
<trkpt lat="29.867519" lon="96.687434">
<time>2016-10-07T21:23:58Z</time></trkpt>
<trkpt lat="29.867149" lon="96.687503">
<time>2016-10-07T21:23:59Z</time></trkpt>
<trkpt lat="29.866769" lon="96.687573">
<time>2016-10-07T21:24:00Z</time></trkpt>
<trkpt lat="29.866429" lon="96.687643">
<time>2016-10-07T21:24:01Z</time></trkpt>
<trkpt lat="29.866169" lon="96.687693">
<time>2016-10-07T21:24:02Z</time></trkpt>
<trkpt lat="29.865379" lon="96.687843">
<time>2016-10-07T21:24:03Z</time></trkpt>
<trkpt lat="29.864918" lon="96.687923">
<time>2016-10-07T21:24:04Z</time></trkpt>
<trkpt lat="29.864138" lon="96.688072">
<time>2016-10-07T21:24:05Z</time></trkpt>
<trkpt lat="29.863648" lon="96.688162">
<time>2016-10-07T21:24:06Z</time></trkpt>
<trkpt lat="29.862858" lon="96.688312">
<time>2016-10-07T21:24:07Z</time></trkpt>
<trkpt lat="29.862608" lon="96.688372">
<time>2016-10-07T21:24:08Z</time></trkpt>
<trkpt lat="29.862408" lon="96.688452">
<time>2016-10-07T21:24:09Z</time></trkpt>
<trkpt lat="29.862267" lon="96.688511">
<time>2016-10-07T21:24:10Z</time></trkpt>
<trkpt lat="29.862067" lon="96.688641">
<time>2016-10-07T21:24:11Z</time></trkpt>
<trkpt lat="29.861747" lon="96.688841">
<time>2016-10-07T21:24:12Z</time></trkpt>
<trkpt lat="29.861577" lon="96.688941">
<time>2016-10-07T21:24:13Z</time></trkpt>
<trkpt lat="29.861336" lon="96.68907">
<time>2016-10-07T21:24:14Z</time></trkpt>
<trkpt lat="29.861016" lon="96.68922">
<time>2016-10-07T21:24:15Z</time></trkpt>
<trkpt lat="29.860746" lon="96.68935">
<time>2016-10-07T21:24:16Z</time></trkpt>
<trkpt lat="29.860576" lon="96.68944">
<time>2016-10-07T21:24:17Z</time></trkpt>
<trkpt lat="29.860366" lon="96.689559">
<time>2016-10-07T21:24:18Z</time></trkpt>
<trkpt lat="29.860105" lon="96.689719">
<time>2016-10-07T21:24:19Z</time></trkpt>
<trkpt lat="29.859835" lon="96.689879">
<time>2016-10-07T21:24:20Z</time></trkpt>
<trkpt lat="29.859655" lon="96.689978">
<time>2016-10-07T21:24:21Z</time></trkpt>
<trkpt lat="29.859485" lon="96.690078">
<time>2016-10-07T21:24:22Z</time></trkpt>
<trkpt lat="29.859365" lon="96.690168">
<time>2016-10-07T21:24:23Z</time></trkpt>
<trkpt lat="29.859164" lon="96.690348">
<time>2016-10-07T21:24:24Z</time></trkpt>
<trkpt lat="29.859044" lon="96.690487">
<time>2016-10-07T21:24:25Z</time></trkpt>
<trkpt lat="29.858974" lon="96.690577">
<time>2016-10-07T21:24:26Z</time></trkpt>
<trkpt lat="29.858894" lon="96.690687">
<time>2016-10-07T21:24:27Z</time></trkpt>
<trkpt lat="29.858733" lon="96.690907">
<time>2016-10-07T21:24:28Z</time></trkpt>
<trkpt lat="29.858553" lon="96.691186">
<time>2016-10-07T21:24:29Z</time></trkpt>
<trkpt lat="29.858282" lon="96.691595">
<time>2016-10-07T21:24:30Z</time></trkpt>
<trkpt lat="29.858162" lon="96.691725">
<time>2016-10-07T21:24:31Z</time></trkpt>
<trkpt lat="29.858022" lon="96.691875">
<time>2016-10-07T21:24:32Z</time></trkpt>
<trkpt lat="29.857952" lon="96.691935">
<time>2016-10-07T21:24:33Z</time></trkpt>
<trkpt lat="29.857771" lon="96.692084">
<time>2016-10-07T21:24:34Z</time></trkpt>
<trkpt lat="29.857551" lon="96.692234">
<time>2016-10-07T21:24:35Z</time></trkpt>
<trkpt lat="29.857261" lon="96.692414">
<time>2016-10-07T21:24:36Z</time></trkpt>
<trkpt lat="29.85688" lon="96.692633">
<time>2016-10-07T21:24:37Z</time></trkpt>
<trkpt lat="29.85655" lon="96.692833">
<time>2016-10-07T21:24:38Z</time></trkpt>
<trkpt lat="29.85623" lon="96.693022">
<time>2016-10-07T21:24:39Z</time></trkpt>
<trkpt lat="29.855989" lon="96.693172">
<time>2016-10-07T21:24:40Z</time></trkpt>
<trkpt lat="29.855609" lon="96.693402">
<time>2016-10-07T21:24:41Z</time></trkpt>
<trkpt lat="29.855259" lon="96.693611">
<time>2016-10-07T21:24:42Z</time></trkpt>
<trkpt lat="29.854928" lon="96.693811">
<time>2016-10-07T21:24:43Z</time></trkpt>
<trkpt lat="29.854558" lon="96.69404">
<time>2016-10-07T21:24:44Z</time></trkpt>
<trkpt lat="29.854218" lon="96.69424">
<time>2016-10-07T21:24:45Z</time></trkpt>
<trkpt lat="29.853747" lon="96.694519">
<time>2016-10-07T21:24:46Z</time></trkpt>
<trkpt lat="29.853327" lon="96.694779">
<time>2016-10-07T21:24:47Z</time></trkpt>
<trkpt lat="29.852856" lon="96.695068">
<time>2016-10-07T21:24:48Z</time></trkpt>
<trkpt lat="29.852526" lon="96.695278">
<time>2016-10-07T21:24:49Z</time></trkpt>
<trkpt lat="29.852236" lon="96.695458">
<time>2016-10-07T21:24:50Z</time></trkpt>
<trkpt lat="29.851945" lon="96.695657">
<time>2016-10-07T21:24:51Z</time></trkpt>
<trkpt lat="29.851815" lon="96.695757">
<time>2016-10-07T21:24:52Z</time></trkpt>
<trkpt lat="29.851615" lon="96.695917">
<time>2016-10-07T21:24:53Z</time></trkpt>
<trkpt lat="29.851435" lon="96.696116">
<time>2016-10-07T21:24:54Z</time></trkpt>
<trkpt lat="29.851264" lon="96.696356">
<time>2016-10-07T21:24:55Z</time></trkpt>
<trkpt lat="29.850954" lon="96.696745">
<time>2016-10-07T21:24:56Z</time></trkpt>
<trkpt lat="29.850573" lon="96.697254">
<time>2016-10-07T21:24:57Z</time></trkpt>
<trkpt lat="29.850423" lon="96.697414">
<time>2016-10-07T21:24:58Z</time></trkpt>
<trkpt lat="29.850262" lon="96.697564">
<time>2016-10-07T21:24:59Z</time></trkpt>
<trkpt lat="29.850112" lon="96.697673">
<time>2016-10-07T21:25:00Z</time></trkpt>
<trkpt lat="29.849952" lon="96.697763">
<time>2016-10-07T21:25:01Z</time></trkpt>
<trkpt lat="29.849842" lon="96.697823">
<time>2016-10-07T21:25:02Z</time></trkpt>
<trkpt lat="29.849572" lon="96.697943">
<time>2016-10-07T21:25:03Z</time></trkpt>
<trkpt lat="29.849292" lon="96.698063">
<time>2016-10-07T21:25:04Z</time></trkpt>
<trkpt lat="29.848941" lon="96.698202">
<time>2016-10-07T21:25:05Z</time></trkpt>
<trkpt lat="29.848681" lon="96.698312">
<time>2016-10-07T21:25:06Z</time></trkpt>
<trkpt lat="29.848431" lon="96.698402">
<time>2016-10-07T21:25:07Z</time></trkpt>
<trkpt lat="29.848261" lon="96.698432">
<time>2016-10-07T21:25:08Z</time></trkpt>
<trkpt lat="29.848181" lon="96.698432">
<time>2016-10-07T21:25:09Z</time></trkpt>
<trkpt lat="29.847921" lon="96.698432">
<time>2016-10-07T21:25:10Z</time></trkpt>
<trkpt lat="29.847581" lon="96.698392">
<time>2016-10-07T21:25:11Z</time></trkpt>
<trkpt lat="29.847231" lon="96.698372">
<time>2016-10-07T21:25:12Z</time></trkpt>
<trkpt lat="29.846961" lon="96.698352">
<time>2016-10-07T21:25:13Z</time></trkpt>
<trkpt lat="29.846621" lon="96.698332">
<time>2016-10-07T21:25:14Z</time></trkpt>
<trkpt lat="29.846281" lon="96.698302">
<time>2016-10-07T21:25:15Z</time></trkpt>
<trkpt lat="29.845931" lon="96.698282">
<time>2016-10-07T21:25:16Z</time></trkpt>
<trkpt lat="29.845581" lon="96.698252">
<time>2016-10-07T21:25:17Z</time></trkpt>
<trkpt lat="29.845131" lon="96.698222">
<time>2016-10-07T21:25:18Z</time></trkpt>
<trkpt lat="29.844792" lon="96.698193">
<time>2016-10-07T21:25:19Z</time></trkpt>
<trkpt lat="29.844332" lon="96.698163">
<time>2016-10-07T21:25:20Z</time></trkpt>
<trkpt lat="29.843862" lon="96.698133">
<time>2016-10-07T21:25:21Z</time></trkpt>
<trkpt lat="29.843402" lon="96.698103">
<time>2016-10-07T21:25:22Z</time></trkpt>
<trkpt lat="29.843052" lon="96.698073">
<time>2016-10-07T21:25:23Z</time></trkpt>
<trkpt lat="29.842702" lon="96.698053">
<time>2016-10-07T21:25:24Z</time></trkpt>
<trkpt lat="29.842352" lon="96.698023">
<time>2016-10-07T21:25:25Z</time></trkpt>
<trkpt lat="29.841322" lon="96.697973">
<time>2016-10-07T21:25:26Z</time></trkpt>
<trkpt lat="29.840982" lon="96.697933">
<time>2016-10-07T21:25:27Z</time></trkpt>
<trkpt lat="29.840702" lon="96.697923">
<time>2016-10-07T21:25:28Z</time></trkpt>
<trkpt lat="29.840502" lon="96.697933">
<time>2016-10-07T21:25:29Z</time></trkpt>
<trkpt lat="29.840262" lon="96.697953">
<time>2016-10-07T21:25:30Z</time></trkpt>
<trkpt lat="29.840072" lon="96.697983">
<time>2016-10-07T21:25:31Z</time></trkpt>
<trkpt lat="29.839792" lon="96.698033">
<time>2016-10-07T21:25:32Z</time></trkpt>
<trkpt lat="29.839432" lon="96.698123">
<time>2016-10-07T21:25:33Z</time></trkpt>
<trkpt lat="29.839102" lon="96.698213">
<time>2016-10-07T21:25:34Z</time></trkpt>
<trkpt lat="29.838972" lon="96.698253">
<time>2016-10-07T21:25:35Z</time></trkpt>
<trkpt lat="29.838692" lon="96.698322">
<time>2016-10-07T21:25:36Z</time></trkpt>
<trkpt lat="29.838342" lon="96.698392">
<time>2016-10-07T21:25:37Z</time></trkpt>
<trkpt lat="29.838102" lon="96.698422">
<time>2016-10-07T21:25:38Z</time></trkpt>
<trkpt lat="29.837992" lon="96.698432">
<time>2016-10-07T21:25:39Z</time></trkpt>
<trkpt lat="29.837792" lon="96.698432">
<time>2016-10-07T21:25:40Z</time></trkpt>
<trkpt lat="29.837452" lon="96.698412">
<time>2016-10-07T21:25:41Z</time></trkpt>
<trkpt lat="29.837202" lon="96.698402">
<time>2016-10-07T21:25:42Z</time></trkpt>
<trkpt lat="29.836852" lon="96.698382">
<time>2016-10-07T21:25:43Z</time></trkpt>
<trkpt lat="29.836502" lon="96.698362">
<time>2016-10-07T21:25:44Z</time></trkpt>
<trkpt lat="29.836152" lon="96.698332">
<time>2016-10-07T21:25:45Z</time></trkpt>
<trkpt lat="29.835792" lon="96.698302">
<time>2016-10-07T21:25:46Z</time></trkpt>
<trkpt lat="29.835452" lon="96.698263">
<time>2016-10-07T21:25:47Z</time></trkpt>
<trkpt lat="29.835112" lon="96.698213">
<time>2016-10-07T21:25:48Z</time></trkpt>
<trkpt lat="29.834802" lon="96.698173">
<time>2016-10-07T21:25:49Z</time></trkpt>
<trkpt lat="29.834452" lon="96.698163">
<time>2016-10-07T21:25:50Z</time></trkpt>
<trkpt lat="29.834102" lon="96.698143">
<time>2016-10-07T21:25:51Z</time></trkpt>
<trkpt lat="29.833762" lon="96.698113">
<time>2016-10-07T21:25:52Z</time></trkpt>
<trkpt lat="29.833402" lon="96.698113">
<time>2016-10-07T21:25:53Z</time></trkpt>
<trkpt lat="29.833382" lon="96.698113">
<time>2016-10-07T21:25:54Z</time></trkpt>
<trkpt lat="29.833102" lon="96.698113">
<time>2016-10-07T21:25:55Z</time></trkpt>
<trkpt lat="29.832842" lon="96.698103">
<time>2016-10-07T21:25:56Z</time></trkpt>
<trkpt lat="29.832043" lon="96.698053">
<time>2016-10-07T21:25:57Z</time></trkpt>
<trkpt lat="29.831673" lon="96.698033">
<time>2016-10-07T21:25:58Z</time></trkpt>
<trkpt lat="29.830913" lon="96.697973">
<time>2016-10-07T21:25:59Z</time></trkpt>
<trkpt lat="29.830323" lon="96.697943">
<time>2016-10-07T21:26:00Z</time></trkpt>
<trkpt lat="29.829913" lon="96.697913">
<time>2016-10-07T21:26:01Z</time></trkpt>
<trkpt lat="29.829453" lon="96.697883">
<time>2016-10-07T21:26:02Z</time></trkpt>
<trkpt lat="29.828953" lon="96.697853">
<time>2016-10-07T21:26:03Z</time></trkpt>
<trkpt lat="29.828553" lon="96.697823">
<time>2016-10-07T21:26:04Z</time></trkpt>
<trkpt lat="29.827583" lon="96.697764">
<time>2016-10-07T21:26:05Z</time></trkpt>
<trkpt lat="29.827033" lon="96.697724">
<time>2016-10-07T21:26:06Z</time></trkpt>
<trkpt lat="29.826684" lon="96.697684">
<time>2016-10-07T21:26:07Z</time></trkpt>
<trkpt lat="29.826454" lon="96.697644">
<time>2016-10-07T21:26:08Z</time></trkpt>
<trkpt lat="29.825994" lon="96.697544">
<time>2016-10-07T21:26:09Z</time></trkpt>
<trkpt lat="29.825334" lon="96.697354">
<time>2016-10-07T21:26:10Z</time></trkpt>
<trkpt lat="29.824874" lon="96.697225">
<time>2016-10-07T21:26:11Z</time></trkpt>
<trkpt lat="29.824605" lon="96.697145">
<time>2016-10-07T21:26:12Z</time></trkpt>
<trkpt lat="29.824215" lon="96.697035">
<time>2016-10-07T21:26:13Z</time></trkpt>
<trkpt lat="29.823765" lon="96.696915">
<time>2016-10-07T21:26:14Z</time></trkpt>
<trkpt lat="29.823445" lon="96.696815">
<time>2016-10-07T21:26:15Z</time></trkpt>
<trkpt lat="29.822985" lon="96.696686">
<time>2016-10-07T21:26:16Z</time></trkpt>
<trkpt lat="29.822626" lon="96.696586">
<time>2016-10-07T21:26:17Z</time></trkpt>
<trkpt lat="29.822256" lon="96.696486">
<time>2016-10-07T21:26:18Z</time></trkpt>
<trkpt lat="29.822056" lon="96.696426">
<time>2016-10-07T21:26:19Z</time></trkpt>
<trkpt lat="29.821826" lon="96.696366">
<time>2016-10-07T21:26:20Z</time></trkpt>
<trkpt lat="29.821556" lon="96.696316">
<time>2016-10-07T21:26:21Z</time></trkpt>
<trkpt lat="29.821356" lon="96.696287">
<time>2016-10-07T21:26:22Z</time></trkpt>
<trkpt lat="29.821156" lon="96.696277">
<time>2016-10-07T21:26:23Z</time></trkpt>
<trkpt lat="29.821016" lon="96.696287">
<time>2016-10-07T21:26:24Z</time></trkpt>
<trkpt lat="29.820926" lon="96.696306">
<time>2016-10-07T21:26:25Z</time></trkpt>
<trkpt lat="29.820826" lon="96.696326">
<time>2016-10-07T21:26:26Z</time></trkpt>
<trkpt lat="29.820726" lon="96.696346">
<time>2016-10-07T21:26:27Z</time></trkpt>
<trkpt lat="29.820616" lon="96.696386">
<time>2016-10-07T21:26:28Z</time></trkpt>
<trkpt lat="29.820436" lon="96.696466">
<time>2016-10-07T21:26:29Z</time></trkpt>
<trkpt lat="29.820336" lon="96.696516">
<time>2016-10-07T21:26:30Z</time></trkpt>
<trkpt lat="29.820226" lon="96.696596">
<time>2016-10-07T21:26:31Z</time></trkpt>
<trkpt lat="29.820126" lon="96.696676">
<time>2016-10-07T21:26:32Z</time></trkpt>
<trkpt lat="29.820036" lon="96.696756">
<time>2016-10-07T21:26:33Z</time></trkpt>
<trkpt lat="29.819895" lon="96.696885">
<time>2016-10-07T21:26:34Z</time></trkpt>
<trkpt lat="29.819735" lon="96.697065">
<time>2016-10-07T21:26:35Z</time></trkpt>
<trkpt lat="29.819525" lon="96.697295">
<time>2016-10-07T21:26:36Z</time></trkpt>
<trkpt lat="29.819324" lon="96.697524">
<time>2016-10-07T21:26:37Z</time></trkpt>
<trkpt lat="29.819204" lon="96.697664">
<time>2016-10-07T21:26:38Z</time></trkpt>
<trkpt lat="29.819114" lon="96.697804">
<time>2016-10-07T21:26:39Z</time></trkpt>
<trkpt lat="29.819014" lon="96.697963">
<time>2016-10-07T21:26:40Z</time></trkpt>
<trkpt lat="29.818923" lon="96.698113">
<time>2016-10-07T21:26:41Z</time></trkpt>
<trkpt lat="29.818803" lon="96.698323">
<time>2016-10-07T21:26:42Z</time></trkpt>
<trkpt lat="29.818703" lon="96.698502">
<time>2016-10-07T21:26:43Z</time></trkpt>
<trkpt lat="29.818623" lon="96.698612">
<time>2016-10-07T21:26:44Z</time></trkpt>
<trkpt lat="29.818542" lon="96.698722">
<time>2016-10-07T21:26:45Z</time></trkpt>
<trkpt lat="29.818282" lon="96.699041">
<time>2016-10-07T21:26:46Z</time></trkpt>
<trkpt lat="29.817871" lon="96.69954">
<time>2016-10-07T21:26:47Z</time></trkpt>
<trkpt lat="29.817571" lon="96.6999">
<time>2016-10-07T21:26:48Z</time></trkpt>
<trkpt lat="29.81747" lon="96.70001">
<time>2016-10-07T21:26:49Z</time></trkpt>
<trkpt lat="29.81734" lon="96.700169">
<time>2016-10-07T21:26:50Z</time></trkpt>
<trkpt lat="29.8172" lon="96.700349">
<time>2016-10-07T21:26:51Z</time></trkpt>
<trkpt lat="29.81707" lon="96.700509">
<time>2016-10-07T21:26:52Z</time></trkpt>
<trkpt lat="29.816749" lon="96.700898">
<time>2016-10-07T21:26:53Z</time></trkpt>
<trkpt lat="29.816559" lon="96.701137">
<time>2016-10-07T21:26:54Z</time></trkpt>
<trkpt lat="29.816308" lon="96.701437">
<time>2016-10-07T21:26:55Z</time></trkpt>
<trkpt lat="29.816128" lon="96.701667">
<time>2016-10-07T21:26:56Z</time></trkpt>
<trkpt lat="29.815837" lon="96.702016">
<time>2016-10-07T21:26:57Z</time></trkpt>
<trkpt lat="29.815697" lon="96.702186">
<time>2016-10-07T21:26:58Z</time></trkpt>
<trkpt lat="29.815437" lon="96.702505">
<time>2016-10-07T21:26:59Z</time></trkpt>
<trkpt lat="29.815296" lon="96.702675">
<time>2016-10-07T21:27:00Z</time></trkpt>
<trkpt lat="29.815066" lon="96.702964">
<time>2016-10-07T21:27:01Z</time></trkpt>
<trkpt lat="29.814876" lon="96.703214">
<time>2016-10-07T21:27:02Z</time></trkpt>
<trkpt lat="29.814705" lon="96.703413">
<time>2016-10-07T21:27:03Z</time></trkpt>
<trkpt lat="29.814525" lon="96.703623">
<time>2016-10-07T21:27:04Z</time></trkpt>
<trkpt lat="29.814395" lon="96.703763">
<time>2016-10-07T21:27:05Z</time></trkpt>
<trkpt lat="29.814295" lon="96.703853">
<time>2016-10-07T21:27:06Z</time></trkpt>
<trkpt lat="29.814175" lon="96.703923">
<time>2016-10-07T21:27:07Z</time></trkpt>
<trkpt lat="29.814075" lon="96.703952">
<time>2016-10-07T21:27:08Z</time></trkpt>
<trkpt lat="29.813964" lon="96.703982">
<time>2016-10-07T21:27:09Z</time></trkpt>
<trkpt lat="29.813724" lon="96.704032">
<time>2016-10-07T21:27:10Z</time></trkpt>
<trkpt lat="29.813524" lon="96.704062">
<time>2016-10-07T21:27:11Z</time></trkpt>
<trkpt lat="29.813384" lon="96.704102">
<time>2016-10-07T21:27:12Z</time></trkpt>
<trkpt lat="29.813334" lon="96.704112">
<time>2016-10-07T21:27:13Z</time></trkpt>
<trkpt lat="29.813204" lon="96.704162">
<time>2016-10-07T21:27:14Z</time></trkpt>
<trkpt lat="29.813124" lon="96.704202">
<time>2016-10-07T21:27:15Z</time></trkpt>
<trkpt lat="29.813044" lon="96.704252">
<time>2016-10-07T21:27:16Z</time></trkpt>
<trkpt lat="29.812844" lon="96.704402">
<time>2016-10-07T21:27:17Z</time></trkpt>
<trkpt lat="29.812614" lon="96.704571">
<time>2016-10-07T21:27:18Z</time></trkpt>
<trkpt lat="29.812434" lon="96.704691">
<time>2016-10-07T21:27:19Z</time></trkpt>
<trkpt lat="29.812233" lon="96.704821">
<time>2016-10-07T21:27:20Z</time></trkpt>
<trkpt lat="29.811953" lon="96.704991">
<time>2016-10-07T21:27:21Z</time></trkpt>
<trkpt lat="29.811803" lon="96.705081">
<time>2016-10-07T21:27:22Z</time></trkpt>
<trkpt lat="29.811623" lon="96.70519">
<time>2016-10-07T21:27:23Z</time></trkpt>
<trkpt lat="29.811503" lon="96.70528">
<time>2016-10-07T21:27:24Z</time></trkpt>
<trkpt lat="29.811313" lon="96.70543">
<time>2016-10-07T21:27:25Z</time></trkpt>
<trkpt lat="29.811222" lon="96.70551">
<time>2016-10-07T21:27:26Z</time></trkpt>
<trkpt lat="29.811152" lon="96.7056">
<time>2016-10-07T21:27:27Z</time></trkpt>
<trkpt lat="29.811062" lon="96.705709">
<time>2016-10-07T21:27:28Z</time></trkpt>
<trkpt lat="29.810952" lon="96.705859">
<time>2016-10-07T21:27:29Z</time></trkpt>
<trkpt lat="29.810741" lon="96.706159">
<time>2016-10-07T21:27:30Z</time></trkpt>
<trkpt lat="29.810641" lon="96.706318">
<time>2016-10-07T21:27:31Z</time></trkpt>
<trkpt lat="29.810421" lon="96.706668">
<time>2016-10-07T21:27:32Z</time></trkpt>
<trkpt lat="29.81029" lon="96.706868">
<time>2016-10-07T21:27:33Z</time></trkpt>
<trkpt lat="29.81014" lon="96.707077">
<time>2016-10-07T21:27:34Z</time></trkpt>
<trkpt lat="29.81004" lon="96.707207">
<time>2016-10-07T21:27:35Z</time></trkpt>
<trkpt lat="29.80983" lon="96.707487">
<time>2016-10-07T21:27:36Z</time></trkpt>
<trkpt lat="29.809719" lon="96.707626">
<time>2016-10-07T21:27:37Z</time></trkpt>
<trkpt lat="29.809659" lon="96.707696">
<time>2016-10-07T21:27:38Z</time></trkpt>
<trkpt lat="29.809589" lon="96.707766">
<time>2016-10-07T21:27:39Z</time></trkpt>
<trkpt lat="29.809439" lon="96.707896">
<time>2016-10-07T21:27:40Z</time></trkpt>
<trkpt lat="29.809219" lon="96.708036">
<time>2016-10-07T21:27:41Z</time></trkpt>
<trkpt lat="29.809019" lon="96.708165">
<time>2016-10-07T21:27:42Z</time></trkpt>
<trkpt lat="29.808879" lon="96.708255">
<time>2016-10-07T21:27:43Z</time></trkpt>
<trkpt lat="29.808738" lon="96.708375">
<time>2016-10-07T21:27:44Z</time></trkpt>
<trkpt lat="29.808588" lon="96.708535">
<time>2016-10-07T21:27:45Z</time></trkpt>
<trkpt lat="29.808398" lon="96.708744">
<time>2016-10-07T21:27:46Z</time></trkpt>
<trkpt lat="29.808268" lon="96.708894">
<time>2016-10-07T21:27:47Z</time></trkpt>
<trkpt lat="29.808188" lon="96.708964">
<time>2016-10-07T21:27:48Z</time></trkpt>
<trkpt lat="29.808128" lon="96.709004">
<time>2016-10-07T21:27:49Z</time></trkpt>
<trkpt lat="29.808068" lon="96.709024">
<time>2016-10-07T21:27:50Z</time></trkpt>
<trkpt lat="29.808008" lon="96.709044">
<time>2016-10-07T21:27:51Z</time></trkpt>
<trkpt lat="29.807958" lon="96.709044">
<time>2016-10-07T21:27:52Z</time></trkpt>
<trkpt lat="29.807908" lon="96.709044">
<time>2016-10-07T21:27:53Z</time></trkpt>
<trkpt lat="29.807858" lon="96.709034">
<time>2016-10-07T21:27:54Z</time></trkpt>
<trkpt lat="29.807788" lon="96.709024">
<time>2016-10-07T21:27:55Z</time></trkpt>
<trkpt lat="29.807648" lon="96.708964">
<time>2016-10-07T21:27:56Z</time></trkpt>
<trkpt lat="29.807448" lon="96.708884">
<time>2016-10-07T21:27:57Z</time></trkpt>
<trkpt lat="29.807228" lon="96.708794">
<time>2016-10-07T21:27:58Z</time></trkpt>
<trkpt lat="29.807128" lon="96.708764">
<time>2016-10-07T21:27:59Z</time></trkpt>
<trkpt lat="29.807058" lon="96.708745">
<time>2016-10-07T21:28:00Z</time></trkpt>
<trkpt lat="29.806988" lon="96.708725">
<time>2016-10-07T21:28:01Z</time></trkpt>
<trkpt lat="29.806938" lon="96.708715">
<time>2016-10-07T21:28:02Z</time></trkpt>
<trkpt lat="29.806878" lon="96.708715">
<time>2016-10-07T21:28:03Z</time></trkpt>
<trkpt lat="29.806818" lon="96.708715">
<time>2016-10-07T21:28:04Z</time></trkpt>
<trkpt lat="29.806718" lon="96.708715">
<time>2016-10-07T21:28:05Z</time></trkpt>
<trkpt lat="29.806618" lon="96.708725">
<time>2016-10-07T21:28:06Z</time></trkpt>
<trkpt lat="29.806378" lon="96.708774">
<time>2016-10-07T21:28:07Z</time></trkpt>
<trkpt lat="29.805908" lon="96.708874">
<time>2016-10-07T21:28:08Z</time></trkpt>
<trkpt lat="29.805668" lon="96.708934">
<time>2016-10-07T21:28:09Z</time></trkpt>
<trkpt lat="29.805508" lon="96.708974">
<time>2016-10-07T21:28:10Z</time></trkpt>
<trkpt lat="29.805398" lon="96.709014">
<time>2016-10-07T21:28:11Z</time></trkpt>
<trkpt lat="29.805288" lon="96.709064">
<time>2016-10-07T21:28:12Z</time></trkpt>
<trkpt lat="29.805248" lon="96.709084">
<time>2016-10-07T21:28:13Z</time></trkpt>
<trkpt lat="29.805138" lon="96.709154">
<time>2016-10-07T21:28:14Z</time></trkpt>
<trkpt lat="29.805088" lon="96.709194">
<time>2016-10-07T21:28:15Z</time></trkpt>
<trkpt lat="29.804827" lon="96.709403">
<time>2016-10-07T21:28:16Z</time></trkpt>
<trkpt lat="29.804647" lon="96.709573">
<time>2016-10-07T21:28:17Z</time></trkpt>
<trkpt lat="29.804427" lon="96.709753">
<time>2016-10-07T21:28:18Z</time></trkpt>
<trkpt lat="29.804087" lon="96.710052">
<time>2016-10-07T21:28:19Z</time></trkpt>
<trkpt lat="29.804026" lon="96.710092">
<time>2016-10-07T21:28:20Z</time></trkpt>
<trkpt lat="29.803836" lon="96.710262">
<time>2016-10-07T21:28:21Z</time></trkpt>
<trkpt lat="29.803646" lon="96.710422">
<time>2016-10-07T21:28:22Z</time></trkpt>
<trkpt lat="29.803486" lon="96.710562">
<time>2016-10-07T21:28:23Z</time></trkpt>
<trkpt lat="29.803396" lon="96.710622">
<time>2016-10-07T21:28:24Z</time></trkpt>
<trkpt lat="29.803316" lon="96.710671">
<time>2016-10-07T21:28:25Z</time></trkpt>
<trkpt lat="29.803226" lon="96.710701">
<time>2016-10-07T21:28:26Z</time></trkpt>
<trkpt lat="29.803146" lon="96.710721">
<time>2016-10-07T21:28:27Z</time></trkpt>
<trkpt lat="29.803076" lon="96.710731">
<time>2016-10-07T21:28:28Z</time></trkpt>
<trkpt lat="29.803006" lon="96.710741">
<time>2016-10-07T21:28:29Z</time></trkpt>
<trkpt lat="29.802916" lon="96.710731">
<time>2016-10-07T21:28:30Z</time></trkpt>
<trkpt lat="29.802696" lon="96.710731">
<time>2016-10-07T21:28:31Z</time></trkpt>
<trkpt lat="29.802456" lon="96.710711">
<time>2016-10-07T21:28:32Z</time></trkpt>
<trkpt lat="29.802136" lon="96.710701">
<time>2016-10-07T21:28:33Z</time></trkpt>
<trkpt lat="29.801946" lon="96.710691">
<time>2016-10-07T21:28:34Z</time></trkpt>
<trkpt lat="29.801876" lon="96.710681">
<time>2016-10-07T21:28:35Z</time></trkpt>
<trkpt lat="29.801786" lon="96.710672">
<time>2016-10-07T21:28:36Z</time></trkpt>
<trkpt lat="29.801666" lon="96.710652">
<time>2016-10-07T21:28:37Z</time></trkpt>
<trkpt lat="29.801496" lon="96.710602">
<time>2016-10-07T21:28:38Z</time></trkpt>
<trkpt lat="29.801366" lon="96.710572">
<time>2016-10-07T21:28:39Z</time></trkpt>
<trkpt lat="29.801296" lon="96.710552">
<time>2016-10-07T21:28:40Z</time></trkpt>
<trkpt lat="29.801176" lon="96.710542">
<time>2016-10-07T21:28:41Z</time></trkpt>
<trkpt lat="29.801006" lon="96.710522">
<time>2016-10-07T21:28:42Z</time></trkpt>
<trkpt lat="29.800876" lon="96.710522">
<time>2016-10-07T21:28:43Z</time></trkpt>
<trkpt lat="29.800656" lon="96.710542">
<time>2016-10-07T21:28:44Z</time></trkpt>
<trkpt lat="29.800546" lon="96.710552">
<time>2016-10-07T21:28:45Z</time></trkpt>
<trkpt lat="29.800406" lon="96.710562">
<time>2016-10-07T21:28:46Z</time></trkpt>
<trkpt lat="29.800276" lon="96.710572">
<time>2016-10-07T21:28:47Z</time></trkpt>
<trkpt lat="29.800146" lon="96.710562">
<time>2016-10-07T21:28:48Z</time></trkpt>
<trkpt lat="29.799986" lon="96.710552">
<time>2016-10-07T21:28:49Z</time></trkpt>
<trkpt lat="29.799816" lon="96.710542">
<time>2016-10-07T21:28:50Z</time></trkpt>
<trkpt lat="29.799706" lon="96.710522">
<time>2016-10-07T21:28:51Z</time></trkpt>
<trkpt lat="29.799586" lon="96.710502">
<time>2016-10-07T21:28:52Z</time></trkpt>
<trkpt lat="29.799426" lon="96.710452">
<time>2016-10-07T21:28:53Z</time></trkpt>
<trkpt lat="29.799216" lon="96.710392">
<time>2016-10-07T21:28:54Z</time></trkpt>
<trkpt lat="29.799017" lon="96.710332">
<time>2016-10-07T21:28:55Z</time></trkpt>
<trkpt lat="29.798817" lon="96.710252">
<time>2016-10-07T21:28:56Z</time></trkpt>
<trkpt lat="29.798617" lon="96.710162">
<time>2016-10-07T21:28:57Z</time></trkpt>
<trkpt lat="29.798277" lon="96.710003">
<time>2016-10-07T21:28:58Z</time></trkpt>
<trkpt lat="29.797927" lon="96.709833">
<time>2016-10-07T21:28:59Z</time></trkpt>
<trkpt lat="29.797618" lon="96.709693">
<time>2016-10-07T21:29:00Z</time></trkpt>
<trkpt lat="29.797188" lon="96.709503">
<time>2016-10-07T21:29:01Z</time></trkpt>
<trkpt lat="29.796948" lon="96.709404">
<time>2016-10-07T21:29:02Z</time></trkpt>
<trkpt lat="29.796838" lon="96.709364">
<time>2016-10-07T21:29:03Z</time></trkpt>
<trkpt lat="29.796668" lon="96.709324">
<time>2016-10-07T21:29:04Z</time></trkpt>
<trkpt lat="29.796438" lon="96.709274">
<time>2016-10-07T21:29:05Z</time></trkpt>
<trkpt lat="29.796338" lon="96.709254">
<time>2016-10-07T21:29:06Z</time></trkpt>
<trkpt lat="29.796238" lon="96.709244">
<time>2016-10-07T21:29:07Z</time></trkpt>
<trkpt lat="29.796048" lon="96.709234">
<time>2016-10-07T21:29:08Z</time></trkpt>
<trkpt lat="29.795748" lon="96.709224">
<time>2016-10-07T21:29:09Z</time></trkpt>
<trkpt lat="29.795348" lon="96.709214">
<time>2016-10-07T21:29:10Z</time></trkpt>
<trkpt lat="29.794969" lon="96.709194">
<time>2016-10-07T21:29:11Z</time></trkpt>
<trkpt lat="29.794689" lon="96.709184">
<time>2016-10-07T21:29:12Z</time></trkpt>
<trkpt lat="29.794519" lon="96.709174">
<time>2016-10-07T21:29:13Z</time></trkpt>
<trkpt lat="29.794359" lon="96.709154">
<time>2016-10-07T21:29:14Z</time></trkpt>
<trkpt lat="29.794129" lon="96.709114">
<time>2016-10-07T21:29:15Z</time></trkpt>
<trkpt lat="29.793959" lon="96.709054">
<time>2016-10-07T21:29:16Z</time></trkpt>
<trkpt lat="29.793609" lon="96.708944">
<time>2016-10-07T21:29:17Z</time></trkpt>
<trkpt lat="29.793209" lon="96.708835">
<time>2016-10-07T21:29:18Z</time></trkpt>
<trkpt lat="29.792829" lon="96.708715">
<time>2016-10-07T21:29:19Z</time></trkpt>
<trkpt lat="29.79227" lon="96.708535">
<time>2016-10-07T21:29:20Z</time></trkpt>
<trkpt lat="29.7919" lon="96.708415">
<time>2016-10-07T21:29:21Z</time></trkpt>
<trkpt lat="29.79135" lon="96.708246">
<time>2016-10-07T21:29:22Z</time></trkpt>
<trkpt lat="29.790751" lon="96.708056">
<time>2016-10-07T21:29:23Z</time></trkpt>
<trkpt lat="29.790371" lon="96.707936">
<time>2016-10-07T21:29:24Z</time></trkpt>
<trkpt lat="29.789801" lon="96.707756">
<time>2016-10-07T21:29:25Z</time></trkpt>
<trkpt lat="29.789311" lon="96.707607">
<time>2016-10-07T21:29:26Z</time></trkpt>
<trkpt lat="29.788892" lon="96.707467">
<time>2016-10-07T21:29:27Z</time></trkpt>
<trkpt lat="29.788632" lon="96.707387">
<time>2016-10-07T21:29:28Z</time></trkpt>
<trkpt lat="29.788502" lon="96.707347">
<time>2016-10-07T21:29:29Z</time></trkpt>
<trkpt lat="29.788352" lon="96.707287">
<time>2016-10-07T21:29:30Z</time></trkpt>
<trkpt lat="29.788232" lon="96.707237">
<time>2016-10-07T21:29:31Z</time></trkpt>
<trkpt lat="29.788102" lon="96.707147">
<time>2016-10-07T21:29:32Z</time></trkpt>
<trkpt lat="29.787902" lon="96.706978">
<time>2016-10-07T21:29:33Z</time></trkpt>
<trkpt lat="29.787803" lon="96.706898">
<time>2016-10-07T21:29:34Z</time></trkpt>
<trkpt lat="29.787683" lon="96.706808">
<time>2016-10-07T21:29:35Z</time></trkpt>
<trkpt lat="29.787573" lon="96.706748">
<time>2016-10-07T21:29:36Z</time></trkpt>
<trkpt lat="29.787393" lon="96.706678">
<time>2016-10-07T21:29:37Z</time></trkpt>
<trkpt lat="29.787223" lon="96.706618">
<time>2016-10-07T21:29:38Z</time></trkpt>
<trkpt lat="29.787053" lon="96.706558">
<time>2016-10-07T21:29:39Z</time></trkpt>
<trkpt lat="29.786883" lon="96.706508">
<time>2016-10-07T21:29:40Z</time></trkpt>
<trkpt lat="29.786743" lon="96.706479">
<time>2016-10-07T21:29:41Z</time></trkpt>
<trkpt lat="29.786623" lon="96.706459">
<time>2016-10-07T21:29:42Z</time></trkpt>
<trkpt lat="29.786523" lon="96.706469">
<time>2016-10-07T21:29:43Z</time></trkpt>
<trkpt lat="29.786443" lon="96.706479">
<time>2016-10-07T21:29:44Z</time></trkpt>
<trkpt lat="29.786363" lon="96.706499">
<time>2016-10-07T21:29:45Z</time></trkpt>
<trkpt lat="29.786243" lon="96.706528">
<time>2016-10-07T21:29:46Z</time></trkpt>
<trkpt lat="29.785953" lon="96.706628">
<time>2016-10-07T21:29:47Z</time></trkpt>
<trkpt lat="29.785593" lon="96.706778">
<time>2016-10-07T21:29:48Z</time></trkpt>
<trkpt lat="29.785313" lon="96.706888">
<time>2016-10-07T21:29:49Z</time></trkpt>
<trkpt lat="29.785063" lon="96.706988">
<time>2016-10-07T21:29:50Z</time></trkpt>
<trkpt lat="29.784913" lon="96.707058">
<time>2016-10-07T21:29:51Z</time></trkpt>
<trkpt lat="29.784742" lon="96.707137">
<time>2016-10-07T21:29:52Z</time></trkpt>
<trkpt lat="29.784502" lon="96.707277">
<time>2016-10-07T21:29:53Z</time></trkpt>
<trkpt lat="29.784272" lon="96.707437">
<time>2016-10-07T21:29:54Z</time></trkpt>
<trkpt lat="29.784072" lon="96.707567">
<time>2016-10-07T21:29:55Z</time></trkpt>
<trkpt lat="29.783912" lon="96.707677">
<time>2016-10-07T21:29:56Z</time></trkpt>
<trkpt lat="29.783712" lon="96.707846">
<time>2016-10-07T21:29:57Z</time></trkpt>
<trkpt lat="29.783591" lon="96.707956">
<time>2016-10-07T21:29:58Z</time></trkpt>
<trkpt lat="29.783481" lon="96.708076">
<time>2016-10-07T21:29:59Z</time></trkpt>
<trkpt lat="29.783201" lon="96.708385">
<time>2016-10-07T21:30:00Z</time></trkpt>
<trkpt lat="29.78292" lon="96.708695">
<time>2016-10-07T21:30:01Z</time></trkpt>
<trkpt lat="29.78267" lon="96.708984">
<time>2016-10-07T21:30:02Z</time></trkpt>
<trkpt lat="29.78254" lon="96.709134">
<time>2016-10-07T21:30:03Z</time></trkpt>
<trkpt lat="29.782259" lon="96.709454">
<time>2016-10-07T21:30:04Z</time></trkpt>
<trkpt lat="29.781939" lon="96.709803">
<time>2016-10-07T21:30:05Z</time></trkpt>
<trkpt lat="29.781679" lon="96.710093">
<time>2016-10-07T21:30:06Z</time></trkpt>
<trkpt lat="29.781528" lon="96.710262">
<time>2016-10-07T21:30:07Z</time></trkpt>
<trkpt lat="29.781288" lon="96.710532">
<time>2016-10-07T21:30:08Z</time></trkpt>
<trkpt lat="29.781118" lon="96.710722">
<time>2016-10-07T21:30:09Z</time></trkpt>
<trkpt lat="29.781078" lon="96.710762">
<time>2016-10-07T21:30:10Z</time></trkpt>
<trkpt lat="29.781028" lon="96.710802">
<time>2016-10-07T21:30:11Z</time></trkpt>
<trkpt lat="29.780968" lon="96.710842">
<time>2016-10-07T21:30:12Z</time></trkpt>
<trkpt lat="29.780908" lon="96.710872">
<time>2016-10-07T21:30:13Z</time></trkpt>
<trkpt lat="29.780858" lon="96.710901">
<time>2016-10-07T21:30:14Z</time></trkpt>
<trkpt lat="29.780798" lon="96.710911">
<time>2016-10-07T21:30:15Z</time></trkpt>
<trkpt lat="29.780738" lon="96.710921">
<time>2016-10-07T21:30:16Z</time></trkpt>
<trkpt lat="29.780648" lon="96.710931">
<time>2016-10-07T21:30:17Z</time></trkpt>
<trkpt lat="29.780578" lon="96.710921">
<time>2016-10-07T21:30:18Z</time></trkpt>
<trkpt lat="29.780468" lon="96.710891">
<time>2016-10-07T21:30:19Z</time></trkpt>
<trkpt lat="29.780378" lon="96.710852">
<time>2016-10-07T21:30:20Z</time></trkpt>
<trkpt lat="29.780308" lon="96.710812">
<time>2016-10-07T21:30:21Z</time></trkpt>
<trkpt lat="29.780188" lon="96.710712">
<time>2016-10-07T21:30:22Z</time></trkpt>
<trkpt lat="29.780038" lon="96.710582">
<time>2016-10-07T21:30:23Z</time></trkpt>
<trkpt lat="29.779649" lon="96.710233">
<time>2016-10-07T21:30:24Z</time></trkpt>
<trkpt lat="29.779209" lon="96.709843">
<time>2016-10-07T21:30:25Z</time></trkpt>
<trkpt lat="29.7789" lon="96.709574">
<time>2016-10-07T21:30:26Z</time></trkpt>
<trkpt lat="29.77855" lon="96.709254">
<time>2016-10-07T21:30:27Z</time></trkpt>
<trkpt lat="29.7783" lon="96.709034">
<time>2016-10-07T21:30:28Z</time></trkpt>
<trkpt lat="29.778151" lon="96.708905">
<time>2016-10-07T21:30:29Z</time></trkpt>
<trkpt lat="29.777991" lon="96.708795">
<time>2016-10-07T21:30:30Z</time></trkpt>
<trkpt lat="29.777871" lon="96.708725">
<time>2016-10-07T21:30:31Z</time></trkpt>
<trkpt lat="29.777681" lon="96.708625">
<time>2016-10-07T21:30:32Z</time></trkpt>
<trkpt lat="29.777481" lon="96.708535">
<time>2016-10-07T21:30:33Z</time></trkpt>
<trkpt lat="29.777181" lon="96.708405">
<time>2016-10-07T21:30:34Z</time></trkpt>
<trkpt lat="29.776802" lon="96.708236">
<time>2016-10-07T21:30:35Z</time></trkpt>
<trkpt lat="29.776422" lon="96.708066">
<time>2016-10-07T21:30:36Z</time></trkpt>
<trkpt lat="29.775952" lon="96.707876">
<time>2016-10-07T21:30:37Z</time></trkpt>
<trkpt lat="29.775373" lon="96.707617">
<time>2016-10-07T21:30:38Z</time></trkpt>
<trkpt lat="29.774933" lon="96.707427">
<time>2016-10-07T21:30:39Z</time></trkpt>
<trkpt lat="29.774693" lon="96.707347">
<time>2016-10-07T21:30:40Z</time></trkpt>
<trkpt lat="29.774513" lon="96.707297">
<time>2016-10-07T21:30:41Z</time></trkpt>
<trkpt lat="29.774403" lon="96.707267">
<time>2016-10-07T21:30:42Z</time></trkpt>
<trkpt lat="29.774263" lon="96.707237">
<time>2016-10-07T21:30:43Z</time></trkpt>
<trkpt lat="29.774154" lon="96.707217">
<time>2016-10-07T21:30:44Z</time></trkpt>
<trkpt lat="29.774034" lon="96.707208">
<time>2016-10-07T21:30:45Z</time></trkpt>
<trkpt lat="29.773864" lon="96.707198">
<time>2016-10-07T21:30:46Z</time></trkpt>
<trkpt lat="29.773734" lon="96.707208">
<time>2016-10-07T21:30:47Z</time></trkpt>
<trkpt lat="29.773184" lon="96.707218">
<time>2016-10-07T21:30:48Z</time></trkpt>
<trkpt lat="29.772784" lon="96.707228">
<time>2016-10-07T21:30:49Z</time></trkpt>
<trkpt lat="29.772494" lon="96.707237">
<time>2016-10-07T21:30:50Z</time></trkpt>
<trkpt lat="29.772094" lon="96.707247">
<time>2016-10-07T21:30:51Z</time></trkpt>
<trkpt lat="29.771684" lon="96.707257">
<time>2016-10-07T21:30:52Z</time></trkpt>
<trkpt lat="29.771284" lon="96.707267">
<time>2016-10-07T21:30:53Z</time></trkpt>
<trkpt lat="29.770704" lon="96.707277">
<time>2016-10-07T21:30:54Z</time></trkpt>
<trkpt lat="29.770114" lon="96.707297">
<time>2016-10-07T21:30:55Z</time></trkpt>
<trkpt lat="29.769834" lon="96.707297">
<time>2016-10-07T21:30:56Z</time></trkpt>
<trkpt lat="29.769614" lon="96.707307">
<time>2016-10-07T21:30:57Z</time></trkpt>
<trkpt lat="29.769174" lon="96.707307">
<time>2016-10-07T21:30:58Z</time></trkpt>
<trkpt lat="29.768734" lon="96.707317">
<time>2016-10-07T21:30:59Z</time></trkpt>
<trkpt lat="29.768574" lon="96.707317">
<time>2016-10-07T21:31:00Z</time></trkpt>
<trkpt lat="29.768374" lon="96.707327">
<time>2016-10-07T21:31:01Z</time></trkpt>
<trkpt lat="29.768104" lon="96.707347">
<time>2016-10-07T21:31:02Z</time></trkpt>
<trkpt lat="29.767804" lon="96.707347">
<time>2016-10-07T21:31:03Z</time></trkpt>
<trkpt lat="29.767614" lon="96.707357">
<time>2016-10-07T21:31:04Z</time></trkpt>
<trkpt lat="29.767484" lon="96.707377">
<time>2016-10-07T21:31:05Z</time></trkpt>
<trkpt lat="29.767344" lon="96.707397">
<time>2016-10-07T21:31:06Z</time></trkpt>
<trkpt lat="29.767254" lon="96.707417">
<time>2016-10-07T21:31:07Z</time></trkpt>
<trkpt lat="29.767174" lon="96.707447">
<time>2016-10-07T21:31:08Z</time></trkpt>
<trkpt lat="29.766994" lon="96.707527">
<time>2016-10-07T21:31:09Z</time></trkpt>
<trkpt lat="29.766854" lon="96.707597">
<time>2016-10-07T21:31:10Z</time></trkpt>
<trkpt lat="29.766564" lon="96.707807">
<time>2016-10-07T21:31:11Z</time></trkpt>
<trkpt lat="29.766403" lon="96.707926">
<time>2016-10-07T21:31:12Z</time></trkpt>
<trkpt lat="29.766243" lon="96.708066">
<time>2016-10-07T21:31:13Z</time></trkpt>
<trkpt lat="29.766153" lon="96.708146">
<time>2016-10-07T21:31:14Z</time></trkpt>
<trkpt lat="29.766043" lon="96.708236">
<time>2016-10-07T21:31:15Z</time></trkpt>
<trkpt lat="29.765763" lon="96.708515">
<time>2016-10-07T21:31:16Z</time></trkpt>
<trkpt lat="29.765522" lon="96.708775">
<time>2016-10-07T21:31:17Z</time></trkpt>
<trkpt lat="29.765442" lon="96.708875">
<time>2016-10-07T21:31:18Z</time></trkpt>
<trkpt lat="29.765352" lon="96.708995">
<time>2016-10-07T21:31:19Z</time></trkpt>
<trkpt lat="29.765132" lon="96.709354">
<time>2016-10-07T21:31:20Z</time></trkpt>
<trkpt lat="29.764841" lon="96.709843">
<time>2016-10-07T21:31:21Z</time></trkpt>
<trkpt lat="29.764721" lon="96.710033">
<time>2016-10-07T21:31:22Z</time></trkpt>
<trkpt lat="29.76462" lon="96.710183">
<time>2016-10-07T21:31:23Z</time></trkpt>
<trkpt lat="29.76456" lon="96.710263">
<time>2016-10-07T21:31:24Z</time></trkpt>
<trkpt lat="29.76444" lon="96.710373">
<time>2016-10-07T21:31:25Z</time></trkpt>
<trkpt lat="29.76433" lon="96.710462">
<time>2016-10-07T21:31:26Z</time></trkpt>
<trkpt lat="29.76419" lon="96.710542">
<time>2016-10-07T21:31:27Z</time></trkpt>
<trkpt lat="29.76395" lon="96.710702">
<time>2016-10-07T21:31:28Z</time></trkpt>
<trkpt lat="29.76364" lon="96.710902">
<time>2016-10-07T21:31:29Z</time></trkpt>
<trkpt lat="29.763199" lon="96.711191">
<time>2016-10-07T21:31:30Z</time></trkpt>
<trkpt lat="29.762739" lon="96.711491">
<time>2016-10-07T21:31:31Z</time></trkpt>
<trkpt lat="29.762389" lon="96.71172">
<time>2016-10-07T21:31:32Z</time></trkpt>
<trkpt lat="29.762239" lon="96.71183">
<time>2016-10-07T21:31:33Z</time></trkpt>
<trkpt lat="29.762058" lon="96.71197">
<time>2016-10-07T21:31:34Z</time></trkpt>
<trkpt lat="29.761738" lon="96.71225">
<time>2016-10-07T21:31:35Z</time></trkpt>
<trkpt lat="29.761528" lon="96.712419">
<time>2016-10-07T21:31:36Z</time></trkpt>
<trkpt lat="29.761308" lon="96.712609">
<time>2016-10-07T21:31:37Z</time></trkpt>
<trkpt lat="29.761137" lon="96.712759">
<time>2016-10-07T21:31:38Z</time></trkpt>
<trkpt lat="29.760997" lon="96.712889">
<time>2016-10-07T21:31:39Z</time></trkpt>
<trkpt lat="29.760917" lon="96.712979">
<time>2016-10-07T21:31:40Z</time></trkpt>
<trkpt lat="29.760837" lon="96.713088">
<time>2016-10-07T21:31:41Z</time></trkpt>
<trkpt lat="29.760677" lon="96.713298">
<time>2016-10-07T21:31:42Z</time></trkpt>
<trkpt lat="29.760547" lon="96.713478">
<time>2016-10-07T21:31:43Z</time></trkpt>
<trkpt lat="29.760366" lon="96.713717">
<time>2016-10-07T21:31:44Z</time></trkpt>
<trkpt lat="29.760196" lon="96.713927">
<time>2016-10-07T21:31:45Z</time></trkpt>
<trkpt lat="29.760116" lon="96.714017">
<time>2016-10-07T21:31:46Z</time></trkpt>
<trkpt lat="29.760056" lon="96.714087">
<time>2016-10-07T21:31:47Z</time></trkpt>
<trkpt lat="29.759996" lon="96.714137">
<time>2016-10-07T21:31:48Z</time></trkpt>
<trkpt lat="29.759916" lon="96.714187">
<time>2016-10-07T21:31:49Z</time></trkpt>
<trkpt lat="29.759846" lon="96.714227">
<time>2016-10-07T21:31:50Z</time></trkpt>
<trkpt lat="29.759776" lon="96.714247">
<time>2016-10-07T21:31:51Z</time></trkpt>
<trkpt lat="29.759676" lon="96.714267">
<time>2016-10-07T21:31:52Z</time></trkpt>
<trkpt lat="29.759606" lon="96.714267">
<time>2016-10-07T21:31:53Z</time></trkpt>
<trkpt lat="29.759526" lon="96.714257">
<time>2016-10-07T21:31:54Z</time></trkpt>
<trkpt lat="29.759186" lon="96.714247">
<time>2016-10-07T21:31:55Z</time></trkpt>
<trkpt lat="29.758936" lon="96.714227">
<time>2016-10-07T21:31:56Z</time></trkpt>
<trkpt lat="29.758786" lon="96.714217">
<time>2016-10-07T21:31:57Z</time></trkpt>
<trkpt lat="29.758696" lon="96.714187">
<time>2016-10-07T21:31:58Z</time></trkpt>
<trkpt lat="29.758586" lon="96.714127">
<time>2016-10-07T21:31:59Z</time></trkpt>
<trkpt lat="29.758496" lon="96.714057">
<time>2016-10-07T21:32:00Z</time></trkpt>
<trkpt lat="29.758426" lon="96.713987">
<time>2016-10-07T21:32:01Z</time></trkpt>
<trkpt lat="29.758356" lon="96.713897">
<time>2016-10-07T21:32:02Z</time></trkpt>
<trkpt lat="29.758296" lon="96.713807">
<time>2016-10-07T21:32:03Z</time></trkpt>
<trkpt lat="29.758077" lon="96.713518">
<time>2016-10-07T21:32:04Z</time></trkpt>
<trkpt lat="29.757658" lon="96.712969">
<time>2016-10-07T21:32:05Z</time></trkpt>
<trkpt lat="29.757169" lon="96.71232">
<time>2016-10-07T21:32:06Z</time></trkpt>
<trkpt lat="29.756869" lon="96.71194">
<time>2016-10-07T21:32:07Z</time></trkpt>
<trkpt lat="29.756769" lon="96.71183">
<time>2016-10-07T21:32:08Z</time></trkpt>
<trkpt lat="29.756699" lon="96.711751">
<time>2016-10-07T21:32:09Z</time></trkpt>
<trkpt lat="29.756609" lon="96.711681">
<time>2016-10-07T21:32:10Z</time></trkpt>
<trkpt lat="29.75652" lon="96.711621">
<time>2016-10-07T21:32:11Z</time></trkpt>
<trkpt lat="29.75642" lon="96.711571">
<time>2016-10-07T21:32:12Z</time></trkpt>
<trkpt lat="29.75632" lon="96.711541">
<time>2016-10-07T21:32:13Z</time></trkpt>
<trkpt lat="29.75623" lon="96.711521">
<time>2016-10-07T21:32:14Z</time></trkpt>
<trkpt lat="29.75608" lon="96.711501">
<time>2016-10-07T21:32:15Z</time></trkpt>
<trkpt lat="29.75577" lon="96.711461">
<time>2016-10-07T21:32:16Z</time></trkpt>
<trkpt lat="29.75559" lon="96.711441">
<time>2016-10-07T21:32:17Z</time></trkpt>
<trkpt lat="29.75524" lon="96.711391">
<time>2016-10-07T21:32:18Z</time></trkpt>
<trkpt lat="29.75498" lon="96.711351">
<time>2016-10-07T21:32:19Z</time></trkpt>
<trkpt lat="29.75481" lon="96.711331">
<time>2016-10-07T21:32:20Z</time></trkpt>
<trkpt lat="29.7545" lon="96.711291">
<time>2016-10-07T21:32:21Z</time></trkpt>
<trkpt lat="29.75411" lon="96.711231">
<time>2016-10-07T21:32:22Z</time></trkpt>
<trkpt lat="29.753551" lon="96.711161">
<time>2016-10-07T21:32:23Z</time></trkpt>
<trkpt lat="29.752941" lon="96.711082">
<time>2016-10-07T21:32:24Z</time></trkpt>
<trkpt lat="29.752301" lon="96.710992">
<time>2016-10-07T21:32:25Z</time></trkpt>
<trkpt lat="29.751721" lon="96.710922">
<time>2016-10-07T21:32:26Z</time></trkpt>
<trkpt lat="29.750941" lon="96.710812">
<time>2016-10-07T21:32:27Z</time></trkpt>
<trkpt lat="29.750621" lon="96.710772">
<time>2016-10-07T21:32:28Z</time></trkpt>
<trkpt lat="29.750272" lon="96.710722">
<time>2016-10-07T21:32:29Z</time></trkpt>
<trkpt lat="29.750182" lon="96.710712">
<time>2016-10-07T21:32:30Z</time></trkpt>
<trkpt lat="29.750112" lon="96.710702">
<time>2016-10-07T21:32:31Z</time></trkpt>
<trkpt lat="29.750042" lon="96.710692">
<time>2016-10-07T21:32:32Z</time></trkpt>
<trkpt lat="29.749992" lon="96.710682">
<time>2016-10-07T21:32:33Z</time></trkpt>
<trkpt lat="29.749912" lon="96.710672">
<time>2016-10-07T21:32:34Z</time></trkpt>
<trkpt lat="29.749832" lon="96.710662">
<time>2016-10-07T21:32:35Z</time></trkpt>
<trkpt lat="29.749752" lon="96.710632">
<time>2016-10-07T21:32:36Z</time></trkpt>
<trkpt lat="29.749692" lon="96.710612">
<time>2016-10-07T21:32:37Z</time></trkpt>
<trkpt lat="29.749612" lon="96.710582">
<time>2016-10-07T21:32:38Z</time></trkpt>
<trkpt lat="29.749522" lon="96.710532">
<time>2016-10-07T21:32:39Z</time></trkpt>
<trkpt lat="29.749442" lon="96.710473">
<time>2016-10-07T21:32:40Z</time></trkpt>
<trkpt lat="29.749312" lon="96.710373">
<time>2016-10-07T21:32:41Z</time></trkpt>
<trkpt lat="29.749252" lon="96.710323">
<time>2016-10-07T21:32:42Z</time></trkpt>
<trkpt lat="29.749162" lon="96.710233">
<time>2016-10-07T21:32:43Z</time></trkpt>
<trkpt lat="29.749122" lon="96.710193">
<time>2016-10-07T21:32:44Z</time></trkpt>
<trkpt lat="29.749023" lon="96.710113">
<time>2016-10-07T21:32:45Z</time></trkpt>
<trkpt lat="29.748953" lon="96.710063">
<time>2016-10-07T21:32:46Z</time></trkpt>
<trkpt lat="29.748893" lon="96.710023">
<time>2016-10-07T21:32:47Z</time></trkpt>
<trkpt lat="29.748773" lon="96.709943">
<time>2016-10-07T21:32:48Z</time></trkpt>
<trkpt lat="29.748633" lon="96.709864">
<time>2016-10-07T21:32:49Z</time></trkpt>
<trkpt lat="29.748503" lon="96.709794">
<time>2016-10-07T21:32:50Z</time></trkpt>
<trkpt lat="29.748373" lon="96.709724">
<time>2016-10-07T21:32:51Z</time></trkpt>
<trkpt lat="29.748153" lon="96.709634">
<time>2016-10-07T21:32:52Z</time></trkpt>
<trkpt lat="29.747884" lon="96.709534">
<time>2016-10-07T21:32:53Z</time></trkpt>
<trkpt lat="29.747764" lon="96.709504">
<time>2016-10-07T21:32:54Z</time></trkpt>
<trkpt lat="29.747634" lon="96.709464">
<time>2016-10-07T21:32:55Z</time></trkpt>
<trkpt lat="29.747484" lon="96.709444">
<time>2016-10-07T21:32:56Z</time></trkpt>
<trkpt lat="29.747404" lon="96.709434">
<time>2016-10-07T21:32:57Z</time></trkpt>
<trkpt lat="29.747324" lon="96.709434">
<time>2016-10-07T21:32:58Z</time></trkpt>
<trkpt lat="29.747194" lon="96.709444">
<time>2016-10-07T21:32:59Z</time></trkpt>
<trkpt lat="29.747064" lon="96.709454">
<time>2016-10-07T21:33:00Z</time></trkpt>
<trkpt lat="29.746874" lon="96.709474">
<time>2016-10-07T21:33:01Z</time></trkpt>
<trkpt lat="29.746394" lon="96.709534">
<time>2016-10-07T21:33:02Z</time></trkpt>
<trkpt lat="29.745944" lon="96.709604">
<time>2016-10-07T21:33:03Z</time></trkpt>
<trkpt lat="29.745514" lon="96.709654">
<time>2016-10-07T21:33:04Z</time></trkpt>
<trkpt lat="29.745154" lon="96.709704">
<time>2016-10-07T21:33:05Z</time></trkpt>
<trkpt lat="29.744534" lon="96.709784">
<time>2016-10-07T21:33:06Z</time></trkpt>
<trkpt lat="29.743364" lon="96.709944">
<time>2016-10-07T21:33:07Z</time></trkpt>
<trkpt lat="29.742704" lon="96.710033">
<time>2016-10-07T21:33:08Z</time></trkpt>
<trkpt lat="29.742344" lon="96.710073">
<time>2016-10-07T21:33:09Z</time></trkpt>
<trkpt lat="29.741874" lon="96.710143">
<time>2016-10-07T21:33:10Z</time></trkpt>
<trkpt lat="29.741494" lon="96.710193">
<time>2016-10-07T21:33:11Z</time></trkpt>
<trkpt lat="29.741294" lon="96.710213">
<time>2016-10-07T21:33:12Z</time></trkpt>
<trkpt lat="29.741124" lon="96.710243">
<time>2016-10-07T21:33:13Z</time></trkpt>
<trkpt lat="29.740773" lon="96.710283">
<time>2016-10-07T21:33:14Z</time></trkpt>
<trkpt lat="29.740563" lon="96.710313">
<time>2016-10-07T21:33:15Z</time></trkpt>
<trkpt lat="29.740173" lon="96.710363">
<time>2016-10-07T21:33:16Z</time></trkpt>
<trkpt lat="29.739863" lon="96.710403">
<time>2016-10-07T21:33:17Z</time></trkpt>
<trkpt lat="29.739673" lon="96.710433">
<time>2016-10-07T21:33:18Z</time></trkpt>
<trkpt lat="29.739503" lon="96.710453">
<time>2016-10-07T21:33:19Z</time></trkpt>
<trkpt lat="29.739403" lon="96.710463">
<time>2016-10-07T21:33:20Z</time></trkpt>
<trkpt lat="29.739293" lon="96.710473">
<time>2016-10-07T21:33:21Z</time></trkpt>
<trkpt lat="29.739183" lon="96.710473">
<time>2016-10-07T21:33:22Z</time></trkpt>
<trkpt lat="29.739074" lon="96.710463">
<time>2016-10-07T21:33:23Z</time></trkpt>
<trkpt lat="29.738884" lon="96.710443">
<time>2016-10-07T21:33:24Z</time></trkpt>
<trkpt lat="29.738734" lon="96.710433">
<time>2016-10-07T21:33:25Z</time></trkpt>
<trkpt lat="29.738634" lon="96.710433">
<time>2016-10-07T21:33:26Z</time></trkpt>
<trkpt lat="29.738554" lon="96.710433">
<time>2016-10-07T21:33:27Z</time></trkpt>
<trkpt lat="29.738404" lon="96.710453">
<time>2016-10-07T21:33:28Z</time></trkpt>
<trkpt lat="29.738024" lon="96.710563">
<time>2016-10-07T21:33:29Z</time></trkpt>
<trkpt lat="29.737763" lon="96.710642">
<time>2016-10-07T21:33:30Z</time></trkpt>
<trkpt lat="29.737433" lon="96.710742">
<time>2016-10-07T21:33:31Z</time></trkpt>
<trkpt lat="29.737213" lon="96.710812">
<time>2016-10-07T21:33:32Z</time></trkpt>
<trkpt lat="29.737043" lon="96.710872">
<time>2016-10-07T21:33:33Z</time></trkpt>
<trkpt lat="29.736923" lon="96.710922">
<time>2016-10-07T21:33:34Z</time></trkpt>
<trkpt lat="29.736443" lon="96.711132">
<time>2016-10-07T21:33:35Z</time></trkpt>
<trkpt lat="29.736203" lon="96.711242">
<time>2016-10-07T21:33:36Z</time></trkpt>
<trkpt lat="29.735963" lon="96.711351">
<time>2016-10-07T21:33:37Z</time></trkpt>
<trkpt lat="29.735523" lon="96.711541">
<time>2016-10-07T21:33:38Z</time></trkpt>
<trkpt lat="29.735032" lon="96.711761">
<time>2016-10-07T21:33:39Z</time></trkpt>
<trkpt lat="29.734792" lon="96.711871">
<time>2016-10-07T21:33:40Z</time></trkpt>
<trkpt lat="29.734472" lon="96.71201">
<time>2016-10-07T21:33:41Z</time></trkpt>
<trkpt lat="29.734282" lon="96.71209">
<time>2016-10-07T21:33:42Z</time></trkpt>
<trkpt lat="29.734012" lon="96.71221">
<time>2016-10-07T21:33:43Z</time></trkpt>
<trkpt lat="29.733692" lon="96.71235">
<time>2016-10-07T21:33:44Z</time></trkpt>
<trkpt lat="29.733152" lon="96.71259">
<time>2016-10-07T21:33:45Z</time></trkpt>
<trkpt lat="29.732811" lon="96.712739">
<time>2016-10-07T21:33:46Z</time></trkpt>
<trkpt lat="29.732541" lon="96.712859">
<time>2016-10-07T21:33:47Z</time></trkpt>
<trkpt lat="29.731981" lon="96.713109">
<time>2016-10-07T21:33:48Z</time></trkpt>
<trkpt lat="29.731451" lon="96.713348">
<time>2016-10-07T21:33:49Z</time></trkpt>
<trkpt lat="29.730731" lon="96.713668">
<time>2016-10-07T21:33:50Z</time></trkpt>
<trkpt lat="29.73046" lon="96.713798">
<time>2016-10-07T21:33:51Z</time></trkpt>
<trkpt lat="29.73004" lon="96.714047">
<time>2016-10-07T21:33:52Z</time></trkpt>
<trkpt lat="29.72989" lon="96.714127">
<time>2016-10-07T21:33:53Z</time></trkpt>
<trkpt lat="29.72956" lon="96.714317">
<time>2016-10-07T21:33:54Z</time></trkpt>
<trkpt lat="29.7292" lon="96.714517">
<time>2016-10-07T21:33:55Z</time></trkpt>
<trkpt lat="29.72907" lon="96.714597">
<time>2016-10-07T21:33:56Z</time></trkpt>
<trkpt lat="29.72891" lon="96.714707">
<time>2016-10-07T21:33:57Z</time></trkpt>
<trkpt lat="29.728669" lon="96.714886">
<time>2016-10-07T21:33:58Z</time></trkpt>
<trkpt lat="29.728209" lon="96.715236">
<time>2016-10-07T21:33:59Z</time></trkpt>
<trkpt lat="29.728049" lon="96.715366">
<time>2016-10-07T21:34:00Z</time></trkpt>
<trkpt lat="29.727869" lon="96.715505">
<time>2016-10-07T21:34:01Z</time></trkpt>
<trkpt lat="29.727719" lon="96.715605">
<time>2016-10-07T21:34:02Z</time></trkpt>
<trkpt lat="29.727408" lon="96.715805">
<time>2016-10-07T21:34:03Z</time></trkpt>
<trkpt lat="29.727088" lon="96.716005">
<time>2016-10-07T21:34:04Z</time></trkpt>
<trkpt lat="29.726888" lon="96.716135">
<time>2016-10-07T21:34:05Z</time></trkpt>
<trkpt lat="29.726608" lon="96.716304">
<time>2016-10-07T21:34:06Z</time></trkpt>
<trkpt lat="29.725857" lon="96.716784">
<time>2016-10-07T21:34:07Z</time></trkpt>
<trkpt lat="29.725517" lon="96.717013">
<time>2016-10-07T21:34:08Z</time></trkpt>
<trkpt lat="29.725247" lon="96.717203">
<time>2016-10-07T21:34:09Z</time></trkpt>
<trkpt lat="29.724677" lon="96.717652">
<time>2016-10-07T21:34:10Z</time></trkpt>
<trkpt lat="29.724136" lon="96.718142">
<time>2016-10-07T21:34:11Z</time></trkpt>
<trkpt lat="29.723926" lon="96.718312">
<time>2016-10-07T21:34:12Z</time></trkpt>
<trkpt lat="29.723766" lon="96.718421">
<time>2016-10-07T21:34:13Z</time></trkpt>
<trkpt lat="29.723276" lon="96.718681">
<time>2016-10-07T21:34:14Z</time></trkpt>
<trkpt lat="29.722906" lon="96.718851">
<time>2016-10-07T21:34:15Z</time></trkpt>
<trkpt lat="29.722665" lon="96.718971">
<time>2016-10-07T21:34:16Z</time></trkpt>
<trkpt lat="29.722395" lon="96.719101">
<time>2016-10-07T21:34:17Z</time></trkpt>
<trkpt lat="29.722125" lon="96.71925">
<time>2016-10-07T21:34:18Z</time></trkpt>
<trkpt lat="29.721815" lon="96.71944">
<time>2016-10-07T21:34:19Z</time></trkpt>
<trkpt lat="29.721645" lon="96.71954">
<time>2016-10-07T21:34:20Z</time></trkpt>
<trkpt lat="29.721505" lon="96.71962">
<time>2016-10-07T21:34:21Z</time></trkpt>
<trkpt lat="29.721355" lon="96.7197">
<time>2016-10-07T21:34:22Z</time></trkpt>
<trkpt lat="29.721225" lon="96.71975">
<time>2016-10-07T21:34:23Z</time></trkpt>
<trkpt lat="29.721105" lon="96.71979">
<time>2016-10-07T21:34:24Z</time></trkpt>
<trkpt lat="29.720925" lon="96.71982">
<time>2016-10-07T21:34:25Z</time></trkpt>
<trkpt lat="29.720805" lon="96.71983">
<time>2016-10-07T21:34:26Z</time></trkpt>
<trkpt lat="29.720685" lon="96.71984">
<time>2016-10-07T21:34:27Z</time></trkpt>
<trkpt lat="29.720615" lon="96.71985">
<time>2016-10-07T21:34:28Z</time></trkpt>
<trkpt lat="29.720535" lon="96.71987">
<time>2016-10-07T21:34:29Z</time></trkpt>
<trkpt lat="29.720465" lon="96.71989">
<time>2016-10-07T21:34:30Z</time></trkpt>
<trkpt lat="29.720315" lon="96.71994">
<time>2016-10-07T21:34:31Z</time></trkpt>
<trkpt lat="29.720135" lon="96.720019">
<time>2016-10-07T21:34:32Z</time></trkpt>
<trkpt lat="29.719995" lon="96.720089">
<time>2016-10-07T21:34:33Z</time></trkpt>
<trkpt lat="29.719875" lon="96.720169">
<time>2016-10-07T21:34:34Z</time></trkpt>
<trkpt lat="29.719805" lon="96.720219">
<time>2016-10-07T21:34:35Z</time></trkpt>
<trkpt lat="29.719654" lon="96.720339">
<time>2016-10-07T21:34:36Z</time></trkpt>
<trkpt lat="29.719414" lon="96.720539">
<time>2016-10-07T21:34:37Z</time></trkpt>
<trkpt lat="29.719184" lon="96.720739">
<time>2016-10-07T21:34:38Z</time></trkpt>
<trkpt lat="29.718704" lon="96.721138">
<time>2016-10-07T21:34:39Z</time></trkpt>
<trkpt lat="29.718584" lon="96.721238">
<time>2016-10-07T21:34:40Z</time></trkpt>
<trkpt lat="29.718454" lon="96.721388">
<time>2016-10-07T21:34:41Z</time></trkpt>
<trkpt lat="29.718313" lon="96.721608">
<time>2016-10-07T21:34:42Z</time></trkpt>
<trkpt lat="29.718053" lon="96.722047">
<time>2016-10-07T21:34:43Z</time></trkpt>
<trkpt lat="29.717933" lon="96.722227">
<time>2016-10-07T21:34:44Z</time></trkpt>
<trkpt lat="29.717873" lon="96.722297">
<time>2016-10-07T21:34:45Z</time></trkpt>
<trkpt lat="29.717853" lon="96.722327">
<time>2016-10-07T21:34:46Z</time></trkpt>
<trkpt lat="29.717793" lon="96.722377">
<time>2016-10-07T21:34:47Z</time></trkpt>
<trkpt lat="29.717623" lon="96.722536">
<time>2016-10-07T21:34:48Z</time></trkpt>
<trkpt lat="29.717472" lon="96.722666">
<time>2016-10-07T21:34:49Z</time></trkpt>
<trkpt lat="29.717312" lon="96.722826">
<time>2016-10-07T21:34:50Z</time></trkpt>
<trkpt lat="29.717152" lon="96.723006">
<time>2016-10-07T21:34:51Z</time></trkpt>
<trkpt lat="29.716842" lon="96.723346">
<time>2016-10-07T21:34:52Z</time></trkpt>
<trkpt lat="29.716742" lon="96.723445">
<time>2016-10-07T21:34:53Z</time></trkpt>
<trkpt lat="29.716602" lon="96.723575">
<time>2016-10-07T21:34:54Z</time></trkpt>
<trkpt lat="29.716362" lon="96.723755">
<time>2016-10-07T21:34:55Z</time></trkpt>
<trkpt lat="29.716202" lon="96.723865">
<time>2016-10-07T21:34:56Z</time></trkpt>
<trkpt lat="29.716051" lon="96.723975">
<time>2016-10-07T21:34:57Z</time></trkpt>
<trkpt lat="29.715951" lon="96.724065">
<time>2016-10-07T21:34:58Z</time></trkpt>
<trkpt lat="29.715881" lon="96.724135">
<time>2016-10-07T21:34:59Z</time></trkpt>
<trkpt lat="29.715781" lon="96.724245">
<time>2016-10-07T21:35:00Z</time></trkpt>
<trkpt lat="29.715671" lon="96.724384">
<time>2016-10-07T21:35:01Z</time></trkpt>
<trkpt lat="29.715571" lon="96.724504">
<time>2016-10-07T21:35:02Z</time></trkpt>
<trkpt lat="29.715451" lon="96.724634">
<time>2016-10-07T21:35:03Z</time></trkpt>
<trkpt lat="29.715381" lon="96.724714">
<time>2016-10-07T21:35:04Z</time></trkpt>
<trkpt lat="29.715301" lon="96.724794">
<time>2016-10-07T21:35:05Z</time></trkpt>
<trkpt lat="29.715221" lon="96.724864">
<time>2016-10-07T21:35:06Z</time></trkpt>
<trkpt lat="29.715141" lon="96.724924">
<time>2016-10-07T21:35:07Z</time></trkpt>
<trkpt lat="29.715071" lon="96.724974">
<time>2016-10-07T21:35:08Z</time></trkpt>
<trkpt lat="29.714991" lon="96.725014">
<time>2016-10-07T21:35:09Z</time></trkpt>
<trkpt lat="29.714911" lon="96.725044">
<time>2016-10-07T21:35:10Z</time></trkpt>
<trkpt lat="29.714741" lon="96.725114">
<time>2016-10-07T21:35:11Z</time></trkpt>
<trkpt lat="29.714501" lon="96.725203">
<time>2016-10-07T21:35:12Z</time></trkpt>
<trkpt lat="29.714271" lon="96.725273">
<time>2016-10-07T21:35:13Z</time></trkpt>
<trkpt lat="29.71392" lon="96.725393">
<time>2016-10-07T21:35:14Z</time></trkpt>
<trkpt lat="29.71339" lon="96.725573">
<time>2016-10-07T21:35:15Z</time></trkpt>
<trkpt lat="29.71289" lon="96.725753">
<time>2016-10-07T21:35:16Z</time></trkpt>
<trkpt lat="29.71255" lon="96.725863">
<time>2016-10-07T21:35:17Z</time></trkpt>
<trkpt lat="29.71217" lon="96.725993">
<time>2016-10-07T21:35:18Z</time></trkpt>
<trkpt lat="29.71181" lon="96.726123">
<time>2016-10-07T21:35:19Z</time></trkpt>
<trkpt lat="29.71145" lon="96.726242">
<time>2016-10-07T21:35:20Z</time></trkpt>
<trkpt lat="29.71119" lon="96.726332">
<time>2016-10-07T21:35:21Z</time></trkpt>
<trkpt lat="29.71081" lon="96.726462">
<time>2016-10-07T21:35:22Z</time></trkpt>
<trkpt lat="29.71061" lon="96.726532">
<time>2016-10-07T21:35:23Z</time></trkpt>
<trkpt lat="29.71047" lon="96.726582">
<time>2016-10-07T21:35:24Z</time></trkpt>
<trkpt lat="29.71035" lon="96.726632">
<time>2016-10-07T21:35:25Z</time></trkpt>
<trkpt lat="29.71022" lon="96.726692">
<time>2016-10-07T21:35:26Z</time></trkpt>
<trkpt lat="29.71003" lon="96.726792">
<time>2016-10-07T21:35:27Z</time></trkpt>
<trkpt lat="29.70977" lon="96.726952">
<time>2016-10-07T21:35:28Z</time></trkpt>
<trkpt lat="29.70923" lon="96.727291">
<time>2016-10-07T21:35:29Z</time></trkpt>
<trkpt lat="29.708629" lon="96.727671">
<time>2016-10-07T21:35:30Z</time></trkpt>
<trkpt lat="29.707529" lon="96.72835">
<time>2016-10-07T21:35:31Z</time></trkpt>
<trkpt lat="29.707089" lon="96.72864">
<time>2016-10-07T21:35:32Z</time></trkpt>
<trkpt lat="29.706269" lon="96.72914">
<time>2016-10-07T21:35:33Z</time></trkpt>
<trkpt lat="29.706179" lon="96.72919">
<time>2016-10-07T21:35:34Z</time></trkpt>
<trkpt lat="29.706079" lon="96.72924">
<time>2016-10-07T21:35:35Z</time></trkpt>
<trkpt lat="29.705959" lon="96.72929">
<time>2016-10-07T21:35:36Z</time></trkpt>
<trkpt lat="29.705829" lon="96.72933">
<time>2016-10-07T21:35:37Z</time></trkpt>
<trkpt lat="29.705389" lon="96.729429">
<time>2016-10-07T21:35:38Z</time></trkpt>
<trkpt lat="29.704649" lon="96.729579">
<time>2016-10-07T21:35:39Z</time></trkpt>
<trkpt lat="29.704289" lon="96.729649">
<time>2016-10-07T21:35:40Z</time></trkpt>
<trkpt lat="29.703939" lon="96.729719">
<time>2016-10-07T21:35:41Z</time></trkpt>
<trkpt lat="29.703699" lon="96.729769">
<time>2016-10-07T21:35:42Z</time></trkpt>
<trkpt lat="29.703329" lon="96.729839">
<time>2016-10-07T21:35:43Z</time></trkpt>
<trkpt lat="29.703119" lon="96.729879">
<time>2016-10-07T21:35:44Z</time></trkpt>
<trkpt lat="29.702739" lon="96.729959">
<time>2016-10-07T21:35:45Z</time></trkpt>
<trkpt lat="29.702409" lon="96.730019">
<time>2016-10-07T21:35:46Z</time></trkpt>
<trkpt lat="29.702239" lon="96.730049">
<time>2016-10-07T21:35:47Z</time></trkpt>
<trkpt lat="29.701919" lon="96.730109">
<time>2016-10-07T21:35:48Z</time></trkpt>
<trkpt lat="29.701589" lon="96.730179">
<time>2016-10-07T21:35:49Z</time></trkpt>
<trkpt lat="29.701289" lon="96.730229">
<time>2016-10-07T21:35:50Z</time></trkpt>
<trkpt lat="29.701029" lon="96.730269">
<time>2016-10-07T21:35:51Z</time></trkpt>
<trkpt lat="29.700759" lon="96.730299">
<time>2016-10-07T21:35:52Z</time></trkpt>
<trkpt lat="29.700629" lon="96.730319">
<time>2016-10-07T21:35:53Z</time></trkpt>
<trkpt lat="29.700249" lon="96.730339">
<time>2016-10-07T21:35:54Z</time></trkpt>
<trkpt lat="29.699869" lon="96.730359">
<time>2016-10-07T21:35:55Z</time></trkpt>
<trkpt lat="29.699509" lon="96.730379">
<time>2016-10-07T21:35:56Z</time></trkpt>
<trkpt lat="29.699099" lon="96.730399">
<time>2016-10-07T21:35:57Z</time></trkpt>
<trkpt lat="29.698629" lon="96.730419">
<time>2016-10-07T21:35:58Z</time></trkpt>
<trkpt lat="29.698249" lon="96.730439">
<time>2016-10-07T21:35:59Z</time></trkpt>
<trkpt lat="29.697889" lon="96.730449">
<time>2016-10-07T21:36:00Z</time></trkpt>
<trkpt lat="29.697419" lon="96.730479">
<time>2016-10-07T21:36:01Z</time></trkpt>
<trkpt lat="29.697049" lon="96.730499">
<time>2016-10-07T21:36:02Z</time></trkpt>
<trkpt lat="29.696769" lon="96.730509">
<time>2016-10-07T21:36:03Z</time></trkpt>
<trkpt lat="29.696589" lon="96.730519">
<time>2016-10-07T21:36:04Z</time></trkpt>
<trkpt lat="29.69622" lon="96.730529">
<time>2016-10-07T21:36:05Z</time></trkpt>
<trkpt lat="29.69608" lon="96.730539">
<time>2016-10-07T21:36:06Z</time></trkpt>
<trkpt lat="29.69594" lon="96.730549">
<time>2016-10-07T21:36:07Z</time></trkpt>
<trkpt lat="29.69583" lon="96.730549">
<time>2016-10-07T21:36:08Z</time></trkpt>
<trkpt lat="29.69578" lon="96.730549">
<time>2016-10-07T21:36:09Z</time></trkpt>
<trkpt lat="29.69571" lon="96.730549">
<time>2016-10-07T21:36:10Z</time></trkpt>
<trkpt lat="29.69565" lon="96.730539">
<time>2016-10-07T21:36:11Z</time></trkpt>
<trkpt lat="29.69551" lon="96.730509">
<time>2016-10-07T21:36:12Z</time></trkpt>
<trkpt lat="29.6954" lon="96.730469">
<time>2016-10-07T21:36:13Z</time></trkpt>
<trkpt lat="29.69532" lon="96.730439">
<time>2016-10-07T21:36:14Z</time></trkpt>
<trkpt lat="29.69521" lon="96.730389">
<time>2016-10-07T21:36:15Z</time></trkpt>
<trkpt lat="29.69504" lon="96.730309">
<time>2016-10-07T21:36:16Z</time></trkpt>
<trkpt lat="29.69465" lon="96.730149">
<time>2016-10-07T21:36:17Z</time></trkpt>
<trkpt lat="29.69436" lon="96.730049">
<time>2016-10-07T21:36:18Z</time></trkpt>
<trkpt lat="29.69413" lon="96.729969">
<time>2016-10-07T21:36:19Z</time></trkpt>
<trkpt lat="29.69392" lon="96.729889">
<time>2016-10-07T21:36:20Z</time></trkpt>
<trkpt lat="29.693541" lon="96.729729">
<time>2016-10-07T21:36:21Z</time></trkpt>
<trkpt lat="29.693271" lon="96.729609">
<time>2016-10-07T21:36:22Z</time></trkpt>
<trkpt lat="29.692991" lon="96.72949">
<time>2016-10-07T21:36:23Z</time></trkpt>
<trkpt lat="29.692231" lon="96.72917">
<time>2016-10-07T21:36:24Z</time></trkpt>
<trkpt lat="29.692101" lon="96.72911">
<time>2016-10-07T21:36:25Z</time></trkpt>
<trkpt lat="29.691861" lon="96.72902">
<time>2016-10-07T21:36:26Z</time></trkpt>
<trkpt lat="29.691652" lon="96.72894">
<time>2016-10-07T21:36:27Z</time></trkpt>
<trkpt lat="29.691392" lon="96.72887">
<time>2016-10-07T21:36:28Z</time></trkpt>
<trkpt lat="29.691302" lon="96.72885">
<time>2016-10-07T21:36:29Z</time></trkpt>
<trkpt lat="29.691072" lon="96.7288">
<time>2016-10-07T21:36:30Z</time></trkpt>
<trkpt lat="29.690852" lon="96.72876">
<time>2016-10-07T21:36:31Z</time></trkpt>
<trkpt lat="29.690302" lon="96.72865">
<time>2016-10-07T21:36:32Z</time></trkpt>
<trkpt lat="29.689342" lon="96.728451">
<time>2016-10-07T21:36:33Z</time></trkpt>
<trkpt lat="29.688963" lon="96.728381">
<time>2016-10-07T21:36:34Z</time></trkpt>
<trkpt lat="29.688543" lon="96.728291">
<time>2016-10-07T21:36:35Z</time></trkpt>
<trkpt lat="29.688083" lon="96.728201">
<time>2016-10-07T21:36:36Z</time></trkpt>
<trkpt lat="29.687203" lon="96.728011">
<time>2016-10-07T21:36:37Z</time></trkpt>
<trkpt lat="29.686853" lon="96.727941">
<time>2016-10-07T21:36:38Z</time></trkpt>
<trkpt lat="29.686563" lon="96.727881">
<time>2016-10-07T21:36:39Z</time></trkpt>
<trkpt lat="29.686433" lon="96.727841">
<time>2016-10-07T21:36:40Z</time></trkpt>
<trkpt lat="29.686254" lon="96.727791">
<time>2016-10-07T21:36:41Z</time></trkpt>
<trkpt lat="29.686084" lon="96.727721">
<time>2016-10-07T21:36:42Z</time></trkpt>
<trkpt lat="29.685914" lon="96.727651">
<time>2016-10-07T21:36:43Z</time></trkpt>
<trkpt lat="29.685654" lon="96.727542">
<time>2016-10-07T21:36:44Z</time></trkpt>
<trkpt lat="29.685374" lon="96.727432">
<time>2016-10-07T21:36:45Z</time></trkpt>
<trkpt lat="29.685224" lon="96.727372">
<time>2016-10-07T21:36:46Z</time></trkpt>
<trkpt lat="29.685114" lon="96.727332">
<time>2016-10-07T21:36:47Z</time></trkpt>
<trkpt lat="29.684984" lon="96.727262">
<time>2016-10-07T21:36:48Z</time></trkpt>
<trkpt lat="29.684914" lon="96.727222">
<time>2016-10-07T21:36:49Z</time></trkpt>
<trkpt lat="29.684794" lon="96.727152">
<time>2016-10-07T21:36:50Z</time></trkpt>
<trkpt lat="29.684635" lon="96.727032">
<time>2016-10-07T21:36:51Z</time></trkpt>
<trkpt lat="29.684555" lon="96.726972">
<time>2016-10-07T21:36:52Z</time></trkpt>
<trkpt lat="29.684475" lon="96.726892">
<time>2016-10-07T21:36:53Z</time></trkpt>
<trkpt lat="29.684395" lon="96.726812">
<time>2016-10-07T21:36:54Z</time></trkpt>
<trkpt lat="29.684285" lon="96.726682">
<time>2016-10-07T21:36:55Z</time></trkpt>
<trkpt lat="29.684225" lon="96.726612">
<time>2016-10-07T21:36:56Z</time></trkpt>
<trkpt lat="29.684175" lon="96.726543">
<time>2016-10-07T21:36:57Z</time></trkpt>
<trkpt lat="29.684115" lon="96.726473">
<time>2016-10-07T21:36:58Z</time></trkpt>
<trkpt lat="29.684045" lon="96.726403">
<time>2016-10-07T21:36:59Z</time></trkpt>
<trkpt lat="29.683995" lon="96.726353">
<time>2016-10-07T21:37:00Z</time></trkpt>
<trkpt lat="29.683955" lon="96.726333">
<time>2016-10-07T21:37:01Z</time></trkpt>
<trkpt lat="29.683915" lon="96.726313">
<time>2016-10-07T21:37:02Z</time></trkpt>
<trkpt lat="29.683855" lon="96.726283">
<time>2016-10-07T21:37:03Z</time></trkpt>
<trkpt lat="29.683785" lon="96.726253">
<time>2016-10-07T21:37:04Z</time></trkpt>
<trkpt lat="29.683735" lon="96.726243">
<time>2016-10-07T21:37:05Z</time></trkpt>
<trkpt lat="29.683675" lon="96.726233">
<time>2016-10-07T21:37:06Z</time></trkpt>
<trkpt lat="29.683615" lon="96.726233">
<time>2016-10-07T21:37:07Z</time></trkpt>
<trkpt lat="29.683495" lon="96.726233">
<time>2016-10-07T21:37:08Z</time></trkpt>
<trkpt lat="29.683325" lon="96.726243">
<time>2016-10-07T21:37:09Z</time></trkpt>
<trkpt lat="29.683145" lon="96.726263">
<time>2016-10-07T21:37:10Z</time></trkpt>
<trkpt lat="29.682996" lon="96.726283">
<time>2016-10-07T21:37:11Z</time></trkpt>
<trkpt lat="29.682796" lon="96.726303">
<time>2016-10-07T21:37:12Z</time></trkpt>
<trkpt lat="29.682666" lon="96.726313">
<time>2016-10-07T21:37:13Z</time></trkpt>
<trkpt lat="29.682556" lon="96.726313">
<time>2016-10-07T21:37:14Z</time></trkpt>
<trkpt lat="29.682456" lon="96.726313">
<time>2016-10-07T21:37:15Z</time></trkpt>
<trkpt lat="29.682366" lon="96.726293">
<time>2016-10-07T21:37:16Z</time></trkpt>
<trkpt lat="29.682286" lon="96.726283">
<time>2016-10-07T21:37:17Z</time></trkpt>
<trkpt lat="29.682186" lon="96.726253">
<time>2016-10-07T21:37:18Z</time></trkpt>
<trkpt lat="29.682116" lon="96.726213">
<time>2016-10-07T21:37:19Z</time></trkpt>
<trkpt lat="29.682066" lon="96.726193">
<time>2016-10-07T21:37:20Z</time></trkpt>
<trkpt lat="29.681956" lon="96.726143">
<time>2016-10-07T21:37:21Z</time></trkpt>
<trkpt lat="29.681876" lon="96.726083">
<time>2016-10-07T21:37:22Z</time></trkpt>
<trkpt lat="29.681806" lon="96.726033">
<time>2016-10-07T21:37:23Z</time></trkpt>
<trkpt lat="29.681726" lon="96.725963">
<time>2016-10-07T21:37:24Z</time></trkpt>
<trkpt lat="29.681646" lon="96.725873">
<time>2016-10-07T21:37:25Z</time></trkpt>
<trkpt lat="29.681566" lon="96.725773">
<time>2016-10-07T21:37:26Z</time></trkpt>
<trkpt lat="29.681486" lon="96.725663">
<time>2016-10-07T21:37:27Z</time></trkpt>
<trkpt lat="29.681407" lon="96.725524">
<time>2016-10-07T21:37:28Z</time></trkpt>
<trkpt lat="29.681267" lon="96.725244">
<time>2016-10-07T21:37:29Z</time></trkpt>
<trkpt lat="29.681177" lon="96.725084">
<time>2016-10-07T21:37:30Z</time></trkpt>
<trkpt lat="29.681127" lon="96.724994">
<time>2016-10-07T21:37:31Z</time></trkpt>
<trkpt lat="29.681057" lon="96.724884">
<time>2016-10-07T21:37:32Z</time></trkpt>
<trkpt lat="29.680987" lon="96.724774">
<time>2016-10-07T21:37:33Z</time></trkpt>
<trkpt lat="29.680738" lon="96.724415">
<time>2016-10-07T21:37:34Z</time></trkpt>
<trkpt lat="29.680638" lon="96.724265">
<time>2016-10-07T21:37:35Z</time></trkpt>
<trkpt lat="29.680528" lon="96.724135">
<time>2016-10-07T21:37:36Z</time></trkpt>
<trkpt lat="29.680428" lon="96.724015">
<time>2016-10-07T21:37:37Z</time></trkpt>
<trkpt lat="29.680338" lon="96.723945">
<time>2016-10-07T21:37:38Z</time></trkpt>
<trkpt lat="29.680208" lon="96.723836">
<time>2016-10-07T21:37:39Z</time></trkpt>
<trkpt lat="29.680088" lon="96.723736">
<time>2016-10-07T21:37:40Z</time></trkpt>
<trkpt lat="29.679979" lon="96.723656">
<time>2016-10-07T21:37:41Z</time></trkpt>
<trkpt lat="29.679839" lon="96.723566">
<time>2016-10-07T21:37:42Z</time></trkpt>
<trkpt lat="29.679709" lon="96.723496">
<time>2016-10-07T21:37:43Z</time></trkpt>
<trkpt lat="29.679489" lon="96.723386">
<time>2016-10-07T21:37:44Z</time></trkpt>
<trkpt lat="29.679329" lon="96.723316">
<time>2016-10-07T21:37:45Z</time></trkpt>
<trkpt lat="29.679149" lon="96.723206">
<time>2016-10-07T21:37:46Z</time></trkpt>
<trkpt lat="29.678989" lon="96.723096">
<time>2016-10-07T21:37:47Z</time></trkpt>
<trkpt lat="29.678789" lon="96.722957">
<time>2016-10-07T21:37:48Z</time></trkpt>
<trkpt lat="29.67869" lon="96.722887">
<time>2016-10-07T21:37:49Z</time></trkpt>
<trkpt lat="29.67853" lon="96.722767">
<time>2016-10-07T21:37:50Z</time></trkpt>
<trkpt lat="29.67827" lon="96.722607">
<time>2016-10-07T21:37:51Z</time></trkpt>
<trkpt lat="29.67803" lon="96.722487">
<time>2016-10-07T21:37:52Z</time></trkpt>
<trkpt lat="29.67792" lon="96.722407">
<time>2016-10-07T21:37:53Z</time></trkpt>
<trkpt lat="29.67777" lon="96.722307">
<time>2016-10-07T21:37:54Z</time></trkpt>
<trkpt lat="29.67766" lon="96.722217">
<time>2016-10-07T21:37:55Z</time></trkpt>
<trkpt lat="29.677511" lon="96.722078">
<time>2016-10-07T21:37:56Z</time></trkpt>
<trkpt lat="29.677391" lon="96.721968">
<time>2016-10-07T21:37:57Z</time></trkpt>
<trkpt lat="29.677151" lon="96.721748">
<time>2016-10-07T21:37:58Z</time></trkpt>
<trkpt lat="29.676921" lon="96.721528">
<time>2016-10-07T21:37:59Z</time></trkpt>
<trkpt lat="29.676841" lon="96.721458">
<time>2016-10-07T21:38:00Z</time></trkpt>
<trkpt lat="29.676731" lon="96.721368">
<time>2016-10-07T21:38:01Z</time></trkpt>
<trkpt lat="29.676622" lon="96.721299">
<time>2016-10-07T21:38:02Z</time></trkpt>
<trkpt lat="29.676522" lon="96.721239">
<time>2016-10-07T21:38:03Z</time></trkpt>
<trkpt lat="29.676272" lon="96.721099">
<time>2016-10-07T21:38:04Z</time></trkpt>
<trkpt lat="29.676142" lon="96.721019">
<time>2016-10-07T21:38:05Z</time></trkpt>
<trkpt lat="29.676062" lon="96.720979">
<time>2016-10-07T21:38:06Z</time></trkpt>
<trkpt lat="29.675952" lon="96.720899">
<time>2016-10-07T21:38:07Z</time></trkpt>
<trkpt lat="29.675862" lon="96.720829">
<time>2016-10-07T21:38:08Z</time></trkpt>
<trkpt lat="29.675792" lon="96.720749">
<time>2016-10-07T21:38:09Z</time></trkpt>
<trkpt lat="29.675732" lon="96.720679">
<time>2016-10-07T21:38:10Z</time></trkpt>
<trkpt lat="29.675593" lon="96.72049">
<time>2016-10-07T21:38:11Z</time></trkpt>
<trkpt lat="29.675423" lon="96.72024">
<time>2016-10-07T21:38:12Z</time></trkpt>
<trkpt lat="29.675323" lon="96.72009">
<time>2016-10-07T21:38:13Z</time></trkpt>
<trkpt lat="29.675263" lon="96.72002">
<time>2016-10-07T21:38:14Z</time></trkpt>
<trkpt lat="29.675193" lon="96.71994">
<time>2016-10-07T21:38:15Z</time></trkpt>
<trkpt lat="29.675143" lon="96.7199">
<time>2016-10-07T21:38:16Z</time></trkpt>
<trkpt lat="29.675093" lon="96.71986">
<time>2016-10-07T21:38:17Z</time></trkpt>
<trkpt lat="29.675043" lon="96.71983">
<time>2016-10-07T21:38:18Z</time></trkpt>
<trkpt lat="29.674974" lon="96.7198">
<time>2016-10-07T21:38:19Z</time></trkpt>
<trkpt lat="29.674894" lon="96.71977">
<time>2016-10-07T21:38:20Z</time></trkpt>
<trkpt lat="29.674754" lon="96.71974">
<time>2016-10-07T21:38:21Z</time></trkpt>
<trkpt lat="29.674494" lon="96.719691">
<time>2016-10-07T21:38:22Z</time></trkpt>
<trkpt lat="29.674384" lon="96.719661">
<time>2016-10-07T21:38:23Z</time></trkpt>
<trkpt lat="29.674294" lon="96.719631">
<time>2016-10-07T21:38:24Z</time></trkpt>
<trkpt lat="29.674194" lon="96.719601">
<time>2016-10-07T21:38:25Z</time></trkpt>
<trkpt lat="29.673924" lon="96.719501">
<time>2016-10-07T21:38:26Z</time></trkpt>
<trkpt lat="29.673854" lon="96.719471">
<time>2016-10-07T21:38:27Z</time></trkpt>
<trkpt lat="29.673774" lon="96.719451">
<time>2016-10-07T21:38:28Z</time></trkpt>
<trkpt lat="29.673714" lon="96.719431">
<time>2016-10-07T21:38:29Z</time></trkpt>
<trkpt lat="29.673664" lon="96.719421">
<time>2016-10-07T21:38:30Z</time></trkpt>
<trkpt lat="29.673614" lon="96.719421">
<time>2016-10-07T21:38:31Z</time></trkpt>
<trkpt lat="29.673534" lon="96.719421">
<time>2016-10-07T21:38:32Z</time></trkpt>
<trkpt lat="29.673414" lon="96.719441">
<time>2016-10-07T21:38:33Z</time></trkpt>
<trkpt lat="29.673274" lon="96.719481">
<time>2016-10-07T21:38:34Z</time></trkpt>
<trkpt lat="29.673024" lon="96.719541">
<time>2016-10-07T21:38:35Z</time></trkpt>
<trkpt lat="29.672804" lon="96.719591">
<time>2016-10-07T21:38:36Z</time></trkpt>
<trkpt lat="29.672564" lon="96.719641">
<time>2016-10-07T21:38:37Z</time></trkpt>
<trkpt lat="29.672504" lon="96.719651">
<time>2016-10-07T21:38:38Z</time></trkpt>
<trkpt lat="29.672394" lon="96.719651">
<time>2016-10-07T21:38:39Z</time></trkpt>
<trkpt lat="29.672344" lon="96.719651">
<time>2016-10-07T21:38:40Z</time></trkpt>
<trkpt lat="29.672284" lon="96.719651">
<time>2016-10-07T21:38:41Z</time></trkpt>
<trkpt lat="29.672204" lon="96.719631">
<time>2016-10-07T21:38:42Z</time></trkpt>
<trkpt lat="29.672124" lon="96.719601">
<time>2016-10-07T21:38:43Z</time></trkpt>
<trkpt lat="29.672054" lon="96.719571">
<time>2016-10-07T21:38:44Z</time></trkpt>
<trkpt lat="29.671974" lon="96.719531">
<time>2016-10-07T21:38:45Z</time></trkpt>
<trkpt lat="29.671845" lon="96.719451">
<time>2016-10-07T21:38:46Z</time></trkpt>
<trkpt lat="29.671745" lon="96.719381">
<time>2016-10-07T21:38:47Z</time></trkpt>
<trkpt lat="29.671495" lon="96.719191">
<time>2016-10-07T21:38:48Z</time></trkpt>
<trkpt lat="29.671195" lon="96.718962">
<time>2016-10-07T21:38:49Z</time></trkpt>
<trkpt lat="29.671045" lon="96.718862">
<time>2016-10-07T21:38:50Z</time></trkpt>
<trkpt lat="29.670846" lon="96.718722">
<time>2016-10-07T21:38:51Z</time></trkpt>
<trkpt lat="29.670776" lon="96.718672">
<time>2016-10-07T21:38:52Z</time></trkpt>
<trkpt lat="29.670686" lon="96.718622">
<time>2016-10-07T21:38:53Z</time></trkpt>
<trkpt lat="29.670606" lon="96.718582">
<time>2016-10-07T21:38:54Z</time></trkpt>
<trkpt lat="29.670506" lon="96.718552">
<time>2016-10-07T21:38:55Z</time></trkpt>
<trkpt lat="29.670416" lon="96.718512">
<time>2016-10-07T21:38:56Z</time></trkpt>
<trkpt lat="29.670326" lon="96.718482">
<time>2016-10-07T21:38:57Z</time></trkpt>
<trkpt lat="29.670076" lon="96.718412">
<time>2016-10-07T21:38:58Z</time></trkpt>
<trkpt lat="29.669886" lon="96.718362">
<time>2016-10-07T21:38:59Z</time></trkpt>
<trkpt lat="29.669616" lon="96.718292">
<time>2016-10-07T21:39:00Z</time></trkpt>
<trkpt lat="29.669357" lon="96.718213">
<time>2016-10-07T21:39:01Z</time></trkpt>
<trkpt lat="29.668977" lon="96.718113">
<time>2016-10-07T21:39:02Z</time></trkpt>
<trkpt lat="29.668677" lon="96.718033">
<time>2016-10-07T21:39:03Z</time></trkpt>
<trkpt lat="29.668327" lon="96.717943">
<time>2016-10-07T21:39:04Z</time></trkpt>
<trkpt lat="29.668007" lon="96.717843">
<time>2016-10-07T21:39:05Z</time></trkpt>
<trkpt lat="29.667737" lon="96.717773">
<time>2016-10-07T21:39:06Z</time></trkpt>
<trkpt lat="29.667577" lon="96.717733">
<time>2016-10-07T21:39:07Z</time></trkpt>
<trkpt lat="29.667338" lon="96.717663">
<time>2016-10-07T21:39:08Z</time></trkpt>
<trkpt lat="29.667118" lon="96.717603">
<time>2016-10-07T21:39:09Z</time></trkpt>
<trkpt lat="29.666778" lon="96.717514">
<time>2016-10-07T21:39:10Z</time></trkpt>
<trkpt lat="29.666718" lon="96.717494">
<time>2016-10-07T21:39:11Z</time></trkpt>
<trkpt lat="29.666488" lon="96.717434">
<time>2016-10-07T21:39:12Z</time></trkpt>
<trkpt lat="29.666258" lon="96.717364">
<time>2016-10-07T21:39:13Z</time></trkpt>
<trkpt lat="29.665948" lon="96.717284">
<time>2016-10-07T21:39:14Z</time></trkpt>
<trkpt lat="29.665609" lon="96.717184">
<time>2016-10-07T21:39:15Z</time></trkpt>
<trkpt lat="29.665389" lon="96.717124">
<time>2016-10-07T21:39:16Z</time></trkpt>
<trkpt lat="29.665229" lon="96.717084">
<time>2016-10-07T21:39:17Z</time></trkpt>
<trkpt lat="29.664929" lon="96.716994">
<time>2016-10-07T21:39:18Z</time></trkpt>
<trkpt lat="29.664659" lon="96.716924">
<time>2016-10-07T21:39:19Z</time></trkpt>
<trkpt lat="29.664349" lon="96.716834">
<time>2016-10-07T21:39:20Z</time></trkpt>
<trkpt lat="29.664039" lon="96.716755">
<time>2016-10-07T21:39:21Z</time></trkpt>
<trkpt lat="29.66369" lon="96.716655">
<time>2016-10-07T21:39:22Z</time></trkpt>
<trkpt lat="29.66338" lon="96.716575">
<time>2016-10-07T21:39:23Z</time></trkpt>
<trkpt lat="29.66302" lon="96.716475">
<time>2016-10-07T21:39:24Z</time></trkpt>
<trkpt lat="29.66263" lon="96.716365">
<time>2016-10-07T21:39:25Z</time></trkpt>
<trkpt lat="29.66225" lon="96.716265">
<time>2016-10-07T21:39:26Z</time></trkpt>
<trkpt lat="29.661881" lon="96.716165">
<time>2016-10-07T21:39:27Z</time></trkpt>
<trkpt lat="29.661461" lon="96.716036">
<time>2016-10-07T21:39:28Z</time></trkpt>
<trkpt lat="29.661131" lon="96.715956">
<time>2016-10-07T21:39:29Z</time></trkpt>
<trkpt lat="29.660821" lon="96.715876">
<time>2016-10-07T21:39:30Z</time></trkpt>
<trkpt lat="29.660441" lon="96.715766">
<time>2016-10-07T21:39:31Z</time></trkpt>
<trkpt lat="29.660102" lon="96.715666">
<time>2016-10-07T21:39:32Z</time></trkpt>
<trkpt lat="29.659632" lon="96.715546">
<time>2016-10-07T21:39:33Z</time></trkpt>
<trkpt lat="29.659182" lon="96.715417">
<time>2016-10-07T21:39:34Z</time></trkpt>
<trkpt lat="29.658862" lon="96.715327">
<time>2016-10-07T21:39:35Z</time></trkpt>
<trkpt lat="29.658592" lon="96.715257">
<time>2016-10-07T21:39:36Z</time></trkpt>
<trkpt lat="29.658353" lon="96.715177">
<time>2016-10-07T21:39:37Z</time></trkpt>
<trkpt lat="29.658253" lon="96.715157">
<time>2016-10-07T21:39:38Z</time></trkpt>
<trkpt lat="29.658133" lon="96.715137">
<time>2016-10-07T21:39:39Z</time></trkpt>
<trkpt lat="29.658023" lon="96.715117">
<time>2016-10-07T21:39:40Z</time></trkpt>
<trkpt lat="29.657793" lon="96.715097">
<time>2016-10-07T21:39:41Z</time></trkpt>
<trkpt lat="29.657673" lon="96.715097">
<time>2016-10-07T21:39:42Z</time></trkpt>
<trkpt lat="29.657553" lon="96.715097">
<time>2016-10-07T21:39:43Z</time></trkpt>
<trkpt lat="29.657423" lon="96.715107">
<time>2016-10-07T21:39:44Z</time></trkpt>
<trkpt lat="29.657103" lon="96.715157">
<time>2016-10-07T21:39:45Z</time></trkpt>
<trkpt lat="29.656863" lon="96.715197">
<time>2016-10-07T21:39:46Z</time></trkpt>
<trkpt lat="29.656673" lon="96.715227">
<time>2016-10-07T21:39:47Z</time></trkpt>
<trkpt lat="29.656553" lon="96.715267">
<time>2016-10-07T21:39:48Z</time></trkpt>
<trkpt lat="29.656463" lon="96.715297">
<time>2016-10-07T21:39:49Z</time></trkpt>
<trkpt lat="29.656253" lon="96.715387">
<time>2016-10-07T21:39:50Z</time></trkpt>
<trkpt lat="29.655943" lon="96.715516">
<time>2016-10-07T21:39:51Z</time></trkpt>
<trkpt lat="29.655693" lon="96.715616">
<time>2016-10-07T21:39:52Z</time></trkpt>
<trkpt lat="29.655373" lon="96.715746">
<time>2016-10-07T21:39:53Z</time></trkpt>
<trkpt lat="29.655083" lon="96.715846">
<time>2016-10-07T21:39:54Z</time></trkpt>
<trkpt lat="29.654842" lon="96.715946">
<time>2016-10-07T21:39:55Z</time></trkpt>
<trkpt lat="29.654512" lon="96.716076">
<time>2016-10-07T21:39:56Z</time></trkpt>
<trkpt lat="29.654172" lon="96.716206">
<time>2016-10-07T21:39:57Z</time></trkpt>
<trkpt lat="29.653842" lon="96.716335">
<time>2016-10-07T21:39:58Z</time></trkpt>
<trkpt lat="29.653352" lon="96.716525">
<time>2016-10-07T21:39:59Z</time></trkpt>
<trkpt lat="29.652852" lon="96.716715">
<time>2016-10-07T21:40:00Z</time></trkpt>
<trkpt lat="29.652532" lon="96.716845">
<time>2016-10-07T21:40:01Z</time></trkpt>
<trkpt lat="29.652162" lon="96.716984">
<time>2016-10-07T21:40:02Z</time></trkpt>
<trkpt lat="29.651712" lon="96.717154">
<time>2016-10-07T21:40:03Z</time></trkpt>
<trkpt lat="29.651342" lon="96.717294">
<time>2016-10-07T21:40:04Z</time></trkpt>
<trkpt lat="29.651092" lon="96.717374">
<time>2016-10-07T21:40:05Z</time></trkpt>
<trkpt lat="29.650762" lon="96.717474">
<time>2016-10-07T21:40:06Z</time></trkpt>
<trkpt lat="29.650422" lon="96.717554">
<time>2016-10-07T21:40:07Z</time></trkpt>
<trkpt lat="29.649972" lon="96.717674">
<time>2016-10-07T21:40:08Z</time></trkpt>
<trkpt lat="29.649682" lon="96.717753">
<time>2016-10-07T21:40:09Z</time></trkpt>
<trkpt lat="29.649122" lon="96.717903">
<time>2016-10-07T21:40:10Z</time></trkpt>
<trkpt lat="29.648712" lon="96.718013">
<time>2016-10-07T21:40:11Z</time></trkpt>
<trkpt lat="29.648091" lon="96.718183">
<time>2016-10-07T21:40:12Z</time></trkpt>
<trkpt lat="29.647361" lon="96.718373">
<time>2016-10-07T21:40:13Z</time></trkpt>
<trkpt lat="29.646681" lon="96.718552">
<time>2016-10-07T21:40:14Z</time></trkpt>
<trkpt lat="29.646151" lon="96.718692">
<time>2016-10-07T21:40:15Z</time></trkpt>
<trkpt lat="29.645751" lon="96.718802">
<time>2016-10-07T21:40:16Z</time></trkpt>
<trkpt lat="29.645141" lon="96.718962">
<time>2016-10-07T21:40:17Z</time></trkpt>
<trkpt lat="29.644751" lon="96.719072">
<time>2016-10-07T21:40:18Z</time></trkpt>
<trkpt lat="29.644091" lon="96.719242">
<time>2016-10-07T21:40:19Z</time></trkpt>
<trkpt lat="29.643701" lon="96.719351">
<time>2016-10-07T21:40:20Z</time></trkpt>
<trkpt lat="29.643321" lon="96.719451">
<time>2016-10-07T21:40:21Z</time></trkpt>
<trkpt lat="29.642861" lon="96.719571">
<time>2016-10-07T21:40:22Z</time></trkpt>
<trkpt lat="29.642461" lon="96.719681">
<time>2016-10-07T21:40:23Z</time></trkpt>
<trkpt lat="29.642171" lon="96.719761">
<time>2016-10-07T21:40:24Z</time></trkpt>
<trkpt lat="29.641911" lon="96.719831">
<time>2016-10-07T21:40:25Z</time></trkpt>
<trkpt lat="29.641411" lon="96.719961">
<time>2016-10-07T21:40:26Z</time></trkpt>
<trkpt lat="29.641081" lon="96.720041">
<time>2016-10-07T21:40:27Z</time></trkpt>
<trkpt lat="29.640711" lon="96.72014">
<time>2016-10-07T21:40:28Z</time></trkpt>
<trkpt lat="29.640461" lon="96.7202">
<time>2016-10-07T21:40:29Z</time></trkpt>
<trkpt lat="29.639981" lon="96.72034">
<time>2016-10-07T21:40:30Z</time></trkpt>
<trkpt lat="29.639241" lon="96.72054">
<time>2016-10-07T21:40:31Z</time></trkpt>
<trkpt lat="29.638651" lon="96.72069">
<time>2016-10-07T21:40:32Z</time></trkpt>
<trkpt lat="29.638211" lon="96.72081">
<time>2016-10-07T21:40:33Z</time></trkpt>
<trkpt lat="29.637691" lon="96.72095">
<time>2016-10-07T21:40:34Z</time></trkpt>
<trkpt lat="29.636931" lon="96.721149">
<time>2016-10-07T21:40:35Z</time></trkpt>
<trkpt lat="29.636181" lon="96.721349">
<time>2016-10-07T21:40:36Z</time></trkpt>
<trkpt lat="29.635731" lon="96.721479">
<time>2016-10-07T21:40:37Z</time></trkpt>
<trkpt lat="29.635261" lon="96.721599">
<time>2016-10-07T21:40:38Z</time></trkpt>
<trkpt lat="29.634931" lon="96.721689">
<time>2016-10-07T21:40:39Z</time></trkpt>
<trkpt lat="29.634411" lon="96.721819">
<time>2016-10-07T21:40:40Z</time></trkpt>
<trkpt lat="29.634011" lon="96.721928">
<time>2016-10-07T21:40:41Z</time></trkpt>
<trkpt lat="29.633641" lon="96.722028">
<time>2016-10-07T21:40:42Z</time></trkpt>
<trkpt lat="29.633231" lon="96.722138">
<time>2016-10-07T21:40:43Z</time></trkpt>
<trkpt lat="29.632761" lon="96.722268">
<time>2016-10-07T21:40:44Z</time></trkpt>
<trkpt lat="29.632491" lon="96.722348">
<time>2016-10-07T21:40:45Z</time></trkpt>
<trkpt lat="29.632141" lon="96.722428">
<time>2016-10-07T21:40:46Z</time></trkpt>
<trkpt lat="29.631711" lon="96.722548">
<time>2016-10-07T21:40:47Z</time></trkpt>
<trkpt lat="29.631141" lon="96.722698">
<time>2016-10-07T21:40:48Z</time></trkpt>
<trkpt lat="29.630761" lon="96.722797">
<time>2016-10-07T21:40:49Z</time></trkpt>
<trkpt lat="29.630331" lon="96.722917">
<time>2016-10-07T21:40:50Z</time></trkpt>
<trkpt lat="29.629781" lon="96.723057">
<time>2016-10-07T21:40:51Z</time></trkpt>
<trkpt lat="29.629241" lon="96.723207">
<time>2016-10-07T21:40:52Z</time></trkpt>
<trkpt lat="29.628931" lon="96.723287">
<time>2016-10-07T21:40:53Z</time></trkpt>
<trkpt lat="29.628511" lon="96.723397">
<time>2016-10-07T21:40:54Z</time></trkpt>
<trkpt lat="29.627991" lon="96.723537">
<time>2016-10-07T21:40:55Z</time></trkpt>
<trkpt lat="29.627451" lon="96.723686">
<time>2016-10-07T21:40:56Z</time></trkpt>
<trkpt lat="29.626891" lon="96.723826">
<time>2016-10-07T21:40:57Z</time></trkpt>
<trkpt lat="29.626461" lon="96.723946">
<time>2016-10-07T21:40:58Z</time></trkpt>
<trkpt lat="29.625981" lon="96.724076">
<time>2016-10-07T21:40:59Z</time></trkpt>
<trkpt lat="29.625481" lon="96.724206">
<time>2016-10-07T21:41:00Z</time></trkpt>
<trkpt lat="29.624931" lon="96.724356">
<time>2016-10-07T21:41:01Z</time></trkpt>
<trkpt lat="29.624521" lon="96.724456">
<time>2016-10-07T21:41:02Z</time></trkpt>
<trkpt lat="29.623911" lon="96.724625">
<time>2016-10-07T21:41:03Z</time></trkpt>
<trkpt lat="29.623601" lon="96.724705">
<time>2016-10-07T21:41:04Z</time></trkpt>
<trkpt lat="29.622881" lon="96.724905">
<time>2016-10-07T21:41:05Z</time></trkpt>
<trkpt lat="29.622581" lon="96.724975">
<time>2016-10-07T21:41:06Z</time></trkpt>
<trkpt lat="29.622211" lon="96.725075">
<time>2016-10-07T21:41:07Z</time></trkpt>
<trkpt lat="29.621831" lon="96.725175">
<time>2016-10-07T21:41:08Z</time></trkpt>
<trkpt lat="29.621541" lon="96.725255">
<time>2016-10-07T21:41:09Z</time></trkpt>
<trkpt lat="29.621271" lon="96.725335">
<time>2016-10-07T21:41:10Z</time></trkpt>
<trkpt lat="29.620871" lon="96.725435">
<time>2016-10-07T21:41:11Z</time></trkpt>
<trkpt lat="29.620491" lon="96.725535">
<time>2016-10-07T21:41:12Z</time></trkpt>
<trkpt lat="29.620151" lon="96.725634">
<time>2016-10-07T21:41:13Z</time></trkpt>
<trkpt lat="29.619871" lon="96.725724">
<time>2016-10-07T21:41:14Z</time></trkpt>
<trkpt lat="29.619641" lon="96.725814">
<time>2016-10-07T21:41:15Z</time></trkpt>
<trkpt lat="29.619181" lon="96.725994">
<time>2016-10-07T21:41:16Z</time></trkpt>
<trkpt lat="29.618941" lon="96.726084">
<time>2016-10-07T21:41:17Z</time></trkpt>
<trkpt lat="29.618731" lon="96.726174">
<time>2016-10-07T21:41:18Z</time></trkpt>
<trkpt lat="29.618521" lon="96.726274">
<time>2016-10-07T21:41:19Z</time></trkpt>
<trkpt lat="29.618301" lon="96.726384">
<time>2016-10-07T21:41:20Z</time></trkpt>
<trkpt lat="29.618051" lon="96.726524">
<time>2016-10-07T21:41:21Z</time></trkpt>
<trkpt lat="29.617811" lon="96.726663">
<time>2016-10-07T21:41:22Z</time></trkpt>
<trkpt lat="29.617601" lon="96.726793">
<time>2016-10-07T21:41:23Z</time></trkpt>
<trkpt lat="29.617361" lon="96.726963">
<time>2016-10-07T21:41:24Z</time></trkpt>
<trkpt lat="29.617031" lon="96.727213">
<time>2016-10-07T21:41:25Z</time></trkpt>
<trkpt lat="29.616551" lon="96.727563">
<time>2016-10-07T21:41:26Z</time></trkpt>
<trkpt lat="29.61614" lon="96.727872">
<time>2016-10-07T21:41:27Z</time></trkpt>
<trkpt lat="29.61571" lon="96.728192">
<time>2016-10-07T21:41:28Z</time></trkpt>
<trkpt lat="29.61544" lon="96.728402">
<time>2016-10-07T21:41:29Z</time></trkpt>
<trkpt lat="29.61523" lon="96.728562">
<time>2016-10-07T21:41:30Z</time></trkpt>
<trkpt lat="29.61453" lon="96.729081">
<time>2016-10-07T21:41:31Z</time></trkpt>
<trkpt lat="29.61368" lon="96.729721">
<time>2016-10-07T21:41:32Z</time></trkpt>
<trkpt lat="29.612939" lon="96.73028">
<time>2016-10-07T21:41:33Z</time></trkpt>
<trkpt lat="29.612569" lon="96.73059">
<time>2016-10-07T21:41:34Z</time></trkpt>
<trkpt lat="29.612459" lon="96.73068">
<time>2016-10-07T21:41:35Z</time></trkpt>
<trkpt lat="29.612239" lon="96.73084">
<time>2016-10-07T21:41:36Z</time></trkpt>
<trkpt lat="29.611759" lon="96.731129">
<time>2016-10-07T21:41:37Z</time></trkpt>
<trkpt lat="29.611489" lon="96.731299">
<time>2016-10-07T21:41:38Z</time></trkpt>
<trkpt lat="29.611219" lon="96.731449">
<time>2016-10-07T21:41:39Z</time></trkpt>
<trkpt lat="29.610989" lon="96.731559">
<time>2016-10-07T21:41:40Z</time></trkpt>
<trkpt lat="29.610519" lon="96.731749">
<time>2016-10-07T21:41:41Z</time></trkpt>
<trkpt lat="29.610199" lon="96.731869">
<time>2016-10-07T21:41:42Z</time></trkpt>
<trkpt lat="29.610009" lon="96.731929">
<time>2016-10-07T21:41:43Z</time></trkpt>
<trkpt lat="29.609689" lon="96.732009">
<time>2016-10-07T21:41:44Z</time></trkpt>
<trkpt lat="29.609349" lon="96.732089">
<time>2016-10-07T21:41:45Z</time></trkpt>
<trkpt lat="29.609049" lon="96.732169">
<time>2016-10-07T21:41:46Z</time></trkpt>
<trkpt lat="29.608849" lon="96.732228">
<time>2016-10-07T21:41:47Z</time></trkpt>
<trkpt lat="29.608709" lon="96.732298">
<time>2016-10-07T21:41:48Z</time></trkpt>
<trkpt lat="29.608539" lon="96.732398">
<time>2016-10-07T21:41:49Z</time></trkpt>
<trkpt lat="29.608369" lon="96.732528">
<time>2016-10-07T21:41:50Z</time></trkpt>
<trkpt lat="29.608039" lon="96.732778">
<time>2016-10-07T21:41:51Z</time></trkpt>
<trkpt lat="29.607659" lon="96.733058">
<time>2016-10-07T21:41:52Z</time></trkpt>
<trkpt lat="29.607469" lon="96.733198">
<time>2016-10-07T21:41:53Z</time></trkpt>
<trkpt lat="29.607039" lon="96.733478">
<time>2016-10-07T21:41:54Z</time></trkpt>
<trkpt lat="29.606609" lon="96.733707">
<time>2016-10-07T21:41:55Z</time></trkpt>
<trkpt lat="29.606149" lon="96.733927">
<time>2016-10-07T21:41:56Z</time></trkpt>
<trkpt lat="29.605819" lon="96.734107">
<time>2016-10-07T21:41:57Z</time></trkpt>
<trkpt lat="29.605529" lon="96.734287">
<time>2016-10-07T21:41:58Z</time></trkpt>
<trkpt lat="29.605359" lon="96.734367">
<time>2016-10-07T21:41:59Z</time></trkpt>
<trkpt lat="29.605159" lon="96.734447">
<time>2016-10-07T21:42:00Z</time></trkpt>
<trkpt lat="29.604909" lon="96.734507">
<time>2016-10-07T21:42:01Z</time></trkpt>
<trkpt lat="29.604689" lon="96.734547">
<time>2016-10-07T21:42:02Z</time></trkpt>
<trkpt lat="29.604459" lon="96.734557">
<time>2016-10-07T21:42:03Z</time></trkpt>
<trkpt lat="29.604119" lon="96.734557">
<time>2016-10-07T21:42:04Z</time></trkpt>
<trkpt lat="29.603929" lon="96.734557">
<time>2016-10-07T21:42:05Z</time></trkpt>
<trkpt lat="29.603729" lon="96.734597">
<time>2016-10-07T21:42:06Z</time></trkpt>
<trkpt lat="29.603559" lon="96.734657">
<time>2016-10-07T21:42:07Z</time></trkpt>
<trkpt lat="29.603349" lon="96.734757">
<time>2016-10-07T21:42:08Z</time></trkpt>
<trkpt lat="29.603059" lon="96.734937">
<time>2016-10-07T21:42:09Z</time></trkpt>
<trkpt lat="29.602839" lon="96.735096">
<time>2016-10-07T21:42:10Z</time></trkpt>
<trkpt lat="29.602609" lon="96.735306">
<time>2016-10-07T21:42:11Z</time></trkpt>
<trkpt lat="29.602329" lon="96.735606">
<time>2016-10-07T21:42:12Z</time></trkpt>
<trkpt lat="29.601989" lon="96.736016">
<time>2016-10-07T21:42:13Z</time></trkpt>
<trkpt lat="29.601569" lon="96.736525">
<time>2016-10-07T21:42:14Z</time></trkpt>
<trkpt lat="29.601439" lon="96.736665">
<time>2016-10-07T21:42:15Z</time></trkpt>
<trkpt lat="29.601319" lon="96.736775">
<time>2016-10-07T21:42:16Z</time></trkpt>
<trkpt lat="29.601229" lon="96.736855">
<time>2016-10-07T21:42:17Z</time></trkpt>
<trkpt lat="29.601079" lon="96.736945">
<time>2016-10-07T21:42:18Z</time></trkpt>
<trkpt lat="29.600899" lon="96.737025">
<time>2016-10-07T21:42:19Z</time></trkpt>
<trkpt lat="29.600739" lon="96.737085">
<time>2016-10-07T21:42:20Z</time></trkpt>
<trkpt lat="29.600389" lon="96.737185">
<time>2016-10-07T21:42:21Z</time></trkpt>
<trkpt lat="29.600189" lon="96.737275">
<time>2016-10-07T21:42:22Z</time></trkpt>
<trkpt lat="29.600019" lon="96.737375">
<time>2016-10-07T21:42:23Z</time></trkpt>
<trkpt lat="29.599659" lon="96.737615">
<time>2016-10-07T21:42:24Z</time></trkpt>
<trkpt lat="29.599249" lon="96.737885">
<time>2016-10-07T21:42:25Z</time></trkpt>
<trkpt lat="29.598829" lon="96.738145">
<time>2016-10-07T21:42:26Z</time></trkpt>
<trkpt lat="29.598669" lon="96.738235">
<time>2016-10-07T21:42:27Z</time></trkpt>
<trkpt lat="29.598499" lon="96.738304">
<time>2016-10-07T21:42:28Z</time></trkpt>
<trkpt lat="29.598279" lon="96.738404">
<time>2016-10-07T21:42:29Z</time></trkpt>
<trkpt lat="29.597919" lon="96.738534">
<time>2016-10-07T21:42:30Z</time></trkpt>
<trkpt lat="29.597609" lon="96.738664">
<time>2016-10-07T21:42:31Z</time></trkpt>
<trkpt lat="29.597409" lon="96.738754">
<time>2016-10-07T21:42:32Z</time></trkpt>
<trkpt lat="29.597129" lon="96.738904">
<time>2016-10-07T21:42:33Z</time></trkpt>
<trkpt lat="29.596769" lon="96.739104">
<time>2016-10-07T21:42:34Z</time></trkpt>
<trkpt lat="29.596329" lon="96.739344">
<time>2016-10-07T21:42:35Z</time></trkpt>
<trkpt lat="29.596079" lon="96.739474">
<time>2016-10-07T21:42:36Z</time></trkpt>
<trkpt lat="29.595739" lon="96.739664">
<time>2016-10-07T21:42:37Z</time></trkpt>
<trkpt lat="29.595329" lon="96.739894">
<time>2016-10-07T21:42:38Z</time></trkpt>
<trkpt lat="29.595069" lon="96.740024">
<time>2016-10-07T21:42:39Z</time></trkpt>
<trkpt lat="29.594879" lon="96.740104">
<time>2016-10-07T21:42:40Z</time></trkpt>
<trkpt lat="29.594649" lon="96.740204">
<time>2016-10-07T21:42:41Z</time></trkpt>
<trkpt lat="29.594279" lon="96.740363">
<time>2016-10-07T21:42:42Z</time></trkpt>
<trkpt lat="29.593779" lon="96.740583">
<time>2016-10-07T21:42:43Z</time></trkpt>
<trkpt lat="29.59339" lon="96.740753">
<time>2016-10-07T21:42:44Z</time></trkpt>
<trkpt lat="29.59318" lon="96.740843">
<time>2016-10-07T21:42:45Z</time></trkpt>
<trkpt lat="29.59305" lon="96.740903">
<time>2016-10-07T21:42:46Z</time></trkpt>
<trkpt lat="29.59297" lon="96.740953">
<time>2016-10-07T21:42:47Z</time></trkpt>
<trkpt lat="29.59289" lon="96.741013">
<time>2016-10-07T21:42:48Z</time></trkpt>
<trkpt lat="29.59281" lon="96.741083">
<time>2016-10-07T21:42:49Z</time></trkpt>
<trkpt lat="29.59272" lon="96.741183">
<time>2016-10-07T21:42:50Z</time></trkpt>
<trkpt lat="29.59262" lon="96.741303">
<time>2016-10-07T21:42:51Z</time></trkpt>
<trkpt lat="29.59237" lon="96.741623">
<time>2016-10-07T21:42:52Z</time></trkpt>
<trkpt lat="29.59217" lon="96.741863">
<time>2016-10-07T21:42:53Z</time></trkpt>
<trkpt lat="29.59201" lon="96.742013">
<time>2016-10-07T21:42:54Z</time></trkpt>
<trkpt lat="29.59188" lon="96.742143">
<time>2016-10-07T21:42:55Z</time></trkpt>
<trkpt lat="29.59175" lon="96.742243">
<time>2016-10-07T21:42:56Z</time></trkpt>
<trkpt lat="29.5916" lon="96.742363">
<time>2016-10-07T21:42:57Z</time></trkpt>
<trkpt lat="29.5914" lon="96.742503">
<time>2016-10-07T21:42:58Z</time></trkpt>
<trkpt lat="29.59118" lon="96.742643">
<time>2016-10-07T21:42:59Z</time></trkpt>
<trkpt lat="29.59093" lon="96.742793">
<time>2016-10-07T21:43:00Z</time></trkpt>
<trkpt lat="29.59068" lon="96.742932">
<time>2016-10-07T21:43:01Z</time></trkpt>
<trkpt lat="29.59039" lon="96.743102">
<time>2016-10-07T21:43:02Z</time></trkpt>
<trkpt lat="29.58996" lon="96.743362">
<time>2016-10-07T21:43:03Z</time></trkpt>
<trkpt lat="29.58964" lon="96.743552">
<time>2016-10-07T21:43:04Z</time></trkpt>
<trkpt lat="29.58938" lon="96.743692">
<time>2016-10-07T21:43:05Z</time></trkpt>
<trkpt lat="29.58913" lon="96.743822">
<time>2016-10-07T21:43:06Z</time></trkpt>
<trkpt lat="29.58898" lon="96.743892">
<time>2016-10-07T21:43:07Z</time></trkpt>
<trkpt lat="29.58864" lon="96.744072">
<time>2016-10-07T21:43:08Z</time></trkpt>
<trkpt lat="29.58852" lon="96.744132">
<time>2016-10-07T21:43:09Z</time></trkpt>
<trkpt lat="29.58839" lon="96.744202">
<time>2016-10-07T21:43:10Z</time></trkpt>
<trkpt lat="29.58826" lon="96.744302">
<time>2016-10-07T21:43:11Z</time></trkpt>
<trkpt lat="29.58813" lon="96.744402">
<time>2016-10-07T21:43:12Z</time></trkpt>
<trkpt lat="29.58798" lon="96.744532">
<time>2016-10-07T21:43:13Z</time></trkpt>
<trkpt lat="29.58774" lon="96.744762">
<time>2016-10-07T21:43:14Z</time></trkpt>
<trkpt lat="29.58756" lon="96.744932">
<time>2016-10-07T21:43:15Z</time></trkpt>
<trkpt lat="29.58744" lon="96.745052">
<time>2016-10-07T21:43:16Z</time></trkpt>
<trkpt lat="29.58735" lon="96.745122">
<time>2016-10-07T21:43:17Z</time></trkpt>
<trkpt lat="29.58728" lon="96.745182">
<time>2016-10-07T21:43:18Z</time></trkpt>
<trkpt lat="29.58709" lon="96.745302">
<time>2016-10-07T21:43:19Z</time></trkpt>
<trkpt lat="29.58684" lon="96.745442">
<time>2016-10-07T21:43:20Z</time></trkpt>
<trkpt lat="29.58643" lon="96.745662">
<time>2016-10-07T21:43:21Z</time></trkpt>
<trkpt lat="29.586061" lon="96.745862">
<time>2016-10-07T21:43:22Z</time></trkpt>
<trkpt lat="29.585671" lon="96.746072">
<time>2016-10-07T21:43:23Z</time></trkpt>
<trkpt lat="29.585321" lon="96.746262">
<time>2016-10-07T21:43:24Z</time></trkpt>
<trkpt lat="29.585071" lon="96.746402">
<time>2016-10-07T21:43:25Z</time></trkpt>
<trkpt lat="29.584811" lon="96.746562">
<time>2016-10-07T21:43:26Z</time></trkpt>
<trkpt lat="29.584621" lon="96.746661">
<time>2016-10-07T21:43:27Z</time></trkpt>
<trkpt lat="29.584511" lon="96.746721">
<time>2016-10-07T21:43:28Z</time></trkpt>
<trkpt lat="29.584371" lon="96.746781">
<time>2016-10-07T21:43:29Z</time></trkpt>
<trkpt lat="29.584171" lon="96.746861">
<time>2016-10-07T21:43:30Z</time></trkpt>
<trkpt lat="29.583971" lon="96.746931">
<time>2016-10-07T21:43:31Z</time></trkpt>
<trkpt lat="29.583691" lon="96.747051">
<time>2016-10-07T21:43:32Z</time></trkpt>
<trkpt lat="29.583551" lon="96.747121">
<time>2016-10-07T21:43:33Z</time></trkpt>
<trkpt lat="29.583381" lon="96.747211">
<time>2016-10-07T21:43:34Z</time></trkpt>
<trkpt lat="29.583191" lon="96.747301">
<time>2016-10-07T21:43:35Z</time></trkpt>
<trkpt lat="29.582991" lon="96.747401">
<time>2016-10-07T21:43:36Z</time></trkpt>
<trkpt lat="29.582771" lon="96.747511">
<time>2016-10-07T21:43:37Z</time></trkpt>
<trkpt lat="29.582601" lon="96.747581">
<time>2016-10-07T21:43:38Z</time></trkpt>
<trkpt lat="29.582511" lon="96.747611">
<time>2016-10-07T21:43:39Z</time></trkpt>
<trkpt lat="29.582421" lon="96.747641">
<time>2016-10-07T21:43:40Z</time></trkpt>
<trkpt lat="29.582291" lon="96.747661">
<time>2016-10-07T21:43:41Z</time></trkpt>
<trkpt lat="29.582182" lon="96.747681">
<time>2016-10-07T21:43:42Z</time></trkpt>
<trkpt lat="29.582062" lon="96.747691">
<time>2016-10-07T21:43:43Z</time></trkpt>
<trkpt lat="29.581852" lon="96.747701">
<time>2016-10-07T21:43:44Z</time></trkpt>
<trkpt lat="29.581642" lon="96.747711">
<time>2016-10-07T21:43:45Z</time></trkpt>
<trkpt lat="29.581132" lon="96.747731">
<time>2016-10-07T21:43:46Z</time></trkpt>
<trkpt lat="29.580962" lon="96.747731">
<time>2016-10-07T21:43:47Z</time></trkpt>
<trkpt lat="29.580852" lon="96.747741">
<time>2016-10-07T21:43:48Z</time></trkpt>
<trkpt lat="29.580782" lon="96.747751">
<time>2016-10-07T21:43:49Z</time></trkpt>
<trkpt lat="29.580702" lon="96.747761">
<time>2016-10-07T21:43:50Z</time></trkpt>
<trkpt lat="29.580622" lon="96.747791">
<time>2016-10-07T21:43:51Z</time></trkpt>
<trkpt lat="29.580552" lon="96.747821">
<time>2016-10-07T21:43:52Z</time></trkpt>
<trkpt lat="29.580452" lon="96.747881">
<time>2016-10-07T21:43:53Z</time></trkpt>
<trkpt lat="29.580382" lon="96.747931">
<time>2016-10-07T21:43:54Z</time></trkpt>
<trkpt lat="29.580312" lon="96.748001">
<time>2016-10-07T21:43:55Z</time></trkpt>
<trkpt lat="29.580202" lon="96.748121">
<time>2016-10-07T21:43:56Z</time></trkpt>
<trkpt lat="29.580062" lon="96.748291">
<time>2016-10-07T21:43:57Z</time></trkpt>
<trkpt lat="29.579812" lon="96.748611">
<time>2016-10-07T21:43:58Z</time></trkpt>
<trkpt lat="29.579712" lon="96.748741">
<time>2016-10-07T21:43:59Z</time></trkpt>
<trkpt lat="29.579642" lon="96.748881">
<time>2016-10-07T21:44:00Z</time></trkpt>
<trkpt lat="29.579572" lon="96.749051">
<time>2016-10-07T21:44:01Z</time></trkpt>
<trkpt lat="29.579522" lon="96.749221">
<time>2016-10-07T21:44:02Z</time></trkpt>
<trkpt lat="29.579432" lon="96.749531">
<time>2016-10-07T21:44:03Z</time></trkpt>
<trkpt lat="29.579282" lon="96.750051">
<time>2016-10-07T21:44:04Z</time></trkpt>
<trkpt lat="29.579122" lon="96.750611">
<time>2016-10-07T21:44:05Z</time></trkpt>
<trkpt lat="29.578972" lon="96.751181">
<time>2016-10-07T21:44:06Z</time></trkpt>
<trkpt lat="29.578733" lon="96.752181">
<time>2016-10-07T21:44:07Z</time></trkpt>
<trkpt lat="29.578663" lon="96.752391">
<time>2016-10-07T21:44:08Z</time></trkpt>
<trkpt lat="29.578593" lon="96.752551">
<time>2016-10-07T21:44:09Z</time></trkpt>
<trkpt lat="29.578533" lon="96.752641">
<time>2016-10-07T21:44:10Z</time></trkpt>
<trkpt lat="29.578443" lon="96.752771">
<time>2016-10-07T21:44:11Z</time></trkpt>
<trkpt lat="29.578353" lon="96.752871">
<time>2016-10-07T21:44:12Z</time></trkpt>
<trkpt lat="29.578253" lon="96.752961">
<time>2016-10-07T21:44:13Z</time></trkpt>
<trkpt lat="29.578113" lon="96.753031">
<time>2016-10-07T21:44:14Z</time></trkpt>
<trkpt lat="29.577953" lon="96.753131">
<time>2016-10-07T21:44:15Z</time></trkpt>
<trkpt lat="29.577653" lon="96.753331">
<time>2016-10-07T21:44:16Z</time></trkpt>
<trkpt lat="29.577513" lon="96.753441">
<time>2016-10-07T21:44:17Z</time></trkpt>
<trkpt lat="29.577393" lon="96.753551">
<time>2016-10-07T21:44:18Z</time></trkpt>
<trkpt lat="29.577253" lon="96.753711">
<time>2016-10-07T21:44:19Z</time></trkpt>
<trkpt lat="29.576983" lon="96.754051">
<time>2016-10-07T21:44:20Z</time></trkpt>
<trkpt lat="29.576883" lon="96.754171">
<time>2016-10-07T21:44:21Z</time></trkpt>
<trkpt lat="29.576803" lon="96.754241">
<time>2016-10-07T21:44:22Z</time></trkpt>
<trkpt lat="29.576744" lon="96.754301">
<time>2016-10-07T21:44:23Z</time></trkpt>
<trkpt lat="29.576664" lon="96.754361">
<time>2016-10-07T21:44:24Z</time></trkpt>
<trkpt lat="29.576504" lon="96.754461">
<time>2016-10-07T21:44:25Z</time></trkpt>
<trkpt lat="29.576384" lon="96.754561">
<time>2016-10-07T21:44:26Z</time></trkpt>
<trkpt lat="29.576314" lon="96.754611">
<time>2016-10-07T21:44:27Z</time></trkpt>
<trkpt lat="29.576244" lon="96.754681">
<time>2016-10-07T21:44:28Z</time></trkpt>
<trkpt lat="29.576154" lon="96.754791">
<time>2016-10-07T21:44:29Z</time></trkpt>
<trkpt lat="29.576024" lon="96.754961">
<time>2016-10-07T21:44:30Z</time></trkpt>
<trkpt lat="29.575714" lon="96.755391">
<time>2016-10-07T21:44:31Z</time></trkpt>
<trkpt lat="29.575414" lon="96.755771">
<time>2016-10-07T21:44:32Z</time></trkpt>
<trkpt lat="29.575134" lon="96.756152">
<time>2016-10-07T21:44:33Z</time></trkpt>
<trkpt lat="29.574585" lon="96.756952">
<time>2016-10-07T21:44:34Z</time></trkpt>
<trkpt lat="29.573486" lon="96.758552">
<time>2016-10-07T21:44:35Z</time></trkpt>
<trkpt lat="29.572457" lon="96.760053">
<time>2016-10-07T21:44:36Z</time></trkpt>
<trkpt lat="29.572307" lon="96.760243">
<time>2016-10-07T21:44:37Z</time></trkpt>
<trkpt lat="29.572207" lon="96.760343">
<time>2016-10-07T21:44:38Z</time></trkpt>
<trkpt lat="29.572137" lon="96.760403">
<time>2016-10-07T21:44:39Z</time></trkpt>
<trkpt lat="29.572047" lon="96.760473">
<time>2016-10-07T21:44:40Z</time></trkpt>
<trkpt lat="29.571917" lon="96.760553">
<time>2016-10-07T21:44:41Z</time></trkpt>
<trkpt lat="29.571777" lon="96.760653">
<time>2016-10-07T21:44:42Z</time></trkpt>
<trkpt lat="29.571467" lon="96.760843">
<time>2016-10-07T21:44:43Z</time></trkpt>
<trkpt lat="29.571337" lon="96.760933">
<time>2016-10-07T21:44:44Z</time></trkpt>
<trkpt lat="29.571277" lon="96.760973">
<time>2016-10-07T21:44:45Z</time></trkpt>
<trkpt lat="29.571197" lon="96.761043">
<time>2016-10-07T21:44:46Z</time></trkpt>
<trkpt lat="29.571127" lon="96.761103">
<time>2016-10-07T21:44:47Z</time></trkpt>
<trkpt lat="29.571067" lon="96.761163">
<time>2016-10-07T21:44:48Z</time></trkpt>
<trkpt lat="29.570997" lon="96.761243">
<time>2016-10-07T21:44:49Z</time></trkpt>
<trkpt lat="29.570908" lon="96.761353">
<time>2016-10-07T21:44:50Z</time></trkpt>
<trkpt lat="29.570838" lon="96.761453">
<time>2016-10-07T21:44:51Z</time></trkpt>
<trkpt lat="29.570688" lon="96.761663">
<time>2016-10-07T21:44:52Z</time></trkpt>
<trkpt lat="29.570398" lon="96.762063">
<time>2016-10-07T21:44:53Z</time></trkpt>
<trkpt lat="29.569889" lon="96.762774">
<time>2016-10-07T21:44:54Z</time></trkpt>
<trkpt lat="29.569759" lon="96.762954">
<time>2016-10-07T21:44:55Z</time></trkpt>
<trkpt lat="29.569639" lon="96.763134">
<time>2016-10-07T21:44:56Z</time></trkpt>
<trkpt lat="29.569569" lon="96.763274">
<time>2016-10-07T21:44:57Z</time></trkpt>
<trkpt lat="29.569249" lon="96.763884">
<time>2016-10-07T21:44:58Z</time></trkpt>
<trkpt lat="29.56898" lon="96.764425">
<time>2016-10-07T21:44:59Z</time></trkpt>
<trkpt lat="29.56887" lon="96.764685">
<time>2016-10-07T21:45:00Z</time></trkpt>
<trkpt lat="29.56878" lon="96.764985">
<time>2016-10-07T21:45:01Z</time></trkpt>
<trkpt lat="29.5687" lon="96.765325">
<time>2016-10-07T21:45:02Z</time></trkpt>
<trkpt lat="29.568441" lon="96.766416">
<time>2016-10-07T21:45:03Z</time></trkpt>
<trkpt lat="29.568381" lon="96.766596">
<time>2016-10-07T21:45:04Z</time></trkpt>
<trkpt lat="29.568321" lon="96.766796">
<time>2016-10-07T21:45:05Z</time></trkpt>
<trkpt lat="29.568211" lon="96.767086">
<time>2016-10-07T21:45:06Z</time></trkpt>
<trkpt lat="29.568112" lon="96.767296">
<time>2016-10-07T21:45:07Z</time></trkpt>
<trkpt lat="29.567952" lon="96.767597">
<time>2016-10-07T21:45:08Z</time></trkpt>
<trkpt lat="29.567792" lon="96.767847">
<time>2016-10-07T21:45:09Z</time></trkpt>
<trkpt lat="29.567592" lon="96.768127">
<time>2016-10-07T21:45:10Z</time></trkpt>
<trkpt lat="29.567293" lon="96.768567">
<time>2016-10-07T21:45:11Z</time></trkpt>
<trkpt lat="29.566963" lon="96.769068">
<time>2016-10-07T21:45:12Z</time></trkpt>
<trkpt lat="29.566164" lon="96.770228">
<time>2016-10-07T21:45:13Z</time></trkpt>
<trkpt lat="29.565925" lon="96.770559">
<time>2016-10-07T21:45:14Z</time></trkpt>
<trkpt lat="29.565635" lon="96.770879">
<time>2016-10-07T21:45:15Z</time></trkpt>
<trkpt lat="29.565315" lon="96.771229">
<time>2016-10-07T21:45:16Z</time></trkpt>
<trkpt lat="29.565216" lon="96.771329">
<time>2016-10-07T21:45:17Z</time></trkpt>
<trkpt lat="29.565136" lon="96.771399">
<time>2016-10-07T21:45:18Z</time></trkpt>
<trkpt lat="29.565056" lon="96.771459">
<time>2016-10-07T21:45:19Z</time></trkpt>
<trkpt lat="29.564946" lon="96.77154">
<time>2016-10-07T21:45:20Z</time></trkpt>
<trkpt lat="29.564736" lon="96.77166">
<time>2016-10-07T21:45:21Z</time></trkpt>
<trkpt lat="29.564566" lon="96.77178">
<time>2016-10-07T21:45:22Z</time></trkpt>
<trkpt lat="29.564436" lon="96.77187">
<time>2016-10-07T21:45:23Z</time></trkpt>
<trkpt lat="29.564256" lon="96.77202">
<time>2016-10-07T21:45:24Z</time></trkpt>
<trkpt lat="29.563827" lon="96.77239">
<time>2016-10-07T21:45:25Z</time></trkpt>
<trkpt lat="29.563447" lon="96.772711">
<time>2016-10-07T21:45:26Z</time></trkpt>
<trkpt lat="29.563247" lon="96.772911">
<time>2016-10-07T21:45:27Z</time></trkpt>
<trkpt lat="29.563138" lon="96.773031">
<time>2016-10-07T21:45:28Z</time></trkpt>
<trkpt lat="29.563008" lon="96.773201">
<time>2016-10-07T21:45:29Z</time></trkpt>
<trkpt lat="29.562858" lon="96.773421">
<time>2016-10-07T21:45:30Z</time></trkpt>
<trkpt lat="29.562758" lon="96.773571">
<time>2016-10-07T21:45:31Z</time></trkpt>
<trkpt lat="29.562668" lon="96.773681">
<time>2016-10-07T21:45:32Z</time></trkpt>
<trkpt lat="29.562598" lon="96.773761">
<time>2016-10-07T21:45:33Z</time></trkpt>
<trkpt lat="29.562479" lon="96.773862">
<time>2016-10-07T21:45:34Z</time></trkpt>
<trkpt lat="29.562359" lon="96.773932">
<time>2016-10-07T21:45:35Z</time></trkpt>
<trkpt lat="29.562249" lon="96.773992">
<time>2016-10-07T21:45:36Z</time></trkpt>
<trkpt lat="29.562079" lon="96.774042">
<time>2016-10-07T21:45:37Z</time></trkpt>
<trkpt lat="29.561879" lon="96.774072">
<time>2016-10-07T21:45:38Z</time></trkpt>
<trkpt lat="29.561699" lon="96.774092">
<time>2016-10-07T21:45:39Z</time></trkpt>
<trkpt lat="29.561569" lon="96.774122">
<time>2016-10-07T21:45:40Z</time></trkpt>
<trkpt lat="29.561449" lon="96.774152">
<time>2016-10-07T21:45:41Z</time></trkpt>
<trkpt lat="29.561289" lon="96.774232">
<time>2016-10-07T21:45:42Z</time></trkpt>
<trkpt lat="29.561079" lon="96.774362">
<time>2016-10-07T21:45:43Z</time></trkpt>
<trkpt lat="29.56081" lon="96.774562">
<time>2016-10-07T21:45:44Z</time></trkpt>
<trkpt lat="29.56055" lon="96.774742">
<time>2016-10-07T21:45:45Z</time></trkpt>
<trkpt lat="29.5604" lon="96.774842">
<time>2016-10-07T21:45:46Z</time></trkpt>
<trkpt lat="29.56014" lon="96.774993">
<time>2016-10-07T21:45:47Z</time></trkpt>
<trkpt lat="29.559811" lon="96.775133">
<time>2016-10-07T21:45:48Z</time></trkpt>
<trkpt lat="29.558831" lon="96.775593">
<time>2016-10-07T21:45:49Z</time></trkpt>
<trkpt lat="29.558302" lon="96.775823">
<time>2016-10-07T21:45:50Z</time></trkpt>
<trkpt lat="29.558032" lon="96.775944">
<time>2016-10-07T21:45:51Z</time></trkpt>
<trkpt lat="29.557862" lon="96.775994">
<time>2016-10-07T21:45:52Z</time></trkpt>
<trkpt lat="29.557692" lon="96.776044">
<time>2016-10-07T21:45:53Z</time></trkpt>
<trkpt lat="29.557392" lon="96.776114">
<time>2016-10-07T21:45:54Z</time></trkpt>
<trkpt lat="29.556953" lon="96.776194">
<time>2016-10-07T21:45:55Z</time></trkpt>
<trkpt lat="29.556403" lon="96.776294">
<time>2016-10-07T21:45:56Z</time></trkpt>
<trkpt lat="29.555753" lon="96.776414">
<time>2016-10-07T21:45:57Z</time></trkpt>
<trkpt lat="29.554874" lon="96.776584">
<time>2016-10-07T21:45:58Z</time></trkpt>
<trkpt lat="29.554784" lon="96.776594">
<time>2016-10-07T21:45:59Z</time></trkpt>
<trkpt lat="29.554694" lon="96.776594">
<time>2016-10-07T21:46:00Z</time></trkpt>
<trkpt lat="29.554634" lon="96.776594">
<time>2016-10-07T21:46:01Z</time></trkpt>
<trkpt lat="29.554574" lon="96.776584">
<time>2016-10-07T21:46:02Z</time></trkpt>
<trkpt lat="29.554504" lon="96.776564">
<time>2016-10-07T21:46:03Z</time></trkpt>
<trkpt lat="29.554444" lon="96.776544">
<time>2016-10-07T21:46:04Z</time></trkpt>
<trkpt lat="29.554374" lon="96.776514">
<time>2016-10-07T21:46:05Z</time></trkpt>
<trkpt lat="29.554234" lon="96.776424">
<time>2016-10-07T21:46:06Z</time></trkpt>
<trkpt lat="29.553974" lon="96.776244">
<time>2016-10-07T21:46:07Z</time></trkpt>
<trkpt lat="29.553884" lon="96.776194">
<time>2016-10-07T21:46:08Z</time></trkpt>
<trkpt lat="29.553814" lon="96.776154">
<time>2016-10-07T21:46:09Z</time></trkpt>
<trkpt lat="29.553734" lon="96.776124">
<time>2016-10-07T21:46:10Z</time></trkpt>
<trkpt lat="29.553704" lon="96.776104">
<time>2016-10-07T21:46:11Z</time></trkpt>
<trkpt lat="29.553654" lon="96.776104">
<time>2016-10-07T21:46:12Z</time></trkpt>
<trkpt lat="29.553604" lon="96.776094">
<time>2016-10-07T21:46:13Z</time></trkpt>
<trkpt lat="29.553554" lon="96.776094">
<time>2016-10-07T21:46:14Z</time></trkpt>
<trkpt lat="29.553494" lon="96.776104">
<time>2016-10-07T21:46:15Z</time></trkpt>
<trkpt lat="29.553454" lon="96.776114">
<time>2016-10-07T21:46:16Z</time></trkpt>
<trkpt lat="29.553414" lon="96.776134">
<time>2016-10-07T21:46:17Z</time></trkpt>
<trkpt lat="29.553164" lon="96.776234">
<time>2016-10-07T21:46:18Z</time></trkpt>
<trkpt lat="29.552974" lon="96.776324">
<time>2016-10-07T21:46:19Z</time></trkpt>
<trkpt lat="29.552584" lon="96.776484">
<time>2016-10-07T21:46:20Z</time></trkpt>
<trkpt lat="29.552065" lon="96.776714">
<time>2016-10-07T21:46:21Z</time></trkpt>
<trkpt lat="29.551885" lon="96.776784">
<time>2016-10-07T21:46:22Z</time></trkpt>
<trkpt lat="29.551755" lon="96.776835">
<time>2016-10-07T21:46:23Z</time></trkpt>
<trkpt lat="29.551675" lon="96.776865">
<time>2016-10-07T21:46:24Z</time></trkpt>
<trkpt lat="29.551585" lon="96.776875">
<time>2016-10-07T21:46:25Z</time></trkpt>
<trkpt lat="29.551455" lon="96.776895">
<time>2016-10-07T21:46:26Z</time></trkpt>
<trkpt lat="29.551165" lon="96.776905">
<time>2016-10-07T21:46:27Z</time></trkpt>
<trkpt lat="29.550835" lon="96.776905">
<time>2016-10-07T21:46:28Z</time></trkpt>
<trkpt lat="29.550076" lon="96.776915">
<time>2016-10-07T21:46:29Z</time></trkpt>
<trkpt lat="29.549606" lon="96.776915">
<time>2016-10-07T21:46:30Z</time></trkpt>
<trkpt lat="29.549346" lon="96.776915">
<time>2016-10-07T21:46:31Z</time></trkpt>
<trkpt lat="29.549086" lon="96.776925">
<time>2016-10-07T21:46:32Z</time></trkpt>
<trkpt lat="29.548946" lon="96.776935">
<time>2016-10-07T21:46:33Z</time></trkpt>
<trkpt lat="29.548806" lon="96.776955">
<time>2016-10-07T21:46:34Z</time></trkpt>
<trkpt lat="29.548686" lon="96.776995">
<time>2016-10-07T21:46:35Z</time></trkpt>
<trkpt lat="29.548496" lon="96.777045">
<time>2016-10-07T21:46:36Z</time></trkpt>
<trkpt lat="29.548367" lon="96.777085">
<time>2016-10-07T21:46:37Z</time></trkpt>
<trkpt lat="29.548267" lon="96.777105">
<time>2016-10-07T21:46:38Z</time></trkpt>
<trkpt lat="29.548157" lon="96.777125">
<time>2016-10-07T21:46:39Z</time></trkpt>
<trkpt lat="29.547877" lon="96.777155">
<time>2016-10-07T21:46:40Z</time></trkpt>
<trkpt lat="29.547757" lon="96.777165">
<time>2016-10-07T21:46:41Z</time></trkpt>
<trkpt lat="29.547667" lon="96.777195">
<time>2016-10-07T21:46:42Z</time></trkpt>
<trkpt lat="29.547577" lon="96.777235">
<time>2016-10-07T21:46:43Z</time></trkpt>
<trkpt lat="29.547497" lon="96.777275">
<time>2016-10-07T21:46:44Z</time></trkpt>
<trkpt lat="29.547417" lon="96.777325">
<time>2016-10-07T21:46:45Z</time></trkpt>
<trkpt lat="29.547307" lon="96.777395">
<time>2016-10-07T21:46:46Z</time></trkpt>
<trkpt lat="29.547257" lon="96.777445">
<time>2016-10-07T21:46:47Z</time></trkpt>
<trkpt lat="29.547227" lon="96.777475">
<time>2016-10-07T21:46:48Z</time></trkpt>
<trkpt lat="29.547187" lon="96.777525">
<time>2016-10-07T21:46:49Z</time></trkpt>
<trkpt lat="29.547147" lon="96.777565">
<time>2016-10-07T21:46:50Z</time></trkpt>
<trkpt lat="29.547118" lon="96.777625">
<time>2016-10-07T21:46:51Z</time></trkpt>
<trkpt lat="29.547028" lon="96.777806">
<time>2016-10-07T21:46:52Z</time></trkpt>
<trkpt lat="29.546968" lon="96.777926">
<time>2016-10-07T21:46:53Z</time></trkpt>
<trkpt lat="29.546918" lon="96.778006">
<time>2016-10-07T21:46:54Z</time></trkpt>
<trkpt lat="29.546878" lon="96.778066">
<time>2016-10-07T21:46:55Z</time></trkpt>
<trkpt lat="29.546838" lon="96.778106">
<time>2016-10-07T21:46:56Z</time></trkpt>
<trkpt lat="29.546808" lon="96.778136">
<time>2016-10-07T21:46:57Z</time></trkpt>
<trkpt lat="29.546758" lon="96.778176">
<time>2016-10-07T21:46:58Z</time></trkpt>
<trkpt lat="29.546698" lon="96.778206">
<time>2016-10-07T21:46:59Z</time></trkpt>
<trkpt lat="29.546628" lon="96.778246">
<time>2016-10-07T21:47:00Z</time></trkpt>
<trkpt lat="29.546528" lon="96.778296">
<time>2016-10-07T21:47:01Z</time></trkpt>
<trkpt lat="29.546448" lon="96.778326">
<time>2016-10-07T21:47:02Z</time></trkpt>
<trkpt lat="29.546349" lon="96.778366">
<time>2016-10-07T21:47:03Z</time></trkpt>
<trkpt lat="29.546289" lon="96.778376">
<time>2016-10-07T21:47:04Z</time></trkpt>
<trkpt lat="29.546229" lon="96.778396">
<time>2016-10-07T21:47:05Z</time></trkpt>
<trkpt lat="29.546169" lon="96.778396">
<time>2016-10-07T21:47:06Z</time></trkpt>
<trkpt lat="29.546099" lon="96.778396">
<time>2016-10-07T21:47:07Z</time></trkpt>
<trkpt lat="29.546009" lon="96.778386">
<time>2016-10-07T21:47:08Z</time></trkpt>
<trkpt lat="29.545919" lon="96.778376">
<time>2016-10-07T21:47:09Z</time></trkpt>
<trkpt lat="29.545699" lon="96.778346">
<time>2016-10-07T21:47:10Z</time></trkpt>
<trkpt lat="29.545539" lon="96.778326">
<time>2016-10-07T21:47:11Z</time></trkpt>
<trkpt lat="29.545419" lon="96.778326">
<time>2016-10-07T21:47:12Z</time></trkpt>
<trkpt lat="29.545269" lon="96.778326">
<time>2016-10-07T21:47:13Z</time></trkpt>
<trkpt lat="29.545139" lon="96.778326">
<time>2016-10-07T21:47:14Z</time></trkpt>
<trkpt lat="29.544899" lon="96.778356">
<time>2016-10-07T21:47:15Z</time></trkpt>
<trkpt lat="29.544699" lon="96.778386">
<time>2016-10-07T21:47:16Z</time></trkpt>
<trkpt lat="29.544469" lon="96.778426">
<time>2016-10-07T21:47:17Z</time></trkpt>
<trkpt lat="29.544279" lon="96.778466">
<time>2016-10-07T21:47:18Z</time></trkpt>
<trkpt lat="29.54387" lon="96.778556">
<time>2016-10-07T21:47:19Z</time></trkpt>
<trkpt lat="29.54342" lon="96.778667">
<time>2016-10-07T21:47:20Z</time></trkpt>
<trkpt lat="29.54323" lon="96.778717">
<time>2016-10-07T21:47:21Z</time></trkpt>
<trkpt lat="29.54312" lon="96.778747">
<time>2016-10-07T21:47:22Z</time></trkpt>
<trkpt lat="29.543" lon="96.778767">
<time>2016-10-07T21:47:23Z</time></trkpt>
<trkpt lat="29.54289" lon="96.778777">
<time>2016-10-07T21:47:24Z</time></trkpt>
<trkpt lat="29.54283" lon="96.778777">
<time>2016-10-07T21:47:25Z</time></trkpt>
<trkpt lat="29.54274" lon="96.778777">
<time>2016-10-07T21:47:26Z</time></trkpt>
<trkpt lat="29.54262" lon="96.778777">
<time>2016-10-07T21:47:27Z</time></trkpt>
<trkpt lat="29.54248" lon="96.778757">
<time>2016-10-07T21:47:28Z</time></trkpt>
<trkpt lat="29.54231" lon="96.778727">
<time>2016-10-07T21:47:29Z</time></trkpt>
<trkpt lat="29.54195" lon="96.778667">
<time>2016-10-07T21:47:30Z</time></trkpt>
<trkpt lat="29.541711" lon="96.778627">
<time>2016-10-07T21:47:31Z</time></trkpt>
<trkpt lat="29.541421" lon="96.778577">
<time>2016-10-07T21:47:32Z</time></trkpt>
<trkpt lat="29.541101" lon="96.778516">
<time>2016-10-07T21:47:33Z</time></trkpt>
<trkpt lat="29.540491" lon="96.778406">
<time>2016-10-07T21:47:34Z</time></trkpt>
<trkpt lat="29.540361" lon="96.778386">
<time>2016-10-07T21:47:35Z</time></trkpt>
<trkpt lat="29.540251" lon="96.778376">
<time>2016-10-07T21:47:36Z</time></trkpt>
<trkpt lat="29.540171" lon="96.778366">
<time>2016-10-07T21:47:37Z</time></trkpt>
<trkpt lat="29.540121" lon="96.778366">
<time>2016-10-07T21:47:38Z</time></trkpt>
<trkpt lat="29.540071" lon="96.778376">
<time>2016-10-07T21:47:39Z</time></trkpt>
<trkpt lat="29.540021" lon="96.778376">
<time>2016-10-07T21:47:40Z</time></trkpt>
<trkpt lat="29.539971" lon="96.778386">
<time>2016-10-07T21:47:41Z</time></trkpt>
<trkpt lat="29.539901" lon="96.778416">
<time>2016-10-07T21:47:42Z</time></trkpt>
<trkpt lat="29.539851" lon="96.778426">
<time>2016-10-07T21:47:43Z</time></trkpt>
<trkpt lat="29.539801" lon="96.778446">
<time>2016-10-07T21:47:44Z</time></trkpt>
<trkpt lat="29.539741" lon="96.778476">
<time>2016-10-07T21:47:45Z</time></trkpt>
<trkpt lat="29.539671" lon="96.778526">
<time>2016-10-07T21:47:46Z</time></trkpt>
<trkpt lat="29.539352" lon="96.778757">
<time>2016-10-07T21:47:47Z</time></trkpt>
<trkpt lat="29.538972" lon="96.779037">
<time>2016-10-07T21:47:48Z</time></trkpt>
<trkpt lat="29.538842" lon="96.779127">
<time>2016-10-07T21:47:49Z</time></trkpt>
<trkpt lat="29.538762" lon="96.779177">
<time>2016-10-07T21:47:50Z</time></trkpt>
<trkpt lat="29.538642" lon="96.779217">
<time>2016-10-07T21:47:51Z</time></trkpt>
<trkpt lat="29.538552" lon="96.779247">
<time>2016-10-07T21:47:52Z</time></trkpt>
<trkpt lat="29.538352" lon="96.779287">
<time>2016-10-07T21:47:53Z</time></trkpt>
<trkpt lat="29.538013" lon="96.779357">
<time>2016-10-07T21:47:54Z</time></trkpt>
<trkpt lat="29.537663" lon="96.779417">
<time>2016-10-07T21:47:55Z</time></trkpt>
<trkpt lat="29.537403" lon="96.779458">
<time>2016-10-07T21:47:56Z</time></trkpt>
<trkpt lat="29.537283" lon="96.779458">
<time>2016-10-07T21:47:57Z</time></trkpt>
<trkpt lat="29.537203" lon="96.779448">
<time>2016-10-07T21:47:58Z</time></trkpt>
<trkpt lat="29.537123" lon="96.779417">
<time>2016-10-07T21:47:59Z</time></trkpt>
<trkpt lat="29.537033" lon="96.779387">
<time>2016-10-07T21:48:00Z</time></trkpt>
<trkpt lat="29.536953" lon="96.779347">
<time>2016-10-07T21:48:01Z</time></trkpt>
<trkpt lat="29.536853" lon="96.779277">
<time>2016-10-07T21:48:02Z</time></trkpt>
<trkpt lat="29.536753" lon="96.779197">
<time>2016-10-07T21:48:03Z</time></trkpt>
<trkpt lat="29.536523" lon="96.779007">
<time>2016-10-07T21:48:04Z</time></trkpt>
<trkpt lat="29.536383" lon="96.778877">
<time>2016-10-07T21:48:05Z</time></trkpt>
<trkpt lat="29.536303" lon="96.778787">
<time>2016-10-07T21:48:06Z</time></trkpt>
<trkpt lat="29.536243" lon="96.778697">
<time>2016-10-07T21:48:07Z</time></trkpt>
<trkpt lat="29.536153" lon="96.778557">
<time>2016-10-07T21:48:08Z</time></trkpt>
<trkpt lat="29.536072" lon="96.778386">
<time>2016-10-07T21:48:09Z</time></trkpt>
<trkpt lat="29.535982" lon="96.778206">
<time>2016-10-07T21:48:10Z</time></trkpt>
<trkpt lat="29.535932" lon="96.778136">
<time>2016-10-07T21:48:11Z</time></trkpt>
<trkpt lat="29.535882" lon="96.778066">
<time>2016-10-07T21:48:12Z</time></trkpt>
<trkpt lat="29.535832" lon="96.778026">
<time>2016-10-07T21:48:13Z</time></trkpt>
<trkpt lat="29.535772" lon="96.777976">
<time>2016-10-07T21:48:14Z</time></trkpt>
<trkpt lat="29.535702" lon="96.777936">
<time>2016-10-07T21:48:15Z</time></trkpt>
<trkpt lat="29.535632" lon="96.777916">
<time>2016-10-07T21:48:16Z</time></trkpt>
<trkpt lat="29.535562" lon="96.777896">
<time>2016-10-07T21:48:17Z</time></trkpt>
<trkpt lat="29.535482" lon="96.777886">
<time>2016-10-07T21:48:18Z</time></trkpt>
<trkpt lat="29.535392" lon="96.777886">
<time>2016-10-07T21:48:19Z</time></trkpt>
<trkpt lat="29.535182" lon="96.777916">
<time>2016-10-07T21:48:20Z</time></trkpt>
<trkpt lat="29.534942" lon="96.777956">
<time>2016-10-07T21:48:21Z</time></trkpt>
<trkpt lat="29.534783" lon="96.777986">
<time>2016-10-07T21:48:22Z</time></trkpt>
<trkpt lat="29.534673" lon="96.777996">
<time>2016-10-07T21:48:23Z</time></trkpt>
<trkpt lat="29.534603" lon="96.777986">
<time>2016-10-07T21:48:24Z</time></trkpt>
<trkpt lat="29.534543" lon="96.777966">
<time>2016-10-07T21:48:25Z</time></trkpt>
<trkpt lat="29.534493" lon="96.777946">
<time>2016-10-07T21:48:26Z</time></trkpt>
<trkpt lat="29.534413" lon="96.777896">
<time>2016-10-07T21:48:27Z</time></trkpt>
<trkpt lat="29.534343" lon="96.777826">
<time>2016-10-07T21:48:28Z</time></trkpt>
<trkpt lat="29.534262" lon="96.777776">
<time>2016-10-07T21:48:29Z</time></trkpt>
<trkpt lat="29.534212" lon="96.777746">
<time>2016-10-07T21:48:30Z</time></trkpt>
<trkpt lat="29.534142" lon="96.777706">
<time>2016-10-07T21:48:31Z</time></trkpt>
<trkpt lat="29.534072" lon="96.777686">
<time>2016-10-07T21:48:32Z</time></trkpt>
<trkpt lat="29.533952" lon="96.777656">
<time>2016-10-07T21:48:33Z</time></trkpt>
<trkpt lat="29.533872" lon="96.777636">
<time>2016-10-07T21:48:34Z</time></trkpt>
<trkpt lat="29.533793" lon="96.777636">
<time>2016-10-07T21:48:35Z</time></trkpt>
<trkpt lat="29.533703" lon="96.777626">
<time>2016-10-07T21:48:36Z</time></trkpt>
<trkpt lat="29.533613" lon="96.777646">
<time>2016-10-07T21:48:37Z</time></trkpt>
<trkpt lat="29.533523" lon="96.777666">
<time>2016-10-07T21:48:38Z</time></trkpt>
<trkpt lat="29.533423" lon="96.777706">
<time>2016-10-07T21:48:39Z</time></trkpt>
<trkpt lat="29.533313" lon="96.777776">
<time>2016-10-07T21:48:40Z</time></trkpt>
<trkpt lat="29.533263" lon="96.777796">
<time>2016-10-07T21:48:41Z</time></trkpt>
<trkpt lat="29.533193" lon="96.777816">
<time>2016-10-07T21:48:42Z</time></trkpt>
<trkpt lat="29.533153" lon="96.777826">
<time>2016-10-07T21:48:43Z</time></trkpt>
<trkpt lat="29.533093" lon="96.777836">
<time>2016-10-07T21:48:44Z</time></trkpt>
<trkpt lat="29.533033" lon="96.777826">
<time>2016-10-07T21:48:45Z</time></trkpt>
<trkpt lat="29.532963" lon="96.777816">
<time>2016-10-07T21:48:46Z</time></trkpt>
<trkpt lat="29.532823" lon="96.777776">
<time>2016-10-07T21:48:47Z</time></trkpt>
<trkpt lat="29.532773" lon="96.777766">
<time>2016-10-07T21:48:48Z</time></trkpt>
<trkpt lat="29.532733" lon="96.777766">
<time>2016-10-07T21:48:49Z</time></trkpt>
<trkpt lat="29.532683" lon="96.777776">
<time>2016-10-07T21:48:50Z</time></trkpt>
<trkpt lat="29.532653" lon="96.777796">
<time>2016-10-07T21:48:51Z</time></trkpt>
<trkpt lat="29.532623" lon="96.777806">
<time>2016-10-07T21:48:52Z</time></trkpt>
<trkpt lat="29.532603" lon="96.777826">
<time>2016-10-07T21:48:53Z</time></trkpt>
<trkpt lat="29.532583" lon="96.777836">
<time>2016-10-07T21:48:54Z</time></trkpt>
<trkpt lat="29.532563" lon="96.777856">
<time>2016-10-07T21:48:55Z</time></trkpt>
<trkpt lat="29.532523" lon="96.777916">
<time>2016-10-07T21:48:56Z</time></trkpt>
<trkpt lat="29.532413" lon="96.778066">
<time>2016-10-07T21:48:57Z</time></trkpt>
<trkpt lat="29.532274" lon="96.778246">
<time>2016-10-07T21:48:58Z</time></trkpt>
<trkpt lat="29.532184" lon="96.778346">
<time>2016-10-07T21:48:59Z</time></trkpt>
<trkpt lat="29.532094" lon="96.778426">
<time>2016-10-07T21:49:00Z</time></trkpt>
<trkpt lat="29.532014" lon="96.778487">
<time>2016-10-07T21:49:01Z</time></trkpt>
<trkpt lat="29.531914" lon="96.778547">
<time>2016-10-07T21:49:02Z</time></trkpt>
<trkpt lat="29.531804" lon="96.778587">
<time>2016-10-07T21:49:03Z</time></trkpt>
<trkpt lat="29.531724" lon="96.778617">
<time>2016-10-07T21:49:04Z</time></trkpt>
<trkpt lat="29.531624" lon="96.778647">
<time>2016-10-07T21:49:05Z</time></trkpt>
<trkpt lat="29.531305" lon="96.778707">
<time>2016-10-07T21:49:06Z</time></trkpt>
<trkpt lat="29.530905" lon="96.778777">
<time>2016-10-07T21:49:07Z</time></trkpt>
<trkpt lat="29.530495" lon="96.778837">
<time>2016-10-07T21:49:08Z</time></trkpt>
<trkpt lat="29.529755" lon="96.778957">
<time>2016-10-07T21:49:09Z</time></trkpt>
<trkpt lat="29.528826" lon="96.779107">
<time>2016-10-07T21:49:10Z</time></trkpt>
<trkpt lat="29.528726" lon="96.779117">
<time>2016-10-07T21:49:11Z</time></trkpt>
<trkpt lat="29.528606" lon="96.779117">
<time>2016-10-07T21:49:12Z</time></trkpt>
<trkpt lat="29.528466" lon="96.779107">
<time>2016-10-07T21:49:13Z</time></trkpt>
<trkpt lat="29.528166" lon="96.779067">
<time>2016-10-07T21:49:14Z</time></trkpt>
<trkpt lat="29.528056" lon="96.779057">
<time>2016-10-07T21:49:15Z</time></trkpt>
<trkpt lat="29.527956" lon="96.779057">
<time>2016-10-07T21:49:16Z</time></trkpt>
<trkpt lat="29.527816" lon="96.779067">
<time>2016-10-07T21:49:17Z</time></trkpt>
<trkpt lat="29.527696" lon="96.779077">
<time>2016-10-07T21:49:18Z</time></trkpt>
<trkpt lat="29.527536" lon="96.779077">
<time>2016-10-07T21:49:19Z</time></trkpt>
<trkpt lat="29.527426" lon="96.779077">
<time>2016-10-07T21:49:20Z</time></trkpt>
<trkpt lat="29.527327" lon="96.779087">
<time>2016-10-07T21:49:21Z</time></trkpt>
<trkpt lat="29.527247" lon="96.779107">
<time>2016-10-07T21:49:22Z</time></trkpt>
<trkpt lat="29.527167" lon="96.779127">
<time>2016-10-07T21:49:23Z</time></trkpt>
<trkpt lat="29.527097" lon="96.779147">
<time>2016-10-07T21:49:24Z</time></trkpt>
<trkpt lat="29.527017" lon="96.779187">
<time>2016-10-07T21:49:25Z</time></trkpt>
<trkpt lat="29.526927" lon="96.779237">
<time>2016-10-07T21:49:26Z</time></trkpt>
<trkpt lat="29.526647" lon="96.779418">
<time>2016-10-07T21:49:27Z</time></trkpt>
<trkpt lat="29.526427" lon="96.779548">
<time>2016-10-07T21:49:28Z</time></trkpt>
<trkpt lat="29.526327" lon="96.779608">
<time>2016-10-07T21:49:29Z</time></trkpt>
<trkpt lat="29.526238" lon="96.779648">
<time>2016-10-07T21:49:30Z</time></trkpt>
<trkpt lat="29.526178" lon="96.779658">
<time>2016-10-07T21:49:31Z</time></trkpt>
<trkpt lat="29.526118" lon="96.779668">
<time>2016-10-07T21:49:32Z</time></trkpt>
<trkpt lat="29.526078" lon="96.779668">
<time>2016-10-07T21:49:33Z</time></trkpt>
<trkpt lat="29.526028" lon="96.779658">
<time>2016-10-07T21:49:34Z</time></trkpt>
<trkpt lat="29.525988" lon="96.779658">
<time>2016-10-07T21:49:35Z</time></trkpt>
<trkpt lat="29.525948" lon="96.779638">
<time>2016-10-07T21:49:36Z</time></trkpt>
<trkpt lat="29.525878" lon="96.779618">
<time>2016-10-07T21:49:37Z</time></trkpt>
<trkpt lat="29.525798" lon="96.779588">
<time>2016-10-07T21:49:38Z</time></trkpt>
<trkpt lat="29.525728" lon="96.779548">
<time>2016-10-07T21:49:39Z</time></trkpt>
<trkpt lat="29.525668" lon="96.779518">
<time>2016-10-07T21:49:40Z</time></trkpt>
<trkpt lat="29.525588" lon="96.779478">
<time>2016-10-07T21:49:41Z</time></trkpt>
<trkpt lat="29.525528" lon="96.779438">
<time>2016-10-07T21:49:42Z</time></trkpt>
<trkpt lat="29.525468" lon="96.779388">
<time>2016-10-07T21:49:43Z</time></trkpt>
<trkpt lat="29.525398" lon="96.779328">
<time>2016-10-07T21:49:44Z</time></trkpt>
<trkpt lat="29.525327" lon="96.779267">
<time>2016-10-07T21:49:45Z</time></trkpt>
<trkpt lat="29.525257" lon="96.779177">
<time>2016-10-07T21:49:46Z</time></trkpt>
<trkpt lat="29.525197" lon="96.779107">
<time>2016-10-07T21:49:47Z</time></trkpt>
<trkpt lat="29.525127" lon="96.779007">
<time>2016-10-07T21:49:48Z</time></trkpt>
<trkpt lat="29.525047" lon="96.778877">
<time>2016-10-07T21:49:49Z</time></trkpt>
<trkpt lat="29.524947" lon="96.778707">
<time>2016-10-07T21:49:50Z</time></trkpt>
<trkpt lat="29.524797" lon="96.778497">
<time>2016-10-07T21:49:51Z</time></trkpt>
<trkpt lat="29.524647" lon="96.778256">
<time>2016-10-07T21:49:52Z</time></trkpt>
<trkpt lat="29.524507" lon="96.778046">
<time>2016-10-07T21:49:53Z</time></trkpt>
<trkpt lat="29.524466" lon="96.777986">
<time>2016-10-07T21:49:54Z</time></trkpt>
<trkpt lat="29.524416" lon="96.777926">
<time>2016-10-07T21:49:55Z</time></trkpt>
<trkpt lat="29.524356" lon="96.777886">
<time>2016-10-07T21:49:56Z</time></trkpt>
<trkpt lat="29.524306" lon="96.777846">
<time>2016-10-07T21:49:57Z</time></trkpt>
<trkpt lat="29.524226" lon="96.777806">
<time>2016-10-07T21:49:58Z</time></trkpt>
<trkpt lat="29.524116" lon="96.777776">
<time>2016-10-07T21:49:59Z</time></trkpt>
<trkpt lat="29.523816" lon="96.777696">
<time>2016-10-07T21:50:00Z</time></trkpt>
<trkpt lat="29.523636" lon="96.777636">
<time>2016-10-07T21:50:01Z</time></trkpt>
<trkpt lat="29.523366" lon="96.777516">
<time>2016-10-07T21:50:02Z</time></trkpt>
<trkpt lat="29.523256" lon="96.777476">
<time>2016-10-07T21:50:03Z</time></trkpt>
<trkpt lat="29.523136" lon="96.777446">
<time>2016-10-07T21:50:04Z</time></trkpt>
<trkpt lat="29.523037" lon="96.777426">
<time>2016-10-07T21:50:05Z</time></trkpt>
<trkpt lat="29.522937" lon="96.777416">
<time>2016-10-07T21:50:06Z</time></trkpt>
<trkpt lat="29.522867" lon="96.777426">
<time>2016-10-07T21:50:07Z</time></trkpt>
<trkpt lat="29.522807" lon="96.777426">
<time>2016-10-07T21:50:08Z</time></trkpt>
<trkpt lat="29.522507" lon="96.777506">
<time>2016-10-07T21:50:09Z</time></trkpt>
<trkpt lat="29.521847" lon="96.777686">
<time>2016-10-07T21:50:10Z</time></trkpt>
<trkpt lat="29.521507" lon="96.777776">
<time>2016-10-07T21:50:11Z</time></trkpt>
<trkpt lat="29.521388" lon="96.777796">
<time>2016-10-07T21:50:12Z</time></trkpt>
<trkpt lat="29.521268" lon="96.777786">
<time>2016-10-07T21:50:13Z</time></trkpt>
<trkpt lat="29.521148" lon="96.777766">
<time>2016-10-07T21:50:14Z</time></trkpt>
<trkpt lat="29.521058" lon="96.777716">
<time>2016-10-07T21:50:15Z</time></trkpt>
<trkpt lat="29.520968" lon="96.777656">
<time>2016-10-07T21:50:16Z</time></trkpt>
<trkpt lat="29.520818" lon="96.777556">
<time>2016-10-07T21:50:17Z</time></trkpt>
<trkpt lat="29.520617" lon="96.777396">
<time>2016-10-07T21:50:18Z</time></trkpt>
<trkpt lat="29.520477" lon="96.777275">
<time>2016-10-07T21:50:19Z</time></trkpt>
<trkpt lat="29.520347" lon="96.777135">
<time>2016-10-07T21:50:20Z</time></trkpt>
<trkpt lat="29.520247" lon="96.777025">
<time>2016-10-07T21:50:21Z</time></trkpt>
<trkpt lat="29.520147" lon="96.776935">
<time>2016-10-07T21:50:22Z</time></trkpt>
<trkpt lat="29.520037" lon="96.776845">
<time>2016-10-07T21:50:23Z</time></trkpt>
<trkpt lat="29.519797" lon="96.776675">
<time>2016-10-07T21:50:24Z</time></trkpt>
<trkpt lat="29.519657" lon="96.776575">
<time>2016-10-07T21:50:25Z</time></trkpt>
<trkpt lat="29.519507" lon="96.776435">
<time>2016-10-07T21:50:26Z</time></trkpt>
<trkpt lat="29.519367" lon="96.776294">
<time>2016-10-07T21:50:27Z</time></trkpt>
<trkpt lat="29.519267" lon="96.776184">
<time>2016-10-07T21:50:28Z</time></trkpt>
<trkpt lat="29.519147" lon="96.776074">
<time>2016-10-07T21:50:29Z</time></trkpt>
<trkpt lat="29.519037" lon="96.775984">
<time>2016-10-07T21:50:30Z</time></trkpt>
<trkpt lat="29.518917" lon="96.775894">
<time>2016-10-07T21:50:31Z</time></trkpt>
<trkpt lat="29.518817" lon="96.775814">
<time>2016-10-07T21:50:32Z</time></trkpt>
<trkpt lat="29.518707" lon="96.775734">
<time>2016-10-07T21:50:33Z</time></trkpt>
<trkpt lat="29.518627" lon="96.775694">
<time>2016-10-07T21:50:34Z</time></trkpt>
<trkpt lat="29.518507" lon="96.775644">
<time>2016-10-07T21:50:35Z</time></trkpt>
<trkpt lat="29.518407" lon="96.775624">
<time>2016-10-07T21:50:36Z</time></trkpt>
<trkpt lat="29.518267" lon="96.775594">
<time>2016-10-07T21:50:37Z</time></trkpt>
<trkpt lat="29.518087" lon="96.775584">
<time>2016-10-07T21:50:38Z</time></trkpt>
<trkpt lat="29.517877" lon="96.775564">
<time>2016-10-07T21:50:39Z</time></trkpt>
<trkpt lat="29.517777" lon="96.775554">
<time>2016-10-07T21:50:40Z</time></trkpt>
<trkpt lat="29.517647" lon="96.775504">
<time>2016-10-07T21:50:41Z</time></trkpt>
<trkpt lat="29.517547" lon="96.775464">
<time>2016-10-07T21:50:42Z</time></trkpt>
<trkpt lat="29.517447" lon="96.775404">
<time>2016-10-07T21:50:43Z</time></trkpt>
<trkpt lat="29.517357" lon="96.775314">
<time>2016-10-07T21:50:44Z</time></trkpt>
<trkpt lat="29.517277" lon="96.775233">
<time>2016-10-07T21:50:45Z</time></trkpt>
<trkpt lat="29.517247" lon="96.775183">
<time>2016-10-07T21:50:46Z</time></trkpt>
<trkpt lat="29.517207" lon="96.775133">
<time>2016-10-07T21:50:47Z</time></trkpt>
<trkpt lat="29.517177" lon="96.775073">
<time>2016-10-07T21:50:48Z</time></trkpt>
<trkpt lat="29.517157" lon="96.775013">
<time>2016-10-07T21:50:49Z</time></trkpt>
<trkpt lat="29.517127" lon="96.774963">
<time>2016-10-07T21:50:50Z</time></trkpt>
<trkpt lat="29.517116" lon="96.774913">
<time>2016-10-07T21:50:51Z</time></trkpt>
<trkpt lat="29.517096" lon="96.774803">
<time>2016-10-07T21:50:52Z</time></trkpt>
<trkpt lat="29.517076" lon="96.774673">
<time>2016-10-07T21:50:53Z</time></trkpt>
<trkpt lat="29.517066" lon="96.774583">
<time>2016-10-07T21:50:54Z</time></trkpt>
<trkpt lat="29.517066" lon="96.774393">
<time>2016-10-07T21:50:55Z</time></trkpt>
<trkpt lat="29.517056" lon="96.774253">
<time>2016-10-07T21:50:56Z</time></trkpt>
<trkpt lat="29.517046" lon="96.774152">
<time>2016-10-07T21:50:57Z</time></trkpt>
<trkpt lat="29.517026" lon="96.774062">
<time>2016-10-07T21:50:58Z</time></trkpt>
<trkpt lat="29.516996" lon="96.773962">
<time>2016-10-07T21:50:59Z</time></trkpt>
<trkpt lat="29.516946" lon="96.773842">
<time>2016-10-07T21:51:00Z</time></trkpt>
<trkpt lat="29.516825" lon="96.773562">
<time>2016-10-07T21:51:01Z</time></trkpt>
<trkpt lat="29.516765" lon="96.773412">
<time>2016-10-07T21:51:02Z</time></trkpt>
<trkpt lat="29.516725" lon="96.773272">
<time>2016-10-07T21:51:03Z</time></trkpt>
<trkpt lat="29.516685" lon="96.773102">
<time>2016-10-07T21:51:04Z</time></trkpt>
<trkpt lat="29.516655" lon="96.772921">
<time>2016-10-07T21:51:05Z</time></trkpt>
<trkpt lat="29.516615" lon="96.772691">
<time>2016-10-07T21:51:06Z</time></trkpt>
<trkpt lat="29.516575" lon="96.772371">
<time>2016-10-07T21:51:07Z</time></trkpt>
<trkpt lat="29.516564" lon="96.772271">
<time>2016-10-07T21:51:08Z</time></trkpt>
<trkpt lat="29.516554" lon="96.772121">
<time>2016-10-07T21:51:09Z</time></trkpt>
<trkpt lat="29.516554" lon="96.771931">
<time>2016-10-07T21:51:10Z</time></trkpt>
<trkpt lat="29.516554" lon="96.77166">
<time>2016-10-07T21:51:11Z</time></trkpt>
<trkpt lat="29.516544" lon="96.77137">
<time>2016-10-07T21:51:12Z</time></trkpt>
<trkpt lat="29.516514" lon="96.77111">
<time>2016-10-07T21:51:13Z</time></trkpt>
<trkpt lat="29.516473" lon="96.77091">
<time>2016-10-07T21:51:14Z</time></trkpt>
<trkpt lat="29.516423" lon="96.77071">
<time>2016-10-07T21:51:15Z</time></trkpt>
<trkpt lat="29.516343" lon="96.770509">
<time>2016-10-07T21:51:16Z</time></trkpt>
<trkpt lat="29.516233" lon="96.770259">
<time>2016-10-07T21:51:17Z</time></trkpt>
<trkpt lat="29.516133" lon="96.770039">
<time>2016-10-07T21:51:18Z</time></trkpt>
<trkpt lat="29.516023" lon="96.769849">
<time>2016-10-07T21:51:19Z</time></trkpt>
<trkpt lat="29.515913" lon="96.769679">
<time>2016-10-07T21:51:20Z</time></trkpt>
<trkpt lat="29.515733" lon="96.769399">
<time>2016-10-07T21:51:21Z</time></trkpt>
<trkpt lat="29.515693" lon="96.769349">
<time>2016-10-07T21:51:22Z</time></trkpt>
<trkpt lat="29.515663" lon="96.769279">
<time>2016-10-07T21:51:23Z</time></trkpt>
<trkpt lat="29.515642" lon="96.769208">
<time>2016-10-07T21:51:24Z</time></trkpt>
<trkpt lat="29.515532" lon="96.768618">
<time>2016-10-07T21:51:25Z</time></trkpt>
<trkpt lat="29.515462" lon="96.768328">
<time>2016-10-07T21:51:26Z</time></trkpt>
<trkpt lat="29.515392" lon="96.768068">
<time>2016-10-07T21:51:27Z</time></trkpt>
<trkpt lat="29.515352" lon="96.767878">
<time>2016-10-07T21:51:28Z</time></trkpt>
<trkpt lat="29.515312" lon="96.767697">
<time>2016-10-07T21:51:29Z</time></trkpt>
<trkpt lat="29.515231" lon="96.767207">
<time>2016-10-07T21:51:30Z</time></trkpt>
<trkpt lat="29.515201" lon="96.767077">
<time>2016-10-07T21:51:31Z</time></trkpt>
<trkpt lat="29.515171" lon="96.766987">
<time>2016-10-07T21:51:32Z</time></trkpt>
<trkpt lat="29.515121" lon="96.766867">
<time>2016-10-07T21:51:33Z</time></trkpt>
<trkpt lat="29.515051" lon="96.766737">
<time>2016-10-07T21:51:34Z</time></trkpt>
<trkpt lat="29.514781" lon="96.766297">
<time>2016-10-07T21:51:35Z</time></trkpt>
<trkpt lat="29.514671" lon="96.766136">
<time>2016-10-07T21:51:36Z</time></trkpt>
<trkpt lat="29.514571" lon="96.765996">
<time>2016-10-07T21:51:37Z</time></trkpt>
<trkpt lat="29.514411" lon="96.765796">
<time>2016-10-07T21:51:38Z</time></trkpt>
<trkpt lat="29.514211" lon="96.765566">
<time>2016-10-07T21:51:39Z</time></trkpt>
<trkpt lat="29.514141" lon="96.765496">
<time>2016-10-07T21:51:40Z</time></trkpt>
<trkpt lat="29.514051" lon="96.765416">
<time>2016-10-07T21:51:41Z</time></trkpt>
<trkpt lat="29.513971" lon="96.765356">
<time>2016-10-07T21:51:42Z</time></trkpt>
<trkpt lat="29.513901" lon="96.765316">
<time>2016-10-07T21:51:43Z</time></trkpt>
<trkpt lat="29.513771" lon="96.765256">
<time>2016-10-07T21:51:44Z</time></trkpt>
<trkpt lat="29.513621" lon="96.765196">
<time>2016-10-07T21:51:45Z</time></trkpt>
<trkpt lat="29.513441" lon="96.765126">
<time>2016-10-07T21:51:46Z</time></trkpt>
<trkpt lat="29.513251" lon="96.765076">
<time>2016-10-07T21:51:47Z</time></trkpt>
<trkpt lat="29.512901" lon="96.764976">
<time>2016-10-07T21:51:48Z</time></trkpt>
<trkpt lat="29.512611" lon="96.764896">
<time>2016-10-07T21:51:49Z</time></trkpt>
<trkpt lat="29.512321" lon="96.764826">
<time>2016-10-07T21:51:50Z</time></trkpt>
<trkpt lat="29.512031" lon="96.764786">
<time>2016-10-07T21:51:51Z</time></trkpt>
<trkpt lat="29.511731" lon="96.764706">
<time>2016-10-07T21:51:52Z</time></trkpt>
<trkpt lat="29.511331" lon="96.764576">
<time>2016-10-07T21:51:53Z</time></trkpt>
<trkpt lat="29.511161" lon="96.764536">
<time>2016-10-07T21:51:54Z</time></trkpt>
<trkpt lat="29.510931" lon="96.764466">
<time>2016-10-07T21:51:55Z</time></trkpt>
<trkpt lat="29.510731" lon="96.764436">
<time>2016-10-07T21:51:56Z</time></trkpt>
<trkpt lat="29.510552" lon="96.764376">
<time>2016-10-07T21:51:57Z</time></trkpt>
<trkpt lat="29.510362" lon="96.764325">
<time>2016-10-07T21:51:58Z</time></trkpt>
<trkpt lat="29.510202" lon="96.764285">
<time>2016-10-07T21:51:59Z</time></trkpt>
<trkpt lat="29.510022" lon="96.764285">
<time>2016-10-07T21:52:00Z</time></trkpt>
<trkpt lat="29.509782" lon="96.764305">
<time>2016-10-07T21:52:01Z</time></trkpt>
<trkpt lat="29.509452" lon="96.764346">
<time>2016-10-07T21:52:02Z</time></trkpt>
<trkpt lat="29.509272" lon="96.764356">
<time>2016-10-07T21:52:03Z</time></trkpt>
<trkpt lat="29.509042" lon="96.764326">
<time>2016-10-07T21:52:04Z</time></trkpt>
<trkpt lat="29.508772" lon="96.764275">
<time>2016-10-07T21:52:05Z</time></trkpt>
<trkpt lat="29.508472" lon="96.764205">
<time>2016-10-07T21:52:06Z</time></trkpt>
<trkpt lat="29.507833" lon="96.764115">
<time>2016-10-07T21:52:07Z</time></trkpt>
<trkpt lat="29.507013" lon="96.764015">
<time>2016-10-07T21:52:08Z</time></trkpt>
<trkpt lat="29.506533" lon="96.763955">
<time>2016-10-07T21:52:09Z</time></trkpt>
<trkpt lat="29.506353" lon="96.763945">
<time>2016-10-07T21:52:10Z</time></trkpt>
<trkpt lat="29.506233" lon="96.763945">
<time>2016-10-07T21:52:11Z</time></trkpt>
<trkpt lat="29.506133" lon="96.763955">
<time>2016-10-07T21:52:12Z</time></trkpt>
<trkpt lat="29.506063" lon="96.763965">
<time>2016-10-07T21:52:13Z</time></trkpt>
<trkpt lat="29.505953" lon="96.763995">
<time>2016-10-07T21:52:14Z</time></trkpt>
<trkpt lat="29.505893" lon="96.764015">
<time>2016-10-07T21:52:15Z</time></trkpt>
<trkpt lat="29.505753" lon="96.764065">
<time>2016-10-07T21:52:16Z</time></trkpt>
<trkpt lat="29.505653" lon="96.764105">
<time>2016-10-07T21:52:17Z</time></trkpt>
<trkpt lat="29.505543" lon="96.764135">
<time>2016-10-07T21:52:18Z</time></trkpt>
<trkpt lat="29.505464" lon="96.764155">
<time>2016-10-07T21:52:19Z</time></trkpt>
<trkpt lat="29.505414" lon="96.764165">
<time>2016-10-07T21:52:20Z</time></trkpt>
<trkpt lat="29.505374" lon="96.764155">
<time>2016-10-07T21:52:21Z</time></trkpt>
<trkpt lat="29.505344" lon="96.764155">
<time>2016-10-07T21:52:22Z</time></trkpt>
<trkpt lat="29.505314" lon="96.764135">
<time>2016-10-07T21:52:23Z</time></trkpt>
<trkpt lat="29.505274" lon="96.764115">
<time>2016-10-07T21:52:24Z</time></trkpt>
<trkpt lat="29.505254" lon="96.764095">
<time>2016-10-07T21:52:25Z</time></trkpt>
<trkpt lat="29.505234" lon="96.764065">
<time>2016-10-07T21:52:26Z</time></trkpt>
<trkpt lat="29.505194" lon="96.763975">
<time>2016-10-07T21:52:27Z</time></trkpt>
<trkpt lat="29.505164" lon="96.763875">
<time>2016-10-07T21:52:28Z</time></trkpt>
<trkpt lat="29.505133" lon="96.763785">
<time>2016-10-07T21:52:29Z</time></trkpt>
<trkpt lat="29.505023" lon="96.763365">
<time>2016-10-07T21:52:30Z</time></trkpt>
<trkpt lat="29.505003" lon="96.763275">
<time>2016-10-07T21:52:31Z</time></trkpt>
<trkpt lat="29.504983" lon="96.763195">
<time>2016-10-07T21:52:32Z</time></trkpt>
<trkpt lat="29.504973" lon="96.763105">
<time>2016-10-07T21:52:33Z</time></trkpt>
<trkpt lat="29.504973" lon="96.763035">
<time>2016-10-07T21:52:34Z</time></trkpt>
<trkpt lat="29.504973" lon="96.762935">
<time>2016-10-07T21:52:35Z</time></trkpt>
<trkpt lat="29.504983" lon="96.762835">
<time>2016-10-07T21:52:36Z</time></trkpt>
<trkpt lat="29.504993" lon="96.762765">
<time>2016-10-07T21:52:37Z</time></trkpt>
<trkpt lat="29.505033" lon="96.762555">
<time>2016-10-07T21:52:38Z</time></trkpt>
<trkpt lat="29.505113" lon="96.762235">
<time>2016-10-07T21:52:39Z</time></trkpt>
<trkpt lat="29.505193" lon="96.761954">
<time>2016-10-07T21:52:40Z</time></trkpt>
<trkpt lat="29.505252" lon="96.761744">
<time>2016-10-07T21:52:41Z</time></trkpt>
<trkpt lat="29.505362" lon="96.761324">
<time>2016-10-07T21:52:42Z</time></trkpt>
<trkpt lat="29.505472" lon="96.761024">
<time>2016-10-07T21:52:43Z</time></trkpt>
<trkpt lat="29.505542" lon="96.760844">
<time>2016-10-07T21:52:44Z</time></trkpt>
<trkpt lat="29.505832" lon="96.760284">
<time>2016-10-07T21:52:45Z</time></trkpt>
<trkpt lat="29.506171" lon="96.759624">
<time>2016-10-07T21:52:46Z</time></trkpt>
<trkpt lat="29.506301" lon="96.759353">
<time>2016-10-07T21:52:47Z</time></trkpt>
<trkpt lat="29.506411" lon="96.759113">
<time>2016-10-07T21:52:48Z</time></trkpt>
<trkpt lat="29.506491" lon="96.758903">
<time>2016-10-07T21:52:49Z</time></trkpt>
<trkpt lat="29.506571" lon="96.758723">
<time>2016-10-07T21:52:50Z</time></trkpt>
<trkpt lat="29.506651" lon="96.758573">
<time>2016-10-07T21:52:51Z</time></trkpt>
<trkpt lat="29.506731" lon="96.758443">
<time>2016-10-07T21:52:52Z</time></trkpt>
<trkpt lat="29.50686" lon="96.758223">
<time>2016-10-07T21:52:53Z</time></trkpt>
<trkpt lat="29.50701" lon="96.757963">
<time>2016-10-07T21:52:54Z</time></trkpt>
<trkpt lat="29.50722" lon="96.757523">
<time>2016-10-07T21:52:55Z</time></trkpt>
<trkpt lat="29.50738" lon="96.757193">
<time>2016-10-07T21:52:56Z</time></trkpt>
<trkpt lat="29.50754" lon="96.756923">
<time>2016-10-07T21:52:57Z</time></trkpt>
<trkpt lat="29.50764" lon="96.756753">
<time>2016-10-07T21:52:58Z</time></trkpt>
<trkpt lat="29.50769" lon="96.756663">
<time>2016-10-07T21:52:59Z</time></trkpt>
<trkpt lat="29.50773" lon="96.756573">
<time>2016-10-07T21:53:00Z</time></trkpt>
<trkpt lat="29.50776" lon="96.756463">
<time>2016-10-07T21:53:01Z</time></trkpt>
<trkpt lat="29.50778" lon="96.756403">
<time>2016-10-07T21:53:02Z</time></trkpt>
<trkpt lat="29.50779" lon="96.756303">
<time>2016-10-07T21:53:03Z</time></trkpt>
<trkpt lat="29.5078" lon="96.756223">
<time>2016-10-07T21:53:04Z</time></trkpt>
<trkpt lat="29.507799" lon="96.756073">
<time>2016-10-07T21:53:05Z</time></trkpt>
<trkpt lat="29.507799" lon="96.755472">
<time>2016-10-07T21:53:06Z</time></trkpt>
<trkpt lat="29.507789" lon="96.755342">
<time>2016-10-07T21:53:07Z</time></trkpt>
<trkpt lat="29.507779" lon="96.755242">
<time>2016-10-07T21:53:08Z</time></trkpt>
<trkpt lat="29.507769" lon="96.755162">
<time>2016-10-07T21:53:09Z</time></trkpt>
<trkpt lat="29.507759" lon="96.755092">
<time>2016-10-07T21:53:10Z</time></trkpt>
<trkpt lat="29.507749" lon="96.755022">
<time>2016-10-07T21:53:11Z</time></trkpt>
<trkpt lat="29.507729" lon="96.754962">
<time>2016-10-07T21:53:12Z</time></trkpt>
<trkpt lat="29.507699" lon="96.754892">
<time>2016-10-07T21:53:13Z</time></trkpt>
<trkpt lat="29.507669" lon="96.754812">
<time>2016-10-07T21:53:14Z</time></trkpt>
<trkpt lat="29.507599" lon="96.754662">
<time>2016-10-07T21:53:15Z</time></trkpt>
<trkpt lat="29.507459" lon="96.754332">
<time>2016-10-07T21:53:16Z</time></trkpt>
<trkpt lat="29.507349" lon="96.754102">
<time>2016-10-07T21:53:17Z</time></trkpt>
<trkpt lat="29.507139" lon="96.753672">
<time>2016-10-07T21:53:18Z</time></trkpt>
<trkpt lat="29.507009" lon="96.753382">
<time>2016-10-07T21:53:19Z</time></trkpt>
<trkpt lat="29.506879" lon="96.753092">
<time>2016-10-07T21:53:20Z</time></trkpt>
<trkpt lat="29.506489" lon="96.752222">
<time>2016-10-07T21:53:21Z</time></trkpt>
<trkpt lat="29.50606" lon="96.751302">
<time>2016-10-07T21:53:22Z</time></trkpt>
<trkpt lat="29.50598" lon="96.751152">
<time>2016-10-07T21:53:23Z</time></trkpt>
<trkpt lat="29.50594" lon="96.751082">
<time>2016-10-07T21:53:24Z</time></trkpt>
<trkpt lat="29.50591" lon="96.751002">
<time>2016-10-07T21:53:25Z</time></trkpt>
<trkpt lat="29.50587" lon="96.750882">
<time>2016-10-07T21:53:26Z</time></trkpt>
<trkpt lat="29.50582" lon="96.750752">
<time>2016-10-07T21:53:27Z</time></trkpt>
<trkpt lat="29.50561" lon="96.750332">
<time>2016-10-07T21:53:28Z</time></trkpt>
<trkpt lat="29.50547" lon="96.750042">
<time>2016-10-07T21:53:29Z</time></trkpt>
<trkpt lat="29.50541" lon="96.749912">
<time>2016-10-07T21:53:30Z</time></trkpt>
<trkpt lat="29.50534" lon="96.749752">
<time>2016-10-07T21:53:31Z</time></trkpt>
<trkpt lat="29.50514" lon="96.749332">
<time>2016-10-07T21:53:32Z</time></trkpt>
<trkpt lat="29.50494" lon="96.748872">
<time>2016-10-07T21:53:33Z</time></trkpt>
<trkpt lat="29.50489" lon="96.748762">
<time>2016-10-07T21:53:34Z</time></trkpt>
<trkpt lat="29.50484" lon="96.748612">
<time>2016-10-07T21:53:35Z</time></trkpt>
<trkpt lat="29.50481" lon="96.748492">
<time>2016-10-07T21:53:36Z</time></trkpt>
<trkpt lat="29.50479" lon="96.748362">
<time>2016-10-07T21:53:37Z</time></trkpt>
<trkpt lat="29.50479" lon="96.748212">
<time>2016-10-07T21:53:38Z</time></trkpt>
<trkpt lat="29.5048" lon="96.748072">
<time>2016-10-07T21:53:39Z</time></trkpt>
<trkpt lat="29.50482" lon="96.747932">
<time>2016-10-07T21:53:40Z</time></trkpt>
<trkpt lat="29.50486" lon="96.747792">
<time>2016-10-07T21:53:41Z</time></trkpt>
<trkpt lat="29.5049" lon="96.747663">
<time>2016-10-07T21:53:42Z</time></trkpt>
<trkpt lat="29.50497" lon="96.747523">
<time>2016-10-07T21:53:43Z</time></trkpt>
<trkpt lat="29.50506" lon="96.747383">
<time>2016-10-07T21:53:44Z</time></trkpt>
<trkpt lat="29.50514" lon="96.747293">
<time>2016-10-07T21:53:45Z</time></trkpt>
<trkpt lat="29.50528" lon="96.747123">
<time>2016-10-07T21:53:46Z</time></trkpt>
<trkpt lat="29.50534" lon="96.747033">
<time>2016-10-07T21:53:47Z</time></trkpt>
<trkpt lat="29.50545" lon="96.746863">
<time>2016-10-07T21:53:48Z</time></trkpt>
<trkpt lat="29.50553" lon="96.746743">
<time>2016-10-07T21:53:49Z</time></trkpt>
<trkpt lat="29.50565" lon="96.746573">
<time>2016-10-07T21:53:50Z</time></trkpt>
<trkpt lat="29.50587" lon="96.746273">
<time>2016-10-07T21:53:51Z</time></trkpt>
<trkpt lat="29.50598" lon="96.746083">
<time>2016-10-07T21:53:52Z</time></trkpt>
<trkpt lat="29.50604" lon="96.745953">
<time>2016-10-07T21:53:53Z</time></trkpt>
<trkpt lat="29.5061" lon="96.745813">
<time>2016-10-07T21:53:54Z</time></trkpt>
<trkpt lat="29.50613" lon="96.745723">
<time>2016-10-07T21:53:55Z</time></trkpt>
<trkpt lat="29.50615" lon="96.745643">
<time>2016-10-07T21:53:56Z</time></trkpt>
<trkpt lat="29.50617" lon="96.745563">
<time>2016-10-07T21:53:57Z</time></trkpt>
<trkpt lat="29.50619" lon="96.745403">
<time>2016-10-07T21:53:58Z</time></trkpt>
<trkpt lat="29.50619" lon="96.745283">
<time>2016-10-07T21:53:59Z</time></trkpt>
<trkpt lat="29.50619" lon="96.745153">
<time>2016-10-07T21:54:00Z</time></trkpt>
<trkpt lat="29.50618" lon="96.744993">
<time>2016-10-07T21:54:01Z</time></trkpt>
<trkpt lat="29.50613" lon="96.744643">
<time>2016-10-07T21:54:02Z</time></trkpt>
<trkpt lat="29.50609" lon="96.744303">
<time>2016-10-07T21:54:03Z</time></trkpt>
<trkpt lat="29.50603" lon="96.743883">
<time>2016-10-07T21:54:04Z</time></trkpt>
<trkpt lat="29.50597" lon="96.743494">
<time>2016-10-07T21:54:05Z</time></trkpt>
<trkpt lat="29.50593" lon="96.743164">
<time>2016-10-07T21:54:06Z</time></trkpt>
<trkpt lat="29.505901" lon="96.742874">
<time>2016-10-07T21:54:07Z</time></trkpt>
<trkpt lat="29.505891" lon="96.742644">
<time>2016-10-07T21:54:08Z</time></trkpt>
<trkpt lat="29.505901" lon="96.742274">
<time>2016-10-07T21:54:09Z</time></trkpt>
<trkpt lat="29.505911" lon="96.741894">
<time>2016-10-07T21:54:10Z</time></trkpt>
<trkpt lat="29.505931" lon="96.741504">
<time>2016-10-07T21:54:11Z</time></trkpt>
<trkpt lat="29.505931" lon="96.741264">
<time>2016-10-07T21:54:12Z</time></trkpt>
<trkpt lat="29.505941" lon="96.741114">
<time>2016-10-07T21:54:13Z</time></trkpt>
<trkpt lat="29.505971" lon="96.740935">
<time>2016-10-07T21:54:14Z</time></trkpt>
<trkpt lat="29.506001" lon="96.740705">
<time>2016-10-07T21:54:15Z</time></trkpt>
<trkpt lat="29.506021" lon="96.740535">
<time>2016-10-07T21:54:16Z</time></trkpt>
<trkpt lat="29.506021" lon="96.740385">
<time>2016-10-07T21:54:17Z</time></trkpt>
<trkpt lat="29.506021" lon="96.740255">
<time>2016-10-07T21:54:18Z</time></trkpt>
<trkpt lat="29.506011" lon="96.740095">
<time>2016-10-07T21:54:19Z</time></trkpt>
<trkpt lat="29.505982" lon="96.739845">
<time>2016-10-07T21:54:20Z</time></trkpt>
<trkpt lat="29.505932" lon="96.739375">
<time>2016-10-07T21:54:21Z</time></trkpt>
<trkpt lat="29.505882" lon="96.738996">
<time>2016-10-07T21:54:22Z</time></trkpt>
<trkpt lat="29.505872" lon="96.738896">
<time>2016-10-07T21:54:23Z</time></trkpt>
<trkpt lat="29.505852" lon="96.738766">
<time>2016-10-07T21:54:24Z</time></trkpt>
<trkpt lat="29.505822" lon="96.738636">
<time>2016-10-07T21:54:25Z</time></trkpt>
<trkpt lat="29.505792" lon="96.738536">
<time>2016-10-07T21:54:26Z</time></trkpt>
<trkpt lat="29.505732" lon="96.738306">
<time>2016-10-07T21:54:27Z</time></trkpt>
<trkpt lat="29.505702" lon="96.738166">
<time>2016-10-07T21:54:28Z</time></trkpt>
<trkpt lat="29.505682" lon="96.738046">
<time>2016-10-07T21:54:29Z</time></trkpt>
<trkpt lat="29.505672" lon="96.737946">
<time>2016-10-07T21:54:30Z</time></trkpt>
<trkpt lat="29.505673" lon="96.737826">
<time>2016-10-07T21:54:31Z</time></trkpt>
<trkpt lat="29.505673" lon="96.737656">
<time>2016-10-07T21:54:32Z</time></trkpt>
<trkpt lat="29.505683" lon="96.737217">
<time>2016-10-07T21:54:33Z</time></trkpt>
<trkpt lat="29.505673" lon="96.737017">
<time>2016-10-07T21:54:34Z</time></trkpt>
<trkpt lat="29.505653" lon="96.736817">
<time>2016-10-07T21:54:35Z</time></trkpt>
<trkpt lat="29.505623" lon="96.736447">
<time>2016-10-07T21:54:36Z</time></trkpt>
<trkpt lat="29.505603" lon="96.736237">
<time>2016-10-07T21:54:37Z</time></trkpt>
<trkpt lat="29.505583" lon="96.736117">
<time>2016-10-07T21:54:38Z</time></trkpt>
<trkpt lat="29.505553" lon="96.736017">
<time>2016-10-07T21:54:39Z</time></trkpt>
<trkpt lat="29.505524" lon="96.735907">
<time>2016-10-07T21:54:40Z</time></trkpt>
<trkpt lat="29.505474" lon="96.735787">
<time>2016-10-07T21:54:41Z</time></trkpt>
<trkpt lat="29.505414" lon="96.735658">
<time>2016-10-07T21:54:42Z</time></trkpt>
<trkpt lat="29.505284" lon="96.735418">
<time>2016-10-07T21:54:43Z</time></trkpt>
<trkpt lat="29.505194" lon="96.735238">
<time>2016-10-07T21:54:44Z</time></trkpt>
<trkpt lat="29.505134" lon="96.735138">
<time>2016-10-07T21:54:45Z</time></trkpt>
<trkpt lat="29.505054" lon="96.734978">
<time>2016-10-07T21:54:46Z</time></trkpt>
<trkpt lat="29.504974" lon="96.734838">
<time>2016-10-07T21:54:47Z</time></trkpt>
<trkpt lat="29.504884" lon="96.734668">
<time>2016-10-07T21:54:48Z</time></trkpt>
<trkpt lat="29.504785" lon="96.734488">
<time>2016-10-07T21:54:49Z</time></trkpt>
<trkpt lat="29.504725" lon="96.734378">
<time>2016-10-07T21:54:50Z</time></trkpt>
<trkpt lat="29.504665" lon="96.734278">
<time>2016-10-07T21:54:51Z</time></trkpt>
<trkpt lat="29.504625" lon="96.734219">
<time>2016-10-07T21:54:52Z</time></trkpt>
<trkpt lat="29.504555" lon="96.734139">
<time>2016-10-07T21:54:53Z</time></trkpt>
<trkpt lat="29.504495" lon="96.734069">
<time>2016-10-07T21:54:54Z</time></trkpt>
<trkpt lat="29.504435" lon="96.734009">
<time>2016-10-07T21:54:55Z</time></trkpt>
<trkpt lat="29.504365" lon="96.733949">
<time>2016-10-07T21:54:56Z</time></trkpt>
<trkpt lat="29.504285" lon="96.733899">
<time>2016-10-07T21:54:57Z</time></trkpt>
<trkpt lat="29.504195" lon="96.733849">
<time>2016-10-07T21:54:58Z</time></trkpt>
<trkpt lat="29.504125" lon="96.733809">
<time>2016-10-07T21:54:59Z</time></trkpt>
<trkpt lat="29.504025" lon="96.733779">
<time>2016-10-07T21:55:00Z</time></trkpt>
<trkpt lat="29.503855" lon="96.733729">
<time>2016-10-07T21:55:01Z</time></trkpt>
<trkpt lat="29.503646" lon="96.733669">
<time>2016-10-07T21:55:02Z</time></trkpt>
<trkpt lat="29.503326" lon="96.733589">
<time>2016-10-07T21:55:03Z</time></trkpt>
<trkpt lat="29.503116" lon="96.733539">
<time>2016-10-07T21:55:04Z</time></trkpt>
<trkpt lat="29.502856" lon="96.733469">
<time>2016-10-07T21:55:05Z</time></trkpt>
<trkpt lat="29.502606" lon="96.733409">
<time>2016-10-07T21:55:06Z</time></trkpt>
<trkpt lat="29.502346" lon="96.733349">
<time>2016-10-07T21:55:07Z</time></trkpt>
<trkpt lat="29.502116" lon="96.733289">
<time>2016-10-07T21:55:08Z</time></trkpt>
<trkpt lat="29.501937" lon="96.733229">
<time>2016-10-07T21:55:09Z</time></trkpt>
<trkpt lat="29.501817" lon="96.733199">
<time>2016-10-07T21:55:10Z</time></trkpt>
<trkpt lat="29.501737" lon="96.733149">
<time>2016-10-07T21:55:11Z</time></trkpt>
<trkpt lat="29.501667" lon="96.733099">
<time>2016-10-07T21:55:12Z</time></trkpt>
<trkpt lat="29.501617" lon="96.733049">
<time>2016-10-07T21:55:13Z</time></trkpt>
<trkpt lat="29.501567" lon="96.732969">
<time>2016-10-07T21:55:14Z</time></trkpt>
<trkpt lat="29.501537" lon="96.7329">
<time>2016-10-07T21:55:15Z</time></trkpt>
<trkpt lat="29.501527" lon="96.73283">
<time>2016-10-07T21:55:16Z</time></trkpt>
<trkpt lat="29.501517" lon="96.73274">
<time>2016-10-07T21:55:17Z</time></trkpt>
<trkpt lat="29.501517" lon="96.73266">
<time>2016-10-07T21:55:18Z</time></trkpt>
<trkpt lat="29.501527" lon="96.7326">
<time>2016-10-07T21:55:19Z</time></trkpt>
<trkpt lat="29.501537" lon="96.73254">
<time>2016-10-07T21:55:20Z</time></trkpt>
<trkpt lat="29.501557" lon="96.73248">
<time>2016-10-07T21:55:21Z</time></trkpt>
<trkpt lat="29.501597" lon="96.73242">
<time>2016-10-07T21:55:22Z</time></trkpt>
<trkpt lat="29.501647" lon="96.73236">
<time>2016-10-07T21:55:23Z</time></trkpt>
<trkpt lat="29.501717" lon="96.7323">
<time>2016-10-07T21:55:24Z</time></trkpt>
<trkpt lat="29.501777" lon="96.73226">
<time>2016-10-07T21:55:25Z</time></trkpt>
<trkpt lat="29.501877" lon="96.73221">
<time>2016-10-07T21:55:26Z</time></trkpt>
<trkpt lat="29.502037" lon="96.73214">
<time>2016-10-07T21:55:27Z</time></trkpt>
<trkpt lat="29.502127" lon="96.7321">
<time>2016-10-07T21:55:28Z</time></trkpt>
<trkpt lat="29.502227" lon="96.73204">
<time>2016-10-07T21:55:29Z</time></trkpt>
<trkpt lat="29.502337" lon="96.73195">
<time>2016-10-07T21:55:30Z</time></trkpt>
<trkpt lat="29.502447" lon="96.73183">
<time>2016-10-07T21:55:31Z</time></trkpt>
<trkpt lat="29.502517" lon="96.73173">
<time>2016-10-07T21:55:32Z</time></trkpt>
<trkpt lat="29.502807" lon="96.731321">
<time>2016-10-07T21:55:33Z</time></trkpt>
<trkpt lat="29.503088" lon="96.730901">
<time>2016-10-07T21:55:34Z</time></trkpt>
<trkpt lat="29.503388" lon="96.730482">
<time>2016-10-07T21:55:35Z</time></trkpt>
<trkpt lat="29.503658" lon="96.730082">
<time>2016-10-07T21:55:36Z</time></trkpt>
<trkpt lat="29.503828" lon="96.729832">
<time>2016-10-07T21:55:37Z</time></trkpt>
<trkpt lat="29.503938" lon="96.729662">
<time>2016-10-07T21:55:38Z</time></trkpt>
<trkpt lat="29.503998" lon="96.729542">
<time>2016-10-07T21:55:39Z</time></trkpt>
<trkpt lat="29.504078" lon="96.729392">
<time>2016-10-07T21:55:40Z</time></trkpt>
<trkpt lat="29.504189" lon="96.729103">
<time>2016-10-07T21:55:41Z</time></trkpt>
<trkpt lat="29.504369" lon="96.728583">
<time>2016-10-07T21:55:42Z</time></trkpt>
<trkpt lat="29.504499" lon="96.728224">
<time>2016-10-07T21:55:43Z</time></trkpt>
<trkpt lat="29.504589" lon="96.727974">
<time>2016-10-07T21:55:44Z</time></trkpt>
<trkpt lat="29.504639" lon="96.727814">
<time>2016-10-07T21:55:45Z</time></trkpt>
<trkpt lat="29.504659" lon="96.727744">
<time>2016-10-07T21:55:46Z</time></trkpt>
<trkpt lat="29.504679" lon="96.727654">
<time>2016-10-07T21:55:47Z</time></trkpt>
<trkpt lat="29.50469" lon="96.727544">
<time>2016-10-07T21:55:48Z</time></trkpt>
<trkpt lat="29.50469" lon="96.727404">
<time>2016-10-07T21:55:49Z</time></trkpt>
<trkpt lat="29.50469" lon="96.727264">
<time>2016-10-07T21:55:50Z</time></trkpt>
<trkpt lat="29.50468" lon="96.727155">
<time>2016-10-07T21:55:51Z</time></trkpt>
<trkpt lat="29.50464" lon="96.726855">
<time>2016-10-07T21:55:52Z</time></trkpt>
<trkpt lat="29.50461" lon="96.726575">
<time>2016-10-07T21:55:53Z</time></trkpt>
<trkpt lat="29.504591" lon="96.726355">
<time>2016-10-07T21:55:54Z</time></trkpt>
<trkpt lat="29.504591" lon="96.726176">
<time>2016-10-07T21:55:55Z</time></trkpt>
<trkpt lat="29.504591" lon="96.726026">
<time>2016-10-07T21:55:56Z</time></trkpt>
<trkpt lat="29.504581" lon="96.725886">
<time>2016-10-07T21:55:57Z</time></trkpt>
<trkpt lat="29.504561" lon="96.725766">
<time>2016-10-07T21:55:58Z</time></trkpt>
<trkpt lat="29.504541" lon="96.725696">
<time>2016-10-07T21:55:59Z</time></trkpt>
<trkpt lat="29.504521" lon="96.725626">
<time>2016-10-07T21:56:00Z</time></trkpt>
<trkpt lat="29.504481" lon="96.725536">
<time>2016-10-07T21:56:01Z</time></trkpt>
<trkpt lat="29.504441" lon="96.725456">
<time>2016-10-07T21:56:02Z</time></trkpt>
<trkpt lat="29.504242" lon="96.725077">
<time>2016-10-07T21:56:03Z</time></trkpt>
<trkpt lat="29.503992" lon="96.724547">
<time>2016-10-07T21:56:04Z</time></trkpt>
<trkpt lat="29.503653" lon="96.723748">
<time>2016-10-07T21:56:05Z</time></trkpt>
<trkpt lat="29.503424" lon="96.723239">
<time>2016-10-07T21:56:06Z</time></trkpt>
<trkpt lat="29.503284" lon="96.722969">
<time>2016-10-07T21:56:07Z</time></trkpt>
<trkpt lat="29.503135" lon="96.722669">
<time>2016-10-07T21:56:08Z</time></trkpt>
<trkpt lat="29.502995" lon="96.72245">
<time>2016-10-07T21:56:09Z</time></trkpt>
<trkpt lat="29.502875" lon="96.72226">
<time>2016-10-07T21:56:10Z</time></trkpt>
<trkpt lat="29.502715" lon="96.72204">
<time>2016-10-07T21:56:11Z</time></trkpt>
<trkpt lat="29.502416" lon="96.721651">
<time>2016-10-07T21:56:12Z</time></trkpt>
<trkpt lat="29.502097" lon="96.721221">
<time>2016-10-07T21:56:13Z</time></trkpt>
<trkpt lat="29.501817" lon="96.720852">
<time>2016-10-07T21:56:14Z</time></trkpt>
<trkpt lat="29.501518" lon="96.720432">
<time>2016-10-07T21:56:15Z</time></trkpt>
<trkpt lat="29.501178" lon="96.719943">
<time>2016-10-07T21:56:16Z</time></trkpt>
<trkpt lat="29.501069" lon="96.719783">
<time>2016-10-07T21:56:17Z</time></trkpt>
<trkpt lat="29.500939" lon="96.719613">
<time>2016-10-07T21:56:18Z</time></trkpt>
<trkpt lat="29.500779" lon="96.719433">
<time>2016-10-07T21:56:19Z</time></trkpt>
<trkpt lat="29.500639" lon="96.719264">
<time>2016-10-07T21:56:20Z</time></trkpt>
<trkpt lat="29.50052" lon="96.719094">
<time>2016-10-07T21:56:21Z</time></trkpt>
<trkpt lat="29.50025" lon="96.718704">
<time>2016-10-07T21:56:22Z</time></trkpt>
<trkpt lat="29.50004" lon="96.718415">
<time>2016-10-07T21:56:23Z</time></trkpt>
<trkpt lat="29.500001" lon="96.718365">
<time>2016-10-07T21:56:24Z</time></trkpt>
<trkpt lat="29.499891" lon="96.718225">
<time>2016-10-07T21:56:25Z</time></trkpt>
<trkpt lat="29.499801" lon="96.718105">
<time>2016-10-07T21:56:26Z</time></trkpt>
<trkpt lat="29.499681" lon="96.717945">
<time>2016-10-07T21:56:27Z</time></trkpt>
<trkpt lat="29.499492" lon="96.717696">
<time>2016-10-07T21:56:28Z</time></trkpt>
<trkpt lat="29.499372" lon="96.717546">
<time>2016-10-07T21:56:29Z</time></trkpt>
<trkpt lat="29.499242" lon="96.717376">
<time>2016-10-07T21:56:30Z</time></trkpt>
<trkpt lat="29.499052" lon="96.717147">
<time>2016-10-07T21:56:31Z</time></trkpt>
<trkpt lat="29.498973" lon="96.717027">
<time>2016-10-07T21:56:32Z</time></trkpt>
<trkpt lat="29.498883" lon="96.716907">
<time>2016-10-07T21:56:33Z</time></trkpt>
<trkpt lat="29.498753" lon="96.716727">
<time>2016-10-07T21:56:34Z</time></trkpt>
<trkpt lat="29.498593" lon="96.716527">
<time>2016-10-07T21:56:35Z</time></trkpt>
<trkpt lat="29.498384" lon="96.716218">
<time>2016-10-07T21:56:36Z</time></trkpt>
<trkpt lat="29.498304" lon="96.716098">
<time>2016-10-07T21:56:37Z</time></trkpt>
<trkpt lat="29.498174" lon="96.715918">
<time>2016-10-07T21:56:38Z</time></trkpt>
<trkpt lat="29.498025" lon="96.715718">
<time>2016-10-07T21:56:39Z</time></trkpt>
<trkpt lat="29.497985" lon="96.715649">
<time>2016-10-07T21:56:40Z</time></trkpt>
<trkpt lat="29.497935" lon="96.715599">
<time>2016-10-07T21:56:41Z</time></trkpt>
<trkpt lat="29.497875" lon="96.715539">
<time>2016-10-07T21:56:42Z</time></trkpt>
<trkpt lat="29.497825" lon="96.715489">
<time>2016-10-07T21:56:43Z</time></trkpt>
<trkpt lat="29.497755" lon="96.715429">
<time>2016-10-07T21:56:44Z</time></trkpt>
<trkpt lat="29.497655" lon="96.715369">
<time>2016-10-07T21:56:45Z</time></trkpt>
<trkpt lat="29.497535" lon="96.715319">
<time>2016-10-07T21:56:46Z</time></trkpt>
<trkpt lat="29.497465" lon="96.715289">
<time>2016-10-07T21:56:47Z</time></trkpt>
<trkpt lat="29.497305" lon="96.715239">
<time>2016-10-07T21:56:48Z</time></trkpt>
<trkpt lat="29.497215" lon="96.715219">
<time>2016-10-07T21:56:49Z</time></trkpt>
<trkpt lat="29.497106" lon="96.715199">
<time>2016-10-07T21:56:50Z</time></trkpt>
<trkpt lat="29.496986" lon="96.715199">
<time>2016-10-07T21:56:51Z</time></trkpt>
<trkpt lat="29.496866" lon="96.715199">
<time>2016-10-07T21:56:52Z</time></trkpt>
<trkpt lat="29.496636" lon="96.715229">
<time>2016-10-07T21:56:53Z</time></trkpt>
<trkpt lat="29.496226" lon="96.715309">
<time>2016-10-07T21:56:54Z</time></trkpt>
<trkpt lat="29.496036" lon="96.715319">
<time>2016-10-07T21:56:55Z</time></trkpt>
<trkpt lat="29.495866" lon="96.715299">
<time>2016-10-07T21:56:56Z</time></trkpt>
<trkpt lat="29.495826" lon="96.715289">
<time>2016-10-07T21:56:57Z</time></trkpt>
<trkpt lat="29.495786" lon="96.715279">
<time>2016-10-07T21:56:58Z</time></trkpt>
<trkpt lat="29.495746" lon="96.715269">
<time>2016-10-07T21:56:59Z</time></trkpt>
<trkpt lat="29.495686" lon="96.715229">
<time>2016-10-07T21:57:00Z</time></trkpt>
<trkpt lat="29.495636" lon="96.715179">
<time>2016-10-07T21:57:01Z</time></trkpt>
<trkpt lat="29.495596" lon="96.715129">
<time>2016-10-07T21:57:02Z</time></trkpt>
<trkpt lat="29.495506" lon="96.715">
<time>2016-10-07T21:57:03Z</time></trkpt>
<trkpt lat="29.495427" lon="96.71487">
<time>2016-10-07T21:57:04Z</time></trkpt>
<trkpt lat="29.495377" lon="96.71476">
<time>2016-10-07T21:57:05Z</time></trkpt>
<trkpt lat="29.495187" lon="96.71446">
<time>2016-10-07T21:57:06Z</time></trkpt>
<trkpt lat="29.495117" lon="96.714341">
<time>2016-10-07T21:57:07Z</time></trkpt>
<trkpt lat="29.495018" lon="96.714201">
<time>2016-10-07T21:57:08Z</time></trkpt>
<trkpt lat="29.494808" lon="96.713881">
<time>2016-10-07T21:57:09Z</time></trkpt>
<trkpt lat="29.494698" lon="96.713721">
<time>2016-10-07T21:57:10Z</time></trkpt>
<trkpt lat="29.494649" lon="96.713652">
<time>2016-10-07T21:57:11Z</time></trkpt>
<trkpt lat="29.494509" lon="96.713422">
<time>2016-10-07T21:57:12Z</time></trkpt>
<trkpt lat="29.494429" lon="96.713312">
<time>2016-10-07T21:57:13Z</time></trkpt>
<trkpt lat="29.494329" lon="96.713172">
<time>2016-10-07T21:57:14Z</time></trkpt>
<trkpt lat="29.49423" lon="96.713012">
<time>2016-10-07T21:57:15Z</time></trkpt>
<trkpt lat="29.49419" lon="96.712933">
<time>2016-10-07T21:57:16Z</time></trkpt>
<trkpt lat="29.49415" lon="96.712863">
<time>2016-10-07T21:57:17Z</time></trkpt>
<trkpt lat="29.49408" lon="96.712733">
<time>2016-10-07T21:57:18Z</time></trkpt>
<trkpt lat="29.49405" lon="96.712673">
<time>2016-10-07T21:57:19Z</time></trkpt>
<trkpt lat="29.49397" lon="96.712563">
<time>2016-10-07T21:57:20Z</time></trkpt>
<trkpt lat="29.4939" lon="96.712453">
<time>2016-10-07T21:57:21Z</time></trkpt>
<trkpt lat="29.49385" lon="96.712393">
<time>2016-10-07T21:57:22Z</time></trkpt>
<trkpt lat="29.493801" lon="96.712343">
<time>2016-10-07T21:57:23Z</time></trkpt>
<trkpt lat="29.493701" lon="96.712244">
<time>2016-10-07T21:57:24Z</time></trkpt>
<trkpt lat="29.493631" lon="96.712184">
<time>2016-10-07T21:57:25Z</time></trkpt>
<trkpt lat="29.493471" lon="96.712034">
<time>2016-10-07T21:57:26Z</time></trkpt>
<trkpt lat="29.493351" lon="96.711934">
<time>2016-10-07T21:57:27Z</time></trkpt>
<trkpt lat="29.493222" lon="96.711814">
<time>2016-10-07T21:57:28Z</time></trkpt>
<trkpt lat="29.493112" lon="96.711704">
<time>2016-10-07T21:57:29Z</time></trkpt>
<trkpt lat="29.493052" lon="96.711645">
<time>2016-10-07T21:57:30Z</time></trkpt>
<trkpt lat="29.492962" lon="96.711535">
<time>2016-10-07T21:57:31Z</time></trkpt>
<trkpt lat="29.492912" lon="96.711485">
<time>2016-10-07T21:57:32Z</time></trkpt>
<trkpt lat="29.492862" lon="96.711415">
<time>2016-10-07T21:57:33Z</time></trkpt>
<trkpt lat="29.492822" lon="96.711355">
<time>2016-10-07T21:57:34Z</time></trkpt>
<trkpt lat="29.492752" lon="96.711255">
<time>2016-10-07T21:57:35Z</time></trkpt>
<trkpt lat="29.492713" lon="96.711205">
<time>2016-10-07T21:57:36Z</time></trkpt>
<trkpt lat="29.492683" lon="96.711145">
<time>2016-10-07T21:57:37Z</time></trkpt>
<trkpt lat="29.492663" lon="96.711115">
<time>2016-10-07T21:57:38Z</time></trkpt>
<trkpt lat="29.492633" lon="96.711055">
<time>2016-10-07T21:57:39Z</time></trkpt>
<trkpt lat="29.492603" lon="96.711006">
<time>2016-10-07T21:57:40Z</time></trkpt>
<trkpt lat="29.492593" lon="96.710946">
<time>2016-10-07T21:57:41Z</time></trkpt>
<trkpt lat="29.492573" lon="96.710876">
<time>2016-10-07T21:57:42Z</time></trkpt>
<trkpt lat="29.492563" lon="96.710746">
<time>2016-10-07T21:57:43Z</time></trkpt>
<trkpt lat="29.492573" lon="96.710666">
<time>2016-10-07T21:57:44Z</time></trkpt>
<trkpt lat="29.492604" lon="96.710436">
<time>2016-10-07T21:57:45Z</time></trkpt>
<trkpt lat="29.492654" lon="96.710207">
<time>2016-10-07T21:57:46Z</time></trkpt>
<trkpt lat="29.492744" lon="96.709917">
<time>2016-10-07T21:57:47Z</time></trkpt>
<trkpt lat="29.492905" lon="96.709438">
<time>2016-10-07T21:57:48Z</time></trkpt>
<trkpt lat="29.492945" lon="96.709298">
<time>2016-10-07T21:57:49Z</time></trkpt>
<trkpt lat="29.493045" lon="96.708989">
<time>2016-10-07T21:57:50Z</time></trkpt>
<trkpt lat="29.493146" lon="96.708709">
<time>2016-10-07T21:57:51Z</time></trkpt>
<trkpt lat="29.493226" lon="96.70847">
<time>2016-10-07T21:57:52Z</time></trkpt>
<trkpt lat="29.493296" lon="96.70826">
<time>2016-10-07T21:57:53Z</time></trkpt>
<trkpt lat="29.493377" lon="96.70806">
<time>2016-10-07T21:57:54Z</time></trkpt>
<trkpt lat="29.493497" lon="96.707691">
<time>2016-10-07T21:57:55Z</time></trkpt>
<trkpt lat="29.493608" lon="96.707331">
<time>2016-10-07T21:57:56Z</time></trkpt>
<trkpt lat="29.493688" lon="96.707042">
<time>2016-10-07T21:57:57Z</time></trkpt>
<trkpt lat="29.493708" lon="96.706932">
<time>2016-10-07T21:57:58Z</time></trkpt>
<trkpt lat="29.493748" lon="96.706792">
<time>2016-10-07T21:57:59Z</time></trkpt>
<trkpt lat="29.493768" lon="96.706692">
<time>2016-10-07T21:58:00Z</time></trkpt>
<trkpt lat="29.493779" lon="96.706603">
<time>2016-10-07T21:58:01Z</time></trkpt>
<trkpt lat="29.493809" lon="96.706433">
<time>2016-10-07T21:58:02Z</time></trkpt>
<trkpt lat="29.493819" lon="96.706383">
<time>2016-10-07T21:58:03Z</time></trkpt>
<trkpt lat="29.493829" lon="96.706273">
<time>2016-10-07T21:58:04Z</time></trkpt>
<trkpt lat="29.493849" lon="96.706093">
<time>2016-10-07T21:58:05Z</time></trkpt>
<trkpt lat="29.493859" lon="96.706034">
<time>2016-10-07T21:58:06Z</time></trkpt>
<trkpt lat="29.49388" lon="96.705904">
<time>2016-10-07T21:58:07Z</time></trkpt>
<trkpt lat="29.49391" lon="96.705734">
<time>2016-10-07T21:58:08Z</time></trkpt>
<trkpt lat="29.49394" lon="96.705614">
<time>2016-10-07T21:58:09Z</time></trkpt>
<trkpt lat="29.49401" lon="96.705385">
<time>2016-10-07T21:58:10Z</time></trkpt>
<trkpt lat="29.49406" lon="96.705215">
<time>2016-10-07T21:58:11Z</time></trkpt>
<trkpt lat="29.494191" lon="96.704876">
<time>2016-10-07T21:58:12Z</time></trkpt>
<trkpt lat="29.494271" lon="96.704626">
<time>2016-10-07T21:58:13Z</time></trkpt>
<trkpt lat="29.494362" lon="96.704386">
<time>2016-10-07T21:58:14Z</time></trkpt>
<trkpt lat="29.494462" lon="96.704097">
<time>2016-10-07T21:58:15Z</time></trkpt>
<trkpt lat="29.494512" lon="96.703957">
<time>2016-10-07T21:58:16Z</time></trkpt>
<trkpt lat="29.494572" lon="96.703787">
<time>2016-10-07T21:58:17Z</time></trkpt>
<trkpt lat="29.494673" lon="96.703468">
<time>2016-10-07T21:58:18Z</time></trkpt>
<trkpt lat="29.494713" lon="96.703348">
<time>2016-10-07T21:58:19Z</time></trkpt>
<trkpt lat="29.494773" lon="96.703129">
<time>2016-10-07T21:58:20Z</time></trkpt>
<trkpt lat="29.494824" lon="96.702899">
<time>2016-10-07T21:58:21Z</time></trkpt>
<trkpt lat="29.494904" lon="96.70239">
<time>2016-10-07T21:58:22Z</time></trkpt>
<trkpt lat="29.494955" lon="96.701941">
<time>2016-10-07T21:58:23Z</time></trkpt>
<trkpt lat="29.495006" lon="96.701352">
<time>2016-10-07T21:58:24Z</time></trkpt>
<trkpt lat="29.495016" lon="96.701082">
<time>2016-10-07T21:58:25Z</time></trkpt>
<trkpt lat="29.495037" lon="96.700773">
<time>2016-10-07T21:58:26Z</time></trkpt>
<trkpt lat="29.495047" lon="96.700623">
<time>2016-10-07T21:58:27Z</time></trkpt>
<trkpt lat="29.495057" lon="96.700413">
<time>2016-10-07T21:58:28Z</time></trkpt>
<trkpt lat="29.495048" lon="96.700144">
<time>2016-10-07T21:58:29Z</time></trkpt>
<trkpt lat="29.495038" lon="96.699835">
<time>2016-10-07T21:58:30Z</time></trkpt>
<trkpt lat="29.494999" lon="96.699525">
<time>2016-10-07T21:58:31Z</time></trkpt>
<trkpt lat="29.494969" lon="96.699276">
<time>2016-10-07T21:58:32Z</time></trkpt>
<trkpt lat="29.49492" lon="96.698796">
<time>2016-10-07T21:58:33Z</time></trkpt>
<trkpt lat="29.494891" lon="96.698547">
<time>2016-10-07T21:58:34Z</time></trkpt>
<trkpt lat="29.494881" lon="96.698417">
<time>2016-10-07T21:58:35Z</time></trkpt>
<trkpt lat="29.494802" lon="96.697998">
<time>2016-10-07T21:58:36Z</time></trkpt>
<trkpt lat="29.494752" lon="96.697738">
<time>2016-10-07T21:58:37Z</time></trkpt>
<trkpt lat="29.494623" lon="96.697259">
<time>2016-10-07T21:58:38Z</time></trkpt>
<trkpt lat="29.494553" lon="96.69702">
<time>2016-10-07T21:58:39Z</time></trkpt>
<trkpt lat="29.494424" lon="96.696591">
<time>2016-10-07T21:58:40Z</time></trkpt>
<trkpt lat="29.494335" lon="96.696311">
<time>2016-10-07T21:58:41Z</time></trkpt>
<trkpt lat="29.494275" lon="96.696102">
<time>2016-10-07T21:58:42Z</time></trkpt>
<trkpt lat="29.494096" lon="96.695503">
<time>2016-10-07T21:58:43Z</time></trkpt>
<trkpt lat="29.493997" lon="96.695213">
<time>2016-10-07T21:58:44Z</time></trkpt>
<trkpt lat="29.493887" lon="96.694924">
<time>2016-10-07T21:58:45Z</time></trkpt>
<trkpt lat="29.493678" lon="96.694295">
<time>2016-10-07T21:58:46Z</time></trkpt>
<trkpt lat="29.493589" lon="96.694026">
<time>2016-10-07T21:58:47Z</time></trkpt>
<trkpt lat="29.493459" lon="96.693676">
<time>2016-10-07T21:58:48Z</time></trkpt>
<trkpt lat="29.49333" lon="96.693337">
<time>2016-10-07T21:58:49Z</time></trkpt>
<trkpt lat="29.493111" lon="96.692638">
<time>2016-10-07T21:58:50Z</time></trkpt>
<trkpt lat="29.492992" lon="96.692289">
<time>2016-10-07T21:58:51Z</time></trkpt>
<trkpt lat="29.492793" lon="96.69175">
<time>2016-10-07T21:58:52Z</time></trkpt>
<trkpt lat="29.492505" lon="96.690732">
<time>2016-10-07T21:58:53Z</time></trkpt>
<trkpt lat="29.492436" lon="96.690383">
<time>2016-10-07T21:58:54Z</time></trkpt>
<trkpt lat="29.492396" lon="96.690024">
<time>2016-10-07T21:58:55Z</time></trkpt>
<trkpt lat="29.492397" lon="96.689834">
<time>2016-10-07T21:58:56Z</time></trkpt>
<trkpt lat="29.492397" lon="96.689724">
<time>2016-10-07T21:58:57Z</time></trkpt>
<trkpt lat="29.492407" lon="96.689575">
<time>2016-10-07T21:58:58Z</time></trkpt>
<trkpt lat="29.492407" lon="96.689485">
<time>2016-10-07T21:58:59Z</time></trkpt>
<trkpt lat="29.492428" lon="96.689335">
<time>2016-10-07T21:59:00Z</time></trkpt>
<trkpt lat="29.492448" lon="96.689185">
<time>2016-10-07T21:59:01Z</time></trkpt>
<trkpt lat="29.492458" lon="96.689125">
<time>2016-10-07T21:59:02Z</time></trkpt>
<trkpt lat="29.492468" lon="96.689036">
<time>2016-10-07T21:59:03Z</time></trkpt>
<trkpt lat="29.492528" lon="96.688806">
<time>2016-10-07T21:59:04Z</time></trkpt>
<trkpt lat="29.492579" lon="96.688617">
<time>2016-10-07T21:59:05Z</time></trkpt>
<trkpt lat="29.492609" lon="96.688517">
<time>2016-10-07T21:59:06Z</time></trkpt>
<trkpt lat="29.492679" lon="96.688347">
<time>2016-10-07T21:59:07Z</time></trkpt>
<trkpt lat="29.492709" lon="96.688257">
<time>2016-10-07T21:59:08Z</time></trkpt>
<trkpt lat="29.4928" lon="96.688018">
<time>2016-10-07T21:59:09Z</time></trkpt>
<trkpt lat="29.49288" lon="96.687778">
<time>2016-10-07T21:59:10Z</time></trkpt>
<trkpt lat="29.49295" lon="96.687599">
<time>2016-10-07T21:59:11Z</time></trkpt>
<trkpt lat="29.493001" lon="96.687469">
<time>2016-10-07T21:59:12Z</time></trkpt>
<trkpt lat="29.493091" lon="96.687209">
<time>2016-10-07T21:59:13Z</time></trkpt>
<trkpt lat="29.493151" lon="96.68703">
<time>2016-10-07T21:59:14Z</time></trkpt>
<trkpt lat="29.493171" lon="96.68698">
<time>2016-10-07T21:59:15Z</time></trkpt>
<trkpt lat="29.493272" lon="96.6867">
<time>2016-10-07T21:59:16Z</time></trkpt>
<trkpt lat="29.493332" lon="96.686521">
<time>2016-10-07T21:59:17Z</time></trkpt>
<trkpt lat="29.493362" lon="96.686401">
<time>2016-10-07T21:59:18Z</time></trkpt>
<trkpt lat="29.493383" lon="96.686271">
<time>2016-10-07T21:59:19Z</time></trkpt>
<trkpt lat="29.493393" lon="96.686182">
<time>2016-10-07T21:59:20Z</time></trkpt>
<trkpt lat="29.493393" lon="96.685952">
<time>2016-10-07T21:59:21Z</time></trkpt>
<trkpt lat="29.493393" lon="96.685862">
<time>2016-10-07T21:59:22Z</time></trkpt>
<trkpt lat="29.493374" lon="96.685713">
<time>2016-10-07T21:59:23Z</time></trkpt>
<trkpt lat="29.493344" lon="96.685523">
<time>2016-10-07T21:59:24Z</time></trkpt>
<trkpt lat="29.493304" lon="96.685363">
<time>2016-10-07T21:59:25Z</time></trkpt>
<trkpt lat="29.493255" lon="96.685144">
<time>2016-10-07T21:59:26Z</time></trkpt>
<trkpt lat="29.493225" lon="96.684994">
<time>2016-10-07T21:59:27Z</time></trkpt>
<trkpt lat="29.493146" lon="96.684665">
<time>2016-10-07T21:59:28Z</time></trkpt>
<trkpt lat="29.493056" lon="96.684276">
<time>2016-10-07T21:59:29Z</time></trkpt>
<trkpt lat="29.492997" lon="96.684016">
<time>2016-10-07T21:59:30Z</time></trkpt>
<trkpt lat="29.492977" lon="96.683906">
<time>2016-10-07T21:59:31Z</time></trkpt>
<trkpt lat="29.492878" lon="96.683487">
<time>2016-10-07T21:59:32Z</time></trkpt>
<trkpt lat="29.492809" lon="96.683178">
<time>2016-10-07T21:59:33Z</time></trkpt>
<trkpt lat="29.492779" lon="96.683018">
<time>2016-10-07T21:59:34Z</time></trkpt>
<trkpt lat="29.492739" lon="96.682888">
<time>2016-10-07T21:59:35Z</time></trkpt>
<trkpt lat="29.49271" lon="96.682719">
<time>2016-10-07T21:59:36Z</time></trkpt>
<trkpt lat="29.49264" lon="96.682429">
<time>2016-10-07T21:59:37Z</time></trkpt>
<trkpt lat="29.4926" lon="96.68228">
<time>2016-10-07T21:59:38Z</time></trkpt>
<trkpt lat="29.492571" lon="96.68214">
<time>2016-10-07T21:59:39Z</time></trkpt>
<trkpt lat="29.492561" lon="96.68208">
<time>2016-10-07T21:59:40Z</time></trkpt>
<trkpt lat="29.492531" lon="96.68194">
<time>2016-10-07T21:59:41Z</time></trkpt>
<trkpt lat="29.492491" lon="96.681801">
<time>2016-10-07T21:59:42Z</time></trkpt>
<trkpt lat="29.492472" lon="96.681701">
<time>2016-10-07T21:59:43Z</time></trkpt>
<trkpt lat="29.492462" lon="96.681631">
<time>2016-10-07T21:59:44Z</time></trkpt>
<trkpt lat="29.492432" lon="96.681521">
<time>2016-10-07T21:59:45Z</time></trkpt>
<trkpt lat="29.492402" lon="96.681442">
<time>2016-10-07T21:59:46Z</time></trkpt>
<trkpt lat="29.492333" lon="96.681222">
<time>2016-10-07T21:59:47Z</time></trkpt>
<trkpt lat="29.492313" lon="96.681172">
<time>2016-10-07T21:59:48Z</time></trkpt>
<trkpt lat="29.492243" lon="96.681042">
<time>2016-10-07T21:59:49Z</time></trkpt>
<trkpt lat="29.492163" lon="96.680923">
<time>2016-10-07T21:59:50Z</time></trkpt>
<trkpt lat="29.492034" lon="96.680723">
<time>2016-10-07T21:59:51Z</time></trkpt>
<trkpt lat="29.491994" lon="96.680683">
<time>2016-10-07T21:59:52Z</time></trkpt>
<trkpt lat="29.491954" lon="96.680623">
<time>2016-10-07T21:59:53Z</time></trkpt>
<trkpt lat="29.491824" lon="96.680444">
<time>2016-10-07T21:59:54Z</time></trkpt>
<trkpt lat="29.491645" lon="96.680194">
<time>2016-10-07T21:59:55Z</time></trkpt>
<trkpt lat="29.491475" lon="96.679955">
<time>2016-10-07T21:59:56Z</time></trkpt>
<trkpt lat="29.491396" lon="96.679835">
<time>2016-10-07T21:59:57Z</time></trkpt>
<trkpt lat="29.491296" lon="96.679715">
<time>2016-10-07T21:59:58Z</time></trkpt>
<trkpt lat="29.491206" lon="96.679585">
<time>2016-10-07T21:59:59Z</time></trkpt>
<trkpt lat="29.491086" lon="96.679406">
<time>2016-10-07T22:00:00Z</time></trkpt>
<trkpt lat="29.490997" lon="96.679266">
<time>2016-10-07T22:00:01Z</time></trkpt>
<trkpt lat="29.490917" lon="96.679116">
<time>2016-10-07T22:00:02Z</time></trkpt>
<trkpt lat="29.490847" lon="96.678967">
<time>2016-10-07T22:00:03Z</time></trkpt>
<trkpt lat="29.490808" lon="96.678867">
<time>2016-10-07T22:00:04Z</time></trkpt>
<trkpt lat="29.490778" lon="96.678757">
<time>2016-10-07T22:00:05Z</time></trkpt>
<trkpt lat="29.490748" lon="96.678647">
<time>2016-10-07T22:00:06Z</time></trkpt>
<trkpt lat="29.490718" lon="96.678468">
<time>2016-10-07T22:00:07Z</time></trkpt>
<trkpt lat="29.490649" lon="96.678029">
<time>2016-10-07T22:00:08Z</time></trkpt>
<trkpt lat="29.49058" lon="96.67757">
<time>2016-10-07T22:00:09Z</time></trkpt>
<trkpt lat="29.490521" lon="96.677181">
<time>2016-10-07T22:00:10Z</time></trkpt>
<trkpt lat="29.490491" lon="96.676981">
<time>2016-10-07T22:00:11Z</time></trkpt>
<trkpt lat="29.490422" lon="96.676492">
<time>2016-10-07T22:00:12Z</time></trkpt>
<trkpt lat="29.490403" lon="96.676352">
<time>2016-10-07T22:00:13Z</time></trkpt>
<trkpt lat="29.490333" lon="96.675933">
<time>2016-10-07T22:00:14Z</time></trkpt>
<trkpt lat="29.490294" lon="96.675654">
<time>2016-10-07T22:00:15Z</time></trkpt>
<trkpt lat="29.490274" lon="96.675524">
<time>2016-10-07T22:00:16Z</time></trkpt>
<trkpt lat="29.490245" lon="96.675285">
<time>2016-10-07T22:00:17Z</time></trkpt>
<trkpt lat="29.490235" lon="96.675205">
<time>2016-10-07T22:00:18Z</time></trkpt>
<trkpt lat="29.490215" lon="96.675085">
<time>2016-10-07T22:00:19Z</time></trkpt>
<trkpt lat="29.490206" lon="96.674866">
<time>2016-10-07T22:00:20Z</time></trkpt>
<trkpt lat="29.490216" lon="96.674696">
<time>2016-10-07T22:00:21Z</time></trkpt>
<trkpt lat="29.490226" lon="96.674566">
<time>2016-10-07T22:00:22Z</time></trkpt>
<trkpt lat="29.490246" lon="96.674417">
<time>2016-10-07T22:00:23Z</time></trkpt>
<trkpt lat="29.490287" lon="96.674157">
<time>2016-10-07T22:00:24Z</time></trkpt>
<trkpt lat="29.490297" lon="96.674097">
<time>2016-10-07T22:00:25Z</time></trkpt>
<trkpt lat="29.490297" lon="96.673968">
<time>2016-10-07T22:00:26Z</time></trkpt>
<trkpt lat="29.490297" lon="96.673898">
<time>2016-10-07T22:00:27Z</time></trkpt>
<trkpt lat="29.490287" lon="96.673818">
<time>2016-10-07T22:00:28Z</time></trkpt>
<trkpt lat="29.490268" lon="96.673728">
<time>2016-10-07T22:00:29Z</time></trkpt>
<trkpt lat="29.490248" lon="96.673658">
<time>2016-10-07T22:00:30Z</time></trkpt>
<trkpt lat="29.490218" lon="96.673598">
<time>2016-10-07T22:00:31Z</time></trkpt>
<trkpt lat="29.490168" lon="96.673509">
<time>2016-10-07T22:00:32Z</time></trkpt>
<trkpt lat="29.490128" lon="96.673459">
<time>2016-10-07T22:00:33Z</time></trkpt>
<trkpt lat="29.490068" lon="96.673399">
<time>2016-10-07T22:00:34Z</time></trkpt>
<trkpt lat="29.490009" lon="96.673339">
<time>2016-10-07T22:00:35Z</time></trkpt>
<trkpt lat="29.489949" lon="96.673279">
<time>2016-10-07T22:00:36Z</time></trkpt>
<trkpt lat="29.489839" lon="96.673169">
<time>2016-10-07T22:00:37Z</time></trkpt>
<trkpt lat="29.489669" lon="96.673">
<time>2016-10-07T22:00:38Z</time></trkpt>
<trkpt lat="29.48958" lon="96.67291">
<time>2016-10-07T22:00:39Z</time></trkpt>
<trkpt lat="29.48949" lon="96.67281">
<time>2016-10-07T22:00:40Z</time></trkpt>
<trkpt lat="29.48939" lon="96.6727">
<time>2016-10-07T22:00:41Z</time></trkpt>
<trkpt lat="29.489181" lon="96.672411">
<time>2016-10-07T22:00:42Z</time></trkpt>
<trkpt lat="29.488902" lon="96.671992">
<time>2016-10-07T22:00:43Z</time></trkpt>
<trkpt lat="29.488682" lon="96.671663">
<time>2016-10-07T22:00:44Z</time></trkpt>
<trkpt lat="29.488543" lon="96.671453">
<time>2016-10-07T22:00:45Z</time></trkpt>
<trkpt lat="29.488383" lon="96.671204">
<time>2016-10-07T22:00:46Z</time></trkpt>
<trkpt lat="29.488264" lon="96.671024">
<time>2016-10-07T22:00:47Z</time></trkpt>
<trkpt lat="29.488214" lon="96.670954">
<time>2016-10-07T22:00:48Z</time></trkpt>
<trkpt lat="29.488025" lon="96.670675">
<time>2016-10-07T22:00:49Z</time></trkpt>
<trkpt lat="29.487915" lon="96.670505">
<time>2016-10-07T22:00:50Z</time></trkpt>
<trkpt lat="29.487805" lon="96.670335">
<time>2016-10-07T22:00:51Z</time></trkpt>
<trkpt lat="29.487686" lon="96.670156">
<time>2016-10-07T22:00:52Z</time></trkpt>
<trkpt lat="29.487566" lon="96.669986">
<time>2016-10-07T22:00:53Z</time></trkpt>
<trkpt lat="29.487526" lon="96.669916">
<time>2016-10-07T22:00:54Z</time></trkpt>
<trkpt lat="29.487476" lon="96.669856">
<time>2016-10-07T22:00:55Z</time></trkpt>
<trkpt lat="29.487327" lon="96.669637">
<time>2016-10-07T22:00:56Z</time></trkpt>
<trkpt lat="29.487277" lon="96.669557">
<time>2016-10-07T22:00:57Z</time></trkpt>
<trkpt lat="29.487217" lon="96.669467">
<time>2016-10-07T22:00:58Z</time></trkpt>
<trkpt lat="29.487098" lon="96.669288">
<time>2016-10-07T22:00:59Z</time></trkpt>
<trkpt lat="29.487028" lon="96.669168">
<time>2016-10-07T22:01:00Z</time></trkpt>
<trkpt lat="29.486968" lon="96.669088">
<time>2016-10-07T22:01:01Z</time></trkpt>
<trkpt lat="29.486848" lon="96.668918">
<time>2016-10-07T22:01:02Z</time></trkpt>
<trkpt lat="29.486729" lon="96.668719">
<time>2016-10-07T22:01:03Z</time></trkpt>
<trkpt lat="29.486639" lon="96.668569">
<time>2016-10-07T22:01:04Z</time></trkpt>
<trkpt lat="29.486559" lon="96.668429">
<time>2016-10-07T22:01:05Z</time></trkpt>
<trkpt lat="29.48654" lon="96.66838">
<time>2016-10-07T22:01:06Z</time></trkpt>
<trkpt lat="29.48647" lon="96.66821">
<time>2016-10-07T22:01:07Z</time></trkpt>
<trkpt lat="29.48644" lon="96.66812">
<time>2016-10-07T22:01:08Z</time></trkpt>
<trkpt lat="29.4864" lon="96.668">
<time>2016-10-07T22:01:09Z</time></trkpt>
<trkpt lat="29.486361" lon="96.667851">
<time>2016-10-07T22:01:10Z</time></trkpt>
<trkpt lat="29.486331" lon="96.667691">
<time>2016-10-07T22:01:11Z</time></trkpt>
<trkpt lat="29.486301" lon="96.667571">
<time>2016-10-07T22:01:12Z</time></trkpt>
<trkpt lat="29.486291" lon="96.667482">
<time>2016-10-07T22:01:13Z</time></trkpt>
<trkpt lat="29.486262" lon="96.667372">
<time>2016-10-07T22:01:14Z</time></trkpt>
<trkpt lat="29.486252" lon="96.667272">
<time>2016-10-07T22:01:15Z</time></trkpt>
<trkpt lat="29.486232" lon="96.667212">
<time>2016-10-07T22:01:16Z</time></trkpt>
<trkpt lat="29.486232" lon="96.667192">
<time>2016-10-07T22:01:17Z</time></trkpt>
<trkpt lat="29.486202" lon="96.667013">
<time>2016-10-07T22:01:18Z</time></trkpt>
<trkpt lat="29.486183" lon="96.666923">
<time>2016-10-07T22:01:19Z</time></trkpt>
<trkpt lat="29.486163" lon="96.666823">
<time>2016-10-07T22:01:20Z</time></trkpt>
<trkpt lat="29.486153" lon="96.666753">
<time>2016-10-07T22:01:21Z</time></trkpt>
<trkpt lat="29.486133" lon="96.666653">
<time>2016-10-07T22:01:22Z</time></trkpt>
<trkpt lat="29.486093" lon="96.666474">
<time>2016-10-07T22:01:23Z</time></trkpt>
<trkpt lat="29.486083" lon="96.666434">
<time>2016-10-07T22:01:24Z</time></trkpt>
<trkpt lat="29.486064" lon="96.666344">
<time>2016-10-07T22:01:25Z</time></trkpt>
<trkpt lat="29.486044" lon="96.666204">
<time>2016-10-07T22:01:26Z</time></trkpt>
<trkpt lat="29.486024" lon="96.666144">
<time>2016-10-07T22:01:27Z</time></trkpt>
<trkpt lat="29.485984" lon="96.665955">
<time>2016-10-07T22:01:28Z</time></trkpt>
<trkpt lat="29.485945" lon="96.665785">
<time>2016-10-07T22:01:29Z</time></trkpt>
<trkpt lat="29.485925" lon="96.665735">
<time>2016-10-07T22:01:30Z</time></trkpt>
<trkpt lat="29.485895" lon="96.665655">
<time>2016-10-07T22:01:31Z</time></trkpt>
<trkpt lat="29.485875" lon="96.665586">
<time>2016-10-07T22:01:32Z</time></trkpt>
<trkpt lat="29.485835" lon="96.665496">
<time>2016-10-07T22:01:33Z</time></trkpt>
<trkpt lat="29.485796" lon="96.665386">
<time>2016-10-07T22:01:34Z</time></trkpt>
<trkpt lat="29.485756" lon="96.665296">
<time>2016-10-07T22:01:35Z</time></trkpt>
<trkpt lat="29.485686" lon="96.665186">
<time>2016-10-07T22:01:36Z</time></trkpt>
<trkpt lat="29.485547" lon="96.664937">
<time>2016-10-07T22:01:37Z</time></trkpt>
<trkpt lat="29.485467" lon="96.664807">
<time>2016-10-07T22:01:38Z</time></trkpt>
<trkpt lat="29.485397" lon="96.664687">
<time>2016-10-07T22:01:39Z</time></trkpt>
<trkpt lat="29.485277" lon="96.664508">
<time>2016-10-07T22:01:40Z</time></trkpt>
<trkpt lat="29.485178" lon="96.664348">
<time>2016-10-07T22:01:41Z</time></trkpt>
<trkpt lat="29.484969" lon="96.664009">
<time>2016-10-07T22:01:42Z</time></trkpt>
<trkpt lat="29.484759" lon="96.66366">
<time>2016-10-07T22:01:43Z</time></trkpt>
<trkpt lat="29.48456" lon="96.66334">
<time>2016-10-07T22:01:44Z</time></trkpt>
<trkpt lat="29.48445" lon="96.663171">
<time>2016-10-07T22:01:45Z</time></trkpt>
<trkpt lat="29.484331" lon="96.663011">
<time>2016-10-07T22:01:46Z</time></trkpt>
<trkpt lat="29.484261" lon="96.662941">
<time>2016-10-07T22:01:47Z</time></trkpt>
<trkpt lat="29.484231" lon="96.662911">
<time>2016-10-07T22:01:48Z</time></trkpt>
<trkpt lat="29.484201" lon="96.662881">
<time>2016-10-07T22:01:49Z</time></trkpt>
<trkpt lat="29.484151" lon="96.662841">
<time>2016-10-07T22:01:50Z</time></trkpt>
<trkpt lat="29.484021" lon="96.662762">
<time>2016-10-07T22:01:51Z</time></trkpt>
<trkpt lat="29.483902" lon="96.662702">
<time>2016-10-07T22:01:52Z</time></trkpt>
<trkpt lat="29.483822" lon="96.662652">
<time>2016-10-07T22:01:53Z</time></trkpt>
<trkpt lat="29.483752" lon="96.662622">
<time>2016-10-07T22:01:54Z</time></trkpt>
<trkpt lat="29.483702" lon="96.662572">
<time>2016-10-07T22:01:55Z</time></trkpt>
<trkpt lat="29.483672" lon="96.662552">
<time>2016-10-07T22:01:56Z</time></trkpt>
<trkpt lat="29.483652" lon="96.662532">
<time>2016-10-07T22:01:57Z</time></trkpt>
<trkpt lat="29.483632" lon="96.662512">
<time>2016-10-07T22:01:58Z</time></trkpt>
<trkpt lat="29.483602" lon="96.662462">
<time>2016-10-07T22:01:59Z</time></trkpt>
<trkpt lat="29.483572" lon="96.662412">
<time>2016-10-07T22:02:00Z</time></trkpt>
<trkpt lat="29.483562" lon="96.662352">
<time>2016-10-07T22:02:01Z</time></trkpt>
<trkpt lat="29.483552" lon="96.662303">
<time>2016-10-07T22:02:02Z</time></trkpt>
<trkpt lat="29.483553" lon="96.662263">
<time>2016-10-07T22:02:03Z</time></trkpt>
<trkpt lat="29.483553" lon="96.662213">
<time>2016-10-07T22:02:04Z</time></trkpt>
<trkpt lat="29.483563" lon="96.662123">
<time>2016-10-07T22:02:05Z</time></trkpt>
<trkpt lat="29.483583" lon="96.662073">
<time>2016-10-07T22:02:06Z</time></trkpt>
<trkpt lat="29.483603" lon="96.662023">
<time>2016-10-07T22:02:07Z</time></trkpt>
<trkpt lat="29.483653" lon="96.661913">
<time>2016-10-07T22:02:08Z</time></trkpt>
<trkpt lat="29.483713" lon="96.661774">
<time>2016-10-07T22:02:09Z</time></trkpt>
<trkpt lat="29.483753" lon="96.661694">
<time>2016-10-07T22:02:10Z</time></trkpt>
<trkpt lat="29.483774" lon="96.661634">
<time>2016-10-07T22:02:11Z</time></trkpt>
<trkpt lat="29.483814" lon="96.661564">
<time>2016-10-07T22:02:12Z</time></trkpt>
<trkpt lat="29.483854" lon="96.661434">
<time>2016-10-07T22:02:13Z</time></trkpt>
<trkpt lat="29.483874" lon="96.661364">
<time>2016-10-07T22:02:14Z</time></trkpt>
<trkpt lat="29.483894" lon="96.661255">
<time>2016-10-07T22:02:15Z</time></trkpt>
<trkpt lat="29.483894" lon="96.661125">
<time>2016-10-07T22:02:16Z</time></trkpt>
<trkpt lat="29.483895" lon="96.661075">
<time>2016-10-07T22:02:17Z</time></trkpt>
<trkpt lat="29.483885" lon="96.660995">
<time>2016-10-07T22:02:18Z</time></trkpt>
<trkpt lat="29.483865" lon="96.660895">
<time>2016-10-07T22:02:19Z</time></trkpt>
<trkpt lat="29.483825" lon="96.660696">
<time>2016-10-07T22:02:20Z</time></trkpt>
<trkpt lat="29.483786" lon="96.660506">
<time>2016-10-07T22:02:21Z</time></trkpt>
<trkpt lat="29.483766" lon="96.660416">
<time>2016-10-07T22:02:22Z</time></trkpt>
<trkpt lat="29.483736" lon="96.660297">
<time>2016-10-07T22:02:23Z</time></trkpt>
<trkpt lat="29.483687" lon="96.660067">
<time>2016-10-07T22:02:24Z</time></trkpt>
<trkpt lat="29.483677" lon="96.659997">
<time>2016-10-07T22:02:25Z</time></trkpt>
<trkpt lat="29.483667" lon="96.659947">
<time>2016-10-07T22:02:26Z</time></trkpt>
<trkpt lat="29.483657" lon="96.659878">
<time>2016-10-07T22:02:27Z</time></trkpt>
<trkpt lat="29.483637" lon="96.659758">
<time>2016-10-07T22:02:28Z</time></trkpt>
<trkpt lat="29.483637" lon="96.659658">
<time>2016-10-07T22:02:29Z</time></trkpt>
<trkpt lat="29.483627" lon="96.659588">
<time>2016-10-07T22:02:30Z</time></trkpt>
<trkpt lat="29.483628" lon="96.659518">
<time>2016-10-07T22:02:31Z</time></trkpt>
<trkpt lat="29.483628" lon="96.659458">
<time>2016-10-07T22:02:32Z</time></trkpt>
<trkpt lat="29.483638" lon="96.659339">
<time>2016-10-07T22:02:33Z</time></trkpt>
<trkpt lat="29.483648" lon="96.659289">
<time>2016-10-07T22:02:34Z</time></trkpt>
<trkpt lat="29.483648" lon="96.659209">
<time>2016-10-07T22:02:35Z</time></trkpt>
<trkpt lat="29.483648" lon="96.659149">
<time>2016-10-07T22:02:36Z</time></trkpt>
<trkpt lat="29.483658" lon="96.659059">
<time>2016-10-07T22:02:37Z</time></trkpt>
<trkpt lat="29.483659" lon="96.658999">
<time>2016-10-07T22:02:38Z</time></trkpt>
<trkpt lat="29.483659" lon="96.658969">
<time>2016-10-07T22:02:39Z</time></trkpt>
<trkpt lat="29.483659" lon="96.65892">
<time>2016-10-07T22:02:40Z</time></trkpt>
<trkpt lat="29.483669" lon="96.65886">
<time>2016-10-07T22:02:41Z</time></trkpt>
<trkpt lat="29.483659" lon="96.6588">
<time>2016-10-07T22:02:42Z</time></trkpt>
<trkpt lat="29.483659" lon="96.65873">
<time>2016-10-07T22:02:43Z</time></trkpt>
<trkpt lat="29.483659" lon="96.6587">
<time>2016-10-07T22:02:44Z</time></trkpt>
<trkpt lat="29.483649" lon="96.65863">
<time>2016-10-07T22:02:45Z</time></trkpt>
<trkpt lat="29.483649" lon="96.65857">
<time>2016-10-07T22:02:46Z</time></trkpt>
<trkpt lat="29.48361" lon="96.658411">
<time>2016-10-07T22:02:47Z</time></trkpt>
<trkpt lat="29.48357" lon="96.658301">
<time>2016-10-07T22:02:48Z</time></trkpt>
<trkpt lat="29.48352" lon="96.658201">
<time>2016-10-07T22:02:49Z</time></trkpt>
<trkpt lat="29.48346" lon="96.658101">
<time>2016-10-07T22:02:50Z</time></trkpt>
<trkpt lat="29.483331" lon="96.657932">
<time>2016-10-07T22:02:51Z</time></trkpt>
<trkpt lat="29.483221" lon="96.657792">
<time>2016-10-07T22:02:52Z</time></trkpt>
<trkpt lat="29.483161" lon="96.657712">
<time>2016-10-07T22:02:53Z</time></trkpt>
<trkpt lat="29.483121" lon="96.657672">
<time>2016-10-07T22:02:54Z</time></trkpt>
<trkpt lat="29.483081" lon="96.657632">
<time>2016-10-07T22:02:55Z</time></trkpt>
<trkpt lat="29.483002" lon="96.657522">
<time>2016-10-07T22:02:56Z</time></trkpt>
<trkpt lat="29.482892" lon="96.657383">
<time>2016-10-07T22:02:57Z</time></trkpt>
<trkpt lat="29.482862" lon="96.657333">
<time>2016-10-07T22:02:58Z</time></trkpt>
<trkpt lat="29.482822" lon="96.657273">
<time>2016-10-07T22:02:59Z</time></trkpt>
<trkpt lat="29.482772" lon="96.657173">
<time>2016-10-07T22:03:00Z</time></trkpt>
<trkpt lat="29.482723" lon="96.657063">
<time>2016-10-07T22:03:01Z</time></trkpt>
<trkpt lat="29.482593" lon="96.656744">
<time>2016-10-07T22:03:02Z</time></trkpt>
<trkpt lat="29.482444" lon="96.656435">
<time>2016-10-07T22:03:03Z</time></trkpt>
<trkpt lat="29.482374" lon="96.656305">
<time>2016-10-07T22:03:04Z</time></trkpt>
<trkpt lat="29.482255" lon="96.656055">
<time>2016-10-07T22:03:05Z</time></trkpt>
<trkpt lat="29.482205" lon="96.655936">
<time>2016-10-07T22:03:06Z</time></trkpt>
<trkpt lat="29.482055" lon="96.655646">
<time>2016-10-07T22:03:07Z</time></trkpt>
<trkpt lat="29.481986" lon="96.655497">
<time>2016-10-07T22:03:08Z</time></trkpt>
<trkpt lat="29.481936" lon="96.655407">
<time>2016-10-07T22:03:09Z</time></trkpt>
<trkpt lat="29.481906" lon="96.655337">
<time>2016-10-07T22:03:10Z</time></trkpt>
<trkpt lat="29.481856" lon="96.655207">
<time>2016-10-07T22:03:11Z</time></trkpt>
<trkpt lat="29.481836" lon="96.655157">
<time>2016-10-07T22:03:12Z</time></trkpt>
<trkpt lat="29.481817" lon="96.655087">
<time>2016-10-07T22:03:13Z</time></trkpt>
<trkpt lat="29.481807" lon="96.655037">
<time>2016-10-07T22:03:14Z</time></trkpt>
<trkpt lat="29.481797" lon="96.654978">
<time>2016-10-07T22:03:15Z</time></trkpt>
<trkpt lat="29.481787" lon="96.654918">
<time>2016-10-07T22:03:16Z</time></trkpt>
<trkpt lat="29.481787" lon="96.654838">
<time>2016-10-07T22:03:17Z</time></trkpt>
<trkpt lat="29.481787" lon="96.654768">
<time>2016-10-07T22:03:18Z</time></trkpt>
<trkpt lat="29.481797" lon="96.654718">
<time>2016-10-07T22:03:19Z</time></trkpt>
<trkpt lat="29.481807" lon="96.654638">
<time>2016-10-07T22:03:20Z</time></trkpt>
<trkpt lat="29.481828" lon="96.654528">
<time>2016-10-07T22:03:21Z</time></trkpt>
<trkpt lat="29.481868" lon="96.654439">
<time>2016-10-07T22:03:22Z</time></trkpt>
<trkpt lat="29.481878" lon="96.654409">
<time>2016-10-07T22:03:23Z</time></trkpt>
<trkpt lat="29.481898" lon="96.654359">
<time>2016-10-07T22:03:24Z</time></trkpt>
<trkpt lat="29.481918" lon="96.654319">
<time>2016-10-07T22:03:25Z</time></trkpt>
<trkpt lat="29.481948" lon="96.654279">
<time>2016-10-07T22:03:26Z</time></trkpt>
<trkpt lat="29.481988" lon="96.654209">
<time>2016-10-07T22:03:27Z</time></trkpt>
<trkpt lat="29.482028" lon="96.654159">
<time>2016-10-07T22:03:28Z</time></trkpt>
<trkpt lat="29.482088" lon="96.654099">
<time>2016-10-07T22:03:29Z</time></trkpt>
<trkpt lat="29.482128" lon="96.654049">
<time>2016-10-07T22:03:30Z</time></trkpt>
<trkpt lat="29.482188" lon="96.654">
<time>2016-10-07T22:03:31Z</time></trkpt>
<trkpt lat="29.482248" lon="96.65395">
<time>2016-10-07T22:03:32Z</time></trkpt>
<trkpt lat="29.482298" lon="96.65392">
<time>2016-10-07T22:03:33Z</time></trkpt>
<trkpt lat="29.482338" lon="96.65389">
<time>2016-10-07T22:03:34Z</time></trkpt>
<trkpt lat="29.482369" lon="96.65386">
<time>2016-10-07T22:03:35Z</time></trkpt>
<trkpt lat="29.482399" lon="96.65384">
<time>2016-10-07T22:03:36Z</time></trkpt>
<trkpt lat="29.482419" lon="96.65382">
<time>2016-10-07T22:03:37Z</time></trkpt>
<trkpt lat="29.482459" lon="96.65379">
<time>2016-10-07T22:03:38Z</time></trkpt>
<trkpt lat="29.482479" lon="96.65377">
<time>2016-10-07T22:03:39Z</time></trkpt>
<trkpt lat="29.482549" lon="96.65369">
<time>2016-10-07T22:03:40Z</time></trkpt>
<trkpt lat="29.482569" lon="96.65366">
<time>2016-10-07T22:03:41Z</time></trkpt>
<trkpt lat="29.482589" lon="96.65363">
<time>2016-10-07T22:03:42Z</time></trkpt>
<trkpt lat="29.482609" lon="96.65359">
<time>2016-10-07T22:03:43Z</time></trkpt>
<trkpt lat="29.482639" lon="96.65354">
<time>2016-10-07T22:03:44Z</time></trkpt>
<trkpt lat="29.482659" lon="96.653491">
<time>2016-10-07T22:03:45Z</time></trkpt>
<trkpt lat="29.482679" lon="96.653441">
<time>2016-10-07T22:03:46Z</time></trkpt>
<trkpt lat="29.482699" lon="96.653371">
<time>2016-10-07T22:03:47Z</time></trkpt>
<trkpt lat="29.482709" lon="96.653331">
<time>2016-10-07T22:03:48Z</time></trkpt>
<trkpt lat="29.482729" lon="96.653251">
<time>2016-10-07T22:03:49Z</time></trkpt>
<trkpt lat="29.48274" lon="96.653121">
<time>2016-10-07T22:03:50Z</time></trkpt>
<trkpt lat="29.48274" lon="96.652912">
<time>2016-10-07T22:03:51Z</time></trkpt>
<trkpt lat="29.48274" lon="96.652802">
<time>2016-10-07T22:03:52Z</time></trkpt>
<trkpt lat="29.482741" lon="96.652642">
<time>2016-10-07T22:03:53Z</time></trkpt>
<trkpt lat="29.482751" lon="96.652502">
<time>2016-10-07T22:03:54Z</time></trkpt>
<trkpt lat="29.482751" lon="96.652433">
<time>2016-10-07T22:03:55Z</time></trkpt>
<trkpt lat="29.482751" lon="96.652343">
<time>2016-10-07T22:03:56Z</time></trkpt>
<trkpt lat="29.482741" lon="96.652143">
<time>2016-10-07T22:03:57Z</time></trkpt>
<trkpt lat="29.482742" lon="96.652063">
<time>2016-10-07T22:03:58Z</time></trkpt>
<trkpt lat="29.482722" lon="96.651934">
<time>2016-10-07T22:03:59Z</time></trkpt>
<trkpt lat="29.482712" lon="96.651824">
<time>2016-10-07T22:04:00Z</time></trkpt>
<trkpt lat="29.482662" lon="96.651614">
<time>2016-10-07T22:04:01Z</time></trkpt>
<trkpt lat="29.482633" lon="96.651504">
<time>2016-10-07T22:04:02Z</time></trkpt>
<trkpt lat="29.482583" lon="96.651295">
<time>2016-10-07T22:04:03Z</time></trkpt>
<trkpt lat="29.482553" lon="96.651205">
<time>2016-10-07T22:04:04Z</time></trkpt>
<trkpt lat="29.482484" lon="96.650975">
<time>2016-10-07T22:04:05Z</time></trkpt>
<trkpt lat="29.482464" lon="96.650886">
<time>2016-10-07T22:04:06Z</time></trkpt>
<trkpt lat="29.482414" lon="96.650726">
<time>2016-10-07T22:04:07Z</time></trkpt>
<trkpt lat="29.482394" lon="96.650656">
<time>2016-10-07T22:04:08Z</time></trkpt>
<trkpt lat="29.482374" lon="96.650596">
<time>2016-10-07T22:04:09Z</time></trkpt>
<trkpt lat="29.482275" lon="96.650327">
<time>2016-10-07T22:04:10Z</time></trkpt>
<trkpt lat="29.482205" lon="96.650137">
<time>2016-10-07T22:04:11Z</time></trkpt>
<trkpt lat="29.482135" lon="96.649967">
<time>2016-10-07T22:04:12Z</time></trkpt>
<trkpt lat="29.482066" lon="96.649788">
<time>2016-10-07T22:04:13Z</time></trkpt>
<trkpt lat="29.481996" lon="96.649628">
<time>2016-10-07T22:04:14Z</time></trkpt>
<trkpt lat="29.481976" lon="96.649578">
<time>2016-10-07T22:04:15Z</time></trkpt>
<trkpt lat="29.481946" lon="96.649478">
<time>2016-10-07T22:04:16Z</time></trkpt>
<trkpt lat="29.481897" lon="96.649359">
<time>2016-10-07T22:04:17Z</time></trkpt>
<trkpt lat="29.481877" lon="96.649319">
<time>2016-10-07T22:04:18Z</time></trkpt>
<trkpt lat="29.481857" lon="96.649259">
<time>2016-10-07T22:04:19Z</time></trkpt>
<trkpt lat="29.481837" lon="96.649209">
<time>2016-10-07T22:04:20Z</time></trkpt>
<trkpt lat="29.481807" lon="96.649149">
<time>2016-10-07T22:04:21Z</time></trkpt>
<trkpt lat="29.481787" lon="96.649099">
<time>2016-10-07T22:04:22Z</time></trkpt>
<trkpt lat="29.481777" lon="96.649059">
<time>2016-10-07T22:04:23Z</time></trkpt>
<trkpt lat="29.481767" lon="96.648999">
<time>2016-10-07T22:04:24Z</time></trkpt>
<trkpt lat="29.481747" lon="96.648919">
<time>2016-10-07T22:04:25Z</time></trkpt>
<trkpt lat="29.481748" lon="96.648879">
<time>2016-10-07T22:04:26Z</time></trkpt>
<trkpt lat="29.481748" lon="96.64883">
<time>2016-10-07T22:04:27Z</time></trkpt>
<trkpt lat="29.481768" lon="96.64876">
<time>2016-10-07T22:04:28Z</time></trkpt>
<trkpt lat="29.481778" lon="96.64871">
<time>2016-10-07T22:04:29Z</time></trkpt>
<trkpt lat="29.481798" lon="96.64864">
<time>2016-10-07T22:04:30Z</time></trkpt>
<trkpt lat="29.481838" lon="96.64855">
<time>2016-10-07T22:04:31Z</time></trkpt>
<trkpt lat="29.481868" lon="96.64846">
<time>2016-10-07T22:04:32Z</time></trkpt>
<trkpt lat="29.481908" lon="96.64835">
<time>2016-10-07T22:04:33Z</time></trkpt>
<trkpt lat="29.481928" lon="96.648291">
<time>2016-10-07T22:04:34Z</time></trkpt>
<trkpt lat="29.481939" lon="96.648201">
<time>2016-10-07T22:04:35Z</time></trkpt>
<trkpt lat="29.481949" lon="96.648101">
<time>2016-10-07T22:04:36Z</time></trkpt>
<trkpt lat="29.481939" lon="96.647891">
<time>2016-10-07T22:04:37Z</time></trkpt>
<trkpt lat="29.481929" lon="96.647791">
<time>2016-10-07T22:04:38Z</time></trkpt>
<trkpt lat="29.48191" lon="96.647632">
<time>2016-10-07T22:04:39Z</time></trkpt>
<trkpt lat="29.48188" lon="96.647482">
<time>2016-10-07T22:04:40Z</time></trkpt>
<trkpt lat="29.48187" lon="96.647362">
<time>2016-10-07T22:04:41Z</time></trkpt>
<trkpt lat="29.48186" lon="96.647292">
<time>2016-10-07T22:04:42Z</time></trkpt>
<trkpt lat="29.48186" lon="96.647183">
<time>2016-10-07T22:04:43Z</time></trkpt>
<trkpt lat="29.481861" lon="96.647063">
<time>2016-10-07T22:04:44Z</time></trkpt>
<trkpt lat="29.481881" lon="96.646853">
<time>2016-10-07T22:04:45Z</time></trkpt>
<trkpt lat="29.481881" lon="96.646723">
<time>2016-10-07T22:04:46Z</time></trkpt>
<trkpt lat="29.481901" lon="96.646594">
<time>2016-10-07T22:04:47Z</time></trkpt>
<trkpt lat="29.481911" lon="96.646514">
<time>2016-10-07T22:04:48Z</time></trkpt>
<trkpt lat="29.481932" lon="96.646414">
<time>2016-10-07T22:04:49Z</time></trkpt>
<trkpt lat="29.481952" lon="96.646314">
<time>2016-10-07T22:04:50Z</time></trkpt>
<trkpt lat="29.481982" lon="96.646234">
<time>2016-10-07T22:04:51Z</time></trkpt>
<trkpt lat="29.482022" lon="96.646105">
<time>2016-10-07T22:04:52Z</time></trkpt>
<trkpt lat="29.482052" lon="96.646045">
<time>2016-10-07T22:04:53Z</time></trkpt>
<trkpt lat="29.482102" lon="96.645945">
<time>2016-10-07T22:04:54Z</time></trkpt>
<trkpt lat="29.482132" lon="96.645885">
<time>2016-10-07T22:04:55Z</time></trkpt>
<trkpt lat="29.482162" lon="96.645825">
<time>2016-10-07T22:04:56Z</time></trkpt>
<trkpt lat="29.482213" lon="96.645735">
<time>2016-10-07T22:04:57Z</time></trkpt>
<trkpt lat="29.482253" lon="96.645665">
<time>2016-10-07T22:04:58Z</time></trkpt>
<trkpt lat="29.482293" lon="96.645605">
<time>2016-10-07T22:04:59Z</time></trkpt>
<trkpt lat="29.482343" lon="96.645506">
<time>2016-10-07T22:05:00Z</time></trkpt>
<trkpt lat="29.482403" lon="96.645416">
<time>2016-10-07T22:05:01Z</time></trkpt>
<trkpt lat="29.482433" lon="96.645356">
<time>2016-10-07T22:05:02Z</time></trkpt>
<trkpt lat="29.482443" lon="96.645336">
<time>2016-10-07T22:05:03Z</time></trkpt>
<trkpt lat="29.482453" lon="96.645316">
<time>2016-10-07T22:05:04Z</time></trkpt>
<trkpt lat="29.482473" lon="96.645286">
<time>2016-10-07T22:05:05Z</time></trkpt>
<trkpt lat="29.482493" lon="96.645256">
<time>2016-10-07T22:05:06Z</time></trkpt>
<trkpt lat="29.482523" lon="96.645196">
<time>2016-10-07T22:05:07Z</time></trkpt>
<trkpt lat="29.482573" lon="96.645146">
<time>2016-10-07T22:05:08Z</time></trkpt>
<trkpt lat="29.482593" lon="96.645116">
<time>2016-10-07T22:05:09Z</time></trkpt>
<trkpt lat="29.482624" lon="96.645076">
<time>2016-10-07T22:05:10Z</time></trkpt>
<trkpt lat="29.482654" lon="96.645046">
<time>2016-10-07T22:05:11Z</time></trkpt>
<trkpt lat="29.482724" lon="96.644987">
<time>2016-10-07T22:05:12Z</time></trkpt>
<trkpt lat="29.482784" lon="96.644947">
<time>2016-10-07T22:05:13Z</time></trkpt>
<trkpt lat="29.482854" lon="96.644917">
<time>2016-10-07T22:05:14Z</time></trkpt>
<trkpt lat="29.482934" lon="96.644887">
<time>2016-10-07T22:05:15Z</time></trkpt>
<trkpt lat="29.483034" lon="96.644857">
<time>2016-10-07T22:05:16Z</time></trkpt>
<trkpt lat="29.483144" lon="96.644837">
<time>2016-10-07T22:05:17Z</time></trkpt>
<trkpt lat="29.483214" lon="96.644817">
<time>2016-10-07T22:05:18Z</time></trkpt>
<trkpt lat="29.483294" lon="96.644797">
<time>2016-10-07T22:05:19Z</time></trkpt>
<trkpt lat="29.483354" lon="96.644777">
<time>2016-10-07T22:05:20Z</time></trkpt>
<trkpt lat="29.483384" lon="96.644767">
<time>2016-10-07T22:05:21Z</time></trkpt>
<trkpt lat="29.483424" lon="96.644747">
<time>2016-10-07T22:05:22Z</time></trkpt>
<trkpt lat="29.483454" lon="96.644727">
<time>2016-10-07T22:05:23Z</time></trkpt>
<trkpt lat="29.483494" lon="96.644707">
<time>2016-10-07T22:05:24Z</time></trkpt>
<trkpt lat="29.483544" lon="96.644667">
<time>2016-10-07T22:05:25Z</time></trkpt>
<trkpt lat="29.483614" lon="96.644607">
<time>2016-10-07T22:05:26Z</time></trkpt>
<trkpt lat="29.483734" lon="96.644477">
<time>2016-10-07T22:05:27Z</time></trkpt>
<trkpt lat="29.483834" lon="96.644328">
<time>2016-10-07T22:05:28Z</time></trkpt>
<trkpt lat="29.483934" lon="96.644158">
<time>2016-10-07T22:05:29Z</time></trkpt>
<trkpt lat="29.484015" lon="96.644008">
<time>2016-10-07T22:05:30Z</time></trkpt>
<trkpt lat="29.484105" lon="96.643819">
<time>2016-10-07T22:05:31Z</time></trkpt>
<trkpt lat="29.484155" lon="96.643669">
<time>2016-10-07T22:05:32Z</time></trkpt>
<trkpt lat="29.484266" lon="96.643329">
<time>2016-10-07T22:05:33Z</time></trkpt>
<trkpt lat="29.484336" lon="96.64304">
<time>2016-10-07T22:05:34Z</time></trkpt>
<trkpt lat="29.484416" lon="96.642731">
<time>2016-10-07T22:05:35Z</time></trkpt>
<trkpt lat="29.484487" lon="96.642481">
<time>2016-10-07T22:05:36Z</time></trkpt>
<trkpt lat="29.484527" lon="96.642341">
<time>2016-10-07T22:05:37Z</time></trkpt>
<trkpt lat="29.484557" lon="96.642181">
<time>2016-10-07T22:05:38Z</time></trkpt>
<trkpt lat="29.484628" lon="96.641882">
<time>2016-10-07T22:05:39Z</time></trkpt>
<trkpt lat="29.484648" lon="96.641672">
<time>2016-10-07T22:05:40Z</time></trkpt>
<trkpt lat="29.484678" lon="96.641463">
<time>2016-10-07T22:05:41Z</time></trkpt>
<trkpt lat="29.484709" lon="96.641153">
<time>2016-10-07T22:05:42Z</time></trkpt>
<trkpt lat="29.484759" lon="96.640754">
<time>2016-10-07T22:05:43Z</time></trkpt>
<trkpt lat="29.4848" lon="96.640444">
<time>2016-10-07T22:05:44Z</time></trkpt>
<trkpt lat="29.48483" lon="96.640245">
<time>2016-10-07T22:05:45Z</time></trkpt>
<trkpt lat="29.48485" lon="96.640105">
<time>2016-10-07T22:05:46Z</time></trkpt>
<trkpt lat="29.484871" lon="96.639985">
<time>2016-10-07T22:05:47Z</time></trkpt>
<trkpt lat="29.484901" lon="96.639875">
<time>2016-10-07T22:05:48Z</time></trkpt>
<trkpt lat="29.484941" lon="96.639776">
<time>2016-10-07T22:05:49Z</time></trkpt>
<trkpt lat="29.485011" lon="96.639606">
<time>2016-10-07T22:05:50Z</time></trkpt>
<trkpt lat="29.485172" lon="96.639276">
<time>2016-10-07T22:05:51Z</time></trkpt>
<trkpt lat="29.485242" lon="96.639137">
<time>2016-10-07T22:05:52Z</time></trkpt>
<trkpt lat="29.485302" lon="96.639037">
<time>2016-10-07T22:05:53Z</time></trkpt>
<trkpt lat="29.485422" lon="96.638797">
<time>2016-10-07T22:05:54Z</time></trkpt>
<trkpt lat="29.485552" lon="96.638548">
<time>2016-10-07T22:05:55Z</time></trkpt>
<trkpt lat="29.485623" lon="96.638398">
<time>2016-10-07T22:05:56Z</time></trkpt>
<trkpt lat="29.485763" lon="96.638138">
<time>2016-10-07T22:05:57Z</time></trkpt>
<trkpt lat="29.485903" lon="96.637859">
<time>2016-10-07T22:05:58Z</time></trkpt>
<trkpt lat="29.485993" lon="96.637699">
<time>2016-10-07T22:05:59Z</time></trkpt>
<trkpt lat="29.486114" lon="96.637459">
<time>2016-10-07T22:06:00Z</time></trkpt>
<trkpt lat="29.486214" lon="96.63726">
<time>2016-10-07T22:06:01Z</time></trkpt>
<trkpt lat="29.486374" lon="96.63695">
<time>2016-10-07T22:06:02Z</time></trkpt>
<trkpt lat="29.486495" lon="96.63671">
<time>2016-10-07T22:06:03Z</time></trkpt>
<trkpt lat="29.486565" lon="96.636581">
<time>2016-10-07T22:06:04Z</time></trkpt>
<trkpt lat="29.486675" lon="96.636381">
<time>2016-10-07T22:06:05Z</time></trkpt>
<trkpt lat="29.486885" lon="96.636061">
<time>2016-10-07T22:06:06Z</time></trkpt>
<trkpt lat="29.486946" lon="96.635952">
<time>2016-10-07T22:06:07Z</time></trkpt>
<trkpt lat="29.486996" lon="96.635852">
<time>2016-10-07T22:06:08Z</time></trkpt>
<trkpt lat="29.487026" lon="96.635762">
<time>2016-10-07T22:06:09Z</time></trkpt>
<trkpt lat="29.487066" lon="96.635662">
<time>2016-10-07T22:06:10Z</time></trkpt>
<trkpt lat="29.487086" lon="96.635552">
<time>2016-10-07T22:06:11Z</time></trkpt>
<trkpt lat="29.487156" lon="96.635273">
<time>2016-10-07T22:06:12Z</time></trkpt>
<trkpt lat="29.487247" lon="96.634943">
<time>2016-10-07T22:06:13Z</time></trkpt>
<trkpt lat="29.487297" lon="96.634783">
<time>2016-10-07T22:06:14Z</time></trkpt>
<trkpt lat="29.487407" lon="96.634494">
<time>2016-10-07T22:06:15Z</time></trkpt>
<trkpt lat="29.487468" lon="96.634304">
<time>2016-10-07T22:06:16Z</time></trkpt>
<trkpt lat="29.487528" lon="96.634124">
<time>2016-10-07T22:06:17Z</time></trkpt>
<trkpt lat="29.487578" lon="96.633994">
<time>2016-10-07T22:06:18Z</time></trkpt>
<trkpt lat="29.487658" lon="96.633765">
<time>2016-10-07T22:06:19Z</time></trkpt>
<trkpt lat="29.487719" lon="96.633595">
<time>2016-10-07T22:06:20Z</time></trkpt>
<trkpt lat="29.487749" lon="96.633495">
<time>2016-10-07T22:06:21Z</time></trkpt>
<trkpt lat="29.487779" lon="96.633415">
<time>2016-10-07T22:06:22Z</time></trkpt>
<trkpt lat="29.487829" lon="96.633266">
<time>2016-10-07T22:06:23Z</time></trkpt>
<trkpt lat="29.487869" lon="96.633146">
<time>2016-10-07T22:06:24Z</time></trkpt>
<trkpt lat="29.487979" lon="96.632826">
<time>2016-10-07T22:06:25Z</time></trkpt>
<trkpt lat="29.4881" lon="96.632537">
<time>2016-10-07T22:06:26Z</time></trkpt>
<trkpt lat="29.4882" lon="96.632327">
<time>2016-10-07T22:06:27Z</time></trkpt>
<trkpt lat="29.48828" lon="96.632197">
<time>2016-10-07T22:06:28Z</time></trkpt>
<trkpt lat="29.48835" lon="96.632097">
<time>2016-10-07T22:06:29Z</time></trkpt>
<trkpt lat="29.488491" lon="96.631838">
<time>2016-10-07T22:06:30Z</time></trkpt>
<trkpt lat="29.488551" lon="96.631718">
<time>2016-10-07T22:06:31Z</time></trkpt>
<trkpt lat="29.488591" lon="96.631618">
<time>2016-10-07T22:06:32Z</time></trkpt>
<trkpt lat="29.488621" lon="96.631548">
<time>2016-10-07T22:06:33Z</time></trkpt>
<trkpt lat="29.488661" lon="96.631438">
<time>2016-10-07T22:06:34Z</time></trkpt>
<trkpt lat="29.488681" lon="96.631368">
<time>2016-10-07T22:06:35Z</time></trkpt>
<trkpt lat="29.488701" lon="96.631318">
<time>2016-10-07T22:06:36Z</time></trkpt>
<trkpt lat="29.488731" lon="96.631208">
<time>2016-10-07T22:06:37Z</time></trkpt>
<trkpt lat="29.488771" lon="96.631059">
<time>2016-10-07T22:06:38Z</time></trkpt>
<trkpt lat="29.488812" lon="96.630859">
<time>2016-10-07T22:06:39Z</time></trkpt>
<trkpt lat="29.488852" lon="96.630649">
<time>2016-10-07T22:06:40Z</time></trkpt>
<trkpt lat="29.488882" lon="96.63037">
<time>2016-10-07T22:06:41Z</time></trkpt>
<trkpt lat="29.488902" lon="96.63015">
<time>2016-10-07T22:06:42Z</time></trkpt>
<trkpt lat="29.488923" lon="96.62993">
<time>2016-10-07T22:06:43Z</time></trkpt>
<trkpt lat="29.488943" lon="96.62967">
<time>2016-10-07T22:06:44Z</time></trkpt>
<trkpt lat="29.488973" lon="96.629481">
<time>2016-10-07T22:06:45Z</time></trkpt>
<trkpt lat="29.488994" lon="96.629301">
<time>2016-10-07T22:06:46Z</time></trkpt>
<trkpt lat="29.489014" lon="96.629131">
<time>2016-10-07T22:06:47Z</time></trkpt>
<trkpt lat="29.489044" lon="96.628921">
<time>2016-10-07T22:06:48Z</time></trkpt>
<trkpt lat="29.489064" lon="96.628732">
<time>2016-10-07T22:06:49Z</time></trkpt>
<trkpt lat="29.489084" lon="96.628562">
<time>2016-10-07T22:06:50Z</time></trkpt>
<trkpt lat="29.489125" lon="96.628362">
<time>2016-10-07T22:06:51Z</time></trkpt>
<trkpt lat="29.489175" lon="96.628172">
<time>2016-10-07T22:06:52Z</time></trkpt>
<trkpt lat="29.489255" lon="96.627953">
<time>2016-10-07T22:06:53Z</time></trkpt>
<trkpt lat="29.489425" lon="96.627513">
<time>2016-10-07T22:06:54Z</time></trkpt>
<trkpt lat="29.489496" lon="96.627343">
<time>2016-10-07T22:06:55Z</time></trkpt>
<trkpt lat="29.489556" lon="96.627184">
<time>2016-10-07T22:06:56Z</time></trkpt>
<trkpt lat="29.489586" lon="96.627064">
<time>2016-10-07T22:06:57Z</time></trkpt>
<trkpt lat="29.489646" lon="96.626854">
<time>2016-10-07T22:06:58Z</time></trkpt>
<trkpt lat="29.489696" lon="96.626604">
<time>2016-10-07T22:06:59Z</time></trkpt>
<trkpt lat="29.489777" lon="96.626215">
<time>2016-10-07T22:07:00Z</time></trkpt>
<trkpt lat="29.489807" lon="96.626005">
<time>2016-10-07T22:07:01Z</time></trkpt>
<trkpt lat="29.489817" lon="96.625835">
<time>2016-10-07T22:07:02Z</time></trkpt>
<trkpt lat="29.489817" lon="96.625805">
<time>2016-10-07T22:07:03Z</time></trkpt>
<trkpt lat="29.489807" lon="96.625725">
<time>2016-10-07T22:07:04Z</time></trkpt>
<trkpt lat="29.489807" lon="96.625625">
<time>2016-10-07T22:07:05Z</time></trkpt>
<trkpt lat="29.489798" lon="96.625516">
<time>2016-10-07T22:07:06Z</time></trkpt>
<trkpt lat="29.489798" lon="96.625466">
<time>2016-10-07T22:07:07Z</time></trkpt>
<trkpt lat="29.489798" lon="96.625416">
<time>2016-10-07T22:07:08Z</time></trkpt>
<trkpt lat="29.489798" lon="96.625346">
<time>2016-10-07T22:07:09Z</time></trkpt>
<trkpt lat="29.489798" lon="96.625276">
<time>2016-10-07T22:07:10Z</time></trkpt>
<trkpt lat="29.489818" lon="96.625206">
<time>2016-10-07T22:07:11Z</time></trkpt>
<trkpt lat="29.489828" lon="96.625146">
<time>2016-10-07T22:07:12Z</time></trkpt>
<trkpt lat="29.489838" lon="96.625126">
<time>2016-10-07T22:07:13Z</time></trkpt>
<trkpt lat="29.489868" lon="96.625046">
<time>2016-10-07T22:07:14Z</time></trkpt>
<trkpt lat="29.489888" lon="96.624986">
<time>2016-10-07T22:07:15Z</time></trkpt>
<trkpt lat="29.489958" lon="96.624846">
<time>2016-10-07T22:07:16Z</time></trkpt>
<trkpt lat="29.490088" lon="96.624567">
<time>2016-10-07T22:07:17Z</time></trkpt>
<trkpt lat="29.490169" lon="96.624417">
<time>2016-10-07T22:07:18Z</time></trkpt>
<trkpt lat="29.490209" lon="96.624337">
<time>2016-10-07T22:07:19Z</time></trkpt>
<trkpt lat="29.490249" lon="96.624237">
<time>2016-10-07T22:07:20Z</time></trkpt>
<trkpt lat="29.490279" lon="96.624117">
<time>2016-10-07T22:07:21Z</time></trkpt>
<trkpt lat="29.490289" lon="96.624047">
<time>2016-10-07T22:07:22Z</time></trkpt>
<trkpt lat="29.490299" lon="96.623997">
<time>2016-10-07T22:07:23Z</time></trkpt>
<trkpt lat="29.490299" lon="96.623917">
<time>2016-10-07T22:07:24Z</time></trkpt>
<trkpt lat="29.490299" lon="96.623817">
<time>2016-10-07T22:07:25Z</time></trkpt>
<trkpt lat="29.490289" lon="96.623668">
<time>2016-10-07T22:07:26Z</time></trkpt>
<trkpt lat="29.49027" lon="96.623488">
<time>2016-10-07T22:07:27Z</time></trkpt>
<trkpt lat="29.49024" lon="96.623328">
<time>2016-10-07T22:07:28Z</time></trkpt>
<trkpt lat="29.49019" lon="96.623158">
<time>2016-10-07T22:07:29Z</time></trkpt>
<trkpt lat="29.49015" lon="96.623028">
<time>2016-10-07T22:07:30Z</time></trkpt>
<trkpt lat="29.49009" lon="96.622849">
<time>2016-10-07T22:07:31Z</time></trkpt>
<trkpt lat="29.49003" lon="96.622709">
<time>2016-10-07T22:07:32Z</time></trkpt>
<trkpt lat="29.489971" lon="96.622509">
<time>2016-10-07T22:07:33Z</time></trkpt>
<trkpt lat="29.489921" lon="96.622369">
<time>2016-10-07T22:07:34Z</time></trkpt>
<trkpt lat="29.489871" lon="96.622229">
<time>2016-10-07T22:07:35Z</time></trkpt>
<trkpt lat="29.489831" lon="96.622129">
<time>2016-10-07T22:07:36Z</time></trkpt>
<trkpt lat="29.489791" lon="96.622039">
<time>2016-10-07T22:07:37Z</time></trkpt>
<trkpt lat="29.489741" lon="96.621959">
<time>2016-10-07T22:07:38Z</time></trkpt>
<trkpt lat="29.489681" lon="96.62186">
<time>2016-10-07T22:07:39Z</time></trkpt>
<trkpt lat="29.489651" lon="96.62183">
<time>2016-10-07T22:07:40Z</time></trkpt>
<trkpt lat="29.489492" lon="96.62164">
<time>2016-10-07T22:07:41Z</time></trkpt>
<trkpt lat="29.489422" lon="96.62156">
<time>2016-10-07T22:07:42Z</time></trkpt>
<trkpt lat="29.489382" lon="96.62149">
<time>2016-10-07T22:07:43Z</time></trkpt>
<trkpt lat="29.489342" lon="96.62142">
<time>2016-10-07T22:07:44Z</time></trkpt>
<trkpt lat="29.489322" lon="96.62134">
<time>2016-10-07T22:07:45Z</time></trkpt>
<trkpt lat="29.489312" lon="96.6213">
<time>2016-10-07T22:07:46Z</time></trkpt>
<trkpt lat="29.489302" lon="96.62124">
<time>2016-10-07T22:07:47Z</time></trkpt>
<trkpt lat="29.489292" lon="96.62116">
<time>2016-10-07T22:07:48Z</time></trkpt>
<trkpt lat="29.489282" lon="96.621">
<time>2016-10-07T22:07:49Z</time></trkpt>
<trkpt lat="29.489283" lon="96.620791">
<time>2016-10-07T22:07:50Z</time></trkpt>
<trkpt lat="29.489293" lon="96.620641">
<time>2016-10-07T22:07:51Z</time></trkpt>
<trkpt lat="29.489303" lon="96.620551">
<time>2016-10-07T22:07:52Z</time></trkpt>
<trkpt lat="29.489323" lon="96.620421">
<time>2016-10-07T22:07:53Z</time></trkpt>
<trkpt lat="29.489363" lon="96.620261">
<time>2016-10-07T22:07:54Z</time></trkpt>
<trkpt lat="29.489393" lon="96.620161">
<time>2016-10-07T22:07:55Z</time></trkpt>
<trkpt lat="29.489453" lon="96.620011">
<time>2016-10-07T22:07:56Z</time></trkpt>
<trkpt lat="29.489513" lon="96.619841">
<time>2016-10-07T22:07:57Z</time></trkpt>
<trkpt lat="29.489594" lon="96.619692">
<time>2016-10-07T22:07:58Z</time></trkpt>
<trkpt lat="29.489654" lon="96.619572">
<time>2016-10-07T22:07:59Z</time></trkpt>
<trkpt lat="29.489714" lon="96.619472">
<time>2016-10-07T22:08:00Z</time></trkpt>
<trkpt lat="29.489764" lon="96.619352">
<time>2016-10-07T22:08:01Z</time></trkpt>
<trkpt lat="29.489804" lon="96.619242">
<time>2016-10-07T22:08:02Z</time></trkpt>
<trkpt lat="29.489834" lon="96.619162">
<time>2016-10-07T22:08:03Z</time></trkpt>
<trkpt lat="29.489874" lon="96.619012">
<time>2016-10-07T22:08:04Z</time></trkpt>
<trkpt lat="29.489914" lon="96.618872">
<time>2016-10-07T22:08:05Z</time></trkpt>
<trkpt lat="29.489944" lon="96.618792">
<time>2016-10-07T22:08:06Z</time></trkpt>
<trkpt lat="29.489954" lon="96.618762">
<time>2016-10-07T22:08:07Z</time></trkpt>
<trkpt lat="29.489984" lon="96.618702">
<time>2016-10-07T22:08:08Z</time></trkpt>
<trkpt lat="29.489994" lon="96.618682">
<time>2016-10-07T22:08:09Z</time></trkpt>
<trkpt lat="29.490014" lon="96.618653">
<time>2016-10-07T22:08:10Z</time></trkpt>
<trkpt lat="29.490034" lon="96.618633">
<time>2016-10-07T22:08:11Z</time></trkpt>
<trkpt lat="29.490064" lon="96.618603">
<time>2016-10-07T22:08:12Z</time></trkpt>
<trkpt lat="29.490084" lon="96.618583">
<time>2016-10-07T22:08:13Z</time></trkpt>
<trkpt lat="29.490104" lon="96.618563">
<time>2016-10-07T22:08:14Z</time></trkpt>
<trkpt lat="29.490124" lon="96.618553">
<time>2016-10-07T22:08:15Z</time></trkpt>
<trkpt lat="29.490154" lon="96.618543">
<time>2016-10-07T22:08:16Z</time></trkpt>
<trkpt lat="29.490174" lon="96.618523">
<time>2016-10-07T22:08:17Z</time></trkpt>
<trkpt lat="29.490204" lon="96.618523">
<time>2016-10-07T22:08:18Z</time></trkpt>
<trkpt lat="29.490224" lon="96.618513">
<time>2016-10-07T22:08:19Z</time></trkpt>
<trkpt lat="29.490254" lon="96.618513">
<time>2016-10-07T22:08:20Z</time></trkpt>
<trkpt lat="29.490294" lon="96.618513">
<time>2016-10-07T22:08:21Z</time></trkpt>
<trkpt lat="29.490354" lon="96.618513">
<time>2016-10-07T22:08:22Z</time></trkpt>
<trkpt lat="29.490454" lon="96.618533">
<time>2016-10-07T22:08:23Z</time></trkpt>
<trkpt lat="29.490594" lon="96.618563">
<time>2016-10-07T22:08:24Z</time></trkpt>
<trkpt lat="29.490674" lon="96.618583">
<time>2016-10-07T22:08:25Z</time></trkpt>
<trkpt lat="29.490714" lon="96.618583">
<time>2016-10-07T22:08:26Z</time></trkpt>
<trkpt lat="29.490804" lon="96.618603">
<time>2016-10-07T22:08:27Z</time></trkpt>
<trkpt lat="29.490864" lon="96.618603">
<time>2016-10-07T22:08:28Z</time></trkpt>
<trkpt lat="29.490904" lon="96.618603">
<time>2016-10-07T22:08:29Z</time></trkpt>
<trkpt lat="29.490954" lon="96.618593">
<time>2016-10-07T22:08:30Z</time></trkpt>
<trkpt lat="29.491004" lon="96.618583">
<time>2016-10-07T22:08:31Z</time></trkpt>
<trkpt lat="29.491054" lon="96.618563">
<time>2016-10-07T22:08:32Z</time></trkpt>
<trkpt lat="29.491114" lon="96.618543">
<time>2016-10-07T22:08:33Z</time></trkpt>
<trkpt lat="29.491184" lon="96.618503">
<time>2016-10-07T22:08:34Z</time></trkpt>
<trkpt lat="29.491224" lon="96.618483">
<time>2016-10-07T22:08:35Z</time></trkpt>
<trkpt lat="29.491274" lon="96.618453">
<time>2016-10-07T22:08:36Z</time></trkpt>
<trkpt lat="29.491444" lon="96.618343">
<time>2016-10-07T22:08:37Z</time></trkpt>
<trkpt lat="29.491514" lon="96.618293">
<time>2016-10-07T22:08:38Z</time></trkpt>
<trkpt lat="29.491594" lon="96.618233">
<time>2016-10-07T22:08:39Z</time></trkpt>
<trkpt lat="29.491674" lon="96.618153">
<time>2016-10-07T22:08:40Z</time></trkpt>
<trkpt lat="29.491744" lon="96.618073">
<time>2016-10-07T22:08:41Z</time></trkpt>
<trkpt lat="29.491864" lon="96.617923">
<time>2016-10-07T22:08:42Z</time></trkpt>
<trkpt lat="29.492054" lon="96.617663">
<time>2016-10-07T22:08:43Z</time></trkpt>
<trkpt lat="29.492194" lon="96.617463">
<time>2016-10-07T22:08:44Z</time></trkpt>
<trkpt lat="29.492284" lon="96.617334">
<time>2016-10-07T22:08:45Z</time></trkpt>
<trkpt lat="29.492334" lon="96.617274">
<time>2016-10-07T22:08:46Z</time></trkpt>
<trkpt lat="29.492374" lon="96.617194">
<time>2016-10-07T22:08:47Z</time></trkpt>
<trkpt lat="29.492424" lon="96.617104">
<time>2016-10-07T22:08:48Z</time></trkpt>
<trkpt lat="29.492485" lon="96.617004">
<time>2016-10-07T22:08:49Z</time></trkpt>
<trkpt lat="29.492505" lon="96.616964">
<time>2016-10-07T22:08:50Z</time></trkpt>
<trkpt lat="29.492595" lon="96.616754">
<time>2016-10-07T22:08:51Z</time></trkpt>
<trkpt lat="29.492635" lon="96.616674">
<time>2016-10-07T22:08:52Z</time></trkpt>
<trkpt lat="29.492685" lon="96.616584">
<time>2016-10-07T22:08:53Z</time></trkpt>
<trkpt lat="29.492735" lon="96.616524">
<time>2016-10-07T22:08:54Z</time></trkpt>
<trkpt lat="29.492795" lon="96.616464">
<time>2016-10-07T22:08:55Z</time></trkpt>
<trkpt lat="29.492855" lon="96.616404">
<time>2016-10-07T22:08:56Z</time></trkpt>
<trkpt lat="29.492915" lon="96.616354">
<time>2016-10-07T22:08:57Z</time></trkpt>
<trkpt lat="29.493035" lon="96.616284">
<time>2016-10-07T22:08:58Z</time></trkpt>
<trkpt lat="29.493195" lon="96.616184">
<time>2016-10-07T22:08:59Z</time></trkpt>
<trkpt lat="29.493265" lon="96.616125">
<time>2016-10-07T22:09:00Z</time></trkpt>
<trkpt lat="29.493335" lon="96.616055">
<time>2016-10-07T22:09:01Z</time></trkpt>
<trkpt lat="29.493395" lon="96.615975">
<time>2016-10-07T22:09:02Z</time></trkpt>
<trkpt lat="29.493445" lon="96.615905">
<time>2016-10-07T22:09:03Z</time></trkpt>
<trkpt lat="29.493535" lon="96.615765">
<time>2016-10-07T22:09:04Z</time></trkpt>
<trkpt lat="29.493625" lon="96.615615">
<time>2016-10-07T22:09:05Z</time></trkpt>
<trkpt lat="29.493685" lon="96.615505">
<time>2016-10-07T22:09:06Z</time></trkpt>
<trkpt lat="29.493835" lon="96.615225">
<time>2016-10-07T22:09:07Z</time></trkpt>
<trkpt lat="29.493855" lon="96.615185">
<time>2016-10-07T22:09:08Z</time></trkpt>
<trkpt lat="29.493905" lon="96.615075">
<time>2016-10-07T22:09:09Z</time></trkpt>
<trkpt lat="29.493935" lon="96.615005">
<time>2016-10-07T22:09:10Z</time></trkpt>
<trkpt lat="29.493955" lon="96.614925">
<time>2016-10-07T22:09:11Z</time></trkpt>
<trkpt lat="29.493976" lon="96.614855">
<time>2016-10-07T22:09:12Z</time></trkpt>
<trkpt lat="29.493986" lon="96.614766">
<time>2016-10-07T22:09:13Z</time></trkpt>
<trkpt lat="29.493996" lon="96.614676">
<time>2016-10-07T22:09:14Z</time></trkpt>
<trkpt lat="29.494006" lon="96.614566">
<time>2016-10-07T22:09:15Z</time></trkpt>
<trkpt lat="29.494026" lon="96.614486">
<time>2016-10-07T22:09:16Z</time></trkpt>
<trkpt lat="29.494046" lon="96.614406">
<time>2016-10-07T22:09:17Z</time></trkpt>
<trkpt lat="29.494066" lon="96.614356">
<time>2016-10-07T22:09:18Z</time></trkpt>
<trkpt lat="29.494096" lon="96.614296">
<time>2016-10-07T22:09:19Z</time></trkpt>
<trkpt lat="29.494126" lon="96.614246">
<time>2016-10-07T22:09:20Z</time></trkpt>
<trkpt lat="29.494176" lon="96.614196">
<time>2016-10-07T22:09:21Z</time></trkpt>
<trkpt lat="29.494246" lon="96.614126">
<time>2016-10-07T22:09:22Z</time></trkpt>
<trkpt lat="29.494306" lon="96.614076">
<time>2016-10-07T22:09:23Z</time></trkpt>
<trkpt lat="29.494416" lon="96.613996">
<time>2016-10-07T22:09:24Z</time></trkpt>
<trkpt lat="29.494526" lon="96.613896">
<time>2016-10-07T22:09:25Z</time></trkpt>
<trkpt lat="29.494706" lon="96.613736">
<time>2016-10-07T22:09:26Z</time></trkpt>
<trkpt lat="29.494926" lon="96.613526">
<time>2016-10-07T22:09:27Z</time></trkpt>
<trkpt lat="29.495076" lon="96.613386">
<time>2016-10-07T22:09:28Z</time></trkpt>
<trkpt lat="29.495226" lon="96.613246">
<time>2016-10-07T22:09:29Z</time></trkpt>
<trkpt lat="29.495296" lon="96.613187">
<time>2016-10-07T22:09:30Z</time></trkpt>
<trkpt lat="29.495356" lon="96.613127">
<time>2016-10-07T22:09:31Z</time></trkpt>
<trkpt lat="29.495406" lon="96.613077">
<time>2016-10-07T22:09:32Z</time></trkpt>
<trkpt lat="29.495446" lon="96.613017">
<time>2016-10-07T22:09:33Z</time></trkpt>
<trkpt lat="29.495486" lon="96.612947">
<time>2016-10-07T22:09:34Z</time></trkpt>
<trkpt lat="29.495536" lon="96.612857">
<time>2016-10-07T22:09:35Z</time></trkpt>
<trkpt lat="29.495586" lon="96.612737">
<time>2016-10-07T22:09:36Z</time></trkpt>
<trkpt lat="29.495636" lon="96.612577">
<time>2016-10-07T22:09:37Z</time></trkpt>
<trkpt lat="29.495666" lon="96.612477">
<time>2016-10-07T22:09:38Z</time></trkpt>
<trkpt lat="29.495706" lon="96.612337">
<time>2016-10-07T22:09:39Z</time></trkpt>
<trkpt lat="29.495747" lon="96.612207">
<time>2016-10-07T22:09:40Z</time></trkpt>
<trkpt lat="29.495837" lon="96.611977">
<time>2016-10-07T22:09:41Z</time></trkpt>
<trkpt lat="29.495927" lon="96.611757">
<time>2016-10-07T22:09:42Z</time></trkpt>
<trkpt lat="29.495997" lon="96.611607">
<time>2016-10-07T22:09:43Z</time></trkpt>
<trkpt lat="29.496027" lon="96.611517">
<time>2016-10-07T22:09:44Z</time></trkpt>
<trkpt lat="29.496077" lon="96.611348">
<time>2016-10-07T22:09:45Z</time></trkpt>
<trkpt lat="29.496187" lon="96.610998">
<time>2016-10-07T22:09:46Z</time></trkpt>
<trkpt lat="29.496277" lon="96.610718">
<time>2016-10-07T22:09:47Z</time></trkpt>
<trkpt lat="29.496337" lon="96.610538">
<time>2016-10-07T22:09:48Z</time></trkpt>
<trkpt lat="29.496427" lon="96.610288">
<time>2016-10-07T22:09:49Z</time></trkpt>
<trkpt lat="29.496487" lon="96.610098">
<time>2016-10-07T22:09:50Z</time></trkpt>
<trkpt lat="29.496527" lon="96.609988">
<time>2016-10-07T22:09:51Z</time></trkpt>
<trkpt lat="29.496608" lon="96.609788">
<time>2016-10-07T22:09:52Z</time></trkpt>
<trkpt lat="29.496668" lon="96.609668">
<time>2016-10-07T22:09:53Z</time></trkpt>
<trkpt lat="29.496768" lon="96.609498">
<time>2016-10-07T22:09:54Z</time></trkpt>
<trkpt lat="29.496968" lon="96.609199">
<time>2016-10-07T22:09:55Z</time></trkpt>
<trkpt lat="29.497188" lon="96.608889">
<time>2016-10-07T22:09:56Z</time></trkpt>
<trkpt lat="29.497398" lon="96.608579">
<time>2016-10-07T22:09:57Z</time></trkpt>
<trkpt lat="29.497478" lon="96.608479">
<time>2016-10-07T22:09:58Z</time></trkpt>
<trkpt lat="29.497618" lon="96.608299">
<time>2016-10-07T22:09:59Z</time></trkpt>
<trkpt lat="29.497788" lon="96.608119">
<time>2016-10-07T22:10:00Z</time></trkpt>
<trkpt lat="29.498058" lon="96.607849">
<time>2016-10-07T22:10:01Z</time></trkpt>
<trkpt lat="29.498218" lon="96.607689">
<time>2016-10-07T22:10:02Z</time></trkpt>
<trkpt lat="29.498348" lon="96.607589">
<time>2016-10-07T22:10:03Z</time></trkpt>
<trkpt lat="29.498498" lon="96.607479">
<time>2016-10-07T22:10:04Z</time></trkpt>
<trkpt lat="29.498658" lon="96.607369">
<time>2016-10-07T22:10:05Z</time></trkpt>
<trkpt lat="29.498828" lon="96.607249">
<time>2016-10-07T22:10:06Z</time></trkpt>
<trkpt lat="29.498978" lon="96.607149">
<time>2016-10-07T22:10:07Z</time></trkpt>
<trkpt lat="29.499108" lon="96.607089">
<time>2016-10-07T22:10:08Z</time></trkpt>
<trkpt lat="29.499198" lon="96.607049">
<time>2016-10-07T22:10:09Z</time></trkpt>
<trkpt lat="29.499308" lon="96.607019">
<time>2016-10-07T22:10:10Z</time></trkpt>
<trkpt lat="29.499448" lon="96.606999">
<time>2016-10-07T22:10:11Z</time></trkpt>
<trkpt lat="29.499618" lon="96.606969">
<time>2016-10-07T22:10:12Z</time></trkpt>
<trkpt lat="29.499767" lon="96.606929">
<time>2016-10-07T22:10:13Z</time></trkpt>
<trkpt lat="29.499847" lon="96.606909">
<time>2016-10-07T22:10:14Z</time></trkpt>
<trkpt lat="29.499907" lon="96.606889">
<time>2016-10-07T22:10:15Z</time></trkpt>
<trkpt lat="29.500037" lon="96.606839">
<time>2016-10-07T22:10:16Z</time></trkpt>
<trkpt lat="29.500137" lon="96.606789">
<time>2016-10-07T22:10:17Z</time></trkpt>
<trkpt lat="29.500597" lon="96.60656">
<time>2016-10-07T22:10:18Z</time></trkpt>
<trkpt lat="29.500887" lon="96.60642">
<time>2016-10-07T22:10:19Z</time></trkpt>
<trkpt lat="29.501147" lon="96.60629">
<time>2016-10-07T22:10:20Z</time></trkpt>
<trkpt lat="29.501297" lon="96.60621">
<time>2016-10-07T22:10:21Z</time></trkpt>
<trkpt lat="29.501387" lon="96.60617">
<time>2016-10-07T22:10:22Z</time></trkpt>
<trkpt lat="29.501437" lon="96.60616">
<time>2016-10-07T22:10:23Z</time></trkpt>
<trkpt lat="29.501497" lon="96.60615">
<time>2016-10-07T22:10:24Z</time></trkpt>
<trkpt lat="29.501547" lon="96.60614">
<time>2016-10-07T22:10:25Z</time></trkpt>
<trkpt lat="29.501597" lon="96.60614">
<time>2016-10-07T22:10:26Z</time></trkpt>
<trkpt lat="29.501657" lon="96.60614">
<time>2016-10-07T22:10:27Z</time></trkpt>
<trkpt lat="29.501727" lon="96.60615">
<time>2016-10-07T22:10:28Z</time></trkpt>
<trkpt lat="29.501807" lon="96.60617">
<time>2016-10-07T22:10:29Z</time></trkpt>
<trkpt lat="29.501917" lon="96.60622">
<time>2016-10-07T22:10:30Z</time></trkpt>
<trkpt lat="29.502007" lon="96.60625">
<time>2016-10-07T22:10:31Z</time></trkpt>
<trkpt lat="29.502087" lon="96.60626">
<time>2016-10-07T22:10:32Z</time></trkpt>
<trkpt lat="29.502147" lon="96.60627">
<time>2016-10-07T22:10:33Z</time></trkpt>
<trkpt lat="29.502197" lon="96.60627">
<time>2016-10-07T22:10:34Z</time></trkpt>
<trkpt lat="29.502257" lon="96.60627">
<time>2016-10-07T22:10:35Z</time></trkpt>
<trkpt lat="29.502317" lon="96.60625">
<time>2016-10-07T22:10:36Z</time></trkpt>
<trkpt lat="29.502377" lon="96.60623">
<time>2016-10-07T22:10:37Z</time></trkpt>
<trkpt lat="29.502497" lon="96.60617">
<time>2016-10-07T22:10:38Z</time></trkpt>
<trkpt lat="29.502687" lon="96.60606">
<time>2016-10-07T22:10:39Z</time></trkpt>
<trkpt lat="29.502817" lon="96.60598">
<time>2016-10-07T22:10:40Z</time></trkpt>
<trkpt lat="29.502947" lon="96.60592">
<time>2016-10-07T22:10:41Z</time></trkpt>
<trkpt lat="29.503116" lon="96.60587">
<time>2016-10-07T22:10:42Z</time></trkpt>
<trkpt lat="29.503266" lon="96.60584">
<time>2016-10-07T22:10:43Z</time></trkpt>
<trkpt lat="29.503576" lon="96.60579">
<time>2016-10-07T22:10:44Z</time></trkpt>
<trkpt lat="29.503796" lon="96.60576">
<time>2016-10-07T22:10:45Z</time></trkpt>
<trkpt lat="29.503936" lon="96.60575">
<time>2016-10-07T22:10:46Z</time></trkpt>
<trkpt lat="29.504036" lon="96.60574">
<time>2016-10-07T22:10:47Z</time></trkpt>
<trkpt lat="29.504106" lon="96.60574">
<time>2016-10-07T22:10:48Z</time></trkpt>
<trkpt lat="29.504176" lon="96.60574">
<time>2016-10-07T22:10:49Z</time></trkpt>
<trkpt lat="29.504256" lon="96.60576">
<time>2016-10-07T22:10:50Z</time></trkpt>
<trkpt lat="29.504296" lon="96.60576">
<time>2016-10-07T22:10:51Z</time></trkpt>
<trkpt lat="29.504446" lon="96.6058">
<time>2016-10-07T22:10:52Z</time></trkpt>
<trkpt lat="29.504566" lon="96.60582">
<time>2016-10-07T22:10:53Z</time></trkpt>
<trkpt lat="29.504636" lon="96.60583">
<time>2016-10-07T22:10:54Z</time></trkpt>
<trkpt lat="29.504686" lon="96.60583">
<time>2016-10-07T22:10:55Z</time></trkpt>
<trkpt lat="29.504756" lon="96.60582">
<time>2016-10-07T22:10:56Z</time></trkpt>
<trkpt lat="29.504826" lon="96.6058">
<time>2016-10-07T22:10:57Z</time></trkpt>
<trkpt lat="29.504876" lon="96.60579">
<time>2016-10-07T22:10:58Z</time></trkpt>
<trkpt lat="29.504936" lon="96.60576">
<time>2016-10-07T22:10:59Z</time></trkpt>
<trkpt lat="29.504976" lon="96.60573">
<time>2016-10-07T22:11:00Z</time></trkpt>
<trkpt lat="29.505036" lon="96.60569">
<time>2016-10-07T22:11:01Z</time></trkpt>
<trkpt lat="29.505266" lon="96.60554">
<time>2016-10-07T22:11:02Z</time></trkpt>
<trkpt lat="29.505506" lon="96.60536">
<time>2016-10-07T22:11:03Z</time></trkpt>
<trkpt lat="29.505826" lon="96.60514">
<time>2016-10-07T22:11:04Z</time></trkpt>
<trkpt lat="29.505996" lon="96.60501">
<time>2016-10-07T22:11:05Z</time></trkpt>
<trkpt lat="29.506116" lon="96.60494">
<time>2016-10-07T22:11:06Z</time></trkpt>
<trkpt lat="29.506236" lon="96.60486">
<time>2016-10-07T22:11:07Z</time></trkpt>
<trkpt lat="29.506375" lon="96.60482">
<time>2016-10-07T22:11:08Z</time></trkpt>
<trkpt lat="29.506505" lon="96.60478">
<time>2016-10-07T22:11:09Z</time></trkpt>
<trkpt lat="29.506715" lon="96.60475">
<time>2016-10-07T22:11:10Z</time></trkpt>
<trkpt lat="29.507015" lon="96.60469">
<time>2016-10-07T22:11:11Z</time></trkpt>
<trkpt lat="29.507195" lon="96.60465">
<time>2016-10-07T22:11:12Z</time></trkpt>
<trkpt lat="29.507545" lon="96.60455">
<time>2016-10-07T22:11:13Z</time></trkpt>
<trkpt lat="29.507635" lon="96.60452">
<time>2016-10-07T22:11:14Z</time></trkpt>
<trkpt lat="29.507675" lon="96.60451">
<time>2016-10-07T22:11:15Z</time></trkpt>
<trkpt lat="29.507715" lon="96.60449">
<time>2016-10-07T22:11:16Z</time></trkpt>
<trkpt lat="29.507745" lon="96.60446">
<time>2016-10-07T22:11:17Z</time></trkpt>
<trkpt lat="29.507775" lon="96.60443">
<time>2016-10-07T22:11:18Z</time></trkpt>
<trkpt lat="29.507795" lon="96.60439">
<time>2016-10-07T22:11:19Z</time></trkpt>
<trkpt lat="29.507805" lon="96.60436">
<time>2016-10-07T22:11:20Z</time></trkpt>
<trkpt lat="29.507815" lon="96.60432">
<time>2016-10-07T22:11:21Z</time></trkpt>
<trkpt lat="29.507815" lon="96.60428">
<time>2016-10-07T22:11:22Z</time></trkpt>
<trkpt lat="29.507815" lon="96.60423">
<time>2016-10-07T22:11:23Z</time></trkpt>
<trkpt lat="29.507805" lon="96.60419">
<time>2016-10-07T22:11:24Z</time></trkpt>
<trkpt lat="29.507785" lon="96.60413">
<time>2016-10-07T22:11:25Z</time></trkpt>
<trkpt lat="29.507755" lon="96.60406">
<time>2016-10-07T22:11:26Z</time></trkpt>
<trkpt lat="29.507725" lon="96.60399">
<time>2016-10-07T22:11:27Z</time></trkpt>
<trkpt lat="29.507525" lon="96.60356">
<time>2016-10-07T22:11:28Z</time></trkpt>
<trkpt lat="29.507495" lon="96.6035">
<time>2016-10-07T22:11:29Z</time></trkpt>
<trkpt lat="29.507485" lon="96.60345">
<time>2016-10-07T22:11:30Z</time></trkpt>
<trkpt lat="29.507475" lon="96.60341">
<time>2016-10-07T22:11:31Z</time></trkpt>
<trkpt lat="29.507465" lon="96.60336">
<time>2016-10-07T22:11:32Z</time></trkpt>
<trkpt lat="29.507465" lon="96.60331">
<time>2016-10-07T22:11:33Z</time></trkpt>
<trkpt lat="29.507465" lon="96.60325">
<time>2016-10-07T22:11:34Z</time></trkpt>
<trkpt lat="29.507475" lon="96.6032">
<time>2016-10-07T22:11:35Z</time></trkpt>
<trkpt lat="29.507495" lon="96.60316">
<time>2016-10-07T22:11:36Z</time></trkpt>
<trkpt lat="29.507515" lon="96.60311">
<time>2016-10-07T22:11:37Z</time></trkpt>
<trkpt lat="29.507545" lon="96.60305">
<time>2016-10-07T22:11:38Z</time></trkpt>
<trkpt lat="29.507605" lon="96.60297">
<time>2016-10-07T22:11:39Z</time></trkpt>
<trkpt lat="29.507695" lon="96.60285">
<time>2016-10-07T22:11:40Z</time></trkpt>
<trkpt lat="29.507795" lon="96.60273">
<time>2016-10-07T22:11:41Z</time></trkpt>
<trkpt lat="29.507965" lon="96.60251">
<time>2016-10-07T22:11:42Z</time></trkpt>
<trkpt lat="29.508115" lon="96.60227">
<time>2016-10-07T22:11:43Z</time></trkpt>
<trkpt lat="29.508205" lon="96.60209">
<time>2016-10-07T22:11:44Z</time></trkpt>
<trkpt lat="29.508265" lon="96.60199">
<time>2016-10-07T22:11:45Z</time></trkpt>
<trkpt lat="29.508325" lon="96.60192">
<time>2016-10-07T22:11:46Z</time></trkpt>
<trkpt lat="29.508415" lon="96.60183">
<time>2016-10-07T22:11:47Z</time></trkpt>
<trkpt lat="29.508565" lon="96.6017">
<time>2016-10-07T22:11:48Z</time></trkpt>
<trkpt lat="29.508615" lon="96.60164">
<time>2016-10-07T22:11:49Z</time></trkpt>
<trkpt lat="29.508665" lon="96.60158">
<time>2016-10-07T22:11:50Z</time></trkpt>
<trkpt lat="29.508705" lon="96.60152">
<time>2016-10-07T22:11:51Z</time></trkpt>
<trkpt lat="29.508735" lon="96.60145">
<time>2016-10-07T22:11:52Z</time></trkpt>
<trkpt lat="29.508775" lon="96.60137">
<time>2016-10-07T22:11:53Z</time></trkpt>
<trkpt lat="29.508835" lon="96.60114">
<time>2016-10-07T22:11:54Z</time></trkpt>
<trkpt lat="29.508915" lon="96.60092">
<time>2016-10-07T22:11:55Z</time></trkpt>
<trkpt lat="29.508955" lon="96.60081">
<time>2016-10-07T22:11:56Z</time></trkpt>
<trkpt lat="29.509005" lon="96.60073">
<time>2016-10-07T22:11:57Z</time></trkpt>
<trkpt lat="29.509055" lon="96.60065">
<time>2016-10-07T22:11:58Z</time></trkpt>
<trkpt lat="29.509105" lon="96.60059">
<time>2016-10-07T22:11:59Z</time></trkpt>
<trkpt lat="29.509175" lon="96.60052">
<time>2016-10-07T22:12:00Z</time></trkpt>
<trkpt lat="29.509285" lon="96.60041">
<time>2016-10-07T22:12:01Z</time></trkpt>
<trkpt lat="29.509385" lon="96.60032">
<time>2016-10-07T22:12:02Z</time></trkpt>
<trkpt lat="29.509465" lon="96.60023">
<time>2016-10-07T22:12:03Z</time></trkpt>
<trkpt lat="29.509545" lon="96.60012">
<time>2016-10-07T22:12:04Z</time></trkpt>
<trkpt lat="29.509625" lon="96.59998">
<time>2016-10-07T22:12:05Z</time></trkpt>
<trkpt lat="29.509765" lon="96.59974">
<time>2016-10-07T22:12:06Z</time></trkpt>
<trkpt lat="29.509845" lon="96.59963">
<time>2016-10-07T22:12:07Z</time></trkpt>
<trkpt lat="29.509905" lon="96.59955">
<time>2016-10-07T22:12:08Z</time></trkpt>
<trkpt lat="29.510005" lon="96.59945">
<time>2016-10-07T22:12:09Z</time></trkpt>
<trkpt lat="29.510075" lon="96.59938">
<time>2016-10-07T22:12:10Z</time></trkpt>
<trkpt lat="29.510175" lon="96.59929">
<time>2016-10-07T22:12:11Z</time></trkpt>
<trkpt lat="29.510275" lon="96.59922">
<time>2016-10-07T22:12:12Z</time></trkpt>
<trkpt lat="29.510375" lon="96.59915">
<time>2016-10-07T22:12:13Z</time></trkpt>
<trkpt lat="29.510445" lon="96.5991">
<time>2016-10-07T22:12:14Z</time></trkpt>
<trkpt lat="29.510505" lon="96.59905">
<time>2016-10-07T22:12:15Z</time></trkpt>
<trkpt lat="29.510555" lon="96.599">
<time>2016-10-07T22:12:16Z</time></trkpt>
<trkpt lat="29.510605" lon="96.59893">
<time>2016-10-07T22:12:17Z</time></trkpt>
<trkpt lat="29.510655" lon="96.59885">
<time>2016-10-07T22:12:18Z</time></trkpt>
<trkpt lat="29.510715" lon="96.59876">
<time>2016-10-07T22:12:19Z</time></trkpt>
<trkpt lat="29.510745" lon="96.59871">
<time>2016-10-07T22:12:20Z</time></trkpt>
<trkpt lat="29.510785" lon="96.59866">
<time>2016-10-07T22:12:21Z</time></trkpt>
<trkpt lat="29.510875" lon="96.59859">
<time>2016-10-07T22:12:22Z</time></trkpt>
<trkpt lat="29.510995" lon="96.5985">
<time>2016-10-07T22:12:23Z</time></trkpt>
<trkpt lat="29.511325" lon="96.59828">
<time>2016-10-07T22:12:24Z</time></trkpt>
<trkpt lat="29.511455" lon="96.59818">
<time>2016-10-07T22:12:25Z</time></trkpt>
<trkpt lat="29.511594" lon="96.59804">
<time>2016-10-07T22:12:26Z</time></trkpt>
<trkpt lat="29.511714" lon="96.59789">
<time>2016-10-07T22:12:27Z</time></trkpt>
<trkpt lat="29.511844" lon="96.5977">
<time>2016-10-07T22:12:28Z</time></trkpt>
<trkpt lat="29.512104" lon="96.5973">
<time>2016-10-07T22:12:29Z</time></trkpt>
<trkpt lat="29.512214" lon="96.59708">
<time>2016-10-07T22:12:30Z</time></trkpt>
<trkpt lat="29.512254" lon="96.597">
<time>2016-10-07T22:12:31Z</time></trkpt>
<trkpt lat="29.512274" lon="96.59694">
<time>2016-10-07T22:12:32Z</time></trkpt>
<trkpt lat="29.512294" lon="96.59688">
<time>2016-10-07T22:12:33Z</time></trkpt>
<trkpt lat="29.512304" lon="96.59682">
<time>2016-10-07T22:12:34Z</time></trkpt>
<trkpt lat="29.512324" lon="96.59671">
<time>2016-10-07T22:12:35Z</time></trkpt>
<trkpt lat="29.512334" lon="96.59663">
<time>2016-10-07T22:12:36Z</time></trkpt>
<trkpt lat="29.512344" lon="96.59654">
<time>2016-10-07T22:12:37Z</time></trkpt>
<trkpt lat="29.512354" lon="96.59646">
<time>2016-10-07T22:12:38Z</time></trkpt>
<trkpt lat="29.512354" lon="96.59639">
<time>2016-10-07T22:12:39Z</time></trkpt>
<trkpt lat="29.512344" lon="96.59633">
<time>2016-10-07T22:12:40Z</time></trkpt>
<trkpt lat="29.512334" lon="96.59625">
<time>2016-10-07T22:12:41Z</time></trkpt>
<trkpt lat="29.512314" lon="96.59617">
<time>2016-10-07T22:12:42Z</time></trkpt>
<trkpt lat="29.512264" lon="96.59599">
<time>2016-10-07T22:12:43Z</time></trkpt>
<trkpt lat="29.512234" lon="96.59588">
<time>2016-10-07T22:12:44Z</time></trkpt>
<trkpt lat="29.512224" lon="96.59583">
<time>2016-10-07T22:12:45Z</time></trkpt>
<trkpt lat="29.512224" lon="96.5958">
<time>2016-10-07T22:12:46Z</time></trkpt>
<trkpt lat="29.512224" lon="96.59576">
<time>2016-10-07T22:12:47Z</time></trkpt>
<trkpt lat="29.512224" lon="96.59572">
<time>2016-10-07T22:12:48Z</time></trkpt>
<trkpt lat="29.512234" lon="96.5957">
<time>2016-10-07T22:12:49Z</time></trkpt>
<trkpt lat="29.512244" lon="96.59565">
<time>2016-10-07T22:12:50Z</time></trkpt>
<trkpt lat="29.512254" lon="96.59561">
<time>2016-10-07T22:12:51Z</time></trkpt>
<trkpt lat="29.512284" lon="96.59557">
<time>2016-10-07T22:12:52Z</time></trkpt>
<trkpt lat="29.512324" lon="96.59551">
<time>2016-10-07T22:12:53Z</time></trkpt>
<trkpt lat="29.512374" lon="96.59545">
<time>2016-10-07T22:12:54Z</time></trkpt>
<trkpt lat="29.512444" lon="96.59539">
<time>2016-10-07T22:12:55Z</time></trkpt>
<trkpt lat="29.512544" lon="96.59528">
<time>2016-10-07T22:12:56Z</time></trkpt>
<trkpt lat="29.512694" lon="96.59512">
<time>2016-10-07T22:12:57Z</time></trkpt>
<trkpt lat="29.512734" lon="96.59508">
<time>2016-10-07T22:12:58Z</time></trkpt>
<trkpt lat="29.512764" lon="96.59503">
<time>2016-10-07T22:12:59Z</time></trkpt>
<trkpt lat="29.512804" lon="96.594959">
<time>2016-10-07T22:13:00Z</time></trkpt>
<trkpt lat="29.512844" lon="96.594899">
<time>2016-10-07T22:13:01Z</time></trkpt>
<trkpt lat="29.512864" lon="96.594829">
<time>2016-10-07T22:13:02Z</time></trkpt>
<trkpt lat="29.512894" lon="96.594759">
<time>2016-10-07T22:13:03Z</time></trkpt>
<trkpt lat="29.512914" lon="96.594639">
<time>2016-10-07T22:13:04Z</time></trkpt>
<trkpt lat="29.512944" lon="96.594519">
<time>2016-10-07T22:13:05Z</time></trkpt>
<trkpt lat="29.512964" lon="96.594359">
<time>2016-10-07T22:13:06Z</time></trkpt>
<trkpt lat="29.512994" lon="96.594239">
<time>2016-10-07T22:13:07Z</time></trkpt>
<trkpt lat="29.513024" lon="96.594139">
<time>2016-10-07T22:13:08Z</time></trkpt>
<trkpt lat="29.513084" lon="96.593999">
<time>2016-10-07T22:13:09Z</time></trkpt>
<trkpt lat="29.513144" lon="96.593859">
<time>2016-10-07T22:13:10Z</time></trkpt>
<trkpt lat="29.513213" lon="96.593739">
<time>2016-10-07T22:13:11Z</time></trkpt>
<trkpt lat="29.513273" lon="96.593609">
<time>2016-10-07T22:13:12Z</time></trkpt>
<trkpt lat="29.513323" lon="96.593489">
<time>2016-10-07T22:13:13Z</time></trkpt>
<trkpt lat="29.513363" lon="96.593369">
<time>2016-10-07T22:13:14Z</time></trkpt>
<trkpt lat="29.513393" lon="96.593259">
<time>2016-10-07T22:13:15Z</time></trkpt>
<trkpt lat="29.513423" lon="96.593139">
<time>2016-10-07T22:13:16Z</time></trkpt>
<trkpt lat="29.513443" lon="96.593049">
<time>2016-10-07T22:13:17Z</time></trkpt>
<trkpt lat="29.513473" lon="96.592869">
<time>2016-10-07T22:13:18Z</time></trkpt>
<trkpt lat="29.513513" lon="96.592549">
<time>2016-10-07T22:13:19Z</time></trkpt>
<trkpt lat="29.513553" lon="96.592309">
<time>2016-10-07T22:13:20Z</time></trkpt>
<trkpt lat="29.513583" lon="96.592098">
<time>2016-10-07T22:13:21Z</time></trkpt>
<trkpt lat="29.513603" lon="96.591958">
<time>2016-10-07T22:13:22Z</time></trkpt>
<trkpt lat="29.513613" lon="96.591848">
<time>2016-10-07T22:13:23Z</time></trkpt>
<trkpt lat="29.513613" lon="96.591748">
<time>2016-10-07T22:13:24Z</time></trkpt>
<trkpt lat="29.513603" lon="96.591648">
<time>2016-10-07T22:13:25Z</time></trkpt>
<trkpt lat="29.513593" lon="96.591538">
<time>2016-10-07T22:13:26Z</time></trkpt>
<trkpt lat="29.513583" lon="96.591458">
<time>2016-10-07T22:13:27Z</time></trkpt>
<trkpt lat="29.513563" lon="96.591388">
<time>2016-10-07T22:13:28Z</time></trkpt>
<trkpt lat="29.513543" lon="96.591338">
<time>2016-10-07T22:13:29Z</time></trkpt>
<trkpt lat="29.513503" lon="96.591258">
<time>2016-10-07T22:13:30Z</time></trkpt>
<trkpt lat="29.513453" lon="96.591188">
<time>2016-10-07T22:13:31Z</time></trkpt>
<trkpt lat="29.513383" lon="96.591098">
<time>2016-10-07T22:13:32Z</time></trkpt>
<trkpt lat="29.513243" lon="96.590968">
<time>2016-10-07T22:13:33Z</time></trkpt>
<trkpt lat="29.513053" lon="96.590788">
<time>2016-10-07T22:13:34Z</time></trkpt>
<trkpt lat="29.512913" lon="96.590688">
<time>2016-10-07T22:13:35Z</time></trkpt>
<trkpt lat="29.512683" lon="96.590548">
<time>2016-10-07T22:13:36Z</time></trkpt>
<trkpt lat="29.512503" lon="96.590478">
<time>2016-10-07T22:13:37Z</time></trkpt>
<trkpt lat="29.512323" lon="96.590408">
<time>2016-10-07T22:13:38Z</time></trkpt>
<trkpt lat="29.512143" lon="96.590358">
<time>2016-10-07T22:13:39Z</time></trkpt>
<trkpt lat="29.511973" lon="96.590318">
<time>2016-10-07T22:13:40Z</time></trkpt>
<trkpt lat="29.511803" lon="96.590318">
<time>2016-10-07T22:13:41Z</time></trkpt>
<trkpt lat="29.511603" lon="96.590328">
<time>2016-10-07T22:13:42Z</time></trkpt>
<trkpt lat="29.511433" lon="96.590348">
<time>2016-10-07T22:13:43Z</time></trkpt>
<trkpt lat="29.511293" lon="96.590358">
<time>2016-10-07T22:13:44Z</time></trkpt>
<trkpt lat="29.511203" lon="96.590368">
<time>2016-10-07T22:13:45Z</time></trkpt>
<trkpt lat="29.511153" lon="96.590368">
<time>2016-10-07T22:13:46Z</time></trkpt>
<trkpt lat="29.511103" lon="96.590358">
<time>2016-10-07T22:13:47Z</time></trkpt>
<trkpt lat="29.511044" lon="96.590338">
<time>2016-10-07T22:13:48Z</time></trkpt>
<trkpt lat="29.510954" lon="96.590288">
<time>2016-10-07T22:13:49Z</time></trkpt>
<trkpt lat="29.510874" lon="96.590228">
<time>2016-10-07T22:13:50Z</time></trkpt>
<trkpt lat="29.510814" lon="96.590178">
<time>2016-10-07T22:13:51Z</time></trkpt>
<trkpt lat="29.510764" lon="96.590107">
<time>2016-10-07T22:13:52Z</time></trkpt>
<trkpt lat="29.510724" lon="96.590027">
<time>2016-10-07T22:13:53Z</time></trkpt>
<trkpt lat="29.510684" lon="96.589917">
<time>2016-10-07T22:13:54Z</time></trkpt>
<trkpt lat="29.510654" lon="96.589817">
<time>2016-10-07T22:13:55Z</time></trkpt>
<trkpt lat="29.510583" lon="96.589437">
<time>2016-10-07T22:13:56Z</time></trkpt>
<trkpt lat="29.510503" lon="96.589077">
<time>2016-10-07T22:13:57Z</time></trkpt>
<trkpt lat="29.510313" lon="96.588386">
<time>2016-10-07T22:13:58Z</time></trkpt>
<trkpt lat="29.510283" lon="96.588246">
<time>2016-10-07T22:13:59Z</time></trkpt>
<trkpt lat="29.510273" lon="96.588086">
<time>2016-10-07T22:14:00Z</time></trkpt>
<trkpt lat="29.510273" lon="96.587966">
<time>2016-10-07T22:14:01Z</time></trkpt>
<trkpt lat="29.510293" lon="96.587836">
<time>2016-10-07T22:14:02Z</time></trkpt>
<trkpt lat="29.510333" lon="96.587646">
<time>2016-10-07T22:14:03Z</time></trkpt>
<trkpt lat="29.510453" lon="96.587186">
<time>2016-10-07T22:14:04Z</time></trkpt>
<trkpt lat="29.510572" lon="96.586745">
<time>2016-10-07T22:14:05Z</time></trkpt>
<trkpt lat="29.510652" lon="96.586455">
<time>2016-10-07T22:14:06Z</time></trkpt>
<trkpt lat="29.510772" lon="96.586045">
<time>2016-10-07T22:14:07Z</time></trkpt>
<trkpt lat="29.510802" lon="96.585885">
<time>2016-10-07T22:14:08Z</time></trkpt>
<trkpt lat="29.510822" lon="96.585755">
<time>2016-10-07T22:14:09Z</time></trkpt>
<trkpt lat="29.510822" lon="96.585625">
<time>2016-10-07T22:14:10Z</time></trkpt>
<trkpt lat="29.510822" lon="96.585464">
<time>2016-10-07T22:14:11Z</time></trkpt>
<trkpt lat="29.510811" lon="96.585344">
<time>2016-10-07T22:14:12Z</time></trkpt>
<trkpt lat="29.510791" lon="96.585234">
<time>2016-10-07T22:14:13Z</time></trkpt>
<trkpt lat="29.510761" lon="96.585074">
<time>2016-10-07T22:14:14Z</time></trkpt>
<trkpt lat="29.510741" lon="96.584984">
<time>2016-10-07T22:14:15Z</time></trkpt>
<trkpt lat="29.510731" lon="96.584904">
<time>2016-10-07T22:14:16Z</time></trkpt>
<trkpt lat="29.510731" lon="96.584764">
<time>2016-10-07T22:14:17Z</time></trkpt>
<trkpt lat="29.510731" lon="96.584604">
<time>2016-10-07T22:14:18Z</time></trkpt>
<trkpt lat="29.510791" lon="96.584043">
<time>2016-10-07T22:14:19Z</time></trkpt>
<trkpt lat="29.51092" lon="96.582722">
<time>2016-10-07T22:14:20Z</time></trkpt>
<trkpt lat="29.511089" lon="96.58107">
<time>2016-10-07T22:14:21Z</time></trkpt>
<trkpt lat="29.511158" lon="96.58037">
<time>2016-10-07T22:14:22Z</time></trkpt>
<trkpt lat="29.511188" lon="96.580079">
<time>2016-10-07T22:14:23Z</time></trkpt>
<trkpt lat="29.511208" lon="96.579899">
<time>2016-10-07T22:14:24Z</time></trkpt>
<trkpt lat="29.511238" lon="96.579769">
<time>2016-10-07T22:14:25Z</time></trkpt>
<trkpt lat="29.511287" lon="96.579639">
<time>2016-10-07T22:14:26Z</time></trkpt>
<trkpt lat="29.511347" lon="96.579509">
<time>2016-10-07T22:14:27Z</time></trkpt>
<trkpt lat="29.511407" lon="96.579399">
<time>2016-10-07T22:14:28Z</time></trkpt>
<trkpt lat="29.511507" lon="96.579279">
<time>2016-10-07T22:14:29Z</time></trkpt>
<trkpt lat="29.511637" lon="96.579138">
<time>2016-10-07T22:14:30Z</time></trkpt>
<trkpt lat="29.512676" lon="96.578117">
<time>2016-10-07T22:14:31Z</time></trkpt>
<trkpt lat="29.512965" lon="96.577837">
<time>2016-10-07T22:14:32Z</time></trkpt>
<trkpt lat="29.513075" lon="96.577717">
<time>2016-10-07T22:14:33Z</time></trkpt>
<trkpt lat="29.513215" lon="96.577597">
<time>2016-10-07T22:14:34Z</time></trkpt>
<trkpt lat="29.513315" lon="96.577516">
<time>2016-10-07T22:14:35Z</time></trkpt>
<trkpt lat="29.513405" lon="96.577476">
<time>2016-10-07T22:14:36Z</time></trkpt>
<trkpt lat="29.513495" lon="96.577446">
<time>2016-10-07T22:14:37Z</time></trkpt>
<trkpt lat="29.513605" lon="96.577426">
<time>2016-10-07T22:14:38Z</time></trkpt>
<trkpt lat="29.513735" lon="96.577416">
<time>2016-10-07T22:14:39Z</time></trkpt>
<trkpt lat="29.513904" lon="96.577416">
<time>2016-10-07T22:14:40Z</time></trkpt>
<trkpt lat="29.514204" lon="96.577426">
<time>2016-10-07T22:14:41Z</time></trkpt>
<trkpt lat="29.514894" lon="96.577476">
<time>2016-10-07T22:14:42Z</time></trkpt>
<trkpt lat="29.515314" lon="96.577476">
<time>2016-10-07T22:14:43Z</time></trkpt>
<trkpt lat="29.515584" lon="96.577466">
<time>2016-10-07T22:14:44Z</time></trkpt>
<trkpt lat="29.515834" lon="96.577436">
<time>2016-10-07T22:14:45Z</time></trkpt>
<trkpt lat="29.516054" lon="96.577386">
<time>2016-10-07T22:14:46Z</time></trkpt>
<trkpt lat="29.516413" lon="96.577286">
<time>2016-10-07T22:14:47Z</time></trkpt>
<trkpt lat="29.516733" lon="96.577166">
<time>2016-10-07T22:14:48Z</time></trkpt>
<trkpt lat="29.516963" lon="96.577046">
<time>2016-10-07T22:14:49Z</time></trkpt>
<trkpt lat="29.517173" lon="96.576916">
<time>2016-10-07T22:14:50Z</time></trkpt>
<trkpt lat="29.517382" lon="96.576735">
<time>2016-10-07T22:14:51Z</time></trkpt>
<trkpt lat="29.517562" lon="96.576525">
<time>2016-10-07T22:14:52Z</time></trkpt>
<trkpt lat="29.517931" lon="96.576015">
<time>2016-10-07T22:14:53Z</time></trkpt>
<trkpt lat="29.51885" lon="96.574733">
<time>2016-10-07T22:14:54Z</time></trkpt>
<trkpt lat="29.519099" lon="96.574392">
<time>2016-10-07T22:14:55Z</time></trkpt>
<trkpt lat="29.519369" lon="96.574062">
<time>2016-10-07T22:14:56Z</time></trkpt>
<trkpt lat="29.519569" lon="96.573852">
<time>2016-10-07T22:14:57Z</time></trkpt>
<trkpt lat="29.519698" lon="96.573711">
<time>2016-10-07T22:14:58Z</time></trkpt>
<trkpt lat="29.519818" lon="96.573611">
<time>2016-10-07T22:14:59Z</time></trkpt>
<trkpt lat="29.519968" lon="96.573491">
<time>2016-10-07T22:15:00Z</time></trkpt>
<trkpt lat="29.520158" lon="96.573391">
<time>2016-10-07T22:15:01Z</time></trkpt>
<trkpt lat="29.520937" lon="96.57303">
<time>2016-10-07T22:15:02Z</time></trkpt>
<trkpt lat="29.521167" lon="96.57292">
<time>2016-10-07T22:15:03Z</time></trkpt>
<trkpt lat="29.521417" lon="96.57278">
<time>2016-10-07T22:15:04Z</time></trkpt>
<trkpt lat="29.521587" lon="96.5727">
<time>2016-10-07T22:15:05Z</time></trkpt>
<trkpt lat="29.521677" lon="96.57267">
<time>2016-10-07T22:15:06Z</time></trkpt>
<trkpt lat="29.521796" lon="96.57265">
<time>2016-10-07T22:15:07Z</time></trkpt>
<trkpt lat="29.521906" lon="96.57264">
<time>2016-10-07T22:15:08Z</time></trkpt>
<trkpt lat="29.522076" lon="96.57265">
<time>2016-10-07T22:15:09Z</time></trkpt>
<trkpt lat="29.522366" lon="96.5727">
<time>2016-10-07T22:15:10Z</time></trkpt>
<trkpt lat="29.522686" lon="96.57274">
<time>2016-10-07T22:15:11Z</time></trkpt>
<trkpt lat="29.522916" lon="96.57276">
<time>2016-10-07T22:15:12Z</time></trkpt>
<trkpt lat="29.523056" lon="96.57276">
<time>2016-10-07T22:15:13Z</time></trkpt>
<trkpt lat="29.523216" lon="96.57273">
<time>2016-10-07T22:15:14Z</time></trkpt>
<trkpt lat="29.523296" lon="96.57271">
<time>2016-10-07T22:15:15Z</time></trkpt>
<trkpt lat="29.523406" lon="96.57268">
<time>2016-10-07T22:15:16Z</time></trkpt>
<trkpt lat="29.523516" lon="96.57263">
<time>2016-10-07T22:15:17Z</time></trkpt>
<trkpt lat="29.523616" lon="96.57256">
<time>2016-10-07T22:15:18Z</time></trkpt>
<trkpt lat="29.523726" lon="96.57248">
<time>2016-10-07T22:15:19Z</time></trkpt>
<trkpt lat="29.523825" lon="96.572369">
<time>2016-10-07T22:15:20Z</time></trkpt>
<trkpt lat="29.523915" lon="96.572269">
<time>2016-10-07T22:15:21Z</time></trkpt>
<trkpt lat="29.524065" lon="96.572069">
<time>2016-10-07T22:15:22Z</time></trkpt>
<trkpt lat="29.524215" lon="96.571879">
<time>2016-10-07T22:15:23Z</time></trkpt>
<trkpt lat="29.524324" lon="96.571758">
<time>2016-10-07T22:15:24Z</time></trkpt>
<trkpt lat="29.524424" lon="96.571668">
<time>2016-10-07T22:15:25Z</time></trkpt>
<trkpt lat="29.524514" lon="96.571588">
<time>2016-10-07T22:15:26Z</time></trkpt>
<trkpt lat="29.524684" lon="96.571478">
<time>2016-10-07T22:15:27Z</time></trkpt>
<trkpt lat="29.524984" lon="96.571258">
<time>2016-10-07T22:15:28Z</time></trkpt>
<trkpt lat="29.525113" lon="96.571148">
<time>2016-10-07T22:15:29Z</time></trkpt>
<trkpt lat="29.525203" lon="96.571047">
<time>2016-10-07T22:15:30Z</time></trkpt>
<trkpt lat="29.525293" lon="96.570937">
<time>2016-10-07T22:15:31Z</time></trkpt>
<trkpt lat="29.525353" lon="96.570847">
<time>2016-10-07T22:15:32Z</time></trkpt>
<trkpt lat="29.525413" lon="96.570727">
<time>2016-10-07T22:15:33Z</time></trkpt>
<trkpt lat="29.525463" lon="96.570597">
<time>2016-10-07T22:15:34Z</time></trkpt>
<trkpt lat="29.525512" lon="96.570476">
<time>2016-10-07T22:15:35Z</time></trkpt>
<trkpt lat="29.525532" lon="96.570366">
<time>2016-10-07T22:15:36Z</time></trkpt>
<trkpt lat="29.525562" lon="96.570256">
<time>2016-10-07T22:15:37Z</time></trkpt>
<trkpt lat="29.525572" lon="96.570176">
<time>2016-10-07T22:15:38Z</time></trkpt>
<trkpt lat="29.525582" lon="96.570086">
<time>2016-10-07T22:15:39Z</time></trkpt>
<trkpt lat="29.525582" lon="96.569986">
<time>2016-10-07T22:15:40Z</time></trkpt>
<trkpt lat="29.525572" lon="96.569866">
<time>2016-10-07T22:15:41Z</time></trkpt>
<trkpt lat="29.525551" lon="96.569655">
<time>2016-10-07T22:15:42Z</time></trkpt>
<trkpt lat="29.525531" lon="96.569475">
<time>2016-10-07T22:15:43Z</time></trkpt>
<trkpt lat="29.525501" lon="96.569285">
<time>2016-10-07T22:15:44Z</time></trkpt>
<trkpt lat="29.525501" lon="96.569194">
<time>2016-10-07T22:15:45Z</time></trkpt>
<trkpt lat="29.525501" lon="96.569124">
<time>2016-10-07T22:15:46Z</time></trkpt>
<trkpt lat="29.525511" lon="96.569054">
<time>2016-10-07T22:15:47Z</time></trkpt>
<trkpt lat="29.525521" lon="96.568984">
<time>2016-10-07T22:15:48Z</time></trkpt>
<trkpt lat="29.52555" lon="96.568894">
<time>2016-10-07T22:15:49Z</time></trkpt>
<trkpt lat="29.52558" lon="96.568814">
<time>2016-10-07T22:15:50Z</time></trkpt>
<trkpt lat="29.52563" lon="96.568724">
<time>2016-10-07T22:15:51Z</time></trkpt>
<trkpt lat="29.52569" lon="96.568633">
<time>2016-10-07T22:15:52Z</time></trkpt>
<trkpt lat="29.52589" lon="96.568333">
<time>2016-10-07T22:15:53Z</time></trkpt>
<trkpt lat="29.526079" lon="96.568073">
<time>2016-10-07T22:15:54Z</time></trkpt>
<trkpt lat="29.526139" lon="96.567962">
<time>2016-10-07T22:15:55Z</time></trkpt>
<trkpt lat="29.526179" lon="96.567862">
<time>2016-10-07T22:15:56Z</time></trkpt>
<trkpt lat="29.526199" lon="96.567772">
<time>2016-10-07T22:15:57Z</time></trkpt>
<trkpt lat="29.526229" lon="96.567672">
<time>2016-10-07T22:15:58Z</time></trkpt>
<trkpt lat="29.526239" lon="96.567602">
<time>2016-10-07T22:15:59Z</time></trkpt>
<trkpt lat="29.526248" lon="96.567472">
<time>2016-10-07T22:16:00Z</time></trkpt>
<trkpt lat="29.526258" lon="96.567281">
<time>2016-10-07T22:16:01Z</time></trkpt>
<trkpt lat="29.526268" lon="96.566921">
<time>2016-10-07T22:16:02Z</time></trkpt>
<trkpt lat="29.526277" lon="96.56671">
<time>2016-10-07T22:16:03Z</time></trkpt>
<trkpt lat="29.526297" lon="96.56653">
<time>2016-10-07T22:16:04Z</time></trkpt>
<trkpt lat="29.526327" lon="96.56639">
<time>2016-10-07T22:16:05Z</time></trkpt>
<trkpt lat="29.526357" lon="96.566259">
<time>2016-10-07T22:16:06Z</time></trkpt>
<trkpt lat="29.526476" lon="96.565748">
<time>2016-10-07T22:16:07Z</time></trkpt>
<trkpt lat="29.526625" lon="96.565107">
<time>2016-10-07T22:16:08Z</time></trkpt>
<trkpt lat="29.526675" lon="96.564857">
<time>2016-10-07T22:16:09Z</time></trkpt>
<trkpt lat="29.526734" lon="96.564656">
<time>2016-10-07T22:16:10Z</time></trkpt>
<trkpt lat="29.526794" lon="96.564486">
<time>2016-10-07T22:16:11Z</time></trkpt>
<trkpt lat="29.526854" lon="96.564326">
<time>2016-10-07T22:16:12Z</time></trkpt>
<trkpt lat="29.527133" lon="96.563695">
<time>2016-10-07T22:16:13Z</time></trkpt>
<trkpt lat="29.527441" lon="96.562983">
<time>2016-10-07T22:16:14Z</time></trkpt>
<trkpt lat="29.52772" lon="96.562322">
<time>2016-10-07T22:16:15Z</time></trkpt>
<trkpt lat="29.52778" lon="96.562192">
<time>2016-10-07T22:16:16Z</time></trkpt>
<trkpt lat="29.52782" lon="96.562031">
<time>2016-10-07T22:16:17Z</time></trkpt>
<trkpt lat="29.52785" lon="96.561871">
<time>2016-10-07T22:16:18Z</time></trkpt>
<trkpt lat="29.527899" lon="96.56152">
<time>2016-10-07T22:16:19Z</time></trkpt>
<trkpt lat="29.527919" lon="96.56128">
<time>2016-10-07T22:16:20Z</time></trkpt>
<trkpt lat="29.527948" lon="96.560969">
<time>2016-10-07T22:16:21Z</time></trkpt>
<trkpt lat="29.527958" lon="96.560829">
<time>2016-10-07T22:16:22Z</time></trkpt>
<trkpt lat="29.527978" lon="96.560729">
<time>2016-10-07T22:16:23Z</time></trkpt>
<trkpt lat="29.528018" lon="96.560608">
<time>2016-10-07T22:16:24Z</time></trkpt>
<trkpt lat="29.528057" lon="96.560498">
<time>2016-10-07T22:16:25Z</time></trkpt>
<trkpt lat="29.528107" lon="96.560408">
<time>2016-10-07T22:16:26Z</time></trkpt>
<trkpt lat="29.528317" lon="96.560077">
<time>2016-10-07T22:16:27Z</time></trkpt>
<trkpt lat="29.528386" lon="96.559957">
<time>2016-10-07T22:16:28Z</time></trkpt>
<trkpt lat="29.528446" lon="96.559827">
<time>2016-10-07T22:16:29Z</time></trkpt>
<trkpt lat="29.528506" lon="96.559677">
<time>2016-10-07T22:16:30Z</time></trkpt>
<trkpt lat="29.528555" lon="96.559516">
<time>2016-10-07T22:16:31Z</time></trkpt>
<trkpt lat="29.528595" lon="96.559356">
<time>2016-10-07T22:16:32Z</time></trkpt>
<trkpt lat="29.528615" lon="96.559206">
<time>2016-10-07T22:16:33Z</time></trkpt>
<trkpt lat="29.528625" lon="96.559065">
<time>2016-10-07T22:16:34Z</time></trkpt>
<trkpt lat="29.528634" lon="96.558895">
<time>2016-10-07T22:16:35Z</time></trkpt>
<trkpt lat="29.528644" lon="96.558644">
<time>2016-10-07T22:16:36Z</time></trkpt>
<trkpt lat="29.528663" lon="96.558223">
<time>2016-10-07T22:16:37Z</time></trkpt>
<trkpt lat="29.528673" lon="96.558063">
<time>2016-10-07T22:16:38Z</time></trkpt>
<trkpt lat="29.528693" lon="96.557913">
<time>2016-10-07T22:16:39Z</time></trkpt>
<trkpt lat="29.528722" lon="96.557792">
<time>2016-10-07T22:16:40Z</time></trkpt>
<trkpt lat="29.528752" lon="96.557662">
<time>2016-10-07T22:16:41Z</time></trkpt>
<trkpt lat="29.528812" lon="96.557502">
<time>2016-10-07T22:16:42Z</time></trkpt>
<trkpt lat="29.528872" lon="96.557362">
<time>2016-10-07T22:16:43Z</time></trkpt>
<trkpt lat="29.528941" lon="96.557241">
<time>2016-10-07T22:16:44Z</time></trkpt>
<trkpt lat="29.529031" lon="96.557101">
<time>2016-10-07T22:16:45Z</time></trkpt>
<trkpt lat="29.530178" lon="96.555457">
<time>2016-10-07T22:16:46Z</time></trkpt>
<trkpt lat="29.530666" lon="96.554756">
<time>2016-10-07T22:16:47Z</time></trkpt>
<trkpt lat="29.532042" lon="96.552781">
<time>2016-10-07T22:16:48Z</time></trkpt>
<trkpt lat="29.532212" lon="96.55257">
<time>2016-10-07T22:16:49Z</time></trkpt>
<trkpt lat="29.532421" lon="96.55234">
<time>2016-10-07T22:16:50Z</time></trkpt>
<trkpt lat="29.5328" lon="96.551989">
<time>2016-10-07T22:16:51Z</time></trkpt>
<trkpt lat="29.53304" lon="96.551768">
<time>2016-10-07T22:16:52Z</time></trkpt>
<trkpt lat="29.533169" lon="96.551628">
<time>2016-10-07T22:16:53Z</time></trkpt>
<trkpt lat="29.533269" lon="96.551508">
<time>2016-10-07T22:16:54Z</time></trkpt>
<trkpt lat="29.533379" lon="96.551337">
<time>2016-10-07T22:16:55Z</time></trkpt>
<trkpt lat="29.533478" lon="96.551167">
<time>2016-10-07T22:16:56Z</time></trkpt>
<trkpt lat="29.533777" lon="96.550585">
<time>2016-10-07T22:16:57Z</time></trkpt>
<trkpt lat="29.533867" lon="96.550395">
<time>2016-10-07T22:16:58Z</time></trkpt>
<trkpt lat="29.533926" lon="96.550295">
<time>2016-10-07T22:16:59Z</time></trkpt>
<trkpt lat="29.533996" lon="96.550204">
<time>2016-10-07T22:17:00Z</time></trkpt>
<trkpt lat="29.534086" lon="96.550114">
<time>2016-10-07T22:17:01Z</time></trkpt>
<trkpt lat="29.534176" lon="96.550044">
<time>2016-10-07T22:17:02Z</time></trkpt>
<trkpt lat="29.534306" lon="96.549964">
<time>2016-10-07T22:17:03Z</time></trkpt>
<trkpt lat="29.534435" lon="96.549914">
<time>2016-10-07T22:17:04Z</time></trkpt>
<trkpt lat="29.534645" lon="96.549843">
<time>2016-10-07T22:17:05Z</time></trkpt>
<trkpt lat="29.535225" lon="96.549653">
<time>2016-10-07T22:17:06Z</time></trkpt>
<trkpt lat="29.535494" lon="96.549563">
<time>2016-10-07T22:17:07Z</time></trkpt>
<trkpt lat="29.535664" lon="96.549483">
<time>2016-10-07T22:17:08Z</time></trkpt>
<trkpt lat="29.535824" lon="96.549372">
<time>2016-10-07T22:17:09Z</time></trkpt>
<trkpt lat="29.536003" lon="96.549232">
<time>2016-10-07T22:17:10Z</time></trkpt>
<trkpt lat="29.536283" lon="96.549011">
<time>2016-10-07T22:17:11Z</time></trkpt>
<trkpt lat="29.536473" lon="96.548901">
<time>2016-10-07T22:17:12Z</time></trkpt>
<trkpt lat="29.536622" lon="96.548831">
<time>2016-10-07T22:17:13Z</time></trkpt>
<trkpt lat="29.536852" lon="96.548751">
<time>2016-10-07T22:17:14Z</time></trkpt>
<trkpt lat="29.537432" lon="96.54858">
<time>2016-10-07T22:17:15Z</time></trkpt>
<trkpt lat="29.537611" lon="96.54851">
<time>2016-10-07T22:17:16Z</time></trkpt>
<trkpt lat="29.537771" lon="96.54845">
<time>2016-10-07T22:17:17Z</time></trkpt>
<trkpt lat="29.537901" lon="96.54837">
<time>2016-10-07T22:17:18Z</time></trkpt>
<trkpt lat="29.538051" lon="96.548279">
<time>2016-10-07T22:17:19Z</time></trkpt>
<trkpt lat="29.53821" lon="96.548169">
<time>2016-10-07T22:17:20Z</time></trkpt>
<trkpt lat="29.539208" lon="96.547417">
<time>2016-10-07T22:17:21Z</time></trkpt>
<trkpt lat="29.540765" lon="96.546244">
<time>2016-10-07T22:17:22Z</time></trkpt>
<trkpt lat="29.541065" lon="96.545983">
<time>2016-10-07T22:17:23Z</time></trkpt>
<trkpt lat="29.541344" lon="96.545713">
<time>2016-10-07T22:17:24Z</time></trkpt>
<trkpt lat="29.541514" lon="96.545522">
<time>2016-10-07T22:17:25Z</time></trkpt>
<trkpt lat="29.541673" lon="96.545372">
<time>2016-10-07T22:17:26Z</time></trkpt>
<trkpt lat="29.541773" lon="96.545301">
<time>2016-10-07T22:17:27Z</time></trkpt>
<trkpt lat="29.541863" lon="96.545261">
<time>2016-10-07T22:17:28Z</time></trkpt>
<trkpt lat="29.541983" lon="96.545211">
<time>2016-10-07T22:17:29Z</time></trkpt>
<trkpt lat="29.542232" lon="96.545151">
<time>2016-10-07T22:17:30Z</time></trkpt>
<trkpt lat="29.542372" lon="96.545101">
<time>2016-10-07T22:17:31Z</time></trkpt>
<trkpt lat="29.542532" lon="96.545011">
<time>2016-10-07T22:17:32Z</time></trkpt>
<trkpt lat="29.542662" lon="96.54494">
<time>2016-10-07T22:17:33Z</time></trkpt>
<trkpt lat="29.542941" lon="96.54475">
<time>2016-10-07T22:17:34Z</time></trkpt>
<trkpt lat="29.543191" lon="96.544589">
<time>2016-10-07T22:17:35Z</time></trkpt>
<trkpt lat="29.543311" lon="96.544499">
<time>2016-10-07T22:17:36Z</time></trkpt>
<trkpt lat="29.54339" lon="96.544419">
<time>2016-10-07T22:17:37Z</time></trkpt>
<trkpt lat="29.5435" lon="96.544299">
<time>2016-10-07T22:17:38Z</time></trkpt>
<trkpt lat="29.54359" lon="96.544188">
<time>2016-10-07T22:17:39Z</time></trkpt>
<trkpt lat="29.543809" lon="96.543847">
<time>2016-10-07T22:17:40Z</time></trkpt>
<trkpt lat="29.543968" lon="96.543587">
<time>2016-10-07T22:17:41Z</time></trkpt>
<trkpt lat="29.544038" lon="96.543496">
<time>2016-10-07T22:17:42Z</time></trkpt>
<trkpt lat="29.544088" lon="96.543436">
<time>2016-10-07T22:17:43Z</time></trkpt>
<trkpt lat="29.544168" lon="96.543376">
<time>2016-10-07T22:17:44Z</time></trkpt>
<trkpt lat="29.544278" lon="96.543316">
<time>2016-10-07T22:17:45Z</time></trkpt>
<trkpt lat="29.544417" lon="96.543236">
<time>2016-10-07T22:17:46Z</time></trkpt>
<trkpt lat="29.544857" lon="96.543055">
<time>2016-10-07T22:17:47Z</time></trkpt>
<trkpt lat="29.544967" lon="96.543005">
<time>2016-10-07T22:17:48Z</time></trkpt>
<trkpt lat="29.545046" lon="96.542945">
<time>2016-10-07T22:17:49Z</time></trkpt>
<trkpt lat="29.545106" lon="96.542895">
<time>2016-10-07T22:17:50Z</time></trkpt>
<trkpt lat="29.545156" lon="96.542834">
<time>2016-10-07T22:17:51Z</time></trkpt>
<trkpt lat="29.545186" lon="96.542774">
<time>2016-10-07T22:17:52Z</time></trkpt>
<trkpt lat="29.545216" lon="96.542704">
<time>2016-10-07T22:17:53Z</time></trkpt>
<trkpt lat="29.545236" lon="96.542644">
<time>2016-10-07T22:17:54Z</time></trkpt>
<trkpt lat="29.545246" lon="96.542564">
<time>2016-10-07T22:17:55Z</time></trkpt>
<trkpt lat="29.545255" lon="96.542473">
<time>2016-10-07T22:17:56Z</time></trkpt>
<trkpt lat="29.545265" lon="96.542273">
<time>2016-10-07T22:17:57Z</time></trkpt>
<trkpt lat="29.545254" lon="96.542022">
<time>2016-10-07T22:17:58Z</time></trkpt>
<trkpt lat="29.545254" lon="96.541701">
<time>2016-10-07T22:17:59Z</time></trkpt>
<trkpt lat="29.545243" lon="96.541591">
<time>2016-10-07T22:18:00Z</time></trkpt>
<trkpt lat="29.545233" lon="96.541481">
<time>2016-10-07T22:18:01Z</time></trkpt>
<trkpt lat="29.545203" lon="96.54137">
<time>2016-10-07T22:18:02Z</time></trkpt>
<trkpt lat="29.545163" lon="96.54124">
<time>2016-10-07T22:18:03Z</time></trkpt>
<trkpt lat="29.545062" lon="96.540999">
<time>2016-10-07T22:18:04Z</time></trkpt>
<trkpt lat="29.545032" lon="96.540879">
<time>2016-10-07T22:18:05Z</time></trkpt>
<trkpt lat="29.544991" lon="96.540758">
<time>2016-10-07T22:18:06Z</time></trkpt>
<trkpt lat="29.544971" lon="96.540618">
<time>2016-10-07T22:18:07Z</time></trkpt>
<trkpt lat="29.544971" lon="96.540478">
<time>2016-10-07T22:18:08Z</time></trkpt>
<trkpt lat="29.544971" lon="96.540377">
<time>2016-10-07T22:18:09Z</time></trkpt>
<trkpt lat="29.54499" lon="96.540197">
<time>2016-10-07T22:18:10Z</time></trkpt>
<trkpt lat="29.545088" lon="96.539515">
<time>2016-10-07T22:18:11Z</time></trkpt>
<trkpt lat="29.545167" lon="96.539053">
<time>2016-10-07T22:18:12Z</time></trkpt>
<trkpt lat="29.545226" lon="96.538612">
<time>2016-10-07T22:18:13Z</time></trkpt>
<trkpt lat="29.545256" lon="96.538492">
<time>2016-10-07T22:18:14Z</time></trkpt>
<trkpt lat="29.545286" lon="96.538371">
<time>2016-10-07T22:18:15Z</time></trkpt>
<trkpt lat="29.545345" lon="96.538241">
<time>2016-10-07T22:18:16Z</time></trkpt>
<trkpt lat="29.545405" lon="96.538141">
<time>2016-10-07T22:18:17Z</time></trkpt>
<trkpt lat="29.545475" lon="96.53804">
<time>2016-10-07T22:18:18Z</time></trkpt>
<trkpt lat="29.545565" lon="96.53794">
<time>2016-10-07T22:18:19Z</time></trkpt>
<trkpt lat="29.545724" lon="96.53778">
<time>2016-10-07T22:18:20Z</time></trkpt>
<trkpt lat="29.546213" lon="96.537308">
<time>2016-10-07T22:18:21Z</time></trkpt>
<trkpt lat="29.546342" lon="96.537158">
<time>2016-10-07T22:18:22Z</time></trkpt>
<trkpt lat="29.546442" lon="96.537027">
<time>2016-10-07T22:18:23Z</time></trkpt>
<trkpt lat="29.546542" lon="96.536857">
<time>2016-10-07T22:18:24Z</time></trkpt>
<trkpt lat="29.546611" lon="96.536716">
<time>2016-10-07T22:18:25Z</time></trkpt>
<trkpt lat="29.546671" lon="96.536576">
<time>2016-10-07T22:18:26Z</time></trkpt>
<trkpt lat="29.54671" lon="96.536446">
<time>2016-10-07T22:18:27Z</time></trkpt>
<trkpt lat="29.54674" lon="96.536305">
<time>2016-10-07T22:18:28Z</time></trkpt>
<trkpt lat="29.54676" lon="96.536155">
<time>2016-10-07T22:18:29Z</time></trkpt>
<trkpt lat="29.546759" lon="96.536004">
<time>2016-10-07T22:18:30Z</time></trkpt>
<trkpt lat="29.546759" lon="96.535834">
<time>2016-10-07T22:18:31Z</time></trkpt>
<trkpt lat="29.546728" lon="96.535653">
<time>2016-10-07T22:18:32Z</time></trkpt>
<trkpt lat="29.546698" lon="96.535503">
<time>2016-10-07T22:18:33Z</time></trkpt>
<trkpt lat="29.546668" lon="96.535372">
<time>2016-10-07T22:18:34Z</time></trkpt>
<trkpt lat="29.546597" lon="96.535202">
<time>2016-10-07T22:18:35Z</time></trkpt>
<trkpt lat="29.546517" lon="96.535061">
<time>2016-10-07T22:18:36Z</time></trkpt>
<trkpt lat="29.546407" lon="96.534881">
<time>2016-10-07T22:18:37Z</time></trkpt>
<trkpt lat="29.546256" lon="96.53465">
<time>2016-10-07T22:18:38Z</time></trkpt>
<trkpt lat="29.545855" lon="96.534028">
<time>2016-10-07T22:18:39Z</time></trkpt>
<trkpt lat="29.545363" lon="96.533316">
<time>2016-10-07T22:18:40Z</time></trkpt>
<trkpt lat="29.545052" lon="96.532844">
<time>2016-10-07T22:18:41Z</time></trkpt>
<trkpt lat="29.544811" lon="96.532453">
<time>2016-10-07T22:18:42Z</time></trkpt>
<trkpt lat="29.54456" lon="96.531941">
<time>2016-10-07T22:18:43Z</time></trkpt>
<trkpt lat="29.544369" lon="96.53152">
<time>2016-10-07T22:18:44Z</time></trkpt>
<trkpt lat="29.544258" lon="96.531229">
<time>2016-10-07T22:18:45Z</time></trkpt>
<trkpt lat="29.544208" lon="96.531109">
<time>2016-10-07T22:18:46Z</time></trkpt>
<trkpt lat="29.544148" lon="96.530978">
<time>2016-10-07T22:18:47Z</time></trkpt>
<trkpt lat="29.544037" lon="96.530788">
<time>2016-10-07T22:18:48Z</time></trkpt>
<trkpt lat="29.543937" lon="96.530647">
<time>2016-10-07T22:18:49Z</time></trkpt>
<trkpt lat="29.543816" lon="96.530507">
<time>2016-10-07T22:18:50Z</time></trkpt>
<trkpt lat="29.543576" lon="96.530286">
<time>2016-10-07T22:18:51Z</time></trkpt>
<trkpt lat="29.543275" lon="96.530015">
<time>2016-10-07T22:18:52Z</time></trkpt>
<trkpt lat="29.543075" lon="96.529825">
<time>2016-10-07T22:18:53Z</time></trkpt>
<trkpt lat="29.542945" lon="96.529714">
<time>2016-10-07T22:18:54Z</time></trkpt>
<trkpt lat="29.542794" lon="96.529594">
<time>2016-10-07T22:18:55Z</time></trkpt>
<trkpt lat="29.542634" lon="96.529494">
<time>2016-10-07T22:18:56Z</time></trkpt>
<trkpt lat="29.542474" lon="96.529413">
<time>2016-10-07T22:18:57Z</time></trkpt>
<trkpt lat="29.542154" lon="96.529283">
<time>2016-10-07T22:18:58Z</time></trkpt>
<trkpt lat="29.541153" lon="96.528882">
<time>2016-10-07T22:18:59Z</time></trkpt>
<trkpt lat="29.540913" lon="96.528781">
<time>2016-10-07T22:19:00Z</time></trkpt>
<trkpt lat="29.540713" lon="96.528691">
<time>2016-10-07T22:19:01Z</time></trkpt>
<trkpt lat="29.540583" lon="96.528591">
<time>2016-10-07T22:19:02Z</time></trkpt>
<trkpt lat="29.540442" lon="96.52847">
<time>2016-10-07T22:19:03Z</time></trkpt>
<trkpt lat="29.540282" lon="96.52827">
<time>2016-10-07T22:19:04Z</time></trkpt>
<trkpt lat="29.539941" lon="96.527848">
<time>2016-10-07T22:19:05Z</time></trkpt>
<trkpt lat="29.539439" lon="96.527226">
<time>2016-10-07T22:19:06Z</time></trkpt>
<trkpt lat="29.539088" lon="96.526815">
<time>2016-10-07T22:19:07Z</time></trkpt>
<trkpt lat="29.538978" lon="96.526664">
<time>2016-10-07T22:19:08Z</time></trkpt>
<trkpt lat="29.538918" lon="96.526554">
<time>2016-10-07T22:19:09Z</time></trkpt>
<trkpt lat="29.538827" lon="96.526403">
<time>2016-10-07T22:19:10Z</time></trkpt>
<trkpt lat="29.538536" lon="96.525872">
<time>2016-10-07T22:19:11Z</time></trkpt>
<trkpt lat="29.538174" lon="96.525219">
<time>2016-10-07T22:19:12Z</time></trkpt>
<trkpt lat="29.537592" lon="96.524196">
<time>2016-10-07T22:19:13Z</time></trkpt>
<trkpt lat="29.53709" lon="96.523343">
<time>2016-10-07T22:19:14Z</time></trkpt>
<trkpt lat="29.536819" lon="96.522911">
<time>2016-10-07T22:19:15Z</time></trkpt>
<trkpt lat="29.536678" lon="96.522691">
<time>2016-10-07T22:19:16Z</time></trkpt>
<trkpt lat="29.536587" lon="96.5225">
<time>2016-10-07T22:19:17Z</time></trkpt>
<trkpt lat="29.536547" lon="96.52237">
<time>2016-10-07T22:19:18Z</time></trkpt>
<trkpt lat="29.536527" lon="96.522219">
<time>2016-10-07T22:19:19Z</time></trkpt>
<trkpt lat="29.536516" lon="96.522079">
<time>2016-10-07T22:19:20Z</time></trkpt>
<trkpt lat="29.536536" lon="96.521928">
<time>2016-10-07T22:19:21Z</time></trkpt>
<trkpt lat="29.536555" lon="96.521798">
<time>2016-10-07T22:19:22Z</time></trkpt>
<trkpt lat="29.536605" lon="96.521627">
<time>2016-10-07T22:19:23Z</time></trkpt>
<trkpt lat="29.536664" lon="96.521456">
<time>2016-10-07T22:19:24Z</time></trkpt>
<trkpt lat="29.536734" lon="96.521236">
<time>2016-10-07T22:19:25Z</time></trkpt>
<trkpt lat="29.536942" lon="96.520654">
<time>2016-10-07T22:19:26Z</time></trkpt>
<trkpt lat="29.53726" lon="96.519821">
<time>2016-10-07T22:19:27Z</time></trkpt>
<trkpt lat="29.537488" lon="96.519158">
<time>2016-10-07T22:19:28Z</time></trkpt>
<trkpt lat="29.537646" lon="96.518677">
<time>2016-10-07T22:19:29Z</time></trkpt>
<trkpt lat="29.537716" lon="96.518436">
<time>2016-10-07T22:19:30Z</time></trkpt>
<trkpt lat="29.537755" lon="96.518235">
<time>2016-10-07T22:19:31Z</time></trkpt>
<trkpt lat="29.537774" lon="96.518065">
<time>2016-10-07T22:19:32Z</time></trkpt>
<trkpt lat="29.537784" lon="96.517914">
<time>2016-10-07T22:19:33Z</time></trkpt>
<trkpt lat="29.537784" lon="96.517824">
<time>2016-10-07T22:19:34Z</time></trkpt>
<trkpt lat="29.537783" lon="96.517713">
<time>2016-10-07T22:19:35Z</time></trkpt>
<trkpt lat="29.537773" lon="96.517603">
<time>2016-10-07T22:19:36Z</time></trkpt>
<trkpt lat="29.537753" lon="96.517462">
<time>2016-10-07T22:19:37Z</time></trkpt>
<trkpt lat="29.537722" lon="96.517262">
<time>2016-10-07T22:19:38Z</time></trkpt>
<trkpt lat="29.537671" lon="96.516991">
<time>2016-10-07T22:19:39Z</time></trkpt>
<trkpt lat="29.537651" lon="96.51679">
<time>2016-10-07T22:19:40Z</time></trkpt>
<trkpt lat="29.53765" lon="96.516569">
<time>2016-10-07T22:19:41Z</time></trkpt>
<trkpt lat="29.537659" lon="96.516258">
<time>2016-10-07T22:19:42Z</time></trkpt>
<trkpt lat="29.537679" lon="96.516057">
<time>2016-10-07T22:19:43Z</time></trkpt>
<trkpt lat="29.537688" lon="96.515827">
<time>2016-10-07T22:19:44Z</time></trkpt>
<trkpt lat="29.537697" lon="96.515616">
<time>2016-10-07T22:19:45Z</time></trkpt>
<trkpt lat="29.537697" lon="96.515425">
<time>2016-10-07T22:19:46Z</time></trkpt>
<trkpt lat="29.537686" lon="96.515234">
<time>2016-10-07T22:19:47Z</time></trkpt>
<trkpt lat="29.537656" lon="96.515074">
<time>2016-10-07T22:19:48Z</time></trkpt>
<trkpt lat="29.537625" lon="96.514873">
<time>2016-10-07T22:19:49Z</time></trkpt>
<trkpt lat="29.537585" lon="96.514733">
<time>2016-10-07T22:19:50Z</time></trkpt>
<trkpt lat="29.537464" lon="96.514311">
<time>2016-10-07T22:19:51Z</time></trkpt>
<trkpt lat="29.537211" lon="96.513508">
<time>2016-10-07T22:19:52Z</time></trkpt>
<trkpt lat="29.53708" lon="96.513067">
<time>2016-10-07T22:19:53Z</time></trkpt>
<trkpt lat="29.536929" lon="96.512575">
<time>2016-10-07T22:19:54Z</time></trkpt>
<trkpt lat="29.536858" lon="96.512364">
<time>2016-10-07T22:19:55Z</time></trkpt>
<trkpt lat="29.536828" lon="96.512224">
<time>2016-10-07T22:19:56Z</time></trkpt>
<trkpt lat="29.536807" lon="96.512093">
<time>2016-10-07T22:19:57Z</time></trkpt>
<trkpt lat="29.536797" lon="96.512013">
<time>2016-10-07T22:19:58Z</time></trkpt>
<trkpt lat="29.536797" lon="96.511922">
<time>2016-10-07T22:19:59Z</time></trkpt>
<trkpt lat="29.536807" lon="96.511822">
<time>2016-10-07T22:20:00Z</time></trkpt>
<trkpt lat="29.536836" lon="96.511702">
<time>2016-10-07T22:20:01Z</time></trkpt>
<trkpt lat="29.536886" lon="96.511581">
<time>2016-10-07T22:20:02Z</time></trkpt>
<trkpt lat="29.536956" lon="96.511451">
<time>2016-10-07T22:20:03Z</time></trkpt>
<trkpt lat="29.537075" lon="96.51127">
<time>2016-10-07T22:20:04Z</time></trkpt>
<trkpt lat="29.537184" lon="96.511099">
<time>2016-10-07T22:20:05Z</time></trkpt>
<trkpt lat="29.537363" lon="96.510798">
<time>2016-10-07T22:20:06Z</time></trkpt>
<trkpt lat="29.537483" lon="96.510588">
<time>2016-10-07T22:20:07Z</time></trkpt>
<trkpt lat="29.53792" lon="96.509795">
<time>2016-10-07T22:20:08Z</time></trkpt>
<trkpt lat="29.538457" lon="96.508821">
<time>2016-10-07T22:20:09Z</time></trkpt>
<trkpt lat="29.538666" lon="96.50841">
<time>2016-10-07T22:20:10Z</time></trkpt>
<trkpt lat="29.538775" lon="96.508149">
<time>2016-10-07T22:20:11Z</time></trkpt>
<trkpt lat="29.538845" lon="96.507978">
<time>2016-10-07T22:20:12Z</time></trkpt>
<trkpt lat="29.538904" lon="96.507747">
<time>2016-10-07T22:20:13Z</time></trkpt>
<trkpt lat="29.538973" lon="96.507486">
<time>2016-10-07T22:20:14Z</time></trkpt>
<trkpt lat="29.539072" lon="96.506994">
<time>2016-10-07T22:20:15Z</time></trkpt>
<trkpt lat="29.53915" lon="96.506643">
<time>2016-10-07T22:20:16Z</time></trkpt>
<trkpt lat="29.53916" lon="96.506553">
<time>2016-10-07T22:20:17Z</time></trkpt>
<trkpt lat="29.53917" lon="96.506472">
<time>2016-10-07T22:20:18Z</time></trkpt>
<trkpt lat="29.53917" lon="96.506392">
<time>2016-10-07T22:20:19Z</time></trkpt>
<trkpt lat="29.539169" lon="96.506292">
<time>2016-10-07T22:20:20Z</time></trkpt>
<trkpt lat="29.539159" lon="96.506211">
<time>2016-10-07T22:20:21Z</time></trkpt>
<trkpt lat="29.539139" lon="96.506121">
<time>2016-10-07T22:20:22Z</time></trkpt>
<trkpt lat="29.539099" lon="96.506021">
<time>2016-10-07T22:20:23Z</time></trkpt>
<trkpt lat="29.539068" lon="96.50595">
<time>2016-10-07T22:20:24Z</time></trkpt>
<trkpt lat="29.538988" lon="96.50578">
<time>2016-10-07T22:20:25Z</time></trkpt>
<trkpt lat="29.538787" lon="96.505318">
<time>2016-10-07T22:20:26Z</time></trkpt>
<trkpt lat="29.538485" lon="96.504666">
<time>2016-10-07T22:20:27Z</time></trkpt>
<trkpt lat="29.538394" lon="96.504445">
<time>2016-10-07T22:20:28Z</time></trkpt>
<trkpt lat="29.538334" lon="96.504294">
<time>2016-10-07T22:20:29Z</time></trkpt>
<trkpt lat="29.538304" lon="96.504204">
<time>2016-10-07T22:20:30Z</time></trkpt>
<trkpt lat="29.538263" lon="96.504063">
<time>2016-10-07T22:20:31Z</time></trkpt>
<trkpt lat="29.538233" lon="96.503953">
<time>2016-10-07T22:20:32Z</time></trkpt>
<trkpt lat="29.538192" lon="96.503792">
<time>2016-10-07T22:20:33Z</time></trkpt>
<trkpt lat="29.538162" lon="96.503632">
<time>2016-10-07T22:20:34Z</time></trkpt>
<trkpt lat="29.538141" lon="96.503481">
<time>2016-10-07T22:20:35Z</time></trkpt>
<trkpt lat="29.538121" lon="96.503331">
<time>2016-10-07T22:20:36Z</time></trkpt>
<trkpt lat="29.538101" lon="96.5032">
<time>2016-10-07T22:20:37Z</time></trkpt>
<trkpt lat="29.53809" lon="96.50304">
<time>2016-10-07T22:20:38Z</time></trkpt>
<trkpt lat="29.53809" lon="96.502909">
<time>2016-10-07T22:20:39Z</time></trkpt>
<trkpt lat="29.538089" lon="96.502698">
<time>2016-10-07T22:20:40Z</time></trkpt>
<trkpt lat="29.538089" lon="96.502568">
<time>2016-10-07T22:20:41Z</time></trkpt>
<trkpt lat="29.538098" lon="96.502437">
<time>2016-10-07T22:20:42Z</time></trkpt>
<trkpt lat="29.538118" lon="96.502237">
<time>2016-10-07T22:20:43Z</time></trkpt>
<trkpt lat="29.538137" lon="96.502066">
<time>2016-10-07T22:20:44Z</time></trkpt>
<trkpt lat="29.538157" lon="96.501956">
<time>2016-10-07T22:20:45Z</time></trkpt>
<trkpt lat="29.538176" lon="96.501845">
<time>2016-10-07T22:20:46Z</time></trkpt>
<trkpt lat="29.538226" lon="96.501644">
<time>2016-10-07T22:20:47Z</time></trkpt>
<trkpt lat="29.538275" lon="96.501464">
<time>2016-10-07T22:20:48Z</time></trkpt>
<trkpt lat="29.538325" lon="96.501293">
<time>2016-10-07T22:20:49Z</time></trkpt>
<trkpt lat="29.538424" lon="96.501042">
<time>2016-10-07T22:20:50Z</time></trkpt>
<trkpt lat="29.538503" lon="96.500872">
<time>2016-10-07T22:20:51Z</time></trkpt>
<trkpt lat="29.538633" lon="96.500611">
<time>2016-10-07T22:20:52Z</time></trkpt>
<trkpt lat="29.538951" lon="96.500048">
<time>2016-10-07T22:20:53Z</time></trkpt>
<trkpt lat="29.53905" lon="96.499868">
<time>2016-10-07T22:20:54Z</time></trkpt>
<trkpt lat="29.539199" lon="96.499607">
<time>2016-10-07T22:20:55Z</time></trkpt>
<trkpt lat="29.539279" lon="96.499486">
<time>2016-10-07T22:20:56Z</time></trkpt>
<trkpt lat="29.539369" lon="96.499356">
<time>2016-10-07T22:20:57Z</time></trkpt>
<trkpt lat="29.539478" lon="96.499235">
<time>2016-10-07T22:20:58Z</time></trkpt>
<trkpt lat="29.539618" lon="96.499115">
<time>2016-10-07T22:20:59Z</time></trkpt>
<trkpt lat="29.539877" lon="96.498914">
<time>2016-10-07T22:21:00Z</time></trkpt>
<trkpt lat="29.540077" lon="96.498804">
<time>2016-10-07T22:21:01Z</time></trkpt>
<trkpt lat="29.540316" lon="96.498703">
<time>2016-10-07T22:21:02Z</time></trkpt>
<trkpt lat="29.540835" lon="96.498493">
<time>2016-10-07T22:21:03Z</time></trkpt>
<trkpt lat="29.541315" lon="96.498302">
<time>2016-10-07T22:21:04Z</time></trkpt>
<trkpt lat="29.541544" lon="96.498191">
<time>2016-10-07T22:21:05Z</time></trkpt>
<trkpt lat="29.541724" lon="96.498091">
<time>2016-10-07T22:21:06Z</time></trkpt>
<trkpt lat="29.541903" lon="96.497961">
<time>2016-10-07T22:21:07Z</time></trkpt>
<trkpt lat="29.542093" lon="96.49778">
<time>2016-10-07T22:21:08Z</time></trkpt>
<trkpt lat="29.542212" lon="96.497639">
<time>2016-10-07T22:21:09Z</time></trkpt>
<trkpt lat="29.542292" lon="96.497529">
<time>2016-10-07T22:21:10Z</time></trkpt>
<trkpt lat="29.542352" lon="96.497429">
<time>2016-10-07T22:21:11Z</time></trkpt>
<trkpt lat="29.542401" lon="96.497318">
<time>2016-10-07T22:21:12Z</time></trkpt>
<trkpt lat="29.542451" lon="96.497188">
<time>2016-10-07T22:21:13Z</time></trkpt>
<trkpt lat="29.54248" lon="96.497027">
<time>2016-10-07T22:21:14Z</time></trkpt>
<trkpt lat="29.54252" lon="96.496806">
<time>2016-10-07T22:21:15Z</time></trkpt>
<trkpt lat="29.542529" lon="96.496656">
<time>2016-10-07T22:21:16Z</time></trkpt>
<trkpt lat="29.542539" lon="96.496525">
<time>2016-10-07T22:21:17Z</time></trkpt>
<trkpt lat="29.542529" lon="96.496415">
<time>2016-10-07T22:21:18Z</time></trkpt>
<trkpt lat="29.542487" lon="96.495722">
<time>2016-10-07T22:21:19Z</time></trkpt>
<trkpt lat="29.542476" lon="96.495491">
<time>2016-10-07T22:21:20Z</time></trkpt>
<trkpt lat="29.542485" lon="96.495351">
<time>2016-10-07T22:21:21Z</time></trkpt>
<trkpt lat="29.542495" lon="96.49512">
<time>2016-10-07T22:21:22Z</time></trkpt>
<trkpt lat="29.542544" lon="96.494789">
<time>2016-10-07T22:21:23Z</time></trkpt>
<trkpt lat="29.542603" lon="96.494458">
<time>2016-10-07T22:21:24Z</time></trkpt>
<trkpt lat="29.542652" lon="96.494237">
<time>2016-10-07T22:21:25Z</time></trkpt>
<trkpt lat="29.542711" lon="96.494066">
<time>2016-10-07T22:21:26Z</time></trkpt>
<trkpt lat="29.542761" lon="96.493875">
<time>2016-10-07T22:21:27Z</time></trkpt>
<trkpt lat="29.5428" lon="96.493655">
<time>2016-10-07T22:21:28Z</time></trkpt>
<trkpt lat="29.54281" lon="96.493544">
<time>2016-10-07T22:21:29Z</time></trkpt>
<trkpt lat="29.54282" lon="96.493434">
<time>2016-10-07T22:21:30Z</time></trkpt>
<trkpt lat="29.542819" lon="96.493353">
<time>2016-10-07T22:21:31Z</time></trkpt>
<trkpt lat="29.542778" lon="96.492892">
<time>2016-10-07T22:21:32Z</time></trkpt>
<trkpt lat="29.542726" lon="96.49234">
<time>2016-10-07T22:21:33Z</time></trkpt>
<trkpt lat="29.542665" lon="96.491968">
<time>2016-10-07T22:21:34Z</time></trkpt>
<trkpt lat="29.542584" lon="96.491627">
<time>2016-10-07T22:21:35Z</time></trkpt>
<trkpt lat="29.542473" lon="96.491236">
<time>2016-10-07T22:21:36Z</time></trkpt>
<trkpt lat="29.542402" lon="96.490944">
<time>2016-10-07T22:21:37Z</time></trkpt>
<trkpt lat="29.542362" lon="96.490704">
<time>2016-10-07T22:21:38Z</time></trkpt>
<trkpt lat="29.542331" lon="96.490443">
<time>2016-10-07T22:21:39Z</time></trkpt>
<trkpt lat="29.54232" lon="96.490182">
<time>2016-10-07T22:21:40Z</time></trkpt>
<trkpt lat="29.542298" lon="96.489459">
<time>2016-10-07T22:21:41Z</time></trkpt>
<trkpt lat="29.542266" lon="96.488726">
<time>2016-10-07T22:21:42Z</time></trkpt>
<trkpt lat="29.542255" lon="96.488295">
<time>2016-10-07T22:21:43Z</time></trkpt>
<trkpt lat="29.542244" lon="96.487994">
<time>2016-10-07T22:21:44Z</time></trkpt>
<trkpt lat="29.542223" lon="96.487833">
<time>2016-10-07T22:21:45Z</time></trkpt>
<trkpt lat="29.542203" lon="96.487682">
<time>2016-10-07T22:21:46Z</time></trkpt>
<trkpt lat="29.542182" lon="96.487572">
<time>2016-10-07T22:21:47Z</time></trkpt>
<trkpt lat="29.542152" lon="96.487442">
<time>2016-10-07T22:21:48Z</time></trkpt>
<trkpt lat="29.542081" lon="96.487201">
<time>2016-10-07T22:21:49Z</time></trkpt>
<trkpt lat="29.542021" lon="96.48694">
<time>2016-10-07T22:21:50Z</time></trkpt>
<trkpt lat="29.54196" lon="96.486749">
<time>2016-10-07T22:21:51Z</time></trkpt>
<trkpt lat="29.54192" lon="96.486588">
<time>2016-10-07T22:21:52Z</time></trkpt>
<trkpt lat="29.541889" lon="96.486438">
<time>2016-10-07T22:21:53Z</time></trkpt>
<trkpt lat="29.541889" lon="96.486337">
<time>2016-10-07T22:21:54Z</time></trkpt>
<trkpt lat="29.541899" lon="96.486247">
<time>2016-10-07T22:21:55Z</time></trkpt>
<trkpt lat="29.541918" lon="96.486137">
<time>2016-10-07T22:21:56Z</time></trkpt>
<trkpt lat="29.541968" lon="96.486016">
<time>2016-10-07T22:21:57Z</time></trkpt>
<trkpt lat="29.542028" lon="96.485896">
<time>2016-10-07T22:21:58Z</time></trkpt>
<trkpt lat="29.542127" lon="96.485735">
<time>2016-10-07T22:21:59Z</time></trkpt>
<trkpt lat="29.542903" lon="96.484561">
<time>2016-10-07T22:22:00Z</time></trkpt>
<trkpt lat="29.543331" lon="96.483909">
<time>2016-10-07T22:22:01Z</time></trkpt>
<trkpt lat="29.543421" lon="96.483788">
<time>2016-10-07T22:22:02Z</time></trkpt>
<trkpt lat="29.54353" lon="96.483648">
<time>2016-10-07T22:22:03Z</time></trkpt>
<trkpt lat="29.5437" lon="96.483467">
<time>2016-10-07T22:22:04Z</time></trkpt>
<trkpt lat="29.54382" lon="96.483367">
<time>2016-10-07T22:22:05Z</time></trkpt>
<trkpt lat="29.543949" lon="96.483276">
<time>2016-10-07T22:22:06Z</time></trkpt>
<trkpt lat="29.544129" lon="96.483166">
<time>2016-10-07T22:22:07Z</time></trkpt>
<trkpt lat="29.544917" lon="96.482744">
<time>2016-10-07T22:22:08Z</time></trkpt>
<trkpt lat="29.545047" lon="96.482664">
<time>2016-10-07T22:22:09Z</time></trkpt>
<trkpt lat="29.545157" lon="96.482584">
<time>2016-10-07T22:22:10Z</time></trkpt>
<trkpt lat="29.545406" lon="96.482363">
<time>2016-10-07T22:22:11Z</time></trkpt>
<trkpt lat="29.545915" lon="96.481911">
<time>2016-10-07T22:22:12Z</time></trkpt>
<trkpt lat="29.546104" lon="96.481741">
<time>2016-10-07T22:22:13Z</time></trkpt>
<trkpt lat="29.546273" lon="96.48155">
<time>2016-10-07T22:22:14Z</time></trkpt>
<trkpt lat="29.546343" lon="96.48146">
<time>2016-10-07T22:22:15Z</time></trkpt>
<trkpt lat="29.546393" lon="96.481379">
<time>2016-10-07T22:22:16Z</time></trkpt>
<trkpt lat="29.546472" lon="96.481209">
<time>2016-10-07T22:22:17Z</time></trkpt>
<trkpt lat="29.546552" lon="96.481038">
<time>2016-10-07T22:22:18Z</time></trkpt>
<trkpt lat="29.546651" lon="96.480807">
<time>2016-10-07T22:22:19Z</time></trkpt>
<trkpt lat="29.54677" lon="96.480546">
<time>2016-10-07T22:22:20Z</time></trkpt>
<trkpt lat="29.54683" lon="96.480416">
<time>2016-10-07T22:22:21Z</time></trkpt>
<trkpt lat="29.5469" lon="96.480295">
<time>2016-10-07T22:22:22Z</time></trkpt>
<trkpt lat="29.546969" lon="96.480195">
<time>2016-10-07T22:22:23Z</time></trkpt>
<trkpt lat="29.547029" lon="96.480135">
<time>2016-10-07T22:22:24Z</time></trkpt>
<trkpt lat="29.547079" lon="96.480075">
<time>2016-10-07T22:22:25Z</time></trkpt>
<trkpt lat="29.547159" lon="96.480014">
<time>2016-10-07T22:22:26Z</time></trkpt>
<trkpt lat="29.547278" lon="96.479934">
<time>2016-10-07T22:22:27Z</time></trkpt>
<trkpt lat="29.547418" lon="96.479874">
<time>2016-10-07T22:22:28Z</time></trkpt>
<trkpt lat="29.547518" lon="96.479844">
<time>2016-10-07T22:22:29Z</time></trkpt>
<trkpt lat="29.547648" lon="96.479814">
<time>2016-10-07T22:22:30Z</time></trkpt>
<trkpt lat="29.548068" lon="96.479713">
<time>2016-10-07T22:22:31Z</time></trkpt>
<trkpt lat="29.548257" lon="96.479663">
<time>2016-10-07T22:22:32Z</time></trkpt>
<trkpt lat="29.548467" lon="96.479623">
<time>2016-10-07T22:22:33Z</time></trkpt>
<trkpt lat="29.548687" lon="96.479573">
<time>2016-10-07T22:22:34Z</time></trkpt>
<trkpt lat="29.548807" lon="96.479543">
<time>2016-10-07T22:22:35Z</time></trkpt>
<trkpt lat="29.548857" lon="96.479533">
<time>2016-10-07T22:22:36Z</time></trkpt>
<trkpt lat="29.548967" lon="96.479493">
<time>2016-10-07T22:22:37Z</time></trkpt>
<trkpt lat="29.549046" lon="96.479462">
<time>2016-10-07T22:22:38Z</time></trkpt>
<trkpt lat="29.549136" lon="96.479402">
<time>2016-10-07T22:22:39Z</time></trkpt>
<trkpt lat="29.549196" lon="96.479342">
<time>2016-10-07T22:22:40Z</time></trkpt>
<trkpt lat="29.549276" lon="96.479232">
<time>2016-10-07T22:22:41Z</time></trkpt>
<trkpt lat="29.549355" lon="96.479081">
<time>2016-10-07T22:22:42Z</time></trkpt>
<trkpt lat="29.549455" lon="96.47888">
<time>2016-10-07T22:22:43Z</time></trkpt>
<trkpt lat="29.549644" lon="96.478529">
<time>2016-10-07T22:22:44Z</time></trkpt>
<trkpt lat="29.549723" lon="96.478389">
<time>2016-10-07T22:22:45Z</time></trkpt>
<trkpt lat="29.549763" lon="96.478308">
<time>2016-10-07T22:22:46Z</time></trkpt>
<trkpt lat="29.549813" lon="96.478258">
<time>2016-10-07T22:22:47Z</time></trkpt>
<trkpt lat="29.549892" lon="96.478168">
<time>2016-10-07T22:22:48Z</time></trkpt>
<trkpt lat="29.549952" lon="96.478098">
<time>2016-10-07T22:22:49Z</time></trkpt>
<trkpt lat="29.550022" lon="96.478047">
<time>2016-10-07T22:22:50Z</time></trkpt>
<trkpt lat="29.550232" lon="96.477877">
<time>2016-10-07T22:22:51Z</time></trkpt>
<trkpt lat="29.550431" lon="96.477716">
<time>2016-10-07T22:22:52Z</time></trkpt>
<trkpt lat="29.550611" lon="96.477586">
<time>2016-10-07T22:22:53Z</time></trkpt>
<trkpt lat="29.5508" lon="96.477445">
<time>2016-10-07T22:22:54Z</time></trkpt>
<trkpt lat="29.55092" lon="96.477335">
<time>2016-10-07T22:22:55Z</time></trkpt>
<trkpt lat="29.55099" lon="96.477265">
<time>2016-10-07T22:22:56Z</time></trkpt>
<trkpt lat="29.551059" lon="96.477174">
<time>2016-10-07T22:22:57Z</time></trkpt>
<trkpt lat="29.551129" lon="96.477044">
<time>2016-10-07T22:22:58Z</time></trkpt>
<trkpt lat="29.551179" lon="96.476943">
<time>2016-10-07T22:22:59Z</time></trkpt>
<trkpt lat="29.551218" lon="96.476843">
<time>2016-10-07T22:23:00Z</time></trkpt>
<trkpt lat="29.551288" lon="96.476652">
<time>2016-10-07T22:23:01Z</time></trkpt>
<trkpt lat="29.551446" lon="96.476181">
<time>2016-10-07T22:23:02Z</time></trkpt>
<trkpt lat="29.551674" lon="96.475508">
<time>2016-10-07T22:23:03Z</time></trkpt>
<trkpt lat="29.551754" lon="96.475288">
<time>2016-10-07T22:23:04Z</time></trkpt>
<trkpt lat="29.551823" lon="96.475047">
<time>2016-10-07T22:23:05Z</time></trkpt>
<trkpt lat="29.551882" lon="96.474826">
<time>2016-10-07T22:23:06Z</time></trkpt>
<trkpt lat="29.551912" lon="96.474605">
<time>2016-10-07T22:23:07Z</time></trkpt>
<trkpt lat="29.551931" lon="96.474405">
<time>2016-10-07T22:23:08Z</time></trkpt>
<trkpt lat="29.551921" lon="96.474194">
<time>2016-10-07T22:23:09Z</time></trkpt>
<trkpt lat="29.55191" lon="96.474013">
<time>2016-10-07T22:23:10Z</time></trkpt>
<trkpt lat="29.55188" lon="96.473762">
<time>2016-10-07T22:23:11Z</time></trkpt>
<trkpt lat="29.551849" lon="96.473592">
<time>2016-10-07T22:23:12Z</time></trkpt>
<trkpt lat="29.551809" lon="96.473461">
<time>2016-10-07T22:23:13Z</time></trkpt>
<trkpt lat="29.551768" lon="96.473341">
<time>2016-10-07T22:23:14Z</time></trkpt>
<trkpt lat="29.551688" lon="96.47314">
<time>2016-10-07T22:23:15Z</time></trkpt>
<trkpt lat="29.551467" lon="96.472608">
<time>2016-10-07T22:23:16Z</time></trkpt>
<trkpt lat="29.551326" lon="96.472287">
<time>2016-10-07T22:23:17Z</time></trkpt>
<trkpt lat="29.551195" lon="96.471936">
<time>2016-10-07T22:23:18Z</time></trkpt>
<trkpt lat="29.551124" lon="96.471665">
<time>2016-10-07T22:23:19Z</time></trkpt>
<trkpt lat="29.551063" lon="96.471354">
<time>2016-10-07T22:23:20Z</time></trkpt>
<trkpt lat="29.550992" lon="96.470882">
<time>2016-10-07T22:23:21Z</time></trkpt>
<trkpt lat="29.550941" lon="96.470581">
<time>2016-10-07T22:23:22Z</time></trkpt>
<trkpt lat="29.550891" lon="96.470321">
<time>2016-10-07T22:23:23Z</time></trkpt>
<trkpt lat="29.55087" lon="96.47019">
<time>2016-10-07T22:23:24Z</time></trkpt>
<trkpt lat="29.55083" lon="96.47007">
<time>2016-10-07T22:23:25Z</time></trkpt>
<trkpt lat="29.55079" lon="96.469959">
<time>2016-10-07T22:23:26Z</time></trkpt>
<trkpt lat="29.55074" lon="96.469869">
<time>2016-10-07T22:23:27Z</time></trkpt>
<trkpt lat="29.550679" lon="96.469789">
<time>2016-10-07T22:23:28Z</time></trkpt>
<trkpt lat="29.550619" lon="96.469708">
<time>2016-10-07T22:23:29Z</time></trkpt>
<trkpt lat="29.550539" lon="96.469628">
<time>2016-10-07T22:23:30Z</time></trkpt>
<trkpt lat="29.550459" lon="96.469548">
<time>2016-10-07T22:23:31Z</time></trkpt>
<trkpt lat="29.550369" lon="96.469498">
<time>2016-10-07T22:23:32Z</time></trkpt>
<trkpt lat="29.550329" lon="96.469468">
<time>2016-10-07T22:23:33Z</time></trkpt>
<trkpt lat="29.550268" lon="96.469417">
<time>2016-10-07T22:23:34Z</time></trkpt>
<trkpt lat="29.550218" lon="96.469377">
<time>2016-10-07T22:23:35Z</time></trkpt>
<trkpt lat="29.550198" lon="96.469347">
<time>2016-10-07T22:23:36Z</time></trkpt>
<trkpt lat="29.550168" lon="96.469307">
<time>2016-10-07T22:23:37Z</time></trkpt>
<trkpt lat="29.550138" lon="96.469257">
<time>2016-10-07T22:23:38Z</time></trkpt>
<trkpt lat="29.550118" lon="96.469187">
<time>2016-10-07T22:23:39Z</time></trkpt>
<trkpt lat="29.550088" lon="96.469116">
<time>2016-10-07T22:23:40Z</time></trkpt>
<trkpt lat="29.550068" lon="96.469046">
<time>2016-10-07T22:23:41Z</time></trkpt>
<trkpt lat="29.550047" lon="96.468976">
<time>2016-10-07T22:23:42Z</time></trkpt>
<trkpt lat="29.550037" lon="96.468926">
<time>2016-10-07T22:23:43Z</time></trkpt>
<trkpt lat="29.550017" lon="96.468876">
<time>2016-10-07T22:23:44Z</time></trkpt>
<trkpt lat="29.549997" lon="96.468866">
<time>2016-10-07T22:23:45Z</time></trkpt>
<trkpt lat="29.549977" lon="96.468846">
<time>2016-10-07T22:23:46Z</time></trkpt>
<trkpt lat="29.549847" lon="96.468705">
<time>2016-10-07T22:23:47Z</time></trkpt>
<trkpt lat="29.549716" lon="96.468565">
<time>2016-10-07T22:23:48Z</time></trkpt>
<trkpt lat="29.549586" lon="96.468434">
<time>2016-10-07T22:23:49Z</time></trkpt>
<trkpt lat="29.549496" lon="96.468314">
<time>2016-10-07T22:23:50Z</time></trkpt>
<trkpt lat="29.549416" lon="96.468193">
<time>2016-10-07T22:23:51Z</time></trkpt>
<trkpt lat="29.549235" lon="96.467862">
<time>2016-10-07T22:23:52Z</time></trkpt>
<trkpt lat="29.549044" lon="96.467491">
<time>2016-10-07T22:23:53Z</time></trkpt>
<trkpt lat="29.548803" lon="96.46703">
<time>2016-10-07T22:23:54Z</time></trkpt>
<trkpt lat="29.548552" lon="96.466528">
<time>2016-10-07T22:23:55Z</time></trkpt>
<trkpt lat="29.548431" lon="96.466277">
<time>2016-10-07T22:23:56Z</time></trkpt>
<trkpt lat="29.5483" lon="96.466046">
<time>2016-10-07T22:23:57Z</time></trkpt>
<trkpt lat="29.54818" lon="96.465826">
<time>2016-10-07T22:23:58Z</time></trkpt>
<trkpt lat="29.548039" lon="96.465565">
<time>2016-10-07T22:23:59Z</time></trkpt>
<trkpt lat="29.547959" lon="96.465394">
<time>2016-10-07T22:24:00Z</time></trkpt>
<trkpt lat="29.547909" lon="96.465264">
<time>2016-10-07T22:24:01Z</time></trkpt>
<trkpt lat="29.547858" lon="96.465103">
<time>2016-10-07T22:24:02Z</time></trkpt>
<trkpt lat="29.547818" lon="96.464943">
<time>2016-10-07T22:24:03Z</time></trkpt>
<trkpt lat="29.547798" lon="96.464822">
<time>2016-10-07T22:24:04Z</time></trkpt>
<trkpt lat="29.547777" lon="96.464672">
<time>2016-10-07T22:24:05Z</time></trkpt>
<trkpt lat="29.547757" lon="96.464451">
<time>2016-10-07T22:24:06Z</time></trkpt>
<trkpt lat="29.547766" lon="96.464271">
<time>2016-10-07T22:24:07Z</time></trkpt>
<trkpt lat="29.547776" lon="96.46413">
<time>2016-10-07T22:24:08Z</time></trkpt>
<trkpt lat="29.547805" lon="96.46399">
<time>2016-10-07T22:24:09Z</time></trkpt>
<trkpt lat="29.547845" lon="96.463799">
<time>2016-10-07T22:24:10Z</time></trkpt>
<trkpt lat="29.547885" lon="96.463709">
<time>2016-10-07T22:24:11Z</time></trkpt>
<trkpt lat="29.547924" lon="96.463608">
<time>2016-10-07T22:24:12Z</time></trkpt>
<trkpt lat="29.547994" lon="96.463458">
<time>2016-10-07T22:24:13Z</time></trkpt>
<trkpt lat="29.548094" lon="96.463297">
<time>2016-10-07T22:24:14Z</time></trkpt>
<trkpt lat="29.548223" lon="96.463117">
<time>2016-10-07T22:24:15Z</time></trkpt>
<trkpt lat="29.548701" lon="96.462485">
<time>2016-10-07T22:24:16Z</time></trkpt>
<trkpt lat="29.54913" lon="96.461933">
<time>2016-10-07T22:24:17Z</time></trkpt>
<trkpt lat="29.549329" lon="96.461672">
<time>2016-10-07T22:24:18Z</time></trkpt>
<trkpt lat="29.549538" lon="96.461391">
<time>2016-10-07T22:24:19Z</time></trkpt>
<trkpt lat="29.549658" lon="96.461221">
<time>2016-10-07T22:24:20Z</time></trkpt>
<trkpt lat="29.549837" lon="96.46098">
<time>2016-10-07T22:24:21Z</time></trkpt>
<trkpt lat="29.550037" lon="96.460759">
<time>2016-10-07T22:24:22Z</time></trkpt>
<trkpt lat="29.550186" lon="96.460599">
<time>2016-10-07T22:24:23Z</time></trkpt>
<trkpt lat="29.550426" lon="96.460388">
<time>2016-10-07T22:24:24Z</time></trkpt>
<trkpt lat="29.550585" lon="96.460258">
<time>2016-10-07T22:24:25Z</time></trkpt>
<trkpt lat="29.550765" lon="96.460127">
<time>2016-10-07T22:24:26Z</time></trkpt>
<trkpt lat="29.550975" lon="96.459977">
<time>2016-10-07T22:24:27Z</time></trkpt>
<trkpt lat="29.551264" lon="96.459776">
<time>2016-10-07T22:24:28Z</time></trkpt>
<trkpt lat="29.551563" lon="96.459566">
<time>2016-10-07T22:24:29Z</time></trkpt>
<trkpt lat="29.551873" lon="96.459345">
<time>2016-10-07T22:24:30Z</time></trkpt>
<trkpt lat="29.552192" lon="96.459134">
<time>2016-10-07T22:24:31Z</time></trkpt>
<trkpt lat="29.552462" lon="96.458964">
<time>2016-10-07T22:24:32Z</time></trkpt>
<trkpt lat="29.552661" lon="96.458833">
<time>2016-10-07T22:24:33Z</time></trkpt>
<trkpt lat="29.552761" lon="96.458793">
<time>2016-10-07T22:24:34Z</time></trkpt>
<trkpt lat="29.552841" lon="96.458763">
<time>2016-10-07T22:24:35Z</time></trkpt>
<trkpt lat="29.552981" lon="96.458733">
<time>2016-10-07T22:24:36Z</time></trkpt>
<trkpt lat="29.553131" lon="96.458723">
<time>2016-10-07T22:24:37Z</time></trkpt>
<trkpt lat="29.553371" lon="96.458723">
<time>2016-10-07T22:24:38Z</time></trkpt>
<trkpt lat="29.553781" lon="96.458723">
<time>2016-10-07T22:24:39Z</time></trkpt>
<trkpt lat="29.553891" lon="96.458713">
<time>2016-10-07T22:24:40Z</time></trkpt>
<trkpt lat="29.55399" lon="96.458703">
<time>2016-10-07T22:24:41Z</time></trkpt>
<trkpt lat="29.5541" lon="96.458673">
<time>2016-10-07T22:24:42Z</time></trkpt>
<trkpt lat="29.5542" lon="96.458653">
<time>2016-10-07T22:24:43Z</time></trkpt>
<trkpt lat="29.55436" lon="96.458583">
<time>2016-10-07T22:24:44Z</time></trkpt>
<trkpt lat="29.55455" lon="96.458482">
<time>2016-10-07T22:24:45Z</time></trkpt>
<trkpt lat="29.554909" lon="96.458262">
<time>2016-10-07T22:24:46Z</time></trkpt>
<trkpt lat="29.555298" lon="96.458001">
<time>2016-10-07T22:24:47Z</time></trkpt>
<trkpt lat="29.555518" lon="96.45783">
<time>2016-10-07T22:24:48Z</time></trkpt>
<trkpt lat="29.556226" lon="96.457289">
<time>2016-10-07T22:24:49Z</time></trkpt>
<trkpt lat="29.556546" lon="96.457048">
<time>2016-10-07T22:24:50Z</time></trkpt>
<trkpt lat="29.556725" lon="96.456898">
<time>2016-10-07T22:24:51Z</time></trkpt>
<trkpt lat="29.556855" lon="96.456777">
<time>2016-10-07T22:24:52Z</time></trkpt>
<trkpt lat="29.557015" lon="96.456597">
<time>2016-10-07T22:24:53Z</time></trkpt>
<trkpt lat="29.557124" lon="96.456446">
<time>2016-10-07T22:24:54Z</time></trkpt>
<trkpt lat="29.557234" lon="96.456256">
<time>2016-10-07T22:24:55Z</time></trkpt>
<trkpt lat="29.557333" lon="96.456045">
<time>2016-10-07T22:24:56Z</time></trkpt>
<trkpt lat="29.557592" lon="96.455383">
<time>2016-10-07T22:24:57Z</time></trkpt>
<trkpt lat="29.557681" lon="96.455162">
<time>2016-10-07T22:24:58Z</time></trkpt>
<trkpt lat="29.557741" lon="96.455032">
<time>2016-10-07T22:24:59Z</time></trkpt>
<trkpt lat="29.55794" lon="96.454711">
<time>2016-10-07T22:25:00Z</time></trkpt>
<trkpt lat="29.558129" lon="96.45444">
<time>2016-10-07T22:25:01Z</time></trkpt>
<trkpt lat="29.558309" lon="96.454169">
<time>2016-10-07T22:25:02Z</time></trkpt>
<trkpt lat="29.558368" lon="96.454079">
<time>2016-10-07T22:25:03Z</time></trkpt>
<trkpt lat="29.558438" lon="96.453969">
<time>2016-10-07T22:25:04Z</time></trkpt>
<trkpt lat="29.558538" lon="96.453818">
<time>2016-10-07T22:25:05Z</time></trkpt>
<trkpt lat="29.558637" lon="96.453618">
<time>2016-10-07T22:25:06Z</time></trkpt>
<trkpt lat="29.558687" lon="96.453488">
<time>2016-10-07T22:25:07Z</time></trkpt>
<trkpt lat="29.558737" lon="96.453327">
<time>2016-10-07T22:25:08Z</time></trkpt>
<trkpt lat="29.558766" lon="96.453187">
<time>2016-10-07T22:25:09Z</time></trkpt>
<trkpt lat="29.558786" lon="96.453046">
<time>2016-10-07T22:25:10Z</time></trkpt>
<trkpt lat="29.558786" lon="96.452936">
<time>2016-10-07T22:25:11Z</time></trkpt>
<trkpt lat="29.558775" lon="96.452796">
<time>2016-10-07T22:25:12Z</time></trkpt>
<trkpt lat="29.558765" lon="96.452685">
<time>2016-10-07T22:25:13Z</time></trkpt>
<trkpt lat="29.558685" lon="96.452344">
<time>2016-10-07T22:25:14Z</time></trkpt>
<trkpt lat="29.558554" lon="96.451893">
<time>2016-10-07T22:25:15Z</time></trkpt>
<trkpt lat="29.558393" lon="96.451341">
<time>2016-10-07T22:25:16Z</time></trkpt>
<trkpt lat="29.558262" lon="96.45091">
<time>2016-10-07T22:25:17Z</time></trkpt>
<trkpt lat="29.558201" lon="96.45068">
<time>2016-10-07T22:25:18Z</time></trkpt>
<trkpt lat="29.558151" lon="96.450569">
<time>2016-10-07T22:25:19Z</time></trkpt>
<trkpt lat="29.558111" lon="96.450489">
<time>2016-10-07T22:25:20Z</time></trkpt>
<trkpt lat="29.558051" lon="96.450419">
<time>2016-10-07T22:25:21Z</time></trkpt>
<trkpt lat="29.558011" lon="96.450389">
<time>2016-10-07T22:25:22Z</time></trkpt>
<trkpt lat="29.557971" lon="96.450349">
<time>2016-10-07T22:25:23Z</time></trkpt>
<trkpt lat="29.557911" lon="96.450319">
<time>2016-10-07T22:25:24Z</time></trkpt>
<trkpt lat="29.557791" lon="96.450269">
<time>2016-10-07T22:25:25Z</time></trkpt>
<trkpt lat="29.55767" lon="96.450228">
<time>2016-10-07T22:25:26Z</time></trkpt>
<trkpt lat="29.55761" lon="96.450218">
<time>2016-10-07T22:25:27Z</time></trkpt>
<trkpt lat="29.55756" lon="96.450218">
<time>2016-10-07T22:25:28Z</time></trkpt>
<trkpt lat="29.557361" lon="96.450198">
<time>2016-10-07T22:25:29Z</time></trkpt>
<trkpt lat="29.556901" lon="96.450168">
<time>2016-10-07T22:25:30Z</time></trkpt>
<trkpt lat="29.556771" lon="96.450148">
<time>2016-10-07T22:25:31Z</time></trkpt>
<trkpt lat="29.556651" lon="96.450138">
<time>2016-10-07T22:25:32Z</time></trkpt>
<trkpt lat="29.556551" lon="96.450108">
<time>2016-10-07T22:25:33Z</time></trkpt>
<trkpt lat="29.556481" lon="96.450078">
<time>2016-10-07T22:25:34Z</time></trkpt>
<trkpt lat="29.556371" lon="96.450038">
<time>2016-10-07T22:25:35Z</time></trkpt>
<trkpt lat="29.5563" lon="96.449988">
<time>2016-10-07T22:25:36Z</time></trkpt>
<trkpt lat="29.55624" lon="96.449938">
<time>2016-10-07T22:25:37Z</time></trkpt>
<trkpt lat="29.55618" lon="96.449877">
<time>2016-10-07T22:25:38Z</time></trkpt>
<trkpt lat="29.55614" lon="96.449827">
<time>2016-10-07T22:25:39Z</time></trkpt>
<trkpt lat="29.55611" lon="96.449777">
<time>2016-10-07T22:25:40Z</time></trkpt>
<trkpt lat="29.55607" lon="96.449727">
<time>2016-10-07T22:25:41Z</time></trkpt>
<trkpt lat="29.55603" lon="96.449647">
<time>2016-10-07T22:25:42Z</time></trkpt>
<trkpt lat="29.556" lon="96.449547">
<time>2016-10-07T22:25:43Z</time></trkpt>
<trkpt lat="29.55598" lon="96.449476">
<time>2016-10-07T22:25:44Z</time></trkpt>
<trkpt lat="29.555969" lon="96.449376">
<time>2016-10-07T22:25:45Z</time></trkpt>
<trkpt lat="29.555959" lon="96.449296">
<time>2016-10-07T22:25:46Z</time></trkpt>
<trkpt lat="29.555969" lon="96.449125">
<time>2016-10-07T22:25:47Z</time></trkpt>
<trkpt lat="29.556009" lon="96.449005">
<time>2016-10-07T22:25:48Z</time></trkpt>
<trkpt lat="29.556038" lon="96.448905">
<time>2016-10-07T22:25:49Z</time></trkpt>
<trkpt lat="29.556078" lon="96.448805">
<time>2016-10-07T22:25:50Z</time></trkpt>
<trkpt lat="29.556128" lon="96.448714">
<time>2016-10-07T22:25:51Z</time></trkpt>
<trkpt lat="29.556178" lon="96.448624">
<time>2016-10-07T22:25:52Z</time></trkpt>
<trkpt lat="29.556238" lon="96.448524">
<time>2016-10-07T22:25:53Z</time></trkpt>
<trkpt lat="29.556387" lon="96.448283">
<time>2016-10-07T22:25:54Z</time></trkpt>
<trkpt lat="29.556517" lon="96.448073">
<time>2016-10-07T22:25:55Z</time></trkpt>
<trkpt lat="29.556706" lon="96.447762">
<time>2016-10-07T22:25:56Z</time></trkpt>
<trkpt lat="29.556855" lon="96.447521">
<time>2016-10-07T22:25:57Z</time></trkpt>
<trkpt lat="29.557952" lon="96.445767">
<time>2016-10-07T22:25:58Z</time></trkpt>
<trkpt lat="29.558241" lon="96.445295">
<time>2016-10-07T22:25:59Z</time></trkpt>
<trkpt lat="29.55836" lon="96.445105">
<time>2016-10-07T22:26:00Z</time></trkpt>
<trkpt lat="29.55843" lon="96.444945">
<time>2016-10-07T22:26:01Z</time></trkpt>
<trkpt lat="29.55848" lon="96.444804">
<time>2016-10-07T22:26:02Z</time></trkpt>
<trkpt lat="29.558499" lon="96.444684">
<time>2016-10-07T22:26:03Z</time></trkpt>
<trkpt lat="29.558499" lon="96.444594">
<time>2016-10-07T22:26:04Z</time></trkpt>
<trkpt lat="29.558499" lon="96.444503">
<time>2016-10-07T22:26:05Z</time></trkpt>
<trkpt lat="29.558479" lon="96.444423">
<time>2016-10-07T22:26:06Z</time></trkpt>
<trkpt lat="29.558459" lon="96.444343">
<time>2016-10-07T22:26:07Z</time></trkpt>
<trkpt lat="29.558439" lon="96.444263">
<time>2016-10-07T22:26:08Z</time></trkpt>
<trkpt lat="29.558408" lon="96.444183">
<time>2016-10-07T22:26:09Z</time></trkpt>
<trkpt lat="29.558378" lon="96.444062">
<time>2016-10-07T22:26:10Z</time></trkpt>
<trkpt lat="29.558338" lon="96.443932">
<time>2016-10-07T22:26:11Z</time></trkpt>
<trkpt lat="29.558318" lon="96.443842">
<time>2016-10-07T22:26:12Z</time></trkpt>
<trkpt lat="29.558298" lon="96.443762">
<time>2016-10-07T22:26:13Z</time></trkpt>
<trkpt lat="29.558287" lon="96.443631">
<time>2016-10-07T22:26:14Z</time></trkpt>
<trkpt lat="29.558277" lon="96.443501">
<time>2016-10-07T22:26:15Z</time></trkpt>
<trkpt lat="29.558287" lon="96.44332">
<time>2016-10-07T22:26:16Z</time></trkpt>
<trkpt lat="29.558306" lon="96.44309">
<time>2016-10-07T22:26:17Z</time></trkpt>
<trkpt lat="29.558336" lon="96.442849">
<time>2016-10-07T22:26:18Z</time></trkpt>
<trkpt lat="29.558366" lon="96.442609">
<time>2016-10-07T22:26:19Z</time></trkpt>
<trkpt lat="29.558395" lon="96.442438">
<time>2016-10-07T22:26:20Z</time></trkpt>
<trkpt lat="29.558425" lon="96.442338">
<time>2016-10-07T22:26:21Z</time></trkpt>
<trkpt lat="29.558475" lon="96.442198">
<time>2016-10-07T22:26:22Z</time></trkpt>
<trkpt lat="29.558525" lon="96.442087">
<time>2016-10-07T22:26:23Z</time></trkpt>
<trkpt lat="29.558594" lon="96.441977">
<time>2016-10-07T22:26:24Z</time></trkpt>
<trkpt lat="29.558654" lon="96.441877">
<time>2016-10-07T22:26:25Z</time></trkpt>
<trkpt lat="29.558724" lon="96.441787">
<time>2016-10-07T22:26:26Z</time></trkpt>
<trkpt lat="29.558814" lon="96.441676">
<time>2016-10-07T22:26:27Z</time></trkpt>
<trkpt lat="29.558993" lon="96.441456">
<time>2016-10-07T22:26:28Z</time></trkpt>
<trkpt lat="29.559233" lon="96.441155">
<time>2016-10-07T22:26:29Z</time></trkpt>
<trkpt lat="29.559941" lon="96.440363">
<time>2016-10-07T22:26:30Z</time></trkpt>
<trkpt lat="29.56021" lon="96.440023">
<time>2016-10-07T22:26:31Z</time></trkpt>
<trkpt lat="29.56031" lon="96.439902">
<time>2016-10-07T22:26:32Z</time></trkpt>
<trkpt lat="29.5604" lon="96.439802">
<time>2016-10-07T22:26:33Z</time></trkpt>
<trkpt lat="29.56052" lon="96.439692">
<time>2016-10-07T22:26:34Z</time></trkpt>
<trkpt lat="29.5607" lon="96.439562">
<time>2016-10-07T22:26:35Z</time></trkpt>
<trkpt lat="29.560969" lon="96.439361">
<time>2016-10-07T22:26:36Z</time></trkpt>
<trkpt lat="29.561069" lon="96.439291">
<time>2016-10-07T22:26:37Z</time></trkpt>
<trkpt lat="29.561159" lon="96.439241">
<time>2016-10-07T22:26:38Z</time></trkpt>
<trkpt lat="29.561259" lon="96.439221">
<time>2016-10-07T22:26:39Z</time></trkpt>
<trkpt lat="29.561319" lon="96.439221">
<time>2016-10-07T22:26:40Z</time></trkpt>
<trkpt lat="29.561379" lon="96.439231">
<time>2016-10-07T22:26:41Z</time></trkpt>
<trkpt lat="29.562749" lon="96.439752">
<time>2016-10-07T22:26:42Z</time></trkpt>
<trkpt lat="29.562949" lon="96.439822">
<time>2016-10-07T22:26:43Z</time></trkpt>
<trkpt lat="29.563129" lon="96.439892">
<time>2016-10-07T22:26:44Z</time></trkpt>
<trkpt lat="29.563229" lon="96.439912">
<time>2016-10-07T22:26:45Z</time></trkpt>
<trkpt lat="29.563329" lon="96.439922">
<time>2016-10-07T22:26:46Z</time></trkpt>
<trkpt lat="29.563429" lon="96.439912">
<time>2016-10-07T22:26:47Z</time></trkpt>
<trkpt lat="29.563509" lon="96.439892">
<time>2016-10-07T22:26:48Z</time></trkpt>
<trkpt lat="29.563599" lon="96.439852">
<time>2016-10-07T22:26:49Z</time></trkpt>
<trkpt lat="29.563739" lon="96.439772">
<time>2016-10-07T22:26:50Z</time></trkpt>
<trkpt lat="29.564897" lon="96.43887">
<time>2016-10-07T22:26:51Z</time></trkpt>
<trkpt lat="29.565147" lon="96.438679">
<time>2016-10-07T22:26:52Z</time></trkpt>
<trkpt lat="29.565336" lon="96.438499">
<time>2016-10-07T22:26:53Z</time></trkpt>
<trkpt lat="29.565556" lon="96.438248">
<time>2016-10-07T22:26:54Z</time></trkpt>
<trkpt lat="29.565795" lon="96.437948">
<time>2016-10-07T22:26:55Z</time></trkpt>
<trkpt lat="29.566364" lon="96.437246">
<time>2016-10-07T22:26:56Z</time></trkpt>
<trkpt lat="29.566583" lon="96.436986">
<time>2016-10-07T22:26:57Z</time></trkpt>
<trkpt lat="29.566863" lon="96.436655">
<time>2016-10-07T22:26:58Z</time></trkpt>
<trkpt lat="29.567092" lon="96.436404">
<time>2016-10-07T22:26:59Z</time></trkpt>
<trkpt lat="29.567292" lon="96.436204">
<time>2016-10-07T22:27:00Z</time></trkpt>
<trkpt lat="29.567621" lon="96.435903">
<time>2016-10-07T22:27:01Z</time></trkpt>
<trkpt lat="29.567861" lon="96.435723">
<time>2016-10-07T22:27:02Z</time></trkpt>
<trkpt lat="29.568171" lon="96.435492">
<time>2016-10-07T22:27:03Z</time></trkpt>
<trkpt lat="29.56848" lon="96.435262">
<time>2016-10-07T22:27:04Z</time></trkpt>
<trkpt lat="29.56871" lon="96.435102">
<time>2016-10-07T22:27:05Z</time></trkpt>
<trkpt lat="29.56891" lon="96.434981">
<time>2016-10-07T22:27:06Z</time></trkpt>
<trkpt lat="29.569039" lon="96.434921">
<time>2016-10-07T22:27:07Z</time></trkpt>
<trkpt lat="29.569159" lon="96.434881">
<time>2016-10-07T22:27:08Z</time></trkpt>
<trkpt lat="29.569319" lon="96.434831">
<time>2016-10-07T22:27:09Z</time></trkpt>
<trkpt lat="29.569559" lon="96.434771">
<time>2016-10-07T22:27:10Z</time></trkpt>
<trkpt lat="29.570269" lon="96.434601">
<time>2016-10-07T22:27:11Z</time></trkpt>
<trkpt lat="29.570608" lon="96.43453">
<time>2016-10-07T22:27:12Z</time></trkpt>
<trkpt lat="29.570748" lon="96.43452">
<time>2016-10-07T22:27:13Z</time></trkpt>
<trkpt lat="29.570938" lon="96.43452">
<time>2016-10-07T22:27:14Z</time></trkpt>
<trkpt lat="29.571358" lon="96.43454">
<time>2016-10-07T22:27:15Z</time></trkpt>
<trkpt lat="29.572118" lon="96.43459">
<time>2016-10-07T22:27:16Z</time></trkpt>
<trkpt lat="29.572558" lon="96.434611">
<time>2016-10-07T22:27:17Z</time></trkpt>
<trkpt lat="29.572698" lon="96.434621">
<time>2016-10-07T22:27:18Z</time></trkpt>
<trkpt lat="29.572878" lon="96.434611">
<time>2016-10-07T22:27:19Z</time></trkpt>
<trkpt lat="29.573078" lon="96.4346">
<time>2016-10-07T22:27:20Z</time></trkpt>
<trkpt lat="29.573208" lon="96.43458">
<time>2016-10-07T22:27:21Z</time></trkpt>
<trkpt lat="29.573357" lon="96.43454">
<time>2016-10-07T22:27:22Z</time></trkpt>
<trkpt lat="29.573457" lon="96.43451">
<time>2016-10-07T22:27:23Z</time></trkpt>
<trkpt lat="29.573597" lon="96.43445">
<time>2016-10-07T22:27:24Z</time></trkpt>
<trkpt lat="29.573747" lon="96.43437">
<time>2016-10-07T22:27:25Z</time></trkpt>
<trkpt lat="29.573917" lon="96.43426">
<time>2016-10-07T22:27:26Z</time></trkpt>
<trkpt lat="29.574117" lon="96.434079">
<time>2016-10-07T22:27:27Z</time></trkpt>
<trkpt lat="29.574296" lon="96.433909">
<time>2016-10-07T22:27:28Z</time></trkpt>
<trkpt lat="29.574406" lon="96.433809">
<time>2016-10-07T22:27:29Z</time></trkpt>
<trkpt lat="29.574536" lon="96.433709">
<time>2016-10-07T22:27:30Z</time></trkpt>
<trkpt lat="29.574746" lon="96.433588">
<time>2016-10-07T22:27:31Z</time></trkpt>
<trkpt lat="29.574935" lon="96.433498">
<time>2016-10-07T22:27:32Z</time></trkpt>
<trkpt lat="29.575595" lon="96.433178">
<time>2016-10-07T22:27:33Z</time></trkpt>
<trkpt lat="29.575954" lon="96.432997">
<time>2016-10-07T22:27:34Z</time></trkpt>
<trkpt lat="29.576134" lon="96.432887">
<time>2016-10-07T22:27:35Z</time></trkpt>
<trkpt lat="29.576284" lon="96.432777">
<time>2016-10-07T22:27:36Z</time></trkpt>
<trkpt lat="29.576454" lon="96.432616">
<time>2016-10-07T22:27:37Z</time></trkpt>
<trkpt lat="29.576593" lon="96.432456">
<time>2016-10-07T22:27:38Z</time></trkpt>
<trkpt lat="29.576723" lon="96.432276">
<time>2016-10-07T22:27:39Z</time></trkpt>
<trkpt lat="29.576853" lon="96.432035">
<time>2016-10-07T22:27:40Z</time></trkpt>
<trkpt lat="29.576962" lon="96.431795">
<time>2016-10-07T22:27:41Z</time></trkpt>
<trkpt lat="29.577032" lon="96.431594">
<time>2016-10-07T22:27:42Z</time></trkpt>
<trkpt lat="29.577092" lon="96.431304">
<time>2016-10-07T22:27:43Z</time></trkpt>
<trkpt lat="29.577121" lon="96.431093">
<time>2016-10-07T22:27:44Z</time></trkpt>
<trkpt lat="29.577141" lon="96.430853">
<time>2016-10-07T22:27:45Z</time></trkpt>
<trkpt lat="29.577151" lon="96.430502">
<time>2016-10-07T22:27:46Z</time></trkpt>
<trkpt lat="29.57715" lon="96.430242">
<time>2016-10-07T22:27:47Z</time></trkpt>
<trkpt lat="29.57716" lon="96.429951">
<time>2016-10-07T22:27:48Z</time></trkpt>
<trkpt lat="29.57717" lon="96.429761">
<time>2016-10-07T22:27:49Z</time></trkpt>
<trkpt lat="29.57719" lon="96.429601">
<time>2016-10-07T22:27:50Z</time></trkpt>
<trkpt lat="29.577209" lon="96.42945">
<time>2016-10-07T22:27:51Z</time></trkpt>
<trkpt lat="29.577249" lon="96.4293">
<time>2016-10-07T22:27:52Z</time></trkpt>
<trkpt lat="29.577359" lon="96.428899">
<time>2016-10-07T22:27:53Z</time></trkpt>
<trkpt lat="29.577976" lon="96.426696">
<time>2016-10-07T22:27:54Z</time></trkpt>
<trkpt lat="29.578424" lon="96.425083">
<time>2016-10-07T22:27:55Z</time></trkpt>
<trkpt lat="29.578504" lon="96.424822">
<time>2016-10-07T22:27:56Z</time></trkpt>
<trkpt lat="29.578573" lon="96.424612">
<time>2016-10-07T22:27:57Z</time></trkpt>
<trkpt lat="29.578663" lon="96.424402">
<time>2016-10-07T22:27:58Z</time></trkpt>
<trkpt lat="29.578743" lon="96.424262">
<time>2016-10-07T22:27:59Z</time></trkpt>
<trkpt lat="29.578843" lon="96.424131">
<time>2016-10-07T22:28:00Z</time></trkpt>
<trkpt lat="29.578953" lon="96.424001">
<time>2016-10-07T22:28:01Z</time></trkpt>
<trkpt lat="29.579113" lon="96.423871">
<time>2016-10-07T22:28:02Z</time></trkpt>
<trkpt lat="29.579242" lon="96.423781">
<time>2016-10-07T22:28:03Z</time></trkpt>
<trkpt lat="29.579382" lon="96.423701">
<time>2016-10-07T22:28:04Z</time></trkpt>
<trkpt lat="29.579482" lon="96.423661">
<time>2016-10-07T22:28:05Z</time></trkpt>
<trkpt lat="29.579642" lon="96.423621">
<time>2016-10-07T22:28:06Z</time></trkpt>
<trkpt lat="29.579762" lon="96.423601">
<time>2016-10-07T22:28:07Z</time></trkpt>
<trkpt lat="29.579882" lon="96.42359">
<time>2016-10-07T22:28:08Z</time></trkpt>
<trkpt lat="29.580002" lon="96.4236">
<time>2016-10-07T22:28:09Z</time></trkpt>
<trkpt lat="29.580142" lon="96.423621">
<time>2016-10-07T22:28:10Z</time></trkpt>
<trkpt lat="29.581362" lon="96.423841">
<time>2016-10-07T22:28:11Z</time></trkpt>
<trkpt lat="29.581542" lon="96.423871">
<time>2016-10-07T22:28:12Z</time></trkpt>
<trkpt lat="29.581712" lon="96.423891">
<time>2016-10-07T22:28:13Z</time></trkpt>
<trkpt lat="29.581862" lon="96.423901">
<time>2016-10-07T22:28:14Z</time></trkpt>
<trkpt lat="29.581952" lon="96.423901">
<time>2016-10-07T22:28:15Z</time></trkpt>
<trkpt lat="29.582102" lon="96.423871">
<time>2016-10-07T22:28:16Z</time></trkpt>
<trkpt lat="29.582211" lon="96.423841">
<time>2016-10-07T22:28:17Z</time></trkpt>
<trkpt lat="29.582311" lon="96.423791">
<time>2016-10-07T22:28:18Z</time></trkpt>
<trkpt lat="29.582391" lon="96.423731">
<time>2016-10-07T22:28:19Z</time></trkpt>
<trkpt lat="29.582481" lon="96.423641">
<time>2016-10-07T22:28:20Z</time></trkpt>
<trkpt lat="29.582541" lon="96.42357">
<time>2016-10-07T22:28:21Z</time></trkpt>
<trkpt lat="29.582591" lon="96.4235">
<time>2016-10-07T22:28:22Z</time></trkpt>
<trkpt lat="29.582641" lon="96.42342">
<time>2016-10-07T22:28:23Z</time></trkpt>
<trkpt lat="29.582691" lon="96.42328">
<time>2016-10-07T22:28:24Z</time></trkpt>
<trkpt lat="29.582761" lon="96.42307">
<time>2016-10-07T22:28:25Z</time></trkpt>
<trkpt lat="29.58285" lon="96.422599">
<time>2016-10-07T22:28:26Z</time></trkpt>
<trkpt lat="29.58291" lon="96.422329">
<time>2016-10-07T22:28:27Z</time></trkpt>
<trkpt lat="29.58297" lon="96.422038">
<time>2016-10-07T22:28:28Z</time></trkpt>
<trkpt lat="29.582999" lon="96.421918">
<time>2016-10-07T22:28:29Z</time></trkpt>
<trkpt lat="29.583019" lon="96.421808">
<time>2016-10-07T22:28:30Z</time></trkpt>
<trkpt lat="29.583079" lon="96.421658">
<time>2016-10-07T22:28:31Z</time></trkpt>
<trkpt lat="29.583129" lon="96.421547">
<time>2016-10-07T22:28:32Z</time></trkpt>
<trkpt lat="29.583169" lon="96.421467">
<time>2016-10-07T22:28:33Z</time></trkpt>
<trkpt lat="29.583249" lon="96.421357">
<time>2016-10-07T22:28:34Z</time></trkpt>
<trkpt lat="29.583379" lon="96.421217">
<time>2016-10-07T22:28:35Z</time></trkpt>
<trkpt lat="29.583908" lon="96.420656">
<time>2016-10-07T22:28:36Z</time></trkpt>
<trkpt lat="29.584318" lon="96.420226">
<time>2016-10-07T22:28:37Z</time></trkpt>
<trkpt lat="29.584767" lon="96.419755">
<time>2016-10-07T22:28:38Z</time></trkpt>
<trkpt lat="29.584857" lon="96.419665">
<time>2016-10-07T22:28:39Z</time></trkpt>
<trkpt lat="29.584937" lon="96.419595">
<time>2016-10-07T22:28:40Z</time></trkpt>
<trkpt lat="29.585017" lon="96.419535">
<time>2016-10-07T22:28:41Z</time></trkpt>
<trkpt lat="29.585107" lon="96.419474">
<time>2016-10-07T22:28:42Z</time></trkpt>
<trkpt lat="29.585227" lon="96.419414">
<time>2016-10-07T22:28:43Z</time></trkpt>
<trkpt lat="29.585317" lon="96.419374">
<time>2016-10-07T22:28:44Z</time></trkpt>
<trkpt lat="29.585476" lon="96.419304">
<time>2016-10-07T22:28:45Z</time></trkpt>
<trkpt lat="29.585616" lon="96.419254">
<time>2016-10-07T22:28:46Z</time></trkpt>
<trkpt lat="29.585796" lon="96.419154">
<time>2016-10-07T22:28:47Z</time></trkpt>
<trkpt lat="29.585996" lon="96.419014">
<time>2016-10-07T22:28:48Z</time></trkpt>
<trkpt lat="29.586396" lon="96.418743">
<time>2016-10-07T22:28:49Z</time></trkpt>
<trkpt lat="29.586785" lon="96.418483">
<time>2016-10-07T22:28:50Z</time></trkpt>
<trkpt lat="29.586955" lon="96.418383">
<time>2016-10-07T22:28:51Z</time></trkpt>
<trkpt lat="29.587105" lon="96.418333">
<time>2016-10-07T22:28:52Z</time></trkpt>
<trkpt lat="29.587265" lon="96.418293">
<time>2016-10-07T22:28:53Z</time></trkpt>
<trkpt lat="29.587475" lon="96.418263">
<time>2016-10-07T22:28:54Z</time></trkpt>
<trkpt lat="29.587945" lon="96.418243">
<time>2016-10-07T22:28:55Z</time></trkpt>
<trkpt lat="29.588525" lon="96.418203">
<time>2016-10-07T22:28:56Z</time></trkpt>
<trkpt lat="29.588675" lon="96.418183">
<time>2016-10-07T22:28:57Z</time></trkpt>
<trkpt lat="29.588795" lon="96.418153">
<time>2016-10-07T22:28:58Z</time></trkpt>
<trkpt lat="29.588894" lon="96.418123">
<time>2016-10-07T22:28:59Z</time></trkpt>
<trkpt lat="29.588994" lon="96.418063">
<time>2016-10-07T22:29:00Z</time></trkpt>
<trkpt lat="29.589074" lon="96.417992">
<time>2016-10-07T22:29:01Z</time></trkpt>
<trkpt lat="29.589124" lon="96.417922">
<time>2016-10-07T22:29:02Z</time></trkpt>
<trkpt lat="29.589174" lon="96.417842">
<time>2016-10-07T22:29:03Z</time></trkpt>
<trkpt lat="29.589214" lon="96.417752">
<time>2016-10-07T22:29:04Z</time></trkpt>
<trkpt lat="29.589254" lon="96.417652">
<time>2016-10-07T22:29:05Z</time></trkpt>
<trkpt lat="29.589284" lon="96.417512">
<time>2016-10-07T22:29:06Z</time></trkpt>
<trkpt lat="29.589334" lon="96.417292">
<time>2016-10-07T22:29:07Z</time></trkpt>
<trkpt lat="29.589433" lon="96.416791">
<time>2016-10-07T22:29:08Z</time></trkpt>
<trkpt lat="29.589523" lon="96.416391">
<time>2016-10-07T22:29:09Z</time></trkpt>
<trkpt lat="29.589603" lon="96.41611">
<time>2016-10-07T22:29:10Z</time></trkpt>
<trkpt lat="29.589862" lon="96.415309">
<time>2016-10-07T22:29:11Z</time></trkpt>
<trkpt lat="29.589982" lon="96.414939">
<time>2016-10-07T22:29:12Z</time></trkpt>
<trkpt lat="29.590062" lon="96.414699">
<time>2016-10-07T22:29:13Z</time></trkpt>
<trkpt lat="29.590092" lon="96.414588">
<time>2016-10-07T22:29:14Z</time></trkpt>
<trkpt lat="29.590102" lon="96.414488">
<time>2016-10-07T22:29:15Z</time></trkpt>
<trkpt lat="29.590102" lon="96.414378">
<time>2016-10-07T22:29:16Z</time></trkpt>
<trkpt lat="29.590092" lon="96.414258">
<time>2016-10-07T22:29:17Z</time></trkpt>
<trkpt lat="29.590072" lon="96.414148">
<time>2016-10-07T22:29:18Z</time></trkpt>
<trkpt lat="29.590031" lon="96.413948">
<time>2016-10-07T22:29:19Z</time></trkpt>
<trkpt lat="29.589991" lon="96.413818">
<time>2016-10-07T22:29:20Z</time></trkpt>
<trkpt lat="29.589961" lon="96.413708">
<time>2016-10-07T22:29:21Z</time></trkpt>
<trkpt lat="29.589931" lon="96.413577">
<time>2016-10-07T22:29:22Z</time></trkpt>
<trkpt lat="29.589911" lon="96.413447">
<time>2016-10-07T22:29:23Z</time></trkpt>
<trkpt lat="29.589901" lon="96.413367">
<time>2016-10-07T22:29:24Z</time></trkpt>
<trkpt lat="29.589901" lon="96.413287">
<time>2016-10-07T22:29:25Z</time></trkpt>
<trkpt lat="29.589911" lon="96.413197">
<time>2016-10-07T22:29:26Z</time></trkpt>
<trkpt lat="29.589921" lon="96.413077">
<time>2016-10-07T22:29:27Z</time></trkpt>
<trkpt lat="29.589951" lon="96.412907">
<time>2016-10-07T22:29:28Z</time></trkpt>
<trkpt lat="29.590041" lon="96.412396">
<time>2016-10-07T22:29:29Z</time></trkpt>
<trkpt lat="29.590091" lon="96.412156">
<time>2016-10-07T22:29:30Z</time></trkpt>
<trkpt lat="29.59011" lon="96.411996">
<time>2016-10-07T22:29:31Z</time></trkpt>
<trkpt lat="29.59014" lon="96.411806">
<time>2016-10-07T22:29:32Z</time></trkpt>
<trkpt lat="29.59015" lon="96.411726">
<time>2016-10-07T22:29:33Z</time></trkpt>
<trkpt lat="29.59015" lon="96.411696">
<time>2016-10-07T22:29:34Z</time></trkpt>
<trkpt lat="29.59015" lon="96.411635">
<time>2016-10-07T22:29:35Z</time></trkpt>
<trkpt lat="29.59015" lon="96.411515">
<time>2016-10-07T22:29:36Z</time></trkpt>
<trkpt lat="29.59015" lon="96.411395">
<time>2016-10-07T22:29:37Z</time></trkpt>
<trkpt lat="29.59014" lon="96.411315">
<time>2016-10-07T22:29:38Z</time></trkpt>
<trkpt lat="29.59011" lon="96.411145">
<time>2016-10-07T22:29:39Z</time></trkpt>
<trkpt lat="29.59008" lon="96.411055">
<time>2016-10-07T22:29:40Z</time></trkpt>
<trkpt lat="29.59004" lon="96.410915">
<time>2016-10-07T22:29:41Z</time></trkpt>
<trkpt lat="29.58996" lon="96.410645">
<time>2016-10-07T22:29:42Z</time></trkpt>
<trkpt lat="29.58988" lon="96.410354">
<time>2016-10-07T22:29:43Z</time></trkpt>
<trkpt lat="29.58985" lon="96.410174">
<time>2016-10-07T22:29:44Z</time></trkpt>
<trkpt lat="29.58984" lon="96.410004">
<time>2016-10-07T22:29:45Z</time></trkpt>
<trkpt lat="29.58984" lon="96.409854">
<time>2016-10-07T22:29:46Z</time></trkpt>
<trkpt lat="29.58986" lon="96.409734">
<time>2016-10-07T22:29:47Z</time></trkpt>
<trkpt lat="29.5899" lon="96.409524">
<time>2016-10-07T22:29:48Z</time></trkpt>
<trkpt lat="29.589959" lon="96.409303">
<time>2016-10-07T22:29:49Z</time></trkpt>
<trkpt lat="29.590049" lon="96.409023">
<time>2016-10-07T22:29:50Z</time></trkpt>
<trkpt lat="29.590149" lon="96.408793">
<time>2016-10-07T22:29:51Z</time></trkpt>
<trkpt lat="29.590279" lon="96.408563">
<time>2016-10-07T22:29:52Z</time></trkpt>
<trkpt lat="29.590439" lon="96.408323">
<time>2016-10-07T22:29:53Z</time></trkpt>
<trkpt lat="29.590569" lon="96.408132">
<time>2016-10-07T22:29:54Z</time></trkpt>
<trkpt lat="29.590829" lon="96.407752">
<time>2016-10-07T22:29:55Z</time></trkpt>
<trkpt lat="29.590959" lon="96.407532">
<time>2016-10-07T22:29:56Z</time></trkpt>
<trkpt lat="29.591049" lon="96.407332">
<time>2016-10-07T22:29:57Z</time></trkpt>
<trkpt lat="29.591108" lon="96.407182">
<time>2016-10-07T22:29:58Z</time></trkpt>
<trkpt lat="29.591158" lon="96.407002">
<time>2016-10-07T22:29:59Z</time></trkpt>
<trkpt lat="29.591198" lon="96.406811">
<time>2016-10-07T22:30:00Z</time></trkpt>
<trkpt lat="29.591228" lon="96.406521">
<time>2016-10-07T22:30:01Z</time></trkpt>
<trkpt lat="29.591248" lon="96.406111">
<time>2016-10-07T22:30:02Z</time></trkpt>
<trkpt lat="29.591268" lon="96.405551">
<time>2016-10-07T22:30:03Z</time></trkpt>
<trkpt lat="29.591278" lon="96.40516">
<time>2016-10-07T22:30:04Z</time></trkpt>
<trkpt lat="29.591298" lon="96.40498">
<time>2016-10-07T22:30:05Z</time></trkpt>
<trkpt lat="29.591318" lon="96.40481">
<time>2016-10-07T22:30:06Z</time></trkpt>
<trkpt lat="29.591348" lon="96.40468">
<time>2016-10-07T22:30:07Z</time></trkpt>
<trkpt lat="29.591398" lon="96.40453">
<time>2016-10-07T22:30:08Z</time></trkpt>
<trkpt lat="29.591468" lon="96.40437">
<time>2016-10-07T22:30:09Z</time></trkpt>
<trkpt lat="29.591558" lon="96.40419">
<time>2016-10-07T22:30:10Z</time></trkpt>
<trkpt lat="29.591748" lon="96.40381">
<time>2016-10-07T22:30:11Z</time></trkpt>
<trkpt lat="29.591778" lon="96.40373">
<time>2016-10-07T22:30:12Z</time></trkpt>
<trkpt lat="29.591818" lon="96.403619">
<time>2016-10-07T22:30:13Z</time></trkpt>
<trkpt lat="29.591838" lon="96.403529">
<time>2016-10-07T22:30:14Z</time></trkpt>
<trkpt lat="29.591848" lon="96.403439">
<time>2016-10-07T22:30:15Z</time></trkpt>
<trkpt lat="29.591848" lon="96.403339">
<time>2016-10-07T22:30:16Z</time></trkpt>
<trkpt lat="29.591848" lon="96.403239">
<time>2016-10-07T22:30:17Z</time></trkpt>
<trkpt lat="29.591828" lon="96.403149">
<time>2016-10-07T22:30:18Z</time></trkpt>
<trkpt lat="29.591798" lon="96.403019">
<time>2016-10-07T22:30:19Z</time></trkpt>
<trkpt lat="29.591758" lon="96.402869">
<time>2016-10-07T22:30:20Z</time></trkpt>
<trkpt lat="29.591588" lon="96.402379">
<time>2016-10-07T22:30:21Z</time></trkpt>
<trkpt lat="29.591488" lon="96.402099">
<time>2016-10-07T22:30:22Z</time></trkpt>
<trkpt lat="29.591458" lon="96.401969">
<time>2016-10-07T22:30:23Z</time></trkpt>
<trkpt lat="29.591438" lon="96.401849">
<time>2016-10-07T22:30:24Z</time></trkpt>
<trkpt lat="29.591428" lon="96.401728">
<time>2016-10-07T22:30:25Z</time></trkpt>
<trkpt lat="29.591438" lon="96.401608">
<time>2016-10-07T22:30:26Z</time></trkpt>
<trkpt lat="29.591468" lon="96.401498">
<time>2016-10-07T22:30:27Z</time></trkpt>
<trkpt lat="29.591548" lon="96.401238">
<time>2016-10-07T22:30:28Z</time></trkpt>
<trkpt lat="29.591728" lon="96.400708">
<time>2016-10-07T22:30:29Z</time></trkpt>
<trkpt lat="29.591968" lon="96.399988">
<time>2016-10-07T22:30:30Z</time></trkpt>
<trkpt lat="29.592248" lon="96.399197">
<time>2016-10-07T22:30:31Z</time></trkpt>
<trkpt lat="29.592448" lon="96.398687">
<time>2016-10-07T22:30:32Z</time></trkpt>
<trkpt lat="29.592738" lon="96.398047">
<time>2016-10-07T22:30:33Z</time></trkpt>
<trkpt lat="29.592968" lon="96.397557">
<time>2016-10-07T22:30:34Z</time></trkpt>
<trkpt lat="29.593148" lon="96.397257">
<time>2016-10-07T22:30:35Z</time></trkpt>
<trkpt lat="29.593318" lon="96.397017">
<time>2016-10-07T22:30:36Z</time></trkpt>
<trkpt lat="29.593898" lon="96.396297">
<time>2016-10-07T22:30:37Z</time></trkpt>
<trkpt lat="29.594088" lon="96.396057">
<time>2016-10-07T22:30:38Z</time></trkpt>
<trkpt lat="29.594208" lon="96.395897">
<time>2016-10-07T22:30:39Z</time></trkpt>
<trkpt lat="29.594258" lon="96.395807">
<time>2016-10-07T22:30:40Z</time></trkpt>
<trkpt lat="29.594308" lon="96.395727">
<time>2016-10-07T22:30:41Z</time></trkpt>
<trkpt lat="29.594358" lon="96.395617">
<time>2016-10-07T22:30:42Z</time></trkpt>
<trkpt lat="29.594398" lon="96.395507">
<time>2016-10-07T22:30:43Z</time></trkpt>
<trkpt lat="29.594448" lon="96.395307">
<time>2016-10-07T22:30:44Z</time></trkpt>
<trkpt lat="29.594488" lon="96.395086">
<time>2016-10-07T22:30:45Z</time></trkpt>
<trkpt lat="29.594558" lon="96.394696">
<time>2016-10-07T22:30:46Z</time></trkpt>
<trkpt lat="29.594618" lon="96.394436">
<time>2016-10-07T22:30:47Z</time></trkpt>
<trkpt lat="29.594668" lon="96.394146">
<time>2016-10-07T22:30:48Z</time></trkpt>
<trkpt lat="29.594688" lon="96.393886">
<time>2016-10-07T22:30:49Z</time></trkpt>
<trkpt lat="29.594698" lon="96.393456">
<time>2016-10-07T22:30:50Z</time></trkpt>
<trkpt lat="29.594718" lon="96.393226">
<time>2016-10-07T22:30:51Z</time></trkpt>
<trkpt lat="29.594738" lon="96.393046">
<time>2016-10-07T22:30:52Z</time></trkpt>
<trkpt lat="29.594778" lon="96.392876">
<time>2016-10-07T22:30:53Z</time></trkpt>
<trkpt lat="29.594848" lon="96.392646">
<time>2016-10-07T22:30:54Z</time></trkpt>
<trkpt lat="29.594929" lon="96.392446">
<time>2016-10-07T22:30:55Z</time></trkpt>
<trkpt lat="29.595029" lon="96.392266">
<time>2016-10-07T22:30:56Z</time></trkpt>
<trkpt lat="29.595129" lon="96.392126">
<time>2016-10-07T22:30:57Z</time></trkpt>
<trkpt lat="29.595229" lon="96.391996">
<time>2016-10-07T22:30:58Z</time></trkpt>
<trkpt lat="29.595469" lon="96.391736">
<time>2016-10-07T22:30:59Z</time></trkpt>
<trkpt lat="29.595679" lon="96.391466">
<time>2016-10-07T22:31:00Z</time></trkpt>
<trkpt lat="29.595819" lon="96.391266">
<time>2016-10-07T22:31:01Z</time></trkpt>
<trkpt lat="29.595989" lon="96.391006">
<time>2016-10-07T22:31:02Z</time></trkpt>
<trkpt lat="29.596229" lon="96.390566">
<time>2016-10-07T22:31:03Z</time></trkpt>
<trkpt lat="29.596339" lon="96.390376">
<time>2016-10-07T22:31:04Z</time></trkpt>
<trkpt lat="29.596449" lon="96.390246">
<time>2016-10-07T22:31:05Z</time></trkpt>
<trkpt lat="29.596529" lon="96.390176">
<time>2016-10-07T22:31:06Z</time></trkpt>
<trkpt lat="29.596859" lon="96.389936">
<time>2016-10-07T22:31:07Z</time></trkpt>
<trkpt lat="29.597249" lon="96.389656">
<time>2016-10-07T22:31:08Z</time></trkpt>
<trkpt lat="29.597569" lon="96.389426">
<time>2016-10-07T22:31:09Z</time></trkpt>
<trkpt lat="29.597749" lon="96.389316">
<time>2016-10-07T22:31:10Z</time></trkpt>
<trkpt lat="29.597869" lon="96.389266">
<time>2016-10-07T22:31:11Z</time></trkpt>
<trkpt lat="29.598269" lon="96.389116">
<time>2016-10-07T22:31:12Z</time></trkpt>
<trkpt lat="29.598769" lon="96.388906">
<time>2016-10-07T22:31:13Z</time></trkpt>
<trkpt lat="29.599229" lon="96.388726">
<time>2016-10-07T22:31:14Z</time></trkpt>
<trkpt lat="29.599459" lon="96.388646">
<time>2016-10-07T22:31:15Z</time></trkpt>
<trkpt lat="29.599619" lon="96.388616">
<time>2016-10-07T22:31:16Z</time></trkpt>
<trkpt lat="29.599829" lon="96.388596">
<time>2016-10-07T22:31:17Z</time></trkpt>
<trkpt lat="29.600379" lon="96.388616">
<time>2016-10-07T22:31:18Z</time></trkpt>
<trkpt lat="29.601468" lon="96.388666">
<time>2016-10-07T22:31:19Z</time></trkpt>
<trkpt lat="29.601908" lon="96.388696">
<time>2016-10-07T22:31:20Z</time></trkpt>
<trkpt lat="29.602148" lon="96.388706">
<time>2016-10-07T22:31:21Z</time></trkpt>
<trkpt lat="29.602258" lon="96.388726">
<time>2016-10-07T22:31:22Z</time></trkpt>
<trkpt lat="29.602388" lon="96.388786">
<time>2016-10-07T22:31:23Z</time></trkpt>
<trkpt lat="29.602488" lon="96.388846">
<time>2016-10-07T22:31:24Z</time></trkpt>
<trkpt lat="29.602608" lon="96.388956">
<time>2016-10-07T22:31:25Z</time></trkpt>
<trkpt lat="29.602788" lon="96.389156">
<time>2016-10-07T22:31:26Z</time></trkpt>
<trkpt lat="29.603217" lon="96.389616">
<time>2016-10-07T22:31:27Z</time></trkpt>
<trkpt lat="29.603417" lon="96.389846">
<time>2016-10-07T22:31:28Z</time></trkpt>
<trkpt lat="29.603537" lon="96.389946">
<time>2016-10-07T22:31:29Z</time></trkpt>
<trkpt lat="29.603657" lon="96.390026">
<time>2016-10-07T22:31:30Z</time></trkpt>
<trkpt lat="29.603777" lon="96.390086">
<time>2016-10-07T22:31:31Z</time></trkpt>
<trkpt lat="29.603907" lon="96.390116">
<time>2016-10-07T22:31:32Z</time></trkpt>
<trkpt lat="29.604037" lon="96.390136">
<time>2016-10-07T22:31:33Z</time></trkpt>
<trkpt lat="29.604227" lon="96.390136">
<time>2016-10-07T22:31:34Z</time></trkpt>
<trkpt lat="29.604587" lon="96.390106">
<time>2016-10-07T22:31:35Z</time></trkpt>
<trkpt lat="29.605396" lon="96.390056">
<time>2016-10-07T22:31:36Z</time></trkpt>
<trkpt lat="29.605676" lon="96.390016">
<time>2016-10-07T22:31:37Z</time></trkpt>
<trkpt lat="29.605866" lon="96.389966">
<time>2016-10-07T22:31:38Z</time></trkpt>
<trkpt lat="29.606066" lon="96.389896">
<time>2016-10-07T22:31:39Z</time></trkpt>
<trkpt lat="29.606266" lon="96.389786">
<time>2016-10-07T22:31:40Z</time></trkpt>
<trkpt lat="29.606486" lon="96.389646">
<time>2016-10-07T22:31:41Z</time></trkpt>
<trkpt lat="29.606666" lon="96.389496">
<time>2016-10-07T22:31:42Z</time></trkpt>
<trkpt lat="29.606946" lon="96.389286">
<time>2016-10-07T22:31:43Z</time></trkpt>
<trkpt lat="29.607156" lon="96.389156">
<time>2016-10-07T22:31:44Z</time></trkpt>
<trkpt lat="29.607416" lon="96.389016">
<time>2016-10-07T22:31:45Z</time></trkpt>
<trkpt lat="29.607646" lon="96.388916">
<time>2016-10-07T22:31:46Z</time></trkpt>
<trkpt lat="29.608226" lon="96.388726">
<time>2016-10-07T22:31:47Z</time></trkpt>
<trkpt lat="29.608696" lon="96.388556">
<time>2016-10-07T22:31:48Z</time></trkpt>
<trkpt lat="29.608906" lon="96.388456">
<time>2016-10-07T22:31:49Z</time></trkpt>
<trkpt lat="29.609076" lon="96.388356">
<time>2016-10-07T22:31:50Z</time></trkpt>
<trkpt lat="29.609206" lon="96.388246">
<time>2016-10-07T22:31:51Z</time></trkpt>
<trkpt lat="29.609336" lon="96.388116">
<time>2016-10-07T22:31:52Z</time></trkpt>
<trkpt lat="29.609456" lon="96.387976">
<time>2016-10-07T22:31:53Z</time></trkpt>
<trkpt lat="29.609757" lon="96.387606">
<time>2016-10-07T22:31:54Z</time></trkpt>
<trkpt lat="29.611037" lon="96.386077">
<time>2016-10-07T22:31:55Z</time></trkpt>
<trkpt lat="29.611527" lon="96.385477">
<time>2016-10-07T22:31:56Z</time></trkpt>
<trkpt lat="29.611737" lon="96.385187">
<time>2016-10-07T22:31:57Z</time></trkpt>
<trkpt lat="29.611888" lon="96.384957">
<time>2016-10-07T22:31:58Z</time></trkpt>
<trkpt lat="29.612018" lon="96.384727">
<time>2016-10-07T22:31:59Z</time></trkpt>
<trkpt lat="29.612198" lon="96.384377">
<time>2016-10-07T22:32:00Z</time></trkpt>
<trkpt lat="29.612518" lon="96.383768">
<time>2016-10-07T22:32:01Z</time></trkpt>
<trkpt lat="29.612628" lon="96.383538">
<time>2016-10-07T22:32:02Z</time></trkpt>
<trkpt lat="29.612689" lon="96.383368">
<time>2016-10-07T22:32:03Z</time></trkpt>
<trkpt lat="29.612729" lon="96.383218">
<time>2016-10-07T22:32:04Z</time></trkpt>
<trkpt lat="29.612739" lon="96.383098">
<time>2016-10-07T22:32:05Z</time></trkpt>
<trkpt lat="29.612749" lon="96.382968">
<time>2016-10-07T22:32:06Z</time></trkpt>
<trkpt lat="29.612739" lon="96.382768">
<time>2016-10-07T22:32:07Z</time></trkpt>
<trkpt lat="29.612719" lon="96.382328">
<time>2016-10-07T22:32:08Z</time></trkpt>
<trkpt lat="29.61266" lon="96.381498">
<time>2016-10-07T22:32:09Z</time></trkpt>
<trkpt lat="29.612611" lon="96.380789">
<time>2016-10-07T22:32:10Z</time></trkpt>
<trkpt lat="29.612601" lon="96.380469">
<time>2016-10-07T22:32:11Z</time></trkpt>
<trkpt lat="29.612581" lon="96.380149">
<time>2016-10-07T22:32:12Z</time></trkpt>
<trkpt lat="29.612572" lon="96.379799">
<time>2016-10-07T22:32:13Z</time></trkpt>
<trkpt lat="29.612602" lon="96.37926">
<time>2016-10-07T22:32:14Z</time></trkpt>
<trkpt lat="29.612653" lon="96.37852">
<time>2016-10-07T22:32:15Z</time></trkpt>
<trkpt lat="29.612713" lon="96.37786">
<time>2016-10-07T22:32:16Z</time></trkpt>
<trkpt lat="29.612754" lon="96.377381">
<time>2016-10-07T22:32:17Z</time></trkpt>
<trkpt lat="29.612794" lon="96.377061">
<time>2016-10-07T22:32:18Z</time></trkpt>
<trkpt lat="29.612824" lon="96.376911">
<time>2016-10-07T22:32:19Z</time></trkpt>
<trkpt lat="29.612874" lon="96.376751">
<time>2016-10-07T22:32:20Z</time></trkpt>
<trkpt lat="29.612924" lon="96.376601">
<time>2016-10-07T22:32:21Z</time></trkpt>
<trkpt lat="29.613015" lon="96.376371">
<time>2016-10-07T22:32:22Z</time></trkpt>
<trkpt lat="29.613275" lon="96.375702">
<time>2016-10-07T22:32:23Z</time></trkpt>
<trkpt lat="29.613526" lon="96.375052">
<time>2016-10-07T22:32:24Z</time></trkpt>
<trkpt lat="29.613666" lon="96.374663">
<time>2016-10-07T22:32:25Z</time></trkpt>
<trkpt lat="29.613787" lon="96.374283">
<time>2016-10-07T22:32:26Z</time></trkpt>
<trkpt lat="29.613807" lon="96.374163">
<time>2016-10-07T22:32:27Z</time></trkpt>
<trkpt lat="29.613837" lon="96.374053">
<time>2016-10-07T22:32:28Z</time></trkpt>
<trkpt lat="29.613847" lon="96.373873">
<time>2016-10-07T22:32:29Z</time></trkpt>
<trkpt lat="29.613857" lon="96.373643">
<time>2016-10-07T22:32:30Z</time></trkpt>
<trkpt lat="29.613848" lon="96.373334">
<time>2016-10-07T22:32:31Z</time></trkpt>
<trkpt lat="29.613838" lon="96.373074">
<time>2016-10-07T22:32:32Z</time></trkpt>
<trkpt lat="29.613798" lon="96.372794">
<time>2016-10-07T22:32:33Z</time></trkpt>
<trkpt lat="29.613759" lon="96.372614">
<time>2016-10-07T22:32:34Z</time></trkpt>
<trkpt lat="29.613709" lon="96.372414">
<time>2016-10-07T22:32:35Z</time></trkpt>
<trkpt lat="29.613619" lon="96.372125">
<time>2016-10-07T22:32:36Z</time></trkpt>
<trkpt lat="29.61347" lon="96.371645">
<time>2016-10-07T22:32:37Z</time></trkpt>
<trkpt lat="29.61331" lon="96.371185">
<time>2016-10-07T22:32:38Z</time></trkpt>
<trkpt lat="29.613201" lon="96.370876">
<time>2016-10-07T22:32:39Z</time></trkpt>
<trkpt lat="29.613081" lon="96.370656">
<time>2016-10-07T22:32:40Z</time></trkpt>
<trkpt lat="29.612961" lon="96.370466">
<time>2016-10-07T22:32:41Z</time></trkpt>
<trkpt lat="29.612832" lon="96.370316">
<time>2016-10-07T22:32:42Z</time></trkpt>
<trkpt lat="29.612272" lon="96.369797">
<time>2016-10-07T22:32:43Z</time></trkpt>
<trkpt lat="29.611384" lon="96.368957">
<time>2016-10-07T22:32:44Z</time></trkpt>
<trkpt lat="29.611114" lon="96.368708">
<time>2016-10-07T22:32:45Z</time></trkpt>
<trkpt lat="29.611034" lon="96.368628">
<time>2016-10-07T22:32:46Z</time></trkpt>
<trkpt lat="29.610944" lon="96.368528">
<time>2016-10-07T22:32:47Z</time></trkpt>
<trkpt lat="29.610864" lon="96.368388">
<time>2016-10-07T22:32:48Z</time></trkpt>
<trkpt lat="29.610775" lon="96.368238">
<time>2016-10-07T22:32:49Z</time></trkpt>
<trkpt lat="29.610665" lon="96.368028">
<time>2016-10-07T22:32:50Z</time></trkpt>
<trkpt lat="29.610625" lon="96.367948">
<time>2016-10-07T22:32:51Z</time></trkpt>
<trkpt lat="29.610585" lon="96.367848">
<time>2016-10-07T22:32:52Z</time></trkpt>
<trkpt lat="29.610555" lon="96.367759">
<time>2016-10-07T22:32:53Z</time></trkpt>
<trkpt lat="29.610535" lon="96.367669">
<time>2016-10-07T22:32:54Z</time></trkpt>
<trkpt lat="29.610526" lon="96.367559">
<time>2016-10-07T22:32:55Z</time></trkpt>
<trkpt lat="29.610536" lon="96.367449">
<time>2016-10-07T22:32:56Z</time></trkpt>
<trkpt lat="29.610546" lon="96.367349">
<time>2016-10-07T22:32:57Z</time></trkpt>
<trkpt lat="29.610586" lon="96.367209">
<time>2016-10-07T22:32:58Z</time></trkpt>
<trkpt lat="29.610737" lon="96.36666">
<time>2016-10-07T22:32:59Z</time></trkpt>
<trkpt lat="29.610907" lon="96.3661">
<time>2016-10-07T22:33:00Z</time></trkpt>
<trkpt lat="29.611058" lon="96.365601">
<time>2016-10-07T22:33:01Z</time></trkpt>
<trkpt lat="29.611088" lon="96.365531">
<time>2016-10-07T22:33:02Z</time></trkpt>
<trkpt lat="29.611108" lon="96.365451">
<time>2016-10-07T22:33:03Z</time></trkpt>
<trkpt lat="29.611158" lon="96.365381">
<time>2016-10-07T22:33:04Z</time></trkpt>
<trkpt lat="29.611198" lon="96.365331">
<time>2016-10-07T22:33:05Z</time></trkpt>
<trkpt lat="29.611309" lon="96.365221">
<time>2016-10-07T22:33:06Z</time></trkpt>
<trkpt lat="29.611459" lon="96.365091">
<time>2016-10-07T22:33:07Z</time></trkpt>
<trkpt lat="29.611659" lon="96.364971">
<time>2016-10-07T22:33:08Z</time></trkpt>
<trkpt lat="29.611939" lon="96.364782">
<time>2016-10-07T22:33:09Z</time></trkpt>
<trkpt lat="29.61326" lon="96.363892">
<time>2016-10-07T22:33:10Z</time></trkpt>
<trkpt lat="29.61379" lon="96.363523">
<time>2016-10-07T22:33:11Z</time></trkpt>
<trkpt lat="29.61394" lon="96.363393">
<time>2016-10-07T22:33:12Z</time></trkpt>
<trkpt lat="29.61402" lon="96.363313">
<time>2016-10-07T22:33:13Z</time></trkpt>
<trkpt lat="29.614091" lon="96.363223">
<time>2016-10-07T22:33:14Z</time></trkpt>
<trkpt lat="29.614171" lon="96.363103">
<time>2016-10-07T22:33:15Z</time></trkpt>
<trkpt lat="29.614231" lon="96.362983">
<time>2016-10-07T22:33:16Z</time></trkpt>
<trkpt lat="29.614331" lon="96.362794">
<time>2016-10-07T22:33:17Z</time></trkpt>
<trkpt lat="29.614431" lon="96.362534">
<time>2016-10-07T22:33:18Z</time></trkpt>
<trkpt lat="29.614502" lon="96.362324">
<time>2016-10-07T22:33:19Z</time></trkpt>
<trkpt lat="29.614562" lon="96.362055">
<time>2016-10-07T22:33:20Z</time></trkpt>
<trkpt lat="29.614633" lon="96.361605">
<time>2016-10-07T22:33:21Z</time></trkpt>
<trkpt lat="29.614733" lon="96.361106">
<time>2016-10-07T22:33:22Z</time></trkpt>
<trkpt lat="29.614784" lon="96.360966">
<time>2016-10-07T22:33:23Z</time></trkpt>
<trkpt lat="29.614844" lon="96.360816">
<time>2016-10-07T22:33:24Z</time></trkpt>
<trkpt lat="29.614954" lon="96.360656">
<time>2016-10-07T22:33:25Z</time></trkpt>
<trkpt lat="29.615435" lon="96.360027">
<time>2016-10-07T22:33:26Z</time></trkpt>
<trkpt lat="29.615665" lon="96.359637">
<time>2016-10-07T22:33:27Z</time></trkpt>
<trkpt lat="29.615846" lon="96.359308">
<time>2016-10-07T22:33:28Z</time></trkpt>
<trkpt lat="29.615946" lon="96.359098">
<time>2016-10-07T22:33:29Z</time></trkpt>
<trkpt lat="29.616056" lon="96.358848">
<time>2016-10-07T22:33:30Z</time></trkpt>
<trkpt lat="29.616237" lon="96.358419">
<time>2016-10-07T22:33:31Z</time></trkpt>
<trkpt lat="29.616488" lon="96.35784">
<time>2016-10-07T22:33:32Z</time></trkpt>
<trkpt lat="29.616909" lon="96.356821">
<time>2016-10-07T22:33:33Z</time></trkpt>
<trkpt lat="29.61701" lon="96.356521">
<time>2016-10-07T22:33:34Z</time></trkpt>
<trkpt lat="29.61705" lon="96.356361">
<time>2016-10-07T22:33:35Z</time></trkpt>
<trkpt lat="29.61708" lon="96.356192">
<time>2016-10-07T22:33:36Z</time></trkpt>
<trkpt lat="29.617101" lon="96.356052">
<time>2016-10-07T22:33:37Z</time></trkpt>
<trkpt lat="29.617121" lon="96.355862">
<time>2016-10-07T22:33:38Z</time></trkpt>
<trkpt lat="29.617131" lon="96.355622">
<time>2016-10-07T22:33:39Z</time></trkpt>
<trkpt lat="29.617112" lon="96.355413">
<time>2016-10-07T22:33:40Z</time></trkpt>
<trkpt lat="29.617062" lon="96.354853">
<time>2016-10-07T22:33:41Z</time></trkpt>
<trkpt lat="29.617023" lon="96.354244">
<time>2016-10-07T22:33:42Z</time></trkpt>
<trkpt lat="29.616994" lon="96.353925">
<time>2016-10-07T22:33:43Z</time></trkpt>
<trkpt lat="29.616954" lon="96.353655">
<time>2016-10-07T22:33:44Z</time></trkpt>
<trkpt lat="29.616895" lon="96.353365">
<time>2016-10-07T22:33:45Z</time></trkpt>
<trkpt lat="29.616835" lon="96.353116">
<time>2016-10-07T22:33:46Z</time></trkpt>
<trkpt lat="29.616726" lon="96.352666">
<time>2016-10-07T22:33:47Z</time></trkpt>
<trkpt lat="29.616707" lon="96.352397">
<time>2016-10-07T22:33:48Z</time></trkpt>
<trkpt lat="29.616707" lon="96.352267">
<time>2016-10-07T22:33:49Z</time></trkpt>
<trkpt lat="29.616707" lon="96.352127">
<time>2016-10-07T22:33:50Z</time></trkpt>
<trkpt lat="29.616707" lon="96.351977">
<time>2016-10-07T22:33:51Z</time></trkpt>
<trkpt lat="29.616728" lon="96.351818">
<time>2016-10-07T22:33:52Z</time></trkpt>
<trkpt lat="29.61696" lon="96.35025">
<time>2016-10-07T22:33:53Z</time></trkpt>
<trkpt lat="29.617173" lon="96.348852">
<time>2016-10-07T22:33:54Z</time></trkpt>
<trkpt lat="29.617405" lon="96.347394">
<time>2016-10-07T22:33:55Z</time></trkpt>
<trkpt lat="29.617648" lon="96.345716">
<time>2016-10-07T22:33:56Z</time></trkpt>
<trkpt lat="29.617678" lon="96.345457">
<time>2016-10-07T22:33:57Z</time></trkpt>
<trkpt lat="29.617699" lon="96.345247">
<time>2016-10-07T22:33:58Z</time></trkpt>
<trkpt lat="29.617689" lon="96.345047">
<time>2016-10-07T22:33:59Z</time></trkpt>
<trkpt lat="29.61767" lon="96.344838">
<time>2016-10-07T22:34:00Z</time></trkpt>
<trkpt lat="29.61765" lon="96.344698">
<time>2016-10-07T22:34:01Z</time></trkpt>
<trkpt lat="29.61762" lon="96.344518">
<time>2016-10-07T22:34:02Z</time></trkpt>
<trkpt lat="29.617491" lon="96.343939">
<time>2016-10-07T22:34:03Z</time></trkpt>
<trkpt lat="29.617352" lon="96.34338">
<time>2016-10-07T22:34:04Z</time></trkpt>
<trkpt lat="29.617035" lon="96.342072">
<time>2016-10-07T22:34:05Z</time></trkpt>
<trkpt lat="29.616767" lon="96.340964">
<time>2016-10-07T22:34:06Z</time></trkpt>
<trkpt lat="29.616658" lon="96.340495">
<time>2016-10-07T22:34:07Z</time></trkpt>
<trkpt lat="29.616588" lon="96.340185">
<time>2016-10-07T22:34:08Z</time></trkpt>
<trkpt lat="29.616559" lon="96.340015">
<time>2016-10-07T22:34:09Z</time></trkpt>
<trkpt lat="29.616539" lon="96.339786">
<time>2016-10-07T22:34:10Z</time></trkpt>
<trkpt lat="29.61649" lon="96.339087">
<time>2016-10-07T22:34:11Z</time></trkpt>
<trkpt lat="29.616452" lon="96.338348">
<time>2016-10-07T22:34:12Z</time></trkpt>
<trkpt lat="29.616452" lon="96.338278">
<time>2016-10-07T22:34:13Z</time></trkpt>
<trkpt lat="29.616462" lon="96.338198">
<time>2016-10-07T22:34:14Z</time></trkpt>
<trkpt lat="29.616472" lon="96.338128">
<time>2016-10-07T22:34:15Z</time></trkpt>
<trkpt lat="29.616492" lon="96.338068">
<time>2016-10-07T22:34:16Z</time></trkpt>
<trkpt lat="29.616512" lon="96.338028">
<time>2016-10-07T22:34:17Z</time></trkpt>
<trkpt lat="29.616532" lon="96.337988">
<time>2016-10-07T22:34:18Z</time></trkpt>
<trkpt lat="29.616562" lon="96.337959">
<time>2016-10-07T22:34:19Z</time></trkpt>
<trkpt lat="29.616603" lon="96.337929">
<time>2016-10-07T22:34:20Z</time></trkpt>
<trkpt lat="29.616643" lon="96.337909">
<time>2016-10-07T22:34:21Z</time></trkpt>
<trkpt lat="29.616693" lon="96.337889">
<time>2016-10-07T22:34:22Z</time></trkpt>
<trkpt lat="29.616733" lon="96.337879">
<time>2016-10-07T22:34:23Z</time></trkpt>
<trkpt lat="29.616793" lon="96.337869">
<time>2016-10-07T22:34:24Z</time></trkpt>
<trkpt lat="29.616903" lon="96.337889">
<time>2016-10-07T22:34:25Z</time></trkpt>
<trkpt lat="29.617132" lon="96.337939">
<time>2016-10-07T22:34:26Z</time></trkpt>
<trkpt lat="29.617342" lon="96.337988">
<time>2016-10-07T22:34:27Z</time></trkpt>
<trkpt lat="29.617412" lon="96.338008">
<time>2016-10-07T22:34:28Z</time></trkpt>
<trkpt lat="29.617462" lon="96.338018">
<time>2016-10-07T22:34:29Z</time></trkpt>
<trkpt lat="29.617502" lon="96.338008">
<time>2016-10-07T22:34:30Z</time></trkpt>
<trkpt lat="29.617522" lon="96.338008">
<time>2016-10-07T22:34:31Z</time></trkpt>
<trkpt lat="29.617552" lon="96.337998">
<time>2016-10-07T22:34:32Z</time></trkpt>
<trkpt lat="29.617572" lon="96.337988">
<time>2016-10-07T22:34:33Z</time></trkpt>
<trkpt lat="29.617592" lon="96.337959">
<time>2016-10-07T22:34:34Z</time></trkpt>
<trkpt lat="29.617622" lon="96.337939">
<time>2016-10-07T22:34:35Z</time></trkpt>
<trkpt lat="29.617632" lon="96.337909">
<time>2016-10-07T22:34:36Z</time></trkpt>
<trkpt lat="29.617642" lon="96.337879">
<time>2016-10-07T22:34:37Z</time></trkpt>
<trkpt lat="29.617642" lon="96.337839">
<time>2016-10-07T22:34:38Z</time></trkpt>
<trkpt lat="29.617642" lon="96.337799">
<time>2016-10-07T22:34:39Z</time></trkpt>
<trkpt lat="29.617623" lon="96.337759">
<time>2016-10-07T22:34:40Z</time></trkpt>
<trkpt lat="29.617593" lon="96.337719">
<time>2016-10-07T22:34:41Z</time></trkpt>
<trkpt lat="29.617573" lon="96.337699">
<time>2016-10-07T22:34:42Z</time></trkpt>
<trkpt lat="29.617543" lon="96.337669">
<time>2016-10-07T22:34:43Z</time></trkpt>
<trkpt lat="29.617513" lon="96.337649">
<time>2016-10-07T22:34:44Z</time></trkpt>
<trkpt lat="29.617483" lon="96.337629">
<time>2016-10-07T22:34:45Z</time></trkpt>
<trkpt lat="29.617433" lon="96.337609">
<time>2016-10-07T22:34:46Z</time></trkpt>
<trkpt lat="29.617363" lon="96.337589">
<time>2016-10-07T22:34:47Z</time></trkpt>
<trkpt lat="29.617263" lon="96.337559">
<time>2016-10-07T22:34:48Z</time></trkpt>
<trkpt lat="29.617173" lon="96.337529">
<time>2016-10-07T22:34:49Z</time></trkpt>
<trkpt lat="29.616823" lon="96.337419">
<time>2016-10-07T22:34:50Z</time></trkpt>
<trkpt lat="29.616424" lon="96.3373">
<time>2016-10-07T22:34:51Z</time></trkpt>
<trkpt lat="29.615645" lon="96.33702">
<time>2016-10-07T22:34:52Z</time></trkpt>
<trkpt lat="29.615565" lon="96.33699">
<time>2016-10-07T22:34:53Z</time></trkpt>
<trkpt lat="29.615465" lon="96.33692">
<time>2016-10-07T22:34:54Z</time></trkpt>
<trkpt lat="29.615385" lon="96.33684">
<time>2016-10-07T22:34:55Z</time></trkpt>
<trkpt lat="29.615305" lon="96.33676">
<time>2016-10-07T22:34:56Z</time></trkpt>
<trkpt lat="29.615175" lon="96.336601">
<time>2016-10-07T22:34:57Z</time></trkpt>
<trkpt lat="29.615036" lon="96.336391">
<time>2016-10-07T22:34:58Z</time></trkpt>
<trkpt lat="29.614986" lon="96.336291">
<time>2016-10-07T22:34:59Z</time></trkpt>
<trkpt lat="29.614946" lon="96.336181">
<time>2016-10-07T22:35:00Z</time></trkpt>
<trkpt lat="29.614926" lon="96.336092">
<time>2016-10-07T22:35:01Z</time></trkpt>
<trkpt lat="29.614917" lon="96.336012">
<time>2016-10-07T22:35:02Z</time></trkpt>
<trkpt lat="29.614917" lon="96.335932">
<time>2016-10-07T22:35:03Z</time></trkpt>
<trkpt lat="29.614917" lon="96.335842">
<time>2016-10-07T22:35:04Z</time></trkpt>
<trkpt lat="29.614927" lon="96.335792">
<time>2016-10-07T22:35:05Z</time></trkpt>
<trkpt lat="29.614947" lon="96.335732">
<time>2016-10-07T22:35:06Z</time></trkpt>
<trkpt lat="29.614957" lon="96.335682">
<time>2016-10-07T22:35:07Z</time></trkpt>
<trkpt lat="29.614987" lon="96.335622">
<time>2016-10-07T22:35:08Z</time></trkpt>
<trkpt lat="29.615068" lon="96.335413">
<time>2016-10-07T22:35:09Z</time></trkpt>
<trkpt lat="29.615148" lon="96.335233">
<time>2016-10-07T22:35:10Z</time></trkpt>
<trkpt lat="29.615188" lon="96.335143">
<time>2016-10-07T22:35:11Z</time></trkpt>
<trkpt lat="29.615218" lon="96.335083">
<time>2016-10-07T22:35:12Z</time></trkpt>
<trkpt lat="29.615268" lon="96.335013">
<time>2016-10-07T22:35:13Z</time></trkpt>
<trkpt lat="29.615339" lon="96.334923">
<time>2016-10-07T22:35:14Z</time></trkpt>
<trkpt lat="29.615419" lon="96.334854">
<time>2016-10-07T22:35:15Z</time></trkpt>
<trkpt lat="29.615489" lon="96.334814">
<time>2016-10-07T22:35:16Z</time></trkpt>
<trkpt lat="29.615539" lon="96.334784">
<time>2016-10-07T22:35:17Z</time></trkpt>
<trkpt lat="29.615599" lon="96.334764">
<time>2016-10-07T22:35:18Z</time></trkpt>
<trkpt lat="29.615859" lon="96.334684">
<time>2016-10-07T22:35:19Z</time></trkpt>
<trkpt lat="29.616049" lon="96.334614">
<time>2016-10-07T22:35:20Z</time></trkpt>
<trkpt lat="29.616109" lon="96.334584">
<time>2016-10-07T22:35:21Z</time></trkpt>
<trkpt lat="29.616149" lon="96.334554">
<time>2016-10-07T22:35:22Z</time></trkpt>
<trkpt lat="29.616199" lon="96.334514">
<time>2016-10-07T22:35:23Z</time></trkpt>
<trkpt lat="29.616229" lon="96.334484">
<time>2016-10-07T22:35:24Z</time></trkpt>
<trkpt lat="29.616249" lon="96.334444">
<time>2016-10-07T22:35:25Z</time></trkpt>
<trkpt lat="29.616279" lon="96.334374">
<time>2016-10-07T22:35:26Z</time></trkpt>
<trkpt lat="29.616299" lon="96.334294">
<time>2016-10-07T22:35:27Z</time></trkpt>
<trkpt lat="29.61631" lon="96.334225">
<time>2016-10-07T22:35:28Z</time></trkpt>
<trkpt lat="29.61631" lon="96.334145">
<time>2016-10-07T22:35:29Z</time></trkpt>
<trkpt lat="29.61627" lon="96.333955">
<time>2016-10-07T22:35:30Z</time></trkpt>
<trkpt lat="29.61625" lon="96.333845">
<time>2016-10-07T22:35:31Z</time></trkpt>
<trkpt lat="29.616241" lon="96.333745">
<time>2016-10-07T22:35:32Z</time></trkpt>
<trkpt lat="29.616241" lon="96.333635">
<time>2016-10-07T22:35:33Z</time></trkpt>
<trkpt lat="29.616251" lon="96.333436">
<time>2016-10-07T22:35:34Z</time></trkpt>
<trkpt lat="29.616282" lon="96.333196">
<time>2016-10-07T22:35:35Z</time></trkpt>
<trkpt lat="29.616332" lon="96.332907">
<time>2016-10-07T22:35:36Z</time></trkpt>
<trkpt lat="29.616373" lon="96.332617">
<time>2016-10-07T22:35:37Z</time></trkpt>
<trkpt lat="29.616383" lon="96.332427">
<time>2016-10-07T22:35:38Z</time></trkpt>
<trkpt lat="29.616394" lon="96.332108">
<time>2016-10-07T22:35:39Z</time></trkpt>
<trkpt lat="29.616394" lon="96.331818">
<time>2016-10-07T22:35:40Z</time></trkpt>
<trkpt lat="29.616405" lon="96.331549">
<time>2016-10-07T22:35:41Z</time></trkpt>
<trkpt lat="29.616395" lon="96.331229">
<time>2016-10-07T22:35:42Z</time></trkpt>
<trkpt lat="29.616406" lon="96.33096">
<time>2016-10-07T22:35:43Z</time></trkpt>
<trkpt lat="29.616406" lon="96.33089">
<time>2016-10-07T22:35:44Z</time></trkpt>
<trkpt lat="29.616426" lon="96.33082">
<time>2016-10-07T22:35:45Z</time></trkpt>
<trkpt lat="29.616446" lon="96.33075">
<time>2016-10-07T22:35:46Z</time></trkpt>
<trkpt lat="29.616466" lon="96.33068">
<time>2016-10-07T22:35:47Z</time></trkpt>
<trkpt lat="29.616486" lon="96.33064">
<time>2016-10-07T22:35:48Z</time></trkpt>
<trkpt lat="29.616517" lon="96.33058">
<time>2016-10-07T22:35:49Z</time></trkpt>
<trkpt lat="29.616547" lon="96.330541">
<time>2016-10-07T22:35:50Z</time></trkpt>
<trkpt lat="29.616587" lon="96.330491">
<time>2016-10-07T22:35:51Z</time></trkpt>
<trkpt lat="29.616697" lon="96.330381">
<time>2016-10-07T22:35:52Z</time></trkpt>
<trkpt lat="29.616847" lon="96.330241">
<time>2016-10-07T22:35:53Z</time></trkpt>
<trkpt lat="29.616947" lon="96.330131">
<time>2016-10-07T22:35:54Z</time></trkpt>
<trkpt lat="29.617027" lon="96.330031">
<time>2016-10-07T22:35:55Z</time></trkpt>
<trkpt lat="29.617098" lon="96.329941">
<time>2016-10-07T22:35:56Z</time></trkpt>
<trkpt lat="29.617148" lon="96.329852">
<time>2016-10-07T22:35:57Z</time></trkpt>
<trkpt lat="29.617218" lon="96.329662">
<time>2016-10-07T22:35:58Z</time></trkpt>
<trkpt lat="29.617258" lon="96.329512">
<time>2016-10-07T22:35:59Z</time></trkpt>
<trkpt lat="29.617269" lon="96.329402">
<time>2016-10-07T22:36:00Z</time></trkpt>
<trkpt lat="29.617269" lon="96.329303">
<time>2016-10-07T22:36:01Z</time></trkpt>
<trkpt lat="29.617269" lon="96.329173">
<time>2016-10-07T22:36:02Z</time></trkpt>
<trkpt lat="29.617259" lon="96.329043">
<time>2016-10-07T22:36:03Z</time></trkpt>
<trkpt lat="29.617151" lon="96.328254">
<time>2016-10-07T22:36:04Z</time></trkpt>
<trkpt lat="29.616973" lon="96.327126">
<time>2016-10-07T22:36:05Z</time></trkpt>
<trkpt lat="29.616953" lon="96.326926">
<time>2016-10-07T22:36:06Z</time></trkpt>
<trkpt lat="29.616934" lon="96.326777">
<time>2016-10-07T22:36:07Z</time></trkpt>
<trkpt lat="29.616934" lon="96.326647">
<time>2016-10-07T22:36:08Z</time></trkpt>
<trkpt lat="29.616944" lon="96.326587">
<time>2016-10-07T22:36:09Z</time></trkpt>
<trkpt lat="29.616954" lon="96.326517">
<time>2016-10-07T22:36:10Z</time></trkpt>
<trkpt lat="29.616964" lon="96.326467">
<time>2016-10-07T22:36:11Z</time></trkpt>
<trkpt lat="29.616984" lon="96.326427">
<time>2016-10-07T22:36:12Z</time></trkpt>
<trkpt lat="29.617014" lon="96.326337">
<time>2016-10-07T22:36:13Z</time></trkpt>
<trkpt lat="29.617055" lon="96.326267">
<time>2016-10-07T22:36:14Z</time></trkpt>
<trkpt lat="29.617125" lon="96.326178">
<time>2016-10-07T22:36:15Z</time></trkpt>
<trkpt lat="29.617225" lon="96.326078">
<time>2016-10-07T22:36:16Z</time></trkpt>
<trkpt lat="29.617335" lon="96.325968">
<time>2016-10-07T22:36:17Z</time></trkpt>
<trkpt lat="29.618907" lon="96.32482">
<time>2016-10-07T22:36:18Z</time></trkpt>
<trkpt lat="29.619107" lon="96.32466">
<time>2016-10-07T22:36:19Z</time></trkpt>
<trkpt lat="29.619297" lon="96.32447">
<time>2016-10-07T22:36:20Z</time></trkpt>
<trkpt lat="29.619498" lon="96.324221">
<time>2016-10-07T22:36:21Z</time></trkpt>
<trkpt lat="29.619618" lon="96.324041">
<time>2016-10-07T22:36:22Z</time></trkpt>
<trkpt lat="29.619759" lon="96.323821">
<time>2016-10-07T22:36:23Z</time></trkpt>
<trkpt lat="29.619869" lon="96.323632">
<time>2016-10-07T22:36:24Z</time></trkpt>
<trkpt lat="29.619979" lon="96.323432">
<time>2016-10-07T22:36:25Z</time></trkpt>
<trkpt lat="29.620029" lon="96.323302">
<time>2016-10-07T22:36:26Z</time></trkpt>
<trkpt lat="29.62007" lon="96.323152">
<time>2016-10-07T22:36:27Z</time></trkpt>
<trkpt lat="29.62009" lon="96.323013">
<time>2016-10-07T22:36:28Z</time></trkpt>
<trkpt lat="29.6201" lon="96.322883">
<time>2016-10-07T22:36:29Z</time></trkpt>
<trkpt lat="29.620101" lon="96.322663">
<time>2016-10-07T22:36:30Z</time></trkpt>
<trkpt lat="29.620084" lon="96.320916">
<time>2016-10-07T22:36:31Z</time></trkpt>
<trkpt lat="29.620074" lon="96.320786">
<time>2016-10-07T22:36:32Z</time></trkpt>
<trkpt lat="29.620074" lon="96.320726">
<time>2016-10-07T22:36:33Z</time></trkpt>
<trkpt lat="29.620054" lon="96.320656">
<time>2016-10-07T22:36:34Z</time></trkpt>
<trkpt lat="29.620025" lon="96.320567">
<time>2016-10-07T22:36:35Z</time></trkpt>
<trkpt lat="29.619975" lon="96.320457">
<time>2016-10-07T22:36:36Z</time></trkpt>
<trkpt lat="29.619925" lon="96.320357">
<time>2016-10-07T22:36:37Z</time></trkpt>
<trkpt lat="29.619756" lon="96.320077">
<time>2016-10-07T22:36:38Z</time></trkpt>
<trkpt lat="29.619626" lon="96.319858">
<time>2016-10-07T22:36:39Z</time></trkpt>
<trkpt lat="29.619517" lon="96.319608">
<time>2016-10-07T22:36:40Z</time></trkpt>
<trkpt lat="29.619407" lon="96.319319">
<time>2016-10-07T22:36:41Z</time></trkpt>
<trkpt lat="29.61888" lon="96.317881">
<time>2016-10-07T22:36:42Z</time></trkpt>
<trkpt lat="29.61882" lon="96.317691">
<time>2016-10-07T22:36:43Z</time></trkpt>
<trkpt lat="29.618761" lon="96.317511">
<time>2016-10-07T22:36:44Z</time></trkpt>
<trkpt lat="29.618731" lon="96.317352">
<time>2016-10-07T22:36:45Z</time></trkpt>
<trkpt lat="29.618701" lon="96.317222">
<time>2016-10-07T22:36:46Z</time></trkpt>
<trkpt lat="29.618632" lon="96.316793">
<time>2016-10-07T22:36:47Z</time></trkpt>
<trkpt lat="29.618395" lon="96.315355">
<time>2016-10-07T22:36:48Z</time></trkpt>
<trkpt lat="29.618257" lon="96.314506">
<time>2016-10-07T22:36:49Z</time></trkpt>
<trkpt lat="29.618217" lon="96.314187">
<time>2016-10-07T22:36:50Z</time></trkpt>
<trkpt lat="29.618188" lon="96.313807">
<time>2016-10-07T22:36:51Z</time></trkpt>
<trkpt lat="29.618178" lon="96.313468">
<time>2016-10-07T22:36:52Z</time></trkpt>
<trkpt lat="29.618199" lon="96.313088">
<time>2016-10-07T22:36:53Z</time></trkpt>
<trkpt lat="29.61823" lon="96.312749">
<time>2016-10-07T22:36:54Z</time></trkpt>
<trkpt lat="29.618311" lon="96.312309">
<time>2016-10-07T22:36:55Z</time></trkpt>
<trkpt lat="29.618462" lon="96.31168">
<time>2016-10-07T22:36:56Z</time></trkpt>
<trkpt lat="29.618683" lon="96.310942">
<time>2016-10-07T22:36:57Z</time></trkpt>
<trkpt lat="29.618834" lon="96.310402">
<time>2016-10-07T22:36:58Z</time></trkpt>
<trkpt lat="29.619016" lon="96.309294">
<time>2016-10-07T22:36:59Z</time></trkpt>
<trkpt lat="29.619076" lon="96.309004">
<time>2016-10-07T22:37:00Z</time></trkpt>
<trkpt lat="29.619117" lon="96.308795">
<time>2016-10-07T22:37:01Z</time></trkpt>
<trkpt lat="29.619187" lon="96.308535">
<time>2016-10-07T22:37:02Z</time></trkpt>
<trkpt lat="29.619267" lon="96.308305">
<time>2016-10-07T22:37:03Z</time></trkpt>
<trkpt lat="29.619338" lon="96.308126">
<time>2016-10-07T22:37:04Z</time></trkpt>
<trkpt lat="29.619549" lon="96.307666">
<time>2016-10-07T22:37:05Z</time></trkpt>
<trkpt lat="29.619699" lon="96.307347">
<time>2016-10-07T22:37:06Z</time></trkpt>
<trkpt lat="29.61983" lon="96.306987">
<time>2016-10-07T22:37:07Z</time></trkpt>
<trkpt lat="29.61991" lon="96.306748">
<time>2016-10-07T22:37:08Z</time></trkpt>
<trkpt lat="29.62" lon="96.306518">
<time>2016-10-07T22:37:09Z</time></trkpt>
<trkpt lat="29.620161" lon="96.306158">
<time>2016-10-07T22:37:10Z</time></trkpt>
<trkpt lat="29.620291" lon="96.305899">
<time>2016-10-07T22:37:11Z</time></trkpt>
<trkpt lat="29.620482" lon="96.305519">
<time>2016-10-07T22:37:12Z</time></trkpt>
<trkpt lat="29.620542" lon="96.305399">
<time>2016-10-07T22:37:13Z</time></trkpt>
<trkpt lat="29.620602" lon="96.30527">
<time>2016-10-07T22:37:14Z</time></trkpt>
<trkpt lat="29.620643" lon="96.30514">
<time>2016-10-07T22:37:15Z</time></trkpt>
<trkpt lat="29.620683" lon="96.30498">
<time>2016-10-07T22:37:16Z</time></trkpt>
<trkpt lat="29.620784" lon="96.304301">
<time>2016-10-07T22:37:17Z</time></trkpt>
<trkpt lat="29.620804" lon="96.304181">
<time>2016-10-07T22:37:18Z</time></trkpt>
<trkpt lat="29.620815" lon="96.304001">
<time>2016-10-07T22:37:19Z</time></trkpt>
<trkpt lat="29.620825" lon="96.303752">
<time>2016-10-07T22:37:20Z</time></trkpt>
<trkpt lat="29.620825" lon="96.303482">
<time>2016-10-07T22:37:21Z</time></trkpt>
<trkpt lat="29.620836" lon="96.303202">
<time>2016-10-07T22:37:22Z</time></trkpt>
<trkpt lat="29.620846" lon="96.303073">
<time>2016-10-07T22:37:23Z</time></trkpt>
<trkpt lat="29.620866" lon="96.302863">
<time>2016-10-07T22:37:24Z</time></trkpt>
<trkpt lat="29.620877" lon="96.302673">
<time>2016-10-07T22:37:25Z</time></trkpt>
<trkpt lat="29.620907" lon="96.302503">
<time>2016-10-07T22:37:26Z</time></trkpt>
<trkpt lat="29.620937" lon="96.302364">
<time>2016-10-07T22:37:27Z</time></trkpt>
<trkpt lat="29.620957" lon="96.302244">
<time>2016-10-07T22:37:28Z</time></trkpt>
<trkpt lat="29.620998" lon="96.302114">
<time>2016-10-07T22:37:29Z</time></trkpt>
<trkpt lat="29.621038" lon="96.301994">
<time>2016-10-07T22:37:30Z</time></trkpt>
<trkpt lat="29.621068" lon="96.301914">
<time>2016-10-07T22:37:31Z</time></trkpt>
<trkpt lat="29.621289" lon="96.301405">
<time>2016-10-07T22:37:32Z</time></trkpt>
<trkpt lat="29.621509" lon="96.300975">
<time>2016-10-07T22:37:33Z</time></trkpt>
<trkpt lat="29.62156" lon="96.300905">
<time>2016-10-07T22:37:34Z</time></trkpt>
<trkpt lat="29.62161" lon="96.300826">
<time>2016-10-07T22:37:35Z</time></trkpt>
<trkpt lat="29.62168" lon="96.300736">
<time>2016-10-07T22:37:36Z</time></trkpt>
<trkpt lat="29.62175" lon="96.300646">
<time>2016-10-07T22:37:37Z</time></trkpt>
<trkpt lat="29.62189" lon="96.300526">
<time>2016-10-07T22:37:38Z</time></trkpt>
<trkpt lat="29.62209" lon="96.300346">
<time>2016-10-07T22:37:39Z</time></trkpt>
<trkpt lat="29.622521" lon="96.299977">
<time>2016-10-07T22:37:40Z</time></trkpt>
<trkpt lat="29.622681" lon="96.299837">
<time>2016-10-07T22:37:41Z</time></trkpt>
<trkpt lat="29.622901" lon="96.299627">
<time>2016-10-07T22:37:42Z</time></trkpt>
<trkpt lat="29.623192" lon="96.299307">
<time>2016-10-07T22:37:43Z</time></trkpt>
<trkpt lat="29.623322" lon="96.299148">
<time>2016-10-07T22:37:44Z</time></trkpt>
<trkpt lat="29.623502" lon="96.298928">
<time>2016-10-07T22:37:45Z</time></trkpt>
<trkpt lat="29.623572" lon="96.298828">
<time>2016-10-07T22:37:46Z</time></trkpt>
<trkpt lat="29.623623" lon="96.298718">
<time>2016-10-07T22:37:47Z</time></trkpt>
<trkpt lat="29.623653" lon="96.298638">
<time>2016-10-07T22:37:48Z</time></trkpt>
<trkpt lat="29.623683" lon="96.298538">
<time>2016-10-07T22:37:49Z</time></trkpt>
<trkpt lat="29.623703" lon="96.298458">
<time>2016-10-07T22:37:50Z</time></trkpt>
<trkpt lat="29.623723" lon="96.298359">
<time>2016-10-07T22:37:51Z</time></trkpt>
<trkpt lat="29.623773" lon="96.298169">
<time>2016-10-07T22:37:52Z</time></trkpt>
<trkpt lat="29.623794" lon="96.298009">
<time>2016-10-07T22:37:53Z</time></trkpt>
<trkpt lat="29.623814" lon="96.297839">
<time>2016-10-07T22:37:54Z</time></trkpt>
<trkpt lat="29.623814" lon="96.297709">
<time>2016-10-07T22:37:55Z</time></trkpt>
<trkpt lat="29.623804" lon="96.29757">
<time>2016-10-07T22:37:56Z</time></trkpt>
<trkpt lat="29.623785" lon="96.29738">
<time>2016-10-07T22:37:57Z</time></trkpt>
<trkpt lat="29.623765" lon="96.29725">
<time>2016-10-07T22:37:58Z</time></trkpt>
<trkpt lat="29.623735" lon="96.29704">
<time>2016-10-07T22:37:59Z</time></trkpt>
<trkpt lat="29.623736" lon="96.29676">
<time>2016-10-07T22:38:00Z</time></trkpt>
<trkpt lat="29.623726" lon="96.296621">
<time>2016-10-07T22:38:01Z</time></trkpt>
<trkpt lat="29.623736" lon="96.296471">
<time>2016-10-07T22:38:02Z</time></trkpt>
<trkpt lat="29.623777" lon="96.296121">
<time>2016-10-07T22:38:03Z</time></trkpt>
<trkpt lat="29.623797" lon="96.295991">
<time>2016-10-07T22:38:04Z</time></trkpt>
<trkpt lat="29.623817" lon="96.295901">
<time>2016-10-07T22:38:05Z</time></trkpt>
<trkpt lat="29.623837" lon="96.295802">
<time>2016-10-07T22:38:06Z</time></trkpt>
<trkpt lat="29.623857" lon="96.295722">
<time>2016-10-07T22:38:07Z</time></trkpt>
<trkpt lat="29.623877" lon="96.295662">
<time>2016-10-07T22:38:08Z</time></trkpt>
<trkpt lat="29.623907" lon="96.295582">
<time>2016-10-07T22:38:09Z</time></trkpt>
<trkpt lat="29.623937" lon="96.295502">
<time>2016-10-07T22:38:10Z</time></trkpt>
<trkpt lat="29.624208" lon="96.294963">
<time>2016-10-07T22:38:11Z</time></trkpt>
<trkpt lat="29.624649" lon="96.294114">
<time>2016-10-07T22:38:12Z</time></trkpt>
<trkpt lat="29.6249" lon="96.293634">
<time>2016-10-07T22:38:13Z</time></trkpt>
<trkpt lat="29.625" lon="96.293444">
<time>2016-10-07T22:38:14Z</time></trkpt>
<trkpt lat="29.62512" lon="96.293254">
<time>2016-10-07T22:38:15Z</time></trkpt>
<trkpt lat="29.625311" lon="96.292995">
<time>2016-10-07T22:38:16Z</time></trkpt>
<trkpt lat="29.625501" lon="96.292745">
<time>2016-10-07T22:38:17Z</time></trkpt>
<trkpt lat="29.625782" lon="96.292385">
<time>2016-10-07T22:38:18Z</time></trkpt>
<trkpt lat="29.625992" lon="96.292116">
<time>2016-10-07T22:38:19Z</time></trkpt>
<trkpt lat="29.626062" lon="96.292006">
<time>2016-10-07T22:38:20Z</time></trkpt>
<trkpt lat="29.626132" lon="96.291886">
<time>2016-10-07T22:38:21Z</time></trkpt>
<trkpt lat="29.626242" lon="96.291716">
<time>2016-10-07T22:38:22Z</time></trkpt>
<trkpt lat="29.626653" lon="96.290977">
<time>2016-10-07T22:38:23Z</time></trkpt>
<trkpt lat="29.626984" lon="96.290337">
<time>2016-10-07T22:38:24Z</time></trkpt>
<trkpt lat="29.627175" lon="96.289978">
<time>2016-10-07T22:38:25Z</time></trkpt>
<trkpt lat="29.627245" lon="96.289838">
<time>2016-10-07T22:38:26Z</time></trkpt>
<trkpt lat="29.627335" lon="96.289638">
<time>2016-10-07T22:38:27Z</time></trkpt>
<trkpt lat="29.627425" lon="96.289438">
<time>2016-10-07T22:38:28Z</time></trkpt>
<trkpt lat="29.627526" lon="96.289149">
<time>2016-10-07T22:38:29Z</time></trkpt>
<trkpt lat="29.627937" lon="96.28814">
<time>2016-10-07T22:38:30Z</time></trkpt>
<trkpt lat="29.628067" lon="96.28782">
<time>2016-10-07T22:38:31Z</time></trkpt>
<trkpt lat="29.628218" lon="96.28742">
<time>2016-10-07T22:38:32Z</time></trkpt>
<trkpt lat="29.628258" lon="96.28729">
<time>2016-10-07T22:38:33Z</time></trkpt>
<trkpt lat="29.628308" lon="96.28712">
<time>2016-10-07T22:38:34Z</time></trkpt>
<trkpt lat="29.628539" lon="96.286071">
<time>2016-10-07T22:38:35Z</time></trkpt>
<trkpt lat="29.62866" lon="96.285572">
<time>2016-10-07T22:38:36Z</time></trkpt>
<trkpt lat="29.628781" lon="96.285212">
<time>2016-10-07T22:38:37Z</time></trkpt>
<trkpt lat="29.628871" lon="96.284962">
<time>2016-10-07T22:38:38Z</time></trkpt>
<trkpt lat="29.628911" lon="96.284862">
<time>2016-10-07T22:38:39Z</time></trkpt>
<trkpt lat="29.628941" lon="96.284732">
<time>2016-10-07T22:38:40Z</time></trkpt>
<trkpt lat="29.628961" lon="96.284642">
<time>2016-10-07T22:38:41Z</time></trkpt>
<trkpt lat="29.628971" lon="96.284563">
<time>2016-10-07T22:38:42Z</time></trkpt>
<trkpt lat="29.628981" lon="96.284473">
<time>2016-10-07T22:38:43Z</time></trkpt>
<trkpt lat="29.628992" lon="96.284353">
<time>2016-10-07T22:38:44Z</time></trkpt>
<trkpt lat="29.629044" lon="96.282484">
<time>2016-10-07T22:38:45Z</time></trkpt>
<trkpt lat="29.629096" lon="96.280725">
<time>2016-10-07T22:38:46Z</time></trkpt>
<trkpt lat="29.629127" lon="96.279476">
<time>2016-10-07T22:38:47Z</time></trkpt>
<trkpt lat="29.629148" lon="96.279126">
<time>2016-10-07T22:38:48Z</time></trkpt>
<trkpt lat="29.629168" lon="96.278936">
<time>2016-10-07T22:38:49Z</time></trkpt>
<trkpt lat="29.629188" lon="96.278787">
<time>2016-10-07T22:38:50Z</time></trkpt>
<trkpt lat="29.629238" lon="96.278517">
<time>2016-10-07T22:38:51Z</time></trkpt>
<trkpt lat="29.629298" lon="96.278277">
<time>2016-10-07T22:38:52Z</time></trkpt>
<trkpt lat="29.629559" lon="96.277267">
<time>2016-10-07T22:38:53Z</time></trkpt>
<trkpt lat="29.629921" lon="96.275778">
<time>2016-10-07T22:38:54Z</time></trkpt>
<trkpt lat="29.630011" lon="96.275378">
<time>2016-10-07T22:38:55Z</time></trkpt>
<trkpt lat="29.630111" lon="96.274979">
<time>2016-10-07T22:38:56Z</time></trkpt>
<trkpt lat="29.630292" lon="96.273929">
<time>2016-10-07T22:38:57Z</time></trkpt>
<trkpt lat="29.630323" lon="96.273749">
<time>2016-10-07T22:38:58Z</time></trkpt>
<trkpt lat="29.630373" lon="96.273539">
<time>2016-10-07T22:38:59Z</time></trkpt>
<trkpt lat="29.630413" lon="96.273369">
<time>2016-10-07T22:39:00Z</time></trkpt>
<trkpt lat="29.630473" lon="96.273159">
<time>2016-10-07T22:39:01Z</time></trkpt>
<trkpt lat="29.630663" lon="96.272599">
<time>2016-10-07T22:39:02Z</time></trkpt>
<trkpt lat="29.630724" lon="96.27243">
<time>2016-10-07T22:39:03Z</time></trkpt>
<trkpt lat="29.630754" lon="96.2723">
<time>2016-10-07T22:39:04Z</time></trkpt>
<trkpt lat="29.630774" lon="96.27219">
<time>2016-10-07T22:39:05Z</time></trkpt>
<trkpt lat="29.630794" lon="96.27209">
<time>2016-10-07T22:39:06Z</time></trkpt>
<trkpt lat="29.630814" lon="96.27192">
<time>2016-10-07T22:39:07Z</time></trkpt>
<trkpt lat="29.630824" lon="96.27174">
<time>2016-10-07T22:39:08Z</time></trkpt>
<trkpt lat="29.630834" lon="96.27144">
<time>2016-10-07T22:39:09Z</time></trkpt>
<trkpt lat="29.630825" lon="96.27127">
<time>2016-10-07T22:39:10Z</time></trkpt>
<trkpt lat="29.630815" lon="96.2711">
<time>2016-10-07T22:39:11Z</time></trkpt>
<trkpt lat="29.630805" lon="96.27102">
<time>2016-10-07T22:39:12Z</time></trkpt>
<trkpt lat="29.630785" lon="96.27091">
<time>2016-10-07T22:39:13Z</time></trkpt>
<trkpt lat="29.630755" lon="96.27082">
<time>2016-10-07T22:39:14Z</time></trkpt>
<trkpt lat="29.630735" lon="96.27075">
<time>2016-10-07T22:39:15Z</time></trkpt>
<trkpt lat="29.630715" lon="96.27069">
<time>2016-10-07T22:39:16Z</time></trkpt>
<trkpt lat="29.630685" lon="96.2706">
<time>2016-10-07T22:39:17Z</time></trkpt>
<trkpt lat="29.630635" lon="96.27051">
<time>2016-10-07T22:39:18Z</time></trkpt>
<trkpt lat="29.630585" lon="96.27041">
<time>2016-10-07T22:39:19Z</time></trkpt>
<trkpt lat="29.630515" lon="96.2703">
<time>2016-10-07T22:39:20Z</time></trkpt>
<trkpt lat="29.630435" lon="96.27019">
<time>2016-10-07T22:39:21Z</time></trkpt>
<trkpt lat="29.630396" lon="96.27014">
<time>2016-10-07T22:39:22Z</time></trkpt>
<trkpt lat="29.630306" lon="96.27004">
<time>2016-10-07T22:39:23Z</time></trkpt>
<trkpt lat="29.630096" lon="96.26983">
<time>2016-10-07T22:39:24Z</time></trkpt>
<trkpt lat="29.629436" lon="96.26922">
<time>2016-10-07T22:39:25Z</time></trkpt>
<trkpt lat="29.628378" lon="96.268181">
<time>2016-10-07T22:39:26Z</time></trkpt>
<trkpt lat="29.627658" lon="96.267471">
<time>2016-10-07T22:39:27Z</time></trkpt>
<trkpt lat="29.627578" lon="96.267381">
<time>2016-10-07T22:39:28Z</time></trkpt>
<trkpt lat="29.627548" lon="96.267341">
<time>2016-10-07T22:39:29Z</time></trkpt>
<trkpt lat="29.627528" lon="96.267301">
<time>2016-10-07T22:39:30Z</time></trkpt>
<trkpt lat="29.627488" lon="96.267251">
<time>2016-10-07T22:39:31Z</time></trkpt>
<trkpt lat="29.627468" lon="96.267201">
<time>2016-10-07T22:39:32Z</time></trkpt>
<trkpt lat="29.627429" lon="96.267081">
<time>2016-10-07T22:39:33Z</time></trkpt>
<trkpt lat="29.627339" lon="96.266791">
<time>2016-10-07T22:39:34Z</time></trkpt>
<trkpt lat="29.627319" lon="96.266731">
<time>2016-10-07T22:39:35Z</time></trkpt>
<trkpt lat="29.627299" lon="96.266651">
<time>2016-10-07T22:39:36Z</time></trkpt>
<trkpt lat="29.627259" lon="96.266511">
<time>2016-10-07T22:39:37Z</time></trkpt>
<trkpt lat="29.627219" lon="96.266331">
<time>2016-10-07T22:39:38Z</time></trkpt>
<trkpt lat="29.627179" lon="96.266161">
<time>2016-10-07T22:39:39Z</time></trkpt>
<trkpt lat="29.627169" lon="96.266031">
<time>2016-10-07T22:39:40Z</time></trkpt>
<trkpt lat="29.627169" lon="96.265861">
<time>2016-10-07T22:39:41Z</time></trkpt>
<trkpt lat="29.627189" lon="96.265701">
<time>2016-10-07T22:39:42Z</time></trkpt>
<trkpt lat="29.6273" lon="96.264891">
<time>2016-10-07T22:39:43Z</time></trkpt>
<trkpt lat="29.62741" lon="96.264131">
<time>2016-10-07T22:39:44Z</time></trkpt>
<trkpt lat="29.627531" lon="96.263301">
<time>2016-10-07T22:39:45Z</time></trkpt>
<trkpt lat="29.627661" lon="96.262451">
<time>2016-10-07T22:39:46Z</time></trkpt>
<trkpt lat="29.627761" lon="96.261761">
<time>2016-10-07T22:39:47Z</time></trkpt>
<trkpt lat="29.627812" lon="96.261531">
<time>2016-10-07T22:39:48Z</time></trkpt>
<trkpt lat="29.627882" lon="96.261251">
<time>2016-10-07T22:39:49Z</time></trkpt>
<trkpt lat="29.628032" lon="96.260751">
<time>2016-10-07T22:39:50Z</time></trkpt>
<trkpt lat="29.628292" lon="96.259941">
<time>2016-10-07T22:39:51Z</time></trkpt>
<trkpt lat="29.628402" lon="96.259641">
<time>2016-10-07T22:39:52Z</time></trkpt>
<trkpt lat="29.628532" lon="96.25932">
<time>2016-10-07T22:39:53Z</time></trkpt>
<trkpt lat="29.628943" lon="96.25841">
<time>2016-10-07T22:39:54Z</time></trkpt>
<trkpt lat="29.629403" lon="96.2574">
<time>2016-10-07T22:39:55Z</time></trkpt>
<trkpt lat="29.629593" lon="96.257">
<time>2016-10-07T22:39:56Z</time></trkpt>
<trkpt lat="29.629853" lon="96.25651">
<time>2016-10-07T22:39:57Z</time></trkpt>
<trkpt lat="29.630163" lon="96.255979">
<time>2016-10-07T22:39:58Z</time></trkpt>
<trkpt lat="29.630323" lon="96.255659">
<time>2016-10-07T22:39:59Z</time></trkpt>
<trkpt lat="29.630423" lon="96.255429">
<time>2016-10-07T22:40:00Z</time></trkpt>
<trkpt lat="29.630543" lon="96.255149">
<time>2016-10-07T22:40:01Z</time></trkpt>
<trkpt lat="29.630743" lon="96.254649">
<time>2016-10-07T22:40:02Z</time></trkpt>
<trkpt lat="29.630863" lon="96.254359">
<time>2016-10-07T22:40:03Z</time></trkpt>
<trkpt lat="29.630973" lon="96.254129">
<time>2016-10-07T22:40:04Z</time></trkpt>
<trkpt lat="29.631413" lon="96.253228">
<time>2016-10-07T22:40:05Z</time></trkpt>
<trkpt lat="29.631643" lon="96.252738">
<time>2016-10-07T22:40:06Z</time></trkpt>
<trkpt lat="29.632103" lon="96.251758">
<time>2016-10-07T22:40:07Z</time></trkpt>
<trkpt lat="29.632913" lon="96.250057">
<time>2016-10-07T22:40:08Z</time></trkpt>
<trkpt lat="29.633283" lon="96.249286">
<time>2016-10-07T22:40:09Z</time></trkpt>
<trkpt lat="29.633633" lon="96.248526">
<time>2016-10-07T22:40:10Z</time></trkpt>
<trkpt lat="29.633813" lon="96.248145">
<time>2016-10-07T22:40:11Z</time></trkpt>
<trkpt lat="29.634043" lon="96.247665">
<time>2016-10-07T22:40:12Z</time></trkpt>
<trkpt lat="29.634293" lon="96.247195">
<time>2016-10-07T22:40:13Z</time></trkpt>
<trkpt lat="29.634413" lon="96.247004">
<time>2016-10-07T22:40:14Z</time></trkpt>
<trkpt lat="29.634613" lon="96.246754">
<time>2016-10-07T22:40:15Z</time></trkpt>
<trkpt lat="29.634752" lon="96.246594">
<time>2016-10-07T22:40:16Z</time></trkpt>
<trkpt lat="29.635052" lon="96.246304">
<time>2016-10-07T22:40:17Z</time></trkpt>
<trkpt lat="29.635392" lon="96.246014">
<time>2016-10-07T22:40:18Z</time></trkpt>
<trkpt lat="29.635582" lon="96.245853">
<time>2016-10-07T22:40:19Z</time></trkpt>
<trkpt lat="29.635922" lon="96.245603">
<time>2016-10-07T22:40:20Z</time></trkpt>
<trkpt lat="29.636182" lon="96.245473">
<time>2016-10-07T22:40:21Z</time></trkpt>
<trkpt lat="29.636372" lon="96.245393">
<time>2016-10-07T22:40:22Z</time></trkpt>
<trkpt lat="29.636852" lon="96.245243">
<time>2016-10-07T22:40:23Z</time></trkpt>
<trkpt lat="29.637312" lon="96.245113">
<time>2016-10-07T22:40:24Z</time></trkpt>
<trkpt lat="29.637721" lon="96.245033">
<time>2016-10-07T22:40:25Z</time></trkpt>
<trkpt lat="29.637981" lon="96.245033">
<time>2016-10-07T22:40:26Z</time></trkpt>
<trkpt lat="29.638291" lon="96.245043">
<time>2016-10-07T22:40:27Z</time></trkpt>
<trkpt lat="29.639921" lon="96.245343">
<time>2016-10-07T22:40:28Z</time></trkpt>
<trkpt lat="29.640651" lon="96.245473">
<time>2016-10-07T22:40:29Z</time></trkpt>
<trkpt lat="29.641081" lon="96.245563">
<time>2016-10-07T22:40:30Z</time></trkpt>
<trkpt lat="29.641481" lon="96.245613">
<time>2016-10-07T22:40:31Z</time></trkpt>
<trkpt lat="29.641721" lon="96.245623">
<time>2016-10-07T22:40:32Z</time></trkpt>
<trkpt lat="29.64206" lon="96.245583">
<time>2016-10-07T22:40:33Z</time></trkpt>
<trkpt lat="29.64246" lon="96.245473">
<time>2016-10-07T22:40:34Z</time></trkpt>
<trkpt lat="29.6428" lon="96.245353">
<time>2016-10-07T22:40:35Z</time></trkpt>
<trkpt lat="29.64309" lon="96.245173">
<time>2016-10-07T22:40:36Z</time></trkpt>
<trkpt lat="29.64438" lon="96.244132">
<time>2016-10-07T22:40:37Z</time></trkpt>
<trkpt lat="29.646569" lon="96.24239">
<time>2016-10-07T22:40:38Z</time></trkpt>
<trkpt lat="29.647039" lon="96.24203">
<time>2016-10-07T22:40:39Z</time></trkpt>
<trkpt lat="29.647198" lon="96.24187">
<time>2016-10-07T22:40:40Z</time></trkpt>
<trkpt lat="29.647308" lon="96.24172">
<time>2016-10-07T22:40:41Z</time></trkpt>
<trkpt lat="29.647418" lon="96.241519">
<time>2016-10-07T22:40:42Z</time></trkpt>
<trkpt lat="29.647498" lon="96.241319">
<time>2016-10-07T22:40:43Z</time></trkpt>
<trkpt lat="29.647558" lon="96.241129">
<time>2016-10-07T22:40:44Z</time></trkpt>
<trkpt lat="29.647588" lon="96.240949">
<time>2016-10-07T22:40:45Z</time></trkpt>
<trkpt lat="29.647608" lon="96.240769">
<time>2016-10-07T22:40:46Z</time></trkpt>
<trkpt lat="29.647628" lon="96.240518">
<time>2016-10-07T22:40:47Z</time></trkpt>
<trkpt lat="29.647608" lon="96.240168">
<time>2016-10-07T22:40:48Z</time></trkpt>
<trkpt lat="29.647568" lon="96.239888">
<time>2016-10-07T22:40:49Z</time></trkpt>
<trkpt lat="29.647468" lon="96.239607">
<time>2016-10-07T22:40:50Z</time></trkpt>
<trkpt lat="29.647338" lon="96.239367">
<time>2016-10-07T22:40:51Z</time></trkpt>
<trkpt lat="29.646787" lon="96.238606">
<time>2016-10-07T22:40:52Z</time></trkpt>
<trkpt lat="29.646377" lon="96.238036">
<time>2016-10-07T22:40:53Z</time></trkpt>
<trkpt lat="29.646247" lon="96.237845">
<time>2016-10-07T22:40:54Z</time></trkpt>
<trkpt lat="29.646147" lon="96.237705">
<time>2016-10-07T22:40:55Z</time></trkpt>
<trkpt lat="29.646057" lon="96.237555">
<time>2016-10-07T22:40:56Z</time></trkpt>
<trkpt lat="29.646007" lon="96.237435">
<time>2016-10-07T22:40:57Z</time></trkpt>
<trkpt lat="29.645967" lon="96.237325">
<time>2016-10-07T22:40:58Z</time></trkpt>
<trkpt lat="29.645927" lon="96.237205">
<time>2016-10-07T22:40:59Z</time></trkpt>
<trkpt lat="29.645897" lon="96.237105">
<time>2016-10-07T22:41:00Z</time></trkpt>
<trkpt lat="29.645867" lon="96.236994">
<time>2016-10-07T22:41:01Z</time></trkpt>
<trkpt lat="29.645687" lon="96.236143">
<time>2016-10-07T22:41:02Z</time></trkpt>
<trkpt lat="29.645677" lon="96.236093">
<time>2016-10-07T22:41:03Z</time></trkpt>
<trkpt lat="29.645606" lon="96.235753">
<time>2016-10-07T22:41:04Z</time></trkpt>
<trkpt lat="29.645526" lon="96.235412">
<time>2016-10-07T22:41:05Z</time></trkpt>
<trkpt lat="29.645456" lon="96.235102">
<time>2016-10-07T22:41:06Z</time></trkpt>
<trkpt lat="29.645406" lon="96.234852">
<time>2016-10-07T22:41:07Z</time></trkpt>
<trkpt lat="29.645356" lon="96.234652">
<time>2016-10-07T22:41:08Z</time></trkpt>
<trkpt lat="29.645336" lon="96.234551">
<time>2016-10-07T22:41:09Z</time></trkpt>
<trkpt lat="29.645316" lon="96.234471">
<time>2016-10-07T22:41:10Z</time></trkpt>
<trkpt lat="29.645296" lon="96.234371">
<time>2016-10-07T22:41:11Z</time></trkpt>
<trkpt lat="29.645286" lon="96.234281">
<time>2016-10-07T22:41:12Z</time></trkpt>
<trkpt lat="29.645276" lon="96.234191">
<time>2016-10-07T22:41:13Z</time></trkpt>
<trkpt lat="29.645276" lon="96.234121">
<time>2016-10-07T22:41:14Z</time></trkpt>
<trkpt lat="29.645276" lon="96.234021">
<time>2016-10-07T22:41:15Z</time></trkpt>
<trkpt lat="29.645275" lon="96.233871">
<time>2016-10-07T22:41:16Z</time></trkpt>
<trkpt lat="29.645285" lon="96.2337">
<time>2016-10-07T22:41:17Z</time></trkpt>
<trkpt lat="29.645335" lon="96.233069">
<time>2016-10-07T22:41:18Z</time></trkpt>
<trkpt lat="29.645365" lon="96.232779">
<time>2016-10-07T22:41:19Z</time></trkpt>
<trkpt lat="29.645375" lon="96.232629">
<time>2016-10-07T22:41:20Z</time></trkpt>
<trkpt lat="29.645375" lon="96.232479">
<time>2016-10-07T22:41:21Z</time></trkpt>
<trkpt lat="29.645375" lon="96.232288">
<time>2016-10-07T22:41:22Z</time></trkpt>
<trkpt lat="29.645374" lon="96.232198">
<time>2016-10-07T22:41:23Z</time></trkpt>
<trkpt lat="29.645364" lon="96.232068">
<time>2016-10-07T22:41:24Z</time></trkpt>
<trkpt lat="29.645344" lon="96.231928">
<time>2016-10-07T22:41:25Z</time></trkpt>
<trkpt lat="29.645324" lon="96.231838">
<time>2016-10-07T22:41:26Z</time></trkpt>
<trkpt lat="29.645244" lon="96.231497">
<time>2016-10-07T22:41:27Z</time></trkpt>
<trkpt lat="29.645134" lon="96.231017">
<time>2016-10-07T22:41:28Z</time></trkpt>
<trkpt lat="29.645064" lon="96.230746">
<time>2016-10-07T22:41:29Z</time></trkpt>
<trkpt lat="29.644993" lon="96.230416">
<time>2016-10-07T22:41:30Z</time></trkpt>
<trkpt lat="29.644923" lon="96.230115">
<time>2016-10-07T22:41:31Z</time></trkpt>
<trkpt lat="29.644823" lon="96.229735">
<time>2016-10-07T22:41:32Z</time></trkpt>
<trkpt lat="29.644783" lon="96.229524">
<time>2016-10-07T22:41:33Z</time></trkpt>
<trkpt lat="29.644733" lon="96.229294">
<time>2016-10-07T22:41:34Z</time></trkpt>
<trkpt lat="29.644713" lon="96.229174">
<time>2016-10-07T22:41:35Z</time></trkpt>
<trkpt lat="29.644682" lon="96.228973">
<time>2016-10-07T22:41:36Z</time></trkpt>
<trkpt lat="29.644662" lon="96.228773">
<time>2016-10-07T22:41:37Z</time></trkpt>
<trkpt lat="29.644632" lon="96.228603">
<time>2016-10-07T22:41:38Z</time></trkpt>
<trkpt lat="29.644612" lon="96.228463">
<time>2016-10-07T22:41:39Z</time></trkpt>
<trkpt lat="29.644592" lon="96.228302">
<time>2016-10-07T22:41:40Z</time></trkpt>
<trkpt lat="29.644582" lon="96.228212">
<time>2016-10-07T22:41:41Z</time></trkpt>
<trkpt lat="29.644572" lon="96.228122">
<time>2016-10-07T22:41:42Z</time></trkpt>
<trkpt lat="29.644572" lon="96.228052">
<time>2016-10-07T22:41:43Z</time></trkpt>
<trkpt lat="29.644572" lon="96.227972">
<time>2016-10-07T22:41:44Z</time></trkpt>
<trkpt lat="29.644572" lon="96.227882">
<time>2016-10-07T22:41:45Z</time></trkpt>
<trkpt lat="29.644582" lon="96.227822">
<time>2016-10-07T22:41:46Z</time></trkpt>
<trkpt lat="29.644592" lon="96.227792">
<time>2016-10-07T22:41:47Z</time></trkpt>
<trkpt lat="29.644601" lon="96.227752">
<time>2016-10-07T22:41:48Z</time></trkpt>
<trkpt lat="29.644611" lon="96.227722">
<time>2016-10-07T22:41:49Z</time></trkpt>
<trkpt lat="29.644621" lon="96.227691">
<time>2016-10-07T22:41:50Z</time></trkpt>
<trkpt lat="29.644641" lon="96.227651">
<time>2016-10-07T22:41:51Z</time></trkpt>
<trkpt lat="29.644661" lon="96.227621">
<time>2016-10-07T22:41:52Z</time></trkpt>
<trkpt lat="29.644681" lon="96.227591">
<time>2016-10-07T22:41:53Z</time></trkpt>
<trkpt lat="29.644701" lon="96.227551">
<time>2016-10-07T22:41:54Z</time></trkpt>
<trkpt lat="29.644731" lon="96.227511">
<time>2016-10-07T22:41:55Z</time></trkpt>
<trkpt lat="29.644751" lon="96.227491">
<time>2016-10-07T22:41:56Z</time></trkpt>
<trkpt lat="29.644781" lon="96.227471">
<time>2016-10-07T22:41:57Z</time></trkpt>
<trkpt lat="29.644811" lon="96.227441">
<time>2016-10-07T22:41:58Z</time></trkpt>
<trkpt lat="29.644841" lon="96.227421">
<time>2016-10-07T22:41:59Z</time></trkpt>
<trkpt lat="29.644871" lon="96.227391">
<time>2016-10-07T22:42:00Z</time></trkpt>
<trkpt lat="29.644901" lon="96.227371">
<time>2016-10-07T22:42:01Z</time></trkpt>
<trkpt lat="29.644941" lon="96.227351">
<time>2016-10-07T22:42:02Z</time></trkpt>
<trkpt lat="29.644991" lon="96.227321">
<time>2016-10-07T22:42:03Z</time></trkpt>
<trkpt lat="29.645141" lon="96.227231">
<time>2016-10-07T22:42:04Z</time></trkpt>
<trkpt lat="29.645291" lon="96.227141">
<time>2016-10-07T22:42:05Z</time></trkpt>
<trkpt lat="29.645501" lon="96.22702">
<time>2016-10-07T22:42:06Z</time></trkpt>
<trkpt lat="29.645671" lon="96.22692">
<time>2016-10-07T22:42:07Z</time></trkpt>
<trkpt lat="29.64588" lon="96.2268">
<time>2016-10-07T22:42:08Z</time></trkpt>
<trkpt lat="29.64597" lon="96.22674">
<time>2016-10-07T22:42:09Z</time></trkpt>
<trkpt lat="29.64605" lon="96.2267">
<time>2016-10-07T22:42:10Z</time></trkpt>
<trkpt lat="29.64619" lon="96.22661">
<time>2016-10-07T22:42:11Z</time></trkpt>
<trkpt lat="29.64625" lon="96.22657">
<time>2016-10-07T22:42:12Z</time></trkpt>
<trkpt lat="29.6463" lon="96.22652">
<time>2016-10-07T22:42:13Z</time></trkpt>
<trkpt lat="29.64633" lon="96.2265">
<time>2016-10-07T22:42:14Z</time></trkpt>
<trkpt lat="29.64636" lon="96.226459">
<time>2016-10-07T22:42:15Z</time></trkpt>
<trkpt lat="29.6464" lon="96.226419">
<time>2016-10-07T22:42:16Z</time></trkpt>
<trkpt lat="29.64646" lon="96.226339">
<time>2016-10-07T22:42:17Z</time></trkpt>
<trkpt lat="29.64651" lon="96.226269">
<time>2016-10-07T22:42:18Z</time></trkpt>
<trkpt lat="29.64657" lon="96.226179">
<time>2016-10-07T22:42:19Z</time></trkpt>
<trkpt lat="29.6467" lon="96.225959">
<time>2016-10-07T22:42:20Z</time></trkpt>
<trkpt lat="29.646819" lon="96.225778">
<time>2016-10-07T22:42:21Z</time></trkpt>
<trkpt lat="29.646859" lon="96.225708">
<time>2016-10-07T22:42:22Z</time></trkpt>
<trkpt lat="29.646919" lon="96.225608">
<time>2016-10-07T22:42:23Z</time></trkpt>
<trkpt lat="29.647009" lon="96.225478">
<time>2016-10-07T22:42:24Z</time></trkpt>
<trkpt lat="29.647069" lon="96.225378">
<time>2016-10-07T22:42:25Z</time></trkpt>
<trkpt lat="29.647159" lon="96.225227">
<time>2016-10-07T22:42:26Z</time></trkpt>
<trkpt lat="29.647199" lon="96.225157">
<time>2016-10-07T22:42:27Z</time></trkpt>
<trkpt lat="29.647259" lon="96.225067">
<time>2016-10-07T22:42:28Z</time></trkpt>
<trkpt lat="29.647279" lon="96.225037">
<time>2016-10-07T22:42:29Z</time></trkpt>
<trkpt lat="29.647289" lon="96.225007">
<time>2016-10-07T22:42:30Z</time></trkpt>
<trkpt lat="29.647299" lon="96.224987">
<time>2016-10-07T22:42:31Z</time></trkpt>
<trkpt lat="29.647318" lon="96.224957">
<time>2016-10-07T22:42:32Z</time></trkpt>
<trkpt lat="29.647328" lon="96.224927">
<time>2016-10-07T22:42:33Z</time></trkpt>
<trkpt lat="29.647338" lon="96.224897">
<time>2016-10-07T22:42:34Z</time></trkpt>
<trkpt lat="29.647348" lon="96.224857">
<time>2016-10-07T22:42:35Z</time></trkpt>
<trkpt lat="29.647368" lon="96.224817">
<time>2016-10-07T22:42:36Z</time></trkpt>
<trkpt lat="29.647368" lon="96.224787">
<time>2016-10-07T22:42:37Z</time></trkpt>
<trkpt lat="29.647378" lon="96.224747">
<time>2016-10-07T22:42:38Z</time></trkpt>
<trkpt lat="29.647398" lon="96.224687">
<time>2016-10-07T22:42:39Z</time></trkpt>
<trkpt lat="29.647398" lon="96.224646">
<time>2016-10-07T22:42:40Z</time></trkpt>
<trkpt lat="29.647408" lon="96.224586">
<time>2016-10-07T22:42:41Z</time></trkpt>
<trkpt lat="29.647408" lon="96.224556">
<time>2016-10-07T22:42:42Z</time></trkpt>
<trkpt lat="29.647408" lon="96.224516">
<time>2016-10-07T22:42:43Z</time></trkpt>
<trkpt lat="29.647408" lon="96.224466">
<time>2016-10-07T22:42:44Z</time></trkpt>
<trkpt lat="29.647408" lon="96.224416">
<time>2016-10-07T22:42:45Z</time></trkpt>
<trkpt lat="29.647408" lon="96.224346">
<time>2016-10-07T22:42:46Z</time></trkpt>
<trkpt lat="29.647408" lon="96.224276">
<time>2016-10-07T22:42:47Z</time></trkpt>
<trkpt lat="29.647408" lon="96.224206">
<time>2016-10-07T22:42:48Z</time></trkpt>
<trkpt lat="29.647398" lon="96.224156">
<time>2016-10-07T22:42:49Z</time></trkpt>
<trkpt lat="29.647398" lon="96.224065">
<time>2016-10-07T22:42:50Z</time></trkpt>
<trkpt lat="29.647388" lon="96.223905">
<time>2016-10-07T22:42:51Z</time></trkpt>
<trkpt lat="29.647387" lon="96.223825">
<time>2016-10-07T22:42:52Z</time></trkpt>
<trkpt lat="29.647377" lon="96.223775">
<time>2016-10-07T22:42:53Z</time></trkpt>
<trkpt lat="29.647377" lon="96.223655">
<time>2016-10-07T22:42:54Z</time></trkpt>
<trkpt lat="29.647377" lon="96.223555">
<time>2016-10-07T22:42:55Z</time></trkpt>
<trkpt lat="29.647377" lon="96.223484">
<time>2016-10-07T22:42:56Z</time></trkpt>
<trkpt lat="29.647377" lon="96.223424">
<time>2016-10-07T22:42:57Z</time></trkpt>
<trkpt lat="29.647377" lon="96.223374">
<time>2016-10-07T22:42:58Z</time></trkpt>
<trkpt lat="29.647377" lon="96.223324">
<time>2016-10-07T22:42:59Z</time></trkpt>
<trkpt lat="29.647387" lon="96.223284">
<time>2016-10-07T22:43:00Z</time></trkpt>
<trkpt lat="29.647387" lon="96.223244">
<time>2016-10-07T22:43:01Z</time></trkpt>
<trkpt lat="29.647397" lon="96.223194">
<time>2016-10-07T22:43:02Z</time></trkpt>
<trkpt lat="29.647407" lon="96.223154">
<time>2016-10-07T22:43:03Z</time></trkpt>
<trkpt lat="29.647407" lon="96.223124">
<time>2016-10-07T22:43:04Z</time></trkpt>
<trkpt lat="29.647417" lon="96.223064">
<time>2016-10-07T22:43:05Z</time></trkpt>
<trkpt lat="29.647437" lon="96.222994">
<time>2016-10-07T22:43:06Z</time></trkpt>
<trkpt lat="29.647447" lon="96.222953">
<time>2016-10-07T22:43:07Z</time></trkpt>
<trkpt lat="29.647467" lon="96.222863">
<time>2016-10-07T22:43:08Z</time></trkpt>
<trkpt lat="29.647496" lon="96.222773">
<time>2016-10-07T22:43:09Z</time></trkpt>
<trkpt lat="29.647536" lon="96.222633">
<time>2016-10-07T22:43:10Z</time></trkpt>
<trkpt lat="29.647576" lon="96.222483">
<time>2016-10-07T22:43:11Z</time></trkpt>
<trkpt lat="29.647616" lon="96.222342">
<time>2016-10-07T22:43:12Z</time></trkpt>
<trkpt lat="29.647646" lon="96.222212">
<time>2016-10-07T22:43:13Z</time></trkpt>
<trkpt lat="29.647676" lon="96.222132">
<time>2016-10-07T22:43:14Z</time></trkpt>
<trkpt lat="29.647706" lon="96.222002">
<time>2016-10-07T22:43:15Z</time></trkpt>
<trkpt lat="29.647726" lon="96.221952">
<time>2016-10-07T22:43:16Z</time></trkpt>
<trkpt lat="29.647746" lon="96.221892">
<time>2016-10-07T22:43:17Z</time></trkpt>
<trkpt lat="29.647755" lon="96.221852">
<time>2016-10-07T22:43:18Z</time></trkpt>
<trkpt lat="29.647795" lon="96.221731">
<time>2016-10-07T22:43:19Z</time></trkpt>
<trkpt lat="29.647845" lon="96.221591">
<time>2016-10-07T22:43:20Z</time></trkpt>
<trkpt lat="29.647895" lon="96.221481">
<time>2016-10-07T22:43:21Z</time></trkpt>
<trkpt lat="29.647985" lon="96.22127">
<time>2016-10-07T22:43:22Z</time></trkpt>
<trkpt lat="29.648144" lon="96.22089">
<time>2016-10-07T22:43:23Z</time></trkpt>
<trkpt lat="29.648603" lon="96.219788">
<time>2016-10-07T22:43:24Z</time></trkpt>
<trkpt lat="29.648763" lon="96.219397">
<time>2016-10-07T22:43:25Z</time></trkpt>
<trkpt lat="29.648992" lon="96.218846">
<time>2016-10-07T22:43:26Z</time></trkpt>
<trkpt lat="29.649201" lon="96.218335">
<time>2016-10-07T22:43:27Z</time></trkpt>
<trkpt lat="29.649311" lon="96.218074">
<time>2016-10-07T22:43:28Z</time></trkpt>
<trkpt lat="29.649401" lon="96.217864">
<time>2016-10-07T22:43:29Z</time></trkpt>
<trkpt lat="29.64962" lon="96.217353">
<time>2016-10-07T22:43:30Z</time></trkpt>
<trkpt lat="29.64987" lon="96.216752">
<time>2016-10-07T22:43:31Z</time></trkpt>
<trkpt lat="29.650089" lon="96.216211">
<time>2016-10-07T22:43:32Z</time></trkpt>
<trkpt lat="29.650288" lon="96.21574">
<time>2016-10-07T22:43:33Z</time></trkpt>
<trkpt lat="29.650458" lon="96.215339">
<time>2016-10-07T22:43:34Z</time></trkpt>
<trkpt lat="29.650637" lon="96.214908">
<time>2016-10-07T22:43:35Z</time></trkpt>
<trkpt lat="29.650807" lon="96.214497">
<time>2016-10-07T22:43:36Z</time></trkpt>
<trkpt lat="29.650996" lon="96.214056">
<time>2016-10-07T22:43:37Z</time></trkpt>
<trkpt lat="29.651175" lon="96.213615">
<time>2016-10-07T22:43:38Z</time></trkpt>
<trkpt lat="29.651245" lon="96.213455">
<time>2016-10-07T22:43:39Z</time></trkpt>
<trkpt lat="29.651285" lon="96.213345">
<time>2016-10-07T22:43:40Z</time></trkpt>
<trkpt lat="29.651335" lon="96.213234">
<time>2016-10-07T22:43:41Z</time></trkpt>
<trkpt lat="29.651395" lon="96.213104">
<time>2016-10-07T22:43:42Z</time></trkpt>
<trkpt lat="29.651465" lon="96.212974">
<time>2016-10-07T22:43:43Z</time></trkpt>
<trkpt lat="29.651495" lon="96.212934">
<time>2016-10-07T22:43:44Z</time></trkpt>
<trkpt lat="29.651554" lon="96.212854">
<time>2016-10-07T22:43:45Z</time></trkpt>
<trkpt lat="29.651644" lon="96.212733">
<time>2016-10-07T22:43:46Z</time></trkpt>
<trkpt lat="29.651724" lon="96.212633">
<time>2016-10-07T22:43:47Z</time></trkpt>
<trkpt lat="29.651774" lon="96.212583">
<time>2016-10-07T22:43:48Z</time></trkpt>
<trkpt lat="29.651934" lon="96.212393">
<time>2016-10-07T22:43:49Z</time></trkpt>
<trkpt lat="29.652094" lon="96.212212">
<time>2016-10-07T22:43:50Z</time></trkpt>
<trkpt lat="29.652293" lon="96.211992">
<time>2016-10-07T22:43:51Z</time></trkpt>
<trkpt lat="29.652483" lon="96.211761">
<time>2016-10-07T22:43:52Z</time></trkpt>
<trkpt lat="29.652702" lon="96.211501">
<time>2016-10-07T22:43:53Z</time></trkpt>
<trkpt lat="29.652802" lon="96.21139">
<time>2016-10-07T22:43:54Z</time></trkpt>
<trkpt lat="29.653052" lon="96.2111">
<time>2016-10-07T22:43:55Z</time></trkpt>
<trkpt lat="29.653321" lon="96.210779">
<time>2016-10-07T22:43:56Z</time></trkpt>
<trkpt lat="29.653431" lon="96.210639">
<time>2016-10-07T22:43:57Z</time></trkpt>
<trkpt lat="29.653561" lon="96.210468">
<time>2016-10-07T22:43:58Z</time></trkpt>
<trkpt lat="29.65378" lon="96.210158">
<time>2016-10-07T22:43:59Z</time></trkpt>
<trkpt lat="29.65396" lon="96.209897">
<time>2016-10-07T22:44:00Z</time></trkpt>
<trkpt lat="29.654269" lon="96.209476">
<time>2016-10-07T22:44:01Z</time></trkpt>
<trkpt lat="29.654509" lon="96.209135">
<time>2016-10-07T22:44:02Z</time></trkpt>
<trkpt lat="29.654698" lon="96.208865">
<time>2016-10-07T22:44:03Z</time></trkpt>
<trkpt lat="29.654798" lon="96.208725">
<time>2016-10-07T22:44:04Z</time></trkpt>
<trkpt lat="29.654908" lon="96.208584">
<time>2016-10-07T22:44:05Z</time></trkpt>
<trkpt lat="29.655048" lon="96.208414">
<time>2016-10-07T22:44:06Z</time></trkpt>
<trkpt lat="29.655267" lon="96.208183">
<time>2016-10-07T22:44:07Z</time></trkpt>
<trkpt lat="29.655337" lon="96.208113">
<time>2016-10-07T22:44:08Z</time></trkpt>
<trkpt lat="29.655417" lon="96.208043">
<time>2016-10-07T22:44:09Z</time></trkpt>
<trkpt lat="29.655487" lon="96.207993">
<time>2016-10-07T22:44:10Z</time></trkpt>
<trkpt lat="29.655557" lon="96.207943">
<time>2016-10-07T22:44:11Z</time></trkpt>
<trkpt lat="29.655597" lon="96.207913">
<time>2016-10-07T22:44:12Z</time></trkpt>
<trkpt lat="29.655657" lon="96.207883">
<time>2016-10-07T22:44:13Z</time></trkpt>
<trkpt lat="29.655747" lon="96.207842">
<time>2016-10-07T22:44:14Z</time></trkpt>
<trkpt lat="29.655807" lon="96.207812">
<time>2016-10-07T22:44:15Z</time></trkpt>
<trkpt lat="29.655877" lon="96.207792">
<time>2016-10-07T22:44:16Z</time></trkpt>
<trkpt lat="29.655967" lon="96.207772">
<time>2016-10-07T22:44:17Z</time></trkpt>
<trkpt lat="29.656037" lon="96.207752">
<time>2016-10-07T22:44:18Z</time></trkpt>
<trkpt lat="29.656117" lon="96.207742">
<time>2016-10-07T22:44:19Z</time></trkpt>
<trkpt lat="29.656237" lon="96.207722">
<time>2016-10-07T22:44:20Z</time></trkpt>
<trkpt lat="29.656366" lon="96.207712">
<time>2016-10-07T22:44:21Z</time></trkpt>
<trkpt lat="29.656446" lon="96.207712">
<time>2016-10-07T22:44:22Z</time></trkpt>
<trkpt lat="29.656556" lon="96.207712">
<time>2016-10-07T22:44:23Z</time></trkpt>
<trkpt lat="29.656646" lon="96.207712">
<time>2016-10-07T22:44:24Z</time></trkpt>
<trkpt lat="29.656726" lon="96.207732">
<time>2016-10-07T22:44:25Z</time></trkpt>
<trkpt lat="29.656846" lon="96.207752">
<time>2016-10-07T22:44:26Z</time></trkpt>
<trkpt lat="29.656956" lon="96.207772">
<time>2016-10-07T22:44:27Z</time></trkpt>
<trkpt lat="29.657276" lon="96.207863">
<time>2016-10-07T22:44:28Z</time></trkpt>
<trkpt lat="29.657667" lon="96.207963">
<time>2016-10-07T22:44:29Z</time></trkpt>
<trkpt lat="29.658157" lon="96.208093">
<time>2016-10-07T22:44:30Z</time></trkpt>
<trkpt lat="29.658897" lon="96.208293">
<time>2016-10-07T22:44:31Z</time></trkpt>
<trkpt lat="29.659647" lon="96.208484">
<time>2016-10-07T22:44:32Z</time></trkpt>
<trkpt lat="29.660447" lon="96.208694">
<time>2016-10-07T22:44:33Z</time></trkpt>
<trkpt lat="29.660927" lon="96.208825">
<time>2016-10-07T22:44:34Z</time></trkpt>
<trkpt lat="29.661407" lon="96.208945">
<time>2016-10-07T22:44:35Z</time></trkpt>
<trkpt lat="29.661787" lon="96.209045">
<time>2016-10-07T22:44:36Z</time></trkpt>
<trkpt lat="29.662187" lon="96.209155">
<time>2016-10-07T22:44:37Z</time></trkpt>
<trkpt lat="29.662587" lon="96.209256">
<time>2016-10-07T22:44:38Z</time></trkpt>
<trkpt lat="29.662817" lon="96.209316">
<time>2016-10-07T22:44:39Z</time></trkpt>
<trkpt lat="29.663057" lon="96.209376">
<time>2016-10-07T22:44:40Z</time></trkpt>
<trkpt lat="29.663177" lon="96.209416">
<time>2016-10-07T22:44:41Z</time></trkpt>
<trkpt lat="29.663587" lon="96.209516">
<time>2016-10-07T22:44:42Z</time></trkpt>
<trkpt lat="29.664137" lon="96.209666">
<time>2016-10-07T22:44:43Z</time></trkpt>
<trkpt lat="29.664397" lon="96.209737">
<time>2016-10-07T22:44:44Z</time></trkpt>
<trkpt lat="29.664627" lon="96.209787">
<time>2016-10-07T22:44:45Z</time></trkpt>
<trkpt lat="29.664967" lon="96.209877">
<time>2016-10-07T22:44:46Z</time></trkpt>
<trkpt lat="29.665678" lon="96.210067">
<time>2016-10-07T22:44:47Z</time></trkpt>
<trkpt lat="29.666148" lon="96.210188">
<time>2016-10-07T22:44:48Z</time></trkpt>
<trkpt lat="29.666718" lon="96.210338">
<time>2016-10-07T22:44:49Z</time></trkpt>
<trkpt lat="29.666768" lon="96.210348">
<time>2016-10-07T22:44:50Z</time></trkpt>
<trkpt lat="29.666858" lon="96.210378">
<time>2016-10-07T22:44:51Z</time></trkpt>
<trkpt lat="29.666968" lon="96.210398">
<time>2016-10-07T22:44:52Z</time></trkpt>
<trkpt lat="29.667058" lon="96.210428">
<time>2016-10-07T22:44:53Z</time></trkpt>
<trkpt lat="29.667158" lon="96.210448">
<time>2016-10-07T22:44:54Z</time></trkpt>
<trkpt lat="29.667238" lon="96.210468">
<time>2016-10-07T22:44:55Z</time></trkpt>
<trkpt lat="29.667358" lon="96.210498">
<time>2016-10-07T22:44:56Z</time></trkpt>
<trkpt lat="29.667438" lon="96.210518">
<time>2016-10-07T22:44:57Z</time></trkpt>
<trkpt lat="29.667538" lon="96.210538">
<time>2016-10-07T22:44:58Z</time></trkpt>
<trkpt lat="29.667598" lon="96.210548">
<time>2016-10-07T22:44:59Z</time></trkpt>
<trkpt lat="29.667648" lon="96.210558">
<time>2016-10-07T22:45:00Z</time></trkpt>
<trkpt lat="29.667698" lon="96.210558">
<time>2016-10-07T22:45:01Z</time></trkpt>
<trkpt lat="29.667738" lon="96.210568">
<time>2016-10-07T22:45:02Z</time></trkpt>
<trkpt lat="29.667798" lon="96.210568">
<time>2016-10-07T22:45:03Z</time></trkpt>
<trkpt lat="29.667888" lon="96.210568">
<time>2016-10-07T22:45:04Z</time></trkpt>
<trkpt lat="29.668078" lon="96.210548">
<time>2016-10-07T22:45:05Z</time></trkpt>
<trkpt lat="29.668138" lon="96.210548">
<time>2016-10-07T22:45:06Z</time></trkpt>
<trkpt lat="29.668208" lon="96.210538">
<time>2016-10-07T22:45:07Z</time></trkpt>
<trkpt lat="29.668278" lon="96.210528">
<time>2016-10-07T22:45:08Z</time></trkpt>
<trkpt lat="29.668677" lon="96.210468">
<time>2016-10-07T22:45:09Z</time></trkpt>
<trkpt lat="29.668917" lon="96.210418">
<time>2016-10-07T22:45:10Z</time></trkpt>
<trkpt lat="29.669077" lon="96.210388">
<time>2016-10-07T22:45:11Z</time></trkpt>
<trkpt lat="29.669287" lon="96.210358">
<time>2016-10-07T22:45:12Z</time></trkpt>
<trkpt lat="29.669357" lon="96.210338">
<time>2016-10-07T22:45:13Z</time></trkpt>
<trkpt lat="29.669407" lon="96.210328">
<time>2016-10-07T22:45:14Z</time></trkpt>
<trkpt lat="29.669527" lon="96.210318">
<time>2016-10-07T22:45:15Z</time></trkpt>
<trkpt lat="29.669597" lon="96.210308">
<time>2016-10-07T22:45:16Z</time></trkpt>
<trkpt lat="29.669687" lon="96.210298">
<time>2016-10-07T22:45:17Z</time></trkpt>
<trkpt lat="29.669797" lon="96.210278">
<time>2016-10-07T22:45:18Z</time></trkpt>
<trkpt lat="29.669897" lon="96.210268">
<time>2016-10-07T22:45:19Z</time></trkpt>
<trkpt lat="29.669977" lon="96.210248">
<time>2016-10-07T22:45:20Z</time></trkpt>
<trkpt lat="29.670067" lon="96.210238">
<time>2016-10-07T22:45:21Z</time></trkpt>
<trkpt lat="29.670177" lon="96.210218">
<time>2016-10-07T22:45:22Z</time></trkpt>
<trkpt lat="29.670527" lon="96.210157">
<time>2016-10-07T22:45:23Z</time></trkpt>
<trkpt lat="29.670787" lon="96.210117">
<time>2016-10-07T22:45:24Z</time></trkpt>
<trkpt lat="29.671076" lon="96.210067">
<time>2016-10-07T22:45:25Z</time></trkpt>
<trkpt lat="29.671316" lon="96.210027">
<time>2016-10-07T22:45:26Z</time></trkpt>
<trkpt lat="29.671376" lon="96.210017">
<time>2016-10-07T22:45:27Z</time></trkpt>
<trkpt lat="29.671426" lon="96.210007">
<time>2016-10-07T22:45:28Z</time></trkpt>
<trkpt lat="29.671476" lon="96.209997">
<time>2016-10-07T22:45:29Z</time></trkpt>
<trkpt lat="29.671506" lon="96.209987">
<time>2016-10-07T22:45:30Z</time></trkpt>
<trkpt lat="29.671556" lon="96.209967">
<time>2016-10-07T22:45:31Z</time></trkpt>
<trkpt lat="29.671596" lon="96.209947">
<time>2016-10-07T22:45:32Z</time></trkpt>
<trkpt lat="29.671646" lon="96.209937">
<time>2016-10-07T22:45:33Z</time></trkpt>
<trkpt lat="29.671686" lon="96.209917">
<time>2016-10-07T22:45:34Z</time></trkpt>
<trkpt lat="29.671726" lon="96.209897">
<time>2016-10-07T22:45:35Z</time></trkpt>
<trkpt lat="29.671776" lon="96.209867">
<time>2016-10-07T22:45:36Z</time></trkpt>
<trkpt lat="29.671836" lon="96.209837">
<time>2016-10-07T22:45:37Z</time></trkpt>
<trkpt lat="29.671956" lon="96.209767">
<time>2016-10-07T22:45:38Z</time></trkpt>
<trkpt lat="29.672086" lon="96.209686">
<time>2016-10-07T22:45:39Z</time></trkpt>
<trkpt lat="29.672275" lon="96.209556">
<time>2016-10-07T22:45:40Z</time></trkpt>
<trkpt lat="29.672475" lon="96.209426">
<time>2016-10-07T22:45:41Z</time></trkpt>
<trkpt lat="29.672715" lon="96.209265">
<time>2016-10-07T22:45:42Z</time></trkpt>
<trkpt lat="29.672975" lon="96.209095">
<time>2016-10-07T22:45:43Z</time></trkpt>
<trkpt lat="29.673184" lon="96.208955">
<time>2016-10-07T22:45:44Z</time></trkpt>
<trkpt lat="29.673334" lon="96.208854">
<time>2016-10-07T22:45:45Z</time></trkpt>
<trkpt lat="29.673534" lon="96.208724">
<time>2016-10-07T22:45:46Z</time></trkpt>
<trkpt lat="29.673764" lon="96.208574">
<time>2016-10-07T22:45:47Z</time></trkpt>
<trkpt lat="29.674024" lon="96.208403">
<time>2016-10-07T22:45:48Z</time></trkpt>
<trkpt lat="29.674173" lon="96.208303">
<time>2016-10-07T22:45:49Z</time></trkpt>
<trkpt lat="29.674283" lon="96.208233">
<time>2016-10-07T22:45:50Z</time></trkpt>
<trkpt lat="29.674413" lon="96.208153">
<time>2016-10-07T22:45:51Z</time></trkpt>
<trkpt lat="29.674533" lon="96.208073">
<time>2016-10-07T22:45:52Z</time></trkpt>
<trkpt lat="29.674623" lon="96.208003">
<time>2016-10-07T22:45:53Z</time></trkpt>
<trkpt lat="29.674683" lon="96.207962">
<time>2016-10-07T22:45:54Z</time></trkpt>
<trkpt lat="29.674733" lon="96.207932">
<time>2016-10-07T22:45:55Z</time></trkpt>
<trkpt lat="29.674803" lon="96.207892">
<time>2016-10-07T22:45:56Z</time></trkpt>
<trkpt lat="29.674893" lon="96.207832">
<time>2016-10-07T22:45:57Z</time></trkpt>
<trkpt lat="29.674972" lon="96.207782">
<time>2016-10-07T22:45:58Z</time></trkpt>
<trkpt lat="29.675032" lon="96.207732">
<time>2016-10-07T22:45:59Z</time></trkpt>
<trkpt lat="29.675142" lon="96.207672">
<time>2016-10-07T22:46:00Z</time></trkpt>
<trkpt lat="29.675362" lon="96.207521">
<time>2016-10-07T22:46:01Z</time></trkpt>
<trkpt lat="29.675452" lon="96.207461">
<time>2016-10-07T22:46:02Z</time></trkpt>
<trkpt lat="29.675532" lon="96.207401">
<time>2016-10-07T22:46:03Z</time></trkpt>
<trkpt lat="29.675672" lon="96.207311">
<time>2016-10-07T22:46:04Z</time></trkpt>
<trkpt lat="29.676011" lon="96.20709">
<time>2016-10-07T22:46:05Z</time></trkpt>
<trkpt lat="29.676211" lon="96.20696">
<time>2016-10-07T22:46:06Z</time></trkpt>
<trkpt lat="29.67683" lon="96.206559">
<time>2016-10-07T22:46:07Z</time></trkpt>
<trkpt lat="29.67687" lon="96.206529">
<time>2016-10-07T22:46:08Z</time></trkpt>
<trkpt lat="29.67692" lon="96.206499">
<time>2016-10-07T22:46:09Z</time></trkpt>
<trkpt lat="29.67699" lon="96.206459">
<time>2016-10-07T22:46:10Z</time></trkpt>
<trkpt lat="29.67708" lon="96.206419">
<time>2016-10-07T22:46:11Z</time></trkpt>
<trkpt lat="29.67719" lon="96.206369">
<time>2016-10-07T22:46:12Z</time></trkpt>
<trkpt lat="29.67729" lon="96.206319">
<time>2016-10-07T22:46:13Z</time></trkpt>
<trkpt lat="29.67739" lon="96.206278">
<time>2016-10-07T22:46:14Z</time></trkpt>
<trkpt lat="29.67748" lon="96.206248">
<time>2016-10-07T22:46:15Z</time></trkpt>
<trkpt lat="29.67754" lon="96.206228">
<time>2016-10-07T22:46:16Z</time></trkpt>
<trkpt lat="29.6776" lon="96.206208">
<time>2016-10-07T22:46:17Z</time></trkpt>
<trkpt lat="29.67772" lon="96.206178">
<time>2016-10-07T22:46:18Z</time></trkpt>
<trkpt lat="29.67781" lon="96.206148">
<time>2016-10-07T22:46:19Z</time></trkpt>
<trkpt lat="29.677889" lon="96.206118">
<time>2016-10-07T22:46:20Z</time></trkpt>
<trkpt lat="29.677979" lon="96.206098">
<time>2016-10-07T22:46:21Z</time></trkpt>
<trkpt lat="29.678109" lon="96.206058">
<time>2016-10-07T22:46:22Z</time></trkpt>
<trkpt lat="29.678189" lon="96.206038">
<time>2016-10-07T22:46:23Z</time></trkpt>
<trkpt lat="29.678259" lon="96.206018">
<time>2016-10-07T22:46:24Z</time></trkpt>
<trkpt lat="29.678359" lon="96.205988">
<time>2016-10-07T22:46:25Z</time></trkpt>
<trkpt lat="29.678409" lon="96.205968">
<time>2016-10-07T22:46:26Z</time></trkpt>
<trkpt lat="29.678479" lon="96.205948">
<time>2016-10-07T22:46:27Z</time></trkpt>
<trkpt lat="29.678579" lon="96.205928">
<time>2016-10-07T22:46:28Z</time></trkpt>
<trkpt lat="29.678659" lon="96.205918">
<time>2016-10-07T22:46:29Z</time></trkpt>
<trkpt lat="29.678739" lon="96.205918">
<time>2016-10-07T22:46:30Z</time></trkpt>
<trkpt lat="29.678829" lon="96.205918">
<time>2016-10-07T22:46:31Z</time></trkpt>
<trkpt lat="29.678899" lon="96.205918">
<time>2016-10-07T22:46:32Z</time></trkpt>
<trkpt lat="29.678979" lon="96.205938">
<time>2016-10-07T22:46:33Z</time></trkpt>
<trkpt lat="29.679139" lon="96.205958">
<time>2016-10-07T22:46:34Z</time></trkpt>
<trkpt lat="29.679309" lon="96.205978">
<time>2016-10-07T22:46:35Z</time></trkpt>
<trkpt lat="29.679469" lon="96.206008">
<time>2016-10-07T22:46:36Z</time></trkpt>
<trkpt lat="29.679619" lon="96.206028">
<time>2016-10-07T22:46:37Z</time></trkpt>
<trkpt lat="29.679769" lon="96.206048">
<time>2016-10-07T22:46:38Z</time></trkpt>
<trkpt lat="29.679889" lon="96.206068">
<time>2016-10-07T22:46:39Z</time></trkpt>
<trkpt lat="29.680049" lon="96.206098">
<time>2016-10-07T22:46:40Z</time></trkpt>
<trkpt lat="29.680239" lon="96.206128">
<time>2016-10-07T22:46:41Z</time></trkpt>
<trkpt lat="29.680339" lon="96.206148">
<time>2016-10-07T22:46:42Z</time></trkpt>
<trkpt lat="29.680409" lon="96.206158">
<time>2016-10-07T22:46:43Z</time></trkpt>
<trkpt lat="29.680479" lon="96.206168">
<time>2016-10-07T22:46:44Z</time></trkpt>
<trkpt lat="29.680559" lon="96.206198">
<time>2016-10-07T22:46:45Z</time></trkpt>
<trkpt lat="29.680659" lon="96.206218">
<time>2016-10-07T22:46:46Z</time></trkpt>
<trkpt lat="29.680739" lon="96.206258">
<time>2016-10-07T22:46:47Z</time></trkpt>
<trkpt lat="29.680829" lon="96.206288">
<time>2016-10-07T22:46:48Z</time></trkpt>
<trkpt lat="29.680889" lon="96.206319">
<time>2016-10-07T22:46:49Z</time></trkpt>
<trkpt lat="29.680929" lon="96.206339">
<time>2016-10-07T22:46:50Z</time></trkpt>
<trkpt lat="29.680989" lon="96.206379">
<time>2016-10-07T22:46:51Z</time></trkpt>
<trkpt lat="29.681039" lon="96.206399">
<time>2016-10-07T22:46:52Z</time></trkpt>
<trkpt lat="29.681119" lon="96.206459">
<time>2016-10-07T22:46:53Z</time></trkpt>
<trkpt lat="29.681239" lon="96.206539">
<time>2016-10-07T22:46:54Z</time></trkpt>
<trkpt lat="29.681369" lon="96.206609">
<time>2016-10-07T22:46:55Z</time></trkpt>
<trkpt lat="29.68148" lon="96.206669">
<time>2016-10-07T22:46:56Z</time></trkpt>
<trkpt lat="29.68155" lon="96.206709">
<time>2016-10-07T22:46:57Z</time></trkpt>
<trkpt lat="29.6816" lon="96.20675">
<time>2016-10-07T22:46:58Z</time></trkpt>
<trkpt lat="29.6817" lon="96.20682">
<time>2016-10-07T22:46:59Z</time></trkpt>
<trkpt lat="29.68178" lon="96.20687">
<time>2016-10-07T22:47:00Z</time></trkpt>
<trkpt lat="29.68185" lon="96.20692">
<time>2016-10-07T22:47:01Z</time></trkpt>
<trkpt lat="29.68188" lon="96.20694">
<time>2016-10-07T22:47:02Z</time></trkpt>
<trkpt lat="29.68192" lon="96.20697">
<time>2016-10-07T22:47:03Z</time></trkpt>
<trkpt lat="29.68197" lon="96.20699">
<time>2016-10-07T22:47:04Z</time></trkpt>
<trkpt lat="29.68204" lon="96.20702">
<time>2016-10-07T22:47:05Z</time></trkpt>
<trkpt lat="29.68212" lon="96.20706">
<time>2016-10-07T22:47:06Z</time></trkpt>
<trkpt lat="29.6822" lon="96.20709">
<time>2016-10-07T22:47:07Z</time></trkpt>
<trkpt lat="29.68233" lon="96.20714">
<time>2016-10-07T22:47:08Z</time></trkpt>
<trkpt lat="29.68246" lon="96.207191">
<time>2016-10-07T22:47:09Z</time></trkpt>
<trkpt lat="29.6826" lon="96.207251">
<time>2016-10-07T22:47:10Z</time></trkpt>
<trkpt lat="29.68276" lon="96.207311">
<time>2016-10-07T22:47:11Z</time></trkpt>
<trkpt lat="29.68288" lon="96.207351">
<time>2016-10-07T22:47:12Z</time></trkpt>
<trkpt lat="29.68301" lon="96.207401">
<time>2016-10-07T22:47:13Z</time></trkpt>
<trkpt lat="29.68313" lon="96.207451">
<time>2016-10-07T22:47:14Z</time></trkpt>
<trkpt lat="29.68325" lon="96.207491">
<time>2016-10-07T22:47:15Z</time></trkpt>
<trkpt lat="29.68328" lon="96.207511">
<time>2016-10-07T22:47:16Z</time></trkpt>
<trkpt lat="29.68333" lon="96.207521">
<time>2016-10-07T22:47:17Z</time></trkpt>
<trkpt lat="29.68338" lon="96.207541">
<time>2016-10-07T22:47:18Z</time></trkpt>
<trkpt lat="29.68343" lon="96.207551">
<time>2016-10-07T22:47:19Z</time></trkpt>
<trkpt lat="29.68348" lon="96.207551">
<time>2016-10-07T22:47:20Z</time></trkpt>
<trkpt lat="29.68354" lon="96.207561">
<time>2016-10-07T22:47:21Z</time></trkpt>
<trkpt lat="29.68359" lon="96.207561">
<time>2016-10-07T22:47:22Z</time></trkpt>
<trkpt lat="29.68363" lon="96.207561">
<time>2016-10-07T22:47:23Z</time></trkpt>
<trkpt lat="29.68366" lon="96.207561">
<time>2016-10-07T22:47:24Z</time></trkpt>
<trkpt lat="29.68371" lon="96.207551">
<time>2016-10-07T22:47:25Z</time></trkpt>
<trkpt lat="29.6838" lon="96.207541">
<time>2016-10-07T22:47:26Z</time></trkpt>
<trkpt lat="29.68388" lon="96.207531">
<time>2016-10-07T22:47:27Z</time></trkpt>
<trkpt lat="29.68394" lon="96.207531">
<time>2016-10-07T22:47:28Z</time></trkpt>
<trkpt lat="29.68402" lon="96.207521">
<time>2016-10-07T22:47:29Z</time></trkpt>
<trkpt lat="29.68411" lon="96.207501">
<time>2016-10-07T22:47:30Z</time></trkpt>
<trkpt lat="29.68423" lon="96.207481">
<time>2016-10-07T22:47:31Z</time></trkpt>
<trkpt lat="29.6843" lon="96.207471">
<time>2016-10-07T22:47:32Z</time></trkpt>
<trkpt lat="29.68436" lon="96.207451">
<time>2016-10-07T22:47:33Z</time></trkpt>
<trkpt lat="29.68443" lon="96.207431">
<time>2016-10-07T22:47:34Z</time></trkpt>
<trkpt lat="29.68447" lon="96.207411">
<time>2016-10-07T22:47:35Z</time></trkpt>
<trkpt lat="29.68451" lon="96.207401">
<time>2016-10-07T22:47:36Z</time></trkpt>
<trkpt lat="29.68457" lon="96.207361">
<time>2016-10-07T22:47:37Z</time></trkpt>
<trkpt lat="29.68464" lon="96.207321">
<time>2016-10-07T22:47:38Z</time></trkpt>
<trkpt lat="29.68473" lon="96.207271">
<time>2016-10-07T22:47:39Z</time></trkpt>
<trkpt lat="29.6848" lon="96.207221">
<time>2016-10-07T22:47:40Z</time></trkpt>
<trkpt lat="29.6849" lon="96.20716">
<time>2016-10-07T22:47:41Z</time></trkpt>
<trkpt lat="29.685009" lon="96.20709">
<time>2016-10-07T22:47:42Z</time></trkpt>
<trkpt lat="29.685119" lon="96.20702">
<time>2016-10-07T22:47:43Z</time></trkpt>
<trkpt lat="29.685229" lon="96.20694">
<time>2016-10-07T22:47:44Z</time></trkpt>
<trkpt lat="29.685349" lon="96.20687">
<time>2016-10-07T22:47:45Z</time></trkpt>
<trkpt lat="29.685459" lon="96.20679">
<time>2016-10-07T22:47:46Z</time></trkpt>
<trkpt lat="29.685629" lon="96.206679">
<time>2016-10-07T22:47:47Z</time></trkpt>
<trkpt lat="29.685908" lon="96.206499">
<time>2016-10-07T22:47:48Z</time></trkpt>
<trkpt lat="29.686268" lon="96.206258">
<time>2016-10-07T22:47:49Z</time></trkpt>
<trkpt lat="29.686328" lon="96.206218">
<time>2016-10-07T22:47:50Z</time></trkpt>
<trkpt lat="29.686438" lon="96.206138">
<time>2016-10-07T22:47:51Z</time></trkpt>
<trkpt lat="29.686578" lon="96.206048">
<time>2016-10-07T22:47:52Z</time></trkpt>
<trkpt lat="29.686737" lon="96.205948">
<time>2016-10-07T22:47:53Z</time></trkpt>
<trkpt lat="29.686857" lon="96.205877">
<time>2016-10-07T22:47:54Z</time></trkpt>
<trkpt lat="29.686957" lon="96.205817">
<time>2016-10-07T22:47:55Z</time></trkpt>
<trkpt lat="29.687077" lon="96.205747">
<time>2016-10-07T22:47:56Z</time></trkpt>
<trkpt lat="29.687187" lon="96.205687">
<time>2016-10-07T22:47:57Z</time></trkpt>
<trkpt lat="29.687267" lon="96.205637">
<time>2016-10-07T22:47:58Z</time></trkpt>
<trkpt lat="29.687387" lon="96.205577">
<time>2016-10-07T22:47:59Z</time></trkpt>
<trkpt lat="29.687487" lon="96.205517">
<time>2016-10-07T22:48:00Z</time></trkpt>
<trkpt lat="29.687607" lon="96.205446">
<time>2016-10-07T22:48:01Z</time></trkpt>
<trkpt lat="29.687746" lon="96.205366">
<time>2016-10-07T22:48:02Z</time></trkpt>
<trkpt lat="29.687886" lon="96.205286">
<time>2016-10-07T22:48:03Z</time></trkpt>
<trkpt lat="29.688006" lon="96.205216">
<time>2016-10-07T22:48:04Z</time></trkpt>
<trkpt lat="29.688116" lon="96.205156">
<time>2016-10-07T22:48:05Z</time></trkpt>
<trkpt lat="29.688206" lon="96.205096">
<time>2016-10-07T22:48:06Z</time></trkpt>
<trkpt lat="29.688276" lon="96.205055">
<time>2016-10-07T22:48:07Z</time></trkpt>
<trkpt lat="29.688326" lon="96.205015">
<time>2016-10-07T22:48:08Z</time></trkpt>
<trkpt lat="29.688376" lon="96.204975">
<time>2016-10-07T22:48:09Z</time></trkpt>
<trkpt lat="29.688436" lon="96.204925">
<time>2016-10-07T22:48:10Z</time></trkpt>
<trkpt lat="29.688515" lon="96.204845">
<time>2016-10-07T22:48:11Z</time></trkpt>
<trkpt lat="29.688595" lon="96.204775">
<time>2016-10-07T22:48:12Z</time></trkpt>
<trkpt lat="29.688685" lon="96.204685">
<time>2016-10-07T22:48:13Z</time></trkpt>
<trkpt lat="29.688765" lon="96.204594">
<time>2016-10-07T22:48:14Z</time></trkpt>
<trkpt lat="29.688895" lon="96.204464">
<time>2016-10-07T22:48:15Z</time></trkpt>
<trkpt lat="29.689005" lon="96.204354">
<time>2016-10-07T22:48:16Z</time></trkpt>
<trkpt lat="29.689284" lon="96.204063">
<time>2016-10-07T22:48:17Z</time></trkpt>
<trkpt lat="29.689384" lon="96.203963">
<time>2016-10-07T22:48:18Z</time></trkpt>
<trkpt lat="29.689434" lon="96.203903">
<time>2016-10-07T22:48:19Z</time></trkpt>
<trkpt lat="29.689534" lon="96.203802">
<time>2016-10-07T22:48:20Z</time></trkpt>
<trkpt lat="29.689673" lon="96.203672">
<time>2016-10-07T22:48:21Z</time></trkpt>
<trkpt lat="29.689783" lon="96.203542">
<time>2016-10-07T22:48:22Z</time></trkpt>
<trkpt lat="29.689853" lon="96.203472">
<time>2016-10-07T22:48:23Z</time></trkpt>
<trkpt lat="29.689923" lon="96.203401">
<time>2016-10-07T22:48:24Z</time></trkpt>
<trkpt lat="29.689993" lon="96.203341">
<time>2016-10-07T22:48:25Z</time></trkpt>
<trkpt lat="29.690033" lon="96.203291">
<time>2016-10-07T22:48:26Z</time></trkpt>
<trkpt lat="29.690083" lon="96.203241">
<time>2016-10-07T22:48:27Z</time></trkpt>
<trkpt lat="29.690133" lon="96.203201">
<time>2016-10-07T22:48:28Z</time></trkpt>
<trkpt lat="29.690193" lon="96.203141">
<time>2016-10-07T22:48:29Z</time></trkpt>
<trkpt lat="29.690243" lon="96.203091">
<time>2016-10-07T22:48:30Z</time></trkpt>
<trkpt lat="29.690312" lon="96.203021">
<time>2016-10-07T22:48:31Z</time></trkpt>
<trkpt lat="29.690382" lon="96.20296">
<time>2016-10-07T22:48:32Z</time></trkpt>
<trkpt lat="29.690402" lon="96.20294">
<time>2016-10-07T22:48:33Z</time></trkpt>
<trkpt lat="29.690462" lon="96.20288">
<time>2016-10-07T22:48:34Z</time></trkpt>
<trkpt lat="29.690552" lon="96.20281">
<time>2016-10-07T22:48:35Z</time></trkpt>
<trkpt lat="29.690602" lon="96.20277">
<time>2016-10-07T22:48:36Z</time></trkpt>
<trkpt lat="29.690702" lon="96.20269">
<time>2016-10-07T22:48:37Z</time></trkpt>
<trkpt lat="29.690792" lon="96.20263">
<time>2016-10-07T22:48:38Z</time></trkpt>
<trkpt lat="29.690842" lon="96.202589">
<time>2016-10-07T22:48:39Z</time></trkpt>
<trkpt lat="29.690892" lon="96.202559">
<time>2016-10-07T22:48:40Z</time></trkpt>
<trkpt lat="29.690981" lon="96.202499">
<time>2016-10-07T22:48:41Z</time></trkpt>
<trkpt lat="29.691051" lon="96.202459">
<time>2016-10-07T22:48:42Z</time></trkpt>
<trkpt lat="29.691111" lon="96.202429">
<time>2016-10-07T22:48:43Z</time></trkpt>
<trkpt lat="29.691191" lon="96.202379">
<time>2016-10-07T22:48:44Z</time></trkpt>
<trkpt lat="29.691241" lon="96.202349">
<time>2016-10-07T22:48:45Z</time></trkpt>
<trkpt lat="29.691301" lon="96.202319">
<time>2016-10-07T22:48:46Z</time></trkpt>
<trkpt lat="29.691371" lon="96.202289">
<time>2016-10-07T22:48:47Z</time></trkpt>
<trkpt lat="29.691431" lon="96.202259">
<time>2016-10-07T22:48:48Z</time></trkpt>
<trkpt lat="29.691481" lon="96.202229">
<time>2016-10-07T22:48:49Z</time></trkpt>
<trkpt lat="29.691561" lon="96.202198">
<time>2016-10-07T22:48:50Z</time></trkpt>
<trkpt lat="29.691601" lon="96.202178">
<time>2016-10-07T22:48:51Z</time></trkpt>
<trkpt lat="29.691641" lon="96.202158">
<time>2016-10-07T22:48:52Z</time></trkpt>
<trkpt lat="29.691661" lon="96.202148">
<time>2016-10-07T22:48:53Z</time></trkpt>
<trkpt lat="29.691691" lon="96.202138">
<time>2016-10-07T22:48:54Z</time></trkpt>
<trkpt lat="29.691721" lon="96.202128">
<time>2016-10-07T22:48:55Z</time></trkpt>
<trkpt lat="29.691741" lon="96.202128">
<time>2016-10-07T22:48:56Z</time></trkpt>
<trkpt lat="29.691781" lon="96.202118">
<time>2016-10-07T22:48:57Z</time></trkpt>
<trkpt lat="29.691831" lon="96.202098">
<time>2016-10-07T22:48:58Z</time></trkpt>
<trkpt lat="29.691891" lon="96.202088">
<time>2016-10-07T22:48:59Z</time></trkpt>
<trkpt lat="29.691911" lon="96.202078">
<time>2016-10-07T22:49:00Z</time></trkpt>
<trkpt lat="29.691941" lon="96.202068">
<time>2016-10-07T22:49:01Z</time></trkpt>
<trkpt lat="29.691971" lon="96.202058">
<time>2016-10-07T22:49:02Z</time></trkpt>
<trkpt lat="29.691991" lon="96.202048">
<time>2016-10-07T22:49:03Z</time></trkpt>
<trkpt lat="29.692011" lon="96.202028">
<time>2016-10-07T22:49:04Z</time></trkpt>
<trkpt lat="29.692041" lon="96.202008">
<time>2016-10-07T22:49:05Z</time></trkpt>
<trkpt lat="29.69206" lon="96.201988">
<time>2016-10-07T22:49:06Z</time></trkpt>
<trkpt lat="29.69209" lon="96.201948">
<time>2016-10-07T22:49:07Z</time></trkpt>
<trkpt lat="29.69211" lon="96.201928">
<time>2016-10-07T22:49:08Z</time></trkpt>
<trkpt lat="29.69213" lon="96.201888">
<time>2016-10-07T22:49:09Z</time></trkpt>
<trkpt lat="29.69215" lon="96.201838">
<time>2016-10-07T22:49:10Z</time></trkpt>
<trkpt lat="29.69218" lon="96.201787">
<time>2016-10-07T22:49:11Z</time></trkpt>
<trkpt lat="29.69226" lon="96.201647">
<time>2016-10-07T22:49:12Z</time></trkpt>
<trkpt lat="29.69229" lon="96.201597">
<time>2016-10-07T22:49:13Z</time></trkpt>
<trkpt lat="29.69232" lon="96.201537">
<time>2016-10-07T22:49:14Z</time></trkpt>
<trkpt lat="29.69238" lon="96.201437">
<time>2016-10-07T22:49:15Z</time></trkpt>
<trkpt lat="29.692429" lon="96.201356">
<time>2016-10-07T22:49:16Z</time></trkpt>
<trkpt lat="29.692489" lon="96.201236">
<time>2016-10-07T22:49:17Z</time></trkpt>
<trkpt lat="29.692549" lon="96.201126">
<time>2016-10-07T22:49:18Z</time></trkpt>
<trkpt lat="29.692609" lon="96.201006">
<time>2016-10-07T22:49:19Z</time></trkpt>
<trkpt lat="29.692669" lon="96.200875">
<time>2016-10-07T22:49:20Z</time></trkpt>
<trkpt lat="29.692728" lon="96.200765">
<time>2016-10-07T22:49:21Z</time></trkpt>
<trkpt lat="29.692778" lon="96.200635">
<time>2016-10-07T22:49:22Z</time></trkpt>
<trkpt lat="29.692818" lon="96.200534">
<time>2016-10-07T22:49:23Z</time></trkpt>
<trkpt lat="29.692868" lon="96.200434">
<time>2016-10-07T22:49:24Z</time></trkpt>
<trkpt lat="29.692898" lon="96.200344">
<time>2016-10-07T22:49:25Z</time></trkpt>
<trkpt lat="29.692938" lon="96.200224">
<time>2016-10-07T22:49:26Z</time></trkpt>
<trkpt lat="29.692967" lon="96.200133">
<time>2016-10-07T22:49:27Z</time></trkpt>
<trkpt lat="29.693017" lon="96.200003">
<time>2016-10-07T22:49:28Z</time></trkpt>
<trkpt lat="29.693057" lon="96.199883">
<time>2016-10-07T22:49:29Z</time></trkpt>
<trkpt lat="29.693097" lon="96.199752">
<time>2016-10-07T22:49:30Z</time></trkpt>
<trkpt lat="29.693147" lon="96.199582">
<time>2016-10-07T22:49:31Z</time></trkpt>
<trkpt lat="29.693176" lon="96.199492">
<time>2016-10-07T22:49:32Z</time></trkpt>
<trkpt lat="29.693206" lon="96.199412">
<time>2016-10-07T22:49:33Z</time></trkpt>
<trkpt lat="29.693226" lon="96.199351">
<time>2016-10-07T22:49:34Z</time></trkpt>
<trkpt lat="29.693246" lon="96.199281">
<time>2016-10-07T22:49:35Z</time></trkpt>
<trkpt lat="29.693266" lon="96.199211">
<time>2016-10-07T22:49:36Z</time></trkpt>
<trkpt lat="29.693286" lon="96.199131">
<time>2016-10-07T22:49:37Z</time></trkpt>
<trkpt lat="29.693306" lon="96.199061">
<time>2016-10-07T22:49:38Z</time></trkpt>
<trkpt lat="29.693316" lon="96.19899">
<time>2016-10-07T22:49:39Z</time></trkpt>
<trkpt lat="29.693335" lon="96.19893">
<time>2016-10-07T22:49:40Z</time></trkpt>
<trkpt lat="29.693345" lon="96.19884">
<time>2016-10-07T22:49:41Z</time></trkpt>
<trkpt lat="29.693355" lon="96.19877">
<time>2016-10-07T22:49:42Z</time></trkpt>
<trkpt lat="29.693365" lon="96.19867">
<time>2016-10-07T22:49:43Z</time></trkpt>
<trkpt lat="29.693375" lon="96.198579">
<time>2016-10-07T22:49:44Z</time></trkpt>
<trkpt lat="29.693385" lon="96.198449">
<time>2016-10-07T22:49:45Z</time></trkpt>
<trkpt lat="29.693394" lon="96.198329">
<time>2016-10-07T22:49:46Z</time></trkpt>
<trkpt lat="29.693404" lon="96.198168">
<time>2016-10-07T22:49:47Z</time></trkpt>
<trkpt lat="29.693414" lon="96.197998">
<time>2016-10-07T22:49:48Z</time></trkpt>
<trkpt lat="29.693424" lon="96.197817">
<time>2016-10-07T22:49:49Z</time></trkpt>
<trkpt lat="29.693433" lon="96.197717">
<time>2016-10-07T22:49:50Z</time></trkpt>
<trkpt lat="29.693433" lon="96.197637">
<time>2016-10-07T22:49:51Z</time></trkpt>
<trkpt lat="29.693433" lon="96.197587">
<time>2016-10-07T22:49:52Z</time></trkpt>
<trkpt lat="29.693433" lon="96.197557">
<time>2016-10-07T22:49:53Z</time></trkpt>
<trkpt lat="29.693433" lon="96.197507">
<time>2016-10-07T22:49:54Z</time></trkpt>
<trkpt lat="29.693423" lon="96.197436">
<time>2016-10-07T22:49:55Z</time></trkpt>
<trkpt lat="29.693413" lon="96.197396">
<time>2016-10-07T22:49:56Z</time></trkpt>
<trkpt lat="29.693413" lon="96.197366">
<time>2016-10-07T22:49:57Z</time></trkpt>
<trkpt lat="29.693403" lon="96.197326">
<time>2016-10-07T22:49:58Z</time></trkpt>
<trkpt lat="29.693383" lon="96.197256">
<time>2016-10-07T22:49:59Z</time></trkpt>
<trkpt lat="29.693363" lon="96.197196">
<time>2016-10-07T22:50:00Z</time></trkpt>
<trkpt lat="29.693343" lon="96.197136">
<time>2016-10-07T22:50:01Z</time></trkpt>
<trkpt lat="29.693312" lon="96.197045">
<time>2016-10-07T22:50:02Z</time></trkpt>
<trkpt lat="29.693272" lon="96.196965">
<time>2016-10-07T22:50:03Z</time></trkpt>
<trkpt lat="29.693232" lon="96.196875">
<time>2016-10-07T22:50:04Z</time></trkpt>
<trkpt lat="29.693152" lon="96.196705">
<time>2016-10-07T22:50:05Z</time></trkpt>
<trkpt lat="29.693042" lon="96.196454">
<time>2016-10-07T22:50:06Z</time></trkpt>
<trkpt lat="29.692961" lon="96.196284">
<time>2016-10-07T22:50:07Z</time></trkpt>
<trkpt lat="29.692881" lon="96.196113">
<time>2016-10-07T22:50:08Z</time></trkpt>
<trkpt lat="29.692811" lon="96.195973">
<time>2016-10-07T22:50:09Z</time></trkpt>
<trkpt lat="29.692741" lon="96.195812">
<time>2016-10-07T22:50:10Z</time></trkpt>
<trkpt lat="29.69269" lon="96.195702">
<time>2016-10-07T22:50:11Z</time></trkpt>
<trkpt lat="29.69266" lon="96.195622">
<time>2016-10-07T22:50:12Z</time></trkpt>
<trkpt lat="29.69265" lon="96.195582">
<time>2016-10-07T22:50:13Z</time></trkpt>
<trkpt lat="29.69264" lon="96.195542">
<time>2016-10-07T22:50:14Z</time></trkpt>
<trkpt lat="29.69262" lon="96.195491">
<time>2016-10-07T22:50:15Z</time></trkpt>
<trkpt lat="29.69262" lon="96.195461">
<time>2016-10-07T22:50:16Z</time></trkpt>
<trkpt lat="29.69261" lon="96.195441">
<time>2016-10-07T22:50:17Z</time></trkpt>
<trkpt lat="29.69261" lon="96.195401">
<time>2016-10-07T22:50:18Z</time></trkpt>
<trkpt lat="29.6926" lon="96.195361">
<time>2016-10-07T22:50:19Z</time></trkpt>
<trkpt lat="29.6926" lon="96.195321">
<time>2016-10-07T22:50:20Z</time></trkpt>
<trkpt lat="29.6926" lon="96.195261">
<time>2016-10-07T22:50:21Z</time></trkpt>
<trkpt lat="29.6926" lon="96.195211">
<time>2016-10-07T22:50:22Z</time></trkpt>
<trkpt lat="29.692609" lon="96.195171">
<time>2016-10-07T22:50:23Z</time></trkpt>
<trkpt lat="29.692619" lon="96.1951">
<time>2016-10-07T22:50:24Z</time></trkpt>
<trkpt lat="29.692629" lon="96.19503">
<time>2016-10-07T22:50:25Z</time></trkpt>
<trkpt lat="29.692649" lon="96.19497">
<time>2016-10-07T22:50:26Z</time></trkpt>
<trkpt lat="29.692669" lon="96.19491">
<time>2016-10-07T22:50:27Z</time></trkpt>
<trkpt lat="29.692689" lon="96.19487">
<time>2016-10-07T22:50:28Z</time></trkpt>
<trkpt lat="29.692719" lon="96.19483">
<time>2016-10-07T22:50:29Z</time></trkpt>
<trkpt lat="29.692739" lon="96.19479">
<time>2016-10-07T22:50:30Z</time></trkpt>
<trkpt lat="29.692769" lon="96.194749">
<time>2016-10-07T22:50:31Z</time></trkpt>
<trkpt lat="29.692789" lon="96.194719">
<time>2016-10-07T22:50:32Z</time></trkpt>
<trkpt lat="29.692829" lon="96.194669">
<time>2016-10-07T22:50:33Z</time></trkpt>
<trkpt lat="29.692878" lon="96.194619">
<time>2016-10-07T22:50:34Z</time></trkpt>
<trkpt lat="29.692928" lon="96.194559">
<time>2016-10-07T22:50:35Z</time></trkpt>
<trkpt lat="29.693038" lon="96.194439">
<time>2016-10-07T22:50:36Z</time></trkpt>
<trkpt lat="29.693118" lon="96.194368">
<time>2016-10-07T22:50:37Z</time></trkpt>
<trkpt lat="29.693467" lon="96.194028">
<time>2016-10-07T22:50:38Z</time></trkpt>
<trkpt lat="29.693607" lon="96.193887">
<time>2016-10-07T22:50:39Z</time></trkpt>
<trkpt lat="29.693687" lon="96.193817">
<time>2016-10-07T22:50:40Z</time></trkpt>
<trkpt lat="29.693787" lon="96.193707">
<time>2016-10-07T22:50:41Z</time></trkpt>
<trkpt lat="29.693867" lon="96.193637">
<time>2016-10-07T22:50:42Z</time></trkpt>
<trkpt lat="29.693946" lon="96.193556">
<time>2016-10-07T22:50:43Z</time></trkpt>
<trkpt lat="29.694076" lon="96.193436">
<time>2016-10-07T22:50:44Z</time></trkpt>
<trkpt lat="29.694176" lon="96.193336">
<time>2016-10-07T22:50:45Z</time></trkpt>
<trkpt lat="29.694286" lon="96.193225">
<time>2016-10-07T22:50:46Z</time></trkpt>
<trkpt lat="29.694336" lon="96.193185">
<time>2016-10-07T22:50:47Z</time></trkpt>
<trkpt lat="29.694376" lon="96.193145">
<time>2016-10-07T22:50:48Z</time></trkpt>
<trkpt lat="29.694436" lon="96.193085">
<time>2016-10-07T22:50:49Z</time></trkpt>
<trkpt lat="29.694515" lon="96.193005">
<time>2016-10-07T22:50:50Z</time></trkpt>
<trkpt lat="29.694865" lon="96.192684">
<time>2016-10-07T22:50:51Z</time></trkpt>
<trkpt lat="29.694925" lon="96.192624">
<time>2016-10-07T22:50:52Z</time></trkpt>
<trkpt lat="29.695005" lon="96.192544">
<time>2016-10-07T22:50:53Z</time></trkpt>
<trkpt lat="29.695104" lon="96.192443">
<time>2016-10-07T22:50:54Z</time></trkpt>
<trkpt lat="29.695164" lon="96.192383">
<time>2016-10-07T22:50:55Z</time></trkpt>
<trkpt lat="29.695214" lon="96.192333">
<time>2016-10-07T22:50:56Z</time></trkpt>
<trkpt lat="29.695234" lon="96.192303">
<time>2016-10-07T22:50:57Z</time></trkpt>
<trkpt lat="29.695254" lon="96.192283">
<time>2016-10-07T22:50:58Z</time></trkpt>
<trkpt lat="29.695284" lon="96.192243">
<time>2016-10-07T22:50:59Z</time></trkpt>
<trkpt lat="29.695324" lon="96.192193">
<time>2016-10-07T22:51:00Z</time></trkpt>
<trkpt lat="29.695344" lon="96.192163">
<time>2016-10-07T22:51:01Z</time></trkpt>
<trkpt lat="29.695364" lon="96.192122">
<time>2016-10-07T22:51:02Z</time></trkpt>
<trkpt lat="29.695394" lon="96.192082">
<time>2016-10-07T22:51:03Z</time></trkpt>
<trkpt lat="29.695404" lon="96.192052">
<time>2016-10-07T22:51:04Z</time></trkpt>
<trkpt lat="29.695434" lon="96.191992">
<time>2016-10-07T22:51:05Z</time></trkpt>
<trkpt lat="29.695463" lon="96.191922">
<time>2016-10-07T22:51:06Z</time></trkpt>
<trkpt lat="29.695503" lon="96.191832">
<time>2016-10-07T22:51:07Z</time></trkpt>
<trkpt lat="29.695543" lon="96.191731">
<time>2016-10-07T22:51:08Z</time></trkpt>
<trkpt lat="29.695583" lon="96.191621">
<time>2016-10-07T22:51:09Z</time></trkpt>
<trkpt lat="29.695623" lon="96.191511">
<time>2016-10-07T22:51:10Z</time></trkpt>
<trkpt lat="29.695652" lon="96.191411">
<time>2016-10-07T22:51:11Z</time></trkpt>
<trkpt lat="29.695672" lon="96.19134">
<time>2016-10-07T22:51:12Z</time></trkpt>
<trkpt lat="29.695692" lon="96.19127">
<time>2016-10-07T22:51:13Z</time></trkpt>
<trkpt lat="29.695712" lon="96.19119">
<time>2016-10-07T22:51:14Z</time></trkpt>
<trkpt lat="29.695732" lon="96.1911">
<time>2016-10-07T22:51:15Z</time></trkpt>
<trkpt lat="29.695742" lon="96.19103">
<time>2016-10-07T22:51:16Z</time></trkpt>
<trkpt lat="29.695762" lon="96.190939">
<time>2016-10-07T22:51:17Z</time></trkpt>
<trkpt lat="29.695762" lon="96.190889">
<time>2016-10-07T22:51:18Z</time></trkpt>
<trkpt lat="29.695771" lon="96.190809">
<time>2016-10-07T22:51:19Z</time></trkpt>
<trkpt lat="29.695791" lon="96.190719">
<time>2016-10-07T22:51:20Z</time></trkpt>
<trkpt lat="29.695801" lon="96.190608">
<time>2016-10-07T22:51:21Z</time></trkpt>
<trkpt lat="29.695811" lon="96.190488">
<time>2016-10-07T22:51:22Z</time></trkpt>
<trkpt lat="29.69586" lon="96.190007">
<time>2016-10-07T22:51:23Z</time></trkpt>
<trkpt lat="29.695879" lon="96.189706">
<time>2016-10-07T22:51:24Z</time></trkpt>
<trkpt lat="29.695899" lon="96.189586">
<time>2016-10-07T22:51:25Z</time></trkpt>
<trkpt lat="29.695909" lon="96.189415">
<time>2016-10-07T22:51:26Z</time></trkpt>
<trkpt lat="29.695938" lon="96.189144">
<time>2016-10-07T22:51:27Z</time></trkpt>
<trkpt lat="29.695948" lon="96.188914">
<time>2016-10-07T22:51:28Z</time></trkpt>
<trkpt lat="29.695978" lon="96.188633">
<time>2016-10-07T22:51:29Z</time></trkpt>
<trkpt lat="29.695987" lon="96.188503">
<time>2016-10-07T22:51:30Z</time></trkpt>
<trkpt lat="29.696007" lon="96.188312">
<time>2016-10-07T22:51:31Z</time></trkpt>
<trkpt lat="29.696036" lon="96.187961">
<time>2016-10-07T22:51:32Z</time></trkpt>
<trkpt lat="29.696056" lon="96.187771">
<time>2016-10-07T22:51:33Z</time></trkpt>
<trkpt lat="29.696105" lon="96.187209">
<time>2016-10-07T22:51:34Z</time></trkpt>
<trkpt lat="29.696125" lon="96.186938">
<time>2016-10-07T22:51:35Z</time></trkpt>
<trkpt lat="29.696164" lon="96.186587">
<time>2016-10-07T22:51:36Z</time></trkpt>
<trkpt lat="29.696183" lon="96.186297">
<time>2016-10-07T22:51:37Z</time></trkpt>
<trkpt lat="29.696213" lon="96.186026">
<time>2016-10-07T22:51:38Z</time></trkpt>
<trkpt lat="29.696233" lon="96.185825">
<time>2016-10-07T22:51:39Z</time></trkpt>
<trkpt lat="29.696252" lon="96.185544">
<time>2016-10-07T22:51:40Z</time></trkpt>
<trkpt lat="29.696291" lon="96.185153">
<time>2016-10-07T22:51:41Z</time></trkpt>
<trkpt lat="29.696301" lon="96.184963">
<time>2016-10-07T22:51:42Z</time></trkpt>
<trkpt lat="29.69634" lon="96.184622">
<time>2016-10-07T22:51:43Z</time></trkpt>
<trkpt lat="29.69636" lon="96.184311">
<time>2016-10-07T22:51:44Z</time></trkpt>
<trkpt lat="29.696448" lon="96.183398">
<time>2016-10-07T22:51:45Z</time></trkpt>
<trkpt lat="29.696468" lon="96.183158">
<time>2016-10-07T22:51:46Z</time></trkpt>
<trkpt lat="29.696536" lon="96.182305">
<time>2016-10-07T22:51:47Z</time></trkpt>
<trkpt lat="29.696566" lon="96.182005">
<time>2016-10-07T22:51:48Z</time></trkpt>
<trkpt lat="29.696595" lon="96.181734">
<time>2016-10-07T22:51:49Z</time></trkpt>
<trkpt lat="29.696605" lon="96.181543">
<time>2016-10-07T22:51:50Z</time></trkpt>
<trkpt lat="29.696624" lon="96.181343">
<time>2016-10-07T22:51:51Z</time></trkpt>
<trkpt lat="29.696654" lon="96.181112">
<time>2016-10-07T22:51:52Z</time></trkpt>
<trkpt lat="29.696664" lon="96.180982">
<time>2016-10-07T22:51:53Z</time></trkpt>
<trkpt lat="29.696663" lon="96.180871">
<time>2016-10-07T22:51:54Z</time></trkpt>
<trkpt lat="29.696673" lon="96.180801">
<time>2016-10-07T22:51:55Z</time></trkpt>
<trkpt lat="29.696663" lon="96.180741">
<time>2016-10-07T22:51:56Z</time></trkpt>
<trkpt lat="29.696653" lon="96.180651">
<time>2016-10-07T22:51:57Z</time></trkpt>
<trkpt lat="29.696643" lon="96.18059">
<time>2016-10-07T22:51:58Z</time></trkpt>
<trkpt lat="29.696623" lon="96.18053">
<time>2016-10-07T22:51:59Z</time></trkpt>
<trkpt lat="29.696593" lon="96.1804">
<time>2016-10-07T22:52:00Z</time></trkpt>
<trkpt lat="29.696552" lon="96.18029">
<time>2016-10-07T22:52:01Z</time></trkpt>
<trkpt lat="29.696532" lon="96.180199">
<time>2016-10-07T22:52:02Z</time></trkpt>
<trkpt lat="29.696502" lon="96.180099">
<time>2016-10-07T22:52:03Z</time></trkpt>
<trkpt lat="29.696472" lon="96.179989">
<time>2016-10-07T22:52:04Z</time></trkpt>
<trkpt lat="29.696452" lon="96.179909">
<time>2016-10-07T22:52:05Z</time></trkpt>
<trkpt lat="29.696442" lon="96.179828">
<time>2016-10-07T22:52:06Z</time></trkpt>
<trkpt lat="29.696421" lon="96.179728">
<time>2016-10-07T22:52:07Z</time></trkpt>
<trkpt lat="29.696411" lon="96.179658">
<time>2016-10-07T22:52:08Z</time></trkpt>
<trkpt lat="29.696411" lon="96.179578">
<time>2016-10-07T22:52:09Z</time></trkpt>
<trkpt lat="29.696401" lon="96.179507">
<time>2016-10-07T22:52:10Z</time></trkpt>
<trkpt lat="29.696401" lon="96.179417">
<time>2016-10-07T22:52:11Z</time></trkpt>
<trkpt lat="29.696391" lon="96.179277">
<time>2016-10-07T22:52:12Z</time></trkpt>
<trkpt lat="29.69638" lon="96.179207">
<time>2016-10-07T22:52:13Z</time></trkpt>
<trkpt lat="29.69637" lon="96.179156">
<time>2016-10-07T22:52:14Z</time></trkpt>
<trkpt lat="29.69636" lon="96.179116">
<time>2016-10-07T22:52:15Z</time></trkpt>
<trkpt lat="29.69635" lon="96.179086">
<time>2016-10-07T22:52:16Z</time></trkpt>
<trkpt lat="29.69633" lon="96.179036">
<time>2016-10-07T22:52:17Z</time></trkpt>
<trkpt lat="29.69632" lon="96.178996">
<time>2016-10-07T22:52:18Z</time></trkpt>
<trkpt lat="29.69629" lon="96.178926">
<time>2016-10-07T22:52:19Z</time></trkpt>
<trkpt lat="29.69623" lon="96.178815">
<time>2016-10-07T22:52:20Z</time></trkpt>
<trkpt lat="29.6962" lon="96.178745">
<time>2016-10-07T22:52:21Z</time></trkpt>
<trkpt lat="29.696179" lon="96.178695">
<time>2016-10-07T22:52:22Z</time></trkpt>
<trkpt lat="29.696159" lon="96.178655">
<time>2016-10-07T22:52:23Z</time></trkpt>
<trkpt lat="29.696149" lon="96.178625">
<time>2016-10-07T22:52:24Z</time></trkpt>
<trkpt lat="29.696139" lon="96.178575">
<time>2016-10-07T22:52:25Z</time></trkpt>
<trkpt lat="29.696119" lon="96.178525">
<time>2016-10-07T22:52:26Z</time></trkpt>
<trkpt lat="29.696109" lon="96.178464">
<time>2016-10-07T22:52:27Z</time></trkpt>
<trkpt lat="29.696099" lon="96.178404">
<time>2016-10-07T22:52:28Z</time></trkpt>
<trkpt lat="29.696059" lon="96.178254">
<time>2016-10-07T22:52:29Z</time></trkpt>
<trkpt lat="29.696039" lon="96.178184">
<time>2016-10-07T22:52:30Z</time></trkpt>
<trkpt lat="29.696008" lon="96.178093">
<time>2016-10-07T22:52:31Z</time></trkpt>
<trkpt lat="29.695968" lon="96.178003">
<time>2016-10-07T22:52:32Z</time></trkpt>
<trkpt lat="29.695898" lon="96.177883">
<time>2016-10-07T22:52:33Z</time></trkpt>
<trkpt lat="29.695828" lon="96.177772">
<time>2016-10-07T22:52:34Z</time></trkpt>
<trkpt lat="29.695697" lon="96.177592">
<time>2016-10-07T22:52:35Z</time></trkpt>
<trkpt lat="29.695587" lon="96.177411">
<time>2016-10-07T22:52:36Z</time></trkpt>
<trkpt lat="29.695517" lon="96.177321">
<time>2016-10-07T22:52:37Z</time></trkpt>
<trkpt lat="29.695487" lon="96.177251">
<time>2016-10-07T22:52:38Z</time></trkpt>
<trkpt lat="29.695457" lon="96.177191">
<time>2016-10-07T22:52:39Z</time></trkpt>
<trkpt lat="29.695427" lon="96.177121">
<time>2016-10-07T22:52:40Z</time></trkpt>
<trkpt lat="29.695417" lon="96.17705">
<time>2016-10-07T22:52:41Z</time></trkpt>
<trkpt lat="29.695396" lon="96.17697">
<time>2016-10-07T22:52:42Z</time></trkpt>
<trkpt lat="29.695386" lon="96.1769">
<time>2016-10-07T22:52:43Z</time></trkpt>
<trkpt lat="29.695366" lon="96.176719">
<time>2016-10-07T22:52:44Z</time></trkpt>
<trkpt lat="29.695325" lon="96.176419">
<time>2016-10-07T22:52:45Z</time></trkpt>
<trkpt lat="29.695325" lon="96.176308">
<time>2016-10-07T22:52:46Z</time></trkpt>
<trkpt lat="29.695325" lon="96.176218">
<time>2016-10-07T22:52:47Z</time></trkpt>
<trkpt lat="29.695335" lon="96.176148">
<time>2016-10-07T22:52:48Z</time></trkpt>
<trkpt lat="29.695345" lon="96.176088">
<time>2016-10-07T22:52:49Z</time></trkpt>
<trkpt lat="29.695365" lon="96.176007">
<time>2016-10-07T22:52:50Z</time></trkpt>
<trkpt lat="29.695394" lon="96.175927">
<time>2016-10-07T22:52:51Z</time></trkpt>
<trkpt lat="29.695434" lon="96.175817">
<time>2016-10-07T22:52:52Z</time></trkpt>
<trkpt lat="29.695474" lon="96.175707">
<time>2016-10-07T22:52:53Z</time></trkpt>
<trkpt lat="29.695544" lon="96.175566">
<time>2016-10-07T22:52:54Z</time></trkpt>
<trkpt lat="29.695574" lon="96.175496">
<time>2016-10-07T22:52:55Z</time></trkpt>
<trkpt lat="29.695613" lon="96.175416">
<time>2016-10-07T22:52:56Z</time></trkpt>
<trkpt lat="29.695693" lon="96.175305">
<time>2016-10-07T22:52:57Z</time></trkpt>
<trkpt lat="29.695753" lon="96.175215">
<time>2016-10-07T22:52:58Z</time></trkpt>
<trkpt lat="29.695833" lon="96.175105">
<time>2016-10-07T22:52:59Z</time></trkpt>
<trkpt lat="29.695913" lon="96.174984">
<time>2016-10-07T22:53:00Z</time></trkpt>
<trkpt lat="29.696012" lon="96.174864">
<time>2016-10-07T22:53:01Z</time></trkpt>
<trkpt lat="29.696082" lon="96.174764">
<time>2016-10-07T22:53:02Z</time></trkpt>
<trkpt lat="29.696172" lon="96.174633">
<time>2016-10-07T22:53:03Z</time></trkpt>
<trkpt lat="29.696202" lon="96.174593">
<time>2016-10-07T22:53:04Z</time></trkpt>
<trkpt lat="29.696272" lon="96.174513">
<time>2016-10-07T22:53:05Z</time></trkpt>
<trkpt lat="29.696321" lon="96.174453">
<time>2016-10-07T22:53:06Z</time></trkpt>
<trkpt lat="29.696371" lon="96.174403">
<time>2016-10-07T22:53:07Z</time></trkpt>
<trkpt lat="29.696411" lon="96.174373">
<time>2016-10-07T22:53:08Z</time></trkpt>
<trkpt lat="29.696451" lon="96.174343">
<time>2016-10-07T22:53:09Z</time></trkpt>
<trkpt lat="29.696501" lon="96.174323">
<time>2016-10-07T22:53:10Z</time></trkpt>
<trkpt lat="29.696551" lon="96.174292">
<time>2016-10-07T22:53:11Z</time></trkpt>
<trkpt lat="29.696611" lon="96.174272">
<time>2016-10-07T22:53:12Z</time></trkpt>
<trkpt lat="29.696721" lon="96.174222">
<time>2016-10-07T22:53:13Z</time></trkpt>
<trkpt lat="29.696861" lon="96.174172">
<time>2016-10-07T22:53:14Z</time></trkpt>
<trkpt lat="29.697211" lon="96.174032">
<time>2016-10-07T22:53:15Z</time></trkpt>
<trkpt lat="29.69744" lon="96.173951">
<time>2016-10-07T22:53:16Z</time></trkpt>
<trkpt lat="29.69753" lon="96.173921">
<time>2016-10-07T22:53:17Z</time></trkpt>
<trkpt lat="29.69762" lon="96.173891">
<time>2016-10-07T22:53:18Z</time></trkpt>
<trkpt lat="29.69769" lon="96.173871">
<time>2016-10-07T22:53:19Z</time></trkpt>
<trkpt lat="29.69774" lon="96.173861">
<time>2016-10-07T22:53:20Z</time></trkpt>
<trkpt lat="29.69783" lon="96.173831">
<time>2016-10-07T22:53:21Z</time></trkpt>
<trkpt lat="29.69791" lon="96.173821">
<time>2016-10-07T22:53:22Z</time></trkpt>
<trkpt lat="29.69813" lon="96.173791">
<time>2016-10-07T22:53:23Z</time></trkpt>
<trkpt lat="29.69826" lon="96.173781">
<time>2016-10-07T22:53:24Z</time></trkpt>
<trkpt lat="29.69836" lon="96.173761">
<time>2016-10-07T22:53:25Z</time></trkpt>
<trkpt lat="29.69844" lon="96.173741">
<time>2016-10-07T22:53:26Z</time></trkpt>
<trkpt lat="29.69852" lon="96.173711">
<time>2016-10-07T22:53:27Z</time></trkpt>
<trkpt lat="29.6986" lon="96.173691">
<time>2016-10-07T22:53:28Z</time></trkpt>
<trkpt lat="29.69866" lon="96.173661">
<time>2016-10-07T22:53:29Z</time></trkpt>
<trkpt lat="29.698759" lon="96.17362">
<time>2016-10-07T22:53:30Z</time></trkpt>
<trkpt lat="29.698839" lon="96.17357">
<time>2016-10-07T22:53:31Z</time></trkpt>
<trkpt lat="29.698879" lon="96.17354">
<time>2016-10-07T22:53:32Z</time></trkpt>
<trkpt lat="29.698999" lon="96.17347">
<time>2016-10-07T22:53:33Z</time></trkpt>
<trkpt lat="29.699069" lon="96.17342">
<time>2016-10-07T22:53:34Z</time></trkpt>
<trkpt lat="29.699179" lon="96.17334">
<time>2016-10-07T22:53:35Z</time></trkpt>
<trkpt lat="29.699349" lon="96.173219">
<time>2016-10-07T22:53:36Z</time></trkpt>
<trkpt lat="29.699468" lon="96.173139">
<time>2016-10-07T22:53:37Z</time></trkpt>
<trkpt lat="29.699518" lon="96.173109">
<time>2016-10-07T22:53:38Z</time></trkpt>
<trkpt lat="29.699678" lon="96.172999">
<time>2016-10-07T22:53:39Z</time></trkpt>
<trkpt lat="29.699788" lon="96.172938">
<time>2016-10-07T22:53:40Z</time></trkpt>
<trkpt lat="29.699868" lon="96.172898">
<time>2016-10-07T22:53:41Z</time></trkpt>
<trkpt lat="29.699958" lon="96.172868">
<time>2016-10-07T22:53:42Z</time></trkpt>
<trkpt lat="29.700038" lon="96.172828">
<time>2016-10-07T22:53:43Z</time></trkpt>
<trkpt lat="29.700248" lon="96.172748">
<time>2016-10-07T22:53:44Z</time></trkpt>
<trkpt lat="29.700427" lon="96.172678">
<time>2016-10-07T22:53:45Z</time></trkpt>
<trkpt lat="29.700717" lon="96.172567">
<time>2016-10-07T22:53:46Z</time></trkpt>
<trkpt lat="29.700987" lon="96.172457">
<time>2016-10-07T22:53:47Z</time></trkpt>
<trkpt lat="29.701187" lon="96.172387">
<time>2016-10-07T22:53:48Z</time></trkpt>
<trkpt lat="29.701347" lon="96.172317">
<time>2016-10-07T22:53:49Z</time></trkpt>
<trkpt lat="29.701506" lon="96.172256">
<time>2016-10-07T22:53:50Z</time></trkpt>
<trkpt lat="29.701606" lon="96.172196">
<time>2016-10-07T22:53:51Z</time></trkpt>
<trkpt lat="29.701736" lon="96.172116">
<time>2016-10-07T22:53:52Z</time></trkpt>
<trkpt lat="29.701856" lon="96.172036">
<time>2016-10-07T22:53:53Z</time></trkpt>
<trkpt lat="29.701986" lon="96.171946">
<time>2016-10-07T22:53:54Z</time></trkpt>
<trkpt lat="29.702145" lon="96.171825">
<time>2016-10-07T22:53:55Z</time></trkpt>
<trkpt lat="29.702255" lon="96.171745">
<time>2016-10-07T22:53:56Z</time></trkpt>
<trkpt lat="29.702385" lon="96.171655">
<time>2016-10-07T22:53:57Z</time></trkpt>
<trkpt lat="29.702525" lon="96.171554">
<time>2016-10-07T22:53:58Z</time></trkpt>
<trkpt lat="29.702665" lon="96.171454">
<time>2016-10-07T22:53:59Z</time></trkpt>
<trkpt lat="29.702834" lon="96.171324">
<time>2016-10-07T22:54:00Z</time></trkpt>
<trkpt lat="29.702944" lon="96.171244">
<time>2016-10-07T22:54:01Z</time></trkpt>
<trkpt lat="29.703014" lon="96.171193">
<time>2016-10-07T22:54:02Z</time></trkpt>
<trkpt lat="29.703124" lon="96.171093">
<time>2016-10-07T22:54:03Z</time></trkpt>
<trkpt lat="29.703214" lon="96.171013">
<time>2016-10-07T22:54:04Z</time></trkpt>
<trkpt lat="29.703254" lon="96.170973">
<time>2016-10-07T22:54:05Z</time></trkpt>
<trkpt lat="29.703334" lon="96.170903">
<time>2016-10-07T22:54:06Z</time></trkpt>
<trkpt lat="29.703393" lon="96.170842">
<time>2016-10-07T22:54:07Z</time></trkpt>
<trkpt lat="29.703533" lon="96.170702">
<time>2016-10-07T22:54:08Z</time></trkpt>
<trkpt lat="29.703773" lon="96.170441">
<time>2016-10-07T22:54:09Z</time></trkpt>
<trkpt lat="29.703932" lon="96.170271">
<time>2016-10-07T22:54:10Z</time></trkpt>
<trkpt lat="29.704102" lon="96.17012">
<time>2016-10-07T22:54:11Z</time></trkpt>
<trkpt lat="29.704232" lon="96.17002">
<time>2016-10-07T22:54:12Z</time></trkpt>
<trkpt lat="29.704361" lon="96.16991">
<time>2016-10-07T22:54:13Z</time></trkpt>
<trkpt lat="29.704491" lon="96.169809">
<time>2016-10-07T22:54:14Z</time></trkpt>
<trkpt lat="29.704771" lon="96.169599">
<time>2016-10-07T22:54:15Z</time></trkpt>
<trkpt lat="29.70528" lon="96.169228">
<time>2016-10-07T22:54:16Z</time></trkpt>
<trkpt lat="29.706129" lon="96.168606">
<time>2016-10-07T22:54:17Z</time></trkpt>
<trkpt lat="29.706328" lon="96.168455">
<time>2016-10-07T22:54:18Z</time></trkpt>
<trkpt lat="29.706538" lon="96.168305">
<time>2016-10-07T22:54:19Z</time></trkpt>
<trkpt lat="29.706738" lon="96.168155">
<time>2016-10-07T22:54:20Z</time></trkpt>
<trkpt lat="29.706937" lon="96.168004">
<time>2016-10-07T22:54:21Z</time></trkpt>
<trkpt lat="29.707197" lon="96.167814">
<time>2016-10-07T22:54:22Z</time></trkpt>
<trkpt lat="29.707467" lon="96.167613">
<time>2016-10-07T22:54:23Z</time></trkpt>
<trkpt lat="29.707676" lon="96.167473">
<time>2016-10-07T22:54:24Z</time></trkpt>
<trkpt lat="29.707876" lon="96.167322">
<time>2016-10-07T22:54:25Z</time></trkpt>
<trkpt lat="29.708066" lon="96.167172">
<time>2016-10-07T22:54:26Z</time></trkpt>
<trkpt lat="29.708265" lon="96.167031">
<time>2016-10-07T22:54:27Z</time></trkpt>
<trkpt lat="29.708495" lon="96.166861">
<time>2016-10-07T22:54:28Z</time></trkpt>
<trkpt lat="29.708655" lon="96.16674">
<time>2016-10-07T22:54:29Z</time></trkpt>
<trkpt lat="29.708854" lon="96.1666">
<time>2016-10-07T22:54:30Z</time></trkpt>
<trkpt lat="29.709024" lon="96.16648">
<time>2016-10-07T22:54:31Z</time></trkpt>
<trkpt lat="29.709174" lon="96.166379">
<time>2016-10-07T22:54:32Z</time></trkpt>
<trkpt lat="29.709244" lon="96.166329">
<time>2016-10-07T22:54:33Z</time></trkpt>
<trkpt lat="29.709294" lon="96.166289">
<time>2016-10-07T22:54:34Z</time></trkpt>
<trkpt lat="29.709344" lon="96.166249">
<time>2016-10-07T22:54:35Z</time></trkpt>
<trkpt lat="29.709384" lon="96.166209">
<time>2016-10-07T22:54:36Z</time></trkpt>
<trkpt lat="29.709453" lon="96.166139">
<time>2016-10-07T22:54:37Z</time></trkpt>
<trkpt lat="29.709493" lon="96.166089">
<time>2016-10-07T22:54:38Z</time></trkpt>
<trkpt lat="29.709513" lon="96.166058">
<time>2016-10-07T22:54:39Z</time></trkpt>
<trkpt lat="29.709533" lon="96.166018">
<time>2016-10-07T22:54:40Z</time></trkpt>
<trkpt lat="29.709543" lon="96.165988">
<time>2016-10-07T22:54:41Z</time></trkpt>
<trkpt lat="29.709563" lon="96.165928">
<time>2016-10-07T22:54:42Z</time></trkpt>
<trkpt lat="29.709583" lon="96.165878">
<time>2016-10-07T22:54:43Z</time></trkpt>
<trkpt lat="29.709593" lon="96.165818">
<time>2016-10-07T22:54:44Z</time></trkpt>
<trkpt lat="29.709603" lon="96.165748">
<time>2016-10-07T22:54:45Z</time></trkpt>
<trkpt lat="29.709603" lon="96.165677">
<time>2016-10-07T22:54:46Z</time></trkpt>
<trkpt lat="29.709602" lon="96.165617">
<time>2016-10-07T22:54:47Z</time></trkpt>
<trkpt lat="29.709602" lon="96.165577">
<time>2016-10-07T22:54:48Z</time></trkpt>
<trkpt lat="29.709592" lon="96.165527">
<time>2016-10-07T22:54:49Z</time></trkpt>
<trkpt lat="29.709562" lon="96.165427">
<time>2016-10-07T22:54:50Z</time></trkpt>
<trkpt lat="29.709552" lon="96.165366">
<time>2016-10-07T22:54:51Z</time></trkpt>
<trkpt lat="29.709502" lon="96.165206">
<time>2016-10-07T22:54:52Z</time></trkpt>
<trkpt lat="29.709401" lon="96.164925">
<time>2016-10-07T22:54:53Z</time></trkpt>
<trkpt lat="29.709321" lon="96.164674">
<time>2016-10-07T22:54:54Z</time></trkpt>
<trkpt lat="29.709281" lon="96.164584">
<time>2016-10-07T22:54:55Z</time></trkpt>
<trkpt lat="29.70926" lon="96.164504">
<time>2016-10-07T22:54:56Z</time></trkpt>
<trkpt lat="29.70924" lon="96.164424">
<time>2016-10-07T22:54:57Z</time></trkpt>
<trkpt lat="29.70922" lon="96.164333">
<time>2016-10-07T22:54:58Z</time></trkpt>
<trkpt lat="29.70921" lon="96.164283">
<time>2016-10-07T22:54:59Z</time></trkpt>
<trkpt lat="29.70921" lon="96.164243">
<time>2016-10-07T22:55:00Z</time></trkpt>
<trkpt lat="29.70921" lon="96.164163">
<time>2016-10-07T22:55:01Z</time></trkpt>
<trkpt lat="29.70921" lon="96.164093">
<time>2016-10-07T22:55:02Z</time></trkpt>
<trkpt lat="29.70921" lon="96.164043">
<time>2016-10-07T22:55:03Z</time></trkpt>
<trkpt lat="29.70922" lon="96.164003">
<time>2016-10-07T22:55:04Z</time></trkpt>
<trkpt lat="29.709239" lon="96.163892">
<time>2016-10-07T22:55:05Z</time></trkpt>
<trkpt lat="29.709259" lon="96.163812">
<time>2016-10-07T22:55:06Z</time></trkpt>
<trkpt lat="29.709279" lon="96.163712">
<time>2016-10-07T22:55:07Z</time></trkpt>
<trkpt lat="29.709339" lon="96.163501">
<time>2016-10-07T22:55:08Z</time></trkpt>
<trkpt lat="29.709388" lon="96.163291">
<time>2016-10-07T22:55:09Z</time></trkpt>
<trkpt lat="29.709428" lon="96.16314">
<time>2016-10-07T22:55:10Z</time></trkpt>
<trkpt lat="29.709458" lon="96.16301">
<time>2016-10-07T22:55:11Z</time></trkpt>
<trkpt lat="29.709507" lon="96.162839">
<time>2016-10-07T22:55:12Z</time></trkpt>
<trkpt lat="29.709537" lon="96.162749">
<time>2016-10-07T22:55:13Z</time></trkpt>
<trkpt lat="29.709567" lon="96.162689">
<time>2016-10-07T22:55:14Z</time></trkpt>
<trkpt lat="29.709587" lon="96.162639">
<time>2016-10-07T22:55:15Z</time></trkpt>
<trkpt lat="29.709627" lon="96.162568">
<time>2016-10-07T22:55:16Z</time></trkpt>
<trkpt lat="29.709677" lon="96.162518">
<time>2016-10-07T22:55:17Z</time></trkpt>
<trkpt lat="29.709717" lon="96.162468">
<time>2016-10-07T22:55:18Z</time></trkpt>
<trkpt lat="29.709757" lon="96.162438">
<time>2016-10-07T22:55:19Z</time></trkpt>
<trkpt lat="29.709796" lon="96.162408">
<time>2016-10-07T22:55:20Z</time></trkpt>
<trkpt lat="29.709876" lon="96.162358">
<time>2016-10-07T22:55:21Z</time></trkpt>
<trkpt lat="29.709966" lon="96.162308">
<time>2016-10-07T22:55:22Z</time></trkpt>
<trkpt lat="29.710166" lon="96.162207">
<time>2016-10-07T22:55:23Z</time></trkpt>
<trkpt lat="29.710286" lon="96.162137">
<time>2016-10-07T22:55:24Z</time></trkpt>
<trkpt lat="29.710446" lon="96.162057">
<time>2016-10-07T22:55:25Z</time></trkpt>
<trkpt lat="29.710546" lon="96.162007">
<time>2016-10-07T22:55:26Z</time></trkpt>
<trkpt lat="29.710665" lon="96.161947">
<time>2016-10-07T22:55:27Z</time></trkpt>
<trkpt lat="29.710755" lon="96.161886">
<time>2016-10-07T22:55:28Z</time></trkpt>
<trkpt lat="29.710805" lon="96.161856">
<time>2016-10-07T22:55:29Z</time></trkpt>
<trkpt lat="29.710845" lon="96.161826">
<time>2016-10-07T22:55:30Z</time></trkpt>
<trkpt lat="29.710875" lon="96.161796">
<time>2016-10-07T22:55:31Z</time></trkpt>
<trkpt lat="29.710905" lon="96.161776">
<time>2016-10-07T22:55:32Z</time></trkpt>
<trkpt lat="29.710935" lon="96.161736">
<time>2016-10-07T22:55:33Z</time></trkpt>
<trkpt lat="29.710975" lon="96.161696">
<time>2016-10-07T22:55:34Z</time></trkpt>
<trkpt lat="29.711025" lon="96.161616">
<time>2016-10-07T22:55:35Z</time></trkpt>
<trkpt lat="29.711085" lon="96.161525">
<time>2016-10-07T22:55:36Z</time></trkpt>
<trkpt lat="29.711164" lon="96.161395">
<time>2016-10-07T22:55:37Z</time></trkpt>
<trkpt lat="29.711264" lon="96.161225">
<time>2016-10-07T22:55:38Z</time></trkpt>
<trkpt lat="29.711374" lon="96.161054">
<time>2016-10-07T22:55:39Z</time></trkpt>
<trkpt lat="29.711503" lon="96.160843">
<time>2016-10-07T22:55:40Z</time></trkpt>
<trkpt lat="29.711553" lon="96.160763">
<time>2016-10-07T22:55:41Z</time></trkpt>
<trkpt lat="29.711593" lon="96.160713">
<time>2016-10-07T22:55:42Z</time></trkpt>
<trkpt lat="29.711633" lon="96.160653">
<time>2016-10-07T22:55:43Z</time></trkpt>
<trkpt lat="29.711673" lon="96.160603">
<time>2016-10-07T22:55:44Z</time></trkpt>
<trkpt lat="29.711723" lon="96.160543">
<time>2016-10-07T22:55:45Z</time></trkpt>
<trkpt lat="29.711803" lon="96.160452">
<time>2016-10-07T22:55:46Z</time></trkpt>
<trkpt lat="29.711912" lon="96.160322">
<time>2016-10-07T22:55:47Z</time></trkpt>
<trkpt lat="29.711992" lon="96.160232">
<time>2016-10-07T22:55:48Z</time></trkpt>
<trkpt lat="29.712072" lon="96.160121">
<time>2016-10-07T22:55:49Z</time></trkpt>
<trkpt lat="29.712122" lon="96.160051">
<time>2016-10-07T22:55:50Z</time></trkpt>
<trkpt lat="29.712142" lon="96.160001">
<time>2016-10-07T22:55:51Z</time></trkpt>
<trkpt lat="29.712191" lon="96.159921">
<time>2016-10-07T22:55:52Z</time></trkpt>
<trkpt lat="29.712271" lon="96.15975">
<time>2016-10-07T22:55:53Z</time></trkpt>
<trkpt lat="29.712321" lon="96.15963">
<time>2016-10-07T22:55:54Z</time></trkpt>
<trkpt lat="29.712361" lon="96.15954">
<time>2016-10-07T22:55:55Z</time></trkpt>
<trkpt lat="29.712391" lon="96.159429">
<time>2016-10-07T22:55:56Z</time></trkpt>
<trkpt lat="29.71241" lon="96.159349">
<time>2016-10-07T22:55:57Z</time></trkpt>
<trkpt lat="29.71243" lon="96.159269">
<time>2016-10-07T22:55:58Z</time></trkpt>
<trkpt lat="29.71245" lon="96.159149">
<time>2016-10-07T22:55:59Z</time></trkpt>
<trkpt lat="29.71246" lon="96.159048">
<time>2016-10-07T22:56:00Z</time></trkpt>
<trkpt lat="29.71247" lon="96.158958">
<time>2016-10-07T22:56:01Z</time></trkpt>
<trkpt lat="29.712479" lon="96.158858">
<time>2016-10-07T22:56:02Z</time></trkpt>
<trkpt lat="29.712489" lon="96.158677">
<time>2016-10-07T22:56:03Z</time></trkpt>
<trkpt lat="29.712489" lon="96.158587">
<time>2016-10-07T22:56:04Z</time></trkpt>
<trkpt lat="29.712489" lon="96.158507">
<time>2016-10-07T22:56:05Z</time></trkpt>
<trkpt lat="29.712479" lon="96.158386">
<time>2016-10-07T22:56:06Z</time></trkpt>
<trkpt lat="29.712468" lon="96.158256">
<time>2016-10-07T22:56:07Z</time></trkpt>
<trkpt lat="29.712448" lon="96.158136">
<time>2016-10-07T22:56:08Z</time></trkpt>
<trkpt lat="29.712438" lon="96.158035">
<time>2016-10-07T22:56:09Z</time></trkpt>
<trkpt lat="29.712398" lon="96.157875">
<time>2016-10-07T22:56:10Z</time></trkpt>
<trkpt lat="29.712347" lon="96.157725">
<time>2016-10-07T22:56:11Z</time></trkpt>
<trkpt lat="29.712307" lon="96.157564">
<time>2016-10-07T22:56:12Z</time></trkpt>
<trkpt lat="29.712237" lon="96.157334">
<time>2016-10-07T22:56:13Z</time></trkpt>
<trkpt lat="29.712196" lon="96.157183">
<time>2016-10-07T22:56:14Z</time></trkpt>
<trkpt lat="29.712096" lon="96.156862">
<time>2016-10-07T22:56:15Z</time></trkpt>
<trkpt lat="29.712025" lon="96.156601">
<time>2016-10-07T22:56:16Z</time></trkpt>
<trkpt lat="29.711965" lon="96.156421">
<time>2016-10-07T22:56:17Z</time></trkpt>
<trkpt lat="29.711895" lon="96.15617">
<time>2016-10-07T22:56:18Z</time></trkpt>
<trkpt lat="29.711865" lon="96.15605">
<time>2016-10-07T22:56:19Z</time></trkpt>
<trkpt lat="29.711824" lon="96.15591">
<time>2016-10-07T22:56:20Z</time></trkpt>
<trkpt lat="29.711804" lon="96.155779">
<time>2016-10-07T22:56:21Z</time></trkpt>
<trkpt lat="29.711784" lon="96.155689">
<time>2016-10-07T22:56:22Z</time></trkpt>
<trkpt lat="29.711774" lon="96.155599">
<time>2016-10-07T22:56:23Z</time></trkpt>
<trkpt lat="29.711764" lon="96.155508">
<time>2016-10-07T22:56:24Z</time></trkpt>
<trkpt lat="29.711753" lon="96.155398">
<time>2016-10-07T22:56:25Z</time></trkpt>
<trkpt lat="29.711743" lon="96.155288">
<time>2016-10-07T22:56:26Z</time></trkpt>
<trkpt lat="29.711733" lon="96.155117">
<time>2016-10-07T22:56:27Z</time></trkpt>
<trkpt lat="29.711733" lon="96.154937">
<time>2016-10-07T22:56:28Z</time></trkpt>
<trkpt lat="29.711722" lon="96.154766">
<time>2016-10-07T22:56:29Z</time></trkpt>
<trkpt lat="29.711722" lon="96.154576">
<time>2016-10-07T22:56:30Z</time></trkpt>
<trkpt lat="29.711722" lon="96.154395">
<time>2016-10-07T22:56:31Z</time></trkpt>
<trkpt lat="29.711731" lon="96.154235">
<time>2016-10-07T22:56:32Z</time></trkpt>
<trkpt lat="29.711741" lon="96.153974">
<time>2016-10-07T22:56:33Z</time></trkpt>
<trkpt lat="29.711741" lon="96.153844">
<time>2016-10-07T22:56:34Z</time></trkpt>
<trkpt lat="29.71175" lon="96.153633">
<time>2016-10-07T22:56:35Z</time></trkpt>
<trkpt lat="29.71176" lon="96.153453">
<time>2016-10-07T22:56:36Z</time></trkpt>
<trkpt lat="29.711779" lon="96.153182">
<time>2016-10-07T22:56:37Z</time></trkpt>
<trkpt lat="29.711789" lon="96.152981">
<time>2016-10-07T22:56:38Z</time></trkpt>
<trkpt lat="29.711799" lon="96.152771">
<time>2016-10-07T22:56:39Z</time></trkpt>
<trkpt lat="29.711818" lon="96.15255">
<time>2016-10-07T22:56:40Z</time></trkpt>
<trkpt lat="29.711828" lon="96.152289">
<time>2016-10-07T22:56:41Z</time></trkpt>
<trkpt lat="29.711847" lon="96.151959">
<time>2016-10-07T22:56:42Z</time></trkpt>
<trkpt lat="29.711876" lon="96.151457">
<time>2016-10-07T22:56:43Z</time></trkpt>
<trkpt lat="29.711896" lon="96.151176">
<time>2016-10-07T22:56:44Z</time></trkpt>
<trkpt lat="29.711925" lon="96.150705">
<time>2016-10-07T22:56:45Z</time></trkpt>
<trkpt lat="29.711945" lon="96.150454">
<time>2016-10-07T22:56:46Z</time></trkpt>
<trkpt lat="29.711954" lon="96.150224">
<time>2016-10-07T22:56:47Z</time></trkpt>
<trkpt lat="29.711964" lon="96.150104">
<time>2016-10-07T22:56:48Z</time></trkpt>
<trkpt lat="29.711994" lon="96.149833">
<time>2016-10-07T22:56:49Z</time></trkpt>
<trkpt lat="29.712013" lon="96.149562">
<time>2016-10-07T22:56:50Z</time></trkpt>
<trkpt lat="29.712023" lon="96.149412">
<time>2016-10-07T22:56:51Z</time></trkpt>
<trkpt lat="29.712043" lon="96.149191">
<time>2016-10-07T22:56:52Z</time></trkpt>
<trkpt lat="29.712062" lon="96.148991">
<time>2016-10-07T22:56:53Z</time></trkpt>
<trkpt lat="29.712072" lon="96.1488">
<time>2016-10-07T22:56:54Z</time></trkpt>
<trkpt lat="29.712082" lon="96.14866">
<time>2016-10-07T22:56:55Z</time></trkpt>
<trkpt lat="29.712101" lon="96.148449">
<time>2016-10-07T22:56:56Z</time></trkpt>
<trkpt lat="29.712111" lon="96.148349">
<time>2016-10-07T22:56:57Z</time></trkpt>
<trkpt lat="29.712121" lon="96.148259">
<time>2016-10-07T22:56:58Z</time></trkpt>
<trkpt lat="29.712141" lon="96.148158">
<time>2016-10-07T22:56:59Z</time></trkpt>
<trkpt lat="29.712171" lon="96.148028">
<time>2016-10-07T22:57:00Z</time></trkpt>
<trkpt lat="29.71221" lon="96.147858">
<time>2016-10-07T22:57:01Z</time></trkpt>
<trkpt lat="29.71226" lon="96.147657">
<time>2016-10-07T22:57:02Z</time></trkpt>
<trkpt lat="29.71232" lon="96.147456">
<time>2016-10-07T22:57:03Z</time></trkpt>
<trkpt lat="29.712349" lon="96.147286">
<time>2016-10-07T22:57:04Z</time></trkpt>
<trkpt lat="29.712379" lon="96.147186">
<time>2016-10-07T22:57:05Z</time></trkpt>
<trkpt lat="29.712409" lon="96.146985">
<time>2016-10-07T22:57:06Z</time></trkpt>
<trkpt lat="29.712429" lon="96.146845">
<time>2016-10-07T22:57:07Z</time></trkpt>
<trkpt lat="29.712438" lon="96.146724">
<time>2016-10-07T22:57:08Z</time></trkpt>
<trkpt lat="29.712458" lon="96.146514">
<time>2016-10-07T22:57:09Z</time></trkpt>
<trkpt lat="29.712458" lon="96.146414">
<time>2016-10-07T22:57:10Z</time></trkpt>
<trkpt lat="29.712477" lon="96.145782">
<time>2016-10-07T22:57:11Z</time></trkpt>
<trkpt lat="29.712476" lon="96.1451">
<time>2016-10-07T22:57:12Z</time></trkpt>
<trkpt lat="29.712474" lon="96.144378">
<time>2016-10-07T22:57:13Z</time></trkpt>
<trkpt lat="29.712474" lon="96.144088">
<time>2016-10-07T22:57:14Z</time></trkpt>
<trkpt lat="29.712474" lon="96.143917">
<time>2016-10-07T22:57:15Z</time></trkpt>
<trkpt lat="29.712473" lon="96.143677">
<time>2016-10-07T22:57:16Z</time></trkpt>
<trkpt lat="29.712473" lon="96.143436">
<time>2016-10-07T22:57:17Z</time></trkpt>
<trkpt lat="29.712483" lon="96.143175">
<time>2016-10-07T22:57:18Z</time></trkpt>
<trkpt lat="29.712482" lon="96.143035">
<time>2016-10-07T22:57:19Z</time></trkpt>
<trkpt lat="29.712492" lon="96.142955">
<time>2016-10-07T22:57:20Z</time></trkpt>
<trkpt lat="29.712502" lon="96.142864">
<time>2016-10-07T22:57:21Z</time></trkpt>
<trkpt lat="29.712512" lon="96.142744">
<time>2016-10-07T22:57:22Z</time></trkpt>
<trkpt lat="29.712532" lon="96.142654">
<time>2016-10-07T22:57:23Z</time></trkpt>
<trkpt lat="29.712562" lon="96.142534">
<time>2016-10-07T22:57:24Z</time></trkpt>
<trkpt lat="29.712601" lon="96.142363">
<time>2016-10-07T22:57:25Z</time></trkpt>
<trkpt lat="29.712651" lon="96.142193">
<time>2016-10-07T22:57:26Z</time></trkpt>
<trkpt lat="29.712711" lon="96.142032">
<time>2016-10-07T22:57:27Z</time></trkpt>
<trkpt lat="29.71279" lon="96.141822">
<time>2016-10-07T22:57:28Z</time></trkpt>
<trkpt lat="29.71284" lon="96.141691">
<time>2016-10-07T22:57:29Z</time></trkpt>
<trkpt lat="29.7129" lon="96.141561">
<time>2016-10-07T22:57:30Z</time></trkpt>
<trkpt lat="29.71302" lon="96.141331">
<time>2016-10-07T22:57:31Z</time></trkpt>
<trkpt lat="29.713069" lon="96.14122">
<time>2016-10-07T22:57:32Z</time></trkpt>
<trkpt lat="29.713129" lon="96.14112">
<time>2016-10-07T22:57:33Z</time></trkpt>
<trkpt lat="29.713219" lon="96.14097">
<time>2016-10-07T22:57:34Z</time></trkpt>
<trkpt lat="29.713309" lon="96.140819">
<time>2016-10-07T22:57:35Z</time></trkpt>
<trkpt lat="29.713399" lon="96.140669">
<time>2016-10-07T22:57:36Z</time></trkpt>
<trkpt lat="29.713488" lon="96.140569">
<time>2016-10-07T22:57:37Z</time></trkpt>
<trkpt lat="29.713578" lon="96.140458">
<time>2016-10-07T22:57:38Z</time></trkpt>
<trkpt lat="29.713668" lon="96.140358">
<time>2016-10-07T22:57:39Z</time></trkpt>
<trkpt lat="29.713808" lon="96.140218">
<time>2016-10-07T22:57:40Z</time></trkpt>
<trkpt lat="29.713938" lon="96.140087">
<time>2016-10-07T22:57:41Z</time></trkpt>
<trkpt lat="29.714057" lon="96.139977">
<time>2016-10-07T22:57:42Z</time></trkpt>
<trkpt lat="29.714207" lon="96.139827">
<time>2016-10-07T22:57:43Z</time></trkpt>
<trkpt lat="29.714407" lon="96.139636">
<time>2016-10-07T22:57:44Z</time></trkpt>
<trkpt lat="29.714676" lon="96.139376">
<time>2016-10-07T22:57:45Z</time></trkpt>
<trkpt lat="29.714976" lon="96.139095">
<time>2016-10-07T22:57:46Z</time></trkpt>
<trkpt lat="29.715305" lon="96.138784">
<time>2016-10-07T22:57:47Z</time></trkpt>
<trkpt lat="29.715615" lon="96.138483">
<time>2016-10-07T22:57:48Z</time></trkpt>
<trkpt lat="29.715725" lon="96.138383">
<time>2016-10-07T22:57:49Z</time></trkpt>
<trkpt lat="29.716054" lon="96.138072">
<time>2016-10-07T22:57:50Z</time></trkpt>
<trkpt lat="29.716264" lon="96.137872">
<time>2016-10-07T22:57:51Z</time></trkpt>
<trkpt lat="29.716404" lon="96.137752">
<time>2016-10-07T22:57:52Z</time></trkpt>
<trkpt lat="29.716494" lon="96.137671">
<time>2016-10-07T22:57:53Z</time></trkpt>
<trkpt lat="29.716633" lon="96.137561">
<time>2016-10-07T22:57:54Z</time></trkpt>
<trkpt lat="29.716693" lon="96.137501">
<time>2016-10-07T22:57:55Z</time></trkpt>
<trkpt lat="29.716753" lon="96.137451">
<time>2016-10-07T22:57:56Z</time></trkpt>
<trkpt lat="29.716823" lon="96.137371">
<time>2016-10-07T22:57:57Z</time></trkpt>
<trkpt lat="29.716893" lon="96.137291">
<time>2016-10-07T22:57:58Z</time></trkpt>
<trkpt lat="29.716983" lon="96.13718">
<time>2016-10-07T22:57:59Z</time></trkpt>
<trkpt lat="29.717073" lon="96.13707">
<time>2016-10-07T22:58:00Z</time></trkpt>
<trkpt lat="29.717192" lon="96.1369">
<time>2016-10-07T22:58:01Z</time></trkpt>
<trkpt lat="29.717332" lon="96.136709">
<time>2016-10-07T22:58:02Z</time></trkpt>
<trkpt lat="29.717472" lon="96.136509">
<time>2016-10-07T22:58:03Z</time></trkpt>
<trkpt lat="29.717621" lon="96.136318">
<time>2016-10-07T22:58:04Z</time></trkpt>
<trkpt lat="29.717711" lon="96.136188">
<time>2016-10-07T22:58:05Z</time></trkpt>
<trkpt lat="29.717831" lon="96.136048">
<time>2016-10-07T22:58:06Z</time></trkpt>
<trkpt lat="29.717901" lon="96.135957">
<time>2016-10-07T22:58:07Z</time></trkpt>
<trkpt lat="29.717981" lon="96.135867">
<time>2016-10-07T22:58:08Z</time></trkpt>
<trkpt lat="29.71813" lon="96.135707">
<time>2016-10-07T22:58:09Z</time></trkpt>
<trkpt lat="29.71833" lon="96.135516">
<time>2016-10-07T22:58:10Z</time></trkpt>
<trkpt lat="29.71852" lon="96.135326">
<time>2016-10-07T22:58:11Z</time></trkpt>
<trkpt lat="29.71873" lon="96.135105">
<time>2016-10-07T22:58:12Z</time></trkpt>
<trkpt lat="29.718849" lon="96.134975">
<time>2016-10-07T22:58:13Z</time></trkpt>
<trkpt lat="29.718959" lon="96.134845">
<time>2016-10-07T22:58:14Z</time></trkpt>
<trkpt lat="29.719059" lon="96.134724">
<time>2016-10-07T22:58:15Z</time></trkpt>
<trkpt lat="29.719239" lon="96.134484">
<time>2016-10-07T22:58:16Z</time></trkpt>
<trkpt lat="29.719438" lon="96.134213">
<time>2016-10-07T22:58:17Z</time></trkpt>
<trkpt lat="29.719558" lon="96.134063">
<time>2016-10-07T22:58:18Z</time></trkpt>
<trkpt lat="29.719628" lon="96.133973">
<time>2016-10-07T22:58:19Z</time></trkpt>
<trkpt lat="29.719798" lon="96.133752">
<time>2016-10-07T22:58:20Z</time></trkpt>
<trkpt lat="29.719907" lon="96.133612">
<time>2016-10-07T22:58:21Z</time></trkpt>
<trkpt lat="29.719957" lon="96.133562">
<time>2016-10-07T22:58:22Z</time></trkpt>
<trkpt lat="29.719997" lon="96.133512">
<time>2016-10-07T22:58:23Z</time></trkpt>
<trkpt lat="29.720037" lon="96.133472">
<time>2016-10-07T22:58:24Z</time></trkpt>
<trkpt lat="29.720077" lon="96.133431">
<time>2016-10-07T22:58:25Z</time></trkpt>
<trkpt lat="29.720157" lon="96.133381">
<time>2016-10-07T22:58:26Z</time></trkpt>
<trkpt lat="29.720237" lon="96.133331">
<time>2016-10-07T22:58:27Z</time></trkpt>
<trkpt lat="29.720287" lon="96.133311">
<time>2016-10-07T22:58:28Z</time></trkpt>
<trkpt lat="29.720327" lon="96.133291">
<time>2016-10-07T22:58:29Z</time></trkpt>
<trkpt lat="29.720387" lon="96.133271">
<time>2016-10-07T22:58:30Z</time></trkpt>
<trkpt lat="29.720467" lon="96.133251">
<time>2016-10-07T22:58:31Z</time></trkpt>
<trkpt lat="29.720547" lon="96.133241">
<time>2016-10-07T22:58:32Z</time></trkpt>
<trkpt lat="29.720637" lon="96.133241">
<time>2016-10-07T22:58:33Z</time></trkpt>
<trkpt lat="29.720727" lon="96.133241">
<time>2016-10-07T22:58:34Z</time></trkpt>
<trkpt lat="29.720947" lon="96.133261">
<time>2016-10-07T22:58:35Z</time></trkpt>
<trkpt lat="29.721167" lon="96.133291">
<time>2016-10-07T22:58:36Z</time></trkpt>
<trkpt lat="29.721417" lon="96.133301">
<time>2016-10-07T22:58:37Z</time></trkpt>
<trkpt lat="29.721487" lon="96.133301">
<time>2016-10-07T22:58:38Z</time></trkpt>
<trkpt lat="29.721597" lon="96.133301">
<time>2016-10-07T22:58:39Z</time></trkpt>
<trkpt lat="29.721787" lon="96.133291">
<time>2016-10-07T22:58:40Z</time></trkpt>
<trkpt lat="29.722117" lon="96.133281">
<time>2016-10-07T22:58:41Z</time></trkpt>
<trkpt lat="29.722297" lon="96.133281">
<time>2016-10-07T22:58:42Z</time></trkpt>
<trkpt lat="29.722506" lon="96.133261">
<time>2016-10-07T22:58:43Z</time></trkpt>
<trkpt lat="29.722646" lon="96.133251">
<time>2016-10-07T22:58:44Z</time></trkpt>
<trkpt lat="29.722786" lon="96.133231">
<time>2016-10-07T22:58:45Z</time></trkpt>
<trkpt lat="29.722886" lon="96.133201">
<time>2016-10-07T22:58:46Z</time></trkpt>
<trkpt lat="29.722976" lon="96.133161">
<time>2016-10-07T22:58:47Z</time></trkpt>
<trkpt lat="29.723066" lon="96.133121">
<time>2016-10-07T22:58:48Z</time></trkpt>
<trkpt lat="29.723146" lon="96.133071">
<time>2016-10-07T22:58:49Z</time></trkpt>
<trkpt lat="29.723216" lon="96.13301">
<time>2016-10-07T22:58:50Z</time></trkpt>
<trkpt lat="29.723316" lon="96.13294">
<time>2016-10-07T22:58:51Z</time></trkpt>
<trkpt lat="29.723436" lon="96.13284">
<time>2016-10-07T22:58:52Z</time></trkpt>
<trkpt lat="29.723566" lon="96.13273">
<time>2016-10-07T22:58:53Z</time></trkpt>
<trkpt lat="29.723785" lon="96.132549">
<time>2016-10-07T22:58:54Z</time></trkpt>
<trkpt lat="29.723945" lon="96.132419">
<time>2016-10-07T22:58:55Z</time></trkpt>
<trkpt lat="29.724415" lon="96.132028">
<time>2016-10-07T22:58:56Z</time></trkpt>
<trkpt lat="29.725014" lon="96.131537">
<time>2016-10-07T22:58:57Z</time></trkpt>
<trkpt lat="29.725254" lon="96.131347">
<time>2016-10-07T22:58:58Z</time></trkpt>
<trkpt lat="29.725703" lon="96.130966">
<time>2016-10-07T22:58:59Z</time></trkpt>
<trkpt lat="29.725873" lon="96.130825">
<time>2016-10-07T22:59:00Z</time></trkpt>
<trkpt lat="29.725973" lon="96.130755">
<time>2016-10-07T22:59:01Z</time></trkpt>
<trkpt lat="29.726732" lon="96.130134">
<time>2016-10-07T22:59:02Z</time></trkpt>
<trkpt lat="29.726951" lon="96.129954">
<time>2016-10-07T22:59:03Z</time></trkpt>
<trkpt lat="29.727521" lon="96.129472">
<time>2016-10-07T22:59:04Z</time></trkpt>
<trkpt lat="29.72782" lon="96.129232">
<time>2016-10-07T22:59:05Z</time></trkpt>
<trkpt lat="29.72833" lon="96.128811">
<time>2016-10-07T22:59:06Z</time></trkpt>
<trkpt lat="29.72864" lon="96.12856">
<time>2016-10-07T22:59:07Z</time></trkpt>
<trkpt lat="29.728949" lon="96.1283">
<time>2016-10-07T22:59:08Z</time></trkpt>
<trkpt lat="29.729269" lon="96.128049">
<time>2016-10-07T22:59:09Z</time></trkpt>
<trkpt lat="29.729738" lon="96.127659">
<time>2016-10-07T22:59:10Z</time></trkpt>
<trkpt lat="29.730118" lon="96.127348">
<time>2016-10-07T22:59:11Z</time></trkpt>
<trkpt lat="29.730368" lon="96.127137">
<time>2016-10-07T22:59:12Z</time></trkpt>
<trkpt lat="29.730517" lon="96.127007">
<time>2016-10-07T22:59:13Z</time></trkpt>
<trkpt lat="29.730827" lon="96.126757">
<time>2016-10-07T22:59:14Z</time></trkpt>
<trkpt lat="29.731127" lon="96.126516">
<time>2016-10-07T22:59:15Z</time></trkpt>
<trkpt lat="29.731436" lon="96.126266">
<time>2016-10-07T22:59:16Z</time></trkpt>
<trkpt lat="29.731936" lon="96.125845">
<time>2016-10-07T22:59:17Z</time></trkpt>
<trkpt lat="29.732345" lon="96.125514">
<time>2016-10-07T22:59:18Z</time></trkpt>
<trkpt lat="29.732915" lon="96.125053">
<time>2016-10-07T22:59:19Z</time></trkpt>
<trkpt lat="29.733914" lon="96.124231">
<time>2016-10-07T22:59:20Z</time></trkpt>
<trkpt lat="29.734793" lon="96.12351">
<time>2016-10-07T22:59:21Z</time></trkpt>
<trkpt lat="29.735612" lon="96.122839">
<time>2016-10-07T22:59:22Z</time></trkpt>
<trkpt lat="29.735862" lon="96.122628">
<time>2016-10-07T22:59:23Z</time></trkpt>
<trkpt lat="29.736841" lon="96.121827">
<time>2016-10-07T22:59:24Z</time></trkpt>
<trkpt lat="29.737351" lon="96.121416">
<time>2016-10-07T22:59:25Z</time></trkpt>
<trkpt lat="29.73758" lon="96.121226">
<time>2016-10-07T22:59:26Z</time></trkpt>
<trkpt lat="29.73813" lon="96.120775">
<time>2016-10-07T22:59:27Z</time></trkpt>
<trkpt lat="29.738599" lon="96.120384">
<time>2016-10-07T22:59:28Z</time></trkpt>
<trkpt lat="29.738829" lon="96.120194">
<time>2016-10-07T22:59:29Z</time></trkpt>
<trkpt lat="29.739119" lon="96.119953">
<time>2016-10-07T22:59:30Z</time></trkpt>
<trkpt lat="29.739449" lon="96.119683">
<time>2016-10-07T22:59:31Z</time></trkpt>
<trkpt lat="29.739708" lon="96.119472">
<time>2016-10-07T22:59:32Z</time></trkpt>
<trkpt lat="29.739838" lon="96.119362">
<time>2016-10-07T22:59:33Z</time></trkpt>
<trkpt lat="29.739918" lon="96.119272">
<time>2016-10-07T22:59:34Z</time></trkpt>
<trkpt lat="29.740098" lon="96.119082">
<time>2016-10-07T22:59:35Z</time></trkpt>
<trkpt lat="29.740228" lon="96.118921">
<time>2016-10-07T22:59:36Z</time></trkpt>
<trkpt lat="29.740358" lon="96.118751">
<time>2016-10-07T22:59:37Z</time></trkpt>
<trkpt lat="29.740477" lon="96.118581">
<time>2016-10-07T22:59:38Z</time></trkpt>
<trkpt lat="29.740827" lon="96.11808">
<time>2016-10-07T22:59:39Z</time></trkpt>
<trkpt lat="29.741187" lon="96.117569">
<time>2016-10-07T22:59:40Z</time></trkpt>
<trkpt lat="29.741336" lon="96.117359">
<time>2016-10-07T22:59:41Z</time></trkpt>
<trkpt lat="29.741636" lon="96.116928">
<time>2016-10-07T22:59:42Z</time></trkpt>
<trkpt lat="29.741716" lon="96.116808">
<time>2016-10-07T22:59:43Z</time></trkpt>
<trkpt lat="29.741796" lon="96.116688">
<time>2016-10-07T22:59:44Z</time></trkpt>
<trkpt lat="29.741846" lon="96.116607">
<time>2016-10-07T22:59:45Z</time></trkpt>
<trkpt lat="29.741896" lon="96.116497">
<time>2016-10-07T22:59:46Z</time></trkpt>
<trkpt lat="29.741975" lon="96.116297">
<time>2016-10-07T22:59:47Z</time></trkpt>
<trkpt lat="29.742055" lon="96.116097">
<time>2016-10-07T22:59:48Z</time></trkpt>
<trkpt lat="29.742175" lon="96.115726">
<time>2016-10-07T22:59:49Z</time></trkpt>
<trkpt lat="29.742235" lon="96.115546">
<time>2016-10-07T22:59:50Z</time></trkpt>
<trkpt lat="29.742444" lon="96.114865">
<time>2016-10-07T22:59:51Z</time></trkpt>
<trkpt lat="29.742554" lon="96.114514">
<time>2016-10-07T22:59:52Z</time></trkpt>
<trkpt lat="29.742684" lon="96.114103">
<time>2016-10-07T22:59:53Z</time></trkpt>
<trkpt lat="29.742783" lon="96.113783">
<time>2016-10-07T22:59:54Z</time></trkpt>
<trkpt lat="29.742963" lon="96.113202">
<time>2016-10-07T22:59:55Z</time></trkpt>
<trkpt lat="29.743093" lon="96.112781">
<time>2016-10-07T22:59:56Z</time></trkpt>
<trkpt lat="29.743302" lon="96.11211">
<time>2016-10-07T22:59:57Z</time></trkpt>
<trkpt lat="29.743512" lon="96.111439">
<time>2016-10-07T22:59:58Z</time></trkpt>
<trkpt lat="29.743602" lon="96.111179">
<time>2016-10-07T22:59:59Z</time></trkpt>
<trkpt lat="29.743921" lon="96.110168">
<time>2016-10-07T23:00:00Z</time></trkpt>
<trkpt lat="29.743981" lon="96.109967">
<time>2016-10-07T23:00:01Z</time></trkpt>
<trkpt lat="29.744041" lon="96.109767">
<time>2016-10-07T23:00:02Z</time></trkpt>
<trkpt lat="29.744131" lon="96.109507">
<time>2016-10-07T23:00:03Z</time></trkpt>
<trkpt lat="29.744221" lon="96.109266">
<time>2016-10-07T23:00:04Z</time></trkpt>
<trkpt lat="29.74433" lon="96.109006">
<time>2016-10-07T23:00:05Z</time></trkpt>
<trkpt lat="29.74445" lon="96.108766">
<time>2016-10-07T23:00:06Z</time></trkpt>
<trkpt lat="29.74455" lon="96.108595">
<time>2016-10-07T23:00:07Z</time></trkpt>
<trkpt lat="29.74468" lon="96.108365">
<time>2016-10-07T23:00:08Z</time></trkpt>
<trkpt lat="29.74484" lon="96.108075">
<time>2016-10-07T23:00:09Z</time></trkpt>
<trkpt lat="29.74497" lon="96.107844">
<time>2016-10-07T23:00:10Z</time></trkpt>
<trkpt lat="29.74523" lon="96.107384">
<time>2016-10-07T23:00:11Z</time></trkpt>
<trkpt lat="29.745819" lon="96.106343">
<time>2016-10-07T23:00:12Z</time></trkpt>
<trkpt lat="29.746339" lon="96.105401">
<time>2016-10-07T23:00:13Z</time></trkpt>
<trkpt lat="29.746938" lon="96.10433">
<time>2016-10-07T23:00:14Z</time></trkpt>
<trkpt lat="29.747158" lon="96.10394">
<time>2016-10-07T23:00:15Z</time></trkpt>
<trkpt lat="29.747608" lon="96.103149">
<time>2016-10-07T23:00:16Z</time></trkpt>
<trkpt lat="29.747728" lon="96.102939">
<time>2016-10-07T23:00:17Z</time></trkpt>
<trkpt lat="29.747898" lon="96.102688">
<time>2016-10-07T23:00:18Z</time></trkpt>
<trkpt lat="29.748428" lon="96.101948">
<time>2016-10-07T23:00:19Z</time></trkpt>
<trkpt lat="29.748897" lon="96.101317">
<time>2016-10-07T23:00:20Z</time></trkpt>
<trkpt lat="29.749187" lon="96.100907">
<time>2016-10-07T23:00:21Z</time></trkpt>
<trkpt lat="29.749287" lon="96.100766">
<time>2016-10-07T23:00:22Z</time></trkpt>
<trkpt lat="29.749367" lon="96.100646">
<time>2016-10-07T23:00:23Z</time></trkpt>
<trkpt lat="29.749447" lon="96.100516">
<time>2016-10-07T23:00:24Z</time></trkpt>
<trkpt lat="29.749507" lon="96.100386">
<time>2016-10-07T23:00:25Z</time></trkpt>
<trkpt lat="29.749547" lon="96.100266">
<time>2016-10-07T23:00:26Z</time></trkpt>
<trkpt lat="29.749597" lon="96.100116">
<time>2016-10-07T23:00:27Z</time></trkpt>
<trkpt lat="29.749597" lon="96.100056">
<time>2016-10-07T23:00:28Z</time></trkpt>
<trkpt lat="29.749617" lon="96.099986">
<time>2016-10-07T23:00:29Z</time></trkpt>
<trkpt lat="29.749627" lon="96.099906">
<time>2016-10-07T23:00:30Z</time></trkpt>
<trkpt lat="29.749637" lon="96.099765">
<time>2016-10-07T23:00:31Z</time></trkpt>
<trkpt lat="29.749647" lon="96.099615">
<time>2016-10-07T23:00:32Z</time></trkpt>
<trkpt lat="29.749657" lon="96.099435">
<time>2016-10-07T23:00:33Z</time></trkpt>
<trkpt lat="29.749647" lon="96.099275">
<time>2016-10-07T23:00:34Z</time></trkpt>
<trkpt lat="29.749637" lon="96.099105">
<time>2016-10-07T23:00:35Z</time></trkpt>
<trkpt lat="29.749627" lon="96.098965">
<time>2016-10-07T23:00:36Z</time></trkpt>
<trkpt lat="29.749577" lon="96.098584">
<time>2016-10-07T23:00:37Z</time></trkpt>
<trkpt lat="29.749497" lon="96.098074">
<time>2016-10-07T23:00:38Z</time></trkpt>
<trkpt lat="29.749197" lon="96.096002">
<time>2016-10-07T23:00:39Z</time></trkpt>
<trkpt lat="29.748857" lon="96.093711">
<time>2016-10-07T23:00:40Z</time></trkpt>
<trkpt lat="29.748817" lon="96.093411">
<time>2016-10-07T23:00:41Z</time></trkpt>
<trkpt lat="29.748807" lon="96.093251">
<time>2016-10-07T23:00:42Z</time></trkpt>
<trkpt lat="29.748797" lon="96.093101">
<time>2016-10-07T23:00:43Z</time></trkpt>
<trkpt lat="29.748797" lon="96.092911">
<time>2016-10-07T23:00:44Z</time></trkpt>
<trkpt lat="29.748818" lon="96.09268">
<time>2016-10-07T23:00:45Z</time></trkpt>
<trkpt lat="29.748878" lon="96.09219">
<time>2016-10-07T23:00:46Z</time></trkpt>
<trkpt lat="29.748968" lon="96.09158">
<time>2016-10-07T23:00:47Z</time></trkpt>
<trkpt lat="29.749108" lon="96.090529">
<time>2016-10-07T23:00:48Z</time></trkpt>
<trkpt lat="29.749208" lon="96.089839">
<time>2016-10-07T23:00:49Z</time></trkpt>
<trkpt lat="29.749248" lon="96.089529">
<time>2016-10-07T23:00:50Z</time></trkpt>
<trkpt lat="29.749268" lon="96.089289">
<time>2016-10-07T23:00:51Z</time></trkpt>
<trkpt lat="29.749269" lon="96.089169">
<time>2016-10-07T23:00:52Z</time></trkpt>
<trkpt lat="29.749259" lon="96.089059">
<time>2016-10-07T23:00:53Z</time></trkpt>
<trkpt lat="29.749239" lon="96.088939">
<time>2016-10-07T23:00:54Z</time></trkpt>
<trkpt lat="29.749219" lon="96.088839">
<time>2016-10-07T23:00:55Z</time></trkpt>
<trkpt lat="29.749169" lon="96.088719">
<time>2016-10-07T23:00:56Z</time></trkpt>
<trkpt lat="29.749149" lon="96.088669">
<time>2016-10-07T23:00:57Z</time></trkpt>
<trkpt lat="29.749109" lon="96.088589">
<time>2016-10-07T23:00:58Z</time></trkpt>
<trkpt lat="29.749049" lon="96.088509">
<time>2016-10-07T23:00:59Z</time></trkpt>
<trkpt lat="29.748979" lon="96.088419">
<time>2016-10-07T23:01:00Z</time></trkpt>
<trkpt lat="29.748899" lon="96.088329">
<time>2016-10-07T23:01:01Z</time></trkpt>
<trkpt lat="29.748829" lon="96.088278">
<time>2016-10-07T23:01:02Z</time></trkpt>
<trkpt lat="29.748659" lon="96.088168">
<time>2016-10-07T23:01:03Z</time></trkpt>
<trkpt lat="29.747849" lon="96.087678">
<time>2016-10-07T23:01:04Z</time></trkpt>
<trkpt lat="29.747739" lon="96.087608">
<time>2016-10-07T23:01:05Z</time></trkpt>
<trkpt lat="29.747629" lon="96.087528">
<time>2016-10-07T23:01:06Z</time></trkpt>
<trkpt lat="29.747539" lon="96.087458">
<time>2016-10-07T23:01:07Z</time></trkpt>
<trkpt lat="29.747449" lon="96.087368">
<time>2016-10-07T23:01:08Z</time></trkpt>
<trkpt lat="29.74734" lon="96.087258">
<time>2016-10-07T23:01:09Z</time></trkpt>
<trkpt lat="29.74727" lon="96.087168">
<time>2016-10-07T23:01:10Z</time></trkpt>
<trkpt lat="29.74721" lon="96.087088">
<time>2016-10-07T23:01:11Z</time></trkpt>
<trkpt lat="29.74716" lon="96.087008">
<time>2016-10-07T23:01:12Z</time></trkpt>
<trkpt lat="29.7471" lon="96.086898">
<time>2016-10-07T23:01:13Z</time></trkpt>
<trkpt lat="29.74701" lon="96.086738">
<time>2016-10-07T23:01:14Z</time></trkpt>
<trkpt lat="29.74695" lon="96.086568">
<time>2016-10-07T23:01:15Z</time></trkpt>
<trkpt lat="29.74688" lon="96.086348">
<time>2016-10-07T23:01:16Z</time></trkpt>
<trkpt lat="29.74679" lon="96.086028">
<time>2016-10-07T23:01:17Z</time></trkpt>
<trkpt lat="29.746541" lon="96.085128">
<time>2016-10-07T23:01:18Z</time></trkpt>
<trkpt lat="29.746281" lon="96.084208">
<time>2016-10-07T23:01:19Z</time></trkpt>
<trkpt lat="29.745802" lon="96.082518">
<time>2016-10-07T23:01:20Z</time></trkpt>
<trkpt lat="29.745314" lon="96.080768">
<time>2016-10-07T23:01:21Z</time></trkpt>
<trkpt lat="29.744965" lon="96.079488">
<time>2016-10-07T23:01:22Z</time></trkpt>
<trkpt lat="29.744765" lon="96.078788">
<time>2016-10-07T23:01:23Z</time></trkpt>
<trkpt lat="29.744496" lon="96.077838">
<time>2016-10-07T23:01:24Z</time></trkpt>
<trkpt lat="29.744357" lon="96.077398">
<time>2016-10-07T23:01:25Z</time></trkpt>
<trkpt lat="29.744267" lon="96.077138">
<time>2016-10-07T23:01:26Z</time></trkpt>
<trkpt lat="29.744167" lon="96.076878">
<time>2016-10-07T23:01:27Z</time></trkpt>
<trkpt lat="29.743938" lon="96.076348">
<time>2016-10-07T23:01:28Z</time></trkpt>
<trkpt lat="29.743758" lon="96.075969">
<time>2016-10-07T23:01:29Z</time></trkpt>
<trkpt lat="29.743469" lon="96.075449">
<time>2016-10-07T23:01:30Z</time></trkpt>
<trkpt lat="29.743169" lon="96.074979">
<time>2016-10-07T23:01:31Z</time></trkpt>
<trkpt lat="29.74288" lon="96.074539">
<time>2016-10-07T23:01:32Z</time></trkpt>
<trkpt lat="29.74254" lon="96.074039">
<time>2016-10-07T23:01:33Z</time></trkpt>
<trkpt lat="29.741462" lon="96.07242">
<time>2016-10-07T23:01:34Z</time></trkpt>
<trkpt lat="29.740554" lon="96.071081">
<time>2016-10-07T23:01:35Z</time></trkpt>
<trkpt lat="29.739137" lon="96.068972">
<time>2016-10-07T23:01:36Z</time></trkpt>
<trkpt lat="29.738109" lon="96.067423">
<time>2016-10-07T23:01:37Z</time></trkpt>
<trkpt lat="29.737181" lon="96.066044">
<time>2016-10-07T23:01:38Z</time></trkpt>
<trkpt lat="29.736762" lon="96.065395">
<time>2016-10-07T23:01:39Z</time></trkpt>
<trkpt lat="29.736592" lon="96.065055">
<time>2016-10-07T23:01:40Z</time></trkpt>
<trkpt lat="29.736383" lon="96.064605">
<time>2016-10-07T23:01:41Z</time></trkpt>
<trkpt lat="29.736054" lon="96.063886">
<time>2016-10-07T23:01:42Z</time></trkpt>
<trkpt lat="29.735974" lon="96.063666">
<time>2016-10-07T23:01:43Z</time></trkpt>
<trkpt lat="29.735915" lon="96.063496">
<time>2016-10-07T23:01:44Z</time></trkpt>
<trkpt lat="29.735895" lon="96.063396">
<time>2016-10-07T23:01:45Z</time></trkpt>
<trkpt lat="29.735875" lon="96.063307">
<time>2016-10-07T23:01:46Z</time></trkpt>
<trkpt lat="29.735825" lon="96.063077">
<time>2016-10-07T23:01:47Z</time></trkpt>
<trkpt lat="29.735766" lon="96.062567">
<time>2016-10-07T23:01:48Z</time></trkpt>
<trkpt lat="29.735717" lon="96.061988">
<time>2016-10-07T23:01:49Z</time></trkpt>
<trkpt lat="29.735658" lon="96.061368">
<time>2016-10-07T23:01:50Z</time></trkpt>
<trkpt lat="29.735638" lon="96.061139">
<time>2016-10-07T23:01:51Z</time></trkpt>
<trkpt lat="29.735609" lon="96.060949">
<time>2016-10-07T23:01:52Z</time></trkpt>
<trkpt lat="29.735579" lon="96.060769">
<time>2016-10-07T23:01:53Z</time></trkpt>
<trkpt lat="29.735539" lon="96.060579">
<time>2016-10-07T23:01:54Z</time></trkpt>
<trkpt lat="29.7355" lon="96.060439">
<time>2016-10-07T23:01:55Z</time></trkpt>
<trkpt lat="29.73546" lon="96.0603">
<time>2016-10-07T23:01:56Z</time></trkpt>
<trkpt lat="29.7354" lon="96.06013">
<time>2016-10-07T23:01:57Z</time></trkpt>
<trkpt lat="29.735301" lon="96.05986">
<time>2016-10-07T23:01:58Z</time></trkpt>
<trkpt lat="29.735271" lon="96.05975">
<time>2016-10-07T23:01:59Z</time></trkpt>
<trkpt lat="29.735231" lon="96.05963">
<time>2016-10-07T23:02:00Z</time></trkpt>
<trkpt lat="29.735201" lon="96.05951">
<time>2016-10-07T23:02:01Z</time></trkpt>
<trkpt lat="29.735201" lon="96.059441">
<time>2016-10-07T23:02:02Z</time></trkpt>
<trkpt lat="29.735191" lon="96.059391">
<time>2016-10-07T23:02:03Z</time></trkpt>
<trkpt lat="29.735201" lon="96.059351">
<time>2016-10-07T23:02:04Z</time></trkpt>
<trkpt lat="29.735201" lon="96.059321">
<time>2016-10-07T23:02:05Z</time></trkpt>
<trkpt lat="29.735201" lon="96.059271">
<time>2016-10-07T23:02:06Z</time></trkpt>
<trkpt lat="29.735212" lon="96.059221">
<time>2016-10-07T23:02:07Z</time></trkpt>
<trkpt lat="29.735242" lon="96.059081">
<time>2016-10-07T23:02:08Z</time></trkpt>
<trkpt lat="29.735282" lon="96.058921">
<time>2016-10-07T23:02:09Z</time></trkpt>
<trkpt lat="29.735332" lon="96.058711">
<time>2016-10-07T23:02:10Z</time></trkpt>
<trkpt lat="29.735463" lon="96.058172">
<time>2016-10-07T23:02:11Z</time></trkpt>
<trkpt lat="29.735564" lon="96.057762">
<time>2016-10-07T23:02:12Z</time></trkpt>
<trkpt lat="29.735614" lon="96.057543">
<time>2016-10-07T23:02:13Z</time></trkpt>
<trkpt lat="29.735645" lon="96.057393">
<time>2016-10-07T23:02:14Z</time></trkpt>
<trkpt lat="29.735665" lon="96.057293">
<time>2016-10-07T23:02:15Z</time></trkpt>
<trkpt lat="29.735685" lon="96.057153">
<time>2016-10-07T23:02:16Z</time></trkpt>
<trkpt lat="29.735715" lon="96.056993">
<time>2016-10-07T23:02:17Z</time></trkpt>
<trkpt lat="29.735756" lon="96.056824">
<time>2016-10-07T23:02:18Z</time></trkpt>
<trkpt lat="29.735786" lon="96.056604">
<time>2016-10-07T23:02:19Z</time></trkpt>
<trkpt lat="29.735857" lon="96.056234">
<time>2016-10-07T23:02:20Z</time></trkpt>
<trkpt lat="29.735887" lon="96.056055">
<time>2016-10-07T23:02:21Z</time></trkpt>
<trkpt lat="29.735897" lon="96.055955">
<time>2016-10-07T23:02:22Z</time></trkpt>
<trkpt lat="29.735907" lon="96.055865">
<time>2016-10-07T23:02:23Z</time></trkpt>
<trkpt lat="29.735918" lon="96.055775">
<time>2016-10-07T23:02:24Z</time></trkpt>
<trkpt lat="29.735908" lon="96.055685">
<time>2016-10-07T23:02:25Z</time></trkpt>
<trkpt lat="29.735898" lon="96.055585">
<time>2016-10-07T23:02:26Z</time></trkpt>
<trkpt lat="29.735888" lon="96.055515">
<time>2016-10-07T23:02:27Z</time></trkpt>
<trkpt lat="29.735868" lon="96.055385">
<time>2016-10-07T23:02:28Z</time></trkpt>
<trkpt lat="29.735829" lon="96.055166">
<time>2016-10-07T23:02:29Z</time></trkpt>
<trkpt lat="29.735769" lon="96.054846">
<time>2016-10-07T23:02:30Z</time></trkpt>
<trkpt lat="29.735749" lon="96.054716">
<time>2016-10-07T23:02:31Z</time></trkpt>
<trkpt lat="29.73572" lon="96.054587">
<time>2016-10-07T23:02:32Z</time></trkpt>
<trkpt lat="29.73569" lon="96.054487">
<time>2016-10-07T23:02:33Z</time></trkpt>
<trkpt lat="29.73565" lon="96.054357">
<time>2016-10-07T23:02:34Z</time></trkpt>
<trkpt lat="29.73561" lon="96.054267">
<time>2016-10-07T23:02:35Z</time></trkpt>
<trkpt lat="29.735571" lon="96.054177">
<time>2016-10-07T23:02:36Z</time></trkpt>
<trkpt lat="29.735441" lon="96.053947">
<time>2016-10-07T23:02:37Z</time></trkpt>
<trkpt lat="29.735361" lon="96.053818">
<time>2016-10-07T23:02:38Z</time></trkpt>
<trkpt lat="29.735281" lon="96.053688">
<time>2016-10-07T23:02:39Z</time></trkpt>
<trkpt lat="29.735162" lon="96.053528">
<time>2016-10-07T23:02:40Z</time></trkpt>
<trkpt lat="29.734932" lon="96.053248">
<time>2016-10-07T23:02:41Z</time></trkpt>
<trkpt lat="29.734853" lon="96.053129">
<time>2016-10-07T23:02:42Z</time></trkpt>
<trkpt lat="29.734773" lon="96.052999">
<time>2016-10-07T23:02:43Z</time></trkpt>
<trkpt lat="29.734743" lon="96.052939">
<time>2016-10-07T23:02:44Z</time></trkpt>
<trkpt lat="29.734703" lon="96.052839">
<time>2016-10-07T23:02:45Z</time></trkpt>
<trkpt lat="29.734673" lon="96.052739">
<time>2016-10-07T23:02:46Z</time></trkpt>
<trkpt lat="29.734634" lon="96.052619">
<time>2016-10-07T23:02:47Z</time></trkpt>
<trkpt lat="29.734544" lon="96.05225">
<time>2016-10-07T23:02:48Z</time></trkpt>
<trkpt lat="29.734525" lon="96.05217">
<time>2016-10-07T23:02:49Z</time></trkpt>
<trkpt lat="29.734495" lon="96.05208">
<time>2016-10-07T23:02:50Z</time></trkpt>
<trkpt lat="29.734465" lon="96.052">
<time>2016-10-07T23:02:51Z</time></trkpt>
<trkpt lat="29.734435" lon="96.05193">
<time>2016-10-07T23:02:52Z</time></trkpt>
<trkpt lat="29.734405" lon="96.05187">
<time>2016-10-07T23:02:53Z</time></trkpt>
<trkpt lat="29.734375" lon="96.05182">
<time>2016-10-07T23:02:54Z</time></trkpt>
<trkpt lat="29.734325" lon="96.05176">
<time>2016-10-07T23:02:55Z</time></trkpt>
<trkpt lat="29.734285" lon="96.051711">
<time>2016-10-07T23:02:56Z</time></trkpt>
<trkpt lat="29.734176" lon="96.051581">
<time>2016-10-07T23:02:57Z</time></trkpt>
<trkpt lat="29.734076" lon="96.051461">
<time>2016-10-07T23:02:58Z</time></trkpt>
<trkpt lat="29.734026" lon="96.051391">
<time>2016-10-07T23:02:59Z</time></trkpt>
<trkpt lat="29.733986" lon="96.051341">
<time>2016-10-07T23:03:00Z</time></trkpt>
<trkpt lat="29.733956" lon="96.051281">
<time>2016-10-07T23:03:01Z</time></trkpt>
<trkpt lat="29.733907" lon="96.051121">
<time>2016-10-07T23:03:02Z</time></trkpt>
<trkpt lat="29.733867" lon="96.051002">
<time>2016-10-07T23:03:03Z</time></trkpt>
<trkpt lat="29.733837" lon="96.050942">
<time>2016-10-07T23:03:04Z</time></trkpt>
<trkpt lat="29.733817" lon="96.050872">
<time>2016-10-07T23:03:05Z</time></trkpt>
<trkpt lat="29.733767" lon="96.050792">
<time>2016-10-07T23:03:06Z</time></trkpt>
<trkpt lat="29.733708" lon="96.050702">
<time>2016-10-07T23:03:07Z</time></trkpt>
<trkpt lat="29.733648" lon="96.050632">
<time>2016-10-07T23:03:08Z</time></trkpt>
<trkpt lat="29.733568" lon="96.050512">
<time>2016-10-07T23:03:09Z</time></trkpt>
<trkpt lat="29.733528" lon="96.050442">
<time>2016-10-07T23:03:10Z</time></trkpt>
<trkpt lat="29.733478" lon="96.050353">
<time>2016-10-07T23:03:11Z</time></trkpt>
<trkpt lat="29.733448" lon="96.050283">
<time>2016-10-07T23:03:12Z</time></trkpt>
<trkpt lat="29.733359" lon="96.050083">
<time>2016-10-07T23:03:13Z</time></trkpt>
<trkpt lat="29.733279" lon="96.049913">
<time>2016-10-07T23:03:14Z</time></trkpt>
<trkpt lat="29.733249" lon="96.049823">
<time>2016-10-07T23:03:15Z</time></trkpt>
<trkpt lat="29.73323" lon="96.049754">
<time>2016-10-07T23:03:16Z</time></trkpt>
<trkpt lat="29.73321" lon="96.049684">
<time>2016-10-07T23:03:17Z</time></trkpt>
<trkpt lat="29.73319" lon="96.049594">
<time>2016-10-07T23:03:18Z</time></trkpt>
<trkpt lat="29.73318" lon="96.049524">
<time>2016-10-07T23:03:19Z</time></trkpt>
<trkpt lat="29.73317" lon="96.049454">
<time>2016-10-07T23:03:20Z</time></trkpt>
<trkpt lat="29.733151" lon="96.049284">
<time>2016-10-07T23:03:21Z</time></trkpt>
<trkpt lat="29.733101" lon="96.049055">
<time>2016-10-07T23:03:22Z</time></trkpt>
<trkpt lat="29.733081" lon="96.048965">
<time>2016-10-07T23:03:23Z</time></trkpt>
<trkpt lat="29.733052" lon="96.048835">
<time>2016-10-07T23:03:24Z</time></trkpt>
<trkpt lat="29.733042" lon="96.048725">
<time>2016-10-07T23:03:25Z</time></trkpt>
<trkpt lat="29.733042" lon="96.048605">
<time>2016-10-07T23:03:26Z</time></trkpt>
<trkpt lat="29.733052" lon="96.048406">
<time>2016-10-07T23:03:27Z</time></trkpt>
<trkpt lat="29.733083" lon="96.048096">
<time>2016-10-07T23:03:28Z</time></trkpt>
<trkpt lat="29.733103" lon="96.047906">
<time>2016-10-07T23:03:29Z</time></trkpt>
<trkpt lat="29.733114" lon="96.047737">
<time>2016-10-07T23:03:30Z</time></trkpt>
<trkpt lat="29.733114" lon="96.047577">
<time>2016-10-07T23:03:31Z</time></trkpt>
<trkpt lat="29.733104" lon="96.047457">
<time>2016-10-07T23:03:32Z</time></trkpt>
<trkpt lat="29.733095" lon="96.047377">
<time>2016-10-07T23:03:33Z</time></trkpt>
<trkpt lat="29.733085" lon="96.047297">
<time>2016-10-07T23:03:34Z</time></trkpt>
<trkpt lat="29.733055" lon="96.047188">
<time>2016-10-07T23:03:35Z</time></trkpt>
<trkpt lat="29.733035" lon="96.047038">
<time>2016-10-07T23:03:36Z</time></trkpt>
<trkpt lat="29.733026" lon="96.046918">
<time>2016-10-07T23:03:37Z</time></trkpt>
<trkpt lat="29.733036" lon="96.046748">
<time>2016-10-07T23:03:38Z</time></trkpt>
<trkpt lat="29.733057" lon="96.046339">
<time>2016-10-07T23:03:39Z</time></trkpt>
<trkpt lat="29.733098" lon="96.04585">
<time>2016-10-07T23:03:40Z</time></trkpt>
<trkpt lat="29.733128" lon="96.0456">
<time>2016-10-07T23:03:41Z</time></trkpt>
<trkpt lat="29.733179" lon="96.045341">
<time>2016-10-07T23:03:42Z</time></trkpt>
<trkpt lat="29.733209" lon="96.045211">
<time>2016-10-07T23:03:43Z</time></trkpt>
<trkpt lat="29.73325" lon="96.045091">
<time>2016-10-07T23:03:44Z</time></trkpt>
<trkpt lat="29.7333" lon="96.044971">
<time>2016-10-07T23:03:45Z</time></trkpt>
<trkpt lat="29.73334" lon="96.044891">
<time>2016-10-07T23:03:46Z</time></trkpt>
<trkpt lat="29.73345" lon="96.044672">
<time>2016-10-07T23:03:47Z</time></trkpt>
<trkpt lat="29.733581" lon="96.044452">
<time>2016-10-07T23:03:48Z</time></trkpt>
<trkpt lat="29.734223" lon="96.043374">
<time>2016-10-07T23:03:49Z</time></trkpt>
<trkpt lat="29.734414" lon="96.043055">
<time>2016-10-07T23:03:50Z</time></trkpt>
<trkpt lat="29.734846" lon="96.042326">
<time>2016-10-07T23:03:51Z</time></trkpt>
<trkpt lat="29.735197" lon="96.041707">
<time>2016-10-07T23:03:52Z</time></trkpt>
<trkpt lat="29.735297" lon="96.041498">
<time>2016-10-07T23:03:53Z</time></trkpt>
<trkpt lat="29.735358" lon="96.041328">
<time>2016-10-07T23:03:54Z</time></trkpt>
<trkpt lat="29.735408" lon="96.041178">
<time>2016-10-07T23:03:55Z</time></trkpt>
<trkpt lat="29.735459" lon="96.040998">
<time>2016-10-07T23:03:56Z</time></trkpt>
<trkpt lat="29.735651" lon="96.03995">
<time>2016-10-07T23:03:57Z</time></trkpt>
<trkpt lat="29.735793" lon="96.039212">
<time>2016-10-07T23:03:58Z</time></trkpt>
<trkpt lat="29.735874" lon="96.038803">
<time>2016-10-07T23:03:59Z</time></trkpt>
<trkpt lat="29.735934" lon="96.038503">
<time>2016-10-07T23:04:00Z</time></trkpt>
<trkpt lat="29.735975" lon="96.038304">
<time>2016-10-07T23:04:01Z</time></trkpt>
<trkpt lat="29.736025" lon="96.038104">
<time>2016-10-07T23:04:02Z</time></trkpt>
<trkpt lat="29.736076" lon="96.037974">
<time>2016-10-07T23:04:03Z</time></trkpt>
<trkpt lat="29.736116" lon="96.037865">
<time>2016-10-07T23:04:04Z</time></trkpt>
<trkpt lat="29.736166" lon="96.037755">
<time>2016-10-07T23:04:05Z</time></trkpt>
<trkpt lat="29.736237" lon="96.037625">
<time>2016-10-07T23:04:06Z</time></trkpt>
<trkpt lat="29.736578" lon="96.036996">
<time>2016-10-07T23:04:07Z</time></trkpt>
<trkpt lat="29.73713" lon="96.036018">
<time>2016-10-07T23:04:08Z</time></trkpt>
<trkpt lat="29.737864" lon="96.034711">
<time>2016-10-07T23:04:09Z</time></trkpt>
<trkpt lat="29.738034" lon="96.034402">
<time>2016-10-07T23:04:10Z</time></trkpt>
<trkpt lat="29.738376" lon="96.033793">
<time>2016-10-07T23:04:11Z</time></trkpt>
<trkpt lat="29.738948" lon="96.032765">
<time>2016-10-07T23:04:12Z</time></trkpt>
<trkpt lat="29.739119" lon="96.032456">
<time>2016-10-07T23:04:13Z</time></trkpt>
<trkpt lat="29.73927" lon="96.032136">
<time>2016-10-07T23:04:14Z</time></trkpt>
<trkpt lat="29.73931" lon="96.032037">
<time>2016-10-07T23:04:15Z</time></trkpt>
<trkpt lat="29.739401" lon="96.031817">
<time>2016-10-07T23:04:16Z</time></trkpt>
<trkpt lat="29.739461" lon="96.031657">
<time>2016-10-07T23:04:17Z</time></trkpt>
<trkpt lat="29.739532" lon="96.031438">
<time>2016-10-07T23:04:18Z</time></trkpt>
<trkpt lat="29.739754" lon="96.03061">
<time>2016-10-07T23:04:19Z</time></trkpt>
<trkpt lat="29.740592" lon="96.027367">
<time>2016-10-07T23:04:20Z</time></trkpt>
<trkpt lat="29.740845" lon="96.026449">
<time>2016-10-07T23:04:21Z</time></trkpt>
<trkpt lat="29.741037" lon="96.025741">
<time>2016-10-07T23:04:22Z</time></trkpt>
<trkpt lat="29.741148" lon="96.025322">
<time>2016-10-07T23:04:23Z</time></trkpt>
<trkpt lat="29.741653" lon="96.023476">
<time>2016-10-07T23:04:24Z</time></trkpt>
<trkpt lat="29.741835" lon="96.022788">
<time>2016-10-07T23:04:25Z</time></trkpt>
<trkpt lat="29.741866" lon="96.022568">
<time>2016-10-07T23:04:26Z</time></trkpt>
<trkpt lat="29.741876" lon="96.022399">
<time>2016-10-07T23:04:27Z</time></trkpt>
<trkpt lat="29.741876" lon="96.022269">
<time>2016-10-07T23:04:28Z</time></trkpt>
<trkpt lat="29.741867" lon="96.022159">
<time>2016-10-07T23:04:29Z</time></trkpt>
<trkpt lat="29.741857" lon="96.02201">
<time>2016-10-07T23:04:30Z</time></trkpt>
<trkpt lat="29.741838" lon="96.02185">
<time>2016-10-07T23:04:31Z</time></trkpt>
<trkpt lat="29.741788" lon="96.021551">
<time>2016-10-07T23:04:32Z</time></trkpt>
<trkpt lat="29.741593" lon="96.020134">
<time>2016-10-07T23:04:33Z</time></trkpt>
<trkpt lat="29.740956" lon="96.015496">
<time>2016-10-07T23:04:34Z</time></trkpt>
<trkpt lat="29.740849" lon="96.014608">
<time>2016-10-07T23:04:35Z</time></trkpt>
<trkpt lat="29.740604" lon="96.012823">
<time>2016-10-07T23:04:36Z</time></trkpt>
<trkpt lat="29.740437" lon="96.011676">
<time>2016-10-07T23:04:37Z</time></trkpt>
<trkpt lat="29.740281" lon="96.010509">
<time>2016-10-07T23:04:38Z</time></trkpt>
<trkpt lat="29.740115" lon="96.009322">
<time>2016-10-07T23:04:39Z</time></trkpt>
<trkpt lat="29.739987" lon="96.008404">
<time>2016-10-07T23:04:40Z</time></trkpt>
<trkpt lat="29.739909" lon="96.007856">
<time>2016-10-07T23:04:41Z</time></trkpt>
<trkpt lat="29.73988" lon="96.007547">
<time>2016-10-07T23:04:42Z</time></trkpt>
<trkpt lat="29.739861" lon="96.007347">
<time>2016-10-07T23:04:43Z</time></trkpt>
<trkpt lat="29.739851" lon="96.007118">
<time>2016-10-07T23:04:44Z</time></trkpt>
<trkpt lat="29.739852" lon="96.006809">
<time>2016-10-07T23:04:45Z</time></trkpt>
<trkpt lat="29.739863" lon="96.00647">
<time>2016-10-07T23:04:46Z</time></trkpt>
<trkpt lat="29.739895" lon="96.006031">
<time>2016-10-07T23:04:47Z</time></trkpt>
<trkpt lat="29.739967" lon="96.005123">
<time>2016-10-07T23:04:48Z</time></trkpt>
<trkpt lat="29.74004" lon="96.004176">
<time>2016-10-07T23:04:49Z</time></trkpt>
<trkpt lat="29.740082" lon="96.003677">
<time>2016-10-07T23:04:50Z</time></trkpt>
<trkpt lat="29.740154" lon="96.002829">
<time>2016-10-07T23:04:51Z</time></trkpt>
<trkpt lat="29.740175" lon="96.00269">
<time>2016-10-07T23:04:52Z</time></trkpt>
<trkpt lat="29.740205" lon="96.00259">
<time>2016-10-07T23:04:53Z</time></trkpt>
<trkpt lat="29.740235" lon="96.00252">
<time>2016-10-07T23:04:54Z</time></trkpt>
<trkpt lat="29.740275" lon="96.00243">
<time>2016-10-07T23:04:55Z</time></trkpt>
<trkpt lat="29.740346" lon="96.002331">
<time>2016-10-07T23:04:56Z</time></trkpt>
<trkpt lat="29.740406" lon="96.002251">
<time>2016-10-07T23:04:57Z</time></trkpt>
<trkpt lat="29.740607" lon="96.002001">
<time>2016-10-07T23:04:58Z</time></trkpt>
<trkpt lat="29.740687" lon="96.001902">
<time>2016-10-07T23:04:59Z</time></trkpt>
<trkpt lat="29.740757" lon="96.001812">
<time>2016-10-07T23:05:00Z</time></trkpt>
<trkpt lat="29.740817" lon="96.001722">
<time>2016-10-07T23:05:01Z</time></trkpt>
<trkpt lat="29.740878" lon="96.001612">
<time>2016-10-07T23:05:02Z</time></trkpt>
<trkpt lat="29.740978" lon="96.001433">
<time>2016-10-07T23:05:03Z</time></trkpt>
<trkpt lat="29.741039" lon="96.001293">
<time>2016-10-07T23:05:04Z</time></trkpt>
<trkpt lat="29.741099" lon="96.001144">
<time>2016-10-07T23:05:05Z</time></trkpt>
<trkpt lat="29.74121" lon="96.000805">
<time>2016-10-07T23:05:06Z</time></trkpt>
<trkpt lat="29.741402" lon="96.000266">
<time>2016-10-07T23:05:07Z</time></trkpt>
<trkpt lat="29.741422" lon="96.000166">
<time>2016-10-07T23:05:08Z</time></trkpt>
<trkpt lat="29.741462" lon="96.000047">
<time>2016-10-07T23:05:09Z</time></trkpt>
<trkpt lat="29.741503" lon="95.999847">
<time>2016-10-07T23:05:10Z</time></trkpt>
<trkpt lat="29.741524" lon="95.999698">
<time>2016-10-07T23:05:11Z</time></trkpt>
<trkpt lat="29.741524" lon="95.999618">
<time>2016-10-07T23:05:12Z</time></trkpt>
<trkpt lat="29.741524" lon="95.999548">
<time>2016-10-07T23:05:13Z</time></trkpt>
<trkpt lat="29.741514" lon="95.999478">
<time>2016-10-07T23:05:14Z</time></trkpt>
<trkpt lat="29.741494" lon="95.999398">
<time>2016-10-07T23:05:15Z</time></trkpt>
<trkpt lat="29.741455" lon="95.999269">
<time>2016-10-07T23:05:16Z</time></trkpt>
<trkpt lat="29.741336" lon="95.99895">
<time>2016-10-07T23:05:17Z</time></trkpt>
<trkpt lat="29.741266" lon="95.99877">
<time>2016-10-07T23:05:18Z</time></trkpt>
<trkpt lat="29.741207" lon="95.99862">
<time>2016-10-07T23:05:19Z</time></trkpt>
<trkpt lat="29.741187" lon="95.998561">
<time>2016-10-07T23:05:20Z</time></trkpt>
<trkpt lat="29.741177" lon="95.998511">
<time>2016-10-07T23:05:21Z</time></trkpt>
<trkpt lat="29.741168" lon="95.998401">
<time>2016-10-07T23:05:22Z</time></trkpt>
<trkpt lat="29.741178" lon="95.998331">
<time>2016-10-07T23:05:23Z</time></trkpt>
<trkpt lat="29.741208" lon="95.998241">
<time>2016-10-07T23:05:24Z</time></trkpt>
<trkpt lat="29.741258" lon="95.998172">
<time>2016-10-07T23:05:25Z</time></trkpt>
<trkpt lat="29.741318" lon="95.998092">
<time>2016-10-07T23:05:26Z</time></trkpt>
<trkpt lat="29.741399" lon="95.998012">
<time>2016-10-07T23:05:27Z</time></trkpt>
<trkpt lat="29.74173" lon="95.997673">
<time>2016-10-07T23:05:28Z</time></trkpt>
<trkpt lat="29.7418" lon="95.997613">
<time>2016-10-07T23:05:29Z</time></trkpt>
<trkpt lat="29.74186" lon="95.997563">
<time>2016-10-07T23:05:30Z</time></trkpt>
<trkpt lat="29.74192" lon="95.997523">
<time>2016-10-07T23:05:31Z</time></trkpt>
<trkpt lat="29.74201" lon="95.997473">
<time>2016-10-07T23:05:32Z</time></trkpt>
<trkpt lat="29.74209" lon="95.997434">
<time>2016-10-07T23:05:33Z</time></trkpt>
<trkpt lat="29.742371" lon="95.997324">
<time>2016-10-07T23:05:34Z</time></trkpt>
<trkpt lat="29.742571" lon="95.997234">
<time>2016-10-07T23:05:35Z</time></trkpt>
<trkpt lat="29.742711" lon="95.997154">
<time>2016-10-07T23:05:36Z</time></trkpt>
<trkpt lat="29.742871" lon="95.997065">
<time>2016-10-07T23:05:37Z</time></trkpt>
<trkpt lat="29.743002" lon="95.996965">
<time>2016-10-07T23:05:38Z</time></trkpt>
<trkpt lat="29.743272" lon="95.996755">
<time>2016-10-07T23:05:39Z</time></trkpt>
<trkpt lat="29.743443" lon="95.996626">
<time>2016-10-07T23:05:40Z</time></trkpt>
<trkpt lat="29.743593" lon="95.996516">
<time>2016-10-07T23:05:41Z</time></trkpt>
<trkpt lat="29.743773" lon="95.996336">
<time>2016-10-07T23:05:42Z</time></trkpt>
<trkpt lat="29.743934" lon="95.996157">
<time>2016-10-07T23:05:43Z</time></trkpt>
<trkpt lat="29.744305" lon="95.995678">
<time>2016-10-07T23:05:44Z</time></trkpt>
<trkpt lat="29.744878" lon="95.99494">
<time>2016-10-07T23:05:45Z</time></trkpt>
<trkpt lat="29.745038" lon="95.994701">
<time>2016-10-07T23:05:46Z</time></trkpt>
<trkpt lat="29.745109" lon="95.994581">
<time>2016-10-07T23:05:47Z</time></trkpt>
<trkpt lat="29.745149" lon="95.994491">
<time>2016-10-07T23:05:48Z</time></trkpt>
<trkpt lat="29.745451" lon="95.993823">
<time>2016-10-07T23:05:49Z</time></trkpt>
<trkpt lat="29.745592" lon="95.993544">
<time>2016-10-07T23:05:50Z</time></trkpt>
<trkpt lat="29.745682" lon="95.993374">
<time>2016-10-07T23:05:51Z</time></trkpt>
<trkpt lat="29.745793" lon="95.993205">
<time>2016-10-07T23:05:52Z</time></trkpt>
<trkpt lat="29.745893" lon="95.993075">
<time>2016-10-07T23:05:53Z</time></trkpt>
<trkpt lat="29.746013" lon="95.992955">
<time>2016-10-07T23:05:54Z</time></trkpt>
<trkpt lat="29.746114" lon="95.992876">
<time>2016-10-07T23:05:55Z</time></trkpt>
<trkpt lat="29.746204" lon="95.992816">
<time>2016-10-07T23:05:56Z</time></trkpt>
<trkpt lat="29.746384" lon="95.992706">
<time>2016-10-07T23:05:57Z</time></trkpt>
<trkpt lat="29.746494" lon="95.992656">
<time>2016-10-07T23:05:58Z</time></trkpt>
<trkpt lat="29.746634" lon="95.992596">
<time>2016-10-07T23:05:59Z</time></trkpt>
<trkpt lat="29.746835" lon="95.992547">
<time>2016-10-07T23:06:00Z</time></trkpt>
<trkpt lat="29.747015" lon="95.992487">
<time>2016-10-07T23:06:01Z</time></trkpt>
<trkpt lat="29.747215" lon="95.992387">
<time>2016-10-07T23:06:02Z</time></trkpt>
<trkpt lat="29.747385" lon="95.992277">
<time>2016-10-07T23:06:03Z</time></trkpt>
<trkpt lat="29.747556" lon="95.992167">
<time>2016-10-07T23:06:04Z</time></trkpt>
<trkpt lat="29.747776" lon="95.991998">
<time>2016-10-07T23:06:05Z</time></trkpt>
<trkpt lat="29.747987" lon="95.991838">
<time>2016-10-07T23:06:06Z</time></trkpt>
<trkpt lat="29.748177" lon="95.991669">
<time>2016-10-07T23:06:07Z</time></trkpt>
<trkpt lat="29.748317" lon="95.991549">
<time>2016-10-07T23:06:08Z</time></trkpt>
<trkpt lat="29.748548" lon="95.99135">
<time>2016-10-07T23:06:09Z</time></trkpt>
<trkpt lat="29.74943" lon="95.990582">
<time>2016-10-07T23:06:10Z</time></trkpt>
<trkpt lat="29.749791" lon="95.990262">
<time>2016-10-07T23:06:11Z</time></trkpt>
<trkpt lat="29.750042" lon="95.989943">
<time>2016-10-07T23:06:12Z</time></trkpt>
<trkpt lat="29.750142" lon="95.989814">
<time>2016-10-07T23:06:13Z</time></trkpt>
<trkpt lat="29.750233" lon="95.989654">
<time>2016-10-07T23:06:14Z</time></trkpt>
<trkpt lat="29.750475" lon="95.989056">
<time>2016-10-07T23:06:15Z</time></trkpt>
<trkpt lat="29.751009" lon="95.987689">
<time>2016-10-07T23:06:16Z</time></trkpt>
<trkpt lat="29.751129" lon="95.98742">
<time>2016-10-07T23:06:17Z</time></trkpt>
<trkpt lat="29.7513" lon="95.987171">
<time>2016-10-07T23:06:18Z</time></trkpt>
<trkpt lat="29.751691" lon="95.986722">
<time>2016-10-07T23:06:19Z</time></trkpt>
<trkpt lat="29.751802" lon="95.986582">
<time>2016-10-07T23:06:20Z</time></trkpt>
<trkpt lat="29.751983" lon="95.986283">
<time>2016-10-07T23:06:21Z</time></trkpt>
<trkpt lat="29.752063" lon="95.986133">
<time>2016-10-07T23:06:22Z</time></trkpt>
<trkpt lat="29.752194" lon="95.985884">
<time>2016-10-07T23:06:23Z</time></trkpt>
<trkpt lat="29.752284" lon="95.985674">
<time>2016-10-07T23:06:24Z</time></trkpt>
<trkpt lat="29.752355" lon="95.985485">
<time>2016-10-07T23:06:25Z</time></trkpt>
<trkpt lat="29.752617" lon="95.984717">
<time>2016-10-07T23:06:26Z</time></trkpt>
<trkpt lat="29.752668" lon="95.984567">
<time>2016-10-07T23:06:27Z</time></trkpt>
<trkpt lat="29.752698" lon="95.984438">
<time>2016-10-07T23:06:28Z</time></trkpt>
<trkpt lat="29.752718" lon="95.984328">
<time>2016-10-07T23:06:29Z</time></trkpt>
<trkpt lat="29.752729" lon="95.984218">
<time>2016-10-07T23:06:30Z</time></trkpt>
<trkpt lat="29.752729" lon="95.984168">
<time>2016-10-07T23:06:31Z</time></trkpt>
<trkpt lat="29.752741" lon="95.98331">
<time>2016-10-07T23:06:32Z</time></trkpt>
<trkpt lat="29.752762" lon="95.983051">
<time>2016-10-07T23:06:33Z</time></trkpt>
<trkpt lat="29.752813" lon="95.982822">
<time>2016-10-07T23:06:34Z</time></trkpt>
<trkpt lat="29.752883" lon="95.982622">
<time>2016-10-07T23:06:35Z</time></trkpt>
<trkpt lat="29.752934" lon="95.982512">
<time>2016-10-07T23:06:36Z</time></trkpt>
<trkpt lat="29.753054" lon="95.982293">
<time>2016-10-07T23:06:37Z</time></trkpt>
<trkpt lat="29.753135" lon="95.982133">
<time>2016-10-07T23:06:38Z</time></trkpt>
<trkpt lat="29.753205" lon="95.982004">
<time>2016-10-07T23:06:39Z</time></trkpt>
<trkpt lat="29.753235" lon="95.981884">
<time>2016-10-07T23:06:40Z</time></trkpt>
<trkpt lat="29.753256" lon="95.981804">
<time>2016-10-07T23:06:41Z</time></trkpt>
<trkpt lat="29.753297" lon="95.981266">
<time>2016-10-07T23:06:42Z</time></trkpt>
<trkpt lat="29.753339" lon="95.980767">
<time>2016-10-07T23:06:43Z</time></trkpt>
<trkpt lat="29.753411" lon="95.980029">
<time>2016-10-07T23:06:44Z</time></trkpt>
<trkpt lat="29.753422" lon="95.97965">
<time>2016-10-07T23:06:45Z</time></trkpt>
<trkpt lat="29.753414" lon="95.978911">
<time>2016-10-07T23:06:46Z</time></trkpt>
<trkpt lat="29.753404" lon="95.978762">
<time>2016-10-07T23:06:47Z</time></trkpt>
<trkpt lat="29.753345" lon="95.978413">
<time>2016-10-07T23:06:48Z</time></trkpt>
<trkpt lat="29.753307" lon="95.977924">
<time>2016-10-07T23:06:49Z</time></trkpt>
<trkpt lat="29.753297" lon="95.977744">
<time>2016-10-07T23:06:50Z</time></trkpt>
<trkpt lat="29.753308" lon="95.977625">
<time>2016-10-07T23:06:51Z</time></trkpt>
<trkpt lat="29.753318" lon="95.977555">
<time>2016-10-07T23:06:52Z</time></trkpt>
<trkpt lat="29.753348" lon="95.977465">
<time>2016-10-07T23:06:53Z</time></trkpt>
<trkpt lat="29.753519" lon="95.977096">
<time>2016-10-07T23:06:54Z</time></trkpt>
<trkpt lat="29.75371" lon="95.976647">
<time>2016-10-07T23:06:55Z</time></trkpt>
<trkpt lat="29.754224" lon="95.97545">
<time>2016-10-07T23:06:56Z</time></trkpt>
<trkpt lat="29.755391" lon="95.972836">
<time>2016-10-07T23:06:57Z</time></trkpt>
<trkpt lat="29.755763" lon="95.972068">
<time>2016-10-07T23:06:58Z</time></trkpt>
<trkpt lat="29.756144" lon="95.971469">
<time>2016-10-07T23:06:59Z</time></trkpt>
<trkpt lat="29.756686" lon="95.970781">
<time>2016-10-07T23:07:00Z</time></trkpt>
<trkpt lat="29.757047" lon="95.970412">
<time>2016-10-07T23:07:01Z</time></trkpt>
<trkpt lat="29.75823" lon="95.969504">
<time>2016-10-07T23:07:02Z</time></trkpt>
<trkpt lat="29.75856" lon="95.969244">
<time>2016-10-07T23:07:03Z</time></trkpt>
<trkpt lat="29.758791" lon="95.969005">
<time>2016-10-07T23:07:04Z</time></trkpt>
<trkpt lat="29.759011" lon="95.968725">
<time>2016-10-07T23:07:05Z</time></trkpt>
<trkpt lat="29.759202" lon="95.968446">
<time>2016-10-07T23:07:06Z</time></trkpt>
<trkpt lat="29.759383" lon="95.968127">
<time>2016-10-07T23:07:07Z</time></trkpt>
<trkpt lat="29.759534" lon="95.967797">
<time>2016-10-07T23:07:08Z</time></trkpt>
<trkpt lat="29.759675" lon="95.967368">
<time>2016-10-07T23:07:09Z</time></trkpt>
<trkpt lat="29.759746" lon="95.967069">
<time>2016-10-07T23:07:10Z</time></trkpt>
<trkpt lat="29.759796" lon="95.96682">
<time>2016-10-07T23:07:11Z</time></trkpt>
<trkpt lat="29.759878" lon="95.966101">
<time>2016-10-07T23:07:12Z</time></trkpt>
<trkpt lat="29.760241" lon="95.961002">
<time>2016-10-07T23:07:13Z</time></trkpt>
<trkpt lat="29.760407" lon="95.958537">
<time>2016-10-07T23:07:14Z</time></trkpt>
<trkpt lat="29.760511" lon="95.956989">
<time>2016-10-07T23:07:15Z</time></trkpt>
<trkpt lat="29.760686" lon="95.954474">
<time>2016-10-07T23:07:16Z</time></trkpt>
<trkpt lat="29.76079" lon="95.952647">
<time>2016-10-07T23:07:17Z</time></trkpt>
<trkpt lat="29.76112" lon="95.947845">
<time>2016-10-07T23:07:18Z</time></trkpt>
<trkpt lat="29.761533" lon="95.941144">
<time>2016-10-07T23:07:19Z</time></trkpt>
<trkpt lat="29.761759" lon="95.937538">
<time>2016-10-07T23:07:20Z</time></trkpt>
<trkpt lat="29.7618" lon="95.936848">
<time>2016-10-07T23:07:21Z</time></trkpt>
<trkpt lat="29.761801" lon="95.936139">
<time>2016-10-07T23:07:22Z</time></trkpt>
<trkpt lat="29.761643" lon="95.93494">
<time>2016-10-07T23:07:23Z</time></trkpt>
<trkpt lat="29.761505" lon="95.933651">
<time>2016-10-07T23:07:24Z</time></trkpt>
<trkpt lat="29.761376" lon="95.932572">
<time>2016-10-07T23:07:25Z</time></trkpt>
<trkpt lat="29.761317" lon="95.932282">
<time>2016-10-07T23:07:26Z</time></trkpt>
<trkpt lat="29.761128" lon="95.931703">
<time>2016-10-07T23:07:27Z</time></trkpt>
<trkpt lat="29.760958" lon="95.931203">
<time>2016-10-07T23:07:28Z</time></trkpt>
<trkpt lat="29.760929" lon="95.931073">
<time>2016-10-07T23:07:29Z</time></trkpt>
<trkpt lat="29.760919" lon="95.931003">
<time>2016-10-07T23:07:30Z</time></trkpt>
<trkpt lat="29.760919" lon="95.930923">
<time>2016-10-07T23:07:31Z</time></trkpt>
<trkpt lat="29.760919" lon="95.930863">
<time>2016-10-07T23:07:32Z</time></trkpt>
<trkpt lat="29.760939" lon="95.930804">
<time>2016-10-07T23:07:33Z</time></trkpt>
<trkpt lat="29.760969" lon="95.930714">
<time>2016-10-07T23:07:34Z</time></trkpt>
<trkpt lat="29.760999" lon="95.930634">
<time>2016-10-07T23:07:35Z</time></trkpt>
<trkpt lat="29.761049" lon="95.930564">
<time>2016-10-07T23:07:36Z</time></trkpt>
<trkpt lat="29.761139" lon="95.930474">
<time>2016-10-07T23:07:37Z</time></trkpt>
<trkpt lat="29.761279" lon="95.930374">
<time>2016-10-07T23:07:38Z</time></trkpt>
<trkpt lat="29.76153" lon="95.930174">
<time>2016-10-07T23:07:39Z</time></trkpt>
<trkpt lat="29.76175" lon="95.930004">
<time>2016-10-07T23:07:40Z</time></trkpt>
<trkpt lat="29.7618" lon="95.929944">
<time>2016-10-07T23:07:41Z</time></trkpt>
<trkpt lat="29.76183" lon="95.929884">
<time>2016-10-07T23:07:42Z</time></trkpt>
<trkpt lat="29.76186" lon="95.929804">
<time>2016-10-07T23:07:43Z</time></trkpt>
<trkpt lat="29.76187" lon="95.929724">
<time>2016-10-07T23:07:44Z</time></trkpt>
<trkpt lat="29.76189" lon="95.929574">
<time>2016-10-07T23:07:45Z</time></trkpt>
<trkpt lat="29.761901" lon="95.929384">
<time>2016-10-07T23:07:46Z</time></trkpt>
<trkpt lat="29.761941" lon="95.929175">
<time>2016-10-07T23:07:47Z</time></trkpt>
<trkpt lat="29.761991" lon="95.929015">
<time>2016-10-07T23:07:48Z</time></trkpt>
<trkpt lat="29.762081" lon="95.928825">
<time>2016-10-07T23:07:49Z</time></trkpt>
<trkpt lat="29.762202" lon="95.928585">
<time>2016-10-07T23:07:50Z</time></trkpt>
<trkpt lat="29.762302" lon="95.928325">
<time>2016-10-07T23:07:51Z</time></trkpt>
<trkpt lat="29.762372" lon="95.928135">
<time>2016-10-07T23:07:52Z</time></trkpt>
<trkpt lat="29.762442" lon="95.927865">
<time>2016-10-07T23:07:53Z</time></trkpt>
<trkpt lat="29.762663" lon="95.926926">
<time>2016-10-07T23:07:54Z</time></trkpt>
<trkpt lat="29.762934" lon="95.926146">
<time>2016-10-07T23:07:55Z</time></trkpt>
<trkpt lat="29.763005" lon="95.925906">
<time>2016-10-07T23:07:56Z</time></trkpt>
<trkpt lat="29.763055" lon="95.925696">
<time>2016-10-07T23:07:57Z</time></trkpt>
<trkpt lat="29.763085" lon="95.925507">
<time>2016-10-07T23:07:58Z</time></trkpt>
<trkpt lat="29.763145" lon="95.925097">
<time>2016-10-07T23:07:59Z</time></trkpt>
<trkpt lat="29.763226" lon="95.924347">
<time>2016-10-07T23:08:00Z</time></trkpt>
<trkpt lat="29.763256" lon="95.924247">
<time>2016-10-07T23:08:01Z</time></trkpt>
<trkpt lat="29.763286" lon="95.924117">
<time>2016-10-07T23:08:02Z</time></trkpt>
<trkpt lat="29.763357" lon="95.923997">
<time>2016-10-07T23:08:03Z</time></trkpt>
<trkpt lat="29.763437" lon="95.923857">
<time>2016-10-07T23:08:04Z</time></trkpt>
<trkpt lat="29.763587" lon="95.923597">
<time>2016-10-07T23:08:05Z</time></trkpt>
<trkpt lat="29.763717" lon="95.923397">
<time>2016-10-07T23:08:06Z</time></trkpt>
<trkpt lat="29.763867" lon="95.923157">
<time>2016-10-07T23:08:07Z</time></trkpt>
<trkpt lat="29.764028" lon="95.922778">
<time>2016-10-07T23:08:08Z</time></trkpt>
<trkpt lat="29.764318" lon="95.922008">
<time>2016-10-07T23:08:09Z</time></trkpt>
<trkpt lat="29.764389" lon="95.921778">
<time>2016-10-07T23:08:10Z</time></trkpt>
<trkpt lat="29.764449" lon="95.921488">
<time>2016-10-07T23:08:11Z</time></trkpt>
<trkpt lat="29.76468" lon="95.920258">
<time>2016-10-07T23:08:12Z</time></trkpt>
<trkpt lat="29.7648" lon="95.919608">
<time>2016-10-07T23:08:13Z</time></trkpt>
<trkpt lat="29.764911" lon="95.919218">
<time>2016-10-07T23:08:14Z</time></trkpt>
<trkpt lat="29.764991" lon="95.919048">
<time>2016-10-07T23:08:15Z</time></trkpt>
<trkpt lat="29.765081" lon="95.918888">
<time>2016-10-07T23:08:16Z</time></trkpt>
<trkpt lat="29.765181" lon="95.918718">
<time>2016-10-07T23:08:17Z</time></trkpt>
<trkpt lat="29.765341" lon="95.918478">
<time>2016-10-07T23:08:18Z</time></trkpt>
<trkpt lat="29.765581" lon="95.918148">
<time>2016-10-07T23:08:19Z</time></trkpt>
<trkpt lat="29.765672" lon="95.918038">
<time>2016-10-07T23:08:20Z</time></trkpt>
<trkpt lat="29.765772" lon="95.917958">
<time>2016-10-07T23:08:21Z</time></trkpt>
<trkpt lat="29.765952" lon="95.917868">
<time>2016-10-07T23:08:22Z</time></trkpt>
<trkpt lat="29.766472" lon="95.917678">
<time>2016-10-07T23:08:23Z</time></trkpt>
<trkpt lat="29.766712" lon="95.917638">
<time>2016-10-07T23:08:24Z</time></trkpt>
<trkpt lat="29.767052" lon="95.917608">
<time>2016-10-07T23:08:25Z</time></trkpt>
<trkpt lat="29.767422" lon="95.917618">
<time>2016-10-07T23:08:26Z</time></trkpt>
<trkpt lat="29.767842" lon="95.917638">
<time>2016-10-07T23:08:27Z</time></trkpt>
<trkpt lat="29.767942" lon="95.917658">
<time>2016-10-07T23:08:28Z</time></trkpt>
<trkpt lat="29.768062" lon="95.917708">
<time>2016-10-07T23:08:29Z</time></trkpt>
<trkpt lat="29.768321" lon="95.917888">
<time>2016-10-07T23:08:30Z</time></trkpt>
<trkpt lat="29.768971" lon="95.918408">
<time>2016-10-07T23:08:31Z</time></trkpt>
<trkpt lat="29.769181" lon="95.918558">
<time>2016-10-07T23:08:32Z</time></trkpt>
<trkpt lat="29.769371" lon="95.918668">
<time>2016-10-07T23:08:33Z</time></trkpt>
<trkpt lat="29.769791" lon="95.918778">
<time>2016-10-07T23:08:34Z</time></trkpt>
<trkpt lat="29.7703" lon="95.918848">
<time>2016-10-07T23:08:35Z</time></trkpt>
<trkpt lat="29.77254" lon="95.918988">
<time>2016-10-07T23:08:36Z</time></trkpt>
<trkpt lat="29.77303" lon="95.919028">
<time>2016-10-07T23:08:37Z</time></trkpt>
<trkpt lat="29.77313" lon="95.919058">
<time>2016-10-07T23:08:38Z</time></trkpt>
<trkpt lat="29.7732" lon="95.919078">
<time>2016-10-07T23:08:39Z</time></trkpt>
<trkpt lat="29.77328" lon="95.919128">
<time>2016-10-07T23:08:40Z</time></trkpt>
<trkpt lat="29.77336" lon="95.919198">
<time>2016-10-07T23:08:41Z</time></trkpt>
<trkpt lat="29.77343" lon="95.919278">
<time>2016-10-07T23:08:42Z</time></trkpt>
<trkpt lat="29.77351" lon="95.919398">
<time>2016-10-07T23:08:43Z</time></trkpt>
<trkpt lat="29.773719" lon="95.919838">
<time>2016-10-07T23:08:44Z</time></trkpt>
<trkpt lat="29.773779" lon="95.919948">
<time>2016-10-07T23:08:45Z</time></trkpt>
<trkpt lat="29.773819" lon="95.920018">
<time>2016-10-07T23:08:46Z</time></trkpt>
<trkpt lat="29.773869" lon="95.920088">
<time>2016-10-07T23:08:47Z</time></trkpt>
<trkpt lat="29.773919" lon="95.920148">
<time>2016-10-07T23:08:48Z</time></trkpt>
<trkpt lat="29.773969" lon="95.920198">
<time>2016-10-07T23:08:49Z</time></trkpt>
<trkpt lat="29.774019" lon="95.920228">
<time>2016-10-07T23:08:50Z</time></trkpt>
<trkpt lat="29.774069" lon="95.920268">
<time>2016-10-07T23:08:51Z</time></trkpt>
<trkpt lat="29.774129" lon="95.920298">
<time>2016-10-07T23:08:52Z</time></trkpt>
<trkpt lat="29.774159" lon="95.920318">
<time>2016-10-07T23:08:53Z</time></trkpt>
<trkpt lat="29.774209" lon="95.920328">
<time>2016-10-07T23:08:54Z</time></trkpt>
<trkpt lat="29.774259" lon="95.920328">
<time>2016-10-07T23:08:55Z</time></trkpt>
<trkpt lat="29.774299" lon="95.920328">
<time>2016-10-07T23:08:56Z</time></trkpt>
<trkpt lat="29.774349" lon="95.920318">
<time>2016-10-07T23:08:57Z</time></trkpt>
<trkpt lat="29.774389" lon="95.920298">
<time>2016-10-07T23:08:58Z</time></trkpt>
<trkpt lat="29.774429" lon="95.920268">
<time>2016-10-07T23:08:59Z</time></trkpt>
<trkpt lat="29.774469" lon="95.920238">
<time>2016-10-07T23:09:00Z</time></trkpt>
<trkpt lat="29.774499" lon="95.920198">
<time>2016-10-07T23:09:01Z</time></trkpt>
<trkpt lat="29.774519" lon="95.920168">
<time>2016-10-07T23:09:02Z</time></trkpt>
<trkpt lat="29.774539" lon="95.920108">
<time>2016-10-07T23:09:03Z</time></trkpt>
<trkpt lat="29.774559" lon="95.920038">
<time>2016-10-07T23:09:04Z</time></trkpt>
<trkpt lat="29.774569" lon="95.919928">
<time>2016-10-07T23:09:05Z</time></trkpt>
<trkpt lat="29.774589" lon="95.919748">
<time>2016-10-07T23:09:06Z</time></trkpt>
<trkpt lat="29.774609" lon="95.919568">
<time>2016-10-07T23:09:07Z</time></trkpt>
<trkpt lat="29.774659" lon="95.919388">
<time>2016-10-07T23:09:08Z</time></trkpt>
<trkpt lat="29.77471" lon="95.919218">
<time>2016-10-07T23:09:09Z</time></trkpt>
<trkpt lat="29.77481" lon="95.918978">
<time>2016-10-07T23:09:10Z</time></trkpt>
<trkpt lat="29.77488" lon="95.918858">
<time>2016-10-07T23:09:11Z</time></trkpt>
<trkpt lat="29.77492" lon="95.918788">
<time>2016-10-07T23:09:12Z</time></trkpt>
<trkpt lat="29.77495" lon="95.918738">
<time>2016-10-07T23:09:13Z</time></trkpt>
<trkpt lat="29.77509" lon="95.918608">
<time>2016-10-07T23:09:14Z</time></trkpt>
<trkpt lat="29.7758" lon="95.918098">
<time>2016-10-07T23:09:15Z</time></trkpt>
<trkpt lat="29.77607" lon="95.917888">
<time>2016-10-07T23:09:16Z</time></trkpt>
<trkpt lat="29.776341" lon="95.917668">
<time>2016-10-07T23:09:17Z</time></trkpt>
<trkpt lat="29.776561" lon="95.917508">
<time>2016-10-07T23:09:18Z</time></trkpt>
<trkpt lat="29.776641" lon="95.917468">
<time>2016-10-07T23:09:19Z</time></trkpt>
<trkpt lat="29.776731" lon="95.917418">
<time>2016-10-07T23:09:20Z</time></trkpt>
<trkpt lat="29.776831" lon="95.917378">
<time>2016-10-07T23:09:21Z</time></trkpt>
<trkpt lat="29.776911" lon="95.917348">
<time>2016-10-07T23:09:22Z</time></trkpt>
<trkpt lat="29.777001" lon="95.917318">
<time>2016-10-07T23:09:23Z</time></trkpt>
<trkpt lat="29.777171" lon="95.917278">
<time>2016-10-07T23:09:24Z</time></trkpt>
<trkpt lat="29.777351" lon="95.917238">
<time>2016-10-07T23:09:25Z</time></trkpt>
<trkpt lat="29.777561" lon="95.917198">
<time>2016-10-07T23:09:26Z</time></trkpt>
<trkpt lat="29.778061" lon="95.917108">
<time>2016-10-07T23:09:27Z</time></trkpt>
<trkpt lat="29.778431" lon="95.917048">
<time>2016-10-07T23:09:28Z</time></trkpt>
<trkpt lat="29.778891" lon="95.916978">
<time>2016-10-07T23:09:29Z</time></trkpt>
<trkpt lat="29.779201" lon="95.916948">
<time>2016-10-07T23:09:30Z</time></trkpt>
<trkpt lat="29.779521" lon="95.916938">
<time>2016-10-07T23:09:31Z</time></trkpt>
<trkpt lat="29.779851" lon="95.916918">
<time>2016-10-07T23:09:32Z</time></trkpt>
<trkpt lat="29.780021" lon="95.916878">
<time>2016-10-07T23:09:33Z</time></trkpt>
<trkpt lat="29.780151" lon="95.916848">
<time>2016-10-07T23:09:34Z</time></trkpt>
<trkpt lat="29.780301" lon="95.916778">
<time>2016-10-07T23:09:35Z</time></trkpt>
<trkpt lat="29.780561" lon="95.916658">
<time>2016-10-07T23:09:36Z</time></trkpt>
<trkpt lat="29.780781" lon="95.916558">
<time>2016-10-07T23:09:37Z</time></trkpt>
<trkpt lat="29.780961" lon="95.916518">
<time>2016-10-07T23:09:38Z</time></trkpt>
<trkpt lat="29.781111" lon="95.916478">
<time>2016-10-07T23:09:39Z</time></trkpt>
<trkpt lat="29.781271" lon="95.916478">
<time>2016-10-07T23:09:40Z</time></trkpt>
<trkpt lat="29.781471" lon="95.916458">
<time>2016-10-07T23:09:41Z</time></trkpt>
<trkpt lat="29.781701" lon="95.916448">
<time>2016-10-07T23:09:42Z</time></trkpt>
<trkpt lat="29.782021" lon="95.916458">
<time>2016-10-07T23:09:43Z</time></trkpt>
<trkpt lat="29.782231" lon="95.916448">
<time>2016-10-07T23:09:44Z</time></trkpt>
<trkpt lat="29.782461" lon="95.916448">
<time>2016-10-07T23:09:45Z</time></trkpt>
<trkpt lat="29.782841" lon="95.916448">
<time>2016-10-07T23:09:46Z</time></trkpt>
<trkpt lat="29.782981" lon="95.916428">
<time>2016-10-07T23:09:47Z</time></trkpt>
<trkpt lat="29.783041" lon="95.916398">
<time>2016-10-07T23:09:48Z</time></trkpt>
<trkpt lat="29.783141" lon="95.916348">
<time>2016-10-07T23:09:49Z</time></trkpt>
<trkpt lat="29.783221" lon="95.916288">
<time>2016-10-07T23:09:50Z</time></trkpt>
<trkpt lat="29.783271" lon="95.916228">
<time>2016-10-07T23:09:51Z</time></trkpt>
<trkpt lat="29.783421" lon="95.916048">
<time>2016-10-07T23:09:52Z</time></trkpt>
<trkpt lat="29.783471" lon="95.915988">
<time>2016-10-07T23:09:53Z</time></trkpt>
<trkpt lat="29.783561" lon="95.915878">
<time>2016-10-07T23:09:54Z</time></trkpt>
<trkpt lat="29.783791" lon="95.915598">
<time>2016-10-07T23:09:55Z</time></trkpt>
<trkpt lat="29.783971" lon="95.915348">
<time>2016-10-07T23:09:56Z</time></trkpt>
<trkpt lat="29.784102" lon="95.915118">
<time>2016-10-07T23:09:57Z</time></trkpt>
<trkpt lat="29.784242" lon="95.914828">
<time>2016-10-07T23:09:58Z</time></trkpt>
<trkpt lat="29.784332" lon="95.914628">
<time>2016-10-07T23:09:59Z</time></trkpt>
<trkpt lat="29.784392" lon="95.914428">
<time>2016-10-07T23:10:00Z</time></trkpt>
<trkpt lat="29.784462" lon="95.914178">
<time>2016-10-07T23:10:01Z</time></trkpt>
<trkpt lat="29.784562" lon="95.913858">
<time>2016-10-07T23:10:02Z</time></trkpt>
<trkpt lat="29.784612" lon="95.913718">
<time>2016-10-07T23:10:03Z</time></trkpt>
<trkpt lat="29.784652" lon="95.913608">
<time>2016-10-07T23:10:04Z</time></trkpt>
<trkpt lat="29.784752" lon="95.913398">
<time>2016-10-07T23:10:05Z</time></trkpt>
<trkpt lat="29.784812" lon="95.913268">
<time>2016-10-07T23:10:06Z</time></trkpt>
<trkpt lat="29.784873" lon="95.913108">
<time>2016-10-07T23:10:07Z</time></trkpt>
<trkpt lat="29.784923" lon="95.912958">
<time>2016-10-07T23:10:08Z</time></trkpt>
<trkpt lat="29.784943" lon="95.912888">
<time>2016-10-07T23:10:09Z</time></trkpt>
<trkpt lat="29.784963" lon="95.912808">
<time>2016-10-07T23:10:10Z</time></trkpt>
<trkpt lat="29.784983" lon="95.912698">
<time>2016-10-07T23:10:11Z</time></trkpt>
<trkpt lat="29.784993" lon="95.912538">
<time>2016-10-07T23:10:12Z</time></trkpt>
<trkpt lat="29.784993" lon="95.912458">
<time>2016-10-07T23:10:13Z</time></trkpt>
<trkpt lat="29.784993" lon="95.912357">
<time>2016-10-07T23:10:14Z</time></trkpt>
<trkpt lat="29.785003" lon="95.912307">
<time>2016-10-07T23:10:15Z</time></trkpt>
<trkpt lat="29.785003" lon="95.912247">
<time>2016-10-07T23:10:16Z</time></trkpt>
<trkpt lat="29.785013" lon="95.912197">
<time>2016-10-07T23:10:17Z</time></trkpt>
<trkpt lat="29.785023" lon="95.912167">
<time>2016-10-07T23:10:18Z</time></trkpt>
<trkpt lat="29.785043" lon="95.912107">
<time>2016-10-07T23:10:19Z</time></trkpt>
<trkpt lat="29.785063" lon="95.912057">
<time>2016-10-07T23:10:20Z</time></trkpt>
<trkpt lat="29.785093" lon="95.911997">
<time>2016-10-07T23:10:21Z</time></trkpt>
<trkpt lat="29.785123" lon="95.911937">
<time>2016-10-07T23:10:22Z</time></trkpt>
<trkpt lat="29.785153" lon="95.911867">
<time>2016-10-07T23:10:23Z</time></trkpt>
<trkpt lat="29.785243" lon="95.911657">
<time>2016-10-07T23:10:24Z</time></trkpt>
<trkpt lat="29.785313" lon="95.911437">
<time>2016-10-07T23:10:25Z</time></trkpt>
<trkpt lat="29.785353" lon="95.911267">
<time>2016-10-07T23:10:26Z</time></trkpt>
<trkpt lat="29.785444" lon="95.910847">
<time>2016-10-07T23:10:27Z</time></trkpt>
<trkpt lat="29.785484" lon="95.910617">
<time>2016-10-07T23:10:28Z</time></trkpt>
<trkpt lat="29.785484" lon="95.910417">
<time>2016-10-07T23:10:29Z</time></trkpt>
<trkpt lat="29.785464" lon="95.910257">
<time>2016-10-07T23:10:30Z</time></trkpt>
<trkpt lat="29.785394" lon="95.909987">
<time>2016-10-07T23:10:31Z</time></trkpt>
<trkpt lat="29.785264" lon="95.909657">
<time>2016-10-07T23:10:32Z</time></trkpt>
<trkpt lat="29.784775" lon="95.908246">
<time>2016-10-07T23:10:33Z</time></trkpt>
<trkpt lat="29.784695" lon="95.907916">
<time>2016-10-07T23:10:34Z</time></trkpt>
<trkpt lat="29.784655" lon="95.907666">
<time>2016-10-07T23:10:35Z</time></trkpt>
<trkpt lat="29.784635" lon="95.907446">
<time>2016-10-07T23:10:36Z</time></trkpt>
<trkpt lat="29.784625" lon="95.907216">
<time>2016-10-07T23:10:37Z</time></trkpt>
<trkpt lat="29.784645" lon="95.907026">
<time>2016-10-07T23:10:38Z</time></trkpt>
<trkpt lat="29.784685" lon="95.906765">
<time>2016-10-07T23:10:39Z</time></trkpt>
<trkpt lat="29.784745" lon="95.906505">
<time>2016-10-07T23:10:40Z</time></trkpt>
<trkpt lat="29.784815" lon="95.906255">
<time>2016-10-07T23:10:41Z</time></trkpt>
<trkpt lat="29.784885" lon="95.906065">
<time>2016-10-07T23:10:42Z</time></trkpt>
<trkpt lat="29.784965" lon="95.905895">
<time>2016-10-07T23:10:43Z</time></trkpt>
<trkpt lat="29.785135" lon="95.905615">
<time>2016-10-07T23:10:44Z</time></trkpt>
<trkpt lat="29.785415" lon="95.905194">
<time>2016-10-07T23:10:45Z</time></trkpt>
<trkpt lat="29.785645" lon="95.904824">
<time>2016-10-07T23:10:46Z</time></trkpt>
<trkpt lat="29.785725" lon="95.904594">
<time>2016-10-07T23:10:47Z</time></trkpt>
<trkpt lat="29.785755" lon="95.904454">
<time>2016-10-07T23:10:48Z</time></trkpt>
<trkpt lat="29.785785" lon="95.904144">
<time>2016-10-07T23:10:49Z</time></trkpt>
<trkpt lat="29.785795" lon="95.903674">
<time>2016-10-07T23:10:50Z</time></trkpt>
<trkpt lat="29.785795" lon="95.903523">
<time>2016-10-07T23:10:51Z</time></trkpt>
<trkpt lat="29.785805" lon="95.903433">
<time>2016-10-07T23:10:52Z</time></trkpt>
<trkpt lat="29.785836" lon="95.903313">
<time>2016-10-07T23:10:53Z</time></trkpt>
<trkpt lat="29.785856" lon="95.903213">
<time>2016-10-07T23:10:54Z</time></trkpt>
<trkpt lat="29.785886" lon="95.903133">
<time>2016-10-07T23:10:55Z</time></trkpt>
<trkpt lat="29.785926" lon="95.903043">
<time>2016-10-07T23:10:56Z</time></trkpt>
<trkpt lat="29.785976" lon="95.902943">
<time>2016-10-07T23:10:57Z</time></trkpt>
<trkpt lat="29.786076" lon="95.902803">
<time>2016-10-07T23:10:58Z</time></trkpt>
<trkpt lat="29.786166" lon="95.902673">
<time>2016-10-07T23:10:59Z</time></trkpt>
<trkpt lat="29.786256" lon="95.902553">
<time>2016-10-07T23:11:00Z</time></trkpt>
<trkpt lat="29.786636" lon="95.902142">
<time>2016-10-07T23:11:01Z</time></trkpt>
<trkpt lat="29.787705" lon="95.900961">
<time>2016-10-07T23:11:02Z</time></trkpt>
<trkpt lat="29.788105" lon="95.900521">
<time>2016-10-07T23:11:03Z</time></trkpt>
<trkpt lat="29.788235" lon="95.900371">
<time>2016-10-07T23:11:04Z</time></trkpt>
<trkpt lat="29.788335" lon="95.900281">
<time>2016-10-07T23:11:05Z</time></trkpt>
<trkpt lat="29.788335" lon="95.900281">
<time>2016-10-07T23:11:06Z</time></trkpt>
<trkpt lat="29.788565" lon="95.899891">
<time>2016-10-07T23:11:07Z</time></trkpt>
<trkpt lat="29.788705" lon="95.89964">
<time>2016-10-07T23:11:08Z</time></trkpt>
<trkpt lat="29.788725" lon="95.89961">
<time>2016-10-07T23:11:09Z</time></trkpt>
<trkpt lat="29.788775" lon="95.8995">
<time>2016-10-07T23:11:10Z</time></trkpt>
<trkpt lat="29.788905" lon="95.89913">
<time>2016-10-07T23:11:11Z</time></trkpt>
<trkpt lat="29.788935" lon="95.89894">
<time>2016-10-07T23:11:12Z</time></trkpt>
<trkpt lat="29.788955" lon="95.89875">
<time>2016-10-07T23:11:13Z</time></trkpt>
<trkpt lat="29.788955" lon="95.898549">
<time>2016-10-07T23:11:14Z</time></trkpt>
<trkpt lat="29.788945" lon="95.898229">
<time>2016-10-07T23:11:15Z</time></trkpt>
<trkpt lat="29.788895" lon="95.897648">
<time>2016-10-07T23:11:16Z</time></trkpt>
<trkpt lat="29.788845" lon="95.896868">
<time>2016-10-07T23:11:17Z</time></trkpt>
<trkpt lat="29.788795" lon="95.896427">
<time>2016-10-07T23:11:18Z</time></trkpt>
<trkpt lat="29.788775" lon="95.896067">
<time>2016-10-07T23:11:19Z</time></trkpt>
<trkpt lat="29.788755" lon="95.895837">
<time>2016-10-07T23:11:20Z</time></trkpt>
<trkpt lat="29.788735" lon="95.895476">
<time>2016-10-07T23:11:21Z</time></trkpt>
<trkpt lat="29.788735" lon="95.895266">
<time>2016-10-07T23:11:22Z</time></trkpt>
<trkpt lat="29.788734" lon="95.895136">
<time>2016-10-07T23:11:23Z</time></trkpt>
<trkpt lat="29.788754" lon="95.894976">
<time>2016-10-07T23:11:24Z</time></trkpt>
<trkpt lat="29.788754" lon="95.894876">
<time>2016-10-07T23:11:25Z</time></trkpt>
<trkpt lat="29.788794" lon="95.894605">
<time>2016-10-07T23:11:26Z</time></trkpt>
<trkpt lat="29.788834" lon="95.894415">
<time>2016-10-07T23:11:27Z</time></trkpt>
<trkpt lat="29.788894" lon="95.894225">
<time>2016-10-07T23:11:28Z</time></trkpt>
<trkpt lat="29.788954" lon="95.894015">
<time>2016-10-07T23:11:29Z</time></trkpt>
<trkpt lat="29.789054" lon="95.893814">
<time>2016-10-07T23:11:30Z</time></trkpt>
<trkpt lat="29.789164" lon="95.893604">
<time>2016-10-07T23:11:31Z</time></trkpt>
<trkpt lat="29.789264" lon="95.893434">
<time>2016-10-07T23:11:32Z</time></trkpt>
<trkpt lat="29.789344" lon="95.893304">
<time>2016-10-07T23:11:33Z</time></trkpt>
<trkpt lat="29.789464" lon="95.893124">
<time>2016-10-07T23:11:34Z</time></trkpt>
<trkpt lat="29.789694" lon="95.892763">
<time>2016-10-07T23:11:35Z</time></trkpt>
<trkpt lat="29.790603" lon="95.891351">
<time>2016-10-07T23:11:36Z</time></trkpt>
<trkpt lat="29.791432" lon="95.89006">
<time>2016-10-07T23:11:37Z</time></trkpt>
<trkpt lat="29.792362" lon="95.888628">
<time>2016-10-07T23:11:38Z</time></trkpt>
<trkpt lat="29.792911" lon="95.887786">
<time>2016-10-07T23:11:39Z</time></trkpt>
<trkpt lat="29.79385" lon="95.886374">
<time>2016-10-07T23:11:40Z</time></trkpt>
<trkpt lat="29.794669" lon="95.885132">
<time>2016-10-07T23:11:41Z</time></trkpt>
<trkpt lat="29.795608" lon="95.8837">
<time>2016-10-07T23:11:42Z</time></trkpt>
<trkpt lat="29.796187" lon="95.882819">
<time>2016-10-07T23:11:43Z</time></trkpt>
<trkpt lat="29.796817" lon="95.881867">
<time>2016-10-07T23:11:44Z</time></trkpt>
<trkpt lat="29.797496" lon="95.880835">
<time>2016-10-07T23:11:45Z</time></trkpt>
<trkpt lat="29.798275" lon="95.879653">
<time>2016-10-07T23:11:46Z</time></trkpt>
<trkpt lat="29.799004" lon="95.878501">
<time>2016-10-07T23:11:47Z</time></trkpt>
<trkpt lat="29.799403" lon="95.87788">
<time>2016-10-07T23:11:48Z</time></trkpt>
<trkpt lat="29.799533" lon="95.87767">
<time>2016-10-07T23:11:49Z</time></trkpt>
<trkpt lat="29.799732" lon="95.877319">
<time>2016-10-07T23:11:50Z</time></trkpt>
<trkpt lat="29.799912" lon="95.876988">
<time>2016-10-07T23:11:51Z</time></trkpt>
<trkpt lat="29.800192" lon="95.876447">
<time>2016-10-07T23:11:52Z</time></trkpt>
<trkpt lat="29.80079" lon="95.875055">
<time>2016-10-07T23:11:53Z</time></trkpt>
<trkpt lat="29.801039" lon="95.874483">
<time>2016-10-07T23:11:54Z</time></trkpt>
<trkpt lat="29.801468" lon="95.873511">
<time>2016-10-07T23:11:55Z</time></trkpt>
<trkpt lat="29.801957" lon="95.872419">
<time>2016-10-07T23:11:56Z</time></trkpt>
<trkpt lat="29.802107" lon="95.872129">
<time>2016-10-07T23:11:57Z</time></trkpt>
<trkpt lat="29.802256" lon="95.871868">
<time>2016-10-07T23:11:58Z</time></trkpt>
<trkpt lat="29.802526" lon="95.871507">
<time>2016-10-07T23:11:59Z</time></trkpt>
<trkpt lat="29.802875" lon="95.871006">
<time>2016-10-07T23:12:00Z</time></trkpt>
<trkpt lat="29.803005" lon="95.870796">
<time>2016-10-07T23:12:01Z</time></trkpt>
<trkpt lat="29.803115" lon="95.870585">
<time>2016-10-07T23:12:02Z</time></trkpt>
<trkpt lat="29.803175" lon="95.870475">
<time>2016-10-07T23:12:03Z</time></trkpt>
<trkpt lat="29.803344" lon="95.870034">
<time>2016-10-07T23:12:04Z</time></trkpt>
<trkpt lat="29.803563" lon="95.869443">
<time>2016-10-07T23:12:05Z</time></trkpt>
<trkpt lat="29.803613" lon="95.869323">
<time>2016-10-07T23:12:06Z</time></trkpt>
<trkpt lat="29.803633" lon="95.869192">
<time>2016-10-07T23:12:07Z</time></trkpt>
<trkpt lat="29.803643" lon="95.869042">
<time>2016-10-07T23:12:08Z</time></trkpt>
<trkpt lat="29.803623" lon="95.868912">
<time>2016-10-07T23:12:09Z</time></trkpt>
<trkpt lat="29.803593" lon="95.868801">
<time>2016-10-07T23:12:10Z</time></trkpt>
<trkpt lat="29.803563" lon="95.868691">
<time>2016-10-07T23:12:11Z</time></trkpt>
<trkpt lat="29.803502" lon="95.868571">
<time>2016-10-07T23:12:12Z</time></trkpt>
<trkpt lat="29.803472" lon="95.868511">
<time>2016-10-07T23:12:13Z</time></trkpt>
<trkpt lat="29.803452" lon="95.868451">
<time>2016-10-07T23:12:14Z</time></trkpt>
<trkpt lat="29.803422" lon="95.868391">
<time>2016-10-07T23:12:15Z</time></trkpt>
<trkpt lat="29.803392" lon="95.86831">
<time>2016-10-07T23:12:16Z</time></trkpt>
<trkpt lat="29.803372" lon="95.86824">
<time>2016-10-07T23:12:17Z</time></trkpt>
<trkpt lat="29.803362" lon="95.86816">
<time>2016-10-07T23:12:18Z</time></trkpt>
<trkpt lat="29.803352" lon="95.86809">
<time>2016-10-07T23:12:19Z</time></trkpt>
<trkpt lat="29.803352" lon="95.86801">
<time>2016-10-07T23:12:20Z</time></trkpt>
<trkpt lat="29.803362" lon="95.86796">
<time>2016-10-07T23:12:21Z</time></trkpt>
<trkpt lat="29.803372" lon="95.867899">
<time>2016-10-07T23:12:22Z</time></trkpt>
<trkpt lat="29.803392" lon="95.867839">
<time>2016-10-07T23:12:23Z</time></trkpt>
<trkpt lat="29.803411" lon="95.867769">
<time>2016-10-07T23:12:24Z</time></trkpt>
<trkpt lat="29.803551" lon="95.867378">
<time>2016-10-07T23:12:25Z</time></trkpt>
<trkpt lat="29.80377" lon="95.866707">
<time>2016-10-07T23:12:26Z</time></trkpt>
<trkpt lat="29.803939" lon="95.866236">
<time>2016-10-07T23:12:27Z</time></trkpt>
<trkpt lat="29.804079" lon="95.865785">
<time>2016-10-07T23:12:28Z</time></trkpt>
<trkpt lat="29.804119" lon="95.865604">
<time>2016-10-07T23:12:29Z</time></trkpt>
<trkpt lat="29.804178" lon="95.865304">
<time>2016-10-07T23:12:30Z</time></trkpt>
<trkpt lat="29.804267" lon="95.864592">
<time>2016-10-07T23:12:31Z</time></trkpt>
<trkpt lat="29.804297" lon="95.864321">
<time>2016-10-07T23:12:32Z</time></trkpt>
<trkpt lat="29.804337" lon="95.864101">
<time>2016-10-07T23:12:33Z</time></trkpt>
<trkpt lat="29.804416" lon="95.86389">
<time>2016-10-07T23:12:34Z</time></trkpt>
<trkpt lat="29.804506" lon="95.86369">
<time>2016-10-07T23:12:35Z</time></trkpt>
<trkpt lat="29.804606" lon="95.863529">
<time>2016-10-07T23:12:36Z</time></trkpt>
<trkpt lat="29.804895" lon="95.863068">
<time>2016-10-07T23:12:37Z</time></trkpt>
<trkpt lat="29.805254" lon="95.862527">
<time>2016-10-07T23:12:38Z</time></trkpt>
<trkpt lat="29.805324" lon="95.862387">
<time>2016-10-07T23:12:39Z</time></trkpt>
<trkpt lat="29.805394" lon="95.862256">
<time>2016-10-07T23:12:40Z</time></trkpt>
<trkpt lat="29.805424" lon="95.862156">
<time>2016-10-07T23:12:41Z</time></trkpt>
<trkpt lat="29.805454" lon="95.862026">
<time>2016-10-07T23:12:42Z</time></trkpt>
<trkpt lat="29.805473" lon="95.861936">
<time>2016-10-07T23:12:43Z</time></trkpt>
<trkpt lat="29.805523" lon="95.861665">
<time>2016-10-07T23:12:44Z</time></trkpt>
<trkpt lat="29.805652" lon="95.860863">
<time>2016-10-07T23:12:45Z</time></trkpt>
<trkpt lat="29.80582" lon="95.85982">
<time>2016-10-07T23:12:46Z</time></trkpt>
<trkpt lat="29.805909" lon="95.859279">
<time>2016-10-07T23:12:47Z</time></trkpt>
<trkpt lat="29.806068" lon="95.858327">
<time>2016-10-07T23:12:48Z</time></trkpt>
<trkpt lat="29.806167" lon="95.857705">
<time>2016-10-07T23:12:49Z</time></trkpt>
<trkpt lat="29.806246" lon="95.857234">
<time>2016-10-07T23:12:50Z</time></trkpt>
<trkpt lat="29.806365" lon="95.856552">
<time>2016-10-07T23:12:51Z</time></trkpt>
<trkpt lat="29.806474" lon="95.85588">
<time>2016-10-07T23:12:52Z</time></trkpt>
<trkpt lat="29.806633" lon="95.854888">
<time>2016-10-07T23:12:53Z</time></trkpt>
<trkpt lat="29.806712" lon="95.854467">
<time>2016-10-07T23:12:54Z</time></trkpt>
<trkpt lat="29.806821" lon="95.853855">
<time>2016-10-07T23:12:55Z</time></trkpt>
<trkpt lat="29.80692" lon="95.853294">
<time>2016-10-07T23:12:56Z</time></trkpt>
<trkpt lat="29.806989" lon="95.852953">
<time>2016-10-07T23:12:57Z</time></trkpt>
<trkpt lat="29.807019" lon="95.852812">
<time>2016-10-07T23:12:58Z</time></trkpt>
<trkpt lat="29.807049" lon="95.852692">
<time>2016-10-07T23:12:59Z</time></trkpt>
<trkpt lat="29.807099" lon="95.852562">
<time>2016-10-07T23:13:00Z</time></trkpt>
<trkpt lat="29.807179" lon="95.852371">
<time>2016-10-07T23:13:01Z</time></trkpt>
<trkpt lat="29.807268" lon="95.852191">
<time>2016-10-07T23:13:02Z</time></trkpt>
<trkpt lat="29.807448" lon="95.85188">
<time>2016-10-07T23:13:03Z</time></trkpt>
<trkpt lat="29.807627" lon="95.851619">
<time>2016-10-07T23:13:04Z</time></trkpt>
<trkpt lat="29.807817" lon="95.851389">
<time>2016-10-07T23:13:05Z</time></trkpt>
<trkpt lat="29.808066" lon="95.851148">
<time>2016-10-07T23:13:06Z</time></trkpt>
<trkpt lat="29.808376" lon="95.850867">
<time>2016-10-07T23:13:07Z</time></trkpt>
<trkpt lat="29.808955" lon="95.850346">
<time>2016-10-07T23:13:08Z</time></trkpt>
<trkpt lat="29.809404" lon="95.849905">
<time>2016-10-07T23:13:09Z</time></trkpt>
<trkpt lat="29.809634" lon="95.849664">
<time>2016-10-07T23:13:10Z</time></trkpt>
<trkpt lat="29.809664" lon="95.849624">
<time>2016-10-07T23:13:11Z</time></trkpt>
<trkpt lat="29.809714" lon="95.849544">
<time>2016-10-07T23:13:12Z</time></trkpt>
<trkpt lat="29.809763" lon="95.849453">
<time>2016-10-07T23:13:13Z</time></trkpt>
<trkpt lat="29.809793" lon="95.849343">
<time>2016-10-07T23:13:14Z</time></trkpt>
<trkpt lat="29.809813" lon="95.849283">
<time>2016-10-07T23:13:15Z</time></trkpt>
<trkpt lat="29.809833" lon="95.849163">
<time>2016-10-07T23:13:16Z</time></trkpt>
<trkpt lat="29.809843" lon="95.849022">
<time>2016-10-07T23:13:17Z</time></trkpt>
<trkpt lat="29.809842" lon="95.848892">
<time>2016-10-07T23:13:18Z</time></trkpt>
<trkpt lat="29.809822" lon="95.848601">
<time>2016-10-07T23:13:19Z</time></trkpt>
<trkpt lat="29.809771" lon="95.84819">
<time>2016-10-07T23:13:20Z</time></trkpt>
<trkpt lat="29.809771" lon="95.848019">
<time>2016-10-07T23:13:21Z</time></trkpt>
<trkpt lat="29.809771" lon="95.847889">
<time>2016-10-07T23:13:22Z</time></trkpt>
<trkpt lat="29.809771" lon="95.847769">
<time>2016-10-07T23:13:23Z</time></trkpt>
<trkpt lat="29.80978" lon="95.847658">
<time>2016-10-07T23:13:24Z</time></trkpt>
<trkpt lat="29.8098" lon="95.847468">
<time>2016-10-07T23:13:25Z</time></trkpt>
<trkpt lat="29.809829" lon="95.847087">
<time>2016-10-07T23:13:26Z</time></trkpt>
<trkpt lat="29.809839" lon="95.846936">
<time>2016-10-07T23:13:27Z</time></trkpt>
<trkpt lat="29.809849" lon="95.846756">
<time>2016-10-07T23:13:28Z</time></trkpt>
<trkpt lat="29.809879" lon="95.846595">
<time>2016-10-07T23:13:29Z</time></trkpt>
<trkpt lat="29.809918" lon="95.846425">
<time>2016-10-07T23:13:30Z</time></trkpt>
<trkpt lat="29.809968" lon="95.846134">
<time>2016-10-07T23:13:31Z</time></trkpt>
<trkpt lat="29.809997" lon="95.845964">
<time>2016-10-07T23:13:32Z</time></trkpt>
<trkpt lat="29.810047" lon="95.845753">
<time>2016-10-07T23:13:33Z</time></trkpt>
<trkpt lat="29.810107" lon="95.845502">
<time>2016-10-07T23:13:34Z</time></trkpt>
<trkpt lat="29.810315" lon="95.84477">
<time>2016-10-07T23:13:35Z</time></trkpt>
<trkpt lat="29.810593" lon="95.843687">
<time>2016-10-07T23:13:36Z</time></trkpt>
<trkpt lat="29.810812" lon="95.842805">
<time>2016-10-07T23:13:37Z</time></trkpt>
<trkpt lat="29.810981" lon="95.842193">
<time>2016-10-07T23:13:38Z</time></trkpt>
<trkpt lat="29.81102" lon="95.842053">
<time>2016-10-07T23:13:39Z</time></trkpt>
<trkpt lat="29.81108" lon="95.841872">
<time>2016-10-07T23:13:40Z</time></trkpt>
<trkpt lat="29.81116" lon="95.841672">
<time>2016-10-07T23:13:41Z</time></trkpt>
<trkpt lat="29.811289" lon="95.841411">
<time>2016-10-07T23:13:42Z</time></trkpt>
<trkpt lat="29.811608" lon="95.840779">
<time>2016-10-07T23:13:43Z</time></trkpt>
<trkpt lat="29.811807" lon="95.840358">
<time>2016-10-07T23:13:44Z</time></trkpt>
<trkpt lat="29.811977" lon="95.839957">
<time>2016-10-07T23:13:45Z</time></trkpt>
<trkpt lat="29.812036" lon="95.839746">
<time>2016-10-07T23:13:46Z</time></trkpt>
<trkpt lat="29.812076" lon="95.839576">
<time>2016-10-07T23:13:47Z</time></trkpt>
<trkpt lat="29.812106" lon="95.839405">
<time>2016-10-07T23:13:48Z</time></trkpt>
<trkpt lat="29.812125" lon="95.839295">
<time>2016-10-07T23:13:49Z</time></trkpt>
<trkpt lat="29.812135" lon="95.839175">
<time>2016-10-07T23:13:50Z</time></trkpt>
<trkpt lat="29.812135" lon="95.838994">
<time>2016-10-07T23:13:51Z</time></trkpt>
<trkpt lat="29.812114" lon="95.838763">
<time>2016-10-07T23:13:52Z</time></trkpt>
<trkpt lat="29.812084" lon="95.838553">
<time>2016-10-07T23:13:53Z</time></trkpt>
<trkpt lat="29.812044" lon="95.838342">
<time>2016-10-07T23:13:54Z</time></trkpt>
<trkpt lat="29.812013" lon="95.838232">
<time>2016-10-07T23:13:55Z</time></trkpt>
<trkpt lat="29.811933" lon="95.837991">
<time>2016-10-07T23:13:56Z</time></trkpt>
<trkpt lat="29.811863" lon="95.837821">
<time>2016-10-07T23:13:57Z</time></trkpt>
<trkpt lat="29.811802" lon="95.83768">
<time>2016-10-07T23:13:58Z</time></trkpt>
<trkpt lat="29.811712" lon="95.83754">
<time>2016-10-07T23:13:59Z</time></trkpt>
<trkpt lat="29.811542" lon="95.837259">
<time>2016-10-07T23:14:00Z</time></trkpt>
<trkpt lat="29.811271" lon="95.836828">
<time>2016-10-07T23:14:01Z</time></trkpt>
<trkpt lat="29.809054" lon="95.833298">
<time>2016-10-07T23:14:02Z</time></trkpt>
<trkpt lat="29.808202" lon="95.831944">
<time>2016-10-07T23:14:03Z</time></trkpt>
<trkpt lat="29.80761" lon="95.831041">
<time>2016-10-07T23:14:04Z</time></trkpt>
<trkpt lat="29.80735" lon="95.83058">
<time>2016-10-07T23:14:05Z</time></trkpt>
<trkpt lat="29.807209" lon="95.830299">
<time>2016-10-07T23:14:06Z</time></trkpt>
<trkpt lat="29.807109" lon="95.830058">
<time>2016-10-07T23:14:07Z</time></trkpt>
<trkpt lat="29.807038" lon="95.829828">
<time>2016-10-07T23:14:08Z</time></trkpt>
<trkpt lat="29.806957" lon="95.829467">
<time>2016-10-07T23:14:09Z</time></trkpt>
<trkpt lat="29.806917" lon="95.829156">
<time>2016-10-07T23:14:10Z</time></trkpt>
<trkpt lat="29.806876" lon="95.828724">
<time>2016-10-07T23:14:11Z</time></trkpt>
<trkpt lat="29.806784" lon="95.827842">
<time>2016-10-07T23:14:12Z</time></trkpt>
<trkpt lat="29.806682" lon="95.826739">
<time>2016-10-07T23:14:13Z</time></trkpt>
<trkpt lat="29.806438" lon="95.824271">
<time>2016-10-07T23:14:14Z</time></trkpt>
<trkpt lat="29.806366" lon="95.823549">
<time>2016-10-07T23:14:15Z</time></trkpt>
<trkpt lat="29.806325" lon="95.823028">
<time>2016-10-07T23:14:16Z</time></trkpt>
<trkpt lat="29.806335" lon="95.822807">
<time>2016-10-07T23:14:17Z</time></trkpt>
<trkpt lat="29.806344" lon="95.822496">
<time>2016-10-07T23:14:18Z</time></trkpt>
<trkpt lat="29.806354" lon="95.822356">
<time>2016-10-07T23:14:19Z</time></trkpt>
<trkpt lat="29.806413" lon="95.821985">
<time>2016-10-07T23:14:20Z</time></trkpt>
<trkpt lat="29.806582" lon="95.821032">
<time>2016-10-07T23:14:21Z</time></trkpt>
<trkpt lat="29.807165" lon="95.817452">
<time>2016-10-07T23:14:22Z</time></trkpt>
<trkpt lat="29.807472" lon="95.815677">
<time>2016-10-07T23:14:23Z</time></trkpt>
<trkpt lat="29.80763" lon="95.814824">
<time>2016-10-07T23:14:24Z</time></trkpt>
<trkpt lat="29.807719" lon="95.814222">
<time>2016-10-07T23:14:25Z</time></trkpt>
<trkpt lat="29.807729" lon="95.814082">
<time>2016-10-07T23:14:26Z</time></trkpt>
<trkpt lat="29.807768" lon="95.813922">
<time>2016-10-07T23:14:27Z</time></trkpt>
<trkpt lat="29.807818" lon="95.813771">
<time>2016-10-07T23:14:28Z</time></trkpt>
<trkpt lat="29.807878" lon="95.813671">
<time>2016-10-07T23:14:29Z</time></trkpt>
<trkpt lat="29.807958" lon="95.813541">
<time>2016-10-07T23:14:30Z</time></trkpt>
<trkpt lat="29.808067" lon="95.81339">
<time>2016-10-07T23:14:31Z</time></trkpt>
<trkpt lat="29.808167" lon="95.81329">
<time>2016-10-07T23:14:32Z</time></trkpt>
<trkpt lat="29.808387" lon="95.813129">
<time>2016-10-07T23:14:33Z</time></trkpt>
<trkpt lat="29.808547" lon="95.813009">
<time>2016-10-07T23:14:34Z</time></trkpt>
<trkpt lat="29.808657" lon="95.812889">
<time>2016-10-07T23:14:35Z</time></trkpt>
<trkpt lat="29.808726" lon="95.812778">
<time>2016-10-07T23:14:36Z</time></trkpt>
<trkpt lat="29.808806" lon="95.812608">
<time>2016-10-07T23:14:37Z</time></trkpt>
<trkpt lat="29.808856" lon="95.812488">
<time>2016-10-07T23:14:38Z</time></trkpt>
<trkpt lat="29.808896" lon="95.812367">
<time>2016-10-07T23:14:39Z</time></trkpt>
<trkpt lat="29.808925" lon="95.812287">
<time>2016-10-07T23:14:40Z</time></trkpt>
<trkpt lat="29.808945" lon="95.812217">
<time>2016-10-07T23:14:41Z</time></trkpt>
<trkpt lat="29.808965" lon="95.812147">
<time>2016-10-07T23:14:42Z</time></trkpt>
<trkpt lat="29.808985" lon="95.812076">
<time>2016-10-07T23:14:43Z</time></trkpt>
<trkpt lat="29.808985" lon="95.812016">
<time>2016-10-07T23:14:44Z</time></trkpt>
<trkpt lat="29.808995" lon="95.811956">
<time>2016-10-07T23:14:45Z</time></trkpt>
<trkpt lat="29.808985" lon="95.811866">
<time>2016-10-07T23:14:46Z</time></trkpt>
<trkpt lat="29.808934" lon="95.811505">
<time>2016-10-07T23:14:47Z</time></trkpt>
<trkpt lat="29.808833" lon="95.811114">
<time>2016-10-07T23:14:48Z</time></trkpt>
<trkpt lat="29.808652" lon="95.810522">
<time>2016-10-07T23:14:49Z</time></trkpt>
<trkpt lat="29.808622" lon="95.810372">
<time>2016-10-07T23:14:50Z</time></trkpt>
<trkpt lat="29.808591" lon="95.810071">
<time>2016-10-07T23:14:51Z</time></trkpt>
<trkpt lat="29.808611" lon="95.8099">
<time>2016-10-07T23:14:52Z</time></trkpt>
<trkpt lat="29.808641" lon="95.80973">
<time>2016-10-07T23:14:53Z</time></trkpt>
<trkpt lat="29.808641" lon="95.80972">
<time>2016-10-07T23:14:54Z</time></trkpt>
<trkpt lat="29.808681" lon="95.809529">
<time>2016-10-07T23:14:55Z</time></trkpt>
<trkpt lat="29.80878" lon="95.809228">
<time>2016-10-07T23:14:56Z</time></trkpt>
<trkpt lat="29.809745" lon="95.806391">
<time>2016-10-07T23:14:57Z</time></trkpt>
<trkpt lat="29.811018" lon="95.80248">
<time>2016-10-07T23:14:58Z</time></trkpt>
<trkpt lat="29.811665" lon="95.800525">
<time>2016-10-07T23:14:59Z</time></trkpt>
<trkpt lat="29.812143" lon="95.799061">
<time>2016-10-07T23:15:00Z</time></trkpt>
<trkpt lat="29.812381" lon="95.798249">
<time>2016-10-07T23:15:01Z</time></trkpt>
<trkpt lat="29.812441" lon="95.797939">
<time>2016-10-07T23:15:02Z</time></trkpt>
<trkpt lat="29.8125" lon="95.797648">
<time>2016-10-07T23:15:03Z</time></trkpt>
<trkpt lat="29.81255" lon="95.797056">
<time>2016-10-07T23:15:04Z</time></trkpt>
<trkpt lat="29.812507" lon="95.795312">
<time>2016-10-07T23:15:05Z</time></trkpt>
<trkpt lat="29.812485" lon="95.793889">
<time>2016-10-07T23:15:06Z</time></trkpt>
<trkpt lat="29.812453" lon="95.792535">
<time>2016-10-07T23:15:07Z</time></trkpt>
<trkpt lat="29.812452" lon="95.792054">
<time>2016-10-07T23:15:08Z</time></trkpt>
<trkpt lat="29.812462" lon="95.791713">
<time>2016-10-07T23:15:09Z</time></trkpt>
<trkpt lat="29.812501" lon="95.791292">
<time>2016-10-07T23:15:10Z</time></trkpt>
<trkpt lat="29.81262" lon="95.790581">
<time>2016-10-07T23:15:11Z</time></trkpt>
<trkpt lat="29.812799" lon="95.789448">
<time>2016-10-07T23:15:12Z</time></trkpt>
<trkpt lat="29.812917" lon="95.788686">
<time>2016-10-07T23:15:13Z</time></trkpt>
<trkpt lat="29.812967" lon="95.788396">
<time>2016-10-07T23:15:14Z</time></trkpt>
<trkpt lat="29.813007" lon="95.788185">
<time>2016-10-07T23:15:15Z</time></trkpt>
<trkpt lat="29.813047" lon="95.787985">
<time>2016-10-07T23:15:16Z</time></trkpt>
<trkpt lat="29.813076" lon="95.787895">
<time>2016-10-07T23:15:17Z</time></trkpt>
<trkpt lat="29.813116" lon="95.787804">
<time>2016-10-07T23:15:18Z</time></trkpt>
<trkpt lat="29.813186" lon="95.787694">
<time>2016-10-07T23:15:19Z</time></trkpt>
<trkpt lat="29.813266" lon="95.787604">
<time>2016-10-07T23:15:20Z</time></trkpt>
<trkpt lat="29.813356" lon="95.787534">
<time>2016-10-07T23:15:21Z</time></trkpt>
<trkpt lat="29.813446" lon="95.787484">
<time>2016-10-07T23:15:22Z</time></trkpt>
<trkpt lat="29.813556" lon="95.787434">
<time>2016-10-07T23:15:23Z</time></trkpt>
<trkpt lat="29.813686" lon="95.787373">
<time>2016-10-07T23:15:24Z</time></trkpt>
<trkpt lat="29.813936" lon="95.787253">
<time>2016-10-07T23:15:25Z</time></trkpt>
<trkpt lat="29.814255" lon="95.787123">
<time>2016-10-07T23:15:26Z</time></trkpt>
<trkpt lat="29.814645" lon="95.787003">
<time>2016-10-07T23:15:27Z</time></trkpt>
<trkpt lat="29.815335" lon="95.786792">
<time>2016-10-07T23:15:28Z</time></trkpt>
<trkpt lat="29.815545" lon="95.786732">
<time>2016-10-07T23:15:29Z</time></trkpt>
<trkpt lat="29.815715" lon="95.786702">
<time>2016-10-07T23:15:30Z</time></trkpt>
<trkpt lat="29.815835" lon="95.786692">
<time>2016-10-07T23:15:31Z</time></trkpt>
<trkpt lat="29.818084" lon="95.786632">
<time>2016-10-07T23:15:32Z</time></trkpt>
<trkpt lat="29.818614" lon="95.786551">
<time>2016-10-07T23:15:33Z</time></trkpt>
<trkpt lat="29.819184" lon="95.786441">
<time>2016-10-07T23:15:34Z</time></trkpt>
<trkpt lat="29.819894" lon="95.786261">
<time>2016-10-07T23:15:35Z</time></trkpt>
<trkpt lat="29.820354" lon="95.786121">
<time>2016-10-07T23:15:36Z</time></trkpt>
<trkpt lat="29.820783" lon="95.78602">
<time>2016-10-07T23:15:37Z</time></trkpt>
<trkpt lat="29.821143" lon="95.78595">
<time>2016-10-07T23:15:38Z</time></trkpt>
<trkpt lat="29.821943" lon="95.78586">
<time>2016-10-07T23:15:39Z</time></trkpt>
<trkpt lat="29.823033" lon="95.78571">
<time>2016-10-07T23:15:40Z</time></trkpt>
<trkpt lat="29.823233" lon="95.78571">
<time>2016-10-07T23:15:41Z</time></trkpt>
<trkpt lat="29.823543" lon="95.78573">
<time>2016-10-07T23:15:42Z</time></trkpt>
<trkpt lat="29.823943" lon="95.78581">
<time>2016-10-07T23:15:43Z</time></trkpt>
<trkpt lat="29.825423" lon="95.786221">
<time>2016-10-07T23:15:44Z</time></trkpt>
<trkpt lat="29.826534" lon="95.786511">
<time>2016-10-07T23:15:45Z</time></trkpt>
<trkpt lat="29.827364" lon="95.786812">
<time>2016-10-07T23:15:46Z</time></trkpt>
<trkpt lat="29.827674" lon="95.786952">
<time>2016-10-07T23:15:47Z</time></trkpt>
<trkpt lat="29.828665" lon="95.787443">
<time>2016-10-07T23:15:48Z</time></trkpt>
<trkpt lat="29.830035" lon="95.788125">
<time>2016-10-07T23:15:49Z</time></trkpt>
<trkpt lat="29.830976" lon="95.788606">
<time>2016-10-07T23:15:50Z</time></trkpt>
<trkpt lat="29.831667" lon="95.789017">
<time>2016-10-07T23:15:51Z</time></trkpt>
<trkpt lat="29.832077" lon="95.789217">
<time>2016-10-07T23:15:52Z</time></trkpt>
<trkpt lat="29.832407" lon="95.789337">
<time>2016-10-07T23:15:53Z</time></trkpt>
<trkpt lat="29.832767" lon="95.789428">
<time>2016-10-07T23:15:54Z</time></trkpt>
<trkpt lat="29.833377" lon="95.789528">
<time>2016-10-07T23:15:55Z</time></trkpt>
<trkpt lat="29.833937" lon="95.789648">
<time>2016-10-07T23:15:56Z</time></trkpt>
<trkpt lat="29.834127" lon="95.789678">
<time>2016-10-07T23:15:57Z</time></trkpt>
<trkpt lat="29.834307" lon="95.789698">
<time>2016-10-07T23:15:58Z</time></trkpt>
<trkpt lat="29.834667" lon="95.789678">
<time>2016-10-07T23:15:59Z</time></trkpt>
<trkpt lat="29.834857" lon="95.789638">
<time>2016-10-07T23:16:00Z</time></trkpt>
<trkpt lat="29.835047" lon="95.789588">
<time>2016-10-07T23:16:01Z</time></trkpt>
<trkpt lat="29.835227" lon="95.789498">
<time>2016-10-07T23:16:02Z</time></trkpt>
<trkpt lat="29.835477" lon="95.789327">
<time>2016-10-07T23:16:03Z</time></trkpt>
<trkpt lat="29.836116" lon="95.788836">
<time>2016-10-07T23:16:04Z</time></trkpt>
<trkpt lat="29.836645" lon="95.788455">
<time>2016-10-07T23:16:05Z</time></trkpt>
<trkpt lat="29.836925" lon="95.788225">
<time>2016-10-07T23:16:06Z</time></trkpt>
<trkpt lat="29.837215" lon="95.787984">
<time>2016-10-07T23:16:07Z</time></trkpt>
<trkpt lat="29.837415" lon="95.787824">
<time>2016-10-07T23:16:08Z</time></trkpt>
<trkpt lat="29.837604" lon="95.787634">
<time>2016-10-07T23:16:09Z</time></trkpt>
<trkpt lat="29.837754" lon="95.787463">
<time>2016-10-07T23:16:10Z</time></trkpt>
<trkpt lat="29.838024" lon="95.787112">
<time>2016-10-07T23:16:11Z</time></trkpt>
<trkpt lat="29.838343" lon="95.786661">
<time>2016-10-07T23:16:12Z</time></trkpt>
<trkpt lat="29.838613" lon="95.78627">
<time>2016-10-07T23:16:13Z</time></trkpt>
<trkpt lat="29.838982" lon="95.785729">
<time>2016-10-07T23:16:14Z</time></trkpt>
<trkpt lat="29.839172" lon="95.785489">
<time>2016-10-07T23:16:15Z</time></trkpt>
<trkpt lat="29.839331" lon="95.785268">
<time>2016-10-07T23:16:16Z</time></trkpt>
<trkpt lat="29.839511" lon="95.785048">
<time>2016-10-07T23:16:17Z</time></trkpt>
<trkpt lat="29.839671" lon="95.784867">
<time>2016-10-07T23:16:18Z</time></trkpt>
<trkpt lat="29.83989" lon="95.784667">
<time>2016-10-07T23:16:19Z</time></trkpt>
<trkpt lat="29.84005" lon="95.784537">
<time>2016-10-07T23:16:20Z</time></trkpt>
<trkpt lat="29.84019" lon="95.784437">
<time>2016-10-07T23:16:21Z</time></trkpt>
<trkpt lat="29.84037" lon="95.784316">
<time>2016-10-07T23:16:22Z</time></trkpt>
<trkpt lat="29.84073" lon="95.784116">
<time>2016-10-07T23:16:23Z</time></trkpt>
<trkpt lat="29.841149" lon="95.783875">
<time>2016-10-07T23:16:24Z</time></trkpt>
<trkpt lat="29.841509" lon="95.783665">
<time>2016-10-07T23:16:25Z</time></trkpt>
<trkpt lat="29.841719" lon="95.783575">
<time>2016-10-07T23:16:26Z</time></trkpt>
<trkpt lat="29.841979" lon="95.783474">
<time>2016-10-07T23:16:27Z</time></trkpt>
<trkpt lat="29.842179" lon="95.783384">
<time>2016-10-07T23:16:28Z</time></trkpt>
<trkpt lat="29.842339" lon="95.783314">
<time>2016-10-07T23:16:29Z</time></trkpt>
<trkpt lat="29.843148" lon="95.782873">
<time>2016-10-07T23:16:30Z</time></trkpt>
<trkpt lat="29.843798" lon="95.782542">
<time>2016-10-07T23:16:31Z</time></trkpt>
<trkpt lat="29.844527" lon="95.782182">
<time>2016-10-07T23:16:32Z</time></trkpt>
<trkpt lat="29.844667" lon="95.782082">
<time>2016-10-07T23:16:33Z</time></trkpt>
<trkpt lat="29.844777" lon="95.781991">
<time>2016-10-07T23:16:34Z</time></trkpt>
<trkpt lat="29.844927" lon="95.781851">
<time>2016-10-07T23:16:35Z</time></trkpt>
<trkpt lat="29.845007" lon="95.781791">
<time>2016-10-07T23:16:36Z</time></trkpt>
<trkpt lat="29.845077" lon="95.781741">
<time>2016-10-07T23:16:37Z</time></trkpt>
<trkpt lat="29.845147" lon="95.781701">
<time>2016-10-07T23:16:38Z</time></trkpt>
<trkpt lat="29.845227" lon="95.781671">
<time>2016-10-07T23:16:39Z</time></trkpt>
<trkpt lat="29.845556" lon="95.78155">
<time>2016-10-07T23:16:40Z</time></trkpt>
<trkpt lat="29.845816" lon="95.78146">
<time>2016-10-07T23:16:41Z</time></trkpt>
<trkpt lat="29.846106" lon="95.78134">
<time>2016-10-07T23:16:42Z</time></trkpt>
<trkpt lat="29.846336" lon="95.78123">
<time>2016-10-07T23:16:43Z</time></trkpt>
<trkpt lat="29.846986" lon="95.780879">
<time>2016-10-07T23:16:44Z</time></trkpt>
<trkpt lat="29.847295" lon="95.780699">
<time>2016-10-07T23:16:45Z</time></trkpt>
<trkpt lat="29.847575" lon="95.780538">
<time>2016-10-07T23:16:46Z</time></trkpt>
<trkpt lat="29.848055" lon="95.780258">
<time>2016-10-07T23:16:47Z</time></trkpt>
<trkpt lat="29.848255" lon="95.780158">
<time>2016-10-07T23:16:48Z</time></trkpt>
<trkpt lat="29.848445" lon="95.780067">
<time>2016-10-07T23:16:49Z</time></trkpt>
<trkpt lat="29.848645" lon="95.780007">
<time>2016-10-07T23:16:50Z</time></trkpt>
<trkpt lat="29.849854" lon="95.779687">
<time>2016-10-07T23:16:51Z</time></trkpt>
<trkpt lat="29.851064" lon="95.779366">
<time>2016-10-07T23:16:52Z</time></trkpt>
<trkpt lat="29.851424" lon="95.779306">
<time>2016-10-07T23:16:53Z</time></trkpt>
<trkpt lat="29.851854" lon="95.779246">
<time>2016-10-07T23:16:54Z</time></trkpt>
<trkpt lat="29.852134" lon="95.779196">
<time>2016-10-07T23:16:55Z</time></trkpt>
<trkpt lat="29.852343" lon="95.779136">
<time>2016-10-07T23:16:56Z</time></trkpt>
<trkpt lat="29.852733" lon="95.778965">
<time>2016-10-07T23:16:57Z</time></trkpt>
<trkpt lat="29.853103" lon="95.778795">
<time>2016-10-07T23:16:58Z</time></trkpt>
<trkpt lat="29.853183" lon="95.778745">
<time>2016-10-07T23:16:59Z</time></trkpt>
<trkpt lat="29.853223" lon="95.778705">
<time>2016-10-07T23:17:00Z</time></trkpt>
<trkpt lat="29.853293" lon="95.778635">
<time>2016-10-07T23:17:01Z</time></trkpt>
<trkpt lat="29.853353" lon="95.778544">
<time>2016-10-07T23:17:02Z</time></trkpt>
<trkpt lat="29.853413" lon="95.778434">
<time>2016-10-07T23:17:03Z</time></trkpt>
<trkpt lat="29.853483" lon="95.778284">
<time>2016-10-07T23:17:04Z</time></trkpt>
<trkpt lat="29.853542" lon="95.778154">
<time>2016-10-07T23:17:05Z</time></trkpt>
<trkpt lat="29.853632" lon="95.777993">
<time>2016-10-07T23:17:06Z</time></trkpt>
<trkpt lat="29.853722" lon="95.777863">
<time>2016-10-07T23:17:07Z</time></trkpt>
<trkpt lat="29.853842" lon="95.777703">
<time>2016-10-07T23:17:08Z</time></trkpt>
<trkpt lat="29.854511" lon="95.776881">
<time>2016-10-07T23:17:09Z</time></trkpt>
<trkpt lat="29.85562" lon="95.775509">
<time>2016-10-07T23:17:10Z</time></trkpt>
<trkpt lat="29.856029" lon="95.774958">
<time>2016-10-07T23:17:11Z</time></trkpt>
<trkpt lat="29.856479" lon="95.774337">
<time>2016-10-07T23:17:12Z</time></trkpt>
<trkpt lat="29.856808" lon="95.773866">
<time>2016-10-07T23:17:13Z</time></trkpt>
<trkpt lat="29.857527" lon="95.772804">
<time>2016-10-07T23:17:14Z</time></trkpt>
<trkpt lat="29.857977" lon="95.772143">
<time>2016-10-07T23:17:15Z</time></trkpt>
<trkpt lat="29.858456" lon="95.771382">
<time>2016-10-07T23:17:16Z</time></trkpt>
<trkpt lat="29.858995" lon="95.77054">
<time>2016-10-07T23:17:17Z</time></trkpt>
<trkpt lat="29.859545" lon="95.769699">
<time>2016-10-07T23:17:18Z</time></trkpt>
<trkpt lat="29.860314" lon="95.768487">
<time>2016-10-07T23:17:19Z</time></trkpt>
<trkpt lat="29.860743" lon="95.767816">
<time>2016-10-07T23:17:20Z</time></trkpt>
<trkpt lat="29.860933" lon="95.767536">
<time>2016-10-07T23:17:21Z</time></trkpt>
<trkpt lat="29.861502" lon="95.766654">
<time>2016-10-07T23:17:22Z</time></trkpt>
<trkpt lat="29.861832" lon="95.766133">
<time>2016-10-07T23:17:23Z</time></trkpt>
<trkpt lat="29.862002" lon="95.765893">
<time>2016-10-07T23:17:24Z</time></trkpt>
<trkpt lat="29.863321" lon="95.76388">
<time>2016-10-07T23:17:25Z</time></trkpt>
<trkpt lat="29.86426" lon="95.762438">
<time>2016-10-07T23:17:26Z</time></trkpt>
<trkpt lat="29.8648" lon="95.761607">
<time>2016-10-07T23:17:27Z</time></trkpt>
<trkpt lat="29.865209" lon="95.760967">
<time>2016-10-07T23:17:28Z</time></trkpt>
<trkpt lat="29.865859" lon="95.759996">
<time>2016-10-07T23:17:29Z</time></trkpt>
<trkpt lat="29.866049" lon="95.759685">
<time>2016-10-07T23:17:30Z</time></trkpt>
<trkpt lat="29.866468" lon="95.759044">
<time>2016-10-07T23:17:31Z</time></trkpt>
<trkpt lat="29.867128" lon="95.758043">
<time>2016-10-07T23:17:32Z</time></trkpt>
<trkpt lat="29.867778" lon="95.757042">
<time>2016-10-07T23:17:33Z</time></trkpt>
<trkpt lat="29.868287" lon="95.756241">
<time>2016-10-07T23:17:34Z</time></trkpt>
<trkpt lat="29.868777" lon="95.755491">
<time>2016-10-07T23:17:35Z</time></trkpt>
<trkpt lat="29.868887" lon="95.755311">
<time>2016-10-07T23:17:36Z</time></trkpt>
<trkpt lat="29.869137" lon="95.75494">
<time>2016-10-07T23:17:37Z</time></trkpt>
<trkpt lat="29.869267" lon="95.75474">
<time>2016-10-07T23:17:38Z</time></trkpt>
<trkpt lat="29.869387" lon="95.75457">
<time>2016-10-07T23:17:39Z</time></trkpt>
<trkpt lat="29.869777" lon="95.754129">
<time>2016-10-07T23:17:40Z</time></trkpt>
<trkpt lat="29.869937" lon="95.753969">
<time>2016-10-07T23:17:41Z</time></trkpt>
<trkpt lat="29.871557" lon="95.752438">
<time>2016-10-07T23:17:42Z</time></trkpt>
<trkpt lat="29.874026" lon="95.750066">
<time>2016-10-07T23:17:43Z</time></trkpt>
<trkpt lat="29.874776" lon="95.749305">
<time>2016-10-07T23:17:44Z</time></trkpt>
<trkpt lat="29.874876" lon="95.749195">
<time>2016-10-07T23:17:45Z</time></trkpt>
<trkpt lat="29.874986" lon="95.749045">
<time>2016-10-07T23:17:46Z</time></trkpt>
<trkpt lat="29.875086" lon="95.748845">
<time>2016-10-07T23:17:47Z</time></trkpt>
<trkpt lat="29.875166" lon="95.748625">
<time>2016-10-07T23:17:48Z</time></trkpt>
<trkpt lat="29.875266" lon="95.748265">
<time>2016-10-07T23:17:49Z</time></trkpt>
<trkpt lat="29.875366" lon="95.747764">
<time>2016-10-07T23:17:50Z</time></trkpt>
<trkpt lat="29.875707" lon="95.746294">
<time>2016-10-07T23:17:51Z</time></trkpt>
<trkpt lat="29.876137" lon="95.744403">
<time>2016-10-07T23:17:52Z</time></trkpt>
<trkpt lat="29.876497" lon="95.742812">
<time>2016-10-07T23:17:53Z</time></trkpt>
<trkpt lat="29.876597" lon="95.742352">
<time>2016-10-07T23:17:54Z</time></trkpt>
<trkpt lat="29.876757" lon="95.741651">
<time>2016-10-07T23:17:55Z</time></trkpt>
<trkpt lat="29.876828" lon="95.741321">
<time>2016-10-07T23:17:56Z</time></trkpt>
<trkpt lat="29.876878" lon="95.741131">
<time>2016-10-07T23:17:57Z</time></trkpt>
<trkpt lat="29.876968" lon="95.740771">
<time>2016-10-07T23:17:58Z</time></trkpt>
<trkpt lat="29.877058" lon="95.740511">
<time>2016-10-07T23:17:59Z</time></trkpt>
<trkpt lat="29.877148" lon="95.740281">
<time>2016-10-07T23:18:00Z</time></trkpt>
<trkpt lat="29.877208" lon="95.740141">
<time>2016-10-07T23:18:01Z</time></trkpt>
<trkpt lat="29.877298" lon="95.739961">
<time>2016-10-07T23:18:02Z</time></trkpt>
<trkpt lat="29.877388" lon="95.739801">
<time>2016-10-07T23:18:03Z</time></trkpt>
<trkpt lat="29.877708" lon="95.739221">
<time>2016-10-07T23:18:04Z</time></trkpt>
<trkpt lat="29.878459" lon="95.7379">
<time>2016-10-07T23:18:05Z</time></trkpt>
<trkpt lat="29.878589" lon="95.73768">
<time>2016-10-07T23:18:06Z</time></trkpt>
<trkpt lat="29.878679" lon="95.73752">
<time>2016-10-07T23:18:07Z</time></trkpt>
<trkpt lat="29.878759" lon="95.73736">
<time>2016-10-07T23:18:08Z</time></trkpt>
<trkpt lat="29.878849" lon="95.73717">
<time>2016-10-07T23:18:09Z</time></trkpt>
<trkpt lat="29.878919" lon="95.73702">
<time>2016-10-07T23:18:10Z</time></trkpt>
<trkpt lat="29.878959" lon="95.73687">
<time>2016-10-07T23:18:11Z</time></trkpt>
<trkpt lat="29.878999" lon="95.73671">
<time>2016-10-07T23:18:12Z</time></trkpt>
<trkpt lat="29.879029" lon="95.73653">
<time>2016-10-07T23:18:13Z</time></trkpt>
<trkpt lat="29.87908" lon="95.73621">
<time>2016-10-07T23:18:14Z</time></trkpt>
<trkpt lat="29.87911" lon="95.73596">
<time>2016-10-07T23:18:15Z</time></trkpt>
<trkpt lat="29.87916" lon="95.73574">
<time>2016-10-07T23:18:16Z</time></trkpt>
<trkpt lat="29.87921" lon="95.73557">
<time>2016-10-07T23:18:17Z</time></trkpt>
<trkpt lat="29.87929" lon="95.73538">
<time>2016-10-07T23:18:18Z</time></trkpt>
<trkpt lat="29.87934" lon="95.73528">
<time>2016-10-07T23:18:19Z</time></trkpt>
<trkpt lat="29.87941" lon="95.73517">
<time>2016-10-07T23:18:20Z</time></trkpt>
<trkpt lat="29.87946" lon="95.73509">
<time>2016-10-07T23:18:21Z</time></trkpt>
<trkpt lat="29.87955" lon="95.73497">
<time>2016-10-07T23:18:22Z</time></trkpt>
<trkpt lat="29.8798" lon="95.73465">
<time>2016-10-07T23:18:23Z</time></trkpt>
<trkpt lat="29.880101" lon="95.73424">
<time>2016-10-07T23:18:24Z</time></trkpt>
<trkpt lat="29.880381" lon="95.73387">
<time>2016-10-07T23:18:25Z</time></trkpt>
<trkpt lat="29.880811" lon="95.73331">
<time>2016-10-07T23:18:26Z</time></trkpt>
<trkpt lat="29.880911" lon="95.73318">
<time>2016-10-07T23:18:27Z</time></trkpt>
<trkpt lat="29.881021" lon="95.73303">
<time>2016-10-07T23:18:28Z</time></trkpt>
<trkpt lat="29.881081" lon="95.73292">
<time>2016-10-07T23:18:29Z</time></trkpt>
<trkpt lat="29.881151" lon="95.73276">
<time>2016-10-07T23:18:30Z</time></trkpt>
<trkpt lat="29.881192" lon="95.73261">
<time>2016-10-07T23:18:31Z</time></trkpt>
<trkpt lat="29.881222" lon="95.73247">
<time>2016-10-07T23:18:32Z</time></trkpt>
<trkpt lat="29.881402" lon="95.73156">
<time>2016-10-07T23:18:33Z</time></trkpt>
<trkpt lat="29.881533" lon="95.73098">
<time>2016-10-07T23:18:34Z</time></trkpt>
<trkpt lat="29.881663" lon="95.7303">
<time>2016-10-07T23:18:35Z</time></trkpt>
<trkpt lat="29.882155" lon="95.727861">
<time>2016-10-07T23:18:36Z</time></trkpt>
<trkpt lat="29.882195" lon="95.727671">
<time>2016-10-07T23:18:37Z</time></trkpt>
<trkpt lat="29.882225" lon="95.727461">
<time>2016-10-07T23:18:38Z</time></trkpt>
<trkpt lat="29.882266" lon="95.727071">
<time>2016-10-07T23:18:39Z</time></trkpt>
<trkpt lat="29.882286" lon="95.726771">
<time>2016-10-07T23:18:40Z</time></trkpt>
<trkpt lat="29.882286" lon="95.726441">
<time>2016-10-07T23:18:41Z</time></trkpt>
<trkpt lat="29.882266" lon="95.726121">
<time>2016-10-07T23:18:42Z</time></trkpt>
<trkpt lat="29.882237" lon="95.725881">
<time>2016-10-07T23:18:43Z</time></trkpt>
<trkpt lat="29.882207" lon="95.725631">
<time>2016-10-07T23:18:44Z</time></trkpt>
<trkpt lat="29.882177" lon="95.725451">
<time>2016-10-07T23:18:45Z</time></trkpt>
<trkpt lat="29.882107" lon="95.725092">
<time>2016-10-07T23:18:46Z</time></trkpt>
<trkpt lat="29.881789" lon="95.723682">
<time>2016-10-07T23:18:47Z</time></trkpt>
<trkpt lat="29.881082" lon="95.720544">
<time>2016-10-07T23:18:48Z</time></trkpt>
<trkpt lat="29.880853" lon="95.719504">
<time>2016-10-07T23:18:49Z</time></trkpt>
<trkpt lat="29.880395" lon="95.717565">
<time>2016-10-07T23:18:50Z</time></trkpt>
<trkpt lat="29.880146" lon="95.716466">
<time>2016-10-07T23:18:51Z</time></trkpt>
<trkpt lat="29.880096" lon="95.716256">
<time>2016-10-07T23:18:52Z</time></trkpt>
<trkpt lat="29.880027" lon="95.715896">
<time>2016-10-07T23:18:53Z</time></trkpt>
<trkpt lat="29.879987" lon="95.715607">
<time>2016-10-07T23:18:54Z</time></trkpt>
<trkpt lat="29.879987" lon="95.715487">
<time>2016-10-07T23:18:55Z</time></trkpt>
<trkpt lat="29.879988" lon="95.715307">
<time>2016-10-07T23:18:56Z</time></trkpt>
<trkpt lat="29.879998" lon="95.714937">
<time>2016-10-07T23:18:57Z</time></trkpt>
<trkpt lat="29.880028" lon="95.714637">
<time>2016-10-07T23:18:58Z</time></trkpt>
<trkpt lat="29.88019" lon="95.713268">
<time>2016-10-07T23:18:59Z</time></trkpt>
<trkpt lat="29.880231" lon="95.712929">
<time>2016-10-07T23:19:00Z</time></trkpt>
<trkpt lat="29.880271" lon="95.712639">
<time>2016-10-07T23:19:01Z</time></trkpt>
<trkpt lat="29.880382" lon="95.712079">
<time>2016-10-07T23:19:02Z</time></trkpt>
<trkpt lat="29.880482" lon="95.71169">
<time>2016-10-07T23:19:03Z</time></trkpt>
<trkpt lat="29.880582" lon="95.71143">
<time>2016-10-07T23:19:04Z</time></trkpt>
<trkpt lat="29.880723" lon="95.71109">
<time>2016-10-07T23:19:05Z</time></trkpt>
<trkpt lat="29.880963" lon="95.710651">
<time>2016-10-07T23:19:06Z</time></trkpt>
<trkpt lat="29.881074" lon="95.710451">
<time>2016-10-07T23:19:07Z</time></trkpt>
<trkpt lat="29.881214" lon="95.710251">
<time>2016-10-07T23:19:08Z</time></trkpt>
<trkpt lat="29.881354" lon="95.710061">
<time>2016-10-07T23:19:09Z</time></trkpt>
<trkpt lat="29.881535" lon="95.709841">
<time>2016-10-07T23:19:10Z</time></trkpt>
<trkpt lat="29.881695" lon="95.709671">
<time>2016-10-07T23:19:11Z</time></trkpt>
<trkpt lat="29.881995" lon="95.709412">
<time>2016-10-07T23:19:12Z</time></trkpt>
<trkpt lat="29.882225" lon="95.709252">
<time>2016-10-07T23:19:13Z</time></trkpt>
<trkpt lat="29.882405" lon="95.709152">
<time>2016-10-07T23:19:14Z</time></trkpt>
<trkpt lat="29.882556" lon="95.709062">
<time>2016-10-07T23:19:15Z</time></trkpt>
<trkpt lat="29.884297" lon="95.708333">
<time>2016-10-07T23:19:16Z</time></trkpt>
<trkpt lat="29.885377" lon="95.707873">
<time>2016-10-07T23:19:17Z</time></trkpt>
<trkpt lat="29.886008" lon="95.707583">
<time>2016-10-07T23:19:18Z</time></trkpt>
<trkpt lat="29.886148" lon="95.707483">
<time>2016-10-07T23:19:19Z</time></trkpt>
<trkpt lat="29.886238" lon="95.707394">
<time>2016-10-07T23:19:20Z</time></trkpt>
<trkpt lat="29.886368" lon="95.707224">
<time>2016-10-07T23:19:21Z</time></trkpt>
<trkpt lat="29.886458" lon="95.707064">
<time>2016-10-07T23:19:22Z</time></trkpt>
<trkpt lat="29.886549" lon="95.706854">
<time>2016-10-07T23:19:23Z</time></trkpt>
<trkpt lat="29.886769" lon="95.706325">
<time>2016-10-07T23:19:24Z</time></trkpt>
<trkpt lat="29.887482" lon="95.704576">
<time>2016-10-07T23:19:25Z</time></trkpt>
<trkpt lat="29.887582" lon="95.704387">
<time>2016-10-07T23:19:26Z</time></trkpt>
<trkpt lat="29.887703" lon="95.704087">
<time>2016-10-07T23:19:27Z</time></trkpt>
<trkpt lat="29.887823" lon="95.703777">
<time>2016-10-07T23:19:28Z</time></trkpt>
<trkpt lat="29.887883" lon="95.703607">
<time>2016-10-07T23:19:29Z</time></trkpt>
<trkpt lat="29.887984" lon="95.703428">
<time>2016-10-07T23:19:30Z</time></trkpt>
<trkpt lat="29.888084" lon="95.703238">
<time>2016-10-07T23:19:31Z</time></trkpt>
<trkpt lat="29.888254" lon="95.702958">
<time>2016-10-07T23:19:32Z</time></trkpt>
<trkpt lat="29.888385" lon="95.702728">
<time>2016-10-07T23:19:33Z</time></trkpt>
<trkpt lat="29.888545" lon="95.702509">
<time>2016-10-07T23:19:34Z</time></trkpt>
<trkpt lat="29.888675" lon="95.702359">
<time>2016-10-07T23:19:35Z</time></trkpt>
<trkpt lat="29.888845" lon="95.702189">
<time>2016-10-07T23:19:36Z</time></trkpt>
<trkpt lat="29.889446" lon="95.70159">
<time>2016-10-07T23:19:37Z</time></trkpt>
<trkpt lat="29.889547" lon="95.70148">
<time>2016-10-07T23:19:38Z</time></trkpt>
<trkpt lat="29.889617" lon="95.7014">
<time>2016-10-07T23:19:39Z</time></trkpt>
<trkpt lat="29.889717" lon="95.70122">
<time>2016-10-07T23:19:40Z</time></trkpt>
<trkpt lat="29.889747" lon="95.70111">
<time>2016-10-07T23:19:41Z</time></trkpt>
<trkpt lat="29.889767" lon="95.70098">
<time>2016-10-07T23:19:42Z</time></trkpt>
<trkpt lat="29.889758" lon="95.700791">
<time>2016-10-07T23:19:43Z</time></trkpt>
<trkpt lat="29.889738" lon="95.700631">
<time>2016-10-07T23:19:44Z</time></trkpt>
<trkpt lat="29.889649" lon="95.700011">
<time>2016-10-07T23:19:45Z</time></trkpt>
<trkpt lat="29.889609" lon="95.699722">
<time>2016-10-07T23:19:46Z</time></trkpt>
<trkpt lat="29.88955" lon="95.699292">
<time>2016-10-07T23:19:47Z</time></trkpt>
<trkpt lat="29.889451" lon="95.698413">
<time>2016-10-07T23:19:48Z</time></trkpt>
<trkpt lat="29.889442" lon="95.698194">
<time>2016-10-07T23:19:49Z</time></trkpt>
<trkpt lat="29.889442" lon="95.697964">
<time>2016-10-07T23:19:50Z</time></trkpt>
<trkpt lat="29.889443" lon="95.697794">
<time>2016-10-07T23:19:51Z</time></trkpt>
<trkpt lat="29.889453" lon="95.697564">
<time>2016-10-07T23:19:52Z</time></trkpt>
<trkpt lat="29.889493" lon="95.697275">
<time>2016-10-07T23:19:53Z</time></trkpt>
<trkpt lat="29.889866" lon="95.695507">
<time>2016-10-07T23:19:54Z</time></trkpt>
<trkpt lat="29.889997" lon="95.694928">
<time>2016-10-07T23:19:55Z</time></trkpt>
<trkpt lat="29.890068" lon="95.694518">
<time>2016-10-07T23:19:56Z</time></trkpt>
<trkpt lat="29.890118" lon="95.694309">
<time>2016-10-07T23:19:57Z</time></trkpt>
<trkpt lat="29.890159" lon="95.694149">
<time>2016-10-07T23:19:58Z</time></trkpt>
<trkpt lat="29.890199" lon="95.694019">
<time>2016-10-07T23:19:59Z</time></trkpt>
<trkpt lat="29.890239" lon="95.693899">
<time>2016-10-07T23:20:00Z</time></trkpt>
<trkpt lat="29.890309" lon="95.693769">
<time>2016-10-07T23:20:01Z</time></trkpt>
<trkpt lat="29.89042" lon="95.69362">
<time>2016-10-07T23:20:02Z</time></trkpt>
<trkpt lat="29.89054" lon="95.69341">
<time>2016-10-07T23:20:03Z</time></trkpt>
<trkpt lat="29.89061" lon="95.69327">
<time>2016-10-07T23:20:04Z</time></trkpt>
<trkpt lat="29.89064" lon="95.69316">
<time>2016-10-07T23:20:05Z</time></trkpt>
<trkpt lat="29.89065" lon="95.69308">
<time>2016-10-07T23:20:06Z</time></trkpt>
<trkpt lat="29.890661" lon="95.69297">
<time>2016-10-07T23:20:07Z</time></trkpt>
<trkpt lat="29.890661" lon="95.692751">
<time>2016-10-07T23:20:08Z</time></trkpt>
<trkpt lat="29.890651" lon="95.692471">
<time>2016-10-07T23:20:09Z</time></trkpt>
<trkpt lat="29.890642" lon="95.692281">
<time>2016-10-07T23:20:10Z</time></trkpt>
<trkpt lat="29.890652" lon="95.692132">
<time>2016-10-07T23:20:11Z</time></trkpt>
<trkpt lat="29.890692" lon="95.691932">
<time>2016-10-07T23:20:12Z</time></trkpt>
<trkpt lat="29.890733" lon="95.691752">
<time>2016-10-07T23:20:13Z</time></trkpt>
<trkpt lat="29.890833" lon="95.691552">
<time>2016-10-07T23:20:14Z</time></trkpt>
<trkpt lat="29.890963" lon="95.691363">
<time>2016-10-07T23:20:15Z</time></trkpt>
<trkpt lat="29.891134" lon="95.691163">
<time>2016-10-07T23:20:16Z</time></trkpt>
<trkpt lat="29.891334" lon="95.690983">
<time>2016-10-07T23:20:17Z</time></trkpt>
<trkpt lat="29.892606" lon="95.689955">
<time>2016-10-07T23:20:18Z</time></trkpt>
<trkpt lat="29.892996" lon="95.689625">
<time>2016-10-07T23:20:19Z</time></trkpt>
<trkpt lat="29.893337" lon="95.689345">
<time>2016-10-07T23:20:20Z</time></trkpt>
<trkpt lat="29.893547" lon="95.689176">
<time>2016-10-07T23:20:21Z</time></trkpt>
<trkpt lat="29.893758" lon="95.688986">
<time>2016-10-07T23:20:22Z</time></trkpt>
<trkpt lat="29.893938" lon="95.688826">
<time>2016-10-07T23:20:23Z</time></trkpt>
<trkpt lat="29.894018" lon="95.688746">
<time>2016-10-07T23:20:24Z</time></trkpt>
<trkpt lat="29.894088" lon="95.688666">
<time>2016-10-07T23:20:25Z</time></trkpt>
<trkpt lat="29.894178" lon="95.688537">
<time>2016-10-07T23:20:26Z</time></trkpt>
<trkpt lat="29.894269" lon="95.688377">
<time>2016-10-07T23:20:27Z</time></trkpt>
<trkpt lat="29.894379" lon="95.688147">
<time>2016-10-07T23:20:28Z</time></trkpt>
<trkpt lat="29.89449" lon="95.687887">
<time>2016-10-07T23:20:29Z</time></trkpt>
<trkpt lat="29.89469" lon="95.687428">
<time>2016-10-07T23:20:30Z</time></trkpt>
<trkpt lat="29.894891" lon="95.686969">
<time>2016-10-07T23:20:31Z</time></trkpt>
<trkpt lat="29.895122" lon="95.68645">
<time>2016-10-07T23:20:32Z</time></trkpt>
<trkpt lat="29.895293" lon="95.68606">
<time>2016-10-07T23:20:33Z</time></trkpt>
<trkpt lat="29.895423" lon="95.685691">
<time>2016-10-07T23:20:34Z</time></trkpt>
<trkpt lat="29.895484" lon="95.685431">
<time>2016-10-07T23:20:35Z</time></trkpt>
<trkpt lat="29.895524" lon="95.685161">
<time>2016-10-07T23:20:36Z</time></trkpt>
<trkpt lat="29.895535" lon="95.685042">
<time>2016-10-07T23:20:37Z</time></trkpt>
<trkpt lat="29.895545" lon="95.684852">
<time>2016-10-07T23:20:38Z</time></trkpt>
<trkpt lat="29.895535" lon="95.684682">
<time>2016-10-07T23:20:39Z</time></trkpt>
<trkpt lat="29.895516" lon="95.684492">
<time>2016-10-07T23:20:40Z</time></trkpt>
<trkpt lat="29.895456" lon="95.684103">
<time>2016-10-07T23:20:41Z</time></trkpt>
<trkpt lat="29.895407" lon="95.683773">
<time>2016-10-07T23:20:42Z</time></trkpt>
<trkpt lat="29.895377" lon="95.683584">
<time>2016-10-07T23:20:43Z</time></trkpt>
<trkpt lat="29.895378" lon="95.683444">
<time>2016-10-07T23:20:44Z</time></trkpt>
<trkpt lat="29.895388" lon="95.683314">
<time>2016-10-07T23:20:45Z</time></trkpt>
<trkpt lat="29.895408" lon="95.683204">
<time>2016-10-07T23:20:46Z</time></trkpt>
<trkpt lat="29.895448" lon="95.683055">
<time>2016-10-07T23:20:47Z</time></trkpt>
<trkpt lat="29.895519" lon="95.682875">
<time>2016-10-07T23:20:48Z</time></trkpt>
<trkpt lat="29.895589" lon="95.682735">
<time>2016-10-07T23:20:49Z</time></trkpt>
<trkpt lat="29.895729" lon="95.682555">
<time>2016-10-07T23:20:50Z</time></trkpt>
<trkpt lat="29.89591" lon="95.682376">
<time>2016-10-07T23:20:51Z</time></trkpt>
<trkpt lat="29.89626" lon="95.682036">
<time>2016-10-07T23:20:52Z</time></trkpt>
<trkpt lat="29.896491" lon="95.681836">
<time>2016-10-07T23:20:53Z</time></trkpt>
<trkpt lat="29.896721" lon="95.681647">
<time>2016-10-07T23:20:54Z</time></trkpt>
<trkpt lat="29.896881" lon="95.681517">
<time>2016-10-07T23:20:55Z</time></trkpt>
<trkpt lat="29.896991" lon="95.681387">
<time>2016-10-07T23:20:56Z</time></trkpt>
<trkpt lat="29.897062" lon="95.681297">
<time>2016-10-07T23:20:57Z</time></trkpt>
<trkpt lat="29.897102" lon="95.681217">
<time>2016-10-07T23:20:58Z</time></trkpt>
<trkpt lat="29.897172" lon="95.681058">
<time>2016-10-07T23:20:59Z</time></trkpt>
<trkpt lat="29.897253" lon="95.680798">
<time>2016-10-07T23:21:00Z</time></trkpt>
<trkpt lat="29.897343" lon="95.680309">
<time>2016-10-07T23:21:01Z</time></trkpt>
<trkpt lat="29.897434" lon="95.67976">
<time>2016-10-07T23:21:02Z</time></trkpt>
<trkpt lat="29.897445" lon="95.67964">
<time>2016-10-07T23:21:03Z</time></trkpt>
<trkpt lat="29.897445" lon="95.67951">
<time>2016-10-07T23:21:04Z</time></trkpt>
<trkpt lat="29.897435" lon="95.67933">
<time>2016-10-07T23:21:05Z</time></trkpt>
<trkpt lat="29.897356" lon="95.678861">
<time>2016-10-07T23:21:06Z</time></trkpt>
<trkpt lat="29.897317" lon="95.678482">
<time>2016-10-07T23:21:07Z</time></trkpt>
<trkpt lat="29.897258" lon="95.677873">
<time>2016-10-07T23:21:08Z</time></trkpt>
<trkpt lat="29.897248" lon="95.677713">
<time>2016-10-07T23:21:09Z</time></trkpt>
<trkpt lat="29.897259" lon="95.677573">
<time>2016-10-07T23:21:10Z</time></trkpt>
<trkpt lat="29.897269" lon="95.677473">
<time>2016-10-07T23:21:11Z</time></trkpt>
<trkpt lat="29.897309" lon="95.677293">
<time>2016-10-07T23:21:12Z</time></trkpt>
<trkpt lat="29.89735" lon="95.677044">
<time>2016-10-07T23:21:13Z</time></trkpt>
<trkpt lat="29.89738" lon="95.676794">
<time>2016-10-07T23:21:14Z</time></trkpt>
<trkpt lat="29.897401" lon="95.676495">
<time>2016-10-07T23:21:15Z</time></trkpt>
<trkpt lat="29.897401" lon="95.676305">
<time>2016-10-07T23:21:16Z</time></trkpt>
<trkpt lat="29.897421" lon="95.676105">
<time>2016-10-07T23:21:17Z</time></trkpt>
<trkpt lat="29.897452" lon="95.675965">
<time>2016-10-07T23:21:18Z</time></trkpt>
<trkpt lat="29.897502" lon="95.675856">
<time>2016-10-07T23:21:19Z</time></trkpt>
<trkpt lat="29.897562" lon="95.675706">
<time>2016-10-07T23:21:20Z</time></trkpt>
<trkpt lat="29.897642" lon="95.675566">
<time>2016-10-07T23:21:21Z</time></trkpt>
<trkpt lat="29.897713" lon="95.675386">
<time>2016-10-07T23:21:22Z</time></trkpt>
<trkpt lat="29.897783" lon="95.675217">
<time>2016-10-07T23:21:23Z</time></trkpt>
<trkpt lat="29.897843" lon="95.675027">
<time>2016-10-07T23:21:24Z</time></trkpt>
<trkpt lat="29.897874" lon="95.674887">
<time>2016-10-07T23:21:25Z</time></trkpt>
<trkpt lat="29.897914" lon="95.674687">
<time>2016-10-07T23:21:26Z</time></trkpt>
<trkpt lat="29.897935" lon="95.674438">
<time>2016-10-07T23:21:27Z</time></trkpt>
<trkpt lat="29.897935" lon="95.674118">
<time>2016-10-07T23:21:28Z</time></trkpt>
<trkpt lat="29.897916" lon="95.673539">
<time>2016-10-07T23:21:29Z</time></trkpt>
<trkpt lat="29.897987" lon="95.673">
<time>2016-10-07T23:21:30Z</time></trkpt>
<trkpt lat="29.898058" lon="95.672571">
<time>2016-10-07T23:21:31Z</time></trkpt>
<trkpt lat="29.898089" lon="95.672351">
<time>2016-10-07T23:21:32Z</time></trkpt>
<trkpt lat="29.898109" lon="95.672151">
<time>2016-10-07T23:21:33Z</time></trkpt>
<trkpt lat="29.89809" lon="95.671772">
<time>2016-10-07T23:21:34Z</time></trkpt>
<trkpt lat="29.89806" lon="95.671513">
<time>2016-10-07T23:21:35Z</time></trkpt>
<trkpt lat="29.898021" lon="95.671283">
<time>2016-10-07T23:21:36Z</time></trkpt>
<trkpt lat="29.897971" lon="95.671053">
<time>2016-10-07T23:21:37Z</time></trkpt>
<trkpt lat="29.897921" lon="95.670864">
<time>2016-10-07T23:21:38Z</time></trkpt>
<trkpt lat="29.897862" lon="95.670684">
<time>2016-10-07T23:21:39Z</time></trkpt>
<trkpt lat="29.897792" lon="95.670474">
<time>2016-10-07T23:21:40Z</time></trkpt>
<trkpt lat="29.897723" lon="95.670235">
<time>2016-10-07T23:21:41Z</time></trkpt>
<trkpt lat="29.897663" lon="95.669935">
<time>2016-10-07T23:21:42Z</time></trkpt>
<trkpt lat="29.897584" lon="95.669356">
<time>2016-10-07T23:21:43Z</time></trkpt>
<trkpt lat="29.897506" lon="95.668687">
<time>2016-10-07T23:21:44Z</time></trkpt>
<trkpt lat="29.897486" lon="95.668427">
<time>2016-10-07T23:21:45Z</time></trkpt>
<trkpt lat="29.897486" lon="95.668308">
<time>2016-10-07T23:21:46Z</time></trkpt>
<trkpt lat="29.897497" lon="95.668208">
<time>2016-10-07T23:21:47Z</time></trkpt>
<trkpt lat="29.897527" lon="95.668018">
<time>2016-10-07T23:21:48Z</time></trkpt>
<trkpt lat="29.897557" lon="95.667918">
<time>2016-10-07T23:21:49Z</time></trkpt>
<trkpt lat="29.897597" lon="95.667798">
<time>2016-10-07T23:21:50Z</time></trkpt>
<trkpt lat="29.897698" lon="95.667609">
<time>2016-10-07T23:21:51Z</time></trkpt>
<trkpt lat="29.897758" lon="95.667469">
<time>2016-10-07T23:21:52Z</time></trkpt>
<trkpt lat="29.897808" lon="95.667339">
<time>2016-10-07T23:21:53Z</time></trkpt>
<trkpt lat="29.897848" lon="95.667249">
<time>2016-10-07T23:21:54Z</time></trkpt>
<trkpt lat="29.897879" lon="95.667139">
<time>2016-10-07T23:21:55Z</time></trkpt>
<trkpt lat="29.897929" lon="95.66692">
<time>2016-10-07T23:21:56Z</time></trkpt>
<trkpt lat="29.89799" lon="95.66664">
<time>2016-10-07T23:21:57Z</time></trkpt>
<trkpt lat="29.89808" lon="95.666381">
<time>2016-10-07T23:21:58Z</time></trkpt>
<trkpt lat="29.898211" lon="95.666081">
<time>2016-10-07T23:21:59Z</time></trkpt>
<trkpt lat="29.898512" lon="95.665512">
<time>2016-10-07T23:22:00Z</time></trkpt>
<trkpt lat="29.898662" lon="95.665222">
<time>2016-10-07T23:22:01Z</time></trkpt>
<trkpt lat="29.898722" lon="95.665123">
<time>2016-10-07T23:22:02Z</time></trkpt>
<trkpt lat="29.898773" lon="95.665003">
<time>2016-10-07T23:22:03Z</time></trkpt>
<trkpt lat="29.898803" lon="95.664933">
<time>2016-10-07T23:22:04Z</time></trkpt>
<trkpt lat="29.898813" lon="95.664883">
<time>2016-10-07T23:22:05Z</time></trkpt>
<trkpt lat="29.898823" lon="95.664803">
<time>2016-10-07T23:22:06Z</time></trkpt>
<trkpt lat="29.898823" lon="95.664743">
<time>2016-10-07T23:22:07Z</time></trkpt>
<trkpt lat="29.898803" lon="95.664653">
<time>2016-10-07T23:22:08Z</time></trkpt>
<trkpt lat="29.898783" lon="95.664573">
<time>2016-10-07T23:22:09Z</time></trkpt>
<trkpt lat="29.898744" lon="95.664474">
<time>2016-10-07T23:22:10Z</time></trkpt>
<trkpt lat="29.898644" lon="95.664264">
<time>2016-10-07T23:22:11Z</time></trkpt>
<trkpt lat="29.898604" lon="95.664164">
<time>2016-10-07T23:22:12Z</time></trkpt>
<trkpt lat="29.898545" lon="95.664004">
<time>2016-10-07T23:22:13Z</time></trkpt>
<trkpt lat="29.898515" lon="95.663855">
<time>2016-10-07T23:22:14Z</time></trkpt>
<trkpt lat="29.898485" lon="95.663635">
<time>2016-10-07T23:22:15Z</time></trkpt>
<trkpt lat="29.898466" lon="95.663276">
<time>2016-10-07T23:22:16Z</time></trkpt>
<trkpt lat="29.898456" lon="95.663096">
<time>2016-10-07T23:22:17Z</time></trkpt>
<trkpt lat="29.898457" lon="95.662826">
<time>2016-10-07T23:22:18Z</time></trkpt>
<trkpt lat="29.898467" lon="95.662507">
<time>2016-10-07T23:22:19Z</time></trkpt>
<trkpt lat="29.898488" lon="95.662137">
<time>2016-10-07T23:22:20Z</time></trkpt>
<trkpt lat="29.898529" lon="95.661878">
<time>2016-10-07T23:22:21Z</time></trkpt>
<trkpt lat="29.898549" lon="95.661738">
<time>2016-10-07T23:22:22Z</time></trkpt>
<trkpt lat="29.898559" lon="95.661608">
<time>2016-10-07T23:22:23Z</time></trkpt>
<trkpt lat="29.89853" lon="95.661269">
<time>2016-10-07T23:22:24Z</time></trkpt>
<trkpt lat="29.89852" lon="95.661179">
<time>2016-10-07T23:22:25Z</time></trkpt>
<trkpt lat="29.89854" lon="95.661089">
<time>2016-10-07T23:22:26Z</time></trkpt>
<trkpt lat="29.89855" lon="95.661029">
<time>2016-10-07T23:22:27Z</time></trkpt>
<trkpt lat="29.89858" lon="95.660959">
<time>2016-10-07T23:22:28Z</time></trkpt>
<trkpt lat="29.89865" lon="95.660839">
<time>2016-10-07T23:22:29Z</time></trkpt>
<trkpt lat="29.898891" lon="95.66043">
<time>2016-10-07T23:22:30Z</time></trkpt>
<trkpt lat="29.899343" lon="95.659701">
<time>2016-10-07T23:22:31Z</time></trkpt>
<trkpt lat="29.899443" lon="95.659491">
<time>2016-10-07T23:22:32Z</time></trkpt>
<trkpt lat="29.899503" lon="95.659312">
<time>2016-10-07T23:22:33Z</time></trkpt>
<trkpt lat="29.899544" lon="95.659172">
<time>2016-10-07T23:22:34Z</time></trkpt>
<trkpt lat="29.899584" lon="95.659072">
<time>2016-10-07T23:22:35Z</time></trkpt>
<trkpt lat="29.899684" lon="95.658882">
<time>2016-10-07T23:22:36Z</time></trkpt>
<trkpt lat="29.899794" lon="95.658683">
<time>2016-10-07T23:22:37Z</time></trkpt>
<trkpt lat="29.899925" lon="95.658413">
<time>2016-10-07T23:22:38Z</time></trkpt>
<trkpt lat="29.900035" lon="95.658153">
<time>2016-10-07T23:22:39Z</time></trkpt>
<trkpt lat="29.900196" lon="95.657734">
<time>2016-10-07T23:22:40Z</time></trkpt>
<trkpt lat="29.900247" lon="95.657534">
<time>2016-10-07T23:22:41Z</time></trkpt>
<trkpt lat="29.900287" lon="95.657345">
<time>2016-10-07T23:22:42Z</time></trkpt>
<trkpt lat="29.900398" lon="95.656736">
<time>2016-10-07T23:22:43Z</time></trkpt>
<trkpt lat="29.90059" lon="95.655687">
<time>2016-10-07T23:22:44Z</time></trkpt>
<trkpt lat="29.9006" lon="95.655597">
<time>2016-10-07T23:22:45Z</time></trkpt>
<trkpt lat="29.90061" lon="95.655487">
<time>2016-10-07T23:22:46Z</time></trkpt>
<trkpt lat="29.900611" lon="95.655278">
<time>2016-10-07T23:22:47Z</time></trkpt>
<trkpt lat="29.900601" lon="95.655098">
<time>2016-10-07T23:22:48Z</time></trkpt>
<trkpt lat="29.900601" lon="95.654888">
<time>2016-10-07T23:22:49Z</time></trkpt>
<trkpt lat="29.900602" lon="95.654749">
<time>2016-10-07T23:22:50Z</time></trkpt>
<trkpt lat="29.900632" lon="95.654649">
<time>2016-10-07T23:22:51Z</time></trkpt>
<trkpt lat="29.900662" lon="95.654549">
<time>2016-10-07T23:22:52Z</time></trkpt>
<trkpt lat="29.900702" lon="95.654459">
<time>2016-10-07T23:22:53Z</time></trkpt>
<trkpt lat="29.900742" lon="95.654359">
<time>2016-10-07T23:22:54Z</time></trkpt>
<trkpt lat="29.900823" lon="95.654219">
<time>2016-10-07T23:22:55Z</time></trkpt>
<trkpt lat="29.900983" lon="95.65398">
<time>2016-10-07T23:22:56Z</time></trkpt>
<trkpt lat="29.901534" lon="95.653201">
<time>2016-10-07T23:22:57Z</time></trkpt>
<trkpt lat="29.901675" lon="95.652971">
<time>2016-10-07T23:22:58Z</time></trkpt>
<trkpt lat="29.901755" lon="95.652791">
<time>2016-10-07T23:22:59Z</time></trkpt>
<trkpt lat="29.901826" lon="95.652592">
<time>2016-10-07T23:23:00Z</time></trkpt>
<trkpt lat="29.901846" lon="95.652512">
<time>2016-10-07T23:23:01Z</time></trkpt>
<trkpt lat="29.901876" lon="95.652342">
<time>2016-10-07T23:23:02Z</time></trkpt>
<trkpt lat="29.901896" lon="95.652232">
<time>2016-10-07T23:23:03Z</time></trkpt>
<trkpt lat="29.901906" lon="95.652082">
<time>2016-10-07T23:23:04Z</time></trkpt>
<trkpt lat="29.901917" lon="95.651673">
<time>2016-10-07T23:23:05Z</time></trkpt>
<trkpt lat="29.901918" lon="95.651314">
<time>2016-10-07T23:23:06Z</time></trkpt>
<trkpt lat="29.901948" lon="95.650924">
<time>2016-10-07T23:23:07Z</time></trkpt>
<trkpt lat="29.901979" lon="95.650515">
<time>2016-10-07T23:23:08Z</time></trkpt>
<trkpt lat="29.90202" lon="95.650145">
<time>2016-10-07T23:23:09Z</time></trkpt>
<trkpt lat="29.902162" lon="95.649107">
<time>2016-10-07T23:23:10Z</time></trkpt>
<trkpt lat="29.902192" lon="95.648897">
<time>2016-10-07T23:23:11Z</time></trkpt>
<trkpt lat="29.902273" lon="95.648328">
<time>2016-10-07T23:23:12Z</time></trkpt>
<trkpt lat="29.902313" lon="95.648108">
<time>2016-10-07T23:23:13Z</time></trkpt>
<trkpt lat="29.902394" lon="95.647749">
<time>2016-10-07T23:23:14Z</time></trkpt>
<trkpt lat="29.902495" lon="95.647409">
<time>2016-10-07T23:23:15Z</time></trkpt>
<trkpt lat="29.902605" lon="95.647069">
<time>2016-10-07T23:23:16Z</time></trkpt>
<trkpt lat="29.902997" lon="95.645931">
<time>2016-10-07T23:23:17Z</time></trkpt>
<trkpt lat="29.903077" lon="95.645741">
<time>2016-10-07T23:23:18Z</time></trkpt>
<trkpt lat="29.903128" lon="95.645621">
<time>2016-10-07T23:23:19Z</time></trkpt>
<trkpt lat="29.903208" lon="95.645492">
<time>2016-10-07T23:23:20Z</time></trkpt>
<trkpt lat="29.903288" lon="95.645402">
<time>2016-10-07T23:23:21Z</time></trkpt>
<trkpt lat="29.903378" lon="95.645322">
<time>2016-10-07T23:23:22Z</time></trkpt>
<trkpt lat="29.903618" lon="95.645172">
<time>2016-10-07T23:23:23Z</time></trkpt>
<trkpt lat="29.904019" lon="95.644932">
<time>2016-10-07T23:23:24Z</time></trkpt>
<trkpt lat="29.904909" lon="95.644413">
<time>2016-10-07T23:23:25Z</time></trkpt>
<trkpt lat="29.90546" lon="95.644083">
<time>2016-10-07T23:23:26Z</time></trkpt>
<trkpt lat="29.9057" lon="95.643914">
<time>2016-10-07T23:23:27Z</time></trkpt>
<trkpt lat="29.90589" lon="95.643784">
<time>2016-10-07T23:23:28Z</time></trkpt>
<trkpt lat="29.906071" lon="95.643624">
<time>2016-10-07T23:23:29Z</time></trkpt>
<trkpt lat="29.906341" lon="95.643384">
<time>2016-10-07T23:23:30Z</time></trkpt>
<trkpt lat="29.906561" lon="95.643195">
<time>2016-10-07T23:23:31Z</time></trkpt>
<trkpt lat="29.906762" lon="95.643015">
<time>2016-10-07T23:23:32Z</time></trkpt>
<trkpt lat="29.906972" lon="95.642775">
<time>2016-10-07T23:23:33Z</time></trkpt>
<trkpt lat="29.907142" lon="95.642565">
<time>2016-10-07T23:23:34Z</time></trkpt>
<trkpt lat="29.907283" lon="95.642336">
<time>2016-10-07T23:23:35Z</time></trkpt>
<trkpt lat="29.907493" lon="95.641936">
<time>2016-10-07T23:23:36Z</time></trkpt>
<trkpt lat="29.907644" lon="95.641616">
<time>2016-10-07T23:23:37Z</time></trkpt>
<trkpt lat="29.907875" lon="95.641167">
<time>2016-10-07T23:23:38Z</time></trkpt>
<trkpt lat="29.908416" lon="95.640088">
<time>2016-10-07T23:23:39Z</time></trkpt>
<trkpt lat="29.908516" lon="95.639948">
<time>2016-10-07T23:23:40Z</time></trkpt>
<trkpt lat="29.908627" lon="95.639809">
<time>2016-10-07T23:23:41Z</time></trkpt>
<trkpt lat="29.908757" lon="95.639679">
<time>2016-10-07T23:23:42Z</time></trkpt>
<trkpt lat="29.908867" lon="95.639589">
<time>2016-10-07T23:23:43Z</time></trkpt>
<trkpt lat="29.909007" lon="95.639499">
<time>2016-10-07T23:23:44Z</time></trkpt>
<trkpt lat="29.909147" lon="95.639439">
<time>2016-10-07T23:23:45Z</time></trkpt>
<trkpt lat="29.909317" lon="95.639379">
<time>2016-10-07T23:23:46Z</time></trkpt>
<trkpt lat="29.909828" lon="95.639179">
<time>2016-10-07T23:23:47Z</time></trkpt>
<trkpt lat="29.911248" lon="95.63863">
<time>2016-10-07T23:23:48Z</time></trkpt>
<trkpt lat="29.912559" lon="95.638121">
<time>2016-10-07T23:23:49Z</time></trkpt>
<trkpt lat="29.913029" lon="95.637941">
<time>2016-10-07T23:23:50Z</time></trkpt>
<trkpt lat="29.91339" lon="95.637791">
<time>2016-10-07T23:23:51Z</time></trkpt>
<trkpt lat="29.9136" lon="95.637691">
<time>2016-10-07T23:23:52Z</time></trkpt>
<trkpt lat="29.91375" lon="95.637591">
<time>2016-10-07T23:23:53Z</time></trkpt>
<trkpt lat="29.91395" lon="95.637451">
<time>2016-10-07T23:23:54Z</time></trkpt>
<trkpt lat="29.9142" lon="95.637241">
<time>2016-10-07T23:23:55Z</time></trkpt>
<trkpt lat="29.914491" lon="95.636962">
<time>2016-10-07T23:23:56Z</time></trkpt>
<trkpt lat="29.915242" lon="95.636173">
<time>2016-10-07T23:23:57Z</time></trkpt>
<trkpt lat="29.915673" lon="95.635723">
<time>2016-10-07T23:23:58Z</time></trkpt>
<trkpt lat="29.915843" lon="95.635533">
<time>2016-10-07T23:23:59Z</time></trkpt>
<trkpt lat="29.915913" lon="95.635443">
<time>2016-10-07T23:24:00Z</time></trkpt>
<trkpt lat="29.916003" lon="95.635304">
<time>2016-10-07T23:24:01Z</time></trkpt>
<trkpt lat="29.916043" lon="95.635194">
<time>2016-10-07T23:24:02Z</time></trkpt>
<trkpt lat="29.916073" lon="95.635104">
<time>2016-10-07T23:24:03Z</time></trkpt>
<trkpt lat="29.916084" lon="95.634984">
<time>2016-10-07T23:24:04Z</time></trkpt>
<trkpt lat="29.916084" lon="95.634854">
<time>2016-10-07T23:24:05Z</time></trkpt>
<trkpt lat="29.916074" lon="95.634674">
<time>2016-10-07T23:24:06Z</time></trkpt>
<trkpt lat="29.916044" lon="95.634434">
<time>2016-10-07T23:24:07Z</time></trkpt>
<trkpt lat="29.915985" lon="95.633925">
<time>2016-10-07T23:24:08Z</time></trkpt>
<trkpt lat="29.915718" lon="95.631687">
<time>2016-10-07T23:24:09Z</time></trkpt>
<trkpt lat="29.91552" lon="95.630009">
<time>2016-10-07T23:24:10Z</time></trkpt>
<trkpt lat="29.915402" lon="95.62898">
<time>2016-10-07T23:24:11Z</time></trkpt>
<trkpt lat="29.915362" lon="95.62868">
<time>2016-10-07T23:24:12Z</time></trkpt>
<trkpt lat="29.915332" lon="95.62848">
<time>2016-10-07T23:24:13Z</time></trkpt>
<trkpt lat="29.915312" lon="95.6284">
<time>2016-10-07T23:24:14Z</time></trkpt>
<trkpt lat="29.915292" lon="95.62833">
<time>2016-10-07T23:24:15Z</time></trkpt>
<trkpt lat="29.915243" lon="95.62822">
<time>2016-10-07T23:24:16Z</time></trkpt>
<trkpt lat="29.915213" lon="95.62817">
<time>2016-10-07T23:24:17Z</time></trkpt>
<trkpt lat="29.915183" lon="95.62813">
<time>2016-10-07T23:24:18Z</time></trkpt>
<trkpt lat="29.915113" lon="95.62804">
<time>2016-10-07T23:24:19Z</time></trkpt>
<trkpt lat="29.915023" lon="95.627941">
<time>2016-10-07T23:24:20Z</time></trkpt>
<trkpt lat="29.914793" lon="95.627691">
<time>2016-10-07T23:24:21Z</time></trkpt>
<trkpt lat="29.914254" lon="95.627121">
<time>2016-10-07T23:24:22Z</time></trkpt>
<trkpt lat="29.912376" lon="95.625063">
<time>2016-10-07T23:24:23Z</time></trkpt>
<trkpt lat="29.911867" lon="95.624513">
<time>2016-10-07T23:24:24Z</time></trkpt>
<trkpt lat="29.90922" lon="95.621595">
<time>2016-10-07T23:24:25Z</time></trkpt>
<trkpt lat="29.90911" lon="95.621475">
<time>2016-10-07T23:24:26Z</time></trkpt>
<trkpt lat="29.90902" lon="95.621365">
<time>2016-10-07T23:24:27Z</time></trkpt>
<trkpt lat="29.90895" lon="95.621265">
<time>2016-10-07T23:24:28Z</time></trkpt>
<trkpt lat="29.90889" lon="95.621165">
<time>2016-10-07T23:24:29Z</time></trkpt>
<trkpt lat="29.908821" lon="95.621025">
<time>2016-10-07T23:24:30Z</time></trkpt>
<trkpt lat="29.908771" lon="95.620896">
<time>2016-10-07T23:24:31Z</time></trkpt>
<trkpt lat="29.908402" lon="95.619926">
<time>2016-10-07T23:24:32Z</time></trkpt>
<trkpt lat="29.908272" lon="95.619616">
<time>2016-10-07T23:24:33Z</time></trkpt>
<trkpt lat="29.908162" lon="95.619316">
<time>2016-10-07T23:24:34Z</time></trkpt>
<trkpt lat="29.907903" lon="95.618747">
<time>2016-10-07T23:24:35Z</time></trkpt>
<trkpt lat="29.907673" lon="95.618297">
<time>2016-10-07T23:24:36Z</time></trkpt>
<trkpt lat="29.907553" lon="95.618067">
<time>2016-10-07T23:24:37Z</time></trkpt>
<trkpt lat="29.907443" lon="95.617917">
<time>2016-10-07T23:24:38Z</time></trkpt>
<trkpt lat="29.907264" lon="95.617677">
<time>2016-10-07T23:24:39Z</time></trkpt>
<trkpt lat="29.907184" lon="95.617577">
<time>2016-10-07T23:24:40Z</time></trkpt>
<trkpt lat="29.907114" lon="95.617467">
<time>2016-10-07T23:24:41Z</time></trkpt>
<trkpt lat="29.906934" lon="95.617157">
<time>2016-10-07T23:24:42Z</time></trkpt>
<trkpt lat="29.906754" lon="95.616808">
<time>2016-10-07T23:24:43Z</time></trkpt>
<trkpt lat="29.906515" lon="95.616418">
<time>2016-10-07T23:24:44Z</time></trkpt>
<trkpt lat="29.906345" lon="95.616178">
<time>2016-10-07T23:24:45Z</time></trkpt>
<trkpt lat="29.906145" lon="95.615928">
<time>2016-10-07T23:24:46Z</time></trkpt>
<trkpt lat="29.906005" lon="95.615768">
<time>2016-10-07T23:24:47Z</time></trkpt>
<trkpt lat="29.905925" lon="95.615688">
<time>2016-10-07T23:24:48Z</time></trkpt>
<trkpt lat="29.905865" lon="95.615638">
<time>2016-10-07T23:24:49Z</time></trkpt>
<trkpt lat="29.905735" lon="95.615538">
<time>2016-10-07T23:24:50Z</time></trkpt>
<trkpt lat="29.905386" lon="95.615358">
<time>2016-10-07T23:24:51Z</time></trkpt>
<trkpt lat="29.904966" lon="95.615148">
<time>2016-10-07T23:24:52Z</time></trkpt>
<trkpt lat="29.904876" lon="95.615098">
<time>2016-10-07T23:24:53Z</time></trkpt>
<trkpt lat="29.904816" lon="95.615048">
<time>2016-10-07T23:24:54Z</time></trkpt>
<trkpt lat="29.904766" lon="95.615018">
<time>2016-10-07T23:24:55Z</time></trkpt>
<trkpt lat="29.904726" lon="95.614968">
<time>2016-10-07T23:24:56Z</time></trkpt>
<trkpt lat="29.904656" lon="95.614878">
<time>2016-10-07T23:24:57Z</time></trkpt>
<trkpt lat="29.904406" lon="95.614518">
<time>2016-10-07T23:24:58Z</time></trkpt>
<trkpt lat="29.904226" lon="95.614248">
<time>2016-10-07T23:24:59Z</time></trkpt>
<trkpt lat="29.903957" lon="95.613839">
<time>2016-10-07T23:25:00Z</time></trkpt>
<trkpt lat="29.903817" lon="95.613659">
<time>2016-10-07T23:25:01Z</time></trkpt>
<trkpt lat="29.903677" lon="95.613499">
<time>2016-10-07T23:25:02Z</time></trkpt>
<trkpt lat="29.903427" lon="95.613219">
<time>2016-10-07T23:25:03Z</time></trkpt>
<trkpt lat="29.902478" lon="95.612179">
<time>2016-10-07T23:25:04Z</time></trkpt>
<trkpt lat="29.902308" lon="95.612029">
<time>2016-10-07T23:25:05Z</time></trkpt>
<trkpt lat="29.902088" lon="95.611859">
<time>2016-10-07T23:25:06Z</time></trkpt>
<trkpt lat="29.901948" lon="95.611739">
<time>2016-10-07T23:25:07Z</time></trkpt>
<trkpt lat="29.901828" lon="95.611619">
<time>2016-10-07T23:25:08Z</time></trkpt>
<trkpt lat="29.901718" lon="95.611499">
<time>2016-10-07T23:25:09Z</time></trkpt>
<trkpt lat="29.901538" lon="95.611289">
<time>2016-10-07T23:25:10Z</time></trkpt>
<trkpt lat="29.901418" lon="95.611149">
<time>2016-10-07T23:25:11Z</time></trkpt>
<trkpt lat="29.901349" lon="95.611039">
<time>2016-10-07T23:25:12Z</time></trkpt>
<trkpt lat="29.901299" lon="95.610919">
<time>2016-10-07T23:25:13Z</time></trkpt>
<trkpt lat="29.901259" lon="95.610759">
<time>2016-10-07T23:25:14Z</time></trkpt>
<trkpt lat="29.901209" lon="95.610519">
<time>2016-10-07T23:25:15Z</time></trkpt>
<trkpt lat="29.901129" lon="95.610219">
<time>2016-10-07T23:25:16Z</time></trkpt>
<trkpt lat="29.901039" lon="95.609929">
<time>2016-10-07T23:25:17Z</time></trkpt>
<trkpt lat="29.900969" lon="95.609759">
<time>2016-10-07T23:25:18Z</time></trkpt>
<trkpt lat="29.900889" lon="95.609579">
<time>2016-10-07T23:25:19Z</time></trkpt>
<trkpt lat="29.900749" lon="95.609309">
<time>2016-10-07T23:25:20Z</time></trkpt>
<trkpt lat="29.90046" lon="95.608759">
<time>2016-10-07T23:25:21Z</time></trkpt>
<trkpt lat="29.90041" lon="95.608629">
<time>2016-10-07T23:25:22Z</time></trkpt>
<trkpt lat="29.90036" lon="95.608479">
<time>2016-10-07T23:25:23Z</time></trkpt>
<trkpt lat="29.90033" lon="95.608339">
<time>2016-10-07T23:25:24Z</time></trkpt>
<trkpt lat="29.90032" lon="95.608219">
<time>2016-10-07T23:25:25Z</time></trkpt>
<trkpt lat="29.90033" lon="95.608129">
<time>2016-10-07T23:25:26Z</time></trkpt>
<trkpt lat="29.90034" lon="95.608059">
<time>2016-10-07T23:25:27Z</time></trkpt>
<trkpt lat="29.90035" lon="95.607979">
<time>2016-10-07T23:25:28Z</time></trkpt>
<trkpt lat="29.90041" lon="95.607729">
<time>2016-10-07T23:25:29Z</time></trkpt>
<trkpt lat="29.90054" lon="95.607289">
<time>2016-10-07T23:25:30Z</time></trkpt>
<trkpt lat="29.900741" lon="95.606629">
<time>2016-10-07T23:25:31Z</time></trkpt>
<trkpt lat="29.900801" lon="95.606379">
<time>2016-10-07T23:25:32Z</time></trkpt>
<trkpt lat="29.900851" lon="95.606029">
<time>2016-10-07T23:25:33Z</time></trkpt>
<trkpt lat="29.900901" lon="95.605469">
<time>2016-10-07T23:25:34Z</time></trkpt>
<trkpt lat="29.900931" lon="95.605269">
<time>2016-10-07T23:25:35Z</time></trkpt>
<trkpt lat="29.900991" lon="95.604979">
<time>2016-10-07T23:25:36Z</time></trkpt>
<trkpt lat="29.901132" lon="95.604259">
<time>2016-10-07T23:25:37Z</time></trkpt>
<trkpt lat="29.901192" lon="95.603919">
<time>2016-10-07T23:25:38Z</time></trkpt>
<trkpt lat="29.901212" lon="95.603799">
<time>2016-10-07T23:25:39Z</time></trkpt>
<trkpt lat="29.901232" lon="95.603669">
<time>2016-10-07T23:25:40Z</time></trkpt>
<trkpt lat="29.901232" lon="95.603589">
<time>2016-10-07T23:25:41Z</time></trkpt>
<trkpt lat="29.901222" lon="95.603469">
<time>2016-10-07T23:25:42Z</time></trkpt>
<trkpt lat="29.901212" lon="95.603339">
<time>2016-10-07T23:25:43Z</time></trkpt>
<trkpt lat="29.901172" lon="95.603169">
<time>2016-10-07T23:25:44Z</time></trkpt>
<trkpt lat="29.901102" lon="95.602919">
<time>2016-10-07T23:25:45Z</time></trkpt>
<trkpt lat="29.901002" lon="95.602589">
<time>2016-10-07T23:25:46Z</time></trkpt>
<trkpt lat="29.900952" lon="95.602389">
<time>2016-10-07T23:25:47Z</time></trkpt>
<trkpt lat="29.900922" lon="95.602299">
<time>2016-10-07T23:25:48Z</time></trkpt>
<trkpt lat="29.900912" lon="95.602199">
<time>2016-10-07T23:25:49Z</time></trkpt>
<trkpt lat="29.900912" lon="95.601999">
<time>2016-10-07T23:25:50Z</time></trkpt>
<trkpt lat="29.900912" lon="95.601569">
<time>2016-10-07T23:25:51Z</time></trkpt>
<trkpt lat="29.900912" lon="95.601278">
<time>2016-10-07T23:25:52Z</time></trkpt>
<trkpt lat="29.900882" lon="95.600998">
<time>2016-10-07T23:25:53Z</time></trkpt>
<trkpt lat="29.900813" lon="95.600238">
<time>2016-10-07T23:25:54Z</time></trkpt>
<trkpt lat="29.900773" lon="95.599988">
<time>2016-10-07T23:25:55Z</time></trkpt>
<trkpt lat="29.900733" lon="95.599828">
<time>2016-10-07T23:25:56Z</time></trkpt>
<trkpt lat="29.900673" lon="95.599668">
<time>2016-10-07T23:25:57Z</time></trkpt>
<trkpt lat="29.900613" lon="95.599568">
<time>2016-10-07T23:25:58Z</time></trkpt>
<trkpt lat="29.900523" lon="95.599458">
<time>2016-10-07T23:25:59Z</time></trkpt>
<trkpt lat="29.900403" lon="95.599348">
<time>2016-10-07T23:26:00Z</time></trkpt>
<trkpt lat="29.899753" lon="95.598798">
<time>2016-10-07T23:26:01Z</time></trkpt>
<trkpt lat="29.899523" lon="95.598597">
<time>2016-10-07T23:26:02Z</time></trkpt>
<trkpt lat="29.899383" lon="95.598467">
<time>2016-10-07T23:26:03Z</time></trkpt>
<trkpt lat="29.899293" lon="95.598347">
<time>2016-10-07T23:26:04Z</time></trkpt>
<trkpt lat="29.899183" lon="95.598217">
<time>2016-10-07T23:26:05Z</time></trkpt>
<trkpt lat="29.899093" lon="95.598067">
<time>2016-10-07T23:26:06Z</time></trkpt>
<trkpt lat="29.899023" lon="95.597917">
<time>2016-10-07T23:26:07Z</time></trkpt>
<trkpt lat="29.898963" lon="95.597757">
<time>2016-10-07T23:26:08Z</time></trkpt>
<trkpt lat="29.898903" lon="95.597557">
<time>2016-10-07T23:26:09Z</time></trkpt>
<trkpt lat="29.898873" lon="95.597407">
<time>2016-10-07T23:26:10Z</time></trkpt>
<trkpt lat="29.898303" lon="95.594325">
<time>2016-10-07T23:26:11Z</time></trkpt>
<trkpt lat="29.898233" lon="95.593975">
<time>2016-10-07T23:26:12Z</time></trkpt>
<trkpt lat="29.898173" lon="95.593725">
<time>2016-10-07T23:26:13Z</time></trkpt>
<trkpt lat="29.898103" lon="95.593545">
<time>2016-10-07T23:26:14Z</time></trkpt>
<trkpt lat="29.897983" lon="95.593335">
<time>2016-10-07T23:26:15Z</time></trkpt>
<trkpt lat="29.897813" lon="95.593124">
<time>2016-10-07T23:26:16Z</time></trkpt>
<trkpt lat="29.897692" lon="95.592964">
<time>2016-10-07T23:26:17Z</time></trkpt>
<trkpt lat="29.896132" lon="95.591043">
<time>2016-10-07T23:26:18Z</time></trkpt>
<trkpt lat="29.895632" lon="95.590432">
<time>2016-10-07T23:26:19Z</time></trkpt>
<trkpt lat="29.895412" lon="95.590152">
<time>2016-10-07T23:26:20Z</time></trkpt>
<trkpt lat="29.895282" lon="95.589952">
<time>2016-10-07T23:26:21Z</time></trkpt>
<trkpt lat="29.895012" lon="95.589562">
<time>2016-10-07T23:26:22Z</time></trkpt>
<trkpt lat="29.894912" lon="95.589391">
<time>2016-10-07T23:26:23Z</time></trkpt>
<trkpt lat="29.894832" lon="95.589251">
<time>2016-10-07T23:26:24Z</time></trkpt>
<trkpt lat="29.894702" lon="95.589001">
<time>2016-10-07T23:26:25Z</time></trkpt>
<trkpt lat="29.894431" lon="95.588411">
<time>2016-10-07T23:26:26Z</time></trkpt>
<trkpt lat="29.894331" lon="95.58815">
<time>2016-10-07T23:26:27Z</time></trkpt>
<trkpt lat="29.894171" lon="95.58772">
<time>2016-10-07T23:26:28Z</time></trkpt>
<trkpt lat="29.894061" lon="95.58731">
<time>2016-10-07T23:26:29Z</time></trkpt>
<trkpt lat="29.893971" lon="95.586899">
<time>2016-10-07T23:26:30Z</time></trkpt>
<trkpt lat="29.89388" lon="95.586429">
<time>2016-10-07T23:26:31Z</time></trkpt>
<trkpt lat="29.89381" lon="95.585908">
<time>2016-10-07T23:26:32Z</time></trkpt>
<trkpt lat="29.8937" lon="95.585197">
<time>2016-10-07T23:26:33Z</time></trkpt>
<trkpt lat="29.893509" lon="95.583866">
<time>2016-10-07T23:26:34Z</time></trkpt>
<trkpt lat="29.893469" lon="95.583575">
<time>2016-10-07T23:26:35Z</time></trkpt>
<trkpt lat="29.893429" lon="95.583325">
<time>2016-10-07T23:26:36Z</time></trkpt>
<trkpt lat="29.893379" lon="95.583155">
<time>2016-10-07T23:26:37Z</time></trkpt>
<trkpt lat="29.893319" lon="95.583035">
<time>2016-10-07T23:26:38Z</time></trkpt>
<trkpt lat="29.893259" lon="95.582945">
<time>2016-10-07T23:26:39Z</time></trkpt>
<trkpt lat="29.893169" lon="95.582835">
<time>2016-10-07T23:26:40Z</time></trkpt>
<trkpt lat="29.893048" lon="95.582724">
<time>2016-10-07T23:26:41Z</time></trkpt>
<trkpt lat="29.892938" lon="95.582644">
<time>2016-10-07T23:26:42Z</time></trkpt>
<trkpt lat="29.892778" lon="95.582544">
<time>2016-10-07T23:26:43Z</time></trkpt>
<trkpt lat="29.892598" lon="95.582454">
<time>2016-10-07T23:26:44Z</time></trkpt>
<trkpt lat="29.892458" lon="95.582384">
<time>2016-10-07T23:26:45Z</time></trkpt>
<trkpt lat="29.892388" lon="95.582344">
<time>2016-10-07T23:26:46Z</time></trkpt>
<trkpt lat="29.892308" lon="95.582284">
<time>2016-10-07T23:26:47Z</time></trkpt>
<trkpt lat="29.892258" lon="95.582224">
<time>2016-10-07T23:26:48Z</time></trkpt>
<trkpt lat="29.892198" lon="95.582154">
<time>2016-10-07T23:26:49Z</time></trkpt>
<trkpt lat="29.892148" lon="95.582054">
<time>2016-10-07T23:26:50Z</time></trkpt>
<trkpt lat="29.892048" lon="95.581793">
<time>2016-10-07T23:26:51Z</time></trkpt>
<trkpt lat="29.891938" lon="95.581503">
<time>2016-10-07T23:26:52Z</time></trkpt>
<trkpt lat="29.891868" lon="95.581303">
<time>2016-10-07T23:26:53Z</time></trkpt>
<trkpt lat="29.891807" lon="95.581193">
<time>2016-10-07T23:26:54Z</time></trkpt>
<trkpt lat="29.891677" lon="95.580992">
<time>2016-10-07T23:26:55Z</time></trkpt>
<trkpt lat="29.891557" lon="95.580832">
<time>2016-10-07T23:26:56Z</time></trkpt>
<trkpt lat="29.891407" lon="95.580652">
<time>2016-10-07T23:26:57Z</time></trkpt>
<trkpt lat="29.891267" lon="95.580492">
<time>2016-10-07T23:26:58Z</time></trkpt>
<trkpt lat="29.890797" lon="95.579991">
<time>2016-10-07T23:26:59Z</time></trkpt>
<trkpt lat="29.890707" lon="95.579881">
<time>2016-10-07T23:27:00Z</time></trkpt>
<trkpt lat="29.890606" lon="95.579731">
<time>2016-10-07T23:27:01Z</time></trkpt>
<trkpt lat="29.890536" lon="95.57961">
<time>2016-10-07T23:27:02Z</time></trkpt>
<trkpt lat="29.890486" lon="95.57947">
<time>2016-10-07T23:27:03Z</time></trkpt>
<trkpt lat="29.890466" lon="95.57937">
<time>2016-10-07T23:27:04Z</time></trkpt>
<trkpt lat="29.890436" lon="95.57926">
<time>2016-10-07T23:27:05Z</time></trkpt>
<trkpt lat="29.890416" lon="95.57914">
<time>2016-10-07T23:27:06Z</time></trkpt>
<trkpt lat="29.890406" lon="95.57901">
<time>2016-10-07T23:27:07Z</time></trkpt>
<trkpt lat="29.890406" lon="95.578899">
<time>2016-10-07T23:27:08Z</time></trkpt>
<trkpt lat="29.890396" lon="95.578779">
<time>2016-10-07T23:27:09Z</time></trkpt>
<trkpt lat="29.890356" lon="95.578589">
<time>2016-10-07T23:27:10Z</time></trkpt>
<trkpt lat="29.890285" lon="95.578409">
<time>2016-10-07T23:27:11Z</time></trkpt>
<trkpt lat="29.890145" lon="95.578008">
<time>2016-10-07T23:27:12Z</time></trkpt>
<trkpt lat="29.889995" lon="95.577648">
<time>2016-10-07T23:27:13Z</time></trkpt>
<trkpt lat="29.889905" lon="95.577427">
<time>2016-10-07T23:27:14Z</time></trkpt>
<trkpt lat="29.889814" lon="95.577267">
<time>2016-10-07T23:27:15Z</time></trkpt>
<trkpt lat="29.889714" lon="95.577107">
<time>2016-10-07T23:27:16Z</time></trkpt>
<trkpt lat="29.889664" lon="95.576997">
<time>2016-10-07T23:27:17Z</time></trkpt>
<trkpt lat="29.889614" lon="95.576866">
<time>2016-10-07T23:27:18Z</time></trkpt>
<trkpt lat="29.889564" lon="95.576676">
<time>2016-10-07T23:27:19Z</time></trkpt>
<trkpt lat="29.889524" lon="95.576496">
<time>2016-10-07T23:27:20Z</time></trkpt>
<trkpt lat="29.889393" lon="95.575895">
<time>2016-10-07T23:27:21Z</time></trkpt>
<trkpt lat="29.889373" lon="95.575785">
<time>2016-10-07T23:27:22Z</time></trkpt>
<trkpt lat="29.889343" lon="95.575695">
<time>2016-10-07T23:27:23Z</time></trkpt>
<trkpt lat="29.889293" lon="95.575554">
<time>2016-10-07T23:27:24Z</time></trkpt>
<trkpt lat="29.889213" lon="95.575384">
<time>2016-10-07T23:27:25Z</time></trkpt>
<trkpt lat="29.889153" lon="95.575234">
<time>2016-10-07T23:27:26Z</time></trkpt>
<trkpt lat="29.889092" lon="95.575124">
<time>2016-10-07T23:27:27Z</time></trkpt>
<trkpt lat="29.889042" lon="95.575014">
<time>2016-10-07T23:27:28Z</time></trkpt>
<trkpt lat="29.889022" lon="95.574913">
<time>2016-10-07T23:27:29Z</time></trkpt>
<trkpt lat="29.889012" lon="95.574823">
<time>2016-10-07T23:27:30Z</time></trkpt>
<trkpt lat="29.889002" lon="95.574683">
<time>2016-10-07T23:27:31Z</time></trkpt>
<trkpt lat="29.889012" lon="95.574573">
<time>2016-10-07T23:27:32Z</time></trkpt>
<trkpt lat="29.889042" lon="95.574483">
<time>2016-10-07T23:27:33Z</time></trkpt>
<trkpt lat="29.889092" lon="95.574333">
<time>2016-10-07T23:27:34Z</time></trkpt>
<trkpt lat="29.889132" lon="95.574242">
<time>2016-10-07T23:27:35Z</time></trkpt>
<trkpt lat="29.889171" lon="95.574162">
<time>2016-10-07T23:27:36Z</time></trkpt>
<trkpt lat="29.889221" lon="95.574042">
<time>2016-10-07T23:27:37Z</time></trkpt>
<trkpt lat="29.889231" lon="95.573982">
<time>2016-10-07T23:27:38Z</time></trkpt>
<trkpt lat="29.889231" lon="95.573952">
<time>2016-10-07T23:27:39Z</time></trkpt>
<trkpt lat="29.889231" lon="95.573892">
<time>2016-10-07T23:27:40Z</time></trkpt>
<trkpt lat="29.889221" lon="95.573822">
<time>2016-10-07T23:27:41Z</time></trkpt>
<trkpt lat="29.889151" lon="95.573571">
<time>2016-10-07T23:27:42Z</time></trkpt>
<trkpt lat="29.889051" lon="95.573321">
<time>2016-10-07T23:27:43Z</time></trkpt>
<trkpt lat="29.88891" lon="95.57288">
<time>2016-10-07T23:27:44Z</time></trkpt>
<trkpt lat="29.88886" lon="95.5727">
<time>2016-10-07T23:27:45Z</time></trkpt>
<trkpt lat="29.8888" lon="95.572419">
<time>2016-10-07T23:27:46Z</time></trkpt>
<trkpt lat="29.888729" lon="95.572019">
<time>2016-10-07T23:27:47Z</time></trkpt>
<trkpt lat="29.888689" lon="95.571788">
<time>2016-10-07T23:27:48Z</time></trkpt>
<trkpt lat="29.888649" lon="95.571578">
<time>2016-10-07T23:27:49Z</time></trkpt>
<trkpt lat="29.888639" lon="95.571438">
<time>2016-10-07T23:27:50Z</time></trkpt>
<trkpt lat="29.888628" lon="95.571327">
<time>2016-10-07T23:27:51Z</time></trkpt>
<trkpt lat="29.888648" lon="95.571157">
<time>2016-10-07T23:27:52Z</time></trkpt>
<trkpt lat="29.888678" lon="95.570987">
<time>2016-10-07T23:27:53Z</time></trkpt>
<trkpt lat="29.888718" lon="95.570816">
<time>2016-10-07T23:27:54Z</time></trkpt>
<trkpt lat="29.888788" lon="95.570606">
<time>2016-10-07T23:27:55Z</time></trkpt>
<trkpt lat="29.888847" lon="95.570426">
<time>2016-10-07T23:27:56Z</time></trkpt>
<trkpt lat="29.888877" lon="95.570275">
<time>2016-10-07T23:27:57Z</time></trkpt>
<trkpt lat="29.888897" lon="95.570155">
<time>2016-10-07T23:27:58Z</time></trkpt>
<trkpt lat="29.888917" lon="95.569865">
<time>2016-10-07T23:27:59Z</time></trkpt>
<trkpt lat="29.888926" lon="95.569564">
<time>2016-10-07T23:28:00Z</time></trkpt>
<trkpt lat="29.888936" lon="95.569334">
<time>2016-10-07T23:28:01Z</time></trkpt>
<trkpt lat="29.888916" lon="95.569093">
<time>2016-10-07T23:28:02Z</time></trkpt>
<trkpt lat="29.888885" lon="95.568843">
<time>2016-10-07T23:28:03Z</time></trkpt>
<trkpt lat="29.888845" lon="95.568642">
<time>2016-10-07T23:28:04Z</time></trkpt>
<trkpt lat="29.888835" lon="95.568512">
<time>2016-10-07T23:28:05Z</time></trkpt>
<trkpt lat="29.888825" lon="95.568382">
<time>2016-10-07T23:28:06Z</time></trkpt>
<trkpt lat="29.888815" lon="95.568232">
<time>2016-10-07T23:28:07Z</time></trkpt>
<trkpt lat="29.888815" lon="95.568091">
<time>2016-10-07T23:28:08Z</time></trkpt>
<trkpt lat="29.888824" lon="95.567911">
<time>2016-10-07T23:28:09Z</time></trkpt>
<trkpt lat="29.888794" lon="95.567691">
<time>2016-10-07T23:28:10Z</time></trkpt>
<trkpt lat="29.888583" lon="95.566899">
<time>2016-10-07T23:28:11Z</time></trkpt>
<trkpt lat="29.888543" lon="95.566779">
<time>2016-10-07T23:28:12Z</time></trkpt>
<trkpt lat="29.888523" lon="95.566658">
<time>2016-10-07T23:28:13Z</time></trkpt>
<trkpt lat="29.888502" lon="95.566458">
<time>2016-10-07T23:28:14Z</time></trkpt>
<trkpt lat="29.888492" lon="95.566358">
<time>2016-10-07T23:28:15Z</time></trkpt>
<trkpt lat="29.888492" lon="95.566268">
<time>2016-10-07T23:28:16Z</time></trkpt>
<trkpt lat="29.888502" lon="95.566117">
<time>2016-10-07T23:28:17Z</time></trkpt>
<trkpt lat="29.888551" lon="95.565646">
<time>2016-10-07T23:28:18Z</time></trkpt>
<trkpt lat="29.888581" lon="95.565436">
<time>2016-10-07T23:28:19Z</time></trkpt>
<trkpt lat="29.888601" lon="95.565266">
<time>2016-10-07T23:28:20Z</time></trkpt>
<trkpt lat="29.8886" lon="95.565075">
<time>2016-10-07T23:28:21Z</time></trkpt>
<trkpt lat="29.88859" lon="95.564895">
<time>2016-10-07T23:28:22Z</time></trkpt>
<trkpt lat="29.88857" lon="95.564765">
<time>2016-10-07T23:28:23Z</time></trkpt>
<trkpt lat="29.88855" lon="95.564654">
<time>2016-10-07T23:28:24Z</time></trkpt>
<trkpt lat="29.88852" lon="95.564484">
<time>2016-10-07T23:28:25Z</time></trkpt>
<trkpt lat="29.888509" lon="95.564253">
<time>2016-10-07T23:28:26Z</time></trkpt>
<trkpt lat="29.888509" lon="95.563993">
<time>2016-10-07T23:28:27Z</time></trkpt>
<trkpt lat="29.888509" lon="95.563803">
<time>2016-10-07T23:28:28Z</time></trkpt>
<trkpt lat="29.888508" lon="95.563522">
<time>2016-10-07T23:28:29Z</time></trkpt>
<trkpt lat="29.888488" lon="95.563382">
<time>2016-10-07T23:28:30Z</time></trkpt>
<trkpt lat="29.888468" lon="95.563301">
<time>2016-10-07T23:28:31Z</time></trkpt>
<trkpt lat="29.888448" lon="95.563231">
<time>2016-10-07T23:28:32Z</time></trkpt>
<trkpt lat="29.888408" lon="95.563141">
<time>2016-10-07T23:28:33Z</time></trkpt>
<trkpt lat="29.888337" lon="95.563001">
<time>2016-10-07T23:28:34Z</time></trkpt>
<trkpt lat="29.888277" lon="95.56286">
<time>2016-10-07T23:28:35Z</time></trkpt>
<trkpt lat="29.888227" lon="95.56277">
<time>2016-10-07T23:28:36Z</time></trkpt>
<trkpt lat="29.888197" lon="95.56266">
<time>2016-10-07T23:28:37Z</time></trkpt>
<trkpt lat="29.888187" lon="95.5625">
<time>2016-10-07T23:28:38Z</time></trkpt>
<trkpt lat="29.888177" lon="95.562389">
<time>2016-10-07T23:28:39Z</time></trkpt>
<trkpt lat="29.888176" lon="95.562229">
<time>2016-10-07T23:28:40Z</time></trkpt>
<trkpt lat="29.888196" lon="95.562099">
<time>2016-10-07T23:28:41Z</time></trkpt>
<trkpt lat="29.888236" lon="95.561969">
<time>2016-10-07T23:28:42Z</time></trkpt>
<trkpt lat="29.888276" lon="95.561868">
<time>2016-10-07T23:28:43Z</time></trkpt>
<trkpt lat="29.888346" lon="95.561758">
<time>2016-10-07T23:28:44Z</time></trkpt>
<trkpt lat="29.888515" lon="95.561528">
<time>2016-10-07T23:28:45Z</time></trkpt>
<trkpt lat="29.888675" lon="95.561307">
<time>2016-10-07T23:28:46Z</time></trkpt>
<trkpt lat="29.888765" lon="95.561137">
<time>2016-10-07T23:28:47Z</time></trkpt>
<trkpt lat="29.888824" lon="95.560966">
<time>2016-10-07T23:28:48Z</time></trkpt>
<trkpt lat="29.889033" lon="95.560184">
<time>2016-10-07T23:28:49Z</time></trkpt>
<trkpt lat="29.889123" lon="95.559894">
<time>2016-10-07T23:28:50Z</time></trkpt>
<trkpt lat="29.889232" lon="95.559513">
<time>2016-10-07T23:28:51Z</time></trkpt>
<trkpt lat="29.889262" lon="95.559332">
<time>2016-10-07T23:28:52Z</time></trkpt>
<trkpt lat="29.889291" lon="95.559142">
<time>2016-10-07T23:28:53Z</time></trkpt>
<trkpt lat="29.889331" lon="95.558851">
<time>2016-10-07T23:28:54Z</time></trkpt>
<trkpt lat="29.88935" lon="95.558611">
<time>2016-10-07T23:28:55Z</time></trkpt>
<trkpt lat="29.88934" lon="95.55836">
<time>2016-10-07T23:28:56Z</time></trkpt>
<trkpt lat="29.889289" lon="95.557929">
<time>2016-10-07T23:28:57Z</time></trkpt>
<trkpt lat="29.889259" lon="95.557689">
<time>2016-10-07T23:28:58Z</time></trkpt>
<trkpt lat="29.889258" lon="95.557468">
<time>2016-10-07T23:28:59Z</time></trkpt>
<trkpt lat="29.889268" lon="95.557257">
<time>2016-10-07T23:29:00Z</time></trkpt>
<trkpt lat="29.889278" lon="95.557117">
<time>2016-10-07T23:29:01Z</time></trkpt>
<trkpt lat="29.889298" lon="95.556967">
<time>2016-10-07T23:29:02Z</time></trkpt>
<trkpt lat="29.889476" lon="95.556195">
<time>2016-10-07T23:29:03Z</time></trkpt>
<trkpt lat="29.889506" lon="95.556044">
<time>2016-10-07T23:29:04Z</time></trkpt>
<trkpt lat="29.889506" lon="95.555924">
<time>2016-10-07T23:29:05Z</time></trkpt>
<trkpt lat="29.889496" lon="95.555834">
<time>2016-10-07T23:29:06Z</time></trkpt>
<trkpt lat="29.889465" lon="95.555714">
<time>2016-10-07T23:29:07Z</time></trkpt>
<trkpt lat="29.889425" lon="95.555613">
<time>2016-10-07T23:29:08Z</time></trkpt>
<trkpt lat="29.889325" lon="95.555393">
<time>2016-10-07T23:29:09Z</time></trkpt>
<trkpt lat="29.889255" lon="95.555252">
<time>2016-10-07T23:29:10Z</time></trkpt>
<trkpt lat="29.889214" lon="95.555122">
<time>2016-10-07T23:29:11Z</time></trkpt>
<trkpt lat="29.889194" lon="95.555032">
<time>2016-10-07T23:29:12Z</time></trkpt>
<trkpt lat="29.889174" lon="95.554942">
<time>2016-10-07T23:29:13Z</time></trkpt>
<trkpt lat="29.889144" lon="95.554691">
<time>2016-10-07T23:29:14Z</time></trkpt>
<trkpt lat="29.889113" lon="95.55434">
<time>2016-10-07T23:29:15Z</time></trkpt>
<trkpt lat="29.889052" lon="95.553729">
<time>2016-10-07T23:29:16Z</time></trkpt>
<trkpt lat="29.889011" lon="95.553508">
<time>2016-10-07T23:29:17Z</time></trkpt>
<trkpt lat="29.888981" lon="95.553307">
<time>2016-10-07T23:29:18Z</time></trkpt>
<trkpt lat="29.888911" lon="95.553047">
<time>2016-10-07T23:29:19Z</time></trkpt>
<trkpt lat="29.88885" lon="95.552836">
<time>2016-10-07T23:29:20Z</time></trkpt>
<trkpt lat="29.888267" lon="95.551021">
<time>2016-10-07T23:29:21Z</time></trkpt>
<trkpt lat="29.887955" lon="95.550079">
<time>2016-10-07T23:29:22Z</time></trkpt>
<trkpt lat="29.887693" lon="95.549257">
<time>2016-10-07T23:29:23Z</time></trkpt>
<trkpt lat="29.887341" lon="95.548123">
<time>2016-10-07T23:29:24Z</time></trkpt>
<trkpt lat="29.88725" lon="95.547803">
<time>2016-10-07T23:29:25Z</time></trkpt>
<trkpt lat="29.88719" lon="95.547552">
<time>2016-10-07T23:29:26Z</time></trkpt>
<trkpt lat="29.887149" lon="95.547331">
<time>2016-10-07T23:29:27Z</time></trkpt>
<trkpt lat="29.887119" lon="95.547151">
<time>2016-10-07T23:29:28Z</time></trkpt>
<trkpt lat="29.887108" lon="95.54689">
<time>2016-10-07T23:29:29Z</time></trkpt>
<trkpt lat="29.887117" lon="95.546529">
<time>2016-10-07T23:29:30Z</time></trkpt>
<trkpt lat="29.887127" lon="95.546248">
<time>2016-10-07T23:29:31Z</time></trkpt>
<trkpt lat="29.887147" lon="95.546088">
<time>2016-10-07T23:29:32Z</time></trkpt>
<trkpt lat="29.887216" lon="95.545777">
<time>2016-10-07T23:29:33Z</time></trkpt>
<trkpt lat="29.887305" lon="95.545456">
<time>2016-10-07T23:29:34Z</time></trkpt>
<trkpt lat="29.887365" lon="95.545255">
<time>2016-10-07T23:29:35Z</time></trkpt>
<trkpt lat="29.887434" lon="95.545055">
<time>2016-10-07T23:29:36Z</time></trkpt>
<trkpt lat="29.887584" lon="95.544724">
<time>2016-10-07T23:29:37Z</time></trkpt>
<trkpt lat="29.88848" lon="95.542958">
<time>2016-10-07T23:29:38Z</time></trkpt>
<trkpt lat="29.889774" lon="95.5404">
<time>2016-10-07T23:29:39Z</time></trkpt>
<trkpt lat="29.890102" lon="95.539789">
<time>2016-10-07T23:29:40Z</time></trkpt>
<trkpt lat="29.890411" lon="95.539157">
<time>2016-10-07T23:29:41Z</time></trkpt>
<trkpt lat="29.89049" lon="95.538946">
<time>2016-10-07T23:29:42Z</time></trkpt>
<trkpt lat="29.89052" lon="95.538846">
<time>2016-10-07T23:29:43Z</time></trkpt>
<trkpt lat="29.89053" lon="95.538815">
<time>2016-10-07T23:29:44Z</time></trkpt>
<trkpt lat="29.89057" lon="95.538655">
<time>2016-10-07T23:29:45Z</time></trkpt>
<trkpt lat="29.890579" lon="95.538555">
<time>2016-10-07T23:29:46Z</time></trkpt>
<trkpt lat="29.890608" lon="95.538193">
<time>2016-10-07T23:29:47Z</time></trkpt>
<trkpt lat="29.890618" lon="95.538083">
<time>2016-10-07T23:29:48Z</time></trkpt>
<trkpt lat="29.890638" lon="95.537933">
<time>2016-10-07T23:29:49Z</time></trkpt>
<trkpt lat="29.890688" lon="95.537782">
<time>2016-10-07T23:29:50Z</time></trkpt>
<trkpt lat="29.890737" lon="95.537662">
<time>2016-10-07T23:29:51Z</time></trkpt>
<trkpt lat="29.890797" lon="95.537541">
<time>2016-10-07T23:29:52Z</time></trkpt>
<trkpt lat="29.890877" lon="95.537411">
<time>2016-10-07T23:29:53Z</time></trkpt>
<trkpt lat="29.891245" lon="95.536869">
<time>2016-10-07T23:29:54Z</time></trkpt>
<trkpt lat="29.891315" lon="95.536719">
<time>2016-10-07T23:29:55Z</time></trkpt>
<trkpt lat="29.891394" lon="95.536518">
<time>2016-10-07T23:29:56Z</time></trkpt>
<trkpt lat="29.891464" lon="95.536348">
<time>2016-10-07T23:29:57Z</time></trkpt>
<trkpt lat="29.891633" lon="95.535836">
<time>2016-10-07T23:29:58Z</time></trkpt>
<trkpt lat="29.891682" lon="95.535705">
<time>2016-10-07T23:29:59Z</time></trkpt>
<trkpt lat="29.891732" lon="95.535595">
<time>2016-10-07T23:30:00Z</time></trkpt>
<trkpt lat="29.891802" lon="95.535465">
<time>2016-10-07T23:30:01Z</time></trkpt>
<trkpt lat="29.891872" lon="95.535354">
<time>2016-10-07T23:30:02Z</time></trkpt>
<trkpt lat="29.891991" lon="95.535204">
<time>2016-10-07T23:30:03Z</time></trkpt>
<trkpt lat="29.892061" lon="95.535134">
<time>2016-10-07T23:30:04Z</time></trkpt>
<trkpt lat="29.892171" lon="95.535013">
<time>2016-10-07T23:30:05Z</time></trkpt>
<trkpt lat="29.89231" lon="95.534823">
<time>2016-10-07T23:30:06Z</time></trkpt>
<trkpt lat="29.8924" lon="95.534692">
<time>2016-10-07T23:30:07Z</time></trkpt>
<trkpt lat="29.892509" lon="95.534491">
<time>2016-10-07T23:30:08Z</time></trkpt>
<trkpt lat="29.892589" lon="95.534311">
<time>2016-10-07T23:30:09Z</time></trkpt>
<trkpt lat="29.892668" lon="95.53409">
<time>2016-10-07T23:30:10Z</time></trkpt>
<trkpt lat="29.892767" lon="95.533689">
<time>2016-10-07T23:30:11Z</time></trkpt>
<trkpt lat="29.892827" lon="95.533368">
<time>2016-10-07T23:30:12Z</time></trkpt>
<trkpt lat="29.892876" lon="95.533077">
<time>2016-10-07T23:30:13Z</time></trkpt>
<trkpt lat="29.892915" lon="95.532625">
<time>2016-10-07T23:30:14Z</time></trkpt>
<trkpt lat="29.892924" lon="95.532535">
<time>2016-10-07T23:30:15Z</time></trkpt>
<trkpt lat="29.892954" lon="95.532334">
<time>2016-10-07T23:30:16Z</time></trkpt>
<trkpt lat="29.893023" lon="95.532023">
<time>2016-10-07T23:30:17Z</time></trkpt>
<trkpt lat="29.893053" lon="95.531923">
<time>2016-10-07T23:30:18Z</time></trkpt>
<trkpt lat="29.893083" lon="95.531833">
<time>2016-10-07T23:30:19Z</time></trkpt>
<trkpt lat="29.893132" lon="95.531742">
<time>2016-10-07T23:30:20Z</time></trkpt>
<trkpt lat="29.893182" lon="95.531662">
<time>2016-10-07T23:30:21Z</time></trkpt>
<trkpt lat="29.893252" lon="95.531592">
<time>2016-10-07T23:30:22Z</time></trkpt>
<trkpt lat="29.893312" lon="95.531542">
<time>2016-10-07T23:30:23Z</time></trkpt>
<trkpt lat="29.893422" lon="95.531451">
<time>2016-10-07T23:30:24Z</time></trkpt>
<trkpt lat="29.893591" lon="95.531301">
<time>2016-10-07T23:30:25Z</time></trkpt>
<trkpt lat="29.893741" lon="95.53113">
<time>2016-10-07T23:30:26Z</time></trkpt>
<trkpt lat="29.89389" lon="95.530909">
<time>2016-10-07T23:30:27Z</time></trkpt>
<trkpt lat="29.894807" lon="95.529585">
<time>2016-10-07T23:30:28Z</time></trkpt>
<trkpt lat="29.894876" lon="95.529475">
<time>2016-10-07T23:30:29Z</time></trkpt>
<trkpt lat="29.894916" lon="95.529374">
<time>2016-10-07T23:30:30Z</time></trkpt>
<trkpt lat="29.894936" lon="95.529294">
<time>2016-10-07T23:30:31Z</time></trkpt>
<trkpt lat="29.894936" lon="95.529224">
<time>2016-10-07T23:30:32Z</time></trkpt>
<trkpt lat="29.894946" lon="95.529174">
<time>2016-10-07T23:30:33Z</time></trkpt>
<trkpt lat="29.894935" lon="95.529083">
<time>2016-10-07T23:30:34Z</time></trkpt>
<trkpt lat="29.894925" lon="95.529003">
<time>2016-10-07T23:30:35Z</time></trkpt>
<trkpt lat="29.894864" lon="95.528682">
<time>2016-10-07T23:30:36Z</time></trkpt>
<trkpt lat="29.894824" lon="95.528441">
<time>2016-10-07T23:30:37Z</time></trkpt>
<trkpt lat="29.894803" lon="95.52821">
<time>2016-10-07T23:30:38Z</time></trkpt>
<trkpt lat="29.894813" lon="95.528009">
<time>2016-10-07T23:30:39Z</time></trkpt>
<trkpt lat="29.894822" lon="95.527889">
<time>2016-10-07T23:30:40Z</time></trkpt>
<trkpt lat="29.894842" lon="95.527729">
<time>2016-10-07T23:30:41Z</time></trkpt>
<trkpt lat="29.894871" lon="95.527598">
<time>2016-10-07T23:30:42Z</time></trkpt>
<trkpt lat="29.894901" lon="95.527468">
<time>2016-10-07T23:30:43Z</time></trkpt>
<trkpt lat="29.894991" lon="95.527257">
<time>2016-10-07T23:30:44Z</time></trkpt>
<trkpt lat="29.895199" lon="95.526815">
<time>2016-10-07T23:30:45Z</time></trkpt>
<trkpt lat="29.895428" lon="95.526384">
<time>2016-10-07T23:30:46Z</time></trkpt>
<trkpt lat="29.895518" lon="95.526153">
<time>2016-10-07T23:30:47Z</time></trkpt>
<trkpt lat="29.895567" lon="95.526002">
<time>2016-10-07T23:30:48Z</time></trkpt>
<trkpt lat="29.895607" lon="95.525802">
<time>2016-10-07T23:30:49Z</time></trkpt>
<trkpt lat="29.895616" lon="95.525701">
<time>2016-10-07T23:30:50Z</time></trkpt>
<trkpt lat="29.895626" lon="95.525591">
<time>2016-10-07T23:30:51Z</time></trkpt>
<trkpt lat="29.895636" lon="95.52541">
<time>2016-10-07T23:30:52Z</time></trkpt>
<trkpt lat="29.895645" lon="95.52526">
<time>2016-10-07T23:30:53Z</time></trkpt>
<trkpt lat="29.895685" lon="95.525109">
<time>2016-10-07T23:30:54Z</time></trkpt>
<trkpt lat="29.895724" lon="95.524969">
<time>2016-10-07T23:30:55Z</time></trkpt>
<trkpt lat="29.895784" lon="95.524848">
<time>2016-10-07T23:30:56Z</time></trkpt>
<trkpt lat="29.895844" lon="95.524738">
<time>2016-10-07T23:30:57Z</time></trkpt>
<trkpt lat="29.895943" lon="95.524577">
<time>2016-10-07T23:30:58Z</time></trkpt>
<trkpt lat="29.896053" lon="95.524407">
<time>2016-10-07T23:30:59Z</time></trkpt>
<trkpt lat="29.896282" lon="95.524056">
<time>2016-10-07T23:31:00Z</time></trkpt>
<trkpt lat="29.896451" lon="95.523825">
<time>2016-10-07T23:31:01Z</time></trkpt>
<trkpt lat="29.896561" lon="95.523704">
<time>2016-10-07T23:31:02Z</time></trkpt>
<trkpt lat="29.896691" lon="95.523594">
<time>2016-10-07T23:31:03Z</time></trkpt>
<trkpt lat="29.89687" lon="95.523463">
<time>2016-10-07T23:31:04Z</time></trkpt>
<trkpt lat="29.8971" lon="95.523303">
<time>2016-10-07T23:31:05Z</time></trkpt>
<trkpt lat="29.89716" lon="95.523253">
<time>2016-10-07T23:31:06Z</time></trkpt>
<trkpt lat="29.897209" lon="95.523202">
<time>2016-10-07T23:31:07Z</time></trkpt>
<trkpt lat="29.897299" lon="95.523072">
<time>2016-10-07T23:31:08Z</time></trkpt>
<trkpt lat="29.897369" lon="95.522932">
<time>2016-10-07T23:31:09Z</time></trkpt>
<trkpt lat="29.897408" lon="95.522791">
<time>2016-10-07T23:31:10Z</time></trkpt>
<trkpt lat="29.897488" lon="95.52256">
<time>2016-10-07T23:31:11Z</time></trkpt>
<trkpt lat="29.897537" lon="95.5224">
<time>2016-10-07T23:31:12Z</time></trkpt>
<trkpt lat="29.897577" lon="95.522299">
<time>2016-10-07T23:31:13Z</time></trkpt>
<trkpt lat="29.897686" lon="95.522068">
<time>2016-10-07T23:31:14Z</time></trkpt>
<trkpt lat="29.897885" lon="95.521687">
<time>2016-10-07T23:31:15Z</time></trkpt>
<trkpt lat="29.897975" lon="95.521506">
<time>2016-10-07T23:31:16Z</time></trkpt>
<trkpt lat="29.898054" lon="95.521336">
<time>2016-10-07T23:31:17Z</time></trkpt>
<trkpt lat="29.898084" lon="95.521205">
<time>2016-10-07T23:31:18Z</time></trkpt>
<trkpt lat="29.898113" lon="95.521035">
<time>2016-10-07T23:31:19Z</time></trkpt>
<trkpt lat="29.898123" lon="95.520834">
<time>2016-10-07T23:31:20Z</time></trkpt>
<trkpt lat="29.898122" lon="95.520673">
<time>2016-10-07T23:31:21Z</time></trkpt>
<trkpt lat="29.898081" lon="95.520322">
<time>2016-10-07T23:31:22Z</time></trkpt>
<trkpt lat="29.89798" lon="95.51977">
<time>2016-10-07T23:31:23Z</time></trkpt>
<trkpt lat="29.897635" lon="95.517943">
<time>2016-10-07T23:31:24Z</time></trkpt>
<trkpt lat="29.89733" lon="95.516287">
<time>2016-10-07T23:31:25Z</time></trkpt>
<trkpt lat="29.897106" lon="95.515073">
<time>2016-10-07T23:31:26Z</time></trkpt>
<trkpt lat="29.897005" lon="95.514531">
<time>2016-10-07T23:31:27Z</time></trkpt>
<trkpt lat="29.896853" lon="95.513848">
<time>2016-10-07T23:31:28Z</time></trkpt>
<trkpt lat="29.896701" lon="95.513256">
<time>2016-10-07T23:31:29Z</time></trkpt>
<trkpt lat="29.8966" lon="95.512885">
<time>2016-10-07T23:31:30Z</time></trkpt>
<trkpt lat="29.89658" lon="95.512784">
<time>2016-10-07T23:31:31Z</time></trkpt>
<trkpt lat="29.89656" lon="95.512684">
<time>2016-10-07T23:31:32Z</time></trkpt>
<trkpt lat="29.896539" lon="95.512553">
<time>2016-10-07T23:31:33Z</time></trkpt>
<trkpt lat="29.896559" lon="95.512463">
<time>2016-10-07T23:31:34Z</time></trkpt>
<trkpt lat="29.896579" lon="95.512373">
<time>2016-10-07T23:31:35Z</time></trkpt>
<trkpt lat="29.896598" lon="95.512333">
<time>2016-10-07T23:31:36Z</time></trkpt>
<trkpt lat="29.896628" lon="95.512282">
<time>2016-10-07T23:31:37Z</time></trkpt>
<trkpt lat="29.896698" lon="95.512182">
<time>2016-10-07T23:31:38Z</time></trkpt>
<trkpt lat="29.896927" lon="95.511911">
<time>2016-10-07T23:31:39Z</time></trkpt>
<trkpt lat="29.897246" lon="95.511519">
<time>2016-10-07T23:31:40Z</time></trkpt>
<trkpt lat="29.897655" lon="95.511048">
<time>2016-10-07T23:31:41Z</time></trkpt>
<trkpt lat="29.897774" lon="95.510897">
<time>2016-10-07T23:31:42Z</time></trkpt>
<trkpt lat="29.897864" lon="95.510787">
<time>2016-10-07T23:31:43Z</time></trkpt>
<trkpt lat="29.897963" lon="95.510626">
<time>2016-10-07T23:31:44Z</time></trkpt>
<trkpt lat="29.898103" lon="95.510335">
<time>2016-10-07T23:31:45Z</time></trkpt>
<trkpt lat="29.899473" lon="95.507253">
<time>2016-10-07T23:31:46Z</time></trkpt>
<trkpt lat="29.899613" lon="95.506952">
<time>2016-10-07T23:31:47Z</time></trkpt>
<trkpt lat="29.900377" lon="95.505205">
<time>2016-10-07T23:31:48Z</time></trkpt>
<trkpt lat="29.901232" lon="95.503348">
<time>2016-10-07T23:31:49Z</time></trkpt>
<trkpt lat="29.901321" lon="95.503168">
<time>2016-10-07T23:31:50Z</time></trkpt>
<trkpt lat="29.901421" lon="95.503017">
<time>2016-10-07T23:31:51Z</time></trkpt>
<trkpt lat="29.90153" lon="95.502887">
<time>2016-10-07T23:31:52Z</time></trkpt>
<trkpt lat="29.90169" lon="95.502726">
<time>2016-10-07T23:31:53Z</time></trkpt>
<trkpt lat="29.901859" lon="95.502545">
<time>2016-10-07T23:31:54Z</time></trkpt>
<trkpt lat="29.902707" lon="95.501682">
<time>2016-10-07T23:31:55Z</time></trkpt>
<trkpt lat="29.902787" lon="95.501622">
<time>2016-10-07T23:31:56Z</time></trkpt>
<trkpt lat="29.902856" lon="95.501582">
<time>2016-10-07T23:31:57Z</time></trkpt>
<trkpt lat="29.902936" lon="95.501552">
<time>2016-10-07T23:31:58Z</time></trkpt>
<trkpt lat="29.903016" lon="95.501531">
<time>2016-10-07T23:31:59Z</time></trkpt>
<trkpt lat="29.903076" lon="95.501531">
<time>2016-10-07T23:32:00Z</time></trkpt>
<trkpt lat="29.903176" lon="95.501521">
<time>2016-10-07T23:32:01Z</time></trkpt>
<trkpt lat="29.903446" lon="95.501531">
<time>2016-10-07T23:32:02Z</time></trkpt>
<trkpt lat="29.903666" lon="95.501551">
<time>2016-10-07T23:32:03Z</time></trkpt>
<trkpt lat="29.903836" lon="95.501582">
<time>2016-10-07T23:32:04Z</time></trkpt>
<trkpt lat="29.904047" lon="95.501652">
<time>2016-10-07T23:32:05Z</time></trkpt>
<trkpt lat="29.904557" lon="95.501863">
<time>2016-10-07T23:32:06Z</time></trkpt>
<trkpt lat="29.904727" lon="95.501933">
<time>2016-10-07T23:32:07Z</time></trkpt>
<trkpt lat="29.904838" lon="95.501993">
<time>2016-10-07T23:32:08Z</time></trkpt>
<trkpt lat="29.904918" lon="95.502053">
<time>2016-10-07T23:32:09Z</time></trkpt>
<trkpt lat="29.905038" lon="95.502174">
<time>2016-10-07T23:32:10Z</time></trkpt>
<trkpt lat="29.905108" lon="95.502284">
<time>2016-10-07T23:32:11Z</time></trkpt>
<trkpt lat="29.905149" lon="95.502365">
<time>2016-10-07T23:32:12Z</time></trkpt>
<trkpt lat="29.90538" lon="95.502846">
<time>2016-10-07T23:32:13Z</time></trkpt>
<trkpt lat="29.905461" lon="95.502987">
<time>2016-10-07T23:32:14Z</time></trkpt>
<trkpt lat="29.905521" lon="95.503087">
<time>2016-10-07T23:32:15Z</time></trkpt>
<trkpt lat="29.905621" lon="95.503198">
<time>2016-10-07T23:32:16Z</time></trkpt>
<trkpt lat="29.905701" lon="95.503258">
<time>2016-10-07T23:32:17Z</time></trkpt>
<trkpt lat="29.905711" lon="95.503268">
<time>2016-10-07T23:32:18Z</time></trkpt>
<trkpt lat="29.905792" lon="95.503298">
<time>2016-10-07T23:32:19Z</time></trkpt>
<trkpt lat="29.905882" lon="95.503328">
<time>2016-10-07T23:32:20Z</time></trkpt>
<trkpt lat="29.906002" lon="95.503378">
<time>2016-10-07T23:32:21Z</time></trkpt>
<trkpt lat="29.906122" lon="95.503409">
<time>2016-10-07T23:32:22Z</time></trkpt>
<trkpt lat="29.906212" lon="95.503429">
<time>2016-10-07T23:32:23Z</time></trkpt>
<trkpt lat="29.906282" lon="95.503429">
<time>2016-10-07T23:32:24Z</time></trkpt>
<trkpt lat="29.906332" lon="95.503409">
<time>2016-10-07T23:32:25Z</time></trkpt>
<trkpt lat="29.906392" lon="95.503378">
<time>2016-10-07T23:32:26Z</time></trkpt>
<trkpt lat="29.906432" lon="95.503348">
<time>2016-10-07T23:32:27Z</time></trkpt>
<trkpt lat="29.906452" lon="95.503318">
<time>2016-10-07T23:32:28Z</time></trkpt>
<trkpt lat="29.906491" lon="95.503268">
<time>2016-10-07T23:32:29Z</time></trkpt>
<trkpt lat="29.906561" lon="95.503148">
<time>2016-10-07T23:32:30Z</time></trkpt>
<trkpt lat="29.906789" lon="95.502626">
<time>2016-10-07T23:32:31Z</time></trkpt>
<trkpt lat="29.906829" lon="95.502555">
<time>2016-10-07T23:32:32Z</time></trkpt>
<trkpt lat="29.906889" lon="95.502465">
<time>2016-10-07T23:32:33Z</time></trkpt>
<trkpt lat="29.906999" lon="95.502314">
<time>2016-10-07T23:32:34Z</time></trkpt>
<trkpt lat="29.907756" lon="95.501622">
<time>2016-10-07T23:32:35Z</time></trkpt>
<trkpt lat="29.907896" lon="95.501491">
<time>2016-10-07T23:32:36Z</time></trkpt>
<trkpt lat="29.908006" lon="95.501371">
<time>2016-10-07T23:32:37Z</time></trkpt>
<trkpt lat="29.908095" lon="95.50125">
<time>2016-10-07T23:32:38Z</time></trkpt>
<trkpt lat="29.908155" lon="95.50117">
<time>2016-10-07T23:32:39Z</time></trkpt>
<trkpt lat="29.908205" lon="95.50106">
<time>2016-10-07T23:32:40Z</time></trkpt>
<trkpt lat="29.908234" lon="95.500969">
<time>2016-10-07T23:32:41Z</time></trkpt>
<trkpt lat="29.908244" lon="95.500889">
<time>2016-10-07T23:32:42Z</time></trkpt>
<trkpt lat="29.908264" lon="95.500748">
<time>2016-10-07T23:32:43Z</time></trkpt>
<trkpt lat="29.908263" lon="95.500578">
<time>2016-10-07T23:32:44Z</time></trkpt>
<trkpt lat="29.908262" lon="95.500056">
<time>2016-10-07T23:32:45Z</time></trkpt>
<trkpt lat="29.908261" lon="95.499684">
<time>2016-10-07T23:32:46Z</time></trkpt>
<trkpt lat="29.90827" lon="95.499363">
<time>2016-10-07T23:32:47Z</time></trkpt>
<trkpt lat="29.908269" lon="95.499032">
<time>2016-10-07T23:32:48Z</time></trkpt>
<trkpt lat="29.908256" lon="95.498189">
<time>2016-10-07T23:32:49Z</time></trkpt>
<trkpt lat="29.908255" lon="95.497817">
<time>2016-10-07T23:32:50Z</time></trkpt>
<trkpt lat="29.908262" lon="95.496773">
<time>2016-10-07T23:32:51Z</time></trkpt>
<trkpt lat="29.908251" lon="95.496402">
<time>2016-10-07T23:32:52Z</time></trkpt>
<trkpt lat="29.90826" lon="95.496">
<time>2016-10-07T23:32:53Z</time></trkpt>
<trkpt lat="29.908258" lon="95.495498">
<time>2016-10-07T23:32:54Z</time></trkpt>
<trkpt lat="29.908247" lon="95.495237">
<time>2016-10-07T23:32:55Z</time></trkpt>
<trkpt lat="29.908246" lon="95.494906">
<time>2016-10-07T23:32:56Z</time></trkpt>
<trkpt lat="29.908256" lon="95.494755">
<time>2016-10-07T23:32:57Z</time></trkpt>
<trkpt lat="29.908256" lon="95.494665">
<time>2016-10-07T23:32:58Z</time></trkpt>
<trkpt lat="29.908275" lon="95.494555">
<time>2016-10-07T23:32:59Z</time></trkpt>
<trkpt lat="29.908295" lon="95.494464">
<time>2016-10-07T23:33:00Z</time></trkpt>
<trkpt lat="29.908325" lon="95.494334">
<time>2016-10-07T23:33:01Z</time></trkpt>
<trkpt lat="29.908354" lon="95.494233">
<time>2016-10-07T23:33:02Z</time></trkpt>
<trkpt lat="29.908384" lon="95.494163">
<time>2016-10-07T23:33:03Z</time></trkpt>
<trkpt lat="29.908434" lon="95.494083">
<time>2016-10-07T23:33:04Z</time></trkpt>
<trkpt lat="29.908514" lon="95.493983">
<time>2016-10-07T23:33:05Z</time></trkpt>
<trkpt lat="29.908623" lon="95.493842">
<time>2016-10-07T23:33:06Z</time></trkpt>
<trkpt lat="29.908902" lon="95.493521">
<time>2016-10-07T23:33:07Z</time></trkpt>
<trkpt lat="29.909052" lon="95.49335">
<time>2016-10-07T23:33:08Z</time></trkpt>
<trkpt lat="29.909301" lon="95.493059">
<time>2016-10-07T23:33:09Z</time></trkpt>
<trkpt lat="29.90952" lon="95.492808">
<time>2016-10-07T23:33:10Z</time></trkpt>
<trkpt lat="29.909679" lon="95.492627">
<time>2016-10-07T23:33:11Z</time></trkpt>
<trkpt lat="29.909809" lon="95.492477">
<time>2016-10-07T23:33:12Z</time></trkpt>
<trkpt lat="29.909919" lon="95.492326">
<time>2016-10-07T23:33:13Z</time></trkpt>
<trkpt lat="29.909998" lon="95.492216">
<time>2016-10-07T23:33:14Z</time></trkpt>
<trkpt lat="29.910088" lon="95.492045">
<time>2016-10-07T23:33:15Z</time></trkpt>
<trkpt lat="29.910207" lon="95.491794">
<time>2016-10-07T23:33:16Z</time></trkpt>
<trkpt lat="29.910376" lon="95.491302">
<time>2016-10-07T23:33:17Z</time></trkpt>
<trkpt lat="29.910475" lon="95.491021">
<time>2016-10-07T23:33:18Z</time></trkpt>
<trkpt lat="29.910604" lon="95.49062">
<time>2016-10-07T23:33:19Z</time></trkpt>
<trkpt lat="29.910673" lon="95.490429">
<time>2016-10-07T23:33:20Z</time></trkpt>
<trkpt lat="29.910742" lon="95.490228">
<time>2016-10-07T23:33:21Z</time></trkpt>
<trkpt lat="29.910792" lon="95.489997">
<time>2016-10-07T23:33:22Z</time></trkpt>
<trkpt lat="29.910811" lon="95.489736">
<time>2016-10-07T23:33:23Z</time></trkpt>
<trkpt lat="29.910849" lon="95.489255">
<time>2016-10-07T23:33:24Z</time></trkpt>
<trkpt lat="29.910869" lon="95.488943">
<time>2016-10-07T23:33:25Z</time></trkpt>
<trkpt lat="29.910888" lon="95.488693">
<time>2016-10-07T23:33:26Z</time></trkpt>
<trkpt lat="29.910917" lon="95.488351">
<time>2016-10-07T23:33:27Z</time></trkpt>
<trkpt lat="29.910946" lon="95.48814">
<time>2016-10-07T23:33:28Z</time></trkpt>
<trkpt lat="29.910995" lon="95.487869">
<time>2016-10-07T23:33:29Z</time></trkpt>
<trkpt lat="29.911015" lon="95.487709">
<time>2016-10-07T23:33:30Z</time></trkpt>
<trkpt lat="29.911014" lon="95.487528">
<time>2016-10-07T23:33:31Z</time></trkpt>
<trkpt lat="29.911004" lon="95.487358">
<time>2016-10-07T23:33:32Z</time></trkpt>
<trkpt lat="29.910983" lon="95.487227">
<time>2016-10-07T23:33:33Z</time></trkpt>
<trkpt lat="29.910953" lon="95.487026">
<time>2016-10-07T23:33:34Z</time></trkpt>
<trkpt lat="29.910912" lon="95.486846">
<time>2016-10-07T23:33:35Z</time></trkpt>
<trkpt lat="29.910882" lon="95.486725">
<time>2016-10-07T23:33:36Z</time></trkpt>
<trkpt lat="29.910862" lon="95.486645">
<time>2016-10-07T23:33:37Z</time></trkpt>
<trkpt lat="29.910821" lon="95.486555">
<time>2016-10-07T23:33:38Z</time></trkpt>
<trkpt lat="29.910721" lon="95.486404">
<time>2016-10-07T23:33:39Z</time></trkpt>
<trkpt lat="29.91056" lon="95.486213">
<time>2016-10-07T23:33:40Z</time></trkpt>
<trkpt lat="29.91037" lon="95.485972">
<time>2016-10-07T23:33:41Z</time></trkpt>
<trkpt lat="29.910159" lon="95.485742">
<time>2016-10-07T23:33:42Z</time></trkpt>
<trkpt lat="29.909969" lon="95.485531">
<time>2016-10-07T23:33:43Z</time></trkpt>
<trkpt lat="29.909768" lon="95.48532">
<time>2016-10-07T23:33:44Z</time></trkpt>
<trkpt lat="29.909658" lon="95.48522">
<time>2016-10-07T23:33:45Z</time></trkpt>
<trkpt lat="29.909527" lon="95.485119">
<time>2016-10-07T23:33:46Z</time></trkpt>
<trkpt lat="29.909247" lon="95.484949">
<time>2016-10-07T23:33:47Z</time></trkpt>
<trkpt lat="29.909097" lon="95.484868">
<time>2016-10-07T23:33:48Z</time></trkpt>
<trkpt lat="29.908926" lon="95.484768">
<time>2016-10-07T23:33:49Z</time></trkpt>
<trkpt lat="29.908846" lon="95.484708">
<time>2016-10-07T23:33:50Z</time></trkpt>
<trkpt lat="29.908786" lon="95.484658">
<time>2016-10-07T23:33:51Z</time></trkpt>
<trkpt lat="29.908706" lon="95.484567">
<time>2016-10-07T23:33:52Z</time></trkpt>
<trkpt lat="29.908625" lon="95.484457">
<time>2016-10-07T23:33:53Z</time></trkpt>
<trkpt lat="29.908505" lon="95.484176">
<time>2016-10-07T23:33:54Z</time></trkpt>
<trkpt lat="29.908333" lon="95.483744">
<time>2016-10-07T23:33:55Z</time></trkpt>
<trkpt lat="29.908283" lon="95.483604">
<time>2016-10-07T23:33:56Z</time></trkpt>
<trkpt lat="29.908172" lon="95.483192">
<time>2016-10-07T23:33:57Z</time></trkpt>
<trkpt lat="29.90806" lon="95.482761">
<time>2016-10-07T23:33:58Z</time></trkpt>
<trkpt lat="29.907959" lon="95.482339">
<time>2016-10-07T23:33:59Z</time></trkpt>
<trkpt lat="29.907888" lon="95.482018">
<time>2016-10-07T23:34:00Z</time></trkpt>
<trkpt lat="29.907837" lon="95.481687">
<time>2016-10-07T23:34:01Z</time></trkpt>
<trkpt lat="29.907817" lon="95.481486">
<time>2016-10-07T23:34:02Z</time></trkpt>
<trkpt lat="29.907765" lon="95.480994">
<time>2016-10-07T23:34:03Z</time></trkpt>
<trkpt lat="29.907734" lon="95.480593">
<time>2016-10-07T23:34:04Z</time></trkpt>
<trkpt lat="29.907724" lon="95.480362">
<time>2016-10-07T23:34:05Z</time></trkpt>
<trkpt lat="29.907713" lon="95.480061">
<time>2016-10-07T23:34:06Z</time></trkpt>
<trkpt lat="29.907722" lon="95.47983">
<time>2016-10-07T23:34:07Z</time></trkpt>
<trkpt lat="29.90772" lon="95.479157">
<time>2016-10-07T23:34:08Z</time></trkpt>
<trkpt lat="29.907708" lon="95.478485">
<time>2016-10-07T23:34:09Z</time></trkpt>
<trkpt lat="29.907707" lon="95.478043">
<time>2016-10-07T23:34:10Z</time></trkpt>
<trkpt lat="29.907706" lon="95.477612">
<time>2016-10-07T23:34:11Z</time></trkpt>
<trkpt lat="29.907704" lon="95.4771">
<time>2016-10-07T23:34:12Z</time></trkpt>
<trkpt lat="29.907693" lon="95.476438">
<time>2016-10-07T23:34:13Z</time></trkpt>
<trkpt lat="29.907691" lon="95.475896">
<time>2016-10-07T23:34:14Z</time></trkpt>
<trkpt lat="29.90768" lon="95.475585">
<time>2016-10-07T23:34:15Z</time></trkpt>
<trkpt lat="29.907679" lon="95.475274">
<time>2016-10-07T23:34:16Z</time></trkpt>
<trkpt lat="29.907679" lon="95.475033">
<time>2016-10-07T23:34:17Z</time></trkpt>
<trkpt lat="29.907668" lon="95.474762">
<time>2016-10-07T23:34:18Z</time></trkpt>
<trkpt lat="29.907667" lon="95.474561">
<time>2016-10-07T23:34:19Z</time></trkpt>
<trkpt lat="29.907666" lon="95.47426">
<time>2016-10-07T23:34:20Z</time></trkpt>
<trkpt lat="29.907656" lon="95.473949">
<time>2016-10-07T23:34:21Z</time></trkpt>
<trkpt lat="29.907655" lon="95.473648">
<time>2016-10-07T23:34:22Z</time></trkpt>
<trkpt lat="29.907644" lon="95.473427">
<time>2016-10-07T23:34:23Z</time></trkpt>
<trkpt lat="29.907644" lon="95.473307">
<time>2016-10-07T23:34:24Z</time></trkpt>
<trkpt lat="29.907643" lon="95.472895">
<time>2016-10-07T23:34:25Z</time></trkpt>
<trkpt lat="29.907632" lon="95.472614">
<time>2016-10-07T23:34:26Z</time></trkpt>
<trkpt lat="29.907631" lon="95.472414">
<time>2016-10-07T23:34:27Z</time></trkpt>
<trkpt lat="29.907631" lon="95.472193">
<time>2016-10-07T23:34:28Z</time></trkpt>
<trkpt lat="29.90762" lon="95.472002">
<time>2016-10-07T23:34:29Z</time></trkpt>
<trkpt lat="29.90762" lon="95.471802">
<time>2016-10-07T23:34:30Z</time></trkpt>
<trkpt lat="29.907619" lon="95.471651">
<time>2016-10-07T23:34:31Z</time></trkpt>
<trkpt lat="29.907609" lon="95.47146">
<time>2016-10-07T23:34:32Z</time></trkpt>
<trkpt lat="29.907608" lon="95.4713">
<time>2016-10-07T23:34:33Z</time></trkpt>
<trkpt lat="29.907608" lon="95.471099">
<time>2016-10-07T23:34:34Z</time></trkpt>
<trkpt lat="29.907607" lon="95.470878">
<time>2016-10-07T23:34:35Z</time></trkpt>
<trkpt lat="29.907607" lon="95.470658">
<time>2016-10-07T23:34:36Z</time></trkpt>
<trkpt lat="29.907606" lon="95.470467">
<time>2016-10-07T23:34:37Z</time></trkpt>
<trkpt lat="29.907616" lon="95.470306">
<time>2016-10-07T23:34:38Z</time></trkpt>
<trkpt lat="29.907625" lon="95.470116">
<time>2016-10-07T23:34:39Z</time></trkpt>
<trkpt lat="29.907645" lon="95.469935">
<time>2016-10-07T23:34:40Z</time></trkpt>
<trkpt lat="29.907664" lon="95.469724">
<time>2016-10-07T23:34:41Z</time></trkpt>
<trkpt lat="29.907684" lon="95.469544">
<time>2016-10-07T23:34:42Z</time></trkpt>
<trkpt lat="29.907713" lon="95.469323">
<time>2016-10-07T23:34:43Z</time></trkpt>
<trkpt lat="29.907733" lon="95.469122">
<time>2016-10-07T23:34:44Z</time></trkpt>
<trkpt lat="29.907762" lon="95.468982">
<time>2016-10-07T23:34:45Z</time></trkpt>
<trkpt lat="29.907792" lon="95.468781">
<time>2016-10-07T23:34:46Z</time></trkpt>
<trkpt lat="29.907831" lon="95.468601">
<time>2016-10-07T23:34:47Z</time></trkpt>
<trkpt lat="29.907861" lon="95.46846">
<time>2016-10-07T23:34:48Z</time></trkpt>
<trkpt lat="29.9079" lon="95.46827">
<time>2016-10-07T23:34:49Z</time></trkpt>
<trkpt lat="29.90792" lon="95.468149">
<time>2016-10-07T23:34:50Z</time></trkpt>
<trkpt lat="29.90795" lon="95.468019">
<time>2016-10-07T23:34:51Z</time></trkpt>
<trkpt lat="29.907989" lon="95.467878">
<time>2016-10-07T23:34:52Z</time></trkpt>
<trkpt lat="29.908029" lon="95.467738">
<time>2016-10-07T23:34:53Z</time></trkpt>
<trkpt lat="29.908088" lon="95.467537">
<time>2016-10-07T23:34:54Z</time></trkpt>
<trkpt lat="29.908138" lon="95.467346">
<time>2016-10-07T23:34:55Z</time></trkpt>
<trkpt lat="29.908188" lon="95.467186">
<time>2016-10-07T23:34:56Z</time></trkpt>
<trkpt lat="29.908217" lon="95.467086">
<time>2016-10-07T23:34:57Z</time></trkpt>
<trkpt lat="29.908247" lon="95.466995">
<time>2016-10-07T23:34:58Z</time></trkpt>
<trkpt lat="29.908277" lon="95.466905">
<time>2016-10-07T23:34:59Z</time></trkpt>
<trkpt lat="29.908297" lon="95.466835">
<time>2016-10-07T23:35:00Z</time></trkpt>
<trkpt lat="29.908326" lon="95.466775">
<time>2016-10-07T23:35:01Z</time></trkpt>
<trkpt lat="29.908336" lon="95.466744">
<time>2016-10-07T23:35:02Z</time></trkpt>
<trkpt lat="29.908356" lon="95.466704">
<time>2016-10-07T23:35:03Z</time></trkpt>
<trkpt lat="29.908396" lon="95.466634">
<time>2016-10-07T23:35:04Z</time></trkpt>
<trkpt lat="29.908436" lon="95.466574">
<time>2016-10-07T23:35:05Z</time></trkpt>
<trkpt lat="29.908516" lon="95.466484">
<time>2016-10-07T23:35:06Z</time></trkpt>
<trkpt lat="29.908596" lon="95.466413">
<time>2016-10-07T23:35:07Z</time></trkpt>
<trkpt lat="29.908695" lon="95.466333">
<time>2016-10-07T23:35:08Z</time></trkpt>
<trkpt lat="29.908865" lon="95.466193">
<time>2016-10-07T23:35:09Z</time></trkpt>
<trkpt lat="29.909025" lon="95.466062">
<time>2016-10-07T23:35:10Z</time></trkpt>
<trkpt lat="29.909204" lon="95.465922">
<time>2016-10-07T23:35:11Z</time></trkpt>
<trkpt lat="29.909364" lon="95.465801">
<time>2016-10-07T23:35:12Z</time></trkpt>
<trkpt lat="29.909514" lon="95.465681">
<time>2016-10-07T23:35:13Z</time></trkpt>
<trkpt lat="29.909623" lon="95.465591">
<time>2016-10-07T23:35:14Z</time></trkpt>
<trkpt lat="29.909703" lon="95.46553">
<time>2016-10-07T23:35:15Z</time></trkpt>
<trkpt lat="29.909773" lon="95.46547">
<time>2016-10-07T23:35:16Z</time></trkpt>
<trkpt lat="29.909843" lon="95.46542">
<time>2016-10-07T23:35:17Z</time></trkpt>
<trkpt lat="29.909883" lon="95.46538">
<time>2016-10-07T23:35:18Z</time></trkpt>
<trkpt lat="29.909913" lon="95.46536">
<time>2016-10-07T23:35:19Z</time></trkpt>
<trkpt lat="29.909953" lon="95.46533">
<time>2016-10-07T23:35:20Z</time></trkpt>
<trkpt lat="29.909983" lon="95.46529">
<time>2016-10-07T23:35:21Z</time></trkpt>
<trkpt lat="29.910023" lon="95.46525">
<time>2016-10-07T23:35:22Z</time></trkpt>
<trkpt lat="29.910052" lon="95.465199">
<time>2016-10-07T23:35:23Z</time></trkpt>
<trkpt lat="29.910082" lon="95.465149">
<time>2016-10-07T23:35:24Z</time></trkpt>
<trkpt lat="29.910112" lon="95.465109">
<time>2016-10-07T23:35:25Z</time></trkpt>
<trkpt lat="29.910122" lon="95.465059">
<time>2016-10-07T23:35:26Z</time></trkpt>
<trkpt lat="29.910142" lon="95.465029">
<time>2016-10-07T23:35:27Z</time></trkpt>
<trkpt lat="29.910152" lon="95.464989">
<time>2016-10-07T23:35:28Z</time></trkpt>
<trkpt lat="29.910162" lon="95.464959">
<time>2016-10-07T23:35:29Z</time></trkpt>
<trkpt lat="29.910172" lon="95.464888">
<time>2016-10-07T23:35:30Z</time></trkpt>
<trkpt lat="29.910181" lon="95.464788">
<time>2016-10-07T23:35:31Z</time></trkpt>
<trkpt lat="29.910191" lon="95.464708">
<time>2016-10-07T23:35:32Z</time></trkpt>
<trkpt lat="29.910201" lon="95.464577">
<time>2016-10-07T23:35:33Z</time></trkpt>
<trkpt lat="29.91022" lon="95.464437">
<time>2016-10-07T23:35:34Z</time></trkpt>
<trkpt lat="29.91024" lon="95.464216">
<time>2016-10-07T23:35:35Z</time></trkpt>
<trkpt lat="29.91025" lon="95.464056">
<time>2016-10-07T23:35:36Z</time></trkpt>
<trkpt lat="29.910259" lon="95.463925">
<time>2016-10-07T23:35:37Z</time></trkpt>
<trkpt lat="29.910269" lon="95.463775">
<time>2016-10-07T23:35:38Z</time></trkpt>
<trkpt lat="29.910288" lon="95.463634">
<time>2016-10-07T23:35:39Z</time></trkpt>
<trkpt lat="29.910298" lon="95.463504">
<time>2016-10-07T23:35:40Z</time></trkpt>
<trkpt lat="29.910318" lon="95.463363">
<time>2016-10-07T23:35:41Z</time></trkpt>
<trkpt lat="29.910337" lon="95.463173">
<time>2016-10-07T23:35:42Z</time></trkpt>
<trkpt lat="29.910347" lon="95.463032">
<time>2016-10-07T23:35:43Z</time></trkpt>
<trkpt lat="29.910357" lon="95.462892">
<time>2016-10-07T23:35:44Z</time></trkpt>
<trkpt lat="29.910366" lon="95.462772">
<time>2016-10-07T23:35:45Z</time></trkpt>
<trkpt lat="29.910386" lon="95.462601">
<time>2016-10-07T23:35:46Z</time></trkpt>
<trkpt lat="29.910396" lon="95.462451">
<time>2016-10-07T23:35:47Z</time></trkpt>
<trkpt lat="29.910415" lon="95.46229">
<time>2016-10-07T23:35:48Z</time></trkpt>
<trkpt lat="29.910425" lon="95.46211">
<time>2016-10-07T23:35:49Z</time></trkpt>
<trkpt lat="29.910444" lon="95.461909">
<time>2016-10-07T23:35:50Z</time></trkpt>
<trkpt lat="29.910454" lon="95.461778">
<time>2016-10-07T23:35:51Z</time></trkpt>
<trkpt lat="29.910464" lon="95.461648">
<time>2016-10-07T23:35:52Z</time></trkpt>
<trkpt lat="29.910473" lon="95.461588">
<time>2016-10-07T23:35:53Z</time></trkpt>
<trkpt lat="29.910483" lon="95.461397">
<time>2016-10-07T23:35:54Z</time></trkpt>
<trkpt lat="29.910482" lon="95.461207">
<time>2016-10-07T23:35:55Z</time></trkpt>
<trkpt lat="29.910502" lon="95.460976">
<time>2016-10-07T23:35:56Z</time></trkpt>
<trkpt lat="29.910511" lon="95.460795">
<time>2016-10-07T23:35:57Z</time></trkpt>
<trkpt lat="29.910511" lon="95.460625">
<time>2016-10-07T23:35:58Z</time></trkpt>
<trkpt lat="29.910521" lon="95.460464">
<time>2016-10-07T23:35:59Z</time></trkpt>
<trkpt lat="29.91052" lon="95.460324">
<time>2016-10-07T23:36:00Z</time></trkpt>
<trkpt lat="29.91052" lon="95.460184">
<time>2016-10-07T23:36:01Z</time></trkpt>
<trkpt lat="29.91052" lon="95.460043">
<time>2016-10-07T23:36:02Z</time></trkpt>
<trkpt lat="29.910519" lon="95.459933">
<time>2016-10-07T23:36:03Z</time></trkpt>
<trkpt lat="29.910519" lon="95.459662">
<time>2016-10-07T23:36:04Z</time></trkpt>
<trkpt lat="29.910508" lon="95.459532">
<time>2016-10-07T23:36:05Z</time></trkpt>
<trkpt lat="29.910508" lon="95.459391">
<time>2016-10-07T23:36:06Z</time></trkpt>
<trkpt lat="29.910508" lon="95.459281">
<time>2016-10-07T23:36:07Z</time></trkpt>
<trkpt lat="29.910497" lon="95.45911">
<time>2016-10-07T23:36:08Z</time></trkpt>
<trkpt lat="29.910487" lon="95.45896">
<time>2016-10-07T23:36:09Z</time></trkpt>
<trkpt lat="29.910477" lon="95.458719">
<time>2016-10-07T23:36:10Z</time></trkpt>
<trkpt lat="29.910466" lon="95.458589">
<time>2016-10-07T23:36:11Z</time></trkpt>
<trkpt lat="29.910466" lon="95.458488">
<time>2016-10-07T23:36:12Z</time></trkpt>
<trkpt lat="29.910456" lon="95.458358">
<time>2016-10-07T23:36:13Z</time></trkpt>
<trkpt lat="29.910445" lon="95.458258">
<time>2016-10-07T23:36:14Z</time></trkpt>
<trkpt lat="29.910435" lon="95.458167">
<time>2016-10-07T23:36:15Z</time></trkpt>
<trkpt lat="29.910435" lon="95.458047">
<time>2016-10-07T23:36:16Z</time></trkpt>
<trkpt lat="29.910425" lon="95.457927">
<time>2016-10-07T23:36:17Z</time></trkpt>
<trkpt lat="29.910404" lon="95.457786">
<time>2016-10-07T23:36:18Z</time></trkpt>
<trkpt lat="29.910394" lon="95.457676">
<time>2016-10-07T23:36:19Z</time></trkpt>
<trkpt lat="29.910384" lon="95.457616">
<time>2016-10-07T23:36:20Z</time></trkpt>
<trkpt lat="29.910374" lon="95.457515">
<time>2016-10-07T23:36:21Z</time></trkpt>
<trkpt lat="29.910364" lon="95.457435">
<time>2016-10-07T23:36:22Z</time></trkpt>
<trkpt lat="29.910353" lon="95.457335">
<time>2016-10-07T23:36:23Z</time></trkpt>
<trkpt lat="29.910343" lon="95.457235">
<time>2016-10-07T23:36:24Z</time></trkpt>
<trkpt lat="29.910333" lon="95.457164">
<time>2016-10-07T23:36:25Z</time></trkpt>
<trkpt lat="29.910333" lon="95.457084">
<time>2016-10-07T23:36:26Z</time></trkpt>
<trkpt lat="29.910323" lon="95.457024">
<time>2016-10-07T23:36:27Z</time></trkpt>
<trkpt lat="29.910312" lon="95.456924">
<time>2016-10-07T23:36:28Z</time></trkpt>
<trkpt lat="29.910302" lon="95.456843">
<time>2016-10-07T23:36:29Z</time></trkpt>
<trkpt lat="29.910282" lon="95.456733">
<time>2016-10-07T23:36:30Z</time></trkpt>
<trkpt lat="29.910262" lon="95.456633">
<time>2016-10-07T23:36:31Z</time></trkpt>
<trkpt lat="29.910251" lon="95.456512">
<time>2016-10-07T23:36:32Z</time></trkpt>
<trkpt lat="29.910231" lon="95.456412">
<time>2016-10-07T23:36:33Z</time></trkpt>
<trkpt lat="29.910221" lon="95.456332">
<time>2016-10-07T23:36:34Z</time></trkpt>
<trkpt lat="29.910201" lon="95.456232">
<time>2016-10-07T23:36:35Z</time></trkpt>
<trkpt lat="29.910191" lon="95.456131">
<time>2016-10-07T23:36:36Z</time></trkpt>
<trkpt lat="29.91017" lon="95.456011">
<time>2016-10-07T23:36:37Z</time></trkpt>
<trkpt lat="29.91015" lon="95.455871">
<time>2016-10-07T23:36:38Z</time></trkpt>
<trkpt lat="29.91014" lon="95.4558">
<time>2016-10-07T23:36:39Z</time></trkpt>
<trkpt lat="29.91013" lon="95.45571">
<time>2016-10-07T23:36:40Z</time></trkpt>
<trkpt lat="29.910119" lon="95.45562">
<time>2016-10-07T23:36:41Z</time></trkpt>
<trkpt lat="29.910109" lon="95.45556">
<time>2016-10-07T23:36:42Z</time></trkpt>
<trkpt lat="29.910099" lon="95.4555">
<time>2016-10-07T23:36:43Z</time></trkpt>
<trkpt lat="29.910099" lon="95.455429">
<time>2016-10-07T23:36:44Z</time></trkpt>
<trkpt lat="29.910089" lon="95.455339">
<time>2016-10-07T23:36:45Z</time></trkpt>
<trkpt lat="29.910079" lon="95.455249">
<time>2016-10-07T23:36:46Z</time></trkpt>
<trkpt lat="29.910068" lon="95.455149">
<time>2016-10-07T23:36:47Z</time></trkpt>
<trkpt lat="29.910058" lon="95.455088">
<time>2016-10-07T23:36:48Z</time></trkpt>
<trkpt lat="29.910048" lon="95.455028">
<time>2016-10-07T23:36:49Z</time></trkpt>
<trkpt lat="29.910048" lon="95.454958">
<time>2016-10-07T23:36:50Z</time></trkpt>
<trkpt lat="29.910038" lon="95.454868">
<time>2016-10-07T23:36:51Z</time></trkpt>
<trkpt lat="29.910027" lon="95.454777">
<time>2016-10-07T23:36:52Z</time></trkpt>
<trkpt lat="29.910017" lon="95.454717">
<time>2016-10-07T23:36:53Z</time></trkpt>
<trkpt lat="29.910017" lon="95.454647">
<time>2016-10-07T23:36:54Z</time></trkpt>
<trkpt lat="29.910007" lon="95.454577">
<time>2016-10-07T23:36:55Z</time></trkpt>
<trkpt lat="29.910007" lon="95.454497">
<time>2016-10-07T23:36:56Z</time></trkpt>
<trkpt lat="29.909997" lon="95.454436">
<time>2016-10-07T23:36:57Z</time></trkpt>
<trkpt lat="29.909997" lon="95.454396">
<time>2016-10-07T23:36:58Z</time></trkpt>
<trkpt lat="29.909986" lon="95.454316">
<time>2016-10-07T23:36:59Z</time></trkpt>
<trkpt lat="29.909986" lon="95.454246">
<time>2016-10-07T23:37:00Z</time></trkpt>
<trkpt lat="29.909976" lon="95.454146">
<time>2016-10-07T23:37:01Z</time></trkpt>
<trkpt lat="29.909976" lon="95.454055">
<time>2016-10-07T23:37:02Z</time></trkpt>
<trkpt lat="29.909966" lon="95.453935">
<time>2016-10-07T23:37:03Z</time></trkpt>
<trkpt lat="29.909955" lon="95.453875">
<time>2016-10-07T23:37:04Z</time></trkpt>
<trkpt lat="29.909955" lon="95.453785">
<time>2016-10-07T23:37:05Z</time></trkpt>
<trkpt lat="29.909945" lon="95.453684">
<time>2016-10-07T23:37:06Z</time></trkpt>
<trkpt lat="29.909945" lon="95.453584">
<time>2016-10-07T23:37:07Z</time></trkpt>
<trkpt lat="29.909935" lon="95.453444">
<time>2016-10-07T23:37:08Z</time></trkpt>
<trkpt lat="29.909934" lon="95.453333">
<time>2016-10-07T23:37:09Z</time></trkpt>
<trkpt lat="29.909934" lon="95.453233">
<time>2016-10-07T23:37:10Z</time></trkpt>
<trkpt lat="29.909924" lon="95.453083">
<time>2016-10-07T23:37:11Z</time></trkpt>
<trkpt lat="29.909924" lon="95.452982">
<time>2016-10-07T23:37:12Z</time></trkpt>
<trkpt lat="29.909923" lon="95.452862">
<time>2016-10-07T23:37:13Z</time></trkpt>
<trkpt lat="29.909923" lon="95.452641">
<time>2016-10-07T23:37:14Z</time></trkpt>
<trkpt lat="29.909912" lon="95.452481">
<time>2016-10-07T23:37:15Z</time></trkpt>
<trkpt lat="29.909922" lon="95.452341">
<time>2016-10-07T23:37:16Z</time></trkpt>
<trkpt lat="29.909922" lon="95.4521">
<time>2016-10-07T23:37:17Z</time></trkpt>
<trkpt lat="29.909921" lon="95.45203">
<time>2016-10-07T23:37:18Z</time></trkpt>
<trkpt lat="29.909921" lon="95.451939">
<time>2016-10-07T23:37:19Z</time></trkpt>
<trkpt lat="29.909921" lon="95.451879">
<time>2016-10-07T23:37:20Z</time></trkpt>
<trkpt lat="29.909931" lon="95.451829">
<time>2016-10-07T23:37:21Z</time></trkpt>
<trkpt lat="29.909931" lon="95.451759">
<time>2016-10-07T23:37:22Z</time></trkpt>
<trkpt lat="29.909931" lon="95.451689">
<time>2016-10-07T23:37:23Z</time></trkpt>
<trkpt lat="29.909931" lon="95.451629">
<time>2016-10-07T23:37:24Z</time></trkpt>
<trkpt lat="29.90993" lon="95.451568">
<time>2016-10-07T23:37:25Z</time></trkpt>
<trkpt lat="29.90994" lon="95.451438">
<time>2016-10-07T23:37:26Z</time></trkpt>
<trkpt lat="29.90995" lon="95.451338">
<time>2016-10-07T23:37:27Z</time></trkpt>
<trkpt lat="29.90995" lon="95.451278">
<time>2016-10-07T23:37:28Z</time></trkpt>
<trkpt lat="29.90995" lon="95.451237">
<time>2016-10-07T23:37:29Z</time></trkpt>
<trkpt lat="29.90996" lon="95.451187">
<time>2016-10-07T23:37:30Z</time></trkpt>
<trkpt lat="29.90996" lon="95.451147">
<time>2016-10-07T23:37:31Z</time></trkpt>
<trkpt lat="29.909959" lon="95.451087">
<time>2016-10-07T23:37:32Z</time></trkpt>
<trkpt lat="29.909959" lon="95.451047">
<time>2016-10-07T23:37:33Z</time></trkpt>
<trkpt lat="29.909959" lon="95.451007">
<time>2016-10-07T23:37:34Z</time></trkpt>
<trkpt lat="29.909969" lon="95.450957">
<time>2016-10-07T23:37:35Z</time></trkpt>
<trkpt lat="29.909969" lon="95.450917">
<time>2016-10-07T23:37:36Z</time></trkpt>
<trkpt lat="29.909969" lon="95.450856">
<time>2016-10-07T23:37:37Z</time></trkpt>
<trkpt lat="29.909979" lon="95.450776">
<time>2016-10-07T23:37:38Z</time></trkpt>
<trkpt lat="29.909979" lon="95.450716">
<time>2016-10-07T23:37:39Z</time></trkpt>
<trkpt lat="29.909979" lon="95.450666">
<time>2016-10-07T23:37:40Z</time></trkpt>
<trkpt lat="29.909988" lon="95.450596">
<time>2016-10-07T23:37:41Z</time></trkpt>
<trkpt lat="29.909988" lon="95.450536">
<time>2016-10-07T23:37:42Z</time></trkpt>
<trkpt lat="29.909988" lon="95.450495">
<time>2016-10-07T23:37:43Z</time></trkpt>
<trkpt lat="29.909998" lon="95.450405">
<time>2016-10-07T23:37:44Z</time></trkpt>
<trkpt lat="29.910008" lon="95.450315">
<time>2016-10-07T23:37:45Z</time></trkpt>
<trkpt lat="29.910008" lon="95.450235">
<time>2016-10-07T23:37:46Z</time></trkpt>
<trkpt lat="29.910017" lon="95.450135">
<time>2016-10-07T23:37:47Z</time></trkpt>
<trkpt lat="29.910027" lon="95.449974">
<time>2016-10-07T23:37:48Z</time></trkpt>
<trkpt lat="29.910037" lon="95.449884">
<time>2016-10-07T23:37:49Z</time></trkpt>
<trkpt lat="29.910047" lon="95.449753">
<time>2016-10-07T23:37:50Z</time></trkpt>
<trkpt lat="29.910046" lon="95.449653">
<time>2016-10-07T23:37:51Z</time></trkpt>
<trkpt lat="29.910056" lon="95.449553">
<time>2016-10-07T23:37:52Z</time></trkpt>
<trkpt lat="29.910066" lon="95.449453">
<time>2016-10-07T23:37:53Z</time></trkpt>
<trkpt lat="29.910076" lon="95.449352">
<time>2016-10-07T23:37:54Z</time></trkpt>
<trkpt lat="29.910076" lon="95.449252">
<time>2016-10-07T23:37:55Z</time></trkpt>
<trkpt lat="29.910085" lon="95.449152">
<time>2016-10-07T23:37:56Z</time></trkpt>
<trkpt lat="29.910105" lon="95.448961">
<time>2016-10-07T23:37:57Z</time></trkpt>
<trkpt lat="29.910105" lon="95.448861">
<time>2016-10-07T23:37:58Z</time></trkpt>
<trkpt lat="29.910115" lon="95.448761">
<time>2016-10-07T23:37:59Z</time></trkpt>
<trkpt lat="29.910114" lon="95.448691">
<time>2016-10-07T23:38:00Z</time></trkpt>
<trkpt lat="29.910124" lon="95.44858">
<time>2016-10-07T23:38:01Z</time></trkpt>
<trkpt lat="29.910134" lon="95.44843">
<time>2016-10-07T23:38:02Z</time></trkpt>
<trkpt lat="29.910144" lon="95.44836">
<time>2016-10-07T23:38:03Z</time></trkpt>
<trkpt lat="29.910144" lon="95.44827">
<time>2016-10-07T23:38:04Z</time></trkpt>
<trkpt lat="29.910153" lon="95.448169">
<time>2016-10-07T23:38:05Z</time></trkpt>
<trkpt lat="29.910163" lon="95.448089">
<time>2016-10-07T23:38:06Z</time></trkpt>
<trkpt lat="29.910193" lon="95.447758">
<time>2016-10-07T23:38:07Z</time></trkpt>
<trkpt lat="29.910202" lon="95.447538">
<time>2016-10-07T23:38:08Z</time></trkpt>
<trkpt lat="29.910202" lon="95.447508">
<time>2016-10-07T23:38:09Z</time></trkpt>
<trkpt lat="29.910222" lon="95.447327">
<time>2016-10-07T23:38:10Z</time></trkpt>
<trkpt lat="29.910231" lon="95.447117">
<time>2016-10-07T23:38:11Z</time></trkpt>
<trkpt lat="29.910251" lon="95.446866">
<time>2016-10-07T23:38:12Z</time></trkpt>
<trkpt lat="29.91027" lon="95.446655">
<time>2016-10-07T23:38:13Z</time></trkpt>
<trkpt lat="29.91029" lon="95.446395">
<time>2016-10-07T23:38:14Z</time></trkpt>
<trkpt lat="29.910299" lon="95.446154">
<time>2016-10-07T23:38:15Z</time></trkpt>
<trkpt lat="29.910319" lon="95.445964">
<time>2016-10-07T23:38:16Z</time></trkpt>
<trkpt lat="29.910358" lon="95.445472">
<time>2016-10-07T23:38:17Z</time></trkpt>
<trkpt lat="29.910368" lon="95.445302">
<time>2016-10-07T23:38:18Z</time></trkpt>
<trkpt lat="29.910387" lon="95.445031">
<time>2016-10-07T23:38:19Z</time></trkpt>
<trkpt lat="29.910397" lon="95.444901">
<time>2016-10-07T23:38:20Z</time></trkpt>
<trkpt lat="29.910407" lon="95.444741">
<time>2016-10-07T23:38:21Z</time></trkpt>
<trkpt lat="29.910416" lon="95.44455">
<time>2016-10-07T23:38:22Z</time></trkpt>
<trkpt lat="29.910436" lon="95.4444">
<time>2016-10-07T23:38:23Z</time></trkpt>
<trkpt lat="29.910446" lon="95.444219">
<time>2016-10-07T23:38:24Z</time></trkpt>
<trkpt lat="29.910456" lon="95.444119">
<time>2016-10-07T23:38:25Z</time></trkpt>
<trkpt lat="29.910456" lon="95.444069">
<time>2016-10-07T23:38:26Z</time></trkpt>
<trkpt lat="29.910465" lon="95.443889">
<time>2016-10-07T23:38:27Z</time></trkpt>
<trkpt lat="29.910485" lon="95.443658">
<time>2016-10-07T23:38:28Z</time></trkpt>
<trkpt lat="29.910494" lon="95.443367">
<time>2016-10-07T23:38:29Z</time></trkpt>
<trkpt lat="29.910504" lon="95.443257">
<time>2016-10-07T23:38:30Z</time></trkpt>
<trkpt lat="29.910514" lon="95.443197">
<time>2016-10-07T23:38:31Z</time></trkpt>
<trkpt lat="29.910514" lon="95.443117">
<time>2016-10-07T23:38:32Z</time></trkpt>
<trkpt lat="29.910524" lon="95.443026">
<time>2016-10-07T23:38:33Z</time></trkpt>
<trkpt lat="29.910523" lon="95.442926">
<time>2016-10-07T23:38:34Z</time></trkpt>
<trkpt lat="29.910533" lon="95.442826">
<time>2016-10-07T23:38:35Z</time></trkpt>
<trkpt lat="29.910543" lon="95.442716">
<time>2016-10-07T23:38:36Z</time></trkpt>
<trkpt lat="29.910553" lon="95.442465">
<time>2016-10-07T23:38:37Z</time></trkpt>
<trkpt lat="29.910572" lon="95.442305">
<time>2016-10-07T23:38:38Z</time></trkpt>
<trkpt lat="29.910572" lon="95.442225">
<time>2016-10-07T23:38:39Z</time></trkpt>
<trkpt lat="29.910582" lon="95.442134">
<time>2016-10-07T23:38:40Z</time></trkpt>
<trkpt lat="29.910611" lon="95.441763">
<time>2016-10-07T23:38:41Z</time></trkpt>
<trkpt lat="29.910611" lon="95.441703">
<time>2016-10-07T23:38:42Z</time></trkpt>
<trkpt lat="29.910611" lon="95.441643">
<time>2016-10-07T23:38:43Z</time></trkpt>
<trkpt lat="29.910621" lon="95.441593">
<time>2016-10-07T23:38:44Z</time></trkpt>
<trkpt lat="29.910621" lon="95.441543">
<time>2016-10-07T23:38:45Z</time></trkpt>
<trkpt lat="29.910621" lon="95.441493">
<time>2016-10-07T23:38:46Z</time></trkpt>
<trkpt lat="29.910631" lon="95.441443">
<time>2016-10-07T23:38:47Z</time></trkpt>
<trkpt lat="29.910631" lon="95.441403">
<time>2016-10-07T23:38:48Z</time></trkpt>
<trkpt lat="29.910641" lon="95.441353">
<time>2016-10-07T23:38:49Z</time></trkpt>
<trkpt lat="29.910641" lon="95.441292">
<time>2016-10-07T23:38:50Z</time></trkpt>
<trkpt lat="29.91064" lon="95.441242">
<time>2016-10-07T23:38:51Z</time></trkpt>
<trkpt lat="29.91065" lon="95.441192">
<time>2016-10-07T23:38:52Z</time></trkpt>
<trkpt lat="29.91065" lon="95.441132">
<time>2016-10-07T23:38:53Z</time></trkpt>
<trkpt lat="29.91065" lon="95.441082">
<time>2016-10-07T23:38:54Z</time></trkpt>
<trkpt lat="29.91066" lon="95.441032">
<time>2016-10-07T23:38:55Z</time></trkpt>
<trkpt lat="29.91066" lon="95.440972">
<time>2016-10-07T23:38:56Z</time></trkpt>
<trkpt lat="29.91067" lon="95.440922">
<time>2016-10-07T23:38:57Z</time></trkpt>
<trkpt lat="29.91067" lon="95.440861">
<time>2016-10-07T23:38:58Z</time></trkpt>
<trkpt lat="29.91067" lon="95.440801">
<time>2016-10-07T23:38:59Z</time></trkpt>
<trkpt lat="29.91068" lon="95.440731">
<time>2016-10-07T23:39:00Z</time></trkpt>
<trkpt lat="29.910679" lon="95.440661">
<time>2016-10-07T23:39:01Z</time></trkpt>
<trkpt lat="29.910689" lon="95.440611">
<time>2016-10-07T23:39:02Z</time></trkpt>
<trkpt lat="29.910689" lon="95.440551">
<time>2016-10-07T23:39:03Z</time></trkpt>
<trkpt lat="29.910699" lon="95.440501">
<time>2016-10-07T23:39:04Z</time></trkpt>
<trkpt lat="29.910709" lon="95.44039">
<time>2016-10-07T23:39:05Z</time></trkpt>
<trkpt lat="29.910739" lon="95.44024">
<time>2016-10-07T23:39:06Z</time></trkpt>
<trkpt lat="29.910758" lon="95.4401">
<time>2016-10-07T23:39:07Z</time></trkpt>
<trkpt lat="29.910798" lon="95.439949">
<time>2016-10-07T23:39:08Z</time></trkpt>
<trkpt lat="29.910828" lon="95.439849">
<time>2016-10-07T23:39:09Z</time></trkpt>
<trkpt lat="29.910878" lon="95.439709">
<time>2016-10-07T23:39:10Z</time></trkpt>
<trkpt lat="29.910908" lon="95.439629">
<time>2016-10-07T23:39:11Z</time></trkpt>
<trkpt lat="29.910938" lon="95.439548">
<time>2016-10-07T23:39:12Z</time></trkpt>
<trkpt lat="29.910997" lon="95.439428">
<time>2016-10-07T23:39:13Z</time></trkpt>
<trkpt lat="29.911077" lon="95.439278">
<time>2016-10-07T23:39:14Z</time></trkpt>
<trkpt lat="29.911167" lon="95.439097">
<time>2016-10-07T23:39:15Z</time></trkpt>
<trkpt lat="29.911276" lon="95.438867">
<time>2016-10-07T23:39:16Z</time></trkpt>
<trkpt lat="29.911366" lon="95.438687">
<time>2016-10-07T23:39:17Z</time></trkpt>
<trkpt lat="29.911426" lon="95.438556">
<time>2016-10-07T23:39:18Z</time></trkpt>
<trkpt lat="29.911506" lon="95.438396">
<time>2016-10-07T23:39:19Z</time></trkpt>
<trkpt lat="29.911585" lon="95.438246">
<time>2016-10-07T23:39:20Z</time></trkpt>
<trkpt lat="29.911655" lon="95.438105">
<time>2016-10-07T23:39:21Z</time></trkpt>
<trkpt lat="29.911725" lon="95.437965">
<time>2016-10-07T23:39:22Z</time></trkpt>
<trkpt lat="29.911785" lon="95.437845">
<time>2016-10-07T23:39:23Z</time></trkpt>
<trkpt lat="29.911914" lon="95.437584">
<time>2016-10-07T23:39:24Z</time></trkpt>
<trkpt lat="29.911984" lon="95.437454">
<time>2016-10-07T23:39:25Z</time></trkpt>
<trkpt lat="29.912054" lon="95.437334">
<time>2016-10-07T23:39:26Z</time></trkpt>
<trkpt lat="29.912134" lon="95.437193">
<time>2016-10-07T23:39:27Z</time></trkpt>
<trkpt lat="29.912193" lon="95.437083">
<time>2016-10-07T23:39:28Z</time></trkpt>
<trkpt lat="29.912273" lon="95.436943">
<time>2016-10-07T23:39:29Z</time></trkpt>
<trkpt lat="29.912323" lon="95.436863">
<time>2016-10-07T23:39:30Z</time></trkpt>
<trkpt lat="29.912403" lon="95.436742">
<time>2016-10-07T23:39:31Z</time></trkpt>
<trkpt lat="29.912483" lon="95.436622">
<time>2016-10-07T23:39:32Z</time></trkpt>
<trkpt lat="29.912543" lon="95.436512">
<time>2016-10-07T23:39:33Z</time></trkpt>
<trkpt lat="29.912622" lon="95.436392">
<time>2016-10-07T23:39:34Z</time></trkpt>
<trkpt lat="29.912682" lon="95.436291">
<time>2016-10-07T23:39:35Z</time></trkpt>
<trkpt lat="29.912812" lon="95.436091">
<time>2016-10-07T23:39:36Z</time></trkpt>
<trkpt lat="29.913081" lon="95.43565">
<time>2016-10-07T23:39:37Z</time></trkpt>
<trkpt lat="29.913161" lon="95.43552">
<time>2016-10-07T23:39:38Z</time></trkpt>
<trkpt lat="29.913301" lon="95.435299">
<time>2016-10-07T23:39:39Z</time></trkpt>
<trkpt lat="29.91346" lon="95.435039">
<time>2016-10-07T23:39:40Z</time></trkpt>
<trkpt lat="29.91359" lon="95.434818">
<time>2016-10-07T23:39:41Z</time></trkpt>
<trkpt lat="29.913859" lon="95.434388">
<time>2016-10-07T23:39:42Z</time></trkpt>
<trkpt lat="29.914019" lon="95.434127">
<time>2016-10-07T23:39:43Z</time></trkpt>
<trkpt lat="29.914209" lon="95.433826">
<time>2016-10-07T23:39:44Z</time></trkpt>
<trkpt lat="29.914368" lon="95.433556">
<time>2016-10-07T23:39:45Z</time></trkpt>
<trkpt lat="29.914558" lon="95.433245">
<time>2016-10-07T23:39:46Z</time></trkpt>
<trkpt lat="29.914707" lon="95.433005">
<time>2016-10-07T23:39:47Z</time></trkpt>
<trkpt lat="29.914907" lon="95.432674">
<time>2016-10-07T23:39:48Z</time></trkpt>
<trkpt lat="29.915086" lon="95.432364">
<time>2016-10-07T23:39:49Z</time></trkpt>
<trkpt lat="29.915256" lon="95.432093">
<time>2016-10-07T23:39:50Z</time></trkpt>
<trkpt lat="29.915625" lon="95.431492">
<time>2016-10-07T23:39:51Z</time></trkpt>
<trkpt lat="29.915805" lon="95.431181">
<time>2016-10-07T23:39:52Z</time></trkpt>
<trkpt lat="29.916034" lon="95.430811">
<time>2016-10-07T23:39:53Z</time></trkpt>
<trkpt lat="29.916254" lon="95.43045">
<time>2016-10-07T23:39:54Z</time></trkpt>
<trkpt lat="29.916404" lon="95.43019">
<time>2016-10-07T23:39:55Z</time></trkpt>
<trkpt lat="29.916613" lon="95.429859">
<time>2016-10-07T23:39:56Z</time></trkpt>
<trkpt lat="29.916713" lon="95.429689">
<time>2016-10-07T23:39:57Z</time></trkpt>
<trkpt lat="29.916873" lon="95.429428">
<time>2016-10-07T23:39:58Z</time></trkpt>
<trkpt lat="29.917132" lon="95.428998">
<time>2016-10-07T23:39:59Z</time></trkpt>
<trkpt lat="29.917841" lon="95.427836">
<time>2016-10-07T23:40:00Z</time></trkpt>
<trkpt lat="29.918479" lon="95.426814">
<time>2016-10-07T23:40:01Z</time></trkpt>
<trkpt lat="29.919288" lon="95.425542">
<time>2016-10-07T23:40:02Z</time></trkpt>
<trkpt lat="29.920216" lon="95.42409">
<time>2016-10-07T23:40:03Z</time></trkpt>
<trkpt lat="29.921015" lon="95.422858">
<time>2016-10-07T23:40:04Z</time></trkpt>
<trkpt lat="29.921345" lon="95.422347">
<time>2016-10-07T23:40:05Z</time></trkpt>
<trkpt lat="29.921874" lon="95.421536">
<time>2016-10-07T23:40:06Z</time></trkpt>
<trkpt lat="29.922114" lon="95.421176">
<time>2016-10-07T23:40:07Z</time></trkpt>
<trkpt lat="29.922293" lon="95.420935">
<time>2016-10-07T23:40:08Z</time></trkpt>
<trkpt lat="29.922453" lon="95.420725">
<time>2016-10-07T23:40:09Z</time></trkpt>
<trkpt lat="29.923033" lon="95.419994">
<time>2016-10-07T23:40:10Z</time></trkpt>
<trkpt lat="29.923702" lon="95.419123">
<time>2016-10-07T23:40:11Z</time></trkpt>
<trkpt lat="29.923992" lon="95.418843">
<time>2016-10-07T23:40:12Z</time></trkpt>
<trkpt lat="29.924111" lon="95.418743">
<time>2016-10-07T23:40:13Z</time></trkpt>
<trkpt lat="29.924361" lon="95.418563">
<time>2016-10-07T23:40:14Z</time></trkpt>
<trkpt lat="29.924791" lon="95.418272">
<time>2016-10-07T23:40:15Z</time></trkpt>
<trkpt lat="29.926241" lon="95.417501">
<time>2016-10-07T23:40:16Z</time></trkpt>
<trkpt lat="29.9276" lon="95.41678">
<time>2016-10-07T23:40:17Z</time></trkpt>
<trkpt lat="29.92822" lon="95.41645">
<time>2016-10-07T23:40:18Z</time></trkpt>
<trkpt lat="29.92881" lon="95.41612">
<time>2016-10-07T23:40:19Z</time></trkpt>
<trkpt lat="29.929179" lon="95.41592">
<time>2016-10-07T23:40:20Z</time></trkpt>
<trkpt lat="29.929379" lon="95.415799">
<time>2016-10-07T23:40:21Z</time></trkpt>
<trkpt lat="29.929509" lon="95.415709">
<time>2016-10-07T23:40:22Z</time></trkpt>
<trkpt lat="29.929629" lon="95.415599">
<time>2016-10-07T23:40:23Z</time></trkpt>
<trkpt lat="29.929689" lon="95.415529">
<time>2016-10-07T23:40:24Z</time></trkpt>
<trkpt lat="29.929759" lon="95.415459">
<time>2016-10-07T23:40:25Z</time></trkpt>
<trkpt lat="29.929819" lon="95.415379">
<time>2016-10-07T23:40:26Z</time></trkpt>
<trkpt lat="29.929879" lon="95.415299">
<time>2016-10-07T23:40:27Z</time></trkpt>
<trkpt lat="29.929919" lon="95.415229">
<time>2016-10-07T23:40:28Z</time></trkpt>
<trkpt lat="29.929949" lon="95.415169">
<time>2016-10-07T23:40:29Z</time></trkpt>
<trkpt lat="29.930009" lon="95.415049">
<time>2016-10-07T23:40:30Z</time></trkpt>
<trkpt lat="29.930029" lon="95.414999">
<time>2016-10-07T23:40:31Z</time></trkpt>
<trkpt lat="29.930049" lon="95.414939">
<time>2016-10-07T23:40:32Z</time></trkpt>
<trkpt lat="29.930069" lon="95.414848">
<time>2016-10-07T23:40:33Z</time></trkpt>
<trkpt lat="29.930099" lon="95.414768">
<time>2016-10-07T23:40:34Z</time></trkpt>
<trkpt lat="29.930119" lon="95.414668">
<time>2016-10-07T23:40:35Z</time></trkpt>
<trkpt lat="29.930129" lon="95.414598">
<time>2016-10-07T23:40:36Z</time></trkpt>
<trkpt lat="29.930148" lon="95.414518">
<time>2016-10-07T23:40:37Z</time></trkpt>
<trkpt lat="29.930158" lon="95.414428">
<time>2016-10-07T23:40:38Z</time></trkpt>
<trkpt lat="29.930168" lon="95.414338">
<time>2016-10-07T23:40:39Z</time></trkpt>
<trkpt lat="29.930188" lon="95.414238">
<time>2016-10-07T23:40:40Z</time></trkpt>
<trkpt lat="29.930198" lon="95.414138">
<time>2016-10-07T23:40:41Z</time></trkpt>
<trkpt lat="29.930208" lon="95.414058">
<time>2016-10-07T23:40:42Z</time></trkpt>
<trkpt lat="29.930218" lon="95.413978">
<time>2016-10-07T23:40:43Z</time></trkpt>
<trkpt lat="29.930228" lon="95.413908">
<time>2016-10-07T23:40:44Z</time></trkpt>
<trkpt lat="29.930238" lon="95.413838">
<time>2016-10-07T23:40:45Z</time></trkpt>
<trkpt lat="29.930248" lon="95.413777">
<time>2016-10-07T23:40:46Z</time></trkpt>
<trkpt lat="29.930248" lon="95.413707">
<time>2016-10-07T23:40:47Z</time></trkpt>
<trkpt lat="29.930258" lon="95.413627">
<time>2016-10-07T23:40:48Z</time></trkpt>
<trkpt lat="29.930278" lon="95.413537">
<time>2016-10-07T23:40:49Z</time></trkpt>
<trkpt lat="29.930288" lon="95.413437">
<time>2016-10-07T23:40:50Z</time></trkpt>
<trkpt lat="29.930298" lon="95.413337">
<time>2016-10-07T23:40:51Z</time></trkpt>
<trkpt lat="29.930318" lon="95.413237">
<time>2016-10-07T23:40:52Z</time></trkpt>
<trkpt lat="29.930328" lon="95.413127">
<time>2016-10-07T23:40:53Z</time></trkpt>
<trkpt lat="29.930348" lon="95.413027">
<time>2016-10-07T23:40:54Z</time></trkpt>
<trkpt lat="29.930348" lon="95.412947">
<time>2016-10-07T23:40:55Z</time></trkpt>
<trkpt lat="29.930358" lon="95.412867">
<time>2016-10-07T23:40:56Z</time></trkpt>
<trkpt lat="29.930378" lon="95.412747">
<time>2016-10-07T23:40:57Z</time></trkpt>
<trkpt lat="29.930387" lon="95.412657">
<time>2016-10-07T23:40:58Z</time></trkpt>
<trkpt lat="29.930397" lon="95.412586">
<time>2016-10-07T23:40:59Z</time></trkpt>
<trkpt lat="29.930397" lon="95.412506">
<time>2016-10-07T23:41:00Z</time></trkpt>
<trkpt lat="29.930417" lon="95.412386">
<time>2016-10-07T23:41:01Z</time></trkpt>
<trkpt lat="29.930427" lon="95.412286">
<time>2016-10-07T23:41:02Z</time></trkpt>
<trkpt lat="29.930437" lon="95.412186">
<time>2016-10-07T23:41:03Z</time></trkpt>
<trkpt lat="29.930457" lon="95.412056">
<time>2016-10-07T23:41:04Z</time></trkpt>
<trkpt lat="29.930477" lon="95.411946">
<time>2016-10-07T23:41:05Z</time></trkpt>
<trkpt lat="29.930487" lon="95.411846">
<time>2016-10-07T23:41:06Z</time></trkpt>
<trkpt lat="29.930507" lon="95.411716">
<time>2016-10-07T23:41:07Z</time></trkpt>
<trkpt lat="29.930537" lon="95.411476">
<time>2016-10-07T23:41:08Z</time></trkpt>
<trkpt lat="29.930547" lon="95.411315">
<time>2016-10-07T23:41:09Z</time></trkpt>
<trkpt lat="29.930597" lon="95.411045">
<time>2016-10-07T23:41:10Z</time></trkpt>
<trkpt lat="29.930617" lon="95.410955">
<time>2016-10-07T23:41:11Z</time></trkpt>
<trkpt lat="29.930727" lon="95.410645">
<time>2016-10-07T23:41:12Z</time></trkpt>
<trkpt lat="29.930856" lon="95.410435">
<time>2016-10-07T23:41:13Z</time></trkpt>
<trkpt lat="29.931226" lon="95.409814">
<time>2016-10-07T23:41:14Z</time></trkpt>
<trkpt lat="29.931616" lon="95.409194">
<time>2016-10-07T23:41:15Z</time></trkpt>
<trkpt lat="29.931706" lon="95.409024">
<time>2016-10-07T23:41:16Z</time></trkpt>
<trkpt lat="29.931746" lon="95.408934">
<time>2016-10-07T23:41:17Z</time></trkpt>
<trkpt lat="29.931816" lon="95.408714">
<time>2016-10-07T23:41:18Z</time></trkpt>
<trkpt lat="29.931846" lon="95.408573">
<time>2016-10-07T23:41:19Z</time></trkpt>
<trkpt lat="29.931866" lon="95.408393">
<time>2016-10-07T23:41:20Z</time></trkpt>
<trkpt lat="29.931935" lon="95.407663">
<time>2016-10-07T23:41:21Z</time></trkpt>
<trkpt lat="29.932015" lon="95.406872">
<time>2016-10-07T23:41:22Z</time></trkpt>
<trkpt lat="29.932055" lon="95.406342">
<time>2016-10-07T23:41:23Z</time></trkpt>
<trkpt lat="29.932115" lon="95.405812">
<time>2016-10-07T23:41:24Z</time></trkpt>
<trkpt lat="29.932165" lon="95.405462">
<time>2016-10-07T23:41:25Z</time></trkpt>
<trkpt lat="29.932215" lon="95.405252">
<time>2016-10-07T23:41:26Z</time></trkpt>
<trkpt lat="29.932295" lon="95.405002">
<time>2016-10-07T23:41:27Z</time></trkpt>
<trkpt lat="29.932425" lon="95.404541">
<time>2016-10-07T23:41:28Z</time></trkpt>
<trkpt lat="29.932585" lon="95.404041">
<time>2016-10-07T23:41:29Z</time></trkpt>
<trkpt lat="29.932725" lon="95.403561">
<time>2016-10-07T23:41:30Z</time></trkpt>
<trkpt lat="29.932825" lon="95.403251">
<time>2016-10-07T23:41:31Z</time></trkpt>
<trkpt lat="29.932855" lon="95.403121">
<time>2016-10-07T23:41:32Z</time></trkpt>
<trkpt lat="29.932925" lon="95.402901">
<time>2016-10-07T23:41:33Z</time></trkpt>
<trkpt lat="29.932955" lon="95.402791">
<time>2016-10-07T23:41:34Z</time></trkpt>
<trkpt lat="29.933005" lon="95.402691">
<time>2016-10-07T23:41:35Z</time></trkpt>
<trkpt lat="29.933035" lon="95.402621">
<time>2016-10-07T23:41:36Z</time></trkpt>
<trkpt lat="29.933085" lon="95.402541">
<time>2016-10-07T23:41:37Z</time></trkpt>
<trkpt lat="29.933125" lon="95.402481">
<time>2016-10-07T23:41:38Z</time></trkpt>
<trkpt lat="29.933195" lon="95.402411">
<time>2016-10-07T23:41:39Z</time></trkpt>
<trkpt lat="29.933245" lon="95.402371">
<time>2016-10-07T23:41:40Z</time></trkpt>
<trkpt lat="29.933305" lon="95.402331">
<time>2016-10-07T23:41:41Z</time></trkpt>
<trkpt lat="29.933375" lon="95.402291">
<time>2016-10-07T23:41:42Z</time></trkpt>
<trkpt lat="29.933425" lon="95.402281">
<time>2016-10-07T23:41:43Z</time></trkpt>
<trkpt lat="29.933505" lon="95.402251">
<time>2016-10-07T23:41:44Z</time></trkpt>
<trkpt lat="29.933555" lon="95.402241">
<time>2016-10-07T23:41:45Z</time></trkpt>
<trkpt lat="29.933605" lon="95.402221">
<time>2016-10-07T23:41:46Z</time></trkpt>
<trkpt lat="29.933655" lon="95.402221">
<time>2016-10-07T23:41:47Z</time></trkpt>
<trkpt lat="29.933715" lon="95.402201">
<time>2016-10-07T23:41:48Z</time></trkpt>
<trkpt lat="29.933765" lon="95.402191">
<time>2016-10-07T23:41:49Z</time></trkpt>
<trkpt lat="29.933825" lon="95.40217">
<time>2016-10-07T23:41:50Z</time></trkpt>
<trkpt lat="29.933885" lon="95.40216">
<time>2016-10-07T23:41:51Z</time></trkpt>
<trkpt lat="29.933955" lon="95.40215">
<time>2016-10-07T23:41:52Z</time></trkpt>
<trkpt lat="29.934035" lon="95.40213">
<time>2016-10-07T23:41:53Z</time></trkpt>
<trkpt lat="29.934115" lon="95.40211">
<time>2016-10-07T23:41:54Z</time></trkpt>
<trkpt lat="29.934195" lon="95.40209">
<time>2016-10-07T23:41:55Z</time></trkpt>
<trkpt lat="29.934255" lon="95.40207">
<time>2016-10-07T23:41:56Z</time></trkpt>
<trkpt lat="29.934315" lon="95.40205">
<time>2016-10-07T23:41:57Z</time></trkpt>
<trkpt lat="29.934405" lon="95.40202">
<time>2016-10-07T23:41:58Z</time></trkpt>
<trkpt lat="29.934475" lon="95.40199">
<time>2016-10-07T23:41:59Z</time></trkpt>
<trkpt lat="29.934564" lon="95.40196">
<time>2016-10-07T23:42:00Z</time></trkpt>
<trkpt lat="29.934664" lon="95.40192">
<time>2016-10-07T23:42:01Z</time></trkpt>
<trkpt lat="29.934734" lon="95.40189">
<time>2016-10-07T23:42:02Z</time></trkpt>
<trkpt lat="29.934814" lon="95.40186">
<time>2016-10-07T23:42:03Z</time></trkpt>
<trkpt lat="29.934884" lon="95.40183">
<time>2016-10-07T23:42:04Z</time></trkpt>
<trkpt lat="29.934974" lon="95.40179">
<time>2016-10-07T23:42:05Z</time></trkpt>
<trkpt lat="29.935064" lon="95.40174">
<time>2016-10-07T23:42:06Z</time></trkpt>
<trkpt lat="29.935154" lon="95.4017">
<time>2016-10-07T23:42:07Z</time></trkpt>
<trkpt lat="29.935244" lon="95.40166">
<time>2016-10-07T23:42:08Z</time></trkpt>
<trkpt lat="29.935334" lon="95.40162">
<time>2016-10-07T23:42:09Z</time></trkpt>
<trkpt lat="29.935424" lon="95.40158">
<time>2016-10-07T23:42:10Z</time></trkpt>
<trkpt lat="29.935494" lon="95.40154">
<time>2016-10-07T23:42:11Z</time></trkpt>
<trkpt lat="29.935584" lon="95.4015">
<time>2016-10-07T23:42:12Z</time></trkpt>
<trkpt lat="29.935664" lon="95.40147">
<time>2016-10-07T23:42:13Z</time></trkpt>
<trkpt lat="29.935744" lon="95.40144">
<time>2016-10-07T23:42:14Z</time></trkpt>
<trkpt lat="29.935844" lon="95.40139">
<time>2016-10-07T23:42:15Z</time></trkpt>
<trkpt lat="29.935954" lon="95.40134">
<time>2016-10-07T23:42:16Z</time></trkpt>
<trkpt lat="29.936074" lon="95.40128">
<time>2016-10-07T23:42:17Z</time></trkpt>
<trkpt lat="29.936194" lon="95.40124">
<time>2016-10-07T23:42:18Z</time></trkpt>
<trkpt lat="29.936494" lon="95.40111">
<time>2016-10-07T23:42:19Z</time></trkpt>
<trkpt lat="29.936774" lon="95.40098">
<time>2016-10-07T23:42:20Z</time></trkpt>
<trkpt lat="29.936904" lon="95.40092">
<time>2016-10-07T23:42:21Z</time></trkpt>
<trkpt lat="29.937014" lon="95.40085">
<time>2016-10-07T23:42:22Z</time></trkpt>
<trkpt lat="29.937094" lon="95.4008">
<time>2016-10-07T23:42:23Z</time></trkpt>
<trkpt lat="29.937184" lon="95.40072">
<time>2016-10-07T23:42:24Z</time></trkpt>
<trkpt lat="29.937274" lon="95.40063">
<time>2016-10-07T23:42:25Z</time></trkpt>
<trkpt lat="29.937354" lon="95.40055">
<time>2016-10-07T23:42:26Z</time></trkpt>
<trkpt lat="29.937404" lon="95.40048">
<time>2016-10-07T23:42:27Z</time></trkpt>
<trkpt lat="29.937454" lon="95.40042">
<time>2016-10-07T23:42:28Z</time></trkpt>
<trkpt lat="29.937494" lon="95.40037">
<time>2016-10-07T23:42:29Z</time></trkpt>
<trkpt lat="29.937524" lon="95.40031">
<time>2016-10-07T23:42:30Z</time></trkpt>
<trkpt lat="29.937574" lon="95.40023">
<time>2016-10-07T23:42:31Z</time></trkpt>
<trkpt lat="29.937614" lon="95.40015">
<time>2016-10-07T23:42:32Z</time></trkpt>
<trkpt lat="29.937644" lon="95.40009">
<time>2016-10-07T23:42:33Z</time></trkpt>
<trkpt lat="29.937694" lon="95.39997">
<time>2016-10-07T23:42:34Z</time></trkpt>
<trkpt lat="29.937724" lon="95.39988">
<time>2016-10-07T23:42:35Z</time></trkpt>
<trkpt lat="29.937765" lon="95.39979">
<time>2016-10-07T23:42:36Z</time></trkpt>
<trkpt lat="29.937785" lon="95.39971">
<time>2016-10-07T23:42:37Z</time></trkpt>
<trkpt lat="29.937825" lon="95.39962">
<time>2016-10-07T23:42:38Z</time></trkpt>
<trkpt lat="29.937885" lon="95.39944">
<time>2016-10-07T23:42:39Z</time></trkpt>
<trkpt lat="29.937955" lon="95.39926">
<time>2016-10-07T23:42:40Z</time></trkpt>
<trkpt lat="29.938025" lon="95.39906">
<time>2016-10-07T23:42:41Z</time></trkpt>
<trkpt lat="29.938115" lon="95.39884">
<time>2016-10-07T23:42:42Z</time></trkpt>
<trkpt lat="29.938185" lon="95.39862">
<time>2016-10-07T23:42:43Z</time></trkpt>
<trkpt lat="29.938285" lon="95.39835">
<time>2016-10-07T23:42:44Z</time></trkpt>
<trkpt lat="29.938395" lon="95.39806">
<time>2016-10-07T23:42:45Z</time></trkpt>
<trkpt lat="29.938445" lon="95.39792">
<time>2016-10-07T23:42:46Z</time></trkpt>
<trkpt lat="29.938535" lon="95.39769">
<time>2016-10-07T23:42:47Z</time></trkpt>
<trkpt lat="29.938625" lon="95.3975">
<time>2016-10-07T23:42:48Z</time></trkpt>
<trkpt lat="29.938695" lon="95.39737">
<time>2016-10-07T23:42:49Z</time></trkpt>
<trkpt lat="29.938875" lon="95.39715">
<time>2016-10-07T23:42:50Z</time></trkpt>
<trkpt lat="29.939145" lon="95.39682">
<time>2016-10-07T23:42:51Z</time></trkpt>
<trkpt lat="29.939365" lon="95.39657">
<time>2016-10-07T23:42:52Z</time></trkpt>
<trkpt lat="29.939535" lon="95.39632">
<time>2016-10-07T23:42:53Z</time></trkpt>
<trkpt lat="29.939645" lon="95.39613">
<time>2016-10-07T23:42:54Z</time></trkpt>
<trkpt lat="29.939745" lon="95.39596">
<time>2016-10-07T23:42:55Z</time></trkpt>
<trkpt lat="29.939795" lon="95.39584">
<time>2016-10-07T23:42:56Z</time></trkpt>
<trkpt lat="29.939855" lon="95.39571">
<time>2016-10-07T23:42:57Z</time></trkpt>
<trkpt lat="29.939905" lon="95.39558">
<time>2016-10-07T23:42:58Z</time></trkpt>
<trkpt lat="29.939945" lon="95.39539">
<time>2016-10-07T23:42:59Z</time></trkpt>
<trkpt lat="29.939975" lon="95.39523">
<time>2016-10-07T23:43:00Z</time></trkpt>
<trkpt lat="29.939985" lon="95.39515">
<time>2016-10-07T23:43:01Z</time></trkpt>
<trkpt lat="29.940015" lon="95.39493">
<time>2016-10-07T23:43:02Z</time></trkpt>
<trkpt lat="29.940025" lon="95.39478">
<time>2016-10-07T23:43:03Z</time></trkpt>
<trkpt lat="29.940035" lon="95.39464">
<time>2016-10-07T23:43:04Z</time></trkpt>
<trkpt lat="29.940085" lon="95.3945">
<time>2016-10-07T23:43:05Z</time></trkpt>
<trkpt lat="29.940115" lon="95.39441">
<time>2016-10-07T23:43:06Z</time></trkpt>
<trkpt lat="29.940205" lon="95.39424">
<time>2016-10-07T23:43:07Z</time></trkpt>
<trkpt lat="29.940316" lon="95.39407">
<time>2016-10-07T23:43:08Z</time></trkpt>
<trkpt lat="29.940496" lon="95.39378">
<time>2016-10-07T23:43:09Z</time></trkpt>
<trkpt lat="29.940586" lon="95.39364">
<time>2016-10-07T23:43:10Z</time></trkpt>
<trkpt lat="29.940686" lon="95.39349">
<time>2016-10-07T23:43:11Z</time></trkpt>
<trkpt lat="29.940736" lon="95.39337">
<time>2016-10-07T23:43:12Z</time></trkpt>
<trkpt lat="29.940786" lon="95.39327">
<time>2016-10-07T23:43:13Z</time></trkpt>
<trkpt lat="29.940826" lon="95.39313">
<time>2016-10-07T23:43:14Z</time></trkpt>
<trkpt lat="29.940876" lon="95.39288">
<time>2016-10-07T23:43:15Z</time></trkpt>
<trkpt lat="29.940926" lon="95.39262">
<time>2016-10-07T23:43:16Z</time></trkpt>
<trkpt lat="29.940986" lon="95.39235">
<time>2016-10-07T23:43:17Z</time></trkpt>
<trkpt lat="29.941096" lon="95.39205">
<time>2016-10-07T23:43:18Z</time></trkpt>
<trkpt lat="29.941306" lon="95.39153">
<time>2016-10-07T23:43:19Z</time></trkpt>
<trkpt lat="29.941417" lon="95.39126">
<time>2016-10-07T23:43:20Z</time></trkpt>
<trkpt lat="29.941577" lon="95.39093">
<time>2016-10-07T23:43:21Z</time></trkpt>
<trkpt lat="29.941667" lon="95.39075">
<time>2016-10-07T23:43:22Z</time></trkpt>
<trkpt lat="29.941817" lon="95.3905">
<time>2016-10-07T23:43:23Z</time></trkpt>
<trkpt lat="29.942017" lon="95.390181">
<time>2016-10-07T23:43:24Z</time></trkpt>
<trkpt lat="29.942357" lon="95.389491">
<time>2016-10-07T23:43:25Z</time></trkpt>
<trkpt lat="29.942638" lon="95.388931">
<time>2016-10-07T23:43:26Z</time></trkpt>
<trkpt lat="29.942888" lon="95.388441">
<time>2016-10-07T23:43:27Z</time></trkpt>
<trkpt lat="29.943068" lon="95.388071">
<time>2016-10-07T23:43:28Z</time></trkpt>
<trkpt lat="29.943188" lon="95.387851">
<time>2016-10-07T23:43:29Z</time></trkpt>
<trkpt lat="29.943328" lon="95.387581">
<time>2016-10-07T23:43:30Z</time></trkpt>
<trkpt lat="29.943428" lon="95.387442">
<time>2016-10-07T23:43:31Z</time></trkpt>
<trkpt lat="29.943509" lon="95.387342">
<time>2016-10-07T23:43:32Z</time></trkpt>
<trkpt lat="29.943559" lon="95.387292">
<time>2016-10-07T23:43:33Z</time></trkpt>
<trkpt lat="29.943639" lon="95.387242">
<time>2016-10-07T23:43:34Z</time></trkpt>
<trkpt lat="29.943719" lon="95.387202">
<time>2016-10-07T23:43:35Z</time></trkpt>
<trkpt lat="29.943879" lon="95.387132">
<time>2016-10-07T23:43:36Z</time></trkpt>
<trkpt lat="29.944099" lon="95.387022">
<time>2016-10-07T23:43:37Z</time></trkpt>
<trkpt lat="29.944309" lon="95.386902">
<time>2016-10-07T23:43:38Z</time></trkpt>
<trkpt lat="29.944499" lon="95.386802">
<time>2016-10-07T23:43:39Z</time></trkpt>
<trkpt lat="29.944649" lon="95.386752">
<time>2016-10-07T23:43:40Z</time></trkpt>
<trkpt lat="29.944719" lon="95.386742">
<time>2016-10-07T23:43:41Z</time></trkpt>
<trkpt lat="29.944789" lon="95.386742">
<time>2016-10-07T23:43:42Z</time></trkpt>
<trkpt lat="29.944869" lon="95.386752">
<time>2016-10-07T23:43:43Z</time></trkpt>
<trkpt lat="29.944989" lon="95.386762">
<time>2016-10-07T23:43:44Z</time></trkpt>
<trkpt lat="29.945079" lon="95.386772">
<time>2016-10-07T23:43:45Z</time></trkpt>
<trkpt lat="29.945189" lon="95.386782">
<time>2016-10-07T23:43:46Z</time></trkpt>
<trkpt lat="29.945299" lon="95.386782">
<time>2016-10-07T23:43:47Z</time></trkpt>
<trkpt lat="29.945439" lon="95.386782">
<time>2016-10-07T23:43:48Z</time></trkpt>
<trkpt lat="29.945519" lon="95.386772">
<time>2016-10-07T23:43:49Z</time></trkpt>
<trkpt lat="29.945709" lon="95.386752">
<time>2016-10-07T23:43:50Z</time></trkpt>
<trkpt lat="29.945869" lon="95.386712">
<time>2016-10-07T23:43:51Z</time></trkpt>
<trkpt lat="29.946189" lon="95.386642">
<time>2016-10-07T23:43:52Z</time></trkpt>
<trkpt lat="29.946509" lon="95.386582">
<time>2016-10-07T23:43:53Z</time></trkpt>
<trkpt lat="29.946809" lon="95.386512">
<time>2016-10-07T23:43:54Z</time></trkpt>
<trkpt lat="29.947019" lon="95.386452">
<time>2016-10-07T23:43:55Z</time></trkpt>
<trkpt lat="29.947199" lon="95.386392">
<time>2016-10-07T23:43:56Z</time></trkpt>
<trkpt lat="29.947329" lon="95.386342">
<time>2016-10-07T23:43:57Z</time></trkpt>
<trkpt lat="29.947599" lon="95.386242">
<time>2016-10-07T23:43:58Z</time></trkpt>
<trkpt lat="29.947769" lon="95.386172">
<time>2016-10-07T23:43:59Z</time></trkpt>
<trkpt lat="29.947869" lon="95.386132">
<time>2016-10-07T23:44:00Z</time></trkpt>
<trkpt lat="29.947929" lon="95.386102">
<time>2016-10-07T23:44:01Z</time></trkpt>
<trkpt lat="29.948029" lon="95.386082">
<time>2016-10-07T23:44:02Z</time></trkpt>
<trkpt lat="29.948119" lon="95.386072">
<time>2016-10-07T23:44:03Z</time></trkpt>
<trkpt lat="29.948209" lon="95.386072">
<time>2016-10-07T23:44:04Z</time></trkpt>
<trkpt lat="29.948269" lon="95.386082">
<time>2016-10-07T23:44:05Z</time></trkpt>
<trkpt lat="29.948349" lon="95.386102">
<time>2016-10-07T23:44:06Z</time></trkpt>
<trkpt lat="29.948429" lon="95.386122">
<time>2016-10-07T23:44:07Z</time></trkpt>
<trkpt lat="29.948579" lon="95.386152">
<time>2016-10-07T23:44:08Z</time></trkpt>
<trkpt lat="29.948689" lon="95.386182">
<time>2016-10-07T23:44:09Z</time></trkpt>
<trkpt lat="29.948859" lon="95.386192">
<time>2016-10-07T23:44:10Z</time></trkpt>
<trkpt lat="29.949029" lon="95.386172">
<time>2016-10-07T23:44:11Z</time></trkpt>
<trkpt lat="29.949139" lon="95.386142">
<time>2016-10-07T23:44:12Z</time></trkpt>
<trkpt lat="29.949239" lon="95.386122">
<time>2016-10-07T23:44:13Z</time></trkpt>
<trkpt lat="29.949339" lon="95.386092">
<time>2016-10-07T23:44:14Z</time></trkpt>
<trkpt lat="29.949629" lon="95.386042">
<time>2016-10-07T23:44:15Z</time></trkpt>
<trkpt lat="29.949779" lon="95.386012">
<time>2016-10-07T23:44:16Z</time></trkpt>
<trkpt lat="29.949899" lon="95.385962">
<time>2016-10-07T23:44:17Z</time></trkpt>
<trkpt lat="29.950049" lon="95.385882">
<time>2016-10-07T23:44:18Z</time></trkpt>
<trkpt lat="29.950199" lon="95.385782">
<time>2016-10-07T23:44:19Z</time></trkpt>
<trkpt lat="29.95037" lon="95.385682">
<time>2016-10-07T23:44:20Z</time></trkpt>
<trkpt lat="29.95047" lon="95.385642">
<time>2016-10-07T23:44:21Z</time></trkpt>
<trkpt lat="29.9507" lon="95.385592">
<time>2016-10-07T23:44:22Z</time></trkpt>
<trkpt lat="29.95083" lon="95.385572">
<time>2016-10-07T23:44:23Z</time></trkpt>
<trkpt lat="29.95105" lon="95.385522">
<time>2016-10-07T23:44:24Z</time></trkpt>
<trkpt lat="29.95124" lon="95.385492">
<time>2016-10-07T23:44:25Z</time></trkpt>
<trkpt lat="29.95156" lon="95.385422">
<time>2016-10-07T23:44:26Z</time></trkpt>
<trkpt lat="29.95183" lon="95.385372">
<time>2016-10-07T23:44:27Z</time></trkpt>
<trkpt lat="29.95194" lon="95.385352">
<time>2016-10-07T23:44:28Z</time></trkpt>
<trkpt lat="29.9521" lon="95.385312">
<time>2016-10-07T23:44:29Z</time></trkpt>
<trkpt lat="29.95229" lon="95.385282">
<time>2016-10-07T23:44:30Z</time></trkpt>
<trkpt lat="29.95246" lon="95.385242">
<time>2016-10-07T23:44:31Z</time></trkpt>
<trkpt lat="29.95256" lon="95.385232">
<time>2016-10-07T23:44:32Z</time></trkpt>
<trkpt lat="29.95272" lon="95.385222">
<time>2016-10-07T23:44:33Z</time></trkpt>
<trkpt lat="29.95282" lon="95.385232">
<time>2016-10-07T23:44:34Z</time></trkpt>
<trkpt lat="29.95288" lon="95.385222">
<time>2016-10-07T23:44:35Z</time></trkpt>
<trkpt lat="29.95295" lon="95.385222">
<time>2016-10-07T23:44:36Z</time></trkpt>
<trkpt lat="29.95307" lon="95.385212">
<time>2016-10-07T23:44:37Z</time></trkpt>
<trkpt lat="29.95316" lon="95.385212">
<time>2016-10-07T23:44:38Z</time></trkpt>
<trkpt lat="29.95328" lon="95.385182">
<time>2016-10-07T23:44:39Z</time></trkpt>
<trkpt lat="29.95336" lon="95.385152">
<time>2016-10-07T23:44:40Z</time></trkpt>
<trkpt lat="29.95348" lon="95.385102">
<time>2016-10-07T23:44:41Z</time></trkpt>
<trkpt lat="29.95362" lon="95.385032">
<time>2016-10-07T23:44:42Z</time></trkpt>
<trkpt lat="29.95372" lon="95.384973">
<time>2016-10-07T23:44:43Z</time></trkpt>
<trkpt lat="29.95379" lon="95.384913">
<time>2016-10-07T23:44:44Z</time></trkpt>
<trkpt lat="29.95387" lon="95.384833">
<time>2016-10-07T23:44:45Z</time></trkpt>
<trkpt lat="29.95393" lon="95.384733">
<time>2016-10-07T23:44:46Z</time></trkpt>
<trkpt lat="29.95401" lon="95.384633">
<time>2016-10-07T23:44:47Z</time></trkpt>
<trkpt lat="29.95412" lon="95.384483">
<time>2016-10-07T23:44:48Z</time></trkpt>
<trkpt lat="29.95421" lon="95.384403">
<time>2016-10-07T23:44:49Z</time></trkpt>
<trkpt lat="29.95429" lon="95.384353">
<time>2016-10-07T23:44:50Z</time></trkpt>
<trkpt lat="29.95441" lon="95.384293">
<time>2016-10-07T23:44:51Z</time></trkpt>
<trkpt lat="29.95451" lon="95.384243">
<time>2016-10-07T23:44:52Z</time></trkpt>
<trkpt lat="29.954611" lon="95.384183">
<time>2016-10-07T23:44:53Z</time></trkpt>
<trkpt lat="29.954691" lon="95.384123">
<time>2016-10-07T23:44:54Z</time></trkpt>
<trkpt lat="29.954741" lon="95.384083">
<time>2016-10-07T23:44:55Z</time></trkpt>
<trkpt lat="29.954781" lon="95.384023">
<time>2016-10-07T23:44:56Z</time></trkpt>
<trkpt lat="29.954821" lon="95.383943">
<time>2016-10-07T23:44:57Z</time></trkpt>
<trkpt lat="29.954841" lon="95.383853">
<time>2016-10-07T23:44:58Z</time></trkpt>
<trkpt lat="29.954841" lon="95.383763">
<time>2016-10-07T23:44:59Z</time></trkpt>
<trkpt lat="29.954851" lon="95.383643">
<time>2016-10-07T23:45:00Z</time></trkpt>
<trkpt lat="29.954861" lon="95.383553">
<time>2016-10-07T23:45:01Z</time></trkpt>
<trkpt lat="29.954891" lon="95.383473">
<time>2016-10-07T23:45:02Z</time></trkpt>
<trkpt lat="29.954941" lon="95.383403">
<time>2016-10-07T23:45:03Z</time></trkpt>
<trkpt lat="29.954991" lon="95.383343">
<time>2016-10-07T23:45:04Z</time></trkpt>
<trkpt lat="29.955061" lon="95.383274">
<time>2016-10-07T23:45:05Z</time></trkpt>
<trkpt lat="29.955131" lon="95.383214">
<time>2016-10-07T23:45:06Z</time></trkpt>
<trkpt lat="29.955221" lon="95.383154">
<time>2016-10-07T23:45:07Z</time></trkpt>
<trkpt lat="29.955321" lon="95.383094">
<time>2016-10-07T23:45:08Z</time></trkpt>
<trkpt lat="29.955401" lon="95.383054">
<time>2016-10-07T23:45:09Z</time></trkpt>
<trkpt lat="29.955501" lon="95.383014">
<time>2016-10-07T23:45:10Z</time></trkpt>
<trkpt lat="29.955611" lon="95.382974">
<time>2016-10-07T23:45:11Z</time></trkpt>
<trkpt lat="29.955711" lon="95.382924">
<time>2016-10-07T23:45:12Z</time></trkpt>
<trkpt lat="29.955831" lon="95.382874">
<time>2016-10-07T23:45:13Z</time></trkpt>
<trkpt lat="29.955932" lon="95.382834">
<time>2016-10-07T23:45:14Z</time></trkpt>
<trkpt lat="29.956072" lon="95.382724">
<time>2016-10-07T23:45:15Z</time></trkpt>
<trkpt lat="29.956122" lon="95.382674">
<time>2016-10-07T23:45:16Z</time></trkpt>
<trkpt lat="29.956192" lon="95.382594">
<time>2016-10-07T23:45:17Z</time></trkpt>
<trkpt lat="29.956242" lon="95.382514">
<time>2016-10-07T23:45:18Z</time></trkpt>
<trkpt lat="29.956282" lon="95.382424">
<time>2016-10-07T23:45:19Z</time></trkpt>
<trkpt lat="29.956312" lon="95.382334">
<time>2016-10-07T23:45:20Z</time></trkpt>
<trkpt lat="29.956342" lon="95.382254">
<time>2016-10-07T23:45:21Z</time></trkpt>
<trkpt lat="29.956392" lon="95.382114">
<time>2016-10-07T23:45:22Z</time></trkpt>
<trkpt lat="29.956452" lon="95.381944">
<time>2016-10-07T23:45:23Z</time></trkpt>
<trkpt lat="29.956512" lon="95.381784">
<time>2016-10-07T23:45:24Z</time></trkpt>
<trkpt lat="29.956552" lon="95.381675">
<time>2016-10-07T23:45:25Z</time></trkpt>
<trkpt lat="29.956593" lon="95.381565">
<time>2016-10-07T23:45:26Z</time></trkpt>
<trkpt lat="29.956643" lon="95.381475">
<time>2016-10-07T23:45:27Z</time></trkpt>
<trkpt lat="29.956743" lon="95.381275">
<time>2016-10-07T23:45:28Z</time></trkpt>
<trkpt lat="29.956813" lon="95.381155">
<time>2016-10-07T23:45:29Z</time></trkpt>
<trkpt lat="29.956923" lon="95.380995">
<time>2016-10-07T23:45:30Z</time></trkpt>
<trkpt lat="29.957013" lon="95.380875">
<time>2016-10-07T23:45:31Z</time></trkpt>
<trkpt lat="29.957163" lon="95.380735">
<time>2016-10-07T23:45:32Z</time></trkpt>
<trkpt lat="29.957313" lon="95.380605">
<time>2016-10-07T23:45:33Z</time></trkpt>
<trkpt lat="29.957413" lon="95.380515">
<time>2016-10-07T23:45:34Z</time></trkpt>
<trkpt lat="29.957513" lon="95.380415">
<time>2016-10-07T23:45:35Z</time></trkpt>
<trkpt lat="29.957564" lon="95.380356">
<time>2016-10-07T23:45:36Z</time></trkpt>
<trkpt lat="29.957614" lon="95.380266">
<time>2016-10-07T23:45:37Z</time></trkpt>
<trkpt lat="29.957654" lon="95.380186">
<time>2016-10-07T23:45:38Z</time></trkpt>
<trkpt lat="29.957684" lon="95.380116">
<time>2016-10-07T23:45:39Z</time></trkpt>
<trkpt lat="29.957724" lon="95.380036">
<time>2016-10-07T23:45:40Z</time></trkpt>
<trkpt lat="29.957764" lon="95.379896">
<time>2016-10-07T23:45:41Z</time></trkpt>
<trkpt lat="29.957804" lon="95.379806">
<time>2016-10-07T23:45:42Z</time></trkpt>
<trkpt lat="29.957834" lon="95.379716">
<time>2016-10-07T23:45:43Z</time></trkpt>
<trkpt lat="29.957904" lon="95.379496">
<time>2016-10-07T23:45:44Z</time></trkpt>
<trkpt lat="29.957954" lon="95.379346">
<time>2016-10-07T23:45:45Z</time></trkpt>
<trkpt lat="29.957984" lon="95.379266">
<time>2016-10-07T23:45:46Z</time></trkpt>
<trkpt lat="29.958055" lon="95.379077">
<time>2016-10-07T23:45:47Z</time></trkpt>
<trkpt lat="29.958095" lon="95.378937">
<time>2016-10-07T23:45:48Z</time></trkpt>
<trkpt lat="29.958135" lon="95.378827">
<time>2016-10-07T23:45:49Z</time></trkpt>
<trkpt lat="29.958185" lon="95.378687">
<time>2016-10-07T23:45:50Z</time></trkpt>
<trkpt lat="29.958225" lon="95.378587">
<time>2016-10-07T23:45:51Z</time></trkpt>
<trkpt lat="29.958275" lon="95.378437">
<time>2016-10-07T23:45:52Z</time></trkpt>
<trkpt lat="29.958315" lon="95.378327">
<time>2016-10-07T23:45:53Z</time></trkpt>
<trkpt lat="29.958345" lon="95.378217">
<time>2016-10-07T23:45:54Z</time></trkpt>
<trkpt lat="29.958376" lon="95.378117">
<time>2016-10-07T23:45:55Z</time></trkpt>
<trkpt lat="29.958406" lon="95.377987">
<time>2016-10-07T23:45:56Z</time></trkpt>
<trkpt lat="29.958436" lon="95.377838">
<time>2016-10-07T23:45:57Z</time></trkpt>
<trkpt lat="29.958456" lon="95.377658">
<time>2016-10-07T23:45:58Z</time></trkpt>
<trkpt lat="29.958466" lon="95.377588">
<time>2016-10-07T23:45:59Z</time></trkpt>
<trkpt lat="29.958476" lon="95.377488">
<time>2016-10-07T23:46:00Z</time></trkpt>
<trkpt lat="29.958486" lon="95.377388">
<time>2016-10-07T23:46:01Z</time></trkpt>
<trkpt lat="29.958486" lon="95.377328">
<time>2016-10-07T23:46:02Z</time></trkpt>
<trkpt lat="29.958486" lon="95.377248">
<time>2016-10-07T23:46:03Z</time></trkpt>
<trkpt lat="29.958486" lon="95.377118">
<time>2016-10-07T23:46:04Z</time></trkpt>
<trkpt lat="29.958497" lon="95.377028">
<time>2016-10-07T23:46:05Z</time></trkpt>
<trkpt lat="29.958507" lon="95.376938">
<time>2016-10-07T23:46:06Z</time></trkpt>
<trkpt lat="29.958517" lon="95.376858">
<time>2016-10-07T23:46:07Z</time></trkpt>
<trkpt lat="29.958547" lon="95.376719">
<time>2016-10-07T23:46:08Z</time></trkpt>
<trkpt lat="29.958567" lon="95.376569">
<time>2016-10-07T23:46:09Z</time></trkpt>
<trkpt lat="29.958617" lon="95.376369">
<time>2016-10-07T23:46:10Z</time></trkpt>
<trkpt lat="29.958647" lon="95.376269">
<time>2016-10-07T23:46:11Z</time></trkpt>
<trkpt lat="29.958687" lon="95.376179">
<time>2016-10-07T23:46:12Z</time></trkpt>
<trkpt lat="29.958818" lon="95.375939">
<time>2016-10-07T23:46:13Z</time></trkpt>
<trkpt lat="29.958918" lon="95.37574">
<time>2016-10-07T23:46:14Z</time></trkpt>
<trkpt lat="29.958988" lon="95.37558">
<time>2016-10-07T23:46:15Z</time></trkpt>
<trkpt lat="29.959028" lon="95.37546">
<time>2016-10-07T23:46:16Z</time></trkpt>
<trkpt lat="29.959099" lon="95.37505">
<time>2016-10-07T23:46:17Z</time></trkpt>
<trkpt lat="29.959119" lon="95.37493">
<time>2016-10-07T23:46:18Z</time></trkpt>
<trkpt lat="29.959149" lon="95.37477">
<time>2016-10-07T23:46:19Z</time></trkpt>
<trkpt lat="29.959179" lon="95.374591">
<time>2016-10-07T23:46:20Z</time></trkpt>
<trkpt lat="29.959229" lon="95.374391">
<time>2016-10-07T23:46:21Z</time></trkpt>
<trkpt lat="29.959269" lon="95.374211">
<time>2016-10-07T23:46:22Z</time></trkpt>
<trkpt lat="29.95931" lon="95.374111">
<time>2016-10-07T23:46:23Z</time></trkpt>
<trkpt lat="29.95935" lon="95.373941">
<time>2016-10-07T23:46:24Z</time></trkpt>
<trkpt lat="29.9594" lon="95.373771">
<time>2016-10-07T23:46:25Z</time></trkpt>
<trkpt lat="29.95942" lon="95.373662">
<time>2016-10-07T23:46:26Z</time></trkpt>
<trkpt lat="29.95945" lon="95.373562">
<time>2016-10-07T23:46:27Z</time></trkpt>
<trkpt lat="29.95949" lon="95.373352">
<time>2016-10-07T23:46:28Z</time></trkpt>
<trkpt lat="29.959541" lon="95.372962">
<time>2016-10-07T23:46:29Z</time></trkpt>
<trkpt lat="29.959561" lon="95.372812">
<time>2016-10-07T23:46:30Z</time></trkpt>
<trkpt lat="29.959581" lon="95.372503">
<time>2016-10-07T23:46:31Z</time></trkpt>
<trkpt lat="29.959612" lon="95.372183">
<time>2016-10-07T23:46:32Z</time></trkpt>
<trkpt lat="29.959622" lon="95.372013">
<time>2016-10-07T23:46:33Z</time></trkpt>
<trkpt lat="29.959632" lon="95.371903">
<time>2016-10-07T23:46:34Z</time></trkpt>
<trkpt lat="29.959642" lon="95.371834">
<time>2016-10-07T23:46:35Z</time></trkpt>
<trkpt lat="29.959652" lon="95.371764">
<time>2016-10-07T23:46:36Z</time></trkpt>
<trkpt lat="29.959682" lon="95.371674">
<time>2016-10-07T23:46:37Z</time></trkpt>
<trkpt lat="29.959712" lon="95.371584">
<time>2016-10-07T23:46:38Z</time></trkpt>
<trkpt lat="29.959762" lon="95.371504">
<time>2016-10-07T23:46:39Z</time></trkpt>
<trkpt lat="29.959823" lon="95.371424">
<time>2016-10-07T23:46:40Z</time></trkpt>
<trkpt lat="29.959903" lon="95.371334">
<time>2016-10-07T23:46:41Z</time></trkpt>
<trkpt lat="29.959983" lon="95.371264">
<time>2016-10-07T23:46:42Z</time></trkpt>
<trkpt lat="29.960073" lon="95.371174">
<time>2016-10-07T23:46:43Z</time></trkpt>
<trkpt lat="29.960163" lon="95.371074">
<time>2016-10-07T23:46:44Z</time></trkpt>
<trkpt lat="29.960273" lon="95.370975">
<time>2016-10-07T23:46:45Z</time></trkpt>
<trkpt lat="29.960413" lon="95.370835">
<time>2016-10-07T23:46:46Z</time></trkpt>
<trkpt lat="29.960503" lon="95.370735">
<time>2016-10-07T23:46:47Z</time></trkpt>
<trkpt lat="29.960553" lon="95.370675">
<time>2016-10-07T23:46:48Z</time></trkpt>
<trkpt lat="29.960624" lon="95.370605">
<time>2016-10-07T23:46:49Z</time></trkpt>
<trkpt lat="29.960684" lon="95.370535">
<time>2016-10-07T23:46:50Z</time></trkpt>
<trkpt lat="29.960744" lon="95.370455">
<time>2016-10-07T23:46:51Z</time></trkpt>
<trkpt lat="29.960864" lon="95.370285">
<time>2016-10-07T23:46:52Z</time></trkpt>
<trkpt lat="29.960934" lon="95.370165">
<time>2016-10-07T23:46:53Z</time></trkpt>
<trkpt lat="29.961034" lon="95.369986">
<time>2016-10-07T23:46:54Z</time></trkpt>
<trkpt lat="29.961205" lon="95.369686">
<time>2016-10-07T23:46:55Z</time></trkpt>
<trkpt lat="29.961335" lon="95.369446">
<time>2016-10-07T23:46:56Z</time></trkpt>
<trkpt lat="29.961455" lon="95.369247">
<time>2016-10-07T23:46:57Z</time></trkpt>
<trkpt lat="29.961605" lon="95.368977">
<time>2016-10-07T23:46:58Z</time></trkpt>
<trkpt lat="29.961866" lon="95.368517">
<time>2016-10-07T23:46:59Z</time></trkpt>
<trkpt lat="29.961946" lon="95.368358">
<time>2016-10-07T23:47:00Z</time></trkpt>
<trkpt lat="29.962006" lon="95.368218">
<time>2016-10-07T23:47:01Z</time></trkpt>
<trkpt lat="29.962077" lon="95.368048">
<time>2016-10-07T23:47:02Z</time></trkpt>
<trkpt lat="29.962147" lon="95.367818">
<time>2016-10-07T23:47:03Z</time></trkpt>
<trkpt lat="29.962197" lon="95.367629">
<time>2016-10-07T23:47:04Z</time></trkpt>
<trkpt lat="29.962257" lon="95.367449">
<time>2016-10-07T23:47:05Z</time></trkpt>
<trkpt lat="29.962288" lon="95.367359">
<time>2016-10-07T23:47:06Z</time></trkpt>
<trkpt lat="29.962348" lon="95.367229">
<time>2016-10-07T23:47:07Z</time></trkpt>
<trkpt lat="29.962438" lon="95.367059">
<time>2016-10-07T23:47:08Z</time></trkpt>
<trkpt lat="29.962488" lon="95.366959">
<time>2016-10-07T23:47:09Z</time></trkpt>
<trkpt lat="29.962508" lon="95.36689">
<time>2016-10-07T23:47:10Z</time></trkpt>
<trkpt lat="29.962528" lon="95.3668">
<time>2016-10-07T23:47:11Z</time></trkpt>
<trkpt lat="29.962528" lon="95.36673">
<time>2016-10-07T23:47:12Z</time></trkpt>
<trkpt lat="29.962529" lon="95.36658">
<time>2016-10-07T23:47:13Z</time></trkpt>
<trkpt lat="29.962489" lon="95.36637">
<time>2016-10-07T23:47:14Z</time></trkpt>
<trkpt lat="29.962459" lon="95.36621">
<time>2016-10-07T23:47:15Z</time></trkpt>
<trkpt lat="29.962449" lon="95.366131">
<time>2016-10-07T23:47:16Z</time></trkpt>
<trkpt lat="29.962459" lon="95.366031">
<time>2016-10-07T23:47:17Z</time></trkpt>
<trkpt lat="29.962469" lon="95.365931">
<time>2016-10-07T23:47:18Z</time></trkpt>
<trkpt lat="29.96251" lon="95.365791">
<time>2016-10-07T23:47:19Z</time></trkpt>
<trkpt lat="29.96254" lon="95.365701">
<time>2016-10-07T23:47:20Z</time></trkpt>
<trkpt lat="29.96262" lon="95.365491">
<time>2016-10-07T23:47:21Z</time></trkpt>
<trkpt lat="29.96268" lon="95.365292">
<time>2016-10-07T23:47:22Z</time></trkpt>
<trkpt lat="29.962841" lon="95.364832">
<time>2016-10-07T23:47:23Z</time></trkpt>
<trkpt lat="29.963042" lon="95.364253">
<time>2016-10-07T23:47:24Z</time></trkpt>
<trkpt lat="29.963212" lon="95.363804">
<time>2016-10-07T23:47:25Z</time></trkpt>
<trkpt lat="29.963393" lon="95.363374">
<time>2016-10-07T23:47:26Z</time></trkpt>
<trkpt lat="29.963513" lon="95.363075">
<time>2016-10-07T23:47:27Z</time></trkpt>
<trkpt lat="29.963634" lon="95.362785">
<time>2016-10-07T23:47:28Z</time></trkpt>
<trkpt lat="29.963704" lon="95.362625">
<time>2016-10-07T23:47:29Z</time></trkpt>
<trkpt lat="29.963744" lon="95.362536">
<time>2016-10-07T23:47:30Z</time></trkpt>
<trkpt lat="29.963764" lon="95.362476">
<time>2016-10-07T23:47:31Z</time></trkpt>
<trkpt lat="29.963804" lon="95.362386">
<time>2016-10-07T23:47:32Z</time></trkpt>
<trkpt lat="29.963834" lon="95.362316">
<time>2016-10-07T23:47:33Z</time></trkpt>
<trkpt lat="29.963885" lon="95.362246">
<time>2016-10-07T23:47:34Z</time></trkpt>
<trkpt lat="29.963935" lon="95.362176">
<time>2016-10-07T23:47:35Z</time></trkpt>
<trkpt lat="29.964005" lon="95.362116">
<time>2016-10-07T23:47:36Z</time></trkpt>
<trkpt lat="29.964065" lon="95.362086">
<time>2016-10-07T23:47:37Z</time></trkpt>
<trkpt lat="29.964115" lon="95.362066">
<time>2016-10-07T23:47:38Z</time></trkpt>
<trkpt lat="29.964175" lon="95.362056">
<time>2016-10-07T23:47:39Z</time></trkpt>
<trkpt lat="29.964235" lon="95.362046">
<time>2016-10-07T23:47:40Z</time></trkpt>
<trkpt lat="29.964295" lon="95.362046">
<time>2016-10-07T23:47:41Z</time></trkpt>
<trkpt lat="29.964345" lon="95.362056">
<time>2016-10-07T23:47:42Z</time></trkpt>
<trkpt lat="29.964405" lon="95.362076">
<time>2016-10-07T23:47:43Z</time></trkpt>
<trkpt lat="29.964465" lon="95.362106">
<time>2016-10-07T23:47:44Z</time></trkpt>
<trkpt lat="29.964515" lon="95.362136">
<time>2016-10-07T23:47:45Z</time></trkpt>
<trkpt lat="29.964575" lon="95.362196">
<time>2016-10-07T23:47:46Z</time></trkpt>
<trkpt lat="29.964615" lon="95.362246">
<time>2016-10-07T23:47:47Z</time></trkpt>
<trkpt lat="29.964664" lon="95.362326">
<time>2016-10-07T23:47:48Z</time></trkpt>
<trkpt lat="29.964714" lon="95.362426">
<time>2016-10-07T23:47:49Z</time></trkpt>
<trkpt lat="29.964754" lon="95.362545">
<time>2016-10-07T23:47:50Z</time></trkpt>
<trkpt lat="29.964814" lon="95.362675">
<time>2016-10-07T23:47:51Z</time></trkpt>
<trkpt lat="29.964874" lon="95.362845">
<time>2016-10-07T23:47:52Z</time></trkpt>
<trkpt lat="29.964963" lon="95.363025">
<time>2016-10-07T23:47:53Z</time></trkpt>
<trkpt lat="29.965003" lon="95.363095">
<time>2016-10-07T23:47:54Z</time></trkpt>
<trkpt lat="29.965123" lon="95.363254">
<time>2016-10-07T23:47:55Z</time></trkpt>
<trkpt lat="29.965433" lon="95.363594">
<time>2016-10-07T23:47:56Z</time></trkpt>
<trkpt lat="29.965702" lon="95.363874">
<time>2016-10-07T23:47:57Z</time></trkpt>
<trkpt lat="29.965872" lon="95.364033">
<time>2016-10-07T23:47:58Z</time></trkpt>
<trkpt lat="29.965952" lon="95.364093">
<time>2016-10-07T23:47:59Z</time></trkpt>
<trkpt lat="29.966002" lon="95.364123">
<time>2016-10-07T23:48:00Z</time></trkpt>
<trkpt lat="29.966052" lon="95.364153">
<time>2016-10-07T23:48:01Z</time></trkpt>
<trkpt lat="29.966172" lon="95.364183">
<time>2016-10-07T23:48:02Z</time></trkpt>
<trkpt lat="29.966252" lon="95.364193">
<time>2016-10-07T23:48:03Z</time></trkpt>
<trkpt lat="29.966332" lon="95.364203">
<time>2016-10-07T23:48:04Z</time></trkpt>
<trkpt lat="29.966422" lon="95.364203">
<time>2016-10-07T23:48:05Z</time></trkpt>
<trkpt lat="29.966492" lon="95.364203">
<time>2016-10-07T23:48:06Z</time></trkpt>
<trkpt lat="29.966572" lon="95.364183">
<time>2016-10-07T23:48:07Z</time></trkpt>
<trkpt lat="29.966632" lon="95.364153">
<time>2016-10-07T23:48:08Z</time></trkpt>
<trkpt lat="29.966712" lon="95.364103">
<time>2016-10-07T23:48:09Z</time></trkpt>
<trkpt lat="29.966802" lon="95.364023">
<time>2016-10-07T23:48:10Z</time></trkpt>
<trkpt lat="29.966872" lon="95.363963">
<time>2016-10-07T23:48:11Z</time></trkpt>
<trkpt lat="29.966922" lon="95.363903">
<time>2016-10-07T23:48:12Z</time></trkpt>
<trkpt lat="29.966982" lon="95.363844">
<time>2016-10-07T23:48:13Z</time></trkpt>
<trkpt lat="29.967072" lon="95.363754">
<time>2016-10-07T23:48:14Z</time></trkpt>
<trkpt lat="29.967143" lon="95.363664">
<time>2016-10-07T23:48:15Z</time></trkpt>
<trkpt lat="29.967273" lon="95.363544">
<time>2016-10-07T23:48:16Z</time></trkpt>
<trkpt lat="29.967383" lon="95.363474">
<time>2016-10-07T23:48:17Z</time></trkpt>
<trkpt lat="29.967493" lon="95.363424">
<time>2016-10-07T23:48:18Z</time></trkpt>
<trkpt lat="29.967543" lon="95.363404">
<time>2016-10-07T23:48:19Z</time></trkpt>
<trkpt lat="29.967613" lon="95.363384">
<time>2016-10-07T23:48:20Z</time></trkpt>
<trkpt lat="29.967693" lon="95.363384">
<time>2016-10-07T23:48:21Z</time></trkpt>
<trkpt lat="29.967783" lon="95.363384">
<time>2016-10-07T23:48:22Z</time></trkpt>
<trkpt lat="29.967893" lon="95.363404">
<time>2016-10-07T23:48:23Z</time></trkpt>
<trkpt lat="29.968103" lon="95.363464">
<time>2016-10-07T23:48:24Z</time></trkpt>
<trkpt lat="29.968133" lon="95.363474">
<time>2016-10-07T23:48:25Z</time></trkpt>
<trkpt lat="29.968483" lon="95.363584">
<time>2016-10-07T23:48:26Z</time></trkpt>
<trkpt lat="29.968643" lon="95.363624">
<time>2016-10-07T23:48:27Z</time></trkpt>
<trkpt lat="29.968803" lon="95.363644">
<time>2016-10-07T23:48:28Z</time></trkpt>
<trkpt lat="29.968883" lon="95.363644">
<time>2016-10-07T23:48:29Z</time></trkpt>
<trkpt lat="29.968973" lon="95.363654">
<time>2016-10-07T23:48:30Z</time></trkpt>
<trkpt lat="29.969133" lon="95.363644">
<time>2016-10-07T23:48:31Z</time></trkpt>
<trkpt lat="29.969283" lon="95.363634">
<time>2016-10-07T23:48:32Z</time></trkpt>
<trkpt lat="29.969373" lon="95.363634">
<time>2016-10-07T23:48:33Z</time></trkpt>
<trkpt lat="29.969503" lon="95.363614">
<time>2016-10-07T23:48:34Z</time></trkpt>
<trkpt lat="29.969563" lon="95.363604">
<time>2016-10-07T23:48:35Z</time></trkpt>
<trkpt lat="29.969653" lon="95.363584">
<time>2016-10-07T23:48:36Z</time></trkpt>
<trkpt lat="29.969723" lon="95.363574">
<time>2016-10-07T23:48:37Z</time></trkpt>
<trkpt lat="29.969853" lon="95.363534">
<time>2016-10-07T23:48:38Z</time></trkpt>
<trkpt lat="29.969973" lon="95.363504">
<time>2016-10-07T23:48:39Z</time></trkpt>
<trkpt lat="29.970103" lon="95.363454">
<time>2016-10-07T23:48:40Z</time></trkpt>
<trkpt lat="29.970223" lon="95.363414">
<time>2016-10-07T23:48:41Z</time></trkpt>
<trkpt lat="29.970353" lon="95.363364">
<time>2016-10-07T23:48:42Z</time></trkpt>
<trkpt lat="29.970513" lon="95.363314">
<time>2016-10-07T23:48:43Z</time></trkpt>
<trkpt lat="29.970593" lon="95.363294">
<time>2016-10-07T23:48:44Z</time></trkpt>
<trkpt lat="29.970633" lon="95.363294">
<time>2016-10-07T23:48:45Z</time></trkpt>
<trkpt lat="29.970683" lon="95.363294">
<time>2016-10-07T23:48:46Z</time></trkpt>
<trkpt lat="29.970723" lon="95.363314">
<time>2016-10-07T23:48:47Z</time></trkpt>
<trkpt lat="29.970783" lon="95.363334">
<time>2016-10-07T23:48:48Z</time></trkpt>
<trkpt lat="29.970823" lon="95.363374">
<time>2016-10-07T23:48:49Z</time></trkpt>
<trkpt lat="29.970853" lon="95.363394">
<time>2016-10-07T23:48:50Z</time></trkpt>
<trkpt lat="29.970913" lon="95.363484">
<time>2016-10-07T23:48:51Z</time></trkpt>
<trkpt lat="29.971102" lon="95.363794">
<time>2016-10-07T23:48:52Z</time></trkpt>
<trkpt lat="29.971392" lon="95.364283">
<time>2016-10-07T23:48:53Z</time></trkpt>
<trkpt lat="29.971541" lon="95.364532">
<time>2016-10-07T23:48:54Z</time></trkpt>
<trkpt lat="29.971581" lon="95.364572">
<time>2016-10-07T23:48:55Z</time></trkpt>
<trkpt lat="29.971621" lon="95.364612">
<time>2016-10-07T23:48:56Z</time></trkpt>
<trkpt lat="29.971651" lon="95.364632">
<time>2016-10-07T23:48:57Z</time></trkpt>
<trkpt lat="29.971691" lon="95.364642">
<time>2016-10-07T23:48:58Z</time></trkpt>
<trkpt lat="29.971731" lon="95.364642">
<time>2016-10-07T23:48:59Z</time></trkpt>
<trkpt lat="29.971751" lon="95.364642">
<time>2016-10-07T23:49:00Z</time></trkpt>
<trkpt lat="29.971781" lon="95.364642">
<time>2016-10-07T23:49:01Z</time></trkpt>
<trkpt lat="29.971801" lon="95.364642">
<time>2016-10-07T23:49:02Z</time></trkpt>
<trkpt lat="29.971831" lon="95.364622">
<time>2016-10-07T23:49:03Z</time></trkpt>
<trkpt lat="29.971871" lon="95.364592">
<time>2016-10-07T23:49:04Z</time></trkpt>
<trkpt lat="29.971891" lon="95.364582">
<time>2016-10-07T23:49:05Z</time></trkpt>
<trkpt lat="29.971901" lon="95.364562">
<time>2016-10-07T23:49:06Z</time></trkpt>
<trkpt lat="29.971921" lon="95.364532">
<time>2016-10-07T23:49:07Z</time></trkpt>
<trkpt lat="29.971941" lon="95.364513">
<time>2016-10-07T23:49:08Z</time></trkpt>
<trkpt lat="29.971951" lon="95.364473">
<time>2016-10-07T23:49:09Z</time></trkpt>
<trkpt lat="29.971961" lon="95.364443">
<time>2016-10-07T23:49:10Z</time></trkpt>
<trkpt lat="29.971962" lon="95.364403">
<time>2016-10-07T23:49:11Z</time></trkpt>
<trkpt lat="29.971972" lon="95.364333">
<time>2016-10-07T23:49:12Z</time></trkpt>
<trkpt lat="29.971982" lon="95.364263">
<time>2016-10-07T23:49:13Z</time></trkpt>
<trkpt lat="29.971972" lon="95.364203">
<time>2016-10-07T23:49:14Z</time></trkpt>
<trkpt lat="29.971972" lon="95.364143">
<time>2016-10-07T23:49:15Z</time></trkpt>
<trkpt lat="29.971982" lon="95.364063">
<time>2016-10-07T23:49:16Z</time></trkpt>
<trkpt lat="29.971982" lon="95.363983">
<time>2016-10-07T23:49:17Z</time></trkpt>
<trkpt lat="29.971982" lon="95.363913">
<time>2016-10-07T23:49:18Z</time></trkpt>
<trkpt lat="29.971982" lon="95.363843">
<time>2016-10-07T23:49:19Z</time></trkpt>
<trkpt lat="29.971982" lon="95.363784">
<time>2016-10-07T23:49:20Z</time></trkpt>
<trkpt lat="29.971982" lon="95.363724">
<time>2016-10-07T23:49:21Z</time></trkpt>
<trkpt lat="29.971983" lon="95.363654">
<time>2016-10-07T23:49:22Z</time></trkpt>
<trkpt lat="29.971993" lon="95.363574">
<time>2016-10-07T23:49:23Z</time></trkpt>
<trkpt lat="29.971993" lon="95.363484">
<time>2016-10-07T23:49:24Z</time></trkpt>
<trkpt lat="29.971993" lon="95.363394">
<time>2016-10-07T23:49:25Z</time></trkpt>
<trkpt lat="29.971993" lon="95.363324">
<time>2016-10-07T23:49:26Z</time></trkpt>
<trkpt lat="29.971993" lon="95.363244">
<time>2016-10-07T23:49:27Z</time></trkpt>
<trkpt lat="29.972013" lon="95.363144">
<time>2016-10-07T23:49:28Z</time></trkpt>
<trkpt lat="29.972023" lon="95.363045">
<time>2016-10-07T23:49:29Z</time></trkpt>
<trkpt lat="29.972034" lon="95.362965">
<time>2016-10-07T23:49:30Z</time></trkpt>
<trkpt lat="29.972064" lon="95.362875">
<time>2016-10-07T23:49:31Z</time></trkpt>
<trkpt lat="29.972114" lon="95.362785">
<time>2016-10-07T23:49:32Z</time></trkpt>
<trkpt lat="29.972154" lon="95.362725">
<time>2016-10-07T23:49:33Z</time></trkpt>
<trkpt lat="29.972214" lon="95.362655">
<time>2016-10-07T23:49:34Z</time></trkpt>
<trkpt lat="29.972274" lon="95.362595">
<time>2016-10-07T23:49:35Z</time></trkpt>
<trkpt lat="29.972354" lon="95.362535">
<time>2016-10-07T23:49:36Z</time></trkpt>
<trkpt lat="29.972534" lon="95.362396">
<time>2016-10-07T23:49:37Z</time></trkpt>
<trkpt lat="29.972765" lon="95.362226">
<time>2016-10-07T23:49:38Z</time></trkpt>
<trkpt lat="29.973035" lon="95.362016">
<time>2016-10-07T23:49:39Z</time></trkpt>
<trkpt lat="29.973505" lon="95.361687">
<time>2016-10-07T23:49:40Z</time></trkpt>
<trkpt lat="29.973796" lon="95.361467">
<time>2016-10-07T23:49:41Z</time></trkpt>
<trkpt lat="29.973936" lon="95.361377">
<time>2016-10-07T23:49:42Z</time></trkpt>
<trkpt lat="29.974036" lon="95.361317">
<time>2016-10-07T23:49:43Z</time></trkpt>
<trkpt lat="29.974106" lon="95.361287">
<time>2016-10-07T23:49:44Z</time></trkpt>
<trkpt lat="29.974186" lon="95.361267">
<time>2016-10-07T23:49:45Z</time></trkpt>
<trkpt lat="29.974276" lon="95.361257">
<time>2016-10-07T23:49:46Z</time></trkpt>
<trkpt lat="29.974366" lon="95.361237">
<time>2016-10-07T23:49:47Z</time></trkpt>
<trkpt lat="29.974466" lon="95.361227">
<time>2016-10-07T23:49:48Z</time></trkpt>
<trkpt lat="29.974576" lon="95.361217">
<time>2016-10-07T23:49:49Z</time></trkpt>
<trkpt lat="29.974716" lon="95.361207">
<time>2016-10-07T23:49:50Z</time></trkpt>
<trkpt lat="29.974826" lon="95.361197">
<time>2016-10-07T23:49:51Z</time></trkpt>
<trkpt lat="29.974906" lon="95.361187">
<time>2016-10-07T23:49:52Z</time></trkpt>
<trkpt lat="29.975076" lon="95.361167">
<time>2016-10-07T23:49:53Z</time></trkpt>
<trkpt lat="29.975206" lon="95.361137">
<time>2016-10-07T23:49:54Z</time></trkpt>
<trkpt lat="29.975346" lon="95.361107">
<time>2016-10-07T23:49:55Z</time></trkpt>
<trkpt lat="29.975546" lon="95.361077">
<time>2016-10-07T23:49:56Z</time></trkpt>
<trkpt lat="29.975666" lon="95.361027">
<time>2016-10-07T23:49:57Z</time></trkpt>
<trkpt lat="29.975796" lon="95.360988">
<time>2016-10-07T23:49:58Z</time></trkpt>
<trkpt lat="29.975926" lon="95.360948">
<time>2016-10-07T23:49:59Z</time></trkpt>
<trkpt lat="29.976056" lon="95.360908">
<time>2016-10-07T23:50:00Z</time></trkpt>
<trkpt lat="29.976147" lon="95.360888">
<time>2016-10-07T23:50:01Z</time></trkpt>
<trkpt lat="29.976207" lon="95.360878">
<time>2016-10-07T23:50:02Z</time></trkpt>
<trkpt lat="29.976277" lon="95.360878">
<time>2016-10-07T23:50:03Z</time></trkpt>
<trkpt lat="29.976337" lon="95.360878">
<time>2016-10-07T23:50:04Z</time></trkpt>
<trkpt lat="29.976407" lon="95.360888">
<time>2016-10-07T23:50:05Z</time></trkpt>
<trkpt lat="29.976467" lon="95.360898">
<time>2016-10-07T23:50:06Z</time></trkpt>
<trkpt lat="29.976577" lon="95.360908">
<time>2016-10-07T23:50:07Z</time></trkpt>
<trkpt lat="29.976727" lon="95.360908">
<time>2016-10-07T23:50:08Z</time></trkpt>
<trkpt lat="29.976927" lon="95.360898">
<time>2016-10-07T23:50:09Z</time></trkpt>
<trkpt lat="29.977137" lon="95.360868">
<time>2016-10-07T23:50:10Z</time></trkpt>
<trkpt lat="29.977377" lon="95.360818">
<time>2016-10-07T23:50:11Z</time></trkpt>
<trkpt lat="29.977577" lon="95.360778">
<time>2016-10-07T23:50:12Z</time></trkpt>
<trkpt lat="29.977717" lon="95.360758">
<time>2016-10-07T23:50:13Z</time></trkpt>
<trkpt lat="29.977977" lon="95.360708">
<time>2016-10-07T23:50:14Z</time></trkpt>
<trkpt lat="29.978347" lon="95.360638">
<time>2016-10-07T23:50:15Z</time></trkpt>
<trkpt lat="29.978727" lon="95.360568">
<time>2016-10-07T23:50:16Z</time></trkpt>
<trkpt lat="29.979097" lon="95.360498">
<time>2016-10-07T23:50:17Z</time></trkpt>
<trkpt lat="29.979477" lon="95.360428">
<time>2016-10-07T23:50:18Z</time></trkpt>
<trkpt lat="29.979867" lon="95.360348">
<time>2016-10-07T23:50:19Z</time></trkpt>
<trkpt lat="29.980277" lon="95.360279">
<time>2016-10-07T23:50:20Z</time></trkpt>
<trkpt lat="29.980628" lon="95.360209">
<time>2016-10-07T23:50:21Z</time></trkpt>
<trkpt lat="29.980878" lon="95.360159">
<time>2016-10-07T23:50:22Z</time></trkpt>
<trkpt lat="29.981048" lon="95.360119">
<time>2016-10-07T23:50:23Z</time></trkpt>
<trkpt lat="29.981208" lon="95.360059">
<time>2016-10-07T23:50:24Z</time></trkpt>
<trkpt lat="29.981348" lon="95.359979">
<time>2016-10-07T23:50:25Z</time></trkpt>
<trkpt lat="29.981448" lon="95.359919">
<time>2016-10-07T23:50:26Z</time></trkpt>
<trkpt lat="29.981588" lon="95.359819">
<time>2016-10-07T23:50:27Z</time></trkpt>
<trkpt lat="29.981648" lon="95.359759">
<time>2016-10-07T23:50:28Z</time></trkpt>
<trkpt lat="29.982069" lon="95.35946">
<time>2016-10-07T23:50:29Z</time></trkpt>
<trkpt lat="29.982359" lon="95.35924">
<time>2016-10-07T23:50:30Z</time></trkpt>
<trkpt lat="29.982679" lon="95.35899">
<time>2016-10-07T23:50:31Z</time></trkpt>
<trkpt lat="29.98283" lon="95.358851">
<time>2016-10-07T23:50:32Z</time></trkpt>
<trkpt lat="29.98292" lon="95.358741">
<time>2016-10-07T23:50:33Z</time></trkpt>
<trkpt lat="29.98306" lon="95.358581">
<time>2016-10-07T23:50:34Z</time></trkpt>
<trkpt lat="29.98327" lon="95.358282">
<time>2016-10-07T23:50:35Z</time></trkpt>
<trkpt lat="29.983341" lon="95.358172">
<time>2016-10-07T23:50:36Z</time></trkpt>
<trkpt lat="29.983411" lon="95.358052">
<time>2016-10-07T23:50:37Z</time></trkpt>
<trkpt lat="29.983441" lon="95.357942">
<time>2016-10-07T23:50:38Z</time></trkpt>
<trkpt lat="29.983471" lon="95.357822">
<time>2016-10-07T23:50:39Z</time></trkpt>
<trkpt lat="29.983491" lon="95.357673">
<time>2016-10-07T23:50:40Z</time></trkpt>
<trkpt lat="29.983512" lon="95.357553">
<time>2016-10-07T23:50:41Z</time></trkpt>
<trkpt lat="29.983562" lon="95.357383">
<time>2016-10-07T23:50:42Z</time></trkpt>
<trkpt lat="29.983642" lon="95.357253">
<time>2016-10-07T23:50:43Z</time></trkpt>
<trkpt lat="29.983682" lon="95.357193">
<time>2016-10-07T23:50:44Z</time></trkpt>
<trkpt lat="29.983782" lon="95.357073">
<time>2016-10-07T23:50:45Z</time></trkpt>
<trkpt lat="29.984003" lon="95.356784">
<time>2016-10-07T23:50:46Z</time></trkpt>
<trkpt lat="29.984073" lon="95.356674">
<time>2016-10-07T23:50:47Z</time></trkpt>
<trkpt lat="29.984153" lon="95.356524">
<time>2016-10-07T23:50:48Z</time></trkpt>
<trkpt lat="29.984193" lon="95.356385">
<time>2016-10-07T23:50:49Z</time></trkpt>
<trkpt lat="29.984234" lon="95.356255">
<time>2016-10-07T23:50:50Z</time></trkpt>
<trkpt lat="29.984234" lon="95.356145">
<time>2016-10-07T23:50:51Z</time></trkpt>
<trkpt lat="29.984244" lon="95.355965">
<time>2016-10-07T23:50:52Z</time></trkpt>
<trkpt lat="29.984224" lon="95.355736">
<time>2016-10-07T23:50:53Z</time></trkpt>
<trkpt lat="29.984205" lon="95.355476">
<time>2016-10-07T23:50:54Z</time></trkpt>
<trkpt lat="29.984185" lon="95.355187">
<time>2016-10-07T23:50:55Z</time></trkpt>
<trkpt lat="29.984176" lon="95.354907">
<time>2016-10-07T23:50:56Z</time></trkpt>
<trkpt lat="29.984176" lon="95.354677">
<time>2016-10-07T23:50:57Z</time></trkpt>
<trkpt lat="29.984207" lon="95.354328">
<time>2016-10-07T23:50:58Z</time></trkpt>
<trkpt lat="29.984237" lon="95.354218">
<time>2016-10-07T23:50:59Z</time></trkpt>
<trkpt lat="29.984267" lon="95.354118">
<time>2016-10-07T23:51:00Z</time></trkpt>
<trkpt lat="29.984307" lon="95.354038">
<time>2016-10-07T23:51:01Z</time></trkpt>
<trkpt lat="29.984367" lon="95.353939">
<time>2016-10-07T23:51:02Z</time></trkpt>
<trkpt lat="29.984417" lon="95.353879">
<time>2016-10-07T23:51:03Z</time></trkpt>
<trkpt lat="29.984488" lon="95.353789">
<time>2016-10-07T23:51:04Z</time></trkpt>
<trkpt lat="29.984548" lon="95.353709">
<time>2016-10-07T23:51:05Z</time></trkpt>
<trkpt lat="29.984608" lon="95.353639">
<time>2016-10-07T23:51:06Z</time></trkpt>
<trkpt lat="29.984678" lon="95.353539">
<time>2016-10-07T23:51:07Z</time></trkpt>
<trkpt lat="29.984748" lon="95.353469">
<time>2016-10-07T23:51:08Z</time></trkpt>
<trkpt lat="29.984818" lon="95.35341">
<time>2016-10-07T23:51:09Z</time></trkpt>
<trkpt lat="29.984888" lon="95.35335">
<time>2016-10-07T23:51:10Z</time></trkpt>
<trkpt lat="29.984958" lon="95.35331">
<time>2016-10-07T23:51:11Z</time></trkpt>
<trkpt lat="29.985048" lon="95.35326">
<time>2016-10-07T23:51:12Z</time></trkpt>
<trkpt lat="29.985139" lon="95.35322">
<time>2016-10-07T23:51:13Z</time></trkpt>
<trkpt lat="29.985219" lon="95.35318">
<time>2016-10-07T23:51:14Z</time></trkpt>
<trkpt lat="29.985329" lon="95.35312">
<time>2016-10-07T23:51:15Z</time></trkpt>
<trkpt lat="29.985419" lon="95.35308">
<time>2016-10-07T23:51:16Z</time></trkpt>
<trkpt lat="29.985579" lon="95.353">
<time>2016-10-07T23:51:17Z</time></trkpt>
<trkpt lat="29.985669" lon="95.35295">
<time>2016-10-07T23:51:18Z</time></trkpt>
<trkpt lat="29.985819" lon="95.352841">
<time>2016-10-07T23:51:19Z</time></trkpt>
<trkpt lat="29.985909" lon="95.352751">
<time>2016-10-07T23:51:20Z</time></trkpt>
<trkpt lat="29.98603" lon="95.352611">
<time>2016-10-07T23:51:21Z</time></trkpt>
<trkpt lat="29.98646" lon="95.352112">
<time>2016-10-07T23:51:22Z</time></trkpt>
<trkpt lat="29.986841" lon="95.351673">
<time>2016-10-07T23:51:23Z</time></trkpt>
<trkpt lat="29.987202" lon="95.351263">
<time>2016-10-07T23:51:24Z</time></trkpt>
<trkpt lat="29.987502" lon="95.350914">
<time>2016-10-07T23:51:25Z</time></trkpt>
<trkpt lat="29.987963" lon="95.350385">
<time>2016-10-07T23:51:26Z</time></trkpt>
<trkpt lat="29.988244" lon="95.350035">
<time>2016-10-07T23:51:27Z</time></trkpt>
<trkpt lat="29.988424" lon="95.349766">
<time>2016-10-07T23:51:28Z</time></trkpt>
<trkpt lat="29.988645" lon="95.349407">
<time>2016-10-07T23:51:29Z</time></trkpt>
<trkpt lat="29.988835" lon="95.349127">
<time>2016-10-07T23:51:30Z</time></trkpt>
<trkpt lat="29.989146" lon="95.348638">
<time>2016-10-07T23:51:31Z</time></trkpt>
<trkpt lat="29.989347" lon="95.348378">
<time>2016-10-07T23:51:32Z</time></trkpt>
<trkpt lat="29.989667" lon="95.348029">
<time>2016-10-07T23:51:33Z</time></trkpt>
<trkpt lat="29.989958" lon="95.34769">
<time>2016-10-07T23:51:34Z</time></trkpt>
<trkpt lat="29.990309" lon="95.34727">
<time>2016-10-07T23:51:35Z</time></trkpt>
<trkpt lat="29.990519" lon="95.346981">
<time>2016-10-07T23:51:36Z</time></trkpt>
<trkpt lat="29.99069" lon="95.346731">
<time>2016-10-07T23:51:37Z</time></trkpt>
<trkpt lat="29.9908" lon="95.346572">
<time>2016-10-07T23:51:38Z</time></trkpt>
<trkpt lat="29.99089" lon="95.346412">
<time>2016-10-07T23:51:39Z</time></trkpt>
<trkpt lat="29.99095" lon="95.346302">
<time>2016-10-07T23:51:40Z</time></trkpt>
<trkpt lat="29.991041" lon="95.346103">
<time>2016-10-07T23:51:41Z</time></trkpt>
<trkpt lat="29.991071" lon="95.346033">
<time>2016-10-07T23:51:42Z</time></trkpt>
<trkpt lat="29.991111" lon="95.345943">
<time>2016-10-07T23:51:43Z</time></trkpt>
<trkpt lat="29.991151" lon="95.345793">
<time>2016-10-07T23:51:44Z</time></trkpt>
<trkpt lat="29.991192" lon="95.345683">
<time>2016-10-07T23:51:45Z</time></trkpt>
<trkpt lat="29.991212" lon="95.345584">
<time>2016-10-07T23:51:46Z</time></trkpt>
<trkpt lat="29.991232" lon="95.345484">
<time>2016-10-07T23:51:47Z</time></trkpt>
<trkpt lat="29.991252" lon="95.345354">
<time>2016-10-07T23:51:48Z</time></trkpt>
<trkpt lat="29.991252" lon="95.345254">
<time>2016-10-07T23:51:49Z</time></trkpt>
<trkpt lat="29.991263" lon="95.345124">
<time>2016-10-07T23:51:50Z</time></trkpt>
<trkpt lat="29.991263" lon="95.345025">
<time>2016-10-07T23:51:51Z</time></trkpt>
<trkpt lat="29.991273" lon="95.344925">
<time>2016-10-07T23:51:52Z</time></trkpt>
<trkpt lat="29.991273" lon="95.344775">
<time>2016-10-07T23:51:53Z</time></trkpt>
<trkpt lat="29.991294" lon="95.344575">
<time>2016-10-07T23:51:54Z</time></trkpt>
<trkpt lat="29.991304" lon="95.344416">
<time>2016-10-07T23:51:55Z</time></trkpt>
<trkpt lat="29.991334" lon="95.344186">
<time>2016-10-07T23:51:56Z</time></trkpt>
<trkpt lat="29.991375" lon="95.343967">
<time>2016-10-07T23:51:57Z</time></trkpt>
<trkpt lat="29.991435" lon="95.343717">
<time>2016-10-07T23:51:58Z</time></trkpt>
<trkpt lat="29.991616" lon="95.343028">
<time>2016-10-07T23:51:59Z</time></trkpt>
<trkpt lat="29.991898" lon="95.341941">
<time>2016-10-07T23:52:00Z</time></trkpt>
<trkpt lat="29.99214" lon="95.340982">
<time>2016-10-07T23:52:01Z</time></trkpt>
<trkpt lat="29.992251" lon="95.340573">
<time>2016-10-07T23:52:02Z</time></trkpt>
<trkpt lat="29.992362" lon="95.340124">
<time>2016-10-07T23:52:03Z</time></trkpt>
<trkpt lat="29.992422" lon="95.339805">
<time>2016-10-07T23:52:04Z</time></trkpt>
<trkpt lat="29.992513" lon="95.339326">
<time>2016-10-07T23:52:05Z</time></trkpt>
<trkpt lat="29.992594" lon="95.338747">
<time>2016-10-07T23:52:06Z</time></trkpt>
<trkpt lat="29.992645" lon="95.338368">
<time>2016-10-07T23:52:07Z</time></trkpt>
<trkpt lat="29.992695" lon="95.338068">
<time>2016-10-07T23:52:08Z</time></trkpt>
<trkpt lat="29.992797" lon="95.3373">
<time>2016-10-07T23:52:09Z</time></trkpt>
<trkpt lat="29.992929" lon="95.336401">
<time>2016-10-07T23:52:10Z</time></trkpt>
<trkpt lat="29.99303" lon="95.335683">
<time>2016-10-07T23:52:11Z</time></trkpt>
<trkpt lat="29.99304" lon="95.335553">
<time>2016-10-07T23:52:12Z</time></trkpt>
<trkpt lat="29.99305" lon="95.335423">
<time>2016-10-07T23:52:13Z</time></trkpt>
<trkpt lat="29.993051" lon="95.335284">
<time>2016-10-07T23:52:14Z</time></trkpt>
<trkpt lat="29.993031" lon="95.335104">
<time>2016-10-07T23:52:15Z</time></trkpt>
<trkpt lat="29.993031" lon="95.335024">
<time>2016-10-07T23:52:16Z</time></trkpt>
<trkpt lat="29.993011" lon="95.334895">
<time>2016-10-07T23:52:17Z</time></trkpt>
<trkpt lat="29.993002" lon="95.334755">
<time>2016-10-07T23:52:18Z</time></trkpt>
<trkpt lat="29.992992" lon="95.334625">
<time>2016-10-07T23:52:19Z</time></trkpt>
<trkpt lat="29.992982" lon="95.334495">
<time>2016-10-07T23:52:20Z</time></trkpt>
<trkpt lat="29.992982" lon="95.334366">
<time>2016-10-07T23:52:21Z</time></trkpt>
<trkpt lat="29.992983" lon="95.334316">
<time>2016-10-07T23:52:22Z</time></trkpt>
<trkpt lat="29.992983" lon="95.334216">
<time>2016-10-07T23:52:23Z</time></trkpt>
<trkpt lat="29.992993" lon="95.334096">
<time>2016-10-07T23:52:24Z</time></trkpt>
<trkpt lat="29.993044" lon="95.333807">
<time>2016-10-07T23:52:25Z</time></trkpt>
<trkpt lat="29.993064" lon="95.333577">
<time>2016-10-07T23:52:26Z</time></trkpt>
<trkpt lat="29.993064" lon="95.333447">
<time>2016-10-07T23:52:27Z</time></trkpt>
<trkpt lat="29.993064" lon="95.333318">
<time>2016-10-07T23:52:28Z</time></trkpt>
<trkpt lat="29.993065" lon="95.333188">
<time>2016-10-07T23:52:29Z</time></trkpt>
<trkpt lat="29.993065" lon="95.333068">
<time>2016-10-07T23:52:30Z</time></trkpt>
<trkpt lat="29.993055" lon="95.332938">
<time>2016-10-07T23:52:31Z</time></trkpt>
<trkpt lat="29.993045" lon="95.332799">
<time>2016-10-07T23:52:32Z</time></trkpt>
<trkpt lat="29.993026" lon="95.332659">
<time>2016-10-07T23:52:33Z</time></trkpt>
<trkpt lat="29.993006" lon="95.332529">
<time>2016-10-07T23:52:34Z</time></trkpt>
<trkpt lat="29.992976" lon="95.3324">
<time>2016-10-07T23:52:35Z</time></trkpt>
<trkpt lat="29.992956" lon="95.33225">
<time>2016-10-07T23:52:36Z</time></trkpt>
<trkpt lat="29.992937" lon="95.33212">
<time>2016-10-07T23:52:37Z</time></trkpt>
<trkpt lat="29.992907" lon="95.33198">
<time>2016-10-07T23:52:38Z</time></trkpt>
<trkpt lat="29.992867" lon="95.331831">
<time>2016-10-07T23:52:39Z</time></trkpt>
<trkpt lat="29.992828" lon="95.331691">
<time>2016-10-07T23:52:40Z</time></trkpt>
<trkpt lat="29.992778" lon="95.331581">
<time>2016-10-07T23:52:41Z</time></trkpt>
<trkpt lat="29.992758" lon="95.331511">
<time>2016-10-07T23:52:42Z</time></trkpt>
<trkpt lat="29.992698" lon="95.331372">
<time>2016-10-07T23:52:43Z</time></trkpt>
<trkpt lat="29.992648" lon="95.331232">
<time>2016-10-07T23:52:44Z</time></trkpt>
<trkpt lat="29.992619" lon="95.331142">
<time>2016-10-07T23:52:45Z</time></trkpt>
<trkpt lat="29.992599" lon="95.331062">
<time>2016-10-07T23:52:46Z</time></trkpt>
<trkpt lat="29.992579" lon="95.330973">
<time>2016-10-07T23:52:47Z</time></trkpt>
<trkpt lat="29.992569" lon="95.330843">
<time>2016-10-07T23:52:48Z</time></trkpt>
<trkpt lat="29.992559" lon="95.330703">
<time>2016-10-07T23:52:49Z</time></trkpt>
<trkpt lat="29.99254" lon="95.330563">
<time>2016-10-07T23:52:50Z</time></trkpt>
<trkpt lat="29.99253" lon="95.330503">
<time>2016-10-07T23:52:51Z</time></trkpt>
<trkpt lat="29.9925" lon="95.330424">
<time>2016-10-07T23:52:52Z</time></trkpt>
<trkpt lat="29.99247" lon="95.330364">
<time>2016-10-07T23:52:53Z</time></trkpt>
<trkpt lat="29.99244" lon="95.330314">
<time>2016-10-07T23:52:54Z</time></trkpt>
<trkpt lat="29.99239" lon="95.330264">
<time>2016-10-07T23:52:55Z</time></trkpt>
<trkpt lat="29.99231" lon="95.330204">
<time>2016-10-07T23:52:56Z</time></trkpt>
<trkpt lat="29.992231" lon="95.330134">
<time>2016-10-07T23:52:57Z</time></trkpt>
<trkpt lat="29.992131" lon="95.330054">
<time>2016-10-07T23:52:58Z</time></trkpt>
<trkpt lat="29.992091" lon="95.330015">
<time>2016-10-07T23:52:59Z</time></trkpt>
<trkpt lat="29.992021" lon="95.329935">
<time>2016-10-07T23:53:00Z</time></trkpt>
<trkpt lat="29.991971" lon="95.329855">
<time>2016-10-07T23:53:01Z</time></trkpt>
<trkpt lat="29.991891" lon="95.329705">
<time>2016-10-07T23:53:02Z</time></trkpt>
<trkpt lat="29.991812" lon="95.329535">
<time>2016-10-07T23:53:03Z</time></trkpt>
<trkpt lat="29.991702" lon="95.329356">
<time>2016-10-07T23:53:04Z</time></trkpt>
<trkpt lat="29.991612" lon="95.329206">
<time>2016-10-07T23:53:05Z</time></trkpt>
<trkpt lat="29.991533" lon="95.329076">
<time>2016-10-07T23:53:06Z</time></trkpt>
<trkpt lat="29.991453" lon="95.328967">
<time>2016-10-07T23:53:07Z</time></trkpt>
<trkpt lat="29.991383" lon="95.328827">
<time>2016-10-07T23:53:08Z</time></trkpt>
<trkpt lat="29.991353" lon="95.328747">
<time>2016-10-07T23:53:09Z</time></trkpt>
<trkpt lat="29.991323" lon="95.328637">
<time>2016-10-07T23:53:10Z</time></trkpt>
<trkpt lat="29.991294" lon="95.328518">
<time>2016-10-07T23:53:11Z</time></trkpt>
<trkpt lat="29.991254" lon="95.328388">
<time>2016-10-07T23:53:12Z</time></trkpt>
<trkpt lat="29.991204" lon="95.328288">
<time>2016-10-07T23:53:13Z</time></trkpt>
<trkpt lat="29.991124" lon="95.328158">
<time>2016-10-07T23:53:14Z</time></trkpt>
<trkpt lat="29.991005" lon="95.328009">
<time>2016-10-07T23:53:15Z</time></trkpt>
<trkpt lat="29.990945" lon="95.327929">
<time>2016-10-07T23:53:16Z</time></trkpt>
<trkpt lat="29.990855" lon="95.327799">
<time>2016-10-07T23:53:17Z</time></trkpt>
<trkpt lat="29.990765" lon="95.327669">
<time>2016-10-07T23:53:18Z</time></trkpt>
<trkpt lat="29.990656" lon="95.32751">
<time>2016-10-07T23:53:19Z</time></trkpt>
<trkpt lat="29.990516" lon="95.32734">
<time>2016-10-07T23:53:20Z</time></trkpt>
<trkpt lat="29.990426" lon="95.32721">
<time>2016-10-07T23:53:21Z</time></trkpt>
<trkpt lat="29.990346" lon="95.327101">
<time>2016-10-07T23:53:22Z</time></trkpt>
<trkpt lat="29.990306" lon="95.327041">
<time>2016-10-07T23:53:23Z</time></trkpt>
<trkpt lat="29.990197" lon="95.326931">
<time>2016-10-07T23:53:24Z</time></trkpt>
<trkpt lat="29.990117" lon="95.326861">
<time>2016-10-07T23:53:25Z</time></trkpt>
<trkpt lat="29.990037" lon="95.326801">
<time>2016-10-07T23:53:26Z</time></trkpt>
<trkpt lat="29.989917" lon="95.326721">
<time>2016-10-07T23:53:27Z</time></trkpt>
<trkpt lat="29.989617" lon="95.326542">
<time>2016-10-07T23:53:28Z</time></trkpt>
<trkpt lat="29.989428" lon="95.326422">
<time>2016-10-07T23:53:29Z</time></trkpt>
<trkpt lat="29.989248" lon="95.326322">
<time>2016-10-07T23:53:30Z</time></trkpt>
<trkpt lat="29.989098" lon="95.326222">
<time>2016-10-07T23:53:31Z</time></trkpt>
<trkpt lat="29.989008" lon="95.326143">
<time>2016-10-07T23:53:32Z</time></trkpt>
<trkpt lat="29.988938" lon="95.326083">
<time>2016-10-07T23:53:33Z</time></trkpt>
<trkpt lat="29.988908" lon="95.326033">
<time>2016-10-07T23:53:34Z</time></trkpt>
<trkpt lat="29.988858" lon="95.325973">
<time>2016-10-07T23:53:35Z</time></trkpt>
<trkpt lat="29.988829" lon="95.325923">
<time>2016-10-07T23:53:36Z</time></trkpt>
<trkpt lat="29.988799" lon="95.325853">
<time>2016-10-07T23:53:37Z</time></trkpt>
<trkpt lat="29.988779" lon="95.325813">
<time>2016-10-07T23:53:38Z</time></trkpt>
<trkpt lat="29.988769" lon="95.325773">
<time>2016-10-07T23:53:39Z</time></trkpt>
<trkpt lat="29.988739" lon="95.325713">
<time>2016-10-07T23:53:40Z</time></trkpt>
<trkpt lat="29.988699" lon="95.325574">
<time>2016-10-07T23:53:41Z</time></trkpt>
<trkpt lat="29.98865" lon="95.325424">
<time>2016-10-07T23:53:42Z</time></trkpt>
<trkpt lat="29.98862" lon="95.325324">
<time>2016-10-07T23:53:43Z</time></trkpt>
<trkpt lat="29.98858" lon="95.325224">
<time>2016-10-07T23:53:44Z</time></trkpt>
<trkpt lat="29.98854" lon="95.325095">
<time>2016-10-07T23:53:45Z</time></trkpt>
<trkpt lat="29.988471" lon="95.324865">
<time>2016-10-07T23:53:46Z</time></trkpt>
<trkpt lat="29.988431" lon="95.324726">
<time>2016-10-07T23:53:47Z</time></trkpt>
<trkpt lat="29.988391" lon="95.324496">
<time>2016-10-07T23:53:48Z</time></trkpt>
<trkpt lat="29.988352" lon="95.324286">
<time>2016-10-07T23:53:49Z</time></trkpt>
<trkpt lat="29.988332" lon="95.324147">
<time>2016-10-07T23:53:50Z</time></trkpt>
<trkpt lat="29.988292" lon="95.323937">
<time>2016-10-07T23:53:51Z</time></trkpt>
<trkpt lat="29.988273" lon="95.323807">
<time>2016-10-07T23:53:52Z</time></trkpt>
<trkpt lat="29.988263" lon="95.323688">
<time>2016-10-07T23:53:53Z</time></trkpt>
<trkpt lat="29.988253" lon="95.323608">
<time>2016-10-07T23:53:54Z</time></trkpt>
<trkpt lat="29.988253" lon="95.323558">
<time>2016-10-07T23:53:55Z</time></trkpt>
<trkpt lat="29.988263" lon="95.323498">
<time>2016-10-07T23:53:56Z</time></trkpt>
<trkpt lat="29.988273" lon="95.323448">
<time>2016-10-07T23:53:57Z</time></trkpt>
<trkpt lat="29.988293" lon="95.323378">
<time>2016-10-07T23:53:58Z</time></trkpt>
<trkpt lat="29.988324" lon="95.323298">
<time>2016-10-07T23:53:59Z</time></trkpt>
<trkpt lat="29.988344" lon="95.323259">
<time>2016-10-07T23:54:00Z</time></trkpt>
<trkpt lat="29.988374" lon="95.323199">
<time>2016-10-07T23:54:01Z</time></trkpt>
<trkpt lat="29.988404" lon="95.323159">
<time>2016-10-07T23:54:02Z</time></trkpt>
<trkpt lat="29.988444" lon="95.323099">
<time>2016-10-07T23:54:03Z</time></trkpt>
<trkpt lat="29.988514" lon="95.323029">
<time>2016-10-07T23:54:04Z</time></trkpt>
<trkpt lat="29.988614" lon="95.322949">
<time>2016-10-07T23:54:05Z</time></trkpt>
<trkpt lat="29.988694" lon="95.322899">
<time>2016-10-07T23:54:06Z</time></trkpt>
<trkpt lat="29.988895" lon="95.32278">
<time>2016-10-07T23:54:07Z</time></trkpt>
<trkpt lat="29.990306" lon="95.321941">
<time>2016-10-07T23:54:08Z</time></trkpt>
<trkpt lat="29.990617" lon="95.321752">
<time>2016-10-07T23:54:09Z</time></trkpt>
<trkpt lat="29.990847" lon="95.321592">
<time>2016-10-07T23:54:10Z</time></trkpt>
<trkpt lat="29.991057" lon="95.321402">
<time>2016-10-07T23:54:11Z</time></trkpt>
<trkpt lat="29.991187" lon="95.321273">
<time>2016-10-07T23:54:12Z</time></trkpt>
<trkpt lat="29.991308" lon="95.321083">
<time>2016-10-07T23:54:13Z</time></trkpt>
<trkpt lat="29.991448" lon="95.320814">
<time>2016-10-07T23:54:14Z</time></trkpt>
<trkpt lat="29.991579" lon="95.320504">
<time>2016-10-07T23:54:15Z</time></trkpt>
<trkpt lat="29.991689" lon="95.320225">
<time>2016-10-07T23:54:16Z</time></trkpt>
<trkpt lat="29.99181" lon="95.319905">
<time>2016-10-07T23:54:17Z</time></trkpt>
<trkpt lat="29.991941" lon="95.319586">
<time>2016-10-07T23:54:18Z</time></trkpt>
<trkpt lat="29.992061" lon="95.319356">
<time>2016-10-07T23:54:19Z</time></trkpt>
<trkpt lat="29.992212" lon="95.319117">
<time>2016-10-07T23:54:20Z</time></trkpt>
<trkpt lat="29.992402" lon="95.318887">
<time>2016-10-07T23:54:21Z</time></trkpt>
<trkpt lat="29.992612" lon="95.318668">
<time>2016-10-07T23:54:22Z</time></trkpt>
<trkpt lat="29.993043" lon="95.318209">
<time>2016-10-07T23:54:23Z</time></trkpt>
<trkpt lat="29.993494" lon="95.31772">
<time>2016-10-07T23:54:24Z</time></trkpt>
<trkpt lat="29.993905" lon="95.317271">
<time>2016-10-07T23:54:25Z</time></trkpt>
<trkpt lat="29.994156" lon="95.316971">
<time>2016-10-07T23:54:26Z</time></trkpt>
<trkpt lat="29.994316" lon="95.316722">
<time>2016-10-07T23:54:27Z</time></trkpt>
<trkpt lat="29.994427" lon="95.316482">
<time>2016-10-07T23:54:28Z</time></trkpt>
<trkpt lat="29.994527" lon="95.316223">
<time>2016-10-07T23:54:29Z</time></trkpt>
<trkpt lat="29.994587" lon="95.316013">
<time>2016-10-07T23:54:30Z</time></trkpt>
<trkpt lat="29.994628" lon="95.315834">
<time>2016-10-07T23:54:31Z</time></trkpt>
<trkpt lat="29.994658" lon="95.315654">
<time>2016-10-07T23:54:32Z</time></trkpt>
<trkpt lat="29.994698" lon="95.315444">
<time>2016-10-07T23:54:33Z</time></trkpt>
<trkpt lat="29.994769" lon="95.315165">
<time>2016-10-07T23:54:34Z</time></trkpt>
<trkpt lat="29.994839" lon="95.314935">
<time>2016-10-07T23:54:35Z</time></trkpt>
<trkpt lat="29.99495" lon="95.314646">
<time>2016-10-07T23:54:36Z</time></trkpt>
<trkpt lat="29.995091" lon="95.314247">
<time>2016-10-07T23:54:37Z</time></trkpt>
<trkpt lat="29.995151" lon="95.314027">
<time>2016-10-07T23:54:38Z</time></trkpt>
<trkpt lat="29.995282" lon="95.313548">
<time>2016-10-07T23:54:39Z</time></trkpt>
<trkpt lat="29.995332" lon="95.313389">
<time>2016-10-07T23:54:40Z</time></trkpt>
<trkpt lat="29.995413" lon="95.313199">
<time>2016-10-07T23:54:41Z</time></trkpt>
<trkpt lat="29.995523" lon="95.313019">
<time>2016-10-07T23:54:42Z</time></trkpt>
<trkpt lat="29.995613" lon="95.31284">
<time>2016-10-07T23:54:43Z</time></trkpt>
<trkpt lat="29.995684" lon="95.31268">
<time>2016-10-07T23:54:44Z</time></trkpt>
<trkpt lat="29.995764" lon="95.31254">
<time>2016-10-07T23:54:45Z</time></trkpt>
<trkpt lat="29.995975" lon="95.312091">
<time>2016-10-07T23:54:46Z</time></trkpt>
<trkpt lat="29.996537" lon="95.310993">
<time>2016-10-07T23:54:47Z</time></trkpt>
<trkpt lat="29.996757" lon="95.310564">
<time>2016-10-07T23:54:48Z</time></trkpt>
<trkpt lat="29.996838" lon="95.310404">
<time>2016-10-07T23:54:49Z</time></trkpt>
<trkpt lat="29.996938" lon="95.310185">
<time>2016-10-07T23:54:50Z</time></trkpt>
<trkpt lat="29.997029" lon="95.309965">
<time>2016-10-07T23:54:51Z</time></trkpt>
<trkpt lat="29.997079" lon="95.309816">
<time>2016-10-07T23:54:52Z</time></trkpt>
<trkpt lat="29.997149" lon="95.309566">
<time>2016-10-07T23:54:53Z</time></trkpt>
<trkpt lat="29.9972" lon="95.309346">
<time>2016-10-07T23:54:54Z</time></trkpt>
<trkpt lat="29.997291" lon="95.308778">
<time>2016-10-07T23:54:55Z</time></trkpt>
<trkpt lat="29.997321" lon="95.308578">
<time>2016-10-07T23:54:56Z</time></trkpt>
<trkpt lat="29.997402" lon="95.308139">
<time>2016-10-07T23:54:57Z</time></trkpt>
<trkpt lat="29.997442" lon="95.307929">
<time>2016-10-07T23:54:58Z</time></trkpt>
<trkpt lat="29.997613" lon="95.30744">
<time>2016-10-07T23:54:59Z</time></trkpt>
<trkpt lat="29.997774" lon="95.306971">
<time>2016-10-07T23:55:00Z</time></trkpt>
<trkpt lat="29.997895" lon="95.306632">
<time>2016-10-07T23:55:01Z</time></trkpt>
<trkpt lat="29.998025" lon="95.306232">
<time>2016-10-07T23:55:02Z</time></trkpt>
<trkpt lat="29.998146" lon="95.305873">
<time>2016-10-07T23:55:03Z</time></trkpt>
<trkpt lat="29.998226" lon="95.305644">
<time>2016-10-07T23:55:04Z</time></trkpt>
<trkpt lat="29.998307" lon="95.305374">
<time>2016-10-07T23:55:05Z</time></trkpt>
<trkpt lat="29.998397" lon="95.305145">
<time>2016-10-07T23:55:06Z</time></trkpt>
<trkpt lat="29.998437" lon="95.305065">
<time>2016-10-07T23:55:07Z</time></trkpt>
<trkpt lat="29.998507" lon="95.304935">
<time>2016-10-07T23:55:08Z</time></trkpt>
<trkpt lat="29.998608" lon="95.304795">
<time>2016-10-07T23:55:09Z</time></trkpt>
<trkpt lat="29.998718" lon="95.304665">
<time>2016-10-07T23:55:10Z</time></trkpt>
<trkpt lat="29.998858" lon="95.304496">
<time>2016-10-07T23:55:11Z</time></trkpt>
<trkpt lat="29.999049" lon="95.304276">
<time>2016-10-07T23:55:12Z</time></trkpt>
<trkpt lat="29.999269" lon="95.304027">
<time>2016-10-07T23:55:13Z</time></trkpt>
<trkpt lat="29.999399" lon="95.303887">
<time>2016-10-07T23:55:14Z</time></trkpt>
<trkpt lat="29.99959" lon="95.303717">
<time>2016-10-07T23:55:15Z</time></trkpt>
<trkpt lat="29.99974" lon="95.303587">
<time>2016-10-07T23:55:16Z</time></trkpt>
<trkpt lat="29.99993" lon="95.303448">
<time>2016-10-07T23:55:17Z</time></trkpt>
<trkpt lat="30.00004" lon="95.303338">
<time>2016-10-07T23:55:18Z</time></trkpt>
<trkpt lat="30.00008" lon="95.303298">
<time>2016-10-07T23:55:19Z</time></trkpt>
<trkpt lat="30.00016" lon="95.303218">
<time>2016-10-07T23:55:20Z</time></trkpt>
<trkpt lat="30.000291" lon="95.303078">
<time>2016-10-07T23:55:21Z</time></trkpt>
<trkpt lat="30.000421" lon="95.302939">
<time>2016-10-07T23:55:22Z</time></trkpt>
<trkpt lat="30.000521" lon="95.302809">
<time>2016-10-07T23:55:23Z</time></trkpt>
<trkpt lat="30.000601" lon="95.302699">
<time>2016-10-07T23:55:24Z</time></trkpt>
<trkpt lat="30.000772" lon="95.302459">
<time>2016-10-07T23:55:25Z</time></trkpt>
<trkpt lat="30.000952" lon="95.3022">
<time>2016-10-07T23:55:26Z</time></trkpt>
<trkpt lat="30.001042" lon="95.30208">
<time>2016-10-07T23:55:27Z</time></trkpt>
<trkpt lat="30.001113" lon="95.30195">
<time>2016-10-07T23:55:28Z</time></trkpt>
<trkpt lat="30.001203" lon="95.301801">
<time>2016-10-07T23:55:29Z</time></trkpt>
<trkpt lat="30.001303" lon="95.301601">
<time>2016-10-07T23:55:30Z</time></trkpt>
<trkpt lat="30.001353" lon="95.301491">
<time>2016-10-07T23:55:31Z</time></trkpt>
<trkpt lat="30.001424" lon="95.301361">
<time>2016-10-07T23:55:32Z</time></trkpt>
<trkpt lat="30.001524" lon="95.301222">
<time>2016-10-07T23:55:33Z</time></trkpt>
<trkpt lat="30.001624" lon="95.301092">
<time>2016-10-07T23:55:34Z</time></trkpt>
<trkpt lat="30.001744" lon="95.300942">
<time>2016-10-07T23:55:35Z</time></trkpt>
<trkpt lat="30.001814" lon="95.300822">
<time>2016-10-07T23:55:36Z</time></trkpt>
<trkpt lat="30.001855" lon="95.300763">
<time>2016-10-07T23:55:37Z</time></trkpt>
<trkpt lat="30.001895" lon="95.300673">
<time>2016-10-07T23:55:38Z</time></trkpt>
<trkpt lat="30.001925" lon="95.300603">
<time>2016-10-07T23:55:39Z</time></trkpt>
<trkpt lat="30.001975" lon="95.300483">
<time>2016-10-07T23:55:40Z</time></trkpt>
<trkpt lat="30.002065" lon="95.300273">
<time>2016-10-07T23:55:41Z</time></trkpt>
<trkpt lat="30.002146" lon="95.300044">
<time>2016-10-07T23:55:42Z</time></trkpt>
<trkpt lat="30.002246" lon="95.299774">
<time>2016-10-07T23:55:43Z</time></trkpt>
<trkpt lat="30.002347" lon="95.299525">
<time>2016-10-07T23:55:44Z</time></trkpt>
<trkpt lat="30.002457" lon="95.299195">
<time>2016-10-07T23:55:45Z</time></trkpt>
<trkpt lat="30.002537" lon="95.299006">
<time>2016-10-07T23:55:46Z</time></trkpt>
<trkpt lat="30.002578" lon="95.298916">
<time>2016-10-07T23:55:47Z</time></trkpt>
<trkpt lat="30.002628" lon="95.298836">
<time>2016-10-07T23:55:48Z</time></trkpt>
<trkpt lat="30.002718" lon="95.298726">
<time>2016-10-07T23:55:49Z</time></trkpt>
<trkpt lat="30.002898" lon="95.298556">
<time>2016-10-07T23:55:50Z</time></trkpt>
<trkpt lat="30.002968" lon="95.298497">
<time>2016-10-07T23:55:51Z</time></trkpt>
<trkpt lat="30.003129" lon="95.298367">
<time>2016-10-07T23:55:52Z</time></trkpt>
<trkpt lat="30.003229" lon="95.298257">
<time>2016-10-07T23:55:53Z</time></trkpt>
<trkpt lat="30.003299" lon="95.298167">
<time>2016-10-07T23:55:54Z</time></trkpt>
<trkpt lat="30.003369" lon="95.298067">
<time>2016-10-07T23:55:55Z</time></trkpt>
<trkpt lat="30.003439" lon="95.297957">
<time>2016-10-07T23:55:56Z</time></trkpt>
<trkpt lat="30.003519" lon="95.297798">
<time>2016-10-07T23:55:57Z</time></trkpt>
<trkpt lat="30.00361" lon="95.297638">
<time>2016-10-07T23:55:58Z</time></trkpt>
<trkpt lat="30.00369" lon="95.297518">
<time>2016-10-07T23:55:59Z</time></trkpt>
<trkpt lat="30.00394" lon="95.297239">
<time>2016-10-07T23:56:00Z</time></trkpt>
<trkpt lat="30.004231" lon="95.296949">
<time>2016-10-07T23:56:01Z</time></trkpt>
<trkpt lat="30.004461" lon="95.29672">
<time>2016-10-07T23:56:02Z</time></trkpt>
<trkpt lat="30.004541" lon="95.29665">
<time>2016-10-07T23:56:03Z</time></trkpt>
<trkpt lat="30.004611" lon="95.2966">
<time>2016-10-07T23:56:04Z</time></trkpt>
<trkpt lat="30.004711" lon="95.29655">
<time>2016-10-07T23:56:05Z</time></trkpt>
<trkpt lat="30.004771" lon="95.29653">
<time>2016-10-07T23:56:06Z</time></trkpt>
<trkpt lat="30.004871" lon="95.2965">
<time>2016-10-07T23:56:07Z</time></trkpt>
<trkpt lat="30.004971" lon="95.29649">
<time>2016-10-07T23:56:08Z</time></trkpt>
<trkpt lat="30.005292" lon="95.29645">
<time>2016-10-07T23:56:09Z</time></trkpt>
<trkpt lat="30.005532" lon="95.29644">
<time>2016-10-07T23:56:10Z</time></trkpt>
<trkpt lat="30.005732" lon="95.29644">
<time>2016-10-07T23:56:11Z</time></trkpt>
<trkpt lat="30.005922" lon="95.29644">
<time>2016-10-07T23:56:12Z</time></trkpt>
<trkpt lat="30.006112" lon="95.29646">
<time>2016-10-07T23:56:13Z</time></trkpt>
<trkpt lat="30.006482" lon="95.29648">
<time>2016-10-07T23:56:14Z</time></trkpt>
<trkpt lat="30.006592" lon="95.29649">
<time>2016-10-07T23:56:15Z</time></trkpt>
<trkpt lat="30.006692" lon="95.2965">
<time>2016-10-07T23:56:16Z</time></trkpt>
<trkpt lat="30.006761" lon="95.29651">
<time>2016-10-07T23:56:17Z</time></trkpt>
<trkpt lat="30.006821" lon="95.29653">
<time>2016-10-07T23:56:18Z</time></trkpt>
<trkpt lat="30.006971" lon="95.29657">
<time>2016-10-07T23:56:19Z</time></trkpt>
<trkpt lat="30.007081" lon="95.29662">
<time>2016-10-07T23:56:20Z</time></trkpt>
<trkpt lat="30.007201" lon="95.29667">
<time>2016-10-07T23:56:21Z</time></trkpt>
<trkpt lat="30.007421" lon="95.296809">
<time>2016-10-07T23:56:22Z</time></trkpt>
<trkpt lat="30.007611" lon="95.296959">
<time>2016-10-07T23:56:23Z</time></trkpt>
<trkpt lat="30.00813" lon="95.297328">
<time>2016-10-07T23:56:24Z</time></trkpt>
<trkpt lat="30.00851" lon="95.297578">
<time>2016-10-07T23:56:25Z</time></trkpt>
<trkpt lat="30.0087" lon="95.297728">
<time>2016-10-07T23:56:26Z</time></trkpt>
<trkpt lat="30.008799" lon="95.297818">
<time>2016-10-07T23:56:27Z</time></trkpt>
<trkpt lat="30.008909" lon="95.297947">
<time>2016-10-07T23:56:28Z</time></trkpt>
<trkpt lat="30.009119" lon="95.298197">
<time>2016-10-07T23:56:29Z</time></trkpt>
<trkpt lat="30.009259" lon="95.298317">
<time>2016-10-07T23:56:30Z</time></trkpt>
<trkpt lat="30.009508" lon="95.298486">
<time>2016-10-07T23:56:31Z</time></trkpt>
<trkpt lat="30.009878" lon="95.298756">
<time>2016-10-07T23:56:32Z</time></trkpt>
<trkpt lat="30.010308" lon="95.299025">
<time>2016-10-07T23:56:33Z</time></trkpt>
<trkpt lat="30.010707" lon="95.299265">
<time>2016-10-07T23:56:34Z</time></trkpt>
<trkpt lat="30.010857" lon="95.299365">
<time>2016-10-07T23:56:35Z</time></trkpt>
<trkpt lat="30.010967" lon="95.299435">
<time>2016-10-07T23:56:36Z</time></trkpt>
<trkpt lat="30.010997" lon="95.299455">
<time>2016-10-07T23:56:37Z</time></trkpt>
<trkpt lat="30.011067" lon="95.299485">
<time>2016-10-07T23:56:38Z</time></trkpt>
<trkpt lat="30.011117" lon="95.299505">
<time>2016-10-07T23:56:39Z</time></trkpt>
<trkpt lat="30.011177" lon="95.299525">
<time>2016-10-07T23:56:40Z</time></trkpt>
<trkpt lat="30.011257" lon="95.299554">
<time>2016-10-07T23:56:41Z</time></trkpt>
<trkpt lat="30.011337" lon="95.299574">
<time>2016-10-07T23:56:42Z</time></trkpt>
<trkpt lat="30.011407" lon="95.299584">
<time>2016-10-07T23:56:43Z</time></trkpt>
<trkpt lat="30.011487" lon="95.299594">
<time>2016-10-07T23:56:44Z</time></trkpt>
<trkpt lat="30.011587" lon="95.299584">
<time>2016-10-07T23:56:45Z</time></trkpt>
<trkpt lat="30.011687" lon="95.299574">
<time>2016-10-07T23:56:46Z</time></trkpt>
<trkpt lat="30.011797" lon="95.299544">
<time>2016-10-07T23:56:47Z</time></trkpt>
<trkpt lat="30.011977" lon="95.299495">
<time>2016-10-07T23:56:48Z</time></trkpt>
<trkpt lat="30.012067" lon="95.299465">
<time>2016-10-07T23:56:49Z</time></trkpt>
<trkpt lat="30.012137" lon="95.299435">
<time>2016-10-07T23:56:50Z</time></trkpt>
<trkpt lat="30.012197" lon="95.299405">
<time>2016-10-07T23:56:51Z</time></trkpt>
<trkpt lat="30.012277" lon="95.299355">
<time>2016-10-07T23:56:52Z</time></trkpt>
<trkpt lat="30.012367" lon="95.299305">
<time>2016-10-07T23:56:53Z</time></trkpt>
<trkpt lat="30.012507" lon="95.299195">
<time>2016-10-07T23:56:54Z</time></trkpt>
<trkpt lat="30.012647" lon="95.299075">
<time>2016-10-07T23:56:55Z</time></trkpt>
<trkpt lat="30.012988" lon="95.298796">
<time>2016-10-07T23:56:56Z</time></trkpt>
<trkpt lat="30.013248" lon="95.298586">
<time>2016-10-07T23:56:57Z</time></trkpt>
<trkpt lat="30.013469" lon="95.298396">
<time>2016-10-07T23:56:58Z</time></trkpt>
<trkpt lat="30.013709" lon="95.298187">
<time>2016-10-07T23:56:59Z</time></trkpt>
<trkpt lat="30.013969" lon="95.297977">
<time>2016-10-07T23:57:00Z</time></trkpt>
<trkpt lat="30.01421" lon="95.297768">
<time>2016-10-07T23:57:01Z</time></trkpt>
<trkpt lat="30.01442" lon="95.297598">
<time>2016-10-07T23:57:02Z</time></trkpt>
<trkpt lat="30.01464" lon="95.297408">
<time>2016-10-07T23:57:03Z</time></trkpt>
<trkpt lat="30.014961" lon="95.297139">
<time>2016-10-07T23:57:04Z</time></trkpt>
<trkpt lat="30.015201" lon="95.296939">
<time>2016-10-07T23:57:05Z</time></trkpt>
<trkpt lat="30.015461" lon="95.296719">
<time>2016-10-07T23:57:06Z</time></trkpt>
<trkpt lat="30.015762" lon="95.29647">
<time>2016-10-07T23:57:07Z</time></trkpt>
<trkpt lat="30.016072" lon="95.29621">
<time>2016-10-07T23:57:08Z</time></trkpt>
<trkpt lat="30.016473" lon="95.295871">
<time>2016-10-07T23:57:09Z</time></trkpt>
<trkpt lat="30.016733" lon="95.295641">
<time>2016-10-07T23:57:10Z</time></trkpt>
<trkpt lat="30.017144" lon="95.295292">
<time>2016-10-07T23:57:11Z</time></trkpt>
<trkpt lat="30.017364" lon="95.295122">
<time>2016-10-07T23:57:12Z</time></trkpt>
<trkpt lat="30.017444" lon="95.295042">
<time>2016-10-07T23:57:13Z</time></trkpt>
<trkpt lat="30.017514" lon="95.294982">
<time>2016-10-07T23:57:14Z</time></trkpt>
<trkpt lat="30.017584" lon="95.294892">
<time>2016-10-07T23:57:15Z</time></trkpt>
<trkpt lat="30.017624" lon="95.294842">
<time>2016-10-07T23:57:16Z</time></trkpt>
<trkpt lat="30.017674" lon="95.294773">
<time>2016-10-07T23:57:17Z</time></trkpt>
<trkpt lat="30.017755" lon="95.294593">
<time>2016-10-07T23:57:18Z</time></trkpt>
<trkpt lat="30.017815" lon="95.294463">
<time>2016-10-07T23:57:19Z</time></trkpt>
<trkpt lat="30.017935" lon="95.294144">
<time>2016-10-07T23:57:20Z</time></trkpt>
<trkpt lat="30.018036" lon="95.293894">
<time>2016-10-07T23:57:21Z</time></trkpt>
<trkpt lat="30.018116" lon="95.293704">
<time>2016-10-07T23:57:22Z</time></trkpt>
<trkpt lat="30.018156" lon="95.293604">
<time>2016-10-07T23:57:23Z</time></trkpt>
<trkpt lat="30.018196" lon="95.293535">
<time>2016-10-07T23:57:24Z</time></trkpt>
<trkpt lat="30.018226" lon="95.293485">
<time>2016-10-07T23:57:25Z</time></trkpt>
<trkpt lat="30.018256" lon="95.293435">
<time>2016-10-07T23:57:26Z</time></trkpt>
<trkpt lat="30.018286" lon="95.293385">
<time>2016-10-07T23:57:27Z</time></trkpt>
<trkpt lat="30.018337" lon="95.293325">
<time>2016-10-07T23:57:28Z</time></trkpt>
<trkpt lat="30.018377" lon="95.293285">
<time>2016-10-07T23:57:29Z</time></trkpt>
<trkpt lat="30.018417" lon="95.293255">
<time>2016-10-07T23:57:30Z</time></trkpt>
<trkpt lat="30.018447" lon="95.293235">
<time>2016-10-07T23:57:31Z</time></trkpt>
<trkpt lat="30.018487" lon="95.293215">
<time>2016-10-07T23:57:32Z</time></trkpt>
<trkpt lat="30.018527" lon="95.293195">
<time>2016-10-07T23:57:33Z</time></trkpt>
<trkpt lat="30.018587" lon="95.293175">
<time>2016-10-07T23:57:34Z</time></trkpt>
<trkpt lat="30.018647" lon="95.293165">
<time>2016-10-07T23:57:35Z</time></trkpt>
<trkpt lat="30.018697" lon="95.293155">
<time>2016-10-07T23:57:36Z</time></trkpt>
<trkpt lat="30.018797" lon="95.293165">
<time>2016-10-07T23:57:37Z</time></trkpt>
<trkpt lat="30.018867" lon="95.293165">
<time>2016-10-07T23:57:38Z</time></trkpt>
<trkpt lat="30.019067" lon="95.293185">
<time>2016-10-07T23:57:39Z</time></trkpt>
<trkpt lat="30.019267" lon="95.293215">
<time>2016-10-07T23:57:40Z</time></trkpt>
<trkpt lat="30.019717" lon="95.293265">
<time>2016-10-07T23:57:41Z</time></trkpt>
<trkpt lat="30.020117" lon="95.293315">
<time>2016-10-07T23:57:42Z</time></trkpt>
<trkpt lat="30.020516" lon="95.293365">
<time>2016-10-07T23:57:43Z</time></trkpt>
<trkpt lat="30.020976" lon="95.293425">
<time>2016-10-07T23:57:44Z</time></trkpt>
<trkpt lat="30.021156" lon="95.293435">
<time>2016-10-07T23:57:45Z</time></trkpt>
<trkpt lat="30.021196" lon="95.293445">
<time>2016-10-07T23:57:46Z</time></trkpt>
<trkpt lat="30.021236" lon="95.293445">
<time>2016-10-07T23:57:47Z</time></trkpt>
<trkpt lat="30.021296" lon="95.293435">
<time>2016-10-07T23:57:48Z</time></trkpt>
<trkpt lat="30.021336" lon="95.293425">
<time>2016-10-07T23:57:49Z</time></trkpt>
<trkpt lat="30.021376" lon="95.293405">
<time>2016-10-07T23:57:50Z</time></trkpt>
<trkpt lat="30.021406" lon="95.293395">
<time>2016-10-07T23:57:51Z</time></trkpt>
<trkpt lat="30.021446" lon="95.293375">
<time>2016-10-07T23:57:52Z</time></trkpt>
<trkpt lat="30.021477" lon="95.293345">
<time>2016-10-07T23:57:53Z</time></trkpt>
<trkpt lat="30.021527" lon="95.293295">
<time>2016-10-07T23:57:54Z</time></trkpt>
<trkpt lat="30.021557" lon="95.293255">
<time>2016-10-07T23:57:55Z</time></trkpt>
<trkpt lat="30.021587" lon="95.293195">
<time>2016-10-07T23:57:56Z</time></trkpt>
<trkpt lat="30.021607" lon="95.293155">
<time>2016-10-07T23:57:57Z</time></trkpt>
<trkpt lat="30.021627" lon="95.293105">
<time>2016-10-07T23:57:58Z</time></trkpt>
<trkpt lat="30.021647" lon="95.293035">
<time>2016-10-07T23:57:59Z</time></trkpt>
<trkpt lat="30.021707" lon="95.292806">
<time>2016-10-07T23:58:00Z</time></trkpt>
<trkpt lat="30.021778" lon="95.292496">
<time>2016-10-07T23:58:01Z</time></trkpt>
<trkpt lat="30.021838" lon="95.292227">
<time>2016-10-07T23:58:02Z</time></trkpt>
<trkpt lat="30.021898" lon="95.292017">
<time>2016-10-07T23:58:03Z</time></trkpt>
<trkpt lat="30.021939" lon="95.291837">
<time>2016-10-07T23:58:04Z</time></trkpt>
<trkpt lat="30.021989" lon="95.291657">
<time>2016-10-07T23:58:05Z</time></trkpt>
<trkpt lat="30.022019" lon="95.291578">
<time>2016-10-07T23:58:06Z</time></trkpt>
<trkpt lat="30.022039" lon="95.291518">
<time>2016-10-07T23:58:07Z</time></trkpt>
<trkpt lat="30.022079" lon="95.291408">
<time>2016-10-07T23:58:08Z</time></trkpt>
<trkpt lat="30.022119" lon="95.291338">
<time>2016-10-07T23:58:09Z</time></trkpt>
<trkpt lat="30.02218" lon="95.291228">
<time>2016-10-07T23:58:10Z</time></trkpt>
<trkpt lat="30.02221" lon="95.291178">
<time>2016-10-07T23:58:11Z</time></trkpt>
<trkpt lat="30.02227" lon="95.291078">
<time>2016-10-07T23:58:12Z</time></trkpt>
<trkpt lat="30.02236" lon="95.290949">
<time>2016-10-07T23:58:13Z</time></trkpt>
<trkpt lat="30.02248" lon="95.290789">
<time>2016-10-07T23:58:14Z</time></trkpt>
<trkpt lat="30.02255" lon="95.290659">
<time>2016-10-07T23:58:15Z</time></trkpt>
<trkpt lat="30.022591" lon="95.290569">
<time>2016-10-07T23:58:16Z</time></trkpt>
<trkpt lat="30.022621" lon="95.290499">
<time>2016-10-07T23:58:17Z</time></trkpt>
<trkpt lat="30.022631" lon="95.290459">
<time>2016-10-07T23:58:18Z</time></trkpt>
<trkpt lat="30.022641" lon="95.290399">
<time>2016-10-07T23:58:19Z</time></trkpt>
<trkpt lat="30.022651" lon="95.29034">
<time>2016-10-07T23:58:20Z</time></trkpt>
<trkpt lat="30.022661" lon="95.29024">
<time>2016-10-07T23:58:21Z</time></trkpt>
<trkpt lat="30.022661" lon="95.29013">
<time>2016-10-07T23:58:22Z</time></trkpt>
<trkpt lat="30.022622" lon="95.289581">
<time>2016-10-07T23:58:23Z</time></trkpt>
<trkpt lat="30.022622" lon="95.289411">
<time>2016-10-07T23:58:24Z</time></trkpt>
<trkpt lat="30.022593" lon="95.288982">
<time>2016-10-07T23:58:25Z</time></trkpt>
<trkpt lat="30.022583" lon="95.288762">
<time>2016-10-07T23:58:26Z</time></trkpt>
<trkpt lat="30.022563" lon="95.288472">
<time>2016-10-07T23:58:27Z</time></trkpt>
<trkpt lat="30.022564" lon="95.288283">
<time>2016-10-07T23:58:28Z</time></trkpt>
<trkpt lat="30.022564" lon="95.288063">
<time>2016-10-07T23:58:29Z</time></trkpt>
<trkpt lat="30.022564" lon="95.287933">
<time>2016-10-07T23:58:30Z</time></trkpt>
<trkpt lat="30.022584" lon="95.287733">
<time>2016-10-07T23:58:31Z</time></trkpt>
<trkpt lat="30.022615" lon="95.287494">
<time>2016-10-07T23:58:32Z</time></trkpt>
<trkpt lat="30.022645" lon="95.287344">
<time>2016-10-07T23:58:33Z</time></trkpt>
<trkpt lat="30.022665" lon="95.287224">
<time>2016-10-07T23:58:34Z</time></trkpt>
<trkpt lat="30.022695" lon="95.287084">
<time>2016-10-07T23:58:35Z</time></trkpt>
<trkpt lat="30.022726" lon="95.286925">
<time>2016-10-07T23:58:36Z</time></trkpt>
<trkpt lat="30.022776" lon="95.286755">
<time>2016-10-07T23:58:37Z</time></trkpt>
<trkpt lat="30.022836" lon="95.286535">
<time>2016-10-07T23:58:38Z</time></trkpt>
<trkpt lat="30.022896" lon="95.286295">
<time>2016-10-07T23:58:39Z</time></trkpt>
<trkpt lat="30.022997" lon="95.285966">
<time>2016-10-07T23:58:40Z</time></trkpt>
<trkpt lat="30.023127" lon="95.285477">
<time>2016-10-07T23:58:41Z</time></trkpt>
<trkpt lat="30.023208" lon="95.285157">
<time>2016-10-07T23:58:42Z</time></trkpt>
<trkpt lat="30.023248" lon="95.285017">
<time>2016-10-07T23:58:43Z</time></trkpt>
<trkpt lat="30.023359" lon="95.284638">
<time>2016-10-07T23:58:44Z</time></trkpt>
<trkpt lat="30.023439" lon="95.284368">
<time>2016-10-07T23:58:45Z</time></trkpt>
<trkpt lat="30.023479" lon="95.284238">
<time>2016-10-07T23:58:46Z</time></trkpt>
<trkpt lat="30.023519" lon="95.284118">
<time>2016-10-07T23:58:47Z</time></trkpt>
<trkpt lat="30.023569" lon="95.283999">
<time>2016-10-07T23:58:48Z</time></trkpt>
<trkpt lat="30.02363" lon="95.283829">
<time>2016-10-07T23:58:49Z</time></trkpt>
<trkpt lat="30.02378" lon="95.283449">
<time>2016-10-07T23:58:50Z</time></trkpt>
<trkpt lat="30.02384" lon="95.28331">
<time>2016-10-07T23:58:51Z</time></trkpt>
<trkpt lat="30.023931" lon="95.28306">
<time>2016-10-07T23:58:52Z</time></trkpt>
<trkpt lat="30.024001" lon="95.28286">
<time>2016-10-07T23:58:53Z</time></trkpt>
<trkpt lat="30.024061" lon="95.28267">
<time>2016-10-07T23:58:54Z</time></trkpt>
<trkpt lat="30.024091" lon="95.282531">
<time>2016-10-07T23:58:55Z</time></trkpt>
<trkpt lat="30.024111" lon="95.282461">
<time>2016-10-07T23:58:56Z</time></trkpt>
<trkpt lat="30.024131" lon="95.282371">
<time>2016-10-07T23:58:57Z</time></trkpt>
<trkpt lat="30.024162" lon="95.282151">
<time>2016-10-07T23:58:58Z</time></trkpt>
<trkpt lat="30.024192" lon="95.281931">
<time>2016-10-07T23:58:59Z</time></trkpt>
<trkpt lat="30.024252" lon="95.281522">
<time>2016-10-07T23:59:00Z</time></trkpt>
<trkpt lat="30.024303" lon="95.281232">
<time>2016-10-07T23:59:01Z</time></trkpt>
<trkpt lat="30.024333" lon="95.281062">
<time>2016-10-07T23:59:02Z</time></trkpt>
<trkpt lat="30.024363" lon="95.280903">
<time>2016-10-07T23:59:03Z</time></trkpt>
<trkpt lat="30.024383" lon="95.280803">
<time>2016-10-07T23:59:04Z</time></trkpt>
<trkpt lat="30.024423" lon="95.280693">
<time>2016-10-07T23:59:05Z</time></trkpt>
<trkpt lat="30.024473" lon="95.280563">
<time>2016-10-07T23:59:06Z</time></trkpt>
<trkpt lat="30.024534" lon="95.280443">
<time>2016-10-07T23:59:07Z</time></trkpt>
<trkpt lat="30.024594" lon="95.280333">
<time>2016-10-07T23:59:08Z</time></trkpt>
<trkpt lat="30.024654" lon="95.280233">
<time>2016-10-07T23:59:09Z</time></trkpt>
<trkpt lat="30.024684" lon="95.280154">
<time>2016-10-07T23:59:10Z</time></trkpt>
<trkpt lat="30.024704" lon="95.280094">
<time>2016-10-07T23:59:11Z</time></trkpt>
<trkpt lat="30.024724" lon="95.280024">
<time>2016-10-07T23:59:12Z</time></trkpt>
<trkpt lat="30.024744" lon="95.279894">
<time>2016-10-07T23:59:13Z</time></trkpt>
<trkpt lat="30.024764" lon="95.279744">
<time>2016-10-07T23:59:14Z</time></trkpt>
<trkpt lat="30.024775" lon="95.279544">
<time>2016-10-07T23:59:15Z</time></trkpt>
<trkpt lat="30.024755" lon="95.279225">
<time>2016-10-07T23:59:16Z</time></trkpt>
<trkpt lat="30.024735" lon="95.279035">
<time>2016-10-07T23:59:17Z</time></trkpt>
<trkpt lat="30.024695" lon="95.278875">
<time>2016-10-07T23:59:18Z</time></trkpt>
<trkpt lat="30.024665" lon="95.278775">
<time>2016-10-07T23:59:19Z</time></trkpt>
<trkpt lat="30.024626" lon="95.278655">
<time>2016-10-07T23:59:20Z</time></trkpt>
<trkpt lat="30.024576" lon="95.278525">
<time>2016-10-07T23:59:21Z</time></trkpt>
<trkpt lat="30.024516" lon="95.278356">
<time>2016-10-07T23:59:22Z</time></trkpt>
<trkpt lat="30.024506" lon="95.278306">
<time>2016-10-07T23:59:23Z</time></trkpt>
<trkpt lat="30.024506" lon="95.278236">
<time>2016-10-07T23:59:24Z</time></trkpt>
<trkpt lat="30.024506" lon="95.278096">
<time>2016-10-07T23:59:25Z</time></trkpt>
<trkpt lat="30.024526" lon="95.277876">
<time>2016-10-07T23:59:26Z</time></trkpt>
<trkpt lat="30.024557" lon="95.277646">
<time>2016-10-07T23:59:27Z</time></trkpt>
<trkpt lat="30.024587" lon="95.277467">
<time>2016-10-07T23:59:28Z</time></trkpt>
<trkpt lat="30.024617" lon="95.277297">
<time>2016-10-07T23:59:29Z</time></trkpt>
<trkpt lat="30.024677" lon="95.277107">
<time>2016-10-07T23:59:30Z</time></trkpt>
<trkpt lat="30.024767" lon="95.276847">
<time>2016-10-07T23:59:31Z</time></trkpt>
<trkpt lat="30.024858" lon="95.276638">
<time>2016-10-07T23:59:32Z</time></trkpt>
<trkpt lat="30.024958" lon="95.276438">
<time>2016-10-07T23:59:33Z</time></trkpt>
<trkpt lat="30.025038" lon="95.276308">
<time>2016-10-07T23:59:34Z</time></trkpt>
<trkpt lat="30.025198" lon="95.276098">
<time>2016-10-07T23:59:35Z</time></trkpt>
<trkpt lat="30.025469" lon="95.275779">
<time>2016-10-07T23:59:36Z</time></trkpt>
<trkpt lat="30.025689" lon="95.275549">
<time>2016-10-07T23:59:37Z</time></trkpt>
<trkpt lat="30.025799" lon="95.275459">
<time>2016-10-07T23:59:38Z</time></trkpt>
<trkpt lat="30.025899" lon="95.275399">
<time>2016-10-07T23:59:39Z</time></trkpt>
<trkpt lat="30.026049" lon="95.275309">
<time>2016-10-07T23:59:40Z</time></trkpt>
<trkpt lat="30.026279" lon="95.275199">
<time>2016-10-07T23:59:41Z</time></trkpt>
<trkpt lat="30.026679" lon="95.274999">
<time>2016-10-07T23:59:42Z</time></trkpt>
<trkpt lat="30.026849" lon="95.274909">
<time>2016-10-07T23:59:43Z</time></trkpt>
<trkpt lat="30.026969" lon="95.274829">
<time>2016-10-07T23:59:44Z</time></trkpt>
<trkpt lat="30.0271" lon="95.27471">
<time>2016-10-07T23:59:45Z</time></trkpt>
<trkpt lat="30.02717" lon="95.27463">
<time>2016-10-07T23:59:46Z</time></trkpt>
<trkpt lat="30.02726" lon="95.27454">
<time>2016-10-07T23:59:47Z</time></trkpt>
<trkpt lat="30.02744" lon="95.27431">
<time>2016-10-07T23:59:48Z</time></trkpt>
<trkpt lat="30.02759" lon="95.27413">
<time>2016-10-07T23:59:49Z</time></trkpt>
<trkpt lat="30.02771" lon="95.27397">
<time>2016-10-07T23:59:50Z</time></trkpt>
<trkpt lat="30.0278" lon="95.27385">
<time>2016-10-07T23:59:51Z</time></trkpt>
<trkpt lat="30.027871" lon="95.273731">
<time>2016-10-07T23:59:52Z</time></trkpt>
<trkpt lat="30.027961" lon="95.273581">
<time>2016-10-07T23:59:53Z</time></trkpt>
<trkpt lat="30.028111" lon="95.273281">
<time>2016-10-07T23:59:54Z</time></trkpt>
<trkpt lat="30.028261" lon="95.272901">
<time>2016-10-07T23:59:55Z</time></trkpt>
<trkpt lat="30.028432" lon="95.272472">
<time>2016-10-07T23:59:56Z</time></trkpt>
<trkpt lat="30.028502" lon="95.272302">
<time>2016-10-07T23:59:57Z</time></trkpt>
<trkpt lat="30.028662" lon="95.271862">
<time>2016-10-07T23:59:58Z</time></trkpt>
<trkpt lat="30.028833" lon="95.271393">
<time>2016-10-07T23:59:59Z</time></trkpt>
<trkpt lat="30.028913" lon="95.271173">
<time>2016-10-08T00:00:00Z</time></trkpt>
<trkpt lat="30.028963" lon="95.270983">
<time>2016-10-08T00:00:01Z</time></trkpt>
<trkpt lat="30.029023" lon="95.270813">
<time>2016-10-08T00:00:02Z</time></trkpt>
<trkpt lat="30.029083" lon="95.270663">
<time>2016-10-08T00:00:03Z</time></trkpt>
<trkpt lat="30.029183" lon="95.270494">
<time>2016-10-08T00:00:04Z</time></trkpt>
<trkpt lat="30.029303" lon="95.270344">
<time>2016-10-08T00:00:05Z</time></trkpt>
<trkpt lat="30.029404" lon="95.270234">
<time>2016-10-08T00:00:06Z</time></trkpt>
<trkpt lat="30.029554" lon="95.270104">
<time>2016-10-08T00:00:07Z</time></trkpt>
<trkpt lat="30.029674" lon="95.269994">
<time>2016-10-08T00:00:08Z</time></trkpt>
<trkpt lat="30.029814" lon="95.269894">
<time>2016-10-08T00:00:09Z</time></trkpt>
<trkpt lat="30.029894" lon="95.269844">
<time>2016-10-08T00:00:10Z</time></trkpt>
<trkpt lat="30.030104" lon="95.269734">
<time>2016-10-08T00:00:11Z</time></trkpt>
<trkpt lat="30.030364" lon="95.269604">
<time>2016-10-08T00:00:12Z</time></trkpt>
<trkpt lat="30.030634" lon="95.269474">
<time>2016-10-08T00:00:13Z</time></trkpt>
<trkpt lat="30.030814" lon="95.269394">
<time>2016-10-08T00:00:14Z</time></trkpt>
<trkpt lat="30.030924" lon="95.269354">
<time>2016-10-08T00:00:15Z</time></trkpt>
<trkpt lat="30.031054" lon="95.269304">
<time>2016-10-08T00:00:16Z</time></trkpt>
<trkpt lat="30.031184" lon="95.269284">
<time>2016-10-08T00:00:17Z</time></trkpt>
<trkpt lat="30.031324" lon="95.269294">
<time>2016-10-08T00:00:18Z</time></trkpt>
<trkpt lat="30.031444" lon="95.269314">
<time>2016-10-08T00:00:19Z</time></trkpt>
<trkpt lat="30.031684" lon="95.269384">
<time>2016-10-08T00:00:20Z</time></trkpt>
<trkpt lat="30.032204" lon="95.269524">
<time>2016-10-08T00:00:21Z</time></trkpt>
<trkpt lat="30.032714" lon="95.269674">
<time>2016-10-08T00:00:22Z</time></trkpt>
<trkpt lat="30.033184" lon="95.269794">
<time>2016-10-08T00:00:23Z</time></trkpt>
<trkpt lat="30.033694" lon="95.269954">
<time>2016-10-08T00:00:24Z</time></trkpt>
<trkpt lat="30.033924" lon="95.270014">
<time>2016-10-08T00:00:25Z</time></trkpt>
<trkpt lat="30.034094" lon="95.270074">
<time>2016-10-08T00:00:26Z</time></trkpt>
<trkpt lat="30.034304" lon="95.270164">
<time>2016-10-08T00:00:27Z</time></trkpt>
<trkpt lat="30.034464" lon="95.270244">
<time>2016-10-08T00:00:28Z</time></trkpt>
<trkpt lat="30.034793" lon="95.270403">
<time>2016-10-08T00:00:29Z</time></trkpt>
<trkpt lat="30.035013" lon="95.270493">
<time>2016-10-08T00:00:30Z</time></trkpt>
<trkpt lat="30.035143" lon="95.270533">
<time>2016-10-08T00:00:31Z</time></trkpt>
<trkpt lat="30.035233" lon="95.270553">
<time>2016-10-08T00:00:32Z</time></trkpt>
<trkpt lat="30.035393" lon="95.270563">
<time>2016-10-08T00:00:33Z</time></trkpt>
<trkpt lat="30.035503" lon="95.270553">
<time>2016-10-08T00:00:34Z</time></trkpt>
<trkpt lat="30.035613" lon="95.270543">
<time>2016-10-08T00:00:35Z</time></trkpt>
<trkpt lat="30.036063" lon="95.270463">
<time>2016-10-08T00:00:36Z</time></trkpt>
<trkpt lat="30.036303" lon="95.270423">
<time>2016-10-08T00:00:37Z</time></trkpt>
<trkpt lat="30.036484" lon="95.270383">
<time>2016-10-08T00:00:38Z</time></trkpt>
<trkpt lat="30.036604" lon="95.270334">
<time>2016-10-08T00:00:39Z</time></trkpt>
<trkpt lat="30.036694" lon="95.270284">
<time>2016-10-08T00:00:40Z</time></trkpt>
<trkpt lat="30.036814" lon="95.270204">
<time>2016-10-08T00:00:41Z</time></trkpt>
<trkpt lat="30.036894" lon="95.270134">
<time>2016-10-08T00:00:42Z</time></trkpt>
<trkpt lat="30.037074" lon="95.269974">
<time>2016-10-08T00:00:43Z</time></trkpt>
<trkpt lat="30.037234" lon="95.269824">
<time>2016-10-08T00:00:44Z</time></trkpt>
<trkpt lat="30.037314" lon="95.269744">
<time>2016-10-08T00:00:45Z</time></trkpt>
<trkpt lat="30.037374" lon="95.269664">
<time>2016-10-08T00:00:46Z</time></trkpt>
<trkpt lat="30.037404" lon="95.269614">
<time>2016-10-08T00:00:47Z</time></trkpt>
<trkpt lat="30.037444" lon="95.269544">
<time>2016-10-08T00:00:48Z</time></trkpt>
<trkpt lat="30.037474" lon="95.269454">
<time>2016-10-08T00:00:49Z</time></trkpt>
<trkpt lat="30.037514" lon="95.269324">
<time>2016-10-08T00:00:50Z</time></trkpt>
<trkpt lat="30.037565" lon="95.268915">
<time>2016-10-08T00:00:51Z</time></trkpt>
<trkpt lat="30.037615" lon="95.268495">
<time>2016-10-08T00:00:52Z</time></trkpt>
<trkpt lat="30.037635" lon="95.268345">
<time>2016-10-08T00:00:53Z</time></trkpt>
<trkpt lat="30.037635" lon="95.268185">
<time>2016-10-08T00:00:54Z</time></trkpt>
<trkpt lat="30.037625" lon="95.268085">
<time>2016-10-08T00:00:55Z</time></trkpt>
<trkpt lat="30.037615" lon="95.267995">
<time>2016-10-08T00:00:56Z</time></trkpt>
<trkpt lat="30.037536" lon="95.267686">
<time>2016-10-08T00:00:57Z</time></trkpt>
<trkpt lat="30.037426" lon="95.267296">
<time>2016-10-08T00:00:58Z</time></trkpt>
<trkpt lat="30.037276" lon="95.266926">
<time>2016-10-08T00:00:59Z</time></trkpt>
<trkpt lat="30.037106" lon="95.266586">
<time>2016-10-08T00:01:00Z</time></trkpt>
<trkpt lat="30.036897" lon="95.266197">
<time>2016-10-08T00:01:01Z</time></trkpt>
<trkpt lat="30.036707" lon="95.265827">
<time>2016-10-08T00:01:02Z</time></trkpt>
<trkpt lat="30.036517" lon="95.265447">
<time>2016-10-08T00:01:03Z</time></trkpt>
<trkpt lat="30.036297" lon="95.264978">
<time>2016-10-08T00:01:04Z</time></trkpt>
<trkpt lat="30.036088" lon="95.264578">
<time>2016-10-08T00:01:05Z</time></trkpt>
<trkpt lat="30.035928" lon="95.264248">
<time>2016-10-08T00:01:06Z</time></trkpt>
<trkpt lat="30.035758" lon="95.263888">
<time>2016-10-08T00:01:07Z</time></trkpt>
<trkpt lat="30.035568" lon="95.263498">
<time>2016-10-08T00:01:08Z</time></trkpt>
<trkpt lat="30.035408" lon="95.263099">
<time>2016-10-08T00:01:09Z</time></trkpt>
<trkpt lat="30.035269" lon="95.262649">
<time>2016-10-08T00:01:10Z</time></trkpt>
<trkpt lat="30.035129" lon="95.262229">
<time>2016-10-08T00:01:11Z</time></trkpt>
<trkpt lat="30.034999" lon="95.261789">
<time>2016-10-08T00:01:12Z</time></trkpt>
<trkpt lat="30.034969" lon="95.261649">
<time>2016-10-08T00:01:13Z</time></trkpt>
<trkpt lat="30.034939" lon="95.26147">
<time>2016-10-08T00:01:14Z</time></trkpt>
<trkpt lat="30.034919" lon="95.26125">
<time>2016-10-08T00:01:15Z</time></trkpt>
<trkpt lat="30.03489" lon="95.26082">
<time>2016-10-08T00:01:16Z</time></trkpt>
<trkpt lat="30.03488" lon="95.26039">
<time>2016-10-08T00:01:17Z</time></trkpt>
<trkpt lat="30.03489" lon="95.26016">
<time>2016-10-08T00:01:18Z</time></trkpt>
<trkpt lat="30.03491" lon="95.2599">
<time>2016-10-08T00:01:19Z</time></trkpt>
<trkpt lat="30.03494" lon="95.25957">
<time>2016-10-08T00:01:20Z</time></trkpt>
<trkpt lat="30.035" lon="95.259171">
<time>2016-10-08T00:01:21Z</time></trkpt>
<trkpt lat="30.03502" lon="95.258981">
<time>2016-10-08T00:01:22Z</time></trkpt>
<trkpt lat="30.03506" lon="95.258721">
<time>2016-10-08T00:01:23Z</time></trkpt>
<trkpt lat="30.035161" lon="95.258311">
<time>2016-10-08T00:01:24Z</time></trkpt>
<trkpt lat="30.035221" lon="95.258101">
<time>2016-10-08T00:01:25Z</time></trkpt>
<trkpt lat="30.035271" lon="95.257971">
<time>2016-10-08T00:01:26Z</time></trkpt>
<trkpt lat="30.035341" lon="95.257841">
<time>2016-10-08T00:01:27Z</time></trkpt>
<trkpt lat="30.035441" lon="95.257661">
<time>2016-10-08T00:01:28Z</time></trkpt>
<trkpt lat="30.035601" lon="95.257311">
<time>2016-10-08T00:01:29Z</time></trkpt>
<trkpt lat="30.035751" lon="95.256961">
<time>2016-10-08T00:01:30Z</time></trkpt>
<trkpt lat="30.035821" lon="95.256771">
<time>2016-10-08T00:01:31Z</time></trkpt>
<trkpt lat="30.035891" lon="95.256562">
<time>2016-10-08T00:01:32Z</time></trkpt>
<trkpt lat="30.035921" lon="95.256382">
<time>2016-10-08T00:01:33Z</time></trkpt>
<trkpt lat="30.035931" lon="95.256222">
<time>2016-10-08T00:01:34Z</time></trkpt>
<trkpt lat="30.035941" lon="95.255842">
<time>2016-10-08T00:01:35Z</time></trkpt>
<trkpt lat="30.035951" lon="95.255492">
<time>2016-10-08T00:01:36Z</time></trkpt>
<trkpt lat="30.035952" lon="95.255172">
<time>2016-10-08T00:01:37Z</time></trkpt>
<trkpt lat="30.035962" lon="95.254942">
<time>2016-10-08T00:01:38Z</time></trkpt>
<trkpt lat="30.035962" lon="95.254752">
<time>2016-10-08T00:01:39Z</time></trkpt>
<trkpt lat="30.035982" lon="95.254612">
<time>2016-10-08T00:01:40Z</time></trkpt>
<trkpt lat="30.036022" lon="95.254452">
<time>2016-10-08T00:01:41Z</time></trkpt>
<trkpt lat="30.036082" lon="95.254282">
<time>2016-10-08T00:01:42Z</time></trkpt>
<trkpt lat="30.036142" lon="95.254182">
<time>2016-10-08T00:01:43Z</time></trkpt>
<trkpt lat="30.036212" lon="95.254082">
<time>2016-10-08T00:01:44Z</time></trkpt>
<trkpt lat="30.036382" lon="95.253852">
<time>2016-10-08T00:01:45Z</time></trkpt>
<trkpt lat="30.036572" lon="95.253612">
<time>2016-10-08T00:01:46Z</time></trkpt>
<trkpt lat="30.036812" lon="95.253312">
<time>2016-10-08T00:01:47Z</time></trkpt>
<trkpt lat="30.037252" lon="95.252752">
<time>2016-10-08T00:01:48Z</time></trkpt>
<trkpt lat="30.037462" lon="95.252482">
<time>2016-10-08T00:01:49Z</time></trkpt>
<trkpt lat="30.037982" lon="95.251872">
<time>2016-10-08T00:01:50Z</time></trkpt>
<trkpt lat="30.038462" lon="95.251302">
<time>2016-10-08T00:01:51Z</time></trkpt>
<trkpt lat="30.038702" lon="95.251022">
<time>2016-10-08T00:01:52Z</time></trkpt>
<trkpt lat="30.038952" lon="95.250712">
<time>2016-10-08T00:01:53Z</time></trkpt>
<trkpt lat="30.039322" lon="95.250262">
<time>2016-10-08T00:01:54Z</time></trkpt>
<trkpt lat="30.039472" lon="95.250052">
<time>2016-10-08T00:01:55Z</time></trkpt>
<trkpt lat="30.039662" lon="95.249772">
<time>2016-10-08T00:01:56Z</time></trkpt>
<trkpt lat="30.039772" lon="95.249612">
<time>2016-10-08T00:01:57Z</time></trkpt>
<trkpt lat="30.039912" lon="95.249392">
<time>2016-10-08T00:01:58Z</time></trkpt>
<trkpt lat="30.040032" lon="95.249162">
<time>2016-10-08T00:01:59Z</time></trkpt>
<trkpt lat="30.040142" lon="95.248902">
<time>2016-10-08T00:02:00Z</time></trkpt>
<trkpt lat="30.040282" lon="95.248552">
<time>2016-10-08T00:02:01Z</time></trkpt>
<trkpt lat="30.040432" lon="95.248192">
<time>2016-10-08T00:02:02Z</time></trkpt>
<trkpt lat="30.040512" lon="95.247972">
<time>2016-10-08T00:02:03Z</time></trkpt>
<trkpt lat="30.040552" lon="95.247852">
<time>2016-10-08T00:02:04Z</time></trkpt>
<trkpt lat="30.040582" lon="95.247742">
<time>2016-10-08T00:02:05Z</time></trkpt>
<trkpt lat="30.040622" lon="95.247622">
<time>2016-10-08T00:02:06Z</time></trkpt>
<trkpt lat="30.040652" lon="95.247482">
<time>2016-10-08T00:02:07Z</time></trkpt>
<trkpt lat="30.040682" lon="95.247362">
<time>2016-10-08T00:02:08Z</time></trkpt>
<trkpt lat="30.040752" lon="95.246982">
<time>2016-10-08T00:02:09Z</time></trkpt>
<trkpt lat="30.040842" lon="95.246592">
<time>2016-10-08T00:02:10Z</time></trkpt>
<trkpt lat="30.040872" lon="95.246432">
<time>2016-10-08T00:02:11Z</time></trkpt>
<trkpt lat="30.040912" lon="95.246212">
<time>2016-10-08T00:02:12Z</time></trkpt>
<trkpt lat="30.040932" lon="95.246062">
<time>2016-10-08T00:02:13Z</time></trkpt>
<trkpt lat="30.040942" lon="95.245972">
<time>2016-10-08T00:02:14Z</time></trkpt>
<trkpt lat="30.040952" lon="95.245892">
<time>2016-10-08T00:02:15Z</time></trkpt>
<trkpt lat="30.040962" lon="95.245822">
<time>2016-10-08T00:02:16Z</time></trkpt>
<trkpt lat="30.040962" lon="95.245732">
<time>2016-10-08T00:02:17Z</time></trkpt>
<trkpt lat="30.040962" lon="95.245272">
<time>2016-10-08T00:02:18Z</time></trkpt>
<trkpt lat="30.040962" lon="95.245132">
<time>2016-10-08T00:02:19Z</time></trkpt>
<trkpt lat="30.040972" lon="95.244982">
<time>2016-10-08T00:02:20Z</time></trkpt>
<trkpt lat="30.040982" lon="95.244812">
<time>2016-10-08T00:02:21Z</time></trkpt>
<trkpt lat="30.040992" lon="95.244602">
<time>2016-10-08T00:02:22Z</time></trkpt>
<trkpt lat="30.041022" lon="95.244312">
<time>2016-10-08T00:02:23Z</time></trkpt>
<trkpt lat="30.041062" lon="95.244012">
<time>2016-10-08T00:02:24Z</time></trkpt>
<trkpt lat="30.041092" lon="95.243792">
<time>2016-10-08T00:02:25Z</time></trkpt>
<trkpt lat="30.041112" lon="95.243582">
<time>2016-10-08T00:02:26Z</time></trkpt>
<trkpt lat="30.041142" lon="95.243432">
<time>2016-10-08T00:02:27Z</time></trkpt>
<trkpt lat="30.041172" lon="95.243312">
<time>2016-10-08T00:02:28Z</time></trkpt>
<trkpt lat="30.041202" lon="95.243192">
<time>2016-10-08T00:02:29Z</time></trkpt>
<trkpt lat="30.041272" lon="95.243002">
<time>2016-10-08T00:02:30Z</time></trkpt>
<trkpt lat="30.041312" lon="95.242861">
<time>2016-10-08T00:02:31Z</time></trkpt>
<trkpt lat="30.041352" lon="95.242731">
<time>2016-10-08T00:02:32Z</time></trkpt>
<trkpt lat="30.041392" lon="95.242561">
<time>2016-10-08T00:02:33Z</time></trkpt>
<trkpt lat="30.041422" lon="95.242411">
<time>2016-10-08T00:02:34Z</time></trkpt>
<trkpt lat="30.041492" lon="95.242071">
<time>2016-10-08T00:02:35Z</time></trkpt>
<trkpt lat="30.041532" lon="95.241891">
<time>2016-10-08T00:02:36Z</time></trkpt>
<trkpt lat="30.041572" lon="95.241731">
<time>2016-10-08T00:02:37Z</time></trkpt>
<trkpt lat="30.041621" lon="95.241541">
<time>2016-10-08T00:02:38Z</time></trkpt>
<trkpt lat="30.041641" lon="95.241431">
<time>2016-10-08T00:02:39Z</time></trkpt>
<trkpt lat="30.041651" lon="95.241341">
<time>2016-10-08T00:02:40Z</time></trkpt>
<trkpt lat="30.041661" lon="95.241251">
<time>2016-10-08T00:02:41Z</time></trkpt>
<trkpt lat="30.041651" lon="95.241131">
<time>2016-10-08T00:02:42Z</time></trkpt>
<trkpt lat="30.041641" lon="95.241041">
<time>2016-10-08T00:02:43Z</time></trkpt>
<trkpt lat="30.041631" lon="95.240961">
<time>2016-10-08T00:02:44Z</time></trkpt>
<trkpt lat="30.041621" lon="95.240881">
<time>2016-10-08T00:02:45Z</time></trkpt>
<trkpt lat="30.041571" lon="95.240531">
<time>2016-10-08T00:02:46Z</time></trkpt>
<trkpt lat="30.041541" lon="95.240261">
<time>2016-10-08T00:02:47Z</time></trkpt>
<trkpt lat="30.041501" lon="95.23999">
<time>2016-10-08T00:02:48Z</time></trkpt>
<trkpt lat="30.041481" lon="95.23983">
<time>2016-10-08T00:02:49Z</time></trkpt>
<trkpt lat="30.041451" lon="95.23966">
<time>2016-10-08T00:02:50Z</time></trkpt>
<trkpt lat="30.041431" lon="95.23955">
<time>2016-10-08T00:02:51Z</time></trkpt>
<trkpt lat="30.041411" lon="95.23947">
<time>2016-10-08T00:02:52Z</time></trkpt>
<trkpt lat="30.041391" lon="95.23941">
<time>2016-10-08T00:02:53Z</time></trkpt>
<trkpt lat="30.041371" lon="95.23939">
<time>2016-10-08T00:02:54Z</time></trkpt>
<trkpt lat="30.041361" lon="95.23936">
<time>2016-10-08T00:02:55Z</time></trkpt>
<trkpt lat="30.041341" lon="95.23931">
<time>2016-10-08T00:02:56Z</time></trkpt>
<trkpt lat="30.041301" lon="95.23926">
<time>2016-10-08T00:02:57Z</time></trkpt>
<trkpt lat="30.041261" lon="95.2392">
<time>2016-10-08T00:02:58Z</time></trkpt>
<trkpt lat="30.041191" lon="95.23912">
<time>2016-10-08T00:02:59Z</time></trkpt>
<trkpt lat="30.041021" lon="95.23895">
<time>2016-10-08T00:03:00Z</time></trkpt>
<trkpt lat="30.040831" lon="95.23876">
<time>2016-10-08T00:03:01Z</time></trkpt>
<trkpt lat="30.040721" lon="95.23865">
<time>2016-10-08T00:03:02Z</time></trkpt>
<trkpt lat="30.040641" lon="95.23854">
<time>2016-10-08T00:03:03Z</time></trkpt>
<trkpt lat="30.04044" lon="95.23829">
<time>2016-10-08T00:03:04Z</time></trkpt>
<trkpt lat="30.04014" lon="95.23787">
<time>2016-10-08T00:03:05Z</time></trkpt>
<trkpt lat="30.03988" lon="95.237499">
<time>2016-10-08T00:03:06Z</time></trkpt>
<trkpt lat="30.03949" lon="95.236969">
<time>2016-10-08T00:03:07Z</time></trkpt>
<trkpt lat="30.03931" lon="95.236709">
<time>2016-10-08T00:03:08Z</time></trkpt>
<trkpt lat="30.03924" lon="95.236599">
<time>2016-10-08T00:03:09Z</time></trkpt>
<trkpt lat="30.03913" lon="95.236439">
<time>2016-10-08T00:03:10Z</time></trkpt>
<trkpt lat="30.03904" lon="95.236289">
<time>2016-10-08T00:03:11Z</time></trkpt>
<trkpt lat="30.038939" lon="95.236099">
<time>2016-10-08T00:03:12Z</time></trkpt>
<trkpt lat="30.038869" lon="95.235949">
<time>2016-10-08T00:03:13Z</time></trkpt>
<trkpt lat="30.038789" lon="95.235748">
<time>2016-10-08T00:03:14Z</time></trkpt>
<trkpt lat="30.038589" lon="95.235288">
<time>2016-10-08T00:03:15Z</time></trkpt>
<trkpt lat="30.038429" lon="95.234918">
<time>2016-10-08T00:03:16Z</time></trkpt>
<trkpt lat="30.038339" lon="95.234698">
<time>2016-10-08T00:03:17Z</time></trkpt>
<trkpt lat="30.038289" lon="95.234578">
<time>2016-10-08T00:03:18Z</time></trkpt>
<trkpt lat="30.038239" lon="95.234478">
<time>2016-10-08T00:03:19Z</time></trkpt>
<trkpt lat="30.038179" lon="95.234358">
<time>2016-10-08T00:03:20Z</time></trkpt>
<trkpt lat="30.038088" lon="95.234197">
<time>2016-10-08T00:03:21Z</time></trkpt>
<trkpt lat="30.037948" lon="95.233947">
<time>2016-10-08T00:03:22Z</time></trkpt>
<trkpt lat="30.037748" lon="95.233597">
<time>2016-10-08T00:03:23Z</time></trkpt>
<trkpt lat="30.037538" lon="95.233227">
<time>2016-10-08T00:03:24Z</time></trkpt>
<trkpt lat="30.037308" lon="95.232837">
<time>2016-10-08T00:03:25Z</time></trkpt>
<trkpt lat="30.037037" lon="95.232356">
<time>2016-10-08T00:03:26Z</time></trkpt>
<trkpt lat="30.036937" lon="95.232166">
<time>2016-10-08T00:03:27Z</time></trkpt>
<trkpt lat="30.036817" lon="95.231956">
<time>2016-10-08T00:03:28Z</time></trkpt>
<trkpt lat="30.036767" lon="95.231846">
<time>2016-10-08T00:03:29Z</time></trkpt>
<trkpt lat="30.036707" lon="95.231716">
<time>2016-10-08T00:03:30Z</time></trkpt>
<trkpt lat="30.036687" lon="95.231656">
<time>2016-10-08T00:03:31Z</time></trkpt>
<trkpt lat="30.036657" lon="95.231576">
<time>2016-10-08T00:03:32Z</time></trkpt>
<trkpt lat="30.036647" lon="95.231506">
<time>2016-10-08T00:03:33Z</time></trkpt>
<trkpt lat="30.036637" lon="95.231456">
<time>2016-10-08T00:03:34Z</time></trkpt>
<trkpt lat="30.036627" lon="95.231396">
<time>2016-10-08T00:03:35Z</time></trkpt>
<trkpt lat="30.036627" lon="95.231346">
<time>2016-10-08T00:03:36Z</time></trkpt>
<trkpt lat="30.036627" lon="95.231285">
<time>2016-10-08T00:03:37Z</time></trkpt>
<trkpt lat="30.036627" lon="95.231205">
<time>2016-10-08T00:03:38Z</time></trkpt>
<trkpt lat="30.036647" lon="95.231125">
<time>2016-10-08T00:03:39Z</time></trkpt>
<trkpt lat="30.036657" lon="95.231075">
<time>2016-10-08T00:03:40Z</time></trkpt>
<trkpt lat="30.036677" lon="95.231005">
<time>2016-10-08T00:03:41Z</time></trkpt>
<trkpt lat="30.036706" lon="95.230915">
<time>2016-10-08T00:03:42Z</time></trkpt>
<trkpt lat="30.036766" lon="95.230775">
<time>2016-10-08T00:03:43Z</time></trkpt>
<trkpt lat="30.036836" lon="95.230615">
<time>2016-10-08T00:03:44Z</time></trkpt>
<trkpt lat="30.036876" lon="95.230525">
<time>2016-10-08T00:03:45Z</time></trkpt>
<trkpt lat="30.036916" lon="95.230415">
<time>2016-10-08T00:03:46Z</time></trkpt>
<trkpt lat="30.036966" lon="95.230285">
<time>2016-10-08T00:03:47Z</time></trkpt>
<trkpt lat="30.036986" lon="95.230195">
<time>2016-10-08T00:03:48Z</time></trkpt>
<trkpt lat="30.037016" lon="95.230075">
<time>2016-10-08T00:03:49Z</time></trkpt>
<trkpt lat="30.037036" lon="95.229994">
<time>2016-10-08T00:03:50Z</time></trkpt>
<trkpt lat="30.037056" lon="95.229884">
<time>2016-10-08T00:03:51Z</time></trkpt>
<trkpt lat="30.037076" lon="95.229774">
<time>2016-10-08T00:03:52Z</time></trkpt>
<trkpt lat="30.037096" lon="95.229664">
<time>2016-10-08T00:03:53Z</time></trkpt>
<trkpt lat="30.037116" lon="95.229594">
<time>2016-10-08T00:03:54Z</time></trkpt>
<trkpt lat="30.037136" lon="95.229524">
<time>2016-10-08T00:03:55Z</time></trkpt>
<trkpt lat="30.037156" lon="95.229484">
<time>2016-10-08T00:03:56Z</time></trkpt>
<trkpt lat="30.037175" lon="95.229434">
<time>2016-10-08T00:03:57Z</time></trkpt>
<trkpt lat="30.037235" lon="95.229294">
<time>2016-10-08T00:03:58Z</time></trkpt>
<trkpt lat="30.037335" lon="95.229054">
<time>2016-10-08T00:03:59Z</time></trkpt>
<trkpt lat="30.037365" lon="95.228974">
<time>2016-10-08T00:04:00Z</time></trkpt>
<trkpt lat="30.037405" lon="95.228874">
<time>2016-10-08T00:04:01Z</time></trkpt>
<trkpt lat="30.037435" lon="95.228763">
<time>2016-10-08T00:04:02Z</time></trkpt>
<trkpt lat="30.037455" lon="95.228663">
<time>2016-10-08T00:04:03Z</time></trkpt>
<trkpt lat="30.037485" lon="95.228543">
<time>2016-10-08T00:04:04Z</time></trkpt>
<trkpt lat="30.037505" lon="95.228453">
<time>2016-10-08T00:04:05Z</time></trkpt>
<trkpt lat="30.037545" lon="95.228343">
<time>2016-10-08T00:04:06Z</time></trkpt>
<trkpt lat="30.037555" lon="95.228303">
<time>2016-10-08T00:04:07Z</time></trkpt>
<trkpt lat="30.037615" lon="95.228163">
<time>2016-10-08T00:04:08Z</time></trkpt>
<trkpt lat="30.037674" lon="95.228023">
<time>2016-10-08T00:04:09Z</time></trkpt>
<trkpt lat="30.037744" lon="95.227903">
<time>2016-10-08T00:04:10Z</time></trkpt>
<trkpt lat="30.037854" lon="95.227712">
<time>2016-10-08T00:04:11Z</time></trkpt>
<trkpt lat="30.038034" lon="95.227382">
<time>2016-10-08T00:04:12Z</time></trkpt>
<trkpt lat="30.038114" lon="95.227232">
<time>2016-10-08T00:04:13Z</time></trkpt>
<trkpt lat="30.038174" lon="95.227122">
<time>2016-10-08T00:04:14Z</time></trkpt>
<trkpt lat="30.038244" lon="95.226982">
<time>2016-10-08T00:04:15Z</time></trkpt>
<trkpt lat="30.038343" lon="95.226732">
<time>2016-10-08T00:04:16Z</time></trkpt>
<trkpt lat="30.038473" lon="95.226431">
<time>2016-10-08T00:04:17Z</time></trkpt>
<trkpt lat="30.038523" lon="95.226331">
<time>2016-10-08T00:04:18Z</time></trkpt>
<trkpt lat="30.038593" lon="95.226171">
<time>2016-10-08T00:04:19Z</time></trkpt>
<trkpt lat="30.038623" lon="95.226101">
<time>2016-10-08T00:04:20Z</time></trkpt>
<trkpt lat="30.038643" lon="95.226001">
<time>2016-10-08T00:04:21Z</time></trkpt>
<trkpt lat="30.038673" lon="95.225921">
<time>2016-10-08T00:04:22Z</time></trkpt>
<trkpt lat="30.038683" lon="95.225841">
<time>2016-10-08T00:04:23Z</time></trkpt>
<trkpt lat="30.038683" lon="95.225771">
<time>2016-10-08T00:04:24Z</time></trkpt>
<trkpt lat="30.038693" lon="95.225661">
<time>2016-10-08T00:04:25Z</time></trkpt>
<trkpt lat="30.038683" lon="95.22558">
<time>2016-10-08T00:04:26Z</time></trkpt>
<trkpt lat="30.038672" lon="95.22548">
<time>2016-10-08T00:04:27Z</time></trkpt>
<trkpt lat="30.038662" lon="95.2254">
<time>2016-10-08T00:04:28Z</time></trkpt>
<trkpt lat="30.038642" lon="95.22532">
<time>2016-10-08T00:04:29Z</time></trkpt>
<trkpt lat="30.038622" lon="95.22525">
<time>2016-10-08T00:04:30Z</time></trkpt>
<trkpt lat="30.038582" lon="95.22518">
<time>2016-10-08T00:04:31Z</time></trkpt>
<trkpt lat="30.038532" lon="95.22508">
<time>2016-10-08T00:04:32Z</time></trkpt>
<trkpt lat="30.038432" lon="95.2249">
<time>2016-10-08T00:04:33Z</time></trkpt>
<trkpt lat="30.038382" lon="95.22481">
<time>2016-10-08T00:04:34Z</time></trkpt>
<trkpt lat="30.038332" lon="95.22472">
<time>2016-10-08T00:04:35Z</time></trkpt>
<trkpt lat="30.038302" lon="95.22464">
<time>2016-10-08T00:04:36Z</time></trkpt>
<trkpt lat="30.038272" lon="95.224549">
<time>2016-10-08T00:04:37Z</time></trkpt>
<trkpt lat="30.038242" lon="95.224479">
<time>2016-10-08T00:04:38Z</time></trkpt>
<trkpt lat="30.038221" lon="95.224379">
<time>2016-10-08T00:04:39Z</time></trkpt>
<trkpt lat="30.038201" lon="95.224279">
<time>2016-10-08T00:04:40Z</time></trkpt>
<trkpt lat="30.038191" lon="95.224169">
<time>2016-10-08T00:04:41Z</time></trkpt>
<trkpt lat="30.038181" lon="95.224019">
<time>2016-10-08T00:04:42Z</time></trkpt>
<trkpt lat="30.038161" lon="95.223779">
<time>2016-10-08T00:04:43Z</time></trkpt>
<trkpt lat="30.038161" lon="95.223558">
<time>2016-10-08T00:04:44Z</time></trkpt>
<trkpt lat="30.038161" lon="95.223458">
<time>2016-10-08T00:04:45Z</time></trkpt>
<trkpt lat="30.038161" lon="95.223418">
<time>2016-10-08T00:04:46Z</time></trkpt>
<trkpt lat="30.038161" lon="95.223378">
<time>2016-10-08T00:04:47Z</time></trkpt>
<trkpt lat="30.038161" lon="95.223328">
<time>2016-10-08T00:04:48Z</time></trkpt>
<trkpt lat="30.03817" lon="95.223288">
<time>2016-10-08T00:04:49Z</time></trkpt>
<trkpt lat="30.03818" lon="95.223258">
<time>2016-10-08T00:04:50Z</time></trkpt>
<trkpt lat="30.03819" lon="95.223228">
<time>2016-10-08T00:04:51Z</time></trkpt>
<trkpt lat="30.03821" lon="95.223208">
<time>2016-10-08T00:04:52Z</time></trkpt>
<trkpt lat="30.03823" lon="95.223168">
<time>2016-10-08T00:04:53Z</time></trkpt>
<trkpt lat="30.03826" lon="95.223138">
<time>2016-10-08T00:04:54Z</time></trkpt>
<trkpt lat="30.03828" lon="95.223118">
<time>2016-10-08T00:04:55Z</time></trkpt>
<trkpt lat="30.03831" lon="95.223098">
<time>2016-10-08T00:04:56Z</time></trkpt>
<trkpt lat="30.03833" lon="95.223088">
<time>2016-10-08T00:04:57Z</time></trkpt>
<trkpt lat="30.03836" lon="95.223078">
<time>2016-10-08T00:04:58Z</time></trkpt>
<trkpt lat="30.03842" lon="95.223068">
<time>2016-10-08T00:04:59Z</time></trkpt>
<trkpt lat="30.03847" lon="95.223068">
<time>2016-10-08T00:05:00Z</time></trkpt>
<trkpt lat="30.03852" lon="95.223078">
<time>2016-10-08T00:05:01Z</time></trkpt>
<trkpt lat="30.03856" lon="95.223108">
<time>2016-10-08T00:05:02Z</time></trkpt>
<trkpt lat="30.03861" lon="95.223138">
<time>2016-10-08T00:05:03Z</time></trkpt>
<trkpt lat="30.03865" lon="95.223188">
<time>2016-10-08T00:05:04Z</time></trkpt>
<trkpt lat="30.03867" lon="95.223218">
<time>2016-10-08T00:05:05Z</time></trkpt>
<trkpt lat="30.03868" lon="95.223248">
<time>2016-10-08T00:05:06Z</time></trkpt>
<trkpt lat="30.0387" lon="95.223298">
<time>2016-10-08T00:05:07Z</time></trkpt>
<trkpt lat="30.038721" lon="95.223348">
<time>2016-10-08T00:05:08Z</time></trkpt>
<trkpt lat="30.038751" lon="95.223488">
<time>2016-10-08T00:05:09Z</time></trkpt>
<trkpt lat="30.038791" lon="95.223668">
<time>2016-10-08T00:05:10Z</time></trkpt>
<trkpt lat="30.038801" lon="95.223769">
<time>2016-10-08T00:05:11Z</time></trkpt>
<trkpt lat="30.038811" lon="95.223859">
<time>2016-10-08T00:05:12Z</time></trkpt>
<trkpt lat="30.038831" lon="95.223999">
<time>2016-10-08T00:05:13Z</time></trkpt>
<trkpt lat="30.038841" lon="95.224189">
<time>2016-10-08T00:05:14Z</time></trkpt>
<trkpt lat="30.038841" lon="95.224359">
<time>2016-10-08T00:05:15Z</time></trkpt>
<trkpt lat="30.038852" lon="95.224469">
<time>2016-10-08T00:05:16Z</time></trkpt>
<trkpt lat="30.038862" lon="95.224529">
<time>2016-10-08T00:05:17Z</time></trkpt>
<trkpt lat="30.038882" lon="95.224589">
<time>2016-10-08T00:05:18Z</time></trkpt>
<trkpt lat="30.038922" lon="95.22467">
<time>2016-10-08T00:05:19Z</time></trkpt>
<trkpt lat="30.038962" lon="95.22474">
<time>2016-10-08T00:05:20Z</time></trkpt>
<trkpt lat="30.039022" lon="95.22481">
<time>2016-10-08T00:05:21Z</time></trkpt>
<trkpt lat="30.039072" lon="95.22488">
<time>2016-10-08T00:05:22Z</time></trkpt>
<trkpt lat="30.039152" lon="95.22496">
<time>2016-10-08T00:05:23Z</time></trkpt>
<trkpt lat="30.039242" lon="95.22503">
<time>2016-10-08T00:05:24Z</time></trkpt>
<trkpt lat="30.039342" lon="95.22509">
<time>2016-10-08T00:05:25Z</time></trkpt>
<trkpt lat="30.039422" lon="95.22514">
<time>2016-10-08T00:05:26Z</time></trkpt>
<trkpt lat="30.039622" lon="95.22522">
<time>2016-10-08T00:05:27Z</time></trkpt>
<trkpt lat="30.039742" lon="95.22527">
<time>2016-10-08T00:05:28Z</time></trkpt>
<trkpt lat="30.039782" lon="95.22528">
<time>2016-10-08T00:05:29Z</time></trkpt>
<trkpt lat="30.039812" lon="95.22529">
<time>2016-10-08T00:05:30Z</time></trkpt>
<trkpt lat="30.039852" lon="95.22528">
<time>2016-10-08T00:05:31Z</time></trkpt>
<trkpt lat="30.039892" lon="95.22528">
<time>2016-10-08T00:05:32Z</time></trkpt>
<trkpt lat="30.039942" lon="95.22525">
<time>2016-10-08T00:05:33Z</time></trkpt>
<trkpt lat="30.039982" lon="95.22522">
<time>2016-10-08T00:05:34Z</time></trkpt>
<trkpt lat="30.040022" lon="95.22517">
<time>2016-10-08T00:05:35Z</time></trkpt>
<trkpt lat="30.040052" lon="95.22511">
<time>2016-10-08T00:05:36Z</time></trkpt>
<trkpt lat="30.040072" lon="95.22506">
<time>2016-10-08T00:05:37Z</time></trkpt>
<trkpt lat="30.040082" lon="95.22501">
<time>2016-10-08T00:05:38Z</time></trkpt>
<trkpt lat="30.040082" lon="95.22493">
<time>2016-10-08T00:05:39Z</time></trkpt>
<trkpt lat="30.040082" lon="95.2249">
<time>2016-10-08T00:05:40Z</time></trkpt>
<trkpt lat="30.040062" lon="95.22486">
<time>2016-10-08T00:05:41Z</time></trkpt>
<trkpt lat="30.040062" lon="95.22484">
<time>2016-10-08T00:05:42Z</time></trkpt>
<trkpt lat="30.040042" lon="95.22481">
<time>2016-10-08T00:05:43Z</time></trkpt>
<trkpt lat="30.040022" lon="95.22478">
<time>2016-10-08T00:05:44Z</time></trkpt>
<trkpt lat="30.039992" lon="95.22474">
<time>2016-10-08T00:05:45Z</time></trkpt>
<trkpt lat="30.039932" lon="95.22468">
<time>2016-10-08T00:05:46Z</time></trkpt>
<trkpt lat="30.039812" lon="95.224599">
<time>2016-10-08T00:05:47Z</time></trkpt>
<trkpt lat="30.039752" lon="95.224559">
<time>2016-10-08T00:05:48Z</time></trkpt>
<trkpt lat="30.039722" lon="95.224529">
<time>2016-10-08T00:05:49Z</time></trkpt>
<trkpt lat="30.039682" lon="95.224479">
<time>2016-10-08T00:05:50Z</time></trkpt>
<trkpt lat="30.039652" lon="95.224439">
<time>2016-10-08T00:05:51Z</time></trkpt>
<trkpt lat="30.039631" lon="95.224389">
<time>2016-10-08T00:05:52Z</time></trkpt>
<trkpt lat="30.039611" lon="95.224349">
<time>2016-10-08T00:05:53Z</time></trkpt>
<trkpt lat="30.039601" lon="95.224299">
<time>2016-10-08T00:05:54Z</time></trkpt>
<trkpt lat="30.039581" lon="95.224129">
<time>2016-10-08T00:05:55Z</time></trkpt>
<trkpt lat="30.039571" lon="95.224049">
<time>2016-10-08T00:05:56Z</time></trkpt>
<trkpt lat="30.039571" lon="95.223949">
<time>2016-10-08T00:05:57Z</time></trkpt>
<trkpt lat="30.039571" lon="95.223849">
<time>2016-10-08T00:05:58Z</time></trkpt>
<trkpt lat="30.039601" lon="95.223699">
<time>2016-10-08T00:05:59Z</time></trkpt>
<trkpt lat="30.039621" lon="95.223638">
<time>2016-10-08T00:06:00Z</time></trkpt>
<trkpt lat="30.039661" lon="95.223498">
<time>2016-10-08T00:06:01Z</time></trkpt>
<trkpt lat="30.039711" lon="95.223388">
<time>2016-10-08T00:06:02Z</time></trkpt>
<trkpt lat="30.03978" lon="95.223258">
<time>2016-10-08T00:06:03Z</time></trkpt>
<trkpt lat="30.03983" lon="95.223188">
<time>2016-10-08T00:06:04Z</time></trkpt>
<trkpt lat="30.03987" lon="95.223138">
<time>2016-10-08T00:06:05Z</time></trkpt>
<trkpt lat="30.03994" lon="95.223068">
<time>2016-10-08T00:06:06Z</time></trkpt>
<trkpt lat="30.04002" lon="95.222998">
<time>2016-10-08T00:06:07Z</time></trkpt>
<trkpt lat="30.04009" lon="95.222958">
<time>2016-10-08T00:06:08Z</time></trkpt>
<trkpt lat="30.0402" lon="95.222888">
<time>2016-10-08T00:06:09Z</time></trkpt>
<trkpt lat="30.04043" lon="95.222767">
<time>2016-10-08T00:06:10Z</time></trkpt>
<trkpt lat="30.04078" lon="95.222587">
<time>2016-10-08T00:06:11Z</time></trkpt>
<trkpt lat="30.0411" lon="95.222407">
<time>2016-10-08T00:06:12Z</time></trkpt>
<trkpt lat="30.04133" lon="95.222287">
<time>2016-10-08T00:06:13Z</time></trkpt>
<trkpt lat="30.041599" lon="95.222147">
<time>2016-10-08T00:06:14Z</time></trkpt>
<trkpt lat="30.041769" lon="95.222037">
<time>2016-10-08T00:06:15Z</time></trkpt>
<trkpt lat="30.041929" lon="95.221927">
<time>2016-10-08T00:06:16Z</time></trkpt>
<trkpt lat="30.042099" lon="95.221786">
<time>2016-10-08T00:06:17Z</time></trkpt>
<trkpt lat="30.042209" lon="95.221686">
<time>2016-10-08T00:06:18Z</time></trkpt>
<trkpt lat="30.042299" lon="95.221596">
<time>2016-10-08T00:06:19Z</time></trkpt>
<trkpt lat="30.042399" lon="95.221496">
<time>2016-10-08T00:06:20Z</time></trkpt>
<trkpt lat="30.042559" lon="95.221316">
<time>2016-10-08T00:06:21Z</time></trkpt>
<trkpt lat="30.042619" lon="95.221256">
<time>2016-10-08T00:06:22Z</time></trkpt>
<trkpt lat="30.042659" lon="95.221226">
<time>2016-10-08T00:06:23Z</time></trkpt>
<trkpt lat="30.042699" lon="95.221186">
<time>2016-10-08T00:06:24Z</time></trkpt>
<trkpt lat="30.042759" lon="95.221156">
<time>2016-10-08T00:06:25Z</time></trkpt>
<trkpt lat="30.042828" lon="95.221126">
<time>2016-10-08T00:06:26Z</time></trkpt>
<trkpt lat="30.042878" lon="95.221116">
<time>2016-10-08T00:06:27Z</time></trkpt>
<trkpt lat="30.042918" lon="95.221116">
<time>2016-10-08T00:06:28Z</time></trkpt>
<trkpt lat="30.042978" lon="95.221116">
<time>2016-10-08T00:06:29Z</time></trkpt>
<trkpt lat="30.043018" lon="95.221116">
<time>2016-10-08T00:06:30Z</time></trkpt>
<trkpt lat="30.043058" lon="95.221126">
<time>2016-10-08T00:06:31Z</time></trkpt>
<trkpt lat="30.043158" lon="95.221136">
<time>2016-10-08T00:06:32Z</time></trkpt>
<trkpt lat="30.043469" lon="95.221186">
<time>2016-10-08T00:06:33Z</time></trkpt>
<trkpt lat="30.043599" lon="95.221196">
<time>2016-10-08T00:06:34Z</time></trkpt>
<trkpt lat="30.043739" lon="95.221206">
<time>2016-10-08T00:06:35Z</time></trkpt>
<trkpt lat="30.043949" lon="95.221206">
<time>2016-10-08T00:06:36Z</time></trkpt>
<trkpt lat="30.044029" lon="95.221206">
<time>2016-10-08T00:06:37Z</time></trkpt>
<trkpt lat="30.044159" lon="95.221196">
<time>2016-10-08T00:06:38Z</time></trkpt>
<trkpt lat="30.044339" lon="95.221186">
<time>2016-10-08T00:06:39Z</time></trkpt>
<trkpt lat="30.044449" lon="95.221166">
<time>2016-10-08T00:06:40Z</time></trkpt>
<trkpt lat="30.044569" lon="95.221146">
<time>2016-10-08T00:06:41Z</time></trkpt>
<trkpt lat="30.044638" lon="95.221106">
<time>2016-10-08T00:06:42Z</time></trkpt>
<trkpt lat="30.044708" lon="95.221065">
<time>2016-10-08T00:06:43Z</time></trkpt>
<trkpt lat="30.044848" lon="95.220985">
<time>2016-10-08T00:06:44Z</time></trkpt>
<trkpt lat="30.044918" lon="95.220935">
<time>2016-10-08T00:06:45Z</time></trkpt>
<trkpt lat="30.044988" lon="95.220875">
<time>2016-10-08T00:06:46Z</time></trkpt>
<trkpt lat="30.045088" lon="95.220795">
<time>2016-10-08T00:06:47Z</time></trkpt>
<trkpt lat="30.045168" lon="95.220705">
<time>2016-10-08T00:06:48Z</time></trkpt>
<trkpt lat="30.045498" lon="95.220325">
<time>2016-10-08T00:06:49Z</time></trkpt>
<trkpt lat="30.045877" lon="95.219884">
<time>2016-10-08T00:06:50Z</time></trkpt>
<trkpt lat="30.046177" lon="95.219524">
<time>2016-10-08T00:06:51Z</time></trkpt>
<trkpt lat="30.046337" lon="95.219343">
<time>2016-10-08T00:06:52Z</time></trkpt>
<trkpt lat="30.046437" lon="95.219233">
<time>2016-10-08T00:06:53Z</time></trkpt>
<trkpt lat="30.046556" lon="95.219123">
<time>2016-10-08T00:06:54Z</time></trkpt>
<trkpt lat="30.046716" lon="95.218973">
<time>2016-10-08T00:06:55Z</time></trkpt>
<trkpt lat="30.046986" lon="95.218763">
<time>2016-10-08T00:06:56Z</time></trkpt>
<trkpt lat="30.047516" lon="95.218332">
<time>2016-10-08T00:06:57Z</time></trkpt>
<trkpt lat="30.047666" lon="95.218212">
<time>2016-10-08T00:06:58Z</time></trkpt>
<trkpt lat="30.047725" lon="95.218152">
<time>2016-10-08T00:06:59Z</time></trkpt>
<trkpt lat="30.047775" lon="95.218092">
<time>2016-10-08T00:07:00Z</time></trkpt>
<trkpt lat="30.047825" lon="95.218032">
<time>2016-10-08T00:07:01Z</time></trkpt>
<trkpt lat="30.047865" lon="95.217972">
<time>2016-10-08T00:07:02Z</time></trkpt>
<trkpt lat="30.047915" lon="95.217852">
<time>2016-10-08T00:07:03Z</time></trkpt>
<trkpt lat="30.047975" lon="95.217691">
<time>2016-10-08T00:07:04Z</time></trkpt>
<trkpt lat="30.048005" lon="95.217601">
<time>2016-10-08T00:07:05Z</time></trkpt>
<trkpt lat="30.048055" lon="95.217481">
<time>2016-10-08T00:07:06Z</time></trkpt>
<trkpt lat="30.048105" lon="95.217401">
<time>2016-10-08T00:07:07Z</time></trkpt>
<trkpt lat="30.048135" lon="95.217361">
<time>2016-10-08T00:07:08Z</time></trkpt>
<trkpt lat="30.048165" lon="95.217331">
<time>2016-10-08T00:07:09Z</time></trkpt>
<trkpt lat="30.048195" lon="95.217301">
<time>2016-10-08T00:07:10Z</time></trkpt>
<trkpt lat="30.048225" lon="95.217291">
<time>2016-10-08T00:07:11Z</time></trkpt>
<trkpt lat="30.048265" lon="95.217271">
<time>2016-10-08T00:07:12Z</time></trkpt>
<trkpt lat="30.048324" lon="95.217251">
<time>2016-10-08T00:07:13Z</time></trkpt>
<trkpt lat="30.048424" lon="95.217241">
<time>2016-10-08T00:07:14Z</time></trkpt>
<trkpt lat="30.048484" lon="95.217231">
<time>2016-10-08T00:07:15Z</time></trkpt>
<trkpt lat="30.048654" lon="95.217221">
<time>2016-10-08T00:07:16Z</time></trkpt>
<trkpt lat="30.048824" lon="95.217181">
<time>2016-10-08T00:07:17Z</time></trkpt>
<trkpt lat="30.048914" lon="95.217151">
<time>2016-10-08T00:07:18Z</time></trkpt>
<trkpt lat="30.049094" lon="95.217051">
<time>2016-10-08T00:07:19Z</time></trkpt>
<trkpt lat="30.049264" lon="95.21694">
<time>2016-10-08T00:07:20Z</time></trkpt>
<trkpt lat="30.049404" lon="95.21686">
<time>2016-10-08T00:07:21Z</time></trkpt>
<trkpt lat="30.049614" lon="95.21675">
<time>2016-10-08T00:07:22Z</time></trkpt>
<trkpt lat="30.049844" lon="95.21663">
<time>2016-10-08T00:07:23Z</time></trkpt>
<trkpt lat="30.049964" lon="95.21658">
<time>2016-10-08T00:07:24Z</time></trkpt>
<trkpt lat="30.050054" lon="95.21652">
<time>2016-10-08T00:07:25Z</time></trkpt>
<trkpt lat="30.050144" lon="95.21645">
<time>2016-10-08T00:07:26Z</time></trkpt>
<trkpt lat="30.050263" lon="95.21633">
<time>2016-10-08T00:07:27Z</time></trkpt>
<trkpt lat="30.050333" lon="95.216249">
<time>2016-10-08T00:07:28Z</time></trkpt>
<trkpt lat="30.050453" lon="95.216109">
<time>2016-10-08T00:07:29Z</time></trkpt>
<trkpt lat="30.050533" lon="95.216029">
<time>2016-10-08T00:07:30Z</time></trkpt>
<trkpt lat="30.050583" lon="95.215999">
<time>2016-10-08T00:07:31Z</time></trkpt>
<trkpt lat="30.050623" lon="95.215979">
<time>2016-10-08T00:07:32Z</time></trkpt>
<trkpt lat="30.050673" lon="95.215959">
<time>2016-10-08T00:07:33Z</time></trkpt>
<trkpt lat="30.050703" lon="95.215949">
<time>2016-10-08T00:07:34Z</time></trkpt>
<trkpt lat="30.050753" lon="95.215949">
<time>2016-10-08T00:07:35Z</time></trkpt>
<trkpt lat="30.050793" lon="95.215949">
<time>2016-10-08T00:07:36Z</time></trkpt>
<trkpt lat="30.050863" lon="95.215949">
<time>2016-10-08T00:07:37Z</time></trkpt>
<trkpt lat="30.050953" lon="95.215969">
<time>2016-10-08T00:07:38Z</time></trkpt>
<trkpt lat="30.051023" lon="95.215999">
<time>2016-10-08T00:07:39Z</time></trkpt>
<trkpt lat="30.051133" lon="95.216049">
<time>2016-10-08T00:07:40Z</time></trkpt>
<trkpt lat="30.051243" lon="95.216079">
<time>2016-10-08T00:07:41Z</time></trkpt>
<trkpt lat="30.051363" lon="95.216099">
<time>2016-10-08T00:07:42Z</time></trkpt>
<trkpt lat="30.051463" lon="95.216099">
<time>2016-10-08T00:07:43Z</time></trkpt>
<trkpt lat="30.051653" lon="95.216049">
<time>2016-10-08T00:07:44Z</time></trkpt>
<trkpt lat="30.051793" lon="95.216019">
<time>2016-10-08T00:07:45Z</time></trkpt>
<trkpt lat="30.051963" lon="95.215979">
<time>2016-10-08T00:07:46Z</time></trkpt>
<trkpt lat="30.052093" lon="95.215959">
<time>2016-10-08T00:07:47Z</time></trkpt>
<trkpt lat="30.052173" lon="95.215959">
<time>2016-10-08T00:07:48Z</time></trkpt>
<trkpt lat="30.052233" lon="95.215959">
<time>2016-10-08T00:07:49Z</time></trkpt>
<trkpt lat="30.052353" lon="95.215979">
<time>2016-10-08T00:07:50Z</time></trkpt>
<trkpt lat="30.052433" lon="95.215989">
<time>2016-10-08T00:07:51Z</time></trkpt>
<trkpt lat="30.052483" lon="95.216009">
<time>2016-10-08T00:07:52Z</time></trkpt>
<trkpt lat="30.052583" lon="95.216049">
<time>2016-10-08T00:07:53Z</time></trkpt>
<trkpt lat="30.052643" lon="95.216079">
<time>2016-10-08T00:07:54Z</time></trkpt>
<trkpt lat="30.052753" lon="95.216129">
<time>2016-10-08T00:07:55Z</time></trkpt>
<trkpt lat="30.052853" lon="95.216179">
<time>2016-10-08T00:07:56Z</time></trkpt>
<trkpt lat="30.053013" lon="95.216249">
<time>2016-10-08T00:07:57Z</time></trkpt>
<trkpt lat="30.053123" lon="95.216289">
<time>2016-10-08T00:07:58Z</time></trkpt>
<trkpt lat="30.053173" lon="95.216299">
<time>2016-10-08T00:07:59Z</time></trkpt>
<trkpt lat="30.053223" lon="95.216299">
<time>2016-10-08T00:08:00Z</time></trkpt>
<trkpt lat="30.053323" lon="95.216279">
<time>2016-10-08T00:08:01Z</time></trkpt>
<trkpt lat="30.053393" lon="95.216229">
<time>2016-10-08T00:08:02Z</time></trkpt>
<trkpt lat="30.053453" lon="95.216169">
<time>2016-10-08T00:08:03Z</time></trkpt>
<trkpt lat="30.053513" lon="95.216109">
<time>2016-10-08T00:08:04Z</time></trkpt>
<trkpt lat="30.053583" lon="95.215999">
<time>2016-10-08T00:08:05Z</time></trkpt>
<trkpt lat="30.053623" lon="95.215949">
<time>2016-10-08T00:08:06Z</time></trkpt>
<trkpt lat="30.053683" lon="95.215879">
<time>2016-10-08T00:08:07Z</time></trkpt>
<trkpt lat="30.053743" lon="95.215839">
<time>2016-10-08T00:08:08Z</time></trkpt>
<trkpt lat="30.053793" lon="95.215809">
<time>2016-10-08T00:08:09Z</time></trkpt>
<trkpt lat="30.053843" lon="95.215789">
<time>2016-10-08T00:08:10Z</time></trkpt>
<trkpt lat="30.053973" lon="95.215739">
<time>2016-10-08T00:08:11Z</time></trkpt>
<trkpt lat="30.054073" lon="95.215709">
<time>2016-10-08T00:08:12Z</time></trkpt>
<trkpt lat="30.054143" lon="95.215679">
<time>2016-10-08T00:08:13Z</time></trkpt>
<trkpt lat="30.054233" lon="95.215619">
<time>2016-10-08T00:08:14Z</time></trkpt>
<trkpt lat="30.054343" lon="95.215528">
<time>2016-10-08T00:08:15Z</time></trkpt>
<trkpt lat="30.054462" lon="95.215418">
<time>2016-10-08T00:08:16Z</time></trkpt>
<trkpt lat="30.054582" lon="95.215298">
<time>2016-10-08T00:08:17Z</time></trkpt>
<trkpt lat="30.054682" lon="95.215218">
<time>2016-10-08T00:08:18Z</time></trkpt>
<trkpt lat="30.054802" lon="95.215128">
<time>2016-10-08T00:08:19Z</time></trkpt>
<trkpt lat="30.054892" lon="95.215068">
<time>2016-10-08T00:08:20Z</time></trkpt>
<trkpt lat="30.054972" lon="95.215028">
<time>2016-10-08T00:08:21Z</time></trkpt>
<trkpt lat="30.055182" lon="95.214888">
<time>2016-10-08T00:08:22Z</time></trkpt>
<trkpt lat="30.055302" lon="95.214807">
<time>2016-10-08T00:08:23Z</time></trkpt>
<trkpt lat="30.055422" lon="95.214707">
<time>2016-10-08T00:08:24Z</time></trkpt>
<trkpt lat="30.055542" lon="95.214577">
<time>2016-10-08T00:08:25Z</time></trkpt>
<trkpt lat="30.055651" lon="95.214467">
<time>2016-10-08T00:08:26Z</time></trkpt>
<trkpt lat="30.055851" lon="95.214237">
<time>2016-10-08T00:08:27Z</time></trkpt>
<trkpt lat="30.055981" lon="95.214096">
<time>2016-10-08T00:08:28Z</time></trkpt>
<trkpt lat="30.056051" lon="95.214026">
<time>2016-10-08T00:08:29Z</time></trkpt>
<trkpt lat="30.056131" lon="95.213936">
<time>2016-10-08T00:08:30Z</time></trkpt>
<trkpt lat="30.056181" lon="95.213896">
<time>2016-10-08T00:08:31Z</time></trkpt>
<trkpt lat="30.056231" lon="95.213866">
<time>2016-10-08T00:08:32Z</time></trkpt>
<trkpt lat="30.056291" lon="95.213826">
<time>2016-10-08T00:08:33Z</time></trkpt>
<trkpt lat="30.056331" lon="95.213806">
<time>2016-10-08T00:08:34Z</time></trkpt>
<trkpt lat="30.056411" lon="95.213776">
<time>2016-10-08T00:08:35Z</time></trkpt>
<trkpt lat="30.056461" lon="95.213766">
<time>2016-10-08T00:08:36Z</time></trkpt>
<trkpt lat="30.056561" lon="95.213746">
<time>2016-10-08T00:08:37Z</time></trkpt>
<trkpt lat="30.056661" lon="95.213736">
<time>2016-10-08T00:08:38Z</time></trkpt>
<trkpt lat="30.056801" lon="95.213726">
<time>2016-10-08T00:08:39Z</time></trkpt>
<trkpt lat="30.05689" lon="95.213716">
<time>2016-10-08T00:08:40Z</time></trkpt>
<trkpt lat="30.05698" lon="95.213696">
<time>2016-10-08T00:08:41Z</time></trkpt>
<trkpt lat="30.05704" lon="95.213666">
<time>2016-10-08T00:08:42Z</time></trkpt>
<trkpt lat="30.05708" lon="95.213636">
<time>2016-10-08T00:08:43Z</time></trkpt>
<trkpt lat="30.05712" lon="95.213596">
<time>2016-10-08T00:08:44Z</time></trkpt>
<trkpt lat="30.05715" lon="95.213566">
<time>2016-10-08T00:08:45Z</time></trkpt>
<trkpt lat="30.05717" lon="95.213526">
<time>2016-10-08T00:08:46Z</time></trkpt>
<trkpt lat="30.05719" lon="95.213486">
<time>2016-10-08T00:08:47Z</time></trkpt>
<trkpt lat="30.05719" lon="95.213445">
<time>2016-10-08T00:08:48Z</time></trkpt>
<trkpt lat="30.0572" lon="95.213415">
<time>2016-10-08T00:08:49Z</time></trkpt>
<trkpt lat="30.0572" lon="95.213375">
<time>2016-10-08T00:08:50Z</time></trkpt>
<trkpt lat="30.05719" lon="95.213345">
<time>2016-10-08T00:08:51Z</time></trkpt>
<trkpt lat="30.05716" lon="95.213255">
<time>2016-10-08T00:08:52Z</time></trkpt>
<trkpt lat="30.05714" lon="95.213205">
<time>2016-10-08T00:08:53Z</time></trkpt>
<trkpt lat="30.05707" lon="95.213105">
<time>2016-10-08T00:08:54Z</time></trkpt>
<trkpt lat="30.05695" lon="95.212915">
<time>2016-10-08T00:08:55Z</time></trkpt>
<trkpt lat="30.056839" lon="95.212744">
<time>2016-10-08T00:08:56Z</time></trkpt>
<trkpt lat="30.056729" lon="95.212574">
<time>2016-10-08T00:08:57Z</time></trkpt>
<trkpt lat="30.056659" lon="95.212444">
<time>2016-10-08T00:08:58Z</time></trkpt>
<trkpt lat="30.056639" lon="95.212384">
<time>2016-10-08T00:08:59Z</time></trkpt>
<trkpt lat="30.056619" lon="95.212324">
<time>2016-10-08T00:09:00Z</time></trkpt>
<trkpt lat="30.056609" lon="95.212264">
<time>2016-10-08T00:09:01Z</time></trkpt>
<trkpt lat="30.056599" lon="95.212184">
<time>2016-10-08T00:09:02Z</time></trkpt>
<trkpt lat="30.056598" lon="95.212114">
<time>2016-10-08T00:09:03Z</time></trkpt>
<trkpt lat="30.056608" lon="95.212033">
<time>2016-10-08T00:09:04Z</time></trkpt>
<trkpt lat="30.056628" lon="95.211943">
<time>2016-10-08T00:09:05Z</time></trkpt>
<trkpt lat="30.056658" lon="95.211833">
<time>2016-10-08T00:09:06Z</time></trkpt>
<trkpt lat="30.056708" lon="95.211683">
<time>2016-10-08T00:09:07Z</time></trkpt>
<trkpt lat="30.056788" lon="95.211473">
<time>2016-10-08T00:09:08Z</time></trkpt>
<trkpt lat="30.056907" lon="95.211082">
<time>2016-10-08T00:09:09Z</time></trkpt>
<trkpt lat="30.056937" lon="95.210982">
<time>2016-10-08T00:09:10Z</time></trkpt>
<trkpt lat="30.056957" lon="95.210902">
<time>2016-10-08T00:09:11Z</time></trkpt>
<trkpt lat="30.056967" lon="95.210792">
<time>2016-10-08T00:09:12Z</time></trkpt>
<trkpt lat="30.056967" lon="95.210691">
<time>2016-10-08T00:09:13Z</time></trkpt>
<trkpt lat="30.056957" lon="95.210581">
<time>2016-10-08T00:09:14Z</time></trkpt>
<trkpt lat="30.056946" lon="95.210301">
<time>2016-10-08T00:09:15Z</time></trkpt>
<trkpt lat="30.056936" lon="95.210201">
<time>2016-10-08T00:09:16Z</time></trkpt>
<trkpt lat="30.056946" lon="95.210081">
<time>2016-10-08T00:09:17Z</time></trkpt>
<trkpt lat="30.056956" lon="95.20995">
<time>2016-10-08T00:09:18Z</time></trkpt>
<trkpt lat="30.056975" lon="95.20968">
<time>2016-10-08T00:09:19Z</time></trkpt>
<trkpt lat="30.057005" lon="95.209229">
<time>2016-10-08T00:09:20Z</time></trkpt>
<trkpt lat="30.057034" lon="95.208779">
<time>2016-10-08T00:09:21Z</time></trkpt>
<trkpt lat="30.057074" lon="95.208398">
<time>2016-10-08T00:09:22Z</time></trkpt>
<trkpt lat="30.057073" lon="95.208168">
<time>2016-10-08T00:09:23Z</time></trkpt>
<trkpt lat="30.057073" lon="95.208107">
<time>2016-10-08T00:09:24Z</time></trkpt>
<trkpt lat="30.057073" lon="95.208057">
<time>2016-10-08T00:09:25Z</time></trkpt>
<trkpt lat="30.057053" lon="95.207977">
<time>2016-10-08T00:09:26Z</time></trkpt>
<trkpt lat="30.057013" lon="95.207877">
<time>2016-10-08T00:09:27Z</time></trkpt>
<trkpt lat="30.056983" lon="95.207797">
<time>2016-10-08T00:09:28Z</time></trkpt>
<trkpt lat="30.056913" lon="95.207687">
<time>2016-10-08T00:09:29Z</time></trkpt>
<trkpt lat="30.056812" lon="95.207517">
<time>2016-10-08T00:09:30Z</time></trkpt>
<trkpt lat="30.056792" lon="95.207456">
<time>2016-10-08T00:09:31Z</time></trkpt>
<trkpt lat="30.056762" lon="95.207386">
<time>2016-10-08T00:09:32Z</time></trkpt>
<trkpt lat="30.056752" lon="95.207296">
<time>2016-10-08T00:09:33Z</time></trkpt>
<trkpt lat="30.056752" lon="95.207256">
<time>2016-10-08T00:09:34Z</time></trkpt>
<trkpt lat="30.056752" lon="95.207196">
<time>2016-10-08T00:09:35Z</time></trkpt>
<trkpt lat="30.056772" lon="95.207116">
<time>2016-10-08T00:09:36Z</time></trkpt>
<trkpt lat="30.056812" lon="95.206986">
<time>2016-10-08T00:09:37Z</time></trkpt>
<trkpt lat="30.056842" lon="95.206886">
<time>2016-10-08T00:09:38Z</time></trkpt>
<trkpt lat="30.056871" lon="95.206795">
<time>2016-10-08T00:09:39Z</time></trkpt>
<trkpt lat="30.056881" lon="95.206675">
<time>2016-10-08T00:09:40Z</time></trkpt>
<trkpt lat="30.056901" lon="95.206555">
<time>2016-10-08T00:09:41Z</time></trkpt>
<trkpt lat="30.056901" lon="95.206475">
<time>2016-10-08T00:09:42Z</time></trkpt>
<trkpt lat="30.056901" lon="95.206395">
<time>2016-10-08T00:09:43Z</time></trkpt>
<trkpt lat="30.056901" lon="95.206245">
<time>2016-10-08T00:09:44Z</time></trkpt>
<trkpt lat="30.0569" lon="95.206154">
<time>2016-10-08T00:09:45Z</time></trkpt>
<trkpt lat="30.0569" lon="95.206084">
<time>2016-10-08T00:09:46Z</time></trkpt>
<trkpt lat="30.05692" lon="95.205994">
<time>2016-10-08T00:09:47Z</time></trkpt>
<trkpt lat="30.05694" lon="95.205904">
<time>2016-10-08T00:09:48Z</time></trkpt>
<trkpt lat="30.05698" lon="95.205784">
<time>2016-10-08T00:09:49Z</time></trkpt>
<trkpt lat="30.05701" lon="95.205714">
<time>2016-10-08T00:09:50Z</time></trkpt>
<trkpt lat="30.05709" lon="95.205513">
<time>2016-10-08T00:09:51Z</time></trkpt>
<trkpt lat="30.057129" lon="95.205403">
<time>2016-10-08T00:09:52Z</time></trkpt>
<trkpt lat="30.057159" lon="95.205273">
<time>2016-10-08T00:09:53Z</time></trkpt>
<trkpt lat="30.057199" lon="95.205123">
<time>2016-10-08T00:09:54Z</time></trkpt>
<trkpt lat="30.057249" lon="95.204852">
<time>2016-10-08T00:09:55Z</time></trkpt>
<trkpt lat="30.057368" lon="95.204251">
<time>2016-10-08T00:09:56Z</time></trkpt>
<trkpt lat="30.057447" lon="95.203871">
<time>2016-10-08T00:09:57Z</time></trkpt>
<trkpt lat="30.057477" lon="95.20368">
<time>2016-10-08T00:09:58Z</time></trkpt>
<trkpt lat="30.057546" lon="95.20336">
<time>2016-10-08T00:09:59Z</time></trkpt>
<trkpt lat="30.057626" lon="95.202919">
<time>2016-10-08T00:10:00Z</time></trkpt>
<trkpt lat="30.057675" lon="95.202669">
<time>2016-10-08T00:10:01Z</time></trkpt>
<trkpt lat="30.057745" lon="95.202318">
<time>2016-10-08T00:10:02Z</time></trkpt>
<trkpt lat="30.057775" lon="95.202218">
<time>2016-10-08T00:10:03Z</time></trkpt>
<trkpt lat="30.057795" lon="95.202138">
<time>2016-10-08T00:10:04Z</time></trkpt>
<trkpt lat="30.057824" lon="95.202057">
<time>2016-10-08T00:10:05Z</time></trkpt>
<trkpt lat="30.057844" lon="95.201997">
<time>2016-10-08T00:10:06Z</time></trkpt>
<trkpt lat="30.057874" lon="95.201937">
<time>2016-10-08T00:10:07Z</time></trkpt>
<trkpt lat="30.057924" lon="95.201847">
<time>2016-10-08T00:10:08Z</time></trkpt>
<trkpt lat="30.057974" lon="95.201767">
<time>2016-10-08T00:10:09Z</time></trkpt>
<trkpt lat="30.058194" lon="95.201476">
<time>2016-10-08T00:10:10Z</time></trkpt>
<trkpt lat="30.058313" lon="95.201296">
<time>2016-10-08T00:10:11Z</time></trkpt>
<trkpt lat="30.058463" lon="95.201096">
<time>2016-10-08T00:10:12Z</time></trkpt>
<trkpt lat="30.058513" lon="95.201006">
<time>2016-10-08T00:10:13Z</time></trkpt>
<trkpt lat="30.058573" lon="95.200925">
<time>2016-10-08T00:10:14Z</time></trkpt>
<trkpt lat="30.058603" lon="95.200845">
<time>2016-10-08T00:10:15Z</time></trkpt>
<trkpt lat="30.058623" lon="95.200785">
<time>2016-10-08T00:10:16Z</time></trkpt>
<trkpt lat="30.058652" lon="95.200695">
<time>2016-10-08T00:10:17Z</time></trkpt>
<trkpt lat="30.058692" lon="95.200555">
<time>2016-10-08T00:10:18Z</time></trkpt>
<trkpt lat="30.058792" lon="95.200154">
<time>2016-10-08T00:10:19Z</time></trkpt>
<trkpt lat="30.058901" lon="95.199713">
<time>2016-10-08T00:10:20Z</time></trkpt>
<trkpt lat="30.058951" lon="95.199513">
<time>2016-10-08T00:10:21Z</time></trkpt>
<trkpt lat="30.05903" lon="95.199192">
<time>2016-10-08T00:10:22Z</time></trkpt>
<trkpt lat="30.05908" lon="95.198992">
<time>2016-10-08T00:10:23Z</time></trkpt>
<trkpt lat="30.05912" lon="95.198892">
<time>2016-10-08T00:10:24Z</time></trkpt>
<trkpt lat="30.059149" lon="95.198822">
<time>2016-10-08T00:10:25Z</time></trkpt>
<trkpt lat="30.059179" lon="95.198762">
<time>2016-10-08T00:10:26Z</time></trkpt>
<trkpt lat="30.059219" lon="95.198681">
<time>2016-10-08T00:10:27Z</time></trkpt>
<trkpt lat="30.059379" lon="95.198411">
<time>2016-10-08T00:10:28Z</time></trkpt>
<trkpt lat="30.059479" lon="95.198271">
<time>2016-10-08T00:10:29Z</time></trkpt>
<trkpt lat="30.059529" lon="95.198201">
<time>2016-10-08T00:10:30Z</time></trkpt>
<trkpt lat="30.059598" lon="95.19813">
<time>2016-10-08T00:10:31Z</time></trkpt>
<trkpt lat="30.059658" lon="95.19809">
<time>2016-10-08T00:10:32Z</time></trkpt>
<trkpt lat="30.059718" lon="95.19807">
<time>2016-10-08T00:10:33Z</time></trkpt>
<trkpt lat="30.059808" lon="95.19804">
<time>2016-10-08T00:10:34Z</time></trkpt>
<trkpt lat="30.059938" lon="95.198">
<time>2016-10-08T00:10:35Z</time></trkpt>
<trkpt lat="30.060068" lon="95.19797">
<time>2016-10-08T00:10:36Z</time></trkpt>
<trkpt lat="30.060148" lon="95.19796">
<time>2016-10-08T00:10:37Z</time></trkpt>
<trkpt lat="30.060218" lon="95.19796">
<time>2016-10-08T00:10:38Z</time></trkpt>
<trkpt lat="30.060288" lon="95.19796">
<time>2016-10-08T00:10:39Z</time></trkpt>
<trkpt lat="30.060378" lon="95.19798">
<time>2016-10-08T00:10:40Z</time></trkpt>
<trkpt lat="30.060498" lon="95.19802">
<time>2016-10-08T00:10:41Z</time></trkpt>
<trkpt lat="30.060598" lon="95.19806">
<time>2016-10-08T00:10:42Z</time></trkpt>
<trkpt lat="30.060918" lon="95.19818">
<time>2016-10-08T00:10:43Z</time></trkpt>
<trkpt lat="30.061059" lon="95.198241">
<time>2016-10-08T00:10:44Z</time></trkpt>
<trkpt lat="30.061259" lon="95.198321">
<time>2016-10-08T00:10:45Z</time></trkpt>
<trkpt lat="30.061569" lon="95.198441">
<time>2016-10-08T00:10:46Z</time></trkpt>
<trkpt lat="30.061829" lon="95.198521">
<time>2016-10-08T00:10:47Z</time></trkpt>
<trkpt lat="30.061959" lon="95.198551">
<time>2016-10-08T00:10:48Z</time></trkpt>
<trkpt lat="30.062099" lon="95.198571">
<time>2016-10-08T00:10:49Z</time></trkpt>
<trkpt lat="30.062299" lon="95.198591">
<time>2016-10-08T00:10:50Z</time></trkpt>
<trkpt lat="30.062449" lon="95.198611">
<time>2016-10-08T00:10:51Z</time></trkpt>
<trkpt lat="30.062569" lon="95.198611">
<time>2016-10-08T00:10:52Z</time></trkpt>
<trkpt lat="30.062719" lon="95.198611">
<time>2016-10-08T00:10:53Z</time></trkpt>
<trkpt lat="30.062869" lon="95.198591">
<time>2016-10-08T00:10:54Z</time></trkpt>
<trkpt lat="30.063009" lon="95.198561">
<time>2016-10-08T00:10:55Z</time></trkpt>
<trkpt lat="30.063289" lon="95.198511">
<time>2016-10-08T00:10:56Z</time></trkpt>
<trkpt lat="30.063389" lon="95.198501">
<time>2016-10-08T00:10:57Z</time></trkpt>
<trkpt lat="30.063459" lon="95.198511">
<time>2016-10-08T00:10:58Z</time></trkpt>
<trkpt lat="30.063499" lon="95.198521">
<time>2016-10-08T00:10:59Z</time></trkpt>
<trkpt lat="30.063549" lon="95.198531">
<time>2016-10-08T00:11:00Z</time></trkpt>
<trkpt lat="30.063609" lon="95.198561">
<time>2016-10-08T00:11:01Z</time></trkpt>
<trkpt lat="30.063669" lon="95.198591">
<time>2016-10-08T00:11:02Z</time></trkpt>
<trkpt lat="30.063739" lon="95.198641">
<time>2016-10-08T00:11:03Z</time></trkpt>
<trkpt lat="30.063829" lon="95.198711">
<time>2016-10-08T00:11:04Z</time></trkpt>
<trkpt lat="30.06393" lon="95.198822">
<time>2016-10-08T00:11:05Z</time></trkpt>
<trkpt lat="30.06407" lon="95.198942">
<time>2016-10-08T00:11:06Z</time></trkpt>
<trkpt lat="30.06414" lon="95.199002">
<time>2016-10-08T00:11:07Z</time></trkpt>
<trkpt lat="30.0642" lon="95.199022">
<time>2016-10-08T00:11:08Z</time></trkpt>
<trkpt lat="30.06425" lon="95.199022">
<time>2016-10-08T00:11:09Z</time></trkpt>
<trkpt lat="30.0643" lon="95.199002">
<time>2016-10-08T00:11:10Z</time></trkpt>
<trkpt lat="30.06434" lon="95.198972">
<time>2016-10-08T00:11:11Z</time></trkpt>
<trkpt lat="30.06438" lon="95.198932">
<time>2016-10-08T00:11:12Z</time></trkpt>
<trkpt lat="30.06441" lon="95.198872">
<time>2016-10-08T00:11:13Z</time></trkpt>
<trkpt lat="30.064449" lon="95.198741">
<time>2016-10-08T00:11:14Z</time></trkpt>
<trkpt lat="30.064509" lon="95.198541">
<time>2016-10-08T00:11:15Z</time></trkpt>
<trkpt lat="30.064509" lon="95.198491">
<time>2016-10-08T00:11:16Z</time></trkpt>
<trkpt lat="30.064499" lon="95.198431">
<time>2016-10-08T00:11:17Z</time></trkpt>
<trkpt lat="30.064459" lon="95.198331">
<time>2016-10-08T00:11:18Z</time></trkpt>
<trkpt lat="30.064409" lon="95.19817">
<time>2016-10-08T00:11:19Z</time></trkpt>
<trkpt lat="30.064378" lon="95.19807">
<time>2016-10-08T00:11:20Z</time></trkpt>
<trkpt lat="30.064338" lon="95.19798">
<time>2016-10-08T00:11:21Z</time></trkpt>
<trkpt lat="30.064288" lon="95.19789">
<time>2016-10-08T00:11:22Z</time></trkpt>
<trkpt lat="30.064238" lon="95.19781">
<time>2016-10-08T00:11:23Z</time></trkpt>
<trkpt lat="30.064188" lon="95.19775">
<time>2016-10-08T00:11:24Z</time></trkpt>
<trkpt lat="30.064128" lon="95.197679">
<time>2016-10-08T00:11:25Z</time></trkpt>
<trkpt lat="30.064048" lon="95.197619">
<time>2016-10-08T00:11:26Z</time></trkpt>
<trkpt lat="30.063978" lon="95.197579">
<time>2016-10-08T00:11:27Z</time></trkpt>
<trkpt lat="30.063897" lon="95.197529">
<time>2016-10-08T00:11:28Z</time></trkpt>
<trkpt lat="30.063787" lon="95.197479">
<time>2016-10-08T00:11:29Z</time></trkpt>
<trkpt lat="30.063627" lon="95.197409">
<time>2016-10-08T00:11:30Z</time></trkpt>
<trkpt lat="30.063447" lon="95.197309">
<time>2016-10-08T00:11:31Z</time></trkpt>
<trkpt lat="30.063127" lon="95.197098">
<time>2016-10-08T00:11:32Z</time></trkpt>
<trkpt lat="30.062756" lon="95.196858">
<time>2016-10-08T00:11:33Z</time></trkpt>
<trkpt lat="30.062336" lon="95.196588">
<time>2016-10-08T00:11:34Z</time></trkpt>
<trkpt lat="30.061835" lon="95.196257">
<time>2016-10-08T00:11:35Z</time></trkpt>
<trkpt lat="30.061455" lon="95.195996">
<time>2016-10-08T00:11:36Z</time></trkpt>
<trkpt lat="30.061245" lon="95.195856">
<time>2016-10-08T00:11:37Z</time></trkpt>
<trkpt lat="30.060844" lon="95.195606">
<time>2016-10-08T00:11:38Z</time></trkpt>
<trkpt lat="30.060714" lon="95.195516">
<time>2016-10-08T00:11:39Z</time></trkpt>
<trkpt lat="30.060644" lon="95.195465">
<time>2016-10-08T00:11:40Z</time></trkpt>
<trkpt lat="30.060584" lon="95.195405">
<time>2016-10-08T00:11:41Z</time></trkpt>
<trkpt lat="30.060534" lon="95.195345">
<time>2016-10-08T00:11:42Z</time></trkpt>
<trkpt lat="30.060484" lon="95.195285">
<time>2016-10-08T00:11:43Z</time></trkpt>
<trkpt lat="30.060454" lon="95.195205">
<time>2016-10-08T00:11:44Z</time></trkpt>
<trkpt lat="30.060434" lon="95.195135">
<time>2016-10-08T00:11:45Z</time></trkpt>
<trkpt lat="30.060413" lon="95.195045">
<time>2016-10-08T00:11:46Z</time></trkpt>
<trkpt lat="30.060413" lon="95.194894">
<time>2016-10-08T00:11:47Z</time></trkpt>
<trkpt lat="30.060433" lon="95.194624">
<time>2016-10-08T00:11:48Z</time></trkpt>
<trkpt lat="30.060442" lon="95.194444">
<time>2016-10-08T00:11:49Z</time></trkpt>
<trkpt lat="30.060452" lon="95.194293">
<time>2016-10-08T00:11:50Z</time></trkpt>
<trkpt lat="30.060472" lon="95.194183">
<time>2016-10-08T00:11:51Z</time></trkpt>
<trkpt lat="30.060492" lon="95.194093">
<time>2016-10-08T00:11:52Z</time></trkpt>
<trkpt lat="30.060522" lon="95.194023">
<time>2016-10-08T00:11:53Z</time></trkpt>
<trkpt lat="30.060572" lon="95.193943">
<time>2016-10-08T00:11:54Z</time></trkpt>
<trkpt lat="30.060611" lon="95.193872">
<time>2016-10-08T00:11:55Z</time></trkpt>
<trkpt lat="30.060691" lon="95.193782">
<time>2016-10-08T00:11:56Z</time></trkpt>
<trkpt lat="30.060781" lon="95.193682">
<time>2016-10-08T00:11:57Z</time></trkpt>
<trkpt lat="30.060861" lon="95.193592">
<time>2016-10-08T00:11:58Z</time></trkpt>
<trkpt lat="30.060981" lon="95.193502">
<time>2016-10-08T00:11:59Z</time></trkpt>
<trkpt lat="30.061111" lon="95.193412">
<time>2016-10-08T00:12:00Z</time></trkpt>
<trkpt lat="30.061261" lon="95.193351">
<time>2016-10-08T00:12:01Z</time></trkpt>
<trkpt lat="30.06156" lon="95.193231">
<time>2016-10-08T00:12:02Z</time></trkpt>
<trkpt lat="30.06184" lon="95.193111">
<time>2016-10-08T00:12:03Z</time></trkpt>
<trkpt lat="30.06199" lon="95.193021">
<time>2016-10-08T00:12:04Z</time></trkpt>
<trkpt lat="30.06216" lon="95.192921">
<time>2016-10-08T00:12:05Z</time></trkpt>
<trkpt lat="30.06242" lon="95.19275">
<time>2016-10-08T00:12:06Z</time></trkpt>
<trkpt lat="30.062839" lon="95.19244">
<time>2016-10-08T00:12:07Z</time></trkpt>
<trkpt lat="30.063099" lon="95.192229">
<time>2016-10-08T00:12:08Z</time></trkpt>
<trkpt lat="30.063368" lon="95.191949">
<time>2016-10-08T00:12:09Z</time></trkpt>
<trkpt lat="30.063498" lon="95.191818">
<time>2016-10-08T00:12:10Z</time></trkpt>
<trkpt lat="30.063648" lon="95.191678">
<time>2016-10-08T00:12:11Z</time></trkpt>
<trkpt lat="30.063857" lon="95.191498">
<time>2016-10-08T00:12:12Z</time></trkpt>
<trkpt lat="30.064197" lon="95.191247">
<time>2016-10-08T00:12:13Z</time></trkpt>
<trkpt lat="30.064317" lon="95.191147">
<time>2016-10-08T00:12:14Z</time></trkpt>
<trkpt lat="30.064417" lon="95.191047">
<time>2016-10-08T00:12:15Z</time></trkpt>
<trkpt lat="30.064536" lon="95.190927">
<time>2016-10-08T00:12:16Z</time></trkpt>
<trkpt lat="30.064786" lon="95.190586">
<time>2016-10-08T00:12:17Z</time></trkpt>
<trkpt lat="30.064886" lon="95.190446">
<time>2016-10-08T00:12:18Z</time></trkpt>
<trkpt lat="30.064955" lon="95.190295">
<time>2016-10-08T00:12:19Z</time></trkpt>
<trkpt lat="30.064985" lon="95.190185">
<time>2016-10-08T00:12:20Z</time></trkpt>
<trkpt lat="30.065025" lon="95.190055">
<time>2016-10-08T00:12:21Z</time></trkpt>
<trkpt lat="30.065055" lon="95.189885">
<time>2016-10-08T00:12:22Z</time></trkpt>
<trkpt lat="30.065084" lon="95.189744">
<time>2016-10-08T00:12:23Z</time></trkpt>
<trkpt lat="30.065104" lon="95.189604">
<time>2016-10-08T00:12:24Z</time></trkpt>
<trkpt lat="30.065134" lon="95.189514">
<time>2016-10-08T00:12:25Z</time></trkpt>
<trkpt lat="30.065174" lon="95.189384">
<time>2016-10-08T00:12:26Z</time></trkpt>
<trkpt lat="30.065224" lon="95.189263">
<time>2016-10-08T00:12:27Z</time></trkpt>
<trkpt lat="30.065273" lon="95.189133">
<time>2016-10-08T00:12:28Z</time></trkpt>
<trkpt lat="30.065343" lon="95.188953">
<time>2016-10-08T00:12:29Z</time></trkpt>
<trkpt lat="30.065373" lon="95.188832">
<time>2016-10-08T00:12:30Z</time></trkpt>
<trkpt lat="30.065393" lon="95.188762">
<time>2016-10-08T00:12:31Z</time></trkpt>
<trkpt lat="30.065403" lon="95.188702">
<time>2016-10-08T00:12:32Z</time></trkpt>
<trkpt lat="30.065412" lon="95.188622">
<time>2016-10-08T00:12:33Z</time></trkpt>
<trkpt lat="30.065422" lon="95.188542">
<time>2016-10-08T00:12:34Z</time></trkpt>
<trkpt lat="30.065442" lon="95.188321">
<time>2016-10-08T00:12:35Z</time></trkpt>
<trkpt lat="30.065452" lon="95.188221">
<time>2016-10-08T00:12:36Z</time></trkpt>
<trkpt lat="30.065472" lon="95.188151">
<time>2016-10-08T00:12:37Z</time></trkpt>
<trkpt lat="30.065501" lon="95.188051">
<time>2016-10-08T00:12:38Z</time></trkpt>
<trkpt lat="30.065541" lon="95.187971">
<time>2016-10-08T00:12:39Z</time></trkpt>
<trkpt lat="30.065641" lon="95.18777">
<time>2016-10-08T00:12:40Z</time></trkpt>
<trkpt lat="30.065701" lon="95.18766">
<time>2016-10-08T00:12:41Z</time></trkpt>
<trkpt lat="30.065751" lon="95.18754">
<time>2016-10-08T00:12:42Z</time></trkpt>
<trkpt lat="30.0658" lon="95.18743">
<time>2016-10-08T00:12:43Z</time></trkpt>
<trkpt lat="30.06584" lon="95.187279">
<time>2016-10-08T00:12:44Z</time></trkpt>
<trkpt lat="30.06592" lon="95.187019">
<time>2016-10-08T00:12:45Z</time></trkpt>
<trkpt lat="30.065949" lon="95.186899">
<time>2016-10-08T00:12:46Z</time></trkpt>
<trkpt lat="30.065989" lon="95.186788">
<time>2016-10-08T00:12:47Z</time></trkpt>
<trkpt lat="30.066029" lon="95.186688">
<time>2016-10-08T00:12:48Z</time></trkpt>
<trkpt lat="30.066109" lon="95.186548">
<time>2016-10-08T00:12:49Z</time></trkpt>
<trkpt lat="30.066199" lon="95.186398">
<time>2016-10-08T00:12:50Z</time></trkpt>
<trkpt lat="30.066318" lon="95.186247">
<time>2016-10-08T00:12:51Z</time></trkpt>
<trkpt lat="30.066398" lon="95.186147">
<time>2016-10-08T00:12:52Z</time></trkpt>
<trkpt lat="30.066448" lon="95.186077">
<time>2016-10-08T00:12:53Z</time></trkpt>
<trkpt lat="30.066488" lon="95.186027">
<time>2016-10-08T00:12:54Z</time></trkpt>
<trkpt lat="30.066518" lon="95.185967">
<time>2016-10-08T00:12:55Z</time></trkpt>
<trkpt lat="30.066558" lon="95.185876">
<time>2016-10-08T00:12:56Z</time></trkpt>
<trkpt lat="30.066607" lon="95.185746">
<time>2016-10-08T00:12:57Z</time></trkpt>
<trkpt lat="30.066637" lon="95.185626">
<time>2016-10-08T00:12:58Z</time></trkpt>
<trkpt lat="30.066667" lon="95.185426">
<time>2016-10-08T00:12:59Z</time></trkpt>
<trkpt lat="30.066686" lon="95.185255">
<time>2016-10-08T00:13:00Z</time></trkpt>
<trkpt lat="30.066726" lon="95.185035">
<time>2016-10-08T00:13:01Z</time></trkpt>
<trkpt lat="30.066746" lon="95.184834">
<time>2016-10-08T00:13:02Z</time></trkpt>
<trkpt lat="30.066745" lon="95.184644">
<time>2016-10-08T00:13:03Z</time></trkpt>
<trkpt lat="30.066745" lon="95.184313">
<time>2016-10-08T00:13:04Z</time></trkpt>
<trkpt lat="30.066734" lon="95.184093">
<time>2016-10-08T00:13:05Z</time></trkpt>
<trkpt lat="30.066714" lon="95.183882">
<time>2016-10-08T00:13:06Z</time></trkpt>
<trkpt lat="30.066694" lon="95.183802">
<time>2016-10-08T00:13:07Z</time></trkpt>
<trkpt lat="30.066674" lon="95.183702">
<time>2016-10-08T00:13:08Z</time></trkpt>
<trkpt lat="30.066633" lon="95.183562">
<time>2016-10-08T00:13:09Z</time></trkpt>
<trkpt lat="30.066473" lon="95.183131">
<time>2016-10-08T00:13:10Z</time></trkpt>
<trkpt lat="30.066282" lon="95.18261">
<time>2016-10-08T00:13:11Z</time></trkpt>
<trkpt lat="30.066" lon="95.181888">
<time>2016-10-08T00:13:12Z</time></trkpt>
<trkpt lat="30.065809" lon="95.181367">
<time>2016-10-08T00:13:13Z</time></trkpt>
<trkpt lat="30.065709" lon="95.181077">
<time>2016-10-08T00:13:14Z</time></trkpt>
<trkpt lat="30.065669" lon="95.180966">
<time>2016-10-08T00:13:15Z</time></trkpt>
<trkpt lat="30.065658" lon="95.180866">
<time>2016-10-08T00:13:16Z</time></trkpt>
<trkpt lat="30.065658" lon="95.180766">
<time>2016-10-08T00:13:17Z</time></trkpt>
<trkpt lat="30.065668" lon="95.180696">
<time>2016-10-08T00:13:18Z</time></trkpt>
<trkpt lat="30.065688" lon="95.180626">
<time>2016-10-08T00:13:19Z</time></trkpt>
<trkpt lat="30.065708" lon="95.180555">
<time>2016-10-08T00:13:20Z</time></trkpt>
<trkpt lat="30.065738" lon="95.180495">
<time>2016-10-08T00:13:21Z</time></trkpt>
<trkpt lat="30.065798" lon="95.180415">
<time>2016-10-08T00:13:22Z</time></trkpt>
<trkpt lat="30.065857" lon="95.180345">
<time>2016-10-08T00:13:23Z</time></trkpt>
<trkpt lat="30.065947" lon="95.180255">
<time>2016-10-08T00:13:24Z</time></trkpt>
<trkpt lat="30.066047" lon="95.180155">
<time>2016-10-08T00:13:25Z</time></trkpt>
<trkpt lat="30.066147" lon="95.180054">
<time>2016-10-08T00:13:26Z</time></trkpt>
<trkpt lat="30.066227" lon="95.179994">
<time>2016-10-08T00:13:27Z</time></trkpt>
<trkpt lat="30.066267" lon="95.179964">
<time>2016-10-08T00:13:28Z</time></trkpt>
<trkpt lat="30.066327" lon="95.179934">
<time>2016-10-08T00:13:29Z</time></trkpt>
<trkpt lat="30.066387" lon="95.179914">
<time>2016-10-08T00:13:30Z</time></trkpt>
<trkpt lat="30.066437" lon="95.179904">
<time>2016-10-08T00:13:31Z</time></trkpt>
<trkpt lat="30.066517" lon="95.179904">
<time>2016-10-08T00:13:32Z</time></trkpt>
<trkpt lat="30.066617" lon="95.179914">
<time>2016-10-08T00:13:33Z</time></trkpt>
<trkpt lat="30.066847" lon="95.179884">
<time>2016-10-08T00:13:34Z</time></trkpt>
<trkpt lat="30.066917" lon="95.179884">
<time>2016-10-08T00:13:35Z</time></trkpt>
<trkpt lat="30.066947" lon="95.179884">
<time>2016-10-08T00:13:36Z</time></trkpt>
<trkpt lat="30.067057" lon="95.179904">
<time>2016-10-08T00:13:37Z</time></trkpt>
<trkpt lat="30.067107" lon="95.179904">
<time>2016-10-08T00:13:38Z</time></trkpt>
<trkpt lat="30.067177" lon="95.179904">
<time>2016-10-08T00:13:39Z</time></trkpt>
<trkpt lat="30.067217" lon="95.179884">
<time>2016-10-08T00:13:40Z</time></trkpt>
<trkpt lat="30.067257" lon="95.179864">
<time>2016-10-08T00:13:41Z</time></trkpt>
<trkpt lat="30.067287" lon="95.179834">
<time>2016-10-08T00:13:42Z</time></trkpt>
<trkpt lat="30.067316" lon="95.179784">
<time>2016-10-08T00:13:43Z</time></trkpt>
<trkpt lat="30.067366" lon="95.179654">
<time>2016-10-08T00:13:44Z</time></trkpt>
<trkpt lat="30.067426" lon="95.179423">
<time>2016-10-08T00:13:45Z</time></trkpt>
<trkpt lat="30.067426" lon="95.179373">
<time>2016-10-08T00:13:46Z</time></trkpt>
<trkpt lat="30.067416" lon="95.179333">
<time>2016-10-08T00:13:47Z</time></trkpt>
<trkpt lat="30.067396" lon="95.179303">
<time>2016-10-08T00:13:48Z</time></trkpt>
<trkpt lat="30.067376" lon="95.179273">
<time>2016-10-08T00:13:49Z</time></trkpt>
<trkpt lat="30.067345" lon="95.179253">
<time>2016-10-08T00:13:50Z</time></trkpt>
<trkpt lat="30.067305" lon="95.179233">
<time>2016-10-08T00:13:51Z</time></trkpt>
<trkpt lat="30.067185" lon="95.179223">
<time>2016-10-08T00:13:52Z</time></trkpt>
<trkpt lat="30.067125" lon="95.179193">
<time>2016-10-08T00:13:53Z</time></trkpt>
<trkpt lat="30.067075" lon="95.179152">
<time>2016-10-08T00:13:54Z</time></trkpt>
<trkpt lat="30.066975" lon="95.179062">
<time>2016-10-08T00:13:55Z</time></trkpt>
<trkpt lat="30.066805" lon="95.178912">
<time>2016-10-08T00:13:56Z</time></trkpt>
<trkpt lat="30.066755" lon="95.178842">
<time>2016-10-08T00:13:57Z</time></trkpt>
<trkpt lat="30.066725" lon="95.178772">
<time>2016-10-08T00:13:58Z</time></trkpt>
<trkpt lat="30.066705" lon="95.178742">
<time>2016-10-08T00:13:59Z</time></trkpt>
<trkpt lat="30.066694" lon="95.178682">
<time>2016-10-08T00:14:00Z</time></trkpt>
<trkpt lat="30.066684" lon="95.178611">
<time>2016-10-08T00:14:01Z</time></trkpt>
<trkpt lat="30.066684" lon="95.178541">
<time>2016-10-08T00:14:02Z</time></trkpt>
<trkpt lat="30.066704" lon="95.178451">
<time>2016-10-08T00:14:03Z</time></trkpt>
<trkpt lat="30.066774" lon="95.178241">
<time>2016-10-08T00:14:04Z</time></trkpt>
<trkpt lat="30.066853" lon="95.17799">
<time>2016-10-08T00:14:05Z</time></trkpt>
<trkpt lat="30.066992" lon="95.177549">
<time>2016-10-08T00:14:06Z</time></trkpt>
<trkpt lat="30.067032" lon="95.177409">
<time>2016-10-08T00:14:07Z</time></trkpt>
<trkpt lat="30.067062" lon="95.177329">
<time>2016-10-08T00:14:08Z</time></trkpt>
<trkpt lat="30.067112" lon="95.177228">
<time>2016-10-08T00:14:09Z</time></trkpt>
<trkpt lat="30.067211" lon="95.177048">
<time>2016-10-08T00:14:10Z</time></trkpt>
<trkpt lat="30.067291" lon="95.176948">
<time>2016-10-08T00:14:11Z</time></trkpt>
<trkpt lat="30.067361" lon="95.176838">
<time>2016-10-08T00:14:12Z</time></trkpt>
<trkpt lat="30.067461" lon="95.176727">
<time>2016-10-08T00:14:13Z</time></trkpt>
<trkpt lat="30.067551" lon="95.176617">
<time>2016-10-08T00:14:14Z</time></trkpt>
<trkpt lat="30.06761" lon="95.176537">
<time>2016-10-08T00:14:15Z</time></trkpt>
<trkpt lat="30.06768" lon="95.176447">
<time>2016-10-08T00:14:16Z</time></trkpt>
<trkpt lat="30.06771" lon="95.176387">
<time>2016-10-08T00:14:17Z</time></trkpt>
<trkpt lat="30.06774" lon="95.176316">
<time>2016-10-08T00:14:18Z</time></trkpt>
<trkpt lat="30.06779" lon="95.176166">
<time>2016-10-08T00:14:19Z</time></trkpt>
<trkpt lat="30.067819" lon="95.176016">
<time>2016-10-08T00:14:20Z</time></trkpt>
<trkpt lat="30.067889" lon="95.175695">
<time>2016-10-08T00:14:21Z</time></trkpt>
<trkpt lat="30.067919" lon="95.175505">
<time>2016-10-08T00:14:22Z</time></trkpt>
<trkpt lat="30.067948" lon="95.175284">
<time>2016-10-08T00:14:23Z</time></trkpt>
<trkpt lat="30.067968" lon="95.175014">
<time>2016-10-08T00:14:24Z</time></trkpt>
<trkpt lat="30.067977" lon="95.174914">
<time>2016-10-08T00:14:25Z</time></trkpt>
<trkpt lat="30.067977" lon="95.174813">
<time>2016-10-08T00:14:26Z</time></trkpt>
<trkpt lat="30.067977" lon="95.174533">
<time>2016-10-08T00:14:27Z</time></trkpt>
<trkpt lat="30.067976" lon="95.174272">
<time>2016-10-08T00:14:28Z</time></trkpt>
<trkpt lat="30.067986" lon="95.174052">
<time>2016-10-08T00:14:29Z</time></trkpt>
<trkpt lat="30.068015" lon="95.173891">
<time>2016-10-08T00:14:30Z</time></trkpt>
<trkpt lat="30.068075" lon="95.17338">
<time>2016-10-08T00:14:31Z</time></trkpt>
<trkpt lat="30.068134" lon="95.172979">
<time>2016-10-08T00:14:32Z</time></trkpt>
<trkpt lat="30.068153" lon="95.172809">
<time>2016-10-08T00:14:33Z</time></trkpt>
<trkpt lat="30.068163" lon="95.172528">
<time>2016-10-08T00:14:34Z</time></trkpt>
<trkpt lat="30.068163" lon="95.172388">
<time>2016-10-08T00:14:35Z</time></trkpt>
<trkpt lat="30.068152" lon="95.172258">
<time>2016-10-08T00:14:36Z</time></trkpt>
<trkpt lat="30.068132" lon="95.171997">
<time>2016-10-08T00:14:37Z</time></trkpt>
<trkpt lat="30.068091" lon="95.171596">
<time>2016-10-08T00:14:38Z</time></trkpt>
<trkpt lat="30.068081" lon="95.171496">
<time>2016-10-08T00:14:39Z</time></trkpt>
<trkpt lat="30.068071" lon="95.171356">
<time>2016-10-08T00:14:40Z</time></trkpt>
<trkpt lat="30.06809" lon="95.171186">
<time>2016-10-08T00:14:41Z</time></trkpt>
<trkpt lat="30.06816" lon="95.170795">
<time>2016-10-08T00:14:42Z</time></trkpt>
<trkpt lat="30.068209" lon="95.170484">
<time>2016-10-08T00:14:43Z</time></trkpt>
<trkpt lat="30.068278" lon="95.170063">
<time>2016-10-08T00:14:44Z</time></trkpt>
<trkpt lat="30.068318" lon="95.169712">
<time>2016-10-08T00:14:45Z</time></trkpt>
<trkpt lat="30.068406" lon="95.169111">
<time>2016-10-08T00:14:46Z</time></trkpt>
<trkpt lat="30.068456" lon="95.168891">
<time>2016-10-08T00:14:47Z</time></trkpt>
<trkpt lat="30.068516" lon="95.1686">
<time>2016-10-08T00:14:48Z</time></trkpt>
<trkpt lat="30.068545" lon="95.16844">
<time>2016-10-08T00:14:49Z</time></trkpt>
<trkpt lat="30.068565" lon="95.168279">
<time>2016-10-08T00:14:50Z</time></trkpt>
<trkpt lat="30.068575" lon="95.168159">
<time>2016-10-08T00:14:51Z</time></trkpt>
<trkpt lat="30.068584" lon="95.168009">
<time>2016-10-08T00:14:52Z</time></trkpt>
<trkpt lat="30.068574" lon="95.167859">
<time>2016-10-08T00:14:53Z</time></trkpt>
<trkpt lat="30.068544" lon="95.167688">
<time>2016-10-08T00:14:54Z</time></trkpt>
<trkpt lat="30.068503" lon="95.167337">
<time>2016-10-08T00:14:55Z</time></trkpt>
<trkpt lat="30.068422" lon="95.166746">
<time>2016-10-08T00:14:56Z</time></trkpt>
<trkpt lat="30.068372" lon="95.166536">
<time>2016-10-08T00:14:57Z</time></trkpt>
<trkpt lat="30.068341" lon="95.166395">
<time>2016-10-08T00:14:58Z</time></trkpt>
<trkpt lat="30.068311" lon="95.166315">
<time>2016-10-08T00:14:59Z</time></trkpt>
<trkpt lat="30.068261" lon="95.166135">
<time>2016-10-08T00:15:00Z</time></trkpt>
<trkpt lat="30.06818" lon="95.165914">
<time>2016-10-08T00:15:01Z</time></trkpt>
<trkpt lat="30.06811" lon="95.165724">
<time>2016-10-08T00:15:02Z</time></trkpt>
<trkpt lat="30.067839" lon="95.165023">
<time>2016-10-08T00:15:03Z</time></trkpt>
<trkpt lat="30.067789" lon="95.164892">
<time>2016-10-08T00:15:04Z</time></trkpt>
<trkpt lat="30.067718" lon="95.164732">
<time>2016-10-08T00:15:05Z</time></trkpt>
<trkpt lat="30.067628" lon="95.164602">
<time>2016-10-08T00:15:06Z</time></trkpt>
<trkpt lat="30.067548" lon="95.164481">
<time>2016-10-08T00:15:07Z</time></trkpt>
<trkpt lat="30.067468" lon="95.164371">
<time>2016-10-08T00:15:08Z</time></trkpt>
<trkpt lat="30.067397" lon="95.164291">
<time>2016-10-08T00:15:09Z</time></trkpt>
<trkpt lat="30.067137" lon="95.164051">
<time>2016-10-08T00:15:10Z</time></trkpt>
<trkpt lat="30.067037" lon="95.16393">
<time>2016-10-08T00:15:11Z</time></trkpt>
<trkpt lat="30.066957" lon="95.16381">
<time>2016-10-08T00:15:12Z</time></trkpt>
<trkpt lat="30.066886" lon="95.16369">
<time>2016-10-08T00:15:13Z</time></trkpt>
<trkpt lat="30.066816" lon="95.163549">
<time>2016-10-08T00:15:14Z</time></trkpt>
<trkpt lat="30.066635" lon="95.163189">
<time>2016-10-08T00:15:15Z</time></trkpt>
<trkpt lat="30.066465" lon="95.162848">
<time>2016-10-08T00:15:16Z</time></trkpt>
<trkpt lat="30.066334" lon="95.162587">
<time>2016-10-08T00:15:17Z</time></trkpt>
<trkpt lat="30.066133" lon="95.162187">
<time>2016-10-08T00:15:18Z</time></trkpt>
<trkpt lat="30.065993" lon="95.161926">
<time>2016-10-08T00:15:19Z</time></trkpt>
<trkpt lat="30.065812" lon="95.161575">
<time>2016-10-08T00:15:20Z</time></trkpt>
<trkpt lat="30.065762" lon="95.161505">
<time>2016-10-08T00:15:21Z</time></trkpt>
<trkpt lat="30.065702" lon="95.161415">
<time>2016-10-08T00:15:22Z</time></trkpt>
<trkpt lat="30.065622" lon="95.161335">
<time>2016-10-08T00:15:23Z</time></trkpt>
<trkpt lat="30.065522" lon="95.161265">
<time>2016-10-08T00:15:24Z</time></trkpt>
<trkpt lat="30.065221" lon="95.161064">
<time>2016-10-08T00:15:25Z</time></trkpt>
<trkpt lat="30.064891" lon="95.160834">
<time>2016-10-08T00:15:26Z</time></trkpt>
<trkpt lat="30.064721" lon="95.160714">
<time>2016-10-08T00:15:27Z</time></trkpt>
<trkpt lat="30.06455" lon="95.160573">
<time>2016-10-08T00:15:28Z</time></trkpt>
<trkpt lat="30.06441" lon="95.160463">
<time>2016-10-08T00:15:29Z</time></trkpt>
<trkpt lat="30.06431" lon="95.160353">
<time>2016-10-08T00:15:30Z</time></trkpt>
<trkpt lat="30.06424" lon="95.160263">
<time>2016-10-08T00:15:31Z</time></trkpt>
<trkpt lat="30.06421" lon="95.160213">
<time>2016-10-08T00:15:32Z</time></trkpt>
<trkpt lat="30.06418" lon="95.160142">
<time>2016-10-08T00:15:33Z</time></trkpt>
<trkpt lat="30.06415" lon="95.160062">
<time>2016-10-08T00:15:34Z</time></trkpt>
<trkpt lat="30.064119" lon="95.159972">
<time>2016-10-08T00:15:35Z</time></trkpt>
<trkpt lat="30.064089" lon="95.159842">
<time>2016-10-08T00:15:36Z</time></trkpt>
<trkpt lat="30.064079" lon="95.159671">
<time>2016-10-08T00:15:37Z</time></trkpt>
<trkpt lat="30.064048" lon="95.159381">
<time>2016-10-08T00:15:38Z</time></trkpt>
<trkpt lat="30.064048" lon="95.159231">
<time>2016-10-08T00:15:39Z</time></trkpt>
<trkpt lat="30.064058" lon="95.15909">
<time>2016-10-08T00:15:40Z</time></trkpt>
<trkpt lat="30.064077" lon="95.15891">
<time>2016-10-08T00:15:41Z</time></trkpt>
<trkpt lat="30.064097" lon="95.158689">
<time>2016-10-08T00:15:42Z</time></trkpt>
<trkpt lat="30.064107" lon="95.158529">
<time>2016-10-08T00:15:43Z</time></trkpt>
<trkpt lat="30.064096" lon="95.158359">
<time>2016-10-08T00:15:44Z</time></trkpt>
<trkpt lat="30.064066" lon="95.157878">
<time>2016-10-08T00:15:45Z</time></trkpt>
<trkpt lat="30.064055" lon="95.157737">
<time>2016-10-08T00:15:46Z</time></trkpt>
<trkpt lat="30.064045" lon="95.157617">
<time>2016-10-08T00:15:47Z</time></trkpt>
<trkpt lat="30.064045" lon="95.157577">
<time>2016-10-08T00:15:48Z</time></trkpt>
<trkpt lat="30.064045" lon="95.157537">
<time>2016-10-08T00:15:49Z</time></trkpt>
<trkpt lat="30.064045" lon="95.157507">
<time>2016-10-08T00:15:50Z</time></trkpt>
<trkpt lat="30.064045" lon="95.157427">
<time>2016-10-08T00:15:51Z</time></trkpt>
<trkpt lat="30.064055" lon="95.157317">
<time>2016-10-08T00:15:52Z</time></trkpt>
<trkpt lat="30.064084" lon="95.157226">
<time>2016-10-08T00:15:53Z</time></trkpt>
<trkpt lat="30.064114" lon="95.157126">
<time>2016-10-08T00:15:54Z</time></trkpt>
<trkpt lat="30.064154" lon="95.157016">
<time>2016-10-08T00:15:55Z</time></trkpt>
<trkpt lat="30.064174" lon="95.156956">
<time>2016-10-08T00:15:56Z</time></trkpt>
<trkpt lat="30.064194" lon="95.156896">
<time>2016-10-08T00:15:57Z</time></trkpt>
<trkpt lat="30.064214" lon="95.156806">
<time>2016-10-08T00:15:58Z</time></trkpt>
<trkpt lat="30.064233" lon="95.156685">
<time>2016-10-08T00:15:59Z</time></trkpt>
<trkpt lat="30.064263" lon="95.156405">
<time>2016-10-08T00:16:00Z</time></trkpt>
<trkpt lat="30.064283" lon="95.156234">
<time>2016-10-08T00:16:01Z</time></trkpt>
<trkpt lat="30.064302" lon="95.156134">
<time>2016-10-08T00:16:02Z</time></trkpt>
<trkpt lat="30.064312" lon="95.156044">
<time>2016-10-08T00:16:03Z</time></trkpt>
<trkpt lat="30.064322" lon="95.155974">
<time>2016-10-08T00:16:04Z</time></trkpt>
<trkpt lat="30.064352" lon="95.155884">
<time>2016-10-08T00:16:05Z</time></trkpt>
<trkpt lat="30.064392" lon="95.155753">
<time>2016-10-08T00:16:06Z</time></trkpt>
<trkpt lat="30.064491" lon="95.155513">
<time>2016-10-08T00:16:07Z</time></trkpt>
<trkpt lat="30.064571" lon="95.155313">
<time>2016-10-08T00:16:08Z</time></trkpt>
<trkpt lat="30.064621" lon="95.155152">
<time>2016-10-08T00:16:09Z</time></trkpt>
<trkpt lat="30.06466" lon="95.155012">
<time>2016-10-08T00:16:10Z</time></trkpt>
<trkpt lat="30.06472" lon="95.154852">
<time>2016-10-08T00:16:11Z</time></trkpt>
<trkpt lat="30.06477" lon="95.154741">
<time>2016-10-08T00:16:12Z</time></trkpt>
<trkpt lat="30.06489" lon="95.154511">
<time>2016-10-08T00:16:13Z</time></trkpt>
<trkpt lat="30.065009" lon="95.15425">
<time>2016-10-08T00:16:14Z</time></trkpt>
<trkpt lat="30.065089" lon="95.15405">
<time>2016-10-08T00:16:15Z</time></trkpt>
<trkpt lat="30.065168" lon="95.15385">
<time>2016-10-08T00:16:16Z</time></trkpt>
<trkpt lat="30.065238" lon="95.153609">
<time>2016-10-08T00:16:17Z</time></trkpt>
<trkpt lat="30.065288" lon="95.153459">
<time>2016-10-08T00:16:18Z</time></trkpt>
<trkpt lat="30.065327" lon="95.153329">
<time>2016-10-08T00:16:19Z</time></trkpt>
<trkpt lat="30.065367" lon="95.153238">
<time>2016-10-08T00:16:20Z</time></trkpt>
<trkpt lat="30.065407" lon="95.153138">
<time>2016-10-08T00:16:21Z</time></trkpt>
<trkpt lat="30.065457" lon="95.153058">
<time>2016-10-08T00:16:22Z</time></trkpt>
<trkpt lat="30.065507" lon="95.152978">
<time>2016-10-08T00:16:23Z</time></trkpt>
<trkpt lat="30.065646" lon="95.152778">
<time>2016-10-08T00:16:24Z</time></trkpt>
<trkpt lat="30.065736" lon="95.152657">
<time>2016-10-08T00:16:25Z</time></trkpt>
<trkpt lat="30.065786" lon="95.152577">
<time>2016-10-08T00:16:26Z</time></trkpt>
<trkpt lat="30.065816" lon="95.152507">
<time>2016-10-08T00:16:27Z</time></trkpt>
<trkpt lat="30.065856" lon="95.152407">
<time>2016-10-08T00:16:28Z</time></trkpt>
<trkpt lat="30.065926" lon="95.152236">
<time>2016-10-08T00:16:29Z</time></trkpt>
<trkpt lat="30.065995" lon="95.152086">
<time>2016-10-08T00:16:30Z</time></trkpt>
<trkpt lat="30.066015" lon="95.152026">
<time>2016-10-08T00:16:31Z</time></trkpt>
<trkpt lat="30.066035" lon="95.151956">
<time>2016-10-08T00:16:32Z</time></trkpt>
<trkpt lat="30.066065" lon="95.151846">
<time>2016-10-08T00:16:33Z</time></trkpt>
<trkpt lat="30.066095" lon="95.151715">
<time>2016-10-08T00:16:34Z</time></trkpt>
<trkpt lat="30.066144" lon="95.151535">
<time>2016-10-08T00:16:35Z</time></trkpt>
<trkpt lat="30.066204" lon="95.151415">
<time>2016-10-08T00:16:36Z</time></trkpt>
<trkpt lat="30.066264" lon="95.151335">
<time>2016-10-08T00:16:37Z</time></trkpt>
<trkpt lat="30.066314" lon="95.151275">
<time>2016-10-08T00:16:38Z</time></trkpt>
<trkpt lat="30.066384" lon="95.151214">
<time>2016-10-08T00:16:39Z</time></trkpt>
<trkpt lat="30.066464" lon="95.151154">
<time>2016-10-08T00:16:40Z</time></trkpt>
<trkpt lat="30.066544" lon="95.151124">
<time>2016-10-08T00:16:41Z</time></trkpt>
<trkpt lat="30.066783" lon="95.151044">
<time>2016-10-08T00:16:42Z</time></trkpt>
<trkpt lat="30.066933" lon="95.150974">
<time>2016-10-08T00:16:43Z</time></trkpt>
<trkpt lat="30.067223" lon="95.150834">
<time>2016-10-08T00:16:44Z</time></trkpt>
<trkpt lat="30.067503" lon="95.150693">
<time>2016-10-08T00:16:45Z</time></trkpt>
<trkpt lat="30.067593" lon="95.150653">
<time>2016-10-08T00:16:46Z</time></trkpt>
<trkpt lat="30.067723" lon="95.150613">
<time>2016-10-08T00:16:47Z</time></trkpt>
<trkpt lat="30.067893" lon="95.150563">
<time>2016-10-08T00:16:48Z</time></trkpt>
<trkpt lat="30.068013" lon="95.150523">
<time>2016-10-08T00:16:49Z</time></trkpt>
<trkpt lat="30.068102" lon="95.150483">
<time>2016-10-08T00:16:50Z</time></trkpt>
<trkpt lat="30.068272" lon="95.150403">
<time>2016-10-08T00:16:51Z</time></trkpt>
<trkpt lat="30.068352" lon="95.150363">
<time>2016-10-08T00:16:52Z</time></trkpt>
<trkpt lat="30.068452" lon="95.150303">
<time>2016-10-08T00:16:53Z</time></trkpt>
<trkpt lat="30.068552" lon="95.150232">
<time>2016-10-08T00:16:54Z</time></trkpt>
<trkpt lat="30.068612" lon="95.150182">
<time>2016-10-08T00:16:55Z</time></trkpt>
<trkpt lat="30.068682" lon="95.150142">
<time>2016-10-08T00:16:56Z</time></trkpt>
<trkpt lat="30.068862" lon="95.150052">
<time>2016-10-08T00:16:57Z</time></trkpt>
<trkpt lat="30.069052" lon="95.149942">
<time>2016-10-08T00:16:58Z</time></trkpt>
<trkpt lat="30.069171" lon="95.149822">
<time>2016-10-08T00:16:59Z</time></trkpt>
<trkpt lat="30.069311" lon="95.149671">
<time>2016-10-08T00:17:00Z</time></trkpt>
<trkpt lat="30.069401" lon="95.149571">
<time>2016-10-08T00:17:01Z</time></trkpt>
<trkpt lat="30.069611" lon="95.149391">
<time>2016-10-08T00:17:02Z</time></trkpt>
<trkpt lat="30.07009" lon="95.14898">
<time>2016-10-08T00:17:03Z</time></trkpt>
<trkpt lat="30.07024" lon="95.14885">
<time>2016-10-08T00:17:04Z</time></trkpt>
<trkpt lat="30.07036" lon="95.14876">
<time>2016-10-08T00:17:05Z</time></trkpt>
<trkpt lat="30.070449" lon="95.1487">
<time>2016-10-08T00:17:06Z</time></trkpt>
<trkpt lat="30.070549" lon="95.148649">
<time>2016-10-08T00:17:07Z</time></trkpt>
<trkpt lat="30.070609" lon="95.148619">
<time>2016-10-08T00:17:08Z</time></trkpt>
<trkpt lat="30.070669" lon="95.148599">
<time>2016-10-08T00:17:09Z</time></trkpt>
<trkpt lat="30.070749" lon="95.148549">
<time>2016-10-08T00:17:10Z</time></trkpt>
<trkpt lat="30.070819" lon="95.148469">
<time>2016-10-08T00:17:11Z</time></trkpt>
<trkpt lat="30.070879" lon="95.148399">
<time>2016-10-08T00:17:12Z</time></trkpt>
<trkpt lat="30.070969" lon="95.148329">
<time>2016-10-08T00:17:13Z</time></trkpt>
<trkpt lat="30.071049" lon="95.148259">
<time>2016-10-08T00:17:14Z</time></trkpt>
<trkpt lat="30.071119" lon="95.148189">
<time>2016-10-08T00:17:15Z</time></trkpt>
<trkpt lat="30.071198" lon="95.148088">
<time>2016-10-08T00:17:16Z</time></trkpt>
<trkpt lat="30.071278" lon="95.147968">
<time>2016-10-08T00:17:17Z</time></trkpt>
<trkpt lat="30.071338" lon="95.147858">
<time>2016-10-08T00:17:18Z</time></trkpt>
<trkpt lat="30.071418" lon="95.147738">
<time>2016-10-08T00:17:19Z</time></trkpt>
<trkpt lat="30.071468" lon="95.147607">
<time>2016-10-08T00:17:20Z</time></trkpt>
<trkpt lat="30.071507" lon="95.147447">
<time>2016-10-08T00:17:21Z</time></trkpt>
<trkpt lat="30.071557" lon="95.147267">
<time>2016-10-08T00:17:22Z</time></trkpt>
<trkpt lat="30.071617" lon="95.147086">
<time>2016-10-08T00:17:23Z</time></trkpt>
<trkpt lat="30.071816" lon="95.146636">
<time>2016-10-08T00:17:24Z</time></trkpt>
<trkpt lat="30.071866" lon="95.146505">
<time>2016-10-08T00:17:25Z</time></trkpt>
<trkpt lat="30.071915" lon="95.146285">
<time>2016-10-08T00:17:26Z</time></trkpt>
<trkpt lat="30.071935" lon="95.146155">
<time>2016-10-08T00:17:27Z</time></trkpt>
<trkpt lat="30.071945" lon="95.146004">
<time>2016-10-08T00:17:28Z</time></trkpt>
<trkpt lat="30.071955" lon="95.145844">
<time>2016-10-08T00:17:29Z</time></trkpt>
<trkpt lat="30.072074" lon="95.145313">
<time>2016-10-08T00:17:30Z</time></trkpt>
<trkpt lat="30.072103" lon="95.145053">
<time>2016-10-08T00:17:31Z</time></trkpt>
<trkpt lat="30.072103" lon="95.144912">
<time>2016-10-08T00:17:32Z</time></trkpt>
<trkpt lat="30.072103" lon="95.144772">
<time>2016-10-08T00:17:33Z</time></trkpt>
<trkpt lat="30.072103" lon="95.144742">
<time>2016-10-08T00:17:34Z</time></trkpt>
<trkpt lat="30.072113" lon="95.144702">
<time>2016-10-08T00:17:35Z</time></trkpt>
<trkpt lat="30.072143" lon="95.144602">
<time>2016-10-08T00:17:36Z</time></trkpt>
<trkpt lat="30.072222" lon="95.144361">
<time>2016-10-08T00:17:37Z</time></trkpt>
<trkpt lat="30.072252" lon="95.144251">
<time>2016-10-08T00:17:38Z</time></trkpt>
<trkpt lat="30.072272" lon="95.144161">
<time>2016-10-08T00:17:39Z</time></trkpt>
<trkpt lat="30.072282" lon="95.144071">
<time>2016-10-08T00:17:40Z</time></trkpt>
<trkpt lat="30.072292" lon="95.143971">
<time>2016-10-08T00:17:41Z</time></trkpt>
<trkpt lat="30.072292" lon="95.143871">
<time>2016-10-08T00:17:42Z</time></trkpt>
<trkpt lat="30.072311" lon="95.14347">
<time>2016-10-08T00:17:43Z</time></trkpt>
<trkpt lat="30.07235" lon="95.143029">
<time>2016-10-08T00:17:44Z</time></trkpt>
<trkpt lat="30.07239" lon="95.142648">
<time>2016-10-08T00:17:45Z</time></trkpt>
<trkpt lat="30.072409" lon="95.142528">
<time>2016-10-08T00:17:46Z</time></trkpt>
<trkpt lat="30.072439" lon="95.142378">
<time>2016-10-08T00:17:47Z</time></trkpt>
<trkpt lat="30.072469" lon="95.142278">
<time>2016-10-08T00:17:48Z</time></trkpt>
<trkpt lat="30.072509" lon="95.142067">
<time>2016-10-08T00:17:49Z</time></trkpt>
<trkpt lat="30.072538" lon="95.141887">
<time>2016-10-08T00:17:50Z</time></trkpt>
<trkpt lat="30.072588" lon="95.141687">
<time>2016-10-08T00:17:51Z</time></trkpt>
<trkpt lat="30.072628" lon="95.141537">
<time>2016-10-08T00:17:52Z</time></trkpt>
<trkpt lat="30.072648" lon="95.141476">
<time>2016-10-08T00:17:53Z</time></trkpt>
<trkpt lat="30.072658" lon="95.141436">
<time>2016-10-08T00:17:54Z</time></trkpt>
<trkpt lat="30.072648" lon="95.141406">
<time>2016-10-08T00:17:55Z</time></trkpt>
<trkpt lat="30.072648" lon="95.141366">
<time>2016-10-08T00:17:56Z</time></trkpt>
<trkpt lat="30.072658" lon="95.141316">
<time>2016-10-08T00:17:57Z</time></trkpt>
<trkpt lat="30.072667" lon="95.141266">
<time>2016-10-08T00:17:58Z</time></trkpt>
<trkpt lat="30.072687" lon="95.141226">
<time>2016-10-08T00:17:59Z</time></trkpt>
<trkpt lat="30.072687" lon="95.141186">
<time>2016-10-08T00:18:00Z</time></trkpt>
<trkpt lat="30.072677" lon="95.141156">
<time>2016-10-08T00:18:01Z</time></trkpt>
<trkpt lat="30.072657" lon="95.141116">
<time>2016-10-08T00:18:02Z</time></trkpt>
<trkpt lat="30.072627" lon="95.141046">
<time>2016-10-08T00:18:03Z</time></trkpt>
<trkpt lat="30.072587" lon="95.140986">
<time>2016-10-08T00:18:04Z</time></trkpt>
<trkpt lat="30.072557" lon="95.140925">
<time>2016-10-08T00:18:05Z</time></trkpt>
<trkpt lat="30.072537" lon="95.140835">
<time>2016-10-08T00:18:06Z</time></trkpt>
<trkpt lat="30.072507" lon="95.140735">
<time>2016-10-08T00:18:07Z</time></trkpt>
<trkpt lat="30.072466" lon="95.140485">
<time>2016-10-08T00:18:08Z</time></trkpt>
<trkpt lat="30.072446" lon="95.140405">
<time>2016-10-08T00:18:09Z</time></trkpt>
<trkpt lat="30.072426" lon="95.140334">
<time>2016-10-08T00:18:10Z</time></trkpt>
<trkpt lat="30.072396" lon="95.140274">
<time>2016-10-08T00:18:11Z</time></trkpt>
<trkpt lat="30.072316" lon="95.140104">
<time>2016-10-08T00:18:12Z</time></trkpt>
<trkpt lat="30.072175" lon="95.139864">
<time>2016-10-08T00:18:13Z</time></trkpt>
<trkpt lat="30.072115" lon="95.139733">
<time>2016-10-08T00:18:14Z</time></trkpt>
<trkpt lat="30.072055" lon="95.139593">
<time>2016-10-08T00:18:15Z</time></trkpt>
<trkpt lat="30.072025" lon="95.139483">
<time>2016-10-08T00:18:16Z</time></trkpt>
<trkpt lat="30.071995" lon="95.139393">
<time>2016-10-08T00:18:17Z</time></trkpt>
<trkpt lat="30.071974" lon="95.139313">
<time>2016-10-08T00:18:18Z</time></trkpt>
<trkpt lat="30.071964" lon="95.139233">
<time>2016-10-08T00:18:19Z</time></trkpt>
<trkpt lat="30.071954" lon="95.139142">
<time>2016-10-08T00:18:20Z</time></trkpt>
<trkpt lat="30.071944" lon="95.139062">
<time>2016-10-08T00:18:21Z</time></trkpt>
<trkpt lat="30.071914" lon="95.138912">
<time>2016-10-08T00:18:22Z</time></trkpt>
<trkpt lat="30.071854" lon="95.138732">
<time>2016-10-08T00:18:23Z</time></trkpt>
<trkpt lat="30.071803" lon="95.138592">
<time>2016-10-08T00:18:24Z</time></trkpt>
<trkpt lat="30.071763" lon="95.138481">
<time>2016-10-08T00:18:25Z</time></trkpt>
<trkpt lat="30.071713" lon="95.138391">
<time>2016-10-08T00:18:26Z</time></trkpt>
<trkpt lat="30.071673" lon="95.138321">
<time>2016-10-08T00:18:27Z</time></trkpt>
<trkpt lat="30.071613" lon="95.138241">
<time>2016-10-08T00:18:28Z</time></trkpt>
<trkpt lat="30.071483" lon="95.138031">
<time>2016-10-08T00:18:29Z</time></trkpt>
<trkpt lat="30.071392" lon="95.13787">
<time>2016-10-08T00:18:30Z</time></trkpt>
<trkpt lat="30.071292" lon="95.13768">
<time>2016-10-08T00:18:31Z</time></trkpt>
<trkpt lat="30.071232" lon="95.13758">
<time>2016-10-08T00:18:32Z</time></trkpt>
<trkpt lat="30.071162" lon="95.13747">
<time>2016-10-08T00:18:33Z</time></trkpt>
<trkpt lat="30.071062" lon="95.13732">
<time>2016-10-08T00:18:34Z</time></trkpt>
<trkpt lat="30.070931" lon="95.137149">
<time>2016-10-08T00:18:35Z</time></trkpt>
<trkpt lat="30.070721" lon="95.136919">
<time>2016-10-08T00:18:36Z</time></trkpt>
<trkpt lat="30.070621" lon="95.136799">
<time>2016-10-08T00:18:37Z</time></trkpt>
<trkpt lat="30.07047" lon="95.136588">
<time>2016-10-08T00:18:38Z</time></trkpt>
<trkpt lat="30.07038" lon="95.136468">
<time>2016-10-08T00:18:39Z</time></trkpt>
<trkpt lat="30.07027" lon="95.136338">
<time>2016-10-08T00:18:40Z</time></trkpt>
<trkpt lat="30.07006" lon="95.136158">
<time>2016-10-08T00:18:41Z</time></trkpt>
<trkpt lat="30.06996" lon="95.136078">
<time>2016-10-08T00:18:42Z</time></trkpt>
<trkpt lat="30.06984" lon="95.135977">
<time>2016-10-08T00:18:43Z</time></trkpt>
<trkpt lat="30.069739" lon="95.135877">
<time>2016-10-08T00:18:44Z</time></trkpt>
<trkpt lat="30.069609" lon="95.135737">
<time>2016-10-08T00:18:45Z</time></trkpt>
<trkpt lat="30.069519" lon="95.135627">
<time>2016-10-08T00:18:46Z</time></trkpt>
<trkpt lat="30.069489" lon="95.135587">
<time>2016-10-08T00:18:47Z</time></trkpt>
<trkpt lat="30.069479" lon="95.135547">
<time>2016-10-08T00:18:48Z</time></trkpt>
<trkpt lat="30.069479" lon="95.135527">
<time>2016-10-08T00:18:49Z</time></trkpt>
<trkpt lat="30.069479" lon="95.135497">
<time>2016-10-08T00:18:50Z</time></trkpt>
<trkpt lat="30.069479" lon="95.135477">
<time>2016-10-08T00:18:51Z</time></trkpt>
<trkpt lat="30.069479" lon="95.135457">
<time>2016-10-08T00:18:52Z</time></trkpt>
<trkpt lat="30.069489" lon="95.135447">
<time>2016-10-08T00:18:53Z</time></trkpt>
<trkpt lat="30.069499" lon="95.135417">
<time>2016-10-08T00:18:54Z</time></trkpt>
<trkpt lat="30.069509" lon="95.135387">
<time>2016-10-08T00:18:55Z</time></trkpt>
<trkpt lat="30.069529" lon="95.135356">
<time>2016-10-08T00:18:56Z</time></trkpt>
<trkpt lat="30.069559" lon="95.135326">
<time>2016-10-08T00:18:57Z</time></trkpt>
<trkpt lat="30.069599" lon="95.135286">
<time>2016-10-08T00:18:58Z</time></trkpt>
<trkpt lat="30.069639" lon="95.135266">
<time>2016-10-08T00:18:59Z</time></trkpt>
<trkpt lat="30.069689" lon="95.135256">
<time>2016-10-08T00:19:00Z</time></trkpt>
<trkpt lat="30.069729" lon="95.135256">
<time>2016-10-08T00:19:01Z</time></trkpt>
<trkpt lat="30.069769" lon="95.135256">
<time>2016-10-08T00:19:02Z</time></trkpt>
<trkpt lat="30.069869" lon="95.135276">
<time>2016-10-08T00:19:03Z</time></trkpt>
<trkpt lat="30.070079" lon="95.135316">
<time>2016-10-08T00:19:04Z</time></trkpt>
<trkpt lat="30.070239" lon="95.135346">
<time>2016-10-08T00:19:05Z</time></trkpt>
<trkpt lat="30.070299" lon="95.135346">
<time>2016-10-08T00:19:06Z</time></trkpt>
<trkpt lat="30.070379" lon="95.135356">
<time>2016-10-08T00:19:07Z</time></trkpt>
<trkpt lat="30.070529" lon="95.135366">
<time>2016-10-08T00:19:08Z</time></trkpt>
<trkpt lat="30.070649" lon="95.135366">
<time>2016-10-08T00:19:09Z</time></trkpt>
<trkpt lat="30.070739" lon="95.135366">
<time>2016-10-08T00:19:10Z</time></trkpt>
<trkpt lat="30.070819" lon="95.135366">
<time>2016-10-08T00:19:11Z</time></trkpt>
<trkpt lat="30.070889" lon="95.135356">
<time>2016-10-08T00:19:12Z</time></trkpt>
<trkpt lat="30.070929" lon="95.135356">
<time>2016-10-08T00:19:13Z</time></trkpt>
<trkpt lat="30.070999" lon="95.135346">
<time>2016-10-08T00:19:14Z</time></trkpt>
<trkpt lat="30.071029" lon="95.135336">
<time>2016-10-08T00:19:15Z</time></trkpt>
<trkpt lat="30.071059" lon="95.135326">
<time>2016-10-08T00:19:16Z</time></trkpt>
<trkpt lat="30.071119" lon="95.135296">
<time>2016-10-08T00:19:17Z</time></trkpt>
<trkpt lat="30.071149" lon="95.135286">
<time>2016-10-08T00:19:18Z</time></trkpt>
<trkpt lat="30.071179" lon="95.135256">
<time>2016-10-08T00:19:19Z</time></trkpt>
<trkpt lat="30.071248" lon="95.135196">
<time>2016-10-08T00:19:20Z</time></trkpt>
<trkpt lat="30.071318" lon="95.135146">
<time>2016-10-08T00:19:21Z</time></trkpt>
<trkpt lat="30.071368" lon="95.135106">
<time>2016-10-08T00:19:22Z</time></trkpt>
<trkpt lat="30.071448" lon="95.135036">
<time>2016-10-08T00:19:23Z</time></trkpt>
<trkpt lat="30.071538" lon="95.134976">
<time>2016-10-08T00:19:24Z</time></trkpt>
<trkpt lat="30.071628" lon="95.134916">
<time>2016-10-08T00:19:25Z</time></trkpt>
<trkpt lat="30.071708" lon="95.134866">
<time>2016-10-08T00:19:26Z</time></trkpt>
<trkpt lat="30.071798" lon="95.134816">
<time>2016-10-08T00:19:27Z</time></trkpt>
<trkpt lat="30.071938" lon="95.134735">
<time>2016-10-08T00:19:28Z</time></trkpt>
<trkpt lat="30.072128" lon="95.134645">
<time>2016-10-08T00:19:29Z</time></trkpt>
<trkpt lat="30.072318" lon="95.134585">
<time>2016-10-08T00:19:30Z</time></trkpt>
<trkpt lat="30.072498" lon="95.134535">
<time>2016-10-08T00:19:31Z</time></trkpt>
<trkpt lat="30.072608" lon="95.134495">
<time>2016-10-08T00:19:32Z</time></trkpt>
<trkpt lat="30.072677" lon="95.134445">
<time>2016-10-08T00:19:33Z</time></trkpt>
<trkpt lat="30.072737" lon="95.134405">
<time>2016-10-08T00:19:34Z</time></trkpt>
<trkpt lat="30.072807" lon="95.134345">
<time>2016-10-08T00:19:35Z</time></trkpt>
<trkpt lat="30.072947" lon="95.134215">
<time>2016-10-08T00:19:36Z</time></trkpt>
<trkpt lat="30.073077" lon="95.134064">
<time>2016-10-08T00:19:37Z</time></trkpt>
<trkpt lat="30.073167" lon="95.133954">
<time>2016-10-08T00:19:38Z</time></trkpt>
<trkpt lat="30.073257" lon="95.133854">
<time>2016-10-08T00:19:39Z</time></trkpt>
<trkpt lat="30.073357" lon="95.133754">
<time>2016-10-08T00:19:40Z</time></trkpt>
<trkpt lat="30.073436" lon="95.133684">
<time>2016-10-08T00:19:41Z</time></trkpt>
<trkpt lat="30.073546" lon="95.133604">
<time>2016-10-08T00:19:42Z</time></trkpt>
<trkpt lat="30.073576" lon="95.133564">
<time>2016-10-08T00:19:43Z</time></trkpt>
<trkpt lat="30.073626" lon="95.133514">
<time>2016-10-08T00:19:44Z</time></trkpt>
<trkpt lat="30.073746" lon="95.133373">
<time>2016-10-08T00:19:45Z</time></trkpt>
<trkpt lat="30.073816" lon="95.133263">
<time>2016-10-08T00:19:46Z</time></trkpt>
<trkpt lat="30.073876" lon="95.133163">
<time>2016-10-08T00:19:47Z</time></trkpt>
<trkpt lat="30.073916" lon="95.133073">
<time>2016-10-08T00:19:48Z</time></trkpt>
<trkpt lat="30.073936" lon="95.133013">
<time>2016-10-08T00:19:49Z</time></trkpt>
<trkpt lat="30.073965" lon="95.132893">
<time>2016-10-08T00:19:50Z</time></trkpt>
<trkpt lat="30.074025" lon="95.132712">
<time>2016-10-08T00:19:51Z</time></trkpt>
<trkpt lat="30.074065" lon="95.132552">
<time>2016-10-08T00:19:52Z</time></trkpt>
<trkpt lat="30.074115" lon="95.132422">
<time>2016-10-08T00:19:53Z</time></trkpt>
<trkpt lat="30.074145" lon="95.132332">
<time>2016-10-08T00:19:54Z</time></trkpt>
<trkpt lat="30.074175" lon="95.132282">
<time>2016-10-08T00:19:55Z</time></trkpt>
<trkpt lat="30.074205" lon="95.132242">
<time>2016-10-08T00:19:56Z</time></trkpt>
<trkpt lat="30.074244" lon="95.132202">
<time>2016-10-08T00:19:57Z</time></trkpt>
<trkpt lat="30.074294" lon="95.132152">
<time>2016-10-08T00:19:58Z</time></trkpt>
<trkpt lat="30.074364" lon="95.132091">
<time>2016-10-08T00:19:59Z</time></trkpt>
<trkpt lat="30.074414" lon="95.132051">
<time>2016-10-08T00:20:00Z</time></trkpt>
<trkpt lat="30.074454" lon="95.131961">
<time>2016-10-08T00:20:01Z</time></trkpt>
<trkpt lat="30.074514" lon="95.131791">
<time>2016-10-08T00:20:02Z</time></trkpt>
<trkpt lat="30.074544" lon="95.131641">
<time>2016-10-08T00:20:03Z</time></trkpt>
<trkpt lat="30.074564" lon="95.131541">
<time>2016-10-08T00:20:04Z</time></trkpt>
<trkpt lat="30.074573" lon="95.131411">
<time>2016-10-08T00:20:05Z</time></trkpt>
<trkpt lat="30.074603" lon="95.13115">
<time>2016-10-08T00:20:06Z</time></trkpt>
<trkpt lat="30.074603" lon="95.13093">
<time>2016-10-08T00:20:07Z</time></trkpt>
<trkpt lat="30.074613" lon="95.13075">
<time>2016-10-08T00:20:08Z</time></trkpt>
<trkpt lat="30.074622" lon="95.130629">
<time>2016-10-08T00:20:09Z</time></trkpt>
<trkpt lat="30.074652" lon="95.130319">
<time>2016-10-08T00:20:10Z</time></trkpt>
<trkpt lat="30.074701" lon="95.129868">
<time>2016-10-08T00:20:11Z</time></trkpt>
<trkpt lat="30.074721" lon="95.129668">
<time>2016-10-08T00:20:12Z</time></trkpt>
<trkpt lat="30.074721" lon="95.129388">
<time>2016-10-08T00:20:13Z</time></trkpt>
<trkpt lat="30.074721" lon="95.129278">
<time>2016-10-08T00:20:14Z</time></trkpt>
<trkpt lat="30.074731" lon="95.129187">
<time>2016-10-08T00:20:15Z</time></trkpt>
<trkpt lat="30.074741" lon="95.129127">
<time>2016-10-08T00:20:16Z</time></trkpt>
<trkpt lat="30.07475" lon="95.129067">
<time>2016-10-08T00:20:17Z</time></trkpt>
<trkpt lat="30.07477" lon="95.128957">
<time>2016-10-08T00:20:18Z</time></trkpt>
<trkpt lat="30.07483" lon="95.128667">
<time>2016-10-08T00:20:19Z</time></trkpt>
<trkpt lat="30.07485" lon="95.128567">
<time>2016-10-08T00:20:20Z</time></trkpt>
<trkpt lat="30.07487" lon="95.128426">
<time>2016-10-08T00:20:21Z</time></trkpt>
<trkpt lat="30.07488" lon="95.128336">
<time>2016-10-08T00:20:22Z</time></trkpt>
<trkpt lat="30.074879" lon="95.128236">
<time>2016-10-08T00:20:23Z</time></trkpt>
<trkpt lat="30.074879" lon="95.128046">
<time>2016-10-08T00:20:24Z</time></trkpt>
<trkpt lat="30.074889" lon="95.127946">
<time>2016-10-08T00:20:25Z</time></trkpt>
<trkpt lat="30.074909" lon="95.127866">
<time>2016-10-08T00:20:26Z</time></trkpt>
<trkpt lat="30.074919" lon="95.127806">
<time>2016-10-08T00:20:27Z</time></trkpt>
<trkpt lat="30.074939" lon="95.127756">
<time>2016-10-08T00:20:28Z</time></trkpt>
<trkpt lat="30.074969" lon="95.127695">
<time>2016-10-08T00:20:29Z</time></trkpt>
<trkpt lat="30.074999" lon="95.127645">
<time>2016-10-08T00:20:30Z</time></trkpt>
<trkpt lat="30.075069" lon="95.127535">
<time>2016-10-08T00:20:31Z</time></trkpt>
<trkpt lat="30.075169" lon="95.127415">
<time>2016-10-08T00:20:32Z</time></trkpt>
<trkpt lat="30.075228" lon="95.127335">
<time>2016-10-08T00:20:33Z</time></trkpt>
<trkpt lat="30.075308" lon="95.127235">
<time>2016-10-08T00:20:34Z</time></trkpt>
<trkpt lat="30.075358" lon="95.127175">
<time>2016-10-08T00:20:35Z</time></trkpt>
<trkpt lat="30.075378" lon="95.127145">
<time>2016-10-08T00:20:36Z</time></trkpt>
<trkpt lat="30.075398" lon="95.127115">
<time>2016-10-08T00:20:37Z</time></trkpt>
<trkpt lat="30.075408" lon="95.127075">
<time>2016-10-08T00:20:38Z</time></trkpt>
<trkpt lat="30.075418" lon="95.127025">
<time>2016-10-08T00:20:39Z</time></trkpt>
<trkpt lat="30.075428" lon="95.126945">
<time>2016-10-08T00:20:40Z</time></trkpt>
<trkpt lat="30.075438" lon="95.126884">
<time>2016-10-08T00:20:41Z</time></trkpt>
<trkpt lat="30.075438" lon="95.126814">
<time>2016-10-08T00:20:42Z</time></trkpt>
<trkpt lat="30.075438" lon="95.126664">
<time>2016-10-08T00:20:43Z</time></trkpt>
<trkpt lat="30.075447" lon="95.126294">
<time>2016-10-08T00:20:44Z</time></trkpt>
<trkpt lat="30.075447" lon="95.126214">
<time>2016-10-08T00:20:45Z</time></trkpt>
<trkpt lat="30.075447" lon="95.126174">
<time>2016-10-08T00:20:46Z</time></trkpt>
<trkpt lat="30.075447" lon="95.126134">
<time>2016-10-08T00:20:47Z</time></trkpt>
<trkpt lat="30.075457" lon="95.126073">
<time>2016-10-08T00:20:48Z</time></trkpt>
<trkpt lat="30.075477" lon="95.126013">
<time>2016-10-08T00:20:49Z</time></trkpt>
<trkpt lat="30.075487" lon="95.125973">
<time>2016-10-08T00:20:50Z</time></trkpt>
<trkpt lat="30.075517" lon="95.125933">
<time>2016-10-08T00:20:51Z</time></trkpt>
<trkpt lat="30.075527" lon="95.125903">
<time>2016-10-08T00:20:52Z</time></trkpt>
<trkpt lat="30.075577" lon="95.125833">
<time>2016-10-08T00:20:53Z</time></trkpt>
<trkpt lat="30.075617" lon="95.125763">
<time>2016-10-08T00:20:54Z</time></trkpt>
<trkpt lat="30.075647" lon="95.125703">
<time>2016-10-08T00:20:55Z</time></trkpt>
<trkpt lat="30.075676" lon="95.125623">
<time>2016-10-08T00:20:56Z</time></trkpt>
<trkpt lat="30.075816" lon="95.125292">
<time>2016-10-08T00:20:57Z</time></trkpt>
<trkpt lat="30.075836" lon="95.125222">
<time>2016-10-08T00:20:58Z</time></trkpt>
<trkpt lat="30.075866" lon="95.125162">
<time>2016-10-08T00:20:59Z</time></trkpt>
<trkpt lat="30.075906" lon="95.125052">
<time>2016-10-08T00:21:00Z</time></trkpt>
<trkpt lat="30.075905" lon="95.124421">
<time>2016-10-08T00:21:01Z</time></trkpt>
<trkpt lat="30.075955" lon="95.123821">
<time>2016-10-08T00:21:02Z</time></trkpt>
<trkpt lat="30.075944" lon="95.123631">
<time>2016-10-08T00:21:03Z</time></trkpt>
<trkpt lat="30.075924" lon="95.12332">
<time>2016-10-08T00:21:04Z</time></trkpt>
<trkpt lat="30.075924" lon="95.12313">
<time>2016-10-08T00:21:05Z</time></trkpt>
<trkpt lat="30.075944" lon="95.12294">
<time>2016-10-08T00:21:06Z</time></trkpt>
<trkpt lat="30.076093" lon="95.122259">
<time>2016-10-08T00:21:07Z</time></trkpt>
<trkpt lat="30.076292" lon="95.121438">
<time>2016-10-08T00:21:08Z</time></trkpt>
<trkpt lat="30.076611" lon="95.120447">
<time>2016-10-08T00:21:09Z</time></trkpt>
<trkpt lat="30.076921" lon="95.119877">
<time>2016-10-08T00:21:10Z</time></trkpt>
<trkpt lat="30.07706" lon="95.119646">
<time>2016-10-08T00:21:11Z</time></trkpt>
<trkpt lat="30.07717" lon="95.119306">
<time>2016-10-08T00:21:12Z</time></trkpt>
<trkpt lat="30.07725" lon="95.119046">
<time>2016-10-08T00:21:13Z</time></trkpt>
<trkpt lat="30.07734" lon="95.118826">
<time>2016-10-08T00:21:14Z</time></trkpt>
<trkpt lat="30.07741" lon="95.118695">
<time>2016-10-08T00:21:15Z</time></trkpt>
<trkpt lat="30.077449" lon="95.118585">
<time>2016-10-08T00:21:16Z</time></trkpt>
<trkpt lat="30.077479" lon="95.118515">
<time>2016-10-08T00:21:17Z</time></trkpt>
<trkpt lat="30.077509" lon="95.118445">
<time>2016-10-08T00:21:18Z</time></trkpt>
<trkpt lat="30.077539" lon="95.118355">
<time>2016-10-08T00:21:19Z</time></trkpt>
<trkpt lat="30.077599" lon="95.118145">
<time>2016-10-08T00:21:20Z</time></trkpt>
<trkpt lat="30.077629" lon="95.118015">
<time>2016-10-08T00:21:21Z</time></trkpt>
<trkpt lat="30.077659" lon="95.117845">
<time>2016-10-08T00:21:22Z</time></trkpt>
<trkpt lat="30.077699" lon="95.117695">
<time>2016-10-08T00:21:23Z</time></trkpt>
<trkpt lat="30.077739" lon="95.117554">
<time>2016-10-08T00:21:24Z</time></trkpt>
<trkpt lat="30.077798" lon="95.117414">
<time>2016-10-08T00:21:25Z</time></trkpt>
<trkpt lat="30.077878" lon="95.117294">
<time>2016-10-08T00:21:26Z</time></trkpt>
<trkpt lat="30.078028" lon="95.117134">
<time>2016-10-08T00:21:27Z</time></trkpt>
<trkpt lat="30.078208" lon="95.116934">
<time>2016-10-08T00:21:28Z</time></trkpt>
<trkpt lat="30.078308" lon="95.116854">
<time>2016-10-08T00:21:29Z</time></trkpt>
<trkpt lat="30.078428" lon="95.116774">
<time>2016-10-08T00:21:30Z</time></trkpt>
<trkpt lat="30.078598" lon="95.116684">
<time>2016-10-08T00:21:31Z</time></trkpt>
<trkpt lat="30.078728" lon="95.116584">
<time>2016-10-08T00:21:32Z</time></trkpt>
<trkpt lat="30.078818" lon="95.116503">
<time>2016-10-08T00:21:33Z</time></trkpt>
<trkpt lat="30.078898" lon="95.116413">
<time>2016-10-08T00:21:34Z</time></trkpt>
<trkpt lat="30.079117" lon="95.116093">
<time>2016-10-08T00:21:35Z</time></trkpt>
<trkpt lat="30.079317" lon="95.115783">
<time>2016-10-08T00:21:36Z</time></trkpt>
<trkpt lat="30.079377" lon="95.115653">
<time>2016-10-08T00:21:37Z</time></trkpt>
<trkpt lat="30.079447" lon="95.115463">
<time>2016-10-08T00:21:38Z</time></trkpt>
<trkpt lat="30.079537" lon="95.115142">
<time>2016-10-08T00:21:39Z</time></trkpt>
<trkpt lat="30.079577" lon="95.115002">
<time>2016-10-08T00:21:40Z</time></trkpt>
<trkpt lat="30.079607" lon="95.114832">
<time>2016-10-08T00:21:41Z</time></trkpt>
<trkpt lat="30.079636" lon="95.114492">
<time>2016-10-08T00:21:42Z</time></trkpt>
<trkpt lat="30.079696" lon="95.113921">
<time>2016-10-08T00:21:43Z</time></trkpt>
<trkpt lat="30.079736" lon="95.113621">
<time>2016-10-08T00:21:44Z</time></trkpt>
<trkpt lat="30.079746" lon="95.113451">
<time>2016-10-08T00:21:45Z</time></trkpt>
<trkpt lat="30.079785" lon="95.113051">
<time>2016-10-08T00:21:46Z</time></trkpt>
<trkpt lat="30.079805" lon="95.112941">
<time>2016-10-08T00:21:47Z</time></trkpt>
<trkpt lat="30.079845" lon="95.112781">
<time>2016-10-08T00:21:48Z</time></trkpt>
<trkpt lat="30.079945" lon="95.11257">
<time>2016-10-08T00:21:49Z</time></trkpt>
<trkpt lat="30.080085" lon="95.11236">
<time>2016-10-08T00:21:50Z</time></trkpt>
<trkpt lat="30.080345" lon="95.11206">
<time>2016-10-08T00:21:51Z</time></trkpt>
<trkpt lat="30.080664" lon="95.11179">
<time>2016-10-08T00:21:52Z</time></trkpt>
<trkpt lat="30.081124" lon="95.11139">
<time>2016-10-08T00:21:53Z</time></trkpt>
<trkpt lat="30.081344" lon="95.11124">
<time>2016-10-08T00:21:54Z</time></trkpt>
<trkpt lat="30.081624" lon="95.111059">
<time>2016-10-08T00:21:55Z</time></trkpt>
<trkpt lat="30.081824" lon="95.110959">
<time>2016-10-08T00:21:56Z</time></trkpt>
<trkpt lat="30.081944" lon="95.110909">
<time>2016-10-08T00:21:57Z</time></trkpt>
<trkpt lat="30.082014" lon="95.110889">
<time>2016-10-08T00:21:58Z</time></trkpt>
<trkpt lat="30.083004" lon="95.110499">
<time>2016-10-08T00:21:59Z</time></trkpt>
<trkpt lat="30.083124" lon="95.110459">
<time>2016-10-08T00:22:00Z</time></trkpt>
<trkpt lat="30.083184" lon="95.110429">
<time>2016-10-08T00:22:01Z</time></trkpt>
<trkpt lat="30.083274" lon="95.110399">
<time>2016-10-08T00:22:02Z</time></trkpt>
<trkpt lat="30.083374" lon="95.110379">
<time>2016-10-08T00:22:03Z</time></trkpt>
<trkpt lat="30.083534" lon="95.110349">
<time>2016-10-08T00:22:04Z</time></trkpt>
<trkpt lat="30.083984" lon="95.110269">
<time>2016-10-08T00:22:05Z</time></trkpt>
<trkpt lat="30.084234" lon="95.110219">
<time>2016-10-08T00:22:06Z</time></trkpt>
<trkpt lat="30.084464" lon="95.110149">
<time>2016-10-08T00:22:07Z</time></trkpt>
<trkpt lat="30.084624" lon="95.110109">
<time>2016-10-08T00:22:08Z</time></trkpt>
<trkpt lat="30.084714" lon="95.110099">
<time>2016-10-08T00:22:09Z</time></trkpt>
<trkpt lat="30.084774" lon="95.110099">
<time>2016-10-08T00:22:10Z</time></trkpt>
<trkpt lat="30.084834" lon="95.110099">
<time>2016-10-08T00:22:11Z</time></trkpt>
<trkpt lat="30.084884" lon="95.110109">
<time>2016-10-08T00:22:12Z</time></trkpt>
<trkpt lat="30.085204" lon="95.110159">
<time>2016-10-08T00:22:13Z</time></trkpt>
<trkpt lat="30.085364" lon="95.110189">
<time>2016-10-08T00:22:14Z</time></trkpt>
<trkpt lat="30.085474" lon="95.110199">
<time>2016-10-08T00:22:15Z</time></trkpt>
<trkpt lat="30.085574" lon="95.110209">
<time>2016-10-08T00:22:16Z</time></trkpt>
<trkpt lat="30.085664" lon="95.110209">
<time>2016-10-08T00:22:17Z</time></trkpt>
<trkpt lat="30.085954" lon="95.110209">
<time>2016-10-08T00:22:18Z</time></trkpt>
<trkpt lat="30.086204" lon="95.110239">
<time>2016-10-08T00:22:19Z</time></trkpt>
<trkpt lat="30.086434" lon="95.110269">
<time>2016-10-08T00:22:20Z</time></trkpt>
<trkpt lat="30.086534" lon="95.110279">
<time>2016-10-08T00:22:21Z</time></trkpt>
<trkpt lat="30.086604" lon="95.110269">
<time>2016-10-08T00:22:22Z</time></trkpt>
<trkpt lat="30.086684" lon="95.110259">
<time>2016-10-08T00:22:23Z</time></trkpt>
<trkpt lat="30.086744" lon="95.110249">
<time>2016-10-08T00:22:24Z</time></trkpt>
<trkpt lat="30.086824" lon="95.110219">
<time>2016-10-08T00:22:25Z</time></trkpt>
<trkpt lat="30.086884" lon="95.110209">
<time>2016-10-08T00:22:26Z</time></trkpt>
<trkpt lat="30.087014" lon="95.110159">
<time>2016-10-08T00:22:27Z</time></trkpt>
<trkpt lat="30.087164" lon="95.110119">
<time>2016-10-08T00:22:28Z</time></trkpt>
<trkpt lat="30.087294" lon="95.110089">
<time>2016-10-08T00:22:29Z</time></trkpt>
<trkpt lat="30.087434" lon="95.110059">
<time>2016-10-08T00:22:30Z</time></trkpt>
<trkpt lat="30.087554" lon="95.110039">
<time>2016-10-08T00:22:31Z</time></trkpt>
<trkpt lat="30.087644" lon="95.110039">
<time>2016-10-08T00:22:32Z</time></trkpt>
<trkpt lat="30.087704" lon="95.110039">
<time>2016-10-08T00:22:33Z</time></trkpt>
<trkpt lat="30.087764" lon="95.110039">
<time>2016-10-08T00:22:34Z</time></trkpt>
<trkpt lat="30.087864" lon="95.110049">
<time>2016-10-08T00:22:35Z</time></trkpt>
<trkpt lat="30.088114" lon="95.110069">
<time>2016-10-08T00:22:36Z</time></trkpt>
<trkpt lat="30.088324" lon="95.110079">
<time>2016-10-08T00:22:37Z</time></trkpt>
<trkpt lat="30.088614" lon="95.110059">
<time>2016-10-08T00:22:38Z</time></trkpt>
<trkpt lat="30.088834" lon="95.110059">
<time>2016-10-08T00:22:39Z</time></trkpt>
<trkpt lat="30.088964" lon="95.110069">
<time>2016-10-08T00:22:40Z</time></trkpt>
<trkpt lat="30.089074" lon="95.110079">
<time>2016-10-08T00:22:41Z</time></trkpt>
<trkpt lat="30.089164" lon="95.110099">
<time>2016-10-08T00:22:42Z</time></trkpt>
<trkpt lat="30.089204" lon="95.110109">
<time>2016-10-08T00:22:43Z</time></trkpt>
<trkpt lat="30.089274" lon="95.110119">
<time>2016-10-08T00:22:44Z</time></trkpt>
<trkpt lat="30.089334" lon="95.110119">
<time>2016-10-08T00:22:45Z</time></trkpt>
<trkpt lat="30.089424" lon="95.110129">
<time>2016-10-08T00:22:46Z</time></trkpt>
<trkpt lat="30.089504" lon="95.110119">
<time>2016-10-08T00:22:47Z</time></trkpt>
<trkpt lat="30.089584" lon="95.110109">
<time>2016-10-08T00:22:48Z</time></trkpt>
<trkpt lat="30.089714" lon="95.110079">
<time>2016-10-08T00:22:49Z</time></trkpt>
<trkpt lat="30.090473" lon="95.109889">
<time>2016-10-08T00:22:50Z</time></trkpt>
<trkpt lat="30.090603" lon="95.109869">
<time>2016-10-08T00:22:51Z</time></trkpt>
<trkpt lat="30.090683" lon="95.109859">
<time>2016-10-08T00:22:52Z</time></trkpt>
<trkpt lat="30.090753" lon="95.109859">
<time>2016-10-08T00:22:53Z</time></trkpt>
<trkpt lat="30.090803" lon="95.109859">
<time>2016-10-08T00:22:54Z</time></trkpt>
<trkpt lat="30.090873" lon="95.109869">
<time>2016-10-08T00:22:55Z</time></trkpt>
<trkpt lat="30.090943" lon="95.109879">
<time>2016-10-08T00:22:56Z</time></trkpt>
<trkpt lat="30.091174" lon="95.109939">
<time>2016-10-08T00:22:57Z</time></trkpt>
<trkpt lat="30.091274" lon="95.109979">
<time>2016-10-08T00:22:58Z</time></trkpt>
<trkpt lat="30.091374" lon="95.110019">
<time>2016-10-08T00:22:59Z</time></trkpt>
<trkpt lat="30.091514" lon="95.110099">
<time>2016-10-08T00:23:00Z</time></trkpt>
<trkpt lat="30.091674" lon="95.110229">
<time>2016-10-08T00:23:01Z</time></trkpt>
<trkpt lat="30.091784" lon="95.110309">
<time>2016-10-08T00:23:02Z</time></trkpt>
<trkpt lat="30.091914" lon="95.110399">
<time>2016-10-08T00:23:03Z</time></trkpt>
<trkpt lat="30.092094" lon="95.110509">
<time>2016-10-08T00:23:04Z</time></trkpt>
<trkpt lat="30.092174" lon="95.110559">
<time>2016-10-08T00:23:05Z</time></trkpt>
<trkpt lat="30.092414" lon="95.110669">
<time>2016-10-08T00:23:06Z</time></trkpt>
<trkpt lat="30.092774" lon="95.110839">
<time>2016-10-08T00:23:07Z</time></trkpt>
<trkpt lat="30.093024" lon="95.110969">
<time>2016-10-08T00:23:08Z</time></trkpt>
<trkpt lat="30.093114" lon="95.111009">
<time>2016-10-08T00:23:09Z</time></trkpt>
<trkpt lat="30.093184" lon="95.111039">
<time>2016-10-08T00:23:10Z</time></trkpt>
<trkpt lat="30.093324" lon="95.111089">
<time>2016-10-08T00:23:11Z</time></trkpt>
<trkpt lat="30.093514" lon="95.111129">
<time>2016-10-08T00:23:12Z</time></trkpt>
<trkpt lat="30.093914" lon="95.111189">
<time>2016-10-08T00:23:13Z</time></trkpt>
<trkpt lat="30.094194" lon="95.111239">
<time>2016-10-08T00:23:14Z</time></trkpt>
<trkpt lat="30.094334" lon="95.111279">
<time>2016-10-08T00:23:15Z</time></trkpt>
<trkpt lat="30.094454" lon="95.111309">
<time>2016-10-08T00:23:16Z</time></trkpt>
<trkpt lat="30.094604" lon="95.111379">
<time>2016-10-08T00:23:17Z</time></trkpt>
<trkpt lat="30.095005" lon="95.11158">
<time>2016-10-08T00:23:18Z</time></trkpt>
<trkpt lat="30.095245" lon="95.1117">
<time>2016-10-08T00:23:19Z</time></trkpt>
<trkpt lat="30.095535" lon="95.11185">
<time>2016-10-08T00:23:20Z</time></trkpt>
<trkpt lat="30.095625" lon="95.11189">
<time>2016-10-08T00:23:21Z</time></trkpt>
<trkpt lat="30.095705" lon="95.11192">
<time>2016-10-08T00:23:22Z</time></trkpt>
<trkpt lat="30.095785" lon="95.11195">
<time>2016-10-08T00:23:23Z</time></trkpt>
<trkpt lat="30.095875" lon="95.11198">
<time>2016-10-08T00:23:24Z</time></trkpt>
<trkpt lat="30.096045" lon="95.11201">
<time>2016-10-08T00:23:25Z</time></trkpt>
<trkpt lat="30.096305" lon="95.11205">
<time>2016-10-08T00:23:26Z</time></trkpt>
<trkpt lat="30.096545" lon="95.11209">
<time>2016-10-08T00:23:27Z</time></trkpt>
<trkpt lat="30.096665" lon="95.1121">
<time>2016-10-08T00:23:28Z</time></trkpt>
<trkpt lat="30.096765" lon="95.1121">
<time>2016-10-08T00:23:29Z</time></trkpt>
<trkpt lat="30.097015" lon="95.11206">
<time>2016-10-08T00:23:30Z</time></trkpt>
<trkpt lat="30.097185" lon="95.11202">
<time>2016-10-08T00:23:31Z</time></trkpt>
<trkpt lat="30.097375" lon="95.11197">
<time>2016-10-08T00:23:32Z</time></trkpt>
<trkpt lat="30.097505" lon="95.11195">
<time>2016-10-08T00:23:33Z</time></trkpt>
<trkpt lat="30.097585" lon="95.11195">
<time>2016-10-08T00:23:34Z</time></trkpt>
<trkpt lat="30.097665" lon="95.11195">
<time>2016-10-08T00:23:35Z</time></trkpt>
<trkpt lat="30.097725" lon="95.11197">
<time>2016-10-08T00:23:36Z</time></trkpt>
<trkpt lat="30.098055" lon="95.11203">
<time>2016-10-08T00:23:37Z</time></trkpt>
<trkpt lat="30.098345" lon="95.11209">
<time>2016-10-08T00:23:38Z</time></trkpt>
<trkpt lat="30.098555" lon="95.11214">
<time>2016-10-08T00:23:39Z</time></trkpt>
<trkpt lat="30.098865" lon="95.1122">
<time>2016-10-08T00:23:40Z</time></trkpt>
<trkpt lat="30.099295" lon="95.11229">
<time>2016-10-08T00:23:41Z</time></trkpt>
<trkpt lat="30.099425" lon="95.11231">
<time>2016-10-08T00:23:42Z</time></trkpt>
<trkpt lat="30.099535" lon="95.11233">
<time>2016-10-08T00:23:43Z</time></trkpt>
<trkpt lat="30.099705" lon="95.11233">
<time>2016-10-08T00:23:44Z</time></trkpt>
<trkpt lat="30.099805" lon="95.11232">
<time>2016-10-08T00:23:45Z</time></trkpt>
<trkpt lat="30.099905" lon="95.11231">
<time>2016-10-08T00:23:46Z</time></trkpt>
<trkpt lat="30.100025" lon="95.1123">
<time>2016-10-08T00:23:47Z</time></trkpt>
<trkpt lat="30.100135" lon="95.11228">
<time>2016-10-08T00:23:48Z</time></trkpt>
<trkpt lat="30.100395" lon="95.11224">
<time>2016-10-08T00:23:49Z</time></trkpt>
<trkpt lat="30.100495" lon="95.11222">
<time>2016-10-08T00:23:50Z</time></trkpt>
<trkpt lat="30.100565" lon="95.1122">
<time>2016-10-08T00:23:51Z</time></trkpt>
<trkpt lat="30.100665" lon="95.11216">
<time>2016-10-08T00:23:52Z</time></trkpt>
<trkpt lat="30.100725" lon="95.11213">
<time>2016-10-08T00:23:53Z</time></trkpt>
<trkpt lat="30.100835" lon="95.11207">
<time>2016-10-08T00:23:54Z</time></trkpt>
<trkpt lat="30.100935" lon="95.112">
<time>2016-10-08T00:23:55Z</time></trkpt>
<trkpt lat="30.101135" lon="95.11185">
<time>2016-10-08T00:23:56Z</time></trkpt>
<trkpt lat="30.101225" lon="95.111789">
<time>2016-10-08T00:23:57Z</time></trkpt>
<trkpt lat="30.101305" lon="95.111739">
<time>2016-10-08T00:23:58Z</time></trkpt>
<trkpt lat="30.101425" lon="95.111689">
<time>2016-10-08T00:23:59Z</time></trkpt>
<trkpt lat="30.101535" lon="95.111659">
<time>2016-10-08T00:24:00Z</time></trkpt>
<trkpt lat="30.101705" lon="95.111649">
<time>2016-10-08T00:24:01Z</time></trkpt>
<trkpt lat="30.101875" lon="95.111639">
<time>2016-10-08T00:24:02Z</time></trkpt>
<trkpt lat="30.101975" lon="95.111639">
<time>2016-10-08T00:24:03Z</time></trkpt>
<trkpt lat="30.102035" lon="95.111629">
<time>2016-10-08T00:24:04Z</time></trkpt>
<trkpt lat="30.102085" lon="95.111609">
<time>2016-10-08T00:24:05Z</time></trkpt>
<trkpt lat="30.102135" lon="95.111589">
<time>2016-10-08T00:24:06Z</time></trkpt>
<trkpt lat="30.102175" lon="95.111559">
<time>2016-10-08T00:24:07Z</time></trkpt>
<trkpt lat="30.102215" lon="95.111519">
<time>2016-10-08T00:24:08Z</time></trkpt>
<trkpt lat="30.102245" lon="95.111479">
<time>2016-10-08T00:24:09Z</time></trkpt>
<trkpt lat="30.102304" lon="95.111389">
<time>2016-10-08T00:24:10Z</time></trkpt>
<trkpt lat="30.102474" lon="95.111019">
<time>2016-10-08T00:24:11Z</time></trkpt>
<trkpt lat="30.102554" lon="95.110859">
<time>2016-10-08T00:24:12Z</time></trkpt>
<trkpt lat="30.102624" lon="95.110679">
<time>2016-10-08T00:24:13Z</time></trkpt>
<trkpt lat="30.102654" lon="95.110599">
<time>2016-10-08T00:24:14Z</time></trkpt>
<trkpt lat="30.102664" lon="95.110529">
<time>2016-10-08T00:24:15Z</time></trkpt>
<trkpt lat="30.102674" lon="95.110469">
<time>2016-10-08T00:24:16Z</time></trkpt>
<trkpt lat="30.102674" lon="95.110419">
<time>2016-10-08T00:24:17Z</time></trkpt>
<trkpt lat="30.102664" lon="95.110369">
<time>2016-10-08T00:24:18Z</time></trkpt>
<trkpt lat="30.102654" lon="95.110339">
<time>2016-10-08T00:24:19Z</time></trkpt>
<trkpt lat="30.102644" lon="95.110279">
<time>2016-10-08T00:24:20Z</time></trkpt>
<trkpt lat="30.102614" lon="95.110219">
<time>2016-10-08T00:24:21Z</time></trkpt>
<trkpt lat="30.102574" lon="95.110149">
<time>2016-10-08T00:24:22Z</time></trkpt>
<trkpt lat="30.102504" lon="95.110038">
<time>2016-10-08T00:24:23Z</time></trkpt>
<trkpt lat="30.102384" lon="95.109888">
<time>2016-10-08T00:24:24Z</time></trkpt>
<trkpt lat="30.102294" lon="95.109778">
<time>2016-10-08T00:24:25Z</time></trkpt>
<trkpt lat="30.102213" lon="95.109668">
<time>2016-10-08T00:24:26Z</time></trkpt>
<trkpt lat="30.102173" lon="95.109618">
<time>2016-10-08T00:24:27Z</time></trkpt>
<trkpt lat="30.102123" lon="95.109548">
<time>2016-10-08T00:24:28Z</time></trkpt>
<trkpt lat="30.102073" lon="95.109478">
<time>2016-10-08T00:24:29Z</time></trkpt>
<trkpt lat="30.102043" lon="95.109418">
<time>2016-10-08T00:24:30Z</time></trkpt>
<trkpt lat="30.102023" lon="95.109348">
<time>2016-10-08T00:24:31Z</time></trkpt>
<trkpt lat="30.102003" lon="95.109298">
<time>2016-10-08T00:24:32Z</time></trkpt>
<trkpt lat="30.101993" lon="95.109248">
<time>2016-10-08T00:24:33Z</time></trkpt>
<trkpt lat="30.101993" lon="95.109188">
<time>2016-10-08T00:24:34Z</time></trkpt>
<trkpt lat="30.101983" lon="95.109128">
<time>2016-10-08T00:24:35Z</time></trkpt>
<trkpt lat="30.101993" lon="95.109068">
<time>2016-10-08T00:24:36Z</time></trkpt>
<trkpt lat="30.102003" lon="95.109008">
<time>2016-10-08T00:24:37Z</time></trkpt>
<trkpt lat="30.102023" lon="95.108868">
<time>2016-10-08T00:24:38Z</time></trkpt>
<trkpt lat="30.102153" lon="95.108308">
<time>2016-10-08T00:24:39Z</time></trkpt>
<trkpt lat="30.102322" lon="95.107577">
<time>2016-10-08T00:24:40Z</time></trkpt>
<trkpt lat="30.102432" lon="95.107107">
<time>2016-10-08T00:24:41Z</time></trkpt>
<trkpt lat="30.102562" lon="95.106487">
<time>2016-10-08T00:24:42Z</time></trkpt>
<trkpt lat="30.102702" lon="95.105887">
<time>2016-10-08T00:24:43Z</time></trkpt>
<trkpt lat="30.102722" lon="95.105747">
<time>2016-10-08T00:24:44Z</time></trkpt>
<trkpt lat="30.102742" lon="95.105576">
<time>2016-10-08T00:24:45Z</time></trkpt>
<trkpt lat="30.102772" lon="95.105376">
<time>2016-10-08T00:24:46Z</time></trkpt>
<trkpt lat="30.102782" lon="95.105266">
<time>2016-10-08T00:24:47Z</time></trkpt>
<trkpt lat="30.102782" lon="95.105186">
<time>2016-10-08T00:24:48Z</time></trkpt>
<trkpt lat="30.102781" lon="95.105086">
<time>2016-10-08T00:24:49Z</time></trkpt>
<trkpt lat="30.102771" lon="95.104956">
<time>2016-10-08T00:24:50Z</time></trkpt>
<trkpt lat="30.102761" lon="95.104756">
<time>2016-10-08T00:24:51Z</time></trkpt>
<trkpt lat="30.102741" lon="95.104566">
<time>2016-10-08T00:24:52Z</time></trkpt>
<trkpt lat="30.102711" lon="95.104136">
<time>2016-10-08T00:24:53Z</time></trkpt>
<trkpt lat="30.102691" lon="95.103826">
<time>2016-10-08T00:24:54Z</time></trkpt>
<trkpt lat="30.102631" lon="95.103196">
<time>2016-10-08T00:24:55Z</time></trkpt>
<trkpt lat="30.102611" lon="95.102966">
<time>2016-10-08T00:24:56Z</time></trkpt>
<trkpt lat="30.102581" lon="95.102456">
<time>2016-10-08T00:24:57Z</time></trkpt>
<trkpt lat="30.102551" lon="95.102096">
<time>2016-10-08T00:24:58Z</time></trkpt>
<trkpt lat="30.102511" lon="95.101536">
<time>2016-10-08T00:24:59Z</time></trkpt>
<trkpt lat="30.10249" lon="95.101316">
<time>2016-10-08T00:25:00Z</time></trkpt>
<trkpt lat="30.10246" lon="95.100945">
<time>2016-10-08T00:25:01Z</time></trkpt>
<trkpt lat="30.10243" lon="95.100525">
<time>2016-10-08T00:25:02Z</time></trkpt>
<trkpt lat="30.1024" lon="95.100125">
<time>2016-10-08T00:25:03Z</time></trkpt>
<trkpt lat="30.10235" lon="95.099475">
<time>2016-10-08T00:25:04Z</time></trkpt>
<trkpt lat="30.10231" lon="95.098895">
<time>2016-10-08T00:25:05Z</time></trkpt>
<trkpt lat="30.10227" lon="95.098395">
<time>2016-10-08T00:25:06Z</time></trkpt>
<trkpt lat="30.10224" lon="95.097925">
<time>2016-10-08T00:25:07Z</time></trkpt>
<trkpt lat="30.1022" lon="95.097405">
<time>2016-10-08T00:25:08Z</time></trkpt>
<trkpt lat="30.10216" lon="95.096845">
<time>2016-10-08T00:25:09Z</time></trkpt>
<trkpt lat="30.1021" lon="95.096136">
<time>2016-10-08T00:25:10Z</time></trkpt>
<trkpt lat="30.10207" lon="95.095686">
<time>2016-10-08T00:25:11Z</time></trkpt>
<trkpt lat="30.10202" lon="95.095066">
<time>2016-10-08T00:25:12Z</time></trkpt>
<trkpt lat="30.10197" lon="95.094476">
<time>2016-10-08T00:25:13Z</time></trkpt>
<trkpt lat="30.10194" lon="95.094046">
<time>2016-10-08T00:25:14Z</time></trkpt>
<trkpt lat="30.1019" lon="95.093466">
<time>2016-10-08T00:25:15Z</time></trkpt>
<trkpt lat="30.10189" lon="95.093336">
<time>2016-10-08T00:25:16Z</time></trkpt>
<trkpt lat="30.10189" lon="95.093186">
<time>2016-10-08T00:25:17Z</time></trkpt>
<trkpt lat="30.10189" lon="95.093066">
<time>2016-10-08T00:25:18Z</time></trkpt>
<trkpt lat="30.10189" lon="95.092936">
<time>2016-10-08T00:25:19Z</time></trkpt>
<trkpt lat="30.10191" lon="95.092736">
<time>2016-10-08T00:25:20Z</time></trkpt>
<trkpt lat="30.101941" lon="95.092526">
<time>2016-10-08T00:25:21Z</time></trkpt>
<trkpt lat="30.101991" lon="95.092117">
<time>2016-10-08T00:25:22Z</time></trkpt>
<trkpt lat="30.102051" lon="95.091697">
<time>2016-10-08T00:25:23Z</time></trkpt>
<trkpt lat="30.102161" lon="95.090827">
<time>2016-10-08T00:25:24Z</time></trkpt>
<trkpt lat="30.102261" lon="95.089987">
<time>2016-10-08T00:25:25Z</time></trkpt>
<trkpt lat="30.102331" lon="95.089398">
<time>2016-10-08T00:25:26Z</time></trkpt>
<trkpt lat="30.102412" lon="95.088838">
<time>2016-10-08T00:25:27Z</time></trkpt>
<trkpt lat="30.102522" lon="95.087928">
<time>2016-10-08T00:25:28Z</time></trkpt>
<trkpt lat="30.102682" lon="95.086689">
<time>2016-10-08T00:25:29Z</time></trkpt>
<trkpt lat="30.102703" lon="95.086519">
<time>2016-10-08T00:25:30Z</time></trkpt>
<trkpt lat="30.102783" lon="95.0859">
<time>2016-10-08T00:25:31Z</time></trkpt>
<trkpt lat="30.102843" lon="95.08545">
<time>2016-10-08T00:25:32Z</time></trkpt>
<trkpt lat="30.102873" lon="95.08507">
<time>2016-10-08T00:25:33Z</time></trkpt>
<trkpt lat="30.102873" lon="95.0848">
<time>2016-10-08T00:25:34Z</time></trkpt>
<trkpt lat="30.102883" lon="95.084681">
<time>2016-10-08T00:25:35Z</time></trkpt>
<trkpt lat="30.102904" lon="95.084531">
<time>2016-10-08T00:25:36Z</time></trkpt>
<trkpt lat="30.102904" lon="95.084451">
<time>2016-10-08T00:25:37Z</time></trkpt>
<trkpt lat="30.102884" lon="95.083661">
<time>2016-10-08T00:25:38Z</time></trkpt>
<trkpt lat="30.102884" lon="95.083172">
<time>2016-10-08T00:25:39Z</time></trkpt>
<trkpt lat="30.102885" lon="95.082662">
<time>2016-10-08T00:25:40Z</time></trkpt>
<trkpt lat="30.102885" lon="95.082003">
<time>2016-10-08T00:25:41Z</time></trkpt>
<trkpt lat="30.102876" lon="95.081283">
<time>2016-10-08T00:25:42Z</time></trkpt>
<trkpt lat="30.102886" lon="95.080924">
<time>2016-10-08T00:25:43Z</time></trkpt>
<trkpt lat="30.102886" lon="95.080744">
<time>2016-10-08T00:25:44Z</time></trkpt>
<trkpt lat="30.102876" lon="95.080424">
<time>2016-10-08T00:25:45Z</time></trkpt>
<trkpt lat="30.102876" lon="95.080304">
<time>2016-10-08T00:25:46Z</time></trkpt>
<trkpt lat="30.102876" lon="95.080194">
<time>2016-10-08T00:25:47Z</time></trkpt>
<trkpt lat="30.102866" lon="95.080104">
<time>2016-10-08T00:25:48Z</time></trkpt>
<trkpt lat="30.102867" lon="95.080015">
<time>2016-10-08T00:25:49Z</time></trkpt>
<trkpt lat="30.102857" lon="95.079925">
<time>2016-10-08T00:25:50Z</time></trkpt>
<trkpt lat="30.102847" lon="95.079785">
<time>2016-10-08T00:25:51Z</time></trkpt>
<trkpt lat="30.102827" lon="95.079685">
<time>2016-10-08T00:25:52Z</time></trkpt>
<trkpt lat="30.102817" lon="95.079575">
<time>2016-10-08T00:25:53Z</time></trkpt>
<trkpt lat="30.102737" lon="95.079175">
<time>2016-10-08T00:25:54Z</time></trkpt>
<trkpt lat="30.102667" lon="95.078856">
<time>2016-10-08T00:25:55Z</time></trkpt>
<trkpt lat="30.102588" lon="95.078496">
<time>2016-10-08T00:25:56Z</time></trkpt>
<trkpt lat="30.102508" lon="95.078226">
<time>2016-10-08T00:25:57Z</time></trkpt>
<trkpt lat="30.102398" lon="95.077917">
<time>2016-10-08T00:25:58Z</time></trkpt>
<trkpt lat="30.102398" lon="95.077907">
<time>2016-10-08T00:25:59Z</time></trkpt>
<trkpt lat="30.102249" lon="95.077547">
<time>2016-10-08T00:26:00Z</time></trkpt>
<trkpt lat="30.102179" lon="95.077377">
<time>2016-10-08T00:26:01Z</time></trkpt>
<trkpt lat="30.102059" lon="95.077098">
<time>2016-10-08T00:26:02Z</time></trkpt>
<trkpt lat="30.101879" lon="95.076628">
<time>2016-10-08T00:26:03Z</time></trkpt>
<trkpt lat="30.10174" lon="95.076259">
<time>2016-10-08T00:26:04Z</time></trkpt>
<trkpt lat="30.10162" lon="95.075959">
<time>2016-10-08T00:26:05Z</time></trkpt>
<trkpt lat="30.10153" lon="95.075769">
<time>2016-10-08T00:26:06Z</time></trkpt>
<trkpt lat="30.1014" lon="95.075529">
<time>2016-10-08T00:26:07Z</time></trkpt>
<trkpt lat="30.101261" lon="95.07534">
<time>2016-10-08T00:26:08Z</time></trkpt>
<trkpt lat="30.100931" lon="95.07491">
<time>2016-10-08T00:26:09Z</time></trkpt>
<trkpt lat="30.100741" lon="95.074701">
<time>2016-10-08T00:26:10Z</time></trkpt>
<trkpt lat="30.100611" lon="95.074591">
<time>2016-10-08T00:26:11Z</time></trkpt>
<trkpt lat="30.100451" lon="95.074451">
<time>2016-10-08T00:26:12Z</time></trkpt>
<trkpt lat="30.100092" lon="95.074151">
<time>2016-10-08T00:26:13Z</time></trkpt>
<trkpt lat="30.099702" lon="95.073842">
<time>2016-10-08T00:26:14Z</time></trkpt>
<trkpt lat="30.099422" lon="95.073602">
<time>2016-10-08T00:26:15Z</time></trkpt>
<trkpt lat="30.099203" lon="95.073392">
<time>2016-10-08T00:26:16Z</time></trkpt>
<trkpt lat="30.098583" lon="95.072713">
<time>2016-10-08T00:26:17Z</time></trkpt>
<trkpt lat="30.098314" lon="95.072384">
<time>2016-10-08T00:26:18Z</time></trkpt>
<trkpt lat="30.098264" lon="95.072324">
<time>2016-10-08T00:26:19Z</time></trkpt>
<trkpt lat="30.098194" lon="95.072224">
<time>2016-10-08T00:26:20Z</time></trkpt>
<trkpt lat="30.098124" lon="95.072114">
<time>2016-10-08T00:26:21Z</time></trkpt>
<trkpt lat="30.098054" lon="95.071994">
<time>2016-10-08T00:26:22Z</time></trkpt>
<trkpt lat="30.097984" lon="95.071844">
<time>2016-10-08T00:26:23Z</time></trkpt>
<trkpt lat="30.097845" lon="95.071535">
<time>2016-10-08T00:26:24Z</time></trkpt>
<trkpt lat="30.097595" lon="95.070926">
<time>2016-10-08T00:26:25Z</time></trkpt>
<trkpt lat="30.097326" lon="95.070317">
<time>2016-10-08T00:26:26Z</time></trkpt>
<trkpt lat="30.097186" lon="95.069967">
<time>2016-10-08T00:26:27Z</time></trkpt>
<trkpt lat="30.097156" lon="95.069917">
<time>2016-10-08T00:26:28Z</time></trkpt>
<trkpt lat="30.097137" lon="95.069847">
<time>2016-10-08T00:26:29Z</time></trkpt>
<trkpt lat="30.097117" lon="95.069797">
<time>2016-10-08T00:26:30Z</time></trkpt>
<trkpt lat="30.097107" lon="95.069747">
<time>2016-10-08T00:26:31Z</time></trkpt>
<trkpt lat="30.097077" lon="95.069658">
<time>2016-10-08T00:26:32Z</time></trkpt>
<trkpt lat="30.097047" lon="95.069548">
<time>2016-10-08T00:26:33Z</time></trkpt>
<trkpt lat="30.097027" lon="95.069428">
<time>2016-10-08T00:26:34Z</time></trkpt>
<trkpt lat="30.096977" lon="95.069198">
<time>2016-10-08T00:26:35Z</time></trkpt>
<trkpt lat="30.096938" lon="95.069029">
<time>2016-10-08T00:26:36Z</time></trkpt>
<trkpt lat="30.096868" lon="95.068799">
<time>2016-10-08T00:26:37Z</time></trkpt>
<trkpt lat="30.096858" lon="95.068759">
<time>2016-10-08T00:26:38Z</time></trkpt>
<trkpt lat="30.096838" lon="95.068699">
<time>2016-10-08T00:26:39Z</time></trkpt>
<trkpt lat="30.096828" lon="95.068669">
<time>2016-10-08T00:26:40Z</time></trkpt>
<trkpt lat="30.096818" lon="95.068639">
<time>2016-10-08T00:26:41Z</time></trkpt>
<trkpt lat="30.096788" lon="95.068589">
<time>2016-10-08T00:26:42Z</time></trkpt>
<trkpt lat="30.096748" lon="95.068539">
<time>2016-10-08T00:26:43Z</time></trkpt>
<trkpt lat="30.096678" lon="95.06844">
<time>2016-10-08T00:26:44Z</time></trkpt>
<trkpt lat="30.096588" lon="95.06836">
<time>2016-10-08T00:26:45Z</time></trkpt>
<trkpt lat="30.096568" lon="95.06834">
<time>2016-10-08T00:26:46Z</time></trkpt>
<trkpt lat="30.096548" lon="95.06833">
<time>2016-10-08T00:26:47Z</time></trkpt>
<trkpt lat="30.096539" lon="95.06831">
<time>2016-10-08T00:26:48Z</time></trkpt>
<trkpt lat="30.096529" lon="95.06829">
<time>2016-10-08T00:26:49Z</time></trkpt>
<trkpt lat="30.096509" lon="95.06826">
<time>2016-10-08T00:26:50Z</time></trkpt>
<trkpt lat="30.096479" lon="95.0682">
<time>2016-10-08T00:26:51Z</time></trkpt>
<trkpt lat="30.096449" lon="95.06813">
<time>2016-10-08T00:26:52Z</time></trkpt>
<trkpt lat="30.096419" lon="95.06802">
<time>2016-10-08T00:26:53Z</time></trkpt>
<trkpt lat="30.096359" lon="95.06791">
<time>2016-10-08T00:26:54Z</time></trkpt>
<trkpt lat="30.096339" lon="95.06784">
<time>2016-10-08T00:26:55Z</time></trkpt>
<trkpt lat="30.096309" lon="95.067781">
<time>2016-10-08T00:26:56Z</time></trkpt>
<trkpt lat="30.096299" lon="95.067721">
<time>2016-10-08T00:26:57Z</time></trkpt>
<trkpt lat="30.096279" lon="95.067631">
<time>2016-10-08T00:26:58Z</time></trkpt>
<trkpt lat="30.09626" lon="95.067511">
<time>2016-10-08T00:26:59Z</time></trkpt>
<trkpt lat="30.09625" lon="95.067431">
<time>2016-10-08T00:27:00Z</time></trkpt>
<trkpt lat="30.09625" lon="95.067371">
<time>2016-10-08T00:27:01Z</time></trkpt>
<trkpt lat="30.09625" lon="95.067321">
<time>2016-10-08T00:27:02Z</time></trkpt>
<trkpt lat="30.09625" lon="95.067261">
<time>2016-10-08T00:27:03Z</time></trkpt>
<trkpt lat="30.09625" lon="95.067182">
<time>2016-10-08T00:27:04Z</time></trkpt>
<trkpt lat="30.09627" lon="95.067052">
<time>2016-10-08T00:27:05Z</time></trkpt>
<trkpt lat="30.09628" lon="95.066962">
<time>2016-10-08T00:27:06Z</time></trkpt>
<trkpt lat="30.09628" lon="95.066882">
<time>2016-10-08T00:27:07Z</time></trkpt>
<trkpt lat="30.09628" lon="95.066802">
<time>2016-10-08T00:27:08Z</time></trkpt>
<trkpt lat="30.096291" lon="95.066712">
<time>2016-10-08T00:27:09Z</time></trkpt>
<trkpt lat="30.096291" lon="95.066543">
<time>2016-10-08T00:27:10Z</time></trkpt>
<trkpt lat="30.096311" lon="95.066413">
<time>2016-10-08T00:27:11Z</time></trkpt>
<trkpt lat="30.096321" lon="95.066323">
<time>2016-10-08T00:27:12Z</time></trkpt>
<trkpt lat="30.096331" lon="95.066283">
<time>2016-10-08T00:27:13Z</time></trkpt>
<trkpt lat="30.096351" lon="95.066243">
<time>2016-10-08T00:27:14Z</time></trkpt>
<trkpt lat="30.096361" lon="95.066203">
<time>2016-10-08T00:27:15Z</time></trkpt>
<trkpt lat="30.096391" lon="95.066153">
<time>2016-10-08T00:27:16Z</time></trkpt>
<trkpt lat="30.096421" lon="95.066103">
<time>2016-10-08T00:27:17Z</time></trkpt>
<trkpt lat="30.096461" lon="95.066063">
<time>2016-10-08T00:27:18Z</time></trkpt>
<trkpt lat="30.096492" lon="95.066033">
<time>2016-10-08T00:27:19Z</time></trkpt>
<trkpt lat="30.096522" lon="95.066004">
<time>2016-10-08T00:27:20Z</time></trkpt>
<trkpt lat="30.096582" lon="95.065974">
<time>2016-10-08T00:27:21Z</time></trkpt>
<trkpt lat="30.096602" lon="95.065964">
<time>2016-10-08T00:27:22Z</time></trkpt>
<trkpt lat="30.096622" lon="95.065964">
<time>2016-10-08T00:27:23Z</time></trkpt>
<trkpt lat="30.096672" lon="95.065964">
<time>2016-10-08T00:27:24Z</time></trkpt>
<trkpt lat="30.096722" lon="95.065974">
<time>2016-10-08T00:27:25Z</time></trkpt>
<trkpt lat="30.096772" lon="95.066004">
<time>2016-10-08T00:27:26Z</time></trkpt>
<trkpt lat="30.096891" lon="95.066063">
<time>2016-10-08T00:27:27Z</time></trkpt>
<trkpt lat="30.097061" lon="95.066183">
<time>2016-10-08T00:27:28Z</time></trkpt>
<trkpt lat="30.097151" lon="95.066243">
<time>2016-10-08T00:27:29Z</time></trkpt>
<trkpt lat="30.097251" lon="95.066303">
<time>2016-10-08T00:27:30Z</time></trkpt>
<trkpt lat="30.097331" lon="95.066353">
<time>2016-10-08T00:27:31Z</time></trkpt>
<trkpt lat="30.097481" lon="95.066413">
<time>2016-10-08T00:27:32Z</time></trkpt>
<trkpt lat="30.097511" lon="95.066423">
<time>2016-10-08T00:27:33Z</time></trkpt>
<trkpt lat="30.097541" lon="95.066433">
<time>2016-10-08T00:27:34Z</time></trkpt>
<trkpt lat="30.097561" lon="95.066443">
<time>2016-10-08T00:27:35Z</time></trkpt>
<trkpt lat="30.097571" lon="95.066433">
<time>2016-10-08T00:27:36Z</time></trkpt>
<trkpt lat="30.097581" lon="95.066433">
<time>2016-10-08T00:27:37Z</time></trkpt>
<trkpt lat="30.097601" lon="95.066423">
<time>2016-10-08T00:27:38Z</time></trkpt>
<trkpt lat="30.097611" lon="95.066403">
<time>2016-10-08T00:27:39Z</time></trkpt>
<trkpt lat="30.097631" lon="95.066373">
<time>2016-10-08T00:27:40Z</time></trkpt>
<trkpt lat="30.097641" lon="95.066343">
<time>2016-10-08T00:27:41Z</time></trkpt>
<trkpt lat="30.097641" lon="95.066303">
<time>2016-10-08T00:27:42Z</time></trkpt>
<trkpt lat="30.097691" lon="95.066103">
<time>2016-10-08T00:27:43Z</time></trkpt>
<trkpt lat="30.097762" lon="95.065774">
<time>2016-10-08T00:27:44Z</time></trkpt>
<trkpt lat="30.097903" lon="95.065125">
<time>2016-10-08T00:27:45Z</time></trkpt>
<trkpt lat="30.098024" lon="95.064596">
<time>2016-10-08T00:27:46Z</time></trkpt>
<trkpt lat="30.098174" lon="95.063977">
<time>2016-10-08T00:27:47Z</time></trkpt>
<trkpt lat="30.098245" lon="95.063717">
<time>2016-10-08T00:27:48Z</time></trkpt>
<trkpt lat="30.098245" lon="95.063717">
<time>2016-10-08T00:27:49Z</time></trkpt>
<trkpt lat="30.098145" lon="95.063658">
<time>2016-10-08T00:27:50Z</time></trkpt>
<trkpt lat="30.098065" lon="95.063618">
<time>2016-10-08T00:27:51Z</time></trkpt>
<trkpt lat="30.098005" lon="95.063568">
<time>2016-10-08T00:27:52Z</time></trkpt>
<trkpt lat="30.097905" lon="95.063488">
<time>2016-10-08T00:27:53Z</time></trkpt>
<trkpt lat="30.097875" lon="95.063458">
<time>2016-10-08T00:27:54Z</time></trkpt>
<trkpt lat="30.097845" lon="95.063428">
<time>2016-10-08T00:27:55Z</time></trkpt>
<trkpt lat="30.097785" lon="95.063388">
<time>2016-10-08T00:27:56Z</time></trkpt>
<trkpt lat="30.097586" lon="95.063268">
<time>2016-10-08T00:27:57Z</time></trkpt>
<trkpt lat="30.097516" lon="95.063238">
<time>2016-10-08T00:27:58Z</time></trkpt>
<trkpt lat="30.097406" lon="95.063178">
<time>2016-10-08T00:27:59Z</time></trkpt>
<trkpt lat="30.097026" lon="95.062919">
<time>2016-10-08T00:28:00Z</time></trkpt>
<trkpt lat="30.096856" lon="95.062789">
<time>2016-10-08T00:28:01Z</time></trkpt>
<trkpt lat="30.096666" lon="95.062689">
<time>2016-10-08T00:28:02Z</time></trkpt>
<trkpt lat="30.096387" lon="95.06259">
<time>2016-10-08T00:28:03Z</time></trkpt>
<trkpt lat="30.096267" lon="95.06255">
<time>2016-10-08T00:28:04Z</time></trkpt>
<trkpt lat="30.096217" lon="95.06252">
<time>2016-10-08T00:28:05Z</time></trkpt>
<trkpt lat="30.096167" lon="95.0625">
<time>2016-10-08T00:28:06Z</time></trkpt>
<trkpt lat="30.096107" lon="95.06245">
<time>2016-10-08T00:28:07Z</time></trkpt>
<trkpt lat="30.096047" lon="95.0624">
<time>2016-10-08T00:28:08Z</time></trkpt>
<trkpt lat="30.096007" lon="95.06235">
<time>2016-10-08T00:28:09Z</time></trkpt>
<trkpt lat="30.095967" lon="95.06229">
<time>2016-10-08T00:28:10Z</time></trkpt>
<trkpt lat="30.095927" lon="95.06221">
<time>2016-10-08T00:28:11Z</time></trkpt>
<trkpt lat="30.095897" lon="95.06213">
<time>2016-10-08T00:28:12Z</time></trkpt>
<trkpt lat="30.095828" lon="95.061951">
<time>2016-10-08T00:28:13Z</time></trkpt>
<trkpt lat="30.095778" lon="95.061831">
<time>2016-10-08T00:28:14Z</time></trkpt>
<trkpt lat="30.095718" lon="95.061711">
<time>2016-10-08T00:28:15Z</time></trkpt>
<trkpt lat="30.095668" lon="95.061611">
<time>2016-10-08T00:28:16Z</time></trkpt>
<trkpt lat="30.095588" lon="95.061502">
<time>2016-10-08T00:28:17Z</time></trkpt>
<trkpt lat="30.095448" lon="95.061352">
<time>2016-10-08T00:28:18Z</time></trkpt>
<trkpt lat="30.095249" lon="95.061152">
<time>2016-10-08T00:28:19Z</time></trkpt>
<trkpt lat="30.095119" lon="95.061013">
<time>2016-10-08T00:28:20Z</time></trkpt>
<trkpt lat="30.094959" lon="95.060843">
<time>2016-10-08T00:28:21Z</time></trkpt>
<trkpt lat="30.09481" lon="95.060653">
<time>2016-10-08T00:28:22Z</time></trkpt>
<trkpt lat="30.09469" lon="95.060484">
<time>2016-10-08T00:28:23Z</time></trkpt>
<trkpt lat="30.09463" lon="95.060414">
<time>2016-10-08T00:28:24Z</time></trkpt>
<trkpt lat="30.09458" lon="95.060364">
<time>2016-10-08T00:28:25Z</time></trkpt>
<trkpt lat="30.09453" lon="95.060314">
<time>2016-10-08T00:28:26Z</time></trkpt>
<trkpt lat="30.09445" lon="95.060254">
<time>2016-10-08T00:28:27Z</time></trkpt>
<trkpt lat="30.09432" lon="95.060174">
<time>2016-10-08T00:28:28Z</time></trkpt>
<trkpt lat="30.09417" lon="95.060104">
<time>2016-10-08T00:28:29Z</time></trkpt>
<trkpt lat="30.094071" lon="95.060055">
<time>2016-10-08T00:28:30Z</time></trkpt>
<trkpt lat="30.093991" lon="95.060005">
<time>2016-10-08T00:28:31Z</time></trkpt>
<trkpt lat="30.093931" lon="95.059955">
<time>2016-10-08T00:28:32Z</time></trkpt>
<trkpt lat="30.093881" lon="95.059895">
<time>2016-10-08T00:28:33Z</time></trkpt>
<trkpt lat="30.093811" lon="95.059805">
<time>2016-10-08T00:28:34Z</time></trkpt>
<trkpt lat="30.093671" lon="95.059576">
<time>2016-10-08T00:28:35Z</time></trkpt>
<trkpt lat="30.093581" lon="95.059476">
<time>2016-10-08T00:28:36Z</time></trkpt>
<trkpt lat="30.093442" lon="95.059336">
<time>2016-10-08T00:28:37Z</time></trkpt>
<trkpt lat="30.093222" lon="95.059146">
<time>2016-10-08T00:28:38Z</time></trkpt>
<trkpt lat="30.093062" lon="95.059027">
<time>2016-10-08T00:28:39Z</time></trkpt>
<trkpt lat="30.093002" lon="95.058997">
<time>2016-10-08T00:28:40Z</time></trkpt>
<trkpt lat="30.092912" lon="95.058967">
<time>2016-10-08T00:28:41Z</time></trkpt>
<trkpt lat="30.092852" lon="95.058967">
<time>2016-10-08T00:28:42Z</time></trkpt>
<trkpt lat="30.092772" lon="95.058967">
<time>2016-10-08T00:28:43Z</time></trkpt>
<trkpt lat="30.092682" lon="95.058977">
<time>2016-10-08T00:28:44Z</time></trkpt>
<trkpt lat="30.092602" lon="95.059007">
<time>2016-10-08T00:28:45Z</time></trkpt>
<trkpt lat="30.092542" lon="95.059017">
<time>2016-10-08T00:28:46Z</time></trkpt>
<trkpt lat="30.092522" lon="95.059027">
<time>2016-10-08T00:28:47Z</time></trkpt>
<trkpt lat="30.092482" lon="95.059037">
<time>2016-10-08T00:28:48Z</time></trkpt>
<trkpt lat="30.092452" lon="95.059037">
<time>2016-10-08T00:28:49Z</time></trkpt>
<trkpt lat="30.092382" lon="95.059027">
<time>2016-10-08T00:28:50Z</time></trkpt>
<trkpt lat="30.092332" lon="95.059007">
<time>2016-10-08T00:28:51Z</time></trkpt>
<trkpt lat="30.092292" lon="95.058987">
<time>2016-10-08T00:28:52Z</time></trkpt>
<trkpt lat="30.092242" lon="95.058947">
<time>2016-10-08T00:28:53Z</time></trkpt>
<trkpt lat="30.092172" lon="95.058897">
<time>2016-10-08T00:28:54Z</time></trkpt>
<trkpt lat="30.092103" lon="95.058837">
<time>2016-10-08T00:28:55Z</time></trkpt>
<trkpt lat="30.091903" lon="95.058687">
<time>2016-10-08T00:28:56Z</time></trkpt>
<trkpt lat="30.091823" lon="95.058628">
<time>2016-10-08T00:28:57Z</time></trkpt>
<trkpt lat="30.091743" lon="95.058558">
<time>2016-10-08T00:28:58Z</time></trkpt>
<trkpt lat="30.091643" lon="95.058458">
<time>2016-10-08T00:28:59Z</time></trkpt>
<trkpt lat="30.091593" lon="95.058388">
<time>2016-10-08T00:29:00Z</time></trkpt>
<trkpt lat="30.091533" lon="95.058298">
<time>2016-10-08T00:29:01Z</time></trkpt>
<trkpt lat="30.091404" lon="95.058109">
<time>2016-10-08T00:29:02Z</time></trkpt>
<trkpt lat="30.091244" lon="95.057919">
<time>2016-10-08T00:29:03Z</time></trkpt>
<trkpt lat="30.091124" lon="95.057779">
<time>2016-10-08T00:29:04Z</time></trkpt>
<trkpt lat="30.091084" lon="95.057739">
<time>2016-10-08T00:29:05Z</time></trkpt>
<trkpt lat="30.091054" lon="95.057719">
<time>2016-10-08T00:29:06Z</time></trkpt>
<trkpt lat="30.091034" lon="95.057699">
<time>2016-10-08T00:29:07Z</time></trkpt>
<trkpt lat="30.091014" lon="95.057689">
<time>2016-10-08T00:29:08Z</time></trkpt>
<trkpt lat="30.090984" lon="95.057689">
<time>2016-10-08T00:29:09Z</time></trkpt>
<trkpt lat="30.090914" lon="95.057689">
<time>2016-10-08T00:29:10Z</time></trkpt>
<trkpt lat="30.090854" lon="95.057689">
<time>2016-10-08T00:29:11Z</time></trkpt>
<trkpt lat="30.090795" lon="95.05767">
<time>2016-10-08T00:29:12Z</time></trkpt>
<trkpt lat="30.090675" lon="95.05763">
<time>2016-10-08T00:29:13Z</time></trkpt>
<trkpt lat="30.090665" lon="95.05763">
<time>2016-10-08T00:29:14Z</time></trkpt>
<trkpt lat="30.090645" lon="95.05763">
<time>2016-10-08T00:29:15Z</time></trkpt>
<trkpt lat="30.090625" lon="95.05763">
<time>2016-10-08T00:29:16Z</time></trkpt>
<trkpt lat="30.090605" lon="95.05764">
<time>2016-10-08T00:29:17Z</time></trkpt>
<trkpt lat="30.090524" lon="95.057699">
<time>2016-10-08T00:29:18Z</time></trkpt>
<trkpt lat="30.090494" lon="95.057719">
<time>2016-10-08T00:29:19Z</time></trkpt>
<trkpt lat="30.090434" lon="95.057739">
<time>2016-10-08T00:29:20Z</time></trkpt>
<trkpt lat="30.090324" lon="95.057769">
<time>2016-10-08T00:29:21Z</time></trkpt>
<trkpt lat="30.090254" lon="95.057789">
<time>2016-10-08T00:29:22Z</time></trkpt>
<trkpt lat="30.090224" lon="95.057799">
<time>2016-10-08T00:29:23Z</time></trkpt>
<trkpt lat="30.090194" lon="95.057809">
<time>2016-10-08T00:29:24Z</time></trkpt>
<trkpt lat="30.090164" lon="95.057809">
<time>2016-10-08T00:29:25Z</time></trkpt>
<trkpt lat="30.090144" lon="95.057809">
<time>2016-10-08T00:29:26Z</time></trkpt>
<trkpt lat="30.090024" lon="95.057779">
<time>2016-10-08T00:29:27Z</time></trkpt>
<trkpt lat="30.089904" lon="95.057739">
<time>2016-10-08T00:29:28Z</time></trkpt>
<trkpt lat="30.089695" lon="95.05766">
<time>2016-10-08T00:29:29Z</time></trkpt>
<trkpt lat="30.089425" lon="95.05756">
<time>2016-10-08T00:29:30Z</time></trkpt>
<trkpt lat="30.089335" lon="95.05754">
<time>2016-10-08T00:29:31Z</time></trkpt>
<trkpt lat="30.089255" lon="95.05753">
<time>2016-10-08T00:29:32Z</time></trkpt>
<trkpt lat="30.089185" lon="95.05752">
<time>2016-10-08T00:29:33Z</time></trkpt>
<trkpt lat="30.089135" lon="95.05752">
<time>2016-10-08T00:29:34Z</time></trkpt>
<trkpt lat="30.089105" lon="95.05753">
<time>2016-10-08T00:29:35Z</time></trkpt>
<trkpt lat="30.089045" lon="95.05754">
<time>2016-10-08T00:29:36Z</time></trkpt>
<trkpt lat="30.089005" lon="95.05756">
<time>2016-10-08T00:29:37Z</time></trkpt>
<trkpt lat="30.088955" lon="95.05758">
<time>2016-10-08T00:29:38Z</time></trkpt>
<trkpt lat="30.088925" lon="95.05759">
<time>2016-10-08T00:29:39Z</time></trkpt>
<trkpt lat="30.088895" lon="95.0576">
<time>2016-10-08T00:29:40Z</time></trkpt>
<trkpt lat="30.088865" lon="95.0576">
<time>2016-10-08T00:29:41Z</time></trkpt>
<trkpt lat="30.088835" lon="95.05761">
<time>2016-10-08T00:29:42Z</time></trkpt>
<trkpt lat="30.088795" lon="95.0576">
<time>2016-10-08T00:29:43Z</time></trkpt>
<trkpt lat="30.088755" lon="95.05759">
<time>2016-10-08T00:29:44Z</time></trkpt>
<trkpt lat="30.088725" lon="95.05757">
<time>2016-10-08T00:29:45Z</time></trkpt>
<trkpt lat="30.088705" lon="95.05754">
<time>2016-10-08T00:29:46Z</time></trkpt>
<trkpt lat="30.088695" lon="95.05751">
<time>2016-10-08T00:29:47Z</time></trkpt>
<trkpt lat="30.088675" lon="95.05748">
<time>2016-10-08T00:29:48Z</time></trkpt>
<trkpt lat="30.088655" lon="95.05744">
<time>2016-10-08T00:29:49Z</time></trkpt>
<trkpt lat="30.088635" lon="95.05741">
<time>2016-10-08T00:29:50Z</time></trkpt>
<trkpt lat="30.088605" lon="95.05737">
<time>2016-10-08T00:29:51Z</time></trkpt>
<trkpt lat="30.088585" lon="95.05736">
<time>2016-10-08T00:29:52Z</time></trkpt>
<trkpt lat="30.088545" lon="95.05734">
<time>2016-10-08T00:29:53Z</time></trkpt>
<trkpt lat="30.088495" lon="95.0573">
<time>2016-10-08T00:29:54Z</time></trkpt>
<trkpt lat="30.088435" lon="95.05728">
<time>2016-10-08T00:29:55Z</time></trkpt>
<trkpt lat="30.088395" lon="95.05726">
<time>2016-10-08T00:29:56Z</time></trkpt>
<trkpt lat="30.088345" lon="95.05724">
<time>2016-10-08T00:29:57Z</time></trkpt>
<trkpt lat="30.088265" lon="95.057221">
<time>2016-10-08T00:29:58Z</time></trkpt>
<trkpt lat="30.088235" lon="95.057211">
<time>2016-10-08T00:29:59Z</time></trkpt>
<trkpt lat="30.088205" lon="95.057201">
<time>2016-10-08T00:30:00Z</time></trkpt>
<trkpt lat="30.088175" lon="95.057171">
<time>2016-10-08T00:30:01Z</time></trkpt>
<trkpt lat="30.088145" lon="95.057141">
<time>2016-10-08T00:30:02Z</time></trkpt>
<trkpt lat="30.088125" lon="95.057111">
<time>2016-10-08T00:30:03Z</time></trkpt>
<trkpt lat="30.088105" lon="95.057091">
<time>2016-10-08T00:30:04Z</time></trkpt>
<trkpt lat="30.088096" lon="95.057061">
<time>2016-10-08T00:30:05Z</time></trkpt>
<trkpt lat="30.088076" lon="95.057041">
<time>2016-10-08T00:30:06Z</time></trkpt>
<trkpt lat="30.088056" lon="95.057021">
<time>2016-10-08T00:30:07Z</time></trkpt>
<trkpt lat="30.088016" lon="95.056991">
<time>2016-10-08T00:30:08Z</time></trkpt>
<trkpt lat="30.087826" lon="95.056841">
<time>2016-10-08T00:30:09Z</time></trkpt>
<trkpt lat="30.087666" lon="95.056712">
<time>2016-10-08T00:30:10Z</time></trkpt>
<trkpt lat="30.087636" lon="95.056692">
<time>2016-10-08T00:30:11Z</time></trkpt>
<trkpt lat="30.087596" lon="95.056682">
<time>2016-10-08T00:30:12Z</time></trkpt>
<trkpt lat="30.087546" lon="95.056672">
<time>2016-10-08T00:30:13Z</time></trkpt>
<trkpt lat="30.087426" lon="95.056672">
<time>2016-10-08T00:30:14Z</time></trkpt>
<trkpt lat="30.087336" lon="95.056672">
<time>2016-10-08T00:30:15Z</time></trkpt>
<trkpt lat="30.087266" lon="95.056682">
<time>2016-10-08T00:30:16Z</time></trkpt>
<trkpt lat="30.087156" lon="95.056712">
<time>2016-10-08T00:30:17Z</time></trkpt>
<trkpt lat="30.087076" lon="95.056742">
<time>2016-10-08T00:30:18Z</time></trkpt>
<trkpt lat="30.087016" lon="95.056752">
<time>2016-10-08T00:30:19Z</time></trkpt>
<trkpt lat="30.086986" lon="95.056752">
<time>2016-10-08T00:30:20Z</time></trkpt>
<trkpt lat="30.086956" lon="95.056752">
<time>2016-10-08T00:30:21Z</time></trkpt>
<trkpt lat="30.086936" lon="95.056742">
<time>2016-10-08T00:30:22Z</time></trkpt>
<trkpt lat="30.086906" lon="95.056722">
<time>2016-10-08T00:30:23Z</time></trkpt>
<trkpt lat="30.086876" lon="95.056702">
<time>2016-10-08T00:30:24Z</time></trkpt>
<trkpt lat="30.086786" lon="95.056632">
<time>2016-10-08T00:30:25Z</time></trkpt>
<trkpt lat="30.086726" lon="95.056582">
<time>2016-10-08T00:30:26Z</time></trkpt>
<trkpt lat="30.086646" lon="95.056532">
<time>2016-10-08T00:30:27Z</time></trkpt>
<trkpt lat="30.086617" lon="95.056512">
<time>2016-10-08T00:30:28Z</time></trkpt>
<trkpt lat="30.086577" lon="95.056482">
<time>2016-10-08T00:30:29Z</time></trkpt>
<trkpt lat="30.086557" lon="95.056462">
<time>2016-10-08T00:30:30Z</time></trkpt>
<trkpt lat="30.086547" lon="95.056442">
<time>2016-10-08T00:30:31Z</time></trkpt>
<trkpt lat="30.086517" lon="95.056402">
<time>2016-10-08T00:30:32Z</time></trkpt>
<trkpt lat="30.086497" lon="95.056372">
<time>2016-10-08T00:30:33Z</time></trkpt>
<trkpt lat="30.086477" lon="95.056352">
<time>2016-10-08T00:30:34Z</time></trkpt>
<trkpt lat="30.086457" lon="95.056322">
<time>2016-10-08T00:30:35Z</time></trkpt>
<trkpt lat="30.086437" lon="95.056303">
<time>2016-10-08T00:30:36Z</time></trkpt>
<trkpt lat="30.086417" lon="95.056273">
<time>2016-10-08T00:30:37Z</time></trkpt>
<trkpt lat="30.086387" lon="95.056253">
<time>2016-10-08T00:30:38Z</time></trkpt>
<trkpt lat="30.086327" lon="95.056203">
<time>2016-10-08T00:30:39Z</time></trkpt>
<trkpt lat="30.086267" lon="95.056153">
<time>2016-10-08T00:30:40Z</time></trkpt>
<trkpt lat="30.086217" lon="95.056123">
<time>2016-10-08T00:30:41Z</time></trkpt>
<trkpt lat="30.086167" lon="95.056083">
<time>2016-10-08T00:30:42Z</time></trkpt>
<trkpt lat="30.086107" lon="95.056033">
<time>2016-10-08T00:30:43Z</time></trkpt>
<trkpt lat="30.086057" lon="95.055993">
<time>2016-10-08T00:30:44Z</time></trkpt>
<trkpt lat="30.085987" lon="95.055953">
<time>2016-10-08T00:30:45Z</time></trkpt>
<trkpt lat="30.085948" lon="95.055943">
<time>2016-10-08T00:30:46Z</time></trkpt>
<trkpt lat="30.085878" lon="95.055923">
<time>2016-10-08T00:30:47Z</time></trkpt>
<trkpt lat="30.085798" lon="95.055913">
<time>2016-10-08T00:30:48Z</time></trkpt>
<trkpt lat="30.085688" lon="95.055883">
<time>2016-10-08T00:30:49Z</time></trkpt>
<trkpt lat="30.085538" lon="95.055824">
<time>2016-10-08T00:30:50Z</time></trkpt>
<trkpt lat="30.085368" lon="95.055724">
<time>2016-10-08T00:30:51Z</time></trkpt>
<trkpt lat="30.085058" lon="95.055534">
<time>2016-10-08T00:30:52Z</time></trkpt>
<trkpt lat="30.084948" lon="95.055464">
<time>2016-10-08T00:30:53Z</time></trkpt>
<trkpt lat="30.084759" lon="95.055345">
<time>2016-10-08T00:30:54Z</time></trkpt>
<trkpt lat="30.084509" lon="95.055225">
<time>2016-10-08T00:30:55Z</time></trkpt>
<trkpt lat="30.084279" lon="95.055145">
<time>2016-10-08T00:30:56Z</time></trkpt>
<trkpt lat="30.083919" lon="95.055035">
<time>2016-10-08T00:30:57Z</time></trkpt>
<trkpt lat="30.083789" lon="95.054985">
<time>2016-10-08T00:30:58Z</time></trkpt>
<trkpt lat="30.083639" lon="95.054916">
<time>2016-10-08T00:30:59Z</time></trkpt>
<trkpt lat="30.083499" lon="95.054836">
<time>2016-10-08T00:31:00Z</time></trkpt>
<trkpt lat="30.08337" lon="95.054756">
<time>2016-10-08T00:31:01Z</time></trkpt>
<trkpt lat="30.08331" lon="95.054706">
<time>2016-10-08T00:31:02Z</time></trkpt>
<trkpt lat="30.08308" lon="95.054546">
<time>2016-10-08T00:31:03Z</time></trkpt>
<trkpt lat="30.082241" lon="95.053918">
<time>2016-10-08T00:31:04Z</time></trkpt>
<trkpt lat="30.082041" lon="95.053768">
<time>2016-10-08T00:31:05Z</time></trkpt>
<trkpt lat="30.081782" lon="95.053539">
<time>2016-10-08T00:31:06Z</time></trkpt>
<trkpt lat="30.081452" lon="95.05323">
<time>2016-10-08T00:31:07Z</time></trkpt>
<trkpt lat="30.080893" lon="95.052731">
<time>2016-10-08T00:31:08Z</time></trkpt>
<trkpt lat="30.080754" lon="95.052581">
<time>2016-10-08T00:31:09Z</time></trkpt>
<trkpt lat="30.080484" lon="95.052322">
<time>2016-10-08T00:31:10Z</time></trkpt>
<trkpt lat="30.080265" lon="95.052082">
<time>2016-10-08T00:31:11Z</time></trkpt>
<trkpt lat="30.080105" lon="95.051863">
<time>2016-10-08T00:31:12Z</time></trkpt>
<trkpt lat="30.079956" lon="95.051623">
<time>2016-10-08T00:31:13Z</time></trkpt>
<trkpt lat="30.079806" lon="95.051334">
<time>2016-10-08T00:31:14Z</time></trkpt>
<trkpt lat="30.079627" lon="95.051005">
<time>2016-10-08T00:31:15Z</time></trkpt>
<trkpt lat="30.079447" lon="95.050706">
<time>2016-10-08T00:31:16Z</time></trkpt>
<trkpt lat="30.079308" lon="95.050506">
<time>2016-10-08T00:31:17Z</time></trkpt>
<trkpt lat="30.079258" lon="95.050436">
<time>2016-10-08T00:31:18Z</time></trkpt>
<trkpt lat="30.079198" lon="95.050366">
<time>2016-10-08T00:31:19Z</time></trkpt>
<trkpt lat="30.079138" lon="95.050277">
<time>2016-10-08T00:31:20Z</time></trkpt>
<trkpt lat="30.079049" lon="95.050117">
<time>2016-10-08T00:31:21Z</time></trkpt>
<trkpt lat="30.078969" lon="95.049937">
<time>2016-10-08T00:31:22Z</time></trkpt>
<trkpt lat="30.078919" lon="95.049818">
<time>2016-10-08T00:31:23Z</time></trkpt>
<trkpt lat="30.078879" lon="95.049738">
<time>2016-10-08T00:31:24Z</time></trkpt>
<trkpt lat="30.07884" lon="95.049658">
<time>2016-10-08T00:31:25Z</time></trkpt>
<trkpt lat="30.07879" lon="95.049578">
<time>2016-10-08T00:31:26Z</time></trkpt>
<trkpt lat="30.07873" lon="95.049489">
<time>2016-10-08T00:31:27Z</time></trkpt>
<trkpt lat="30.07864" lon="95.049389">
<time>2016-10-08T00:31:28Z</time></trkpt>
<trkpt lat="30.07848" lon="95.049259">
<time>2016-10-08T00:31:29Z</time></trkpt>
<trkpt lat="30.07837" lon="95.049189">
<time>2016-10-08T00:31:30Z</time></trkpt>
<trkpt lat="30.078191" lon="95.049109">
<time>2016-10-08T00:31:31Z</time></trkpt>
<trkpt lat="30.078021" lon="95.04903">
<time>2016-10-08T00:31:32Z</time></trkpt>
<trkpt lat="30.077791" lon="95.04894">
<time>2016-10-08T00:31:33Z</time></trkpt>
<trkpt lat="30.077611" lon="95.04884">
<time>2016-10-08T00:31:34Z</time></trkpt>
<trkpt lat="30.077391" lon="95.048681">
<time>2016-10-08T00:31:35Z</time></trkpt>
<trkpt lat="30.077192" lon="95.048521">
<time>2016-10-08T00:31:36Z</time></trkpt>
<trkpt lat="30.077052" lon="95.048411">
<time>2016-10-08T00:31:37Z</time></trkpt>
<trkpt lat="30.076912" lon="95.048311">
<time>2016-10-08T00:31:38Z</time></trkpt>
<trkpt lat="30.076782" lon="95.048242">
<time>2016-10-08T00:31:39Z</time></trkpt>
<trkpt lat="30.076663" lon="95.048182">
<time>2016-10-08T00:31:40Z</time></trkpt>
<trkpt lat="30.076473" lon="95.048132">
<time>2016-10-08T00:31:41Z</time></trkpt>
<trkpt lat="30.076293" lon="95.048102">
<time>2016-10-08T00:31:42Z</time></trkpt>
<trkpt lat="30.076133" lon="95.048092">
<time>2016-10-08T00:31:43Z</time></trkpt>
<trkpt lat="30.075983" lon="95.048102">
<time>2016-10-08T00:31:44Z</time></trkpt>
<trkpt lat="30.075793" lon="95.048152">
<time>2016-10-08T00:31:45Z</time></trkpt>
<trkpt lat="30.075632" lon="95.048202">
<time>2016-10-08T00:31:46Z</time></trkpt>
<trkpt lat="30.075502" lon="95.048252">
<time>2016-10-08T00:31:47Z</time></trkpt>
<trkpt lat="30.075372" lon="95.048341">
<time>2016-10-08T00:31:48Z</time></trkpt>
<trkpt lat="30.075242" lon="95.048411">
<time>2016-10-08T00:31:49Z</time></trkpt>
<trkpt lat="30.075112" lon="95.048481">
<time>2016-10-08T00:31:50Z</time></trkpt>
<trkpt lat="30.075002" lon="95.048521">
<time>2016-10-08T00:31:51Z</time></trkpt>
<trkpt lat="30.074872" lon="95.048551">
<time>2016-10-08T00:31:52Z</time></trkpt>
<trkpt lat="30.074762" lon="95.048571">
<time>2016-10-08T00:31:53Z</time></trkpt>
<trkpt lat="30.074562" lon="95.048601">
<time>2016-10-08T00:31:54Z</time></trkpt>
<trkpt lat="30.074352" lon="95.048651">
<time>2016-10-08T00:31:55Z</time></trkpt>
<trkpt lat="30.074081" lon="95.048731">
<time>2016-10-08T00:31:56Z</time></trkpt>
<trkpt lat="30.073741" lon="95.04885">
<time>2016-10-08T00:31:57Z</time></trkpt>
<trkpt lat="30.073571" lon="95.04893">
<time>2016-10-08T00:31:58Z</time></trkpt>
<trkpt lat="30.073541" lon="95.04896">
<time>2016-10-08T00:31:59Z</time></trkpt>
<trkpt lat="30.073471" lon="95.04899">
<time>2016-10-08T00:32:00Z</time></trkpt>
<trkpt lat="30.073411" lon="95.04901">
<time>2016-10-08T00:32:01Z</time></trkpt>
<trkpt lat="30.073341" lon="95.04904">
<time>2016-10-08T00:32:02Z</time></trkpt>
<trkpt lat="30.073291" lon="95.04909">
<time>2016-10-08T00:32:03Z</time></trkpt>
<trkpt lat="30.07325" lon="95.04914">
<time>2016-10-08T00:32:04Z</time></trkpt>
<trkpt lat="30.07319" lon="95.049199">
<time>2016-10-08T00:32:05Z</time></trkpt>
<trkpt lat="30.07296" lon="95.049379">
<time>2016-10-08T00:32:06Z</time></trkpt>
<trkpt lat="30.07274" lon="95.049598">
<time>2016-10-08T00:32:07Z</time></trkpt>
<trkpt lat="30.072619" lon="95.049708">
<time>2016-10-08T00:32:08Z</time></trkpt>
<trkpt lat="30.072549" lon="95.049798">
<time>2016-10-08T00:32:09Z</time></trkpt>
<trkpt lat="30.072529" lon="95.049858">
<time>2016-10-08T00:32:10Z</time></trkpt>
<trkpt lat="30.072519" lon="95.049908">
<time>2016-10-08T00:32:11Z</time></trkpt>
<trkpt lat="30.072519" lon="95.049958">
<time>2016-10-08T00:32:12Z</time></trkpt>
<trkpt lat="30.072539" lon="95.050007">
<time>2016-10-08T00:32:13Z</time></trkpt>
<trkpt lat="30.072559" lon="95.050057">
<time>2016-10-08T00:32:14Z</time></trkpt>
<trkpt lat="30.072589" lon="95.050087">
<time>2016-10-08T00:32:15Z</time></trkpt>
<trkpt lat="30.072628" lon="95.050117">
<time>2016-10-08T00:32:16Z</time></trkpt>
<trkpt lat="30.072668" lon="95.050137">
<time>2016-10-08T00:32:17Z</time></trkpt>
<trkpt lat="30.072708" lon="95.050157">
<time>2016-10-08T00:32:18Z</time></trkpt>
<trkpt lat="30.072728" lon="95.050187">
<time>2016-10-08T00:32:19Z</time></trkpt>
<trkpt lat="30.072738" lon="95.050207">
<time>2016-10-08T00:32:20Z</time></trkpt>
<trkpt lat="30.072738" lon="95.050237">
<time>2016-10-08T00:32:21Z</time></trkpt>
<trkpt lat="30.072738" lon="95.050277">
<time>2016-10-08T00:32:22Z</time></trkpt>
<trkpt lat="30.072718" lon="95.050317">
<time>2016-10-08T00:32:23Z</time></trkpt>
<trkpt lat="30.072698" lon="95.050347">
<time>2016-10-08T00:32:24Z</time></trkpt>
<trkpt lat="30.072668" lon="95.050357">
<time>2016-10-08T00:32:25Z</time></trkpt>
<trkpt lat="30.072648" lon="95.050367">
<time>2016-10-08T00:32:26Z</time></trkpt>
<trkpt lat="30.072608" lon="95.050367">
<time>2016-10-08T00:32:27Z</time></trkpt>
<trkpt lat="30.072538" lon="95.050357">
<time>2016-10-08T00:32:28Z</time></trkpt>
<trkpt lat="30.072388" lon="95.050317">
<time>2016-10-08T00:32:29Z</time></trkpt>
<trkpt lat="30.072328" lon="95.050277">
<time>2016-10-08T00:32:30Z</time></trkpt>
<trkpt lat="30.072268" lon="95.050237">
<time>2016-10-08T00:32:31Z</time></trkpt>
<trkpt lat="30.072168" lon="95.050147">
<time>2016-10-08T00:32:32Z</time></trkpt>
<trkpt lat="30.072109" lon="95.050087">
<time>2016-10-08T00:32:33Z</time></trkpt>
<trkpt lat="30.072059" lon="95.050017">
<time>2016-10-08T00:32:34Z</time></trkpt>
<trkpt lat="30.071979" lon="95.049908">
<time>2016-10-08T00:32:35Z</time></trkpt>
<trkpt lat="30.071889" lon="95.049798">
<time>2016-10-08T00:32:36Z</time></trkpt>
<trkpt lat="30.071839" lon="95.049738">
<time>2016-10-08T00:32:37Z</time></trkpt>
<trkpt lat="30.071819" lon="95.049658">
<time>2016-10-08T00:32:38Z</time></trkpt>
<trkpt lat="30.07179" lon="95.049578">
<time>2016-10-08T00:32:39Z</time></trkpt>
<trkpt lat="30.07177" lon="95.049519">
<time>2016-10-08T00:32:40Z</time></trkpt>
<trkpt lat="30.07174" lon="95.049469">
<time>2016-10-08T00:32:41Z</time></trkpt>
<trkpt lat="30.0717" lon="95.049419">
<time>2016-10-08T00:32:42Z</time></trkpt>
<trkpt lat="30.0716" lon="95.049329">
<time>2016-10-08T00:32:43Z</time></trkpt>
<trkpt lat="30.07145" lon="95.049229">
<time>2016-10-08T00:32:44Z</time></trkpt>
<trkpt lat="30.07135" lon="95.04914">
<time>2016-10-08T00:32:45Z</time></trkpt>
<trkpt lat="30.071271" lon="95.04907">
<time>2016-10-08T00:32:46Z</time></trkpt>
<trkpt lat="30.071231" lon="95.04904">
<time>2016-10-08T00:32:47Z</time></trkpt>
<trkpt lat="30.071201" lon="95.04902">
<time>2016-10-08T00:32:48Z</time></trkpt>
<trkpt lat="30.071151" lon="95.04901">
<time>2016-10-08T00:32:49Z</time></trkpt>
<trkpt lat="30.071071" lon="95.04898">
<time>2016-10-08T00:32:50Z</time></trkpt>
<trkpt lat="30.071011" lon="95.04897">
<time>2016-10-08T00:32:51Z</time></trkpt>
<trkpt lat="30.070991" lon="95.04895">
<time>2016-10-08T00:32:52Z</time></trkpt>
<trkpt lat="30.070971" lon="95.04893">
<time>2016-10-08T00:32:53Z</time></trkpt>
<trkpt lat="30.070921" lon="95.04886">
<time>2016-10-08T00:32:54Z</time></trkpt>
<trkpt lat="30.070871" lon="95.048761">
<time>2016-10-08T00:32:55Z</time></trkpt>
<trkpt lat="30.070831" lon="95.048671">
<time>2016-10-08T00:32:56Z</time></trkpt>
<trkpt lat="30.070812" lon="95.048581">
<time>2016-10-08T00:32:57Z</time></trkpt>
<trkpt lat="30.070792" lon="95.048531">
<time>2016-10-08T00:32:58Z</time></trkpt>
<trkpt lat="30.070772" lon="95.048501">
<time>2016-10-08T00:32:59Z</time></trkpt>
<trkpt lat="30.070732" lon="95.048461">
<time>2016-10-08T00:33:00Z</time></trkpt>
<trkpt lat="30.070662" lon="95.048431">
<time>2016-10-08T00:33:01Z</time></trkpt>
<trkpt lat="30.070512" lon="95.048381">
<time>2016-10-08T00:33:02Z</time></trkpt>
<trkpt lat="30.070332" lon="95.048312">
<time>2016-10-08T00:33:03Z</time></trkpt>
<trkpt lat="30.070172" lon="95.048232">
<time>2016-10-08T00:33:04Z</time></trkpt>
<trkpt lat="30.070102" lon="95.048162">
<time>2016-10-08T00:33:05Z</time></trkpt>
<trkpt lat="30.070023" lon="95.048042">
<time>2016-10-08T00:33:06Z</time></trkpt>
<trkpt lat="30.069933" lon="95.047893">
<time>2016-10-08T00:33:07Z</time></trkpt>
<trkpt lat="30.069853" lon="95.047733">
<time>2016-10-08T00:33:08Z</time></trkpt>
<trkpt lat="30.069784" lon="95.047574">
<time>2016-10-08T00:33:09Z</time></trkpt>
<trkpt lat="30.069744" lon="95.047494">
<time>2016-10-08T00:33:10Z</time></trkpt>
<trkpt lat="30.069714" lon="95.047434">
<time>2016-10-08T00:33:11Z</time></trkpt>
<trkpt lat="30.069654" lon="95.047334">
<time>2016-10-08T00:33:12Z</time></trkpt>
<trkpt lat="30.069644" lon="95.047274">
<time>2016-10-08T00:33:13Z</time></trkpt>
<trkpt lat="30.069634" lon="95.047204">
<time>2016-10-08T00:33:14Z</time></trkpt>
<trkpt lat="30.069635" lon="95.047095">
<time>2016-10-08T00:33:15Z</time></trkpt>
<trkpt lat="30.069645" lon="95.047025">
<time>2016-10-08T00:33:16Z</time></trkpt>
<trkpt lat="30.069645" lon="95.046985">
<time>2016-10-08T00:33:17Z</time></trkpt>
<trkpt lat="30.069645" lon="95.046945">
<time>2016-10-08T00:33:18Z</time></trkpt>
<trkpt lat="30.069645" lon="95.046885">
<time>2016-10-08T00:33:19Z</time></trkpt>
<trkpt lat="30.069615" lon="95.046796">
<time>2016-10-08T00:33:20Z</time></trkpt>
<trkpt lat="30.069576" lon="95.046676">
<time>2016-10-08T00:33:21Z</time></trkpt>
<trkpt lat="30.069536" lon="95.046556">
<time>2016-10-08T00:33:22Z</time></trkpt>
<trkpt lat="30.069516" lon="95.046476">
<time>2016-10-08T00:33:23Z</time></trkpt>
<trkpt lat="30.069506" lon="95.046407">
<time>2016-10-08T00:33:24Z</time></trkpt>
<trkpt lat="30.069496" lon="95.046287">
<time>2016-10-08T00:33:25Z</time></trkpt>
<trkpt lat="30.069477" lon="95.046167">
<time>2016-10-08T00:33:26Z</time></trkpt>
<trkpt lat="30.069457" lon="95.046057">
<time>2016-10-08T00:33:27Z</time></trkpt>
<trkpt lat="30.069447" lon="95.046008">
<time>2016-10-08T00:33:28Z</time></trkpt>
<trkpt lat="30.069427" lon="95.045958">
<time>2016-10-08T00:33:29Z</time></trkpt>
<trkpt lat="30.069407" lon="95.045898">
<time>2016-10-08T00:33:30Z</time></trkpt>
<trkpt lat="30.069388" lon="95.045758">
<time>2016-10-08T00:33:31Z</time></trkpt>
<trkpt lat="30.069358" lon="95.045609">
<time>2016-10-08T00:33:32Z</time></trkpt>
<trkpt lat="30.069318" lon="95.045419">
<time>2016-10-08T00:33:33Z</time></trkpt>
<trkpt lat="30.069279" lon="95.04522">
<time>2016-10-08T00:33:34Z</time></trkpt>
<trkpt lat="30.069219" lon="95.04506">
<time>2016-10-08T00:33:35Z</time></trkpt>
<trkpt lat="30.06912" lon="95.044841">
<time>2016-10-08T00:33:36Z</time></trkpt>
<trkpt lat="30.06897" lon="95.044571">
<time>2016-10-08T00:33:37Z</time></trkpt>
<trkpt lat="30.068821" lon="95.044282">
<time>2016-10-08T00:33:38Z</time></trkpt>
<trkpt lat="30.068632" lon="95.043913">
<time>2016-10-08T00:33:39Z</time></trkpt>
<trkpt lat="30.068542" lon="95.043704">
<time>2016-10-08T00:33:40Z</time></trkpt>
<trkpt lat="30.068473" lon="95.043524">
<time>2016-10-08T00:33:41Z</time></trkpt>
<trkpt lat="30.068393" lon="95.043325">
<time>2016-10-08T00:33:42Z</time></trkpt>
<trkpt lat="30.068284" lon="95.042946">
<time>2016-10-08T00:33:43Z</time></trkpt>
<trkpt lat="30.068185" lon="95.042647">
<time>2016-10-08T00:33:44Z</time></trkpt>
<trkpt lat="30.068045" lon="95.042268">
<time>2016-10-08T00:33:45Z</time></trkpt>
<trkpt lat="30.067986" lon="95.042088">
<time>2016-10-08T00:33:46Z</time></trkpt>
<trkpt lat="30.067946" lon="95.041968">
<time>2016-10-08T00:33:47Z</time></trkpt>
<trkpt lat="30.067906" lon="95.041879">
<time>2016-10-08T00:33:48Z</time></trkpt>
<trkpt lat="30.067876" lon="95.041799">
<time>2016-10-08T00:33:49Z</time></trkpt>
<trkpt lat="30.067837" lon="95.041709">
<time>2016-10-08T00:33:50Z</time></trkpt>
<trkpt lat="30.067767" lon="95.04159">
<time>2016-10-08T00:33:51Z</time></trkpt>
<trkpt lat="30.067697" lon="95.04148">
<time>2016-10-08T00:33:52Z</time></trkpt>
<trkpt lat="30.067617" lon="95.04138">
<time>2016-10-08T00:33:53Z</time></trkpt>
<trkpt lat="30.067558" lon="95.04132">
<time>2016-10-08T00:33:54Z</time></trkpt>
<trkpt lat="30.067488" lon="95.04127">
<time>2016-10-08T00:33:55Z</time></trkpt>
<trkpt lat="30.067398" lon="95.041221">
<time>2016-10-08T00:33:56Z</time></trkpt>
<trkpt lat="30.067248" lon="95.041131">
<time>2016-10-08T00:33:57Z</time></trkpt>
<trkpt lat="30.067138" lon="95.041041">
<time>2016-10-08T00:33:58Z</time></trkpt>
<trkpt lat="30.067068" lon="95.040981">
<time>2016-10-08T00:33:59Z</time></trkpt>
<trkpt lat="30.067009" lon="95.040921">
<time>2016-10-08T00:34:00Z</time></trkpt>
<trkpt lat="30.066939" lon="95.040842">
<time>2016-10-08T00:34:01Z</time></trkpt>
<trkpt lat="30.066879" lon="95.040762">
<time>2016-10-08T00:34:02Z</time></trkpt>
<trkpt lat="30.066819" lon="95.040672">
<time>2016-10-08T00:34:03Z</time></trkpt>
<trkpt lat="30.066749" lon="95.040552">
<time>2016-10-08T00:34:04Z</time></trkpt>
<trkpt lat="30.06658" lon="95.040273">
<time>2016-10-08T00:34:05Z</time></trkpt>
<trkpt lat="30.06652" lon="95.040184">
<time>2016-10-08T00:34:06Z</time></trkpt>
<trkpt lat="30.06647" lon="95.040084">
<time>2016-10-08T00:34:07Z</time></trkpt>
<trkpt lat="30.066421" lon="95.040014">
<time>2016-10-08T00:34:08Z</time></trkpt>
<trkpt lat="30.066361" lon="95.039944">
<time>2016-10-08T00:34:09Z</time></trkpt>
<trkpt lat="30.066301" lon="95.039884">
<time>2016-10-08T00:34:10Z</time></trkpt>
<trkpt lat="30.066271" lon="95.039854">
<time>2016-10-08T00:34:11Z</time></trkpt>
<trkpt lat="30.066241" lon="95.039805">
<time>2016-10-08T00:34:12Z</time></trkpt>
<trkpt lat="30.066201" lon="95.039735">
<time>2016-10-08T00:34:13Z</time></trkpt>
<trkpt lat="30.066171" lon="95.039685">
<time>2016-10-08T00:34:14Z</time></trkpt>
<trkpt lat="30.066122" lon="95.039595">
<time>2016-10-08T00:34:15Z</time></trkpt>
<trkpt lat="30.066092" lon="95.039545">
<time>2016-10-08T00:34:16Z</time></trkpt>
<trkpt lat="30.066062" lon="95.039496">
<time>2016-10-08T00:34:17Z</time></trkpt>
<trkpt lat="30.065992" lon="95.039426">
<time>2016-10-08T00:34:18Z</time></trkpt>
<trkpt lat="30.065892" lon="95.039316">
<time>2016-10-08T00:34:19Z</time></trkpt>
<trkpt lat="30.065822" lon="95.039246">
<time>2016-10-08T00:34:20Z</time></trkpt>
<trkpt lat="30.065723" lon="95.039147">
<time>2016-10-08T00:34:21Z</time></trkpt>
<trkpt lat="30.065673" lon="95.039067">
<time>2016-10-08T00:34:22Z</time></trkpt>
<trkpt lat="30.065613" lon="95.038987">
<time>2016-10-08T00:34:23Z</time></trkpt>
<trkpt lat="30.065504" lon="95.038788">
<time>2016-10-08T00:34:24Z</time></trkpt>
<trkpt lat="30.065354" lon="95.038488">
<time>2016-10-08T00:34:25Z</time></trkpt>
<trkpt lat="30.065225" lon="95.038299">
<time>2016-10-08T00:34:26Z</time></trkpt>
<trkpt lat="30.065095" lon="95.038119">
<time>2016-10-08T00:34:27Z</time></trkpt>
<trkpt lat="30.064985" lon="95.03799">
<time>2016-10-08T00:34:28Z</time></trkpt>
<trkpt lat="30.064846" lon="95.03785">
<time>2016-10-08T00:34:29Z</time></trkpt>
<trkpt lat="30.064726" lon="95.037741">
<time>2016-10-08T00:34:30Z</time></trkpt>
<trkpt lat="30.064596" lon="95.037611">
<time>2016-10-08T00:34:31Z</time></trkpt>
<trkpt lat="30.064487" lon="95.037481">
<time>2016-10-08T00:34:32Z</time></trkpt>
<trkpt lat="30.064397" lon="95.037372">
<time>2016-10-08T00:34:33Z</time></trkpt>
<trkpt lat="30.064307" lon="95.037242">
<time>2016-10-08T00:34:34Z</time></trkpt>
<trkpt lat="30.064218" lon="95.037093">
<time>2016-10-08T00:34:35Z</time></trkpt>
<trkpt lat="30.064158" lon="95.036973">
<time>2016-10-08T00:34:36Z</time></trkpt>
<trkpt lat="30.064048" lon="95.036803">
<time>2016-10-08T00:34:37Z</time></trkpt>
<trkpt lat="30.063919" lon="95.036604">
<time>2016-10-08T00:34:38Z</time></trkpt>
<trkpt lat="30.06371" lon="95.036285">
<time>2016-10-08T00:34:39Z</time></trkpt>
<trkpt lat="30.06357" lon="95.036076">
<time>2016-10-08T00:34:40Z</time></trkpt>
<trkpt lat="30.063461" lon="95.035906">
<time>2016-10-08T00:34:41Z</time></trkpt>
<trkpt lat="30.063371" lon="95.035786">
<time>2016-10-08T00:34:42Z</time></trkpt>
<trkpt lat="30.063241" lon="95.035637">
<time>2016-10-08T00:34:43Z</time></trkpt>
<trkpt lat="30.063151" lon="95.035557">
<time>2016-10-08T00:34:44Z</time></trkpt>
<trkpt lat="30.063042" lon="95.035467">
<time>2016-10-08T00:34:45Z</time></trkpt>
<trkpt lat="30.062972" lon="95.035418">
<time>2016-10-08T00:34:46Z</time></trkpt>
<trkpt lat="30.062712" lon="95.035198">
<time>2016-10-08T00:34:47Z</time></trkpt>
<trkpt lat="30.062573" lon="95.035049">
<time>2016-10-08T00:34:48Z</time></trkpt>
<trkpt lat="30.062483" lon="95.034919">
<time>2016-10-08T00:34:49Z</time></trkpt>
<trkpt lat="30.062443" lon="95.034859">
<time>2016-10-08T00:34:50Z</time></trkpt>
<trkpt lat="30.062393" lon="95.03477">
<time>2016-10-08T00:34:51Z</time></trkpt>
<trkpt lat="30.062334" lon="95.03465">
<time>2016-10-08T00:34:52Z</time></trkpt>
<trkpt lat="30.062254" lon="95.03453">
<time>2016-10-08T00:34:53Z</time></trkpt>
<trkpt lat="30.062134" lon="95.034391">
<time>2016-10-08T00:34:54Z</time></trkpt>
<trkpt lat="30.062045" lon="95.034311">
<time>2016-10-08T00:34:55Z</time></trkpt>
<trkpt lat="30.061895" lon="95.034201">
<time>2016-10-08T00:34:56Z</time></trkpt>
<trkpt lat="30.061655" lon="95.034052">
<time>2016-10-08T00:34:57Z</time></trkpt>
<trkpt lat="30.061356" lon="95.033872">
<time>2016-10-08T00:34:58Z</time></trkpt>
<trkpt lat="30.061166" lon="95.033763">
<time>2016-10-08T00:34:59Z</time></trkpt>
<trkpt lat="30.061006" lon="95.033653">
<time>2016-10-08T00:35:00Z</time></trkpt>
<trkpt lat="30.060777" lon="95.033523">
<time>2016-10-08T00:35:01Z</time></trkpt>
<trkpt lat="30.060597" lon="95.033444">
<time>2016-10-08T00:35:02Z</time></trkpt>
<trkpt lat="30.060347" lon="95.033334">
<time>2016-10-08T00:35:03Z</time></trkpt>
<trkpt lat="30.060097" lon="95.033254">
<time>2016-10-08T00:35:04Z</time></trkpt>
<trkpt lat="30.059877" lon="95.033184">
<time>2016-10-08T00:35:05Z</time></trkpt>
<trkpt lat="30.059708" lon="95.033135">
<time>2016-10-08T00:35:06Z</time></trkpt>
<trkpt lat="30.059548" lon="95.033075">
<time>2016-10-08T00:35:07Z</time></trkpt>
<trkpt lat="30.059308" lon="95.033005">
<time>2016-10-08T00:35:08Z</time></trkpt>
<trkpt lat="30.059128" lon="95.032935">
<time>2016-10-08T00:35:09Z</time></trkpt>
<trkpt lat="30.058978" lon="95.032895">
<time>2016-10-08T00:35:10Z</time></trkpt>
<trkpt lat="30.058818" lon="95.032865">
<time>2016-10-08T00:35:11Z</time></trkpt>
<trkpt lat="30.058688" lon="95.032845">
<time>2016-10-08T00:35:12Z</time></trkpt>
<trkpt lat="30.058588" lon="95.032835">
<time>2016-10-08T00:35:13Z</time></trkpt>
<trkpt lat="30.058468" lon="95.032836">
<time>2016-10-08T00:35:14Z</time></trkpt>
<trkpt lat="30.058398" lon="95.032836">
<time>2016-10-08T00:35:15Z</time></trkpt>
<trkpt lat="30.058358" lon="95.032836">
<time>2016-10-08T00:35:16Z</time></trkpt>
<trkpt lat="30.058278" lon="95.032826">
<time>2016-10-08T00:35:17Z</time></trkpt>
<trkpt lat="30.058148" lon="95.032806">
<time>2016-10-08T00:35:18Z</time></trkpt>
<trkpt lat="30.058078" lon="95.032776">
<time>2016-10-08T00:35:19Z</time></trkpt>
<trkpt lat="30.058009" lon="95.032756">
<time>2016-10-08T00:35:20Z</time></trkpt>
<trkpt lat="30.057929" lon="95.032726">
<time>2016-10-08T00:35:21Z</time></trkpt>
<trkpt lat="30.057829" lon="95.032706">
<time>2016-10-08T00:35:22Z</time></trkpt>
<trkpt lat="30.057729" lon="95.032686">
<time>2016-10-08T00:35:23Z</time></trkpt>
<trkpt lat="30.057659" lon="95.032656">
<time>2016-10-08T00:35:24Z</time></trkpt>
<trkpt lat="30.057609" lon="95.032636">
<time>2016-10-08T00:35:25Z</time></trkpt>
<trkpt lat="30.057559" lon="95.032606">
<time>2016-10-08T00:35:26Z</time></trkpt>
<trkpt lat="30.057519" lon="95.032556">
<time>2016-10-08T00:35:27Z</time></trkpt>
<trkpt lat="30.057479" lon="95.032507">
<time>2016-10-08T00:35:28Z</time></trkpt>
<trkpt lat="30.057429" lon="95.032467">
<time>2016-10-08T00:35:29Z</time></trkpt>
<trkpt lat="30.057409" lon="95.032447">
<time>2016-10-08T00:35:30Z</time></trkpt>
<trkpt lat="30.057319" lon="95.032407">
<time>2016-10-08T00:35:31Z</time></trkpt>
<trkpt lat="30.057249" lon="95.032377">
<time>2016-10-08T00:35:32Z</time></trkpt>
<trkpt lat="30.05718" lon="95.032357">
<time>2016-10-08T00:35:33Z</time></trkpt>
<trkpt lat="30.05709" lon="95.032337">
<time>2016-10-08T00:35:34Z</time></trkpt>
<trkpt lat="30.05692" lon="95.032347">
<time>2016-10-08T00:35:35Z</time></trkpt>
<trkpt lat="30.056749" lon="95.032377">
<time>2016-10-08T00:35:36Z</time></trkpt>
<trkpt lat="30.056639" lon="95.032377">
<time>2016-10-08T00:35:37Z</time></trkpt>
<trkpt lat="30.056539" lon="95.032377">
<time>2016-10-08T00:35:38Z</time></trkpt>
<trkpt lat="30.0564" lon="95.032337">
<time>2016-10-08T00:35:39Z</time></trkpt>
<trkpt lat="30.05631" lon="95.032317">
<time>2016-10-08T00:35:40Z</time></trkpt>
<trkpt lat="30.05621" lon="95.032277">
<time>2016-10-08T00:35:41Z</time></trkpt>
<trkpt lat="30.05607" lon="95.032217">
<time>2016-10-08T00:35:42Z</time></trkpt>
<trkpt lat="30.05598" lon="95.032198">
<time>2016-10-08T00:35:43Z</time></trkpt>
<trkpt lat="30.05593" lon="95.032188">
<time>2016-10-08T00:35:44Z</time></trkpt>
<trkpt lat="30.05588" lon="95.032178">
<time>2016-10-08T00:35:45Z</time></trkpt>
<trkpt lat="30.05583" lon="95.032168">
<time>2016-10-08T00:35:46Z</time></trkpt>
<trkpt lat="30.05576" lon="95.032168">
<time>2016-10-08T00:35:47Z</time></trkpt>
<trkpt lat="30.05566" lon="95.032178">
<time>2016-10-08T00:35:48Z</time></trkpt>
<trkpt lat="30.05557" lon="95.032178">
<time>2016-10-08T00:35:49Z</time></trkpt>
<trkpt lat="30.05549" lon="95.032168">
<time>2016-10-08T00:35:50Z</time></trkpt>
<trkpt lat="30.05542" lon="95.032168">
<time>2016-10-08T00:35:51Z</time></trkpt>
<trkpt lat="30.05534" lon="95.032158">
<time>2016-10-08T00:35:52Z</time></trkpt>
<trkpt lat="30.05528" lon="95.032148">
<time>2016-10-08T00:35:53Z</time></trkpt>
<trkpt lat="30.05523" lon="95.032128">
<time>2016-10-08T00:35:54Z</time></trkpt>
<trkpt lat="30.05518" lon="95.032098">
<time>2016-10-08T00:35:55Z</time></trkpt>
<trkpt lat="30.05513" lon="95.032058">
<time>2016-10-08T00:35:56Z</time></trkpt>
<trkpt lat="30.05508" lon="95.032018">
<time>2016-10-08T00:35:57Z</time></trkpt>
<trkpt lat="30.055011" lon="95.031948">
<time>2016-10-08T00:35:58Z</time></trkpt>
<trkpt lat="30.054951" lon="95.031889">
<time>2016-10-08T00:35:59Z</time></trkpt>
<trkpt lat="30.054921" lon="95.031849">
<time>2016-10-08T00:36:00Z</time></trkpt>
<trkpt lat="30.054861" lon="95.031789">
<time>2016-10-08T00:36:01Z</time></trkpt>
<trkpt lat="30.054821" lon="95.031749">
<time>2016-10-08T00:36:02Z</time></trkpt>
<trkpt lat="30.054771" lon="95.031719">
<time>2016-10-08T00:36:03Z</time></trkpt>
<trkpt lat="30.054741" lon="95.031689">
<time>2016-10-08T00:36:04Z</time></trkpt>
<trkpt lat="30.054711" lon="95.031669">
<time>2016-10-08T00:36:05Z</time></trkpt>
<trkpt lat="30.054691" lon="95.031659">
<time>2016-10-08T00:36:06Z</time></trkpt>
<trkpt lat="30.054661" lon="95.031649">
<time>2016-10-08T00:36:07Z</time></trkpt>
<trkpt lat="30.054471" lon="95.031589">
<time>2016-10-08T00:36:08Z</time></trkpt>
<trkpt lat="30.054282" lon="95.03153">
<time>2016-10-08T00:36:09Z</time></trkpt>
<trkpt lat="30.054152" lon="95.03149">
<time>2016-10-08T00:36:10Z</time></trkpt>
<trkpt lat="30.053942" lon="95.03142">
<time>2016-10-08T00:36:11Z</time></trkpt>
<trkpt lat="30.053872" lon="95.03139">
<time>2016-10-08T00:36:12Z</time></trkpt>
<trkpt lat="30.053712" lon="95.03133">
<time>2016-10-08T00:36:13Z</time></trkpt>
<trkpt lat="30.053672" lon="95.03131">
<time>2016-10-08T00:36:14Z</time></trkpt>
<trkpt lat="30.053622" lon="95.03129">
<time>2016-10-08T00:36:15Z</time></trkpt>
<trkpt lat="30.053572" lon="95.03127">
<time>2016-10-08T00:36:16Z</time></trkpt>
<trkpt lat="30.053512" lon="95.031261">
<time>2016-10-08T00:36:17Z</time></trkpt>
<trkpt lat="30.053462" lon="95.031251">
<time>2016-10-08T00:36:18Z</time></trkpt>
<trkpt lat="30.053412" lon="95.031241">
<time>2016-10-08T00:36:19Z</time></trkpt>
<trkpt lat="30.053352" lon="95.031231">
<time>2016-10-08T00:36:20Z</time></trkpt>
<trkpt lat="30.053292" lon="95.031211">
<time>2016-10-08T00:36:21Z</time></trkpt>
<trkpt lat="30.053213" lon="95.031161">
<time>2016-10-08T00:36:22Z</time></trkpt>
<trkpt lat="30.053083" lon="95.031101">
<time>2016-10-08T00:36:23Z</time></trkpt>
<trkpt lat="30.052963" lon="95.031041">
<time>2016-10-08T00:36:24Z</time></trkpt>
<trkpt lat="30.052833" lon="95.030971">
<time>2016-10-08T00:36:25Z</time></trkpt>
<trkpt lat="30.052763" lon="95.030942">
<time>2016-10-08T00:36:26Z</time></trkpt>
<trkpt lat="30.052643" lon="95.030882">
<time>2016-10-08T00:36:27Z</time></trkpt>
<trkpt lat="30.052404" lon="95.030792">
<time>2016-10-08T00:36:28Z</time></trkpt>
<trkpt lat="30.052304" lon="95.030742">
<time>2016-10-08T00:36:29Z</time></trkpt>
<trkpt lat="30.052234" lon="95.030712">
<time>2016-10-08T00:36:30Z</time></trkpt>
<trkpt lat="30.052174" lon="95.030682">
<time>2016-10-08T00:36:31Z</time></trkpt>
<trkpt lat="30.052134" lon="95.030662">
<time>2016-10-08T00:36:32Z</time></trkpt>
<trkpt lat="30.052084" lon="95.030642">
<time>2016-10-08T00:36:33Z</time></trkpt>
<trkpt lat="30.052054" lon="95.030613">
<time>2016-10-08T00:36:34Z</time></trkpt>
<trkpt lat="30.052014" lon="95.030583">
<time>2016-10-08T00:36:35Z</time></trkpt>
<trkpt lat="30.051974" lon="95.030553">
<time>2016-10-08T00:36:36Z</time></trkpt>
<trkpt lat="30.051924" lon="95.030523">
<time>2016-10-08T00:36:37Z</time></trkpt>
<trkpt lat="30.051834" lon="95.030483">
<time>2016-10-08T00:36:38Z</time></trkpt>
<trkpt lat="30.051734" lon="95.030443">
<time>2016-10-08T00:36:39Z</time></trkpt>
<trkpt lat="30.051585" lon="95.030403">
<time>2016-10-08T00:36:40Z</time></trkpt>
<trkpt lat="30.051475" lon="95.030393">
<time>2016-10-08T00:36:41Z</time></trkpt>
<trkpt lat="30.051375" lon="95.030373">
<time>2016-10-08T00:36:42Z</time></trkpt>
<trkpt lat="30.051165" lon="95.030324">
<time>2016-10-08T00:36:43Z</time></trkpt>
<trkpt lat="30.050935" lon="95.030254">
<time>2016-10-08T00:36:44Z</time></trkpt>
<trkpt lat="30.050765" lon="95.030194">
<time>2016-10-08T00:36:45Z</time></trkpt>
<trkpt lat="30.050655" lon="95.030144">
<time>2016-10-08T00:36:46Z</time></trkpt>
<trkpt lat="30.050595" lon="95.030104">
<time>2016-10-08T00:36:47Z</time></trkpt>
<trkpt lat="30.050505" lon="95.030054">
<time>2016-10-08T00:36:48Z</time></trkpt>
<trkpt lat="30.050436" lon="95.030005">
<time>2016-10-08T00:36:49Z</time></trkpt>
<trkpt lat="30.050366" lon="95.029965">
<time>2016-10-08T00:36:50Z</time></trkpt>
<trkpt lat="30.050276" lon="95.029925">
<time>2016-10-08T00:36:51Z</time></trkpt>
<trkpt lat="30.050186" lon="95.029885">
<time>2016-10-08T00:36:52Z</time></trkpt>
<trkpt lat="30.050096" lon="95.029835">
<time>2016-10-08T00:36:53Z</time></trkpt>
<trkpt lat="30.049986" lon="95.029785">
<time>2016-10-08T00:36:54Z</time></trkpt>
<trkpt lat="30.049926" lon="95.029765">
<time>2016-10-08T00:36:55Z</time></trkpt>
<trkpt lat="30.049876" lon="95.029745">
<time>2016-10-08T00:36:56Z</time></trkpt>
<trkpt lat="30.049816" lon="95.029735">
<time>2016-10-08T00:36:57Z</time></trkpt>
<trkpt lat="30.049766" lon="95.029735">
<time>2016-10-08T00:36:58Z</time></trkpt>
<trkpt lat="30.049716" lon="95.029735">
<time>2016-10-08T00:36:59Z</time></trkpt>
<trkpt lat="30.049656" lon="95.029755">
<time>2016-10-08T00:37:00Z</time></trkpt>
<trkpt lat="30.049576" lon="95.029795">
<time>2016-10-08T00:37:01Z</time></trkpt>
<trkpt lat="30.049496" lon="95.029825">
<time>2016-10-08T00:37:02Z</time></trkpt>
<trkpt lat="30.049446" lon="95.029845">
<time>2016-10-08T00:37:03Z</time></trkpt>
<trkpt lat="30.049406" lon="95.029855">
<time>2016-10-08T00:37:04Z</time></trkpt>
<trkpt lat="30.049336" lon="95.029865">
<time>2016-10-08T00:37:05Z</time></trkpt>
<trkpt lat="30.049296" lon="95.029855">
<time>2016-10-08T00:37:06Z</time></trkpt>
<trkpt lat="30.049276" lon="95.029855">
<time>2016-10-08T00:37:07Z</time></trkpt>
<trkpt lat="30.049246" lon="95.029835">
<time>2016-10-08T00:37:08Z</time></trkpt>
<trkpt lat="30.049146" lon="95.029725">
<time>2016-10-08T00:37:09Z</time></trkpt>
<trkpt lat="30.049106" lon="95.029686">
<time>2016-10-08T00:37:10Z</time></trkpt>
<trkpt lat="30.048997" lon="95.029596">
<time>2016-10-08T00:37:11Z</time></trkpt>
<trkpt lat="30.048927" lon="95.029546">
<time>2016-10-08T00:37:12Z</time></trkpt>
<trkpt lat="30.048867" lon="95.029516">
<time>2016-10-08T00:37:13Z</time></trkpt>
<trkpt lat="30.048817" lon="95.029496">
<time>2016-10-08T00:37:14Z</time></trkpt>
<trkpt lat="30.048787" lon="95.029486">
<time>2016-10-08T00:37:15Z</time></trkpt>
<trkpt lat="30.048737" lon="95.029476">
<time>2016-10-08T00:37:16Z</time></trkpt>
<trkpt lat="30.048697" lon="95.029466">
<time>2016-10-08T00:37:17Z</time></trkpt>
<trkpt lat="30.048677" lon="95.029466">
<time>2016-10-08T00:37:18Z</time></trkpt>
<trkpt lat="30.048657" lon="95.029466">
<time>2016-10-08T00:37:19Z</time></trkpt>
<trkpt lat="30.048627" lon="95.029466">
<time>2016-10-08T00:37:20Z</time></trkpt>
<trkpt lat="30.048587" lon="95.029466">
<time>2016-10-08T00:37:21Z</time></trkpt>
<trkpt lat="30.048567" lon="95.029466">
<time>2016-10-08T00:37:22Z</time></trkpt>
<trkpt lat="30.048537" lon="95.029446">
<time>2016-10-08T00:37:23Z</time></trkpt>
<trkpt lat="30.048527" lon="95.029436">
<time>2016-10-08T00:37:24Z</time></trkpt>
<trkpt lat="30.048507" lon="95.029416">
<time>2016-10-08T00:37:25Z</time></trkpt>
<trkpt lat="30.048477" lon="95.029377">
<time>2016-10-08T00:37:26Z</time></trkpt>
<trkpt lat="30.048447" lon="95.029347">
<time>2016-10-08T00:37:27Z</time></trkpt>
<trkpt lat="30.048417" lon="95.029307">
<time>2016-10-08T00:37:28Z</time></trkpt>
<trkpt lat="30.048398" lon="95.029267">
<time>2016-10-08T00:37:29Z</time></trkpt>
<trkpt lat="30.048358" lon="95.029227">
<time>2016-10-08T00:37:30Z</time></trkpt>
<trkpt lat="30.048328" lon="95.029197">
<time>2016-10-08T00:37:31Z</time></trkpt>
<trkpt lat="30.048298" lon="95.029167">
<time>2016-10-08T00:37:32Z</time></trkpt>
<trkpt lat="30.048248" lon="95.029127">
<time>2016-10-08T00:37:33Z</time></trkpt>
<trkpt lat="30.048218" lon="95.029107">
<time>2016-10-08T00:37:34Z</time></trkpt>
<trkpt lat="30.048198" lon="95.029088">
<time>2016-10-08T00:37:35Z</time></trkpt>
<trkpt lat="30.048168" lon="95.029048">
<time>2016-10-08T00:37:36Z</time></trkpt>
<trkpt lat="30.048138" lon="95.029018">
<time>2016-10-08T00:37:37Z</time></trkpt>
<trkpt lat="30.048108" lon="95.028988">
<time>2016-10-08T00:37:38Z</time></trkpt>
<trkpt lat="30.048088" lon="95.028968">
<time>2016-10-08T00:37:39Z</time></trkpt>
<trkpt lat="30.048068" lon="95.028958">
<time>2016-10-08T00:37:40Z</time></trkpt>
<trkpt lat="30.048038" lon="95.028958">
<time>2016-10-08T00:37:41Z</time></trkpt>
<trkpt lat="30.048018" lon="95.028958">
<time>2016-10-08T00:37:42Z</time></trkpt>
<trkpt lat="30.047988" lon="95.028958">
<time>2016-10-08T00:37:43Z</time></trkpt>
<trkpt lat="30.047958" lon="95.028968">
<time>2016-10-08T00:37:44Z</time></trkpt>
<trkpt lat="30.047928" lon="95.028978">
<time>2016-10-08T00:37:45Z</time></trkpt>
<trkpt lat="30.047898" lon="95.028988">
<time>2016-10-08T00:37:46Z</time></trkpt>
<trkpt lat="30.047868" lon="95.028998">
<time>2016-10-08T00:37:47Z</time></trkpt>
<trkpt lat="30.047828" lon="95.029008">
<time>2016-10-08T00:37:48Z</time></trkpt>
<trkpt lat="30.047768" lon="95.028998">
<time>2016-10-08T00:37:49Z</time></trkpt>
<trkpt lat="30.047688" lon="95.028988">
<time>2016-10-08T00:37:50Z</time></trkpt>
<trkpt lat="30.047548" lon="95.028928">
<time>2016-10-08T00:37:51Z</time></trkpt>
<trkpt lat="30.047409" lon="95.028868">
<time>2016-10-08T00:37:52Z</time></trkpt>
<trkpt lat="30.047319" lon="95.028838">
<time>2016-10-08T00:37:53Z</time></trkpt>
<trkpt lat="30.047249" lon="95.028828">
<time>2016-10-08T00:37:54Z</time></trkpt>
<trkpt lat="30.047179" lon="95.028818">
<time>2016-10-08T00:37:55Z</time></trkpt>
<trkpt lat="30.047069" lon="95.028818">
<time>2016-10-08T00:37:56Z</time></trkpt>
<trkpt lat="30.047019" lon="95.028818">
<time>2016-10-08T00:37:57Z</time></trkpt>
<trkpt lat="30.046959" lon="95.028808">
<time>2016-10-08T00:37:58Z</time></trkpt>
<trkpt lat="30.046949" lon="95.028808">
<time>2016-10-08T00:37:59Z</time></trkpt>
<trkpt lat="30.046899" lon="95.028788">
<time>2016-10-08T00:38:00Z</time></trkpt>
<trkpt lat="30.046879" lon="95.028788">
<time>2016-10-08T00:38:01Z</time></trkpt>
<trkpt lat="30.046859" lon="95.028788">
<time>2016-10-08T00:38:02Z</time></trkpt>
<trkpt lat="30.046829" lon="95.028788">
<time>2016-10-08T00:38:03Z</time></trkpt>
<trkpt lat="30.046809" lon="95.028788">
<time>2016-10-08T00:38:04Z</time></trkpt>
<trkpt lat="30.046789" lon="95.028788">
<time>2016-10-08T00:38:05Z</time></trkpt>
<trkpt lat="30.046669" lon="95.028779">
<time>2016-10-08T00:38:06Z</time></trkpt>
<trkpt lat="30.046489" lon="95.028769">
<time>2016-10-08T00:38:07Z</time></trkpt>
<trkpt lat="30.046369" lon="95.028769">
<time>2016-10-08T00:38:08Z</time></trkpt>
<trkpt lat="30.046219" lon="95.028739">
<time>2016-10-08T00:38:09Z</time></trkpt>
<trkpt lat="30.045919" lon="95.028699">
<time>2016-10-08T00:38:10Z</time></trkpt>
<trkpt lat="30.045739" lon="95.028679">
<time>2016-10-08T00:38:11Z</time></trkpt>
<trkpt lat="30.045649" lon="95.028669">
<time>2016-10-08T00:38:12Z</time></trkpt>
<trkpt lat="30.045619" lon="95.028659">
<time>2016-10-08T00:38:13Z</time></trkpt>
<trkpt lat="30.045589" lon="95.028659">
<time>2016-10-08T00:38:14Z</time></trkpt>
<trkpt lat="30.045559" lon="95.028659">
<time>2016-10-08T00:38:15Z</time></trkpt>
<trkpt lat="30.045529" lon="95.028659">
<time>2016-10-08T00:38:16Z</time></trkpt>
<trkpt lat="30.045489" lon="95.028659">
<time>2016-10-08T00:38:17Z</time></trkpt>
<trkpt lat="30.045429" lon="95.028649">
<time>2016-10-08T00:38:18Z</time></trkpt>
<trkpt lat="30.045409" lon="95.028639">
<time>2016-10-08T00:38:19Z</time></trkpt>
<trkpt lat="30.045389" lon="95.028619">
<time>2016-10-08T00:38:20Z</time></trkpt>
<trkpt lat="30.045359" lon="95.028599">
<time>2016-10-08T00:38:21Z</time></trkpt>
<trkpt lat="30.045339" lon="95.028569">
<time>2016-10-08T00:38:22Z</time></trkpt>
<trkpt lat="30.04529" lon="95.02848">
<time>2016-10-08T00:38:23Z</time></trkpt>
<trkpt lat="30.04525" lon="95.02842">
<time>2016-10-08T00:38:24Z</time></trkpt>
<trkpt lat="30.04523" lon="95.02839">
<time>2016-10-08T00:38:25Z</time></trkpt>
<trkpt lat="30.04522" lon="95.02838">
<time>2016-10-08T00:38:26Z</time></trkpt>
<trkpt lat="30.0452" lon="95.02836">
<time>2016-10-08T00:38:27Z</time></trkpt>
<trkpt lat="30.04517" lon="95.02835">
<time>2016-10-08T00:38:28Z</time></trkpt>
<trkpt lat="30.04513" lon="95.02832">
<time>2016-10-08T00:38:29Z</time></trkpt>
<trkpt lat="30.04508" lon="95.02831">
<time>2016-10-08T00:38:30Z</time></trkpt>
<trkpt lat="30.04502" lon="95.0283">
<time>2016-10-08T00:38:31Z</time></trkpt>
<trkpt lat="30.04492" lon="95.0283">
<time>2016-10-08T00:38:32Z</time></trkpt>
<trkpt lat="30.04478" lon="95.02831">
<time>2016-10-08T00:38:33Z</time></trkpt>
<trkpt lat="30.04475" lon="95.02831">
<time>2016-10-08T00:38:34Z</time></trkpt>
<trkpt lat="30.04473" lon="95.02832">
<time>2016-10-08T00:38:35Z</time></trkpt>
<trkpt lat="30.04453" lon="95.02841">
<time>2016-10-08T00:38:36Z</time></trkpt>
<trkpt lat="30.04433" lon="95.02849">
<time>2016-10-08T00:38:37Z</time></trkpt>
<trkpt lat="30.044299" lon="95.028509">
<time>2016-10-08T00:38:38Z</time></trkpt>
<trkpt lat="30.044239" lon="95.028539">
<time>2016-10-08T00:38:39Z</time></trkpt>
<trkpt lat="30.044209" lon="95.028539">
<time>2016-10-08T00:38:40Z</time></trkpt>
<trkpt lat="30.044139" lon="95.028529">
<time>2016-10-08T00:38:41Z</time></trkpt>
<trkpt lat="30.044069" lon="95.028519">
<time>2016-10-08T00:38:42Z</time></trkpt>
<trkpt lat="30.044039" lon="95.028519">
<time>2016-10-08T00:38:43Z</time></trkpt>
<trkpt lat="30.044009" lon="95.028519">
<time>2016-10-08T00:38:44Z</time></trkpt>
<trkpt lat="30.043989" lon="95.028529">
<time>2016-10-08T00:38:45Z</time></trkpt>
<trkpt lat="30.043969" lon="95.028529">
<time>2016-10-08T00:38:46Z</time></trkpt>
<trkpt lat="30.043939" lon="95.028539">
<time>2016-10-08T00:38:47Z</time></trkpt>
<trkpt lat="30.043909" lon="95.028539">
<time>2016-10-08T00:38:48Z</time></trkpt>
<trkpt lat="30.043879" lon="95.028549">
<time>2016-10-08T00:38:49Z</time></trkpt>
<trkpt lat="30.043849" lon="95.028539">
<time>2016-10-08T00:38:50Z</time></trkpt>
<trkpt lat="30.043819" lon="95.028539">
<time>2016-10-08T00:38:51Z</time></trkpt>
<trkpt lat="30.043769" lon="95.028529">
<time>2016-10-08T00:38:52Z</time></trkpt>
<trkpt lat="30.043699" lon="95.028529">
<time>2016-10-08T00:38:53Z</time></trkpt>
<trkpt lat="30.043649" lon="95.028529">
<time>2016-10-08T00:38:54Z</time></trkpt>
<trkpt lat="30.043629" lon="95.028519">
<time>2016-10-08T00:38:55Z</time></trkpt>
<trkpt lat="30.043609" lon="95.028509">
<time>2016-10-08T00:38:56Z</time></trkpt>
<trkpt lat="30.0436" lon="95.02849">
<time>2016-10-08T00:38:57Z</time></trkpt>
<trkpt lat="30.04359" lon="95.02848">
<time>2016-10-08T00:38:58Z</time></trkpt>
<trkpt lat="30.04358" lon="95.02845">
<time>2016-10-08T00:38:59Z</time></trkpt>
<trkpt lat="30.04358" lon="95.02843">
<time>2016-10-08T00:39:00Z</time></trkpt>
<trkpt lat="30.04358" lon="95.0284">
<time>2016-10-08T00:39:01Z</time></trkpt>
<trkpt lat="30.04358" lon="95.02835">
<time>2016-10-08T00:39:02Z</time></trkpt>
<trkpt lat="30.04357" lon="95.02829">
<time>2016-10-08T00:39:03Z</time></trkpt>
<trkpt lat="30.04357" lon="95.02825">
<time>2016-10-08T00:39:04Z</time></trkpt>
<trkpt lat="30.04356" lon="95.02821">
<time>2016-10-08T00:39:05Z</time></trkpt>
<trkpt lat="30.04355" lon="95.028181">
<time>2016-10-08T00:39:06Z</time></trkpt>
<trkpt lat="30.04353" lon="95.028161">
<time>2016-10-08T00:39:07Z</time></trkpt>
<trkpt lat="30.04351" lon="95.028141">
<time>2016-10-08T00:39:08Z</time></trkpt>
<trkpt lat="30.043491" lon="95.028131">
<time>2016-10-08T00:39:09Z</time></trkpt>
<trkpt lat="30.043471" lon="95.028111">
<time>2016-10-08T00:39:10Z</time></trkpt>
<trkpt lat="30.043431" lon="95.028101">
<time>2016-10-08T00:39:11Z</time></trkpt>
<trkpt lat="30.043391" lon="95.028081">
<time>2016-10-08T00:39:12Z</time></trkpt>
<trkpt lat="30.043361" lon="95.028091">
<time>2016-10-08T00:39:13Z</time></trkpt>
<trkpt lat="30.043321" lon="95.028091">
<time>2016-10-08T00:39:14Z</time></trkpt>
<trkpt lat="30.043281" lon="95.028121">
<time>2016-10-08T00:39:15Z</time></trkpt>
<trkpt lat="30.04324" lon="95.028161">
<time>2016-10-08T00:39:16Z</time></trkpt>
<trkpt lat="30.04319" lon="95.0282">
<time>2016-10-08T00:39:17Z</time></trkpt>
<trkpt lat="30.04315" lon="95.02824">
<time>2016-10-08T00:39:18Z</time></trkpt>
<trkpt lat="30.0431" lon="95.02828">
<time>2016-10-08T00:39:19Z</time></trkpt>
<trkpt lat="30.04307" lon="95.0283">
<time>2016-10-08T00:39:20Z</time></trkpt>
<trkpt lat="30.04303" lon="95.02833">
<time>2016-10-08T00:39:21Z</time></trkpt>
<trkpt lat="30.04299" lon="95.02837">
<time>2016-10-08T00:39:22Z</time></trkpt>
<trkpt lat="30.04296" lon="95.02839">
<time>2016-10-08T00:39:23Z</time></trkpt>
<trkpt lat="30.04291" lon="95.0284">
<time>2016-10-08T00:39:24Z</time></trkpt>
<trkpt lat="30.04288" lon="95.0284">
<time>2016-10-08T00:39:25Z</time></trkpt>
<trkpt lat="30.04284" lon="95.02838">
<time>2016-10-08T00:39:26Z</time></trkpt>
<trkpt lat="30.04279" lon="95.02836">
<time>2016-10-08T00:39:27Z</time></trkpt>
<trkpt lat="30.04274" lon="95.02833">
<time>2016-10-08T00:39:28Z</time></trkpt>
<trkpt lat="30.04269" lon="95.02832">
<time>2016-10-08T00:39:29Z</time></trkpt>
<trkpt lat="30.04263" lon="95.02833">
<time>2016-10-08T00:39:30Z</time></trkpt>
<trkpt lat="30.04258" lon="95.02834">
<time>2016-10-08T00:39:31Z</time></trkpt>
<trkpt lat="30.04253" lon="95.02835">
<time>2016-10-08T00:39:32Z</time></trkpt>
<trkpt lat="30.04248" lon="95.02836">
<time>2016-10-08T00:39:33Z</time></trkpt>
<trkpt lat="30.04241" lon="95.02837">
<time>2016-10-08T00:39:34Z</time></trkpt>
<trkpt lat="30.04233" lon="95.02837">
<time>2016-10-08T00:39:35Z</time></trkpt>
<trkpt lat="30.04218" lon="95.02837">
<time>2016-10-08T00:39:36Z</time></trkpt>
<trkpt lat="30.0421" lon="95.02836">
<time>2016-10-08T00:39:37Z</time></trkpt>
<trkpt lat="30.04202" lon="95.02833">
<time>2016-10-08T00:39:38Z</time></trkpt>
<trkpt lat="30.04191" lon="95.02829">
<time>2016-10-08T00:39:39Z</time></trkpt>
<trkpt lat="30.04183" lon="95.02826">
<time>2016-10-08T00:39:40Z</time></trkpt>
<trkpt lat="30.04177" lon="95.02823">
<time>2016-10-08T00:39:41Z</time></trkpt>
<trkpt lat="30.04173" lon="95.02821">
<time>2016-10-08T00:39:42Z</time></trkpt>
<trkpt lat="30.0417" lon="95.0282">
<time>2016-10-08T00:39:43Z</time></trkpt>
<trkpt lat="30.04166" lon="95.028191">
<time>2016-10-08T00:39:44Z</time></trkpt>
<trkpt lat="30.0416" lon="95.028181">
<time>2016-10-08T00:39:45Z</time></trkpt>
<trkpt lat="30.04158" lon="95.028161">
<time>2016-10-08T00:39:46Z</time></trkpt>
<trkpt lat="30.04155" lon="95.028141">
<time>2016-10-08T00:39:47Z</time></trkpt>
<trkpt lat="30.04152" lon="95.028121">
<time>2016-10-08T00:39:48Z</time></trkpt>
<trkpt lat="30.041501" lon="95.028101">
<time>2016-10-08T00:39:49Z</time></trkpt>
<trkpt lat="30.041481" lon="95.028091">
<time>2016-10-08T00:39:50Z</time></trkpt>
<trkpt lat="30.041451" lon="95.028081">
<time>2016-10-08T00:39:51Z</time></trkpt>
<trkpt lat="30.041431" lon="95.028071">
<time>2016-10-08T00:39:52Z</time></trkpt>
<trkpt lat="30.041391" lon="95.028071">
<time>2016-10-08T00:39:53Z</time></trkpt>
<trkpt lat="30.041331" lon="95.028071">
<time>2016-10-08T00:39:54Z</time></trkpt>
<trkpt lat="30.041281" lon="95.028081">
<time>2016-10-08T00:39:55Z</time></trkpt>
<trkpt lat="30.041211" lon="95.028101">
<time>2016-10-08T00:39:56Z</time></trkpt>
<trkpt lat="30.041171" lon="95.028111">
<time>2016-10-08T00:39:57Z</time></trkpt>
<trkpt lat="30.04112" lon="95.028121">
<time>2016-10-08T00:39:58Z</time></trkpt>
<trkpt lat="30.04106" lon="95.028121">
<time>2016-10-08T00:39:59Z</time></trkpt>
<trkpt lat="30.041" lon="95.028131">
<time>2016-10-08T00:40:00Z</time></trkpt>
<trkpt lat="30.04095" lon="95.028131">
<time>2016-10-08T00:40:01Z</time></trkpt>
<trkpt lat="30.0409" lon="95.028121">
<time>2016-10-08T00:40:02Z</time></trkpt>
<trkpt lat="30.04085" lon="95.028121">
<time>2016-10-08T00:40:03Z</time></trkpt>
<trkpt lat="30.040821" lon="95.028101">
<time>2016-10-08T00:40:04Z</time></trkpt>
<trkpt lat="30.040791" lon="95.028091">
<time>2016-10-08T00:40:05Z</time></trkpt>
<trkpt lat="30.040691" lon="95.028051">
<time>2016-10-08T00:40:06Z</time></trkpt>
<trkpt lat="30.040621" lon="95.028021">
<time>2016-10-08T00:40:07Z</time></trkpt>
<trkpt lat="30.040511" lon="95.028001">
<time>2016-10-08T00:40:08Z</time></trkpt>
<trkpt lat="30.040381" lon="95.027981">
<time>2016-10-08T00:40:09Z</time></trkpt>
<trkpt lat="30.040241" lon="95.027961">
<time>2016-10-08T00:40:10Z</time></trkpt>
<trkpt lat="30.040101" lon="95.027931">
<time>2016-10-08T00:40:11Z</time></trkpt>
<trkpt lat="30.039951" lon="95.027901">
<time>2016-10-08T00:40:12Z</time></trkpt>
<trkpt lat="30.039921" lon="95.027882">
<time>2016-10-08T00:40:13Z</time></trkpt>
<trkpt lat="30.039901" lon="95.027862">
<time>2016-10-08T00:40:14Z</time></trkpt>
<trkpt lat="30.039891" lon="95.027852">
<time>2016-10-08T00:40:15Z</time></trkpt>
<trkpt lat="30.039831" lon="95.027792">
<time>2016-10-08T00:40:16Z</time></trkpt>
<trkpt lat="30.039752" lon="95.027682">
<time>2016-10-08T00:40:17Z</time></trkpt>
<trkpt lat="30.039532" lon="95.027463">
<time>2016-10-08T00:40:18Z</time></trkpt>
<trkpt lat="30.039482" lon="95.027403">
<time>2016-10-08T00:40:19Z</time></trkpt>
<trkpt lat="30.039443" lon="95.027323">
<time>2016-10-08T00:40:20Z</time></trkpt>
<trkpt lat="30.039413" lon="95.027234">
<time>2016-10-08T00:40:21Z</time></trkpt>
<trkpt lat="30.039403" lon="95.027154">
<time>2016-10-08T00:40:22Z</time></trkpt>
<trkpt lat="30.039403" lon="95.027074">
<time>2016-10-08T00:40:23Z</time></trkpt>
<trkpt lat="30.039413" lon="95.027024">
<time>2016-10-08T00:40:24Z</time></trkpt>
<trkpt lat="30.039414" lon="95.026975">
<time>2016-10-08T00:40:25Z</time></trkpt>
<trkpt lat="30.039434" lon="95.026905">
<time>2016-10-08T00:40:26Z</time></trkpt>
<trkpt lat="30.039454" lon="95.026855">
<time>2016-10-08T00:40:27Z</time></trkpt>
<trkpt lat="30.039504" lon="95.026755">
<time>2016-10-08T00:40:28Z</time></trkpt>
<trkpt lat="30.039555" lon="95.026636">
<time>2016-10-08T00:40:29Z</time></trkpt>
<trkpt lat="30.039575" lon="95.026586">
<time>2016-10-08T00:40:30Z</time></trkpt>
<trkpt lat="30.039595" lon="95.026526">
<time>2016-10-08T00:40:31Z</time></trkpt>
<trkpt lat="30.039615" lon="95.026456">
<time>2016-10-08T00:40:32Z</time></trkpt>
<trkpt lat="30.039635" lon="95.026376">
<time>2016-10-08T00:40:33Z</time></trkpt>
<trkpt lat="30.039646" lon="95.026187">
<time>2016-10-08T00:40:34Z</time></trkpt>
<trkpt lat="30.039646" lon="95.025968">
<time>2016-10-08T00:40:35Z</time></trkpt>
<trkpt lat="30.039637" lon="95.025878">
<time>2016-10-08T00:40:36Z</time></trkpt>
<trkpt lat="30.039617" lon="95.025768">
<time>2016-10-08T00:40:37Z</time></trkpt>
<trkpt lat="30.039587" lon="95.025649">
<time>2016-10-08T00:40:38Z</time></trkpt>
<trkpt lat="30.039558" lon="95.025519">
<time>2016-10-08T00:40:39Z</time></trkpt>
<trkpt lat="30.039528" lon="95.0254">
<time>2016-10-08T00:40:40Z</time></trkpt>
<trkpt lat="30.039508" lon="95.02529">
<time>2016-10-08T00:40:41Z</time></trkpt>
<trkpt lat="30.039498" lon="95.02518">
<time>2016-10-08T00:40:42Z</time></trkpt>
<trkpt lat="30.039499" lon="95.025081">
<time>2016-10-08T00:40:43Z</time></trkpt>
<trkpt lat="30.039509" lon="95.025041">
<time>2016-10-08T00:40:44Z</time></trkpt>
<trkpt lat="30.039529" lon="95.024991">
<time>2016-10-08T00:40:45Z</time></trkpt>
<trkpt lat="30.039559" lon="95.024961">
<time>2016-10-08T00:40:46Z</time></trkpt>
<trkpt lat="30.039589" lon="95.024931">
<time>2016-10-08T00:40:47Z</time></trkpt>
<trkpt lat="30.039609" lon="95.024891">
<time>2016-10-08T00:40:48Z</time></trkpt>
<trkpt lat="30.039619" lon="95.024861">
<time>2016-10-08T00:40:49Z</time></trkpt>
<trkpt lat="30.039629" lon="95.024842">
<time>2016-10-08T00:40:50Z</time></trkpt>
<trkpt lat="30.03965" lon="95.024722">
<time>2016-10-08T00:40:51Z</time></trkpt>
<trkpt lat="30.03968" lon="95.024592">
<time>2016-10-08T00:40:52Z</time></trkpt>
<trkpt lat="30.03969" lon="95.024523">
<time>2016-10-08T00:40:53Z</time></trkpt>
<trkpt lat="30.03971" lon="95.024463">
<time>2016-10-08T00:40:54Z</time></trkpt>
<trkpt lat="30.039731" lon="95.024413">
<time>2016-10-08T00:40:55Z</time></trkpt>
<trkpt lat="30.039761" lon="95.024343">
<time>2016-10-08T00:40:56Z</time></trkpt>
<trkpt lat="30.039791" lon="95.024303">
<time>2016-10-08T00:40:57Z</time></trkpt>
<trkpt lat="30.039841" lon="95.024214">
<time>2016-10-08T00:40:58Z</time></trkpt>
<trkpt lat="30.039881" lon="95.024124">
<time>2016-10-08T00:40:59Z</time></trkpt>
<trkpt lat="30.039932" lon="95.024054">
<time>2016-10-08T00:41:00Z</time></trkpt>
<trkpt lat="30.039972" lon="95.023994">
<time>2016-10-08T00:41:01Z</time></trkpt>
<trkpt lat="30.040052" lon="95.023944">
<time>2016-10-08T00:41:02Z</time></trkpt>
<trkpt lat="30.040102" lon="95.023915">
<time>2016-10-08T00:41:03Z</time></trkpt>
<trkpt lat="30.040132" lon="95.023885">
<time>2016-10-08T00:41:04Z</time></trkpt>
<trkpt lat="30.040162" lon="95.023845">
<time>2016-10-08T00:41:05Z</time></trkpt>
<trkpt lat="30.040192" lon="95.023795">
<time>2016-10-08T00:41:06Z</time></trkpt>
<trkpt lat="30.040273" lon="95.023636">
<time>2016-10-08T00:41:07Z</time></trkpt>
<trkpt lat="30.040423" lon="95.023436">
<time>2016-10-08T00:41:08Z</time></trkpt>
<trkpt lat="30.040524" lon="95.023297">
<time>2016-10-08T00:41:09Z</time></trkpt>
<trkpt lat="30.040644" lon="95.023137">
<time>2016-10-08T00:41:10Z</time></trkpt>
<trkpt lat="30.040674" lon="95.023107">
<time>2016-10-08T00:41:11Z</time></trkpt>
<trkpt lat="30.040704" lon="95.023077">
<time>2016-10-08T00:41:12Z</time></trkpt>
<trkpt lat="30.040775" lon="95.023018">
<time>2016-10-08T00:41:13Z</time></trkpt>
<trkpt lat="30.040815" lon="95.022998">
<time>2016-10-08T00:41:14Z</time></trkpt>
<trkpt lat="30.040855" lon="95.022958">
<time>2016-10-08T00:41:15Z</time></trkpt>
<trkpt lat="30.040875" lon="95.022938">
<time>2016-10-08T00:41:16Z</time></trkpt>
<trkpt lat="30.040915" lon="95.022888">
<time>2016-10-08T00:41:17Z</time></trkpt>
<trkpt lat="30.040945" lon="95.022858">
<time>2016-10-08T00:41:18Z</time></trkpt>
<trkpt lat="30.040975" lon="95.022778">
<time>2016-10-08T00:41:19Z</time></trkpt>
<trkpt lat="30.041005" lon="95.022709">
<time>2016-10-08T00:41:20Z</time></trkpt>
<trkpt lat="30.041026" lon="95.022659">
<time>2016-10-08T00:41:21Z</time></trkpt>
<trkpt lat="30.041046" lon="95.022599">
<time>2016-10-08T00:41:22Z</time></trkpt>
<trkpt lat="30.041066" lon="95.022539">
<time>2016-10-08T00:41:23Z</time></trkpt>
<trkpt lat="30.041086" lon="95.022479">
<time>2016-10-08T00:41:24Z</time></trkpt>
<trkpt lat="30.041096" lon="95.02243">
<time>2016-10-08T00:41:25Z</time></trkpt>
<trkpt lat="30.041126" lon="95.02236">
<time>2016-10-08T00:41:26Z</time></trkpt>
<trkpt lat="30.041147" lon="95.02229">
<time>2016-10-08T00:41:27Z</time></trkpt>
<trkpt lat="30.041167" lon="95.02222">
<time>2016-10-08T00:41:28Z</time></trkpt>
<trkpt lat="30.041187" lon="95.022141">
<time>2016-10-08T00:41:29Z</time></trkpt>
<trkpt lat="30.041197" lon="95.022111">
<time>2016-10-08T00:41:30Z</time></trkpt>
<trkpt lat="30.041227" lon="95.022021">
<time>2016-10-08T00:41:31Z</time></trkpt>
<trkpt lat="30.041238" lon="95.021961">
<time>2016-10-08T00:41:32Z</time></trkpt>
<trkpt lat="30.041268" lon="95.021871">
<time>2016-10-08T00:41:33Z</time></trkpt>
<trkpt lat="30.041278" lon="95.021782">
<time>2016-10-08T00:41:34Z</time></trkpt>
<trkpt lat="30.041288" lon="95.021722">
<time>2016-10-08T00:41:35Z</time></trkpt>
<trkpt lat="30.041298" lon="95.021672">
<time>2016-10-08T00:41:36Z</time></trkpt>
<trkpt lat="30.041299" lon="95.021582">
<time>2016-10-08T00:41:37Z</time></trkpt>
<trkpt lat="30.041309" lon="95.021543">
<time>2016-10-08T00:41:38Z</time></trkpt>
<trkpt lat="30.041319" lon="95.021493">
<time>2016-10-08T00:41:39Z</time></trkpt>
<trkpt lat="30.041329" lon="95.021463">
<time>2016-10-08T00:41:40Z</time></trkpt>
<trkpt lat="30.041349" lon="95.021433">
<time>2016-10-08T00:41:41Z</time></trkpt>
<trkpt lat="30.041379" lon="95.021383">
<time>2016-10-08T00:41:42Z</time></trkpt>
<trkpt lat="30.041419" lon="95.021333">
<time>2016-10-08T00:41:43Z</time></trkpt>
<trkpt lat="30.041459" lon="95.021293">
<time>2016-10-08T00:41:44Z</time></trkpt>
<trkpt lat="30.04151" lon="95.021253">
<time>2016-10-08T00:41:45Z</time></trkpt>
<trkpt lat="30.04156" lon="95.021214">
<time>2016-10-08T00:41:46Z</time></trkpt>
<trkpt lat="30.0416" lon="95.021164">
<time>2016-10-08T00:41:47Z</time></trkpt>
<trkpt lat="30.04164" lon="95.021124">
<time>2016-10-08T00:41:48Z</time></trkpt>
<trkpt lat="30.04171" lon="95.021074">
<time>2016-10-08T00:41:49Z</time></trkpt>
<trkpt lat="30.04175" lon="95.021034">
<time>2016-10-08T00:41:50Z</time></trkpt>
<trkpt lat="30.0418" lon="95.020984">
<time>2016-10-08T00:41:51Z</time></trkpt>
<trkpt lat="30.04183" lon="95.020945">
<time>2016-10-08T00:41:52Z</time></trkpt>
<trkpt lat="30.041871" lon="95.020915">
<time>2016-10-08T00:41:53Z</time></trkpt>
<trkpt lat="30.041921" lon="95.020875">
<time>2016-10-08T00:41:54Z</time></trkpt>
<trkpt lat="30.041981" lon="95.020825">
<time>2016-10-08T00:41:55Z</time></trkpt>
<trkpt lat="30.042041" lon="95.020795">
<time>2016-10-08T00:41:56Z</time></trkpt>
<trkpt lat="30.042091" lon="95.020765">
<time>2016-10-08T00:41:57Z</time></trkpt>
<trkpt lat="30.042141" lon="95.020745">
<time>2016-10-08T00:41:58Z</time></trkpt>
<trkpt lat="30.042171" lon="95.020705">
<time>2016-10-08T00:41:59Z</time></trkpt>
<trkpt lat="30.042211" lon="95.020656">
<time>2016-10-08T00:42:00Z</time></trkpt>
<trkpt lat="30.042221" lon="95.020636">
<time>2016-10-08T00:42:01Z</time></trkpt>
<trkpt lat="30.042251" lon="95.020576">
<time>2016-10-08T00:42:02Z</time></trkpt>
<trkpt lat="30.042272" lon="95.020546">
<time>2016-10-08T00:42:03Z</time></trkpt>
<trkpt lat="30.042282" lon="95.020506">
<time>2016-10-08T00:42:04Z</time></trkpt>
<trkpt lat="30.042292" lon="95.020476">
<time>2016-10-08T00:42:05Z</time></trkpt>
<trkpt lat="30.042292" lon="95.020446">
<time>2016-10-08T00:42:06Z</time></trkpt>
<trkpt lat="30.042302" lon="95.020406">
<time>2016-10-08T00:42:07Z</time></trkpt>
<trkpt lat="30.042312" lon="95.020366">
<time>2016-10-08T00:42:08Z</time></trkpt>
<trkpt lat="30.042332" lon="95.020327">
<time>2016-10-08T00:42:09Z</time></trkpt>
<trkpt lat="30.042342" lon="95.020277">
<time>2016-10-08T00:42:10Z</time></trkpt>
<trkpt lat="30.042373" lon="95.020207">
<time>2016-10-08T00:42:11Z</time></trkpt>
<trkpt lat="30.042413" lon="95.020147">
<time>2016-10-08T00:42:12Z</time></trkpt>
<trkpt lat="30.042463" lon="95.020068">
<time>2016-10-08T00:42:13Z</time></trkpt>
<trkpt lat="30.042503" lon="95.020008">
<time>2016-10-08T00:42:14Z</time></trkpt>
<trkpt lat="30.042553" lon="95.019938">
<time>2016-10-08T00:42:15Z</time></trkpt>
<trkpt lat="30.042593" lon="95.019878">
<time>2016-10-08T00:42:16Z</time></trkpt>
<trkpt lat="30.042654" lon="95.019828">
<time>2016-10-08T00:42:17Z</time></trkpt>
<trkpt lat="30.042724" lon="95.019769">
<time>2016-10-08T00:42:18Z</time></trkpt>
<trkpt lat="30.042794" lon="95.019709">
<time>2016-10-08T00:42:19Z</time></trkpt>
<trkpt lat="30.042844" lon="95.019659">
<time>2016-10-08T00:42:20Z</time></trkpt>
<trkpt lat="30.042884" lon="95.019599">
<time>2016-10-08T00:42:21Z</time></trkpt>
<trkpt lat="30.042904" lon="95.019569">
<time>2016-10-08T00:42:22Z</time></trkpt>
<trkpt lat="30.042935" lon="95.019509">
<time>2016-10-08T00:42:23Z</time></trkpt>
<trkpt lat="30.042945" lon="95.01948">
<time>2016-10-08T00:42:24Z</time></trkpt>
<trkpt lat="30.042965" lon="95.01942">
<time>2016-10-08T00:42:25Z</time></trkpt>
<trkpt lat="30.042975" lon="95.01939">
<time>2016-10-08T00:42:26Z</time></trkpt>
<trkpt lat="30.043005" lon="95.01933">
<time>2016-10-08T00:42:27Z</time></trkpt>
<trkpt lat="30.043015" lon="95.0193">
<time>2016-10-08T00:42:28Z</time></trkpt>
<trkpt lat="30.043025" lon="95.01926">
<time>2016-10-08T00:42:29Z</time></trkpt>
<trkpt lat="30.043045" lon="95.01921">
<time>2016-10-08T00:42:30Z</time></trkpt>
<trkpt lat="30.043056" lon="95.019161">
<time>2016-10-08T00:42:31Z</time></trkpt>
<trkpt lat="30.043066" lon="95.019111">
<time>2016-10-08T00:42:32Z</time></trkpt>
<trkpt lat="30.043076" lon="95.019041">
<time>2016-10-08T00:42:33Z</time></trkpt>
<trkpt lat="30.043086" lon="95.018991">
<time>2016-10-08T00:42:34Z</time></trkpt>
<trkpt lat="30.043086" lon="95.018951">
<time>2016-10-08T00:42:35Z</time></trkpt>
<trkpt lat="30.043096" lon="95.018901">
<time>2016-10-08T00:42:36Z</time></trkpt>
<trkpt lat="30.043096" lon="95.018862">
<time>2016-10-08T00:42:37Z</time></trkpt>
<trkpt lat="30.043097" lon="95.018802">
<time>2016-10-08T00:42:38Z</time></trkpt>
<trkpt lat="30.043107" lon="95.018762">
<time>2016-10-08T00:42:39Z</time></trkpt>
<trkpt lat="30.043117" lon="95.018692">
<time>2016-10-08T00:42:40Z</time></trkpt>
<trkpt lat="30.043127" lon="95.018652">
<time>2016-10-08T00:42:41Z</time></trkpt>
<trkpt lat="30.043137" lon="95.018603">
<time>2016-10-08T00:42:42Z</time></trkpt>
<trkpt lat="30.043147" lon="95.018563">
<time>2016-10-08T00:42:43Z</time></trkpt>
<trkpt lat="30.043157" lon="95.018543">
<time>2016-10-08T00:42:44Z</time></trkpt>
<trkpt lat="30.043157" lon="95.018523">
<time>2016-10-08T00:42:45Z</time></trkpt>
<trkpt lat="30.043168" lon="95.018463">
<time>2016-10-08T00:42:46Z</time></trkpt>
<trkpt lat="30.043178" lon="95.018423">
<time>2016-10-08T00:42:47Z</time></trkpt>
<trkpt lat="30.043178" lon="95.018393">
<time>2016-10-08T00:42:48Z</time></trkpt>
<trkpt lat="30.043188" lon="95.018323">
<time>2016-10-08T00:42:49Z</time></trkpt>
<trkpt lat="30.043198" lon="95.018274">
<time>2016-10-08T00:42:50Z</time></trkpt>
<trkpt lat="30.043198" lon="95.018254">
<time>2016-10-08T00:42:51Z</time></trkpt>
<trkpt lat="30.043208" lon="95.018234">
<time>2016-10-08T00:42:52Z</time></trkpt>
<trkpt lat="30.043248" lon="95.018194">
<time>2016-10-08T00:42:53Z</time></trkpt>
<trkpt lat="30.043268" lon="95.018164">
<time>2016-10-08T00:42:54Z</time></trkpt>
<trkpt lat="30.043319" lon="95.018134">
<time>2016-10-08T00:42:55Z</time></trkpt>
<trkpt lat="30.043359" lon="95.018084">
<time>2016-10-08T00:42:56Z</time></trkpt>
<trkpt lat="30.043369" lon="95.018054">
<time>2016-10-08T00:42:57Z</time></trkpt>
<trkpt lat="30.043409" lon="95.017895">
<time>2016-10-08T00:42:58Z</time></trkpt>
<trkpt lat="30.04349" lon="95.017656">
<time>2016-10-08T00:42:59Z</time></trkpt>
<trkpt lat="30.04351" lon="95.017556">
<time>2016-10-08T00:43:00Z</time></trkpt>
<trkpt lat="30.043551" lon="95.017327">
<time>2016-10-08T00:43:01Z</time></trkpt>
<trkpt lat="30.043551" lon="95.017267">
<time>2016-10-08T00:43:02Z</time></trkpt>
<trkpt lat="30.043551" lon="95.017207">
<time>2016-10-08T00:43:03Z</time></trkpt>
<trkpt lat="30.043532" lon="95.017038">
<time>2016-10-08T00:43:04Z</time></trkpt>
<trkpt lat="30.043512" lon="95.016859">
<time>2016-10-08T00:43:05Z</time></trkpt>
<trkpt lat="30.043493" lon="95.016669">
<time>2016-10-08T00:43:06Z</time></trkpt>
<trkpt lat="30.043493" lon="95.01645">
<time>2016-10-08T00:43:07Z</time></trkpt>
<trkpt lat="30.043484" lon="95.016241">
<time>2016-10-08T00:43:08Z</time></trkpt>
<trkpt lat="30.043465" lon="95.016061">
<time>2016-10-08T00:43:09Z</time></trkpt>
<trkpt lat="30.043465" lon="95.015912">
<time>2016-10-08T00:43:10Z</time></trkpt>
<trkpt lat="30.043455" lon="95.015832">
<time>2016-10-08T00:43:11Z</time></trkpt>
<trkpt lat="30.043446" lon="95.015703">
<time>2016-10-08T00:43:12Z</time></trkpt>
<trkpt lat="30.043436" lon="95.015593">
<time>2016-10-08T00:43:13Z</time></trkpt>
<trkpt lat="30.043416" lon="95.015463">
<time>2016-10-08T00:43:14Z</time></trkpt>
<trkpt lat="30.043387" lon="95.015294">
<time>2016-10-08T00:43:15Z</time></trkpt>
<trkpt lat="30.043357" lon="95.015135">
<time>2016-10-08T00:43:16Z</time></trkpt>
<trkpt lat="30.043338" lon="95.014985">
<time>2016-10-08T00:43:17Z</time></trkpt>
<trkpt lat="30.043328" lon="95.014806">
<time>2016-10-08T00:43:18Z</time></trkpt>
<trkpt lat="30.043309" lon="95.014626">
<time>2016-10-08T00:43:19Z</time></trkpt>
<trkpt lat="30.043299" lon="95.014487">
<time>2016-10-08T00:43:20Z</time></trkpt>
<trkpt lat="30.0433" lon="95.014367">
<time>2016-10-08T00:43:21Z</time></trkpt>
<trkpt lat="30.04329" lon="95.014218">
<time>2016-10-08T00:43:22Z</time></trkpt>
<trkpt lat="30.04328" lon="95.014128">
<time>2016-10-08T00:43:23Z</time></trkpt>
<trkpt lat="30.04326" lon="95.014068">
<time>2016-10-08T00:43:24Z</time></trkpt>
<trkpt lat="30.043241" lon="95.014009">
<time>2016-10-08T00:43:25Z</time></trkpt>
<trkpt lat="30.043221" lon="95.013929">
<time>2016-10-08T00:43:26Z</time></trkpt>
<trkpt lat="30.043201" lon="95.013859">
<time>2016-10-08T00:43:27Z</time></trkpt>
<trkpt lat="30.043181" lon="95.013779">
<time>2016-10-08T00:43:28Z</time></trkpt>
<trkpt lat="30.043152" lon="95.01367">
<time>2016-10-08T00:43:29Z</time></trkpt>
<trkpt lat="30.043132" lon="95.01357">
<time>2016-10-08T00:43:30Z</time></trkpt>
<trkpt lat="30.043112" lon="95.01347">
<time>2016-10-08T00:43:31Z</time></trkpt>
<trkpt lat="30.043102" lon="95.013361">
<time>2016-10-08T00:43:32Z</time></trkpt>
<trkpt lat="30.043103" lon="95.013251">
<time>2016-10-08T00:43:33Z</time></trkpt>
<trkpt lat="30.043093" lon="95.013152">
<time>2016-10-08T00:43:34Z</time></trkpt>
<trkpt lat="30.043103" lon="95.013092">
<time>2016-10-08T00:43:35Z</time></trkpt>
<trkpt lat="30.043113" lon="95.013022">
<time>2016-10-08T00:43:36Z</time></trkpt>
<trkpt lat="30.043124" lon="95.012942">
<time>2016-10-08T00:43:37Z</time></trkpt>
<trkpt lat="30.043144" lon="95.012883">
<time>2016-10-08T00:43:38Z</time></trkpt>
<trkpt lat="30.043174" lon="95.012823">
<time>2016-10-08T00:43:39Z</time></trkpt>
<trkpt lat="30.043204" lon="95.012753">
<time>2016-10-08T00:43:40Z</time></trkpt>
<trkpt lat="30.043245" lon="95.012673">
<time>2016-10-08T00:43:41Z</time></trkpt>
<trkpt lat="30.043275" lon="95.012603">
<time>2016-10-08T00:43:42Z</time></trkpt>
<trkpt lat="30.043335" lon="95.012514">
<time>2016-10-08T00:43:43Z</time></trkpt>
<trkpt lat="30.043395" lon="95.012434">
<time>2016-10-08T00:43:44Z</time></trkpt>
<trkpt lat="30.043496" lon="95.012295">
<time>2016-10-08T00:43:45Z</time></trkpt>
<trkpt lat="30.043536" lon="95.012235">
<time>2016-10-08T00:43:46Z</time></trkpt>
<trkpt lat="30.043546" lon="95.012205">
<time>2016-10-08T00:43:47Z</time></trkpt>
<trkpt lat="30.043546" lon="95.012175">
<time>2016-10-08T00:43:48Z</time></trkpt>
<trkpt lat="30.043546" lon="95.012145">
<time>2016-10-08T00:43:49Z</time></trkpt>
<trkpt lat="30.043536" lon="95.012115">
<time>2016-10-08T00:43:50Z</time></trkpt>
<trkpt lat="30.043516" lon="95.012105">
<time>2016-10-08T00:43:51Z</time></trkpt>
<trkpt lat="30.043506" lon="95.012095">
<time>2016-10-08T00:43:52Z</time></trkpt>
<trkpt lat="30.043476" lon="95.012095">
<time>2016-10-08T00:43:53Z</time></trkpt>
<trkpt lat="30.043456" lon="95.012105">
<time>2016-10-08T00:43:54Z</time></trkpt>
<trkpt lat="30.043436" lon="95.012125">
<time>2016-10-08T00:43:55Z</time></trkpt>
<trkpt lat="30.043406" lon="95.012145">
<time>2016-10-08T00:43:56Z</time></trkpt>
<trkpt lat="30.043386" lon="95.012175">
<time>2016-10-08T00:43:57Z</time></trkpt>
<trkpt lat="30.043346" lon="95.012225">
<time>2016-10-08T00:43:58Z</time></trkpt>
<trkpt lat="30.043336" lon="95.012255">
<time>2016-10-08T00:43:59Z</time></trkpt>
<trkpt lat="30.043276" lon="95.012334">
<time>2016-10-08T00:44:00Z</time></trkpt>
<trkpt lat="30.043235" lon="95.012384">
<time>2016-10-08T00:44:01Z</time></trkpt>
<trkpt lat="30.043185" lon="95.012444">
<time>2016-10-08T00:44:02Z</time></trkpt>
<trkpt lat="30.043135" lon="95.012484">
<time>2016-10-08T00:44:03Z</time></trkpt>
<trkpt lat="30.043095" lon="95.012524">
<time>2016-10-08T00:44:04Z</time></trkpt>
<trkpt lat="30.043055" lon="95.012564">
<time>2016-10-08T00:44:05Z</time></trkpt>
<trkpt lat="30.043005" lon="95.012594">
<time>2016-10-08T00:44:06Z</time></trkpt>
<trkpt lat="30.042955" lon="95.012633">
<time>2016-10-08T00:44:07Z</time></trkpt>
<trkpt lat="30.042914" lon="95.012683">
<time>2016-10-08T00:44:08Z</time></trkpt>
<trkpt lat="30.042894" lon="95.012713">
<time>2016-10-08T00:44:09Z</time></trkpt>
<trkpt lat="30.042864" lon="95.012753">
<time>2016-10-08T00:44:10Z</time></trkpt>
<trkpt lat="30.042844" lon="95.012783">
<time>2016-10-08T00:44:11Z</time></trkpt>
<trkpt lat="30.042834" lon="95.012803">
<time>2016-10-08T00:44:12Z</time></trkpt>
<trkpt lat="30.042834" lon="95.012813">
<time>2016-10-08T00:44:13Z</time></trkpt>
<trkpt lat="30.042824" lon="95.012823">
<time>2016-10-08T00:44:14Z</time></trkpt>
<trkpt lat="30.042804" lon="95.012823">
<time>2016-10-08T00:44:15Z</time></trkpt>
<trkpt lat="30.042794" lon="95.012823">
<time>2016-10-08T00:44:16Z</time></trkpt>
<trkpt lat="30.042784" lon="95.012823">
<time>2016-10-08T00:44:17Z</time></trkpt>
<trkpt lat="30.042764" lon="95.012813">
<time>2016-10-08T00:44:18Z</time></trkpt>
<trkpt lat="30.042754" lon="95.012793">
<time>2016-10-08T00:44:19Z</time></trkpt>
<trkpt lat="30.042744" lon="95.012783">
<time>2016-10-08T00:44:20Z</time></trkpt>
<trkpt lat="30.042744" lon="95.012743">
<time>2016-10-08T00:44:21Z</time></trkpt>
<trkpt lat="30.042754" lon="95.012703">
<time>2016-10-08T00:44:22Z</time></trkpt>
<trkpt lat="30.042775" lon="95.012643">
<time>2016-10-08T00:44:23Z</time></trkpt>
<trkpt lat="30.042895" lon="95.012424">
<time>2016-10-08T00:44:24Z</time></trkpt>
<trkpt lat="30.042966" lon="95.012315">
<time>2016-10-08T00:44:25Z</time></trkpt>
<trkpt lat="30.043086" lon="95.012155">
<time>2016-10-08T00:44:26Z</time></trkpt>
<trkpt lat="30.043186" lon="95.012026">
<time>2016-10-08T00:44:27Z</time></trkpt>
<trkpt lat="30.043237" lon="95.011956">
<time>2016-10-08T00:44:28Z</time></trkpt>
<trkpt lat="30.043287" lon="95.011906">
<time>2016-10-08T00:44:29Z</time></trkpt>
<trkpt lat="30.043327" lon="95.011876">
<time>2016-10-08T00:44:30Z</time></trkpt>
<trkpt lat="30.043357" lon="95.011836">
<time>2016-10-08T00:44:31Z</time></trkpt>
<trkpt lat="30.043377" lon="95.011816">
<time>2016-10-08T00:44:32Z</time></trkpt>
<trkpt lat="30.043387" lon="95.011786">
<time>2016-10-08T00:44:33Z</time></trkpt>
<trkpt lat="30.043397" lon="95.011757">
<time>2016-10-08T00:44:34Z</time></trkpt>
<trkpt lat="30.043397" lon="95.011717">
<time>2016-10-08T00:44:35Z</time></trkpt>
<trkpt lat="30.043398" lon="95.011637">
<time>2016-10-08T00:44:36Z</time></trkpt>
<trkpt lat="30.043398" lon="95.011567">
<time>2016-10-08T00:44:37Z</time></trkpt>
<trkpt lat="30.043398" lon="95.011418">
<time>2016-10-08T00:44:38Z</time></trkpt>
<trkpt lat="30.043398" lon="95.011358">
<time>2016-10-08T00:44:39Z</time></trkpt>
<trkpt lat="30.043399" lon="95.011318">
<time>2016-10-08T00:44:40Z</time></trkpt>
<trkpt lat="30.043399" lon="95.011288">
<time>2016-10-08T00:44:41Z</time></trkpt>
<trkpt lat="30.043389" lon="95.011248">
<time>2016-10-08T00:44:42Z</time></trkpt>
<trkpt lat="30.043379" lon="95.011228">
<time>2016-10-08T00:44:43Z</time></trkpt>
<trkpt lat="30.043359" lon="95.011198">
<time>2016-10-08T00:44:44Z</time></trkpt>
<trkpt lat="30.043339" lon="95.011179">
<time>2016-10-08T00:44:45Z</time></trkpt>
<trkpt lat="30.043319" lon="95.011169">
<time>2016-10-08T00:44:46Z</time></trkpt>
<trkpt lat="30.043289" lon="95.011159">
<time>2016-10-08T00:44:47Z</time></trkpt>
<trkpt lat="30.043259" lon="95.011149">
<time>2016-10-08T00:44:48Z</time></trkpt>
<trkpt lat="30.043219" lon="95.011149">
<time>2016-10-08T00:44:49Z</time></trkpt>
<trkpt lat="30.043189" lon="95.011149">
<time>2016-10-08T00:44:50Z</time></trkpt>
<trkpt lat="30.043159" lon="95.011159">
<time>2016-10-08T00:44:51Z</time></trkpt>
<trkpt lat="30.043109" lon="95.011179">
<time>2016-10-08T00:44:52Z</time></trkpt>
<trkpt lat="30.043059" lon="95.011198">
<time>2016-10-08T00:44:53Z</time></trkpt>
<trkpt lat="30.042929" lon="95.011268">
<time>2016-10-08T00:44:54Z</time></trkpt>
<trkpt lat="30.042748" lon="95.011368">
<time>2016-10-08T00:44:55Z</time></trkpt>
<trkpt lat="30.042618" lon="95.011438">
<time>2016-10-08T00:44:56Z</time></trkpt>
<trkpt lat="30.042508" lon="95.011487">
<time>2016-10-08T00:44:57Z</time></trkpt>
<trkpt lat="30.042398" lon="95.011537">
<time>2016-10-08T00:44:58Z</time></trkpt>
<trkpt lat="30.042288" lon="95.011587">
<time>2016-10-08T00:44:59Z</time></trkpt>
<trkpt lat="30.042218" lon="95.011627">
<time>2016-10-08T00:45:00Z</time></trkpt>
<trkpt lat="30.042138" lon="95.011667">
<time>2016-10-08T00:45:01Z</time></trkpt>
<trkpt lat="30.042057" lon="95.011717">
<time>2016-10-08T00:45:02Z</time></trkpt>
<trkpt lat="30.041937" lon="95.011766">
<time>2016-10-08T00:45:03Z</time></trkpt>
<trkpt lat="30.041847" lon="95.011796">
<time>2016-10-08T00:45:04Z</time></trkpt>
<trkpt lat="30.041777" lon="95.011816">
<time>2016-10-08T00:45:05Z</time></trkpt>
<trkpt lat="30.041707" lon="95.011826">
<time>2016-10-08T00:45:06Z</time></trkpt>
<trkpt lat="30.041637" lon="95.011836">
<time>2016-10-08T00:45:07Z</time></trkpt>
<trkpt lat="30.041577" lon="95.011836">
<time>2016-10-08T00:45:08Z</time></trkpt>
<trkpt lat="30.041527" lon="95.011826">
<time>2016-10-08T00:45:09Z</time></trkpt>
<trkpt lat="30.041487" lon="95.011816">
<time>2016-10-08T00:45:10Z</time></trkpt>
<trkpt lat="30.041487" lon="95.011806">
<time>2016-10-08T00:45:11Z</time></trkpt>
<trkpt lat="30.041457" lon="95.011796">
<time>2016-10-08T00:45:12Z</time></trkpt>
<trkpt lat="30.041407" lon="95.011747">
<time>2016-10-08T00:45:13Z</time></trkpt>
<trkpt lat="30.041288" lon="95.011637">
<time>2016-10-08T00:45:14Z</time></trkpt>
<trkpt lat="30.041218" lon="95.011567">
<time>2016-10-08T00:45:15Z</time></trkpt>
<trkpt lat="30.041158" lon="95.011517">
<time>2016-10-08T00:45:16Z</time></trkpt>
<trkpt lat="30.041128" lon="95.011488">
<time>2016-10-08T00:45:17Z</time></trkpt>
<trkpt lat="30.041098" lon="95.011468">
<time>2016-10-08T00:45:18Z</time></trkpt>
<trkpt lat="30.041068" lon="95.011448">
<time>2016-10-08T00:45:19Z</time></trkpt>
<trkpt lat="30.041038" lon="95.011428">
<time>2016-10-08T00:45:20Z</time></trkpt>
<trkpt lat="30.040978" lon="95.011398">
<time>2016-10-08T00:45:21Z</time></trkpt>
<trkpt lat="30.040878" lon="95.011348">
<time>2016-10-08T00:45:22Z</time></trkpt>
<trkpt lat="30.040799" lon="95.011308">
<time>2016-10-08T00:45:23Z</time></trkpt>
<trkpt lat="30.040699" lon="95.011238">
<time>2016-10-08T00:45:24Z</time></trkpt>
<trkpt lat="30.040639" lon="95.011199">
<time>2016-10-08T00:45:25Z</time></trkpt>
<trkpt lat="30.040609" lon="95.011169">
<time>2016-10-08T00:45:26Z</time></trkpt>
<trkpt lat="30.040579" lon="95.011139">
<time>2016-10-08T00:45:27Z</time></trkpt>
<trkpt lat="30.040539" lon="95.011099">
<time>2016-10-08T00:45:28Z</time></trkpt>
<trkpt lat="30.040499" lon="95.011059">
<time>2016-10-08T00:45:29Z</time></trkpt>
<trkpt lat="30.040459" lon="95.011009">
<time>2016-10-08T00:45:30Z</time></trkpt>
<trkpt lat="30.04043" lon="95.010979">
<time>2016-10-08T00:45:31Z</time></trkpt>
<trkpt lat="30.04039" lon="95.010939">
<time>2016-10-08T00:45:32Z</time></trkpt>
<trkpt lat="30.04035" lon="95.0109">
<time>2016-10-08T00:45:33Z</time></trkpt>
<trkpt lat="30.04032" lon="95.01087">
<time>2016-10-08T00:45:34Z</time></trkpt>
<trkpt lat="30.0403" lon="95.01083">
<time>2016-10-08T00:45:35Z</time></trkpt>
<trkpt lat="30.04028" lon="95.01081">
<time>2016-10-08T00:45:36Z</time></trkpt>
<trkpt lat="30.04027" lon="95.01079">
<time>2016-10-08T00:45:37Z</time></trkpt>
<trkpt lat="30.04026" lon="95.01078">
<time>2016-10-08T00:45:38Z</time></trkpt>
<trkpt lat="30.04024" lon="95.01077">
<time>2016-10-08T00:45:39Z</time></trkpt>
<trkpt lat="30.04023" lon="95.01076">
<time>2016-10-08T00:45:40Z</time></trkpt>
<trkpt lat="30.04018" lon="95.01073">
<time>2016-10-08T00:45:41Z</time></trkpt>
<trkpt lat="30.04007" lon="95.01067">
<time>2016-10-08T00:45:42Z</time></trkpt>
<trkpt lat="30.039991" lon="95.010641">
<time>2016-10-08T00:45:43Z</time></trkpt>
<trkpt lat="30.039931" lon="95.010611">
<time>2016-10-08T00:45:44Z</time></trkpt>
<trkpt lat="30.039871" lon="95.010581">
<time>2016-10-08T00:45:45Z</time></trkpt>
<trkpt lat="30.039821" lon="95.010571">
<time>2016-10-08T00:45:46Z</time></trkpt>
<trkpt lat="30.039781" lon="95.010571">
<time>2016-10-08T00:45:47Z</time></trkpt>
<trkpt lat="30.039741" lon="95.010571">
<time>2016-10-08T00:45:48Z</time></trkpt>
<trkpt lat="30.039681" lon="95.010591">
<time>2016-10-08T00:45:49Z</time></trkpt>
<trkpt lat="30.039641" lon="95.010601">
<time>2016-10-08T00:45:50Z</time></trkpt>
<trkpt lat="30.039581" lon="95.010621">
<time>2016-10-08T00:45:51Z</time></trkpt>
<trkpt lat="30.03952" lon="95.010651">
<time>2016-10-08T00:45:52Z</time></trkpt>
<trkpt lat="30.03948" lon="95.01066">
<time>2016-10-08T00:45:53Z</time></trkpt>
<trkpt lat="30.03943" lon="95.01067">
<time>2016-10-08T00:45:54Z</time></trkpt>
<trkpt lat="30.03938" lon="95.01068">
<time>2016-10-08T00:45:55Z</time></trkpt>
<trkpt lat="30.03933" lon="95.01069">
<time>2016-10-08T00:45:56Z</time></trkpt>
<trkpt lat="30.03928" lon="95.0107">
<time>2016-10-08T00:45:57Z</time></trkpt>
<trkpt lat="30.03923" lon="95.01072">
<time>2016-10-08T00:45:58Z</time></trkpt>
<trkpt lat="30.03919" lon="95.01075">
<time>2016-10-08T00:45:59Z</time></trkpt>
<trkpt lat="30.03914" lon="95.01078">
<time>2016-10-08T00:46:00Z</time></trkpt>
<trkpt lat="30.0391" lon="95.01081">
<time>2016-10-08T00:46:01Z</time></trkpt>
<trkpt lat="30.03901" lon="95.01087">
<time>2016-10-08T00:46:02Z</time></trkpt>
<trkpt lat="30.038759" lon="95.011039">
<time>2016-10-08T00:46:03Z</time></trkpt>
<trkpt lat="30.038609" lon="95.011139">
<time>2016-10-08T00:46:04Z</time></trkpt>
<trkpt lat="30.038489" lon="95.011238">
<time>2016-10-08T00:46:05Z</time></trkpt>
<trkpt lat="30.038459" lon="95.011278">
<time>2016-10-08T00:46:06Z</time></trkpt>
<trkpt lat="30.038418" lon="95.011318">
<time>2016-10-08T00:46:07Z</time></trkpt>
<trkpt lat="30.038388" lon="95.011338">
<time>2016-10-08T00:46:08Z</time></trkpt>
<trkpt lat="30.038348" lon="95.011378">
<time>2016-10-08T00:46:09Z</time></trkpt>
<trkpt lat="30.038298" lon="95.011408">
<time>2016-10-08T00:46:10Z</time></trkpt>
<trkpt lat="30.038268" lon="95.011428">
<time>2016-10-08T00:46:11Z</time></trkpt>
<trkpt lat="30.038218" lon="95.011438">
<time>2016-10-08T00:46:12Z</time></trkpt>
<trkpt lat="30.038158" lon="95.011428">
<time>2016-10-08T00:46:13Z</time></trkpt>
<trkpt lat="30.038098" lon="95.011418">
<time>2016-10-08T00:46:14Z</time></trkpt>
<trkpt lat="30.038028" lon="95.011408">
<time>2016-10-08T00:46:15Z</time></trkpt>
<trkpt lat="30.037968" lon="95.011398">
<time>2016-10-08T00:46:16Z</time></trkpt>
<trkpt lat="30.037908" lon="95.011388">
<time>2016-10-08T00:46:17Z</time></trkpt>
<trkpt lat="30.037838" lon="95.011378">
<time>2016-10-08T00:46:18Z</time></trkpt>
<trkpt lat="30.037758" lon="95.011378">
<time>2016-10-08T00:46:19Z</time></trkpt>
<trkpt lat="30.037708" lon="95.011398">
<time>2016-10-08T00:46:20Z</time></trkpt>
<trkpt lat="30.037618" lon="95.011418">
<time>2016-10-08T00:46:21Z</time></trkpt>
<trkpt lat="30.037568" lon="95.011448">
<time>2016-10-08T00:46:22Z</time></trkpt>
<trkpt lat="30.037508" lon="95.011488">
<time>2016-10-08T00:46:23Z</time></trkpt>
<trkpt lat="30.037438" lon="95.011547">
<time>2016-10-08T00:46:24Z</time></trkpt>
<trkpt lat="30.037388" lon="95.011587">
<time>2016-10-08T00:46:25Z</time></trkpt>
<trkpt lat="30.037257" lon="95.011677">
<time>2016-10-08T00:46:26Z</time></trkpt>
<trkpt lat="30.037117" lon="95.011767">
<time>2016-10-08T00:46:27Z</time></trkpt>
<trkpt lat="30.036997" lon="95.011836">
<time>2016-10-08T00:46:28Z</time></trkpt>
<trkpt lat="30.036887" lon="95.011886">
<time>2016-10-08T00:46:29Z</time></trkpt>
<trkpt lat="30.036807" lon="95.011926">
<time>2016-10-08T00:46:30Z</time></trkpt>
<trkpt lat="30.036697" lon="95.011956">
<time>2016-10-08T00:46:31Z</time></trkpt>
<trkpt lat="30.036626" lon="95.011986">
<time>2016-10-08T00:46:32Z</time></trkpt>
<trkpt lat="30.036536" lon="95.012006">
<time>2016-10-08T00:46:33Z</time></trkpt>
<trkpt lat="30.036466" lon="95.012016">
<time>2016-10-08T00:46:34Z</time></trkpt>
<trkpt lat="30.036356" lon="95.012046">
<time>2016-10-08T00:46:35Z</time></trkpt>
<trkpt lat="30.036276" lon="95.012066">
<time>2016-10-08T00:46:36Z</time></trkpt>
<trkpt lat="30.036196" lon="95.012076">
<time>2016-10-08T00:46:37Z</time></trkpt>
<trkpt lat="30.036116" lon="95.012085">
<time>2016-10-08T00:46:38Z</time></trkpt>
<trkpt lat="30.035966" lon="95.012085">
<time>2016-10-08T00:46:39Z</time></trkpt>
<trkpt lat="30.035916" lon="95.012095">
<time>2016-10-08T00:46:40Z</time></trkpt>
<trkpt lat="30.035876" lon="95.012105">
<time>2016-10-08T00:46:41Z</time></trkpt>
<trkpt lat="30.035806" lon="95.012115">
<time>2016-10-08T00:46:42Z</time></trkpt>
<trkpt lat="30.035746" lon="95.012145">
<time>2016-10-08T00:46:43Z</time></trkpt>
<trkpt lat="30.035636" lon="95.012205">
<time>2016-10-08T00:46:44Z</time></trkpt>
<trkpt lat="30.035526" lon="95.012285">
<time>2016-10-08T00:46:45Z</time></trkpt>
<trkpt lat="30.035455" lon="95.012325">
<time>2016-10-08T00:46:46Z</time></trkpt>
<trkpt lat="30.035355" lon="95.012384">
<time>2016-10-08T00:46:47Z</time></trkpt>
<trkpt lat="30.035285" lon="95.012404">
<time>2016-10-08T00:46:48Z</time></trkpt>
<trkpt lat="30.035195" lon="95.012434">
<time>2016-10-08T00:46:49Z</time></trkpt>
<trkpt lat="30.035015" lon="95.012484">
<time>2016-10-08T00:46:50Z</time></trkpt>
<trkpt lat="30.034845" lon="95.012514">
<time>2016-10-08T00:46:51Z</time></trkpt>
<trkpt lat="30.034725" lon="95.012534">
<time>2016-10-08T00:46:52Z</time></trkpt>
<trkpt lat="30.034645" lon="95.012554">
<time>2016-10-08T00:46:53Z</time></trkpt>
<trkpt lat="30.034535" lon="95.012564">
<time>2016-10-08T00:46:54Z</time></trkpt>
<trkpt lat="30.034455" lon="95.012564">
<time>2016-10-08T00:46:55Z</time></trkpt>
<trkpt lat="30.034325" lon="95.012574">
<time>2016-10-08T00:46:56Z</time></trkpt>
<trkpt lat="30.034245" lon="95.012584">
<time>2016-10-08T00:46:57Z</time></trkpt>
<trkpt lat="30.034015" lon="95.012614">
<time>2016-10-08T00:46:58Z</time></trkpt>
<trkpt lat="30.033834" lon="95.012644">
<time>2016-10-08T00:46:59Z</time></trkpt>
<trkpt lat="30.033704" lon="95.012673">
<time>2016-10-08T00:47:00Z</time></trkpt>
<trkpt lat="30.033614" lon="95.012703">
<time>2016-10-08T00:47:01Z</time></trkpt>
<trkpt lat="30.033504" lon="95.012753">
<time>2016-10-08T00:47:02Z</time></trkpt>
<trkpt lat="30.033344" lon="95.012833">
<time>2016-10-08T00:47:03Z</time></trkpt>
<trkpt lat="30.032983" lon="95.013032">
<time>2016-10-08T00:47:04Z</time></trkpt>
<trkpt lat="30.032823" lon="95.013122">
<time>2016-10-08T00:47:05Z</time></trkpt>
<trkpt lat="30.032753" lon="95.013142">
<time>2016-10-08T00:47:06Z</time></trkpt>
<trkpt lat="30.032683" lon="95.013172">
<time>2016-10-08T00:47:07Z</time></trkpt>
<trkpt lat="30.032613" lon="95.013212">
<time>2016-10-08T00:47:08Z</time></trkpt>
<trkpt lat="30.032563" lon="95.013241">
<time>2016-10-08T00:47:09Z</time></trkpt>
<trkpt lat="30.032523" lon="95.013281">
<time>2016-10-08T00:47:10Z</time></trkpt>
<trkpt lat="30.032462" lon="95.013331">
<time>2016-10-08T00:47:11Z</time></trkpt>
<trkpt lat="30.032402" lon="95.013391">
<time>2016-10-08T00:47:12Z</time></trkpt>
<trkpt lat="30.032362" lon="95.013451">
<time>2016-10-08T00:47:13Z</time></trkpt>
<trkpt lat="30.032322" lon="95.013501">
<time>2016-10-08T00:47:14Z</time></trkpt>
<trkpt lat="30.032292" lon="95.01355">
<time>2016-10-08T00:47:15Z</time></trkpt>
<trkpt lat="30.032262" lon="95.01361">
<time>2016-10-08T00:47:16Z</time></trkpt>
<trkpt lat="30.032221" lon="95.01367">
<time>2016-10-08T00:47:17Z</time></trkpt>
<trkpt lat="30.032131" lon="95.01374">
<time>2016-10-08T00:47:18Z</time></trkpt>
<trkpt lat="30.032021" lon="95.013839">
<time>2016-10-08T00:47:19Z</time></trkpt>
<trkpt lat="30.031891" lon="95.013929">
<time>2016-10-08T00:47:20Z</time></trkpt>
<trkpt lat="30.03174" lon="95.013999">
<time>2016-10-08T00:47:21Z</time></trkpt>
<trkpt lat="30.03154" lon="95.014079">
<time>2016-10-08T00:47:22Z</time></trkpt>
<trkpt lat="30.0314" lon="95.014138">
<time>2016-10-08T00:47:23Z</time></trkpt>
<trkpt lat="30.03125" lon="95.014228">
<time>2016-10-08T00:47:24Z</time></trkpt>
<trkpt lat="30.03114" lon="95.014298">
<time>2016-10-08T00:47:25Z</time></trkpt>
<trkpt lat="30.031029" lon="95.014348">
<time>2016-10-08T00:47:26Z</time></trkpt>
<trkpt lat="30.030949" lon="95.014377">
<time>2016-10-08T00:47:27Z</time></trkpt>
<trkpt lat="30.030889" lon="95.014397">
<time>2016-10-08T00:47:28Z</time></trkpt>
<trkpt lat="30.030799" lon="95.014417">
<time>2016-10-08T00:47:29Z</time></trkpt>
<trkpt lat="30.030689" lon="95.014427">
<time>2016-10-08T00:47:30Z</time></trkpt>
<trkpt lat="30.030629" lon="95.014447">
<time>2016-10-08T00:47:31Z</time></trkpt>
<trkpt lat="30.030569" lon="95.014457">
<time>2016-10-08T00:47:32Z</time></trkpt>
<trkpt lat="30.030469" lon="95.014487">
<time>2016-10-08T00:47:33Z</time></trkpt>
<trkpt lat="30.030409" lon="95.014507">
<time>2016-10-08T00:47:34Z</time></trkpt>
<trkpt lat="30.030359" lon="95.014527">
<time>2016-10-08T00:47:35Z</time></trkpt>
<trkpt lat="30.030309" lon="95.014557">
<time>2016-10-08T00:47:36Z</time></trkpt>
<trkpt lat="30.030259" lon="95.014587">
<time>2016-10-08T00:47:37Z</time></trkpt>
<trkpt lat="30.030219" lon="95.014617">
<time>2016-10-08T00:47:38Z</time></trkpt>
<trkpt lat="30.030158" lon="95.014647">
<time>2016-10-08T00:47:39Z</time></trkpt>
<trkpt lat="30.030118" lon="95.014666">
<time>2016-10-08T00:47:40Z</time></trkpt>
<trkpt lat="30.030058" lon="95.014676">
<time>2016-10-08T00:47:41Z</time></trkpt>
<trkpt lat="30.030018" lon="95.014686">
<time>2016-10-08T00:47:42Z</time></trkpt>
<trkpt lat="30.029948" lon="95.014706">
<time>2016-10-08T00:47:43Z</time></trkpt>
<trkpt lat="30.029868" lon="95.014736">
<time>2016-10-08T00:47:44Z</time></trkpt>
<trkpt lat="30.029818" lon="95.014756">
<time>2016-10-08T00:47:45Z</time></trkpt>
<trkpt lat="30.029768" lon="95.014786">
<time>2016-10-08T00:47:46Z</time></trkpt>
<trkpt lat="30.029728" lon="95.014816">
<time>2016-10-08T00:47:47Z</time></trkpt>
<trkpt lat="30.029678" lon="95.014846">
<time>2016-10-08T00:47:48Z</time></trkpt>
<trkpt lat="30.029648" lon="95.014876">
<time>2016-10-08T00:47:49Z</time></trkpt>
<trkpt lat="30.029608" lon="95.014926">
<time>2016-10-08T00:47:50Z</time></trkpt>
<trkpt lat="30.029557" lon="95.014995">
<time>2016-10-08T00:47:51Z</time></trkpt>
<trkpt lat="30.029517" lon="95.015055">
<time>2016-10-08T00:47:52Z</time></trkpt>
<trkpt lat="30.029477" lon="95.015115">
<time>2016-10-08T00:47:53Z</time></trkpt>
<trkpt lat="30.029447" lon="95.015175">
<time>2016-10-08T00:47:54Z</time></trkpt>
<trkpt lat="30.029397" lon="95.015244">
<time>2016-10-08T00:47:55Z</time></trkpt>
<trkpt lat="30.029347" lon="95.015294">
<time>2016-10-08T00:47:56Z</time></trkpt>
<trkpt lat="30.029296" lon="95.015334">
<time>2016-10-08T00:47:57Z</time></trkpt>
<trkpt lat="30.029256" lon="95.015354">
<time>2016-10-08T00:47:58Z</time></trkpt>
<trkpt lat="30.029206" lon="95.015384">
<time>2016-10-08T00:47:59Z</time></trkpt>
<trkpt lat="30.029156" lon="95.015394">
<time>2016-10-08T00:48:00Z</time></trkpt>
<trkpt lat="30.029106" lon="95.015404">
<time>2016-10-08T00:48:01Z</time></trkpt>
<trkpt lat="30.029056" lon="95.015424">
<time>2016-10-08T00:48:02Z</time></trkpt>
<trkpt lat="30.029016" lon="95.015444">
<time>2016-10-08T00:48:03Z</time></trkpt>
<trkpt lat="30.028936" lon="95.015504">
<time>2016-10-08T00:48:04Z</time></trkpt>
<trkpt lat="30.028806" lon="95.015593">
<time>2016-10-08T00:48:05Z</time></trkpt>
<trkpt lat="30.028726" lon="95.015643">
<time>2016-10-08T00:48:06Z</time></trkpt>
<trkpt lat="30.028665" lon="95.015673">
<time>2016-10-08T00:48:07Z</time></trkpt>
<trkpt lat="30.028615" lon="95.015703">
<time>2016-10-08T00:48:08Z</time></trkpt>
<trkpt lat="30.028575" lon="95.015723">
<time>2016-10-08T00:48:09Z</time></trkpt>
<trkpt lat="30.028535" lon="95.015723">
<time>2016-10-08T00:48:10Z</time></trkpt>
<trkpt lat="30.028495" lon="95.015733">
<time>2016-10-08T00:48:11Z</time></trkpt>
<trkpt lat="30.028455" lon="95.015733">
<time>2016-10-08T00:48:12Z</time></trkpt>
<trkpt lat="30.028425" lon="95.015723">
<time>2016-10-08T00:48:13Z</time></trkpt>
<trkpt lat="30.028395" lon="95.015713">
<time>2016-10-08T00:48:14Z</time></trkpt>
<trkpt lat="30.028375" lon="95.015703">
<time>2016-10-08T00:48:15Z</time></trkpt>
<trkpt lat="30.028355" lon="95.015683">
<time>2016-10-08T00:48:16Z</time></trkpt>
<trkpt lat="30.028325" lon="95.015663">
<time>2016-10-08T00:48:17Z</time></trkpt>
<trkpt lat="30.028306" lon="95.015633">
<time>2016-10-08T00:48:18Z</time></trkpt>
<trkpt lat="30.028276" lon="95.015613">
<time>2016-10-08T00:48:19Z</time></trkpt>
<trkpt lat="30.028246" lon="95.015573">
<time>2016-10-08T00:48:20Z</time></trkpt>
<trkpt lat="30.028196" lon="95.015524">
<time>2016-10-08T00:48:21Z</time></trkpt>
<trkpt lat="30.028146" lon="95.015484">
<time>2016-10-08T00:48:22Z</time></trkpt>
<trkpt lat="30.028106" lon="95.015454">
<time>2016-10-08T00:48:23Z</time></trkpt>
<trkpt lat="30.028076" lon="95.015444">
<time>2016-10-08T00:48:24Z</time></trkpt>
<trkpt lat="30.028036" lon="95.015434">
<time>2016-10-08T00:48:25Z</time></trkpt>
<trkpt lat="30.028006" lon="95.015424">
<time>2016-10-08T00:48:26Z</time></trkpt>
<trkpt lat="30.027966" lon="95.015434">
<time>2016-10-08T00:48:27Z</time></trkpt>
<trkpt lat="30.027926" lon="95.015454">
<time>2016-10-08T00:48:28Z</time></trkpt>
<trkpt lat="30.027896" lon="95.015464">
<time>2016-10-08T00:48:29Z</time></trkpt>
<trkpt lat="30.027856" lon="95.015484">
<time>2016-10-08T00:48:30Z</time></trkpt>
<trkpt lat="30.027806" lon="95.015504">
<time>2016-10-08T00:48:31Z</time></trkpt>
<trkpt lat="30.027766" lon="95.015494">
<time>2016-10-08T00:48:32Z</time></trkpt>
<trkpt lat="30.027706" lon="95.015494">
<time>2016-10-08T00:48:33Z</time></trkpt>
<trkpt lat="30.027676" lon="95.015494">
<time>2016-10-08T00:48:34Z</time></trkpt>
<trkpt lat="30.027636" lon="95.015494">
<time>2016-10-08T00:48:35Z</time></trkpt>
<trkpt lat="30.027596" lon="95.015504">
<time>2016-10-08T00:48:36Z</time></trkpt>
<trkpt lat="30.027566" lon="95.015524">
<time>2016-10-08T00:48:37Z</time></trkpt>
<trkpt lat="30.027526" lon="95.015553">
<time>2016-10-08T00:48:38Z</time></trkpt>
<trkpt lat="30.027486" lon="95.015573">
<time>2016-10-08T00:48:39Z</time></trkpt>
<trkpt lat="30.027436" lon="95.015583">
<time>2016-10-08T00:48:40Z</time></trkpt>
<trkpt lat="30.027396" lon="95.015593">
<time>2016-10-08T00:48:41Z</time></trkpt>
<trkpt lat="30.027356" lon="95.015593">
<time>2016-10-08T00:48:42Z</time></trkpt>
<trkpt lat="30.027326" lon="95.015583">
<time>2016-10-08T00:48:43Z</time></trkpt>
<trkpt lat="30.027296" lon="95.015573">
<time>2016-10-08T00:48:44Z</time></trkpt>
<trkpt lat="30.027266" lon="95.015553">
<time>2016-10-08T00:48:45Z</time></trkpt>
<trkpt lat="30.027246" lon="95.015534">
<time>2016-10-08T00:48:46Z</time></trkpt>
<trkpt lat="30.027226" lon="95.015494">
<time>2016-10-08T00:48:47Z</time></trkpt>
<trkpt lat="30.027196" lon="95.015424">
<time>2016-10-08T00:48:48Z</time></trkpt>
<trkpt lat="30.027176" lon="95.015344">
<time>2016-10-08T00:48:49Z</time></trkpt>
<trkpt lat="30.027157" lon="95.015254">
<time>2016-10-08T00:48:50Z</time></trkpt>
<trkpt lat="30.027157" lon="95.015155">
<time>2016-10-08T00:48:51Z</time></trkpt>
<trkpt lat="30.027148" lon="95.014936">
<time>2016-10-08T00:48:52Z</time></trkpt>
<trkpt lat="30.027148" lon="95.014746">
<time>2016-10-08T00:48:53Z</time></trkpt>
<trkpt lat="30.027159" lon="95.014557">
<time>2016-10-08T00:48:54Z</time></trkpt>
<trkpt lat="30.027169" lon="95.014368">
<time>2016-10-08T00:48:55Z</time></trkpt>
<trkpt lat="30.02718" lon="95.014218">
<time>2016-10-08T00:48:56Z</time></trkpt>
<trkpt lat="30.02718" lon="95.014109">
<time>2016-10-08T00:48:57Z</time></trkpt>
<trkpt lat="30.027191" lon="95.013839">
<time>2016-10-08T00:48:58Z</time></trkpt>
<trkpt lat="30.027181" lon="95.01367">
<time>2016-10-08T00:48:59Z</time></trkpt>
<trkpt lat="30.027162" lon="95.01356">
<time>2016-10-08T00:49:00Z</time></trkpt>
<trkpt lat="30.027152" lon="95.013471">
<time>2016-10-08T00:49:01Z</time></trkpt>
<trkpt lat="30.027132" lon="95.013301">
<time>2016-10-08T00:49:02Z</time></trkpt>
<trkpt lat="30.027113" lon="95.013172">
<time>2016-10-08T00:49:03Z</time></trkpt>
<trkpt lat="30.027093" lon="95.013052">
<time>2016-10-08T00:49:04Z</time></trkpt>
<trkpt lat="30.027073" lon="95.012943">
<time>2016-10-08T00:49:05Z</time></trkpt>
<trkpt lat="30.027054" lon="95.012873">
<time>2016-10-08T00:49:06Z</time></trkpt>
<trkpt lat="30.027034" lon="95.012803">
<time>2016-10-08T00:49:07Z</time></trkpt>
<trkpt lat="30.027014" lon="95.012743">
<time>2016-10-08T00:49:08Z</time></trkpt>
<trkpt lat="30.026984" lon="95.012684">
<time>2016-10-08T00:49:09Z</time></trkpt>
<trkpt lat="30.026954" lon="95.012604">
<time>2016-10-08T00:49:10Z</time></trkpt>
<trkpt lat="30.026925" lon="95.012534">
<time>2016-10-08T00:49:11Z</time></trkpt>
<trkpt lat="30.026895" lon="95.012444">
<time>2016-10-08T00:49:12Z</time></trkpt>
<trkpt lat="30.026865" lon="95.012375">
<time>2016-10-08T00:49:13Z</time></trkpt>
<trkpt lat="30.026845" lon="95.012305">
<time>2016-10-08T00:49:14Z</time></trkpt>
<trkpt lat="30.026826" lon="95.012255">
<time>2016-10-08T00:49:15Z</time></trkpt>
<trkpt lat="30.026806" lon="95.012195">
<time>2016-10-08T00:49:16Z</time></trkpt>
<trkpt lat="30.026746" lon="95.012086">
<time>2016-10-08T00:49:17Z</time></trkpt>
<trkpt lat="30.026656" lon="95.011936">
<time>2016-10-08T00:49:18Z</time></trkpt>
<trkpt lat="30.026567" lon="95.011797">
<time>2016-10-08T00:49:19Z</time></trkpt>
<trkpt lat="30.026487" lon="95.011677">
<time>2016-10-08T00:49:20Z</time></trkpt>
<trkpt lat="30.026418" lon="95.011587">
<time>2016-10-08T00:49:21Z</time></trkpt>
<trkpt lat="30.026318" lon="95.011468">
<time>2016-10-08T00:49:22Z</time></trkpt>
<trkpt lat="30.026218" lon="95.011378">
<time>2016-10-08T00:49:23Z</time></trkpt>
<trkpt lat="30.026138" lon="95.011308">
<time>2016-10-08T00:49:24Z</time></trkpt>
<trkpt lat="30.025979" lon="95.011209">
<time>2016-10-08T00:49:25Z</time></trkpt>
<trkpt lat="30.025829" lon="95.011109">
<time>2016-10-08T00:49:26Z</time></trkpt>
<trkpt lat="30.025769" lon="95.011069">
<time>2016-10-08T00:49:27Z</time></trkpt>
<trkpt lat="30.025719" lon="95.011039">
<time>2016-10-08T00:49:28Z</time></trkpt>
<trkpt lat="30.025669" lon="95.01101">
<time>2016-10-08T00:49:29Z</time></trkpt>
<trkpt lat="30.025599" lon="95.01098">
<time>2016-10-08T00:49:30Z</time></trkpt>
<trkpt lat="30.025549" lon="95.01097">
<time>2016-10-08T00:49:31Z</time></trkpt>
<trkpt lat="30.025509" lon="95.01095">
<time>2016-10-08T00:49:32Z</time></trkpt>
<trkpt lat="30.025409" lon="95.01092">
<time>2016-10-08T00:49:33Z</time></trkpt>
<trkpt lat="30.02533" lon="95.01087">
<time>2016-10-08T00:49:34Z</time></trkpt>
<trkpt lat="30.02524" lon="95.01083">
<time>2016-10-08T00:49:35Z</time></trkpt>
<trkpt lat="30.02518" lon="95.01079">
<time>2016-10-08T00:49:36Z</time></trkpt>
<trkpt lat="30.02514" lon="95.01076">
<time>2016-10-08T00:49:37Z</time></trkpt>
<trkpt lat="30.02509" lon="95.01074">
<time>2016-10-08T00:49:38Z</time></trkpt>
<trkpt lat="30.02506" lon="95.010731">
<time>2016-10-08T00:49:39Z</time></trkpt>
<trkpt lat="30.02501" lon="95.010721">
<time>2016-10-08T00:49:40Z</time></trkpt>
<trkpt lat="30.02498" lon="95.010721">
<time>2016-10-08T00:49:41Z</time></trkpt>
<trkpt lat="30.02494" lon="95.010721">
<time>2016-10-08T00:49:42Z</time></trkpt>
<trkpt lat="30.02489" lon="95.010721">
<time>2016-10-08T00:49:43Z</time></trkpt>
<trkpt lat="30.02485" lon="95.010731">
<time>2016-10-08T00:49:44Z</time></trkpt>
<trkpt lat="30.0248" lon="95.010741">
<time>2016-10-08T00:49:45Z</time></trkpt>
<trkpt lat="30.02475" lon="95.01075">
<time>2016-10-08T00:49:46Z</time></trkpt>
<trkpt lat="30.02469" lon="95.01077">
<time>2016-10-08T00:49:47Z</time></trkpt>
<trkpt lat="30.02464" lon="95.01079">
<time>2016-10-08T00:49:48Z</time></trkpt>
<trkpt lat="30.0246" lon="95.0108">
<time>2016-10-08T00:49:49Z</time></trkpt>
<trkpt lat="30.02456" lon="95.01081">
<time>2016-10-08T00:49:50Z</time></trkpt>
<trkpt lat="30.02452" lon="95.01082">
<time>2016-10-08T00:49:51Z</time></trkpt>
<trkpt lat="30.02447" lon="95.01082">
<time>2016-10-08T00:49:52Z</time></trkpt>
<trkpt lat="30.02444" lon="95.01081">
<time>2016-10-08T00:49:53Z</time></trkpt>
<trkpt lat="30.02441" lon="95.01078">
<time>2016-10-08T00:49:54Z</time></trkpt>
<trkpt lat="30.02438" lon="95.010731">
<time>2016-10-08T00:49:55Z</time></trkpt>
<trkpt lat="30.02434" lon="95.010681">
<time>2016-10-08T00:49:56Z</time></trkpt>
<trkpt lat="30.02431" lon="95.010621">
<time>2016-10-08T00:49:57Z</time></trkpt>
<trkpt lat="30.02429" lon="95.010581">
<time>2016-10-08T00:49:58Z</time></trkpt>
<trkpt lat="30.024271" lon="95.010531">
<time>2016-10-08T00:49:59Z</time></trkpt>
<trkpt lat="30.024231" lon="95.010462">
<time>2016-10-08T00:50:00Z</time></trkpt>
<trkpt lat="30.024151" lon="95.010372">
<time>2016-10-08T00:50:01Z</time></trkpt>
<trkpt lat="30.024091" lon="95.010302">
<time>2016-10-08T00:50:02Z</time></trkpt>
<trkpt lat="30.024012" lon="95.010222">
<time>2016-10-08T00:50:03Z</time></trkpt>
<trkpt lat="30.023962" lon="95.010153">
<time>2016-10-08T00:50:04Z</time></trkpt>
<trkpt lat="30.023922" lon="95.010093">
<time>2016-10-08T00:50:05Z</time></trkpt>
<trkpt lat="30.023872" lon="95.010033">
<time>2016-10-08T00:50:06Z</time></trkpt>
<trkpt lat="30.023832" lon="95.009973">
<time>2016-10-08T00:50:07Z</time></trkpt>
<trkpt lat="30.023763" lon="95.009874">
<time>2016-10-08T00:50:08Z</time></trkpt>
<trkpt lat="30.023723" lon="95.009784">
<time>2016-10-08T00:50:09Z</time></trkpt>
<trkpt lat="30.023683" lon="95.009704">
<time>2016-10-08T00:50:10Z</time></trkpt>
<trkpt lat="30.023663" lon="95.009625">
<time>2016-10-08T00:50:11Z</time></trkpt>
<trkpt lat="30.023644" lon="95.009545">
<time>2016-10-08T00:50:12Z</time></trkpt>
<trkpt lat="30.023644" lon="95.009475">
<time>2016-10-08T00:50:13Z</time></trkpt>
<trkpt lat="30.023654" lon="95.009375">
<time>2016-10-08T00:50:14Z</time></trkpt>
<trkpt lat="30.023664" lon="95.009286">
<time>2016-10-08T00:50:15Z</time></trkpt>
<trkpt lat="30.023675" lon="95.009216">
<time>2016-10-08T00:50:16Z</time></trkpt>
<trkpt lat="30.023705" lon="95.009086">
<time>2016-10-08T00:50:17Z</time></trkpt>
<trkpt lat="30.023755" lon="95.008927">
<time>2016-10-08T00:50:18Z</time></trkpt>
<trkpt lat="30.023876" lon="95.008598">
<time>2016-10-08T00:50:19Z</time></trkpt>
<trkpt lat="30.024007" lon="95.008249">
<time>2016-10-08T00:50:20Z</time></trkpt>
<trkpt lat="30.024058" lon="95.00807">
<time>2016-10-08T00:50:21Z</time></trkpt>
<trkpt lat="30.024099" lon="95.007871">
<time>2016-10-08T00:50:22Z</time></trkpt>
<trkpt lat="30.024119" lon="95.007751">
<time>2016-10-08T00:50:23Z</time></trkpt>
<trkpt lat="30.02414" lon="95.007492">
<time>2016-10-08T00:50:24Z</time></trkpt>
<trkpt lat="30.02414" lon="95.007353">
<time>2016-10-08T00:50:25Z</time></trkpt>
<trkpt lat="30.024131" lon="95.007203">
<time>2016-10-08T00:50:26Z</time></trkpt>
<trkpt lat="30.024111" lon="95.007024">
<time>2016-10-08T00:50:27Z</time></trkpt>
<trkpt lat="30.024072" lon="95.006775">
<time>2016-10-08T00:50:28Z</time></trkpt>
<trkpt lat="30.024013" lon="95.006565">
<time>2016-10-08T00:50:29Z</time></trkpt>
<trkpt lat="30.023953" lon="95.006426">
<time>2016-10-08T00:50:30Z</time></trkpt>
<trkpt lat="30.023893" lon="95.006296">
<time>2016-10-08T00:50:31Z</time></trkpt>
<trkpt lat="30.023794" lon="95.006107">
<time>2016-10-08T00:50:32Z</time></trkpt>
<trkpt lat="30.023724" lon="95.005978">
<time>2016-10-08T00:50:33Z</time></trkpt>
<trkpt lat="30.023665" lon="95.005898">
<time>2016-10-08T00:50:34Z</time></trkpt>
<trkpt lat="30.023585" lon="95.005788">
<time>2016-10-08T00:50:35Z</time></trkpt>
<trkpt lat="30.023505" lon="95.005709">
<time>2016-10-08T00:50:36Z</time></trkpt>
<trkpt lat="30.023425" lon="95.005629">
<time>2016-10-08T00:50:37Z</time></trkpt>
<trkpt lat="30.023286" lon="95.005499">
<time>2016-10-08T00:50:38Z</time></trkpt>
<trkpt lat="30.023176" lon="95.00541">
<time>2016-10-08T00:50:39Z</time></trkpt>
<trkpt lat="30.023056" lon="95.00533">
<time>2016-10-08T00:50:40Z</time></trkpt>
<trkpt lat="30.022897" lon="95.00523">
<time>2016-10-08T00:50:41Z</time></trkpt>
<trkpt lat="30.022837" lon="95.00519">
<time>2016-10-08T00:50:42Z</time></trkpt>
<trkpt lat="30.022787" lon="95.005161">
<time>2016-10-08T00:50:43Z</time></trkpt>
<trkpt lat="30.022707" lon="95.005131">
<time>2016-10-08T00:50:44Z</time></trkpt>
<trkpt lat="30.022597" lon="95.005081">
<time>2016-10-08T00:50:45Z</time></trkpt>
<trkpt lat="30.022467" lon="95.005021">
<time>2016-10-08T00:50:46Z</time></trkpt>
<trkpt lat="30.022237" lon="95.004931">
<time>2016-10-08T00:50:47Z</time></trkpt>
<trkpt lat="30.022078" lon="95.004862">
<time>2016-10-08T00:50:48Z</time></trkpt>
<trkpt lat="30.021758" lon="95.004722">
<time>2016-10-08T00:50:49Z</time></trkpt>
<trkpt lat="30.021628" lon="95.004662">
<time>2016-10-08T00:50:50Z</time></trkpt>
<trkpt lat="30.021439" lon="95.004583">
<time>2016-10-08T00:50:51Z</time></trkpt>
<trkpt lat="30.021309" lon="95.004513">
<time>2016-10-08T00:50:52Z</time></trkpt>
<trkpt lat="30.021159" lon="95.004423">
<time>2016-10-08T00:50:53Z</time></trkpt>
<trkpt lat="30.021009" lon="95.004314">
<time>2016-10-08T00:50:54Z</time></trkpt>
<trkpt lat="30.02088" lon="95.004224">
<time>2016-10-08T00:50:55Z</time></trkpt>
<trkpt lat="30.02074" lon="95.004104">
<time>2016-10-08T00:50:56Z</time></trkpt>
<trkpt lat="30.02062" lon="95.003995">
<time>2016-10-08T00:50:57Z</time></trkpt>
<trkpt lat="30.020531" lon="95.003895">
<time>2016-10-08T00:50:58Z</time></trkpt>
<trkpt lat="30.020431" lon="95.003776">
<time>2016-10-08T00:50:59Z</time></trkpt>
<trkpt lat="30.020351" lon="95.003646">
<time>2016-10-08T00:51:00Z</time></trkpt>
<trkpt lat="30.020242" lon="95.003407">
<time>2016-10-08T00:51:01Z</time></trkpt>
<trkpt lat="30.020143" lon="95.003198">
<time>2016-10-08T00:51:02Z</time></trkpt>
<trkpt lat="30.020063" lon="95.002989">
<time>2016-10-08T00:51:03Z</time></trkpt>
<trkpt lat="30.019795" lon="95.002381">
<time>2016-10-08T00:51:04Z</time></trkpt>
<trkpt lat="30.019597" lon="95.001942">
<time>2016-10-08T00:51:05Z</time></trkpt>
<trkpt lat="30.019507" lon="95.001733">
<time>2016-10-08T00:51:06Z</time></trkpt>
<trkpt lat="30.019418" lon="95.001534">
<time>2016-10-08T00:51:07Z</time></trkpt>
<trkpt lat="30.019299" lon="95.001275">
<time>2016-10-08T00:51:08Z</time></trkpt>
<trkpt lat="30.019189" lon="95.001016">
<time>2016-10-08T00:51:09Z</time></trkpt>
<trkpt lat="30.01914" lon="95.000896">
<time>2016-10-08T00:51:10Z</time></trkpt>
<trkpt lat="30.01911" lon="95.000796">
<time>2016-10-08T00:51:11Z</time></trkpt>
<trkpt lat="30.01909" lon="95.000707">
<time>2016-10-08T00:51:12Z</time></trkpt>
<trkpt lat="30.019091" lon="95.000617">
<time>2016-10-08T00:51:13Z</time></trkpt>
<trkpt lat="30.019091" lon="95.000468">
<time>2016-10-08T00:51:14Z</time></trkpt>
<trkpt lat="30.019101" lon="95.000378">
<time>2016-10-08T00:51:15Z</time></trkpt>
<trkpt lat="30.019112" lon="95.000278">
<time>2016-10-08T00:51:16Z</time></trkpt>
<trkpt lat="30.019152" lon="95.000139">
<time>2016-10-08T00:51:17Z</time></trkpt>
<trkpt lat="30.019192" lon="95.000039">
<time>2016-10-08T00:51:18Z</time></trkpt>
<trkpt lat="30.019253" lon="94.9999">
<time>2016-10-08T00:51:19Z</time></trkpt>
<trkpt lat="30.019323" lon="94.99972">
<time>2016-10-08T00:51:20Z</time></trkpt>
<trkpt lat="30.019374" lon="94.999581">
<time>2016-10-08T00:51:21Z</time></trkpt>
<trkpt lat="30.019434" lon="94.999352">
<time>2016-10-08T00:51:22Z</time></trkpt>
<trkpt lat="30.019485" lon="94.999063">
<time>2016-10-08T00:51:23Z</time></trkpt>
<trkpt lat="30.019526" lon="94.998784">
<time>2016-10-08T00:51:24Z</time></trkpt>
<trkpt lat="30.019577" lon="94.998415">
<time>2016-10-08T00:51:25Z</time></trkpt>
<trkpt lat="30.019598" lon="94.998286">
<time>2016-10-08T00:51:26Z</time></trkpt>
<trkpt lat="30.019598" lon="94.998196">
<time>2016-10-08T00:51:27Z</time></trkpt>
<trkpt lat="30.019608" lon="94.998116">
<time>2016-10-08T00:51:28Z</time></trkpt>
<trkpt lat="30.019618" lon="94.998037">
<time>2016-10-08T00:51:29Z</time></trkpt>
<trkpt lat="30.019639" lon="94.997957">
<time>2016-10-08T00:51:30Z</time></trkpt>
<trkpt lat="30.019689" lon="94.997857">
<time>2016-10-08T00:51:31Z</time></trkpt>
<trkpt lat="30.019729" lon="94.997767">
<time>2016-10-08T00:51:32Z</time></trkpt>
<trkpt lat="30.01977" lon="94.997678">
<time>2016-10-08T00:51:33Z</time></trkpt>
<trkpt lat="30.01978" lon="94.997608">
<time>2016-10-08T00:51:34Z</time></trkpt>
<trkpt lat="30.01978" lon="94.997538">
<time>2016-10-08T00:51:35Z</time></trkpt>
<trkpt lat="30.01979" lon="94.997449">
<time>2016-10-08T00:51:36Z</time></trkpt>
<trkpt lat="30.01979" lon="94.997389">
<time>2016-10-08T00:51:37Z</time></trkpt>
<trkpt lat="30.019781" lon="94.997349">
<time>2016-10-08T00:51:38Z</time></trkpt>
<trkpt lat="30.019771" lon="94.997319">
<time>2016-10-08T00:51:39Z</time></trkpt>
<trkpt lat="30.019761" lon="94.997289">
<time>2016-10-08T00:51:40Z</time></trkpt>
<trkpt lat="30.019741" lon="94.997259">
<time>2016-10-08T00:51:41Z</time></trkpt>
<trkpt lat="30.019731" lon="94.997229">
<time>2016-10-08T00:51:42Z</time></trkpt>
<trkpt lat="30.019711" lon="94.9972">
<time>2016-10-08T00:51:43Z</time></trkpt>
<trkpt lat="30.019691" lon="94.99717">
<time>2016-10-08T00:51:44Z</time></trkpt>
<trkpt lat="30.019671" lon="94.99713">
<time>2016-10-08T00:51:45Z</time></trkpt>
<trkpt lat="30.019651" lon="94.99706">
<time>2016-10-08T00:51:46Z</time></trkpt>
<trkpt lat="30.019602" lon="94.996891">
<time>2016-10-08T00:51:47Z</time></trkpt>
<trkpt lat="30.019542" lon="94.996711">
<time>2016-10-08T00:51:48Z</time></trkpt>
<trkpt lat="30.019463" lon="94.996542">
<time>2016-10-08T00:51:49Z</time></trkpt>
<trkpt lat="30.019433" lon="94.996482">
<time>2016-10-08T00:51:50Z</time></trkpt>
<trkpt lat="30.019383" lon="94.996402">
<time>2016-10-08T00:51:51Z</time></trkpt>
<trkpt lat="30.019294" lon="94.996293">
<time>2016-10-08T00:51:52Z</time></trkpt>
<trkpt lat="30.019164" lon="94.996183">
<time>2016-10-08T00:51:53Z</time></trkpt>
<trkpt lat="30.018984" lon="94.996054">
<time>2016-10-08T00:51:54Z</time></trkpt>
<trkpt lat="30.018885" lon="94.995984">
<time>2016-10-08T00:51:55Z</time></trkpt>
<trkpt lat="30.018765" lon="94.995884">
<time>2016-10-08T00:51:56Z</time></trkpt>
<trkpt lat="30.018595" lon="94.995745">
<time>2016-10-08T00:51:57Z</time></trkpt>
<trkpt lat="30.018276" lon="94.995466">
<time>2016-10-08T00:51:58Z</time></trkpt>
<trkpt lat="30.017887" lon="94.995107">
<time>2016-10-08T00:51:59Z</time></trkpt>
<trkpt lat="30.017608" lon="94.994868">
<time>2016-10-08T00:52:00Z</time></trkpt>
<trkpt lat="30.017359" lon="94.994679">
<time>2016-10-08T00:52:01Z</time></trkpt>
<trkpt lat="30.017069" lon="94.994509">
<time>2016-10-08T00:52:02Z</time></trkpt>
<trkpt lat="30.01676" lon="94.99435">
<time>2016-10-08T00:52:03Z</time></trkpt>
<trkpt lat="30.01641" lon="94.994151">
<time>2016-10-08T00:52:04Z</time></trkpt>
<trkpt lat="30.016101" lon="94.993971">
<time>2016-10-08T00:52:05Z</time></trkpt>
<trkpt lat="30.015741" lon="94.993762">
<time>2016-10-08T00:52:06Z</time></trkpt>
<trkpt lat="30.015512" lon="94.993593">
<time>2016-10-08T00:52:07Z</time></trkpt>
<trkpt lat="30.015372" lon="94.993483">
<time>2016-10-08T00:52:08Z</time></trkpt>
<trkpt lat="30.015262" lon="94.993403">
<time>2016-10-08T00:52:09Z</time></trkpt>
<trkpt lat="30.015173" lon="94.993324">
<time>2016-10-08T00:52:10Z</time></trkpt>
<trkpt lat="30.015063" lon="94.993234">
<time>2016-10-08T00:52:11Z</time></trkpt>
<trkpt lat="30.014963" lon="94.993124">
<time>2016-10-08T00:52:12Z</time></trkpt>
<trkpt lat="30.014874" lon="94.993015">
<time>2016-10-08T00:52:13Z</time></trkpt>
<trkpt lat="30.014764" lon="94.992905">
<time>2016-10-08T00:52:14Z</time></trkpt>
<trkpt lat="30.014525" lon="94.992626">
<time>2016-10-08T00:52:15Z</time></trkpt>
<trkpt lat="30.014345" lon="94.992417">
<time>2016-10-08T00:52:16Z</time></trkpt>
<trkpt lat="30.014136" lon="94.992168">
<time>2016-10-08T00:52:17Z</time></trkpt>
<trkpt lat="30.013987" lon="94.991999">
<time>2016-10-08T00:52:18Z</time></trkpt>
<trkpt lat="30.013877" lon="94.991879">
<time>2016-10-08T00:52:19Z</time></trkpt>
<trkpt lat="30.013797" lon="94.991799">
<time>2016-10-08T00:52:20Z</time></trkpt>
<trkpt lat="30.013698" lon="94.99171">
<time>2016-10-08T00:52:21Z</time></trkpt>
<trkpt lat="30.013588" lon="94.99165">
<time>2016-10-08T00:52:22Z</time></trkpt>
<trkpt lat="30.013498" lon="94.9916">
<time>2016-10-08T00:52:23Z</time></trkpt>
<trkpt lat="30.013328" lon="94.99154">
<time>2016-10-08T00:52:24Z</time></trkpt>
<trkpt lat="30.013118" lon="94.99149">
<time>2016-10-08T00:52:25Z</time></trkpt>
<trkpt lat="30.012908" lon="94.991441">
<time>2016-10-08T00:52:26Z</time></trkpt>
<trkpt lat="30.012808" lon="94.991421">
<time>2016-10-08T00:52:27Z</time></trkpt>
<trkpt lat="30.012778" lon="94.991401">
<time>2016-10-08T00:52:28Z</time></trkpt>
<trkpt lat="30.012739" lon="94.991391">
<time>2016-10-08T00:52:29Z</time></trkpt>
<trkpt lat="30.012699" lon="94.991371">
<time>2016-10-08T00:52:30Z</time></trkpt>
<trkpt lat="30.012659" lon="94.991351">
<time>2016-10-08T00:52:31Z</time></trkpt>
<trkpt lat="30.012619" lon="94.991321">
<time>2016-10-08T00:52:32Z</time></trkpt>
<trkpt lat="30.012559" lon="94.991271">
<time>2016-10-08T00:52:33Z</time></trkpt>
<trkpt lat="30.012479" lon="94.991201">
<time>2016-10-08T00:52:34Z</time></trkpt>
<trkpt lat="30.012359" lon="94.991082">
<time>2016-10-08T00:52:35Z</time></trkpt>
<trkpt lat="30.01227" lon="94.990992">
<time>2016-10-08T00:52:36Z</time></trkpt>
<trkpt lat="30.01214" lon="94.990863">
<time>2016-10-08T00:52:37Z</time></trkpt>
<trkpt lat="30.011951" lon="94.990673">
<time>2016-10-08T00:52:38Z</time></trkpt>
<trkpt lat="30.011851" lon="94.990594">
<time>2016-10-08T00:52:39Z</time></trkpt>
<trkpt lat="30.011751" lon="94.990484">
<time>2016-10-08T00:52:40Z</time></trkpt>
<trkpt lat="30.011701" lon="94.990444">
<time>2016-10-08T00:52:41Z</time></trkpt>
<trkpt lat="30.011652" lon="94.990384">
<time>2016-10-08T00:52:42Z</time></trkpt>
<trkpt lat="30.011612" lon="94.990345">
<time>2016-10-08T00:52:43Z</time></trkpt>
<trkpt lat="30.011572" lon="94.990275">
<time>2016-10-08T00:52:44Z</time></trkpt>
<trkpt lat="30.011413" lon="94.990066">
<time>2016-10-08T00:52:45Z</time></trkpt>
<trkpt lat="30.011373" lon="94.989996">
<time>2016-10-08T00:52:46Z</time></trkpt>
<trkpt lat="30.011323" lon="94.989906">
<time>2016-10-08T00:52:47Z</time></trkpt>
<trkpt lat="30.011283" lon="94.989826">
<time>2016-10-08T00:52:48Z</time></trkpt>
<trkpt lat="30.011243" lon="94.989757">
<time>2016-10-08T00:52:49Z</time></trkpt>
<trkpt lat="30.011184" lon="94.989597">
<time>2016-10-08T00:52:50Z</time></trkpt>
<trkpt lat="30.011115" lon="94.989398">
<time>2016-10-08T00:52:51Z</time></trkpt>
<trkpt lat="30.011055" lon="94.989229">
<time>2016-10-08T00:52:52Z</time></trkpt>
<trkpt lat="30.011016" lon="94.989049">
<time>2016-10-08T00:52:53Z</time></trkpt>
<trkpt lat="30.010976" lon="94.98885">
<time>2016-10-08T00:52:54Z</time></trkpt>
<trkpt lat="30.010927" lon="94.988631">
<time>2016-10-08T00:52:55Z</time></trkpt>
<trkpt lat="30.010878" lon="94.988362">
<time>2016-10-08T00:52:56Z</time></trkpt>
<trkpt lat="30.010838" lon="94.988103">
<time>2016-10-08T00:52:57Z</time></trkpt>
<trkpt lat="30.010809" lon="94.987973">
<time>2016-10-08T00:52:58Z</time></trkpt>
<trkpt lat="30.010789" lon="94.987873">
<time>2016-10-08T00:52:59Z</time></trkpt>
<trkpt lat="30.01074" lon="94.987624">
<time>2016-10-08T00:53:00Z</time></trkpt>
<trkpt lat="30.010621" lon="94.987136">
<time>2016-10-08T00:53:01Z</time></trkpt>
<trkpt lat="30.010572" lon="94.986887">
<time>2016-10-08T00:53:02Z</time></trkpt>
<trkpt lat="30.010552" lon="94.986757">
<time>2016-10-08T00:53:03Z</time></trkpt>
<trkpt lat="30.010523" lon="94.986608">
<time>2016-10-08T00:53:04Z</time></trkpt>
<trkpt lat="30.010513" lon="94.986458">
<time>2016-10-08T00:53:05Z</time></trkpt>
<trkpt lat="30.010494" lon="94.986299">
<time>2016-10-08T00:53:06Z</time></trkpt>
<trkpt lat="30.010464" lon="94.98612">
<time>2016-10-08T00:53:07Z</time></trkpt>
<trkpt lat="30.010455" lon="94.98601">
<time>2016-10-08T00:53:08Z</time></trkpt>
<trkpt lat="30.010445" lon="94.9859">
<time>2016-10-08T00:53:09Z</time></trkpt>
<trkpt lat="30.010446" lon="94.985701">
<time>2016-10-08T00:53:10Z</time></trkpt>
<trkpt lat="30.010436" lon="94.985532">
<time>2016-10-08T00:53:11Z</time></trkpt>
<trkpt lat="30.010407" lon="94.985293">
<time>2016-10-08T00:53:12Z</time></trkpt>
<trkpt lat="30.010387" lon="94.985143">
<time>2016-10-08T00:53:13Z</time></trkpt>
<trkpt lat="30.010368" lon="94.984984">
<time>2016-10-08T00:53:14Z</time></trkpt>
<trkpt lat="30.010338" lon="94.984834">
<time>2016-10-08T00:53:15Z</time></trkpt>
<trkpt lat="30.010298" lon="94.984715">
<time>2016-10-08T00:53:16Z</time></trkpt>
<trkpt lat="30.010229" lon="94.984565">
<time>2016-10-08T00:53:17Z</time></trkpt>
<trkpt lat="30.010169" lon="94.984436">
<time>2016-10-08T00:53:18Z</time></trkpt>
<trkpt lat="30.01012" lon="94.984326">
<time>2016-10-08T00:53:19Z</time></trkpt>
<trkpt lat="30.01008" lon="94.984206">
<time>2016-10-08T00:53:20Z</time></trkpt>
<trkpt lat="30.01008" lon="94.984167">
<time>2016-10-08T00:53:21Z</time></trkpt>
<trkpt lat="30.01007" lon="94.984117">
<time>2016-10-08T00:53:22Z</time></trkpt>
<trkpt lat="30.01007" lon="94.984067">
<time>2016-10-08T00:53:23Z</time></trkpt>
<trkpt lat="30.010071" lon="94.983977">
<time>2016-10-08T00:53:24Z</time></trkpt>
<trkpt lat="30.010081" lon="94.983818">
<time>2016-10-08T00:53:25Z</time></trkpt>
<trkpt lat="30.010101" lon="94.983698">
<time>2016-10-08T00:53:26Z</time></trkpt>
<trkpt lat="30.010112" lon="94.983539">
<time>2016-10-08T00:53:27Z</time></trkpt>
<trkpt lat="30.010122" lon="94.983419">
<time>2016-10-08T00:53:28Z</time></trkpt>
<trkpt lat="30.010132" lon="94.983359">
<time>2016-10-08T00:53:29Z</time></trkpt>
<trkpt lat="30.010123" lon="94.98328">
<time>2016-10-08T00:53:30Z</time></trkpt>
<trkpt lat="30.010123" lon="94.98323">
<time>2016-10-08T00:53:31Z</time></trkpt>
<trkpt lat="30.010113" lon="94.98317">
<time>2016-10-08T00:53:32Z</time></trkpt>
<trkpt lat="30.010093" lon="94.98308">
<time>2016-10-08T00:53:33Z</time></trkpt>
<trkpt lat="30.010054" lon="94.982981">
<time>2016-10-08T00:53:34Z</time></trkpt>
<trkpt lat="30.010034" lon="94.982921">
<time>2016-10-08T00:53:35Z</time></trkpt>
<trkpt lat="30.010004" lon="94.982851">
<time>2016-10-08T00:53:36Z</time></trkpt>
<trkpt lat="30.009974" lon="94.982801">
<time>2016-10-08T00:53:37Z</time></trkpt>
<trkpt lat="30.009934" lon="94.982712">
<time>2016-10-08T00:53:38Z</time></trkpt>
<trkpt lat="30.009875" lon="94.982592">
<time>2016-10-08T00:53:39Z</time></trkpt>
<trkpt lat="30.009785" lon="94.982423">
<time>2016-10-08T00:53:40Z</time></trkpt>
<trkpt lat="30.009676" lon="94.982243">
<time>2016-10-08T00:53:41Z</time></trkpt>
<trkpt lat="30.009586" lon="94.982074">
<time>2016-10-08T00:53:42Z</time></trkpt>
<trkpt lat="30.009527" lon="94.981915">
<time>2016-10-08T00:53:43Z</time></trkpt>
<trkpt lat="30.009477" lon="94.981785">
<time>2016-10-08T00:53:44Z</time></trkpt>
<trkpt lat="30.009437" lon="94.981665">
<time>2016-10-08T00:53:45Z</time></trkpt>
<trkpt lat="30.009378" lon="94.981436">
<time>2016-10-08T00:53:46Z</time></trkpt>
<trkpt lat="30.009329" lon="94.981237">
<time>2016-10-08T00:53:47Z</time></trkpt>
<trkpt lat="30.009299" lon="94.981127">
<time>2016-10-08T00:53:48Z</time></trkpt>
<trkpt lat="30.009279" lon="94.981058">
<time>2016-10-08T00:53:49Z</time></trkpt>
<trkpt lat="30.009249" lon="94.980988">
<time>2016-10-08T00:53:50Z</time></trkpt>
<trkpt lat="30.00922" lon="94.980938">
<time>2016-10-08T00:53:51Z</time></trkpt>
<trkpt lat="30.00919" lon="94.980868">
<time>2016-10-08T00:53:52Z</time></trkpt>
<trkpt lat="30.00914" lon="94.980788">
<time>2016-10-08T00:53:53Z</time></trkpt>
<trkpt lat="30.00909" lon="94.980709">
<time>2016-10-08T00:53:54Z</time></trkpt>
<trkpt lat="30.009021" lon="94.980589">
<time>2016-10-08T00:53:55Z</time></trkpt>
<trkpt lat="30.008991" lon="94.980529">
<time>2016-10-08T00:53:56Z</time></trkpt>
<trkpt lat="30.008961" lon="94.98047">
<time>2016-10-08T00:53:57Z</time></trkpt>
<trkpt lat="30.008941" lon="94.98042">
<time>2016-10-08T00:53:58Z</time></trkpt>
<trkpt lat="30.008921" lon="94.98036">
<time>2016-10-08T00:53:59Z</time></trkpt>
<trkpt lat="30.008901" lon="94.98029">
<time>2016-10-08T00:54:00Z</time></trkpt>
<trkpt lat="30.008882" lon="94.980151">
<time>2016-10-08T00:54:01Z</time></trkpt>
<trkpt lat="30.008872" lon="94.979981">
<time>2016-10-08T00:54:02Z</time></trkpt>
<trkpt lat="30.008873" lon="94.979782">
<time>2016-10-08T00:54:03Z</time></trkpt>
<trkpt lat="30.008883" lon="94.979613">
<time>2016-10-08T00:54:04Z</time></trkpt>
<trkpt lat="30.008874" lon="94.979443">
<time>2016-10-08T00:54:05Z</time></trkpt>
<trkpt lat="30.008874" lon="94.979383">
<time>2016-10-08T00:54:06Z</time></trkpt>
<trkpt lat="30.008864" lon="94.979324">
<time>2016-10-08T00:54:07Z</time></trkpt>
<trkpt lat="30.008854" lon="94.979244">
<time>2016-10-08T00:54:08Z</time></trkpt>
<trkpt lat="30.008835" lon="94.979174">
<time>2016-10-08T00:54:09Z</time></trkpt>
<trkpt lat="30.008795" lon="94.979015">
<time>2016-10-08T00:54:10Z</time></trkpt>
<trkpt lat="30.008746" lon="94.978795">
<time>2016-10-08T00:54:11Z</time></trkpt>
<trkpt lat="30.008726" lon="94.978716">
<time>2016-10-08T00:54:12Z</time></trkpt>
<trkpt lat="30.008706" lon="94.978656">
<time>2016-10-08T00:54:13Z</time></trkpt>
<trkpt lat="30.008686" lon="94.978606">
<time>2016-10-08T00:54:14Z</time></trkpt>
<trkpt lat="30.008656" lon="94.978556">
<time>2016-10-08T00:54:15Z</time></trkpt>
<trkpt lat="30.008607" lon="94.978516">
<time>2016-10-08T00:54:16Z</time></trkpt>
<trkpt lat="30.008547" lon="94.978447">
<time>2016-10-08T00:54:17Z</time></trkpt>
<trkpt lat="30.008467" lon="94.978357">
<time>2016-10-08T00:54:18Z</time></trkpt>
<trkpt lat="30.008347" lon="94.978217">
<time>2016-10-08T00:54:19Z</time></trkpt>
<trkpt lat="30.008268" lon="94.978108">
<time>2016-10-08T00:54:20Z</time></trkpt>
<trkpt lat="30.008218" lon="94.978028">
<time>2016-10-08T00:54:21Z</time></trkpt>
<trkpt lat="30.008188" lon="94.977958">
<time>2016-10-08T00:54:22Z</time></trkpt>
<trkpt lat="30.008168" lon="94.977888">
<time>2016-10-08T00:54:23Z</time></trkpt>
<trkpt lat="30.008159" lon="94.977829">
<time>2016-10-08T00:54:24Z</time></trkpt>
<trkpt lat="30.008129" lon="94.977699">
<time>2016-10-08T00:54:25Z</time></trkpt>
<trkpt lat="30.008119" lon="94.977589">
<time>2016-10-08T00:54:26Z</time></trkpt>
<trkpt lat="30.0081" lon="94.977251">
<time>2016-10-08T00:54:27Z</time></trkpt>
<trkpt lat="30.008091" lon="94.977071">
<time>2016-10-08T00:54:28Z</time></trkpt>
<trkpt lat="30.008091" lon="94.976962">
<time>2016-10-08T00:54:29Z</time></trkpt>
<trkpt lat="30.008092" lon="94.976772">
<time>2016-10-08T00:54:30Z</time></trkpt>
<trkpt lat="30.008112" lon="94.976643">
<time>2016-10-08T00:54:31Z</time></trkpt>
<trkpt lat="30.008142" lon="94.976543">
<time>2016-10-08T00:54:32Z</time></trkpt>
<trkpt lat="30.008263" lon="94.976194">
<time>2016-10-08T00:54:33Z</time></trkpt>
<trkpt lat="30.008344" lon="94.975965">
<time>2016-10-08T00:54:34Z</time></trkpt>
<trkpt lat="30.008384" lon="94.975855">
<time>2016-10-08T00:54:35Z</time></trkpt>
<trkpt lat="30.008424" lon="94.975776">
<time>2016-10-08T00:54:36Z</time></trkpt>
<trkpt lat="30.008595" lon="94.975507">
<time>2016-10-08T00:54:37Z</time></trkpt>
<trkpt lat="30.008726" lon="94.975317">
<time>2016-10-08T00:54:38Z</time></trkpt>
<trkpt lat="30.008846" lon="94.975128">
<time>2016-10-08T00:54:39Z</time></trkpt>
<trkpt lat="30.008876" lon="94.975048">
<time>2016-10-08T00:54:40Z</time></trkpt>
<trkpt lat="30.008917" lon="94.974968">
<time>2016-10-08T00:54:41Z</time></trkpt>
<trkpt lat="30.008967" lon="94.974829">
<time>2016-10-08T00:54:42Z</time></trkpt>
<trkpt lat="30.008997" lon="94.974709">
<time>2016-10-08T00:54:43Z</time></trkpt>
<trkpt lat="30.009058" lon="94.97445">
<time>2016-10-08T00:54:44Z</time></trkpt>
<trkpt lat="30.009068" lon="94.9744">
<time>2016-10-08T00:54:45Z</time></trkpt>
<trkpt lat="30.009109" lon="94.974281">
<time>2016-10-08T00:54:46Z</time></trkpt>
<trkpt lat="30.009149" lon="94.974191">
<time>2016-10-08T00:54:47Z</time></trkpt>
<trkpt lat="30.009219" lon="94.974061">
<time>2016-10-08T00:54:48Z</time></trkpt>
<trkpt lat="30.00932" lon="94.973912">
<time>2016-10-08T00:54:49Z</time></trkpt>
<trkpt lat="30.00938" lon="94.973792">
<time>2016-10-08T00:54:50Z</time></trkpt>
<trkpt lat="30.00944" lon="94.973673">
<time>2016-10-08T00:54:51Z</time></trkpt>
<trkpt lat="30.009471" lon="94.973583">
<time>2016-10-08T00:54:52Z</time></trkpt>
<trkpt lat="30.009491" lon="94.973483">
<time>2016-10-08T00:54:53Z</time></trkpt>
<trkpt lat="30.009511" lon="94.973364">
<time>2016-10-08T00:54:54Z</time></trkpt>
<trkpt lat="30.009532" lon="94.973164">
<time>2016-10-08T00:54:55Z</time></trkpt>
<trkpt lat="30.009552" lon="94.973025">
<time>2016-10-08T00:54:56Z</time></trkpt>
<trkpt lat="30.009572" lon="94.972895">
<time>2016-10-08T00:54:57Z</time></trkpt>
<trkpt lat="30.009633" lon="94.972586">
<time>2016-10-08T00:54:58Z</time></trkpt>
<trkpt lat="30.009664" lon="94.972417">
<time>2016-10-08T00:54:59Z</time></trkpt>
<trkpt lat="30.009714" lon="94.972237">
<time>2016-10-08T00:55:00Z</time></trkpt>
<trkpt lat="30.009755" lon="94.972108">
<time>2016-10-08T00:55:01Z</time></trkpt>
<trkpt lat="30.009875" lon="94.971789">
<time>2016-10-08T00:55:02Z</time></trkpt>
<trkpt lat="30.009956" lon="94.97157">
<time>2016-10-08T00:55:03Z</time></trkpt>
<trkpt lat="30.010017" lon="94.97136">
<time>2016-10-08T00:55:04Z</time></trkpt>
<trkpt lat="30.010037" lon="94.971191">
<time>2016-10-08T00:55:05Z</time></trkpt>
<trkpt lat="30.010058" lon="94.971001">
<time>2016-10-08T00:55:06Z</time></trkpt>
<trkpt lat="30.010058" lon="94.970782">
<time>2016-10-08T00:55:07Z</time></trkpt>
<trkpt lat="30.010039" lon="94.970443">
<time>2016-10-08T00:55:08Z</time></trkpt>
<trkpt lat="30.010031" lon="94.969875">
<time>2016-10-08T00:55:09Z</time></trkpt>
<trkpt lat="30.010013" lon="94.969118">
<time>2016-10-08T00:55:10Z</time></trkpt>
<trkpt lat="30.010014" lon="94.968729">
<time>2016-10-08T00:55:11Z</time></trkpt>
<trkpt lat="30.010024" lon="94.96852">
<time>2016-10-08T00:55:12Z</time></trkpt>
<trkpt lat="30.010045" lon="94.96828">
<time>2016-10-08T00:55:13Z</time></trkpt>
<trkpt lat="30.010055" lon="94.968201">
<time>2016-10-08T00:55:14Z</time></trkpt>
<trkpt lat="30.010075" lon="94.968131">
<time>2016-10-08T00:55:15Z</time></trkpt>
<trkpt lat="30.010085" lon="94.968071">
<time>2016-10-08T00:55:16Z</time></trkpt>
<trkpt lat="30.010116" lon="94.967981">
<time>2016-10-08T00:55:17Z</time></trkpt>
<trkpt lat="30.010166" lon="94.967812">
<time>2016-10-08T00:55:18Z</time></trkpt>
<trkpt lat="30.010257" lon="94.967612">
<time>2016-10-08T00:55:19Z</time></trkpt>
<trkpt lat="30.010357" lon="94.967413">
<time>2016-10-08T00:55:20Z</time></trkpt>
<trkpt lat="30.010438" lon="94.967293">
<time>2016-10-08T00:55:21Z</time></trkpt>
<trkpt lat="30.010498" lon="94.967224">
<time>2016-10-08T00:55:22Z</time></trkpt>
<trkpt lat="30.010648" lon="94.967044">
<time>2016-10-08T00:55:23Z</time></trkpt>
<trkpt lat="30.010748" lon="94.966944">
<time>2016-10-08T00:55:24Z</time></trkpt>
<trkpt lat="30.010869" lon="94.966845">
<time>2016-10-08T00:55:25Z</time></trkpt>
<trkpt lat="30.010979" lon="94.966765">
<time>2016-10-08T00:55:26Z</time></trkpt>
<trkpt lat="30.011069" lon="94.966685">
<time>2016-10-08T00:55:27Z</time></trkpt>
<trkpt lat="30.011159" lon="94.966576">
<time>2016-10-08T00:55:28Z</time></trkpt>
<trkpt lat="30.01123" lon="94.966476">
<time>2016-10-08T00:55:29Z</time></trkpt>
<trkpt lat="30.01128" lon="94.966366">
<time>2016-10-08T00:55:30Z</time></trkpt>
<trkpt lat="30.01131" lon="94.966267">
<time>2016-10-08T00:55:31Z</time></trkpt>
<trkpt lat="30.011331" lon="94.966137">
<time>2016-10-08T00:55:32Z</time></trkpt>
<trkpt lat="30.011331" lon="94.965978">
<time>2016-10-08T00:55:33Z</time></trkpt>
<trkpt lat="30.011331" lon="94.965818">
<time>2016-10-08T00:55:34Z</time></trkpt>
<trkpt lat="30.011322" lon="94.965728">
<time>2016-10-08T00:55:35Z</time></trkpt>
<trkpt lat="30.011312" lon="94.965639">
<time>2016-10-08T00:55:36Z</time></trkpt>
<trkpt lat="30.011272" lon="94.965439">
<time>2016-10-08T00:55:37Z</time></trkpt>
<trkpt lat="30.011243" lon="94.96528">
<time>2016-10-08T00:55:38Z</time></trkpt>
<trkpt lat="30.011183" lon="94.96507">
<time>2016-10-08T00:55:39Z</time></trkpt>
<trkpt lat="30.011114" lon="94.964871">
<time>2016-10-08T00:55:40Z</time></trkpt>
<trkpt lat="30.011074" lon="94.964731">
<time>2016-10-08T00:55:41Z</time></trkpt>
<trkpt lat="30.010985" lon="94.964392">
<time>2016-10-08T00:55:42Z</time></trkpt>
<trkpt lat="30.010926" lon="94.964153">
<time>2016-10-08T00:55:43Z</time></trkpt>
<trkpt lat="30.010857" lon="94.963784">
<time>2016-10-08T00:55:44Z</time></trkpt>
<trkpt lat="30.010788" lon="94.963395">
<time>2016-10-08T00:55:45Z</time></trkpt>
<trkpt lat="30.010709" lon="94.962747">
<time>2016-10-08T00:55:46Z</time></trkpt>
<trkpt lat="30.010631" lon="94.962149">
<time>2016-10-08T00:55:47Z</time></trkpt>
<trkpt lat="30.010572" lon="94.961721">
<time>2016-10-08T00:55:48Z</time></trkpt>
<trkpt lat="30.010542" lon="94.961561">
<time>2016-10-08T00:55:49Z</time></trkpt>
<trkpt lat="30.010512" lon="94.961471">
<time>2016-10-08T00:55:50Z</time></trkpt>
<trkpt lat="30.010473" lon="94.961372">
<time>2016-10-08T00:55:51Z</time></trkpt>
<trkpt lat="30.010413" lon="94.961222">
<time>2016-10-08T00:55:52Z</time></trkpt>
<trkpt lat="30.010353" lon="94.961102">
<time>2016-10-08T00:55:53Z</time></trkpt>
<trkpt lat="30.010184" lon="94.960763">
<time>2016-10-08T00:55:54Z</time></trkpt>
<trkpt lat="30.009915" lon="94.960225">
<time>2016-10-08T00:55:55Z</time></trkpt>
<trkpt lat="30.009687" lon="94.959746">
<time>2016-10-08T00:55:56Z</time></trkpt>
<trkpt lat="30.009617" lon="94.959617">
<time>2016-10-08T00:55:57Z</time></trkpt>
<trkpt lat="30.009497" lon="94.959397">
<time>2016-10-08T00:55:58Z</time></trkpt>
<trkpt lat="30.009338" lon="94.959168">
<time>2016-10-08T00:55:59Z</time></trkpt>
<trkpt lat="30.009198" lon="94.958979">
<time>2016-10-08T00:56:00Z</time></trkpt>
<trkpt lat="30.009109" lon="94.958869">
<time>2016-10-08T00:56:01Z</time></trkpt>
<trkpt lat="30.009069" lon="94.958809">
<time>2016-10-08T00:56:02Z</time></trkpt>
<trkpt lat="30.009039" lon="94.958759">
<time>2016-10-08T00:56:03Z</time></trkpt>
<trkpt lat="30.008989" lon="94.958699">
<time>2016-10-08T00:56:04Z</time></trkpt>
<trkpt lat="30.008969" lon="94.95866">
<time>2016-10-08T00:56:05Z</time></trkpt>
<trkpt lat="30.008929" lon="94.95859">
<time>2016-10-08T00:56:06Z</time></trkpt>
<trkpt lat="30.00892" lon="94.95854">
<time>2016-10-08T00:56:07Z</time></trkpt>
<trkpt lat="30.0089" lon="94.95846">
<time>2016-10-08T00:56:08Z</time></trkpt>
<trkpt lat="30.00888" lon="94.95834">
<time>2016-10-08T00:56:09Z</time></trkpt>
<trkpt lat="30.00887" lon="94.958201">
<time>2016-10-08T00:56:10Z</time></trkpt>
<trkpt lat="30.008861" lon="94.958121">
<time>2016-10-08T00:56:11Z</time></trkpt>
<trkpt lat="30.008851" lon="94.958031">
<time>2016-10-08T00:56:12Z</time></trkpt>
<trkpt lat="30.008831" lon="94.957752">
<time>2016-10-08T00:56:13Z</time></trkpt>
<trkpt lat="30.008802" lon="94.957353">
<time>2016-10-08T00:56:14Z</time></trkpt>
<trkpt lat="30.008783" lon="94.957124">
<time>2016-10-08T00:56:15Z</time></trkpt>
<trkpt lat="30.008773" lon="94.956944">
<time>2016-10-08T00:56:16Z</time></trkpt>
<trkpt lat="30.008763" lon="94.956865">
<time>2016-10-08T00:56:17Z</time></trkpt>
<trkpt lat="30.008744" lon="94.956685">
<time>2016-10-08T00:56:18Z</time></trkpt>
<trkpt lat="30.008734" lon="94.956605">
<time>2016-10-08T00:56:19Z</time></trkpt>
<trkpt lat="30.008714" lon="94.956486">
<time>2016-10-08T00:56:20Z</time></trkpt>
<trkpt lat="30.008675" lon="94.956296">
<time>2016-10-08T00:56:21Z</time></trkpt>
<trkpt lat="30.008625" lon="94.956057">
<time>2016-10-08T00:56:22Z</time></trkpt>
<trkpt lat="30.008586" lon="94.955887">
<time>2016-10-08T00:56:23Z</time></trkpt>
<trkpt lat="30.008556" lon="94.955748">
<time>2016-10-08T00:56:24Z</time></trkpt>
<trkpt lat="30.008516" lon="94.955598">
<time>2016-10-08T00:56:25Z</time></trkpt>
<trkpt lat="30.008457" lon="94.955359">
<time>2016-10-08T00:56:26Z</time></trkpt>
<trkpt lat="30.008328" lon="94.95496">
<time>2016-10-08T00:56:27Z</time></trkpt>
<trkpt lat="30.008229" lon="94.954651">
<time>2016-10-08T00:56:28Z</time></trkpt>
<trkpt lat="30.008169" lon="94.954471">
<time>2016-10-08T00:56:29Z</time></trkpt>
<trkpt lat="30.008109" lon="94.954282">
<time>2016-10-08T00:56:30Z</time></trkpt>
<trkpt lat="30.00809" lon="94.954182">
<time>2016-10-08T00:56:31Z</time></trkpt>
<trkpt lat="30.00807" lon="94.954072">
<time>2016-10-08T00:56:32Z</time></trkpt>
<trkpt lat="30.00804" lon="94.953843">
<time>2016-10-08T00:56:33Z</time></trkpt>
<trkpt lat="30.008041" lon="94.953674">
<time>2016-10-08T00:56:34Z</time></trkpt>
<trkpt lat="30.008041" lon="94.953494">
<time>2016-10-08T00:56:35Z</time></trkpt>
<trkpt lat="30.008042" lon="94.953275">
<time>2016-10-08T00:56:36Z</time></trkpt>
<trkpt lat="30.008062" lon="94.953005">
<time>2016-10-08T00:56:37Z</time></trkpt>
<trkpt lat="30.008093" lon="94.952537">
<time>2016-10-08T00:56:38Z</time></trkpt>
<trkpt lat="30.008144" lon="94.952018">
<time>2016-10-08T00:56:39Z</time></trkpt>
<trkpt lat="30.008155" lon="94.951689">
<time>2016-10-08T00:56:40Z</time></trkpt>
<trkpt lat="30.008156" lon="94.95141">
<time>2016-10-08T00:56:41Z</time></trkpt>
<trkpt lat="30.008137" lon="94.950711">
<time>2016-10-08T00:56:42Z</time></trkpt>
<trkpt lat="30.008128" lon="94.950482">
<time>2016-10-08T00:56:43Z</time></trkpt>
<trkpt lat="30.008108" lon="94.950223">
<time>2016-10-08T00:56:44Z</time></trkpt>
<trkpt lat="30.008079" lon="94.949943">
<time>2016-10-08T00:56:45Z</time></trkpt>
<trkpt lat="30.008049" lon="94.949704">
<time>2016-10-08T00:56:46Z</time></trkpt>
<trkpt lat="30.00801" lon="94.949465">
<time>2016-10-08T00:56:47Z</time></trkpt>
<trkpt lat="30.00798" lon="94.949215">
<time>2016-10-08T00:56:48Z</time></trkpt>
<trkpt lat="30.007961" lon="94.949036">
<time>2016-10-08T00:56:49Z</time></trkpt>
<trkpt lat="30.007941" lon="94.948776">
<time>2016-10-08T00:56:50Z</time></trkpt>
<trkpt lat="30.007941" lon="94.948676">
<time>2016-10-08T00:56:51Z</time></trkpt>
<trkpt lat="30.007942" lon="94.948537">
<time>2016-10-08T00:56:52Z</time></trkpt>
<trkpt lat="30.007952" lon="94.948347">
<time>2016-10-08T00:56:53Z</time></trkpt>
<trkpt lat="30.008034" lon="94.947649">
<time>2016-10-08T00:56:54Z</time></trkpt>
<trkpt lat="30.008074" lon="94.94727">
<time>2016-10-08T00:56:55Z</time></trkpt>
<trkpt lat="30.008095" lon="94.94712">
<time>2016-10-08T00:56:56Z</time></trkpt>
<trkpt lat="30.008105" lon="94.946901">
<time>2016-10-08T00:56:57Z</time></trkpt>
<trkpt lat="30.008105" lon="94.946671">
<time>2016-10-08T00:56:58Z</time></trkpt>
<trkpt lat="30.008096" lon="94.946462">
<time>2016-10-08T00:56:59Z</time></trkpt>
<trkpt lat="30.008076" lon="94.946262">
<time>2016-10-08T00:57:00Z</time></trkpt>
<trkpt lat="30.008066" lon="94.946163">
<time>2016-10-08T00:57:01Z</time></trkpt>
<trkpt lat="30.008037" lon="94.946053">
<time>2016-10-08T00:57:02Z</time></trkpt>
<trkpt lat="30.007977" lon="94.945813">
<time>2016-10-08T00:57:03Z</time></trkpt>
<trkpt lat="30.007898" lon="94.945554">
<time>2016-10-08T00:57:04Z</time></trkpt>
<trkpt lat="30.007709" lon="94.945055">
<time>2016-10-08T00:57:05Z</time></trkpt>
<trkpt lat="30.007529" lon="94.944616">
<time>2016-10-08T00:57:06Z</time></trkpt>
<trkpt lat="30.00744" lon="94.944377">
<time>2016-10-08T00:57:07Z</time></trkpt>
<trkpt lat="30.00733" lon="94.944127">
<time>2016-10-08T00:57:08Z</time></trkpt>
<trkpt lat="30.007221" lon="94.943918">
<time>2016-10-08T00:57:09Z</time></trkpt>
<trkpt lat="30.007111" lon="94.943738">
<time>2016-10-08T00:57:10Z</time></trkpt>
<trkpt lat="30.007001" lon="94.943579">
<time>2016-10-08T00:57:11Z</time></trkpt>
<trkpt lat="30.006752" lon="94.943249">
<time>2016-10-08T00:57:12Z</time></trkpt>
<trkpt lat="30.006553" lon="94.94295">
<time>2016-10-08T00:57:13Z</time></trkpt>
<trkpt lat="30.006333" lon="94.942661">
<time>2016-10-08T00:57:14Z</time></trkpt>
<trkpt lat="30.006114" lon="94.942401">
<time>2016-10-08T00:57:15Z</time></trkpt>
<trkpt lat="30.005894" lon="94.942152">
<time>2016-10-08T00:57:16Z</time></trkpt>
<trkpt lat="30.005694" lon="94.941932">
<time>2016-10-08T00:57:17Z</time></trkpt>
<trkpt lat="30.005545" lon="94.941803">
<time>2016-10-08T00:57:18Z</time></trkpt>
<trkpt lat="30.005405" lon="94.941683">
<time>2016-10-08T00:57:19Z</time></trkpt>
<trkpt lat="30.005305" lon="94.941583">
<time>2016-10-08T00:57:20Z</time></trkpt>
<trkpt lat="30.005145" lon="94.941473">
<time>2016-10-08T00:57:21Z</time></trkpt>
<trkpt lat="30.004856" lon="94.941244">
<time>2016-10-08T00:57:22Z</time></trkpt>
<trkpt lat="30.004666" lon="94.941094">
<time>2016-10-08T00:57:23Z</time></trkpt>
<trkpt lat="30.004516" lon="94.940984">
<time>2016-10-08T00:57:24Z</time></trkpt>
<trkpt lat="30.004246" lon="94.940785">
<time>2016-10-08T00:57:25Z</time></trkpt>
<trkpt lat="30.003937" lon="94.940555">
<time>2016-10-08T00:57:26Z</time></trkpt>
<trkpt lat="30.003667" lon="94.940356">
<time>2016-10-08T00:57:27Z</time></trkpt>
<trkpt lat="30.003228" lon="94.940027">
<time>2016-10-08T00:57:28Z</time></trkpt>
<trkpt lat="30.002868" lon="94.939767">
<time>2016-10-08T00:57:29Z</time></trkpt>
<trkpt lat="30.002599" lon="94.939548">
<time>2016-10-08T00:57:30Z</time></trkpt>
<trkpt lat="30.002299" lon="94.939318">
<time>2016-10-08T00:57:31Z</time></trkpt>
<trkpt lat="30.002209" lon="94.939238">
<time>2016-10-08T00:57:32Z</time></trkpt>
<trkpt lat="30.002029" lon="94.939089">
<time>2016-10-08T00:57:33Z</time></trkpt>
<trkpt lat="30.00175" lon="94.938819">
<time>2016-10-08T00:57:34Z</time></trkpt>
<trkpt lat="30.0014" lon="94.93847">
<time>2016-10-08T00:57:35Z</time></trkpt>
<trkpt lat="30.001171" lon="94.93822">
<time>2016-10-08T00:57:36Z</time></trkpt>
<trkpt lat="30.001041" lon="94.938081">
<time>2016-10-08T00:57:37Z</time></trkpt>
<trkpt lat="30.000921" lon="94.937981">
<time>2016-10-08T00:57:38Z</time></trkpt>
<trkpt lat="30.000761" lon="94.937871">
<time>2016-10-08T00:57:39Z</time></trkpt>
<trkpt lat="30.000581" lon="94.937771">
<time>2016-10-08T00:57:40Z</time></trkpt>
<trkpt lat="30.000302" lon="94.937631">
<time>2016-10-08T00:57:41Z</time></trkpt>
<trkpt lat="30.000032" lon="94.937522">
<time>2016-10-08T00:57:42Z</time></trkpt>
<trkpt lat="29.999882" lon="94.937452">
<time>2016-10-08T00:57:43Z</time></trkpt>
<trkpt lat="29.999642" lon="94.937332">
<time>2016-10-08T00:57:44Z</time></trkpt>
<trkpt lat="29.999442" lon="94.937232">
<time>2016-10-08T00:57:45Z</time></trkpt>
<trkpt lat="29.999232" lon="94.937133">
<time>2016-10-08T00:57:46Z</time></trkpt>
<trkpt lat="29.999093" lon="94.937023">
<time>2016-10-08T00:57:47Z</time></trkpt>
<trkpt lat="29.998883" lon="94.936833">
<time>2016-10-08T00:57:48Z</time></trkpt>
<trkpt lat="29.998733" lon="94.936653">
<time>2016-10-08T00:57:49Z</time></trkpt>
<trkpt lat="29.998584" lon="94.936454">
<time>2016-10-08T00:57:50Z</time></trkpt>
<trkpt lat="29.998444" lon="94.936254">
<time>2016-10-08T00:57:51Z</time></trkpt>
<trkpt lat="29.998274" lon="94.936005">
<time>2016-10-08T00:57:52Z</time></trkpt>
<trkpt lat="29.998105" lon="94.935755">
<time>2016-10-08T00:57:53Z</time></trkpt>
<trkpt lat="29.997975" lon="94.935546">
<time>2016-10-08T00:57:54Z</time></trkpt>
<trkpt lat="29.997795" lon="94.935326">
<time>2016-10-08T00:57:55Z</time></trkpt>
<trkpt lat="29.997616" lon="94.935166">
<time>2016-10-08T00:57:56Z</time></trkpt>
<trkpt lat="29.997206" lon="94.934857">
<time>2016-10-08T00:57:57Z</time></trkpt>
<trkpt lat="29.996886" lon="94.934637">
<time>2016-10-08T00:57:58Z</time></trkpt>
<trkpt lat="29.996557" lon="94.934408">
<time>2016-10-08T00:57:59Z</time></trkpt>
<trkpt lat="29.996237" lon="94.934178">
<time>2016-10-08T00:58:00Z</time></trkpt>
<trkpt lat="29.996127" lon="94.934098">
<time>2016-10-08T00:58:01Z</time></trkpt>
<trkpt lat="29.996057" lon="94.934058">
<time>2016-10-08T00:58:02Z</time></trkpt>
<trkpt lat="29.995987" lon="94.933999">
<time>2016-10-08T00:58:03Z</time></trkpt>
<trkpt lat="29.995917" lon="94.933959">
<time>2016-10-08T00:58:04Z</time></trkpt>
<trkpt lat="29.995877" lon="94.933929">
<time>2016-10-08T00:58:05Z</time></trkpt>
<trkpt lat="29.995817" lon="94.933889">
<time>2016-10-08T00:58:06Z</time></trkpt>
<trkpt lat="29.995747" lon="94.933839">
<time>2016-10-08T00:58:07Z</time></trkpt>
<trkpt lat="29.995688" lon="94.933789">
<time>2016-10-08T00:58:08Z</time></trkpt>
<trkpt lat="29.995628" lon="94.933739">
<time>2016-10-08T00:58:09Z</time></trkpt>
<trkpt lat="29.995578" lon="94.933699">
<time>2016-10-08T00:58:10Z</time></trkpt>
<trkpt lat="29.995528" lon="94.933649">
<time>2016-10-08T00:58:11Z</time></trkpt>
<trkpt lat="29.995478" lon="94.933589">
<time>2016-10-08T00:58:12Z</time></trkpt>
<trkpt lat="29.995438" lon="94.933559">
<time>2016-10-08T00:58:13Z</time></trkpt>
<trkpt lat="29.995408" lon="94.933509">
<time>2016-10-08T00:58:14Z</time></trkpt>
<trkpt lat="29.995358" lon="94.93344">
<time>2016-10-08T00:58:15Z</time></trkpt>
<trkpt lat="29.995318" lon="94.93336">
<time>2016-10-08T00:58:16Z</time></trkpt>
<trkpt lat="29.995278" lon="94.93329">
<time>2016-10-08T00:58:17Z</time></trkpt>
<trkpt lat="29.995248" lon="94.93321">
<time>2016-10-08T00:58:18Z</time></trkpt>
<trkpt lat="29.995229" lon="94.93313">
<time>2016-10-08T00:58:19Z</time></trkpt>
<trkpt lat="29.995199" lon="94.933">
<time>2016-10-08T00:58:20Z</time></trkpt>
<trkpt lat="29.995179" lon="94.932891">
<time>2016-10-08T00:58:21Z</time></trkpt>
<trkpt lat="29.995169" lon="94.932781">
<time>2016-10-08T00:58:22Z</time></trkpt>
<trkpt lat="29.995149" lon="94.932661">
<time>2016-10-08T00:58:23Z</time></trkpt>
<trkpt lat="29.995129" lon="94.932521">
<time>2016-10-08T00:58:24Z</time></trkpt>
<trkpt lat="29.9951" lon="94.932381">
<time>2016-10-08T00:58:25Z</time></trkpt>
<trkpt lat="29.99508" lon="94.932222">
<time>2016-10-08T00:58:26Z</time></trkpt>
<trkpt lat="29.99506" lon="94.932042">
<time>2016-10-08T00:58:27Z</time></trkpt>
<trkpt lat="29.99504" lon="94.931902">
<time>2016-10-08T00:58:28Z</time></trkpt>
<trkpt lat="29.99501" lon="94.931762">
<time>2016-10-08T00:58:29Z</time></trkpt>
<trkpt lat="29.994991" lon="94.931613">
<time>2016-10-08T00:58:30Z</time></trkpt>
<trkpt lat="29.994971" lon="94.931473">
<time>2016-10-08T00:58:31Z</time></trkpt>
<trkpt lat="29.994951" lon="94.931353">
<time>2016-10-08T00:58:32Z</time></trkpt>
<trkpt lat="29.994941" lon="94.931203">
<time>2016-10-08T00:58:33Z</time></trkpt>
<trkpt lat="29.994921" lon="94.931114">
<time>2016-10-08T00:58:34Z</time></trkpt>
<trkpt lat="29.994902" lon="94.930934">
<time>2016-10-08T00:58:35Z</time></trkpt>
<trkpt lat="29.994892" lon="94.930804">
<time>2016-10-08T00:58:36Z</time></trkpt>
<trkpt lat="29.994892" lon="94.930684">
<time>2016-10-08T00:58:37Z</time></trkpt>
<trkpt lat="29.994892" lon="94.930525">
<time>2016-10-08T00:58:38Z</time></trkpt>
<trkpt lat="29.994902" lon="94.930335">
<time>2016-10-08T00:58:39Z</time></trkpt>
<trkpt lat="29.994923" lon="94.930165">
<time>2016-10-08T00:58:40Z</time></trkpt>
<trkpt lat="29.994953" lon="94.929965">
<time>2016-10-08T00:58:41Z</time></trkpt>
<trkpt lat="29.994983" lon="94.929806">
<time>2016-10-08T00:58:42Z</time></trkpt>
<trkpt lat="29.995084" lon="94.929386">
<time>2016-10-08T00:58:43Z</time></trkpt>
<trkpt lat="29.995194" lon="94.929027">
<time>2016-10-08T00:58:44Z</time></trkpt>
<trkpt lat="29.995274" lon="94.928767">
<time>2016-10-08T00:58:45Z</time></trkpt>
<trkpt lat="29.995335" lon="94.928598">
<time>2016-10-08T00:58:46Z</time></trkpt>
<trkpt lat="29.995455" lon="94.928218">
<time>2016-10-08T00:58:47Z</time></trkpt>
<trkpt lat="29.995515" lon="94.927969">
<time>2016-10-08T00:58:48Z</time></trkpt>
<trkpt lat="29.995596" lon="94.927639">
<time>2016-10-08T00:58:49Z</time></trkpt>
<trkpt lat="29.995696" lon="94.92707">
<time>2016-10-08T00:58:50Z</time></trkpt>
<trkpt lat="29.995747" lon="94.92678">
<time>2016-10-08T00:58:51Z</time></trkpt>
<trkpt lat="29.995837" lon="94.926331">
<time>2016-10-08T00:58:52Z</time></trkpt>
<trkpt lat="29.995898" lon="94.926031">
<time>2016-10-08T00:58:53Z</time></trkpt>
<trkpt lat="29.995918" lon="94.925902">
<time>2016-10-08T00:58:54Z</time></trkpt>
<trkpt lat="29.995978" lon="94.925642">
<time>2016-10-08T00:58:55Z</time></trkpt>
<trkpt lat="29.996058" lon="94.925352">
<time>2016-10-08T00:58:56Z</time></trkpt>
<trkpt lat="29.996099" lon="94.925193">
<time>2016-10-08T00:58:57Z</time></trkpt>
<trkpt lat="29.996149" lon="94.924933">
<time>2016-10-08T00:58:58Z</time></trkpt>
<trkpt lat="29.996189" lon="94.924763">
<time>2016-10-08T00:58:59Z</time></trkpt>
<trkpt lat="29.996209" lon="94.924653">
<time>2016-10-08T00:59:00Z</time></trkpt>
<trkpt lat="29.996259" lon="94.924504">
<time>2016-10-08T00:59:01Z</time></trkpt>
<trkpt lat="29.996309" lon="94.924384">
<time>2016-10-08T00:59:02Z</time></trkpt>
<trkpt lat="29.99634" lon="94.924264">
<time>2016-10-08T00:59:03Z</time></trkpt>
<trkpt lat="29.99636" lon="94.924084">
<time>2016-10-08T00:59:04Z</time></trkpt>
<trkpt lat="29.99637" lon="94.923864">
<time>2016-10-08T00:59:05Z</time></trkpt>
<trkpt lat="29.99637" lon="94.923615">
<time>2016-10-08T00:59:06Z</time></trkpt>
<trkpt lat="29.996341" lon="94.923165">
<time>2016-10-08T00:59:07Z</time></trkpt>
<trkpt lat="29.996341" lon="94.922936">
<time>2016-10-08T00:59:08Z</time></trkpt>
<trkpt lat="29.996331" lon="94.922736">
<time>2016-10-08T00:59:09Z</time></trkpt>
<trkpt lat="29.996341" lon="94.922536">
<time>2016-10-08T00:59:10Z</time></trkpt>
<trkpt lat="29.996351" lon="94.922396">
<time>2016-10-08T00:59:11Z</time></trkpt>
<trkpt lat="29.996342" lon="94.922247">
<time>2016-10-08T00:59:12Z</time></trkpt>
<trkpt lat="29.996292" lon="94.921867">
<time>2016-10-08T00:59:13Z</time></trkpt>
<trkpt lat="29.996232" lon="94.921418">
<time>2016-10-08T00:59:14Z</time></trkpt>
<trkpt lat="29.996193" lon="94.921158">
<time>2016-10-08T00:59:15Z</time></trkpt>
<trkpt lat="29.996153" lon="94.920998">
<time>2016-10-08T00:59:16Z</time></trkpt>
<trkpt lat="29.996093" lon="94.920858">
<time>2016-10-08T00:59:17Z</time></trkpt>
<trkpt lat="29.996063" lon="94.920778">
<time>2016-10-08T00:59:18Z</time></trkpt>
<trkpt lat="29.996013" lon="94.920708">
<time>2016-10-08T00:59:19Z</time></trkpt>
<trkpt lat="29.995873" lon="94.920499">
<time>2016-10-08T00:59:20Z</time></trkpt>
<trkpt lat="29.995743" lon="94.920329">
<time>2016-10-08T00:59:21Z</time></trkpt>
<trkpt lat="29.995643" lon="94.920199">
<time>2016-10-08T00:59:22Z</time></trkpt>
<trkpt lat="29.995553" lon="94.920069">
<time>2016-10-08T00:59:23Z</time></trkpt>
<trkpt lat="29.995374" lon="94.919819">
<time>2016-10-08T00:59:24Z</time></trkpt>
<trkpt lat="29.995174" lon="94.91955">
<time>2016-10-08T00:59:25Z</time></trkpt>
<trkpt lat="29.995044" lon="94.91936">
<time>2016-10-08T00:59:26Z</time></trkpt>
<trkpt lat="29.994894" lon="94.91917">
<time>2016-10-08T00:59:27Z</time></trkpt>
<trkpt lat="29.994764" lon="94.91898">
<time>2016-10-08T00:59:28Z</time></trkpt>
<trkpt lat="29.994664" lon="94.91885">
<time>2016-10-08T00:59:29Z</time></trkpt>
<trkpt lat="29.994585" lon="94.918721">
<time>2016-10-08T00:59:30Z</time></trkpt>
<trkpt lat="29.994515" lon="94.918601">
<time>2016-10-08T00:59:31Z</time></trkpt>
<trkpt lat="29.994455" lon="94.918491">
<time>2016-10-08T00:59:32Z</time></trkpt>
<trkpt lat="29.994345" lon="94.918271">
<time>2016-10-08T00:59:33Z</time></trkpt>
<trkpt lat="29.994275" lon="94.918121">
<time>2016-10-08T00:59:34Z</time></trkpt>
<trkpt lat="29.994155" lon="94.917841">
<time>2016-10-08T00:59:35Z</time></trkpt>
<trkpt lat="29.994075" lon="94.917652">
<time>2016-10-08T00:59:36Z</time></trkpt>
<trkpt lat="29.993896" lon="94.917162">
<time>2016-10-08T00:59:37Z</time></trkpt>
<trkpt lat="29.993766" lon="94.916812">
<time>2016-10-08T00:59:38Z</time></trkpt>
<trkpt lat="29.993576" lon="94.916343">
<time>2016-10-08T00:59:39Z</time></trkpt>
<trkpt lat="29.993387" lon="94.915863">
<time>2016-10-08T00:59:40Z</time></trkpt>
<trkpt lat="29.993257" lon="94.915534">
<time>2016-10-08T00:59:41Z</time></trkpt>
<trkpt lat="29.993007" lon="94.914914">
<time>2016-10-08T00:59:42Z</time></trkpt>
<trkpt lat="29.992957" lon="94.914794">
<time>2016-10-08T00:59:43Z</time></trkpt>
<trkpt lat="29.992897" lon="94.914624">
<time>2016-10-08T00:59:44Z</time></trkpt>
<trkpt lat="29.992848" lon="94.914495">
<time>2016-10-08T00:59:45Z</time></trkpt>
<trkpt lat="29.992788" lon="94.914295">
<time>2016-10-08T00:59:46Z</time></trkpt>
<trkpt lat="29.992768" lon="94.914165">
<time>2016-10-08T00:59:47Z</time></trkpt>
<trkpt lat="29.992758" lon="94.914005">
<time>2016-10-08T00:59:48Z</time></trkpt>
<trkpt lat="29.992758" lon="94.913825">
<time>2016-10-08T00:59:49Z</time></trkpt>
<trkpt lat="29.992788" lon="94.913405">
<time>2016-10-08T00:59:50Z</time></trkpt>
<trkpt lat="29.992818" lon="94.913016">
<time>2016-10-08T00:59:51Z</time></trkpt>
<trkpt lat="29.992869" lon="94.912236">
<time>2016-10-08T00:59:52Z</time></trkpt>
<trkpt lat="29.992899" lon="94.911277">
<time>2016-10-08T00:59:53Z</time></trkpt>
<trkpt lat="29.992929" lon="94.910887">
<time>2016-10-08T00:59:54Z</time></trkpt>
<trkpt lat="29.99299" lon="94.910497">
<time>2016-10-08T00:59:55Z</time></trkpt>
<trkpt lat="29.99301" lon="94.910368">
<time>2016-10-08T00:59:56Z</time></trkpt>
<trkpt lat="29.99305" lon="94.910208">
<time>2016-10-08T00:59:57Z</time></trkpt>
<trkpt lat="29.99308" lon="94.910058">
<time>2016-10-08T00:59:58Z</time></trkpt>
<trkpt lat="29.99311" lon="94.909918">
<time>2016-10-08T00:59:59Z</time></trkpt>
<trkpt lat="29.99315" lon="94.909758">
<time>2016-10-08T01:00:00Z</time></trkpt>
<trkpt lat="29.99318" lon="94.909608">
<time>2016-10-08T01:00:01Z</time></trkpt>
<trkpt lat="29.99321" lon="94.909448">
<time>2016-10-08T01:00:02Z</time></trkpt>
<trkpt lat="29.99324" lon="94.909308">
<time>2016-10-08T01:00:03Z</time></trkpt>
<trkpt lat="29.99327" lon="94.909188">
<time>2016-10-08T01:00:04Z</time></trkpt>
<trkpt lat="29.9933" lon="94.909088">
<time>2016-10-08T01:00:05Z</time></trkpt>
<trkpt lat="29.99334" lon="94.908938">
<time>2016-10-08T01:00:06Z</time></trkpt>
<trkpt lat="29.99338" lon="94.908798">
<time>2016-10-08T01:00:07Z</time></trkpt>
<trkpt lat="29.99342" lon="94.908678">
<time>2016-10-08T01:00:08Z</time></trkpt>
<trkpt lat="29.99347" lon="94.908539">
<time>2016-10-08T01:00:09Z</time></trkpt>
<trkpt lat="29.99352" lon="94.908419">
<time>2016-10-08T01:00:10Z</time></trkpt>
<trkpt lat="29.99356" lon="94.908309">
<time>2016-10-08T01:00:11Z</time></trkpt>
<trkpt lat="29.9936" lon="94.908229">
<time>2016-10-08T01:00:12Z</time></trkpt>
<trkpt lat="29.99364" lon="94.908149">
<time>2016-10-08T01:00:13Z</time></trkpt>
<trkpt lat="29.993691" lon="94.908049">
<time>2016-10-08T01:00:14Z</time></trkpt>
<trkpt lat="29.993771" lon="94.907959">
<time>2016-10-08T01:00:15Z</time></trkpt>
<trkpt lat="29.993841" lon="94.907879">
<time>2016-10-08T01:00:16Z</time></trkpt>
<trkpt lat="29.993951" lon="94.907789">
<time>2016-10-08T01:00:17Z</time></trkpt>
<trkpt lat="29.994151" lon="94.907679">
<time>2016-10-08T01:00:18Z</time></trkpt>
<trkpt lat="29.994471" lon="94.907539">
<time>2016-10-08T01:00:19Z</time></trkpt>
<trkpt lat="29.994951" lon="94.907329">
<time>2016-10-08T01:00:20Z</time></trkpt>
<trkpt lat="29.995061" lon="94.907259">
<time>2016-10-08T01:00:21Z</time></trkpt>
<trkpt lat="29.995191" lon="94.907139">
<time>2016-10-08T01:00:22Z</time></trkpt>
<trkpt lat="29.995231" lon="94.907069">
<time>2016-10-08T01:00:23Z</time></trkpt>
<trkpt lat="29.995281" lon="94.906969">
<time>2016-10-08T01:00:24Z</time></trkpt>
<trkpt lat="29.995311" lon="94.906869">
<time>2016-10-08T01:00:25Z</time></trkpt>
<trkpt lat="29.995341" lon="94.906769">
<time>2016-10-08T01:00:26Z</time></trkpt>
<trkpt lat="29.995371" lon="94.906679">
<time>2016-10-08T01:00:27Z</time></trkpt>
<trkpt lat="29.995411" lon="94.906599">
<time>2016-10-08T01:00:28Z</time></trkpt>
<trkpt lat="29.995451" lon="94.906529">
<time>2016-10-08T01:00:29Z</time></trkpt>
<trkpt lat="29.995501" lon="94.90646">
<time>2016-10-08T01:00:30Z</time></trkpt>
<trkpt lat="29.995581" lon="94.90636">
<time>2016-10-08T01:00:31Z</time></trkpt>
<trkpt lat="29.995661" lon="94.90628">
<time>2016-10-08T01:00:32Z</time></trkpt>
<trkpt lat="29.995741" lon="94.9062">
<time>2016-10-08T01:00:33Z</time></trkpt>
<trkpt lat="29.995801" lon="94.90614">
<time>2016-10-08T01:00:34Z</time></trkpt>
<trkpt lat="29.995871" lon="94.90608">
<time>2016-10-08T01:00:35Z</time></trkpt>
<trkpt lat="29.995931" lon="94.90602">
<time>2016-10-08T01:00:36Z</time></trkpt>
<trkpt lat="29.996011" lon="94.90595">
<time>2016-10-08T01:00:37Z</time></trkpt>
<trkpt lat="29.996081" lon="94.90587">
<time>2016-10-08T01:00:38Z</time></trkpt>
<trkpt lat="29.996131" lon="94.90582">
<time>2016-10-08T01:00:39Z</time></trkpt>
<trkpt lat="29.996221" lon="94.90575">
<time>2016-10-08T01:00:40Z</time></trkpt>
<trkpt lat="29.996291" lon="94.90571">
<time>2016-10-08T01:00:41Z</time></trkpt>
<trkpt lat="29.996381" lon="94.90565">
<time>2016-10-08T01:00:42Z</time></trkpt>
<trkpt lat="29.996551" lon="94.90558">
<time>2016-10-08T01:00:43Z</time></trkpt>
<trkpt lat="29.996751" lon="94.90548">
<time>2016-10-08T01:00:44Z</time></trkpt>
<trkpt lat="29.996941" lon="94.90538">
<time>2016-10-08T01:00:45Z</time></trkpt>
<trkpt lat="29.997131" lon="94.90533">
<time>2016-10-08T01:00:46Z</time></trkpt>
<trkpt lat="29.997311" lon="94.90531">
<time>2016-10-08T01:00:47Z</time></trkpt>
<trkpt lat="29.997481" lon="94.90529">
<time>2016-10-08T01:00:48Z</time></trkpt>
<trkpt lat="29.997641" lon="94.9053">
<time>2016-10-08T01:00:49Z</time></trkpt>
<trkpt lat="29.997841" lon="94.90533">
<time>2016-10-08T01:00:50Z</time></trkpt>
<trkpt lat="29.998041" lon="94.90536">
<time>2016-10-08T01:00:51Z</time></trkpt>
<trkpt lat="29.998231" lon="94.90537">
<time>2016-10-08T01:00:52Z</time></trkpt>
<trkpt lat="29.998431" lon="94.90536">
<time>2016-10-08T01:00:53Z</time></trkpt>
<trkpt lat="29.998621" lon="94.90534">
<time>2016-10-08T01:00:54Z</time></trkpt>
<trkpt lat="29.998831" lon="94.9053">
<time>2016-10-08T01:00:55Z</time></trkpt>
<trkpt lat="29.999071" lon="94.90527">
<time>2016-10-08T01:00:56Z</time></trkpt>
<trkpt lat="29.999311" lon="94.90522">
<time>2016-10-08T01:00:57Z</time></trkpt>
<trkpt lat="29.999541" lon="94.90516">
<time>2016-10-08T01:00:58Z</time></trkpt>
<trkpt lat="29.999671" lon="94.90512">
<time>2016-10-08T01:00:59Z</time></trkpt>
<trkpt lat="29.999811" lon="94.90506">
<time>2016-10-08T01:01:00Z</time></trkpt>
<trkpt lat="29.999891" lon="94.90501">
<time>2016-10-08T01:01:01Z</time></trkpt>
<trkpt lat="29.999971" lon="94.90496">
<time>2016-10-08T01:01:02Z</time></trkpt>
<trkpt lat="30.000031" lon="94.90491">
<time>2016-10-08T01:01:03Z</time></trkpt>
<trkpt lat="30.000101" lon="94.90484">
<time>2016-10-08T01:01:04Z</time></trkpt>
<trkpt lat="30.000161" lon="94.90479">
<time>2016-10-08T01:01:05Z</time></trkpt>
<trkpt lat="30.000311" lon="94.90462">
<time>2016-10-08T01:01:06Z</time></trkpt>
<trkpt lat="30.000571" lon="94.90428">
<time>2016-10-08T01:01:07Z</time></trkpt>
<trkpt lat="30.000731" lon="94.90407">
<time>2016-10-08T01:01:08Z</time></trkpt>
<trkpt lat="30.000912" lon="94.90384">
<time>2016-10-08T01:01:09Z</time></trkpt>
<trkpt lat="30.001452" lon="94.90313">
<time>2016-10-08T01:01:10Z</time></trkpt>
<trkpt lat="30.002042" lon="94.902361">
<time>2016-10-08T01:01:11Z</time></trkpt>
<trkpt lat="30.002412" lon="94.901871">
<time>2016-10-08T01:01:12Z</time></trkpt>
<trkpt lat="30.002522" lon="94.901731">
<time>2016-10-08T01:01:13Z</time></trkpt>
<trkpt lat="30.002632" lon="94.901581">
<time>2016-10-08T01:01:14Z</time></trkpt>
<trkpt lat="30.002762" lon="94.901361">
<time>2016-10-08T01:01:15Z</time></trkpt>
<trkpt lat="30.002852" lon="94.901181">
<time>2016-10-08T01:01:16Z</time></trkpt>
<trkpt lat="30.002912" lon="94.901001">
<time>2016-10-08T01:01:17Z</time></trkpt>
<trkpt lat="30.002952" lon="94.900811">
<time>2016-10-08T01:01:18Z</time></trkpt>
<trkpt lat="30.002962" lon="94.900661">
<time>2016-10-08T01:01:19Z</time></trkpt>
<trkpt lat="30.002982" lon="94.900471">
<time>2016-10-08T01:01:20Z</time></trkpt>
<trkpt lat="30.002982" lon="94.900321">
<time>2016-10-08T01:01:21Z</time></trkpt>
<trkpt lat="30.002992" lon="94.899911">
<time>2016-10-08T01:01:22Z</time></trkpt>
<trkpt lat="30.003002" lon="94.899601">
<time>2016-10-08T01:01:23Z</time></trkpt>
<trkpt lat="30.003012" lon="94.899041">
<time>2016-10-08T01:01:24Z</time></trkpt>
<trkpt lat="30.003022" lon="94.898511">
<time>2016-10-08T01:01:25Z</time></trkpt>
<trkpt lat="30.003042" lon="94.898111">
<time>2016-10-08T01:01:26Z</time></trkpt>
<trkpt lat="30.003042" lon="94.897981">
<time>2016-10-08T01:01:27Z</time></trkpt>
<trkpt lat="30.003052" lon="94.897881">
<time>2016-10-08T01:01:28Z</time></trkpt>
<trkpt lat="30.003061" lon="94.897751">
<time>2016-10-08T01:01:29Z</time></trkpt>
<trkpt lat="30.003081" lon="94.897601">
<time>2016-10-08T01:01:30Z</time></trkpt>
<trkpt lat="30.003111" lon="94.897451">
<time>2016-10-08T01:01:31Z</time></trkpt>
<trkpt lat="30.003151" lon="94.897261">
<time>2016-10-08T01:01:32Z</time></trkpt>
<trkpt lat="30.003201" lon="94.897081">
<time>2016-10-08T01:01:33Z</time></trkpt>
<trkpt lat="30.003361" lon="94.896491">
<time>2016-10-08T01:01:34Z</time></trkpt>
<trkpt lat="30.003411" lon="94.896311">
<time>2016-10-08T01:01:35Z</time></trkpt>
<trkpt lat="30.003461" lon="94.896151">
<time>2016-10-08T01:01:36Z</time></trkpt>
<trkpt lat="30.003521" lon="94.896031">
<time>2016-10-08T01:01:37Z</time></trkpt>
<trkpt lat="30.003591" lon="94.895901">
<time>2016-10-08T01:01:38Z</time></trkpt>
<trkpt lat="30.003971" lon="94.895361">
<time>2016-10-08T01:01:39Z</time></trkpt>
<trkpt lat="30.004071" lon="94.895221">
<time>2016-10-08T01:01:40Z</time></trkpt>
<trkpt lat="30.004131" lon="94.895131">
<time>2016-10-08T01:01:41Z</time></trkpt>
<trkpt lat="30.004181" lon="94.895041">
<time>2016-10-08T01:01:42Z</time></trkpt>
<trkpt lat="30.004261" lon="94.894861">
<time>2016-10-08T01:01:43Z</time></trkpt>
<trkpt lat="30.004331" lon="94.894661">
<time>2016-10-08T01:01:44Z</time></trkpt>
<trkpt lat="30.004371" lon="94.894501">
<time>2016-10-08T01:01:45Z</time></trkpt>
<trkpt lat="30.004421" lon="94.894331">
<time>2016-10-08T01:01:46Z</time></trkpt>
<trkpt lat="30.004511" lon="94.893941">
<time>2016-10-08T01:01:47Z</time></trkpt>
<trkpt lat="30.004561" lon="94.89363">
<time>2016-10-08T01:01:48Z</time></trkpt>
<trkpt lat="30.004591" lon="94.89351">
<time>2016-10-08T01:01:49Z</time></trkpt>
<trkpt lat="30.00461" lon="94.89334">
<time>2016-10-08T01:01:50Z</time></trkpt>
<trkpt lat="30.00464" lon="94.89301">
<time>2016-10-08T01:01:51Z</time></trkpt>
<trkpt lat="30.00466" lon="94.89267">
<time>2016-10-08T01:01:52Z</time></trkpt>
<trkpt lat="30.00466" lon="94.89255">
<time>2016-10-08T01:01:53Z</time></trkpt>
<trkpt lat="30.00466" lon="94.8924">
<time>2016-10-08T01:01:54Z</time></trkpt>
<trkpt lat="30.00465" lon="94.89229">
<time>2016-10-08T01:01:55Z</time></trkpt>
<trkpt lat="30.00463" lon="94.89213">
<time>2016-10-08T01:01:56Z</time></trkpt>
<trkpt lat="30.00461" lon="94.89202">
<time>2016-10-08T01:01:57Z</time></trkpt>
<trkpt lat="30.00458" lon="94.89193">
<time>2016-10-08T01:01:58Z</time></trkpt>
<trkpt lat="30.00455" lon="94.89183">
<time>2016-10-08T01:01:59Z</time></trkpt>
<trkpt lat="30.00451" lon="94.89174">
<time>2016-10-08T01:02:00Z</time></trkpt>
<trkpt lat="30.00437" lon="94.89145">
<time>2016-10-08T01:02:01Z</time></trkpt>
<trkpt lat="30.00428" lon="94.89131">
<time>2016-10-08T01:02:02Z</time></trkpt>
<trkpt lat="30.00413" lon="94.89101">
<time>2016-10-08T01:02:03Z</time></trkpt>
<trkpt lat="30.003769" lon="94.890309">
<time>2016-10-08T01:02:04Z</time></trkpt>
<trkpt lat="30.003529" lon="94.889839">
<time>2016-10-08T01:02:05Z</time></trkpt>
<trkpt lat="30.003299" lon="94.889409">
<time>2016-10-08T01:02:06Z</time></trkpt>
<trkpt lat="30.003219" lon="94.889259">
<time>2016-10-08T01:02:07Z</time></trkpt>
<trkpt lat="30.003129" lon="94.889079">
<time>2016-10-08T01:02:08Z</time></trkpt>
<trkpt lat="30.003049" lon="94.888909">
<time>2016-10-08T01:02:09Z</time></trkpt>
<trkpt lat="30.002999" lon="94.888789">
<time>2016-10-08T01:02:10Z</time></trkpt>
<trkpt lat="30.002928" lon="94.888589">
<time>2016-10-08T01:02:11Z</time></trkpt>
<trkpt lat="30.002808" lon="94.888229">
<time>2016-10-08T01:02:12Z</time></trkpt>
<trkpt lat="30.002628" lon="94.887688">
<time>2016-10-08T01:02:13Z</time></trkpt>
<trkpt lat="30.002548" lon="94.887468">
<time>2016-10-08T01:02:14Z</time></trkpt>
<trkpt lat="30.002458" lon="94.887218">
<time>2016-10-08T01:02:15Z</time></trkpt>
<trkpt lat="30.002388" lon="94.887048">
<time>2016-10-08T01:02:16Z</time></trkpt>
<trkpt lat="30.002327" lon="94.886928">
<time>2016-10-08T01:02:17Z</time></trkpt>
<trkpt lat="30.002267" lon="94.886818">
<time>2016-10-08T01:02:18Z</time></trkpt>
<trkpt lat="30.002197" lon="94.886708">
<time>2016-10-08T01:02:19Z</time></trkpt>
<trkpt lat="30.002137" lon="94.886608">
<time>2016-10-08T01:02:20Z</time></trkpt>
<trkpt lat="30.002077" lon="94.886528">
<time>2016-10-08T01:02:21Z</time></trkpt>
<trkpt lat="30.001987" lon="94.886418">
<time>2016-10-08T01:02:22Z</time></trkpt>
<trkpt lat="30.001787" lon="94.886197">
<time>2016-10-08T01:02:23Z</time></trkpt>
<trkpt lat="30.001567" lon="94.885967">
<time>2016-10-08T01:02:24Z</time></trkpt>
<trkpt lat="30.001317" lon="94.885747">
<time>2016-10-08T01:02:25Z</time></trkpt>
<trkpt lat="30.001007" lon="94.885477">
<time>2016-10-08T01:02:26Z</time></trkpt>
<trkpt lat="30.000696" lon="94.885217">
<time>2016-10-08T01:02:27Z</time></trkpt>
<trkpt lat="30.000446" lon="94.884997">
<time>2016-10-08T01:02:28Z</time></trkpt>
<trkpt lat="30.000246" lon="94.884827">
<time>2016-10-08T01:02:29Z</time></trkpt>
<trkpt lat="30.000026" lon="94.884637">
<time>2016-10-08T01:02:30Z</time></trkpt>
<trkpt lat="29.998925" lon="94.883696">
<time>2016-10-08T01:02:31Z</time></trkpt>
<trkpt lat="29.998125" lon="94.883005">
<time>2016-10-08T01:02:32Z</time></trkpt>
<trkpt lat="29.997885" lon="94.882805">
<time>2016-10-08T01:02:33Z</time></trkpt>
<trkpt lat="29.997685" lon="94.882675">
<time>2016-10-08T01:02:34Z</time></trkpt>
<trkpt lat="29.997505" lon="94.882575">
<time>2016-10-08T01:02:35Z</time></trkpt>
<trkpt lat="29.997244" lon="94.882445">
<time>2016-10-08T01:02:36Z</time></trkpt>
<trkpt lat="29.996934" lon="94.882285">
<time>2016-10-08T01:02:37Z</time></trkpt>
<trkpt lat="29.996654" lon="94.882125">
<time>2016-10-08T01:02:38Z</time></trkpt>
<trkpt lat="29.996404" lon="94.881965">
<time>2016-10-08T01:02:39Z</time></trkpt>
<trkpt lat="29.996174" lon="94.881795">
<time>2016-10-08T01:02:40Z</time></trkpt>
<trkpt lat="29.995984" lon="94.881664">
<time>2016-10-08T01:02:41Z</time></trkpt>
<trkpt lat="29.995754" lon="94.881524">
<time>2016-10-08T01:02:42Z</time></trkpt>
<trkpt lat="29.995524" lon="94.881374">
<time>2016-10-08T01:02:43Z</time></trkpt>
<trkpt lat="29.995403" lon="94.881294">
<time>2016-10-08T01:02:44Z</time></trkpt>
<trkpt lat="29.995313" lon="94.881214">
<time>2016-10-08T01:02:45Z</time></trkpt>
<trkpt lat="29.995253" lon="94.881154">
<time>2016-10-08T01:02:46Z</time></trkpt>
<trkpt lat="29.995073" lon="94.880984">
<time>2016-10-08T01:02:47Z</time></trkpt>
<trkpt lat="29.994863" lon="94.880764">
<time>2016-10-08T01:02:48Z</time></trkpt>
<trkpt lat="29.994773" lon="94.880684">
<time>2016-10-08T01:02:49Z</time></trkpt>
<trkpt lat="29.994663" lon="94.880554">
<time>2016-10-08T01:02:50Z</time></trkpt>
<trkpt lat="29.994563" lon="94.880414">
<time>2016-10-08T01:02:51Z</time></trkpt>
<trkpt lat="29.994403" lon="94.880193">
<time>2016-10-08T01:02:52Z</time></trkpt>
<trkpt lat="29.994312" lon="94.880073">
<time>2016-10-08T01:02:53Z</time></trkpt>
<trkpt lat="29.994152" lon="94.879873">
<time>2016-10-08T01:02:54Z</time></trkpt>
<trkpt lat="29.994032" lon="94.879713">
<time>2016-10-08T01:02:55Z</time></trkpt>
<trkpt lat="29.993902" lon="94.879553">
<time>2016-10-08T01:02:56Z</time></trkpt>
<trkpt lat="29.993682" lon="94.879283">
<time>2016-10-08T01:02:57Z</time></trkpt>
<trkpt lat="29.993502" lon="94.879062">
<time>2016-10-08T01:02:58Z</time></trkpt>
<trkpt lat="29.993281" lon="94.878792">
<time>2016-10-08T01:02:59Z</time></trkpt>
<trkpt lat="29.993041" lon="94.878502">
<time>2016-10-08T01:03:00Z</time></trkpt>
<trkpt lat="29.992881" lon="94.878302">
<time>2016-10-08T01:03:01Z</time></trkpt>
<trkpt lat="29.992761" lon="94.878142">
<time>2016-10-08T01:03:02Z</time></trkpt>
<trkpt lat="29.992551" lon="94.877901">
<time>2016-10-08T01:03:03Z</time></trkpt>
<trkpt lat="29.99237" lon="94.877681">
<time>2016-10-08T01:03:04Z</time></trkpt>
<trkpt lat="29.99221" lon="94.877521">
<time>2016-10-08T01:03:05Z</time></trkpt>
<trkpt lat="29.99208" lon="94.877391">
<time>2016-10-08T01:03:06Z</time></trkpt>
<trkpt lat="29.9917" lon="94.877101">
<time>2016-10-08T01:03:07Z</time></trkpt>
<trkpt lat="29.99148" lon="94.87693">
<time>2016-10-08T01:03:08Z</time></trkpt>
<trkpt lat="29.991109" lon="94.87663">
<time>2016-10-08T01:03:09Z</time></trkpt>
<trkpt lat="29.990909" lon="94.87645">
<time>2016-10-08T01:03:10Z</time></trkpt>
<trkpt lat="29.990769" lon="94.87632">
<time>2016-10-08T01:03:11Z</time></trkpt>
<trkpt lat="29.990559" lon="94.87615">
<time>2016-10-08T01:03:12Z</time></trkpt>
<trkpt lat="29.990389" lon="94.87604">
<time>2016-10-08T01:03:13Z</time></trkpt>
<trkpt lat="29.990048" lon="94.875829">
<time>2016-10-08T01:03:14Z</time></trkpt>
<trkpt lat="29.989758" lon="94.875649">
<time>2016-10-08T01:03:15Z</time></trkpt>
<trkpt lat="29.989568" lon="94.875519">
<time>2016-10-08T01:03:16Z</time></trkpt>
<trkpt lat="29.989338" lon="94.875369">
<time>2016-10-08T01:03:17Z</time></trkpt>
<trkpt lat="29.989118" lon="94.875219">
<time>2016-10-08T01:03:18Z</time></trkpt>
<trkpt lat="29.989008" lon="94.875139">
<time>2016-10-08T01:03:19Z</time></trkpt>
<trkpt lat="29.988868" lon="94.875029">
<time>2016-10-08T01:03:20Z</time></trkpt>
<trkpt lat="29.988738" lon="94.874928">
<time>2016-10-08T01:03:21Z</time></trkpt>
<trkpt lat="29.988597" lon="94.874818">
<time>2016-10-08T01:03:22Z</time></trkpt>
<trkpt lat="29.988467" lon="94.874688">
<time>2016-10-08T01:03:23Z</time></trkpt>
<trkpt lat="29.988377" lon="94.874588">
<time>2016-10-08T01:03:24Z</time></trkpt>
<trkpt lat="29.988247" lon="94.874468">
<time>2016-10-08T01:03:25Z</time></trkpt>
<trkpt lat="29.988097" lon="94.874338">
<time>2016-10-08T01:03:26Z</time></trkpt>
<trkpt lat="29.988057" lon="94.874308">
<time>2016-10-08T01:03:27Z</time></trkpt>
<trkpt lat="29.987947" lon="94.874228">
<time>2016-10-08T01:03:28Z</time></trkpt>
<trkpt lat="29.987847" lon="94.874158">
<time>2016-10-08T01:03:29Z</time></trkpt>
<trkpt lat="29.987757" lon="94.874078">
<time>2016-10-08T01:03:30Z</time></trkpt>
<trkpt lat="29.987647" lon="94.873967">
<time>2016-10-08T01:03:31Z</time></trkpt>
<trkpt lat="29.987566" lon="94.873867">
<time>2016-10-08T01:03:32Z</time></trkpt>
<trkpt lat="29.987496" lon="94.873767">
<time>2016-10-08T01:03:33Z</time></trkpt>
<trkpt lat="29.987426" lon="94.873657">
<time>2016-10-08T01:03:34Z</time></trkpt>
<trkpt lat="29.987376" lon="94.873577">
<time>2016-10-08T01:03:35Z</time></trkpt>
<trkpt lat="29.987326" lon="94.873487">
<time>2016-10-08T01:03:36Z</time></trkpt>
<trkpt lat="29.987276" lon="94.873417">
<time>2016-10-08T01:03:37Z</time></trkpt>
<trkpt lat="29.987246" lon="94.873357">
<time>2016-10-08T01:03:38Z</time></trkpt>
<trkpt lat="29.987206" lon="94.873307">
<time>2016-10-08T01:03:39Z</time></trkpt>
<trkpt lat="29.987176" lon="94.873247">
<time>2016-10-08T01:03:40Z</time></trkpt>
<trkpt lat="29.987136" lon="94.873187">
<time>2016-10-08T01:03:41Z</time></trkpt>
<trkpt lat="29.987096" lon="94.873116">
<time>2016-10-08T01:03:42Z</time></trkpt>
<trkpt lat="29.987066" lon="94.873066">
<time>2016-10-08T01:03:43Z</time></trkpt>
<trkpt lat="29.987036" lon="94.873016">
<time>2016-10-08T01:03:44Z</time></trkpt>
<trkpt lat="29.986995" lon="94.872956">
<time>2016-10-08T01:03:45Z</time></trkpt>
<trkpt lat="29.986945" lon="94.872906">
<time>2016-10-08T01:03:46Z</time></trkpt>
<trkpt lat="29.986905" lon="94.872856">
<time>2016-10-08T01:03:47Z</time></trkpt>
<trkpt lat="29.986865" lon="94.872806">
<time>2016-10-08T01:03:48Z</time></trkpt>
<trkpt lat="29.986825" lon="94.872766">
<time>2016-10-08T01:03:49Z</time></trkpt>
<trkpt lat="29.986775" lon="94.872726">
<time>2016-10-08T01:03:50Z</time></trkpt>
<trkpt lat="29.986725" lon="94.872676">
<time>2016-10-08T01:03:51Z</time></trkpt>
<trkpt lat="29.986675" lon="94.872626">
<time>2016-10-08T01:03:52Z</time></trkpt>
<trkpt lat="29.986625" lon="94.872586">
<time>2016-10-08T01:03:53Z</time></trkpt>
<trkpt lat="29.986585" lon="94.872546">
<time>2016-10-08T01:03:54Z</time></trkpt>
<trkpt lat="29.986545" lon="94.872516">
<time>2016-10-08T01:03:55Z</time></trkpt>
<trkpt lat="29.986495" lon="94.872486">
<time>2016-10-08T01:03:56Z</time></trkpt>
<trkpt lat="29.986435" lon="94.872436">
<time>2016-10-08T01:03:57Z</time></trkpt>
<trkpt lat="29.986385" lon="94.872406">
<time>2016-10-08T01:03:58Z</time></trkpt>
<trkpt lat="29.986305" lon="94.872376">
<time>2016-10-08T01:03:59Z</time></trkpt>
<trkpt lat="29.986245" lon="94.872356">
<time>2016-10-08T01:04:00Z</time></trkpt>
<trkpt lat="29.986165" lon="94.872336">
<time>2016-10-08T01:04:01Z</time></trkpt>
<trkpt lat="29.986035" lon="94.872326">
<time>2016-10-08T01:04:02Z</time></trkpt>
<trkpt lat="29.985895" lon="94.872326">
<time>2016-10-08T01:04:03Z</time></trkpt>
<trkpt lat="29.985825" lon="94.872326">
<time>2016-10-08T01:04:04Z</time></trkpt>
<trkpt lat="29.985745" lon="94.872326">
<time>2016-10-08T01:04:05Z</time></trkpt>
<trkpt lat="29.985625" lon="94.872336">
<time>2016-10-08T01:04:06Z</time></trkpt>
<trkpt lat="29.985555" lon="94.872336">
<time>2016-10-08T01:04:07Z</time></trkpt>
<trkpt lat="29.985475" lon="94.872326">
<time>2016-10-08T01:04:08Z</time></trkpt>
<trkpt lat="29.985355" lon="94.872326">
<time>2016-10-08T01:04:09Z</time></trkpt>
<trkpt lat="29.985175" lon="94.872326">
<time>2016-10-08T01:04:10Z</time></trkpt>
<trkpt lat="29.985005" lon="94.872306">
<time>2016-10-08T01:04:11Z</time></trkpt>
<trkpt lat="29.984915" lon="94.872286">
<time>2016-10-08T01:04:12Z</time></trkpt>
<trkpt lat="29.984805" lon="94.872256">
<time>2016-10-08T01:04:13Z</time></trkpt>
<trkpt lat="29.984635" lon="94.872205">
<time>2016-10-08T01:04:14Z</time></trkpt>
<trkpt lat="29.984545" lon="94.872175">
<time>2016-10-08T01:04:15Z</time></trkpt>
<trkpt lat="29.984435" lon="94.872155">
<time>2016-10-08T01:04:16Z</time></trkpt>
<trkpt lat="29.984325" lon="94.872145">
<time>2016-10-08T01:04:17Z</time></trkpt>
<trkpt lat="29.984225" lon="94.872145">
<time>2016-10-08T01:04:18Z</time></trkpt>
<trkpt lat="29.984125" lon="94.872155">
<time>2016-10-08T01:04:19Z</time></trkpt>
<trkpt lat="29.984015" lon="94.872165">
<time>2016-10-08T01:04:20Z</time></trkpt>
<trkpt lat="29.983865" lon="94.872185">
<time>2016-10-08T01:04:21Z</time></trkpt>
<trkpt lat="29.983755" lon="94.872195">
<time>2016-10-08T01:04:22Z</time></trkpt>
<trkpt lat="29.983665" lon="94.872215">
<time>2016-10-08T01:04:23Z</time></trkpt>
<trkpt lat="29.983485" lon="94.872226">
<time>2016-10-08T01:04:24Z</time></trkpt>
<trkpt lat="29.983315" lon="94.872246">
<time>2016-10-08T01:04:25Z</time></trkpt>
<trkpt lat="29.983155" lon="94.872276">
<time>2016-10-08T01:04:26Z</time></trkpt>
<trkpt lat="29.983055" lon="94.872286">
<time>2016-10-08T01:04:27Z</time></trkpt>
<trkpt lat="29.982935" lon="94.872306">
<time>2016-10-08T01:04:28Z</time></trkpt>
<trkpt lat="29.982825" lon="94.872326">
<time>2016-10-08T01:04:29Z</time></trkpt>
<trkpt lat="29.982725" lon="94.872346">
<time>2016-10-08T01:04:30Z</time></trkpt>
<trkpt lat="29.982605" lon="94.872366">
<time>2016-10-08T01:04:31Z</time></trkpt>
<trkpt lat="29.982535" lon="94.872386">
<time>2016-10-08T01:04:32Z</time></trkpt>
<trkpt lat="29.982425" lon="94.872416">
<time>2016-10-08T01:04:33Z</time></trkpt>
<trkpt lat="29.982315" lon="94.872436">
<time>2016-10-08T01:04:34Z</time></trkpt>
<trkpt lat="29.982215" lon="94.872466">
<time>2016-10-08T01:04:35Z</time></trkpt>
<trkpt lat="29.982105" lon="94.872496">
<time>2016-10-08T01:04:36Z</time></trkpt>
<trkpt lat="29.981985" lon="94.872526">
<time>2016-10-08T01:04:37Z</time></trkpt>
<trkpt lat="29.981875" lon="94.872546">
<time>2016-10-08T01:04:38Z</time></trkpt>
<trkpt lat="29.981765" lon="94.872576">
<time>2016-10-08T01:04:39Z</time></trkpt>
<trkpt lat="29.981665" lon="94.872596">
<time>2016-10-08T01:04:40Z</time></trkpt>
<trkpt lat="29.981555" lon="94.872626">
<time>2016-10-08T01:04:41Z</time></trkpt>
<trkpt lat="29.981495" lon="94.872646">
<time>2016-10-08T01:04:42Z</time></trkpt>
<trkpt lat="29.981435" lon="94.872656">
<time>2016-10-08T01:04:43Z</time></trkpt>
<trkpt lat="29.981325" lon="94.872686">
<time>2016-10-08T01:04:44Z</time></trkpt>
<trkpt lat="29.981245" lon="94.872706">
<time>2016-10-08T01:04:45Z</time></trkpt>
<trkpt lat="29.981125" lon="94.872736">
<time>2016-10-08T01:04:46Z</time></trkpt>
<trkpt lat="29.981035" lon="94.872756">
<time>2016-10-08T01:04:47Z</time></trkpt>
<trkpt lat="29.980955" lon="94.872776">
<time>2016-10-08T01:04:48Z</time></trkpt>
<trkpt lat="29.980855" lon="94.872796">
<time>2016-10-08T01:04:49Z</time></trkpt>
<trkpt lat="29.980785" lon="94.872816">
<time>2016-10-08T01:04:50Z</time></trkpt>
<trkpt lat="29.980685" lon="94.872826">
<time>2016-10-08T01:04:51Z</time></trkpt>
<trkpt lat="29.980585" lon="94.872846">
<time>2016-10-08T01:04:52Z</time></trkpt>
<trkpt lat="29.980465" lon="94.872846">
<time>2016-10-08T01:04:53Z</time></trkpt>
<trkpt lat="29.980375" lon="94.872846">
<time>2016-10-08T01:04:54Z</time></trkpt>
<trkpt lat="29.980305" lon="94.872846">
<time>2016-10-08T01:04:55Z</time></trkpt>
<trkpt lat="29.980225" lon="94.872846">
<time>2016-10-08T01:04:56Z</time></trkpt>
<trkpt lat="29.980125" lon="94.872846">
<time>2016-10-08T01:04:57Z</time></trkpt>
<trkpt lat="29.980025" lon="94.872826">
<time>2016-10-08T01:04:58Z</time></trkpt>
<trkpt lat="29.979935" lon="94.872816">
<time>2016-10-08T01:04:59Z</time></trkpt>
<trkpt lat="29.979865" lon="94.872796">
<time>2016-10-08T01:05:00Z</time></trkpt>
<trkpt lat="29.979795" lon="94.872766">
<time>2016-10-08T01:05:01Z</time></trkpt>
<trkpt lat="29.979735" lon="94.872746">
<time>2016-10-08T01:05:02Z</time></trkpt>
<trkpt lat="29.979655" lon="94.872716">
<time>2016-10-08T01:05:03Z</time></trkpt>
<trkpt lat="29.979555" lon="94.872656">
<time>2016-10-08T01:05:04Z</time></trkpt>
<trkpt lat="29.979385" lon="94.872566">
<time>2016-10-08T01:05:05Z</time></trkpt>
<trkpt lat="29.979205" lon="94.872456">
<time>2016-10-08T01:05:06Z</time></trkpt>
<trkpt lat="29.979005" lon="94.872346">
<time>2016-10-08T01:05:07Z</time></trkpt>
<trkpt lat="29.978885" lon="94.872276">
<time>2016-10-08T01:05:08Z</time></trkpt>
<trkpt lat="29.978815" lon="94.872246">
<time>2016-10-08T01:05:09Z</time></trkpt>
<trkpt lat="29.978695" lon="94.872206">
<time>2016-10-08T01:05:10Z</time></trkpt>
<trkpt lat="29.978515" lon="94.872176">
<time>2016-10-08T01:05:11Z</time></trkpt>
<trkpt lat="29.978414" lon="94.872156">
<time>2016-10-08T01:05:12Z</time></trkpt>
<trkpt lat="29.978344" lon="94.872135">
<time>2016-10-08T01:05:13Z</time></trkpt>
<trkpt lat="29.978244" lon="94.872095">
<time>2016-10-08T01:05:14Z</time></trkpt>
<trkpt lat="29.978174" lon="94.872065">
<time>2016-10-08T01:05:15Z</time></trkpt>
<trkpt lat="29.978084" lon="94.872005">
<time>2016-10-08T01:05:16Z</time></trkpt>
<trkpt lat="29.977914" lon="94.871865">
<time>2016-10-08T01:05:17Z</time></trkpt>
<trkpt lat="29.977664" lon="94.871645">
<time>2016-10-08T01:05:18Z</time></trkpt>
<trkpt lat="29.977394" lon="94.871405">
<time>2016-10-08T01:05:19Z</time></trkpt>
<trkpt lat="29.977284" lon="94.871305">
<time>2016-10-08T01:05:20Z</time></trkpt>
<trkpt lat="29.977163" lon="94.871154">
<time>2016-10-08T01:05:21Z</time></trkpt>
<trkpt lat="29.977103" lon="94.871064">
<time>2016-10-08T01:05:22Z</time></trkpt>
<trkpt lat="29.977023" lon="94.870934">
<time>2016-10-08T01:05:23Z</time></trkpt>
<trkpt lat="29.976913" lon="94.870784">
<time>2016-10-08T01:05:24Z</time></trkpt>
<trkpt lat="29.976793" lon="94.870624">
<time>2016-10-08T01:05:25Z</time></trkpt>
<trkpt lat="29.976683" lon="94.870494">
<time>2016-10-08T01:05:26Z</time></trkpt>
<trkpt lat="29.976592" lon="94.870393">
<time>2016-10-08T01:05:27Z</time></trkpt>
<trkpt lat="29.976502" lon="94.870293">
<time>2016-10-08T01:05:28Z</time></trkpt>
<trkpt lat="29.976382" lon="94.870173">
<time>2016-10-08T01:05:29Z</time></trkpt>
<trkpt lat="29.976262" lon="94.870063">
<time>2016-10-08T01:05:30Z</time></trkpt>
<trkpt lat="29.976082" lon="94.869883">
<time>2016-10-08T01:05:31Z</time></trkpt>
<trkpt lat="29.975882" lon="94.869713">
<time>2016-10-08T01:05:32Z</time></trkpt>
<trkpt lat="29.975762" lon="94.869622">
<time>2016-10-08T01:05:33Z</time></trkpt>
<trkpt lat="29.975571" lon="94.869482">
<time>2016-10-08T01:05:34Z</time></trkpt>
<trkpt lat="29.975411" lon="94.869362">
<time>2016-10-08T01:05:35Z</time></trkpt>
<trkpt lat="29.975271" lon="94.869272">
<time>2016-10-08T01:05:36Z</time></trkpt>
<trkpt lat="29.975131" lon="94.869192">
<time>2016-10-08T01:05:37Z</time></trkpt>
<trkpt lat="29.975031" lon="94.869152">
<time>2016-10-08T01:05:38Z</time></trkpt>
<trkpt lat="29.974911" lon="94.869112">
<time>2016-10-08T01:05:39Z</time></trkpt>
<trkpt lat="29.974751" lon="94.869102">
<time>2016-10-08T01:05:40Z</time></trkpt>
<trkpt lat="29.974641" lon="94.869102">
<time>2016-10-08T01:05:41Z</time></trkpt>
<trkpt lat="29.974531" lon="94.869102">
<time>2016-10-08T01:05:42Z</time></trkpt>
<trkpt lat="29.974421" lon="94.869082">
<time>2016-10-08T01:05:43Z</time></trkpt>
<trkpt lat="29.974271" lon="94.869042">
<time>2016-10-08T01:05:44Z</time></trkpt>
<trkpt lat="29.974141" lon="94.868992">
<time>2016-10-08T01:05:45Z</time></trkpt>
<trkpt lat="29.973971" lon="94.868922">
<time>2016-10-08T01:05:46Z</time></trkpt>
<trkpt lat="29.973691" lon="94.868791">
<time>2016-10-08T01:05:47Z</time></trkpt>
<trkpt lat="29.9734" lon="94.868661">
<time>2016-10-08T01:05:48Z</time></trkpt>
<trkpt lat="29.97312" lon="94.868541">
<time>2016-10-08T01:05:49Z</time></trkpt>
<trkpt lat="29.97287" lon="94.868431">
<time>2016-10-08T01:05:50Z</time></trkpt>
<trkpt lat="29.97269" lon="94.868341">
<time>2016-10-08T01:05:51Z</time></trkpt>
<trkpt lat="29.97255" lon="94.868271">
<time>2016-10-08T01:05:52Z</time></trkpt>
<trkpt lat="29.97241" lon="94.868171">
<time>2016-10-08T01:05:53Z</time></trkpt>
<trkpt lat="29.97226" lon="94.868071">
<time>2016-10-08T01:05:54Z</time></trkpt>
<trkpt lat="29.972129" lon="94.86795">
<time>2016-10-08T01:05:55Z</time></trkpt>
<trkpt lat="29.972009" lon="94.86784">
<time>2016-10-08T01:05:56Z</time></trkpt>
<trkpt lat="29.971829" lon="94.86769">
<time>2016-10-08T01:05:57Z</time></trkpt>
<trkpt lat="29.971709" lon="94.86758">
<time>2016-10-08T01:05:58Z</time></trkpt>
<trkpt lat="29.971559" lon="94.86744">
<time>2016-10-08T01:05:59Z</time></trkpt>
<trkpt lat="29.971379" lon="94.86729">
<time>2016-10-08T01:06:00Z</time></trkpt>
<trkpt lat="29.971208" lon="94.867129">
<time>2016-10-08T01:06:01Z</time></trkpt>
<trkpt lat="29.971028" lon="94.866969">
<time>2016-10-08T01:06:02Z</time></trkpt>
<trkpt lat="29.970918" lon="94.866869">
<time>2016-10-08T01:06:03Z</time></trkpt>
<trkpt lat="29.970798" lon="94.866759">
<time>2016-10-08T01:06:04Z</time></trkpt>
<trkpt lat="29.970648" lon="94.866619">
<time>2016-10-08T01:06:05Z</time></trkpt>
<trkpt lat="29.970478" lon="94.866458">
<time>2016-10-08T01:06:06Z</time></trkpt>
<trkpt lat="29.970317" lon="94.866308">
<time>2016-10-08T01:06:07Z</time></trkpt>
<trkpt lat="29.970167" lon="94.866158">
<time>2016-10-08T01:06:08Z</time></trkpt>
<trkpt lat="29.969977" lon="94.865938">
<time>2016-10-08T01:06:09Z</time></trkpt>
<trkpt lat="29.969847" lon="94.865757">
<time>2016-10-08T01:06:10Z</time></trkpt>
<trkpt lat="29.969766" lon="94.865637">
<time>2016-10-08T01:06:11Z</time></trkpt>
<trkpt lat="29.969666" lon="94.865467">
<time>2016-10-08T01:06:12Z</time></trkpt>
<trkpt lat="29.969566" lon="94.865257">
<time>2016-10-08T01:06:13Z</time></trkpt>
<trkpt lat="29.969496" lon="94.865087">
<time>2016-10-08T01:06:14Z</time></trkpt>
<trkpt lat="29.969446" lon="94.864936">
<time>2016-10-08T01:06:15Z</time></trkpt>
<trkpt lat="29.969375" lon="94.864686">
<time>2016-10-08T01:06:16Z</time></trkpt>
<trkpt lat="29.969315" lon="94.864486">
<time>2016-10-08T01:06:17Z</time></trkpt>
<trkpt lat="29.969245" lon="94.864285">
<time>2016-10-08T01:06:18Z</time></trkpt>
<trkpt lat="29.969164" lon="94.864105">
<time>2016-10-08T01:06:19Z</time></trkpt>
<trkpt lat="29.969024" lon="94.863785">
<time>2016-10-08T01:06:20Z</time></trkpt>
<trkpt lat="29.968944" lon="94.863584">
<time>2016-10-08T01:06:21Z</time></trkpt>
<trkpt lat="29.968853" lon="94.863324">
<time>2016-10-08T01:06:22Z</time></trkpt>
<trkpt lat="29.968763" lon="94.863034">
<time>2016-10-08T01:06:23Z</time></trkpt>
<trkpt lat="29.968703" lon="94.862883">
<time>2016-10-08T01:06:24Z</time></trkpt>
<trkpt lat="29.968522" lon="94.862493">
<time>2016-10-08T01:06:25Z</time></trkpt>
<trkpt lat="29.968362" lon="94.862132">
<time>2016-10-08T01:06:26Z</time></trkpt>
<trkpt lat="29.968121" lon="94.861632">
<time>2016-10-08T01:06:27Z</time></trkpt>
<trkpt lat="29.968061" lon="94.861491">
<time>2016-10-08T01:06:28Z</time></trkpt>
<trkpt lat="29.96796" lon="94.861241">
<time>2016-10-08T01:06:29Z</time></trkpt>
<trkpt lat="29.96787" lon="94.86094">
<time>2016-10-08T01:06:30Z</time></trkpt>
<trkpt lat="29.96781" lon="94.86066">
<time>2016-10-08T01:06:31Z</time></trkpt>
<trkpt lat="29.967719" lon="94.860289">
<time>2016-10-08T01:06:32Z</time></trkpt>
<trkpt lat="29.967669" lon="94.860029">
<time>2016-10-08T01:06:33Z</time></trkpt>
<trkpt lat="29.967628" lon="94.859869">
<time>2016-10-08T01:06:34Z</time></trkpt>
<trkpt lat="29.967588" lon="94.859689">
<time>2016-10-08T01:06:35Z</time></trkpt>
<trkpt lat="29.967548" lon="94.859528">
<time>2016-10-08T01:06:36Z</time></trkpt>
<trkpt lat="29.967488" lon="94.859328">
<time>2016-10-08T01:06:37Z</time></trkpt>
<trkpt lat="29.967387" lon="94.859068">
<time>2016-10-08T01:06:38Z</time></trkpt>
<trkpt lat="29.967317" lon="94.858907">
<time>2016-10-08T01:06:39Z</time></trkpt>
<trkpt lat="29.967217" lon="94.858657">
<time>2016-10-08T01:06:40Z</time></trkpt>
<trkpt lat="29.967106" lon="94.858386">
<time>2016-10-08T01:06:41Z</time></trkpt>
<trkpt lat="29.966956" lon="94.858076">
<time>2016-10-08T01:06:42Z</time></trkpt>
<trkpt lat="29.966765" lon="94.857725">
<time>2016-10-08T01:06:43Z</time></trkpt>
<trkpt lat="29.966625" lon="94.857495">
<time>2016-10-08T01:06:44Z</time></trkpt>
<trkpt lat="29.966434" lon="94.857184">
<time>2016-10-08T01:06:45Z</time></trkpt>
<trkpt lat="29.966214" lon="94.856824">
<time>2016-10-08T01:06:46Z</time></trkpt>
<trkpt lat="29.965983" lon="94.856443">
<time>2016-10-08T01:06:47Z</time></trkpt>
<trkpt lat="29.965682" lon="94.855972">
<time>2016-10-08T01:06:48Z</time></trkpt>
<trkpt lat="29.965372" lon="94.855482">
<time>2016-10-08T01:06:49Z</time></trkpt>
<trkpt lat="29.965181" lon="94.855201">
<time>2016-10-08T01:06:50Z</time></trkpt>
<trkpt lat="29.964971" lon="94.854931">
<time>2016-10-08T01:06:51Z</time></trkpt>
<trkpt lat="29.964871" lon="94.854811">
<time>2016-10-08T01:06:52Z</time></trkpt>
<trkpt lat="29.9647" lon="94.85461">
<time>2016-10-08T01:06:53Z</time></trkpt>
<trkpt lat="29.96455" lon="94.85445">
<time>2016-10-08T01:06:54Z</time></trkpt>
<trkpt lat="29.96444" lon="94.85432">
<time>2016-10-08T01:06:55Z</time></trkpt>
<trkpt lat="29.96425" lon="94.854109">
<time>2016-10-08T01:06:56Z</time></trkpt>
<trkpt lat="29.964139" lon="94.853949">
<time>2016-10-08T01:06:57Z</time></trkpt>
<trkpt lat="29.964039" lon="94.853759">
<time>2016-10-08T01:06:58Z</time></trkpt>
<trkpt lat="29.963969" lon="94.853578">
<time>2016-10-08T01:06:59Z</time></trkpt>
<trkpt lat="29.963898" lon="94.853438">
<time>2016-10-08T01:07:00Z</time></trkpt>
<trkpt lat="29.963778" lon="94.853218">
<time>2016-10-08T01:07:01Z</time></trkpt>
<trkpt lat="29.963638" lon="94.852977">
<time>2016-10-08T01:07:02Z</time></trkpt>
<trkpt lat="29.963467" lon="94.852667">
<time>2016-10-08T01:07:03Z</time></trkpt>
<trkpt lat="29.963337" lon="94.852426">
<time>2016-10-08T01:07:04Z</time></trkpt>
<trkpt lat="29.963146" lon="94.852076">
<time>2016-10-08T01:07:05Z</time></trkpt>
<trkpt lat="29.962956" lon="94.851725">
<time>2016-10-08T01:07:06Z</time></trkpt>
<trkpt lat="29.962745" lon="94.851345">
<time>2016-10-08T01:07:07Z</time></trkpt>
<trkpt lat="29.962574" lon="94.851004">
<time>2016-10-08T01:07:08Z</time></trkpt>
<trkpt lat="29.962414" lon="94.850633">
<time>2016-10-08T01:07:09Z</time></trkpt>
<trkpt lat="29.962303" lon="94.850373">
<time>2016-10-08T01:07:10Z</time></trkpt>
<trkpt lat="29.962153" lon="94.849982">
<time>2016-10-08T01:07:11Z</time></trkpt>
<trkpt lat="29.962092" lon="94.849842">
<time>2016-10-08T01:07:12Z</time></trkpt>
<trkpt lat="29.962032" lon="94.849601">
<time>2016-10-08T01:07:13Z</time></trkpt>
<trkpt lat="29.961992" lon="94.849431">
<time>2016-10-08T01:07:14Z</time></trkpt>
<trkpt lat="29.961941" lon="94.849121">
<time>2016-10-08T01:07:15Z</time></trkpt>
<trkpt lat="29.961901" lon="94.84881">
<time>2016-10-08T01:07:16Z</time></trkpt>
<trkpt lat="29.96184" lon="94.848229">
<time>2016-10-08T01:07:17Z</time></trkpt>
<trkpt lat="29.961759" lon="94.847538">
<time>2016-10-08T01:07:18Z</time></trkpt>
<trkpt lat="29.961596" lon="94.846045">
<time>2016-10-08T01:07:19Z</time></trkpt>
<trkpt lat="29.961484" lon="94.845063">
<time>2016-10-08T01:07:20Z</time></trkpt>
<trkpt lat="29.961352" lon="94.843951">
<time>2016-10-08T01:07:21Z</time></trkpt>
<trkpt lat="29.961322" lon="94.84366">
<time>2016-10-08T01:07:22Z</time></trkpt>
<trkpt lat="29.961301" lon="94.84339">
<time>2016-10-08T01:07:23Z</time></trkpt>
<trkpt lat="29.961271" lon="94.843189">
<time>2016-10-08T01:07:24Z</time></trkpt>
<trkpt lat="29.96125" lon="94.842919">
<time>2016-10-08T01:07:25Z</time></trkpt>
<trkpt lat="29.96121" lon="94.842658">
<time>2016-10-08T01:07:26Z</time></trkpt>
<trkpt lat="29.961179" lon="94.842388">
<time>2016-10-08T01:07:27Z</time></trkpt>
<trkpt lat="29.961139" lon="94.842197">
<time>2016-10-08T01:07:28Z</time></trkpt>
<trkpt lat="29.961089" lon="94.841927">
<time>2016-10-08T01:07:29Z</time></trkpt>
<trkpt lat="29.961018" lon="94.841656">
<time>2016-10-08T01:07:30Z</time></trkpt>
<trkpt lat="29.960968" lon="94.841376">
<time>2016-10-08T01:07:31Z</time></trkpt>
<trkpt lat="29.960927" lon="94.841095">
<time>2016-10-08T01:07:32Z</time></trkpt>
<trkpt lat="29.960917" lon="94.840955">
<time>2016-10-08T01:07:33Z</time></trkpt>
<trkpt lat="29.960897" lon="94.840825">
<time>2016-10-08T01:07:34Z</time></trkpt>
<trkpt lat="29.960886" lon="94.840684">
<time>2016-10-08T01:07:35Z</time></trkpt>
<trkpt lat="29.960866" lon="94.840554">
<time>2016-10-08T01:07:36Z</time></trkpt>
<trkpt lat="29.960856" lon="94.840454">
<time>2016-10-08T01:07:37Z</time></trkpt>
<trkpt lat="29.960826" lon="94.840344">
<time>2016-10-08T01:07:38Z</time></trkpt>
<trkpt lat="29.960796" lon="94.840264">
<time>2016-10-08T01:07:39Z</time></trkpt>
<trkpt lat="29.960766" lon="94.840183">
<time>2016-10-08T01:07:40Z</time></trkpt>
<trkpt lat="29.960715" lon="94.840033">
<time>2016-10-08T01:07:41Z</time></trkpt>
<trkpt lat="29.960615" lon="94.839843">
<time>2016-10-08T01:07:42Z</time></trkpt>
<trkpt lat="29.960565" lon="94.839733">
<time>2016-10-08T01:07:43Z</time></trkpt>
<trkpt lat="29.960464" lon="94.839522">
<time>2016-10-08T01:07:44Z</time></trkpt>
<trkpt lat="29.960384" lon="94.839402">
<time>2016-10-08T01:07:45Z</time></trkpt>
<trkpt lat="29.960264" lon="94.839232">
<time>2016-10-08T01:07:46Z</time></trkpt>
<trkpt lat="29.960123" lon="94.839061">
<time>2016-10-08T01:07:47Z</time></trkpt>
<trkpt lat="29.959983" lon="94.838911">
<time>2016-10-08T01:07:48Z</time></trkpt>
<trkpt lat="29.959863" lon="94.838771">
<time>2016-10-08T01:07:49Z</time></trkpt>
<trkpt lat="29.959723" lon="94.8386">
<time>2016-10-08T01:07:50Z</time></trkpt>
<trkpt lat="29.959622" lon="94.83846">
<time>2016-10-08T01:07:51Z</time></trkpt>
<trkpt lat="29.959452" lon="94.83822">
<time>2016-10-08T01:07:52Z</time></trkpt>
<trkpt lat="29.959332" lon="94.838049">
<time>2016-10-08T01:07:53Z</time></trkpt>
<trkpt lat="29.959171" lon="94.837799">
<time>2016-10-08T01:07:54Z</time></trkpt>
<trkpt lat="29.959051" lon="94.837598">
<time>2016-10-08T01:07:55Z</time></trkpt>
<trkpt lat="29.95893" lon="94.837368">
<time>2016-10-08T01:07:56Z</time></trkpt>
<trkpt lat="29.95889" lon="94.837298">
<time>2016-10-08T01:07:57Z</time></trkpt>
<trkpt lat="29.95881" lon="94.837147">
<time>2016-10-08T01:07:58Z</time></trkpt>
<trkpt lat="29.95875" lon="94.837077">
<time>2016-10-08T01:07:59Z</time></trkpt>
<trkpt lat="29.95867" lon="94.836997">
<time>2016-10-08T01:08:00Z</time></trkpt>
<trkpt lat="29.9586" lon="94.836927">
<time>2016-10-08T01:08:01Z</time></trkpt>
<trkpt lat="29.958509" lon="94.836877">
<time>2016-10-08T01:08:02Z</time></trkpt>
<trkpt lat="29.958419" lon="94.836827">
<time>2016-10-08T01:08:03Z</time></trkpt>
<trkpt lat="29.958339" lon="94.836787">
<time>2016-10-08T01:08:04Z</time></trkpt>
<trkpt lat="29.958279" lon="94.836757">
<time>2016-10-08T01:08:05Z</time></trkpt>
<trkpt lat="29.958229" lon="94.836727">
<time>2016-10-08T01:08:06Z</time></trkpt>
<trkpt lat="29.958129" lon="94.836667">
<time>2016-10-08T01:08:07Z</time></trkpt>
<trkpt lat="29.958039" lon="94.836626">
<time>2016-10-08T01:08:08Z</time></trkpt>
<trkpt lat="29.957989" lon="94.836586">
<time>2016-10-08T01:08:09Z</time></trkpt>
<trkpt lat="29.957889" lon="94.836526">
<time>2016-10-08T01:08:10Z</time></trkpt>
<trkpt lat="29.957829" lon="94.836476">
<time>2016-10-08T01:08:11Z</time></trkpt>
<trkpt lat="29.957759" lon="94.836426">
<time>2016-10-08T01:08:12Z</time></trkpt>
<trkpt lat="29.957678" lon="94.836356">
<time>2016-10-08T01:08:13Z</time></trkpt>
<trkpt lat="29.957608" lon="94.836286">
<time>2016-10-08T01:08:14Z</time></trkpt>
<trkpt lat="29.957528" lon="94.836206">
<time>2016-10-08T01:08:15Z</time></trkpt>
<trkpt lat="29.957368" lon="94.836045">
<time>2016-10-08T01:08:16Z</time></trkpt>
<trkpt lat="29.957258" lon="94.835935">
<time>2016-10-08T01:08:17Z</time></trkpt>
<trkpt lat="29.957178" lon="94.835855">
<time>2016-10-08T01:08:18Z</time></trkpt>
<trkpt lat="29.957107" lon="94.835775">
<time>2016-10-08T01:08:19Z</time></trkpt>
<trkpt lat="29.957037" lon="94.835695">
<time>2016-10-08T01:08:20Z</time></trkpt>
<trkpt lat="29.956967" lon="94.835624">
<time>2016-10-08T01:08:21Z</time></trkpt>
<trkpt lat="29.956877" lon="94.835534">
<time>2016-10-08T01:08:22Z</time></trkpt>
<trkpt lat="29.956777" lon="94.835424">
<time>2016-10-08T01:08:23Z</time></trkpt>
<trkpt lat="29.956687" lon="94.835334">
<time>2016-10-08T01:08:24Z</time></trkpt>
<trkpt lat="29.956596" lon="94.835244">
<time>2016-10-08T01:08:25Z</time></trkpt>
<trkpt lat="29.956506" lon="94.835143">
<time>2016-10-08T01:08:26Z</time></trkpt>
<trkpt lat="29.956416" lon="94.835053">
<time>2016-10-08T01:08:27Z</time></trkpt>
<trkpt lat="29.956366" lon="94.835003">
<time>2016-10-08T01:08:28Z</time></trkpt>
<trkpt lat="29.956286" lon="94.834923">
<time>2016-10-08T01:08:29Z</time></trkpt>
<trkpt lat="29.956196" lon="94.834823">
<time>2016-10-08T01:08:30Z</time></trkpt>
<trkpt lat="29.956095" lon="94.834713">
<time>2016-10-08T01:08:31Z</time></trkpt>
<trkpt lat="29.955995" lon="94.834612">
<time>2016-10-08T01:08:32Z</time></trkpt>
<trkpt lat="29.955935" lon="94.834532">
<time>2016-10-08T01:08:33Z</time></trkpt>
<trkpt lat="29.955875" lon="94.834452">
<time>2016-10-08T01:08:34Z</time></trkpt>
<trkpt lat="29.955825" lon="94.834372">
<time>2016-10-08T01:08:35Z</time></trkpt>
<trkpt lat="29.955775" lon="94.834302">
<time>2016-10-08T01:08:36Z</time></trkpt>
<trkpt lat="29.955704" lon="94.834172">
<time>2016-10-08T01:08:37Z</time></trkpt>
<trkpt lat="29.955644" lon="94.834061">
<time>2016-10-08T01:08:38Z</time></trkpt>
<trkpt lat="29.955584" lon="94.833931">
<time>2016-10-08T01:08:39Z</time></trkpt>
<trkpt lat="29.955534" lon="94.833821">
<time>2016-10-08T01:08:40Z</time></trkpt>
<trkpt lat="29.955484" lon="94.833711">
<time>2016-10-08T01:08:41Z</time></trkpt>
<trkpt lat="29.955403" lon="94.83353">
<time>2016-10-08T01:08:42Z</time></trkpt>
<trkpt lat="29.955323" lon="94.83337">
<time>2016-10-08T01:08:43Z</time></trkpt>
<trkpt lat="29.955243" lon="94.8332">
<time>2016-10-08T01:08:44Z</time></trkpt>
<trkpt lat="29.955152" lon="94.832989">
<time>2016-10-08T01:08:45Z</time></trkpt>
<trkpt lat="29.955092" lon="94.832839">
<time>2016-10-08T01:08:46Z</time></trkpt>
<trkpt lat="29.955042" lon="94.832689">
<time>2016-10-08T01:08:47Z</time></trkpt>
<trkpt lat="29.955001" lon="94.832538">
<time>2016-10-08T01:08:48Z</time></trkpt>
<trkpt lat="29.954911" lon="94.832298">
<time>2016-10-08T01:08:49Z</time></trkpt>
<trkpt lat="29.954851" lon="94.832137">
<time>2016-10-08T01:08:50Z</time></trkpt>
<trkpt lat="29.95477" lon="94.831957">
<time>2016-10-08T01:08:51Z</time></trkpt>
<trkpt lat="29.95471" lon="94.831857">
<time>2016-10-08T01:08:52Z</time></trkpt>
<trkpt lat="29.95466" lon="94.831757">
<time>2016-10-08T01:08:53Z</time></trkpt>
<trkpt lat="29.9546" lon="94.831676">
<time>2016-10-08T01:08:54Z</time></trkpt>
<trkpt lat="29.95455" lon="94.831606">
<time>2016-10-08T01:08:55Z</time></trkpt>
<trkpt lat="29.954499" lon="94.831526">
<time>2016-10-08T01:08:56Z</time></trkpt>
<trkpt lat="29.954459" lon="94.831466">
<time>2016-10-08T01:08:57Z</time></trkpt>
<trkpt lat="29.954399" lon="94.831386">
<time>2016-10-08T01:08:58Z</time></trkpt>
<trkpt lat="29.954329" lon="94.831296">
<time>2016-10-08T01:08:59Z</time></trkpt>
<trkpt lat="29.954269" lon="94.831195">
<time>2016-10-08T01:09:00Z</time></trkpt>
<trkpt lat="29.954199" lon="94.831105">
<time>2016-10-08T01:09:01Z</time></trkpt>
<trkpt lat="29.954149" lon="94.831035">
<time>2016-10-08T01:09:02Z</time></trkpt>
<trkpt lat="29.954098" lon="94.830955">
<time>2016-10-08T01:09:03Z</time></trkpt>
<trkpt lat="29.954048" lon="94.830885">
<time>2016-10-08T01:09:04Z</time></trkpt>
<trkpt lat="29.953978" lon="94.830795">
<time>2016-10-08T01:09:05Z</time></trkpt>
<trkpt lat="29.953928" lon="94.830725">
<time>2016-10-08T01:09:06Z</time></trkpt>
<trkpt lat="29.953888" lon="94.830654">
<time>2016-10-08T01:09:07Z</time></trkpt>
<trkpt lat="29.953828" lon="94.830574">
<time>2016-10-08T01:09:08Z</time></trkpt>
<trkpt lat="29.953778" lon="94.830504">
<time>2016-10-08T01:09:09Z</time></trkpt>
<trkpt lat="29.953727" lon="94.830424">
<time>2016-10-08T01:09:10Z</time></trkpt>
<trkpt lat="29.953667" lon="94.830344">
<time>2016-10-08T01:09:11Z</time></trkpt>
<trkpt lat="29.953607" lon="94.830254">
<time>2016-10-08T01:09:12Z</time></trkpt>
<trkpt lat="29.953547" lon="94.830173">
<time>2016-10-08T01:09:13Z</time></trkpt>
<trkpt lat="29.953497" lon="94.830103">
<time>2016-10-08T01:09:14Z</time></trkpt>
<trkpt lat="29.953437" lon="94.830023">
<time>2016-10-08T01:09:15Z</time></trkpt>
<trkpt lat="29.953356" lon="94.829913">
<time>2016-10-08T01:09:16Z</time></trkpt>
<trkpt lat="29.953306" lon="94.829843">
<time>2016-10-08T01:09:17Z</time></trkpt>
<trkpt lat="29.953256" lon="94.829773">
<time>2016-10-08T01:09:18Z</time></trkpt>
<trkpt lat="29.953226" lon="94.829712">
<time>2016-10-08T01:09:19Z</time></trkpt>
<trkpt lat="29.953196" lon="94.829672">
<time>2016-10-08T01:09:20Z</time></trkpt>
<trkpt lat="29.953176" lon="94.829632">
<time>2016-10-08T01:09:21Z</time></trkpt>
<trkpt lat="29.953146" lon="94.829582">
<time>2016-10-08T01:09:22Z</time></trkpt>
<trkpt lat="29.953116" lon="94.829522">
<time>2016-10-08T01:09:23Z</time></trkpt>
<trkpt lat="29.953096" lon="94.829472">
<time>2016-10-08T01:09:24Z</time></trkpt>
<trkpt lat="29.953075" lon="94.829402">
<time>2016-10-08T01:09:25Z</time></trkpt>
<trkpt lat="29.953065" lon="94.829342">
<time>2016-10-08T01:09:26Z</time></trkpt>
<trkpt lat="29.953045" lon="94.829282">
<time>2016-10-08T01:09:27Z</time></trkpt>
<trkpt lat="29.953045" lon="94.829211">
<time>2016-10-08T01:09:28Z</time></trkpt>
<trkpt lat="29.953045" lon="94.829151">
<time>2016-10-08T01:09:29Z</time></trkpt>
<trkpt lat="29.953035" lon="94.829091">
<time>2016-10-08T01:09:30Z</time></trkpt>
<trkpt lat="29.953045" lon="94.829011">
<time>2016-10-08T01:09:31Z</time></trkpt>
<trkpt lat="29.953065" lon="94.828931">
<time>2016-10-08T01:09:32Z</time></trkpt>
<trkpt lat="29.953074" lon="94.828851">
<time>2016-10-08T01:09:33Z</time></trkpt>
<trkpt lat="29.953124" lon="94.82871">
<time>2016-10-08T01:09:34Z</time></trkpt>
<trkpt lat="29.953184" lon="94.82853">
<time>2016-10-08T01:09:35Z</time></trkpt>
<trkpt lat="29.953243" lon="94.82833">
<time>2016-10-08T01:09:36Z</time></trkpt>
<trkpt lat="29.953383" lon="94.827909">
<time>2016-10-08T01:09:37Z</time></trkpt>
<trkpt lat="29.953462" lon="94.827698">
<time>2016-10-08T01:09:38Z</time></trkpt>
<trkpt lat="29.953562" lon="94.827438">
<time>2016-10-08T01:09:39Z</time></trkpt>
<trkpt lat="29.953721" lon="94.827117">
<time>2016-10-08T01:09:40Z</time></trkpt>
<trkpt lat="29.95392" lon="94.826696">
<time>2016-10-08T01:09:41Z</time></trkpt>
<trkpt lat="29.954179" lon="94.826165">
<time>2016-10-08T01:09:42Z</time></trkpt>
<trkpt lat="29.954389" lon="94.825734">
<time>2016-10-08T01:09:43Z</time></trkpt>
<trkpt lat="29.954488" lon="94.825504">
<time>2016-10-08T01:09:44Z</time></trkpt>
<trkpt lat="29.954588" lon="94.825203">
<time>2016-10-08T01:09:45Z</time></trkpt>
<trkpt lat="29.954707" lon="94.824842">
<time>2016-10-08T01:09:46Z</time></trkpt>
<trkpt lat="29.954836" lon="94.824442">
<time>2016-10-08T01:09:47Z</time></trkpt>
<trkpt lat="29.954985" lon="94.824081">
<time>2016-10-08T01:09:48Z</time></trkpt>
<trkpt lat="29.955304" lon="94.823299">
<time>2016-10-08T01:09:49Z</time></trkpt>
<trkpt lat="29.955533" lon="94.822738">
<time>2016-10-08T01:09:50Z</time></trkpt>
<trkpt lat="29.955881" lon="94.821967">
<time>2016-10-08T01:09:51Z</time></trkpt>
<trkpt lat="29.956121" lon="94.821455">
<time>2016-10-08T01:09:52Z</time></trkpt>
<trkpt lat="29.95622" lon="94.821175">
<time>2016-10-08T01:09:53Z</time></trkpt>
<trkpt lat="29.95627" lon="94.820995">
<time>2016-10-08T01:09:54Z</time></trkpt>
<trkpt lat="29.95628" lon="94.820914">
<time>2016-10-08T01:09:55Z</time></trkpt>
<trkpt lat="29.956299" lon="94.820784">
<time>2016-10-08T01:09:56Z</time></trkpt>
<trkpt lat="29.956309" lon="94.820604">
<time>2016-10-08T01:09:57Z</time></trkpt>
<trkpt lat="29.956329" lon="94.820373">
<time>2016-10-08T01:09:58Z</time></trkpt>
<trkpt lat="29.956328" lon="94.820243">
<time>2016-10-08T01:09:59Z</time></trkpt>
<trkpt lat="29.956338" lon="94.820123">
<time>2016-10-08T01:10:00Z</time></trkpt>
<trkpt lat="29.956348" lon="94.819922">
<time>2016-10-08T01:10:01Z</time></trkpt>
<trkpt lat="29.956347" lon="94.819782">
<time>2016-10-08T01:10:02Z</time></trkpt>
<trkpt lat="29.956357" lon="94.819672">
<time>2016-10-08T01:10:03Z</time></trkpt>
<trkpt lat="29.956367" lon="94.819582">
<time>2016-10-08T01:10:04Z</time></trkpt>
<trkpt lat="29.956367" lon="94.819451">
<time>2016-10-08T01:10:05Z</time></trkpt>
<trkpt lat="29.956377" lon="94.819311">
<time>2016-10-08T01:10:06Z</time></trkpt>
<trkpt lat="29.956386" lon="94.819201">
<time>2016-10-08T01:10:07Z</time></trkpt>
<trkpt lat="29.956396" lon="94.819071">
<time>2016-10-08T01:10:08Z</time></trkpt>
<trkpt lat="29.956396" lon="94.81893">
<time>2016-10-08T01:10:09Z</time></trkpt>
<trkpt lat="29.956406" lon="94.81883">
<time>2016-10-08T01:10:10Z</time></trkpt>
<trkpt lat="29.956415" lon="94.81869">
<time>2016-10-08T01:10:11Z</time></trkpt>
<trkpt lat="29.956415" lon="94.81855">
<time>2016-10-08T01:10:12Z</time></trkpt>
<trkpt lat="29.956425" lon="94.818429">
<time>2016-10-08T01:10:13Z</time></trkpt>
<trkpt lat="29.956435" lon="94.818319">
<time>2016-10-08T01:10:14Z</time></trkpt>
<trkpt lat="29.956434" lon="94.818159">
<time>2016-10-08T01:10:15Z</time></trkpt>
<trkpt lat="29.956444" lon="94.818028">
<time>2016-10-08T01:10:16Z</time></trkpt>
<trkpt lat="29.956464" lon="94.817858">
<time>2016-10-08T01:10:17Z</time></trkpt>
<trkpt lat="29.956474" lon="94.817688">
<time>2016-10-08T01:10:18Z</time></trkpt>
<trkpt lat="29.956483" lon="94.817548">
<time>2016-10-08T01:10:19Z</time></trkpt>
<trkpt lat="29.956483" lon="94.817447">
<time>2016-10-08T01:10:20Z</time></trkpt>
<trkpt lat="29.956493" lon="94.817327">
<time>2016-10-08T01:10:21Z</time></trkpt>
<trkpt lat="29.956503" lon="94.817217">
<time>2016-10-08T01:10:22Z</time></trkpt>
<trkpt lat="29.956502" lon="94.817087">
<time>2016-10-08T01:10:23Z</time></trkpt>
<trkpt lat="29.956512" lon="94.817016">
<time>2016-10-08T01:10:24Z</time></trkpt>
<trkpt lat="29.956522" lon="94.816876">
<time>2016-10-08T01:10:25Z</time></trkpt>
<trkpt lat="29.956522" lon="94.816766">
<time>2016-10-08T01:10:26Z</time></trkpt>
<trkpt lat="29.956522" lon="94.816666">
<time>2016-10-08T01:10:27Z</time></trkpt>
<trkpt lat="29.956521" lon="94.816566">
<time>2016-10-08T01:10:28Z</time></trkpt>
<trkpt lat="29.956531" lon="94.816475">
<time>2016-10-08T01:10:29Z</time></trkpt>
<trkpt lat="29.956521" lon="94.816305">
<time>2016-10-08T01:10:30Z</time></trkpt>
<trkpt lat="29.956511" lon="94.816175">
<time>2016-10-08T01:10:31Z</time></trkpt>
<trkpt lat="29.956501" lon="94.816065">
<time>2016-10-08T01:10:32Z</time></trkpt>
<trkpt lat="29.95649" lon="94.815964">
<time>2016-10-08T01:10:33Z</time></trkpt>
<trkpt lat="29.95648" lon="94.815814">
<time>2016-10-08T01:10:34Z</time></trkpt>
<trkpt lat="29.95646" lon="94.815694">
<time>2016-10-08T01:10:35Z</time></trkpt>
<trkpt lat="29.95644" lon="94.815533">
<time>2016-10-08T01:10:36Z</time></trkpt>
<trkpt lat="29.956429" lon="94.815393">
<time>2016-10-08T01:10:37Z</time></trkpt>
<trkpt lat="29.956419" lon="94.815273">
<time>2016-10-08T01:10:38Z</time></trkpt>
<trkpt lat="29.956399" lon="94.815163">
<time>2016-10-08T01:10:39Z</time></trkpt>
<trkpt lat="29.956389" lon="94.815063">
<time>2016-10-08T01:10:40Z</time></trkpt>
<trkpt lat="29.956368" lon="94.814912">
<time>2016-10-08T01:10:41Z</time></trkpt>
<trkpt lat="29.956358" lon="94.814792">
<time>2016-10-08T01:10:42Z</time></trkpt>
<trkpt lat="29.956348" lon="94.814692">
<time>2016-10-08T01:10:43Z</time></trkpt>
<trkpt lat="29.956338" lon="94.814622">
<time>2016-10-08T01:10:44Z</time></trkpt>
<trkpt lat="29.956308" lon="94.814481">
<time>2016-10-08T01:10:45Z</time></trkpt>
<trkpt lat="29.956267" lon="94.814331">
<time>2016-10-08T01:10:46Z</time></trkpt>
<trkpt lat="29.956227" lon="94.814231">
<time>2016-10-08T01:10:47Z</time></trkpt>
<trkpt lat="29.956167" lon="94.814061">
<time>2016-10-08T01:10:48Z</time></trkpt>
<trkpt lat="29.955996" lon="94.81362">
<time>2016-10-08T01:10:49Z</time></trkpt>
<trkpt lat="29.955926" lon="94.813429">
<time>2016-10-08T01:10:50Z</time></trkpt>
<trkpt lat="29.955825" lon="94.813119">
<time>2016-10-08T01:10:51Z</time></trkpt>
<trkpt lat="29.955765" lon="94.812938">
<time>2016-10-08T01:10:52Z</time></trkpt>
<trkpt lat="29.955715" lon="94.812798">
<time>2016-10-08T01:10:53Z</time></trkpt>
<trkpt lat="29.955664" lon="94.812688">
<time>2016-10-08T01:10:54Z</time></trkpt>
<trkpt lat="29.955594" lon="94.812578">
<time>2016-10-08T01:10:55Z</time></trkpt>
<trkpt lat="29.955524" lon="94.812487">
<time>2016-10-08T01:10:56Z</time></trkpt>
<trkpt lat="29.955424" lon="94.812387">
<time>2016-10-08T01:10:57Z</time></trkpt>
<trkpt lat="29.955354" lon="94.812317">
<time>2016-10-08T01:10:58Z</time></trkpt>
<trkpt lat="29.955294" lon="94.812267">
<time>2016-10-08T01:10:59Z</time></trkpt>
<trkpt lat="29.955234" lon="94.812217">
<time>2016-10-08T01:11:00Z</time></trkpt>
<trkpt lat="29.955153" lon="94.812157">
<time>2016-10-08T01:11:01Z</time></trkpt>
<trkpt lat="29.955073" lon="94.812107">
<time>2016-10-08T01:11:02Z</time></trkpt>
<trkpt lat="29.954973" lon="94.812037">
<time>2016-10-08T01:11:03Z</time></trkpt>
<trkpt lat="29.954863" lon="94.811966">
<time>2016-10-08T01:11:04Z</time></trkpt>
<trkpt lat="29.954743" lon="94.811886">
<time>2016-10-08T01:11:05Z</time></trkpt>
<trkpt lat="29.954663" lon="94.811836">
<time>2016-10-08T01:11:06Z</time></trkpt>
<trkpt lat="29.954613" lon="94.811796">
<time>2016-10-08T01:11:07Z</time></trkpt>
<trkpt lat="29.954533" lon="94.811746">
<time>2016-10-08T01:11:08Z</time></trkpt>
<trkpt lat="29.954483" lon="94.811706">
<time>2016-10-08T01:11:09Z</time></trkpt>
<trkpt lat="29.954403" lon="94.811656">
<time>2016-10-08T01:11:10Z</time></trkpt>
<trkpt lat="29.954332" lon="94.811606">
<time>2016-10-08T01:11:11Z</time></trkpt>
<trkpt lat="29.954272" lon="94.811566">
<time>2016-10-08T01:11:12Z</time></trkpt>
<trkpt lat="29.954202" lon="94.811516">
<time>2016-10-08T01:11:13Z</time></trkpt>
<trkpt lat="29.954112" lon="94.811455">
<time>2016-10-08T01:11:14Z</time></trkpt>
<trkpt lat="29.954042" lon="94.811415">
<time>2016-10-08T01:11:15Z</time></trkpt>
<trkpt lat="29.953972" lon="94.811365">
<time>2016-10-08T01:11:16Z</time></trkpt>
<trkpt lat="29.953912" lon="94.811325">
<time>2016-10-08T01:11:17Z</time></trkpt>
<trkpt lat="29.953852" lon="94.811295">
<time>2016-10-08T01:11:18Z</time></trkpt>
<trkpt lat="29.953792" lon="94.811255">
<time>2016-10-08T01:11:19Z</time></trkpt>
<trkpt lat="29.953722" lon="94.811225">
<time>2016-10-08T01:11:20Z</time></trkpt>
<trkpt lat="29.953672" lon="94.811195">
<time>2016-10-08T01:11:21Z</time></trkpt>
<trkpt lat="29.953582" lon="94.811165">
<time>2016-10-08T01:11:22Z</time></trkpt>
<trkpt lat="29.953532" lon="94.811135">
<time>2016-10-08T01:11:23Z</time></trkpt>
<trkpt lat="29.953472" lon="94.811105">
<time>2016-10-08T01:11:24Z</time></trkpt>
<trkpt lat="29.953412" lon="94.811075">
<time>2016-10-08T01:11:25Z</time></trkpt>
<trkpt lat="29.953341" lon="94.811045">
<time>2016-10-08T01:11:26Z</time></trkpt>
<trkpt lat="29.953271" lon="94.810995">
<time>2016-10-08T01:11:27Z</time></trkpt>
<trkpt lat="29.953181" lon="94.810934">
<time>2016-10-08T01:11:28Z</time></trkpt>
<trkpt lat="29.953111" lon="94.810894">
<time>2016-10-08T01:11:29Z</time></trkpt>
<trkpt lat="29.953041" lon="94.810834">
<time>2016-10-08T01:11:30Z</time></trkpt>
<trkpt lat="29.952991" lon="94.810794">
<time>2016-10-08T01:11:31Z</time></trkpt>
<trkpt lat="29.952941" lon="94.810754">
<time>2016-10-08T01:11:32Z</time></trkpt>
<trkpt lat="29.952871" lon="94.810714">
<time>2016-10-08T01:11:33Z</time></trkpt>
<trkpt lat="29.952821" lon="94.810684">
<time>2016-10-08T01:11:34Z</time></trkpt>
<trkpt lat="29.952761" lon="94.810654">
<time>2016-10-08T01:11:35Z</time></trkpt>
<trkpt lat="29.952731" lon="94.810634">
<time>2016-10-08T01:11:36Z</time></trkpt>
<trkpt lat="29.952661" lon="94.810604">
<time>2016-10-08T01:11:37Z</time></trkpt>
<trkpt lat="29.952571" lon="94.810554">
<time>2016-10-08T01:11:38Z</time></trkpt>
<trkpt lat="29.952491" lon="94.810514">
<time>2016-10-08T01:11:39Z</time></trkpt>
<trkpt lat="29.95239" lon="94.810464">
<time>2016-10-08T01:11:40Z</time></trkpt>
<trkpt lat="29.95233" lon="94.810434">
<time>2016-10-08T01:11:41Z</time></trkpt>
<trkpt lat="29.95227" lon="94.810393">
<time>2016-10-08T01:11:42Z</time></trkpt>
<trkpt lat="29.95222" lon="94.810353">
<time>2016-10-08T01:11:43Z</time></trkpt>
<trkpt lat="29.95215" lon="94.810303">
<time>2016-10-08T01:11:44Z</time></trkpt>
<trkpt lat="29.95205" lon="94.810233">
<time>2016-10-08T01:11:45Z</time></trkpt>
<trkpt lat="29.95196" lon="94.810163">
<time>2016-10-08T01:11:46Z</time></trkpt>
<trkpt lat="29.95186" lon="94.810083">
<time>2016-10-08T01:11:47Z</time></trkpt>
<trkpt lat="29.95177" lon="94.810023">
<time>2016-10-08T01:11:48Z</time></trkpt>
<trkpt lat="29.95168" lon="94.809953">
<time>2016-10-08T01:11:49Z</time></trkpt>
<trkpt lat="29.951599" lon="94.809892">
<time>2016-10-08T01:11:50Z</time></trkpt>
<trkpt lat="29.951519" lon="94.809832">
<time>2016-10-08T01:11:51Z</time></trkpt>
<trkpt lat="29.951439" lon="94.809772">
<time>2016-10-08T01:11:52Z</time></trkpt>
<trkpt lat="29.951349" lon="94.809712">
<time>2016-10-08T01:11:53Z</time></trkpt>
<trkpt lat="29.951289" lon="94.809662">
<time>2016-10-08T01:11:54Z</time></trkpt>
<trkpt lat="29.951229" lon="94.809612">
<time>2016-10-08T01:11:55Z</time></trkpt>
<trkpt lat="29.951169" lon="94.809552">
<time>2016-10-08T01:11:56Z</time></trkpt>
<trkpt lat="29.951109" lon="94.809502">
<time>2016-10-08T01:11:57Z</time></trkpt>
<trkpt lat="29.951069" lon="94.809452">
<time>2016-10-08T01:11:58Z</time></trkpt>
<trkpt lat="29.951009" lon="94.809402">
<time>2016-10-08T01:11:59Z</time></trkpt>
<trkpt lat="29.950948" lon="94.809331">
<time>2016-10-08T01:12:00Z</time></trkpt>
<trkpt lat="29.950878" lon="94.809261">
<time>2016-10-08T01:12:01Z</time></trkpt>
<trkpt lat="29.950808" lon="94.809171">
<time>2016-10-08T01:12:02Z</time></trkpt>
<trkpt lat="29.950758" lon="94.809111">
<time>2016-10-08T01:12:03Z</time></trkpt>
<trkpt lat="29.950688" lon="94.809011">
<time>2016-10-08T01:12:04Z</time></trkpt>
<trkpt lat="29.950608" lon="94.808921">
<time>2016-10-08T01:12:05Z</time></trkpt>
<trkpt lat="29.950568" lon="94.808861">
<time>2016-10-08T01:12:06Z</time></trkpt>
<trkpt lat="29.950487" lon="94.80877">
<time>2016-10-08T01:12:07Z</time></trkpt>
<trkpt lat="29.950407" lon="94.80866">
<time>2016-10-08T01:12:08Z</time></trkpt>
<trkpt lat="29.950347" lon="94.80859">
<time>2016-10-08T01:12:09Z</time></trkpt>
<trkpt lat="29.950287" lon="94.80851">
<time>2016-10-08T01:12:10Z</time></trkpt>
<trkpt lat="29.950227" lon="94.80843">
<time>2016-10-08T01:12:11Z</time></trkpt>
<trkpt lat="29.950197" lon="94.80837">
<time>2016-10-08T01:12:12Z</time></trkpt>
<trkpt lat="29.950157" lon="94.808309">
<time>2016-10-08T01:12:13Z</time></trkpt>
<trkpt lat="29.950116" lon="94.808199">
<time>2016-10-08T01:12:14Z</time></trkpt>
<trkpt lat="29.950076" lon="94.808129">
<time>2016-10-08T01:12:15Z</time></trkpt>
<trkpt lat="29.950046" lon="94.808039">
<time>2016-10-08T01:12:16Z</time></trkpt>
<trkpt lat="29.950016" lon="94.807909">
<time>2016-10-08T01:12:17Z</time></trkpt>
<trkpt lat="29.949976" lon="94.807768">
<time>2016-10-08T01:12:18Z</time></trkpt>
<trkpt lat="29.949955" lon="94.807598">
<time>2016-10-08T01:12:19Z</time></trkpt>
<trkpt lat="29.949915" lon="94.807318">
<time>2016-10-08T01:12:20Z</time></trkpt>
<trkpt lat="29.949854" lon="94.806666">
<time>2016-10-08T01:12:21Z</time></trkpt>
<trkpt lat="29.949752" lon="94.805705">
<time>2016-10-08T01:12:22Z</time></trkpt>
<trkpt lat="29.949661" lon="94.804753">
<time>2016-10-08T01:12:23Z</time></trkpt>
<trkpt lat="29.94963" lon="94.804402">
<time>2016-10-08T01:12:24Z</time></trkpt>
<trkpt lat="29.94964" lon="94.804202">
<time>2016-10-08T01:12:25Z</time></trkpt>
<trkpt lat="29.949649" lon="94.804082">
<time>2016-10-08T01:12:26Z</time></trkpt>
<trkpt lat="29.949679" lon="94.803871">
<time>2016-10-08T01:12:27Z</time></trkpt>
<trkpt lat="29.949719" lon="94.803641">
<time>2016-10-08T01:12:28Z</time></trkpt>
<trkpt lat="29.949748" lon="94.80339">
<time>2016-10-08T01:12:29Z</time></trkpt>
<trkpt lat="29.949778" lon="94.80315">
<time>2016-10-08T01:12:30Z</time></trkpt>
<trkpt lat="29.949778" lon="94.80298">
<time>2016-10-08T01:12:31Z</time></trkpt>
<trkpt lat="29.949767" lon="94.802779">
<time>2016-10-08T01:12:32Z</time></trkpt>
<trkpt lat="29.949717" lon="94.802449">
<time>2016-10-08T01:12:33Z</time></trkpt>
<trkpt lat="29.949646" lon="94.801988">
<time>2016-10-08T01:12:34Z</time></trkpt>
<trkpt lat="29.949575" lon="94.801557">
<time>2016-10-08T01:12:35Z</time></trkpt>
<trkpt lat="29.949474" lon="94.801086">
<time>2016-10-08T01:12:36Z</time></trkpt>
<trkpt lat="29.949374" lon="94.800545">
<time>2016-10-08T01:12:37Z</time></trkpt>
<trkpt lat="29.949333" lon="94.800225">
<time>2016-10-08T01:12:38Z</time></trkpt>
<trkpt lat="29.949303" lon="94.799984">
<time>2016-10-08T01:12:39Z</time></trkpt>
<trkpt lat="29.949232" lon="94.799553">
<time>2016-10-08T01:12:40Z</time></trkpt>
<trkpt lat="29.949182" lon="94.799293">
<time>2016-10-08T01:12:41Z</time></trkpt>
<trkpt lat="29.949151" lon="94.799123">
<time>2016-10-08T01:12:42Z</time></trkpt>
<trkpt lat="29.949121" lon="94.799033">
<time>2016-10-08T01:12:43Z</time></trkpt>
<trkpt lat="29.949101" lon="94.798962">
<time>2016-10-08T01:12:44Z</time></trkpt>
<trkpt lat="29.949061" lon="94.798902">
<time>2016-10-08T01:12:45Z</time></trkpt>
<trkpt lat="29.949041" lon="94.798872">
<time>2016-10-08T01:12:46Z</time></trkpt>
<trkpt lat="29.948981" lon="94.798792">
<time>2016-10-08T01:12:47Z</time></trkpt>
<trkpt lat="29.948931" lon="94.798762">
<time>2016-10-08T01:12:48Z</time></trkpt>
<trkpt lat="29.948881" lon="94.798722">
<time>2016-10-08T01:12:49Z</time></trkpt>
<trkpt lat="29.948791" lon="94.798702">
<time>2016-10-08T01:12:50Z</time></trkpt>
<trkpt lat="29.948751" lon="94.798692">
<time>2016-10-08T01:12:51Z</time></trkpt>
<trkpt lat="29.948701" lon="94.798692">
<time>2016-10-08T01:12:52Z</time></trkpt>
<trkpt lat="29.948611" lon="94.798682">
<time>2016-10-08T01:12:53Z</time></trkpt>
<trkpt lat="29.948461" lon="94.798712">
<time>2016-10-08T01:12:54Z</time></trkpt>
<trkpt lat="29.948361" lon="94.798722">
<time>2016-10-08T01:12:55Z</time></trkpt>
<trkpt lat="29.948091" lon="94.798762">
<time>2016-10-08T01:12:56Z</time></trkpt>
<trkpt lat="29.947931" lon="94.798792">
<time>2016-10-08T01:12:57Z</time></trkpt>
<trkpt lat="29.947811" lon="94.798812">
<time>2016-10-08T01:12:58Z</time></trkpt>
<trkpt lat="29.947771" lon="94.798822">
<time>2016-10-08T01:12:59Z</time></trkpt>
<trkpt lat="29.947741" lon="94.798832">
<time>2016-10-08T01:13:00Z</time></trkpt>
<trkpt lat="29.947701" lon="94.798842">
<time>2016-10-08T01:13:01Z</time></trkpt>
<trkpt lat="29.947661" lon="94.798852">
<time>2016-10-08T01:13:02Z</time></trkpt>
<trkpt lat="29.947631" lon="94.798872">
<time>2016-10-08T01:13:03Z</time></trkpt>
<trkpt lat="29.947611" lon="94.798892">
<time>2016-10-08T01:13:04Z</time></trkpt>
<trkpt lat="29.947581" lon="94.798902">
<time>2016-10-08T01:13:05Z</time></trkpt>
<trkpt lat="29.947551" lon="94.798932">
<time>2016-10-08T01:13:06Z</time></trkpt>
<trkpt lat="29.947531" lon="94.798952">
<time>2016-10-08T01:13:07Z</time></trkpt>
<trkpt lat="29.947511" lon="94.798983">
<time>2016-10-08T01:13:08Z</time></trkpt>
<trkpt lat="29.947501" lon="94.799003">
<time>2016-10-08T01:13:09Z</time></trkpt>
<trkpt lat="29.947481" lon="94.799063">
<time>2016-10-08T01:13:10Z</time></trkpt>
<trkpt lat="29.947471" lon="94.799123">
<time>2016-10-08T01:13:11Z</time></trkpt>
<trkpt lat="29.947461" lon="94.799163">
<time>2016-10-08T01:13:12Z</time></trkpt>
<trkpt lat="29.947471" lon="94.799203">
<time>2016-10-08T01:13:13Z</time></trkpt>
<trkpt lat="29.947482" lon="94.799253">
<time>2016-10-08T01:13:14Z</time></trkpt>
<trkpt lat="29.947502" lon="94.799313">
<time>2016-10-08T01:13:15Z</time></trkpt>
<trkpt lat="29.947522" lon="94.799363">
<time>2016-10-08T01:13:16Z</time></trkpt>
<trkpt lat="29.947572" lon="94.799423">
<time>2016-10-08T01:13:17Z</time></trkpt>
<trkpt lat="29.947622" lon="94.799493">
<time>2016-10-08T01:13:18Z</time></trkpt>
<trkpt lat="29.947702" lon="94.799594">
<time>2016-10-08T01:13:19Z</time></trkpt>
<trkpt lat="29.947792" lon="94.799704">
<time>2016-10-08T01:13:20Z</time></trkpt>
<trkpt lat="29.947882" lon="94.799804">
<time>2016-10-08T01:13:21Z</time></trkpt>
<trkpt lat="29.947963" lon="94.799904">
<time>2016-10-08T01:13:22Z</time></trkpt>
<trkpt lat="29.948083" lon="94.800064">
<time>2016-10-08T01:13:23Z</time></trkpt>
<trkpt lat="29.948173" lon="94.800185">
<time>2016-10-08T01:13:24Z</time></trkpt>
<trkpt lat="29.948263" lon="94.800315">
<time>2016-10-08T01:13:25Z</time></trkpt>
<trkpt lat="29.948343" lon="94.800445">
<time>2016-10-08T01:13:26Z</time></trkpt>
<trkpt lat="29.948434" lon="94.800595">
<time>2016-10-08T01:13:27Z</time></trkpt>
<trkpt lat="29.948574" lon="94.800836">
<time>2016-10-08T01:13:28Z</time></trkpt>
<trkpt lat="29.948634" lon="94.800976">
<time>2016-10-08T01:13:29Z</time></trkpt>
<trkpt lat="29.948684" lon="94.801106">
<time>2016-10-08T01:13:30Z</time></trkpt>
<trkpt lat="29.948705" lon="94.801216">
<time>2016-10-08T01:13:31Z</time></trkpt>
<trkpt lat="29.948705" lon="94.801327">
<time>2016-10-08T01:13:32Z</time></trkpt>
<trkpt lat="29.948685" lon="94.801387">
<time>2016-10-08T01:13:33Z</time></trkpt>
<trkpt lat="29.948665" lon="94.801427">
<time>2016-10-08T01:13:34Z</time></trkpt>
<trkpt lat="29.948635" lon="94.801497">
<time>2016-10-08T01:13:35Z</time></trkpt>
<trkpt lat="29.948585" lon="94.801547">
<time>2016-10-08T01:13:36Z</time></trkpt>
<trkpt lat="29.948545" lon="94.801587">
<time>2016-10-08T01:13:37Z</time></trkpt>
<trkpt lat="29.948475" lon="94.801617">
<time>2016-10-08T01:13:38Z</time></trkpt>
<trkpt lat="29.948405" lon="94.801637">
<time>2016-10-08T01:13:39Z</time></trkpt>
<trkpt lat="29.948335" lon="94.801647">
<time>2016-10-08T01:13:40Z</time></trkpt>
<trkpt lat="29.948235" lon="94.801647">
<time>2016-10-08T01:13:41Z</time></trkpt>
<trkpt lat="29.948095" lon="94.801657">
<time>2016-10-08T01:13:42Z</time></trkpt>
<trkpt lat="29.947955" lon="94.801667">
<time>2016-10-08T01:13:43Z</time></trkpt>
<trkpt lat="29.947825" lon="94.801677">
<time>2016-10-08T01:13:44Z</time></trkpt>
<trkpt lat="29.947735" lon="94.801697">
<time>2016-10-08T01:13:45Z</time></trkpt>
<trkpt lat="29.947645" lon="94.801717">
<time>2016-10-08T01:13:46Z</time></trkpt>
<trkpt lat="29.947546" lon="94.801757">
<time>2016-10-08T01:13:47Z</time></trkpt>
<trkpt lat="29.947406" lon="94.801828">
<time>2016-10-08T01:13:48Z</time></trkpt>
<trkpt lat="29.947266" lon="94.801898">
<time>2016-10-08T01:13:49Z</time></trkpt>
<trkpt lat="29.947106" lon="94.801998">
<time>2016-10-08T01:13:50Z</time></trkpt>
<trkpt lat="29.946956" lon="94.802088">
<time>2016-10-08T01:13:51Z</time></trkpt>
<trkpt lat="29.946816" lon="94.802158">
<time>2016-10-08T01:13:52Z</time></trkpt>
<trkpt lat="29.946746" lon="94.802178">
<time>2016-10-08T01:13:53Z</time></trkpt>
<trkpt lat="29.946646" lon="94.802208">
<time>2016-10-08T01:13:54Z</time></trkpt>
<trkpt lat="29.946566" lon="94.802228">
<time>2016-10-08T01:13:55Z</time></trkpt>
<trkpt lat="29.946446" lon="94.802258">
<time>2016-10-08T01:13:56Z</time></trkpt>
<trkpt lat="29.946306" lon="94.802278">
<time>2016-10-08T01:13:57Z</time></trkpt>
<trkpt lat="29.946226" lon="94.802298">
<time>2016-10-08T01:13:58Z</time></trkpt>
<trkpt lat="29.946146" lon="94.802318">
<time>2016-10-08T01:13:59Z</time></trkpt>
<trkpt lat="29.946067" lon="94.802348">
<time>2016-10-08T01:14:00Z</time></trkpt>
<trkpt lat="29.945987" lon="94.802389">
<time>2016-10-08T01:14:01Z</time></trkpt>
<trkpt lat="29.945847" lon="94.802479">
<time>2016-10-08T01:14:02Z</time></trkpt>
<trkpt lat="29.945767" lon="94.802549">
<time>2016-10-08T01:14:03Z</time></trkpt>
<trkpt lat="29.945657" lon="94.802659">
<time>2016-10-08T01:14:04Z</time></trkpt>
<trkpt lat="29.945567" lon="94.802759">
<time>2016-10-08T01:14:05Z</time></trkpt>
<trkpt lat="29.945497" lon="94.802829">
<time>2016-10-08T01:14:06Z</time></trkpt>
<trkpt lat="29.945397" lon="94.80293">
<time>2016-10-08T01:14:07Z</time></trkpt>
<trkpt lat="29.945298" lon="94.80301">
<time>2016-10-08T01:14:08Z</time></trkpt>
<trkpt lat="29.945188" lon="94.80309">
<time>2016-10-08T01:14:09Z</time></trkpt>
<trkpt lat="29.945108" lon="94.80315">
<time>2016-10-08T01:14:10Z</time></trkpt>
<trkpt lat="29.944958" lon="94.80326">
<time>2016-10-08T01:14:11Z</time></trkpt>
<trkpt lat="29.944798" lon="94.80337">
<time>2016-10-08T01:14:12Z</time></trkpt>
<trkpt lat="29.944658" lon="94.803471">
<time>2016-10-08T01:14:13Z</time></trkpt>
<trkpt lat="29.944578" lon="94.803531">
<time>2016-10-08T01:14:14Z</time></trkpt>
<trkpt lat="29.944329" lon="94.803711">
<time>2016-10-08T01:14:15Z</time></trkpt>
<trkpt lat="29.944219" lon="94.803791">
<time>2016-10-08T01:14:16Z</time></trkpt>
<trkpt lat="29.944079" lon="94.803881">
<time>2016-10-08T01:14:17Z</time></trkpt>
<trkpt lat="29.944019" lon="94.803931">
<time>2016-10-08T01:14:18Z</time></trkpt>
<trkpt lat="29.943939" lon="94.803971">
<time>2016-10-08T01:14:19Z</time></trkpt>
<trkpt lat="29.943869" lon="94.804002">
<time>2016-10-08T01:14:20Z</time></trkpt>
<trkpt lat="29.943779" lon="94.804042">
<time>2016-10-08T01:14:21Z</time></trkpt>
<trkpt lat="29.943679" lon="94.804052">
<time>2016-10-08T01:14:22Z</time></trkpt>
<trkpt lat="29.943589" lon="94.804052">
<time>2016-10-08T01:14:23Z</time></trkpt>
<trkpt lat="29.943509" lon="94.804052">
<time>2016-10-08T01:14:24Z</time></trkpt>
<trkpt lat="29.943449" lon="94.804042">
<time>2016-10-08T01:14:25Z</time></trkpt>
<trkpt lat="29.943399" lon="94.804032">
<time>2016-10-08T01:14:26Z</time></trkpt>
<trkpt lat="29.943189" lon="94.804002">
<time>2016-10-08T01:14:27Z</time></trkpt>
<trkpt lat="29.942909" lon="94.803951">
<time>2016-10-08T01:14:28Z</time></trkpt>
<trkpt lat="29.942709" lon="94.803931">
<time>2016-10-08T01:14:29Z</time></trkpt>
<trkpt lat="29.942509" lon="94.803931">
<time>2016-10-08T01:14:30Z</time></trkpt>
<trkpt lat="29.942369" lon="94.803931">
<time>2016-10-08T01:14:31Z</time></trkpt>
<trkpt lat="29.942149" lon="94.803931">
<time>2016-10-08T01:14:32Z</time></trkpt>
<trkpt lat="29.941959" lon="94.803911">
<time>2016-10-08T01:14:33Z</time></trkpt>
<trkpt lat="29.941759" lon="94.803891">
<time>2016-10-08T01:14:34Z</time></trkpt>
<trkpt lat="29.941549" lon="94.803861">
<time>2016-10-08T01:14:35Z</time></trkpt>
<trkpt lat="29.941339" lon="94.803821">
<time>2016-10-08T01:14:36Z</time></trkpt>
<trkpt lat="29.941169" lon="94.803791">
<time>2016-10-08T01:14:37Z</time></trkpt>
<trkpt lat="29.941059" lon="94.803761">
<time>2016-10-08T01:14:38Z</time></trkpt>
<trkpt lat="29.940869" lon="94.803691">
<time>2016-10-08T01:14:39Z</time></trkpt>
<trkpt lat="29.940779" lon="94.803641">
<time>2016-10-08T01:14:40Z</time></trkpt>
<trkpt lat="29.940679" lon="94.803591">
<time>2016-10-08T01:14:41Z</time></trkpt>
<trkpt lat="29.940609" lon="94.803551">
<time>2016-10-08T01:14:42Z</time></trkpt>
<trkpt lat="29.940488" lon="94.803461">
<time>2016-10-08T01:14:43Z</time></trkpt>
<trkpt lat="29.940398" lon="94.803401">
<time>2016-10-08T01:14:44Z</time></trkpt>
<trkpt lat="29.940278" lon="94.80331">
<time>2016-10-08T01:14:45Z</time></trkpt>
<trkpt lat="29.940198" lon="94.80326">
<time>2016-10-08T01:14:46Z</time></trkpt>
<trkpt lat="29.940118" lon="94.8032">
<time>2016-10-08T01:14:47Z</time></trkpt>
<trkpt lat="29.940018" lon="94.80314">
<time>2016-10-08T01:14:48Z</time></trkpt>
<trkpt lat="29.939928" lon="94.8031">
<time>2016-10-08T01:14:49Z</time></trkpt>
<trkpt lat="29.939848" lon="94.80307">
<time>2016-10-08T01:14:50Z</time></trkpt>
<trkpt lat="29.939758" lon="94.80304">
<time>2016-10-08T01:14:51Z</time></trkpt>
<trkpt lat="29.939628" lon="94.80301">
<time>2016-10-08T01:14:52Z</time></trkpt>
<trkpt lat="29.939378" lon="94.80297">
<time>2016-10-08T01:14:53Z</time></trkpt>
<trkpt lat="29.938927" lon="94.80289">
<time>2016-10-08T01:14:54Z</time></trkpt>
<trkpt lat="29.938797" lon="94.80286">
<time>2016-10-08T01:14:55Z</time></trkpt>
<trkpt lat="29.938657" lon="94.802819">
<time>2016-10-08T01:14:56Z</time></trkpt>
<trkpt lat="29.938527" lon="94.802779">
<time>2016-10-08T01:14:57Z</time></trkpt>
<trkpt lat="29.938397" lon="94.802729">
<time>2016-10-08T01:14:58Z</time></trkpt>
<trkpt lat="29.938257" lon="94.802669">
<time>2016-10-08T01:14:59Z</time></trkpt>
<trkpt lat="29.938157" lon="94.802619">
<time>2016-10-08T01:15:00Z</time></trkpt>
<trkpt lat="29.938077" lon="94.802579">
<time>2016-10-08T01:15:01Z</time></trkpt>
<trkpt lat="29.937977" lon="94.802529">
<time>2016-10-08T01:15:02Z</time></trkpt>
<trkpt lat="29.937897" lon="94.802499">
<time>2016-10-08T01:15:03Z</time></trkpt>
<trkpt lat="29.937817" lon="94.802469">
<time>2016-10-08T01:15:04Z</time></trkpt>
<trkpt lat="29.937727" lon="94.802439">
<time>2016-10-08T01:15:05Z</time></trkpt>
<trkpt lat="29.937647" lon="94.802419">
<time>2016-10-08T01:15:06Z</time></trkpt>
<trkpt lat="29.937557" lon="94.802399">
<time>2016-10-08T01:15:07Z</time></trkpt>
<trkpt lat="29.937477" lon="94.802389">
<time>2016-10-08T01:15:08Z</time></trkpt>
<trkpt lat="29.937347" lon="94.802379">
<time>2016-10-08T01:15:09Z</time></trkpt>
<trkpt lat="29.937187" lon="94.802369">
<time>2016-10-08T01:15:10Z</time></trkpt>
<trkpt lat="29.937117" lon="94.802349">
<time>2016-10-08T01:15:11Z</time></trkpt>
<trkpt lat="29.937017" lon="94.802319">
<time>2016-10-08T01:15:12Z</time></trkpt>
<trkpt lat="29.936926" lon="94.802289">
<time>2016-10-08T01:15:13Z</time></trkpt>
<trkpt lat="29.936826" lon="94.802228">
<time>2016-10-08T01:15:14Z</time></trkpt>
<trkpt lat="29.936776" lon="94.802188">
<time>2016-10-08T01:15:15Z</time></trkpt>
<trkpt lat="29.936716" lon="94.802138">
<time>2016-10-08T01:15:16Z</time></trkpt>
<trkpt lat="29.936646" lon="94.802088">
<time>2016-10-08T01:15:17Z</time></trkpt>
<trkpt lat="29.936556" lon="94.802018">
<time>2016-10-08T01:15:18Z</time></trkpt>
<trkpt lat="29.936466" lon="94.801958">
<time>2016-10-08T01:15:19Z</time></trkpt>
<trkpt lat="29.936386" lon="94.801918">
<time>2016-10-08T01:15:20Z</time></trkpt>
<trkpt lat="29.936306" lon="94.801868">
<time>2016-10-08T01:15:21Z</time></trkpt>
<trkpt lat="29.936246" lon="94.801838">
<time>2016-10-08T01:15:22Z</time></trkpt>
<trkpt lat="29.936156" lon="94.801798">
<time>2016-10-08T01:15:23Z</time></trkpt>
<trkpt lat="29.936086" lon="94.801778">
<time>2016-10-08T01:15:24Z</time></trkpt>
<trkpt lat="29.936016" lon="94.801748">
<time>2016-10-08T01:15:25Z</time></trkpt>
<trkpt lat="29.935896" lon="94.801718">
<time>2016-10-08T01:15:26Z</time></trkpt>
<trkpt lat="29.935755" lon="94.801688">
<time>2016-10-08T01:15:27Z</time></trkpt>
<trkpt lat="29.935655" lon="94.801677">
<time>2016-10-08T01:15:28Z</time></trkpt>
<trkpt lat="29.935545" lon="94.801677">
<time>2016-10-08T01:15:29Z</time></trkpt>
<trkpt lat="29.935435" lon="94.801698">
<time>2016-10-08T01:15:30Z</time></trkpt>
<trkpt lat="29.935356" lon="94.801708">
<time>2016-10-08T01:15:31Z</time></trkpt>
<trkpt lat="29.935186" lon="94.801748">
<time>2016-10-08T01:15:32Z</time></trkpt>
<trkpt lat="29.935036" lon="94.801768">
<time>2016-10-08T01:15:33Z</time></trkpt>
<trkpt lat="29.934916" lon="94.801778">
<time>2016-10-08T01:15:34Z</time></trkpt>
<trkpt lat="29.934776" lon="94.801768">
<time>2016-10-08T01:15:35Z</time></trkpt>
<trkpt lat="29.934636" lon="94.801748">
<time>2016-10-08T01:15:36Z</time></trkpt>
<trkpt lat="29.934496" lon="94.801708">
<time>2016-10-08T01:15:37Z</time></trkpt>
<trkpt lat="29.934365" lon="94.801667">
<time>2016-10-08T01:15:38Z</time></trkpt>
<trkpt lat="29.934215" lon="94.801617">
<time>2016-10-08T01:15:39Z</time></trkpt>
<trkpt lat="29.934055" lon="94.801557">
<time>2016-10-08T01:15:40Z</time></trkpt>
<trkpt lat="29.933935" lon="94.801507">
<time>2016-10-08T01:15:41Z</time></trkpt>
<trkpt lat="29.933755" lon="94.801417">
<time>2016-10-08T01:15:42Z</time></trkpt>
<trkpt lat="29.933625" lon="94.801357">
<time>2016-10-08T01:15:43Z</time></trkpt>
<trkpt lat="29.933515" lon="94.801307">
<time>2016-10-08T01:15:44Z</time></trkpt>
<trkpt lat="29.933355" lon="94.801227">
<time>2016-10-08T01:15:45Z</time></trkpt>
<trkpt lat="29.933205" lon="94.801157">
<time>2016-10-08T01:15:46Z</time></trkpt>
<trkpt lat="29.933095" lon="94.801117">
<time>2016-10-08T01:15:47Z</time></trkpt>
<trkpt lat="29.933015" lon="94.801097">
<time>2016-10-08T01:15:48Z</time></trkpt>
<trkpt lat="29.932935" lon="94.801086">
<time>2016-10-08T01:15:49Z</time></trkpt>
<trkpt lat="29.932885" lon="94.801086">
<time>2016-10-08T01:15:50Z</time></trkpt>
<trkpt lat="29.932785" lon="94.801086">
<time>2016-10-08T01:15:51Z</time></trkpt>
<trkpt lat="29.932675" lon="94.801107">
<time>2016-10-08T01:15:52Z</time></trkpt>
<trkpt lat="29.932585" lon="94.801127">
<time>2016-10-08T01:15:53Z</time></trkpt>
<trkpt lat="29.932415" lon="94.801167">
<time>2016-10-08T01:15:54Z</time></trkpt>
<trkpt lat="29.932255" lon="94.801207">
<time>2016-10-08T01:15:55Z</time></trkpt>
<trkpt lat="29.932125" lon="94.801237">
<time>2016-10-08T01:15:56Z</time></trkpt>
<trkpt lat="29.931945" lon="94.801277">
<time>2016-10-08T01:15:57Z</time></trkpt>
<trkpt lat="29.931695" lon="94.801327">
<time>2016-10-08T01:15:58Z</time></trkpt>
<trkpt lat="29.931475" lon="94.801357">
<time>2016-10-08T01:15:59Z</time></trkpt>
<trkpt lat="29.931335" lon="94.801357">
<time>2016-10-08T01:16:00Z</time></trkpt>
<trkpt lat="29.931185" lon="94.801357">
<time>2016-10-08T01:16:01Z</time></trkpt>
<trkpt lat="29.930975" lon="94.801337">
<time>2016-10-08T01:16:02Z</time></trkpt>
<trkpt lat="29.930705" lon="94.801307">
<time>2016-10-08T01:16:03Z</time></trkpt>
<trkpt lat="29.930365" lon="94.801277">
<time>2016-10-08T01:16:04Z</time></trkpt>
<trkpt lat="29.930035" lon="94.801247">
<time>2016-10-08T01:16:05Z</time></trkpt>
<trkpt lat="29.929555" lon="94.801197">
<time>2016-10-08T01:16:06Z</time></trkpt>
<trkpt lat="29.929445" lon="94.801177">
<time>2016-10-08T01:16:07Z</time></trkpt>
<trkpt lat="29.929285" lon="94.801127">
<time>2016-10-08T01:16:08Z</time></trkpt>
<trkpt lat="29.929175" lon="94.801087">
<time>2016-10-08T01:16:09Z</time></trkpt>
<trkpt lat="29.929024" lon="94.801016">
<time>2016-10-08T01:16:10Z</time></trkpt>
<trkpt lat="29.928884" lon="94.800936">
<time>2016-10-08T01:16:11Z</time></trkpt>
<trkpt lat="29.928734" lon="94.800846">
<time>2016-10-08T01:16:12Z</time></trkpt>
<trkpt lat="29.928594" lon="94.800786">
<time>2016-10-08T01:16:13Z</time></trkpt>
<trkpt lat="29.928454" lon="94.800736">
<time>2016-10-08T01:16:14Z</time></trkpt>
<trkpt lat="29.928334" lon="94.800706">
<time>2016-10-08T01:16:15Z</time></trkpt>
<trkpt lat="29.928204" lon="94.800706">
<time>2016-10-08T01:16:16Z</time></trkpt>
<trkpt lat="29.928064" lon="94.800726">
<time>2016-10-08T01:16:17Z</time></trkpt>
<trkpt lat="29.927974" lon="94.800736">
<time>2016-10-08T01:16:18Z</time></trkpt>
<trkpt lat="29.927824" lon="94.800766">
<time>2016-10-08T01:16:19Z</time></trkpt>
<trkpt lat="29.927654" lon="94.800786">
<time>2016-10-08T01:16:20Z</time></trkpt>
<trkpt lat="29.927514" lon="94.800796">
<time>2016-10-08T01:16:21Z</time></trkpt>
<trkpt lat="29.927294" lon="94.800806">
<time>2016-10-08T01:16:22Z</time></trkpt>
<trkpt lat="29.927084" lon="94.800816">
<time>2016-10-08T01:16:23Z</time></trkpt>
<trkpt lat="29.926864" lon="94.800806">
<time>2016-10-08T01:16:24Z</time></trkpt>
<trkpt lat="29.926664" lon="94.800796">
<time>2016-10-08T01:16:25Z</time></trkpt>
<trkpt lat="29.926384" lon="94.800776">
<time>2016-10-08T01:16:26Z</time></trkpt>
<trkpt lat="29.926174" lon="94.800766">
<time>2016-10-08T01:16:27Z</time></trkpt>
<trkpt lat="29.925964" lon="94.800756">
<time>2016-10-08T01:16:28Z</time></trkpt>
<trkpt lat="29.925824" lon="94.800746">
<time>2016-10-08T01:16:29Z</time></trkpt>
<trkpt lat="29.925694" lon="94.800736">
<time>2016-10-08T01:16:30Z</time></trkpt>
<trkpt lat="29.925604" lon="94.800716">
<time>2016-10-08T01:16:31Z</time></trkpt>
<trkpt lat="29.925424" lon="94.800666">
<time>2016-10-08T01:16:32Z</time></trkpt>
<trkpt lat="29.925264" lon="94.800616">
<time>2016-10-08T01:16:33Z</time></trkpt>
<trkpt lat="29.925054" lon="94.800526">
<time>2016-10-08T01:16:34Z</time></trkpt>
<trkpt lat="29.924743" lon="94.800385">
<time>2016-10-08T01:16:35Z</time></trkpt>
<trkpt lat="29.924453" lon="94.800265">
<time>2016-10-08T01:16:36Z</time></trkpt>
<trkpt lat="29.924203" lon="94.800155">
<time>2016-10-08T01:16:37Z</time></trkpt>
<trkpt lat="29.924063" lon="94.800095">
<time>2016-10-08T01:16:38Z</time></trkpt>
<trkpt lat="29.923933" lon="94.800025">
<time>2016-10-08T01:16:39Z</time></trkpt>
<trkpt lat="29.923823" lon="94.799955">
<time>2016-10-08T01:16:40Z</time></trkpt>
<trkpt lat="29.923713" lon="94.799865">
<time>2016-10-08T01:16:41Z</time></trkpt>
<trkpt lat="29.923612" lon="94.799774">
<time>2016-10-08T01:16:42Z</time></trkpt>
<trkpt lat="29.923502" lon="94.799674">
<time>2016-10-08T01:16:43Z</time></trkpt>
<trkpt lat="29.923422" lon="94.799604">
<time>2016-10-08T01:16:44Z</time></trkpt>
<trkpt lat="29.923332" lon="94.799524">
<time>2016-10-08T01:16:45Z</time></trkpt>
<trkpt lat="29.923222" lon="94.799434">
<time>2016-10-08T01:16:46Z</time></trkpt>
<trkpt lat="29.923122" lon="94.799354">
<time>2016-10-08T01:16:47Z</time></trkpt>
<trkpt lat="29.923042" lon="94.799284">
<time>2016-10-08T01:16:48Z</time></trkpt>
<trkpt lat="29.922952" lon="94.799213">
<time>2016-10-08T01:16:49Z</time></trkpt>
<trkpt lat="29.922821" lon="94.799113">
<time>2016-10-08T01:16:50Z</time></trkpt>
<trkpt lat="29.922691" lon="94.799013">
<time>2016-10-08T01:16:51Z</time></trkpt>
<trkpt lat="29.922531" lon="94.798883">
<time>2016-10-08T01:16:52Z</time></trkpt>
<trkpt lat="29.922411" lon="94.798783">
<time>2016-10-08T01:16:53Z</time></trkpt>
<trkpt lat="29.922281" lon="94.798693">
<time>2016-10-08T01:16:54Z</time></trkpt>
<trkpt lat="29.922131" lon="94.798602">
<time>2016-10-08T01:16:55Z</time></trkpt>
<trkpt lat="29.922041" lon="94.798542">
<time>2016-10-08T01:16:56Z</time></trkpt>
<trkpt lat="29.92194" lon="94.798482">
<time>2016-10-08T01:16:57Z</time></trkpt>
<trkpt lat="29.92182" lon="94.798422">
<time>2016-10-08T01:16:58Z</time></trkpt>
<trkpt lat="29.92166" lon="94.798352">
<time>2016-10-08T01:16:59Z</time></trkpt>
<trkpt lat="29.9215" lon="94.798282">
<time>2016-10-08T01:17:00Z</time></trkpt>
<trkpt lat="29.92132" lon="94.798222">
<time>2016-10-08T01:17:01Z</time></trkpt>
<trkpt lat="29.9211" lon="94.798132">
<time>2016-10-08T01:17:02Z</time></trkpt>
<trkpt lat="29.92087" lon="94.798041">
<time>2016-10-08T01:17:03Z</time></trkpt>
<trkpt lat="29.92064" lon="94.797951">
<time>2016-10-08T01:17:04Z</time></trkpt>
<trkpt lat="29.920409" lon="94.797841">
<time>2016-10-08T01:17:05Z</time></trkpt>
<trkpt lat="29.920269" lon="94.797781">
<time>2016-10-08T01:17:06Z</time></trkpt>
<trkpt lat="29.920139" lon="94.797701">
<time>2016-10-08T01:17:07Z</time></trkpt>
<trkpt lat="29.919989" lon="94.797621">
<time>2016-10-08T01:17:08Z</time></trkpt>
<trkpt lat="29.919859" lon="94.797561">
<time>2016-10-08T01:17:09Z</time></trkpt>
<trkpt lat="29.919779" lon="94.797521">
<time>2016-10-08T01:17:10Z</time></trkpt>
<trkpt lat="29.919659" lon="94.797481">
<time>2016-10-08T01:17:11Z</time></trkpt>
<trkpt lat="29.919529" lon="94.79743">
<time>2016-10-08T01:17:12Z</time></trkpt>
<trkpt lat="29.919399" lon="94.79739">
<time>2016-10-08T01:17:13Z</time></trkpt>
<trkpt lat="29.919249" lon="94.79735">
<time>2016-10-08T01:17:14Z</time></trkpt>
<trkpt lat="29.919059" lon="94.79729">
<time>2016-10-08T01:17:15Z</time></trkpt>
<trkpt lat="29.918849" lon="94.79723">
<time>2016-10-08T01:17:16Z</time></trkpt>
<trkpt lat="29.918628" lon="94.79718">
<time>2016-10-08T01:17:17Z</time></trkpt>
<trkpt lat="29.918418" lon="94.79715">
<time>2016-10-08T01:17:18Z</time></trkpt>
<trkpt lat="29.918218" lon="94.79716">
<time>2016-10-08T01:17:19Z</time></trkpt>
<trkpt lat="29.917939" lon="94.79721">
<time>2016-10-08T01:17:20Z</time></trkpt>
<trkpt lat="29.917589" lon="94.79728">
<time>2016-10-08T01:17:21Z</time></trkpt>
<trkpt lat="29.917239" lon="94.79734">
<time>2016-10-08T01:17:22Z</time></trkpt>
<trkpt lat="29.916819" lon="94.79741">
<time>2016-10-08T01:17:23Z</time></trkpt>
<trkpt lat="29.916699" lon="94.79743">
<time>2016-10-08T01:17:24Z</time></trkpt>
<trkpt lat="29.916549" lon="94.797471">
<time>2016-10-08T01:17:25Z</time></trkpt>
<trkpt lat="29.916399" lon="94.797501">
<time>2016-10-08T01:17:26Z</time></trkpt>
<trkpt lat="29.916219" lon="94.797531">
<time>2016-10-08T01:17:27Z</time></trkpt>
<trkpt lat="29.916019" lon="94.797561">
<time>2016-10-08T01:17:28Z</time></trkpt>
<trkpt lat="29.915859" lon="94.797571">
<time>2016-10-08T01:17:29Z</time></trkpt>
<trkpt lat="29.915739" lon="94.797601">
<time>2016-10-08T01:17:30Z</time></trkpt>
<trkpt lat="29.915609" lon="94.797641">
<time>2016-10-08T01:17:31Z</time></trkpt>
<trkpt lat="29.915519" lon="94.797681">
<time>2016-10-08T01:17:32Z</time></trkpt>
<trkpt lat="29.915459" lon="94.797721">
<time>2016-10-08T01:17:33Z</time></trkpt>
<trkpt lat="29.915399" lon="94.797771">
<time>2016-10-08T01:17:34Z</time></trkpt>
<trkpt lat="29.91534" lon="94.797831">
<time>2016-10-08T01:17:35Z</time></trkpt>
<trkpt lat="29.91525" lon="94.797941">
<time>2016-10-08T01:17:36Z</time></trkpt>
<trkpt lat="29.91514" lon="94.798072">
<time>2016-10-08T01:17:37Z</time></trkpt>
<trkpt lat="29.91501" lon="94.798212">
<time>2016-10-08T01:17:38Z</time></trkpt>
<trkpt lat="29.91494" lon="94.798302">
<time>2016-10-08T01:17:39Z</time></trkpt>
<trkpt lat="29.91486" lon="94.798392">
<time>2016-10-08T01:17:40Z</time></trkpt>
<trkpt lat="29.914651" lon="94.798582">
<time>2016-10-08T01:17:41Z</time></trkpt>
<trkpt lat="29.914431" lon="94.798773">
<time>2016-10-08T01:17:42Z</time></trkpt>
<trkpt lat="29.914311" lon="94.798873">
<time>2016-10-08T01:17:43Z</time></trkpt>
<trkpt lat="29.914271" lon="94.798913">
<time>2016-10-08T01:17:44Z</time></trkpt>
<trkpt lat="29.914221" lon="94.798953">
<time>2016-10-08T01:17:45Z</time></trkpt>
<trkpt lat="29.914141" lon="94.799013">
<time>2016-10-08T01:17:46Z</time></trkpt>
<trkpt lat="29.914051" lon="94.799063">
<time>2016-10-08T01:17:47Z</time></trkpt>
<trkpt lat="29.913962" lon="94.799093">
<time>2016-10-08T01:17:48Z</time></trkpt>
<trkpt lat="29.913862" lon="94.799113">
<time>2016-10-08T01:17:49Z</time></trkpt>
<trkpt lat="29.913742" lon="94.799133">
<time>2016-10-08T01:17:50Z</time></trkpt>
<trkpt lat="29.913592" lon="94.799153">
<time>2016-10-08T01:17:51Z</time></trkpt>
<trkpt lat="29.913432" lon="94.799164">
<time>2016-10-08T01:17:52Z</time></trkpt>
<trkpt lat="29.913152" lon="94.799204">
<time>2016-10-08T01:17:53Z</time></trkpt>
<trkpt lat="29.913042" lon="94.799214">
<time>2016-10-08T01:17:54Z</time></trkpt>
<trkpt lat="29.912812" lon="94.799234">
<time>2016-10-08T01:17:55Z</time></trkpt>
<trkpt lat="29.912742" lon="94.799234">
<time>2016-10-08T01:17:56Z</time></trkpt>
<trkpt lat="29.912652" lon="94.799234">
<time>2016-10-08T01:17:57Z</time></trkpt>
<trkpt lat="29.912572" lon="94.799214">
<time>2016-10-08T01:17:58Z</time></trkpt>
<trkpt lat="29.912492" lon="94.799184">
<time>2016-10-08T01:17:59Z</time></trkpt>
<trkpt lat="29.912432" lon="94.799154">
<time>2016-10-08T01:18:00Z</time></trkpt>
<trkpt lat="29.912392" lon="94.799133">
<time>2016-10-08T01:18:01Z</time></trkpt>
<trkpt lat="29.912352" lon="94.799093">
<time>2016-10-08T01:18:02Z</time></trkpt>
<trkpt lat="29.912312" lon="94.799063">
<time>2016-10-08T01:18:03Z</time></trkpt>
<trkpt lat="29.912271" lon="94.799013">
<time>2016-10-08T01:18:04Z</time></trkpt>
<trkpt lat="29.912231" lon="94.798963">
<time>2016-10-08T01:18:05Z</time></trkpt>
<trkpt lat="29.912171" lon="94.798873">
<time>2016-10-08T01:18:06Z</time></trkpt>
<trkpt lat="29.912031" lon="94.798613">
<time>2016-10-08T01:18:07Z</time></trkpt>
<trkpt lat="29.911921" lon="94.798422">
<time>2016-10-08T01:18:08Z</time></trkpt>
<trkpt lat="29.91171" lon="94.798072">
<time>2016-10-08T01:18:09Z</time></trkpt>
<trkpt lat="29.9116" lon="94.797901">
<time>2016-10-08T01:18:10Z</time></trkpt>
<trkpt lat="29.911519" lon="94.797771">
<time>2016-10-08T01:18:11Z</time></trkpt>
<trkpt lat="29.911429" lon="94.797651">
<time>2016-10-08T01:18:12Z</time></trkpt>
<trkpt lat="29.911389" lon="94.797611">
<time>2016-10-08T01:18:13Z</time></trkpt>
<trkpt lat="29.911339" lon="94.797551">
<time>2016-10-08T01:18:14Z</time></trkpt>
<trkpt lat="29.911249" lon="94.797461">
<time>2016-10-08T01:18:15Z</time></trkpt>
<trkpt lat="29.911179" lon="94.797421">
<time>2016-10-08T01:18:16Z</time></trkpt>
<trkpt lat="29.911119" lon="94.797381">
<time>2016-10-08T01:18:17Z</time></trkpt>
<trkpt lat="29.910989" lon="94.7973">
<time>2016-10-08T01:18:18Z</time></trkpt>
<trkpt lat="29.909918" lon="94.796659">
<time>2016-10-08T01:18:19Z</time></trkpt>
<trkpt lat="29.909788" lon="94.796589">
<time>2016-10-08T01:18:20Z</time></trkpt>
<trkpt lat="29.909567" lon="94.796449">
<time>2016-10-08T01:18:21Z</time></trkpt>
<trkpt lat="29.909397" lon="94.796329">
<time>2016-10-08T01:18:22Z</time></trkpt>
<trkpt lat="29.909327" lon="94.796269">
<time>2016-10-08T01:18:23Z</time></trkpt>
<trkpt lat="29.909267" lon="94.796219">
<time>2016-10-08T01:18:24Z</time></trkpt>
<trkpt lat="29.909217" lon="94.796158">
<time>2016-10-08T01:18:25Z</time></trkpt>
<trkpt lat="29.909177" lon="94.796108">
<time>2016-10-08T01:18:26Z</time></trkpt>
<trkpt lat="29.909147" lon="94.796068">
<time>2016-10-08T01:18:27Z</time></trkpt>
<trkpt lat="29.909127" lon="94.796028">
<time>2016-10-08T01:18:28Z</time></trkpt>
<trkpt lat="29.909107" lon="94.795988">
<time>2016-10-08T01:18:29Z</time></trkpt>
<trkpt lat="29.909087" lon="94.795948">
<time>2016-10-08T01:18:30Z</time></trkpt>
<trkpt lat="29.909067" lon="94.795868">
<time>2016-10-08T01:18:31Z</time></trkpt>
<trkpt lat="29.909047" lon="94.795798">
<time>2016-10-08T01:18:32Z</time></trkpt>
<trkpt lat="29.909036" lon="94.795698">
<time>2016-10-08T01:18:33Z</time></trkpt>
<trkpt lat="29.908996" lon="94.795417">
<time>2016-10-08T01:18:34Z</time></trkpt>
<trkpt lat="29.908976" lon="94.795277">
<time>2016-10-08T01:18:35Z</time></trkpt>
<trkpt lat="29.908956" lon="94.795177">
<time>2016-10-08T01:18:36Z</time></trkpt>
<trkpt lat="29.908925" lon="94.795097">
<time>2016-10-08T01:18:37Z</time></trkpt>
<trkpt lat="29.908905" lon="94.795027">
<time>2016-10-08T01:18:38Z</time></trkpt>
<trkpt lat="29.908875" lon="94.794967">
<time>2016-10-08T01:18:39Z</time></trkpt>
<trkpt lat="29.908825" lon="94.794886">
<time>2016-10-08T01:18:40Z</time></trkpt>
<trkpt lat="29.908765" lon="94.794816">
<time>2016-10-08T01:18:41Z</time></trkpt>
<trkpt lat="29.908685" lon="94.794746">
<time>2016-10-08T01:18:42Z</time></trkpt>
<trkpt lat="29.908585" lon="94.794666">
<time>2016-10-08T01:18:43Z</time></trkpt>
<trkpt lat="29.908435" lon="94.794556">
<time>2016-10-08T01:18:44Z</time></trkpt>
<trkpt lat="29.908224" lon="94.794406">
<time>2016-10-08T01:18:45Z</time></trkpt>
<trkpt lat="29.907994" lon="94.794225">
<time>2016-10-08T01:18:46Z</time></trkpt>
<trkpt lat="29.907854" lon="94.794135">
<time>2016-10-08T01:18:47Z</time></trkpt>
<trkpt lat="29.907694" lon="94.794015">
<time>2016-10-08T01:18:48Z</time></trkpt>
<trkpt lat="29.907504" lon="94.793875">
<time>2016-10-08T01:18:49Z</time></trkpt>
<trkpt lat="29.907253" lon="94.793675">
<time>2016-10-08T01:18:50Z</time></trkpt>
<trkpt lat="29.906553" lon="94.793164">
<time>2016-10-08T01:18:51Z</time></trkpt>
<trkpt lat="29.906262" lon="94.792943">
<time>2016-10-08T01:18:52Z</time></trkpt>
<trkpt lat="29.905952" lon="94.792723">
<time>2016-10-08T01:18:53Z</time></trkpt>
<trkpt lat="29.905872" lon="94.792673">
<time>2016-10-08T01:18:54Z</time></trkpt>
<trkpt lat="29.905782" lon="94.792613">
<time>2016-10-08T01:18:55Z</time></trkpt>
<trkpt lat="29.905642" lon="94.792543">
<time>2016-10-08T01:18:56Z</time></trkpt>
<trkpt lat="29.905502" lon="94.792483">
<time>2016-10-08T01:18:57Z</time></trkpt>
<trkpt lat="29.905372" lon="94.792443">
<time>2016-10-08T01:18:58Z</time></trkpt>
<trkpt lat="29.905222" lon="94.792403">
<time>2016-10-08T01:18:59Z</time></trkpt>
<trkpt lat="29.905072" lon="94.792362">
<time>2016-10-08T01:19:00Z</time></trkpt>
<trkpt lat="29.904861" lon="94.792322">
<time>2016-10-08T01:19:01Z</time></trkpt>
<trkpt lat="29.904691" lon="94.792292">
<time>2016-10-08T01:19:02Z</time></trkpt>
<trkpt lat="29.904411" lon="94.792252">
<time>2016-10-08T01:19:03Z</time></trkpt>
<trkpt lat="29.904281" lon="94.792232">
<time>2016-10-08T01:19:04Z</time></trkpt>
<trkpt lat="29.904211" lon="94.792222">
<time>2016-10-08T01:19:05Z</time></trkpt>
<trkpt lat="29.904141" lon="94.792202">
<time>2016-10-08T01:19:06Z</time></trkpt>
<trkpt lat="29.904011" lon="94.792162">
<time>2016-10-08T01:19:07Z</time></trkpt>
<trkpt lat="29.903931" lon="94.792132">
<time>2016-10-08T01:19:08Z</time></trkpt>
<trkpt lat="29.903881" lon="94.792102">
<time>2016-10-08T01:19:09Z</time></trkpt>
<trkpt lat="29.903831" lon="94.792062">
<time>2016-10-08T01:19:10Z</time></trkpt>
<trkpt lat="29.903741" lon="94.791982">
<time>2016-10-08T01:19:11Z</time></trkpt>
<trkpt lat="29.903671" lon="94.791902">
<time>2016-10-08T01:19:12Z</time></trkpt>
<trkpt lat="29.903601" lon="94.791802">
<time>2016-10-08T01:19:13Z</time></trkpt>
<trkpt lat="29.903541" lon="94.791691">
<time>2016-10-08T01:19:14Z</time></trkpt>
<trkpt lat="29.90343" lon="94.791521">
<time>2016-10-08T01:19:15Z</time></trkpt>
<trkpt lat="29.90323" lon="94.791151">
<time>2016-10-08T01:19:16Z</time></trkpt>
<trkpt lat="29.90312" lon="94.79097">
<time>2016-10-08T01:19:17Z</time></trkpt>
<trkpt lat="29.903049" lon="94.79088">
<time>2016-10-08T01:19:18Z</time></trkpt>
<trkpt lat="29.902959" lon="94.79076">
<time>2016-10-08T01:19:19Z</time></trkpt>
<trkpt lat="29.902889" lon="94.7907">
<time>2016-10-08T01:19:20Z</time></trkpt>
<trkpt lat="29.902839" lon="94.79065">
<time>2016-10-08T01:19:21Z</time></trkpt>
<trkpt lat="29.902769" lon="94.7906">
<time>2016-10-08T01:19:22Z</time></trkpt>
<trkpt lat="29.902699" lon="94.79054">
<time>2016-10-08T01:19:23Z</time></trkpt>
<trkpt lat="29.902599" lon="94.79048">
<time>2016-10-08T01:19:24Z</time></trkpt>
<trkpt lat="29.902469" lon="94.79041">
<time>2016-10-08T01:19:25Z</time></trkpt>
<trkpt lat="29.902349" lon="94.790359">
<time>2016-10-08T01:19:26Z</time></trkpt>
<trkpt lat="29.902299" lon="94.790349">
<time>2016-10-08T01:19:27Z</time></trkpt>
<trkpt lat="29.902209" lon="94.790319">
<time>2016-10-08T01:19:28Z</time></trkpt>
<trkpt lat="29.902069" lon="94.790299">
<time>2016-10-08T01:19:29Z</time></trkpt>
<trkpt lat="29.901939" lon="94.790289">
<time>2016-10-08T01:19:30Z</time></trkpt>
<trkpt lat="29.901809" lon="94.790289">
<time>2016-10-08T01:19:31Z</time></trkpt>
<trkpt lat="29.901729" lon="94.790299">
<time>2016-10-08T01:19:32Z</time></trkpt>
<trkpt lat="29.901089" lon="94.790359">
<time>2016-10-08T01:19:33Z</time></trkpt>
<trkpt lat="29.900799" lon="94.79039">
<time>2016-10-08T01:19:34Z</time></trkpt>
<trkpt lat="29.900649" lon="94.79039">
<time>2016-10-08T01:19:35Z</time></trkpt>
<trkpt lat="29.900579" lon="94.79039">
<time>2016-10-08T01:19:36Z</time></trkpt>
<trkpt lat="29.900529" lon="94.79038">
<time>2016-10-08T01:19:37Z</time></trkpt>
<trkpt lat="29.900439" lon="94.79037">
<time>2016-10-08T01:19:38Z</time></trkpt>
<trkpt lat="29.900359" lon="94.790349">
<time>2016-10-08T01:19:39Z</time></trkpt>
<trkpt lat="29.900259" lon="94.790309">
<time>2016-10-08T01:19:40Z</time></trkpt>
<trkpt lat="29.900049" lon="94.790219">
<time>2016-10-08T01:19:41Z</time></trkpt>
<trkpt lat="29.899868" lon="94.790139">
<time>2016-10-08T01:19:42Z</time></trkpt>
<trkpt lat="29.899788" lon="94.790099">
<time>2016-10-08T01:19:43Z</time></trkpt>
<trkpt lat="29.899708" lon="94.790049">
<time>2016-10-08T01:19:44Z</time></trkpt>
<trkpt lat="29.899638" lon="94.790009">
<time>2016-10-08T01:19:45Z</time></trkpt>
<trkpt lat="29.899588" lon="94.789959">
<time>2016-10-08T01:19:46Z</time></trkpt>
<trkpt lat="29.899358" lon="94.789759">
<time>2016-10-08T01:19:47Z</time></trkpt>
<trkpt lat="29.899248" lon="94.789658">
<time>2016-10-08T01:19:48Z</time></trkpt>
<trkpt lat="29.899158" lon="94.789588">
<time>2016-10-08T01:19:49Z</time></trkpt>
<trkpt lat="29.899078" lon="94.789538">
<time>2016-10-08T01:19:50Z</time></trkpt>
<trkpt lat="29.898998" lon="94.789498">
<time>2016-10-08T01:19:51Z</time></trkpt>
<trkpt lat="29.898928" lon="94.789478">
<time>2016-10-08T01:19:52Z</time></trkpt>
<trkpt lat="29.898878" lon="94.789458">
<time>2016-10-08T01:19:53Z</time></trkpt>
<trkpt lat="29.898818" lon="94.789448">
<time>2016-10-08T01:19:54Z</time></trkpt>
<trkpt lat="29.898718" lon="94.789438">
<time>2016-10-08T01:19:55Z</time></trkpt>
<trkpt lat="29.898538" lon="94.789428">
<time>2016-10-08T01:19:56Z</time></trkpt>
<trkpt lat="29.898298" lon="94.789398">
<time>2016-10-08T01:19:57Z</time></trkpt>
<trkpt lat="29.898117" lon="94.789378">
<time>2016-10-08T01:19:58Z</time></trkpt>
<trkpt lat="29.897927" lon="94.789348">
<time>2016-10-08T01:19:59Z</time></trkpt>
<trkpt lat="29.897747" lon="94.789308">
<time>2016-10-08T01:20:00Z</time></trkpt>
<trkpt lat="29.897577" lon="94.789268">
<time>2016-10-08T01:20:01Z</time></trkpt>
<trkpt lat="29.897277" lon="94.789178">
<time>2016-10-08T01:20:02Z</time></trkpt>
<trkpt lat="29.897057" lon="94.789108">
<time>2016-10-08T01:20:03Z</time></trkpt>
<trkpt lat="29.896807" lon="94.789038">
<time>2016-10-08T01:20:04Z</time></trkpt>
<trkpt lat="29.896527" lon="94.788968">
<time>2016-10-08T01:20:05Z</time></trkpt>
<trkpt lat="29.896307" lon="94.788897">
<time>2016-10-08T01:20:06Z</time></trkpt>
<trkpt lat="29.896187" lon="94.788867">
<time>2016-10-08T01:20:07Z</time></trkpt>
<trkpt lat="29.896057" lon="94.788817">
<time>2016-10-08T01:20:08Z</time></trkpt>
<trkpt lat="29.895967" lon="94.788787">
<time>2016-10-08T01:20:09Z</time></trkpt>
<trkpt lat="29.895797" lon="94.788697">
<time>2016-10-08T01:20:10Z</time></trkpt>
<trkpt lat="29.895747" lon="94.788667">
<time>2016-10-08T01:20:11Z</time></trkpt>
<trkpt lat="29.895556" lon="94.788557">
<time>2016-10-08T01:20:12Z</time></trkpt>
<trkpt lat="29.895376" lon="94.788437">
<time>2016-10-08T01:20:13Z</time></trkpt>
<trkpt lat="29.895246" lon="94.788367">
<time>2016-10-08T01:20:14Z</time></trkpt>
<trkpt lat="29.895106" lon="94.788297">
<time>2016-10-08T01:20:15Z</time></trkpt>
<trkpt lat="29.894966" lon="94.788226">
<time>2016-10-08T01:20:16Z</time></trkpt>
<trkpt lat="29.894836" lon="94.788176">
<time>2016-10-08T01:20:17Z</time></trkpt>
<trkpt lat="29.894686" lon="94.788116">
<time>2016-10-08T01:20:18Z</time></trkpt>
<trkpt lat="29.894506" lon="94.788056">
<time>2016-10-08T01:20:19Z</time></trkpt>
<trkpt lat="29.894396" lon="94.788016">
<time>2016-10-08T01:20:20Z</time></trkpt>
<trkpt lat="29.894346" lon="94.788006">
<time>2016-10-08T01:20:21Z</time></trkpt>
<trkpt lat="29.894296" lon="94.787986">
<time>2016-10-08T01:20:22Z</time></trkpt>
<trkpt lat="29.894216" lon="94.787976">
<time>2016-10-08T01:20:23Z</time></trkpt>
<trkpt lat="29.894126" lon="94.787966">
<time>2016-10-08T01:20:24Z</time></trkpt>
<trkpt lat="29.893976" lon="94.787956">
<time>2016-10-08T01:20:25Z</time></trkpt>
<trkpt lat="29.893846" lon="94.787956">
<time>2016-10-08T01:20:26Z</time></trkpt>
<trkpt lat="29.893696" lon="94.787956">
<time>2016-10-08T01:20:27Z</time></trkpt>
<trkpt lat="29.893586" lon="94.787956">
<time>2016-10-08T01:20:28Z</time></trkpt>
<trkpt lat="29.893496" lon="94.787946">
<time>2016-10-08T01:20:29Z</time></trkpt>
<trkpt lat="29.893446" lon="94.787936">
<time>2016-10-08T01:20:30Z</time></trkpt>
<trkpt lat="29.893376" lon="94.787916">
<time>2016-10-08T01:20:31Z</time></trkpt>
<trkpt lat="29.893316" lon="94.787886">
<time>2016-10-08T01:20:32Z</time></trkpt>
<trkpt lat="29.893226" lon="94.787836">
<time>2016-10-08T01:20:33Z</time></trkpt>
<trkpt lat="29.893166" lon="94.787796">
<time>2016-10-08T01:20:34Z</time></trkpt>
<trkpt lat="29.893095" lon="94.787736">
<time>2016-10-08T01:20:35Z</time></trkpt>
<trkpt lat="29.892965" lon="94.787616">
<time>2016-10-08T01:20:36Z</time></trkpt>
<trkpt lat="29.892815" lon="94.787475">
<time>2016-10-08T01:20:37Z</time></trkpt>
<trkpt lat="29.892695" lon="94.787385">
<time>2016-10-08T01:20:38Z</time></trkpt>
<trkpt lat="29.892615" lon="94.787325">
<time>2016-10-08T01:20:39Z</time></trkpt>
<trkpt lat="29.892565" lon="94.787305">
<time>2016-10-08T01:20:40Z</time></trkpt>
<trkpt lat="29.892535" lon="94.787295">
<time>2016-10-08T01:20:41Z</time></trkpt>
<trkpt lat="29.892505" lon="94.787285">
<time>2016-10-08T01:20:42Z</time></trkpt>
<trkpt lat="29.892455" lon="94.787265">
<time>2016-10-08T01:20:43Z</time></trkpt>
<trkpt lat="29.892405" lon="94.787255">
<time>2016-10-08T01:20:44Z</time></trkpt>
<trkpt lat="29.892335" lon="94.787255">
<time>2016-10-08T01:20:45Z</time></trkpt>
<trkpt lat="29.892265" lon="94.787255">
<time>2016-10-08T01:20:46Z</time></trkpt>
<trkpt lat="29.892195" lon="94.787265">
<time>2016-10-08T01:20:47Z</time></trkpt>
<trkpt lat="29.892145" lon="94.787265">
<time>2016-10-08T01:20:48Z</time></trkpt>
<trkpt lat="29.892065" lon="94.787255">
<time>2016-10-08T01:20:49Z</time></trkpt>
<trkpt lat="29.891945" lon="94.787245">
<time>2016-10-08T01:20:50Z</time></trkpt>
<trkpt lat="29.891835" lon="94.787235">
<time>2016-10-08T01:20:51Z</time></trkpt>
<trkpt lat="29.891735" lon="94.787225">
<time>2016-10-08T01:20:52Z</time></trkpt>
<trkpt lat="29.891645" lon="94.787215">
<time>2016-10-08T01:20:53Z</time></trkpt>
<trkpt lat="29.891495" lon="94.787195">
<time>2016-10-08T01:20:54Z</time></trkpt>
<trkpt lat="29.891355" lon="94.787175">
<time>2016-10-08T01:20:55Z</time></trkpt>
<trkpt lat="29.891185" lon="94.787155">
<time>2016-10-08T01:20:56Z</time></trkpt>
<trkpt lat="29.891075" lon="94.787135">
<time>2016-10-08T01:20:57Z</time></trkpt>
<trkpt lat="29.890985" lon="94.787115">
<time>2016-10-08T01:20:58Z</time></trkpt>
<trkpt lat="29.890905" lon="94.787105">
<time>2016-10-08T01:20:59Z</time></trkpt>
<trkpt lat="29.890715" lon="94.787085">
<time>2016-10-08T01:21:00Z</time></trkpt>
<trkpt lat="29.890645" lon="94.787065">
<time>2016-10-08T01:21:01Z</time></trkpt>
<trkpt lat="29.890555" lon="94.787045">
<time>2016-10-08T01:21:02Z</time></trkpt>
<trkpt lat="29.890495" lon="94.787025">
<time>2016-10-08T01:21:03Z</time></trkpt>
<trkpt lat="29.890415" lon="94.786985">
<time>2016-10-08T01:21:04Z</time></trkpt>
<trkpt lat="29.890354" lon="94.786955">
<time>2016-10-08T01:21:05Z</time></trkpt>
<trkpt lat="29.890324" lon="94.786935">
<time>2016-10-08T01:21:06Z</time></trkpt>
<trkpt lat="29.890264" lon="94.786895">
<time>2016-10-08T01:21:07Z</time></trkpt>
<trkpt lat="29.890214" lon="94.786855">
<time>2016-10-08T01:21:08Z</time></trkpt>
<trkpt lat="29.890154" lon="94.786815">
<time>2016-10-08T01:21:09Z</time></trkpt>
<trkpt lat="29.890094" lon="94.786755">
<time>2016-10-08T01:21:10Z</time></trkpt>
<trkpt lat="29.890054" lon="94.786714">
<time>2016-10-08T01:21:11Z</time></trkpt>
<trkpt lat="29.889994" lon="94.786654">
<time>2016-10-08T01:21:12Z</time></trkpt>
<trkpt lat="29.889934" lon="94.786574">
<time>2016-10-08T01:21:13Z</time></trkpt>
<trkpt lat="29.889884" lon="94.786514">
<time>2016-10-08T01:21:14Z</time></trkpt>
<trkpt lat="29.889824" lon="94.786434">
<time>2016-10-08T01:21:15Z</time></trkpt>
<trkpt lat="29.889754" lon="94.786364">
<time>2016-10-08T01:21:16Z</time></trkpt>
<trkpt lat="29.889684" lon="94.786304">
<time>2016-10-08T01:21:17Z</time></trkpt>
<trkpt lat="29.889634" lon="94.786254">
<time>2016-10-08T01:21:18Z</time></trkpt>
<trkpt lat="29.889554" lon="94.786194">
<time>2016-10-08T01:21:19Z</time></trkpt>
<trkpt lat="29.889494" lon="94.786174">
<time>2016-10-08T01:21:20Z</time></trkpt>
<trkpt lat="29.889423" lon="94.786134">
<time>2016-10-08T01:21:21Z</time></trkpt>
<trkpt lat="29.889313" lon="94.786094">
<time>2016-10-08T01:21:22Z</time></trkpt>
<trkpt lat="29.889223" lon="94.786064">
<time>2016-10-08T01:21:23Z</time></trkpt>
<trkpt lat="29.889113" lon="94.786034">
<time>2016-10-08T01:21:24Z</time></trkpt>
<trkpt lat="29.889013" lon="94.786014">
<time>2016-10-08T01:21:25Z</time></trkpt>
<trkpt lat="29.888923" lon="94.785993">
<time>2016-10-08T01:21:26Z</time></trkpt>
<trkpt lat="29.888863" lon="94.785993">
<time>2016-10-08T01:21:27Z</time></trkpt>
<trkpt lat="29.888823" lon="94.785993">
<time>2016-10-08T01:21:28Z</time></trkpt>
<trkpt lat="29.888753" lon="94.785993">
<time>2016-10-08T01:21:29Z</time></trkpt>
<trkpt lat="29.888673" lon="94.785993">
<time>2016-10-08T01:21:30Z</time></trkpt>
<trkpt lat="29.888593" lon="94.786003">
<time>2016-10-08T01:21:31Z</time></trkpt>
<trkpt lat="29.888483" lon="94.786014">
<time>2016-10-08T01:21:32Z</time></trkpt>
<trkpt lat="29.888333" lon="94.786054">
<time>2016-10-08T01:21:33Z</time></trkpt>
<trkpt lat="29.888123" lon="94.786094">
<time>2016-10-08T01:21:34Z</time></trkpt>
<trkpt lat="29.887854" lon="94.786154">
<time>2016-10-08T01:21:35Z</time></trkpt>
<trkpt lat="29.887424" lon="94.786254">
<time>2016-10-08T01:21:36Z</time></trkpt>
<trkpt lat="29.887234" lon="94.786304">
<time>2016-10-08T01:21:37Z</time></trkpt>
<trkpt lat="29.886944" lon="94.786364">
<time>2016-10-08T01:21:38Z</time></trkpt>
<trkpt lat="29.886664" lon="94.786424">
<time>2016-10-08T01:21:39Z</time></trkpt>
<trkpt lat="29.886394" lon="94.786484">
<time>2016-10-08T01:21:40Z</time></trkpt>
<trkpt lat="29.886034" lon="94.786564">
<time>2016-10-08T01:21:41Z</time></trkpt>
<trkpt lat="29.885744" lon="94.786604">
<time>2016-10-08T01:21:42Z</time></trkpt>
<trkpt lat="29.885514" lon="94.786624">
<time>2016-10-08T01:21:43Z</time></trkpt>
<trkpt lat="29.885234" lon="94.786624">
<time>2016-10-08T01:21:44Z</time></trkpt>
<trkpt lat="29.885014" lon="94.786614">
<time>2016-10-08T01:21:45Z</time></trkpt>
<trkpt lat="29.884724" lon="94.786614">
<time>2016-10-08T01:21:46Z</time></trkpt>
<trkpt lat="29.884474" lon="94.786604">
<time>2016-10-08T01:21:47Z</time></trkpt>
<trkpt lat="29.884294" lon="94.786584">
<time>2016-10-08T01:21:48Z</time></trkpt>
<trkpt lat="29.884214" lon="94.786564">
<time>2016-10-08T01:21:49Z</time></trkpt>
<trkpt lat="29.884134" lon="94.786544">
<time>2016-10-08T01:21:50Z</time></trkpt>
<trkpt lat="29.884054" lon="94.786514">
<time>2016-10-08T01:21:51Z</time></trkpt>
<trkpt lat="29.883964" lon="94.786484">
<time>2016-10-08T01:21:52Z</time></trkpt>
<trkpt lat="29.883864" lon="94.786434">
<time>2016-10-08T01:21:53Z</time></trkpt>
<trkpt lat="29.883794" lon="94.786394">
<time>2016-10-08T01:21:54Z</time></trkpt>
<trkpt lat="29.883634" lon="94.786284">
<time>2016-10-08T01:21:55Z</time></trkpt>
<trkpt lat="29.883514" lon="94.786174">
<time>2016-10-08T01:21:56Z</time></trkpt>
<trkpt lat="29.883384" lon="94.786044">
<time>2016-10-08T01:21:57Z</time></trkpt>
<trkpt lat="29.883263" lon="94.785893">
<time>2016-10-08T01:21:58Z</time></trkpt>
<trkpt lat="29.883173" lon="94.785773">
<time>2016-10-08T01:21:59Z</time></trkpt>
<trkpt lat="29.883103" lon="94.785683">
<time>2016-10-08T01:22:00Z</time></trkpt>
<trkpt lat="29.882943" lon="94.785453">
<time>2016-10-08T01:22:01Z</time></trkpt>
<trkpt lat="29.882652" lon="94.784982">
<time>2016-10-08T01:22:02Z</time></trkpt>
<trkpt lat="29.882542" lon="94.784842">
<time>2016-10-08T01:22:03Z</time></trkpt>
<trkpt lat="29.882452" lon="94.784742">
<time>2016-10-08T01:22:04Z</time></trkpt>
<trkpt lat="29.882322" lon="94.784632">
<time>2016-10-08T01:22:05Z</time></trkpt>
<trkpt lat="29.882232" lon="94.784572">
<time>2016-10-08T01:22:06Z</time></trkpt>
<trkpt lat="29.882152" lon="94.784542">
<time>2016-10-08T01:22:07Z</time></trkpt>
<trkpt lat="29.882082" lon="94.784512">
<time>2016-10-08T01:22:08Z</time></trkpt>
<trkpt lat="29.882002" lon="94.784482">
<time>2016-10-08T01:22:09Z</time></trkpt>
<trkpt lat="29.881922" lon="94.784472">
<time>2016-10-08T01:22:10Z</time></trkpt>
<trkpt lat="29.881812" lon="94.784452">
<time>2016-10-08T01:22:11Z</time></trkpt>
<trkpt lat="29.881722" lon="94.784442">
<time>2016-10-08T01:22:12Z</time></trkpt>
<trkpt lat="29.881612" lon="94.784432">
<time>2016-10-08T01:22:13Z</time></trkpt>
<trkpt lat="29.881502" lon="94.784432">
<time>2016-10-08T01:22:14Z</time></trkpt>
<trkpt lat="29.881412" lon="94.784422">
<time>2016-10-08T01:22:15Z</time></trkpt>
<trkpt lat="29.881292" lon="94.784412">
<time>2016-10-08T01:22:16Z</time></trkpt>
<trkpt lat="29.881202" lon="94.784381">
<time>2016-10-08T01:22:17Z</time></trkpt>
<trkpt lat="29.881121" lon="94.784351">
<time>2016-10-08T01:22:18Z</time></trkpt>
<trkpt lat="29.881061" lon="94.784311">
<time>2016-10-08T01:22:19Z</time></trkpt>
<trkpt lat="29.881011" lon="94.784271">
<time>2016-10-08T01:22:20Z</time></trkpt>
<trkpt lat="29.880981" lon="94.784251">
<time>2016-10-08T01:22:21Z</time></trkpt>
<trkpt lat="29.880951" lon="94.784221">
<time>2016-10-08T01:22:22Z</time></trkpt>
<trkpt lat="29.880881" lon="94.784161">
<time>2016-10-08T01:22:23Z</time></trkpt>
<trkpt lat="29.880841" lon="94.784111">
<time>2016-10-08T01:22:24Z</time></trkpt>
<trkpt lat="29.880801" lon="94.784051">
<time>2016-10-08T01:22:25Z</time></trkpt>
<trkpt lat="29.880761" lon="94.783991">
<time>2016-10-08T01:22:26Z</time></trkpt>
<trkpt lat="29.880731" lon="94.783921">
<time>2016-10-08T01:22:27Z</time></trkpt>
<trkpt lat="29.880711" lon="94.783871">
<time>2016-10-08T01:22:28Z</time></trkpt>
<trkpt lat="29.880681" lon="94.783801">
<time>2016-10-08T01:22:29Z</time></trkpt>
<trkpt lat="29.880661" lon="94.783711">
<time>2016-10-08T01:22:30Z</time></trkpt>
<trkpt lat="29.880631" lon="94.78359">
<time>2016-10-08T01:22:31Z</time></trkpt>
<trkpt lat="29.8806" lon="94.78343">
<time>2016-10-08T01:22:32Z</time></trkpt>
<trkpt lat="29.88054" lon="94.78311">
<time>2016-10-08T01:22:33Z</time></trkpt>
<trkpt lat="29.88049" lon="94.782839">
<time>2016-10-08T01:22:34Z</time></trkpt>
<trkpt lat="29.880369" lon="94.782249">
<time>2016-10-08T01:22:35Z</time></trkpt>
<trkpt lat="29.880319" lon="94.781968">
<time>2016-10-08T01:22:36Z</time></trkpt>
<trkpt lat="29.880258" lon="94.781758">
<time>2016-10-08T01:22:37Z</time></trkpt>
<trkpt lat="29.880208" lon="94.781608">
<time>2016-10-08T01:22:38Z</time></trkpt>
<trkpt lat="29.880138" lon="94.781458">
<time>2016-10-08T01:22:39Z</time></trkpt>
<trkpt lat="29.880088" lon="94.781368">
<time>2016-10-08T01:22:40Z</time></trkpt>
<trkpt lat="29.880038" lon="94.781298">
<time>2016-10-08T01:22:41Z</time></trkpt>
<trkpt lat="29.879968" lon="94.781207">
<time>2016-10-08T01:22:42Z</time></trkpt>
<trkpt lat="29.879888" lon="94.781117">
<time>2016-10-08T01:22:43Z</time></trkpt>
<trkpt lat="29.879768" lon="94.780997">
<time>2016-10-08T01:22:44Z</time></trkpt>
<trkpt lat="29.879597" lon="94.780857">
<time>2016-10-08T01:22:45Z</time></trkpt>
<trkpt lat="29.879347" lon="94.780647">
<time>2016-10-08T01:22:46Z</time></trkpt>
<trkpt lat="29.878987" lon="94.780346">
<time>2016-10-08T01:22:47Z</time></trkpt>
<trkpt lat="29.878717" lon="94.780116">
<time>2016-10-08T01:22:48Z</time></trkpt>
<trkpt lat="29.878657" lon="94.780066">
<time>2016-10-08T01:22:49Z</time></trkpt>
<trkpt lat="29.878466" lon="94.779906">
<time>2016-10-08T01:22:50Z</time></trkpt>
<trkpt lat="29.877956" lon="94.779485">
<time>2016-10-08T01:22:51Z</time></trkpt>
<trkpt lat="29.877025" lon="94.778705">
<time>2016-10-08T01:22:52Z</time></trkpt>
<trkpt lat="29.876745" lon="94.778464">
<time>2016-10-08T01:22:53Z</time></trkpt>
<trkpt lat="29.876335" lon="94.778124">
<time>2016-10-08T01:22:54Z</time></trkpt>
<trkpt lat="29.876145" lon="94.777984">
<time>2016-10-08T01:22:55Z</time></trkpt>
<trkpt lat="29.875974" lon="94.777884">
<time>2016-10-08T01:22:56Z</time></trkpt>
<trkpt lat="29.875814" lon="94.777794">
<time>2016-10-08T01:22:57Z</time></trkpt>
<trkpt lat="29.875624" lon="94.777694">
<time>2016-10-08T01:22:58Z</time></trkpt>
<trkpt lat="29.875494" lon="94.777633">
<time>2016-10-08T01:22:59Z</time></trkpt>
<trkpt lat="29.875334" lon="94.777563">
<time>2016-10-08T01:23:00Z</time></trkpt>
<trkpt lat="29.875144" lon="94.777503">
<time>2016-10-08T01:23:01Z</time></trkpt>
<trkpt lat="29.874974" lon="94.777453">
<time>2016-10-08T01:23:02Z</time></trkpt>
<trkpt lat="29.874834" lon="94.777423">
<time>2016-10-08T01:23:03Z</time></trkpt>
<trkpt lat="29.874634" lon="94.777373">
<time>2016-10-08T01:23:04Z</time></trkpt>
<trkpt lat="29.874514" lon="94.777343">
<time>2016-10-08T01:23:05Z</time></trkpt>
<trkpt lat="29.874324" lon="94.777303">
<time>2016-10-08T01:23:06Z</time></trkpt>
<trkpt lat="29.874004" lon="94.777273">
<time>2016-10-08T01:23:07Z</time></trkpt>
<trkpt lat="29.873924" lon="94.777253">
<time>2016-10-08T01:23:08Z</time></trkpt>
<trkpt lat="29.873844" lon="94.777223">
<time>2016-10-08T01:23:09Z</time></trkpt>
<trkpt lat="29.873744" lon="94.777173">
<time>2016-10-08T01:23:10Z</time></trkpt>
<trkpt lat="29.873664" lon="94.777113">
<time>2016-10-08T01:23:11Z</time></trkpt>
<trkpt lat="29.873564" lon="94.777003">
<time>2016-10-08T01:23:12Z</time></trkpt>
<trkpt lat="29.873484" lon="94.776943">
<time>2016-10-08T01:23:13Z</time></trkpt>
<trkpt lat="29.873424" lon="94.776893">
<time>2016-10-08T01:23:14Z</time></trkpt>
<trkpt lat="29.873313" lon="94.776823">
<time>2016-10-08T01:23:15Z</time></trkpt>
<trkpt lat="29.873213" lon="94.776773">
<time>2016-10-08T01:23:16Z</time></trkpt>
<trkpt lat="29.872973" lon="94.776632">
<time>2016-10-08T01:23:17Z</time></trkpt>
<trkpt lat="29.872823" lon="94.776532">
<time>2016-10-08T01:23:18Z</time></trkpt>
<trkpt lat="29.872703" lon="94.776442">
<time>2016-10-08T01:23:19Z</time></trkpt>
<trkpt lat="29.872523" lon="94.776292">
<time>2016-10-08T01:23:20Z</time></trkpt>
<trkpt lat="29.872263" lon="94.776082">
<time>2016-10-08T01:23:21Z</time></trkpt>
<trkpt lat="29.872023" lon="94.775892">
<time>2016-10-08T01:23:22Z</time></trkpt>
<trkpt lat="29.871672" lon="94.775611">
<time>2016-10-08T01:23:23Z</time></trkpt>
<trkpt lat="29.871402" lon="94.775391">
<time>2016-10-08T01:23:24Z</time></trkpt>
<trkpt lat="29.871142" lon="94.775181">
<time>2016-10-08T01:23:25Z</time></trkpt>
<trkpt lat="29.870752" lon="94.774881">
<time>2016-10-08T01:23:26Z</time></trkpt>
<trkpt lat="29.870481" lon="94.774661">
<time>2016-10-08T01:23:27Z</time></trkpt>
<trkpt lat="29.870301" lon="94.77452">
<time>2016-10-08T01:23:28Z</time></trkpt>
<trkpt lat="29.870081" lon="94.77435">
<time>2016-10-08T01:23:29Z</time></trkpt>
<trkpt lat="29.869791" lon="94.77411">
<time>2016-10-08T01:23:30Z</time></trkpt>
<trkpt lat="29.869601" lon="94.77394">
<time>2016-10-08T01:23:31Z</time></trkpt>
<trkpt lat="29.869461" lon="94.77381">
<time>2016-10-08T01:23:32Z</time></trkpt>
<trkpt lat="29.869311" lon="94.77369">
<time>2016-10-08T01:23:33Z</time></trkpt>
<trkpt lat="29.869111" lon="94.773539">
<time>2016-10-08T01:23:34Z</time></trkpt>
<trkpt lat="29.86893" lon="94.773429">
<time>2016-10-08T01:23:35Z</time></trkpt>
<trkpt lat="29.86877" lon="94.773339">
<time>2016-10-08T01:23:36Z</time></trkpt>
<trkpt lat="29.86856" lon="94.773239">
<time>2016-10-08T01:23:37Z</time></trkpt>
<trkpt lat="29.86839" lon="94.773179">
<time>2016-10-08T01:23:38Z</time></trkpt>
<trkpt lat="29.86823" lon="94.773129">
<time>2016-10-08T01:23:39Z</time></trkpt>
<trkpt lat="29.868" lon="94.773069">
<time>2016-10-08T01:23:40Z</time></trkpt>
<trkpt lat="29.86775" lon="94.772999">
<time>2016-10-08T01:23:41Z</time></trkpt>
<trkpt lat="29.86702" lon="94.772809">
<time>2016-10-08T01:23:42Z</time></trkpt>
<trkpt lat="29.86664" lon="94.772719">
<time>2016-10-08T01:23:43Z</time></trkpt>
<trkpt lat="29.86644" lon="94.772659">
<time>2016-10-08T01:23:44Z</time></trkpt>
<trkpt lat="29.86632" lon="94.772629">
<time>2016-10-08T01:23:45Z</time></trkpt>
<trkpt lat="29.86621" lon="94.772599">
<time>2016-10-08T01:23:46Z</time></trkpt>
<trkpt lat="29.86614" lon="94.772569">
<time>2016-10-08T01:23:47Z</time></trkpt>
<trkpt lat="29.86607" lon="94.772539">
<time>2016-10-08T01:23:48Z</time></trkpt>
<trkpt lat="29.86598" lon="94.772489">
<time>2016-10-08T01:23:49Z</time></trkpt>
<trkpt lat="29.86592" lon="94.772439">
<time>2016-10-08T01:23:50Z</time></trkpt>
<trkpt lat="29.86587" lon="94.772388">
<time>2016-10-08T01:23:51Z</time></trkpt>
<trkpt lat="29.86583" lon="94.772358">
<time>2016-10-08T01:23:52Z</time></trkpt>
<trkpt lat="29.86576" lon="94.772288">
<time>2016-10-08T01:23:53Z</time></trkpt>
<trkpt lat="29.86569" lon="94.772198">
<time>2016-10-08T01:23:54Z</time></trkpt>
<trkpt lat="29.865609" lon="94.772078">
<time>2016-10-08T01:23:55Z</time></trkpt>
<trkpt lat="29.865549" lon="94.771998">
<time>2016-10-08T01:23:56Z</time></trkpt>
<trkpt lat="29.865479" lon="94.771908">
<time>2016-10-08T01:23:57Z</time></trkpt>
<trkpt lat="29.865419" lon="94.771838">
<time>2016-10-08T01:23:58Z</time></trkpt>
<trkpt lat="29.865349" lon="94.771778">
<time>2016-10-08T01:23:59Z</time></trkpt>
<trkpt lat="29.865279" lon="94.771718">
<time>2016-10-08T01:24:00Z</time></trkpt>
<trkpt lat="29.865229" lon="94.771688">
<time>2016-10-08T01:24:01Z</time></trkpt>
<trkpt lat="29.865179" lon="94.771668">
<time>2016-10-08T01:24:02Z</time></trkpt>
<trkpt lat="29.865119" lon="94.771638">
<time>2016-10-08T01:24:03Z</time></trkpt>
<trkpt lat="29.865009" lon="94.771608">
<time>2016-10-08T01:24:04Z</time></trkpt>
<trkpt lat="29.864939" lon="94.771588">
<time>2016-10-08T01:24:05Z</time></trkpt>
<trkpt lat="29.864879" lon="94.771578">
<time>2016-10-08T01:24:06Z</time></trkpt>
<trkpt lat="29.864759" lon="94.771568">
<time>2016-10-08T01:24:07Z</time></trkpt>
<trkpt lat="29.864409" lon="94.771538">
<time>2016-10-08T01:24:08Z</time></trkpt>
<trkpt lat="29.864289" lon="94.771528">
<time>2016-10-08T01:24:09Z</time></trkpt>
<trkpt lat="29.864109" lon="94.771508">
<time>2016-10-08T01:24:10Z</time></trkpt>
<trkpt lat="29.863969" lon="94.771478">
<time>2016-10-08T01:24:11Z</time></trkpt>
<trkpt lat="29.863869" lon="94.771458">
<time>2016-10-08T01:24:12Z</time></trkpt>
<trkpt lat="29.863799" lon="94.771428">
<time>2016-10-08T01:24:13Z</time></trkpt>
<trkpt lat="29.863729" lon="94.771388">
<time>2016-10-08T01:24:14Z</time></trkpt>
<trkpt lat="29.863609" lon="94.771308">
<time>2016-10-08T01:24:15Z</time></trkpt>
<trkpt lat="29.863469" lon="94.771208">
<time>2016-10-08T01:24:16Z</time></trkpt>
<trkpt lat="29.863279" lon="94.771067">
<time>2016-10-08T01:24:17Z</time></trkpt>
<trkpt lat="29.863079" lon="94.770917">
<time>2016-10-08T01:24:18Z</time></trkpt>
<trkpt lat="29.862888" lon="94.770777">
<time>2016-10-08T01:24:19Z</time></trkpt>
<trkpt lat="29.862598" lon="94.770567">
<time>2016-10-08T01:24:20Z</time></trkpt>
<trkpt lat="29.862378" lon="94.770397">
<time>2016-10-08T01:24:21Z</time></trkpt>
<trkpt lat="29.862238" lon="94.770317">
<time>2016-10-08T01:24:22Z</time></trkpt>
<trkpt lat="29.862048" lon="94.770207">
<time>2016-10-08T01:24:23Z</time></trkpt>
<trkpt lat="29.861908" lon="94.770127">
<time>2016-10-08T01:24:24Z</time></trkpt>
<trkpt lat="29.861778" lon="94.770057">
<time>2016-10-08T01:24:25Z</time></trkpt>
<trkpt lat="29.861538" lon="94.769947">
<time>2016-10-08T01:24:26Z</time></trkpt>
<trkpt lat="29.861388" lon="94.769886">
<time>2016-10-08T01:24:27Z</time></trkpt>
<trkpt lat="29.860878" lon="94.769666">
<time>2016-10-08T01:24:28Z</time></trkpt>
<trkpt lat="29.860748" lon="94.769606">
<time>2016-10-08T01:24:29Z</time></trkpt>
<trkpt lat="29.860608" lon="94.769546">
<time>2016-10-08T01:24:30Z</time></trkpt>
<trkpt lat="29.860518" lon="94.769506">
<time>2016-10-08T01:24:31Z</time></trkpt>
<trkpt lat="29.860418" lon="94.769466">
<time>2016-10-08T01:24:32Z</time></trkpt>
<trkpt lat="29.860348" lon="94.769436">
<time>2016-10-08T01:24:33Z</time></trkpt>
<trkpt lat="29.860278" lon="94.769406">
<time>2016-10-08T01:24:34Z</time></trkpt>
<trkpt lat="29.860168" lon="94.769356">
<time>2016-10-08T01:24:35Z</time></trkpt>
<trkpt lat="29.860128" lon="94.769336">
<time>2016-10-08T01:24:36Z</time></trkpt>
<trkpt lat="29.860058" lon="94.769306">
<time>2016-10-08T01:24:37Z</time></trkpt>
<trkpt lat="29.860007" lon="94.769296">
<time>2016-10-08T01:24:38Z</time></trkpt>
<trkpt lat="29.859957" lon="94.769286">
<time>2016-10-08T01:24:39Z</time></trkpt>
<trkpt lat="29.859897" lon="94.769276">
<time>2016-10-08T01:24:40Z</time></trkpt>
<trkpt lat="29.859857" lon="94.769276">
<time>2016-10-08T01:24:41Z</time></trkpt>
<trkpt lat="29.859787" lon="94.769276">
<time>2016-10-08T01:24:42Z</time></trkpt>
<trkpt lat="29.859727" lon="94.769276">
<time>2016-10-08T01:24:43Z</time></trkpt>
<trkpt lat="29.859647" lon="94.769276">
<time>2016-10-08T01:24:44Z</time></trkpt>
<trkpt lat="29.859508" lon="94.769286">
<time>2016-10-08T01:24:45Z</time></trkpt>
<trkpt lat="29.859318" lon="94.769296">
<time>2016-10-08T01:24:46Z</time></trkpt>
<trkpt lat="29.859198" lon="94.769296">
<time>2016-10-08T01:24:47Z</time></trkpt>
<trkpt lat="29.859068" lon="94.769266">
<time>2016-10-08T01:24:48Z</time></trkpt>
<trkpt lat="29.858927" lon="94.769216">
<time>2016-10-08T01:24:49Z</time></trkpt>
<trkpt lat="29.858777" lon="94.769146">
<time>2016-10-08T01:24:50Z</time></trkpt>
<trkpt lat="29.858667" lon="94.769066">
<time>2016-10-08T01:24:51Z</time></trkpt>
<trkpt lat="29.858527" lon="94.768966">
<time>2016-10-08T01:24:52Z</time></trkpt>
<trkpt lat="29.858387" lon="94.768876">
<time>2016-10-08T01:24:53Z</time></trkpt>
<trkpt lat="29.858247" lon="94.768796">
<time>2016-10-08T01:24:54Z</time></trkpt>
<trkpt lat="29.858057" lon="94.768696">
<time>2016-10-08T01:24:55Z</time></trkpt>
<trkpt lat="29.857897" lon="94.768616">
<time>2016-10-08T01:24:56Z</time></trkpt>
<trkpt lat="29.857707" lon="94.768546">
<time>2016-10-08T01:24:57Z</time></trkpt>
<trkpt lat="29.857537" lon="94.768485">
<time>2016-10-08T01:24:58Z</time></trkpt>
<trkpt lat="29.857387" lon="94.768435">
<time>2016-10-08T01:24:59Z</time></trkpt>
<trkpt lat="29.857217" lon="94.768395">
<time>2016-10-08T01:25:00Z</time></trkpt>
<trkpt lat="29.857137" lon="94.768375">
<time>2016-10-08T01:25:01Z</time></trkpt>
<trkpt lat="29.857017" lon="94.768345">
<time>2016-10-08T01:25:02Z</time></trkpt>
<trkpt lat="29.856927" lon="94.768335">
<time>2016-10-08T01:25:03Z</time></trkpt>
<trkpt lat="29.856817" lon="94.768335">
<time>2016-10-08T01:25:04Z</time></trkpt>
<trkpt lat="29.856727" lon="94.768335">
<time>2016-10-08T01:25:05Z</time></trkpt>
<trkpt lat="29.856597" lon="94.768355">
<time>2016-10-08T01:25:06Z</time></trkpt>
<trkpt lat="29.856337" lon="94.768405">
<time>2016-10-08T01:25:07Z</time></trkpt>
<trkpt lat="29.856077" lon="94.768455">
<time>2016-10-08T01:25:08Z</time></trkpt>
<trkpt lat="29.855947" lon="94.768486">
<time>2016-10-08T01:25:09Z</time></trkpt>
<trkpt lat="29.855837" lon="94.768506">
<time>2016-10-08T01:25:10Z</time></trkpt>
<trkpt lat="29.855747" lon="94.768516">
<time>2016-10-08T01:25:11Z</time></trkpt>
<trkpt lat="29.855637" lon="94.768516">
<time>2016-10-08T01:25:12Z</time></trkpt>
<trkpt lat="29.855547" lon="94.768496">
<time>2016-10-08T01:25:13Z</time></trkpt>
<trkpt lat="29.855467" lon="94.768476">
<time>2016-10-08T01:25:14Z</time></trkpt>
<trkpt lat="29.855367" lon="94.768435">
<time>2016-10-08T01:25:15Z</time></trkpt>
<trkpt lat="29.855057" lon="94.768315">
<time>2016-10-08T01:25:16Z</time></trkpt>
<trkpt lat="29.854887" lon="94.768245">
<time>2016-10-08T01:25:17Z</time></trkpt>
<trkpt lat="29.854727" lon="94.768175">
<time>2016-10-08T01:25:18Z</time></trkpt>
<trkpt lat="29.854617" lon="94.768115">
<time>2016-10-08T01:25:19Z</time></trkpt>
<trkpt lat="29.854517" lon="94.768045">
<time>2016-10-08T01:25:20Z</time></trkpt>
<trkpt lat="29.854407" lon="94.767945">
<time>2016-10-08T01:25:21Z</time></trkpt>
<trkpt lat="29.854247" lon="94.767785">
<time>2016-10-08T01:25:22Z</time></trkpt>
<trkpt lat="29.854097" lon="94.767635">
<time>2016-10-08T01:25:23Z</time></trkpt>
<trkpt lat="29.853936" lon="94.767465">
<time>2016-10-08T01:25:24Z</time></trkpt>
<trkpt lat="29.853776" lon="94.767305">
<time>2016-10-08T01:25:25Z</time></trkpt>
<trkpt lat="29.853636" lon="94.767165">
<time>2016-10-08T01:25:26Z</time></trkpt>
<trkpt lat="29.853526" lon="94.767065">
<time>2016-10-08T01:25:27Z</time></trkpt>
<trkpt lat="29.853386" lon="94.766914">
<time>2016-10-08T01:25:28Z</time></trkpt>
<trkpt lat="29.853276" lon="94.766804">
<time>2016-10-08T01:25:29Z</time></trkpt>
<trkpt lat="29.853196" lon="94.766734">
<time>2016-10-08T01:25:30Z</time></trkpt>
<trkpt lat="29.853076" lon="94.766634">
<time>2016-10-08T01:25:31Z</time></trkpt>
<trkpt lat="29.852926" lon="94.766524">
<time>2016-10-08T01:25:32Z</time></trkpt>
<trkpt lat="29.852796" lon="94.766454">
<time>2016-10-08T01:25:33Z</time></trkpt>
<trkpt lat="29.852656" lon="94.766374">
<time>2016-10-08T01:25:34Z</time></trkpt>
<trkpt lat="29.852466" lon="94.766294">
<time>2016-10-08T01:25:35Z</time></trkpt>
<trkpt lat="29.852216" lon="94.766184">
<time>2016-10-08T01:25:36Z</time></trkpt>
<trkpt lat="29.851966" lon="94.766064">
<time>2016-10-08T01:25:37Z</time></trkpt>
<trkpt lat="29.851746" lon="94.765944">
<time>2016-10-08T01:25:38Z</time></trkpt>
<trkpt lat="29.851416" lon="94.765754">
<time>2016-10-08T01:25:39Z</time></trkpt>
<trkpt lat="29.851165" lon="94.765604">
<time>2016-10-08T01:25:40Z</time></trkpt>
<trkpt lat="29.850855" lon="94.765414">
<time>2016-10-08T01:25:41Z</time></trkpt>
<trkpt lat="29.850665" lon="94.765303">
<time>2016-10-08T01:25:42Z</time></trkpt>
<trkpt lat="29.850325" lon="94.765093">
<time>2016-10-08T01:25:43Z</time></trkpt>
<trkpt lat="29.850125" lon="94.764973">
<time>2016-10-08T01:25:44Z</time></trkpt>
<trkpt lat="29.849985" lon="94.764883">
<time>2016-10-08T01:25:45Z</time></trkpt>
<trkpt lat="29.849885" lon="94.764823">
<time>2016-10-08T01:25:46Z</time></trkpt>
<trkpt lat="29.849825" lon="94.764783">
<time>2016-10-08T01:25:47Z</time></trkpt>
<trkpt lat="29.849715" lon="94.764703">
<time>2016-10-08T01:25:48Z</time></trkpt>
<trkpt lat="29.849595" lon="94.764593">
<time>2016-10-08T01:25:49Z</time></trkpt>
<trkpt lat="29.849515" lon="94.764513">
<time>2016-10-08T01:25:50Z</time></trkpt>
<trkpt lat="29.849385" lon="94.764363">
<time>2016-10-08T01:25:51Z</time></trkpt>
<trkpt lat="29.849195" lon="94.764133">
<time>2016-10-08T01:25:52Z</time></trkpt>
<trkpt lat="29.848945" lon="94.763843">
<time>2016-10-08T01:25:53Z</time></trkpt>
<trkpt lat="29.848794" lon="94.763653">
<time>2016-10-08T01:25:54Z</time></trkpt>
<trkpt lat="29.848674" lon="94.763512">
<time>2016-10-08T01:25:55Z</time></trkpt>
<trkpt lat="29.848584" lon="94.763402">
<time>2016-10-08T01:25:56Z</time></trkpt>
<trkpt lat="29.848464" lon="94.763272">
<time>2016-10-08T01:25:57Z</time></trkpt>
<trkpt lat="29.848384" lon="94.763182">
<time>2016-10-08T01:25:58Z</time></trkpt>
<trkpt lat="29.848274" lon="94.763062">
<time>2016-10-08T01:25:59Z</time></trkpt>
<trkpt lat="29.848174" lon="94.762982">
<time>2016-10-08T01:26:00Z</time></trkpt>
<trkpt lat="29.848004" lon="94.762862">
<time>2016-10-08T01:26:01Z</time></trkpt>
<trkpt lat="29.847854" lon="94.762742">
<time>2016-10-08T01:26:02Z</time></trkpt>
<trkpt lat="29.847724" lon="94.762642">
<time>2016-10-08T01:26:03Z</time></trkpt>
<trkpt lat="29.847554" lon="94.762522">
<time>2016-10-08T01:26:04Z</time></trkpt>
<trkpt lat="29.847434" lon="94.762442">
<time>2016-10-08T01:26:05Z</time></trkpt>
<trkpt lat="29.847344" lon="94.762372">
<time>2016-10-08T01:26:06Z</time></trkpt>
<trkpt lat="29.847254" lon="94.762282">
<time>2016-10-08T01:26:07Z</time></trkpt>
<trkpt lat="29.847124" lon="94.762142">
<time>2016-10-08T01:26:08Z</time></trkpt>
<trkpt lat="29.847024" lon="94.762012">
<time>2016-10-08T01:26:09Z</time></trkpt>
<trkpt lat="29.846914" lon="94.761832">
<time>2016-10-08T01:26:10Z</time></trkpt>
<trkpt lat="29.846864" lon="94.761732">
<time>2016-10-08T01:26:11Z</time></trkpt>
<trkpt lat="29.846824" lon="94.761642">
<time>2016-10-08T01:26:12Z</time></trkpt>
<trkpt lat="29.846784" lon="94.761572">
<time>2016-10-08T01:26:13Z</time></trkpt>
<trkpt lat="29.846753" lon="94.761472">
<time>2016-10-08T01:26:14Z</time></trkpt>
<trkpt lat="29.846723" lon="94.761371">
<time>2016-10-08T01:26:15Z</time></trkpt>
<trkpt lat="29.846683" lon="94.761231">
<time>2016-10-08T01:26:16Z</time></trkpt>
<trkpt lat="29.846653" lon="94.761121">
<time>2016-10-08T01:26:17Z</time></trkpt>
<trkpt lat="29.846633" lon="94.761021">
<time>2016-10-08T01:26:18Z</time></trkpt>
<trkpt lat="29.846613" lon="94.760951">
<time>2016-10-08T01:26:19Z</time></trkpt>
<trkpt lat="29.846583" lon="94.760851">
<time>2016-10-08T01:26:20Z</time></trkpt>
<trkpt lat="29.846553" lon="94.760781">
<time>2016-10-08T01:26:21Z</time></trkpt>
<trkpt lat="29.846513" lon="94.760671">
<time>2016-10-08T01:26:22Z</time></trkpt>
<trkpt lat="29.846473" lon="94.760601">
<time>2016-10-08T01:26:23Z</time></trkpt>
<trkpt lat="29.846443" lon="94.760551">
<time>2016-10-08T01:26:24Z</time></trkpt>
<trkpt lat="29.846393" lon="94.760471">
<time>2016-10-08T01:26:25Z</time></trkpt>
<trkpt lat="29.846343" lon="94.760391">
<time>2016-10-08T01:26:26Z</time></trkpt>
<trkpt lat="29.846243" lon="94.760261">
<time>2016-10-08T01:26:27Z</time></trkpt>
<trkpt lat="29.846113" lon="94.760081">
<time>2016-10-08T01:26:28Z</time></trkpt>
<trkpt lat="29.846003" lon="94.759951">
<time>2016-10-08T01:26:29Z</time></trkpt>
<trkpt lat="29.845883" lon="94.759801">
<time>2016-10-08T01:26:30Z</time></trkpt>
<trkpt lat="29.845803" lon="94.759691">
<time>2016-10-08T01:26:31Z</time></trkpt>
<trkpt lat="29.845733" lon="94.759601">
<time>2016-10-08T01:26:32Z</time></trkpt>
<trkpt lat="29.845673" lon="94.759511">
<time>2016-10-08T01:26:33Z</time></trkpt>
<trkpt lat="29.845593" lon="94.759401">
<time>2016-10-08T01:26:34Z</time></trkpt>
<trkpt lat="29.845503" lon="94.759241">
<time>2016-10-08T01:26:35Z</time></trkpt>
<trkpt lat="29.845453" lon="94.759171">
<time>2016-10-08T01:26:36Z</time></trkpt>
<trkpt lat="29.845403" lon="94.759071">
<time>2016-10-08T01:26:37Z</time></trkpt>
<trkpt lat="29.845353" lon="94.758971">
<time>2016-10-08T01:26:38Z</time></trkpt>
<trkpt lat="29.845303" lon="94.758861">
<time>2016-10-08T01:26:39Z</time></trkpt>
<trkpt lat="29.845242" lon="94.75874">
<time>2016-10-08T01:26:40Z</time></trkpt>
<trkpt lat="29.845172" lon="94.7586">
<time>2016-10-08T01:26:41Z</time></trkpt>
<trkpt lat="29.845112" lon="94.75848">
<time>2016-10-08T01:26:42Z</time></trkpt>
<trkpt lat="29.845042" lon="94.75834">
<time>2016-10-08T01:26:43Z</time></trkpt>
<trkpt lat="29.844992" lon="94.75824">
<time>2016-10-08T01:26:44Z</time></trkpt>
<trkpt lat="29.844942" lon="94.75814">
<time>2016-10-08T01:26:45Z</time></trkpt>
<trkpt lat="29.844872" lon="94.75804">
<time>2016-10-08T01:26:46Z</time></trkpt>
<trkpt lat="29.844812" lon="94.75795">
<time>2016-10-08T01:26:47Z</time></trkpt>
<trkpt lat="29.844752" lon="94.75788">
<time>2016-10-08T01:26:48Z</time></trkpt>
<trkpt lat="29.844662" lon="94.75779">
<time>2016-10-08T01:26:49Z</time></trkpt>
<trkpt lat="29.844592" lon="94.75773">
<time>2016-10-08T01:26:50Z</time></trkpt>
<trkpt lat="29.844522" lon="94.75767">
<time>2016-10-08T01:26:51Z</time></trkpt>
<trkpt lat="29.844442" lon="94.75762">
<time>2016-10-08T01:26:52Z</time></trkpt>
<trkpt lat="29.844372" lon="94.75757">
<time>2016-10-08T01:26:53Z</time></trkpt>
<trkpt lat="29.844282" lon="94.75753">
<time>2016-10-08T01:26:54Z</time></trkpt>
<trkpt lat="29.844182" lon="94.75748">
<time>2016-10-08T01:26:55Z</time></trkpt>
<trkpt lat="29.844062" lon="94.75741">
<time>2016-10-08T01:26:56Z</time></trkpt>
<trkpt lat="29.843932" lon="94.75734">
<time>2016-10-08T01:26:57Z</time></trkpt>
<trkpt lat="29.843802" lon="94.75727">
<time>2016-10-08T01:26:58Z</time></trkpt>
<trkpt lat="29.843742" lon="94.75724">
<time>2016-10-08T01:26:59Z</time></trkpt>
<trkpt lat="29.843672" lon="94.7572">
<time>2016-10-08T01:27:00Z</time></trkpt>
<trkpt lat="29.843582" lon="94.75716">
<time>2016-10-08T01:27:01Z</time></trkpt>
<trkpt lat="29.843512" lon="94.75712">
<time>2016-10-08T01:27:02Z</time></trkpt>
<trkpt lat="29.843452" lon="94.7571">
<time>2016-10-08T01:27:03Z</time></trkpt>
<trkpt lat="29.843402" lon="94.75709">
<time>2016-10-08T01:27:04Z</time></trkpt>
<trkpt lat="29.843362" lon="94.75708">
<time>2016-10-08T01:27:05Z</time></trkpt>
<trkpt lat="29.843322" lon="94.75708">
<time>2016-10-08T01:27:06Z</time></trkpt>
<trkpt lat="29.843282" lon="94.75708">
<time>2016-10-08T01:27:07Z</time></trkpt>
<trkpt lat="29.843232" lon="94.75708">
<time>2016-10-08T01:27:08Z</time></trkpt>
<trkpt lat="29.843172" lon="94.75709">
<time>2016-10-08T01:27:09Z</time></trkpt>
<trkpt lat="29.843092" lon="94.75711">
<time>2016-10-08T01:27:10Z</time></trkpt>
<trkpt lat="29.842972" lon="94.75715">
<time>2016-10-08T01:27:11Z</time></trkpt>
<trkpt lat="29.842782" lon="94.75721">
<time>2016-10-08T01:27:12Z</time></trkpt>
<trkpt lat="29.842692" lon="94.75724">
<time>2016-10-08T01:27:13Z</time></trkpt>
<trkpt lat="29.842602" lon="94.75726">
<time>2016-10-08T01:27:14Z</time></trkpt>
<trkpt lat="29.842512" lon="94.75727">
<time>2016-10-08T01:27:15Z</time></trkpt>
<trkpt lat="29.842432" lon="94.75728">
<time>2016-10-08T01:27:16Z</time></trkpt>
<trkpt lat="29.842352" lon="94.75727">
<time>2016-10-08T01:27:17Z</time></trkpt>
<trkpt lat="29.842252" lon="94.75725">
<time>2016-10-08T01:27:18Z</time></trkpt>
<trkpt lat="29.842182" lon="94.75723">
<time>2016-10-08T01:27:19Z</time></trkpt>
<trkpt lat="29.842102" lon="94.75721">
<time>2016-10-08T01:27:20Z</time></trkpt>
<trkpt lat="29.841992" lon="94.75715">
<time>2016-10-08T01:27:21Z</time></trkpt>
<trkpt lat="29.841882" lon="94.75708">
<time>2016-10-08T01:27:22Z</time></trkpt>
<trkpt lat="29.841782" lon="94.75701">
<time>2016-10-08T01:27:23Z</time></trkpt>
<trkpt lat="29.841702" lon="94.75693">
<time>2016-10-08T01:27:24Z</time></trkpt>
<trkpt lat="29.841612" lon="94.75683">
<time>2016-10-08T01:27:25Z</time></trkpt>
<trkpt lat="29.841562" lon="94.75677">
<time>2016-10-08T01:27:26Z</time></trkpt>
<trkpt lat="29.841502" lon="94.7567">
<time>2016-10-08T01:27:27Z</time></trkpt>
<trkpt lat="29.841462" lon="94.75663">
<time>2016-10-08T01:27:28Z</time></trkpt>
<trkpt lat="29.841422" lon="94.75655">
<time>2016-10-08T01:27:29Z</time></trkpt>
<trkpt lat="29.841382" lon="94.75646">
<time>2016-10-08T01:27:30Z</time></trkpt>
<trkpt lat="29.841352" lon="94.75639">
<time>2016-10-08T01:27:31Z</time></trkpt>
<trkpt lat="29.841332" lon="94.75633">
<time>2016-10-08T01:27:32Z</time></trkpt>
<trkpt lat="29.841302" lon="94.75625">
<time>2016-10-08T01:27:33Z</time></trkpt>
<trkpt lat="29.841282" lon="94.75615">
<time>2016-10-08T01:27:34Z</time></trkpt>
<trkpt lat="29.841262" lon="94.75606">
<time>2016-10-08T01:27:35Z</time></trkpt>
<trkpt lat="29.841242" lon="94.75593">
<time>2016-10-08T01:27:36Z</time></trkpt>
<trkpt lat="29.841232" lon="94.7558">
<time>2016-10-08T01:27:37Z</time></trkpt>
<trkpt lat="29.841222" lon="94.75563">
<time>2016-10-08T01:27:38Z</time></trkpt>
<trkpt lat="29.841222" lon="94.75552">
<time>2016-10-08T01:27:39Z</time></trkpt>
<trkpt lat="29.841212" lon="94.75538">
<time>2016-10-08T01:27:40Z</time></trkpt>
<trkpt lat="29.841212" lon="94.75528">
<time>2016-10-08T01:27:41Z</time></trkpt>
<trkpt lat="29.841212" lon="94.75515">
<time>2016-10-08T01:27:42Z</time></trkpt>
<trkpt lat="29.841202" lon="94.75502">
<time>2016-10-08T01:27:43Z</time></trkpt>
<trkpt lat="29.841182" lon="94.75488">
<time>2016-10-08T01:27:44Z</time></trkpt>
<trkpt lat="29.841162" lon="94.75475">
<time>2016-10-08T01:27:45Z</time></trkpt>
<trkpt lat="29.841132" lon="94.75464">
<time>2016-10-08T01:27:46Z</time></trkpt>
<trkpt lat="29.841102" lon="94.75454">
<time>2016-10-08T01:27:47Z</time></trkpt>
<trkpt lat="29.841082" lon="94.754479">
<time>2016-10-08T01:27:48Z</time></trkpt>
<trkpt lat="29.841032" lon="94.754389">
<time>2016-10-08T01:27:49Z</time></trkpt>
<trkpt lat="29.840992" lon="94.754309">
<time>2016-10-08T01:27:50Z</time></trkpt>
<trkpt lat="29.840942" lon="94.754239">
<time>2016-10-08T01:27:51Z</time></trkpt>
<trkpt lat="29.840852" lon="94.754139">
<time>2016-10-08T01:27:52Z</time></trkpt>
<trkpt lat="29.840751" lon="94.754059">
<time>2016-10-08T01:27:53Z</time></trkpt>
<trkpt lat="29.840631" lon="94.753959">
<time>2016-10-08T01:27:54Z</time></trkpt>
<trkpt lat="29.840421" lon="94.753779">
<time>2016-10-08T01:27:55Z</time></trkpt>
<trkpt lat="29.840291" lon="94.753659">
<time>2016-10-08T01:27:56Z</time></trkpt>
<trkpt lat="29.840141" lon="94.753539">
<time>2016-10-08T01:27:57Z</time></trkpt>
<trkpt lat="29.840021" lon="94.753439">
<time>2016-10-08T01:27:58Z</time></trkpt>
<trkpt lat="29.839901" lon="94.753339">
<time>2016-10-08T01:27:59Z</time></trkpt>
<trkpt lat="29.839761" lon="94.753229">
<time>2016-10-08T01:28:00Z</time></trkpt>
<trkpt lat="29.839651" lon="94.753129">
<time>2016-10-08T01:28:01Z</time></trkpt>
<trkpt lat="29.839521" lon="94.753019">
<time>2016-10-08T01:28:02Z</time></trkpt>
<trkpt lat="29.839381" lon="94.752899">
<time>2016-10-08T01:28:03Z</time></trkpt>
<trkpt lat="29.839301" lon="94.752819">
<time>2016-10-08T01:28:04Z</time></trkpt>
<trkpt lat="29.839241" lon="94.752759">
<time>2016-10-08T01:28:05Z</time></trkpt>
<trkpt lat="29.839191" lon="94.752689">
<time>2016-10-08T01:28:06Z</time></trkpt>
<trkpt lat="29.839131" lon="94.752599">
<time>2016-10-08T01:28:07Z</time></trkpt>
<trkpt lat="29.839091" lon="94.752519">
<time>2016-10-08T01:28:08Z</time></trkpt>
<trkpt lat="29.839041" lon="94.752409">
<time>2016-10-08T01:28:09Z</time></trkpt>
<trkpt lat="29.839021" lon="94.752339">
<time>2016-10-08T01:28:10Z</time></trkpt>
<trkpt lat="29.839011" lon="94.752279">
<time>2016-10-08T01:28:11Z</time></trkpt>
<trkpt lat="29.838991" lon="94.752189">
<time>2016-10-08T01:28:12Z</time></trkpt>
<trkpt lat="29.838971" lon="94.752099">
<time>2016-10-08T01:28:13Z</time></trkpt>
<trkpt lat="29.838941" lon="94.751879">
<time>2016-10-08T01:28:14Z</time></trkpt>
<trkpt lat="29.838921" lon="94.751779">
<time>2016-10-08T01:28:15Z</time></trkpt>
<trkpt lat="29.838911" lon="94.751699">
<time>2016-10-08T01:28:16Z</time></trkpt>
<trkpt lat="29.838901" lon="94.751609">
<time>2016-10-08T01:28:17Z</time></trkpt>
<trkpt lat="29.838881" lon="94.751509">
<time>2016-10-08T01:28:18Z</time></trkpt>
<trkpt lat="29.838861" lon="94.751399">
<time>2016-10-08T01:28:19Z</time></trkpt>
<trkpt lat="29.838841" lon="94.751289">
<time>2016-10-08T01:28:20Z</time></trkpt>
<trkpt lat="29.838821" lon="94.751209">
<time>2016-10-08T01:28:21Z</time></trkpt>
<trkpt lat="29.838791" lon="94.751099">
<time>2016-10-08T01:28:22Z</time></trkpt>
<trkpt lat="29.838771" lon="94.750999">
<time>2016-10-08T01:28:23Z</time></trkpt>
<trkpt lat="29.838741" lon="94.750879">
<time>2016-10-08T01:28:24Z</time></trkpt>
<trkpt lat="29.838711" lon="94.750759">
<time>2016-10-08T01:28:25Z</time></trkpt>
<trkpt lat="29.838671" lon="94.750629">
<time>2016-10-08T01:28:26Z</time></trkpt>
<trkpt lat="29.838661" lon="94.750549">
<time>2016-10-08T01:28:27Z</time></trkpt>
<trkpt lat="29.838641" lon="94.750469">
<time>2016-10-08T01:28:28Z</time></trkpt>
<trkpt lat="29.838611" lon="94.750379">
<time>2016-10-08T01:28:29Z</time></trkpt>
<trkpt lat="29.838591" lon="94.750299">
<time>2016-10-08T01:28:30Z</time></trkpt>
<trkpt lat="29.838561" lon="94.750159">
<time>2016-10-08T01:28:31Z</time></trkpt>
<trkpt lat="29.838531" lon="94.750049">
<time>2016-10-08T01:28:32Z</time></trkpt>
<trkpt lat="29.838531" lon="94.750029">
<time>2016-10-08T01:28:33Z</time></trkpt>
<trkpt lat="29.838521" lon="94.749999">
<time>2016-10-08T01:28:34Z</time></trkpt>
<trkpt lat="29.838521" lon="94.749959">
<time>2016-10-08T01:28:35Z</time></trkpt>
<trkpt lat="29.838501" lon="94.749869">
<time>2016-10-08T01:28:36Z</time></trkpt>
<trkpt lat="29.838491" lon="94.749739">
<time>2016-10-08T01:28:37Z</time></trkpt>
<trkpt lat="29.838471" lon="94.749589">
<time>2016-10-08T01:28:38Z</time></trkpt>
<trkpt lat="29.838471" lon="94.749449">
<time>2016-10-08T01:28:39Z</time></trkpt>
<trkpt lat="29.838471" lon="94.749279">
<time>2016-10-08T01:28:40Z</time></trkpt>
<trkpt lat="29.838481" lon="94.749079">
<time>2016-10-08T01:28:41Z</time></trkpt>
<trkpt lat="29.838491" lon="94.748829">
<time>2016-10-08T01:28:42Z</time></trkpt>
<trkpt lat="29.838511" lon="94.748589">
<time>2016-10-08T01:28:43Z</time></trkpt>
<trkpt lat="29.838521" lon="94.748359">
<time>2016-10-08T01:28:44Z</time></trkpt>
<trkpt lat="29.838511" lon="94.748169">
<time>2016-10-08T01:28:45Z</time></trkpt>
<trkpt lat="29.838501" lon="94.747989">
<time>2016-10-08T01:28:46Z</time></trkpt>
<trkpt lat="29.838491" lon="94.747829">
<time>2016-10-08T01:28:47Z</time></trkpt>
<trkpt lat="29.838471" lon="94.747639">
<time>2016-10-08T01:28:48Z</time></trkpt>
<trkpt lat="29.838441" lon="94.74749">
<time>2016-10-08T01:28:49Z</time></trkpt>
<trkpt lat="29.838411" lon="94.74735">
<time>2016-10-08T01:28:50Z</time></trkpt>
<trkpt lat="29.838371" lon="94.74725">
<time>2016-10-08T01:28:51Z</time></trkpt>
<trkpt lat="29.838341" lon="94.74718">
<time>2016-10-08T01:28:52Z</time></trkpt>
<trkpt lat="29.838301" lon="94.74708">
<time>2016-10-08T01:28:53Z</time></trkpt>
<trkpt lat="29.838241" lon="94.74696">
<time>2016-10-08T01:28:54Z</time></trkpt>
<trkpt lat="29.838171" lon="94.74683">
<time>2016-10-08T01:28:55Z</time></trkpt>
<trkpt lat="29.838071" lon="94.74667">
<time>2016-10-08T01:28:56Z</time></trkpt>
<trkpt lat="29.837941" lon="94.74644">
<time>2016-10-08T01:28:57Z</time></trkpt>
<trkpt lat="29.837811" lon="94.74622">
<time>2016-10-08T01:28:58Z</time></trkpt>
<trkpt lat="29.837711" lon="94.74605">
<time>2016-10-08T01:28:59Z</time></trkpt>
<trkpt lat="29.837611" lon="94.74589">
<time>2016-10-08T01:29:00Z</time></trkpt>
<trkpt lat="29.837512" lon="94.7457">
<time>2016-10-08T01:29:01Z</time></trkpt>
<trkpt lat="29.837392" lon="94.7455">
<time>2016-10-08T01:29:02Z</time></trkpt>
<trkpt lat="29.837282" lon="94.74532">
<time>2016-10-08T01:29:03Z</time></trkpt>
<trkpt lat="29.837182" lon="94.74513">
<time>2016-10-08T01:29:04Z</time></trkpt>
<trkpt lat="29.837092" lon="94.745">
<time>2016-10-08T01:29:05Z</time></trkpt>
<trkpt lat="29.836992" lon="94.74482">
<time>2016-10-08T01:29:06Z</time></trkpt>
<trkpt lat="29.836922" lon="94.74472">
<time>2016-10-08T01:29:07Z</time></trkpt>
<trkpt lat="29.836852" lon="94.74462">
<time>2016-10-08T01:29:08Z</time></trkpt>
<trkpt lat="29.836752" lon="94.74448">
<time>2016-10-08T01:29:09Z</time></trkpt>
<trkpt lat="29.836692" lon="94.74442">
<time>2016-10-08T01:29:10Z</time></trkpt>
<trkpt lat="29.836632" lon="94.74436">
<time>2016-10-08T01:29:11Z</time></trkpt>
<trkpt lat="29.836562" lon="94.74429">
<time>2016-10-08T01:29:12Z</time></trkpt>
<trkpt lat="29.836472" lon="94.74421">
<time>2016-10-08T01:29:13Z</time></trkpt>
<trkpt lat="29.836322" lon="94.74409">
<time>2016-10-08T01:29:14Z</time></trkpt>
<trkpt lat="29.836182" lon="94.74399">
<time>2016-10-08T01:29:15Z</time></trkpt>
<trkpt lat="29.836072" lon="94.74392">
<time>2016-10-08T01:29:16Z</time></trkpt>
<trkpt lat="29.835982" lon="94.74388">
<time>2016-10-08T01:29:17Z</time></trkpt>
<trkpt lat="29.835902" lon="94.74384">
<time>2016-10-08T01:29:18Z</time></trkpt>
<trkpt lat="29.835802" lon="94.74379">
<time>2016-10-08T01:29:19Z</time></trkpt>
<trkpt lat="29.835672" lon="94.74374">
<time>2016-10-08T01:29:20Z</time></trkpt>
<trkpt lat="29.835382" lon="94.74364">
<time>2016-10-08T01:29:21Z</time></trkpt>
<trkpt lat="29.835122" lon="94.74356">
<time>2016-10-08T01:29:22Z</time></trkpt>
<trkpt lat="29.834862" lon="94.74347">
<time>2016-10-08T01:29:23Z</time></trkpt>
<trkpt lat="29.834562" lon="94.743371">
<time>2016-10-08T01:29:24Z</time></trkpt>
<trkpt lat="29.834182" lon="94.743241">
<time>2016-10-08T01:29:25Z</time></trkpt>
<trkpt lat="29.833882" lon="94.743141">
<time>2016-10-08T01:29:26Z</time></trkpt>
<trkpt lat="29.833642" lon="94.743061">
<time>2016-10-08T01:29:27Z</time></trkpt>
<trkpt lat="29.833362" lon="94.742971">
<time>2016-10-08T01:29:28Z</time></trkpt>
<trkpt lat="29.833072" lon="94.742881">
<time>2016-10-08T01:29:29Z</time></trkpt>
<trkpt lat="29.832892" lon="94.742821">
<time>2016-10-08T01:29:30Z</time></trkpt>
<trkpt lat="29.832682" lon="94.742751">
<time>2016-10-08T01:29:31Z</time></trkpt>
<trkpt lat="29.832452" lon="94.742671">
<time>2016-10-08T01:29:32Z</time></trkpt>
<trkpt lat="29.832232" lon="94.742601">
<time>2016-10-08T01:29:33Z</time></trkpt>
<trkpt lat="29.831973" lon="94.742511">
<time>2016-10-08T01:29:34Z</time></trkpt>
<trkpt lat="29.831763" lon="94.742441">
<time>2016-10-08T01:29:35Z</time></trkpt>
<trkpt lat="29.831563" lon="94.742371">
<time>2016-10-08T01:29:36Z</time></trkpt>
<trkpt lat="29.831403" lon="94.742321">
<time>2016-10-08T01:29:37Z</time></trkpt>
<trkpt lat="29.831223" lon="94.742261">
<time>2016-10-08T01:29:38Z</time></trkpt>
<trkpt lat="29.831083" lon="94.742211">
<time>2016-10-08T01:29:39Z</time></trkpt>
<trkpt lat="29.830863" lon="94.742131">
<time>2016-10-08T01:29:40Z</time></trkpt>
<trkpt lat="29.830683" lon="94.742081">
<time>2016-10-08T01:29:41Z</time></trkpt>
<trkpt lat="29.830503" lon="94.742011">
<time>2016-10-08T01:29:42Z</time></trkpt>
<trkpt lat="29.830353" lon="94.741961">
<time>2016-10-08T01:29:43Z</time></trkpt>
<trkpt lat="29.830163" lon="94.741891">
<time>2016-10-08T01:29:44Z</time></trkpt>
<trkpt lat="29.830073" lon="94.741861">
<time>2016-10-08T01:29:45Z</time></trkpt>
<trkpt lat="29.829983" lon="94.741831">
<time>2016-10-08T01:29:46Z</time></trkpt>
<trkpt lat="29.829893" lon="94.741791">
<time>2016-10-08T01:29:47Z</time></trkpt>
<trkpt lat="29.829843" lon="94.741761">
<time>2016-10-08T01:29:48Z</time></trkpt>
<trkpt lat="29.829783" lon="94.741731">
<time>2016-10-08T01:29:49Z</time></trkpt>
<trkpt lat="29.829733" lon="94.741711">
<time>2016-10-08T01:29:50Z</time></trkpt>
<trkpt lat="29.829643" lon="94.741651">
<time>2016-10-08T01:29:51Z</time></trkpt>
<trkpt lat="29.829543" lon="94.741601">
<time>2016-10-08T01:29:52Z</time></trkpt>
<trkpt lat="29.829393" lon="94.741501">
<time>2016-10-08T01:29:53Z</time></trkpt>
<trkpt lat="29.829323" lon="94.741461">
<time>2016-10-08T01:29:54Z</time></trkpt>
<trkpt lat="29.829263" lon="94.741431">
<time>2016-10-08T01:29:55Z</time></trkpt>
<trkpt lat="29.829213" lon="94.741411">
<time>2016-10-08T01:29:56Z</time></trkpt>
<trkpt lat="29.829083" lon="94.741351">
<time>2016-10-08T01:29:57Z</time></trkpt>
<trkpt lat="29.828953" lon="94.741311">
<time>2016-10-08T01:29:58Z</time></trkpt>
<trkpt lat="29.828753" lon="94.741261">
<time>2016-10-08T01:29:59Z</time></trkpt>
<trkpt lat="29.828573" lon="94.741221">
<time>2016-10-08T01:30:00Z</time></trkpt>
<trkpt lat="29.828363" lon="94.741191">
<time>2016-10-08T01:30:01Z</time></trkpt>
<trkpt lat="29.828083" lon="94.741141">
<time>2016-10-08T01:30:02Z</time></trkpt>
<trkpt lat="29.827763" lon="94.741072">
<time>2016-10-08T01:30:03Z</time></trkpt>
<trkpt lat="29.827573" lon="94.741022">
<time>2016-10-08T01:30:04Z</time></trkpt>
<trkpt lat="29.827333" lon="94.740952">
<time>2016-10-08T01:30:05Z</time></trkpt>
<trkpt lat="29.826103" lon="94.740532">
<time>2016-10-08T01:30:06Z</time></trkpt>
<trkpt lat="29.825924" lon="94.740472">
<time>2016-10-08T01:30:07Z</time></trkpt>
<trkpt lat="29.825714" lon="94.740402">
<time>2016-10-08T01:30:08Z</time></trkpt>
<trkpt lat="29.825394" lon="94.740312">
<time>2016-10-08T01:30:09Z</time></trkpt>
<trkpt lat="29.825224" lon="94.740242">
<time>2016-10-08T01:30:10Z</time></trkpt>
<trkpt lat="29.825024" lon="94.740172">
<time>2016-10-08T01:30:11Z</time></trkpt>
<trkpt lat="29.824874" lon="94.740122">
<time>2016-10-08T01:30:12Z</time></trkpt>
<trkpt lat="29.824714" lon="94.740072">
<time>2016-10-08T01:30:13Z</time></trkpt>
<trkpt lat="29.824064" lon="94.739842">
<time>2016-10-08T01:30:14Z</time></trkpt>
<trkpt lat="29.823974" lon="94.739812">
<time>2016-10-08T01:30:15Z</time></trkpt>
<trkpt lat="29.823404" lon="94.739612">
<time>2016-10-08T01:30:16Z</time></trkpt>
<trkpt lat="29.823134" lon="94.739492">
<time>2016-10-08T01:30:17Z</time></trkpt>
<trkpt lat="29.822914" lon="94.739362">
<time>2016-10-08T01:30:18Z</time></trkpt>
<trkpt lat="29.822694" lon="94.739182">
<time>2016-10-08T01:30:19Z</time></trkpt>
<trkpt lat="29.822474" lon="94.739003">
<time>2016-10-08T01:30:20Z</time></trkpt>
<trkpt lat="29.822234" lon="94.738813">
<time>2016-10-08T01:30:21Z</time></trkpt>
<trkpt lat="29.821995" lon="94.738593">
<time>2016-10-08T01:30:22Z</time></trkpt>
<trkpt lat="29.821785" lon="94.738423">
<time>2016-10-08T01:30:23Z</time></trkpt>
<trkpt lat="29.821715" lon="94.738353">
<time>2016-10-08T01:30:24Z</time></trkpt>
<trkpt lat="29.821615" lon="94.738283">
<time>2016-10-08T01:30:25Z</time></trkpt>
<trkpt lat="29.821525" lon="94.738243">
<time>2016-10-08T01:30:26Z</time></trkpt>
<trkpt lat="29.821435" lon="94.738193">
<time>2016-10-08T01:30:27Z</time></trkpt>
<trkpt lat="29.821375" lon="94.738173">
<time>2016-10-08T01:30:28Z</time></trkpt>
<trkpt lat="29.821325" lon="94.738163">
<time>2016-10-08T01:30:29Z</time></trkpt>
<trkpt lat="29.821285" lon="94.738153">
<time>2016-10-08T01:30:30Z</time></trkpt>
<trkpt lat="29.821235" lon="94.738153">
<time>2016-10-08T01:30:31Z</time></trkpt>
<trkpt lat="29.821195" lon="94.738153">
<time>2016-10-08T01:30:32Z</time></trkpt>
<trkpt lat="29.821165" lon="94.738153">
<time>2016-10-08T01:30:33Z</time></trkpt>
<trkpt lat="29.821115" lon="94.738163">
<time>2016-10-08T01:30:34Z</time></trkpt>
<trkpt lat="29.821065" lon="94.738163">
<time>2016-10-08T01:30:35Z</time></trkpt>
<trkpt lat="29.821025" lon="94.738183">
<time>2016-10-08T01:30:36Z</time></trkpt>
<trkpt lat="29.820975" lon="94.738193">
<time>2016-10-08T01:30:37Z</time></trkpt>
<trkpt lat="29.820935" lon="94.738213">
<time>2016-10-08T01:30:38Z</time></trkpt>
<trkpt lat="29.820885" lon="94.738233">
<time>2016-10-08T01:30:39Z</time></trkpt>
<trkpt lat="29.820855" lon="94.738253">
<time>2016-10-08T01:30:40Z</time></trkpt>
<trkpt lat="29.820815" lon="94.738283">
<time>2016-10-08T01:30:41Z</time></trkpt>
<trkpt lat="29.820785" lon="94.738303">
<time>2016-10-08T01:30:42Z</time></trkpt>
<trkpt lat="29.820755" lon="94.738323">
<time>2016-10-08T01:30:43Z</time></trkpt>
<trkpt lat="29.820735" lon="94.738353">
<time>2016-10-08T01:30:44Z</time></trkpt>
<trkpt lat="29.820645" lon="94.738433">
<time>2016-10-08T01:30:45Z</time></trkpt>
<trkpt lat="29.820575" lon="94.738503">
<time>2016-10-08T01:30:46Z</time></trkpt>
<trkpt lat="29.820475" lon="94.738603">
<time>2016-10-08T01:30:47Z</time></trkpt>
<trkpt lat="29.820385" lon="94.738683">
<time>2016-10-08T01:30:48Z</time></trkpt>
<trkpt lat="29.820255" lon="94.738813">
<time>2016-10-08T01:30:49Z</time></trkpt>
<trkpt lat="29.820135" lon="94.738923">
<time>2016-10-08T01:30:50Z</time></trkpt>
<trkpt lat="29.820034" lon="94.739023">
<time>2016-10-08T01:30:51Z</time></trkpt>
<trkpt lat="29.819934" lon="94.739123">
<time>2016-10-08T01:30:52Z</time></trkpt>
<trkpt lat="29.819844" lon="94.739213">
<time>2016-10-08T01:30:53Z</time></trkpt>
<trkpt lat="29.819764" lon="94.739282">
<time>2016-10-08T01:30:54Z</time></trkpt>
<trkpt lat="29.819694" lon="94.739352">
<time>2016-10-08T01:30:55Z</time></trkpt>
<trkpt lat="29.819624" lon="94.739422">
<time>2016-10-08T01:30:56Z</time></trkpt>
<trkpt lat="29.819554" lon="94.739482">
<time>2016-10-08T01:30:57Z</time></trkpt>
<trkpt lat="29.819454" lon="94.739582">
<time>2016-10-08T01:30:58Z</time></trkpt>
<trkpt lat="29.819234" lon="94.739792">
<time>2016-10-08T01:30:59Z</time></trkpt>
<trkpt lat="29.819044" lon="94.739982">
<time>2016-10-08T01:31:00Z</time></trkpt>
<trkpt lat="29.818934" lon="94.740082">
<time>2016-10-08T01:31:01Z</time></trkpt>
<trkpt lat="29.818814" lon="94.740212">
<time>2016-10-08T01:31:02Z</time></trkpt>
<trkpt lat="29.818734" lon="94.740282">
<time>2016-10-08T01:31:03Z</time></trkpt>
<trkpt lat="29.818644" lon="94.740362">
<time>2016-10-08T01:31:04Z</time></trkpt>
<trkpt lat="29.818544" lon="94.740462">
<time>2016-10-08T01:31:05Z</time></trkpt>
<trkpt lat="29.818484" lon="94.740522">
<time>2016-10-08T01:31:06Z</time></trkpt>
<trkpt lat="29.818434" lon="94.740572">
<time>2016-10-08T01:31:07Z</time></trkpt>
<trkpt lat="29.818384" lon="94.740612">
<time>2016-10-08T01:31:08Z</time></trkpt>
<trkpt lat="29.818324" lon="94.740672">
<time>2016-10-08T01:31:09Z</time></trkpt>
<trkpt lat="29.818274" lon="94.740712">
<time>2016-10-08T01:31:10Z</time></trkpt>
<trkpt lat="29.818214" lon="94.740752">
<time>2016-10-08T01:31:11Z</time></trkpt>
<trkpt lat="29.818154" lon="94.740812">
<time>2016-10-08T01:31:12Z</time></trkpt>
<trkpt lat="29.818054" lon="94.740882">
<time>2016-10-08T01:31:13Z</time></trkpt>
<trkpt lat="29.817984" lon="94.740942">
<time>2016-10-08T01:31:14Z</time></trkpt>
<trkpt lat="29.817884" lon="94.741022">
<time>2016-10-08T01:31:15Z</time></trkpt>
<trkpt lat="29.817774" lon="94.741102">
<time>2016-10-08T01:31:16Z</time></trkpt>
<trkpt lat="29.817674" lon="94.741182">
<time>2016-10-08T01:31:17Z</time></trkpt>
<trkpt lat="29.817574" lon="94.741252">
<time>2016-10-08T01:31:18Z</time></trkpt>
<trkpt lat="29.817514" lon="94.741302">
<time>2016-10-08T01:31:19Z</time></trkpt>
<trkpt lat="29.817424" lon="94.741372">
<time>2016-10-08T01:31:20Z</time></trkpt>
<trkpt lat="29.817334" lon="94.741432">
<time>2016-10-08T01:31:21Z</time></trkpt>
<trkpt lat="29.817254" lon="94.741502">
<time>2016-10-08T01:31:22Z</time></trkpt>
<trkpt lat="29.817154" lon="94.741572">
<time>2016-10-08T01:31:23Z</time></trkpt>
<trkpt lat="29.817084" lon="94.741631">
<time>2016-10-08T01:31:24Z</time></trkpt>
<trkpt lat="29.816974" lon="94.741711">
<time>2016-10-08T01:31:25Z</time></trkpt>
<trkpt lat="29.816874" lon="94.741791">
<time>2016-10-08T01:31:26Z</time></trkpt>
<trkpt lat="29.816784" lon="94.741851">
<time>2016-10-08T01:31:27Z</time></trkpt>
<trkpt lat="29.816704" lon="94.741911">
<time>2016-10-08T01:31:28Z</time></trkpt>
<trkpt lat="29.816634" lon="94.741951">
<time>2016-10-08T01:31:29Z</time></trkpt>
<trkpt lat="29.816574" lon="94.742001">
<time>2016-10-08T01:31:30Z</time></trkpt>
<trkpt lat="29.816524" lon="94.742031">
<time>2016-10-08T01:31:31Z</time></trkpt>
<trkpt lat="29.816484" lon="94.742051">
<time>2016-10-08T01:31:32Z</time></trkpt>
<trkpt lat="29.816434" lon="94.742071">
<time>2016-10-08T01:31:33Z</time></trkpt>
<trkpt lat="29.816394" lon="94.742091">
<time>2016-10-08T01:31:34Z</time></trkpt>
<trkpt lat="29.816354" lon="94.742111">
<time>2016-10-08T01:31:35Z</time></trkpt>
<trkpt lat="29.816304" lon="94.742131">
<time>2016-10-08T01:31:36Z</time></trkpt>
<trkpt lat="29.816254" lon="94.742161">
<time>2016-10-08T01:31:37Z</time></trkpt>
<trkpt lat="29.816204" lon="94.742171">
<time>2016-10-08T01:31:38Z</time></trkpt>
<trkpt lat="29.816104" lon="94.742211">
<time>2016-10-08T01:31:39Z</time></trkpt>
<trkpt lat="29.816004" lon="94.742251">
<time>2016-10-08T01:31:40Z</time></trkpt>
<trkpt lat="29.815894" lon="94.742281">
<time>2016-10-08T01:31:41Z</time></trkpt>
<trkpt lat="29.815844" lon="94.742291">
<time>2016-10-08T01:31:42Z</time></trkpt>
<trkpt lat="29.815794" lon="94.742301">
<time>2016-10-08T01:31:43Z</time></trkpt>
<trkpt lat="29.815754" lon="94.742311">
<time>2016-10-08T01:31:44Z</time></trkpt>
<trkpt lat="29.815714" lon="94.742321">
<time>2016-10-08T01:31:45Z</time></trkpt>
<trkpt lat="29.815654" lon="94.742321">
<time>2016-10-08T01:31:46Z</time></trkpt>
<trkpt lat="29.815574" lon="94.742331">
<time>2016-10-08T01:31:47Z</time></trkpt>
<trkpt lat="29.815394" lon="94.742341">
<time>2016-10-08T01:31:48Z</time></trkpt>
<trkpt lat="29.815194" lon="94.742331">
<time>2016-10-08T01:31:49Z</time></trkpt>
<trkpt lat="29.814994" lon="94.742321">
<time>2016-10-08T01:31:50Z</time></trkpt>
<trkpt lat="29.814474" lon="94.742271">
<time>2016-10-08T01:31:51Z</time></trkpt>
<trkpt lat="29.814264" lon="94.742251">
<time>2016-10-08T01:31:52Z</time></trkpt>
<trkpt lat="29.814014" lon="94.742231">
<time>2016-10-08T01:31:53Z</time></trkpt>
<trkpt lat="29.813724" lon="94.742221">
<time>2016-10-08T01:31:54Z</time></trkpt>
<trkpt lat="29.813544" lon="94.742221">
<time>2016-10-08T01:31:55Z</time></trkpt>
<trkpt lat="29.813444" lon="94.742211">
<time>2016-10-08T01:31:56Z</time></trkpt>
<trkpt lat="29.813334" lon="94.742211">
<time>2016-10-08T01:31:57Z</time></trkpt>
<trkpt lat="29.813174" lon="94.742211">
<time>2016-10-08T01:31:58Z</time></trkpt>
<trkpt lat="29.813004" lon="94.742221">
<time>2016-10-08T01:31:59Z</time></trkpt>
<trkpt lat="29.812784" lon="94.742251">
<time>2016-10-08T01:32:00Z</time></trkpt>
<trkpt lat="29.812634" lon="94.742271">
<time>2016-10-08T01:32:01Z</time></trkpt>
<trkpt lat="29.812474" lon="94.742301">
<time>2016-10-08T01:32:02Z</time></trkpt>
<trkpt lat="29.812324" lon="94.742341">
<time>2016-10-08T01:32:03Z</time></trkpt>
<trkpt lat="29.812194" lon="94.742381">
<time>2016-10-08T01:32:04Z</time></trkpt>
<trkpt lat="29.811994" lon="94.742461">
<time>2016-10-08T01:32:05Z</time></trkpt>
<trkpt lat="29.811814" lon="94.742511">
<time>2016-10-08T01:32:06Z</time></trkpt>
<trkpt lat="29.811574" lon="94.742551">
<time>2016-10-08T01:32:07Z</time></trkpt>
<trkpt lat="29.811364" lon="94.742581">
<time>2016-10-08T01:32:08Z</time></trkpt>
<trkpt lat="29.811214" lon="94.742591">
<time>2016-10-08T01:32:09Z</time></trkpt>
<trkpt lat="29.810934" lon="94.742631">
<time>2016-10-08T01:32:10Z</time></trkpt>
<trkpt lat="29.810794" lon="94.742651">
<time>2016-10-08T01:32:11Z</time></trkpt>
<trkpt lat="29.810644" lon="94.742661">
<time>2016-10-08T01:32:12Z</time></trkpt>
<trkpt lat="29.810264" lon="94.742691">
<time>2016-10-08T01:32:13Z</time></trkpt>
<trkpt lat="29.810074" lon="94.742711">
<time>2016-10-08T01:32:14Z</time></trkpt>
<trkpt lat="29.809904" lon="94.742741">
<time>2016-10-08T01:32:15Z</time></trkpt>
<trkpt lat="29.809814" lon="94.742771">
<time>2016-10-08T01:32:16Z</time></trkpt>
<trkpt lat="29.809744" lon="94.742801">
<time>2016-10-08T01:32:17Z</time></trkpt>
<trkpt lat="29.809674" lon="94.742831">
<time>2016-10-08T01:32:18Z</time></trkpt>
<trkpt lat="29.809584" lon="94.742871">
<time>2016-10-08T01:32:19Z</time></trkpt>
<trkpt lat="29.809474" lon="94.742931">
<time>2016-10-08T01:32:20Z</time></trkpt>
<trkpt lat="29.809334" lon="94.743021">
<time>2016-10-08T01:32:21Z</time></trkpt>
<trkpt lat="29.809264" lon="94.743071">
<time>2016-10-08T01:32:22Z</time></trkpt>
<trkpt lat="29.809184" lon="94.743121">
<time>2016-10-08T01:32:23Z</time></trkpt>
<trkpt lat="29.809114" lon="94.743161">
<time>2016-10-08T01:32:24Z</time></trkpt>
<trkpt lat="29.809044" lon="94.743201">
<time>2016-10-08T01:32:25Z</time></trkpt>
<trkpt lat="29.808934" lon="94.743251">
<time>2016-10-08T01:32:26Z</time></trkpt>
<trkpt lat="29.808774" lon="94.743351">
<time>2016-10-08T01:32:27Z</time></trkpt>
<trkpt lat="29.808614" lon="94.743441">
<time>2016-10-08T01:32:28Z</time></trkpt>
<trkpt lat="29.808454" lon="94.743531">
<time>2016-10-08T01:32:29Z</time></trkpt>
<trkpt lat="29.808314" lon="94.743611">
<time>2016-10-08T01:32:30Z</time></trkpt>
<trkpt lat="29.808174" lon="94.743691">
<time>2016-10-08T01:32:31Z</time></trkpt>
<trkpt lat="29.808084" lon="94.743761">
<time>2016-10-08T01:32:32Z</time></trkpt>
<trkpt lat="29.807934" lon="94.743841">
<time>2016-10-08T01:32:33Z</time></trkpt>
<trkpt lat="29.807794" lon="94.743921">
<time>2016-10-08T01:32:34Z</time></trkpt>
<trkpt lat="29.807674" lon="94.743981">
<time>2016-10-08T01:32:35Z</time></trkpt>
<trkpt lat="29.807574" lon="94.744051">
<time>2016-10-08T01:32:36Z</time></trkpt>
<trkpt lat="29.807454" lon="94.744131">
<time>2016-10-08T01:32:37Z</time></trkpt>
<trkpt lat="29.807254" lon="94.744261">
<time>2016-10-08T01:32:38Z</time></trkpt>
<trkpt lat="29.807184" lon="94.744311">
<time>2016-10-08T01:32:39Z</time></trkpt>
<trkpt lat="29.807064" lon="94.744401">
<time>2016-10-08T01:32:40Z</time></trkpt>
<trkpt lat="29.806974" lon="94.744501">
<time>2016-10-08T01:32:41Z</time></trkpt>
<trkpt lat="29.806894" lon="94.744601">
<time>2016-10-08T01:32:42Z</time></trkpt>
<trkpt lat="29.806834" lon="94.744681">
<time>2016-10-08T01:32:43Z</time></trkpt>
<trkpt lat="29.806774" lon="94.744771">
<time>2016-10-08T01:32:44Z</time></trkpt>
<trkpt lat="29.806714" lon="94.744861">
<time>2016-10-08T01:32:45Z</time></trkpt>
<trkpt lat="29.806654" lon="94.744971">
<time>2016-10-08T01:32:46Z</time></trkpt>
<trkpt lat="29.806254" lon="94.7457">
<time>2016-10-08T01:32:47Z</time></trkpt>
<trkpt lat="29.806094" lon="94.74599">
<time>2016-10-08T01:32:48Z</time></trkpt>
<trkpt lat="29.805964" lon="94.74624">
<time>2016-10-08T01:32:49Z</time></trkpt>
<trkpt lat="29.805844" lon="94.74648">
<time>2016-10-08T01:32:50Z</time></trkpt>
<trkpt lat="29.805784" lon="94.74657">
<time>2016-10-08T01:32:51Z</time></trkpt>
<trkpt lat="29.805724" lon="94.74668">
<time>2016-10-08T01:32:52Z</time></trkpt>
<trkpt lat="29.805604" lon="94.74687">
<time>2016-10-08T01:32:53Z</time></trkpt>
<trkpt lat="29.805524" lon="94.74699">
<time>2016-10-08T01:32:54Z</time></trkpt>
<trkpt lat="29.805404" lon="94.74712">
<time>2016-10-08T01:32:55Z</time></trkpt>
<trkpt lat="29.805304" lon="94.74721">
<time>2016-10-08T01:32:56Z</time></trkpt>
<trkpt lat="29.805194" lon="94.7473">
<time>2016-10-08T01:32:57Z</time></trkpt>
<trkpt lat="29.805104" lon="94.74736">
<time>2016-10-08T01:32:58Z</time></trkpt>
<trkpt lat="29.804994" lon="94.74743">
<time>2016-10-08T01:32:59Z</time></trkpt>
<trkpt lat="29.804874" lon="94.74749">
<time>2016-10-08T01:33:00Z</time></trkpt>
<trkpt lat="29.804724" lon="94.74755">
<time>2016-10-08T01:33:01Z</time></trkpt>
<trkpt lat="29.804644" lon="94.74758">
<time>2016-10-08T01:33:02Z</time></trkpt>
<trkpt lat="29.804554" lon="94.74761">
<time>2016-10-08T01:33:03Z</time></trkpt>
<trkpt lat="29.804474" lon="94.74763">
<time>2016-10-08T01:33:04Z</time></trkpt>
<trkpt lat="29.804364" lon="94.74766">
<time>2016-10-08T01:33:05Z</time></trkpt>
<trkpt lat="29.804264" lon="94.74768">
<time>2016-10-08T01:33:06Z</time></trkpt>
<trkpt lat="29.804164" lon="94.74768">
<time>2016-10-08T01:33:07Z</time></trkpt>
<trkpt lat="29.804044" lon="94.74769">
<time>2016-10-08T01:33:08Z</time></trkpt>
<trkpt lat="29.803924" lon="94.74771">
<time>2016-10-08T01:33:09Z</time></trkpt>
<trkpt lat="29.803734" lon="94.74773">
<time>2016-10-08T01:33:10Z</time></trkpt>
<trkpt lat="29.803574" lon="94.74776">
<time>2016-10-08T01:33:11Z</time></trkpt>
<trkpt lat="29.803424" lon="94.74782">
<time>2016-10-08T01:33:12Z</time></trkpt>
<trkpt lat="29.803244" lon="94.7479">
<time>2016-10-08T01:33:13Z</time></trkpt>
<trkpt lat="29.803064" lon="94.74799">
<time>2016-10-08T01:33:14Z</time></trkpt>
<trkpt lat="29.802924" lon="94.74807">
<time>2016-10-08T01:33:15Z</time></trkpt>
<trkpt lat="29.802534" lon="94.74829">
<time>2016-10-08T01:33:16Z</time></trkpt>
<trkpt lat="29.802204" lon="94.74847">
<time>2016-10-08T01:33:17Z</time></trkpt>
<trkpt lat="29.801874" lon="94.74866">
<time>2016-10-08T01:33:18Z</time></trkpt>
<trkpt lat="29.801494" lon="94.74888">
<time>2016-10-08T01:33:19Z</time></trkpt>
<trkpt lat="29.800844" lon="94.74922">
<time>2016-10-08T01:33:20Z</time></trkpt>
<trkpt lat="29.800474" lon="94.74942">
<time>2016-10-08T01:33:21Z</time></trkpt>
<trkpt lat="29.800284" lon="94.74953">
<time>2016-10-08T01:33:22Z</time></trkpt>
<trkpt lat="29.800154" lon="94.74959">
<time>2016-10-08T01:33:23Z</time></trkpt>
<trkpt lat="29.800124" lon="94.74961">
<time>2016-10-08T01:33:24Z</time></trkpt>
<trkpt lat="29.800094" lon="94.74962">
<time>2016-10-08T01:33:25Z</time></trkpt>
<trkpt lat="29.800064" lon="94.74963">
<time>2016-10-08T01:33:26Z</time></trkpt>
<trkpt lat="29.800034" lon="94.74963">
<time>2016-10-08T01:33:27Z</time></trkpt>
<trkpt lat="29.800004" lon="94.74964">
<time>2016-10-08T01:33:28Z</time></trkpt>
<trkpt lat="29.799954" lon="94.74965">
<time>2016-10-08T01:33:29Z</time></trkpt>
<trkpt lat="29.799914" lon="94.74965">
<time>2016-10-08T01:33:30Z</time></trkpt>
<trkpt lat="29.799854" lon="94.74965">
<time>2016-10-08T01:33:31Z</time></trkpt>
<trkpt lat="29.799784" lon="94.74964">
<time>2016-10-08T01:33:32Z</time></trkpt>
<trkpt lat="29.799624" lon="94.74963">
<time>2016-10-08T01:33:33Z</time></trkpt>
<trkpt lat="29.799534" lon="94.74962">
<time>2016-10-08T01:33:34Z</time></trkpt>
<trkpt lat="29.799414" lon="94.74962">
<time>2016-10-08T01:33:35Z</time></trkpt>
<trkpt lat="29.799354" lon="94.74962">
<time>2016-10-08T01:33:36Z</time></trkpt>
<trkpt lat="29.799294" lon="94.74962">
<time>2016-10-08T01:33:37Z</time></trkpt>
<trkpt lat="29.799244" lon="94.74963">
<time>2016-10-08T01:33:38Z</time></trkpt>
<trkpt lat="29.799214" lon="94.74963">
<time>2016-10-08T01:33:39Z</time></trkpt>
<trkpt lat="29.799164" lon="94.74965">
<time>2016-10-08T01:33:40Z</time></trkpt>
<trkpt lat="29.799094" lon="94.74967">
<time>2016-10-08T01:33:41Z</time></trkpt>
<trkpt lat="29.799034" lon="94.74969">
<time>2016-10-08T01:33:42Z</time></trkpt>
<trkpt lat="29.798884" lon="94.74977">
<time>2016-10-08T01:33:43Z</time></trkpt>
<trkpt lat="29.798794" lon="94.74982">
<time>2016-10-08T01:33:44Z</time></trkpt>
<trkpt lat="29.798644" lon="94.7499">
<time>2016-10-08T01:33:45Z</time></trkpt>
<trkpt lat="29.798544" lon="94.74994">
<time>2016-10-08T01:33:46Z</time></trkpt>
<trkpt lat="29.798444" lon="94.74998">
<time>2016-10-08T01:33:47Z</time></trkpt>
<trkpt lat="29.798414" lon="94.74999">
<time>2016-10-08T01:33:48Z</time></trkpt>
<trkpt lat="29.798354" lon="94.75001">
<time>2016-10-08T01:33:49Z</time></trkpt>
<trkpt lat="29.798324" lon="94.75002">
<time>2016-10-08T01:33:50Z</time></trkpt>
<trkpt lat="29.798294" lon="94.75003">
<time>2016-10-08T01:33:51Z</time></trkpt>
<trkpt lat="29.798264" lon="94.75003">
<time>2016-10-08T01:33:52Z</time></trkpt>
<trkpt lat="29.798174" lon="94.75005">
<time>2016-10-08T01:33:53Z</time></trkpt>
<trkpt lat="29.798074" lon="94.75007">
<time>2016-10-08T01:33:54Z</time></trkpt>
<trkpt lat="29.797964" lon="94.75009">
<time>2016-10-08T01:33:55Z</time></trkpt>
<trkpt lat="29.797824" lon="94.75011">
<time>2016-10-08T01:33:56Z</time></trkpt>
<trkpt lat="29.797714" lon="94.75012">
<time>2016-10-08T01:33:57Z</time></trkpt>
<trkpt lat="29.797574" lon="94.75014">
<time>2016-10-08T01:33:58Z</time></trkpt>
<trkpt lat="29.797394" lon="94.75016">
<time>2016-10-08T01:33:59Z</time></trkpt>
<trkpt lat="29.797134" lon="94.7502">
<time>2016-10-08T01:34:00Z</time></trkpt>
<trkpt lat="29.796724" lon="94.75026">
<time>2016-10-08T01:34:01Z</time></trkpt>
<trkpt lat="29.796294" lon="94.75031">
<time>2016-10-08T01:34:02Z</time></trkpt>
<trkpt lat="29.795834" lon="94.75037">
<time>2016-10-08T01:34:03Z</time></trkpt>
<trkpt lat="29.795624" lon="94.7504">
<time>2016-10-08T01:34:04Z</time></trkpt>
<trkpt lat="29.795495" lon="94.75043">
<time>2016-10-08T01:34:05Z</time></trkpt>
<trkpt lat="29.795325" lon="94.75047">
<time>2016-10-08T01:34:06Z</time></trkpt>
<trkpt lat="29.795125" lon="94.75051">
<time>2016-10-08T01:34:07Z</time></trkpt>
<trkpt lat="29.794915" lon="94.75056">
<time>2016-10-08T01:34:08Z</time></trkpt>
<trkpt lat="29.794685" lon="94.75061">
<time>2016-10-08T01:34:09Z</time></trkpt>
<trkpt lat="29.794465" lon="94.75066">
<time>2016-10-08T01:34:10Z</time></trkpt>
<trkpt lat="29.794295" lon="94.7507">
<time>2016-10-08T01:34:11Z</time></trkpt>
<trkpt lat="29.794065" lon="94.75074">
<time>2016-10-08T01:34:12Z</time></trkpt>
<trkpt lat="29.793835" lon="94.75077">
<time>2016-10-08T01:34:13Z</time></trkpt>
<trkpt lat="29.793465" lon="94.75082">
<time>2016-10-08T01:34:14Z</time></trkpt>
<trkpt lat="29.793365" lon="94.75084">
<time>2016-10-08T01:34:15Z</time></trkpt>
<trkpt lat="29.793255" lon="94.75085">
<time>2016-10-08T01:34:16Z</time></trkpt>
<trkpt lat="29.793135" lon="94.75085">
<time>2016-10-08T01:34:17Z</time></trkpt>
<trkpt lat="29.793045" lon="94.75084">
<time>2016-10-08T01:34:18Z</time></trkpt>
<trkpt lat="29.792945" lon="94.75083">
<time>2016-10-08T01:34:19Z</time></trkpt>
<trkpt lat="29.792825" lon="94.7508">
<time>2016-10-08T01:34:20Z</time></trkpt>
<trkpt lat="29.792745" lon="94.75078">
<time>2016-10-08T01:34:21Z</time></trkpt>
<trkpt lat="29.792635" lon="94.75075">
<time>2016-10-08T01:34:22Z</time></trkpt>
<trkpt lat="29.792425" lon="94.7507">
<time>2016-10-08T01:34:23Z</time></trkpt>
<trkpt lat="29.792225" lon="94.75065">
<time>2016-10-08T01:34:24Z</time></trkpt>
<trkpt lat="29.792045" lon="94.7506">
<time>2016-10-08T01:34:25Z</time></trkpt>
<trkpt lat="29.791835" lon="94.75054">
<time>2016-10-08T01:34:26Z</time></trkpt>
<trkpt lat="29.791665" lon="94.7505">
<time>2016-10-08T01:34:27Z</time></trkpt>
<trkpt lat="29.791545" lon="94.75048">
<time>2016-10-08T01:34:28Z</time></trkpt>
<trkpt lat="29.791465" lon="94.75047">
<time>2016-10-08T01:34:29Z</time></trkpt>
<trkpt lat="29.791285" lon="94.75045">
<time>2016-10-08T01:34:30Z</time></trkpt>
<trkpt lat="29.791145" lon="94.75043">
<time>2016-10-08T01:34:31Z</time></trkpt>
<trkpt lat="29.790895" lon="94.75039">
<time>2016-10-08T01:34:32Z</time></trkpt>
<trkpt lat="29.790795" lon="94.75036">
<time>2016-10-08T01:34:33Z</time></trkpt>
<trkpt lat="29.790675" lon="94.75033">
<time>2016-10-08T01:34:34Z</time></trkpt>
<trkpt lat="29.790485" lon="94.75028">
<time>2016-10-08T01:34:35Z</time></trkpt>
<trkpt lat="29.790215" lon="94.7502">
<time>2016-10-08T01:34:36Z</time></trkpt>
<trkpt lat="29.790005" lon="94.75015">
<time>2016-10-08T01:34:37Z</time></trkpt>
<trkpt lat="29.789725" lon="94.75007">
<time>2016-10-08T01:34:38Z</time></trkpt>
<trkpt lat="29.789555" lon="94.75003">
<time>2016-10-08T01:34:39Z</time></trkpt>
<trkpt lat="29.789475" lon="94.75">
<time>2016-10-08T01:34:40Z</time></trkpt>
<trkpt lat="29.789125" lon="94.7499">
<time>2016-10-08T01:34:41Z</time></trkpt>
<trkpt lat="29.788975" lon="94.74986">
<time>2016-10-08T01:34:42Z</time></trkpt>
<trkpt lat="29.788795" lon="94.74981">
<time>2016-10-08T01:34:43Z</time></trkpt>
<trkpt lat="29.788585" lon="94.74974">
<time>2016-10-08T01:34:44Z</time></trkpt>
<trkpt lat="29.788425" lon="94.74967">
<time>2016-10-08T01:34:45Z</time></trkpt>
<trkpt lat="29.788365" lon="94.74964">
<time>2016-10-08T01:34:46Z</time></trkpt>
<trkpt lat="29.788255" lon="94.74958">
<time>2016-10-08T01:34:47Z</time></trkpt>
<trkpt lat="29.788185" lon="94.74954">
<time>2016-10-08T01:34:48Z</time></trkpt>
<trkpt lat="29.788115" lon="94.7495">
<time>2016-10-08T01:34:49Z</time></trkpt>
<trkpt lat="29.788035" lon="94.74945">
<time>2016-10-08T01:34:50Z</time></trkpt>
<trkpt lat="29.787885" lon="94.74935">
<time>2016-10-08T01:34:51Z</time></trkpt>
<trkpt lat="29.787795" lon="94.74929">
<time>2016-10-08T01:34:52Z</time></trkpt>
<trkpt lat="29.787725" lon="94.74922">
<time>2016-10-08T01:34:53Z</time></trkpt>
<trkpt lat="29.787625" lon="94.74913">
<time>2016-10-08T01:34:54Z</time></trkpt>
<trkpt lat="29.787525" lon="94.74904">
<time>2016-10-08T01:34:55Z</time></trkpt>
<trkpt lat="29.787435" lon="94.74897">
<time>2016-10-08T01:34:56Z</time></trkpt>
<trkpt lat="29.787355" lon="94.7489">
<time>2016-10-08T01:34:57Z</time></trkpt>
<trkpt lat="29.787295" lon="94.74885">
<time>2016-10-08T01:34:58Z</time></trkpt>
<trkpt lat="29.787245" lon="94.74882">
<time>2016-10-08T01:34:59Z</time></trkpt>
<trkpt lat="29.787185" lon="94.74877">
<time>2016-10-08T01:35:00Z</time></trkpt>
<trkpt lat="29.787115" lon="94.74872">
<time>2016-10-08T01:35:01Z</time></trkpt>
<trkpt lat="29.787035" lon="94.74866">
<time>2016-10-08T01:35:02Z</time></trkpt>
<trkpt lat="29.786985" lon="94.74863">
<time>2016-10-08T01:35:03Z</time></trkpt>
<trkpt lat="29.786885" lon="94.74856">
<time>2016-10-08T01:35:04Z</time></trkpt>
<trkpt lat="29.786765" lon="94.74849">
<time>2016-10-08T01:35:05Z</time></trkpt>
<trkpt lat="29.786675" lon="94.74844">
<time>2016-10-08T01:35:06Z</time></trkpt>
<trkpt lat="29.786605" lon="94.7484">
<time>2016-10-08T01:35:07Z</time></trkpt>
<trkpt lat="29.786525" lon="94.74835">
<time>2016-10-08T01:35:08Z</time></trkpt>
<trkpt lat="29.786425" lon="94.7483">
<time>2016-10-08T01:35:09Z</time></trkpt>
<trkpt lat="29.786295" lon="94.74823">
<time>2016-10-08T01:35:10Z</time></trkpt>
<trkpt lat="29.786185" lon="94.74818">
<time>2016-10-08T01:35:11Z</time></trkpt>
<trkpt lat="29.786095" lon="94.74813">
<time>2016-10-08T01:35:12Z</time></trkpt>
<trkpt lat="29.786005" lon="94.74809">
<time>2016-10-08T01:35:13Z</time></trkpt>
<trkpt lat="29.785965" lon="94.74807">
<time>2016-10-08T01:35:14Z</time></trkpt>
<trkpt lat="29.785905" lon="94.74804">
<time>2016-10-08T01:35:15Z</time></trkpt>
<trkpt lat="29.785855" lon="94.74802">
<time>2016-10-08T01:35:16Z</time></trkpt>
<trkpt lat="29.785795" lon="94.74798">
<time>2016-10-08T01:35:17Z</time></trkpt>
<trkpt lat="29.785725" lon="94.74795">
<time>2016-10-08T01:35:18Z</time></trkpt>
<trkpt lat="29.785645" lon="94.74791">
<time>2016-10-08T01:35:19Z</time></trkpt>
<trkpt lat="29.785585" lon="94.74788">
<time>2016-10-08T01:35:20Z</time></trkpt>
<trkpt lat="29.785525" lon="94.74785">
<time>2016-10-08T01:35:21Z</time></trkpt>
<trkpt lat="29.785456" lon="94.74781">
<time>2016-10-08T01:35:22Z</time></trkpt>
<trkpt lat="29.785386" lon="94.747771">
<time>2016-10-08T01:35:23Z</time></trkpt>
<trkpt lat="29.785316" lon="94.747731">
<time>2016-10-08T01:35:24Z</time></trkpt>
<trkpt lat="29.785256" lon="94.747701">
<time>2016-10-08T01:35:25Z</time></trkpt>
<trkpt lat="29.785196" lon="94.747671">
<time>2016-10-08T01:35:26Z</time></trkpt>
<trkpt lat="29.785136" lon="94.747631">
<time>2016-10-08T01:35:27Z</time></trkpt>
<trkpt lat="29.785066" lon="94.747591">
<time>2016-10-08T01:35:28Z</time></trkpt>
<trkpt lat="29.785006" lon="94.747551">
<time>2016-10-08T01:35:29Z</time></trkpt>
<trkpt lat="29.784946" lon="94.747521">
<time>2016-10-08T01:35:30Z</time></trkpt>
<trkpt lat="29.784886" lon="94.747481">
<time>2016-10-08T01:35:31Z</time></trkpt>
<trkpt lat="29.784816" lon="94.747441">
<time>2016-10-08T01:35:32Z</time></trkpt>
<trkpt lat="29.784766" lon="94.747421">
<time>2016-10-08T01:35:33Z</time></trkpt>
<trkpt lat="29.784706" lon="94.747381">
<time>2016-10-08T01:35:34Z</time></trkpt>
<trkpt lat="29.784626" lon="94.747341">
<time>2016-10-08T01:35:35Z</time></trkpt>
<trkpt lat="29.784556" lon="94.747311">
<time>2016-10-08T01:35:36Z</time></trkpt>
<trkpt lat="29.784486" lon="94.747281">
<time>2016-10-08T01:35:37Z</time></trkpt>
<trkpt lat="29.784406" lon="94.747241">
<time>2016-10-08T01:35:38Z</time></trkpt>
<trkpt lat="29.784336" lon="94.747211">
<time>2016-10-08T01:35:39Z</time></trkpt>
<trkpt lat="29.784246" lon="94.747171">
<time>2016-10-08T01:35:40Z</time></trkpt>
<trkpt lat="29.784166" lon="94.747131">
<time>2016-10-08T01:35:41Z</time></trkpt>
<trkpt lat="29.784086" lon="94.747101">
<time>2016-10-08T01:35:42Z</time></trkpt>
<trkpt lat="29.784006" lon="94.747061">
<time>2016-10-08T01:35:43Z</time></trkpt>
<trkpt lat="29.783946" lon="94.747031">
<time>2016-10-08T01:35:44Z</time></trkpt>
<trkpt lat="29.783876" lon="94.747001">
<time>2016-10-08T01:35:45Z</time></trkpt>
<trkpt lat="29.783816" lon="94.746961">
<time>2016-10-08T01:35:46Z</time></trkpt>
<trkpt lat="29.783736" lon="94.746911">
<time>2016-10-08T01:35:47Z</time></trkpt>
<trkpt lat="29.783696" lon="94.746881">
<time>2016-10-08T01:35:48Z</time></trkpt>
<trkpt lat="29.783666" lon="94.746861">
<time>2016-10-08T01:35:49Z</time></trkpt>
<trkpt lat="29.783626" lon="94.746821">
<time>2016-10-08T01:35:50Z</time></trkpt>
<trkpt lat="29.783586" lon="94.746791">
<time>2016-10-08T01:35:51Z</time></trkpt>
<trkpt lat="29.783556" lon="94.746751">
<time>2016-10-08T01:35:52Z</time></trkpt>
<trkpt lat="29.783516" lon="94.746701">
<time>2016-10-08T01:35:53Z</time></trkpt>
<trkpt lat="29.783476" lon="94.746651">
<time>2016-10-08T01:35:54Z</time></trkpt>
<trkpt lat="29.783456" lon="94.746611">
<time>2016-10-08T01:35:55Z</time></trkpt>
<trkpt lat="29.783426" lon="94.746571">
<time>2016-10-08T01:35:56Z</time></trkpt>
<trkpt lat="29.783396" lon="94.746531">
<time>2016-10-08T01:35:57Z</time></trkpt>
<trkpt lat="29.783366" lon="94.746481">
<time>2016-10-08T01:35:58Z</time></trkpt>
<trkpt lat="29.783326" lon="94.746411">
<time>2016-10-08T01:35:59Z</time></trkpt>
<trkpt lat="29.783256" lon="94.746331">
<time>2016-10-08T01:36:00Z</time></trkpt>
<trkpt lat="29.783236" lon="94.746301">
<time>2016-10-08T01:36:01Z</time></trkpt>
<trkpt lat="29.783206" lon="94.746261">
<time>2016-10-08T01:36:02Z</time></trkpt>
<trkpt lat="29.783166" lon="94.746221">
<time>2016-10-08T01:36:03Z</time></trkpt>
<trkpt lat="29.783126" lon="94.746181">
<time>2016-10-08T01:36:04Z</time></trkpt>
<trkpt lat="29.783086" lon="94.746141">
<time>2016-10-08T01:36:05Z</time></trkpt>
<trkpt lat="29.783056" lon="94.746121">
<time>2016-10-08T01:36:06Z</time></trkpt>
<trkpt lat="29.783026" lon="94.746101">
<time>2016-10-08T01:36:07Z</time></trkpt>
<trkpt lat="29.783006" lon="94.746081">
<time>2016-10-08T01:36:08Z</time></trkpt>
<trkpt lat="29.782986" lon="94.746071">
<time>2016-10-08T01:36:09Z</time></trkpt>
<trkpt lat="29.782956" lon="94.746051">
<time>2016-10-08T01:36:10Z</time></trkpt>
<trkpt lat="29.782916" lon="94.746031">
<time>2016-10-08T01:36:11Z</time></trkpt>
<trkpt lat="29.782866" lon="94.746011">
<time>2016-10-08T01:36:12Z</time></trkpt>
<trkpt lat="29.782846" lon="94.746001">
<time>2016-10-08T01:36:13Z</time></trkpt>
<trkpt lat="29.782796" lon="94.745981">
<time>2016-10-08T01:36:14Z</time></trkpt>
<trkpt lat="29.782746" lon="94.745961">
<time>2016-10-08T01:36:15Z</time></trkpt>
<trkpt lat="29.782686" lon="94.745941">
<time>2016-10-08T01:36:16Z</time></trkpt>
<trkpt lat="29.782646" lon="94.745921">
<time>2016-10-08T01:36:17Z</time></trkpt>
<trkpt lat="29.782606" lon="94.745901">
<time>2016-10-08T01:36:18Z</time></trkpt>
<trkpt lat="29.782576" lon="94.745891">
<time>2016-10-08T01:36:19Z</time></trkpt>
<trkpt lat="29.782506" lon="94.745851">
<time>2016-10-08T01:36:20Z</time></trkpt>
<trkpt lat="29.782456" lon="94.745831">
<time>2016-10-08T01:36:21Z</time></trkpt>
<trkpt lat="29.782386" lon="94.745791">
<time>2016-10-08T01:36:22Z</time></trkpt>
<trkpt lat="29.782316" lon="94.745761">
<time>2016-10-08T01:36:23Z</time></trkpt>
<trkpt lat="29.782266" lon="94.745731">
<time>2016-10-08T01:36:24Z</time></trkpt>
<trkpt lat="29.782216" lon="94.745711">
<time>2016-10-08T01:36:25Z</time></trkpt>
<trkpt lat="29.782156" lon="94.745681">
<time>2016-10-08T01:36:26Z</time></trkpt>
<trkpt lat="29.782126" lon="94.745671">
<time>2016-10-08T01:36:27Z</time></trkpt>
<trkpt lat="29.782086" lon="94.745651">
<time>2016-10-08T01:36:28Z</time></trkpt>
<trkpt lat="29.782036" lon="94.745631">
<time>2016-10-08T01:36:29Z</time></trkpt>
<trkpt lat="29.781976" lon="94.745601">
<time>2016-10-08T01:36:30Z</time></trkpt>
<trkpt lat="29.781906" lon="94.745581">
<time>2016-10-08T01:36:31Z</time></trkpt>
<trkpt lat="29.781876" lon="94.745561">
<time>2016-10-08T01:36:32Z</time></trkpt>
<trkpt lat="29.781846" lon="94.745551">
<time>2016-10-08T01:36:33Z</time></trkpt>
<trkpt lat="29.781816" lon="94.745541">
<time>2016-10-08T01:36:34Z</time></trkpt>
<trkpt lat="29.781786" lon="94.745531">
<time>2016-10-08T01:36:35Z</time></trkpt>
<trkpt lat="29.781766" lon="94.745531">
<time>2016-10-08T01:36:36Z</time></trkpt>
<trkpt lat="29.781736" lon="94.745521">
<time>2016-10-08T01:36:37Z</time></trkpt>
<trkpt lat="29.781706" lon="94.745511">
<time>2016-10-08T01:36:38Z</time></trkpt>
<trkpt lat="29.781656" lon="94.745501">
<time>2016-10-08T01:36:39Z</time></trkpt>
<trkpt lat="29.781616" lon="94.745501">
<time>2016-10-08T01:36:40Z</time></trkpt>
<trkpt lat="29.781576" lon="94.745501">
<time>2016-10-08T01:36:41Z</time></trkpt>
<trkpt lat="29.781516" lon="94.745491">
<time>2016-10-08T01:36:42Z</time></trkpt>
<trkpt lat="29.781496" lon="94.745491">
<time>2016-10-08T01:36:43Z</time></trkpt>
<trkpt lat="29.781456" lon="94.745491">
<time>2016-10-08T01:36:44Z</time></trkpt>
<trkpt lat="29.781406" lon="94.745501">
<time>2016-10-08T01:36:45Z</time></trkpt>
<trkpt lat="29.781366" lon="94.745501">
<time>2016-10-08T01:36:46Z</time></trkpt>
<trkpt lat="29.781316" lon="94.745511">
<time>2016-10-08T01:36:47Z</time></trkpt>
<trkpt lat="29.781266" lon="94.745521">
<time>2016-10-08T01:36:48Z</time></trkpt>
<trkpt lat="29.781236" lon="94.745531">
<time>2016-10-08T01:36:49Z</time></trkpt>
<trkpt lat="29.781176" lon="94.745531">
<time>2016-10-08T01:36:50Z</time></trkpt>
<trkpt lat="29.781126" lon="94.745531">
<time>2016-10-08T01:36:51Z</time></trkpt>
<trkpt lat="29.781076" lon="94.745531">
<time>2016-10-08T01:36:52Z</time></trkpt>
<trkpt lat="29.781026" lon="94.745521">
<time>2016-10-08T01:36:53Z</time></trkpt>
<trkpt lat="29.780976" lon="94.745521">
<time>2016-10-08T01:36:54Z</time></trkpt>
<trkpt lat="29.780946" lon="94.745511">
<time>2016-10-08T01:36:55Z</time></trkpt>
<trkpt lat="29.780896" lon="94.745501">
<time>2016-10-08T01:36:56Z</time></trkpt>
<trkpt lat="29.780856" lon="94.745491">
<time>2016-10-08T01:36:57Z</time></trkpt>
<trkpt lat="29.780806" lon="94.745471">
<time>2016-10-08T01:36:58Z</time></trkpt>
<trkpt lat="29.780756" lon="94.745451">
<time>2016-10-08T01:36:59Z</time></trkpt>
<trkpt lat="29.780736" lon="94.745441">
<time>2016-10-08T01:37:00Z</time></trkpt>
<trkpt lat="29.780716" lon="94.745431">
<time>2016-10-08T01:37:01Z</time></trkpt>
<trkpt lat="29.780676" lon="94.745401">
<time>2016-10-08T01:37:02Z</time></trkpt>
<trkpt lat="29.780656" lon="94.745381">
<time>2016-10-08T01:37:03Z</time></trkpt>
<trkpt lat="29.780636" lon="94.745361">
<time>2016-10-08T01:37:04Z</time></trkpt>
<trkpt lat="29.780606" lon="94.745341">
<time>2016-10-08T01:37:05Z</time></trkpt>
<trkpt lat="29.780586" lon="94.745321">
<time>2016-10-08T01:37:06Z</time></trkpt>
<trkpt lat="29.780576" lon="94.745301">
<time>2016-10-08T01:37:07Z</time></trkpt>
<trkpt lat="29.780556" lon="94.745271">
<time>2016-10-08T01:37:08Z</time></trkpt>
<trkpt lat="29.780536" lon="94.745241">
<time>2016-10-08T01:37:09Z</time></trkpt>
<trkpt lat="29.780506" lon="94.745181">
<time>2016-10-08T01:37:10Z</time></trkpt>
<trkpt lat="29.780476" lon="94.745121">
<time>2016-10-08T01:37:11Z</time></trkpt>
<trkpt lat="29.780436" lon="94.745081">
<time>2016-10-08T01:37:12Z</time></trkpt>
<trkpt lat="29.780426" lon="94.745051">
<time>2016-10-08T01:37:13Z</time></trkpt>
<trkpt lat="29.780406" lon="94.745031">
<time>2016-10-08T01:37:14Z</time></trkpt>
<trkpt lat="29.780386" lon="94.745001">
<time>2016-10-08T01:37:15Z</time></trkpt>
<trkpt lat="29.780356" lon="94.744971">
<time>2016-10-08T01:37:16Z</time></trkpt>
<trkpt lat="29.780316" lon="94.744931">
<time>2016-10-08T01:37:17Z</time></trkpt>
<trkpt lat="29.780286" lon="94.744901">
<time>2016-10-08T01:37:18Z</time></trkpt>
<trkpt lat="29.780246" lon="94.744851">
<time>2016-10-08T01:37:19Z</time></trkpt>
<trkpt lat="29.780206" lon="94.744811">
<time>2016-10-08T01:37:20Z</time></trkpt>
<trkpt lat="29.780166" lon="94.744771">
<time>2016-10-08T01:37:21Z</time></trkpt>
<trkpt lat="29.780096" lon="94.744711">
<time>2016-10-08T01:37:22Z</time></trkpt>
<trkpt lat="29.780046" lon="94.744661">
<time>2016-10-08T01:37:23Z</time></trkpt>
<trkpt lat="29.779976" lon="94.744591">
<time>2016-10-08T01:37:24Z</time></trkpt>
<trkpt lat="29.779916" lon="94.744521">
<time>2016-10-08T01:37:25Z</time></trkpt>
<trkpt lat="29.779787" lon="94.744351">
<time>2016-10-08T01:37:26Z</time></trkpt>
<trkpt lat="29.779697" lon="94.744251">
<time>2016-10-08T01:37:27Z</time></trkpt>
<trkpt lat="29.779527" lon="94.744071">
<time>2016-10-08T01:37:28Z</time></trkpt>
<trkpt lat="29.779447" lon="94.743971">
<time>2016-10-08T01:37:29Z</time></trkpt>
<trkpt lat="29.779337" lon="94.743871">
<time>2016-10-08T01:37:30Z</time></trkpt>
<trkpt lat="29.779217" lon="94.743741">
<time>2016-10-08T01:37:31Z</time></trkpt>
<trkpt lat="29.779017" lon="94.743532">
<time>2016-10-08T01:37:32Z</time></trkpt>
<trkpt lat="29.778827" lon="94.743322">
<time>2016-10-08T01:37:33Z</time></trkpt>
<trkpt lat="29.778667" lon="94.743162">
<time>2016-10-08T01:37:34Z</time></trkpt>
<trkpt lat="29.778537" lon="94.743012">
<time>2016-10-08T01:37:35Z</time></trkpt>
<trkpt lat="29.778427" lon="94.742892">
<time>2016-10-08T01:37:36Z</time></trkpt>
<trkpt lat="29.778377" lon="94.742832">
<time>2016-10-08T01:37:37Z</time></trkpt>
<trkpt lat="29.778317" lon="94.742782">
<time>2016-10-08T01:37:38Z</time></trkpt>
<trkpt lat="29.778247" lon="94.742722">
<time>2016-10-08T01:37:39Z</time></trkpt>
<trkpt lat="29.778207" lon="94.742692">
<time>2016-10-08T01:37:40Z</time></trkpt>
<trkpt lat="29.778167" lon="94.742672">
<time>2016-10-08T01:37:41Z</time></trkpt>
<trkpt lat="29.778097" lon="94.742632">
<time>2016-10-08T01:37:42Z</time></trkpt>
<trkpt lat="29.778047" lon="94.742602">
<time>2016-10-08T01:37:43Z</time></trkpt>
<trkpt lat="29.778007" lon="94.742592">
<time>2016-10-08T01:37:44Z</time></trkpt>
<trkpt lat="29.777977" lon="94.742582">
<time>2016-10-08T01:37:45Z</time></trkpt>
<trkpt lat="29.777927" lon="94.742562">
<time>2016-10-08T01:37:46Z</time></trkpt>
<trkpt lat="29.777877" lon="94.742552">
<time>2016-10-08T01:37:47Z</time></trkpt>
<trkpt lat="29.777817" lon="94.742542">
<time>2016-10-08T01:37:48Z</time></trkpt>
<trkpt lat="29.777737" lon="94.742532">
<time>2016-10-08T01:37:49Z</time></trkpt>
<trkpt lat="29.777657" lon="94.742522">
<time>2016-10-08T01:37:50Z</time></trkpt>
<trkpt lat="29.777587" lon="94.742522">
<time>2016-10-08T01:37:51Z</time></trkpt>
<trkpt lat="29.777487" lon="94.742522">
<time>2016-10-08T01:37:52Z</time></trkpt>
<trkpt lat="29.777387" lon="94.742522">
<time>2016-10-08T01:37:53Z</time></trkpt>
<trkpt lat="29.777297" lon="94.742522">
<time>2016-10-08T01:37:54Z</time></trkpt>
<trkpt lat="29.777167" lon="94.742522">
<time>2016-10-08T01:37:55Z</time></trkpt>
<trkpt lat="29.777067" lon="94.742522">
<time>2016-10-08T01:37:56Z</time></trkpt>
<trkpt lat="29.776967" lon="94.742522">
<time>2016-10-08T01:37:57Z</time></trkpt>
<trkpt lat="29.776837" lon="94.742532">
<time>2016-10-08T01:37:58Z</time></trkpt>
<trkpt lat="29.776707" lon="94.742532">
<time>2016-10-08T01:37:59Z</time></trkpt>
<trkpt lat="29.776647" lon="94.742532">
<time>2016-10-08T01:38:00Z</time></trkpt>
<trkpt lat="29.776607" lon="94.742532">
<time>2016-10-08T01:38:01Z</time></trkpt>
<trkpt lat="29.776557" lon="94.742532">
<time>2016-10-08T01:38:02Z</time></trkpt>
<trkpt lat="29.776207" lon="94.742512">
<time>2016-10-08T01:38:03Z</time></trkpt>
<trkpt lat="29.776127" lon="94.742512">
<time>2016-10-08T01:38:04Z</time></trkpt>
<trkpt lat="29.775987" lon="94.742502">
<time>2016-10-08T01:38:05Z</time></trkpt>
<trkpt lat="29.775907" lon="94.742492">
<time>2016-10-08T01:38:06Z</time></trkpt>
<trkpt lat="29.775777" lon="94.742472">
<time>2016-10-08T01:38:07Z</time></trkpt>
<trkpt lat="29.775617" lon="94.742442">
<time>2016-10-08T01:38:08Z</time></trkpt>
<trkpt lat="29.775397" lon="94.742392">
<time>2016-10-08T01:38:09Z</time></trkpt>
<trkpt lat="29.775118" lon="94.742322">
<time>2016-10-08T01:38:10Z</time></trkpt>
<trkpt lat="29.774928" lon="94.742282">
<time>2016-10-08T01:38:11Z</time></trkpt>
<trkpt lat="29.774578" lon="94.742202">
<time>2016-10-08T01:38:12Z</time></trkpt>
<trkpt lat="29.774378" lon="94.742152">
<time>2016-10-08T01:38:13Z</time></trkpt>
<trkpt lat="29.774088" lon="94.742092">
<time>2016-10-08T01:38:14Z</time></trkpt>
<trkpt lat="29.773888" lon="94.742042">
<time>2016-10-08T01:38:15Z</time></trkpt>
<trkpt lat="29.773718" lon="94.741992">
<time>2016-10-08T01:38:16Z</time></trkpt>
<trkpt lat="29.773488" lon="94.741932">
<time>2016-10-08T01:38:17Z</time></trkpt>
<trkpt lat="29.773218" lon="94.741842">
<time>2016-10-08T01:38:18Z</time></trkpt>
<trkpt lat="29.773048" lon="94.741782">
<time>2016-10-08T01:38:19Z</time></trkpt>
<trkpt lat="29.772948" lon="94.741752">
<time>2016-10-08T01:38:20Z</time></trkpt>
<trkpt lat="29.772868" lon="94.741732">
<time>2016-10-08T01:38:21Z</time></trkpt>
<trkpt lat="29.772718" lon="94.741692">
<time>2016-10-08T01:38:22Z</time></trkpt>
<trkpt lat="29.772598" lon="94.741672">
<time>2016-10-08T01:38:23Z</time></trkpt>
<trkpt lat="29.772498" lon="94.741662">
<time>2016-10-08T01:38:24Z</time></trkpt>
<trkpt lat="29.772338" lon="94.741652">
<time>2016-10-08T01:38:25Z</time></trkpt>
<trkpt lat="29.772218" lon="94.741642">
<time>2016-10-08T01:38:26Z</time></trkpt>
<trkpt lat="29.772018" lon="94.741642">
<time>2016-10-08T01:38:27Z</time></trkpt>
<trkpt lat="29.771788" lon="94.741632">
<time>2016-10-08T01:38:28Z</time></trkpt>
<trkpt lat="29.771578" lon="94.741622">
<time>2016-10-08T01:38:29Z</time></trkpt>
<trkpt lat="29.771508" lon="94.741612">
<time>2016-10-08T01:38:30Z</time></trkpt>
<trkpt lat="29.771418" lon="94.741602">
<time>2016-10-08T01:38:31Z</time></trkpt>
<trkpt lat="29.771328" lon="94.741582">
<time>2016-10-08T01:38:32Z</time></trkpt>
<trkpt lat="29.771248" lon="94.741562">
<time>2016-10-08T01:38:33Z</time></trkpt>
<trkpt lat="29.771198" lon="94.741542">
<time>2016-10-08T01:38:34Z</time></trkpt>
<trkpt lat="29.771128" lon="94.741522">
<time>2016-10-08T01:38:35Z</time></trkpt>
<trkpt lat="29.771038" lon="94.741482">
<time>2016-10-08T01:38:36Z</time></trkpt>
<trkpt lat="29.770918" lon="94.741412">
<time>2016-10-08T01:38:37Z</time></trkpt>
<trkpt lat="29.770848" lon="94.741372">
<time>2016-10-08T01:38:38Z</time></trkpt>
<trkpt lat="29.770798" lon="94.741333">
<time>2016-10-08T01:38:39Z</time></trkpt>
<trkpt lat="29.770688" lon="94.741263">
<time>2016-10-08T01:38:40Z</time></trkpt>
<trkpt lat="29.770578" lon="94.741183">
<time>2016-10-08T01:38:41Z</time></trkpt>
<trkpt lat="29.770488" lon="94.741123">
<time>2016-10-08T01:38:42Z</time></trkpt>
<trkpt lat="29.770438" lon="94.741093">
<time>2016-10-08T01:38:43Z</time></trkpt>
<trkpt lat="29.770338" lon="94.741023">
<time>2016-10-08T01:38:44Z</time></trkpt>
<trkpt lat="29.770188" lon="94.740953">
<time>2016-10-08T01:38:45Z</time></trkpt>
<trkpt lat="29.770009" lon="94.740863">
<time>2016-10-08T01:38:46Z</time></trkpt>
<trkpt lat="29.769899" lon="94.740813">
<time>2016-10-08T01:38:47Z</time></trkpt>
<trkpt lat="29.769739" lon="94.740743">
<time>2016-10-08T01:38:48Z</time></trkpt>
<trkpt lat="29.769509" lon="94.740633">
<time>2016-10-08T01:38:49Z</time></trkpt>
<trkpt lat="29.769239" lon="94.740513">
<time>2016-10-08T01:38:50Z</time></trkpt>
<trkpt lat="29.768969" lon="94.740393">
<time>2016-10-08T01:38:51Z</time></trkpt>
<trkpt lat="29.768699" lon="94.740273">
<time>2016-10-08T01:38:52Z</time></trkpt>
<trkpt lat="29.768569" lon="94.740223">
<time>2016-10-08T01:38:53Z</time></trkpt>
<trkpt lat="29.768439" lon="94.740173">
<time>2016-10-08T01:38:54Z</time></trkpt>
<trkpt lat="29.768279" lon="94.740113">
<time>2016-10-08T01:38:55Z</time></trkpt>
<trkpt lat="29.768109" lon="94.740043">
<time>2016-10-08T01:38:56Z</time></trkpt>
<trkpt lat="29.767909" lon="94.739973">
<time>2016-10-08T01:38:57Z</time></trkpt>
<trkpt lat="29.767669" lon="94.739883">
<time>2016-10-08T01:38:58Z</time></trkpt>
<trkpt lat="29.767389" lon="94.739773">
<time>2016-10-08T01:38:59Z</time></trkpt>
<trkpt lat="29.767099" lon="94.739663">
<time>2016-10-08T01:39:00Z</time></trkpt>
<trkpt lat="29.766739" lon="94.739523">
<time>2016-10-08T01:39:01Z</time></trkpt>
<trkpt lat="29.766339" lon="94.739373">
<time>2016-10-08T01:39:02Z</time></trkpt>
<trkpt lat="29.76605" lon="94.739254">
<time>2016-10-08T01:39:03Z</time></trkpt>
<trkpt lat="29.76599" lon="94.739234">
<time>2016-10-08T01:39:04Z</time></trkpt>
<trkpt lat="29.76588" lon="94.739194">
<time>2016-10-08T01:39:05Z</time></trkpt>
<trkpt lat="29.76575" lon="94.739154">
<time>2016-10-08T01:39:06Z</time></trkpt>
<trkpt lat="29.76566" lon="94.739134">
<time>2016-10-08T01:39:07Z</time></trkpt>
<trkpt lat="29.76557" lon="94.739114">
<time>2016-10-08T01:39:08Z</time></trkpt>
<trkpt lat="29.76546" lon="94.739094">
<time>2016-10-08T01:39:09Z</time></trkpt>
<trkpt lat="29.76538" lon="94.739084">
<time>2016-10-08T01:39:10Z</time></trkpt>
<trkpt lat="29.76526" lon="94.739074">
<time>2016-10-08T01:39:11Z</time></trkpt>
<trkpt lat="29.7652" lon="94.739074">
<time>2016-10-08T01:39:12Z</time></trkpt>
<trkpt lat="29.76512" lon="94.739074">
<time>2016-10-08T01:39:13Z</time></trkpt>
<trkpt lat="29.76505" lon="94.739074">
<time>2016-10-08T01:39:14Z</time></trkpt>
<trkpt lat="29.765" lon="94.739084">
<time>2016-10-08T01:39:15Z</time></trkpt>
<trkpt lat="29.76495" lon="94.739094">
<time>2016-10-08T01:39:16Z</time></trkpt>
<trkpt lat="29.76486" lon="94.739104">
<time>2016-10-08T01:39:17Z</time></trkpt>
<trkpt lat="29.76474" lon="94.739124">
<time>2016-10-08T01:39:18Z</time></trkpt>
<trkpt lat="29.76467" lon="94.739144">
<time>2016-10-08T01:39:19Z</time></trkpt>
<trkpt lat="29.76453" lon="94.739164">
<time>2016-10-08T01:39:20Z</time></trkpt>
<trkpt lat="29.76433" lon="94.739204">
<time>2016-10-08T01:39:21Z</time></trkpt>
<trkpt lat="29.76427" lon="94.739214">
<time>2016-10-08T01:39:22Z</time></trkpt>
<trkpt lat="29.76415" lon="94.739244">
<time>2016-10-08T01:39:23Z</time></trkpt>
<trkpt lat="29.76399" lon="94.739274">
<time>2016-10-08T01:39:24Z</time></trkpt>
<trkpt lat="29.76388" lon="94.739304">
<time>2016-10-08T01:39:25Z</time></trkpt>
<trkpt lat="29.76377" lon="94.739324">
<time>2016-10-08T01:39:26Z</time></trkpt>
<trkpt lat="29.76366" lon="94.739354">
<time>2016-10-08T01:39:27Z</time></trkpt>
<trkpt lat="29.76354" lon="94.739374">
<time>2016-10-08T01:39:28Z</time></trkpt>
<trkpt lat="29.76344" lon="94.739404">
<time>2016-10-08T01:39:29Z</time></trkpt>
<trkpt lat="29.76332" lon="94.739424">
<time>2016-10-08T01:39:30Z</time></trkpt>
<trkpt lat="29.76322" lon="94.739453">
<time>2016-10-08T01:39:31Z</time></trkpt>
<trkpt lat="29.76314" lon="94.739463">
<time>2016-10-08T01:39:32Z</time></trkpt>
<trkpt lat="29.76307" lon="94.739483">
<time>2016-10-08T01:39:33Z</time></trkpt>
<trkpt lat="29.76299" lon="94.739503">
<time>2016-10-08T01:39:34Z</time></trkpt>
<trkpt lat="29.7629" lon="94.739523">
<time>2016-10-08T01:39:35Z</time></trkpt>
<trkpt lat="29.76281" lon="94.739543">
<time>2016-10-08T01:39:36Z</time></trkpt>
<trkpt lat="29.76274" lon="94.739553">
<time>2016-10-08T01:39:37Z</time></trkpt>
<trkpt lat="29.76267" lon="94.739573">
<time>2016-10-08T01:39:38Z</time></trkpt>
<trkpt lat="29.76261" lon="94.739583">
<time>2016-10-08T01:39:39Z</time></trkpt>
<trkpt lat="29.76254" lon="94.739603">
<time>2016-10-08T01:39:40Z</time></trkpt>
<trkpt lat="29.76247" lon="94.739623">
<time>2016-10-08T01:39:41Z</time></trkpt>
<trkpt lat="29.7624" lon="94.739633">
<time>2016-10-08T01:39:42Z</time></trkpt>
<trkpt lat="29.76234" lon="94.739643">
<time>2016-10-08T01:39:43Z</time></trkpt>
<trkpt lat="29.76228" lon="94.739653">
<time>2016-10-08T01:39:44Z</time></trkpt>
<trkpt lat="29.76224" lon="94.739663">
<time>2016-10-08T01:39:45Z</time></trkpt>
<trkpt lat="29.76219" lon="94.739663">
<time>2016-10-08T01:39:46Z</time></trkpt>
<trkpt lat="29.76213" lon="94.739673">
<time>2016-10-08T01:39:47Z</time></trkpt>
<trkpt lat="29.76205" lon="94.739673">
<time>2016-10-08T01:39:48Z</time></trkpt>
<trkpt lat="29.76201" lon="94.739673">
<time>2016-10-08T01:39:49Z</time></trkpt>
<trkpt lat="29.76194" lon="94.739673">
<time>2016-10-08T01:39:50Z</time></trkpt>
<trkpt lat="29.76188" lon="94.739673">
<time>2016-10-08T01:39:51Z</time></trkpt>
<trkpt lat="29.76183" lon="94.739673">
<time>2016-10-08T01:39:52Z</time></trkpt>
<trkpt lat="29.76176" lon="94.739673">
<time>2016-10-08T01:39:53Z</time></trkpt>
<trkpt lat="29.76167" lon="94.739663">
<time>2016-10-08T01:39:54Z</time></trkpt>
<trkpt lat="29.76161" lon="94.739653">
<time>2016-10-08T01:39:55Z</time></trkpt>
<trkpt lat="29.76152" lon="94.739643">
<time>2016-10-08T01:39:56Z</time></trkpt>
<trkpt lat="29.76144" lon="94.739623">
<time>2016-10-08T01:39:57Z</time></trkpt>
<trkpt lat="29.76137" lon="94.739603">
<time>2016-10-08T01:39:58Z</time></trkpt>
<trkpt lat="29.76126" lon="94.739583">
<time>2016-10-08T01:39:59Z</time></trkpt>
<trkpt lat="29.7612" lon="94.739563">
<time>2016-10-08T01:40:00Z</time></trkpt>
<trkpt lat="29.76112" lon="94.739543">
<time>2016-10-08T01:40:01Z</time></trkpt>
<trkpt lat="29.76102" lon="94.739514">
<time>2016-10-08T01:40:02Z</time></trkpt>
<trkpt lat="29.76093" lon="94.739494">
<time>2016-10-08T01:40:03Z</time></trkpt>
<trkpt lat="29.76082" lon="94.739474">
<time>2016-10-08T01:40:04Z</time></trkpt>
<trkpt lat="29.7607" lon="94.739434">
<time>2016-10-08T01:40:05Z</time></trkpt>
<trkpt lat="29.7606" lon="94.739414">
<time>2016-10-08T01:40:06Z</time></trkpt>
<trkpt lat="29.76051" lon="94.739384">
<time>2016-10-08T01:40:07Z</time></trkpt>
<trkpt lat="29.76043" lon="94.739364">
<time>2016-10-08T01:40:08Z</time></trkpt>
<trkpt lat="29.76033" lon="94.739344">
<time>2016-10-08T01:40:09Z</time></trkpt>
<trkpt lat="29.76024" lon="94.739314">
<time>2016-10-08T01:40:10Z</time></trkpt>
<trkpt lat="29.76016" lon="94.739294">
<time>2016-10-08T01:40:11Z</time></trkpt>
<trkpt lat="29.7601" lon="94.739274">
<time>2016-10-08T01:40:12Z</time></trkpt>
<trkpt lat="29.76002" lon="94.739254">
<time>2016-10-08T01:40:13Z</time></trkpt>
<trkpt lat="29.75995" lon="94.739234">
<time>2016-10-08T01:40:14Z</time></trkpt>
<trkpt lat="29.75987" lon="94.739214">
<time>2016-10-08T01:40:15Z</time></trkpt>
<trkpt lat="29.75978" lon="94.739194">
<time>2016-10-08T01:40:16Z</time></trkpt>
<trkpt lat="29.75973" lon="94.739184">
<time>2016-10-08T01:40:17Z</time></trkpt>
<trkpt lat="29.75965" lon="94.739164">
<time>2016-10-08T01:40:18Z</time></trkpt>
<trkpt lat="29.75957" lon="94.739144">
<time>2016-10-08T01:40:19Z</time></trkpt>
<trkpt lat="29.7595" lon="94.739124">
<time>2016-10-08T01:40:20Z</time></trkpt>
<trkpt lat="29.75941" lon="94.739094">
<time>2016-10-08T01:40:21Z</time></trkpt>
<trkpt lat="29.75933" lon="94.739084">
<time>2016-10-08T01:40:22Z</time></trkpt>
<trkpt lat="29.75922" lon="94.739054">
<time>2016-10-08T01:40:23Z</time></trkpt>
<trkpt lat="29.75916" lon="94.739034">
<time>2016-10-08T01:40:24Z</time></trkpt>
<trkpt lat="29.75911" lon="94.739004">
<time>2016-10-08T01:40:25Z</time></trkpt>
<trkpt lat="29.759081" lon="94.738994">
<time>2016-10-08T01:40:26Z</time></trkpt>
<trkpt lat="29.759041" lon="94.738964">
<time>2016-10-08T01:40:27Z</time></trkpt>
<trkpt lat="29.759021" lon="94.738954">
<time>2016-10-08T01:40:28Z</time></trkpt>
<trkpt lat="29.758991" lon="94.738924">
<time>2016-10-08T01:40:29Z</time></trkpt>
<trkpt lat="29.758941" lon="94.738884">
<time>2016-10-08T01:40:30Z</time></trkpt>
<trkpt lat="29.758911" lon="94.738844">
<time>2016-10-08T01:40:31Z</time></trkpt>
<trkpt lat="29.758871" lon="94.738794">
<time>2016-10-08T01:40:32Z</time></trkpt>
<trkpt lat="29.758851" lon="94.738744">
<time>2016-10-08T01:40:33Z</time></trkpt>
<trkpt lat="29.758821" lon="94.738684">
<time>2016-10-08T01:40:34Z</time></trkpt>
<trkpt lat="29.758801" lon="94.738644">
<time>2016-10-08T01:40:35Z</time></trkpt>
<trkpt lat="29.758791" lon="94.738614">
<time>2016-10-08T01:40:36Z</time></trkpt>
<trkpt lat="29.758771" lon="94.738564">
<time>2016-10-08T01:40:37Z</time></trkpt>
<trkpt lat="29.758761" lon="94.738524">
<time>2016-10-08T01:40:38Z</time></trkpt>
<trkpt lat="29.758751" lon="94.738474">
<time>2016-10-08T01:40:39Z</time></trkpt>
<trkpt lat="29.758731" lon="94.738394">
<time>2016-10-08T01:40:40Z</time></trkpt>
<trkpt lat="29.758721" lon="94.738324">
<time>2016-10-08T01:40:41Z</time></trkpt>
<trkpt lat="29.758701" lon="94.738234">
<time>2016-10-08T01:40:42Z</time></trkpt>
<trkpt lat="29.758691" lon="94.738164">
<time>2016-10-08T01:40:43Z</time></trkpt>
<trkpt lat="29.758671" lon="94.738074">
<time>2016-10-08T01:40:44Z</time></trkpt>
<trkpt lat="29.758651" lon="94.737964">
<time>2016-10-08T01:40:45Z</time></trkpt>
<trkpt lat="29.758621" lon="94.737864">
<time>2016-10-08T01:40:46Z</time></trkpt>
<trkpt lat="29.758591" lon="94.737794">
<time>2016-10-08T01:40:47Z</time></trkpt>
<trkpt lat="29.758551" lon="94.737685">
<time>2016-10-08T01:40:48Z</time></trkpt>
<trkpt lat="29.758511" lon="94.737595">
<time>2016-10-08T01:40:49Z</time></trkpt>
<trkpt lat="29.758471" lon="94.737505">
<time>2016-10-08T01:40:50Z</time></trkpt>
<trkpt lat="29.758431" lon="94.737405">
<time>2016-10-08T01:40:51Z</time></trkpt>
<trkpt lat="29.758391" lon="94.737325">
<time>2016-10-08T01:40:52Z</time></trkpt>
<trkpt lat="29.758321" lon="94.737155">
<time>2016-10-08T01:40:53Z</time></trkpt>
<trkpt lat="29.758251" lon="94.737005">
<time>2016-10-08T01:40:54Z</time></trkpt>
<trkpt lat="29.758192" lon="94.736865">
<time>2016-10-08T01:40:55Z</time></trkpt>
<trkpt lat="29.758132" lon="94.736735">
<time>2016-10-08T01:40:56Z</time></trkpt>
<trkpt lat="29.758082" lon="94.736615">
<time>2016-10-08T01:40:57Z</time></trkpt>
<trkpt lat="29.758022" lon="94.736485">
<time>2016-10-08T01:40:58Z</time></trkpt>
<trkpt lat="29.757912" lon="94.736235">
<time>2016-10-08T01:40:59Z</time></trkpt>
<trkpt lat="29.757842" lon="94.736065">
<time>2016-10-08T01:41:00Z</time></trkpt>
<trkpt lat="29.757752" lon="94.735866">
<time>2016-10-08T01:41:01Z</time></trkpt>
<trkpt lat="29.757692" lon="94.735726">
<time>2016-10-08T01:41:02Z</time></trkpt>
<trkpt lat="29.757622" lon="94.735576">
<time>2016-10-08T01:41:03Z</time></trkpt>
<trkpt lat="29.757552" lon="94.735406">
<time>2016-10-08T01:41:04Z</time></trkpt>
<trkpt lat="29.757472" lon="94.735236">
<time>2016-10-08T01:41:05Z</time></trkpt>
<trkpt lat="29.757432" lon="94.735156">
<time>2016-10-08T01:41:06Z</time></trkpt>
<trkpt lat="29.757383" lon="94.735056">
<time>2016-10-08T01:41:07Z</time></trkpt>
<trkpt lat="29.757333" lon="94.734956">
<time>2016-10-08T01:41:08Z</time></trkpt>
<trkpt lat="29.757253" lon="94.734826">
<time>2016-10-08T01:41:09Z</time></trkpt>
<trkpt lat="29.757213" lon="94.734766">
<time>2016-10-08T01:41:10Z</time></trkpt>
<trkpt lat="29.757123" lon="94.734626">
<time>2016-10-08T01:41:11Z</time></trkpt>
<trkpt lat="29.757053" lon="94.734536">
<time>2016-10-08T01:41:12Z</time></trkpt>
<trkpt lat="29.756933" lon="94.734377">
<time>2016-10-08T01:41:13Z</time></trkpt>
<trkpt lat="29.756863" lon="94.734287">
<time>2016-10-08T01:41:14Z</time></trkpt>
<trkpt lat="29.756793" lon="94.734197">
<time>2016-10-08T01:41:15Z</time></trkpt>
<trkpt lat="29.756693" lon="94.734067">
<time>2016-10-08T01:41:16Z</time></trkpt>
<trkpt lat="29.756433" lon="94.733727">
<time>2016-10-08T01:41:17Z</time></trkpt>
<trkpt lat="29.756184" lon="94.733417">
<time>2016-10-08T01:41:18Z</time></trkpt>
<trkpt lat="29.755804" lon="94.732938">
<time>2016-10-08T01:41:19Z</time></trkpt>
<trkpt lat="29.755544" lon="94.732608">
<time>2016-10-08T01:41:20Z</time></trkpt>
<trkpt lat="29.755294" lon="94.732298">
<time>2016-10-08T01:41:21Z</time></trkpt>
<trkpt lat="29.755115" lon="94.732058">
<time>2016-10-08T01:41:22Z</time></trkpt>
<trkpt lat="29.754935" lon="94.731849">
<time>2016-10-08T01:41:23Z</time></trkpt>
<trkpt lat="29.754745" lon="94.731679">
<time>2016-10-08T01:41:24Z</time></trkpt>
<trkpt lat="29.754505" lon="94.731479">
<time>2016-10-08T01:41:25Z</time></trkpt>
<trkpt lat="29.754145" lon="94.731179">
<time>2016-10-08T01:41:26Z</time></trkpt>
<trkpt lat="29.753885" lon="94.730979">
<time>2016-10-08T01:41:27Z</time></trkpt>
<trkpt lat="29.753556" lon="94.7307">
<time>2016-10-08T01:41:28Z</time></trkpt>
<trkpt lat="29.753276" lon="94.73048">
<time>2016-10-08T01:41:29Z</time></trkpt>
<trkpt lat="29.752946" lon="94.73021">
<time>2016-10-08T01:41:30Z</time></trkpt>
<trkpt lat="29.752706" lon="94.73">
<time>2016-10-08T01:41:31Z</time></trkpt>
<trkpt lat="29.752546" lon="94.72986">
<time>2016-10-08T01:41:32Z</time></trkpt>
<trkpt lat="29.752457" lon="94.72977">
<time>2016-10-08T01:41:33Z</time></trkpt>
<trkpt lat="29.752397" lon="94.72972">
<time>2016-10-08T01:41:34Z</time></trkpt>
<trkpt lat="29.752327" lon="94.72964">
<time>2016-10-08T01:41:35Z</time></trkpt>
<trkpt lat="29.752267" lon="94.729551">
<time>2016-10-08T01:41:36Z</time></trkpt>
<trkpt lat="29.752207" lon="94.729461">
<time>2016-10-08T01:41:37Z</time></trkpt>
<trkpt lat="29.752157" lon="94.729371">
<time>2016-10-08T01:41:38Z</time></trkpt>
<trkpt lat="29.752097" lon="94.729261">
<time>2016-10-08T01:41:39Z</time></trkpt>
<trkpt lat="29.752047" lon="94.729151">
<time>2016-10-08T01:41:40Z</time></trkpt>
<trkpt lat="29.751987" lon="94.728991">
<time>2016-10-08T01:41:41Z</time></trkpt>
<trkpt lat="29.751907" lon="94.728811">
<time>2016-10-08T01:41:42Z</time></trkpt>
<trkpt lat="29.751837" lon="94.728661">
<time>2016-10-08T01:41:43Z</time></trkpt>
<trkpt lat="29.751788" lon="94.728551">
<time>2016-10-08T01:41:44Z</time></trkpt>
<trkpt lat="29.751748" lon="94.728472">
<time>2016-10-08T01:41:45Z</time></trkpt>
<trkpt lat="29.751708" lon="94.728422">
<time>2016-10-08T01:41:46Z</time></trkpt>
<trkpt lat="29.751678" lon="94.728372">
<time>2016-10-08T01:41:47Z</time></trkpt>
<trkpt lat="29.751658" lon="94.728342">
<time>2016-10-08T01:41:48Z</time></trkpt>
<trkpt lat="29.751618" lon="94.728292">
<time>2016-10-08T01:41:49Z</time></trkpt>
<trkpt lat="29.751558" lon="94.728242">
<time>2016-10-08T01:41:50Z</time></trkpt>
<trkpt lat="29.751518" lon="94.728212">
<time>2016-10-08T01:41:51Z</time></trkpt>
<trkpt lat="29.751448" lon="94.728162">
<time>2016-10-08T01:41:52Z</time></trkpt>
<trkpt lat="29.751378" lon="94.728122">
<time>2016-10-08T01:41:53Z</time></trkpt>
<trkpt lat="29.751308" lon="94.728082">
<time>2016-10-08T01:41:54Z</time></trkpt>
<trkpt lat="29.751208" lon="94.728042">
<time>2016-10-08T01:41:55Z</time></trkpt>
<trkpt lat="29.751148" lon="94.728012">
<time>2016-10-08T01:41:56Z</time></trkpt>
<trkpt lat="29.751038" lon="94.727972">
<time>2016-10-08T01:41:57Z</time></trkpt>
<trkpt lat="29.750918" lon="94.727922">
<time>2016-10-08T01:41:58Z</time></trkpt>
<trkpt lat="29.750768" lon="94.727862">
<time>2016-10-08T01:41:59Z</time></trkpt>
<trkpt lat="29.750608" lon="94.727792">
<time>2016-10-08T01:42:00Z</time></trkpt>
<trkpt lat="29.750438" lon="94.727722">
<time>2016-10-08T01:42:01Z</time></trkpt>
<trkpt lat="29.750318" lon="94.727672">
<time>2016-10-08T01:42:02Z</time></trkpt>
<trkpt lat="29.750238" lon="94.727632">
<time>2016-10-08T01:42:03Z</time></trkpt>
<trkpt lat="29.750208" lon="94.727622">
<time>2016-10-08T01:42:04Z</time></trkpt>
<trkpt lat="29.750159" lon="94.727602">
<time>2016-10-08T01:42:05Z</time></trkpt>
<trkpt lat="29.750099" lon="94.727562">
<time>2016-10-08T01:42:06Z</time></trkpt>
<trkpt lat="29.750059" lon="94.727542">
<time>2016-10-08T01:42:07Z</time></trkpt>
<trkpt lat="29.750019" lon="94.727522">
<time>2016-10-08T01:42:08Z</time></trkpt>
<trkpt lat="29.749749" lon="94.727353">
<time>2016-10-08T01:42:09Z</time></trkpt>
<trkpt lat="29.749219" lon="94.727043">
<time>2016-10-08T01:42:10Z</time></trkpt>
<trkpt lat="29.748859" lon="94.726823">
<time>2016-10-08T01:42:11Z</time></trkpt>
<trkpt lat="29.748599" lon="94.726653">
<time>2016-10-08T01:42:12Z</time></trkpt>
<trkpt lat="29.74832" lon="94.726444">
<time>2016-10-08T01:42:13Z</time></trkpt>
<trkpt lat="29.74808" lon="94.726254">
<time>2016-10-08T01:42:14Z</time></trkpt>
<trkpt lat="29.74792" lon="94.726144">
<time>2016-10-08T01:42:15Z</time></trkpt>
<trkpt lat="29.74759" lon="94.725934">
<time>2016-10-08T01:42:16Z</time></trkpt>
<trkpt lat="29.74734" lon="94.725784">
<time>2016-10-08T01:42:17Z</time></trkpt>
<trkpt lat="29.74719" lon="94.725704">
<time>2016-10-08T01:42:18Z</time></trkpt>
<trkpt lat="29.746971" lon="94.725604">
<time>2016-10-08T01:42:19Z</time></trkpt>
<trkpt lat="29.746761" lon="94.725515">
<time>2016-10-08T01:42:20Z</time></trkpt>
<trkpt lat="29.746561" lon="94.725435">
<time>2016-10-08T01:42:21Z</time></trkpt>
<trkpt lat="29.746441" lon="94.725415">
<time>2016-10-08T01:42:22Z</time></trkpt>
<trkpt lat="29.746321" lon="94.725395">
<time>2016-10-08T01:42:23Z</time></trkpt>
<trkpt lat="29.746071" lon="94.725375">
<time>2016-10-08T01:42:24Z</time></trkpt>
<trkpt lat="29.745751" lon="94.725345">
<time>2016-10-08T01:42:25Z</time></trkpt>
<trkpt lat="29.745551" lon="94.725315">
<time>2016-10-08T01:42:26Z</time></trkpt>
<trkpt lat="29.745101" lon="94.725265">
<time>2016-10-08T01:42:27Z</time></trkpt>
<trkpt lat="29.744741" lon="94.725225">
<time>2016-10-08T01:42:28Z</time></trkpt>
<trkpt lat="29.744231" lon="94.725165">
<time>2016-10-08T01:42:29Z</time></trkpt>
<trkpt lat="29.743841" lon="94.725115">
<time>2016-10-08T01:42:30Z</time></trkpt>
<trkpt lat="29.743292" lon="94.725065">
<time>2016-10-08T01:42:31Z</time></trkpt>
<trkpt lat="29.743032" lon="94.725045">
<time>2016-10-08T01:42:32Z</time></trkpt>
<trkpt lat="29.742682" lon="94.725035">
<time>2016-10-08T01:42:33Z</time></trkpt>
<trkpt lat="29.741852" lon="94.725035">
<time>2016-10-08T01:42:34Z</time></trkpt>
<trkpt lat="29.741192" lon="94.725025">
<time>2016-10-08T01:42:35Z</time></trkpt>
<trkpt lat="29.740902" lon="94.725015">
<time>2016-10-08T01:42:36Z</time></trkpt>
<trkpt lat="29.740602" lon="94.724975">
<time>2016-10-08T01:42:37Z</time></trkpt>
<trkpt lat="29.740332" lon="94.724925">
<time>2016-10-08T01:42:38Z</time></trkpt>
<trkpt lat="29.740012" lon="94.724835">
<time>2016-10-08T01:42:39Z</time></trkpt>
<trkpt lat="29.739572" lon="94.724676">
<time>2016-10-08T01:42:40Z</time></trkpt>
<trkpt lat="29.739173" lon="94.724496">
<time>2016-10-08T01:42:41Z</time></trkpt>
<trkpt lat="29.738653" lon="94.724276">
<time>2016-10-08T01:42:42Z</time></trkpt>
<trkpt lat="29.738333" lon="94.724136">
<time>2016-10-08T01:42:43Z</time></trkpt>
<trkpt lat="29.738093" lon="94.724076">
<time>2016-10-08T01:42:44Z</time></trkpt>
<trkpt lat="29.737933" lon="94.724046">
<time>2016-10-08T01:42:45Z</time></trkpt>
<trkpt lat="29.737773" lon="94.724056">
<time>2016-10-08T01:42:46Z</time></trkpt>
<trkpt lat="29.737633" lon="94.724066">
<time>2016-10-08T01:42:47Z</time></trkpt>
<trkpt lat="29.737453" lon="94.724116">
<time>2016-10-08T01:42:48Z</time></trkpt>
<trkpt lat="29.737223" lon="94.724186">
<time>2016-10-08T01:42:49Z</time></trkpt>
<trkpt lat="29.737223" lon="94.724186">
<time>2016-10-08T01:42:50Z</time></trkpt>
<trkpt lat="29.736093" lon="94.724975">
<time>2016-10-08T01:42:51Z</time></trkpt>
<trkpt lat="29.735392" lon="94.725415">
<time>2016-10-08T01:42:52Z</time></trkpt>
<trkpt lat="29.734882" lon="94.725755">
<time>2016-10-08T01:42:53Z</time></trkpt>
<trkpt lat="29.734142" lon="94.726214">
<time>2016-10-08T01:42:54Z</time></trkpt>
<trkpt lat="29.733572" lon="94.726534">
<time>2016-10-08T01:42:55Z</time></trkpt>
<trkpt lat="29.732972" lon="94.726873">
<time>2016-10-08T01:42:56Z</time></trkpt>
<trkpt lat="29.731931" lon="94.727533">
<time>2016-10-08T01:42:57Z</time></trkpt>
<trkpt lat="29.730751" lon="94.728272">
<time>2016-10-08T01:42:58Z</time></trkpt>
<trkpt lat="29.72935" lon="94.729111">
<time>2016-10-08T01:42:59Z</time></trkpt>
<trkpt lat="29.72821" lon="94.729781">
<time>2016-10-08T01:43:00Z</time></trkpt>
<trkpt lat="29.72734" lon="94.73029">
<time>2016-10-08T01:43:01Z</time></trkpt>
<trkpt lat="29.7272" lon="94.73037">
<time>2016-10-08T01:43:02Z</time></trkpt>
<trkpt lat="29.72687" lon="94.73048">
<time>2016-10-08T01:43:03Z</time></trkpt>
<trkpt lat="29.7267" lon="94.7306">
<time>2016-10-08T01:43:04Z</time></trkpt>
<trkpt lat="29.72642" lon="94.73077">
<time>2016-10-08T01:43:05Z</time></trkpt>
<trkpt lat="29.7263" lon="94.73082">
<time>2016-10-08T01:43:06Z</time></trkpt>
<trkpt lat="29.72608" lon="94.73091">
<time>2016-10-08T01:43:07Z</time></trkpt>
<trkpt lat="29.72594" lon="94.73095">
<time>2016-10-08T01:43:08Z</time></trkpt>
<trkpt lat="29.72579" lon="94.73099">
<time>2016-10-08T01:43:09Z</time></trkpt>
<trkpt lat="29.72549" lon="94.73107">
<time>2016-10-08T01:43:10Z</time></trkpt>
<trkpt lat="29.72529" lon="94.73113">
<time>2016-10-08T01:43:11Z</time></trkpt>
<trkpt lat="29.72507" lon="94.73118">
<time>2016-10-08T01:43:12Z</time></trkpt>
<trkpt lat="29.72483" lon="94.73124">
<time>2016-10-08T01:43:13Z</time></trkpt>
<trkpt lat="29.7245" lon="94.73133">
<time>2016-10-08T01:43:14Z</time></trkpt>
<trkpt lat="29.72433" lon="94.73137">
<time>2016-10-08T01:43:15Z</time></trkpt>
<trkpt lat="29.723899" lon="94.731479">
<time>2016-10-08T01:43:16Z</time></trkpt>
<trkpt lat="29.723539" lon="94.731569">
<time>2016-10-08T01:43:17Z</time></trkpt>
<trkpt lat="29.723259" lon="94.731649">
<time>2016-10-08T01:43:18Z</time></trkpt>
<trkpt lat="29.722929" lon="94.731729">
<time>2016-10-08T01:43:19Z</time></trkpt>
<trkpt lat="29.722409" lon="94.731869">
<time>2016-10-08T01:43:20Z</time></trkpt>
<trkpt lat="29.722049" lon="94.731959">
<time>2016-10-08T01:43:21Z</time></trkpt>
<trkpt lat="29.721769" lon="94.732039">
<time>2016-10-08T01:43:22Z</time></trkpt>
<trkpt lat="29.721259" lon="94.732169">
<time>2016-10-08T01:43:23Z</time></trkpt>
<trkpt lat="29.721089" lon="94.732199">
<time>2016-10-08T01:43:24Z</time></trkpt>
<trkpt lat="29.720889" lon="94.732239">
<time>2016-10-08T01:43:25Z</time></trkpt>
<trkpt lat="29.72066" lon="94.732269">
<time>2016-10-08T01:43:26Z</time></trkpt>
<trkpt lat="29.72034" lon="94.732269">
<time>2016-10-08T01:43:27Z</time></trkpt>
<trkpt lat="29.72003" lon="94.732259">
<time>2016-10-08T01:43:28Z</time></trkpt>
<trkpt lat="29.71979" lon="94.732219">
<time>2016-10-08T01:43:29Z</time></trkpt>
<trkpt lat="29.71944" lon="94.732139">
<time>2016-10-08T01:43:30Z</time></trkpt>
<trkpt lat="29.71934" lon="94.732119">
<time>2016-10-08T01:43:31Z</time></trkpt>
<trkpt lat="29.71884" lon="94.732009">
<time>2016-10-08T01:43:32Z</time></trkpt>
<trkpt lat="29.71847" lon="94.731949">
<time>2016-10-08T01:43:33Z</time></trkpt>
<trkpt lat="29.7179" lon="94.731819">
<time>2016-10-08T01:43:34Z</time></trkpt>
<trkpt lat="29.71733" lon="94.731709">
<time>2016-10-08T01:43:35Z</time></trkpt>
<trkpt lat="29.716851" lon="94.731609">
<time>2016-10-08T01:43:36Z</time></trkpt>
<trkpt lat="29.716291" lon="94.7315">
<time>2016-10-08T01:43:37Z</time></trkpt>
<trkpt lat="29.715891" lon="94.73142">
<time>2016-10-08T01:43:38Z</time></trkpt>
<trkpt lat="29.715371" lon="94.73131">
<time>2016-10-08T01:43:39Z</time></trkpt>
<trkpt lat="29.714921" lon="94.73123">
<time>2016-10-08T01:43:40Z</time></trkpt>
<trkpt lat="29.714431" lon="94.73112">
<time>2016-10-08T01:43:41Z</time></trkpt>
<trkpt lat="29.713602" lon="94.73095">
<time>2016-10-08T01:43:42Z</time></trkpt>
<trkpt lat="29.713062" lon="94.73084">
<time>2016-10-08T01:43:43Z</time></trkpt>
<trkpt lat="29.712542" lon="94.73074">
<time>2016-10-08T01:43:44Z</time></trkpt>
<trkpt lat="29.712032" lon="94.73063">
<time>2016-10-08T01:43:45Z</time></trkpt>
<trkpt lat="29.711432" lon="94.73051">
<time>2016-10-08T01:43:46Z</time></trkpt>
<trkpt lat="29.710832" lon="94.730381">
<time>2016-10-08T01:43:47Z</time></trkpt>
<trkpt lat="29.710213" lon="94.730261">
<time>2016-10-08T01:43:48Z</time></trkpt>
<trkpt lat="29.709823" lon="94.730171">
<time>2016-10-08T01:43:49Z</time></trkpt>
<trkpt lat="29.709363" lon="94.730081">
<time>2016-10-08T01:43:50Z</time></trkpt>
<trkpt lat="29.709133" lon="94.730031">
<time>2016-10-08T01:43:51Z</time></trkpt>
<trkpt lat="29.708893" lon="94.729971">
<time>2016-10-08T01:43:52Z</time></trkpt>
<trkpt lat="29.708453" lon="94.729891">
<time>2016-10-08T01:43:53Z</time></trkpt>
<trkpt lat="29.707963" lon="94.729791">
<time>2016-10-08T01:43:54Z</time></trkpt>
<trkpt lat="29.707713" lon="94.729741">
<time>2016-10-08T01:43:55Z</time></trkpt>
<trkpt lat="29.707384" lon="94.729681">
<time>2016-10-08T01:43:56Z</time></trkpt>
<trkpt lat="29.706984" lon="94.729601">
<time>2016-10-08T01:43:57Z</time></trkpt>
<trkpt lat="29.706664" lon="94.729531">
<time>2016-10-08T01:43:58Z</time></trkpt>
<trkpt lat="29.706414" lon="94.729471">
<time>2016-10-08T01:43:59Z</time></trkpt>
<trkpt lat="29.705834" lon="94.729362">
<time>2016-10-08T01:44:00Z</time></trkpt>
<trkpt lat="29.705304" lon="94.729252">
<time>2016-10-08T01:44:01Z</time></trkpt>
<trkpt lat="29.704874" lon="94.729162">
<time>2016-10-08T01:44:02Z</time></trkpt>
<trkpt lat="29.703925" lon="94.728962">
<time>2016-10-08T01:44:03Z</time></trkpt>
<trkpt lat="29.703495" lon="94.728882">
<time>2016-10-08T01:44:04Z</time></trkpt>
<trkpt lat="29.702645" lon="94.728702">
<time>2016-10-08T01:44:05Z</time></trkpt>
<trkpt lat="29.702085" lon="94.728592">
<time>2016-10-08T01:44:06Z</time></trkpt>
<trkpt lat="29.701845" lon="94.728542">
<time>2016-10-08T01:44:07Z</time></trkpt>
<trkpt lat="29.701625" lon="94.728472">
<time>2016-10-08T01:44:08Z</time></trkpt>
<trkpt lat="29.701356" lon="94.728363">
<time>2016-10-08T01:44:09Z</time></trkpt>
<trkpt lat="29.701006" lon="94.728213">
<time>2016-10-08T01:44:10Z</time></trkpt>
<trkpt lat="29.700556" lon="94.728013">
<time>2016-10-08T01:44:11Z</time></trkpt>
<trkpt lat="29.699886" lon="94.727723">
<time>2016-10-08T01:44:12Z</time></trkpt>
<trkpt lat="29.699637" lon="94.727613">
<time>2016-10-08T01:44:13Z</time></trkpt>
<trkpt lat="29.699527" lon="94.727573">
<time>2016-10-08T01:44:14Z</time></trkpt>
<trkpt lat="29.699377" lon="94.727533">
<time>2016-10-08T01:44:15Z</time></trkpt>
<trkpt lat="29.699187" lon="94.727533">
<time>2016-10-08T01:44:16Z</time></trkpt>
<trkpt lat="29.698857" lon="94.727553">
<time>2016-10-08T01:44:17Z</time></trkpt>
<trkpt lat="29.698527" lon="94.727583">
<time>2016-10-08T01:44:18Z</time></trkpt>
<trkpt lat="29.698297" lon="94.727603">
<time>2016-10-08T01:44:19Z</time></trkpt>
<trkpt lat="29.698077" lon="94.727583">
<time>2016-10-08T01:44:20Z</time></trkpt>
<trkpt lat="29.697867" lon="94.727543">
<time>2016-10-08T01:44:21Z</time></trkpt>
<trkpt lat="29.697677" lon="94.727474">
<time>2016-10-08T01:44:22Z</time></trkpt>
<trkpt lat="29.697507" lon="94.727354">
<time>2016-10-08T01:44:23Z</time></trkpt>
<trkpt lat="29.697257" lon="94.727124">
<time>2016-10-08T01:44:24Z</time></trkpt>
<trkpt lat="29.696868" lon="94.726754">
<time>2016-10-08T01:44:25Z</time></trkpt>
<trkpt lat="29.696728" lon="94.726614">
<time>2016-10-08T01:44:26Z</time></trkpt>
<trkpt lat="29.696578" lon="94.726505">
<time>2016-10-08T01:44:27Z</time></trkpt>
<trkpt lat="29.696408" lon="94.726415">
<time>2016-10-08T01:44:28Z</time></trkpt>
<trkpt lat="29.696228" lon="94.726325">
<time>2016-10-08T01:44:29Z</time></trkpt>
<trkpt lat="29.695988" lon="94.726225">
<time>2016-10-08T01:44:30Z</time></trkpt>
<trkpt lat="29.695808" lon="94.726155">
<time>2016-10-08T01:44:31Z</time></trkpt>
<trkpt lat="29.695609" lon="94.726105">
<time>2016-10-08T01:44:32Z</time></trkpt>
<trkpt lat="29.695199" lon="94.726065">
<time>2016-10-08T01:44:33Z</time></trkpt>
<trkpt lat="29.694989" lon="94.726055">
<time>2016-10-08T01:44:34Z</time></trkpt>
<trkpt lat="29.694849" lon="94.726055">
<time>2016-10-08T01:44:35Z</time></trkpt>
<trkpt lat="29.694649" lon="94.726095">
<time>2016-10-08T01:44:36Z</time></trkpt>
<trkpt lat="29.694179" lon="94.726255">
<time>2016-10-08T01:44:37Z</time></trkpt>
<trkpt lat="29.693449" lon="94.726535">
<time>2016-10-08T01:44:38Z</time></trkpt>
<trkpt lat="29.692949" lon="94.726724">
<time>2016-10-08T01:44:39Z</time></trkpt>
<trkpt lat="29.692708" lon="94.726804">
<time>2016-10-08T01:44:40Z</time></trkpt>
<trkpt lat="29.692558" lon="94.726854">
<time>2016-10-08T01:44:41Z</time></trkpt>
<trkpt lat="29.692368" lon="94.726874">
<time>2016-10-08T01:44:42Z</time></trkpt>
<trkpt lat="29.692179" lon="94.726874">
<time>2016-10-08T01:44:43Z</time></trkpt>
<trkpt lat="29.691849" lon="94.726834">
<time>2016-10-08T01:44:44Z</time></trkpt>
<trkpt lat="29.691519" lon="94.726774">
<time>2016-10-08T01:44:45Z</time></trkpt>
<trkpt lat="29.691289" lon="94.726734">
<time>2016-10-08T01:44:46Z</time></trkpt>
<trkpt lat="29.691109" lon="94.726724">
<time>2016-10-08T01:44:47Z</time></trkpt>
<trkpt lat="29.691009" lon="94.726744">
<time>2016-10-08T01:44:48Z</time></trkpt>
<trkpt lat="29.690859" lon="94.726824">
<time>2016-10-08T01:44:49Z</time></trkpt>
<trkpt lat="29.690699" lon="94.726954">
<time>2016-10-08T01:44:50Z</time></trkpt>
<trkpt lat="29.690579" lon="94.727064">
<time>2016-10-08T01:44:51Z</time></trkpt>
<trkpt lat="29.690469" lon="94.727134">
<time>2016-10-08T01:44:52Z</time></trkpt>
<trkpt lat="29.690309" lon="94.727204">
<time>2016-10-08T01:44:53Z</time></trkpt>
<trkpt lat="29.690129" lon="94.727234">
<time>2016-10-08T01:44:54Z</time></trkpt>
<trkpt lat="29.689719" lon="94.727284">
<time>2016-10-08T01:44:55Z</time></trkpt>
<trkpt lat="29.689469" lon="94.727324">
<time>2016-10-08T01:44:56Z</time></trkpt>
<trkpt lat="29.689179" lon="94.727344">
<time>2016-10-08T01:44:57Z</time></trkpt>
<trkpt lat="29.688949" lon="94.727344">
<time>2016-10-08T01:44:58Z</time></trkpt>
<trkpt lat="29.688749" lon="94.727314">
<time>2016-10-08T01:44:59Z</time></trkpt>
<trkpt lat="29.688489" lon="94.727234">
<time>2016-10-08T01:45:00Z</time></trkpt>
<trkpt lat="29.688069" lon="94.727084">
<time>2016-10-08T01:45:01Z</time></trkpt>
<trkpt lat="29.687619" lon="94.726904">
<time>2016-10-08T01:45:02Z</time></trkpt>
<trkpt lat="29.687439" lon="94.726834">
<time>2016-10-08T01:45:03Z</time></trkpt>
<trkpt lat="29.68728" lon="94.726754">
<time>2016-10-08T01:45:04Z</time></trkpt>
<trkpt lat="29.68716" lon="94.726675">
<time>2016-10-08T01:45:05Z</time></trkpt>
<trkpt lat="29.68711" lon="94.726635">
<time>2016-10-08T01:45:06Z</time></trkpt>
<trkpt lat="29.68704" lon="94.726565">
<time>2016-10-08T01:45:07Z</time></trkpt>
<trkpt lat="29.68695" lon="94.726425">
<time>2016-10-08T01:45:08Z</time></trkpt>
<trkpt lat="29.68683" lon="94.726245">
<time>2016-10-08T01:45:09Z</time></trkpt>
<trkpt lat="29.68669" lon="94.726025">
<time>2016-10-08T01:45:10Z</time></trkpt>
<trkpt lat="29.68659" lon="94.725875">
<time>2016-10-08T01:45:11Z</time></trkpt>
<trkpt lat="29.686491" lon="94.725755">
<time>2016-10-08T01:45:12Z</time></trkpt>
<trkpt lat="29.686431" lon="94.725706">
<time>2016-10-08T01:45:13Z</time></trkpt>
<trkpt lat="29.686361" lon="94.725666">
<time>2016-10-08T01:45:14Z</time></trkpt>
<trkpt lat="29.686271" lon="94.725626">
<time>2016-10-08T01:45:15Z</time></trkpt>
<trkpt lat="29.686191" lon="94.725606">
<time>2016-10-08T01:45:16Z</time></trkpt>
<trkpt lat="29.686081" lon="94.725586">
<time>2016-10-08T01:45:17Z</time></trkpt>
<trkpt lat="29.685961" lon="94.725596">
<time>2016-10-08T01:45:18Z</time></trkpt>
<trkpt lat="29.685821" lon="94.725636">
<time>2016-10-08T01:45:19Z</time></trkpt>
<trkpt lat="29.685671" lon="94.725716">
<time>2016-10-08T01:45:20Z</time></trkpt>
<trkpt lat="29.685571" lon="94.725775">
<time>2016-10-08T01:45:21Z</time></trkpt>
<trkpt lat="29.685461" lon="94.725825">
<time>2016-10-08T01:45:22Z</time></trkpt>
<trkpt lat="29.685331" lon="94.725845">
<time>2016-10-08T01:45:23Z</time></trkpt>
<trkpt lat="29.685201" lon="94.725835">
<time>2016-10-08T01:45:24Z</time></trkpt>
<trkpt lat="29.685081" lon="94.725805">
<time>2016-10-08T01:45:25Z</time></trkpt>
<trkpt lat="29.684971" lon="94.725746">
<time>2016-10-08T01:45:26Z</time></trkpt>
<trkpt lat="29.684791" lon="94.725676">
<time>2016-10-08T01:45:27Z</time></trkpt>
<trkpt lat="29.684641" lon="94.725626">
<time>2016-10-08T01:45:28Z</time></trkpt>
<trkpt lat="29.684501" lon="94.725606">
<time>2016-10-08T01:45:29Z</time></trkpt>
<trkpt lat="29.684351" lon="94.725606">
<time>2016-10-08T01:45:30Z</time></trkpt>
<trkpt lat="29.684081" lon="94.725626">
<time>2016-10-08T01:45:31Z</time></trkpt>
<trkpt lat="29.683921" lon="94.725636">
<time>2016-10-08T01:45:32Z</time></trkpt>
<trkpt lat="29.683811" lon="94.725626">
<time>2016-10-08T01:45:33Z</time></trkpt>
<trkpt lat="29.683731" lon="94.725596">
<time>2016-10-08T01:45:34Z</time></trkpt>
<trkpt lat="29.683591" lon="94.725536">
<time>2016-10-08T01:45:35Z</time></trkpt>
<trkpt lat="29.683422" lon="94.725426">
<time>2016-10-08T01:45:36Z</time></trkpt>
<trkpt lat="29.683162" lon="94.725266">
<time>2016-10-08T01:45:37Z</time></trkpt>
<trkpt lat="29.682952" lon="94.725146">
<time>2016-10-08T01:45:38Z</time></trkpt>
<trkpt lat="29.682832" lon="94.725076">
<time>2016-10-08T01:45:39Z</time></trkpt>
<trkpt lat="29.682732" lon="94.725026">
<time>2016-10-08T01:45:40Z</time></trkpt>
<trkpt lat="29.682642" lon="94.725016">
<time>2016-10-08T01:45:41Z</time></trkpt>
<trkpt lat="29.682552" lon="94.725026">
<time>2016-10-08T01:45:42Z</time></trkpt>
<trkpt lat="29.682472" lon="94.725056">
<time>2016-10-08T01:45:43Z</time></trkpt>
<trkpt lat="29.682382" lon="94.725136">
<time>2016-10-08T01:45:44Z</time></trkpt>
<trkpt lat="29.682272" lon="94.725256">
<time>2016-10-08T01:45:45Z</time></trkpt>
<trkpt lat="29.682172" lon="94.725366">
<time>2016-10-08T01:45:46Z</time></trkpt>
<trkpt lat="29.682082" lon="94.725436">
<time>2016-10-08T01:45:47Z</time></trkpt>
<trkpt lat="29.682002" lon="94.725476">
<time>2016-10-08T01:45:48Z</time></trkpt>
<trkpt lat="29.681902" lon="94.725486">
<time>2016-10-08T01:45:49Z</time></trkpt>
<trkpt lat="29.681812" lon="94.725476">
<time>2016-10-08T01:45:50Z</time></trkpt>
<trkpt lat="29.681662" lon="94.725446">
<time>2016-10-08T01:45:51Z</time></trkpt>
<trkpt lat="29.681302" lon="94.725336">
<time>2016-10-08T01:45:52Z</time></trkpt>
<trkpt lat="29.680992" lon="94.725266">
<time>2016-10-08T01:45:53Z</time></trkpt>
<trkpt lat="29.680662" lon="94.725166">
<time>2016-10-08T01:45:54Z</time></trkpt>
<trkpt lat="29.680192" lon="94.725046">
<time>2016-10-08T01:45:55Z</time></trkpt>
<trkpt lat="29.679853" lon="94.724956">
<time>2016-10-08T01:45:56Z</time></trkpt>
<trkpt lat="29.679583" lon="94.724887">
<time>2016-10-08T01:45:57Z</time></trkpt>
<trkpt lat="29.679403" lon="94.724837">
<time>2016-10-08T01:45:58Z</time></trkpt>
<trkpt lat="29.679203" lon="94.724817">
<time>2016-10-08T01:45:59Z</time></trkpt>
<trkpt lat="29.678973" lon="94.724817">
<time>2016-10-08T01:46:00Z</time></trkpt>
<trkpt lat="29.678753" lon="94.724827">
<time>2016-10-08T01:46:01Z</time></trkpt>
<trkpt lat="29.678633" lon="94.724847">
<time>2016-10-08T01:46:02Z</time></trkpt>
<trkpt lat="29.678523" lon="94.724887">
<time>2016-10-08T01:46:03Z</time></trkpt>
<trkpt lat="29.678403" lon="94.724986">
<time>2016-10-08T01:46:04Z</time></trkpt>
<trkpt lat="29.678263" lon="94.725186">
<time>2016-10-08T01:46:05Z</time></trkpt>
<trkpt lat="29.678153" lon="94.725356">
<time>2016-10-08T01:46:06Z</time></trkpt>
<trkpt lat="29.678063" lon="94.725466">
<time>2016-10-08T01:46:07Z</time></trkpt>
<trkpt lat="29.678003" lon="94.725506">
<time>2016-10-08T01:46:08Z</time></trkpt>
<trkpt lat="29.677913" lon="94.725556">
<time>2016-10-08T01:46:09Z</time></trkpt>
<trkpt lat="29.677783" lon="94.725586">
<time>2016-10-08T01:46:10Z</time></trkpt>
<trkpt lat="29.677663" lon="94.725586">
<time>2016-10-08T01:46:11Z</time></trkpt>
<trkpt lat="29.677563" lon="94.725556">
<time>2016-10-08T01:46:12Z</time></trkpt>
<trkpt lat="29.677473" lon="94.725506">
<time>2016-10-08T01:46:13Z</time></trkpt>
<trkpt lat="29.677373" lon="94.725426">
<time>2016-10-08T01:46:14Z</time></trkpt>
<trkpt lat="29.677273" lon="94.725276">
<time>2016-10-08T01:46:15Z</time></trkpt>
<trkpt lat="29.677133" lon="94.725006">
<time>2016-10-08T01:46:16Z</time></trkpt>
<trkpt lat="29.677053" lon="94.724877">
<time>2016-10-08T01:46:17Z</time></trkpt>
<trkpt lat="29.676993" lon="94.724797">
<time>2016-10-08T01:46:18Z</time></trkpt>
<trkpt lat="29.676913" lon="94.724747">
<time>2016-10-08T01:46:19Z</time></trkpt>
<trkpt lat="29.676833" lon="94.724717">
<time>2016-10-08T01:46:20Z</time></trkpt>
<trkpt lat="29.676753" lon="94.724727">
<time>2016-10-08T01:46:21Z</time></trkpt>
<trkpt lat="29.676683" lon="94.724757">
<time>2016-10-08T01:46:22Z</time></trkpt>
<trkpt lat="29.676573" lon="94.724807">
<time>2016-10-08T01:46:23Z</time></trkpt>
<trkpt lat="29.676423" lon="94.724897">
<time>2016-10-08T01:46:24Z</time></trkpt>
<trkpt lat="29.676203" lon="94.724996">
<time>2016-10-08T01:46:25Z</time></trkpt>
<trkpt lat="29.676023" lon="94.725036">
<time>2016-10-08T01:46:26Z</time></trkpt>
<trkpt lat="29.675833" lon="94.725056">
<time>2016-10-08T01:46:27Z</time></trkpt>
<trkpt lat="29.675643" lon="94.725026">
<time>2016-10-08T01:46:28Z</time></trkpt>
<trkpt lat="29.675504" lon="94.724957">
<time>2016-10-08T01:46:29Z</time></trkpt>
<trkpt lat="29.675314" lon="94.724797">
<time>2016-10-08T01:46:30Z</time></trkpt>
<trkpt lat="29.675144" lon="94.724647">
<time>2016-10-08T01:46:31Z</time></trkpt>
<trkpt lat="29.675004" lon="94.724497">
<time>2016-10-08T01:46:32Z</time></trkpt>
<trkpt lat="29.674834" lon="94.724287">
<time>2016-10-08T01:46:33Z</time></trkpt>
<trkpt lat="29.674675" lon="94.724038">
<time>2016-10-08T01:46:34Z</time></trkpt>
<trkpt lat="29.674595" lon="94.723858">
<time>2016-10-08T01:46:35Z</time></trkpt>
<trkpt lat="29.674505" lon="94.723708">
<time>2016-10-08T01:46:36Z</time></trkpt>
<trkpt lat="29.674285" lon="94.723408">
<time>2016-10-08T01:46:37Z</time></trkpt>
<trkpt lat="29.674046" lon="94.723129">
<time>2016-10-08T01:46:38Z</time></trkpt>
<trkpt lat="29.673776" lon="94.722819">
<time>2016-10-08T01:46:39Z</time></trkpt>
<trkpt lat="29.673317" lon="94.7223">
<time>2016-10-08T01:46:40Z</time></trkpt>
<trkpt lat="29.673217" lon="94.72219">
<time>2016-10-08T01:46:41Z</time></trkpt>
<trkpt lat="29.673087" lon="94.722">
<time>2016-10-08T01:46:42Z</time></trkpt>
<trkpt lat="29.672987" lon="94.72186">
<time>2016-10-08T01:46:43Z</time></trkpt>
<trkpt lat="29.672907" lon="94.72169">
<time>2016-10-08T01:46:44Z</time></trkpt>
<trkpt lat="29.672857" lon="94.72152">
<time>2016-10-08T01:46:45Z</time></trkpt>
<trkpt lat="29.672828" lon="94.721241">
<time>2016-10-08T01:46:46Z</time></trkpt>
<trkpt lat="29.672798" lon="94.720901">
<time>2016-10-08T01:46:47Z</time></trkpt>
<trkpt lat="29.672768" lon="94.720542">
<time>2016-10-08T01:46:48Z</time></trkpt>
<trkpt lat="29.672729" lon="94.720322">
<time>2016-10-08T01:46:49Z</time></trkpt>
<trkpt lat="29.672659" lon="94.720112">
<time>2016-10-08T01:46:50Z</time></trkpt>
<trkpt lat="29.672549" lon="94.719922">
<time>2016-10-08T01:46:51Z</time></trkpt>
<trkpt lat="29.672399" lon="94.719703">
<time>2016-10-08T01:46:52Z</time></trkpt>
<trkpt lat="29.67197" lon="94.719004">
<time>2016-10-08T01:46:53Z</time></trkpt>
<trkpt lat="29.671761" lon="94.718664">
<time>2016-10-08T01:46:54Z</time></trkpt>
<trkpt lat="29.671252" lon="94.717855">
<time>2016-10-08T01:46:55Z</time></trkpt>
<trkpt lat="29.671012" lon="94.717506">
<time>2016-10-08T01:46:56Z</time></trkpt>
<trkpt lat="29.670922" lon="94.717366">
<time>2016-10-08T01:46:57Z</time></trkpt>
<trkpt lat="29.670842" lon="94.717226">
<time>2016-10-08T01:46:58Z</time></trkpt>
<trkpt lat="29.670703" lon="94.716936">
<time>2016-10-08T01:46:59Z</time></trkpt>
<trkpt lat="29.670553" lon="94.716607">
<time>2016-10-08T01:47:00Z</time></trkpt>
<trkpt lat="29.670374" lon="94.716187">
<time>2016-10-08T01:47:01Z</time></trkpt>
<trkpt lat="29.670214" lon="94.715888">
<time>2016-10-08T01:47:02Z</time></trkpt>
<trkpt lat="29.670044" lon="94.715658">
<time>2016-10-08T01:47:03Z</time></trkpt>
<trkpt lat="29.669745" lon="94.715289">
<time>2016-10-08T01:47:04Z</time></trkpt>
<trkpt lat="29.669635" lon="94.715169">
<time>2016-10-08T01:47:05Z</time></trkpt>
<trkpt lat="29.669435" lon="94.714939">
<time>2016-10-08T01:47:06Z</time></trkpt>
<trkpt lat="29.669276" lon="94.714749">
<time>2016-10-08T01:47:07Z</time></trkpt>
<trkpt lat="29.669126" lon="94.71457">
<time>2016-10-08T01:47:08Z</time></trkpt>
<trkpt lat="29.669046" lon="94.7145">
<time>2016-10-08T01:47:09Z</time></trkpt>
<trkpt lat="29.668966" lon="94.71444">
<time>2016-10-08T01:47:10Z</time></trkpt>
<trkpt lat="29.668896" lon="94.71442">
<time>2016-10-08T01:47:11Z</time></trkpt>
<trkpt lat="29.668856" lon="94.71442">
<time>2016-10-08T01:47:12Z</time></trkpt>
<trkpt lat="29.668806" lon="94.71444">
<time>2016-10-08T01:47:13Z</time></trkpt>
<trkpt lat="29.668766" lon="94.71448">
<time>2016-10-08T01:47:14Z</time></trkpt>
<trkpt lat="29.668706" lon="94.71456">
<time>2016-10-08T01:47:15Z</time></trkpt>
<trkpt lat="29.668676" lon="94.71464">
<time>2016-10-08T01:47:16Z</time></trkpt>
<trkpt lat="29.668656" lon="94.714789">
<time>2016-10-08T01:47:17Z</time></trkpt>
<trkpt lat="29.668646" lon="94.714929">
<time>2016-10-08T01:47:18Z</time></trkpt>
<trkpt lat="29.668615" lon="94.715289">
<time>2016-10-08T01:47:19Z</time></trkpt>
<trkpt lat="29.668595" lon="94.715658">
<time>2016-10-08T01:47:20Z</time></trkpt>
<trkpt lat="29.668584" lon="94.715908">
<time>2016-10-08T01:47:21Z</time></trkpt>
<trkpt lat="29.668564" lon="94.716217">
<time>2016-10-08T01:47:22Z</time></trkpt>
<trkpt lat="29.668524" lon="94.716487">
<time>2016-10-08T01:47:23Z</time></trkpt>
<trkpt lat="29.668484" lon="94.716697">
<time>2016-10-08T01:47:24Z</time></trkpt>
<trkpt lat="29.668423" lon="94.716916">
<time>2016-10-08T01:47:25Z</time></trkpt>
<trkpt lat="29.668343" lon="94.717136">
<time>2016-10-08T01:47:26Z</time></trkpt>
<trkpt lat="29.668263" lon="94.717326">
<time>2016-10-08T01:47:27Z</time></trkpt>
<trkpt lat="29.668083" lon="94.717596">
<time>2016-10-08T01:47:28Z</time></trkpt>
<trkpt lat="29.667902" lon="94.717835">
<time>2016-10-08T01:47:29Z</time></trkpt>
<trkpt lat="29.667542" lon="94.718315">
<time>2016-10-08T01:47:30Z</time></trkpt>
<trkpt lat="29.667031" lon="94.719004">
<time>2016-10-08T01:47:31Z</time></trkpt>
<trkpt lat="29.666691" lon="94.719403">
<time>2016-10-08T01:47:32Z</time></trkpt>
<trkpt lat="29.666431" lon="94.719713">
<time>2016-10-08T01:47:33Z</time></trkpt>
<trkpt lat="29.666301" lon="94.719873">
<time>2016-10-08T01:47:34Z</time></trkpt>
<trkpt lat="29.66577" lon="94.720582">
<time>2016-10-08T01:47:35Z</time></trkpt>
<trkpt lat="29.6655" lon="94.720951">
<time>2016-10-08T01:47:36Z</time></trkpt>
<trkpt lat="29.665179" lon="94.721371">
<time>2016-10-08T01:47:37Z</time></trkpt>
<trkpt lat="29.665129" lon="94.721441">
<time>2016-10-08T01:47:38Z</time></trkpt>
<trkpt lat="29.664999" lon="94.721591">
<time>2016-10-08T01:47:39Z</time></trkpt>
<trkpt lat="29.664909" lon="94.72169">
<time>2016-10-08T01:47:40Z</time></trkpt>
<trkpt lat="29.664779" lon="94.72181">
<time>2016-10-08T01:47:41Z</time></trkpt>
<trkpt lat="29.664709" lon="94.72187">
<time>2016-10-08T01:47:42Z</time></trkpt>
<trkpt lat="29.664579" lon="94.72196">
<time>2016-10-08T01:47:43Z</time></trkpt>
<trkpt lat="29.664509" lon="94.72201">
<time>2016-10-08T01:47:44Z</time></trkpt>
<trkpt lat="29.664319" lon="94.72211">
<time>2016-10-08T01:47:45Z</time></trkpt>
<trkpt lat="29.664039" lon="94.72226">
<time>2016-10-08T01:47:46Z</time></trkpt>
<trkpt lat="29.663628" lon="94.722489">
<time>2016-10-08T01:47:47Z</time></trkpt>
<trkpt lat="29.663478" lon="94.722569">
<time>2016-10-08T01:47:48Z</time></trkpt>
<trkpt lat="29.663338" lon="94.722629">
<time>2016-10-08T01:47:49Z</time></trkpt>
<trkpt lat="29.663248" lon="94.722669">
<time>2016-10-08T01:47:50Z</time></trkpt>
<trkpt lat="29.663168" lon="94.722689">
<time>2016-10-08T01:47:51Z</time></trkpt>
<trkpt lat="29.663068" lon="94.722699">
<time>2016-10-08T01:47:52Z</time></trkpt>
<trkpt lat="29.662788" lon="94.722689">
<time>2016-10-08T01:47:53Z</time></trkpt>
<trkpt lat="29.662608" lon="94.722709">
<time>2016-10-08T01:47:54Z</time></trkpt>
<trkpt lat="29.662528" lon="94.722719">
<time>2016-10-08T01:47:55Z</time></trkpt>
<trkpt lat="29.662488" lon="94.722729">
<time>2016-10-08T01:47:56Z</time></trkpt>
<trkpt lat="29.662408" lon="94.722739">
<time>2016-10-08T01:47:57Z</time></trkpt>
<trkpt lat="29.662348" lon="94.722769">
<time>2016-10-08T01:47:58Z</time></trkpt>
<trkpt lat="29.662268" lon="94.722809">
<time>2016-10-08T01:47:59Z</time></trkpt>
<trkpt lat="29.662188" lon="94.722849">
<time>2016-10-08T01:48:00Z</time></trkpt>
<trkpt lat="29.662028" lon="94.722939">
<time>2016-10-08T01:48:01Z</time></trkpt>
<trkpt lat="29.661908" lon="94.723009">
<time>2016-10-08T01:48:02Z</time></trkpt>
<trkpt lat="29.661798" lon="94.723069">
<time>2016-10-08T01:48:03Z</time></trkpt>
<trkpt lat="29.661668" lon="94.723139">
<time>2016-10-08T01:48:04Z</time></trkpt>
<trkpt lat="29.661598" lon="94.723169">
<time>2016-10-08T01:48:05Z</time></trkpt>
<trkpt lat="29.661508" lon="94.723189">
<time>2016-10-08T01:48:06Z</time></trkpt>
<trkpt lat="29.661398" lon="94.723219">
<time>2016-10-08T01:48:07Z</time></trkpt>
<trkpt lat="29.661178" lon="94.723259">
<time>2016-10-08T01:48:08Z</time></trkpt>
<trkpt lat="29.661098" lon="94.723279">
<time>2016-10-08T01:48:09Z</time></trkpt>
<trkpt lat="29.661018" lon="94.723299">
<time>2016-10-08T01:48:10Z</time></trkpt>
<trkpt lat="29.660948" lon="94.723319">
<time>2016-10-08T01:48:11Z</time></trkpt>
<trkpt lat="29.660898" lon="94.723339">
<time>2016-10-08T01:48:12Z</time></trkpt>
<trkpt lat="29.660828" lon="94.723369">
<time>2016-10-08T01:48:13Z</time></trkpt>
<trkpt lat="29.660768" lon="94.723408">
<time>2016-10-08T01:48:14Z</time></trkpt>
<trkpt lat="29.660698" lon="94.723458">
<time>2016-10-08T01:48:15Z</time></trkpt>
<trkpt lat="29.660618" lon="94.723528">
<time>2016-10-08T01:48:16Z</time></trkpt>
<trkpt lat="29.660528" lon="94.723628">
<time>2016-10-08T01:48:17Z</time></trkpt>
<trkpt lat="29.660308" lon="94.723878">
<time>2016-10-08T01:48:18Z</time></trkpt>
<trkpt lat="29.660098" lon="94.724128">
<time>2016-10-08T01:48:19Z</time></trkpt>
<trkpt lat="29.660018" lon="94.724208">
<time>2016-10-08T01:48:20Z</time></trkpt>
<trkpt lat="29.659938" lon="94.724288">
<time>2016-10-08T01:48:21Z</time></trkpt>
<trkpt lat="29.659838" lon="94.724377">
<time>2016-10-08T01:48:22Z</time></trkpt>
<trkpt lat="29.659778" lon="94.724407">
<time>2016-10-08T01:48:23Z</time></trkpt>
<trkpt lat="29.659717" lon="94.724437">
<time>2016-10-08T01:48:24Z</time></trkpt>
<trkpt lat="29.659658" lon="94.724447">
<time>2016-10-08T01:48:25Z</time></trkpt>
<trkpt lat="29.659578" lon="94.724457">
<time>2016-10-08T01:48:26Z</time></trkpt>
<trkpt lat="29.659518" lon="94.724447">
<time>2016-10-08T01:48:27Z</time></trkpt>
<trkpt lat="29.659398" lon="94.724437">
<time>2016-10-08T01:48:28Z</time></trkpt>
<trkpt lat="29.659298" lon="94.724407">
<time>2016-10-08T01:48:29Z</time></trkpt>
<trkpt lat="29.659208" lon="94.724377">
<time>2016-10-08T01:48:30Z</time></trkpt>
<trkpt lat="29.659108" lon="94.724338">
<time>2016-10-08T01:48:31Z</time></trkpt>
<trkpt lat="29.659018" lon="94.724288">
<time>2016-10-08T01:48:32Z</time></trkpt>
<trkpt lat="29.658908" lon="94.724218">
<time>2016-10-08T01:48:33Z</time></trkpt>
<trkpt lat="29.658828" lon="94.724158">
<time>2016-10-08T01:48:34Z</time></trkpt>
<trkpt lat="29.658708" lon="94.724098">
<time>2016-10-08T01:48:35Z</time></trkpt>
<trkpt lat="29.658648" lon="94.724058">
<time>2016-10-08T01:48:36Z</time></trkpt>
<trkpt lat="29.658598" lon="94.724038">
<time>2016-10-08T01:48:37Z</time></trkpt>
<trkpt lat="29.658548" lon="94.724028">
<time>2016-10-08T01:48:38Z</time></trkpt>
<trkpt lat="29.658488" lon="94.724018">
<time>2016-10-08T01:48:39Z</time></trkpt>
<trkpt lat="29.658438" lon="94.724018">
<time>2016-10-08T01:48:40Z</time></trkpt>
<trkpt lat="29.658368" lon="94.724028">
<time>2016-10-08T01:48:41Z</time></trkpt>
<trkpt lat="29.658318" lon="94.724038">
<time>2016-10-08T01:48:42Z</time></trkpt>
<trkpt lat="29.658228" lon="94.724098">
<time>2016-10-08T01:48:43Z</time></trkpt>
<trkpt lat="29.658138" lon="94.724168">
<time>2016-10-08T01:48:44Z</time></trkpt>
<trkpt lat="29.657978" lon="94.724308">
<time>2016-10-08T01:48:45Z</time></trkpt>
<trkpt lat="29.657898" lon="94.724377">
<time>2016-10-08T01:48:46Z</time></trkpt>
<trkpt lat="29.657828" lon="94.724437">
<time>2016-10-08T01:48:47Z</time></trkpt>
<trkpt lat="29.657758" lon="94.724487">
<time>2016-10-08T01:48:48Z</time></trkpt>
<trkpt lat="29.657698" lon="94.724517">
<time>2016-10-08T01:48:49Z</time></trkpt>
<trkpt lat="29.657638" lon="94.724527">
<time>2016-10-08T01:48:50Z</time></trkpt>
<trkpt lat="29.657598" lon="94.724537">
<time>2016-10-08T01:48:51Z</time></trkpt>
<trkpt lat="29.657538" lon="94.724547">
<time>2016-10-08T01:48:52Z</time></trkpt>
<trkpt lat="29.657488" lon="94.724537">
<time>2016-10-08T01:48:53Z</time></trkpt>
<trkpt lat="29.657438" lon="94.724517">
<time>2016-10-08T01:48:54Z</time></trkpt>
<trkpt lat="29.657408" lon="94.724497">
<time>2016-10-08T01:48:55Z</time></trkpt>
<trkpt lat="29.657368" lon="94.724457">
<time>2016-10-08T01:48:56Z</time></trkpt>
<trkpt lat="29.657338" lon="94.724417">
<time>2016-10-08T01:48:57Z</time></trkpt>
<trkpt lat="29.657318" lon="94.724368">
<time>2016-10-08T01:48:58Z</time></trkpt>
<trkpt lat="29.657288" lon="94.724278">
<time>2016-10-08T01:48:59Z</time></trkpt>
<trkpt lat="29.657278" lon="94.724228">
<time>2016-10-08T01:49:00Z</time></trkpt>
<trkpt lat="29.657268" lon="94.724168">
<time>2016-10-08T01:49:01Z</time></trkpt>
<trkpt lat="29.657268" lon="94.724098">
<time>2016-10-08T01:49:02Z</time></trkpt>
<trkpt lat="29.657278" lon="94.724018">
<time>2016-10-08T01:49:03Z</time></trkpt>
<trkpt lat="29.657299" lon="94.723908">
<time>2016-10-08T01:49:04Z</time></trkpt>
<trkpt lat="29.657319" lon="94.723768">
<time>2016-10-08T01:49:05Z</time></trkpt>
<trkpt lat="29.657319" lon="94.723688">
<time>2016-10-08T01:49:06Z</time></trkpt>
<trkpt lat="29.657329" lon="94.723598">
<time>2016-10-08T01:49:07Z</time></trkpt>
<trkpt lat="29.657329" lon="94.723498">
<time>2016-10-08T01:49:08Z</time></trkpt>
<trkpt lat="29.657329" lon="94.723399">
<time>2016-10-08T01:49:09Z</time></trkpt>
<trkpt lat="29.657309" lon="94.723319">
<time>2016-10-08T01:49:10Z</time></trkpt>
<trkpt lat="29.657279" lon="94.723209">
<time>2016-10-08T01:49:11Z</time></trkpt>
<trkpt lat="29.657229" lon="94.723079">
<time>2016-10-08T01:49:12Z</time></trkpt>
<trkpt lat="29.65715" lon="94.722869">
<time>2016-10-08T01:49:13Z</time></trkpt>
<trkpt lat="29.65705" lon="94.722619">
<time>2016-10-08T01:49:14Z</time></trkpt>
<trkpt lat="29.65694" lon="94.72237">
<time>2016-10-08T01:49:15Z</time></trkpt>
<trkpt lat="29.65689" lon="94.72226">
<time>2016-10-08T01:49:16Z</time></trkpt>
<trkpt lat="29.65682" lon="94.72207">
<time>2016-10-08T01:49:17Z</time></trkpt>
<trkpt lat="29.656801" lon="94.72197">
<time>2016-10-08T01:49:18Z</time></trkpt>
<trkpt lat="29.656771" lon="94.72183">
<time>2016-10-08T01:49:19Z</time></trkpt>
<trkpt lat="29.656761" lon="94.721741">
<time>2016-10-08T01:49:20Z</time></trkpt>
<trkpt lat="29.656741" lon="94.721611">
<time>2016-10-08T01:49:21Z</time></trkpt>
<trkpt lat="29.656721" lon="94.721401">
<time>2016-10-08T01:49:22Z</time></trkpt>
<trkpt lat="29.656701" lon="94.721051">
<time>2016-10-08T01:49:23Z</time></trkpt>
<trkpt lat="29.656662" lon="94.720752">
<time>2016-10-08T01:49:24Z</time></trkpt>
<trkpt lat="29.656622" lon="94.720592">
<time>2016-10-08T01:49:25Z</time></trkpt>
<trkpt lat="29.656582" lon="94.720432">
<time>2016-10-08T01:49:26Z</time></trkpt>
<trkpt lat="29.656552" lon="94.720322">
<time>2016-10-08T01:49:27Z</time></trkpt>
<trkpt lat="29.656502" lon="94.720212">
<time>2016-10-08T01:49:28Z</time></trkpt>
<trkpt lat="29.656423" lon="94.720112">
<time>2016-10-08T01:49:29Z</time></trkpt>
<trkpt lat="29.656353" lon="94.720033">
<time>2016-10-08T01:49:30Z</time></trkpt>
<trkpt lat="29.656273" lon="94.719963">
<time>2016-10-08T01:49:31Z</time></trkpt>
<trkpt lat="29.656163" lon="94.719883">
<time>2016-10-08T01:49:32Z</time></trkpt>
<trkpt lat="29.656093" lon="94.719833">
<time>2016-10-08T01:49:33Z</time></trkpt>
<trkpt lat="29.655673" lon="94.719553">
<time>2016-10-08T01:49:34Z</time></trkpt>
<trkpt lat="29.655453" lon="94.719403">
<time>2016-10-08T01:49:35Z</time></trkpt>
<trkpt lat="29.655194" lon="94.719244">
<time>2016-10-08T01:49:36Z</time></trkpt>
<trkpt lat="29.655034" lon="94.719154">
<time>2016-10-08T01:49:37Z</time></trkpt>
<trkpt lat="29.654964" lon="94.719114">
<time>2016-10-08T01:49:38Z</time></trkpt>
<trkpt lat="29.654854" lon="94.719034">
<time>2016-10-08T01:49:39Z</time></trkpt>
<trkpt lat="29.654804" lon="94.718984">
<time>2016-10-08T01:49:40Z</time></trkpt>
<trkpt lat="29.654734" lon="94.718914">
<time>2016-10-08T01:49:41Z</time></trkpt>
<trkpt lat="29.654704" lon="94.718854">
<time>2016-10-08T01:49:42Z</time></trkpt>
<trkpt lat="29.654654" lon="94.718774">
<time>2016-10-08T01:49:43Z</time></trkpt>
<trkpt lat="29.654585" lon="94.718614">
<time>2016-10-08T01:49:44Z</time></trkpt>
<trkpt lat="29.654515" lon="94.718475">
<time>2016-10-08T01:49:45Z</time></trkpt>
<trkpt lat="29.654445" lon="94.718345">
<time>2016-10-08T01:49:46Z</time></trkpt>
<trkpt lat="29.654385" lon="94.718245">
<time>2016-10-08T01:49:47Z</time></trkpt>
<trkpt lat="29.654305" lon="94.718145">
<time>2016-10-08T01:49:48Z</time></trkpt>
<trkpt lat="29.654215" lon="94.718045">
<time>2016-10-08T01:49:49Z</time></trkpt>
<trkpt lat="29.654075" lon="94.717915">
<time>2016-10-08T01:49:50Z</time></trkpt>
<trkpt lat="29.653776" lon="94.717686">
<time>2016-10-08T01:49:51Z</time></trkpt>
<trkpt lat="29.653576" lon="94.717536">
<time>2016-10-08T01:49:52Z</time></trkpt>
<trkpt lat="29.653486" lon="94.717466">
<time>2016-10-08T01:49:53Z</time></trkpt>
<trkpt lat="29.653356" lon="94.717346">
<time>2016-10-08T01:49:54Z</time></trkpt>
<trkpt lat="29.653177" lon="94.717146">
<time>2016-10-08T01:49:55Z</time></trkpt>
<trkpt lat="29.653097" lon="94.717057">
<time>2016-10-08T01:49:56Z</time></trkpt>
<trkpt lat="29.652977" lon="94.716907">
<time>2016-10-08T01:49:57Z</time></trkpt>
<trkpt lat="29.652857" lon="94.716787">
<time>2016-10-08T01:49:58Z</time></trkpt>
<trkpt lat="29.652727" lon="94.716687">
<time>2016-10-08T01:49:59Z</time></trkpt>
<trkpt lat="29.652607" lon="94.716597">
<time>2016-10-08T01:50:00Z</time></trkpt>
<trkpt lat="29.652477" lon="94.716497">
<time>2016-10-08T01:50:01Z</time></trkpt>
<trkpt lat="29.652408" lon="94.716447">
<time>2016-10-08T01:50:02Z</time></trkpt>
<trkpt lat="29.652358" lon="94.716377">
<time>2016-10-08T01:50:03Z</time></trkpt>
<trkpt lat="29.652328" lon="94.716328">
<time>2016-10-08T01:50:04Z</time></trkpt>
<trkpt lat="29.652298" lon="94.716268">
<time>2016-10-08T01:50:05Z</time></trkpt>
<trkpt lat="29.652258" lon="94.716168">
<time>2016-10-08T01:50:06Z</time></trkpt>
<trkpt lat="29.652228" lon="94.716068">
<time>2016-10-08T01:50:07Z</time></trkpt>
<trkpt lat="29.652198" lon="94.715928">
<time>2016-10-08T01:50:08Z</time></trkpt>
<trkpt lat="29.652138" lon="94.715718">
<time>2016-10-08T01:50:09Z</time></trkpt>
<trkpt lat="29.652089" lon="94.715559">
<time>2016-10-08T01:50:10Z</time></trkpt>
<trkpt lat="29.652029" lon="94.715399">
<time>2016-10-08T01:50:11Z</time></trkpt>
<trkpt lat="29.651969" lon="94.715289">
<time>2016-10-08T01:50:12Z</time></trkpt>
<trkpt lat="29.651859" lon="94.715089">
<time>2016-10-08T01:50:13Z</time></trkpt>
<trkpt lat="29.651789" lon="94.714959">
<time>2016-10-08T01:50:14Z</time></trkpt>
<trkpt lat="29.65172" lon="94.71485">
<time>2016-10-08T01:50:15Z</time></trkpt>
<trkpt lat="29.65164" lon="94.71472">
<time>2016-10-08T01:50:16Z</time></trkpt>
<trkpt lat="29.65156" lon="94.71461">
<time>2016-10-08T01:50:17Z</time></trkpt>
<trkpt lat="29.65142" lon="94.71447">
<time>2016-10-08T01:50:18Z</time></trkpt>
<trkpt lat="29.6513" lon="94.71434">
<time>2016-10-08T01:50:19Z</time></trkpt>
<trkpt lat="29.650951" lon="94.714041">
<time>2016-10-08T01:50:20Z</time></trkpt>
<trkpt lat="29.650551" lon="94.713691">
<time>2016-10-08T01:50:21Z</time></trkpt>
<trkpt lat="29.650272" lon="94.713432">
<time>2016-10-08T01:50:22Z</time></trkpt>
<trkpt lat="29.650072" lon="94.713272">
<time>2016-10-08T01:50:23Z</time></trkpt>
<trkpt lat="29.649802" lon="94.713092">
<time>2016-10-08T01:50:24Z</time></trkpt>
<trkpt lat="29.649702" lon="94.713022">
<time>2016-10-08T01:50:25Z</time></trkpt>
<trkpt lat="29.649612" lon="94.712932">
<time>2016-10-08T01:50:26Z</time></trkpt>
<trkpt lat="29.649563" lon="94.712873">
<time>2016-10-08T01:50:27Z</time></trkpt>
<trkpt lat="29.649503" lon="94.712783">
<time>2016-10-08T01:50:28Z</time></trkpt>
<trkpt lat="29.649473" lon="94.712713">
<time>2016-10-08T01:50:29Z</time></trkpt>
<trkpt lat="29.649433" lon="94.712623">
<time>2016-10-08T01:50:30Z</time></trkpt>
<trkpt lat="29.649393" lon="94.712513">
<time>2016-10-08T01:50:31Z</time></trkpt>
<trkpt lat="29.649373" lon="94.712413">
<time>2016-10-08T01:50:32Z</time></trkpt>
<trkpt lat="29.649343" lon="94.712313">
<time>2016-10-08T01:50:33Z</time></trkpt>
<trkpt lat="29.649324" lon="94.712174">
<time>2016-10-08T01:50:34Z</time></trkpt>
<trkpt lat="29.649304" lon="94.712034">
<time>2016-10-08T01:50:35Z</time></trkpt>
<trkpt lat="29.649274" lon="94.711884">
<time>2016-10-08T01:50:36Z</time></trkpt>
<trkpt lat="29.649254" lon="94.711764">
<time>2016-10-08T01:50:37Z</time></trkpt>
<trkpt lat="29.649234" lon="94.711664">
<time>2016-10-08T01:50:38Z</time></trkpt>
<trkpt lat="29.649204" lon="94.711575">
<time>2016-10-08T01:50:39Z</time></trkpt>
<trkpt lat="29.649165" lon="94.711445">
<time>2016-10-08T01:50:40Z</time></trkpt>
<trkpt lat="29.648985" lon="94.711035">
<time>2016-10-08T01:50:41Z</time></trkpt>
<trkpt lat="29.648786" lon="94.710556">
<time>2016-10-08T01:50:42Z</time></trkpt>
<trkpt lat="29.648726" lon="94.710426">
<time>2016-10-08T01:50:43Z</time></trkpt>
<trkpt lat="29.648686" lon="94.710356">
<time>2016-10-08T01:50:44Z</time></trkpt>
<trkpt lat="29.648646" lon="94.710297">
<time>2016-10-08T01:50:45Z</time></trkpt>
<trkpt lat="29.648586" lon="94.710217">
<time>2016-10-08T01:50:46Z</time></trkpt>
<trkpt lat="29.648496" lon="94.710117">
<time>2016-10-08T01:50:47Z</time></trkpt>
<trkpt lat="29.648397" lon="94.710017">
<time>2016-10-08T01:50:48Z</time></trkpt>
<trkpt lat="29.648317" lon="94.709927">
<time>2016-10-08T01:50:49Z</time></trkpt>
<trkpt lat="29.648257" lon="94.709827">
<time>2016-10-08T01:50:50Z</time></trkpt>
<trkpt lat="29.648217" lon="94.709737">
<time>2016-10-08T01:50:51Z</time></trkpt>
<trkpt lat="29.648187" lon="94.709668">
<time>2016-10-08T01:50:52Z</time></trkpt>
<trkpt lat="29.648167" lon="94.709588">
<time>2016-10-08T01:50:53Z</time></trkpt>
<trkpt lat="29.648157" lon="94.709488">
<time>2016-10-08T01:50:54Z</time></trkpt>
<trkpt lat="29.648148" lon="94.709388">
<time>2016-10-08T01:50:55Z</time></trkpt>
<trkpt lat="29.648138" lon="94.709298">
<time>2016-10-08T01:50:56Z</time></trkpt>
<trkpt lat="29.648118" lon="94.709208">
<time>2016-10-08T01:50:57Z</time></trkpt>
<trkpt lat="29.648098" lon="94.709148">
<time>2016-10-08T01:50:58Z</time></trkpt>
<trkpt lat="29.648078" lon="94.709108">
<time>2016-10-08T01:50:59Z</time></trkpt>
<trkpt lat="29.648048" lon="94.709039">
<time>2016-10-08T01:51:00Z</time></trkpt>
<trkpt lat="29.648018" lon="94.708979">
<time>2016-10-08T01:51:01Z</time></trkpt>
<trkpt lat="29.647958" lon="94.708919">
<time>2016-10-08T01:51:02Z</time></trkpt>
<trkpt lat="29.647908" lon="94.708869">
<time>2016-10-08T01:51:03Z</time></trkpt>
<trkpt lat="29.647828" lon="94.708809">
<time>2016-10-08T01:51:04Z</time></trkpt>
<trkpt lat="29.647689" lon="94.708719">
<time>2016-10-08T01:51:05Z</time></trkpt>
<trkpt lat="29.647449" lon="94.708589">
<time>2016-10-08T01:51:06Z</time></trkpt>
<trkpt lat="29.647319" lon="94.708519">
<time>2016-10-08T01:51:07Z</time></trkpt>
<trkpt lat="29.647179" lon="94.70843">
<time>2016-10-08T01:51:08Z</time></trkpt>
<trkpt lat="29.647099" lon="94.70836">
<time>2016-10-08T01:51:09Z</time></trkpt>
<trkpt lat="29.646989" lon="94.70827">
<time>2016-10-08T01:51:10Z</time></trkpt>
<trkpt lat="29.646919" lon="94.70819">
<time>2016-10-08T01:51:11Z</time></trkpt>
<trkpt lat="29.64686" lon="94.70811">
<time>2016-10-08T01:51:12Z</time></trkpt>
<trkpt lat="29.64679" lon="94.70801">
<time>2016-10-08T01:51:13Z</time></trkpt>
<trkpt lat="29.64672" lon="94.70788">
<time>2016-10-08T01:51:14Z</time></trkpt>
<trkpt lat="29.64667" lon="94.707771">
<time>2016-10-08T01:51:15Z</time></trkpt>
<trkpt lat="29.64663" lon="94.707651">
<time>2016-10-08T01:51:16Z</time></trkpt>
<trkpt lat="29.646581" lon="94.707451">
<time>2016-10-08T01:51:17Z</time></trkpt>
<trkpt lat="29.646561" lon="94.707351">
<time>2016-10-08T01:51:18Z</time></trkpt>
<trkpt lat="29.646541" lon="94.707222">
<time>2016-10-08T01:51:19Z</time></trkpt>
<trkpt lat="29.646531" lon="94.707082">
<time>2016-10-08T01:51:20Z</time></trkpt>
<trkpt lat="29.646541" lon="94.706982">
<time>2016-10-08T01:51:21Z</time></trkpt>
<trkpt lat="29.646541" lon="94.706902">
<time>2016-10-08T01:51:22Z</time></trkpt>
<trkpt lat="29.646552" lon="94.706772">
<time>2016-10-08T01:51:23Z</time></trkpt>
<trkpt lat="29.646572" lon="94.706642">
<time>2016-10-08T01:51:24Z</time></trkpt>
<trkpt lat="29.646602" lon="94.706533">
<time>2016-10-08T01:51:25Z</time></trkpt>
<trkpt lat="29.646652" lon="94.706293">
<time>2016-10-08T01:51:26Z</time></trkpt>
<trkpt lat="29.646683" lon="94.706123">
<time>2016-10-08T01:51:27Z</time></trkpt>
<trkpt lat="29.646733" lon="94.705894">
<time>2016-10-08T01:51:28Z</time></trkpt>
<trkpt lat="29.646763" lon="94.705784">
<time>2016-10-08T01:51:29Z</time></trkpt>
<trkpt lat="29.646773" lon="94.705724">
<time>2016-10-08T01:51:30Z</time></trkpt>
<trkpt lat="29.646783" lon="94.705654">
<time>2016-10-08T01:51:31Z</time></trkpt>
<trkpt lat="29.646783" lon="94.705574">
<time>2016-10-08T01:51:32Z</time></trkpt>
<trkpt lat="29.646773" lon="94.705494">
<time>2016-10-08T01:51:33Z</time></trkpt>
<trkpt lat="29.646754" lon="94.705405">
<time>2016-10-08T01:51:34Z</time></trkpt>
<trkpt lat="29.646724" lon="94.705335">
<time>2016-10-08T01:51:35Z</time></trkpt>
<trkpt lat="29.646684" lon="94.705255">
<time>2016-10-08T01:51:36Z</time></trkpt>
<trkpt lat="29.646634" lon="94.705175">
<time>2016-10-08T01:51:37Z</time></trkpt>
<trkpt lat="29.646534" lon="94.705035">
<time>2016-10-08T01:51:38Z</time></trkpt>
<trkpt lat="29.646394" lon="94.704846">
<time>2016-10-08T01:51:39Z</time></trkpt>
<trkpt lat="29.646285" lon="94.704686">
<time>2016-10-08T01:51:40Z</time></trkpt>
<trkpt lat="29.646145" lon="94.704496">
<time>2016-10-08T01:51:41Z</time></trkpt>
<trkpt lat="29.646065" lon="94.704376">
<time>2016-10-08T01:51:42Z</time></trkpt>
<trkpt lat="29.645985" lon="94.704247">
<time>2016-10-08T01:51:43Z</time></trkpt>
<trkpt lat="29.645936" lon="94.704157">
<time>2016-10-08T01:51:44Z</time></trkpt>
<trkpt lat="29.645906" lon="94.704087">
<time>2016-10-08T01:51:45Z</time></trkpt>
<trkpt lat="29.645866" lon="94.703977">
<time>2016-10-08T01:51:46Z</time></trkpt>
<trkpt lat="29.645836" lon="94.703847">
<time>2016-10-08T01:51:47Z</time></trkpt>
<trkpt lat="29.645806" lon="94.703698">
<time>2016-10-08T01:51:48Z</time></trkpt>
<trkpt lat="29.645787" lon="94.703558">
<time>2016-10-08T01:51:49Z</time></trkpt>
<trkpt lat="29.645767" lon="94.703438">
<time>2016-10-08T01:51:50Z</time></trkpt>
<trkpt lat="29.645747" lon="94.703308">
<time>2016-10-08T01:51:51Z</time></trkpt>
<trkpt lat="29.645717" lon="94.703169">
<time>2016-10-08T01:51:52Z</time></trkpt>
<trkpt lat="29.645687" lon="94.703089">
<time>2016-10-08T01:51:53Z</time></trkpt>
<trkpt lat="29.645647" lon="94.703009">
<time>2016-10-08T01:51:54Z</time></trkpt>
<trkpt lat="29.645608" lon="94.702929">
<time>2016-10-08T01:51:55Z</time></trkpt>
<trkpt lat="29.645538" lon="94.702829">
<time>2016-10-08T01:51:56Z</time></trkpt>
<trkpt lat="29.645498" lon="94.702769">
<time>2016-10-08T01:51:57Z</time></trkpt>
<trkpt lat="29.645358" lon="94.70261">
<time>2016-10-08T01:51:58Z</time></trkpt>
<trkpt lat="29.645278" lon="94.7025">
<time>2016-10-08T01:51:59Z</time></trkpt>
<trkpt lat="29.645218" lon="94.70243">
<time>2016-10-08T01:52:00Z</time></trkpt>
<trkpt lat="29.645159" lon="94.70233">
<time>2016-10-08T01:52:01Z</time></trkpt>
<trkpt lat="29.645099" lon="94.70223">
<time>2016-10-08T01:52:02Z</time></trkpt>
<trkpt lat="29.644999" lon="94.702031">
<time>2016-10-08T01:52:03Z</time></trkpt>
<trkpt lat="29.64489" lon="94.701781">
<time>2016-10-08T01:52:04Z</time></trkpt>
<trkpt lat="29.64478" lon="94.701541">
<time>2016-10-08T01:52:05Z</time></trkpt>
<trkpt lat="29.6447" lon="94.701352">
<time>2016-10-08T01:52:06Z</time></trkpt>
<trkpt lat="29.64464" lon="94.701242">
<time>2016-10-08T01:52:07Z</time></trkpt>
<trkpt lat="29.644591" lon="94.701152">
<time>2016-10-08T01:52:08Z</time></trkpt>
<trkpt lat="29.644551" lon="94.701082">
<time>2016-10-08T01:52:09Z</time></trkpt>
<trkpt lat="29.644511" lon="94.701032">
<time>2016-10-08T01:52:10Z</time></trkpt>
<trkpt lat="29.644421" lon="94.700933">
<time>2016-10-08T01:52:11Z</time></trkpt>
<trkpt lat="29.644201" lon="94.700693">
<time>2016-10-08T01:52:12Z</time></trkpt>
<trkpt lat="29.644092" lon="94.700573">
<time>2016-10-08T01:52:13Z</time></trkpt>
<trkpt lat="29.643972" lon="94.700433">
<time>2016-10-08T01:52:14Z</time></trkpt>
<trkpt lat="29.643912" lon="94.700344">
<time>2016-10-08T01:52:15Z</time></trkpt>
<trkpt lat="29.643832" lon="94.700224">
<time>2016-10-08T01:52:16Z</time></trkpt>
<trkpt lat="29.643693" lon="94.699984">
<time>2016-10-08T01:52:17Z</time></trkpt>
<trkpt lat="29.643613" lon="94.699845">
<time>2016-10-08T01:52:18Z</time></trkpt>
<trkpt lat="29.643483" lon="94.699645">
<time>2016-10-08T01:52:19Z</time></trkpt>
<trkpt lat="29.643384" lon="94.699435">
<time>2016-10-08T01:52:20Z</time></trkpt>
<trkpt lat="29.643284" lon="94.699226">
<time>2016-10-08T01:52:21Z</time></trkpt>
<trkpt lat="29.643194" lon="94.699016">
<time>2016-10-08T01:52:22Z</time></trkpt>
<trkpt lat="29.643115" lon="94.698876">
<time>2016-10-08T01:52:23Z</time></trkpt>
<trkpt lat="29.643005" lon="94.698687">
<time>2016-10-08T01:52:24Z</time></trkpt>
<trkpt lat="29.642905" lon="94.698537">
<time>2016-10-08T01:52:25Z</time></trkpt>
<trkpt lat="29.642736" lon="94.698297">
<time>2016-10-08T01:52:26Z</time></trkpt>
<trkpt lat="29.642646" lon="94.698158">
<time>2016-10-08T01:52:27Z</time></trkpt>
<trkpt lat="29.642516" lon="94.697978">
<time>2016-10-08T01:52:28Z</time></trkpt>
<trkpt lat="29.642416" lon="94.697808">
<time>2016-10-08T01:52:29Z</time></trkpt>
<trkpt lat="29.642317" lon="94.697679">
<time>2016-10-08T01:52:30Z</time></trkpt>
<trkpt lat="29.642247" lon="94.697579">
<time>2016-10-08T01:52:31Z</time></trkpt>
<trkpt lat="29.642197" lon="94.697519">
<time>2016-10-08T01:52:32Z</time></trkpt>
<trkpt lat="29.642147" lon="94.697469">
<time>2016-10-08T01:52:33Z</time></trkpt>
<trkpt lat="29.642107" lon="94.697439">
<time>2016-10-08T01:52:34Z</time></trkpt>
<trkpt lat="29.642067" lon="94.697419">
<time>2016-10-08T01:52:35Z</time></trkpt>
<trkpt lat="29.641997" lon="94.697399">
<time>2016-10-08T01:52:36Z</time></trkpt>
<trkpt lat="29.641947" lon="94.697399">
<time>2016-10-08T01:52:37Z</time></trkpt>
<trkpt lat="29.641877" lon="94.697399">
<time>2016-10-08T01:52:38Z</time></trkpt>
<trkpt lat="29.641807" lon="94.697419">
<time>2016-10-08T01:52:39Z</time></trkpt>
<trkpt lat="29.641777" lon="94.697449">
<time>2016-10-08T01:52:40Z</time></trkpt>
<trkpt lat="29.641727" lon="94.697489">
<time>2016-10-08T01:52:41Z</time></trkpt>
<trkpt lat="29.641667" lon="94.697549">
<time>2016-10-08T01:52:42Z</time></trkpt>
<trkpt lat="29.641647" lon="94.697599">
<time>2016-10-08T01:52:43Z</time></trkpt>
<trkpt lat="29.641607" lon="94.697679">
<time>2016-10-08T01:52:44Z</time></trkpt>
<trkpt lat="29.641577" lon="94.697759">
<time>2016-10-08T01:52:45Z</time></trkpt>
<trkpt lat="29.641547" lon="94.697838">
<time>2016-10-08T01:52:46Z</time></trkpt>
<trkpt lat="29.641517" lon="94.697928">
<time>2016-10-08T01:52:47Z</time></trkpt>
<trkpt lat="29.641496" lon="94.698028">
<time>2016-10-08T01:52:48Z</time></trkpt>
<trkpt lat="29.641486" lon="94.698118">
<time>2016-10-08T01:52:49Z</time></trkpt>
<trkpt lat="29.641496" lon="94.698198">
<time>2016-10-08T01:52:50Z</time></trkpt>
<trkpt lat="29.641496" lon="94.698268">
<time>2016-10-08T01:52:51Z</time></trkpt>
<trkpt lat="29.641516" lon="94.698377">
<time>2016-10-08T01:52:52Z</time></trkpt>
<trkpt lat="29.641556" lon="94.698517">
<time>2016-10-08T01:52:53Z</time></trkpt>
<trkpt lat="29.641585" lon="94.698657">
<time>2016-10-08T01:52:54Z</time></trkpt>
<trkpt lat="29.641625" lon="94.698837">
<time>2016-10-08T01:52:55Z</time></trkpt>
<trkpt lat="29.641635" lon="94.698926">
<time>2016-10-08T01:52:56Z</time></trkpt>
<trkpt lat="29.641645" lon="94.699026">
<time>2016-10-08T01:52:57Z</time></trkpt>
<trkpt lat="29.641654" lon="94.699156">
<time>2016-10-08T01:52:58Z</time></trkpt>
<trkpt lat="29.641654" lon="94.699356">
<time>2016-10-08T01:52:59Z</time></trkpt>
<trkpt lat="29.641654" lon="94.699635">
<time>2016-10-08T01:53:00Z</time></trkpt>
<trkpt lat="29.641643" lon="94.700354">
<time>2016-10-08T01:53:01Z</time></trkpt>
<trkpt lat="29.641632" lon="94.701012">
<time>2016-10-08T01:53:02Z</time></trkpt>
<trkpt lat="29.64162" lon="94.701681">
<time>2016-10-08T01:53:03Z</time></trkpt>
<trkpt lat="29.64163" lon="94.702011">
<time>2016-10-08T01:53:04Z</time></trkpt>
<trkpt lat="29.641619" lon="94.70247">
<time>2016-10-08T01:53:05Z</time></trkpt>
<trkpt lat="29.641609" lon="94.702789">
<time>2016-10-08T01:53:06Z</time></trkpt>
<trkpt lat="29.641598" lon="94.703019">
<time>2016-10-08T01:53:07Z</time></trkpt>
<trkpt lat="29.641588" lon="94.703179">
<time>2016-10-08T01:53:08Z</time></trkpt>
<trkpt lat="29.641568" lon="94.703358">
<time>2016-10-08T01:53:09Z</time></trkpt>
<trkpt lat="29.641538" lon="94.703528">
<time>2016-10-08T01:53:10Z</time></trkpt>
<trkpt lat="29.641457" lon="94.703788">
<time>2016-10-08T01:53:11Z</time></trkpt>
<trkpt lat="29.641407" lon="94.703937">
<time>2016-10-08T01:53:12Z</time></trkpt>
<trkpt lat="29.641277" lon="94.704227">
<time>2016-10-08T01:53:13Z</time></trkpt>
<trkpt lat="29.641206" lon="94.704376">
<time>2016-10-08T01:53:14Z</time></trkpt>
<trkpt lat="29.641136" lon="94.704486">
<time>2016-10-08T01:53:15Z</time></trkpt>
<trkpt lat="29.641086" lon="94.704556">
<time>2016-10-08T01:53:16Z</time></trkpt>
<trkpt lat="29.640996" lon="94.704656">
<time>2016-10-08T01:53:17Z</time></trkpt>
<trkpt lat="29.640916" lon="94.704716">
<time>2016-10-08T01:53:18Z</time></trkpt>
<trkpt lat="29.640726" lon="94.704856">
<time>2016-10-08T01:53:19Z</time></trkpt>
<trkpt lat="29.640606" lon="94.704946">
<time>2016-10-08T01:53:20Z</time></trkpt>
<trkpt lat="29.640506" lon="94.705045">
<time>2016-10-08T01:53:21Z</time></trkpt>
<trkpt lat="29.640415" lon="94.705175">
<time>2016-10-08T01:53:22Z</time></trkpt>
<trkpt lat="29.640365" lon="94.705275">
<time>2016-10-08T01:53:23Z</time></trkpt>
<trkpt lat="29.640325" lon="94.705395">
<time>2016-10-08T01:53:24Z</time></trkpt>
<trkpt lat="29.640275" lon="94.705584">
<time>2016-10-08T01:53:25Z</time></trkpt>
<trkpt lat="29.640225" lon="94.705844">
<time>2016-10-08T01:53:26Z</time></trkpt>
<trkpt lat="29.640144" lon="94.706163">
<time>2016-10-08T01:53:27Z</time></trkpt>
<trkpt lat="29.640064" lon="94.706473">
<time>2016-10-08T01:53:28Z</time></trkpt>
<trkpt lat="29.639983" lon="94.706693">
<time>2016-10-08T01:53:29Z</time></trkpt>
<trkpt lat="29.639923" lon="94.706872">
<time>2016-10-08T01:53:30Z</time></trkpt>
<trkpt lat="29.639572" lon="94.707741">
<time>2016-10-08T01:53:31Z</time></trkpt>
<trkpt lat="29.639492" lon="94.70798">
<time>2016-10-08T01:53:32Z</time></trkpt>
<trkpt lat="29.639381" lon="94.70836">
<time>2016-10-08T01:53:33Z</time></trkpt>
<trkpt lat="29.63924" lon="94.708879">
<time>2016-10-08T01:53:34Z</time></trkpt>
<trkpt lat="29.6391" lon="94.709408">
<time>2016-10-08T01:53:35Z</time></trkpt>
<trkpt lat="29.63906" lon="94.709588">
<time>2016-10-08T01:53:36Z</time></trkpt>
<trkpt lat="29.639009" lon="94.709797">
<time>2016-10-08T01:53:37Z</time></trkpt>
<trkpt lat="29.638959" lon="94.710077">
<time>2016-10-08T01:53:38Z</time></trkpt>
<trkpt lat="29.638798" lon="94.711036">
<time>2016-10-08T01:53:39Z</time></trkpt>
<trkpt lat="29.638717" lon="94.711585">
<time>2016-10-08T01:53:40Z</time></trkpt>
<trkpt lat="29.638677" lon="94.711774">
<time>2016-10-08T01:53:41Z</time></trkpt>
<trkpt lat="29.638596" lon="94.712064">
<time>2016-10-08T01:53:42Z</time></trkpt>
<trkpt lat="29.638375" lon="94.712903">
<time>2016-10-08T01:53:43Z</time></trkpt>
<trkpt lat="29.638014" lon="94.714151">
<time>2016-10-08T01:53:44Z</time></trkpt>
<trkpt lat="29.637954" lon="94.714341">
<time>2016-10-08T01:53:45Z</time></trkpt>
<trkpt lat="29.637903" lon="94.71452">
<time>2016-10-08T01:53:46Z</time></trkpt>
<trkpt lat="29.637883" lon="94.71461">
<time>2016-10-08T01:53:47Z</time></trkpt>
<trkpt lat="29.637843" lon="94.71471">
<time>2016-10-08T01:53:48Z</time></trkpt>
<trkpt lat="29.637803" lon="94.7148">
<time>2016-10-08T01:53:49Z</time></trkpt>
<trkpt lat="29.637773" lon="94.71484">
<time>2016-10-08T01:53:50Z</time></trkpt>
<trkpt lat="29.637743" lon="94.71489">
<time>2016-10-08T01:53:51Z</time></trkpt>
<trkpt lat="29.637693" lon="94.71496">
<time>2016-10-08T01:53:52Z</time></trkpt>
<trkpt lat="29.637663" lon="94.71499">
<time>2016-10-08T01:53:53Z</time></trkpt>
<trkpt lat="29.637603" lon="94.71502">
<time>2016-10-08T01:53:54Z</time></trkpt>
<trkpt lat="29.637553" lon="94.71504">
<time>2016-10-08T01:53:55Z</time></trkpt>
<trkpt lat="29.637503" lon="94.71504">
<time>2016-10-08T01:53:56Z</time></trkpt>
<trkpt lat="29.637443" lon="94.71503">
<time>2016-10-08T01:53:57Z</time></trkpt>
<trkpt lat="29.637373" lon="94.71501">
<time>2016-10-08T01:53:58Z</time></trkpt>
<trkpt lat="29.637323" lon="94.71498">
<time>2016-10-08T01:53:59Z</time></trkpt>
<trkpt lat="29.637243" lon="94.71493">
<time>2016-10-08T01:54:00Z</time></trkpt>
<trkpt lat="29.637173" lon="94.71489">
<time>2016-10-08T01:54:01Z</time></trkpt>
<trkpt lat="29.637113" lon="94.71485">
<time>2016-10-08T01:54:02Z</time></trkpt>
<trkpt lat="29.637073" lon="94.71482">
<time>2016-10-08T01:54:03Z</time></trkpt>
<trkpt lat="29.637003" lon="94.71477">
<time>2016-10-08T01:54:04Z</time></trkpt>
<trkpt lat="29.636953" lon="94.71474">
<time>2016-10-08T01:54:05Z</time></trkpt>
<trkpt lat="29.636883" lon="94.71472">
<time>2016-10-08T01:54:06Z</time></trkpt>
<trkpt lat="29.636803" lon="94.7147">
<time>2016-10-08T01:54:07Z</time></trkpt>
<trkpt lat="29.636634" lon="94.71467">
<time>2016-10-08T01:54:08Z</time></trkpt>
<trkpt lat="29.636574" lon="94.71465">
<time>2016-10-08T01:54:09Z</time></trkpt>
<trkpt lat="29.636474" lon="94.71462">
<time>2016-10-08T01:54:10Z</time></trkpt>
<trkpt lat="29.636424" lon="94.7146">
<time>2016-10-08T01:54:11Z</time></trkpt>
<trkpt lat="29.636284" lon="94.71452">
<time>2016-10-08T01:54:12Z</time></trkpt>
<trkpt lat="29.636184" lon="94.71445">
<time>2016-10-08T01:54:13Z</time></trkpt>
<trkpt lat="29.636074" lon="94.714381">
<time>2016-10-08T01:54:14Z</time></trkpt>
<trkpt lat="29.635974" lon="94.714311">
<time>2016-10-08T01:54:15Z</time></trkpt>
<trkpt lat="29.635884" lon="94.714261">
<time>2016-10-08T01:54:16Z</time></trkpt>
<trkpt lat="29.635804" lon="94.714231">
<time>2016-10-08T01:54:17Z</time></trkpt>
<trkpt lat="29.635724" lon="94.714201">
<time>2016-10-08T01:54:18Z</time></trkpt>
<trkpt lat="29.635654" lon="94.714191">
<time>2016-10-08T01:54:19Z</time></trkpt>
<trkpt lat="29.635504" lon="94.714161">
<time>2016-10-08T01:54:20Z</time></trkpt>
<trkpt lat="29.635345" lon="94.714141">
<time>2016-10-08T01:54:21Z</time></trkpt>
<trkpt lat="29.635175" lon="94.714121">
<time>2016-10-08T01:54:22Z</time></trkpt>
<trkpt lat="29.635065" lon="94.714121">
<time>2016-10-08T01:54:23Z</time></trkpt>
<trkpt lat="29.634955" lon="94.714121">
<time>2016-10-08T01:54:24Z</time></trkpt>
<trkpt lat="29.634785" lon="94.714131">
<time>2016-10-08T01:54:25Z</time></trkpt>
<trkpt lat="29.634715" lon="94.714131">
<time>2016-10-08T01:54:26Z</time></trkpt>
<trkpt lat="29.634565" lon="94.714151">
<time>2016-10-08T01:54:27Z</time></trkpt>
<trkpt lat="29.634375" lon="94.714161">
<time>2016-10-08T01:54:28Z</time></trkpt>
<trkpt lat="29.634335" lon="94.714171">
<time>2016-10-08T01:54:29Z</time></trkpt>
<trkpt lat="29.634255" lon="94.714161">
<time>2016-10-08T01:54:30Z</time></trkpt>
<trkpt lat="29.634195" lon="94.714151">
<time>2016-10-08T01:54:31Z</time></trkpt>
<trkpt lat="29.634075" lon="94.714141">
<time>2016-10-08T01:54:32Z</time></trkpt>
<trkpt lat="29.634015" lon="94.714121">
<time>2016-10-08T01:54:33Z</time></trkpt>
<trkpt lat="29.633955" lon="94.714101">
<time>2016-10-08T01:54:34Z</time></trkpt>
<trkpt lat="29.633915" lon="94.714081">
<time>2016-10-08T01:54:35Z</time></trkpt>
<trkpt lat="29.633865" lon="94.714051">
<time>2016-10-08T01:54:36Z</time></trkpt>
<trkpt lat="29.633845" lon="94.714021">
<time>2016-10-08T01:54:37Z</time></trkpt>
<trkpt lat="29.633815" lon="94.713971">
<time>2016-10-08T01:54:38Z</time></trkpt>
<trkpt lat="29.633775" lon="94.713881">
<time>2016-10-08T01:54:39Z</time></trkpt>
<trkpt lat="29.633735" lon="94.713811">
<time>2016-10-08T01:54:40Z</time></trkpt>
<trkpt lat="29.633705" lon="94.713742">
<time>2016-10-08T01:54:41Z</time></trkpt>
<trkpt lat="29.633676" lon="94.713682">
<time>2016-10-08T01:54:42Z</time></trkpt>
<trkpt lat="29.633636" lon="94.713632">
<time>2016-10-08T01:54:43Z</time></trkpt>
<trkpt lat="29.633586" lon="94.713582">
<time>2016-10-08T01:54:44Z</time></trkpt>
<trkpt lat="29.633506" lon="94.713502">
<time>2016-10-08T01:54:45Z</time></trkpt>
<trkpt lat="29.633436" lon="94.713452">
<time>2016-10-08T01:54:46Z</time></trkpt>
<trkpt lat="29.633266" lon="94.713332">
<time>2016-10-08T01:54:47Z</time></trkpt>
<trkpt lat="29.633156" lon="94.713262">
<time>2016-10-08T01:54:48Z</time></trkpt>
<trkpt lat="29.633106" lon="94.713202">
<time>2016-10-08T01:54:49Z</time></trkpt>
<trkpt lat="29.633066" lon="94.713162">
<time>2016-10-08T01:54:50Z</time></trkpt>
<trkpt lat="29.633036" lon="94.713122">
<time>2016-10-08T01:54:51Z</time></trkpt>
<trkpt lat="29.633016" lon="94.713083">
<time>2016-10-08T01:54:52Z</time></trkpt>
<trkpt lat="29.632977" lon="94.713013">
<time>2016-10-08T01:54:53Z</time></trkpt>
<trkpt lat="29.632967" lon="94.712943">
<time>2016-10-08T01:54:54Z</time></trkpt>
<trkpt lat="29.632937" lon="94.712853">
<time>2016-10-08T01:54:55Z</time></trkpt>
<trkpt lat="29.632907" lon="94.712703">
<time>2016-10-08T01:54:56Z</time></trkpt>
<trkpt lat="29.632867" lon="94.712583">
<time>2016-10-08T01:54:57Z</time></trkpt>
<trkpt lat="29.632797" lon="94.712314">
<time>2016-10-08T01:54:58Z</time></trkpt>
<trkpt lat="29.632758" lon="94.712194">
<time>2016-10-08T01:54:59Z</time></trkpt>
<trkpt lat="29.632698" lon="94.712004">
<time>2016-10-08T01:55:00Z</time></trkpt>
<trkpt lat="29.632568" lon="94.711685">
<time>2016-10-08T01:55:01Z</time></trkpt>
<trkpt lat="29.632528" lon="94.711595">
<time>2016-10-08T01:55:02Z</time></trkpt>
<trkpt lat="29.632489" lon="94.711505">
<time>2016-10-08T01:55:03Z</time></trkpt>
<trkpt lat="29.632469" lon="94.711465">
<time>2016-10-08T01:55:04Z</time></trkpt>
<trkpt lat="29.632429" lon="94.711405">
<time>2016-10-08T01:55:05Z</time></trkpt>
<trkpt lat="29.632379" lon="94.711345">
<time>2016-10-08T01:55:06Z</time></trkpt>
<trkpt lat="29.632269" lon="94.711225">
<time>2016-10-08T01:55:07Z</time></trkpt>
<trkpt lat="29.632159" lon="94.711096">
<time>2016-10-08T01:55:08Z</time></trkpt>
<trkpt lat="29.632069" lon="94.710996">
<time>2016-10-08T01:55:09Z</time></trkpt>
<trkpt lat="29.6319" lon="94.710806">
<time>2016-10-08T01:55:10Z</time></trkpt>
<trkpt lat="29.6318" lon="94.710696">
<time>2016-10-08T01:55:11Z</time></trkpt>
<trkpt lat="29.63175" lon="94.710636">
<time>2016-10-08T01:55:12Z</time></trkpt>
<trkpt lat="29.63169" lon="94.710556">
<time>2016-10-08T01:55:13Z</time></trkpt>
<trkpt lat="29.63165" lon="94.710487">
<time>2016-10-08T01:55:14Z</time></trkpt>
<trkpt lat="29.63161" lon="94.710377">
<time>2016-10-08T01:55:15Z</time></trkpt>
<trkpt lat="29.631581" lon="94.710247">
<time>2016-10-08T01:55:16Z</time></trkpt>
<trkpt lat="29.631551" lon="94.710167">
<time>2016-10-08T01:55:17Z</time></trkpt>
<trkpt lat="29.631531" lon="94.710077">
<time>2016-10-08T01:55:18Z</time></trkpt>
<trkpt lat="29.631511" lon="94.709878">
<time>2016-10-08T01:55:19Z</time></trkpt>
<trkpt lat="29.631491" lon="94.709748">
<time>2016-10-08T01:55:20Z</time></trkpt>
<trkpt lat="29.631481" lon="94.709658">
<time>2016-10-08T01:55:21Z</time></trkpt>
<trkpt lat="29.631471" lon="94.709568">
<time>2016-10-08T01:55:22Z</time></trkpt>
<trkpt lat="29.631442" lon="94.709508">
<time>2016-10-08T01:55:23Z</time></trkpt>
<trkpt lat="29.631422" lon="94.709458">
<time>2016-10-08T01:55:24Z</time></trkpt>
<trkpt lat="29.631372" lon="94.709378">
<time>2016-10-08T01:55:25Z</time></trkpt>
<trkpt lat="29.631342" lon="94.709348">
<time>2016-10-08T01:55:26Z</time></trkpt>
<trkpt lat="29.631292" lon="94.709308">
<time>2016-10-08T01:55:27Z</time></trkpt>
<trkpt lat="29.631242" lon="94.709268">
<time>2016-10-08T01:55:28Z</time></trkpt>
<trkpt lat="29.631192" lon="94.709239">
<time>2016-10-08T01:55:29Z</time></trkpt>
<trkpt lat="29.631122" lon="94.709219">
<time>2016-10-08T01:55:30Z</time></trkpt>
<trkpt lat="29.630992" lon="94.709179">
<time>2016-10-08T01:55:31Z</time></trkpt>
<trkpt lat="29.630772" lon="94.709129">
<time>2016-10-08T01:55:32Z</time></trkpt>
<trkpt lat="29.630522" lon="94.709089">
<time>2016-10-08T01:55:33Z</time></trkpt>
<trkpt lat="29.630382" lon="94.709059">
<time>2016-10-08T01:55:34Z</time></trkpt>
<trkpt lat="29.630243" lon="94.709059">
<time>2016-10-08T01:55:35Z</time></trkpt>
<trkpt lat="29.630123" lon="94.709049">
<time>2016-10-08T01:55:36Z</time></trkpt>
<trkpt lat="29.629903" lon="94.709059">
<time>2016-10-08T01:55:37Z</time></trkpt>
<trkpt lat="29.629603" lon="94.709079">
<time>2016-10-08T01:55:38Z</time></trkpt>
<trkpt lat="29.629163" lon="94.709119">
<time>2016-10-08T01:55:39Z</time></trkpt>
<trkpt lat="29.628803" lon="94.709159">
<time>2016-10-08T01:55:40Z</time></trkpt>
<trkpt lat="29.628703" lon="94.709159">
<time>2016-10-08T01:55:41Z</time></trkpt>
<trkpt lat="29.628563" lon="94.709159">
<time>2016-10-08T01:55:42Z</time></trkpt>
<trkpt lat="29.628493" lon="94.709159">
<time>2016-10-08T01:55:43Z</time></trkpt>
<trkpt lat="29.628403" lon="94.709129">
<time>2016-10-08T01:55:44Z</time></trkpt>
<trkpt lat="29.628343" lon="94.709099">
<time>2016-10-08T01:55:45Z</time></trkpt>
<trkpt lat="29.628293" lon="94.709049">
<time>2016-10-08T01:55:46Z</time></trkpt>
<trkpt lat="29.628213" lon="94.708969">
<time>2016-10-08T01:55:47Z</time></trkpt>
<trkpt lat="29.628143" lon="94.708889">
<time>2016-10-08T01:55:48Z</time></trkpt>
<trkpt lat="29.628043" lon="94.708769">
<time>2016-10-08T01:55:49Z</time></trkpt>
<trkpt lat="29.627884" lon="94.7086">
<time>2016-10-08T01:55:50Z</time></trkpt>
<trkpt lat="29.627814" lon="94.70853">
<time>2016-10-08T01:55:51Z</time></trkpt>
<trkpt lat="29.627714" lon="94.70845">
<time>2016-10-08T01:55:52Z</time></trkpt>
<trkpt lat="29.627534" lon="94.70831">
<time>2016-10-08T01:55:53Z</time></trkpt>
<trkpt lat="29.627354" lon="94.7082">
<time>2016-10-08T01:55:54Z</time></trkpt>
<trkpt lat="29.627105" lon="94.708051">
<time>2016-10-08T01:55:55Z</time></trkpt>
<trkpt lat="29.626855" lon="94.707891">
<time>2016-10-08T01:55:56Z</time></trkpt>
<trkpt lat="29.626725" lon="94.707811">
<time>2016-10-08T01:55:57Z</time></trkpt>
<trkpt lat="29.626645" lon="94.707761">
<time>2016-10-08T01:55:58Z</time></trkpt>
<trkpt lat="29.626505" lon="94.707671">
<time>2016-10-08T01:55:59Z</time></trkpt>
<trkpt lat="29.626376" lon="94.707591">
<time>2016-10-08T01:56:00Z</time></trkpt>
<trkpt lat="29.626266" lon="94.707531">
<time>2016-10-08T01:56:01Z</time></trkpt>
<trkpt lat="29.626216" lon="94.707511">
<time>2016-10-08T01:56:02Z</time></trkpt>
<trkpt lat="29.626156" lon="94.707491">
<time>2016-10-08T01:56:03Z</time></trkpt>
<trkpt lat="29.626106" lon="94.707481">
<time>2016-10-08T01:56:04Z</time></trkpt>
<trkpt lat="29.626036" lon="94.707472">
<time>2016-10-08T01:56:05Z</time></trkpt>
<trkpt lat="29.625986" lon="94.707481">
<time>2016-10-08T01:56:06Z</time></trkpt>
<trkpt lat="29.625906" lon="94.707491">
<time>2016-10-08T01:56:07Z</time></trkpt>
<trkpt lat="29.625836" lon="94.707511">
<time>2016-10-08T01:56:08Z</time></trkpt>
<trkpt lat="29.625766" lon="94.707541">
<time>2016-10-08T01:56:09Z</time></trkpt>
<trkpt lat="29.625556" lon="94.707641">
<time>2016-10-08T01:56:10Z</time></trkpt>
<trkpt lat="29.625236" lon="94.707841">
<time>2016-10-08T01:56:11Z</time></trkpt>
<trkpt lat="29.624895" lon="94.708041">
<time>2016-10-08T01:56:12Z</time></trkpt>
<trkpt lat="29.624735" lon="94.70813">
<time>2016-10-08T01:56:13Z</time></trkpt>
<trkpt lat="29.624575" lon="94.7082">
<time>2016-10-08T01:56:14Z</time></trkpt>
<trkpt lat="29.624455" lon="94.70826">
<time>2016-10-08T01:56:15Z</time></trkpt>
<trkpt lat="29.624255" lon="94.70833">
<time>2016-10-08T01:56:16Z</time></trkpt>
<trkpt lat="29.624095" lon="94.70837">
<time>2016-10-08T01:56:17Z</time></trkpt>
<trkpt lat="29.623995" lon="94.7084">
<time>2016-10-08T01:56:18Z</time></trkpt>
<trkpt lat="29.623835" lon="94.70843">
<time>2016-10-08T01:56:19Z</time></trkpt>
<trkpt lat="29.623755" lon="94.70844">
<time>2016-10-08T01:56:20Z</time></trkpt>
<trkpt lat="29.623685" lon="94.70843">
<time>2016-10-08T01:56:21Z</time></trkpt>
<trkpt lat="29.623615" lon="94.70841">
<time>2016-10-08T01:56:22Z</time></trkpt>
<trkpt lat="29.623525" lon="94.70836">
<time>2016-10-08T01:56:23Z</time></trkpt>
<trkpt lat="29.623455" lon="94.70831">
<time>2016-10-08T01:56:24Z</time></trkpt>
<trkpt lat="29.623385" lon="94.70825">
<time>2016-10-08T01:56:25Z</time></trkpt>
<trkpt lat="29.623286" lon="94.70814">
<time>2016-10-08T01:56:26Z</time></trkpt>
<trkpt lat="29.623206" lon="94.708071">
<time>2016-10-08T01:56:27Z</time></trkpt>
<trkpt lat="29.623136" lon="94.708021">
<time>2016-10-08T01:56:28Z</time></trkpt>
<trkpt lat="29.623066" lon="94.707991">
<time>2016-10-08T01:56:29Z</time></trkpt>
<trkpt lat="29.622996" lon="94.707971">
<time>2016-10-08T01:56:30Z</time></trkpt>
<trkpt lat="29.622926" lon="94.707961">
<time>2016-10-08T01:56:31Z</time></trkpt>
<trkpt lat="29.622846" lon="94.707951">
<time>2016-10-08T01:56:32Z</time></trkpt>
<trkpt lat="29.622696" lon="94.707941">
<time>2016-10-08T01:56:33Z</time></trkpt>
<trkpt lat="29.622596" lon="94.707931">
<time>2016-10-08T01:56:34Z</time></trkpt>
<trkpt lat="29.622526" lon="94.707911">
<time>2016-10-08T01:56:35Z</time></trkpt>
<trkpt lat="29.622456" lon="94.707881">
<time>2016-10-08T01:56:36Z</time></trkpt>
<trkpt lat="29.622416" lon="94.707851">
<time>2016-10-08T01:56:37Z</time></trkpt>
<trkpt lat="29.622366" lon="94.707811">
<time>2016-10-08T01:56:38Z</time></trkpt>
<trkpt lat="29.622316" lon="94.707741">
<time>2016-10-08T01:56:39Z</time></trkpt>
<trkpt lat="29.622257" lon="94.707661">
<time>2016-10-08T01:56:40Z</time></trkpt>
<trkpt lat="29.622207" lon="94.707581">
<time>2016-10-08T01:56:41Z</time></trkpt>
<trkpt lat="29.622127" lon="94.707432">
<time>2016-10-08T01:56:42Z</time></trkpt>
<trkpt lat="29.622077" lon="94.707322">
<time>2016-10-08T01:56:43Z</time></trkpt>
<trkpt lat="29.622017" lon="94.707242">
<time>2016-10-08T01:56:44Z</time></trkpt>
<trkpt lat="29.621977" lon="94.707192">
<time>2016-10-08T01:56:45Z</time></trkpt>
<trkpt lat="29.621907" lon="94.707132">
<time>2016-10-08T01:56:46Z</time></trkpt>
<trkpt lat="29.621848" lon="94.707082">
<time>2016-10-08T01:56:47Z</time></trkpt>
<trkpt lat="29.621728" lon="94.707022">
<time>2016-10-08T01:56:48Z</time></trkpt>
<trkpt lat="29.621508" lon="94.706932">
<time>2016-10-08T01:56:49Z</time></trkpt>
<trkpt lat="29.621308" lon="94.706833">
<time>2016-10-08T01:56:50Z</time></trkpt>
<trkpt lat="29.621118" lon="94.706713">
<time>2016-10-08T01:56:51Z</time></trkpt>
<trkpt lat="29.621038" lon="94.706653">
<time>2016-10-08T01:56:52Z</time></trkpt>
<trkpt lat="29.620958" lon="94.706593">
<time>2016-10-08T01:56:53Z</time></trkpt>
<trkpt lat="29.620899" lon="94.706523">
<time>2016-10-08T01:56:54Z</time></trkpt>
<trkpt lat="29.620819" lon="94.706423">
<time>2016-10-08T01:56:55Z</time></trkpt>
<trkpt lat="29.620729" lon="94.706324">
<time>2016-10-08T01:56:56Z</time></trkpt>
<trkpt lat="29.620619" lon="94.706214">
<time>2016-10-08T01:56:57Z</time></trkpt>
<trkpt lat="29.620529" lon="94.706134">
<time>2016-10-08T01:56:58Z</time></trkpt>
<trkpt lat="29.620409" lon="94.706054">
<time>2016-10-08T01:56:59Z</time></trkpt>
<trkpt lat="29.62028" lon="94.705984">
<time>2016-10-08T01:57:00Z</time></trkpt>
<trkpt lat="29.62011" lon="94.705914">
<time>2016-10-08T01:57:01Z</time></trkpt>
<trkpt lat="29.61985" lon="94.705844">
<time>2016-10-08T01:57:02Z</time></trkpt>
<trkpt lat="29.61975" lon="94.705814">
<time>2016-10-08T01:57:03Z</time></trkpt>
<trkpt lat="29.61966" lon="94.705774">
<time>2016-10-08T01:57:04Z</time></trkpt>
<trkpt lat="29.6196" lon="94.705725">
<time>2016-10-08T01:57:05Z</time></trkpt>
<trkpt lat="29.61955" lon="94.705665">
<time>2016-10-08T01:57:06Z</time></trkpt>
<trkpt lat="29.61951" lon="94.705605">
<time>2016-10-08T01:57:07Z</time></trkpt>
<trkpt lat="29.61948" lon="94.705515">
<time>2016-10-08T01:57:08Z</time></trkpt>
<trkpt lat="29.619451" lon="94.705425">
<time>2016-10-08T01:57:09Z</time></trkpt>
<trkpt lat="29.619411" lon="94.705295">
<time>2016-10-08T01:57:10Z</time></trkpt>
<trkpt lat="29.619351" lon="94.705086">
<time>2016-10-08T01:57:11Z</time></trkpt>
<trkpt lat="29.619311" lon="94.704956">
<time>2016-10-08T01:57:12Z</time></trkpt>
<trkpt lat="29.619252" lon="94.704816">
<time>2016-10-08T01:57:13Z</time></trkpt>
<trkpt lat="29.619202" lon="94.704736">
<time>2016-10-08T01:57:14Z</time></trkpt>
<trkpt lat="29.619042" lon="94.704517">
<time>2016-10-08T01:57:15Z</time></trkpt>
<trkpt lat="29.618942" lon="94.704397">
<time>2016-10-08T01:57:16Z</time></trkpt>
<trkpt lat="29.618763" lon="94.704187">
<time>2016-10-08T01:57:17Z</time></trkpt>
<trkpt lat="29.618713" lon="94.704117">
<time>2016-10-08T01:57:18Z</time></trkpt>
<trkpt lat="29.618643" lon="94.704018">
<time>2016-10-08T01:57:19Z</time></trkpt>
<trkpt lat="29.618583" lon="94.703918">
<time>2016-10-08T01:57:20Z</time></trkpt>
<trkpt lat="29.618553" lon="94.703838">
<time>2016-10-08T01:57:21Z</time></trkpt>
<trkpt lat="29.618533" lon="94.703738">
<time>2016-10-08T01:57:22Z</time></trkpt>
<trkpt lat="29.618524" lon="94.703628">
<time>2016-10-08T01:57:23Z</time></trkpt>
<trkpt lat="29.618534" lon="94.703558">
<time>2016-10-08T01:57:24Z</time></trkpt>
<trkpt lat="29.618544" lon="94.703488">
<time>2016-10-08T01:57:25Z</time></trkpt>
<trkpt lat="29.618564" lon="94.703379">
<time>2016-10-08T01:57:26Z</time></trkpt>
<trkpt lat="29.618614" lon="94.703199">
<time>2016-10-08T01:57:27Z</time></trkpt>
<trkpt lat="29.618664" lon="94.702999">
<time>2016-10-08T01:57:28Z</time></trkpt>
<trkpt lat="29.618695" lon="94.70287">
<time>2016-10-08T01:57:29Z</time></trkpt>
<trkpt lat="29.618705" lon="94.70278">
<time>2016-10-08T01:57:30Z</time></trkpt>
<trkpt lat="29.618705" lon="94.70271">
<time>2016-10-08T01:57:31Z</time></trkpt>
<trkpt lat="29.618695" lon="94.70265">
<time>2016-10-08T01:57:32Z</time></trkpt>
<trkpt lat="29.618685" lon="94.70258">
<time>2016-10-08T01:57:33Z</time></trkpt>
<trkpt lat="29.618655" lon="94.7025">
<time>2016-10-08T01:57:34Z</time></trkpt>
<trkpt lat="29.618615" lon="94.70243">
<time>2016-10-08T01:57:35Z</time></trkpt>
<trkpt lat="29.618526" lon="94.702331">
<time>2016-10-08T01:57:36Z</time></trkpt>
<trkpt lat="29.618376" lon="94.702181">
<time>2016-10-08T01:57:37Z</time></trkpt>
<trkpt lat="29.618186" lon="94.702011">
<time>2016-10-08T01:57:38Z</time></trkpt>
<trkpt lat="29.618056" lon="94.701911">
<time>2016-10-08T01:57:39Z</time></trkpt>
<trkpt lat="29.617946" lon="94.701831">
<time>2016-10-08T01:57:40Z</time></trkpt>
<trkpt lat="29.617817" lon="94.701752">
<time>2016-10-08T01:57:41Z</time></trkpt>
<trkpt lat="29.617647" lon="94.701672">
<time>2016-10-08T01:57:42Z</time></trkpt>
<trkpt lat="29.617507" lon="94.701612">
<time>2016-10-08T01:57:43Z</time></trkpt>
<trkpt lat="29.617437" lon="94.701582">
<time>2016-10-08T01:57:44Z</time></trkpt>
<trkpt lat="29.617317" lon="94.701512">
<time>2016-10-08T01:57:45Z</time></trkpt>
<trkpt lat="29.617267" lon="94.701482">
<time>2016-10-08T01:57:46Z</time></trkpt>
<trkpt lat="29.617237" lon="94.701432">
<time>2016-10-08T01:57:47Z</time></trkpt>
<trkpt lat="29.617187" lon="94.701372">
<time>2016-10-08T01:57:48Z</time></trkpt>
<trkpt lat="29.617148" lon="94.701282">
<time>2016-10-08T01:57:49Z</time></trkpt>
<trkpt lat="29.617128" lon="94.701223">
<time>2016-10-08T01:57:50Z</time></trkpt>
<trkpt lat="29.617118" lon="94.701193">
<time>2016-10-08T01:57:51Z</time></trkpt>
<trkpt lat="29.617098" lon="94.701133">
<time>2016-10-08T01:57:52Z</time></trkpt>
<trkpt lat="29.617088" lon="94.701053">
<time>2016-10-08T01:57:53Z</time></trkpt>
<trkpt lat="29.617088" lon="94.700973">
<time>2016-10-08T01:57:54Z</time></trkpt>
<trkpt lat="29.617098" lon="94.700813">
<time>2016-10-08T01:57:55Z</time></trkpt>
<trkpt lat="29.617119" lon="94.700224">
<time>2016-10-08T01:57:56Z</time></trkpt>
<trkpt lat="29.61714" lon="94.699705">
<time>2016-10-08T01:57:57Z</time></trkpt>
<trkpt lat="29.617151" lon="94.699336">
<time>2016-10-08T01:57:58Z</time></trkpt>
<trkpt lat="29.617151" lon="94.699077">
<time>2016-10-08T01:57:59Z</time></trkpt>
<trkpt lat="29.617151" lon="94.698957">
<time>2016-10-08T01:58:00Z</time></trkpt>
<trkpt lat="29.617121" lon="94.698847">
<time>2016-10-08T01:58:01Z</time></trkpt>
<trkpt lat="29.617102" lon="94.698787">
<time>2016-10-08T01:58:02Z</time></trkpt>
<trkpt lat="29.617062" lon="94.698697">
<time>2016-10-08T01:58:03Z</time></trkpt>
<trkpt lat="29.617022" lon="94.698617">
<time>2016-10-08T01:58:04Z</time></trkpt>
<trkpt lat="29.616952" lon="94.698498">
<time>2016-10-08T01:58:05Z</time></trkpt>
<trkpt lat="29.616882" lon="94.698378">
<time>2016-10-08T01:58:06Z</time></trkpt>
<trkpt lat="29.616763" lon="94.698158">
<time>2016-10-08T01:58:07Z</time></trkpt>
<trkpt lat="29.616703" lon="94.698038">
<time>2016-10-08T01:58:08Z</time></trkpt>
<trkpt lat="29.616673" lon="94.697949">
<time>2016-10-08T01:58:09Z</time></trkpt>
<trkpt lat="29.616633" lon="94.697809">
<time>2016-10-08T01:58:10Z</time></trkpt>
<trkpt lat="29.616604" lon="94.697669">
<time>2016-10-08T01:58:11Z</time></trkpt>
<trkpt lat="29.616564" lon="94.69746">
<time>2016-10-08T01:58:12Z</time></trkpt>
<trkpt lat="29.616544" lon="94.6973">
<time>2016-10-08T01:58:13Z</time></trkpt>
<trkpt lat="29.616524" lon="94.69713">
<time>2016-10-08T01:58:14Z</time></trkpt>
<trkpt lat="29.616495" lon="94.69698">
<time>2016-10-08T01:58:15Z</time></trkpt>
<trkpt lat="29.616475" lon="94.696821">
<time>2016-10-08T01:58:16Z</time></trkpt>
<trkpt lat="29.616455" lon="94.696731">
<time>2016-10-08T01:58:17Z</time></trkpt>
<trkpt lat="29.616405" lon="94.696611">
<time>2016-10-08T01:58:18Z</time></trkpt>
<trkpt lat="29.616335" lon="94.696521">
<time>2016-10-08T01:58:19Z</time></trkpt>
<trkpt lat="29.616286" lon="94.696462">
<time>2016-10-08T01:58:20Z</time></trkpt>
<trkpt lat="29.616206" lon="94.696372">
<time>2016-10-08T01:58:21Z</time></trkpt>
<trkpt lat="29.616106" lon="94.696252">
<time>2016-10-08T01:58:22Z</time></trkpt>
<trkpt lat="29.616026" lon="94.696182">
<time>2016-10-08T01:58:23Z</time></trkpt>
<trkpt lat="29.615946" lon="94.696102">
<time>2016-10-08T01:58:24Z</time></trkpt>
<trkpt lat="29.615836" lon="94.696022">
<time>2016-10-08T01:58:25Z</time></trkpt>
<trkpt lat="29.615717" lon="94.695952">
<time>2016-10-08T01:58:26Z</time></trkpt>
<trkpt lat="29.615537" lon="94.695833">
<time>2016-10-08T01:58:27Z</time></trkpt>
<trkpt lat="29.615087" lon="94.695533">
<time>2016-10-08T01:58:28Z</time></trkpt>
<trkpt lat="29.614988" lon="94.695463">
<time>2016-10-08T01:58:29Z</time></trkpt>
<trkpt lat="29.614848" lon="94.695394">
<time>2016-10-08T01:58:30Z</time></trkpt>
<trkpt lat="29.614748" lon="94.695354">
<time>2016-10-08T01:58:31Z</time></trkpt>
<trkpt lat="29.614628" lon="94.695324">
<time>2016-10-08T01:58:32Z</time></trkpt>
<trkpt lat="29.614518" lon="94.695314">
<time>2016-10-08T01:58:33Z</time></trkpt>
<trkpt lat="29.614458" lon="94.695314">
<time>2016-10-08T01:58:34Z</time></trkpt>
<trkpt lat="29.614198" lon="94.695304">
<time>2016-10-08T01:58:35Z</time></trkpt>
<trkpt lat="29.614108" lon="94.695294">
<time>2016-10-08T01:58:36Z</time></trkpt>
<trkpt lat="29.614018" lon="94.695274">
<time>2016-10-08T01:58:37Z</time></trkpt>
<trkpt lat="29.613928" lon="94.695214">
<time>2016-10-08T01:58:38Z</time></trkpt>
<trkpt lat="29.613868" lon="94.695164">
<time>2016-10-08T01:58:39Z</time></trkpt>
<trkpt lat="29.613819" lon="94.695124">
<time>2016-10-08T01:58:40Z</time></trkpt>
<trkpt lat="29.613779" lon="94.695054">
<time>2016-10-08T01:58:41Z</time></trkpt>
<trkpt lat="29.613719" lon="94.694954">
<time>2016-10-08T01:58:42Z</time></trkpt>
<trkpt lat="29.613659" lon="94.694815">
<time>2016-10-08T01:58:43Z</time></trkpt>
<trkpt lat="29.613609" lon="94.694675">
<time>2016-10-08T01:58:44Z</time></trkpt>
<trkpt lat="29.61357" lon="94.694535">
<time>2016-10-08T01:58:45Z</time></trkpt>
<trkpt lat="29.61352" lon="94.694366">
<time>2016-10-08T01:58:46Z</time></trkpt>
<trkpt lat="29.61349" lon="94.694216">
<time>2016-10-08T01:58:47Z</time></trkpt>
<trkpt lat="29.613441" lon="94.693966">
<time>2016-10-08T01:58:48Z</time></trkpt>
<trkpt lat="29.613401" lon="94.693697">
<time>2016-10-08T01:58:49Z</time></trkpt>
<trkpt lat="29.613361" lon="94.693477">
<time>2016-10-08T01:58:50Z</time></trkpt>
<trkpt lat="29.613332" lon="94.693358">
<time>2016-10-08T01:58:51Z</time></trkpt>
<trkpt lat="29.613282" lon="94.693208">
<time>2016-10-08T01:58:52Z</time></trkpt>
<trkpt lat="29.613232" lon="94.693018">
<time>2016-10-08T01:58:53Z</time></trkpt>
<trkpt lat="29.613193" lon="94.692809">
<time>2016-10-08T01:58:54Z</time></trkpt>
<trkpt lat="29.613163" lon="94.692609">
<time>2016-10-08T01:58:55Z</time></trkpt>
<trkpt lat="29.613143" lon="94.69242">
<time>2016-10-08T01:58:56Z</time></trkpt>
<trkpt lat="29.613124" lon="94.69224">
<time>2016-10-08T01:58:57Z</time></trkpt>
<trkpt lat="29.613124" lon="94.69215">
<time>2016-10-08T01:58:58Z</time></trkpt>
<trkpt lat="29.613124" lon="94.69207">
<time>2016-10-08T01:58:59Z</time></trkpt>
<trkpt lat="29.613134" lon="94.69199">
<time>2016-10-08T01:59:00Z</time></trkpt>
<trkpt lat="29.613154" lon="94.691901">
<time>2016-10-08T01:59:01Z</time></trkpt>
<trkpt lat="29.613185" lon="94.691711">
<time>2016-10-08T01:59:02Z</time></trkpt>
<trkpt lat="29.613225" lon="94.691551">
<time>2016-10-08T01:59:03Z</time></trkpt>
<trkpt lat="29.613245" lon="94.691412">
<time>2016-10-08T01:59:04Z</time></trkpt>
<trkpt lat="29.613245" lon="94.691292">
<time>2016-10-08T01:59:05Z</time></trkpt>
<trkpt lat="29.613246" lon="94.691142">
<time>2016-10-08T01:59:06Z</time></trkpt>
<trkpt lat="29.613236" lon="94.690943">
<time>2016-10-08T01:59:07Z</time></trkpt>
<trkpt lat="29.613217" lon="94.690633">
<time>2016-10-08T01:59:08Z</time></trkpt>
<trkpt lat="29.613207" lon="94.690533">
<time>2016-10-08T01:59:09Z</time></trkpt>
<trkpt lat="29.613217" lon="94.690414">
<time>2016-10-08T01:59:10Z</time></trkpt>
<trkpt lat="29.613237" lon="94.690284">
<time>2016-10-08T01:59:11Z</time></trkpt>
<trkpt lat="29.613267" lon="94.690124">
<time>2016-10-08T01:59:12Z</time></trkpt>
<trkpt lat="29.613328" lon="94.689945">
<time>2016-10-08T01:59:13Z</time></trkpt>
<trkpt lat="29.613499" lon="94.689436">
<time>2016-10-08T01:59:14Z</time></trkpt>
<trkpt lat="29.613579" lon="94.689196">
<time>2016-10-08T01:59:15Z</time></trkpt>
<trkpt lat="29.61374" lon="94.688787">
<time>2016-10-08T01:59:16Z</time></trkpt>
<trkpt lat="29.6139" lon="94.688398">
<time>2016-10-08T01:59:17Z</time></trkpt>
<trkpt lat="29.614021" lon="94.688148">
<time>2016-10-08T01:59:18Z</time></trkpt>
<trkpt lat="29.614121" lon="94.687969">
<time>2016-10-08T01:59:19Z</time></trkpt>
<trkpt lat="29.614161" lon="94.687869">
<time>2016-10-08T01:59:20Z</time></trkpt>
<trkpt lat="29.614211" lon="94.687739">
<time>2016-10-08T01:59:21Z</time></trkpt>
<trkpt lat="29.614242" lon="94.687649">
<time>2016-10-08T01:59:22Z</time></trkpt>
<trkpt lat="29.614282" lon="94.68749">
<time>2016-10-08T01:59:23Z</time></trkpt>
<trkpt lat="29.614332" lon="94.68729">
<time>2016-10-08T01:59:24Z</time></trkpt>
<trkpt lat="29.614382" lon="94.68711">
<time>2016-10-08T01:59:25Z</time></trkpt>
<trkpt lat="29.614473" lon="94.686901">
<time>2016-10-08T01:59:26Z</time></trkpt>
<trkpt lat="29.614543" lon="94.686751">
<time>2016-10-08T01:59:27Z</time></trkpt>
<trkpt lat="29.614653" lon="94.686562">
<time>2016-10-08T01:59:28Z</time></trkpt>
<trkpt lat="29.614814" lon="94.686262">
<time>2016-10-08T01:59:29Z</time></trkpt>
<trkpt lat="29.615015" lon="94.685823">
<time>2016-10-08T01:59:30Z</time></trkpt>
<trkpt lat="29.615246" lon="94.685304">
<time>2016-10-08T01:59:31Z</time></trkpt>
<trkpt lat="29.615326" lon="94.685105">
<time>2016-10-08T01:59:32Z</time></trkpt>
<trkpt lat="29.615456" lon="94.684795">
<time>2016-10-08T01:59:33Z</time></trkpt>
<trkpt lat="29.615527" lon="94.684576">
<time>2016-10-08T01:59:34Z</time></trkpt>
<trkpt lat="29.615557" lon="94.684496">
<time>2016-10-08T01:59:35Z</time></trkpt>
<trkpt lat="29.615577" lon="94.684376">
<time>2016-10-08T01:59:36Z</time></trkpt>
<trkpt lat="29.615597" lon="94.684246">
<time>2016-10-08T01:59:37Z</time></trkpt>
<trkpt lat="29.615608" lon="94.684077">
<time>2016-10-08T01:59:38Z</time></trkpt>
<trkpt lat="29.615628" lon="94.683807">
<time>2016-10-08T01:59:39Z</time></trkpt>
<trkpt lat="29.615659" lon="94.683448">
<time>2016-10-08T01:59:40Z</time></trkpt>
<trkpt lat="29.615669" lon="94.683209">
<time>2016-10-08T01:59:41Z</time></trkpt>
<trkpt lat="29.61569" lon="94.682959">
<time>2016-10-08T01:59:42Z</time></trkpt>
<trkpt lat="29.6157" lon="94.682809">
<time>2016-10-08T01:59:43Z</time></trkpt>
<trkpt lat="29.61572" lon="94.68269">
<time>2016-10-08T01:59:44Z</time></trkpt>
<trkpt lat="29.61574" lon="94.6826">
<time>2016-10-08T01:59:45Z</time></trkpt>
<trkpt lat="29.615771" lon="94.6825">
<time>2016-10-08T01:59:46Z</time></trkpt>
<trkpt lat="29.615831" lon="94.68235">
<time>2016-10-08T01:59:47Z</time></trkpt>
<trkpt lat="29.615901" lon="94.682211">
<time>2016-10-08T01:59:48Z</time></trkpt>
<trkpt lat="29.616052" lon="94.681911">
<time>2016-10-08T01:59:49Z</time></trkpt>
<trkpt lat="29.616112" lon="94.681782">
<time>2016-10-08T01:59:50Z</time></trkpt>
<trkpt lat="29.616152" lon="94.681652">
<time>2016-10-08T01:59:51Z</time></trkpt>
<trkpt lat="29.616223" lon="94.681373">
<time>2016-10-08T01:59:52Z</time></trkpt>
<trkpt lat="29.616334" lon="94.680854">
<time>2016-10-08T01:59:53Z</time></trkpt>
<trkpt lat="29.616454" lon="94.680335">
<time>2016-10-08T01:59:54Z</time></trkpt>
<trkpt lat="29.616515" lon="94.680055">
<time>2016-10-08T01:59:55Z</time></trkpt>
<trkpt lat="29.616576" lon="94.679766">
<time>2016-10-08T01:59:56Z</time></trkpt>
<trkpt lat="29.616626" lon="94.679586">
<time>2016-10-08T01:59:57Z</time></trkpt>
<trkpt lat="29.616686" lon="94.679407">
<time>2016-10-08T01:59:58Z</time></trkpt>
<trkpt lat="29.616736" lon="94.679287">
<time>2016-10-08T01:59:59Z</time></trkpt>
<trkpt lat="29.616847" lon="94.679058">
<time>2016-10-08T02:00:00Z</time></trkpt>
<trkpt lat="29.617027" lon="94.678728">
<time>2016-10-08T02:00:01Z</time></trkpt>
<trkpt lat="29.617178" lon="94.678439">
<time>2016-10-08T02:00:02Z</time></trkpt>
<trkpt lat="29.617278" lon="94.678219">
<time>2016-10-08T02:00:03Z</time></trkpt>
<trkpt lat="29.617318" lon="94.67813">
<time>2016-10-08T02:00:04Z</time></trkpt>
<trkpt lat="29.617339" lon="94.67806">
<time>2016-10-08T02:00:05Z</time></trkpt>
<trkpt lat="29.617369" lon="94.67791">
<time>2016-10-08T02:00:06Z</time></trkpt>
<trkpt lat="29.617399" lon="94.67774">
<time>2016-10-08T02:00:07Z</time></trkpt>
<trkpt lat="29.617409" lon="94.677661">
<time>2016-10-08T02:00:08Z</time></trkpt>
<trkpt lat="29.617409" lon="94.677541">
<time>2016-10-08T02:00:09Z</time></trkpt>
<trkpt lat="29.61742" lon="94.677271">
<time>2016-10-08T02:00:10Z</time></trkpt>
<trkpt lat="29.61743" lon="94.677052">
<time>2016-10-08T02:00:11Z</time></trkpt>
<trkpt lat="29.617441" lon="94.676902">
<time>2016-10-08T02:00:12Z</time></trkpt>
<trkpt lat="29.617451" lon="94.676743">
<time>2016-10-08T02:00:13Z</time></trkpt>
<trkpt lat="29.617491" lon="94.676533">
<time>2016-10-08T02:00:14Z</time></trkpt>
<trkpt lat="29.617532" lon="94.676373">
<time>2016-10-08T02:00:15Z</time></trkpt>
<trkpt lat="29.617572" lon="94.676234">
<time>2016-10-08T02:00:16Z</time></trkpt>
<trkpt lat="29.617622" lon="94.676114">
<time>2016-10-08T02:00:17Z</time></trkpt>
<trkpt lat="29.617672" lon="94.676024">
<time>2016-10-08T02:00:18Z</time></trkpt>
<trkpt lat="29.617753" lon="94.675874">
<time>2016-10-08T02:00:19Z</time></trkpt>
<trkpt lat="29.617843" lon="94.675675">
<time>2016-10-08T02:00:20Z</time></trkpt>
<trkpt lat="29.617933" lon="94.675455">
<time>2016-10-08T02:00:21Z</time></trkpt>
<trkpt lat="29.618034" lon="94.675196">
<time>2016-10-08T02:00:22Z</time></trkpt>
<trkpt lat="29.618104" lon="94.674956">
<time>2016-10-08T02:00:23Z</time></trkpt>
<trkpt lat="29.618175" lon="94.674677">
<time>2016-10-08T02:00:24Z</time></trkpt>
<trkpt lat="29.618265" lon="94.674378">
<time>2016-10-08T02:00:25Z</time></trkpt>
<trkpt lat="29.618366" lon="94.674008">
<time>2016-10-08T02:00:26Z</time></trkpt>
<trkpt lat="29.618406" lon="94.673819">
<time>2016-10-08T02:00:27Z</time></trkpt>
<trkpt lat="29.618427" lon="94.673679">
<time>2016-10-08T02:00:28Z</time></trkpt>
<trkpt lat="29.618457" lon="94.6735">
<time>2016-10-08T02:00:29Z</time></trkpt>
<trkpt lat="29.618457" lon="94.67339">
<time>2016-10-08T02:00:30Z</time></trkpt>
<trkpt lat="29.618457" lon="94.67328">
<time>2016-10-08T02:00:31Z</time></trkpt>
<trkpt lat="29.618448" lon="94.673031">
<time>2016-10-08T02:00:32Z</time></trkpt>
<trkpt lat="29.618419" lon="94.672422">
<time>2016-10-08T02:00:33Z</time></trkpt>
<trkpt lat="29.61843" lon="94.672093">
<time>2016-10-08T02:00:34Z</time></trkpt>
<trkpt lat="29.61844" lon="94.671783">
<time>2016-10-08T02:00:35Z</time></trkpt>
<trkpt lat="29.61845" lon="94.671644">
<time>2016-10-08T02:00:36Z</time></trkpt>
<trkpt lat="29.618471" lon="94.671534">
<time>2016-10-08T02:00:37Z</time></trkpt>
<trkpt lat="29.618491" lon="94.671424">
<time>2016-10-08T02:00:38Z</time></trkpt>
<trkpt lat="29.618541" lon="94.671274">
<time>2016-10-08T02:00:39Z</time></trkpt>
<trkpt lat="29.618581" lon="94.671155">
<time>2016-10-08T02:00:40Z</time></trkpt>
<trkpt lat="29.618732" lon="94.670825">
<time>2016-10-08T02:00:41Z</time></trkpt>
<trkpt lat="29.618832" lon="94.670616">
<time>2016-10-08T02:00:42Z</time></trkpt>
<trkpt lat="29.619053" lon="94.670187">
<time>2016-10-08T02:00:43Z</time></trkpt>
<trkpt lat="29.619214" lon="94.669868">
<time>2016-10-08T02:00:44Z</time></trkpt>
<trkpt lat="29.619304" lon="94.669698">
<time>2016-10-08T02:00:45Z</time></trkpt>
<trkpt lat="29.619545" lon="94.669189">
<time>2016-10-08T02:00:46Z</time></trkpt>
<trkpt lat="29.619655" lon="94.668989">
<time>2016-10-08T02:00:47Z</time></trkpt>
<trkpt lat="29.619685" lon="94.66892">
<time>2016-10-08T02:00:48Z</time></trkpt>
<trkpt lat="29.619735" lon="94.66885">
<time>2016-10-08T02:00:49Z</time></trkpt>
<trkpt lat="29.619816" lon="94.66872">
<time>2016-10-08T02:00:50Z</time></trkpt>
<trkpt lat="29.619856" lon="94.66867">
<time>2016-10-08T02:00:51Z</time></trkpt>
<trkpt lat="29.619906" lon="94.66862">
<time>2016-10-08T02:00:52Z</time></trkpt>
<trkpt lat="29.619966" lon="94.66857">
<time>2016-10-08T02:00:53Z</time></trkpt>
<trkpt lat="29.620056" lon="94.668491">
<time>2016-10-08T02:00:54Z</time></trkpt>
<trkpt lat="29.620166" lon="94.668411">
<time>2016-10-08T02:00:55Z</time></trkpt>
<trkpt lat="29.620256" lon="94.668351">
<time>2016-10-08T02:00:56Z</time></trkpt>
<trkpt lat="29.620326" lon="94.668301">
<time>2016-10-08T02:00:57Z</time></trkpt>
<trkpt lat="29.620396" lon="94.668251">
<time>2016-10-08T02:00:58Z</time></trkpt>
<trkpt lat="29.620497" lon="94.668181">
<time>2016-10-08T02:00:59Z</time></trkpt>
<trkpt lat="29.620537" lon="94.668151">
<time>2016-10-08T02:01:00Z</time></trkpt>
<trkpt lat="29.620577" lon="94.668101">
<time>2016-10-08T02:01:01Z</time></trkpt>
<trkpt lat="29.620607" lon="94.668051">
<time>2016-10-08T02:01:02Z</time></trkpt>
<trkpt lat="29.620627" lon="94.668012">
<time>2016-10-08T02:01:03Z</time></trkpt>
<trkpt lat="29.620647" lon="94.667972">
<time>2016-10-08T02:01:04Z</time></trkpt>
<trkpt lat="29.620657" lon="94.667942">
<time>2016-10-08T02:01:05Z</time></trkpt>
<trkpt lat="29.620667" lon="94.667872">
<time>2016-10-08T02:01:06Z</time></trkpt>
<trkpt lat="29.620677" lon="94.667822">
<time>2016-10-08T02:01:07Z</time></trkpt>
<trkpt lat="29.620677" lon="94.667772">
<time>2016-10-08T02:01:08Z</time></trkpt>
<trkpt lat="29.620677" lon="94.667722">
<time>2016-10-08T02:01:09Z</time></trkpt>
<trkpt lat="29.620667" lon="94.667672">
<time>2016-10-08T02:01:10Z</time></trkpt>
<trkpt lat="29.620658" lon="94.667622">
<time>2016-10-08T02:01:11Z</time></trkpt>
<trkpt lat="29.620648" lon="94.667563">
<time>2016-10-08T02:01:12Z</time></trkpt>
<trkpt lat="29.620618" lon="94.667503">
<time>2016-10-08T02:01:13Z</time></trkpt>
<trkpt lat="29.620598" lon="94.667453">
<time>2016-10-08T02:01:14Z</time></trkpt>
<trkpt lat="29.620548" lon="94.667383">
<time>2016-10-08T02:01:15Z</time></trkpt>
<trkpt lat="29.620508" lon="94.667323">
<time>2016-10-08T02:01:16Z</time></trkpt>
<trkpt lat="29.620428" lon="94.667243">
<time>2016-10-08T02:01:17Z</time></trkpt>
<trkpt lat="29.620368" lon="94.667183">
<time>2016-10-08T02:01:18Z</time></trkpt>
<trkpt lat="29.620089" lon="94.666874">
<time>2016-10-08T02:01:19Z</time></trkpt>
<trkpt lat="29.61983" lon="94.666595">
<time>2016-10-08T02:01:20Z</time></trkpt>
<trkpt lat="29.61971" lon="94.666455">
<time>2016-10-08T02:01:21Z</time></trkpt>
<trkpt lat="29.61965" lon="94.666355">
<time>2016-10-08T02:01:22Z</time></trkpt>
<trkpt lat="29.61962" lon="94.666305">
<time>2016-10-08T02:01:23Z</time></trkpt>
<trkpt lat="29.61961" lon="94.666255">
<time>2016-10-08T02:01:24Z</time></trkpt>
<trkpt lat="29.619601" lon="94.666186">
<time>2016-10-08T02:01:25Z</time></trkpt>
<trkpt lat="29.619601" lon="94.666136">
<time>2016-10-08T02:01:26Z</time></trkpt>
<trkpt lat="29.619601" lon="94.666076">
<time>2016-10-08T02:01:27Z</time></trkpt>
<trkpt lat="29.619611" lon="94.666026">
<time>2016-10-08T02:01:28Z</time></trkpt>
<trkpt lat="29.619631" lon="94.665946">
<time>2016-10-08T02:01:29Z</time></trkpt>
<trkpt lat="29.619651" lon="94.665896">
<time>2016-10-08T02:01:30Z</time></trkpt>
<trkpt lat="29.619681" lon="94.665826">
<time>2016-10-08T02:01:31Z</time></trkpt>
<trkpt lat="29.619782" lon="94.665607">
<time>2016-10-08T02:01:32Z</time></trkpt>
<trkpt lat="29.619902" lon="94.665347">
<time>2016-10-08T02:01:33Z</time></trkpt>
<trkpt lat="29.619982" lon="94.665148">
<time>2016-10-08T02:01:34Z</time></trkpt>
<trkpt lat="29.620013" lon="94.665058">
<time>2016-10-08T02:01:35Z</time></trkpt>
<trkpt lat="29.620023" lon="94.664998">
<time>2016-10-08T02:01:36Z</time></trkpt>
<trkpt lat="29.620023" lon="94.664938">
<time>2016-10-08T02:01:37Z</time></trkpt>
<trkpt lat="29.620023" lon="94.664878">
<time>2016-10-08T02:01:38Z</time></trkpt>
<trkpt lat="29.620003" lon="94.664819">
<time>2016-10-08T02:01:39Z</time></trkpt>
<trkpt lat="29.619993" lon="94.664789">
<time>2016-10-08T02:01:40Z</time></trkpt>
<trkpt lat="29.619973" lon="94.664749">
<time>2016-10-08T02:01:41Z</time></trkpt>
<trkpt lat="29.619943" lon="94.664699">
<time>2016-10-08T02:01:42Z</time></trkpt>
<trkpt lat="29.619903" lon="94.664669">
<time>2016-10-08T02:01:43Z</time></trkpt>
<trkpt lat="29.619853" lon="94.664639">
<time>2016-10-08T02:01:44Z</time></trkpt>
<trkpt lat="29.619814" lon="94.664609">
<time>2016-10-08T02:01:45Z</time></trkpt>
<trkpt lat="29.619764" lon="94.664599">
<time>2016-10-08T02:01:46Z</time></trkpt>
<trkpt lat="29.619714" lon="94.664589">
<time>2016-10-08T02:01:47Z</time></trkpt>
<trkpt lat="29.619664" lon="94.664589">
<time>2016-10-08T02:01:48Z</time></trkpt>
<trkpt lat="29.619604" lon="94.664599">
<time>2016-10-08T02:01:49Z</time></trkpt>
<trkpt lat="29.619534" lon="94.664609">
<time>2016-10-08T02:01:50Z</time></trkpt>
<trkpt lat="29.619334" lon="94.664649">
<time>2016-10-08T02:01:51Z</time></trkpt>
<trkpt lat="29.619204" lon="94.664669">
<time>2016-10-08T02:01:52Z</time></trkpt>
<trkpt lat="29.619124" lon="94.664689">
<time>2016-10-08T02:01:53Z</time></trkpt>
<trkpt lat="29.619044" lon="94.664709">
<time>2016-10-08T02:01:54Z</time></trkpt>
<trkpt lat="29.618934" lon="94.664729">
<time>2016-10-08T02:01:55Z</time></trkpt>
<trkpt lat="29.618874" lon="94.664739">
<time>2016-10-08T02:01:56Z</time></trkpt>
<trkpt lat="29.618744" lon="94.664759">
<time>2016-10-08T02:01:57Z</time></trkpt>
<trkpt lat="29.618714" lon="94.664769">
<time>2016-10-08T02:01:58Z</time></trkpt>
<trkpt lat="29.618594" lon="94.664789">
<time>2016-10-08T02:01:59Z</time></trkpt>
<trkpt lat="29.618534" lon="94.664789">
<time>2016-10-08T02:02:00Z</time></trkpt>
<trkpt lat="29.618454" lon="94.664799">
<time>2016-10-08T02:02:01Z</time></trkpt>
<trkpt lat="29.618384" lon="94.664789">
<time>2016-10-08T02:02:02Z</time></trkpt>
<trkpt lat="29.618294" lon="94.664769">
<time>2016-10-08T02:02:03Z</time></trkpt>
<trkpt lat="29.618244" lon="94.664759">
<time>2016-10-08T02:02:04Z</time></trkpt>
<trkpt lat="29.618174" lon="94.664729">
<time>2016-10-08T02:02:05Z</time></trkpt>
<trkpt lat="29.618124" lon="94.664699">
<time>2016-10-08T02:02:06Z</time></trkpt>
<trkpt lat="29.618084" lon="94.664669">
<time>2016-10-08T02:02:07Z</time></trkpt>
<trkpt lat="29.618044" lon="94.664639">
<time>2016-10-08T02:02:08Z</time></trkpt>
<trkpt lat="29.617994" lon="94.664599">
<time>2016-10-08T02:02:09Z</time></trkpt>
<trkpt lat="29.617964" lon="94.664549">
<time>2016-10-08T02:02:10Z</time></trkpt>
<trkpt lat="29.617934" lon="94.664509">
<time>2016-10-08T02:02:11Z</time></trkpt>
<trkpt lat="29.617904" lon="94.664449">
<time>2016-10-08T02:02:12Z</time></trkpt>
<trkpt lat="29.617875" lon="94.66436">
<time>2016-10-08T02:02:13Z</time></trkpt>
<trkpt lat="29.617855" lon="94.66431">
<time>2016-10-08T02:02:14Z</time></trkpt>
<trkpt lat="29.617835" lon="94.66424">
<time>2016-10-08T02:02:15Z</time></trkpt>
<trkpt lat="29.617825" lon="94.66417">
<time>2016-10-08T02:02:16Z</time></trkpt>
<trkpt lat="29.617825" lon="94.6641">
<time>2016-10-08T02:02:17Z</time></trkpt>
<trkpt lat="29.617835" lon="94.66401">
<time>2016-10-08T02:02:18Z</time></trkpt>
<trkpt lat="29.617845" lon="94.663881">
<time>2016-10-08T02:02:19Z</time></trkpt>
<trkpt lat="29.617866" lon="94.663781">
<time>2016-10-08T02:02:20Z</time></trkpt>
<trkpt lat="29.617896" lon="94.663571">
<time>2016-10-08T02:02:21Z</time></trkpt>
<trkpt lat="29.617977" lon="94.663162">
<time>2016-10-08T02:02:22Z</time></trkpt>
<trkpt lat="29.618048" lon="94.662763">
<time>2016-10-08T02:02:23Z</time></trkpt>
<trkpt lat="29.618078" lon="94.662563">
<time>2016-10-08T02:02:24Z</time></trkpt>
<trkpt lat="29.618118" lon="94.662384">
<time>2016-10-08T02:02:25Z</time></trkpt>
<trkpt lat="29.618169" lon="94.662124">
<time>2016-10-08T02:02:26Z</time></trkpt>
<trkpt lat="29.618209" lon="94.661925">
<time>2016-10-08T02:02:27Z</time></trkpt>
<trkpt lat="29.618239" lon="94.661815">
<time>2016-10-08T02:02:28Z</time></trkpt>
<trkpt lat="29.618279" lon="94.661725">
<time>2016-10-08T02:02:29Z</time></trkpt>
<trkpt lat="29.61833" lon="94.661615">
<time>2016-10-08T02:02:30Z</time></trkpt>
<trkpt lat="29.61841" lon="94.661476">
<time>2016-10-08T02:02:31Z</time></trkpt>
<trkpt lat="29.61849" lon="94.661326">
<time>2016-10-08T02:02:32Z</time></trkpt>
<trkpt lat="29.61858" lon="94.661196">
<time>2016-10-08T02:02:33Z</time></trkpt>
<trkpt lat="29.618661" lon="94.661057">
<time>2016-10-08T02:02:34Z</time></trkpt>
<trkpt lat="29.618741" lon="94.660927">
<time>2016-10-08T02:02:35Z</time></trkpt>
<trkpt lat="29.618781" lon="94.660847">
<time>2016-10-08T02:02:36Z</time></trkpt>
<trkpt lat="29.618811" lon="94.660767">
<time>2016-10-08T02:02:37Z</time></trkpt>
<trkpt lat="29.618821" lon="94.660717">
<time>2016-10-08T02:02:38Z</time></trkpt>
<trkpt lat="29.618831" lon="94.660667">
<time>2016-10-08T02:02:39Z</time></trkpt>
<trkpt lat="29.618831" lon="94.660618">
<time>2016-10-08T02:02:40Z</time></trkpt>
<trkpt lat="29.618821" lon="94.660578">
<time>2016-10-08T02:02:41Z</time></trkpt>
<trkpt lat="29.618812" lon="94.660538">
<time>2016-10-08T02:02:42Z</time></trkpt>
<trkpt lat="29.618792" lon="94.660498">
<time>2016-10-08T02:02:43Z</time></trkpt>
<trkpt lat="29.618772" lon="94.660468">
<time>2016-10-08T02:02:44Z</time></trkpt>
<trkpt lat="29.618752" lon="94.660428">
<time>2016-10-08T02:02:45Z</time></trkpt>
<trkpt lat="29.618712" lon="94.660398">
<time>2016-10-08T02:02:46Z</time></trkpt>
<trkpt lat="29.618672" lon="94.660368">
<time>2016-10-08T02:02:47Z</time></trkpt>
<trkpt lat="29.618632" lon="94.660348">
<time>2016-10-08T02:02:48Z</time></trkpt>
<trkpt lat="29.618582" lon="94.660338">
<time>2016-10-08T02:02:49Z</time></trkpt>
<trkpt lat="29.618542" lon="94.660338">
<time>2016-10-08T02:02:50Z</time></trkpt>
<trkpt lat="29.618492" lon="94.660338">
<time>2016-10-08T02:02:51Z</time></trkpt>
<trkpt lat="29.618412" lon="94.660358">
<time>2016-10-08T02:02:52Z</time></trkpt>
<trkpt lat="29.618352" lon="94.660378">
<time>2016-10-08T02:02:53Z</time></trkpt>
<trkpt lat="29.618022" lon="94.660488">
<time>2016-10-08T02:02:54Z</time></trkpt>
<trkpt lat="29.617902" lon="94.660528">
<time>2016-10-08T02:02:55Z</time></trkpt>
<trkpt lat="29.617712" lon="94.660588">
<time>2016-10-08T02:02:56Z</time></trkpt>
<trkpt lat="29.617622" lon="94.660608">
<time>2016-10-08T02:02:57Z</time></trkpt>
<trkpt lat="29.617542" lon="94.660618">
<time>2016-10-08T02:02:58Z</time></trkpt>
<trkpt lat="29.617452" lon="94.660618">
<time>2016-10-08T02:02:59Z</time></trkpt>
<trkpt lat="29.617372" lon="94.660588">
<time>2016-10-08T02:03:00Z</time></trkpt>
<trkpt lat="29.617322" lon="94.660548">
<time>2016-10-08T02:03:01Z</time></trkpt>
<trkpt lat="29.617282" lon="94.660518">
<time>2016-10-08T02:03:02Z</time></trkpt>
<trkpt lat="29.617252" lon="94.660468">
<time>2016-10-08T02:03:03Z</time></trkpt>
<trkpt lat="29.617222" lon="94.660418">
<time>2016-10-08T02:03:04Z</time></trkpt>
<trkpt lat="29.617182" lon="94.660328">
<time>2016-10-08T02:03:05Z</time></trkpt>
<trkpt lat="29.617153" lon="94.660238">
<time>2016-10-08T02:03:06Z</time></trkpt>
<trkpt lat="29.617113" lon="94.660109">
<time>2016-10-08T02:03:07Z</time></trkpt>
<trkpt lat="29.617083" lon="94.659959">
<time>2016-10-08T02:03:08Z</time></trkpt>
<trkpt lat="29.617063" lon="94.659819">
<time>2016-10-08T02:03:09Z</time></trkpt>
<trkpt lat="29.617063" lon="94.659749">
<time>2016-10-08T02:03:10Z</time></trkpt>
<trkpt lat="29.617064" lon="94.65968">
<time>2016-10-08T02:03:11Z</time></trkpt>
<trkpt lat="29.617074" lon="94.65957">
<time>2016-10-08T02:03:12Z</time></trkpt>
<trkpt lat="29.617104" lon="94.65945">
<time>2016-10-08T02:03:13Z</time></trkpt>
<trkpt lat="29.617134" lon="94.65935">
<time>2016-10-08T02:03:14Z</time></trkpt>
<trkpt lat="29.617174" lon="94.659231">
<time>2016-10-08T02:03:15Z</time></trkpt>
<trkpt lat="29.617225" lon="94.659051">
<time>2016-10-08T02:03:16Z</time></trkpt>
<trkpt lat="29.617265" lon="94.658871">
<time>2016-10-08T02:03:17Z</time></trkpt>
<trkpt lat="29.617285" lon="94.658782">
<time>2016-10-08T02:03:18Z</time></trkpt>
<trkpt lat="29.617295" lon="94.658742">
<time>2016-10-08T02:03:19Z</time></trkpt>
<trkpt lat="29.617295" lon="94.658682">
<time>2016-10-08T02:03:20Z</time></trkpt>
<trkpt lat="29.617295" lon="94.658632">
<time>2016-10-08T02:03:21Z</time></trkpt>
<trkpt lat="29.617276" lon="94.658582">
<time>2016-10-08T02:03:22Z</time></trkpt>
<trkpt lat="29.617266" lon="94.658542">
<time>2016-10-08T02:03:23Z</time></trkpt>
<trkpt lat="29.617256" lon="94.658522">
<time>2016-10-08T02:03:24Z</time></trkpt>
<trkpt lat="29.617216" lon="94.658462">
<time>2016-10-08T02:03:25Z</time></trkpt>
<trkpt lat="29.617156" lon="94.658422">
<time>2016-10-08T02:03:26Z</time></trkpt>
<trkpt lat="29.617106" lon="94.658402">
<time>2016-10-08T02:03:27Z</time></trkpt>
<trkpt lat="29.617036" lon="94.658382">
<time>2016-10-08T02:03:28Z</time></trkpt>
<trkpt lat="29.616956" lon="94.658372">
<time>2016-10-08T02:03:29Z</time></trkpt>
<trkpt lat="29.616876" lon="94.658382">
<time>2016-10-08T02:03:30Z</time></trkpt>
<trkpt lat="29.616756" lon="94.658392">
<time>2016-10-08T02:03:31Z</time></trkpt>
<trkpt lat="29.616616" lon="94.658402">
<time>2016-10-08T02:03:32Z</time></trkpt>
<trkpt lat="29.616516" lon="94.658402">
<time>2016-10-08T02:03:33Z</time></trkpt>
<trkpt lat="29.616326" lon="94.658362">
<time>2016-10-08T02:03:34Z</time></trkpt>
<trkpt lat="29.616106" lon="94.658283">
<time>2016-10-08T02:03:35Z</time></trkpt>
<trkpt lat="29.615947" lon="94.658213">
<time>2016-10-08T02:03:36Z</time></trkpt>
<trkpt lat="29.615847" lon="94.658163">
<time>2016-10-08T02:03:37Z</time></trkpt>
<trkpt lat="29.615427" lon="94.657963">
<time>2016-10-08T02:03:38Z</time></trkpt>
<trkpt lat="29.615138" lon="94.657824">
<time>2016-10-08T02:03:39Z</time></trkpt>
<trkpt lat="29.614808" lon="94.657684">
<time>2016-10-08T02:03:40Z</time></trkpt>
<trkpt lat="29.614588" lon="94.657574">
<time>2016-10-08T02:03:41Z</time></trkpt>
<trkpt lat="29.614478" lon="94.657504">
<time>2016-10-08T02:03:42Z</time></trkpt>
<trkpt lat="29.614418" lon="94.657464">
<time>2016-10-08T02:03:43Z</time></trkpt>
<trkpt lat="29.614359" lon="94.657414">
<time>2016-10-08T02:03:44Z</time></trkpt>
<trkpt lat="29.614299" lon="94.657345">
<time>2016-10-08T02:03:45Z</time></trkpt>
<trkpt lat="29.614239" lon="94.657275">
<time>2016-10-08T02:03:46Z</time></trkpt>
<trkpt lat="29.614189" lon="94.657185">
<time>2016-10-08T02:03:47Z</time></trkpt>
<trkpt lat="29.614089" lon="94.657025">
<time>2016-10-08T02:03:48Z</time></trkpt>
<trkpt lat="29.61395" lon="94.656766">
<time>2016-10-08T02:03:49Z</time></trkpt>
<trkpt lat="29.61383" lon="94.656516">
<time>2016-10-08T02:03:50Z</time></trkpt>
<trkpt lat="29.613741" lon="94.656337">
<time>2016-10-08T02:03:51Z</time></trkpt>
<trkpt lat="29.613621" lon="94.656117">
<time>2016-10-08T02:03:52Z</time></trkpt>
<trkpt lat="29.613521" lon="94.655987">
<time>2016-10-08T02:03:53Z</time></trkpt>
<trkpt lat="29.613422" lon="94.655838">
<time>2016-10-08T02:03:54Z</time></trkpt>
<trkpt lat="29.613282" lon="94.655678">
<time>2016-10-08T02:03:55Z</time></trkpt>
<trkpt lat="29.613182" lon="94.655578">
<time>2016-10-08T02:03:56Z</time></trkpt>
<trkpt lat="29.613092" lon="94.655498">
<time>2016-10-08T02:03:57Z</time></trkpt>
<trkpt lat="29.612943" lon="94.655389">
<time>2016-10-08T02:03:58Z</time></trkpt>
<trkpt lat="29.612823" lon="94.655309">
<time>2016-10-08T02:03:59Z</time></trkpt>
<trkpt lat="29.612623" lon="94.655189">
<time>2016-10-08T02:04:00Z</time></trkpt>
<trkpt lat="29.612324" lon="94.655009">
<time>2016-10-08T02:04:01Z</time></trkpt>
<trkpt lat="29.612204" lon="94.65493">
<time>2016-10-08T02:04:02Z</time></trkpt>
<trkpt lat="29.612084" lon="94.65486">
<time>2016-10-08T02:04:03Z</time></trkpt>
<trkpt lat="29.611944" lon="94.65477">
<time>2016-10-08T02:04:04Z</time></trkpt>
<trkpt lat="29.611854" lon="94.65469">
<time>2016-10-08T02:04:05Z</time></trkpt>
<trkpt lat="29.611764" lon="94.65459">
<time>2016-10-08T02:04:06Z</time></trkpt>
<trkpt lat="29.611665" lon="94.654471">
<time>2016-10-08T02:04:07Z</time></trkpt>
<trkpt lat="29.611625" lon="94.654421">
<time>2016-10-08T02:04:08Z</time></trkpt>
<trkpt lat="29.611585" lon="94.654341">
<time>2016-10-08T02:04:09Z</time></trkpt>
<trkpt lat="29.611555" lon="94.654271">
<time>2016-10-08T02:04:10Z</time></trkpt>
<trkpt lat="29.611515" lon="94.654151">
<time>2016-10-08T02:04:11Z</time></trkpt>
<trkpt lat="29.611346" lon="94.653652">
<time>2016-10-08T02:04:12Z</time></trkpt>
<trkpt lat="29.611078" lon="94.652914">
<time>2016-10-08T02:04:13Z</time></trkpt>
<trkpt lat="29.610809" lon="94.651956">
<time>2016-10-08T02:04:14Z</time></trkpt>
<trkpt lat="29.61077" lon="94.651826">
<time>2016-10-08T02:04:15Z</time></trkpt>
<trkpt lat="29.61076" lon="94.651726">
<time>2016-10-08T02:04:16Z</time></trkpt>
<trkpt lat="29.61076" lon="94.651656">
<time>2016-10-08T02:04:17Z</time></trkpt>
<trkpt lat="29.61077" lon="94.651596">
<time>2016-10-08T02:04:18Z</time></trkpt>
<trkpt lat="29.61079" lon="94.651547">
<time>2016-10-08T02:04:19Z</time></trkpt>
<trkpt lat="29.61081" lon="94.651517">
<time>2016-10-08T02:04:20Z</time></trkpt>
<trkpt lat="29.61085" lon="94.651467">
<time>2016-10-08T02:04:21Z</time></trkpt>
<trkpt lat="29.61087" lon="94.651437">
<time>2016-10-08T02:04:22Z</time></trkpt>
<trkpt lat="29.61092" lon="94.651397">
<time>2016-10-08T02:04:23Z</time></trkpt>
<trkpt lat="29.61097" lon="94.651377">
<time>2016-10-08T02:04:24Z</time></trkpt>
<trkpt lat="29.61104" lon="94.651347">
<time>2016-10-08T02:04:25Z</time></trkpt>
<trkpt lat="29.61112" lon="94.651327">
<time>2016-10-08T02:04:26Z</time></trkpt>
<trkpt lat="29.611481" lon="94.651247">
<time>2016-10-08T02:04:27Z</time></trkpt>
<trkpt lat="29.611701" lon="94.651197">
<time>2016-10-08T02:04:28Z</time></trkpt>
<trkpt lat="29.611961" lon="94.651127">
<time>2016-10-08T02:04:29Z</time></trkpt>
<trkpt lat="29.612171" lon="94.651047">
<time>2016-10-08T02:04:30Z</time></trkpt>
<trkpt lat="29.612311" lon="94.650988">
<time>2016-10-08T02:04:31Z</time></trkpt>
<trkpt lat="29.612491" lon="94.650908">
<time>2016-10-08T02:04:32Z</time></trkpt>
<trkpt lat="29.612591" lon="94.650848">
<time>2016-10-08T02:04:33Z</time></trkpt>
<trkpt lat="29.612771" lon="94.650738">
<time>2016-10-08T02:04:34Z</time></trkpt>
<trkpt lat="29.612911" lon="94.650638">
<time>2016-10-08T02:04:35Z</time></trkpt>
<trkpt lat="29.612991" lon="94.650588">
<time>2016-10-08T02:04:36Z</time></trkpt>
<trkpt lat="29.613171" lon="94.650439">
<time>2016-10-08T02:04:37Z</time></trkpt>
<trkpt lat="29.613292" lon="94.650329">
<time>2016-10-08T02:04:38Z</time></trkpt>
<trkpt lat="29.613382" lon="94.650239">
<time>2016-10-08T02:04:39Z</time></trkpt>
<trkpt lat="29.613542" lon="94.650069">
<time>2016-10-08T02:04:40Z</time></trkpt>
<trkpt lat="29.613652" lon="94.64994">
<time>2016-10-08T02:04:41Z</time></trkpt>
<trkpt lat="29.613762" lon="94.6498">
<time>2016-10-08T02:04:42Z</time></trkpt>
<trkpt lat="29.613923" lon="94.64959">
<time>2016-10-08T02:04:43Z</time></trkpt>
<trkpt lat="29.614143" lon="94.649251">
<time>2016-10-08T02:04:44Z</time></trkpt>
<trkpt lat="29.614494" lon="94.648732">
<time>2016-10-08T02:04:45Z</time></trkpt>
<trkpt lat="29.614775" lon="94.648333">
<time>2016-10-08T02:04:46Z</time></trkpt>
<trkpt lat="29.615035" lon="94.647944">
<time>2016-10-08T02:04:47Z</time></trkpt>
<trkpt lat="29.615266" lon="94.647604">
<time>2016-10-08T02:04:48Z</time></trkpt>
<trkpt lat="29.615456" lon="94.647325">
<time>2016-10-08T02:04:49Z</time></trkpt>
<trkpt lat="29.615556" lon="94.647155">
<time>2016-10-08T02:04:50Z</time></trkpt>
<trkpt lat="29.615647" lon="94.646985">
<time>2016-10-08T02:04:51Z</time></trkpt>
<trkpt lat="29.615747" lon="94.646786">
<time>2016-10-08T02:04:52Z</time></trkpt>
<trkpt lat="29.615837" lon="94.646586">
<time>2016-10-08T02:04:53Z</time></trkpt>
<trkpt lat="29.615908" lon="94.646396">
<time>2016-10-08T02:04:54Z</time></trkpt>
<trkpt lat="29.615968" lon="94.646207">
<time>2016-10-08T02:04:55Z</time></trkpt>
<trkpt lat="29.616069" lon="94.645798">
<time>2016-10-08T02:04:56Z</time></trkpt>
<trkpt lat="29.616179" lon="94.645378">
<time>2016-10-08T02:04:57Z</time></trkpt>
<trkpt lat="29.61629" lon="94.644909">
<time>2016-10-08T02:04:58Z</time></trkpt>
<trkpt lat="29.616391" lon="94.64447">
<time>2016-10-08T02:04:59Z</time></trkpt>
<trkpt lat="29.616471" lon="94.644121">
<time>2016-10-08T02:05:00Z</time></trkpt>
<trkpt lat="29.616562" lon="94.643771">
<time>2016-10-08T02:05:01Z</time></trkpt>
<trkpt lat="29.616622" lon="94.643572">
<time>2016-10-08T02:05:02Z</time></trkpt>
<trkpt lat="29.616692" lon="94.643352">
<time>2016-10-08T02:05:03Z</time></trkpt>
<trkpt lat="29.616753" lon="94.643192">
<time>2016-10-08T02:05:04Z</time></trkpt>
<trkpt lat="29.616903" lon="94.642833">
<time>2016-10-08T02:05:05Z</time></trkpt>
<trkpt lat="29.617084" lon="94.642384">
<time>2016-10-08T02:05:06Z</time></trkpt>
<trkpt lat="29.617224" lon="94.642024">
<time>2016-10-08T02:05:07Z</time></trkpt>
<trkpt lat="29.617345" lon="94.641725">
<time>2016-10-08T02:05:08Z</time></trkpt>
<trkpt lat="29.617425" lon="94.641555">
<time>2016-10-08T02:05:09Z</time></trkpt>
<trkpt lat="29.617475" lon="94.641465">
<time>2016-10-08T02:05:10Z</time></trkpt>
<trkpt lat="29.617575" lon="94.641286">
<time>2016-10-08T02:05:11Z</time></trkpt>
<trkpt lat="29.617696" lon="94.641106">
<time>2016-10-08T02:05:12Z</time></trkpt>
<trkpt lat="29.617806" lon="94.640946">
<time>2016-10-08T02:05:13Z</time></trkpt>
<trkpt lat="29.618056" lon="94.640617">
<time>2016-10-08T02:05:14Z</time></trkpt>
<trkpt lat="29.618187" lon="94.640437">
<time>2016-10-08T02:05:15Z</time></trkpt>
<trkpt lat="29.618297" lon="94.640307">
<time>2016-10-08T02:05:16Z</time></trkpt>
<trkpt lat="29.618417" lon="94.640158">
<time>2016-10-08T02:05:17Z</time></trkpt>
<trkpt lat="29.618647" lon="94.639908">
<time>2016-10-08T02:05:18Z</time></trkpt>
<trkpt lat="29.618928" lon="94.639589">
<time>2016-10-08T02:05:19Z</time></trkpt>
<trkpt lat="29.619178" lon="94.639269">
<time>2016-10-08T02:05:20Z</time></trkpt>
<trkpt lat="29.619399" lon="94.63898">
<time>2016-10-08T02:05:21Z</time></trkpt>
<trkpt lat="29.619529" lon="94.63879">
<time>2016-10-08T02:05:22Z</time></trkpt>
<trkpt lat="29.619699" lon="94.63855">
<time>2016-10-08T02:05:23Z</time></trkpt>
<trkpt lat="29.619919" lon="94.638251">
<time>2016-10-08T02:05:24Z</time></trkpt>
<trkpt lat="29.62" lon="94.638151">
<time>2016-10-08T02:05:25Z</time></trkpt>
<trkpt lat="29.62007" lon="94.638051">
<time>2016-10-08T02:05:26Z</time></trkpt>
<trkpt lat="29.62019" lon="94.637912">
<time>2016-10-08T02:05:27Z</time></trkpt>
<trkpt lat="29.62027" lon="94.637822">
<time>2016-10-08T02:05:28Z</time></trkpt>
<trkpt lat="29.62037" lon="94.637722">
<time>2016-10-08T02:05:29Z</time></trkpt>
<trkpt lat="29.6204" lon="94.637682">
<time>2016-10-08T02:05:30Z</time></trkpt>
<trkpt lat="29.6205" lon="94.637582">
<time>2016-10-08T02:05:31Z</time></trkpt>
<trkpt lat="29.6206" lon="94.637492">
<time>2016-10-08T02:05:32Z</time></trkpt>
<trkpt lat="29.620701" lon="94.637402">
<time>2016-10-08T02:05:33Z</time></trkpt>
<trkpt lat="29.620791" lon="94.637342">
<time>2016-10-08T02:05:34Z</time></trkpt>
<trkpt lat="29.620901" lon="94.637253">
<time>2016-10-08T02:05:35Z</time></trkpt>
<trkpt lat="29.621031" lon="94.637153">
<time>2016-10-08T02:05:36Z</time></trkpt>
<trkpt lat="29.621151" lon="94.637083">
<time>2016-10-08T02:05:37Z</time></trkpt>
<trkpt lat="29.621271" lon="94.637003">
<time>2016-10-08T02:05:38Z</time></trkpt>
<trkpt lat="29.621381" lon="94.636933">
<time>2016-10-08T02:05:39Z</time></trkpt>
<trkpt lat="29.621521" lon="94.636873">
<time>2016-10-08T02:05:40Z</time></trkpt>
<trkpt lat="29.621701" lon="94.636783">
<time>2016-10-08T02:05:41Z</time></trkpt>
<trkpt lat="29.621841" lon="94.636733">
<time>2016-10-08T02:05:42Z</time></trkpt>
<trkpt lat="29.621971" lon="94.636684">
<time>2016-10-08T02:05:43Z</time></trkpt>
<trkpt lat="29.622101" lon="94.636644">
<time>2016-10-08T02:05:44Z</time></trkpt>
<trkpt lat="29.622341" lon="94.636584">
<time>2016-10-08T02:05:45Z</time></trkpt>
<trkpt lat="29.622511" lon="94.636554">
<time>2016-10-08T02:05:46Z</time></trkpt>
<trkpt lat="29.622611" lon="94.636544">
<time>2016-10-08T02:05:47Z</time></trkpt>
<trkpt lat="29.622811" lon="94.636524">
<time>2016-10-08T02:05:48Z</time></trkpt>
<trkpt lat="29.623141" lon="94.636514">
<time>2016-10-08T02:05:49Z</time></trkpt>
<trkpt lat="29.623561" lon="94.636484">
<time>2016-10-08T02:05:50Z</time></trkpt>
<trkpt lat="29.623891" lon="94.636464">
<time>2016-10-08T02:05:51Z</time></trkpt>
<trkpt lat="29.624101" lon="94.636434">
<time>2016-10-08T02:05:52Z</time></trkpt>
<trkpt lat="29.624341" lon="94.636404">
<time>2016-10-08T02:05:53Z</time></trkpt>
<trkpt lat="29.624771" lon="94.636324">
<time>2016-10-08T02:05:54Z</time></trkpt>
<trkpt lat="29.625181" lon="94.636254">
<time>2016-10-08T02:05:55Z</time></trkpt>
<trkpt lat="29.625881" lon="94.636134">
<time>2016-10-08T02:05:56Z</time></trkpt>
<trkpt lat="29.626081" lon="94.636094">
<time>2016-10-08T02:05:57Z</time></trkpt>
<trkpt lat="29.626301" lon="94.636054">
<time>2016-10-08T02:05:58Z</time></trkpt>
<trkpt lat="29.626511" lon="94.635985">
<time>2016-10-08T02:05:59Z</time></trkpt>
<trkpt lat="29.626651" lon="94.635935">
<time>2016-10-08T02:06:00Z</time></trkpt>
<trkpt lat="29.626781" lon="94.635875">
<time>2016-10-08T02:06:01Z</time></trkpt>
<trkpt lat="29.626961" lon="94.635765">
<time>2016-10-08T02:06:02Z</time></trkpt>
<trkpt lat="29.627061" lon="94.635705">
<time>2016-10-08T02:06:03Z</time></trkpt>
<trkpt lat="29.627161" lon="94.635645">
<time>2016-10-08T02:06:04Z</time></trkpt>
<trkpt lat="29.627311" lon="94.635525">
<time>2016-10-08T02:06:05Z</time></trkpt>
<trkpt lat="29.627402" lon="94.635435">
<time>2016-10-08T02:06:06Z</time></trkpt>
<trkpt lat="29.627572" lon="94.635276">
<time>2016-10-08T02:06:07Z</time></trkpt>
<trkpt lat="29.627882" lon="94.634946">
<time>2016-10-08T02:06:08Z</time></trkpt>
<trkpt lat="29.628072" lon="94.634737">
<time>2016-10-08T02:06:09Z</time></trkpt>
<trkpt lat="29.628403" lon="94.634387">
<time>2016-10-08T02:06:10Z</time></trkpt>
<trkpt lat="29.628513" lon="94.634287">
<time>2016-10-08T02:06:11Z</time></trkpt>
<trkpt lat="29.628633" lon="94.634167">
<time>2016-10-08T02:06:12Z</time></trkpt>
<trkpt lat="29.628763" lon="94.634048">
<time>2016-10-08T02:06:13Z</time></trkpt>
<trkpt lat="29.628823" lon="94.633998">
<time>2016-10-08T02:06:14Z</time></trkpt>
<trkpt lat="29.628883" lon="94.633968">
<time>2016-10-08T02:06:15Z</time></trkpt>
<trkpt lat="29.628953" lon="94.633928">
<time>2016-10-08T02:06:16Z</time></trkpt>
<trkpt lat="29.629023" lon="94.633908">
<time>2016-10-08T02:06:17Z</time></trkpt>
<trkpt lat="29.629093" lon="94.633888">
<time>2016-10-08T02:06:18Z</time></trkpt>
<trkpt lat="29.629153" lon="94.633868">
<time>2016-10-08T02:06:19Z</time></trkpt>
<trkpt lat="29.629213" lon="94.633868">
<time>2016-10-08T02:06:20Z</time></trkpt>
<trkpt lat="29.629273" lon="94.633868">
<time>2016-10-08T02:06:21Z</time></trkpt>
<trkpt lat="29.629383" lon="94.633868">
<time>2016-10-08T02:06:22Z</time></trkpt>
<trkpt lat="29.629513" lon="94.633878">
<time>2016-10-08T02:06:23Z</time></trkpt>
<trkpt lat="29.629593" lon="94.633888">
<time>2016-10-08T02:06:24Z</time></trkpt>
<trkpt lat="29.629693" lon="94.633888">
<time>2016-10-08T02:06:25Z</time></trkpt>
<trkpt lat="29.629773" lon="94.633888">
<time>2016-10-08T02:06:26Z</time></trkpt>
<trkpt lat="29.629833" lon="94.633888">
<time>2016-10-08T02:06:27Z</time></trkpt>
<trkpt lat="29.629883" lon="94.633868">
<time>2016-10-08T02:06:28Z</time></trkpt>
<trkpt lat="29.629923" lon="94.633858">
<time>2016-10-08T02:06:29Z</time></trkpt>
<trkpt lat="29.629963" lon="94.633838">
<time>2016-10-08T02:06:30Z</time></trkpt>
<trkpt lat="29.630023" lon="94.633798">
<time>2016-10-08T02:06:31Z</time></trkpt>
<trkpt lat="29.630063" lon="94.633758">
<time>2016-10-08T02:06:32Z</time></trkpt>
<trkpt lat="29.630103" lon="94.633708">
<time>2016-10-08T02:06:33Z</time></trkpt>
<trkpt lat="29.630143" lon="94.633638">
<time>2016-10-08T02:06:34Z</time></trkpt>
<trkpt lat="29.630173" lon="94.633558">
<time>2016-10-08T02:06:35Z</time></trkpt>
<trkpt lat="29.630204" lon="94.633478">
<time>2016-10-08T02:06:36Z</time></trkpt>
<trkpt lat="29.630244" lon="94.633329">
<time>2016-10-08T02:06:37Z</time></trkpt>
<trkpt lat="29.630304" lon="94.633119">
<time>2016-10-08T02:06:38Z</time></trkpt>
<trkpt lat="29.630334" lon="94.632999">
<time>2016-10-08T02:06:39Z</time></trkpt>
<trkpt lat="29.630364" lon="94.632919">
<time>2016-10-08T02:06:40Z</time></trkpt>
<trkpt lat="29.630394" lon="94.632839">
<time>2016-10-08T02:06:41Z</time></trkpt>
<trkpt lat="29.630444" lon="94.63276">
<time>2016-10-08T02:06:42Z</time></trkpt>
<trkpt lat="29.630505" lon="94.63267">
<time>2016-10-08T02:06:43Z</time></trkpt>
<trkpt lat="29.630575" lon="94.63258">
<time>2016-10-08T02:06:44Z</time></trkpt>
<trkpt lat="29.630655" lon="94.6325">
<time>2016-10-08T02:06:45Z</time></trkpt>
<trkpt lat="29.630755" lon="94.63243">
<time>2016-10-08T02:06:46Z</time></trkpt>
<trkpt lat="29.630875" lon="94.63235">
<time>2016-10-08T02:06:47Z</time></trkpt>
<trkpt lat="29.630985" lon="94.63229">
<time>2016-10-08T02:06:48Z</time></trkpt>
<trkpt lat="29.631295" lon="94.63214">
<time>2016-10-08T02:06:49Z</time></trkpt>
<trkpt lat="29.631445" lon="94.632061">
<time>2016-10-08T02:06:50Z</time></trkpt>
<trkpt lat="29.631515" lon="94.632021">
<time>2016-10-08T02:06:51Z</time></trkpt>
<trkpt lat="29.631595" lon="94.631971">
<time>2016-10-08T02:06:52Z</time></trkpt>
<trkpt lat="29.631665" lon="94.631901">
<time>2016-10-08T02:06:53Z</time></trkpt>
<trkpt lat="29.631745" lon="94.631801">
<time>2016-10-08T02:06:54Z</time></trkpt>
<trkpt lat="29.631826" lon="94.631691">
<time>2016-10-08T02:06:55Z</time></trkpt>
<trkpt lat="29.631896" lon="94.631571">
<time>2016-10-08T02:06:56Z</time></trkpt>
<trkpt lat="29.631966" lon="94.631461">
<time>2016-10-08T02:06:57Z</time></trkpt>
<trkpt lat="29.632026" lon="94.631342">
<time>2016-10-08T02:06:58Z</time></trkpt>
<trkpt lat="29.632076" lon="94.631222">
<time>2016-10-08T02:06:59Z</time></trkpt>
<trkpt lat="29.632146" lon="94.631042">
<time>2016-10-08T02:07:00Z</time></trkpt>
<trkpt lat="29.632217" lon="94.630832">
<time>2016-10-08T02:07:01Z</time></trkpt>
<trkpt lat="29.632367" lon="94.630293">
<time>2016-10-08T02:07:02Z</time></trkpt>
<trkpt lat="29.632508" lon="94.629804">
<time>2016-10-08T02:07:03Z</time></trkpt>
<trkpt lat="29.632638" lon="94.629334">
<time>2016-10-08T02:07:04Z</time></trkpt>
<trkpt lat="29.632769" lon="94.628895">
<time>2016-10-08T02:07:05Z</time></trkpt>
<trkpt lat="29.632839" lon="94.628635">
<time>2016-10-08T02:07:06Z</time></trkpt>
<trkpt lat="29.632899" lon="94.628346">
<time>2016-10-08T02:07:07Z</time></trkpt>
<trkpt lat="29.63294" lon="94.628176">
<time>2016-10-08T02:07:08Z</time></trkpt>
<trkpt lat="29.63296" lon="94.628036">
<time>2016-10-08T02:07:09Z</time></trkpt>
<trkpt lat="29.63297" lon="94.627866">
<time>2016-10-08T02:07:10Z</time></trkpt>
<trkpt lat="29.63299" lon="94.627667">
<time>2016-10-08T02:07:11Z</time></trkpt>
<trkpt lat="29.633001" lon="94.627457">
<time>2016-10-08T02:07:12Z</time></trkpt>
<trkpt lat="29.633001" lon="94.627367">
<time>2016-10-08T02:07:13Z</time></trkpt>
<trkpt lat="29.633001" lon="94.627257">
<time>2016-10-08T02:07:14Z</time></trkpt>
<trkpt lat="29.632991" lon="94.627117">
<time>2016-10-08T02:07:15Z</time></trkpt>
<trkpt lat="29.632981" lon="94.627018">
<time>2016-10-08T02:07:16Z</time></trkpt>
<trkpt lat="29.632971" lon="94.626898">
<time>2016-10-08T02:07:17Z</time></trkpt>
<trkpt lat="29.632971" lon="94.626778">
<time>2016-10-08T02:07:18Z</time></trkpt>
<trkpt lat="29.632961" lon="94.626678">
<time>2016-10-08T02:07:19Z</time></trkpt>
<trkpt lat="29.632962" lon="94.626548">
<time>2016-10-08T02:07:20Z</time></trkpt>
<trkpt lat="29.632952" lon="94.626438">
<time>2016-10-08T02:07:21Z</time></trkpt>
<trkpt lat="29.632932" lon="94.626239">
<time>2016-10-08T02:07:22Z</time></trkpt>
<trkpt lat="29.632922" lon="94.626089">
<time>2016-10-08T02:07:23Z</time></trkpt>
<trkpt lat="29.632912" lon="94.625919">
<time>2016-10-08T02:07:24Z</time></trkpt>
<trkpt lat="29.632903" lon="94.625739">
<time>2016-10-08T02:07:25Z</time></trkpt>
<trkpt lat="29.632883" lon="94.625599">
<time>2016-10-08T02:07:26Z</time></trkpt>
<trkpt lat="29.632853" lon="94.625489">
<time>2016-10-08T02:07:27Z</time></trkpt>
<trkpt lat="29.632813" lon="94.62537">
<time>2016-10-08T02:07:28Z</time></trkpt>
<trkpt lat="29.632783" lon="94.62532">
<time>2016-10-08T02:07:29Z</time></trkpt>
<trkpt lat="29.632743" lon="94.62525">
<time>2016-10-08T02:07:30Z</time></trkpt>
<trkpt lat="29.632703" lon="94.62519">
<time>2016-10-08T02:07:31Z</time></trkpt>
<trkpt lat="29.632683" lon="94.62516">
<time>2016-10-08T02:07:32Z</time></trkpt>
<trkpt lat="29.632633" lon="94.62511">
<time>2016-10-08T02:07:33Z</time></trkpt>
<trkpt lat="29.632563" lon="94.62506">
<time>2016-10-08T02:07:34Z</time></trkpt>
<trkpt lat="29.632503" lon="94.62502">
<time>2016-10-08T02:07:35Z</time></trkpt>
<trkpt lat="29.632443" lon="94.625">
<time>2016-10-08T02:07:36Z</time></trkpt>
<trkpt lat="29.632384" lon="94.62497">
<time>2016-10-08T02:07:37Z</time></trkpt>
<trkpt lat="29.632324" lon="94.62496">
<time>2016-10-08T02:07:38Z</time></trkpt>
<trkpt lat="29.632274" lon="94.62496">
<time>2016-10-08T02:07:39Z</time></trkpt>
<trkpt lat="29.632214" lon="94.62496">
<time>2016-10-08T02:07:40Z</time></trkpt>
<trkpt lat="29.632184" lon="94.62496">
<time>2016-10-08T02:07:41Z</time></trkpt>
<trkpt lat="29.632124" lon="94.62497">
<time>2016-10-08T02:07:42Z</time></trkpt>
<trkpt lat="29.632084" lon="94.62497">
<time>2016-10-08T02:07:43Z</time></trkpt>
<trkpt lat="29.632034" lon="94.62499">
<time>2016-10-08T02:07:44Z</time></trkpt>
<trkpt lat="29.632004" lon="94.625">
<time>2016-10-08T02:07:45Z</time></trkpt>
<trkpt lat="29.631954" lon="94.62502">
<time>2016-10-08T02:07:46Z</time></trkpt>
<trkpt lat="29.631904" lon="94.62505">
<time>2016-10-08T02:07:47Z</time></trkpt>
<trkpt lat="29.631844" lon="94.62509">
<time>2016-10-08T02:07:48Z</time></trkpt>
<trkpt lat="29.631763" lon="94.62517">
<time>2016-10-08T02:07:49Z</time></trkpt>
<trkpt lat="29.631703" lon="94.62524">
<time>2016-10-08T02:07:50Z</time></trkpt>
<trkpt lat="29.631593" lon="94.6254">
<time>2016-10-08T02:07:51Z</time></trkpt>
<trkpt lat="29.631373" lon="94.625779">
<time>2016-10-08T02:07:52Z</time></trkpt>
<trkpt lat="29.631253" lon="94.625999">
<time>2016-10-08T02:07:53Z</time></trkpt>
<trkpt lat="29.630912" lon="94.626578">
<time>2016-10-08T02:07:54Z</time></trkpt>
<trkpt lat="29.630642" lon="94.627058">
<time>2016-10-08T02:07:55Z</time></trkpt>
<trkpt lat="29.630431" lon="94.627357">
<time>2016-10-08T02:07:56Z</time></trkpt>
<trkpt lat="29.630331" lon="94.627497">
<time>2016-10-08T02:07:57Z</time></trkpt>
<trkpt lat="29.630201" lon="94.627647">
<time>2016-10-08T02:07:58Z</time></trkpt>
<trkpt lat="29.630031" lon="94.627827">
<time>2016-10-08T02:07:59Z</time></trkpt>
<trkpt lat="29.629751" lon="94.628126">
<time>2016-10-08T02:08:00Z</time></trkpt>
<trkpt lat="29.62949" lon="94.628396">
<time>2016-10-08T02:08:01Z</time></trkpt>
<trkpt lat="29.6293" lon="94.628566">
<time>2016-10-08T02:08:02Z</time></trkpt>
<trkpt lat="29.62907" lon="94.628735">
<time>2016-10-08T02:08:03Z</time></trkpt>
<trkpt lat="29.62891" lon="94.628815">
<time>2016-10-08T02:08:04Z</time></trkpt>
<trkpt lat="29.6287" lon="94.628915">
<time>2016-10-08T02:08:05Z</time></trkpt>
<trkpt lat="29.62844" lon="94.629025">
<time>2016-10-08T02:08:06Z</time></trkpt>
<trkpt lat="29.62778" lon="94.629325">
<time>2016-10-08T02:08:07Z</time></trkpt>
<trkpt lat="29.62753" lon="94.629434">
<time>2016-10-08T02:08:08Z</time></trkpt>
<trkpt lat="29.62725" lon="94.629514">
<time>2016-10-08T02:08:09Z</time></trkpt>
<trkpt lat="29.62693" lon="94.629584">
<time>2016-10-08T02:08:10Z</time></trkpt>
<trkpt lat="29.62631" lon="94.629694">
<time>2016-10-08T02:08:11Z</time></trkpt>
<trkpt lat="29.62515" lon="94.629894">
<time>2016-10-08T02:08:12Z</time></trkpt>
<trkpt lat="29.62503" lon="94.629914">
<time>2016-10-08T02:08:13Z</time></trkpt>
<trkpt lat="29.62475" lon="94.629964">
<time>2016-10-08T02:08:14Z</time></trkpt>
<trkpt lat="29.62468" lon="94.629964">
<time>2016-10-08T02:08:15Z</time></trkpt>
<trkpt lat="29.62459" lon="94.629974">
<time>2016-10-08T02:08:16Z</time></trkpt>
<trkpt lat="29.62449" lon="94.629964">
<time>2016-10-08T02:08:17Z</time></trkpt>
<trkpt lat="29.62441" lon="94.629964">
<time>2016-10-08T02:08:18Z</time></trkpt>
<trkpt lat="29.6243" lon="94.629944">
<time>2016-10-08T02:08:19Z</time></trkpt>
<trkpt lat="29.62418" lon="94.629904">
<time>2016-10-08T02:08:20Z</time></trkpt>
<trkpt lat="29.62408" lon="94.629874">
<time>2016-10-08T02:08:21Z</time></trkpt>
<trkpt lat="29.62398" lon="94.629834">
<time>2016-10-08T02:08:22Z</time></trkpt>
<trkpt lat="29.62387" lon="94.629764">
<time>2016-10-08T02:08:23Z</time></trkpt>
<trkpt lat="29.62372" lon="94.629674">
<time>2016-10-08T02:08:24Z</time></trkpt>
<trkpt lat="29.62353" lon="94.629544">
<time>2016-10-08T02:08:25Z</time></trkpt>
<trkpt lat="29.623111" lon="94.629235">
<time>2016-10-08T02:08:26Z</time></trkpt>
<trkpt lat="29.622901" lon="94.629095">
<time>2016-10-08T02:08:27Z</time></trkpt>
<trkpt lat="29.622282" lon="94.628656">
<time>2016-10-08T02:08:28Z</time></trkpt>
<trkpt lat="29.621603" lon="94.628166">
<time>2016-10-08T02:08:29Z</time></trkpt>
<trkpt lat="29.621403" lon="94.628036">
<time>2016-10-08T02:08:30Z</time></trkpt>
<trkpt lat="29.621293" lon="94.627947">
<time>2016-10-08T02:08:31Z</time></trkpt>
<trkpt lat="29.621063" lon="94.627777">
<time>2016-10-08T02:08:32Z</time></trkpt>
<trkpt lat="29.620864" lon="94.627597">
<time>2016-10-08T02:08:33Z</time></trkpt>
<trkpt lat="29.620744" lon="94.627487">
<time>2016-10-08T02:08:34Z</time></trkpt>
<trkpt lat="29.620614" lon="94.627357">
<time>2016-10-08T02:08:35Z</time></trkpt>
<trkpt lat="29.620434" lon="94.627148">
<time>2016-10-08T02:08:36Z</time></trkpt>
<trkpt lat="29.620155" lon="94.626798">
<time>2016-10-08T02:08:37Z</time></trkpt>
<trkpt lat="29.619965" lon="94.626558">
<time>2016-10-08T02:08:38Z</time></trkpt>
<trkpt lat="29.619865" lon="94.626439">
<time>2016-10-08T02:08:39Z</time></trkpt>
<trkpt lat="29.619765" lon="94.626309">
<time>2016-10-08T02:08:40Z</time></trkpt>
<trkpt lat="29.619596" lon="94.626089">
<time>2016-10-08T02:08:41Z</time></trkpt>
<trkpt lat="29.619516" lon="94.625999">
<time>2016-10-08T02:08:42Z</time></trkpt>
<trkpt lat="29.619326" lon="94.625799">
<time>2016-10-08T02:08:43Z</time></trkpt>
<trkpt lat="29.619196" lon="94.625679">
<time>2016-10-08T02:08:44Z</time></trkpt>
<trkpt lat="29.619066" lon="94.62555">
<time>2016-10-08T02:08:45Z</time></trkpt>
<trkpt lat="29.618807" lon="94.62534">
<time>2016-10-08T02:08:46Z</time></trkpt>
<trkpt lat="29.618687" lon="94.62523">
<time>2016-10-08T02:08:47Z</time></trkpt>
<trkpt lat="29.618437" lon="94.62502">
<time>2016-10-08T02:08:48Z</time></trkpt>
<trkpt lat="29.617658" lon="94.624391">
<time>2016-10-08T02:08:49Z</time></trkpt>
<trkpt lat="29.617319" lon="94.624131">
<time>2016-10-08T02:08:50Z</time></trkpt>
<trkpt lat="29.616869" lon="94.623822">
<time>2016-10-08T02:08:51Z</time></trkpt>
<trkpt lat="29.616499" lon="94.623582">
<time>2016-10-08T02:08:52Z</time></trkpt>
<trkpt lat="29.61604" lon="94.623312">
<time>2016-10-08T02:08:53Z</time></trkpt>
<trkpt lat="29.615181" lon="94.622803">
<time>2016-10-08T02:08:54Z</time></trkpt>
<trkpt lat="29.614931" lon="94.622653">
<time>2016-10-08T02:08:55Z</time></trkpt>
<trkpt lat="29.614731" lon="94.622523">
<time>2016-10-08T02:08:56Z</time></trkpt>
<trkpt lat="29.614561" lon="94.622393">
<time>2016-10-08T02:08:57Z</time></trkpt>
<trkpt lat="29.614361" lon="94.622224">
<time>2016-10-08T02:08:58Z</time></trkpt>
<trkpt lat="29.613622" lon="94.621574">
<time>2016-10-08T02:08:59Z</time></trkpt>
<trkpt lat="29.613462" lon="94.621405">
<time>2016-10-08T02:09:00Z</time></trkpt>
<trkpt lat="29.613393" lon="94.621315">
<time>2016-10-08T02:09:01Z</time></trkpt>
<trkpt lat="29.613353" lon="94.621255">
<time>2016-10-08T02:09:02Z</time></trkpt>
<trkpt lat="29.613323" lon="94.621185">
<time>2016-10-08T02:09:03Z</time></trkpt>
<trkpt lat="29.613303" lon="94.621115">
<time>2016-10-08T02:09:04Z</time></trkpt>
<trkpt lat="29.613293" lon="94.621005">
<time>2016-10-08T02:09:05Z</time></trkpt>
<trkpt lat="29.613293" lon="94.620925">
<time>2016-10-08T02:09:06Z</time></trkpt>
<trkpt lat="29.613303" lon="94.620825">
<time>2016-10-08T02:09:07Z</time></trkpt>
<trkpt lat="29.613333" lon="94.620625">
<time>2016-10-08T02:09:08Z</time></trkpt>
<trkpt lat="29.613363" lon="94.620376">
<time>2016-10-08T02:09:09Z</time></trkpt>
<trkpt lat="29.613384" lon="94.620186">
<time>2016-10-08T02:09:10Z</time></trkpt>
<trkpt lat="29.613384" lon="94.620056">
<time>2016-10-08T02:09:11Z</time></trkpt>
<trkpt lat="29.613374" lon="94.619936">
<time>2016-10-08T02:09:12Z</time></trkpt>
<trkpt lat="29.613364" lon="94.619876">
<time>2016-10-08T02:09:13Z</time></trkpt>
<trkpt lat="29.613354" lon="94.619826">
<time>2016-10-08T02:09:14Z</time></trkpt>
<trkpt lat="29.613314" lon="94.619746">
<time>2016-10-08T02:09:15Z</time></trkpt>
<trkpt lat="29.613254" lon="94.619656">
<time>2016-10-08T02:09:16Z</time></trkpt>
<trkpt lat="29.613164" lon="94.619566">
<time>2016-10-08T02:09:17Z</time></trkpt>
<trkpt lat="29.612984" lon="94.619417">
<time>2016-10-08T02:09:18Z</time></trkpt>
<trkpt lat="29.612055" lon="94.618637">
<time>2016-10-08T02:09:19Z</time></trkpt>
<trkpt lat="29.611886" lon="94.618508">
<time>2016-10-08T02:09:20Z</time></trkpt>
<trkpt lat="29.611766" lon="94.618368">
<time>2016-10-08T02:09:21Z</time></trkpt>
<trkpt lat="29.611686" lon="94.618258">
<time>2016-10-08T02:09:22Z</time></trkpt>
<trkpt lat="29.611616" lon="94.618158">
<time>2016-10-08T02:09:23Z</time></trkpt>
<trkpt lat="29.611486" lon="94.617928">
<time>2016-10-08T02:09:24Z</time></trkpt>
<trkpt lat="29.611197" lon="94.617379">
<time>2016-10-08T02:09:25Z</time></trkpt>
<trkpt lat="29.611017" lon="94.617069">
<time>2016-10-08T02:09:26Z</time></trkpt>
<trkpt lat="29.610748" lon="94.616569">
<time>2016-10-08T02:09:27Z</time></trkpt>
<trkpt lat="29.610149" lon="94.61546">
<time>2016-10-08T02:09:28Z</time></trkpt>
<trkpt lat="29.609979" lon="94.61515">
<time>2016-10-08T02:09:29Z</time></trkpt>
<trkpt lat="29.609659" lon="94.614601">
<time>2016-10-08T02:09:30Z</time></trkpt>
<trkpt lat="29.60923" lon="94.613881">
<time>2016-10-08T02:09:31Z</time></trkpt>
<trkpt lat="29.60905" lon="94.613582">
<time>2016-10-08T02:09:32Z</time></trkpt>
<trkpt lat="29.60893" lon="94.613362">
<time>2016-10-08T02:09:33Z</time></trkpt>
<trkpt lat="29.608821" lon="94.613122">
<time>2016-10-08T02:09:34Z</time></trkpt>
<trkpt lat="29.608681" lon="94.612792">
<time>2016-10-08T02:09:35Z</time></trkpt>
<trkpt lat="29.608501" lon="94.612323">
<time>2016-10-08T02:09:36Z</time></trkpt>
<trkpt lat="29.608232" lon="94.611623">
<time>2016-10-08T02:09:37Z</time></trkpt>
<trkpt lat="29.607912" lon="94.610794">
<time>2016-10-08T02:09:38Z</time></trkpt>
<trkpt lat="29.607813" lon="94.610574">
<time>2016-10-08T02:09:39Z</time></trkpt>
<trkpt lat="29.607643" lon="94.610274">
<time>2016-10-08T02:09:40Z</time></trkpt>
<trkpt lat="29.607383" lon="94.609824">
<time>2016-10-08T02:09:41Z</time></trkpt>
<trkpt lat="29.606164" lon="94.607785">
<time>2016-10-08T02:09:42Z</time></trkpt>
<trkpt lat="29.605965" lon="94.607455">
<time>2016-10-08T02:09:43Z</time></trkpt>
<trkpt lat="29.605795" lon="94.607156">
<time>2016-10-08T02:09:44Z</time></trkpt>
<trkpt lat="29.605645" lon="94.606926">
<time>2016-10-08T02:09:45Z</time></trkpt>
<trkpt lat="29.605525" lon="94.606766">
<time>2016-10-08T02:09:46Z</time></trkpt>
<trkpt lat="29.605435" lon="94.606686">
<time>2016-10-08T02:09:47Z</time></trkpt>
<trkpt lat="29.605365" lon="94.606636">
<time>2016-10-08T02:09:48Z</time></trkpt>
<trkpt lat="29.605245" lon="94.606566">
<time>2016-10-08T02:09:49Z</time></trkpt>
<trkpt lat="29.605045" lon="94.606486">
<time>2016-10-08T02:09:50Z</time></trkpt>
<trkpt lat="29.604815" lon="94.606396">
<time>2016-10-08T02:09:51Z</time></trkpt>
<trkpt lat="29.604316" lon="94.606236">
<time>2016-10-08T02:09:52Z</time></trkpt>
<trkpt lat="29.603896" lon="94.606126">
<time>2016-10-08T02:09:53Z</time></trkpt>
<trkpt lat="29.603526" lon="94.606036">
<time>2016-10-08T02:09:54Z</time></trkpt>
<trkpt lat="29.603456" lon="94.606026">
<time>2016-10-08T02:09:55Z</time></trkpt>
<trkpt lat="29.603416" lon="94.606026">
<time>2016-10-08T02:09:56Z</time></trkpt>
<trkpt lat="29.603366" lon="94.606026">
<time>2016-10-08T02:09:57Z</time></trkpt>
<trkpt lat="29.603316" lon="94.606036">
<time>2016-10-08T02:09:58Z</time></trkpt>
<trkpt lat="29.603236" lon="94.606056">
<time>2016-10-08T02:09:59Z</time></trkpt>
<trkpt lat="29.603096" lon="94.606096">
<time>2016-10-08T02:10:00Z</time></trkpt>
<trkpt lat="29.602886" lon="94.606176">
<time>2016-10-08T02:10:01Z</time></trkpt>
<trkpt lat="29.602546" lon="94.606346">
<time>2016-10-08T02:10:02Z</time></trkpt>
<trkpt lat="29.601726" lon="94.606776">
<time>2016-10-08T02:10:03Z</time></trkpt>
<trkpt lat="29.601496" lon="94.606896">
<time>2016-10-08T02:10:04Z</time></trkpt>
<trkpt lat="29.601346" lon="94.606976">
<time>2016-10-08T02:10:05Z</time></trkpt>
<trkpt lat="29.601196" lon="94.607016">
<time>2016-10-08T02:10:06Z</time></trkpt>
<trkpt lat="29.601096" lon="94.607036">
<time>2016-10-08T02:10:07Z</time></trkpt>
<trkpt lat="29.600956" lon="94.607036">
<time>2016-10-08T02:10:08Z</time></trkpt>
<trkpt lat="29.600826" lon="94.607006">
<time>2016-10-08T02:10:09Z</time></trkpt>
<trkpt lat="29.600716" lon="94.606956">
<time>2016-10-08T02:10:10Z</time></trkpt>
<trkpt lat="29.600587" lon="94.606886">
<time>2016-10-08T02:10:11Z</time></trkpt>
<trkpt lat="29.600457" lon="94.606786">
<time>2016-10-08T02:10:12Z</time></trkpt>
<trkpt lat="29.600317" lon="94.606666">
<time>2016-10-08T02:10:13Z</time></trkpt>
<trkpt lat="29.599227" lon="94.605626">
<time>2016-10-08T02:10:14Z</time></trkpt>
<trkpt lat="29.598068" lon="94.604527">
<time>2016-10-08T02:10:15Z</time></trkpt>
<trkpt lat="29.597578" lon="94.604047">
<time>2016-10-08T02:10:16Z</time></trkpt>
<trkpt lat="29.596889" lon="94.603397">
<time>2016-10-08T02:10:17Z</time></trkpt>
<trkpt lat="29.596369" lon="94.602927">
<time>2016-10-08T02:10:18Z</time></trkpt>
<trkpt lat="29.596239" lon="94.602807">
<time>2016-10-08T02:10:19Z</time></trkpt>
<trkpt lat="29.596139" lon="94.602727">
<time>2016-10-08T02:10:20Z</time></trkpt>
<trkpt lat="29.596029" lon="94.602647">
<time>2016-10-08T02:10:21Z</time></trkpt>
<trkpt lat="29.595879" lon="94.602557">
<time>2016-10-08T02:10:22Z</time></trkpt>
<trkpt lat="29.595649" lon="94.602447">
<time>2016-10-08T02:10:23Z</time></trkpt>
<trkpt lat="29.59538" lon="94.602337">
<time>2016-10-08T02:10:24Z</time></trkpt>
<trkpt lat="29.5947" lon="94.602067">
<time>2016-10-08T02:10:25Z</time></trkpt>
<trkpt lat="29.59394" lon="94.601747">
<time>2016-10-08T02:10:26Z</time></trkpt>
<trkpt lat="29.59373" lon="94.601637">
<time>2016-10-08T02:10:27Z</time></trkpt>
<trkpt lat="29.5936" lon="94.601567">
<time>2016-10-08T02:10:28Z</time></trkpt>
<trkpt lat="29.59353" lon="94.601497">
<time>2016-10-08T02:10:29Z</time></trkpt>
<trkpt lat="29.59345" lon="94.601397">
<time>2016-10-08T02:10:30Z</time></trkpt>
<trkpt lat="29.59341" lon="94.601307">
<time>2016-10-08T02:10:31Z</time></trkpt>
<trkpt lat="29.59337" lon="94.601227">
<time>2016-10-08T02:10:32Z</time></trkpt>
<trkpt lat="29.59334" lon="94.601107">
<time>2016-10-08T02:10:33Z</time></trkpt>
<trkpt lat="29.593211" lon="94.600058">
<time>2016-10-08T02:10:34Z</time></trkpt>
<trkpt lat="29.593191" lon="94.599908">
<time>2016-10-08T02:10:35Z</time></trkpt>
<trkpt lat="29.593171" lon="94.599758">
<time>2016-10-08T02:10:36Z</time></trkpt>
<trkpt lat="29.593131" lon="94.599628">
<time>2016-10-08T02:10:37Z</time></trkpt>
<trkpt lat="29.593091" lon="94.599508">
<time>2016-10-08T02:10:38Z</time></trkpt>
<trkpt lat="29.593011" lon="94.599338">
<time>2016-10-08T02:10:39Z</time></trkpt>
<trkpt lat="29.592941" lon="94.599248">
<time>2016-10-08T02:10:40Z</time></trkpt>
<trkpt lat="29.592871" lon="94.599158">
<time>2016-10-08T02:10:41Z</time></trkpt>
<trkpt lat="29.592681" lon="94.598968">
<time>2016-10-08T02:10:42Z</time></trkpt>
<trkpt lat="29.591461" lon="94.597798">
<time>2016-10-08T02:10:43Z</time></trkpt>
<trkpt lat="29.591231" lon="94.597568">
<time>2016-10-08T02:10:44Z</time></trkpt>
<trkpt lat="29.591042" lon="94.597368">
<time>2016-10-08T02:10:45Z</time></trkpt>
<trkpt lat="29.590932" lon="94.597238">
<time>2016-10-08T02:10:46Z</time></trkpt>
<trkpt lat="29.590642" lon="94.596868">
<time>2016-10-08T02:10:47Z</time></trkpt>
<trkpt lat="29.590472" lon="94.596648">
<time>2016-10-08T02:10:48Z</time></trkpt>
<trkpt lat="29.590242" lon="94.596358">
<time>2016-10-08T02:10:49Z</time></trkpt>
<trkpt lat="29.590042" lon="94.596118">
<time>2016-10-08T02:10:50Z</time></trkpt>
<trkpt lat="29.589952" lon="94.596028">
<time>2016-10-08T02:10:51Z</time></trkpt>
<trkpt lat="29.589842" lon="94.595908">
<time>2016-10-08T02:10:52Z</time></trkpt>
<trkpt lat="29.589652" lon="94.595778">
<time>2016-10-08T02:10:53Z</time></trkpt>
<trkpt lat="29.589502" lon="94.595708">
<time>2016-10-08T02:10:54Z</time></trkpt>
<trkpt lat="29.589332" lon="94.595648">
<time>2016-10-08T02:10:55Z</time></trkpt>
<trkpt lat="29.588262" lon="94.595267">
<time>2016-10-08T02:10:56Z</time></trkpt>
<trkpt lat="29.587832" lon="94.595117">
<time>2016-10-08T02:10:57Z</time></trkpt>
<trkpt lat="29.587503" lon="94.595017">
<time>2016-10-08T02:10:58Z</time></trkpt>
<trkpt lat="29.587353" lon="94.594977">
<time>2016-10-08T02:10:59Z</time></trkpt>
<trkpt lat="29.587173" lon="94.594947">
<time>2016-10-08T02:11:00Z</time></trkpt>
<trkpt lat="29.587073" lon="94.594937">
<time>2016-10-08T02:11:01Z</time></trkpt>
<trkpt lat="29.586973" lon="94.594947">
<time>2016-10-08T02:11:02Z</time></trkpt>
<trkpt lat="29.586653" lon="94.595007">
<time>2016-10-08T02:11:03Z</time></trkpt>
<trkpt lat="29.586093" lon="94.595127">
<time>2016-10-08T02:11:04Z</time></trkpt>
<trkpt lat="29.585863" lon="94.595178">
<time>2016-10-08T02:11:05Z</time></trkpt>
<trkpt lat="29.585563" lon="94.595238">
<time>2016-10-08T02:11:06Z</time></trkpt>
<trkpt lat="29.585443" lon="94.595258">
<time>2016-10-08T02:11:07Z</time></trkpt>
<trkpt lat="29.585293" lon="94.595258">
<time>2016-10-08T02:11:08Z</time></trkpt>
<trkpt lat="29.585143" lon="94.595238">
<time>2016-10-08T02:11:09Z</time></trkpt>
<trkpt lat="29.584973" lon="94.595198">
<time>2016-10-08T02:11:10Z</time></trkpt>
<trkpt lat="29.584773" lon="94.595138">
<time>2016-10-08T02:11:11Z</time></trkpt>
<trkpt lat="29.584364" lon="94.594947">
<time>2016-10-08T02:11:12Z</time></trkpt>
<trkpt lat="29.583834" lon="94.594707">
<time>2016-10-08T02:11:13Z</time></trkpt>
<trkpt lat="29.583734" lon="94.594657">
<time>2016-10-08T02:11:14Z</time></trkpt>
<trkpt lat="29.583664" lon="94.594597">
<time>2016-10-08T02:11:15Z</time></trkpt>
<trkpt lat="29.583554" lon="94.594497">
<time>2016-10-08T02:11:16Z</time></trkpt>
<trkpt lat="29.583354" lon="94.594277">
<time>2016-10-08T02:11:17Z</time></trkpt>
<trkpt lat="29.583324" lon="94.594237">
<time>2016-10-08T02:11:18Z</time></trkpt>
<trkpt lat="29.583274" lon="94.594187">
<time>2016-10-08T02:11:19Z</time></trkpt>
<trkpt lat="29.583214" lon="94.594097">
<time>2016-10-08T02:11:20Z</time></trkpt>
<trkpt lat="29.583154" lon="94.594007">
<time>2016-10-08T02:11:21Z</time></trkpt>
<trkpt lat="29.583064" lon="94.593857">
<time>2016-10-08T02:11:22Z</time></trkpt>
<trkpt lat="29.582954" lon="94.593647">
<time>2016-10-08T02:11:23Z</time></trkpt>
<trkpt lat="29.582874" lon="94.593497">
<time>2016-10-08T02:11:24Z</time></trkpt>
<trkpt lat="29.582694" lon="94.593147">
<time>2016-10-08T02:11:25Z</time></trkpt>
<trkpt lat="29.582484" lon="94.592727">
<time>2016-10-08T02:11:26Z</time></trkpt>
<trkpt lat="29.582344" lon="94.592467">
<time>2016-10-08T02:11:27Z</time></trkpt>
<trkpt lat="29.582264" lon="94.592337">
<time>2016-10-08T02:11:28Z</time></trkpt>
<trkpt lat="29.582224" lon="94.592277">
<time>2016-10-08T02:11:29Z</time></trkpt>
<trkpt lat="29.582184" lon="94.592217">
<time>2016-10-08T02:11:30Z</time></trkpt>
<trkpt lat="29.582104" lon="94.592117">
<time>2016-10-08T02:11:31Z</time></trkpt>
<trkpt lat="29.581984" lon="94.591997">
<time>2016-10-08T02:11:32Z</time></trkpt>
<trkpt lat="29.581874" lon="94.591897">
<time>2016-10-08T02:11:33Z</time></trkpt>
<trkpt lat="29.581644" lon="94.591677">
<time>2016-10-08T02:11:34Z</time></trkpt>
<trkpt lat="29.581554" lon="94.591587">
<time>2016-10-08T02:11:35Z</time></trkpt>
<trkpt lat="29.581244" lon="94.591227">
<time>2016-10-08T02:11:36Z</time></trkpt>
<trkpt lat="29.580944" lon="94.590876">
<time>2016-10-08T02:11:37Z</time></trkpt>
<trkpt lat="29.580384" lon="94.590206">
<time>2016-10-08T02:11:38Z</time></trkpt>
<trkpt lat="29.579984" lon="94.589726">
<time>2016-10-08T02:11:39Z</time></trkpt>
<trkpt lat="29.579584" lon="94.589246">
<time>2016-10-08T02:11:40Z</time></trkpt>
<trkpt lat="29.579364" lon="94.588986">
<time>2016-10-08T02:11:41Z</time></trkpt>
<trkpt lat="29.579214" lon="94.588816">
<time>2016-10-08T02:11:42Z</time></trkpt>
<trkpt lat="29.579134" lon="94.588745">
<time>2016-10-08T02:11:43Z</time></trkpt>
<trkpt lat="29.579064" lon="94.588675">
<time>2016-10-08T02:11:44Z</time></trkpt>
<trkpt lat="29.579004" lon="94.588625">
<time>2016-10-08T02:11:45Z</time></trkpt>
<trkpt lat="29.578924" lon="94.588585">
<time>2016-10-08T02:11:46Z</time></trkpt>
<trkpt lat="29.578854" lon="94.588555">
<time>2016-10-08T02:11:47Z</time></trkpt>
<trkpt lat="29.578774" lon="94.588535">
<time>2016-10-08T02:11:48Z</time></trkpt>
<trkpt lat="29.578684" lon="94.588515">
<time>2016-10-08T02:11:49Z</time></trkpt>
<trkpt lat="29.578524" lon="94.588505">
<time>2016-10-08T02:11:50Z</time></trkpt>
<trkpt lat="29.578304" lon="94.588485">
<time>2016-10-08T02:11:51Z</time></trkpt>
<trkpt lat="29.578194" lon="94.588465">
<time>2016-10-08T02:11:52Z</time></trkpt>
<trkpt lat="29.578084" lon="94.588465">
<time>2016-10-08T02:11:53Z</time></trkpt>
<trkpt lat="29.578024" lon="94.588455">
<time>2016-10-08T02:11:54Z</time></trkpt>
<trkpt lat="29.577944" lon="94.588445">
<time>2016-10-08T02:11:55Z</time></trkpt>
<trkpt lat="29.577884" lon="94.588445">
<time>2016-10-08T02:11:56Z</time></trkpt>
<trkpt lat="29.577814" lon="94.588435">
<time>2016-10-08T02:11:57Z</time></trkpt>
<trkpt lat="29.577734" lon="94.588415">
<time>2016-10-08T02:11:58Z</time></trkpt>
<trkpt lat="29.577644" lon="94.588375">
<time>2016-10-08T02:11:59Z</time></trkpt>
<trkpt lat="29.577594" lon="94.588335">
<time>2016-10-08T02:12:00Z</time></trkpt>
<trkpt lat="29.577544" lon="94.588295">
<time>2016-10-08T02:12:01Z</time></trkpt>
<trkpt lat="29.577514" lon="94.588245">
<time>2016-10-08T02:12:02Z</time></trkpt>
<trkpt lat="29.577494" lon="94.588195">
<time>2016-10-08T02:12:03Z</time></trkpt>
<trkpt lat="29.577474" lon="94.588135">
<time>2016-10-08T02:12:04Z</time></trkpt>
<trkpt lat="29.577464" lon="94.588075">
<time>2016-10-08T02:12:05Z</time></trkpt>
<trkpt lat="29.577464" lon="94.587995">
<time>2016-10-08T02:12:06Z</time></trkpt>
<trkpt lat="29.577474" lon="94.587915">
<time>2016-10-08T02:12:07Z</time></trkpt>
<trkpt lat="29.577484" lon="94.587805">
<time>2016-10-08T02:12:08Z</time></trkpt>
<trkpt lat="29.577494" lon="94.587635">
<time>2016-10-08T02:12:09Z</time></trkpt>
<trkpt lat="29.577514" lon="94.587455">
<time>2016-10-08T02:12:10Z</time></trkpt>
<trkpt lat="29.577524" lon="94.587375">
<time>2016-10-08T02:12:11Z</time></trkpt>
<trkpt lat="29.577514" lon="94.587305">
<time>2016-10-08T02:12:12Z</time></trkpt>
<trkpt lat="29.577504" lon="94.587255">
<time>2016-10-08T02:12:13Z</time></trkpt>
<trkpt lat="29.577484" lon="94.587195">
<time>2016-10-08T02:12:14Z</time></trkpt>
<trkpt lat="29.577454" lon="94.587115">
<time>2016-10-08T02:12:15Z</time></trkpt>
<trkpt lat="29.577414" lon="94.587055">
<time>2016-10-08T02:12:16Z</time></trkpt>
<trkpt lat="29.577364" lon="94.586965">
<time>2016-10-08T02:12:17Z</time></trkpt>
<trkpt lat="29.577274" lon="94.586834">
<time>2016-10-08T02:12:18Z</time></trkpt>
<trkpt lat="29.577204" lon="94.586744">
<time>2016-10-08T02:12:19Z</time></trkpt>
<trkpt lat="29.576964" lon="94.586434">
<time>2016-10-08T02:12:20Z</time></trkpt>
<trkpt lat="29.576854" lon="94.586304">
<time>2016-10-08T02:12:21Z</time></trkpt>
<trkpt lat="29.576633" lon="94.586024">
<time>2016-10-08T02:12:22Z</time></trkpt>
<trkpt lat="29.576423" lon="94.585754">
<time>2016-10-08T02:12:23Z</time></trkpt>
<trkpt lat="29.576273" lon="94.585534">
<time>2016-10-08T02:12:24Z</time></trkpt>
<trkpt lat="29.576153" lon="94.585344">
<time>2016-10-08T02:12:25Z</time></trkpt>
<trkpt lat="29.576053" lon="94.585173">
<time>2016-10-08T02:12:26Z</time></trkpt>
<trkpt lat="29.576013" lon="94.585093">
<time>2016-10-08T02:12:27Z</time></trkpt>
<trkpt lat="29.575953" lon="94.584963">
<time>2016-10-08T02:12:28Z</time></trkpt>
<trkpt lat="29.575903" lon="94.584843">
<time>2016-10-08T02:12:29Z</time></trkpt>
<trkpt lat="29.575863" lon="94.584693">
<time>2016-10-08T02:12:30Z</time></trkpt>
<trkpt lat="29.575833" lon="94.584583">
<time>2016-10-08T02:12:31Z</time></trkpt>
<trkpt lat="29.575803" lon="94.584443">
<time>2016-10-08T02:12:32Z</time></trkpt>
<trkpt lat="29.575793" lon="94.584313">
<time>2016-10-08T02:12:33Z</time></trkpt>
<trkpt lat="29.575783" lon="94.584273">
<time>2016-10-08T02:12:34Z</time></trkpt>
<trkpt lat="29.575773" lon="94.584223">
<time>2016-10-08T02:12:35Z</time></trkpt>
<trkpt lat="29.575763" lon="94.584193">
<time>2016-10-08T02:12:36Z</time></trkpt>
<trkpt lat="29.575753" lon="94.584143">
<time>2016-10-08T02:12:37Z</time></trkpt>
<trkpt lat="29.575733" lon="94.584093">
<time>2016-10-08T02:12:38Z</time></trkpt>
<trkpt lat="29.575713" lon="94.584033">
<time>2016-10-08T02:12:39Z</time></trkpt>
<trkpt lat="29.575663" lon="94.583933">
<time>2016-10-08T02:12:40Z</time></trkpt>
<trkpt lat="29.575262" lon="94.583092">
<time>2016-10-08T02:12:41Z</time></trkpt>
<trkpt lat="29.575062" lon="94.582682">
<time>2016-10-08T02:12:42Z</time></trkpt>
<trkpt lat="29.574932" lon="94.582431">
<time>2016-10-08T02:12:43Z</time></trkpt>
<trkpt lat="29.574832" lon="94.582241">
<time>2016-10-08T02:12:44Z</time></trkpt>
<trkpt lat="29.574702" lon="94.582031">
<time>2016-10-08T02:12:45Z</time></trkpt>
<trkpt lat="29.574532" lon="94.581781">
<time>2016-10-08T02:12:46Z</time></trkpt>
<trkpt lat="29.574342" lon="94.581531">
<time>2016-10-08T02:12:47Z</time></trkpt>
<trkpt lat="29.574171" lon="94.58129">
<time>2016-10-08T02:12:48Z</time></trkpt>
<trkpt lat="29.574041" lon="94.58113">
<time>2016-10-08T02:12:49Z</time></trkpt>
<trkpt lat="29.573911" lon="94.58099">
<time>2016-10-08T02:12:50Z</time></trkpt>
<trkpt lat="29.573761" lon="94.58085">
<time>2016-10-08T02:12:51Z</time></trkpt>
<trkpt lat="29.573621" lon="94.5807">
<time>2016-10-08T02:12:52Z</time></trkpt>
<trkpt lat="29.573521" lon="94.58056">
<time>2016-10-08T02:12:53Z</time></trkpt>
<trkpt lat="29.573431" lon="94.58041">
<time>2016-10-08T02:12:54Z</time></trkpt>
<trkpt lat="29.573341" lon="94.580259">
<time>2016-10-08T02:12:55Z</time></trkpt>
<trkpt lat="29.573261" lon="94.580129">
<time>2016-10-08T02:12:56Z</time></trkpt>
<trkpt lat="29.573191" lon="94.580039">
<time>2016-10-08T02:12:57Z</time></trkpt>
<trkpt lat="29.573121" lon="94.579969">
<time>2016-10-08T02:12:58Z</time></trkpt>
<trkpt lat="29.572971" lon="94.579849">
<time>2016-10-08T02:12:59Z</time></trkpt>
<trkpt lat="29.572861" lon="94.579759">
<time>2016-10-08T02:13:00Z</time></trkpt>
<trkpt lat="29.572791" lon="94.579689">
<time>2016-10-08T02:13:01Z</time></trkpt>
<trkpt lat="29.572731" lon="94.579609">
<time>2016-10-08T02:13:02Z</time></trkpt>
<trkpt lat="29.572631" lon="94.579459">
<time>2016-10-08T02:13:03Z</time></trkpt>
<trkpt lat="29.572501" lon="94.579238">
<time>2016-10-08T02:13:04Z</time></trkpt>
<trkpt lat="29.57232" lon="94.578958">
<time>2016-10-08T02:13:05Z</time></trkpt>
<trkpt lat="29.57212" lon="94.578658">
<time>2016-10-08T02:13:06Z</time></trkpt>
<trkpt lat="29.57196" lon="94.578428">
<time>2016-10-08T02:13:07Z</time></trkpt>
<trkpt lat="29.57187" lon="94.578307">
<time>2016-10-08T02:13:08Z</time></trkpt>
<trkpt lat="29.57177" lon="94.578177">
<time>2016-10-08T02:13:09Z</time></trkpt>
<trkpt lat="29.57161" lon="94.577947">
<time>2016-10-08T02:13:10Z</time></trkpt>
<trkpt lat="29.57137" lon="94.577657">
<time>2016-10-08T02:13:11Z</time></trkpt>
<trkpt lat="29.571259" lon="94.577487">
<time>2016-10-08T02:13:12Z</time></trkpt>
<trkpt lat="29.571199" lon="94.577387">
<time>2016-10-08T02:13:13Z</time></trkpt>
<trkpt lat="29.571139" lon="94.577276">
<time>2016-10-08T02:13:14Z</time></trkpt>
<trkpt lat="29.571079" lon="94.577156">
<time>2016-10-08T02:13:15Z</time></trkpt>
<trkpt lat="29.571019" lon="94.577016">
<time>2016-10-08T02:13:16Z</time></trkpt>
<trkpt lat="29.570979" lon="94.576886">
<time>2016-10-08T02:13:17Z</time></trkpt>
<trkpt lat="29.570919" lon="94.576746">
<time>2016-10-08T02:13:18Z</time></trkpt>
<trkpt lat="29.570879" lon="94.576636">
<time>2016-10-08T02:13:19Z</time></trkpt>
<trkpt lat="29.570809" lon="94.576506">
<time>2016-10-08T02:13:20Z</time></trkpt>
<trkpt lat="29.570759" lon="94.576405">
<time>2016-10-08T02:13:21Z</time></trkpt>
<trkpt lat="29.570639" lon="94.576235">
<time>2016-10-08T02:13:22Z</time></trkpt>
<trkpt lat="29.570578" lon="94.576145">
<time>2016-10-08T02:13:23Z</time></trkpt>
<trkpt lat="29.570528" lon="94.576085">
<time>2016-10-08T02:13:24Z</time></trkpt>
<trkpt lat="29.570488" lon="94.576035">
<time>2016-10-08T02:13:25Z</time></trkpt>
<trkpt lat="29.570448" lon="94.575985">
<time>2016-10-08T02:13:26Z</time></trkpt>
<trkpt lat="29.570418" lon="94.575955">
<time>2016-10-08T02:13:27Z</time></trkpt>
<trkpt lat="29.570368" lon="94.575905">
<time>2016-10-08T02:13:28Z</time></trkpt>
<trkpt lat="29.570288" lon="94.575855">
<time>2016-10-08T02:13:29Z</time></trkpt>
<trkpt lat="29.570108" lon="94.575745">
<time>2016-10-08T02:13:30Z</time></trkpt>
<trkpt lat="29.570048" lon="94.575705">
<time>2016-10-08T02:13:31Z</time></trkpt>
<trkpt lat="29.569968" lon="94.575655">
<time>2016-10-08T02:13:32Z</time></trkpt>
<trkpt lat="29.569878" lon="94.575584">
<time>2016-10-08T02:13:33Z</time></trkpt>
<trkpt lat="29.569808" lon="94.575534">
<time>2016-10-08T02:13:34Z</time></trkpt>
<trkpt lat="29.569708" lon="94.575474">
<time>2016-10-08T02:13:35Z</time></trkpt>
<trkpt lat="29.569568" lon="94.575404">
<time>2016-10-08T02:13:36Z</time></trkpt>
<trkpt lat="29.569208" lon="94.575174">
<time>2016-10-08T02:13:37Z</time></trkpt>
<trkpt lat="29.568438" lon="94.574683">
<time>2016-10-08T02:13:38Z</time></trkpt>
<trkpt lat="29.568378" lon="94.574643">
<time>2016-10-08T02:13:39Z</time></trkpt>
<trkpt lat="29.568328" lon="94.574613">
<time>2016-10-08T02:13:40Z</time></trkpt>
<trkpt lat="29.568278" lon="94.574593">
<time>2016-10-08T02:13:41Z</time></trkpt>
<trkpt lat="29.568218" lon="94.574573">
<time>2016-10-08T02:13:42Z</time></trkpt>
<trkpt lat="29.568138" lon="94.574563">
<time>2016-10-08T02:13:43Z</time></trkpt>
<trkpt lat="29.568048" lon="94.574563">
<time>2016-10-08T02:13:44Z</time></trkpt>
<trkpt lat="29.567868" lon="94.574583">
<time>2016-10-08T02:13:45Z</time></trkpt>
<trkpt lat="29.567718" lon="94.574593">
<time>2016-10-08T02:13:46Z</time></trkpt>
<trkpt lat="29.567598" lon="94.574623">
<time>2016-10-08T02:13:47Z</time></trkpt>
<trkpt lat="29.567518" lon="94.574663">
<time>2016-10-08T02:13:48Z</time></trkpt>
<trkpt lat="29.567428" lon="94.574703">
<time>2016-10-08T02:13:49Z</time></trkpt>
<trkpt lat="29.567348" lon="94.574754">
<time>2016-10-08T02:13:50Z</time></trkpt>
<trkpt lat="29.567268" lon="94.574814">
<time>2016-10-08T02:13:51Z</time></trkpt>
<trkpt lat="29.567198" lon="94.574854">
<time>2016-10-08T02:13:52Z</time></trkpt>
<trkpt lat="29.567148" lon="94.574874">
<time>2016-10-08T02:13:53Z</time></trkpt>
<trkpt lat="29.567108" lon="94.574884">
<time>2016-10-08T02:13:54Z</time></trkpt>
<trkpt lat="29.567078" lon="94.574894">
<time>2016-10-08T02:13:55Z</time></trkpt>
<trkpt lat="29.566999" lon="94.574904">
<time>2016-10-08T02:13:56Z</time></trkpt>
<trkpt lat="29.566909" lon="94.574914">
<time>2016-10-08T02:13:57Z</time></trkpt>
<trkpt lat="29.566849" lon="94.574914">
<time>2016-10-08T02:13:58Z</time></trkpt>
<trkpt lat="29.566759" lon="94.574914">
<time>2016-10-08T02:13:59Z</time></trkpt>
<trkpt lat="29.566709" lon="94.574924">
<time>2016-10-08T02:14:00Z</time></trkpt>
<trkpt lat="29.566659" lon="94.574934">
<time>2016-10-08T02:14:01Z</time></trkpt>
<trkpt lat="29.566609" lon="94.574954">
<time>2016-10-08T02:14:02Z</time></trkpt>
<trkpt lat="29.566569" lon="94.574974">
<time>2016-10-08T02:14:03Z</time></trkpt>
<trkpt lat="29.566509" lon="94.575024">
<time>2016-10-08T02:14:04Z</time></trkpt>
<trkpt lat="29.566449" lon="94.575084">
<time>2016-10-08T02:14:05Z</time></trkpt>
<trkpt lat="29.566409" lon="94.575154">
<time>2016-10-08T02:14:06Z</time></trkpt>
<trkpt lat="29.566349" lon="94.575264">
<time>2016-10-08T02:14:07Z</time></trkpt>
<trkpt lat="29.566319" lon="94.575324">
<time>2016-10-08T02:14:08Z</time></trkpt>
<trkpt lat="29.566289" lon="94.575384">
<time>2016-10-08T02:14:09Z</time></trkpt>
<trkpt lat="29.566249" lon="94.575424">
<time>2016-10-08T02:14:10Z</time></trkpt>
<trkpt lat="29.566209" lon="94.575464">
<time>2016-10-08T02:14:11Z</time></trkpt>
<trkpt lat="29.566189" lon="94.575474">
<time>2016-10-08T02:14:12Z</time></trkpt>
<trkpt lat="29.566169" lon="94.575484">
<time>2016-10-08T02:14:13Z</time></trkpt>
<trkpt lat="29.566139" lon="94.575494">
<time>2016-10-08T02:14:14Z</time></trkpt>
<trkpt lat="29.566099" lon="94.575504">
<time>2016-10-08T02:14:15Z</time></trkpt>
<trkpt lat="29.566049" lon="94.575514">
<time>2016-10-08T02:14:16Z</time></trkpt>
<trkpt lat="29.565959" lon="94.575504">
<time>2016-10-08T02:14:17Z</time></trkpt>
<trkpt lat="29.565849" lon="94.575494">
<time>2016-10-08T02:14:18Z</time></trkpt>
<trkpt lat="29.56578" lon="94.575494">
<time>2016-10-08T02:14:19Z</time></trkpt>
<trkpt lat="29.56572" lon="94.575504">
<time>2016-10-08T02:14:20Z</time></trkpt>
<trkpt lat="29.56568" lon="94.575514">
<time>2016-10-08T02:14:21Z</time></trkpt>
<trkpt lat="29.56559" lon="94.575555">
<time>2016-10-08T02:14:22Z</time></trkpt>
<trkpt lat="29.56556" lon="94.575575">
<time>2016-10-08T02:14:23Z</time></trkpt>
<trkpt lat="29.56551" lon="94.575605">
<time>2016-10-08T02:14:24Z</time></trkpt>
<trkpt lat="29.56544" lon="94.575655">
<time>2016-10-08T02:14:25Z</time></trkpt>
<trkpt lat="29.56538" lon="94.575695">
<time>2016-10-08T02:14:26Z</time></trkpt>
<trkpt lat="29.56532" lon="94.575745">
<time>2016-10-08T02:14:27Z</time></trkpt>
<trkpt lat="29.56526" lon="94.575785">
<time>2016-10-08T02:14:28Z</time></trkpt>
<trkpt lat="29.56519" lon="94.575825">
<time>2016-10-08T02:14:29Z</time></trkpt>
<trkpt lat="29.56511" lon="94.575875">
<time>2016-10-08T02:14:30Z</time></trkpt>
<trkpt lat="29.56506" lon="94.575895">
<time>2016-10-08T02:14:31Z</time></trkpt>
<trkpt lat="29.56499" lon="94.575915">
<time>2016-10-08T02:14:32Z</time></trkpt>
<trkpt lat="29.56492" lon="94.575915">
<time>2016-10-08T02:14:33Z</time></trkpt>
<trkpt lat="29.56486" lon="94.575915">
<time>2016-10-08T02:14:34Z</time></trkpt>
<trkpt lat="29.56482" lon="94.575905">
<time>2016-10-08T02:14:35Z</time></trkpt>
<trkpt lat="29.56479" lon="94.575885">
<time>2016-10-08T02:14:36Z</time></trkpt>
<trkpt lat="29.56473" lon="94.575845">
<time>2016-10-08T02:14:37Z</time></trkpt>
<trkpt lat="29.56465" lon="94.575785">
<time>2016-10-08T02:14:38Z</time></trkpt>
<trkpt lat="29.56454" lon="94.575705">
<time>2016-10-08T02:14:39Z</time></trkpt>
<trkpt lat="29.56446" lon="94.575665">
<time>2016-10-08T02:14:40Z</time></trkpt>
<trkpt lat="29.56437" lon="94.575625">
<time>2016-10-08T02:14:41Z</time></trkpt>
<trkpt lat="29.56429" lon="94.575585">
<time>2016-10-08T02:14:42Z</time></trkpt>
<trkpt lat="29.56421" lon="94.575565">
<time>2016-10-08T02:14:43Z</time></trkpt>
<trkpt lat="29.56414" lon="94.575535">
<time>2016-10-08T02:14:44Z</time></trkpt>
<trkpt lat="29.56403" lon="94.575514">
<time>2016-10-08T02:14:45Z</time></trkpt>
<trkpt lat="29.56394" lon="94.575504">
<time>2016-10-08T02:14:46Z</time></trkpt>
<trkpt lat="29.56388" lon="94.575494">
<time>2016-10-08T02:14:47Z</time></trkpt>
<trkpt lat="29.56381" lon="94.575484">
<time>2016-10-08T02:14:48Z</time></trkpt>
<trkpt lat="29.56375" lon="94.575474">
<time>2016-10-08T02:14:49Z</time></trkpt>
<trkpt lat="29.56365" lon="94.575484">
<time>2016-10-08T02:14:50Z</time></trkpt>
<trkpt lat="29.56357" lon="94.575484">
<time>2016-10-08T02:14:51Z</time></trkpt>
<trkpt lat="29.56352" lon="94.575494">
<time>2016-10-08T02:14:52Z</time></trkpt>
<trkpt lat="29.56347" lon="94.575514">
<time>2016-10-08T02:14:53Z</time></trkpt>
<trkpt lat="29.56342" lon="94.575545">
<time>2016-10-08T02:14:54Z</time></trkpt>
<trkpt lat="29.56333" lon="94.575605">
<time>2016-10-08T02:14:55Z</time></trkpt>
<trkpt lat="29.563251" lon="94.575675">
<time>2016-10-08T02:14:56Z</time></trkpt>
<trkpt lat="29.562901" lon="94.575975">
<time>2016-10-08T02:14:57Z</time></trkpt>
<trkpt lat="29.562681" lon="94.576155">
<time>2016-10-08T02:14:58Z</time></trkpt>
<trkpt lat="29.562591" lon="94.576215">
<time>2016-10-08T02:14:59Z</time></trkpt>
<trkpt lat="29.562511" lon="94.576265">
<time>2016-10-08T02:15:00Z</time></trkpt>
<trkpt lat="29.562431" lon="94.576315">
<time>2016-10-08T02:15:01Z</time></trkpt>
<trkpt lat="29.562381" lon="94.576335">
<time>2016-10-08T02:15:02Z</time></trkpt>
<trkpt lat="29.562312" lon="94.576366">
<time>2016-10-08T02:15:03Z</time></trkpt>
<trkpt lat="29.562232" lon="94.576396">
<time>2016-10-08T02:15:04Z</time></trkpt>
<trkpt lat="29.562152" lon="94.576436">
<time>2016-10-08T02:15:05Z</time></trkpt>
<trkpt lat="29.562052" lon="94.576466">
<time>2016-10-08T02:15:06Z</time></trkpt>
<trkpt lat="29.561962" lon="94.576506">
<time>2016-10-08T02:15:07Z</time></trkpt>
<trkpt lat="29.561892" lon="94.576536">
<time>2016-10-08T02:15:08Z</time></trkpt>
<trkpt lat="29.561852" lon="94.576546">
<time>2016-10-08T02:15:09Z</time></trkpt>
<trkpt lat="29.561782" lon="94.576566">
<time>2016-10-08T02:15:10Z</time></trkpt>
<trkpt lat="29.561722" lon="94.576566">
<time>2016-10-08T02:15:11Z</time></trkpt>
<trkpt lat="29.561652" lon="94.576556">
<time>2016-10-08T02:15:12Z</time></trkpt>
<trkpt lat="29.561582" lon="94.576536">
<time>2016-10-08T02:15:13Z</time></trkpt>
<trkpt lat="29.561532" lon="94.576506">
<time>2016-10-08T02:15:14Z</time></trkpt>
<trkpt lat="29.561482" lon="94.576466">
<time>2016-10-08T02:15:15Z</time></trkpt>
<trkpt lat="29.561452" lon="94.576426">
<time>2016-10-08T02:15:16Z</time></trkpt>
<trkpt lat="29.561432" lon="94.576376">
<time>2016-10-08T02:15:17Z</time></trkpt>
<trkpt lat="29.561432" lon="94.576346">
<time>2016-10-08T02:15:18Z</time></trkpt>
<trkpt lat="29.561422" lon="94.576295">
<time>2016-10-08T02:15:19Z</time></trkpt>
<trkpt lat="29.561432" lon="94.576205">
<time>2016-10-08T02:15:20Z</time></trkpt>
<trkpt lat="29.561452" lon="94.576065">
<time>2016-10-08T02:15:21Z</time></trkpt>
<trkpt lat="29.561481" lon="94.575855">
<time>2016-10-08T02:15:22Z</time></trkpt>
<trkpt lat="29.561511" lon="94.575605">
<time>2016-10-08T02:15:23Z</time></trkpt>
<trkpt lat="29.56159" lon="94.574994">
<time>2016-10-08T02:15:24Z</time></trkpt>
<trkpt lat="29.56164" lon="94.574543">
<time>2016-10-08T02:15:25Z</time></trkpt>
<trkpt lat="29.56169" lon="94.574163">
<time>2016-10-08T02:15:26Z</time></trkpt>
<trkpt lat="29.561709" lon="94.573963">
<time>2016-10-08T02:15:27Z</time></trkpt>
<trkpt lat="29.561749" lon="94.573692">
<time>2016-10-08T02:15:28Z</time></trkpt>
<trkpt lat="29.561779" lon="94.573562">
<time>2016-10-08T02:15:29Z</time></trkpt>
<trkpt lat="29.561809" lon="94.573462">
<time>2016-10-08T02:15:30Z</time></trkpt>
<trkpt lat="29.561849" lon="94.573342">
<time>2016-10-08T02:15:31Z</time></trkpt>
<trkpt lat="29.561909" lon="94.573222">
<time>2016-10-08T02:15:32Z</time></trkpt>
<trkpt lat="29.561978" lon="94.573111">
<time>2016-10-08T02:15:33Z</time></trkpt>
<trkpt lat="29.562048" lon="94.573011">
<time>2016-10-08T02:15:34Z</time></trkpt>
<trkpt lat="29.562148" lon="94.572891">
<time>2016-10-08T02:15:35Z</time></trkpt>
<trkpt lat="29.562238" lon="94.572801">
<time>2016-10-08T02:15:36Z</time></trkpt>
<trkpt lat="29.562308" lon="94.572741">
<time>2016-10-08T02:15:37Z</time></trkpt>
<trkpt lat="29.562378" lon="94.572691">
<time>2016-10-08T02:15:38Z</time></trkpt>
<trkpt lat="29.562458" lon="94.572651">
<time>2016-10-08T02:15:39Z</time></trkpt>
<trkpt lat="29.562548" lon="94.572621">
<time>2016-10-08T02:15:40Z</time></trkpt>
<trkpt lat="29.562638" lon="94.572601">
<time>2016-10-08T02:15:41Z</time></trkpt>
<trkpt lat="29.562788" lon="94.572571">
<time>2016-10-08T02:15:42Z</time></trkpt>
<trkpt lat="29.562927" lon="94.572551">
<time>2016-10-08T02:15:43Z</time></trkpt>
<trkpt lat="29.563087" lon="94.572541">
<time>2016-10-08T02:15:44Z</time></trkpt>
<trkpt lat="29.563187" lon="94.572541">
<time>2016-10-08T02:15:45Z</time></trkpt>
<trkpt lat="29.563287" lon="94.572531">
<time>2016-10-08T02:15:46Z</time></trkpt>
<trkpt lat="29.563347" lon="94.572521">
<time>2016-10-08T02:15:47Z</time></trkpt>
<trkpt lat="29.563387" lon="94.572501">
<time>2016-10-08T02:15:48Z</time></trkpt>
<trkpt lat="29.563447" lon="94.572461">
<time>2016-10-08T02:15:49Z</time></trkpt>
<trkpt lat="29.563507" lon="94.572401">
<time>2016-10-08T02:15:50Z</time></trkpt>
<trkpt lat="29.563597" lon="94.57228">
<time>2016-10-08T02:15:51Z</time></trkpt>
<trkpt lat="29.563727" lon="94.57211">
<time>2016-10-08T02:15:52Z</time></trkpt>
<trkpt lat="29.563896" lon="94.57191">
<time>2016-10-08T02:15:53Z</time></trkpt>
<trkpt lat="29.564136" lon="94.571659">
<time>2016-10-08T02:15:54Z</time></trkpt>
<trkpt lat="29.564296" lon="94.571499">
<time>2016-10-08T02:15:55Z</time></trkpt>
<trkpt lat="29.564366" lon="94.571429">
<time>2016-10-08T02:15:56Z</time></trkpt>
<trkpt lat="29.564396" lon="94.571379">
<time>2016-10-08T02:15:57Z</time></trkpt>
<trkpt lat="29.564416" lon="94.571349">
<time>2016-10-08T02:15:58Z</time></trkpt>
<trkpt lat="29.564446" lon="94.571299">
<time>2016-10-08T02:15:59Z</time></trkpt>
<trkpt lat="29.564465" lon="94.571219">
<time>2016-10-08T02:16:00Z</time></trkpt>
<trkpt lat="29.564485" lon="94.571149">
<time>2016-10-08T02:16:01Z</time></trkpt>
<trkpt lat="29.564485" lon="94.571079">
<time>2016-10-08T02:16:02Z</time></trkpt>
<trkpt lat="29.564495" lon="94.570989">
<time>2016-10-08T02:16:03Z</time></trkpt>
<trkpt lat="29.564495" lon="94.570858">
<time>2016-10-08T02:16:04Z</time></trkpt>
<trkpt lat="29.564485" lon="94.570758">
<time>2016-10-08T02:16:05Z</time></trkpt>
<trkpt lat="29.564465" lon="94.570668">
<time>2016-10-08T02:16:06Z</time></trkpt>
<trkpt lat="29.564445" lon="94.570608">
<time>2016-10-08T02:16:07Z</time></trkpt>
<trkpt lat="29.564425" lon="94.570578">
<time>2016-10-08T02:16:08Z</time></trkpt>
<trkpt lat="29.564385" lon="94.570518">
<time>2016-10-08T02:16:09Z</time></trkpt>
<trkpt lat="29.564335" lon="94.570458">
<time>2016-10-08T02:16:10Z</time></trkpt>
<trkpt lat="29.564275" lon="94.570408">
<time>2016-10-08T02:16:11Z</time></trkpt>
<trkpt lat="29.564225" lon="94.570388">
<time>2016-10-08T02:16:12Z</time></trkpt>
<trkpt lat="29.564185" lon="94.570378">
<time>2016-10-08T02:16:13Z</time></trkpt>
<trkpt lat="29.564145" lon="94.570378">
<time>2016-10-08T02:16:14Z</time></trkpt>
<trkpt lat="29.564105" lon="94.570388">
<time>2016-10-08T02:16:15Z</time></trkpt>
<trkpt lat="29.564035" lon="94.570408">
<time>2016-10-08T02:16:16Z</time></trkpt>
<trkpt lat="29.563965" lon="94.570448">
<time>2016-10-08T02:16:17Z</time></trkpt>
<trkpt lat="29.563905" lon="94.570498">
<time>2016-10-08T02:16:18Z</time></trkpt>
<trkpt lat="29.563835" lon="94.570558">
<time>2016-10-08T02:16:19Z</time></trkpt>
<trkpt lat="29.563775" lon="94.570608">
<time>2016-10-08T02:16:20Z</time></trkpt>
<trkpt lat="29.563655" lon="94.570668">
<time>2016-10-08T02:16:21Z</time></trkpt>
<trkpt lat="29.563595" lon="94.570688">
<time>2016-10-08T02:16:22Z</time></trkpt>
<trkpt lat="29.563525" lon="94.570708">
<time>2016-10-08T02:16:23Z</time></trkpt>
<trkpt lat="29.563445" lon="94.570708">
<time>2016-10-08T02:16:24Z</time></trkpt>
<trkpt lat="29.563385" lon="94.570698">
<time>2016-10-08T02:16:25Z</time></trkpt>
<trkpt lat="29.563315" lon="94.570678">
<time>2016-10-08T02:16:26Z</time></trkpt>
<trkpt lat="29.563215" lon="94.570648">
<time>2016-10-08T02:16:27Z</time></trkpt>
<trkpt lat="29.563095" lon="94.570578">
<time>2016-10-08T02:16:28Z</time></trkpt>
<trkpt lat="29.563015" lon="94.570528">
<time>2016-10-08T02:16:29Z</time></trkpt>
<trkpt lat="29.562895" lon="94.570448">
<time>2016-10-08T02:16:30Z</time></trkpt>
<trkpt lat="29.562665" lon="94.570288">
<time>2016-10-08T02:16:31Z</time></trkpt>
<trkpt lat="29.562525" lon="94.570157">
<time>2016-10-08T02:16:32Z</time></trkpt>
<trkpt lat="29.562435" lon="94.570077">
<time>2016-10-08T02:16:33Z</time></trkpt>
<trkpt lat="29.562365" lon="94.570017">
<time>2016-10-08T02:16:34Z</time></trkpt>
<trkpt lat="29.562315" lon="94.569967">
<time>2016-10-08T02:16:35Z</time></trkpt>
<trkpt lat="29.562245" lon="94.569927">
<time>2016-10-08T02:16:36Z</time></trkpt>
<trkpt lat="29.562185" lon="94.569897">
<time>2016-10-08T02:16:37Z</time></trkpt>
<trkpt lat="29.562105" lon="94.569877">
<time>2016-10-08T02:16:38Z</time></trkpt>
<trkpt lat="29.562025" lon="94.569857">
<time>2016-10-08T02:16:39Z</time></trkpt>
<trkpt lat="29.561905" lon="94.569807">
<time>2016-10-08T02:16:40Z</time></trkpt>
<trkpt lat="29.561755" lon="94.569717">
<time>2016-10-08T02:16:41Z</time></trkpt>
<trkpt lat="29.561645" lon="94.569647">
<time>2016-10-08T02:16:42Z</time></trkpt>
<trkpt lat="29.561514" lon="94.569556">
<time>2016-10-08T02:16:43Z</time></trkpt>
<trkpt lat="29.561444" lon="94.569466">
<time>2016-10-08T02:16:44Z</time></trkpt>
<trkpt lat="29.561394" lon="94.569416">
<time>2016-10-08T02:16:45Z</time></trkpt>
<trkpt lat="29.561344" lon="94.569326">
<time>2016-10-08T02:16:46Z</time></trkpt>
<trkpt lat="29.561294" lon="94.569226">
<time>2016-10-08T02:16:47Z</time></trkpt>
<trkpt lat="29.561264" lon="94.569136">
<time>2016-10-08T02:16:48Z</time></trkpt>
<trkpt lat="29.561234" lon="94.569026">
<time>2016-10-08T02:16:49Z</time></trkpt>
<trkpt lat="29.561194" lon="94.568805">
<time>2016-10-08T02:16:50Z</time></trkpt>
<trkpt lat="29.561153" lon="94.568605">
<time>2016-10-08T02:16:51Z</time></trkpt>
<trkpt lat="29.561103" lon="94.568355">
<time>2016-10-08T02:16:52Z</time></trkpt>
<trkpt lat="29.561053" lon="94.568114">
<time>2016-10-08T02:16:53Z</time></trkpt>
<trkpt lat="29.561023" lon="94.567964">
<time>2016-10-08T02:16:54Z</time></trkpt>
<trkpt lat="29.561013" lon="94.567874">
<time>2016-10-08T02:16:55Z</time></trkpt>
<trkpt lat="29.561002" lon="94.567754">
<time>2016-10-08T02:16:56Z</time></trkpt>
<trkpt lat="29.560992" lon="94.567634">
<time>2016-10-08T02:16:57Z</time></trkpt>
<trkpt lat="29.560982" lon="94.567443">
<time>2016-10-08T02:16:58Z</time></trkpt>
<trkpt lat="29.560961" lon="94.567043">
<time>2016-10-08T02:16:59Z</time></trkpt>
<trkpt lat="29.560961" lon="94.566872">
<time>2016-10-08T02:17:00Z</time></trkpt>
<trkpt lat="29.560951" lon="94.566612">
<time>2016-10-08T02:17:01Z</time></trkpt>
<trkpt lat="29.56094" lon="94.566281">
<time>2016-10-08T02:17:02Z</time></trkpt>
<trkpt lat="29.56094" lon="94.566021">
<time>2016-10-08T02:17:03Z</time></trkpt>
<trkpt lat="29.56094" lon="94.565801">
<time>2016-10-08T02:17:04Z</time></trkpt>
<trkpt lat="29.56096" lon="94.5656">
<time>2016-10-08T02:17:05Z</time></trkpt>
<trkpt lat="29.560989" lon="94.5654">
<time>2016-10-08T02:17:06Z</time></trkpt>
<trkpt lat="29.561049" lon="94.565009">
<time>2016-10-08T02:17:07Z</time></trkpt>
<trkpt lat="29.561098" lon="94.564769">
<time>2016-10-08T02:17:08Z</time></trkpt>
<trkpt lat="29.561128" lon="94.564578">
<time>2016-10-08T02:17:09Z</time></trkpt>
<trkpt lat="29.561158" lon="94.564388">
<time>2016-10-08T02:17:10Z</time></trkpt>
<trkpt lat="29.561178" lon="94.564248">
<time>2016-10-08T02:17:11Z</time></trkpt>
<trkpt lat="29.561177" lon="94.564128">
<time>2016-10-08T02:17:12Z</time></trkpt>
<trkpt lat="29.561157" lon="94.564027">
<time>2016-10-08T02:17:13Z</time></trkpt>
<trkpt lat="29.561137" lon="94.563917">
<time>2016-10-08T02:17:14Z</time></trkpt>
<trkpt lat="29.561107" lon="94.563787">
<time>2016-10-08T02:17:15Z</time></trkpt>
<trkpt lat="29.561047" lon="94.563627">
<time>2016-10-08T02:17:16Z</time></trkpt>
<trkpt lat="29.560956" lon="94.563416">
<time>2016-10-08T02:17:17Z</time></trkpt>
<trkpt lat="29.560886" lon="94.563246">
<time>2016-10-08T02:17:18Z</time></trkpt>
<trkpt lat="29.560635" lon="94.562625">
<time>2016-10-08T02:17:19Z</time></trkpt>
<trkpt lat="29.560585" lon="94.562455">
<time>2016-10-08T02:17:20Z</time></trkpt>
<trkpt lat="29.560454" lon="94.561843">
<time>2016-10-08T02:17:21Z</time></trkpt>
<trkpt lat="29.560414" lon="94.561663">
<time>2016-10-08T02:17:22Z</time></trkpt>
<trkpt lat="29.560384" lon="94.561523">
<time>2016-10-08T02:17:23Z</time></trkpt>
<trkpt lat="29.560374" lon="94.561413">
<time>2016-10-08T02:17:24Z</time></trkpt>
<trkpt lat="29.560373" lon="94.561302">
<time>2016-10-08T02:17:25Z</time></trkpt>
<trkpt lat="29.560383" lon="94.561202">
<time>2016-10-08T02:17:26Z</time></trkpt>
<trkpt lat="29.560393" lon="94.561082">
<time>2016-10-08T02:17:27Z</time></trkpt>
<trkpt lat="29.560403" lon="94.560962">
<time>2016-10-08T02:17:28Z</time></trkpt>
<trkpt lat="29.560413" lon="94.560832">
<time>2016-10-08T02:17:29Z</time></trkpt>
<trkpt lat="29.560452" lon="94.560661">
<time>2016-10-08T02:17:30Z</time></trkpt>
<trkpt lat="29.560502" lon="94.560541">
<time>2016-10-08T02:17:31Z</time></trkpt>
<trkpt lat="29.560552" lon="94.560411">
<time>2016-10-08T02:17:32Z</time></trkpt>
<trkpt lat="29.560682" lon="94.56022">
<time>2016-10-08T02:17:33Z</time></trkpt>
<trkpt lat="29.560801" lon="94.56005">
<time>2016-10-08T02:17:34Z</time></trkpt>
<trkpt lat="29.560911" lon="94.55989">
<time>2016-10-08T02:17:35Z</time></trkpt>
<trkpt lat="29.560981" lon="94.559769">
<time>2016-10-08T02:17:36Z</time></trkpt>
<trkpt lat="29.56104" lon="94.559649">
<time>2016-10-08T02:17:37Z</time></trkpt>
<trkpt lat="29.56107" lon="94.559589">
<time>2016-10-08T02:17:38Z</time></trkpt>
<trkpt lat="29.56109" lon="94.559509">
<time>2016-10-08T02:17:39Z</time></trkpt>
<trkpt lat="29.56111" lon="94.559369">
<time>2016-10-08T02:17:40Z</time></trkpt>
<trkpt lat="29.56112" lon="94.559278">
<time>2016-10-08T02:17:41Z</time></trkpt>
<trkpt lat="29.56113" lon="94.559168">
<time>2016-10-08T02:17:42Z</time></trkpt>
<trkpt lat="29.561129" lon="94.559058">
<time>2016-10-08T02:17:43Z</time></trkpt>
<trkpt lat="29.561149" lon="94.558878">
<time>2016-10-08T02:17:44Z</time></trkpt>
<trkpt lat="29.561169" lon="94.558737">
<time>2016-10-08T02:17:45Z</time></trkpt>
<trkpt lat="29.561199" lon="94.558647">
<time>2016-10-08T02:17:46Z</time></trkpt>
<trkpt lat="29.561229" lon="94.558577">
<time>2016-10-08T02:17:47Z</time></trkpt>
<trkpt lat="29.561268" lon="94.558497">
<time>2016-10-08T02:17:48Z</time></trkpt>
<trkpt lat="29.561318" lon="94.558427">
<time>2016-10-08T02:17:49Z</time></trkpt>
<trkpt lat="29.561388" lon="94.558357">
<time>2016-10-08T02:17:50Z</time></trkpt>
<trkpt lat="29.561448" lon="94.558296">
<time>2016-10-08T02:17:51Z</time></trkpt>
<trkpt lat="29.561508" lon="94.558246">
<time>2016-10-08T02:17:52Z</time></trkpt>
<trkpt lat="29.561558" lon="94.558206">
<time>2016-10-08T02:17:53Z</time></trkpt>
<trkpt lat="29.561618" lon="94.558166">
<time>2016-10-08T02:17:54Z</time></trkpt>
<trkpt lat="29.561927" lon="94.557956">
<time>2016-10-08T02:17:55Z</time></trkpt>
<trkpt lat="29.562027" lon="94.557896">
<time>2016-10-08T02:17:56Z</time></trkpt>
<trkpt lat="29.562097" lon="94.557835">
<time>2016-10-08T02:17:57Z</time></trkpt>
<trkpt lat="29.562167" lon="94.557775">
<time>2016-10-08T02:17:58Z</time></trkpt>
<trkpt lat="29.562227" lon="94.557705">
<time>2016-10-08T02:17:59Z</time></trkpt>
<trkpt lat="29.562277" lon="94.557645">
<time>2016-10-08T02:18:00Z</time></trkpt>
<trkpt lat="29.562327" lon="94.557565">
<time>2016-10-08T02:18:01Z</time></trkpt>
<trkpt lat="29.562356" lon="94.557515">
<time>2016-10-08T02:18:02Z</time></trkpt>
<trkpt lat="29.562376" lon="94.557415">
<time>2016-10-08T02:18:03Z</time></trkpt>
<trkpt lat="29.562386" lon="94.557234">
<time>2016-10-08T02:18:04Z</time></trkpt>
<trkpt lat="29.562386" lon="94.557064">
<time>2016-10-08T02:18:05Z</time></trkpt>
<trkpt lat="29.562385" lon="94.556843">
<time>2016-10-08T02:18:06Z</time></trkpt>
<trkpt lat="29.562385" lon="94.556623">
<time>2016-10-08T02:18:07Z</time></trkpt>
<trkpt lat="29.562385" lon="94.556503">
<time>2016-10-08T02:18:08Z</time></trkpt>
<trkpt lat="29.562385" lon="94.556433">
<time>2016-10-08T02:18:09Z</time></trkpt>
<trkpt lat="29.562394" lon="94.556362">
<time>2016-10-08T02:18:10Z</time></trkpt>
<trkpt lat="29.562414" lon="94.556302">
<time>2016-10-08T02:18:11Z</time></trkpt>
<trkpt lat="29.562424" lon="94.556242">
<time>2016-10-08T02:18:12Z</time></trkpt>
<trkpt lat="29.562444" lon="94.556162">
<time>2016-10-08T02:18:13Z</time></trkpt>
<trkpt lat="29.562494" lon="94.556022">
<time>2016-10-08T02:18:14Z</time></trkpt>
<trkpt lat="29.562524" lon="94.555891">
<time>2016-10-08T02:18:15Z</time></trkpt>
<trkpt lat="29.562543" lon="94.555801">
<time>2016-10-08T02:18:16Z</time></trkpt>
<trkpt lat="29.562543" lon="94.555731">
<time>2016-10-08T02:18:17Z</time></trkpt>
<trkpt lat="29.562533" lon="94.555661">
<time>2016-10-08T02:18:18Z</time></trkpt>
<trkpt lat="29.562513" lon="94.555591">
<time>2016-10-08T02:18:19Z</time></trkpt>
<trkpt lat="29.562483" lon="94.555521">
<time>2016-10-08T02:18:20Z</time></trkpt>
<trkpt lat="29.562433" lon="94.55541">
<time>2016-10-08T02:18:21Z</time></trkpt>
<trkpt lat="29.562362" lon="94.55527">
<time>2016-10-08T02:18:22Z</time></trkpt>
<trkpt lat="29.562312" lon="94.55518">
<time>2016-10-08T02:18:23Z</time></trkpt>
<trkpt lat="29.562252" lon="94.55508">
<time>2016-10-08T02:18:24Z</time></trkpt>
<trkpt lat="29.562212" lon="94.554979">
<time>2016-10-08T02:18:25Z</time></trkpt>
<trkpt lat="29.562192" lon="94.554869">
<time>2016-10-08T02:18:26Z</time></trkpt>
<trkpt lat="29.562172" lon="94.554799">
<time>2016-10-08T02:18:27Z</time></trkpt>
<trkpt lat="29.562162" lon="94.554719">
<time>2016-10-08T02:18:28Z</time></trkpt>
<trkpt lat="29.562161" lon="94.554659">
<time>2016-10-08T02:18:29Z</time></trkpt>
<trkpt lat="29.562161" lon="94.554599">
<time>2016-10-08T02:18:30Z</time></trkpt>
<trkpt lat="29.562171" lon="94.554518">
<time>2016-10-08T02:18:31Z</time></trkpt>
<trkpt lat="29.562191" lon="94.554418">
<time>2016-10-08T02:18:32Z</time></trkpt>
<trkpt lat="29.562211" lon="94.554308">
<time>2016-10-08T02:18:33Z</time></trkpt>
<trkpt lat="29.562231" lon="94.554208">
<time>2016-10-08T02:18:34Z</time></trkpt>
<trkpt lat="29.56224" lon="94.554087">
<time>2016-10-08T02:18:35Z</time></trkpt>
<trkpt lat="29.56224" lon="94.553977">
<time>2016-10-08T02:18:36Z</time></trkpt>
<trkpt lat="29.56223" lon="94.553867">
<time>2016-10-08T02:18:37Z</time></trkpt>
<trkpt lat="29.56219" lon="94.553737">
<time>2016-10-08T02:18:38Z</time></trkpt>
<trkpt lat="29.562139" lon="94.553576">
<time>2016-10-08T02:18:39Z</time></trkpt>
<trkpt lat="29.562109" lon="94.553516">
<time>2016-10-08T02:18:40Z</time></trkpt>
<trkpt lat="29.562099" lon="94.553466">
<time>2016-10-08T02:18:41Z</time></trkpt>
<trkpt lat="29.562069" lon="94.553416">
<time>2016-10-08T02:18:42Z</time></trkpt>
<trkpt lat="29.562029" lon="94.553376">
<time>2016-10-08T02:18:43Z</time></trkpt>
<trkpt lat="29.561959" lon="94.553326">
<time>2016-10-08T02:18:44Z</time></trkpt>
<trkpt lat="29.561909" lon="94.553276">
<time>2016-10-08T02:18:45Z</time></trkpt>
<trkpt lat="29.561819" lon="94.553225">
<time>2016-10-08T02:18:46Z</time></trkpt>
<trkpt lat="29.561689" lon="94.553155">
<time>2016-10-08T02:18:47Z</time></trkpt>
<trkpt lat="29.561489" lon="94.553065">
<time>2016-10-08T02:18:48Z</time></trkpt>
<trkpt lat="29.561409" lon="94.553015">
<time>2016-10-08T02:18:49Z</time></trkpt>
<trkpt lat="29.561319" lon="94.552965">
<time>2016-10-08T02:18:50Z</time></trkpt>
<trkpt lat="29.561239" lon="94.552925">
<time>2016-10-08T02:18:51Z</time></trkpt>
<trkpt lat="29.561148" lon="94.552865">
<time>2016-10-08T02:18:52Z</time></trkpt>
<trkpt lat="29.561038" lon="94.552805">
<time>2016-10-08T02:18:53Z</time></trkpt>
<trkpt lat="29.560958" lon="94.552774">
<time>2016-10-08T02:18:54Z</time></trkpt>
<trkpt lat="29.560918" lon="94.552754">
<time>2016-10-08T02:18:55Z</time></trkpt>
<trkpt lat="29.560838" lon="94.552744">
<time>2016-10-08T02:18:56Z</time></trkpt>
<trkpt lat="29.560788" lon="94.552734">
<time>2016-10-08T02:18:57Z</time></trkpt>
<trkpt lat="29.560738" lon="94.552734">
<time>2016-10-08T02:18:58Z</time></trkpt>
<trkpt lat="29.560688" lon="94.552754">
<time>2016-10-08T02:18:59Z</time></trkpt>
<trkpt lat="29.560628" lon="94.552774">
<time>2016-10-08T02:19:00Z</time></trkpt>
<trkpt lat="29.560569" lon="94.552815">
<time>2016-10-08T02:19:01Z</time></trkpt>
<trkpt lat="29.560539" lon="94.552835">
<time>2016-10-08T02:19:02Z</time></trkpt>
<trkpt lat="29.560479" lon="94.552895">
<time>2016-10-08T02:19:03Z</time></trkpt>
<trkpt lat="29.560389" lon="94.552985">
<time>2016-10-08T02:19:04Z</time></trkpt>
<trkpt lat="29.560349" lon="94.553055">
<time>2016-10-08T02:19:05Z</time></trkpt>
<trkpt lat="29.560309" lon="94.553105">
<time>2016-10-08T02:19:06Z</time></trkpt>
<trkpt lat="29.560279" lon="94.553165">
<time>2016-10-08T02:19:07Z</time></trkpt>
<trkpt lat="29.560249" lon="94.553225">
<time>2016-10-08T02:19:08Z</time></trkpt>
<trkpt lat="29.56022" lon="94.553316">
<time>2016-10-08T02:19:09Z</time></trkpt>
<trkpt lat="29.56018" lon="94.553456">
<time>2016-10-08T02:19:10Z</time></trkpt>
<trkpt lat="29.56015" lon="94.553576">
<time>2016-10-08T02:19:11Z</time></trkpt>
<trkpt lat="29.56009" lon="94.553757">
<time>2016-10-08T02:19:12Z</time></trkpt>
<trkpt lat="29.560061" lon="94.553857">
<time>2016-10-08T02:19:13Z</time></trkpt>
<trkpt lat="29.560031" lon="94.553927">
<time>2016-10-08T02:19:14Z</time></trkpt>
<trkpt lat="29.560001" lon="94.553987">
<time>2016-10-08T02:19:15Z</time></trkpt>
<trkpt lat="29.559951" lon="94.554057">
<time>2016-10-08T02:19:16Z</time></trkpt>
<trkpt lat="29.559891" lon="94.554107">
<time>2016-10-08T02:19:17Z</time></trkpt>
<trkpt lat="29.559831" lon="94.554158">
<time>2016-10-08T02:19:18Z</time></trkpt>
<trkpt lat="29.559771" lon="94.554188">
<time>2016-10-08T02:19:19Z</time></trkpt>
<trkpt lat="29.559711" lon="94.554208">
<time>2016-10-08T02:19:20Z</time></trkpt>
<trkpt lat="29.559652" lon="94.554238">
<time>2016-10-08T02:19:21Z</time></trkpt>
<trkpt lat="29.559612" lon="94.554278">
<time>2016-10-08T02:19:22Z</time></trkpt>
<trkpt lat="29.559562" lon="94.554318">
<time>2016-10-08T02:19:23Z</time></trkpt>
<trkpt lat="29.559512" lon="94.554388">
<time>2016-10-08T02:19:24Z</time></trkpt>
<trkpt lat="29.559452" lon="94.554488">
<time>2016-10-08T02:19:25Z</time></trkpt>
<trkpt lat="29.559402" lon="94.554589">
<time>2016-10-08T02:19:26Z</time></trkpt>
<trkpt lat="29.559352" lon="94.554669">
<time>2016-10-08T02:19:27Z</time></trkpt>
<trkpt lat="29.559323" lon="94.554729">
<time>2016-10-08T02:19:28Z</time></trkpt>
<trkpt lat="29.559273" lon="94.554789">
<time>2016-10-08T02:19:29Z</time></trkpt>
<trkpt lat="29.559233" lon="94.554819">
<time>2016-10-08T02:19:30Z</time></trkpt>
<trkpt lat="29.559183" lon="94.554859">
<time>2016-10-08T02:19:31Z</time></trkpt>
<trkpt lat="29.559103" lon="94.554909">
<time>2016-10-08T02:19:32Z</time></trkpt>
<trkpt lat="29.559053" lon="94.554929">
<time>2016-10-08T02:19:33Z</time></trkpt>
<trkpt lat="29.558983" lon="94.554979">
<time>2016-10-08T02:19:34Z</time></trkpt>
<trkpt lat="29.558933" lon="94.55503">
<time>2016-10-08T02:19:35Z</time></trkpt>
<trkpt lat="29.558893" lon="94.55509">
<time>2016-10-08T02:19:36Z</time></trkpt>
<trkpt lat="29.558854" lon="94.55516">
<time>2016-10-08T02:19:37Z</time></trkpt>
<trkpt lat="29.558834" lon="94.55525">
<time>2016-10-08T02:19:38Z</time></trkpt>
<trkpt lat="29.558794" lon="94.55536">
<time>2016-10-08T02:19:39Z</time></trkpt>
<trkpt lat="29.558764" lon="94.55545">
<time>2016-10-08T02:19:40Z</time></trkpt>
<trkpt lat="29.558754" lon="94.555521">
<time>2016-10-08T02:19:41Z</time></trkpt>
<trkpt lat="29.558744" lon="94.555611">
<time>2016-10-08T02:19:42Z</time></trkpt>
<trkpt lat="29.558754" lon="94.555681">
<time>2016-10-08T02:19:43Z</time></trkpt>
<trkpt lat="29.558765" lon="94.555781">
<time>2016-10-08T02:19:44Z</time></trkpt>
<trkpt lat="29.558785" lon="94.555881">
<time>2016-10-08T02:19:45Z</time></trkpt>
<trkpt lat="29.558825" lon="94.555992">
<time>2016-10-08T02:19:46Z</time></trkpt>
<trkpt lat="29.558855" lon="94.556072">
<time>2016-10-08T02:19:47Z</time></trkpt>
<trkpt lat="29.558935" lon="94.556252">
<time>2016-10-08T02:19:48Z</time></trkpt>
<trkpt lat="29.558996" lon="94.556382">
<time>2016-10-08T02:19:49Z</time></trkpt>
<trkpt lat="29.559046" lon="94.556543">
<time>2016-10-08T02:19:50Z</time></trkpt>
<trkpt lat="29.559076" lon="94.556673">
<time>2016-10-08T02:19:51Z</time></trkpt>
<trkpt lat="29.559106" lon="94.556803">
<time>2016-10-08T02:19:52Z</time></trkpt>
<trkpt lat="29.559117" lon="94.556924">
<time>2016-10-08T02:19:53Z</time></trkpt>
<trkpt lat="29.559127" lon="94.557124">
<time>2016-10-08T02:19:54Z</time></trkpt>
<trkpt lat="29.559148" lon="94.557535">
<time>2016-10-08T02:19:55Z</time></trkpt>
<trkpt lat="29.559158" lon="94.557805">
<time>2016-10-08T02:19:56Z</time></trkpt>
<trkpt lat="29.559168" lon="94.557966">
<time>2016-10-08T02:19:57Z</time></trkpt>
<trkpt lat="29.559168" lon="94.558046">
<time>2016-10-08T02:19:58Z</time></trkpt>
<trkpt lat="29.559169" lon="94.558086">
<time>2016-10-08T02:19:59Z</time></trkpt>
<trkpt lat="29.559169" lon="94.558156">
<time>2016-10-08T02:20:00Z</time></trkpt>
<trkpt lat="29.559149" lon="94.558216">
<time>2016-10-08T02:20:01Z</time></trkpt>
<trkpt lat="29.559149" lon="94.558246">
<time>2016-10-08T02:20:02Z</time></trkpt>
<trkpt lat="29.559129" lon="94.558276">
<time>2016-10-08T02:20:03Z</time></trkpt>
<trkpt lat="29.559109" lon="94.558307">
<time>2016-10-08T02:20:04Z</time></trkpt>
<trkpt lat="29.559089" lon="94.558327">
<time>2016-10-08T02:20:05Z</time></trkpt>
<trkpt lat="29.559059" lon="94.558347">
<time>2016-10-08T02:20:06Z</time></trkpt>
<trkpt lat="29.559019" lon="94.558357">
<time>2016-10-08T02:20:07Z</time></trkpt>
<trkpt lat="29.558989" lon="94.558367">
<time>2016-10-08T02:20:08Z</time></trkpt>
<trkpt lat="29.558959" lon="94.558367">
<time>2016-10-08T02:20:09Z</time></trkpt>
<trkpt lat="29.558929" lon="94.558357">
<time>2016-10-08T02:20:10Z</time></trkpt>
<trkpt lat="29.558909" lon="94.558357">
<time>2016-10-08T02:20:11Z</time></trkpt>
<trkpt lat="29.558889" lon="94.558347">
<time>2016-10-08T02:20:12Z</time></trkpt>
<trkpt lat="29.558879" lon="94.558337">
<time>2016-10-08T02:20:13Z</time></trkpt>
<trkpt lat="29.558859" lon="94.558317">
<time>2016-10-08T02:20:14Z</time></trkpt>
<trkpt lat="29.558849" lon="94.558307">
<time>2016-10-08T02:20:15Z</time></trkpt>
<trkpt lat="29.558829" lon="94.558266">
<time>2016-10-08T02:20:16Z</time></trkpt>
<trkpt lat="29.558809" lon="94.558216">
<time>2016-10-08T02:20:17Z</time></trkpt>
<trkpt lat="29.558799" lon="94.558156">
<time>2016-10-08T02:20:18Z</time></trkpt>
<trkpt lat="29.558799" lon="94.558096">
<time>2016-10-08T02:20:19Z</time></trkpt>
<trkpt lat="29.558799" lon="94.558056">
<time>2016-10-08T02:20:20Z</time></trkpt>
<trkpt lat="29.558808" lon="94.557966">
<time>2016-10-08T02:20:21Z</time></trkpt>
<trkpt lat="29.558838" lon="94.557846">
<time>2016-10-08T02:20:22Z</time></trkpt>
<trkpt lat="29.558858" lon="94.557735">
<time>2016-10-08T02:20:23Z</time></trkpt>
<trkpt lat="29.558898" lon="94.557545">
<time>2016-10-08T02:20:24Z</time></trkpt>
<trkpt lat="29.558918" lon="94.557435">
<time>2016-10-08T02:20:25Z</time></trkpt>
<trkpt lat="29.558927" lon="94.557365">
<time>2016-10-08T02:20:26Z</time></trkpt>
<trkpt lat="29.558927" lon="94.557264">
<time>2016-10-08T02:20:27Z</time></trkpt>
<trkpt lat="29.558917" lon="94.557194">
<time>2016-10-08T02:20:28Z</time></trkpt>
<trkpt lat="29.558897" lon="94.557104">
<time>2016-10-08T02:20:29Z</time></trkpt>
<trkpt lat="29.558857" lon="94.556994">
<time>2016-10-08T02:20:30Z</time></trkpt>
<trkpt lat="29.558807" lon="94.556843">
<time>2016-10-08T02:20:31Z</time></trkpt>
<trkpt lat="29.558746" lon="94.556653">
<time>2016-10-08T02:20:32Z</time></trkpt>
<trkpt lat="29.558666" lon="94.556433">
<time>2016-10-08T02:20:33Z</time></trkpt>
<trkpt lat="29.558555" lon="94.556162">
<time>2016-10-08T02:20:34Z</time></trkpt>
<trkpt lat="29.558465" lon="94.555922">
<time>2016-10-08T02:20:35Z</time></trkpt>
<trkpt lat="29.558435" lon="94.555841">
<time>2016-10-08T02:20:36Z</time></trkpt>
<trkpt lat="29.558425" lon="94.555761">
<time>2016-10-08T02:20:37Z</time></trkpt>
<trkpt lat="29.558415" lon="94.555671">
<time>2016-10-08T02:20:38Z</time></trkpt>
<trkpt lat="29.558414" lon="94.555621">
<time>2016-10-08T02:20:39Z</time></trkpt>
<trkpt lat="29.558414" lon="94.555521">
<time>2016-10-08T02:20:40Z</time></trkpt>
<trkpt lat="29.558414" lon="94.55543">
<time>2016-10-08T02:20:41Z</time></trkpt>
<trkpt lat="29.558434" lon="94.55531">
<time>2016-10-08T02:20:42Z</time></trkpt>
<trkpt lat="29.558444" lon="94.55517">
<time>2016-10-08T02:20:43Z</time></trkpt>
<trkpt lat="29.558483" lon="94.554999">
<time>2016-10-08T02:20:44Z</time></trkpt>
<trkpt lat="29.558493" lon="94.554899">
<time>2016-10-08T02:20:45Z</time></trkpt>
<trkpt lat="29.558513" lon="94.554859">
<time>2016-10-08T02:20:46Z</time></trkpt>
<trkpt lat="29.558533" lon="94.554799">
<time>2016-10-08T02:20:47Z</time></trkpt>
<trkpt lat="29.558563" lon="94.554749">
<time>2016-10-08T02:20:48Z</time></trkpt>
<trkpt lat="29.558623" lon="94.554659">
<time>2016-10-08T02:20:49Z</time></trkpt>
<trkpt lat="29.558703" lon="94.554589">
<time>2016-10-08T02:20:50Z</time></trkpt>
<trkpt lat="29.558822" lon="94.554438">
<time>2016-10-08T02:20:51Z</time></trkpt>
<trkpt lat="29.558872" lon="94.554368">
<time>2016-10-08T02:20:52Z</time></trkpt>
<trkpt lat="29.558922" lon="94.554298">
<time>2016-10-08T02:20:53Z</time></trkpt>
<trkpt lat="29.558992" lon="94.554178">
<time>2016-10-08T02:20:54Z</time></trkpt>
<trkpt lat="29.559031" lon="94.554097">
<time>2016-10-08T02:20:55Z</time></trkpt>
<trkpt lat="29.559061" lon="94.554017">
<time>2016-10-08T02:20:56Z</time></trkpt>
<trkpt lat="29.559141" lon="94.553857">
<time>2016-10-08T02:20:57Z</time></trkpt>
<trkpt lat="29.559181" lon="94.553797">
<time>2016-10-08T02:20:58Z</time></trkpt>
<trkpt lat="29.559221" lon="94.553737">
<time>2016-10-08T02:20:59Z</time></trkpt>
<trkpt lat="29.559261" lon="94.553697">
<time>2016-10-08T02:21:00Z</time></trkpt>
<trkpt lat="29.559291" lon="94.553667">
<time>2016-10-08T02:21:01Z</time></trkpt>
<trkpt lat="29.559321" lon="94.553636">
<time>2016-10-08T02:21:02Z</time></trkpt>
<trkpt lat="29.55937" lon="94.553596">
<time>2016-10-08T02:21:03Z</time></trkpt>
<trkpt lat="29.55942" lon="94.553536">
<time>2016-10-08T02:21:04Z</time></trkpt>
<trkpt lat="29.55945" lon="94.553496">
<time>2016-10-08T02:21:05Z</time></trkpt>
<trkpt lat="29.55948" lon="94.553456">
<time>2016-10-08T02:21:06Z</time></trkpt>
<trkpt lat="29.55951" lon="94.553376">
<time>2016-10-08T02:21:07Z</time></trkpt>
<trkpt lat="29.55953" lon="94.553306">
<time>2016-10-08T02:21:08Z</time></trkpt>
<trkpt lat="29.55955" lon="94.553236">
<time>2016-10-08T02:21:09Z</time></trkpt>
<trkpt lat="29.559559" lon="94.553115">
<time>2016-10-08T02:21:10Z</time></trkpt>
<trkpt lat="29.559579" lon="94.553025">
<time>2016-10-08T02:21:11Z</time></trkpt>
<trkpt lat="29.559589" lon="94.552955">
<time>2016-10-08T02:21:12Z</time></trkpt>
<trkpt lat="29.559609" lon="94.552875">
<time>2016-10-08T02:21:13Z</time></trkpt>
<trkpt lat="29.559619" lon="94.552835">
<time>2016-10-08T02:21:14Z</time></trkpt>
<trkpt lat="29.559629" lon="94.552795">
<time>2016-10-08T02:21:15Z</time></trkpt>
<trkpt lat="29.559659" lon="94.552734">
<time>2016-10-08T02:21:16Z</time></trkpt>
<trkpt lat="29.559689" lon="94.552674">
<time>2016-10-08T02:21:17Z</time></trkpt>
<trkpt lat="29.559718" lon="94.552624">
<time>2016-10-08T02:21:18Z</time></trkpt>
<trkpt lat="29.559778" lon="94.552544">
<time>2016-10-08T02:21:19Z</time></trkpt>
<trkpt lat="29.559878" lon="94.552414">
<time>2016-10-08T02:21:20Z</time></trkpt>
<trkpt lat="29.559928" lon="94.552333">
<time>2016-10-08T02:21:21Z</time></trkpt>
<trkpt lat="29.559968" lon="94.552253">
<time>2016-10-08T02:21:22Z</time></trkpt>
<trkpt lat="29.560027" lon="94.552153">
<time>2016-10-08T02:21:23Z</time></trkpt>
<trkpt lat="29.560077" lon="94.552033">
<time>2016-10-08T02:21:24Z</time></trkpt>
<trkpt lat="29.560117" lon="94.551943">
<time>2016-10-08T02:21:25Z</time></trkpt>
<trkpt lat="29.560137" lon="94.551892">
<time>2016-10-08T02:21:26Z</time></trkpt>
<trkpt lat="29.560167" lon="94.551832">
<time>2016-10-08T02:21:27Z</time></trkpt>
<trkpt lat="29.560296" lon="94.551632">
<time>2016-10-08T02:21:28Z</time></trkpt>
<trkpt lat="29.560416" lon="94.551451">
<time>2016-10-08T02:21:29Z</time></trkpt>
<trkpt lat="29.560476" lon="94.551361">
<time>2016-10-08T02:21:30Z</time></trkpt>
<trkpt lat="29.560556" lon="94.551251">
<time>2016-10-08T02:21:31Z</time></trkpt>
<trkpt lat="29.560625" lon="94.551161">
<time>2016-10-08T02:21:32Z</time></trkpt>
<trkpt lat="29.560685" lon="94.551101">
<time>2016-10-08T02:21:33Z</time></trkpt>
<trkpt lat="29.560765" lon="94.55103">
<time>2016-10-08T02:21:34Z</time></trkpt>
<trkpt lat="29.560835" lon="94.55097">
<time>2016-10-08T02:21:35Z</time></trkpt>
<trkpt lat="29.560895" lon="94.55092">
<time>2016-10-08T02:21:36Z</time></trkpt>
<trkpt lat="29.560965" lon="94.55087">
<time>2016-10-08T02:21:37Z</time></trkpt>
<trkpt lat="29.561044" lon="94.55081">
<time>2016-10-08T02:21:38Z</time></trkpt>
<trkpt lat="29.561144" lon="94.55074">
<time>2016-10-08T02:21:39Z</time></trkpt>
<trkpt lat="29.561204" lon="94.55072">
<time>2016-10-08T02:21:40Z</time></trkpt>
<trkpt lat="29.561274" lon="94.5507">
<time>2016-10-08T02:21:41Z</time></trkpt>
<trkpt lat="29.561334" lon="94.5507">
<time>2016-10-08T02:21:42Z</time></trkpt>
<trkpt lat="29.561374" lon="94.55071">
<time>2016-10-08T02:21:43Z</time></trkpt>
<trkpt lat="29.561454" lon="94.55072">
<time>2016-10-08T02:21:44Z</time></trkpt>
<trkpt lat="29.561534" lon="94.55076">
<time>2016-10-08T02:21:45Z</time></trkpt>
<trkpt lat="29.561624" lon="94.55081">
<time>2016-10-08T02:21:46Z</time></trkpt>
<trkpt lat="29.561734" lon="94.55088">
<time>2016-10-08T02:21:47Z</time></trkpt>
<trkpt lat="29.561845" lon="94.55098">
<time>2016-10-08T02:21:48Z</time></trkpt>
<trkpt lat="29.561965" lon="94.55107">
<time>2016-10-08T02:21:49Z</time></trkpt>
<trkpt lat="29.562055" lon="94.551141">
<time>2016-10-08T02:21:50Z</time></trkpt>
<trkpt lat="29.562145" lon="94.551211">
<time>2016-10-08T02:21:51Z</time></trkpt>
<trkpt lat="29.562235" lon="94.551271">
<time>2016-10-08T02:21:52Z</time></trkpt>
<trkpt lat="29.562315" lon="94.551311">
<time>2016-10-08T02:21:53Z</time></trkpt>
<trkpt lat="29.562425" lon="94.551381">
<time>2016-10-08T02:21:54Z</time></trkpt>
<trkpt lat="29.562545" lon="94.551431">
<time>2016-10-08T02:21:55Z</time></trkpt>
<trkpt lat="29.562665" lon="94.551491">
<time>2016-10-08T02:21:56Z</time></trkpt>
<trkpt lat="29.562765" lon="94.551521">
<time>2016-10-08T02:21:57Z</time></trkpt>
<trkpt lat="29.562855" lon="94.551552">
<time>2016-10-08T02:21:58Z</time></trkpt>
<trkpt lat="29.562935" lon="94.551572">
<time>2016-10-08T02:21:59Z</time></trkpt>
<trkpt lat="29.563015" lon="94.551582">
<time>2016-10-08T02:22:00Z</time></trkpt>
<trkpt lat="29.563115" lon="94.551602">
<time>2016-10-08T02:22:01Z</time></trkpt>
<trkpt lat="29.563195" lon="94.551602">
<time>2016-10-08T02:22:02Z</time></trkpt>
<trkpt lat="29.563235" lon="94.551602">
<time>2016-10-08T02:22:03Z</time></trkpt>
<trkpt lat="29.563295" lon="94.551602">
<time>2016-10-08T02:22:04Z</time></trkpt>
<trkpt lat="29.563405" lon="94.551612">
<time>2016-10-08T02:22:05Z</time></trkpt>
<trkpt lat="29.563495" lon="94.551622">
<time>2016-10-08T02:22:06Z</time></trkpt>
<trkpt lat="29.563545" lon="94.551632">
<time>2016-10-08T02:22:07Z</time></trkpt>
<trkpt lat="29.563605" lon="94.551662">
<time>2016-10-08T02:22:08Z</time></trkpt>
<trkpt lat="29.563665" lon="94.551692">
<time>2016-10-08T02:22:09Z</time></trkpt>
<trkpt lat="29.563695" lon="94.551722">
<time>2016-10-08T02:22:10Z</time></trkpt>
<trkpt lat="29.563735" lon="94.551752">
<time>2016-10-08T02:22:11Z</time></trkpt>
<trkpt lat="29.563766" lon="94.551802">
<time>2016-10-08T02:22:12Z</time></trkpt>
<trkpt lat="29.563796" lon="94.551852">
<time>2016-10-08T02:22:13Z</time></trkpt>
<trkpt lat="29.563826" lon="94.551912">
<time>2016-10-08T02:22:14Z</time></trkpt>
<trkpt lat="29.563846" lon="94.551993">
<time>2016-10-08T02:22:15Z</time></trkpt>
<trkpt lat="29.563876" lon="94.552083">
<time>2016-10-08T02:22:16Z</time></trkpt>
<trkpt lat="29.563886" lon="94.552173">
<time>2016-10-08T02:22:17Z</time></trkpt>
<trkpt lat="29.563886" lon="94.552233">
<time>2016-10-08T02:22:18Z</time></trkpt>
<trkpt lat="29.563876" lon="94.552303">
<time>2016-10-08T02:22:19Z</time></trkpt>
<trkpt lat="29.563857" lon="94.552424">
<time>2016-10-08T02:22:20Z</time></trkpt>
<trkpt lat="29.563798" lon="94.552885">
<time>2016-10-08T02:22:21Z</time></trkpt>
<trkpt lat="29.563778" lon="94.553135">
<time>2016-10-08T02:22:22Z</time></trkpt>
<trkpt lat="29.563768" lon="94.553286">
<time>2016-10-08T02:22:23Z</time></trkpt>
<trkpt lat="29.563769" lon="94.553456">
<time>2016-10-08T02:22:24Z</time></trkpt>
<trkpt lat="29.563779" lon="94.553596">
<time>2016-10-08T02:22:25Z</time></trkpt>
<trkpt lat="29.563799" lon="94.553717">
<time>2016-10-08T02:22:26Z</time></trkpt>
<trkpt lat="29.563829" lon="94.553837">
<time>2016-10-08T02:22:27Z</time></trkpt>
<trkpt lat="29.56387" lon="94.553967">
<time>2016-10-08T02:22:28Z</time></trkpt>
<trkpt lat="29.56394" lon="94.554117">
<time>2016-10-08T02:22:29Z</time></trkpt>
<trkpt lat="29.56407" lon="94.554418">
<time>2016-10-08T02:22:30Z</time></trkpt>
<trkpt lat="29.564151" lon="94.554558">
<time>2016-10-08T02:22:31Z</time></trkpt>
<trkpt lat="29.564321" lon="94.554919">
<time>2016-10-08T02:22:32Z</time></trkpt>
<trkpt lat="29.564402" lon="94.55513">
<time>2016-10-08T02:22:33Z</time></trkpt>
<trkpt lat="29.564482" lon="94.55529">
<time>2016-10-08T02:22:34Z</time></trkpt>
<trkpt lat="29.564542" lon="94.55543">
<time>2016-10-08T02:22:35Z</time></trkpt>
<trkpt lat="29.564572" lon="94.555521">
<time>2016-10-08T02:22:36Z</time></trkpt>
<trkpt lat="29.564612" lon="94.555631">
<time>2016-10-08T02:22:37Z</time></trkpt>
<trkpt lat="29.564623" lon="94.555711">
<time>2016-10-08T02:22:38Z</time></trkpt>
<trkpt lat="29.564633" lon="94.555831">
<time>2016-10-08T02:22:39Z</time></trkpt>
<trkpt lat="29.564633" lon="94.555951">
<time>2016-10-08T02:22:40Z</time></trkpt>
<trkpt lat="29.564643" lon="94.556142">
<time>2016-10-08T02:22:41Z</time></trkpt>
<trkpt lat="29.564644" lon="94.556312">
<time>2016-10-08T02:22:42Z</time></trkpt>
<trkpt lat="29.564644" lon="94.556412">
<time>2016-10-08T02:22:43Z</time></trkpt>
<trkpt lat="29.564634" lon="94.556483">
<time>2016-10-08T02:22:44Z</time></trkpt>
<trkpt lat="29.564624" lon="94.556553">
<time>2016-10-08T02:22:45Z</time></trkpt>
<trkpt lat="29.564614" lon="94.556683">
<time>2016-10-08T02:22:46Z</time></trkpt>
<trkpt lat="29.564604" lon="94.556763">
<time>2016-10-08T02:22:47Z</time></trkpt>
<trkpt lat="29.564595" lon="94.556853">
<time>2016-10-08T02:22:48Z</time></trkpt>
<trkpt lat="29.564595" lon="94.557004">
<time>2016-10-08T02:22:49Z</time></trkpt>
<trkpt lat="29.564595" lon="94.557234">
<time>2016-10-08T02:22:50Z</time></trkpt>
<trkpt lat="29.564595" lon="94.557385">
<time>2016-10-08T02:22:51Z</time></trkpt>
<trkpt lat="29.564596" lon="94.557505">
<time>2016-10-08T02:22:52Z</time></trkpt>
<trkpt lat="29.564606" lon="94.557745">
<time>2016-10-08T02:22:53Z</time></trkpt>
<trkpt lat="29.564616" lon="94.557845">
<time>2016-10-08T02:22:54Z</time></trkpt>
<trkpt lat="29.564626" lon="94.557926">
<time>2016-10-08T02:22:55Z</time></trkpt>
<trkpt lat="29.564627" lon="94.558016">
<time>2016-10-08T02:22:56Z</time></trkpt>
<trkpt lat="29.564627" lon="94.558106">
<time>2016-10-08T02:22:57Z</time></trkpt>
<trkpt lat="29.564607" lon="94.558256">
<time>2016-10-08T02:22:58Z</time></trkpt>
<trkpt lat="29.564577" lon="94.558477">
<time>2016-10-08T02:22:59Z</time></trkpt>
<trkpt lat="29.564568" lon="94.558597">
<time>2016-10-08T02:23:00Z</time></trkpt>
<trkpt lat="29.564568" lon="94.558667">
<time>2016-10-08T02:23:01Z</time></trkpt>
<trkpt lat="29.564568" lon="94.558767">
<time>2016-10-08T02:23:02Z</time></trkpt>
<trkpt lat="29.564578" lon="94.558858">
<time>2016-10-08T02:23:03Z</time></trkpt>
<trkpt lat="29.564578" lon="94.558918">
<time>2016-10-08T02:23:04Z</time></trkpt>
<trkpt lat="29.564598" lon="94.558998">
<time>2016-10-08T02:23:05Z</time></trkpt>
<trkpt lat="29.564608" lon="94.559088">
<time>2016-10-08T02:23:06Z</time></trkpt>
<trkpt lat="29.564639" lon="94.559258">
<time>2016-10-08T02:23:07Z</time></trkpt>
<trkpt lat="29.564649" lon="94.559328">
<time>2016-10-08T02:23:08Z</time></trkpt>
<trkpt lat="29.564659" lon="94.559389">
<time>2016-10-08T02:23:09Z</time></trkpt>
<trkpt lat="29.564649" lon="94.559429">
<time>2016-10-08T02:23:10Z</time></trkpt>
<trkpt lat="29.564639" lon="94.559459">
<time>2016-10-08T02:23:11Z</time></trkpt>
<trkpt lat="29.564629" lon="94.559499">
<time>2016-10-08T02:23:12Z</time></trkpt>
<trkpt lat="29.564609" lon="94.559539">
<time>2016-10-08T02:23:13Z</time></trkpt>
<trkpt lat="29.564559" lon="94.559599">
<time>2016-10-08T02:23:14Z</time></trkpt>
<trkpt lat="29.564509" lon="94.559659">
<time>2016-10-08T02:23:15Z</time></trkpt>
<trkpt lat="29.564449" lon="94.559739">
<time>2016-10-08T02:23:16Z</time></trkpt>
<trkpt lat="29.56439" lon="94.559819">
<time>2016-10-08T02:23:17Z</time></trkpt>
<trkpt lat="29.56433" lon="94.55992">
<time>2016-10-08T02:23:18Z</time></trkpt>
<trkpt lat="29.56427" lon="94.56">
<time>2016-10-08T02:23:19Z</time></trkpt>
<trkpt lat="29.56421" lon="94.5601">
<time>2016-10-08T02:23:20Z</time></trkpt>
<trkpt lat="29.56413" lon="94.56021">
<time>2016-10-08T02:23:21Z</time></trkpt>
<trkpt lat="29.56408" lon="94.56026">
<time>2016-10-08T02:23:22Z</time></trkpt>
<trkpt lat="29.563981" lon="94.560361">
<time>2016-10-08T02:23:23Z</time></trkpt>
<trkpt lat="29.563901" lon="94.560451">
<time>2016-10-08T02:23:24Z</time></trkpt>
<trkpt lat="29.563881" lon="94.560471">
<time>2016-10-08T02:23:25Z</time></trkpt>
<trkpt lat="29.563861" lon="94.560511">
<time>2016-10-08T02:23:26Z</time></trkpt>
<trkpt lat="29.563831" lon="94.560551">
<time>2016-10-08T02:23:27Z</time></trkpt>
<trkpt lat="29.563821" lon="94.560591">
<time>2016-10-08T02:23:28Z</time></trkpt>
<trkpt lat="29.563821" lon="94.560631">
<time>2016-10-08T02:23:29Z</time></trkpt>
<trkpt lat="29.563811" lon="94.560661">
<time>2016-10-08T02:23:30Z</time></trkpt>
<trkpt lat="29.563821" lon="94.560701">
<time>2016-10-08T02:23:31Z</time></trkpt>
<trkpt lat="29.563821" lon="94.560761">
<time>2016-10-08T02:23:32Z</time></trkpt>
<trkpt lat="29.563851" lon="94.560821">
<time>2016-10-08T02:23:33Z</time></trkpt>
<trkpt lat="29.563871" lon="94.560872">
<time>2016-10-08T02:23:34Z</time></trkpt>
<trkpt lat="29.563902" lon="94.560912">
<time>2016-10-08T02:23:35Z</time></trkpt>
<trkpt lat="29.563942" lon="94.560952">
<time>2016-10-08T02:23:36Z</time></trkpt>
<trkpt lat="29.563992" lon="94.561002">
<time>2016-10-08T02:23:37Z</time></trkpt>
<trkpt lat="29.564062" lon="94.561052">
<time>2016-10-08T02:23:38Z</time></trkpt>
<trkpt lat="29.564142" lon="94.561112">
<time>2016-10-08T02:23:39Z</time></trkpt>
<trkpt lat="29.564172" lon="94.561142">
<time>2016-10-08T02:23:40Z</time></trkpt>
<trkpt lat="29.564212" lon="94.561172">
<time>2016-10-08T02:23:41Z</time></trkpt>
<trkpt lat="29.564272" lon="94.561232">
<time>2016-10-08T02:23:42Z</time></trkpt>
<trkpt lat="29.564312" lon="94.561282">
<time>2016-10-08T02:23:43Z</time></trkpt>
<trkpt lat="29.564362" lon="94.561342">
<time>2016-10-08T02:23:44Z</time></trkpt>
<trkpt lat="29.564412" lon="94.561433">
<time>2016-10-08T02:23:45Z</time></trkpt>
<trkpt lat="29.564502" lon="94.561593">
<time>2016-10-08T02:23:46Z</time></trkpt>
<trkpt lat="29.564603" lon="94.561773">
<time>2016-10-08T02:23:47Z</time></trkpt>
<trkpt lat="29.564723" lon="94.561994">
<time>2016-10-08T02:23:48Z</time></trkpt>
<trkpt lat="29.564813" lon="94.562154">
<time>2016-10-08T02:23:49Z</time></trkpt>
<trkpt lat="29.564883" lon="94.562274">
<time>2016-10-08T02:23:50Z</time></trkpt>
<trkpt lat="29.564913" lon="94.562354">
<time>2016-10-08T02:23:51Z</time></trkpt>
<trkpt lat="29.564944" lon="94.562455">
<time>2016-10-08T02:23:52Z</time></trkpt>
<trkpt lat="29.564984" lon="94.562585">
<time>2016-10-08T02:23:53Z</time></trkpt>
<trkpt lat="29.565004" lon="94.562695">
<time>2016-10-08T02:23:54Z</time></trkpt>
<trkpt lat="29.565034" lon="94.562805">
<time>2016-10-08T02:23:55Z</time></trkpt>
<trkpt lat="29.565054" lon="94.562915">
<time>2016-10-08T02:23:56Z</time></trkpt>
<trkpt lat="29.565054" lon="94.563016">
<time>2016-10-08T02:23:57Z</time></trkpt>
<trkpt lat="29.565064" lon="94.563096">
<time>2016-10-08T02:23:58Z</time></trkpt>
<trkpt lat="29.565085" lon="94.563206">
<time>2016-10-08T02:23:59Z</time></trkpt>
<trkpt lat="29.565125" lon="94.563316">
<time>2016-10-08T02:24:00Z</time></trkpt>
<trkpt lat="29.565155" lon="94.563406">
<time>2016-10-08T02:24:01Z</time></trkpt>
<trkpt lat="29.565215" lon="94.563516">
<time>2016-10-08T02:24:02Z</time></trkpt>
<trkpt lat="29.565285" lon="94.563637">
<time>2016-10-08T02:24:03Z</time></trkpt>
<trkpt lat="29.565405" lon="94.563807">
<time>2016-10-08T02:24:04Z</time></trkpt>
<trkpt lat="29.565466" lon="94.563897">
<time>2016-10-08T02:24:05Z</time></trkpt>
<trkpt lat="29.565536" lon="94.564017">
<time>2016-10-08T02:24:06Z</time></trkpt>
<trkpt lat="29.565626" lon="94.564138">
<time>2016-10-08T02:24:07Z</time></trkpt>
<trkpt lat="29.565706" lon="94.564268">
<time>2016-10-08T02:24:08Z</time></trkpt>
<trkpt lat="29.565796" lon="94.564408">
<time>2016-10-08T02:24:09Z</time></trkpt>
<trkpt lat="29.565826" lon="94.564458">
<time>2016-10-08T02:24:10Z</time></trkpt>
<trkpt lat="29.565846" lon="94.564508">
<time>2016-10-08T02:24:11Z</time></trkpt>
<trkpt lat="29.565856" lon="94.564548">
<time>2016-10-08T02:24:12Z</time></trkpt>
<trkpt lat="29.565866" lon="94.564608">
<time>2016-10-08T02:24:13Z</time></trkpt>
<trkpt lat="29.565876" lon="94.564648">
<time>2016-10-08T02:24:14Z</time></trkpt>
<trkpt lat="29.565867" lon="94.564699">
<time>2016-10-08T02:24:15Z</time></trkpt>
<trkpt lat="29.565857" lon="94.564779">
<time>2016-10-08T02:24:16Z</time></trkpt>
<trkpt lat="29.565827" lon="94.564849">
<time>2016-10-08T02:24:17Z</time></trkpt>
<trkpt lat="29.565817" lon="94.564909">
<time>2016-10-08T02:24:18Z</time></trkpt>
<trkpt lat="29.565807" lon="94.564959">
<time>2016-10-08T02:24:19Z</time></trkpt>
<trkpt lat="29.565797" lon="94.564999">
<time>2016-10-08T02:24:20Z</time></trkpt>
<trkpt lat="29.565797" lon="94.565039">
<time>2016-10-08T02:24:21Z</time></trkpt>
<trkpt lat="29.565807" lon="94.565079">
<time>2016-10-08T02:24:22Z</time></trkpt>
<trkpt lat="29.565827" lon="94.565119">
<time>2016-10-08T02:24:23Z</time></trkpt>
<trkpt lat="29.565847" lon="94.565149">
<time>2016-10-08T02:24:24Z</time></trkpt>
<trkpt lat="29.565877" lon="94.565179">
<time>2016-10-08T02:24:25Z</time></trkpt>
<trkpt lat="29.565927" lon="94.565209">
<time>2016-10-08T02:24:26Z</time></trkpt>
<trkpt lat="29.565967" lon="94.565219">
<time>2016-10-08T02:24:27Z</time></trkpt>
<trkpt lat="29.566017" lon="94.565229">
<time>2016-10-08T02:24:28Z</time></trkpt>
<trkpt lat="29.566057" lon="94.565229">
<time>2016-10-08T02:24:29Z</time></trkpt>
<trkpt lat="29.566107" lon="94.565219">
<time>2016-10-08T02:24:30Z</time></trkpt>
<trkpt lat="29.566147" lon="94.565209">
<time>2016-10-08T02:24:31Z</time></trkpt>
<trkpt lat="29.566187" lon="94.565189">
<time>2016-10-08T02:24:32Z</time></trkpt>
<trkpt lat="29.566237" lon="94.565159">
<time>2016-10-08T02:24:33Z</time></trkpt>
<trkpt lat="29.566317" lon="94.565119">
<time>2016-10-08T02:24:34Z</time></trkpt>
<trkpt lat="29.566367" lon="94.565089">
<time>2016-10-08T02:24:35Z</time></trkpt>
<trkpt lat="29.566427" lon="94.565059">
<time>2016-10-08T02:24:36Z</time></trkpt>
<trkpt lat="29.566477" lon="94.565049">
<time>2016-10-08T02:24:37Z</time></trkpt>
<trkpt lat="29.566527" lon="94.565059">
<time>2016-10-08T02:24:38Z</time></trkpt>
<trkpt lat="29.566587" lon="94.565069">
<time>2016-10-08T02:24:39Z</time></trkpt>
<trkpt lat="29.566667" lon="94.565119">
<time>2016-10-08T02:24:40Z</time></trkpt>
<trkpt lat="29.566797" lon="94.565209">
<time>2016-10-08T02:24:41Z</time></trkpt>
<trkpt lat="29.566887" lon="94.5653">
<time>2016-10-08T02:24:42Z</time></trkpt>
<trkpt lat="29.567037" lon="94.56545">
<time>2016-10-08T02:24:43Z</time></trkpt>
<trkpt lat="29.567117" lon="94.56551">
<time>2016-10-08T02:24:44Z</time></trkpt>
<trkpt lat="29.567197" lon="94.56555">
<time>2016-10-08T02:24:45Z</time></trkpt>
<trkpt lat="29.567267" lon="94.56556">
<time>2016-10-08T02:24:46Z</time></trkpt>
<trkpt lat="29.567357" lon="94.56557">
<time>2016-10-08T02:24:47Z</time></trkpt>
<trkpt lat="29.567407" lon="94.56557">
<time>2016-10-08T02:24:48Z</time></trkpt>
<trkpt lat="29.567497" lon="94.56555">
<time>2016-10-08T02:24:49Z</time></trkpt>
<trkpt lat="29.567567" lon="94.56553">
<time>2016-10-08T02:24:50Z</time></trkpt>
<trkpt lat="29.567667" lon="94.56548">
<time>2016-10-08T02:24:51Z</time></trkpt>
<trkpt lat="29.567727" lon="94.56544">
<time>2016-10-08T02:24:52Z</time></trkpt>
<trkpt lat="29.567767" lon="94.5654">
<time>2016-10-08T02:24:53Z</time></trkpt>
<trkpt lat="29.567807" lon="94.56535">
<time>2016-10-08T02:24:54Z</time></trkpt>
<trkpt lat="29.567867" lon="94.565259">
<time>2016-10-08T02:24:55Z</time></trkpt>
<trkpt lat="29.567907" lon="94.565169">
<time>2016-10-08T02:24:56Z</time></trkpt>
<trkpt lat="29.567936" lon="94.565049">
<time>2016-10-08T02:24:57Z</time></trkpt>
<trkpt lat="29.567946" lon="94.564959">
<time>2016-10-08T02:24:58Z</time></trkpt>
<trkpt lat="29.567956" lon="94.564859">
<time>2016-10-08T02:24:59Z</time></trkpt>
<trkpt lat="29.567956" lon="94.564558">
<time>2016-10-08T02:25:00Z</time></trkpt>
<trkpt lat="29.567955" lon="94.564338">
<time>2016-10-08T02:25:01Z</time></trkpt>
<trkpt lat="29.567934" lon="94.563256">
<time>2016-10-08T02:25:02Z</time></trkpt>
<trkpt lat="29.567912" lon="94.562234">
<time>2016-10-08T02:25:03Z</time></trkpt>
<trkpt lat="29.567912" lon="94.561813">
<time>2016-10-08T02:25:04Z</time></trkpt>
<trkpt lat="29.567901" lon="94.561362">
<time>2016-10-08T02:25:05Z</time></trkpt>
<trkpt lat="29.56788" lon="94.561012">
<time>2016-10-08T02:25:06Z</time></trkpt>
<trkpt lat="29.56787" lon="94.560912">
<time>2016-10-08T02:25:07Z</time></trkpt>
<trkpt lat="29.56788" lon="94.560861">
<time>2016-10-08T02:25:08Z</time></trkpt>
<trkpt lat="29.56789" lon="94.560821">
<time>2016-10-08T02:25:09Z</time></trkpt>
<trkpt lat="29.5679" lon="94.560761">
<time>2016-10-08T02:25:10Z</time></trkpt>
<trkpt lat="29.56792" lon="94.560701">
<time>2016-10-08T02:25:11Z</time></trkpt>
<trkpt lat="29.56795" lon="94.560661">
<time>2016-10-08T02:25:12Z</time></trkpt>
<trkpt lat="29.56799" lon="94.560611">
<time>2016-10-08T02:25:13Z</time></trkpt>
<trkpt lat="29.56804" lon="94.560581">
<time>2016-10-08T02:25:14Z</time></trkpt>
<trkpt lat="29.56808" lon="94.560541">
<time>2016-10-08T02:25:15Z</time></trkpt>
<trkpt lat="29.568129" lon="94.560521">
<time>2016-10-08T02:25:16Z</time></trkpt>
<trkpt lat="29.568199" lon="94.560491">
<time>2016-10-08T02:25:17Z</time></trkpt>
<trkpt lat="29.568279" lon="94.560471">
<time>2016-10-08T02:25:18Z</time></trkpt>
<trkpt lat="29.568329" lon="94.560441">
<time>2016-10-08T02:25:19Z</time></trkpt>
<trkpt lat="29.568389" lon="94.560391">
<time>2016-10-08T02:25:20Z</time></trkpt>
<trkpt lat="29.568449" lon="94.56033">
<time>2016-10-08T02:25:21Z</time></trkpt>
<trkpt lat="29.568479" lon="94.56029">
<time>2016-10-08T02:25:22Z</time></trkpt>
<trkpt lat="29.568499" lon="94.56026">
<time>2016-10-08T02:25:23Z</time></trkpt>
<trkpt lat="29.568519" lon="94.56019">
<time>2016-10-08T02:25:24Z</time></trkpt>
<trkpt lat="29.568529" lon="94.56014">
<time>2016-10-08T02:25:25Z</time></trkpt>
<trkpt lat="29.568529" lon="94.56009">
<time>2016-10-08T02:25:26Z</time></trkpt>
<trkpt lat="29.568509" lon="94.56003">
<time>2016-10-08T02:25:27Z</time></trkpt>
<trkpt lat="29.568488" lon="94.55998">
<time>2016-10-08T02:25:28Z</time></trkpt>
<trkpt lat="29.568458" lon="94.55994">
<time>2016-10-08T02:25:29Z</time></trkpt>
<trkpt lat="29.568418" lon="94.55991">
<time>2016-10-08T02:25:30Z</time></trkpt>
<trkpt lat="29.568338" lon="94.559819">
<time>2016-10-08T02:25:31Z</time></trkpt>
<trkpt lat="29.568298" lon="94.559769">
<time>2016-10-08T02:25:32Z</time></trkpt>
<trkpt lat="29.568268" lon="94.559709">
<time>2016-10-08T02:25:33Z</time></trkpt>
<trkpt lat="29.568238" lon="94.559649">
<time>2016-10-08T02:25:34Z</time></trkpt>
<trkpt lat="29.568228" lon="94.559589">
<time>2016-10-08T02:25:35Z</time></trkpt>
<trkpt lat="29.568238" lon="94.559539">
<time>2016-10-08T02:25:36Z</time></trkpt>
<trkpt lat="29.568238" lon="94.559459">
<time>2016-10-08T02:25:37Z</time></trkpt>
<trkpt lat="29.568267" lon="94.559328">
<time>2016-10-08T02:25:38Z</time></trkpt>
<trkpt lat="29.568307" lon="94.559158">
<time>2016-10-08T02:25:39Z</time></trkpt>
<trkpt lat="29.568357" lon="94.558938">
<time>2016-10-08T02:25:40Z</time></trkpt>
<trkpt lat="29.568416" lon="94.558687">
<time>2016-10-08T02:25:41Z</time></trkpt>
<trkpt lat="29.568446" lon="94.558527">
<time>2016-10-08T02:25:42Z</time></trkpt>
<trkpt lat="29.568486" lon="94.558407">
<time>2016-10-08T02:25:43Z</time></trkpt>
<trkpt lat="29.568506" lon="94.558346">
<time>2016-10-08T02:25:44Z</time></trkpt>
<trkpt lat="29.568536" lon="94.558276">
<time>2016-10-08T02:25:45Z</time></trkpt>
<trkpt lat="29.568595" lon="94.558186">
<time>2016-10-08T02:25:46Z</time></trkpt>
<trkpt lat="29.568665" lon="94.558096">
<time>2016-10-08T02:25:47Z</time></trkpt>
<trkpt lat="29.568725" lon="94.558016">
<time>2016-10-08T02:25:48Z</time></trkpt>
<trkpt lat="29.568825" lon="94.557926">
<time>2016-10-08T02:25:49Z</time></trkpt>
<trkpt lat="29.568875" lon="94.557865">
<time>2016-10-08T02:25:50Z</time></trkpt>
<trkpt lat="29.568925" lon="94.557805">
<time>2016-10-08T02:25:51Z</time></trkpt>
<trkpt lat="29.568995" lon="94.557715">
<time>2016-10-08T02:25:52Z</time></trkpt>
<trkpt lat="29.569074" lon="94.557605">
<time>2016-10-08T02:25:53Z</time></trkpt>
<trkpt lat="29.569144" lon="94.557525">
<time>2016-10-08T02:25:54Z</time></trkpt>
<trkpt lat="29.569204" lon="94.557465">
<time>2016-10-08T02:25:55Z</time></trkpt>
<trkpt lat="29.569254" lon="94.557414">
<time>2016-10-08T02:25:56Z</time></trkpt>
<trkpt lat="29.569274" lon="94.557374">
<time>2016-10-08T02:25:57Z</time></trkpt>
<trkpt lat="29.569274" lon="94.557344">
<time>2016-10-08T02:25:58Z</time></trkpt>
<trkpt lat="29.569274" lon="94.557294">
<time>2016-10-08T02:25:59Z</time></trkpt>
<trkpt lat="29.569264" lon="94.557244">
<time>2016-10-08T02:26:00Z</time></trkpt>
<trkpt lat="29.569254" lon="94.557204">
<time>2016-10-08T02:26:01Z</time></trkpt>
<trkpt lat="29.569224" lon="94.557174">
<time>2016-10-08T02:26:02Z</time></trkpt>
<trkpt lat="29.569173" lon="94.557134">
<time>2016-10-08T02:26:03Z</time></trkpt>
<trkpt lat="29.569133" lon="94.557114">
<time>2016-10-08T02:26:04Z</time></trkpt>
<trkpt lat="29.569103" lon="94.557114">
<time>2016-10-08T02:26:05Z</time></trkpt>
<trkpt lat="29.569053" lon="94.557114">
<time>2016-10-08T02:26:06Z</time></trkpt>
<trkpt lat="29.569014" lon="94.557134">
<time>2016-10-08T02:26:07Z</time></trkpt>
<trkpt lat="29.568964" lon="94.557174">
<time>2016-10-08T02:26:08Z</time></trkpt>
<trkpt lat="29.568924" lon="94.557234">
<time>2016-10-08T02:26:09Z</time></trkpt>
<trkpt lat="29.568894" lon="94.557284">
<time>2016-10-08T02:26:10Z</time></trkpt>
<trkpt lat="29.568874" lon="94.557344">
<time>2016-10-08T02:26:11Z</time></trkpt>
<trkpt lat="29.568854" lon="94.557404">
<time>2016-10-08T02:26:12Z</time></trkpt>
<trkpt lat="29.568824" lon="94.557515">
<time>2016-10-08T02:26:13Z</time></trkpt>
<trkpt lat="29.568804" lon="94.557585">
<time>2016-10-08T02:26:14Z</time></trkpt>
<trkpt lat="29.568775" lon="94.557655">
<time>2016-10-08T02:26:15Z</time></trkpt>
<trkpt lat="29.568735" lon="94.557725">
<time>2016-10-08T02:26:16Z</time></trkpt>
<trkpt lat="29.568685" lon="94.557795">
<time>2016-10-08T02:26:17Z</time></trkpt>
<trkpt lat="29.568615" lon="94.557865">
<time>2016-10-08T02:26:18Z</time></trkpt>
<trkpt lat="29.568545" lon="94.557926">
<time>2016-10-08T02:26:19Z</time></trkpt>
<trkpt lat="29.568495" lon="94.557956">
<time>2016-10-08T02:26:20Z</time></trkpt>
<trkpt lat="29.568385" lon="94.558006">
<time>2016-10-08T02:26:21Z</time></trkpt>
<trkpt lat="29.568295" lon="94.558056">
<time>2016-10-08T02:26:22Z</time></trkpt>
<trkpt lat="29.568225" lon="94.558096">
<time>2016-10-08T02:26:23Z</time></trkpt>
<trkpt lat="29.568146" lon="94.558136">
<time>2016-10-08T02:26:24Z</time></trkpt>
<trkpt lat="29.568076" lon="94.558206">
<time>2016-10-08T02:26:25Z</time></trkpt>
<trkpt lat="29.568036" lon="94.558276">
<time>2016-10-08T02:26:26Z</time></trkpt>
<trkpt lat="29.567986" lon="94.558356">
<time>2016-10-08T02:26:27Z</time></trkpt>
<trkpt lat="29.567956" lon="94.558437">
<time>2016-10-08T02:26:28Z</time></trkpt>
<trkpt lat="29.567896" lon="94.558597">
<time>2016-10-08T02:26:29Z</time></trkpt>
<trkpt lat="29.567867" lon="94.558667">
<time>2016-10-08T02:26:30Z</time></trkpt>
<trkpt lat="29.567837" lon="94.558767">
<time>2016-10-08T02:26:31Z</time></trkpt>
<trkpt lat="29.567797" lon="94.558938">
<time>2016-10-08T02:26:32Z</time></trkpt>
<trkpt lat="29.567747" lon="94.559128">
<time>2016-10-08T02:26:33Z</time></trkpt>
<trkpt lat="29.567608" lon="94.559669">
<time>2016-10-08T02:26:34Z</time></trkpt>
<trkpt lat="29.567569" lon="94.559809">
<time>2016-10-08T02:26:35Z</time></trkpt>
<trkpt lat="29.567409" lon="94.56024">
<time>2016-10-08T02:26:36Z</time></trkpt>
<trkpt lat="29.56735" lon="94.560391">
<time>2016-10-08T02:26:37Z</time></trkpt>
<trkpt lat="29.56727" lon="94.560571">
<time>2016-10-08T02:26:38Z</time></trkpt>
<trkpt lat="29.56722" lon="94.560661">
<time>2016-10-08T02:26:39Z</time></trkpt>
<trkpt lat="29.56718" lon="94.560711">
<time>2016-10-08T02:26:40Z</time></trkpt>
<trkpt lat="29.56714" lon="94.560761">
<time>2016-10-08T02:26:41Z</time></trkpt>
<trkpt lat="29.56709" lon="94.560801">
<time>2016-10-08T02:26:42Z</time></trkpt>
<trkpt lat="29.56706" lon="94.560811">
<time>2016-10-08T02:26:43Z</time></trkpt>
<trkpt lat="29.56703" lon="94.560831">
<time>2016-10-08T02:26:44Z</time></trkpt>
<trkpt lat="29.567" lon="94.560831">
<time>2016-10-08T02:26:45Z</time></trkpt>
<trkpt lat="29.56696" lon="94.560841">
<time>2016-10-08T02:26:46Z</time></trkpt>
<trkpt lat="29.56692" lon="94.560841">
<time>2016-10-08T02:26:47Z</time></trkpt>
<trkpt lat="29.56687" lon="94.560831">
<time>2016-10-08T02:26:48Z</time></trkpt>
<trkpt lat="29.56685" lon="94.560821">
<time>2016-10-08T02:26:49Z</time></trkpt>
<trkpt lat="29.56682" lon="94.560811">
<time>2016-10-08T02:26:50Z</time></trkpt>
<trkpt lat="29.56679" lon="94.560791">
<time>2016-10-08T02:26:51Z</time></trkpt>
<trkpt lat="29.56677" lon="94.560771">
<time>2016-10-08T02:26:52Z</time></trkpt>
<trkpt lat="29.56673" lon="94.560741">
<time>2016-10-08T02:26:53Z</time></trkpt>
<trkpt lat="29.56671" lon="94.560701">
<time>2016-10-08T02:26:54Z</time></trkpt>
<trkpt lat="29.56669" lon="94.560671">
<time>2016-10-08T02:26:55Z</time></trkpt>
<trkpt lat="29.56667" lon="94.560631">
<time>2016-10-08T02:26:56Z</time></trkpt>
<trkpt lat="29.56665" lon="94.560581">
<time>2016-10-08T02:26:57Z</time></trkpt>
<trkpt lat="29.56663" lon="94.560521">
<time>2016-10-08T02:26:58Z</time></trkpt>
<trkpt lat="29.56661" lon="94.560421">
<time>2016-10-08T02:26:59Z</time></trkpt>
<trkpt lat="29.5666" lon="94.56031">
<time>2016-10-08T02:27:00Z</time></trkpt>
<trkpt lat="29.566579" lon="94.56015">
<time>2016-10-08T02:27:01Z</time></trkpt>
<trkpt lat="29.566559" lon="94.55992">
<time>2016-10-08T02:27:02Z</time></trkpt>
<trkpt lat="29.566529" lon="94.559669">
<time>2016-10-08T02:27:03Z</time></trkpt>
<trkpt lat="29.566518" lon="94.559519">
<time>2016-10-08T02:27:04Z</time></trkpt>
<trkpt lat="29.566508" lon="94.559429">
<time>2016-10-08T02:27:05Z</time></trkpt>
<trkpt lat="29.566498" lon="94.559328">
<time>2016-10-08T02:27:06Z</time></trkpt>
<trkpt lat="29.566498" lon="94.559258">
<time>2016-10-08T02:27:07Z</time></trkpt>
<trkpt lat="29.566498" lon="94.559118">
<time>2016-10-08T02:27:08Z</time></trkpt>
<trkpt lat="29.566498" lon="94.559048">
<time>2016-10-08T02:27:09Z</time></trkpt>
<trkpt lat="29.566507" lon="94.558958">
<time>2016-10-08T02:27:10Z</time></trkpt>
<trkpt lat="29.566537" lon="94.558777">
<time>2016-10-08T02:27:11Z</time></trkpt>
<trkpt lat="29.566547" lon="94.558657">
<time>2016-10-08T02:27:12Z</time></trkpt>
<trkpt lat="29.566557" lon="94.558527">
<time>2016-10-08T02:27:13Z</time></trkpt>
<trkpt lat="29.566557" lon="94.558417">
<time>2016-10-08T02:27:14Z</time></trkpt>
<trkpt lat="29.566546" lon="94.558256">
<time>2016-10-08T02:27:15Z</time></trkpt>
<trkpt lat="29.566526" lon="94.558036">
<time>2016-10-08T02:27:16Z</time></trkpt>
<trkpt lat="29.566516" lon="94.557886">
<time>2016-10-08T02:27:17Z</time></trkpt>
<trkpt lat="29.566505" lon="94.557765">
<time>2016-10-08T02:27:18Z</time></trkpt>
<trkpt lat="29.566485" lon="94.557615">
<time>2016-10-08T02:27:19Z</time></trkpt>
<trkpt lat="29.566485" lon="94.557445">
<time>2016-10-08T02:27:20Z</time></trkpt>
<trkpt lat="29.566475" lon="94.557334">
<time>2016-10-08T02:27:21Z</time></trkpt>
<trkpt lat="29.566485" lon="94.557234">
<time>2016-10-08T02:27:22Z</time></trkpt>
<trkpt lat="29.566494" lon="94.557154">
<time>2016-10-08T02:27:23Z</time></trkpt>
<trkpt lat="29.566524" lon="94.557024">
<time>2016-10-08T02:27:24Z</time></trkpt>
<trkpt lat="29.566564" lon="94.556843">
<time>2016-10-08T02:27:25Z</time></trkpt>
<trkpt lat="29.566623" lon="94.556563">
<time>2016-10-08T02:27:26Z</time></trkpt>
<trkpt lat="29.566683" lon="94.556252">
<time>2016-10-08T02:27:27Z</time></trkpt>
<trkpt lat="29.566712" lon="94.556082">
<time>2016-10-08T02:27:28Z</time></trkpt>
<trkpt lat="29.566712" lon="94.555971">
<time>2016-10-08T02:27:29Z</time></trkpt>
<trkpt lat="29.566712" lon="94.555871">
<time>2016-10-08T02:27:30Z</time></trkpt>
<trkpt lat="29.566712" lon="94.555731">
<time>2016-10-08T02:27:31Z</time></trkpt>
<trkpt lat="29.566681" lon="94.55546">
<time>2016-10-08T02:27:32Z</time></trkpt>
<trkpt lat="29.566641" lon="94.55518">
<time>2016-10-08T02:27:33Z</time></trkpt>
<trkpt lat="29.5666" lon="94.554809">
<time>2016-10-08T02:27:34Z</time></trkpt>
<trkpt lat="29.5666" lon="94.554669">
<time>2016-10-08T02:27:35Z</time></trkpt>
<trkpt lat="29.5666" lon="94.554598">
<time>2016-10-08T02:27:36Z</time></trkpt>
<trkpt lat="29.56661" lon="94.554528">
<time>2016-10-08T02:27:37Z</time></trkpt>
<trkpt lat="29.566619" lon="94.554418">
<time>2016-10-08T02:27:38Z</time></trkpt>
<trkpt lat="29.566649" lon="94.554278">
<time>2016-10-08T02:27:39Z</time></trkpt>
<trkpt lat="29.566699" lon="94.554057">
<time>2016-10-08T02:27:40Z</time></trkpt>
<trkpt lat="29.566788" lon="94.553706">
<time>2016-10-08T02:27:41Z</time></trkpt>
<trkpt lat="29.566818" lon="94.553576">
<time>2016-10-08T02:27:42Z</time></trkpt>
<trkpt lat="29.566858" lon="94.553426">
<time>2016-10-08T02:27:43Z</time></trkpt>
<trkpt lat="29.566887" lon="94.553255">
<time>2016-10-08T02:27:44Z</time></trkpt>
<trkpt lat="29.566917" lon="94.553085">
<time>2016-10-08T02:27:45Z</time></trkpt>
<trkpt lat="29.566917" lon="94.553005">
<time>2016-10-08T02:27:46Z</time></trkpt>
<trkpt lat="29.566926" lon="94.552875">
<time>2016-10-08T02:27:47Z</time></trkpt>
<trkpt lat="29.566946" lon="94.552714">
<time>2016-10-08T02:27:48Z</time></trkpt>
<trkpt lat="29.566956" lon="94.552644">
<time>2016-10-08T02:27:49Z</time></trkpt>
<trkpt lat="29.566976" lon="94.552524">
<time>2016-10-08T02:27:50Z</time></trkpt>
<trkpt lat="29.566996" lon="94.552454">
<time>2016-10-08T02:27:51Z</time></trkpt>
<trkpt lat="29.567035" lon="94.552333">
<time>2016-10-08T02:27:52Z</time></trkpt>
<trkpt lat="29.567095" lon="94.552183">
<time>2016-10-08T02:27:53Z</time></trkpt>
<trkpt lat="29.567165" lon="94.552043">
<time>2016-10-08T02:27:54Z</time></trkpt>
<trkpt lat="29.567224" lon="94.551892">
<time>2016-10-08T02:27:55Z</time></trkpt>
<trkpt lat="29.567294" lon="94.551732">
<time>2016-10-08T02:27:56Z</time></trkpt>
<trkpt lat="29.567324" lon="94.551652">
<time>2016-10-08T02:27:57Z</time></trkpt>
<trkpt lat="29.567344" lon="94.551572">
<time>2016-10-08T02:27:58Z</time></trkpt>
<trkpt lat="29.567364" lon="94.551541">
<time>2016-10-08T02:27:59Z</time></trkpt>
<trkpt lat="29.567374" lon="94.551461">
<time>2016-10-08T02:28:00Z</time></trkpt>
<trkpt lat="29.567373" lon="94.551371">
<time>2016-10-08T02:28:01Z</time></trkpt>
<trkpt lat="29.567373" lon="94.551271">
<time>2016-10-08T02:28:02Z</time></trkpt>
<trkpt lat="29.567353" lon="94.551191">
<time>2016-10-08T02:28:03Z</time></trkpt>
<trkpt lat="29.567333" lon="94.55111">
<time>2016-10-08T02:28:04Z</time></trkpt>
<trkpt lat="29.567222" lon="94.55083">
<time>2016-10-08T02:28:05Z</time></trkpt>
<trkpt lat="29.567062" lon="94.550449">
<time>2016-10-08T02:28:06Z</time></trkpt>
<trkpt lat="29.566921" lon="94.550098">
<time>2016-10-08T02:28:07Z</time></trkpt>
<trkpt lat="29.566841" lon="94.549918">
<time>2016-10-08T02:28:08Z</time></trkpt>
<trkpt lat="29.56675" lon="94.549707">
<time>2016-10-08T02:28:09Z</time></trkpt>
<trkpt lat="29.56668" lon="94.549557">
<time>2016-10-08T02:28:10Z</time></trkpt>
<trkpt lat="29.56662" lon="94.549426">
<time>2016-10-08T02:28:11Z</time></trkpt>
<trkpt lat="29.56652" lon="94.549276">
<time>2016-10-08T02:28:12Z</time></trkpt>
<trkpt lat="29.566459" lon="94.549176">
<time>2016-10-08T02:28:13Z</time></trkpt>
<trkpt lat="29.566409" lon="94.549126">
<time>2016-10-08T02:28:14Z</time></trkpt>
<trkpt lat="29.566329" lon="94.549035">
<time>2016-10-08T02:28:15Z</time></trkpt>
<trkpt lat="29.566059" lon="94.548765">
<time>2016-10-08T02:28:16Z</time></trkpt>
<trkpt lat="29.565908" lon="94.548624">
<time>2016-10-08T02:28:17Z</time></trkpt>
<trkpt lat="29.565748" lon="94.548464">
<time>2016-10-08T02:28:18Z</time></trkpt>
<trkpt lat="29.565698" lon="94.548404">
<time>2016-10-08T02:28:19Z</time></trkpt>
<trkpt lat="29.565668" lon="94.548354">
<time>2016-10-08T02:28:20Z</time></trkpt>
<trkpt lat="29.565628" lon="94.548284">
<time>2016-10-08T02:28:21Z</time></trkpt>
<trkpt lat="29.565608" lon="94.548203">
<time>2016-10-08T02:28:22Z</time></trkpt>
<trkpt lat="29.565587" lon="94.548123">
<time>2016-10-08T02:28:23Z</time></trkpt>
<trkpt lat="29.565577" lon="94.548043">
<time>2016-10-08T02:28:24Z</time></trkpt>
<trkpt lat="29.565577" lon="94.548013">
<time>2016-10-08T02:28:25Z</time></trkpt>
<trkpt lat="29.565587" lon="94.547953">
<time>2016-10-08T02:28:26Z</time></trkpt>
<trkpt lat="29.565597" lon="94.547873">
<time>2016-10-08T02:28:27Z</time></trkpt>
<trkpt lat="29.565647" lon="94.547682">
<time>2016-10-08T02:28:28Z</time></trkpt>
<trkpt lat="29.565706" lon="94.547472">
<time>2016-10-08T02:28:29Z</time></trkpt>
<trkpt lat="29.565736" lon="94.547311">
<time>2016-10-08T02:28:30Z</time></trkpt>
<trkpt lat="29.565755" lon="94.547141">
<time>2016-10-08T02:28:31Z</time></trkpt>
<trkpt lat="29.565775" lon="94.54694">
<time>2016-10-08T02:28:32Z</time></trkpt>
<trkpt lat="29.565764" lon="94.54668">
<time>2016-10-08T02:28:33Z</time></trkpt>
<trkpt lat="29.565744" lon="94.546419">
<time>2016-10-08T02:28:34Z</time></trkpt>
<trkpt lat="29.565733" lon="94.546138">
<time>2016-10-08T02:28:35Z</time></trkpt>
<trkpt lat="29.565713" lon="94.545908">
<time>2016-10-08T02:28:36Z</time></trkpt>
<trkpt lat="29.565692" lon="94.545717">
<time>2016-10-08T02:28:37Z</time></trkpt>
<trkpt lat="29.565672" lon="94.545517">
<time>2016-10-08T02:28:38Z</time></trkpt>
<trkpt lat="29.565652" lon="94.545326">
<time>2016-10-08T02:28:39Z</time></trkpt>
<trkpt lat="29.565611" lon="94.545136">
<time>2016-10-08T02:28:40Z</time></trkpt>
<trkpt lat="29.565581" lon="94.545015">
<time>2016-10-08T02:28:41Z</time></trkpt>
<trkpt lat="29.56543" lon="94.544654">
<time>2016-10-08T02:28:42Z</time></trkpt>
<trkpt lat="29.565078" lon="94.543832">
<time>2016-10-08T02:28:43Z</time></trkpt>
<trkpt lat="29.565018" lon="94.543702">
<time>2016-10-08T02:28:44Z</time></trkpt>
<trkpt lat="29.565008" lon="94.543652">
<time>2016-10-08T02:28:45Z</time></trkpt>
<trkpt lat="29.564998" lon="94.543622">
<time>2016-10-08T02:28:46Z</time></trkpt>
<trkpt lat="29.564988" lon="94.543601">
<time>2016-10-08T02:28:47Z</time></trkpt>
<trkpt lat="29.564988" lon="94.543571">
<time>2016-10-08T02:28:48Z</time></trkpt>
<trkpt lat="29.564988" lon="94.543551">
<time>2016-10-08T02:28:49Z</time></trkpt>
<trkpt lat="29.564988" lon="94.543511">
<time>2016-10-08T02:28:50Z</time></trkpt>
<trkpt lat="29.564998" lon="94.543481">
<time>2016-10-08T02:28:51Z</time></trkpt>
<trkpt lat="29.565008" lon="94.543421">
<time>2016-10-08T02:28:52Z</time></trkpt>
<trkpt lat="29.565027" lon="94.543341">
<time>2016-10-08T02:28:53Z</time></trkpt>
<trkpt lat="29.565037" lon="94.543291">
<time>2016-10-08T02:28:54Z</time></trkpt>
<trkpt lat="29.565057" lon="94.543251">
<time>2016-10-08T02:28:55Z</time></trkpt>
<trkpt lat="29.565157" lon="94.54297">
<time>2016-10-08T02:28:56Z</time></trkpt>
<trkpt lat="29.565256" lon="94.542709">
<time>2016-10-08T02:28:57Z</time></trkpt>
<trkpt lat="29.565335" lon="94.542488">
<time>2016-10-08T02:28:58Z</time></trkpt>
<trkpt lat="29.565415" lon="94.542268">
<time>2016-10-08T02:28:59Z</time></trkpt>
<trkpt lat="29.565514" lon="94.541987">
<time>2016-10-08T02:29:00Z</time></trkpt>
<trkpt lat="29.565554" lon="94.541887">
<time>2016-10-08T02:29:01Z</time></trkpt>
<trkpt lat="29.565594" lon="94.541797">
<time>2016-10-08T02:29:02Z</time></trkpt>
<trkpt lat="29.565643" lon="94.541706">
<time>2016-10-08T02:29:03Z</time></trkpt>
<trkpt lat="29.565733" lon="94.541596">
<time>2016-10-08T02:29:04Z</time></trkpt>
<trkpt lat="29.565833" lon="94.541456">
<time>2016-10-08T02:29:05Z</time></trkpt>
<trkpt lat="29.565982" lon="94.541285">
<time>2016-10-08T02:29:06Z</time></trkpt>
<trkpt lat="29.566222" lon="94.541004">
<time>2016-10-08T02:29:07Z</time></trkpt>
<trkpt lat="29.566321" lon="94.540874">
<time>2016-10-08T02:29:08Z</time></trkpt>
<trkpt lat="29.566401" lon="94.540764">
<time>2016-10-08T02:29:09Z</time></trkpt>
<trkpt lat="29.566441" lon="94.540673">
<time>2016-10-08T02:29:10Z</time></trkpt>
<trkpt lat="29.566471" lon="94.540613">
<time>2016-10-08T02:29:11Z</time></trkpt>
<trkpt lat="29.566481" lon="94.540563">
<time>2016-10-08T02:29:12Z</time></trkpt>
<trkpt lat="29.56649" lon="94.540503">
<time>2016-10-08T02:29:13Z</time></trkpt>
<trkpt lat="29.5665" lon="94.540393">
<time>2016-10-08T02:29:14Z</time></trkpt>
<trkpt lat="29.56651" lon="94.540182">
<time>2016-10-08T02:29:15Z</time></trkpt>
<trkpt lat="29.566509" lon="94.540062">
<time>2016-10-08T02:29:16Z</time></trkpt>
<trkpt lat="29.566509" lon="94.539771">
<time>2016-10-08T02:29:17Z</time></trkpt>
<trkpt lat="29.566518" lon="94.53955">
<time>2016-10-08T02:29:18Z</time></trkpt>
<trkpt lat="29.566518" lon="94.53943">
<time>2016-10-08T02:29:19Z</time></trkpt>
<trkpt lat="29.566527" lon="94.539259">
<time>2016-10-08T02:29:20Z</time></trkpt>
<trkpt lat="29.566547" lon="94.539099">
<time>2016-10-08T02:29:21Z</time></trkpt>
<trkpt lat="29.566567" lon="94.538969">
<time>2016-10-08T02:29:22Z</time></trkpt>
<trkpt lat="29.566577" lon="94.538858">
<time>2016-10-08T02:29:23Z</time></trkpt>
<trkpt lat="29.566616" lon="94.538668">
<time>2016-10-08T02:29:24Z</time></trkpt>
<trkpt lat="29.566685" lon="94.538397">
<time>2016-10-08T02:29:25Z</time></trkpt>
<trkpt lat="29.566784" lon="94.538036">
<time>2016-10-08T02:29:26Z</time></trkpt>
<trkpt lat="29.566913" lon="94.537595">
<time>2016-10-08T02:29:27Z</time></trkpt>
<trkpt lat="29.566963" lon="94.537384">
<time>2016-10-08T02:29:28Z</time></trkpt>
<trkpt lat="29.567022" lon="94.537143">
<time>2016-10-08T02:29:29Z</time></trkpt>
<trkpt lat="29.567032" lon="94.537023">
<time>2016-10-08T02:29:30Z</time></trkpt>
<trkpt lat="29.567032" lon="94.536943">
<time>2016-10-08T02:29:31Z</time></trkpt>
<trkpt lat="29.567032" lon="94.536842">
<time>2016-10-08T02:29:32Z</time></trkpt>
<trkpt lat="29.567021" lon="94.536722">
<time>2016-10-08T02:29:33Z</time></trkpt>
<trkpt lat="29.567001" lon="94.536602">
<time>2016-10-08T02:29:34Z</time></trkpt>
<trkpt lat="29.566961" lon="94.536481">
<time>2016-10-08T02:29:35Z</time></trkpt>
<trkpt lat="29.56691" lon="94.536331">
<time>2016-10-08T02:29:36Z</time></trkpt>
<trkpt lat="29.56685" lon="94.536211">
<time>2016-10-08T02:29:37Z</time></trkpt>
<trkpt lat="29.56675" lon="94.53604">
<time>2016-10-08T02:29:38Z</time></trkpt>
<trkpt lat="29.566449" lon="94.535559">
<time>2016-10-08T02:29:39Z</time></trkpt>
<trkpt lat="29.566127" lon="94.535047">
<time>2016-10-08T02:29:40Z</time></trkpt>
<trkpt lat="29.565927" lon="94.534726">
<time>2016-10-08T02:29:41Z</time></trkpt>
<trkpt lat="29.565856" lon="94.534606">
<time>2016-10-08T02:29:42Z</time></trkpt>
<trkpt lat="29.565746" lon="94.534455">
<time>2016-10-08T02:29:43Z</time></trkpt>
<trkpt lat="29.565646" lon="94.534335">
<time>2016-10-08T02:29:44Z</time></trkpt>
<trkpt lat="29.565576" lon="94.534265">
<time>2016-10-08T02:29:45Z</time></trkpt>
<trkpt lat="29.565526" lon="94.534225">
<time>2016-10-08T02:29:46Z</time></trkpt>
<trkpt lat="29.565415" lon="94.534124">
<time>2016-10-08T02:29:47Z</time></trkpt>
<trkpt lat="29.565275" lon="94.534024">
<time>2016-10-08T02:29:48Z</time></trkpt>
<trkpt lat="29.565045" lon="94.533874">
<time>2016-10-08T02:29:49Z</time></trkpt>
<trkpt lat="29.564845" lon="94.533743">
<time>2016-10-08T02:29:50Z</time></trkpt>
<trkpt lat="29.564764" lon="94.533683">
<time>2016-10-08T02:29:51Z</time></trkpt>
<trkpt lat="29.564724" lon="94.533653">
<time>2016-10-08T02:29:52Z</time></trkpt>
<trkpt lat="29.564664" lon="94.533603">
<time>2016-10-08T02:29:53Z</time></trkpt>
<trkpt lat="29.564624" lon="94.533543">
<time>2016-10-08T02:29:54Z</time></trkpt>
<trkpt lat="29.564604" lon="94.533513">
<time>2016-10-08T02:29:55Z</time></trkpt>
<trkpt lat="29.564564" lon="94.533452">
<time>2016-10-08T02:29:56Z</time></trkpt>
<trkpt lat="29.564534" lon="94.533382">
<time>2016-10-08T02:29:57Z</time></trkpt>
<trkpt lat="29.564493" lon="94.533232">
<time>2016-10-08T02:29:58Z</time></trkpt>
<trkpt lat="29.564423" lon="94.532991">
<time>2016-10-08T02:29:59Z</time></trkpt>
<trkpt lat="29.564342" lon="94.53267">
<time>2016-10-08T02:30:00Z</time></trkpt>
<trkpt lat="29.564312" lon="94.53254">
<time>2016-10-08T02:30:01Z</time></trkpt>
<trkpt lat="29.564251" lon="94.532349">
<time>2016-10-08T02:30:02Z</time></trkpt>
<trkpt lat="29.564211" lon="94.532209">
<time>2016-10-08T02:30:03Z</time></trkpt>
<trkpt lat="29.564151" lon="94.532088">
<time>2016-10-08T02:30:04Z</time></trkpt>
<trkpt lat="29.56409" lon="94.531968">
<time>2016-10-08T02:30:05Z</time></trkpt>
<trkpt lat="29.56399" lon="94.531817">
<time>2016-10-08T02:30:06Z</time></trkpt>
<trkpt lat="29.563849" lon="94.531617">
<time>2016-10-08T02:30:07Z</time></trkpt>
<trkpt lat="29.563609" lon="94.531276">
<time>2016-10-08T02:30:08Z</time></trkpt>
<trkpt lat="29.563488" lon="94.531075">
<time>2016-10-08T02:30:09Z</time></trkpt>
<trkpt lat="29.563398" lon="94.530915">
<time>2016-10-08T02:30:10Z</time></trkpt>
<trkpt lat="29.563297" lon="94.530714">
<time>2016-10-08T02:30:11Z</time></trkpt>
<trkpt lat="29.563197" lon="94.530463">
<time>2016-10-08T02:30:12Z</time></trkpt>
<trkpt lat="29.563106" lon="94.530233">
<time>2016-10-08T02:30:13Z</time></trkpt>
<trkpt lat="29.562885" lon="94.529681">
<time>2016-10-08T02:30:14Z</time></trkpt>
<trkpt lat="29.562834" lon="94.52954">
<time>2016-10-08T02:30:15Z</time></trkpt>
<trkpt lat="29.562794" lon="94.52944">
<time>2016-10-08T02:30:16Z</time></trkpt>
<trkpt lat="29.562774" lon="94.52937">
<time>2016-10-08T02:30:17Z</time></trkpt>
<trkpt lat="29.562764" lon="94.52934">
<time>2016-10-08T02:30:18Z</time></trkpt>
<trkpt lat="29.562764" lon="94.5293">
<time>2016-10-08T02:30:19Z</time></trkpt>
<trkpt lat="29.562764" lon="94.529239">
<time>2016-10-08T02:30:20Z</time></trkpt>
<trkpt lat="29.562774" lon="94.529209">
<time>2016-10-08T02:30:21Z</time></trkpt>
<trkpt lat="29.562783" lon="94.529169">
<time>2016-10-08T02:30:22Z</time></trkpt>
<trkpt lat="29.562803" lon="94.529119">
<time>2016-10-08T02:30:23Z</time></trkpt>
<trkpt lat="29.562833" lon="94.529059">
<time>2016-10-08T02:30:24Z</time></trkpt>
<trkpt lat="29.562883" lon="94.528989">
<time>2016-10-08T02:30:25Z</time></trkpt>
<trkpt lat="29.562983" lon="94.528868">
<time>2016-10-08T02:30:26Z</time></trkpt>
<trkpt lat="29.563072" lon="94.528788">
<time>2016-10-08T02:30:27Z</time></trkpt>
<trkpt lat="29.563112" lon="94.528718">
<time>2016-10-08T02:30:28Z</time></trkpt>
<trkpt lat="29.563152" lon="94.528658">
<time>2016-10-08T02:30:29Z</time></trkpt>
<trkpt lat="29.563182" lon="94.528577">
<time>2016-10-08T02:30:30Z</time></trkpt>
<trkpt lat="29.563211" lon="94.528457">
<time>2016-10-08T02:30:31Z</time></trkpt>
<trkpt lat="29.563211" lon="94.528357">
<time>2016-10-08T02:30:32Z</time></trkpt>
<trkpt lat="29.563221" lon="94.528196">
<time>2016-10-08T02:30:33Z</time></trkpt>
<trkpt lat="29.5632" lon="94.527915">
<time>2016-10-08T02:30:34Z</time></trkpt>
<trkpt lat="29.563189" lon="94.527494">
<time>2016-10-08T02:30:35Z</time></trkpt>
<trkpt lat="29.563178" lon="94.526982">
<time>2016-10-08T02:30:36Z</time></trkpt>
<trkpt lat="29.563156" lon="94.52645">
<time>2016-10-08T02:30:37Z</time></trkpt>
<trkpt lat="29.563156" lon="94.52627">
<time>2016-10-08T02:30:38Z</time></trkpt>
<trkpt lat="29.563155" lon="94.526149">
<time>2016-10-08T02:30:39Z</time></trkpt>
<trkpt lat="29.563165" lon="94.526049">
<time>2016-10-08T02:30:40Z</time></trkpt>
<trkpt lat="29.563195" lon="94.525929">
<time>2016-10-08T02:30:41Z</time></trkpt>
<trkpt lat="29.563214" lon="94.525859">
<time>2016-10-08T02:30:42Z</time></trkpt>
<trkpt lat="29.563254" lon="94.525728">
<time>2016-10-08T02:30:43Z</time></trkpt>
<trkpt lat="29.563363" lon="94.525447">
<time>2016-10-08T02:30:44Z</time></trkpt>
<trkpt lat="29.563462" lon="94.525136">
<time>2016-10-08T02:30:45Z</time></trkpt>
<trkpt lat="29.563512" lon="94.525006">
<time>2016-10-08T02:30:46Z</time></trkpt>
<trkpt lat="29.563532" lon="94.524885">
<time>2016-10-08T02:30:47Z</time></trkpt>
<trkpt lat="29.563551" lon="94.524705">
<time>2016-10-08T02:30:48Z</time></trkpt>
<trkpt lat="29.563571" lon="94.524504">
<time>2016-10-08T02:30:49Z</time></trkpt>
<trkpt lat="29.56358" lon="94.524354">
<time>2016-10-08T02:30:50Z</time></trkpt>
<trkpt lat="29.563599" lon="94.523922">
<time>2016-10-08T02:30:51Z</time></trkpt>
<trkpt lat="29.563627" lon="94.52335">
<time>2016-10-08T02:30:52Z</time></trkpt>
<trkpt lat="29.563665" lon="94.522427">
<time>2016-10-08T02:30:53Z</time></trkpt>
<trkpt lat="29.563703" lon="94.521705">
<time>2016-10-08T02:30:54Z</time></trkpt>
<trkpt lat="29.563721" lon="94.521143">
<time>2016-10-08T02:30:55Z</time></trkpt>
<trkpt lat="29.56374" lon="94.520792">
<time>2016-10-08T02:30:56Z</time></trkpt>
<trkpt lat="29.56375" lon="94.520581">
<time>2016-10-08T02:30:57Z</time></trkpt>
<trkpt lat="29.563769" lon="94.5204">
<time>2016-10-08T02:30:58Z</time></trkpt>
<trkpt lat="29.563799" lon="94.52025">
<time>2016-10-08T02:30:59Z</time></trkpt>
<trkpt lat="29.563819" lon="94.52018">
<time>2016-10-08T02:31:00Z</time></trkpt>
<trkpt lat="29.563848" lon="94.520089">
<time>2016-10-08T02:31:01Z</time></trkpt>
<trkpt lat="29.563967" lon="94.519778">
<time>2016-10-08T02:31:02Z</time></trkpt>
<trkpt lat="29.564166" lon="94.519287">
<time>2016-10-08T02:31:03Z</time></trkpt>
<trkpt lat="29.564454" lon="94.518594">
<time>2016-10-08T02:31:04Z</time></trkpt>
<trkpt lat="29.564653" lon="94.518143">
<time>2016-10-08T02:31:05Z</time></trkpt>
<trkpt lat="29.564782" lon="94.517822">
<time>2016-10-08T02:31:06Z</time></trkpt>
<trkpt lat="29.56492" lon="94.51747">
<time>2016-10-08T02:31:07Z</time></trkpt>
<trkpt lat="29.565" lon="94.51729">
<time>2016-10-08T02:31:08Z</time></trkpt>
<trkpt lat="29.565139" lon="94.516939">
<time>2016-10-08T02:31:09Z</time></trkpt>
<trkpt lat="29.565178" lon="94.516788">
<time>2016-10-08T02:31:10Z</time></trkpt>
<trkpt lat="29.565208" lon="94.516688">
<time>2016-10-08T02:31:11Z</time></trkpt>
<trkpt lat="29.565238" lon="94.516557">
<time>2016-10-08T02:31:12Z</time></trkpt>
<trkpt lat="29.565257" lon="94.516457">
<time>2016-10-08T02:31:13Z</time></trkpt>
<trkpt lat="29.565267" lon="94.516377">
<time>2016-10-08T02:31:14Z</time></trkpt>
<trkpt lat="29.565277" lon="94.516256">
<time>2016-10-08T02:31:15Z</time></trkpt>
<trkpt lat="29.565277" lon="94.516136">
<time>2016-10-08T02:31:16Z</time></trkpt>
<trkpt lat="29.565276" lon="94.516005">
<time>2016-10-08T02:31:17Z</time></trkpt>
<trkpt lat="29.565256" lon="94.515835">
<time>2016-10-08T02:31:18Z</time></trkpt>
<trkpt lat="29.565235" lon="94.515704">
<time>2016-10-08T02:31:19Z</time></trkpt>
<trkpt lat="29.565185" lon="94.515514">
<time>2016-10-08T02:31:20Z</time></trkpt>
<trkpt lat="29.565124" lon="94.515313">
<time>2016-10-08T02:31:21Z</time></trkpt>
<trkpt lat="29.565033" lon="94.515002">
<time>2016-10-08T02:31:22Z</time></trkpt>
<trkpt lat="29.564932" lon="94.514671">
<time>2016-10-08T02:31:23Z</time></trkpt>
<trkpt lat="29.564852" lon="94.51438">
<time>2016-10-08T02:31:24Z</time></trkpt>
<trkpt lat="29.564821" lon="94.514249">
<time>2016-10-08T02:31:25Z</time></trkpt>
<trkpt lat="29.564801" lon="94.514149">
<time>2016-10-08T02:31:26Z</time></trkpt>
<trkpt lat="29.564791" lon="94.514049">
<time>2016-10-08T02:31:27Z</time></trkpt>
<trkpt lat="29.56478" lon="94.513938">
<time>2016-10-08T02:31:28Z</time></trkpt>
<trkpt lat="29.56479" lon="94.513818">
<time>2016-10-08T02:31:29Z</time></trkpt>
<trkpt lat="29.56479" lon="94.513687">
<time>2016-10-08T02:31:30Z</time></trkpt>
<trkpt lat="29.564809" lon="94.513547">
<time>2016-10-08T02:31:31Z</time></trkpt>
<trkpt lat="29.564829" lon="94.513376">
<time>2016-10-08T02:31:32Z</time></trkpt>
<trkpt lat="29.564868" lon="94.513226">
<time>2016-10-08T02:31:33Z</time></trkpt>
<trkpt lat="29.564888" lon="94.513145">
<time>2016-10-08T02:31:34Z</time></trkpt>
<trkpt lat="29.564918" lon="94.513035">
<time>2016-10-08T02:31:35Z</time></trkpt>
<trkpt lat="29.564967" lon="94.512834">
<time>2016-10-08T02:31:36Z</time></trkpt>
<trkpt lat="29.564977" lon="94.512774">
<time>2016-10-08T02:31:37Z</time></trkpt>
<trkpt lat="29.564987" lon="94.512714">
<time>2016-10-08T02:31:38Z</time></trkpt>
<trkpt lat="29.564987" lon="94.512674">
<time>2016-10-08T02:31:39Z</time></trkpt>
<trkpt lat="29.564986" lon="94.512614">
<time>2016-10-08T02:31:40Z</time></trkpt>
<trkpt lat="29.564976" lon="94.512513">
<time>2016-10-08T02:31:41Z</time></trkpt>
<trkpt lat="29.564966" lon="94.512443">
<time>2016-10-08T02:31:42Z</time></trkpt>
<trkpt lat="29.564946" lon="94.512353">
<time>2016-10-08T02:31:43Z</time></trkpt>
<trkpt lat="29.564905" lon="94.512222">
<time>2016-10-08T02:31:44Z</time></trkpt>
<trkpt lat="29.564845" lon="94.512011">
<time>2016-10-08T02:31:45Z</time></trkpt>
<trkpt lat="29.564825" lon="94.511961">
<time>2016-10-08T02:31:46Z</time></trkpt>
<trkpt lat="29.564814" lon="94.511901">
<time>2016-10-08T02:31:47Z</time></trkpt>
<trkpt lat="29.564794" lon="94.511821">
<time>2016-10-08T02:31:48Z</time></trkpt>
<trkpt lat="29.564794" lon="94.511761">
<time>2016-10-08T02:31:49Z</time></trkpt>
<trkpt lat="29.564804" lon="94.51171">
<time>2016-10-08T02:31:50Z</time></trkpt>
<trkpt lat="29.564814" lon="94.51165">
<time>2016-10-08T02:31:51Z</time></trkpt>
<trkpt lat="29.564824" lon="94.51162">
<time>2016-10-08T02:31:52Z</time></trkpt>
<trkpt lat="29.564843" lon="94.51158">
<time>2016-10-08T02:31:53Z</time></trkpt>
<trkpt lat="29.564883" lon="94.51154">
<time>2016-10-08T02:31:54Z</time></trkpt>
<trkpt lat="29.564933" lon="94.5115">
<time>2016-10-08T02:31:55Z</time></trkpt>
<trkpt lat="29.564983" lon="94.51148">
<time>2016-10-08T02:31:56Z</time></trkpt>
<trkpt lat="29.565043" lon="94.511459">
<time>2016-10-08T02:31:57Z</time></trkpt>
<trkpt lat="29.565113" lon="94.511449">
<time>2016-10-08T02:31:58Z</time></trkpt>
<trkpt lat="29.565203" lon="94.511429">
<time>2016-10-08T02:31:59Z</time></trkpt>
<trkpt lat="29.565253" lon="94.511419">
<time>2016-10-08T02:32:00Z</time></trkpt>
<trkpt lat="29.565313" lon="94.511419">
<time>2016-10-08T02:32:01Z</time></trkpt>
<trkpt lat="29.565433" lon="94.511389">
<time>2016-10-08T02:32:02Z</time></trkpt>
<trkpt lat="29.565503" lon="94.511379">
<time>2016-10-08T02:32:03Z</time></trkpt>
<trkpt lat="29.565523" lon="94.511369">
<time>2016-10-08T02:32:04Z</time></trkpt>
<trkpt lat="29.565592" lon="94.511339">
<time>2016-10-08T02:32:05Z</time></trkpt>
<trkpt lat="29.565652" lon="94.511309">
<time>2016-10-08T02:32:06Z</time></trkpt>
<trkpt lat="29.565682" lon="94.511299">
<time>2016-10-08T02:32:07Z</time></trkpt>
<trkpt lat="29.565722" lon="94.511269">
<time>2016-10-08T02:32:08Z</time></trkpt>
<trkpt lat="29.565762" lon="94.511239">
<time>2016-10-08T02:32:09Z</time></trkpt>
<trkpt lat="29.565802" lon="94.511219">
<time>2016-10-08T02:32:10Z</time></trkpt>
<trkpt lat="29.565852" lon="94.511178">
<time>2016-10-08T02:32:11Z</time></trkpt>
<trkpt lat="29.565902" lon="94.511128">
<time>2016-10-08T02:32:12Z</time></trkpt>
<trkpt lat="29.565952" lon="94.511078">
<time>2016-10-08T02:32:13Z</time></trkpt>
<trkpt lat="29.565991" lon="94.511018">
<time>2016-10-08T02:32:14Z</time></trkpt>
<trkpt lat="29.566021" lon="94.510978">
<time>2016-10-08T02:32:15Z</time></trkpt>
<trkpt lat="29.566071" lon="94.510887">
<time>2016-10-08T02:32:16Z</time></trkpt>
<trkpt lat="29.566111" lon="94.510817">
<time>2016-10-08T02:32:17Z</time></trkpt>
<trkpt lat="29.56614" lon="94.510727">
<time>2016-10-08T02:32:18Z</time></trkpt>
<trkpt lat="29.56619" lon="94.510606">
<time>2016-10-08T02:32:19Z</time></trkpt>
<trkpt lat="29.566299" lon="94.510295">
<time>2016-10-08T02:32:20Z</time></trkpt>
<trkpt lat="29.566497" lon="94.509723">
<time>2016-10-08T02:32:21Z</time></trkpt>
<trkpt lat="29.566715" lon="94.509101">
<time>2016-10-08T02:32:22Z</time></trkpt>
<trkpt lat="29.566795" lon="94.50887">
<time>2016-10-08T02:32:23Z</time></trkpt>
<trkpt lat="29.566914" lon="94.508539">
<time>2016-10-08T02:32:24Z</time></trkpt>
<trkpt lat="29.566973" lon="94.508348">
<time>2016-10-08T02:32:25Z</time></trkpt>
<trkpt lat="29.567013" lon="94.508228">
<time>2016-10-08T02:32:26Z</time></trkpt>
<trkpt lat="29.567032" lon="94.508118">
<time>2016-10-08T02:32:27Z</time></trkpt>
<trkpt lat="29.567042" lon="94.507987">
<time>2016-10-08T02:32:28Z</time></trkpt>
<trkpt lat="29.567032" lon="94.507827">
<time>2016-10-08T02:32:29Z</time></trkpt>
<trkpt lat="29.567011" lon="94.507646">
<time>2016-10-08T02:32:30Z</time></trkpt>
<trkpt lat="29.56694" lon="94.507144">
<time>2016-10-08T02:32:31Z</time></trkpt>
<trkpt lat="29.566858" lon="94.506582">
<time>2016-10-08T02:32:32Z</time></trkpt>
<trkpt lat="29.566715" lon="94.505579">
<time>2016-10-08T02:32:33Z</time></trkpt>
<trkpt lat="29.566572" lon="94.504645">
<time>2016-10-08T02:32:34Z</time></trkpt>
<trkpt lat="29.566491" lon="94.504093">
<time>2016-10-08T02:32:35Z</time></trkpt>
<trkpt lat="29.56644" lon="94.503752">
<time>2016-10-08T02:32:36Z</time></trkpt>
<trkpt lat="29.566399" lon="94.503461">
<time>2016-10-08T02:32:37Z</time></trkpt>
<trkpt lat="29.566368" lon="94.50327">
<time>2016-10-08T02:32:38Z</time></trkpt>
<trkpt lat="29.566348" lon="94.50311">
<time>2016-10-08T02:32:39Z</time></trkpt>
<trkpt lat="29.566337" lon="94.502879">
<time>2016-10-08T02:32:40Z</time></trkpt>
<trkpt lat="29.566337" lon="94.502728">
<time>2016-10-08T02:32:41Z</time></trkpt>
<trkpt lat="29.566346" lon="94.502558">
<time>2016-10-08T02:32:42Z</time></trkpt>
<trkpt lat="29.566356" lon="94.502397">
<time>2016-10-08T02:32:43Z</time></trkpt>
<trkpt lat="29.566365" lon="94.502247">
<time>2016-10-08T02:32:44Z</time></trkpt>
<trkpt lat="29.566365" lon="94.502106">
<time>2016-10-08T02:32:45Z</time></trkpt>
<trkpt lat="29.566364" lon="94.501945">
<time>2016-10-08T02:32:46Z</time></trkpt>
<trkpt lat="29.566364" lon="94.501755">
<time>2016-10-08T02:32:47Z</time></trkpt>
<trkpt lat="29.566353" lon="94.501624">
<time>2016-10-08T02:32:48Z</time></trkpt>
<trkpt lat="29.566333" lon="94.501494">
<time>2016-10-08T02:32:49Z</time></trkpt>
<trkpt lat="29.566302" lon="94.501313">
<time>2016-10-08T02:32:50Z</time></trkpt>
<trkpt lat="29.566272" lon="94.501173">
<time>2016-10-08T02:32:51Z</time></trkpt>
<trkpt lat="29.566262" lon="94.501062">
<time>2016-10-08T02:32:52Z</time></trkpt>
<trkpt lat="29.566251" lon="94.500982">
<time>2016-10-08T02:32:53Z</time></trkpt>
<trkpt lat="29.566261" lon="94.500852">
<time>2016-10-08T02:32:54Z</time></trkpt>
<trkpt lat="29.566271" lon="94.500721">
<time>2016-10-08T02:32:55Z</time></trkpt>
<trkpt lat="29.56631" lon="94.50052">
<time>2016-10-08T02:32:56Z</time></trkpt>
<trkpt lat="29.566349" lon="94.500279">
<time>2016-10-08T02:32:57Z</time></trkpt>
<trkpt lat="29.566389" lon="94.500029">
<time>2016-10-08T02:32:58Z</time></trkpt>
<trkpt lat="29.566428" lon="94.499828">
<time>2016-10-08T02:32:59Z</time></trkpt>
<trkpt lat="29.566447" lon="94.499687">
<time>2016-10-08T02:33:00Z</time></trkpt>
<trkpt lat="29.566457" lon="94.499527">
<time>2016-10-08T02:33:01Z</time></trkpt>
<trkpt lat="29.566466" lon="94.499366">
<time>2016-10-08T02:33:02Z</time></trkpt>
<trkpt lat="29.566456" lon="94.499256">
<time>2016-10-08T02:33:03Z</time></trkpt>
<trkpt lat="29.566436" lon="94.499085">
<time>2016-10-08T02:33:04Z</time></trkpt>
<trkpt lat="29.566405" lon="94.498915">
<time>2016-10-08T02:33:05Z</time></trkpt>
<trkpt lat="29.566395" lon="94.498824">
<time>2016-10-08T02:33:06Z</time></trkpt>
<trkpt lat="29.566395" lon="94.498754">
<time>2016-10-08T02:33:07Z</time></trkpt>
<trkpt lat="29.566394" lon="94.498684">
<time>2016-10-08T02:33:08Z</time></trkpt>
<trkpt lat="29.566404" lon="94.498644">
<time>2016-10-08T02:33:09Z</time></trkpt>
<trkpt lat="29.566404" lon="94.498603">
<time>2016-10-08T02:33:10Z</time></trkpt>
<trkpt lat="29.566434" lon="94.498513">
<time>2016-10-08T02:33:11Z</time></trkpt>
<trkpt lat="29.566464" lon="94.498443">
<time>2016-10-08T02:33:12Z</time></trkpt>
<trkpt lat="29.566504" lon="94.498383">
<time>2016-10-08T02:33:13Z</time></trkpt>
<trkpt lat="29.566543" lon="94.498312">
<time>2016-10-08T02:33:14Z</time></trkpt>
<trkpt lat="29.566593" lon="94.498242">
<time>2016-10-08T02:33:15Z</time></trkpt>
<trkpt lat="29.566633" lon="94.498202">
<time>2016-10-08T02:33:16Z</time></trkpt>
<trkpt lat="29.566733" lon="94.498112">
<time>2016-10-08T02:33:17Z</time></trkpt>
<trkpt lat="29.566862" lon="94.498001">
<time>2016-10-08T02:33:18Z</time></trkpt>
<trkpt lat="29.566982" lon="94.497901">
<time>2016-10-08T02:33:19Z</time></trkpt>
<trkpt lat="29.567132" lon="94.49778">
<time>2016-10-08T02:33:20Z</time></trkpt>
<trkpt lat="29.567241" lon="94.4977">
<time>2016-10-08T02:33:21Z</time></trkpt>
<trkpt lat="29.567361" lon="94.49758">
<time>2016-10-08T02:33:22Z</time></trkpt>
<trkpt lat="29.56746" lon="94.497469">
<time>2016-10-08T02:33:23Z</time></trkpt>
<trkpt lat="29.5676" lon="94.497309">
<time>2016-10-08T02:33:24Z</time></trkpt>
<trkpt lat="29.567719" lon="94.497158">
<time>2016-10-08T02:33:25Z</time></trkpt>
<trkpt lat="29.567968" lon="94.496837">
<time>2016-10-08T02:33:26Z</time></trkpt>
<trkpt lat="29.568128" lon="94.496636">
<time>2016-10-08T02:33:27Z</time></trkpt>
<trkpt lat="29.568237" lon="94.496466">
<time>2016-10-08T02:33:28Z</time></trkpt>
<trkpt lat="29.568307" lon="94.496375">
<time>2016-10-08T02:33:29Z</time></trkpt>
<trkpt lat="29.568377" lon="94.496255">
<time>2016-10-08T02:33:30Z</time></trkpt>
<trkpt lat="29.568506" lon="94.496014">
<time>2016-10-08T02:33:31Z</time></trkpt>
<trkpt lat="29.568605" lon="94.495803">
<time>2016-10-08T02:33:32Z</time></trkpt>
<trkpt lat="29.568764" lon="94.495482">
<time>2016-10-08T02:33:33Z</time></trkpt>
<trkpt lat="29.568824" lon="94.495362">
<time>2016-10-08T02:33:34Z</time></trkpt>
<trkpt lat="29.568883" lon="94.495261">
<time>2016-10-08T02:33:35Z</time></trkpt>
<trkpt lat="29.568963" lon="94.495141">
<time>2016-10-08T02:33:36Z</time></trkpt>
<trkpt lat="29.569063" lon="94.495">
<time>2016-10-08T02:33:37Z</time></trkpt>
<trkpt lat="29.569202" lon="94.49481">
<time>2016-10-08T02:33:38Z</time></trkpt>
<trkpt lat="29.569321" lon="94.494629">
<time>2016-10-08T02:33:39Z</time></trkpt>
<trkpt lat="29.569381" lon="94.494499">
<time>2016-10-08T02:33:40Z</time></trkpt>
<trkpt lat="29.56947" lon="94.494308">
<time>2016-10-08T02:33:41Z</time></trkpt>
<trkpt lat="29.56956" lon="94.494127">
<time>2016-10-08T02:33:42Z</time></trkpt>
<trkpt lat="29.569629" lon="94.493977">
<time>2016-10-08T02:33:43Z</time></trkpt>
<trkpt lat="29.569689" lon="94.493846">
<time>2016-10-08T02:33:44Z</time></trkpt>
<trkpt lat="29.569709" lon="94.493776">
<time>2016-10-08T02:33:45Z</time></trkpt>
<trkpt lat="29.569738" lon="94.493706">
<time>2016-10-08T02:33:46Z</time></trkpt>
<trkpt lat="29.569768" lon="94.493595">
<time>2016-10-08T02:33:47Z</time></trkpt>
<trkpt lat="29.569798" lon="94.493475">
<time>2016-10-08T02:33:48Z</time></trkpt>
<trkpt lat="29.569807" lon="94.493364">
<time>2016-10-08T02:33:49Z</time></trkpt>
<trkpt lat="29.569817" lon="94.493234">
<time>2016-10-08T02:33:50Z</time></trkpt>
<trkpt lat="29.569826" lon="94.493033">
<time>2016-10-08T02:33:51Z</time></trkpt>
<trkpt lat="29.569826" lon="94.492923">
<time>2016-10-08T02:33:52Z</time></trkpt>
<trkpt lat="29.569835" lon="94.492702">
<time>2016-10-08T02:33:53Z</time></trkpt>
<trkpt lat="29.569845" lon="94.492602">
<time>2016-10-08T02:33:54Z</time></trkpt>
<trkpt lat="29.569855" lon="94.492531">
<time>2016-10-08T02:33:55Z</time></trkpt>
<trkpt lat="29.569865" lon="94.492481">
<time>2016-10-08T02:33:56Z</time></trkpt>
<trkpt lat="29.569884" lon="94.492401">
<time>2016-10-08T02:33:57Z</time></trkpt>
<trkpt lat="29.569914" lon="94.492341">
<time>2016-10-08T02:33:58Z</time></trkpt>
<trkpt lat="29.569944" lon="94.49226">
<time>2016-10-08T02:33:59Z</time></trkpt>
<trkpt lat="29.570004" lon="94.49219">
<time>2016-10-08T02:34:00Z</time></trkpt>
<trkpt lat="29.570054" lon="94.49212">
<time>2016-10-08T02:34:01Z</time></trkpt>
<trkpt lat="29.570143" lon="94.49203">
<time>2016-10-08T02:34:02Z</time></trkpt>
<trkpt lat="29.570323" lon="94.491829">
<time>2016-10-08T02:34:03Z</time></trkpt>
<trkpt lat="29.570392" lon="94.491739">
<time>2016-10-08T02:34:04Z</time></trkpt>
<trkpt lat="29.570482" lon="94.491618">
<time>2016-10-08T02:34:05Z</time></trkpt>
<trkpt lat="29.570552" lon="94.491508">
<time>2016-10-08T02:34:06Z</time></trkpt>
<trkpt lat="29.570631" lon="94.491337">
<time>2016-10-08T02:34:07Z</time></trkpt>
<trkpt lat="29.5707" lon="94.491116">
<time>2016-10-08T02:34:08Z</time></trkpt>
<trkpt lat="29.570809" lon="94.490805">
<time>2016-10-08T02:34:09Z</time></trkpt>
<trkpt lat="29.570938" lon="94.490414">
<time>2016-10-08T02:34:10Z</time></trkpt>
<trkpt lat="29.571027" lon="94.490163">
<time>2016-10-08T02:34:11Z</time></trkpt>
<trkpt lat="29.571097" lon="94.489902">
<time>2016-10-08T02:34:12Z</time></trkpt>
<trkpt lat="29.571126" lon="94.489771">
<time>2016-10-08T02:34:13Z</time></trkpt>
<trkpt lat="29.571166" lon="94.489581">
<time>2016-10-08T02:34:14Z</time></trkpt>
<trkpt lat="29.571235" lon="94.489219">
<time>2016-10-08T02:34:15Z</time></trkpt>
<trkpt lat="29.571304" lon="94.488989">
<time>2016-10-08T02:34:16Z</time></trkpt>
<trkpt lat="29.571373" lon="94.488838">
<time>2016-10-08T02:34:17Z</time></trkpt>
<trkpt lat="29.571403" lon="94.488778">
<time>2016-10-08T02:34:18Z</time></trkpt>
<trkpt lat="29.571503" lon="94.488597">
<time>2016-10-08T02:34:19Z</time></trkpt>
<trkpt lat="29.571721" lon="94.488206">
<time>2016-10-08T02:34:20Z</time></trkpt>
<trkpt lat="29.57193" lon="94.487845">
<time>2016-10-08T02:34:21Z</time></trkpt>
<trkpt lat="29.57204" lon="94.487674">
<time>2016-10-08T02:34:22Z</time></trkpt>
<trkpt lat="29.572139" lon="94.487503">
<time>2016-10-08T02:34:23Z</time></trkpt>
<trkpt lat="29.572229" lon="94.487313">
<time>2016-10-08T02:34:24Z</time></trkpt>
<trkpt lat="29.572288" lon="94.487162">
<time>2016-10-08T02:34:25Z</time></trkpt>
<trkpt lat="29.572368" lon="94.486981">
<time>2016-10-08T02:34:26Z</time></trkpt>
<trkpt lat="29.572397" lon="94.486911">
<time>2016-10-08T02:34:27Z</time></trkpt>
<trkpt lat="29.572417" lon="94.486871">
<time>2016-10-08T02:34:28Z</time></trkpt>
<trkpt lat="29.572467" lon="94.486801">
<time>2016-10-08T02:34:29Z</time></trkpt>
<trkpt lat="29.572517" lon="94.486761">
<time>2016-10-08T02:34:30Z</time></trkpt>
<trkpt lat="29.572577" lon="94.486711">
<time>2016-10-08T02:34:31Z</time></trkpt>
<trkpt lat="29.572657" lon="94.48667">
<time>2016-10-08T02:34:32Z</time></trkpt>
<trkpt lat="29.572747" lon="94.48665">
<time>2016-10-08T02:34:33Z</time></trkpt>
<trkpt lat="29.572896" lon="94.48662">
<time>2016-10-08T02:34:34Z</time></trkpt>
<trkpt lat="29.573266" lon="94.48656">
<time>2016-10-08T02:34:35Z</time></trkpt>
<trkpt lat="29.573666" lon="94.48652">
<time>2016-10-08T02:34:36Z</time></trkpt>
<trkpt lat="29.573786" lon="94.4865">
<time>2016-10-08T02:34:37Z</time></trkpt>
<trkpt lat="29.574075" lon="94.48645">
<time>2016-10-08T02:34:38Z</time></trkpt>
<trkpt lat="29.574435" lon="94.486399">
<time>2016-10-08T02:34:39Z</time></trkpt>
<trkpt lat="29.574515" lon="94.486389">
<time>2016-10-08T02:34:40Z</time></trkpt>
<trkpt lat="29.574655" lon="94.486349">
<time>2016-10-08T02:34:41Z</time></trkpt>
<trkpt lat="29.574825" lon="94.486289">
<time>2016-10-08T02:34:42Z</time></trkpt>
<trkpt lat="29.574994" lon="94.486209">
<time>2016-10-08T02:34:43Z</time></trkpt>
<trkpt lat="29.575094" lon="94.486158">
<time>2016-10-08T02:34:44Z</time></trkpt>
<trkpt lat="29.575234" lon="94.486068">
<time>2016-10-08T02:34:45Z</time></trkpt>
<trkpt lat="29.575374" lon="94.485968">
<time>2016-10-08T02:34:46Z</time></trkpt>
<trkpt lat="29.575493" lon="94.485867">
<time>2016-10-08T02:34:47Z</time></trkpt>
<trkpt lat="29.575563" lon="94.485797">
<time>2016-10-08T02:34:48Z</time></trkpt>
<trkpt lat="29.575623" lon="94.485737">
<time>2016-10-08T02:34:49Z</time></trkpt>
<trkpt lat="29.575713" lon="94.485637">
<time>2016-10-08T02:34:50Z</time></trkpt>
<trkpt lat="29.575782" lon="94.485536">
<time>2016-10-08T02:34:51Z</time></trkpt>
<trkpt lat="29.57625" lon="94.484944">
<time>2016-10-08T02:34:52Z</time></trkpt>
<trkpt lat="29.576798" lon="94.484272">
<time>2016-10-08T02:34:53Z</time></trkpt>
<trkpt lat="29.577346" lon="94.483599">
<time>2016-10-08T02:34:54Z</time></trkpt>
<trkpt lat="29.577804" lon="94.483037">
<time>2016-10-08T02:34:55Z</time></trkpt>
<trkpt lat="29.578003" lon="94.482756">
<time>2016-10-08T02:34:56Z</time></trkpt>
<trkpt lat="29.578083" lon="94.482636">
<time>2016-10-08T02:34:57Z</time></trkpt>
<trkpt lat="29.578153" lon="94.482506">
<time>2016-10-08T02:34:58Z</time></trkpt>
<trkpt lat="29.578192" lon="94.482405">
<time>2016-10-08T02:34:59Z</time></trkpt>
<trkpt lat="29.578272" lon="94.482194">
<time>2016-10-08T02:35:00Z</time></trkpt>
<trkpt lat="29.578341" lon="94.481984">
<time>2016-10-08T02:35:01Z</time></trkpt>
<trkpt lat="29.5784" lon="94.481753">
<time>2016-10-08T02:35:02Z</time></trkpt>
<trkpt lat="29.578648" lon="94.48081">
<time>2016-10-08T02:35:03Z</time></trkpt>
<trkpt lat="29.578727" lon="94.480539">
<time>2016-10-08T02:35:04Z</time></trkpt>
<trkpt lat="29.578855" lon="94.480087">
<time>2016-10-08T02:35:05Z</time></trkpt>
<trkpt lat="29.578885" lon="94.479977">
<time>2016-10-08T02:35:06Z</time></trkpt>
<trkpt lat="29.578925" lon="94.479846">
<time>2016-10-08T02:35:07Z</time></trkpt>
<trkpt lat="29.578935" lon="94.479766">
<time>2016-10-08T02:35:08Z</time></trkpt>
<trkpt lat="29.578934" lon="94.479726">
<time>2016-10-08T02:35:09Z</time></trkpt>
<trkpt lat="29.578934" lon="94.479686">
<time>2016-10-08T02:35:10Z</time></trkpt>
<trkpt lat="29.578934" lon="94.479636">
<time>2016-10-08T02:35:11Z</time></trkpt>
<trkpt lat="29.578924" lon="94.479585">
<time>2016-10-08T02:35:12Z</time></trkpt>
<trkpt lat="29.578904" lon="94.479505">
<time>2016-10-08T02:35:13Z</time></trkpt>
<trkpt lat="29.578853" lon="94.479365">
<time>2016-10-08T02:35:14Z</time></trkpt>
<trkpt lat="29.578803" lon="94.479264">
<time>2016-10-08T02:35:15Z</time></trkpt>
<trkpt lat="29.578733" lon="94.479084">
<time>2016-10-08T02:35:16Z</time></trkpt>
<trkpt lat="29.578602" lon="94.478793">
<time>2016-10-08T02:35:17Z</time></trkpt>
<trkpt lat="29.578552" lon="94.478672">
<time>2016-10-08T02:35:18Z</time></trkpt>
<trkpt lat="29.578511" lon="94.478552">
<time>2016-10-08T02:35:19Z</time></trkpt>
<trkpt lat="29.578491" lon="94.478431">
<time>2016-10-08T02:35:20Z</time></trkpt>
<trkpt lat="29.57847" lon="94.478281">
<time>2016-10-08T02:35:21Z</time></trkpt>
<trkpt lat="29.578409" lon="94.477829">
<time>2016-10-08T02:35:22Z</time></trkpt>
<trkpt lat="29.578378" lon="94.477528">
<time>2016-10-08T02:35:23Z</time></trkpt>
<trkpt lat="29.578327" lon="94.477197">
<time>2016-10-08T02:35:24Z</time></trkpt>
<trkpt lat="29.578297" lon="94.476906">
<time>2016-10-08T02:35:25Z</time></trkpt>
<trkpt lat="29.578276" lon="94.476766">
<time>2016-10-08T02:35:26Z</time></trkpt>
<trkpt lat="29.578256" lon="94.476665">
<time>2016-10-08T02:35:27Z</time></trkpt>
<trkpt lat="29.578196" lon="94.476515">
<time>2016-10-08T02:35:28Z</time></trkpt>
<trkpt lat="29.578155" lon="94.476435">
<time>2016-10-08T02:35:29Z</time></trkpt>
<trkpt lat="29.578085" lon="94.476324">
<time>2016-10-08T02:35:30Z</time></trkpt>
<trkpt lat="29.578015" lon="94.476224">
<time>2016-10-08T02:35:31Z</time></trkpt>
<trkpt lat="29.577844" lon="94.476033">
<time>2016-10-08T02:35:32Z</time></trkpt>
<trkpt lat="29.577704" lon="94.475863">
<time>2016-10-08T02:35:33Z</time></trkpt>
<trkpt lat="29.577574" lon="94.475712">
<time>2016-10-08T02:35:34Z</time></trkpt>
<trkpt lat="29.577503" lon="94.475612">
<time>2016-10-08T02:35:35Z</time></trkpt>
<trkpt lat="29.577443" lon="94.475511">
<time>2016-10-08T02:35:36Z</time></trkpt>
<trkpt lat="29.577393" lon="94.475401">
<time>2016-10-08T02:35:37Z</time></trkpt>
<trkpt lat="29.577352" lon="94.475281">
<time>2016-10-08T02:35:38Z</time></trkpt>
<trkpt lat="29.577312" lon="94.47512">
<time>2016-10-08T02:35:39Z</time></trkpt>
<trkpt lat="29.577271" lon="94.474849">
<time>2016-10-08T02:35:40Z</time></trkpt>
<trkpt lat="29.57721" lon="94.474528">
<time>2016-10-08T02:35:41Z</time></trkpt>
<trkpt lat="29.577129" lon="94.474077">
<time>2016-10-08T02:35:42Z</time></trkpt>
<trkpt lat="29.577078" lon="94.473776">
<time>2016-10-08T02:35:43Z</time></trkpt>
<trkpt lat="29.577058" lon="94.473615">
<time>2016-10-08T02:35:44Z</time></trkpt>
<trkpt lat="29.577048" lon="94.473465">
<time>2016-10-08T02:35:45Z</time></trkpt>
<trkpt lat="29.577057" lon="94.473234">
<time>2016-10-08T02:35:46Z</time></trkpt>
<trkpt lat="29.577086" lon="94.472983">
<time>2016-10-08T02:35:47Z</time></trkpt>
<trkpt lat="29.577125" lon="94.472682">
<time>2016-10-08T02:35:48Z</time></trkpt>
<trkpt lat="29.577165" lon="94.472371">
<time>2016-10-08T02:35:49Z</time></trkpt>
<trkpt lat="29.577184" lon="94.47223">
<time>2016-10-08T02:35:50Z</time></trkpt>
<trkpt lat="29.577194" lon="94.47211">
<time>2016-10-08T02:35:51Z</time></trkpt>
<trkpt lat="29.577194" lon="94.47203">
<time>2016-10-08T02:35:52Z</time></trkpt>
<trkpt lat="29.577183" lon="94.47197">
<time>2016-10-08T02:35:53Z</time></trkpt>
<trkpt lat="29.577153" lon="94.471889">
<time>2016-10-08T02:35:54Z</time></trkpt>
<trkpt lat="29.577133" lon="94.471849">
<time>2016-10-08T02:35:55Z</time></trkpt>
<trkpt lat="29.577093" lon="94.471759">
<time>2016-10-08T02:35:56Z</time></trkpt>
<trkpt lat="29.577023" lon="94.471669">
<time>2016-10-08T02:35:57Z</time></trkpt>
<trkpt lat="29.576922" lon="94.471538">
<time>2016-10-08T02:35:58Z</time></trkpt>
<trkpt lat="29.576812" lon="94.471398">
<time>2016-10-08T02:35:59Z</time></trkpt>
<trkpt lat="29.576762" lon="94.471317">
<time>2016-10-08T02:36:00Z</time></trkpt>
<trkpt lat="29.576732" lon="94.471237">
<time>2016-10-08T02:36:01Z</time></trkpt>
<trkpt lat="29.576711" lon="94.471157">
<time>2016-10-08T02:36:02Z</time></trkpt>
<trkpt lat="29.576701" lon="94.471087">
<time>2016-10-08T02:36:03Z</time></trkpt>
<trkpt lat="29.576701" lon="94.470946">
<time>2016-10-08T02:36:04Z</time></trkpt>
<trkpt lat="29.576719" lon="94.470274">
<time>2016-10-08T02:36:05Z</time></trkpt>
<trkpt lat="29.576728" lon="94.469782">
<time>2016-10-08T02:36:06Z</time></trkpt>
<trkpt lat="29.576727" lon="94.469411">
<time>2016-10-08T02:36:07Z</time></trkpt>
<trkpt lat="29.576736" lon="94.4691">
<time>2016-10-08T02:36:08Z</time></trkpt>
<trkpt lat="29.576745" lon="94.46888">
<time>2016-10-08T02:36:09Z</time></trkpt>
<trkpt lat="29.576775" lon="94.468679">
<time>2016-10-08T02:36:10Z</time></trkpt>
<trkpt lat="29.576804" lon="94.468538">
<time>2016-10-08T02:36:11Z</time></trkpt>
<trkpt lat="29.576854" lon="94.468298">
<time>2016-10-08T02:36:12Z</time></trkpt>
<trkpt lat="29.576933" lon="94.468017">
<time>2016-10-08T02:36:13Z</time></trkpt>
<trkpt lat="29.577032" lon="94.467636">
<time>2016-10-08T02:36:14Z</time></trkpt>
<trkpt lat="29.577161" lon="94.467134">
<time>2016-10-08T02:36:15Z</time></trkpt>
<trkpt lat="29.57725" lon="94.466783">
<time>2016-10-08T02:36:16Z</time></trkpt>
<trkpt lat="29.577309" lon="94.466542">
<time>2016-10-08T02:36:17Z</time></trkpt>
<trkpt lat="29.577398" lon="94.466211">
<time>2016-10-08T02:36:18Z</time></trkpt>
<trkpt lat="29.577438" lon="94.46605">
<time>2016-10-08T02:36:19Z</time></trkpt>
<trkpt lat="29.577497" lon="94.46587">
<time>2016-10-08T02:36:20Z</time></trkpt>
<trkpt lat="29.577547" lon="94.465709">
<time>2016-10-08T02:36:21Z</time></trkpt>
<trkpt lat="29.577597" lon="94.465609">
<time>2016-10-08T02:36:22Z</time></trkpt>
<trkpt lat="29.577656" lon="94.465499">
<time>2016-10-08T02:36:23Z</time></trkpt>
<trkpt lat="29.577716" lon="94.465398">
<time>2016-10-08T02:36:24Z</time></trkpt>
<trkpt lat="29.577796" lon="94.465308">
<time>2016-10-08T02:36:25Z</time></trkpt>
<trkpt lat="29.577856" lon="94.465238">
<time>2016-10-08T02:36:26Z</time></trkpt>
<trkpt lat="29.577895" lon="94.465198">
<time>2016-10-08T02:36:27Z</time></trkpt>
<trkpt lat="29.577995" lon="94.465118">
<time>2016-10-08T02:36:28Z</time></trkpt>
<trkpt lat="29.578085" lon="94.465047">
<time>2016-10-08T02:36:29Z</time></trkpt>
<trkpt lat="29.578185" lon="94.464987">
<time>2016-10-08T02:36:30Z</time></trkpt>
<trkpt lat="29.578325" lon="94.464907">
<time>2016-10-08T02:36:31Z</time></trkpt>
<trkpt lat="29.578414" lon="94.464857">
<time>2016-10-08T02:36:32Z</time></trkpt>
<trkpt lat="29.578504" lon="94.464807">
<time>2016-10-08T02:36:33Z</time></trkpt>
<trkpt lat="29.578614" lon="94.464736">
<time>2016-10-08T02:36:34Z</time></trkpt>
<trkpt lat="29.578704" lon="94.464666">
<time>2016-10-08T02:36:35Z</time></trkpt>
<trkpt lat="29.578784" lon="94.464606">
<time>2016-10-08T02:36:36Z</time></trkpt>
<trkpt lat="29.578853" lon="94.464516">
<time>2016-10-08T02:36:37Z</time></trkpt>
<trkpt lat="29.578893" lon="94.464455">
<time>2016-10-08T02:36:38Z</time></trkpt>
<trkpt lat="29.578933" lon="94.464345">
<time>2016-10-08T02:36:39Z</time></trkpt>
<trkpt lat="29.578943" lon="94.464245">
<time>2016-10-08T02:36:40Z</time></trkpt>
<trkpt lat="29.578932" lon="94.464144">
<time>2016-10-08T02:36:41Z</time></trkpt>
<trkpt lat="29.578922" lon="94.464064">
<time>2016-10-08T02:36:42Z</time></trkpt>
<trkpt lat="29.578882" lon="94.463974">
<time>2016-10-08T02:36:43Z</time></trkpt>
<trkpt lat="29.578832" lon="94.463864">
<time>2016-10-08T02:36:44Z</time></trkpt>
<trkpt lat="29.578761" lon="94.463743">
<time>2016-10-08T02:36:45Z</time></trkpt>
<trkpt lat="29.578671" lon="94.463593">
<time>2016-10-08T02:36:46Z</time></trkpt>
<trkpt lat="29.578601" lon="94.463462">
<time>2016-10-08T02:36:47Z</time></trkpt>
<trkpt lat="29.578561" lon="94.463352">
<time>2016-10-08T02:36:48Z</time></trkpt>
<trkpt lat="29.57854" lon="94.463262">
<time>2016-10-08T02:36:49Z</time></trkpt>
<trkpt lat="29.57852" lon="94.463171">
<time>2016-10-08T02:36:50Z</time></trkpt>
<trkpt lat="29.57851" lon="94.463021">
<time>2016-10-08T02:36:51Z</time></trkpt>
<trkpt lat="29.578519" lon="94.462881">
<time>2016-10-08T02:36:52Z</time></trkpt>
<trkpt lat="29.578539" lon="94.46272">
<time>2016-10-08T02:36:53Z</time></trkpt>
<trkpt lat="29.578569" lon="94.46258">
<time>2016-10-08T02:36:54Z</time></trkpt>
<trkpt lat="29.578618" lon="94.462359">
<time>2016-10-08T02:36:55Z</time></trkpt>
<trkpt lat="29.578638" lon="94.462219">
<time>2016-10-08T02:36:56Z</time></trkpt>
<trkpt lat="29.578657" lon="94.462068">
<time>2016-10-08T02:36:57Z</time></trkpt>
<trkpt lat="29.578667" lon="94.461888">
<time>2016-10-08T02:36:58Z</time></trkpt>
<trkpt lat="29.578676" lon="94.461677">
<time>2016-10-08T02:36:59Z</time></trkpt>
<trkpt lat="29.578696" lon="94.461476">
<time>2016-10-08T02:37:00Z</time></trkpt>
<trkpt lat="29.578705" lon="94.461296">
<time>2016-10-08T02:37:01Z</time></trkpt>
<trkpt lat="29.578715" lon="94.461065">
<time>2016-10-08T02:37:02Z</time></trkpt>
<trkpt lat="29.578725" lon="94.460925">
<time>2016-10-08T02:37:03Z</time></trkpt>
<trkpt lat="29.578744" lon="94.460784">
<time>2016-10-08T02:37:04Z</time></trkpt>
<trkpt lat="29.578774" lon="94.460614">
<time>2016-10-08T02:37:05Z</time></trkpt>
<trkpt lat="29.578803" lon="94.460453">
<time>2016-10-08T02:37:06Z</time></trkpt>
<trkpt lat="29.578833" lon="94.460313">
<time>2016-10-08T02:37:07Z</time></trkpt>
<trkpt lat="29.578883" lon="94.460162">
<time>2016-10-08T02:37:08Z</time></trkpt>
<trkpt lat="29.578952" lon="94.459952">
<time>2016-10-08T02:37:09Z</time></trkpt>
<trkpt lat="29.579002" lon="94.459791">
<time>2016-10-08T02:37:10Z</time></trkpt>
<trkpt lat="29.579071" lon="94.459561">
<time>2016-10-08T02:37:11Z</time></trkpt>
<trkpt lat="29.579131" lon="94.45939">
<time>2016-10-08T02:37:12Z</time></trkpt>
<trkpt lat="29.57922" lon="94.459049">
<time>2016-10-08T02:37:13Z</time></trkpt>
<trkpt lat="29.579388" lon="94.458397">
<time>2016-10-08T02:37:14Z</time></trkpt>
<trkpt lat="29.579596" lon="94.457655">
<time>2016-10-08T02:37:15Z</time></trkpt>
<trkpt lat="29.579696" lon="94.457304">
<time>2016-10-08T02:37:16Z</time></trkpt>
<trkpt lat="29.579894" lon="94.456552">
<time>2016-10-08T02:37:17Z</time></trkpt>
<trkpt lat="29.580122" lon="94.455699">
<time>2016-10-08T02:37:18Z</time></trkpt>
<trkpt lat="29.58036" lon="94.454817">
<time>2016-10-08T02:37:19Z</time></trkpt>
<trkpt lat="29.580538" lon="94.454175">
<time>2016-10-08T02:37:20Z</time></trkpt>
<trkpt lat="29.580746" lon="94.453403">
<time>2016-10-08T02:37:21Z</time></trkpt>
<trkpt lat="29.580915" lon="94.452771">
<time>2016-10-08T02:37:22Z</time></trkpt>
<trkpt lat="29.580984" lon="94.452521">
<time>2016-10-08T02:37:23Z</time></trkpt>
<trkpt lat="29.581064" lon="94.4522">
<time>2016-10-08T02:37:24Z</time></trkpt>
<trkpt lat="29.581173" lon="94.451799">
<time>2016-10-08T02:37:25Z</time></trkpt>
<trkpt lat="29.581232" lon="94.451598">
<time>2016-10-08T02:37:26Z</time></trkpt>
<trkpt lat="29.581292" lon="94.451368">
<time>2016-10-08T02:37:27Z</time></trkpt>
<trkpt lat="29.581371" lon="94.451077">
<time>2016-10-08T02:37:28Z</time></trkpt>
<trkpt lat="29.581401" lon="94.450946">
<time>2016-10-08T02:37:29Z</time></trkpt>
<trkpt lat="29.581421" lon="94.450866">
<time>2016-10-08T02:37:30Z</time></trkpt>
<trkpt lat="29.581421" lon="94.450806">
<time>2016-10-08T02:37:31Z</time></trkpt>
<trkpt lat="29.581411" lon="94.450746">
<time>2016-10-08T02:37:32Z</time></trkpt>
<trkpt lat="29.58139" lon="94.450606">
<time>2016-10-08T02:37:33Z</time></trkpt>
<trkpt lat="29.58136" lon="94.450505">
<time>2016-10-08T02:37:34Z</time></trkpt>
<trkpt lat="29.58134" lon="94.450435">
<time>2016-10-08T02:37:35Z</time></trkpt>
<trkpt lat="29.58134" lon="94.450395">
<time>2016-10-08T02:37:36Z</time></trkpt>
<trkpt lat="29.58134" lon="94.450345">
<time>2016-10-08T02:37:37Z</time></trkpt>
<trkpt lat="29.58134" lon="94.450305">
<time>2016-10-08T02:37:38Z</time></trkpt>
<trkpt lat="29.58135" lon="94.450275">
<time>2016-10-08T02:37:39Z</time></trkpt>
<trkpt lat="29.581369" lon="94.450225">
<time>2016-10-08T02:37:40Z</time></trkpt>
<trkpt lat="29.581389" lon="94.450184">
<time>2016-10-08T02:37:41Z</time></trkpt>
<trkpt lat="29.581449" lon="94.450114">
<time>2016-10-08T02:37:42Z</time></trkpt>
<trkpt lat="29.581539" lon="94.450014">
<time>2016-10-08T02:37:43Z</time></trkpt>
<trkpt lat="29.581599" lon="94.449924">
<time>2016-10-08T02:37:44Z</time></trkpt>
<trkpt lat="29.581659" lon="94.449803">
<time>2016-10-08T02:37:45Z</time></trkpt>
<trkpt lat="29.581688" lon="94.449713">
<time>2016-10-08T02:37:46Z</time></trkpt>
<trkpt lat="29.581728" lon="94.449583">
<time>2016-10-08T02:37:47Z</time></trkpt>
<trkpt lat="29.581788" lon="94.449362">
<time>2016-10-08T02:37:48Z</time></trkpt>
<trkpt lat="29.581857" lon="94.449072">
<time>2016-10-08T02:37:49Z</time></trkpt>
<trkpt lat="29.581936" lon="94.448781">
<time>2016-10-08T02:37:50Z</time></trkpt>
<trkpt lat="29.581996" lon="94.44856">
<time>2016-10-08T02:37:51Z</time></trkpt>
<trkpt lat="29.582045" lon="94.44837">
<time>2016-10-08T02:37:52Z</time></trkpt>
<trkpt lat="29.582075" lon="94.448239">
<time>2016-10-08T02:37:53Z</time></trkpt>
<trkpt lat="29.582105" lon="94.448159">
<time>2016-10-08T02:37:54Z</time></trkpt>
<trkpt lat="29.582135" lon="94.448109">
<time>2016-10-08T02:37:55Z</time></trkpt>
<trkpt lat="29.582165" lon="94.448039">
<time>2016-10-08T02:37:56Z</time></trkpt>
<trkpt lat="29.582215" lon="94.447979">
<time>2016-10-08T02:37:57Z</time></trkpt>
<trkpt lat="29.582254" lon="94.447909">
<time>2016-10-08T02:37:58Z</time></trkpt>
<trkpt lat="29.582294" lon="94.447818">
<time>2016-10-08T02:37:59Z</time></trkpt>
<trkpt lat="29.582384" lon="94.447588">
<time>2016-10-08T02:38:00Z</time></trkpt>
<trkpt lat="29.582463" lon="94.447387">
<time>2016-10-08T02:38:01Z</time></trkpt>
<trkpt lat="29.582493" lon="94.447267">
<time>2016-10-08T02:38:02Z</time></trkpt>
<trkpt lat="29.582563" lon="94.447066">
<time>2016-10-08T02:38:03Z</time></trkpt>
<trkpt lat="29.582612" lon="94.446896">
<time>2016-10-08T02:38:04Z</time></trkpt>
<trkpt lat="29.582682" lon="94.446685">
<time>2016-10-08T02:38:05Z</time></trkpt>
<trkpt lat="29.582742" lon="94.446495">
<time>2016-10-08T02:38:06Z</time></trkpt>
<trkpt lat="29.582801" lon="94.446284">
<time>2016-10-08T02:38:07Z</time></trkpt>
<trkpt lat="29.582861" lon="94.446044">
<time>2016-10-08T02:38:08Z</time></trkpt>
<trkpt lat="29.58292" lon="94.445783">
<time>2016-10-08T02:38:09Z</time></trkpt>
<trkpt lat="29.58297" lon="94.445513">
<time>2016-10-08T02:38:10Z</time></trkpt>
<trkpt lat="29.583019" lon="94.445242">
<time>2016-10-08T02:38:11Z</time></trkpt>
<trkpt lat="29.583059" lon="94.445011">
<time>2016-10-08T02:38:12Z</time></trkpt>
<trkpt lat="29.583078" lon="94.444841">
<time>2016-10-08T02:38:13Z</time></trkpt>
<trkpt lat="29.583128" lon="94.44458">
<time>2016-10-08T02:38:14Z</time></trkpt>
<trkpt lat="29.583177" lon="94.44437">
<time>2016-10-08T02:38:15Z</time></trkpt>
<trkpt lat="29.583286" lon="94.443929">
<time>2016-10-08T02:38:16Z</time></trkpt>
<trkpt lat="29.583356" lon="94.443688">
<time>2016-10-08T02:38:17Z</time></trkpt>
<trkpt lat="29.583555" lon="94.442977">
<time>2016-10-08T02:38:18Z</time></trkpt>
<trkpt lat="29.583694" lon="94.442435">
<time>2016-10-08T02:38:19Z</time></trkpt>
<trkpt lat="29.583753" lon="94.442195">
<time>2016-10-08T02:38:20Z</time></trkpt>
<trkpt lat="29.583773" lon="94.442085">
<time>2016-10-08T02:38:21Z</time></trkpt>
<trkpt lat="29.583803" lon="94.441974">
<time>2016-10-08T02:38:22Z</time></trkpt>
<trkpt lat="29.583833" lon="94.441864">
<time>2016-10-08T02:38:23Z</time></trkpt>
<trkpt lat="29.583872" lon="94.441694">
<time>2016-10-08T02:38:24Z</time></trkpt>
<trkpt lat="29.583912" lon="94.441583">
<time>2016-10-08T02:38:25Z</time></trkpt>
<trkpt lat="29.583942" lon="94.441483">
<time>2016-10-08T02:38:26Z</time></trkpt>
<trkpt lat="29.583992" lon="94.441393">
<time>2016-10-08T02:38:27Z</time></trkpt>
<trkpt lat="29.584052" lon="94.441303">
<time>2016-10-08T02:38:28Z</time></trkpt>
<trkpt lat="29.584101" lon="94.441253">
<time>2016-10-08T02:38:29Z</time></trkpt>
<trkpt lat="29.584171" lon="94.441203">
<time>2016-10-08T02:38:30Z</time></trkpt>
<trkpt lat="29.584221" lon="94.441172">
<time>2016-10-08T02:38:31Z</time></trkpt>
<trkpt lat="29.584251" lon="94.441152">
<time>2016-10-08T02:38:32Z</time></trkpt>
<trkpt lat="29.584291" lon="94.441142">
<time>2016-10-08T02:38:33Z</time></trkpt>
<trkpt lat="29.584351" lon="94.441122">
<time>2016-10-08T02:38:34Z</time></trkpt>
<trkpt lat="29.584421" lon="94.441112">
<time>2016-10-08T02:38:35Z</time></trkpt>
<trkpt lat="29.584541" lon="94.441102">
<time>2016-10-08T02:38:36Z</time></trkpt>
<trkpt lat="29.584631" lon="94.441092">
<time>2016-10-08T02:38:37Z</time></trkpt>
<trkpt lat="29.584691" lon="94.441082">
<time>2016-10-08T02:38:38Z</time></trkpt>
<trkpt lat="29.584741" lon="94.441052">
<time>2016-10-08T02:38:39Z</time></trkpt>
<trkpt lat="29.584791" lon="94.441032">
<time>2016-10-08T02:38:40Z</time></trkpt>
<trkpt lat="29.584841" lon="94.441002">
<time>2016-10-08T02:38:41Z</time></trkpt>
<trkpt lat="29.584891" lon="94.440952">
<time>2016-10-08T02:38:42Z</time></trkpt>
<trkpt lat="29.58498" lon="94.440852">
<time>2016-10-08T02:38:43Z</time></trkpt>
<trkpt lat="29.58508" lon="94.440721">
<time>2016-10-08T02:38:44Z</time></trkpt>
<trkpt lat="29.58511" lon="94.440681">
<time>2016-10-08T02:38:45Z</time></trkpt>
<trkpt lat="29.58518" lon="94.440591">
<time>2016-10-08T02:38:46Z</time></trkpt>
<trkpt lat="29.58521" lon="94.440561">
<time>2016-10-08T02:38:47Z</time></trkpt>
<trkpt lat="29.58529" lon="94.440501">
<time>2016-10-08T02:38:48Z</time></trkpt>
<trkpt lat="29.58539" lon="94.440451">
<time>2016-10-08T02:38:49Z</time></trkpt>
<trkpt lat="29.58548" lon="94.440411">
<time>2016-10-08T02:38:50Z</time></trkpt>
<trkpt lat="29.585559" lon="94.440381">
<time>2016-10-08T02:38:51Z</time></trkpt>
<trkpt lat="29.585659" lon="94.440371">
<time>2016-10-08T02:38:52Z</time></trkpt>
<trkpt lat="29.585929" lon="94.440331">
<time>2016-10-08T02:38:53Z</time></trkpt>
<trkpt lat="29.586239" lon="94.44027">
<time>2016-10-08T02:38:54Z</time></trkpt>
<trkpt lat="29.586569" lon="94.44019">
<time>2016-10-08T02:38:55Z</time></trkpt>
<trkpt lat="29.586789" lon="94.44016">
<time>2016-10-08T02:38:56Z</time></trkpt>
<trkpt lat="29.586949" lon="94.44014">
<time>2016-10-08T02:38:57Z</time></trkpt>
<trkpt lat="29.587129" lon="94.44015">
<time>2016-10-08T02:38:58Z</time></trkpt>
<trkpt lat="29.587358" lon="94.44014">
<time>2016-10-08T02:38:59Z</time></trkpt>
<trkpt lat="29.587478" lon="94.44013">
<time>2016-10-08T02:39:00Z</time></trkpt>
<trkpt lat="29.587638" lon="94.44011">
<time>2016-10-08T02:39:01Z</time></trkpt>
<trkpt lat="29.587748" lon="94.4401">
<time>2016-10-08T02:39:02Z</time></trkpt>
<trkpt lat="29.587918" lon="94.44007">
<time>2016-10-08T02:39:03Z</time></trkpt>
<trkpt lat="29.588188" lon="94.44004">
<time>2016-10-08T02:39:04Z</time></trkpt>
<trkpt lat="29.588448" lon="94.44001">
<time>2016-10-08T02:39:05Z</time></trkpt>
<trkpt lat="29.588728" lon="94.43998">
<time>2016-10-08T02:39:06Z</time></trkpt>
<trkpt lat="29.588978" lon="94.43995">
<time>2016-10-08T02:39:07Z</time></trkpt>
<trkpt lat="29.589217" lon="94.43991">
<time>2016-10-08T02:39:08Z</time></trkpt>
<trkpt lat="29.589337" lon="94.4399">
<time>2016-10-08T02:39:09Z</time></trkpt>
<trkpt lat="29.589497" lon="94.439879">
<time>2016-10-08T02:39:10Z</time></trkpt>
<trkpt lat="29.589747" lon="94.439849">
<time>2016-10-08T02:39:11Z</time></trkpt>
<trkpt lat="29.589987" lon="94.439819">
<time>2016-10-08T02:39:12Z</time></trkpt>
<trkpt lat="29.590537" lon="94.439759">
<time>2016-10-08T02:39:13Z</time></trkpt>
<trkpt lat="29.590727" lon="94.439729">
<time>2016-10-08T02:39:14Z</time></trkpt>
<trkpt lat="29.590937" lon="94.439709">
<time>2016-10-08T02:39:15Z</time></trkpt>
<trkpt lat="29.591386" lon="94.439659">
<time>2016-10-08T02:39:16Z</time></trkpt>
<trkpt lat="29.591836" lon="94.439599">
<time>2016-10-08T02:39:17Z</time></trkpt>
<trkpt lat="29.592136" lon="94.439559">
<time>2016-10-08T02:39:18Z</time></trkpt>
<trkpt lat="29.592256" lon="94.439529">
<time>2016-10-08T02:39:19Z</time></trkpt>
<trkpt lat="29.592326" lon="94.439519">
<time>2016-10-08T02:39:20Z</time></trkpt>
<trkpt lat="29.592416" lon="94.439479">
<time>2016-10-08T02:39:21Z</time></trkpt>
<trkpt lat="29.592526" lon="94.439438">
<time>2016-10-08T02:39:22Z</time></trkpt>
<trkpt lat="29.592666" lon="94.439378">
<time>2016-10-08T02:39:23Z</time></trkpt>
<trkpt lat="29.592755" lon="94.439328">
<time>2016-10-08T02:39:24Z</time></trkpt>
<trkpt lat="29.593125" lon="94.439138">
<time>2016-10-08T02:39:25Z</time></trkpt>
<trkpt lat="29.593195" lon="94.439098">
<time>2016-10-08T02:39:26Z</time></trkpt>
<trkpt lat="29.593345" lon="94.439018">
<time>2016-10-08T02:39:27Z</time></trkpt>
<trkpt lat="29.593514" lon="94.438877">
<time>2016-10-08T02:39:28Z</time></trkpt>
<trkpt lat="29.593674" lon="94.438747">
<time>2016-10-08T02:39:29Z</time></trkpt>
<trkpt lat="29.593844" lon="94.438607">
<time>2016-10-08T02:39:30Z</time></trkpt>
<trkpt lat="29.593994" lon="94.438466">
<time>2016-10-08T02:39:31Z</time></trkpt>
<trkpt lat="29.594073" lon="94.438386">
<time>2016-10-08T02:39:32Z</time></trkpt>
<trkpt lat="29.594133" lon="94.438306">
<time>2016-10-08T02:39:33Z</time></trkpt>
<trkpt lat="29.594243" lon="94.438156">
<time>2016-10-08T02:39:34Z</time></trkpt>
<trkpt lat="29.594383" lon="94.437945">
<time>2016-10-08T02:39:35Z</time></trkpt>
<trkpt lat="29.594632" lon="94.437554">
<time>2016-10-08T02:39:36Z</time></trkpt>
<trkpt lat="29.594732" lon="94.437384">
<time>2016-10-08T02:39:37Z</time></trkpt>
<trkpt lat="29.594841" lon="94.437184">
<time>2016-10-08T02:39:38Z</time></trkpt>
<trkpt lat="29.59514" lon="94.436622">
<time>2016-10-08T02:39:39Z</time></trkpt>
<trkpt lat="29.595758" lon="94.43544">
<time>2016-10-08T02:39:40Z</time></trkpt>
<trkpt lat="29.596167" lon="94.434649">
<time>2016-10-08T02:39:41Z</time></trkpt>
<trkpt lat="29.596486" lon="94.434047">
<time>2016-10-08T02:39:42Z</time></trkpt>
<trkpt lat="29.596795" lon="94.433456">
<time>2016-10-08T02:39:43Z</time></trkpt>
<trkpt lat="29.596905" lon="94.433236">
<time>2016-10-08T02:39:44Z</time></trkpt>
<trkpt lat="29.597014" lon="94.432985">
<time>2016-10-08T02:39:45Z</time></trkpt>
<trkpt lat="29.597124" lon="94.432695">
<time>2016-10-08T02:39:46Z</time></trkpt>
<trkpt lat="29.597323" lon="94.432174">
<time>2016-10-08T02:39:47Z</time></trkpt>
<trkpt lat="29.597363" lon="94.432074">
<time>2016-10-08T02:39:48Z</time></trkpt>
<trkpt lat="29.597443" lon="94.431863">
<time>2016-10-08T02:39:49Z</time></trkpt>
<trkpt lat="29.597502" lon="94.431703">
<time>2016-10-08T02:39:50Z</time></trkpt>
<trkpt lat="29.597562" lon="94.431563">
<time>2016-10-08T02:39:51Z</time></trkpt>
<trkpt lat="29.597652" lon="94.431412">
<time>2016-10-08T02:39:52Z</time></trkpt>
<trkpt lat="29.597742" lon="94.431292">
<time>2016-10-08T02:39:53Z</time></trkpt>
<trkpt lat="29.597882" lon="94.431122">
<time>2016-10-08T02:39:54Z</time></trkpt>
<trkpt lat="29.598231" lon="94.430781">
<time>2016-10-08T02:39:55Z</time></trkpt>
<trkpt lat="29.598371" lon="94.430631">
<time>2016-10-08T02:39:56Z</time></trkpt>
<trkpt lat="29.59859" lon="94.430411">
<time>2016-10-08T02:39:57Z</time></trkpt>
<trkpt lat="29.59873" lon="94.43026">
<time>2016-10-08T02:39:58Z</time></trkpt>
<trkpt lat="29.599369" lon="94.429629">
<time>2016-10-08T02:39:59Z</time></trkpt>
<trkpt lat="29.599449" lon="94.429549">
<time>2016-10-08T02:40:00Z</time></trkpt>
<trkpt lat="29.599669" lon="94.429329">
<time>2016-10-08T02:40:01Z</time></trkpt>
<trkpt lat="29.599958" lon="94.429028">
<time>2016-10-08T02:40:02Z</time></trkpt>
<trkpt lat="29.600038" lon="94.428938">
<time>2016-10-08T02:40:03Z</time></trkpt>
<trkpt lat="29.600168" lon="94.428818">
<time>2016-10-08T02:40:04Z</time></trkpt>
<trkpt lat="29.600258" lon="94.428718">
<time>2016-10-08T02:40:05Z</time></trkpt>
<trkpt lat="29.600338" lon="94.428628">
<time>2016-10-08T02:40:06Z</time></trkpt>
<trkpt lat="29.600427" lon="94.428527">
<time>2016-10-08T02:40:07Z</time></trkpt>
<trkpt lat="29.600507" lon="94.428417">
<time>2016-10-08T02:40:08Z</time></trkpt>
<trkpt lat="29.600617" lon="94.428227">
<time>2016-10-08T02:40:09Z</time></trkpt>
<trkpt lat="29.600697" lon="94.428077">
<time>2016-10-08T02:40:10Z</time></trkpt>
<trkpt lat="29.600767" lon="94.427926">
<time>2016-10-08T02:40:11Z</time></trkpt>
<trkpt lat="29.600856" lon="94.427736">
<time>2016-10-08T02:40:12Z</time></trkpt>
<trkpt lat="29.600906" lon="94.427586">
<time>2016-10-08T02:40:13Z</time></trkpt>
<trkpt lat="29.600976" lon="94.427365">
<time>2016-10-08T02:40:14Z</time></trkpt>
<trkpt lat="29.601036" lon="94.427135">
<time>2016-10-08T02:40:15Z</time></trkpt>
<trkpt lat="29.601055" lon="94.426995">
<time>2016-10-08T02:40:16Z</time></trkpt>
<trkpt lat="29.601075" lon="94.426815">
<time>2016-10-08T02:40:17Z</time></trkpt>
<trkpt lat="29.601075" lon="94.426684">
<time>2016-10-08T02:40:18Z</time></trkpt>
<trkpt lat="29.601065" lon="94.426444">
<time>2016-10-08T02:40:19Z</time></trkpt>
<trkpt lat="29.601055" lon="94.426314">
<time>2016-10-08T02:40:20Z</time></trkpt>
<trkpt lat="29.601024" lon="94.425983">
<time>2016-10-08T02:40:21Z</time></trkpt>
<trkpt lat="29.600984" lon="94.425553">
<time>2016-10-08T02:40:22Z</time></trkpt>
<trkpt lat="29.600943" lon="94.425172">
<time>2016-10-08T02:40:23Z</time></trkpt>
<trkpt lat="29.600903" lon="94.424842">
<time>2016-10-08T02:40:24Z</time></trkpt>
<trkpt lat="29.600863" lon="94.424411">
<time>2016-10-08T02:40:25Z</time></trkpt>
<trkpt lat="29.600822" lon="94.42405">
<time>2016-10-08T02:40:26Z</time></trkpt>
<trkpt lat="29.600731" lon="94.423199">
<time>2016-10-08T02:40:27Z</time></trkpt>
<trkpt lat="29.600701" lon="94.422889">
<time>2016-10-08T02:40:28Z</time></trkpt>
<trkpt lat="29.600661" lon="94.422548">
<time>2016-10-08T02:40:29Z</time></trkpt>
<trkpt lat="29.600641" lon="94.422338">
<time>2016-10-08T02:40:30Z</time></trkpt>
<trkpt lat="29.60061" lon="94.422008">
<time>2016-10-08T02:40:31Z</time></trkpt>
<trkpt lat="29.60056" lon="94.421587">
<time>2016-10-08T02:40:32Z</time></trkpt>
<trkpt lat="29.60054" lon="94.421367">
<time>2016-10-08T02:40:33Z</time></trkpt>
<trkpt lat="29.600499" lon="94.420996">
<time>2016-10-08T02:40:34Z</time></trkpt>
<trkpt lat="29.600479" lon="94.420746">
<time>2016-10-08T02:40:35Z</time></trkpt>
<trkpt lat="29.600449" lon="94.420536">
<time>2016-10-08T02:40:36Z</time></trkpt>
<trkpt lat="29.600409" lon="94.420105">
<time>2016-10-08T02:40:37Z</time></trkpt>
<trkpt lat="29.600358" lon="94.419705">
<time>2016-10-08T02:40:38Z</time></trkpt>
<trkpt lat="29.600338" lon="94.419484">
<time>2016-10-08T02:40:39Z</time></trkpt>
<trkpt lat="29.600318" lon="94.419294">
<time>2016-10-08T02:40:40Z</time></trkpt>
<trkpt lat="29.600298" lon="94.419104">
<time>2016-10-08T02:40:41Z</time></trkpt>
<trkpt lat="29.600298" lon="94.418984">
<time>2016-10-08T02:40:42Z</time></trkpt>
<trkpt lat="29.600308" lon="94.418894">
<time>2016-10-08T02:40:43Z</time></trkpt>
<trkpt lat="29.600318" lon="94.418824">
<time>2016-10-08T02:40:44Z</time></trkpt>
<trkpt lat="29.600348" lon="94.418754">
<time>2016-10-08T02:40:45Z</time></trkpt>
<trkpt lat="29.600378" lon="94.418683">
<time>2016-10-08T02:40:46Z</time></trkpt>
<trkpt lat="29.600418" lon="94.418623">
<time>2016-10-08T02:40:47Z</time></trkpt>
<trkpt lat="29.600467" lon="94.418563">
<time>2016-10-08T02:40:48Z</time></trkpt>
<trkpt lat="29.600527" lon="94.418513">
<time>2016-10-08T02:40:49Z</time></trkpt>
<trkpt lat="29.600657" lon="94.418413">
<time>2016-10-08T02:40:50Z</time></trkpt>
<trkpt lat="29.600707" lon="94.418383">
<time>2016-10-08T02:40:51Z</time></trkpt>
<trkpt lat="29.600837" lon="94.418273">
<time>2016-10-08T02:40:52Z</time></trkpt>
<trkpt lat="29.600977" lon="94.418143">
<time>2016-10-08T02:40:53Z</time></trkpt>
<trkpt lat="29.601037" lon="94.418073">
<time>2016-10-08T02:40:54Z</time></trkpt>
<trkpt lat="29.601077" lon="94.418033">
<time>2016-10-08T02:40:55Z</time></trkpt>
<trkpt lat="29.601157" lon="94.417913">
<time>2016-10-08T02:40:56Z</time></trkpt>
<trkpt lat="29.601426" lon="94.417542">
<time>2016-10-08T02:40:57Z</time></trkpt>
<trkpt lat="29.601856" lon="94.416962">
<time>2016-10-08T02:40:58Z</time></trkpt>
<trkpt lat="29.601946" lon="94.416841">
<time>2016-10-08T02:40:59Z</time></trkpt>
<trkpt lat="29.602006" lon="94.416761">
<time>2016-10-08T02:41:00Z</time></trkpt>
<trkpt lat="29.602126" lon="94.416641">
<time>2016-10-08T02:41:01Z</time></trkpt>
<trkpt lat="29.602235" lon="94.416541">
<time>2016-10-08T02:41:02Z</time></trkpt>
<trkpt lat="29.602355" lon="94.416451">
<time>2016-10-08T02:41:03Z</time></trkpt>
<trkpt lat="29.602525" lon="94.416311">
<time>2016-10-08T02:41:04Z</time></trkpt>
<trkpt lat="29.602585" lon="94.416251">
<time>2016-10-08T02:41:05Z</time></trkpt>
<trkpt lat="29.602645" lon="94.416181">
<time>2016-10-08T02:41:06Z</time></trkpt>
<trkpt lat="29.602675" lon="94.416131">
<time>2016-10-08T02:41:07Z</time></trkpt>
<trkpt lat="29.602695" lon="94.416101">
<time>2016-10-08T02:41:08Z</time></trkpt>
<trkpt lat="29.602715" lon="94.416051">
<time>2016-10-08T02:41:09Z</time></trkpt>
<trkpt lat="29.602735" lon="94.416">
<time>2016-10-08T02:41:10Z</time></trkpt>
<trkpt lat="29.602745" lon="94.41594">
<time>2016-10-08T02:41:11Z</time></trkpt>
<trkpt lat="29.602755" lon="94.41592">
<time>2016-10-08T02:41:12Z</time></trkpt>
<trkpt lat="29.602755" lon="94.4159">
<time>2016-10-08T02:41:13Z</time></trkpt>
<trkpt lat="29.602765" lon="94.41586">
<time>2016-10-08T02:41:14Z</time></trkpt>
<trkpt lat="29.602765" lon="94.4158">
<time>2016-10-08T02:41:15Z</time></trkpt>
<trkpt lat="29.602765" lon="94.41565">
<time>2016-10-08T02:41:16Z</time></trkpt>
<trkpt lat="29.602755" lon="94.41542">
<time>2016-10-08T02:41:17Z</time></trkpt>
<trkpt lat="29.602734" lon="94.41509">
<time>2016-10-08T02:41:18Z</time></trkpt>
<trkpt lat="29.602714" lon="94.414589">
<time>2016-10-08T02:41:19Z</time></trkpt>
<trkpt lat="29.602714" lon="94.414489">
<time>2016-10-08T02:41:20Z</time></trkpt>
<trkpt lat="29.602724" lon="94.414389">
<time>2016-10-08T02:41:21Z</time></trkpt>
<trkpt lat="29.602724" lon="94.414329">
<time>2016-10-08T02:41:22Z</time></trkpt>
<trkpt lat="29.602744" lon="94.414259">
<time>2016-10-08T02:41:23Z</time></trkpt>
<trkpt lat="29.602764" lon="94.414169">
<time>2016-10-08T02:41:24Z</time></trkpt>
<trkpt lat="29.602814" lon="94.414039">
<time>2016-10-08T02:41:25Z</time></trkpt>
<trkpt lat="29.602983" lon="94.413668">
<time>2016-10-08T02:41:26Z</time></trkpt>
<trkpt lat="29.603243" lon="94.413058">
<time>2016-10-08T02:41:27Z</time></trkpt>
<trkpt lat="29.603353" lon="94.412817">
<time>2016-10-08T02:41:28Z</time></trkpt>
<trkpt lat="29.603393" lon="94.412677">
<time>2016-10-08T02:41:29Z</time></trkpt>
<trkpt lat="29.603443" lon="94.412517">
<time>2016-10-08T02:41:30Z</time></trkpt>
<trkpt lat="29.603493" lon="94.412297">
<time>2016-10-08T02:41:31Z</time></trkpt>
<trkpt lat="29.603522" lon="94.412107">
<time>2016-10-08T02:41:32Z</time></trkpt>
<trkpt lat="29.603542" lon="94.412007">
<time>2016-10-08T02:41:33Z</time></trkpt>
<trkpt lat="29.603572" lon="94.411887">
<time>2016-10-08T02:41:34Z</time></trkpt>
<trkpt lat="29.603592" lon="94.411797">
<time>2016-10-08T02:41:35Z</time></trkpt>
<trkpt lat="29.603632" lon="94.411696">
<time>2016-10-08T02:41:36Z</time></trkpt>
<trkpt lat="29.603682" lon="94.411596">
<time>2016-10-08T02:41:37Z</time></trkpt>
<trkpt lat="29.603752" lon="94.411476">
<time>2016-10-08T02:41:38Z</time></trkpt>
<trkpt lat="29.603842" lon="94.411336">
<time>2016-10-08T02:41:39Z</time></trkpt>
<trkpt lat="29.603872" lon="94.411266">
<time>2016-10-08T02:41:40Z</time></trkpt>
<trkpt lat="29.603912" lon="94.411186">
<time>2016-10-08T02:41:41Z</time></trkpt>
<trkpt lat="29.603942" lon="94.411116">
<time>2016-10-08T02:41:42Z</time></trkpt>
<trkpt lat="29.603962" lon="94.411036">
<time>2016-10-08T02:41:43Z</time></trkpt>
<trkpt lat="29.603982" lon="94.410956">
<time>2016-10-08T02:41:44Z</time></trkpt>
<trkpt lat="29.604002" lon="94.410856">
<time>2016-10-08T02:41:45Z</time></trkpt>
<trkpt lat="29.604012" lon="94.410716">
<time>2016-10-08T02:41:46Z</time></trkpt>
<trkpt lat="29.604022" lon="94.410536">
<time>2016-10-08T02:41:47Z</time></trkpt>
<trkpt lat="29.604051" lon="94.410175">
<time>2016-10-08T02:41:48Z</time></trkpt>
<trkpt lat="29.604061" lon="94.410025">
<time>2016-10-08T02:41:49Z</time></trkpt>
<trkpt lat="29.604081" lon="94.409925">
<time>2016-10-08T02:41:50Z</time></trkpt>
<trkpt lat="29.604101" lon="94.409835">
<time>2016-10-08T02:41:51Z</time></trkpt>
<trkpt lat="29.604131" lon="94.409745">
<time>2016-10-08T02:41:52Z</time></trkpt>
<trkpt lat="29.604161" lon="94.409675">
<time>2016-10-08T02:41:53Z</time></trkpt>
<trkpt lat="29.604211" lon="94.409575">
<time>2016-10-08T02:41:54Z</time></trkpt>
<trkpt lat="29.604271" lon="94.409465">
<time>2016-10-08T02:41:55Z</time></trkpt>
<trkpt lat="29.604401" lon="94.409245">
<time>2016-10-08T02:41:56Z</time></trkpt>
<trkpt lat="29.604531" lon="94.409004">
<time>2016-10-08T02:41:57Z</time></trkpt>
<trkpt lat="29.604661" lon="94.408774">
<time>2016-10-08T02:41:58Z</time></trkpt>
<trkpt lat="29.604721" lon="94.408674">
<time>2016-10-08T02:41:59Z</time></trkpt>
<trkpt lat="29.604801" lon="94.408564">
<time>2016-10-08T02:42:00Z</time></trkpt>
<trkpt lat="29.604881" lon="94.408454">
<time>2016-10-08T02:42:01Z</time></trkpt>
<trkpt lat="29.604961" lon="94.408364">
<time>2016-10-08T02:42:02Z</time></trkpt>
<trkpt lat="29.60507" lon="94.408194">
<time>2016-10-08T02:42:03Z</time></trkpt>
<trkpt lat="29.60513" lon="94.408114">
<time>2016-10-08T02:42:04Z</time></trkpt>
<trkpt lat="29.60519" lon="94.408004">
<time>2016-10-08T02:42:05Z</time></trkpt>
<trkpt lat="29.60522" lon="94.407934">
<time>2016-10-08T02:42:06Z</time></trkpt>
<trkpt lat="29.60526" lon="94.407824">
<time>2016-10-08T02:42:07Z</time></trkpt>
<trkpt lat="29.60528" lon="94.407734">
<time>2016-10-08T02:42:08Z</time></trkpt>
<trkpt lat="29.60531" lon="94.407584">
<time>2016-10-08T02:42:09Z</time></trkpt>
<trkpt lat="29.60533" lon="94.407463">
<time>2016-10-08T02:42:10Z</time></trkpt>
<trkpt lat="29.60536" lon="94.407233">
<time>2016-10-08T02:42:11Z</time></trkpt>
<trkpt lat="29.60538" lon="94.407023">
<time>2016-10-08T02:42:12Z</time></trkpt>
<trkpt lat="29.6054" lon="94.406833">
<time>2016-10-08T02:42:13Z</time></trkpt>
<trkpt lat="29.60543" lon="94.406593">
<time>2016-10-08T02:42:14Z</time></trkpt>
<trkpt lat="29.60544" lon="94.406503">
<time>2016-10-08T02:42:15Z</time></trkpt>
<trkpt lat="29.60546" lon="94.406403">
<time>2016-10-08T02:42:16Z</time></trkpt>
<trkpt lat="29.60549" lon="94.406333">
<time>2016-10-08T02:42:17Z</time></trkpt>
<trkpt lat="29.60551" lon="94.406263">
<time>2016-10-08T02:42:18Z</time></trkpt>
<trkpt lat="29.60555" lon="94.406153">
<time>2016-10-08T02:42:19Z</time></trkpt>
<trkpt lat="29.60562" lon="94.405993">
<time>2016-10-08T02:42:20Z</time></trkpt>
<trkpt lat="29.60571" lon="94.405803">
<time>2016-10-08T02:42:21Z</time></trkpt>
<trkpt lat="29.60576" lon="94.405702">
<time>2016-10-08T02:42:22Z</time></trkpt>
<trkpt lat="29.60583" lon="94.405552">
<time>2016-10-08T02:42:23Z</time></trkpt>
<trkpt lat="29.60591" lon="94.405402">
<time>2016-10-08T02:42:24Z</time></trkpt>
<trkpt lat="29.605949" lon="94.405322">
<time>2016-10-08T02:42:25Z</time></trkpt>
<trkpt lat="29.606129" lon="94.405032">
<time>2016-10-08T02:42:26Z</time></trkpt>
<trkpt lat="29.606309" lon="94.404722">
<time>2016-10-08T02:42:27Z</time></trkpt>
<trkpt lat="29.606449" lon="94.404482">
<time>2016-10-08T02:42:28Z</time></trkpt>
<trkpt lat="29.606499" lon="94.404402">
<time>2016-10-08T02:42:29Z</time></trkpt>
<trkpt lat="29.606569" lon="94.404302">
<time>2016-10-08T02:42:30Z</time></trkpt>
<trkpt lat="29.606669" lon="94.404182">
<time>2016-10-08T02:42:31Z</time></trkpt>
<trkpt lat="29.606739" lon="94.404122">
<time>2016-10-08T02:42:32Z</time></trkpt>
<trkpt lat="29.606789" lon="94.404092">
<time>2016-10-08T02:42:33Z</time></trkpt>
<trkpt lat="29.606829" lon="94.404062">
<time>2016-10-08T02:42:34Z</time></trkpt>
<trkpt lat="29.606889" lon="94.404042">
<time>2016-10-08T02:42:35Z</time></trkpt>
<trkpt lat="29.606939" lon="94.404022">
<time>2016-10-08T02:42:36Z</time></trkpt>
<trkpt lat="29.607019" lon="94.404002">
<time>2016-10-08T02:42:37Z</time></trkpt>
<trkpt lat="29.607059" lon="94.404002">
<time>2016-10-08T02:42:38Z</time></trkpt>
<trkpt lat="29.607149" lon="94.404002">
<time>2016-10-08T02:42:39Z</time></trkpt>
<trkpt lat="29.607219" lon="94.404002">
<time>2016-10-08T02:42:40Z</time></trkpt>
<trkpt lat="29.607369" lon="94.404022">
<time>2016-10-08T02:42:41Z</time></trkpt>
<trkpt lat="29.607529" lon="94.404042">
<time>2016-10-08T02:42:42Z</time></trkpt>
<trkpt lat="29.607629" lon="94.404052">
<time>2016-10-08T02:42:43Z</time></trkpt>
<trkpt lat="29.607929" lon="94.404082">
<time>2016-10-08T02:42:44Z</time></trkpt>
<trkpt lat="29.608009" lon="94.404082">
<time>2016-10-08T02:42:45Z</time></trkpt>
<trkpt lat="29.608079" lon="94.404082">
<time>2016-10-08T02:42:46Z</time></trkpt>
<trkpt lat="29.608179" lon="94.404072">
<time>2016-10-08T02:42:47Z</time></trkpt>
<trkpt lat="29.608269" lon="94.404052">
<time>2016-10-08T02:42:48Z</time></trkpt>
<trkpt lat="29.608349" lon="94.404032">
<time>2016-10-08T02:42:49Z</time></trkpt>
<trkpt lat="29.608539" lon="94.403972">
<time>2016-10-08T02:42:50Z</time></trkpt>
<trkpt lat="29.608858" lon="94.403862">
<time>2016-10-08T02:42:51Z</time></trkpt>
<trkpt lat="29.608978" lon="94.403832">
<time>2016-10-08T02:42:52Z</time></trkpt>
<trkpt lat="29.609078" lon="94.403811">
<time>2016-10-08T02:42:53Z</time></trkpt>
<trkpt lat="29.609118" lon="94.403811">
<time>2016-10-08T02:42:54Z</time></trkpt>
<trkpt lat="29.609198" lon="94.403821">
<time>2016-10-08T02:42:55Z</time></trkpt>
<trkpt lat="29.609248" lon="94.403832">
<time>2016-10-08T02:42:56Z</time></trkpt>
<trkpt lat="29.609318" lon="94.403852">
<time>2016-10-08T02:42:57Z</time></trkpt>
<trkpt lat="29.609378" lon="94.403882">
<time>2016-10-08T02:42:58Z</time></trkpt>
<trkpt lat="29.609438" lon="94.403912">
<time>2016-10-08T02:42:59Z</time></trkpt>
<trkpt lat="29.609508" lon="94.403942">
<time>2016-10-08T02:43:00Z</time></trkpt>
<trkpt lat="29.609638" lon="94.404022">
<time>2016-10-08T02:43:01Z</time></trkpt>
<trkpt lat="29.609738" lon="94.404082">
<time>2016-10-08T02:43:02Z</time></trkpt>
<trkpt lat="29.609788" lon="94.404102">
<time>2016-10-08T02:43:03Z</time></trkpt>
<trkpt lat="29.609848" lon="94.404122">
<time>2016-10-08T02:43:04Z</time></trkpt>
<trkpt lat="29.609918" lon="94.404142">
<time>2016-10-08T02:43:05Z</time></trkpt>
<trkpt lat="29.610008" lon="94.404152">
<time>2016-10-08T02:43:06Z</time></trkpt>
<trkpt lat="29.610048" lon="94.404162">
<time>2016-10-08T02:43:07Z</time></trkpt>
<trkpt lat="29.610128" lon="94.404152">
<time>2016-10-08T02:43:08Z</time></trkpt>
<trkpt lat="29.610198" lon="94.404142">
<time>2016-10-08T02:43:09Z</time></trkpt>
<trkpt lat="29.610248" lon="94.404132">
<time>2016-10-08T02:43:10Z</time></trkpt>
<trkpt lat="29.610348" lon="94.404102">
<time>2016-10-08T02:43:11Z</time></trkpt>
<trkpt lat="29.610458" lon="94.404052">
<time>2016-10-08T02:43:12Z</time></trkpt>
<trkpt lat="29.610578" lon="94.403982">
<time>2016-10-08T02:43:13Z</time></trkpt>
<trkpt lat="29.610658" lon="94.403912">
<time>2016-10-08T02:43:14Z</time></trkpt>
<trkpt lat="29.610728" lon="94.403861">
<time>2016-10-08T02:43:15Z</time></trkpt>
<trkpt lat="29.610958" lon="94.403661">
<time>2016-10-08T02:43:16Z</time></trkpt>
<trkpt lat="29.611458" lon="94.403151">
<time>2016-10-08T02:43:17Z</time></trkpt>
<trkpt lat="29.611827" lon="94.402811">
<time>2016-10-08T02:43:18Z</time></trkpt>
<trkpt lat="29.612177" lon="94.402491">
<time>2016-10-08T02:43:19Z</time></trkpt>
<trkpt lat="29.612607" lon="94.402071">
<time>2016-10-08T02:43:20Z</time></trkpt>
<trkpt lat="29.613367" lon="94.401331">
<time>2016-10-08T02:43:21Z</time></trkpt>
<trkpt lat="29.613677" lon="94.40104">
<time>2016-10-08T02:43:22Z</time></trkpt>
<trkpt lat="29.614197" lon="94.40055">
<time>2016-10-08T02:43:23Z</time></trkpt>
<trkpt lat="29.614557" lon="94.4002">
<time>2016-10-08T02:43:24Z</time></trkpt>
<trkpt lat="29.614877" lon="94.3999">
<time>2016-10-08T02:43:25Z</time></trkpt>
<trkpt lat="29.615107" lon="94.39967">
<time>2016-10-08T02:43:26Z</time></trkpt>
<trkpt lat="29.615316" lon="94.39948">
<time>2016-10-08T02:43:27Z</time></trkpt>
<trkpt lat="29.615726" lon="94.39909">
<time>2016-10-08T02:43:28Z</time></trkpt>
<trkpt lat="29.616036" lon="94.39879">
<time>2016-10-08T02:43:29Z</time></trkpt>
<trkpt lat="29.616716" lon="94.39815">
<time>2016-10-08T02:43:30Z</time></trkpt>
<trkpt lat="29.617366" lon="94.39759">
<time>2016-10-08T02:43:31Z</time></trkpt>
<trkpt lat="29.617916" lon="94.39715">
<time>2016-10-08T02:43:32Z</time></trkpt>
<trkpt lat="29.618336" lon="94.39682">
<time>2016-10-08T02:43:33Z</time></trkpt>
<trkpt lat="29.618656" lon="94.39655">
<time>2016-10-08T02:43:34Z</time></trkpt>
<trkpt lat="29.618846" lon="94.3964">
<time>2016-10-08T02:43:35Z</time></trkpt>
<trkpt lat="29.619306" lon="94.396029">
<time>2016-10-08T02:43:36Z</time></trkpt>
<trkpt lat="29.619696" lon="94.395709">
<time>2016-10-08T02:43:37Z</time></trkpt>
<trkpt lat="29.620396" lon="94.395149">
<time>2016-10-08T02:43:38Z</time></trkpt>
<trkpt lat="29.621036" lon="94.394629">
<time>2016-10-08T02:43:39Z</time></trkpt>
<trkpt lat="29.621246" lon="94.394459">
<time>2016-10-08T02:43:40Z</time></trkpt>
<trkpt lat="29.621576" lon="94.394189">
<time>2016-10-08T02:43:41Z</time></trkpt>
<trkpt lat="29.621696" lon="94.394089">
<time>2016-10-08T02:43:42Z</time></trkpt>
<trkpt lat="29.622276" lon="94.393619">
<time>2016-10-08T02:43:43Z</time></trkpt>
<trkpt lat="29.622906" lon="94.393109">
<time>2016-10-08T02:43:44Z</time></trkpt>
<trkpt lat="29.623216" lon="94.39287">
<time>2016-10-08T02:43:45Z</time></trkpt>
<trkpt lat="29.623576" lon="94.39258">
<time>2016-10-08T02:43:46Z</time></trkpt>
<trkpt lat="29.623696" lon="94.39247">
<time>2016-10-08T02:43:47Z</time></trkpt>
<trkpt lat="29.623976" lon="94.39225">
<time>2016-10-08T02:43:48Z</time></trkpt>
<trkpt lat="29.624886" lon="94.39151">
<time>2016-10-08T02:43:49Z</time></trkpt>
<trkpt lat="29.625406" lon="94.39109">
<time>2016-10-08T02:43:50Z</time></trkpt>
<trkpt lat="29.625686" lon="94.39086">
<time>2016-10-08T02:43:51Z</time></trkpt>
<trkpt lat="29.626086" lon="94.39054">
<time>2016-10-08T02:43:52Z</time></trkpt>
<trkpt lat="29.626596" lon="94.39013">
<time>2016-10-08T02:43:53Z</time></trkpt>
<trkpt lat="29.626916" lon="94.38987">
<time>2016-10-08T02:43:54Z</time></trkpt>
<trkpt lat="29.626966" lon="94.38983">
<time>2016-10-08T02:43:55Z</time></trkpt>
<trkpt lat="29.627306" lon="94.38955">
<time>2016-10-08T02:43:56Z</time></trkpt>
<trkpt lat="29.627436" lon="94.38945">
<time>2016-10-08T02:43:57Z</time></trkpt>
<trkpt lat="29.627546" lon="94.38936">
<time>2016-10-08T02:43:58Z</time></trkpt>
<trkpt lat="29.627626" lon="94.38927">
<time>2016-10-08T02:43:59Z</time></trkpt>
<trkpt lat="29.627726" lon="94.38916">
<time>2016-10-08T02:44:00Z</time></trkpt>
<trkpt lat="29.627796" lon="94.38908">
<time>2016-10-08T02:44:01Z</time></trkpt>
<trkpt lat="29.627866" lon="94.38898">
<time>2016-10-08T02:44:02Z</time></trkpt>
<trkpt lat="29.627936" lon="94.38888">
<time>2016-10-08T02:44:03Z</time></trkpt>
<trkpt lat="29.628056" lon="94.38868">
<time>2016-10-08T02:44:04Z</time></trkpt>
<trkpt lat="29.628176" lon="94.38848">
<time>2016-10-08T02:44:05Z</time></trkpt>
<trkpt lat="29.628517" lon="94.38795">
<time>2016-10-08T02:44:06Z</time></trkpt>
<trkpt lat="29.628707" lon="94.387641">
<time>2016-10-08T02:44:07Z</time></trkpt>
<trkpt lat="29.628947" lon="94.387241">
<time>2016-10-08T02:44:08Z</time></trkpt>
<trkpt lat="29.629047" lon="94.387071">
<time>2016-10-08T02:44:09Z</time></trkpt>
<trkpt lat="29.629117" lon="94.386981">
<time>2016-10-08T02:44:10Z</time></trkpt>
<trkpt lat="29.629177" lon="94.386911">
<time>2016-10-08T02:44:11Z</time></trkpt>
<trkpt lat="29.629237" lon="94.386851">
<time>2016-10-08T02:44:12Z</time></trkpt>
<trkpt lat="29.629277" lon="94.386821">
<time>2016-10-08T02:44:13Z</time></trkpt>
<trkpt lat="29.629347" lon="94.386771">
<time>2016-10-08T02:44:14Z</time></trkpt>
<trkpt lat="29.629427" lon="94.386711">
<time>2016-10-08T02:44:15Z</time></trkpt>
<trkpt lat="29.629507" lon="94.386671">
<time>2016-10-08T02:44:16Z</time></trkpt>
<trkpt lat="29.629597" lon="94.386631">
<time>2016-10-08T02:44:17Z</time></trkpt>
<trkpt lat="29.629747" lon="94.386571">
<time>2016-10-08T02:44:18Z</time></trkpt>
<trkpt lat="29.629837" lon="94.386541">
<time>2016-10-08T02:44:19Z</time></trkpt>
<trkpt lat="29.629927" lon="94.386511">
<time>2016-10-08T02:44:20Z</time></trkpt>
<trkpt lat="29.630077" lon="94.386441">
<time>2016-10-08T02:44:21Z</time></trkpt>
<trkpt lat="29.630237" lon="94.386391">
<time>2016-10-08T02:44:22Z</time></trkpt>
<trkpt lat="29.630387" lon="94.386331">
<time>2016-10-08T02:44:23Z</time></trkpt>
<trkpt lat="29.630497" lon="94.386291">
<time>2016-10-08T02:44:24Z</time></trkpt>
<trkpt lat="29.630637" lon="94.386241">
<time>2016-10-08T02:44:25Z</time></trkpt>
<trkpt lat="29.630727" lon="94.386201">
<time>2016-10-08T02:44:26Z</time></trkpt>
<trkpt lat="29.630817" lon="94.386171">
<time>2016-10-08T02:44:27Z</time></trkpt>
<trkpt lat="29.630957" lon="94.386121">
<time>2016-10-08T02:44:28Z</time></trkpt>
<trkpt lat="29.631007" lon="94.386101">
<time>2016-10-08T02:44:29Z</time></trkpt>
<trkpt lat="29.631167" lon="94.386041">
<time>2016-10-08T02:44:30Z</time></trkpt>
<trkpt lat="29.631317" lon="94.385981">
<time>2016-10-08T02:44:31Z</time></trkpt>
<trkpt lat="29.631427" lon="94.385941">
<time>2016-10-08T02:44:32Z</time></trkpt>
<trkpt lat="29.631657" lon="94.385861">
<time>2016-10-08T02:44:33Z</time></trkpt>
<trkpt lat="29.631887" lon="94.385771">
<time>2016-10-08T02:44:34Z</time></trkpt>
<trkpt lat="29.632037" lon="94.385711">
<time>2016-10-08T02:44:35Z</time></trkpt>
<trkpt lat="29.632197" lon="94.385661">
<time>2016-10-08T02:44:36Z</time></trkpt>
<trkpt lat="29.632327" lon="94.385611">
<time>2016-10-08T02:44:37Z</time></trkpt>
<trkpt lat="29.632437" lon="94.385571">
<time>2016-10-08T02:44:38Z</time></trkpt>
<trkpt lat="29.632607" lon="94.385501">
<time>2016-10-08T02:44:39Z</time></trkpt>
<trkpt lat="29.632687" lon="94.385481">
<time>2016-10-08T02:44:40Z</time></trkpt>
<trkpt lat="29.632887" lon="94.385411">
<time>2016-10-08T02:44:41Z</time></trkpt>
<trkpt lat="29.633117" lon="94.385311">
<time>2016-10-08T02:44:42Z</time></trkpt>
<trkpt lat="29.633497" lon="94.385171">
<time>2016-10-08T02:44:43Z</time></trkpt>
<trkpt lat="29.633607" lon="94.385132">
<time>2016-10-08T02:44:44Z</time></trkpt>
<trkpt lat="29.633787" lon="94.385062">
<time>2016-10-08T02:44:45Z</time></trkpt>
<trkpt lat="29.633907" lon="94.385022">
<time>2016-10-08T02:44:46Z</time></trkpt>
<trkpt lat="29.634117" lon="94.384942">
<time>2016-10-08T02:44:47Z</time></trkpt>
<trkpt lat="29.634327" lon="94.384862">
<time>2016-10-08T02:44:48Z</time></trkpt>
<trkpt lat="29.634467" lon="94.384812">
<time>2016-10-08T02:44:49Z</time></trkpt>
<trkpt lat="29.634587" lon="94.384762">
<time>2016-10-08T02:44:50Z</time></trkpt>
<trkpt lat="29.634827" lon="94.384672">
<time>2016-10-08T02:44:51Z</time></trkpt>
<trkpt lat="29.635007" lon="94.384612">
<time>2016-10-08T02:44:52Z</time></trkpt>
<trkpt lat="29.635177" lon="94.384532">
<time>2016-10-08T02:44:53Z</time></trkpt>
<trkpt lat="29.635287" lon="94.384482">
<time>2016-10-08T02:44:54Z</time></trkpt>
<trkpt lat="29.635347" lon="94.384442">
<time>2016-10-08T02:44:55Z</time></trkpt>
<trkpt lat="29.635437" lon="94.384372">
<time>2016-10-08T02:44:56Z</time></trkpt>
<trkpt lat="29.635517" lon="94.384312">
<time>2016-10-08T02:44:57Z</time></trkpt>
<trkpt lat="29.635577" lon="94.384242">
<time>2016-10-08T02:44:58Z</time></trkpt>
<trkpt lat="29.635637" lon="94.384172">
<time>2016-10-08T02:44:59Z</time></trkpt>
<trkpt lat="29.635687" lon="94.384092">
<time>2016-10-08T02:45:00Z</time></trkpt>
<trkpt lat="29.635767" lon="94.383942">
<time>2016-10-08T02:45:01Z</time></trkpt>
<trkpt lat="29.635857" lon="94.383772">
<time>2016-10-08T02:45:02Z</time></trkpt>
<trkpt lat="29.635937" lon="94.383622">
<time>2016-10-08T02:45:03Z</time></trkpt>
<trkpt lat="29.636128" lon="94.383262">
<time>2016-10-08T02:45:04Z</time></trkpt>
<trkpt lat="29.636208" lon="94.383112">
<time>2016-10-08T02:45:05Z</time></trkpt>
<trkpt lat="29.636398" lon="94.382733">
<time>2016-10-08T02:45:06Z</time></trkpt>
<trkpt lat="29.636698" lon="94.382163">
<time>2016-10-08T02:45:07Z</time></trkpt>
<trkpt lat="29.636859" lon="94.381843">
<time>2016-10-08T02:45:08Z</time></trkpt>
<trkpt lat="29.637099" lon="94.381373">
<time>2016-10-08T02:45:09Z</time></trkpt>
<trkpt lat="29.637259" lon="94.381084">
<time>2016-10-08T02:45:10Z</time></trkpt>
<trkpt lat="29.637389" lon="94.380814">
<time>2016-10-08T02:45:11Z</time></trkpt>
<trkpt lat="29.637539" lon="94.380524">
<time>2016-10-08T02:45:12Z</time></trkpt>
<trkpt lat="29.6377" lon="94.380234">
<time>2016-10-08T02:45:13Z</time></trkpt>
<trkpt lat="29.63784" lon="94.379944">
<time>2016-10-08T02:45:14Z</time></trkpt>
<trkpt lat="29.638" lon="94.379645">
<time>2016-10-08T02:45:15Z</time></trkpt>
<trkpt lat="29.638611" lon="94.378395">
<time>2016-10-08T02:45:16Z</time></trkpt>
<trkpt lat="29.638631" lon="94.378365">
<time>2016-10-08T02:45:17Z</time></trkpt>
<trkpt lat="29.638801" lon="94.378096">
<time>2016-10-08T02:45:18Z</time></trkpt>
<trkpt lat="29.639122" lon="94.377656">
<time>2016-10-08T02:45:19Z</time></trkpt>
<trkpt lat="29.639322" lon="94.377396">
<time>2016-10-08T02:45:20Z</time></trkpt>
<trkpt lat="29.639892" lon="94.376617">
<time>2016-10-08T02:45:21Z</time></trkpt>
<trkpt lat="29.640283" lon="94.376127">
<time>2016-10-08T02:45:22Z</time></trkpt>
<trkpt lat="29.640733" lon="94.375468">
<time>2016-10-08T02:45:23Z</time></trkpt>
<trkpt lat="29.641034" lon="94.375028">
<time>2016-10-08T02:45:24Z</time></trkpt>
<trkpt lat="29.641084" lon="94.374938">
<time>2016-10-08T02:45:25Z</time></trkpt>
<trkpt lat="29.641204" lon="94.374758">
<time>2016-10-08T02:45:26Z</time></trkpt>
<trkpt lat="29.641354" lon="94.374559">
<time>2016-10-08T02:45:27Z</time></trkpt>
<trkpt lat="29.641484" lon="94.374359">
<time>2016-10-08T02:45:28Z</time></trkpt>
<trkpt lat="29.641584" lon="94.374209">
<time>2016-10-08T02:45:29Z</time></trkpt>
<trkpt lat="29.641695" lon="94.374029">
<time>2016-10-08T02:45:30Z</time></trkpt>
<trkpt lat="29.641845" lon="94.373869">
<time>2016-10-08T02:45:31Z</time></trkpt>
<trkpt lat="29.641965" lon="94.373699">
<time>2016-10-08T02:45:32Z</time></trkpt>
<trkpt lat="29.641995" lon="94.373639">
<time>2016-10-08T02:45:33Z</time></trkpt>
<trkpt lat="29.642105" lon="94.37349">
<time>2016-10-08T02:45:34Z</time></trkpt>
<trkpt lat="29.642215" lon="94.37334">
<time>2016-10-08T02:45:35Z</time></trkpt>
<trkpt lat="29.642325" lon="94.37317">
<time>2016-10-08T02:45:36Z</time></trkpt>
<trkpt lat="29.642446" lon="94.37303">
<time>2016-10-08T02:45:37Z</time></trkpt>
<trkpt lat="29.642566" lon="94.37288">
<time>2016-10-08T02:45:38Z</time></trkpt>
<trkpt lat="29.642846" lon="94.372441">
<time>2016-10-08T02:45:39Z</time></trkpt>
<trkpt lat="29.643016" lon="94.372211">
<time>2016-10-08T02:45:40Z</time></trkpt>
<trkpt lat="29.643587" lon="94.371451">
<time>2016-10-08T02:45:41Z</time></trkpt>
<trkpt lat="29.643928" lon="94.370992">
<time>2016-10-08T02:45:42Z</time></trkpt>
<trkpt lat="29.644278" lon="94.370562">
<time>2016-10-08T02:45:43Z</time></trkpt>
<trkpt lat="29.644318" lon="94.370492">
<time>2016-10-08T02:45:44Z</time></trkpt>
<trkpt lat="29.644388" lon="94.370383">
<time>2016-10-08T02:45:45Z</time></trkpt>
<trkpt lat="29.644498" lon="94.370233">
<time>2016-10-08T02:45:46Z</time></trkpt>
<trkpt lat="29.645019" lon="94.369513">
<time>2016-10-08T02:45:47Z</time></trkpt>
<trkpt lat="29.64554" lon="94.368784">
<time>2016-10-08T02:45:48Z</time></trkpt>
<trkpt lat="29.64564" lon="94.368624">
<time>2016-10-08T02:45:49Z</time></trkpt>
<trkpt lat="29.64585" lon="94.368345">
<time>2016-10-08T02:45:50Z</time></trkpt>
<trkpt lat="29.64593" lon="94.368235">
<time>2016-10-08T02:45:51Z</time></trkpt>
<trkpt lat="29.646061" lon="94.368085">
<time>2016-10-08T02:45:52Z</time></trkpt>
<trkpt lat="29.646181" lon="94.367955">
<time>2016-10-08T02:45:53Z</time></trkpt>
<trkpt lat="29.646361" lon="94.367785">
<time>2016-10-08T02:45:54Z</time></trkpt>
<trkpt lat="29.646481" lon="94.367675">
<time>2016-10-08T02:45:55Z</time></trkpt>
<trkpt lat="29.646631" lon="94.367556">
<time>2016-10-08T02:45:56Z</time></trkpt>
<trkpt lat="29.646891" lon="94.367356">
<time>2016-10-08T02:45:57Z</time></trkpt>
<trkpt lat="29.647161" lon="94.367186">
<time>2016-10-08T02:45:58Z</time></trkpt>
<trkpt lat="29.647552" lon="94.366966">
<time>2016-10-08T02:45:59Z</time></trkpt>
<trkpt lat="29.647842" lon="94.366836">
<time>2016-10-08T02:46:00Z</time></trkpt>
<trkpt lat="29.648012" lon="94.366756">
<time>2016-10-08T02:46:01Z</time></trkpt>
<trkpt lat="29.648192" lon="94.366687">
<time>2016-10-08T02:46:02Z</time></trkpt>
<trkpt lat="29.648402" lon="94.366627">
<time>2016-10-08T02:46:03Z</time></trkpt>
<trkpt lat="29.648582" lon="94.366587">
<time>2016-10-08T02:46:04Z</time></trkpt>
<trkpt lat="29.648742" lon="94.366557">
<time>2016-10-08T02:46:05Z</time></trkpt>
<trkpt lat="29.648932" lon="94.366527">
<time>2016-10-08T02:46:06Z</time></trkpt>
<trkpt lat="29.649082" lon="94.366517">
<time>2016-10-08T02:46:07Z</time></trkpt>
<trkpt lat="29.649202" lon="94.366517">
<time>2016-10-08T02:46:08Z</time></trkpt>
<trkpt lat="29.649312" lon="94.366507">
<time>2016-10-08T02:46:09Z</time></trkpt>
<trkpt lat="29.649522" lon="94.366507">
<time>2016-10-08T02:46:10Z</time></trkpt>
<trkpt lat="29.649762" lon="94.366507">
<time>2016-10-08T02:46:11Z</time></trkpt>
<trkpt lat="29.649962" lon="94.366517">
<time>2016-10-08T02:46:12Z</time></trkpt>
<trkpt lat="29.650152" lon="94.366537">
<time>2016-10-08T02:46:13Z</time></trkpt>
<trkpt lat="29.650152" lon="94.366537">
<time>2016-10-08T02:46:14Z</time></trkpt>
<trkpt lat="29.650266" lon="94.363041">
<time>2016-10-08T02:46:15Z</time></trkpt>
<trkpt lat="29.650266" lon="94.362971">
<time>2016-10-08T02:46:16Z</time></trkpt>
<trkpt lat="29.650277" lon="94.362721">
<time>2016-10-08T02:46:17Z</time></trkpt>
<trkpt lat="29.650277" lon="94.362721">
<time>2016-10-08T02:46:18Z</time></trkpt>
<trkpt lat="29.650297" lon="94.362721">
<time>2016-10-08T02:46:19Z</time></trkpt>
<trkpt lat="29.650337" lon="94.362731">
<time>2016-10-08T02:46:20Z</time></trkpt>
<trkpt lat="29.650377" lon="94.362731">
<time>2016-10-08T02:46:21Z</time></trkpt>
<trkpt lat="29.650407" lon="94.362731">
<time>2016-10-08T02:46:22Z</time></trkpt>
<trkpt lat="29.650417" lon="94.362721">
<time>2016-10-08T02:46:23Z</time></trkpt>
<trkpt lat="29.650437" lon="94.362721">
<time>2016-10-08T02:46:24Z</time></trkpt>
<trkpt lat="29.650457" lon="94.362711">
<time>2016-10-08T02:46:25Z</time></trkpt>
<trkpt lat="29.650497" lon="94.362701">
<time>2016-10-08T02:46:26Z</time></trkpt>
<trkpt lat="29.650527" lon="94.362681">
<time>2016-10-08T02:46:27Z</time></trkpt>
<trkpt lat="29.650547" lon="94.362671">
<time>2016-10-08T02:46:28Z</time></trkpt>
<trkpt lat="29.650587" lon="94.362632">
<time>2016-10-08T02:46:29Z</time></trkpt>
<trkpt lat="29.650617" lon="94.362602">
<time>2016-10-08T02:46:30Z</time></trkpt>
<trkpt lat="29.650627" lon="94.362572">
<time>2016-10-08T02:46:31Z</time></trkpt>
<trkpt lat="29.650637" lon="94.362552">
<time>2016-10-08T02:46:32Z</time></trkpt>
<trkpt lat="29.650657" lon="94.362522">
<time>2016-10-08T02:46:33Z</time></trkpt>
<trkpt lat="29.650657" lon="94.362482">
<time>2016-10-08T02:46:34Z</time></trkpt>
<trkpt lat="29.650667" lon="94.362462">
<time>2016-10-08T02:46:35Z</time></trkpt>
<trkpt lat="29.650667" lon="94.362432">
<time>2016-10-08T02:46:36Z</time></trkpt>
<trkpt lat="29.650667" lon="94.362412">
<time>2016-10-08T02:46:37Z</time></trkpt>
<trkpt lat="29.650667" lon="94.362392">
<time>2016-10-08T02:46:38Z</time></trkpt>
<trkpt lat="29.650657" lon="94.362362">
<time>2016-10-08T02:46:39Z</time></trkpt>
<trkpt lat="29.650657" lon="94.362352">
<time>2016-10-08T02:46:40Z</time></trkpt>
<trkpt lat="29.652687" lon="94.362312">
<time>2016-10-08T02:46:41Z</time></trkpt>
<trkpt lat="29.654426" lon="94.362282">
<time>2016-10-08T02:46:42Z</time></trkpt>
<trkpt lat="29.654826" lon="94.362292">
<time>2016-10-08T02:46:43Z</time></trkpt>
<trkpt lat="29.654856" lon="94.362292">
<time>2016-10-08T02:46:44Z</time></trkpt>
<trkpt lat="29.654856" lon="94.362292">
<time>2016-10-08T02:46:45Z</time></trkpt>
<trkpt lat="29.654929" lon="94.360225">
<time>2016-10-08T02:46:46Z</time></trkpt>
<trkpt lat="29.65495" lon="94.359506">
<time>2016-10-08T02:46:47Z</time></trkpt>
<trkpt lat="29.654982" lon="94.358527">
<time>2016-10-08T02:46:48Z</time></trkpt>
<trkpt lat="29.654992" lon="94.358217">
<time>2016-10-08T02:46:49Z</time></trkpt>
<trkpt lat="29.654992" lon="94.358158">
<time>2016-10-08T02:46:50Z</time></trkpt>
<trkpt lat="29.654992" lon="94.358158">
<time>2016-10-08T02:46:51Z</time></trkpt>
<trkpt lat="29.656602" lon="94.358237">
<time>2016-10-08T02:46:52Z</time></trkpt>
<trkpt lat="29.657602" lon="94.358287">
<time>2016-10-08T02:46:53Z</time></trkpt>
<trkpt lat="29.658261" lon="94.358317">
<time>2016-10-08T02:46:54Z</time></trkpt>
<trkpt lat="29.659481" lon="94.358337">
<time>2016-10-08T02:46:55Z</time></trkpt>
<trkpt lat="29.659531" lon="94.358337">
<time>2016-10-08T02:46:56Z</time></trkpt>
<trkpt lat="29.661181" lon="94.358367">
<time>2016-10-08T02:46:57Z</time></trkpt>
<trkpt lat="29.66281" lon="94.358437">
<time>2016-10-08T02:46:58Z</time></trkpt>
<trkpt lat="29.66293" lon="94.358427">
<time>2016-10-08T02:46:59Z</time></trkpt>
<trkpt lat="29.66297" lon="94.358417">
<time>2016-10-08T02:47:00Z</time></trkpt>
<trkpt lat="29.66313" lon="94.358357">
<time>2016-10-08T02:47:01Z</time></trkpt>
<trkpt lat="29.66313" lon="94.358357">
<time>2016-10-08T02:47:02Z</time></trkpt>
<trkpt lat="29.66314" lon="94.358357">
<time>2016-10-08T02:47:03Z</time></trkpt>
<trkpt lat="29.66315" lon="94.358337">
<time>2016-10-08T02:47:04Z</time></trkpt>
<trkpt lat="29.66316" lon="94.358327">
<time>2016-10-08T02:47:05Z</time></trkpt>
<trkpt lat="29.66317" lon="94.358327">
<time>2016-10-08T02:47:06Z</time></trkpt>
<trkpt lat="29.66318" lon="94.358307">
<time>2016-10-08T02:47:07Z</time></trkpt>
<trkpt lat="29.6632" lon="94.358307">
<time>2016-10-08T02:47:08Z</time></trkpt>
<trkpt lat="29.66322" lon="94.358297">
<time>2016-10-08T02:47:09Z</time></trkpt>
<trkpt lat="29.66323" lon="94.358297">
<time>2016-10-08T02:47:10Z</time></trkpt>
<trkpt lat="29.66325" lon="94.358297">
<time>2016-10-08T02:47:11Z</time></trkpt>
<trkpt lat="29.66326" lon="94.358297">
<time>2016-10-08T02:47:12Z</time></trkpt>
<trkpt lat="29.66327" lon="94.358297">
<time>2016-10-08T02:47:13Z</time></trkpt>
<trkpt lat="29.66329" lon="94.358297">
<time>2016-10-08T02:47:14Z</time></trkpt>
<trkpt lat="29.66332" lon="94.358187">
<time>2016-10-08T02:47:15Z</time></trkpt>
<trkpt lat="29.663381" lon="94.358048">
<time>2016-10-08T02:47:16Z</time></trkpt>
<trkpt lat="29.663471" lon="94.357868">
<time>2016-10-08T02:47:17Z</time></trkpt>
<trkpt lat="29.663581" lon="94.357668">
<time>2016-10-08T02:47:18Z</time></trkpt>
<trkpt lat="29.663671" lon="94.357518">
<time>2016-10-08T02:47:19Z</time></trkpt>
<trkpt lat="29.663962" lon="94.357119">
<time>2016-10-08T02:47:20Z</time></trkpt>
<trkpt lat="29.664082" lon="94.356989">
<time>2016-10-08T02:47:21Z</time></trkpt>
<trkpt lat="29.664353" lon="94.35666">
<time>2016-10-08T02:47:22Z</time></trkpt>
<trkpt lat="29.664523" lon="94.35645">
<time>2016-10-08T02:47:23Z</time></trkpt>
<trkpt lat="29.664633" lon="94.35632">
<time>2016-10-08T02:47:24Z</time></trkpt>
<trkpt lat="29.665214" lon="94.355531">
<time>2016-10-08T02:47:25Z</time></trkpt>
<trkpt lat="29.665244" lon="94.355501">
<time>2016-10-08T02:47:26Z</time></trkpt>
<trkpt lat="29.665505" lon="94.355202">
<time>2016-10-08T02:47:27Z</time></trkpt>
<trkpt lat="29.665695" lon="94.354982">
<time>2016-10-08T02:47:28Z</time></trkpt>
<trkpt lat="29.665895" lon="94.354852">
<time>2016-10-08T02:47:29Z</time></trkpt>
<trkpt lat="29.666686" lon="94.354163">
<time>2016-10-08T02:47:30Z</time></trkpt>
<trkpt lat="29.666786" lon="94.354053">
<time>2016-10-08T02:47:31Z</time></trkpt>
<trkpt lat="29.666786" lon="94.354053">
<time>2016-10-08T02:47:32Z</time></trkpt>
<trkpt lat="29.666806" lon="94.353944">
<time>2016-10-08T02:47:33Z</time></trkpt>
<trkpt lat="29.666857" lon="94.353374">
<time>2016-10-08T02:47:34Z</time></trkpt>
<trkpt lat="29.666857" lon="94.353374">
<time>2016-10-08T02:47:35Z</time></trkpt>
<trkpt lat="29.667267" lon="94.353424">
<time>2016-10-08T02:47:36Z</time></trkpt>
<trkpt lat="29.668626" lon="94.353654">
<time>2016-10-08T02:47:37Z</time></trkpt>
<trkpt lat="29.669996" lon="94.353784">
<time>2016-10-08T02:47:38Z</time></trkpt>
<trkpt lat="29.671436" lon="94.353814">
<time>2016-10-08T02:47:39Z</time></trkpt>
<trkpt lat="29.672585" lon="94.353834">
<time>2016-10-08T02:47:40Z</time></trkpt>
<trkpt lat="29.673005" lon="94.353824">
<time>2016-10-08T02:47:41Z</time></trkpt>
<trkpt lat="29.673335" lon="94.353784">
<time>2016-10-08T02:47:42Z</time></trkpt>
<trkpt lat="29.673705" lon="94.353714">
<time>2016-10-08T02:47:43Z</time></trkpt>
<trkpt lat="29.675096" lon="94.353384">
<time>2016-10-08T02:47:44Z</time></trkpt>
<trkpt lat="29.676136" lon="94.353145">
<time>2016-10-08T02:47:45Z</time></trkpt>
<trkpt lat="29.676526" lon="94.353055">
<time>2016-10-08T02:47:46Z</time></trkpt>
<trkpt lat="29.677606" lon="94.352805">
<time>2016-10-08T02:47:47Z</time></trkpt>
<trkpt lat="29.677606" lon="94.352805">
<time>2016-10-08T02:47:48Z</time></trkpt>
<trkpt lat="29.677616" lon="94.352775">
<time>2016-10-08T02:47:49Z</time></trkpt>
<trkpt lat="29.677626" lon="94.352745">
<time>2016-10-08T02:47:50Z</time></trkpt>
<trkpt lat="29.677636" lon="94.352715">
<time>2016-10-08T02:47:51Z</time></trkpt>
<trkpt lat="29.677656" lon="94.352685">
<time>2016-10-08T02:47:52Z</time></trkpt>
<trkpt lat="29.677676" lon="94.352675">
<time>2016-10-08T02:47:53Z</time></trkpt>
<trkpt lat="29.677716" lon="94.352645">
<time>2016-10-08T02:47:54Z</time></trkpt>
<trkpt lat="29.677746" lon="94.352625">
<time>2016-10-08T02:47:55Z</time></trkpt>
<trkpt lat="29.677796" lon="94.352615">
<time>2016-10-08T02:47:56Z</time></trkpt>
<trkpt lat="29.677956" lon="94.352585">
<time>2016-10-08T02:47:57Z</time></trkpt>
<trkpt lat="29.678156" lon="94.352525">
<time>2016-10-08T02:47:58Z</time></trkpt>
<trkpt lat="29.678276" lon="94.352496">
<time>2016-10-08T02:47:59Z</time></trkpt>
<trkpt lat="29.678446" lon="94.352466">
<time>2016-10-08T02:48:00Z</time></trkpt>
<trkpt lat="29.678516" lon="94.352456">
<time>2016-10-08T02:48:01Z</time></trkpt>
<trkpt lat="29.678566" lon="94.352456">
<time>2016-10-08T02:48:02Z</time></trkpt>
<trkpt lat="29.678676" lon="94.352446">
<time>2016-10-08T02:48:03Z</time></trkpt>
<trkpt lat="29.678786" lon="94.352446">
<time>2016-10-08T02:48:04Z</time></trkpt>
<trkpt lat="29.678886" lon="94.352456">
<time>2016-10-08T02:48:05Z</time></trkpt>
<trkpt lat="29.678986" lon="94.352476">
<time>2016-10-08T02:48:06Z</time></trkpt>
<trkpt lat="29.679056" lon="94.352486">
<time>2016-10-08T02:48:07Z</time></trkpt>
<trkpt lat="29.679126" lon="94.352505">
<time>2016-10-08T02:48:08Z</time></trkpt>
<trkpt lat="29.679196" lon="94.352535">
<time>2016-10-08T02:48:09Z</time></trkpt>
<trkpt lat="29.679286" lon="94.352565">
<time>2016-10-08T02:48:10Z</time></trkpt>
<trkpt lat="29.679376" lon="94.352605">
<time>2016-10-08T02:48:11Z</time></trkpt>
<trkpt lat="29.679456" lon="94.352635">
<time>2016-10-08T02:48:12Z</time></trkpt>
<trkpt lat="29.679526" lon="94.352675">
<time>2016-10-08T02:48:13Z</time></trkpt>
<trkpt lat="29.679606" lon="94.352715">
<time>2016-10-08T02:48:14Z</time></trkpt>
<trkpt lat="29.679646" lon="94.352745">
<time>2016-10-08T02:48:15Z</time></trkpt>
<trkpt lat="29.679686" lon="94.352775">
<time>2016-10-08T02:48:16Z</time></trkpt>
<trkpt lat="29.679825" lon="94.352895">
<time>2016-10-08T02:48:17Z</time></trkpt>
<trkpt lat="29.679875" lon="94.352925">
<time>2016-10-08T02:48:18Z</time></trkpt>
<trkpt lat="29.679915" lon="94.352955">
<time>2016-10-08T02:48:19Z</time></trkpt>
<trkpt lat="29.679955" lon="94.352975">
<time>2016-10-08T02:48:20Z</time></trkpt>
<trkpt lat="29.680035" lon="94.353025">
<time>2016-10-08T02:48:21Z</time></trkpt>
<trkpt lat="29.680125" lon="94.353065">
<time>2016-10-08T02:48:22Z</time></trkpt>
<trkpt lat="29.680235" lon="94.353105">
<time>2016-10-08T02:48:23Z</time></trkpt>
<trkpt lat="29.680365" lon="94.353154">
<time>2016-10-08T02:48:24Z</time></trkpt>
<trkpt lat="29.680495" lon="94.353194">
<time>2016-10-08T02:48:25Z</time></trkpt>
<trkpt lat="29.680615" lon="94.353224">
<time>2016-10-08T02:48:26Z</time></trkpt>
<trkpt lat="29.680745" lon="94.353254">
<time>2016-10-08T02:48:27Z</time></trkpt>
<trkpt lat="29.680874" lon="94.353284">
<time>2016-10-08T02:48:28Z</time></trkpt>
<trkpt lat="29.681004" lon="94.353294">
<time>2016-10-08T02:48:29Z</time></trkpt>
<trkpt lat="29.681144" lon="94.353314">
<time>2016-10-08T02:48:30Z</time></trkpt>
<trkpt lat="29.681274" lon="94.353324">
<time>2016-10-08T02:48:31Z</time></trkpt>
<trkpt lat="29.681384" lon="94.353324">
<time>2016-10-08T02:48:32Z</time></trkpt>
<trkpt lat="29.681494" lon="94.353324">
<time>2016-10-08T02:48:33Z</time></trkpt>
<trkpt lat="29.681594" lon="94.353324">
<time>2016-10-08T02:48:34Z</time></trkpt>
<trkpt lat="29.681714" lon="94.353314">
<time>2016-10-08T02:48:35Z</time></trkpt>
<trkpt lat="29.681834" lon="94.353304">
<time>2016-10-08T02:48:36Z</time></trkpt>
<trkpt lat="29.681954" lon="94.353294">
<time>2016-10-08T02:48:37Z</time></trkpt>
<trkpt lat="29.682074" lon="94.353274">
<time>2016-10-08T02:48:38Z</time></trkpt>
<trkpt lat="29.682164" lon="94.353254">
<time>2016-10-08T02:48:39Z</time></trkpt>
<trkpt lat="29.682254" lon="94.353234">
<time>2016-10-08T02:48:40Z</time></trkpt>
<trkpt lat="29.682594" lon="94.353144">
<time>2016-10-08T02:48:41Z</time></trkpt>
<trkpt lat="29.683405" lon="94.352935">
<time>2016-10-08T02:48:42Z</time></trkpt>
<trkpt lat="29.684205" lon="94.352715">
<time>2016-10-08T02:48:43Z</time></trkpt>
<trkpt lat="29.684655" lon="94.352645">
<time>2016-10-08T02:48:44Z</time></trkpt>
<trkpt lat="29.685105" lon="94.352565">
<time>2016-10-08T02:48:45Z</time></trkpt>
<trkpt lat="29.685545" lon="94.352485">
<time>2016-10-08T02:48:46Z</time></trkpt>
<trkpt lat="29.685995" lon="94.352386">
<time>2016-10-08T02:48:47Z</time></trkpt>
<trkpt lat="29.686435" lon="94.352286">
<time>2016-10-08T02:48:48Z</time></trkpt>
<trkpt lat="29.686875" lon="94.352186">
<time>2016-10-08T02:48:49Z</time></trkpt>
<trkpt lat="29.687315" lon="94.352066">
<time>2016-10-08T02:48:50Z</time></trkpt>
<trkpt lat="29.687755" lon="94.351936">
<time>2016-10-08T02:48:51Z</time></trkpt>
<trkpt lat="29.688005" lon="94.351866">
<time>2016-10-08T02:48:52Z</time></trkpt>
<trkpt lat="29.688075" lon="94.351846">
<time>2016-10-08T02:48:53Z</time></trkpt>
<trkpt lat="29.688135" lon="94.351826">
<time>2016-10-08T02:48:54Z</time></trkpt>
<trkpt lat="29.688245" lon="94.351786">
<time>2016-10-08T02:48:55Z</time></trkpt>
<trkpt lat="29.688356" lon="94.351737">
<time>2016-10-08T02:48:56Z</time></trkpt>
<trkpt lat="29.688456" lon="94.351677">
<time>2016-10-08T02:48:57Z</time></trkpt>
<trkpt lat="29.688556" lon="94.351627">
<time>2016-10-08T02:48:58Z</time></trkpt>
<trkpt lat="29.688646" lon="94.351567">
<time>2016-10-08T02:48:59Z</time></trkpt>
<trkpt lat="29.688746" lon="94.351497">
<time>2016-10-08T02:49:00Z</time></trkpt>
<trkpt lat="29.688816" lon="94.351447">
<time>2016-10-08T02:49:01Z</time></trkpt>
<trkpt lat="29.688886" lon="94.351387">
<time>2016-10-08T02:49:02Z</time></trkpt>
<trkpt lat="29.688966" lon="94.351327">
<time>2016-10-08T02:49:03Z</time></trkpt>
<trkpt lat="29.689036" lon="94.351267">
<time>2016-10-08T02:49:04Z</time></trkpt>
<trkpt lat="29.689116" lon="94.351197">
<time>2016-10-08T02:49:05Z</time></trkpt>
<trkpt lat="29.689196" lon="94.351117">
<time>2016-10-08T02:49:06Z</time></trkpt>
<trkpt lat="29.689377" lon="94.350948">
<time>2016-10-08T02:49:07Z</time></trkpt>
<trkpt lat="29.689437" lon="94.350888">
<time>2016-10-08T02:49:08Z</time></trkpt>
<trkpt lat="29.689497" lon="94.350818">
<time>2016-10-08T02:49:09Z</time></trkpt>
<trkpt lat="29.689627" lon="94.350678">
<time>2016-10-08T02:49:10Z</time></trkpt>
<trkpt lat="29.689747" lon="94.350538">
<time>2016-10-08T02:49:11Z</time></trkpt>
<trkpt lat="29.690038" lon="94.350169">
<time>2016-10-08T02:49:12Z</time></trkpt>
<trkpt lat="29.690248" lon="94.349909">
<time>2016-10-08T02:49:13Z</time></trkpt>
<trkpt lat="29.690328" lon="94.34982">
<time>2016-10-08T02:49:14Z</time></trkpt>
<trkpt lat="29.690419" lon="94.34971">
<time>2016-10-08T02:49:15Z</time></trkpt>
<trkpt lat="29.690489" lon="94.34961">
<time>2016-10-08T02:49:16Z</time></trkpt>
<trkpt lat="29.690569" lon="94.3495">
<time>2016-10-08T02:49:17Z</time></trkpt>
<trkpt lat="29.690639" lon="94.34938">
<time>2016-10-08T02:49:18Z</time></trkpt>
<trkpt lat="29.690709" lon="94.34926">
<time>2016-10-08T02:49:19Z</time></trkpt>
<trkpt lat="29.69079" lon="94.349131">
<time>2016-10-08T02:49:20Z</time></trkpt>
<trkpt lat="29.69085" lon="94.349001">
<time>2016-10-08T02:49:21Z</time></trkpt>
<trkpt lat="29.69092" lon="94.348871">
<time>2016-10-08T02:49:22Z</time></trkpt>
<trkpt lat="29.69099" lon="94.348721">
<time>2016-10-08T02:49:23Z</time></trkpt>
<trkpt lat="29.69106" lon="94.348562">
<time>2016-10-08T02:49:24Z</time></trkpt>
<trkpt lat="29.691111" lon="94.348432">
<time>2016-10-08T02:49:25Z</time></trkpt>
<trkpt lat="29.691171" lon="94.348282">
<time>2016-10-08T02:49:26Z</time></trkpt>
<trkpt lat="29.691211" lon="94.348142">
<time>2016-10-08T02:49:27Z</time></trkpt>
<trkpt lat="29.691322" lon="94.347833">
<time>2016-10-08T02:49:28Z</time></trkpt>
<trkpt lat="29.691362" lon="94.347703">
<time>2016-10-08T02:49:29Z</time></trkpt>
<trkpt lat="29.691402" lon="94.347593">
<time>2016-10-08T02:49:30Z</time></trkpt>
<trkpt lat="29.691472" lon="94.347364">
<time>2016-10-08T02:49:31Z</time></trkpt>
<trkpt lat="29.691503" lon="94.347274">
<time>2016-10-08T02:49:32Z</time></trkpt>
<trkpt lat="29.691553" lon="94.347154">
<time>2016-10-08T02:49:33Z</time></trkpt>
<trkpt lat="29.691593" lon="94.347064">
<time>2016-10-08T02:49:34Z</time></trkpt>
<trkpt lat="29.691643" lon="94.346964">
<time>2016-10-08T02:49:35Z</time></trkpt>
<trkpt lat="29.691703" lon="94.346864">
<time>2016-10-08T02:49:36Z</time></trkpt>
<trkpt lat="29.691763" lon="94.346775">
<time>2016-10-08T02:49:37Z</time></trkpt>
<trkpt lat="29.691824" lon="94.346685">
<time>2016-10-08T02:49:38Z</time></trkpt>
<trkpt lat="29.691854" lon="94.346635">
<time>2016-10-08T02:49:39Z</time></trkpt>
<trkpt lat="29.691904" lon="94.346585">
<time>2016-10-08T02:49:40Z</time></trkpt>
<trkpt lat="29.691944" lon="94.346535">
<time>2016-10-08T02:49:41Z</time></trkpt>
<trkpt lat="29.691994" lon="94.346485">
<time>2016-10-08T02:49:42Z</time></trkpt>
<trkpt lat="29.692094" lon="94.346385">
<time>2016-10-08T02:49:43Z</time></trkpt>
<trkpt lat="29.692214" lon="94.346275">
<time>2016-10-08T02:49:44Z</time></trkpt>
<trkpt lat="29.692284" lon="94.346215">
<time>2016-10-08T02:49:45Z</time></trkpt>
<trkpt lat="29.692364" lon="94.346156">
<time>2016-10-08T02:49:46Z</time></trkpt>
<trkpt lat="29.692675" lon="94.345946">
<time>2016-10-08T02:49:47Z</time></trkpt>
<trkpt lat="29.692785" lon="94.345866">
<time>2016-10-08T02:49:48Z</time></trkpt>
<trkpt lat="29.693025" lon="94.345676">
<time>2016-10-08T02:49:49Z</time></trkpt>
<trkpt lat="29.693135" lon="94.345596">
<time>2016-10-08T02:49:50Z</time></trkpt>
<trkpt lat="29.693205" lon="94.345557">
<time>2016-10-08T02:49:51Z</time></trkpt>
<trkpt lat="29.693275" lon="94.345517">
<time>2016-10-08T02:49:52Z</time></trkpt>
<trkpt lat="29.693335" lon="94.345477">
<time>2016-10-08T02:49:53Z</time></trkpt>
<trkpt lat="29.693395" lon="94.345447">
<time>2016-10-08T02:49:54Z</time></trkpt>
<trkpt lat="29.693476" lon="94.345407">
<time>2016-10-08T02:49:55Z</time></trkpt>
<trkpt lat="29.693556" lon="94.345367">
<time>2016-10-08T02:49:56Z</time></trkpt>
<trkpt lat="29.693646" lon="94.345327">
<time>2016-10-08T02:49:57Z</time></trkpt>
<trkpt lat="29.693746" lon="94.345287">
<time>2016-10-08T02:49:58Z</time></trkpt>
<trkpt lat="29.693886" lon="94.345237">
<time>2016-10-08T02:49:59Z</time></trkpt>
<trkpt lat="29.694096" lon="94.345167">
<time>2016-10-08T02:50:00Z</time></trkpt>
<trkpt lat="29.694126" lon="94.345157">
<time>2016-10-08T02:50:01Z</time></trkpt>
<trkpt lat="29.694166" lon="94.345147">
<time>2016-10-08T02:50:02Z</time></trkpt>
<trkpt lat="29.694276" lon="94.345137">
<time>2016-10-08T02:50:03Z</time></trkpt>
<trkpt lat="29.694426" lon="94.345127">
<time>2016-10-08T02:50:04Z</time></trkpt>
<trkpt lat="29.694616" lon="94.345117">
<time>2016-10-08T02:50:05Z</time></trkpt>
<trkpt lat="29.694836" lon="94.345107">
<time>2016-10-08T02:50:06Z</time></trkpt>
<trkpt lat="29.695076" lon="94.345097">
<time>2016-10-08T02:50:07Z</time></trkpt>
<trkpt lat="29.695336" lon="94.345097">
<time>2016-10-08T02:50:08Z</time></trkpt>
<trkpt lat="29.695596" lon="94.345097">
<time>2016-10-08T02:50:09Z</time></trkpt>
<trkpt lat="29.695906" lon="94.345097">
<time>2016-10-08T02:50:10Z</time></trkpt>
<trkpt lat="29.697056" lon="94.345017">
<time>2016-10-08T02:50:11Z</time></trkpt>
<trkpt lat="29.697056" lon="94.345017">
<time>2016-10-08T02:50:12Z</time></trkpt>
<trkpt lat="29.697366" lon="94.344818">
<time>2016-10-08T02:50:13Z</time></trkpt>
<trkpt lat="29.697906" lon="94.344468">
<time>2016-10-08T02:50:14Z</time></trkpt>
<trkpt lat="29.698457" lon="94.344109">
<time>2016-10-08T02:50:15Z</time></trkpt>
<trkpt lat="29.698847" lon="94.343849">
<time>2016-10-08T02:50:16Z</time></trkpt>
<trkpt lat="29.699208" lon="94.34362">
<time>2016-10-08T02:50:17Z</time></trkpt>
<trkpt lat="29.699418" lon="94.34346">
<time>2016-10-08T02:50:18Z</time></trkpt>
<trkpt lat="29.699558" lon="94.34332">
<time>2016-10-08T02:50:19Z</time></trkpt>
<trkpt lat="29.699779" lon="94.343031">
<time>2016-10-08T02:50:20Z</time></trkpt>
<trkpt lat="29.70018" lon="94.342502">
<time>2016-10-08T02:50:21Z</time></trkpt>
<trkpt lat="29.700701" lon="94.341853">
<time>2016-10-08T02:50:22Z</time></trkpt>
<trkpt lat="29.701352" lon="94.341064">
<time>2016-10-08T02:50:23Z</time></trkpt>
<trkpt lat="29.701492" lon="94.340884">
<time>2016-10-08T02:50:24Z</time></trkpt>
<trkpt lat="29.701693" lon="94.340635">
<time>2016-10-08T02:50:25Z</time></trkpt>
<trkpt lat="29.701843" lon="94.340455">
<time>2016-10-08T02:50:26Z</time></trkpt>
<trkpt lat="29.702134" lon="94.340126">
<time>2016-10-08T02:50:27Z</time></trkpt>
<trkpt lat="29.702364" lon="94.339916">
<time>2016-10-08T02:50:28Z</time></trkpt>
<trkpt lat="29.702614" lon="94.339736">
<time>2016-10-08T02:50:29Z</time></trkpt>
<trkpt lat="29.703035" lon="94.339427">
<time>2016-10-08T02:50:30Z</time></trkpt>
<trkpt lat="29.703365" lon="94.339187">
<time>2016-10-08T02:50:31Z</time></trkpt>
<trkpt lat="29.703685" lon="94.338958">
<time>2016-10-08T02:50:32Z</time></trkpt>
<trkpt lat="29.704086" lon="94.338658">
<time>2016-10-08T02:50:33Z</time></trkpt>
<trkpt lat="29.704446" lon="94.338389">
<time>2016-10-08T02:50:34Z</time></trkpt>
<trkpt lat="29.704747" lon="94.338179">
<time>2016-10-08T02:50:35Z</time></trkpt>
<trkpt lat="29.705087" lon="94.33793">
<time>2016-10-08T02:50:36Z</time></trkpt>
<trkpt lat="29.705397" lon="94.3377">
<time>2016-10-08T02:50:37Z</time></trkpt>
<trkpt lat="29.705668" lon="94.3375">
<time>2016-10-08T02:50:38Z</time></trkpt>
<trkpt lat="29.706018" lon="94.337241">
<time>2016-10-08T02:50:39Z</time></trkpt>
<trkpt lat="29.706339" lon="94.337021">
<time>2016-10-08T02:50:40Z</time></trkpt>
<trkpt lat="29.706609" lon="94.336851">
<time>2016-10-08T02:50:41Z</time></trkpt>
<trkpt lat="29.706869" lon="94.336652">
<time>2016-10-08T02:50:42Z</time></trkpt>
<trkpt lat="29.706959" lon="94.336572">
<time>2016-10-08T02:50:43Z</time></trkpt>
<trkpt lat="29.70704" lon="94.336442">
<time>2016-10-08T02:50:44Z</time></trkpt>
<trkpt lat="29.70712" lon="94.336292">
<time>2016-10-08T02:50:45Z</time></trkpt>
<trkpt lat="29.70729" lon="94.335893">
<time>2016-10-08T02:50:46Z</time></trkpt>
<trkpt lat="29.707652" lon="94.335025">
<time>2016-10-08T02:50:47Z</time></trkpt>
<trkpt lat="29.707913" lon="94.334416">
<time>2016-10-08T02:50:48Z</time></trkpt>
<trkpt lat="29.708285" lon="94.333527">
<time>2016-10-08T02:50:49Z</time></trkpt>
<trkpt lat="29.708516" lon="94.332998">
<time>2016-10-08T02:50:50Z</time></trkpt>
<trkpt lat="29.708857" lon="94.33218">
<time>2016-10-08T02:50:51Z</time></trkpt>
<trkpt lat="29.709048" lon="94.331741">
<time>2016-10-08T02:50:52Z</time></trkpt>
<trkpt lat="29.709219" lon="94.331411">
<time>2016-10-08T02:50:53Z</time></trkpt>
<trkpt lat="29.70962" lon="94.330633">
<time>2016-10-08T02:50:54Z</time></trkpt>
<trkpt lat="29.709901" lon="94.330084">
<time>2016-10-08T02:50:55Z</time></trkpt>
<trkpt lat="29.710062" lon="94.329794">
<time>2016-10-08T02:50:56Z</time></trkpt>
<trkpt lat="29.710463" lon="94.328976">
<time>2016-10-08T02:50:57Z</time></trkpt>
<trkpt lat="29.710664" lon="94.328517">
<time>2016-10-08T02:50:58Z</time></trkpt>
<trkpt lat="29.710825" lon="94.328157">
<time>2016-10-08T02:50:59Z</time></trkpt>
<trkpt lat="29.711015" lon="94.327698">
<time>2016-10-08T02:51:00Z</time></trkpt>
<trkpt lat="29.711246" lon="94.327169">
<time>2016-10-08T02:51:01Z</time></trkpt>
<trkpt lat="29.711437" lon="94.3267">
<time>2016-10-08T02:51:02Z</time></trkpt>
<trkpt lat="29.711568" lon="94.326341">
<time>2016-10-08T02:51:03Z</time></trkpt>
<trkpt lat="29.711699" lon="94.325931">
<time>2016-10-08T02:51:04Z</time></trkpt>
<trkpt lat="29.71189" lon="94.325292">
<time>2016-10-08T02:51:05Z</time></trkpt>
<trkpt lat="29.712051" lon="94.324793">
<time>2016-10-08T02:51:06Z</time></trkpt>
<trkpt lat="29.712192" lon="94.324354">
<time>2016-10-08T02:51:07Z</time></trkpt>
<trkpt lat="29.712413" lon="94.323835">
<time>2016-10-08T02:51:08Z</time></trkpt>
<trkpt lat="29.712684" lon="94.323196">
<time>2016-10-08T02:51:09Z</time></trkpt>
<trkpt lat="29.712794" lon="94.322907">
<time>2016-10-08T02:51:10Z</time></trkpt>
<trkpt lat="29.712865" lon="94.322667">
<time>2016-10-08T02:51:11Z</time></trkpt>
<trkpt lat="29.713096" lon="94.321749">
<time>2016-10-08T02:51:12Z</time></trkpt>
<trkpt lat="29.713197" lon="94.32132">
<time>2016-10-08T02:51:13Z</time></trkpt>
<trkpt lat="29.713288" lon="94.321">
<time>2016-10-08T02:51:14Z</time></trkpt>
<trkpt lat="29.713398" lon="94.320761">
<time>2016-10-08T02:51:15Z</time></trkpt>
<trkpt lat="29.713529" lon="94.320511">
<time>2016-10-08T02:51:16Z</time></trkpt>
<trkpt lat="29.713729" lon="94.320212">
<time>2016-10-08T02:51:17Z</time></trkpt>
<trkpt lat="29.71394" lon="94.319892">
<time>2016-10-08T02:51:18Z</time></trkpt>
<trkpt lat="29.71417" lon="94.319553">
<time>2016-10-08T02:51:19Z</time></trkpt>
<trkpt lat="29.714301" lon="94.319363">
<time>2016-10-08T02:51:20Z</time></trkpt>
<trkpt lat="29.714451" lon="94.319154">
<time>2016-10-08T02:51:21Z</time></trkpt>
<trkpt lat="29.714632" lon="94.318964">
<time>2016-10-08T02:51:22Z</time></trkpt>
<trkpt lat="29.714762" lon="94.318844">
<time>2016-10-08T02:51:23Z</time></trkpt>
<trkpt lat="29.714992" lon="94.318674">
<time>2016-10-08T02:51:24Z</time></trkpt>
<trkpt lat="29.715112" lon="94.318595">
<time>2016-10-08T02:51:25Z</time></trkpt>
<trkpt lat="29.715332" lon="94.318445">
<time>2016-10-08T02:51:26Z</time></trkpt>
<trkpt lat="29.715723" lon="94.318185">
<time>2016-10-08T02:51:27Z</time></trkpt>
<trkpt lat="29.716033" lon="94.317976">
<time>2016-10-08T02:51:28Z</time></trkpt>
<trkpt lat="29.716384" lon="94.317746">
<time>2016-10-08T02:51:29Z</time></trkpt>
<trkpt lat="29.716724" lon="94.317506">
<time>2016-10-08T02:51:30Z</time></trkpt>
<trkpt lat="29.717114" lon="94.317247">
<time>2016-10-08T02:51:31Z</time></trkpt>
<trkpt lat="29.717465" lon="94.317017">
<time>2016-10-08T02:51:32Z</time></trkpt>
<trkpt lat="29.717845" lon="94.316768">
<time>2016-10-08T02:51:33Z</time></trkpt>
<trkpt lat="29.718185" lon="94.316538">
<time>2016-10-08T02:51:34Z</time></trkpt>
<trkpt lat="29.718516" lon="94.316319">
<time>2016-10-08T02:51:35Z</time></trkpt>
<trkpt lat="29.718806" lon="94.316129">
<time>2016-10-08T02:51:36Z</time></trkpt>
<trkpt lat="29.719086" lon="94.315939">
<time>2016-10-08T02:51:37Z</time></trkpt>
<trkpt lat="29.719377" lon="94.31575">
<time>2016-10-08T02:51:38Z</time></trkpt>
<trkpt lat="29.719657" lon="94.31557">
<time>2016-10-08T02:51:39Z</time></trkpt>
<trkpt lat="29.719967" lon="94.31535">
<time>2016-10-08T02:51:40Z</time></trkpt>
<trkpt lat="29.720208" lon="94.3152">
<time>2016-10-08T02:51:41Z</time></trkpt>
<trkpt lat="29.720528" lon="94.314981">
<time>2016-10-08T02:51:42Z</time></trkpt>
<trkpt lat="29.720738" lon="94.314801">
<time>2016-10-08T02:51:43Z</time></trkpt>
<trkpt lat="29.720929" lon="94.314631">
<time>2016-10-08T02:51:44Z</time></trkpt>
<trkpt lat="29.721149" lon="94.314402">
<time>2016-10-08T02:51:45Z</time></trkpt>
<trkpt lat="29.721379" lon="94.314112">
<time>2016-10-08T02:51:46Z</time></trkpt>
<trkpt lat="29.72176" lon="94.313623">
<time>2016-10-08T02:51:47Z</time></trkpt>
<trkpt lat="29.722181" lon="94.313084">
<time>2016-10-08T02:51:48Z</time></trkpt>
<trkpt lat="29.722472" lon="94.312705">
<time>2016-10-08T02:51:49Z</time></trkpt>
<trkpt lat="29.722692" lon="94.312415">
<time>2016-10-08T02:51:50Z</time></trkpt>
<trkpt lat="29.722933" lon="94.312106">
<time>2016-10-08T02:51:51Z</time></trkpt>
<trkpt lat="29.723244" lon="94.311677">
<time>2016-10-08T02:51:52Z</time></trkpt>
<trkpt lat="29.723434" lon="94.311367">
<time>2016-10-08T02:51:53Z</time></trkpt>
<trkpt lat="29.723575" lon="94.311088">
<time>2016-10-08T02:51:54Z</time></trkpt>
<trkpt lat="29.723735" lon="94.310688">
<time>2016-10-08T02:51:55Z</time></trkpt>
<trkpt lat="29.723977" lon="94.310029">
<time>2016-10-08T02:51:56Z</time></trkpt>
<trkpt lat="29.724248" lon="94.309301">
<time>2016-10-08T02:51:57Z</time></trkpt>
<trkpt lat="29.724449" lon="94.308801">
<time>2016-10-08T02:51:58Z</time></trkpt>
<trkpt lat="29.72481" lon="94.307813">
<time>2016-10-08T02:51:59Z</time></trkpt>
<trkpt lat="29.725162" lon="94.306895">
<time>2016-10-08T02:52:00Z</time></trkpt>
<trkpt lat="29.725443" lon="94.306166">
<time>2016-10-08T02:52:01Z</time></trkpt>
<trkpt lat="29.725785" lon="94.305257">
<time>2016-10-08T02:52:02Z</time></trkpt>
<trkpt lat="29.726116" lon="94.304369">
<time>2016-10-08T02:52:03Z</time></trkpt>
<trkpt lat="29.726337" lon="94.303809">
<time>2016-10-08T02:52:04Z</time></trkpt>
<trkpt lat="29.726558" lon="94.30327">
<time>2016-10-08T02:52:05Z</time></trkpt>
<trkpt lat="29.726859" lon="94.302392">
<time>2016-10-08T02:52:06Z</time></trkpt>
<trkpt lat="29.727161" lon="94.301603">
<time>2016-10-08T02:52:07Z</time></trkpt>
<trkpt lat="29.727432" lon="94.300904">
<time>2016-10-08T02:52:08Z</time></trkpt>
<trkpt lat="29.727703" lon="94.300175">
<time>2016-10-08T02:52:09Z</time></trkpt>
<trkpt lat="29.728014" lon="94.299346">
<time>2016-10-08T02:52:10Z</time></trkpt>
<trkpt lat="29.728245" lon="94.298757">
<time>2016-10-08T02:52:11Z</time></trkpt>
<trkpt lat="29.728486" lon="94.298118">
<time>2016-10-08T02:52:12Z</time></trkpt>
<trkpt lat="29.728757" lon="94.297399">
<time>2016-10-08T02:52:13Z</time></trkpt>
<trkpt lat="29.728998" lon="94.29676">
<time>2016-10-08T02:52:14Z</time></trkpt>
<trkpt lat="29.729219" lon="94.296181">
<time>2016-10-08T02:52:15Z</time></trkpt>
<trkpt lat="29.72943" lon="94.295621">
<time>2016-10-08T02:52:16Z</time></trkpt>
<trkpt lat="29.729661" lon="94.295022">
<time>2016-10-08T02:52:17Z</time></trkpt>
<trkpt lat="29.729932" lon="94.294303">
<time>2016-10-08T02:52:18Z</time></trkpt>
<trkpt lat="29.730243" lon="94.293454">
<time>2016-10-08T02:52:19Z</time></trkpt>
<trkpt lat="29.730554" lon="94.292645">
<time>2016-10-08T02:52:20Z</time></trkpt>
<trkpt lat="29.730825" lon="94.291926">
<time>2016-10-08T02:52:21Z</time></trkpt>
<trkpt lat="29.731126" lon="94.291147">
<time>2016-10-08T02:52:22Z</time></trkpt>
<trkpt lat="29.731357" lon="94.290538">
<time>2016-10-08T02:52:23Z</time></trkpt>
<trkpt lat="29.731518" lon="94.290099">
<time>2016-10-08T02:52:24Z</time></trkpt>
<trkpt lat="29.731638" lon="94.289799">
<time>2016-10-08T02:52:25Z</time></trkpt>
<trkpt lat="29.731749" lon="94.289529">
<time>2016-10-08T02:52:26Z</time></trkpt>
<trkpt lat="29.731869" lon="94.28936">
<time>2016-10-08T02:52:27Z</time></trkpt>
<trkpt lat="29.732009" lon="94.28922">
<time>2016-10-08T02:52:28Z</time></trkpt>
<trkpt lat="29.732199" lon="94.28908">
<time>2016-10-08T02:52:29Z</time></trkpt>
<trkpt lat="29.732399" lon="94.28894">
<time>2016-10-08T02:52:30Z</time></trkpt>
<trkpt lat="29.73273" lon="94.28872">
<time>2016-10-08T02:52:31Z</time></trkpt>
<trkpt lat="29.73315" lon="94.288421">
<time>2016-10-08T02:52:32Z</time></trkpt>
<trkpt lat="29.73361" lon="94.288111">
<time>2016-10-08T02:52:33Z</time></trkpt>
<trkpt lat="29.73385" lon="94.287941">
<time>2016-10-08T02:52:34Z</time></trkpt>
<trkpt lat="29.734061" lon="94.287801">
<time>2016-10-08T02:52:35Z</time></trkpt>
<trkpt lat="29.734251" lon="94.287671">
<time>2016-10-08T02:52:36Z</time></trkpt>
<trkpt lat="29.734421" lon="94.287572">
<time>2016-10-08T02:52:37Z</time></trkpt>
<trkpt lat="29.734591" lon="94.287462">
<time>2016-10-08T02:52:38Z</time></trkpt>
<trkpt lat="29.734771" lon="94.287372">
<time>2016-10-08T02:52:39Z</time></trkpt>
<trkpt lat="29.734901" lon="94.287322">
<time>2016-10-08T02:52:40Z</time></trkpt>
<trkpt lat="29.735051" lon="94.287272">
<time>2016-10-08T02:52:41Z</time></trkpt>
<trkpt lat="29.735231" lon="94.287222">
<time>2016-10-08T02:52:42Z</time></trkpt>
<trkpt lat="29.735431" lon="94.287172">
<time>2016-10-08T02:52:43Z</time></trkpt>
<trkpt lat="29.735561" lon="94.287142">
<time>2016-10-08T02:52:44Z</time></trkpt>
<trkpt lat="29.735861" lon="94.287062">
<time>2016-10-08T02:52:45Z</time></trkpt>
<trkpt lat="29.736071" lon="94.287002">
<time>2016-10-08T02:52:46Z</time></trkpt>
<trkpt lat="29.736251" lon="94.286952">
<time>2016-10-08T02:52:47Z</time></trkpt>
<trkpt lat="29.736431" lon="94.286912">
<time>2016-10-08T02:52:48Z</time></trkpt>
<trkpt lat="29.736601" lon="94.286862">
<time>2016-10-08T02:52:49Z</time></trkpt>
<trkpt lat="29.736772" lon="94.286822">
<time>2016-10-08T02:52:50Z</time></trkpt>
<trkpt lat="29.736942" lon="94.286772">
<time>2016-10-08T02:52:51Z</time></trkpt>
<trkpt lat="29.737082" lon="94.286742">
<time>2016-10-08T02:52:52Z</time></trkpt>
<trkpt lat="29.737252" lon="94.286692">
<time>2016-10-08T02:52:53Z</time></trkpt>
<trkpt lat="29.737522" lon="94.286623">
<time>2016-10-08T02:52:54Z</time></trkpt>
<trkpt lat="29.737682" lon="94.286583">
<time>2016-10-08T02:52:55Z</time></trkpt>
<trkpt lat="29.737862" lon="94.286533">
<time>2016-10-08T02:52:56Z</time></trkpt>
<trkpt lat="29.738042" lon="94.286493">
<time>2016-10-08T02:52:57Z</time></trkpt>
<trkpt lat="29.738222" lon="94.286443">
<time>2016-10-08T02:52:58Z</time></trkpt>
<trkpt lat="29.738382" lon="94.286403">
<time>2016-10-08T02:52:59Z</time></trkpt>
<trkpt lat="29.738582" lon="94.286363">
<time>2016-10-08T02:53:00Z</time></trkpt>
<trkpt lat="29.738792" lon="94.286343">
<time>2016-10-08T02:53:01Z</time></trkpt>
<trkpt lat="29.739032" lon="94.286313">
<time>2016-10-08T02:53:02Z</time></trkpt>
<trkpt lat="29.739542" lon="94.286293">
<time>2016-10-08T02:53:03Z</time></trkpt>
<trkpt lat="29.739852" lon="94.286283">
<time>2016-10-08T02:53:04Z</time></trkpt>
<trkpt lat="29.740292" lon="94.286263">
<time>2016-10-08T02:53:05Z</time></trkpt>
<trkpt lat="29.740712" lon="94.286243">
<time>2016-10-08T02:53:06Z</time></trkpt>
<trkpt lat="29.741102" lon="94.286233">
<time>2016-10-08T02:53:07Z</time></trkpt>
<trkpt lat="29.741352" lon="94.286223">
<time>2016-10-08T02:53:08Z</time></trkpt>
<trkpt lat="29.741582" lon="94.286213">
<time>2016-10-08T02:53:09Z</time></trkpt>
<trkpt lat="29.741842" lon="94.286203">
<time>2016-10-08T02:53:10Z</time></trkpt>
<trkpt lat="29.742112" lon="94.286193">
<time>2016-10-08T02:53:11Z</time></trkpt>
<trkpt lat="29.742332" lon="94.286173">
<time>2016-10-08T02:53:12Z</time></trkpt>
<trkpt lat="29.742502" lon="94.286133">
<time>2016-10-08T02:53:13Z</time></trkpt>
<trkpt lat="29.742662" lon="94.286073">
<time>2016-10-08T02:53:14Z</time></trkpt>
<trkpt lat="29.742802" lon="94.285973">
<time>2016-10-08T02:53:15Z</time></trkpt>
<trkpt lat="29.742982" lon="94.285833">
<time>2016-10-08T02:53:16Z</time></trkpt>
<trkpt lat="29.743222" lon="94.285604">
<time>2016-10-08T02:53:17Z</time></trkpt>
<trkpt lat="29.743863" lon="94.284994">
<time>2016-10-08T02:53:18Z</time></trkpt>
<trkpt lat="29.744323" lon="94.284575">
<time>2016-10-08T02:53:19Z</time></trkpt>
<trkpt lat="29.744393" lon="94.284495">
<time>2016-10-08T02:53:20Z</time></trkpt>
<trkpt lat="29.744474" lon="94.284385">
<time>2016-10-08T02:53:21Z</time></trkpt>
<trkpt lat="29.744614" lon="94.284165">
<time>2016-10-08T02:53:22Z</time></trkpt>
<trkpt lat="29.744774" lon="94.283895">
<time>2016-10-08T02:53:23Z</time></trkpt>
<trkpt lat="29.744964" lon="94.283586">
<time>2016-10-08T02:53:24Z</time></trkpt>
<trkpt lat="29.745155" lon="94.283266">
<time>2016-10-08T02:53:25Z</time></trkpt>
<trkpt lat="29.745315" lon="94.282936">
<time>2016-10-08T02:53:26Z</time></trkpt>
<trkpt lat="29.745536" lon="94.282397">
<time>2016-10-08T02:53:27Z</time></trkpt>
<trkpt lat="29.745766" lon="94.281847">
<time>2016-10-08T02:53:28Z</time></trkpt>
<trkpt lat="29.746007" lon="94.281348">
<time>2016-10-08T02:53:29Z</time></trkpt>
<trkpt lat="29.746197" lon="94.280998">
<time>2016-10-08T02:53:30Z</time></trkpt>
<trkpt lat="29.746348" lon="94.280738">
<time>2016-10-08T02:53:31Z</time></trkpt>
<trkpt lat="29.746518" lon="94.280459">
<time>2016-10-08T02:53:32Z</time></trkpt>
<trkpt lat="29.746628" lon="94.280239">
<time>2016-10-08T02:53:33Z</time></trkpt>
<trkpt lat="29.746678" lon="94.280079">
<time>2016-10-08T02:53:34Z</time></trkpt>
<trkpt lat="29.746699" lon="94.279879">
<time>2016-10-08T02:53:35Z</time></trkpt>
<trkpt lat="29.746729" lon="94.279729">
<time>2016-10-08T02:53:36Z</time></trkpt>
<trkpt lat="29.746759" lon="94.279589">
<time>2016-10-08T02:53:37Z</time></trkpt>
<trkpt lat="29.746819" lon="94.279429">
<time>2016-10-08T02:53:38Z</time></trkpt>
<trkpt lat="29.746939" lon="94.27914">
<time>2016-10-08T02:53:39Z</time></trkpt>
<trkpt lat="29.74702" lon="94.27887">
<time>2016-10-08T02:53:40Z</time></trkpt>
<trkpt lat="29.74713" lon="94.27843">
<time>2016-10-08T02:53:41Z</time></trkpt>
<trkpt lat="29.74718" lon="94.27825">
<time>2016-10-08T02:53:42Z</time></trkpt>
<trkpt lat="29.747291" lon="94.278011">
<time>2016-10-08T02:53:43Z</time></trkpt>
<trkpt lat="29.747421" lon="94.277741">
<time>2016-10-08T02:53:44Z</time></trkpt>
<trkpt lat="29.747791" lon="94.277041">
<time>2016-10-08T02:53:45Z</time></trkpt>
<trkpt lat="29.747902" lon="94.276832">
<time>2016-10-08T02:53:46Z</time></trkpt>
<trkpt lat="29.748072" lon="94.276432">
<time>2016-10-08T02:53:47Z</time></trkpt>
<trkpt lat="29.748142" lon="94.276262">
<time>2016-10-08T02:53:48Z</time></trkpt>
<trkpt lat="29.748262" lon="94.276102">
<time>2016-10-08T02:53:49Z</time></trkpt>
<trkpt lat="29.748423" lon="94.275932">
<time>2016-10-08T02:53:50Z</time></trkpt>
<trkpt lat="29.748623" lon="94.275712">
<time>2016-10-08T02:53:51Z</time></trkpt>
<trkpt lat="29.748913" lon="94.275433">
<time>2016-10-08T02:53:52Z</time></trkpt>
<trkpt lat="29.749083" lon="94.275253">
<time>2016-10-08T02:53:53Z</time></trkpt>
<trkpt lat="29.749203" lon="94.275063">
<time>2016-10-08T02:53:54Z</time></trkpt>
<trkpt lat="29.749354" lon="94.274753">
<time>2016-10-08T02:53:55Z</time></trkpt>
<trkpt lat="29.749514" lon="94.274373">
<time>2016-10-08T02:53:56Z</time></trkpt>
<trkpt lat="29.749584" lon="94.274133">
<time>2016-10-08T02:53:57Z</time></trkpt>
<trkpt lat="29.749644" lon="94.273834">
<time>2016-10-08T02:53:58Z</time></trkpt>
<trkpt lat="29.749695" lon="94.273404">
<time>2016-10-08T02:53:59Z</time></trkpt>
<trkpt lat="29.749735" lon="94.272894">
<time>2016-10-08T02:54:00Z</time></trkpt>
<trkpt lat="29.749786" lon="94.272335">
<time>2016-10-08T02:54:01Z</time></trkpt>
<trkpt lat="29.749867" lon="94.271325">
<time>2016-10-08T02:54:02Z</time></trkpt>
<trkpt lat="29.749947" lon="94.270286">
<time>2016-10-08T02:54:03Z</time></trkpt>
<trkpt lat="29.750018" lon="94.269426">
<time>2016-10-08T02:54:04Z</time></trkpt>
<trkpt lat="29.750058" lon="94.269046">
<time>2016-10-08T02:54:05Z</time></trkpt>
<trkpt lat="29.750068" lon="94.268946">
<time>2016-10-08T02:54:06Z</time></trkpt>
<trkpt lat="29.750078" lon="94.268846">
<time>2016-10-08T02:54:07Z</time></trkpt>
<trkpt lat="29.750079" lon="94.268776">
<time>2016-10-08T02:54:08Z</time></trkpt>
<trkpt lat="29.750089" lon="94.268696">
<time>2016-10-08T02:54:09Z</time></trkpt>
<trkpt lat="29.750099" lon="94.268546">
<time>2016-10-08T02:54:10Z</time></trkpt>
<trkpt lat="29.750109" lon="94.268467">
<time>2016-10-08T02:54:11Z</time></trkpt>
<trkpt lat="29.750119" lon="94.268357">
<time>2016-10-08T02:54:12Z</time></trkpt>
<trkpt lat="29.750129" lon="94.268247">
<time>2016-10-08T02:54:13Z</time></trkpt>
<trkpt lat="29.750139" lon="94.268057">
<time>2016-10-08T02:54:14Z</time></trkpt>
<trkpt lat="29.750149" lon="94.267927">
<time>2016-10-08T02:54:15Z</time></trkpt>
<trkpt lat="29.750159" lon="94.267817">
<time>2016-10-08T02:54:16Z</time></trkpt>
<trkpt lat="29.750169" lon="94.267647">
<time>2016-10-08T02:54:17Z</time></trkpt>
<trkpt lat="29.750179" lon="94.267537">
<time>2016-10-08T02:54:18Z</time></trkpt>
<trkpt lat="29.7502" lon="94.267347">
<time>2016-10-08T02:54:19Z</time></trkpt>
<trkpt lat="29.75021" lon="94.267207">
<time>2016-10-08T02:54:20Z</time></trkpt>
<trkpt lat="29.75022" lon="94.267087">
<time>2016-10-08T02:54:21Z</time></trkpt>
<trkpt lat="29.75024" lon="94.266907">
<time>2016-10-08T02:54:22Z</time></trkpt>
<trkpt lat="29.75025" lon="94.266797">
<time>2016-10-08T02:54:23Z</time></trkpt>
<trkpt lat="29.75026" lon="94.266677">
<time>2016-10-08T02:54:24Z</time></trkpt>
<trkpt lat="29.75027" lon="94.266537">
<time>2016-10-08T02:54:25Z</time></trkpt>
<trkpt lat="29.75028" lon="94.266387">
<time>2016-10-08T02:54:26Z</time></trkpt>
<trkpt lat="29.75029" lon="94.266197">
<time>2016-10-08T02:54:27Z</time></trkpt>
<trkpt lat="29.7503" lon="94.266057">
<time>2016-10-08T02:54:28Z</time></trkpt>
<trkpt lat="29.75032" lon="94.265897">
<time>2016-10-08T02:54:29Z</time></trkpt>
<trkpt lat="29.750331" lon="94.265698">
<time>2016-10-08T02:54:30Z</time></trkpt>
<trkpt lat="29.750341" lon="94.265568">
<time>2016-10-08T02:54:31Z</time></trkpt>
<trkpt lat="29.750351" lon="94.265428">
<time>2016-10-08T02:54:32Z</time></trkpt>
<trkpt lat="29.750371" lon="94.265248">
<time>2016-10-08T02:54:33Z</time></trkpt>
<trkpt lat="29.750381" lon="94.265118">
<time>2016-10-08T02:54:34Z</time></trkpt>
<trkpt lat="29.750391" lon="94.264938">
<time>2016-10-08T02:54:35Z</time></trkpt>
<trkpt lat="29.750411" lon="94.264788">
<time>2016-10-08T02:54:36Z</time></trkpt>
<trkpt lat="29.750421" lon="94.264598">
<time>2016-10-08T02:54:37Z</time></trkpt>
<trkpt lat="29.750441" lon="94.264338">
<time>2016-10-08T02:54:38Z</time></trkpt>
<trkpt lat="29.750452" lon="94.264188">
<time>2016-10-08T02:54:39Z</time></trkpt>
<trkpt lat="29.750482" lon="94.263868">
<time>2016-10-08T02:54:40Z</time></trkpt>
<trkpt lat="29.750512" lon="94.263528">
<time>2016-10-08T02:54:41Z</time></trkpt>
<trkpt lat="29.750522" lon="94.263338">
<time>2016-10-08T02:54:42Z</time></trkpt>
<trkpt lat="29.750542" lon="94.263148">
<time>2016-10-08T02:54:43Z</time></trkpt>
<trkpt lat="29.750562" lon="94.262868">
<time>2016-10-08T02:54:44Z</time></trkpt>
<trkpt lat="29.750572" lon="94.262708">
<time>2016-10-08T02:54:45Z</time></trkpt>
<trkpt lat="29.750602" lon="94.262408">
<time>2016-10-08T02:54:46Z</time></trkpt>
<trkpt lat="29.750623" lon="94.262238">
<time>2016-10-08T02:54:47Z</time></trkpt>
<trkpt lat="29.750633" lon="94.262108">
<time>2016-10-08T02:54:48Z</time></trkpt>
<trkpt lat="29.750643" lon="94.261958">
<time>2016-10-08T02:54:49Z</time></trkpt>
<trkpt lat="29.750643" lon="94.261888">
<time>2016-10-08T02:54:50Z</time></trkpt>
<trkpt lat="29.750653" lon="94.261828">
<time>2016-10-08T02:54:51Z</time></trkpt>
<trkpt lat="29.750653" lon="94.261778">
<time>2016-10-08T02:54:52Z</time></trkpt>
<trkpt lat="29.750663" lon="94.261688">
<time>2016-10-08T02:54:53Z</time></trkpt>
<trkpt lat="29.750673" lon="94.261548">
<time>2016-10-08T02:54:54Z</time></trkpt>
<trkpt lat="29.750683" lon="94.261418">
<time>2016-10-08T02:54:55Z</time></trkpt>
<trkpt lat="29.750693" lon="94.261319">
<time>2016-10-08T02:54:56Z</time></trkpt>
<trkpt lat="29.750703" lon="94.261249">
<time>2016-10-08T02:54:57Z</time></trkpt>
<trkpt lat="29.750713" lon="94.261169">
<time>2016-10-08T02:54:58Z</time></trkpt>
<trkpt lat="29.750713" lon="94.261099">
<time>2016-10-08T02:54:59Z</time></trkpt>
<trkpt lat="29.750723" lon="94.261029">
<time>2016-10-08T02:55:00Z</time></trkpt>
<trkpt lat="29.750723" lon="94.260939">
<time>2016-10-08T02:55:01Z</time></trkpt>
<trkpt lat="29.750733" lon="94.260849">
<time>2016-10-08T02:55:02Z</time></trkpt>
<trkpt lat="29.750733" lon="94.260789">
<time>2016-10-08T02:55:03Z</time></trkpt>
<trkpt lat="29.750753" lon="94.260639">
<time>2016-10-08T02:55:04Z</time></trkpt>
<trkpt lat="29.750763" lon="94.260539">
<time>2016-10-08T02:55:05Z</time></trkpt>
<trkpt lat="29.750773" lon="94.260439">
<time>2016-10-08T02:55:06Z</time></trkpt>
<trkpt lat="29.750773" lon="94.260369">
<time>2016-10-08T02:55:07Z</time></trkpt>
<trkpt lat="29.750783" lon="94.260249">
<time>2016-10-08T02:55:08Z</time></trkpt>
<trkpt lat="29.750794" lon="94.260189">
<time>2016-10-08T02:55:09Z</time></trkpt>
<trkpt lat="29.750794" lon="94.260149">
<time>2016-10-08T02:55:10Z</time></trkpt>
<trkpt lat="29.750804" lon="94.260059">
<time>2016-10-08T02:55:11Z</time></trkpt>
<trkpt lat="29.750804" lon="94.260019">
<time>2016-10-08T02:55:12Z</time></trkpt>
<trkpt lat="29.750804" lon="94.259979">
<time>2016-10-08T02:55:13Z</time></trkpt>
<trkpt lat="29.750814" lon="94.259919">
<time>2016-10-08T02:55:14Z</time></trkpt>
<trkpt lat="29.750814" lon="94.259879">
<time>2016-10-08T02:55:15Z</time></trkpt>
<trkpt lat="29.750814" lon="94.259839">
<time>2016-10-08T02:55:16Z</time></trkpt>
<trkpt lat="29.750824" lon="94.259779">
<time>2016-10-08T02:55:17Z</time></trkpt>
<trkpt lat="29.750824" lon="94.259739">
<time>2016-10-08T02:55:18Z</time></trkpt>
<trkpt lat="29.750824" lon="94.259689">
<time>2016-10-08T02:55:19Z</time></trkpt>
<trkpt lat="29.750834" lon="94.259639">
<time>2016-10-08T02:55:20Z</time></trkpt>
<trkpt lat="29.750834" lon="94.259599">
<time>2016-10-08T02:55:21Z</time></trkpt>
<trkpt lat="29.750844" lon="94.259459">
<time>2016-10-08T02:55:22Z</time></trkpt>
<trkpt lat="29.750854" lon="94.259389">
<time>2016-10-08T02:55:23Z</time></trkpt>
<trkpt lat="29.750864" lon="94.259319">
<time>2016-10-08T02:55:24Z</time></trkpt>
<trkpt lat="29.750884" lon="94.259039">
<time>2016-10-08T02:55:25Z</time></trkpt>
<trkpt lat="29.750894" lon="94.258959">
<time>2016-10-08T02:55:26Z</time></trkpt>
<trkpt lat="29.750894" lon="94.258879">
<time>2016-10-08T02:55:27Z</time></trkpt>
<trkpt lat="29.750904" lon="94.258809">
<time>2016-10-08T02:55:28Z</time></trkpt>
<trkpt lat="29.750904" lon="94.258749">
<time>2016-10-08T02:55:29Z</time></trkpt>
<trkpt lat="29.750914" lon="94.258689">
<time>2016-10-08T02:55:30Z</time></trkpt>
<trkpt lat="29.750914" lon="94.258639">
<time>2016-10-08T02:55:31Z</time></trkpt>
<trkpt lat="29.750924" lon="94.258589">
<time>2016-10-08T02:55:32Z</time></trkpt>
<trkpt lat="29.750924" lon="94.258559">
<time>2016-10-08T02:55:33Z</time></trkpt>
<trkpt lat="29.750924" lon="94.258499">
<time>2016-10-08T02:55:34Z</time></trkpt>
<trkpt lat="29.750934" lon="94.258439">
<time>2016-10-08T02:55:35Z</time></trkpt>
<trkpt lat="29.750934" lon="94.258399">
<time>2016-10-08T02:55:36Z</time></trkpt>
<trkpt lat="29.750934" lon="94.258339">
<time>2016-10-08T02:55:37Z</time></trkpt>
<trkpt lat="29.750944" lon="94.258279">
<time>2016-10-08T02:55:38Z</time></trkpt>
<trkpt lat="29.750944" lon="94.258239">
<time>2016-10-08T02:55:39Z</time></trkpt>
<trkpt lat="29.750964" lon="94.258029">
<time>2016-10-08T02:55:40Z</time></trkpt>
<trkpt lat="29.750964" lon="94.257929">
<time>2016-10-08T02:55:41Z</time></trkpt>
<trkpt lat="29.750974" lon="94.257829">
<time>2016-10-08T02:55:42Z</time></trkpt>
<trkpt lat="29.750984" lon="94.257759">
<time>2016-10-08T02:55:43Z</time></trkpt>
<trkpt lat="29.750994" lon="94.257689">
<time>2016-10-08T02:55:44Z</time></trkpt>
<trkpt lat="29.750994" lon="94.257619">
<time>2016-10-08T02:55:45Z</time></trkpt>
<trkpt lat="29.751004" lon="94.257589">
<time>2016-10-08T02:55:46Z</time></trkpt>
<trkpt lat="29.751005" lon="94.257549">
<time>2016-10-08T02:55:47Z</time></trkpt>
<trkpt lat="29.751005" lon="94.257519">
<time>2016-10-08T02:55:48Z</time></trkpt>
<trkpt lat="29.751005" lon="94.257499">
<time>2016-10-08T02:55:49Z</time></trkpt>
<trkpt lat="29.751015" lon="94.257449">
<time>2016-10-08T02:55:50Z</time></trkpt>
<trkpt lat="29.751035" lon="94.257199">
<time>2016-10-08T02:55:51Z</time></trkpt>
<trkpt lat="29.751035" lon="94.257159">
<time>2016-10-08T02:55:52Z</time></trkpt>
<trkpt lat="29.751045" lon="94.257109">
<time>2016-10-08T02:55:53Z</time></trkpt>
<trkpt lat="29.751055" lon="94.256999">
<time>2016-10-08T02:55:54Z</time></trkpt>
<trkpt lat="29.751055" lon="94.256889">
<time>2016-10-08T02:55:55Z</time></trkpt>
<trkpt lat="29.751075" lon="94.256729">
<time>2016-10-08T02:55:56Z</time></trkpt>
<trkpt lat="29.751075" lon="94.256679">
<time>2016-10-08T02:55:57Z</time></trkpt>
<trkpt lat="29.751085" lon="94.256609">
<time>2016-10-08T02:55:58Z</time></trkpt>
<trkpt lat="29.751085" lon="94.256539">
<time>2016-10-08T02:55:59Z</time></trkpt>
<trkpt lat="29.751095" lon="94.256449">
<time>2016-10-08T02:56:00Z</time></trkpt>
<trkpt lat="29.751105" lon="94.256349">
<time>2016-10-08T02:56:01Z</time></trkpt>
<trkpt lat="29.751115" lon="94.256249">
<time>2016-10-08T02:56:02Z</time></trkpt>
<trkpt lat="29.751125" lon="94.256129">
<time>2016-10-08T02:56:03Z</time></trkpt>
<trkpt lat="29.751125" lon="94.256029">
<time>2016-10-08T02:56:04Z</time></trkpt>
<trkpt lat="29.751135" lon="94.255889">
<time>2016-10-08T02:56:05Z</time></trkpt>
<trkpt lat="29.751155" lon="94.255729">
<time>2016-10-08T02:56:06Z</time></trkpt>
<trkpt lat="29.751175" lon="94.255439">
<time>2016-10-08T02:56:07Z</time></trkpt>
<trkpt lat="29.751185" lon="94.255338">
<time>2016-10-08T02:56:08Z</time></trkpt>
<trkpt lat="29.751195" lon="94.255238">
<time>2016-10-08T02:56:09Z</time></trkpt>
<trkpt lat="29.751215" lon="94.254978">
<time>2016-10-08T02:56:10Z</time></trkpt>
<trkpt lat="29.751235" lon="94.254698">
<time>2016-10-08T02:56:11Z</time></trkpt>
<trkpt lat="29.751265" lon="94.254308">
<time>2016-10-08T02:56:12Z</time></trkpt>
<trkpt lat="29.751285" lon="94.254018">
<time>2016-10-08T02:56:13Z</time></trkpt>
<trkpt lat="29.751315" lon="94.253698">
<time>2016-10-08T02:56:14Z</time></trkpt>
<trkpt lat="29.751336" lon="94.253468">
<time>2016-10-08T02:56:15Z</time></trkpt>
<trkpt lat="29.751376" lon="94.253038">
<time>2016-10-08T02:56:16Z</time></trkpt>
<trkpt lat="29.751406" lon="94.252578">
<time>2016-10-08T02:56:17Z</time></trkpt>
<trkpt lat="29.751446" lon="94.252198">
<time>2016-10-08T02:56:18Z</time></trkpt>
<trkpt lat="29.751486" lon="94.251868">
<time>2016-10-08T02:56:19Z</time></trkpt>
<trkpt lat="29.751536" lon="94.251558">
<time>2016-10-08T02:56:20Z</time></trkpt>
<trkpt lat="29.751616" lon="94.251138">
<time>2016-10-08T02:56:21Z</time></trkpt>
<trkpt lat="29.751736" lon="94.250607">
<time>2016-10-08T02:56:22Z</time></trkpt>
<trkpt lat="29.751866" lon="94.250027">
<time>2016-10-08T02:56:23Z</time></trkpt>
<trkpt lat="29.751876" lon="94.249997">
<time>2016-10-08T02:56:24Z</time></trkpt>
<trkpt lat="29.751906" lon="94.249867">
<time>2016-10-08T02:56:25Z</time></trkpt>
<trkpt lat="29.751936" lon="94.249737">
<time>2016-10-08T02:56:26Z</time></trkpt>
<trkpt lat="29.751986" lon="94.249497">
<time>2016-10-08T02:56:27Z</time></trkpt>
<trkpt lat="29.752026" lon="94.249337">
<time>2016-10-08T02:56:28Z</time></trkpt>
<trkpt lat="29.752076" lon="94.249097">
<time>2016-10-08T02:56:29Z</time></trkpt>
<trkpt lat="29.752136" lon="94.248837">
<time>2016-10-08T02:56:30Z</time></trkpt>
<trkpt lat="29.752186" lon="94.248627">
<time>2016-10-08T02:56:31Z</time></trkpt>
<trkpt lat="29.752246" lon="94.248356">
<time>2016-10-08T02:56:32Z</time></trkpt>
<trkpt lat="29.752306" lon="94.248106">
<time>2016-10-08T02:56:33Z</time></trkpt>
<trkpt lat="29.752356" lon="94.247856">
<time>2016-10-08T02:56:34Z</time></trkpt>
<trkpt lat="29.752386" lon="94.247746">
<time>2016-10-08T02:56:35Z</time></trkpt>
<trkpt lat="29.752416" lon="94.247576">
<time>2016-10-08T02:56:36Z</time></trkpt>
<trkpt lat="29.752466" lon="94.247376">
<time>2016-10-08T02:56:37Z</time></trkpt>
<trkpt lat="29.752496" lon="94.247246">
<time>2016-10-08T02:56:38Z</time></trkpt>
<trkpt lat="29.752546" lon="94.247036">
<time>2016-10-08T02:56:39Z</time></trkpt>
<trkpt lat="29.752586" lon="94.246876">
<time>2016-10-08T02:56:40Z</time></trkpt>
<trkpt lat="29.752616" lon="94.246756">
<time>2016-10-08T02:56:41Z</time></trkpt>
<trkpt lat="29.752646" lon="94.246586">
<time>2016-10-08T02:56:42Z</time></trkpt>
<trkpt lat="29.752676" lon="94.246486">
<time>2016-10-08T02:56:43Z</time></trkpt>
<trkpt lat="29.752716" lon="94.246305">
<time>2016-10-08T02:56:44Z</time></trkpt>
<trkpt lat="29.752766" lon="94.246075">
<time>2016-10-08T02:56:45Z</time></trkpt>
<trkpt lat="29.752806" lon="94.245945">
<time>2016-10-08T02:56:46Z</time></trkpt>
<trkpt lat="29.752856" lon="94.245725">
<time>2016-10-08T02:56:47Z</time></trkpt>
<trkpt lat="29.752886" lon="94.245565">
<time>2016-10-08T02:56:48Z</time></trkpt>
<trkpt lat="29.752936" lon="94.245345">
<time>2016-10-08T02:56:49Z</time></trkpt>
<trkpt lat="29.752986" lon="94.245125">
<time>2016-10-08T02:56:50Z</time></trkpt>
<trkpt lat="29.753035" lon="94.244925">
<time>2016-10-08T02:56:51Z</time></trkpt>
<trkpt lat="29.753085" lon="94.244735">
<time>2016-10-08T02:56:52Z</time></trkpt>
<trkpt lat="29.753115" lon="94.244574">
<time>2016-10-08T02:56:53Z</time></trkpt>
<trkpt lat="29.753165" lon="94.244384">
<time>2016-10-08T02:56:54Z</time></trkpt>
<trkpt lat="29.753215" lon="94.244184">
<time>2016-10-08T02:56:55Z</time></trkpt>
<trkpt lat="29.753265" lon="94.243924">
<time>2016-10-08T02:56:56Z</time></trkpt>
<trkpt lat="29.753305" lon="94.243784">
<time>2016-10-08T02:56:57Z</time></trkpt>
<trkpt lat="29.753335" lon="94.243634">
<time>2016-10-08T02:56:58Z</time></trkpt>
<trkpt lat="29.753385" lon="94.243474">
<time>2016-10-08T02:56:59Z</time></trkpt>
<trkpt lat="29.753415" lon="94.243354">
<time>2016-10-08T02:57:00Z</time></trkpt>
<trkpt lat="29.753455" lon="94.243224">
<time>2016-10-08T02:57:01Z</time></trkpt>
<trkpt lat="29.753505" lon="94.243074">
<time>2016-10-08T02:57:02Z</time></trkpt>
<trkpt lat="29.753565" lon="94.242913">
<time>2016-10-08T02:57:03Z</time></trkpt>
<trkpt lat="29.753625" lon="94.242763">
<time>2016-10-08T02:57:04Z</time></trkpt>
<trkpt lat="29.753705" lon="94.242583">
<time>2016-10-08T02:57:05Z</time></trkpt>
<trkpt lat="29.753955" lon="94.242023">
<time>2016-10-08T02:57:06Z</time></trkpt>
<trkpt lat="29.754165" lon="94.241572">
<time>2016-10-08T02:57:07Z</time></trkpt>
<trkpt lat="29.754275" lon="94.241332">
<time>2016-10-08T02:57:08Z</time></trkpt>
<trkpt lat="29.754345" lon="94.241202">
<time>2016-10-08T02:57:09Z</time></trkpt>
<trkpt lat="29.754524" lon="94.240812">
<time>2016-10-08T02:57:10Z</time></trkpt>
<trkpt lat="29.754644" lon="94.240542">
<time>2016-10-08T02:57:11Z</time></trkpt>
<trkpt lat="29.754804" lon="94.240191">
<time>2016-10-08T02:57:12Z</time></trkpt>
<trkpt lat="29.754904" lon="94.239961">
<time>2016-10-08T02:57:13Z</time></trkpt>
<trkpt lat="29.754974" lon="94.239811">
<time>2016-10-08T02:57:14Z</time></trkpt>
<trkpt lat="29.755034" lon="94.239661">
<time>2016-10-08T02:57:15Z</time></trkpt>
<trkpt lat="29.755084" lon="94.239511">
<time>2016-10-08T02:57:16Z</time></trkpt>
<trkpt lat="29.755154" lon="94.239311">
<time>2016-10-08T02:57:17Z</time></trkpt>
<trkpt lat="29.755194" lon="94.239211">
<time>2016-10-08T02:57:18Z</time></trkpt>
<trkpt lat="29.755214" lon="94.239131">
<time>2016-10-08T02:57:19Z</time></trkpt>
<trkpt lat="29.755244" lon="94.23905">
<time>2016-10-08T02:57:20Z</time></trkpt>
<trkpt lat="29.755274" lon="94.23895">
<time>2016-10-08T02:57:21Z</time></trkpt>
<trkpt lat="29.755294" lon="94.23885">
<time>2016-10-08T02:57:22Z</time></trkpt>
<trkpt lat="29.755314" lon="94.23876">
<time>2016-10-08T02:57:23Z</time></trkpt>
<trkpt lat="29.755334" lon="94.23866">
<time>2016-10-08T02:57:24Z</time></trkpt>
<trkpt lat="29.755354" lon="94.23855">
<time>2016-10-08T02:57:25Z</time></trkpt>
<trkpt lat="29.755363" lon="94.23846">
<time>2016-10-08T02:57:26Z</time></trkpt>
<trkpt lat="29.755383" lon="94.23833">
<time>2016-10-08T02:57:27Z</time></trkpt>
<trkpt lat="29.755383" lon="94.23826">
<time>2016-10-08T02:57:28Z</time></trkpt>
<trkpt lat="29.755383" lon="94.23817">
<time>2016-10-08T02:57:29Z</time></trkpt>
<trkpt lat="29.755383" lon="94.23808">
<time>2016-10-08T02:57:30Z</time></trkpt>
<trkpt lat="29.755383" lon="94.237939">
<time>2016-10-08T02:57:31Z</time></trkpt>
<trkpt lat="29.755373" lon="94.237779">
<time>2016-10-08T02:57:32Z</time></trkpt>
<trkpt lat="29.755363" lon="94.237559">
<time>2016-10-08T02:57:33Z</time></trkpt>
<trkpt lat="29.755333" lon="94.237229">
<time>2016-10-08T02:57:34Z</time></trkpt>
<trkpt lat="29.755303" lon="94.236929">
<time>2016-10-08T02:57:35Z</time></trkpt>
<trkpt lat="29.755273" lon="94.236528">
<time>2016-10-08T02:57:36Z</time></trkpt>
<trkpt lat="29.755222" lon="94.235948">
<time>2016-10-08T02:57:37Z</time></trkpt>
<trkpt lat="29.755192" lon="94.235517">
<time>2016-10-08T02:57:38Z</time></trkpt>
<trkpt lat="29.755162" lon="94.235147">
<time>2016-10-08T02:57:39Z</time></trkpt>
<trkpt lat="29.755132" lon="94.234686">
<time>2016-10-08T02:57:40Z</time></trkpt>
<trkpt lat="29.755102" lon="94.234246">
<time>2016-10-08T02:57:41Z</time></trkpt>
<trkpt lat="29.755081" lon="94.234016">
<time>2016-10-08T02:57:42Z</time></trkpt>
<trkpt lat="29.755051" lon="94.233595">
<time>2016-10-08T02:57:43Z</time></trkpt>
<trkpt lat="29.755031" lon="94.233265">
<time>2016-10-08T02:57:44Z</time></trkpt>
<trkpt lat="29.755001" lon="94.232904">
<time>2016-10-08T02:57:45Z</time></trkpt>
<trkpt lat="29.754981" lon="94.232594">
<time>2016-10-08T02:57:46Z</time></trkpt>
<trkpt lat="29.75495" lon="94.232084">
<time>2016-10-08T02:57:47Z</time></trkpt>
<trkpt lat="29.75492" lon="94.231613">
<time>2016-10-08T02:57:48Z</time></trkpt>
<trkpt lat="29.75487" lon="94.230892">
<time>2016-10-08T02:57:49Z</time></trkpt>
<trkpt lat="29.754859" lon="94.230622">
<time>2016-10-08T02:57:50Z</time></trkpt>
<trkpt lat="29.754859" lon="94.230392">
<time>2016-10-08T02:57:51Z</time></trkpt>
<trkpt lat="29.754869" lon="94.230121">
<time>2016-10-08T02:57:52Z</time></trkpt>
<trkpt lat="29.754899" lon="94.229821">
<time>2016-10-08T02:57:53Z</time></trkpt>
<trkpt lat="29.754959" lon="94.22937">
<time>2016-10-08T02:57:54Z</time></trkpt>
<trkpt lat="29.755008" lon="94.2291">
<time>2016-10-08T02:57:55Z</time></trkpt>
<trkpt lat="29.755058" lon="94.22881">
<time>2016-10-08T02:57:56Z</time></trkpt>
<trkpt lat="29.755118" lon="94.228449">
<time>2016-10-08T02:57:57Z</time></trkpt>
<trkpt lat="29.755207" lon="94.227848">
<time>2016-10-08T02:57:58Z</time></trkpt>
<trkpt lat="29.755247" lon="94.227608">
<time>2016-10-08T02:57:59Z</time></trkpt>
<trkpt lat="29.755297" lon="94.227308">
<time>2016-10-08T02:58:00Z</time></trkpt>
<trkpt lat="29.755386" lon="94.226717">
<time>2016-10-08T02:58:01Z</time></trkpt>
<trkpt lat="29.755406" lon="94.226567">
<time>2016-10-08T02:58:02Z</time></trkpt>
<trkpt lat="29.755426" lon="94.226436">
<time>2016-10-08T02:58:03Z</time></trkpt>
<trkpt lat="29.755456" lon="94.226316">
<time>2016-10-08T02:58:04Z</time></trkpt>
<trkpt lat="29.755476" lon="94.226216">
<time>2016-10-08T02:58:05Z</time></trkpt>
<trkpt lat="29.755506" lon="94.226106">
<time>2016-10-08T02:58:06Z</time></trkpt>
<trkpt lat="29.755546" lon="94.226016">
<time>2016-10-08T02:58:07Z</time></trkpt>
<trkpt lat="29.755576" lon="94.225936">
<time>2016-10-08T02:58:08Z</time></trkpt>
<trkpt lat="29.755616" lon="94.225856">
<time>2016-10-08T02:58:09Z</time></trkpt>
<trkpt lat="29.755676" lon="94.225725">
<time>2016-10-08T02:58:10Z</time></trkpt>
<trkpt lat="29.755716" lon="94.225655">
<time>2016-10-08T02:58:11Z</time></trkpt>
<trkpt lat="29.755775" lon="94.225545">
<time>2016-10-08T02:58:12Z</time></trkpt>
<trkpt lat="29.755885" lon="94.225365">
<time>2016-10-08T02:58:13Z</time></trkpt>
<trkpt lat="29.755995" lon="94.225175">
<time>2016-10-08T02:58:14Z</time></trkpt>
<trkpt lat="29.756105" lon="94.224984">
<time>2016-10-08T02:58:15Z</time></trkpt>
<trkpt lat="29.756195" lon="94.224814">
<time>2016-10-08T02:58:16Z</time></trkpt>
<trkpt lat="29.756265" lon="94.224684">
<time>2016-10-08T02:58:17Z</time></trkpt>
<trkpt lat="29.756325" lon="94.224584">
<time>2016-10-08T02:58:18Z</time></trkpt>
<trkpt lat="29.756374" lon="94.224494">
<time>2016-10-08T02:58:19Z</time></trkpt>
<trkpt lat="29.756464" lon="94.224333">
<time>2016-10-08T02:58:20Z</time></trkpt>
<trkpt lat="29.756524" lon="94.224213">
<time>2016-10-08T02:58:21Z</time></trkpt>
<trkpt lat="29.756574" lon="94.224123">
<time>2016-10-08T02:58:22Z</time></trkpt>
<trkpt lat="29.756634" lon="94.224013">
<time>2016-10-08T02:58:23Z</time></trkpt>
<trkpt lat="29.756704" lon="94.223853">
<time>2016-10-08T02:58:24Z</time></trkpt>
<trkpt lat="29.756784" lon="94.223672">
<time>2016-10-08T02:58:25Z</time></trkpt>
<trkpt lat="29.756864" lon="94.223452">
<time>2016-10-08T02:58:26Z</time></trkpt>
<trkpt lat="29.756923" lon="94.223292">
<time>2016-10-08T02:58:27Z</time></trkpt>
<trkpt lat="29.756983" lon="94.223112">
<time>2016-10-08T02:58:28Z</time></trkpt>
<trkpt lat="29.757043" lon="94.222921">
<time>2016-10-08T02:58:29Z</time></trkpt>
<trkpt lat="29.757103" lon="94.222771">
<time>2016-10-08T02:58:30Z</time></trkpt>
<trkpt lat="29.757143" lon="94.222641">
<time>2016-10-08T02:58:31Z</time></trkpt>
<trkpt lat="29.757203" lon="94.222481">
<time>2016-10-08T02:58:32Z</time></trkpt>
<trkpt lat="29.757252" lon="94.22232">
<time>2016-10-08T02:58:33Z</time></trkpt>
<trkpt lat="29.757312" lon="94.22216">
<time>2016-10-08T02:58:34Z</time></trkpt>
<trkpt lat="29.757372" lon="94.22199">
<time>2016-10-08T02:58:35Z</time></trkpt>
<trkpt lat="29.757462" lon="94.221709">
<time>2016-10-08T02:58:36Z</time></trkpt>
<trkpt lat="29.757522" lon="94.221529">
<time>2016-10-08T02:58:37Z</time></trkpt>
<trkpt lat="29.757581" lon="94.221319">
<time>2016-10-08T02:58:38Z</time></trkpt>
<trkpt lat="29.757621" lon="94.221139">
<time>2016-10-08T02:58:39Z</time></trkpt>
<trkpt lat="29.757651" lon="94.221018">
<time>2016-10-08T02:58:40Z</time></trkpt>
<trkpt lat="29.757661" lon="94.220958">
<time>2016-10-08T02:58:41Z</time></trkpt>
<trkpt lat="29.757661" lon="94.220898">
<time>2016-10-08T02:58:42Z</time></trkpt>
<trkpt lat="29.757671" lon="94.220818">
<time>2016-10-08T02:58:43Z</time></trkpt>
<trkpt lat="29.757681" lon="94.220738">
<time>2016-10-08T02:58:44Z</time></trkpt>
<trkpt lat="29.757681" lon="94.220628">
<time>2016-10-08T02:58:45Z</time></trkpt>
<trkpt lat="29.757691" lon="94.220487">
<time>2016-10-08T02:58:46Z</time></trkpt>
<trkpt lat="29.75769" lon="94.220367">
<time>2016-10-08T02:58:47Z</time></trkpt>
<trkpt lat="29.7577" lon="94.220177">
<time>2016-10-08T02:58:48Z</time></trkpt>
<trkpt lat="29.7577" lon="94.219957">
<time>2016-10-08T02:58:49Z</time></trkpt>
<trkpt lat="29.7577" lon="94.219686">
<time>2016-10-08T02:58:50Z</time></trkpt>
<trkpt lat="29.75771" lon="94.219476">
<time>2016-10-08T02:58:51Z</time></trkpt>
<trkpt lat="29.757709" lon="94.219316">
<time>2016-10-08T02:58:52Z</time></trkpt>
<trkpt lat="29.757719" lon="94.219135">
<time>2016-10-08T02:58:53Z</time></trkpt>
<trkpt lat="29.757719" lon="94.218855">
<time>2016-10-08T02:58:54Z</time></trkpt>
<trkpt lat="29.757729" lon="94.218614">
<time>2016-10-08T02:58:55Z</time></trkpt>
<trkpt lat="29.757738" lon="94.218394">
<time>2016-10-08T02:58:56Z</time></trkpt>
<trkpt lat="29.757738" lon="94.218184">
<time>2016-10-08T02:58:57Z</time></trkpt>
<trkpt lat="29.757738" lon="94.217993">
<time>2016-10-08T02:58:58Z</time></trkpt>
<trkpt lat="29.757748" lon="94.217843">
<time>2016-10-08T02:58:59Z</time></trkpt>
<trkpt lat="29.757748" lon="94.217703">
<time>2016-10-08T02:59:00Z</time></trkpt>
<trkpt lat="29.757757" lon="94.217593">
<time>2016-10-08T02:59:01Z</time></trkpt>
<trkpt lat="29.757767" lon="94.217543">
<time>2016-10-08T02:59:02Z</time></trkpt>
<trkpt lat="29.757777" lon="94.217482">
<time>2016-10-08T02:59:03Z</time></trkpt>
<trkpt lat="29.757787" lon="94.217392">
<time>2016-10-08T02:59:04Z</time></trkpt>
<trkpt lat="29.757817" lon="94.217262">
<time>2016-10-08T02:59:05Z</time></trkpt>
<trkpt lat="29.757857" lon="94.217142">
<time>2016-10-08T02:59:06Z</time></trkpt>
<trkpt lat="29.757877" lon="94.217042">
<time>2016-10-08T02:59:07Z</time></trkpt>
<trkpt lat="29.757937" lon="94.216851">
<time>2016-10-08T02:59:08Z</time></trkpt>
<trkpt lat="29.758006" lon="94.216671">
<time>2016-10-08T02:59:09Z</time></trkpt>
<trkpt lat="29.758066" lon="94.216481">
<time>2016-10-08T02:59:10Z</time></trkpt>
<trkpt lat="29.758156" lon="94.21624">
<time>2016-10-08T02:59:11Z</time></trkpt>
<trkpt lat="29.758216" lon="94.21605">
<time>2016-10-08T02:59:12Z</time></trkpt>
<trkpt lat="29.758275" lon="94.21587">
<time>2016-10-08T02:59:13Z</time></trkpt>
<trkpt lat="29.758335" lon="94.215679">
<time>2016-10-08T02:59:14Z</time></trkpt>
<trkpt lat="29.758415" lon="94.215449">
<time>2016-10-08T02:59:15Z</time></trkpt>
<trkpt lat="29.758485" lon="94.215239">
<time>2016-10-08T02:59:16Z</time></trkpt>
<trkpt lat="29.758584" lon="94.214918">
<time>2016-10-08T02:59:17Z</time></trkpt>
<trkpt lat="29.758684" lon="94.214647">
<time>2016-10-08T02:59:18Z</time></trkpt>
<trkpt lat="29.758744" lon="94.214467">
<time>2016-10-08T02:59:19Z</time></trkpt>
<trkpt lat="29.758804" lon="94.214287">
<time>2016-10-08T02:59:20Z</time></trkpt>
<trkpt lat="29.758853" lon="94.214137">
<time>2016-10-08T02:59:21Z</time></trkpt>
<trkpt lat="29.758893" lon="94.213996">
<time>2016-10-08T02:59:22Z</time></trkpt>
<trkpt lat="29.758933" lon="94.213866">
<time>2016-10-08T02:59:23Z</time></trkpt>
<trkpt lat="29.758973" lon="94.213726">
<time>2016-10-08T02:59:24Z</time></trkpt>
<trkpt lat="29.759003" lon="94.213616">
<time>2016-10-08T02:59:25Z</time></trkpt>
<trkpt lat="29.759023" lon="94.213505">
<time>2016-10-08T02:59:26Z</time></trkpt>
<trkpt lat="29.759033" lon="94.213445">
<time>2016-10-08T02:59:27Z</time></trkpt>
<trkpt lat="29.759032" lon="94.213355">
<time>2016-10-08T02:59:28Z</time></trkpt>
<trkpt lat="29.759032" lon="94.213295">
<time>2016-10-08T02:59:29Z</time></trkpt>
<trkpt lat="29.759032" lon="94.213245">
<time>2016-10-08T02:59:30Z</time></trkpt>
<trkpt lat="29.759012" lon="94.213145">
<time>2016-10-08T02:59:31Z</time></trkpt>
<trkpt lat="29.759002" lon="94.213065">
<time>2016-10-08T02:59:32Z</time></trkpt>
<trkpt lat="29.758982" lon="94.212994">
<time>2016-10-08T02:59:33Z</time></trkpt>
<trkpt lat="29.758962" lon="94.212934">
<time>2016-10-08T02:59:34Z</time></trkpt>
<trkpt lat="29.758892" lon="94.212774">
<time>2016-10-08T02:59:35Z</time></trkpt>
<trkpt lat="29.758832" lon="94.212624">
<time>2016-10-08T02:59:36Z</time></trkpt>
<trkpt lat="29.758771" lon="94.212483">
<time>2016-10-08T02:59:37Z</time></trkpt>
<trkpt lat="29.758721" lon="94.212343">
<time>2016-10-08T02:59:38Z</time></trkpt>
<trkpt lat="29.758631" lon="94.212123">
<time>2016-10-08T02:59:39Z</time></trkpt>
<trkpt lat="29.758571" lon="94.211983">
<time>2016-10-08T02:59:40Z</time></trkpt>
<trkpt lat="29.75848" lon="94.211782">
<time>2016-10-08T02:59:41Z</time></trkpt>
<trkpt lat="29.75843" lon="94.211692">
<time>2016-10-08T02:59:42Z</time></trkpt>
<trkpt lat="29.75836" lon="94.211562">
<time>2016-10-08T02:59:43Z</time></trkpt>
<trkpt lat="29.75831" lon="94.211472">
<time>2016-10-08T02:59:44Z</time></trkpt>
<trkpt lat="29.75827" lon="94.211421">
<time>2016-10-08T02:59:45Z</time></trkpt>
<trkpt lat="29.75823" lon="94.211361">
<time>2016-10-08T02:59:46Z</time></trkpt>
<trkpt lat="29.75818" lon="94.211291">
<time>2016-10-08T02:59:47Z</time></trkpt>
<trkpt lat="29.75812" lon="94.211211">
<time>2016-10-08T02:59:48Z</time></trkpt>
<trkpt lat="29.75804" lon="94.211121">
<time>2016-10-08T02:59:49Z</time></trkpt>
<trkpt lat="29.7579" lon="94.210961">
<time>2016-10-08T02:59:50Z</time></trkpt>
<trkpt lat="29.757789" lon="94.21083">
<time>2016-10-08T02:59:51Z</time></trkpt>
<trkpt lat="29.757679" lon="94.2107">
<time>2016-10-08T02:59:52Z</time></trkpt>
<trkpt lat="29.757499" lon="94.21049">
<time>2016-10-08T02:59:53Z</time></trkpt>
<trkpt lat="29.757369" lon="94.210349">
<time>2016-10-08T02:59:54Z</time></trkpt>
<trkpt lat="29.757239" lon="94.210199">
<time>2016-10-08T02:59:55Z</time></trkpt>
<trkpt lat="29.757068" lon="94.210009">
<time>2016-10-08T02:59:56Z</time></trkpt>
<trkpt lat="29.756868" lon="94.209778">
<time>2016-10-08T02:59:57Z</time></trkpt>
<trkpt lat="29.756718" lon="94.209608">
<time>2016-10-08T02:59:58Z</time></trkpt>
<trkpt lat="29.756668" lon="94.209548">
<time>2016-10-08T02:59:59Z</time></trkpt>
<trkpt lat="29.756598" lon="94.209478">
<time>2016-10-08T03:00:00Z</time></trkpt>
<trkpt lat="29.756548" lon="94.209408">
<time>2016-10-08T03:00:01Z</time></trkpt>
<trkpt lat="29.756488" lon="94.209327">
<time>2016-10-08T03:00:02Z</time></trkpt>
<trkpt lat="29.756407" lon="94.209197">
<time>2016-10-08T03:00:03Z</time></trkpt>
<trkpt lat="29.756347" lon="94.209067">
<time>2016-10-08T03:00:04Z</time></trkpt>
<trkpt lat="29.756277" lon="94.208897">
<time>2016-10-08T03:00:05Z</time></trkpt>
<trkpt lat="29.756126" lon="94.208516">
<time>2016-10-08T03:00:06Z</time></trkpt>
<trkpt lat="29.756026" lon="94.208265">
<time>2016-10-08T03:00:07Z</time></trkpt>
<trkpt lat="29.755956" lon="94.208085">
<time>2016-10-08T03:00:08Z</time></trkpt>
<trkpt lat="29.755906" lon="94.207955">
<time>2016-10-08T03:00:09Z</time></trkpt>
<trkpt lat="29.755795" lon="94.207674">
<time>2016-10-08T03:00:10Z</time></trkpt>
<trkpt lat="29.755705" lon="94.207464">
<time>2016-10-08T03:00:11Z</time></trkpt>
<trkpt lat="29.755605" lon="94.207193">
<time>2016-10-08T03:00:12Z</time></trkpt>
<trkpt lat="29.755545" lon="94.207063">
<time>2016-10-08T03:00:13Z</time></trkpt>
<trkpt lat="29.755484" lon="94.206893">
<time>2016-10-08T03:00:14Z</time></trkpt>
<trkpt lat="29.755424" lon="94.206732">
<time>2016-10-08T03:00:15Z</time></trkpt>
<trkpt lat="29.755354" lon="94.206542">
<time>2016-10-08T03:00:16Z</time></trkpt>
<trkpt lat="29.755324" lon="94.206442">
<time>2016-10-08T03:00:17Z</time></trkpt>
<trkpt lat="29.755294" lon="94.206321">
<time>2016-10-08T03:00:18Z</time></trkpt>
<trkpt lat="29.755253" lon="94.206151">
<time>2016-10-08T03:00:19Z</time></trkpt>
<trkpt lat="29.755243" lon="94.206051">
<time>2016-10-08T03:00:20Z</time></trkpt>
<trkpt lat="29.755213" lon="94.20584">
<time>2016-10-08T03:00:21Z</time></trkpt>
<trkpt lat="29.755193" lon="94.20557">
<time>2016-10-08T03:00:22Z</time></trkpt>
<trkpt lat="29.755162" lon="94.205339">
<time>2016-10-08T03:00:23Z</time></trkpt>
<trkpt lat="29.755152" lon="94.205099">
<time>2016-10-08T03:00:24Z</time></trkpt>
<trkpt lat="29.755132" lon="94.204898">
<time>2016-10-08T03:00:25Z</time></trkpt>
<trkpt lat="29.755111" lon="94.204698">
<time>2016-10-08T03:00:26Z</time></trkpt>
<trkpt lat="29.755091" lon="94.204538">
<time>2016-10-08T03:00:27Z</time></trkpt>
<trkpt lat="29.755071" lon="94.204287">
<time>2016-10-08T03:00:28Z</time></trkpt>
<trkpt lat="29.75505" lon="94.204077">
<time>2016-10-08T03:00:29Z</time></trkpt>
<trkpt lat="29.75502" lon="94.203786">
<time>2016-10-08T03:00:30Z</time></trkpt>
<trkpt lat="29.75501" lon="94.203616">
<time>2016-10-08T03:00:31Z</time></trkpt>
<trkpt lat="29.754989" lon="94.203445">
<time>2016-10-08T03:00:32Z</time></trkpt>
<trkpt lat="29.754969" lon="94.203235">
<time>2016-10-08T03:00:33Z</time></trkpt>
<trkpt lat="29.754928" lon="94.202804">
<time>2016-10-08T03:00:34Z</time></trkpt>
<trkpt lat="29.754898" lon="94.202533">
<time>2016-10-08T03:00:35Z</time></trkpt>
<trkpt lat="29.754888" lon="94.202343">
<time>2016-10-08T03:00:36Z</time></trkpt>
<trkpt lat="29.754868" lon="94.202183">
<time>2016-10-08T03:00:37Z</time></trkpt>
<trkpt lat="29.754847" lon="94.201972">
<time>2016-10-08T03:00:38Z</time></trkpt>
<trkpt lat="29.754827" lon="94.201792">
<time>2016-10-08T03:00:39Z</time></trkpt>
<trkpt lat="29.754807" lon="94.201651">
<time>2016-10-08T03:00:40Z</time></trkpt>
<trkpt lat="29.754787" lon="94.201501">
<time>2016-10-08T03:00:41Z</time></trkpt>
<trkpt lat="29.754756" lon="94.201321">
<time>2016-10-08T03:00:42Z</time></trkpt>
<trkpt lat="29.754736" lon="94.2012">
<time>2016-10-08T03:00:43Z</time></trkpt>
<trkpt lat="29.754716" lon="94.20113">
<time>2016-10-08T03:00:44Z</time></trkpt>
<trkpt lat="29.754676" lon="94.20093">
<time>2016-10-08T03:00:45Z</time></trkpt>
<trkpt lat="29.754615" lon="94.200679">
<time>2016-10-08T03:00:46Z</time></trkpt>
<trkpt lat="29.754525" lon="94.200258">
<time>2016-10-08T03:00:47Z</time></trkpt>
<trkpt lat="29.754323" lon="94.199406">
<time>2016-10-08T03:00:48Z</time></trkpt>
<trkpt lat="29.754132" lon="94.198615">
<time>2016-10-08T03:00:49Z</time></trkpt>
<trkpt lat="29.754042" lon="94.198234">
<time>2016-10-08T03:00:50Z</time></trkpt>
<trkpt lat="29.754001" lon="94.198053">
<time>2016-10-08T03:00:51Z</time></trkpt>
<trkpt lat="29.75387" lon="94.197522">
<time>2016-10-08T03:00:52Z</time></trkpt>
<trkpt lat="29.75375" lon="94.196991">
<time>2016-10-08T03:00:53Z</time></trkpt>
<trkpt lat="29.753719" lon="94.19683">
<time>2016-10-08T03:00:54Z</time></trkpt>
<trkpt lat="29.753518" lon="94.195958">
<time>2016-10-08T03:00:55Z</time></trkpt>
<trkpt lat="29.753468" lon="94.195748">
<time>2016-10-08T03:00:56Z</time></trkpt>
<trkpt lat="29.753327" lon="94.195157">
<time>2016-10-08T03:00:57Z</time></trkpt>
<trkpt lat="29.753276" lon="94.194916">
<time>2016-10-08T03:00:58Z</time></trkpt>
<trkpt lat="29.753226" lon="94.194685">
<time>2016-10-08T03:00:59Z</time></trkpt>
<trkpt lat="29.753175" lon="94.194455">
<time>2016-10-08T03:01:00Z</time></trkpt>
<trkpt lat="29.753125" lon="94.194254">
<time>2016-10-08T03:01:01Z</time></trkpt>
<trkpt lat="29.753075" lon="94.194054">
<time>2016-10-08T03:01:02Z</time></trkpt>
<trkpt lat="29.753055" lon="94.193944">
<time>2016-10-08T03:01:03Z</time></trkpt>
<trkpt lat="29.753024" lon="94.193823">
<time>2016-10-08T03:01:04Z</time></trkpt>
<trkpt lat="29.752994" lon="94.193703">
<time>2016-10-08T03:01:05Z</time></trkpt>
<trkpt lat="29.752954" lon="94.193533">
<time>2016-10-08T03:01:06Z</time></trkpt>
<trkpt lat="29.752863" lon="94.193122">
<time>2016-10-08T03:01:07Z</time></trkpt>
<trkpt lat="29.752833" lon="94.192991">
<time>2016-10-08T03:01:08Z</time></trkpt>
<trkpt lat="29.752712" lon="94.19247">
<time>2016-10-08T03:01:09Z</time></trkpt>
<trkpt lat="29.752682" lon="94.19232">
<time>2016-10-08T03:01:10Z</time></trkpt>
<trkpt lat="29.752601" lon="94.191959">
<time>2016-10-08T03:01:11Z</time></trkpt>
<trkpt lat="29.752551" lon="94.191758">
<time>2016-10-08T03:01:12Z</time></trkpt>
<trkpt lat="29.752521" lon="94.191578">
<time>2016-10-08T03:01:13Z</time></trkpt>
<trkpt lat="29.75249" lon="94.191478">
<time>2016-10-08T03:01:14Z</time></trkpt>
<trkpt lat="29.75247" lon="94.191347">
<time>2016-10-08T03:01:15Z</time></trkpt>
<trkpt lat="29.75244" lon="94.191187">
<time>2016-10-08T03:01:16Z</time></trkpt>
<trkpt lat="29.75241" lon="94.191027">
<time>2016-10-08T03:01:17Z</time></trkpt>
<trkpt lat="29.752399" lon="94.190886">
<time>2016-10-08T03:01:18Z</time></trkpt>
<trkpt lat="29.752379" lon="94.190726">
<time>2016-10-08T03:01:19Z</time></trkpt>
<trkpt lat="29.752369" lon="94.190545">
<time>2016-10-08T03:01:20Z</time></trkpt>
<trkpt lat="29.752369" lon="94.190385">
<time>2016-10-08T03:01:21Z</time></trkpt>
<trkpt lat="29.752358" lon="94.190165">
<time>2016-10-08T03:01:22Z</time></trkpt>
<trkpt lat="29.752358" lon="94.189884">
<time>2016-10-08T03:01:23Z</time></trkpt>
<trkpt lat="29.752367" lon="94.189633">
<time>2016-10-08T03:01:24Z</time></trkpt>
<trkpt lat="29.752367" lon="94.189383">
<time>2016-10-08T03:01:25Z</time></trkpt>
<trkpt lat="29.752367" lon="94.189192">
<time>2016-10-08T03:01:26Z</time></trkpt>
<trkpt lat="29.752366" lon="94.188932">
<time>2016-10-08T03:01:27Z</time></trkpt>
<trkpt lat="29.752366" lon="94.188751">
<time>2016-10-08T03:01:28Z</time></trkpt>
<trkpt lat="29.752365" lon="94.18849">
<time>2016-10-08T03:01:29Z</time></trkpt>
<trkpt lat="29.752365" lon="94.18825">
<time>2016-10-08T03:01:30Z</time></trkpt>
<trkpt lat="29.752365" lon="94.188089">
<time>2016-10-08T03:01:31Z</time></trkpt>
<trkpt lat="29.752364" lon="94.187819">
<time>2016-10-08T03:01:32Z</time></trkpt>
<trkpt lat="29.752354" lon="94.187578">
<time>2016-10-08T03:01:33Z</time></trkpt>
<trkpt lat="29.752354" lon="94.187488">
<time>2016-10-08T03:01:34Z</time></trkpt>
<trkpt lat="29.752363" lon="94.187287">
<time>2016-10-08T03:01:35Z</time></trkpt>
<trkpt lat="29.752363" lon="94.187037">
<time>2016-10-08T03:01:36Z</time></trkpt>
<trkpt lat="29.752352" lon="94.186806">
<time>2016-10-08T03:01:37Z</time></trkpt>
<trkpt lat="29.752352" lon="94.186586">
<time>2016-10-08T03:01:38Z</time></trkpt>
<trkpt lat="29.752362" lon="94.186375">
<time>2016-10-08T03:01:39Z</time></trkpt>
<trkpt lat="29.752361" lon="94.185864">
<time>2016-10-08T03:01:40Z</time></trkpt>
<trkpt lat="29.75236" lon="94.185623">
<time>2016-10-08T03:01:41Z</time></trkpt>
<trkpt lat="29.75235" lon="94.185503">
<time>2016-10-08T03:01:42Z</time></trkpt>
<trkpt lat="29.75235" lon="94.185383">
<time>2016-10-08T03:01:43Z</time></trkpt>
<trkpt lat="29.75235" lon="94.185312">
<time>2016-10-08T03:01:44Z</time></trkpt>
<trkpt lat="29.75234" lon="94.185272">
<time>2016-10-08T03:01:45Z</time></trkpt>
<trkpt lat="29.75234" lon="94.185272">
<time>2016-10-08T03:01:46Z</time></trkpt>
<trkpt lat="29.752339" lon="94.185072">
<time>2016-10-08T03:01:47Z</time></trkpt>
<trkpt lat="29.752319" lon="94.184821">
<time>2016-10-08T03:01:48Z</time></trkpt>
<trkpt lat="29.752278" lon="94.184551">
<time>2016-10-08T03:01:49Z</time></trkpt>
<trkpt lat="29.752228" lon="94.18429">
<time>2016-10-08T03:01:50Z</time></trkpt>
<trkpt lat="29.752027" lon="94.183718">
<time>2016-10-08T03:01:51Z</time></trkpt>
<trkpt lat="29.751042" lon="94.181262">
<time>2016-10-08T03:01:52Z</time></trkpt>
<trkpt lat="29.75056" lon="94.180069">
<time>2016-10-08T03:01:53Z</time></trkpt>
<trkpt lat="29.75056" lon="94.180049">
<time>2016-10-08T03:01:54Z</time></trkpt>
<trkpt lat="29.75055" lon="94.180029">
<time>2016-10-08T03:01:55Z</time></trkpt>
<trkpt lat="29.75054" lon="94.179999">
<time>2016-10-08T03:01:56Z</time></trkpt>
<trkpt lat="29.75052" lon="94.179969">
<time>2016-10-08T03:01:57Z</time></trkpt>
<trkpt lat="29.75052" lon="94.179949">
<time>2016-10-08T03:01:58Z</time></trkpt>
<trkpt lat="29.7505" lon="94.179909">
<time>2016-10-08T03:01:59Z</time></trkpt>
<trkpt lat="29.75048" lon="94.179859">
<time>2016-10-08T03:02:00Z</time></trkpt>
<trkpt lat="29.75046" lon="94.179808">
<time>2016-10-08T03:02:01Z</time></trkpt>
<trkpt lat="29.75043" lon="94.179758">
<time>2016-10-08T03:02:02Z</time></trkpt>
<trkpt lat="29.75041" lon="94.179708">
<time>2016-10-08T03:02:03Z</time></trkpt>
<trkpt lat="29.75039" lon="94.179648">
<time>2016-10-08T03:02:04Z</time></trkpt>
<trkpt lat="29.750359" lon="94.179568">
<time>2016-10-08T03:02:05Z</time></trkpt>
<trkpt lat="29.750329" lon="94.179518">
<time>2016-10-08T03:02:06Z</time></trkpt>
<trkpt lat="29.750309" lon="94.179468">
<time>2016-10-08T03:02:07Z</time></trkpt>
<trkpt lat="29.750289" lon="94.179397">
<time>2016-10-08T03:02:08Z</time></trkpt>
<trkpt lat="29.750259" lon="94.179327">
<time>2016-10-08T03:02:09Z</time></trkpt>
<trkpt lat="29.750249" lon="94.179307">
<time>2016-10-08T03:02:10Z</time></trkpt>
<trkpt lat="29.750219" lon="94.179247">
<time>2016-10-08T03:02:11Z</time></trkpt>
<trkpt lat="29.750179" lon="94.179157">
<time>2016-10-08T03:02:12Z</time></trkpt>
<trkpt lat="29.750149" lon="94.179066">
<time>2016-10-08T03:02:13Z</time></trkpt>
<trkpt lat="29.750118" lon="94.178986">
<time>2016-10-08T03:02:14Z</time></trkpt>
<trkpt lat="29.750098" lon="94.178936">
<time>2016-10-08T03:02:15Z</time></trkpt>
<trkpt lat="29.750078" lon="94.178886">
<time>2016-10-08T03:02:16Z</time></trkpt>
<trkpt lat="29.750048" lon="94.178826">
<time>2016-10-08T03:02:17Z</time></trkpt>
<trkpt lat="29.750028" lon="94.178766">
<time>2016-10-08T03:02:18Z</time></trkpt>
<trkpt lat="29.749616" lon="94.177763">
<time>2016-10-08T03:02:19Z</time></trkpt>
<trkpt lat="29.749154" lon="94.17663">
<time>2016-10-08T03:02:20Z</time></trkpt>
<trkpt lat="29.748572" lon="94.175196">
<time>2016-10-08T03:02:21Z</time></trkpt>
<trkpt lat="29.748411" lon="94.174755">
<time>2016-10-08T03:02:22Z</time></trkpt>
<trkpt lat="29.74833" lon="94.174455">
<time>2016-10-08T03:02:23Z</time></trkpt>
<trkpt lat="29.74829" lon="94.174224">
<time>2016-10-08T03:02:24Z</time></trkpt>
<trkpt lat="29.748229" lon="94.173873">
<time>2016-10-08T03:02:25Z</time></trkpt>
<trkpt lat="29.747996" lon="94.172379">
<time>2016-10-08T03:02:26Z</time></trkpt>
<trkpt lat="29.747774" lon="94.170905">
<time>2016-10-08T03:02:27Z</time></trkpt>
<trkpt lat="29.747409" lon="94.168599">
<time>2016-10-08T03:02:28Z</time></trkpt>
<trkpt lat="29.747257" lon="94.167637">
<time>2016-10-08T03:02:29Z</time></trkpt>
<trkpt lat="29.747237" lon="94.167376">
<time>2016-10-08T03:02:30Z</time></trkpt>
<trkpt lat="29.747237" lon="94.167286">
<time>2016-10-08T03:02:31Z</time></trkpt>
<trkpt lat="29.747237" lon="94.167195">
<time>2016-10-08T03:02:32Z</time></trkpt>
<trkpt lat="29.747246" lon="94.167115">
<time>2016-10-08T03:02:33Z</time></trkpt>
<trkpt lat="29.747276" lon="94.166955">
<time>2016-10-08T03:02:34Z</time></trkpt>
<trkpt lat="29.747306" lon="94.166855">
<time>2016-10-08T03:02:35Z</time></trkpt>
<trkpt lat="29.747356" lon="94.166704">
<time>2016-10-08T03:02:36Z</time></trkpt>
<trkpt lat="29.747525" lon="94.166353">
<time>2016-10-08T03:02:37Z</time></trkpt>
<trkpt lat="29.747934" lon="94.165571">
<time>2016-10-08T03:02:38Z</time></trkpt>
<trkpt lat="29.748342" lon="94.164839">
<time>2016-10-08T03:02:39Z</time></trkpt>
<trkpt lat="29.748561" lon="94.164458">
<time>2016-10-08T03:02:40Z</time></trkpt>
<trkpt lat="29.748751" lon="94.164087">
<time>2016-10-08T03:02:41Z</time></trkpt>
<trkpt lat="29.74893" lon="94.163736">
<time>2016-10-08T03:02:42Z</time></trkpt>
<trkpt lat="29.74899" lon="94.163626">
<time>2016-10-08T03:02:43Z</time></trkpt>
<trkpt lat="29.749049" lon="94.163486">
<time>2016-10-08T03:02:44Z</time></trkpt>
<trkpt lat="29.749099" lon="94.163335">
<time>2016-10-08T03:02:45Z</time></trkpt>
<trkpt lat="29.749139" lon="94.163175">
<time>2016-10-08T03:02:46Z</time></trkpt>
<trkpt lat="29.749258" lon="94.162603">
<time>2016-10-08T03:02:47Z</time></trkpt>
<trkpt lat="29.749347" lon="94.162182">
<time>2016-10-08T03:02:48Z</time></trkpt>
<trkpt lat="29.749347" lon="94.162112">
<time>2016-10-08T03:02:49Z</time></trkpt>
<trkpt lat="29.749357" lon="94.162022">
<time>2016-10-08T03:02:50Z</time></trkpt>
<trkpt lat="29.749357" lon="94.161932">
<time>2016-10-08T03:02:51Z</time></trkpt>
<trkpt lat="29.749346" lon="94.161821">
<time>2016-10-08T03:02:52Z</time></trkpt>
<trkpt lat="29.749336" lon="94.161741">
<time>2016-10-08T03:02:53Z</time></trkpt>
<trkpt lat="29.749306" lon="94.161651">
<time>2016-10-08T03:02:54Z</time></trkpt>
<trkpt lat="29.749256" lon="94.161531">
<time>2016-10-08T03:02:55Z</time></trkpt>
<trkpt lat="29.749165" lon="94.16133">
<time>2016-10-08T03:02:56Z</time></trkpt>
<trkpt lat="29.749135" lon="94.16124">
<time>2016-10-08T03:02:57Z</time></trkpt>
<trkpt lat="29.749115" lon="94.16112">
<time>2016-10-08T03:02:58Z</time></trkpt>
<trkpt lat="29.749105" lon="94.161039">
<time>2016-10-08T03:02:59Z</time></trkpt>
<trkpt lat="29.749115" lon="94.160949">
<time>2016-10-08T03:03:00Z</time></trkpt>
<trkpt lat="29.749135" lon="94.160849">
<time>2016-10-08T03:03:01Z</time></trkpt>
<trkpt lat="29.749164" lon="94.160759">
<time>2016-10-08T03:03:02Z</time></trkpt>
<trkpt lat="29.749214" lon="94.160668">
<time>2016-10-08T03:03:03Z</time></trkpt>
<trkpt lat="29.749304" lon="94.160508">
<time>2016-10-08T03:03:04Z</time></trkpt>
<trkpt lat="29.749384" lon="94.160388">
<time>2016-10-08T03:03:05Z</time></trkpt>
<trkpt lat="29.749463" lon="94.160297">
<time>2016-10-08T03:03:06Z</time></trkpt>
<trkpt lat="29.749603" lon="94.160167">
<time>2016-10-08T03:03:07Z</time></trkpt>
<trkpt lat="29.750023" lon="94.159846">
<time>2016-10-08T03:03:08Z</time></trkpt>
<trkpt lat="29.750242" lon="94.159676">
<time>2016-10-08T03:03:09Z</time></trkpt>
<trkpt lat="29.750402" lon="94.159566">
<time>2016-10-08T03:03:10Z</time></trkpt>
<trkpt lat="29.750522" lon="94.159465">
<time>2016-10-08T03:03:11Z</time></trkpt>
<trkpt lat="29.750622" lon="94.159385">
<time>2016-10-08T03:03:12Z</time></trkpt>
<trkpt lat="29.750692" lon="94.159325">
<time>2016-10-08T03:03:13Z</time></trkpt>
<trkpt lat="29.750731" lon="94.159285">
<time>2016-10-08T03:03:14Z</time></trkpt>
<trkpt lat="29.750791" lon="94.159235">
<time>2016-10-08T03:03:15Z</time></trkpt>
<trkpt lat="29.750821" lon="94.159185">
<time>2016-10-08T03:03:16Z</time></trkpt>
<trkpt lat="29.750841" lon="94.159154">
<time>2016-10-08T03:03:17Z</time></trkpt>
<trkpt lat="29.750861" lon="94.159134">
<time>2016-10-08T03:03:18Z</time></trkpt>
<trkpt lat="29.750861" lon="94.159134">
<time>2016-10-08T03:03:19Z</time></trkpt>
<trkpt lat="29.750911" lon="94.158964">
<time>2016-10-08T03:03:20Z</time></trkpt>
<trkpt lat="29.750931" lon="94.158874">
<time>2016-10-08T03:03:21Z</time></trkpt>
<trkpt lat="29.750951" lon="94.158773">
<time>2016-10-08T03:03:22Z</time></trkpt>
<trkpt lat="29.75096" lon="94.158693">
<time>2016-10-08T03:03:23Z</time></trkpt>
<trkpt lat="29.75096" lon="94.158603">
<time>2016-10-08T03:03:24Z</time></trkpt>
<trkpt lat="29.75094" lon="94.158413">
<time>2016-10-08T03:03:25Z</time></trkpt>
<trkpt lat="29.75092" lon="94.158242">
<time>2016-10-08T03:03:26Z</time></trkpt>
<trkpt lat="29.750788" lon="94.15729">
<time>2016-10-08T03:03:27Z</time></trkpt>
<trkpt lat="29.750656" lon="94.156087">
<time>2016-10-08T03:03:28Z</time></trkpt>
<trkpt lat="29.750625" lon="94.155886">
<time>2016-10-08T03:03:29Z</time></trkpt>
<trkpt lat="29.750595" lon="94.155706">
<time>2016-10-08T03:03:30Z</time></trkpt>
<trkpt lat="29.750575" lon="94.155585">
<time>2016-10-08T03:03:31Z</time></trkpt>
<trkpt lat="29.750555" lon="94.155445">
<time>2016-10-08T03:03:32Z</time></trkpt>
<trkpt lat="29.750534" lon="94.155254">
<time>2016-10-08T03:03:33Z</time></trkpt>
<trkpt lat="29.750473" lon="94.154753">
<time>2016-10-08T03:03:34Z</time></trkpt>
<trkpt lat="29.750443" lon="94.154483">
<time>2016-10-08T03:03:35Z</time></trkpt>
<trkpt lat="29.750413" lon="94.154312">
<time>2016-10-08T03:03:36Z</time></trkpt>
<trkpt lat="29.750352" lon="94.153861">
<time>2016-10-08T03:03:37Z</time></trkpt>
<trkpt lat="29.750291" lon="94.15343">
<time>2016-10-08T03:03:38Z</time></trkpt>
<trkpt lat="29.75024" lon="94.153099">
<time>2016-10-08T03:03:39Z</time></trkpt>
<trkpt lat="29.7502" lon="94.152758">
<time>2016-10-08T03:03:40Z</time></trkpt>
<trkpt lat="29.750159" lon="94.152468">
<time>2016-10-08T03:03:41Z</time></trkpt>
<trkpt lat="29.750129" lon="94.152177">
<time>2016-10-08T03:03:42Z</time></trkpt>
<trkpt lat="29.750109" lon="94.152006">
<time>2016-10-08T03:03:43Z</time></trkpt>
<trkpt lat="29.750068" lon="94.151726">
<time>2016-10-08T03:03:44Z</time></trkpt>
<trkpt lat="29.750028" lon="94.151435">
<time>2016-10-08T03:03:45Z</time></trkpt>
<trkpt lat="29.749896" lon="94.150513">
<time>2016-10-08T03:03:46Z</time></trkpt>
<trkpt lat="29.749744" lon="94.14943">
<time>2016-10-08T03:03:47Z</time></trkpt>
<trkpt lat="29.749552" lon="94.147916">
<time>2016-10-08T03:03:48Z</time></trkpt>
<trkpt lat="29.749319" lon="94.146222">
<time>2016-10-08T03:03:49Z</time></trkpt>
<trkpt lat="29.749218" lon="94.145491">
<time>2016-10-08T03:03:50Z</time></trkpt>
<trkpt lat="29.749015" lon="94.143887">
<time>2016-10-08T03:03:51Z</time></trkpt>
<trkpt lat="29.748823" lon="94.142504">
<time>2016-10-08T03:03:52Z</time></trkpt>
<trkpt lat="29.748762" lon="94.142053">
<time>2016-10-08T03:03:53Z</time></trkpt>
<trkpt lat="29.748671" lon="94.141321">
<time>2016-10-08T03:03:54Z</time></trkpt>
<trkpt lat="29.748287" lon="94.138475">
<time>2016-10-08T03:03:55Z</time></trkpt>
<trkpt lat="29.748216" lon="94.138014">
<time>2016-10-08T03:03:56Z</time></trkpt>
<trkpt lat="29.748105" lon="94.137503">
<time>2016-10-08T03:03:57Z</time></trkpt>
<trkpt lat="29.748015" lon="94.137262">
<time>2016-10-08T03:03:58Z</time></trkpt>
<trkpt lat="29.747925" lon="94.137012">
<time>2016-10-08T03:03:59Z</time></trkpt>
<trkpt lat="29.747804" lon="94.136771">
<time>2016-10-08T03:04:00Z</time></trkpt>
<trkpt lat="29.747694" lon="94.136581">
<time>2016-10-08T03:04:01Z</time></trkpt>
<trkpt lat="29.747564" lon="94.1364">
<time>2016-10-08T03:04:02Z</time></trkpt>
<trkpt lat="29.747293" lon="94.13609">
<time>2016-10-08T03:04:03Z</time></trkpt>
<trkpt lat="29.747083" lon="94.135859">
<time>2016-10-08T03:04:04Z</time></trkpt>
<trkpt lat="29.746532" lon="94.135268">
<time>2016-10-08T03:04:05Z</time></trkpt>
<trkpt lat="29.746142" lon="94.134827">
<time>2016-10-08T03:04:06Z</time></trkpt>
<trkpt lat="29.746092" lon="94.134767">
<time>2016-10-08T03:04:07Z</time></trkpt>
<trkpt lat="29.745811" lon="94.134466">
<time>2016-10-08T03:04:08Z</time></trkpt>
<trkpt lat="29.745631" lon="94.134296">
<time>2016-10-08T03:04:09Z</time></trkpt>
<trkpt lat="29.745131" lon="94.133885">
<time>2016-10-08T03:04:10Z</time></trkpt>
<trkpt lat="29.74459" lon="94.133454">
<time>2016-10-08T03:04:11Z</time></trkpt>
<trkpt lat="29.74411" lon="94.133093">
<time>2016-10-08T03:04:12Z</time></trkpt>
<trkpt lat="29.743609" lon="94.132713">
<time>2016-10-08T03:04:13Z</time></trkpt>
<trkpt lat="29.743179" lon="94.132322">
<time>2016-10-08T03:04:14Z</time></trkpt>
<trkpt lat="29.743009" lon="94.132202">
<time>2016-10-08T03:04:15Z</time></trkpt>
<trkpt lat="29.742678" lon="94.131991">
<time>2016-10-08T03:04:16Z</time></trkpt>
<trkpt lat="29.742548" lon="94.131881">
<time>2016-10-08T03:04:17Z</time></trkpt>
<trkpt lat="29.742478" lon="94.131821">
<time>2016-10-08T03:04:18Z</time></trkpt>
<trkpt lat="29.742428" lon="94.131721">
<time>2016-10-08T03:04:19Z</time></trkpt>
<trkpt lat="29.742258" lon="94.13147">
<time>2016-10-08T03:04:20Z</time></trkpt>
<trkpt lat="29.741997" lon="94.13112">
<time>2016-10-08T03:04:21Z</time></trkpt>
<trkpt lat="29.741857" lon="94.130959">
<time>2016-10-08T03:04:22Z</time></trkpt>
<trkpt lat="29.741637" lon="94.130779">
<time>2016-10-08T03:04:23Z</time></trkpt>
<trkpt lat="29.741277" lon="94.130508">
<time>2016-10-08T03:04:24Z</time></trkpt>
<trkpt lat="29.741177" lon="94.130428">
<time>2016-10-08T03:04:25Z</time></trkpt>
<trkpt lat="29.741047" lon="94.130378">
<time>2016-10-08T03:04:26Z</time></trkpt>
<trkpt lat="29.741007" lon="94.130368">
<time>2016-10-08T03:04:27Z</time></trkpt>
<trkpt lat="29.740967" lon="94.130368">
<time>2016-10-08T03:04:28Z</time></trkpt>
<trkpt lat="29.740907" lon="94.130388">
<time>2016-10-08T03:04:29Z</time></trkpt>
<trkpt lat="29.740867" lon="94.130408">
<time>2016-10-08T03:04:30Z</time></trkpt>
<trkpt lat="29.740807" lon="94.130448">
<time>2016-10-08T03:04:31Z</time></trkpt>
<trkpt lat="29.740657" lon="94.130589">
<time>2016-10-08T03:04:32Z</time></trkpt>
<trkpt lat="29.740587" lon="94.130649">
<time>2016-10-08T03:04:33Z</time></trkpt>
<trkpt lat="29.740517" lon="94.130689">
<time>2016-10-08T03:04:34Z</time></trkpt>
<trkpt lat="29.740417" lon="94.130719">
<time>2016-10-08T03:04:35Z</time></trkpt>
<trkpt lat="29.740317" lon="94.130739">
<time>2016-10-08T03:04:36Z</time></trkpt>
<trkpt lat="29.740197" lon="94.130729">
<time>2016-10-08T03:04:37Z</time></trkpt>
<trkpt lat="29.740117" lon="94.130709">
<time>2016-10-08T03:04:38Z</time></trkpt>
<trkpt lat="29.740057" lon="94.130689">
<time>2016-10-08T03:04:39Z</time></trkpt>
<trkpt lat="29.739987" lon="94.130659">
<time>2016-10-08T03:04:40Z</time></trkpt>
<trkpt lat="29.739777" lon="94.130508">
<time>2016-10-08T03:04:41Z</time></trkpt>
<trkpt lat="29.739537" lon="94.130308">
<time>2016-10-08T03:04:42Z</time></trkpt>
<trkpt lat="29.739327" lon="94.130128">
<time>2016-10-08T03:04:43Z</time></trkpt>
<trkpt lat="29.738926" lon="94.129737">
<time>2016-10-08T03:04:44Z</time></trkpt>
<trkpt lat="29.738616" lon="94.129406">
<time>2016-10-08T03:04:45Z</time></trkpt>
<trkpt lat="29.738446" lon="94.129256">
<time>2016-10-08T03:04:46Z</time></trkpt>
<trkpt lat="29.738376" lon="94.129196">
<time>2016-10-08T03:04:47Z</time></trkpt>
<trkpt lat="29.738275" lon="94.129106">
<time>2016-10-08T03:04:48Z</time></trkpt>
<trkpt lat="29.738165" lon="94.129046">
<time>2016-10-08T03:04:49Z</time></trkpt>
<trkpt lat="29.737945" lon="94.128935">
<time>2016-10-08T03:04:50Z</time></trkpt>
<trkpt lat="29.737745" lon="94.128805">
<time>2016-10-08T03:04:51Z</time></trkpt>
<trkpt lat="29.737505" lon="94.128605">
<time>2016-10-08T03:04:52Z</time></trkpt>
<trkpt lat="29.737245" lon="94.128334">
<time>2016-10-08T03:04:53Z</time></trkpt>
<trkpt lat="29.736894" lon="94.127914">
<time>2016-10-08T03:04:54Z</time></trkpt>
<trkpt lat="29.736824" lon="94.127813">
<time>2016-10-08T03:04:55Z</time></trkpt>
<trkpt lat="29.736774" lon="94.127723">
<time>2016-10-08T03:04:56Z</time></trkpt>
<trkpt lat="29.736674" lon="94.127493">
<time>2016-10-08T03:04:57Z</time></trkpt>
<trkpt lat="29.736533" lon="94.127132">
<time>2016-10-08T03:04:58Z</time></trkpt>
<trkpt lat="29.736373" lon="94.126822">
<time>2016-10-08T03:04:59Z</time></trkpt>
<trkpt lat="29.736303" lon="94.126681">
<time>2016-10-08T03:05:00Z</time></trkpt>
<trkpt lat="29.736253" lon="94.126611">
<time>2016-10-08T03:05:01Z</time></trkpt>
<trkpt lat="29.736203" lon="94.126531">
<time>2016-10-08T03:05:02Z</time></trkpt>
<trkpt lat="29.736173" lon="94.126461">
<time>2016-10-08T03:05:03Z</time></trkpt>
<trkpt lat="29.736153" lon="94.126401">
<time>2016-10-08T03:05:04Z</time></trkpt>
<trkpt lat="29.736102" lon="94.126331">
<time>2016-10-08T03:05:05Z</time></trkpt>
<trkpt lat="29.735982" lon="94.12617">
<time>2016-10-08T03:05:06Z</time></trkpt>
<trkpt lat="29.735852" lon="94.12595">
<time>2016-10-08T03:05:07Z</time></trkpt>
<trkpt lat="29.735732" lon="94.125659">
<time>2016-10-08T03:05:08Z</time></trkpt>
<trkpt lat="29.735672" lon="94.125539">
<time>2016-10-08T03:05:09Z</time></trkpt>
<trkpt lat="29.735591" lon="94.125389">
<time>2016-10-08T03:05:10Z</time></trkpt>
<trkpt lat="29.735481" lon="94.125209">
<time>2016-10-08T03:05:11Z</time></trkpt>
<trkpt lat="29.735381" lon="94.125028">
<time>2016-10-08T03:05:12Z</time></trkpt>
<trkpt lat="29.735211" lon="94.124578">
<time>2016-10-08T03:05:13Z</time></trkpt>
<trkpt lat="29.73512" lon="94.124197">
<time>2016-10-08T03:05:14Z</time></trkpt>
<trkpt lat="29.73508" lon="94.123916">
<time>2016-10-08T03:05:15Z</time></trkpt>
<trkpt lat="29.73507" lon="94.123636">
<time>2016-10-08T03:05:16Z</time></trkpt>
<trkpt lat="29.735079" lon="94.123366">
<time>2016-10-08T03:05:17Z</time></trkpt>
<trkpt lat="29.735099" lon="94.123125">
<time>2016-10-08T03:05:18Z</time></trkpt>
<trkpt lat="29.735129" lon="94.122935">
<time>2016-10-08T03:05:19Z</time></trkpt>
<trkpt lat="29.735169" lon="94.122714">
<time>2016-10-08T03:05:20Z</time></trkpt>
<trkpt lat="29.735507" lon="94.121462">
<time>2016-10-08T03:05:21Z</time></trkpt>
<trkpt lat="29.735537" lon="94.121302">
<time>2016-10-08T03:05:22Z</time></trkpt>
<trkpt lat="29.735557" lon="94.121162">
<time>2016-10-08T03:05:23Z</time></trkpt>
<trkpt lat="29.735577" lon="94.120881">
<time>2016-10-08T03:05:24Z</time></trkpt>
<trkpt lat="29.735536" lon="94.120331">
<time>2016-10-08T03:05:25Z</time></trkpt>
<trkpt lat="29.735546" lon="94.12008">
<time>2016-10-08T03:05:26Z</time></trkpt>
<trkpt lat="29.735566" lon="94.11983">
<time>2016-10-08T03:05:27Z</time></trkpt>
<trkpt lat="29.735625" lon="94.119289">
<time>2016-10-08T03:05:28Z</time></trkpt>
<trkpt lat="29.735784" lon="94.118177">
<time>2016-10-08T03:05:29Z</time></trkpt>
<trkpt lat="29.735854" lon="94.117556">
<time>2016-10-08T03:05:30Z</time></trkpt>
<trkpt lat="29.735903" lon="94.116996">
<time>2016-10-08T03:05:31Z</time></trkpt>
<trkpt lat="29.735953" lon="94.116104">
<time>2016-10-08T03:05:32Z</time></trkpt>
<trkpt lat="29.735972" lon="94.115403">
<time>2016-10-08T03:05:33Z</time></trkpt>
<trkpt lat="29.735962" lon="94.114813">
<time>2016-10-08T03:05:34Z</time></trkpt>
<trkpt lat="29.735901" lon="94.113851">
<time>2016-10-08T03:05:35Z</time></trkpt>
<trkpt lat="29.73577" lon="94.112119">
<time>2016-10-08T03:05:36Z</time></trkpt>
<trkpt lat="29.735729" lon="94.111348">
<time>2016-10-08T03:05:37Z</time></trkpt>
<trkpt lat="29.735669" lon="94.110557">
<time>2016-10-08T03:05:38Z</time></trkpt>
<trkpt lat="29.735488" lon="94.108745">
<time>2016-10-08T03:05:39Z</time></trkpt>
<trkpt lat="29.735428" lon="94.107894">
<time>2016-10-08T03:05:40Z</time></trkpt>
<trkpt lat="29.735327" lon="94.107074">
<time>2016-10-08T03:05:41Z</time></trkpt>
<trkpt lat="29.735217" lon="94.105442">
<time>2016-10-08T03:05:42Z</time></trkpt>
<trkpt lat="29.735096" lon="94.104331">
<time>2016-10-08T03:05:43Z</time></trkpt>
<trkpt lat="29.735066" lon="94.104041">
<time>2016-10-08T03:05:44Z</time></trkpt>
<trkpt lat="29.734986" lon="94.10356">
<time>2016-10-08T03:05:45Z</time></trkpt>
<trkpt lat="29.734906" lon="94.10315">
<time>2016-10-08T03:05:46Z</time></trkpt>
<trkpt lat="29.734806" lon="94.10275">
<time>2016-10-08T03:05:47Z</time></trkpt>
<trkpt lat="29.734676" lon="94.102319">
<time>2016-10-08T03:05:48Z</time></trkpt>
<trkpt lat="29.734506" lon="94.101839">
<time>2016-10-08T03:05:49Z</time></trkpt>
<trkpt lat="29.734296" lon="94.101229">
<time>2016-10-08T03:05:50Z</time></trkpt>
<trkpt lat="29.734125" lon="94.100808">
<time>2016-10-08T03:05:51Z</time></trkpt>
<trkpt lat="29.734015" lon="94.100458">
<time>2016-10-08T03:05:52Z</time></trkpt>
<trkpt lat="29.733955" lon="94.100188">
<time>2016-10-08T03:05:53Z</time></trkpt>
<trkpt lat="29.733905" lon="94.099868">
<time>2016-10-08T03:05:54Z</time></trkpt>
<trkpt lat="29.733885" lon="94.099568">
<time>2016-10-08T03:05:55Z</time></trkpt>
<trkpt lat="29.733905" lon="94.099247">
<time>2016-10-08T03:05:56Z</time></trkpt>
<trkpt lat="29.733905" lon="94.099027">
<time>2016-10-08T03:05:57Z</time></trkpt>
<trkpt lat="29.733925" lon="94.098877">
<time>2016-10-08T03:05:58Z</time></trkpt>
<trkpt lat="29.733935" lon="94.098727">
<time>2016-10-08T03:05:59Z</time></trkpt>
<trkpt lat="29.733935" lon="94.098517">
<time>2016-10-08T03:06:00Z</time></trkpt>
<trkpt lat="29.733645" lon="94.095665">
<time>2016-10-08T03:06:01Z</time></trkpt>
<trkpt lat="29.733376" lon="94.092844">
<time>2016-10-08T03:06:02Z</time></trkpt>
<trkpt lat="29.733176" lon="94.090784">
<time>2016-10-08T03:06:03Z</time></trkpt>
<trkpt lat="29.732947" lon="94.088424">
<time>2016-10-08T03:06:04Z</time></trkpt>
<trkpt lat="29.732599" lon="94.084874">
<time>2016-10-08T03:06:05Z</time></trkpt>
<trkpt lat="29.73237" lon="94.082714">
<time>2016-10-08T03:06:06Z</time></trkpt>
<trkpt lat="29.732221" lon="94.081025">
<time>2016-10-08T03:06:07Z</time></trkpt>
<trkpt lat="29.732181" lon="94.080495">
<time>2016-10-08T03:06:08Z</time></trkpt>
<trkpt lat="29.732182" lon="94.080305">
<time>2016-10-08T03:06:09Z</time></trkpt>
<trkpt lat="29.732212" lon="94.080125">
<time>2016-10-08T03:06:10Z</time></trkpt>
<trkpt lat="29.732272" lon="94.079885">
<time>2016-10-08T03:06:11Z</time></trkpt>
<trkpt lat="29.732312" lon="94.079765">
<time>2016-10-08T03:06:12Z</time></trkpt>
<trkpt lat="29.732412" lon="94.079545">
<time>2016-10-08T03:06:13Z</time></trkpt>
<trkpt lat="29.732753" lon="94.078765">
<time>2016-10-08T03:06:14Z</time></trkpt>
<trkpt lat="29.732903" lon="94.078406">
<time>2016-10-08T03:06:15Z</time></trkpt>
<trkpt lat="29.733494" lon="94.077086">
<time>2016-10-08T03:06:16Z</time></trkpt>
<trkpt lat="29.734205" lon="94.075517">
<time>2016-10-08T03:06:17Z</time></trkpt>
<trkpt lat="29.734526" lon="94.074828">
<time>2016-10-08T03:06:18Z</time></trkpt>
<trkpt lat="29.734977" lon="94.073788">
<time>2016-10-08T03:06:19Z</time></trkpt>
<trkpt lat="29.735177" lon="94.073389">
<time>2016-10-08T03:06:20Z</time></trkpt>
<trkpt lat="29.735318" lon="94.073129">
<time>2016-10-08T03:06:21Z</time></trkpt>
<trkpt lat="29.735408" lon="94.072999">
<time>2016-10-08T03:06:22Z</time></trkpt>
<trkpt lat="29.735638" lon="94.072689">
<time>2016-10-08T03:06:23Z</time></trkpt>
<trkpt lat="29.736139" lon="94.072069">
<time>2016-10-08T03:06:24Z</time></trkpt>
<trkpt lat="29.73685" lon="94.07123">
<time>2016-10-08T03:06:25Z</time></trkpt>
<trkpt lat="29.73712" lon="94.07086">
<time>2016-10-08T03:06:26Z</time></trkpt>
<trkpt lat="29.73723" lon="94.070671">
<time>2016-10-08T03:06:27Z</time></trkpt>
<trkpt lat="29.737411" lon="94.070281">
<time>2016-10-08T03:06:28Z</time></trkpt>
<trkpt lat="29.738093" lon="94.068512">
<time>2016-10-08T03:06:29Z</time></trkpt>
<trkpt lat="29.738865" lon="94.066455">
<time>2016-10-08T03:06:30Z</time></trkpt>
<trkpt lat="29.739718" lon="94.064227">
<time>2016-10-08T03:06:31Z</time></trkpt>
<trkpt lat="29.740341" lon="94.062569">
<time>2016-10-08T03:06:32Z</time></trkpt>
<trkpt lat="29.740562" lon="94.06196">
<time>2016-10-08T03:06:33Z</time></trkpt>
<trkpt lat="29.741345" lon="94.059912">
<time>2016-10-08T03:06:34Z</time></trkpt>
<trkpt lat="29.741485" lon="94.059513">
<time>2016-10-08T03:06:35Z</time></trkpt>
<trkpt lat="29.741817" lon="94.058664">
<time>2016-10-08T03:06:36Z</time></trkpt>
<trkpt lat="29.742128" lon="94.057925">
<time>2016-10-08T03:06:37Z</time></trkpt>
<trkpt lat="29.743021" lon="94.055818">
<time>2016-10-08T03:06:38Z</time></trkpt>
<trkpt lat="29.744026" lon="94.053502">
<time>2016-10-08T03:06:39Z</time></trkpt>
<trkpt lat="29.744588" lon="94.052184">
<time>2016-10-08T03:06:40Z</time></trkpt>
<trkpt lat="29.744829" lon="94.051625">
<time>2016-10-08T03:06:41Z</time></trkpt>
<trkpt lat="29.745" lon="94.051116">
<time>2016-10-08T03:06:42Z</time></trkpt>
<trkpt lat="29.745171" lon="94.050517">
<time>2016-10-08T03:06:43Z</time></trkpt>
<trkpt lat="29.745252" lon="94.050268">
<time>2016-10-08T03:06:44Z</time></trkpt>
<trkpt lat="29.745332" lon="94.050048">
<time>2016-10-08T03:06:45Z</time></trkpt>
<trkpt lat="29.745412" lon="94.049888">
<time>2016-10-08T03:06:46Z</time></trkpt>
<trkpt lat="29.745533" lon="94.049719">
<time>2016-10-08T03:06:47Z</time></trkpt>
<trkpt lat="29.745663" lon="94.049559">
<time>2016-10-08T03:06:48Z</time></trkpt>
<trkpt lat="29.745834" lon="94.049319">
<time>2016-10-08T03:06:49Z</time></trkpt>
<trkpt lat="29.745944" lon="94.04912">
<time>2016-10-08T03:06:50Z</time></trkpt>
<trkpt lat="29.746035" lon="94.04884">
<time>2016-10-08T03:06:51Z</time></trkpt>
<trkpt lat="29.746155" lon="94.048461">
<time>2016-10-08T03:06:52Z</time></trkpt>
<trkpt lat="29.746437" lon="94.047643">
<time>2016-10-08T03:06:53Z</time></trkpt>
<trkpt lat="29.746467" lon="94.047543">
<time>2016-10-08T03:06:54Z</time></trkpt>
<trkpt lat="29.746527" lon="94.047393">
<time>2016-10-08T03:06:55Z</time></trkpt>
<trkpt lat="29.746808" lon="94.046924">
<time>2016-10-08T03:06:56Z</time></trkpt>
<trkpt lat="29.746979" lon="94.046654">
<time>2016-10-08T03:06:57Z</time></trkpt>
<trkpt lat="29.74711" lon="94.046405">
<time>2016-10-08T03:06:58Z</time></trkpt>
<trkpt lat="29.74727" lon="94.046066">
<time>2016-10-08T03:06:59Z</time></trkpt>
<trkpt lat="29.747481" lon="94.045507">
<time>2016-10-08T03:07:00Z</time></trkpt>
<trkpt lat="29.747632" lon="94.045058">
<time>2016-10-08T03:07:01Z</time></trkpt>
<trkpt lat="29.747683" lon="94.044908">
<time>2016-10-08T03:07:02Z</time></trkpt>
<trkpt lat="29.747743" lon="94.044698">
<time>2016-10-08T03:07:03Z</time></trkpt>
<trkpt lat="29.747783" lon="94.044549">
<time>2016-10-08T03:07:04Z</time></trkpt>
<trkpt lat="29.747814" lon="94.044379">
<time>2016-10-08T03:07:05Z</time></trkpt>
<trkpt lat="29.747844" lon="94.044199">
<time>2016-10-08T03:07:06Z</time></trkpt>
<trkpt lat="29.747895" lon="94.04391">
<time>2016-10-08T03:07:07Z</time></trkpt>
<trkpt lat="29.747956" lon="94.043441">
<time>2016-10-08T03:07:08Z</time></trkpt>
<trkpt lat="29.748048" lon="94.042702">
<time>2016-10-08T03:07:09Z</time></trkpt>
<trkpt lat="29.748129" lon="94.041914">
<time>2016-10-08T03:07:10Z</time></trkpt>
<trkpt lat="29.748181" lon="94.041325">
<time>2016-10-08T03:07:11Z</time></trkpt>
<trkpt lat="29.748211" lon="94.041016">
<time>2016-10-08T03:07:12Z</time></trkpt>
<trkpt lat="29.748262" lon="94.040647">
<time>2016-10-08T03:07:13Z</time></trkpt>
<trkpt lat="29.748293" lon="94.040527">
<time>2016-10-08T03:07:14Z</time></trkpt>
<trkpt lat="29.748333" lon="94.040397">
<time>2016-10-08T03:07:15Z</time></trkpt>
<trkpt lat="29.748473" lon="94.040148">
<time>2016-10-08T03:07:16Z</time></trkpt>
<trkpt lat="29.748845" lon="94.039549">
<time>2016-10-08T03:07:17Z</time></trkpt>
<trkpt lat="29.749136" lon="94.03917">
<time>2016-10-08T03:07:18Z</time></trkpt>
<trkpt lat="29.749336" lon="94.038941">
<time>2016-10-08T03:07:19Z</time></trkpt>
<trkpt lat="29.749537" lon="94.038711">
<time>2016-10-08T03:07:20Z</time></trkpt>
<trkpt lat="29.749757" lon="94.038502">
<time>2016-10-08T03:07:21Z</time></trkpt>
<trkpt lat="29.750008" lon="94.038282">
<time>2016-10-08T03:07:22Z</time></trkpt>
<trkpt lat="29.750158" lon="94.038162">
<time>2016-10-08T03:07:23Z</time></trkpt>
<trkpt lat="29.750278" lon="94.038063">
<time>2016-10-08T03:07:24Z</time></trkpt>
<trkpt lat="29.750388" lon="94.037983">
<time>2016-10-08T03:07:25Z</time></trkpt>
<trkpt lat="29.750479" lon="94.037903">
<time>2016-10-08T03:07:26Z</time></trkpt>
<trkpt lat="29.750529" lon="94.037853">
<time>2016-10-08T03:07:27Z</time></trkpt>
<trkpt lat="29.750569" lon="94.037813">
<time>2016-10-08T03:07:28Z</time></trkpt>
<trkpt lat="29.750619" lon="94.037763">
<time>2016-10-08T03:07:29Z</time></trkpt>
<trkpt lat="29.750679" lon="94.037703">
<time>2016-10-08T03:07:30Z</time></trkpt>
<trkpt lat="29.750729" lon="94.037634">
<time>2016-10-08T03:07:31Z</time></trkpt>
<trkpt lat="29.750789" lon="94.037564">
<time>2016-10-08T03:07:32Z</time></trkpt>
<trkpt lat="29.75089" lon="94.037424">
<time>2016-10-08T03:07:33Z</time></trkpt>
<trkpt lat="29.75098" lon="94.037274">
<time>2016-10-08T03:07:34Z</time></trkpt>
<trkpt lat="29.751091" lon="94.037065">
<time>2016-10-08T03:07:35Z</time></trkpt>
<trkpt lat="29.751221" lon="94.036855">
<time>2016-10-08T03:07:36Z</time></trkpt>
<trkpt lat="29.751311" lon="94.036696">
<time>2016-10-08T03:07:37Z</time></trkpt>
<trkpt lat="29.751402" lon="94.036536">
<time>2016-10-08T03:07:38Z</time></trkpt>
<trkpt lat="29.751502" lon="94.036356">
<time>2016-10-08T03:07:39Z</time></trkpt>
<trkpt lat="29.751603" lon="94.036167">
<time>2016-10-08T03:07:40Z</time></trkpt>
<trkpt lat="29.751763" lon="94.035908">
<time>2016-10-08T03:07:41Z</time></trkpt>
<trkpt lat="29.751864" lon="94.035718">
<time>2016-10-08T03:07:42Z</time></trkpt>
<trkpt lat="29.751984" lon="94.035508">
<time>2016-10-08T03:07:43Z</time></trkpt>
<trkpt lat="29.752105" lon="94.035309">
<time>2016-10-08T03:07:44Z</time></trkpt>
<trkpt lat="29.752235" lon="94.035079">
<time>2016-10-08T03:07:45Z</time></trkpt>
<trkpt lat="29.752356" lon="94.03486">
<time>2016-10-08T03:07:46Z</time></trkpt>
<trkpt lat="29.752486" lon="94.034641">
<time>2016-10-08T03:07:47Z</time></trkpt>
<trkpt lat="29.752637" lon="94.034391">
<time>2016-10-08T03:07:48Z</time></trkpt>
<trkpt lat="29.752808" lon="94.034092">
<time>2016-10-08T03:07:49Z</time></trkpt>
<trkpt lat="29.752938" lon="94.033862">
<time>2016-10-08T03:07:50Z</time></trkpt>
<trkpt lat="29.753059" lon="94.033643">
<time>2016-10-08T03:07:51Z</time></trkpt>
<trkpt lat="29.753179" lon="94.033433">
<time>2016-10-08T03:07:52Z</time></trkpt>
<trkpt lat="29.75328" lon="94.033264">
<time>2016-10-08T03:07:53Z</time></trkpt>
<trkpt lat="29.75338" lon="94.033084">
<time>2016-10-08T03:07:54Z</time></trkpt>
<trkpt lat="29.753481" lon="94.032895">
<time>2016-10-08T03:07:55Z</time></trkpt>
<trkpt lat="29.753591" lon="94.032715">
<time>2016-10-08T03:07:56Z</time></trkpt>
<trkpt lat="29.753943" lon="94.032107">
<time>2016-10-08T03:07:57Z</time></trkpt>
<trkpt lat="29.754083" lon="94.031867">
<time>2016-10-08T03:07:58Z</time></trkpt>
<trkpt lat="29.754174" lon="94.031708">
<time>2016-10-08T03:07:59Z</time></trkpt>
<trkpt lat="29.754304" lon="94.031478">
<time>2016-10-08T03:08:00Z</time></trkpt>
<trkpt lat="29.754415" lon="94.031279">
<time>2016-10-08T03:08:01Z</time></trkpt>
<trkpt lat="29.754897" lon="94.030431">
<time>2016-10-08T03:08:02Z</time></trkpt>
<trkpt lat="29.755449" lon="94.029473">
<time>2016-10-08T03:08:03Z</time></trkpt>
<trkpt lat="29.756133" lon="94.028276">
<time>2016-10-08T03:08:04Z</time></trkpt>
<trkpt lat="29.756414" lon="94.027788">
<time>2016-10-08T03:08:05Z</time></trkpt>
<trkpt lat="29.756484" lon="94.027658">
<time>2016-10-08T03:08:06Z</time></trkpt>
<trkpt lat="29.756615" lon="94.027438">
<time>2016-10-08T03:08:07Z</time></trkpt>
<trkpt lat="29.756735" lon="94.027209">
<time>2016-10-08T03:08:08Z</time></trkpt>
<trkpt lat="29.756866" lon="94.027">
<time>2016-10-08T03:08:09Z</time></trkpt>
<trkpt lat="29.757007" lon="94.02674">
<time>2016-10-08T03:08:10Z</time></trkpt>
<trkpt lat="29.757258" lon="94.026311">
<time>2016-10-08T03:08:11Z</time></trkpt>
<trkpt lat="29.757418" lon="94.026032">
<time>2016-10-08T03:08:12Z</time></trkpt>
<trkpt lat="29.757589" lon="94.025743">
<time>2016-10-08T03:08:13Z</time></trkpt>
<trkpt lat="29.75774" lon="94.025484">
<time>2016-10-08T03:08:14Z</time></trkpt>
<trkpt lat="29.75785" lon="94.025274">
<time>2016-10-08T03:08:15Z</time></trkpt>
<trkpt lat="29.758092" lon="94.024855">
<time>2016-10-08T03:08:16Z</time></trkpt>
<trkpt lat="29.758493" lon="94.024157">
<time>2016-10-08T03:08:17Z</time></trkpt>
<trkpt lat="29.758664" lon="94.023858">
<time>2016-10-08T03:08:18Z</time></trkpt>
<trkpt lat="29.759167" lon="94.02298">
<time>2016-10-08T03:08:19Z</time></trkpt>
<trkpt lat="29.759297" lon="94.022761">
<time>2016-10-08T03:08:20Z</time></trkpt>
<trkpt lat="29.759418" lon="94.022531">
<time>2016-10-08T03:08:21Z</time></trkpt>
<trkpt lat="29.759589" lon="94.022242">
<time>2016-10-08T03:08:22Z</time></trkpt>
<trkpt lat="29.75977" lon="94.021923">
<time>2016-10-08T03:08:23Z</time></trkpt>
<trkpt lat="29.75991" lon="94.021684">
<time>2016-10-08T03:08:24Z</time></trkpt>
<trkpt lat="29.760061" lon="94.021424">
<time>2016-10-08T03:08:25Z</time></trkpt>
<trkpt lat="29.760212" lon="94.021155">
<time>2016-10-08T03:08:26Z</time></trkpt>
<trkpt lat="29.760383" lon="94.020846">
<time>2016-10-08T03:08:27Z</time></trkpt>
<trkpt lat="29.760563" lon="94.020527">
<time>2016-10-08T03:08:28Z</time></trkpt>
<trkpt lat="29.760694" lon="94.020298">
<time>2016-10-08T03:08:29Z</time></trkpt>
<trkpt lat="29.760805" lon="94.020118">
<time>2016-10-08T03:08:30Z</time></trkpt>
<trkpt lat="29.760945" lon="94.019879">
<time>2016-10-08T03:08:31Z</time></trkpt>
<trkpt lat="29.761046" lon="94.019699">
<time>2016-10-08T03:08:32Z</time></trkpt>
<trkpt lat="29.761086" lon="94.019619">
<time>2016-10-08T03:08:33Z</time></trkpt>
<trkpt lat="29.761136" lon="94.01953">
<time>2016-10-08T03:08:34Z</time></trkpt>
<trkpt lat="29.761176" lon="94.01944">
<time>2016-10-08T03:08:35Z</time></trkpt>
<trkpt lat="29.761237" lon="94.01931">
<time>2016-10-08T03:08:36Z</time></trkpt>
<trkpt lat="29.761297" lon="94.019191">
<time>2016-10-08T03:08:37Z</time></trkpt>
<trkpt lat="29.761347" lon="94.019081">
<time>2016-10-08T03:08:38Z</time></trkpt>
<trkpt lat="29.761388" lon="94.018991">
<time>2016-10-08T03:08:39Z</time></trkpt>
<trkpt lat="29.761418" lon="94.018911">
<time>2016-10-08T03:08:40Z</time></trkpt>
<trkpt lat="29.761438" lon="94.018852">
<time>2016-10-08T03:08:41Z</time></trkpt>
<trkpt lat="29.761458" lon="94.018792">
<time>2016-10-08T03:08:42Z</time></trkpt>
<trkpt lat="29.761489" lon="94.018712">
<time>2016-10-08T03:08:43Z</time></trkpt>
<trkpt lat="29.761509" lon="94.018642">
<time>2016-10-08T03:08:44Z</time></trkpt>
<trkpt lat="29.761529" lon="94.018582">
<time>2016-10-08T03:08:45Z</time></trkpt>
<trkpt lat="29.761549" lon="94.018522">
<time>2016-10-08T03:08:46Z</time></trkpt>
<trkpt lat="29.761579" lon="94.018403">
<time>2016-10-08T03:08:47Z</time></trkpt>
<trkpt lat="29.7616" lon="94.018313">
<time>2016-10-08T03:08:48Z</time></trkpt>
<trkpt lat="29.76162" lon="94.018223">
<time>2016-10-08T03:08:49Z</time></trkpt>
<trkpt lat="29.76165" lon="94.018114">
<time>2016-10-08T03:08:50Z</time></trkpt>
<trkpt lat="29.761671" lon="94.018014">
<time>2016-10-08T03:08:51Z</time></trkpt>
<trkpt lat="29.761701" lon="94.017894">
<time>2016-10-08T03:08:52Z</time></trkpt>
<trkpt lat="29.761721" lon="94.017785">
<time>2016-10-08T03:08:53Z</time></trkpt>
<trkpt lat="29.761731" lon="94.017685">
<time>2016-10-08T03:08:54Z</time></trkpt>
<trkpt lat="29.761742" lon="94.017625">
<time>2016-10-08T03:08:55Z</time></trkpt>
<trkpt lat="29.761762" lon="94.017525">
<time>2016-10-08T03:08:56Z</time></trkpt>
<trkpt lat="29.761772" lon="94.017426">
<time>2016-10-08T03:08:57Z</time></trkpt>
<trkpt lat="29.761782" lon="94.017346">
<time>2016-10-08T03:08:58Z</time></trkpt>
<trkpt lat="29.761783" lon="94.017256">
<time>2016-10-08T03:08:59Z</time></trkpt>
<trkpt lat="29.761783" lon="94.017186">
<time>2016-10-08T03:09:00Z</time></trkpt>
<trkpt lat="29.761793" lon="94.017126">
<time>2016-10-08T03:09:01Z</time></trkpt>
<trkpt lat="29.761793" lon="94.017037">
<time>2016-10-08T03:09:02Z</time></trkpt>
<trkpt lat="29.761794" lon="94.016967">
<time>2016-10-08T03:09:03Z</time></trkpt>
<trkpt lat="29.761794" lon="94.016877">
<time>2016-10-08T03:09:04Z</time></trkpt>
<trkpt lat="29.761794" lon="94.016807">
<time>2016-10-08T03:09:05Z</time></trkpt>
<trkpt lat="29.761784" lon="94.016738">
<time>2016-10-08T03:09:06Z</time></trkpt>
<trkpt lat="29.761784" lon="94.016668">
<time>2016-10-08T03:09:07Z</time></trkpt>
<trkpt lat="29.761785" lon="94.016588">
<time>2016-10-08T03:09:08Z</time></trkpt>
<trkpt lat="29.761785" lon="94.016508">
<time>2016-10-08T03:09:09Z</time></trkpt>
<trkpt lat="29.761785" lon="94.016448">
<time>2016-10-08T03:09:10Z</time></trkpt>
<trkpt lat="29.761785" lon="94.016369">
<time>2016-10-08T03:09:11Z</time></trkpt>
<trkpt lat="29.761776" lon="94.016289">
<time>2016-10-08T03:09:12Z</time></trkpt>
<trkpt lat="29.761776" lon="94.016159">
<time>2016-10-08T03:09:13Z</time></trkpt>
<trkpt lat="29.761766" lon="94.016049">
<time>2016-10-08T03:09:14Z</time></trkpt>
<trkpt lat="29.761757" lon="94.01594">
<time>2016-10-08T03:09:15Z</time></trkpt>
<trkpt lat="29.761747" lon="94.01584">
<time>2016-10-08T03:09:16Z</time></trkpt>
<trkpt lat="29.761727" lon="94.01573">
<time>2016-10-08T03:09:17Z</time></trkpt>
<trkpt lat="29.761718" lon="94.015581">
<time>2016-10-08T03:09:18Z</time></trkpt>
<trkpt lat="29.761698" lon="94.015481">
<time>2016-10-08T03:09:19Z</time></trkpt>
<trkpt lat="29.761688" lon="94.015341">
<time>2016-10-08T03:09:20Z</time></trkpt>
<trkpt lat="29.761669" lon="94.015182">
<time>2016-10-08T03:09:21Z</time></trkpt>
<trkpt lat="29.761659" lon="94.015002">
<time>2016-10-08T03:09:22Z</time></trkpt>
<trkpt lat="29.76165" lon="94.014933">
<time>2016-10-08T03:09:23Z</time></trkpt>
<trkpt lat="29.76165" lon="94.014843">
<time>2016-10-08T03:09:24Z</time></trkpt>
<trkpt lat="29.76164" lon="94.014743">
<time>2016-10-08T03:09:25Z</time></trkpt>
<trkpt lat="29.761641" lon="94.014554">
<time>2016-10-08T03:09:26Z</time></trkpt>
<trkpt lat="29.761641" lon="94.014364">
<time>2016-10-08T03:09:27Z</time></trkpt>
<trkpt lat="29.761632" lon="94.014175">
<time>2016-10-08T03:09:28Z</time></trkpt>
<trkpt lat="29.761622" lon="94.013975">
<time>2016-10-08T03:09:29Z</time></trkpt>
<trkpt lat="29.761623" lon="94.013866">
<time>2016-10-08T03:09:30Z</time></trkpt>
<trkpt lat="29.761613" lon="94.013706">
<time>2016-10-08T03:09:31Z</time></trkpt>
<trkpt lat="29.761604" lon="94.013547">
<time>2016-10-08T03:09:32Z</time></trkpt>
<trkpt lat="29.761604" lon="94.013417">
<time>2016-10-08T03:09:33Z</time></trkpt>
<trkpt lat="29.761595" lon="94.013168">
<time>2016-10-08T03:09:34Z</time></trkpt>
<trkpt lat="29.761585" lon="94.012988">
<time>2016-10-08T03:09:35Z</time></trkpt>
<trkpt lat="29.761586" lon="94.012889">
<time>2016-10-08T03:09:36Z</time></trkpt>
<trkpt lat="29.761586" lon="94.012789">
<time>2016-10-08T03:09:37Z</time></trkpt>
<trkpt lat="29.761576" lon="94.012689">
<time>2016-10-08T03:09:38Z</time></trkpt>
<trkpt lat="29.761577" lon="94.012569">
<time>2016-10-08T03:09:39Z</time></trkpt>
<trkpt lat="29.761577" lon="94.01244">
<time>2016-10-08T03:09:40Z</time></trkpt>
<trkpt lat="29.761587" lon="94.01235">
<time>2016-10-08T03:09:41Z</time></trkpt>
<trkpt lat="29.761587" lon="94.01227">
<time>2016-10-08T03:09:42Z</time></trkpt>
<trkpt lat="29.761588" lon="94.012191">
<time>2016-10-08T03:09:43Z</time></trkpt>
<trkpt lat="29.761588" lon="94.012061">
<time>2016-10-08T03:09:44Z</time></trkpt>
<trkpt lat="29.761588" lon="94.011901">
<time>2016-10-08T03:09:45Z</time></trkpt>
<trkpt lat="29.761589" lon="94.011692">
<time>2016-10-08T03:09:46Z</time></trkpt>
<trkpt lat="29.76159" lon="94.011493">
<time>2016-10-08T03:09:47Z</time></trkpt>
<trkpt lat="29.76159" lon="94.011373">
<time>2016-10-08T03:09:48Z</time></trkpt>
<trkpt lat="29.76159" lon="94.011233">
<time>2016-10-08T03:09:49Z</time></trkpt>
<trkpt lat="29.761591" lon="94.011104">
<time>2016-10-08T03:09:50Z</time></trkpt>
<trkpt lat="29.761591" lon="94.010964">
<time>2016-10-08T03:09:51Z</time></trkpt>
<trkpt lat="29.761592" lon="94.010844">
<time>2016-10-08T03:09:52Z</time></trkpt>
<trkpt lat="29.761592" lon="94.010715">
<time>2016-10-08T03:09:53Z</time></trkpt>
<trkpt lat="29.761582" lon="94.010635">
<time>2016-10-08T03:09:54Z</time></trkpt>
<trkpt lat="29.761583" lon="94.010545">
<time>2016-10-08T03:09:55Z</time></trkpt>
<trkpt lat="29.761583" lon="94.010476">
<time>2016-10-08T03:09:56Z</time></trkpt>
<trkpt lat="29.761573" lon="94.010416">
<time>2016-10-08T03:09:57Z</time></trkpt>
<trkpt lat="29.761573" lon="94.010346">
<time>2016-10-08T03:09:58Z</time></trkpt>
<trkpt lat="29.761563" lon="94.010266">
<time>2016-10-08T03:09:59Z</time></trkpt>
<trkpt lat="29.761564" lon="94.010216">
<time>2016-10-08T03:10:00Z</time></trkpt>
<trkpt lat="29.761554" lon="94.010147">
<time>2016-10-08T03:10:01Z</time></trkpt>
<trkpt lat="29.761544" lon="94.010077">
<time>2016-10-08T03:10:02Z</time></trkpt>
<trkpt lat="29.761524" lon="94.009987">
<time>2016-10-08T03:10:03Z</time></trkpt>
<trkpt lat="29.761504" lon="94.009907">
<time>2016-10-08T03:10:04Z</time></trkpt>
<trkpt lat="29.761485" lon="94.009837">
<time>2016-10-08T03:10:05Z</time></trkpt>
<trkpt lat="29.761445" lon="94.009698">
<time>2016-10-08T03:10:06Z</time></trkpt>
<trkpt lat="29.761425" lon="94.009628">
<time>2016-10-08T03:10:07Z</time></trkpt>
<trkpt lat="29.761386" lon="94.009498">
<time>2016-10-08T03:10:08Z</time></trkpt>
<trkpt lat="29.761346" lon="94.009379">
<time>2016-10-08T03:10:09Z</time></trkpt>
<trkpt lat="29.761306" lon="94.009259">
<time>2016-10-08T03:10:10Z</time></trkpt>
<trkpt lat="29.761257" lon="94.0091">
<time>2016-10-08T03:10:11Z</time></trkpt>
<trkpt lat="29.761207" lon="94.00894">
<time>2016-10-08T03:10:12Z</time></trkpt>
<trkpt lat="29.761168" lon="94.00881">
<time>2016-10-08T03:10:13Z</time></trkpt>
<trkpt lat="29.761128" lon="94.008701">
<time>2016-10-08T03:10:14Z</time></trkpt>
<trkpt lat="29.761079" lon="94.008541">
<time>2016-10-08T03:10:15Z</time></trkpt>
<trkpt lat="29.761069" lon="94.008491">
<time>2016-10-08T03:10:16Z</time></trkpt>
<trkpt lat="29.761059" lon="94.008442">
<time>2016-10-08T03:10:17Z</time></trkpt>
<trkpt lat="29.761049" lon="94.008382">
<time>2016-10-08T03:10:18Z</time></trkpt>
<trkpt lat="29.761039" lon="94.008332">
<time>2016-10-08T03:10:19Z</time></trkpt>
<trkpt lat="29.761029" lon="94.008282">
<time>2016-10-08T03:10:20Z</time></trkpt>
<trkpt lat="29.761029" lon="94.008252">
<time>2016-10-08T03:10:21Z</time></trkpt>
<trkpt lat="29.76103" lon="94.008222">
<time>2016-10-08T03:10:22Z</time></trkpt>
<trkpt lat="29.76103" lon="94.008172">
<time>2016-10-08T03:10:23Z</time></trkpt>
<trkpt lat="29.76104" lon="94.008132">
<time>2016-10-08T03:10:24Z</time></trkpt>
<trkpt lat="29.76105" lon="94.008053">
<time>2016-10-08T03:10:25Z</time></trkpt>
<trkpt lat="29.76106" lon="94.008003">
<time>2016-10-08T03:10:26Z</time></trkpt>
<trkpt lat="29.76107" lon="94.007953">
<time>2016-10-08T03:10:27Z</time></trkpt>
<trkpt lat="29.761091" lon="94.007903">
<time>2016-10-08T03:10:28Z</time></trkpt>
<trkpt lat="29.761121" lon="94.007803">
<time>2016-10-08T03:10:29Z</time></trkpt>
<trkpt lat="29.761151" lon="94.007694">
<time>2016-10-08T03:10:30Z</time></trkpt>
<trkpt lat="29.761181" lon="94.007604">
<time>2016-10-08T03:10:31Z</time></trkpt>
<trkpt lat="29.761212" lon="94.007494">
<time>2016-10-08T03:10:32Z</time></trkpt>
<trkpt lat="29.761222" lon="94.007435">
<time>2016-10-08T03:10:33Z</time></trkpt>
<trkpt lat="29.761242" lon="94.007355">
<time>2016-10-08T03:10:34Z</time></trkpt>
<trkpt lat="29.761252" lon="94.007285">
<time>2016-10-08T03:10:35Z</time></trkpt>
<trkpt lat="29.761253" lon="94.007235">
<time>2016-10-08T03:10:36Z</time></trkpt>
<trkpt lat="29.761253" lon="94.007155">
<time>2016-10-08T03:10:37Z</time></trkpt>
<trkpt lat="29.761253" lon="94.007066">
<time>2016-10-08T03:10:38Z</time></trkpt>
<trkpt lat="29.761243" lon="94.006976">
<time>2016-10-08T03:10:39Z</time></trkpt>
<trkpt lat="29.761234" lon="94.006856">
<time>2016-10-08T03:10:40Z</time></trkpt>
<trkpt lat="29.761224" lon="94.006757">
<time>2016-10-08T03:10:41Z</time></trkpt>
<trkpt lat="29.761224" lon="94.006677">
<time>2016-10-08T03:10:42Z</time></trkpt>
<trkpt lat="29.761214" lon="94.006587">
<time>2016-10-08T03:10:43Z</time></trkpt>
<trkpt lat="29.761205" lon="94.006547">
<time>2016-10-08T03:10:44Z</time></trkpt>
<trkpt lat="29.761205" lon="94.006497">
<time>2016-10-08T03:10:45Z</time></trkpt>
<trkpt lat="29.761195" lon="94.006428">
<time>2016-10-08T03:10:46Z</time></trkpt>
<trkpt lat="29.761195" lon="94.006348">
<time>2016-10-08T03:10:47Z</time></trkpt>
<trkpt lat="29.761205" lon="94.006288">
<time>2016-10-08T03:10:48Z</time></trkpt>
<trkpt lat="29.761216" lon="94.006188">
<time>2016-10-08T03:10:49Z</time></trkpt>
<trkpt lat="29.761226" lon="94.006128">
<time>2016-10-08T03:10:50Z</time></trkpt>
<trkpt lat="29.761236" lon="94.006089">
<time>2016-10-08T03:10:51Z</time></trkpt>
<trkpt lat="29.761246" lon="94.006039">
<time>2016-10-08T03:10:52Z</time></trkpt>
<trkpt lat="29.761256" lon="94.005989">
<time>2016-10-08T03:10:53Z</time></trkpt>
<trkpt lat="29.761276" lon="94.005959">
<time>2016-10-08T03:10:54Z</time></trkpt>
<trkpt lat="29.761287" lon="94.005909">
<time>2016-10-08T03:10:55Z</time></trkpt>
<trkpt lat="29.761297" lon="94.005869">
<time>2016-10-08T03:10:56Z</time></trkpt>
<trkpt lat="29.761327" lon="94.005779">
<time>2016-10-08T03:10:57Z</time></trkpt>
<trkpt lat="29.761357" lon="94.0057">
<time>2016-10-08T03:10:58Z</time></trkpt>
<trkpt lat="29.761377" lon="94.00563">
<time>2016-10-08T03:10:59Z</time></trkpt>
<trkpt lat="29.761377" lon="94.0056">
<time>2016-10-08T03:11:00Z</time></trkpt>
<trkpt lat="29.761398" lon="94.00552">
<time>2016-10-08T03:11:01Z</time></trkpt>
<trkpt lat="29.761428" lon="94.00542">
<time>2016-10-08T03:11:02Z</time></trkpt>
<trkpt lat="29.761448" lon="94.005331">
<time>2016-10-08T03:11:03Z</time></trkpt>
<trkpt lat="29.761458" lon="94.005261">
<time>2016-10-08T03:11:04Z</time></trkpt>
<trkpt lat="29.761479" lon="94.005181">
<time>2016-10-08T03:11:05Z</time></trkpt>
<trkpt lat="29.761499" lon="94.005101">
<time>2016-10-08T03:11:06Z</time></trkpt>
<trkpt lat="29.761519" lon="94.005032">
<time>2016-10-08T03:11:07Z</time></trkpt>
<trkpt lat="29.761529" lon="94.004972">
<time>2016-10-08T03:11:08Z</time></trkpt>
<trkpt lat="29.761539" lon="94.004922">
<time>2016-10-08T03:11:09Z</time></trkpt>
<trkpt lat="29.76156" lon="94.004872">
<time>2016-10-08T03:11:10Z</time></trkpt>
<trkpt lat="29.76157" lon="94.004832">
<time>2016-10-08T03:11:11Z</time></trkpt>
<trkpt lat="29.76158" lon="94.004802">
<time>2016-10-08T03:11:12Z</time></trkpt>
<trkpt lat="29.7616" lon="94.004772">
<time>2016-10-08T03:11:13Z</time></trkpt>
<trkpt lat="29.76161" lon="94.004752">
<time>2016-10-08T03:11:14Z</time></trkpt>
<trkpt lat="29.76162" lon="94.004723">
<time>2016-10-08T03:11:15Z</time></trkpt>
<trkpt lat="29.76164" lon="94.004693">
<time>2016-10-08T03:11:16Z</time></trkpt>
<trkpt lat="29.76167" lon="94.004653">
<time>2016-10-08T03:11:17Z</time></trkpt>
<trkpt lat="29.7617" lon="94.004623">
<time>2016-10-08T03:11:18Z</time></trkpt>
<trkpt lat="29.76173" lon="94.004583">
<time>2016-10-08T03:11:19Z</time></trkpt>
<trkpt lat="29.76175" lon="94.004573">
<time>2016-10-08T03:11:20Z</time></trkpt>
<trkpt lat="29.761791" lon="94.004533">
<time>2016-10-08T03:11:21Z</time></trkpt>
<trkpt lat="29.761831" lon="94.004493">
<time>2016-10-08T03:11:22Z</time></trkpt>
<trkpt lat="29.761881" lon="94.004453">
<time>2016-10-08T03:11:23Z</time></trkpt>
<trkpt lat="29.761931" lon="94.004413">
<time>2016-10-08T03:11:24Z</time></trkpt>
<trkpt lat="29.761971" lon="94.004384">
<time>2016-10-08T03:11:25Z</time></trkpt>
<trkpt lat="29.762011" lon="94.004354">
<time>2016-10-08T03:11:26Z</time></trkpt>
<trkpt lat="29.762061" lon="94.004314">
<time>2016-10-08T03:11:27Z</time></trkpt>
<trkpt lat="29.762151" lon="94.004264">
<time>2016-10-08T03:11:28Z</time></trkpt>
<trkpt lat="29.762232" lon="94.004214">
<time>2016-10-08T03:11:29Z</time></trkpt>
<trkpt lat="29.762362" lon="94.004134">
<time>2016-10-08T03:11:30Z</time></trkpt>
<trkpt lat="29.762422" lon="94.004104">
<time>2016-10-08T03:11:31Z</time></trkpt>
<trkpt lat="29.762472" lon="94.004074">
<time>2016-10-08T03:11:32Z</time></trkpt>
<trkpt lat="29.762582" lon="94.004025">
<time>2016-10-08T03:11:33Z</time></trkpt>
<trkpt lat="29.762682" lon="94.003975">
<time>2016-10-08T03:11:34Z</time></trkpt>
<trkpt lat="29.762772" lon="94.003945">
<time>2016-10-08T03:11:35Z</time></trkpt>
<trkpt lat="29.762882" lon="94.003905">
<time>2016-10-08T03:11:36Z</time></trkpt>
<trkpt lat="29.763053" lon="94.003835">
<time>2016-10-08T03:11:37Z</time></trkpt>
<trkpt lat="29.763133" lon="94.003795">
<time>2016-10-08T03:11:38Z</time></trkpt>
<trkpt lat="29.763193" lon="94.003765">
<time>2016-10-08T03:11:39Z</time></trkpt>
<trkpt lat="29.763263" lon="94.003735">
<time>2016-10-08T03:11:40Z</time></trkpt>
<trkpt lat="29.763313" lon="94.003696">
<time>2016-10-08T03:11:41Z</time></trkpt>
<trkpt lat="29.763393" lon="94.003646">
<time>2016-10-08T03:11:42Z</time></trkpt>
<trkpt lat="29.763493" lon="94.003576">
<time>2016-10-08T03:11:43Z</time></trkpt>
<trkpt lat="29.763594" lon="94.003496">
<time>2016-10-08T03:11:44Z</time></trkpt>
<trkpt lat="29.763714" lon="94.003406">
<time>2016-10-08T03:11:45Z</time></trkpt>
<trkpt lat="29.763814" lon="94.003317">
<time>2016-10-08T03:11:46Z</time></trkpt>
<trkpt lat="29.763874" lon="94.003257">
<time>2016-10-08T03:11:47Z</time></trkpt>
<trkpt lat="29.763965" lon="94.003157">
<time>2016-10-08T03:11:48Z</time></trkpt>
<trkpt lat="29.764035" lon="94.003057">
<time>2016-10-08T03:11:49Z</time></trkpt>
<trkpt lat="29.764075" lon="94.002988">
<time>2016-10-08T03:11:50Z</time></trkpt>
<trkpt lat="29.764196" lon="94.002788">
<time>2016-10-08T03:11:51Z</time></trkpt>
<trkpt lat="29.764296" lon="94.002639">
<time>2016-10-08T03:11:52Z</time></trkpt>
<trkpt lat="29.764366" lon="94.002549">
<time>2016-10-08T03:11:53Z</time></trkpt>
<trkpt lat="29.764406" lon="94.002499">
<time>2016-10-08T03:11:54Z</time></trkpt>
<trkpt lat="29.764457" lon="94.002449">
<time>2016-10-08T03:11:55Z</time></trkpt>
<trkpt lat="29.764567" lon="94.002379">
<time>2016-10-08T03:11:56Z</time></trkpt>
<trkpt lat="29.764757" lon="94.00229">
<time>2016-10-08T03:11:57Z</time></trkpt>
<trkpt lat="29.764927" lon="94.00221">
<time>2016-10-08T03:11:58Z</time></trkpt>
<trkpt lat="29.765078" lon="94.00211">
<time>2016-10-08T03:11:59Z</time></trkpt>
<trkpt lat="29.765288" lon="94.001971">
<time>2016-10-08T03:12:00Z</time></trkpt>
<trkpt lat="29.765458" lon="94.001841">
<time>2016-10-08T03:12:01Z</time></trkpt>
<trkpt lat="29.765629" lon="94.001711">
<time>2016-10-08T03:12:02Z</time></trkpt>
<trkpt lat="29.765719" lon="94.001642">
<time>2016-10-08T03:12:03Z</time></trkpt>
<trkpt lat="29.765789" lon="94.001562">
<time>2016-10-08T03:12:04Z</time></trkpt>
<trkpt lat="29.765899" lon="94.001462">
<time>2016-10-08T03:12:05Z</time></trkpt>
<trkpt lat="29.76601" lon="94.001343">
<time>2016-10-08T03:12:06Z</time></trkpt>
<trkpt lat="29.76622" lon="94.001123">
<time>2016-10-08T03:12:07Z</time></trkpt>
<trkpt lat="29.766351" lon="94.000974">
<time>2016-10-08T03:12:08Z</time></trkpt>
<trkpt lat="29.766421" lon="94.000874">
<time>2016-10-08T03:12:09Z</time></trkpt>
<trkpt lat="29.766492" lon="94.000764">
<time>2016-10-08T03:12:10Z</time></trkpt>
<trkpt lat="29.766602" lon="94.000605">
<time>2016-10-08T03:12:11Z</time></trkpt>
<trkpt lat="29.766893" lon="94.000096">
<time>2016-10-08T03:12:12Z</time></trkpt>
<trkpt lat="29.766934" lon="94.000017">
<time>2016-10-08T03:12:13Z</time></trkpt>
<trkpt lat="29.766974" lon="93.999937">
<time>2016-10-08T03:12:14Z</time></trkpt>
<trkpt lat="29.767014" lon="93.999857">
<time>2016-10-08T03:12:15Z</time></trkpt>
<trkpt lat="29.767044" lon="93.999807">
<time>2016-10-08T03:12:16Z</time></trkpt>
<trkpt lat="29.767085" lon="93.999737">
<time>2016-10-08T03:12:17Z</time></trkpt>
<trkpt lat="29.767125" lon="93.999658">
<time>2016-10-08T03:12:18Z</time></trkpt>
<trkpt lat="29.767145" lon="93.999588">
<time>2016-10-08T03:12:19Z</time></trkpt>
<trkpt lat="29.767185" lon="93.999498">
<time>2016-10-08T03:12:20Z</time></trkpt>
<trkpt lat="29.767236" lon="93.999349">
<time>2016-10-08T03:12:21Z</time></trkpt>
<trkpt lat="29.767286" lon="93.999219">
<time>2016-10-08T03:12:22Z</time></trkpt>
<trkpt lat="29.767326" lon="93.999109">
<time>2016-10-08T03:12:23Z</time></trkpt>
<trkpt lat="29.767347" lon="93.999049">
<time>2016-10-08T03:12:24Z</time></trkpt>
<trkpt lat="29.767387" lon="93.99895">
<time>2016-10-08T03:12:25Z</time></trkpt>
<trkpt lat="29.767417" lon="93.99888">
<time>2016-10-08T03:12:26Z</time></trkpt>
<trkpt lat="29.767477" lon="93.99877">
<time>2016-10-08T03:12:27Z</time></trkpt>
<trkpt lat="29.767528" lon="93.99869">
<time>2016-10-08T03:12:28Z</time></trkpt>
<trkpt lat="29.767558" lon="93.998641">
<time>2016-10-08T03:12:29Z</time></trkpt>
<trkpt lat="29.767588" lon="93.998611">
<time>2016-10-08T03:12:30Z</time></trkpt>
<trkpt lat="29.767638" lon="93.998541">
<time>2016-10-08T03:12:31Z</time></trkpt>
<trkpt lat="29.767728" lon="93.998441">
<time>2016-10-08T03:12:32Z</time></trkpt>
<trkpt lat="29.767809" lon="93.998351">
<time>2016-10-08T03:12:33Z</time></trkpt>
<trkpt lat="29.767869" lon="93.998272">
<time>2016-10-08T03:12:34Z</time></trkpt>
<trkpt lat="29.767919" lon="93.998202">
<time>2016-10-08T03:12:35Z</time></trkpt>
<trkpt lat="29.767959" lon="93.998142">
<time>2016-10-08T03:12:36Z</time></trkpt>
<trkpt lat="29.768" lon="93.998072">
<time>2016-10-08T03:12:37Z</time></trkpt>
<trkpt lat="29.76804" lon="93.998003">
<time>2016-10-08T03:12:38Z</time></trkpt>
<trkpt lat="29.76806" lon="93.997953">
<time>2016-10-08T03:12:39Z</time></trkpt>
<trkpt lat="29.7681" lon="93.997873">
<time>2016-10-08T03:12:40Z</time></trkpt>
<trkpt lat="29.768181" lon="93.997723">
<time>2016-10-08T03:12:41Z</time></trkpt>
<trkpt lat="29.768221" lon="93.997644">
<time>2016-10-08T03:12:42Z</time></trkpt>
<trkpt lat="29.768291" lon="93.997554">
<time>2016-10-08T03:12:43Z</time></trkpt>
<trkpt lat="29.768341" lon="93.997484">
<time>2016-10-08T03:12:44Z</time></trkpt>
<trkpt lat="29.768402" lon="93.997404">
<time>2016-10-08T03:12:45Z</time></trkpt>
<trkpt lat="29.768502" lon="93.997305">
<time>2016-10-08T03:12:46Z</time></trkpt>
<trkpt lat="29.768622" lon="93.997175">
<time>2016-10-08T03:12:47Z</time></trkpt>
<trkpt lat="29.768763" lon="93.997055">
<time>2016-10-08T03:12:48Z</time></trkpt>
<trkpt lat="29.768913" lon="93.996916">
<time>2016-10-08T03:12:49Z</time></trkpt>
<trkpt lat="29.768973" lon="93.996856">
<time>2016-10-08T03:12:50Z</time></trkpt>
<trkpt lat="29.769043" lon="93.996796">
<time>2016-10-08T03:12:51Z</time></trkpt>
<trkpt lat="29.769103" lon="93.996756">
<time>2016-10-08T03:12:52Z</time></trkpt>
<trkpt lat="29.769164" lon="93.996716">
<time>2016-10-08T03:12:53Z</time></trkpt>
<trkpt lat="29.769244" lon="93.996647">
<time>2016-10-08T03:12:54Z</time></trkpt>
<trkpt lat="29.769334" lon="93.996587">
<time>2016-10-08T03:12:55Z</time></trkpt>
<trkpt lat="29.769434" lon="93.996487">
<time>2016-10-08T03:12:56Z</time></trkpt>
<trkpt lat="29.769504" lon="93.996417">
<time>2016-10-08T03:12:57Z</time></trkpt>
<trkpt lat="29.769595" lon="93.996318">
<time>2016-10-08T03:12:58Z</time></trkpt>
<trkpt lat="29.769685" lon="93.996228">
<time>2016-10-08T03:12:59Z</time></trkpt>
<trkpt lat="29.769775" lon="93.996118">
<time>2016-10-08T03:13:00Z</time></trkpt>
<trkpt lat="29.769866" lon="93.996028">
<time>2016-10-08T03:13:01Z</time></trkpt>
<trkpt lat="29.769956" lon="93.995949">
<time>2016-10-08T03:13:02Z</time></trkpt>
<trkpt lat="29.770036" lon="93.995879">
<time>2016-10-08T03:13:03Z</time></trkpt>
<trkpt lat="29.770116" lon="93.995809">
<time>2016-10-08T03:13:04Z</time></trkpt>
<trkpt lat="29.770236" lon="93.995729">
<time>2016-10-08T03:13:05Z</time></trkpt>
<trkpt lat="29.770357" lon="93.99565">
<time>2016-10-08T03:13:06Z</time></trkpt>
<trkpt lat="29.770447" lon="93.9956">
<time>2016-10-08T03:13:07Z</time></trkpt>
<trkpt lat="29.770527" lon="93.99555">
<time>2016-10-08T03:13:08Z</time></trkpt>
<trkpt lat="29.770637" lon="93.99547">
<time>2016-10-08T03:13:09Z</time></trkpt>
<trkpt lat="29.770767" lon="93.99537">
<time>2016-10-08T03:13:10Z</time></trkpt>
<trkpt lat="29.770838" lon="93.99532">
<time>2016-10-08T03:13:11Z</time></trkpt>
<trkpt lat="29.770928" lon="93.995241">
<time>2016-10-08T03:13:12Z</time></trkpt>
<trkpt lat="29.770988" lon="93.995181">
<time>2016-10-08T03:13:13Z</time></trkpt>
<trkpt lat="29.771068" lon="93.995101">
<time>2016-10-08T03:13:14Z</time></trkpt>
<trkpt lat="29.771118" lon="93.995051">
<time>2016-10-08T03:13:15Z</time></trkpt>
<trkpt lat="29.771148" lon="93.995021">
<time>2016-10-08T03:13:16Z</time></trkpt>
<trkpt lat="29.771199" lon="93.994991">
<time>2016-10-08T03:13:17Z</time></trkpt>
<trkpt lat="29.771299" lon="93.994942">
<time>2016-10-08T03:13:18Z</time></trkpt>
<trkpt lat="29.771379" lon="93.994892">
<time>2016-10-08T03:13:19Z</time></trkpt>
<trkpt lat="29.771429" lon="93.994862">
<time>2016-10-08T03:13:20Z</time></trkpt>
<trkpt lat="29.771499" lon="93.994812">
<time>2016-10-08T03:13:21Z</time></trkpt>
<trkpt lat="29.771599" lon="93.994732">
<time>2016-10-08T03:13:22Z</time></trkpt>
<trkpt lat="29.771669" lon="93.994672">
<time>2016-10-08T03:13:23Z</time></trkpt>
<trkpt lat="29.77172" lon="93.994613">
<time>2016-10-08T03:13:24Z</time></trkpt>
<trkpt lat="29.77177" lon="93.994553">
<time>2016-10-08T03:13:25Z</time></trkpt>
<trkpt lat="29.77182" lon="93.994483">
<time>2016-10-08T03:13:26Z</time></trkpt>
<trkpt lat="29.77186" lon="93.994433">
<time>2016-10-08T03:13:27Z</time></trkpt>
<trkpt lat="29.7719" lon="93.994363">
<time>2016-10-08T03:13:28Z</time></trkpt>
<trkpt lat="29.771951" lon="93.994294">
<time>2016-10-08T03:13:29Z</time></trkpt>
<trkpt lat="29.771991" lon="93.994244">
<time>2016-10-08T03:13:30Z</time></trkpt>
<trkpt lat="29.772061" lon="93.994184">
<time>2016-10-08T03:13:31Z</time></trkpt>
<trkpt lat="29.772101" lon="93.994144">
<time>2016-10-08T03:13:32Z</time></trkpt>
<trkpt lat="29.772131" lon="93.994124">
<time>2016-10-08T03:13:33Z</time></trkpt>
<trkpt lat="29.772211" lon="93.994074">
<time>2016-10-08T03:13:34Z</time></trkpt>
<trkpt lat="29.772271" lon="93.994044">
<time>2016-10-08T03:13:35Z</time></trkpt>
<trkpt lat="29.772321" lon="93.994014">
<time>2016-10-08T03:13:36Z</time></trkpt>
<trkpt lat="29.772422" lon="93.993964">
<time>2016-10-08T03:13:37Z</time></trkpt>
<trkpt lat="29.772502" lon="93.993925">
<time>2016-10-08T03:13:38Z</time></trkpt>
<trkpt lat="29.772542" lon="93.993895">
<time>2016-10-08T03:13:39Z</time></trkpt>
<trkpt lat="29.772572" lon="93.993875">
<time>2016-10-08T03:13:40Z</time></trkpt>
<trkpt lat="29.772622" lon="93.993845">
<time>2016-10-08T03:13:41Z</time></trkpt>
<trkpt lat="29.772652" lon="93.993825">
<time>2016-10-08T03:13:42Z</time></trkpt>
<trkpt lat="29.772742" lon="93.993755">
<time>2016-10-08T03:13:43Z</time></trkpt>
<trkpt lat="29.772862" lon="93.993655">
<time>2016-10-08T03:13:44Z</time></trkpt>
<trkpt lat="29.772983" lon="93.993546">
<time>2016-10-08T03:13:45Z</time></trkpt>
<trkpt lat="29.773113" lon="93.993436">
<time>2016-10-08T03:13:46Z</time></trkpt>
<trkpt lat="29.773183" lon="93.993366">
<time>2016-10-08T03:13:47Z</time></trkpt>
<trkpt lat="29.773263" lon="93.993287">
<time>2016-10-08T03:13:48Z</time></trkpt>
<trkpt lat="29.773334" lon="93.993217">
<time>2016-10-08T03:13:49Z</time></trkpt>
<trkpt lat="29.773434" lon="93.993097">
<time>2016-10-08T03:13:50Z</time></trkpt>
<trkpt lat="29.773544" lon="93.992967">
<time>2016-10-08T03:13:51Z</time></trkpt>
<trkpt lat="29.773715" lon="93.992768">
<time>2016-10-08T03:13:52Z</time></trkpt>
<trkpt lat="29.773785" lon="93.992698">
<time>2016-10-08T03:13:53Z</time></trkpt>
<trkpt lat="29.773835" lon="93.992638">
<time>2016-10-08T03:13:54Z</time></trkpt>
<trkpt lat="29.773886" lon="93.992589">
<time>2016-10-08T03:13:55Z</time></trkpt>
<trkpt lat="29.773946" lon="93.992539">
<time>2016-10-08T03:13:56Z</time></trkpt>
<trkpt lat="29.774006" lon="93.992489">
<time>2016-10-08T03:13:57Z</time></trkpt>
<trkpt lat="29.774106" lon="93.992409">
<time>2016-10-08T03:13:58Z</time></trkpt>
<trkpt lat="29.774196" lon="93.992329">
<time>2016-10-08T03:13:59Z</time></trkpt>
<trkpt lat="29.774296" lon="93.99226">
<time>2016-10-08T03:14:00Z</time></trkpt>
<trkpt lat="29.774387" lon="93.99219">
<time>2016-10-08T03:14:01Z</time></trkpt>
<trkpt lat="29.774437" lon="93.99214">
<time>2016-10-08T03:14:02Z</time></trkpt>
<trkpt lat="29.774507" lon="93.9921">
<time>2016-10-08T03:14:03Z</time></trkpt>
<trkpt lat="29.774547" lon="93.99207">
<time>2016-10-08T03:14:04Z</time></trkpt>
<trkpt lat="29.774617" lon="93.99203">
<time>2016-10-08T03:14:05Z</time></trkpt>
<trkpt lat="29.774657" lon="93.99201">
<time>2016-10-08T03:14:06Z</time></trkpt>
<trkpt lat="29.774727" lon="93.99199">
<time>2016-10-08T03:14:07Z</time></trkpt>
<trkpt lat="29.774767" lon="93.99198">
<time>2016-10-08T03:14:08Z</time></trkpt>
<trkpt lat="29.774837" lon="93.99196">
<time>2016-10-08T03:14:09Z</time></trkpt>
<trkpt lat="29.774857" lon="93.99196">
<time>2016-10-08T03:14:10Z</time></trkpt>
<trkpt lat="29.774937" lon="93.99194">
<time>2016-10-08T03:14:11Z</time></trkpt>
<trkpt lat="29.775037" lon="93.991911">
<time>2016-10-08T03:14:12Z</time></trkpt>
<trkpt lat="29.775097" lon="93.991901">
<time>2016-10-08T03:14:13Z</time></trkpt>
<trkpt lat="29.775208" lon="93.991881">
<time>2016-10-08T03:14:14Z</time></trkpt>
<trkpt lat="29.775318" lon="93.991851">
<time>2016-10-08T03:14:15Z</time></trkpt>
<trkpt lat="29.775388" lon="93.991821">
<time>2016-10-08T03:14:16Z</time></trkpt>
<trkpt lat="29.775438" lon="93.991801">
<time>2016-10-08T03:14:17Z</time></trkpt>
<trkpt lat="29.775528" lon="93.991761">
<time>2016-10-08T03:14:18Z</time></trkpt>
<trkpt lat="29.775608" lon="93.991721">
<time>2016-10-08T03:14:19Z</time></trkpt>
<trkpt lat="29.775708" lon="93.991661">
<time>2016-10-08T03:14:20Z</time></trkpt>
<trkpt lat="29.775818" lon="93.991601">
<time>2016-10-08T03:14:21Z</time></trkpt>
<trkpt lat="29.775878" lon="93.991572">
<time>2016-10-08T03:14:22Z</time></trkpt>
<trkpt lat="29.775948" lon="93.991542">
<time>2016-10-08T03:14:23Z</time></trkpt>
<trkpt lat="29.775998" lon="93.991532">
<time>2016-10-08T03:14:24Z</time></trkpt>
<trkpt lat="29.776059" lon="93.991522">
<time>2016-10-08T03:14:25Z</time></trkpt>
<trkpt lat="29.776119" lon="93.991512">
<time>2016-10-08T03:14:26Z</time></trkpt>
<trkpt lat="29.776209" lon="93.991512">
<time>2016-10-08T03:14:27Z</time></trkpt>
<trkpt lat="29.776319" lon="93.991502">
<time>2016-10-08T03:14:28Z</time></trkpt>
<trkpt lat="29.776419" lon="93.991502">
<time>2016-10-08T03:14:29Z</time></trkpt>
<trkpt lat="29.776489" lon="93.991492">
<time>2016-10-08T03:14:30Z</time></trkpt>
<trkpt lat="29.776529" lon="93.991482">
<time>2016-10-08T03:14:31Z</time></trkpt>
<trkpt lat="29.776589" lon="93.991472">
<time>2016-10-08T03:14:32Z</time></trkpt>
<trkpt lat="29.776649" lon="93.991452">
<time>2016-10-08T03:14:33Z</time></trkpt>
<trkpt lat="29.776699" lon="93.991432">
<time>2016-10-08T03:14:34Z</time></trkpt>
<trkpt lat="29.776769" lon="93.991392">
<time>2016-10-08T03:14:35Z</time></trkpt>
<trkpt lat="29.776859" lon="93.991342">
<time>2016-10-08T03:14:36Z</time></trkpt>
<trkpt lat="29.776949" lon="93.991282">
<time>2016-10-08T03:14:37Z</time></trkpt>
<trkpt lat="29.777059" lon="93.991213">
<time>2016-10-08T03:14:38Z</time></trkpt>
<trkpt lat="29.777129" lon="93.991163">
<time>2016-10-08T03:14:39Z</time></trkpt>
<trkpt lat="29.7772" lon="93.991123">
<time>2016-10-08T03:14:40Z</time></trkpt>
<trkpt lat="29.77726" lon="93.991083">
<time>2016-10-08T03:14:41Z</time></trkpt>
<trkpt lat="29.7773" lon="93.991053">
<time>2016-10-08T03:14:42Z</time></trkpt>
<trkpt lat="29.77734" lon="93.991033">
<time>2016-10-08T03:14:43Z</time></trkpt>
<trkpt lat="29.77739" lon="93.991003">
<time>2016-10-08T03:14:44Z</time></trkpt>
<trkpt lat="29.77745" lon="93.990983">
<time>2016-10-08T03:14:45Z</time></trkpt>
<trkpt lat="29.77748" lon="93.990973">
<time>2016-10-08T03:14:46Z</time></trkpt>
<trkpt lat="29.77751" lon="93.990963">
<time>2016-10-08T03:14:47Z</time></trkpt>
<trkpt lat="29.77758" lon="93.990953">
<time>2016-10-08T03:14:48Z</time></trkpt>
<trkpt lat="29.77763" lon="93.990943">
<time>2016-10-08T03:14:49Z</time></trkpt>
<trkpt lat="29.77768" lon="93.990943">
<time>2016-10-08T03:14:50Z</time></trkpt>
<trkpt lat="29.77782" lon="93.990933">
<time>2016-10-08T03:14:51Z</time></trkpt>
<trkpt lat="29.77797" lon="93.990923">
<time>2016-10-08T03:14:52Z</time></trkpt>
<trkpt lat="29.77818" lon="93.990913">
<time>2016-10-08T03:14:53Z</time></trkpt>
<trkpt lat="29.7783" lon="93.990903">
<time>2016-10-08T03:14:54Z</time></trkpt>
<trkpt lat="29.77838" lon="93.990894">
<time>2016-10-08T03:14:55Z</time></trkpt>
<trkpt lat="29.77843" lon="93.990874">
<time>2016-10-08T03:14:56Z</time></trkpt>
<trkpt lat="29.77847" lon="93.990864">
<time>2016-10-08T03:14:57Z</time></trkpt>
<trkpt lat="29.77854" lon="93.990844">
<time>2016-10-08T03:14:58Z</time></trkpt>
<trkpt lat="29.77864" lon="93.990794">
<time>2016-10-08T03:14:59Z</time></trkpt>
<trkpt lat="29.778721" lon="93.990744">
<time>2016-10-08T03:15:00Z</time></trkpt>
<trkpt lat="29.778781" lon="93.990704">
<time>2016-10-08T03:15:01Z</time></trkpt>
<trkpt lat="29.778821" lon="93.990674">
<time>2016-10-08T03:15:02Z</time></trkpt>
<trkpt lat="29.778991" lon="93.990545">
<time>2016-10-08T03:15:03Z</time></trkpt>
<trkpt lat="29.779061" lon="93.990485">
<time>2016-10-08T03:15:04Z</time></trkpt>
<trkpt lat="29.779202" lon="93.990405">
<time>2016-10-08T03:15:05Z</time></trkpt>
<trkpt lat="29.779342" lon="93.990345">
<time>2016-10-08T03:15:06Z</time></trkpt>
<trkpt lat="29.779512" lon="93.990265">
<time>2016-10-08T03:15:07Z</time></trkpt>
<trkpt lat="29.779802" lon="93.990136">
<time>2016-10-08T03:15:08Z</time></trkpt>
<trkpt lat="29.780083" lon="93.990006">
<time>2016-10-08T03:15:09Z</time></trkpt>
<trkpt lat="29.780263" lon="93.989926">
<time>2016-10-08T03:15:10Z</time></trkpt>
<trkpt lat="29.780373" lon="93.989857">
<time>2016-10-08T03:15:11Z</time></trkpt>
<trkpt lat="29.780453" lon="93.989817">
<time>2016-10-08T03:15:12Z</time></trkpt>
<trkpt lat="29.780573" lon="93.989727">
<time>2016-10-08T03:15:13Z</time></trkpt>
<trkpt lat="29.780654" lon="93.989667">
<time>2016-10-08T03:15:14Z</time></trkpt>
<trkpt lat="29.780714" lon="93.989617">
<time>2016-10-08T03:15:15Z</time></trkpt>
<trkpt lat="29.780794" lon="93.989537">
<time>2016-10-08T03:15:16Z</time></trkpt>
<trkpt lat="29.780874" lon="93.989448">
<time>2016-10-08T03:15:17Z</time></trkpt>
<trkpt lat="29.781065" lon="93.989258">
<time>2016-10-08T03:15:18Z</time></trkpt>
<trkpt lat="29.781245" lon="93.989059">
<time>2016-10-08T03:15:19Z</time></trkpt>
<trkpt lat="29.781456" lon="93.988849">
<time>2016-10-08T03:15:20Z</time></trkpt>
<trkpt lat="29.781687" lon="93.9886">
<time>2016-10-08T03:15:21Z</time></trkpt>
<trkpt lat="29.781968" lon="93.988311">
<time>2016-10-08T03:15:22Z</time></trkpt>
<trkpt lat="29.782349" lon="93.987912">
<time>2016-10-08T03:15:23Z</time></trkpt>
<trkpt lat="29.78265" lon="93.987613">
<time>2016-10-08T03:15:24Z</time></trkpt>
<trkpt lat="29.78292" lon="93.987334">
<time>2016-10-08T03:15:25Z</time></trkpt>
<trkpt lat="29.783141" lon="93.987105">
<time>2016-10-08T03:15:26Z</time></trkpt>
<trkpt lat="29.783422" lon="93.986815">
<time>2016-10-08T03:15:27Z</time></trkpt>
<trkpt lat="29.783582" lon="93.986636">
<time>2016-10-08T03:15:28Z</time></trkpt>
<trkpt lat="29.783673" lon="93.986516">
<time>2016-10-08T03:15:29Z</time></trkpt>
<trkpt lat="29.783793" lon="93.986367">
<time>2016-10-08T03:15:30Z</time></trkpt>
<trkpt lat="29.784165" lon="93.985868">
<time>2016-10-08T03:15:31Z</time></trkpt>
<trkpt lat="29.784285" lon="93.985699">
<time>2016-10-08T03:15:32Z</time></trkpt>
<trkpt lat="29.784466" lon="93.985459">
<time>2016-10-08T03:15:33Z</time></trkpt>
<trkpt lat="29.784877" lon="93.984911">
<time>2016-10-08T03:15:34Z</time></trkpt>
<trkpt lat="29.785319" lon="93.984323">
<time>2016-10-08T03:15:35Z</time></trkpt>
<trkpt lat="29.78564" lon="93.983884">
<time>2016-10-08T03:15:36Z</time></trkpt>
<trkpt lat="29.785781" lon="93.983684">
<time>2016-10-08T03:15:37Z</time></trkpt>
<trkpt lat="29.785952" lon="93.983465">
<time>2016-10-08T03:15:38Z</time></trkpt>
<trkpt lat="29.786092" lon="93.983256">
<time>2016-10-08T03:15:39Z</time></trkpt>
<trkpt lat="29.786203" lon="93.983076">
<time>2016-10-08T03:15:40Z</time></trkpt>
<trkpt lat="29.786303" lon="93.982877">
<time>2016-10-08T03:15:41Z</time></trkpt>
<trkpt lat="29.786384" lon="93.982707">
<time>2016-10-08T03:15:42Z</time></trkpt>
<trkpt lat="29.786474" lon="93.982468">
<time>2016-10-08T03:15:43Z</time></trkpt>
<trkpt lat="29.786565" lon="93.982199">
<time>2016-10-08T03:15:44Z</time></trkpt>
<trkpt lat="29.786656" lon="93.98189">
<time>2016-10-08T03:15:45Z</time></trkpt>
<trkpt lat="29.786777" lon="93.981481">
<time>2016-10-08T03:15:46Z</time></trkpt>
<trkpt lat="29.786858" lon="93.981222">
<time>2016-10-08T03:15:47Z</time></trkpt>
<trkpt lat="29.786979" lon="93.980763">
<time>2016-10-08T03:15:48Z</time></trkpt>
<trkpt lat="29.78707" lon="93.980484">
<time>2016-10-08T03:15:49Z</time></trkpt>
<trkpt lat="29.787181" lon="93.980115">
<time>2016-10-08T03:15:50Z</time></trkpt>
<trkpt lat="29.787313" lon="93.979666">
<time>2016-10-08T03:15:51Z</time></trkpt>
<trkpt lat="29.787454" lon="93.979197">
<time>2016-10-08T03:15:52Z</time></trkpt>
<trkpt lat="29.787575" lon="93.978768">
<time>2016-10-08T03:15:53Z</time></trkpt>
<trkpt lat="29.787676" lon="93.978449">
<time>2016-10-08T03:15:54Z</time></trkpt>
<trkpt lat="29.787787" lon="93.97804">
<time>2016-10-08T03:15:55Z</time></trkpt>
<trkpt lat="29.787848" lon="93.977851">
<time>2016-10-08T03:15:56Z</time></trkpt>
<trkpt lat="29.787898" lon="93.977681">
<time>2016-10-08T03:15:57Z</time></trkpt>
<trkpt lat="29.788029" lon="93.977253">
<time>2016-10-08T03:15:58Z</time></trkpt>
<trkpt lat="29.78812" lon="93.976934">
<time>2016-10-08T03:15:59Z</time></trkpt>
<trkpt lat="29.788171" lon="93.976764">
<time>2016-10-08T03:16:00Z</time></trkpt>
<trkpt lat="29.788241" lon="93.976525">
<time>2016-10-08T03:16:01Z</time></trkpt>
<trkpt lat="29.788292" lon="93.976345">
<time>2016-10-08T03:16:02Z</time></trkpt>
<trkpt lat="29.788353" lon="93.976136">
<time>2016-10-08T03:16:03Z</time></trkpt>
<trkpt lat="29.788534" lon="93.975557">
<time>2016-10-08T03:16:04Z</time></trkpt>
<trkpt lat="29.788625" lon="93.975248">
<time>2016-10-08T03:16:05Z</time></trkpt>
<trkpt lat="29.788786" lon="93.97471">
<time>2016-10-08T03:16:06Z</time></trkpt>
<trkpt lat="29.788928" lon="93.974211">
<time>2016-10-08T03:16:07Z</time></trkpt>
<trkpt lat="29.789009" lon="93.973952">
<time>2016-10-08T03:16:08Z</time></trkpt>
<trkpt lat="29.78912" lon="93.973563">
<time>2016-10-08T03:16:09Z</time></trkpt>
<trkpt lat="29.78917" lon="93.973383">
<time>2016-10-08T03:16:10Z</time></trkpt>
<trkpt lat="29.7892" lon="93.973274">
<time>2016-10-08T03:16:11Z</time></trkpt>
<trkpt lat="29.789241" lon="93.973154">
<time>2016-10-08T03:16:12Z</time></trkpt>
<trkpt lat="29.789332" lon="93.972875">
<time>2016-10-08T03:16:13Z</time></trkpt>
<trkpt lat="29.789392" lon="93.972635">
<time>2016-10-08T03:16:14Z</time></trkpt>
<trkpt lat="29.789453" lon="93.972446">
<time>2016-10-08T03:16:15Z</time></trkpt>
<trkpt lat="29.789493" lon="93.972316">
<time>2016-10-08T03:16:16Z</time></trkpt>
<trkpt lat="29.789574" lon="93.972037">
<time>2016-10-08T03:16:17Z</time></trkpt>
<trkpt lat="29.789614" lon="93.971877">
<time>2016-10-08T03:16:18Z</time></trkpt>
<trkpt lat="29.789655" lon="93.971748">
<time>2016-10-08T03:16:19Z</time></trkpt>
<trkpt lat="29.789725" lon="93.971518">
<time>2016-10-08T03:16:20Z</time></trkpt>
<trkpt lat="29.789776" lon="93.971349">
<time>2016-10-08T03:16:21Z</time></trkpt>
<trkpt lat="29.789816" lon="93.971229">
<time>2016-10-08T03:16:22Z</time></trkpt>
<trkpt lat="29.789877" lon="93.971">
<time>2016-10-08T03:16:23Z</time></trkpt>
<trkpt lat="29.789937" lon="93.9708">
<time>2016-10-08T03:16:24Z</time></trkpt>
<trkpt lat="29.789957" lon="93.97073">
<time>2016-10-08T03:16:25Z</time></trkpt>
<trkpt lat="29.789988" lon="93.970641">
<time>2016-10-08T03:16:26Z</time></trkpt>
<trkpt lat="29.790018" lon="93.970531">
<time>2016-10-08T03:16:27Z</time></trkpt>
<trkpt lat="29.790058" lon="93.970411">
<time>2016-10-08T03:16:28Z</time></trkpt>
<trkpt lat="29.790099" lon="93.970271">
<time>2016-10-08T03:16:29Z</time></trkpt>
<trkpt lat="29.790169" lon="93.970032">
<time>2016-10-08T03:16:30Z</time></trkpt>
<trkpt lat="29.790189" lon="93.969942">
<time>2016-10-08T03:16:31Z</time></trkpt>
<trkpt lat="29.79027" lon="93.969673">
<time>2016-10-08T03:16:32Z</time></trkpt>
<trkpt lat="29.790311" lon="93.969523">
<time>2016-10-08T03:16:33Z</time></trkpt>
<trkpt lat="29.790351" lon="93.969394">
<time>2016-10-08T03:16:34Z</time></trkpt>
<trkpt lat="29.790381" lon="93.969304">
<time>2016-10-08T03:16:35Z</time></trkpt>
<trkpt lat="29.790432" lon="93.969134">
<time>2016-10-08T03:16:36Z</time></trkpt>
<trkpt lat="29.790543" lon="93.968755">
<time>2016-10-08T03:16:37Z</time></trkpt>
<trkpt lat="29.790573" lon="93.968666">
<time>2016-10-08T03:16:38Z</time></trkpt>
<trkpt lat="29.790603" lon="93.968566">
<time>2016-10-08T03:16:39Z</time></trkpt>
<trkpt lat="29.790623" lon="93.968466">
<time>2016-10-08T03:16:40Z</time></trkpt>
<trkpt lat="29.790684" lon="93.968267">
<time>2016-10-08T03:16:41Z</time></trkpt>
<trkpt lat="29.790714" lon="93.968167">
<time>2016-10-08T03:16:42Z</time></trkpt>
<trkpt lat="29.790744" lon="93.968077">
<time>2016-10-08T03:16:43Z</time></trkpt>
<trkpt lat="29.790775" lon="93.967977">
<time>2016-10-08T03:16:44Z</time></trkpt>
<trkpt lat="29.790805" lon="93.967868">
<time>2016-10-08T03:16:45Z</time></trkpt>
<trkpt lat="29.790835" lon="93.967778">
<time>2016-10-08T03:16:46Z</time></trkpt>
<trkpt lat="29.790876" lon="93.967618">
<time>2016-10-08T03:16:47Z</time></trkpt>
<trkpt lat="29.790916" lon="93.967509">
<time>2016-10-08T03:16:48Z</time></trkpt>
<trkpt lat="29.790936" lon="93.967409">
<time>2016-10-08T03:16:49Z</time></trkpt>
<trkpt lat="29.790966" lon="93.967339">
<time>2016-10-08T03:16:50Z</time></trkpt>
<trkpt lat="29.790987" lon="93.967239">
<time>2016-10-08T03:16:51Z</time></trkpt>
<trkpt lat="29.791017" lon="93.96715">
<time>2016-10-08T03:16:52Z</time></trkpt>
<trkpt lat="29.791047" lon="93.96703">
<time>2016-10-08T03:16:53Z</time></trkpt>
<trkpt lat="29.791077" lon="93.96693">
<time>2016-10-08T03:16:54Z</time></trkpt>
<trkpt lat="29.791098" lon="93.96683">
<time>2016-10-08T03:16:55Z</time></trkpt>
<trkpt lat="29.791138" lon="93.966711">
<time>2016-10-08T03:16:56Z</time></trkpt>
<trkpt lat="29.791158" lon="93.966611">
<time>2016-10-08T03:16:57Z</time></trkpt>
<trkpt lat="29.791178" lon="93.966521">
<time>2016-10-08T03:16:58Z</time></trkpt>
<trkpt lat="29.791199" lon="93.966441">
<time>2016-10-08T03:16:59Z</time></trkpt>
<trkpt lat="29.791219" lon="93.966342">
<time>2016-10-08T03:17:00Z</time></trkpt>
<trkpt lat="29.791249" lon="93.966242">
<time>2016-10-08T03:17:01Z</time></trkpt>
<trkpt lat="29.791269" lon="93.966142">
<time>2016-10-08T03:17:02Z</time></trkpt>
<trkpt lat="29.79132" lon="93.965913">
<time>2016-10-08T03:17:03Z</time></trkpt>
<trkpt lat="29.791361" lon="93.965673">
<time>2016-10-08T03:17:04Z</time></trkpt>
<trkpt lat="29.791391" lon="93.965524">
<time>2016-10-08T03:17:05Z</time></trkpt>
<trkpt lat="29.791422" lon="93.965324">
<time>2016-10-08T03:17:06Z</time></trkpt>
<trkpt lat="29.791462" lon="93.965125">
<time>2016-10-08T03:17:07Z</time></trkpt>
<trkpt lat="29.791493" lon="93.964945">
<time>2016-10-08T03:17:08Z</time></trkpt>
<trkpt lat="29.791523" lon="93.964736">
<time>2016-10-08T03:17:09Z</time></trkpt>
<trkpt lat="29.791554" lon="93.964486">
<time>2016-10-08T03:17:10Z</time></trkpt>
<trkpt lat="29.791584" lon="93.964287">
<time>2016-10-08T03:17:11Z</time></trkpt>
<trkpt lat="29.791625" lon="93.964077">
<time>2016-10-08T03:17:12Z</time></trkpt>
<trkpt lat="29.791645" lon="93.963888">
<time>2016-10-08T03:17:13Z</time></trkpt>
<trkpt lat="29.791676" lon="93.963698">
<time>2016-10-08T03:17:14Z</time></trkpt>
<trkpt lat="29.791716" lon="93.963449">
<time>2016-10-08T03:17:15Z</time></trkpt>
<trkpt lat="29.791767" lon="93.963129">
<time>2016-10-08T03:17:16Z</time></trkpt>
<trkpt lat="29.791798" lon="93.96291">
<time>2016-10-08T03:17:17Z</time></trkpt>
<trkpt lat="29.791838" lon="93.962671">
<time>2016-10-08T03:17:18Z</time></trkpt>
<trkpt lat="29.791869" lon="93.962451">
<time>2016-10-08T03:17:19Z</time></trkpt>
<trkpt lat="29.791909" lon="93.962222">
<time>2016-10-08T03:17:20Z</time></trkpt>
<trkpt lat="29.79193" lon="93.962032">
<time>2016-10-08T03:17:21Z</time></trkpt>
<trkpt lat="29.792011" lon="93.961533">
<time>2016-10-08T03:17:22Z</time></trkpt>
<trkpt lat="29.792306" lon="93.959538">
<time>2016-10-08T03:17:23Z</time></trkpt>
<trkpt lat="29.792337" lon="93.959318">
<time>2016-10-08T03:17:24Z</time></trkpt>
<trkpt lat="29.792347" lon="93.959268">
<time>2016-10-08T03:17:25Z</time></trkpt>
<trkpt lat="29.792377" lon="93.959089">
<time>2016-10-08T03:17:26Z</time></trkpt>
<trkpt lat="29.792397" lon="93.958959">
<time>2016-10-08T03:17:27Z</time></trkpt>
<trkpt lat="29.792418" lon="93.9588">
<time>2016-10-08T03:17:28Z</time></trkpt>
<trkpt lat="29.792469" lon="93.95848">
<time>2016-10-08T03:17:29Z</time></trkpt>
<trkpt lat="29.792509" lon="93.958171">
<time>2016-10-08T03:17:30Z</time></trkpt>
<trkpt lat="29.79254" lon="93.957951">
<time>2016-10-08T03:17:31Z</time></trkpt>
<trkpt lat="29.792591" lon="93.957632">
<time>2016-10-08T03:17:32Z</time></trkpt>
<trkpt lat="29.792651" lon="93.957233">
<time>2016-10-08T03:17:33Z</time></trkpt>
<trkpt lat="29.792692" lon="93.956974">
<time>2016-10-08T03:17:34Z</time></trkpt>
<trkpt lat="29.792743" lon="93.956634">
<time>2016-10-08T03:17:35Z</time></trkpt>
<trkpt lat="29.792793" lon="93.956355">
<time>2016-10-08T03:17:36Z</time></trkpt>
<trkpt lat="29.792834" lon="93.956096">
<time>2016-10-08T03:17:37Z</time></trkpt>
<trkpt lat="29.792864" lon="93.955936">
<time>2016-10-08T03:17:38Z</time></trkpt>
<trkpt lat="29.792885" lon="93.955796">
<time>2016-10-08T03:17:39Z</time></trkpt>
<trkpt lat="29.792935" lon="93.955577">
<time>2016-10-08T03:17:40Z</time></trkpt>
<trkpt lat="29.792966" lon="93.955457">
<time>2016-10-08T03:17:41Z</time></trkpt>
<trkpt lat="29.792996" lon="93.955327">
<time>2016-10-08T03:17:42Z</time></trkpt>
<trkpt lat="29.793036" lon="93.955178">
<time>2016-10-08T03:17:43Z</time></trkpt>
<trkpt lat="29.793076" lon="93.955048">
<time>2016-10-08T03:17:44Z</time></trkpt>
<trkpt lat="29.793127" lon="93.954878">
<time>2016-10-08T03:17:45Z</time></trkpt>
<trkpt lat="29.793227" lon="93.954589">
<time>2016-10-08T03:17:46Z</time></trkpt>
<trkpt lat="29.793358" lon="93.95423">
<time>2016-10-08T03:17:47Z</time></trkpt>
<trkpt lat="29.793489" lon="93.95388">
<time>2016-10-08T03:17:48Z</time></trkpt>
<trkpt lat="29.79359" lon="93.953621">
<time>2016-10-08T03:17:49Z</time></trkpt>
<trkpt lat="29.793821" lon="93.952982">
<time>2016-10-08T03:17:50Z</time></trkpt>
<trkpt lat="29.794032" lon="93.952393">
<time>2016-10-08T03:17:51Z</time></trkpt>
<trkpt lat="29.794626" lon="93.950767">
<time>2016-10-08T03:17:52Z</time></trkpt>
<trkpt lat="29.794736" lon="93.950457">
<time>2016-10-08T03:17:53Z</time></trkpt>
<trkpt lat="29.794827" lon="93.950228">
<time>2016-10-08T03:17:54Z</time></trkpt>
<trkpt lat="29.794897" lon="93.950018">
<time>2016-10-08T03:17:55Z</time></trkpt>
<trkpt lat="29.794978" lon="93.949798">
<time>2016-10-08T03:17:56Z</time></trkpt>
<trkpt lat="29.795048" lon="93.949599">
<time>2016-10-08T03:17:57Z</time></trkpt>
<trkpt lat="29.795119" lon="93.949399">
<time>2016-10-08T03:17:58Z</time></trkpt>
<trkpt lat="29.795159" lon="93.949229">
<time>2016-10-08T03:17:59Z</time></trkpt>
<trkpt lat="29.795189" lon="93.94913">
<time>2016-10-08T03:18:00Z</time></trkpt>
<trkpt lat="29.795209" lon="93.949">
<time>2016-10-08T03:18:01Z</time></trkpt>
<trkpt lat="29.79522" lon="93.94887">
<time>2016-10-08T03:18:02Z</time></trkpt>
<trkpt lat="29.79523" lon="93.94875">
<time>2016-10-08T03:18:03Z</time></trkpt>
<trkpt lat="29.79524" lon="93.948621">
<time>2016-10-08T03:18:04Z</time></trkpt>
<trkpt lat="29.79523" lon="93.948531">
<time>2016-10-08T03:18:05Z</time></trkpt>
<trkpt lat="29.795221" lon="93.948381">
<time>2016-10-08T03:18:06Z</time></trkpt>
<trkpt lat="29.795201" lon="93.948042">
<time>2016-10-08T03:18:07Z</time></trkpt>
<trkpt lat="29.795182" lon="93.947792">
<time>2016-10-08T03:18:08Z</time></trkpt>
<trkpt lat="29.795162" lon="93.947503">
<time>2016-10-08T03:18:09Z</time></trkpt>
<trkpt lat="29.795123" lon="93.947103">
<time>2016-10-08T03:18:10Z</time></trkpt>
<trkpt lat="29.795094" lon="93.946674">
<time>2016-10-08T03:18:11Z</time></trkpt>
<trkpt lat="29.795045" lon="93.946085">
<time>2016-10-08T03:18:12Z</time></trkpt>
<trkpt lat="29.795026" lon="93.945816">
<time>2016-10-08T03:18:13Z</time></trkpt>
<trkpt lat="29.794997" lon="93.945426">
<time>2016-10-08T03:18:14Z</time></trkpt>
<trkpt lat="29.794957" lon="93.944997">
<time>2016-10-08T03:18:15Z</time></trkpt>
<trkpt lat="29.794938" lon="93.944668">
<time>2016-10-08T03:18:16Z</time></trkpt>
<trkpt lat="29.794899" lon="93.944199">
<time>2016-10-08T03:18:17Z</time></trkpt>
<trkpt lat="29.79486" lon="93.943789">
<time>2016-10-08T03:18:18Z</time></trkpt>
<trkpt lat="29.794831" lon="93.94331">
<time>2016-10-08T03:18:19Z</time></trkpt>
<trkpt lat="29.794791" lon="93.942911">
<time>2016-10-08T03:18:20Z</time></trkpt>
<trkpt lat="29.794752" lon="93.942451">
<time>2016-10-08T03:18:21Z</time></trkpt>
<trkpt lat="29.794733" lon="93.942122">
<time>2016-10-08T03:18:22Z</time></trkpt>
<trkpt lat="29.794703" lon="93.941812">
<time>2016-10-08T03:18:23Z</time></trkpt>
<trkpt lat="29.794664" lon="93.941243">
<time>2016-10-08T03:18:24Z</time></trkpt>
<trkpt lat="29.794625" lon="93.940734">
<time>2016-10-08T03:18:25Z</time></trkpt>
<trkpt lat="29.794596" lon="93.940365">
<time>2016-10-08T03:18:26Z</time></trkpt>
<trkpt lat="29.794566" lon="93.940045">
<time>2016-10-08T03:18:27Z</time></trkpt>
<trkpt lat="29.794537" lon="93.939676">
<time>2016-10-08T03:18:28Z</time></trkpt>
<trkpt lat="29.794508" lon="93.939266">
<time>2016-10-08T03:18:29Z</time></trkpt>
<trkpt lat="29.794488" lon="93.939017">
<time>2016-10-08T03:18:30Z</time></trkpt>
<trkpt lat="29.794459" lon="93.938697">
<time>2016-10-08T03:18:31Z</time></trkpt>
<trkpt lat="29.794439" lon="93.938378">
<time>2016-10-08T03:18:32Z</time></trkpt>
<trkpt lat="29.79441" lon="93.938098">
<time>2016-10-08T03:18:33Z</time></trkpt>
<trkpt lat="29.79438" lon="93.937709">
<time>2016-10-08T03:18:34Z</time></trkpt>
<trkpt lat="29.794351" lon="93.937329">
<time>2016-10-08T03:18:35Z</time></trkpt>
<trkpt lat="29.794332" lon="93.93701">
<time>2016-10-08T03:18:36Z</time></trkpt>
<trkpt lat="29.794302" lon="93.93662">
<time>2016-10-08T03:18:37Z</time></trkpt>
<trkpt lat="29.794273" lon="93.93629">
<time>2016-10-08T03:18:38Z</time></trkpt>
<trkpt lat="29.794224" lon="93.935691">
<time>2016-10-08T03:18:39Z</time></trkpt>
<trkpt lat="29.794204" lon="93.935422">
<time>2016-10-08T03:18:40Z</time></trkpt>
<trkpt lat="29.794194" lon="93.935282">
<time>2016-10-08T03:18:41Z</time></trkpt>
<trkpt lat="29.794175" lon="93.934992">
<time>2016-10-08T03:18:42Z</time></trkpt>
<trkpt lat="29.794145" lon="93.934703">
<time>2016-10-08T03:18:43Z</time></trkpt>
<trkpt lat="29.794116" lon="93.934333">
<time>2016-10-08T03:18:44Z</time></trkpt>
<trkpt lat="29.794076" lon="93.933824">
<time>2016-10-08T03:18:45Z</time></trkpt>
<trkpt lat="29.794037" lon="93.933284">
<time>2016-10-08T03:18:46Z</time></trkpt>
<trkpt lat="29.793959" lon="93.932315">
<time>2016-10-08T03:18:47Z</time></trkpt>
<trkpt lat="29.79387" lon="93.931157">
<time>2016-10-08T03:18:48Z</time></trkpt>
<trkpt lat="29.793841" lon="93.930857">
<time>2016-10-08T03:18:49Z</time></trkpt>
<trkpt lat="29.793821" lon="93.930587">
<time>2016-10-08T03:18:50Z</time></trkpt>
<trkpt lat="29.793811" lon="93.930378">
<time>2016-10-08T03:18:51Z</time></trkpt>
<trkpt lat="29.793782" lon="93.930118">
<time>2016-10-08T03:18:52Z</time></trkpt>
<trkpt lat="29.793762" lon="93.929898">
<time>2016-10-08T03:18:53Z</time></trkpt>
<trkpt lat="29.793742" lon="93.929728">
<time>2016-10-08T03:18:54Z</time></trkpt>
<trkpt lat="29.793732" lon="93.929548">
<time>2016-10-08T03:18:55Z</time></trkpt>
<trkpt lat="29.793713" lon="93.929329">
<time>2016-10-08T03:18:56Z</time></trkpt>
<trkpt lat="29.793693" lon="93.929169">
<time>2016-10-08T03:18:57Z</time></trkpt>
<trkpt lat="29.793663" lon="93.928839">
<time>2016-10-08T03:18:58Z</time></trkpt>
<trkpt lat="29.793644" lon="93.928589">
<time>2016-10-08T03:18:59Z</time></trkpt>
<trkpt lat="29.793624" lon="93.92836">
<time>2016-10-08T03:19:00Z</time></trkpt>
<trkpt lat="29.793594" lon="93.92813">
<time>2016-10-08T03:19:01Z</time></trkpt>
<trkpt lat="29.793574" lon="93.92789">
<time>2016-10-08T03:19:02Z</time></trkpt>
<trkpt lat="29.793535" lon="93.92749">
<time>2016-10-08T03:19:03Z</time></trkpt>
<trkpt lat="29.793515" lon="93.927291">
<time>2016-10-08T03:19:04Z</time></trkpt>
<trkpt lat="29.793495" lon="93.927091">
<time>2016-10-08T03:19:05Z</time></trkpt>
<trkpt lat="29.793466" lon="93.926811">
<time>2016-10-08T03:19:06Z</time></trkpt>
<trkpt lat="29.793436" lon="93.926581">
<time>2016-10-08T03:19:07Z</time></trkpt>
<trkpt lat="29.793268" lon="93.925192">
<time>2016-10-08T03:19:08Z</time></trkpt>
<trkpt lat="29.793228" lon="93.924883">
<time>2016-10-08T03:19:09Z</time></trkpt>
<trkpt lat="29.793169" lon="93.924403">
<time>2016-10-08T03:19:10Z</time></trkpt>
<trkpt lat="29.793119" lon="93.924073">
<time>2016-10-08T03:19:11Z</time></trkpt>
<trkpt lat="29.793079" lon="93.923723">
<time>2016-10-08T03:19:12Z</time></trkpt>
<trkpt lat="29.79302" lon="93.923314">
<time>2016-10-08T03:19:13Z</time></trkpt>
<trkpt lat="29.79299" lon="93.923084">
<time>2016-10-08T03:19:14Z</time></trkpt>
<trkpt lat="29.79293" lon="93.922704">
<time>2016-10-08T03:19:15Z</time></trkpt>
<trkpt lat="29.792891" lon="93.922364">
<time>2016-10-08T03:19:16Z</time></trkpt>
<trkpt lat="29.792831" lon="93.921995">
<time>2016-10-08T03:19:17Z</time></trkpt>
<trkpt lat="29.792791" lon="93.921725">
<time>2016-10-08T03:19:18Z</time></trkpt>
<trkpt lat="29.792751" lon="93.921485">
<time>2016-10-08T03:19:19Z</time></trkpt>
<trkpt lat="29.792692" lon="93.921125">
<time>2016-10-08T03:19:20Z</time></trkpt>
<trkpt lat="29.792612" lon="93.920685">
<time>2016-10-08T03:19:21Z</time></trkpt>
<trkpt lat="29.792543" lon="93.920246">
<time>2016-10-08T03:19:22Z</time></trkpt>
<trkpt lat="29.792483" lon="93.919906">
<time>2016-10-08T03:19:23Z</time></trkpt>
<trkpt lat="29.792393" lon="93.919396">
<time>2016-10-08T03:19:24Z</time></trkpt>
<trkpt lat="29.792334" lon="93.919026">
<time>2016-10-08T03:19:25Z</time></trkpt>
<trkpt lat="29.792284" lon="93.918766">
<time>2016-10-08T03:19:26Z</time></trkpt>
<trkpt lat="29.792234" lon="93.918516">
<time>2016-10-08T03:19:27Z</time></trkpt>
<trkpt lat="29.792174" lon="93.918227">
<time>2016-10-08T03:19:28Z</time></trkpt>
<trkpt lat="29.792095" lon="93.917827">
<time>2016-10-08T03:19:29Z</time></trkpt>
<trkpt lat="29.792045" lon="93.917547">
<time>2016-10-08T03:19:30Z</time></trkpt>
<trkpt lat="29.791995" lon="93.917317">
<time>2016-10-08T03:19:31Z</time></trkpt>
<trkpt lat="29.791945" lon="93.917047">
<time>2016-10-08T03:19:32Z</time></trkpt>
<trkpt lat="29.791905" lon="93.916857">
<time>2016-10-08T03:19:33Z</time></trkpt>
<trkpt lat="29.791856" lon="93.916587">
<time>2016-10-08T03:19:34Z</time></trkpt>
<trkpt lat="29.791796" lon="93.916287">
<time>2016-10-08T03:19:35Z</time></trkpt>
<trkpt lat="29.791706" lon="93.915857">
<time>2016-10-08T03:19:36Z</time></trkpt>
<trkpt lat="29.791606" lon="93.915378">
<time>2016-10-08T03:19:37Z</time></trkpt>
<trkpt lat="29.791557" lon="93.915108">
<time>2016-10-08T03:19:38Z</time></trkpt>
<trkpt lat="29.791517" lon="93.914888">
<time>2016-10-08T03:19:39Z</time></trkpt>
<trkpt lat="29.791457" lon="93.914578">
<time>2016-10-08T03:19:40Z</time></trkpt>
<trkpt lat="29.791377" lon="93.914218">
<time>2016-10-08T03:19:41Z</time></trkpt>
<trkpt lat="29.791337" lon="93.914058">
<time>2016-10-08T03:19:42Z</time></trkpt>
<trkpt lat="29.791267" lon="93.913738">
<time>2016-10-08T03:19:43Z</time></trkpt>
<trkpt lat="29.791228" lon="93.913558">
<time>2016-10-08T03:19:44Z</time></trkpt>
<trkpt lat="29.791208" lon="93.913448">
<time>2016-10-08T03:19:45Z</time></trkpt>
<trkpt lat="29.791168" lon="93.913288">
<time>2016-10-08T03:19:46Z</time></trkpt>
<trkpt lat="29.791138" lon="93.913178">
<time>2016-10-08T03:19:47Z</time></trkpt>
<trkpt lat="29.791108" lon="93.913028">
<time>2016-10-08T03:19:48Z</time></trkpt>
<trkpt lat="29.791108" lon="93.912918">
<time>2016-10-08T03:19:49Z</time></trkpt>
<trkpt lat="29.791108" lon="93.912818">
<time>2016-10-08T03:19:50Z</time></trkpt>
<trkpt lat="29.791118" lon="93.912738">
<time>2016-10-08T03:19:51Z</time></trkpt>
<trkpt lat="29.791128" lon="93.912668">
<time>2016-10-08T03:19:52Z</time></trkpt>
<trkpt lat="29.791148" lon="93.912608">
<time>2016-10-08T03:19:53Z</time></trkpt>
<trkpt lat="29.791168" lon="93.912548">
<time>2016-10-08T03:19:54Z</time></trkpt>
<trkpt lat="29.791198" lon="93.912488">
<time>2016-10-08T03:19:55Z</time></trkpt>
<trkpt lat="29.791238" lon="93.912418">
<time>2016-10-08T03:19:56Z</time></trkpt>
<trkpt lat="29.791288" lon="93.912338">
<time>2016-10-08T03:19:57Z</time></trkpt>
<trkpt lat="29.791328" lon="93.912308">
<time>2016-10-08T03:19:58Z</time></trkpt>
<trkpt lat="29.791358" lon="93.912278">
<time>2016-10-08T03:19:59Z</time></trkpt>
<trkpt lat="29.791378" lon="93.912268">
<time>2016-10-08T03:20:00Z</time></trkpt>
<trkpt lat="29.791398" lon="93.912248">
<time>2016-10-08T03:20:01Z</time></trkpt>
<trkpt lat="29.791428" lon="93.912228">
<time>2016-10-08T03:20:02Z</time></trkpt>
<trkpt lat="29.791508" lon="93.912198">
<time>2016-10-08T03:20:03Z</time></trkpt>
<trkpt lat="29.791558" lon="93.912178">
<time>2016-10-08T03:20:04Z</time></trkpt>
<trkpt lat="29.791628" lon="93.912158">
<time>2016-10-08T03:20:05Z</time></trkpt>
<trkpt lat="29.791708" lon="93.912128">
<time>2016-10-08T03:20:06Z</time></trkpt>
<trkpt lat="29.791798" lon="93.912098">
<time>2016-10-08T03:20:07Z</time></trkpt>
<trkpt lat="29.791878" lon="93.912068">
<time>2016-10-08T03:20:08Z</time></trkpt>
<trkpt lat="29.791928" lon="93.912028">
<time>2016-10-08T03:20:09Z</time></trkpt>
<trkpt lat="29.791998" lon="93.911988">
<time>2016-10-08T03:20:10Z</time></trkpt>
<trkpt lat="29.792058" lon="93.911918">
<time>2016-10-08T03:20:11Z</time></trkpt>
<trkpt lat="29.792098" lon="93.911868">
<time>2016-10-08T03:20:12Z</time></trkpt>
<trkpt lat="29.792128" lon="93.911818">
<time>2016-10-08T03:20:13Z</time></trkpt>
<trkpt lat="29.792148" lon="93.911758">
<time>2016-10-08T03:20:14Z</time></trkpt>
<trkpt lat="29.792168" lon="93.911698">
<time>2016-10-08T03:20:15Z</time></trkpt>
<trkpt lat="29.792188" lon="93.911638">
<time>2016-10-08T03:20:16Z</time></trkpt>
<trkpt lat="29.792198" lon="93.911588">
<time>2016-10-08T03:20:17Z</time></trkpt>
<trkpt lat="29.792199" lon="93.911538">
<time>2016-10-08T03:20:18Z</time></trkpt>
<trkpt lat="29.792199" lon="93.911418">
<time>2016-10-08T03:20:19Z</time></trkpt>
<trkpt lat="29.792199" lon="93.911218">
<time>2016-10-08T03:20:20Z</time></trkpt>
<trkpt lat="29.792199" lon="93.911058">
<time>2016-10-08T03:20:21Z</time></trkpt>
<trkpt lat="29.792199" lon="93.910928">
<time>2016-10-08T03:20:22Z</time></trkpt>
<trkpt lat="29.792209" lon="93.910808">
<time>2016-10-08T03:20:23Z</time></trkpt>
<trkpt lat="29.792229" lon="93.910558">
<time>2016-10-08T03:20:24Z</time></trkpt>
<trkpt lat="29.792249" lon="93.910298">
<time>2016-10-08T03:20:25Z</time></trkpt>
<trkpt lat="29.792269" lon="93.909998">
<time>2016-10-08T03:20:26Z</time></trkpt>
<trkpt lat="29.792289" lon="93.909828">
<time>2016-10-08T03:20:27Z</time></trkpt>
<trkpt lat="29.792319" lon="93.909638">
<time>2016-10-08T03:20:28Z</time></trkpt>
<trkpt lat="29.792329" lon="93.909498">
<time>2016-10-08T03:20:29Z</time></trkpt>
<trkpt lat="29.792339" lon="93.909348">
<time>2016-10-08T03:20:30Z</time></trkpt>
<trkpt lat="29.792359" lon="93.909198">
<time>2016-10-08T03:20:31Z</time></trkpt>
<trkpt lat="29.79238" lon="93.909048">
<time>2016-10-08T03:20:32Z</time></trkpt>
<trkpt lat="29.7924" lon="93.908868">
<time>2016-10-08T03:20:33Z</time></trkpt>
<trkpt lat="29.79243" lon="93.908718">
<time>2016-10-08T03:20:34Z</time></trkpt>
<trkpt lat="29.79247" lon="93.908578">
<time>2016-10-08T03:20:35Z</time></trkpt>
<trkpt lat="29.79251" lon="93.908468">
<time>2016-10-08T03:20:36Z</time></trkpt>
<trkpt lat="29.79257" lon="93.908338">
<time>2016-10-08T03:20:37Z</time></trkpt>
<trkpt lat="29.79265" lon="93.908158">
<time>2016-10-08T03:20:38Z</time></trkpt>
<trkpt lat="29.79277" lon="93.907918">
<time>2016-10-08T03:20:39Z</time></trkpt>
<trkpt lat="29.79296" lon="93.907548">
<time>2016-10-08T03:20:40Z</time></trkpt>
<trkpt lat="29.79327" lon="93.906918">
<time>2016-10-08T03:20:41Z</time></trkpt>
<trkpt lat="29.79344" lon="93.906578">
<time>2016-10-08T03:20:42Z</time></trkpt>
<trkpt lat="29.79356" lon="93.906338">
<time>2016-10-08T03:20:43Z</time></trkpt>
<trkpt lat="29.7937" lon="93.906068">
<time>2016-10-08T03:20:44Z</time></trkpt>
<trkpt lat="29.7938" lon="93.905858">
<time>2016-10-08T03:20:45Z</time></trkpt>
<trkpt lat="29.79393" lon="93.905588">
<time>2016-10-08T03:20:46Z</time></trkpt>
<trkpt lat="29.79407" lon="93.905298">
<time>2016-10-08T03:20:47Z</time></trkpt>
<trkpt lat="29.79419" lon="93.905048">
<time>2016-10-08T03:20:48Z</time></trkpt>
<trkpt lat="29.794251" lon="93.904918">
<time>2016-10-08T03:20:49Z</time></trkpt>
<trkpt lat="29.794291" lon="93.904818">
<time>2016-10-08T03:20:50Z</time></trkpt>
<trkpt lat="29.794311" lon="93.904748">
<time>2016-10-08T03:20:51Z</time></trkpt>
<trkpt lat="29.794331" lon="93.904688">
<time>2016-10-08T03:20:52Z</time></trkpt>
<trkpt lat="29.794361" lon="93.904578">
<time>2016-10-08T03:20:53Z</time></trkpt>
<trkpt lat="29.794391" lon="93.904468">
<time>2016-10-08T03:20:54Z</time></trkpt>
<trkpt lat="29.794441" lon="93.904238">
<time>2016-10-08T03:20:55Z</time></trkpt>
<trkpt lat="29.794481" lon="93.904047">
<time>2016-10-08T03:20:56Z</time></trkpt>
<trkpt lat="29.794541" lon="93.903807">
<time>2016-10-08T03:20:57Z</time></trkpt>
<trkpt lat="29.794591" lon="93.903587">
<time>2016-10-08T03:20:58Z</time></trkpt>
<trkpt lat="29.794621" lon="93.903437">
<time>2016-10-08T03:20:59Z</time></trkpt>
<trkpt lat="29.794651" lon="93.903287">
<time>2016-10-08T03:21:00Z</time></trkpt>
<trkpt lat="29.794721" lon="93.902987">
<time>2016-10-08T03:21:01Z</time></trkpt>
<trkpt lat="29.794791" lon="93.902677">
<time>2016-10-08T03:21:02Z</time></trkpt>
<trkpt lat="29.794821" lon="93.902477">
<time>2016-10-08T03:21:03Z</time></trkpt>
<trkpt lat="29.794861" lon="93.902247">
<time>2016-10-08T03:21:04Z</time></trkpt>
<trkpt lat="29.794891" lon="93.902037">
<time>2016-10-08T03:21:05Z</time></trkpt>
<trkpt lat="29.794901" lon="93.901927">
<time>2016-10-08T03:21:06Z</time></trkpt>
<trkpt lat="29.794911" lon="93.901827">
<time>2016-10-08T03:21:07Z</time></trkpt>
<trkpt lat="29.794921" lon="93.901707">
<time>2016-10-08T03:21:08Z</time></trkpt>
<trkpt lat="29.794931" lon="93.901597">
<time>2016-10-08T03:21:09Z</time></trkpt>
<trkpt lat="29.794941" lon="93.901497">
<time>2016-10-08T03:21:10Z</time></trkpt>
<trkpt lat="29.794951" lon="93.901307">
<time>2016-10-08T03:21:11Z</time></trkpt>
<trkpt lat="29.794961" lon="93.901196">
<time>2016-10-08T03:21:12Z</time></trkpt>
<trkpt lat="29.794971" lon="93.901016">
<time>2016-10-08T03:21:13Z</time></trkpt>
<trkpt lat="29.794981" lon="93.900846">
<time>2016-10-08T03:21:14Z</time></trkpt>
<trkpt lat="29.794991" lon="93.900726">
<time>2016-10-08T03:21:15Z</time></trkpt>
<trkpt lat="29.795011" lon="93.900536">
<time>2016-10-08T03:21:16Z</time></trkpt>
<trkpt lat="29.795031" lon="93.900396">
<time>2016-10-08T03:21:17Z</time></trkpt>
<trkpt lat="29.795041" lon="93.900246">
<time>2016-10-08T03:21:18Z</time></trkpt>
<trkpt lat="29.795061" lon="93.900096">
<time>2016-10-08T03:21:19Z</time></trkpt>
<trkpt lat="29.795071" lon="93.899986">
<time>2016-10-08T03:21:20Z</time></trkpt>
<trkpt lat="29.795081" lon="93.899896">
<time>2016-10-08T03:21:21Z</time></trkpt>
<trkpt lat="29.795091" lon="93.899826">
<time>2016-10-08T03:21:22Z</time></trkpt>
<trkpt lat="29.795131" lon="93.899666">
<time>2016-10-08T03:21:23Z</time></trkpt>
<trkpt lat="29.795141" lon="93.899616">
<time>2016-10-08T03:21:24Z</time></trkpt>
<trkpt lat="29.795161" lon="93.899546">
<time>2016-10-08T03:21:25Z</time></trkpt>
<trkpt lat="29.795181" lon="93.899466">
<time>2016-10-08T03:21:26Z</time></trkpt>
<trkpt lat="29.795221" lon="93.899386">
<time>2016-10-08T03:21:27Z</time></trkpt>
<trkpt lat="29.795251" lon="93.899316">
<time>2016-10-08T03:21:28Z</time></trkpt>
<trkpt lat="29.795271" lon="93.899266">
<time>2016-10-08T03:21:29Z</time></trkpt>
<trkpt lat="29.795291" lon="93.899215">
<time>2016-10-08T03:21:30Z</time></trkpt>
<trkpt lat="29.795321" lon="93.899165">
<time>2016-10-08T03:21:31Z</time></trkpt>
<trkpt lat="29.795361" lon="93.899095">
<time>2016-10-08T03:21:32Z</time></trkpt>
<trkpt lat="29.795421" lon="93.898985">
<time>2016-10-08T03:21:33Z</time></trkpt>
<trkpt lat="29.795451" lon="93.898945">
<time>2016-10-08T03:21:34Z</time></trkpt>
<trkpt lat="29.795491" lon="93.898885">
<time>2016-10-08T03:21:35Z</time></trkpt>
<trkpt lat="29.795561" lon="93.898795">
<time>2016-10-08T03:21:36Z</time></trkpt>
<trkpt lat="29.795651" lon="93.898685">
<time>2016-10-08T03:21:37Z</time></trkpt>
<trkpt lat="29.795751" lon="93.898565">
<time>2016-10-08T03:21:38Z</time></trkpt>
<trkpt lat="29.795851" lon="93.898455">
<time>2016-10-08T03:21:39Z</time></trkpt>
<trkpt lat="29.795941" lon="93.898365">
<time>2016-10-08T03:21:40Z</time></trkpt>
<trkpt lat="29.796021" lon="93.898265">
<time>2016-10-08T03:21:41Z</time></trkpt>
<trkpt lat="29.796091" lon="93.898195">
<time>2016-10-08T03:21:42Z</time></trkpt>
<trkpt lat="29.796161" lon="93.898115">
<time>2016-10-08T03:21:43Z</time></trkpt>
<trkpt lat="29.796261" lon="93.898035">
<time>2016-10-08T03:21:44Z</time></trkpt>
<trkpt lat="29.796351" lon="93.897955">
<time>2016-10-08T03:21:45Z</time></trkpt>
<trkpt lat="29.79648" lon="93.897835">
<time>2016-10-08T03:21:46Z</time></trkpt>
<trkpt lat="29.79681" lon="93.897555">
<time>2016-10-08T03:21:47Z</time></trkpt>
<trkpt lat="29.79694" lon="93.897434">
<time>2016-10-08T03:21:48Z</time></trkpt>
<trkpt lat="29.79703" lon="93.897354">
<time>2016-10-08T03:21:49Z</time></trkpt>
<trkpt lat="29.79709" lon="93.897274">
<time>2016-10-08T03:21:50Z</time></trkpt>
<trkpt lat="29.79717" lon="93.897184">
<time>2016-10-08T03:21:51Z</time></trkpt>
<trkpt lat="29.79724" lon="93.897104">
<time>2016-10-08T03:21:52Z</time></trkpt>
<trkpt lat="29.79733" lon="93.896984">
<time>2016-10-08T03:21:53Z</time></trkpt>
<trkpt lat="29.79742" lon="93.896864">
<time>2016-10-08T03:21:54Z</time></trkpt>
<trkpt lat="29.79749" lon="93.896754">
<time>2016-10-08T03:21:55Z</time></trkpt>
<trkpt lat="29.79756" lon="93.896624">
<time>2016-10-08T03:21:56Z</time></trkpt>
<trkpt lat="29.79762" lon="93.896494">
<time>2016-10-08T03:21:57Z</time></trkpt>
<trkpt lat="29.79767" lon="93.896374">
<time>2016-10-08T03:21:58Z</time></trkpt>
<trkpt lat="29.79773" lon="93.896264">
<time>2016-10-08T03:21:59Z</time></trkpt>
<trkpt lat="29.79778" lon="93.896144">
<time>2016-10-08T03:22:00Z</time></trkpt>
<trkpt lat="29.79782" lon="93.896044">
<time>2016-10-08T03:22:01Z</time></trkpt>
<trkpt lat="29.79785" lon="93.895973">
<time>2016-10-08T03:22:02Z</time></trkpt>
<trkpt lat="29.79787" lon="93.895893">
<time>2016-10-08T03:22:03Z</time></trkpt>
<trkpt lat="29.79789" lon="93.895813">
<time>2016-10-08T03:22:04Z</time></trkpt>
<trkpt lat="29.79791" lon="93.895713">
<time>2016-10-08T03:22:05Z</time></trkpt>
<trkpt lat="29.79792" lon="93.895613">
<time>2016-10-08T03:22:06Z</time></trkpt>
<trkpt lat="29.79793" lon="93.895553">
<time>2016-10-08T03:22:07Z</time></trkpt>
<trkpt lat="29.79793" lon="93.895503">
<time>2016-10-08T03:22:08Z</time></trkpt>
<trkpt lat="29.79793" lon="93.895463">
<time>2016-10-08T03:22:09Z</time></trkpt>
<trkpt lat="29.79793" lon="93.895403">
<time>2016-10-08T03:22:10Z</time></trkpt>
<trkpt lat="29.79793" lon="93.895293">
<time>2016-10-08T03:22:11Z</time></trkpt>
<trkpt lat="29.79791" lon="93.895183">
<time>2016-10-08T03:22:12Z</time></trkpt>
<trkpt lat="29.7979" lon="93.895093">
<time>2016-10-08T03:22:13Z</time></trkpt>
<trkpt lat="29.79788" lon="93.894973">
<time>2016-10-08T03:22:14Z</time></trkpt>
<trkpt lat="29.79785" lon="93.894833">
<time>2016-10-08T03:22:15Z</time></trkpt>
<trkpt lat="29.79782" lon="93.894683">
<time>2016-10-08T03:22:16Z</time></trkpt>
<trkpt lat="29.7978" lon="93.894562">
<time>2016-10-08T03:22:17Z</time></trkpt>
<trkpt lat="29.79778" lon="93.894452">
<time>2016-10-08T03:22:18Z</time></trkpt>
<trkpt lat="29.79776" lon="93.894322">
<time>2016-10-08T03:22:19Z</time></trkpt>
<trkpt lat="29.79773" lon="93.894162">
<time>2016-10-08T03:22:20Z</time></trkpt>
<trkpt lat="29.7977" lon="93.894042">
<time>2016-10-08T03:22:21Z</time></trkpt>
<trkpt lat="29.79768" lon="93.893932">
<time>2016-10-08T03:22:22Z</time></trkpt>
<trkpt lat="29.79766" lon="93.893792">
<time>2016-10-08T03:22:23Z</time></trkpt>
<trkpt lat="29.797629" lon="93.893642">
<time>2016-10-08T03:22:24Z</time></trkpt>
<trkpt lat="29.797599" lon="93.893502">
<time>2016-10-08T03:22:25Z</time></trkpt>
<trkpt lat="29.797579" lon="93.893382">
<time>2016-10-08T03:22:26Z</time></trkpt>
<trkpt lat="29.797559" lon="93.893251">
<time>2016-10-08T03:22:27Z</time></trkpt>
<trkpt lat="29.797539" lon="93.893151">
<time>2016-10-08T03:22:28Z</time></trkpt>
<trkpt lat="29.797519" lon="93.893031">
<time>2016-10-08T03:22:29Z</time></trkpt>
<trkpt lat="29.797499" lon="93.892901">
<time>2016-10-08T03:22:30Z</time></trkpt>
<trkpt lat="29.797469" lon="93.892741">
<time>2016-10-08T03:22:31Z</time></trkpt>
<trkpt lat="29.797449" lon="93.892611">
<time>2016-10-08T03:22:32Z</time></trkpt>
<trkpt lat="29.797419" lon="93.892441">
<time>2016-10-08T03:22:33Z</time></trkpt>
<trkpt lat="29.797389" lon="93.892241">
<time>2016-10-08T03:22:34Z</time></trkpt>
<trkpt lat="29.797369" lon="93.89208">
<time>2016-10-08T03:22:35Z</time></trkpt>
<trkpt lat="29.797349" lon="93.89196">
<time>2016-10-08T03:22:36Z</time></trkpt>
<trkpt lat="29.797319" lon="93.89178">
<time>2016-10-08T03:22:37Z</time></trkpt>
<trkpt lat="29.797289" lon="93.89159">
<time>2016-10-08T03:22:38Z</time></trkpt>
<trkpt lat="29.797259" lon="93.89137">
<time>2016-10-08T03:22:39Z</time></trkpt>
<trkpt lat="29.797239" lon="93.89125">
<time>2016-10-08T03:22:40Z</time></trkpt>
<trkpt lat="29.797209" lon="93.89112">
<time>2016-10-08T03:22:41Z</time></trkpt>
<trkpt lat="29.797189" lon="93.890949">
<time>2016-10-08T03:22:42Z</time></trkpt>
<trkpt lat="29.797148" lon="93.890719">
<time>2016-10-08T03:22:43Z</time></trkpt>
<trkpt lat="29.797118" lon="93.890539">
<time>2016-10-08T03:22:44Z</time></trkpt>
<trkpt lat="29.797098" lon="93.890359">
<time>2016-10-08T03:22:45Z</time></trkpt>
<trkpt lat="29.797078" lon="93.890239">
<time>2016-10-08T03:22:46Z</time></trkpt>
<trkpt lat="29.797058" lon="93.890109">
<time>2016-10-08T03:22:47Z</time></trkpt>
<trkpt lat="29.797028" lon="93.889948">
<time>2016-10-08T03:22:48Z</time></trkpt>
<trkpt lat="29.797008" lon="93.889828">
<time>2016-10-08T03:22:49Z</time></trkpt>
<trkpt lat="29.796988" lon="93.889698">
<time>2016-10-08T03:22:50Z</time></trkpt>
<trkpt lat="29.796958" lon="93.889478">
<time>2016-10-08T03:22:51Z</time></trkpt>
<trkpt lat="29.796928" lon="93.889288">
<time>2016-10-08T03:22:52Z</time></trkpt>
<trkpt lat="29.796908" lon="93.889178">
<time>2016-10-08T03:22:53Z</time></trkpt>
<trkpt lat="29.796888" lon="93.889028">
<time>2016-10-08T03:22:54Z</time></trkpt>
<trkpt lat="29.796858" lon="93.888867">
<time>2016-10-08T03:22:55Z</time></trkpt>
<trkpt lat="29.796838" lon="93.888747">
<time>2016-10-08T03:22:56Z</time></trkpt>
<trkpt lat="29.796817" lon="93.888617">
<time>2016-10-08T03:22:57Z</time></trkpt>
<trkpt lat="29.796797" lon="93.888497">
<time>2016-10-08T03:22:58Z</time></trkpt>
<trkpt lat="29.796767" lon="93.888317">
<time>2016-10-08T03:22:59Z</time></trkpt>
<trkpt lat="29.796757" lon="93.888187">
<time>2016-10-08T03:23:00Z</time></trkpt>
<trkpt lat="29.796727" lon="93.888027">
<time>2016-10-08T03:23:01Z</time></trkpt>
<trkpt lat="29.796707" lon="93.887896">
<time>2016-10-08T03:23:02Z</time></trkpt>
<trkpt lat="29.796687" lon="93.887776">
<time>2016-10-08T03:23:03Z</time></trkpt>
<trkpt lat="29.796657" lon="93.887646">
<time>2016-10-08T03:23:04Z</time></trkpt>
<trkpt lat="29.796607" lon="93.887266">
<time>2016-10-08T03:23:05Z</time></trkpt>
<trkpt lat="29.796577" lon="93.887086">
<time>2016-10-08T03:23:06Z</time></trkpt>
<trkpt lat="29.796557" lon="93.886945">
<time>2016-10-08T03:23:07Z</time></trkpt>
<trkpt lat="29.796527" lon="93.886785">
<time>2016-10-08T03:23:08Z</time></trkpt>
<trkpt lat="29.796506" lon="93.886655">
<time>2016-10-08T03:23:09Z</time></trkpt>
<trkpt lat="29.796486" lon="93.886485">
<time>2016-10-08T03:23:10Z</time></trkpt>
<trkpt lat="29.796456" lon="93.886315">
<time>2016-10-08T03:23:11Z</time></trkpt>
<trkpt lat="29.796436" lon="93.886175">
<time>2016-10-08T03:23:12Z</time></trkpt>
<trkpt lat="29.796406" lon="93.886004">
<time>2016-10-08T03:23:13Z</time></trkpt>
<trkpt lat="29.796376" lon="93.885824">
<time>2016-10-08T03:23:14Z</time></trkpt>
<trkpt lat="29.796356" lon="93.885684">
<time>2016-10-08T03:23:15Z</time></trkpt>
<trkpt lat="29.796326" lon="93.885484">
<time>2016-10-08T03:23:16Z</time></trkpt>
<trkpt lat="29.796306" lon="93.885354">
<time>2016-10-08T03:23:17Z</time></trkpt>
<trkpt lat="29.796276" lon="93.885203">
<time>2016-10-08T03:23:18Z</time></trkpt>
<trkpt lat="29.796255" lon="93.885043">
<time>2016-10-08T03:23:19Z</time></trkpt>
<trkpt lat="29.796245" lon="93.884943">
<time>2016-10-08T03:23:20Z</time></trkpt>
<trkpt lat="29.796225" lon="93.884843">
<time>2016-10-08T03:23:21Z</time></trkpt>
<trkpt lat="29.796175" lon="93.884543">
<time>2016-10-08T03:23:22Z</time></trkpt>
<trkpt lat="29.796155" lon="93.884412">
<time>2016-10-08T03:23:23Z</time></trkpt>
<trkpt lat="29.796135" lon="93.884272">
<time>2016-10-08T03:23:24Z</time></trkpt>
<trkpt lat="29.796105" lon="93.884092">
<time>2016-10-08T03:23:25Z</time></trkpt>
<trkpt lat="29.796075" lon="93.883922">
<time>2016-10-08T03:23:26Z</time></trkpt>
<trkpt lat="29.796035" lon="93.883682">
<time>2016-10-08T03:23:27Z</time></trkpt>
<trkpt lat="29.796014" lon="93.883501">
<time>2016-10-08T03:23:28Z</time></trkpt>
<trkpt lat="29.795984" lon="93.883311">
<time>2016-10-08T03:23:29Z</time></trkpt>
<trkpt lat="29.795954" lon="93.883141">
<time>2016-10-08T03:23:30Z</time></trkpt>
<trkpt lat="29.795924" lon="93.882951">
<time>2016-10-08T03:23:31Z</time></trkpt>
<trkpt lat="29.795884" lon="93.88268">
<time>2016-10-08T03:23:32Z</time></trkpt>
<trkpt lat="29.795864" lon="93.88256">
<time>2016-10-08T03:23:33Z</time></trkpt>
<trkpt lat="29.795824" lon="93.88231">
<time>2016-10-08T03:23:34Z</time></trkpt>
<trkpt lat="29.795793" lon="93.88214">
<time>2016-10-08T03:23:35Z</time></trkpt>
<trkpt lat="29.795763" lon="93.881939">
<time>2016-10-08T03:23:36Z</time></trkpt>
<trkpt lat="29.795733" lon="93.881749">
<time>2016-10-08T03:23:37Z</time></trkpt>
<trkpt lat="29.795713" lon="93.881599">
<time>2016-10-08T03:23:38Z</time></trkpt>
<trkpt lat="29.795693" lon="93.881459">
<time>2016-10-08T03:23:39Z</time></trkpt>
<trkpt lat="29.795663" lon="93.881278">
<time>2016-10-08T03:23:40Z</time></trkpt>
<trkpt lat="29.795643" lon="93.881128">
<time>2016-10-08T03:23:41Z</time></trkpt>
<trkpt lat="29.795623" lon="93.880988">
<time>2016-10-08T03:23:42Z</time></trkpt>
<trkpt lat="29.795592" lon="93.880848">
<time>2016-10-08T03:23:43Z</time></trkpt>
<trkpt lat="29.795572" lon="93.880708">
<time>2016-10-08T03:23:44Z</time></trkpt>
<trkpt lat="29.795552" lon="93.880597">
<time>2016-10-08T03:23:45Z</time></trkpt>
<trkpt lat="29.795512" lon="93.880277">
<time>2016-10-08T03:23:46Z</time></trkpt>
<trkpt lat="29.795492" lon="93.880187">
<time>2016-10-08T03:23:47Z</time></trkpt>
<trkpt lat="29.795492" lon="93.880097">
<time>2016-10-08T03:23:48Z</time></trkpt>
<trkpt lat="29.795482" lon="93.880037">
<time>2016-10-08T03:23:49Z</time></trkpt>
<trkpt lat="29.795482" lon="93.879957">
<time>2016-10-08T03:23:50Z</time></trkpt>
<trkpt lat="29.795472" lon="93.879826">
<time>2016-10-08T03:23:51Z</time></trkpt>
<trkpt lat="29.795471" lon="93.879566">
<time>2016-10-08T03:23:52Z</time></trkpt>
<trkpt lat="29.795471" lon="93.879346">
<time>2016-10-08T03:23:53Z</time></trkpt>
<trkpt lat="29.795471" lon="93.879196">
<time>2016-10-08T03:23:54Z</time></trkpt>
<trkpt lat="29.795471" lon="93.879085">
<time>2016-10-08T03:23:55Z</time></trkpt>
<trkpt lat="29.795471" lon="93.878885">
<time>2016-10-08T03:23:56Z</time></trkpt>
<trkpt lat="29.795471" lon="93.878685">
<time>2016-10-08T03:23:57Z</time></trkpt>
<trkpt lat="29.79547" lon="93.878515">
<time>2016-10-08T03:23:58Z</time></trkpt>
<trkpt lat="29.79547" lon="93.878324">
<time>2016-10-08T03:23:59Z</time></trkpt>
<trkpt lat="29.79547" lon="93.878104">
<time>2016-10-08T03:24:00Z</time></trkpt>
<trkpt lat="29.79547" lon="93.877924">
<time>2016-10-08T03:24:01Z</time></trkpt>
<trkpt lat="29.79547" lon="93.877713">
<time>2016-10-08T03:24:02Z</time></trkpt>
<trkpt lat="29.79547" lon="93.877493">
<time>2016-10-08T03:24:03Z</time></trkpt>
<trkpt lat="29.795469" lon="93.877303">
<time>2016-10-08T03:24:04Z</time></trkpt>
<trkpt lat="29.795469" lon="93.877142">
<time>2016-10-08T03:24:05Z</time></trkpt>
<trkpt lat="29.795469" lon="93.876992">
<time>2016-10-08T03:24:06Z</time></trkpt>
<trkpt lat="29.795469" lon="93.876882">
<time>2016-10-08T03:24:07Z</time></trkpt>
<trkpt lat="29.795469" lon="93.876642">
<time>2016-10-08T03:24:08Z</time></trkpt>
<trkpt lat="29.795469" lon="93.876461">
<time>2016-10-08T03:24:09Z</time></trkpt>
<trkpt lat="29.795468" lon="93.876231">
<time>2016-10-08T03:24:10Z</time></trkpt>
<trkpt lat="29.795468" lon="93.876141">
<time>2016-10-08T03:24:11Z</time></trkpt>
<trkpt lat="29.795468" lon="93.875981">
<time>2016-10-08T03:24:12Z</time></trkpt>
<trkpt lat="29.795468" lon="93.87584">
<time>2016-10-08T03:24:13Z</time></trkpt>
<trkpt lat="29.795468" lon="93.87567">
<time>2016-10-08T03:24:14Z</time></trkpt>
<trkpt lat="29.795478" lon="93.87551">
<time>2016-10-08T03:24:15Z</time></trkpt>
<trkpt lat="29.795477" lon="93.875019">
<time>2016-10-08T03:24:16Z</time></trkpt>
<trkpt lat="29.795476" lon="93.874238">
<time>2016-10-08T03:24:17Z</time></trkpt>
<trkpt lat="29.795476" lon="93.873737">
<time>2016-10-08T03:24:18Z</time></trkpt>
<trkpt lat="29.795475" lon="93.873276">
<time>2016-10-08T03:24:19Z</time></trkpt>
<trkpt lat="29.795475" lon="93.872755">
<time>2016-10-08T03:24:20Z</time></trkpt>
<trkpt lat="29.795474" lon="93.872335">
<time>2016-10-08T03:24:21Z</time></trkpt>
<trkpt lat="29.795474" lon="93.872014">
<time>2016-10-08T03:24:22Z</time></trkpt>
<trkpt lat="29.795473" lon="93.871443">
<time>2016-10-08T03:24:23Z</time></trkpt>
<trkpt lat="29.795473" lon="93.871002">
<time>2016-10-08T03:24:24Z</time></trkpt>
<trkpt lat="29.795472" lon="93.870672">
<time>2016-10-08T03:24:25Z</time></trkpt>
<trkpt lat="29.795472" lon="93.870111">
<time>2016-10-08T03:24:26Z</time></trkpt>
<trkpt lat="29.795471" lon="93.86971">
<time>2016-10-08T03:24:27Z</time></trkpt>
<trkpt lat="29.795471" lon="93.869239">
<time>2016-10-08T03:24:28Z</time></trkpt>
<trkpt lat="29.79547" lon="93.868949">
<time>2016-10-08T03:24:29Z</time></trkpt>
<trkpt lat="29.79547" lon="93.868658">
<time>2016-10-08T03:24:30Z</time></trkpt>
<trkpt lat="29.79547" lon="93.868368">
<time>2016-10-08T03:24:31Z</time></trkpt>
<trkpt lat="29.795479" lon="93.868087">
<time>2016-10-08T03:24:32Z</time></trkpt>
<trkpt lat="29.795479" lon="93.867787">
<time>2016-10-08T03:24:33Z</time></trkpt>
<trkpt lat="29.795479" lon="93.867516">
<time>2016-10-08T03:24:34Z</time></trkpt>
<trkpt lat="29.795478" lon="93.867276">
<time>2016-10-08T03:24:35Z</time></trkpt>
<trkpt lat="29.795478" lon="93.866875">
<time>2016-10-08T03:24:36Z</time></trkpt>
<trkpt lat="29.795477" lon="93.866674">
<time>2016-10-08T03:24:37Z</time></trkpt>
<trkpt lat="29.795477" lon="93.866394">
<time>2016-10-08T03:24:38Z</time></trkpt>
<trkpt lat="29.795477" lon="93.866123">
<time>2016-10-08T03:24:39Z</time></trkpt>
<trkpt lat="29.795477" lon="93.865983">
<time>2016-10-08T03:24:40Z</time></trkpt>
<trkpt lat="29.795476" lon="93.865863">
<time>2016-10-08T03:24:41Z</time></trkpt>
<trkpt lat="29.795486" lon="93.865743">
<time>2016-10-08T03:24:42Z</time></trkpt>
<trkpt lat="29.795496" lon="93.865552">
<time>2016-10-08T03:24:43Z</time></trkpt>
<trkpt lat="29.795506" lon="93.865362">
<time>2016-10-08T03:24:44Z</time></trkpt>
<trkpt lat="29.795526" lon="93.865222">
<time>2016-10-08T03:24:45Z</time></trkpt>
<trkpt lat="29.795535" lon="93.865091">
<time>2016-10-08T03:24:46Z</time></trkpt>
<trkpt lat="29.795555" lon="93.864971">
<time>2016-10-08T03:24:47Z</time></trkpt>
<trkpt lat="29.795585" lon="93.864761">
<time>2016-10-08T03:24:48Z</time></trkpt>
<trkpt lat="29.795615" lon="93.864621">
<time>2016-10-08T03:24:49Z</time></trkpt>
<trkpt lat="29.795645" lon="93.86449">
<time>2016-10-08T03:24:50Z</time></trkpt>
<trkpt lat="29.795664" lon="93.86438">
<time>2016-10-08T03:24:51Z</time></trkpt>
<trkpt lat="29.795734" lon="93.864099">
<time>2016-10-08T03:24:52Z</time></trkpt>
<trkpt lat="29.795853" lon="93.863558">
<time>2016-10-08T03:24:53Z</time></trkpt>
<trkpt lat="29.795923" lon="93.863258">
<time>2016-10-08T03:24:54Z</time></trkpt>
<trkpt lat="29.796002" lon="93.862927">
<time>2016-10-08T03:24:55Z</time></trkpt>
<trkpt lat="29.796102" lon="93.862516">
<time>2016-10-08T03:24:56Z</time></trkpt>
<trkpt lat="29.796161" lon="93.862246">
<time>2016-10-08T03:24:57Z</time></trkpt>
<trkpt lat="29.796211" lon="93.862035">
<time>2016-10-08T03:24:58Z</time></trkpt>
<trkpt lat="29.796271" lon="93.861735">
<time>2016-10-08T03:24:59Z</time></trkpt>
<trkpt lat="29.79633" lon="93.861494">
<time>2016-10-08T03:25:00Z</time></trkpt>
<trkpt lat="29.796529" lon="93.860652">
<time>2016-10-08T03:25:01Z</time></trkpt>
<trkpt lat="29.796718" lon="93.859831">
<time>2016-10-08T03:25:02Z</time></trkpt>
<trkpt lat="29.796797" lon="93.8595">
<time>2016-10-08T03:25:03Z</time></trkpt>
<trkpt lat="29.796917" lon="93.858999">
<time>2016-10-08T03:25:04Z</time></trkpt>
<trkpt lat="29.797086" lon="93.858227">
<time>2016-10-08T03:25:05Z</time></trkpt>
<trkpt lat="29.797155" lon="93.857947">
<time>2016-10-08T03:25:06Z</time></trkpt>
<trkpt lat="29.797225" lon="93.857626">
<time>2016-10-08T03:25:07Z</time></trkpt>
<trkpt lat="29.797294" lon="93.857315">
<time>2016-10-08T03:25:08Z</time></trkpt>
<trkpt lat="29.797354" lon="93.857075">
<time>2016-10-08T03:25:09Z</time></trkpt>
<trkpt lat="29.797384" lon="93.856934">
<time>2016-10-08T03:25:10Z</time></trkpt>
<trkpt lat="29.797423" lon="93.856754">
<time>2016-10-08T03:25:11Z</time></trkpt>
<trkpt lat="29.797443" lon="93.856664">
<time>2016-10-08T03:25:12Z</time></trkpt>
<trkpt lat="29.797463" lon="93.856554">
<time>2016-10-08T03:25:13Z</time></trkpt>
<trkpt lat="29.797473" lon="93.856443">
<time>2016-10-08T03:25:14Z</time></trkpt>
<trkpt lat="29.797512" lon="93.856183">
<time>2016-10-08T03:25:15Z</time></trkpt>
<trkpt lat="29.797532" lon="93.856043">
<time>2016-10-08T03:25:16Z</time></trkpt>
<trkpt lat="29.797542" lon="93.855892">
<time>2016-10-08T03:25:17Z</time></trkpt>
<trkpt lat="29.797562" lon="93.855752">
<time>2016-10-08T03:25:18Z</time></trkpt>
<trkpt lat="29.797561" lon="93.855622">
<time>2016-10-08T03:25:19Z</time></trkpt>
<trkpt lat="29.797601" lon="93.85509">
<time>2016-10-08T03:25:20Z</time></trkpt>
<trkpt lat="29.79761" lon="93.85497">
<time>2016-10-08T03:25:21Z</time></trkpt>
<trkpt lat="29.79761" lon="93.85484">
<time>2016-10-08T03:25:22Z</time></trkpt>
<trkpt lat="29.79762" lon="93.854629">
<time>2016-10-08T03:25:23Z</time></trkpt>
<trkpt lat="29.797639" lon="93.854349">
<time>2016-10-08T03:25:24Z</time></trkpt>
<trkpt lat="29.797659" lon="93.854058">
<time>2016-10-08T03:25:25Z</time></trkpt>
<trkpt lat="29.797688" lon="93.853417">
<time>2016-10-08T03:25:26Z</time></trkpt>
<trkpt lat="29.797707" lon="93.853076">
<time>2016-10-08T03:25:27Z</time></trkpt>
<trkpt lat="29.797737" lon="93.852605">
<time>2016-10-08T03:25:28Z</time></trkpt>
<trkpt lat="29.797746" lon="93.852374">
<time>2016-10-08T03:25:29Z</time></trkpt>
<trkpt lat="29.797756" lon="93.852154">
<time>2016-10-08T03:25:30Z</time></trkpt>
<trkpt lat="29.797775" lon="93.851843">
<time>2016-10-08T03:25:31Z</time></trkpt>
<trkpt lat="29.797785" lon="93.851653">
<time>2016-10-08T03:25:32Z</time></trkpt>
<trkpt lat="29.797814" lon="93.850991">
<time>2016-10-08T03:25:33Z</time></trkpt>
<trkpt lat="29.797834" lon="93.850751">
<time>2016-10-08T03:25:34Z</time></trkpt>
<trkpt lat="29.797833" lon="93.85058">
<time>2016-10-08T03:25:35Z</time></trkpt>
<trkpt lat="29.797843" lon="93.85045">
<time>2016-10-08T03:25:36Z</time></trkpt>
<trkpt lat="29.797853" lon="93.85031">
<time>2016-10-08T03:25:37Z</time></trkpt>
<trkpt lat="29.797863" lon="93.850139">
<time>2016-10-08T03:25:38Z</time></trkpt>
<trkpt lat="29.797862" lon="93.850029">
<time>2016-10-08T03:25:39Z</time></trkpt>
<trkpt lat="29.797862" lon="93.849889">
<time>2016-10-08T03:25:40Z</time></trkpt>
<trkpt lat="29.797852" lon="93.849688">
<time>2016-10-08T03:25:41Z</time></trkpt>
<trkpt lat="29.797852" lon="93.849598">
<time>2016-10-08T03:25:42Z</time></trkpt>
<trkpt lat="29.797841" lon="93.849488">
<time>2016-10-08T03:25:43Z</time></trkpt>
<trkpt lat="29.797831" lon="93.849387">
<time>2016-10-08T03:25:44Z</time></trkpt>
<trkpt lat="29.797821" lon="93.849287">
<time>2016-10-08T03:25:45Z</time></trkpt>
<trkpt lat="29.797801" lon="93.849147">
<time>2016-10-08T03:25:46Z</time></trkpt>
<trkpt lat="29.797771" lon="93.848966">
<time>2016-10-08T03:25:47Z</time></trkpt>
<trkpt lat="29.79773" lon="93.848726">
<time>2016-10-08T03:25:48Z</time></trkpt>
<trkpt lat="29.79767" lon="93.848395">
<time>2016-10-08T03:25:49Z</time></trkpt>
<trkpt lat="29.797629" lon="93.848205">
<time>2016-10-08T03:25:50Z</time></trkpt>
<trkpt lat="29.797589" lon="93.847974">
<time>2016-10-08T03:25:51Z</time></trkpt>
<trkpt lat="29.797549" lon="93.847774">
<time>2016-10-08T03:25:52Z</time></trkpt>
<trkpt lat="29.797518" lon="93.847613">
<time>2016-10-08T03:25:53Z</time></trkpt>
<trkpt lat="29.797478" lon="93.847413">
<time>2016-10-08T03:25:54Z</time></trkpt>
<trkpt lat="29.797448" lon="93.847242">
<time>2016-10-08T03:25:55Z</time></trkpt>
<trkpt lat="29.797417" lon="93.847102">
<time>2016-10-08T03:25:56Z</time></trkpt>
<trkpt lat="29.797377" lon="93.846922">
<time>2016-10-08T03:25:57Z</time></trkpt>
<trkpt lat="29.797347" lon="93.846721">
<time>2016-10-08T03:25:58Z</time></trkpt>
<trkpt lat="29.797307" lon="93.846571">
<time>2016-10-08T03:25:59Z</time></trkpt>
<trkpt lat="29.797276" lon="93.84641">
<time>2016-10-08T03:26:00Z</time></trkpt>
<trkpt lat="29.797246" lon="93.8462">
<time>2016-10-08T03:26:01Z</time></trkpt>
<trkpt lat="29.797206" lon="93.846009">
<time>2016-10-08T03:26:02Z</time></trkpt>
<trkpt lat="29.797175" lon="93.845829">
<time>2016-10-08T03:26:03Z</time></trkpt>
<trkpt lat="29.797135" lon="93.845658">
<time>2016-10-08T03:26:04Z</time></trkpt>
<trkpt lat="29.797105" lon="93.845488">
<time>2016-10-08T03:26:05Z</time></trkpt>
<trkpt lat="29.797064" lon="93.845247">
<time>2016-10-08T03:26:06Z</time></trkpt>
<trkpt lat="29.797034" lon="93.845097">
<time>2016-10-08T03:26:07Z</time></trkpt>
<trkpt lat="29.796994" lon="93.844927">
<time>2016-10-08T03:26:08Z</time></trkpt>
<trkpt lat="29.796973" lon="93.844776">
<time>2016-10-08T03:26:09Z</time></trkpt>
<trkpt lat="29.796943" lon="93.844616">
<time>2016-10-08T03:26:10Z</time></trkpt>
<trkpt lat="29.796893" lon="93.844335">
<time>2016-10-08T03:26:11Z</time></trkpt>
<trkpt lat="29.796862" lon="93.844145">
<time>2016-10-08T03:26:12Z</time></trkpt>
<trkpt lat="29.796812" lon="93.843904">
<time>2016-10-08T03:26:13Z</time></trkpt>
<trkpt lat="29.796761" lon="93.843644">
<time>2016-10-08T03:26:14Z</time></trkpt>
<trkpt lat="29.79666" lon="93.843112">
<time>2016-10-08T03:26:15Z</time></trkpt>
<trkpt lat="29.79657" lon="93.842641">
<time>2016-10-08T03:26:16Z</time></trkpt>
<trkpt lat="29.796479" lon="93.84214">
<time>2016-10-08T03:26:17Z</time></trkpt>
<trkpt lat="29.796378" lon="93.841639">
<time>2016-10-08T03:26:18Z</time></trkpt>
<trkpt lat="29.796186" lon="93.840646">
<time>2016-10-08T03:26:19Z</time></trkpt>
<trkpt lat="29.796025" lon="93.839794">
<time>2016-10-08T03:26:20Z</time></trkpt>
<trkpt lat="29.796004" lon="93.839644">
<time>2016-10-08T03:26:21Z</time></trkpt>
<trkpt lat="29.795974" lon="93.839523">
<time>2016-10-08T03:26:22Z</time></trkpt>
<trkpt lat="29.795954" lon="93.839373">
<time>2016-10-08T03:26:23Z</time></trkpt>
<trkpt lat="29.795924" lon="93.839263">
<time>2016-10-08T03:26:24Z</time></trkpt>
<trkpt lat="29.795913" lon="93.839173">
<time>2016-10-08T03:26:25Z</time></trkpt>
<trkpt lat="29.795883" lon="93.839032">
<time>2016-10-08T03:26:26Z</time></trkpt>
<trkpt lat="29.795853" lon="93.838892">
<time>2016-10-08T03:26:27Z</time></trkpt>
<trkpt lat="29.795853" lon="93.838842">
<time>2016-10-08T03:26:28Z</time></trkpt>
<trkpt lat="29.795833" lon="93.838782">
<time>2016-10-08T03:26:29Z</time></trkpt>
<trkpt lat="29.795823" lon="93.838711">
<time>2016-10-08T03:26:30Z</time></trkpt>
<trkpt lat="29.795812" lon="93.838631">
<time>2016-10-08T03:26:31Z</time></trkpt>
<trkpt lat="29.795792" lon="93.838541">
<time>2016-10-08T03:26:32Z</time></trkpt>
<trkpt lat="29.795772" lon="93.838441">
<time>2016-10-08T03:26:33Z</time></trkpt>
<trkpt lat="29.795762" lon="93.838361">
<time>2016-10-08T03:26:34Z</time></trkpt>
<trkpt lat="29.795742" lon="93.83824">
<time>2016-10-08T03:26:35Z</time></trkpt>
<trkpt lat="29.795722" lon="93.83816">
<time>2016-10-08T03:26:36Z</time></trkpt>
<trkpt lat="29.795711" lon="93.83805">
<time>2016-10-08T03:26:37Z</time></trkpt>
<trkpt lat="29.795691" lon="93.837929">
<time>2016-10-08T03:26:38Z</time></trkpt>
<trkpt lat="29.795671" lon="93.837829">
<time>2016-10-08T03:26:39Z</time></trkpt>
<trkpt lat="29.795661" lon="93.837719">
<time>2016-10-08T03:26:40Z</time></trkpt>
<trkpt lat="29.795661" lon="93.837629">
<time>2016-10-08T03:26:41Z</time></trkpt>
<trkpt lat="29.79566" lon="93.837538">
<time>2016-10-08T03:26:42Z</time></trkpt>
<trkpt lat="29.79566" lon="93.837458">
<time>2016-10-08T03:26:43Z</time></trkpt>
<trkpt lat="29.79567" lon="93.837388">
<time>2016-10-08T03:26:44Z</time></trkpt>
<trkpt lat="29.79569" lon="93.837298">
<time>2016-10-08T03:26:45Z</time></trkpt>
<trkpt lat="29.79571" lon="93.837218">
<time>2016-10-08T03:26:46Z</time></trkpt>
<trkpt lat="29.79573" lon="93.837137">
<time>2016-10-08T03:26:47Z</time></trkpt>
<trkpt lat="29.79575" lon="93.837047">
<time>2016-10-08T03:26:48Z</time></trkpt>
<trkpt lat="29.795789" lon="93.836947">
<time>2016-10-08T03:26:49Z</time></trkpt>
<trkpt lat="29.795829" lon="93.836847">
<time>2016-10-08T03:26:50Z</time></trkpt>
<trkpt lat="29.795849" lon="93.836767">
<time>2016-10-08T03:26:51Z</time></trkpt>
<trkpt lat="29.795899" lon="93.836666">
<time>2016-10-08T03:26:52Z</time></trkpt>
<trkpt lat="29.795929" lon="93.836586">
<time>2016-10-08T03:26:53Z</time></trkpt>
<trkpt lat="29.795959" lon="93.836516">
<time>2016-10-08T03:26:54Z</time></trkpt>
<trkpt lat="29.795978" lon="93.836456">
<time>2016-10-08T03:26:55Z</time></trkpt>
<trkpt lat="29.796008" lon="93.836376">
<time>2016-10-08T03:26:56Z</time></trkpt>
<trkpt lat="29.796028" lon="93.836315">
<time>2016-10-08T03:26:57Z</time></trkpt>
<trkpt lat="29.796038" lon="93.836245">
<time>2016-10-08T03:26:58Z</time></trkpt>
<trkpt lat="29.796048" lon="93.836195">
<time>2016-10-08T03:26:59Z</time></trkpt>
<trkpt lat="29.796058" lon="93.836145">
<time>2016-10-08T03:27:00Z</time></trkpt>
<trkpt lat="29.796058" lon="93.836075">
<time>2016-10-08T03:27:01Z</time></trkpt>
<trkpt lat="29.796058" lon="93.836035">
<time>2016-10-08T03:27:02Z</time></trkpt>
<trkpt lat="29.796048" lon="93.835975">
<time>2016-10-08T03:27:03Z</time></trkpt>
<trkpt lat="29.796047" lon="93.835924">
<time>2016-10-08T03:27:04Z</time></trkpt>
<trkpt lat="29.796037" lon="93.835864">
<time>2016-10-08T03:27:05Z</time></trkpt>
<trkpt lat="29.796027" lon="93.835764">
<time>2016-10-08T03:27:06Z</time></trkpt>
<trkpt lat="29.796007" lon="93.835644">
<time>2016-10-08T03:27:07Z</time></trkpt>
<trkpt lat="29.795987" lon="93.835553">
<time>2016-10-08T03:27:08Z</time></trkpt>
<trkpt lat="29.795957" lon="93.835423">
<time>2016-10-08T03:27:09Z</time></trkpt>
<trkpt lat="29.795936" lon="93.835293">
<time>2016-10-08T03:27:10Z</time></trkpt>
<trkpt lat="29.795916" lon="93.835172">
<time>2016-10-08T03:27:11Z</time></trkpt>
<trkpt lat="29.795906" lon="93.835082">
<time>2016-10-08T03:27:12Z</time></trkpt>
<trkpt lat="29.795886" lon="93.834982">
<time>2016-10-08T03:27:13Z</time></trkpt>
<trkpt lat="29.795866" lon="93.834882">
<time>2016-10-08T03:27:14Z</time></trkpt>
<trkpt lat="29.795855" lon="93.834792">
<time>2016-10-08T03:27:15Z</time></trkpt>
<trkpt lat="29.795835" lon="93.834711">
<time>2016-10-08T03:27:16Z</time></trkpt>
<trkpt lat="29.795815" lon="93.834561">
<time>2016-10-08T03:27:17Z</time></trkpt>
<trkpt lat="29.795785" lon="93.834421">
<time>2016-10-08T03:27:18Z</time></trkpt>
<trkpt lat="29.795764" lon="93.8343">
<time>2016-10-08T03:27:19Z</time></trkpt>
<trkpt lat="29.795744" lon="93.83418">
<time>2016-10-08T03:27:20Z</time></trkpt>
<trkpt lat="29.795724" lon="93.83409">
<time>2016-10-08T03:27:21Z</time></trkpt>
<trkpt lat="29.795704" lon="93.833939">
<time>2016-10-08T03:27:22Z</time></trkpt>
<trkpt lat="29.795674" lon="93.833779">
<time>2016-10-08T03:27:23Z</time></trkpt>
<trkpt lat="29.795663" lon="93.833669">
<time>2016-10-08T03:27:24Z</time></trkpt>
<trkpt lat="29.795643" lon="93.833558">
<time>2016-10-08T03:27:25Z</time></trkpt>
<trkpt lat="29.795623" lon="93.833448">
<time>2016-10-08T03:27:26Z</time></trkpt>
<trkpt lat="29.795593" lon="93.833258">
<time>2016-10-08T03:27:27Z</time></trkpt>
<trkpt lat="29.795562" lon="93.833077">
<time>2016-10-08T03:27:28Z</time></trkpt>
<trkpt lat="29.795542" lon="93.832957">
<time>2016-10-08T03:27:29Z</time></trkpt>
<trkpt lat="29.795512" lon="93.832827">
<time>2016-10-08T03:27:30Z</time></trkpt>
<trkpt lat="29.795471" lon="93.832596">
<time>2016-10-08T03:27:31Z</time></trkpt>
<trkpt lat="29.795451" lon="93.832486">
<time>2016-10-08T03:27:32Z</time></trkpt>
<trkpt lat="29.795441" lon="93.832426">
<time>2016-10-08T03:27:33Z</time></trkpt>
<trkpt lat="29.795441" lon="93.832355">
<time>2016-10-08T03:27:34Z</time></trkpt>
<trkpt lat="29.795431" lon="93.832275">
<time>2016-10-08T03:27:35Z</time></trkpt>
<trkpt lat="29.795421" lon="93.832155">
<time>2016-10-08T03:27:36Z</time></trkpt>
<trkpt lat="29.79542" lon="93.832075">
<time>2016-10-08T03:27:37Z</time></trkpt>
<trkpt lat="29.79542" lon="93.832004">
<time>2016-10-08T03:27:38Z</time></trkpt>
<trkpt lat="29.79542" lon="93.831934">
<time>2016-10-08T03:27:39Z</time></trkpt>
<trkpt lat="29.79543" lon="93.831864">
<time>2016-10-08T03:27:40Z</time></trkpt>
<trkpt lat="29.79544" lon="93.831774">
<time>2016-10-08T03:27:41Z</time></trkpt>
<trkpt lat="29.79546" lon="93.831694">
<time>2016-10-08T03:27:42Z</time></trkpt>
<trkpt lat="29.79547" lon="93.831633">
<time>2016-10-08T03:27:43Z</time></trkpt>
<trkpt lat="29.795489" lon="93.831583">
<time>2016-10-08T03:27:44Z</time></trkpt>
<trkpt lat="29.795509" lon="93.831493">
<time>2016-10-08T03:27:45Z</time></trkpt>
<trkpt lat="29.795529" lon="93.831443">
<time>2016-10-08T03:27:46Z</time></trkpt>
<trkpt lat="29.795559" lon="93.831363">
<time>2016-10-08T03:27:47Z</time></trkpt>
<trkpt lat="29.795599" lon="93.831253">
<time>2016-10-08T03:27:48Z</time></trkpt>
<trkpt lat="29.795678" lon="93.831092">
<time>2016-10-08T03:27:49Z</time></trkpt>
<trkpt lat="29.795728" lon="93.830992">
<time>2016-10-08T03:27:50Z</time></trkpt>
<trkpt lat="29.795788" lon="93.830882">
<time>2016-10-08T03:27:51Z</time></trkpt>
<trkpt lat="29.795818" lon="93.830821">
<time>2016-10-08T03:27:52Z</time></trkpt>
<trkpt lat="29.795928" lon="93.830611">
<time>2016-10-08T03:27:53Z</time></trkpt>
<trkpt lat="29.796047" lon="93.83038">
<time>2016-10-08T03:27:54Z</time></trkpt>
<trkpt lat="29.796456" lon="93.829548">
<time>2016-10-08T03:27:55Z</time></trkpt>
<trkpt lat="29.796555" lon="93.829348">
<time>2016-10-08T03:27:56Z</time></trkpt>
<trkpt lat="29.796675" lon="93.829107">
<time>2016-10-08T03:27:57Z</time></trkpt>
<trkpt lat="29.796814" lon="93.828836">
<time>2016-10-08T03:27:58Z</time></trkpt>
<trkpt lat="29.796964" lon="93.828536">
<time>2016-10-08T03:27:59Z</time></trkpt>
<trkpt lat="29.797073" lon="93.828335">
<time>2016-10-08T03:28:00Z</time></trkpt>
<trkpt lat="29.797173" lon="93.828145">
<time>2016-10-08T03:28:01Z</time></trkpt>
<trkpt lat="29.797292" lon="93.827934">
<time>2016-10-08T03:28:02Z</time></trkpt>
<trkpt lat="29.797432" lon="93.827673">
<time>2016-10-08T03:28:03Z</time></trkpt>
<trkpt lat="29.797502" lon="93.827523">
<time>2016-10-08T03:28:04Z</time></trkpt>
<trkpt lat="29.797571" lon="93.827363">
<time>2016-10-08T03:28:05Z</time></trkpt>
<trkpt lat="29.797611" lon="93.827252">
<time>2016-10-08T03:28:06Z</time></trkpt>
<trkpt lat="29.797661" lon="93.827122">
<time>2016-10-08T03:28:07Z</time></trkpt>
<trkpt lat="29.797711" lon="93.826972">
<time>2016-10-08T03:28:08Z</time></trkpt>
<trkpt lat="29.79774" lon="93.826841">
<time>2016-10-08T03:28:09Z</time></trkpt>
<trkpt lat="29.79777" lon="93.826721">
<time>2016-10-08T03:28:10Z</time></trkpt>
<trkpt lat="29.79779" lon="93.826581">
<time>2016-10-08T03:28:11Z</time></trkpt>
<trkpt lat="29.7978" lon="93.82647">
<time>2016-10-08T03:28:12Z</time></trkpt>
<trkpt lat="29.797809" lon="93.82636">
<time>2016-10-08T03:28:13Z</time></trkpt>
<trkpt lat="29.797819" lon="93.82623">
<time>2016-10-08T03:28:14Z</time></trkpt>
<trkpt lat="29.797829" lon="93.826079">
<time>2016-10-08T03:28:15Z</time></trkpt>
<trkpt lat="29.797839" lon="93.825929">
<time>2016-10-08T03:28:16Z</time></trkpt>
<trkpt lat="29.797858" lon="93.825658">
<time>2016-10-08T03:28:17Z</time></trkpt>
<trkpt lat="29.797868" lon="93.825548">
<time>2016-10-08T03:28:18Z</time></trkpt>
<trkpt lat="29.797878" lon="93.825458">
<time>2016-10-08T03:28:19Z</time></trkpt>
<trkpt lat="29.797897" lon="93.825337">
<time>2016-10-08T03:28:20Z</time></trkpt>
<trkpt lat="29.797947" lon="93.825127">
<time>2016-10-08T03:28:21Z</time></trkpt>
<trkpt lat="29.797997" lon="93.824956">
<time>2016-10-08T03:28:22Z</time></trkpt>
<trkpt lat="29.798076" lon="93.824716">
<time>2016-10-08T03:28:23Z</time></trkpt>
<trkpt lat="29.798146" lon="93.824475">
<time>2016-10-08T03:28:24Z</time></trkpt>
<trkpt lat="29.798215" lon="93.824255">
<time>2016-10-08T03:28:25Z</time></trkpt>
<trkpt lat="29.798255" lon="93.824114">
<time>2016-10-08T03:28:26Z</time></trkpt>
<trkpt lat="29.798295" lon="93.824014">
<time>2016-10-08T03:28:27Z</time></trkpt>
<trkpt lat="29.798315" lon="93.823934">
<time>2016-10-08T03:28:28Z</time></trkpt>
<trkpt lat="29.798325" lon="93.823874">
<time>2016-10-08T03:28:29Z</time></trkpt>
<trkpt lat="29.798345" lon="93.823793">
<time>2016-10-08T03:28:30Z</time></trkpt>
<trkpt lat="29.798354" lon="93.823713">
<time>2016-10-08T03:28:31Z</time></trkpt>
<trkpt lat="29.798364" lon="93.823643">
<time>2016-10-08T03:28:32Z</time></trkpt>
<trkpt lat="29.798374" lon="93.823503">
<time>2016-10-08T03:28:33Z</time></trkpt>
<trkpt lat="29.798384" lon="93.823322">
<time>2016-10-08T03:28:34Z</time></trkpt>
<trkpt lat="29.798393" lon="93.823152">
<time>2016-10-08T03:28:35Z</time></trkpt>
<trkpt lat="29.798393" lon="93.823062">
<time>2016-10-08T03:28:36Z</time></trkpt>
<trkpt lat="29.798393" lon="93.822951">
<time>2016-10-08T03:28:37Z</time></trkpt>
<trkpt lat="29.798403" lon="93.822821">
<time>2016-10-08T03:28:38Z</time></trkpt>
<trkpt lat="29.798422" lon="93.822701">
<time>2016-10-08T03:28:39Z</time></trkpt>
<trkpt lat="29.798442" lon="93.82254">
<time>2016-10-08T03:28:40Z</time></trkpt>
<trkpt lat="29.798472" lon="93.82233">
<time>2016-10-08T03:28:41Z</time></trkpt>
<trkpt lat="29.798511" lon="93.822079">
<time>2016-10-08T03:28:42Z</time></trkpt>
<trkpt lat="29.798561" lon="93.821718">
<time>2016-10-08T03:28:43Z</time></trkpt>
<trkpt lat="29.79857" lon="93.821618">
<time>2016-10-08T03:28:44Z</time></trkpt>
<trkpt lat="29.7986" lon="93.821427">
<time>2016-10-08T03:28:45Z</time></trkpt>
<trkpt lat="29.79863" lon="93.821277">
<time>2016-10-08T03:28:46Z</time></trkpt>
<trkpt lat="29.79866" lon="93.821147">
<time>2016-10-08T03:28:47Z</time></trkpt>
<trkpt lat="29.798689" lon="93.821016">
<time>2016-10-08T03:28:48Z</time></trkpt>
<trkpt lat="29.798729" lon="93.820886">
<time>2016-10-08T03:28:49Z</time></trkpt>
<trkpt lat="29.798759" lon="93.820786">
<time>2016-10-08T03:28:50Z</time></trkpt>
<trkpt lat="29.798769" lon="93.820716">
<time>2016-10-08T03:28:51Z</time></trkpt>
<trkpt lat="29.798779" lon="93.820655">
<time>2016-10-08T03:28:52Z</time></trkpt>
<trkpt lat="29.798788" lon="93.820565">
<time>2016-10-08T03:28:53Z</time></trkpt>
<trkpt lat="29.798788" lon="93.820475">
<time>2016-10-08T03:28:54Z</time></trkpt>
<trkpt lat="29.798788" lon="93.820415">
<time>2016-10-08T03:28:55Z</time></trkpt>
<trkpt lat="29.798788" lon="93.820315">
<time>2016-10-08T03:28:56Z</time></trkpt>
<trkpt lat="29.798768" lon="93.820154">
<time>2016-10-08T03:28:57Z</time></trkpt>
<trkpt lat="29.798737" lon="93.819934">
<time>2016-10-08T03:28:58Z</time></trkpt>
<trkpt lat="29.798707" lon="93.819723">
<time>2016-10-08T03:28:59Z</time></trkpt>
<trkpt lat="29.798687" lon="93.819563">
<time>2016-10-08T03:29:00Z</time></trkpt>
<trkpt lat="29.798656" lon="93.819322">
<time>2016-10-08T03:29:01Z</time></trkpt>
<trkpt lat="29.798636" lon="93.819102">
<time>2016-10-08T03:29:02Z</time></trkpt>
<trkpt lat="29.798615" lon="93.818901">
<time>2016-10-08T03:29:03Z</time></trkpt>
<trkpt lat="29.798605" lon="93.818701">
<time>2016-10-08T03:29:04Z</time></trkpt>
<trkpt lat="29.798585" lon="93.81848">
<time>2016-10-08T03:29:05Z</time></trkpt>
<trkpt lat="29.798584" lon="93.81833">
<time>2016-10-08T03:29:06Z</time></trkpt>
<trkpt lat="29.798574" lon="93.818109">
<time>2016-10-08T03:29:07Z</time></trkpt>
<trkpt lat="29.798564" lon="93.817929">
<time>2016-10-08T03:29:08Z</time></trkpt>
<trkpt lat="29.798563" lon="93.817738">
<time>2016-10-08T03:29:09Z</time></trkpt>
<trkpt lat="29.798573" lon="93.817578">
<time>2016-10-08T03:29:10Z</time></trkpt>
<trkpt lat="29.798583" lon="93.817387">
<time>2016-10-08T03:29:11Z</time></trkpt>
<trkpt lat="29.798592" lon="93.817197">
<time>2016-10-08T03:29:12Z</time></trkpt>
<trkpt lat="29.798592" lon="93.817056">
<time>2016-10-08T03:29:13Z</time></trkpt>
<trkpt lat="29.798602" lon="93.816956">
<time>2016-10-08T03:29:14Z</time></trkpt>
<trkpt lat="29.798631" lon="93.816635">
<time>2016-10-08T03:29:15Z</time></trkpt>
<trkpt lat="29.798661" lon="93.816425">
<time>2016-10-08T03:29:16Z</time></trkpt>
<trkpt lat="29.798671" lon="93.816325">
<time>2016-10-08T03:29:17Z</time></trkpt>
<trkpt lat="29.79869" lon="93.816164">
<time>2016-10-08T03:29:18Z</time></trkpt>
<trkpt lat="29.7987" lon="93.816044">
<time>2016-10-08T03:29:19Z</time></trkpt>
<trkpt lat="29.79872" lon="93.815944">
<time>2016-10-08T03:29:20Z</time></trkpt>
<trkpt lat="29.798769" lon="93.815653">
<time>2016-10-08T03:29:21Z</time></trkpt>
<trkpt lat="29.798819" lon="93.815392">
<time>2016-10-08T03:29:22Z</time></trkpt>
<trkpt lat="29.798858" lon="93.815192">
<time>2016-10-08T03:29:23Z</time></trkpt>
<trkpt lat="29.798908" lon="93.814911">
<time>2016-10-08T03:29:24Z</time></trkpt>
<trkpt lat="29.798977" lon="93.8146">
<time>2016-10-08T03:29:25Z</time></trkpt>
<trkpt lat="29.799047" lon="93.81433">
<time>2016-10-08T03:29:26Z</time></trkpt>
<trkpt lat="29.799117" lon="93.814109">
<time>2016-10-08T03:29:27Z</time></trkpt>
<trkpt lat="29.799156" lon="93.813979">
<time>2016-10-08T03:29:28Z</time></trkpt>
<trkpt lat="29.799206" lon="93.813858">
<time>2016-10-08T03:29:29Z</time></trkpt>
<trkpt lat="29.799286" lon="93.813648">
<time>2016-10-08T03:29:30Z</time></trkpt>
<trkpt lat="29.799365" lon="93.813467">
<time>2016-10-08T03:29:31Z</time></trkpt>
<trkpt lat="29.799445" lon="93.813277">
<time>2016-10-08T03:29:32Z</time></trkpt>
<trkpt lat="29.799515" lon="93.813127">
<time>2016-10-08T03:29:33Z</time></trkpt>
<trkpt lat="29.799574" lon="93.812966">
<time>2016-10-08T03:29:34Z</time></trkpt>
<trkpt lat="29.799624" lon="93.812856">
<time>2016-10-08T03:29:35Z</time></trkpt>
<trkpt lat="29.799704" lon="93.812676">
<time>2016-10-08T03:29:36Z</time></trkpt>
<trkpt lat="29.799794" lon="93.812485">
<time>2016-10-08T03:29:37Z</time></trkpt>
<trkpt lat="29.799833" lon="93.812405">
<time>2016-10-08T03:29:38Z</time></trkpt>
<trkpt lat="29.799873" lon="93.812315">
<time>2016-10-08T03:29:39Z</time></trkpt>
<trkpt lat="29.799913" lon="93.812244">
<time>2016-10-08T03:29:40Z</time></trkpt>
<trkpt lat="29.799963" lon="93.812164">
<time>2016-10-08T03:29:41Z</time></trkpt>
<trkpt lat="29.800023" lon="93.812074">
<time>2016-10-08T03:29:42Z</time></trkpt>
<trkpt lat="29.800093" lon="93.811984">
<time>2016-10-08T03:29:43Z</time></trkpt>
<trkpt lat="29.800172" lon="93.811884">
<time>2016-10-08T03:29:44Z</time></trkpt>
<trkpt lat="29.800302" lon="93.811723">
<time>2016-10-08T03:29:45Z</time></trkpt>
<trkpt lat="29.800352" lon="93.811653">
<time>2016-10-08T03:29:46Z</time></trkpt>
<trkpt lat="29.800392" lon="93.811593">
<time>2016-10-08T03:29:47Z</time></trkpt>
<trkpt lat="29.800452" lon="93.811503">
<time>2016-10-08T03:29:48Z</time></trkpt>
<trkpt lat="29.800482" lon="93.811432">
<time>2016-10-08T03:29:49Z</time></trkpt>
<trkpt lat="29.800511" lon="93.811362">
<time>2016-10-08T03:29:50Z</time></trkpt>
<trkpt lat="29.800531" lon="93.811302">
<time>2016-10-08T03:29:51Z</time></trkpt>
<trkpt lat="29.800551" lon="93.811232">
<time>2016-10-08T03:29:52Z</time></trkpt>
<trkpt lat="29.800571" lon="93.811172">
<time>2016-10-08T03:29:53Z</time></trkpt>
<trkpt lat="29.800581" lon="93.811122">
<time>2016-10-08T03:29:54Z</time></trkpt>
<trkpt lat="29.800591" lon="93.811041">
<time>2016-10-08T03:29:55Z</time></trkpt>
<trkpt lat="29.800601" lon="93.810961">
<time>2016-10-08T03:29:56Z</time></trkpt>
<trkpt lat="29.800601" lon="93.810871">
<time>2016-10-08T03:29:57Z</time></trkpt>
<trkpt lat="29.80061" lon="93.810711">
<time>2016-10-08T03:29:58Z</time></trkpt>
<trkpt lat="29.80062" lon="93.81035">
<time>2016-10-08T03:29:59Z</time></trkpt>
<trkpt lat="29.800619" lon="93.810059">
<time>2016-10-08T03:30:00Z</time></trkpt>
<trkpt lat="29.800619" lon="93.809788">
<time>2016-10-08T03:30:01Z</time></trkpt>
<trkpt lat="29.800638" lon="93.809217">
<time>2016-10-08T03:30:02Z</time></trkpt>
<trkpt lat="29.800647" lon="93.809047">
<time>2016-10-08T03:30:03Z</time></trkpt>
<trkpt lat="29.800657" lon="93.808926">
<time>2016-10-08T03:30:04Z</time></trkpt>
<trkpt lat="29.800667" lon="93.808836">
<time>2016-10-08T03:30:05Z</time></trkpt>
<trkpt lat="29.800697" lon="93.808706">
<time>2016-10-08T03:30:06Z</time></trkpt>
<trkpt lat="29.800726" lon="93.808535">
<time>2016-10-08T03:30:07Z</time></trkpt>
<trkpt lat="29.800776" lon="93.808345">
<time>2016-10-08T03:30:08Z</time></trkpt>
<trkpt lat="29.800856" lon="93.808084">
<time>2016-10-08T03:30:09Z</time></trkpt>
<trkpt lat="29.800945" lon="93.807754">
<time>2016-10-08T03:30:10Z</time></trkpt>
<trkpt lat="29.801035" lon="93.807473">
<time>2016-10-08T03:30:11Z</time></trkpt>
<trkpt lat="29.801094" lon="93.807292">
<time>2016-10-08T03:30:12Z</time></trkpt>
<trkpt lat="29.801174" lon="93.807092">
<time>2016-10-08T03:30:13Z</time></trkpt>
<trkpt lat="29.801303" lon="93.806821">
<time>2016-10-08T03:30:14Z</time></trkpt>
<trkpt lat="29.801353" lon="93.806711">
<time>2016-10-08T03:30:15Z</time></trkpt>
<trkpt lat="29.801393" lon="93.806641">
<time>2016-10-08T03:30:16Z</time></trkpt>
<trkpt lat="29.801473" lon="93.806481">
<time>2016-10-08T03:30:17Z</time></trkpt>
<trkpt lat="29.801513" lon="93.80641">
<time>2016-10-08T03:30:18Z</time></trkpt>
<trkpt lat="29.801543" lon="93.80635">
<time>2016-10-08T03:30:19Z</time></trkpt>
<trkpt lat="29.801592" lon="93.80627">
<time>2016-10-08T03:30:20Z</time></trkpt>
<trkpt lat="29.801632" lon="93.80621">
<time>2016-10-08T03:30:21Z</time></trkpt>
<trkpt lat="29.801712" lon="93.80609">
<time>2016-10-08T03:30:22Z</time></trkpt>
<trkpt lat="29.801802" lon="93.805959">
<time>2016-10-08T03:30:23Z</time></trkpt>
<trkpt lat="29.801991" lon="93.805709">
<time>2016-10-08T03:30:24Z</time></trkpt>
<trkpt lat="29.802101" lon="93.805548">
<time>2016-10-08T03:30:25Z</time></trkpt>
<trkpt lat="29.802261" lon="93.805338">
<time>2016-10-08T03:30:26Z</time></trkpt>
<trkpt lat="29.8024" lon="93.805157">
<time>2016-10-08T03:30:27Z</time></trkpt>
<trkpt lat="29.80251" lon="93.805017">
<time>2016-10-08T03:30:28Z</time></trkpt>
<trkpt lat="29.8026" lon="93.804897">
<time>2016-10-08T03:30:29Z</time></trkpt>
<trkpt lat="29.8027" lon="93.804757">
<time>2016-10-08T03:30:30Z</time></trkpt>
<trkpt lat="29.802929" lon="93.804456">
<time>2016-10-08T03:30:31Z</time></trkpt>
<trkpt lat="29.803039" lon="93.804295">
<time>2016-10-08T03:30:32Z</time></trkpt>
<trkpt lat="29.803129" lon="93.804185">
<time>2016-10-08T03:30:33Z</time></trkpt>
<trkpt lat="29.803248" lon="93.804015">
<time>2016-10-08T03:30:34Z</time></trkpt>
<trkpt lat="29.803438" lon="93.803754">
<time>2016-10-08T03:30:35Z</time></trkpt>
<trkpt lat="29.803498" lon="93.803674">
<time>2016-10-08T03:30:36Z</time></trkpt>
<trkpt lat="29.803598" lon="93.803544">
<time>2016-10-08T03:30:37Z</time></trkpt>
<trkpt lat="29.803677" lon="93.803443">
<time>2016-10-08T03:30:38Z</time></trkpt>
<trkpt lat="29.803767" lon="93.803303">
<time>2016-10-08T03:30:39Z</time></trkpt>
<trkpt lat="29.803847" lon="93.803183">
<time>2016-10-08T03:30:40Z</time></trkpt>
<trkpt lat="29.803897" lon="93.803103">
<time>2016-10-08T03:30:41Z</time></trkpt>
<trkpt lat="29.803957" lon="93.803002">
<time>2016-10-08T03:30:42Z</time></trkpt>
<trkpt lat="29.804046" lon="93.802862">
<time>2016-10-08T03:30:43Z</time></trkpt>
<trkpt lat="29.804086" lon="93.802782">
<time>2016-10-08T03:30:44Z</time></trkpt>
<trkpt lat="29.804156" lon="93.802642">
<time>2016-10-08T03:30:45Z</time></trkpt>
<trkpt lat="29.804216" lon="93.802521">
<time>2016-10-08T03:30:46Z</time></trkpt>
<trkpt lat="29.804276" lon="93.802401">
<time>2016-10-08T03:30:47Z</time></trkpt>
<trkpt lat="29.804335" lon="93.802271">
<time>2016-10-08T03:30:48Z</time></trkpt>
<trkpt lat="29.804375" lon="93.802171">
<time>2016-10-08T03:30:49Z</time></trkpt>
<trkpt lat="29.804445" lon="93.80202">
<time>2016-10-08T03:30:50Z</time></trkpt>
<trkpt lat="29.804485" lon="93.80191">
<time>2016-10-08T03:30:51Z</time></trkpt>
<trkpt lat="29.804565" lon="93.80173">
<time>2016-10-08T03:30:52Z</time></trkpt>
<trkpt lat="29.804624" lon="93.801579">
<time>2016-10-08T03:30:53Z</time></trkpt>
<trkpt lat="29.804674" lon="93.801469">
<time>2016-10-08T03:30:54Z</time></trkpt>
<trkpt lat="29.804724" lon="93.801329">
<time>2016-10-08T03:30:55Z</time></trkpt>
<trkpt lat="29.804764" lon="93.801228">
<time>2016-10-08T03:30:56Z</time></trkpt>
<trkpt lat="29.804813" lon="93.801088">
<time>2016-10-08T03:30:57Z</time></trkpt>
<trkpt lat="29.804843" lon="93.800978">
<time>2016-10-08T03:30:58Z</time></trkpt>
<trkpt lat="29.804883" lon="93.800848">
<time>2016-10-08T03:30:59Z</time></trkpt>
<trkpt lat="29.804913" lon="93.800717">
<time>2016-10-08T03:31:00Z</time></trkpt>
<trkpt lat="29.804943" lon="93.800627">
<time>2016-10-08T03:31:01Z</time></trkpt>
<trkpt lat="29.804953" lon="93.800567">
<time>2016-10-08T03:31:02Z</time></trkpt>
<trkpt lat="29.804982" lon="93.800437">
<time>2016-10-08T03:31:03Z</time></trkpt>
<trkpt lat="29.805022" lon="93.800296">
<time>2016-10-08T03:31:04Z</time></trkpt>
<trkpt lat="29.805062" lon="93.800136">
<time>2016-10-08T03:31:05Z</time></trkpt>
<trkpt lat="29.805082" lon="93.800016">
<time>2016-10-08T03:31:06Z</time></trkpt>
<trkpt lat="29.805111" lon="93.799865">
<time>2016-10-08T03:31:07Z</time></trkpt>
<trkpt lat="29.805161" lon="93.799565">
<time>2016-10-08T03:31:08Z</time></trkpt>
<trkpt lat="29.8052" lon="93.799274">
<time>2016-10-08T03:31:09Z</time></trkpt>
<trkpt lat="29.80523" lon="93.798993">
<time>2016-10-08T03:31:10Z</time></trkpt>
<trkpt lat="29.805289" lon="93.798583">
<time>2016-10-08T03:31:11Z</time></trkpt>
<trkpt lat="29.805329" lon="93.798312">
<time>2016-10-08T03:31:12Z</time></trkpt>
<trkpt lat="29.805349" lon="93.798122">
<time>2016-10-08T03:31:13Z</time></trkpt>
<trkpt lat="29.805398" lon="93.797791">
<time>2016-10-08T03:31:14Z</time></trkpt>
<trkpt lat="29.805448" lon="93.79741">
<time>2016-10-08T03:31:15Z</time></trkpt>
<trkpt lat="29.805467" lon="93.79729">
<time>2016-10-08T03:31:16Z</time></trkpt>
<trkpt lat="29.805507" lon="93.797019">
<time>2016-10-08T03:31:17Z</time></trkpt>
<trkpt lat="29.805527" lon="93.796859">
<time>2016-10-08T03:31:18Z</time></trkpt>
<trkpt lat="29.805546" lon="93.796688">
<time>2016-10-08T03:31:19Z</time></trkpt>
<trkpt lat="29.805586" lon="93.796488">
<time>2016-10-08T03:31:20Z</time></trkpt>
<trkpt lat="29.805626" lon="93.796187">
<time>2016-10-08T03:31:21Z</time></trkpt>
<trkpt lat="29.805665" lon="93.795877">
<time>2016-10-08T03:31:22Z</time></trkpt>
<trkpt lat="29.805695" lon="93.795676">
<time>2016-10-08T03:31:23Z</time></trkpt>
<trkpt lat="29.805784" lon="93.795005">
<time>2016-10-08T03:31:24Z</time></trkpt>
<trkpt lat="29.805804" lon="93.794895">
<time>2016-10-08T03:31:25Z</time></trkpt>
<trkpt lat="29.805823" lon="93.794704">
<time>2016-10-08T03:31:26Z</time></trkpt>
<trkpt lat="29.805883" lon="93.794293">
<time>2016-10-08T03:31:27Z</time></trkpt>
<trkpt lat="29.805902" lon="93.794103">
<time>2016-10-08T03:31:28Z</time></trkpt>
<trkpt lat="29.805932" lon="93.793943">
<time>2016-10-08T03:31:29Z</time></trkpt>
<trkpt lat="29.805952" lon="93.793762">
<time>2016-10-08T03:31:30Z</time></trkpt>
<trkpt lat="29.805972" lon="93.793612">
<time>2016-10-08T03:31:31Z</time></trkpt>
<trkpt lat="29.806001" lon="93.793432">
<time>2016-10-08T03:31:32Z</time></trkpt>
<trkpt lat="29.806021" lon="93.793291">
<time>2016-10-08T03:31:33Z</time></trkpt>
<trkpt lat="29.806051" lon="93.793081">
<time>2016-10-08T03:31:34Z</time></trkpt>
<trkpt lat="29.806071" lon="93.792911">
<time>2016-10-08T03:31:35Z</time></trkpt>
<trkpt lat="29.80611" lon="93.7926">
<time>2016-10-08T03:31:36Z</time></trkpt>
<trkpt lat="29.80614" lon="93.79243">
<time>2016-10-08T03:31:37Z</time></trkpt>
<trkpt lat="29.80616" lon="93.792239">
<time>2016-10-08T03:31:38Z</time></trkpt>
<trkpt lat="29.806189" lon="93.792079">
<time>2016-10-08T03:31:39Z</time></trkpt>
<trkpt lat="29.806229" lon="93.791758">
<time>2016-10-08T03:31:40Z</time></trkpt>
<trkpt lat="29.806259" lon="93.791558">
<time>2016-10-08T03:31:41Z</time></trkpt>
<trkpt lat="29.806288" lon="93.791287">
<time>2016-10-08T03:31:42Z</time></trkpt>
<trkpt lat="29.806318" lon="93.791117">
<time>2016-10-08T03:31:43Z</time></trkpt>
<trkpt lat="29.806338" lon="93.790947">
<time>2016-10-08T03:31:44Z</time></trkpt>
<trkpt lat="29.806358" lon="93.790806">
<time>2016-10-08T03:31:45Z</time></trkpt>
<trkpt lat="29.806407" lon="93.790496">
<time>2016-10-08T03:31:46Z</time></trkpt>
<trkpt lat="29.806437" lon="93.790215">
<time>2016-10-08T03:31:47Z</time></trkpt>
<trkpt lat="29.806457" lon="93.790065">
<time>2016-10-08T03:31:48Z</time></trkpt>
<trkpt lat="29.806476" lon="93.789945">
<time>2016-10-08T03:31:49Z</time></trkpt>
<trkpt lat="29.806516" lon="93.789674">
<time>2016-10-08T03:31:50Z</time></trkpt>
<trkpt lat="29.806566" lon="93.789263">
<time>2016-10-08T03:31:51Z</time></trkpt>
<trkpt lat="29.806595" lon="93.789093">
<time>2016-10-08T03:31:52Z</time></trkpt>
<trkpt lat="29.806615" lon="93.788933">
<time>2016-10-08T03:31:53Z</time></trkpt>
<trkpt lat="29.806645" lon="93.788742">
<time>2016-10-08T03:31:54Z</time></trkpt>
<trkpt lat="29.806665" lon="93.788592">
<time>2016-10-08T03:31:55Z</time></trkpt>
<trkpt lat="29.806684" lon="93.788422">
<time>2016-10-08T03:31:56Z</time></trkpt>
<trkpt lat="29.806714" lon="93.788221">
<time>2016-10-08T03:31:57Z</time></trkpt>
<trkpt lat="29.806734" lon="93.788051">
<time>2016-10-08T03:31:58Z</time></trkpt>
<trkpt lat="29.806764" lon="93.787841">
<time>2016-10-08T03:31:59Z</time></trkpt>
<trkpt lat="29.806783" lon="93.78769">
<time>2016-10-08T03:32:00Z</time></trkpt>
<trkpt lat="29.806813" lon="93.78748">
<time>2016-10-08T03:32:01Z</time></trkpt>
<trkpt lat="29.806843" lon="93.78726">
<time>2016-10-08T03:32:02Z</time></trkpt>
<trkpt lat="29.806892" lon="93.786889">
<time>2016-10-08T03:32:03Z</time></trkpt>
<trkpt lat="29.806902" lon="93.786779">
<time>2016-10-08T03:32:04Z</time></trkpt>
<trkpt lat="29.806922" lon="93.786638">
<time>2016-10-08T03:32:05Z</time></trkpt>
<trkpt lat="29.806952" lon="93.786448">
<time>2016-10-08T03:32:06Z</time></trkpt>
<trkpt lat="29.806982" lon="93.786268">
<time>2016-10-08T03:32:07Z</time></trkpt>
<trkpt lat="29.807001" lon="93.786097">
<time>2016-10-08T03:32:08Z</time></trkpt>
<trkpt lat="29.807031" lon="93.785857">
<time>2016-10-08T03:32:09Z</time></trkpt>
<trkpt lat="29.807051" lon="93.785687">
<time>2016-10-08T03:32:10Z</time></trkpt>
<trkpt lat="29.807071" lon="93.785566">
<time>2016-10-08T03:32:11Z</time></trkpt>
<trkpt lat="29.80708" lon="93.785416">
<time>2016-10-08T03:32:12Z</time></trkpt>
<trkpt lat="29.8071" lon="93.785266">
<time>2016-10-08T03:32:13Z</time></trkpt>
<trkpt lat="29.80712" lon="93.784995">
<time>2016-10-08T03:32:14Z</time></trkpt>
<trkpt lat="29.80714" lon="93.784835">
<time>2016-10-08T03:32:15Z</time></trkpt>
<trkpt lat="29.80715" lon="93.784745">
<time>2016-10-08T03:32:16Z</time></trkpt>
<trkpt lat="29.80716" lon="93.784665">
<time>2016-10-08T03:32:17Z</time></trkpt>
<trkpt lat="29.807169" lon="93.784595">
<time>2016-10-08T03:32:18Z</time></trkpt>
<trkpt lat="29.807179" lon="93.784525">
<time>2016-10-08T03:32:19Z</time></trkpt>
<trkpt lat="29.807199" lon="93.784454">
<time>2016-10-08T03:32:20Z</time></trkpt>
<trkpt lat="29.807209" lon="93.784414">
<time>2016-10-08T03:32:21Z</time></trkpt>
<trkpt lat="29.807219" lon="93.784384">
<time>2016-10-08T03:32:22Z</time></trkpt>
<trkpt lat="29.807249" lon="93.784284">
<time>2016-10-08T03:32:23Z</time></trkpt>
<trkpt lat="29.807299" lon="93.784134">
<time>2016-10-08T03:32:24Z</time></trkpt>
<trkpt lat="29.807349" lon="93.784014">
<time>2016-10-08T03:32:25Z</time></trkpt>
<trkpt lat="29.807379" lon="93.783954">
<time>2016-10-08T03:32:26Z</time></trkpt>
<trkpt lat="29.807409" lon="93.783873">
<time>2016-10-08T03:32:27Z</time></trkpt>
<trkpt lat="29.807448" lon="93.783753">
<time>2016-10-08T03:32:28Z</time></trkpt>
<trkpt lat="29.807488" lon="93.783673">
<time>2016-10-08T03:32:29Z</time></trkpt>
<trkpt lat="29.807528" lon="93.783573">
<time>2016-10-08T03:32:30Z</time></trkpt>
<trkpt lat="29.807558" lon="93.783503">
<time>2016-10-08T03:32:31Z</time></trkpt>
<trkpt lat="29.807598" lon="93.783423">
<time>2016-10-08T03:32:32Z</time></trkpt>
<trkpt lat="29.807648" lon="93.783343">
<time>2016-10-08T03:32:33Z</time></trkpt>
<trkpt lat="29.807708" lon="93.783232">
<time>2016-10-08T03:32:34Z</time></trkpt>
<trkpt lat="29.807768" lon="93.783152">
<time>2016-10-08T03:32:35Z</time></trkpt>
<trkpt lat="29.807818" lon="93.783072">
<time>2016-10-08T03:32:36Z</time></trkpt>
<trkpt lat="29.807867" lon="93.783002">
<time>2016-10-08T03:32:37Z</time></trkpt>
<trkpt lat="29.807947" lon="93.782912">
<time>2016-10-08T03:32:38Z</time></trkpt>
<trkpt lat="29.808017" lon="93.782822">
<time>2016-10-08T03:32:39Z</time></trkpt>
<trkpt lat="29.808057" lon="93.782782">
<time>2016-10-08T03:32:40Z</time></trkpt>
<trkpt lat="29.808087" lon="93.782752">
<time>2016-10-08T03:32:41Z</time></trkpt>
<trkpt lat="29.808117" lon="93.782711">
<time>2016-10-08T03:32:42Z</time></trkpt>
<trkpt lat="29.808147" lon="93.782691">
<time>2016-10-08T03:32:43Z</time></trkpt>
<trkpt lat="29.808167" lon="93.782671">
<time>2016-10-08T03:32:44Z</time></trkpt>
<trkpt lat="29.808217" lon="93.782631">
<time>2016-10-08T03:32:45Z</time></trkpt>
<trkpt lat="29.808267" lon="93.782601">
<time>2016-10-08T03:32:46Z</time></trkpt>
<trkpt lat="29.808307" lon="93.782571">
<time>2016-10-08T03:32:47Z</time></trkpt>
<trkpt lat="29.808347" lon="93.782561">
<time>2016-10-08T03:32:48Z</time></trkpt>
<trkpt lat="29.808397" lon="93.782531">
<time>2016-10-08T03:32:49Z</time></trkpt>
<trkpt lat="29.808437" lon="93.782521">
<time>2016-10-08T03:32:50Z</time></trkpt>
<trkpt lat="29.808507" lon="93.782481">
<time>2016-10-08T03:32:51Z</time></trkpt>
<trkpt lat="29.808577" lon="93.782461">
<time>2016-10-08T03:32:52Z</time></trkpt>
<trkpt lat="29.808627" lon="93.782431">
<time>2016-10-08T03:32:53Z</time></trkpt>
<trkpt lat="29.808657" lon="93.782421">
<time>2016-10-08T03:32:54Z</time></trkpt>
<trkpt lat="29.808717" lon="93.782391">
<time>2016-10-08T03:32:55Z</time></trkpt>
<trkpt lat="29.808737" lon="93.782381">
<time>2016-10-08T03:32:56Z</time></trkpt>
<trkpt lat="29.808767" lon="93.782361">
<time>2016-10-08T03:32:57Z</time></trkpt>
<trkpt lat="29.808817" lon="93.782331">
<time>2016-10-08T03:32:58Z</time></trkpt>
<trkpt lat="29.808857" lon="93.782311">
<time>2016-10-08T03:32:59Z</time></trkpt>
<trkpt lat="29.808916" lon="93.782271">
<time>2016-10-08T03:33:00Z</time></trkpt>
<trkpt lat="29.809016" lon="93.782211">
<time>2016-10-08T03:33:01Z</time></trkpt>
<trkpt lat="29.809106" lon="93.78215">
<time>2016-10-08T03:33:02Z</time></trkpt>
<trkpt lat="29.809206" lon="93.78208">
<time>2016-10-08T03:33:03Z</time></trkpt>
<trkpt lat="29.809296" lon="93.78203">
<time>2016-10-08T03:33:04Z</time></trkpt>
<trkpt lat="29.809406" lon="93.78196">
<time>2016-10-08T03:33:05Z</time></trkpt>
<trkpt lat="29.809506" lon="93.78189">
<time>2016-10-08T03:33:06Z</time></trkpt>
<trkpt lat="29.809586" lon="93.78184">
<time>2016-10-08T03:33:07Z</time></trkpt>
<trkpt lat="29.809686" lon="93.78178">
<time>2016-10-08T03:33:08Z</time></trkpt>
<trkpt lat="29.809786" lon="93.78171">
<time>2016-10-08T03:33:09Z</time></trkpt>
<trkpt lat="29.809876" lon="93.78166">
<time>2016-10-08T03:33:10Z</time></trkpt>
<trkpt lat="29.809936" lon="93.78163">
<time>2016-10-08T03:33:11Z</time></trkpt>
<trkpt lat="29.810026" lon="93.781569">
<time>2016-10-08T03:33:12Z</time></trkpt>
<trkpt lat="29.810076" lon="93.781539">
<time>2016-10-08T03:33:13Z</time></trkpt>
<trkpt lat="29.810126" lon="93.781509">
<time>2016-10-08T03:33:14Z</time></trkpt>
<trkpt lat="29.810185" lon="93.781469">
<time>2016-10-08T03:33:15Z</time></trkpt>
<trkpt lat="29.810235" lon="93.781439">
<time>2016-10-08T03:33:16Z</time></trkpt>
<trkpt lat="29.810275" lon="93.781419">
<time>2016-10-08T03:33:17Z</time></trkpt>
<trkpt lat="29.810325" lon="93.781389">
<time>2016-10-08T03:33:18Z</time></trkpt>
<trkpt lat="29.810355" lon="93.781359">
<time>2016-10-08T03:33:19Z</time></trkpt>
<trkpt lat="29.810435" lon="93.781309">
<time>2016-10-08T03:33:20Z</time></trkpt>
<trkpt lat="29.810475" lon="93.781269">
<time>2016-10-08T03:33:21Z</time></trkpt>
<trkpt lat="29.810505" lon="93.781249">
<time>2016-10-08T03:33:22Z</time></trkpt>
<trkpt lat="29.810525" lon="93.781229">
<time>2016-10-08T03:33:23Z</time></trkpt>
<trkpt lat="29.810555" lon="93.781189">
<time>2016-10-08T03:33:24Z</time></trkpt>
<trkpt lat="29.810585" lon="93.781159">
<time>2016-10-08T03:33:25Z</time></trkpt>
<trkpt lat="29.810615" lon="93.781129">
<time>2016-10-08T03:33:26Z</time></trkpt>
<trkpt lat="29.810645" lon="93.781079">
<time>2016-10-08T03:33:27Z</time></trkpt>
<trkpt lat="29.810665" lon="93.781049">
<time>2016-10-08T03:33:28Z</time></trkpt>
<trkpt lat="29.810685" lon="93.781019">
<time>2016-10-08T03:33:29Z</time></trkpt>
<trkpt lat="29.810725" lon="93.780958">
<time>2016-10-08T03:33:30Z</time></trkpt>
<trkpt lat="29.810765" lon="93.780888">
<time>2016-10-08T03:33:31Z</time></trkpt>
<trkpt lat="29.810795" lon="93.780838">
<time>2016-10-08T03:33:32Z</time></trkpt>
<trkpt lat="29.810825" lon="93.780778">
<time>2016-10-08T03:33:33Z</time></trkpt>
<trkpt lat="29.810865" lon="93.780718">
<time>2016-10-08T03:33:34Z</time></trkpt>
<trkpt lat="29.810904" lon="93.780648">
<time>2016-10-08T03:33:35Z</time></trkpt>
<trkpt lat="29.810944" lon="93.780588">
<time>2016-10-08T03:33:36Z</time></trkpt>
<trkpt lat="29.810984" lon="93.780528">
<time>2016-10-08T03:33:37Z</time></trkpt>
<trkpt lat="29.811014" lon="93.780488">
<time>2016-10-08T03:33:38Z</time></trkpt>
<trkpt lat="29.811044" lon="93.780438">
<time>2016-10-08T03:33:39Z</time></trkpt>
<trkpt lat="29.811074" lon="93.780398">
<time>2016-10-08T03:33:40Z</time></trkpt>
<trkpt lat="29.811124" lon="93.780337">
<time>2016-10-08T03:33:41Z</time></trkpt>
<trkpt lat="29.811184" lon="93.780267">
<time>2016-10-08T03:33:42Z</time></trkpt>
<trkpt lat="29.811244" lon="93.780207">
<time>2016-10-08T03:33:43Z</time></trkpt>
<trkpt lat="29.811304" lon="93.780127">
<time>2016-10-08T03:33:44Z</time></trkpt>
<trkpt lat="29.811364" lon="93.780067">
<time>2016-10-08T03:33:45Z</time></trkpt>
<trkpt lat="29.811424" lon="93.779997">
<time>2016-10-08T03:33:46Z</time></trkpt>
<trkpt lat="29.811514" lon="93.779917">
<time>2016-10-08T03:33:47Z</time></trkpt>
<trkpt lat="29.811574" lon="93.779847">
<time>2016-10-08T03:33:48Z</time></trkpt>
<trkpt lat="29.811643" lon="93.779777">
<time>2016-10-08T03:33:49Z</time></trkpt>
<trkpt lat="29.811683" lon="93.779736">
<time>2016-10-08T03:33:50Z</time></trkpt>
<trkpt lat="29.811733" lon="93.779696">
<time>2016-10-08T03:33:51Z</time></trkpt>
<trkpt lat="29.811783" lon="93.779656">
<time>2016-10-08T03:33:52Z</time></trkpt>
<trkpt lat="29.811823" lon="93.779626">
<time>2016-10-08T03:33:53Z</time></trkpt>
<trkpt lat="29.811843" lon="93.779606">
<time>2016-10-08T03:33:54Z</time></trkpt>
<trkpt lat="29.811863" lon="93.779596">
<time>2016-10-08T03:33:55Z</time></trkpt>
<trkpt lat="29.811893" lon="93.779586">
<time>2016-10-08T03:33:56Z</time></trkpt>
<trkpt lat="29.811913" lon="93.779566">
<time>2016-10-08T03:33:57Z</time></trkpt>
<trkpt lat="29.811943" lon="93.779556">
<time>2016-10-08T03:33:58Z</time></trkpt>
<trkpt lat="29.811973" lon="93.779546">
<time>2016-10-08T03:33:59Z</time></trkpt>
<trkpt lat="29.812003" lon="93.779536">
<time>2016-10-08T03:34:00Z</time></trkpt>
<trkpt lat="29.812033" lon="93.779516">
<time>2016-10-08T03:34:01Z</time></trkpt>
<trkpt lat="29.812073" lon="93.779506">
<time>2016-10-08T03:34:02Z</time></trkpt>
<trkpt lat="29.812123" lon="93.779496">
<time>2016-10-08T03:34:03Z</time></trkpt>
<trkpt lat="29.812153" lon="93.779486">
<time>2016-10-08T03:34:04Z</time></trkpt>
<trkpt lat="29.812183" lon="93.779476">
<time>2016-10-08T03:34:05Z</time></trkpt>
<trkpt lat="29.812213" lon="93.779476">
<time>2016-10-08T03:34:06Z</time></trkpt>
<trkpt lat="29.812243" lon="93.779476">
<time>2016-10-08T03:34:07Z</time></trkpt>
<trkpt lat="29.812283" lon="93.779476">
<time>2016-10-08T03:34:08Z</time></trkpt>
<trkpt lat="29.812343" lon="93.779476">
<time>2016-10-08T03:34:09Z</time></trkpt>
<trkpt lat="29.812383" lon="93.779476">
<time>2016-10-08T03:34:10Z</time></trkpt>
<trkpt lat="29.812413" lon="93.779486">
<time>2016-10-08T03:34:11Z</time></trkpt>
<trkpt lat="29.812443" lon="93.779486">
<time>2016-10-08T03:34:12Z</time></trkpt>
<trkpt lat="29.812513" lon="93.779496">
<time>2016-10-08T03:34:13Z</time></trkpt>
<trkpt lat="29.812573" lon="93.779516">
<time>2016-10-08T03:34:14Z</time></trkpt>
<trkpt lat="29.812613" lon="93.779516">
<time>2016-10-08T03:34:15Z</time></trkpt>
<trkpt lat="29.812673" lon="93.779526">
<time>2016-10-08T03:34:16Z</time></trkpt>
<trkpt lat="29.812733" lon="93.779526">
<time>2016-10-08T03:34:17Z</time></trkpt>
<trkpt lat="29.812793" lon="93.779526">
<time>2016-10-08T03:34:18Z</time></trkpt>
<trkpt lat="29.812833" lon="93.779526">
<time>2016-10-08T03:34:19Z</time></trkpt>
<trkpt lat="29.812893" lon="93.779526">
<time>2016-10-08T03:34:20Z</time></trkpt>
<trkpt lat="29.812923" lon="93.779516">
<time>2016-10-08T03:34:21Z</time></trkpt>
<trkpt lat="29.812963" lon="93.779516">
<time>2016-10-08T03:34:22Z</time></trkpt>
<trkpt lat="29.813003" lon="93.779506">
<time>2016-10-08T03:34:23Z</time></trkpt>
<trkpt lat="29.813023" lon="93.779496">
<time>2016-10-08T03:34:24Z</time></trkpt>
<trkpt lat="29.813083" lon="93.779486">
<time>2016-10-08T03:34:25Z</time></trkpt>
<trkpt lat="29.813143" lon="93.779456">
<time>2016-10-08T03:34:26Z</time></trkpt>
<trkpt lat="29.813193" lon="93.779436">
<time>2016-10-08T03:34:27Z</time></trkpt>
<trkpt lat="29.813253" lon="93.779416">
<time>2016-10-08T03:34:28Z</time></trkpt>
<trkpt lat="29.813323" lon="93.779376">
<time>2016-10-08T03:34:29Z</time></trkpt>
<trkpt lat="29.813403" lon="93.779336">
<time>2016-10-08T03:34:30Z</time></trkpt>
<trkpt lat="29.813473" lon="93.779286">
<time>2016-10-08T03:34:31Z</time></trkpt>
<trkpt lat="29.813573" lon="93.779236">
<time>2016-10-08T03:34:32Z</time></trkpt>
<trkpt lat="29.813663" lon="93.779186">
<time>2016-10-08T03:34:33Z</time></trkpt>
<trkpt lat="29.813773" lon="93.779125">
<time>2016-10-08T03:34:34Z</time></trkpt>
<trkpt lat="29.813902" lon="93.779055">
<time>2016-10-08T03:34:35Z</time></trkpt>
<trkpt lat="29.814032" lon="93.778975">
<time>2016-10-08T03:34:36Z</time></trkpt>
<trkpt lat="29.814052" lon="93.778965">
<time>2016-10-08T03:34:37Z</time></trkpt>
<trkpt lat="29.814072" lon="93.778955">
<time>2016-10-08T03:34:38Z</time></trkpt>
<trkpt lat="29.814092" lon="93.778945">
<time>2016-10-08T03:34:39Z</time></trkpt>
<trkpt lat="29.814102" lon="93.778935">
<time>2016-10-08T03:34:40Z</time></trkpt>
<trkpt lat="29.814132" lon="93.778905">
<time>2016-10-08T03:34:41Z</time></trkpt>
<trkpt lat="29.814152" lon="93.778885">
<time>2016-10-08T03:34:42Z</time></trkpt>
<trkpt lat="29.814172" lon="93.778865">
<time>2016-10-08T03:34:43Z</time></trkpt>
<trkpt lat="29.814192" lon="93.778825">
<time>2016-10-08T03:34:44Z</time></trkpt>
<trkpt lat="29.814222" lon="93.778795">
<time>2016-10-08T03:34:45Z</time></trkpt>
<trkpt lat="29.814242" lon="93.778755">
<time>2016-10-08T03:34:46Z</time></trkpt>
<trkpt lat="29.814252" lon="93.778735">
<time>2016-10-08T03:34:47Z</time></trkpt>
<trkpt lat="29.814262" lon="93.778725">
<time>2016-10-08T03:34:48Z</time></trkpt>
<trkpt lat="29.814272" lon="93.778695">
<time>2016-10-08T03:34:49Z</time></trkpt>
<trkpt lat="29.814282" lon="93.778665">
<time>2016-10-08T03:34:50Z</time></trkpt>
<trkpt lat="29.814302" lon="93.778605">
<time>2016-10-08T03:34:51Z</time></trkpt>
<trkpt lat="29.814312" lon="93.778565">
<time>2016-10-08T03:34:52Z</time></trkpt>
<trkpt lat="29.814322" lon="93.778524">
<time>2016-10-08T03:34:53Z</time></trkpt>
<trkpt lat="29.814342" lon="93.778424">
<time>2016-10-08T03:34:54Z</time></trkpt>
<trkpt lat="29.814362" lon="93.778244">
<time>2016-10-08T03:34:55Z</time></trkpt>
<trkpt lat="29.814401" lon="93.777984">
<time>2016-10-08T03:34:56Z</time></trkpt>
<trkpt lat="29.814431" lon="93.777773">
<time>2016-10-08T03:34:57Z</time></trkpt>
<trkpt lat="29.814461" lon="93.777603">
<time>2016-10-08T03:34:58Z</time></trkpt>
<trkpt lat="29.814491" lon="93.777403">
<time>2016-10-08T03:34:59Z</time></trkpt>
<trkpt lat="29.814521" lon="93.777263">
<time>2016-10-08T03:35:00Z</time></trkpt>
<trkpt lat="29.81454" lon="93.777152">
<time>2016-10-08T03:35:01Z</time></trkpt>
<trkpt lat="29.81458" lon="93.777002">
<time>2016-10-08T03:35:02Z</time></trkpt>
<trkpt lat="29.81464" lon="93.776812">
<time>2016-10-08T03:35:03Z</time></trkpt>
<trkpt lat="29.8147" lon="93.776582">
<time>2016-10-08T03:35:04Z</time></trkpt>
<trkpt lat="29.81478" lon="93.776311">
<time>2016-10-08T03:35:05Z</time></trkpt>
<trkpt lat="29.814859" lon="93.776071">
<time>2016-10-08T03:35:06Z</time></trkpt>
<trkpt lat="29.814909" lon="93.77589">
<time>2016-10-08T03:35:07Z</time></trkpt>
<trkpt lat="29.815049" lon="93.77539">
<time>2016-10-08T03:35:08Z</time></trkpt>
<trkpt lat="29.815128" lon="93.775109">
<time>2016-10-08T03:35:09Z</time></trkpt>
<trkpt lat="29.815168" lon="93.774949">
<time>2016-10-08T03:35:10Z</time></trkpt>
<trkpt lat="29.815208" lon="93.774799">
<time>2016-10-08T03:35:11Z</time></trkpt>
<trkpt lat="29.815248" lon="93.774689">
<time>2016-10-08T03:35:12Z</time></trkpt>
<trkpt lat="29.815308" lon="93.774529">
<time>2016-10-08T03:35:13Z</time></trkpt>
<trkpt lat="29.815418" lon="93.774258">
<time>2016-10-08T03:35:14Z</time></trkpt>
<trkpt lat="29.815527" lon="93.773998">
<time>2016-10-08T03:35:15Z</time></trkpt>
<trkpt lat="29.815627" lon="93.773747">
<time>2016-10-08T03:35:16Z</time></trkpt>
<trkpt lat="29.815707" lon="93.773557">
<time>2016-10-08T03:35:17Z</time></trkpt>
<trkpt lat="29.815787" lon="93.773357">
<time>2016-10-08T03:35:18Z</time></trkpt>
<trkpt lat="29.815887" lon="93.773117">
<time>2016-10-08T03:35:19Z</time></trkpt>
<trkpt lat="29.815966" lon="93.772916">
<time>2016-10-08T03:35:20Z</time></trkpt>
<trkpt lat="29.816036" lon="93.772746">
<time>2016-10-08T03:35:21Z</time></trkpt>
<trkpt lat="29.816106" lon="93.772586">
<time>2016-10-08T03:35:22Z</time></trkpt>
<trkpt lat="29.816216" lon="93.772305">
<time>2016-10-08T03:35:23Z</time></trkpt>
<trkpt lat="29.816316" lon="93.772075">
<time>2016-10-08T03:35:24Z</time></trkpt>
<trkpt lat="29.816386" lon="93.771925">
<time>2016-10-08T03:35:25Z</time></trkpt>
<trkpt lat="29.816435" lon="93.771825">
<time>2016-10-08T03:35:26Z</time></trkpt>
<trkpt lat="29.816475" lon="93.771765">
<time>2016-10-08T03:35:27Z</time></trkpt>
<trkpt lat="29.816515" lon="93.771685">
<time>2016-10-08T03:35:28Z</time></trkpt>
<trkpt lat="29.816635" lon="93.771514">
<time>2016-10-08T03:35:29Z</time></trkpt>
<trkpt lat="29.816745" lon="93.771344">
<time>2016-10-08T03:35:30Z</time></trkpt>
<trkpt lat="29.816895" lon="93.771134">
<time>2016-10-08T03:35:31Z</time></trkpt>
<trkpt lat="29.817194" lon="93.770713">
<time>2016-10-08T03:35:32Z</time></trkpt>
<trkpt lat="29.817454" lon="93.770333">
<time>2016-10-08T03:35:33Z</time></trkpt>
<trkpt lat="29.817614" lon="93.770103">
<time>2016-10-08T03:35:34Z</time></trkpt>
<trkpt lat="29.817744" lon="93.769912">
<time>2016-10-08T03:35:35Z</time></trkpt>
<trkpt lat="29.817804" lon="93.769802">
<time>2016-10-08T03:35:36Z</time></trkpt>
<trkpt lat="29.817864" lon="93.769712">
<time>2016-10-08T03:35:37Z</time></trkpt>
<trkpt lat="29.818063" lon="93.769392">
<time>2016-10-08T03:35:38Z</time></trkpt>
<trkpt lat="29.818173" lon="93.769192">
<time>2016-10-08T03:35:39Z</time></trkpt>
<trkpt lat="29.818233" lon="93.769091">
<time>2016-10-08T03:35:40Z</time></trkpt>
<trkpt lat="29.818273" lon="93.769021">
<time>2016-10-08T03:35:41Z</time></trkpt>
<trkpt lat="29.818313" lon="93.768931">
<time>2016-10-08T03:35:42Z</time></trkpt>
<trkpt lat="29.818353" lon="93.768841">
<time>2016-10-08T03:35:43Z</time></trkpt>
<trkpt lat="29.818393" lon="93.768771">
<time>2016-10-08T03:35:44Z</time></trkpt>
<trkpt lat="29.818413" lon="93.768731">
<time>2016-10-08T03:35:45Z</time></trkpt>
<trkpt lat="29.818433" lon="93.768701">
<time>2016-10-08T03:35:46Z</time></trkpt>
<trkpt lat="29.818453" lon="93.768651">
<time>2016-10-08T03:35:47Z</time></trkpt>
<trkpt lat="29.818473" lon="93.768601">
<time>2016-10-08T03:35:48Z</time></trkpt>
<trkpt lat="29.818513" lon="93.768511">
<time>2016-10-08T03:35:49Z</time></trkpt>
<trkpt lat="29.818553" lon="93.768421">
<time>2016-10-08T03:35:50Z</time></trkpt>
<trkpt lat="29.818603" lon="93.768321">
<time>2016-10-08T03:35:51Z</time></trkpt>
<trkpt lat="29.818642" lon="93.76821">
<time>2016-10-08T03:35:52Z</time></trkpt>
<trkpt lat="29.818692" lon="93.76809">
<time>2016-10-08T03:35:53Z</time></trkpt>
<trkpt lat="29.818732" lon="93.768">
<time>2016-10-08T03:35:54Z</time></trkpt>
<trkpt lat="29.818762" lon="93.76792">
<time>2016-10-08T03:35:55Z</time></trkpt>
<trkpt lat="29.818792" lon="93.76784">
<time>2016-10-08T03:35:56Z</time></trkpt>
<trkpt lat="29.818822" lon="93.76775">
<time>2016-10-08T03:35:57Z</time></trkpt>
<trkpt lat="29.818862" lon="93.76766">
<time>2016-10-08T03:35:58Z</time></trkpt>
<trkpt lat="29.818902" lon="93.76756">
<time>2016-10-08T03:35:59Z</time></trkpt>
<trkpt lat="29.818962" lon="93.767409">
<time>2016-10-08T03:36:00Z</time></trkpt>
<trkpt lat="29.819241" lon="93.766689">
<time>2016-10-08T03:36:01Z</time></trkpt>
<trkpt lat="29.819311" lon="93.766508">
<time>2016-10-08T03:36:02Z</time></trkpt>
<trkpt lat="29.819431" lon="93.766218">
<time>2016-10-08T03:36:03Z</time></trkpt>
<trkpt lat="29.819541" lon="93.765898">
<time>2016-10-08T03:36:04Z</time></trkpt>
<trkpt lat="29.81978" lon="93.765307">
<time>2016-10-08T03:36:05Z</time></trkpt>
<trkpt lat="29.82004" lon="93.764637">
<time>2016-10-08T03:36:06Z</time></trkpt>
<trkpt lat="29.82012" lon="93.764466">
<time>2016-10-08T03:36:07Z</time></trkpt>
<trkpt lat="29.82025" lon="93.764166">
<time>2016-10-08T03:36:08Z</time></trkpt>
<trkpt lat="29.82047" lon="93.763736">
<time>2016-10-08T03:36:09Z</time></trkpt>
<trkpt lat="29.820519" lon="93.763646">
<time>2016-10-08T03:36:10Z</time></trkpt>
<trkpt lat="29.820609" lon="93.763465">
<time>2016-10-08T03:36:11Z</time></trkpt>
<trkpt lat="29.820689" lon="93.763285">
<time>2016-10-08T03:36:12Z</time></trkpt>
<trkpt lat="29.820819" lon="93.763045">
<time>2016-10-08T03:36:13Z</time></trkpt>
<trkpt lat="29.820919" lon="93.762845">
<time>2016-10-08T03:36:14Z</time></trkpt>
<trkpt lat="29.821019" lon="93.762665">
<time>2016-10-08T03:36:15Z</time></trkpt>
<trkpt lat="29.821149" lon="93.762434">
<time>2016-10-08T03:36:16Z</time></trkpt>
<trkpt lat="29.821279" lon="93.762214">
<time>2016-10-08T03:36:17Z</time></trkpt>
<trkpt lat="29.821369" lon="93.762074">
<time>2016-10-08T03:36:18Z</time></trkpt>
<trkpt lat="29.821469" lon="93.761894">
<time>2016-10-08T03:36:19Z</time></trkpt>
<trkpt lat="29.821558" lon="93.761754">
<time>2016-10-08T03:36:20Z</time></trkpt>
<trkpt lat="29.821648" lon="93.761614">
<time>2016-10-08T03:36:21Z</time></trkpt>
<trkpt lat="29.821728" lon="93.761484">
<time>2016-10-08T03:36:22Z</time></trkpt>
<trkpt lat="29.821798" lon="93.761373">
<time>2016-10-08T03:36:23Z</time></trkpt>
<trkpt lat="29.821838" lon="93.761303">
<time>2016-10-08T03:36:24Z</time></trkpt>
<trkpt lat="29.821848" lon="93.761283">
<time>2016-10-08T03:36:25Z</time></trkpt>
<trkpt lat="29.821918" lon="93.761163">
<time>2016-10-08T03:36:26Z</time></trkpt>
<trkpt lat="29.821998" lon="93.761033">
<time>2016-10-08T03:36:27Z</time></trkpt>
<trkpt lat="29.822118" lon="93.760863">
<time>2016-10-08T03:36:28Z</time></trkpt>
<trkpt lat="29.822268" lon="93.760643">
<time>2016-10-08T03:36:29Z</time></trkpt>
<trkpt lat="29.822368" lon="93.760493">
<time>2016-10-08T03:36:30Z</time></trkpt>
<trkpt lat="29.822488" lon="93.760333">
<time>2016-10-08T03:36:31Z</time></trkpt>
<trkpt lat="29.822598" lon="93.760182">
<time>2016-10-08T03:36:32Z</time></trkpt>
<trkpt lat="29.822748" lon="93.759982">
<time>2016-10-08T03:36:33Z</time></trkpt>
<trkpt lat="29.822868" lon="93.759822">
<time>2016-10-08T03:36:34Z</time></trkpt>
<trkpt lat="29.822987" lon="93.759652">
<time>2016-10-08T03:36:35Z</time></trkpt>
<trkpt lat="29.823097" lon="93.759512">
<time>2016-10-08T03:36:36Z</time></trkpt>
<trkpt lat="29.823257" lon="93.759292">
<time>2016-10-08T03:36:37Z</time></trkpt>
<trkpt lat="29.823427" lon="93.759052">
<time>2016-10-08T03:36:38Z</time></trkpt>
<trkpt lat="29.823567" lon="93.758861">
<time>2016-10-08T03:36:39Z</time></trkpt>
<trkpt lat="29.823777" lon="93.758571">
<time>2016-10-08T03:36:40Z</time></trkpt>
<trkpt lat="29.823877" lon="93.758431">
<time>2016-10-08T03:36:41Z</time></trkpt>
<trkpt lat="29.824017" lon="93.758251">
<time>2016-10-08T03:36:42Z</time></trkpt>
<trkpt lat="29.824127" lon="93.758091">
<time>2016-10-08T03:36:43Z</time></trkpt>
<trkpt lat="29.824247" lon="93.757931">
<time>2016-10-08T03:36:44Z</time></trkpt>
<trkpt lat="29.824397" lon="93.757731">
<time>2016-10-08T03:36:45Z</time></trkpt>
<trkpt lat="29.824547" lon="93.75753">
<time>2016-10-08T03:36:46Z</time></trkpt>
<trkpt lat="29.824637" lon="93.75741">
<time>2016-10-08T03:36:47Z</time></trkpt>
<trkpt lat="29.824756" lon="93.75725">
<time>2016-10-08T03:36:48Z</time></trkpt>
<trkpt lat="29.824846" lon="93.75712">
<time>2016-10-08T03:36:49Z</time></trkpt>
<trkpt lat="29.824966" lon="93.75697">
<time>2016-10-08T03:36:50Z</time></trkpt>
<trkpt lat="29.825066" lon="93.75682">
<time>2016-10-08T03:36:51Z</time></trkpt>
<trkpt lat="29.825176" lon="93.75667">
<time>2016-10-08T03:36:52Z</time></trkpt>
<trkpt lat="29.825346" lon="93.75644">
<time>2016-10-08T03:36:53Z</time></trkpt>
<trkpt lat="29.825446" lon="93.75631">
<time>2016-10-08T03:36:54Z</time></trkpt>
<trkpt lat="29.825566" lon="93.756139">
<time>2016-10-08T03:36:55Z</time></trkpt>
<trkpt lat="29.825736" lon="93.755899">
<time>2016-10-08T03:36:56Z</time></trkpt>
<trkpt lat="29.825836" lon="93.755769">
<time>2016-10-08T03:36:57Z</time></trkpt>
<trkpt lat="29.825946" lon="93.755629">
<time>2016-10-08T03:36:58Z</time></trkpt>
<trkpt lat="29.826026" lon="93.755519">
<time>2016-10-08T03:36:59Z</time></trkpt>
<trkpt lat="29.826146" lon="93.755369">
<time>2016-10-08T03:37:00Z</time></trkpt>
<trkpt lat="29.826256" lon="93.755229">
<time>2016-10-08T03:37:01Z</time></trkpt>
<trkpt lat="29.826346" lon="93.755149">
<time>2016-10-08T03:37:02Z</time></trkpt>
<trkpt lat="29.826426" lon="93.755069">
<time>2016-10-08T03:37:03Z</time></trkpt>
<trkpt lat="29.826476" lon="93.755019">
<time>2016-10-08T03:37:04Z</time></trkpt>
<trkpt lat="29.826606" lon="93.754909">
<time>2016-10-08T03:37:05Z</time></trkpt>
<trkpt lat="29.826766" lon="93.754769">
<time>2016-10-08T03:37:06Z</time></trkpt>
<trkpt lat="29.826866" lon="93.754679">
<time>2016-10-08T03:37:07Z</time></trkpt>
<trkpt lat="29.827056" lon="93.754528">
<time>2016-10-08T03:37:08Z</time></trkpt>
<trkpt lat="29.827156" lon="93.754448">
<time>2016-10-08T03:37:09Z</time></trkpt>
<trkpt lat="29.827266" lon="93.754388">
<time>2016-10-08T03:37:10Z</time></trkpt>
<trkpt lat="29.827396" lon="93.754308">
<time>2016-10-08T03:37:11Z</time></trkpt>
<trkpt lat="29.827476" lon="93.754268">
<time>2016-10-08T03:37:12Z</time></trkpt>
<trkpt lat="29.827705" lon="93.754168">
<time>2016-10-08T03:37:13Z</time></trkpt>
<trkpt lat="29.827905" lon="93.754078">
<time>2016-10-08T03:37:14Z</time></trkpt>
<trkpt lat="29.828045" lon="93.754018">
<time>2016-10-08T03:37:15Z</time></trkpt>
<trkpt lat="29.828165" lon="93.753968">
<time>2016-10-08T03:37:16Z</time></trkpt>
<trkpt lat="29.828295" lon="93.753898">
<time>2016-10-08T03:37:17Z</time></trkpt>
<trkpt lat="29.828365" lon="93.753868">
<time>2016-10-08T03:37:18Z</time></trkpt>
<trkpt lat="29.828415" lon="93.753838">
<time>2016-10-08T03:37:19Z</time></trkpt>
<trkpt lat="29.828465" lon="93.753798">
<time>2016-10-08T03:37:20Z</time></trkpt>
<trkpt lat="29.828515" lon="93.753768">
<time>2016-10-08T03:37:21Z</time></trkpt>
<trkpt lat="29.828565" lon="93.753718">
<time>2016-10-08T03:37:22Z</time></trkpt>
<trkpt lat="29.828605" lon="93.753688">
<time>2016-10-08T03:37:23Z</time></trkpt>
<trkpt lat="29.828655" lon="93.753638">
<time>2016-10-08T03:37:24Z</time></trkpt>
<trkpt lat="29.828695" lon="93.753588">
<time>2016-10-08T03:37:25Z</time></trkpt>
<trkpt lat="29.828725" lon="93.753548">
<time>2016-10-08T03:37:26Z</time></trkpt>
<trkpt lat="29.828755" lon="93.753508">
<time>2016-10-08T03:37:27Z</time></trkpt>
<trkpt lat="29.828785" lon="93.753458">
<time>2016-10-08T03:37:28Z</time></trkpt>
<trkpt lat="29.828835" lon="93.753388">
<time>2016-10-08T03:37:29Z</time></trkpt>
<trkpt lat="29.828895" lon="93.753288">
<time>2016-10-08T03:37:30Z</time></trkpt>
<trkpt lat="29.828955" lon="93.753178">
<time>2016-10-08T03:37:31Z</time></trkpt>
<trkpt lat="29.829065" lon="93.752988">
<time>2016-10-08T03:37:32Z</time></trkpt>
<trkpt lat="29.829215" lon="93.752707">
<time>2016-10-08T03:37:33Z</time></trkpt>
<trkpt lat="29.829385" lon="93.752387">
<time>2016-10-08T03:37:34Z</time></trkpt>
<trkpt lat="29.829505" lon="93.752167">
<time>2016-10-08T03:37:35Z</time></trkpt>
<trkpt lat="29.829565" lon="93.752047">
<time>2016-10-08T03:37:36Z</time></trkpt>
<trkpt lat="29.829655" lon="93.751877">
<time>2016-10-08T03:37:37Z</time></trkpt>
<trkpt lat="29.829705" lon="93.751787">
<time>2016-10-08T03:37:38Z</time></trkpt>
<trkpt lat="29.829745" lon="93.751717">
<time>2016-10-08T03:37:39Z</time></trkpt>
<trkpt lat="29.829785" lon="93.751627">
<time>2016-10-08T03:37:40Z</time></trkpt>
<trkpt lat="29.829815" lon="93.751547">
<time>2016-10-08T03:37:41Z</time></trkpt>
<trkpt lat="29.829845" lon="93.751477">
<time>2016-10-08T03:37:42Z</time></trkpt>
<trkpt lat="29.829885" lon="93.751377">
<time>2016-10-08T03:37:43Z</time></trkpt>
<trkpt lat="29.829925" lon="93.751267">
<time>2016-10-08T03:37:44Z</time></trkpt>
<trkpt lat="29.829975" lon="93.751077">
<time>2016-10-08T03:37:45Z</time></trkpt>
<trkpt lat="29.830045" lon="93.750857">
<time>2016-10-08T03:37:46Z</time></trkpt>
<trkpt lat="29.830075" lon="93.750767">
<time>2016-10-08T03:37:47Z</time></trkpt>
<trkpt lat="29.830095" lon="93.750697">
<time>2016-10-08T03:37:48Z</time></trkpt>
<trkpt lat="29.830165" lon="93.750446">
<time>2016-10-08T03:37:49Z</time></trkpt>
<trkpt lat="29.830205" lon="93.750296">
<time>2016-10-08T03:37:50Z</time></trkpt>
<trkpt lat="29.830245" lon="93.750186">
<time>2016-10-08T03:37:51Z</time></trkpt>
<trkpt lat="29.830275" lon="93.750096">
<time>2016-10-08T03:37:52Z</time></trkpt>
<trkpt lat="29.830295" lon="93.750026">
<time>2016-10-08T03:37:53Z</time></trkpt>
<trkpt lat="29.830355" lon="93.749816">
<time>2016-10-08T03:37:54Z</time></trkpt>
<trkpt lat="29.830405" lon="93.749666">
<time>2016-10-08T03:37:55Z</time></trkpt>
<trkpt lat="29.830465" lon="93.749476">
<time>2016-10-08T03:37:56Z</time></trkpt>
<trkpt lat="29.830525" lon="93.749256">
<time>2016-10-08T03:37:57Z</time></trkpt>
<trkpt lat="29.830575" lon="93.749076">
<time>2016-10-08T03:37:58Z</time></trkpt>
<trkpt lat="29.830635" lon="93.748906">
<time>2016-10-08T03:37:59Z</time></trkpt>
<trkpt lat="29.830695" lon="93.748756">
<time>2016-10-08T03:38:00Z</time></trkpt>
<trkpt lat="29.830745" lon="93.748636">
<time>2016-10-08T03:38:01Z</time></trkpt>
<trkpt lat="29.830775" lon="93.748546">
<time>2016-10-08T03:38:02Z</time></trkpt>
<trkpt lat="29.830825" lon="93.748456">
<time>2016-10-08T03:38:03Z</time></trkpt>
<trkpt lat="29.830855" lon="93.748386">
<time>2016-10-08T03:38:04Z</time></trkpt>
<trkpt lat="29.830885" lon="93.748336">
<time>2016-10-08T03:38:05Z</time></trkpt>
<trkpt lat="29.830915" lon="93.748266">
<time>2016-10-08T03:38:06Z</time></trkpt>
<trkpt lat="29.831015" lon="93.748076">
<time>2016-10-08T03:38:07Z</time></trkpt>
<trkpt lat="29.831075" lon="93.747976">
<time>2016-10-08T03:38:08Z</time></trkpt>
<trkpt lat="29.831115" lon="93.747886">
<time>2016-10-08T03:38:09Z</time></trkpt>
<trkpt lat="29.831185" lon="93.747756">
<time>2016-10-08T03:38:10Z</time></trkpt>
<trkpt lat="29.831275" lon="93.747606">
<time>2016-10-08T03:38:11Z</time></trkpt>
<trkpt lat="29.831325" lon="93.747506">
<time>2016-10-08T03:38:12Z</time></trkpt>
<trkpt lat="29.831355" lon="93.747466">
<time>2016-10-08T03:38:13Z</time></trkpt>
<trkpt lat="29.831375" lon="93.747426">
<time>2016-10-08T03:38:14Z</time></trkpt>
<trkpt lat="29.831405" lon="93.747395">
<time>2016-10-08T03:38:15Z</time></trkpt>
<trkpt lat="29.831435" lon="93.747345">
<time>2016-10-08T03:38:16Z</time></trkpt>
<trkpt lat="29.831505" lon="93.747265">
<time>2016-10-08T03:38:17Z</time></trkpt>
<trkpt lat="29.831565" lon="93.747195">
<time>2016-10-08T03:38:18Z</time></trkpt>
<trkpt lat="29.831625" lon="93.747145">
<time>2016-10-08T03:38:19Z</time></trkpt>
<trkpt lat="29.831705" lon="93.747065">
<time>2016-10-08T03:38:20Z</time></trkpt>
<trkpt lat="29.831865" lon="93.746905">
<time>2016-10-08T03:38:21Z</time></trkpt>
<trkpt lat="29.832045" lon="93.746725">
<time>2016-10-08T03:38:22Z</time></trkpt>
<trkpt lat="29.832165" lon="93.746605">
<time>2016-10-08T03:38:23Z</time></trkpt>
<trkpt lat="29.832265" lon="93.746505">
<time>2016-10-08T03:38:24Z</time></trkpt>
<trkpt lat="29.832315" lon="93.746445">
<time>2016-10-08T03:38:25Z</time></trkpt>
<trkpt lat="29.832455" lon="93.746295">
<time>2016-10-08T03:38:26Z</time></trkpt>
<trkpt lat="29.832625" lon="93.746095">
<time>2016-10-08T03:38:27Z</time></trkpt>
<trkpt lat="29.832695" lon="93.746005">
<time>2016-10-08T03:38:28Z</time></trkpt>
<trkpt lat="29.832775" lon="93.745915">
<time>2016-10-08T03:38:29Z</time></trkpt>
<trkpt lat="29.832815" lon="93.745865">
<time>2016-10-08T03:38:30Z</time></trkpt>
<trkpt lat="29.832855" lon="93.745805">
<time>2016-10-08T03:38:31Z</time></trkpt>
<trkpt lat="29.832935" lon="93.745695">
<time>2016-10-08T03:38:32Z</time></trkpt>
<trkpt lat="29.832995" lon="93.745605">
<time>2016-10-08T03:38:33Z</time></trkpt>
<trkpt lat="29.833025" lon="93.745545">
<time>2016-10-08T03:38:34Z</time></trkpt>
<trkpt lat="29.833075" lon="93.745455">
<time>2016-10-08T03:38:35Z</time></trkpt>
<trkpt lat="29.833165" lon="93.745265">
<time>2016-10-08T03:38:36Z</time></trkpt>
<trkpt lat="29.833205" lon="93.745185">
<time>2016-10-08T03:38:37Z</time></trkpt>
<trkpt lat="29.833305" lon="93.745015">
<time>2016-10-08T03:38:38Z</time></trkpt>
<trkpt lat="29.833345" lon="93.744945">
<time>2016-10-08T03:38:39Z</time></trkpt>
<trkpt lat="29.833355" lon="93.744925">
<time>2016-10-08T03:38:40Z</time></trkpt>
<trkpt lat="29.833405" lon="93.744855">
<time>2016-10-08T03:38:41Z</time></trkpt>
<trkpt lat="29.833535" lon="93.744625">
<time>2016-10-08T03:38:42Z</time></trkpt>
<trkpt lat="29.833735" lon="93.744315">
<time>2016-10-08T03:38:43Z</time></trkpt>
<trkpt lat="29.833955" lon="93.743965">
<time>2016-10-08T03:38:44Z</time></trkpt>
<trkpt lat="29.834195" lon="93.743565">
<time>2016-10-08T03:38:45Z</time></trkpt>
<trkpt lat="29.834245" lon="93.743465">
<time>2016-10-08T03:38:46Z</time></trkpt>
<trkpt lat="29.834285" lon="93.743395">
<time>2016-10-08T03:38:47Z</time></trkpt>
<trkpt lat="29.834345" lon="93.743235">
<time>2016-10-08T03:38:48Z</time></trkpt>
<trkpt lat="29.834405" lon="93.743105">
<time>2016-10-08T03:38:49Z</time></trkpt>
<trkpt lat="29.834455" lon="93.742945">
<time>2016-10-08T03:38:50Z</time></trkpt>
<trkpt lat="29.834615" lon="93.742415">
<time>2016-10-08T03:38:51Z</time></trkpt>
<trkpt lat="29.834766" lon="93.741905">
<time>2016-10-08T03:38:52Z</time></trkpt>
<trkpt lat="29.834856" lon="93.741545">
<time>2016-10-08T03:38:53Z</time></trkpt>
<trkpt lat="29.834896" lon="93.741285">
<time>2016-10-08T03:38:54Z</time></trkpt>
<trkpt lat="29.834926" lon="93.741125">
<time>2016-10-08T03:38:55Z</time></trkpt>
<trkpt lat="29.834956" lon="93.740895">
<time>2016-10-08T03:38:56Z</time></trkpt>
<trkpt lat="29.834976" lon="93.740655">
<time>2016-10-08T03:38:57Z</time></trkpt>
<trkpt lat="29.835016" lon="93.740245">
<time>2016-10-08T03:38:58Z</time></trkpt>
<trkpt lat="29.835036" lon="93.740015">
<time>2016-10-08T03:38:59Z</time></trkpt>
<trkpt lat="29.835066" lon="93.739855">
<time>2016-10-08T03:39:00Z</time></trkpt>
<trkpt lat="29.835096" lon="93.739695">
<time>2016-10-08T03:39:01Z</time></trkpt>
<trkpt lat="29.835186" lon="93.739285">
<time>2016-10-08T03:39:02Z</time></trkpt>
<trkpt lat="29.835307" lon="93.738775">
<time>2016-10-08T03:39:03Z</time></trkpt>
<trkpt lat="29.835437" lon="93.738195">
<time>2016-10-08T03:39:04Z</time></trkpt>
<trkpt lat="29.835507" lon="93.737785">
<time>2016-10-08T03:39:05Z</time></trkpt>
<trkpt lat="29.835527" lon="93.737585">
<time>2016-10-08T03:39:06Z</time></trkpt>
<trkpt lat="29.835738" lon="93.736385">
<time>2016-10-08T03:39:07Z</time></trkpt>
<trkpt lat="29.835758" lon="93.736215">
<time>2016-10-08T03:39:08Z</time></trkpt>
<trkpt lat="29.835768" lon="93.735926">
<time>2016-10-08T03:39:09Z</time></trkpt>
<trkpt lat="29.835758" lon="93.735666">
<time>2016-10-08T03:39:10Z</time></trkpt>
<trkpt lat="29.835728" lon="93.735306">
<time>2016-10-08T03:39:11Z</time></trkpt>
<trkpt lat="29.835688" lon="93.734986">
<time>2016-10-08T03:39:12Z</time></trkpt>
<trkpt lat="29.835648" lon="93.734676">
<time>2016-10-08T03:39:13Z</time></trkpt>
<trkpt lat="29.835609" lon="93.734426">
<time>2016-10-08T03:39:14Z</time></trkpt>
<trkpt lat="29.835589" lon="93.734216">
<time>2016-10-08T03:39:15Z</time></trkpt>
<trkpt lat="29.835579" lon="93.733946">
<time>2016-10-08T03:39:16Z</time></trkpt>
<trkpt lat="29.835589" lon="93.733726">
<time>2016-10-08T03:39:17Z</time></trkpt>
<trkpt lat="29.835669" lon="93.733306">
<time>2016-10-08T03:39:18Z</time></trkpt>
<trkpt lat="29.83584" lon="93.732647">
<time>2016-10-08T03:39:19Z</time></trkpt>
<trkpt lat="29.83589" lon="93.732447">
<time>2016-10-08T03:39:20Z</time></trkpt>
<trkpt lat="29.83593" lon="93.732287">
<time>2016-10-08T03:39:21Z</time></trkpt>
<trkpt lat="29.83596" lon="93.732177">
<time>2016-10-08T03:39:22Z</time></trkpt>
<trkpt lat="29.836" lon="93.732047">
<time>2016-10-08T03:39:23Z</time></trkpt>
<trkpt lat="29.83603" lon="93.731977">
<time>2016-10-08T03:39:24Z</time></trkpt>
<trkpt lat="29.83607" lon="93.731897">
<time>2016-10-08T03:39:25Z</time></trkpt>
<trkpt lat="29.83617" lon="93.731717">
<time>2016-10-08T03:39:26Z</time></trkpt>
<trkpt lat="29.8364" lon="93.731307">
<time>2016-10-08T03:39:27Z</time></trkpt>
<trkpt lat="29.836691" lon="93.730707">
<time>2016-10-08T03:39:28Z</time></trkpt>
<trkpt lat="29.836781" lon="93.730498">
<time>2016-10-08T03:39:29Z</time></trkpt>
<trkpt lat="29.836841" lon="93.730338">
<time>2016-10-08T03:39:30Z</time></trkpt>
<trkpt lat="29.836881" lon="93.730218">
<time>2016-10-08T03:39:31Z</time></trkpt>
<trkpt lat="29.836931" lon="93.730048">
<time>2016-10-08T03:39:32Z</time></trkpt>
<trkpt lat="29.837001" lon="93.729738">
<time>2016-10-08T03:39:33Z</time></trkpt>
<trkpt lat="29.837102" lon="93.729258">
<time>2016-10-08T03:39:34Z</time></trkpt>
<trkpt lat="29.837182" lon="93.728838">
<time>2016-10-08T03:39:35Z</time></trkpt>
<trkpt lat="29.837323" lon="93.728169">
<time>2016-10-08T03:39:36Z</time></trkpt>
<trkpt lat="29.837453" lon="93.727569">
<time>2016-10-08T03:39:37Z</time></trkpt>
<trkpt lat="29.837503" lon="93.727389">
<time>2016-10-08T03:39:38Z</time></trkpt>
<trkpt lat="29.837543" lon="93.727229">
<time>2016-10-08T03:39:39Z</time></trkpt>
<trkpt lat="29.837654" lon="93.72694">
<time>2016-10-08T03:39:40Z</time></trkpt>
<trkpt lat="29.837724" lon="93.72675">
<time>2016-10-08T03:39:41Z</time></trkpt>
<trkpt lat="29.837814" lon="93.72645">
<time>2016-10-08T03:39:42Z</time></trkpt>
<trkpt lat="29.837934" lon="93.72612">
<time>2016-10-08T03:39:43Z</time></trkpt>
<trkpt lat="29.838034" lon="93.72584">
<time>2016-10-08T03:39:44Z</time></trkpt>
<trkpt lat="29.838355" lon="93.725061">
<time>2016-10-08T03:39:45Z</time></trkpt>
<trkpt lat="29.838676" lon="93.724291">
<time>2016-10-08T03:39:46Z</time></trkpt>
<trkpt lat="29.838986" lon="93.723572">
<time>2016-10-08T03:39:47Z</time></trkpt>
<trkpt lat="29.839307" lon="93.722863">
<time>2016-10-08T03:39:48Z</time></trkpt>
<trkpt lat="29.839497" lon="93.722423">
<time>2016-10-08T03:39:49Z</time></trkpt>
<trkpt lat="29.839558" lon="93.722273">
<time>2016-10-08T03:39:50Z</time></trkpt>
<trkpt lat="29.839598" lon="93.722143">
<time>2016-10-08T03:39:51Z</time></trkpt>
<trkpt lat="29.839618" lon="93.722063">
<time>2016-10-08T03:39:52Z</time></trkpt>
<trkpt lat="29.839648" lon="93.721923">
<time>2016-10-08T03:39:53Z</time></trkpt>
<trkpt lat="29.839678" lon="93.721763">
<time>2016-10-08T03:39:54Z</time></trkpt>
<trkpt lat="29.839688" lon="93.721554">
<time>2016-10-08T03:39:55Z</time></trkpt>
<trkpt lat="29.839698" lon="93.721434">
<time>2016-10-08T03:39:56Z</time></trkpt>
<trkpt lat="29.839709" lon="93.721244">
<time>2016-10-08T03:39:57Z</time></trkpt>
<trkpt lat="29.839709" lon="93.721014">
<time>2016-10-08T03:39:58Z</time></trkpt>
<trkpt lat="29.839689" lon="93.720634">
<time>2016-10-08T03:39:59Z</time></trkpt>
<trkpt lat="29.83963" lon="93.720045">
<time>2016-10-08T03:40:00Z</time></trkpt>
<trkpt lat="29.83958" lon="93.719455">
<time>2016-10-08T03:40:01Z</time></trkpt>
<trkpt lat="29.839531" lon="93.718776">
<time>2016-10-08T03:40:02Z</time></trkpt>
<trkpt lat="29.839472" lon="93.717867">
<time>2016-10-08T03:40:03Z</time></trkpt>
<trkpt lat="29.839403" lon="93.716948">
<time>2016-10-08T03:40:04Z</time></trkpt>
<trkpt lat="29.839334" lon="93.715969">
<time>2016-10-08T03:40:05Z</time></trkpt>
<trkpt lat="29.839295" lon="93.7154">
<time>2016-10-08T03:40:06Z</time></trkpt>
<trkpt lat="29.839256" lon="93.71485">
<time>2016-10-08T03:40:07Z</time></trkpt>
<trkpt lat="29.839236" lon="93.71464">
<time>2016-10-08T03:40:08Z</time></trkpt>
<trkpt lat="29.839197" lon="93.714051">
<time>2016-10-08T03:40:09Z</time></trkpt>
<trkpt lat="29.839187" lon="93.713811">
<time>2016-10-08T03:40:10Z</time></trkpt>
<trkpt lat="29.839138" lon="93.713242">
<time>2016-10-08T03:40:11Z</time></trkpt>
<trkpt lat="29.839128" lon="93.713002">
<time>2016-10-08T03:40:12Z</time></trkpt>
<trkpt lat="29.839089" lon="93.712463">
<time>2016-10-08T03:40:13Z</time></trkpt>
<trkpt lat="29.839069" lon="93.712103">
<time>2016-10-08T03:40:14Z</time></trkpt>
<trkpt lat="29.83903" lon="93.711664">
<time>2016-10-08T03:40:15Z</time></trkpt>
<trkpt lat="29.83901" lon="93.711344">
<time>2016-10-08T03:40:16Z</time></trkpt>
<trkpt lat="29.838991" lon="93.710875">
<time>2016-10-08T03:40:17Z</time></trkpt>
<trkpt lat="29.838981" lon="93.710605">
<time>2016-10-08T03:40:18Z</time></trkpt>
<trkpt lat="29.838982" lon="93.710206">
<time>2016-10-08T03:40:19Z</time></trkpt>
<trkpt lat="29.838982" lon="93.709926">
<time>2016-10-08T03:40:20Z</time></trkpt>
<trkpt lat="29.839003" lon="93.709557">
<time>2016-10-08T03:40:21Z</time></trkpt>
<trkpt lat="29.839013" lon="93.709177">
<time>2016-10-08T03:40:22Z</time></trkpt>
<trkpt lat="29.839044" lon="93.708638">
<time>2016-10-08T03:40:23Z</time></trkpt>
<trkpt lat="29.839075" lon="93.707979">
<time>2016-10-08T03:40:24Z</time></trkpt>
<trkpt lat="29.839106" lon="93.70714">
<time>2016-10-08T03:40:25Z</time></trkpt>
<trkpt lat="29.839116" lon="93.70674">
<time>2016-10-08T03:40:26Z</time></trkpt>
<trkpt lat="29.839147" lon="93.706191">
<time>2016-10-08T03:40:27Z</time></trkpt>
<trkpt lat="29.839148" lon="93.706021">
<time>2016-10-08T03:40:28Z</time></trkpt>
<trkpt lat="29.839158" lon="93.705642">
<time>2016-10-08T03:40:29Z</time></trkpt>
<trkpt lat="29.839148" lon="93.705362">
<time>2016-10-08T03:40:30Z</time></trkpt>
<trkpt lat="29.839139" lon="93.704713">
<time>2016-10-08T03:40:31Z</time></trkpt>
<trkpt lat="29.83912" lon="93.704274">
<time>2016-10-08T03:40:32Z</time></trkpt>
<trkpt lat="29.839101" lon="93.703705">
<time>2016-10-08T03:40:33Z</time></trkpt>
<trkpt lat="29.839091" lon="93.703415">
<time>2016-10-08T03:40:34Z</time></trkpt>
<trkpt lat="29.839052" lon="93.702946">
<time>2016-10-08T03:40:35Z</time></trkpt>
<trkpt lat="29.839023" lon="93.702556">
<time>2016-10-08T03:40:36Z</time></trkpt>
<trkpt lat="29.839023" lon="93.702247">
<time>2016-10-08T03:40:37Z</time></trkpt>
<trkpt lat="29.839014" lon="93.701817">
<time>2016-10-08T03:40:38Z</time></trkpt>
<trkpt lat="29.839024" lon="93.701688">
<time>2016-10-08T03:40:39Z</time></trkpt>
<trkpt lat="29.839044" lon="93.701518">
<time>2016-10-08T03:40:40Z</time></trkpt>
<trkpt lat="29.839065" lon="93.701388">
<time>2016-10-08T03:40:41Z</time></trkpt>
<trkpt lat="29.839085" lon="93.701298">
<time>2016-10-08T03:40:42Z</time></trkpt>
<trkpt lat="29.839115" lon="93.701198">
<time>2016-10-08T03:40:43Z</time></trkpt>
<trkpt lat="29.839145" lon="93.701089">
<time>2016-10-08T03:40:44Z</time></trkpt>
<trkpt lat="29.839185" lon="93.700979">
<time>2016-10-08T03:40:45Z</time></trkpt>
<trkpt lat="29.839275" lon="93.700769">
<time>2016-10-08T03:40:46Z</time></trkpt>
<trkpt lat="29.839366" lon="93.700559">
<time>2016-10-08T03:40:47Z</time></trkpt>
<trkpt lat="29.839426" lon="93.70041">
<time>2016-10-08T03:40:48Z</time></trkpt>
<trkpt lat="29.839486" lon="93.7003">
<time>2016-10-08T03:40:49Z</time></trkpt>
<trkpt lat="29.839556" lon="93.70018">
<time>2016-10-08T03:40:50Z</time></trkpt>
<trkpt lat="29.839627" lon="93.70005">
<time>2016-10-08T03:40:51Z</time></trkpt>
<trkpt lat="29.839787" lon="93.69982">
<time>2016-10-08T03:40:52Z</time></trkpt>
<trkpt lat="29.840438" lon="93.698902">
<time>2016-10-08T03:40:53Z</time></trkpt>
<trkpt lat="29.84114" lon="93.697904">
<time>2016-10-08T03:40:54Z</time></trkpt>
<trkpt lat="29.841491" lon="93.697414">
<time>2016-10-08T03:40:55Z</time></trkpt>
<trkpt lat="29.841591" lon="93.697265">
<time>2016-10-08T03:40:56Z</time></trkpt>
<trkpt lat="29.841701" lon="93.697105">
<time>2016-10-08T03:40:57Z</time></trkpt>
<trkpt lat="29.841812" lon="93.696925">
<time>2016-10-08T03:40:58Z</time></trkpt>
<trkpt lat="29.841882" lon="93.696785">
<time>2016-10-08T03:40:59Z</time></trkpt>
<trkpt lat="29.842022" lon="93.696506">
<time>2016-10-08T03:41:00Z</time></trkpt>
<trkpt lat="29.842143" lon="93.696236">
<time>2016-10-08T03:41:01Z</time></trkpt>
<trkpt lat="29.842233" lon="93.696057">
<time>2016-10-08T03:41:02Z</time></trkpt>
<trkpt lat="29.842333" lon="93.695877">
<time>2016-10-08T03:41:03Z</time></trkpt>
<trkpt lat="29.842403" lon="93.695767">
<time>2016-10-08T03:41:04Z</time></trkpt>
<trkpt lat="29.842464" lon="93.695687">
<time>2016-10-08T03:41:05Z</time></trkpt>
<trkpt lat="29.842624" lon="93.695457">
<time>2016-10-08T03:41:06Z</time></trkpt>
<trkpt lat="29.842905" lon="93.695068">
<time>2016-10-08T03:41:07Z</time></trkpt>
<trkpt lat="29.843055" lon="93.694809">
<time>2016-10-08T03:41:08Z</time></trkpt>
<trkpt lat="29.843145" lon="93.694659">
<time>2016-10-08T03:41:09Z</time></trkpt>
<trkpt lat="29.843195" lon="93.694549">
<time>2016-10-08T03:41:10Z</time></trkpt>
<trkpt lat="29.843256" lon="93.694459">
<time>2016-10-08T03:41:11Z</time></trkpt>
<trkpt lat="29.843376" lon="93.694289">
<time>2016-10-08T03:41:12Z</time></trkpt>
<trkpt lat="29.843456" lon="93.69419">
<time>2016-10-08T03:41:13Z</time></trkpt>
<trkpt lat="29.843516" lon="93.69412">
<time>2016-10-08T03:41:14Z</time></trkpt>
<trkpt lat="29.843636" lon="93.69403">
<time>2016-10-08T03:41:15Z</time></trkpt>
<trkpt lat="29.843706" lon="93.69399">
<time>2016-10-08T03:41:16Z</time></trkpt>
<trkpt lat="29.843776" lon="93.69396">
<time>2016-10-08T03:41:17Z</time></trkpt>
<trkpt lat="29.843876" lon="93.69392">
<time>2016-10-08T03:41:18Z</time></trkpt>
<trkpt lat="29.843956" lon="93.69391">
<time>2016-10-08T03:41:19Z</time></trkpt>
<trkpt lat="29.844077" lon="93.69389">
<time>2016-10-08T03:41:20Z</time></trkpt>
<trkpt lat="29.844246" lon="93.69389">
<time>2016-10-08T03:41:21Z</time></trkpt>
<trkpt lat="29.844356" lon="93.6939">
<time>2016-10-08T03:41:22Z</time></trkpt>
<trkpt lat="29.844456" lon="93.69389">
<time>2016-10-08T03:41:23Z</time></trkpt>
<trkpt lat="29.844526" lon="93.69388">
<time>2016-10-08T03:41:24Z</time></trkpt>
<trkpt lat="29.844587" lon="93.69387">
<time>2016-10-08T03:41:25Z</time></trkpt>
<trkpt lat="29.844627" lon="93.69386">
<time>2016-10-08T03:41:26Z</time></trkpt>
<trkpt lat="29.844687" lon="93.69384">
<time>2016-10-08T03:41:27Z</time></trkpt>
<trkpt lat="29.844757" lon="93.69382">
<time>2016-10-08T03:41:28Z</time></trkpt>
<trkpt lat="29.844867" lon="93.69377">
<time>2016-10-08T03:41:29Z</time></trkpt>
<trkpt lat="29.845017" lon="93.69368">
<time>2016-10-08T03:41:30Z</time></trkpt>
<trkpt lat="29.845197" lon="93.693591">
<time>2016-10-08T03:41:31Z</time></trkpt>
<trkpt lat="29.845567" lon="93.693401">
<time>2016-10-08T03:41:32Z</time></trkpt>
<trkpt lat="29.845807" lon="93.693271">
<time>2016-10-08T03:41:33Z</time></trkpt>
<trkpt lat="29.846108" lon="93.693121">
<time>2016-10-08T03:41:34Z</time></trkpt>
<trkpt lat="29.846338" lon="93.693042">
<time>2016-10-08T03:41:35Z</time></trkpt>
<trkpt lat="29.846618" lon="93.692972">
<time>2016-10-08T03:41:36Z</time></trkpt>
<trkpt lat="29.846928" lon="93.692892">
<time>2016-10-08T03:41:37Z</time></trkpt>
<trkpt lat="29.847108" lon="93.692812">
<time>2016-10-08T03:41:38Z</time></trkpt>
<trkpt lat="29.847258" lon="93.692722">
<time>2016-10-08T03:41:39Z</time></trkpt>
<trkpt lat="29.847379" lon="93.692612">
<time>2016-10-08T03:41:40Z</time></trkpt>
<trkpt lat="29.847479" lon="93.692482">
<time>2016-10-08T03:41:41Z</time></trkpt>
<trkpt lat="29.847569" lon="93.692353">
<time>2016-10-08T03:41:42Z</time></trkpt>
<trkpt lat="29.847639" lon="93.692223">
<time>2016-10-08T03:41:43Z</time></trkpt>
<trkpt lat="29.84774" lon="93.691993">
<time>2016-10-08T03:41:44Z</time></trkpt>
<trkpt lat="29.84784" lon="93.691684">
<time>2016-10-08T03:41:45Z</time></trkpt>
<trkpt lat="29.847971" lon="93.691295">
<time>2016-10-08T03:41:46Z</time></trkpt>
<trkpt lat="29.848544" lon="93.689558">
<time>2016-10-08T03:41:47Z</time></trkpt>
<trkpt lat="29.849227" lon="93.687501">
<time>2016-10-08T03:41:48Z</time></trkpt>
<trkpt lat="29.849579" lon="93.686443">
<time>2016-10-08T03:41:49Z</time></trkpt>
<trkpt lat="29.849801" lon="93.685774">
<time>2016-10-08T03:41:50Z</time></trkpt>
<trkpt lat="29.849811" lon="93.685745">
<time>2016-10-08T03:41:51Z</time></trkpt>
<trkpt lat="29.849911" lon="93.685455">
<time>2016-10-08T03:41:52Z</time></trkpt>
<trkpt lat="29.850132" lon="93.684746">
<time>2016-10-08T03:41:53Z</time></trkpt>
<trkpt lat="29.850293" lon="93.684277">
<time>2016-10-08T03:41:54Z</time></trkpt>
<trkpt lat="29.850575" lon="93.683439">
<time>2016-10-08T03:41:55Z</time></trkpt>
<trkpt lat="29.850635" lon="93.683239">
<time>2016-10-08T03:41:56Z</time></trkpt>
<trkpt lat="29.850786" lon="93.68278">
<time>2016-10-08T03:41:57Z</time></trkpt>
<trkpt lat="29.850927" lon="93.682361">
<time>2016-10-08T03:41:58Z</time></trkpt>
<trkpt lat="29.851048" lon="93.681992">
<time>2016-10-08T03:41:59Z</time></trkpt>
<trkpt lat="29.851158" lon="93.681652">
<time>2016-10-08T03:42:00Z</time></trkpt>
<trkpt lat="29.851279" lon="93.681293">
<time>2016-10-08T03:42:01Z</time></trkpt>
<trkpt lat="29.851409" lon="93.680924">
<time>2016-10-08T03:42:02Z</time></trkpt>
<trkpt lat="29.85156" lon="93.680455">
<time>2016-10-08T03:42:03Z</time></trkpt>
<trkpt lat="29.851711" lon="93.680035">
<time>2016-10-08T03:42:04Z</time></trkpt>
<trkpt lat="29.851842" lon="93.679596">
<time>2016-10-08T03:42:05Z</time></trkpt>
<trkpt lat="29.852053" lon="93.678957">
<time>2016-10-08T03:42:06Z</time></trkpt>
<trkpt lat="29.852224" lon="93.678468">
<time>2016-10-08T03:42:07Z</time></trkpt>
<trkpt lat="29.852415" lon="93.677869">
<time>2016-10-08T03:42:08Z</time></trkpt>
<trkpt lat="29.852566" lon="93.67741">
<time>2016-10-08T03:42:09Z</time></trkpt>
<trkpt lat="29.852677" lon="93.677111">
<time>2016-10-08T03:42:10Z</time></trkpt>
<trkpt lat="29.852747" lon="93.676931">
<time>2016-10-08T03:42:11Z</time></trkpt>
<trkpt lat="29.852807" lon="93.676782">
<time>2016-10-08T03:42:12Z</time></trkpt>
<trkpt lat="29.852888" lon="93.676612">
<time>2016-10-08T03:42:13Z</time></trkpt>
<trkpt lat="29.852958" lon="93.676482">
<time>2016-10-08T03:42:14Z</time></trkpt>
<trkpt lat="29.853048" lon="93.676323">
<time>2016-10-08T03:42:15Z</time></trkpt>
<trkpt lat="29.853279" lon="93.675953">
<time>2016-10-08T03:42:16Z</time></trkpt>
<trkpt lat="29.853409" lon="93.675724">
<time>2016-10-08T03:42:17Z</time></trkpt>
<trkpt lat="29.85365" lon="93.675324">
<time>2016-10-08T03:42:18Z</time></trkpt>
<trkpt lat="29.85379" lon="93.675105">
<time>2016-10-08T03:42:19Z</time></trkpt>
<trkpt lat="29.854121" lon="93.674576">
<time>2016-10-08T03:42:20Z</time></trkpt>
<trkpt lat="29.854513" lon="93.673937">
<time>2016-10-08T03:42:21Z</time></trkpt>
<trkpt lat="29.855004" lon="93.673169">
<time>2016-10-08T03:42:22Z</time></trkpt>
<trkpt lat="29.855285" lon="93.6727">
<time>2016-10-08T03:42:23Z</time></trkpt>
<trkpt lat="29.855435" lon="93.67246">
<time>2016-10-08T03:42:24Z</time></trkpt>
<trkpt lat="29.855536" lon="93.67226">
<time>2016-10-08T03:42:25Z</time></trkpt>
<trkpt lat="29.855606" lon="93.672131">
<time>2016-10-08T03:42:26Z</time></trkpt>
<trkpt lat="29.855747" lon="93.671811">
<time>2016-10-08T03:42:27Z</time></trkpt>
<trkpt lat="29.855817" lon="93.671642">
<time>2016-10-08T03:42:28Z</time></trkpt>
<trkpt lat="29.855867" lon="93.671492">
<time>2016-10-08T03:42:29Z</time></trkpt>
<trkpt lat="29.855928" lon="93.671312">
<time>2016-10-08T03:42:30Z</time></trkpt>
<trkpt lat="29.855968" lon="93.671173">
<time>2016-10-08T03:42:31Z</time></trkpt>
<trkpt lat="29.856018" lon="93.671003">
<time>2016-10-08T03:42:32Z</time></trkpt>
<trkpt lat="29.856069" lon="93.670803">
<time>2016-10-08T03:42:33Z</time></trkpt>
<trkpt lat="29.856099" lon="93.670664">
<time>2016-10-08T03:42:34Z</time></trkpt>
<trkpt lat="29.856149" lon="93.670394">
<time>2016-10-08T03:42:35Z</time></trkpt>
<trkpt lat="29.85624" lon="93.669925">
<time>2016-10-08T03:42:36Z</time></trkpt>
<trkpt lat="29.856402" lon="93.669087">
<time>2016-10-08T03:42:37Z</time></trkpt>
<trkpt lat="29.856503" lon="93.668518">
<time>2016-10-08T03:42:38Z</time></trkpt>
<trkpt lat="29.856553" lon="93.668298">
<time>2016-10-08T03:42:39Z</time></trkpt>
<trkpt lat="29.856604" lon="93.668079">
<time>2016-10-08T03:42:40Z</time></trkpt>
<trkpt lat="29.856644" lon="93.667919">
<time>2016-10-08T03:42:41Z</time></trkpt>
<trkpt lat="29.856724" lon="93.667679">
<time>2016-10-08T03:42:42Z</time></trkpt>
<trkpt lat="29.856835" lon="93.66738">
<time>2016-10-08T03:42:43Z</time></trkpt>
<trkpt lat="29.857177" lon="93.666612">
<time>2016-10-08T03:42:44Z</time></trkpt>
<trkpt lat="29.857538" lon="93.665823">
<time>2016-10-08T03:42:45Z</time></trkpt>
<trkpt lat="29.85796" lon="93.664865">
<time>2016-10-08T03:42:46Z</time></trkpt>
<trkpt lat="29.858241" lon="93.664246">
<time>2016-10-08T03:42:47Z</time></trkpt>
<trkpt lat="29.858382" lon="93.663887">
<time>2016-10-08T03:42:48Z</time></trkpt>
<trkpt lat="29.858412" lon="93.663797">
<time>2016-10-08T03:42:49Z</time></trkpt>
<trkpt lat="29.858432" lon="93.663707">
<time>2016-10-08T03:42:50Z</time></trkpt>
<trkpt lat="29.858452" lon="93.663597">
<time>2016-10-08T03:42:51Z</time></trkpt>
<trkpt lat="29.858462" lon="93.663498">
<time>2016-10-08T03:42:52Z</time></trkpt>
<trkpt lat="29.858473" lon="93.663318">
<time>2016-10-08T03:42:53Z</time></trkpt>
<trkpt lat="29.858463" lon="93.663128">
<time>2016-10-08T03:42:54Z</time></trkpt>
<trkpt lat="29.858434" lon="93.66244">
<time>2016-10-08T03:42:55Z</time></trkpt>
<trkpt lat="29.858455" lon="93.66211">
<time>2016-10-08T03:42:56Z</time></trkpt>
<trkpt lat="29.858465" lon="93.661991">
<time>2016-10-08T03:42:57Z</time></trkpt>
<trkpt lat="29.858496" lon="93.661811">
<time>2016-10-08T03:42:58Z</time></trkpt>
<trkpt lat="29.858556" lon="93.661512">
<time>2016-10-08T03:42:59Z</time></trkpt>
<trkpt lat="29.858586" lon="93.661392">
<time>2016-10-08T03:43:00Z</time></trkpt>
<trkpt lat="29.858606" lon="93.661352">
<time>2016-10-08T03:43:01Z</time></trkpt>
<trkpt lat="29.858667" lon="93.661132">
<time>2016-10-08T03:43:02Z</time></trkpt>
<trkpt lat="29.858808" lon="93.660723">
<time>2016-10-08T03:43:03Z</time></trkpt>
<trkpt lat="29.858898" lon="93.660444">
<time>2016-10-08T03:43:04Z</time></trkpt>
<trkpt lat="29.858979" lon="93.660174">
<time>2016-10-08T03:43:05Z</time></trkpt>
<trkpt lat="29.859069" lon="93.659885">
<time>2016-10-08T03:43:06Z</time></trkpt>
<trkpt lat="29.85916" lon="93.659585">
<time>2016-10-08T03:43:07Z</time></trkpt>
<trkpt lat="29.85925" lon="93.659266">
<time>2016-10-08T03:43:08Z</time></trkpt>
<trkpt lat="29.859311" lon="93.658996">
<time>2016-10-08T03:43:09Z</time></trkpt>
<trkpt lat="29.859361" lon="93.658707">
<time>2016-10-08T03:43:10Z</time></trkpt>
<trkpt lat="29.859392" lon="93.658507">
<time>2016-10-08T03:43:11Z</time></trkpt>
<trkpt lat="29.859453" lon="93.657968">
<time>2016-10-08T03:43:12Z</time></trkpt>
<trkpt lat="29.859524" lon="93.65739">
<time>2016-10-08T03:43:13Z</time></trkpt>
<trkpt lat="29.859575" lon="93.65691">
<time>2016-10-08T03:43:14Z</time></trkpt>
<trkpt lat="29.859656" lon="93.656152">
<time>2016-10-08T03:43:15Z</time></trkpt>
<trkpt lat="29.859727" lon="93.655593">
<time>2016-10-08T03:43:16Z</time></trkpt>
<trkpt lat="29.859778" lon="93.655114">
<time>2016-10-08T03:43:17Z</time></trkpt>
<trkpt lat="29.859859" lon="93.654495">
<time>2016-10-08T03:43:18Z</time></trkpt>
<trkpt lat="29.85991" lon="93.654016">
<time>2016-10-08T03:43:19Z</time></trkpt>
<trkpt lat="29.859961" lon="93.653547">
<time>2016-10-08T03:43:20Z</time></trkpt>
<trkpt lat="29.860012" lon="93.653098">
<time>2016-10-08T03:43:21Z</time></trkpt>
<trkpt lat="29.860042" lon="93.652948">
<time>2016-10-08T03:43:22Z</time></trkpt>
<trkpt lat="29.860052" lon="93.652888">
<time>2016-10-08T03:43:23Z</time></trkpt>
<trkpt lat="29.860102" lon="93.652718">
<time>2016-10-08T03:43:24Z</time></trkpt>
<trkpt lat="29.860132" lon="93.652628">
<time>2016-10-08T03:43:25Z</time></trkpt>
<trkpt lat="29.860223" lon="93.652399">
<time>2016-10-08T03:43:26Z</time></trkpt>
<trkpt lat="29.860313" lon="93.652179">
<time>2016-10-08T03:43:27Z</time></trkpt>
<trkpt lat="29.860353" lon="93.65204">
<time>2016-10-08T03:43:28Z</time></trkpt>
<trkpt lat="29.860374" lon="93.65197">
<time>2016-10-08T03:43:29Z</time></trkpt>
<trkpt lat="29.860394" lon="93.65188">
<time>2016-10-08T03:43:30Z</time></trkpt>
<trkpt lat="29.860404" lon="93.65176">
<time>2016-10-08T03:43:31Z</time></trkpt>
<trkpt lat="29.860404" lon="93.6517">
<time>2016-10-08T03:43:32Z</time></trkpt>
<trkpt lat="29.860414" lon="93.6516">
<time>2016-10-08T03:43:33Z</time></trkpt>
<trkpt lat="29.860404" lon="93.65153">
<time>2016-10-08T03:43:34Z</time></trkpt>
<trkpt lat="29.860395" lon="93.651281">
<time>2016-10-08T03:43:35Z</time></trkpt>
<trkpt lat="29.860365" lon="93.651031">
<time>2016-10-08T03:43:36Z</time></trkpt>
<trkpt lat="29.860336" lon="93.650872">
<time>2016-10-08T03:43:37Z</time></trkpt>
<trkpt lat="29.860326" lon="93.650742">
<time>2016-10-08T03:43:38Z</time></trkpt>
<trkpt lat="29.860336" lon="93.650582">
<time>2016-10-08T03:43:39Z</time></trkpt>
<trkpt lat="29.860366" lon="93.650433">
<time>2016-10-08T03:43:40Z</time></trkpt>
<trkpt lat="29.860386" lon="93.650323">
<time>2016-10-08T03:43:41Z</time></trkpt>
<trkpt lat="29.860417" lon="93.650233">
<time>2016-10-08T03:43:42Z</time></trkpt>
<trkpt lat="29.860457" lon="93.650123">
<time>2016-10-08T03:43:43Z</time></trkpt>
<trkpt lat="29.860487" lon="93.650043">
<time>2016-10-08T03:43:44Z</time></trkpt>
<trkpt lat="29.860537" lon="93.649923">
<time>2016-10-08T03:43:45Z</time></trkpt>
<trkpt lat="29.860577" lon="93.649824">
<time>2016-10-08T03:43:46Z</time></trkpt>
<trkpt lat="29.860698" lon="93.649594">
<time>2016-10-08T03:43:47Z</time></trkpt>
<trkpt lat="29.860828" lon="93.649364">
<time>2016-10-08T03:43:48Z</time></trkpt>
<trkpt lat="29.860939" lon="93.649135">
<time>2016-10-08T03:43:49Z</time></trkpt>
<trkpt lat="29.860979" lon="93.649025">
<time>2016-10-08T03:43:50Z</time></trkpt>
<trkpt lat="29.861029" lon="93.648885">
<time>2016-10-08T03:43:51Z</time></trkpt>
<trkpt lat="29.861069" lon="93.648765">
<time>2016-10-08T03:43:52Z</time></trkpt>
<trkpt lat="29.86113" lon="93.648426">
<time>2016-10-08T03:43:53Z</time></trkpt>
<trkpt lat="29.861251" lon="93.647827">
<time>2016-10-08T03:43:54Z</time></trkpt>
<trkpt lat="29.861321" lon="93.647428">
<time>2016-10-08T03:43:55Z</time></trkpt>
<trkpt lat="29.861402" lon="93.647108">
<time>2016-10-08T03:43:56Z</time></trkpt>
<trkpt lat="29.861643" lon="93.64624">
<time>2016-10-08T03:43:57Z</time></trkpt>
<trkpt lat="29.861744" lon="93.645811">
<time>2016-10-08T03:43:58Z</time></trkpt>
<trkpt lat="29.861895" lon="93.645032">
<time>2016-10-08T03:43:59Z</time></trkpt>
<trkpt lat="29.861926" lon="93.644912">
<time>2016-10-08T03:44:00Z</time></trkpt>
<trkpt lat="29.861956" lon="93.644762">
<time>2016-10-08T03:44:01Z</time></trkpt>
<trkpt lat="29.862016" lon="93.644473">
<time>2016-10-08T03:44:02Z</time></trkpt>
<trkpt lat="29.862087" lon="93.644154">
<time>2016-10-08T03:44:03Z</time></trkpt>
<trkpt lat="29.862137" lon="93.643964">
<time>2016-10-08T03:44:04Z</time></trkpt>
<trkpt lat="29.862157" lon="93.643884">
<time>2016-10-08T03:44:05Z</time></trkpt>
<trkpt lat="29.862167" lon="93.643814">
<time>2016-10-08T03:44:06Z</time></trkpt>
<trkpt lat="29.862198" lon="93.643684">
<time>2016-10-08T03:44:07Z</time></trkpt>
<trkpt lat="29.862218" lon="93.643594">
<time>2016-10-08T03:44:08Z</time></trkpt>
<trkpt lat="29.862228" lon="93.643515">
<time>2016-10-08T03:44:09Z</time></trkpt>
<trkpt lat="29.862258" lon="93.643435">
<time>2016-10-08T03:44:10Z</time></trkpt>
<trkpt lat="29.862268" lon="93.643375">
<time>2016-10-08T03:44:11Z</time></trkpt>
<trkpt lat="29.862298" lon="93.643285">
<time>2016-10-08T03:44:12Z</time></trkpt>
<trkpt lat="29.862318" lon="93.643225">
<time>2016-10-08T03:44:13Z</time></trkpt>
<trkpt lat="29.862338" lon="93.643185">
<time>2016-10-08T03:44:14Z</time></trkpt>
<trkpt lat="29.862348" lon="93.643155">
<time>2016-10-08T03:44:15Z</time></trkpt>
<trkpt lat="29.862369" lon="93.643115">
<time>2016-10-08T03:44:16Z</time></trkpt>
<trkpt lat="29.862389" lon="93.643085">
<time>2016-10-08T03:44:17Z</time></trkpt>
<trkpt lat="29.862409" lon="93.643055">
<time>2016-10-08T03:44:18Z</time></trkpt>
<trkpt lat="29.862429" lon="93.643015">
<time>2016-10-08T03:44:19Z</time></trkpt>
<trkpt lat="29.862459" lon="93.642985">
<time>2016-10-08T03:44:20Z</time></trkpt>
<trkpt lat="29.862489" lon="93.642946">
<time>2016-10-08T03:44:21Z</time></trkpt>
<trkpt lat="29.862589" lon="93.642826">
<time>2016-10-08T03:44:22Z</time></trkpt>
<trkpt lat="29.862739" lon="93.642616">
<time>2016-10-08T03:44:23Z</time></trkpt>
<trkpt lat="29.86315" lon="93.642127">
<time>2016-10-08T03:44:24Z</time></trkpt>
<trkpt lat="29.86322" lon="93.642037">
<time>2016-10-08T03:44:25Z</time></trkpt>
<trkpt lat="29.8633" lon="93.641957">
<time>2016-10-08T03:44:26Z</time></trkpt>
<trkpt lat="29.86337" lon="93.641897">
<time>2016-10-08T03:44:27Z</time></trkpt>
<trkpt lat="29.863461" lon="93.641817">
<time>2016-10-08T03:44:28Z</time></trkpt>
<trkpt lat="29.863641" lon="93.641698">
<time>2016-10-08T03:44:29Z</time></trkpt>
<trkpt lat="29.863811" lon="93.641568">
<time>2016-10-08T03:44:30Z</time></trkpt>
<trkpt lat="29.863941" lon="93.641468">
<time>2016-10-08T03:44:31Z</time></trkpt>
<trkpt lat="29.864081" lon="93.641328">
<time>2016-10-08T03:44:32Z</time></trkpt>
<trkpt lat="29.864141" lon="93.641258">
<time>2016-10-08T03:44:33Z</time></trkpt>
<trkpt lat="29.864232" lon="93.641128">
<time>2016-10-08T03:44:34Z</time></trkpt>
<trkpt lat="29.864382" lon="93.640909">
<time>2016-10-08T03:44:35Z</time></trkpt>
<trkpt lat="29.864452" lon="93.640829">
<time>2016-10-08T03:44:36Z</time></trkpt>
<trkpt lat="29.864532" lon="93.640729">
<time>2016-10-08T03:44:37Z</time></trkpt>
<trkpt lat="29.864662" lon="93.640589">
<time>2016-10-08T03:44:38Z</time></trkpt>
<trkpt lat="29.864833" lon="93.64044">
<time>2016-10-08T03:44:39Z</time></trkpt>
<trkpt lat="29.864993" lon="93.64029">
<time>2016-10-08T03:44:40Z</time></trkpt>
<trkpt lat="29.865173" lon="93.64011">
<time>2016-10-08T03:44:41Z</time></trkpt>
<trkpt lat="29.865313" lon="93.63995">
<time>2016-10-08T03:44:42Z</time></trkpt>
<trkpt lat="29.865404" lon="93.639831">
<time>2016-10-08T03:44:43Z</time></trkpt>
<trkpt lat="29.865554" lon="93.639631">
<time>2016-10-08T03:44:44Z</time></trkpt>
<trkpt lat="29.865644" lon="93.639521">
<time>2016-10-08T03:44:45Z</time></trkpt>
<trkpt lat="29.865694" lon="93.639431">
<time>2016-10-08T03:44:46Z</time></trkpt>
<trkpt lat="29.865754" lon="93.639331">
<time>2016-10-08T03:44:47Z</time></trkpt>
<trkpt lat="29.865835" lon="93.639172">
<time>2016-10-08T03:44:48Z</time></trkpt>
<trkpt lat="29.865865" lon="93.639082">
<time>2016-10-08T03:44:49Z</time></trkpt>
<trkpt lat="29.865895" lon="93.639002">
<time>2016-10-08T03:44:50Z</time></trkpt>
<trkpt lat="29.865955" lon="93.638842">
<time>2016-10-08T03:44:51Z</time></trkpt>
<trkpt lat="29.866076" lon="93.638553">
<time>2016-10-08T03:44:52Z</time></trkpt>
<trkpt lat="29.866346" lon="93.637943">
<time>2016-10-08T03:44:53Z</time></trkpt>
<trkpt lat="29.866668" lon="93.637225">
<time>2016-10-08T03:44:54Z</time></trkpt>
<trkpt lat="29.867129" lon="93.636216">
<time>2016-10-08T03:44:55Z</time></trkpt>
<trkpt lat="29.867681" lon="93.635018">
<time>2016-10-08T03:44:56Z</time></trkpt>
<trkpt lat="29.867791" lon="93.634828">
<time>2016-10-08T03:44:57Z</time></trkpt>
<trkpt lat="29.867921" lon="93.634668">
<time>2016-10-08T03:44:58Z</time></trkpt>
<trkpt lat="29.868081" lon="93.634459">
<time>2016-10-08T03:44:59Z</time></trkpt>
<trkpt lat="29.868402" lon="93.634059">
<time>2016-10-08T03:45:00Z</time></trkpt>
<trkpt lat="29.868773" lon="93.63361">
<time>2016-10-08T03:45:01Z</time></trkpt>
<trkpt lat="29.869263" lon="93.633011">
<time>2016-10-08T03:45:02Z</time></trkpt>
<trkpt lat="29.869834" lon="93.632312">
<time>2016-10-08T03:45:03Z</time></trkpt>
<trkpt lat="29.870666" lon="93.631293">
<time>2016-10-08T03:45:04Z</time></trkpt>
<trkpt lat="29.871347" lon="93.630474">
<time>2016-10-08T03:45:05Z</time></trkpt>
<trkpt lat="29.871857" lon="93.629845">
<time>2016-10-08T03:45:06Z</time></trkpt>
<trkpt lat="29.872078" lon="93.629585">
<time>2016-10-08T03:45:07Z</time></trkpt>
<trkpt lat="29.872288" lon="93.629316">
<time>2016-10-08T03:45:08Z</time></trkpt>
<trkpt lat="29.872488" lon="93.629076">
<time>2016-10-08T03:45:09Z</time></trkpt>
<trkpt lat="29.872739" lon="93.628766">
<time>2016-10-08T03:45:10Z</time></trkpt>
<trkpt lat="29.872989" lon="93.628467">
<time>2016-10-08T03:45:11Z</time></trkpt>
<trkpt lat="29.873169" lon="93.628247">
<time>2016-10-08T03:45:12Z</time></trkpt>
<trkpt lat="29.87339" lon="93.627997">
<time>2016-10-08T03:45:13Z</time></trkpt>
<trkpt lat="29.87364" lon="93.627708">
<time>2016-10-08T03:45:14Z</time></trkpt>
<trkpt lat="29.87385" lon="93.627468">
<time>2016-10-08T03:45:15Z</time></trkpt>
<trkpt lat="29.874461" lon="93.626819">
<time>2016-10-08T03:45:16Z</time></trkpt>
<trkpt lat="29.874962" lon="93.626279">
<time>2016-10-08T03:45:17Z</time></trkpt>
<trkpt lat="29.875422" lon="93.6258">
<time>2016-10-08T03:45:18Z</time></trkpt>
<trkpt lat="29.875622" lon="93.62559">
<time>2016-10-08T03:45:19Z</time></trkpt>
<trkpt lat="29.875893" lon="93.6253">
<time>2016-10-08T03:45:20Z</time></trkpt>
<trkpt lat="29.876123" lon="93.625061">
<time>2016-10-08T03:45:21Z</time></trkpt>
<trkpt lat="29.876153" lon="93.625031">
<time>2016-10-08T03:45:22Z</time></trkpt>
<trkpt lat="29.876183" lon="93.625001">
<time>2016-10-08T03:45:23Z</time></trkpt>
<trkpt lat="29.876303" lon="93.624871">
<time>2016-10-08T03:45:24Z</time></trkpt>
<trkpt lat="29.876534" lon="93.624631">
<time>2016-10-08T03:45:25Z</time></trkpt>
<trkpt lat="29.876724" lon="93.624431">
<time>2016-10-08T03:45:26Z</time></trkpt>
<trkpt lat="29.876874" lon="93.624281">
<time>2016-10-08T03:45:27Z</time></trkpt>
<trkpt lat="29.876994" lon="93.624172">
<time>2016-10-08T03:45:28Z</time></trkpt>
<trkpt lat="29.877204" lon="93.624002">
<time>2016-10-08T03:45:29Z</time></trkpt>
<trkpt lat="29.877314" lon="93.623922">
<time>2016-10-08T03:45:30Z</time></trkpt>
<trkpt lat="29.877424" lon="93.623842">
<time>2016-10-08T03:45:31Z</time></trkpt>
<trkpt lat="29.877584" lon="93.623732">
<time>2016-10-08T03:45:32Z</time></trkpt>
<trkpt lat="29.877695" lon="93.623682">
<time>2016-10-08T03:45:33Z</time></trkpt>
<trkpt lat="29.877755" lon="93.623652">
<time>2016-10-08T03:45:34Z</time></trkpt>
<trkpt lat="29.877795" lon="93.623632">
<time>2016-10-08T03:45:35Z</time></trkpt>
<trkpt lat="29.877875" lon="93.623602">
<time>2016-10-08T03:45:36Z</time></trkpt>
<trkpt lat="29.877945" lon="93.623582">
<time>2016-10-08T03:45:37Z</time></trkpt>
<trkpt lat="29.878015" lon="93.623562">
<time>2016-10-08T03:45:38Z</time></trkpt>
<trkpt lat="29.878085" lon="93.623542">
<time>2016-10-08T03:45:39Z</time></trkpt>
<trkpt lat="29.878165" lon="93.623532">
<time>2016-10-08T03:45:40Z</time></trkpt>
<trkpt lat="29.878245" lon="93.623522">
<time>2016-10-08T03:45:41Z</time></trkpt>
<trkpt lat="29.878435" lon="93.623502">
<time>2016-10-08T03:45:42Z</time></trkpt>
<trkpt lat="29.878675" lon="93.623492">
<time>2016-10-08T03:45:43Z</time></trkpt>
<trkpt lat="29.879025" lon="93.623462">
<time>2016-10-08T03:45:44Z</time></trkpt>
<trkpt lat="29.879345" lon="93.623432">
<time>2016-10-08T03:45:45Z</time></trkpt>
<trkpt lat="29.879685" lon="93.623402">
<time>2016-10-08T03:45:46Z</time></trkpt>
<trkpt lat="29.879825" lon="93.623392">
<time>2016-10-08T03:45:47Z</time></trkpt>
<trkpt lat="29.879895" lon="93.623402">
<time>2016-10-08T03:45:48Z</time></trkpt>
<trkpt lat="29.879955" lon="93.623412">
<time>2016-10-08T03:45:49Z</time></trkpt>
<trkpt lat="29.880115" lon="93.623452">
<time>2016-10-08T03:45:50Z</time></trkpt>
<trkpt lat="29.880195" lon="93.623462">
<time>2016-10-08T03:45:51Z</time></trkpt>
<trkpt lat="29.880535" lon="93.623472">
<time>2016-10-08T03:45:52Z</time></trkpt>
<trkpt lat="29.880975" lon="93.623472">
<time>2016-10-08T03:45:53Z</time></trkpt>
<trkpt lat="29.881275" lon="93.623442">
<time>2016-10-08T03:45:54Z</time></trkpt>
<trkpt lat="29.881505" lon="93.623412">
<time>2016-10-08T03:45:55Z</time></trkpt>
<trkpt lat="29.881885" lon="93.623342">
<time>2016-10-08T03:45:56Z</time></trkpt>
<trkpt lat="29.882265" lon="93.623252">
<time>2016-10-08T03:45:57Z</time></trkpt>
<trkpt lat="29.882495" lon="93.623173">
<time>2016-10-08T03:45:58Z</time></trkpt>
<trkpt lat="29.882595" lon="93.623143">
<time>2016-10-08T03:45:59Z</time></trkpt>
<trkpt lat="29.882775" lon="93.623073">
<time>2016-10-08T03:46:00Z</time></trkpt>
<trkpt lat="29.882885" lon="93.623023">
<time>2016-10-08T03:46:01Z</time></trkpt>
<trkpt lat="29.883015" lon="93.622943">
<time>2016-10-08T03:46:02Z</time></trkpt>
<trkpt lat="29.883145" lon="93.622893">
<time>2016-10-08T03:46:03Z</time></trkpt>
<trkpt lat="29.883425" lon="93.622793">
<time>2016-10-08T03:46:04Z</time></trkpt>
<trkpt lat="29.883555" lon="93.622743">
<time>2016-10-08T03:46:05Z</time></trkpt>
<trkpt lat="29.883815" lon="93.622623">
<time>2016-10-08T03:46:06Z</time></trkpt>
<trkpt lat="29.884086" lon="93.622473">
<time>2016-10-08T03:46:07Z</time></trkpt>
<trkpt lat="29.884296" lon="93.622363">
<time>2016-10-08T03:46:08Z</time></trkpt>
<trkpt lat="29.884386" lon="93.622313">
<time>2016-10-08T03:46:09Z</time></trkpt>
<trkpt lat="29.884446" lon="93.622303">
<time>2016-10-08T03:46:10Z</time></trkpt>
<trkpt lat="29.884626" lon="93.622253">
<time>2016-10-08T03:46:11Z</time></trkpt>
<trkpt lat="29.884676" lon="93.622243">
<time>2016-10-08T03:46:12Z</time></trkpt>
<trkpt lat="29.884716" lon="93.622223">
<time>2016-10-08T03:46:13Z</time></trkpt>
<trkpt lat="29.884956" lon="93.622104">
<time>2016-10-08T03:46:14Z</time></trkpt>
<trkpt lat="29.885256" lon="93.621964">
<time>2016-10-08T03:46:15Z</time></trkpt>
<trkpt lat="29.885656" lon="93.621784">
<time>2016-10-08T03:46:16Z</time></trkpt>
<trkpt lat="29.885746" lon="93.621744">
<time>2016-10-08T03:46:17Z</time></trkpt>
<trkpt lat="29.885776" lon="93.621734">
<time>2016-10-08T03:46:18Z</time></trkpt>
<trkpt lat="29.885986" lon="93.621644">
<time>2016-10-08T03:46:19Z</time></trkpt>
<trkpt lat="29.886437" lon="93.621434">
<time>2016-10-08T03:46:20Z</time></trkpt>
<trkpt lat="29.886747" lon="93.621294">
<time>2016-10-08T03:46:21Z</time></trkpt>
<trkpt lat="29.887017" lon="93.621155">
<time>2016-10-08T03:46:22Z</time></trkpt>
<trkpt lat="29.887117" lon="93.621115">
<time>2016-10-08T03:46:23Z</time></trkpt>
<trkpt lat="29.887287" lon="93.621065">
<time>2016-10-08T03:46:24Z</time></trkpt>
<trkpt lat="29.887387" lon="93.621045">
<time>2016-10-08T03:46:25Z</time></trkpt>
<trkpt lat="29.887967" lon="93.620925">
<time>2016-10-08T03:46:26Z</time></trkpt>
<trkpt lat="29.888427" lon="93.620835">
<time>2016-10-08T03:46:27Z</time></trkpt>
<trkpt lat="29.888637" lon="93.620805">
<time>2016-10-08T03:46:28Z</time></trkpt>
<trkpt lat="29.888847" lon="93.620775">
<time>2016-10-08T03:46:29Z</time></trkpt>
<trkpt lat="29.889037" lon="93.620765">
<time>2016-10-08T03:46:30Z</time></trkpt>
<trkpt lat="29.889577" lon="93.620735">
<time>2016-10-08T03:46:31Z</time></trkpt>
<trkpt lat="29.890247" lon="93.620695">
<time>2016-10-08T03:46:32Z</time></trkpt>
<trkpt lat="29.890507" lon="93.620685">
<time>2016-10-08T03:46:33Z</time></trkpt>
<trkpt lat="29.890737" lon="93.620675">
<time>2016-10-08T03:46:34Z</time></trkpt>
<trkpt lat="29.891067" lon="93.620655">
<time>2016-10-08T03:46:35Z</time></trkpt>
<trkpt lat="29.891397" lon="93.620635">
<time>2016-10-08T03:46:36Z</time></trkpt>
<trkpt lat="29.891557" lon="93.620625">
<time>2016-10-08T03:46:37Z</time></trkpt>
<trkpt lat="29.891817" lon="93.620625">
<time>2016-10-08T03:46:38Z</time></trkpt>
<trkpt lat="29.892047" lon="93.620635">
<time>2016-10-08T03:46:39Z</time></trkpt>
<trkpt lat="29.892187" lon="93.620655">
<time>2016-10-08T03:46:40Z</time></trkpt>
<trkpt lat="29.892337" lon="93.620685">
<time>2016-10-08T03:46:41Z</time></trkpt>
<trkpt lat="29.892497" lon="93.620705">
<time>2016-10-08T03:46:42Z</time></trkpt>
<trkpt lat="29.892777" lon="93.620735">
<time>2016-10-08T03:46:43Z</time></trkpt>
<trkpt lat="29.892937" lon="93.620735">
<time>2016-10-08T03:46:44Z</time></trkpt>
<trkpt lat="29.893077" lon="93.620735">
<time>2016-10-08T03:46:45Z</time></trkpt>
<trkpt lat="29.893297" lon="93.620715">
<time>2016-10-08T03:46:46Z</time></trkpt>
<trkpt lat="29.893407" lon="93.620695">
<time>2016-10-08T03:46:47Z</time></trkpt>
<trkpt lat="29.893567" lon="93.620665">
<time>2016-10-08T03:46:48Z</time></trkpt>
<trkpt lat="29.893827" lon="93.620595">
<time>2016-10-08T03:46:49Z</time></trkpt>
<trkpt lat="29.894117" lon="93.620535">
<time>2016-10-08T03:46:50Z</time></trkpt>
<trkpt lat="29.894617" lon="93.620415">
<time>2016-10-08T03:46:51Z</time></trkpt>
<trkpt lat="29.894937" lon="93.620345">
<time>2016-10-08T03:46:52Z</time></trkpt>
<trkpt lat="29.895227" lon="93.620265">
<time>2016-10-08T03:46:53Z</time></trkpt>
<trkpt lat="29.895488" lon="93.620185">
<time>2016-10-08T03:46:54Z</time></trkpt>
<trkpt lat="29.895668" lon="93.620115">
<time>2016-10-08T03:46:55Z</time></trkpt>
<trkpt lat="29.895768" lon="93.620065">
<time>2016-10-08T03:46:56Z</time></trkpt>
<trkpt lat="29.895898" lon="93.620015">
<time>2016-10-08T03:46:57Z</time></trkpt>
<trkpt lat="29.896178" lon="93.619876">
<time>2016-10-08T03:46:58Z</time></trkpt>
<trkpt lat="29.896478" lon="93.619736">
<time>2016-10-08T03:46:59Z</time></trkpt>
<trkpt lat="29.896688" lon="93.619636">
<time>2016-10-08T03:47:00Z</time></trkpt>
<trkpt lat="29.896788" lon="93.619576">
<time>2016-10-08T03:47:01Z</time></trkpt>
<trkpt lat="29.896918" lon="93.619506">
<time>2016-10-08T03:47:02Z</time></trkpt>
<trkpt lat="29.897038" lon="93.619416">
<time>2016-10-08T03:47:03Z</time></trkpt>
<trkpt lat="29.897108" lon="93.619366">
<time>2016-10-08T03:47:04Z</time></trkpt>
<trkpt lat="29.897178" lon="93.619296">
<time>2016-10-08T03:47:05Z</time></trkpt>
<trkpt lat="29.897228" lon="93.619246">
<time>2016-10-08T03:47:06Z</time></trkpt>
<trkpt lat="29.897298" lon="93.619176">
<time>2016-10-08T03:47:07Z</time></trkpt>
<trkpt lat="29.897359" lon="93.619086">
<time>2016-10-08T03:47:08Z</time></trkpt>
<trkpt lat="29.897469" lon="93.618926">
<time>2016-10-08T03:47:09Z</time></trkpt>
<trkpt lat="29.89805" lon="93.617917">
<time>2016-10-08T03:47:10Z</time></trkpt>
<trkpt lat="29.89837" lon="93.617368">
<time>2016-10-08T03:47:11Z</time></trkpt>
<trkpt lat="29.898751" lon="93.616718">
<time>2016-10-08T03:47:12Z</time></trkpt>
<trkpt lat="29.899061" lon="93.616179">
<time>2016-10-08T03:47:13Z</time></trkpt>
<trkpt lat="29.899181" lon="93.615969">
<time>2016-10-08T03:47:14Z</time></trkpt>
<trkpt lat="29.899462" lon="93.615479">
<time>2016-10-08T03:47:15Z</time></trkpt>
<trkpt lat="29.899802" lon="93.61488">
<time>2016-10-08T03:47:16Z</time></trkpt>
<trkpt lat="29.899932" lon="93.61466">
<time>2016-10-08T03:47:17Z</time></trkpt>
<trkpt lat="29.900062" lon="93.6144">
<time>2016-10-08T03:47:18Z</time></trkpt>
<trkpt lat="29.900203" lon="93.6141">
<time>2016-10-08T03:47:19Z</time></trkpt>
<trkpt lat="29.900323" lon="93.61382">
<time>2016-10-08T03:47:20Z</time></trkpt>
<trkpt lat="29.900533" lon="93.613301">
<time>2016-10-08T03:47:21Z</time></trkpt>
<trkpt lat="29.900804" lon="93.612631">
<time>2016-10-08T03:47:22Z</time></trkpt>
<trkpt lat="29.901024" lon="93.612081">
<time>2016-10-08T03:47:23Z</time></trkpt>
<trkpt lat="29.901274" lon="93.611462">
<time>2016-10-08T03:47:24Z</time></trkpt>
<trkpt lat="29.901364" lon="93.611252">
<time>2016-10-08T03:47:25Z</time></trkpt>
<trkpt lat="29.901525" lon="93.610842">
<time>2016-10-08T03:47:26Z</time></trkpt>
<trkpt lat="29.901715" lon="93.610392">
<time>2016-10-08T03:47:27Z</time></trkpt>
<trkpt lat="29.901955" lon="93.609783">
<time>2016-10-08T03:47:28Z</time></trkpt>
<trkpt lat="29.902116" lon="93.609373">
<time>2016-10-08T03:47:29Z</time></trkpt>
<trkpt lat="29.902216" lon="93.609083">
<time>2016-10-08T03:47:30Z</time></trkpt>
<trkpt lat="29.902276" lon="93.608863">
<time>2016-10-08T03:47:31Z</time></trkpt>
<trkpt lat="29.902296" lon="93.608753">
<time>2016-10-08T03:47:32Z</time></trkpt>
<trkpt lat="29.902326" lon="93.608593">
<time>2016-10-08T03:47:33Z</time></trkpt>
<trkpt lat="29.902356" lon="93.608383">
<time>2016-10-08T03:47:34Z</time></trkpt>
<trkpt lat="29.902386" lon="93.608034">
<time>2016-10-08T03:47:35Z</time></trkpt>
<trkpt lat="29.902416" lon="93.607664">
<time>2016-10-08T03:47:36Z</time></trkpt>
<trkpt lat="29.902477" lon="93.607044">
<time>2016-10-08T03:47:37Z</time></trkpt>
<trkpt lat="29.902517" lon="93.606654">
<time>2016-10-08T03:47:38Z</time></trkpt>
<trkpt lat="29.902537" lon="93.606354">
<time>2016-10-08T03:47:39Z</time></trkpt>
<trkpt lat="29.902577" lon="93.606004">
<time>2016-10-08T03:47:40Z</time></trkpt>
<trkpt lat="29.902617" lon="93.605634">
<time>2016-10-08T03:47:41Z</time></trkpt>
<trkpt lat="29.902667" lon="93.605075">
<time>2016-10-08T03:47:42Z</time></trkpt>
<trkpt lat="29.902698" lon="93.604655">
<time>2016-10-08T03:47:43Z</time></trkpt>
<trkpt lat="29.902728" lon="93.604405">
<time>2016-10-08T03:47:44Z</time></trkpt>
<trkpt lat="29.902758" lon="93.604015">
<time>2016-10-08T03:47:45Z</time></trkpt>
<trkpt lat="29.902798" lon="93.603635">
<time>2016-10-08T03:47:46Z</time></trkpt>
<trkpt lat="29.902818" lon="93.603415">
<time>2016-10-08T03:47:47Z</time></trkpt>
<trkpt lat="29.902828" lon="93.603215">
<time>2016-10-08T03:47:48Z</time></trkpt>
<trkpt lat="29.902838" lon="93.602985">
<time>2016-10-08T03:47:49Z</time></trkpt>
<trkpt lat="29.902838" lon="93.602745">
<time>2016-10-08T03:47:50Z</time></trkpt>
<trkpt lat="29.902828" lon="93.602305">
<time>2016-10-08T03:47:51Z</time></trkpt>
<trkpt lat="29.902818" lon="93.601875">
<time>2016-10-08T03:47:52Z</time></trkpt>
<trkpt lat="29.902789" lon="93.601435">
<time>2016-10-08T03:47:53Z</time></trkpt>
<trkpt lat="29.902789" lon="93.601275">
<time>2016-10-08T03:47:54Z</time></trkpt>
<trkpt lat="29.902769" lon="93.600785">
<time>2016-10-08T03:47:55Z</time></trkpt>
<trkpt lat="29.902759" lon="93.600405">
<time>2016-10-08T03:47:56Z</time></trkpt>
<trkpt lat="29.902749" lon="93.600195">
<time>2016-10-08T03:47:57Z</time></trkpt>
<trkpt lat="29.902739" lon="93.599995">
<time>2016-10-08T03:47:58Z</time></trkpt>
<trkpt lat="29.902729" lon="93.599755">
<time>2016-10-08T03:47:59Z</time></trkpt>
<trkpt lat="29.902719" lon="93.599585">
<time>2016-10-08T03:48:00Z</time></trkpt>
<trkpt lat="29.902719" lon="93.599515">
<time>2016-10-08T03:48:01Z</time></trkpt>
<trkpt lat="29.902709" lon="93.599245">
<time>2016-10-08T03:48:02Z</time></trkpt>
<trkpt lat="29.902699" lon="93.598875">
<time>2016-10-08T03:48:03Z</time></trkpt>
<trkpt lat="29.902689" lon="93.598575">
<time>2016-10-08T03:48:04Z</time></trkpt>
<trkpt lat="29.902679" lon="93.598285">
<time>2016-10-08T03:48:05Z</time></trkpt>
<trkpt lat="29.902659" lon="93.598065">
<time>2016-10-08T03:48:06Z</time></trkpt>
<trkpt lat="29.902659" lon="93.597775">
<time>2016-10-08T03:48:07Z</time></trkpt>
<trkpt lat="29.902629" lon="93.597145">
<time>2016-10-08T03:48:08Z</time></trkpt>
<trkpt lat="29.902619" lon="93.596745">
<time>2016-10-08T03:48:09Z</time></trkpt>
<trkpt lat="29.902599" lon="93.596515">
<time>2016-10-08T03:48:10Z</time></trkpt>
<trkpt lat="29.902569" lon="93.595975">
<time>2016-10-08T03:48:11Z</time></trkpt>
<trkpt lat="29.902489" lon="93.595355">
<time>2016-10-08T03:48:12Z</time></trkpt>
<trkpt lat="29.902419" lon="93.594745">
<time>2016-10-08T03:48:13Z</time></trkpt>
<trkpt lat="29.902339" lon="93.594105">
<time>2016-10-08T03:48:14Z</time></trkpt>
<trkpt lat="29.902309" lon="93.593785">
<time>2016-10-08T03:48:15Z</time></trkpt>
<trkpt lat="29.902279" lon="93.593565">
<time>2016-10-08T03:48:16Z</time></trkpt>
<trkpt lat="29.902269" lon="93.593495">
<time>2016-10-08T03:48:17Z</time></trkpt>
<trkpt lat="29.902269" lon="93.593425">
<time>2016-10-08T03:48:18Z</time></trkpt>
<trkpt lat="29.902269" lon="93.593305">
<time>2016-10-08T03:48:19Z</time></trkpt>
<trkpt lat="29.902279" lon="93.593235">
<time>2016-10-08T03:48:20Z</time></trkpt>
<trkpt lat="29.902299" lon="93.593115">
<time>2016-10-08T03:48:21Z</time></trkpt>
<trkpt lat="29.902319" lon="93.593005">
<time>2016-10-08T03:48:22Z</time></trkpt>
<trkpt lat="29.902349" lon="93.592885">
<time>2016-10-08T03:48:23Z</time></trkpt>
<trkpt lat="29.902399" lon="93.592684">
<time>2016-10-08T03:48:24Z</time></trkpt>
<trkpt lat="29.902519" lon="93.592114">
<time>2016-10-08T03:48:25Z</time></trkpt>
<trkpt lat="29.902609" lon="93.591744">
<time>2016-10-08T03:48:26Z</time></trkpt>
<trkpt lat="29.902708" lon="93.591324">
<time>2016-10-08T03:48:27Z</time></trkpt>
<trkpt lat="29.902738" lon="93.591234">
<time>2016-10-08T03:48:28Z</time></trkpt>
<trkpt lat="29.902768" lon="93.591114">
<time>2016-10-08T03:48:29Z</time></trkpt>
<trkpt lat="29.902818" lon="93.590964">
<time>2016-10-08T03:48:30Z</time></trkpt>
<trkpt lat="29.902938" lon="93.590624">
<time>2016-10-08T03:48:31Z</time></trkpt>
<trkpt lat="29.902988" lon="93.590444">
<time>2016-10-08T03:48:32Z</time></trkpt>
<trkpt lat="29.903018" lon="93.590334">
<time>2016-10-08T03:48:33Z</time></trkpt>
<trkpt lat="29.903048" lon="93.590214">
<time>2016-10-08T03:48:34Z</time></trkpt>
<trkpt lat="29.903068" lon="93.590093">
<time>2016-10-08T03:48:35Z</time></trkpt>
<trkpt lat="29.903078" lon="93.589973">
<time>2016-10-08T03:48:36Z</time></trkpt>
<trkpt lat="29.903078" lon="93.589793">
<time>2016-10-08T03:48:37Z</time></trkpt>
<trkpt lat="29.903078" lon="93.589653">
<time>2016-10-08T03:48:38Z</time></trkpt>
<trkpt lat="29.903068" lon="93.589473">
<time>2016-10-08T03:48:39Z</time></trkpt>
<trkpt lat="29.903038" lon="93.589163">
<time>2016-10-08T03:48:40Z</time></trkpt>
<trkpt lat="29.903038" lon="93.589073">
<time>2016-10-08T03:48:41Z</time></trkpt>
<trkpt lat="29.903048" lon="93.588983">
<time>2016-10-08T03:48:42Z</time></trkpt>
<trkpt lat="29.903058" lon="93.588913">
<time>2016-10-08T03:48:43Z</time></trkpt>
<trkpt lat="29.903068" lon="93.588823">
<time>2016-10-08T03:48:44Z</time></trkpt>
<trkpt lat="29.903088" lon="93.588753">
<time>2016-10-08T03:48:45Z</time></trkpt>
<trkpt lat="29.903118" lon="93.588663">
<time>2016-10-08T03:48:46Z</time></trkpt>
<trkpt lat="29.903188" lon="93.588433">
<time>2016-10-08T03:48:47Z</time></trkpt>
<trkpt lat="29.903277" lon="93.588193">
<time>2016-10-08T03:48:48Z</time></trkpt>
<trkpt lat="29.903397" lon="93.587852">
<time>2016-10-08T03:48:49Z</time></trkpt>
<trkpt lat="29.903457" lon="93.587662">
<time>2016-10-08T03:48:50Z</time></trkpt>
<trkpt lat="29.903507" lon="93.587482">
<time>2016-10-08T03:48:51Z</time></trkpt>
<trkpt lat="29.903537" lon="93.587312">
<time>2016-10-08T03:48:52Z</time></trkpt>
<trkpt lat="29.903547" lon="93.587192">
<time>2016-10-08T03:48:53Z</time></trkpt>
<trkpt lat="29.903557" lon="93.587072">
<time>2016-10-08T03:48:54Z</time></trkpt>
<trkpt lat="29.903547" lon="93.586932">
<time>2016-10-08T03:48:55Z</time></trkpt>
<trkpt lat="29.903527" lon="93.586802">
<time>2016-10-08T03:48:56Z</time></trkpt>
<trkpt lat="29.903507" lon="93.586572">
<time>2016-10-08T03:48:57Z</time></trkpt>
<trkpt lat="29.903497" lon="93.586482">
<time>2016-10-08T03:48:58Z</time></trkpt>
<trkpt lat="29.903477" lon="93.586331">
<time>2016-10-08T03:48:59Z</time></trkpt>
<trkpt lat="29.903476" lon="93.585821">
<time>2016-10-08T03:49:00Z</time></trkpt>
<trkpt lat="29.903476" lon="93.585581">
<time>2016-10-08T03:49:01Z</time></trkpt>
<trkpt lat="29.903466" lon="93.585321">
<time>2016-10-08T03:49:02Z</time></trkpt>
<trkpt lat="29.903456" lon="93.585141">
<time>2016-10-08T03:49:03Z</time></trkpt>
<trkpt lat="29.903426" lon="93.584881">
<time>2016-10-08T03:49:04Z</time></trkpt>
<trkpt lat="29.903396" lon="93.58473">
<time>2016-10-08T03:49:05Z</time></trkpt>
<trkpt lat="29.903356" lon="93.58454">
<time>2016-10-08T03:49:06Z</time></trkpt>
<trkpt lat="29.903306" lon="93.58434">
<time>2016-10-08T03:49:07Z</time></trkpt>
<trkpt lat="29.903266" lon="93.58419">
<time>2016-10-08T03:49:08Z</time></trkpt>
<trkpt lat="29.903206" lon="93.58401">
<time>2016-10-08T03:49:09Z</time></trkpt>
<trkpt lat="29.903075" lon="93.58371">
<time>2016-10-08T03:49:10Z</time></trkpt>
<trkpt lat="29.902855" lon="93.583169">
<time>2016-10-08T03:49:11Z</time></trkpt>
<trkpt lat="29.902765" lon="93.582949">
<time>2016-10-08T03:49:12Z</time></trkpt>
<trkpt lat="29.902705" lon="93.582809">
<time>2016-10-08T03:49:13Z</time></trkpt>
<trkpt lat="29.902675" lon="93.582719">
<time>2016-10-08T03:49:14Z</time></trkpt>
<trkpt lat="29.902665" lon="93.582669">
<time>2016-10-08T03:49:15Z</time></trkpt>
<trkpt lat="29.902655" lon="93.582609">
<time>2016-10-08T03:49:16Z</time></trkpt>
<trkpt lat="29.902655" lon="93.582579">
<time>2016-10-08T03:49:17Z</time></trkpt>
<trkpt lat="29.902665" lon="93.582539">
<time>2016-10-08T03:49:18Z</time></trkpt>
<trkpt lat="29.902675" lon="93.582449">
<time>2016-10-08T03:49:19Z</time></trkpt>
<trkpt lat="29.902705" lon="93.582359">
<time>2016-10-08T03:49:20Z</time></trkpt>
<trkpt lat="29.902744" lon="93.582259">
<time>2016-10-08T03:49:21Z</time></trkpt>
<trkpt lat="29.902794" lon="93.582118">
<time>2016-10-08T03:49:22Z</time></trkpt>
<trkpt lat="29.902834" lon="93.581948">
<time>2016-10-08T03:49:23Z</time></trkpt>
<trkpt lat="29.902844" lon="93.581828">
<time>2016-10-08T03:49:24Z</time></trkpt>
<trkpt lat="29.902834" lon="93.581728">
<time>2016-10-08T03:49:25Z</time></trkpt>
<trkpt lat="29.902824" lon="93.581678">
<time>2016-10-08T03:49:26Z</time></trkpt>
<trkpt lat="29.902814" lon="93.581608">
<time>2016-10-08T03:49:27Z</time></trkpt>
<trkpt lat="29.902774" lon="93.581498">
<time>2016-10-08T03:49:28Z</time></trkpt>
<trkpt lat="29.902744" lon="93.581438">
<time>2016-10-08T03:49:29Z</time></trkpt>
<trkpt lat="29.902704" lon="93.581358">
<time>2016-10-08T03:49:30Z</time></trkpt>
<trkpt lat="29.902644" lon="93.581268">
<time>2016-10-08T03:49:31Z</time></trkpt>
<trkpt lat="29.902444" lon="93.581027">
<time>2016-10-08T03:49:32Z</time></trkpt>
<trkpt lat="29.902294" lon="93.580857">
<time>2016-10-08T03:49:33Z</time></trkpt>
<trkpt lat="29.902173" lon="93.580707">
<time>2016-10-08T03:49:34Z</time></trkpt>
<trkpt lat="29.902103" lon="93.580617">
<time>2016-10-08T03:49:35Z</time></trkpt>
<trkpt lat="29.901983" lon="93.580497">
<time>2016-10-08T03:49:36Z</time></trkpt>
<trkpt lat="29.901913" lon="93.580427">
<time>2016-10-08T03:49:37Z</time></trkpt>
<trkpt lat="29.901823" lon="93.580337">
<time>2016-10-08T03:49:38Z</time></trkpt>
<trkpt lat="29.901703" lon="93.580237">
<time>2016-10-08T03:49:39Z</time></trkpt>
<trkpt lat="29.901623" lon="93.580167">
<time>2016-10-08T03:49:40Z</time></trkpt>
<trkpt lat="29.901493" lon="93.580067">
<time>2016-10-08T03:49:41Z</time></trkpt>
<trkpt lat="29.901253" lon="93.579876">
<time>2016-10-08T03:49:42Z</time></trkpt>
<trkpt lat="29.900903" lon="93.579596">
<time>2016-10-08T03:49:43Z</time></trkpt>
<trkpt lat="29.900783" lon="93.579516">
<time>2016-10-08T03:49:44Z</time></trkpt>
<trkpt lat="29.900673" lon="93.579436">
<time>2016-10-08T03:49:45Z</time></trkpt>
<trkpt lat="29.900502" lon="93.579336">
<time>2016-10-08T03:49:46Z</time></trkpt>
<trkpt lat="29.900252" lon="93.579216">
<time>2016-10-08T03:49:47Z</time></trkpt>
<trkpt lat="29.899882" lon="93.579076">
<time>2016-10-08T03:49:48Z</time></trkpt>
<trkpt lat="29.899532" lon="93.578936">
<time>2016-10-08T03:49:49Z</time></trkpt>
<trkpt lat="29.899292" lon="93.578845">
<time>2016-10-08T03:49:50Z</time></trkpt>
<trkpt lat="29.898852" lon="93.578675">
<time>2016-10-08T03:49:51Z</time></trkpt>
<trkpt lat="29.898742" lon="93.578635">
<time>2016-10-08T03:49:52Z</time></trkpt>
<trkpt lat="29.898652" lon="93.578585">
<time>2016-10-08T03:49:53Z</time></trkpt>
<trkpt lat="29.898542" lon="93.578535">
<time>2016-10-08T03:49:54Z</time></trkpt>
<trkpt lat="29.898412" lon="93.578475">
<time>2016-10-08T03:49:55Z</time></trkpt>
<trkpt lat="29.898282" lon="93.578405">
<time>2016-10-08T03:49:56Z</time></trkpt>
<trkpt lat="29.898182" lon="93.578345">
<time>2016-10-08T03:49:57Z</time></trkpt>
<trkpt lat="29.898072" lon="93.578275">
<time>2016-10-08T03:49:58Z</time></trkpt>
<trkpt lat="29.897992" lon="93.578225">
<time>2016-10-08T03:49:59Z</time></trkpt>
<trkpt lat="29.897942" lon="93.578185">
<time>2016-10-08T03:50:00Z</time></trkpt>
<trkpt lat="29.897882" lon="93.578135">
<time>2016-10-08T03:50:01Z</time></trkpt>
<trkpt lat="29.897822" lon="93.578085">
<time>2016-10-08T03:50:02Z</time></trkpt>
<trkpt lat="29.897761" lon="93.578015">
<time>2016-10-08T03:50:03Z</time></trkpt>
<trkpt lat="29.897681" lon="93.577925">
<time>2016-10-08T03:50:04Z</time></trkpt>
<trkpt lat="29.897601" lon="93.577824">
<time>2016-10-08T03:50:05Z</time></trkpt>
<trkpt lat="29.897561" lon="93.577754">
<time>2016-10-08T03:50:06Z</time></trkpt>
<trkpt lat="29.897521" lon="93.577704">
<time>2016-10-08T03:50:07Z</time></trkpt>
<trkpt lat="29.897491" lon="93.577644">
<time>2016-10-08T03:50:08Z</time></trkpt>
<trkpt lat="29.897451" lon="93.577564">
<time>2016-10-08T03:50:09Z</time></trkpt>
<trkpt lat="29.897431" lon="93.577514">
<time>2016-10-08T03:50:10Z</time></trkpt>
<trkpt lat="29.897401" lon="93.577424">
<time>2016-10-08T03:50:11Z</time></trkpt>
<trkpt lat="29.897361" lon="93.577284">
<time>2016-10-08T03:50:12Z</time></trkpt>
<trkpt lat="29.897281" lon="93.577004">
<time>2016-10-08T03:50:13Z</time></trkpt>
<trkpt lat="29.89717" lon="93.576573">
<time>2016-10-08T03:50:14Z</time></trkpt>
<trkpt lat="29.89708" lon="93.576273">
<time>2016-10-08T03:50:15Z</time></trkpt>
<trkpt lat="29.89698" lon="93.575912">
<time>2016-10-08T03:50:16Z</time></trkpt>
<trkpt lat="29.89696" lon="93.575792">
<time>2016-10-08T03:50:17Z</time></trkpt>
<trkpt lat="29.896939" lon="93.575682">
<time>2016-10-08T03:50:18Z</time></trkpt>
<trkpt lat="29.896929" lon="93.575602">
<time>2016-10-08T03:50:19Z</time></trkpt>
<trkpt lat="29.896919" lon="93.575502">
<time>2016-10-08T03:50:20Z</time></trkpt>
<trkpt lat="29.896909" lon="93.575332">
<time>2016-10-08T03:50:21Z</time></trkpt>
<trkpt lat="29.896919" lon="93.575202">
<time>2016-10-08T03:50:22Z</time></trkpt>
<trkpt lat="29.896919" lon="93.575101">
<time>2016-10-08T03:50:23Z</time></trkpt>
<trkpt lat="29.896949" lon="93.574941">
<time>2016-10-08T03:50:24Z</time></trkpt>
<trkpt lat="29.896969" lon="93.574781">
<time>2016-10-08T03:50:25Z</time></trkpt>
<trkpt lat="29.896998" lon="93.574661">
<time>2016-10-08T03:50:26Z</time></trkpt>
<trkpt lat="29.897058" lon="93.57437">
<time>2016-10-08T03:50:27Z</time></trkpt>
<trkpt lat="29.897118" lon="93.57412">
<time>2016-10-08T03:50:28Z</time></trkpt>
<trkpt lat="29.897188" lon="93.57388">
<time>2016-10-08T03:50:29Z</time></trkpt>
<trkpt lat="29.897257" lon="93.57364">
<time>2016-10-08T03:50:30Z</time></trkpt>
<trkpt lat="29.897367" lon="93.573329">
<time>2016-10-08T03:50:31Z</time></trkpt>
<trkpt lat="29.897427" lon="93.573139">
<time>2016-10-08T03:50:32Z</time></trkpt>
<trkpt lat="29.897507" lon="93.572909">
<time>2016-10-08T03:50:33Z</time></trkpt>
<trkpt lat="29.897566" lon="93.572748">
<time>2016-10-08T03:50:34Z</time></trkpt>
<trkpt lat="29.897666" lon="93.572468">
<time>2016-10-08T03:50:35Z</time></trkpt>
<trkpt lat="29.897756" lon="93.572188">
<time>2016-10-08T03:50:36Z</time></trkpt>
<trkpt lat="29.897866" lon="93.571887">
<time>2016-10-08T03:50:37Z</time></trkpt>
<trkpt lat="29.897955" lon="93.571627">
<time>2016-10-08T03:50:38Z</time></trkpt>
<trkpt lat="29.898045" lon="93.571367">
<time>2016-10-08T03:50:39Z</time></trkpt>
<trkpt lat="29.898115" lon="93.571146">
<time>2016-10-08T03:50:40Z</time></trkpt>
<trkpt lat="29.898165" lon="93.570996">
<time>2016-10-08T03:50:41Z</time></trkpt>
<trkpt lat="29.898204" lon="93.570876">
<time>2016-10-08T03:50:42Z</time></trkpt>
<trkpt lat="29.898234" lon="93.570756">
<time>2016-10-08T03:50:43Z</time></trkpt>
<trkpt lat="29.898254" lon="93.570656">
<time>2016-10-08T03:50:44Z</time></trkpt>
<trkpt lat="29.898274" lon="93.570555">
<time>2016-10-08T03:50:45Z</time></trkpt>
<trkpt lat="29.898284" lon="93.570505">
<time>2016-10-08T03:50:46Z</time></trkpt>
<trkpt lat="29.898284" lon="93.570455">
<time>2016-10-08T03:50:47Z</time></trkpt>
<trkpt lat="29.898294" lon="93.570365">
<time>2016-10-08T03:50:48Z</time></trkpt>
<trkpt lat="29.898294" lon="93.570295">
<time>2016-10-08T03:50:49Z</time></trkpt>
<trkpt lat="29.898294" lon="93.570205">
<time>2016-10-08T03:50:50Z</time></trkpt>
<trkpt lat="29.898294" lon="93.570115">
<time>2016-10-08T03:50:51Z</time></trkpt>
<trkpt lat="29.898283" lon="93.569955">
<time>2016-10-08T03:50:52Z</time></trkpt>
<trkpt lat="29.898283" lon="93.569804">
<time>2016-10-08T03:50:53Z</time></trkpt>
<trkpt lat="29.898273" lon="93.569704">
<time>2016-10-08T03:50:54Z</time></trkpt>
<trkpt lat="29.898263" lon="93.569604">
<time>2016-10-08T03:50:55Z</time></trkpt>
<trkpt lat="29.898253" lon="93.569374">
<time>2016-10-08T03:50:56Z</time></trkpt>
<trkpt lat="29.898242" lon="93.569183">
<time>2016-10-08T03:50:57Z</time></trkpt>
<trkpt lat="29.898232" lon="93.569073">
<time>2016-10-08T03:50:58Z</time></trkpt>
<trkpt lat="29.898222" lon="93.568963">
<time>2016-10-08T03:50:59Z</time></trkpt>
<trkpt lat="29.898202" lon="93.568843">
<time>2016-10-08T03:51:00Z</time></trkpt>
<trkpt lat="29.898192" lon="93.568753">
<time>2016-10-08T03:51:01Z</time></trkpt>
<trkpt lat="29.898172" lon="93.568653">
<time>2016-10-08T03:51:02Z</time></trkpt>
<trkpt lat="29.898162" lon="93.568573">
<time>2016-10-08T03:51:03Z</time></trkpt>
<trkpt lat="29.898142" lon="93.568492">
<time>2016-10-08T03:51:04Z</time></trkpt>
<trkpt lat="29.898121" lon="93.568422">
<time>2016-10-08T03:51:05Z</time></trkpt>
<trkpt lat="29.898101" lon="93.568342">
<time>2016-10-08T03:51:06Z</time></trkpt>
<trkpt lat="29.898091" lon="93.568282">
<time>2016-10-08T03:51:07Z</time></trkpt>
<trkpt lat="29.898071" lon="93.568222">
<time>2016-10-08T03:51:08Z</time></trkpt>
<trkpt lat="29.898051" lon="93.568142">
<time>2016-10-08T03:51:09Z</time></trkpt>
<trkpt lat="29.898001" lon="93.567992">
<time>2016-10-08T03:51:10Z</time></trkpt>
<trkpt lat="29.897911" lon="93.567711">
<time>2016-10-08T03:51:11Z</time></trkpt>
<trkpt lat="29.89787" lon="93.567591">
<time>2016-10-08T03:51:12Z</time></trkpt>
<trkpt lat="29.89781" lon="93.567401">
<time>2016-10-08T03:51:13Z</time></trkpt>
<trkpt lat="29.897619" lon="93.56682">
<time>2016-10-08T03:51:14Z</time></trkpt>
<trkpt lat="29.897419" lon="93.566209">
<time>2016-10-08T03:51:15Z</time></trkpt>
<trkpt lat="29.897218" lon="93.565568">
<time>2016-10-08T03:51:16Z</time></trkpt>
<trkpt lat="29.897147" lon="93.565378">
<time>2016-10-08T03:51:17Z</time></trkpt>
<trkpt lat="29.897117" lon="93.565267">
<time>2016-10-08T03:51:18Z</time></trkpt>
<trkpt lat="29.897097" lon="93.565167">
<time>2016-10-08T03:51:19Z</time></trkpt>
<trkpt lat="29.897087" lon="93.565097">
<time>2016-10-08T03:51:20Z</time></trkpt>
<trkpt lat="29.897067" lon="93.565017">
<time>2016-10-08T03:51:21Z</time></trkpt>
<trkpt lat="29.897077" lon="93.564937">
<time>2016-10-08T03:51:22Z</time></trkpt>
<trkpt lat="29.897077" lon="93.564837">
<time>2016-10-08T03:51:23Z</time></trkpt>
<trkpt lat="29.897087" lon="93.564706">
<time>2016-10-08T03:51:24Z</time></trkpt>
<trkpt lat="29.897136" lon="93.564356">
<time>2016-10-08T03:51:25Z</time></trkpt>
<trkpt lat="29.897185" lon="93.563905">
<time>2016-10-08T03:51:26Z</time></trkpt>
<trkpt lat="29.897215" lon="93.563695">
<time>2016-10-08T03:51:27Z</time></trkpt>
<trkpt lat="29.897235" lon="93.563594">
<time>2016-10-08T03:51:28Z</time></trkpt>
<trkpt lat="29.897245" lon="93.563424">
<time>2016-10-08T03:51:29Z</time></trkpt>
<trkpt lat="29.897255" lon="93.563324">
<time>2016-10-08T03:51:30Z</time></trkpt>
<trkpt lat="29.897254" lon="93.563194">
<time>2016-10-08T03:51:31Z</time></trkpt>
<trkpt lat="29.897254" lon="93.563054">
<time>2016-10-08T03:51:32Z</time></trkpt>
<trkpt lat="29.897244" lon="93.562873">
<time>2016-10-08T03:51:33Z</time></trkpt>
<trkpt lat="29.897234" lon="93.562733">
<time>2016-10-08T03:51:34Z</time></trkpt>
<trkpt lat="29.897213" lon="93.562603">
<time>2016-10-08T03:51:35Z</time></trkpt>
<trkpt lat="29.897193" lon="93.562513">
<time>2016-10-08T03:51:36Z</time></trkpt>
<trkpt lat="29.897163" lon="93.562402">
<time>2016-10-08T03:51:37Z</time></trkpt>
<trkpt lat="29.897123" lon="93.562292">
<time>2016-10-08T03:51:38Z</time></trkpt>
<trkpt lat="29.897083" lon="93.562172">
<time>2016-10-08T03:51:39Z</time></trkpt>
<trkpt lat="29.897043" lon="93.562062">
<time>2016-10-08T03:51:40Z</time></trkpt>
<trkpt lat="29.897002" lon="93.561962">
<time>2016-10-08T03:51:41Z</time></trkpt>
<trkpt lat="29.896972" lon="93.561881">
<time>2016-10-08T03:51:42Z</time></trkpt>
<trkpt lat="29.896892" lon="93.561741">
<time>2016-10-08T03:51:43Z</time></trkpt>
<trkpt lat="29.896832" lon="93.561641">
<time>2016-10-08T03:51:44Z</time></trkpt>
<trkpt lat="29.896762" lon="93.561531">
<time>2016-10-08T03:51:45Z</time></trkpt>
<trkpt lat="29.896662" lon="93.561391">
<time>2016-10-08T03:51:46Z</time></trkpt>
<trkpt lat="29.8961" lon="93.560659">
<time>2016-10-08T03:51:47Z</time></trkpt>
<trkpt lat="29.89572" lon="93.560148">
<time>2016-10-08T03:51:48Z</time></trkpt>
<trkpt lat="29.895609" lon="93.560018">
<time>2016-10-08T03:51:49Z</time></trkpt>
<trkpt lat="29.895409" lon="93.559747">
<time>2016-10-08T03:51:50Z</time></trkpt>
<trkpt lat="29.895249" lon="93.559537">
<time>2016-10-08T03:51:51Z</time></trkpt>
<trkpt lat="29.895189" lon="93.559437">
<time>2016-10-08T03:51:52Z</time></trkpt>
<trkpt lat="29.895118" lon="93.559317">
<time>2016-10-08T03:51:53Z</time></trkpt>
<trkpt lat="29.895068" lon="93.559206">
<time>2016-10-08T03:51:54Z</time></trkpt>
<trkpt lat="29.895028" lon="93.559126">
<time>2016-10-08T03:51:55Z</time></trkpt>
<trkpt lat="29.894978" lon="93.558996">
<time>2016-10-08T03:51:56Z</time></trkpt>
<trkpt lat="29.894887" lon="93.558756">
<time>2016-10-08T03:51:57Z</time></trkpt>
<trkpt lat="29.894817" lon="93.558525">
<time>2016-10-08T03:51:58Z</time></trkpt>
<trkpt lat="29.894727" lon="93.558295">
<time>2016-10-08T03:51:59Z</time></trkpt>
<trkpt lat="29.894646" lon="93.558034">
<time>2016-10-08T03:52:00Z</time></trkpt>
<trkpt lat="29.894626" lon="93.557984">
<time>2016-10-08T03:52:01Z</time></trkpt>
<trkpt lat="29.894345" lon="93.557142">
<time>2016-10-08T03:52:02Z</time></trkpt>
<trkpt lat="29.894124" lon="93.556501">
<time>2016-10-08T03:52:03Z</time></trkpt>
<trkpt lat="29.893993" lon="93.55612">
<time>2016-10-08T03:52:04Z</time></trkpt>
<trkpt lat="29.893892" lon="93.5558">
<time>2016-10-08T03:52:05Z</time></trkpt>
<trkpt lat="29.893802" lon="93.555549">
<time>2016-10-08T03:52:06Z</time></trkpt>
<trkpt lat="29.893681" lon="93.555198">
<time>2016-10-08T03:52:07Z</time></trkpt>
<trkpt lat="29.893641" lon="93.555048">
<time>2016-10-08T03:52:08Z</time></trkpt>
<trkpt lat="29.89352" lon="93.554717">
<time>2016-10-08T03:52:09Z</time></trkpt>
<trkpt lat="29.89338" lon="93.554306">
<time>2016-10-08T03:52:10Z</time></trkpt>
<trkpt lat="29.89336" lon="93.554246">
<time>2016-10-08T03:52:11Z</time></trkpt>
<trkpt lat="29.893339" lon="93.554176">
<time>2016-10-08T03:52:12Z</time></trkpt>
<trkpt lat="29.893329" lon="93.554116">
<time>2016-10-08T03:52:13Z</time></trkpt>
<trkpt lat="29.893319" lon="93.554036">
<time>2016-10-08T03:52:14Z</time></trkpt>
<trkpt lat="29.893309" lon="93.553966">
<time>2016-10-08T03:52:15Z</time></trkpt>
<trkpt lat="29.893309" lon="93.553906">
<time>2016-10-08T03:52:16Z</time></trkpt>
<trkpt lat="29.893319" lon="93.553835">
<time>2016-10-08T03:52:17Z</time></trkpt>
<trkpt lat="29.893329" lon="93.553755">
<time>2016-10-08T03:52:18Z</time></trkpt>
<trkpt lat="29.893368" lon="93.553595">
<time>2016-10-08T03:52:19Z</time></trkpt>
<trkpt lat="29.893418" lon="93.553354">
<time>2016-10-08T03:52:20Z</time></trkpt>
<trkpt lat="29.893507" lon="93.552953">
<time>2016-10-08T03:52:21Z</time></trkpt>
<trkpt lat="29.893527" lon="93.552863">
<time>2016-10-08T03:52:22Z</time></trkpt>
<trkpt lat="29.893557" lon="93.552743">
<time>2016-10-08T03:52:23Z</time></trkpt>
<trkpt lat="29.893586" lon="93.552553">
<time>2016-10-08T03:52:24Z</time></trkpt>
<trkpt lat="29.893656" lon="93.552182">
<time>2016-10-08T03:52:25Z</time></trkpt>
<trkpt lat="29.893685" lon="93.551951">
<time>2016-10-08T03:52:26Z</time></trkpt>
<trkpt lat="29.893725" lon="93.551671">
<time>2016-10-08T03:52:27Z</time></trkpt>
<trkpt lat="29.893774" lon="93.55123">
<time>2016-10-08T03:52:28Z</time></trkpt>
<trkpt lat="29.893794" lon="93.551069">
<time>2016-10-08T03:52:29Z</time></trkpt>
<trkpt lat="29.893803" lon="93.550979">
<time>2016-10-08T03:52:30Z</time></trkpt>
<trkpt lat="29.893823" lon="93.550879">
<time>2016-10-08T03:52:31Z</time></trkpt>
<trkpt lat="29.893843" lon="93.550799">
<time>2016-10-08T03:52:32Z</time></trkpt>
<trkpt lat="29.893873" lon="93.550628">
<time>2016-10-08T03:52:33Z</time></trkpt>
<trkpt lat="29.893912" lon="93.550488">
<time>2016-10-08T03:52:34Z</time></trkpt>
<trkpt lat="29.893972" lon="93.550297">
<time>2016-10-08T03:52:35Z</time></trkpt>
<trkpt lat="29.894052" lon="93.550027">
<time>2016-10-08T03:52:36Z</time></trkpt>
<trkpt lat="29.894151" lon="93.549726">
<time>2016-10-08T03:52:37Z</time></trkpt>
<trkpt lat="29.89421" lon="93.549516">
<time>2016-10-08T03:52:38Z</time></trkpt>
<trkpt lat="29.89426" lon="93.549365">
<time>2016-10-08T03:52:39Z</time></trkpt>
<trkpt lat="29.89429" lon="93.549205">
<time>2016-10-08T03:52:40Z</time></trkpt>
<trkpt lat="29.894319" lon="93.549024">
<time>2016-10-08T03:52:41Z</time></trkpt>
<trkpt lat="29.894339" lon="93.548734">
<time>2016-10-08T03:52:42Z</time></trkpt>
<trkpt lat="29.894358" lon="93.548323">
<time>2016-10-08T03:52:43Z</time></trkpt>
<trkpt lat="29.894358" lon="93.548072">
<time>2016-10-08T03:52:44Z</time></trkpt>
<trkpt lat="29.894367" lon="93.547942">
<time>2016-10-08T03:52:45Z</time></trkpt>
<trkpt lat="29.894367" lon="93.547641">
<time>2016-10-08T03:52:46Z</time></trkpt>
<trkpt lat="29.894366" lon="93.547541">
<time>2016-10-08T03:52:47Z</time></trkpt>
<trkpt lat="29.894366" lon="93.547441">
<time>2016-10-08T03:52:48Z</time></trkpt>
<trkpt lat="29.894356" lon="93.54729">
<time>2016-10-08T03:52:49Z</time></trkpt>
<trkpt lat="29.894336" lon="93.54713">
<time>2016-10-08T03:52:50Z</time></trkpt>
<trkpt lat="29.894315" lon="93.546979">
<time>2016-10-08T03:52:51Z</time></trkpt>
<trkpt lat="29.894265" lon="93.546669">
<time>2016-10-08T03:52:52Z</time></trkpt>
<trkpt lat="29.894224" lon="93.546428">
<time>2016-10-08T03:52:53Z</time></trkpt>
<trkpt lat="29.894204" lon="93.546328">
<time>2016-10-08T03:52:54Z</time></trkpt>
<trkpt lat="29.894184" lon="93.546208">
<time>2016-10-08T03:52:55Z</time></trkpt>
<trkpt lat="29.894153" lon="93.546107">
<time>2016-10-08T03:52:56Z</time></trkpt>
<trkpt lat="29.894133" lon="93.546037">
<time>2016-10-08T03:52:57Z</time></trkpt>
<trkpt lat="29.894123" lon="93.545997">
<time>2016-10-08T03:52:58Z</time></trkpt>
<trkpt lat="29.894093" lon="93.545937">
<time>2016-10-08T03:52:59Z</time></trkpt>
<trkpt lat="29.894083" lon="93.545887">
<time>2016-10-08T03:53:00Z</time></trkpt>
<trkpt lat="29.894053" lon="93.545837">
<time>2016-10-08T03:53:01Z</time></trkpt>
<trkpt lat="29.894033" lon="93.545786">
<time>2016-10-08T03:53:02Z</time></trkpt>
<trkpt lat="29.894013" lon="93.545736">
<time>2016-10-08T03:53:03Z</time></trkpt>
<trkpt lat="29.893983" lon="93.545686">
<time>2016-10-08T03:53:04Z</time></trkpt>
<trkpt lat="29.893952" lon="93.545626">
<time>2016-10-08T03:53:05Z</time></trkpt>
<trkpt lat="29.893872" lon="93.545466">
<time>2016-10-08T03:53:06Z</time></trkpt>
<trkpt lat="29.893792" lon="93.545295">
<time>2016-10-08T03:53:07Z</time></trkpt>
<trkpt lat="29.893721" lon="93.545135">
<time>2016-10-08T03:53:08Z</time></trkpt>
<trkpt lat="29.893631" lon="93.544884">
<time>2016-10-08T03:53:09Z</time></trkpt>
<trkpt lat="29.89356" lon="93.544654">
<time>2016-10-08T03:53:10Z</time></trkpt>
<trkpt lat="29.893419" lon="93.544202">
<time>2016-10-08T03:53:11Z</time></trkpt>
<trkpt lat="29.893298" lon="93.543801">
<time>2016-10-08T03:53:12Z</time></trkpt>
<trkpt lat="29.893258" lon="93.543661">
<time>2016-10-08T03:53:13Z</time></trkpt>
<trkpt lat="29.893238" lon="93.543571">
<time>2016-10-08T03:53:14Z</time></trkpt>
<trkpt lat="29.893198" lon="93.54342">
<time>2016-10-08T03:53:15Z</time></trkpt>
<trkpt lat="29.893187" lon="93.54335">
<time>2016-10-08T03:53:16Z</time></trkpt>
<trkpt lat="29.893177" lon="93.54327">
<time>2016-10-08T03:53:17Z</time></trkpt>
<trkpt lat="29.893157" lon="93.54318">
<time>2016-10-08T03:53:18Z</time></trkpt>
<trkpt lat="29.893137" lon="93.543019">
<time>2016-10-08T03:53:19Z</time></trkpt>
<trkpt lat="29.893137" lon="93.542939">
<time>2016-10-08T03:53:20Z</time></trkpt>
<trkpt lat="29.893126" lon="93.542869">
<time>2016-10-08T03:53:21Z</time></trkpt>
<trkpt lat="29.893126" lon="93.542799">
<time>2016-10-08T03:53:22Z</time></trkpt>
<trkpt lat="29.893126" lon="93.542709">
<time>2016-10-08T03:53:23Z</time></trkpt>
<trkpt lat="29.893136" lon="93.542598">
<time>2016-10-08T03:53:24Z</time></trkpt>
<trkpt lat="29.893145" lon="93.542438">
<time>2016-10-08T03:53:25Z</time></trkpt>
<trkpt lat="29.893165" lon="93.542247">
<time>2016-10-08T03:53:26Z</time></trkpt>
<trkpt lat="29.893185" lon="93.542087">
<time>2016-10-08T03:53:27Z</time></trkpt>
<trkpt lat="29.893194" lon="93.541927">
<time>2016-10-08T03:53:28Z</time></trkpt>
<trkpt lat="29.893194" lon="93.541826">
<time>2016-10-08T03:53:29Z</time></trkpt>
<trkpt lat="29.893194" lon="93.541696">
<time>2016-10-08T03:53:30Z</time></trkpt>
<trkpt lat="29.893193" lon="93.541566">
<time>2016-10-08T03:53:31Z</time></trkpt>
<trkpt lat="29.893183" lon="93.541425">
<time>2016-10-08T03:53:32Z</time></trkpt>
<trkpt lat="29.893173" lon="93.541345">
<time>2016-10-08T03:53:33Z</time></trkpt>
<trkpt lat="29.893163" lon="93.541255">
<time>2016-10-08T03:53:34Z</time></trkpt>
<trkpt lat="29.893153" lon="93.541195">
<time>2016-10-08T03:53:35Z</time></trkpt>
<trkpt lat="29.893142" lon="93.541084">
<time>2016-10-08T03:53:36Z</time></trkpt>
<trkpt lat="29.893102" lon="93.540914">
<time>2016-10-08T03:53:37Z</time></trkpt>
<trkpt lat="29.893051" lon="93.540703">
<time>2016-10-08T03:53:38Z</time></trkpt>
<trkpt lat="29.893001" lon="93.540513">
<time>2016-10-08T03:53:39Z</time></trkpt>
<trkpt lat="29.89286" lon="93.540082">
<time>2016-10-08T03:53:40Z</time></trkpt>
<trkpt lat="29.892709" lon="93.5396">
<time>2016-10-08T03:53:41Z</time></trkpt>
<trkpt lat="29.892558" lon="93.539089">
<time>2016-10-08T03:53:42Z</time></trkpt>
<trkpt lat="29.892467" lon="93.538788">
<time>2016-10-08T03:53:43Z</time></trkpt>
<trkpt lat="29.892396" lon="93.538578">
<time>2016-10-08T03:53:44Z</time></trkpt>
<trkpt lat="29.892376" lon="93.538507">
<time>2016-10-08T03:53:45Z</time></trkpt>
<trkpt lat="29.892366" lon="93.538437">
<time>2016-10-08T03:53:46Z</time></trkpt>
<trkpt lat="29.892366" lon="93.538387">
<time>2016-10-08T03:53:47Z</time></trkpt>
<trkpt lat="29.892366" lon="93.538337">
<time>2016-10-08T03:53:48Z</time></trkpt>
<trkpt lat="29.892376" lon="93.538277">
<time>2016-10-08T03:53:49Z</time></trkpt>
<trkpt lat="29.892386" lon="93.538227">
<time>2016-10-08T03:53:50Z</time></trkpt>
<trkpt lat="29.892396" lon="93.538186">
<time>2016-10-08T03:53:51Z</time></trkpt>
<trkpt lat="29.892405" lon="93.538146">
<time>2016-10-08T03:53:52Z</time></trkpt>
<trkpt lat="29.892415" lon="93.538126">
<time>2016-10-08T03:53:53Z</time></trkpt>
<trkpt lat="29.892425" lon="93.538106">
<time>2016-10-08T03:53:54Z</time></trkpt>
<trkpt lat="29.892435" lon="93.538066">
<time>2016-10-08T03:53:55Z</time></trkpt>
<trkpt lat="29.892445" lon="93.538036">
<time>2016-10-08T03:53:56Z</time></trkpt>
<trkpt lat="29.892475" lon="93.537996">
<time>2016-10-08T03:53:57Z</time></trkpt>
<trkpt lat="29.892515" lon="93.537926">
<time>2016-10-08T03:53:58Z</time></trkpt>
<trkpt lat="29.892575" lon="93.537795">
<time>2016-10-08T03:53:59Z</time></trkpt>
<trkpt lat="29.892604" lon="93.537715">
<time>2016-10-08T03:54:00Z</time></trkpt>
<trkpt lat="29.892624" lon="93.537685">
<time>2016-10-08T03:54:01Z</time></trkpt>
<trkpt lat="29.892634" lon="93.537635">
<time>2016-10-08T03:54:02Z</time></trkpt>
<trkpt lat="29.892654" lon="93.537555">
<time>2016-10-08T03:54:03Z</time></trkpt>
<trkpt lat="29.892664" lon="93.537505">
<time>2016-10-08T03:54:04Z</time></trkpt>
<trkpt lat="29.892674" lon="93.537444">
<time>2016-10-08T03:54:05Z</time></trkpt>
<trkpt lat="29.892674" lon="93.537364">
<time>2016-10-08T03:54:06Z</time></trkpt>
<trkpt lat="29.892673" lon="93.537294">
<time>2016-10-08T03:54:07Z</time></trkpt>
<trkpt lat="29.892663" lon="93.537244">
<time>2016-10-08T03:54:08Z</time></trkpt>
<trkpt lat="29.892663" lon="93.537164">
<time>2016-10-08T03:54:09Z</time></trkpt>
<trkpt lat="29.892633" lon="93.537013">
<time>2016-10-08T03:54:10Z</time></trkpt>
<trkpt lat="29.892592" lon="93.536863">
<time>2016-10-08T03:54:11Z</time></trkpt>
<trkpt lat="29.892522" lon="93.536582">
<time>2016-10-08T03:54:12Z</time></trkpt>
<trkpt lat="29.892441" lon="93.536301">
<time>2016-10-08T03:54:13Z</time></trkpt>
<trkpt lat="29.89235" lon="93.53603">
<time>2016-10-08T03:54:14Z</time></trkpt>
<trkpt lat="29.892219" lon="93.535659">
<time>2016-10-08T03:54:15Z</time></trkpt>
<trkpt lat="29.892189" lon="93.535569">
<time>2016-10-08T03:54:16Z</time></trkpt>
<trkpt lat="29.892179" lon="93.535469">
<time>2016-10-08T03:54:17Z</time></trkpt>
<trkpt lat="29.892169" lon="93.535399">
<time>2016-10-08T03:54:18Z</time></trkpt>
<trkpt lat="29.892179" lon="93.535318">
<time>2016-10-08T03:54:19Z</time></trkpt>
<trkpt lat="29.892189" lon="93.535278">
<time>2016-10-08T03:54:20Z</time></trkpt>
<trkpt lat="29.892198" lon="93.535218">
<time>2016-10-08T03:54:21Z</time></trkpt>
<trkpt lat="29.892228" lon="93.535148">
<time>2016-10-08T03:54:22Z</time></trkpt>
<trkpt lat="29.892258" lon="93.535088">
<time>2016-10-08T03:54:23Z</time></trkpt>
<trkpt lat="29.892318" lon="93.534987">
<time>2016-10-08T03:54:24Z</time></trkpt>
<trkpt lat="29.892397" lon="93.534807">
<time>2016-10-08T03:54:25Z</time></trkpt>
<trkpt lat="29.892437" lon="93.534697">
<time>2016-10-08T03:54:26Z</time></trkpt>
<trkpt lat="29.892477" lon="93.534586">
<time>2016-10-08T03:54:27Z</time></trkpt>
<trkpt lat="29.892496" lon="93.534466">
<time>2016-10-08T03:54:28Z</time></trkpt>
<trkpt lat="29.892526" lon="93.534305">
<time>2016-10-08T03:54:29Z</time></trkpt>
<trkpt lat="29.892575" lon="93.533964">
<time>2016-10-08T03:54:30Z</time></trkpt>
<trkpt lat="29.892644" lon="93.533503">
<time>2016-10-08T03:54:31Z</time></trkpt>
<trkpt lat="29.892693" lon="93.533112">
<time>2016-10-08T03:54:32Z</time></trkpt>
<trkpt lat="29.892752" lon="93.532721">
<time>2016-10-08T03:54:33Z</time></trkpt>
<trkpt lat="29.892801" lon="93.53231">
<time>2016-10-08T03:54:34Z</time></trkpt>
<trkpt lat="29.892821" lon="93.532119">
<time>2016-10-08T03:54:35Z</time></trkpt>
<trkpt lat="29.89283" lon="93.531908">
<time>2016-10-08T03:54:36Z</time></trkpt>
<trkpt lat="29.89283" lon="93.531788">
<time>2016-10-08T03:54:37Z</time></trkpt>
<trkpt lat="29.892819" lon="93.531577">
<time>2016-10-08T03:54:38Z</time></trkpt>
<trkpt lat="29.892789" lon="93.531387">
<time>2016-10-08T03:54:39Z</time></trkpt>
<trkpt lat="29.892758" lon="93.531236">
<time>2016-10-08T03:54:40Z</time></trkpt>
<trkpt lat="29.892718" lon="93.531106">
<time>2016-10-08T03:54:41Z</time></trkpt>
<trkpt lat="29.892627" lon="93.530845">
<time>2016-10-08T03:54:42Z</time></trkpt>
<trkpt lat="29.892527" lon="93.530595">
<time>2016-10-08T03:54:43Z</time></trkpt>
<trkpt lat="29.892386" lon="93.530264">
<time>2016-10-08T03:54:44Z</time></trkpt>
<trkpt lat="29.892225" lon="93.529882">
<time>2016-10-08T03:54:45Z</time></trkpt>
<trkpt lat="29.892104" lon="93.529582">
<time>2016-10-08T03:54:46Z</time></trkpt>
<trkpt lat="29.891953" lon="93.52923">
<time>2016-10-08T03:54:47Z</time></trkpt>
<trkpt lat="29.891903" lon="93.5291">
<time>2016-10-08T03:54:48Z</time></trkpt>
<trkpt lat="29.891782" lon="93.528799">
<time>2016-10-08T03:54:49Z</time></trkpt>
<trkpt lat="29.891651" lon="93.528458">
<time>2016-10-08T03:54:50Z</time></trkpt>
<trkpt lat="29.89151" lon="93.528137">
<time>2016-10-08T03:54:51Z</time></trkpt>
<trkpt lat="29.891228" lon="93.527445">
<time>2016-10-08T03:54:52Z</time></trkpt>
<trkpt lat="29.891007" lon="93.526893">
<time>2016-10-08T03:54:53Z</time></trkpt>
<trkpt lat="29.890785" lon="93.526352">
<time>2016-10-08T03:54:54Z</time></trkpt>
<trkpt lat="29.890604" lon="93.52593">
<time>2016-10-08T03:54:55Z</time></trkpt>
<trkpt lat="29.890463" lon="93.525589">
<time>2016-10-08T03:54:56Z</time></trkpt>
<trkpt lat="29.890272" lon="93.525128">
<time>2016-10-08T03:54:57Z</time></trkpt>
<trkpt lat="29.890212" lon="93.524967">
<time>2016-10-08T03:54:58Z</time></trkpt>
<trkpt lat="29.890111" lon="93.524696">
<time>2016-10-08T03:54:59Z</time></trkpt>
<trkpt lat="29.890051" lon="93.524536">
<time>2016-10-08T03:55:00Z</time></trkpt>
<trkpt lat="29.88999" lon="93.524365">
<time>2016-10-08T03:55:01Z</time></trkpt>
<trkpt lat="29.889839" lon="93.523894">
<time>2016-10-08T03:55:02Z</time></trkpt>
<trkpt lat="29.889526" lon="93.522901">
<time>2016-10-08T03:55:03Z</time></trkpt>
<trkpt lat="29.889193" lon="93.521868">
<time>2016-10-08T03:55:04Z</time></trkpt>
<trkpt lat="29.888901" lon="93.520945">
<time>2016-10-08T03:55:05Z</time></trkpt>
<trkpt lat="29.88883" lon="93.520754">
<time>2016-10-08T03:55:06Z</time></trkpt>
<trkpt lat="29.88874" lon="93.520533">
<time>2016-10-08T03:55:07Z</time></trkpt>
<trkpt lat="29.888589" lon="93.520222">
<time>2016-10-08T03:55:08Z</time></trkpt>
<trkpt lat="29.888348" lon="93.519821">
<time>2016-10-08T03:55:09Z</time></trkpt>
<trkpt lat="29.887966" lon="93.519249">
<time>2016-10-08T03:55:10Z</time></trkpt>
<trkpt lat="29.887795" lon="93.519018">
<time>2016-10-08T03:55:11Z</time></trkpt>
<trkpt lat="29.887685" lon="93.518878">
<time>2016-10-08T03:55:12Z</time></trkpt>
<trkpt lat="29.887585" lon="93.518768">
<time>2016-10-08T03:55:13Z</time></trkpt>
<trkpt lat="29.887384" lon="93.518547">
<time>2016-10-08T03:55:14Z</time></trkpt>
<trkpt lat="29.887093" lon="93.518216">
<time>2016-10-08T03:55:15Z</time></trkpt>
<trkpt lat="29.886942" lon="93.518025">
<time>2016-10-08T03:55:16Z</time></trkpt>
<trkpt lat="29.886752" lon="93.517784">
<time>2016-10-08T03:55:17Z</time></trkpt>
<trkpt lat="29.886511" lon="93.517433">
<time>2016-10-08T03:55:18Z</time></trkpt>
<trkpt lat="29.88638" lon="93.517243">
<time>2016-10-08T03:55:19Z</time></trkpt>
<trkpt lat="29.88629" lon="93.517102">
<time>2016-10-08T03:55:20Z</time></trkpt>
<trkpt lat="29.88625" lon="93.517032">
<time>2016-10-08T03:55:21Z</time></trkpt>
<trkpt lat="29.886209" lon="93.516942">
<time>2016-10-08T03:55:22Z</time></trkpt>
<trkpt lat="29.886199" lon="93.516831">
<time>2016-10-08T03:55:23Z</time></trkpt>
<trkpt lat="29.886199" lon="93.516751">
<time>2016-10-08T03:55:24Z</time></trkpt>
<trkpt lat="29.886209" lon="93.516681">
<time>2016-10-08T03:55:25Z</time></trkpt>
<trkpt lat="29.886219" lon="93.516641">
<time>2016-10-08T03:55:26Z</time></trkpt>
<trkpt lat="29.886248" lon="93.51658">
<time>2016-10-08T03:55:27Z</time></trkpt>
<trkpt lat="29.886258" lon="93.51655">
<time>2016-10-08T03:55:28Z</time></trkpt>
<trkpt lat="29.886308" lon="93.51647">
<time>2016-10-08T03:55:29Z</time></trkpt>
<trkpt lat="29.886358" lon="93.51641">
<time>2016-10-08T03:55:30Z</time></trkpt>
<trkpt lat="29.886398" lon="93.51637">
<time>2016-10-08T03:55:31Z</time></trkpt>
<trkpt lat="29.886478" lon="93.51632">
<time>2016-10-08T03:55:32Z</time></trkpt>
<trkpt lat="29.886587" lon="93.516259">
<time>2016-10-08T03:55:33Z</time></trkpt>
<trkpt lat="29.886677" lon="93.516219">
<time>2016-10-08T03:55:34Z</time></trkpt>
<trkpt lat="29.886927" lon="93.516079">
<time>2016-10-08T03:55:35Z</time></trkpt>
<trkpt lat="29.887187" lon="93.515948">
<time>2016-10-08T03:55:36Z</time></trkpt>
<trkpt lat="29.887376" lon="93.515818">
<time>2016-10-08T03:55:37Z</time></trkpt>
<trkpt lat="29.887526" lon="93.515697">
<time>2016-10-08T03:55:38Z</time></trkpt>
<trkpt lat="29.887655" lon="93.515577">
<time>2016-10-08T03:55:39Z</time></trkpt>
<trkpt lat="29.887755" lon="93.515507">
<time>2016-10-08T03:55:40Z</time></trkpt>
<trkpt lat="29.887875" lon="93.515427">
<time>2016-10-08T03:55:41Z</time></trkpt>
<trkpt lat="29.888165" lon="93.515286">
<time>2016-10-08T03:55:42Z</time></trkpt>
<trkpt lat="29.888424" lon="93.515166">
<time>2016-10-08T03:55:43Z</time></trkpt>
<trkpt lat="29.888704" lon="93.515025">
<time>2016-10-08T03:55:44Z</time></trkpt>
<trkpt lat="29.888884" lon="93.514925">
<time>2016-10-08T03:55:45Z</time></trkpt>
<trkpt lat="29.889003" lon="93.514835">
<time>2016-10-08T03:55:46Z</time></trkpt>
<trkpt lat="29.889173" lon="93.514684">
<time>2016-10-08T03:55:47Z</time></trkpt>
<trkpt lat="29.889462" lon="93.514403">
<time>2016-10-08T03:55:48Z</time></trkpt>
<trkpt lat="29.889631" lon="93.514223">
<time>2016-10-08T03:55:49Z</time></trkpt>
<trkpt lat="29.889911" lon="93.513942">
<time>2016-10-08T03:55:50Z</time></trkpt>
<trkpt lat="29.89005" lon="93.513781">
<time>2016-10-08T03:55:51Z</time></trkpt>
<trkpt lat="29.89014" lon="93.513671">
<time>2016-10-08T03:55:52Z</time></trkpt>
<trkpt lat="29.890329" lon="93.51344">
<time>2016-10-08T03:55:53Z</time></trkpt>
<trkpt lat="29.890469" lon="93.513249">
<time>2016-10-08T03:55:54Z</time></trkpt>
<trkpt lat="29.890568" lon="93.513079">
<time>2016-10-08T03:55:55Z</time></trkpt>
<trkpt lat="29.890747" lon="93.512768">
<time>2016-10-08T03:55:56Z</time></trkpt>
<trkpt lat="29.890876" lon="93.512507">
<time>2016-10-08T03:55:57Z</time></trkpt>
<trkpt lat="29.890926" lon="93.512396">
<time>2016-10-08T03:55:58Z</time></trkpt>
<trkpt lat="29.891016" lon="93.512186">
<time>2016-10-08T03:55:59Z</time></trkpt>
<trkpt lat="29.891204" lon="93.511694">
<time>2016-10-08T03:56:00Z</time></trkpt>
<trkpt lat="29.891432" lon="93.511112">
<time>2016-10-08T03:56:01Z</time></trkpt>
<trkpt lat="29.891492" lon="93.510952">
<time>2016-10-08T03:56:02Z</time></trkpt>
<trkpt lat="29.891591" lon="93.510721">
<time>2016-10-08T03:56:03Z</time></trkpt>
<trkpt lat="29.891661" lon="93.51056">
<time>2016-10-08T03:56:04Z</time></trkpt>
<trkpt lat="29.89171" lon="93.51046">
<time>2016-10-08T03:56:05Z</time></trkpt>
<trkpt lat="29.8918" lon="93.510289">
<time>2016-10-08T03:56:06Z</time></trkpt>
<trkpt lat="29.891939" lon="93.510038">
<time>2016-10-08T03:56:07Z</time></trkpt>
<trkpt lat="29.891999" lon="93.509908">
<time>2016-10-08T03:56:08Z</time></trkpt>
<trkpt lat="29.892108" lon="93.509637">
<time>2016-10-08T03:56:09Z</time></trkpt>
<trkpt lat="29.892247" lon="93.509266">
<time>2016-10-08T03:56:10Z</time></trkpt>
<trkpt lat="29.892485" lon="93.508563">
<time>2016-10-08T03:56:11Z</time></trkpt>
<trkpt lat="29.892554" lon="93.508343">
<time>2016-10-08T03:56:12Z</time></trkpt>
<trkpt lat="29.892604" lon="93.508152">
<time>2016-10-08T03:56:13Z</time></trkpt>
<trkpt lat="29.892623" lon="93.508012">
<time>2016-10-08T03:56:14Z</time></trkpt>
<trkpt lat="29.892633" lon="93.507821">
<time>2016-10-08T03:56:15Z</time></trkpt>
<trkpt lat="29.892612" lon="93.50765">
<time>2016-10-08T03:56:16Z</time></trkpt>
<trkpt lat="29.892592" lon="93.50748">
<time>2016-10-08T03:56:17Z</time></trkpt>
<trkpt lat="29.892551" lon="93.507249">
<time>2016-10-08T03:56:18Z</time></trkpt>
<trkpt lat="29.892469" lon="93.506767">
<time>2016-10-08T03:56:19Z</time></trkpt>
<trkpt lat="29.892449" lon="93.506627">
<time>2016-10-08T03:56:20Z</time></trkpt>
<trkpt lat="29.892429" lon="93.506466">
<time>2016-10-08T03:56:21Z</time></trkpt>
<trkpt lat="29.892408" lon="93.506205">
<time>2016-10-08T03:56:22Z</time></trkpt>
<trkpt lat="29.892427" lon="93.505904">
<time>2016-10-08T03:56:23Z</time></trkpt>
<trkpt lat="29.892427" lon="93.505904">
<time>2016-10-08T03:56:24Z</time></trkpt>
<trkpt lat="29.892093" lon="93.50462">
<time>2016-10-08T03:56:25Z</time></trkpt>
<trkpt lat="29.891621" lon="93.503817">
<time>2016-10-08T03:56:26Z</time></trkpt>
<trkpt lat="29.891279" lon="93.503276">
<time>2016-10-08T03:56:27Z</time></trkpt>
<trkpt lat="29.890878" lon="93.502774">
<time>2016-10-08T03:56:28Z</time></trkpt>
<trkpt lat="29.890707" lon="93.502483">
<time>2016-10-08T03:56:29Z</time></trkpt>
<trkpt lat="29.890384" lon="93.50155">
<time>2016-10-08T03:56:30Z</time></trkpt>
<trkpt lat="29.890051" lon="93.500486">
<time>2016-10-08T03:56:31Z</time></trkpt>
<trkpt lat="29.889889" lon="93.500034">
<time>2016-10-08T03:56:32Z</time></trkpt>
<trkpt lat="29.889476" lon="93.498951">
<time>2016-10-08T03:56:33Z</time></trkpt>
<trkpt lat="29.889436" lon="93.49875">
<time>2016-10-08T03:56:34Z</time></trkpt>
<trkpt lat="29.889223" lon="93.497737">
<time>2016-10-08T03:56:35Z</time></trkpt>
<trkpt lat="29.889008" lon="93.496211">
<time>2016-10-08T03:56:36Z</time></trkpt>
<trkpt lat="29.88853" lon="93.493542">
<time>2016-10-08T03:56:37Z</time></trkpt>
<trkpt lat="29.88853" lon="93.493542">
<time>2016-10-08T03:56:38Z</time></trkpt>
<trkpt lat="29.88847" lon="93.493392">
<time>2016-10-08T03:56:39Z</time></trkpt>
<trkpt lat="29.888419" lon="93.493251">
<time>2016-10-08T03:56:40Z</time></trkpt>
<trkpt lat="29.888389" lon="93.493121">
<time>2016-10-08T03:56:41Z</time></trkpt>
<trkpt lat="29.888338" lon="93.49293">
<time>2016-10-08T03:56:42Z</time></trkpt>
<trkpt lat="29.888308" lon="93.49279">
<time>2016-10-08T03:56:43Z</time></trkpt>
<trkpt lat="29.888247" lon="93.492499">
<time>2016-10-08T03:56:44Z</time></trkpt>
<trkpt lat="29.888186" lon="93.492238">
<time>2016-10-08T03:56:45Z</time></trkpt>
<trkpt lat="29.888135" lon="93.491977">
<time>2016-10-08T03:56:46Z</time></trkpt>
<trkpt lat="29.888125" lon="93.491786">
<time>2016-10-08T03:56:47Z</time></trkpt>
<trkpt lat="29.888144" lon="93.491646">
<time>2016-10-08T03:56:48Z</time></trkpt>
<trkpt lat="29.888174" lon="93.491465">
<time>2016-10-08T03:56:49Z</time></trkpt>
<trkpt lat="29.888253" lon="93.491134">
<time>2016-10-08T03:56:50Z</time></trkpt>
<trkpt lat="29.88845" lon="93.490291">
<time>2016-10-08T03:56:51Z</time></trkpt>
<trkpt lat="29.888677" lon="93.489338">
<time>2016-10-08T03:56:52Z</time></trkpt>
<trkpt lat="29.888747" lon="93.489067">
<time>2016-10-08T03:56:53Z</time></trkpt>
<trkpt lat="29.888836" lon="93.488796">
<time>2016-10-08T03:56:54Z</time></trkpt>
<trkpt lat="29.888905" lon="93.488636">
<time>2016-10-08T03:56:55Z</time></trkpt>
<trkpt lat="29.888995" lon="93.488455">
<time>2016-10-08T03:56:56Z</time></trkpt>
<trkpt lat="29.889104" lon="93.488265">
<time>2016-10-08T03:56:57Z</time></trkpt>
<trkpt lat="29.889204" lon="93.488064">
<time>2016-10-08T03:56:58Z</time></trkpt>
<trkpt lat="29.889313" lon="93.487873">
<time>2016-10-08T03:56:59Z</time></trkpt>
<trkpt lat="29.889433" lon="93.487683">
<time>2016-10-08T03:57:00Z</time></trkpt>
<trkpt lat="29.889512" lon="93.487572">
<time>2016-10-08T03:57:01Z</time></trkpt>
<trkpt lat="29.889672" lon="93.487341">
<time>2016-10-08T03:57:02Z</time></trkpt>
<trkpt lat="29.889821" lon="93.487091">
<time>2016-10-08T03:57:03Z</time></trkpt>
<trkpt lat="29.89009" lon="93.486679">
<time>2016-10-08T03:57:04Z</time></trkpt>
<trkpt lat="29.890219" lon="93.486448">
<time>2016-10-08T03:57:05Z</time></trkpt>
<trkpt lat="29.890298" lon="93.486308">
<time>2016-10-08T03:57:06Z</time></trkpt>
<trkpt lat="29.890348" lon="93.486188">
<time>2016-10-08T03:57:07Z</time></trkpt>
<trkpt lat="29.890418" lon="93.486037">
<time>2016-10-08T03:57:08Z</time></trkpt>
<trkpt lat="29.890477" lon="93.485846">
<time>2016-10-08T03:57:09Z</time></trkpt>
<trkpt lat="29.890527" lon="93.485696">
<time>2016-10-08T03:57:10Z</time></trkpt>
<trkpt lat="29.890536" lon="93.485616">
<time>2016-10-08T03:57:11Z</time></trkpt>
<trkpt lat="29.890556" lon="93.485505">
<time>2016-10-08T03:57:12Z</time></trkpt>
<trkpt lat="29.890586" lon="93.485355">
<time>2016-10-08T03:57:13Z</time></trkpt>
<trkpt lat="29.890625" lon="93.485094">
<time>2016-10-08T03:57:14Z</time></trkpt>
<trkpt lat="29.890792" lon="93.484091">
<time>2016-10-08T03:57:15Z</time></trkpt>
<trkpt lat="29.890811" lon="93.48391">
<time>2016-10-08T03:57:16Z</time></trkpt>
<trkpt lat="29.890851" lon="93.483739">
<time>2016-10-08T03:57:17Z</time></trkpt>
<trkpt lat="29.890901" lon="93.483579">
<time>2016-10-08T03:57:18Z</time></trkpt>
<trkpt lat="29.89095" lon="93.483459">
<time>2016-10-08T03:57:19Z</time></trkpt>
<trkpt lat="29.89102" lon="93.483318">
<time>2016-10-08T03:57:20Z</time></trkpt>
<trkpt lat="29.891119" lon="93.483158">
<time>2016-10-08T03:57:21Z</time></trkpt>
<trkpt lat="29.891309" lon="93.482897">
<time>2016-10-08T03:57:22Z</time></trkpt>
<trkpt lat="29.891578" lon="93.482556">
<time>2016-10-08T03:57:23Z</time></trkpt>
<trkpt lat="29.891657" lon="93.482475">
<time>2016-10-08T03:57:24Z</time></trkpt>
<trkpt lat="29.891747" lon="93.482395">
<time>2016-10-08T03:57:25Z</time></trkpt>
<trkpt lat="29.891827" lon="93.482325">
<time>2016-10-08T03:57:26Z</time></trkpt>
<trkpt lat="29.891877" lon="93.482285">
<time>2016-10-08T03:57:27Z</time></trkpt>
<trkpt lat="29.891947" lon="93.482224">
<time>2016-10-08T03:57:28Z</time></trkpt>
<trkpt lat="29.892016" lon="93.482184">
<time>2016-10-08T03:57:29Z</time></trkpt>
<trkpt lat="29.892166" lon="93.482074">
<time>2016-10-08T03:57:30Z</time></trkpt>
<trkpt lat="29.892236" lon="93.482004">
<time>2016-10-08T03:57:31Z</time></trkpt>
<trkpt lat="29.892366" lon="93.481893">
<time>2016-10-08T03:57:32Z</time></trkpt>
<trkpt lat="29.892435" lon="93.481813">
<time>2016-10-08T03:57:33Z</time></trkpt>
<trkpt lat="29.892884" lon="93.481362">
<time>2016-10-08T03:57:34Z</time></trkpt>
<trkpt lat="29.893213" lon="93.481061">
<time>2016-10-08T03:57:35Z</time></trkpt>
<trkpt lat="29.893313" lon="93.48096">
<time>2016-10-08T03:57:36Z</time></trkpt>
<trkpt lat="29.893442" lon="93.48081">
<time>2016-10-08T03:57:37Z</time></trkpt>
<trkpt lat="29.893532" lon="93.480649">
<time>2016-10-08T03:57:38Z</time></trkpt>
<trkpt lat="29.893592" lon="93.480549">
<time>2016-10-08T03:57:39Z</time></trkpt>
<trkpt lat="29.893621" lon="93.480469">
<time>2016-10-08T03:57:40Z</time></trkpt>
<trkpt lat="29.893671" lon="93.480348">
<time>2016-10-08T03:57:41Z</time></trkpt>
<trkpt lat="29.893721" lon="93.480228">
<time>2016-10-08T03:57:42Z</time></trkpt>
<trkpt lat="29.89377" lon="93.480098">
<time>2016-10-08T03:57:43Z</time></trkpt>
<trkpt lat="29.89383" lon="93.479967">
<time>2016-10-08T03:57:44Z</time></trkpt>
<trkpt lat="29.8939" lon="93.479807">
<time>2016-10-08T03:57:45Z</time></trkpt>
<trkpt lat="29.894228" lon="93.479185">
<time>2016-10-08T03:57:46Z</time></trkpt>
<trkpt lat="29.894307" lon="93.479014">
<time>2016-10-08T03:57:47Z</time></trkpt>
<trkpt lat="29.894357" lon="93.478874">
<time>2016-10-08T03:57:48Z</time></trkpt>
<trkpt lat="29.894397" lon="93.478753">
<time>2016-10-08T03:57:49Z</time></trkpt>
<trkpt lat="29.894436" lon="93.478502">
<time>2016-10-08T03:57:50Z</time></trkpt>
<trkpt lat="29.894445" lon="93.478352">
<time>2016-10-08T03:57:51Z</time></trkpt>
<trkpt lat="29.894455" lon="93.478171">
<time>2016-10-08T03:57:52Z</time></trkpt>
<trkpt lat="29.894444" lon="93.477951">
<time>2016-10-08T03:57:53Z</time></trkpt>
<trkpt lat="29.894403" lon="93.477559">
<time>2016-10-08T03:57:54Z</time></trkpt>
<trkpt lat="29.894382" lon="93.477309">
<time>2016-10-08T03:57:55Z</time></trkpt>
<trkpt lat="29.894371" lon="93.476897">
<time>2016-10-08T03:57:56Z</time></trkpt>
<trkpt lat="29.894368" lon="93.475824">
<time>2016-10-08T03:57:57Z</time></trkpt>
<trkpt lat="29.894368" lon="93.475653">
<time>2016-10-08T03:57:58Z</time></trkpt>
<trkpt lat="29.894387" lon="93.475453">
<time>2016-10-08T03:57:59Z</time></trkpt>
<trkpt lat="29.894427" lon="93.475172">
<time>2016-10-08T03:58:00Z</time></trkpt>
<trkpt lat="29.894593" lon="93.473988">
<time>2016-10-08T03:58:01Z</time></trkpt>
<trkpt lat="29.894632" lon="93.473717">
<time>2016-10-08T03:58:02Z</time></trkpt>
<trkpt lat="29.894642" lon="93.473577">
<time>2016-10-08T03:58:03Z</time></trkpt>
<trkpt lat="29.894652" lon="93.473467">
<time>2016-10-08T03:58:04Z</time></trkpt>
<trkpt lat="29.894651" lon="93.473256">
<time>2016-10-08T03:58:05Z</time></trkpt>
<trkpt lat="29.894641" lon="93.473065">
<time>2016-10-08T03:58:06Z</time></trkpt>
<trkpt lat="29.8946" lon="93.472704">
<time>2016-10-08T03:58:07Z</time></trkpt>
<trkpt lat="29.894549" lon="93.472343">
<time>2016-10-08T03:58:08Z</time></trkpt>
<trkpt lat="29.894498" lon="93.471962">
<time>2016-10-08T03:58:09Z</time></trkpt>
<trkpt lat="29.894477" lon="93.471721">
<time>2016-10-08T03:58:10Z</time></trkpt>
<trkpt lat="29.894445" lon="93.471109">
<time>2016-10-08T03:58:11Z</time></trkpt>
<trkpt lat="29.894403" lon="93.470247">
<time>2016-10-08T03:58:12Z</time></trkpt>
<trkpt lat="29.894351" lon="93.469284">
<time>2016-10-08T03:58:13Z</time></trkpt>
<trkpt lat="29.89434" lon="93.469003">
<time>2016-10-08T03:58:14Z</time></trkpt>
<trkpt lat="29.894319" lon="93.468792">
<time>2016-10-08T03:58:15Z</time></trkpt>
<trkpt lat="29.894299" lon="93.468652">
<time>2016-10-08T03:58:16Z</time></trkpt>
<trkpt lat="29.894238" lon="93.468401">
<time>2016-10-08T03:58:17Z</time></trkpt>
<trkpt lat="29.894158" lon="93.468151">
<time>2016-10-08T03:58:18Z</time></trkpt>
<trkpt lat="29.893997" lon="93.467759">
<time>2016-10-08T03:58:19Z</time></trkpt>
<trkpt lat="29.893705" lon="93.467047">
<time>2016-10-08T03:58:20Z</time></trkpt>
<trkpt lat="29.893514" lon="93.466606">
<time>2016-10-08T03:58:21Z</time></trkpt>
<trkpt lat="29.893242" lon="93.466075">
<time>2016-10-08T03:58:22Z</time></trkpt>
<trkpt lat="29.892508" lon="93.46459">
<time>2016-10-08T03:58:23Z</time></trkpt>
<trkpt lat="29.892368" lon="93.46433">
<time>2016-10-08T03:58:24Z</time></trkpt>
<trkpt lat="29.892338" lon="93.464269">
<time>2016-10-08T03:58:25Z</time></trkpt>
<trkpt lat="29.891664" lon="93.462926">
<time>2016-10-08T03:58:26Z</time></trkpt>
<trkpt lat="29.89088" lon="93.461361">
<time>2016-10-08T03:58:27Z</time></trkpt>
<trkpt lat="29.890277" lon="93.460138">
<time>2016-10-08T03:58:28Z</time></trkpt>
<trkpt lat="29.890097" lon="93.459777">
<time>2016-10-08T03:58:29Z</time></trkpt>
<trkpt lat="29.889956" lon="93.459506">
<time>2016-10-08T03:58:30Z</time></trkpt>
<trkpt lat="29.889886" lon="93.459336">
<time>2016-10-08T03:58:31Z</time></trkpt>
<trkpt lat="29.889805" lon="93.459085">
<time>2016-10-08T03:58:32Z</time></trkpt>
<trkpt lat="29.889714" lon="93.458764">
<time>2016-10-08T03:58:33Z</time></trkpt>
<trkpt lat="29.889623" lon="93.458293">
<time>2016-10-08T03:58:34Z</time></trkpt>
<trkpt lat="29.889532" lon="93.457752">
<time>2016-10-08T03:58:35Z</time></trkpt>
<trkpt lat="29.889461" lon="93.457471">
<time>2016-10-08T03:58:36Z</time></trkpt>
<trkpt lat="29.889401" lon="93.457271">
<time>2016-10-08T03:58:37Z</time></trkpt>
<trkpt lat="29.88936" lon="93.45719">
<time>2016-10-08T03:58:38Z</time></trkpt>
<trkpt lat="29.88932" lon="93.45709">
<time>2016-10-08T03:58:39Z</time></trkpt>
<trkpt lat="29.88927" lon="93.45702">
<time>2016-10-08T03:58:40Z</time></trkpt>
<trkpt lat="29.88921" lon="93.45693">
<time>2016-10-08T03:58:41Z</time></trkpt>
<trkpt lat="29.88911" lon="93.456779">
<time>2016-10-08T03:58:42Z</time></trkpt>
<trkpt lat="29.888849" lon="93.456499">
<time>2016-10-08T03:58:43Z</time></trkpt>
<trkpt lat="29.888468" lon="93.456077">
<time>2016-10-08T03:58:44Z</time></trkpt>
<trkpt lat="29.888308" lon="93.455907">
<time>2016-10-08T03:58:45Z</time></trkpt>
<trkpt lat="29.888167" lon="93.455757">
<time>2016-10-08T03:58:46Z</time></trkpt>
<trkpt lat="29.888027" lon="93.455606">
<time>2016-10-08T03:58:47Z</time></trkpt>
<trkpt lat="29.887967" lon="93.455506">
<time>2016-10-08T03:58:48Z</time></trkpt>
<trkpt lat="29.887926" lon="93.455426">
<time>2016-10-08T03:58:49Z</time></trkpt>
<trkpt lat="29.887906" lon="93.455336">
<time>2016-10-08T03:58:50Z</time></trkpt>
<trkpt lat="29.887906" lon="93.455296">
<time>2016-10-08T03:58:51Z</time></trkpt>
<trkpt lat="29.887906" lon="93.455165">
<time>2016-10-08T03:58:52Z</time></trkpt>
<trkpt lat="29.887926" lon="93.455065">
<time>2016-10-08T03:58:53Z</time></trkpt>
<trkpt lat="29.887955" lon="93.454965">
<time>2016-10-08T03:58:54Z</time></trkpt>
<trkpt lat="29.888085" lon="93.454724">
<time>2016-10-08T03:58:55Z</time></trkpt>
<trkpt lat="29.888214" lon="93.454473">
<time>2016-10-08T03:58:56Z</time></trkpt>
<trkpt lat="29.888334" lon="93.454243">
<time>2016-10-08T03:58:57Z</time></trkpt>
<trkpt lat="29.888463" lon="93.453972">
<time>2016-10-08T03:58:58Z</time></trkpt>
<trkpt lat="29.888563" lon="93.453682">
<time>2016-10-08T03:58:59Z</time></trkpt>
<trkpt lat="29.888682" lon="93.453281">
<time>2016-10-08T03:59:00Z</time></trkpt>
<trkpt lat="29.888821" lon="93.452779">
<time>2016-10-08T03:59:01Z</time></trkpt>
<trkpt lat="29.888949" lon="93.452278">
<time>2016-10-08T03:59:02Z</time></trkpt>
<trkpt lat="29.888979" lon="93.452128">
<time>2016-10-08T03:59:03Z</time></trkpt>
<trkpt lat="29.888999" lon="93.452007">
<time>2016-10-08T03:59:04Z</time></trkpt>
<trkpt lat="29.889019" lon="93.451907">
<time>2016-10-08T03:59:05Z</time></trkpt>
<trkpt lat="29.889028" lon="93.451797">
<time>2016-10-08T03:59:06Z</time></trkpt>
<trkpt lat="29.889028" lon="93.451677">
<time>2016-10-08T03:59:07Z</time></trkpt>
<trkpt lat="29.889028" lon="93.451576">
<time>2016-10-08T03:59:08Z</time></trkpt>
<trkpt lat="29.889017" lon="93.451276">
<time>2016-10-08T03:59:09Z</time></trkpt>
<trkpt lat="29.889017" lon="93.451015">
<time>2016-10-08T03:59:10Z</time></trkpt>
<trkpt lat="29.889016" lon="93.450755">
<time>2016-10-08T03:59:11Z</time></trkpt>
<trkpt lat="29.889036" lon="93.450484">
<time>2016-10-08T03:59:12Z</time></trkpt>
<trkpt lat="29.889055" lon="93.450083">
<time>2016-10-08T03:59:13Z</time></trkpt>
<trkpt lat="29.889074" lon="93.449652">
<time>2016-10-08T03:59:14Z</time></trkpt>
<trkpt lat="29.889103" lon="93.449081">
<time>2016-10-08T03:59:15Z</time></trkpt>
<trkpt lat="29.88915" lon="93.447808">
<time>2016-10-08T03:59:16Z</time></trkpt>
<trkpt lat="29.889159" lon="93.447487">
<time>2016-10-08T03:59:17Z</time></trkpt>
<trkpt lat="29.889178" lon="93.446886">
<time>2016-10-08T03:59:18Z</time></trkpt>
<trkpt lat="29.889187" lon="93.446295">
<time>2016-10-08T03:59:19Z</time></trkpt>
<trkpt lat="29.889197" lon="93.446054">
<time>2016-10-08T03:59:20Z</time></trkpt>
<trkpt lat="29.889206" lon="93.445803">
<time>2016-10-08T03:59:21Z</time></trkpt>
<trkpt lat="29.889236" lon="93.445643">
<time>2016-10-08T03:59:22Z</time></trkpt>
<trkpt lat="29.889256" lon="93.445513">
<time>2016-10-08T03:59:23Z</time></trkpt>
<trkpt lat="29.889315" lon="93.445182">
<time>2016-10-08T03:59:24Z</time></trkpt>
<trkpt lat="29.889374" lon="93.444851">
<time>2016-10-08T03:59:25Z</time></trkpt>
<trkpt lat="29.889454" lon="93.444421">
<time>2016-10-08T03:59:26Z</time></trkpt>
<trkpt lat="29.889503" lon="93.44401">
<time>2016-10-08T03:59:27Z</time></trkpt>
<trkpt lat="29.889522" lon="93.443609">
<time>2016-10-08T03:59:28Z</time></trkpt>
<trkpt lat="29.889521" lon="93.443298">
<time>2016-10-08T03:59:29Z</time></trkpt>
<trkpt lat="29.889491" lon="93.442787">
<time>2016-10-08T03:59:30Z</time></trkpt>
<trkpt lat="29.88946" lon="93.442527">
<time>2016-10-08T03:59:31Z</time></trkpt>
<trkpt lat="29.889409" lon="93.442176">
<time>2016-10-08T03:59:32Z</time></trkpt>
<trkpt lat="29.889349" lon="93.441735">
<time>2016-10-08T03:59:33Z</time></trkpt>
<trkpt lat="29.889268" lon="93.441224">
<time>2016-10-08T03:59:34Z</time></trkpt>
<trkpt lat="29.889156" lon="93.440443">
<time>2016-10-08T03:59:35Z</time></trkpt>
<trkpt lat="29.889005" lon="93.439401">
<time>2016-10-08T03:59:36Z</time></trkpt>
<trkpt lat="29.888843" lon="93.438329">
<time>2016-10-08T03:59:37Z</time></trkpt>
<trkpt lat="29.888732" lon="93.437608">
<time>2016-10-08T03:59:38Z</time></trkpt>
<trkpt lat="29.888489" lon="93.435965">
<time>2016-10-08T03:59:39Z</time></trkpt>
<trkpt lat="29.888317" lon="93.434833">
<time>2016-10-08T03:59:40Z</time></trkpt>
<trkpt lat="29.888277" lon="93.434533">
<time>2016-10-08T03:59:41Z</time></trkpt>
<trkpt lat="29.888216" lon="93.434242">
<time>2016-10-08T03:59:42Z</time></trkpt>
<trkpt lat="29.888166" lon="93.434062">
<time>2016-10-08T03:59:43Z</time></trkpt>
<trkpt lat="29.888106" lon="93.433882">
<time>2016-10-08T03:59:44Z</time></trkpt>
<trkpt lat="29.888026" lon="93.433721">
<time>2016-10-08T03:59:45Z</time></trkpt>
<trkpt lat="29.887915" lon="93.433521">
<time>2016-10-08T03:59:46Z</time></trkpt>
<trkpt lat="29.887705" lon="93.433191">
<time>2016-10-08T03:59:47Z</time></trkpt>
<trkpt lat="29.887504" lon="93.43287">
<time>2016-10-08T03:59:48Z</time></trkpt>
<trkpt lat="29.886823" lon="93.431798">
<time>2016-10-08T03:59:49Z</time></trkpt>
<trkpt lat="29.886362" lon="93.431057">
<time>2016-10-08T03:59:50Z</time></trkpt>
<trkpt lat="29.885701" lon="93.430006">
<time>2016-10-08T03:59:51Z</time></trkpt>
<trkpt lat="29.88546" lon="93.429615">
<time>2016-10-08T03:59:52Z</time></trkpt>
<trkpt lat="29.88531" lon="93.429365">
<time>2016-10-08T03:59:53Z</time></trkpt>
<trkpt lat="29.885159" lon="93.429075">
<time>2016-10-08T03:59:54Z</time></trkpt>
<trkpt lat="29.884949" lon="93.428594">
<time>2016-10-08T03:59:55Z</time></trkpt>
<trkpt lat="29.884808" lon="93.428234">
<time>2016-10-08T03:59:56Z</time></trkpt>
<trkpt lat="29.884648" lon="93.427803">
<time>2016-10-08T03:59:57Z</time></trkpt>
<trkpt lat="29.884528" lon="93.427483">
<time>2016-10-08T03:59:58Z</time></trkpt>
<trkpt lat="29.884397" lon="93.427172">
<time>2016-10-08T03:59:59Z</time></trkpt>
<trkpt lat="29.884267" lon="93.426822">
<time>2016-10-08T04:00:00Z</time></trkpt>
<trkpt lat="29.884157" lon="93.426612">
<time>2016-10-08T04:00:01Z</time></trkpt>
<trkpt lat="29.884026" lon="93.426401">
<time>2016-10-08T04:00:02Z</time></trkpt>
<trkpt lat="29.883876" lon="93.426241">
<time>2016-10-08T04:00:03Z</time></trkpt>
<trkpt lat="29.883766" lon="93.426131">
<time>2016-10-08T04:00:04Z</time></trkpt>
<trkpt lat="29.883536" lon="93.425911">
<time>2016-10-08T04:00:05Z</time></trkpt>
<trkpt lat="29.883376" lon="93.425751">
<time>2016-10-08T04:00:06Z</time></trkpt>
<trkpt lat="29.883065" lon="93.42545">
<time>2016-10-08T04:00:07Z</time></trkpt>
<trkpt lat="29.882965" lon="93.42535">
<time>2016-10-08T04:00:08Z</time></trkpt>
<trkpt lat="29.882855" lon="93.42524">
<time>2016-10-08T04:00:09Z</time></trkpt>
<trkpt lat="29.882795" lon="93.42518">
<time>2016-10-08T04:00:10Z</time></trkpt>
<trkpt lat="29.882745" lon="93.42508">
<time>2016-10-08T04:00:11Z</time></trkpt>
<trkpt lat="29.882695" lon="93.42497">
<time>2016-10-08T04:00:12Z</time></trkpt>
<trkpt lat="29.882655" lon="93.42482">
<time>2016-10-08T04:00:13Z</time></trkpt>
<trkpt lat="29.882634" lon="93.424619">
<time>2016-10-08T04:00:14Z</time></trkpt>
<trkpt lat="29.882554" lon="93.423799">
<time>2016-10-08T04:00:15Z</time></trkpt>
<trkpt lat="29.882503" lon="93.423398">
<time>2016-10-08T04:00:16Z</time></trkpt>
<trkpt lat="29.882483" lon="93.423208">
<time>2016-10-08T04:00:17Z</time></trkpt>
<trkpt lat="29.882453" lon="93.423048">
<time>2016-10-08T04:00:18Z</time></trkpt>
<trkpt lat="29.882403" lon="93.422878">
<time>2016-10-08T04:00:19Z</time></trkpt>
<trkpt lat="29.882362" lon="93.422748">
<time>2016-10-08T04:00:20Z</time></trkpt>
<trkpt lat="29.882282" lon="93.422567">
<time>2016-10-08T04:00:21Z</time></trkpt>
<trkpt lat="29.882112" lon="93.422207">
<time>2016-10-08T04:00:22Z</time></trkpt>
<trkpt lat="29.881962" lon="93.421947">
<time>2016-10-08T04:00:23Z</time></trkpt>
<trkpt lat="29.881821" lon="93.421707">
<time>2016-10-08T04:00:24Z</time></trkpt>
<trkpt lat="29.881721" lon="93.421546">
<time>2016-10-08T04:00:25Z</time></trkpt>
<trkpt lat="29.881481" lon="93.421146">
<time>2016-10-08T04:00:26Z</time></trkpt>
<trkpt lat="29.881371" lon="93.420936">
<time>2016-10-08T04:00:27Z</time></trkpt>
<trkpt lat="29.881301" lon="93.420756">
<time>2016-10-08T04:00:28Z</time></trkpt>
<trkpt lat="29.88126" lon="93.420555">
<time>2016-10-08T04:00:29Z</time></trkpt>
<trkpt lat="29.88123" lon="93.420355">
<time>2016-10-08T04:00:30Z</time></trkpt>
<trkpt lat="29.88122" lon="93.420195">
<time>2016-10-08T04:00:31Z</time></trkpt>
<trkpt lat="29.88123" lon="93.419965">
<time>2016-10-08T04:00:32Z</time></trkpt>
<trkpt lat="29.88126" lon="93.419685">
<time>2016-10-08T04:00:33Z</time></trkpt>
<trkpt lat="29.881309" lon="93.418954">
<time>2016-10-08T04:00:34Z</time></trkpt>
<trkpt lat="29.881378" lon="93.418144">
<time>2016-10-08T04:00:35Z</time></trkpt>
<trkpt lat="29.881388" lon="93.417933">
<time>2016-10-08T04:00:36Z</time></trkpt>
<trkpt lat="29.881408" lon="93.417763">
<time>2016-10-08T04:00:37Z</time></trkpt>
<trkpt lat="29.881438" lon="93.417593">
<time>2016-10-08T04:00:38Z</time></trkpt>
<trkpt lat="29.881468" lon="93.417443">
<time>2016-10-08T04:00:39Z</time></trkpt>
<trkpt lat="29.881498" lon="93.417343">
<time>2016-10-08T04:00:40Z</time></trkpt>
<trkpt lat="29.881538" lon="93.417183">
<time>2016-10-08T04:00:41Z</time></trkpt>
<trkpt lat="29.881608" lon="93.416993">
<time>2016-10-08T04:00:42Z</time></trkpt>
<trkpt lat="29.881877" lon="93.416242">
<time>2016-10-08T04:00:43Z</time></trkpt>
<trkpt lat="29.882177" lon="93.415452">
<time>2016-10-08T04:00:44Z</time></trkpt>
<trkpt lat="29.882466" lon="93.414681">
<time>2016-10-08T04:00:45Z</time></trkpt>
<trkpt lat="29.882825" lon="93.413701">
<time>2016-10-08T04:00:46Z</time></trkpt>
<trkpt lat="29.882895" lon="93.413511">
<time>2016-10-08T04:00:47Z</time></trkpt>
<trkpt lat="29.883295" lon="93.41245">
<time>2016-10-08T04:00:48Z</time></trkpt>
<trkpt lat="29.883425" lon="93.41207">
<time>2016-10-08T04:00:49Z</time></trkpt>
<trkpt lat="29.883524" lon="93.41183">
<time>2016-10-08T04:00:50Z</time></trkpt>
<trkpt lat="29.883684" lon="93.4114">
<time>2016-10-08T04:00:51Z</time></trkpt>
<trkpt lat="29.883824" lon="93.410999">
<time>2016-10-08T04:00:52Z</time></trkpt>
<trkpt lat="29.883954" lon="93.410669">
<time>2016-10-08T04:00:53Z</time></trkpt>
<trkpt lat="29.884084" lon="93.410309">
<time>2016-10-08T04:00:54Z</time></trkpt>
<trkpt lat="29.884234" lon="93.409929">
<time>2016-10-08T04:00:55Z</time></trkpt>
<trkpt lat="29.884403" lon="93.409449">
<time>2016-10-08T04:00:56Z</time></trkpt>
<trkpt lat="29.884583" lon="93.408979">
<time>2016-10-08T04:00:57Z</time></trkpt>
<trkpt lat="29.884743" lon="93.408569">
<time>2016-10-08T04:00:58Z</time></trkpt>
<trkpt lat="29.884853" lon="93.408289">
<time>2016-10-08T04:00:59Z</time></trkpt>
<trkpt lat="29.885023" lon="93.407869">
<time>2016-10-08T04:01:00Z</time></trkpt>
<trkpt lat="29.885123" lon="93.407649">
<time>2016-10-08T04:01:01Z</time></trkpt>
<trkpt lat="29.885413" lon="93.406968">
<time>2016-10-08T04:01:02Z</time></trkpt>
<trkpt lat="29.885572" lon="93.406578">
<time>2016-10-08T04:01:03Z</time></trkpt>
<trkpt lat="29.885672" lon="93.406368">
<time>2016-10-08T04:01:04Z</time></trkpt>
<trkpt lat="29.885732" lon="93.406278">
<time>2016-10-08T04:01:05Z</time></trkpt>
<trkpt lat="29.885772" lon="93.406218">
<time>2016-10-08T04:01:06Z</time></trkpt>
<trkpt lat="29.885842" lon="93.406138">
<time>2016-10-08T04:01:07Z</time></trkpt>
<trkpt lat="29.885892" lon="93.406078">
<time>2016-10-08T04:01:08Z</time></trkpt>
<trkpt lat="29.885942" lon="93.406018">
<time>2016-10-08T04:01:09Z</time></trkpt>
<trkpt lat="29.886022" lon="93.405938">
<time>2016-10-08T04:01:10Z</time></trkpt>
<trkpt lat="29.886132" lon="93.405848">
<time>2016-10-08T04:01:11Z</time></trkpt>
<trkpt lat="29.886282" lon="93.405758">
<time>2016-10-08T04:01:12Z</time></trkpt>
<trkpt lat="29.886492" lon="93.405648">
<time>2016-10-08T04:01:13Z</time></trkpt>
<trkpt lat="29.886632" lon="93.405588">
<time>2016-10-08T04:01:14Z</time></trkpt>
<trkpt lat="29.886762" lon="93.405538">
<time>2016-10-08T04:01:15Z</time></trkpt>
<trkpt lat="29.886842" lon="93.405528">
<time>2016-10-08T04:01:16Z</time></trkpt>
<trkpt lat="29.886922" lon="93.405518">
<time>2016-10-08T04:01:17Z</time></trkpt>
<trkpt lat="29.887012" lon="93.405528">
<time>2016-10-08T04:01:18Z</time></trkpt>
<trkpt lat="29.887092" lon="93.405538">
<time>2016-10-08T04:01:19Z</time></trkpt>
<trkpt lat="29.887162" lon="93.405568">
<time>2016-10-08T04:01:20Z</time></trkpt>
<trkpt lat="29.887302" lon="93.405618">
<time>2016-10-08T04:01:21Z</time></trkpt>
<trkpt lat="29.887462" lon="93.405658">
<time>2016-10-08T04:01:22Z</time></trkpt>
<trkpt lat="29.887552" lon="93.405678">
<time>2016-10-08T04:01:23Z</time></trkpt>
<trkpt lat="29.887712" lon="93.405718">
<time>2016-10-08T04:01:24Z</time></trkpt>
<trkpt lat="29.887902" lon="93.405738">
<time>2016-10-08T04:01:25Z</time></trkpt>
<trkpt lat="29.888012" lon="93.405738">
<time>2016-10-08T04:01:26Z</time></trkpt>
<trkpt lat="29.888092" lon="93.405738">
<time>2016-10-08T04:01:27Z</time></trkpt>
<trkpt lat="29.888242" lon="93.405718">
<time>2016-10-08T04:01:28Z</time></trkpt>
<trkpt lat="29.888532" lon="93.405648">
<time>2016-10-08T04:01:29Z</time></trkpt>
<trkpt lat="29.888812" lon="93.405578">
<time>2016-10-08T04:01:30Z</time></trkpt>
<trkpt lat="29.889082" lon="93.405518">
<time>2016-10-08T04:01:31Z</time></trkpt>
<trkpt lat="29.889292" lon="93.405488">
<time>2016-10-08T04:01:32Z</time></trkpt>
<trkpt lat="29.889752" lon="93.405468">
<time>2016-10-08T04:01:33Z</time></trkpt>
<trkpt lat="29.890022" lon="93.405458">
<time>2016-10-08T04:01:34Z</time></trkpt>
<trkpt lat="29.890172" lon="93.405468">
<time>2016-10-08T04:01:35Z</time></trkpt>
<trkpt lat="29.890452" lon="93.405508">
<time>2016-10-08T04:01:36Z</time></trkpt>
<trkpt lat="29.890812" lon="93.405568">
<time>2016-10-08T04:01:37Z</time></trkpt>
<trkpt lat="29.891082" lon="93.405628">
<time>2016-10-08T04:01:38Z</time></trkpt>
<trkpt lat="29.891262" lon="93.405688">
<time>2016-10-08T04:01:39Z</time></trkpt>
<trkpt lat="29.891372" lon="93.405738">
<time>2016-10-08T04:01:40Z</time></trkpt>
<trkpt lat="29.891612" lon="93.405888">
<time>2016-10-08T04:01:41Z</time></trkpt>
<trkpt lat="29.891922" lon="93.406058">
<time>2016-10-08T04:01:42Z</time></trkpt>
<trkpt lat="29.892042" lon="93.406118">
<time>2016-10-08T04:01:43Z</time></trkpt>
<trkpt lat="29.892122" lon="93.406148">
<time>2016-10-08T04:01:44Z</time></trkpt>
<trkpt lat="29.892192" lon="93.406168">
<time>2016-10-08T04:01:45Z</time></trkpt>
<trkpt lat="29.892272" lon="93.406198">
<time>2016-10-08T04:01:46Z</time></trkpt>
<trkpt lat="29.892372" lon="93.406208">
<time>2016-10-08T04:01:47Z</time></trkpt>
<trkpt lat="29.892422" lon="93.406208">
<time>2016-10-08T04:01:48Z</time></trkpt>
<trkpt lat="29.892512" lon="93.406198">
<time>2016-10-08T04:01:49Z</time></trkpt>
<trkpt lat="29.892572" lon="93.406178">
<time>2016-10-08T04:01:50Z</time></trkpt>
<trkpt lat="29.892642" lon="93.406158">
<time>2016-10-08T04:01:51Z</time></trkpt>
<trkpt lat="29.892832" lon="93.406068">
<time>2016-10-08T04:01:52Z</time></trkpt>
<trkpt lat="29.893192" lon="93.405908">
<time>2016-10-08T04:01:53Z</time></trkpt>
<trkpt lat="29.893372" lon="93.405828">
<time>2016-10-08T04:01:54Z</time></trkpt>
<trkpt lat="29.893462" lon="93.405778">
<time>2016-10-08T04:01:55Z</time></trkpt>
<trkpt lat="29.893542" lon="93.405738">
<time>2016-10-08T04:01:56Z</time></trkpt>
<trkpt lat="29.893642" lon="93.405668">
<time>2016-10-08T04:01:57Z</time></trkpt>
<trkpt lat="29.893722" lon="93.405618">
<time>2016-10-08T04:01:58Z</time></trkpt>
<trkpt lat="29.893782" lon="93.405568">
<time>2016-10-08T04:01:59Z</time></trkpt>
<trkpt lat="29.893862" lon="93.405498">
<time>2016-10-08T04:02:00Z</time></trkpt>
<trkpt lat="29.893962" lon="93.405388">
<time>2016-10-08T04:02:01Z</time></trkpt>
<trkpt lat="29.894042" lon="93.405288">
<time>2016-10-08T04:02:02Z</time></trkpt>
<trkpt lat="29.894082" lon="93.405228">
<time>2016-10-08T04:02:03Z</time></trkpt>
<trkpt lat="29.894132" lon="93.405158">
<time>2016-10-08T04:02:04Z</time></trkpt>
<trkpt lat="29.894182" lon="93.405078">
<time>2016-10-08T04:02:05Z</time></trkpt>
<trkpt lat="29.894232" lon="93.404978">
<time>2016-10-08T04:02:06Z</time></trkpt>
<trkpt lat="29.894282" lon="93.404898">
<time>2016-10-08T04:02:07Z</time></trkpt>
<trkpt lat="29.894402" lon="93.404618">
<time>2016-10-08T04:02:08Z</time></trkpt>
<trkpt lat="29.894522" lon="93.404348">
<time>2016-10-08T04:02:09Z</time></trkpt>
<trkpt lat="29.894582" lon="93.404218">
<time>2016-10-08T04:02:10Z</time></trkpt>
<trkpt lat="29.894692" lon="93.403918">
<time>2016-10-08T04:02:11Z</time></trkpt>
<trkpt lat="29.894792" lon="93.403648">
<time>2016-10-08T04:02:12Z</time></trkpt>
<trkpt lat="29.894922" lon="93.403248">
<time>2016-10-08T04:02:13Z</time></trkpt>
<trkpt lat="29.895042" lon="93.402868">
<time>2016-10-08T04:02:14Z</time></trkpt>
<trkpt lat="29.895181" lon="93.402438">
<time>2016-10-08T04:02:15Z</time></trkpt>
<trkpt lat="29.895241" lon="93.402288">
<time>2016-10-08T04:02:16Z</time></trkpt>
<trkpt lat="29.895271" lon="93.402208">
<time>2016-10-08T04:02:17Z</time></trkpt>
<trkpt lat="29.895311" lon="93.402128">
<time>2016-10-08T04:02:18Z</time></trkpt>
<trkpt lat="29.895351" lon="93.402028">
<time>2016-10-08T04:02:19Z</time></trkpt>
<trkpt lat="29.895421" lon="93.401888">
<time>2016-10-08T04:02:20Z</time></trkpt>
<trkpt lat="29.895511" lon="93.401718">
<time>2016-10-08T04:02:21Z</time></trkpt>
<trkpt lat="29.895671" lon="93.401468">
<time>2016-10-08T04:02:22Z</time></trkpt>
<trkpt lat="29.895891" lon="93.401098">
<time>2016-10-08T04:02:23Z</time></trkpt>
<trkpt lat="29.896001" lon="93.400898">
<time>2016-10-08T04:02:24Z</time></trkpt>
<trkpt lat="29.896061" lon="93.400768">
<time>2016-10-08T04:02:25Z</time></trkpt>
<trkpt lat="29.896301" lon="93.400288">
<time>2016-10-08T04:02:26Z</time></trkpt>
<trkpt lat="29.896481" lon="93.399888">
<time>2016-10-08T04:02:27Z</time></trkpt>
<trkpt lat="29.896801" lon="93.399229">
<time>2016-10-08T04:02:28Z</time></trkpt>
<trkpt lat="29.896841" lon="93.399129">
<time>2016-10-08T04:02:29Z</time></trkpt>
<trkpt lat="29.897011" lon="93.398759">
<time>2016-10-08T04:02:30Z</time></trkpt>
<trkpt lat="29.897061" lon="93.398639">
<time>2016-10-08T04:02:31Z</time></trkpt>
<trkpt lat="29.897132" lon="93.398429">
<time>2016-10-08T04:02:32Z</time></trkpt>
<trkpt lat="29.897192" lon="93.398169">
<time>2016-10-08T04:02:33Z</time></trkpt>
<trkpt lat="29.897232" lon="93.397929">
<time>2016-10-08T04:02:34Z</time></trkpt>
<trkpt lat="29.897312" lon="93.397369">
<time>2016-10-08T04:02:35Z</time></trkpt>
<trkpt lat="29.897352" lon="93.396919">
<time>2016-10-08T04:02:36Z</time></trkpt>
<trkpt lat="29.897372" lon="93.396719">
<time>2016-10-08T04:02:37Z</time></trkpt>
<trkpt lat="29.897382" lon="93.396539">
<time>2016-10-08T04:02:38Z</time></trkpt>
<trkpt lat="29.897392" lon="93.39619">
<time>2016-10-08T04:02:39Z</time></trkpt>
<trkpt lat="29.897372" lon="93.3959">
<time>2016-10-08T04:02:40Z</time></trkpt>
<trkpt lat="29.897342" lon="93.39568">
<time>2016-10-08T04:02:41Z</time></trkpt>
<trkpt lat="29.897312" lon="93.39554">
<time>2016-10-08T04:02:42Z</time></trkpt>
<trkpt lat="29.897282" lon="93.39539">
<time>2016-10-08T04:02:43Z</time></trkpt>
<trkpt lat="29.897182" lon="93.39505">
<time>2016-10-08T04:02:44Z</time></trkpt>
<trkpt lat="29.897132" lon="93.39489">
<time>2016-10-08T04:02:45Z</time></trkpt>
<trkpt lat="29.897072" lon="93.39473">
<time>2016-10-08T04:02:46Z</time></trkpt>
<trkpt lat="29.897002" lon="93.39457">
<time>2016-10-08T04:02:47Z</time></trkpt>
<trkpt lat="29.896912" lon="93.3944">
<time>2016-10-08T04:02:48Z</time></trkpt>
<trkpt lat="29.896842" lon="93.39425">
<time>2016-10-08T04:02:49Z</time></trkpt>
<trkpt lat="29.896782" lon="93.39413">
<time>2016-10-08T04:02:50Z</time></trkpt>
<trkpt lat="29.896672" lon="93.393941">
<time>2016-10-08T04:02:51Z</time></trkpt>
<trkpt lat="29.896543" lon="93.393681">
<time>2016-10-08T04:02:52Z</time></trkpt>
<trkpt lat="29.896453" lon="93.393511">
<time>2016-10-08T04:02:53Z</time></trkpt>
<trkpt lat="29.896343" lon="93.393241">
<time>2016-10-08T04:02:54Z</time></trkpt>
<trkpt lat="29.896283" lon="93.393081">
<time>2016-10-08T04:02:55Z</time></trkpt>
<trkpt lat="29.896223" lon="93.392911">
<time>2016-10-08T04:02:56Z</time></trkpt>
<trkpt lat="29.896143" lon="93.392611">
<time>2016-10-08T04:02:57Z</time></trkpt>
<trkpt lat="29.896063" lon="93.392301">
<time>2016-10-08T04:02:58Z</time></trkpt>
<trkpt lat="29.895983" lon="93.392052">
<time>2016-10-08T04:02:59Z</time></trkpt>
<trkpt lat="29.895853" lon="93.391732">
<time>2016-10-08T04:03:00Z</time></trkpt>
<trkpt lat="29.895753" lon="93.391482">
<time>2016-10-08T04:03:01Z</time></trkpt>
<trkpt lat="29.895643" lon="93.391262">
<time>2016-10-08T04:03:02Z</time></trkpt>
<trkpt lat="29.895434" lon="93.390862">
<time>2016-10-08T04:03:03Z</time></trkpt>
<trkpt lat="29.895054" lon="93.390163">
<time>2016-10-08T04:03:04Z</time></trkpt>
<trkpt lat="29.894614" lon="93.389354">
<time>2016-10-08T04:03:05Z</time></trkpt>
<trkpt lat="29.894165" lon="93.388504">
<time>2016-10-08T04:03:06Z</time></trkpt>
<trkpt lat="29.893915" lon="93.388035">
<time>2016-10-08T04:03:07Z</time></trkpt>
<trkpt lat="29.893855" lon="93.387935">
<time>2016-10-08T04:03:08Z</time></trkpt>
<trkpt lat="29.893815" lon="93.387825">
<time>2016-10-08T04:03:09Z</time></trkpt>
<trkpt lat="29.893795" lon="93.387765">
<time>2016-10-08T04:03:10Z</time></trkpt>
<trkpt lat="29.893775" lon="93.387685">
<time>2016-10-08T04:03:11Z</time></trkpt>
<trkpt lat="29.893775" lon="93.387605">
<time>2016-10-08T04:03:12Z</time></trkpt>
<trkpt lat="29.893765" lon="93.387525">
<time>2016-10-08T04:03:13Z</time></trkpt>
<trkpt lat="29.893745" lon="93.387195">
<time>2016-10-08T04:03:14Z</time></trkpt>
<trkpt lat="29.893706" lon="93.386586">
<time>2016-10-08T04:03:15Z</time></trkpt>
<trkpt lat="29.893686" lon="93.386336">
<time>2016-10-08T04:03:16Z</time></trkpt>
<trkpt lat="29.893656" lon="93.386116">
<time>2016-10-08T04:03:17Z</time></trkpt>
<trkpt lat="29.893616" lon="93.385966">
<time>2016-10-08T04:03:18Z</time></trkpt>
<trkpt lat="29.893566" lon="93.385786">
<time>2016-10-08T04:03:19Z</time></trkpt>
<trkpt lat="29.893447" lon="93.385347">
<time>2016-10-08T04:03:20Z</time></trkpt>
<trkpt lat="29.893307" lon="93.384907">
<time>2016-10-08T04:03:21Z</time></trkpt>
<trkpt lat="29.893247" lon="93.384638">
<time>2016-10-08T04:03:22Z</time></trkpt>
<trkpt lat="29.893207" lon="93.384388">
<time>2016-10-08T04:03:23Z</time></trkpt>
<trkpt lat="29.893187" lon="93.384188">
<time>2016-10-08T04:03:24Z</time></trkpt>
<trkpt lat="29.893178" lon="93.383988">
<time>2016-10-08T04:03:25Z</time></trkpt>
<trkpt lat="29.893188" lon="93.383778">
<time>2016-10-08T04:03:26Z</time></trkpt>
<trkpt lat="29.893198" lon="93.383569">
<time>2016-10-08T04:03:27Z</time></trkpt>
<trkpt lat="29.893218" lon="93.383369">
<time>2016-10-08T04:03:28Z</time></trkpt>
<trkpt lat="29.893258" lon="93.383149">
<time>2016-10-08T04:03:29Z</time></trkpt>
<trkpt lat="29.893298" lon="93.382929">
<time>2016-10-08T04:03:30Z</time></trkpt>
<trkpt lat="29.893358" lon="93.38269">
<time>2016-10-08T04:03:31Z</time></trkpt>
<trkpt lat="29.893599" lon="93.381781">
<time>2016-10-08T04:03:32Z</time></trkpt>
<trkpt lat="29.89377" lon="93.381061">
<time>2016-10-08T04:03:33Z</time></trkpt>
<trkpt lat="29.89397" lon="93.380302">
<time>2016-10-08T04:03:34Z</time></trkpt>
<trkpt lat="29.894121" lon="93.379693">
<time>2016-10-08T04:03:35Z</time></trkpt>
<trkpt lat="29.894281" lon="93.379044">
<time>2016-10-08T04:03:36Z</time></trkpt>
<trkpt lat="29.894432" lon="93.378444">
<time>2016-10-08T04:03:37Z</time></trkpt>
<trkpt lat="29.894562" lon="93.377925">
<time>2016-10-08T04:03:38Z</time></trkpt>
<trkpt lat="29.894723" lon="93.377306">
<time>2016-10-08T04:03:39Z</time></trkpt>
<trkpt lat="29.894793" lon="93.377006">
<time>2016-10-08T04:03:40Z</time></trkpt>
<trkpt lat="29.894833" lon="93.376816">
<time>2016-10-08T04:03:41Z</time></trkpt>
<trkpt lat="29.894874" lon="93.376607">
<time>2016-10-08T04:03:42Z</time></trkpt>
<trkpt lat="29.894894" lon="93.376487">
<time>2016-10-08T04:03:43Z</time></trkpt>
<trkpt lat="29.894904" lon="93.376347">
<time>2016-10-08T04:03:44Z</time></trkpt>
<trkpt lat="29.894914" lon="93.376167">
<time>2016-10-08T04:03:45Z</time></trkpt>
<trkpt lat="29.894924" lon="93.375988">
<time>2016-10-08T04:03:46Z</time></trkpt>
<trkpt lat="29.894925" lon="93.375728">
<time>2016-10-08T04:03:47Z</time></trkpt>
<trkpt lat="29.894935" lon="93.375338">
<time>2016-10-08T04:03:48Z</time></trkpt>
<trkpt lat="29.894935" lon="93.375109">
<time>2016-10-08T04:03:49Z</time></trkpt>
<trkpt lat="29.894935" lon="93.375039">
<time>2016-10-08T04:03:50Z</time></trkpt>
<trkpt lat="29.894935" lon="93.375029">
<time>2016-10-08T04:03:51Z</time></trkpt>
<trkpt lat="29.894935" lon="93.375009">
<time>2016-10-08T04:03:52Z</time></trkpt>
<trkpt lat="29.894945" lon="93.374919">
<time>2016-10-08T04:03:53Z</time></trkpt>
<trkpt lat="29.894945" lon="93.374819">
<time>2016-10-08T04:03:54Z</time></trkpt>
<trkpt lat="29.894946" lon="93.374659">
<time>2016-10-08T04:03:55Z</time></trkpt>
<trkpt lat="29.894946" lon="93.37443">
<time>2016-10-08T04:03:56Z</time></trkpt>
<trkpt lat="29.894946" lon="93.37418">
<time>2016-10-08T04:03:57Z</time></trkpt>
<trkpt lat="29.894946" lon="93.373871">
<time>2016-10-08T04:03:58Z</time></trkpt>
<trkpt lat="29.894947" lon="93.373821">
<time>2016-10-08T04:03:59Z</time></trkpt>
<trkpt lat="29.894947" lon="93.373741">
<time>2016-10-08T04:04:00Z</time></trkpt>
<trkpt lat="29.894947" lon="93.373621">
<time>2016-10-08T04:04:01Z</time></trkpt>
<trkpt lat="29.894937" lon="93.373511">
<time>2016-10-08T04:04:02Z</time></trkpt>
<trkpt lat="29.894927" lon="93.373421">
<time>2016-10-08T04:04:03Z</time></trkpt>
<trkpt lat="29.894917" lon="93.373341">
<time>2016-10-08T04:04:04Z</time></trkpt>
<trkpt lat="29.894897" lon="93.373201">
<time>2016-10-08T04:04:05Z</time></trkpt>
<trkpt lat="29.894887" lon="93.373142">
<time>2016-10-08T04:04:06Z</time></trkpt>
<trkpt lat="29.894857" lon="93.373052">
<time>2016-10-08T04:04:07Z</time></trkpt>
<trkpt lat="29.894837" lon="93.372952">
<time>2016-10-08T04:04:08Z</time></trkpt>
<trkpt lat="29.894818" lon="93.372872">
<time>2016-10-08T04:04:09Z</time></trkpt>
<trkpt lat="29.894768" lon="93.372722">
<time>2016-10-08T04:04:10Z</time></trkpt>
<trkpt lat="29.894608" lon="93.372243">
<time>2016-10-08T04:04:11Z</time></trkpt>
<trkpt lat="29.894479" lon="93.371883">
<time>2016-10-08T04:04:12Z</time></trkpt>
<trkpt lat="29.894389" lon="93.371624">
<time>2016-10-08T04:04:13Z</time></trkpt>
<trkpt lat="29.894269" lon="93.371274">
<time>2016-10-08T04:04:14Z</time></trkpt>
<trkpt lat="29.89419" lon="93.371025">
<time>2016-10-08T04:04:15Z</time></trkpt>
<trkpt lat="29.89403" lon="93.370585">
<time>2016-10-08T04:04:16Z</time></trkpt>
<trkpt lat="29.89396" lon="93.370366">
<time>2016-10-08T04:04:17Z</time></trkpt>
<trkpt lat="29.893781" lon="93.369827">
<time>2016-10-08T04:04:18Z</time></trkpt>
<trkpt lat="29.893721" lon="93.369647">
<time>2016-10-08T04:04:19Z</time></trkpt>
<trkpt lat="29.893692" lon="93.369517">
<time>2016-10-08T04:04:20Z</time></trkpt>
<trkpt lat="29.893672" lon="93.369427">
<time>2016-10-08T04:04:21Z</time></trkpt>
<trkpt lat="29.893652" lon="93.369337">
<time>2016-10-08T04:04:22Z</time></trkpt>
<trkpt lat="29.893652" lon="93.369258">
<time>2016-10-08T04:04:23Z</time></trkpt>
<trkpt lat="29.893642" lon="93.369158">
<time>2016-10-08T04:04:24Z</time></trkpt>
<trkpt lat="29.893642" lon="93.369108">
<time>2016-10-08T04:04:25Z</time></trkpt>
<trkpt lat="29.893652" lon="93.369048">
<time>2016-10-08T04:04:26Z</time></trkpt>
<trkpt lat="29.893662" lon="93.368968">
<time>2016-10-08T04:04:27Z</time></trkpt>
<trkpt lat="29.893672" lon="93.368878">
<time>2016-10-08T04:04:28Z</time></trkpt>
<trkpt lat="29.893692" lon="93.368778">
<time>2016-10-08T04:04:29Z</time></trkpt>
<trkpt lat="29.893733" lon="93.368609">
<time>2016-10-08T04:04:30Z</time></trkpt>
<trkpt lat="29.893763" lon="93.368469">
<time>2016-10-08T04:04:31Z</time></trkpt>
<trkpt lat="29.893793" lon="93.368349">
<time>2016-10-08T04:04:32Z</time></trkpt>
<trkpt lat="29.893823" lon="93.368219">
<time>2016-10-08T04:04:33Z</time></trkpt>
<trkpt lat="29.893863" lon="93.368109">
<time>2016-10-08T04:04:34Z</time></trkpt>
<trkpt lat="29.893934" lon="93.36788">
<time>2016-10-08T04:04:35Z</time></trkpt>
<trkpt lat="29.894044" lon="93.36759">
<time>2016-10-08T04:04:36Z</time></trkpt>
<trkpt lat="29.894154" lon="93.367321">
<time>2016-10-08T04:04:37Z</time></trkpt>
<trkpt lat="29.894295" lon="93.366951">
<time>2016-10-08T04:04:38Z</time></trkpt>
<trkpt lat="29.894365" lon="93.366782">
<time>2016-10-08T04:04:39Z</time></trkpt>
<trkpt lat="29.894445" lon="93.366542">
<time>2016-10-08T04:04:40Z</time></trkpt>
<trkpt lat="29.894515" lon="93.366342">
<time>2016-10-08T04:04:41Z</time></trkpt>
<trkpt lat="29.894546" lon="93.366253">
<time>2016-10-08T04:04:42Z</time></trkpt>
<trkpt lat="29.894596" lon="93.366073">
<time>2016-10-08T04:04:43Z</time></trkpt>
<trkpt lat="29.894636" lon="93.365913">
<time>2016-10-08T04:04:44Z</time></trkpt>
<trkpt lat="29.894717" lon="93.365574">
<time>2016-10-08T04:04:45Z</time></trkpt>
<trkpt lat="29.894867" lon="93.364945">
<time>2016-10-08T04:04:46Z</time></trkpt>
<trkpt lat="29.894898" lon="93.364775">
<time>2016-10-08T04:04:47Z</time></trkpt>
<trkpt lat="29.894918" lon="93.364675">
<time>2016-10-08T04:04:48Z</time></trkpt>
<trkpt lat="29.894928" lon="93.364585">
<time>2016-10-08T04:04:49Z</time></trkpt>
<trkpt lat="29.894938" lon="93.364506">
<time>2016-10-08T04:04:50Z</time></trkpt>
<trkpt lat="29.894958" lon="93.364396">
<time>2016-10-08T04:04:51Z</time></trkpt>
<trkpt lat="29.894968" lon="93.364236">
<time>2016-10-08T04:04:52Z</time></trkpt>
<trkpt lat="29.894968" lon="93.364126">
<time>2016-10-08T04:04:53Z</time></trkpt>
<trkpt lat="29.894969" lon="93.363777">
<time>2016-10-08T04:04:54Z</time></trkpt>
<trkpt lat="29.894979" lon="93.363517">
<time>2016-10-08T04:04:55Z</time></trkpt>
<trkpt lat="29.89498" lon="93.363278">
<time>2016-10-08T04:04:56Z</time></trkpt>
<trkpt lat="29.89499" lon="93.363018">
<time>2016-10-08T04:04:57Z</time></trkpt>
<trkpt lat="29.89499" lon="93.362739">
<time>2016-10-08T04:04:58Z</time></trkpt>
<trkpt lat="29.895001" lon="93.362549">
<time>2016-10-08T04:04:59Z</time></trkpt>
<trkpt lat="29.895001" lon="93.362449">
<time>2016-10-08T04:05:00Z</time></trkpt>
<trkpt lat="29.895001" lon="93.36233">
<time>2016-10-08T04:05:01Z</time></trkpt>
<trkpt lat="29.895011" lon="93.36208">
<time>2016-10-08T04:05:02Z</time></trkpt>
<trkpt lat="29.895012" lon="93.36185">
<time>2016-10-08T04:05:03Z</time></trkpt>
<trkpt lat="29.895022" lon="93.361611">
<time>2016-10-08T04:05:04Z</time></trkpt>
<trkpt lat="29.895022" lon="93.361451">
<time>2016-10-08T04:05:05Z</time></trkpt>
<trkpt lat="29.895033" lon="93.361252">
<time>2016-10-08T04:05:06Z</time></trkpt>
<trkpt lat="29.895033" lon="93.361072">
<time>2016-10-08T04:05:07Z</time></trkpt>
<trkpt lat="29.895033" lon="93.360872">
<time>2016-10-08T04:05:08Z</time></trkpt>
<trkpt lat="29.895033" lon="93.360753">
<time>2016-10-08T04:05:09Z</time></trkpt>
<trkpt lat="29.895023" lon="93.360623">
<time>2016-10-08T04:05:10Z</time></trkpt>
<trkpt lat="29.895014" lon="93.360433">
<time>2016-10-08T04:05:11Z</time></trkpt>
<trkpt lat="29.895004" lon="93.360353">
<time>2016-10-08T04:05:12Z</time></trkpt>
<trkpt lat="29.894994" lon="93.360273">
<time>2016-10-08T04:05:13Z</time></trkpt>
<trkpt lat="29.894954" lon="93.360004">
<time>2016-10-08T04:05:14Z</time></trkpt>
<trkpt lat="29.894935" lon="93.359864">
<time>2016-10-08T04:05:15Z</time></trkpt>
<trkpt lat="29.894925" lon="93.359814">
<time>2016-10-08T04:05:16Z</time></trkpt>
<trkpt lat="29.894875" lon="93.359585">
<time>2016-10-08T04:05:17Z</time></trkpt>
<trkpt lat="29.894835" lon="93.359325">
<time>2016-10-08T04:05:18Z</time></trkpt>
<trkpt lat="29.894796" lon="93.359066">
<time>2016-10-08T04:05:19Z</time></trkpt>
<trkpt lat="29.894796" lon="93.358926">
<time>2016-10-08T04:05:20Z</time></trkpt>
<trkpt lat="29.894806" lon="93.358786">
<time>2016-10-08T04:05:21Z</time></trkpt>
<trkpt lat="29.894816" lon="93.358677">
<time>2016-10-08T04:05:22Z</time></trkpt>
<trkpt lat="29.894847" lon="93.358517">
<time>2016-10-08T04:05:23Z</time></trkpt>
<trkpt lat="29.894907" lon="93.358217">
<time>2016-10-08T04:05:24Z</time></trkpt>
<trkpt lat="29.894978" lon="93.357858">
<time>2016-10-08T04:05:25Z</time></trkpt>
<trkpt lat="29.894998" lon="93.357768">
<time>2016-10-08T04:05:26Z</time></trkpt>
<trkpt lat="29.895018" lon="93.357589">
<time>2016-10-08T04:05:27Z</time></trkpt>
<trkpt lat="29.895028" lon="93.357429">
<time>2016-10-08T04:05:28Z</time></trkpt>
<trkpt lat="29.895029" lon="93.357259">
<time>2016-10-08T04:05:29Z</time></trkpt>
<trkpt lat="29.895029" lon="93.35702">
<time>2016-10-08T04:05:30Z</time></trkpt>
<trkpt lat="29.895009" lon="93.35676">
<time>2016-10-08T04:05:31Z</time></trkpt>
<trkpt lat="29.89495" lon="93.356381">
<time>2016-10-08T04:05:32Z</time></trkpt>
<trkpt lat="29.894891" lon="93.355972">
<time>2016-10-08T04:05:33Z</time></trkpt>
<trkpt lat="29.894841" lon="93.355643">
<time>2016-10-08T04:05:34Z</time></trkpt>
<trkpt lat="29.894811" lon="93.355403">
<time>2016-10-08T04:05:35Z</time></trkpt>
<trkpt lat="29.894802" lon="93.355243">
<time>2016-10-08T04:05:36Z</time></trkpt>
<trkpt lat="29.894763" lon="93.354645">
<time>2016-10-08T04:05:37Z</time></trkpt>
<trkpt lat="29.894753" lon="93.354415">
<time>2016-10-08T04:05:38Z</time></trkpt>
<trkpt lat="29.894733" lon="93.354156">
<time>2016-10-08T04:05:39Z</time></trkpt>
<trkpt lat="29.894704" lon="93.353816">
<time>2016-10-08T04:05:40Z</time></trkpt>
<trkpt lat="29.894674" lon="93.353567">
<time>2016-10-08T04:05:41Z</time></trkpt>
<trkpt lat="29.894635" lon="93.353347">
<time>2016-10-08T04:05:42Z</time></trkpt>
<trkpt lat="29.894575" lon="93.352998">
<time>2016-10-08T04:05:43Z</time></trkpt>
<trkpt lat="29.894526" lon="93.352709">
<time>2016-10-08T04:05:44Z</time></trkpt>
<trkpt lat="29.894486" lon="93.352499">
<time>2016-10-08T04:05:45Z</time></trkpt>
<trkpt lat="29.894447" lon="93.35226">
<time>2016-10-08T04:05:46Z</time></trkpt>
<trkpt lat="29.894427" lon="93.35212">
<time>2016-10-08T04:05:47Z</time></trkpt>
<trkpt lat="29.894417" lon="93.351901">
<time>2016-10-08T04:05:48Z</time></trkpt>
<trkpt lat="29.894417" lon="93.351741">
<time>2016-10-08T04:05:49Z</time></trkpt>
<trkpt lat="29.894418" lon="93.351651">
<time>2016-10-08T04:05:50Z</time></trkpt>
<trkpt lat="29.894438" lon="93.351511">
<time>2016-10-08T04:05:51Z</time></trkpt>
<trkpt lat="29.894468" lon="93.351252">
<time>2016-10-08T04:05:52Z</time></trkpt>
<trkpt lat="29.894519" lon="93.350953">
<time>2016-10-08T04:05:53Z</time></trkpt>
<trkpt lat="29.894559" lon="93.350713">
<time>2016-10-08T04:05:54Z</time></trkpt>
<trkpt lat="29.89461" lon="93.350504">
<time>2016-10-08T04:05:55Z</time></trkpt>
<trkpt lat="29.89464" lon="93.350344">
<time>2016-10-08T04:05:56Z</time></trkpt>
<trkpt lat="29.8947" lon="93.350114">
<time>2016-10-08T04:05:57Z</time></trkpt>
<trkpt lat="29.894771" lon="93.349865">
<time>2016-10-08T04:05:58Z</time></trkpt>
<trkpt lat="29.894851" lon="93.349596">
<time>2016-10-08T04:05:59Z</time></trkpt>
<trkpt lat="29.894911" lon="93.349366">
<time>2016-10-08T04:06:00Z</time></trkpt>
<trkpt lat="29.895002" lon="93.348987">
<time>2016-10-08T04:06:01Z</time></trkpt>
<trkpt lat="29.895042" lon="93.348817">
<time>2016-10-08T04:06:02Z</time></trkpt>
<trkpt lat="29.895063" lon="93.348688">
<time>2016-10-08T04:06:03Z</time></trkpt>
<trkpt lat="29.895093" lon="93.348508">
<time>2016-10-08T04:06:04Z</time></trkpt>
<trkpt lat="29.895093" lon="93.348368">
<time>2016-10-08T04:06:05Z</time></trkpt>
<trkpt lat="29.895104" lon="93.348109">
<time>2016-10-08T04:06:06Z</time></trkpt>
<trkpt lat="29.895084" lon="93.347839">
<time>2016-10-08T04:06:07Z</time></trkpt>
<trkpt lat="29.895065" lon="93.3476">
<time>2016-10-08T04:06:08Z</time></trkpt>
<trkpt lat="29.895016" lon="93.346902">
<time>2016-10-08T04:06:09Z</time></trkpt>
<trkpt lat="29.894977" lon="93.346463">
<time>2016-10-08T04:06:10Z</time></trkpt>
<trkpt lat="29.894947" lon="93.346053">
<time>2016-10-08T04:06:11Z</time></trkpt>
<trkpt lat="29.894928" lon="93.345824">
<time>2016-10-08T04:06:12Z</time></trkpt>
<trkpt lat="29.894928" lon="93.345684">
<time>2016-10-08T04:06:13Z</time></trkpt>
<trkpt lat="29.894928" lon="93.345535">
<time>2016-10-08T04:06:14Z</time></trkpt>
<trkpt lat="29.894959" lon="93.345215">
<time>2016-10-08T04:06:15Z</time></trkpt>
<trkpt lat="29.894999" lon="93.344806">
<time>2016-10-08T04:06:16Z</time></trkpt>
<trkpt lat="29.89506" lon="93.344427">
<time>2016-10-08T04:06:17Z</time></trkpt>
<trkpt lat="29.895171" lon="93.343779">
<time>2016-10-08T04:06:18Z</time></trkpt>
<trkpt lat="29.895222" lon="93.343479">
<time>2016-10-08T04:06:19Z</time></trkpt>
<trkpt lat="29.895252" lon="93.34327">
<time>2016-10-08T04:06:20Z</time></trkpt>
<trkpt lat="29.895293" lon="93.34308">
<time>2016-10-08T04:06:21Z</time></trkpt>
<trkpt lat="29.895333" lon="93.342901">
<time>2016-10-08T04:06:22Z</time></trkpt>
<trkpt lat="29.895373" lon="93.342721">
<time>2016-10-08T04:06:23Z</time></trkpt>
<trkpt lat="29.895434" lon="93.342552">
<time>2016-10-08T04:06:24Z</time></trkpt>
<trkpt lat="29.895474" lon="93.342452">
<time>2016-10-08T04:06:25Z</time></trkpt>
<trkpt lat="29.895534" lon="93.342302">
<time>2016-10-08T04:06:26Z</time></trkpt>
<trkpt lat="29.895634" lon="93.342083">
<time>2016-10-08T04:06:27Z</time></trkpt>
<trkpt lat="29.895815" lon="93.341674">
<time>2016-10-08T04:06:28Z</time></trkpt>
<trkpt lat="29.896116" lon="93.340995">
<time>2016-10-08T04:06:29Z</time></trkpt>
<trkpt lat="29.896317" lon="93.340596">
<time>2016-10-08T04:06:30Z</time></trkpt>
<trkpt lat="29.896427" lon="93.340377">
<time>2016-10-08T04:06:31Z</time></trkpt>
<trkpt lat="29.896558" lon="93.340157">
<time>2016-10-08T04:06:32Z</time></trkpt>
<trkpt lat="29.896698" lon="93.339958">
<time>2016-10-08T04:06:33Z</time></trkpt>
<trkpt lat="29.896869" lon="93.339688">
<time>2016-10-08T04:06:34Z</time></trkpt>
<trkpt lat="29.896949" lon="93.339578">
<time>2016-10-08T04:06:35Z</time></trkpt>
<trkpt lat="29.897079" lon="93.339409">
<time>2016-10-08T04:06:36Z</time></trkpt>
<trkpt lat="29.897199" lon="93.339279">
<time>2016-10-08T04:06:37Z</time></trkpt>
<trkpt lat="29.89735" lon="93.33911">
<time>2016-10-08T04:06:38Z</time></trkpt>
<trkpt lat="29.89764" lon="93.33883">
<time>2016-10-08T04:06:39Z</time></trkpt>
<trkpt lat="29.898001" lon="93.338491">
<time>2016-10-08T04:06:40Z</time></trkpt>
<trkpt lat="29.898462" lon="93.338062">
<time>2016-10-08T04:06:41Z</time></trkpt>
<trkpt lat="29.898602" lon="93.337912">
<time>2016-10-08T04:06:42Z</time></trkpt>
<trkpt lat="29.898752" lon="93.337753">
<time>2016-10-08T04:06:43Z</time></trkpt>
<trkpt lat="29.898802" lon="93.337693">
<time>2016-10-08T04:06:44Z</time></trkpt>
<trkpt lat="29.898873" lon="93.337593">
<time>2016-10-08T04:06:45Z</time></trkpt>
<trkpt lat="29.898953" lon="93.337483">
<time>2016-10-08T04:06:46Z</time></trkpt>
<trkpt lat="29.899153" lon="93.337164">
<time>2016-10-08T04:06:47Z</time></trkpt>
<trkpt lat="29.899314" lon="93.336875">
<time>2016-10-08T04:06:48Z</time></trkpt>
<trkpt lat="29.899515" lon="93.336516">
<time>2016-10-08T04:06:49Z</time></trkpt>
<trkpt lat="29.899585" lon="93.336386">
<time>2016-10-08T04:06:50Z</time></trkpt>
<trkpt lat="29.899625" lon="93.336296">
<time>2016-10-08T04:06:51Z</time></trkpt>
<trkpt lat="29.899675" lon="93.336177">
<time>2016-10-08T04:06:52Z</time></trkpt>
<trkpt lat="29.899705" lon="93.336067">
<time>2016-10-08T04:06:53Z</time></trkpt>
<trkpt lat="29.899726" lon="93.335977">
<time>2016-10-08T04:06:54Z</time></trkpt>
<trkpt lat="29.899736" lon="93.335897">
<time>2016-10-08T04:06:55Z</time></trkpt>
<trkpt lat="29.899736" lon="93.335778">
<time>2016-10-08T04:06:56Z</time></trkpt>
<trkpt lat="29.899736" lon="93.335668">
<time>2016-10-08T04:06:57Z</time></trkpt>
<trkpt lat="29.899708" lon="93.33481">
<time>2016-10-08T04:06:58Z</time></trkpt>
<trkpt lat="29.89967" lon="93.333832">
<time>2016-10-08T04:06:59Z</time></trkpt>
<trkpt lat="29.899632" lon="93.332555">
<time>2016-10-08T04:07:00Z</time></trkpt>
<trkpt lat="29.899623" lon="93.332236">
<time>2016-10-08T04:07:01Z</time></trkpt>
<trkpt lat="29.899613" lon="93.331977">
<time>2016-10-08T04:07:02Z</time></trkpt>
<trkpt lat="29.899634" lon="93.331777">
<time>2016-10-08T04:07:03Z</time></trkpt>
<trkpt lat="29.899674" lon="93.331638">
<time>2016-10-08T04:07:04Z</time></trkpt>
<trkpt lat="29.899714" lon="93.331548">
<time>2016-10-08T04:07:05Z</time></trkpt>
<trkpt lat="29.899744" lon="93.331458">
<time>2016-10-08T04:07:06Z</time></trkpt>
<trkpt lat="29.899794" lon="93.331398">
<time>2016-10-08T04:07:07Z</time></trkpt>
<trkpt lat="29.899844" lon="93.331318">
<time>2016-10-08T04:07:08Z</time></trkpt>
<trkpt lat="29.899885" lon="93.331269">
<time>2016-10-08T04:07:09Z</time></trkpt>
<trkpt lat="29.899935" lon="93.331199">
<time>2016-10-08T04:07:10Z</time></trkpt>
<trkpt lat="29.900015" lon="93.331119">
<time>2016-10-08T04:07:11Z</time></trkpt>
<trkpt lat="29.900145" lon="93.331009">
<time>2016-10-08T04:07:12Z</time></trkpt>
<trkpt lat="29.900385" lon="93.33084">
<time>2016-10-08T04:07:13Z</time></trkpt>
<trkpt lat="29.900616" lon="93.33067">
<time>2016-10-08T04:07:14Z</time></trkpt>
<trkpt lat="29.900846" lon="93.3305">
<time>2016-10-08T04:07:15Z</time></trkpt>
<trkpt lat="29.901066" lon="93.330331">
<time>2016-10-08T04:07:16Z</time></trkpt>
<trkpt lat="29.901146" lon="93.330241">
<time>2016-10-08T04:07:17Z</time></trkpt>
<trkpt lat="29.901277" lon="93.330101">
<time>2016-10-08T04:07:18Z</time></trkpt>
<trkpt lat="29.901377" lon="93.329972">
<time>2016-10-08T04:07:19Z</time></trkpt>
<trkpt lat="29.901487" lon="93.329812">
<time>2016-10-08T04:07:20Z</time></trkpt>
<trkpt lat="29.901588" lon="93.329633">
<time>2016-10-08T04:07:21Z</time></trkpt>
<trkpt lat="29.901708" lon="93.329383">
<time>2016-10-08T04:07:22Z</time></trkpt>
<trkpt lat="29.901909" lon="93.328984">
<time>2016-10-08T04:07:23Z</time></trkpt>
<trkpt lat="29.90211" lon="93.328545">
<time>2016-10-08T04:07:24Z</time></trkpt>
<trkpt lat="29.9022" lon="93.328336">
<time>2016-10-08T04:07:25Z</time></trkpt>
<trkpt lat="29.90226" lon="93.328156">
<time>2016-10-08T04:07:26Z</time></trkpt>
<trkpt lat="29.902311" lon="93.327947">
<time>2016-10-08T04:07:27Z</time></trkpt>
<trkpt lat="29.902331" lon="93.327767">
<time>2016-10-08T04:07:28Z</time></trkpt>
<trkpt lat="29.902352" lon="93.327578">
<time>2016-10-08T04:07:29Z</time></trkpt>
<trkpt lat="29.902352" lon="93.327358">
<time>2016-10-08T04:07:30Z</time></trkpt>
<trkpt lat="29.902323" lon="93.327049">
<time>2016-10-08T04:07:31Z</time></trkpt>
<trkpt lat="29.902244" lon="93.3265">
<time>2016-10-08T04:07:32Z</time></trkpt>
<trkpt lat="29.902155" lon="93.325862">
<time>2016-10-08T04:07:33Z</time></trkpt>
<trkpt lat="29.902096" lon="93.325503">
<time>2016-10-08T04:07:34Z</time></trkpt>
<trkpt lat="29.902046" lon="93.325154">
<time>2016-10-08T04:07:35Z</time></trkpt>
<trkpt lat="29.902007" lon="93.324774">
<time>2016-10-08T04:07:36Z</time></trkpt>
<trkpt lat="29.901948" lon="93.324346">
<time>2016-10-08T04:07:37Z</time></trkpt>
<trkpt lat="29.901899" lon="93.323887">
<time>2016-10-08T04:07:38Z</time></trkpt>
<trkpt lat="29.901879" lon="93.323607">
<time>2016-10-08T04:07:39Z</time></trkpt>
<trkpt lat="29.90184" lon="93.323188">
<time>2016-10-08T04:07:40Z</time></trkpt>
<trkpt lat="29.901801" lon="93.32263">
<time>2016-10-08T04:07:41Z</time></trkpt>
<trkpt lat="29.901752" lon="93.322011">
<time>2016-10-08T04:07:42Z</time></trkpt>
<trkpt lat="29.901713" lon="93.321443">
<time>2016-10-08T04:07:43Z</time></trkpt>
<trkpt lat="29.901674" lon="93.321044">
<time>2016-10-08T04:07:44Z</time></trkpt>
<trkpt lat="29.901654" lon="93.320894">
<time>2016-10-08T04:07:45Z</time></trkpt>
<trkpt lat="29.901625" lon="93.320724">
<time>2016-10-08T04:07:46Z</time></trkpt>
<trkpt lat="29.901605" lon="93.320615">
<time>2016-10-08T04:07:47Z</time></trkpt>
<trkpt lat="29.901545" lon="93.320395">
<time>2016-10-08T04:07:48Z</time></trkpt>
<trkpt lat="29.901446" lon="93.320116">
<time>2016-10-08T04:07:49Z</time></trkpt>
<trkpt lat="29.901386" lon="93.319966">
<time>2016-10-08T04:07:50Z</time></trkpt>
<trkpt lat="29.901237" lon="93.319657">
<time>2016-10-08T04:07:51Z</time></trkpt>
<trkpt lat="29.901067" lon="93.319298">
<time>2016-10-08T04:07:52Z</time></trkpt>
<trkpt lat="29.900878" lon="93.318919">
<time>2016-10-08T04:07:53Z</time></trkpt>
<trkpt lat="29.900769" lon="93.318679">
<time>2016-10-08T04:07:54Z</time></trkpt>
<trkpt lat="29.900719" lon="93.31857">
<time>2016-10-08T04:07:55Z</time></trkpt>
<trkpt lat="29.900669" lon="93.31844">
<time>2016-10-08T04:07:56Z</time></trkpt>
<trkpt lat="29.900599" lon="93.318241">
<time>2016-10-08T04:07:57Z</time></trkpt>
<trkpt lat="29.900411" lon="93.317592">
<time>2016-10-08T04:07:58Z</time></trkpt>
<trkpt lat="29.900252" lon="93.317053">
<time>2016-10-08T04:07:59Z</time></trkpt>
<trkpt lat="29.900172" lon="93.316834">
<time>2016-10-08T04:08:00Z</time></trkpt>
<trkpt lat="29.900092" lon="93.316615">
<time>2016-10-08T04:08:01Z</time></trkpt>
<trkpt lat="29.899993" lon="93.316375">
<time>2016-10-08T04:08:02Z</time></trkpt>
<trkpt lat="29.899943" lon="93.316255">
<time>2016-10-08T04:08:03Z</time></trkpt>
<trkpt lat="29.899764" lon="93.315856">
<time>2016-10-08T04:08:04Z</time></trkpt>
<trkpt lat="29.899615" lon="93.315527">
<time>2016-10-08T04:08:05Z</time></trkpt>
<trkpt lat="29.899465" lon="93.315188">
<time>2016-10-08T04:08:06Z</time></trkpt>
<trkpt lat="29.899326" lon="93.314779">
<time>2016-10-08T04:08:07Z</time></trkpt>
<trkpt lat="29.899246" lon="93.31453">
<time>2016-10-08T04:08:08Z</time></trkpt>
<trkpt lat="29.899127" lon="93.31418">
<time>2016-10-08T04:08:09Z</time></trkpt>
<trkpt lat="29.899028" lon="93.313891">
<time>2016-10-08T04:08:10Z</time></trkpt>
<trkpt lat="29.898968" lon="93.313532">
<time>2016-10-08T04:08:11Z</time></trkpt>
<trkpt lat="29.898939" lon="93.313183">
<time>2016-10-08T04:08:12Z</time></trkpt>
<trkpt lat="29.89891" lon="93.312614">
<time>2016-10-08T04:08:13Z</time></trkpt>
<trkpt lat="29.898871" lon="93.311946">
<time>2016-10-08T04:08:14Z</time></trkpt>
<trkpt lat="29.898833" lon="93.311048">
<time>2016-10-08T04:08:15Z</time></trkpt>
<trkpt lat="29.898784" lon="93.310649">
<time>2016-10-08T04:08:16Z</time></trkpt>
<trkpt lat="29.898684" lon="93.31032">
<time>2016-10-08T04:08:17Z</time></trkpt>
<trkpt lat="29.898565" lon="93.31005">
<time>2016-10-08T04:08:18Z</time></trkpt>
<trkpt lat="29.898355" lon="93.309631">
<time>2016-10-08T04:08:19Z</time></trkpt>
<trkpt lat="29.898216" lon="93.309362">
<time>2016-10-08T04:08:20Z</time></trkpt>
<trkpt lat="29.898126" lon="93.309192">
<time>2016-10-08T04:08:21Z</time></trkpt>
<trkpt lat="29.897827" lon="93.308604">
<time>2016-10-08T04:08:22Z</time></trkpt>
<trkpt lat="29.897598" lon="93.308165">
<time>2016-10-08T04:08:23Z</time></trkpt>
<trkpt lat="29.897399" lon="93.307796">
<time>2016-10-08T04:08:24Z</time></trkpt>
<trkpt lat="29.897229" lon="93.307436">
<time>2016-10-08T04:08:25Z</time></trkpt>
<trkpt lat="29.89706" lon="93.307107">
<time>2016-10-08T04:08:26Z</time></trkpt>
<trkpt lat="29.896861" lon="93.306728">
<time>2016-10-08T04:08:27Z</time></trkpt>
<trkpt lat="29.896611" lon="93.306249">
<time>2016-10-08T04:08:28Z</time></trkpt>
<trkpt lat="29.896422" lon="93.3059">
<time>2016-10-08T04:08:29Z</time></trkpt>
<trkpt lat="29.896372" lon="93.3058">
<time>2016-10-08T04:08:30Z</time></trkpt>
<trkpt lat="29.896223" lon="93.305491">
<time>2016-10-08T04:08:31Z</time></trkpt>
<trkpt lat="29.896093" lon="93.305252">
<time>2016-10-08T04:08:32Z</time></trkpt>
<trkpt lat="29.895984" lon="93.305022">
<time>2016-10-08T04:08:33Z</time></trkpt>
<trkpt lat="29.895904" lon="93.304882">
<time>2016-10-08T04:08:34Z</time></trkpt>
<trkpt lat="29.895744" lon="93.304573">
<time>2016-10-08T04:08:35Z</time></trkpt>
<trkpt lat="29.895555" lon="93.304194">
<time>2016-10-08T04:08:36Z</time></trkpt>
<trkpt lat="29.895396" lon="93.303895">
<time>2016-10-08T04:08:37Z</time></trkpt>
<trkpt lat="29.895067" lon="93.303246">
<time>2016-10-08T04:08:38Z</time></trkpt>
<trkpt lat="29.894847" lon="93.302827">
<time>2016-10-08T04:08:39Z</time></trkpt>
<trkpt lat="29.894568" lon="93.302278">
<time>2016-10-08T04:08:40Z</time></trkpt>
<trkpt lat="29.894429" lon="93.301999">
<time>2016-10-08T04:08:41Z</time></trkpt>
<trkpt lat="29.894259" lon="93.30168">
<time>2016-10-08T04:08:42Z</time></trkpt>
<trkpt lat="29.89415" lon="93.30147">
<time>2016-10-08T04:08:43Z</time></trkpt>
<trkpt lat="29.893861" lon="93.300911">
<time>2016-10-08T04:08:44Z</time></trkpt>
<trkpt lat="29.893651" lon="93.300492">
<time>2016-10-08T04:08:45Z</time></trkpt>
<trkpt lat="29.893472" lon="93.300153">
<time>2016-10-08T04:08:46Z</time></trkpt>
<trkpt lat="29.893372" lon="93.299953">
<time>2016-10-08T04:08:47Z</time></trkpt>
<trkpt lat="29.893093" lon="93.299405">
<time>2016-10-08T04:08:48Z</time></trkpt>
<trkpt lat="29.892884" lon="93.299006">
<time>2016-10-08T04:08:49Z</time></trkpt>
<trkpt lat="29.892585" lon="93.298427">
<time>2016-10-08T04:08:50Z</time></trkpt>
<trkpt lat="29.892405" lon="93.298078">
<time>2016-10-08T04:08:51Z</time></trkpt>
<trkpt lat="29.892246" lon="93.297768">
<time>2016-10-08T04:08:52Z</time></trkpt>
<trkpt lat="29.892076" lon="93.297449">
<time>2016-10-08T04:08:53Z</time></trkpt>
<trkpt lat="29.891967" lon="93.297219">
<time>2016-10-08T04:08:54Z</time></trkpt>
<trkpt lat="29.891827" lon="93.29695">
<time>2016-10-08T04:08:55Z</time></trkpt>
<trkpt lat="29.891668" lon="93.296661">
<time>2016-10-08T04:08:56Z</time></trkpt>
<trkpt lat="29.891578" lon="93.296511">
<time>2016-10-08T04:08:57Z</time></trkpt>
<trkpt lat="29.891498" lon="93.296381">
<time>2016-10-08T04:08:58Z</time></trkpt>
<trkpt lat="29.891398" lon="93.296231">
<time>2016-10-08T04:08:59Z</time></trkpt>
<trkpt lat="29.891189" lon="93.295952">
<time>2016-10-08T04:09:00Z</time></trkpt>
<trkpt lat="29.890859" lon="93.295553">
<time>2016-10-08T04:09:01Z</time></trkpt>
<trkpt lat="29.8906" lon="93.295254">
<time>2016-10-08T04:09:02Z</time></trkpt>
<trkpt lat="29.89027" lon="93.294844">
<time>2016-10-08T04:09:03Z</time></trkpt>
<trkpt lat="29.890121" lon="93.294665">
<time>2016-10-08T04:09:04Z</time></trkpt>
<trkpt lat="29.889971" lon="93.294485">
<time>2016-10-08T04:09:05Z</time></trkpt>
<trkpt lat="29.889791" lon="93.294256">
<time>2016-10-08T04:09:06Z</time></trkpt>
<trkpt lat="29.889741" lon="93.294186">
<time>2016-10-08T04:09:07Z</time></trkpt>
<trkpt lat="29.889682" lon="93.294096">
<time>2016-10-08T04:09:08Z</time></trkpt>
<trkpt lat="29.889632" lon="93.294016">
<time>2016-10-08T04:09:09Z</time></trkpt>
<trkpt lat="29.889582" lon="93.293916">
<time>2016-10-08T04:09:10Z</time></trkpt>
<trkpt lat="29.889542" lon="93.293836">
<time>2016-10-08T04:09:11Z</time></trkpt>
<trkpt lat="29.889492" lon="93.293727">
<time>2016-10-08T04:09:12Z</time></trkpt>
<trkpt lat="29.889462" lon="93.293647">
<time>2016-10-08T04:09:13Z</time></trkpt>
<trkpt lat="29.889423" lon="93.293487">
<time>2016-10-08T04:09:14Z</time></trkpt>
<trkpt lat="29.889393" lon="93.293387">
<time>2016-10-08T04:09:15Z</time></trkpt>
<trkpt lat="29.889373" lon="93.293288">
<time>2016-10-08T04:09:16Z</time></trkpt>
<trkpt lat="29.889353" lon="93.293168">
<time>2016-10-08T04:09:17Z</time></trkpt>
<trkpt lat="29.889343" lon="93.293028">
<time>2016-10-08T04:09:18Z</time></trkpt>
<trkpt lat="29.889343" lon="93.292908">
<time>2016-10-08T04:09:19Z</time></trkpt>
<trkpt lat="29.889334" lon="93.292829">
<time>2016-10-08T04:09:20Z</time></trkpt>
<trkpt lat="29.889334" lon="93.292719">
<time>2016-10-08T04:09:21Z</time></trkpt>
<trkpt lat="29.889334" lon="93.292669">
<time>2016-10-08T04:09:22Z</time></trkpt>
<trkpt lat="29.889344" lon="93.292599">
<time>2016-10-08T04:09:23Z</time></trkpt>
<trkpt lat="29.889354" lon="93.292509">
<time>2016-10-08T04:09:24Z</time></trkpt>
<trkpt lat="29.889374" lon="93.29231">
<time>2016-10-08T04:09:25Z</time></trkpt>
<trkpt lat="29.889404" lon="93.29219">
<time>2016-10-08T04:09:26Z</time></trkpt>
<trkpt lat="29.889425" lon="93.2921">
<time>2016-10-08T04:09:27Z</time></trkpt>
<trkpt lat="29.889465" lon="93.29198">
<time>2016-10-08T04:09:28Z</time></trkpt>
<trkpt lat="29.889495" lon="93.29189">
<time>2016-10-08T04:09:29Z</time></trkpt>
<trkpt lat="29.889545" lon="93.291771">
<time>2016-10-08T04:09:30Z</time></trkpt>
<trkpt lat="29.889605" lon="93.291631">
<time>2016-10-08T04:09:31Z</time></trkpt>
<trkpt lat="29.889675" lon="93.291481">
<time>2016-10-08T04:09:32Z</time></trkpt>
<trkpt lat="29.889806" lon="93.291202">
<time>2016-10-08T04:09:33Z</time></trkpt>
<trkpt lat="29.889936" lon="93.290932">
<time>2016-10-08T04:09:34Z</time></trkpt>
<trkpt lat="29.890107" lon="93.290583">
<time>2016-10-08T04:09:35Z</time></trkpt>
<trkpt lat="29.890197" lon="93.290393">
<time>2016-10-08T04:09:36Z</time></trkpt>
<trkpt lat="29.890237" lon="93.290274">
<time>2016-10-08T04:09:37Z</time></trkpt>
<trkpt lat="29.890257" lon="93.290204">
<time>2016-10-08T04:09:38Z</time></trkpt>
<trkpt lat="29.890267" lon="93.290154">
<time>2016-10-08T04:09:39Z</time></trkpt>
<trkpt lat="29.890288" lon="93.290054">
<time>2016-10-08T04:09:40Z</time></trkpt>
<trkpt lat="29.890308" lon="93.289914">
<time>2016-10-08T04:09:41Z</time></trkpt>
<trkpt lat="29.890318" lon="93.289784">
<time>2016-10-08T04:09:42Z</time></trkpt>
<trkpt lat="29.890318" lon="93.289665">
<time>2016-10-08T04:09:43Z</time></trkpt>
<trkpt lat="29.890328" lon="93.289455">
<time>2016-10-08T04:09:44Z</time></trkpt>
<trkpt lat="29.890339" lon="93.289246">
<time>2016-10-08T04:09:45Z</time></trkpt>
<trkpt lat="29.890349" lon="93.289066">
<time>2016-10-08T04:09:46Z</time></trkpt>
<trkpt lat="29.890359" lon="93.288936">
<time>2016-10-08T04:09:47Z</time></trkpt>
<trkpt lat="29.890369" lon="93.288866">
<time>2016-10-08T04:09:48Z</time></trkpt>
<trkpt lat="29.890389" lon="93.288727">
<time>2016-10-08T04:09:49Z</time></trkpt>
<trkpt lat="29.89047" lon="93.288257">
<time>2016-10-08T04:09:50Z</time></trkpt>
<trkpt lat="29.89051" lon="93.287938">
<time>2016-10-08T04:09:51Z</time></trkpt>
<trkpt lat="29.890531" lon="93.287718">
<time>2016-10-08T04:09:52Z</time></trkpt>
<trkpt lat="29.890541" lon="93.287569">
<time>2016-10-08T04:09:53Z</time></trkpt>
<trkpt lat="29.890531" lon="93.287399">
<time>2016-10-08T04:09:54Z</time></trkpt>
<trkpt lat="29.890531" lon="93.287309">
<time>2016-10-08T04:09:55Z</time></trkpt>
<trkpt lat="29.890521" lon="93.287209">
<time>2016-10-08T04:09:56Z</time></trkpt>
<trkpt lat="29.890502" lon="93.28712">
<time>2016-10-08T04:09:57Z</time></trkpt>
<trkpt lat="29.890482" lon="93.28702">
<time>2016-10-08T04:09:58Z</time></trkpt>
<trkpt lat="29.890452" lon="93.28692">
<time>2016-10-08T04:09:59Z</time></trkpt>
<trkpt lat="29.890392" lon="93.28677">
<time>2016-10-08T04:10:00Z</time></trkpt>
<trkpt lat="29.890302" lon="93.286501">
<time>2016-10-08T04:10:01Z</time></trkpt>
<trkpt lat="29.890263" lon="93.286361">
<time>2016-10-08T04:10:02Z</time></trkpt>
<trkpt lat="29.890243" lon="93.286211">
<time>2016-10-08T04:10:03Z</time></trkpt>
<trkpt lat="29.890223" lon="93.286091">
<time>2016-10-08T04:10:04Z</time></trkpt>
<trkpt lat="29.890213" lon="93.285952">
<time>2016-10-08T04:10:05Z</time></trkpt>
<trkpt lat="29.890203" lon="93.285672">
<time>2016-10-08T04:10:06Z</time></trkpt>
<trkpt lat="29.890184" lon="93.285343">
<time>2016-10-08T04:10:07Z</time></trkpt>
<trkpt lat="29.890184" lon="93.285203">
<time>2016-10-08T04:10:08Z</time></trkpt>
<trkpt lat="29.890184" lon="93.285043">
<time>2016-10-08T04:10:09Z</time></trkpt>
<trkpt lat="29.890194" lon="93.284874">
<time>2016-10-08T04:10:10Z</time></trkpt>
<trkpt lat="29.890205" lon="93.284754">
<time>2016-10-08T04:10:11Z</time></trkpt>
<trkpt lat="29.890225" lon="93.284614">
<time>2016-10-08T04:10:12Z</time></trkpt>
<trkpt lat="29.890255" lon="93.284394">
<time>2016-10-08T04:10:13Z</time></trkpt>
<trkpt lat="29.890265" lon="93.284265">
<time>2016-10-08T04:10:14Z</time></trkpt>
<trkpt lat="29.890296" lon="93.284065">
<time>2016-10-08T04:10:15Z</time></trkpt>
<trkpt lat="29.890326" lon="93.283865">
<time>2016-10-08T04:10:16Z</time></trkpt>
<trkpt lat="29.890336" lon="93.283736">
<time>2016-10-08T04:10:17Z</time></trkpt>
<trkpt lat="29.890346" lon="93.283676">
<time>2016-10-08T04:10:18Z</time></trkpt>
<trkpt lat="29.890346" lon="93.283516">
<time>2016-10-08T04:10:19Z</time></trkpt>
<trkpt lat="29.890346" lon="93.283356">
<time>2016-10-08T04:10:20Z</time></trkpt>
<trkpt lat="29.890327" lon="93.283197">
<time>2016-10-08T04:10:21Z</time></trkpt>
<trkpt lat="29.890297" lon="93.283047">
<time>2016-10-08T04:10:22Z</time></trkpt>
<trkpt lat="29.890257" lon="93.282867">
<time>2016-10-08T04:10:23Z</time></trkpt>
<trkpt lat="29.890217" lon="93.282717">
<time>2016-10-08T04:10:24Z</time></trkpt>
<trkpt lat="29.890157" lon="93.282478">
<time>2016-10-08T04:10:25Z</time></trkpt>
<trkpt lat="29.890128" lon="93.282258">
<time>2016-10-08T04:10:26Z</time></trkpt>
<trkpt lat="29.890068" lon="93.281779">
<time>2016-10-08T04:10:27Z</time></trkpt>
<trkpt lat="29.890019" lon="93.28139">
<time>2016-10-08T04:10:28Z</time></trkpt>
<trkpt lat="29.889949" lon="93.28091">
<time>2016-10-08T04:10:29Z</time></trkpt>
<trkpt lat="29.8899" lon="93.280501">
<time>2016-10-08T04:10:30Z</time></trkpt>
<trkpt lat="29.88987" lon="93.280271">
<time>2016-10-08T04:10:31Z</time></trkpt>
<trkpt lat="29.88986" lon="93.280142">
<time>2016-10-08T04:10:32Z</time></trkpt>
<trkpt lat="29.88985" lon="93.280012">
<time>2016-10-08T04:10:33Z</time></trkpt>
<trkpt lat="29.889841" lon="93.279862">
<time>2016-10-08T04:10:34Z</time></trkpt>
<trkpt lat="29.889851" lon="93.279702">
<time>2016-10-08T04:10:35Z</time></trkpt>
<trkpt lat="29.889851" lon="93.279473">
<time>2016-10-08T04:10:36Z</time></trkpt>
<trkpt lat="29.889871" lon="93.279063">
<time>2016-10-08T04:10:37Z</time></trkpt>
<trkpt lat="29.889882" lon="93.278824">
<time>2016-10-08T04:10:38Z</time></trkpt>
<trkpt lat="29.889862" lon="93.278654">
<time>2016-10-08T04:10:39Z</time></trkpt>
<trkpt lat="29.889832" lon="93.278484">
<time>2016-10-08T04:10:40Z</time></trkpt>
<trkpt lat="29.889772" lon="93.278285">
<time>2016-10-08T04:10:41Z</time></trkpt>
<trkpt lat="29.889653" lon="93.277845">
<time>2016-10-08T04:10:42Z</time></trkpt>
<trkpt lat="29.889434" lon="93.277046">
<time>2016-10-08T04:10:43Z</time></trkpt>
<trkpt lat="29.889364" lon="93.276807">
<time>2016-10-08T04:10:44Z</time></trkpt>
<trkpt lat="29.889334" lon="93.276687">
<time>2016-10-08T04:10:45Z</time></trkpt>
<trkpt lat="29.889294" lon="93.276557">
<time>2016-10-08T04:10:46Z</time></trkpt>
<trkpt lat="29.889264" lon="93.276467">
<time>2016-10-08T04:10:47Z</time></trkpt>
<trkpt lat="29.889244" lon="93.276387">
<time>2016-10-08T04:10:48Z</time></trkpt>
<trkpt lat="29.889214" lon="93.276308">
<time>2016-10-08T04:10:49Z</time></trkpt>
<trkpt lat="29.889184" lon="93.276238">
<time>2016-10-08T04:10:50Z</time></trkpt>
<trkpt lat="29.889164" lon="93.276188">
<time>2016-10-08T04:10:51Z</time></trkpt>
<trkpt lat="29.889144" lon="93.276138">
<time>2016-10-08T04:10:52Z</time></trkpt>
<trkpt lat="29.889105" lon="93.276068">
<time>2016-10-08T04:10:53Z</time></trkpt>
<trkpt lat="29.889055" lon="93.275988">
<time>2016-10-08T04:10:54Z</time></trkpt>
<trkpt lat="29.889005" lon="93.275888">
<time>2016-10-08T04:10:55Z</time></trkpt>
<trkpt lat="29.888935" lon="93.275788">
<time>2016-10-08T04:10:56Z</time></trkpt>
<trkpt lat="29.888905" lon="93.275718">
<time>2016-10-08T04:10:57Z</time></trkpt>
<trkpt lat="29.888885" lon="93.275689">
<time>2016-10-08T04:10:58Z</time></trkpt>
<trkpt lat="29.888855" lon="93.275639">
<time>2016-10-08T04:10:59Z</time></trkpt>
<trkpt lat="29.888815" lon="93.275549">
<time>2016-10-08T04:11:00Z</time></trkpt>
<trkpt lat="29.888775" lon="93.275469">
<time>2016-10-08T04:11:01Z</time></trkpt>
<trkpt lat="29.888745" lon="93.275419">
<time>2016-10-08T04:11:02Z</time></trkpt>
<trkpt lat="29.888725" lon="93.275349">
<time>2016-10-08T04:11:03Z</time></trkpt>
<trkpt lat="29.888705" lon="93.275309">
<time>2016-10-08T04:11:04Z</time></trkpt>
<trkpt lat="29.888675" lon="93.275249">
<time>2016-10-08T04:11:05Z</time></trkpt>
<trkpt lat="29.888655" lon="93.275189">
<time>2016-10-08T04:11:06Z</time></trkpt>
<trkpt lat="29.888556" lon="93.27491">
<time>2016-10-08T04:11:07Z</time></trkpt>
<trkpt lat="29.888456" lon="93.27464">
<time>2016-10-08T04:11:08Z</time></trkpt>
<trkpt lat="29.888396" lon="93.27448">
<time>2016-10-08T04:11:09Z</time></trkpt>
<trkpt lat="29.888366" lon="93.27441">
<time>2016-10-08T04:11:10Z</time></trkpt>
<trkpt lat="29.888336" lon="93.27433">
<time>2016-10-08T04:11:11Z</time></trkpt>
<trkpt lat="29.888296" lon="93.274241">
<time>2016-10-08T04:11:12Z</time></trkpt>
<trkpt lat="29.888266" lon="93.274171">
<time>2016-10-08T04:11:13Z</time></trkpt>
<trkpt lat="29.888236" lon="93.274111">
<time>2016-10-08T04:11:14Z</time></trkpt>
<trkpt lat="29.888187" lon="93.274031">
<time>2016-10-08T04:11:15Z</time></trkpt>
<trkpt lat="29.888127" lon="93.273931">
<time>2016-10-08T04:11:16Z</time></trkpt>
<trkpt lat="29.888067" lon="93.273851">
<time>2016-10-08T04:11:17Z</time></trkpt>
<trkpt lat="29.887997" lon="93.273751">
<time>2016-10-08T04:11:18Z</time></trkpt>
<trkpt lat="29.887927" lon="93.273661">
<time>2016-10-08T04:11:19Z</time></trkpt>
<trkpt lat="29.887717" lon="93.273362">
<time>2016-10-08T04:11:20Z</time></trkpt>
<trkpt lat="29.887557" lon="93.273142">
<time>2016-10-08T04:11:21Z</time></trkpt>
<trkpt lat="29.887507" lon="93.273082">
<time>2016-10-08T04:11:22Z</time></trkpt>
<trkpt lat="29.887468" lon="93.273012">
<time>2016-10-08T04:11:23Z</time></trkpt>
<trkpt lat="29.887428" lon="93.272962">
<time>2016-10-08T04:11:24Z</time></trkpt>
<trkpt lat="29.887398" lon="93.272892">
<time>2016-10-08T04:11:25Z</time></trkpt>
<trkpt lat="29.887378" lon="93.272853">
<time>2016-10-08T04:11:26Z</time></trkpt>
<trkpt lat="29.887368" lon="93.272823">
<time>2016-10-08T04:11:27Z</time></trkpt>
<trkpt lat="29.887358" lon="93.272783">
<time>2016-10-08T04:11:28Z</time></trkpt>
<trkpt lat="29.887328" lon="93.272693">
<time>2016-10-08T04:11:29Z</time></trkpt>
<trkpt lat="29.887308" lon="93.272583">
<time>2016-10-08T04:11:30Z</time></trkpt>
<trkpt lat="29.887298" lon="93.272483">
<time>2016-10-08T04:11:31Z</time></trkpt>
<trkpt lat="29.887298" lon="93.272443">
<time>2016-10-08T04:11:32Z</time></trkpt>
<trkpt lat="29.887238" lon="93.272034">
<time>2016-10-08T04:11:33Z</time></trkpt>
<trkpt lat="29.887199" lon="93.271694">
<time>2016-10-08T04:11:34Z</time></trkpt>
<trkpt lat="29.887159" lon="93.271404">
<time>2016-10-08T04:11:35Z</time></trkpt>
<trkpt lat="29.887129" lon="93.271195">
<time>2016-10-08T04:11:36Z</time></trkpt>
<trkpt lat="29.887099" lon="93.271015">
<time>2016-10-08T04:11:37Z</time></trkpt>
<trkpt lat="29.887079" lon="93.270825">
<time>2016-10-08T04:11:38Z</time></trkpt>
<trkpt lat="29.88701" lon="93.270416">
<time>2016-10-08T04:11:39Z</time></trkpt>
<trkpt lat="29.88696" lon="93.270146">
<time>2016-10-08T04:11:40Z</time></trkpt>
<trkpt lat="29.88692" lon="93.269906">
<time>2016-10-08T04:11:41Z</time></trkpt>
<trkpt lat="29.88689" lon="93.269757">
<time>2016-10-08T04:11:42Z</time></trkpt>
<trkpt lat="29.88686" lon="93.269637">
<time>2016-10-08T04:11:43Z</time></trkpt>
<trkpt lat="29.886821" lon="93.269467">
<time>2016-10-08T04:11:44Z</time></trkpt>
<trkpt lat="29.886801" lon="93.269347">
<time>2016-10-08T04:11:45Z</time></trkpt>
<trkpt lat="29.886711" lon="93.268948">
<time>2016-10-08T04:11:46Z</time></trkpt>
<trkpt lat="29.886631" lon="93.268608">
<time>2016-10-08T04:11:47Z</time></trkpt>
<trkpt lat="29.886571" lon="93.268338">
<time>2016-10-08T04:11:48Z</time></trkpt>
<trkpt lat="29.886522" lon="93.268159">
<time>2016-10-08T04:11:49Z</time></trkpt>
<trkpt lat="29.886452" lon="93.267889">
<time>2016-10-08T04:11:50Z</time></trkpt>
<trkpt lat="29.886432" lon="93.267839">
<time>2016-10-08T04:11:51Z</time></trkpt>
<trkpt lat="29.886392" lon="93.267709">
<time>2016-10-08T04:11:52Z</time></trkpt>
<trkpt lat="29.886372" lon="93.267669">
<time>2016-10-08T04:11:53Z</time></trkpt>
<trkpt lat="29.886342" lon="93.267579">
<time>2016-10-08T04:11:54Z</time></trkpt>
<trkpt lat="29.886272" lon="93.267399">
<time>2016-10-08T04:11:55Z</time></trkpt>
<trkpt lat="29.886232" lon="93.2673">
<time>2016-10-08T04:11:56Z</time></trkpt>
<trkpt lat="29.886192" lon="93.26722">
<time>2016-10-08T04:11:57Z</time></trkpt>
<trkpt lat="29.886172" lon="93.26717">
<time>2016-10-08T04:11:58Z</time></trkpt>
<trkpt lat="29.886142" lon="93.26711">
<time>2016-10-08T04:11:59Z</time></trkpt>
<trkpt lat="29.886112" lon="93.26705">
<time>2016-10-08T04:12:00Z</time></trkpt>
<trkpt lat="29.886062" lon="93.26697">
<time>2016-10-08T04:12:01Z</time></trkpt>
<trkpt lat="29.886022" lon="93.26691">
<time>2016-10-08T04:12:02Z</time></trkpt>
<trkpt lat="29.885982" lon="93.26685">
<time>2016-10-08T04:12:03Z</time></trkpt>
<trkpt lat="29.885942" lon="93.2668">
<time>2016-10-08T04:12:04Z</time></trkpt>
<trkpt lat="29.885883" lon="93.26673">
<time>2016-10-08T04:12:05Z</time></trkpt>
<trkpt lat="29.885833" lon="93.26667">
<time>2016-10-08T04:12:06Z</time></trkpt>
<trkpt lat="29.885763" lon="93.26659">
<time>2016-10-08T04:12:07Z</time></trkpt>
<trkpt lat="29.885593" lon="93.266411">
<time>2016-10-08T04:12:08Z</time></trkpt>
<trkpt lat="29.885463" lon="93.266271">
<time>2016-10-08T04:12:09Z</time></trkpt>
<trkpt lat="29.885413" lon="93.266221">
<time>2016-10-08T04:12:10Z</time></trkpt>
<trkpt lat="29.885373" lon="93.266171">
<time>2016-10-08T04:12:11Z</time></trkpt>
<trkpt lat="29.885343" lon="93.266131">
<time>2016-10-08T04:12:12Z</time></trkpt>
<trkpt lat="29.885313" lon="93.266091">
<time>2016-10-08T04:12:13Z</time></trkpt>
<trkpt lat="29.885293" lon="93.266041">
<time>2016-10-08T04:12:14Z</time></trkpt>
<trkpt lat="29.885263" lon="93.265981">
<time>2016-10-08T04:12:15Z</time></trkpt>
<trkpt lat="29.885243" lon="93.265931">
<time>2016-10-08T04:12:16Z</time></trkpt>
<trkpt lat="29.885223" lon="93.265881">
<time>2016-10-08T04:12:17Z</time></trkpt>
<trkpt lat="29.885193" lon="93.265791">
<time>2016-10-08T04:12:18Z</time></trkpt>
<trkpt lat="29.885153" lon="93.265651">
<time>2016-10-08T04:12:19Z</time></trkpt>
<trkpt lat="29.885044" lon="93.265302">
<time>2016-10-08T04:12:20Z</time></trkpt>
<trkpt lat="29.884974" lon="93.265042">
<time>2016-10-08T04:12:21Z</time></trkpt>
<trkpt lat="29.884914" lon="93.264852">
<time>2016-10-08T04:12:22Z</time></trkpt>
<trkpt lat="29.884874" lon="93.264712">
<time>2016-10-08T04:12:23Z</time></trkpt>
<trkpt lat="29.884854" lon="93.264652">
<time>2016-10-08T04:12:24Z</time></trkpt>
<trkpt lat="29.884824" lon="93.264592">
<time>2016-10-08T04:12:25Z</time></trkpt>
<trkpt lat="29.884794" lon="93.264523">
<time>2016-10-08T04:12:26Z</time></trkpt>
<trkpt lat="29.884744" lon="93.264423">
<time>2016-10-08T04:12:27Z</time></trkpt>
<trkpt lat="29.884624" lon="93.264173">
<time>2016-10-08T04:12:28Z</time></trkpt>
<trkpt lat="29.884514" lon="93.263953">
<time>2016-10-08T04:12:29Z</time></trkpt>
<trkpt lat="29.884484" lon="93.263893">
<time>2016-10-08T04:12:30Z</time></trkpt>
<trkpt lat="29.884454" lon="93.263803">
<time>2016-10-08T04:12:31Z</time></trkpt>
<trkpt lat="29.884424" lon="93.263703">
<time>2016-10-08T04:12:32Z</time></trkpt>
<trkpt lat="29.884405" lon="93.263653">
<time>2016-10-08T04:12:33Z</time></trkpt>
<trkpt lat="29.884395" lon="93.263574">
<time>2016-10-08T04:12:34Z</time></trkpt>
<trkpt lat="29.884385" lon="93.263504">
<time>2016-10-08T04:12:35Z</time></trkpt>
<trkpt lat="29.884375" lon="93.263424">
<time>2016-10-08T04:12:36Z</time></trkpt>
<trkpt lat="29.884365" lon="93.263344">
<time>2016-10-08T04:12:37Z</time></trkpt>
<trkpt lat="29.884365" lon="93.263264">
<time>2016-10-08T04:12:38Z</time></trkpt>
<trkpt lat="29.884365" lon="93.263134">
<time>2016-10-08T04:12:39Z</time></trkpt>
<trkpt lat="29.884375" lon="93.262864">
<time>2016-10-08T04:12:40Z</time></trkpt>
<trkpt lat="29.884375" lon="93.262664">
<time>2016-10-08T04:12:41Z</time></trkpt>
<trkpt lat="29.884385" lon="93.262545">
<time>2016-10-08T04:12:42Z</time></trkpt>
<trkpt lat="29.884375" lon="93.262445">
<time>2016-10-08T04:12:43Z</time></trkpt>
<trkpt lat="29.884375" lon="93.262395">
<time>2016-10-08T04:12:44Z</time></trkpt>
<trkpt lat="29.884365" lon="93.262315">
<time>2016-10-08T04:12:45Z</time></trkpt>
<trkpt lat="29.884355" lon="93.262245">
<time>2016-10-08T04:12:46Z</time></trkpt>
<trkpt lat="29.884345" lon="93.262185">
<time>2016-10-08T04:12:47Z</time></trkpt>
<trkpt lat="29.884335" lon="93.262155">
<time>2016-10-08T04:12:48Z</time></trkpt>
<trkpt lat="29.884325" lon="93.262095">
<time>2016-10-08T04:12:49Z</time></trkpt>
<trkpt lat="29.884315" lon="93.262055">
<time>2016-10-08T04:12:50Z</time></trkpt>
<trkpt lat="29.884305" lon="93.262025">
<time>2016-10-08T04:12:51Z</time></trkpt>
<trkpt lat="29.884285" lon="93.261955">
<time>2016-10-08T04:12:52Z</time></trkpt>
<trkpt lat="29.884255" lon="93.261835">
<time>2016-10-08T04:12:53Z</time></trkpt>
<trkpt lat="29.884146" lon="93.261456">
<time>2016-10-08T04:12:54Z</time></trkpt>
<trkpt lat="29.884066" lon="93.261176">
<time>2016-10-08T04:12:55Z</time></trkpt>
<trkpt lat="29.883986" lon="93.260876">
<time>2016-10-08T04:12:56Z</time></trkpt>
<trkpt lat="29.883936" lon="93.260676">
<time>2016-10-08T04:12:57Z</time></trkpt>
<trkpt lat="29.883876" lon="93.260476">
<time>2016-10-08T04:12:58Z</time></trkpt>
<trkpt lat="29.883846" lon="93.260396">
<time>2016-10-08T04:12:59Z</time></trkpt>
<trkpt lat="29.883816" lon="93.260277">
<time>2016-10-08T04:13:00Z</time></trkpt>
<trkpt lat="29.883796" lon="93.260217">
<time>2016-10-08T04:13:01Z</time></trkpt>
<trkpt lat="29.883776" lon="93.260177">
<time>2016-10-08T04:13:02Z</time></trkpt>
<trkpt lat="29.883726" lon="93.260037">
<time>2016-10-08T04:13:03Z</time></trkpt>
<trkpt lat="29.883716" lon="93.259997">
<time>2016-10-08T04:13:04Z</time></trkpt>
<trkpt lat="29.883706" lon="93.259957">
<time>2016-10-08T04:13:05Z</time></trkpt>
<trkpt lat="29.883686" lon="93.259907">
<time>2016-10-08T04:13:06Z</time></trkpt>
<trkpt lat="29.883676" lon="93.259857">
<time>2016-10-08T04:13:07Z</time></trkpt>
<trkpt lat="29.883676" lon="93.259857">
<time>2016-10-08T04:13:08Z</time></trkpt>
<trkpt lat="29.883497" lon="93.259467">
<time>2016-10-08T04:13:09Z</time></trkpt>
<trkpt lat="29.882947" lon="93.258118">
<time>2016-10-08T04:13:10Z</time></trkpt>
<trkpt lat="29.882498" lon="93.257119">
<time>2016-10-08T04:13:11Z</time></trkpt>
<trkpt lat="29.882308" lon="93.256659">
<time>2016-10-08T04:13:12Z</time></trkpt>
<trkpt lat="29.882188" lon="93.2563">
<time>2016-10-08T04:13:13Z</time></trkpt>
<trkpt lat="29.882148" lon="93.25605">
<time>2016-10-08T04:13:14Z</time></trkpt>
<trkpt lat="29.882148" lon="93.25582">
<time>2016-10-08T04:13:15Z</time></trkpt>
<trkpt lat="29.882168" lon="93.25548">
<time>2016-10-08T04:13:16Z</time></trkpt>
<trkpt lat="29.882278" lon="93.2551">
<time>2016-10-08T04:13:17Z</time></trkpt>
<trkpt lat="29.882418" lon="93.254841">
<time>2016-10-08T04:13:18Z</time></trkpt>
<trkpt lat="29.882538" lon="93.254631">
<time>2016-10-08T04:13:19Z</time></trkpt>
<trkpt lat="29.882538" lon="93.254631">
<time>2016-10-08T04:13:20Z</time></trkpt>
<trkpt lat="29.882478" lon="93.254531">
<time>2016-10-08T04:13:21Z</time></trkpt>
<trkpt lat="29.882448" lon="93.254471">
<time>2016-10-08T04:13:22Z</time></trkpt>
<trkpt lat="29.882428" lon="93.254411">
<time>2016-10-08T04:13:23Z</time></trkpt>
<trkpt lat="29.882398" lon="93.254321">
<time>2016-10-08T04:13:24Z</time></trkpt>
<trkpt lat="29.882368" lon="93.254191">
<time>2016-10-08T04:13:25Z</time></trkpt>
<trkpt lat="29.882358" lon="93.254111">
<time>2016-10-08T04:13:26Z</time></trkpt>
<trkpt lat="29.882358" lon="93.254021">
<time>2016-10-08T04:13:27Z</time></trkpt>
<trkpt lat="29.882358" lon="93.253911">
<time>2016-10-08T04:13:28Z</time></trkpt>
<trkpt lat="29.882368" lon="93.253841">
<time>2016-10-08T04:13:29Z</time></trkpt>
<trkpt lat="29.882388" lon="93.253721">
<time>2016-10-08T04:13:30Z</time></trkpt>
<trkpt lat="29.882519" lon="93.253032">
<time>2016-10-08T04:13:31Z</time></trkpt>
<trkpt lat="29.882719" lon="93.251752">
<time>2016-10-08T04:13:32Z</time></trkpt>
<trkpt lat="29.882889" lon="93.250733">
<time>2016-10-08T04:13:33Z</time></trkpt>
<trkpt lat="29.882929" lon="93.250183">
<time>2016-10-08T04:13:34Z</time></trkpt>
<trkpt lat="29.882929" lon="93.250143">
<time>2016-10-08T04:13:35Z</time></trkpt>
<trkpt lat="29.882939" lon="93.250073">
<time>2016-10-08T04:13:36Z</time></trkpt>
<trkpt lat="29.882949" lon="93.250053">
<time>2016-10-08T04:13:37Z</time></trkpt>
<trkpt lat="29.882979" lon="93.249823">
<time>2016-10-08T04:13:38Z</time></trkpt>
<trkpt lat="29.883029" lon="93.249503">
<time>2016-10-08T04:13:39Z</time></trkpt>
<trkpt lat="29.883109" lon="93.248874">
<time>2016-10-08T04:13:40Z</time></trkpt>
<trkpt lat="29.883129" lon="93.248724">
<time>2016-10-08T04:13:41Z</time></trkpt>
<trkpt lat="29.883179" lon="93.248434">
<time>2016-10-08T04:13:42Z</time></trkpt>
<trkpt lat="29.883239" lon="93.247974">
<time>2016-10-08T04:13:43Z</time></trkpt>
<trkpt lat="29.883349" lon="93.247304">
<time>2016-10-08T04:13:44Z</time></trkpt>
<trkpt lat="29.883439" lon="93.246734">
<time>2016-10-08T04:13:45Z</time></trkpt>
<trkpt lat="29.883559" lon="93.245984">
<time>2016-10-08T04:13:46Z</time></trkpt>
<trkpt lat="29.883579" lon="93.245795">
<time>2016-10-08T04:13:47Z</time></trkpt>
<trkpt lat="29.883609" lon="93.245585">
<time>2016-10-08T04:13:48Z</time></trkpt>
<trkpt lat="29.883639" lon="93.245505">
<time>2016-10-08T04:13:49Z</time></trkpt>
<trkpt lat="29.883649" lon="93.245465">
<time>2016-10-08T04:13:50Z</time></trkpt>
<trkpt lat="29.883669" lon="93.245425">
<time>2016-10-08T04:13:51Z</time></trkpt>
<trkpt lat="29.883699" lon="93.245375">
<time>2016-10-08T04:13:52Z</time></trkpt>
<trkpt lat="29.883759" lon="93.245305">
<time>2016-10-08T04:13:53Z</time></trkpt>
<trkpt lat="29.883849" lon="93.245215">
<time>2016-10-08T04:13:54Z</time></trkpt>
<trkpt lat="29.883979" lon="93.245105">
<time>2016-10-08T04:13:55Z</time></trkpt>
<trkpt lat="29.884109" lon="93.245015">
<time>2016-10-08T04:13:56Z</time></trkpt>
<trkpt lat="29.884109" lon="93.245015">
<time>2016-10-08T04:13:57Z</time></trkpt>
<trkpt lat="29.884009" lon="93.244275">
<time>2016-10-08T04:13:58Z</time></trkpt>
<trkpt lat="29.883858" lon="93.242675">
<time>2016-10-08T04:13:59Z</time></trkpt>
<trkpt lat="29.883878" lon="93.240915">
<time>2016-10-08T04:14:00Z</time></trkpt>
<trkpt lat="29.883878" lon="93.240575">
<time>2016-10-08T04:14:01Z</time></trkpt>
<trkpt lat="29.883878" lon="93.240575">
<time>2016-10-08T04:14:02Z</time></trkpt>
<trkpt lat="29.883888" lon="93.239855">
<time>2016-10-08T04:14:03Z</time></trkpt>
<trkpt lat="29.883887" lon="93.239715">
<time>2016-10-08T04:14:04Z</time></trkpt>
<trkpt lat="29.883887" lon="93.239645">
<time>2016-10-08T04:14:05Z</time></trkpt>
<trkpt lat="29.883877" lon="93.239545">
<time>2016-10-08T04:14:06Z</time></trkpt>
<trkpt lat="29.883857" lon="93.239355">
<time>2016-10-08T04:14:07Z</time></trkpt>
<trkpt lat="29.883827" lon="93.239165">
<time>2016-10-08T04:14:08Z</time></trkpt>
<trkpt lat="29.883787" lon="93.238935">
<time>2016-10-08T04:14:09Z</time></trkpt>
<trkpt lat="29.883757" lon="93.238725">
<time>2016-10-08T04:14:10Z</time></trkpt>
<trkpt lat="29.883717" lon="93.238515">
<time>2016-10-08T04:14:11Z</time></trkpt>
<trkpt lat="29.883697" lon="93.238385">
<time>2016-10-08T04:14:12Z</time></trkpt>
<trkpt lat="29.883667" lon="93.238255">
<time>2016-10-08T04:14:13Z</time></trkpt>
<trkpt lat="29.883627" lon="93.238085">
<time>2016-10-08T04:14:14Z</time></trkpt>
<trkpt lat="29.883607" lon="93.238005">
<time>2016-10-08T04:14:15Z</time></trkpt>
<trkpt lat="29.883587" lon="93.237925">
<time>2016-10-08T04:14:16Z</time></trkpt>
<trkpt lat="29.883567" lon="93.237855">
<time>2016-10-08T04:14:17Z</time></trkpt>
<trkpt lat="29.883537" lon="93.237775">
<time>2016-10-08T04:14:18Z</time></trkpt>
<trkpt lat="29.883507" lon="93.237705">
<time>2016-10-08T04:14:19Z</time></trkpt>
<trkpt lat="29.883477" lon="93.237625">
<time>2016-10-08T04:14:20Z</time></trkpt>
<trkpt lat="29.883427" lon="93.237495">
<time>2016-10-08T04:14:21Z</time></trkpt>
<trkpt lat="29.883287" lon="93.237175">
<time>2016-10-08T04:14:22Z</time></trkpt>
<trkpt lat="29.883166" lon="93.236915">
<time>2016-10-08T04:14:23Z</time></trkpt>
<trkpt lat="29.883116" lon="93.236805">
<time>2016-10-08T04:14:24Z</time></trkpt>
<trkpt lat="29.883056" lon="93.236665">
<time>2016-10-08T04:14:25Z</time></trkpt>
<trkpt lat="29.883016" lon="93.236545">
<time>2016-10-08T04:14:26Z</time></trkpt>
<trkpt lat="29.882996" lon="93.236495">
<time>2016-10-08T04:14:27Z</time></trkpt>
<trkpt lat="29.882976" lon="93.236445">
<time>2016-10-08T04:14:28Z</time></trkpt>
<trkpt lat="29.882956" lon="93.236385">
<time>2016-10-08T04:14:29Z</time></trkpt>
<trkpt lat="29.882946" lon="93.236325">
<time>2016-10-08T04:14:30Z</time></trkpt>
<trkpt lat="29.882916" lon="93.236235">
<time>2016-10-08T04:14:31Z</time></trkpt>
<trkpt lat="29.882906" lon="93.236155">
<time>2016-10-08T04:14:32Z</time></trkpt>
<trkpt lat="29.882886" lon="93.236055">
<time>2016-10-08T04:14:33Z</time></trkpt>
<trkpt lat="29.882876" lon="93.235955">
<time>2016-10-08T04:14:34Z</time></trkpt>
<trkpt lat="29.882846" lon="93.235715">
<time>2016-10-08T04:14:35Z</time></trkpt>
<trkpt lat="29.882836" lon="93.235555">
<time>2016-10-08T04:14:36Z</time></trkpt>
<trkpt lat="29.882796" lon="93.235215">
<time>2016-10-08T04:14:37Z</time></trkpt>
<trkpt lat="29.882766" lon="93.234975">
<time>2016-10-08T04:14:38Z</time></trkpt>
<trkpt lat="29.882755" lon="93.234865">
<time>2016-10-08T04:14:39Z</time></trkpt>
<trkpt lat="29.882755" lon="93.234775">
<time>2016-10-08T04:14:40Z</time></trkpt>
<trkpt lat="29.882755" lon="93.234715">
<time>2016-10-08T04:14:41Z</time></trkpt>
<trkpt lat="29.882745" lon="93.234655">
<time>2016-10-08T04:14:42Z</time></trkpt>
<trkpt lat="29.882755" lon="93.234585">
<time>2016-10-08T04:14:43Z</time></trkpt>
<trkpt lat="29.882755" lon="93.234535">
<time>2016-10-08T04:14:44Z</time></trkpt>
<trkpt lat="29.882755" lon="93.234485">
<time>2016-10-08T04:14:45Z</time></trkpt>
<trkpt lat="29.882765" lon="93.234395">
<time>2016-10-08T04:14:46Z</time></trkpt>
<trkpt lat="29.882795" lon="93.234225">
<time>2016-10-08T04:14:47Z</time></trkpt>
<trkpt lat="29.882835" lon="93.233944">
<time>2016-10-08T04:14:48Z</time></trkpt>
<trkpt lat="29.882875" lon="93.233644">
<time>2016-10-08T04:14:49Z</time></trkpt>
<trkpt lat="29.882895" lon="93.233554">
<time>2016-10-08T04:14:50Z</time></trkpt>
<trkpt lat="29.882905" lon="93.233504">
<time>2016-10-08T04:14:51Z</time></trkpt>
<trkpt lat="29.882925" lon="93.233424">
<time>2016-10-08T04:14:52Z</time></trkpt>
<trkpt lat="29.882945" lon="93.233364">
<time>2016-10-08T04:14:53Z</time></trkpt>
<trkpt lat="29.882955" lon="93.233324">
<time>2016-10-08T04:14:54Z</time></trkpt>
<trkpt lat="29.882975" lon="93.233274">
<time>2016-10-08T04:14:55Z</time></trkpt>
<trkpt lat="29.883005" lon="93.233204">
<time>2016-10-08T04:14:56Z</time></trkpt>
<trkpt lat="29.883035" lon="93.233154">
<time>2016-10-08T04:14:57Z</time></trkpt>
<trkpt lat="29.883075" lon="93.233074">
<time>2016-10-08T04:14:58Z</time></trkpt>
<trkpt lat="29.883094" lon="93.233024">
<time>2016-10-08T04:14:59Z</time></trkpt>
<trkpt lat="29.883204" lon="93.232804">
<time>2016-10-08T04:15:00Z</time></trkpt>
<trkpt lat="29.883294" lon="93.232624">
<time>2016-10-08T04:15:01Z</time></trkpt>
<trkpt lat="29.883354" lon="93.232494">
<time>2016-10-08T04:15:02Z</time></trkpt>
<trkpt lat="29.883414" lon="93.232354">
<time>2016-10-08T04:15:03Z</time></trkpt>
<trkpt lat="29.883434" lon="93.232314">
<time>2016-10-08T04:15:04Z</time></trkpt>
<trkpt lat="29.883444" lon="93.232294">
<time>2016-10-08T04:15:05Z</time></trkpt>
<trkpt lat="29.883464" lon="93.232214">
<time>2016-10-08T04:15:06Z</time></trkpt>
<trkpt lat="29.883494" lon="93.232134">
<time>2016-10-08T04:15:07Z</time></trkpt>
<trkpt lat="29.883514" lon="93.232054">
<time>2016-10-08T04:15:08Z</time></trkpt>
<trkpt lat="29.883544" lon="93.231944">
<time>2016-10-08T04:15:09Z</time></trkpt>
<trkpt lat="29.883564" lon="93.231844">
<time>2016-10-08T04:15:10Z</time></trkpt>
<trkpt lat="29.883574" lon="93.231774">
<time>2016-10-08T04:15:11Z</time></trkpt>
<trkpt lat="29.883594" lon="93.231704">
<time>2016-10-08T04:15:12Z</time></trkpt>
<trkpt lat="29.883604" lon="93.231664">
<time>2016-10-08T04:15:13Z</time></trkpt>
<trkpt lat="29.883614" lon="93.231624">
<time>2016-10-08T04:15:14Z</time></trkpt>
<trkpt lat="29.883634" lon="93.231544">
<time>2016-10-08T04:15:15Z</time></trkpt>
<trkpt lat="29.883673" lon="93.231344">
<time>2016-10-08T04:15:16Z</time></trkpt>
<trkpt lat="29.883703" lon="93.231224">
<time>2016-10-08T04:15:17Z</time></trkpt>
<trkpt lat="29.883743" lon="93.231094">
<time>2016-10-08T04:15:18Z</time></trkpt>
<trkpt lat="29.883783" lon="93.230933">
<time>2016-10-08T04:15:19Z</time></trkpt>
<trkpt lat="29.883793" lon="93.230873">
<time>2016-10-08T04:15:20Z</time></trkpt>
<trkpt lat="29.883803" lon="93.230813">
<time>2016-10-08T04:15:21Z</time></trkpt>
<trkpt lat="29.883823" lon="93.230733">
<time>2016-10-08T04:15:22Z</time></trkpt>
<trkpt lat="29.883833" lon="93.230693">
<time>2016-10-08T04:15:23Z</time></trkpt>
<trkpt lat="29.883843" lon="93.230643">
<time>2016-10-08T04:15:24Z</time></trkpt>
<trkpt lat="29.883843" lon="93.230583">
<time>2016-10-08T04:15:25Z</time></trkpt>
<trkpt lat="29.883843" lon="93.230543">
<time>2016-10-08T04:15:26Z</time></trkpt>
<trkpt lat="29.883833" lon="93.230473">
<time>2016-10-08T04:15:27Z</time></trkpt>
<trkpt lat="29.883833" lon="93.230443">
<time>2016-10-08T04:15:28Z</time></trkpt>
<trkpt lat="29.883823" lon="93.230423">
<time>2016-10-08T04:15:29Z</time></trkpt>
<trkpt lat="29.883813" lon="93.230383">
<time>2016-10-08T04:15:30Z</time></trkpt>
<trkpt lat="29.883813" lon="93.230353">
<time>2016-10-08T04:15:31Z</time></trkpt>
<trkpt lat="29.883793" lon="93.230313">
<time>2016-10-08T04:15:32Z</time></trkpt>
<trkpt lat="29.883783" lon="93.230273">
<time>2016-10-08T04:15:33Z</time></trkpt>
<trkpt lat="29.883773" lon="93.230243">
<time>2016-10-08T04:15:34Z</time></trkpt>
<trkpt lat="29.883753" lon="93.230213">
<time>2016-10-08T04:15:35Z</time></trkpt>
<trkpt lat="29.883723" lon="93.230153">
<time>2016-10-08T04:15:36Z</time></trkpt>
<trkpt lat="29.883693" lon="93.230113">
<time>2016-10-08T04:15:37Z</time></trkpt>
<trkpt lat="29.883683" lon="93.230093">
<time>2016-10-08T04:15:38Z</time></trkpt>
<trkpt lat="29.883673" lon="93.230073">
<time>2016-10-08T04:15:39Z</time></trkpt>
<trkpt lat="29.883643" lon="93.230043">
<time>2016-10-08T04:15:40Z</time></trkpt>
<trkpt lat="29.883633" lon="93.230033">
<time>2016-10-08T04:15:41Z</time></trkpt>
<trkpt lat="29.883593" lon="93.229993">
<time>2016-10-08T04:15:42Z</time></trkpt>
<trkpt lat="29.883563" lon="93.229963">
<time>2016-10-08T04:15:43Z</time></trkpt>
<trkpt lat="29.883533" lon="93.229943">
<time>2016-10-08T04:15:44Z</time></trkpt>
<trkpt lat="29.883422" lon="93.229873">
<time>2016-10-08T04:15:45Z</time></trkpt>
<trkpt lat="29.883242" lon="93.229743">
<time>2016-10-08T04:15:46Z</time></trkpt>
<trkpt lat="29.883092" lon="93.229643">
<time>2016-10-08T04:15:47Z</time></trkpt>
<trkpt lat="29.883002" lon="93.229573">
<time>2016-10-08T04:15:48Z</time></trkpt>
<trkpt lat="29.882912" lon="93.229523">
<time>2016-10-08T04:15:49Z</time></trkpt>
<trkpt lat="29.882822" lon="93.229473">
<time>2016-10-08T04:15:50Z</time></trkpt>
<trkpt lat="29.882612" lon="93.229373">
<time>2016-10-08T04:15:51Z</time></trkpt>
<trkpt lat="29.882512" lon="93.229313">
<time>2016-10-08T04:15:52Z</time></trkpt>
<trkpt lat="29.882462" lon="93.229273">
<time>2016-10-08T04:15:53Z</time></trkpt>
<trkpt lat="29.882432" lon="93.229253">
<time>2016-10-08T04:15:54Z</time></trkpt>
<trkpt lat="29.882402" lon="93.229233">
<time>2016-10-08T04:15:55Z</time></trkpt>
<trkpt lat="29.882362" lon="93.229193">
<time>2016-10-08T04:15:56Z</time></trkpt>
<trkpt lat="29.882332" lon="93.229153">
<time>2016-10-08T04:15:57Z</time></trkpt>
<trkpt lat="29.882312" lon="93.229123">
<time>2016-10-08T04:15:58Z</time></trkpt>
<trkpt lat="29.882292" lon="93.229093">
<time>2016-10-08T04:15:59Z</time></trkpt>
<trkpt lat="29.882252" lon="93.229013">
<time>2016-10-08T04:16:00Z</time></trkpt>
<trkpt lat="29.882212" lon="93.228943">
<time>2016-10-08T04:16:01Z</time></trkpt>
<trkpt lat="29.882182" lon="93.228853">
<time>2016-10-08T04:16:02Z</time></trkpt>
<trkpt lat="29.882142" lon="93.228723">
<time>2016-10-08T04:16:03Z</time></trkpt>
<trkpt lat="29.882092" lon="93.228593">
<time>2016-10-08T04:16:04Z</time></trkpt>
<trkpt lat="29.882031" lon="93.228342">
<time>2016-10-08T04:16:05Z</time></trkpt>
<trkpt lat="29.881921" lon="93.227972">
<time>2016-10-08T04:16:06Z</time></trkpt>
<trkpt lat="29.881791" lon="93.227522">
<time>2016-10-08T04:16:07Z</time></trkpt>
<trkpt lat="29.881761" lon="93.227412">
<time>2016-10-08T04:16:08Z</time></trkpt>
<trkpt lat="29.881731" lon="93.227282">
<time>2016-10-08T04:16:09Z</time></trkpt>
<trkpt lat="29.881701" lon="93.227122">
<time>2016-10-08T04:16:10Z</time></trkpt>
<trkpt lat="29.88165" lon="93.226832">
<time>2016-10-08T04:16:11Z</time></trkpt>
<trkpt lat="29.88163" lon="93.226682">
<time>2016-10-08T04:16:12Z</time></trkpt>
<trkpt lat="29.88163" lon="93.226562">
<time>2016-10-08T04:16:13Z</time></trkpt>
<trkpt lat="29.88162" lon="93.226501">
<time>2016-10-08T04:16:14Z</time></trkpt>
<trkpt lat="29.88163" lon="93.226371">
<time>2016-10-08T04:16:15Z</time></trkpt>
<trkpt lat="29.88164" lon="93.226301">
<time>2016-10-08T04:16:16Z</time></trkpt>
<trkpt lat="29.88165" lon="93.226231">
<time>2016-10-08T04:16:17Z</time></trkpt>
<trkpt lat="29.88166" lon="93.226111">
<time>2016-10-08T04:16:18Z</time></trkpt>
<trkpt lat="29.88167" lon="93.226011">
<time>2016-10-08T04:16:19Z</time></trkpt>
<trkpt lat="29.88169" lon="93.225921">
<time>2016-10-08T04:16:20Z</time></trkpt>
<trkpt lat="29.881709" lon="93.225851">
<time>2016-10-08T04:16:21Z</time></trkpt>
<trkpt lat="29.881729" lon="93.225771">
<time>2016-10-08T04:16:22Z</time></trkpt>
<trkpt lat="29.881769" lon="93.225621">
<time>2016-10-08T04:16:23Z</time></trkpt>
<trkpt lat="29.881809" lon="93.225511">
<time>2016-10-08T04:16:24Z</time></trkpt>
<trkpt lat="29.881899" lon="93.225241">
<time>2016-10-08T04:16:25Z</time></trkpt>
<trkpt lat="29.882019" lon="93.224901">
<time>2016-10-08T04:16:26Z</time></trkpt>
<trkpt lat="29.882188" lon="93.22446">
<time>2016-10-08T04:16:27Z</time></trkpt>
<trkpt lat="29.882378" lon="93.22394">
<time>2016-10-08T04:16:28Z</time></trkpt>
<trkpt lat="29.882478" lon="93.22366">
<time>2016-10-08T04:16:29Z</time></trkpt>
<trkpt lat="29.882507" lon="93.22359">
<time>2016-10-08T04:16:30Z</time></trkpt>
<trkpt lat="29.882527" lon="93.22353">
<time>2016-10-08T04:16:31Z</time></trkpt>
<trkpt lat="29.882617" lon="93.22328">
<time>2016-10-08T04:16:32Z</time></trkpt>
<trkpt lat="29.882647" lon="93.223179">
<time>2016-10-08T04:16:33Z</time></trkpt>
<trkpt lat="29.882946" lon="93.222379">
<time>2016-10-08T04:16:34Z</time></trkpt>
<trkpt lat="29.883046" lon="93.222099">
<time>2016-10-08T04:16:35Z</time></trkpt>
<trkpt lat="29.883136" lon="93.221828">
<time>2016-10-08T04:16:36Z</time></trkpt>
<trkpt lat="29.883525" lon="93.220798">
<time>2016-10-08T04:16:37Z</time></trkpt>
<trkpt lat="29.883704" lon="93.220287">
<time>2016-10-08T04:16:38Z</time></trkpt>
<trkpt lat="29.883764" lon="93.220067">
<time>2016-10-08T04:16:39Z</time></trkpt>
<trkpt lat="29.883944" lon="93.219597">
<time>2016-10-08T04:16:40Z</time></trkpt>
<trkpt lat="29.884043" lon="93.219357">
<time>2016-10-08T04:16:41Z</time></trkpt>
<trkpt lat="29.884173" lon="93.218976">
<time>2016-10-08T04:16:42Z</time></trkpt>
<trkpt lat="29.884223" lon="93.218846">
<time>2016-10-08T04:16:43Z</time></trkpt>
<trkpt lat="29.884313" lon="93.218596">
<time>2016-10-08T04:16:44Z</time></trkpt>
<trkpt lat="29.884512" lon="93.218065">
<time>2016-10-08T04:16:45Z</time></trkpt>
<trkpt lat="29.884681" lon="93.217615">
<time>2016-10-08T04:16:46Z</time></trkpt>
<trkpt lat="29.884751" lon="93.217415">
<time>2016-10-08T04:16:47Z</time></trkpt>
<trkpt lat="29.884821" lon="93.217225">
<time>2016-10-08T04:16:48Z</time></trkpt>
<trkpt lat="29.884881" lon="93.217035">
<time>2016-10-08T04:16:49Z</time></trkpt>
<trkpt lat="29.884941" lon="93.216894">
<time>2016-10-08T04:16:50Z</time></trkpt>
<trkpt lat="29.884971" lon="93.216804">
<time>2016-10-08T04:16:51Z</time></trkpt>
<trkpt lat="29.88501" lon="93.216694">
<time>2016-10-08T04:16:52Z</time></trkpt>
<trkpt lat="29.88511" lon="93.216424">
<time>2016-10-08T04:16:53Z</time></trkpt>
<trkpt lat="29.88516" lon="93.216314">
<time>2016-10-08T04:16:54Z</time></trkpt>
<trkpt lat="29.88519" lon="93.216224">
<time>2016-10-08T04:16:55Z</time></trkpt>
<trkpt lat="29.88528" lon="93.216014">
<time>2016-10-08T04:16:56Z</time></trkpt>
<trkpt lat="29.885409" lon="93.215703">
<time>2016-10-08T04:16:57Z</time></trkpt>
<trkpt lat="29.885529" lon="93.215463">
<time>2016-10-08T04:16:58Z</time></trkpt>
<trkpt lat="29.885878" lon="93.214692">
<time>2016-10-08T04:16:59Z</time></trkpt>
<trkpt lat="29.886227" lon="93.213932">
<time>2016-10-08T04:17:00Z</time></trkpt>
<trkpt lat="29.886536" lon="93.213281">
<time>2016-10-08T04:17:01Z</time></trkpt>
<trkpt lat="29.886915" lon="93.21247">
<time>2016-10-08T04:17:02Z</time></trkpt>
<trkpt lat="29.887135" lon="93.21201">
<time>2016-10-08T04:17:03Z</time></trkpt>
<trkpt lat="29.887314" lon="93.211629">
<time>2016-10-08T04:17:04Z</time></trkpt>
<trkpt lat="29.887793" lon="93.210568">
<time>2016-10-08T04:17:05Z</time></trkpt>
<trkpt lat="29.888142" lon="93.209787">
<time>2016-10-08T04:17:06Z</time></trkpt>
<trkpt lat="29.888401" lon="93.209237">
<time>2016-10-08T04:17:07Z</time></trkpt>
<trkpt lat="29.888551" lon="93.208906">
<time>2016-10-08T04:17:08Z</time></trkpt>
<trkpt lat="29.88864" lon="93.208706">
<time>2016-10-08T04:17:09Z</time></trkpt>
<trkpt lat="29.88877" lon="93.208406">
<time>2016-10-08T04:17:10Z</time></trkpt>
<trkpt lat="29.88888" lon="93.208195">
<time>2016-10-08T04:17:11Z</time></trkpt>
<trkpt lat="29.888979" lon="93.207995">
<time>2016-10-08T04:17:12Z</time></trkpt>
<trkpt lat="29.889079" lon="93.207815">
<time>2016-10-08T04:17:13Z</time></trkpt>
<trkpt lat="29.889259" lon="93.207525">
<time>2016-10-08T04:17:14Z</time></trkpt>
<trkpt lat="29.889309" lon="93.207444">
<time>2016-10-08T04:17:15Z</time></trkpt>
<trkpt lat="29.889498" lon="93.207124">
<time>2016-10-08T04:17:16Z</time></trkpt>
<trkpt lat="29.889907" lon="93.206423">
<time>2016-10-08T04:17:17Z</time></trkpt>
<trkpt lat="29.890296" lon="93.205732">
<time>2016-10-08T04:17:18Z</time></trkpt>
<trkpt lat="29.890506" lon="93.205372">
<time>2016-10-08T04:17:19Z</time></trkpt>
<trkpt lat="29.890805" lon="93.204821">
<time>2016-10-08T04:17:20Z</time></trkpt>
<trkpt lat="29.890955" lon="93.204541">
<time>2016-10-08T04:17:21Z</time></trkpt>
<trkpt lat="29.891423" lon="93.20365">
<time>2016-10-08T04:17:22Z</time></trkpt>
<trkpt lat="29.891623" lon="93.203279">
<time>2016-10-08T04:17:23Z</time></trkpt>
<trkpt lat="29.891932" lon="93.202718">
<time>2016-10-08T04:17:24Z</time></trkpt>
<trkpt lat="29.892341" lon="93.202027">
<time>2016-10-08T04:17:25Z</time></trkpt>
<trkpt lat="29.89275" lon="93.201347">
<time>2016-10-08T04:17:26Z</time></trkpt>
<trkpt lat="29.893119" lon="93.200766">
<time>2016-10-08T04:17:27Z</time></trkpt>
<trkpt lat="29.893498" lon="93.200135">
<time>2016-10-08T04:17:28Z</time></trkpt>
<trkpt lat="29.893947" lon="93.199404">
<time>2016-10-08T04:17:29Z</time></trkpt>
<trkpt lat="29.894356" lon="93.198733">
<time>2016-10-08T04:17:30Z</time></trkpt>
<trkpt lat="29.894435" lon="93.198593">
<time>2016-10-08T04:17:31Z</time></trkpt>
<trkpt lat="29.894495" lon="93.198493">
<time>2016-10-08T04:17:32Z</time></trkpt>
<trkpt lat="29.894595" lon="93.198302">
<time>2016-10-08T04:17:33Z</time></trkpt>
<trkpt lat="29.894874" lon="93.197741">
<time>2016-10-08T04:17:34Z</time></trkpt>
<trkpt lat="29.895093" lon="93.197241">
<time>2016-10-08T04:17:35Z</time></trkpt>
<trkpt lat="29.895352" lon="93.19667">
<time>2016-10-08T04:17:36Z</time></trkpt>
<trkpt lat="29.895432" lon="93.19648">
<time>2016-10-08T04:17:37Z</time></trkpt>
<trkpt lat="29.895502" lon="93.196259">
<time>2016-10-08T04:17:38Z</time></trkpt>
<trkpt lat="29.895581" lon="93.196019">
<time>2016-10-08T04:17:39Z</time></trkpt>
<trkpt lat="29.895661" lon="93.195839">
<time>2016-10-08T04:17:40Z</time></trkpt>
<trkpt lat="29.895741" lon="93.195658">
<time>2016-10-08T04:17:41Z</time></trkpt>
<trkpt lat="29.89582" lon="93.195508">
<time>2016-10-08T04:17:42Z</time></trkpt>
<trkpt lat="29.89599" lon="93.195248">
<time>2016-10-08T04:17:43Z</time></trkpt>
<trkpt lat="29.89615" lon="93.195047">
<time>2016-10-08T04:17:44Z</time></trkpt>
<trkpt lat="29.896209" lon="93.194967">
<time>2016-10-08T04:17:45Z</time></trkpt>
<trkpt lat="29.896439" lon="93.194657">
<time>2016-10-08T04:17:46Z</time></trkpt>
<trkpt lat="29.896818" lon="93.194136">
<time>2016-10-08T04:17:47Z</time></trkpt>
<trkpt lat="29.897117" lon="93.193735">
<time>2016-10-08T04:17:48Z</time></trkpt>
<trkpt lat="29.897267" lon="93.193535">
<time>2016-10-08T04:17:49Z</time></trkpt>
<trkpt lat="29.897836" lon="93.192794">
<time>2016-10-08T04:17:50Z</time></trkpt>
<trkpt lat="29.898105" lon="93.192453">
<time>2016-10-08T04:17:51Z</time></trkpt>
<trkpt lat="29.898395" lon="93.192093">
<time>2016-10-08T04:17:52Z</time></trkpt>
<trkpt lat="29.898554" lon="93.191893">
<time>2016-10-08T04:17:53Z</time></trkpt>
<trkpt lat="29.898644" lon="93.191782">
<time>2016-10-08T04:17:54Z</time></trkpt>
<trkpt lat="29.898734" lon="93.191672">
<time>2016-10-08T04:17:55Z</time></trkpt>
<trkpt lat="29.898834" lon="93.191552">
<time>2016-10-08T04:17:56Z</time></trkpt>
<trkpt lat="29.898864" lon="93.191522">
<time>2016-10-08T04:17:57Z</time></trkpt>
<trkpt lat="29.898903" lon="93.191482">
<time>2016-10-08T04:17:58Z</time></trkpt>
<trkpt lat="29.898943" lon="93.191432">
<time>2016-10-08T04:17:59Z</time></trkpt>
<trkpt lat="29.898993" lon="93.191352">
<time>2016-10-08T04:18:00Z</time></trkpt>
<trkpt lat="29.899063" lon="93.191272">
<time>2016-10-08T04:18:01Z</time></trkpt>
<trkpt lat="29.899203" lon="93.191101">
<time>2016-10-08T04:18:02Z</time></trkpt>
<trkpt lat="29.899243" lon="93.191051">
<time>2016-10-08T04:18:03Z</time></trkpt>
<trkpt lat="29.899303" lon="93.190981">
<time>2016-10-08T04:18:04Z</time></trkpt>
<trkpt lat="29.899333" lon="93.190941">
<time>2016-10-08T04:18:05Z</time></trkpt>
<trkpt lat="29.899362" lon="93.190901">
<time>2016-10-08T04:18:06Z</time></trkpt>
<trkpt lat="29.899442" lon="93.190801">
<time>2016-10-08T04:18:07Z</time></trkpt>
<trkpt lat="29.899482" lon="93.190741">
<time>2016-10-08T04:18:08Z</time></trkpt>
<trkpt lat="29.899512" lon="93.190711">
<time>2016-10-08T04:18:09Z</time></trkpt>
<trkpt lat="29.899612" lon="93.190591">
<time>2016-10-08T04:18:10Z</time></trkpt>
<trkpt lat="29.899752" lon="93.19042">
<time>2016-10-08T04:18:11Z</time></trkpt>
<trkpt lat="29.899871" lon="93.19028">
<time>2016-10-08T04:18:12Z</time></trkpt>
<trkpt lat="29.900101" lon="93.18999">
<time>2016-10-08T04:18:13Z</time></trkpt>
<trkpt lat="29.900261" lon="93.189799">
<time>2016-10-08T04:18:14Z</time></trkpt>
<trkpt lat="29.90034" lon="93.189689">
<time>2016-10-08T04:18:15Z</time></trkpt>
<trkpt lat="29.90064" lon="93.189328">
<time>2016-10-08T04:18:16Z</time></trkpt>
<trkpt lat="29.900789" lon="93.189138">
<time>2016-10-08T04:18:17Z</time></trkpt>
<trkpt lat="29.901039" lon="93.188838">
<time>2016-10-08T04:18:18Z</time></trkpt>
<trkpt lat="29.901208" lon="93.188627">
<time>2016-10-08T04:18:19Z</time></trkpt>
<trkpt lat="29.901298" lon="93.188527">
<time>2016-10-08T04:18:20Z</time></trkpt>
<trkpt lat="29.901348" lon="93.188477">
<time>2016-10-08T04:18:21Z</time></trkpt>
<trkpt lat="29.901398" lon="93.188427">
<time>2016-10-08T04:18:22Z</time></trkpt>
<trkpt lat="29.901428" lon="93.188397">
<time>2016-10-08T04:18:23Z</time></trkpt>
<trkpt lat="29.901478" lon="93.188347">
<time>2016-10-08T04:18:24Z</time></trkpt>
<trkpt lat="29.901528" lon="93.188307">
<time>2016-10-08T04:18:25Z</time></trkpt>
<trkpt lat="29.901558" lon="93.188277">
<time>2016-10-08T04:18:26Z</time></trkpt>
<trkpt lat="29.901588" lon="93.188257">
<time>2016-10-08T04:18:27Z</time></trkpt>
<trkpt lat="29.901608" lon="93.188237">
<time>2016-10-08T04:18:28Z</time></trkpt>
<trkpt lat="29.901658" lon="93.188197">
<time>2016-10-08T04:18:29Z</time></trkpt>
<trkpt lat="29.901758" lon="93.188127">
<time>2016-10-08T04:18:30Z</time></trkpt>
<trkpt lat="29.901798" lon="93.188096">
<time>2016-10-08T04:18:31Z</time></trkpt>
<trkpt lat="29.901897" lon="93.188026">
<time>2016-10-08T04:18:32Z</time></trkpt>
<trkpt lat="29.901947" lon="93.187996">
<time>2016-10-08T04:18:33Z</time></trkpt>
<trkpt lat="29.902057" lon="93.187936">
<time>2016-10-08T04:18:34Z</time></trkpt>
<trkpt lat="29.902247" lon="93.187826">
<time>2016-10-08T04:18:35Z</time></trkpt>
<trkpt lat="29.902337" lon="93.187776">
<time>2016-10-08T04:18:36Z</time></trkpt>
<trkpt lat="29.902537" lon="93.187666">
<time>2016-10-08T04:18:37Z</time></trkpt>
<trkpt lat="29.902747" lon="93.187546">
<time>2016-10-08T04:18:38Z</time></trkpt>
<trkpt lat="29.903726" lon="93.186975">
<time>2016-10-08T04:18:39Z</time></trkpt>
<trkpt lat="29.904225" lon="93.186714">
<time>2016-10-08T04:18:40Z</time></trkpt>
<trkpt lat="29.904924" lon="93.186364">
<time>2016-10-08T04:18:41Z</time></trkpt>
<trkpt lat="29.905364" lon="93.186153">
<time>2016-10-08T04:18:42Z</time></trkpt>
<trkpt lat="29.905504" lon="93.186083">
<time>2016-10-08T04:18:43Z</time></trkpt>
<trkpt lat="29.905584" lon="93.186043">
<time>2016-10-08T04:18:44Z</time></trkpt>
<trkpt lat="29.905814" lon="93.185933">
<time>2016-10-08T04:18:45Z</time></trkpt>
<trkpt lat="29.906423" lon="93.185622">
<time>2016-10-08T04:18:46Z</time></trkpt>
<trkpt lat="29.906753" lon="93.185462">
<time>2016-10-08T04:18:47Z</time></trkpt>
<trkpt lat="29.90948" lon="93.18409">
<time>2016-10-08T04:18:48Z</time></trkpt>
<trkpt lat="29.90982" lon="93.183929">
<time>2016-10-08T04:18:49Z</time></trkpt>
<trkpt lat="29.91001" lon="93.183829">
<time>2016-10-08T04:18:50Z</time></trkpt>
<trkpt lat="29.91026" lon="93.183709">
<time>2016-10-08T04:18:51Z</time></trkpt>
<trkpt lat="29.910369" lon="93.183649">
<time>2016-10-08T04:18:52Z</time></trkpt>
<trkpt lat="29.910519" lon="93.183579">
<time>2016-10-08T04:18:53Z</time></trkpt>
<trkpt lat="29.910649" lon="93.183509">
<time>2016-10-08T04:18:54Z</time></trkpt>
<trkpt lat="29.910769" lon="93.183459">
<time>2016-10-08T04:18:55Z</time></trkpt>
<trkpt lat="29.910899" lon="93.183389">
<time>2016-10-08T04:18:56Z</time></trkpt>
<trkpt lat="29.911019" lon="93.183328">
<time>2016-10-08T04:18:57Z</time></trkpt>
<trkpt lat="29.911129" lon="93.183268">
<time>2016-10-08T04:18:58Z</time></trkpt>
<trkpt lat="29.911269" lon="93.183198">
<time>2016-10-08T04:18:59Z</time></trkpt>
<trkpt lat="29.911329" lon="93.183168">
<time>2016-10-08T04:19:00Z</time></trkpt>
<trkpt lat="29.911438" lon="93.183108">
<time>2016-10-08T04:19:01Z</time></trkpt>
<trkpt lat="29.911528" lon="93.183058">
<time>2016-10-08T04:19:02Z</time></trkpt>
<trkpt lat="29.911578" lon="93.183028">
<time>2016-10-08T04:19:03Z</time></trkpt>
<trkpt lat="29.911608" lon="93.183008">
<time>2016-10-08T04:19:04Z</time></trkpt>
<trkpt lat="29.911638" lon="93.182988">
<time>2016-10-08T04:19:05Z</time></trkpt>
<trkpt lat="29.911678" lon="93.182958">
<time>2016-10-08T04:19:06Z</time></trkpt>
<trkpt lat="29.911718" lon="93.182928">
<time>2016-10-08T04:19:07Z</time></trkpt>
<trkpt lat="29.911738" lon="93.182908">
<time>2016-10-08T04:19:08Z</time></trkpt>
<trkpt lat="29.911748" lon="93.182888">
<time>2016-10-08T04:19:09Z</time></trkpt>
<trkpt lat="29.911788" lon="93.182848">
<time>2016-10-08T04:19:10Z</time></trkpt>
<trkpt lat="29.911798" lon="93.182828">
<time>2016-10-08T04:19:11Z</time></trkpt>
<trkpt lat="29.911828" lon="93.182798">
<time>2016-10-08T04:19:12Z</time></trkpt>
<trkpt lat="29.911848" lon="93.182757">
<time>2016-10-08T04:19:13Z</time></trkpt>
<trkpt lat="29.911868" lon="93.182727">
<time>2016-10-08T04:19:14Z</time></trkpt>
<trkpt lat="29.911898" lon="93.182677">
<time>2016-10-08T04:19:15Z</time></trkpt>
<trkpt lat="29.911908" lon="93.182647">
<time>2016-10-08T04:19:16Z</time></trkpt>
<trkpt lat="29.911918" lon="93.182627">
<time>2016-10-08T04:19:17Z</time></trkpt>
<trkpt lat="29.911937" lon="93.182587">
<time>2016-10-08T04:19:18Z</time></trkpt>
<trkpt lat="29.911947" lon="93.182547">
<time>2016-10-08T04:19:19Z</time></trkpt>
<trkpt lat="29.911967" lon="93.182507">
<time>2016-10-08T04:19:20Z</time></trkpt>
<trkpt lat="29.911977" lon="93.182457">
<time>2016-10-08T04:19:21Z</time></trkpt>
<trkpt lat="29.911987" lon="93.182417">
<time>2016-10-08T04:19:22Z</time></trkpt>
<trkpt lat="29.911987" lon="93.182367">
<time>2016-10-08T04:19:23Z</time></trkpt>
<trkpt lat="29.911997" lon="93.182317">
<time>2016-10-08T04:19:24Z</time></trkpt>
<trkpt lat="29.911997" lon="93.182247">
<time>2016-10-08T04:19:25Z</time></trkpt>
<trkpt lat="29.912007" lon="93.182166">
<time>2016-10-08T04:19:26Z</time></trkpt>
<trkpt lat="29.912007" lon="93.182066">
<time>2016-10-08T04:19:27Z</time></trkpt>
<trkpt lat="29.912006" lon="93.181946">
<time>2016-10-08T04:19:28Z</time></trkpt>
<trkpt lat="29.911996" lon="93.181826">
<time>2016-10-08T04:19:29Z</time></trkpt>
<trkpt lat="29.911996" lon="93.181666">
<time>2016-10-08T04:19:30Z</time></trkpt>
<trkpt lat="29.911996" lon="93.181565">
<time>2016-10-08T04:19:31Z</time></trkpt>
<trkpt lat="29.911985" lon="93.181465">
<time>2016-10-08T04:19:32Z</time></trkpt>
<trkpt lat="29.911985" lon="93.181335">
<time>2016-10-08T04:19:33Z</time></trkpt>
<trkpt lat="29.911975" lon="93.181215">
<time>2016-10-08T04:19:34Z</time></trkpt>
<trkpt lat="29.911975" lon="93.181045">
<time>2016-10-08T04:19:35Z</time></trkpt>
<trkpt lat="29.911974" lon="93.180944">
<time>2016-10-08T04:19:36Z</time></trkpt>
<trkpt lat="29.911943" lon="93.179963">
<time>2016-10-08T04:19:37Z</time></trkpt>
<trkpt lat="29.911942" lon="93.179802">
<time>2016-10-08T04:19:38Z</time></trkpt>
<trkpt lat="29.911932" lon="93.179582">
<time>2016-10-08T04:19:39Z</time></trkpt>
<trkpt lat="29.911932" lon="93.179442">
<time>2016-10-08T04:19:40Z</time></trkpt>
<trkpt lat="29.911921" lon="93.179221">
<time>2016-10-08T04:19:41Z</time></trkpt>
<trkpt lat="29.911911" lon="93.179061">
<time>2016-10-08T04:19:42Z</time></trkpt>
<trkpt lat="29.911901" lon="93.178911">
<time>2016-10-08T04:19:43Z</time></trkpt>
<trkpt lat="29.9119" lon="93.178781">
<time>2016-10-08T04:19:44Z</time></trkpt>
<trkpt lat="29.91189" lon="93.17868">
<time>2016-10-08T04:19:45Z</time></trkpt>
<trkpt lat="29.91189" lon="93.17856">
<time>2016-10-08T04:19:46Z</time></trkpt>
<trkpt lat="29.91188" lon="93.17842">
<time>2016-10-08T04:19:47Z</time></trkpt>
<trkpt lat="29.91187" lon="93.1783">
<time>2016-10-08T04:19:48Z</time></trkpt>
<trkpt lat="29.911859" lon="93.17824">
<time>2016-10-08T04:19:49Z</time></trkpt>
<trkpt lat="29.911859" lon="93.17819">
<time>2016-10-08T04:19:50Z</time></trkpt>
<trkpt lat="29.911849" lon="93.17815">
<time>2016-10-08T04:19:51Z</time></trkpt>
<trkpt lat="29.911849" lon="93.17813">
<time>2016-10-08T04:19:52Z</time></trkpt>
<trkpt lat="29.911849" lon="93.178099">
<time>2016-10-08T04:19:53Z</time></trkpt>
<trkpt lat="29.911839" lon="93.178029">
<time>2016-10-08T04:19:54Z</time></trkpt>
<trkpt lat="29.911819" lon="93.177939">
<time>2016-10-08T04:19:55Z</time></trkpt>
<trkpt lat="29.911798" lon="93.177719">
<time>2016-10-08T04:19:56Z</time></trkpt>
<trkpt lat="29.911778" lon="93.177559">
<time>2016-10-08T04:19:57Z</time></trkpt>
<trkpt lat="29.911758" lon="93.177398">
<time>2016-10-08T04:19:58Z</time></trkpt>
<trkpt lat="29.911748" lon="93.177298">
<time>2016-10-08T04:19:59Z</time></trkpt>
<trkpt lat="29.911737" lon="93.177168">
<time>2016-10-08T04:20:00Z</time></trkpt>
<trkpt lat="29.911727" lon="93.177088">
<time>2016-10-08T04:20:01Z</time></trkpt>
<trkpt lat="29.911687" lon="93.176787">
<time>2016-10-08T04:20:02Z</time></trkpt>
<trkpt lat="29.911656" lon="93.176517">
<time>2016-10-08T04:20:03Z</time></trkpt>
<trkpt lat="29.911636" lon="93.176346">
<time>2016-10-08T04:20:04Z</time></trkpt>
<trkpt lat="29.911605" lon="93.176106">
<time>2016-10-08T04:20:05Z</time></trkpt>
<trkpt lat="29.911585" lon="93.175916">
<time>2016-10-08T04:20:06Z</time></trkpt>
<trkpt lat="29.911565" lon="93.175735">
<time>2016-10-08T04:20:07Z</time></trkpt>
<trkpt lat="29.911544" lon="93.175545">
<time>2016-10-08T04:20:08Z</time></trkpt>
<trkpt lat="29.911524" lon="93.175415">
<time>2016-10-08T04:20:09Z</time></trkpt>
<trkpt lat="29.911514" lon="93.175255">
<time>2016-10-08T04:20:10Z</time></trkpt>
<trkpt lat="29.911494" lon="93.175114">
<time>2016-10-08T04:20:11Z</time></trkpt>
<trkpt lat="29.911483" lon="93.175014">
<time>2016-10-08T04:20:12Z</time></trkpt>
<trkpt lat="29.911473" lon="93.174894">
<time>2016-10-08T04:20:13Z</time></trkpt>
<trkpt lat="29.911453" lon="93.174744">
<time>2016-10-08T04:20:14Z</time></trkpt>
<trkpt lat="29.911443" lon="93.174664">
<time>2016-10-08T04:20:15Z</time></trkpt>
<trkpt lat="29.911423" lon="93.174553">
<time>2016-10-08T04:20:16Z</time></trkpt>
<trkpt lat="29.911412" lon="93.174493">
<time>2016-10-08T04:20:17Z</time></trkpt>
<trkpt lat="29.911392" lon="93.174353">
<time>2016-10-08T04:20:18Z</time></trkpt>
<trkpt lat="29.911372" lon="93.174263">
<time>2016-10-08T04:20:19Z</time></trkpt>
<trkpt lat="29.911342" lon="93.174153">
<time>2016-10-08T04:20:20Z</time></trkpt>
<trkpt lat="29.911322" lon="93.174073">
<time>2016-10-08T04:20:21Z</time></trkpt>
<trkpt lat="29.911291" lon="93.173942">
<time>2016-10-08T04:20:22Z</time></trkpt>
<trkpt lat="29.911251" lon="93.173832">
<time>2016-10-08T04:20:23Z</time></trkpt>
<trkpt lat="29.911231" lon="93.173762">
<time>2016-10-08T04:20:24Z</time></trkpt>
<trkpt lat="29.911221" lon="93.173732">
<time>2016-10-08T04:20:25Z</time></trkpt>
<trkpt lat="29.911201" lon="93.173662">
<time>2016-10-08T04:20:26Z</time></trkpt>
<trkpt lat="29.911161" lon="93.173532">
<time>2016-10-08T04:20:27Z</time></trkpt>
<trkpt lat="29.9111" lon="93.173371">
<time>2016-10-08T04:20:28Z</time></trkpt>
<trkpt lat="29.91107" lon="93.173281">
<time>2016-10-08T04:20:29Z</time></trkpt>
<trkpt lat="29.91105" lon="93.173211">
<time>2016-10-08T04:20:30Z</time></trkpt>
<trkpt lat="29.91102" lon="93.173131">
<time>2016-10-08T04:20:31Z</time></trkpt>
<trkpt lat="29.91098" lon="93.173011">
<time>2016-10-08T04:20:32Z</time></trkpt>
<trkpt lat="29.91098" lon="93.172991">
<time>2016-10-08T04:20:33Z</time></trkpt>
<trkpt lat="29.91097" lon="93.172961">
<time>2016-10-08T04:20:34Z</time></trkpt>
<trkpt lat="29.91096" lon="93.172941">
<time>2016-10-08T04:20:35Z</time></trkpt>
<trkpt lat="29.910959" lon="93.172911">
<time>2016-10-08T04:20:36Z</time></trkpt>
<trkpt lat="29.910959" lon="93.17289">
<time>2016-10-08T04:20:37Z</time></trkpt>
<trkpt lat="29.910959" lon="93.17287">
<time>2016-10-08T04:20:38Z</time></trkpt>
<trkpt lat="29.910959" lon="93.17284">
<time>2016-10-08T04:20:39Z</time></trkpt>
<trkpt lat="29.910949" lon="93.17283">
<time>2016-10-08T04:20:40Z</time></trkpt>
<trkpt lat="29.910959" lon="93.1728">
<time>2016-10-08T04:20:41Z</time></trkpt>
<trkpt lat="29.910959" lon="93.17276">
<time>2016-10-08T04:20:42Z</time></trkpt>
<trkpt lat="29.910969" lon="93.17273">
<time>2016-10-08T04:20:43Z</time></trkpt>
<trkpt lat="29.910979" lon="93.17268">
<time>2016-10-08T04:20:44Z</time></trkpt>
<trkpt lat="29.910989" lon="93.17266">
<time>2016-10-08T04:20:45Z</time></trkpt>
<trkpt lat="29.910999" lon="93.17264">
<time>2016-10-08T04:20:46Z</time></trkpt>
<trkpt lat="29.911009" lon="93.17261">
<time>2016-10-08T04:20:47Z</time></trkpt>
<trkpt lat="29.911019" lon="93.17258">
<time>2016-10-08T04:20:48Z</time></trkpt>
<trkpt lat="29.911039" lon="93.17255">
<time>2016-10-08T04:20:49Z</time></trkpt>
<trkpt lat="29.911049" lon="93.17253">
<time>2016-10-08T04:20:50Z</time></trkpt>
<trkpt lat="29.911059" lon="93.17252">
<time>2016-10-08T04:20:51Z</time></trkpt>
<trkpt lat="29.911109" lon="93.17243">
<time>2016-10-08T04:20:52Z</time></trkpt>
<trkpt lat="29.911138" lon="93.17239">
<time>2016-10-08T04:20:53Z</time></trkpt>
<trkpt lat="29.911218" lon="93.172289">
<time>2016-10-08T04:20:54Z</time></trkpt>
<trkpt lat="29.911328" lon="93.172129">
<time>2016-10-08T04:20:55Z</time></trkpt>
<trkpt lat="29.911378" lon="93.172059">
<time>2016-10-08T04:20:56Z</time></trkpt>
<trkpt lat="29.911428" lon="93.171989">
<time>2016-10-08T04:20:57Z</time></trkpt>
<trkpt lat="29.911488" lon="93.171899">
<time>2016-10-08T04:20:58Z</time></trkpt>
<trkpt lat="29.911527" lon="93.171829">
<time>2016-10-08T04:20:59Z</time></trkpt>
<trkpt lat="29.911577" lon="93.171728">
<time>2016-10-08T04:21:00Z</time></trkpt>
<trkpt lat="29.911627" lon="93.171648">
<time>2016-10-08T04:21:01Z</time></trkpt>
<trkpt lat="29.911647" lon="93.171608">
<time>2016-10-08T04:21:02Z</time></trkpt>
<trkpt lat="29.911667" lon="93.171558">
<time>2016-10-08T04:21:03Z</time></trkpt>
<trkpt lat="29.911697" lon="93.171508">
<time>2016-10-08T04:21:04Z</time></trkpt>
<trkpt lat="29.911727" lon="93.171428">
<time>2016-10-08T04:21:05Z</time></trkpt>
<trkpt lat="29.911757" lon="93.171358">
<time>2016-10-08T04:21:06Z</time></trkpt>
<trkpt lat="29.911786" lon="93.171278">
<time>2016-10-08T04:21:07Z</time></trkpt>
<trkpt lat="29.911846" lon="93.171147">
<time>2016-10-08T04:21:08Z</time></trkpt>
<trkpt lat="29.911876" lon="93.171047">
<time>2016-10-08T04:21:09Z</time></trkpt>
<trkpt lat="29.911946" lon="93.170887">
<time>2016-10-08T04:21:10Z</time></trkpt>
<trkpt lat="29.912025" lon="93.170697">
<time>2016-10-08T04:21:11Z</time></trkpt>
<trkpt lat="29.912085" lon="93.170576">
<time>2016-10-08T04:21:12Z</time></trkpt>
<trkpt lat="29.912115" lon="93.170516">
<time>2016-10-08T04:21:13Z</time></trkpt>
<trkpt lat="29.912205" lon="93.170336">
<time>2016-10-08T04:21:14Z</time></trkpt>
<trkpt lat="29.912254" lon="93.170236">
<time>2016-10-08T04:21:15Z</time></trkpt>
<trkpt lat="29.912394" lon="93.169985">
<time>2016-10-08T04:21:16Z</time></trkpt>
<trkpt lat="29.912573" lon="93.169695">
<time>2016-10-08T04:21:17Z</time></trkpt>
<trkpt lat="29.912813" lon="93.169294">
<time>2016-10-08T04:21:18Z</time></trkpt>
<trkpt lat="29.913032" lon="93.168954">
<time>2016-10-08T04:21:19Z</time></trkpt>
<trkpt lat="29.913162" lon="93.168753">
<time>2016-10-08T04:21:20Z</time></trkpt>
<trkpt lat="29.913331" lon="93.168453">
<time>2016-10-08T04:21:21Z</time></trkpt>
<trkpt lat="29.91349" lon="93.168162">
<time>2016-10-08T04:21:22Z</time></trkpt>
<trkpt lat="29.91355" lon="93.168032">
<time>2016-10-08T04:21:23Z</time></trkpt>
<trkpt lat="29.91362" lon="93.167912">
<time>2016-10-08T04:21:24Z</time></trkpt>
<trkpt lat="29.91363" lon="93.167892">
<time>2016-10-08T04:21:25Z</time></trkpt>
<trkpt lat="29.91367" lon="93.167822">
<time>2016-10-08T04:21:26Z</time></trkpt>
<trkpt lat="29.9137" lon="93.167751">
<time>2016-10-08T04:21:27Z</time></trkpt>
<trkpt lat="29.91373" lon="93.167691">
<time>2016-10-08T04:21:28Z</time></trkpt>
<trkpt lat="29.91374" lon="93.167661">
<time>2016-10-08T04:21:29Z</time></trkpt>
<trkpt lat="29.913759" lon="93.167631">
<time>2016-10-08T04:21:30Z</time></trkpt>
<trkpt lat="29.913779" lon="93.167581">
<time>2016-10-08T04:21:31Z</time></trkpt>
<trkpt lat="29.913799" lon="93.167531">
<time>2016-10-08T04:21:32Z</time></trkpt>
<trkpt lat="29.913809" lon="93.167491">
<time>2016-10-08T04:21:33Z</time></trkpt>
<trkpt lat="29.913829" lon="93.167451">
<time>2016-10-08T04:21:34Z</time></trkpt>
<trkpt lat="29.913839" lon="93.167421">
<time>2016-10-08T04:21:35Z</time></trkpt>
<trkpt lat="29.913849" lon="93.167381">
<time>2016-10-08T04:21:36Z</time></trkpt>
<trkpt lat="29.913869" lon="93.167341">
<time>2016-10-08T04:21:37Z</time></trkpt>
<trkpt lat="29.913879" lon="93.167301">
<time>2016-10-08T04:21:38Z</time></trkpt>
<trkpt lat="29.913899" lon="93.167231">
<time>2016-10-08T04:21:39Z</time></trkpt>
<trkpt lat="29.913909" lon="93.167211">
<time>2016-10-08T04:21:40Z</time></trkpt>
<trkpt lat="29.913919" lon="93.167191">
<time>2016-10-08T04:21:41Z</time></trkpt>
<trkpt lat="29.913919" lon="93.16717">
<time>2016-10-08T04:21:42Z</time></trkpt>
<trkpt lat="29.913919" lon="93.16716">
<time>2016-10-08T04:21:43Z</time></trkpt>
<trkpt lat="29.913929" lon="93.16714">
<time>2016-10-08T04:21:44Z</time></trkpt>
<trkpt lat="29.913939" lon="93.16711">
<time>2016-10-08T04:21:45Z</time></trkpt>
<trkpt lat="29.913938" lon="93.16709">
<time>2016-10-08T04:21:46Z</time></trkpt>
<trkpt lat="29.913948" lon="93.16705">
<time>2016-10-08T04:21:47Z</time></trkpt>
<trkpt lat="29.913958" lon="93.16701">
<time>2016-10-08T04:21:48Z</time></trkpt>
<trkpt lat="29.913958" lon="93.16698">
<time>2016-10-08T04:21:49Z</time></trkpt>
<trkpt lat="29.913968" lon="93.16692">
<time>2016-10-08T04:21:50Z</time></trkpt>
<trkpt lat="29.913978" lon="93.16686">
<time>2016-10-08T04:21:51Z</time></trkpt>
<trkpt lat="29.913978" lon="93.16683">
<time>2016-10-08T04:21:52Z</time></trkpt>
<trkpt lat="29.913988" lon="93.16675">
<time>2016-10-08T04:21:53Z</time></trkpt>
<trkpt lat="29.913998" lon="93.16666">
<time>2016-10-08T04:21:54Z</time></trkpt>
<trkpt lat="29.914008" lon="93.166599">
<time>2016-10-08T04:21:55Z</time></trkpt>
<trkpt lat="29.914017" lon="93.166499">
<time>2016-10-08T04:21:56Z</time></trkpt>
<trkpt lat="29.914017" lon="93.166419">
<time>2016-10-08T04:21:57Z</time></trkpt>
<trkpt lat="29.914027" lon="93.166289">
<time>2016-10-08T04:21:58Z</time></trkpt>
<trkpt lat="29.914047" lon="93.166189">
<time>2016-10-08T04:21:59Z</time></trkpt>
<trkpt lat="29.914057" lon="93.166119">
<time>2016-10-08T04:22:00Z</time></trkpt>
<trkpt lat="29.914067" lon="93.166079">
<time>2016-10-08T04:22:01Z</time></trkpt>
<trkpt lat="29.914076" lon="93.166008">
<time>2016-10-08T04:22:02Z</time></trkpt>
<trkpt lat="29.914086" lon="93.165968">
<time>2016-10-08T04:22:03Z</time></trkpt>
<trkpt lat="29.914106" lon="93.165898">
<time>2016-10-08T04:22:04Z</time></trkpt>
<trkpt lat="29.914116" lon="93.165858">
<time>2016-10-08T04:22:05Z</time></trkpt>
<trkpt lat="29.914126" lon="93.165838">
<time>2016-10-08T04:22:06Z</time></trkpt>
<trkpt lat="29.914146" lon="93.165788">
<time>2016-10-08T04:22:07Z</time></trkpt>
<trkpt lat="29.914166" lon="93.165748">
<time>2016-10-08T04:22:08Z</time></trkpt>
<trkpt lat="29.914176" lon="93.165708">
<time>2016-10-08T04:22:09Z</time></trkpt>
<trkpt lat="29.914196" lon="93.165658">
<time>2016-10-08T04:22:10Z</time></trkpt>
<trkpt lat="29.914226" lon="93.165618">
<time>2016-10-08T04:22:11Z</time></trkpt>
<trkpt lat="29.914246" lon="93.165578">
<time>2016-10-08T04:22:12Z</time></trkpt>
<trkpt lat="29.914266" lon="93.165538">
<time>2016-10-08T04:22:13Z</time></trkpt>
<trkpt lat="29.914285" lon="93.165498">
<time>2016-10-08T04:22:14Z</time></trkpt>
<trkpt lat="29.914305" lon="93.165468">
<time>2016-10-08T04:22:15Z</time></trkpt>
<trkpt lat="29.914325" lon="93.165447">
<time>2016-10-08T04:22:16Z</time></trkpt>
<trkpt lat="29.914345" lon="93.165427">
<time>2016-10-08T04:22:17Z</time></trkpt>
<trkpt lat="29.914365" lon="93.165397">
<time>2016-10-08T04:22:18Z</time></trkpt>
<trkpt lat="29.914385" lon="93.165367">
<time>2016-10-08T04:22:19Z</time></trkpt>
<trkpt lat="29.914405" lon="93.165347">
<time>2016-10-08T04:22:20Z</time></trkpt>
<trkpt lat="29.914435" lon="93.165317">
<time>2016-10-08T04:22:21Z</time></trkpt>
<trkpt lat="29.914455" lon="93.165287">
<time>2016-10-08T04:22:22Z</time></trkpt>
<trkpt lat="29.914505" lon="93.165237">
<time>2016-10-08T04:22:23Z</time></trkpt>
<trkpt lat="29.914565" lon="93.165177">
<time>2016-10-08T04:22:24Z</time></trkpt>
<trkpt lat="29.914605" lon="93.165137">
<time>2016-10-08T04:22:25Z</time></trkpt>
<trkpt lat="29.914675" lon="93.165087">
<time>2016-10-08T04:22:26Z</time></trkpt>
<trkpt lat="29.914695" lon="93.165067">
<time>2016-10-08T04:22:27Z</time></trkpt>
<trkpt lat="29.914765" lon="93.165017">
<time>2016-10-08T04:22:28Z</time></trkpt>
<trkpt lat="29.914854" lon="93.164947">
<time>2016-10-08T04:22:29Z</time></trkpt>
<trkpt lat="29.914914" lon="93.164907">
<time>2016-10-08T04:22:30Z</time></trkpt>
<trkpt lat="29.915014" lon="93.164826">
<time>2016-10-08T04:22:31Z</time></trkpt>
<trkpt lat="29.915144" lon="93.164726">
<time>2016-10-08T04:22:32Z</time></trkpt>
<trkpt lat="29.915274" lon="93.164626">
<time>2016-10-08T04:22:33Z</time></trkpt>
<trkpt lat="29.915454" lon="93.164486">
<time>2016-10-08T04:22:34Z</time></trkpt>
<trkpt lat="29.915543" lon="93.164426">
<time>2016-10-08T04:22:35Z</time></trkpt>
<trkpt lat="29.915593" lon="93.164386">
<time>2016-10-08T04:22:36Z</time></trkpt>
<trkpt lat="29.915733" lon="93.164275">
<time>2016-10-08T04:22:37Z</time></trkpt>
<trkpt lat="29.915793" lon="93.164225">
<time>2016-10-08T04:22:38Z</time></trkpt>
<trkpt lat="29.915873" lon="93.164175">
<time>2016-10-08T04:22:39Z</time></trkpt>
<trkpt lat="29.915953" lon="93.164115">
<time>2016-10-08T04:22:40Z</time></trkpt>
<trkpt lat="29.916003" lon="93.164075">
<time>2016-10-08T04:22:41Z</time></trkpt>
<trkpt lat="29.916063" lon="93.164035">
<time>2016-10-08T04:22:42Z</time></trkpt>
<trkpt lat="29.916093" lon="93.164005">
<time>2016-10-08T04:22:43Z</time></trkpt>
<trkpt lat="29.916133" lon="93.163985">
<time>2016-10-08T04:22:44Z</time></trkpt>
<trkpt lat="29.916212" lon="93.163915">
<time>2016-10-08T04:22:45Z</time></trkpt>
<trkpt lat="29.916322" lon="93.163835">
<time>2016-10-08T04:22:46Z</time></trkpt>
<trkpt lat="29.916382" lon="93.163795">
<time>2016-10-08T04:22:47Z</time></trkpt>
<trkpt lat="29.916532" lon="93.163674">
<time>2016-10-08T04:22:48Z</time></trkpt>
<trkpt lat="29.916642" lon="93.163594">
<time>2016-10-08T04:22:49Z</time></trkpt>
<trkpt lat="29.916652" lon="93.163584">
<time>2016-10-08T04:22:50Z</time></trkpt>
<trkpt lat="29.916672" lon="93.163564">
<time>2016-10-08T04:22:51Z</time></trkpt>
<trkpt lat="29.916702" lon="93.163544">
<time>2016-10-08T04:22:52Z</time></trkpt>
<trkpt lat="29.916712" lon="93.163534">
<time>2016-10-08T04:22:53Z</time></trkpt>
<trkpt lat="29.916792" lon="93.163484">
<time>2016-10-08T04:22:54Z</time></trkpt>
<trkpt lat="29.91767" lon="93.162803">
<time>2016-10-08T04:22:55Z</time></trkpt>
<trkpt lat="29.918399" lon="93.162242">
<time>2016-10-08T04:22:56Z</time></trkpt>
<trkpt lat="29.919338" lon="93.161521">
<time>2016-10-08T04:22:57Z</time></trkpt>
<trkpt lat="29.919877" lon="93.16112">
<time>2016-10-08T04:22:58Z</time></trkpt>
<trkpt lat="29.920526" lon="93.160619">
<time>2016-10-08T04:22:59Z</time></trkpt>
<trkpt lat="29.921086" lon="93.160188">
<time>2016-10-08T04:23:00Z</time></trkpt>
<trkpt lat="29.921395" lon="93.159968">
<time>2016-10-08T04:23:01Z</time></trkpt>
<trkpt lat="29.921605" lon="93.159798">
<time>2016-10-08T04:23:02Z</time></trkpt>
<trkpt lat="29.922194" lon="93.159337">
<time>2016-10-08T04:23:03Z</time></trkpt>
<trkpt lat="29.922833" lon="93.158856">
<time>2016-10-08T04:23:04Z</time></trkpt>
<trkpt lat="29.923312" lon="93.158495">
<time>2016-10-08T04:23:05Z</time></trkpt>
<trkpt lat="29.924081" lon="93.157914">
<time>2016-10-08T04:23:06Z</time></trkpt>
<trkpt lat="29.92483" lon="93.157344">
<time>2016-10-08T04:23:07Z</time></trkpt>
<trkpt lat="29.92539" lon="93.156923">
<time>2016-10-08T04:23:08Z</time></trkpt>
<trkpt lat="29.926748" lon="93.155881">
<time>2016-10-08T04:23:09Z</time></trkpt>
<trkpt lat="29.927417" lon="93.15536">
<time>2016-10-08T04:23:10Z</time></trkpt>
<trkpt lat="29.928016" lon="93.154909">
<time>2016-10-08T04:23:11Z</time></trkpt>
<trkpt lat="29.928465" lon="93.154569">
<time>2016-10-08T04:23:12Z</time></trkpt>
<trkpt lat="29.929624" lon="93.153677">
<time>2016-10-08T04:23:13Z</time></trkpt>
<trkpt lat="29.930173" lon="93.153257">
<time>2016-10-08T04:23:14Z</time></trkpt>
<trkpt lat="29.930792" lon="93.152786">
<time>2016-10-08T04:23:15Z</time></trkpt>
<trkpt lat="29.931162" lon="93.152506">
<time>2016-10-08T04:23:16Z</time></trkpt>
<trkpt lat="29.931421" lon="93.152315">
<time>2016-10-08T04:23:17Z</time></trkpt>
<trkpt lat="29.931961" lon="93.151895">
<time>2016-10-08T04:23:18Z</time></trkpt>
<trkpt lat="29.9323" lon="93.151644">
<time>2016-10-08T04:23:19Z</time></trkpt>
<trkpt lat="29.933019" lon="93.151083">
<time>2016-10-08T04:23:20Z</time></trkpt>
<trkpt lat="29.933558" lon="93.150683">
<time>2016-10-08T04:23:21Z</time></trkpt>
<trkpt lat="29.934188" lon="93.150212">
<time>2016-10-08T04:23:22Z</time></trkpt>
<trkpt lat="29.935096" lon="93.149511">
<time>2016-10-08T04:23:23Z</time></trkpt>
<trkpt lat="29.935915" lon="93.14889">
<time>2016-10-08T04:23:24Z</time></trkpt>
<trkpt lat="29.937084" lon="93.147988">
<time>2016-10-08T04:23:25Z</time></trkpt>
<trkpt lat="29.937304" lon="93.147828">
<time>2016-10-08T04:23:26Z</time></trkpt>
<trkpt lat="29.937493" lon="93.147668">
<time>2016-10-08T04:23:27Z</time></trkpt>
<trkpt lat="29.937493" lon="93.147668">
<time>2016-10-08T04:23:28Z</time></trkpt>
<trkpt lat="29.937713" lon="93.147788">
<time>2016-10-08T04:23:29Z</time></trkpt>
<trkpt lat="29.937814" lon="93.147848">
<time>2016-10-08T04:23:30Z</time></trkpt>
<trkpt lat="29.938034" lon="93.148039">
<time>2016-10-08T04:23:31Z</time></trkpt>
<trkpt lat="29.938154" lon="93.148139">
<time>2016-10-08T04:23:32Z</time></trkpt>
<trkpt lat="29.938214" lon="93.148189">
<time>2016-10-08T04:23:33Z</time></trkpt>
<trkpt lat="29.938324" lon="93.148219">
<time>2016-10-08T04:23:34Z</time></trkpt>
<trkpt lat="29.938394" lon="93.148229">
<time>2016-10-08T04:23:35Z</time></trkpt>
<trkpt lat="29.939534" lon="93.148319">
<time>2016-10-08T04:23:36Z</time></trkpt>
<trkpt lat="29.939944" lon="93.148339">
<time>2016-10-08T04:23:37Z</time></trkpt>
<trkpt lat="29.940344" lon="93.148349">
<time>2016-10-08T04:23:38Z</time></trkpt>
<trkpt lat="29.940384" lon="93.148369">
<time>2016-10-08T04:23:39Z</time></trkpt>
<trkpt lat="29.940414" lon="93.148399">
<time>2016-10-08T04:23:40Z</time></trkpt>
<trkpt lat="29.940545" lon="93.14876">
<time>2016-10-08T04:23:41Z</time></trkpt>
<trkpt lat="29.940605" lon="93.14897">
<time>2016-10-08T04:23:42Z</time></trkpt>
<trkpt lat="29.940636" lon="93.14916">
<time>2016-10-08T04:23:43Z</time></trkpt>
<trkpt lat="29.940636" lon="93.14921">
<time>2016-10-08T04:23:44Z</time></trkpt>
<trkpt lat="29.940636" lon="93.14923">
<time>2016-10-08T04:23:45Z</time></trkpt>
<trkpt lat="29.940606" lon="93.14926">
<time>2016-10-08T04:23:46Z</time></trkpt>
<trkpt lat="29.940326" lon="93.149471">
<time>2016-10-08T04:23:47Z</time></trkpt>
<trkpt lat="29.940306" lon="93.149521">
<time>2016-10-08T04:23:48Z</time></trkpt>
<trkpt lat="29.940296" lon="93.149581">
<time>2016-10-08T04:23:49Z</time></trkpt>
<trkpt lat="29.940317" lon="93.149611">
<time>2016-10-08T04:23:50Z</time></trkpt>
<trkpt lat="29.940497" lon="93.149671">
<time>2016-10-08T04:23:51Z</time></trkpt>
<trkpt lat="29.940707" lon="93.149721">
<time>2016-10-08T04:23:52Z</time></trkpt>
<trkpt lat="29.941027" lon="93.149751">
<time>2016-10-08T04:23:53Z</time></trkpt>
<trkpt lat="29.941267" lon="93.149761">
<time>2016-10-08T04:23:54Z</time></trkpt>
<trkpt lat="29.941307" lon="93.149781">
<time>2016-10-08T04:23:55Z</time></trkpt>
<trkpt lat="29.941327" lon="93.149811">
<time>2016-10-08T04:23:56Z</time></trkpt>
<trkpt lat="29.941357" lon="93.149871">
<time>2016-10-08T04:23:57Z</time></trkpt>
<trkpt lat="29.941377" lon="93.149931">
<time>2016-10-08T04:23:58Z</time></trkpt>
<trkpt lat="29.941377" lon="93.150031">
<time>2016-10-08T04:23:59Z</time></trkpt>
<trkpt lat="29.941268" lon="93.150452">
<time>2016-10-08T04:24:00Z</time></trkpt>
<trkpt lat="29.941258" lon="93.150512">
<time>2016-10-08T04:24:01Z</time></trkpt>
<trkpt lat="29.941268" lon="93.150562">
<time>2016-10-08T04:24:02Z</time></trkpt>
<trkpt lat="29.941308" lon="93.150592">
<time>2016-10-08T04:24:03Z</time></trkpt>
<trkpt lat="29.941348" lon="93.150592">
<time>2016-10-08T04:24:04Z</time></trkpt>
<trkpt lat="29.941388" lon="93.150562">
<time>2016-10-08T04:24:05Z</time></trkpt>
<trkpt lat="29.941458" lon="93.150442">
<time>2016-10-08T04:24:06Z</time></trkpt>
<trkpt lat="29.941568" lon="93.150292">
<time>2016-10-08T04:24:07Z</time></trkpt>
<trkpt lat="29.941757" lon="93.149971">
<time>2016-10-08T04:24:08Z</time></trkpt>
<trkpt lat="29.941767" lon="93.149921">
<time>2016-10-08T04:24:09Z</time></trkpt>
<trkpt lat="29.941767" lon="93.149861">
<time>2016-10-08T04:24:10Z</time></trkpt>
<trkpt lat="29.941717" lon="93.149731">
<time>2016-10-08T04:24:11Z</time></trkpt>
<trkpt lat="29.941697" lon="93.149671">
<time>2016-10-08T04:24:12Z</time></trkpt>
<trkpt lat="29.941676" lon="93.149581">
<time>2016-10-08T04:24:13Z</time></trkpt>
<trkpt lat="29.941696" lon="93.149501">
<time>2016-10-08T04:24:14Z</time></trkpt>
<trkpt lat="29.941726" lon="93.14934">
<time>2016-10-08T04:24:15Z</time></trkpt>
<trkpt lat="29.941785" lon="93.14895">
<time>2016-10-08T04:24:16Z</time></trkpt>
<trkpt lat="29.941875" lon="93.148649">
<time>2016-10-08T04:24:17Z</time></trkpt>
<trkpt lat="29.942194" lon="93.147848">
<time>2016-10-08T04:24:18Z</time></trkpt>
<trkpt lat="29.942533" lon="93.147287">
<time>2016-10-08T04:24:19Z</time></trkpt>
<trkpt lat="29.942592" lon="93.147207">
<time>2016-10-08T04:24:20Z</time></trkpt>
<trkpt lat="29.942672" lon="93.147147">
<time>2016-10-08T04:24:21Z</time></trkpt>
<trkpt lat="29.942752" lon="93.147107">
<time>2016-10-08T04:24:22Z</time></trkpt>
<trkpt lat="29.943272" lon="93.147057">
<time>2016-10-08T04:24:23Z</time></trkpt>
<trkpt lat="29.943332" lon="93.147037">
<time>2016-10-08T04:24:24Z</time></trkpt>
<trkpt lat="29.943402" lon="93.146997">
<time>2016-10-08T04:24:25Z</time></trkpt>
<trkpt lat="29.943432" lon="93.146967">
<time>2016-10-08T04:24:26Z</time></trkpt>
<trkpt lat="29.943452" lon="93.146917">
<time>2016-10-08T04:24:27Z</time></trkpt>
<trkpt lat="29.943521" lon="93.146496">
<time>2016-10-08T04:24:28Z</time></trkpt>
<trkpt lat="29.943551" lon="93.146316">
<time>2016-10-08T04:24:29Z</time></trkpt>
<trkpt lat="29.943581" lon="93.146236">
<time>2016-10-08T04:24:30Z</time></trkpt>
<trkpt lat="29.943641" lon="93.146136">
<time>2016-10-08T04:24:31Z</time></trkpt>
<trkpt lat="29.943701" lon="93.146086">
<time>2016-10-08T04:24:32Z</time></trkpt>
<trkpt lat="29.943781" lon="93.146045">
<time>2016-10-08T04:24:33Z</time></trkpt>
<trkpt lat="29.94388" lon="93.146025">
<time>2016-10-08T04:24:34Z</time></trkpt>
<trkpt lat="29.94412" lon="93.146025">
<time>2016-10-08T04:24:35Z</time></trkpt>
<trkpt lat="29.944351" lon="93.146065">
<time>2016-10-08T04:24:36Z</time></trkpt>
<trkpt lat="29.944661" lon="93.146226">
<time>2016-10-08T04:24:37Z</time></trkpt>
<trkpt lat="29.944941" lon="93.146336">
<time>2016-10-08T04:24:38Z</time></trkpt>
<trkpt lat="29.946061" lon="93.146546">
<time>2016-10-08T04:24:39Z</time></trkpt>
<trkpt lat="29.946531" lon="93.146546">
<time>2016-10-08T04:24:40Z</time></trkpt>
<trkpt lat="29.946921" lon="93.146516">
<time>2016-10-08T04:24:41Z</time></trkpt>
<trkpt lat="29.947511" lon="93.146486">
<time>2016-10-08T04:24:42Z</time></trkpt>
<trkpt lat="29.947751" lon="93.146416">
<time>2016-10-08T04:24:43Z</time></trkpt>
<trkpt lat="29.948201" lon="93.146246">
<time>2016-10-08T04:24:44Z</time></trkpt>
<trkpt lat="29.94876" lon="93.145975">
<time>2016-10-08T04:24:45Z</time></trkpt>
<trkpt lat="29.94939" lon="93.145675">
<time>2016-10-08T04:24:46Z</time></trkpt>
<trkpt lat="29.94996" lon="93.145484">
<time>2016-10-08T04:24:47Z</time></trkpt>
<trkpt lat="29.950159" lon="93.145414">
<time>2016-10-08T04:24:48Z</time></trkpt>
<trkpt lat="29.950319" lon="93.145304">
<time>2016-10-08T04:24:49Z</time></trkpt>
<trkpt lat="29.950709" lon="93.145024">
<time>2016-10-08T04:24:50Z</time></trkpt>
<trkpt lat="29.950968" lon="93.144793">
<time>2016-10-08T04:24:51Z</time></trkpt>
<trkpt lat="29.951218" lon="93.144483">
<time>2016-10-08T04:24:52Z</time></trkpt>
<trkpt lat="29.951567" lon="93.144062">
<time>2016-10-08T04:24:53Z</time></trkpt>
<trkpt lat="29.951827" lon="93.143772">
<time>2016-10-08T04:24:54Z</time></trkpt>
<trkpt lat="29.952326" lon="93.143351">
<time>2016-10-08T04:24:55Z</time></trkpt>
<trkpt lat="29.952816" lon="93.142951">
<time>2016-10-08T04:24:56Z</time></trkpt>
<trkpt lat="29.953065" lon="93.142761">
<time>2016-10-08T04:24:57Z</time></trkpt>
<trkpt lat="29.953195" lon="93.14264">
<time>2016-10-08T04:24:58Z</time></trkpt>
<trkpt lat="29.953285" lon="93.14253">
<time>2016-10-08T04:24:59Z</time></trkpt>
<trkpt lat="29.953484" lon="93.14221">
<time>2016-10-08T04:25:00Z</time></trkpt>
<trkpt lat="29.953704" lon="93.141859">
<time>2016-10-08T04:25:01Z</time></trkpt>
<trkpt lat="29.953883" lon="93.141509">
<time>2016-10-08T04:25:02Z</time></trkpt>
<trkpt lat="29.954152" lon="93.140838">
<time>2016-10-08T04:25:03Z</time></trkpt>
<trkpt lat="29.954631" lon="93.139907">
<time>2016-10-08T04:25:04Z</time></trkpt>
<trkpt lat="29.95483" lon="93.139306">
<time>2016-10-08T04:25:05Z</time></trkpt>
<trkpt lat="29.954919" lon="93.138996">
<time>2016-10-08T04:25:06Z</time></trkpt>
<trkpt lat="29.954949" lon="93.138885">
<time>2016-10-08T04:25:07Z</time></trkpt>
<trkpt lat="29.955019" lon="93.138755">
<time>2016-10-08T04:25:08Z</time></trkpt>
<trkpt lat="29.955209" lon="93.138485">
<time>2016-10-08T04:25:09Z</time></trkpt>
<trkpt lat="29.955848" lon="93.137744">
<time>2016-10-08T04:25:10Z</time></trkpt>
<trkpt lat="29.955977" lon="93.137554">
<time>2016-10-08T04:25:11Z</time></trkpt>
<trkpt lat="29.956276" lon="93.136933">
<time>2016-10-08T04:25:12Z</time></trkpt>
<trkpt lat="29.956486" lon="93.136472">
<time>2016-10-08T04:25:13Z</time></trkpt>
<trkpt lat="29.956785" lon="93.135962">
<time>2016-10-08T04:25:14Z</time></trkpt>
<trkpt lat="29.957024" lon="93.135491">
<time>2016-10-08T04:25:15Z</time></trkpt>
<trkpt lat="29.957253" lon="93.13475">
<time>2016-10-08T04:25:16Z</time></trkpt>
<trkpt lat="29.957283" lon="93.13471">
<time>2016-10-08T04:25:17Z</time></trkpt>
<trkpt lat="29.957353" lon="93.13466">
<time>2016-10-08T04:25:18Z</time></trkpt>
<trkpt lat="29.957873" lon="93.13442">
<time>2016-10-08T04:25:19Z</time></trkpt>
<trkpt lat="29.958123" lon="93.13428">
<time>2016-10-08T04:25:20Z</time></trkpt>
<trkpt lat="29.958772" lon="93.133829">
<time>2016-10-08T04:25:21Z</time></trkpt>
<trkpt lat="29.959391" lon="93.133239">
<time>2016-10-08T04:25:22Z</time></trkpt>
<trkpt lat="29.959741" lon="93.132748">
<time>2016-10-08T04:25:23Z</time></trkpt>
<trkpt lat="29.95979" lon="93.132678">
<time>2016-10-08T04:25:24Z</time></trkpt>
<trkpt lat="29.95987" lon="93.132628">
<time>2016-10-08T04:25:25Z</time></trkpt>
<trkpt lat="29.96056" lon="93.132318">
<time>2016-10-08T04:25:26Z</time></trkpt>
<trkpt lat="29.96107" lon="93.131957">
<time>2016-10-08T04:25:27Z</time></trkpt>
<trkpt lat="29.961289" lon="93.131837">
<time>2016-10-08T04:25:28Z</time></trkpt>
<trkpt lat="29.961419" lon="93.131807">
<time>2016-10-08T04:25:29Z</time></trkpt>
<trkpt lat="29.961609" lon="93.131757">
<time>2016-10-08T04:25:30Z</time></trkpt>
<trkpt lat="29.961809" lon="93.131747">
<time>2016-10-08T04:25:31Z</time></trkpt>
<trkpt lat="29.961909" lon="93.131707">
<time>2016-10-08T04:25:32Z</time></trkpt>
<trkpt lat="29.962299" lon="93.131487">
<time>2016-10-08T04:25:33Z</time></trkpt>
<trkpt lat="29.963558" lon="93.130706">
<time>2016-10-08T04:25:34Z</time></trkpt>
<trkpt lat="29.964747" lon="93.130035">
<time>2016-10-08T04:25:35Z</time></trkpt>
<trkpt lat="29.966076" lon="93.129464">
<time>2016-10-08T04:25:36Z</time></trkpt>
<trkpt lat="29.966236" lon="93.129394">
<time>2016-10-08T04:25:37Z</time></trkpt>
<trkpt lat="29.966386" lon="93.129284">
<time>2016-10-08T04:25:38Z</time></trkpt>
<trkpt lat="29.967505" lon="93.128243">
<time>2016-10-08T04:25:39Z</time></trkpt>
<trkpt lat="29.968234" lon="93.127392">
<time>2016-10-08T04:25:40Z</time></trkpt>
<trkpt lat="29.968483" lon="93.127012">
<time>2016-10-08T04:25:41Z</time></trkpt>
<trkpt lat="29.969631" lon="93.12505">
<time>2016-10-08T04:25:42Z</time></trkpt>
<trkpt lat="29.969811" lon="93.12474">
<time>2016-10-08T04:25:43Z</time></trkpt>
<trkpt lat="29.97059" lon="93.123669">
<time>2016-10-08T04:25:44Z</time></trkpt>
<trkpt lat="29.970829" lon="93.123339">
<time>2016-10-08T04:25:45Z</time></trkpt>
<trkpt lat="29.971549" lon="93.122538">
<time>2016-10-08T04:25:46Z</time></trkpt>
<trkpt lat="29.972468" lon="93.121838">
<time>2016-10-08T04:25:47Z</time></trkpt>
<trkpt lat="29.973237" lon="93.121087">
<time>2016-10-08T04:25:48Z</time></trkpt>
<trkpt lat="29.973307" lon="93.121017">
<time>2016-10-08T04:25:49Z</time></trkpt>
<trkpt lat="29.973377" lon="93.120967">
<time>2016-10-08T04:25:50Z</time></trkpt>
<trkpt lat="29.973437" lon="93.120967">
<time>2016-10-08T04:25:51Z</time></trkpt>
<trkpt lat="29.974187" lon="93.120897">
<time>2016-10-08T04:25:52Z</time></trkpt>
<trkpt lat="29.974377" lon="93.120807">
<time>2016-10-08T04:25:53Z</time></trkpt>
<trkpt lat="29.974537" lon="93.120697">
<time>2016-10-08T04:25:54Z</time></trkpt>
<trkpt lat="29.974687" lon="93.120557">
<time>2016-10-08T04:25:55Z</time></trkpt>
<trkpt lat="29.974806" lon="93.120407">
<time>2016-10-08T04:25:56Z</time></trkpt>
<trkpt lat="29.974886" lon="93.120237">
<time>2016-10-08T04:25:57Z</time></trkpt>
<trkpt lat="29.974926" lon="93.120077">
<time>2016-10-08T04:25:58Z</time></trkpt>
<trkpt lat="29.975364" lon="93.117775">
<time>2016-10-08T04:25:59Z</time></trkpt>
<trkpt lat="29.975484" lon="93.117355">
<time>2016-10-08T04:26:00Z</time></trkpt>
<trkpt lat="29.975593" lon="93.116945">
<time>2016-10-08T04:26:01Z</time></trkpt>
<trkpt lat="29.975713" lon="93.116465">
<time>2016-10-08T04:26:02Z</time></trkpt>
<trkpt lat="29.975723" lon="93.116235">
<time>2016-10-08T04:26:03Z</time></trkpt>
<trkpt lat="29.975763" lon="93.115985">
<time>2016-10-08T04:26:04Z</time></trkpt>
<trkpt lat="29.975762" lon="93.115614">
<time>2016-10-08T04:26:05Z</time></trkpt>
<trkpt lat="29.975802" lon="93.115244">
<time>2016-10-08T04:26:06Z</time></trkpt>
<trkpt lat="29.975872" lon="93.114944">
<time>2016-10-08T04:26:07Z</time></trkpt>
<trkpt lat="29.975992" lon="93.114724">
<time>2016-10-08T04:26:08Z</time></trkpt>
<trkpt lat="29.976102" lon="93.114474">
<time>2016-10-08T04:26:09Z</time></trkpt>
<trkpt lat="29.976151" lon="93.114224">
<time>2016-10-08T04:26:10Z</time></trkpt>
<trkpt lat="29.976211" lon="93.113884">
<time>2016-10-08T04:26:11Z</time></trkpt>
<trkpt lat="29.976339" lon="93.110753">
<time>2016-10-08T04:26:12Z</time></trkpt>
<trkpt lat="29.976389" lon="93.110483">
<time>2016-10-08T04:26:13Z</time></trkpt>
<trkpt lat="29.976459" lon="93.110223">
<time>2016-10-08T04:26:14Z</time></trkpt>
<trkpt lat="29.976589" lon="93.109973">
<time>2016-10-08T04:26:15Z</time></trkpt>
<trkpt lat="29.977168" lon="93.109163">
<time>2016-10-08T04:26:16Z</time></trkpt>
<trkpt lat="29.978518" lon="93.107812">
<time>2016-10-08T04:26:17Z</time></trkpt>
<trkpt lat="29.980647" lon="93.106192">
<time>2016-10-08T04:26:18Z</time></trkpt>
<trkpt lat="29.980967" lon="93.105992">
<time>2016-10-08T04:26:19Z</time></trkpt>
<trkpt lat="29.981227" lon="93.105852">
<time>2016-10-08T04:26:20Z</time></trkpt>
<trkpt lat="29.981467" lon="93.105762">
<time>2016-10-08T04:26:21Z</time></trkpt>
<trkpt lat="29.984337" lon="93.105432">
<time>2016-10-08T04:26:22Z</time></trkpt>
<trkpt lat="29.984677" lon="93.105352">
<time>2016-10-08T04:26:23Z</time></trkpt>
<trkpt lat="29.984917" lon="93.105292">
<time>2016-10-08T04:26:24Z</time></trkpt>
<trkpt lat="29.987896" lon="93.103872">
<time>2016-10-08T04:26:25Z</time></trkpt>
<trkpt lat="29.988346" lon="93.103562">
<time>2016-10-08T04:26:26Z</time></trkpt>
<trkpt lat="29.988646" lon="93.103332">
<time>2016-10-08T04:26:27Z</time></trkpt>
<trkpt lat="29.988906" lon="93.103152">
<time>2016-10-08T04:26:28Z</time></trkpt>
<trkpt lat="29.989056" lon="93.103002">
<time>2016-10-08T04:26:29Z</time></trkpt>
<trkpt lat="29.989636" lon="93.102232">
<time>2016-10-08T04:26:30Z</time></trkpt>
<trkpt lat="29.990066" lon="93.101313">
<time>2016-10-08T04:26:31Z</time></trkpt>
<trkpt lat="29.990525" lon="93.100763">
<time>2016-10-08T04:26:32Z</time></trkpt>
<trkpt lat="29.991035" lon="93.100083">
<time>2016-10-08T04:26:33Z</time></trkpt>
<trkpt lat="29.991245" lon="93.099853">
<time>2016-10-08T04:26:34Z</time></trkpt>
<trkpt lat="29.991395" lon="93.099693">
<time>2016-10-08T04:26:35Z</time></trkpt>
<trkpt lat="29.991655" lon="93.099503">
<time>2016-10-08T04:26:36Z</time></trkpt>
<trkpt lat="29.991775" lon="93.099413">
<time>2016-10-08T04:26:37Z</time></trkpt>
<trkpt lat="29.991895" lon="93.099313">
<time>2016-10-08T04:26:38Z</time></trkpt>
<trkpt lat="29.992455" lon="93.098993">
<time>2016-10-08T04:26:39Z</time></trkpt>
<trkpt lat="29.992675" lon="93.098833">
<time>2016-10-08T04:26:40Z</time></trkpt>
<trkpt lat="29.992895" lon="93.098653">
<time>2016-10-08T04:26:41Z</time></trkpt>
<trkpt lat="29.993015" lon="93.098513">
<time>2016-10-08T04:26:42Z</time></trkpt>
<trkpt lat="29.993975" lon="93.097134">
<time>2016-10-08T04:26:43Z</time></trkpt>
<trkpt lat="29.994675" lon="93.096025">
<time>2016-10-08T04:26:44Z</time></trkpt>
<trkpt lat="29.995475" lon="93.094665">
<time>2016-10-08T04:26:45Z</time></trkpt>
<trkpt lat="29.996105" lon="93.093776">
<time>2016-10-08T04:26:46Z</time></trkpt>
<trkpt lat="29.996705" lon="93.093146">
<time>2016-10-08T04:26:47Z</time></trkpt>
<trkpt lat="29.996836" lon="93.093016">
<time>2016-10-08T04:26:48Z</time></trkpt>
<trkpt lat="29.996966" lon="93.092856">
<time>2016-10-08T04:26:49Z</time></trkpt>
<trkpt lat="29.997046" lon="93.092746">
<time>2016-10-08T04:26:50Z</time></trkpt>
<trkpt lat="29.997136" lon="93.092527">
<time>2016-10-08T04:26:51Z</time></trkpt>
<trkpt lat="29.997716" lon="93.091028">
<time>2016-10-08T04:26:52Z</time></trkpt>
<trkpt lat="29.998026" lon="93.090418">
<time>2016-10-08T04:26:53Z</time></trkpt>
<trkpt lat="29.999267" lon="93.08829">
<time>2016-10-08T04:26:54Z</time></trkpt>
<trkpt lat="29.999377" lon="93.0881">
<time>2016-10-08T04:26:55Z</time></trkpt>
<trkpt lat="29.999447" lon="93.08793">
<time>2016-10-08T04:26:56Z</time></trkpt>
<trkpt lat="29.999517" lon="93.08772">
<time>2016-10-08T04:26:57Z</time></trkpt>
<trkpt lat="29.999547" lon="93.087431">
<time>2016-10-08T04:26:58Z</time></trkpt>
<trkpt lat="29.999638" lon="93.086372">
<time>2016-10-08T04:26:59Z</time></trkpt>
<trkpt lat="29.999678" lon="93.086072">
<time>2016-10-08T04:27:00Z</time></trkpt>
<trkpt lat="29.999738" lon="93.085772">
<time>2016-10-08T04:27:01Z</time></trkpt>
<trkpt lat="29.999808" lon="93.085533">
<time>2016-10-08T04:27:02Z</time></trkpt>
<trkpt lat="29.999868" lon="93.085383">
<time>2016-10-08T04:27:03Z</time></trkpt>
<trkpt lat="29.999918" lon="93.085283">
<time>2016-10-08T04:27:04Z</time></trkpt>
<trkpt lat="30.000048" lon="93.085093">
<time>2016-10-08T04:27:05Z</time></trkpt>
<trkpt lat="30.000739" lon="93.084024">
<time>2016-10-08T04:27:06Z</time></trkpt>
<trkpt lat="30.00146" lon="93.082995">
<time>2016-10-08T04:27:07Z</time></trkpt>
<trkpt lat="30.00146" lon="93.082995">
<time>2016-10-08T04:27:08Z</time></trkpt>
<trkpt lat="30.00127" lon="93.082995">
<time>2016-10-08T04:27:09Z</time></trkpt>
<trkpt lat="30.00113" lon="93.082965">
<time>2016-10-08T04:27:10Z</time></trkpt>
<trkpt lat="30.00004" lon="93.082626">
<time>2016-10-08T04:27:11Z</time></trkpt>
<trkpt lat="29.99913" lon="93.082356">
<time>2016-10-08T04:27:12Z</time></trkpt>
<trkpt lat="29.99911" lon="93.082356">
<time>2016-10-08T04:27:13Z</time></trkpt>
<trkpt lat="29.99909" lon="93.082356">
<time>2016-10-08T04:27:14Z</time></trkpt>
<trkpt lat="29.99906" lon="93.082356">
<time>2016-10-08T04:27:15Z</time></trkpt>
<trkpt lat="29.99903" lon="93.082346">
<time>2016-10-08T04:27:16Z</time></trkpt>
<trkpt lat="29.99901" lon="93.082336">
<time>2016-10-08T04:27:17Z</time></trkpt>
<trkpt lat="29.99898" lon="93.082326">
<time>2016-10-08T04:27:18Z</time></trkpt>
<trkpt lat="29.99862" lon="93.082196">
<time>2016-10-08T04:27:19Z</time></trkpt>
<trkpt lat="29.99844" lon="93.082146">
<time>2016-10-08T04:27:20Z</time></trkpt>
<trkpt lat="29.99815" lon="93.082037">
<time>2016-10-08T04:27:21Z</time></trkpt>
<trkpt lat="29.99807" lon="93.082007">
<time>2016-10-08T04:27:22Z</time></trkpt>
<trkpt lat="29.99795" lon="93.081947">
<time>2016-10-08T04:27:23Z</time></trkpt>
<trkpt lat="29.99765" lon="93.081797">
<time>2016-10-08T04:27:24Z</time></trkpt>
<trkpt lat="29.99765" lon="93.081797">
<time>2016-10-08T04:27:25Z</time></trkpt>
<trkpt lat="29.998111" lon="93.081158">
<time>2016-10-08T04:27:26Z</time></trkpt>
<trkpt lat="29.998381" lon="93.080778">
<time>2016-10-08T04:27:27Z</time></trkpt>
<trkpt lat="29.998491" lon="93.080588">
<time>2016-10-08T04:27:28Z</time></trkpt>
<trkpt lat="29.998581" lon="93.080419">
<time>2016-10-08T04:27:29Z</time></trkpt>
<trkpt lat="29.998641" lon="93.080289">
<time>2016-10-08T04:27:30Z</time></trkpt>
<trkpt lat="29.998701" lon="93.080129">
<time>2016-10-08T04:27:31Z</time></trkpt>
<trkpt lat="29.998752" lon="93.079989">
<time>2016-10-08T04:27:32Z</time></trkpt>
<trkpt lat="29.998832" lon="93.07976">
<time>2016-10-08T04:27:33Z</time></trkpt>
<trkpt lat="29.998892" lon="93.07958">
<time>2016-10-08T04:27:34Z</time></trkpt>
<trkpt lat="29.998982" lon="93.07932">
<time>2016-10-08T04:27:35Z</time></trkpt>
<trkpt lat="29.999082" lon="93.079051">
<time>2016-10-08T04:27:36Z</time></trkpt>
<trkpt lat="29.999112" lon="93.078941">
<time>2016-10-08T04:27:37Z</time></trkpt>
<trkpt lat="29.999132" lon="93.078841">
<time>2016-10-08T04:27:38Z</time></trkpt>
<trkpt lat="29.999153" lon="93.078701">
<time>2016-10-08T04:27:39Z</time></trkpt>
<trkpt lat="29.999153" lon="93.078571">
<time>2016-10-08T04:27:40Z</time></trkpt>
<trkpt lat="29.999133" lon="93.078302">
<time>2016-10-08T04:27:41Z</time></trkpt>
<trkpt lat="29.999133" lon="93.078102">
<time>2016-10-08T04:27:42Z</time></trkpt>
<trkpt lat="29.999123" lon="93.077972">
<time>2016-10-08T04:27:43Z</time></trkpt>
<trkpt lat="29.999123" lon="93.077842">
<time>2016-10-08T04:27:44Z</time></trkpt>
<trkpt lat="29.999143" lon="93.077643">
<time>2016-10-08T04:27:45Z</time></trkpt>
<trkpt lat="29.999164" lon="93.077423">
<time>2016-10-08T04:27:46Z</time></trkpt>
<trkpt lat="29.999194" lon="93.077203">
<time>2016-10-08T04:27:47Z</time></trkpt>
<trkpt lat="29.999214" lon="93.077083">
<time>2016-10-08T04:27:48Z</time></trkpt>
<trkpt lat="29.999224" lon="93.076934">
<time>2016-10-08T04:27:49Z</time></trkpt>
<trkpt lat="29.999234" lon="93.076764">
<time>2016-10-08T04:27:50Z</time></trkpt>
<trkpt lat="29.999244" lon="93.076594">
<time>2016-10-08T04:27:51Z</time></trkpt>
<trkpt lat="29.999235" lon="93.076364">
<time>2016-10-08T04:27:52Z</time></trkpt>
<trkpt lat="29.999205" lon="93.076085">
<time>2016-10-08T04:27:53Z</time></trkpt>
<trkpt lat="29.999116" lon="93.075146">
<time>2016-10-08T04:27:54Z</time></trkpt>
<trkpt lat="29.999056" lon="93.074567">
<time>2016-10-08T04:27:55Z</time></trkpt>
<trkpt lat="29.999037" lon="93.074398">
<time>2016-10-08T04:27:56Z</time></trkpt>
<trkpt lat="29.998947" lon="93.073749">
<time>2016-10-08T04:27:57Z</time></trkpt>
<trkpt lat="29.998927" lon="93.073609">
<time>2016-10-08T04:27:58Z</time></trkpt>
<trkpt lat="29.998818" lon="93.07295">
<time>2016-10-08T04:27:59Z</time></trkpt>
<trkpt lat="29.998778" lon="93.07275">
<time>2016-10-08T04:28:00Z</time></trkpt>
<trkpt lat="29.998729" lon="93.072371">
<time>2016-10-08T04:28:01Z</time></trkpt>
<trkpt lat="29.998679" lon="93.072081">
<time>2016-10-08T04:28:02Z</time></trkpt>
<trkpt lat="29.998649" lon="93.071822">
<time>2016-10-08T04:28:03Z</time></trkpt>
<trkpt lat="29.998639" lon="93.071692">
<time>2016-10-08T04:28:04Z</time></trkpt>
<trkpt lat="29.99864" lon="93.071562">
<time>2016-10-08T04:28:05Z</time></trkpt>
<trkpt lat="29.99865" lon="93.071363">
<time>2016-10-08T04:28:06Z</time></trkpt>
<trkpt lat="29.99868" lon="93.071163">
<time>2016-10-08T04:28:07Z</time></trkpt>
<trkpt lat="29.99872" lon="93.070943">
<time>2016-10-08T04:28:08Z</time></trkpt>
<trkpt lat="29.998791" lon="93.070594">
<time>2016-10-08T04:28:09Z</time></trkpt>
<trkpt lat="29.998841" lon="93.070394">
<time>2016-10-08T04:28:10Z</time></trkpt>
<trkpt lat="29.998871" lon="93.070225">
<time>2016-10-08T04:28:11Z</time></trkpt>
<trkpt lat="29.998891" lon="93.070065">
<time>2016-10-08T04:28:12Z</time></trkpt>
<trkpt lat="29.998922" lon="93.069865">
<time>2016-10-08T04:28:13Z</time></trkpt>
<trkpt lat="29.998932" lon="93.069736">
<time>2016-10-08T04:28:14Z</time></trkpt>
<trkpt lat="29.998942" lon="93.069596">
<time>2016-10-08T04:28:15Z</time></trkpt>
<trkpt lat="29.998953" lon="93.069047">
<time>2016-10-08T04:28:16Z</time></trkpt>
<trkpt lat="29.998963" lon="93.068718">
<time>2016-10-08T04:28:17Z</time></trkpt>
<trkpt lat="29.998964" lon="93.068229">
<time>2016-10-08T04:28:18Z</time></trkpt>
<trkpt lat="29.998964" lon="93.067819">
<time>2016-10-08T04:28:19Z</time></trkpt>
<trkpt lat="29.998944" lon="93.06759">
<time>2016-10-08T04:28:20Z</time></trkpt>
<trkpt lat="29.998915" lon="93.06729">
<time>2016-10-08T04:28:21Z</time></trkpt>
<trkpt lat="29.998865" lon="93.066881">
<time>2016-10-08T04:28:22Z</time></trkpt>
<trkpt lat="29.998806" lon="93.066462">
<time>2016-10-08T04:28:23Z</time></trkpt>
<trkpt lat="29.998727" lon="93.065863">
<time>2016-10-08T04:28:24Z</time></trkpt>
<trkpt lat="29.998697" lon="93.065504">
<time>2016-10-08T04:28:25Z</time></trkpt>
<trkpt lat="29.998687" lon="93.065334">
<time>2016-10-08T04:28:26Z</time></trkpt>
<trkpt lat="29.998688" lon="93.065185">
<time>2016-10-08T04:28:27Z</time></trkpt>
<trkpt lat="29.998688" lon="93.064995">
<time>2016-10-08T04:28:28Z</time></trkpt>
<trkpt lat="29.998698" lon="93.064676">
<time>2016-10-08T04:28:29Z</time></trkpt>
<trkpt lat="29.998719" lon="93.064087">
<time>2016-10-08T04:28:30Z</time></trkpt>
<trkpt lat="29.99873" lon="93.063848">
<time>2016-10-08T04:28:31Z</time></trkpt>
<trkpt lat="29.99872" lon="93.063538">
<time>2016-10-08T04:28:32Z</time></trkpt>
<trkpt lat="29.99871" lon="93.063339">
<time>2016-10-08T04:28:33Z</time></trkpt>
<trkpt lat="29.998691" lon="93.063119">
<time>2016-10-08T04:28:34Z</time></trkpt>
<trkpt lat="29.998671" lon="93.06298">
<time>2016-10-08T04:28:35Z</time></trkpt>
<trkpt lat="29.998641" lon="93.06286">
<time>2016-10-08T04:28:36Z</time></trkpt>
<trkpt lat="29.998621" lon="93.0628">
<time>2016-10-08T04:28:37Z</time></trkpt>
<trkpt lat="29.998591" lon="93.06273">
<time>2016-10-08T04:28:38Z</time></trkpt>
<trkpt lat="29.998561" lon="93.06268">
<time>2016-10-08T04:28:39Z</time></trkpt>
<trkpt lat="29.998531" lon="93.06262">
<time>2016-10-08T04:28:40Z</time></trkpt>
<trkpt lat="29.998492" lon="93.06256">
<time>2016-10-08T04:28:41Z</time></trkpt>
<trkpt lat="29.998442" lon="93.062511">
<time>2016-10-08T04:28:42Z</time></trkpt>
<trkpt lat="29.998412" lon="93.062481">
<time>2016-10-08T04:28:43Z</time></trkpt>
<trkpt lat="29.998352" lon="93.062431">
<time>2016-10-08T04:28:44Z</time></trkpt>
<trkpt lat="29.998182" lon="93.062341">
<time>2016-10-08T04:28:45Z</time></trkpt>
<trkpt lat="29.997982" lon="93.062241">
<time>2016-10-08T04:28:46Z</time></trkpt>
<trkpt lat="29.997832" lon="93.062161">
<time>2016-10-08T04:28:47Z</time></trkpt>
<trkpt lat="29.997712" lon="93.062092">
<time>2016-10-08T04:28:48Z</time></trkpt>
<trkpt lat="29.997642" lon="93.062042">
<time>2016-10-08T04:28:49Z</time></trkpt>
<trkpt lat="29.997582" lon="93.061992">
<time>2016-10-08T04:28:50Z</time></trkpt>
<trkpt lat="29.997493" lon="93.061922">
<time>2016-10-08T04:28:51Z</time></trkpt>
<trkpt lat="29.997403" lon="93.061812">
<time>2016-10-08T04:28:52Z</time></trkpt>
<trkpt lat="29.997363" lon="93.061772">
<time>2016-10-08T04:28:53Z</time></trkpt>
<trkpt lat="29.997313" lon="93.061702">
<time>2016-10-08T04:28:54Z</time></trkpt>
<trkpt lat="29.997263" lon="93.061603">
<time>2016-10-08T04:28:55Z</time></trkpt>
<trkpt lat="29.997223" lon="93.061503">
<time>2016-10-08T04:28:56Z</time></trkpt>
<trkpt lat="29.997173" lon="93.061363">
<time>2016-10-08T04:28:57Z</time></trkpt>
<trkpt lat="29.997104" lon="93.061144">
<time>2016-10-08T04:28:58Z</time></trkpt>
<trkpt lat="29.996994" lon="93.060844">
<time>2016-10-08T04:28:59Z</time></trkpt>
<trkpt lat="29.996805" lon="93.060286">
<time>2016-10-08T04:29:00Z</time></trkpt>
<trkpt lat="29.996676" lon="93.059877">
<time>2016-10-08T04:29:01Z</time></trkpt>
<trkpt lat="29.996646" lon="93.059747">
<time>2016-10-08T04:29:02Z</time></trkpt>
<trkpt lat="29.996606" lon="93.059627">
<time>2016-10-08T04:29:03Z</time></trkpt>
<trkpt lat="29.996596" lon="93.059537">
<time>2016-10-08T04:29:04Z</time></trkpt>
<trkpt lat="29.996587" lon="93.059428">
<time>2016-10-08T04:29:05Z</time></trkpt>
<trkpt lat="29.996577" lon="93.059368">
<time>2016-10-08T04:29:06Z</time></trkpt>
<trkpt lat="29.996577" lon="93.059318">
<time>2016-10-08T04:29:07Z</time></trkpt>
<trkpt lat="29.996577" lon="93.059238">
<time>2016-10-08T04:29:08Z</time></trkpt>
<trkpt lat="29.996587" lon="93.059128">
<time>2016-10-08T04:29:09Z</time></trkpt>
<trkpt lat="29.996597" lon="93.058929">
<time>2016-10-08T04:29:10Z</time></trkpt>
<trkpt lat="29.996608" lon="93.058819">
<time>2016-10-08T04:29:11Z</time></trkpt>
<trkpt lat="29.996618" lon="93.05867">
<time>2016-10-08T04:29:12Z</time></trkpt>
<trkpt lat="29.996628" lon="93.05852">
<time>2016-10-08T04:29:13Z</time></trkpt>
<trkpt lat="29.996628" lon="93.05842">
<time>2016-10-08T04:29:14Z</time></trkpt>
<trkpt lat="29.996628" lon="93.05835">
<time>2016-10-08T04:29:15Z</time></trkpt>
<trkpt lat="29.996629" lon="93.058221">
<time>2016-10-08T04:29:16Z</time></trkpt>
<trkpt lat="29.996619" lon="93.058051">
<time>2016-10-08T04:29:17Z</time></trkpt>
<trkpt lat="29.996609" lon="93.057792">
<time>2016-10-08T04:29:18Z</time></trkpt>
<trkpt lat="29.99662" lon="93.057363">
<time>2016-10-08T04:29:19Z</time></trkpt>
<trkpt lat="29.996631" lon="93.056924">
<time>2016-10-08T04:29:20Z</time></trkpt>
<trkpt lat="29.996651" lon="93.056575">
<time>2016-10-08T04:29:21Z</time></trkpt>
<trkpt lat="29.996662" lon="93.056455">
<time>2016-10-08T04:29:22Z</time></trkpt>
<trkpt lat="29.996662" lon="93.056375">
<time>2016-10-08T04:29:23Z</time></trkpt>
<trkpt lat="29.996682" lon="93.056275">
<time>2016-10-08T04:29:24Z</time></trkpt>
<trkpt lat="29.996702" lon="93.056186">
<time>2016-10-08T04:29:25Z</time></trkpt>
<trkpt lat="29.996742" lon="93.056086">
<time>2016-10-08T04:29:26Z</time></trkpt>
<trkpt lat="29.996782" lon="93.055986">
<time>2016-10-08T04:29:27Z</time></trkpt>
<trkpt lat="29.996933" lon="93.055667">
<time>2016-10-08T04:29:28Z</time></trkpt>
<trkpt lat="29.997013" lon="93.055517">
<time>2016-10-08T04:29:29Z</time></trkpt>
<trkpt lat="29.997194" lon="93.055138">
<time>2016-10-08T04:29:30Z</time></trkpt>
<trkpt lat="29.997375" lon="93.054759">
<time>2016-10-08T04:29:31Z</time></trkpt>
<trkpt lat="29.997535" lon="93.05443">
<time>2016-10-08T04:29:32Z</time></trkpt>
<trkpt lat="29.997786" lon="93.053931">
<time>2016-10-08T04:29:33Z</time></trkpt>
<trkpt lat="29.997917" lon="93.053662">
<time>2016-10-08T04:29:34Z</time></trkpt>
<trkpt lat="29.998027" lon="93.053453">
<time>2016-10-08T04:29:35Z</time></trkpt>
<trkpt lat="29.998128" lon="93.053243">
<time>2016-10-08T04:29:36Z</time></trkpt>
<trkpt lat="29.998338" lon="93.052824">
<time>2016-10-08T04:29:37Z</time></trkpt>
<trkpt lat="29.998479" lon="93.052535">
<time>2016-10-08T04:29:38Z</time></trkpt>
<trkpt lat="29.998629" lon="93.052216">
<time>2016-10-08T04:29:39Z</time></trkpt>
<trkpt lat="29.9987" lon="93.052076">
<time>2016-10-08T04:29:40Z</time></trkpt>
<trkpt lat="29.99885" lon="93.051737">
<time>2016-10-08T04:29:41Z</time></trkpt>
<trkpt lat="29.998911" lon="93.051628">
<time>2016-10-08T04:29:42Z</time></trkpt>
<trkpt lat="29.998981" lon="93.051498">
<time>2016-10-08T04:29:43Z</time></trkpt>
<trkpt lat="29.999011" lon="93.051438">
<time>2016-10-08T04:29:44Z</time></trkpt>
<trkpt lat="29.999061" lon="93.051368">
<time>2016-10-08T04:29:45Z</time></trkpt>
<trkpt lat="29.999121" lon="93.051279">
<time>2016-10-08T04:29:46Z</time></trkpt>
<trkpt lat="29.999171" lon="93.051219">
<time>2016-10-08T04:29:47Z</time></trkpt>
<trkpt lat="29.999222" lon="93.051169">
<time>2016-10-08T04:29:48Z</time></trkpt>
<trkpt lat="29.999352" lon="93.051019">
<time>2016-10-08T04:29:49Z</time></trkpt>
<trkpt lat="29.999442" lon="93.05093">
<time>2016-10-08T04:29:50Z</time></trkpt>
<trkpt lat="29.999793" lon="93.050571">
<time>2016-10-08T04:29:51Z</time></trkpt>
<trkpt lat="29.999853" lon="93.050511">
<time>2016-10-08T04:29:52Z</time></trkpt>
<trkpt lat="30.000043" lon="93.050321">
<time>2016-10-08T04:29:53Z</time></trkpt>
<trkpt lat="30.000925" lon="93.049424">
<time>2016-10-08T04:29:54Z</time></trkpt>
<trkpt lat="30.001186" lon="93.049154">
<time>2016-10-08T04:29:55Z</time></trkpt>
<trkpt lat="30.001426" lon="93.048885">
<time>2016-10-08T04:29:56Z</time></trkpt>
<trkpt lat="30.001627" lon="93.048606">
<time>2016-10-08T04:29:57Z</time></trkpt>
<trkpt lat="30.001737" lon="93.048427">
<time>2016-10-08T04:29:58Z</time></trkpt>
<trkpt lat="30.001818" lon="93.048257">
<time>2016-10-08T04:29:59Z</time></trkpt>
<trkpt lat="30.001928" lon="93.047988">
<time>2016-10-08T04:30:00Z</time></trkpt>
<trkpt lat="30.002009" lon="93.047689">
<time>2016-10-08T04:30:01Z</time></trkpt>
<trkpt lat="30.002079" lon="93.04738">
<time>2016-10-08T04:30:02Z</time></trkpt>
<trkpt lat="30.00212" lon="93.04709">
<time>2016-10-08T04:30:03Z</time></trkpt>
<trkpt lat="30.002141" lon="93.046841">
<time>2016-10-08T04:30:04Z</time></trkpt>
<trkpt lat="30.002152" lon="93.046213">
<time>2016-10-08T04:30:05Z</time></trkpt>
<trkpt lat="30.002155" lon="93.044658">
<time>2016-10-08T04:30:06Z</time></trkpt>
<trkpt lat="30.00216" lon="93.042474">
<time>2016-10-08T04:30:07Z</time></trkpt>
<trkpt lat="30.002161" lon="93.041966">
<time>2016-10-08T04:30:08Z</time></trkpt>
<trkpt lat="30.002162" lon="93.041737">
<time>2016-10-08T04:30:09Z</time></trkpt>
<trkpt lat="30.002142" lon="93.041537">
<time>2016-10-08T04:30:10Z</time></trkpt>
<trkpt lat="30.002113" lon="93.041368">
<time>2016-10-08T04:30:11Z</time></trkpt>
<trkpt lat="30.002063" lon="93.041198">
<time>2016-10-08T04:30:12Z</time></trkpt>
<trkpt lat="30.001994" lon="93.040989">
<time>2016-10-08T04:30:13Z</time></trkpt>
<trkpt lat="30.001854" lon="93.04065">
<time>2016-10-08T04:30:14Z</time></trkpt>
<trkpt lat="30.001745" lon="93.040401">
<time>2016-10-08T04:30:15Z</time></trkpt>
<trkpt lat="30.001626" lon="93.040162">
<time>2016-10-08T04:30:16Z</time></trkpt>
<trkpt lat="30.001456" lon="93.039892">
<time>2016-10-08T04:30:17Z</time></trkpt>
<trkpt lat="30.001117" lon="93.039474">
<time>2016-10-08T04:30:18Z</time></trkpt>
<trkpt lat="30.001017" lon="93.039364">
<time>2016-10-08T04:30:19Z</time></trkpt>
<trkpt lat="30.000878" lon="93.039235">
<time>2016-10-08T04:30:20Z</time></trkpt>
<trkpt lat="30.000798" lon="93.039175">
<time>2016-10-08T04:30:21Z</time></trkpt>
<trkpt lat="30.000718" lon="93.039135">
<time>2016-10-08T04:30:22Z</time></trkpt>
<trkpt lat="30.000388" lon="93.038956">
<time>2016-10-08T04:30:23Z</time></trkpt>
<trkpt lat="30.000039" lon="93.038756">
<time>2016-10-08T04:30:24Z</time></trkpt>
<trkpt lat="29.999929" lon="93.038696">
<time>2016-10-08T04:30:25Z</time></trkpt>
<trkpt lat="29.999859" lon="93.038657">
<time>2016-10-08T04:30:26Z</time></trkpt>
<trkpt lat="29.999699" lon="93.038587">
<time>2016-10-08T04:30:27Z</time></trkpt>
<trkpt lat="29.999629" lon="93.038547">
<time>2016-10-08T04:30:28Z</time></trkpt>
<trkpt lat="29.999559" lon="93.038517">
<time>2016-10-08T04:30:29Z</time></trkpt>
<trkpt lat="29.9995" lon="93.038487">
<time>2016-10-08T04:30:30Z</time></trkpt>
<trkpt lat="29.99948" lon="93.038467">
<time>2016-10-08T04:30:31Z</time></trkpt>
<trkpt lat="29.99944" lon="93.038437">
<time>2016-10-08T04:30:32Z</time></trkpt>
<trkpt lat="29.99941" lon="93.038397">
<time>2016-10-08T04:30:33Z</time></trkpt>
<trkpt lat="29.9994" lon="93.038377">
<time>2016-10-08T04:30:34Z</time></trkpt>
<trkpt lat="29.99938" lon="93.038358">
<time>2016-10-08T04:30:35Z</time></trkpt>
<trkpt lat="29.99937" lon="93.038318">
<time>2016-10-08T04:30:36Z</time></trkpt>
<trkpt lat="29.99936" lon="93.038278">
<time>2016-10-08T04:30:37Z</time></trkpt>
<trkpt lat="29.99935" lon="93.038198">
<time>2016-10-08T04:30:38Z</time></trkpt>
<trkpt lat="29.99935" lon="93.038118">
<time>2016-10-08T04:30:39Z</time></trkpt>
<trkpt lat="29.999361" lon="93.038049">
<time>2016-10-08T04:30:40Z</time></trkpt>
<trkpt lat="29.999371" lon="93.037949">
<time>2016-10-08T04:30:41Z</time></trkpt>
<trkpt lat="29.999401" lon="93.037759">
<time>2016-10-08T04:30:42Z</time></trkpt>
<trkpt lat="29.999432" lon="93.03746">
<time>2016-10-08T04:30:43Z</time></trkpt>
<trkpt lat="29.999452" lon="93.037321">
<time>2016-10-08T04:30:44Z</time></trkpt>
<trkpt lat="29.999463" lon="93.037231">
<time>2016-10-08T04:30:45Z</time></trkpt>
<trkpt lat="29.999463" lon="93.037132">
<time>2016-10-08T04:30:46Z</time></trkpt>
<trkpt lat="29.999463" lon="93.037012">
<time>2016-10-08T04:30:47Z</time></trkpt>
<trkpt lat="29.999463" lon="93.036872">
<time>2016-10-08T04:30:48Z</time></trkpt>
<trkpt lat="29.999444" lon="93.036713">
<time>2016-10-08T04:30:49Z</time></trkpt>
<trkpt lat="29.999444" lon="93.036563">
<time>2016-10-08T04:30:50Z</time></trkpt>
<trkpt lat="29.999444" lon="93.036494">
<time>2016-10-08T04:30:51Z</time></trkpt>
<trkpt lat="29.999455" lon="93.036424">
<time>2016-10-08T04:30:52Z</time></trkpt>
<trkpt lat="29.999465" lon="93.036374">
<time>2016-10-08T04:30:53Z</time></trkpt>
<trkpt lat="29.999475" lon="93.036324">
<time>2016-10-08T04:30:54Z</time></trkpt>
<trkpt lat="29.999495" lon="93.036244">
<time>2016-10-08T04:30:55Z</time></trkpt>
<trkpt lat="29.999525" lon="93.036185">
<time>2016-10-08T04:30:56Z</time></trkpt>
<trkpt lat="29.999585" lon="93.036055">
<time>2016-10-08T04:30:57Z</time></trkpt>
<trkpt lat="29.999646" lon="93.035955">
<time>2016-10-08T04:30:58Z</time></trkpt>
<trkpt lat="29.999786" lon="93.035756">
<time>2016-10-08T04:30:59Z</time></trkpt>
<trkpt lat="29.999887" lon="93.035597">
<time>2016-10-08T04:31:00Z</time></trkpt>
<trkpt lat="30.000037" lon="93.035407">
<time>2016-10-08T04:31:01Z</time></trkpt>
<trkpt lat="30.002365" lon="93.032148">
<time>2016-10-08T04:31:02Z</time></trkpt>
<trkpt lat="30.002927" lon="93.031381">
<time>2016-10-08T04:31:03Z</time></trkpt>
<trkpt lat="30.003238" lon="93.030982">
<time>2016-10-08T04:31:04Z</time></trkpt>
<trkpt lat="30.004242" lon="93.029737">
<time>2016-10-08T04:31:05Z</time></trkpt>
<trkpt lat="30.005034" lon="93.02877">
<time>2016-10-08T04:31:06Z</time></trkpt>
<trkpt lat="30.005446" lon="93.028242">
<time>2016-10-08T04:31:07Z</time></trkpt>
<trkpt lat="30.006188" lon="93.027325">
<time>2016-10-08T04:31:08Z</time></trkpt>
<trkpt lat="30.006369" lon="93.027056">
<time>2016-10-08T04:31:09Z</time></trkpt>
<trkpt lat="30.006459" lon="93.026887">
<time>2016-10-08T04:31:10Z</time></trkpt>
<trkpt lat="30.00652" lon="93.026708">
<time>2016-10-08T04:31:11Z</time></trkpt>
<trkpt lat="30.00656" lon="93.026558">
<time>2016-10-08T04:31:12Z</time></trkpt>
<trkpt lat="30.006601" lon="93.026419">
<time>2016-10-08T04:31:13Z</time></trkpt>
<trkpt lat="30.006722" lon="93.02594">
<time>2016-10-08T04:31:14Z</time></trkpt>
<trkpt lat="30.006753" lon="93.025721">
<time>2016-10-08T04:31:15Z</time></trkpt>
<trkpt lat="30.006793" lon="93.025452">
<time>2016-10-08T04:31:16Z</time></trkpt>
<trkpt lat="30.006814" lon="93.025203">
<time>2016-10-08T04:31:17Z</time></trkpt>
<trkpt lat="30.006825" lon="93.024934">
<time>2016-10-08T04:31:18Z</time></trkpt>
<trkpt lat="30.006806" lon="93.024615">
<time>2016-10-08T04:31:19Z</time></trkpt>
<trkpt lat="30.00669" lon="93.02317">
<time>2016-10-08T04:31:20Z</time></trkpt>
<trkpt lat="30.00666" lon="93.022921">
<time>2016-10-08T04:31:21Z</time></trkpt>
<trkpt lat="30.006651" lon="93.022632">
<time>2016-10-08T04:31:22Z</time></trkpt>
<trkpt lat="30.006642" lon="93.022334">
<time>2016-10-08T04:31:23Z</time></trkpt>
<trkpt lat="30.006653" lon="93.022104">
<time>2016-10-08T04:31:24Z</time></trkpt>
<trkpt lat="30.006674" lon="93.021806">
<time>2016-10-08T04:31:25Z</time></trkpt>
<trkpt lat="30.006714" lon="93.021507">
<time>2016-10-08T04:31:26Z</time></trkpt>
<trkpt lat="30.006765" lon="93.021188">
<time>2016-10-08T04:31:27Z</time></trkpt>
<trkpt lat="30.006867" lon="93.02074">
<time>2016-10-08T04:31:28Z</time></trkpt>
<trkpt lat="30.007029" lon="93.019863">
<time>2016-10-08T04:31:29Z</time></trkpt>
<trkpt lat="30.007192" lon="93.019036">
<time>2016-10-08T04:31:30Z</time></trkpt>
<trkpt lat="30.007252" lon="93.018727">
<time>2016-10-08T04:31:31Z</time></trkpt>
<trkpt lat="30.007273" lon="93.018528">
<time>2016-10-08T04:31:32Z</time></trkpt>
<trkpt lat="30.007283" lon="93.018378">
<time>2016-10-08T04:31:33Z</time></trkpt>
<trkpt lat="30.007284" lon="93.018279">
<time>2016-10-08T04:31:34Z</time></trkpt>
<trkpt lat="30.007274" lon="93.018139">
<time>2016-10-08T04:31:35Z</time></trkpt>
<trkpt lat="30.007195" lon="93.017811">
<time>2016-10-08T04:31:36Z</time></trkpt>
<trkpt lat="30.007126" lon="93.017522">
<time>2016-10-08T04:31:37Z</time></trkpt>
<trkpt lat="30.007047" lon="93.017283">
<time>2016-10-08T04:31:38Z</time></trkpt>
<trkpt lat="30.006997" lon="93.017143">
<time>2016-10-08T04:31:39Z</time></trkpt>
<trkpt lat="30.006907" lon="93.016994">
<time>2016-10-08T04:31:40Z</time></trkpt>
<trkpt lat="30.006828" lon="93.016924">
<time>2016-10-08T04:31:41Z</time></trkpt>
<trkpt lat="30.006768" lon="93.016874">
<time>2016-10-08T04:31:42Z</time></trkpt>
<trkpt lat="30.006698" lon="93.016834">
<time>2016-10-08T04:31:43Z</time></trkpt>
<trkpt lat="30.006628" lon="93.016804">
<time>2016-10-08T04:31:44Z</time></trkpt>
<trkpt lat="30.006578" lon="93.016785">
<time>2016-10-08T04:31:45Z</time></trkpt>
<trkpt lat="30.006478" lon="93.016765">
<time>2016-10-08T04:31:46Z</time></trkpt>
<trkpt lat="30.006318" lon="93.016765">
<time>2016-10-08T04:31:47Z</time></trkpt>
<trkpt lat="30.006128" lon="93.016785">
<time>2016-10-08T04:31:48Z</time></trkpt>
<trkpt lat="30.005838" lon="93.016844">
<time>2016-10-08T04:31:49Z</time></trkpt>
<trkpt lat="30.005748" lon="93.016834">
<time>2016-10-08T04:31:50Z</time></trkpt>
<trkpt lat="30.005668" lon="93.016824">
<time>2016-10-08T04:31:51Z</time></trkpt>
<trkpt lat="30.005598" lon="93.016795">
<time>2016-10-08T04:31:52Z</time></trkpt>
<trkpt lat="30.005548" lon="93.016765">
<time>2016-10-08T04:31:53Z</time></trkpt>
<trkpt lat="30.005488" lon="93.016705">
<time>2016-10-08T04:31:54Z</time></trkpt>
<trkpt lat="30.005448" lon="93.016655">
<time>2016-10-08T04:31:55Z</time></trkpt>
<trkpt lat="30.005399" lon="93.016585">
<time>2016-10-08T04:31:56Z</time></trkpt>
<trkpt lat="30.005209" lon="93.016306">
<time>2016-10-08T04:31:57Z</time></trkpt>
<trkpt lat="30.00511" lon="93.016127">
<time>2016-10-08T04:31:58Z</time></trkpt>
<trkpt lat="30.00506" lon="93.015968">
<time>2016-10-08T04:31:59Z</time></trkpt>
<trkpt lat="30.005031" lon="93.015808">
<time>2016-10-08T04:32:00Z</time></trkpt>
<trkpt lat="30.005021" lon="93.015599">
<time>2016-10-08T04:32:01Z</time></trkpt>
<trkpt lat="30.005003" lon="93.015131">
<time>2016-10-08T04:32:02Z</time></trkpt>
<trkpt lat="30.004993" lon="93.014932">
<time>2016-10-08T04:32:03Z</time></trkpt>
<trkpt lat="30.004974" lon="93.014693">
<time>2016-10-08T04:32:04Z</time></trkpt>
<trkpt lat="30.004955" lon="93.014434">
<time>2016-10-08T04:32:05Z</time></trkpt>
<trkpt lat="30.004926" lon="93.014195">
<time>2016-10-08T04:32:06Z</time></trkpt>
<trkpt lat="30.004866" lon="93.013896">
<time>2016-10-08T04:32:07Z</time></trkpt>
<trkpt lat="30.004817" lon="93.013627">
<time>2016-10-08T04:32:08Z</time></trkpt>
<trkpt lat="30.004462" lon="93.011953">
<time>2016-10-08T04:32:09Z</time></trkpt>
<trkpt lat="30.004176" lon="93.010549">
<time>2016-10-08T04:32:10Z</time></trkpt>
<trkpt lat="30.004147" lon="93.01034">
<time>2016-10-08T04:32:11Z</time></trkpt>
<trkpt lat="30.004128" lon="93.010061">
<time>2016-10-08T04:32:12Z</time></trkpt>
<trkpt lat="30.004119" lon="93.009742">
<time>2016-10-08T04:32:13Z</time></trkpt>
<trkpt lat="30.00412" lon="93.009383">
<time>2016-10-08T04:32:14Z</time></trkpt>
<trkpt lat="30.004151" lon="93.008985">
<time>2016-10-08T04:32:15Z</time></trkpt>
<trkpt lat="30.004182" lon="93.008567">
<time>2016-10-08T04:32:16Z</time></trkpt>
<trkpt lat="30.004213" lon="93.008338">
<time>2016-10-08T04:32:17Z</time></trkpt>
<trkpt lat="30.004243" lon="93.008198">
<time>2016-10-08T04:32:18Z</time></trkpt>
<trkpt lat="30.004294" lon="93.008059">
<time>2016-10-08T04:32:19Z</time></trkpt>
<trkpt lat="30.004375" lon="93.007839">
<time>2016-10-08T04:32:20Z</time></trkpt>
<trkpt lat="30.004465" lon="93.00762">
<time>2016-10-08T04:32:21Z</time></trkpt>
<trkpt lat="30.004777" lon="93.006933">
<time>2016-10-08T04:32:22Z</time></trkpt>
<trkpt lat="30.005593" lon="93.0051">
<time>2016-10-08T04:32:23Z</time></trkpt>
<trkpt lat="30.006217" lon="93.003706">
<time>2016-10-08T04:32:24Z</time></trkpt>
<trkpt lat="30.00668" lon="93.00268">
<time>2016-10-08T04:32:25Z</time></trkpt>
<trkpt lat="30.006761" lon="93.002431">
<time>2016-10-08T04:32:26Z</time></trkpt>
<trkpt lat="30.006811" lon="93.002272">
<time>2016-10-08T04:32:27Z</time></trkpt>
<trkpt lat="30.006862" lon="93.002042">
<time>2016-10-08T04:32:28Z</time></trkpt>
<trkpt lat="30.006974" lon="93.001534">
<time>2016-10-08T04:32:29Z</time></trkpt>
<trkpt lat="30.007045" lon="93.001176">
<time>2016-10-08T04:32:30Z</time></trkpt>
<trkpt lat="30.007086" lon="93.000937">
<time>2016-10-08T04:32:31Z</time></trkpt>
<trkpt lat="30.007136" lon="93.000658">
<time>2016-10-08T04:32:32Z</time></trkpt>
<trkpt lat="30.007217" lon="93.000319">
<time>2016-10-08T04:32:33Z</time></trkpt>
<trkpt lat="30.007288" lon="93.00005">
<time>2016-10-08T04:32:34Z</time></trkpt>
<trkpt lat="30.007389" lon="92.999742">
<time>2016-10-08T04:32:35Z</time></trkpt>
<trkpt lat="30.0075" lon="92.999453">
<time>2016-10-08T04:32:36Z</time></trkpt>
<trkpt lat="30.007712" lon="92.998945">
<time>2016-10-08T04:32:37Z</time></trkpt>
<trkpt lat="30.007883" lon="92.998546">
<time>2016-10-08T04:32:38Z</time></trkpt>
<trkpt lat="30.007984" lon="92.998267">
<time>2016-10-08T04:32:39Z</time></trkpt>
<trkpt lat="30.008074" lon="92.998038">
<time>2016-10-08T04:32:40Z</time></trkpt>
<trkpt lat="30.008145" lon="92.997799">
<time>2016-10-08T04:32:41Z</time></trkpt>
<trkpt lat="30.008246" lon="92.997471">
<time>2016-10-08T04:32:42Z</time></trkpt>
<trkpt lat="30.008418" lon="92.996734">
<time>2016-10-08T04:32:43Z</time></trkpt>
<trkpt lat="30.00852" lon="92.996275">
<time>2016-10-08T04:32:44Z</time></trkpt>
<trkpt lat="30.008591" lon="92.995927">
<time>2016-10-08T04:32:45Z</time></trkpt>
<trkpt lat="30.008824" lon="92.994831">
<time>2016-10-08T04:32:46Z</time></trkpt>
<trkpt lat="30.008926" lon="92.994343">
<time>2016-10-08T04:32:47Z</time></trkpt>
<trkpt lat="30.009189" lon="92.993088">
<time>2016-10-08T04:32:48Z</time></trkpt>
<trkpt lat="30.009321" lon="92.99259">
<time>2016-10-08T04:32:49Z</time></trkpt>
<trkpt lat="30.009452" lon="92.992202">
<time>2016-10-08T04:32:50Z</time></trkpt>
<trkpt lat="30.009583" lon="92.991883">
<time>2016-10-08T04:32:51Z</time></trkpt>
<trkpt lat="30.009754" lon="92.991484">
<time>2016-10-08T04:32:52Z</time></trkpt>
<trkpt lat="30.009915" lon="92.991146">
<time>2016-10-08T04:32:53Z</time></trkpt>
<trkpt lat="30.010096" lon="92.990817">
<time>2016-10-08T04:32:54Z</time></trkpt>
<trkpt lat="30.01084" lon="92.989602">
<time>2016-10-08T04:32:55Z</time></trkpt>
<trkpt lat="30.010981" lon="92.989373">
<time>2016-10-08T04:32:56Z</time></trkpt>
<trkpt lat="30.011172" lon="92.989104">
<time>2016-10-08T04:32:57Z</time></trkpt>
<trkpt lat="30.011312" lon="92.988925">
<time>2016-10-08T04:32:58Z</time></trkpt>
<trkpt lat="30.011453" lon="92.988745">
<time>2016-10-08T04:32:59Z</time></trkpt>
<trkpt lat="30.011563" lon="92.988636">
<time>2016-10-08T04:33:00Z</time></trkpt>
<trkpt lat="30.011713" lon="92.988466">
<time>2016-10-08T04:33:01Z</time></trkpt>
<trkpt lat="30.011914" lon="92.988277">
<time>2016-10-08T04:33:02Z</time></trkpt>
<trkpt lat="30.012245" lon="92.987988">
<time>2016-10-08T04:33:03Z</time></trkpt>
<trkpt lat="30.012536" lon="92.987729">
<time>2016-10-08T04:33:04Z</time></trkpt>
<trkpt lat="30.012656" lon="92.98762">
<time>2016-10-08T04:33:05Z</time></trkpt>
<trkpt lat="30.012766" lon="92.98751">
<time>2016-10-08T04:33:06Z</time></trkpt>
<trkpt lat="30.012917" lon="92.987301">
<time>2016-10-08T04:33:07Z</time></trkpt>
<trkpt lat="30.013038" lon="92.987112">
<time>2016-10-08T04:33:08Z</time></trkpt>
<trkpt lat="30.013339" lon="92.986663">
<time>2016-10-08T04:33:09Z</time></trkpt>
<trkpt lat="30.014012" lon="92.985657">
<time>2016-10-08T04:33:10Z</time></trkpt>
<trkpt lat="30.014735" lon="92.984631">
<time>2016-10-08T04:33:11Z</time></trkpt>
<trkpt lat="30.015237" lon="92.983924">
<time>2016-10-08T04:33:12Z</time></trkpt>
<trkpt lat="30.016472" lon="92.982231">
<time>2016-10-08T04:33:13Z</time></trkpt>
<trkpt lat="30.017416" lon="92.980926">
<time>2016-10-08T04:33:14Z</time></trkpt>
<trkpt lat="30.017526" lon="92.980766">
<time>2016-10-08T04:33:15Z</time></trkpt>
<trkpt lat="30.017597" lon="92.980657">
<time>2016-10-08T04:33:16Z</time></trkpt>
<trkpt lat="30.017667" lon="92.980507">
<time>2016-10-08T04:33:17Z</time></trkpt>
<trkpt lat="30.017738" lon="92.980318">
<time>2016-10-08T04:33:18Z</time></trkpt>
<trkpt lat="30.018" lon="92.979332">
<time>2016-10-08T04:33:19Z</time></trkpt>
<trkpt lat="30.018071" lon="92.979112">
<time>2016-10-08T04:33:20Z</time></trkpt>
<trkpt lat="30.018101" lon="92.979013">
<time>2016-10-08T04:33:21Z</time></trkpt>
<trkpt lat="30.018152" lon="92.978873">
<time>2016-10-08T04:33:22Z</time></trkpt>
<trkpt lat="30.018232" lon="92.978664">
<time>2016-10-08T04:33:23Z</time></trkpt>
<trkpt lat="30.018534" lon="92.977947">
<time>2016-10-08T04:33:24Z</time></trkpt>
<trkpt lat="30.019058" lon="92.976692">
<time>2016-10-08T04:33:25Z</time></trkpt>
<trkpt lat="30.019109" lon="92.976532">
<time>2016-10-08T04:33:26Z</time></trkpt>
<trkpt lat="30.019169" lon="92.976323">
<time>2016-10-08T04:33:27Z</time></trkpt>
<trkpt lat="30.01924" lon="92.976014">
<time>2016-10-08T04:33:28Z</time></trkpt>
<trkpt lat="30.019372" lon="92.975337">
<time>2016-10-08T04:33:29Z</time></trkpt>
<trkpt lat="30.019534" lon="92.97451">
<time>2016-10-08T04:33:30Z</time></trkpt>
<trkpt lat="30.019555" lon="92.9743">
<time>2016-10-08T04:33:31Z</time></trkpt>
<trkpt lat="30.019555" lon="92.974141">
<time>2016-10-08T04:33:32Z</time></trkpt>
<trkpt lat="30.019546" lon="92.974031">
<time>2016-10-08T04:33:33Z</time></trkpt>
<trkpt lat="30.019536" lon="92.973942">
<time>2016-10-08T04:33:34Z</time></trkpt>
<trkpt lat="30.019496" lon="92.973812">
<time>2016-10-08T04:33:35Z</time></trkpt>
<trkpt lat="30.01909" lon="92.972477">
<time>2016-10-08T04:33:36Z</time></trkpt>
<trkpt lat="30.018931" lon="92.971989">
<time>2016-10-08T04:33:37Z</time></trkpt>
<trkpt lat="30.018852" lon="92.97172">
<time>2016-10-08T04:33:38Z</time></trkpt>
<trkpt lat="30.018812" lon="92.97156">
<time>2016-10-08T04:33:39Z</time></trkpt>
<trkpt lat="30.018773" lon="92.971331">
<time>2016-10-08T04:33:40Z</time></trkpt>
<trkpt lat="30.018734" lon="92.971072">
<time>2016-10-08T04:33:41Z</time></trkpt>
<trkpt lat="30.018666" lon="92.970395">
<time>2016-10-08T04:33:42Z</time></trkpt>
<trkpt lat="30.018617" lon="92.969906">
<time>2016-10-08T04:33:43Z</time></trkpt>
<trkpt lat="30.018568" lon="92.969598">
<time>2016-10-08T04:33:44Z</time></trkpt>
<trkpt lat="30.018459" lon="92.96894">
<time>2016-10-08T04:33:45Z</time></trkpt>
<trkpt lat="30.01844" lon="92.968761">
<time>2016-10-08T04:33:46Z</time></trkpt>
<trkpt lat="30.018441" lon="92.968531">
<time>2016-10-08T04:33:47Z</time></trkpt>
<trkpt lat="30.018461" lon="92.968342">
<time>2016-10-08T04:33:48Z</time></trkpt>
<trkpt lat="30.018482" lon="92.968133">
<time>2016-10-08T04:33:49Z</time></trkpt>
<trkpt lat="30.018522" lon="92.968003">
<time>2016-10-08T04:33:50Z</time></trkpt>
<trkpt lat="30.018562" lon="92.967854">
<time>2016-10-08T04:33:51Z</time></trkpt>
<trkpt lat="30.018683" lon="92.967555">
<time>2016-10-08T04:33:52Z</time></trkpt>
<trkpt lat="30.018864" lon="92.967067">
<time>2016-10-08T04:33:53Z</time></trkpt>
<trkpt lat="30.018925" lon="92.966907">
<time>2016-10-08T04:33:54Z</time></trkpt>
<trkpt lat="30.018965" lon="92.966738">
<time>2016-10-08T04:33:55Z</time></trkpt>
<trkpt lat="30.018976" lon="92.966628">
<time>2016-10-08T04:33:56Z</time></trkpt>
<trkpt lat="30.018976" lon="92.966508">
<time>2016-10-08T04:33:57Z</time></trkpt>
<trkpt lat="30.018966" lon="92.966439">
<time>2016-10-08T04:33:58Z</time></trkpt>
<trkpt lat="30.018946" lon="92.966359">
<time>2016-10-08T04:33:59Z</time></trkpt>
<trkpt lat="30.018907" lon="92.966269">
<time>2016-10-08T04:34:00Z</time></trkpt>
<trkpt lat="30.018887" lon="92.96621">
<time>2016-10-08T04:34:01Z</time></trkpt>
<trkpt lat="30.018837" lon="92.96614">
<time>2016-10-08T04:34:02Z</time></trkpt>
<trkpt lat="30.018767" lon="92.96604">
<time>2016-10-08T04:34:03Z</time></trkpt>
<trkpt lat="30.018319" lon="92.965372">
<time>2016-10-08T04:34:04Z</time></trkpt>
<trkpt lat="30.018249" lon="92.965263">
<time>2016-10-08T04:34:05Z</time></trkpt>
<trkpt lat="30.018229" lon="92.965193">
<time>2016-10-08T04:34:06Z</time></trkpt>
<trkpt lat="30.01821" lon="92.965113">
<time>2016-10-08T04:34:07Z</time></trkpt>
<trkpt lat="30.01821" lon="92.964954">
<time>2016-10-08T04:34:08Z</time></trkpt>
<trkpt lat="30.018311" lon="92.964396">
<time>2016-10-08T04:34:09Z</time></trkpt>
<trkpt lat="30.018352" lon="92.964226">
<time>2016-10-08T04:34:10Z</time></trkpt>
<trkpt lat="30.018402" lon="92.964047">
<time>2016-10-08T04:34:11Z</time></trkpt>
<trkpt lat="30.018483" lon="92.963848">
<time>2016-10-08T04:34:12Z</time></trkpt>
<trkpt lat="30.018593" lon="92.963628">
<time>2016-10-08T04:34:13Z</time></trkpt>
<trkpt lat="30.018684" lon="92.963469">
<time>2016-10-08T04:34:14Z</time></trkpt>
<trkpt lat="30.018844" lon="92.96328">
<time>2016-10-08T04:34:15Z</time></trkpt>
<trkpt lat="30.018985" lon="92.96312">
<time>2016-10-08T04:34:16Z</time></trkpt>
<trkpt lat="30.019095" lon="92.963001">
<time>2016-10-08T04:34:17Z</time></trkpt>
<trkpt lat="30.019175" lon="92.962951">
<time>2016-10-08T04:34:18Z</time></trkpt>
<trkpt lat="30.019255" lon="92.962911">
<time>2016-10-08T04:34:19Z</time></trkpt>
<trkpt lat="30.019345" lon="92.962881">
<time>2016-10-08T04:34:20Z</time></trkpt>
<trkpt lat="30.019655" lon="92.962801">
<time>2016-10-08T04:34:21Z</time></trkpt>
<trkpt lat="30.020006" lon="92.962712">
<time>2016-10-08T04:34:22Z</time></trkpt>
<trkpt lat="30.020126" lon="92.962672">
<time>2016-10-08T04:34:23Z</time></trkpt>
<trkpt lat="30.020236" lon="92.962592">
<time>2016-10-08T04:34:24Z</time></trkpt>
<trkpt lat="30.020316" lon="92.962502">
<time>2016-10-08T04:34:25Z</time></trkpt>
<trkpt lat="30.020366" lon="92.962422">
<time>2016-10-08T04:34:26Z</time></trkpt>
<trkpt lat="30.020417" lon="92.962333">
<time>2016-10-08T04:34:27Z</time></trkpt>
<trkpt lat="30.020628" lon="92.961874">
<time>2016-10-08T04:34:28Z</time></trkpt>
<trkpt lat="30.020698" lon="92.961745">
<time>2016-10-08T04:34:29Z</time></trkpt>
<trkpt lat="30.020788" lon="92.961615">
<time>2016-10-08T04:34:30Z</time></trkpt>
<trkpt lat="30.021149" lon="92.961256">
<time>2016-10-08T04:34:31Z</time></trkpt>
<trkpt lat="30.02143" lon="92.960967">
<time>2016-10-08T04:34:32Z</time></trkpt>
<trkpt lat="30.021661" lon="92.960768">
<time>2016-10-08T04:34:33Z</time></trkpt>
<trkpt lat="30.021871" lon="92.960618">
<time>2016-10-08T04:34:34Z</time></trkpt>
<trkpt lat="30.022151" lon="92.960429">
<time>2016-10-08T04:34:35Z</time></trkpt>
<trkpt lat="30.022352" lon="92.960319">
<time>2016-10-08T04:34:36Z</time></trkpt>
<trkpt lat="30.022542" lon="92.96022">
<time>2016-10-08T04:34:37Z</time></trkpt>
<trkpt lat="30.022742" lon="92.96011">
<time>2016-10-08T04:34:38Z</time></trkpt>
<trkpt lat="30.022872" lon="92.96005">
<time>2016-10-08T04:34:39Z</time></trkpt>
<trkpt lat="30.022932" lon="92.96002">
<time>2016-10-08T04:34:40Z</time></trkpt>
<trkpt lat="30.023022" lon="92.96">
<time>2016-10-08T04:34:41Z</time></trkpt>
<trkpt lat="30.023113" lon="92.959981">
<time>2016-10-08T04:34:42Z</time></trkpt>
<trkpt lat="30.023253" lon="92.959961">
<time>2016-10-08T04:34:43Z</time></trkpt>
<trkpt lat="30.023663" lon="92.959921">
<time>2016-10-08T04:34:44Z</time></trkpt>
<trkpt lat="30.024063" lon="92.959901">
<time>2016-10-08T04:34:45Z</time></trkpt>
<trkpt lat="30.024293" lon="92.959871">
<time>2016-10-08T04:34:46Z</time></trkpt>
<trkpt lat="30.024423" lon="92.959841">
<time>2016-10-08T04:34:47Z</time></trkpt>
<trkpt lat="30.024573" lon="92.959791">
<time>2016-10-08T04:34:48Z</time></trkpt>
<trkpt lat="30.024623" lon="92.959771">
<time>2016-10-08T04:34:49Z</time></trkpt>
<trkpt lat="30.024673" lon="92.959751">
<time>2016-10-08T04:34:50Z</time></trkpt>
<trkpt lat="30.024733" lon="92.959731">
<time>2016-10-08T04:34:51Z</time></trkpt>
<trkpt lat="30.024783" lon="92.959691">
<time>2016-10-08T04:34:52Z</time></trkpt>
<trkpt lat="30.024853" lon="92.959642">
<time>2016-10-08T04:34:53Z</time></trkpt>
<trkpt lat="30.024914" lon="92.959582">
<time>2016-10-08T04:34:54Z</time></trkpt>
<trkpt lat="30.025014" lon="92.959472">
<time>2016-10-08T04:34:55Z</time></trkpt>
<trkpt lat="30.025124" lon="92.959333">
<time>2016-10-08T04:34:56Z</time></trkpt>
<trkpt lat="30.025224" lon="92.959183">
<time>2016-10-08T04:34:57Z</time></trkpt>
<trkpt lat="30.025295" lon="92.959054">
<time>2016-10-08T04:34:58Z</time></trkpt>
<trkpt lat="30.025355" lon="92.958904">
<time>2016-10-08T04:34:59Z</time></trkpt>
<trkpt lat="30.025406" lon="92.958685">
<time>2016-10-08T04:35:00Z</time></trkpt>
<trkpt lat="30.025456" lon="92.958455">
<time>2016-10-08T04:35:01Z</time></trkpt>
<trkpt lat="30.025467" lon="92.958306">
<time>2016-10-08T04:35:02Z</time></trkpt>
<trkpt lat="30.025477" lon="92.958166">
<time>2016-10-08T04:35:03Z</time></trkpt>
<trkpt lat="30.025487" lon="92.958067">
<time>2016-10-08T04:35:04Z</time></trkpt>
<trkpt lat="30.025497" lon="92.957967">
<time>2016-10-08T04:35:05Z</time></trkpt>
<trkpt lat="30.025518" lon="92.957837">
<time>2016-10-08T04:35:06Z</time></trkpt>
<trkpt lat="30.025568" lon="92.957678">
<time>2016-10-08T04:35:07Z</time></trkpt>
<trkpt lat="30.025649" lon="92.957479">
<time>2016-10-08T04:35:08Z</time></trkpt>
<trkpt lat="30.025729" lon="92.957279">
<time>2016-10-08T04:35:09Z</time></trkpt>
<trkpt lat="30.026503" lon="92.955525">
<time>2016-10-08T04:35:10Z</time></trkpt>
<trkpt lat="30.026674" lon="92.955126">
<time>2016-10-08T04:35:11Z</time></trkpt>
<trkpt lat="30.026775" lon="92.954877">
<time>2016-10-08T04:35:12Z</time></trkpt>
<trkpt lat="30.026915" lon="92.954578">
<time>2016-10-08T04:35:13Z</time></trkpt>
<trkpt lat="30.027106" lon="92.954229">
<time>2016-10-08T04:35:14Z</time></trkpt>
<trkpt lat="30.027226" lon="92.954049">
<time>2016-10-08T04:35:15Z</time></trkpt>
<trkpt lat="30.027337" lon="92.95388">
<time>2016-10-08T04:35:16Z</time></trkpt>
<trkpt lat="30.027558" lon="92.953591">
<time>2016-10-08T04:35:17Z</time></trkpt>
<trkpt lat="30.028801" lon="92.952045">
<time>2016-10-08T04:35:18Z</time></trkpt>
<trkpt lat="30.029092" lon="92.951676">
<time>2016-10-08T04:35:19Z</time></trkpt>
<trkpt lat="30.029483" lon="92.951208">
<time>2016-10-08T04:35:20Z</time></trkpt>
<trkpt lat="30.029733" lon="92.950869">
<time>2016-10-08T04:35:21Z</time></trkpt>
<trkpt lat="30.029854" lon="92.950699">
<time>2016-10-08T04:35:22Z</time></trkpt>
<trkpt lat="30.029954" lon="92.95051">
<time>2016-10-08T04:35:23Z</time></trkpt>
<trkpt lat="30.030095" lon="92.950211">
<time>2016-10-08T04:35:24Z</time></trkpt>
<trkpt lat="30.030397" lon="92.949353">
<time>2016-10-08T04:35:25Z</time></trkpt>
<trkpt lat="30.030789" lon="92.948147">
<time>2016-10-08T04:35:26Z</time></trkpt>
<trkpt lat="30.03083" lon="92.947987">
<time>2016-10-08T04:35:27Z</time></trkpt>
<trkpt lat="30.03085" lon="92.947847">
<time>2016-10-08T04:35:28Z</time></trkpt>
<trkpt lat="30.03085" lon="92.947728">
<time>2016-10-08T04:35:29Z</time></trkpt>
<trkpt lat="30.03083" lon="92.947598">
<time>2016-10-08T04:35:30Z</time></trkpt>
<trkpt lat="30.030791" lon="92.947439">
<time>2016-10-08T04:35:31Z</time></trkpt>
<trkpt lat="30.030582" lon="92.94685">
<time>2016-10-08T04:35:32Z</time></trkpt>
<trkpt lat="30.030502" lon="92.946611">
<time>2016-10-08T04:35:33Z</time></trkpt>
<trkpt lat="30.030453" lon="92.946421">
<time>2016-10-08T04:35:34Z</time></trkpt>
<trkpt lat="30.030393" lon="92.946132">
<time>2016-10-08T04:35:35Z</time></trkpt>
<trkpt lat="30.030176" lon="92.944856">
<time>2016-10-08T04:35:36Z</time></trkpt>
<trkpt lat="30.030116" lon="92.944527">
<time>2016-10-08T04:35:37Z</time></trkpt>
<trkpt lat="30.030087" lon="92.944307">
<time>2016-10-08T04:35:38Z</time></trkpt>
<trkpt lat="30.030087" lon="92.944138">
<time>2016-10-08T04:35:39Z</time></trkpt>
<trkpt lat="30.030097" lon="92.943958">
<time>2016-10-08T04:35:40Z</time></trkpt>
<trkpt lat="30.030128" lon="92.943798">
<time>2016-10-08T04:35:41Z</time></trkpt>
<trkpt lat="30.030188" lon="92.943589">
<time>2016-10-08T04:35:42Z</time></trkpt>
<trkpt lat="30.030339" lon="92.94316">
<time>2016-10-08T04:35:43Z</time></trkpt>
<trkpt lat="30.03067" lon="92.942312">
<time>2016-10-08T04:35:44Z</time></trkpt>
<trkpt lat="30.030952" lon="92.941524">
<time>2016-10-08T04:35:45Z</time></trkpt>
<trkpt lat="30.031002" lon="92.941375">
<time>2016-10-08T04:35:46Z</time></trkpt>
<trkpt lat="30.031042" lon="92.941205">
<time>2016-10-08T04:35:47Z</time></trkpt>
<trkpt lat="30.031053" lon="92.941095">
<time>2016-10-08T04:35:48Z</time></trkpt>
<trkpt lat="30.031053" lon="92.940986">
<time>2016-10-08T04:35:49Z</time></trkpt>
<trkpt lat="30.031043" lon="92.940786">
<time>2016-10-08T04:35:50Z</time></trkpt>
<trkpt lat="30.031023" lon="92.940627">
<time>2016-10-08T04:35:51Z</time></trkpt>
<trkpt lat="30.030905" lon="92.939499">
<time>2016-10-08T04:35:52Z</time></trkpt>
<trkpt lat="30.030797" lon="92.938502">
<time>2016-10-08T04:35:53Z</time></trkpt>
<trkpt lat="30.030797" lon="92.938332">
<time>2016-10-08T04:35:54Z</time></trkpt>
<trkpt lat="30.030808" lon="92.938163">
<time>2016-10-08T04:35:55Z</time></trkpt>
<trkpt lat="30.030838" lon="92.937883">
<time>2016-10-08T04:35:56Z</time></trkpt>
<trkpt lat="30.030909" lon="92.937285">
<time>2016-10-08T04:35:57Z</time></trkpt>
<trkpt lat="30.031112" lon="92.935708">
<time>2016-10-08T04:35:58Z</time></trkpt>
<trkpt lat="30.031203" lon="92.93497">
<time>2016-10-08T04:35:59Z</time></trkpt>
<trkpt lat="30.031243" lon="92.934651">
<time>2016-10-08T04:36:00Z</time></trkpt>
<trkpt lat="30.031284" lon="92.934381">
<time>2016-10-08T04:36:01Z</time></trkpt>
<trkpt lat="30.031354" lon="92.934022">
<time>2016-10-08T04:36:02Z</time></trkpt>
<trkpt lat="30.031435" lon="92.933673">
<time>2016-10-08T04:36:03Z</time></trkpt>
<trkpt lat="30.031505" lon="92.933403">
<time>2016-10-08T04:36:04Z</time></trkpt>
<trkpt lat="30.031575" lon="92.933194">
<time>2016-10-08T04:36:05Z</time></trkpt>
<trkpt lat="30.031816" lon="92.932525">
<time>2016-10-08T04:36:06Z</time></trkpt>
<trkpt lat="30.032147" lon="92.931637">
<time>2016-10-08T04:36:07Z</time></trkpt>
<trkpt lat="30.032288" lon="92.931238">
<time>2016-10-08T04:36:08Z</time></trkpt>
<trkpt lat="30.032429" lon="92.930859">
<time>2016-10-08T04:36:09Z</time></trkpt>
<trkpt lat="30.032529" lon="92.930649">
<time>2016-10-08T04:36:10Z</time></trkpt>
<trkpt lat="30.032629" lon="92.930429">
<time>2016-10-08T04:36:11Z</time></trkpt>
<trkpt lat="30.032729" lon="92.93026">
<time>2016-10-08T04:36:12Z</time></trkpt>
<trkpt lat="30.03284" lon="92.93007">
<time>2016-10-08T04:36:13Z</time></trkpt>
<trkpt lat="30.03307" lon="92.929701">
<time>2016-10-08T04:36:14Z</time></trkpt>
<trkpt lat="30.033421" lon="92.929172">
<time>2016-10-08T04:36:15Z</time></trkpt>
<trkpt lat="30.033781" lon="92.928593">
<time>2016-10-08T04:36:16Z</time></trkpt>
<trkpt lat="30.033862" lon="92.928443">
<time>2016-10-08T04:36:17Z</time></trkpt>
<trkpt lat="30.033922" lon="92.928293">
<time>2016-10-08T04:36:18Z</time></trkpt>
<trkpt lat="30.033982" lon="92.928154">
<time>2016-10-08T04:36:19Z</time></trkpt>
<trkpt lat="30.034022" lon="92.928024">
<time>2016-10-08T04:36:20Z</time></trkpt>
<trkpt lat="30.034092" lon="92.927784">
<time>2016-10-08T04:36:21Z</time></trkpt>
<trkpt lat="30.034143" lon="92.927625">
<time>2016-10-08T04:36:22Z</time></trkpt>
<trkpt lat="30.034183" lon="92.927425">
<time>2016-10-08T04:36:23Z</time></trkpt>
<trkpt lat="30.034203" lon="92.927285">
<time>2016-10-08T04:36:24Z</time></trkpt>
<trkpt lat="30.034213" lon="92.927156">
<time>2016-10-08T04:36:25Z</time></trkpt>
<trkpt lat="30.034223" lon="92.926976">
<time>2016-10-08T04:36:26Z</time></trkpt>
<trkpt lat="30.034204" lon="92.926816">
<time>2016-10-08T04:36:27Z</time></trkpt>
<trkpt lat="30.034184" lon="92.926716">
<time>2016-10-08T04:36:28Z</time></trkpt>
<trkpt lat="30.034144" lon="92.926537">
<time>2016-10-08T04:36:29Z</time></trkpt>
<trkpt lat="30.034074" lon="92.926317">
<time>2016-10-08T04:36:30Z</time></trkpt>
<trkpt lat="30.033945" lon="92.926038">
<time>2016-10-08T04:36:31Z</time></trkpt>
<trkpt lat="30.031968" lon="92.922344">
<time>2016-10-08T04:36:32Z</time></trkpt>
<trkpt lat="30.031779" lon="92.921994">
<time>2016-10-08T04:36:33Z</time></trkpt>
<trkpt lat="30.031689" lon="92.921775">
<time>2016-10-08T04:36:34Z</time></trkpt>
<trkpt lat="30.031499" lon="92.921295">
<time>2016-10-08T04:36:35Z</time></trkpt>
<trkpt lat="30.03139" lon="92.920896">
<time>2016-10-08T04:36:36Z</time></trkpt>
<trkpt lat="30.0313" lon="92.920457">
<time>2016-10-08T04:36:37Z</time></trkpt>
<trkpt lat="30.03124" lon="92.920037">
<time>2016-10-08T04:36:38Z</time></trkpt>
<trkpt lat="30.031161" lon="92.919408">
<time>2016-10-08T04:36:39Z</time></trkpt>
<trkpt lat="30.030902" lon="92.917511">
<time>2016-10-08T04:36:40Z</time></trkpt>
<trkpt lat="30.030843" lon="92.917071">
<time>2016-10-08T04:36:41Z</time></trkpt>
<trkpt lat="30.030674" lon="92.915813">
<time>2016-10-08T04:36:42Z</time></trkpt>
<trkpt lat="30.030634" lon="92.915543">
<time>2016-10-08T04:36:43Z</time></trkpt>
<trkpt lat="30.030455" lon="92.914205">
<time>2016-10-08T04:36:44Z</time></trkpt>
<trkpt lat="30.030405" lon="92.913955">
<time>2016-10-08T04:36:45Z</time></trkpt>
<trkpt lat="30.030385" lon="92.913835">
<time>2016-10-08T04:36:46Z</time></trkpt>
<trkpt lat="30.030345" lon="92.913686">
<time>2016-10-08T04:36:47Z</time></trkpt>
<trkpt lat="30.030245" lon="92.913406">
<time>2016-10-08T04:36:48Z</time></trkpt>
<trkpt lat="30.030115" lon="92.913006">
<time>2016-10-08T04:36:49Z</time></trkpt>
<trkpt lat="30.030065" lon="92.912866">
<time>2016-10-08T04:36:50Z</time></trkpt>
<trkpt lat="30.030026" lon="92.912737">
<time>2016-10-08T04:36:51Z</time></trkpt>
<trkpt lat="30.030016" lon="92.912637">
<time>2016-10-08T04:36:52Z</time></trkpt>
<trkpt lat="30.029986" lon="92.912467">
<time>2016-10-08T04:36:53Z</time></trkpt>
<trkpt lat="30.029896" lon="92.911598">
<time>2016-10-08T04:36:54Z</time></trkpt>
<trkpt lat="30.029866" lon="92.911318">
<time>2016-10-08T04:36:55Z</time></trkpt>
<trkpt lat="30.029816" lon="92.910829">
<time>2016-10-08T04:36:56Z</time></trkpt>
<trkpt lat="30.029757" lon="92.910449">
<time>2016-10-08T04:36:57Z</time></trkpt>
<trkpt lat="30.029667" lon="92.909929">
<time>2016-10-08T04:36:58Z</time></trkpt>
<trkpt lat="30.029407" lon="92.908411">
<time>2016-10-08T04:36:59Z</time></trkpt>
<trkpt lat="30.029387" lon="92.908301">
<time>2016-10-08T04:37:00Z</time></trkpt>
<trkpt lat="30.029357" lon="92.908161">
<time>2016-10-08T04:37:01Z</time></trkpt>
<trkpt lat="30.029298" lon="92.908021">
<time>2016-10-08T04:37:02Z</time></trkpt>
<trkpt lat="30.029258" lon="92.907931">
<time>2016-10-08T04:37:03Z</time></trkpt>
<trkpt lat="30.029198" lon="92.907831">
<time>2016-10-08T04:37:04Z</time></trkpt>
<trkpt lat="30.028868" lon="92.907332">
<time>2016-10-08T04:37:05Z</time></trkpt>
<trkpt lat="30.028778" lon="92.907202">
<time>2016-10-08T04:37:06Z</time></trkpt>
<trkpt lat="30.028688" lon="92.907092">
<time>2016-10-08T04:37:07Z</time></trkpt>
<trkpt lat="30.028618" lon="92.907032">
<time>2016-10-08T04:37:08Z</time></trkpt>
<trkpt lat="30.028538" lon="92.906962">
<time>2016-10-08T04:37:09Z</time></trkpt>
<trkpt lat="30.028428" lon="92.906922">
<time>2016-10-08T04:37:10Z</time></trkpt>
<trkpt lat="30.028348" lon="92.906882">
<time>2016-10-08T04:37:11Z</time></trkpt>
<trkpt lat="30.028268" lon="92.906852">
<time>2016-10-08T04:37:12Z</time></trkpt>
<trkpt lat="30.028178" lon="92.906792">
<time>2016-10-08T04:37:13Z</time></trkpt>
<trkpt lat="30.028068" lon="92.906672">
<time>2016-10-08T04:37:14Z</time></trkpt>
<trkpt lat="30.027948" lon="92.906532">
<time>2016-10-08T04:37:15Z</time></trkpt>
<trkpt lat="30.027838" lon="92.906382">
<time>2016-10-08T04:37:16Z</time></trkpt>
<trkpt lat="30.027748" lon="92.906243">
<time>2016-10-08T04:37:17Z</time></trkpt>
<trkpt lat="30.027678" lon="92.906063">
<time>2016-10-08T04:37:18Z</time></trkpt>
<trkpt lat="30.027648" lon="92.905913">
<time>2016-10-08T04:37:19Z</time></trkpt>
<trkpt lat="30.027648" lon="92.905823">
<time>2016-10-08T04:37:20Z</time></trkpt>
<trkpt lat="30.027648" lon="92.905723">
<time>2016-10-08T04:37:21Z</time></trkpt>
<trkpt lat="30.027678" lon="92.905493">
<time>2016-10-08T04:37:22Z</time></trkpt>
<trkpt lat="30.027958" lon="92.903924">
<time>2016-10-08T04:37:23Z</time></trkpt>
<trkpt lat="30.027968" lon="92.903814">
<time>2016-10-08T04:37:24Z</time></trkpt>
<trkpt lat="30.027978" lon="92.903664">
<time>2016-10-08T04:37:25Z</time></trkpt>
<trkpt lat="30.027958" lon="92.903464">
<time>2016-10-08T04:37:26Z</time></trkpt>
<trkpt lat="30.027938" lon="92.903314">
<time>2016-10-08T04:37:27Z</time></trkpt>
<trkpt lat="30.027898" lon="92.903155">
<time>2016-10-08T04:37:28Z</time></trkpt>
<trkpt lat="30.027819" lon="92.902825">
<time>2016-10-08T04:37:29Z</time></trkpt>
<trkpt lat="30.027659" lon="92.902175">
<time>2016-10-08T04:37:30Z</time></trkpt>
<trkpt lat="30.027569" lon="92.901765">
<time>2016-10-08T04:37:31Z</time></trkpt>
<trkpt lat="30.027539" lon="92.901695">
<time>2016-10-08T04:37:32Z</time></trkpt>
<trkpt lat="30.027499" lon="92.901585">
<time>2016-10-08T04:37:33Z</time></trkpt>
<trkpt lat="30.027379" lon="92.901336">
<time>2016-10-08T04:37:34Z</time></trkpt>
<trkpt lat="30.027309" lon="92.901206">
<time>2016-10-08T04:37:35Z</time></trkpt>
<trkpt lat="30.027129" lon="92.900886">
<time>2016-10-08T04:37:36Z</time></trkpt>
<trkpt lat="30.026979" lon="92.900636">
<time>2016-10-08T04:37:37Z</time></trkpt>
<trkpt lat="30.026749" lon="92.900286">
<time>2016-10-08T04:37:38Z</time></trkpt>
<trkpt lat="30.026499" lon="92.899956">
<time>2016-10-08T04:37:39Z</time></trkpt>
<trkpt lat="30.026079" lon="92.899406">
<time>2016-10-08T04:37:40Z</time></trkpt>
<trkpt lat="30.025448" lon="92.898547">
<time>2016-10-08T04:37:41Z</time></trkpt>
<trkpt lat="30.025108" lon="92.898097">
<time>2016-10-08T04:37:42Z</time></trkpt>
<trkpt lat="30.024748" lon="92.897617">
<time>2016-10-08T04:37:43Z</time></trkpt>
<trkpt lat="30.024208" lon="92.896897">
<time>2016-10-08T04:37:44Z</time></trkpt>
<trkpt lat="30.023648" lon="92.896137">
<time>2016-10-08T04:37:45Z</time></trkpt>
<trkpt lat="30.023428" lon="92.895867">
<time>2016-10-08T04:37:46Z</time></trkpt>
<trkpt lat="30.023238" lon="92.895648">
<time>2016-10-08T04:37:47Z</time></trkpt>
<trkpt lat="30.022988" lon="92.895388">
<time>2016-10-08T04:37:48Z</time></trkpt>
<trkpt lat="30.022448" lon="92.894868">
<time>2016-10-08T04:37:49Z</time></trkpt>
<trkpt lat="30.021357" lon="92.893808">
<time>2016-10-08T04:37:50Z</time></trkpt>
<trkpt lat="30.021167" lon="92.893608">
<time>2016-10-08T04:37:51Z</time></trkpt>
<trkpt lat="30.020867" lon="92.893328">
<time>2016-10-08T04:37:52Z</time></trkpt>
<trkpt lat="30.020697" lon="92.893148">
<time>2016-10-08T04:37:53Z</time></trkpt>
<trkpt lat="30.020537" lon="92.892918">
<time>2016-10-08T04:37:54Z</time></trkpt>
<trkpt lat="30.020457" lon="92.892778">
<time>2016-10-08T04:37:55Z</time></trkpt>
<trkpt lat="30.020367" lon="92.892618">
<time>2016-10-08T04:37:56Z</time></trkpt>
<trkpt lat="30.020297" lon="92.892438">
<time>2016-10-08T04:37:57Z</time></trkpt>
<trkpt lat="30.020107" lon="92.891988">
<time>2016-10-08T04:37:58Z</time></trkpt>
<trkpt lat="30.019957" lon="92.891598">
<time>2016-10-08T04:37:59Z</time></trkpt>
<trkpt lat="30.019646" lon="92.890828">
<time>2016-10-08T04:38:00Z</time></trkpt>
<trkpt lat="30.019466" lon="92.890428">
<time>2016-10-08T04:38:01Z</time></trkpt>
<trkpt lat="30.019286" lon="92.890018">
<time>2016-10-08T04:38:02Z</time></trkpt>
<trkpt lat="30.019136" lon="92.889648">
<time>2016-10-08T04:38:03Z</time></trkpt>
<trkpt lat="30.018946" lon="92.889218">
<time>2016-10-08T04:38:04Z</time></trkpt>
<trkpt lat="30.018775" lon="92.888768">
<time>2016-10-08T04:38:05Z</time></trkpt>
<trkpt lat="30.018675" lon="92.888498">
<time>2016-10-08T04:38:06Z</time></trkpt>
<trkpt lat="30.018555" lon="92.888128">
<time>2016-10-08T04:38:07Z</time></trkpt>
<trkpt lat="30.018435" lon="92.887708">
<time>2016-10-08T04:38:08Z</time></trkpt>
<trkpt lat="30.018375" lon="92.887448">
<time>2016-10-08T04:38:09Z</time></trkpt>
<trkpt lat="30.018344" lon="92.887238">
<time>2016-10-08T04:38:10Z</time></trkpt>
<trkpt lat="30.018284" lon="92.886757">
<time>2016-10-08T04:38:11Z</time></trkpt>
<trkpt lat="30.018224" lon="92.886357">
<time>2016-10-08T04:38:12Z</time></trkpt>
<trkpt lat="30.018134" lon="92.885867">
<time>2016-10-08T04:38:13Z</time></trkpt>
<trkpt lat="30.018103" lon="92.885557">
<time>2016-10-08T04:38:14Z</time></trkpt>
<trkpt lat="30.018033" lon="92.885067">
<time>2016-10-08T04:38:15Z</time></trkpt>
<trkpt lat="30.017812" lon="92.883486">
<time>2016-10-08T04:38:16Z</time></trkpt>
<trkpt lat="30.017732" lon="92.882896">
<time>2016-10-08T04:38:17Z</time></trkpt>
<trkpt lat="30.017691" lon="92.882586">
<time>2016-10-08T04:38:18Z</time></trkpt>
<trkpt lat="30.01753" lon="92.881426">
<time>2016-10-08T04:38:19Z</time></trkpt>
<trkpt lat="30.01745" lon="92.880865">
<time>2016-10-08T04:38:20Z</time></trkpt>
<trkpt lat="30.01739" lon="92.880445">
<time>2016-10-08T04:38:21Z</time></trkpt>
<trkpt lat="30.017319" lon="92.880175">
<time>2016-10-08T04:38:22Z</time></trkpt>
<trkpt lat="30.017249" lon="92.879965">
<time>2016-10-08T04:38:23Z</time></trkpt>
<trkpt lat="30.017139" lon="92.879735">
<time>2016-10-08T04:38:24Z</time></trkpt>
<trkpt lat="30.017019" lon="92.879505">
<time>2016-10-08T04:38:25Z</time></trkpt>
<trkpt lat="30.016398" lon="92.878534">
<time>2016-10-08T04:38:26Z</time></trkpt>
<trkpt lat="30.015066" lon="92.876523">
<time>2016-10-08T04:38:27Z</time></trkpt>
<trkpt lat="30.014465" lon="92.875582">
<time>2016-10-08T04:38:28Z</time></trkpt>
<trkpt lat="30.014115" lon="92.875052">
<time>2016-10-08T04:38:29Z</time></trkpt>
<trkpt lat="30.013794" lon="92.874571">
<time>2016-10-08T04:38:30Z</time></trkpt>
<trkpt lat="30.013664" lon="92.874361">
<time>2016-10-08T04:38:31Z</time></trkpt>
<trkpt lat="30.013424" lon="92.874001">
<time>2016-10-08T04:38:32Z</time></trkpt>
<trkpt lat="30.013333" lon="92.873861">
<time>2016-10-08T04:38:33Z</time></trkpt>
<trkpt lat="30.013203" lon="92.873671">
<time>2016-10-08T04:38:34Z</time></trkpt>
<trkpt lat="30.013123" lon="92.873571">
<time>2016-10-08T04:38:35Z</time></trkpt>
<trkpt lat="30.013053" lon="92.873491">
<time>2016-10-08T04:38:36Z</time></trkpt>
<trkpt lat="30.012983" lon="92.873441">
<time>2016-10-08T04:38:37Z</time></trkpt>
<trkpt lat="30.012883" lon="92.873381">
<time>2016-10-08T04:38:38Z</time></trkpt>
<trkpt lat="30.012783" lon="92.873331">
<time>2016-10-08T04:38:39Z</time></trkpt>
<trkpt lat="30.012683" lon="92.873311">
<time>2016-10-08T04:38:40Z</time></trkpt>
<trkpt lat="30.012553" lon="92.873291">
<time>2016-10-08T04:38:41Z</time></trkpt>
<trkpt lat="30.012463" lon="92.873291">
<time>2016-10-08T04:38:42Z</time></trkpt>
<trkpt lat="30.012313" lon="92.873301">
<time>2016-10-08T04:38:43Z</time></trkpt>
<trkpt lat="30.011743" lon="92.873351">
<time>2016-10-08T04:38:44Z</time></trkpt>
<trkpt lat="30.011593" lon="92.873371">
<time>2016-10-08T04:38:45Z</time></trkpt>
<trkpt lat="30.011453" lon="92.873401">
<time>2016-10-08T04:38:46Z</time></trkpt>
<trkpt lat="30.011243" lon="92.873461">
<time>2016-10-08T04:38:47Z</time></trkpt>
<trkpt lat="30.011003" lon="92.873531">
<time>2016-10-08T04:38:48Z</time></trkpt>
<trkpt lat="30.010873" lon="92.873561">
<time>2016-10-08T04:38:49Z</time></trkpt>
<trkpt lat="30.010763" lon="92.873581">
<time>2016-10-08T04:38:50Z</time></trkpt>
<trkpt lat="30.010613" lon="92.873601">
<time>2016-10-08T04:38:51Z</time></trkpt>
<trkpt lat="30.010463" lon="92.873601">
<time>2016-10-08T04:38:52Z</time></trkpt>
<trkpt lat="30.010243" lon="92.873601">
<time>2016-10-08T04:38:53Z</time></trkpt>
<trkpt lat="30.010043" lon="92.873581">
<time>2016-10-08T04:38:54Z</time></trkpt>
<trkpt lat="30.009883" lon="92.873551">
<time>2016-10-08T04:38:55Z</time></trkpt>
<trkpt lat="30.009443" lon="92.873461">
<time>2016-10-08T04:38:56Z</time></trkpt>
<trkpt lat="30.009283" lon="92.873421">
<time>2016-10-08T04:38:57Z</time></trkpt>
<trkpt lat="30.009163" lon="92.873391">
<time>2016-10-08T04:38:58Z</time></trkpt>
<trkpt lat="30.009053" lon="92.873341">
<time>2016-10-08T04:38:59Z</time></trkpt>
<trkpt lat="30.008913" lon="92.873291">
<time>2016-10-08T04:39:00Z</time></trkpt>
<trkpt lat="30.008482" lon="92.87308">
<time>2016-10-08T04:39:01Z</time></trkpt>
<trkpt lat="30.008072" lon="92.87292">
<time>2016-10-08T04:39:02Z</time></trkpt>
<trkpt lat="30.007622" lon="92.87277">
<time>2016-10-08T04:39:03Z</time></trkpt>
<trkpt lat="30.007412" lon="92.87271">
<time>2016-10-08T04:39:04Z</time></trkpt>
<trkpt lat="30.007322" lon="92.87269">
<time>2016-10-08T04:39:05Z</time></trkpt>
<trkpt lat="30.007192" lon="92.87266">
<time>2016-10-08T04:39:06Z</time></trkpt>
<trkpt lat="30.007042" lon="92.87265">
<time>2016-10-08T04:39:07Z</time></trkpt>
<trkpt lat="30.006882" lon="92.87263">
<time>2016-10-08T04:39:08Z</time></trkpt>
<trkpt lat="30.006172" lon="92.87262">
<time>2016-10-08T04:39:09Z</time></trkpt>
<trkpt lat="30.005892" lon="92.87262">
<time>2016-10-08T04:39:10Z</time></trkpt>
<trkpt lat="30.005552" lon="92.87262">
<time>2016-10-08T04:39:11Z</time></trkpt>
<trkpt lat="30.005362" lon="92.87264">
<time>2016-10-08T04:39:12Z</time></trkpt>
<trkpt lat="30.005272" lon="92.87265">
<time>2016-10-08T04:39:13Z</time></trkpt>
<trkpt lat="30.005162" lon="92.87267">
<time>2016-10-08T04:39:14Z</time></trkpt>
<trkpt lat="30.004972" lon="92.87273">
<time>2016-10-08T04:39:15Z</time></trkpt>
<trkpt lat="30.004692" lon="92.87283">
<time>2016-10-08T04:39:16Z</time></trkpt>
<trkpt lat="30.004402" lon="92.87294">
<time>2016-10-08T04:39:17Z</time></trkpt>
<trkpt lat="30.004222" lon="92.87302">
<time>2016-10-08T04:39:18Z</time></trkpt>
<trkpt lat="30.004072" lon="92.873101">
<time>2016-10-08T04:39:19Z</time></trkpt>
<trkpt lat="30.003753" lon="92.873291">
<time>2016-10-08T04:39:20Z</time></trkpt>
<trkpt lat="30.003643" lon="92.873341">
<time>2016-10-08T04:39:21Z</time></trkpt>
<trkpt lat="30.003523" lon="92.873401">
<time>2016-10-08T04:39:22Z</time></trkpt>
<trkpt lat="30.003373" lon="92.873451">
<time>2016-10-08T04:39:23Z</time></trkpt>
<trkpt lat="30.003183" lon="92.873501">
<time>2016-10-08T04:39:24Z</time></trkpt>
<trkpt lat="30.002893" lon="92.873591">
<time>2016-10-08T04:39:25Z</time></trkpt>
<trkpt lat="30.002693" lon="92.873651">
<time>2016-10-08T04:39:26Z</time></trkpt>
<trkpt lat="30.002543" lon="92.873681">
<time>2016-10-08T04:39:27Z</time></trkpt>
<trkpt lat="30.002353" lon="92.873721">
<time>2016-10-08T04:39:28Z</time></trkpt>
<trkpt lat="30.002153" lon="92.873751">
<time>2016-10-08T04:39:29Z</time></trkpt>
<trkpt lat="30.001973" lon="92.873771">
<time>2016-10-08T04:39:30Z</time></trkpt>
<trkpt lat="30.001833" lon="92.873771">
<time>2016-10-08T04:39:31Z</time></trkpt>
<trkpt lat="30.001683" lon="92.873761">
<time>2016-10-08T04:39:32Z</time></trkpt>
<trkpt lat="30.001513" lon="92.873731">
<time>2016-10-08T04:39:33Z</time></trkpt>
<trkpt lat="30.001303" lon="92.873691">
<time>2016-10-08T04:39:34Z</time></trkpt>
<trkpt lat="30.001043" lon="92.873631">
<time>2016-10-08T04:39:35Z</time></trkpt>
<trkpt lat="30.000753" lon="92.873551">
<time>2016-10-08T04:39:36Z</time></trkpt>
<trkpt lat="30.000463" lon="92.873501">
<time>2016-10-08T04:39:37Z</time></trkpt>
<trkpt lat="30.000313" lon="92.873471">
<time>2016-10-08T04:39:38Z</time></trkpt>
<trkpt lat="30.000043" lon="92.873441">
<time>2016-10-08T04:39:39Z</time></trkpt>
<trkpt lat="29.999943" lon="92.873421">
<time>2016-10-08T04:39:40Z</time></trkpt>
<trkpt lat="29.999833" lon="92.873411">
<time>2016-10-08T04:39:41Z</time></trkpt>
<trkpt lat="29.999793" lon="92.873411">
<time>2016-10-08T04:39:42Z</time></trkpt>
<trkpt lat="29.999723" lon="92.873411">
<time>2016-10-08T04:39:43Z</time></trkpt>
<trkpt lat="29.999623" lon="92.873411">
<time>2016-10-08T04:39:44Z</time></trkpt>
<trkpt lat="29.999533" lon="92.873421">
<time>2016-10-08T04:39:45Z</time></trkpt>
<trkpt lat="29.999433" lon="92.873431">
<time>2016-10-08T04:39:46Z</time></trkpt>
<trkpt lat="29.999313" lon="92.873451">
<time>2016-10-08T04:39:47Z</time></trkpt>
<trkpt lat="29.999123" lon="92.873491">
<time>2016-10-08T04:39:48Z</time></trkpt>
<trkpt lat="29.998903" lon="92.873541">
<time>2016-10-08T04:39:49Z</time></trkpt>
<trkpt lat="29.998773" lon="92.873561">
<time>2016-10-08T04:39:50Z</time></trkpt>
<trkpt lat="29.998693" lon="92.873581">
<time>2016-10-08T04:39:51Z</time></trkpt>
<trkpt lat="29.998553" lon="92.873591">
<time>2016-10-08T04:39:52Z</time></trkpt>
<trkpt lat="29.998453" lon="92.873591">
<time>2016-10-08T04:39:53Z</time></trkpt>
<trkpt lat="29.998353" lon="92.873581">
<time>2016-10-08T04:39:54Z</time></trkpt>
<trkpt lat="29.998203" lon="92.873551">
<time>2016-10-08T04:39:55Z</time></trkpt>
<trkpt lat="29.997973" lon="92.873491">
<time>2016-10-08T04:39:56Z</time></trkpt>
<trkpt lat="29.997873" lon="92.873461">
<time>2016-10-08T04:39:57Z</time></trkpt>
<trkpt lat="29.997743" lon="92.873431">
<time>2016-10-08T04:39:58Z</time></trkpt>
<trkpt lat="29.997633" lon="92.873391">
<time>2016-10-08T04:39:59Z</time></trkpt>
<trkpt lat="29.997483" lon="92.873321">
<time>2016-10-08T04:40:00Z</time></trkpt>
<trkpt lat="29.997272" lon="92.873241">
<time>2016-10-08T04:40:01Z</time></trkpt>
<trkpt lat="29.997012" lon="92.873151">
<time>2016-10-08T04:40:02Z</time></trkpt>
<trkpt lat="29.996782" lon="92.873091">
<time>2016-10-08T04:40:03Z</time></trkpt>
<trkpt lat="29.996532" lon="92.873031">
<time>2016-10-08T04:40:04Z</time></trkpt>
<trkpt lat="29.996282" lon="92.872981">
<time>2016-10-08T04:40:05Z</time></trkpt>
<trkpt lat="29.996022" lon="92.872931">
<time>2016-10-08T04:40:06Z</time></trkpt>
<trkpt lat="29.995782" lon="92.87288">
<time>2016-10-08T04:40:07Z</time></trkpt>
<trkpt lat="29.995522" lon="92.87283">
<time>2016-10-08T04:40:08Z</time></trkpt>
<trkpt lat="29.995452" lon="92.87282">
<time>2016-10-08T04:40:09Z</time></trkpt>
<trkpt lat="29.995352" lon="92.87281">
<time>2016-10-08T04:40:10Z</time></trkpt>
<trkpt lat="29.995232" lon="92.87281">
<time>2016-10-08T04:40:11Z</time></trkpt>
<trkpt lat="29.995082" lon="92.87282">
<time>2016-10-08T04:40:12Z</time></trkpt>
<trkpt lat="29.994952" lon="92.87284">
<time>2016-10-08T04:40:13Z</time></trkpt>
<trkpt lat="29.994682" lon="92.87289">
<time>2016-10-08T04:40:14Z</time></trkpt>
<trkpt lat="29.994412" lon="92.872961">
<time>2016-10-08T04:40:15Z</time></trkpt>
<trkpt lat="29.994142" lon="92.873021">
<time>2016-10-08T04:40:16Z</time></trkpt>
<trkpt lat="29.993872" lon="92.873081">
<time>2016-10-08T04:40:17Z</time></trkpt>
<trkpt lat="29.993602" lon="92.873141">
<time>2016-10-08T04:40:18Z</time></trkpt>
<trkpt lat="29.993342" lon="92.873201">
<time>2016-10-08T04:40:19Z</time></trkpt>
<trkpt lat="29.993092" lon="92.873261">
<time>2016-10-08T04:40:20Z</time></trkpt>
<trkpt lat="29.992833" lon="92.873321">
<time>2016-10-08T04:40:21Z</time></trkpt>
<trkpt lat="29.992593" lon="92.873381">
<time>2016-10-08T04:40:22Z</time></trkpt>
<trkpt lat="29.992433" lon="92.873411">
<time>2016-10-08T04:40:23Z</time></trkpt>
<trkpt lat="29.992223" lon="92.873451">
<time>2016-10-08T04:40:24Z</time></trkpt>
<trkpt lat="29.992093" lon="92.873461">
<time>2016-10-08T04:40:25Z</time></trkpt>
<trkpt lat="29.991873" lon="92.873471">
<time>2016-10-08T04:40:26Z</time></trkpt>
<trkpt lat="29.991583" lon="92.873461">
<time>2016-10-08T04:40:27Z</time></trkpt>
<trkpt lat="29.991363" lon="92.873451">
<time>2016-10-08T04:40:28Z</time></trkpt>
<trkpt lat="29.991213" lon="92.873431">
<time>2016-10-08T04:40:29Z</time></trkpt>
<trkpt lat="29.990903" lon="92.873411">
<time>2016-10-08T04:40:30Z</time></trkpt>
<trkpt lat="29.990753" lon="92.873401">
<time>2016-10-08T04:40:31Z</time></trkpt>
<trkpt lat="29.990603" lon="92.873381">
<time>2016-10-08T04:40:32Z</time></trkpt>
<trkpt lat="29.990493" lon="92.873351">
<time>2016-10-08T04:40:33Z</time></trkpt>
<trkpt lat="29.990362" lon="92.873301">
<time>2016-10-08T04:40:34Z</time></trkpt>
<trkpt lat="29.990242" lon="92.873241">
<time>2016-10-08T04:40:35Z</time></trkpt>
<trkpt lat="29.990112" lon="92.873171">
<time>2016-10-08T04:40:36Z</time></trkpt>
<trkpt lat="29.990052" lon="92.873121">
<time>2016-10-08T04:40:37Z</time></trkpt>
<trkpt lat="29.989972" lon="92.873051">
<time>2016-10-08T04:40:38Z</time></trkpt>
<trkpt lat="29.989842" lon="92.872921">
<time>2016-10-08T04:40:39Z</time></trkpt>
<trkpt lat="29.989632" lon="92.87273">
<time>2016-10-08T04:40:40Z</time></trkpt>
<trkpt lat="29.989372" lon="92.87248">
<time>2016-10-08T04:40:41Z</time></trkpt>
<trkpt lat="29.989111" lon="92.87226">
<time>2016-10-08T04:40:42Z</time></trkpt>
<trkpt lat="29.988911" lon="92.87211">
<time>2016-10-08T04:40:43Z</time></trkpt>
<trkpt lat="29.988721" lon="92.87197">
<time>2016-10-08T04:40:44Z</time></trkpt>
<trkpt lat="29.988601" lon="92.87189">
<time>2016-10-08T04:40:45Z</time></trkpt>
<trkpt lat="29.988481" lon="92.87181">
<time>2016-10-08T04:40:46Z</time></trkpt>
<trkpt lat="29.988361" lon="92.87174">
<time>2016-10-08T04:40:47Z</time></trkpt>
<trkpt lat="29.988261" lon="92.87169">
<time>2016-10-08T04:40:48Z</time></trkpt>
<trkpt lat="29.988171" lon="92.87165">
<time>2016-10-08T04:40:49Z</time></trkpt>
<trkpt lat="29.988051" lon="92.8716">
<time>2016-10-08T04:40:50Z</time></trkpt>
<trkpt lat="29.98771" lon="92.871489">
<time>2016-10-08T04:40:51Z</time></trkpt>
<trkpt lat="29.98594" lon="92.870939">
<time>2016-10-08T04:40:52Z</time></trkpt>
<trkpt lat="29.985189" lon="92.870709">
<time>2016-10-08T04:40:53Z</time></trkpt>
<trkpt lat="29.984919" lon="92.870629">
<time>2016-10-08T04:40:54Z</time></trkpt>
<trkpt lat="29.984659" lon="92.870549">
<time>2016-10-08T04:40:55Z</time></trkpt>
<trkpt lat="29.984499" lon="92.870509">
<time>2016-10-08T04:40:56Z</time></trkpt>
<trkpt lat="29.984189" lon="92.870459">
<time>2016-10-08T04:40:57Z</time></trkpt>
<trkpt lat="29.984029" lon="92.870439">
<time>2016-10-08T04:40:58Z</time></trkpt>
<trkpt lat="29.983619" lon="92.870399">
<time>2016-10-08T04:40:59Z</time></trkpt>
<trkpt lat="29.983319" lon="92.870369">
<time>2016-10-08T04:41:00Z</time></trkpt>
<trkpt lat="29.982959" lon="92.870328">
<time>2016-10-08T04:41:01Z</time></trkpt>
<trkpt lat="29.982759" lon="92.870328">
<time>2016-10-08T04:41:02Z</time></trkpt>
<trkpt lat="29.982499" lon="92.870349">
<time>2016-10-08T04:41:03Z</time></trkpt>
<trkpt lat="29.982239" lon="92.870379">
<time>2016-10-08T04:41:04Z</time></trkpt>
<trkpt lat="29.981979" lon="92.870409">
<time>2016-10-08T04:41:05Z</time></trkpt>
<trkpt lat="29.981719" lon="92.870439">
<time>2016-10-08T04:41:06Z</time></trkpt>
<trkpt lat="29.981459" lon="92.870479">
<time>2016-10-08T04:41:07Z</time></trkpt>
<trkpt lat="29.981199" lon="92.870519">
<time>2016-10-08T04:41:08Z</time></trkpt>
<trkpt lat="29.980939" lon="92.870549">
<time>2016-10-08T04:41:09Z</time></trkpt>
<trkpt lat="29.980679" lon="92.870579">
<time>2016-10-08T04:41:10Z</time></trkpt>
<trkpt lat="29.980409" lon="92.870609">
<time>2016-10-08T04:41:11Z</time></trkpt>
<trkpt lat="29.980149" lon="92.870639">
<time>2016-10-08T04:41:12Z</time></trkpt>
<trkpt lat="29.979869" lon="92.870679">
<time>2016-10-08T04:41:13Z</time></trkpt>
<trkpt lat="29.979749" lon="92.870689">
<time>2016-10-08T04:41:14Z</time></trkpt>
<trkpt lat="29.979669" lon="92.870689">
<time>2016-10-08T04:41:15Z</time></trkpt>
<trkpt lat="29.979589" lon="92.870689">
<time>2016-10-08T04:41:16Z</time></trkpt>
<trkpt lat="29.979519" lon="92.870679">
<time>2016-10-08T04:41:17Z</time></trkpt>
<trkpt lat="29.979449" lon="92.870669">
<time>2016-10-08T04:41:18Z</time></trkpt>
<trkpt lat="29.979379" lon="92.870649">
<time>2016-10-08T04:41:19Z</time></trkpt>
<trkpt lat="29.979299" lon="92.870619">
<time>2016-10-08T04:41:20Z</time></trkpt>
<trkpt lat="29.979209" lon="92.870589">
<time>2016-10-08T04:41:21Z</time></trkpt>
<trkpt lat="29.979049" lon="92.870519">
<time>2016-10-08T04:41:22Z</time></trkpt>
<trkpt lat="29.978799" lon="92.870399">
<time>2016-10-08T04:41:23Z</time></trkpt>
<trkpt lat="29.978559" lon="92.870289">
<time>2016-10-08T04:41:24Z</time></trkpt>
<trkpt lat="29.978319" lon="92.870178">
<time>2016-10-08T04:41:25Z</time></trkpt>
<trkpt lat="29.978079" lon="92.870068">
<time>2016-10-08T04:41:26Z</time></trkpt>
<trkpt lat="29.977839" lon="92.869958">
<time>2016-10-08T04:41:27Z</time></trkpt>
<trkpt lat="29.977598" lon="92.869858">
<time>2016-10-08T04:41:28Z</time></trkpt>
<trkpt lat="29.977308" lon="92.869748">
<time>2016-10-08T04:41:29Z</time></trkpt>
<trkpt lat="29.977078" lon="92.869688">
<time>2016-10-08T04:41:30Z</time></trkpt>
<trkpt lat="29.976848" lon="92.869628">
<time>2016-10-08T04:41:31Z</time></trkpt>
<trkpt lat="29.976558" lon="92.869568">
<time>2016-10-08T04:41:32Z</time></trkpt>
<trkpt lat="29.976228" lon="92.869488">
<time>2016-10-08T04:41:33Z</time></trkpt>
<trkpt lat="29.975928" lon="92.869418">
<time>2016-10-08T04:41:34Z</time></trkpt>
<trkpt lat="29.975838" lon="92.869388">
<time>2016-10-08T04:41:35Z</time></trkpt>
<trkpt lat="29.975658" lon="92.869328">
<time>2016-10-08T04:41:36Z</time></trkpt>
<trkpt lat="29.975388" lon="92.869198">
<time>2016-10-08T04:41:37Z</time></trkpt>
<trkpt lat="29.974877" lon="92.868937">
<time>2016-10-08T04:41:38Z</time></trkpt>
<trkpt lat="29.974037" lon="92.868507">
<time>2016-10-08T04:41:39Z</time></trkpt>
<trkpt lat="29.972786" lon="92.867876">
<time>2016-10-08T04:41:40Z</time></trkpt>
<trkpt lat="29.972576" lon="92.867766">
<time>2016-10-08T04:41:41Z</time></trkpt>
<trkpt lat="29.972336" lon="92.867626">
<time>2016-10-08T04:41:42Z</time></trkpt>
<trkpt lat="29.972206" lon="92.867536">
<time>2016-10-08T04:41:43Z</time></trkpt>
<trkpt lat="29.971945" lon="92.867326">
<time>2016-10-08T04:41:44Z</time></trkpt>
<trkpt lat="29.971735" lon="92.867156">
<time>2016-10-08T04:41:45Z</time></trkpt>
<trkpt lat="29.971555" lon="92.866995">
<time>2016-10-08T04:41:46Z</time></trkpt>
<trkpt lat="29.971445" lon="92.866895">
<time>2016-10-08T04:41:47Z</time></trkpt>
<trkpt lat="29.971315" lon="92.866765">
<time>2016-10-08T04:41:48Z</time></trkpt>
<trkpt lat="29.971144" lon="92.866605">
<time>2016-10-08T04:41:49Z</time></trkpt>
<trkpt lat="29.971004" lon="92.866505">
<time>2016-10-08T04:41:50Z</time></trkpt>
<trkpt lat="29.970884" lon="92.866425">
<time>2016-10-08T04:41:51Z</time></trkpt>
<trkpt lat="29.970654" lon="92.866305">
<time>2016-10-08T04:41:52Z</time></trkpt>
<trkpt lat="29.970584" lon="92.866265">
<time>2016-10-08T04:41:53Z</time></trkpt>
<trkpt lat="29.970514" lon="92.866225">
<time>2016-10-08T04:41:54Z</time></trkpt>
<trkpt lat="29.970394" lon="92.866135">
<time>2016-10-08T04:41:55Z</time></trkpt>
<trkpt lat="29.970234" lon="92.865994">
<time>2016-10-08T04:41:56Z</time></trkpt>
<trkpt lat="29.970043" lon="92.865814">
<time>2016-10-08T04:41:57Z</time></trkpt>
<trkpt lat="29.969212" lon="92.865023">
<time>2016-10-08T04:41:58Z</time></trkpt>
<trkpt lat="29.968922" lon="92.864773">
<time>2016-10-08T04:41:59Z</time></trkpt>
<trkpt lat="29.968501" lon="92.864433">
<time>2016-10-08T04:42:00Z</time></trkpt>
<trkpt lat="29.96757" lon="92.863692">
<time>2016-10-08T04:42:01Z</time></trkpt>
<trkpt lat="29.96718" lon="92.863382">
<time>2016-10-08T04:42:02Z</time></trkpt>
<trkpt lat="29.96707" lon="92.863301">
<time>2016-10-08T04:42:03Z</time></trkpt>
<trkpt lat="29.96693" lon="92.863211">
<time>2016-10-08T04:42:04Z</time></trkpt>
<trkpt lat="29.96675" lon="92.863111">
<time>2016-10-08T04:42:05Z</time></trkpt>
<trkpt lat="29.966509" lon="92.863011">
<time>2016-10-08T04:42:06Z</time></trkpt>
<trkpt lat="29.966049" lon="92.862831">
<time>2016-10-08T04:42:07Z</time></trkpt>
<trkpt lat="29.965349" lon="92.862551">
<time>2016-10-08T04:42:08Z</time></trkpt>
<trkpt lat="29.964368" lon="92.86217">
<time>2016-10-08T04:42:09Z</time></trkpt>
<trkpt lat="29.963348" lon="92.86177">
<time>2016-10-08T04:42:10Z</time></trkpt>
<trkpt lat="29.961106" lon="92.860899">
<time>2016-10-08T04:42:11Z</time></trkpt>
<trkpt lat="29.960746" lon="92.860749">
<time>2016-10-08T04:42:12Z</time></trkpt>
<trkpt lat="29.960486" lon="92.860648">
<time>2016-10-08T04:42:13Z</time></trkpt>
<trkpt lat="29.960226" lon="92.860518">
<time>2016-10-08T04:42:14Z</time></trkpt>
<trkpt lat="29.960156" lon="92.860468">
<time>2016-10-08T04:42:15Z</time></trkpt>
<trkpt lat="29.960026" lon="92.860388">
<time>2016-10-08T04:42:16Z</time></trkpt>
<trkpt lat="29.959856" lon="92.860268">
<time>2016-10-08T04:42:17Z</time></trkpt>
<trkpt lat="29.959525" lon="92.860028">
<time>2016-10-08T04:42:18Z</time></trkpt>
<trkpt lat="29.958935" lon="92.859587">
<time>2016-10-08T04:42:19Z</time></trkpt>
<trkpt lat="29.958434" lon="92.859227">
<time>2016-10-08T04:42:20Z</time></trkpt>
<trkpt lat="29.957963" lon="92.858886">
<time>2016-10-08T04:42:21Z</time></trkpt>
<trkpt lat="29.957613" lon="92.858626">
<time>2016-10-08T04:42:22Z</time></trkpt>
<trkpt lat="29.957413" lon="92.858486">
<time>2016-10-08T04:42:23Z</time></trkpt>
<trkpt lat="29.957323" lon="92.858416">
<time>2016-10-08T04:42:24Z</time></trkpt>
<trkpt lat="29.957163" lon="92.858336">
<time>2016-10-08T04:42:25Z</time></trkpt>
<trkpt lat="29.957073" lon="92.858286">
<time>2016-10-08T04:42:26Z</time></trkpt>
<trkpt lat="29.956782" lon="92.858195">
<time>2016-10-08T04:42:27Z</time></trkpt>
<trkpt lat="29.956072" lon="92.857955">
<time>2016-10-08T04:42:28Z</time></trkpt>
<trkpt lat="29.955252" lon="92.857685">
<time>2016-10-08T04:42:29Z</time></trkpt>
<trkpt lat="29.955142" lon="92.857645">
<time>2016-10-08T04:42:30Z</time></trkpt>
<trkpt lat="29.955032" lon="92.857585">
<time>2016-10-08T04:42:31Z</time></trkpt>
<trkpt lat="29.955011" lon="92.857565">
<time>2016-10-08T04:42:32Z</time></trkpt>
<trkpt lat="29.954951" lon="92.857525">
<time>2016-10-08T04:42:33Z</time></trkpt>
<trkpt lat="29.954861" lon="92.857444">
<time>2016-10-08T04:42:34Z</time></trkpt>
<trkpt lat="29.954521" lon="92.857104">
<time>2016-10-08T04:42:35Z</time></trkpt>
<trkpt lat="29.95421" lon="92.856794">
<time>2016-10-08T04:42:36Z</time></trkpt>
<trkpt lat="29.95405" lon="92.856643">
<time>2016-10-08T04:42:37Z</time></trkpt>
<trkpt lat="29.95394" lon="92.856533">
<time>2016-10-08T04:42:38Z</time></trkpt>
<trkpt lat="29.9539" lon="92.856483">
<time>2016-10-08T04:42:39Z</time></trkpt>
<trkpt lat="29.95386" lon="92.856423">
<time>2016-10-08T04:42:40Z</time></trkpt>
<trkpt lat="29.95384" lon="92.856383">
<time>2016-10-08T04:42:41Z</time></trkpt>
<trkpt lat="29.9538" lon="92.856313">
<time>2016-10-08T04:42:42Z</time></trkpt>
<trkpt lat="29.953729" lon="92.856143">
<time>2016-10-08T04:42:43Z</time></trkpt>
<trkpt lat="29.953619" lon="92.855802">
<time>2016-10-08T04:42:44Z</time></trkpt>
<trkpt lat="29.953408" lon="92.855181">
<time>2016-10-08T04:42:45Z</time></trkpt>
<trkpt lat="29.953357" lon="92.855011">
<time>2016-10-08T04:42:46Z</time></trkpt>
<trkpt lat="29.953337" lon="92.854921">
<time>2016-10-08T04:42:47Z</time></trkpt>
<trkpt lat="29.953327" lon="92.854861">
<time>2016-10-08T04:42:48Z</time></trkpt>
<trkpt lat="29.953317" lon="92.854811">
<time>2016-10-08T04:42:49Z</time></trkpt>
<trkpt lat="29.953307" lon="92.854761">
<time>2016-10-08T04:42:50Z</time></trkpt>
<trkpt lat="29.953307" lon="92.854681">
<time>2016-10-08T04:42:51Z</time></trkpt>
<trkpt lat="29.953307" lon="92.85452">
<time>2016-10-08T04:42:52Z</time></trkpt>
<trkpt lat="29.953336" lon="92.85397">
<time>2016-10-08T04:42:53Z</time></trkpt>
<trkpt lat="29.953394" lon="92.852808">
<time>2016-10-08T04:42:54Z</time></trkpt>
<trkpt lat="29.953404" lon="92.852548">
<time>2016-10-08T04:42:55Z</time></trkpt>
<trkpt lat="29.953413" lon="92.852307">
<time>2016-10-08T04:42:56Z</time></trkpt>
<trkpt lat="29.953413" lon="92.852147">
<time>2016-10-08T04:42:57Z</time></trkpt>
<trkpt lat="29.953393" lon="92.851957">
<time>2016-10-08T04:42:58Z</time></trkpt>
<trkpt lat="29.953372" lon="92.851787">
<time>2016-10-08T04:42:59Z</time></trkpt>
<trkpt lat="29.953332" lon="92.851526">
<time>2016-10-08T04:43:00Z</time></trkpt>
<trkpt lat="29.953271" lon="92.851296">
<time>2016-10-08T04:43:01Z</time></trkpt>
<trkpt lat="29.95304" lon="92.850535">
<time>2016-10-08T04:43:02Z</time></trkpt>
<trkpt lat="29.952487" lon="92.848782">
<time>2016-10-08T04:43:03Z</time></trkpt>
<trkpt lat="29.95128" lon="92.844886">
<time>2016-10-08T04:43:04Z</time></trkpt>
<trkpt lat="29.95112" lon="92.844355">
<time>2016-10-08T04:43:05Z</time></trkpt>
<trkpt lat="29.950959" lon="92.843844">
<time>2016-10-08T04:43:06Z</time></trkpt>
<trkpt lat="29.950878" lon="92.843634">
<time>2016-10-08T04:43:07Z</time></trkpt>
<trkpt lat="29.950848" lon="92.843534">
<time>2016-10-08T04:43:08Z</time></trkpt>
<trkpt lat="29.950788" lon="92.843414">
<time>2016-10-08T04:43:09Z</time></trkpt>
<trkpt lat="29.950718" lon="92.843293">
<time>2016-10-08T04:43:10Z</time></trkpt>
<trkpt lat="29.950647" lon="92.843183">
<time>2016-10-08T04:43:11Z</time></trkpt>
<trkpt lat="29.950577" lon="92.843093">
<time>2016-10-08T04:43:12Z</time></trkpt>
<trkpt lat="29.950457" lon="92.842953">
<time>2016-10-08T04:43:13Z</time></trkpt>
<trkpt lat="29.950387" lon="92.842883">
<time>2016-10-08T04:43:14Z</time></trkpt>
<trkpt lat="29.950247" lon="92.842753">
<time>2016-10-08T04:43:15Z</time></trkpt>
<trkpt lat="29.950016" lon="92.842582">
<time>2016-10-08T04:43:16Z</time></trkpt>
<trkpt lat="29.949746" lon="92.842392">
<time>2016-10-08T04:43:17Z</time></trkpt>
<trkpt lat="29.949556" lon="92.842252">
<time>2016-10-08T04:43:18Z</time></trkpt>
<trkpt lat="29.949466" lon="92.842172">
<time>2016-10-08T04:43:19Z</time></trkpt>
<trkpt lat="29.949396" lon="92.842092">
<time>2016-10-08T04:43:20Z</time></trkpt>
<trkpt lat="29.949345" lon="92.842031">
<time>2016-10-08T04:43:21Z</time></trkpt>
<trkpt lat="29.949305" lon="92.841961">
<time>2016-10-08T04:43:22Z</time></trkpt>
<trkpt lat="29.949235" lon="92.841831">
<time>2016-10-08T04:43:23Z</time></trkpt>
<trkpt lat="29.949165" lon="92.841661">
<time>2016-10-08T04:43:24Z</time></trkpt>
<trkpt lat="29.949064" lon="92.84142">
<time>2016-10-08T04:43:25Z</time></trkpt>
<trkpt lat="29.949024" lon="92.84131">
<time>2016-10-08T04:43:26Z</time></trkpt>
<trkpt lat="29.948984" lon="92.8412">
<time>2016-10-08T04:43:27Z</time></trkpt>
<trkpt lat="29.948913" lon="92.84096">
<time>2016-10-08T04:43:28Z</time></trkpt>
<trkpt lat="29.948803" lon="92.840549">
<time>2016-10-08T04:43:29Z</time></trkpt>
<trkpt lat="29.948762" lon="92.840379">
<time>2016-10-08T04:43:30Z</time></trkpt>
<trkpt lat="29.948702" lon="92.840068">
<time>2016-10-08T04:43:31Z</time></trkpt>
<trkpt lat="29.948641" lon="92.839638">
<time>2016-10-08T04:43:32Z</time></trkpt>
<trkpt lat="29.94859" lon="92.839317">
<time>2016-10-08T04:43:33Z</time></trkpt>
<trkpt lat="29.9485" lon="92.838796">
<time>2016-10-08T04:43:34Z</time></trkpt>
<trkpt lat="29.948479" lon="92.838666">
<time>2016-10-08T04:43:35Z</time></trkpt>
<trkpt lat="29.948449" lon="92.838546">
<time>2016-10-08T04:43:36Z</time></trkpt>
<trkpt lat="29.948419" lon="92.838456">
<time>2016-10-08T04:43:37Z</time></trkpt>
<trkpt lat="29.948389" lon="92.838365">
<time>2016-10-08T04:43:38Z</time></trkpt>
<trkpt lat="29.948328" lon="92.838215">
<time>2016-10-08T04:43:39Z</time></trkpt>
<trkpt lat="29.948258" lon="92.838075">
<time>2016-10-08T04:43:40Z</time></trkpt>
<trkpt lat="29.947726" lon="92.836993">
<time>2016-10-08T04:43:41Z</time></trkpt>
<trkpt lat="29.947616" lon="92.836773">
<time>2016-10-08T04:43:42Z</time></trkpt>
<trkpt lat="29.947465" lon="92.836442">
<time>2016-10-08T04:43:43Z</time></trkpt>
<trkpt lat="29.947194" lon="92.835831">
<time>2016-10-08T04:43:44Z</time></trkpt>
<trkpt lat="29.946973" lon="92.83532">
<time>2016-10-08T04:43:45Z</time></trkpt>
<trkpt lat="29.946792" lon="92.83492">
<time>2016-10-08T04:43:46Z</time></trkpt>
<trkpt lat="29.946692" lon="92.834599">
<time>2016-10-08T04:43:47Z</time></trkpt>
<trkpt lat="29.946591" lon="92.834158">
<time>2016-10-08T04:43:48Z</time></trkpt>
<trkpt lat="29.9465" lon="92.833717">
<time>2016-10-08T04:43:49Z</time></trkpt>
<trkpt lat="29.946409" lon="92.833237">
<time>2016-10-08T04:43:50Z</time></trkpt>
<trkpt lat="29.946308" lon="92.832776">
<time>2016-10-08T04:43:51Z</time></trkpt>
<trkpt lat="29.946278" lon="92.832596">
<time>2016-10-08T04:43:52Z</time></trkpt>
<trkpt lat="29.946258" lon="92.832435">
<time>2016-10-08T04:43:53Z</time></trkpt>
<trkpt lat="29.946237" lon="92.832285">
<time>2016-10-08T04:43:54Z</time></trkpt>
<trkpt lat="29.946247" lon="92.832095">
<time>2016-10-08T04:43:55Z</time></trkpt>
<trkpt lat="29.946247" lon="92.831944">
<time>2016-10-08T04:43:56Z</time></trkpt>
<trkpt lat="29.946266" lon="92.831744">
<time>2016-10-08T04:43:57Z</time></trkpt>
<trkpt lat="29.946296" lon="92.831594">
<time>2016-10-08T04:43:58Z</time></trkpt>
<trkpt lat="29.946336" lon="92.831444">
<time>2016-10-08T04:43:59Z</time></trkpt>
<trkpt lat="29.946386" lon="92.831303">
<time>2016-10-08T04:44:00Z</time></trkpt>
<trkpt lat="29.946465" lon="92.831123">
<time>2016-10-08T04:44:01Z</time></trkpt>
<trkpt lat="29.946665" lon="92.830742">
<time>2016-10-08T04:44:02Z</time></trkpt>
<trkpt lat="29.946914" lon="92.830241">
<time>2016-10-08T04:44:03Z</time></trkpt>
<trkpt lat="29.947133" lon="92.829811">
<time>2016-10-08T04:44:04Z</time></trkpt>
<trkpt lat="29.947213" lon="92.82965">
<time>2016-10-08T04:44:05Z</time></trkpt>
<trkpt lat="29.947312" lon="92.82941">
<time>2016-10-08T04:44:06Z</time></trkpt>
<trkpt lat="29.947392" lon="92.82922">
<time>2016-10-08T04:44:07Z</time></trkpt>
<trkpt lat="29.947491" lon="92.828899">
<time>2016-10-08T04:44:08Z</time></trkpt>
<trkpt lat="29.947739" lon="92.827927">
<time>2016-10-08T04:44:09Z</time></trkpt>
<trkpt lat="29.948077" lon="92.826625">
<time>2016-10-08T04:44:10Z</time></trkpt>
<trkpt lat="29.948315" lon="92.825673">
<time>2016-10-08T04:44:11Z</time></trkpt>
<trkpt lat="29.948375" lon="92.825413">
<time>2016-10-08T04:44:12Z</time></trkpt>
<trkpt lat="29.948394" lon="92.825293">
<time>2016-10-08T04:44:13Z</time></trkpt>
<trkpt lat="29.948404" lon="92.825183">
<time>2016-10-08T04:44:14Z</time></trkpt>
<trkpt lat="29.948404" lon="92.825002">
<time>2016-10-08T04:44:15Z</time></trkpt>
<trkpt lat="29.948394" lon="92.824872">
<time>2016-10-08T04:44:16Z</time></trkpt>
<trkpt lat="29.948393" lon="92.824772">
<time>2016-10-08T04:44:17Z</time></trkpt>
<trkpt lat="29.948383" lon="92.824682">
<time>2016-10-08T04:44:18Z</time></trkpt>
<trkpt lat="29.948363" lon="92.824582">
<time>2016-10-08T04:44:19Z</time></trkpt>
<trkpt lat="29.948313" lon="92.824351">
<time>2016-10-08T04:44:20Z</time></trkpt>
<trkpt lat="29.948232" lon="92.824101">
<time>2016-10-08T04:44:21Z</time></trkpt>
<trkpt lat="29.948091" lon="92.8237">
<time>2016-10-08T04:44:22Z</time></trkpt>
<trkpt lat="29.94791" lon="92.823179">
<time>2016-10-08T04:44:23Z</time></trkpt>
<trkpt lat="29.947508" lon="92.822037">
<time>2016-10-08T04:44:24Z</time></trkpt>
<trkpt lat="29.947347" lon="92.821576">
<time>2016-10-08T04:44:25Z</time></trkpt>
<trkpt lat="29.947066" lon="92.820785">
<time>2016-10-08T04:44:26Z</time></trkpt>
<trkpt lat="29.947036" lon="92.820705">
<time>2016-10-08T04:44:27Z</time></trkpt>
<trkpt lat="29.947006" lon="92.820625">
<time>2016-10-08T04:44:28Z</time></trkpt>
<trkpt lat="29.946955" lon="92.820545">
<time>2016-10-08T04:44:29Z</time></trkpt>
<trkpt lat="29.946905" lon="92.820464">
<time>2016-10-08T04:44:30Z</time></trkpt>
<trkpt lat="29.946795" lon="92.820324">
<time>2016-10-08T04:44:31Z</time></trkpt>
<trkpt lat="29.946735" lon="92.820264">
<time>2016-10-08T04:44:32Z</time></trkpt>
<trkpt lat="29.946595" lon="92.820144">
<time>2016-10-08T04:44:33Z</time></trkpt>
<trkpt lat="29.946394" lon="92.819974">
<time>2016-10-08T04:44:34Z</time></trkpt>
<trkpt lat="29.946224" lon="92.819833">
<time>2016-10-08T04:44:35Z</time></trkpt>
<trkpt lat="29.946064" lon="92.819703">
<time>2016-10-08T04:44:36Z</time></trkpt>
<trkpt lat="29.945914" lon="92.819593">
<time>2016-10-08T04:44:37Z</time></trkpt>
<trkpt lat="29.945773" lon="92.819503">
<time>2016-10-08T04:44:38Z</time></trkpt>
<trkpt lat="29.945553" lon="92.819393">
<time>2016-10-08T04:44:39Z</time></trkpt>
<trkpt lat="29.945483" lon="92.819342">
<time>2016-10-08T04:44:40Z</time></trkpt>
<trkpt lat="29.945363" lon="92.819282">
<time>2016-10-08T04:44:41Z</time></trkpt>
<trkpt lat="29.945243" lon="92.819192">
<time>2016-10-08T04:44:42Z</time></trkpt>
<trkpt lat="29.945183" lon="92.819142">
<time>2016-10-08T04:44:43Z</time></trkpt>
<trkpt lat="29.945113" lon="92.819062">
<time>2016-10-08T04:44:44Z</time></trkpt>
<trkpt lat="29.945073" lon="92.819012">
<time>2016-10-08T04:44:45Z</time></trkpt>
<trkpt lat="29.945012" lon="92.818932">
<time>2016-10-08T04:44:46Z</time></trkpt>
<trkpt lat="29.944862" lon="92.818681">
<time>2016-10-08T04:44:47Z</time></trkpt>
<trkpt lat="29.944721" lon="92.818421">
<time>2016-10-08T04:44:48Z</time></trkpt>
<trkpt lat="29.944561" lon="92.81813">
<time>2016-10-08T04:44:49Z</time></trkpt>
<trkpt lat="29.944471" lon="92.81796">
<time>2016-10-08T04:44:50Z</time></trkpt>
<trkpt lat="29.9444" lon="92.81781">
<time>2016-10-08T04:44:51Z</time></trkpt>
<trkpt lat="29.94435" lon="92.81767">
<time>2016-10-08T04:44:52Z</time></trkpt>
<trkpt lat="29.9443" lon="92.817529">
<time>2016-10-08T04:44:53Z</time></trkpt>
<trkpt lat="29.944239" lon="92.817299">
<time>2016-10-08T04:44:54Z</time></trkpt>
<trkpt lat="29.944189" lon="92.817129">
<time>2016-10-08T04:44:55Z</time></trkpt>
<trkpt lat="29.944139" lon="92.816998">
<time>2016-10-08T04:44:56Z</time></trkpt>
<trkpt lat="29.944079" lon="92.816888">
<time>2016-10-08T04:44:57Z</time></trkpt>
<trkpt lat="29.944038" lon="92.816808">
<time>2016-10-08T04:44:58Z</time></trkpt>
<trkpt lat="29.943948" lon="92.816678">
<time>2016-10-08T04:44:59Z</time></trkpt>
<trkpt lat="29.943898" lon="92.816618">
<time>2016-10-08T04:45:00Z</time></trkpt>
<trkpt lat="29.943818" lon="92.816548">
<time>2016-10-08T04:45:01Z</time></trkpt>
<trkpt lat="29.943758" lon="92.816488">
<time>2016-10-08T04:45:02Z</time></trkpt>
<trkpt lat="29.943638" lon="92.816417">
<time>2016-10-08T04:45:03Z</time></trkpt>
<trkpt lat="29.943538" lon="92.816357">
<time>2016-10-08T04:45:04Z</time></trkpt>
<trkpt lat="29.943428" lon="92.816307">
<time>2016-10-08T04:45:05Z</time></trkpt>
<trkpt lat="29.943308" lon="92.816277">
<time>2016-10-08T04:45:06Z</time></trkpt>
<trkpt lat="29.943187" lon="92.816247">
<time>2016-10-08T04:45:07Z</time></trkpt>
<trkpt lat="29.942897" lon="92.816197">
<time>2016-10-08T04:45:08Z</time></trkpt>
<trkpt lat="29.942667" lon="92.816157">
<time>2016-10-08T04:45:09Z</time></trkpt>
<trkpt lat="29.941867" lon="92.816027">
<time>2016-10-08T04:45:10Z</time></trkpt>
<trkpt lat="29.941617" lon="92.815977">
<time>2016-10-08T04:45:11Z</time></trkpt>
<trkpt lat="29.941497" lon="92.815937">
<time>2016-10-08T04:45:12Z</time></trkpt>
<trkpt lat="29.941397" lon="92.815897">
<time>2016-10-08T04:45:13Z</time></trkpt>
<trkpt lat="29.941307" lon="92.815847">
<time>2016-10-08T04:45:14Z</time></trkpt>
<trkpt lat="29.941146" lon="92.815726">
<time>2016-10-08T04:45:15Z</time></trkpt>
<trkpt lat="29.940776" lon="92.815446">
<time>2016-10-08T04:45:16Z</time></trkpt>
<trkpt lat="29.940566" lon="92.815286">
<time>2016-10-08T04:45:17Z</time></trkpt>
<trkpt lat="29.940355" lon="92.815115">
<time>2016-10-08T04:45:18Z</time></trkpt>
<trkpt lat="29.940245" lon="92.815005">
<time>2016-10-08T04:45:19Z</time></trkpt>
<trkpt lat="29.940125" lon="92.814845">
<time>2016-10-08T04:45:20Z</time></trkpt>
<trkpt lat="29.940015" lon="92.814665">
<time>2016-10-08T04:45:21Z</time></trkpt>
<trkpt lat="29.939874" lon="92.814404">
<time>2016-10-08T04:45:22Z</time></trkpt>
<trkpt lat="29.939593" lon="92.813903">
<time>2016-10-08T04:45:23Z</time></trkpt>
<trkpt lat="29.939483" lon="92.813723">
<time>2016-10-08T04:45:24Z</time></trkpt>
<trkpt lat="29.939433" lon="92.813653">
<time>2016-10-08T04:45:25Z</time></trkpt>
<trkpt lat="29.939383" lon="92.813583">
<time>2016-10-08T04:45:26Z</time></trkpt>
<trkpt lat="29.939332" lon="92.813523">
<time>2016-10-08T04:45:27Z</time></trkpt>
<trkpt lat="29.939272" lon="92.813473">
<time>2016-10-08T04:45:28Z</time></trkpt>
<trkpt lat="29.939222" lon="92.813432">
<time>2016-10-08T04:45:29Z</time></trkpt>
<trkpt lat="29.939182" lon="92.813402">
<time>2016-10-08T04:45:30Z</time></trkpt>
<trkpt lat="29.939132" lon="92.813372">
<time>2016-10-08T04:45:31Z</time></trkpt>
<trkpt lat="29.938492" lon="92.813052">
<time>2016-10-08T04:45:32Z</time></trkpt>
<trkpt lat="29.938362" lon="92.812982">
<time>2016-10-08T04:45:33Z</time></trkpt>
<trkpt lat="29.938241" lon="92.812902">
<time>2016-10-08T04:45:34Z</time></trkpt>
<trkpt lat="29.938151" lon="92.812821">
<time>2016-10-08T04:45:35Z</time></trkpt>
<trkpt lat="29.938041" lon="92.812721">
<time>2016-10-08T04:45:36Z</time></trkpt>
<trkpt lat="29.93742" lon="92.81196">
<time>2016-10-08T04:45:37Z</time></trkpt>
<trkpt lat="29.936818" lon="92.811199">
<time>2016-10-08T04:45:38Z</time></trkpt>
<trkpt lat="29.935606" lon="92.809666">
<time>2016-10-08T04:45:39Z</time></trkpt>
<trkpt lat="29.934263" lon="92.807974">
<time>2016-10-08T04:45:40Z</time></trkpt>
<trkpt lat="29.934122" lon="92.807773">
<time>2016-10-08T04:45:41Z</time></trkpt>
<trkpt lat="29.934002" lon="92.807593">
<time>2016-10-08T04:45:42Z</time></trkpt>
<trkpt lat="29.933861" lon="92.807293">
<time>2016-10-08T04:45:43Z</time></trkpt>
<trkpt lat="29.933691" lon="92.806902">
<time>2016-10-08T04:45:44Z</time></trkpt>
<trkpt lat="29.932857" lon="92.804919">
<time>2016-10-08T04:45:45Z</time></trkpt>
<trkpt lat="29.932647" lon="92.804418">
<time>2016-10-08T04:45:46Z</time></trkpt>
<trkpt lat="29.932205" lon="92.803366">
<time>2016-10-08T04:45:47Z</time></trkpt>
<trkpt lat="29.932064" lon="92.803046">
<time>2016-10-08T04:45:48Z</time></trkpt>
<trkpt lat="29.931964" lon="92.802796">
<time>2016-10-08T04:45:49Z</time></trkpt>
<trkpt lat="29.931883" lon="92.802555">
<time>2016-10-08T04:45:50Z</time></trkpt>
<trkpt lat="29.931823" lon="92.802345">
<time>2016-10-08T04:45:51Z</time></trkpt>
<trkpt lat="29.931773" lon="92.802125">
<time>2016-10-08T04:45:52Z</time></trkpt>
<trkpt lat="29.931702" lon="92.801764">
<time>2016-10-08T04:45:53Z</time></trkpt>
<trkpt lat="29.931652" lon="92.801424">
<time>2016-10-08T04:45:54Z</time></trkpt>
<trkpt lat="29.93151" lon="92.800592">
<time>2016-10-08T04:45:55Z</time></trkpt>
<trkpt lat="29.931177" lon="92.79865">
<time>2016-10-08T04:45:56Z</time></trkpt>
<trkpt lat="29.931076" lon="92.798009">
<time>2016-10-08T04:45:57Z</time></trkpt>
<trkpt lat="29.930945" lon="92.797268">
<time>2016-10-08T04:45:58Z</time></trkpt>
<trkpt lat="29.930753" lon="92.796216">
<time>2016-10-08T04:45:59Z</time></trkpt>
<trkpt lat="29.930693" lon="92.795906">
<time>2016-10-08T04:46:00Z</time></trkpt>
<trkpt lat="29.930673" lon="92.795816">
<time>2016-10-08T04:46:01Z</time></trkpt>
<trkpt lat="29.930633" lon="92.795685">
<time>2016-10-08T04:46:02Z</time></trkpt>
<trkpt lat="29.930612" lon="92.795625">
<time>2016-10-08T04:46:03Z</time></trkpt>
<trkpt lat="29.930572" lon="92.795505">
<time>2016-10-08T04:46:04Z</time></trkpt>
<trkpt lat="29.930522" lon="92.795385">
<time>2016-10-08T04:46:05Z</time></trkpt>
<trkpt lat="29.930452" lon="92.795235">
<time>2016-10-08T04:46:06Z</time></trkpt>
<trkpt lat="29.930191" lon="92.794734">
<time>2016-10-08T04:46:07Z</time></trkpt>
<trkpt lat="29.930081" lon="92.794504">
<time>2016-10-08T04:46:08Z</time></trkpt>
<trkpt lat="29.92998" lon="92.794304">
<time>2016-10-08T04:46:09Z</time></trkpt>
<trkpt lat="29.92963" lon="92.793633">
<time>2016-10-08T04:46:10Z</time></trkpt>
<trkpt lat="29.929479" lon="92.793332">
<time>2016-10-08T04:46:11Z</time></trkpt>
<trkpt lat="29.928887" lon="92.792161">
<time>2016-10-08T04:46:12Z</time></trkpt>
<trkpt lat="29.928486" lon="92.79136">
<time>2016-10-08T04:46:13Z</time></trkpt>
<trkpt lat="29.927975" lon="92.790359">
<time>2016-10-08T04:46:14Z</time></trkpt>
<trkpt lat="29.927504" lon="92.789428">
<time>2016-10-08T04:46:15Z</time></trkpt>
<trkpt lat="29.927082" lon="92.788577">
<time>2016-10-08T04:46:16Z</time></trkpt>
<trkpt lat="29.926721" lon="92.787866">
<time>2016-10-08T04:46:17Z</time></trkpt>
<trkpt lat="29.926391" lon="92.787225">
<time>2016-10-08T04:46:18Z</time></trkpt>
<trkpt lat="29.92612" lon="92.786674">
<time>2016-10-08T04:46:19Z</time></trkpt>
<trkpt lat="29.92595" lon="92.786344">
<time>2016-10-08T04:46:20Z</time></trkpt>
<trkpt lat="29.925909" lon="92.786254">
<time>2016-10-08T04:46:21Z</time></trkpt>
<trkpt lat="29.925829" lon="92.786084">
<time>2016-10-08T04:46:22Z</time></trkpt>
<trkpt lat="29.925769" lon="92.785934">
<time>2016-10-08T04:46:23Z</time></trkpt>
<trkpt lat="29.925719" lon="92.785753">
<time>2016-10-08T04:46:24Z</time></trkpt>
<trkpt lat="29.925679" lon="92.785573">
<time>2016-10-08T04:46:25Z</time></trkpt>
<trkpt lat="29.925648" lon="92.785413">
<time>2016-10-08T04:46:26Z</time></trkpt>
<trkpt lat="29.925568" lon="92.784973">
<time>2016-10-08T04:46:27Z</time></trkpt>
<trkpt lat="29.925497" lon="92.784542">
<time>2016-10-08T04:46:28Z</time></trkpt>
<trkpt lat="29.925407" lon="92.783992">
<time>2016-10-08T04:46:29Z</time></trkpt>
<trkpt lat="29.925306" lon="92.783391">
<time>2016-10-08T04:46:30Z</time></trkpt>
<trkpt lat="29.925195" lon="92.7827">
<time>2016-10-08T04:46:31Z</time></trkpt>
<trkpt lat="29.925084" lon="92.782">
<time>2016-10-08T04:46:32Z</time></trkpt>
<trkpt lat="29.924953" lon="92.781249">
<time>2016-10-08T04:46:33Z</time></trkpt>
<trkpt lat="29.924833" lon="92.780518">
<time>2016-10-08T04:46:34Z</time></trkpt>
<trkpt lat="29.924712" lon="92.779798">
<time>2016-10-08T04:46:35Z</time></trkpt>
<trkpt lat="29.924571" lon="92.778967">
<time>2016-10-08T04:46:36Z</time></trkpt>
<trkpt lat="29.92444" lon="92.778136">
<time>2016-10-08T04:46:37Z</time></trkpt>
<trkpt lat="29.924339" lon="92.777536">
<time>2016-10-08T04:46:38Z</time></trkpt>
<trkpt lat="29.924259" lon="92.777025">
<time>2016-10-08T04:46:39Z</time></trkpt>
<trkpt lat="29.924199" lon="92.776755">
<time>2016-10-08T04:46:40Z</time></trkpt>
<trkpt lat="29.924128" lon="92.776495">
<time>2016-10-08T04:46:41Z</time></trkpt>
<trkpt lat="29.923908" lon="92.775774">
<time>2016-10-08T04:46:42Z</time></trkpt>
<trkpt lat="29.923647" lon="92.774924">
<time>2016-10-08T04:46:43Z</time></trkpt>
<trkpt lat="29.923316" lon="92.773853">
<time>2016-10-08T04:46:44Z</time></trkpt>
<trkpt lat="29.923085" lon="92.773123">
<time>2016-10-08T04:46:45Z</time></trkpt>
<trkpt lat="29.922815" lon="92.772242">
<time>2016-10-08T04:46:46Z</time></trkpt>
<trkpt lat="29.922544" lon="92.771372">
<time>2016-10-08T04:46:47Z</time></trkpt>
<trkpt lat="29.921782" lon="92.7689">
<time>2016-10-08T04:46:48Z</time></trkpt>
<trkpt lat="29.921291" lon="92.76735">
<time>2016-10-08T04:46:49Z</time></trkpt>
<trkpt lat="29.92091" lon="92.766119">
<time>2016-10-08T04:46:50Z</time></trkpt>
<trkpt lat="29.92089" lon="92.766049">
<time>2016-10-08T04:46:51Z</time></trkpt>
<trkpt lat="29.92087" lon="92.765979">
<time>2016-10-08T04:46:52Z</time></trkpt>
<trkpt lat="29.92084" lon="92.765919">
<time>2016-10-08T04:46:53Z</time></trkpt>
<trkpt lat="29.9208" lon="92.765829">
<time>2016-10-08T04:46:54Z</time></trkpt>
<trkpt lat="29.92075" lon="92.765759">
<time>2016-10-08T04:46:55Z</time></trkpt>
<trkpt lat="29.9207" lon="92.765689">
<time>2016-10-08T04:46:56Z</time></trkpt>
<trkpt lat="29.92066" lon="92.765639">
<time>2016-10-08T04:46:57Z</time></trkpt>
<trkpt lat="29.92058" lon="92.765569">
<time>2016-10-08T04:46:58Z</time></trkpt>
<trkpt lat="29.92025" lon="92.765309">
<time>2016-10-08T04:46:59Z</time></trkpt>
<trkpt lat="29.919999" lon="92.765129">
<time>2016-10-08T04:47:00Z</time></trkpt>
<trkpt lat="29.919949" lon="92.765089">
<time>2016-10-08T04:47:01Z</time></trkpt>
<trkpt lat="29.919899" lon="92.765039">
<time>2016-10-08T04:47:02Z</time></trkpt>
<trkpt lat="29.919839" lon="92.764979">
<time>2016-10-08T04:47:03Z</time></trkpt>
<trkpt lat="29.919769" lon="92.764889">
<time>2016-10-08T04:47:04Z</time></trkpt>
<trkpt lat="29.919659" lon="92.764719">
<time>2016-10-08T04:47:05Z</time></trkpt>
<trkpt lat="29.919579" lon="92.764569">
<time>2016-10-08T04:47:06Z</time></trkpt>
<trkpt lat="29.919439" lon="92.764339">
<time>2016-10-08T04:47:07Z</time></trkpt>
<trkpt lat="29.919389" lon="92.764249">
<time>2016-10-08T04:47:08Z</time></trkpt>
<trkpt lat="29.919349" lon="92.764159">
<time>2016-10-08T04:47:09Z</time></trkpt>
<trkpt lat="29.919309" lon="92.764059">
<time>2016-10-08T04:47:10Z</time></trkpt>
<trkpt lat="29.919269" lon="92.763949">
<time>2016-10-08T04:47:11Z</time></trkpt>
<trkpt lat="29.919239" lon="92.763829">
<time>2016-10-08T04:47:12Z</time></trkpt>
<trkpt lat="29.919219" lon="92.763679">
<time>2016-10-08T04:47:13Z</time></trkpt>
<trkpt lat="29.919199" lon="92.763518">
<time>2016-10-08T04:47:14Z</time></trkpt>
<trkpt lat="29.919178" lon="92.763258">
<time>2016-10-08T04:47:15Z</time></trkpt>
<trkpt lat="29.919148" lon="92.762988">
<time>2016-10-08T04:47:16Z</time></trkpt>
<trkpt lat="29.919138" lon="92.762838">
<time>2016-10-08T04:47:17Z</time></trkpt>
<trkpt lat="29.919098" lon="92.762548">
<time>2016-10-08T04:47:18Z</time></trkpt>
<trkpt lat="29.919058" lon="92.762328">
<time>2016-10-08T04:47:19Z</time></trkpt>
<trkpt lat="29.919028" lon="92.762178">
<time>2016-10-08T04:47:20Z</time></trkpt>
<trkpt lat="29.919008" lon="92.762048">
<time>2016-10-08T04:47:21Z</time></trkpt>
<trkpt lat="29.918868" lon="92.761538">
<time>2016-10-08T04:47:22Z</time></trkpt>
<trkpt lat="29.918697" lon="92.760908">
<time>2016-10-08T04:47:23Z</time></trkpt>
<trkpt lat="29.918627" lon="92.760678">
<time>2016-10-08T04:47:24Z</time></trkpt>
<trkpt lat="29.918557" lon="92.760478">
<time>2016-10-08T04:47:25Z</time></trkpt>
<trkpt lat="29.918417" lon="92.760068">
<time>2016-10-08T04:47:26Z</time></trkpt>
<trkpt lat="29.918237" lon="92.759638">
<time>2016-10-08T04:47:27Z</time></trkpt>
<trkpt lat="29.918137" lon="92.759368">
<time>2016-10-08T04:47:28Z</time></trkpt>
<trkpt lat="29.918057" lon="92.759168">
<time>2016-10-08T04:47:29Z</time></trkpt>
<trkpt lat="29.917977" lon="92.758968">
<time>2016-10-08T04:47:30Z</time></trkpt>
<trkpt lat="29.917917" lon="92.758838">
<time>2016-10-08T04:47:31Z</time></trkpt>
<trkpt lat="29.917846" lon="92.758718">
<time>2016-10-08T04:47:32Z</time></trkpt>
<trkpt lat="29.917776" lon="92.758608">
<time>2016-10-08T04:47:33Z</time></trkpt>
<trkpt lat="29.917686" lon="92.758468">
<time>2016-10-08T04:47:34Z</time></trkpt>
<trkpt lat="29.917496" lon="92.758218">
<time>2016-10-08T04:47:35Z</time></trkpt>
<trkpt lat="29.917346" lon="92.757998">
<time>2016-10-08T04:47:36Z</time></trkpt>
<trkpt lat="29.917246" lon="92.757828">
<time>2016-10-08T04:47:37Z</time></trkpt>
<trkpt lat="29.917166" lon="92.757688">
<time>2016-10-08T04:47:38Z</time></trkpt>
<trkpt lat="29.916986" lon="92.757298">
<time>2016-10-08T04:47:39Z</time></trkpt>
<trkpt lat="29.916716" lon="92.756718">
<time>2016-10-08T04:47:40Z</time></trkpt>
<trkpt lat="29.916706" lon="92.756688">
<time>2016-10-08T04:47:41Z</time></trkpt>
<trkpt lat="29.916666" lon="92.756618">
<time>2016-10-08T04:47:42Z</time></trkpt>
<trkpt lat="29.916626" lon="92.756528">
<time>2016-10-08T04:47:43Z</time></trkpt>
<trkpt lat="29.916536" lon="92.756338">
<time>2016-10-08T04:47:44Z</time></trkpt>
<trkpt lat="29.916416" lon="92.756088">
<time>2016-10-08T04:47:45Z</time></trkpt>
<trkpt lat="29.916296" lon="92.755828">
<time>2016-10-08T04:47:46Z</time></trkpt>
<trkpt lat="29.916246" lon="92.755718">
<time>2016-10-08T04:47:47Z</time></trkpt>
<trkpt lat="29.916206" lon="92.755618">
<time>2016-10-08T04:47:48Z</time></trkpt>
<trkpt lat="29.916156" lon="92.755498">
<time>2016-10-08T04:47:49Z</time></trkpt>
<trkpt lat="29.916106" lon="92.755378">
<time>2016-10-08T04:47:50Z</time></trkpt>
<trkpt lat="29.916025" lon="92.755148">
<time>2016-10-08T04:47:51Z</time></trkpt>
<trkpt lat="29.915925" lon="92.754858">
<time>2016-10-08T04:47:52Z</time></trkpt>
<trkpt lat="29.915845" lon="92.754648">
<time>2016-10-08T04:47:53Z</time></trkpt>
<trkpt lat="29.915645" lon="92.754098">
<time>2016-10-08T04:47:54Z</time></trkpt>
<trkpt lat="29.915565" lon="92.753888">
<time>2016-10-08T04:47:55Z</time></trkpt>
<trkpt lat="29.915445" lon="92.753528">
<time>2016-10-08T04:47:56Z</time></trkpt>
<trkpt lat="29.915385" lon="92.753368">
<time>2016-10-08T04:47:57Z</time></trkpt>
<trkpt lat="29.915345" lon="92.753258">
<time>2016-10-08T04:47:58Z</time></trkpt>
<trkpt lat="29.915295" lon="92.753118">
<time>2016-10-08T04:47:59Z</time></trkpt>
<trkpt lat="29.915225" lon="92.752928">
<time>2016-10-08T04:48:00Z</time></trkpt>
<trkpt lat="29.915185" lon="92.752818">
<time>2016-10-08T04:48:01Z</time></trkpt>
<trkpt lat="29.915135" lon="92.752698">
<time>2016-10-08T04:48:02Z</time></trkpt>
<trkpt lat="29.915125" lon="92.752658">
<time>2016-10-08T04:48:03Z</time></trkpt>
<trkpt lat="29.915105" lon="92.752598">
<time>2016-10-08T04:48:04Z</time></trkpt>
<trkpt lat="29.915085" lon="92.752558">
<time>2016-10-08T04:48:05Z</time></trkpt>
<trkpt lat="29.915055" lon="92.752498">
<time>2016-10-08T04:48:06Z</time></trkpt>
<trkpt lat="29.915035" lon="92.752438">
<time>2016-10-08T04:48:07Z</time></trkpt>
<trkpt lat="29.915005" lon="92.752388">
<time>2016-10-08T04:48:08Z</time></trkpt>
<trkpt lat="29.914985" lon="92.752338">
<time>2016-10-08T04:48:09Z</time></trkpt>
<trkpt lat="29.914965" lon="92.752308">
<time>2016-10-08T04:48:10Z</time></trkpt>
<trkpt lat="29.914925" lon="92.752248">
<time>2016-10-08T04:48:11Z</time></trkpt>
<trkpt lat="29.914885" lon="92.752188">
<time>2016-10-08T04:48:12Z</time></trkpt>
<trkpt lat="29.914775" lon="92.752028">
<time>2016-10-08T04:48:13Z</time></trkpt>
<trkpt lat="29.914655" lon="92.751858">
<time>2016-10-08T04:48:14Z</time></trkpt>
<trkpt lat="29.914585" lon="92.751758">
<time>2016-10-08T04:48:15Z</time></trkpt>
<trkpt lat="29.914535" lon="92.751688">
<time>2016-10-08T04:48:16Z</time></trkpt>
<trkpt lat="29.914425" lon="92.751539">
<time>2016-10-08T04:48:17Z</time></trkpt>
<trkpt lat="29.914345" lon="92.751429">
<time>2016-10-08T04:48:18Z</time></trkpt>
<trkpt lat="29.914285" lon="92.751349">
<time>2016-10-08T04:48:19Z</time></trkpt>
<trkpt lat="29.914235" lon="92.751279">
<time>2016-10-08T04:48:20Z</time></trkpt>
<trkpt lat="29.914185" lon="92.751229">
<time>2016-10-08T04:48:21Z</time></trkpt>
<trkpt lat="29.914145" lon="92.751179">
<time>2016-10-08T04:48:22Z</time></trkpt>
<trkpt lat="29.914045" lon="92.751079">
<time>2016-10-08T04:48:23Z</time></trkpt>
<trkpt lat="29.913955" lon="92.750999">
<time>2016-10-08T04:48:24Z</time></trkpt>
<trkpt lat="29.913895" lon="92.750949">
<time>2016-10-08T04:48:25Z</time></trkpt>
<trkpt lat="29.913845" lon="92.750919">
<time>2016-10-08T04:48:26Z</time></trkpt>
<trkpt lat="29.913795" lon="92.750889">
<time>2016-10-08T04:48:27Z</time></trkpt>
<trkpt lat="29.913735" lon="92.750849">
<time>2016-10-08T04:48:28Z</time></trkpt>
<trkpt lat="29.913685" lon="92.750819">
<time>2016-10-08T04:48:29Z</time></trkpt>
<trkpt lat="29.913635" lon="92.750799">
<time>2016-10-08T04:48:30Z</time></trkpt>
<trkpt lat="29.913585" lon="92.750779">
<time>2016-10-08T04:48:31Z</time></trkpt>
<trkpt lat="29.913515" lon="92.750749">
<time>2016-10-08T04:48:32Z</time></trkpt>
<trkpt lat="29.913445" lon="92.750729">
<time>2016-10-08T04:48:33Z</time></trkpt>
<trkpt lat="29.913375" lon="92.750699">
<time>2016-10-08T04:48:34Z</time></trkpt>
<trkpt lat="29.913255" lon="92.750669">
<time>2016-10-08T04:48:35Z</time></trkpt>
<trkpt lat="29.913135" lon="92.750639">
<time>2016-10-08T04:48:36Z</time></trkpt>
<trkpt lat="29.912985" lon="92.750609">
<time>2016-10-08T04:48:37Z</time></trkpt>
<trkpt lat="29.912785" lon="92.750559">
<time>2016-10-08T04:48:38Z</time></trkpt>
<trkpt lat="29.912335" lon="92.750449">
<time>2016-10-08T04:48:39Z</time></trkpt>
<trkpt lat="29.912025" lon="92.750379">
<time>2016-10-08T04:48:40Z</time></trkpt>
<trkpt lat="29.911755" lon="92.750309">
<time>2016-10-08T04:48:41Z</time></trkpt>
<trkpt lat="29.911665" lon="92.750289">
<time>2016-10-08T04:48:42Z</time></trkpt>
<trkpt lat="29.911365" lon="92.750209">
<time>2016-10-08T04:48:43Z</time></trkpt>
<trkpt lat="29.911175" lon="92.750169">
<time>2016-10-08T04:48:44Z</time></trkpt>
<trkpt lat="29.910955" lon="92.750109">
<time>2016-10-08T04:48:45Z</time></trkpt>
<trkpt lat="29.910845" lon="92.750079">
<time>2016-10-08T04:48:46Z</time></trkpt>
<trkpt lat="29.910755" lon="92.750059">
<time>2016-10-08T04:48:47Z</time></trkpt>
<trkpt lat="29.910725" lon="92.750049">
<time>2016-10-08T04:48:48Z</time></trkpt>
<trkpt lat="29.910635" lon="92.750029">
<time>2016-10-08T04:48:49Z</time></trkpt>
<trkpt lat="29.910505" lon="92.749999">
<time>2016-10-08T04:48:50Z</time></trkpt>
<trkpt lat="29.910265" lon="92.749939">
<time>2016-10-08T04:48:51Z</time></trkpt>
<trkpt lat="29.909945" lon="92.749859">
<time>2016-10-08T04:48:52Z</time></trkpt>
<trkpt lat="29.909695" lon="92.749799">
<time>2016-10-08T04:48:53Z</time></trkpt>
<trkpt lat="29.909345" lon="92.749709">
<time>2016-10-08T04:48:54Z</time></trkpt>
<trkpt lat="29.909055" lon="92.749639">
<time>2016-10-08T04:48:55Z</time></trkpt>
<trkpt lat="29.908865" lon="92.749599">
<time>2016-10-08T04:48:56Z</time></trkpt>
<trkpt lat="29.908725" lon="92.749549">
<time>2016-10-08T04:48:57Z</time></trkpt>
<trkpt lat="29.908615" lon="92.749509">
<time>2016-10-08T04:48:58Z</time></trkpt>
<trkpt lat="29.908505" lon="92.749449">
<time>2016-10-08T04:48:59Z</time></trkpt>
<trkpt lat="29.908405" lon="92.749389">
<time>2016-10-08T04:49:00Z</time></trkpt>
<trkpt lat="29.908315" lon="92.749309">
<time>2016-10-08T04:49:01Z</time></trkpt>
<trkpt lat="29.908155" lon="92.749139">
<time>2016-10-08T04:49:02Z</time></trkpt>
<trkpt lat="29.907925" lon="92.748889">
<time>2016-10-08T04:49:03Z</time></trkpt>
<trkpt lat="29.907675" lon="92.74861">
<time>2016-10-08T04:49:04Z</time></trkpt>
<trkpt lat="29.907505" lon="92.74842">
<time>2016-10-08T04:49:05Z</time></trkpt>
<trkpt lat="29.907275" lon="92.74818">
<time>2016-10-08T04:49:06Z</time></trkpt>
<trkpt lat="29.907095" lon="92.74801">
<time>2016-10-08T04:49:07Z</time></trkpt>
<trkpt lat="29.906915" lon="92.74787">
<time>2016-10-08T04:49:08Z</time></trkpt>
<trkpt lat="29.906765" lon="92.74776">
<time>2016-10-08T04:49:09Z</time></trkpt>
<trkpt lat="29.906485" lon="92.74758">
<time>2016-10-08T04:49:10Z</time></trkpt>
<trkpt lat="29.906305" lon="92.74746">
<time>2016-10-08T04:49:11Z</time></trkpt>
<trkpt lat="29.906195" lon="92.74739">
<time>2016-10-08T04:49:12Z</time></trkpt>
<trkpt lat="29.906055" lon="92.74731">
<time>2016-10-08T04:49:13Z</time></trkpt>
<trkpt lat="29.905875" lon="92.74719">
<time>2016-10-08T04:49:14Z</time></trkpt>
<trkpt lat="29.905715" lon="92.74707">
<time>2016-10-08T04:49:15Z</time></trkpt>
<trkpt lat="29.905595" lon="92.74696">
<time>2016-10-08T04:49:16Z</time></trkpt>
<trkpt lat="29.905455" lon="92.74681">
<time>2016-10-08T04:49:17Z</time></trkpt>
<trkpt lat="29.905335" lon="92.74665">
<time>2016-10-08T04:49:18Z</time></trkpt>
<trkpt lat="29.905185" lon="92.74646">
<time>2016-10-08T04:49:19Z</time></trkpt>
<trkpt lat="29.905065" lon="92.746301">
<time>2016-10-08T04:49:20Z</time></trkpt>
<trkpt lat="29.904945" lon="92.746141">
<time>2016-10-08T04:49:21Z</time></trkpt>
<trkpt lat="29.904825" lon="92.745991">
<time>2016-10-08T04:49:22Z</time></trkpt>
<trkpt lat="29.904705" lon="92.745831">
<time>2016-10-08T04:49:23Z</time></trkpt>
<trkpt lat="29.904575" lon="92.745661">
<time>2016-10-08T04:49:24Z</time></trkpt>
<trkpt lat="29.904445" lon="92.745501">
<time>2016-10-08T04:49:25Z</time></trkpt>
<trkpt lat="29.904265" lon="92.745321">
<time>2016-10-08T04:49:26Z</time></trkpt>
<trkpt lat="29.904125" lon="92.745171">
<time>2016-10-08T04:49:27Z</time></trkpt>
<trkpt lat="29.903985" lon="92.745031">
<time>2016-10-08T04:49:28Z</time></trkpt>
<trkpt lat="29.903795" lon="92.744861">
<time>2016-10-08T04:49:29Z</time></trkpt>
<trkpt lat="29.903715" lon="92.744781">
<time>2016-10-08T04:49:30Z</time></trkpt>
<trkpt lat="29.903565" lon="92.744651">
<time>2016-10-08T04:49:31Z</time></trkpt>
<trkpt lat="29.903395" lon="92.744502">
<time>2016-10-08T04:49:32Z</time></trkpt>
<trkpt lat="29.903206" lon="92.744332">
<time>2016-10-08T04:49:33Z</time></trkpt>
<trkpt lat="29.903016" lon="92.744162">
<time>2016-10-08T04:49:34Z</time></trkpt>
<trkpt lat="29.902836" lon="92.744002">
<time>2016-10-08T04:49:35Z</time></trkpt>
<trkpt lat="29.902626" lon="92.743792">
<time>2016-10-08T04:49:36Z</time></trkpt>
<trkpt lat="29.902486" lon="92.743652">
<time>2016-10-08T04:49:37Z</time></trkpt>
<trkpt lat="29.902386" lon="92.743542">
<time>2016-10-08T04:49:38Z</time></trkpt>
<trkpt lat="29.902266" lon="92.743372">
<time>2016-10-08T04:49:39Z</time></trkpt>
<trkpt lat="29.902136" lon="92.743212">
<time>2016-10-08T04:49:40Z</time></trkpt>
<trkpt lat="29.902006" lon="92.743042">
<time>2016-10-08T04:49:41Z</time></trkpt>
<trkpt lat="29.901886" lon="92.742882">
<time>2016-10-08T04:49:42Z</time></trkpt>
<trkpt lat="29.901796" lon="92.742753">
<time>2016-10-08T04:49:43Z</time></trkpt>
<trkpt lat="29.901736" lon="92.742673">
<time>2016-10-08T04:49:44Z</time></trkpt>
<trkpt lat="29.901656" lon="92.742533">
<time>2016-10-08T04:49:45Z</time></trkpt>
<trkpt lat="29.901596" lon="92.742403">
<time>2016-10-08T04:49:46Z</time></trkpt>
<trkpt lat="29.901546" lon="92.742263">
<time>2016-10-08T04:49:47Z</time></trkpt>
<trkpt lat="29.901496" lon="92.742123">
<time>2016-10-08T04:49:48Z</time></trkpt>
<trkpt lat="29.901456" lon="92.742023">
<time>2016-10-08T04:49:49Z</time></trkpt>
<trkpt lat="29.901416" lon="92.741893">
<time>2016-10-08T04:49:50Z</time></trkpt>
<trkpt lat="29.901356" lon="92.741753">
<time>2016-10-08T04:49:51Z</time></trkpt>
<trkpt lat="29.901326" lon="92.741653">
<time>2016-10-08T04:49:52Z</time></trkpt>
<trkpt lat="29.901296" lon="92.741553">
<time>2016-10-08T04:49:53Z</time></trkpt>
<trkpt lat="29.901256" lon="92.741443">
<time>2016-10-08T04:49:54Z</time></trkpt>
<trkpt lat="29.901226" lon="92.741343">
<time>2016-10-08T04:49:55Z</time></trkpt>
<trkpt lat="29.901206" lon="92.741254">
<time>2016-10-08T04:49:56Z</time></trkpt>
<trkpt lat="29.901186" lon="92.741174">
<time>2016-10-08T04:49:57Z</time></trkpt>
<trkpt lat="29.901176" lon="92.741124">
<time>2016-10-08T04:49:58Z</time></trkpt>
<trkpt lat="29.901156" lon="92.741034">
<time>2016-10-08T04:49:59Z</time></trkpt>
<trkpt lat="29.901156" lon="92.740964">
<time>2016-10-08T04:50:00Z</time></trkpt>
<trkpt lat="29.901146" lon="92.740894">
<time>2016-10-08T04:50:01Z</time></trkpt>
<trkpt lat="29.901136" lon="92.740834">
<time>2016-10-08T04:50:02Z</time></trkpt>
<trkpt lat="29.901136" lon="92.740764">
<time>2016-10-08T04:50:03Z</time></trkpt>
<trkpt lat="29.901136" lon="92.740684">
<time>2016-10-08T04:50:04Z</time></trkpt>
<trkpt lat="29.901147" lon="92.740614">
<time>2016-10-08T04:50:05Z</time></trkpt>
<trkpt lat="29.901147" lon="92.740544">
<time>2016-10-08T04:50:06Z</time></trkpt>
<trkpt lat="29.901157" lon="92.740474">
<time>2016-10-08T04:50:07Z</time></trkpt>
<trkpt lat="29.901157" lon="92.740414">
<time>2016-10-08T04:50:08Z</time></trkpt>
<trkpt lat="29.901167" lon="92.740324">
<time>2016-10-08T04:50:09Z</time></trkpt>
<trkpt lat="29.901187" lon="92.740244">
<time>2016-10-08T04:50:10Z</time></trkpt>
<trkpt lat="29.901197" lon="92.740164">
<time>2016-10-08T04:50:11Z</time></trkpt>
<trkpt lat="29.901207" lon="92.740074">
<time>2016-10-08T04:50:12Z</time></trkpt>
<trkpt lat="29.901217" lon="92.739994">
<time>2016-10-08T04:50:13Z</time></trkpt>
<trkpt lat="29.901227" lon="92.739924">
<time>2016-10-08T04:50:14Z</time></trkpt>
<trkpt lat="29.901237" lon="92.739865">
<time>2016-10-08T04:50:15Z</time></trkpt>
<trkpt lat="29.901247" lon="92.739775">
<time>2016-10-08T04:50:16Z</time></trkpt>
<trkpt lat="29.901257" lon="92.739685">
<time>2016-10-08T04:50:17Z</time></trkpt>
<trkpt lat="29.901267" lon="92.739625">
<time>2016-10-08T04:50:18Z</time></trkpt>
<trkpt lat="29.901277" lon="92.739555">
<time>2016-10-08T04:50:19Z</time></trkpt>
<trkpt lat="29.901287" lon="92.739485">
<time>2016-10-08T04:50:20Z</time></trkpt>
<trkpt lat="29.901307" lon="92.739395">
<time>2016-10-08T04:50:21Z</time></trkpt>
<trkpt lat="29.901307" lon="92.739335">
<time>2016-10-08T04:50:22Z</time></trkpt>
<trkpt lat="29.901317" lon="92.739265">
<time>2016-10-08T04:50:23Z</time></trkpt>
<trkpt lat="29.901327" lon="92.739205">
<time>2016-10-08T04:50:24Z</time></trkpt>
<trkpt lat="29.901337" lon="92.739125">
<time>2016-10-08T04:50:25Z</time></trkpt>
<trkpt lat="29.901347" lon="92.739025">
<time>2016-10-08T04:50:26Z</time></trkpt>
<trkpt lat="29.901357" lon="92.738955">
<time>2016-10-08T04:50:27Z</time></trkpt>
<trkpt lat="29.901367" lon="92.738885">
<time>2016-10-08T04:50:28Z</time></trkpt>
<trkpt lat="29.901367" lon="92.738805">
<time>2016-10-08T04:50:29Z</time></trkpt>
<trkpt lat="29.901377" lon="92.738745">
<time>2016-10-08T04:50:30Z</time></trkpt>
<trkpt lat="29.901387" lon="92.738655">
<time>2016-10-08T04:50:31Z</time></trkpt>
<trkpt lat="29.901387" lon="92.738596">
<time>2016-10-08T04:50:32Z</time></trkpt>
<trkpt lat="29.901387" lon="92.738516">
<time>2016-10-08T04:50:33Z</time></trkpt>
<trkpt lat="29.901397" lon="92.738406">
<time>2016-10-08T04:50:34Z</time></trkpt>
<trkpt lat="29.901397" lon="92.738256">
<time>2016-10-08T04:50:35Z</time></trkpt>
<trkpt lat="29.901407" lon="92.738176">
<time>2016-10-08T04:50:36Z</time></trkpt>
<trkpt lat="29.901407" lon="92.738096">
<time>2016-10-08T04:50:37Z</time></trkpt>
<trkpt lat="29.901408" lon="92.737986">
<time>2016-10-08T04:50:38Z</time></trkpt>
<trkpt lat="29.901408" lon="92.737896">
<time>2016-10-08T04:50:39Z</time></trkpt>
<trkpt lat="29.901398" lon="92.737826">
<time>2016-10-08T04:50:40Z</time></trkpt>
<trkpt lat="29.901398" lon="92.737746">
<time>2016-10-08T04:50:41Z</time></trkpt>
<trkpt lat="29.901388" lon="92.737626">
<time>2016-10-08T04:50:42Z</time></trkpt>
<trkpt lat="29.901368" lon="92.737446">
<time>2016-10-08T04:50:43Z</time></trkpt>
<trkpt lat="29.901348" lon="92.737277">
<time>2016-10-08T04:50:44Z</time></trkpt>
<trkpt lat="29.901318" lon="92.737087">
<time>2016-10-08T04:50:45Z</time></trkpt>
<trkpt lat="29.901288" lon="92.736917">
<time>2016-10-08T04:50:46Z</time></trkpt>
<trkpt lat="29.901268" lon="92.736777">
<time>2016-10-08T04:50:47Z</time></trkpt>
<trkpt lat="29.901248" lon="92.736677">
<time>2016-10-08T04:50:48Z</time></trkpt>
<trkpt lat="29.901218" lon="92.736557">
<time>2016-10-08T04:50:49Z</time></trkpt>
<trkpt lat="29.901198" lon="92.736457">
<time>2016-10-08T04:50:50Z</time></trkpt>
<trkpt lat="29.901188" lon="92.736357">
<time>2016-10-08T04:50:51Z</time></trkpt>
<trkpt lat="29.901168" lon="92.736247">
<time>2016-10-08T04:50:52Z</time></trkpt>
<trkpt lat="29.901108" lon="92.735978">
<time>2016-10-08T04:50:53Z</time></trkpt>
<trkpt lat="29.901039" lon="92.735628">
<time>2016-10-08T04:50:54Z</time></trkpt>
<trkpt lat="29.900929" lon="92.735178">
<time>2016-10-08T04:50:55Z</time></trkpt>
<trkpt lat="29.900909" lon="92.735039">
<time>2016-10-08T04:50:56Z</time></trkpt>
<trkpt lat="29.900889" lon="92.734889">
<time>2016-10-08T04:50:57Z</time></trkpt>
<trkpt lat="29.900849" lon="92.734659">
<time>2016-10-08T04:50:58Z</time></trkpt>
<trkpt lat="29.900819" lon="92.734509">
<time>2016-10-08T04:50:59Z</time></trkpt>
<trkpt lat="29.900779" lon="92.734359">
<time>2016-10-08T04:51:00Z</time></trkpt>
<trkpt lat="29.900719" lon="92.73411">
<time>2016-10-08T04:51:01Z</time></trkpt>
<trkpt lat="29.90068" lon="92.73392">
<time>2016-10-08T04:51:02Z</time></trkpt>
<trkpt lat="29.90064" lon="92.7338">
<time>2016-10-08T04:51:03Z</time></trkpt>
<trkpt lat="29.90061" lon="92.73366">
<time>2016-10-08T04:51:04Z</time></trkpt>
<trkpt lat="29.90052" lon="92.73342">
<time>2016-10-08T04:51:05Z</time></trkpt>
<trkpt lat="29.90041" lon="92.73317">
<time>2016-10-08T04:51:06Z</time></trkpt>
<trkpt lat="29.90031" lon="92.732961">
<time>2016-10-08T04:51:07Z</time></trkpt>
<trkpt lat="29.90024" lon="92.732821">
<time>2016-10-08T04:51:08Z</time></trkpt>
<trkpt lat="29.90017" lon="92.732681">
<time>2016-10-08T04:51:09Z</time></trkpt>
<trkpt lat="29.90006" lon="92.732501">
<time>2016-10-08T04:51:10Z</time></trkpt>
<trkpt lat="29.90001" lon="92.732431">
<time>2016-10-08T04:51:11Z</time></trkpt>
<trkpt lat="29.899931" lon="92.732321">
<time>2016-10-08T04:51:12Z</time></trkpt>
<trkpt lat="29.899851" lon="92.732201">
<time>2016-10-08T04:51:13Z</time></trkpt>
<trkpt lat="29.899771" lon="92.732092">
<time>2016-10-08T04:51:14Z</time></trkpt>
<trkpt lat="29.899721" lon="92.732022">
<time>2016-10-08T04:51:15Z</time></trkpt>
<trkpt lat="29.899661" lon="92.731942">
<time>2016-10-08T04:51:16Z</time></trkpt>
<trkpt lat="29.899571" lon="92.731822">
<time>2016-10-08T04:51:17Z</time></trkpt>
<trkpt lat="29.899481" lon="92.731702">
<time>2016-10-08T04:51:18Z</time></trkpt>
<trkpt lat="29.899391" lon="92.731582">
<time>2016-10-08T04:51:19Z</time></trkpt>
<trkpt lat="29.899291" lon="92.731462">
<time>2016-10-08T04:51:20Z</time></trkpt>
<trkpt lat="29.899181" lon="92.731312">
<time>2016-10-08T04:51:21Z</time></trkpt>
<trkpt lat="29.899101" lon="92.731203">
<time>2016-10-08T04:51:22Z</time></trkpt>
<trkpt lat="29.899011" lon="92.731083">
<time>2016-10-08T04:51:23Z</time></trkpt>
<trkpt lat="29.898931" lon="92.730973">
<time>2016-10-08T04:51:24Z</time></trkpt>
<trkpt lat="29.898852" lon="92.730873">
<time>2016-10-08T04:51:25Z</time></trkpt>
<trkpt lat="29.898802" lon="92.730803">
<time>2016-10-08T04:51:26Z</time></trkpt>
<trkpt lat="29.898702" lon="92.730673">
<time>2016-10-08T04:51:27Z</time></trkpt>
<trkpt lat="29.898572" lon="92.730503">
<time>2016-10-08T04:51:28Z</time></trkpt>
<trkpt lat="29.898522" lon="92.730443">
<time>2016-10-08T04:51:29Z</time></trkpt>
<trkpt lat="29.898432" lon="92.730324">
<time>2016-10-08T04:51:30Z</time></trkpt>
<trkpt lat="29.898352" lon="92.730204">
<time>2016-10-08T04:51:31Z</time></trkpt>
<trkpt lat="29.898262" lon="92.730084">
<time>2016-10-08T04:51:32Z</time></trkpt>
<trkpt lat="29.898172" lon="92.729974">
<time>2016-10-08T04:51:33Z</time></trkpt>
<trkpt lat="29.898092" lon="92.729854">
<time>2016-10-08T04:51:34Z</time></trkpt>
<trkpt lat="29.898002" lon="92.729734">
<time>2016-10-08T04:51:35Z</time></trkpt>
<trkpt lat="29.897942" lon="92.729654">
<time>2016-10-08T04:51:36Z</time></trkpt>
<trkpt lat="29.897852" lon="92.729544">
<time>2016-10-08T04:51:37Z</time></trkpt>
<trkpt lat="29.897763" lon="92.729425">
<time>2016-10-08T04:51:38Z</time></trkpt>
<trkpt lat="29.897683" lon="92.729305">
<time>2016-10-08T04:51:39Z</time></trkpt>
<trkpt lat="29.897603" lon="92.729195">
<time>2016-10-08T04:51:40Z</time></trkpt>
<trkpt lat="29.897513" lon="92.729075">
<time>2016-10-08T04:51:41Z</time></trkpt>
<trkpt lat="29.897423" lon="92.728955">
<time>2016-10-08T04:51:42Z</time></trkpt>
<trkpt lat="29.897333" lon="92.728835">
<time>2016-10-08T04:51:43Z</time></trkpt>
<trkpt lat="29.897253" lon="92.728715">
<time>2016-10-08T04:51:44Z</time></trkpt>
<trkpt lat="29.897163" lon="92.728586">
<time>2016-10-08T04:51:45Z</time></trkpt>
<trkpt lat="29.897083" lon="92.728476">
<time>2016-10-08T04:51:46Z</time></trkpt>
<trkpt lat="29.897003" lon="92.728366">
<time>2016-10-08T04:51:47Z</time></trkpt>
<trkpt lat="29.896854" lon="92.728156">
<time>2016-10-08T04:51:48Z</time></trkpt>
<trkpt lat="29.896674" lon="92.727916">
<time>2016-10-08T04:51:49Z</time></trkpt>
<trkpt lat="29.896594" lon="92.727797">
<time>2016-10-08T04:51:50Z</time></trkpt>
<trkpt lat="29.896494" lon="92.727667">
<time>2016-10-08T04:51:51Z</time></trkpt>
<trkpt lat="29.896384" lon="92.727527">
<time>2016-10-08T04:51:52Z</time></trkpt>
<trkpt lat="29.896234" lon="92.727347">
<time>2016-10-08T04:51:53Z</time></trkpt>
<trkpt lat="29.896034" lon="92.727157">
<time>2016-10-08T04:51:54Z</time></trkpt>
<trkpt lat="29.895845" lon="92.726998">
<time>2016-10-08T04:51:55Z</time></trkpt>
<trkpt lat="29.895685" lon="92.726878">
<time>2016-10-08T04:51:56Z</time></trkpt>
<trkpt lat="29.895555" lon="92.726778">
<time>2016-10-08T04:51:57Z</time></trkpt>
<trkpt lat="29.895385" lon="92.726648">
<time>2016-10-08T04:51:58Z</time></trkpt>
<trkpt lat="29.895145" lon="92.726468">
<time>2016-10-08T04:51:59Z</time></trkpt>
<trkpt lat="29.894855" lon="92.726249">
<time>2016-10-08T04:52:00Z</time></trkpt>
<trkpt lat="29.894745" lon="92.726169">
<time>2016-10-08T04:52:01Z</time></trkpt>
<trkpt lat="29.894615" lon="92.726059">
<time>2016-10-08T04:52:02Z</time></trkpt>
<trkpt lat="29.894405" lon="92.725909">
<time>2016-10-08T04:52:03Z</time></trkpt>
<trkpt lat="29.894176" lon="92.725739">
<time>2016-10-08T04:52:04Z</time></trkpt>
<trkpt lat="29.893986" lon="92.725609">
<time>2016-10-08T04:52:05Z</time></trkpt>
<trkpt lat="29.893836" lon="92.72548">
<time>2016-10-08T04:52:06Z</time></trkpt>
<trkpt lat="29.893666" lon="92.72535">
<time>2016-10-08T04:52:07Z</time></trkpt>
<trkpt lat="29.893506" lon="92.72523">
<time>2016-10-08T04:52:08Z</time></trkpt>
<trkpt lat="29.893386" lon="92.72513">
<time>2016-10-08T04:52:09Z</time></trkpt>
<trkpt lat="29.893246" lon="92.72497">
<time>2016-10-08T04:52:10Z</time></trkpt>
<trkpt lat="29.893156" lon="92.72485">
<time>2016-10-08T04:52:11Z</time></trkpt>
<trkpt lat="29.893077" lon="92.724731">
<time>2016-10-08T04:52:12Z</time></trkpt>
<trkpt lat="29.893007" lon="92.724611">
<time>2016-10-08T04:52:13Z</time></trkpt>
<trkpt lat="29.892937" lon="92.724481">
<time>2016-10-08T04:52:14Z</time></trkpt>
<trkpt lat="29.892877" lon="92.724361">
<time>2016-10-08T04:52:15Z</time></trkpt>
<trkpt lat="29.892787" lon="92.724151">
<time>2016-10-08T04:52:16Z</time></trkpt>
<trkpt lat="29.892687" lon="92.723932">
<time>2016-10-08T04:52:17Z</time></trkpt>
<trkpt lat="29.892637" lon="92.723792">
<time>2016-10-08T04:52:18Z</time></trkpt>
<trkpt lat="29.892538" lon="92.723572">
<time>2016-10-08T04:52:19Z</time></trkpt>
<trkpt lat="29.892468" lon="92.723422">
<time>2016-10-08T04:52:20Z</time></trkpt>
<trkpt lat="29.892348" lon="92.723163">
<time>2016-10-08T04:52:21Z</time></trkpt>
<trkpt lat="29.892278" lon="92.722973">
<time>2016-10-08T04:52:22Z</time></trkpt>
<trkpt lat="29.892208" lon="92.722823">
<time>2016-10-08T04:52:23Z</time></trkpt>
<trkpt lat="29.892139" lon="92.722663">
<time>2016-10-08T04:52:24Z</time></trkpt>
<trkpt lat="29.892039" lon="92.722424">
<time>2016-10-08T04:52:25Z</time></trkpt>
<trkpt lat="29.891969" lon="92.722274">
<time>2016-10-08T04:52:26Z</time></trkpt>
<trkpt lat="29.891869" lon="92.722054">
<time>2016-10-08T04:52:27Z</time></trkpt>
<trkpt lat="29.891769" lon="92.721825">
<time>2016-10-08T04:52:28Z</time></trkpt>
<trkpt lat="29.89169" lon="92.721665">
<time>2016-10-08T04:52:29Z</time></trkpt>
<trkpt lat="29.89162" lon="92.721525">
<time>2016-10-08T04:52:30Z</time></trkpt>
<trkpt lat="29.89157" lon="92.721425">
<time>2016-10-08T04:52:31Z</time></trkpt>
<trkpt lat="29.8915" lon="92.721295">
<time>2016-10-08T04:52:32Z</time></trkpt>
<trkpt lat="29.8914" lon="92.721146">
<time>2016-10-08T04:52:33Z</time></trkpt>
<trkpt lat="29.89126" lon="92.720946">
<time>2016-10-08T04:52:34Z</time></trkpt>
<trkpt lat="29.89115" lon="92.720786">
<time>2016-10-08T04:52:35Z</time></trkpt>
<trkpt lat="29.890901" lon="92.720437">
<time>2016-10-08T04:52:36Z</time></trkpt>
<trkpt lat="29.890721" lon="92.720177">
<time>2016-10-08T04:52:37Z</time></trkpt>
<trkpt lat="29.890581" lon="92.719997">
<time>2016-10-08T04:52:38Z</time></trkpt>
<trkpt lat="29.890491" lon="92.719868">
<time>2016-10-08T04:52:39Z</time></trkpt>
<trkpt lat="29.890402" lon="92.719748">
<time>2016-10-08T04:52:40Z</time></trkpt>
<trkpt lat="29.890332" lon="92.719668">
<time>2016-10-08T04:52:41Z</time></trkpt>
<trkpt lat="29.890242" lon="92.719588">
<time>2016-10-08T04:52:42Z</time></trkpt>
<trkpt lat="29.890102" lon="92.719488">
<time>2016-10-08T04:52:43Z</time></trkpt>
<trkpt lat="29.889912" lon="92.719388">
<time>2016-10-08T04:52:44Z</time></trkpt>
<trkpt lat="29.889672" lon="92.719269">
<time>2016-10-08T04:52:45Z</time></trkpt>
<trkpt lat="29.889382" lon="92.719119">
<time>2016-10-08T04:52:46Z</time></trkpt>
<trkpt lat="29.889003" lon="92.718859">
<time>2016-10-08T04:52:47Z</time></trkpt>
<trkpt lat="29.888663" lon="92.71863">
<time>2016-10-08T04:52:48Z</time></trkpt>
<trkpt lat="29.888523" lon="92.71853">
<time>2016-10-08T04:52:49Z</time></trkpt>
<trkpt lat="29.888473" lon="92.7185">
<time>2016-10-08T04:52:50Z</time></trkpt>
<trkpt lat="29.888413" lon="92.71844">
<time>2016-10-08T04:52:51Z</time></trkpt>
<trkpt lat="29.888363" lon="92.7184">
<time>2016-10-08T04:52:52Z</time></trkpt>
<trkpt lat="29.888333" lon="92.71836">
<time>2016-10-08T04:52:53Z</time></trkpt>
<trkpt lat="29.888293" lon="92.71831">
<time>2016-10-08T04:52:54Z</time></trkpt>
<trkpt lat="29.888253" lon="92.71825">
<time>2016-10-08T04:52:55Z</time></trkpt>
<trkpt lat="29.888223" lon="92.7182">
<time>2016-10-08T04:52:56Z</time></trkpt>
<trkpt lat="29.888193" lon="92.71814">
<time>2016-10-08T04:52:57Z</time></trkpt>
<trkpt lat="29.888163" lon="92.71808">
<time>2016-10-08T04:52:58Z</time></trkpt>
<trkpt lat="29.888094" lon="92.717901">
<time>2016-10-08T04:52:59Z</time></trkpt>
<trkpt lat="29.888034" lon="92.717741">
<time>2016-10-08T04:53:00Z</time></trkpt>
<trkpt lat="29.887954" lon="92.717491">
<time>2016-10-08T04:53:01Z</time></trkpt>
<trkpt lat="29.887844" lon="92.717162">
<time>2016-10-08T04:53:02Z</time></trkpt>
<trkpt lat="29.887735" lon="92.716832">
<time>2016-10-08T04:53:03Z</time></trkpt>
<trkpt lat="29.887635" lon="92.716543">
<time>2016-10-08T04:53:04Z</time></trkpt>
<trkpt lat="29.887486" lon="92.716084">
<time>2016-10-08T04:53:05Z</time></trkpt>
<trkpt lat="29.887406" lon="92.715844">
<time>2016-10-08T04:53:06Z</time></trkpt>
<trkpt lat="29.887306" lon="92.715515">
<time>2016-10-08T04:53:07Z</time></trkpt>
<trkpt lat="29.887257" lon="92.715385">
<time>2016-10-08T04:53:08Z</time></trkpt>
<trkpt lat="29.887227" lon="92.715255">
<time>2016-10-08T04:53:09Z</time></trkpt>
<trkpt lat="29.887197" lon="92.715115">
<time>2016-10-08T04:53:10Z</time></trkpt>
<trkpt lat="29.887177" lon="92.714996">
<time>2016-10-08T04:53:11Z</time></trkpt>
<trkpt lat="29.887157" lon="92.714886">
<time>2016-10-08T04:53:12Z</time></trkpt>
<trkpt lat="29.887147" lon="92.714756">
<time>2016-10-08T04:53:13Z</time></trkpt>
<trkpt lat="29.887118" lon="92.714496">
<time>2016-10-08T04:53:14Z</time></trkpt>
<trkpt lat="29.887078" lon="92.714157">
<time>2016-10-08T04:53:15Z</time></trkpt>
<trkpt lat="29.887058" lon="92.714017">
<time>2016-10-08T04:53:16Z</time></trkpt>
<trkpt lat="29.887048" lon="92.713887">
<time>2016-10-08T04:53:17Z</time></trkpt>
<trkpt lat="29.887029" lon="92.713748">
<time>2016-10-08T04:53:18Z</time></trkpt>
<trkpt lat="29.887019" lon="92.713618">
<time>2016-10-08T04:53:19Z</time></trkpt>
<trkpt lat="29.886999" lon="92.713488">
<time>2016-10-08T04:53:20Z</time></trkpt>
<trkpt lat="29.886959" lon="92.713348">
<time>2016-10-08T04:53:21Z</time></trkpt>
<trkpt lat="29.886909" lon="92.713209">
<time>2016-10-08T04:53:22Z</time></trkpt>
<trkpt lat="29.886859" lon="92.713109">
<time>2016-10-08T04:53:23Z</time></trkpt>
<trkpt lat="29.88679" lon="92.712979">
<time>2016-10-08T04:53:24Z</time></trkpt>
<trkpt lat="29.8867" lon="92.712819">
<time>2016-10-08T04:53:25Z</time></trkpt>
<trkpt lat="29.8866" lon="92.71267">
<time>2016-10-08T04:53:26Z</time></trkpt>
<trkpt lat="29.88653" lon="92.71255">
<time>2016-10-08T04:53:27Z</time></trkpt>
<trkpt lat="29.88646" lon="92.71242">
<time>2016-10-08T04:53:28Z</time></trkpt>
<trkpt lat="29.88641" lon="92.71234">
<time>2016-10-08T04:53:29Z</time></trkpt>
<trkpt lat="29.886331" lon="92.71222">
<time>2016-10-08T04:53:30Z</time></trkpt>
<trkpt lat="29.886261" lon="92.712121">
<time>2016-10-08T04:53:31Z</time></trkpt>
<trkpt lat="29.886171" lon="92.712001">
<time>2016-10-08T04:53:32Z</time></trkpt>
<trkpt lat="29.886081" lon="92.711891">
<time>2016-10-08T04:53:33Z</time></trkpt>
<trkpt lat="29.885981" lon="92.711781">
<time>2016-10-08T04:53:34Z</time></trkpt>
<trkpt lat="29.885662" lon="92.711422">
<time>2016-10-08T04:53:35Z</time></trkpt>
<trkpt lat="29.885422" lon="92.711152">
<time>2016-10-08T04:53:36Z</time></trkpt>
<trkpt lat="29.885222" lon="92.710923">
<time>2016-10-08T04:53:37Z</time></trkpt>
<trkpt lat="29.884983" lon="92.710663">
<time>2016-10-08T04:53:38Z</time></trkpt>
<trkpt lat="29.884783" lon="92.710444">
<time>2016-10-08T04:53:39Z</time></trkpt>
<trkpt lat="29.884673" lon="92.710314">
<time>2016-10-08T04:53:40Z</time></trkpt>
<trkpt lat="29.884413" lon="92.710024">
<time>2016-10-08T04:53:41Z</time></trkpt>
<trkpt lat="29.884174" lon="92.709755">
<time>2016-10-08T04:53:42Z</time></trkpt>
<trkpt lat="29.883914" lon="92.709465">
<time>2016-10-08T04:53:43Z</time></trkpt>
<trkpt lat="29.883665" lon="92.709196">
<time>2016-10-08T04:53:44Z</time></trkpt>
<trkpt lat="29.883485" lon="92.708976">
<time>2016-10-08T04:53:45Z</time></trkpt>
<trkpt lat="29.883345" lon="92.708787">
<time>2016-10-08T04:53:46Z</time></trkpt>
<trkpt lat="29.883235" lon="92.708617">
<time>2016-10-08T04:53:47Z</time></trkpt>
<trkpt lat="29.883126" lon="92.708407">
<time>2016-10-08T04:53:48Z</time></trkpt>
<trkpt lat="29.883046" lon="92.708238">
<time>2016-10-08T04:53:49Z</time></trkpt>
<trkpt lat="29.882976" lon="92.708058">
<time>2016-10-08T04:53:50Z</time></trkpt>
<trkpt lat="29.882907" lon="92.707859">
<time>2016-10-08T04:53:51Z</time></trkpt>
<trkpt lat="29.882807" lon="92.707599">
<time>2016-10-08T04:53:52Z</time></trkpt>
<trkpt lat="29.882648" lon="92.70714">
<time>2016-10-08T04:53:53Z</time></trkpt>
<trkpt lat="29.882538" lon="92.706831">
<time>2016-10-08T04:53:54Z</time></trkpt>
<trkpt lat="29.882419" lon="92.706461">
<time>2016-10-08T04:53:55Z</time></trkpt>
<trkpt lat="29.882289" lon="92.706102">
<time>2016-10-08T04:53:56Z</time></trkpt>
<trkpt lat="29.882209" lon="92.705872">
<time>2016-10-08T04:53:57Z</time></trkpt>
<trkpt lat="29.88212" lon="92.705663">
<time>2016-10-08T04:53:58Z</time></trkpt>
<trkpt lat="29.88201" lon="92.705333">
<time>2016-10-08T04:53:59Z</time></trkpt>
<trkpt lat="29.88198" lon="92.705244">
<time>2016-10-08T04:54:00Z</time></trkpt>
<trkpt lat="29.881901" lon="92.705044">
<time>2016-10-08T04:54:01Z</time></trkpt>
<trkpt lat="29.881811" lon="92.704785">
<time>2016-10-08T04:54:02Z</time></trkpt>
<trkpt lat="29.881751" lon="92.704625">
<time>2016-10-08T04:54:03Z</time></trkpt>
<trkpt lat="29.881682" lon="92.704405">
<time>2016-10-08T04:54:04Z</time></trkpt>
<trkpt lat="29.881632" lon="92.704286">
<time>2016-10-08T04:54:05Z</time></trkpt>
<trkpt lat="29.881562" lon="92.704076">
<time>2016-10-08T04:54:06Z</time></trkpt>
<trkpt lat="29.881512" lon="92.703936">
<time>2016-10-08T04:54:07Z</time></trkpt>
<trkpt lat="29.881462" lon="92.703807">
<time>2016-10-08T04:54:08Z</time></trkpt>
<trkpt lat="29.881403" lon="92.703677">
<time>2016-10-08T04:54:09Z</time></trkpt>
<trkpt lat="29.881343" lon="92.703567">
<time>2016-10-08T04:54:10Z</time></trkpt>
<trkpt lat="29.881303" lon="92.703507">
<time>2016-10-08T04:54:11Z</time></trkpt>
<trkpt lat="29.881283" lon="92.703467">
<time>2016-10-08T04:54:12Z</time></trkpt>
<trkpt lat="29.881243" lon="92.703417">
<time>2016-10-08T04:54:13Z</time></trkpt>
<trkpt lat="29.881203" lon="92.703377">
<time>2016-10-08T04:54:14Z</time></trkpt>
<trkpt lat="29.881143" lon="92.703318">
<time>2016-10-08T04:54:15Z</time></trkpt>
<trkpt lat="29.881093" lon="92.703268">
<time>2016-10-08T04:54:16Z</time></trkpt>
<trkpt lat="29.880963" lon="92.703158">
<time>2016-10-08T04:54:17Z</time></trkpt>
<trkpt lat="29.880854" lon="92.703058">
<time>2016-10-08T04:54:18Z</time></trkpt>
<trkpt lat="29.880734" lon="92.702948">
<time>2016-10-08T04:54:19Z</time></trkpt>
<trkpt lat="29.880604" lon="92.702839">
<time>2016-10-08T04:54:20Z</time></trkpt>
<trkpt lat="29.880504" lon="92.702749">
<time>2016-10-08T04:54:21Z</time></trkpt>
<trkpt lat="29.880364" lon="92.702629">
<time>2016-10-08T04:54:22Z</time></trkpt>
<trkpt lat="29.880244" lon="92.702529">
<time>2016-10-08T04:54:23Z</time></trkpt>
<trkpt lat="29.880155" lon="92.702429">
<time>2016-10-08T04:54:24Z</time></trkpt>
<trkpt lat="29.880075" lon="92.70233">
<time>2016-10-08T04:54:25Z</time></trkpt>
<trkpt lat="29.879975" lon="92.70221">
<time>2016-10-08T04:54:26Z</time></trkpt>
<trkpt lat="29.879875" lon="92.70208">
<time>2016-10-08T04:54:27Z</time></trkpt>
<trkpt lat="29.879795" lon="92.70197">
<time>2016-10-08T04:54:28Z</time></trkpt>
<trkpt lat="29.879726" lon="92.701871">
<time>2016-10-08T04:54:29Z</time></trkpt>
<trkpt lat="29.879656" lon="92.701771">
<time>2016-10-08T04:54:30Z</time></trkpt>
<trkpt lat="29.879596" lon="92.701671">
<time>2016-10-08T04:54:31Z</time></trkpt>
<trkpt lat="29.879526" lon="92.701551">
<time>2016-10-08T04:54:32Z</time></trkpt>
<trkpt lat="29.879426" lon="92.701372">
<time>2016-10-08T04:54:33Z</time></trkpt>
<trkpt lat="29.879366" lon="92.701242">
<time>2016-10-08T04:54:34Z</time></trkpt>
<trkpt lat="29.879317" lon="92.701162">
<time>2016-10-08T04:54:35Z</time></trkpt>
<trkpt lat="29.879267" lon="92.701052">
<time>2016-10-08T04:54:36Z</time></trkpt>
<trkpt lat="29.879197" lon="92.700933">
<time>2016-10-08T04:54:37Z</time></trkpt>
<trkpt lat="29.879137" lon="92.700813">
<time>2016-10-08T04:54:38Z</time></trkpt>
<trkpt lat="29.879028" lon="92.700613">
<time>2016-10-08T04:54:39Z</time></trkpt>
<trkpt lat="29.878968" lon="92.700493">
<time>2016-10-08T04:54:40Z</time></trkpt>
<trkpt lat="29.878918" lon="92.700384">
<time>2016-10-08T04:54:41Z</time></trkpt>
<trkpt lat="29.878858" lon="92.700264">
<time>2016-10-08T04:54:42Z</time></trkpt>
<trkpt lat="29.878768" lon="92.700064">
<time>2016-10-08T04:54:43Z</time></trkpt>
<trkpt lat="29.878719" lon="92.699965">
<time>2016-10-08T04:54:44Z</time></trkpt>
<trkpt lat="29.878659" lon="92.699845">
<time>2016-10-08T04:54:45Z</time></trkpt>
<trkpt lat="29.878569" lon="92.699655">
<time>2016-10-08T04:54:46Z</time></trkpt>
<trkpt lat="29.878519" lon="92.699535">
<time>2016-10-08T04:54:47Z</time></trkpt>
<trkpt lat="29.87843" lon="92.699336">
<time>2016-10-08T04:54:48Z</time></trkpt>
<trkpt lat="29.87834" lon="92.699156">
<time>2016-10-08T04:54:49Z</time></trkpt>
<trkpt lat="29.87826" lon="92.698967">
<time>2016-10-08T04:54:50Z</time></trkpt>
<trkpt lat="29.87821" lon="92.698877">
<time>2016-10-08T04:54:51Z</time></trkpt>
<trkpt lat="29.878151" lon="92.698717">
<time>2016-10-08T04:54:52Z</time></trkpt>
<trkpt lat="29.878061" lon="92.698518">
<time>2016-10-08T04:54:53Z</time></trkpt>
<trkpt lat="29.878001" lon="92.698358">
<time>2016-10-08T04:54:54Z</time></trkpt>
<trkpt lat="29.877961" lon="92.698248">
<time>2016-10-08T04:54:55Z</time></trkpt>
<trkpt lat="29.877912" lon="92.698138">
<time>2016-10-08T04:54:56Z</time></trkpt>
<trkpt lat="29.877842" lon="92.697929">
<time>2016-10-08T04:54:57Z</time></trkpt>
<trkpt lat="29.877772" lon="92.697729">
<time>2016-10-08T04:54:58Z</time></trkpt>
<trkpt lat="29.877703" lon="92.69754">
<time>2016-10-08T04:54:59Z</time></trkpt>
<trkpt lat="29.877633" lon="92.69735">
<time>2016-10-08T04:55:00Z</time></trkpt>
<trkpt lat="29.877573" lon="92.697181">
<time>2016-10-08T04:55:01Z</time></trkpt>
<trkpt lat="29.877543" lon="92.697101">
<time>2016-10-08T04:55:02Z</time></trkpt>
<trkpt lat="29.877474" lon="92.696901">
<time>2016-10-08T04:55:03Z</time></trkpt>
<trkpt lat="29.877394" lon="92.696692">
<time>2016-10-08T04:55:04Z</time></trkpt>
<trkpt lat="29.877314" lon="92.696462">
<time>2016-10-08T04:55:05Z</time></trkpt>
<trkpt lat="29.877255" lon="92.696293">
<time>2016-10-08T04:55:06Z</time></trkpt>
<trkpt lat="29.877195" lon="92.696143">
<time>2016-10-08T04:55:07Z</time></trkpt>
<trkpt lat="29.877145" lon="92.696003">
<time>2016-10-08T04:55:08Z</time></trkpt>
<trkpt lat="29.877075" lon="92.695814">
<time>2016-10-08T04:55:09Z</time></trkpt>
<trkpt lat="29.877006" lon="92.695614">
<time>2016-10-08T04:55:10Z</time></trkpt>
<trkpt lat="29.876936" lon="92.695414">
<time>2016-10-08T04:55:11Z</time></trkpt>
<trkpt lat="29.876837" lon="92.695135">
<time>2016-10-08T04:55:12Z</time></trkpt>
<trkpt lat="29.876717" lon="92.694826">
<time>2016-10-08T04:55:13Z</time></trkpt>
<trkpt lat="29.876637" lon="92.694606">
<time>2016-10-08T04:55:14Z</time></trkpt>
<trkpt lat="29.876558" lon="92.694377">
<time>2016-10-08T04:55:15Z</time></trkpt>
<trkpt lat="29.876488" lon="92.694197">
<time>2016-10-08T04:55:16Z</time></trkpt>
<trkpt lat="29.876399" lon="92.693948">
<time>2016-10-08T04:55:17Z</time></trkpt>
<trkpt lat="29.876269" lon="92.693569">
<time>2016-10-08T04:55:18Z</time></trkpt>
<trkpt lat="29.87612" lon="92.69316">
<time>2016-10-08T04:55:19Z</time></trkpt>
<trkpt lat="29.876001" lon="92.69284">
<time>2016-10-08T04:55:20Z</time></trkpt>
<trkpt lat="29.875931" lon="92.692641">
<time>2016-10-08T04:55:21Z</time></trkpt>
<trkpt lat="29.875851" lon="92.692421">
<time>2016-10-08T04:55:22Z</time></trkpt>
<trkpt lat="29.875782" lon="92.692212">
<time>2016-10-08T04:55:23Z</time></trkpt>
<trkpt lat="29.875722" lon="92.692002">
<time>2016-10-08T04:55:24Z</time></trkpt>
<trkpt lat="29.875682" lon="92.691872">
<time>2016-10-08T04:55:25Z</time></trkpt>
<trkpt lat="29.875603" lon="92.691613">
<time>2016-10-08T04:55:26Z</time></trkpt>
<trkpt lat="29.875543" lon="92.691404">
<time>2016-10-08T04:55:27Z</time></trkpt>
<trkpt lat="29.875483" lon="92.691184">
<time>2016-10-08T04:55:28Z</time></trkpt>
<trkpt lat="29.875414" lon="92.690965">
<time>2016-10-08T04:55:29Z</time></trkpt>
<trkpt lat="29.875344" lon="92.690765">
<time>2016-10-08T04:55:30Z</time></trkpt>
<trkpt lat="29.875304" lon="92.690655">
<time>2016-10-08T04:55:31Z</time></trkpt>
<trkpt lat="29.875275" lon="92.690575">
<time>2016-10-08T04:55:32Z</time></trkpt>
<trkpt lat="29.875215" lon="92.690446">
<time>2016-10-08T04:55:33Z</time></trkpt>
<trkpt lat="29.875165" lon="92.690326">
<time>2016-10-08T04:55:34Z</time></trkpt>
<trkpt lat="29.875105" lon="92.690206">
<time>2016-10-08T04:55:35Z</time></trkpt>
<trkpt lat="29.875035" lon="92.690047">
<time>2016-10-08T04:55:36Z</time></trkpt>
<trkpt lat="29.874946" lon="92.689827">
<time>2016-10-08T04:55:37Z</time></trkpt>
<trkpt lat="29.874906" lon="92.689717">
<time>2016-10-08T04:55:38Z</time></trkpt>
<trkpt lat="29.874866" lon="92.689608">
<time>2016-10-08T04:55:39Z</time></trkpt>
<trkpt lat="29.874827" lon="92.689418">
<time>2016-10-08T04:55:40Z</time></trkpt>
<trkpt lat="29.874807" lon="92.689308">
<time>2016-10-08T04:55:41Z</time></trkpt>
<trkpt lat="29.874787" lon="92.689149">
<time>2016-10-08T04:55:42Z</time></trkpt>
<trkpt lat="29.874777" lon="92.689089">
<time>2016-10-08T04:55:43Z</time></trkpt>
<trkpt lat="29.874767" lon="92.688999">
<time>2016-10-08T04:55:44Z</time></trkpt>
<trkpt lat="29.874757" lon="92.688939">
<time>2016-10-08T04:55:45Z</time></trkpt>
<trkpt lat="29.874758" lon="92.688869">
<time>2016-10-08T04:55:46Z</time></trkpt>
<trkpt lat="29.874748" lon="92.68875">
<time>2016-10-08T04:55:47Z</time></trkpt>
<trkpt lat="29.874728" lon="92.68864">
<time>2016-10-08T04:55:48Z</time></trkpt>
<trkpt lat="29.874718" lon="92.68853">
<time>2016-10-08T04:55:49Z</time></trkpt>
<trkpt lat="29.874708" lon="92.68841">
<time>2016-10-08T04:55:50Z</time></trkpt>
<trkpt lat="29.874709" lon="92.688261">
<time>2016-10-08T04:55:51Z</time></trkpt>
<trkpt lat="29.874699" lon="92.688171">
<time>2016-10-08T04:55:52Z</time></trkpt>
<trkpt lat="29.874709" lon="92.688061">
<time>2016-10-08T04:55:53Z</time></trkpt>
<trkpt lat="29.874709" lon="92.687932">
<time>2016-10-08T04:55:54Z</time></trkpt>
<trkpt lat="29.874719" lon="92.687812">
<time>2016-10-08T04:55:55Z</time></trkpt>
<trkpt lat="29.87474" lon="92.687612">
<time>2016-10-08T04:55:56Z</time></trkpt>
<trkpt lat="29.87476" lon="92.687443">
<time>2016-10-08T04:55:57Z</time></trkpt>
<trkpt lat="29.87476" lon="92.687323">
<time>2016-10-08T04:55:58Z</time></trkpt>
<trkpt lat="29.874761" lon="92.687233">
<time>2016-10-08T04:55:59Z</time></trkpt>
<trkpt lat="29.874751" lon="92.687183">
<time>2016-10-08T04:56:00Z</time></trkpt>
<trkpt lat="29.874741" lon="92.687133">
<time>2016-10-08T04:56:01Z</time></trkpt>
<trkpt lat="29.874731" lon="92.687084">
<time>2016-10-08T04:56:02Z</time></trkpt>
<trkpt lat="29.874711" lon="92.687044">
<time>2016-10-08T04:56:03Z</time></trkpt>
<trkpt lat="29.874691" lon="92.687004">
<time>2016-10-08T04:56:04Z</time></trkpt>
<trkpt lat="29.874661" lon="92.686954">
<time>2016-10-08T04:56:05Z</time></trkpt>
<trkpt lat="29.874611" lon="92.686904">
<time>2016-10-08T04:56:06Z</time></trkpt>
<trkpt lat="29.874581" lon="92.686864">
<time>2016-10-08T04:56:07Z</time></trkpt>
<trkpt lat="29.874541" lon="92.686844">
<time>2016-10-08T04:56:08Z</time></trkpt>
<trkpt lat="29.874481" lon="92.686804">
<time>2016-10-08T04:56:09Z</time></trkpt>
<trkpt lat="29.874421" lon="92.686774">
<time>2016-10-08T04:56:10Z</time></trkpt>
<trkpt lat="29.874351" lon="92.686734">
<time>2016-10-08T04:56:11Z</time></trkpt>
<trkpt lat="29.874281" lon="92.686704">
<time>2016-10-08T04:56:12Z</time></trkpt>
<trkpt lat="29.874212" lon="92.686665">
<time>2016-10-08T04:56:13Z</time></trkpt>
<trkpt lat="29.874122" lon="92.686625">
<time>2016-10-08T04:56:14Z</time></trkpt>
<trkpt lat="29.874042" lon="92.686585">
<time>2016-10-08T04:56:15Z</time></trkpt>
<trkpt lat="29.873952" lon="92.686545">
<time>2016-10-08T04:56:16Z</time></trkpt>
<trkpt lat="29.873842" lon="92.686475">
<time>2016-10-08T04:56:17Z</time></trkpt>
<trkpt lat="29.873782" lon="92.686435">
<time>2016-10-08T04:56:18Z</time></trkpt>
<trkpt lat="29.873732" lon="92.686365">
<time>2016-10-08T04:56:19Z</time></trkpt>
<trkpt lat="29.873712" lon="92.686315">
<time>2016-10-08T04:56:20Z</time></trkpt>
<trkpt lat="29.873692" lon="92.686266">
<time>2016-10-08T04:56:21Z</time></trkpt>
<trkpt lat="29.873672" lon="92.686226">
<time>2016-10-08T04:56:22Z</time></trkpt>
<trkpt lat="29.873662" lon="92.686176">
<time>2016-10-08T04:56:23Z</time></trkpt>
<trkpt lat="29.873663" lon="92.686136">
<time>2016-10-08T04:56:24Z</time></trkpt>
<trkpt lat="29.873663" lon="92.686036">
<time>2016-10-08T04:56:25Z</time></trkpt>
<trkpt lat="29.873673" lon="92.685956">
<time>2016-10-08T04:56:26Z</time></trkpt>
<trkpt lat="29.873683" lon="92.685896">
<time>2016-10-08T04:56:27Z</time></trkpt>
<trkpt lat="29.873693" lon="92.685827">
<time>2016-10-08T04:56:28Z</time></trkpt>
<trkpt lat="29.873703" lon="92.685757">
<time>2016-10-08T04:56:29Z</time></trkpt>
<trkpt lat="29.873713" lon="92.685677">
<time>2016-10-08T04:56:30Z</time></trkpt>
<trkpt lat="29.873754" lon="92.685497">
<time>2016-10-08T04:56:31Z</time></trkpt>
<trkpt lat="29.873784" lon="92.685378">
<time>2016-10-08T04:56:32Z</time></trkpt>
<trkpt lat="29.873804" lon="92.685318">
<time>2016-10-08T04:56:33Z</time></trkpt>
<trkpt lat="29.873804" lon="92.685318">
<time>2016-10-08T04:56:34Z</time></trkpt>
<trkpt lat="29.873824" lon="92.685298">
<time>2016-10-08T04:56:35Z</time></trkpt>
<trkpt lat="29.873844" lon="92.685288">
<time>2016-10-08T04:56:36Z</time></trkpt>
<trkpt lat="29.873864" lon="92.685268">
<time>2016-10-08T04:56:37Z</time></trkpt>
<trkpt lat="29.873874" lon="92.685228">
<time>2016-10-08T04:56:38Z</time></trkpt>
<trkpt lat="29.873894" lon="92.685188">
<time>2016-10-08T04:56:39Z</time></trkpt>
<trkpt lat="29.873894" lon="92.685168">
<time>2016-10-08T04:56:40Z</time></trkpt>
<trkpt lat="29.873904" lon="92.685138">
<time>2016-10-08T04:56:41Z</time></trkpt>
<trkpt lat="29.873915" lon="92.685058">
<time>2016-10-08T04:56:42Z</time></trkpt>
<trkpt lat="29.873925" lon="92.684959">
<time>2016-10-08T04:56:43Z</time></trkpt>
<trkpt lat="29.873955" lon="92.684819">
<time>2016-10-08T04:56:44Z</time></trkpt>
<trkpt lat="29.873975" lon="92.684649">
<time>2016-10-08T04:56:45Z</time></trkpt>
<trkpt lat="29.873975" lon="92.684599">
<time>2016-10-08T04:56:46Z</time></trkpt>
<trkpt lat="29.873975" lon="92.68455">
<time>2016-10-08T04:56:47Z</time></trkpt>
<trkpt lat="29.873966" lon="92.6845">
<time>2016-10-08T04:56:48Z</time></trkpt>
<trkpt lat="29.873966" lon="92.68446">
<time>2016-10-08T04:56:49Z</time></trkpt>
<trkpt lat="29.873966" lon="92.68438">
<time>2016-10-08T04:56:50Z</time></trkpt>
<trkpt lat="29.873966" lon="92.68426">
<time>2016-10-08T04:56:51Z</time></trkpt>
<trkpt lat="29.873966" lon="92.684141">
<time>2016-10-08T04:56:52Z</time></trkpt>
<trkpt lat="29.873997" lon="92.683951">
<time>2016-10-08T04:56:53Z</time></trkpt>
<trkpt lat="29.874027" lon="92.683761">
<time>2016-10-08T04:56:54Z</time></trkpt>
<trkpt lat="29.874057" lon="92.683612">
<time>2016-10-08T04:56:55Z</time></trkpt>
<trkpt lat="29.874088" lon="92.683412">
<time>2016-10-08T04:56:56Z</time></trkpt>
<trkpt lat="29.874088" lon="92.683283">
<time>2016-10-08T04:56:57Z</time></trkpt>
<trkpt lat="29.874078" lon="92.683183">
<time>2016-10-08T04:56:58Z</time></trkpt>
<trkpt lat="29.874068" lon="92.683103">
<time>2016-10-08T04:56:59Z</time></trkpt>
<trkpt lat="29.874038" lon="92.683053">
<time>2016-10-08T04:57:00Z</time></trkpt>
<trkpt lat="29.874008" lon="92.682983">
<time>2016-10-08T04:57:01Z</time></trkpt>
<trkpt lat="29.873978" lon="92.682923">
<time>2016-10-08T04:57:02Z</time></trkpt>
<trkpt lat="29.873929" lon="92.682864">
<time>2016-10-08T04:57:03Z</time></trkpt>
<trkpt lat="29.873889" lon="92.682814">
<time>2016-10-08T04:57:04Z</time></trkpt>
<trkpt lat="29.873829" lon="92.682744">
<time>2016-10-08T04:57:05Z</time></trkpt>
<trkpt lat="29.873659" lon="92.682554">
<time>2016-10-08T04:57:06Z</time></trkpt>
<trkpt lat="29.873579" lon="92.682465">
<time>2016-10-08T04:57:07Z</time></trkpt>
<trkpt lat="29.87346" lon="92.682335">
<time>2016-10-08T04:57:08Z</time></trkpt>
<trkpt lat="29.87338" lon="92.682245">
<time>2016-10-08T04:57:09Z</time></trkpt>
<trkpt lat="29.8733" lon="92.682125">
<time>2016-10-08T04:57:10Z</time></trkpt>
<trkpt lat="29.87322" lon="92.682026">
<time>2016-10-08T04:57:11Z</time></trkpt>
<trkpt lat="29.87314" lon="92.681876">
<time>2016-10-08T04:57:12Z</time></trkpt>
<trkpt lat="29.873111" lon="92.681806">
<time>2016-10-08T04:57:13Z</time></trkpt>
<trkpt lat="29.873041" lon="92.681677">
<time>2016-10-08T04:57:14Z</time></trkpt>
<trkpt lat="29.872951" lon="92.681447">
<time>2016-10-08T04:57:15Z</time></trkpt>
<trkpt lat="29.872892" lon="92.681248">
<time>2016-10-08T04:57:16Z</time></trkpt>
<trkpt lat="29.872812" lon="92.680988">
<time>2016-10-08T04:57:17Z</time></trkpt>
<trkpt lat="29.872733" lon="92.680739">
<time>2016-10-08T04:57:18Z</time></trkpt>
<trkpt lat="29.872633" lon="92.680459">
<time>2016-10-08T04:57:19Z</time></trkpt>
<trkpt lat="29.872544" lon="92.68024">
<time>2016-10-08T04:57:20Z</time></trkpt>
<trkpt lat="29.872444" lon="92.68006">
<time>2016-10-08T04:57:21Z</time></trkpt>
<trkpt lat="29.872354" lon="92.679921">
<time>2016-10-08T04:57:22Z</time></trkpt>
<trkpt lat="29.872234" lon="92.679771">
<time>2016-10-08T04:57:23Z</time></trkpt>
<trkpt lat="29.872165" lon="92.679691">
<time>2016-10-08T04:57:24Z</time></trkpt>
<trkpt lat="29.872035" lon="92.679562">
<time>2016-10-08T04:57:25Z</time></trkpt>
<trkpt lat="29.871925" lon="92.679462">
<time>2016-10-08T04:57:26Z</time></trkpt>
<trkpt lat="29.871656" lon="92.679222">
<time>2016-10-08T04:57:27Z</time></trkpt>
<trkpt lat="29.871516" lon="92.679093">
<time>2016-10-08T04:57:28Z</time></trkpt>
<trkpt lat="29.871366" lon="92.678963">
<time>2016-10-08T04:57:29Z</time></trkpt>
<trkpt lat="29.871116" lon="92.678734">
<time>2016-10-08T04:57:30Z</time></trkpt>
<trkpt lat="29.870907" lon="92.678524">
<time>2016-10-08T04:57:31Z</time></trkpt>
<trkpt lat="29.870697" lon="92.678325">
<time>2016-10-08T04:57:32Z</time></trkpt>
<trkpt lat="29.870418" lon="92.678035">
<time>2016-10-08T04:57:33Z</time></trkpt>
<trkpt lat="29.870298" lon="92.677906">
<time>2016-10-08T04:57:34Z</time></trkpt>
<trkpt lat="29.870148" lon="92.677746">
<time>2016-10-08T04:57:35Z</time></trkpt>
<trkpt lat="29.869979" lon="92.677567">
<time>2016-10-08T04:57:36Z</time></trkpt>
<trkpt lat="29.869759" lon="92.677337">
<time>2016-10-08T04:57:37Z</time></trkpt>
<trkpt lat="29.8696" lon="92.677158">
<time>2016-10-08T04:57:38Z</time></trkpt>
<trkpt lat="29.86944" lon="92.676998">
<time>2016-10-08T04:57:39Z</time></trkpt>
<trkpt lat="29.86928" lon="92.676828">
<time>2016-10-08T04:57:40Z</time></trkpt>
<trkpt lat="29.86916" lon="92.676689">
<time>2016-10-08T04:57:41Z</time></trkpt>
<trkpt lat="29.869031" lon="92.676539">
<time>2016-10-08T04:57:42Z</time></trkpt>
<trkpt lat="29.868941" lon="92.676429">
<time>2016-10-08T04:57:43Z</time></trkpt>
<trkpt lat="29.868851" lon="92.67628">
<time>2016-10-08T04:57:44Z</time></trkpt>
<trkpt lat="29.868752" lon="92.67609">
<time>2016-10-08T04:57:45Z</time></trkpt>
<trkpt lat="29.868672" lon="92.675881">
<time>2016-10-08T04:57:46Z</time></trkpt>
<trkpt lat="29.868553" lon="92.675532">
<time>2016-10-08T04:57:47Z</time></trkpt>
<trkpt lat="29.868413" lon="92.675142">
<time>2016-10-08T04:57:48Z</time></trkpt>
<trkpt lat="29.868214" lon="92.674594">
<time>2016-10-08T04:57:49Z</time></trkpt>
<trkpt lat="29.868075" lon="92.674225">
<time>2016-10-08T04:57:50Z</time></trkpt>
<trkpt lat="29.867986" lon="92.673975">
<time>2016-10-08T04:57:51Z</time></trkpt>
<trkpt lat="29.867896" lon="92.673716">
<time>2016-10-08T04:57:52Z</time></trkpt>
<trkpt lat="29.867817" lon="92.673467">
<time>2016-10-08T04:57:53Z</time></trkpt>
<trkpt lat="29.867678" lon="92.672988">
<time>2016-10-08T04:57:54Z</time></trkpt>
<trkpt lat="29.867628" lon="92.672758">
<time>2016-10-08T04:57:55Z</time></trkpt>
<trkpt lat="29.867578" lon="92.672569">
<time>2016-10-08T04:57:56Z</time></trkpt>
<trkpt lat="29.867559" lon="92.672479">
<time>2016-10-08T04:57:57Z</time></trkpt>
<trkpt lat="29.867539" lon="92.672359">
<time>2016-10-08T04:57:58Z</time></trkpt>
<trkpt lat="29.867529" lon="92.67224">
<time>2016-10-08T04:57:59Z</time></trkpt>
<trkpt lat="29.867529" lon="92.67201">
<time>2016-10-08T04:58:00Z</time></trkpt>
<trkpt lat="29.86754" lon="92.671831">
<time>2016-10-08T04:58:01Z</time></trkpt>
<trkpt lat="29.86755" lon="92.671651">
<time>2016-10-08T04:58:02Z</time></trkpt>
<trkpt lat="29.867621" lon="92.671362">
<time>2016-10-08T04:58:03Z</time></trkpt>
<trkpt lat="29.867721" lon="92.671072">
<time>2016-10-08T04:58:04Z</time></trkpt>
<trkpt lat="29.867963" lon="92.670364">
<time>2016-10-08T04:58:05Z</time></trkpt>
<trkpt lat="29.868234" lon="92.669586">
<time>2016-10-08T04:58:06Z</time></trkpt>
<trkpt lat="29.868556" lon="92.668668">
<time>2016-10-08T04:58:07Z</time></trkpt>
<trkpt lat="29.868717" lon="92.668209">
<time>2016-10-08T04:58:08Z</time></trkpt>
<trkpt lat="29.868857" lon="92.66782">
<time>2016-10-08T04:58:09Z</time></trkpt>
<trkpt lat="29.868968" lon="92.667601">
<time>2016-10-08T04:58:10Z</time></trkpt>
<trkpt lat="29.869088" lon="92.667352">
<time>2016-10-08T04:58:11Z</time></trkpt>
<trkpt lat="29.869269" lon="92.667032">
<time>2016-10-08T04:58:12Z</time></trkpt>
<trkpt lat="29.86952" lon="92.666603">
<time>2016-10-08T04:58:13Z</time></trkpt>
<trkpt lat="29.86967" lon="92.666354">
<time>2016-10-08T04:58:14Z</time></trkpt>
<trkpt lat="29.869841" lon="92.666025">
<time>2016-10-08T04:58:15Z</time></trkpt>
<trkpt lat="29.870162" lon="92.665476">
<time>2016-10-08T04:58:16Z</time></trkpt>
<trkpt lat="29.870523" lon="92.664848">
<time>2016-10-08T04:58:17Z</time></trkpt>
<trkpt lat="29.870784" lon="92.664409">
<time>2016-10-08T04:58:18Z</time></trkpt>
<trkpt lat="29.871015" lon="92.66401">
<time>2016-10-08T04:58:19Z</time></trkpt>
<trkpt lat="29.871145" lon="92.66378">
<time>2016-10-08T04:58:20Z</time></trkpt>
<trkpt lat="29.871235" lon="92.663571">
<time>2016-10-08T04:58:21Z</time></trkpt>
<trkpt lat="29.871316" lon="92.663351">
<time>2016-10-08T04:58:22Z</time></trkpt>
<trkpt lat="29.871376" lon="92.663142">
<time>2016-10-08T04:58:23Z</time></trkpt>
<trkpt lat="29.871396" lon="92.663002">
<time>2016-10-08T04:58:24Z</time></trkpt>
<trkpt lat="29.871407" lon="92.662832">
<time>2016-10-08T04:58:25Z</time></trkpt>
<trkpt lat="29.871407" lon="92.662653">
<time>2016-10-08T04:58:26Z</time></trkpt>
<trkpt lat="29.871397" lon="92.662513">
<time>2016-10-08T04:58:27Z</time></trkpt>
<trkpt lat="29.871388" lon="92.662423">
<time>2016-10-08T04:58:28Z</time></trkpt>
<trkpt lat="29.871378" lon="92.662324">
<time>2016-10-08T04:58:29Z</time></trkpt>
<trkpt lat="29.871358" lon="92.662234">
<time>2016-10-08T04:58:30Z</time></trkpt>
<trkpt lat="29.871328" lon="92.662114">
<time>2016-10-08T04:58:31Z</time></trkpt>
<trkpt lat="29.871298" lon="92.662014">
<time>2016-10-08T04:58:32Z</time></trkpt>
<trkpt lat="29.871179" lon="92.661625">
<time>2016-10-08T04:58:33Z</time></trkpt>
<trkpt lat="29.87097" lon="92.661017">
<time>2016-10-08T04:58:34Z</time></trkpt>
<trkpt lat="29.870761" lon="92.660378">
<time>2016-10-08T04:58:35Z</time></trkpt>
<trkpt lat="29.870702" lon="92.660199">
<time>2016-10-08T04:58:36Z</time></trkpt>
<trkpt lat="29.870652" lon="92.660019">
<time>2016-10-08T04:58:37Z</time></trkpt>
<trkpt lat="29.870612" lon="92.6599">
<time>2016-10-08T04:58:38Z</time></trkpt>
<trkpt lat="29.870583" lon="92.65974">
<time>2016-10-08T04:58:39Z</time></trkpt>
<trkpt lat="29.870563" lon="92.65961">
<time>2016-10-08T04:58:40Z</time></trkpt>
<trkpt lat="29.870563" lon="92.659471">
<time>2016-10-08T04:58:41Z</time></trkpt>
<trkpt lat="29.870563" lon="92.659331">
<time>2016-10-08T04:58:42Z</time></trkpt>
<trkpt lat="29.870604" lon="92.659161">
<time>2016-10-08T04:58:43Z</time></trkpt>
<trkpt lat="29.870644" lon="92.659012">
<time>2016-10-08T04:58:44Z</time></trkpt>
<trkpt lat="29.870694" lon="92.658862">
<time>2016-10-08T04:58:45Z</time></trkpt>
<trkpt lat="29.870815" lon="92.658563">
<time>2016-10-08T04:58:46Z</time></trkpt>
<trkpt lat="29.870955" lon="92.658233">
<time>2016-10-08T04:58:47Z</time></trkpt>
<trkpt lat="29.871056" lon="92.657954">
<time>2016-10-08T04:58:48Z</time></trkpt>
<trkpt lat="29.871177" lon="92.657645">
<time>2016-10-08T04:58:49Z</time></trkpt>
<trkpt lat="29.871237" lon="92.657445">
<time>2016-10-08T04:58:50Z</time></trkpt>
<trkpt lat="29.871388" lon="92.656996">
<time>2016-10-08T04:58:51Z</time></trkpt>
<trkpt lat="29.871498" lon="92.656637">
<time>2016-10-08T04:58:52Z</time></trkpt>
<trkpt lat="29.871569" lon="92.656418">
<time>2016-10-08T04:58:53Z</time></trkpt>
<trkpt lat="29.871649" lon="92.656178">
<time>2016-10-08T04:58:54Z</time></trkpt>
<trkpt lat="29.87171" lon="92.655979">
<time>2016-10-08T04:58:55Z</time></trkpt>
<trkpt lat="29.87175" lon="92.655799">
<time>2016-10-08T04:58:56Z</time></trkpt>
<trkpt lat="29.87178" lon="92.65558">
<time>2016-10-08T04:58:57Z</time></trkpt>
<trkpt lat="29.871801" lon="92.65545">
<time>2016-10-08T04:58:58Z</time></trkpt>
<trkpt lat="29.871821" lon="92.65532">
<time>2016-10-08T04:58:59Z</time></trkpt>
<trkpt lat="29.871871" lon="92.655001">
<time>2016-10-08T04:59:00Z</time></trkpt>
<trkpt lat="29.871922" lon="92.654801">
<time>2016-10-08T04:59:01Z</time></trkpt>
<trkpt lat="29.871972" lon="92.654642">
<time>2016-10-08T04:59:02Z</time></trkpt>
<trkpt lat="29.872083" lon="92.654323">
<time>2016-10-08T04:59:03Z</time></trkpt>
<trkpt lat="29.872223" lon="92.653943">
<time>2016-10-08T04:59:04Z</time></trkpt>
<trkpt lat="29.872314" lon="92.653734">
<time>2016-10-08T04:59:05Z</time></trkpt>
<trkpt lat="29.872364" lon="92.653594">
<time>2016-10-08T04:59:06Z</time></trkpt>
<trkpt lat="29.872404" lon="92.653475">
<time>2016-10-08T04:59:07Z</time></trkpt>
<trkpt lat="29.872414" lon="92.653425">
<time>2016-10-08T04:59:08Z</time></trkpt>
<trkpt lat="29.872424" lon="92.653355">
<time>2016-10-08T04:59:09Z</time></trkpt>
<trkpt lat="29.872434" lon="92.653295">
<time>2016-10-08T04:59:10Z</time></trkpt>
<trkpt lat="29.872435" lon="92.653205">
<time>2016-10-08T04:59:11Z</time></trkpt>
<trkpt lat="29.872435" lon="92.653115">
<time>2016-10-08T04:59:12Z</time></trkpt>
<trkpt lat="29.872425" lon="92.653036">
<time>2016-10-08T04:59:13Z</time></trkpt>
<trkpt lat="29.872405" lon="92.652956">
<time>2016-10-08T04:59:14Z</time></trkpt>
<trkpt lat="29.872395" lon="92.652896">
<time>2016-10-08T04:59:15Z</time></trkpt>
<trkpt lat="29.872375" lon="92.652816">
<time>2016-10-08T04:59:16Z</time></trkpt>
<trkpt lat="29.872355" lon="92.652706">
<time>2016-10-08T04:59:17Z</time></trkpt>
<trkpt lat="29.872296" lon="92.652427">
<time>2016-10-08T04:59:18Z</time></trkpt>
<trkpt lat="29.872217" lon="92.652098">
<time>2016-10-08T04:59:19Z</time></trkpt>
<trkpt lat="29.872187" lon="92.651938">
<time>2016-10-08T04:59:20Z</time></trkpt>
<trkpt lat="29.872137" lon="92.651748">
<time>2016-10-08T04:59:21Z</time></trkpt>
<trkpt lat="29.872088" lon="92.651509">
<time>2016-10-08T04:59:22Z</time></trkpt>
<trkpt lat="29.872048" lon="92.651309">
<time>2016-10-08T04:59:23Z</time></trkpt>
<trkpt lat="29.872038" lon="92.65118">
<time>2016-10-08T04:59:24Z</time></trkpt>
<trkpt lat="29.872018" lon="92.65104">
<time>2016-10-08T04:59:25Z</time></trkpt>
<trkpt lat="29.872019" lon="92.6509">
<time>2016-10-08T04:59:26Z</time></trkpt>
<trkpt lat="29.872009" lon="92.650791">
<time>2016-10-08T04:59:27Z</time></trkpt>
<trkpt lat="29.872019" lon="92.650631">
<time>2016-10-08T04:59:28Z</time></trkpt>
<trkpt lat="29.872049" lon="92.650441">
<time>2016-10-08T04:59:29Z</time></trkpt>
<trkpt lat="29.87209" lon="92.650292">
<time>2016-10-08T04:59:30Z</time></trkpt>
<trkpt lat="29.87212" lon="92.650172">
<time>2016-10-08T04:59:31Z</time></trkpt>
<trkpt lat="29.87217" lon="92.650032">
<time>2016-10-08T04:59:32Z</time></trkpt>
<trkpt lat="29.872241" lon="92.649823">
<time>2016-10-08T04:59:33Z</time></trkpt>
<trkpt lat="29.872291" lon="92.649643">
<time>2016-10-08T04:59:34Z</time></trkpt>
<trkpt lat="29.872331" lon="92.649523">
<time>2016-10-08T04:59:35Z</time></trkpt>
<trkpt lat="29.872371" lon="92.649364">
<time>2016-10-08T04:59:36Z</time></trkpt>
<trkpt lat="29.872392" lon="92.649244">
<time>2016-10-08T04:59:37Z</time></trkpt>
<trkpt lat="29.872392" lon="92.649074">
<time>2016-10-08T04:59:38Z</time></trkpt>
<trkpt lat="29.872372" lon="92.648885">
<time>2016-10-08T04:59:39Z</time></trkpt>
<trkpt lat="29.872352" lon="92.648795">
<time>2016-10-08T04:59:40Z</time></trkpt>
<trkpt lat="29.872322" lon="92.648705">
<time>2016-10-08T04:59:41Z</time></trkpt>
<trkpt lat="29.872293" lon="92.648625">
<time>2016-10-08T04:59:42Z</time></trkpt>
<trkpt lat="29.872263" lon="92.648546">
<time>2016-10-08T04:59:43Z</time></trkpt>
<trkpt lat="29.872193" lon="92.648416">
<time>2016-10-08T04:59:44Z</time></trkpt>
<trkpt lat="29.872083" lon="92.648236">
<time>2016-10-08T04:59:45Z</time></trkpt>
<trkpt lat="29.871904" lon="92.647957">
<time>2016-10-08T04:59:46Z</time></trkpt>
<trkpt lat="29.871774" lon="92.647757">
<time>2016-10-08T04:59:47Z</time></trkpt>
<trkpt lat="29.871664" lon="92.647588">
<time>2016-10-08T04:59:48Z</time></trkpt>
<trkpt lat="29.871555" lon="92.647408">
<time>2016-10-08T04:59:49Z</time></trkpt>
<trkpt lat="29.871435" lon="92.647218">
<time>2016-10-08T04:59:50Z</time></trkpt>
<trkpt lat="29.871375" lon="92.647099">
<time>2016-10-08T04:59:51Z</time></trkpt>
<trkpt lat="29.871295" lon="92.646979">
<time>2016-10-08T04:59:52Z</time></trkpt>
<trkpt lat="29.871256" lon="92.646879">
<time>2016-10-08T04:59:53Z</time></trkpt>
<trkpt lat="29.871226" lon="92.646789">
<time>2016-10-08T04:59:54Z</time></trkpt>
<trkpt lat="29.871206" lon="92.6467">
<time>2016-10-08T04:59:55Z</time></trkpt>
<trkpt lat="29.871186" lon="92.64659">
<time>2016-10-08T04:59:56Z</time></trkpt>
<trkpt lat="29.871176" lon="92.64649">
<time>2016-10-08T04:59:57Z</time></trkpt>
<trkpt lat="29.871177" lon="92.64635">
<time>2016-10-08T04:59:58Z</time></trkpt>
<trkpt lat="29.871187" lon="92.646081">
<time>2016-10-08T04:59:59Z</time></trkpt>
<trkpt lat="29.871217" lon="92.645811">
<time>2016-10-08T05:00:00Z</time></trkpt>
<trkpt lat="29.871248" lon="92.645382">
<time>2016-10-08T05:00:01Z</time></trkpt>
<trkpt lat="29.871258" lon="92.645233">
<time>2016-10-08T05:00:02Z</time></trkpt>
<trkpt lat="29.871269" lon="92.645063">
<time>2016-10-08T05:00:03Z</time></trkpt>
<trkpt lat="29.871259" lon="92.644903">
<time>2016-10-08T05:00:04Z</time></trkpt>
<trkpt lat="29.871259" lon="92.644774">
<time>2016-10-08T05:00:05Z</time></trkpt>
<trkpt lat="29.871229" lon="92.644604">
<time>2016-10-08T05:00:06Z</time></trkpt>
<trkpt lat="29.8712" lon="92.644375">
<time>2016-10-08T05:00:07Z</time></trkpt>
<trkpt lat="29.87114" lon="92.644055">
<time>2016-10-08T05:00:08Z</time></trkpt>
<trkpt lat="29.871081" lon="92.643776">
<time>2016-10-08T05:00:09Z</time></trkpt>
<trkpt lat="29.871041" lon="92.643636">
<time>2016-10-08T05:00:10Z</time></trkpt>
<trkpt lat="29.871001" lon="92.643536">
<time>2016-10-08T05:00:11Z</time></trkpt>
<trkpt lat="29.870941" lon="92.643426">
<time>2016-10-08T05:00:12Z</time></trkpt>
<trkpt lat="29.870872" lon="92.643317">
<time>2016-10-08T05:00:13Z</time></trkpt>
<trkpt lat="29.870702" lon="92.643057">
<time>2016-10-08T05:00:14Z</time></trkpt>
<trkpt lat="29.870592" lon="92.642898">
<time>2016-10-08T05:00:15Z</time></trkpt>
<trkpt lat="29.870492" lon="92.642748">
<time>2016-10-08T05:00:16Z</time></trkpt>
<trkpt lat="29.870413" lon="92.642628">
<time>2016-10-08T05:00:17Z</time></trkpt>
<trkpt lat="29.870363" lon="92.642548">
<time>2016-10-08T05:00:18Z</time></trkpt>
<trkpt lat="29.870323" lon="92.642478">
<time>2016-10-08T05:00:19Z</time></trkpt>
<trkpt lat="29.870303" lon="92.642419">
<time>2016-10-08T05:00:20Z</time></trkpt>
<trkpt lat="29.870283" lon="92.642369">
<time>2016-10-08T05:00:21Z</time></trkpt>
<trkpt lat="29.870273" lon="92.642279">
<time>2016-10-08T05:00:22Z</time></trkpt>
<trkpt lat="29.870263" lon="92.642219">
<time>2016-10-08T05:00:23Z</time></trkpt>
<trkpt lat="29.870263" lon="92.642159">
<time>2016-10-08T05:00:24Z</time></trkpt>
<trkpt lat="29.870273" lon="92.642099">
<time>2016-10-08T05:00:25Z</time></trkpt>
<trkpt lat="29.870294" lon="92.642019">
<time>2016-10-08T05:00:26Z</time></trkpt>
<trkpt lat="29.870314" lon="92.64194">
<time>2016-10-08T05:00:27Z</time></trkpt>
<trkpt lat="29.870354" lon="92.64186">
<time>2016-10-08T05:00:28Z</time></trkpt>
<trkpt lat="29.870414" lon="92.64172">
<time>2016-10-08T05:00:29Z</time></trkpt>
<trkpt lat="29.870474" lon="92.64158">
<time>2016-10-08T05:00:30Z</time></trkpt>
<trkpt lat="29.870535" lon="92.641451">
<time>2016-10-08T05:00:31Z</time></trkpt>
<trkpt lat="29.870695" lon="92.641091">
<time>2016-10-08T05:00:32Z</time></trkpt>
<trkpt lat="29.870876" lon="92.640682">
<time>2016-10-08T05:00:33Z</time></trkpt>
<trkpt lat="29.871026" lon="92.640343">
<time>2016-10-08T05:00:34Z</time></trkpt>
<trkpt lat="29.871287" lon="92.639764">
<time>2016-10-08T05:00:35Z</time></trkpt>
<trkpt lat="29.871458" lon="92.639395">
<time>2016-10-08T05:00:36Z</time></trkpt>
<trkpt lat="29.871608" lon="92.639035">
<time>2016-10-08T05:00:37Z</time></trkpt>
<trkpt lat="29.871699" lon="92.638806">
<time>2016-10-08T05:00:38Z</time></trkpt>
<trkpt lat="29.871829" lon="92.638476">
<time>2016-10-08T05:00:39Z</time></trkpt>
<trkpt lat="29.871919" lon="92.638197">
<time>2016-10-08T05:00:40Z</time></trkpt>
<trkpt lat="29.87213" lon="92.637598">
<time>2016-10-08T05:00:41Z</time></trkpt>
<trkpt lat="29.872261" lon="92.637239">
<time>2016-10-08T05:00:42Z</time></trkpt>
<trkpt lat="29.872371" lon="92.636919">
<time>2016-10-08T05:00:43Z</time></trkpt>
<trkpt lat="29.872472" lon="92.63663">
<time>2016-10-08T05:00:44Z</time></trkpt>
<trkpt lat="29.872592" lon="92.63631">
<time>2016-10-08T05:00:45Z</time></trkpt>
<trkpt lat="29.872723" lon="92.635961">
<time>2016-10-08T05:00:46Z</time></trkpt>
<trkpt lat="29.872783" lon="92.635811">
<time>2016-10-08T05:00:47Z</time></trkpt>
<trkpt lat="29.872873" lon="92.635572">
<time>2016-10-08T05:00:48Z</time></trkpt>
<trkpt lat="29.873034" lon="92.635153">
<time>2016-10-08T05:00:49Z</time></trkpt>
<trkpt lat="29.873134" lon="92.634903">
<time>2016-10-08T05:00:50Z</time></trkpt>
<trkpt lat="29.873204" lon="92.634703">
<time>2016-10-08T05:00:51Z</time></trkpt>
<trkpt lat="29.873355" lon="92.634314">
<time>2016-10-08T05:00:52Z</time></trkpt>
<trkpt lat="29.873475" lon="92.633995">
<time>2016-10-08T05:00:53Z</time></trkpt>
<trkpt lat="29.873646" lon="92.633546">
<time>2016-10-08T05:00:54Z</time></trkpt>
<trkpt lat="29.873756" lon="92.633266">
<time>2016-10-08T05:00:55Z</time></trkpt>
<trkpt lat="29.873917" lon="92.632837">
<time>2016-10-08T05:00:56Z</time></trkpt>
<trkpt lat="29.874057" lon="92.632517">
<time>2016-10-08T05:00:57Z</time></trkpt>
<trkpt lat="29.874108" lon="92.632388">
<time>2016-10-08T05:00:58Z</time></trkpt>
<trkpt lat="29.874178" lon="92.632268">
<time>2016-10-08T05:00:59Z</time></trkpt>
<trkpt lat="29.874318" lon="92.632048">
<time>2016-10-08T05:01:00Z</time></trkpt>
<trkpt lat="29.874609" lon="92.631659">
<time>2016-10-08T05:01:01Z</time></trkpt>
<trkpt lat="29.874869" lon="92.631299">
<time>2016-10-08T05:01:02Z</time></trkpt>
<trkpt lat="29.875009" lon="92.63111">
<time>2016-10-08T05:01:03Z</time></trkpt>
<trkpt lat="29.87514" lon="92.63094">
<time>2016-10-08T05:01:04Z</time></trkpt>
<trkpt lat="29.87522" lon="92.63083">
<time>2016-10-08T05:01:05Z</time></trkpt>
<trkpt lat="29.87529" lon="92.6307">
<time>2016-10-08T05:01:06Z</time></trkpt>
<trkpt lat="29.87536" lon="92.630561">
<time>2016-10-08T05:01:07Z</time></trkpt>
<trkpt lat="29.87541" lon="92.630431">
<time>2016-10-08T05:01:08Z</time></trkpt>
<trkpt lat="29.87546" lon="92.630211">
<time>2016-10-08T05:01:09Z</time></trkpt>
<trkpt lat="29.875501" lon="92.630031">
<time>2016-10-08T05:01:10Z</time></trkpt>
<trkpt lat="29.875541" lon="92.629852">
<time>2016-10-08T05:01:11Z</time></trkpt>
<trkpt lat="29.875571" lon="92.629732">
<time>2016-10-08T05:01:12Z</time></trkpt>
<trkpt lat="29.875581" lon="92.629622">
<time>2016-10-08T05:01:13Z</time></trkpt>
<trkpt lat="29.875581" lon="92.629472">
<time>2016-10-08T05:01:14Z</time></trkpt>
<trkpt lat="29.875572" lon="92.629343">
<time>2016-10-08T05:01:15Z</time></trkpt>
<trkpt lat="29.875542" lon="92.629213">
<time>2016-10-08T05:01:16Z</time></trkpt>
<trkpt lat="29.875512" lon="92.629083">
<time>2016-10-08T05:01:17Z</time></trkpt>
<trkpt lat="29.875472" lon="92.628963">
<time>2016-10-08T05:01:18Z</time></trkpt>
<trkpt lat="29.875442" lon="92.628873">
<time>2016-10-08T05:01:19Z</time></trkpt>
<trkpt lat="29.875392" lon="92.628784">
<time>2016-10-08T05:01:20Z</time></trkpt>
<trkpt lat="29.875352" lon="92.628714">
<time>2016-10-08T05:01:21Z</time></trkpt>
<trkpt lat="29.875302" lon="92.628634">
<time>2016-10-08T05:01:22Z</time></trkpt>
<trkpt lat="29.875183" lon="92.628514">
<time>2016-10-08T05:01:23Z</time></trkpt>
<trkpt lat="29.874993" lon="92.628334">
<time>2016-10-08T05:01:24Z</time></trkpt>
<trkpt lat="29.874833" lon="92.628175">
<time>2016-10-08T05:01:25Z</time></trkpt>
<trkpt lat="29.874693" lon="92.628045">
<time>2016-10-08T05:01:26Z</time></trkpt>
<trkpt lat="29.874613" lon="92.627955">
<time>2016-10-08T05:01:27Z</time></trkpt>
<trkpt lat="29.874533" lon="92.627875">
<time>2016-10-08T05:01:28Z</time></trkpt>
<trkpt lat="29.874463" lon="92.627765">
<time>2016-10-08T05:01:29Z</time></trkpt>
<trkpt lat="29.874414" lon="92.627675">
<time>2016-10-08T05:01:30Z</time></trkpt>
<trkpt lat="29.874364" lon="92.627555">
<time>2016-10-08T05:01:31Z</time></trkpt>
<trkpt lat="29.874324" lon="92.627446">
<time>2016-10-08T05:01:32Z</time></trkpt>
<trkpt lat="29.874284" lon="92.627336">
<time>2016-10-08T05:01:33Z</time></trkpt>
<trkpt lat="29.874174" lon="92.627016">
<time>2016-10-08T05:01:34Z</time></trkpt>
<trkpt lat="29.874125" lon="92.626877">
<time>2016-10-08T05:01:35Z</time></trkpt>
<trkpt lat="29.874025" lon="92.626607">
<time>2016-10-08T05:01:36Z</time></trkpt>
<trkpt lat="29.873885" lon="92.626238">
<time>2016-10-08T05:01:37Z</time></trkpt>
<trkpt lat="29.873736" lon="92.625828">
<time>2016-10-08T05:01:38Z</time></trkpt>
<trkpt lat="29.873447" lon="92.625049">
<time>2016-10-08T05:01:39Z</time></trkpt>
<trkpt lat="29.873427" lon="92.625019">
<time>2016-10-08T05:01:40Z</time></trkpt>
<trkpt lat="29.873377" lon="92.62489">
<time>2016-10-08T05:01:41Z</time></trkpt>
<trkpt lat="29.873267" lon="92.6246">
<time>2016-10-08T05:01:42Z</time></trkpt>
<trkpt lat="29.873148" lon="92.62429">
<time>2016-10-08T05:01:43Z</time></trkpt>
<trkpt lat="29.873068" lon="92.624071">
<time>2016-10-08T05:01:44Z</time></trkpt>
<trkpt lat="29.872998" lon="92.623851">
<time>2016-10-08T05:01:45Z</time></trkpt>
<trkpt lat="29.872978" lon="92.623751">
<time>2016-10-08T05:01:46Z</time></trkpt>
<trkpt lat="29.872968" lon="92.623651">
<time>2016-10-08T05:01:47Z</time></trkpt>
<trkpt lat="29.872968" lon="92.623551">
<time>2016-10-08T05:01:48Z</time></trkpt>
<trkpt lat="29.872978" lon="92.623412">
<time>2016-10-08T05:01:49Z</time></trkpt>
<trkpt lat="29.872999" lon="92.623272">
<time>2016-10-08T05:01:50Z</time></trkpt>
<trkpt lat="29.873029" lon="92.623082">
<time>2016-10-08T05:01:51Z</time></trkpt>
<trkpt lat="29.873059" lon="92.622932">
<time>2016-10-08T05:01:52Z</time></trkpt>
<trkpt lat="29.873089" lon="92.622802">
<time>2016-10-08T05:01:53Z</time></trkpt>
<trkpt lat="29.873109" lon="92.622673">
<time>2016-10-08T05:01:54Z</time></trkpt>
<trkpt lat="29.873139" lon="92.622533">
<time>2016-10-08T05:01:55Z</time></trkpt>
<trkpt lat="29.87317" lon="92.622403">
<time>2016-10-08T05:01:56Z</time></trkpt>
<trkpt lat="29.87318" lon="92.622303">
<time>2016-10-08T05:01:57Z</time></trkpt>
<trkpt lat="29.8732" lon="92.622213">
<time>2016-10-08T05:01:58Z</time></trkpt>
<trkpt lat="29.87321" lon="92.622113">
<time>2016-10-08T05:01:59Z</time></trkpt>
<trkpt lat="29.87321" lon="92.622044">
<time>2016-10-08T05:02:00Z</time></trkpt>
<trkpt lat="29.87321" lon="92.621974">
<time>2016-10-08T05:02:01Z</time></trkpt>
<trkpt lat="29.87319" lon="92.621894">
<time>2016-10-08T05:02:02Z</time></trkpt>
<trkpt lat="29.87317" lon="92.621784">
<time>2016-10-08T05:02:03Z</time></trkpt>
<trkpt lat="29.87312" lon="92.621664">
<time>2016-10-08T05:02:04Z</time></trkpt>
<trkpt lat="29.87308" lon="92.621574">
<time>2016-10-08T05:02:05Z</time></trkpt>
<trkpt lat="29.87299" lon="92.621434">
<time>2016-10-08T05:02:06Z</time></trkpt>
<trkpt lat="29.872921" lon="92.621324">
<time>2016-10-08T05:02:07Z</time></trkpt>
<trkpt lat="29.872771" lon="92.621125">
<time>2016-10-08T05:02:08Z</time></trkpt>
<trkpt lat="29.872691" lon="92.621015">
<time>2016-10-08T05:02:09Z</time></trkpt>
<trkpt lat="29.872591" lon="92.620845">
<time>2016-10-08T05:02:10Z</time></trkpt>
<trkpt lat="29.872551" lon="92.620755">
<time>2016-10-08T05:02:11Z</time></trkpt>
<trkpt lat="29.872521" lon="92.620675">
<time>2016-10-08T05:02:12Z</time></trkpt>
<trkpt lat="29.872511" lon="92.620585">
<time>2016-10-08T05:02:13Z</time></trkpt>
<trkpt lat="29.872501" lon="92.620496">
<time>2016-10-08T05:02:14Z</time></trkpt>
<trkpt lat="29.872502" lon="92.620396">
<time>2016-10-08T05:02:15Z</time></trkpt>
<trkpt lat="29.872502" lon="92.620306">
<time>2016-10-08T05:02:16Z</time></trkpt>
<trkpt lat="29.872512" lon="92.620216">
<time>2016-10-08T05:02:17Z</time></trkpt>
<trkpt lat="29.872512" lon="92.620136">
<time>2016-10-08T05:02:18Z</time></trkpt>
<trkpt lat="29.872522" lon="92.619996">
<time>2016-10-08T05:02:19Z</time></trkpt>
<trkpt lat="29.872532" lon="92.619836">
<time>2016-10-08T05:02:20Z</time></trkpt>
<trkpt lat="29.872542" lon="92.619687">
<time>2016-10-08T05:02:21Z</time></trkpt>
<trkpt lat="29.872542" lon="92.619537">
<time>2016-10-08T05:02:22Z</time></trkpt>
<trkpt lat="29.872532" lon="92.619457">
<time>2016-10-08T05:02:23Z</time></trkpt>
<trkpt lat="29.872513" lon="92.619297">
<time>2016-10-08T05:02:24Z</time></trkpt>
<trkpt lat="29.872493" lon="92.619227">
<time>2016-10-08T05:02:25Z</time></trkpt>
<trkpt lat="29.872453" lon="92.619117">
<time>2016-10-08T05:02:26Z</time></trkpt>
<trkpt lat="29.872393" lon="92.618977">
<time>2016-10-08T05:02:27Z</time></trkpt>
<trkpt lat="29.872353" lon="92.618858">
<time>2016-10-08T05:02:28Z</time></trkpt>
<trkpt lat="29.872233" lon="92.618598">
<time>2016-10-08T05:02:29Z</time></trkpt>
<trkpt lat="29.872173" lon="92.618448">
<time>2016-10-08T05:02:30Z</time></trkpt>
<trkpt lat="29.872103" lon="92.618298">
<time>2016-10-08T05:02:31Z</time></trkpt>
<trkpt lat="29.872014" lon="92.618069">
<time>2016-10-08T05:02:32Z</time></trkpt>
<trkpt lat="29.871954" lon="92.617939">
<time>2016-10-08T05:02:33Z</time></trkpt>
<trkpt lat="29.871824" lon="92.617629">
<time>2016-10-08T05:02:34Z</time></trkpt>
<trkpt lat="29.871724" lon="92.617389">
<time>2016-10-08T05:02:35Z</time></trkpt>
<trkpt lat="29.871624" lon="92.61713">
<time>2016-10-08T05:02:36Z</time></trkpt>
<trkpt lat="29.871525" lon="92.61684">
<time>2016-10-08T05:02:37Z</time></trkpt>
<trkpt lat="29.871485" lon="92.61671">
<time>2016-10-08T05:02:38Z</time></trkpt>
<trkpt lat="29.871435" lon="92.61645">
<time>2016-10-08T05:02:39Z</time></trkpt>
<trkpt lat="29.871385" lon="92.616191">
<time>2016-10-08T05:02:40Z</time></trkpt>
<trkpt lat="29.871355" lon="92.616041">
<time>2016-10-08T05:02:41Z</time></trkpt>
<trkpt lat="29.871316" lon="92.615811">
<time>2016-10-08T05:02:42Z</time></trkpt>
<trkpt lat="29.871276" lon="92.615651">
<time>2016-10-08T05:02:43Z</time></trkpt>
<trkpt lat="29.871216" lon="92.615461">
<time>2016-10-08T05:02:44Z</time></trkpt>
<trkpt lat="29.871166" lon="92.615302">
<time>2016-10-08T05:02:45Z</time></trkpt>
<trkpt lat="29.871116" lon="92.615192">
<time>2016-10-08T05:02:46Z</time></trkpt>
<trkpt lat="29.871076" lon="92.615092">
<time>2016-10-08T05:02:47Z</time></trkpt>
<trkpt lat="29.871006" lon="92.614962">
<time>2016-10-08T05:02:48Z</time></trkpt>
<trkpt lat="29.870926" lon="92.614812">
<time>2016-10-08T05:02:49Z</time></trkpt>
<trkpt lat="29.870876" lon="92.614712">
<time>2016-10-08T05:02:50Z</time></trkpt>
<trkpt lat="29.870796" lon="92.614592">
<time>2016-10-08T05:02:51Z</time></trkpt>
<trkpt lat="29.870727" lon="92.614472">
<time>2016-10-08T05:02:52Z</time></trkpt>
<trkpt lat="29.870667" lon="92.614363">
<time>2016-10-08T05:02:53Z</time></trkpt>
<trkpt lat="29.870597" lon="92.614253">
<time>2016-10-08T05:02:54Z</time></trkpt>
<trkpt lat="29.870517" lon="92.614113">
<time>2016-10-08T05:02:55Z</time></trkpt>
<trkpt lat="29.870467" lon="92.614013">
<time>2016-10-08T05:02:56Z</time></trkpt>
<trkpt lat="29.870357" lon="92.613853">
<time>2016-10-08T05:02:57Z</time></trkpt>
<trkpt lat="29.870287" lon="92.613743">
<time>2016-10-08T05:02:58Z</time></trkpt>
<trkpt lat="29.870207" lon="92.613643">
<time>2016-10-08T05:02:59Z</time></trkpt>
<trkpt lat="29.870137" lon="92.613553">
<time>2016-10-08T05:03:00Z</time></trkpt>
<trkpt lat="29.870067" lon="92.613483">
<time>2016-10-08T05:03:01Z</time></trkpt>
<trkpt lat="29.869997" lon="92.613424">
<time>2016-10-08T05:03:02Z</time></trkpt>
<trkpt lat="29.869937" lon="92.613374">
<time>2016-10-08T05:03:03Z</time></trkpt>
<trkpt lat="29.869857" lon="92.613314">
<time>2016-10-08T05:03:04Z</time></trkpt>
<trkpt lat="29.869777" lon="92.613264">
<time>2016-10-08T05:03:05Z</time></trkpt>
<trkpt lat="29.869687" lon="92.613224">
<time>2016-10-08T05:03:06Z</time></trkpt>
<trkpt lat="29.869598" lon="92.613164">
<time>2016-10-08T05:03:07Z</time></trkpt>
<trkpt lat="29.869498" lon="92.613104">
<time>2016-10-08T05:03:08Z</time></trkpt>
<trkpt lat="29.869408" lon="92.613054">
<time>2016-10-08T05:03:09Z</time></trkpt>
<trkpt lat="29.869318" lon="92.613004">
<time>2016-10-08T05:03:10Z</time></trkpt>
<trkpt lat="29.869228" lon="92.612954">
<time>2016-10-08T05:03:11Z</time></trkpt>
<trkpt lat="29.869108" lon="92.612874">
<time>2016-10-08T05:03:12Z</time></trkpt>
<trkpt lat="29.868998" lon="92.612804">
<time>2016-10-08T05:03:13Z</time></trkpt>
<trkpt lat="29.868878" lon="92.612724">
<time>2016-10-08T05:03:14Z</time></trkpt>
<trkpt lat="29.868808" lon="92.612684">
<time>2016-10-08T05:03:15Z</time></trkpt>
<trkpt lat="29.868728" lon="92.612634">
<time>2016-10-08T05:03:16Z</time></trkpt>
<trkpt lat="29.868658" lon="92.612594">
<time>2016-10-08T05:03:17Z</time></trkpt>
<trkpt lat="29.868588" lon="92.612514">
<time>2016-10-08T05:03:18Z</time></trkpt>
<trkpt lat="29.868508" lon="92.612405">
<time>2016-10-08T05:03:19Z</time></trkpt>
<trkpt lat="29.868438" lon="92.612295">
<time>2016-10-08T05:03:20Z</time></trkpt>
<trkpt lat="29.868368" lon="92.612145">
<time>2016-10-08T05:03:21Z</time></trkpt>
<trkpt lat="29.868238" lon="92.611885">
<time>2016-10-08T05:03:22Z</time></trkpt>
<trkpt lat="29.868079" lon="92.611535">
<time>2016-10-08T05:03:23Z</time></trkpt>
<trkpt lat="29.867879" lon="92.611096">
<time>2016-10-08T05:03:24Z</time></trkpt>
<trkpt lat="29.867639" lon="92.610576">
<time>2016-10-08T05:03:25Z</time></trkpt>
<trkpt lat="29.867479" lon="92.610236">
<time>2016-10-08T05:03:26Z</time></trkpt>
<trkpt lat="29.86733" lon="92.609927">
<time>2016-10-08T05:03:27Z</time></trkpt>
<trkpt lat="29.86721" lon="92.609657">
<time>2016-10-08T05:03:28Z</time></trkpt>
<trkpt lat="29.86709" lon="92.609377">
<time>2016-10-08T05:03:29Z</time></trkpt>
<trkpt lat="29.86701" lon="92.609207">
<time>2016-10-08T05:03:30Z</time></trkpt>
<trkpt lat="29.86693" lon="92.608997">
<time>2016-10-08T05:03:31Z</time></trkpt>
<trkpt lat="29.86687" lon="92.608857">
<time>2016-10-08T05:03:32Z</time></trkpt>
<trkpt lat="29.86684" lon="92.608738">
<time>2016-10-08T05:03:33Z</time></trkpt>
<trkpt lat="29.86682" lon="92.608608">
<time>2016-10-08T05:03:34Z</time></trkpt>
<trkpt lat="29.86679" lon="92.608478">
<time>2016-10-08T05:03:35Z</time></trkpt>
<trkpt lat="29.86677" lon="92.608358">
<time>2016-10-08T05:03:36Z</time></trkpt>
<trkpt lat="29.866751" lon="92.608208">
<time>2016-10-08T05:03:37Z</time></trkpt>
<trkpt lat="29.866751" lon="92.608078">
<time>2016-10-08T05:03:38Z</time></trkpt>
<trkpt lat="29.866751" lon="92.607988">
<time>2016-10-08T05:03:39Z</time></trkpt>
<trkpt lat="29.866751" lon="92.607878">
<time>2016-10-08T05:03:40Z</time></trkpt>
<trkpt lat="29.866761" lon="92.607788">
<time>2016-10-08T05:03:41Z</time></trkpt>
<trkpt lat="29.866761" lon="92.607698">
<time>2016-10-08T05:03:42Z</time></trkpt>
<trkpt lat="29.866781" lon="92.607588">
<time>2016-10-08T05:03:43Z</time></trkpt>
<trkpt lat="29.866811" lon="92.607458">
<time>2016-10-08T05:03:44Z</time></trkpt>
<trkpt lat="29.866831" lon="92.607359">
<time>2016-10-08T05:03:45Z</time></trkpt>
<trkpt lat="29.866851" lon="92.607279">
<time>2016-10-08T05:03:46Z</time></trkpt>
<trkpt lat="29.866871" lon="92.607199">
<time>2016-10-08T05:03:47Z</time></trkpt>
<trkpt lat="29.866881" lon="92.607119">
<time>2016-10-08T05:03:48Z</time></trkpt>
<trkpt lat="29.866901" lon="92.607059">
<time>2016-10-08T05:03:49Z</time></trkpt>
<trkpt lat="29.866921" lon="92.606949">
<time>2016-10-08T05:03:50Z</time></trkpt>
<trkpt lat="29.866951" lon="92.606829">
<time>2016-10-08T05:03:51Z</time></trkpt>
<trkpt lat="29.866981" lon="92.606729">
<time>2016-10-08T05:03:52Z</time></trkpt>
<trkpt lat="29.867001" lon="92.606629">
<time>2016-10-08T05:03:53Z</time></trkpt>
<trkpt lat="29.867021" lon="92.606529">
<time>2016-10-08T05:03:54Z</time></trkpt>
<trkpt lat="29.867041" lon="92.606439">
<time>2016-10-08T05:03:55Z</time></trkpt>
<trkpt lat="29.867071" lon="92.606309">
<time>2016-10-08T05:03:56Z</time></trkpt>
<trkpt lat="29.867091" lon="92.606229">
<time>2016-10-08T05:03:57Z</time></trkpt>
<trkpt lat="29.867111" lon="92.606139">
<time>2016-10-08T05:03:58Z</time></trkpt>
<trkpt lat="29.867141" lon="92.606049">
<time>2016-10-08T05:03:59Z</time></trkpt>
<trkpt lat="29.867161" lon="92.605959">
<time>2016-10-08T05:04:00Z</time></trkpt>
<trkpt lat="29.867182" lon="92.605859">
<time>2016-10-08T05:04:01Z</time></trkpt>
<trkpt lat="29.867202" lon="92.60575">
<time>2016-10-08T05:04:02Z</time></trkpt>
<trkpt lat="29.867212" lon="92.60563">
<time>2016-10-08T05:04:03Z</time></trkpt>
<trkpt lat="29.867212" lon="92.60542">
<time>2016-10-08T05:04:04Z</time></trkpt>
<trkpt lat="29.867172" lon="92.60522">
<time>2016-10-08T05:04:05Z</time></trkpt>
<trkpt lat="29.867092" lon="92.60497">
<time>2016-10-08T05:04:06Z</time></trkpt>
<trkpt lat="29.867022" lon="92.60474">
<time>2016-10-08T05:04:07Z</time></trkpt>
<trkpt lat="29.866972" lon="92.60462">
<time>2016-10-08T05:04:08Z</time></trkpt>
<trkpt lat="29.866922" lon="92.60449">
<time>2016-10-08T05:04:09Z</time></trkpt>
<trkpt lat="29.866882" lon="92.6044">
<time>2016-10-08T05:04:10Z</time></trkpt>
<trkpt lat="29.866822" lon="92.60427">
<time>2016-10-08T05:04:11Z</time></trkpt>
<trkpt lat="29.866732" lon="92.6041">
<time>2016-10-08T05:04:12Z</time></trkpt>
<trkpt lat="29.866642" lon="92.603931">
<time>2016-10-08T05:04:13Z</time></trkpt>
<trkpt lat="29.866542" lon="92.603761">
<time>2016-10-08T05:04:14Z</time></trkpt>
<trkpt lat="29.866462" lon="92.603611">
<time>2016-10-08T05:04:15Z</time></trkpt>
<trkpt lat="29.866402" lon="92.603501">
<time>2016-10-08T05:04:16Z</time></trkpt>
<trkpt lat="29.866302" lon="92.603311">
<time>2016-10-08T05:04:17Z</time></trkpt>
<trkpt lat="29.866222" lon="92.603161">
<time>2016-10-08T05:04:18Z</time></trkpt>
<trkpt lat="29.866142" lon="92.603021">
<time>2016-10-08T05:04:19Z</time></trkpt>
<trkpt lat="29.866073" lon="92.602891">
<time>2016-10-08T05:04:20Z</time></trkpt>
<trkpt lat="29.866013" lon="92.602781">
<time>2016-10-08T05:04:21Z</time></trkpt>
<trkpt lat="29.865973" lon="92.602721">
<time>2016-10-08T05:04:22Z</time></trkpt>
<trkpt lat="29.865933" lon="92.602641">
<time>2016-10-08T05:04:23Z</time></trkpt>
<trkpt lat="29.865883" lon="92.602551">
<time>2016-10-08T05:04:24Z</time></trkpt>
<trkpt lat="29.865843" lon="92.602451">
<time>2016-10-08T05:04:25Z</time></trkpt>
<trkpt lat="29.865793" lon="92.602351">
<time>2016-10-08T05:04:26Z</time></trkpt>
<trkpt lat="29.865753" lon="92.602271">
<time>2016-10-08T05:04:27Z</time></trkpt>
<trkpt lat="29.865733" lon="92.602181">
<time>2016-10-08T05:04:28Z</time></trkpt>
<trkpt lat="29.865703" lon="92.602091">
<time>2016-10-08T05:04:29Z</time></trkpt>
<trkpt lat="29.865683" lon="92.602021">
<time>2016-10-08T05:04:30Z</time></trkpt>
<trkpt lat="29.865673" lon="92.601931">
<time>2016-10-08T05:04:31Z</time></trkpt>
<trkpt lat="29.865663" lon="92.601832">
<time>2016-10-08T05:04:32Z</time></trkpt>
<trkpt lat="29.865663" lon="92.601692">
<time>2016-10-08T05:04:33Z</time></trkpt>
<trkpt lat="29.865663" lon="92.601582">
<time>2016-10-08T05:04:34Z</time></trkpt>
<trkpt lat="29.865673" lon="92.601422">
<time>2016-10-08T05:04:35Z</time></trkpt>
<trkpt lat="29.865683" lon="92.601272">
<time>2016-10-08T05:04:36Z</time></trkpt>
<trkpt lat="29.865693" lon="92.600972">
<time>2016-10-08T05:04:37Z</time></trkpt>
<trkpt lat="29.865713" lon="92.600642">
<time>2016-10-08T05:04:38Z</time></trkpt>
<trkpt lat="29.865723" lon="92.600332">
<time>2016-10-08T05:04:39Z</time></trkpt>
<trkpt lat="29.865743" lon="92.600012">
<time>2016-10-08T05:04:40Z</time></trkpt>
<trkpt lat="29.865743" lon="92.599732">
<time>2016-10-08T05:04:41Z</time></trkpt>
<trkpt lat="29.865733" lon="92.599602">
<time>2016-10-08T05:04:42Z</time></trkpt>
<trkpt lat="29.865723" lon="92.599482">
<time>2016-10-08T05:04:43Z</time></trkpt>
<trkpt lat="29.865703" lon="92.599362">
<time>2016-10-08T05:04:44Z</time></trkpt>
<trkpt lat="29.865663" lon="92.599212">
<time>2016-10-08T05:04:45Z</time></trkpt>
<trkpt lat="29.865603" lon="92.598942">
<time>2016-10-08T05:04:46Z</time></trkpt>
<trkpt lat="29.865503" lon="92.598613">
<time>2016-10-08T05:04:47Z</time></trkpt>
<trkpt lat="29.865413" lon="92.598303">
<time>2016-10-08T05:04:48Z</time></trkpt>
<trkpt lat="29.865353" lon="92.598063">
<time>2016-10-08T05:04:49Z</time></trkpt>
<trkpt lat="29.865313" lon="92.597913">
<time>2016-10-08T05:04:50Z</time></trkpt>
<trkpt lat="29.865273" lon="92.597703">
<time>2016-10-08T05:04:51Z</time></trkpt>
<trkpt lat="29.865263" lon="92.597563">
<time>2016-10-08T05:04:52Z</time></trkpt>
<trkpt lat="29.865253" lon="92.597413">
<time>2016-10-08T05:04:53Z</time></trkpt>
<trkpt lat="29.865243" lon="92.597263">
<time>2016-10-08T05:04:54Z</time></trkpt>
<trkpt lat="29.865243" lon="92.597063">
<time>2016-10-08T05:04:55Z</time></trkpt>
<trkpt lat="29.865253" lon="92.596683">
<time>2016-10-08T05:04:56Z</time></trkpt>
<trkpt lat="29.865253" lon="92.596183">
<time>2016-10-08T05:04:57Z</time></trkpt>
<trkpt lat="29.865253" lon="92.595873">
<time>2016-10-08T05:04:58Z</time></trkpt>
<trkpt lat="29.865253" lon="92.595633">
<time>2016-10-08T05:04:59Z</time></trkpt>
<trkpt lat="29.865243" lon="92.595393">
<time>2016-10-08T05:05:00Z</time></trkpt>
<trkpt lat="29.865253" lon="92.595073">
<time>2016-10-08T05:05:01Z</time></trkpt>
<trkpt lat="29.865243" lon="92.594863">
<time>2016-10-08T05:05:02Z</time></trkpt>
<trkpt lat="29.865233" lon="92.594743">
<time>2016-10-08T05:05:03Z</time></trkpt>
<trkpt lat="29.865223" lon="92.594663">
<time>2016-10-08T05:05:04Z</time></trkpt>
<trkpt lat="29.865193" lon="92.594563">
<time>2016-10-08T05:05:05Z</time></trkpt>
<trkpt lat="29.865153" lon="92.594463">
<time>2016-10-08T05:05:06Z</time></trkpt>
<trkpt lat="29.865113" lon="92.594373">
<time>2016-10-08T05:05:07Z</time></trkpt>
<trkpt lat="29.865053" lon="92.594283">
<time>2016-10-08T05:05:08Z</time></trkpt>
<trkpt lat="29.864983" lon="92.594183">
<time>2016-10-08T05:05:09Z</time></trkpt>
<trkpt lat="29.864913" lon="92.594083">
<time>2016-10-08T05:05:10Z</time></trkpt>
<trkpt lat="29.864843" lon="92.594003">
<time>2016-10-08T05:05:11Z</time></trkpt>
<trkpt lat="29.864773" lon="92.593923">
<time>2016-10-08T05:05:12Z</time></trkpt>
<trkpt lat="29.864673" lon="92.593793">
<time>2016-10-08T05:05:13Z</time></trkpt>
<trkpt lat="29.864593" lon="92.593663">
<time>2016-10-08T05:05:14Z</time></trkpt>
<trkpt lat="29.864533" lon="92.593543">
<time>2016-10-08T05:05:15Z</time></trkpt>
<trkpt lat="29.864483" lon="92.593403">
<time>2016-10-08T05:05:16Z</time></trkpt>
<trkpt lat="29.864453" lon="92.593263">
<time>2016-10-08T05:05:17Z</time></trkpt>
<trkpt lat="29.864433" lon="92.593143">
<time>2016-10-08T05:05:18Z</time></trkpt>
<trkpt lat="29.864433" lon="92.593043">
<time>2016-10-08T05:05:19Z</time></trkpt>
<trkpt lat="29.864443" lon="92.592933">
<time>2016-10-08T05:05:20Z</time></trkpt>
<trkpt lat="29.864453" lon="92.592833">
<time>2016-10-08T05:05:21Z</time></trkpt>
<trkpt lat="29.864473" lon="92.592693">
<time>2016-10-08T05:05:22Z</time></trkpt>
<trkpt lat="29.864513" lon="92.592443">
<time>2016-10-08T05:05:23Z</time></trkpt>
<trkpt lat="29.864573" lon="92.592063">
<time>2016-10-08T05:05:24Z</time></trkpt>
<trkpt lat="29.864613" lon="92.591743">
<time>2016-10-08T05:05:25Z</time></trkpt>
<trkpt lat="29.864663" lon="92.591493">
<time>2016-10-08T05:05:26Z</time></trkpt>
<trkpt lat="29.864743" lon="92.591263">
<time>2016-10-08T05:05:27Z</time></trkpt>
<trkpt lat="29.864823" lon="92.591093">
<time>2016-10-08T05:05:28Z</time></trkpt>
<trkpt lat="29.864953" lon="92.590903">
<time>2016-10-08T05:05:29Z</time></trkpt>
<trkpt lat="29.865142" lon="92.590633">
<time>2016-10-08T05:05:30Z</time></trkpt>
<trkpt lat="29.865412" lon="92.590293">
<time>2016-10-08T05:05:31Z</time></trkpt>
<trkpt lat="29.865662" lon="92.589953">
<time>2016-10-08T05:05:32Z</time></trkpt>
<trkpt lat="29.865822" lon="92.589733">
<time>2016-10-08T05:05:33Z</time></trkpt>
<trkpt lat="29.865952" lon="92.589573">
<time>2016-10-08T05:05:34Z</time></trkpt>
<trkpt lat="29.866082" lon="92.589383">
<time>2016-10-08T05:05:35Z</time></trkpt>
<trkpt lat="29.866152" lon="92.589262">
<time>2016-10-08T05:05:36Z</time></trkpt>
<trkpt lat="29.866212" lon="92.589142">
<time>2016-10-08T05:05:37Z</time></trkpt>
<trkpt lat="29.866292" lon="92.588972">
<time>2016-10-08T05:05:38Z</time></trkpt>
<trkpt lat="29.866352" lon="92.588822">
<time>2016-10-08T05:05:39Z</time></trkpt>
<trkpt lat="29.866452" lon="92.588542">
<time>2016-10-08T05:05:40Z</time></trkpt>
<trkpt lat="29.866741" lon="92.587782">
<time>2016-10-08T05:05:41Z</time></trkpt>
<trkpt lat="29.866861" lon="92.587502">
<time>2016-10-08T05:05:42Z</time></trkpt>
<trkpt lat="29.867051" lon="92.587102">
<time>2016-10-08T05:05:43Z</time></trkpt>
<trkpt lat="29.867261" lon="92.586712">
<time>2016-10-08T05:05:44Z</time></trkpt>
<trkpt lat="29.867551" lon="92.586191">
<time>2016-10-08T05:05:45Z</time></trkpt>
<trkpt lat="29.8678" lon="92.585721">
<time>2016-10-08T05:05:46Z</time></trkpt>
<trkpt lat="29.86821" lon="92.584971">
<time>2016-10-08T05:05:47Z</time></trkpt>
<trkpt lat="29.86837" lon="92.584671">
<time>2016-10-08T05:05:48Z</time></trkpt>
<trkpt lat="29.86851" lon="92.584451">
<time>2016-10-08T05:05:49Z</time></trkpt>
<trkpt lat="29.86864" lon="92.58422">
<time>2016-10-08T05:05:50Z</time></trkpt>
<trkpt lat="29.868779" lon="92.58401">
<time>2016-10-08T05:05:51Z</time></trkpt>
<trkpt lat="29.868919" lon="92.58379">
<time>2016-10-08T05:05:52Z</time></trkpt>
<trkpt lat="29.869059" lon="92.58359">
<time>2016-10-08T05:05:53Z</time></trkpt>
<trkpt lat="29.869169" lon="92.58345">
<time>2016-10-08T05:05:54Z</time></trkpt>
<trkpt lat="29.869219" lon="92.58336">
<time>2016-10-08T05:05:55Z</time></trkpt>
<trkpt lat="29.869289" lon="92.58324">
<time>2016-10-08T05:05:56Z</time></trkpt>
<trkpt lat="29.869359" lon="92.58307">
<time>2016-10-08T05:05:57Z</time></trkpt>
<trkpt lat="29.869389" lon="92.58292">
<time>2016-10-08T05:05:58Z</time></trkpt>
<trkpt lat="29.869419" lon="92.5827">
<time>2016-10-08T05:05:59Z</time></trkpt>
<trkpt lat="29.869429" lon="92.58249">
<time>2016-10-08T05:06:00Z</time></trkpt>
<trkpt lat="29.869458" lon="92.582009">
<time>2016-10-08T05:06:01Z</time></trkpt>
<trkpt lat="29.869488" lon="92.581599">
<time>2016-10-08T05:06:02Z</time></trkpt>
<trkpt lat="29.869498" lon="92.581369">
<time>2016-10-08T05:06:03Z</time></trkpt>
<trkpt lat="29.869488" lon="92.581109">
<time>2016-10-08T05:06:04Z</time></trkpt>
<trkpt lat="29.869477" lon="92.580778">
<time>2016-10-08T05:06:05Z</time></trkpt>
<trkpt lat="29.869457" lon="92.580528">
<time>2016-10-08T05:06:06Z</time></trkpt>
<trkpt lat="29.869437" lon="92.580098">
<time>2016-10-08T05:06:07Z</time></trkpt>
<trkpt lat="29.869427" lon="92.579888">
<time>2016-10-08T05:06:08Z</time></trkpt>
<trkpt lat="29.869396" lon="92.579297">
<time>2016-10-08T05:06:09Z</time></trkpt>
<trkpt lat="29.869376" lon="92.578897">
<time>2016-10-08T05:06:10Z</time></trkpt>
<trkpt lat="29.869335" lon="92.578316">
<time>2016-10-08T05:06:11Z</time></trkpt>
<trkpt lat="29.869315" lon="92.577966">
<time>2016-10-08T05:06:12Z</time></trkpt>
<trkpt lat="29.869295" lon="92.577756">
<time>2016-10-08T05:06:13Z</time></trkpt>
<trkpt lat="29.869295" lon="92.577666">
<time>2016-10-08T05:06:14Z</time></trkpt>
<trkpt lat="29.869265" lon="92.577526">
<time>2016-10-08T05:06:15Z</time></trkpt>
<trkpt lat="29.869235" lon="92.577386">
<time>2016-10-08T05:06:16Z</time></trkpt>
<trkpt lat="29.869175" lon="92.577276">
<time>2016-10-08T05:06:17Z</time></trkpt>
<trkpt lat="29.869084" lon="92.577115">
<time>2016-10-08T05:06:18Z</time></trkpt>
<trkpt lat="29.868994" lon="92.577005">
<time>2016-10-08T05:06:19Z</time></trkpt>
<trkpt lat="29.868844" lon="92.576835">
<time>2016-10-08T05:06:20Z</time></trkpt>
<trkpt lat="29.868604" lon="92.576565">
<time>2016-10-08T05:06:21Z</time></trkpt>
<trkpt lat="29.868414" lon="92.576345">
<time>2016-10-08T05:06:22Z</time></trkpt>
<trkpt lat="29.868244" lon="92.576135">
<time>2016-10-08T05:06:23Z</time></trkpt>
<trkpt lat="29.868103" lon="92.575934">
<time>2016-10-08T05:06:24Z</time></trkpt>
<trkpt lat="29.868053" lon="92.575854">
<time>2016-10-08T05:06:25Z</time></trkpt>
<trkpt lat="29.868003" lon="92.575754">
<time>2016-10-08T05:06:26Z</time></trkpt>
<trkpt lat="29.867943" lon="92.575634">
<time>2016-10-08T05:06:27Z</time></trkpt>
<trkpt lat="29.867883" lon="92.575464">
<time>2016-10-08T05:06:28Z</time></trkpt>
<trkpt lat="29.867833" lon="92.575324">
<time>2016-10-08T05:06:29Z</time></trkpt>
<trkpt lat="29.867803" lon="92.575164">
<time>2016-10-08T05:06:30Z</time></trkpt>
<trkpt lat="29.867712" lon="92.574613">
<time>2016-10-08T05:06:31Z</time></trkpt>
<trkpt lat="29.867672" lon="92.574343">
<time>2016-10-08T05:06:32Z</time></trkpt>
<trkpt lat="29.867581" lon="92.573782">
<time>2016-10-08T05:06:33Z</time></trkpt>
<trkpt lat="29.867551" lon="92.573472">
<time>2016-10-08T05:06:34Z</time></trkpt>
<trkpt lat="29.867541" lon="92.573272">
<time>2016-10-08T05:06:35Z</time></trkpt>
<trkpt lat="29.867551" lon="92.573101">
<time>2016-10-08T05:06:36Z</time></trkpt>
<trkpt lat="29.86757" lon="92.572861">
<time>2016-10-08T05:06:37Z</time></trkpt>
<trkpt lat="29.86766" lon="92.572421">
<time>2016-10-08T05:06:38Z</time></trkpt>
<trkpt lat="29.867839" lon="92.57154">
<time>2016-10-08T05:06:39Z</time></trkpt>
<trkpt lat="29.867938" lon="92.571069">
<time>2016-10-08T05:06:40Z</time></trkpt>
<trkpt lat="29.868038" lon="92.570709">
<time>2016-10-08T05:06:41Z</time></trkpt>
<trkpt lat="29.868227" lon="92.570218">
<time>2016-10-08T05:06:42Z</time></trkpt>
<trkpt lat="29.868546" lon="92.569447">
<time>2016-10-08T05:06:43Z</time></trkpt>
<trkpt lat="29.868855" lon="92.568686">
<time>2016-10-08T05:06:44Z</time></trkpt>
<trkpt lat="29.869274" lon="92.567685">
<time>2016-10-08T05:06:45Z</time></trkpt>
<trkpt lat="29.869543" lon="92.567084">
<time>2016-10-08T05:06:46Z</time></trkpt>
<trkpt lat="29.869713" lon="92.566683">
<time>2016-10-08T05:06:47Z</time></trkpt>
<trkpt lat="29.869852" lon="92.566393">
<time>2016-10-08T05:06:48Z</time></trkpt>
<trkpt lat="29.869932" lon="92.566273">
<time>2016-10-08T05:06:49Z</time></trkpt>
<trkpt lat="29.870002" lon="92.566203">
<time>2016-10-08T05:06:50Z</time></trkpt>
<trkpt lat="29.870092" lon="92.566132">
<time>2016-10-08T05:06:51Z</time></trkpt>
<trkpt lat="29.870212" lon="92.566052">
<time>2016-10-08T05:06:52Z</time></trkpt>
<trkpt lat="29.870422" lon="92.565922">
<time>2016-10-08T05:06:53Z</time></trkpt>
<trkpt lat="29.870542" lon="92.565852">
<time>2016-10-08T05:06:54Z</time></trkpt>
<trkpt lat="29.870751" lon="92.565712">
<time>2016-10-08T05:06:55Z</time></trkpt>
<trkpt lat="29.870851" lon="92.565642">
<time>2016-10-08T05:06:56Z</time></trkpt>
<trkpt lat="29.871021" lon="92.565501">
<time>2016-10-08T05:06:57Z</time></trkpt>
<trkpt lat="29.871131" lon="92.565391">
<time>2016-10-08T05:06:58Z</time></trkpt>
<trkpt lat="29.871211" lon="92.565271">
<time>2016-10-08T05:06:59Z</time></trkpt>
<trkpt lat="29.871281" lon="92.565131">
<time>2016-10-08T05:07:00Z</time></trkpt>
<trkpt lat="29.87133" lon="92.565001">
<time>2016-10-08T05:07:01Z</time></trkpt>
<trkpt lat="29.87137" lon="92.564871">
<time>2016-10-08T05:07:02Z</time></trkpt>
<trkpt lat="29.87144" lon="92.56454">
<time>2016-10-08T05:07:03Z</time></trkpt>
<trkpt lat="29.871519" lon="92.564109">
<time>2016-10-08T05:07:04Z</time></trkpt>
<trkpt lat="29.871569" lon="92.563799">
<time>2016-10-08T05:07:05Z</time></trkpt>
<trkpt lat="29.871618" lon="92.563589">
<time>2016-10-08T05:07:06Z</time></trkpt>
<trkpt lat="29.871648" lon="92.563518">
<time>2016-10-08T05:07:07Z</time></trkpt>
<trkpt lat="29.871698" lon="92.563418">
<time>2016-10-08T05:07:08Z</time></trkpt>
<trkpt lat="29.871758" lon="92.563288">
<time>2016-10-08T05:07:09Z</time></trkpt>
<trkpt lat="29.871828" lon="92.563188">
<time>2016-10-08T05:07:10Z</time></trkpt>
<trkpt lat="29.871918" lon="92.563078">
<time>2016-10-08T05:07:11Z</time></trkpt>
<trkpt lat="29.872007" lon="92.562988">
<time>2016-10-08T05:07:12Z</time></trkpt>
<trkpt lat="29.872137" lon="92.562887">
<time>2016-10-08T05:07:13Z</time></trkpt>
<trkpt lat="29.872287" lon="92.562797">
<time>2016-10-08T05:07:14Z</time></trkpt>
<trkpt lat="29.872417" lon="92.562737">
<time>2016-10-08T05:07:15Z</time></trkpt>
<trkpt lat="29.872747" lon="92.562607">
<time>2016-10-08T05:07:16Z</time></trkpt>
<trkpt lat="29.873107" lon="92.562457">
<time>2016-10-08T05:07:17Z</time></trkpt>
<trkpt lat="29.873386" lon="92.562346">
<time>2016-10-08T05:07:18Z</time></trkpt>
<trkpt lat="29.873606" lon="92.562256">
<time>2016-10-08T05:07:19Z</time></trkpt>
<trkpt lat="29.873786" lon="92.562166">
<time>2016-10-08T05:07:20Z</time></trkpt>
<trkpt lat="29.873956" lon="92.562046">
<time>2016-10-08T05:07:21Z</time></trkpt>
<trkpt lat="29.874046" lon="92.561956">
<time>2016-10-08T05:07:22Z</time></trkpt>
<trkpt lat="29.874166" lon="92.561826">
<time>2016-10-08T05:07:23Z</time></trkpt>
<trkpt lat="29.874385" lon="92.561555">
<time>2016-10-08T05:07:24Z</time></trkpt>
<trkpt lat="29.874555" lon="92.561335">
<time>2016-10-08T05:07:25Z</time></trkpt>
<trkpt lat="29.874665" lon="92.561195">
<time>2016-10-08T05:07:26Z</time></trkpt>
<trkpt lat="29.874714" lon="92.561104">
<time>2016-10-08T05:07:27Z</time></trkpt>
<trkpt lat="29.874744" lon="92.561044">
<time>2016-10-08T05:07:28Z</time></trkpt>
<trkpt lat="29.874794" lon="92.560884">
<time>2016-10-08T05:07:29Z</time></trkpt>
<trkpt lat="29.874814" lon="92.560684">
<time>2016-10-08T05:07:30Z</time></trkpt>
<trkpt lat="29.874823" lon="92.560503">
<time>2016-10-08T05:07:31Z</time></trkpt>
<trkpt lat="29.874823" lon="92.560303">
<time>2016-10-08T05:07:32Z</time></trkpt>
<trkpt lat="29.874823" lon="92.560153">
<time>2016-10-08T05:07:33Z</time></trkpt>
<trkpt lat="29.874843" lon="92.559912">
<time>2016-10-08T05:07:34Z</time></trkpt>
<trkpt lat="29.874892" lon="92.559502">
<time>2016-10-08T05:07:35Z</time></trkpt>
<trkpt lat="29.874981" lon="92.558911">
<time>2016-10-08T05:07:36Z</time></trkpt>
<trkpt lat="29.8751" lon="92.558139">
<time>2016-10-08T05:07:37Z</time></trkpt>
<trkpt lat="29.875199" lon="92.557548">
<time>2016-10-08T05:07:38Z</time></trkpt>
<trkpt lat="29.875268" lon="92.557047">
<time>2016-10-08T05:07:39Z</time></trkpt>
<trkpt lat="29.875307" lon="92.556797">
<time>2016-10-08T05:07:40Z</time></trkpt>
<trkpt lat="29.875367" lon="92.556546">
<time>2016-10-08T05:07:41Z</time></trkpt>
<trkpt lat="29.875456" lon="92.556155">
<time>2016-10-08T05:07:42Z</time></trkpt>
<trkpt lat="29.875526" lon="92.555895">
<time>2016-10-08T05:07:43Z</time></trkpt>
<trkpt lat="29.875595" lon="92.555634">
<time>2016-10-08T05:07:44Z</time></trkpt>
<trkpt lat="29.875675" lon="92.555344">
<time>2016-10-08T05:07:45Z</time></trkpt>
<trkpt lat="29.875724" lon="92.555143">
<time>2016-10-08T05:07:46Z</time></trkpt>
<trkpt lat="29.875764" lon="92.555023">
<time>2016-10-08T05:07:47Z</time></trkpt>
<trkpt lat="29.875824" lon="92.554883">
<time>2016-10-08T05:07:48Z</time></trkpt>
<trkpt lat="29.875923" lon="92.554682">
<time>2016-10-08T05:07:49Z</time></trkpt>
<trkpt lat="29.876063" lon="92.554462">
<time>2016-10-08T05:07:50Z</time></trkpt>
<trkpt lat="29.876203" lon="92.554292">
<time>2016-10-08T05:07:51Z</time></trkpt>
<trkpt lat="29.876263" lon="92.554221">
<time>2016-10-08T05:07:52Z</time></trkpt>
<trkpt lat="29.876352" lon="92.554141">
<time>2016-10-08T05:07:53Z</time></trkpt>
<trkpt lat="29.876542" lon="92.553951">
<time>2016-10-08T05:07:54Z</time></trkpt>
<trkpt lat="29.876682" lon="92.553831">
<time>2016-10-08T05:07:55Z</time></trkpt>
<trkpt lat="29.876782" lon="92.55372">
<time>2016-10-08T05:07:56Z</time></trkpt>
<trkpt lat="29.876832" lon="92.55365">
<time>2016-10-08T05:07:57Z</time></trkpt>
<trkpt lat="29.876861" lon="92.55361">
<time>2016-10-08T05:07:58Z</time></trkpt>
<trkpt lat="29.876881" lon="92.55356">
<time>2016-10-08T05:07:59Z</time></trkpt>
<trkpt lat="29.876901" lon="92.55352">
<time>2016-10-08T05:08:00Z</time></trkpt>
<trkpt lat="29.876911" lon="92.55348">
<time>2016-10-08T05:08:01Z</time></trkpt>
<trkpt lat="29.876931" lon="92.55342">
<time>2016-10-08T05:08:02Z</time></trkpt>
<trkpt lat="29.876941" lon="92.55335">
<time>2016-10-08T05:08:03Z</time></trkpt>
<trkpt lat="29.876951" lon="92.553279">
<time>2016-10-08T05:08:04Z</time></trkpt>
<trkpt lat="29.876961" lon="92.553139">
<time>2016-10-08T05:08:05Z</time></trkpt>
<trkpt lat="29.87697" lon="92.552939">
<time>2016-10-08T05:08:06Z</time></trkpt>
<trkpt lat="29.87698" lon="92.552698">
<time>2016-10-08T05:08:07Z</time></trkpt>
<trkpt lat="29.876989" lon="92.552568">
<time>2016-10-08T05:08:08Z</time></trkpt>
<trkpt lat="29.877009" lon="92.552388">
<time>2016-10-08T05:08:09Z</time></trkpt>
<trkpt lat="29.877039" lon="92.552217">
<time>2016-10-08T05:08:10Z</time></trkpt>
<trkpt lat="29.877088" lon="92.552047">
<time>2016-10-08T05:08:11Z</time></trkpt>
<trkpt lat="29.877138" lon="92.551917">
<time>2016-10-08T05:08:12Z</time></trkpt>
<trkpt lat="29.877198" lon="92.551796">
<time>2016-10-08T05:08:13Z</time></trkpt>
<trkpt lat="29.877268" lon="92.551666">
<time>2016-10-08T05:08:14Z</time></trkpt>
<trkpt lat="29.877347" lon="92.551516">
<time>2016-10-08T05:08:15Z</time></trkpt>
<trkpt lat="29.877407" lon="92.551406">
<time>2016-10-08T05:08:16Z</time></trkpt>
<trkpt lat="29.877457" lon="92.551315">
<time>2016-10-08T05:08:17Z</time></trkpt>
<trkpt lat="29.877567" lon="92.551125">
<time>2016-10-08T05:08:18Z</time></trkpt>
<trkpt lat="29.877676" lon="92.550975">
<time>2016-10-08T05:08:19Z</time></trkpt>
<trkpt lat="29.877826" lon="92.550794">
<time>2016-10-08T05:08:20Z</time></trkpt>
<trkpt lat="29.877966" lon="92.550594">
<time>2016-10-08T05:08:21Z</time></trkpt>
<trkpt lat="29.878095" lon="92.550393">
<time>2016-10-08T05:08:22Z</time></trkpt>
<trkpt lat="29.878225" lon="92.550223">
<time>2016-10-08T05:08:23Z</time></trkpt>
<trkpt lat="29.878305" lon="92.550093">
<time>2016-10-08T05:08:24Z</time></trkpt>
<trkpt lat="29.878554" lon="92.549722">
<time>2016-10-08T05:08:25Z</time></trkpt>
<trkpt lat="29.878644" lon="92.549602">
<time>2016-10-08T05:08:26Z</time></trkpt>
<trkpt lat="29.878693" lon="92.549541">
<time>2016-10-08T05:08:27Z</time></trkpt>
<trkpt lat="29.878753" lon="92.549451">
<time>2016-10-08T05:08:28Z</time></trkpt>
<trkpt lat="29.878793" lon="92.549361">
<time>2016-10-08T05:08:29Z</time></trkpt>
<trkpt lat="29.878823" lon="92.549261">
<time>2016-10-08T05:08:30Z</time></trkpt>
<trkpt lat="29.878833" lon="92.549181">
<time>2016-10-08T05:08:31Z</time></trkpt>
<trkpt lat="29.878843" lon="92.54911">
<time>2016-10-08T05:08:32Z</time></trkpt>
<trkpt lat="29.878852" lon="92.54904">
<time>2016-10-08T05:08:33Z</time></trkpt>
<trkpt lat="29.878852" lon="92.54892">
<time>2016-10-08T05:08:34Z</time></trkpt>
<trkpt lat="29.878842" lon="92.54885">
<time>2016-10-08T05:08:35Z</time></trkpt>
<trkpt lat="29.878832" lon="92.54874">
<time>2016-10-08T05:08:36Z</time></trkpt>
<trkpt lat="29.878822" lon="92.548619">
<time>2016-10-08T05:08:37Z</time></trkpt>
<trkpt lat="29.878781" lon="92.548218">
<time>2016-10-08T05:08:38Z</time></trkpt>
<trkpt lat="29.87876" lon="92.548048">
<time>2016-10-08T05:08:39Z</time></trkpt>
<trkpt lat="29.87874" lon="92.547868">
<time>2016-10-08T05:08:40Z</time></trkpt>
<trkpt lat="29.87872" lon="92.547777">
<time>2016-10-08T05:08:41Z</time></trkpt>
<trkpt lat="29.878689" lon="92.547607">
<time>2016-10-08T05:08:42Z</time></trkpt>
<trkpt lat="29.878649" lon="92.547467">
<time>2016-10-08T05:08:43Z</time></trkpt>
<trkpt lat="29.878498" lon="92.547026">
<time>2016-10-08T05:08:44Z</time></trkpt>
<trkpt lat="29.878277" lon="92.546494">
<time>2016-10-08T05:08:45Z</time></trkpt>
<trkpt lat="29.878207" lon="92.546324">
<time>2016-10-08T05:08:46Z</time></trkpt>
<trkpt lat="29.878157" lon="92.546184">
<time>2016-10-08T05:08:47Z</time></trkpt>
<trkpt lat="29.878126" lon="92.546083">
<time>2016-10-08T05:08:48Z</time></trkpt>
<trkpt lat="29.878086" lon="92.545913">
<time>2016-10-08T05:08:49Z</time></trkpt>
<trkpt lat="29.878066" lon="92.545803">
<time>2016-10-08T05:08:50Z</time></trkpt>
<trkpt lat="29.878056" lon="92.545723">
<time>2016-10-08T05:08:51Z</time></trkpt>
<trkpt lat="29.878045" lon="92.545632">
<time>2016-10-08T05:08:52Z</time></trkpt>
<trkpt lat="29.878045" lon="92.545532">
<time>2016-10-08T05:08:53Z</time></trkpt>
<trkpt lat="29.878045" lon="92.545332">
<time>2016-10-08T05:08:54Z</time></trkpt>
<trkpt lat="29.878044" lon="92.545121">
<time>2016-10-08T05:08:55Z</time></trkpt>
<trkpt lat="29.878044" lon="92.544921">
<time>2016-10-08T05:08:56Z</time></trkpt>
<trkpt lat="29.878053" lon="92.54471">
<time>2016-10-08T05:08:57Z</time></trkpt>
<trkpt lat="29.878053" lon="92.544399">
<time>2016-10-08T05:08:58Z</time></trkpt>
<trkpt lat="29.878052" lon="92.544259">
<time>2016-10-08T05:08:59Z</time></trkpt>
<trkpt lat="29.878052" lon="92.544048">
<time>2016-10-08T05:09:00Z</time></trkpt>
<trkpt lat="29.878041" lon="92.543848">
<time>2016-10-08T05:09:01Z</time></trkpt>
<trkpt lat="29.878021" lon="92.543657">
<time>2016-10-08T05:09:02Z</time></trkpt>
<trkpt lat="29.87799" lon="92.543417">
<time>2016-10-08T05:09:03Z</time></trkpt>
<trkpt lat="29.87793" lon="92.543126">
<time>2016-10-08T05:09:04Z</time></trkpt>
<trkpt lat="29.877829" lon="92.542745">
<time>2016-10-08T05:09:05Z</time></trkpt>
<trkpt lat="29.877768" lon="92.542515">
<time>2016-10-08T05:09:06Z</time></trkpt>
<trkpt lat="29.877688" lon="92.542184">
<time>2016-10-08T05:09:07Z</time></trkpt>
<trkpt lat="29.877637" lon="92.541963">
<time>2016-10-08T05:09:08Z</time></trkpt>
<trkpt lat="29.877577" lon="92.541763">
<time>2016-10-08T05:09:09Z</time></trkpt>
<trkpt lat="29.877486" lon="92.541402">
<time>2016-10-08T05:09:10Z</time></trkpt>
<trkpt lat="29.877435" lon="92.541181">
<time>2016-10-08T05:09:11Z</time></trkpt>
<trkpt lat="29.877375" lon="92.540961">
<time>2016-10-08T05:09:12Z</time></trkpt>
<trkpt lat="29.877335" lon="92.5408">
<time>2016-10-08T05:09:13Z</time></trkpt>
<trkpt lat="29.877294" lon="92.54066">
<time>2016-10-08T05:09:14Z</time></trkpt>
<trkpt lat="29.877254" lon="92.54054">
<time>2016-10-08T05:09:15Z</time></trkpt>
<trkpt lat="29.877194" lon="92.540389">
<time>2016-10-08T05:09:16Z</time></trkpt>
<trkpt lat="29.877143" lon="92.540259">
<time>2016-10-08T05:09:17Z</time></trkpt>
<trkpt lat="29.877093" lon="92.540159">
<time>2016-10-08T05:09:18Z</time></trkpt>
<trkpt lat="29.877053" lon="92.540078">
<time>2016-10-08T05:09:19Z</time></trkpt>
<trkpt lat="29.876973" lon="92.539938">
<time>2016-10-08T05:09:20Z</time></trkpt>
<trkpt lat="29.876862" lon="92.539748">
<time>2016-10-08T05:09:21Z</time></trkpt>
<trkpt lat="29.876772" lon="92.539597">
<time>2016-10-08T05:09:22Z</time></trkpt>
<trkpt lat="29.876721" lon="92.539487">
<time>2016-10-08T05:09:23Z</time></trkpt>
<trkpt lat="29.876661" lon="92.539367">
<time>2016-10-08T05:09:24Z</time></trkpt>
<trkpt lat="29.876591" lon="92.539196">
<time>2016-10-08T05:09:25Z</time></trkpt>
<trkpt lat="29.87652" lon="92.539056">
<time>2016-10-08T05:09:26Z</time></trkpt>
<trkpt lat="29.87645" lon="92.538895">
<time>2016-10-08T05:09:27Z</time></trkpt>
<trkpt lat="29.8764" lon="92.538775">
<time>2016-10-08T05:09:28Z</time></trkpt>
<trkpt lat="29.87635" lon="92.538665">
<time>2016-10-08T05:09:29Z</time></trkpt>
<trkpt lat="29.876299" lon="92.538544">
<time>2016-10-08T05:09:30Z</time></trkpt>
<trkpt lat="29.876259" lon="92.538474">
<time>2016-10-08T05:09:31Z</time></trkpt>
<trkpt lat="29.876229" lon="92.538414">
<time>2016-10-08T05:09:32Z</time></trkpt>
<trkpt lat="29.876199" lon="92.538364">
<time>2016-10-08T05:09:33Z</time></trkpt>
<trkpt lat="29.876129" lon="92.538294">
<time>2016-10-08T05:09:34Z</time></trkpt>
<trkpt lat="29.876069" lon="92.538223">
<time>2016-10-08T05:09:35Z</time></trkpt>
<trkpt lat="29.875998" lon="92.538173">
<time>2016-10-08T05:09:36Z</time></trkpt>
<trkpt lat="29.875948" lon="92.538143">
<time>2016-10-08T05:09:37Z</time></trkpt>
<trkpt lat="29.875878" lon="92.538093">
<time>2016-10-08T05:09:38Z</time></trkpt>
<trkpt lat="29.875798" lon="92.538053">
<time>2016-10-08T05:09:39Z</time></trkpt>
<trkpt lat="29.875718" lon="92.538013">
<time>2016-10-08T05:09:40Z</time></trkpt>
<trkpt lat="29.875628" lon="92.537953">
<time>2016-10-08T05:09:41Z</time></trkpt>
<trkpt lat="29.875558" lon="92.537903">
<time>2016-10-08T05:09:42Z</time></trkpt>
<trkpt lat="29.875488" lon="92.537863">
<time>2016-10-08T05:09:43Z</time></trkpt>
<trkpt lat="29.875388" lon="92.537802">
<time>2016-10-08T05:09:44Z</time></trkpt>
<trkpt lat="29.875297" lon="92.537752">
<time>2016-10-08T05:09:45Z</time></trkpt>
<trkpt lat="29.875227" lon="92.537712">
<time>2016-10-08T05:09:46Z</time></trkpt>
<trkpt lat="29.875157" lon="92.537672">
<time>2016-10-08T05:09:47Z</time></trkpt>
<trkpt lat="29.875077" lon="92.537632">
<time>2016-10-08T05:09:48Z</time></trkpt>
<trkpt lat="29.875007" lon="92.537592">
<time>2016-10-08T05:09:49Z</time></trkpt>
<trkpt lat="29.874927" lon="92.537532">
<time>2016-10-08T05:09:50Z</time></trkpt>
<trkpt lat="29.874867" lon="92.537502">
<time>2016-10-08T05:09:51Z</time></trkpt>
<trkpt lat="29.874807" lon="92.537461">
<time>2016-10-08T05:09:52Z</time></trkpt>
<trkpt lat="29.874737" lon="92.537411">
<time>2016-10-08T05:09:53Z</time></trkpt>
<trkpt lat="29.874676" lon="92.537351">
<time>2016-10-08T05:09:54Z</time></trkpt>
<trkpt lat="29.874646" lon="92.537321">
<time>2016-10-08T05:09:55Z</time></trkpt>
<trkpt lat="29.874626" lon="92.537291">
<time>2016-10-08T05:09:56Z</time></trkpt>
<trkpt lat="29.874606" lon="92.537251">
<time>2016-10-08T05:09:57Z</time></trkpt>
<trkpt lat="29.874586" lon="92.537221">
<time>2016-10-08T05:09:58Z</time></trkpt>
<trkpt lat="29.874566" lon="92.537161">
<time>2016-10-08T05:09:59Z</time></trkpt>
<trkpt lat="29.874546" lon="92.537121">
<time>2016-10-08T05:10:00Z</time></trkpt>
<trkpt lat="29.874506" lon="92.53699">
<time>2016-10-08T05:10:01Z</time></trkpt>
<trkpt lat="29.874485" lon="92.53686">
<time>2016-10-08T05:10:02Z</time></trkpt>
<trkpt lat="29.874445" lon="92.536639">
<time>2016-10-08T05:10:03Z</time></trkpt>
<trkpt lat="29.874404" lon="92.536439">
<time>2016-10-08T05:10:04Z</time></trkpt>
<trkpt lat="29.874374" lon="92.536278">
<time>2016-10-08T05:10:05Z</time></trkpt>
<trkpt lat="29.874343" lon="92.536108">
<time>2016-10-08T05:10:06Z</time></trkpt>
<trkpt lat="29.874313" lon="92.535927">
<time>2016-10-08T05:10:07Z</time></trkpt>
<trkpt lat="29.874283" lon="92.535767">
<time>2016-10-08T05:10:08Z</time></trkpt>
<trkpt lat="29.874232" lon="92.535646">
<time>2016-10-08T05:10:09Z</time></trkpt>
<trkpt lat="29.874192" lon="92.535546">
<time>2016-10-08T05:10:10Z</time></trkpt>
<trkpt lat="29.874132" lon="92.535426">
<time>2016-10-08T05:10:11Z</time></trkpt>
<trkpt lat="29.874051" lon="92.535285">
<time>2016-10-08T05:10:12Z</time></trkpt>
<trkpt lat="29.873971" lon="92.535175">
<time>2016-10-08T05:10:13Z</time></trkpt>
<trkpt lat="29.873891" lon="92.535065">
<time>2016-10-08T05:10:14Z</time></trkpt>
<trkpt lat="29.8738" lon="92.534904">
<time>2016-10-08T05:10:15Z</time></trkpt>
<trkpt lat="29.87374" lon="92.534784">
<time>2016-10-08T05:10:16Z</time></trkpt>
<trkpt lat="29.87371" lon="92.534704">
<time>2016-10-08T05:10:17Z</time></trkpt>
<trkpt lat="29.87369" lon="92.534594">
<time>2016-10-08T05:10:18Z</time></trkpt>
<trkpt lat="29.873669" lon="92.534433">
<time>2016-10-08T05:10:19Z</time></trkpt>
<trkpt lat="29.873649" lon="92.534293">
<time>2016-10-08T05:10:20Z</time></trkpt>
<trkpt lat="29.873639" lon="92.534142">
<time>2016-10-08T05:10:21Z</time></trkpt>
<trkpt lat="29.873628" lon="92.533962">
<time>2016-10-08T05:10:22Z</time></trkpt>
<trkpt lat="29.873618" lon="92.533751">
<time>2016-10-08T05:10:23Z</time></trkpt>
<trkpt lat="29.873597" lon="92.533531">
<time>2016-10-08T05:10:24Z</time></trkpt>
<trkpt lat="29.873577" lon="92.53336">
<time>2016-10-08T05:10:25Z</time></trkpt>
<trkpt lat="29.873536" lon="92.533119">
<time>2016-10-08T05:10:26Z</time></trkpt>
<trkpt lat="29.873485" lon="92.532869">
<time>2016-10-08T05:10:27Z</time></trkpt>
<trkpt lat="29.873445" lon="92.532668">
<time>2016-10-08T05:10:28Z</time></trkpt>
<trkpt lat="29.873404" lon="92.532417">
<time>2016-10-08T05:10:29Z</time></trkpt>
<trkpt lat="29.873374" lon="92.532237">
<time>2016-10-08T05:10:30Z</time></trkpt>
<trkpt lat="29.873353" lon="92.532086">
<time>2016-10-08T05:10:31Z</time></trkpt>
<trkpt lat="29.873353" lon="92.531926">
<time>2016-10-08T05:10:32Z</time></trkpt>
<trkpt lat="29.873352" lon="92.531675">
<time>2016-10-08T05:10:33Z</time></trkpt>
<trkpt lat="29.873352" lon="92.531384">
<time>2016-10-08T05:10:34Z</time></trkpt>
<trkpt lat="29.873371" lon="92.531244">
<time>2016-10-08T05:10:35Z</time></trkpt>
<trkpt lat="29.873391" lon="92.531013">
<time>2016-10-08T05:10:36Z</time></trkpt>
<trkpt lat="29.87342" lon="92.530682">
<time>2016-10-08T05:10:37Z</time></trkpt>
<trkpt lat="29.873439" lon="92.530482">
<time>2016-10-08T05:10:38Z</time></trkpt>
<trkpt lat="29.873478" lon="92.530121">
<time>2016-10-08T05:10:39Z</time></trkpt>
<trkpt lat="29.873498" lon="92.52984">
<time>2016-10-08T05:10:40Z</time></trkpt>
<trkpt lat="29.873527" lon="92.529539">
<time>2016-10-08T05:10:41Z</time></trkpt>
<trkpt lat="29.873556" lon="92.529298">
<time>2016-10-08T05:10:42Z</time></trkpt>
<trkpt lat="29.873556" lon="92.529148">
<time>2016-10-08T05:10:43Z</time></trkpt>
<trkpt lat="29.873565" lon="92.528907">
<time>2016-10-08T05:10:44Z</time></trkpt>
<trkpt lat="29.873565" lon="92.528716">
<time>2016-10-08T05:10:45Z</time></trkpt>
<trkpt lat="29.873544" lon="92.528365">
<time>2016-10-08T05:10:46Z</time></trkpt>
<trkpt lat="29.873522" lon="92.527784">
<time>2016-10-08T05:10:47Z</time></trkpt>
<trkpt lat="29.873491" lon="92.527332">
<time>2016-10-08T05:10:48Z</time></trkpt>
<trkpt lat="29.873469" lon="92.526791">
<time>2016-10-08T05:10:49Z</time></trkpt>
<trkpt lat="29.873449" lon="92.52646">
<time>2016-10-08T05:10:50Z</time></trkpt>
<trkpt lat="29.873438" lon="92.526269">
<time>2016-10-08T05:10:51Z</time></trkpt>
<trkpt lat="29.873418" lon="92.526139">
<time>2016-10-08T05:10:52Z</time></trkpt>
<trkpt lat="29.873387" lon="92.525998">
<time>2016-10-08T05:10:53Z</time></trkpt>
<trkpt lat="29.873357" lon="92.525928">
<time>2016-10-08T05:10:54Z</time></trkpt>
<trkpt lat="29.873337" lon="92.525858">
<time>2016-10-08T05:10:55Z</time></trkpt>
<trkpt lat="29.873277" lon="92.525737">
<time>2016-10-08T05:10:56Z</time></trkpt>
<trkpt lat="29.873186" lon="92.525537">
<time>2016-10-08T05:10:57Z</time></trkpt>
<trkpt lat="29.873106" lon="92.525396">
<time>2016-10-08T05:10:58Z</time></trkpt>
<trkpt lat="29.873015" lon="92.525226">
<time>2016-10-08T05:10:59Z</time></trkpt>
<trkpt lat="29.872935" lon="92.525075">
<time>2016-10-08T05:11:00Z</time></trkpt>
<trkpt lat="29.872874" lon="92.524935">
<time>2016-10-08T05:11:01Z</time></trkpt>
<trkpt lat="29.872814" lon="92.524805">
<time>2016-10-08T05:11:02Z</time></trkpt>
<trkpt lat="29.872744" lon="92.524584">
<time>2016-10-08T05:11:03Z</time></trkpt>
<trkpt lat="29.872683" lon="92.524333">
<time>2016-10-08T05:11:04Z</time></trkpt>
<trkpt lat="29.872652" lon="92.524153">
<time>2016-10-08T05:11:05Z</time></trkpt>
<trkpt lat="29.872642" lon="92.523992">
<time>2016-10-08T05:11:06Z</time></trkpt>
<trkpt lat="29.872632" lon="92.523872">
<time>2016-10-08T05:11:07Z</time></trkpt>
<trkpt lat="29.872631" lon="92.523721">
<time>2016-10-08T05:11:08Z</time></trkpt>
<trkpt lat="29.872641" lon="92.523551">
<time>2016-10-08T05:11:09Z</time></trkpt>
<trkpt lat="29.87264" lon="92.52334">
<time>2016-10-08T05:11:10Z</time></trkpt>
<trkpt lat="29.87264" lon="92.523129">
<time>2016-10-08T05:11:11Z</time></trkpt>
<trkpt lat="29.872649" lon="92.522919">
<time>2016-10-08T05:11:12Z</time></trkpt>
<trkpt lat="29.872648" lon="92.522728">
<time>2016-10-08T05:11:13Z</time></trkpt>
<trkpt lat="29.872658" lon="92.522588">
<time>2016-10-08T05:11:14Z</time></trkpt>
<trkpt lat="29.872658" lon="92.522407">
<time>2016-10-08T05:11:15Z</time></trkpt>
<trkpt lat="29.872657" lon="92.522287">
<time>2016-10-08T05:11:16Z</time></trkpt>
<trkpt lat="29.872667" lon="92.522146">
<time>2016-10-08T05:11:17Z</time></trkpt>
<trkpt lat="29.872696" lon="92.521976">
<time>2016-10-08T05:11:18Z</time></trkpt>
<trkpt lat="29.872716" lon="92.521885">
<time>2016-10-08T05:11:19Z</time></trkpt>
<trkpt lat="29.872736" lon="92.521785">
<time>2016-10-08T05:11:20Z</time></trkpt>
<trkpt lat="29.872775" lon="92.521685">
<time>2016-10-08T05:11:21Z</time></trkpt>
<trkpt lat="29.872815" lon="92.521574">
<time>2016-10-08T05:11:22Z</time></trkpt>
<trkpt lat="29.872845" lon="92.521504">
<time>2016-10-08T05:11:23Z</time></trkpt>
<trkpt lat="29.872954" lon="92.521334">
<time>2016-10-08T05:11:24Z</time></trkpt>
<trkpt lat="29.873044" lon="92.521193">
<time>2016-10-08T05:11:25Z</time></trkpt>
<trkpt lat="29.873204" lon="92.520983">
<time>2016-10-08T05:11:26Z</time></trkpt>
<trkpt lat="29.873323" lon="92.520832">
<time>2016-10-08T05:11:27Z</time></trkpt>
<trkpt lat="29.873423" lon="92.520742">
<time>2016-10-08T05:11:28Z</time></trkpt>
<trkpt lat="29.873523" lon="92.520662">
<time>2016-10-08T05:11:29Z</time></trkpt>
<trkpt lat="29.873742" lon="92.520521">
<time>2016-10-08T05:11:30Z</time></trkpt>
<trkpt lat="29.873912" lon="92.520431">
<time>2016-10-08T05:11:31Z</time></trkpt>
<trkpt lat="29.874171" lon="92.52028">
<time>2016-10-08T05:11:32Z</time></trkpt>
<trkpt lat="29.874311" lon="92.5202">
<time>2016-10-08T05:11:33Z</time></trkpt>
<trkpt lat="29.874421" lon="92.52014">
<time>2016-10-08T05:11:34Z</time></trkpt>
<trkpt lat="29.874681" lon="92.519989">
<time>2016-10-08T05:11:35Z</time></trkpt>
<trkpt lat="29.87499" lon="92.519839">
<time>2016-10-08T05:11:36Z</time></trkpt>
<trkpt lat="29.87519" lon="92.519749">
<time>2016-10-08T05:11:37Z</time></trkpt>
<trkpt lat="29.87544" lon="92.519638">
<time>2016-10-08T05:11:38Z</time></trkpt>
<trkpt lat="29.875579" lon="92.519578">
<time>2016-10-08T05:11:39Z</time></trkpt>
<trkpt lat="29.875759" lon="92.519508">
<time>2016-10-08T05:11:40Z</time></trkpt>
<trkpt lat="29.875869" lon="92.519458">
<time>2016-10-08T05:11:41Z</time></trkpt>
<trkpt lat="29.875999" lon="92.519408">
<time>2016-10-08T05:11:42Z</time></trkpt>
<trkpt lat="29.876119" lon="92.519377">
<time>2016-10-08T05:11:43Z</time></trkpt>
<trkpt lat="29.876249" lon="92.519347">
<time>2016-10-08T05:11:44Z</time></trkpt>
<trkpt lat="29.876419" lon="92.519307">
<time>2016-10-08T05:11:45Z</time></trkpt>
<trkpt lat="29.876539" lon="92.519297">
<time>2016-10-08T05:11:46Z</time></trkpt>
<trkpt lat="29.876649" lon="92.519267">
<time>2016-10-08T05:11:47Z</time></trkpt>
<trkpt lat="29.876838" lon="92.519247">
<time>2016-10-08T05:11:48Z</time></trkpt>
<trkpt lat="29.877058" lon="92.519207">
<time>2016-10-08T05:11:49Z</time></trkpt>
<trkpt lat="29.877278" lon="92.519177">
<time>2016-10-08T05:11:50Z</time></trkpt>
<trkpt lat="29.877528" lon="92.519137">
<time>2016-10-08T05:11:51Z</time></trkpt>
<trkpt lat="29.877728" lon="92.519096">
<time>2016-10-08T05:11:52Z</time></trkpt>
<trkpt lat="29.877848" lon="92.519086">
<time>2016-10-08T05:11:53Z</time></trkpt>
<trkpt lat="29.877948" lon="92.519066">
<time>2016-10-08T05:11:54Z</time></trkpt>
<trkpt lat="29.878138" lon="92.519036">
<time>2016-10-08T05:11:55Z</time></trkpt>
<trkpt lat="29.878298" lon="92.519006">
<time>2016-10-08T05:11:56Z</time></trkpt>
<trkpt lat="29.878478" lon="92.518966">
<time>2016-10-08T05:11:57Z</time></trkpt>
<trkpt lat="29.878657" lon="92.518906">
<time>2016-10-08T05:11:58Z</time></trkpt>
<trkpt lat="29.879097" lon="92.518725">
<time>2016-10-08T05:11:59Z</time></trkpt>
<trkpt lat="29.880056" lon="92.518284">
<time>2016-10-08T05:12:00Z</time></trkpt>
<trkpt lat="29.880605" lon="92.518033">
<time>2016-10-08T05:12:01Z</time></trkpt>
<trkpt lat="29.881514" lon="92.517622">
<time>2016-10-08T05:12:02Z</time></trkpt>
<trkpt lat="29.881783" lon="92.517491">
<time>2016-10-08T05:12:03Z</time></trkpt>
<trkpt lat="29.881943" lon="92.517411">
<time>2016-10-08T05:12:04Z</time></trkpt>
<trkpt lat="29.882133" lon="92.517341">
<time>2016-10-08T05:12:05Z</time></trkpt>
<trkpt lat="29.882283" lon="92.517291">
<time>2016-10-08T05:12:06Z</time></trkpt>
<trkpt lat="29.882573" lon="92.51721">
<time>2016-10-08T05:12:07Z</time></trkpt>
<trkpt lat="29.882972" lon="92.51713">
<time>2016-10-08T05:12:08Z</time></trkpt>
<trkpt lat="29.883622" lon="92.51699">
<time>2016-10-08T05:12:09Z</time></trkpt>
<trkpt lat="29.884191" lon="92.516869">
<time>2016-10-08T05:12:10Z</time></trkpt>
<trkpt lat="29.884771" lon="92.516719">
<time>2016-10-08T05:12:11Z</time></trkpt>
<trkpt lat="29.885211" lon="92.516608">
<time>2016-10-08T05:12:12Z</time></trkpt>
<trkpt lat="29.88553" lon="92.516528">
<time>2016-10-08T05:12:13Z</time></trkpt>
<trkpt lat="29.88574" lon="92.516478">
<time>2016-10-08T05:12:14Z</time></trkpt>
<trkpt lat="29.88583" lon="92.516438">
<time>2016-10-08T05:12:15Z</time></trkpt>
<trkpt lat="29.88593" lon="92.516408">
<time>2016-10-08T05:12:16Z</time></trkpt>
<trkpt lat="29.88602" lon="92.516357">
<time>2016-10-08T05:12:17Z</time></trkpt>
<trkpt lat="29.88607" lon="92.516307">
<time>2016-10-08T05:12:18Z</time></trkpt>
<trkpt lat="29.88612" lon="92.516267">
<time>2016-10-08T05:12:19Z</time></trkpt>
<trkpt lat="29.88616" lon="92.516217">
<time>2016-10-08T05:12:20Z</time></trkpt>
<trkpt lat="29.886199" lon="92.516167">
<time>2016-10-08T05:12:21Z</time></trkpt>
<trkpt lat="29.886239" lon="92.516097">
<time>2016-10-08T05:12:22Z</time></trkpt>
<trkpt lat="29.886269" lon="92.516036">
<time>2016-10-08T05:12:23Z</time></trkpt>
<trkpt lat="29.886289" lon="92.515986">
<time>2016-10-08T05:12:24Z</time></trkpt>
<trkpt lat="29.886309" lon="92.515926">
<time>2016-10-08T05:12:25Z</time></trkpt>
<trkpt lat="29.886319" lon="92.515866">
<time>2016-10-08T05:12:26Z</time></trkpt>
<trkpt lat="29.886328" lon="92.515806">
<time>2016-10-08T05:12:27Z</time></trkpt>
<trkpt lat="29.886338" lon="92.515735">
<time>2016-10-08T05:12:28Z</time></trkpt>
<trkpt lat="29.886338" lon="92.515695">
<time>2016-10-08T05:12:29Z</time></trkpt>
<trkpt lat="29.886328" lon="92.515595">
<time>2016-10-08T05:12:30Z</time></trkpt>
<trkpt lat="29.886318" lon="92.515515">
<time>2016-10-08T05:12:31Z</time></trkpt>
<trkpt lat="29.886297" lon="92.515454">
<time>2016-10-08T05:12:32Z</time></trkpt>
<trkpt lat="29.886267" lon="92.515364">
<time>2016-10-08T05:12:33Z</time></trkpt>
<trkpt lat="29.886237" lon="92.515294">
<time>2016-10-08T05:12:34Z</time></trkpt>
<trkpt lat="29.886207" lon="92.515234">
<time>2016-10-08T05:12:35Z</time></trkpt>
<trkpt lat="29.886126" lon="92.515103">
<time>2016-10-08T05:12:36Z</time></trkpt>
<trkpt lat="29.886036" lon="92.514973">
<time>2016-10-08T05:12:37Z</time></trkpt>
<trkpt lat="29.885865" lon="92.514732">
<time>2016-10-08T05:12:38Z</time></trkpt>
<trkpt lat="29.885825" lon="92.514662">
<time>2016-10-08T05:12:39Z</time></trkpt>
<trkpt lat="29.885574" lon="92.51419">
<time>2016-10-08T05:12:40Z</time></trkpt>
<trkpt lat="29.885544" lon="92.51413">
<time>2016-10-08T05:12:41Z</time></trkpt>
<trkpt lat="29.885513" lon="92.51407">
<time>2016-10-08T05:12:42Z</time></trkpt>
<trkpt lat="29.885483" lon="92.514">
<time>2016-10-08T05:12:43Z</time></trkpt>
<trkpt lat="29.885453" lon="92.513919">
<time>2016-10-08T05:12:44Z</time></trkpt>
<trkpt lat="29.885413" lon="92.513849">
<time>2016-10-08T05:12:45Z</time></trkpt>
<trkpt lat="29.885382" lon="92.513769">
<time>2016-10-08T05:12:46Z</time></trkpt>
<trkpt lat="29.885352" lon="92.513699">
<time>2016-10-08T05:12:47Z</time></trkpt>
<trkpt lat="29.885322" lon="92.513618">
<time>2016-10-08T05:12:48Z</time></trkpt>
<trkpt lat="29.885292" lon="92.513548">
<time>2016-10-08T05:12:49Z</time></trkpt>
<trkpt lat="29.885252" lon="92.513468">
<time>2016-10-08T05:12:50Z</time></trkpt>
<trkpt lat="29.885221" lon="92.513388">
<time>2016-10-08T05:12:51Z</time></trkpt>
<trkpt lat="29.885191" lon="92.513307">
<time>2016-10-08T05:12:52Z</time></trkpt>
<trkpt lat="29.885151" lon="92.513237">
<time>2016-10-08T05:12:53Z</time></trkpt>
<trkpt lat="29.885121" lon="92.513167">
<time>2016-10-08T05:12:54Z</time></trkpt>
<trkpt lat="29.885081" lon="92.513097">
<time>2016-10-08T05:12:55Z</time></trkpt>
<trkpt lat="29.88505" lon="92.513037">
<time>2016-10-08T05:12:56Z</time></trkpt>
<trkpt lat="29.88502" lon="92.512986">
<time>2016-10-08T05:12:57Z</time></trkpt>
<trkpt lat="29.88499" lon="92.512946">
<time>2016-10-08T05:12:58Z</time></trkpt>
<trkpt lat="29.88495" lon="92.512896">
<time>2016-10-08T05:12:59Z</time></trkpt>
<trkpt lat="29.88488" lon="92.512836">
<time>2016-10-08T05:13:00Z</time></trkpt>
<trkpt lat="29.88481" lon="92.512786">
<time>2016-10-08T05:13:01Z</time></trkpt>
<trkpt lat="29.884699" lon="92.512725">
<time>2016-10-08T05:13:02Z</time></trkpt>
<trkpt lat="29.884479" lon="92.512595">
<time>2016-10-08T05:13:03Z</time></trkpt>
<trkpt lat="29.884229" lon="92.512455">
<time>2016-10-08T05:13:04Z</time></trkpt>
<trkpt lat="29.884108" lon="92.512374">
<time>2016-10-08T05:13:05Z</time></trkpt>
<trkpt lat="29.884008" lon="92.512294">
<time>2016-10-08T05:13:06Z</time></trkpt>
<trkpt lat="29.883918" lon="92.512204">
<time>2016-10-08T05:13:07Z</time></trkpt>
<trkpt lat="29.883838" lon="92.512103">
<time>2016-10-08T05:13:08Z</time></trkpt>
<trkpt lat="29.883787" lon="92.512023">
<time>2016-10-08T05:13:09Z</time></trkpt>
<trkpt lat="29.883717" lon="92.511893">
<time>2016-10-08T05:13:10Z</time></trkpt>
<trkpt lat="29.883657" lon="92.511732">
<time>2016-10-08T05:13:11Z</time></trkpt>
<trkpt lat="29.883626" lon="92.511642">
<time>2016-10-08T05:13:12Z</time></trkpt>
<trkpt lat="29.883586" lon="92.511491">
<time>2016-10-08T05:13:13Z</time></trkpt>
<trkpt lat="29.883565" lon="92.511361">
<time>2016-10-08T05:13:14Z</time></trkpt>
<trkpt lat="29.883535" lon="92.511261">
<time>2016-10-08T05:13:15Z</time></trkpt>
<trkpt lat="29.883525" lon="92.51114">
<time>2016-10-08T05:13:16Z</time></trkpt>
<trkpt lat="29.883504" lon="92.51102">
<time>2016-10-08T05:13:17Z</time></trkpt>
<trkpt lat="29.883474" lon="92.510849">
<time>2016-10-08T05:13:18Z</time></trkpt>
<trkpt lat="29.883433" lon="92.510679">
<time>2016-10-08T05:13:19Z</time></trkpt>
<trkpt lat="29.883423" lon="92.510598">
<time>2016-10-08T05:13:20Z</time></trkpt>
<trkpt lat="29.883403" lon="92.510498">
<time>2016-10-08T05:13:21Z</time></trkpt>
<trkpt lat="29.883372" lon="92.510317">
<time>2016-10-08T05:13:22Z</time></trkpt>
<trkpt lat="29.883322" lon="92.510057">
<time>2016-10-08T05:13:23Z</time></trkpt>
<trkpt lat="29.883301" lon="92.509916">
<time>2016-10-08T05:13:24Z</time></trkpt>
<trkpt lat="29.883281" lon="92.509776">
<time>2016-10-08T05:13:25Z</time></trkpt>
<trkpt lat="29.88328" lon="92.509605">
<time>2016-10-08T05:13:26Z</time></trkpt>
<trkpt lat="29.88329" lon="92.509485">
<time>2016-10-08T05:13:27Z</time></trkpt>
<trkpt lat="29.88331" lon="92.509344">
<time>2016-10-08T05:13:28Z</time></trkpt>
<trkpt lat="29.883349" lon="92.509204">
<time>2016-10-08T05:13:29Z</time></trkpt>
<trkpt lat="29.883379" lon="92.509103">
<time>2016-10-08T05:13:30Z</time></trkpt>
<trkpt lat="29.883458" lon="92.508863">
<time>2016-10-08T05:13:31Z</time></trkpt>
<trkpt lat="29.883557" lon="92.508632">
<time>2016-10-08T05:13:32Z</time></trkpt>
<trkpt lat="29.883607" lon="92.508551">
<time>2016-10-08T05:13:33Z</time></trkpt>
<trkpt lat="29.883657" lon="92.508461">
<time>2016-10-08T05:13:34Z</time></trkpt>
<trkpt lat="29.883816" lon="92.50826">
<time>2016-10-08T05:13:35Z</time></trkpt>
<trkpt lat="29.883966" lon="92.50808">
<time>2016-10-08T05:13:36Z</time></trkpt>
<trkpt lat="29.884275" lon="92.507769">
<time>2016-10-08T05:13:37Z</time></trkpt>
<trkpt lat="29.884674" lon="92.507357">
<time>2016-10-08T05:13:38Z</time></trkpt>
<trkpt lat="29.885013" lon="92.507006">
<time>2016-10-08T05:13:39Z</time></trkpt>
<trkpt lat="29.885152" lon="92.506866">
<time>2016-10-08T05:13:40Z</time></trkpt>
<trkpt lat="29.885431" lon="92.506575">
<time>2016-10-08T05:13:41Z</time></trkpt>
<trkpt lat="29.88586" lon="92.506143">
<time>2016-10-08T05:13:42Z</time></trkpt>
<trkpt lat="29.886079" lon="92.505923">
<time>2016-10-08T05:13:43Z</time></trkpt>
<trkpt lat="29.886159" lon="92.505842">
<time>2016-10-08T05:13:44Z</time></trkpt>
<trkpt lat="29.886259" lon="92.505772">
<time>2016-10-08T05:13:45Z</time></trkpt>
<trkpt lat="29.886329" lon="92.505732">
<time>2016-10-08T05:13:46Z</time></trkpt>
<trkpt lat="29.886379" lon="92.505702">
<time>2016-10-08T05:13:47Z</time></trkpt>
<trkpt lat="29.886489" lon="92.505662">
<time>2016-10-08T05:13:48Z</time></trkpt>
<trkpt lat="29.886798" lon="92.505571">
<time>2016-10-08T05:13:49Z</time></trkpt>
<trkpt lat="29.887048" lon="92.505511">
<time>2016-10-08T05:13:50Z</time></trkpt>
<trkpt lat="29.887228" lon="92.505471">
<time>2016-10-08T05:13:51Z</time></trkpt>
<trkpt lat="29.887378" lon="92.505431">
<time>2016-10-08T05:13:52Z</time></trkpt>
<trkpt lat="29.887558" lon="92.505381">
<time>2016-10-08T05:13:53Z</time></trkpt>
<trkpt lat="29.887748" lon="92.50534">
<time>2016-10-08T05:13:54Z</time></trkpt>
<trkpt lat="29.887957" lon="92.50529">
<time>2016-10-08T05:13:55Z</time></trkpt>
<trkpt lat="29.888447" lon="92.50516">
<time>2016-10-08T05:13:56Z</time></trkpt>
<trkpt lat="29.888727" lon="92.50507">
<time>2016-10-08T05:13:57Z</time></trkpt>
<trkpt lat="29.888956" lon="92.504999">
<time>2016-10-08T05:13:58Z</time></trkpt>
<trkpt lat="29.889266" lon="92.504869">
<time>2016-10-08T05:13:59Z</time></trkpt>
<trkpt lat="29.889765" lon="92.504658">
<time>2016-10-08T05:14:00Z</time></trkpt>
<trkpt lat="29.890115" lon="92.504518">
<time>2016-10-08T05:14:01Z</time></trkpt>
<trkpt lat="29.890455" lon="92.504377">
<time>2016-10-08T05:14:02Z</time></trkpt>
<trkpt lat="29.890804" lon="92.504227">
<time>2016-10-08T05:14:03Z</time></trkpt>
<trkpt lat="29.891224" lon="92.504056">
<time>2016-10-08T05:14:04Z</time></trkpt>
<trkpt lat="29.891304" lon="92.504026">
<time>2016-10-08T05:14:05Z</time></trkpt>
<trkpt lat="29.891353" lon="92.503996">
<time>2016-10-08T05:14:06Z</time></trkpt>
<trkpt lat="29.891383" lon="92.503976">
<time>2016-10-08T05:14:07Z</time></trkpt>
<trkpt lat="29.891433" lon="92.503946">
<time>2016-10-08T05:14:08Z</time></trkpt>
<trkpt lat="29.891483" lon="92.503906">
<time>2016-10-08T05:14:09Z</time></trkpt>
<trkpt lat="29.891533" lon="92.503855">
<time>2016-10-08T05:14:10Z</time></trkpt>
<trkpt lat="29.891573" lon="92.503805">
<time>2016-10-08T05:14:11Z</time></trkpt>
<trkpt lat="29.891593" lon="92.503775">
<time>2016-10-08T05:14:12Z</time></trkpt>
<trkpt lat="29.891613" lon="92.503745">
<time>2016-10-08T05:14:13Z</time></trkpt>
<trkpt lat="29.891642" lon="92.503685">
<time>2016-10-08T05:14:14Z</time></trkpt>
<trkpt lat="29.891672" lon="92.503635">
<time>2016-10-08T05:14:15Z</time></trkpt>
<trkpt lat="29.891712" lon="92.503554">
<time>2016-10-08T05:14:16Z</time></trkpt>
<trkpt lat="29.891792" lon="92.503374">
<time>2016-10-08T05:14:17Z</time></trkpt>
<trkpt lat="29.891911" lon="92.503093">
<time>2016-10-08T05:14:18Z</time></trkpt>
<trkpt lat="29.89197" lon="92.502932">
<time>2016-10-08T05:14:19Z</time></trkpt>
<trkpt lat="29.89202" lon="92.502812">
<time>2016-10-08T05:14:20Z</time></trkpt>
<trkpt lat="29.892079" lon="92.502651">
<time>2016-10-08T05:14:21Z</time></trkpt>
<trkpt lat="29.892129" lon="92.502541">
<time>2016-10-08T05:14:22Z</time></trkpt>
<trkpt lat="29.892179" lon="92.502451">
<time>2016-10-08T05:14:23Z</time></trkpt>
<trkpt lat="29.892209" lon="92.50236">
<time>2016-10-08T05:14:24Z</time></trkpt>
<trkpt lat="29.892238" lon="92.50226">
<time>2016-10-08T05:14:25Z</time></trkpt>
<trkpt lat="29.892278" lon="92.502149">
<time>2016-10-08T05:14:26Z</time></trkpt>
<trkpt lat="29.892307" lon="92.502009">
<time>2016-10-08T05:14:27Z</time></trkpt>
<trkpt lat="29.892317" lon="92.501909">
<time>2016-10-08T05:14:28Z</time></trkpt>
<trkpt lat="29.892327" lon="92.501748">
<time>2016-10-08T05:14:29Z</time></trkpt>
<trkpt lat="29.892316" lon="92.501638">
<time>2016-10-08T05:14:30Z</time></trkpt>
<trkpt lat="29.892296" lon="92.501387">
<time>2016-10-08T05:14:31Z</time></trkpt>
<trkpt lat="29.892275" lon="92.501046">
<time>2016-10-08T05:14:32Z</time></trkpt>
<trkpt lat="29.892254" lon="92.500845">
<time>2016-10-08T05:14:33Z</time></trkpt>
<trkpt lat="29.892244" lon="92.500725">
<time>2016-10-08T05:14:34Z</time></trkpt>
<trkpt lat="29.892213" lon="92.500353">
<time>2016-10-08T05:14:35Z</time></trkpt>
<trkpt lat="29.892192" lon="92.500052">
<time>2016-10-08T05:14:36Z</time></trkpt>
<trkpt lat="29.892171" lon="92.499922">
<time>2016-10-08T05:14:37Z</time></trkpt>
<trkpt lat="29.892161" lon="92.499801">
<time>2016-10-08T05:14:38Z</time></trkpt>
<trkpt lat="29.89212" lon="92.499621">
<time>2016-10-08T05:14:39Z</time></trkpt>
<trkpt lat="29.89208" lon="92.49946">
<time>2016-10-08T05:14:40Z</time></trkpt>
<trkpt lat="29.892029" lon="92.49932">
<time>2016-10-08T05:14:41Z</time></trkpt>
<trkpt lat="29.891929" lon="92.499079">
<time>2016-10-08T05:14:42Z</time></trkpt>
<trkpt lat="29.891868" lon="92.498959">
<time>2016-10-08T05:14:43Z</time></trkpt>
<trkpt lat="29.891697" lon="92.498567">
<time>2016-10-08T05:14:44Z</time></trkpt>
<trkpt lat="29.891596" lon="92.498336">
<time>2016-10-08T05:14:45Z</time></trkpt>
<trkpt lat="29.891466" lon="92.498035">
<time>2016-10-08T05:14:46Z</time></trkpt>
<trkpt lat="29.891435" lon="92.497955">
<time>2016-10-08T05:14:47Z</time></trkpt>
<trkpt lat="29.891405" lon="92.497835">
<time>2016-10-08T05:14:48Z</time></trkpt>
<trkpt lat="29.891365" lon="92.497694">
<time>2016-10-08T05:14:49Z</time></trkpt>
<trkpt lat="29.891334" lon="92.497564">
<time>2016-10-08T05:14:50Z</time></trkpt>
<trkpt lat="29.891314" lon="92.497373">
<time>2016-10-08T05:14:51Z</time></trkpt>
<trkpt lat="29.891303" lon="92.497142">
<time>2016-10-08T05:14:52Z</time></trkpt>
<trkpt lat="29.891312" lon="92.496982">
<time>2016-10-08T05:14:53Z</time></trkpt>
<trkpt lat="29.891322" lon="92.496871">
<time>2016-10-08T05:14:54Z</time></trkpt>
<trkpt lat="29.891351" lon="92.496661">
<time>2016-10-08T05:14:55Z</time></trkpt>
<trkpt lat="29.891381" lon="92.49649">
<time>2016-10-08T05:14:56Z</time></trkpt>
<trkpt lat="29.89143" lon="92.496269">
<time>2016-10-08T05:14:57Z</time></trkpt>
<trkpt lat="29.891539" lon="92.495808">
<time>2016-10-08T05:14:58Z</time></trkpt>
<trkpt lat="29.891598" lon="92.495487">
<time>2016-10-08T05:14:59Z</time></trkpt>
<trkpt lat="29.891707" lon="92.495035">
<time>2016-10-08T05:15:00Z</time></trkpt>
<trkpt lat="29.891884" lon="92.494252">
<time>2016-10-08T05:15:01Z</time></trkpt>
<trkpt lat="29.892003" lon="92.493731">
<time>2016-10-08T05:15:02Z</time></trkpt>
<trkpt lat="29.892072" lon="92.49343">
<time>2016-10-08T05:15:03Z</time></trkpt>
<trkpt lat="29.892269" lon="92.492506">
<time>2016-10-08T05:15:04Z</time></trkpt>
<trkpt lat="29.892348" lon="92.492185">
<time>2016-10-08T05:15:05Z</time></trkpt>
<trkpt lat="29.892555" lon="92.491252">
<time>2016-10-08T05:15:06Z</time></trkpt>
<trkpt lat="29.892772" lon="92.490259">
<time>2016-10-08T05:15:07Z</time></trkpt>
<trkpt lat="29.892891" lon="92.489747">
<time>2016-10-08T05:15:08Z</time></trkpt>
<trkpt lat="29.89298" lon="92.489356">
<time>2016-10-08T05:15:09Z</time></trkpt>
<trkpt lat="29.893088" lon="92.488924">
<time>2016-10-08T05:15:10Z</time></trkpt>
<trkpt lat="29.893177" lon="92.488633">
<time>2016-10-08T05:15:11Z</time></trkpt>
<trkpt lat="29.893296" lon="92.488262">
<time>2016-10-08T05:15:12Z</time></trkpt>
<trkpt lat="29.893405" lon="92.487931">
<time>2016-10-08T05:15:13Z</time></trkpt>
<trkpt lat="29.893614" lon="92.487319">
<time>2016-10-08T05:15:14Z</time></trkpt>
<trkpt lat="29.893782" lon="92.486827">
<time>2016-10-08T05:15:15Z</time></trkpt>
<trkpt lat="29.893931" lon="92.486406">
<time>2016-10-08T05:15:16Z</time></trkpt>
<trkpt lat="29.894119" lon="92.485854">
<time>2016-10-08T05:15:17Z</time></trkpt>
<trkpt lat="29.894308" lon="92.485302">
<time>2016-10-08T05:15:18Z</time></trkpt>
<trkpt lat="29.894476" lon="92.48483">
<time>2016-10-08T05:15:19Z</time></trkpt>
<trkpt lat="29.894516" lon="92.4847">
<time>2016-10-08T05:15:20Z</time></trkpt>
<trkpt lat="29.894595" lon="92.484459">
<time>2016-10-08T05:15:21Z</time></trkpt>
<trkpt lat="29.894694" lon="92.484178">
<time>2016-10-08T05:15:22Z</time></trkpt>
<trkpt lat="29.894794" lon="92.483887">
<time>2016-10-08T05:15:23Z</time></trkpt>
<trkpt lat="29.894853" lon="92.483726">
<time>2016-10-08T05:15:24Z</time></trkpt>
<trkpt lat="29.894893" lon="92.483586">
<time>2016-10-08T05:15:25Z</time></trkpt>
<trkpt lat="29.894893" lon="92.483586">
<time>2016-10-08T05:15:26Z</time></trkpt>
<trkpt lat="29.894893" lon="92.483536">
<time>2016-10-08T05:15:27Z</time></trkpt>
<trkpt lat="29.894942" lon="92.483335">
<time>2016-10-08T05:15:28Z</time></trkpt>
<trkpt lat="29.894971" lon="92.483185">
<time>2016-10-08T05:15:29Z</time></trkpt>
<trkpt lat="29.895021" lon="92.482934">
<time>2016-10-08T05:15:30Z</time></trkpt>
<trkpt lat="29.89504" lon="92.482823">
<time>2016-10-08T05:15:31Z</time></trkpt>
<trkpt lat="29.895138" lon="92.482101">
<time>2016-10-08T05:15:32Z</time></trkpt>
<trkpt lat="29.895226" lon="92.481449">
<time>2016-10-08T05:15:33Z</time></trkpt>
<trkpt lat="29.895275" lon="92.481048">
<time>2016-10-08T05:15:34Z</time></trkpt>
<trkpt lat="29.895334" lon="92.480576">
<time>2016-10-08T05:15:35Z</time></trkpt>
<trkpt lat="29.895393" lon="92.480195">
<time>2016-10-08T05:15:36Z</time></trkpt>
<trkpt lat="29.895481" lon="92.479492">
<time>2016-10-08T05:15:37Z</time></trkpt>
<trkpt lat="29.89554" lon="92.479071">
<time>2016-10-08T05:15:38Z</time></trkpt>
<trkpt lat="29.895559" lon="92.47882">
<time>2016-10-08T05:15:39Z</time></trkpt>
<trkpt lat="29.895618" lon="92.478399">
<time>2016-10-08T05:15:40Z</time></trkpt>
<trkpt lat="29.895637" lon="92.478258">
<time>2016-10-08T05:15:41Z</time></trkpt>
<trkpt lat="29.895677" lon="92.477967">
<time>2016-10-08T05:15:42Z</time></trkpt>
<trkpt lat="29.895676" lon="92.477907">
<time>2016-10-08T05:15:43Z</time></trkpt>
<trkpt lat="29.895725" lon="92.477586">
<time>2016-10-08T05:15:44Z</time></trkpt>
<trkpt lat="29.895745" lon="92.477436">
<time>2016-10-08T05:15:45Z</time></trkpt>
<trkpt lat="29.895794" lon="92.477044">
<time>2016-10-08T05:15:46Z</time></trkpt>
<trkpt lat="29.895813" lon="92.476834">
<time>2016-10-08T05:15:47Z</time></trkpt>
<trkpt lat="29.895823" lon="92.476743">
<time>2016-10-08T05:15:48Z</time></trkpt>
<trkpt lat="29.895833" lon="92.476653">
<time>2016-10-08T05:15:49Z</time></trkpt>
<trkpt lat="29.895832" lon="92.476442">
<time>2016-10-08T05:15:50Z</time></trkpt>
<trkpt lat="29.895832" lon="92.476222">
<time>2016-10-08T05:15:51Z</time></trkpt>
<trkpt lat="29.895821" lon="92.476061">
<time>2016-10-08T05:15:52Z</time></trkpt>
<trkpt lat="29.895811" lon="92.475941">
<time>2016-10-08T05:15:53Z</time></trkpt>
<trkpt lat="29.895811" lon="92.475851">
<time>2016-10-08T05:15:54Z</time></trkpt>
<trkpt lat="29.89579" lon="92.47573">
<time>2016-10-08T05:15:55Z</time></trkpt>
<trkpt lat="29.89576" lon="92.4756">
<time>2016-10-08T05:15:56Z</time></trkpt>
<trkpt lat="29.89573" lon="92.475519">
<time>2016-10-08T05:15:57Z</time></trkpt>
<trkpt lat="29.895709" lon="92.475439">
<time>2016-10-08T05:15:58Z</time></trkpt>
<trkpt lat="29.895649" lon="92.475309">
<time>2016-10-08T05:15:59Z</time></trkpt>
<trkpt lat="29.895609" lon="92.475198">
<time>2016-10-08T05:16:00Z</time></trkpt>
<trkpt lat="29.895569" lon="92.475108">
<time>2016-10-08T05:16:01Z</time></trkpt>
<trkpt lat="29.895528" lon="92.475038">
<time>2016-10-08T05:16:02Z</time></trkpt>
<trkpt lat="29.895508" lon="92.474988">
<time>2016-10-08T05:16:03Z</time></trkpt>
<trkpt lat="29.895448" lon="92.474897">
<time>2016-10-08T05:16:04Z</time></trkpt>
<trkpt lat="29.895328" lon="92.474767">
<time>2016-10-08T05:16:05Z</time></trkpt>
<trkpt lat="29.895017" lon="92.474416">
<time>2016-10-08T05:16:06Z</time></trkpt>
<trkpt lat="29.894686" lon="92.474055">
<time>2016-10-08T05:16:07Z</time></trkpt>
<trkpt lat="29.894335" lon="92.473664">
<time>2016-10-08T05:16:08Z</time></trkpt>
<trkpt lat="29.894124" lon="92.473433">
<time>2016-10-08T05:16:09Z</time></trkpt>
<trkpt lat="29.894004" lon="92.473282">
<time>2016-10-08T05:16:10Z</time></trkpt>
<trkpt lat="29.893883" lon="92.473142">
<time>2016-10-08T05:16:11Z</time></trkpt>
<trkpt lat="29.893703" lon="92.472891">
<time>2016-10-08T05:16:12Z</time></trkpt>
<trkpt lat="29.893492" lon="92.47254">
<time>2016-10-08T05:16:13Z</time></trkpt>
<trkpt lat="29.893341" lon="92.472309">
<time>2016-10-08T05:16:14Z</time></trkpt>
<trkpt lat="29.89308" lon="92.471868">
<time>2016-10-08T05:16:15Z</time></trkpt>
<trkpt lat="29.892829" lon="92.471447">
<time>2016-10-08T05:16:16Z</time></trkpt>
<trkpt lat="29.892628" lon="92.471105">
<time>2016-10-08T05:16:17Z</time></trkpt>
<trkpt lat="29.892407" lon="92.470744">
<time>2016-10-08T05:16:18Z</time></trkpt>
<trkpt lat="29.892256" lon="92.470453">
<time>2016-10-08T05:16:19Z</time></trkpt>
<trkpt lat="29.892166" lon="92.470273">
<time>2016-10-08T05:16:20Z</time></trkpt>
<trkpt lat="29.892065" lon="92.470022">
<time>2016-10-08T05:16:21Z</time></trkpt>
<trkpt lat="29.891964" lon="92.469761">
<time>2016-10-08T05:16:22Z</time></trkpt>
<trkpt lat="29.891873" lon="92.46946">
<time>2016-10-08T05:16:23Z</time></trkpt>
<trkpt lat="29.891803" lon="92.46917">
<time>2016-10-08T05:16:24Z</time></trkpt>
<trkpt lat="29.891742" lon="92.468828">
<time>2016-10-08T05:16:25Z</time></trkpt>
<trkpt lat="29.891711" lon="92.468558">
<time>2016-10-08T05:16:26Z</time></trkpt>
<trkpt lat="29.89168" lon="92.468247">
<time>2016-10-08T05:16:27Z</time></trkpt>
<trkpt lat="29.891669" lon="92.467976">
<time>2016-10-08T05:16:28Z</time></trkpt>
<trkpt lat="29.891679" lon="92.467675">
<time>2016-10-08T05:16:29Z</time></trkpt>
<trkpt lat="29.891678" lon="92.467314">
<time>2016-10-08T05:16:30Z</time></trkpt>
<trkpt lat="29.891706" lon="92.466521">
<time>2016-10-08T05:16:31Z</time></trkpt>
<trkpt lat="29.891714" lon="92.465829">
<time>2016-10-08T05:16:32Z</time></trkpt>
<trkpt lat="29.891723" lon="92.465599">
<time>2016-10-08T05:16:33Z</time></trkpt>
<trkpt lat="29.891742" lon="92.464967">
<time>2016-10-08T05:16:34Z</time></trkpt>
<trkpt lat="29.891751" lon="92.464546">
<time>2016-10-08T05:16:35Z</time></trkpt>
<trkpt lat="29.891759" lon="92.463854">
<time>2016-10-08T05:16:36Z</time></trkpt>
<trkpt lat="29.891785" lon="92.462409">
<time>2016-10-08T05:16:37Z</time></trkpt>
<trkpt lat="29.891784" lon="92.462008">
<time>2016-10-08T05:16:38Z</time></trkpt>
<trkpt lat="29.891744" lon="92.461707">
<time>2016-10-08T05:16:39Z</time></trkpt>
<trkpt lat="29.891683" lon="92.461386">
<time>2016-10-08T05:16:40Z</time></trkpt>
<trkpt lat="29.891602" lon="92.461015">
<time>2016-10-08T05:16:41Z</time></trkpt>
<trkpt lat="29.891511" lon="92.460584">
<time>2016-10-08T05:16:42Z</time></trkpt>
<trkpt lat="29.891359" lon="92.459952">
<time>2016-10-08T05:16:43Z</time></trkpt>
<trkpt lat="29.891076" lon="92.458659">
<time>2016-10-08T05:16:44Z</time></trkpt>
<trkpt lat="29.890834" lon="92.457646">
<time>2016-10-08T05:16:45Z</time></trkpt>
<trkpt lat="29.890814" lon="92.457516">
<time>2016-10-08T05:16:46Z</time></trkpt>
<trkpt lat="29.890733" lon="92.457165">
<time>2016-10-08T05:16:47Z</time></trkpt>
<trkpt lat="29.890692" lon="92.456954">
<time>2016-10-08T05:16:48Z</time></trkpt>
<trkpt lat="29.890672" lon="92.456804">
<time>2016-10-08T05:16:49Z</time></trkpt>
<trkpt lat="29.890662" lon="92.456723">
<time>2016-10-08T05:16:50Z</time></trkpt>
<trkpt lat="29.890662" lon="92.456643">
<time>2016-10-08T05:16:51Z</time></trkpt>
<trkpt lat="29.890661" lon="92.456543">
<time>2016-10-08T05:16:52Z</time></trkpt>
<trkpt lat="29.890661" lon="92.456483">
<time>2016-10-08T05:16:53Z</time></trkpt>
<trkpt lat="29.890661" lon="92.456433">
<time>2016-10-08T05:16:54Z</time></trkpt>
<trkpt lat="29.890671" lon="92.456332">
<time>2016-10-08T05:16:55Z</time></trkpt>
<trkpt lat="29.890681" lon="92.456222">
<time>2016-10-08T05:16:56Z</time></trkpt>
<trkpt lat="29.8907" lon="92.456132">
<time>2016-10-08T05:16:57Z</time></trkpt>
<trkpt lat="29.89073" lon="92.455992">
<time>2016-10-08T05:16:58Z</time></trkpt>
<trkpt lat="29.89075" lon="92.455921">
<time>2016-10-08T05:16:59Z</time></trkpt>
<trkpt lat="29.89077" lon="92.455841">
<time>2016-10-08T05:17:00Z</time></trkpt>
<trkpt lat="29.890859" lon="92.455631">
<time>2016-10-08T05:17:01Z</time></trkpt>
<trkpt lat="29.891058" lon="92.455199">
<time>2016-10-08T05:17:02Z</time></trkpt>
<trkpt lat="29.891546" lon="92.454177">
<time>2016-10-08T05:17:03Z</time></trkpt>
<trkpt lat="29.891755" lon="92.453766">
<time>2016-10-08T05:17:04Z</time></trkpt>
<trkpt lat="29.891855" lon="92.453565">
<time>2016-10-08T05:17:05Z</time></trkpt>
<trkpt lat="29.891944" lon="92.453385">
<time>2016-10-08T05:17:06Z</time></trkpt>
<trkpt lat="29.892014" lon="92.453274">
<time>2016-10-08T05:17:07Z</time></trkpt>
<trkpt lat="29.892084" lon="92.453184">
<time>2016-10-08T05:17:08Z</time></trkpt>
<trkpt lat="29.892204" lon="92.453054">
<time>2016-10-08T05:17:09Z</time></trkpt>
<trkpt lat="29.892343" lon="92.452913">
<time>2016-10-08T05:17:10Z</time></trkpt>
<trkpt lat="29.892513" lon="92.452773">
<time>2016-10-08T05:17:11Z</time></trkpt>
<trkpt lat="29.892872" lon="92.452512">
<time>2016-10-08T05:17:12Z</time></trkpt>
<trkpt lat="29.893272" lon="92.452232">
<time>2016-10-08T05:17:13Z</time></trkpt>
<trkpt lat="29.893611" lon="92.451971">
<time>2016-10-08T05:17:14Z</time></trkpt>
<trkpt lat="29.893871" lon="92.45176">
<time>2016-10-08T05:17:15Z</time></trkpt>
<trkpt lat="29.89414" lon="92.45153">
<time>2016-10-08T05:17:16Z</time></trkpt>
<trkpt lat="29.8944" lon="92.451269">
<time>2016-10-08T05:17:17Z</time></trkpt>
<trkpt lat="29.894579" lon="92.451099">
<time>2016-10-08T05:17:18Z</time></trkpt>
<trkpt lat="29.895098" lon="92.450588">
<time>2016-10-08T05:17:19Z</time></trkpt>
<trkpt lat="29.895398" lon="92.450297">
<time>2016-10-08T05:17:20Z</time></trkpt>
<trkpt lat="29.895976" lon="92.449715">
<time>2016-10-08T05:17:21Z</time></trkpt>
<trkpt lat="29.896555" lon="92.449124">
<time>2016-10-08T05:17:22Z</time></trkpt>
<trkpt lat="29.896914" lon="92.448773">
<time>2016-10-08T05:17:23Z</time></trkpt>
<trkpt lat="29.897084" lon="92.448623">
<time>2016-10-08T05:17:24Z</time></trkpt>
<trkpt lat="29.897334" lon="92.448402">
<time>2016-10-08T05:17:25Z</time></trkpt>
<trkpt lat="29.897513" lon="92.448272">
<time>2016-10-08T05:17:26Z</time></trkpt>
<trkpt lat="29.897663" lon="92.448182">
<time>2016-10-08T05:17:27Z</time></trkpt>
<trkpt lat="29.897893" lon="92.448051">
<time>2016-10-08T05:17:28Z</time></trkpt>
<trkpt lat="29.898213" lon="92.447891">
<time>2016-10-08T05:17:29Z</time></trkpt>
<trkpt lat="29.898462" lon="92.447741">
<time>2016-10-08T05:17:30Z</time></trkpt>
<trkpt lat="29.898642" lon="92.44766">
<time>2016-10-08T05:17:31Z</time></trkpt>
<trkpt lat="29.898992" lon="92.44746">
<time>2016-10-08T05:17:32Z</time></trkpt>
<trkpt lat="29.899171" lon="92.44734">
<time>2016-10-08T05:17:33Z</time></trkpt>
<trkpt lat="29.899331" lon="92.447209">
<time>2016-10-08T05:17:34Z</time></trkpt>
<trkpt lat="29.899461" lon="92.447089">
<time>2016-10-08T05:17:35Z</time></trkpt>
<trkpt lat="29.89976" lon="92.446798">
<time>2016-10-08T05:17:36Z</time></trkpt>
<trkpt lat="29.900229" lon="92.446307">
<time>2016-10-08T05:17:37Z</time></trkpt>
<trkpt lat="29.900569" lon="92.445956">
<time>2016-10-08T05:17:38Z</time></trkpt>
<trkpt lat="29.900758" lon="92.445766">
<time>2016-10-08T05:17:39Z</time></trkpt>
<trkpt lat="29.901028" lon="92.445485">
<time>2016-10-08T05:17:40Z</time></trkpt>
<trkpt lat="29.901337" lon="92.445175">
<time>2016-10-08T05:17:41Z</time></trkpt>
<trkpt lat="29.901826" lon="92.444673">
<time>2016-10-08T05:17:42Z</time></trkpt>
<trkpt lat="29.902505" lon="92.443972">
<time>2016-10-08T05:17:43Z</time></trkpt>
<trkpt lat="29.902735" lon="92.443731">
<time>2016-10-08T05:17:44Z</time></trkpt>
<trkpt lat="29.902904" lon="92.443551">
<time>2016-10-08T05:17:45Z</time></trkpt>
<trkpt lat="29.903044" lon="92.443381">
<time>2016-10-08T05:17:46Z</time></trkpt>
<trkpt lat="29.903134" lon="92.44327">
<time>2016-10-08T05:17:47Z</time></trkpt>
<trkpt lat="29.903203" lon="92.44317">
<time>2016-10-08T05:17:48Z</time></trkpt>
<trkpt lat="29.903323" lon="92.44298">
<time>2016-10-08T05:17:49Z</time></trkpt>
<trkpt lat="29.903762" lon="92.442178">
<time>2016-10-08T05:17:50Z</time></trkpt>
<trkpt lat="29.904061" lon="92.441647">
<time>2016-10-08T05:17:51Z</time></trkpt>
<trkpt lat="29.90442" lon="92.441005">
<time>2016-10-08T05:17:52Z</time></trkpt>
<trkpt lat="29.904689" lon="92.440524">
<time>2016-10-08T05:17:53Z</time></trkpt>
<trkpt lat="29.904848" lon="92.440224">
<time>2016-10-08T05:17:54Z</time></trkpt>
<trkpt lat="29.904968" lon="92.440003">
<time>2016-10-08T05:17:55Z</time></trkpt>
<trkpt lat="29.905177" lon="92.439623">
<time>2016-10-08T05:17:56Z</time></trkpt>
<trkpt lat="29.905456" lon="92.439132">
<time>2016-10-08T05:17:57Z</time></trkpt>
<trkpt lat="29.905706" lon="92.438661">
<time>2016-10-08T05:17:58Z</time></trkpt>
<trkpt lat="29.905825" lon="92.43846">
<time>2016-10-08T05:17:59Z</time></trkpt>
<trkpt lat="29.905925" lon="92.4383">
<time>2016-10-08T05:18:00Z</time></trkpt>
<trkpt lat="29.906045" lon="92.43813">
<time>2016-10-08T05:18:01Z</time></trkpt>
<trkpt lat="29.906164" lon="92.437969">
<time>2016-10-08T05:18:02Z</time></trkpt>
<trkpt lat="29.906364" lon="92.437759">
<time>2016-10-08T05:18:03Z</time></trkpt>
<trkpt lat="29.906584" lon="92.437538">
<time>2016-10-08T05:18:04Z</time></trkpt>
<trkpt lat="29.907063" lon="92.437058">
<time>2016-10-08T05:18:05Z</time></trkpt>
<trkpt lat="29.907203" lon="92.436897">
<time>2016-10-08T05:18:06Z</time></trkpt>
<trkpt lat="29.907233" lon="92.436847">
<time>2016-10-08T05:18:07Z</time></trkpt>
<trkpt lat="29.907283" lon="92.436777">
<time>2016-10-08T05:18:08Z</time></trkpt>
<trkpt lat="29.907312" lon="92.436717">
<time>2016-10-08T05:18:09Z</time></trkpt>
<trkpt lat="29.907362" lon="92.436567">
<time>2016-10-08T05:18:10Z</time></trkpt>
<trkpt lat="29.907412" lon="92.436366">
<time>2016-10-08T05:18:11Z</time></trkpt>
<trkpt lat="29.907462" lon="92.436136">
<time>2016-10-08T05:18:12Z</time></trkpt>
<trkpt lat="29.907531" lon="92.435785">
<time>2016-10-08T05:18:13Z</time></trkpt>
<trkpt lat="29.907898" lon="92.433962">
<time>2016-10-08T05:18:14Z</time></trkpt>
<trkpt lat="29.908067" lon="92.43307">
<time>2016-10-08T05:18:15Z</time></trkpt>
<trkpt lat="29.908117" lon="92.43283">
<time>2016-10-08T05:18:16Z</time></trkpt>
<trkpt lat="29.908246" lon="92.432189">
<time>2016-10-08T05:18:17Z</time></trkpt>
<trkpt lat="29.908375" lon="92.431488">
<time>2016-10-08T05:18:18Z</time></trkpt>
<trkpt lat="29.908603" lon="92.430366">
<time>2016-10-08T05:18:19Z</time></trkpt>
<trkpt lat="29.908742" lon="92.429685">
<time>2016-10-08T05:18:20Z</time></trkpt>
<trkpt lat="29.908812" lon="92.429334">
<time>2016-10-08T05:18:21Z</time></trkpt>
<trkpt lat="29.908902" lon="92.429024">
<time>2016-10-08T05:18:22Z</time></trkpt>
<trkpt lat="29.908941" lon="92.428884">
<time>2016-10-08T05:18:23Z</time></trkpt>
<trkpt lat="29.908991" lon="92.428733">
<time>2016-10-08T05:18:24Z</time></trkpt>
<trkpt lat="29.909051" lon="92.428603">
<time>2016-10-08T05:18:25Z</time></trkpt>
<trkpt lat="29.909111" lon="92.428473">
<time>2016-10-08T05:18:26Z</time></trkpt>
<trkpt lat="29.909201" lon="92.428293">
<time>2016-10-08T05:18:27Z</time></trkpt>
<trkpt lat="29.90943" lon="92.427892">
<time>2016-10-08T05:18:28Z</time></trkpt>
<trkpt lat="29.909849" lon="92.427211">
<time>2016-10-08T05:18:29Z</time></trkpt>
<trkpt lat="29.910408" lon="92.42628">
<time>2016-10-08T05:18:30Z</time></trkpt>
<trkpt lat="29.910828" lon="92.425579">
<time>2016-10-08T05:18:31Z</time></trkpt>
<trkpt lat="29.910937" lon="92.425378">
<time>2016-10-08T05:18:32Z</time></trkpt>
<trkpt lat="29.910997" lon="92.425248">
<time>2016-10-08T05:18:33Z</time></trkpt>
<trkpt lat="29.911077" lon="92.425038">
<time>2016-10-08T05:18:34Z</time></trkpt>
<trkpt lat="29.911187" lon="92.424708">
<time>2016-10-08T05:18:35Z</time></trkpt>
<trkpt lat="29.911246" lon="92.424477">
<time>2016-10-08T05:18:36Z</time></trkpt>
<trkpt lat="29.911416" lon="92.423626">
<time>2016-10-08T05:18:37Z</time></trkpt>
<trkpt lat="29.911714" lon="92.422064">
<time>2016-10-08T05:18:38Z</time></trkpt>
<trkpt lat="29.911993" lon="92.420663">
<time>2016-10-08T05:18:39Z</time></trkpt>
<trkpt lat="29.912311" lon="92.418981">
<time>2016-10-08T05:18:40Z</time></trkpt>
<trkpt lat="29.91256" lon="92.417699">
<time>2016-10-08T05:18:41Z</time></trkpt>
<trkpt lat="29.91276" lon="92.416679">
<time>2016-10-08T05:18:42Z</time></trkpt>
<trkpt lat="29.913009" lon="92.415397">
<time>2016-10-08T05:18:43Z</time></trkpt>
<trkpt lat="29.913158" lon="92.414607">
<time>2016-10-08T05:18:44Z</time></trkpt>
<trkpt lat="29.913188" lon="92.414367">
<time>2016-10-08T05:18:45Z</time></trkpt>
<trkpt lat="29.913208" lon="92.414236">
<time>2016-10-08T05:18:46Z</time></trkpt>
<trkpt lat="29.913208" lon="92.413776">
<time>2016-10-08T05:18:47Z</time></trkpt>
<trkpt lat="29.913178" lon="92.413286">
<time>2016-10-08T05:18:48Z</time></trkpt>
<trkpt lat="29.913127" lon="92.412125">
<time>2016-10-08T05:18:49Z</time></trkpt>
<trkpt lat="29.913097" lon="92.411584">
<time>2016-10-08T05:18:50Z</time></trkpt>
<trkpt lat="29.913066" lon="92.410774">
<time>2016-10-08T05:18:51Z</time></trkpt>
<trkpt lat="29.913006" lon="92.409243">
<time>2016-10-08T05:18:52Z</time></trkpt>
<trkpt lat="29.912935" lon="92.407882">
<time>2016-10-08T05:18:53Z</time></trkpt>
<trkpt lat="29.912825" lon="92.405411">
<time>2016-10-08T05:18:54Z</time></trkpt>
<trkpt lat="29.912734" lon="92.403591">
<time>2016-10-08T05:18:55Z</time></trkpt>
<trkpt lat="29.912694" lon="92.402651">
<time>2016-10-08T05:18:56Z</time></trkpt>
<trkpt lat="29.912654" lon="92.4017">
<time>2016-10-08T05:18:57Z</time></trkpt>
<trkpt lat="29.912614" lon="92.40103">
<time>2016-10-08T05:18:58Z</time></trkpt>
<trkpt lat="29.912594" lon="92.4007">
<time>2016-10-08T05:18:59Z</time></trkpt>
<trkpt lat="29.912554" lon="92.40031">
<time>2016-10-08T05:19:00Z</time></trkpt>
<trkpt lat="29.912514" lon="92.39998">
<time>2016-10-08T05:19:01Z</time></trkpt>
<trkpt lat="29.912474" lon="92.3997">
<time>2016-10-08T05:19:02Z</time></trkpt>
<trkpt lat="29.912354" lon="92.39907">
<time>2016-10-08T05:19:03Z</time></trkpt>
<trkpt lat="29.911995" lon="92.39723">
<time>2016-10-08T05:19:04Z</time></trkpt>
<trkpt lat="29.911595" lon="92.39513">
<time>2016-10-08T05:19:05Z</time></trkpt>
<trkpt lat="29.911116" lon="92.392651">
<time>2016-10-08T05:19:06Z</time></trkpt>
<trkpt lat="29.910976" lon="92.391911">
<time>2016-10-08T05:19:07Z</time></trkpt>
<trkpt lat="29.910826" lon="92.391161">
<time>2016-10-08T05:19:08Z</time></trkpt>
<trkpt lat="29.910687" lon="92.390431">
<time>2016-10-08T05:19:09Z</time></trkpt>
<trkpt lat="29.910487" lon="92.389422">
<time>2016-10-08T05:19:10Z</time></trkpt>
<trkpt lat="29.910348" lon="92.388672">
<time>2016-10-08T05:19:11Z</time></trkpt>
<trkpt lat="29.910208" lon="92.387943">
<time>2016-10-08T05:19:12Z</time></trkpt>
<trkpt lat="29.909979" lon="92.386793">
<time>2016-10-08T05:19:13Z</time></trkpt>
<trkpt lat="29.909779" lon="92.385734">
<time>2016-10-08T05:19:14Z</time></trkpt>
<trkpt lat="29.90967" lon="92.385154">
<time>2016-10-08T05:19:15Z</time></trkpt>
<trkpt lat="29.90952" lon="92.384385">
<time>2016-10-08T05:19:16Z</time></trkpt>
<trkpt lat="29.909421" lon="92.383865">
<time>2016-10-08T05:19:17Z</time></trkpt>
<trkpt lat="29.909271" lon="92.383105">
<time>2016-10-08T05:19:18Z</time></trkpt>
<trkpt lat="29.909172" lon="92.382576">
<time>2016-10-08T05:19:19Z</time></trkpt>
<trkpt lat="29.909072" lon="92.382026">
<time>2016-10-08T05:19:20Z</time></trkpt>
<trkpt lat="29.909012" lon="92.381706">
<time>2016-10-08T05:19:21Z</time></trkpt>
<trkpt lat="29.908963" lon="92.381467">
<time>2016-10-08T05:19:22Z</time></trkpt>
<trkpt lat="29.908943" lon="92.381247">
<time>2016-10-08T05:19:23Z</time></trkpt>
<trkpt lat="29.908933" lon="92.381087">
<time>2016-10-08T05:19:24Z</time></trkpt>
<trkpt lat="29.908943" lon="92.380917">
<time>2016-10-08T05:19:25Z</time></trkpt>
<trkpt lat="29.908953" lon="92.380777">
<time>2016-10-08T05:19:26Z</time></trkpt>
<trkpt lat="29.909033" lon="92.380317">
<time>2016-10-08T05:19:27Z</time></trkpt>
<trkpt lat="29.909114" lon="92.379898">
<time>2016-10-08T05:19:28Z</time></trkpt>
<trkpt lat="29.909184" lon="92.379408">
<time>2016-10-08T05:19:29Z</time></trkpt>
<trkpt lat="29.909295" lon="92.378849">
<time>2016-10-08T05:19:30Z</time></trkpt>
<trkpt lat="29.909395" lon="92.378309">
<time>2016-10-08T05:19:31Z</time></trkpt>
<trkpt lat="29.909486" lon="92.37781">
<time>2016-10-08T05:19:32Z</time></trkpt>
<trkpt lat="29.909546" lon="92.37749">
<time>2016-10-08T05:19:33Z</time></trkpt>
<trkpt lat="29.909596" lon="92.37724">
<time>2016-10-08T05:19:34Z</time></trkpt>
<trkpt lat="29.909657" lon="92.37698">
<time>2016-10-08T05:19:35Z</time></trkpt>
<trkpt lat="29.909707" lon="92.37684">
<time>2016-10-08T05:19:36Z</time></trkpt>
<trkpt lat="29.909777" lon="92.376661">
<time>2016-10-08T05:19:37Z</time></trkpt>
<trkpt lat="29.909827" lon="92.376531">
<time>2016-10-08T05:19:38Z</time></trkpt>
<trkpt lat="29.909907" lon="92.376381">
<time>2016-10-08T05:19:39Z</time></trkpt>
<trkpt lat="29.910098" lon="92.375981">
<time>2016-10-08T05:19:40Z</time></trkpt>
<trkpt lat="29.910558" lon="92.375052">
<time>2016-10-08T05:19:41Z</time></trkpt>
<trkpt lat="29.910759" lon="92.374683">
<time>2016-10-08T05:19:42Z</time></trkpt>
<trkpt lat="29.910869" lon="92.374423">
<time>2016-10-08T05:19:43Z</time></trkpt>
<trkpt lat="29.910989" lon="92.374183">
<time>2016-10-08T05:19:44Z</time></trkpt>
<trkpt lat="29.91108" lon="92.374033">
<time>2016-10-08T05:19:45Z</time></trkpt>
<trkpt lat="29.91115" lon="92.373913">
<time>2016-10-08T05:19:46Z</time></trkpt>
<trkpt lat="29.91127" lon="92.373674">
<time>2016-10-08T05:19:47Z</time></trkpt>
<trkpt lat="29.91137" lon="92.373444">
<time>2016-10-08T05:19:48Z</time></trkpt>
<trkpt lat="29.91146" lon="92.373194">
<time>2016-10-08T05:19:49Z</time></trkpt>
<trkpt lat="29.911521" lon="92.372934">
<time>2016-10-08T05:19:50Z</time></trkpt>
<trkpt lat="29.911591" lon="92.372655">
<time>2016-10-08T05:19:51Z</time></trkpt>
<trkpt lat="29.911641" lon="92.372385">
<time>2016-10-08T05:19:52Z</time></trkpt>
<trkpt lat="29.911742" lon="92.371906">
<time>2016-10-08T05:19:53Z</time></trkpt>
<trkpt lat="29.911863" lon="92.371326">
<time>2016-10-08T05:19:54Z</time></trkpt>
<trkpt lat="29.911993" lon="92.370707">
<time>2016-10-08T05:19:55Z</time></trkpt>
<trkpt lat="29.912034" lon="92.370427">
<time>2016-10-08T05:19:56Z</time></trkpt>
<trkpt lat="29.912054" lon="92.370217">
<time>2016-10-08T05:19:57Z</time></trkpt>
<trkpt lat="29.912094" lon="92.369838">
<time>2016-10-08T05:19:58Z</time></trkpt>
<trkpt lat="29.912135" lon="92.369378">
<time>2016-10-08T05:19:59Z</time></trkpt>
<trkpt lat="29.912186" lon="92.368859">
<time>2016-10-08T05:20:00Z</time></trkpt>
<trkpt lat="29.912236" lon="92.36827">
<time>2016-10-08T05:20:01Z</time></trkpt>
<trkpt lat="29.912287" lon="92.367751">
<time>2016-10-08T05:20:02Z</time></trkpt>
<trkpt lat="29.912317" lon="92.367401">
<time>2016-10-08T05:20:03Z</time></trkpt>
<trkpt lat="29.912378" lon="92.366981">
<time>2016-10-08T05:20:04Z</time></trkpt>
<trkpt lat="29.912428" lon="92.366792">
<time>2016-10-08T05:20:05Z</time></trkpt>
<trkpt lat="29.912478" lon="92.366582">
<time>2016-10-08T05:20:06Z</time></trkpt>
<trkpt lat="29.912579" lon="92.366292">
<time>2016-10-08T05:20:07Z</time></trkpt>
<trkpt lat="29.912659" lon="92.366083">
<time>2016-10-08T05:20:08Z</time></trkpt>
<trkpt lat="29.912749" lon="92.365783">
<time>2016-10-08T05:20:09Z</time></trkpt>
<trkpt lat="29.91281" lon="92.365613">
<time>2016-10-08T05:20:10Z</time></trkpt>
<trkpt lat="29.91286" lon="92.365404">
<time>2016-10-08T05:20:11Z</time></trkpt>
<trkpt lat="29.91289" lon="92.365204">
<time>2016-10-08T05:20:12Z</time></trkpt>
<trkpt lat="29.91291" lon="92.365054">
<time>2016-10-08T05:20:13Z</time></trkpt>
<trkpt lat="29.912921" lon="92.364934">
<time>2016-10-08T05:20:14Z</time></trkpt>
<trkpt lat="29.912911" lon="92.364724">
<time>2016-10-08T05:20:15Z</time></trkpt>
<trkpt lat="29.912891" lon="92.364445">
<time>2016-10-08T05:20:16Z</time></trkpt>
<trkpt lat="29.912862" lon="92.364115">
<time>2016-10-08T05:20:17Z</time></trkpt>
<trkpt lat="29.912822" lon="92.363726">
<time>2016-10-08T05:20:18Z</time></trkpt>
<trkpt lat="29.912783" lon="92.363356">
<time>2016-10-08T05:20:19Z</time></trkpt>
<trkpt lat="29.912753" lon="92.363077">
<time>2016-10-08T05:20:20Z</time></trkpt>
<trkpt lat="29.912704" lon="92.362797">
<time>2016-10-08T05:20:21Z</time></trkpt>
<trkpt lat="29.912634" lon="92.362607">
<time>2016-10-08T05:20:22Z</time></trkpt>
<trkpt lat="29.912544" lon="92.362428">
<time>2016-10-08T05:20:23Z</time></trkpt>
<trkpt lat="29.912444" lon="92.362238">
<time>2016-10-08T05:20:24Z</time></trkpt>
<trkpt lat="29.912285" lon="92.361928">
<time>2016-10-08T05:20:25Z</time></trkpt>
<trkpt lat="29.912125" lon="92.361609">
<time>2016-10-08T05:20:26Z</time></trkpt>
<trkpt lat="29.911846" lon="92.36106">
<time>2016-10-08T05:20:27Z</time></trkpt>
<trkpt lat="29.911597" lon="92.36059">
<time>2016-10-08T05:20:28Z</time></trkpt>
<trkpt lat="29.911288" lon="92.359981">
<time>2016-10-08T05:20:29Z</time></trkpt>
<trkpt lat="29.910989" lon="92.359412">
<time>2016-10-08T05:20:30Z</time></trkpt>
<trkpt lat="29.91065" lon="92.358763">
<time>2016-10-08T05:20:31Z</time></trkpt>
<trkpt lat="29.91043" lon="92.358324">
<time>2016-10-08T05:20:32Z</time></trkpt>
<trkpt lat="29.910201" lon="92.357855">
<time>2016-10-08T05:20:33Z</time></trkpt>
<trkpt lat="29.909902" lon="92.357226">
<time>2016-10-08T05:20:34Z</time></trkpt>
<trkpt lat="29.909563" lon="92.356517">
<time>2016-10-08T05:20:35Z</time></trkpt>
<trkpt lat="29.909354" lon="92.356038">
<time>2016-10-08T05:20:36Z</time></trkpt>
<trkpt lat="29.909155" lon="92.355608">
<time>2016-10-08T05:20:37Z</time></trkpt>
<trkpt lat="29.908975" lon="92.355239">
<time>2016-10-08T05:20:38Z</time></trkpt>
<trkpt lat="29.908816" lon="92.354889">
<time>2016-10-08T05:20:39Z</time></trkpt>
<trkpt lat="29.908636" lon="92.35449">
<time>2016-10-08T05:20:40Z</time></trkpt>
<trkpt lat="29.908417" lon="92.354031">
<time>2016-10-08T05:20:41Z</time></trkpt>
<trkpt lat="29.908297" lon="92.353771">
<time>2016-10-08T05:20:42Z</time></trkpt>
<trkpt lat="29.908098" lon="92.353332">
<time>2016-10-08T05:20:43Z</time></trkpt>
<trkpt lat="29.907799" lon="92.352703">
<time>2016-10-08T05:20:44Z</time></trkpt>
<trkpt lat="29.90762" lon="92.352314">
<time>2016-10-08T05:20:45Z</time></trkpt>
<trkpt lat="29.90753" lon="92.352104">
<time>2016-10-08T05:20:46Z</time></trkpt>
<trkpt lat="29.907451" lon="92.351954">
<time>2016-10-08T05:20:47Z</time></trkpt>
<trkpt lat="29.907381" lon="92.351815">
<time>2016-10-08T05:20:48Z</time></trkpt>
<trkpt lat="29.907321" lon="92.351715">
<time>2016-10-08T05:20:49Z</time></trkpt>
<trkpt lat="29.907251" lon="92.351605">
<time>2016-10-08T05:20:50Z</time></trkpt>
<trkpt lat="29.907191" lon="92.351515">
<time>2016-10-08T05:20:51Z</time></trkpt>
<trkpt lat="29.907121" lon="92.351435">
<time>2016-10-08T05:20:52Z</time></trkpt>
<trkpt lat="29.907042" lon="92.351345">
<time>2016-10-08T05:20:53Z</time></trkpt>
<trkpt lat="29.906942" lon="92.351256">
<time>2016-10-08T05:20:54Z</time></trkpt>
<trkpt lat="29.906852" lon="92.351176">
<time>2016-10-08T05:20:55Z</time></trkpt>
<trkpt lat="29.906732" lon="92.351086">
<time>2016-10-08T05:20:56Z</time></trkpt>
<trkpt lat="29.906632" lon="92.351026">
<time>2016-10-08T05:20:57Z</time></trkpt>
<trkpt lat="29.906522" lon="92.350966">
<time>2016-10-08T05:20:58Z</time></trkpt>
<trkpt lat="29.906412" lon="92.350916">
<time>2016-10-08T05:20:59Z</time></trkpt>
<trkpt lat="29.906262" lon="92.350866">
<time>2016-10-08T05:21:00Z</time></trkpt>
<trkpt lat="29.906152" lon="92.350836">
<time>2016-10-08T05:21:01Z</time></trkpt>
<trkpt lat="29.906022" lon="92.350816">
<time>2016-10-08T05:21:02Z</time></trkpt>
<trkpt lat="29.905882" lon="92.350786">
<time>2016-10-08T05:21:03Z</time></trkpt>
<trkpt lat="29.905493" lon="92.350726">
<time>2016-10-08T05:21:04Z</time></trkpt>
<trkpt lat="29.905243" lon="92.350677">
<time>2016-10-08T05:21:05Z</time></trkpt>
<trkpt lat="29.904963" lon="92.350627">
<time>2016-10-08T05:21:06Z</time></trkpt>
<trkpt lat="29.904573" lon="92.350547">
<time>2016-10-08T05:21:07Z</time></trkpt>
<trkpt lat="29.904343" lon="92.350507">
<time>2016-10-08T05:21:08Z</time></trkpt>
<trkpt lat="29.903953" lon="92.350437">
<time>2016-10-08T05:21:09Z</time></trkpt>
<trkpt lat="29.903513" lon="92.350367">
<time>2016-10-08T05:21:10Z</time></trkpt>
<trkpt lat="29.903253" lon="92.350317">
<time>2016-10-08T05:21:11Z</time></trkpt>
<trkpt lat="29.903033" lon="92.350277">
<time>2016-10-08T05:21:12Z</time></trkpt>
<trkpt lat="29.902434" lon="92.350167">
<time>2016-10-08T05:21:13Z</time></trkpt>
<trkpt lat="29.901954" lon="92.350078">
<time>2016-10-08T05:21:14Z</time></trkpt>
<trkpt lat="29.901754" lon="92.350048">
<time>2016-10-08T05:21:15Z</time></trkpt>
<trkpt lat="29.901334" lon="92.349968">
<time>2016-10-08T05:21:16Z</time></trkpt>
<trkpt lat="29.901204" lon="92.349948">
<time>2016-10-08T05:21:17Z</time></trkpt>
<trkpt lat="29.900784" lon="92.349878">
<time>2016-10-08T05:21:18Z</time></trkpt>
<trkpt lat="29.900434" lon="92.349818">
<time>2016-10-08T05:21:19Z</time></trkpt>
<trkpt lat="29.900184" lon="92.349778">
<time>2016-10-08T05:21:20Z</time></trkpt>
<trkpt lat="29.900004" lon="92.349738">
<time>2016-10-08T05:21:21Z</time></trkpt>
<trkpt lat="29.899764" lon="92.349698">
<time>2016-10-08T05:21:22Z</time></trkpt>
<trkpt lat="29.899575" lon="92.349658">
<time>2016-10-08T05:21:23Z</time></trkpt>
<trkpt lat="29.899485" lon="92.349638">
<time>2016-10-08T05:21:24Z</time></trkpt>
<trkpt lat="29.899315" lon="92.349589">
<time>2016-10-08T05:21:25Z</time></trkpt>
<trkpt lat="29.899145" lon="92.349539">
<time>2016-10-08T05:21:26Z</time></trkpt>
<trkpt lat="29.899005" lon="92.349489">
<time>2016-10-08T05:21:27Z</time></trkpt>
<trkpt lat="29.898805" lon="92.349409">
<time>2016-10-08T05:21:28Z</time></trkpt>
<trkpt lat="29.898315" lon="92.349219">
<time>2016-10-08T05:21:29Z</time></trkpt>
<trkpt lat="29.897936" lon="92.349069">
<time>2016-10-08T05:21:30Z</time></trkpt>
<trkpt lat="29.897516" lon="92.3489">
<time>2016-10-08T05:21:31Z</time></trkpt>
<trkpt lat="29.897056" lon="92.34872">
<time>2016-10-08T05:21:32Z</time></trkpt>
<trkpt lat="29.896676" lon="92.34857">
<time>2016-10-08T05:21:33Z</time></trkpt>
<trkpt lat="29.896467" lon="92.348481">
<time>2016-10-08T05:21:34Z</time></trkpt>
<trkpt lat="29.896307" lon="92.348411">
<time>2016-10-08T05:21:35Z</time></trkpt>
<trkpt lat="29.896167" lon="92.348321">
<time>2016-10-08T05:21:36Z</time></trkpt>
<trkpt lat="29.895987" lon="92.348211">
<time>2016-10-08T05:21:37Z</time></trkpt>
<trkpt lat="29.895678" lon="92.347991">
<time>2016-10-08T05:21:38Z</time></trkpt>
<trkpt lat="29.895348" lon="92.347762">
<time>2016-10-08T05:21:39Z</time></trkpt>
<trkpt lat="29.894958" lon="92.347482">
<time>2016-10-08T05:21:40Z</time></trkpt>
<trkpt lat="29.894239" lon="92.346973">
<time>2016-10-08T05:21:41Z</time></trkpt>
<trkpt lat="29.89394" lon="92.346734">
<time>2016-10-08T05:21:42Z</time></trkpt>
<trkpt lat="29.89376" lon="92.346574">
<time>2016-10-08T05:21:43Z</time></trkpt>
<trkpt lat="29.893501" lon="92.346304">
<time>2016-10-08T05:21:44Z</time></trkpt>
<trkpt lat="29.893321" lon="92.346115">
<time>2016-10-08T05:21:45Z</time></trkpt>
<trkpt lat="29.893061" lon="92.345815">
<time>2016-10-08T05:21:46Z</time></trkpt>
<trkpt lat="29.892832" lon="92.345566">
<time>2016-10-08T05:21:47Z</time></trkpt>
<trkpt lat="29.892652" lon="92.345366">
<time>2016-10-08T05:21:48Z</time></trkpt>
<trkpt lat="29.892522" lon="92.345207">
<time>2016-10-08T05:21:49Z</time></trkpt>
<trkpt lat="29.892263" lon="92.344917">
<time>2016-10-08T05:21:50Z</time></trkpt>
<trkpt lat="29.891904" lon="92.344488">
<time>2016-10-08T05:21:51Z</time></trkpt>
<trkpt lat="29.891544" lon="92.344119">
<time>2016-10-08T05:21:52Z</time></trkpt>
<trkpt lat="29.890996" lon="92.34349">
<time>2016-10-08T05:21:53Z</time></trkpt>
<trkpt lat="29.890247" lon="92.342641">
<time>2016-10-08T05:21:54Z</time></trkpt>
<trkpt lat="29.889658" lon="92.341982">
<time>2016-10-08T05:21:55Z</time></trkpt>
<trkpt lat="29.88903" lon="92.341284">
<time>2016-10-08T05:21:56Z</time></trkpt>
<trkpt lat="29.888351" lon="92.340515">
<time>2016-10-08T05:21:57Z</time></trkpt>
<trkpt lat="29.887832" lon="92.339926">
<time>2016-10-08T05:21:58Z</time></trkpt>
<trkpt lat="29.887653" lon="92.339717">
<time>2016-10-08T05:21:59Z</time></trkpt>
<trkpt lat="29.887513" lon="92.339537">
<time>2016-10-08T05:22:00Z</time></trkpt>
<trkpt lat="29.887413" lon="92.339387">
<time>2016-10-08T05:22:01Z</time></trkpt>
<trkpt lat="29.887314" lon="92.339228">
<time>2016-10-08T05:22:02Z</time></trkpt>
<trkpt lat="29.887164" lon="92.338958">
<time>2016-10-08T05:22:03Z</time></trkpt>
<trkpt lat="29.887104" lon="92.338828">
<time>2016-10-08T05:22:04Z</time></trkpt>
<trkpt lat="29.887035" lon="92.338679">
<time>2016-10-08T05:22:05Z</time></trkpt>
<trkpt lat="29.886925" lon="92.338369">
<time>2016-10-08T05:22:06Z</time></trkpt>
<trkpt lat="29.886856" lon="92.33814">
<time>2016-10-08T05:22:07Z</time></trkpt>
<trkpt lat="29.886756" lon="92.337711">
<time>2016-10-08T05:22:08Z</time></trkpt>
<trkpt lat="29.886647" lon="92.337232">
<time>2016-10-08T05:22:09Z</time></trkpt>
<trkpt lat="29.886558" lon="92.336922">
<time>2016-10-08T05:22:10Z</time></trkpt>
<trkpt lat="29.886458" lon="92.336673">
<time>2016-10-08T05:22:11Z</time></trkpt>
<trkpt lat="29.886389" lon="92.336533">
<time>2016-10-08T05:22:12Z</time></trkpt>
<trkpt lat="29.886269" lon="92.336303">
<time>2016-10-08T05:22:13Z</time></trkpt>
<trkpt lat="29.886129" lon="92.336074">
<time>2016-10-08T05:22:14Z</time></trkpt>
<trkpt lat="29.88585" lon="92.335665">
<time>2016-10-08T05:22:15Z</time></trkpt>
<trkpt lat="29.885591" lon="92.335265">
<time>2016-10-08T05:22:16Z</time></trkpt>
<trkpt lat="29.885322" lon="92.334866">
<time>2016-10-08T05:22:17Z</time></trkpt>
<trkpt lat="29.884963" lon="92.334327">
<time>2016-10-08T05:22:18Z</time></trkpt>
<trkpt lat="29.884714" lon="92.333938">
<time>2016-10-08T05:22:19Z</time></trkpt>
<trkpt lat="29.884355" lon="92.333409">
<time>2016-10-08T05:22:20Z</time></trkpt>
<trkpt lat="29.884195" lon="92.333149">
<time>2016-10-08T05:22:21Z</time></trkpt>
<trkpt lat="29.884075" lon="92.33298">
<time>2016-10-08T05:22:22Z</time></trkpt>
<trkpt lat="29.883946" lon="92.3328">
<time>2016-10-08T05:22:23Z</time></trkpt>
<trkpt lat="29.883856" lon="92.33268">
<time>2016-10-08T05:22:24Z</time></trkpt>
<trkpt lat="29.883786" lon="92.332601">
<time>2016-10-08T05:22:25Z</time></trkpt>
<trkpt lat="29.883756" lon="92.332581">
<time>2016-10-08T05:22:26Z</time></trkpt>
<trkpt lat="29.883716" lon="92.332541">
<time>2016-10-08T05:22:27Z</time></trkpt>
<trkpt lat="29.883676" lon="92.332501">
<time>2016-10-08T05:22:28Z</time></trkpt>
<trkpt lat="29.883626" lon="92.332471">
<time>2016-10-08T05:22:29Z</time></trkpt>
<trkpt lat="29.883517" lon="92.332391">
<time>2016-10-08T05:22:30Z</time></trkpt>
<trkpt lat="29.883297" lon="92.332271">
<time>2016-10-08T05:22:31Z</time></trkpt>
<trkpt lat="29.882997" lon="92.332121">
<time>2016-10-08T05:22:32Z</time></trkpt>
<trkpt lat="29.882538" lon="92.331892">
<time>2016-10-08T05:22:33Z</time></trkpt>
<trkpt lat="29.882118" lon="92.331682">
<time>2016-10-08T05:22:34Z</time></trkpt>
<trkpt lat="29.881638" lon="92.331443">
<time>2016-10-08T05:22:35Z</time></trkpt>
<trkpt lat="29.881389" lon="92.331323">
<time>2016-10-08T05:22:36Z</time></trkpt>
<trkpt lat="29.881199" lon="92.331213">
<time>2016-10-08T05:22:37Z</time></trkpt>
<trkpt lat="29.881109" lon="92.331143">
<time>2016-10-08T05:22:38Z</time></trkpt>
<trkpt lat="29.881039" lon="92.331084">
<time>2016-10-08T05:22:39Z</time></trkpt>
<trkpt lat="29.880979" lon="92.331014">
<time>2016-10-08T05:22:40Z</time></trkpt>
<trkpt lat="29.880919" lon="92.330944">
<time>2016-10-08T05:22:41Z</time></trkpt>
<trkpt lat="29.88084" lon="92.330834">
<time>2016-10-08T05:22:42Z</time></trkpt>
<trkpt lat="29.88076" lon="92.330704">
<time>2016-10-08T05:22:43Z</time></trkpt>
<trkpt lat="29.88058" lon="92.330385">
<time>2016-10-08T05:22:44Z</time></trkpt>
<trkpt lat="29.880451" lon="92.330145">
<time>2016-10-08T05:22:45Z</time></trkpt>
<trkpt lat="29.880311" lon="92.329876">
<time>2016-10-08T05:22:46Z</time></trkpt>
<trkpt lat="29.880142" lon="92.329557">
<time>2016-10-08T05:22:47Z</time></trkpt>
<trkpt lat="29.879963" lon="92.329247">
<time>2016-10-08T05:22:48Z</time></trkpt>
<trkpt lat="29.879813" lon="92.329028">
<time>2016-10-08T05:22:49Z</time></trkpt>
<trkpt lat="29.879733" lon="92.328938">
<time>2016-10-08T05:22:50Z</time></trkpt>
<trkpt lat="29.879643" lon="92.328838">
<time>2016-10-08T05:22:51Z</time></trkpt>
<trkpt lat="29.879544" lon="92.328748">
<time>2016-10-08T05:22:52Z</time></trkpt>
<trkpt lat="29.879414" lon="92.328648">
<time>2016-10-08T05:22:53Z</time></trkpt>
<trkpt lat="29.879274" lon="92.328548">
<time>2016-10-08T05:22:54Z</time></trkpt>
<trkpt lat="29.879144" lon="92.328479">
<time>2016-10-08T05:22:55Z</time></trkpt>
<trkpt lat="29.879014" lon="92.328419">
<time>2016-10-08T05:22:56Z</time></trkpt>
<trkpt lat="29.878934" lon="92.328389">
<time>2016-10-08T05:22:57Z</time></trkpt>
<trkpt lat="29.878774" lon="92.328339">
<time>2016-10-08T05:22:58Z</time></trkpt>
<trkpt lat="29.878535" lon="92.328269">
<time>2016-10-08T05:22:59Z</time></trkpt>
<trkpt lat="29.878275" lon="92.328199">
<time>2016-10-08T05:23:00Z</time></trkpt>
<trkpt lat="29.878025" lon="92.328129">
<time>2016-10-08T05:23:01Z</time></trkpt>
<trkpt lat="29.877815" lon="92.328069">
<time>2016-10-08T05:23:02Z</time></trkpt>
<trkpt lat="29.877485" lon="92.32799">
<time>2016-10-08T05:23:03Z</time></trkpt>
<trkpt lat="29.877085" lon="92.32788">
<time>2016-10-08T05:23:04Z</time></trkpt>
<trkpt lat="29.876895" lon="92.32782">
<time>2016-10-08T05:23:05Z</time></trkpt>
<trkpt lat="29.876636" lon="92.32775">
<time>2016-10-08T05:23:06Z</time></trkpt>
<trkpt lat="29.876406" lon="92.3277">
<time>2016-10-08T05:23:07Z</time></trkpt>
<trkpt lat="29.876326" lon="92.32768">
<time>2016-10-08T05:23:08Z</time></trkpt>
<trkpt lat="29.876216" lon="92.32766">
<time>2016-10-08T05:23:09Z</time></trkpt>
<trkpt lat="29.876106" lon="92.32764">
<time>2016-10-08T05:23:10Z</time></trkpt>
<trkpt lat="29.875936" lon="92.32763">
<time>2016-10-08T05:23:11Z</time></trkpt>
<trkpt lat="29.875756" lon="92.32763">
<time>2016-10-08T05:23:12Z</time></trkpt>
<trkpt lat="29.875566" lon="92.32764">
<time>2016-10-08T05:23:13Z</time></trkpt>
<trkpt lat="29.875376" lon="92.32766">
<time>2016-10-08T05:23:14Z</time></trkpt>
<trkpt lat="29.875096" lon="92.32769">
<time>2016-10-08T05:23:15Z</time></trkpt>
<trkpt lat="29.874906" lon="92.32772">
<time>2016-10-08T05:23:16Z</time></trkpt>
<trkpt lat="29.874556" lon="92.32776">
<time>2016-10-08T05:23:17Z</time></trkpt>
<trkpt lat="29.874186" lon="92.32781">
<time>2016-10-08T05:23:18Z</time></trkpt>
<trkpt lat="29.874016" lon="92.32784">
<time>2016-10-08T05:23:19Z</time></trkpt>
<trkpt lat="29.873905" lon="92.32787">
<time>2016-10-08T05:23:20Z</time></trkpt>
<trkpt lat="29.873685" lon="92.32794">
<time>2016-10-08T05:23:21Z</time></trkpt>
<trkpt lat="29.873505" lon="92.32803">
<time>2016-10-08T05:23:22Z</time></trkpt>
<trkpt lat="29.873375" lon="92.328109">
<time>2016-10-08T05:23:23Z</time></trkpt>
<trkpt lat="29.873245" lon="92.328209">
<time>2016-10-08T05:23:24Z</time></trkpt>
<trkpt lat="29.873095" lon="92.328339">
<time>2016-10-08T05:23:25Z</time></trkpt>
<trkpt lat="29.872644" lon="92.328778">
<time>2016-10-08T05:23:26Z</time></trkpt>
<trkpt lat="29.872313" lon="92.329098">
<time>2016-10-08T05:23:27Z</time></trkpt>
<trkpt lat="29.872133" lon="92.329267">
<time>2016-10-08T05:23:28Z</time></trkpt>
<trkpt lat="29.872093" lon="92.329307">
<time>2016-10-08T05:23:29Z</time></trkpt>
<trkpt lat="29.871983" lon="92.329397">
<time>2016-10-08T05:23:30Z</time></trkpt>
<trkpt lat="29.871782" lon="92.329537">
<time>2016-10-08T05:23:31Z</time></trkpt>
<trkpt lat="29.871462" lon="92.329726">
<time>2016-10-08T05:23:32Z</time></trkpt>
<trkpt lat="29.871072" lon="92.329966">
<time>2016-10-08T05:23:33Z</time></trkpt>
<trkpt lat="29.870951" lon="92.330046">
<time>2016-10-08T05:23:34Z</time></trkpt>
<trkpt lat="29.870711" lon="92.330195">
<time>2016-10-08T05:23:35Z</time></trkpt>
<trkpt lat="29.870391" lon="92.330385">
<time>2016-10-08T05:23:36Z</time></trkpt>
<trkpt lat="29.87004" lon="92.330565">
<time>2016-10-08T05:23:37Z</time></trkpt>
<trkpt lat="29.86975" lon="92.330714">
<time>2016-10-08T05:23:38Z</time></trkpt>
<trkpt lat="29.86964" lon="92.330774">
<time>2016-10-08T05:23:39Z</time></trkpt>
<trkpt lat="29.8694" lon="92.330894">
<time>2016-10-08T05:23:40Z</time></trkpt>
<trkpt lat="29.86913" lon="92.331034">
<time>2016-10-08T05:23:41Z</time></trkpt>
<trkpt lat="29.868789" lon="92.331204">
<time>2016-10-08T05:23:42Z</time></trkpt>
<trkpt lat="29.868339" lon="92.331443">
<time>2016-10-08T05:23:43Z</time></trkpt>
<trkpt lat="29.868009" lon="92.331603">
<time>2016-10-08T05:23:44Z</time></trkpt>
<trkpt lat="29.867698" lon="92.331762">
<time>2016-10-08T05:23:45Z</time></trkpt>
<trkpt lat="29.867328" lon="92.331962">
<time>2016-10-08T05:23:46Z</time></trkpt>
<trkpt lat="29.866918" lon="92.332162">
<time>2016-10-08T05:23:47Z</time></trkpt>
<trkpt lat="29.866527" lon="92.332361">
<time>2016-10-08T05:23:48Z</time></trkpt>
<trkpt lat="29.866097" lon="92.332591">
<time>2016-10-08T05:23:49Z</time></trkpt>
<trkpt lat="29.865776" lon="92.332741">
<time>2016-10-08T05:23:50Z</time></trkpt>
<trkpt lat="29.865336" lon="92.3329">
<time>2016-10-08T05:23:51Z</time></trkpt>
<trkpt lat="29.864716" lon="92.33312">
<time>2016-10-08T05:23:52Z</time></trkpt>
<trkpt lat="29.864265" lon="92.33328">
<time>2016-10-08T05:23:53Z</time></trkpt>
<trkpt lat="29.863845" lon="92.333429">
<time>2016-10-08T05:23:54Z</time></trkpt>
<trkpt lat="29.863485" lon="92.333539">
<time>2016-10-08T05:23:55Z</time></trkpt>
<trkpt lat="29.863105" lon="92.333659">
<time>2016-10-08T05:23:56Z</time></trkpt>
<trkpt lat="29.862705" lon="92.333769">
<time>2016-10-08T05:23:57Z</time></trkpt>
<trkpt lat="29.862344" lon="92.333878">
<time>2016-10-08T05:23:58Z</time></trkpt>
<trkpt lat="29.861914" lon="92.334008">
<time>2016-10-08T05:23:59Z</time></trkpt>
<trkpt lat="29.861074" lon="92.334248">
<time>2016-10-08T05:24:00Z</time></trkpt>
<trkpt lat="29.860724" lon="92.334358">
<time>2016-10-08T05:24:01Z</time></trkpt>
<trkpt lat="29.860373" lon="92.334447">
<time>2016-10-08T05:24:02Z</time></trkpt>
<trkpt lat="29.859873" lon="92.334547">
<time>2016-10-08T05:24:03Z</time></trkpt>
<trkpt lat="29.859463" lon="92.334607">
<time>2016-10-08T05:24:04Z</time></trkpt>
<trkpt lat="29.858973" lon="92.334687">
<time>2016-10-08T05:24:05Z</time></trkpt>
<trkpt lat="29.858393" lon="92.334777">
<time>2016-10-08T05:24:06Z</time></trkpt>
<trkpt lat="29.857933" lon="92.334857">
<time>2016-10-08T05:24:07Z</time></trkpt>
<trkpt lat="29.857703" lon="92.334887">
<time>2016-10-08T05:24:08Z</time></trkpt>
<trkpt lat="29.857433" lon="92.334897">
<time>2016-10-08T05:24:09Z</time></trkpt>
<trkpt lat="29.857023" lon="92.334857">
<time>2016-10-08T05:24:10Z</time></trkpt>
<trkpt lat="29.856793" lon="92.334847">
<time>2016-10-08T05:24:11Z</time></trkpt>
<trkpt lat="29.856573" lon="92.334817">
<time>2016-10-08T05:24:12Z</time></trkpt>
<trkpt lat="29.856263" lon="92.334777">
<time>2016-10-08T05:24:13Z</time></trkpt>
<trkpt lat="29.855993" lon="92.334727">
<time>2016-10-08T05:24:14Z</time></trkpt>
<trkpt lat="29.855573" lon="92.334657">
<time>2016-10-08T05:24:15Z</time></trkpt>
<trkpt lat="29.855073" lon="92.334587">
<time>2016-10-08T05:24:16Z</time></trkpt>
<trkpt lat="29.854973" lon="92.334567">
<time>2016-10-08T05:24:17Z</time></trkpt>
<trkpt lat="29.854853" lon="92.334547">
<time>2016-10-08T05:24:18Z</time></trkpt>
<trkpt lat="29.854664" lon="92.334487">
<time>2016-10-08T05:24:19Z</time></trkpt>
<trkpt lat="29.854384" lon="92.334398">
<time>2016-10-08T05:24:20Z</time></trkpt>
<trkpt lat="29.853894" lon="92.334228">
<time>2016-10-08T05:24:21Z</time></trkpt>
<trkpt lat="29.853484" lon="92.334088">
<time>2016-10-08T05:24:22Z</time></trkpt>
<trkpt lat="29.853115" lon="92.333968">
<time>2016-10-08T05:24:23Z</time></trkpt>
<trkpt lat="29.852305" lon="92.333709">
<time>2016-10-08T05:24:24Z</time></trkpt>
<trkpt lat="29.852035" lon="92.333629">
<time>2016-10-08T05:24:25Z</time></trkpt>
<trkpt lat="29.851766" lon="92.333549">
<time>2016-10-08T05:24:26Z</time></trkpt>
<trkpt lat="29.851346" lon="92.33341">
<time>2016-10-08T05:24:27Z</time></trkpt>
<trkpt lat="29.851006" lon="92.33331">
<time>2016-10-08T05:24:28Z</time></trkpt>
<trkpt lat="29.850446" lon="92.33313">
<time>2016-10-08T05:24:29Z</time></trkpt>
<trkpt lat="29.850316" lon="92.33309">
<time>2016-10-08T05:24:30Z</time></trkpt>
<trkpt lat="29.850177" lon="92.33305">
<time>2016-10-08T05:24:31Z</time></trkpt>
<trkpt lat="29.849837" lon="92.33294">
<time>2016-10-08T05:24:32Z</time></trkpt>
<trkpt lat="29.849567" lon="92.332851">
<time>2016-10-08T05:24:33Z</time></trkpt>
<trkpt lat="29.848618" lon="92.332561">
<time>2016-10-08T05:24:34Z</time></trkpt>
<trkpt lat="29.848288" lon="92.332441">
<time>2016-10-08T05:24:35Z</time></trkpt>
<trkpt lat="29.847838" lon="92.332322">
<time>2016-10-08T05:24:36Z</time></trkpt>
<trkpt lat="29.847608" lon="92.332272">
<time>2016-10-08T05:24:37Z</time></trkpt>
<trkpt lat="29.847408" lon="92.332242">
<time>2016-10-08T05:24:38Z</time></trkpt>
<trkpt lat="29.847228" lon="92.332212">
<time>2016-10-08T05:24:39Z</time></trkpt>
<trkpt lat="29.847138" lon="92.332192">
<time>2016-10-08T05:24:40Z</time></trkpt>
<trkpt lat="29.847038" lon="92.332172">
<time>2016-10-08T05:24:41Z</time></trkpt>
<trkpt lat="29.846948" lon="92.332162">
<time>2016-10-08T05:24:42Z</time></trkpt>
<trkpt lat="29.846868" lon="92.332142">
<time>2016-10-08T05:24:43Z</time></trkpt>
<trkpt lat="29.846798" lon="92.332132">
<time>2016-10-08T05:24:44Z</time></trkpt>
<trkpt lat="29.846739" lon="92.332112">
<time>2016-10-08T05:24:45Z</time></trkpt>
<trkpt lat="29.846709" lon="92.332112">
<time>2016-10-08T05:24:46Z</time></trkpt>
<trkpt lat="29.846649" lon="92.332092">
<time>2016-10-08T05:24:47Z</time></trkpt>
<trkpt lat="29.846579" lon="92.332052">
<time>2016-10-08T05:24:48Z</time></trkpt>
<trkpt lat="29.846519" lon="92.332032">
<time>2016-10-08T05:24:49Z</time></trkpt>
<trkpt lat="29.846449" lon="92.331992">
<time>2016-10-08T05:24:50Z</time></trkpt>
<trkpt lat="29.846389" lon="92.331952">
<time>2016-10-08T05:24:51Z</time></trkpt>
<trkpt lat="29.846259" lon="92.331863">
<time>2016-10-08T05:24:52Z</time></trkpt>
<trkpt lat="29.846049" lon="92.331703">
<time>2016-10-08T05:24:53Z</time></trkpt>
<trkpt lat="29.84569" lon="92.331424">
<time>2016-10-08T05:24:54Z</time></trkpt>
<trkpt lat="29.845161" lon="92.331014">
<time>2016-10-08T05:24:55Z</time></trkpt>
<trkpt lat="29.844592" lon="92.330575">
<time>2016-10-08T05:24:56Z</time></trkpt>
<trkpt lat="29.843943" lon="92.330066">
<time>2016-10-08T05:24:57Z</time></trkpt>
<trkpt lat="29.843533" lon="92.329757">
<time>2016-10-08T05:24:58Z</time></trkpt>
<trkpt lat="29.843214" lon="92.329507">
<time>2016-10-08T05:24:59Z</time></trkpt>
<trkpt lat="29.842884" lon="92.329198">
<time>2016-10-08T05:25:00Z</time></trkpt>
<trkpt lat="29.842575" lon="92.328888">
<time>2016-10-08T05:25:01Z</time></trkpt>
<trkpt lat="29.842216" lon="92.328529">
<time>2016-10-08T05:25:02Z</time></trkpt>
<trkpt lat="29.841567" lon="92.32789">
<time>2016-10-08T05:25:03Z</time></trkpt>
<trkpt lat="29.841178" lon="92.327511">
<time>2016-10-08T05:25:04Z</time></trkpt>
<trkpt lat="29.840908" lon="92.327242">
<time>2016-10-08T05:25:05Z</time></trkpt>
<trkpt lat="29.840299" lon="92.326633">
<time>2016-10-08T05:25:06Z</time></trkpt>
<trkpt lat="29.839661" lon="92.326014">
<time>2016-10-08T05:25:07Z</time></trkpt>
<trkpt lat="29.839471" lon="92.325785">
<time>2016-10-08T05:25:08Z</time></trkpt>
<trkpt lat="29.839431" lon="92.325735">
<time>2016-10-08T05:25:09Z</time></trkpt>
<trkpt lat="29.839381" lon="92.325685">
<time>2016-10-08T05:25:10Z</time></trkpt>
<trkpt lat="29.839341" lon="92.325635">
<time>2016-10-08T05:25:11Z</time></trkpt>
<trkpt lat="29.839301" lon="92.325575">
<time>2016-10-08T05:25:12Z</time></trkpt>
<trkpt lat="29.839252" lon="92.325525">
<time>2016-10-08T05:25:13Z</time></trkpt>
<trkpt lat="29.839202" lon="92.325465">
<time>2016-10-08T05:25:14Z</time></trkpt>
<trkpt lat="29.839162" lon="92.325415">
<time>2016-10-08T05:25:15Z</time></trkpt>
<trkpt lat="29.839122" lon="92.325365">
<time>2016-10-08T05:25:16Z</time></trkpt>
<trkpt lat="29.839072" lon="92.325306">
<time>2016-10-08T05:25:17Z</time></trkpt>
<trkpt lat="29.839022" lon="92.325246">
<time>2016-10-08T05:25:18Z</time></trkpt>
<trkpt lat="29.838992" lon="92.325206">
<time>2016-10-08T05:25:19Z</time></trkpt>
<trkpt lat="29.838952" lon="92.325156">
<time>2016-10-08T05:25:20Z</time></trkpt>
<trkpt lat="29.838902" lon="92.325096">
<time>2016-10-08T05:25:21Z</time></trkpt>
<trkpt lat="29.838853" lon="92.325036">
<time>2016-10-08T05:25:22Z</time></trkpt>
<trkpt lat="29.838813" lon="92.324986">
<time>2016-10-08T05:25:23Z</time></trkpt>
<trkpt lat="29.838763" lon="92.324926">
<time>2016-10-08T05:25:24Z</time></trkpt>
<trkpt lat="29.838723" lon="92.324866">
<time>2016-10-08T05:25:25Z</time></trkpt>
<trkpt lat="29.838683" lon="92.324816">
<time>2016-10-08T05:25:26Z</time></trkpt>
<trkpt lat="29.838633" lon="92.324757">
<time>2016-10-08T05:25:27Z</time></trkpt>
<trkpt lat="29.838583" lon="92.324697">
<time>2016-10-08T05:25:28Z</time></trkpt>
<trkpt lat="29.838543" lon="92.324647">
<time>2016-10-08T05:25:29Z</time></trkpt>
<trkpt lat="29.838503" lon="92.324597">
<time>2016-10-08T05:25:30Z</time></trkpt>
<trkpt lat="29.838463" lon="92.324547">
<time>2016-10-08T05:25:31Z</time></trkpt>
<trkpt lat="29.838434" lon="92.324507">
<time>2016-10-08T05:25:32Z</time></trkpt>
<trkpt lat="29.838394" lon="92.324467">
<time>2016-10-08T05:25:33Z</time></trkpt>
<trkpt lat="29.838344" lon="92.324417">
<time>2016-10-08T05:25:34Z</time></trkpt>
<trkpt lat="29.838304" lon="92.324377">
<time>2016-10-08T05:25:35Z</time></trkpt>
<trkpt lat="29.838244" lon="92.324327">
<time>2016-10-08T05:25:36Z</time></trkpt>
<trkpt lat="29.838194" lon="92.324298">
<time>2016-10-08T05:25:37Z</time></trkpt>
<trkpt lat="29.838134" lon="92.324268">
<time>2016-10-08T05:25:38Z</time></trkpt>
<trkpt lat="29.838084" lon="92.324248">
<time>2016-10-08T05:25:39Z</time></trkpt>
<trkpt lat="29.838014" lon="92.324228">
<time>2016-10-08T05:25:40Z</time></trkpt>
<trkpt lat="29.837944" lon="92.324218">
<time>2016-10-08T05:25:41Z</time></trkpt>
<trkpt lat="29.837864" lon="92.324208">
<time>2016-10-08T05:25:42Z</time></trkpt>
<trkpt lat="29.837774" lon="92.324218">
<time>2016-10-08T05:25:43Z</time></trkpt>
<trkpt lat="29.837704" lon="92.324228">
<time>2016-10-08T05:25:44Z</time></trkpt>
<trkpt lat="29.837634" lon="92.324258">
<time>2016-10-08T05:25:45Z</time></trkpt>
<trkpt lat="29.837574" lon="92.324288">
<time>2016-10-08T05:25:46Z</time></trkpt>
<trkpt lat="29.837514" lon="92.324327">
<time>2016-10-08T05:25:47Z</time></trkpt>
<trkpt lat="29.837464" lon="92.324357">
<time>2016-10-08T05:25:48Z</time></trkpt>
<trkpt lat="29.837414" lon="92.324407">
<time>2016-10-08T05:25:49Z</time></trkpt>
<trkpt lat="29.837364" lon="92.324467">
<time>2016-10-08T05:25:50Z</time></trkpt>
<trkpt lat="29.837324" lon="92.324527">
<time>2016-10-08T05:25:51Z</time></trkpt>
<trkpt lat="29.837283" lon="92.324587">
<time>2016-10-08T05:25:52Z</time></trkpt>
<trkpt lat="29.837263" lon="92.324627">
<time>2016-10-08T05:25:53Z</time></trkpt>
<trkpt lat="29.837243" lon="92.324687">
<time>2016-10-08T05:25:54Z</time></trkpt>
<trkpt lat="29.837213" lon="92.324767">
<time>2016-10-08T05:25:55Z</time></trkpt>
<trkpt lat="29.837193" lon="92.324846">
<time>2016-10-08T05:25:56Z</time></trkpt>
<trkpt lat="29.837173" lon="92.324936">
<time>2016-10-08T05:25:57Z</time></trkpt>
<trkpt lat="29.837173" lon="92.325036">
<time>2016-10-08T05:25:58Z</time></trkpt>
<trkpt lat="29.837182" lon="92.325116">
<time>2016-10-08T05:25:59Z</time></trkpt>
<trkpt lat="29.837192" lon="92.325196">
<time>2016-10-08T05:26:00Z</time></trkpt>
<trkpt lat="29.837232" lon="92.325365">
<time>2016-10-08T05:26:01Z</time></trkpt>
<trkpt lat="29.837341" lon="92.325695">
<time>2016-10-08T05:26:02Z</time></trkpt>
<trkpt lat="29.837451" lon="92.326034">
<time>2016-10-08T05:26:03Z</time></trkpt>
<trkpt lat="29.83763" lon="92.326583">
<time>2016-10-08T05:26:04Z</time></trkpt>
<trkpt lat="29.837719" lon="92.326853">
<time>2016-10-08T05:26:05Z</time></trkpt>
<trkpt lat="29.837809" lon="92.327072">
<time>2016-10-08T05:26:06Z</time></trkpt>
<trkpt lat="29.837878" lon="92.327232">
<time>2016-10-08T05:26:07Z</time></trkpt>
<trkpt lat="29.838217" lon="92.327851">
<time>2016-10-08T05:26:08Z</time></trkpt>
<trkpt lat="29.838307" lon="92.32803">
<time>2016-10-08T05:26:09Z</time></trkpt>
<trkpt lat="29.838516" lon="92.3284">
<time>2016-10-08T05:26:10Z</time></trkpt>
<trkpt lat="29.838875" lon="92.329038">
<time>2016-10-08T05:26:11Z</time></trkpt>
<trkpt lat="29.839044" lon="92.329358">
<time>2016-10-08T05:26:12Z</time></trkpt>
<trkpt lat="29.839104" lon="92.329447">
<time>2016-10-08T05:26:13Z</time></trkpt>
<trkpt lat="29.839264" lon="92.329717">
<time>2016-10-08T05:26:14Z</time></trkpt>
<trkpt lat="29.839353" lon="92.329867">
<time>2016-10-08T05:26:15Z</time></trkpt>
<trkpt lat="29.839473" lon="92.330106">
<time>2016-10-08T05:26:16Z</time></trkpt>
<trkpt lat="29.839632" lon="92.330426">
<time>2016-10-08T05:26:17Z</time></trkpt>
<trkpt lat="29.840121" lon="92.331184">
<time>2016-10-08T05:26:18Z</time></trkpt>
<trkpt lat="29.84048" lon="92.331713">
<time>2016-10-08T05:26:19Z</time></trkpt>
<trkpt lat="29.840649" lon="92.331983">
<time>2016-10-08T05:26:20Z</time></trkpt>
<trkpt lat="29.840978" lon="92.332402">
<time>2016-10-08T05:26:21Z</time></trkpt>
<trkpt lat="29.841138" lon="92.332591">
<time>2016-10-08T05:26:22Z</time></trkpt>
<trkpt lat="29.841397" lon="92.332911">
<time>2016-10-08T05:26:23Z</time></trkpt>
<trkpt lat="29.841717" lon="92.3333">
<time>2016-10-08T05:26:24Z</time></trkpt>
<trkpt lat="29.841966" lon="92.333599">
<time>2016-10-08T05:26:25Z</time></trkpt>
<trkpt lat="29.842166" lon="92.333799">
<time>2016-10-08T05:26:26Z</time></trkpt>
<trkpt lat="29.842465" lon="92.334068">
<time>2016-10-08T05:26:27Z</time></trkpt>
<trkpt lat="29.842824" lon="92.334398">
<time>2016-10-08T05:26:28Z</time></trkpt>
<trkpt lat="29.843284" lon="92.334817">
<time>2016-10-08T05:26:29Z</time></trkpt>
<trkpt lat="29.843633" lon="92.335136">
<time>2016-10-08T05:26:30Z</time></trkpt>
<trkpt lat="29.843932" lon="92.335376">
<time>2016-10-08T05:26:31Z</time></trkpt>
<trkpt lat="29.844312" lon="92.335645">
<time>2016-10-08T05:26:32Z</time></trkpt>
<trkpt lat="29.844641" lon="92.335885">
<time>2016-10-08T05:26:33Z</time></trkpt>
<trkpt lat="29.845041" lon="92.336154">
<time>2016-10-08T05:26:34Z</time></trkpt>
<trkpt lat="29.845351" lon="92.336324">
<time>2016-10-08T05:26:35Z</time></trkpt>
<trkpt lat="29.84562" lon="92.336464">
<time>2016-10-08T05:26:36Z</time></trkpt>
<trkpt lat="29.84581" lon="92.336564">
<time>2016-10-08T05:26:37Z</time></trkpt>
<trkpt lat="29.84601" lon="92.336653">
<time>2016-10-08T05:26:38Z</time></trkpt>
<trkpt lat="29.84623" lon="92.336763">
<time>2016-10-08T05:26:39Z</time></trkpt>
<trkpt lat="29.8464" lon="92.336843">
<time>2016-10-08T05:26:40Z</time></trkpt>
<trkpt lat="29.846599" lon="92.336933">
<time>2016-10-08T05:26:41Z</time></trkpt>
<trkpt lat="29.846759" lon="92.336993">
<time>2016-10-08T05:26:42Z</time></trkpt>
<trkpt lat="29.846849" lon="92.337043">
<time>2016-10-08T05:26:43Z</time></trkpt>
<trkpt lat="29.846939" lon="92.337083">
<time>2016-10-08T05:26:44Z</time></trkpt>
<trkpt lat="29.847019" lon="92.337113">
<time>2016-10-08T05:26:45Z</time></trkpt>
<trkpt lat="29.847159" lon="92.337182">
<time>2016-10-08T05:26:46Z</time></trkpt>
<trkpt lat="29.847279" lon="92.337222">
<time>2016-10-08T05:26:47Z</time></trkpt>
<trkpt lat="29.847409" lon="92.337292">
<time>2016-10-08T05:26:48Z</time></trkpt>
<trkpt lat="29.847569" lon="92.337362">
<time>2016-10-08T05:26:49Z</time></trkpt>
<trkpt lat="29.847698" lon="92.337412">
<time>2016-10-08T05:26:50Z</time></trkpt>
<trkpt lat="29.847818" lon="92.337472">
<time>2016-10-08T05:26:51Z</time></trkpt>
<trkpt lat="29.847948" lon="92.337542">
<time>2016-10-08T05:26:52Z</time></trkpt>
<trkpt lat="29.848018" lon="92.337582">
<time>2016-10-08T05:26:53Z</time></trkpt>
<trkpt lat="29.848168" lon="92.337671">
<time>2016-10-08T05:26:54Z</time></trkpt>
<trkpt lat="29.848278" lon="92.337751">
<time>2016-10-08T05:26:55Z</time></trkpt>
<trkpt lat="29.848438" lon="92.337881">
<time>2016-10-08T05:26:56Z</time></trkpt>
<trkpt lat="29.848547" lon="92.337971">
<time>2016-10-08T05:26:57Z</time></trkpt>
<trkpt lat="29.848637" lon="92.338051">
<time>2016-10-08T05:26:58Z</time></trkpt>
<trkpt lat="29.848777" lon="92.33818">
<time>2016-10-08T05:26:59Z</time></trkpt>
<trkpt lat="29.848887" lon="92.33828">
<time>2016-10-08T05:27:00Z</time></trkpt>
<trkpt lat="29.848977" lon="92.33838">
<time>2016-10-08T05:27:01Z</time></trkpt>
<trkpt lat="29.849086" lon="92.3385">
<time>2016-10-08T05:27:02Z</time></trkpt>
<trkpt lat="29.849166" lon="92.33861">
<time>2016-10-08T05:27:03Z</time></trkpt>
<trkpt lat="29.849266" lon="92.338739">
<time>2016-10-08T05:27:04Z</time></trkpt>
<trkpt lat="29.849366" lon="92.338929">
<time>2016-10-08T05:27:05Z</time></trkpt>
<trkpt lat="29.849435" lon="92.339079">
<time>2016-10-08T05:27:06Z</time></trkpt>
<trkpt lat="29.849515" lon="92.339248">
<time>2016-10-08T05:27:07Z</time></trkpt>
<trkpt lat="29.849674" lon="92.339658">
<time>2016-10-08T05:27:08Z</time></trkpt>
<trkpt lat="29.849883" lon="92.340217">
<time>2016-10-08T05:27:09Z</time></trkpt>
<trkpt lat="29.850022" lon="92.340576">
<time>2016-10-08T05:27:10Z</time></trkpt>
<trkpt lat="29.850112" lon="92.340885">
<time>2016-10-08T05:27:11Z</time></trkpt>
<trkpt lat="29.850122" lon="92.340905">
<time>2016-10-08T05:27:12Z</time></trkpt>
<trkpt lat="29.850142" lon="92.340995">
<time>2016-10-08T05:27:13Z</time></trkpt>
<trkpt lat="29.850142" lon="92.341055">
<time>2016-10-08T05:27:14Z</time></trkpt>
<trkpt lat="29.850141" lon="92.341105">
<time>2016-10-08T05:27:15Z</time></trkpt>
<trkpt lat="29.850141" lon="92.341165">
<time>2016-10-08T05:27:16Z</time></trkpt>
<trkpt lat="29.850121" lon="92.341225">
<time>2016-10-08T05:27:17Z</time></trkpt>
<trkpt lat="29.850101" lon="92.341285">
<time>2016-10-08T05:27:18Z</time></trkpt>
<trkpt lat="29.850081" lon="92.341344">
<time>2016-10-08T05:27:19Z</time></trkpt>
<trkpt lat="29.850051" lon="92.341404">
<time>2016-10-08T05:27:20Z</time></trkpt>
<trkpt lat="29.850011" lon="92.341464">
<time>2016-10-08T05:27:21Z</time></trkpt>
<trkpt lat="29.849971" lon="92.341514">
<time>2016-10-08T05:27:22Z</time></trkpt>
<trkpt lat="29.849921" lon="92.341574">
<time>2016-10-08T05:27:23Z</time></trkpt>
<trkpt lat="29.84985" lon="92.341644">
<time>2016-10-08T05:27:24Z</time></trkpt>
<trkpt lat="29.84978" lon="92.341694">
<time>2016-10-08T05:27:25Z</time></trkpt>
<trkpt lat="29.84973" lon="92.341724">
<time>2016-10-08T05:27:26Z</time></trkpt>
<trkpt lat="29.84967" lon="92.341744">
<time>2016-10-08T05:27:27Z</time></trkpt>
<trkpt lat="29.8496" lon="92.341774">
<time>2016-10-08T05:27:28Z</time></trkpt>
<trkpt lat="29.84955" lon="92.341794">
<time>2016-10-08T05:27:29Z</time></trkpt>
<trkpt lat="29.84945" lon="92.341804">
<time>2016-10-08T05:27:30Z</time></trkpt>
<trkpt lat="29.84937" lon="92.341804">
<time>2016-10-08T05:27:31Z</time></trkpt>
<trkpt lat="29.84916" lon="92.341814">
<time>2016-10-08T05:27:32Z</time></trkpt>
<trkpt lat="29.84883" lon="92.341824">
<time>2016-10-08T05:27:33Z</time></trkpt>
<trkpt lat="29.84851" lon="92.341834">
<time>2016-10-08T05:27:34Z</time></trkpt>
<trkpt lat="29.84839" lon="92.341844">
<time>2016-10-08T05:27:35Z</time></trkpt>
<trkpt lat="29.84825" lon="92.341854">
<time>2016-10-08T05:27:36Z</time></trkpt>
<trkpt lat="29.84812" lon="92.341873">
<time>2016-10-08T05:27:37Z</time></trkpt>
<trkpt lat="29.84797" lon="92.341893">
<time>2016-10-08T05:27:38Z</time></trkpt>
<trkpt lat="29.84783" lon="92.341913">
<time>2016-10-08T05:27:39Z</time></trkpt>
<trkpt lat="29.84762" lon="92.341943">
<time>2016-10-08T05:27:40Z</time></trkpt>
<trkpt lat="29.84739" lon="92.341973">
<time>2016-10-08T05:27:41Z</time></trkpt>
<trkpt lat="29.84725" lon="92.341993">
<time>2016-10-08T05:27:42Z</time></trkpt>
<trkpt lat="29.84714" lon="92.342013">
<time>2016-10-08T05:27:43Z</time></trkpt>
<trkpt lat="29.84696" lon="92.342073">
<time>2016-10-08T05:27:44Z</time></trkpt>
<trkpt lat="29.84686" lon="92.342113">
<time>2016-10-08T05:27:45Z</time></trkpt>
<trkpt lat="29.84664" lon="92.342213">
<time>2016-10-08T05:27:46Z</time></trkpt>
<trkpt lat="29.846439" lon="92.342313">
<time>2016-10-08T05:27:47Z</time></trkpt>
<trkpt lat="29.846139" lon="92.342462">
<time>2016-10-08T05:27:48Z</time></trkpt>
<trkpt lat="29.845829" lon="92.342602">
<time>2016-10-08T05:27:49Z</time></trkpt>
<trkpt lat="29.845479" lon="92.342772">
<time>2016-10-08T05:27:50Z</time></trkpt>
<trkpt lat="29.845058" lon="92.342991">
<time>2016-10-08T05:27:51Z</time></trkpt>
<trkpt lat="29.844788" lon="92.343121">
<time>2016-10-08T05:27:52Z</time></trkpt>
<trkpt lat="29.844508" lon="92.343251">
<time>2016-10-08T05:27:53Z</time></trkpt>
<trkpt lat="29.844428" lon="92.343291">
<time>2016-10-08T05:27:54Z</time></trkpt>
<trkpt lat="29.844298" lon="92.343321">
<time>2016-10-08T05:27:55Z</time></trkpt>
<trkpt lat="29.844198" lon="92.343331">
<time>2016-10-08T05:27:56Z</time></trkpt>
<trkpt lat="29.844128" lon="92.343341">
<time>2016-10-08T05:27:57Z</time></trkpt>
<trkpt lat="29.843988" lon="92.343341">
<time>2016-10-08T05:27:58Z</time></trkpt>
<trkpt lat="29.843818" lon="92.343321">
<time>2016-10-08T05:27:59Z</time></trkpt>
<trkpt lat="29.843588" lon="92.343291">
<time>2016-10-08T05:28:00Z</time></trkpt>
<trkpt lat="29.843228" lon="92.343241">
<time>2016-10-08T05:28:01Z</time></trkpt>
<trkpt lat="29.842918" lon="92.343201">
<time>2016-10-08T05:28:02Z</time></trkpt>
<trkpt lat="29.842458" lon="92.343131">
<time>2016-10-08T05:28:03Z</time></trkpt>
<trkpt lat="29.842138" lon="92.343091">
<time>2016-10-08T05:28:04Z</time></trkpt>
<trkpt lat="29.841878" lon="92.343051">
<time>2016-10-08T05:28:05Z</time></trkpt>
<trkpt lat="29.841638" lon="92.343021">
<time>2016-10-08T05:28:06Z</time></trkpt>
<trkpt lat="29.841428" lon="92.342992">
<time>2016-10-08T05:28:07Z</time></trkpt>
<trkpt lat="29.841219" lon="92.342982">
<time>2016-10-08T05:28:08Z</time></trkpt>
<trkpt lat="29.840989" lon="92.342982">
<time>2016-10-08T05:28:09Z</time></trkpt>
<trkpt lat="29.840749" lon="92.342992">
<time>2016-10-08T05:28:10Z</time></trkpt>
<trkpt lat="29.840499" lon="92.343002">
<time>2016-10-08T05:28:11Z</time></trkpt>
<trkpt lat="29.840249" lon="92.343012">
<time>2016-10-08T05:28:12Z</time></trkpt>
<trkpt lat="29.839918" lon="92.343031">
<time>2016-10-08T05:28:13Z</time></trkpt>
<trkpt lat="29.839578" lon="92.343081">
<time>2016-10-08T05:28:14Z</time></trkpt>
<trkpt lat="29.839178" lon="92.343131">
<time>2016-10-08T05:28:15Z</time></trkpt>
<trkpt lat="29.838738" lon="92.343201">
<time>2016-10-08T05:28:16Z</time></trkpt>
<trkpt lat="29.838338" lon="92.343271">
<time>2016-10-08T05:28:17Z</time></trkpt>
<trkpt lat="29.837948" lon="92.343321">
<time>2016-10-08T05:28:18Z</time></trkpt>
<trkpt lat="29.837618" lon="92.343381">
<time>2016-10-08T05:28:19Z</time></trkpt>
<trkpt lat="29.837278" lon="92.343431">
<time>2016-10-08T05:28:20Z</time></trkpt>
<trkpt lat="29.836748" lon="92.343511">
<time>2016-10-08T05:28:21Z</time></trkpt>
<trkpt lat="29.836298" lon="92.343551">
<time>2016-10-08T05:28:22Z</time></trkpt>
<trkpt lat="29.835738" lon="92.343571">
<time>2016-10-08T05:28:23Z</time></trkpt>
<trkpt lat="29.835548" lon="92.343571">
<time>2016-10-08T05:28:24Z</time></trkpt>
<trkpt lat="29.835278" lon="92.343581">
<time>2016-10-08T05:28:25Z</time></trkpt>
<trkpt lat="29.834908" lon="92.343611">
<time>2016-10-08T05:28:26Z</time></trkpt>
<trkpt lat="29.834608" lon="92.34364">
<time>2016-10-08T05:28:27Z</time></trkpt>
<trkpt lat="29.834068" lon="92.34371">
<time>2016-10-08T05:28:28Z</time></trkpt>
<trkpt lat="29.833618" lon="92.34377">
<time>2016-10-08T05:28:29Z</time></trkpt>
<trkpt lat="29.833378" lon="92.34379">
<time>2016-10-08T05:28:30Z</time></trkpt>
<trkpt lat="29.833217" lon="92.3438">
<time>2016-10-08T05:28:31Z</time></trkpt>
<trkpt lat="29.832547" lon="92.34382">
<time>2016-10-08T05:28:32Z</time></trkpt>
<trkpt lat="29.831778" lon="92.34384">
<time>2016-10-08T05:28:33Z</time></trkpt>
<trkpt lat="29.831458" lon="92.34384">
<time>2016-10-08T05:28:34Z</time></trkpt>
<trkpt lat="29.831108" lon="92.34382">
<time>2016-10-08T05:28:35Z</time></trkpt>
<trkpt lat="29.830818" lon="92.3438">
<time>2016-10-08T05:28:36Z</time></trkpt>
<trkpt lat="29.830548" lon="92.34378">
<time>2016-10-08T05:28:37Z</time></trkpt>
<trkpt lat="29.829978" lon="92.34369">
<time>2016-10-08T05:28:38Z</time></trkpt>
<trkpt lat="29.829348" lon="92.343601">
<time>2016-10-08T05:28:39Z</time></trkpt>
<trkpt lat="29.828888" lon="92.343531">
<time>2016-10-08T05:28:40Z</time></trkpt>
<trkpt lat="29.828318" lon="92.343451">
<time>2016-10-08T05:28:41Z</time></trkpt>
<trkpt lat="29.828168" lon="92.343441">
<time>2016-10-08T05:28:42Z</time></trkpt>
<trkpt lat="29.828008" lon="92.343431">
<time>2016-10-08T05:28:43Z</time></trkpt>
<trkpt lat="29.827948" lon="92.343431">
<time>2016-10-08T05:28:44Z</time></trkpt>
<trkpt lat="29.827868" lon="92.343441">
<time>2016-10-08T05:28:45Z</time></trkpt>
<trkpt lat="29.827808" lon="92.343461">
<time>2016-10-08T05:28:46Z</time></trkpt>
<trkpt lat="29.827738" lon="92.343481">
<time>2016-10-08T05:28:47Z</time></trkpt>
<trkpt lat="29.827638" lon="92.343541">
<time>2016-10-08T05:28:48Z</time></trkpt>
<trkpt lat="29.827568" lon="92.343591">
<time>2016-10-08T05:28:49Z</time></trkpt>
<trkpt lat="29.827528" lon="92.343621">
<time>2016-10-08T05:28:50Z</time></trkpt>
<trkpt lat="29.827488" lon="92.343651">
<time>2016-10-08T05:28:51Z</time></trkpt>
<trkpt lat="29.827448" lon="92.343681">
<time>2016-10-08T05:28:52Z</time></trkpt>
<trkpt lat="29.827398" lon="92.34373">
<time>2016-10-08T05:28:53Z</time></trkpt>
<trkpt lat="29.827348" lon="92.34379">
<time>2016-10-08T05:28:54Z</time></trkpt>
<trkpt lat="29.827298" lon="92.34387">
<time>2016-10-08T05:28:55Z</time></trkpt>
<trkpt lat="29.827248" lon="92.34396">
<time>2016-10-08T05:28:56Z</time></trkpt>
<trkpt lat="29.827197" lon="92.3441">
<time>2016-10-08T05:28:57Z</time></trkpt>
<trkpt lat="29.827147" lon="92.344249">
<time>2016-10-08T05:28:58Z</time></trkpt>
<trkpt lat="29.827077" lon="92.344519">
<time>2016-10-08T05:28:59Z</time></trkpt>
<trkpt lat="29.826976" lon="92.344898">
<time>2016-10-08T05:29:00Z</time></trkpt>
<trkpt lat="29.826623" lon="92.346296">
<time>2016-10-08T05:29:01Z</time></trkpt>
<trkpt lat="29.826362" lon="92.347344">
<time>2016-10-08T05:29:02Z</time></trkpt>
<trkpt lat="29.826261" lon="92.347723">
<time>2016-10-08T05:29:03Z</time></trkpt>
<trkpt lat="29.82616" lon="92.348023">
<time>2016-10-08T05:29:04Z</time></trkpt>
<trkpt lat="29.82603" lon="92.348302">
<time>2016-10-08T05:29:05Z</time></trkpt>
<trkpt lat="29.825869" lon="92.348612">
<time>2016-10-08T05:29:06Z</time></trkpt>
<trkpt lat="29.825197" lon="92.34983">
<time>2016-10-08T05:29:07Z</time></trkpt>
<trkpt lat="29.825087" lon="92.350049">
<time>2016-10-08T05:29:08Z</time></trkpt>
<trkpt lat="29.825027" lon="92.350249">
<time>2016-10-08T05:29:09Z</time></trkpt>
<trkpt lat="29.824987" lon="92.350349">
<time>2016-10-08T05:29:10Z</time></trkpt>
<trkpt lat="29.824966" lon="92.350458">
<time>2016-10-08T05:29:11Z</time></trkpt>
<trkpt lat="29.824936" lon="92.350598">
<time>2016-10-08T05:29:12Z</time></trkpt>
<trkpt lat="29.824936" lon="92.350728">
<time>2016-10-08T05:29:13Z</time></trkpt>
<trkpt lat="29.824955" lon="92.351357">
<time>2016-10-08T05:29:14Z</time></trkpt>
<trkpt lat="29.825004" lon="92.351726">
<time>2016-10-08T05:29:15Z</time></trkpt>
<trkpt lat="29.825024" lon="92.351866">
<time>2016-10-08T05:29:16Z</time></trkpt>
<trkpt lat="29.825044" lon="92.351966">
<time>2016-10-08T05:29:17Z</time></trkpt>
<trkpt lat="29.825083" lon="92.352146">
<time>2016-10-08T05:29:18Z</time></trkpt>
<trkpt lat="29.825133" lon="92.352325">
<time>2016-10-08T05:29:19Z</time></trkpt>
<trkpt lat="29.825243" lon="92.352705">
<time>2016-10-08T05:29:20Z</time></trkpt>
<trkpt lat="29.825451" lon="92.353433">
<time>2016-10-08T05:29:21Z</time></trkpt>
<trkpt lat="29.825601" lon="92.353933">
<time>2016-10-08T05:29:22Z</time></trkpt>
<trkpt lat="29.82571" lon="92.354362">
<time>2016-10-08T05:29:23Z</time></trkpt>
<trkpt lat="29.825789" lon="92.354781">
<time>2016-10-08T05:29:24Z</time></trkpt>
<trkpt lat="29.825868" lon="92.35521">
<time>2016-10-08T05:29:25Z</time></trkpt>
<trkpt lat="29.825947" lon="92.355839">
<time>2016-10-08T05:29:26Z</time></trkpt>
<trkpt lat="29.826016" lon="92.356438">
<time>2016-10-08T05:29:27Z</time></trkpt>
<trkpt lat="29.826036" lon="92.356698">
<time>2016-10-08T05:29:28Z</time></trkpt>
<trkpt lat="29.826056" lon="92.356958">
<time>2016-10-08T05:29:29Z</time></trkpt>
<trkpt lat="29.826055" lon="92.357147">
<time>2016-10-08T05:29:30Z</time></trkpt>
<trkpt lat="29.826055" lon="92.357317">
<time>2016-10-08T05:29:31Z</time></trkpt>
<trkpt lat="29.826015" lon="92.357527">
<time>2016-10-08T05:29:32Z</time></trkpt>
<trkpt lat="29.825974" lon="92.357696">
<time>2016-10-08T05:29:33Z</time></trkpt>
<trkpt lat="29.825914" lon="92.357906">
<time>2016-10-08T05:29:34Z</time></trkpt>
<trkpt lat="29.825834" lon="92.358126">
<time>2016-10-08T05:29:35Z</time></trkpt>
<trkpt lat="29.825452" lon="92.359094">
<time>2016-10-08T05:29:36Z</time></trkpt>
<trkpt lat="29.825332" lon="92.359384">
<time>2016-10-08T05:29:37Z</time></trkpt>
<trkpt lat="29.825232" lon="92.359673">
<time>2016-10-08T05:29:38Z</time></trkpt>
<trkpt lat="29.825121" lon="92.360023">
<time>2016-10-08T05:29:39Z</time></trkpt>
<trkpt lat="29.82502" lon="92.360462">
<time>2016-10-08T05:29:40Z</time></trkpt>
<trkpt lat="29.824839" lon="92.361251">
<time>2016-10-08T05:29:41Z</time></trkpt>
<trkpt lat="29.824759" lon="92.361541">
<time>2016-10-08T05:29:42Z</time></trkpt>
<trkpt lat="29.824668" lon="92.36185">
<time>2016-10-08T05:29:43Z</time></trkpt>
<trkpt lat="29.824578" lon="92.36211">
<time>2016-10-08T05:29:44Z</time></trkpt>
<trkpt lat="29.824458" lon="92.362369">
<time>2016-10-08T05:29:45Z</time></trkpt>
<trkpt lat="29.824337" lon="92.362609">
<time>2016-10-08T05:29:46Z</time></trkpt>
<trkpt lat="29.823806" lon="92.363508">
<time>2016-10-08T05:29:47Z</time></trkpt>
<trkpt lat="29.823335" lon="92.364367">
<time>2016-10-08T05:29:48Z</time></trkpt>
<trkpt lat="29.822854" lon="92.365196">
<time>2016-10-08T05:29:49Z</time></trkpt>
<trkpt lat="29.822623" lon="92.365605">
<time>2016-10-08T05:29:50Z</time></trkpt>
<trkpt lat="29.822132" lon="92.366454">
<time>2016-10-08T05:29:51Z</time></trkpt>
<trkpt lat="29.822032" lon="92.366634">
<time>2016-10-08T05:29:52Z</time></trkpt>
<trkpt lat="29.821942" lon="92.366744">
<time>2016-10-08T05:29:53Z</time></trkpt>
<trkpt lat="29.821842" lon="92.366843">
<time>2016-10-08T05:29:54Z</time></trkpt>
<trkpt lat="29.821742" lon="92.366913">
<time>2016-10-08T05:29:55Z</time></trkpt>
<trkpt lat="29.821612" lon="92.366983">
<time>2016-10-08T05:29:56Z</time></trkpt>
<trkpt lat="29.821541" lon="92.367003">
<time>2016-10-08T05:29:57Z</time></trkpt>
<trkpt lat="29.821451" lon="92.367033">
<time>2016-10-08T05:29:58Z</time></trkpt>
<trkpt lat="29.821351" lon="92.367043">
<time>2016-10-08T05:29:59Z</time></trkpt>
<trkpt lat="29.821271" lon="92.367043">
<time>2016-10-08T05:30:00Z</time></trkpt>
<trkpt lat="29.821171" lon="92.367033">
<time>2016-10-08T05:30:01Z</time></trkpt>
<trkpt lat="29.821042" lon="92.367003">
<time>2016-10-08T05:30:02Z</time></trkpt>
<trkpt lat="29.820722" lon="92.366903">
<time>2016-10-08T05:30:03Z</time></trkpt>
<trkpt lat="29.820592" lon="92.366853">
<time>2016-10-08T05:30:04Z</time></trkpt>
<trkpt lat="29.820482" lon="92.366813">
<time>2016-10-08T05:30:05Z</time></trkpt>
<trkpt lat="29.820412" lon="92.366764">
<time>2016-10-08T05:30:06Z</time></trkpt>
<trkpt lat="29.820372" lon="92.366744">
<time>2016-10-08T05:30:07Z</time></trkpt>
<trkpt lat="29.820332" lon="92.366704">
<time>2016-10-08T05:30:08Z</time></trkpt>
<trkpt lat="29.820302" lon="92.366664">
<time>2016-10-08T05:30:09Z</time></trkpt>
<trkpt lat="29.820262" lon="92.366604">
<time>2016-10-08T05:30:10Z</time></trkpt>
<trkpt lat="29.820232" lon="92.366534">
<time>2016-10-08T05:30:11Z</time></trkpt>
<trkpt lat="29.820192" lon="92.366404">
<time>2016-10-08T05:30:12Z</time></trkpt>
<trkpt lat="29.820192" lon="92.366324">
<time>2016-10-08T05:30:13Z</time></trkpt>
<trkpt lat="29.820183" lon="92.366214">
<time>2016-10-08T05:30:14Z</time></trkpt>
<trkpt lat="29.820213" lon="92.365905">
<time>2016-10-08T05:30:15Z</time></trkpt>
<trkpt lat="29.820294" lon="92.365176">
<time>2016-10-08T05:30:16Z</time></trkpt>
<trkpt lat="29.820345" lon="92.364576">
<time>2016-10-08T05:30:17Z</time></trkpt>
<trkpt lat="29.820365" lon="92.364347">
<time>2016-10-08T05:30:18Z</time></trkpt>
<trkpt lat="29.820385" lon="92.364167">
<time>2016-10-08T05:30:19Z</time></trkpt>
<trkpt lat="29.820426" lon="92.363857">
<time>2016-10-08T05:30:20Z</time></trkpt>
<trkpt lat="29.820446" lon="92.363628">
<time>2016-10-08T05:30:21Z</time></trkpt>
<trkpt lat="29.820456" lon="92.363588">
<time>2016-10-08T05:30:22Z</time></trkpt>
<trkpt lat="29.820456" lon="92.363548">
<time>2016-10-08T05:30:23Z</time></trkpt>
<trkpt lat="29.820456" lon="92.363498">
<time>2016-10-08T05:30:24Z</time></trkpt>
<trkpt lat="29.820446" lon="92.363458">
<time>2016-10-08T05:30:25Z</time></trkpt>
<trkpt lat="29.820426" lon="92.363378">
<time>2016-10-08T05:30:26Z</time></trkpt>
<trkpt lat="29.820417" lon="92.363348">
<time>2016-10-08T05:30:27Z</time></trkpt>
<trkpt lat="29.820407" lon="92.363298">
<time>2016-10-08T05:30:28Z</time></trkpt>
<trkpt lat="29.820397" lon="92.363228">
<time>2016-10-08T05:30:29Z</time></trkpt>
<trkpt lat="29.820357" lon="92.363079">
<time>2016-10-08T05:30:30Z</time></trkpt>
<trkpt lat="29.820297" lon="92.362929">
<time>2016-10-08T05:30:31Z</time></trkpt>
<trkpt lat="29.820237" lon="92.362779">
<time>2016-10-08T05:30:32Z</time></trkpt>
<trkpt lat="29.820207" lon="92.362689">
<time>2016-10-08T05:30:33Z</time></trkpt>
<trkpt lat="29.820168" lon="92.362609">
<time>2016-10-08T05:30:34Z</time></trkpt>
<trkpt lat="29.820098" lon="92.362509">
<time>2016-10-08T05:30:35Z</time></trkpt>
<trkpt lat="29.820008" lon="92.36236">
<time>2016-10-08T05:30:36Z</time></trkpt>
<trkpt lat="29.819928" lon="92.36226">
<time>2016-10-08T05:30:37Z</time></trkpt>
<trkpt lat="29.819848" lon="92.36216">
<time>2016-10-08T05:30:38Z</time></trkpt>
<trkpt lat="29.819699" lon="92.3619">
<time>2016-10-08T05:30:39Z</time></trkpt>
<trkpt lat="29.819429" lon="92.361461">
<time>2016-10-08T05:30:40Z</time></trkpt>
<trkpt lat="29.81904" lon="92.360852">
<time>2016-10-08T05:30:41Z</time></trkpt>
<trkpt lat="29.818831" lon="92.360542">
<time>2016-10-08T05:30:42Z</time></trkpt>
<trkpt lat="29.818751" lon="92.360442">
<time>2016-10-08T05:30:43Z</time></trkpt>
<trkpt lat="29.818641" lon="92.360313">
<time>2016-10-08T05:30:44Z</time></trkpt>
<trkpt lat="29.818352" lon="92.359993">
<time>2016-10-08T05:30:45Z</time></trkpt>
<trkpt lat="29.817902" lon="92.359504">
<time>2016-10-08T05:30:46Z</time></trkpt>
<trkpt lat="29.817473" lon="92.359035">
<time>2016-10-08T05:30:47Z</time></trkpt>
<trkpt lat="29.817253" lon="92.358805">
<time>2016-10-08T05:30:48Z</time></trkpt>
<trkpt lat="29.816944" lon="92.358455">
<time>2016-10-08T05:30:49Z</time></trkpt>
<trkpt lat="29.816814" lon="92.358306">
<time>2016-10-08T05:30:50Z</time></trkpt>
<trkpt lat="29.816694" lon="92.358156">
<time>2016-10-08T05:30:51Z</time></trkpt>
<trkpt lat="29.816525" lon="92.357916">
<time>2016-10-08T05:30:52Z</time></trkpt>
<trkpt lat="29.816335" lon="92.357657">
<time>2016-10-08T05:30:53Z</time></trkpt>
<trkpt lat="29.816265" lon="92.357547">
<time>2016-10-08T05:30:54Z</time></trkpt>
<trkpt lat="29.816176" lon="92.357417">
<time>2016-10-08T05:30:55Z</time></trkpt>
<trkpt lat="29.815637" lon="92.356529">
<time>2016-10-08T05:30:56Z</time></trkpt>
<trkpt lat="29.814989" lon="92.35548">
<time>2016-10-08T05:30:57Z</time></trkpt>
<trkpt lat="29.81457" lon="92.354781">
<time>2016-10-08T05:30:58Z</time></trkpt>
<trkpt lat="29.814261" lon="92.354282">
<time>2016-10-08T05:30:59Z</time></trkpt>
<trkpt lat="29.814101" lon="92.354073">
<time>2016-10-08T05:31:00Z</time></trkpt>
<trkpt lat="29.814001" lon="92.353953">
<time>2016-10-08T05:31:01Z</time></trkpt>
<trkpt lat="29.813852" lon="92.353823">
<time>2016-10-08T05:31:02Z</time></trkpt>
<trkpt lat="29.813702" lon="92.353713">
<time>2016-10-08T05:31:03Z</time></trkpt>
<trkpt lat="29.813462" lon="92.353573">
<time>2016-10-08T05:31:04Z</time></trkpt>
<trkpt lat="29.813002" lon="92.353314">
<time>2016-10-08T05:31:05Z</time></trkpt>
<trkpt lat="29.812563" lon="92.353044">
<time>2016-10-08T05:31:06Z</time></trkpt>
<trkpt lat="29.812273" lon="92.352875">
<time>2016-10-08T05:31:07Z</time></trkpt>
<trkpt lat="29.811814" lon="92.352575">
<time>2016-10-08T05:31:08Z</time></trkpt>
<trkpt lat="29.811174" lon="92.352146">
<time>2016-10-08T05:31:09Z</time></trkpt>
<trkpt lat="29.810965" lon="92.351996">
<time>2016-10-08T05:31:10Z</time></trkpt>
<trkpt lat="29.810775" lon="92.351876">
<time>2016-10-08T05:31:11Z</time></trkpt>
<trkpt lat="29.810505" lon="92.351697">
<time>2016-10-08T05:31:12Z</time></trkpt>
<trkpt lat="29.810325" lon="92.351587">
<time>2016-10-08T05:31:13Z</time></trkpt>
<trkpt lat="29.810066" lon="92.351447">
<time>2016-10-08T05:31:14Z</time></trkpt>
<trkpt lat="29.809286" lon="92.351088">
<time>2016-10-08T05:31:15Z</time></trkpt>
<trkpt lat="29.808697" lon="92.350838">
<time>2016-10-08T05:31:16Z</time></trkpt>
<trkpt lat="29.807938" lon="92.350509">
<time>2016-10-08T05:31:17Z</time></trkpt>
<trkpt lat="29.807598" lon="92.350359">
<time>2016-10-08T05:31:18Z</time></trkpt>
<trkpt lat="29.807478" lon="92.350309">
<time>2016-10-08T05:31:19Z</time></trkpt>
<trkpt lat="29.807248" lon="92.350219">
<time>2016-10-08T05:31:20Z</time></trkpt>
<trkpt lat="29.806918" lon="92.350069">
<time>2016-10-08T05:31:21Z</time></trkpt>
<trkpt lat="29.806459" lon="92.34987">
<time>2016-10-08T05:31:22Z</time></trkpt>
<trkpt lat="29.806159" lon="92.34974">
<time>2016-10-08T05:31:23Z</time></trkpt>
<trkpt lat="29.805999" lon="92.34967">
<time>2016-10-08T05:31:24Z</time></trkpt>
<trkpt lat="29.805509" lon="92.349471">
<time>2016-10-08T05:31:25Z</time></trkpt>
<trkpt lat="29.80502" lon="92.349241">
<time>2016-10-08T05:31:26Z</time></trkpt>
<trkpt lat="29.80486" lon="92.349161">
<time>2016-10-08T05:31:27Z</time></trkpt>
<trkpt lat="29.80471" lon="92.349091">
<time>2016-10-08T05:31:28Z</time></trkpt>
<trkpt lat="29.8046" lon="92.349041">
<time>2016-10-08T05:31:29Z</time></trkpt>
<trkpt lat="29.8045" lon="92.348981">
<time>2016-10-08T05:31:30Z</time></trkpt>
<trkpt lat="29.804361" lon="92.348882">
<time>2016-10-08T05:31:31Z</time></trkpt>
<trkpt lat="29.804231" lon="92.348782">
<time>2016-10-08T05:31:32Z</time></trkpt>
<trkpt lat="29.804151" lon="92.348702">
<time>2016-10-08T05:31:33Z</time></trkpt>
<trkpt lat="29.804071" lon="92.348602">
<time>2016-10-08T05:31:34Z</time></trkpt>
<trkpt lat="29.803981" lon="92.348482">
<time>2016-10-08T05:31:35Z</time></trkpt>
<trkpt lat="29.803862" lon="92.348323">
<time>2016-10-08T05:31:36Z</time></trkpt>
<trkpt lat="29.803652" lon="92.348073">
<time>2016-10-08T05:31:37Z</time></trkpt>
<trkpt lat="29.803433" lon="92.347823">
<time>2016-10-08T05:31:38Z</time></trkpt>
<trkpt lat="29.803293" lon="92.347654">
<time>2016-10-08T05:31:39Z</time></trkpt>
<trkpt lat="29.802774" lon="92.346995">
<time>2016-10-08T05:31:40Z</time></trkpt>
<trkpt lat="29.802674" lon="92.346875">
<time>2016-10-08T05:31:41Z</time></trkpt>
<trkpt lat="29.802165" lon="92.346206">
<time>2016-10-08T05:31:42Z</time></trkpt>
<trkpt lat="29.801667" lon="92.345588">
<time>2016-10-08T05:31:43Z</time></trkpt>
<trkpt lat="29.801268" lon="92.345078">
<time>2016-10-08T05:31:44Z</time></trkpt>
<trkpt lat="29.800898" lon="92.344599">
<time>2016-10-08T05:31:45Z</time></trkpt>
<trkpt lat="29.800729" lon="92.34436">
<time>2016-10-08T05:31:46Z</time></trkpt>
<trkpt lat="29.80037" lon="92.343861">
<time>2016-10-08T05:31:47Z</time></trkpt>
<trkpt lat="29.799981" lon="92.343252">
<time>2016-10-08T05:31:48Z</time></trkpt>
<trkpt lat="29.799612" lon="92.342683">
<time>2016-10-08T05:31:49Z</time></trkpt>
<trkpt lat="29.799243" lon="92.342114">
<time>2016-10-08T05:31:50Z</time></trkpt>
<trkpt lat="29.798914" lon="92.341585">
<time>2016-10-08T05:31:51Z</time></trkpt>
<trkpt lat="29.798416" lon="92.340776">
<time>2016-10-08T05:31:52Z</time></trkpt>
<trkpt lat="29.798306" lon="92.340607">
<time>2016-10-08T05:31:53Z</time></trkpt>
<trkpt lat="29.797997" lon="92.340128">
<time>2016-10-08T05:31:54Z</time></trkpt>
<trkpt lat="29.797917" lon="92.340028">
<time>2016-10-08T05:31:55Z</time></trkpt>
<trkpt lat="29.797837" lon="92.339928">
<time>2016-10-08T05:31:56Z</time></trkpt>
<trkpt lat="29.797767" lon="92.339858">
<time>2016-10-08T05:31:57Z</time></trkpt>
<trkpt lat="29.797707" lon="92.339788">
<time>2016-10-08T05:31:58Z</time></trkpt>
<trkpt lat="29.797638" lon="92.339748">
<time>2016-10-08T05:31:59Z</time></trkpt>
<trkpt lat="29.797578" lon="92.339708">
<time>2016-10-08T05:32:00Z</time></trkpt>
<trkpt lat="29.797518" lon="92.339679">
<time>2016-10-08T05:32:01Z</time></trkpt>
<trkpt lat="29.797448" lon="92.339659">
<time>2016-10-08T05:32:02Z</time></trkpt>
<trkpt lat="29.797388" lon="92.339639">
<time>2016-10-08T05:32:03Z</time></trkpt>
<trkpt lat="29.797328" lon="92.339629">
<time>2016-10-08T05:32:04Z</time></trkpt>
<trkpt lat="29.797198" lon="92.339609">
<time>2016-10-08T05:32:05Z</time></trkpt>
<trkpt lat="29.796908" lon="92.339579">
<time>2016-10-08T05:32:06Z</time></trkpt>
<trkpt lat="29.796708" lon="92.339569">
<time>2016-10-08T05:32:07Z</time></trkpt>
<trkpt lat="29.796178" lon="92.339539">
<time>2016-10-08T05:32:08Z</time></trkpt>
<trkpt lat="29.795808" lon="92.339519">
<time>2016-10-08T05:32:09Z</time></trkpt>
<trkpt lat="29.795478" lon="92.339499">
<time>2016-10-08T05:32:10Z</time></trkpt>
<trkpt lat="29.795368" lon="92.339479">
<time>2016-10-08T05:32:11Z</time></trkpt>
<trkpt lat="29.795298" lon="92.339469">
<time>2016-10-08T05:32:12Z</time></trkpt>
<trkpt lat="29.795238" lon="92.339459">
<time>2016-10-08T05:32:13Z</time></trkpt>
<trkpt lat="29.795178" lon="92.339439">
<time>2016-10-08T05:32:14Z</time></trkpt>
<trkpt lat="29.795138" lon="92.339419">
<time>2016-10-08T05:32:15Z</time></trkpt>
<trkpt lat="29.794979" lon="92.339349">
<time>2016-10-08T05:32:16Z</time></trkpt>
<trkpt lat="29.794819" lon="92.339249">
<time>2016-10-08T05:32:17Z</time></trkpt>
<trkpt lat="29.794619" lon="92.33915">
<time>2016-10-08T05:32:18Z</time></trkpt>
<trkpt lat="29.794519" lon="92.3391">
<time>2016-10-08T05:32:19Z</time></trkpt>
<trkpt lat="29.794359" lon="92.33902">
<time>2016-10-08T05:32:20Z</time></trkpt>
<trkpt lat="29.79398" lon="92.33881">
<time>2016-10-08T05:32:21Z</time></trkpt>
<trkpt lat="29.79389" lon="92.33877">
<time>2016-10-08T05:32:22Z</time></trkpt>
<trkpt lat="29.7938" lon="92.33873">
<time>2016-10-08T05:32:23Z</time></trkpt>
<trkpt lat="29.79362" lon="92.338671">
<time>2016-10-08T05:32:24Z</time></trkpt>
<trkpt lat="29.79343" lon="92.338621">
<time>2016-10-08T05:32:25Z</time></trkpt>
<trkpt lat="29.79333" lon="92.338601">
<time>2016-10-08T05:32:26Z</time></trkpt>
<trkpt lat="29.79297" lon="92.338561">
<time>2016-10-08T05:32:27Z</time></trkpt>
<trkpt lat="29.79267" lon="92.338531">
<time>2016-10-08T05:32:28Z</time></trkpt>
<trkpt lat="29.7924" lon="92.338501">
<time>2016-10-08T05:32:29Z</time></trkpt>
<trkpt lat="29.79221" lon="92.338481">
<time>2016-10-08T05:32:30Z</time></trkpt>
<trkpt lat="29.792041" lon="92.338451">
<time>2016-10-08T05:32:31Z</time></trkpt>
<trkpt lat="29.791681" lon="92.338421">
<time>2016-10-08T05:32:32Z</time></trkpt>
<trkpt lat="29.791431" lon="92.338391">
<time>2016-10-08T05:32:33Z</time></trkpt>
<trkpt lat="29.791001" lon="92.338341">
<time>2016-10-08T05:32:34Z</time></trkpt>
<trkpt lat="29.790861" lon="92.338321">
<time>2016-10-08T05:32:35Z</time></trkpt>
<trkpt lat="29.790651" lon="92.338291">
<time>2016-10-08T05:32:36Z</time></trkpt>
<trkpt lat="29.790451" lon="92.338251">
<time>2016-10-08T05:32:37Z</time></trkpt>
<trkpt lat="29.790331" lon="92.338221">
<time>2016-10-08T05:32:38Z</time></trkpt>
<trkpt lat="29.790241" lon="92.338182">
<time>2016-10-08T05:32:39Z</time></trkpt>
<trkpt lat="29.790031" lon="92.338092">
<time>2016-10-08T05:32:40Z</time></trkpt>
<trkpt lat="29.789882" lon="92.338022">
<time>2016-10-08T05:32:41Z</time></trkpt>
<trkpt lat="29.789802" lon="92.337972">
<time>2016-10-08T05:32:42Z</time></trkpt>
<trkpt lat="29.789722" lon="92.337912">
<time>2016-10-08T05:32:43Z</time></trkpt>
<trkpt lat="29.789612" lon="92.337832">
<time>2016-10-08T05:32:44Z</time></trkpt>
<trkpt lat="29.789482" lon="92.337722">
<time>2016-10-08T05:32:45Z</time></trkpt>
<trkpt lat="29.789352" lon="92.337593">
<time>2016-10-08T05:32:46Z</time></trkpt>
<trkpt lat="29.789093" lon="92.337333">
<time>2016-10-08T05:32:47Z</time></trkpt>
<trkpt lat="29.788833" lon="92.337084">
<time>2016-10-08T05:32:48Z</time></trkpt>
<trkpt lat="29.788474" lon="92.336724">
<time>2016-10-08T05:32:49Z</time></trkpt>
<trkpt lat="29.787955" lon="92.336205">
<time>2016-10-08T05:32:50Z</time></trkpt>
<trkpt lat="29.787696" lon="92.335956">
<time>2016-10-08T05:32:51Z</time></trkpt>
<trkpt lat="29.787286" lon="92.335557">
<time>2016-10-08T05:32:52Z</time></trkpt>
<trkpt lat="29.787107" lon="92.335377">
<time>2016-10-08T05:32:53Z</time></trkpt>
<trkpt lat="29.786907" lon="92.335197">
<time>2016-10-08T05:32:54Z</time></trkpt>
<trkpt lat="29.786797" lon="92.335107">
<time>2016-10-08T05:32:55Z</time></trkpt>
<trkpt lat="29.786677" lon="92.335018">
<time>2016-10-08T05:32:56Z</time></trkpt>
<trkpt lat="29.786458" lon="92.334868">
<time>2016-10-08T05:32:57Z</time></trkpt>
<trkpt lat="29.786258" lon="92.334748">
<time>2016-10-08T05:32:58Z</time></trkpt>
<trkpt lat="29.785888" lon="92.334529">
<time>2016-10-08T05:32:59Z</time></trkpt>
<trkpt lat="29.785719" lon="92.334439">
<time>2016-10-08T05:33:00Z</time></trkpt>
<trkpt lat="29.785399" lon="92.334249">
<time>2016-10-08T05:33:01Z</time></trkpt>
<trkpt lat="29.785179" lon="92.334119">
<time>2016-10-08T05:33:02Z</time></trkpt>
<trkpt lat="29.78494" lon="92.33398">
<time>2016-10-08T05:33:03Z</time></trkpt>
<trkpt lat="29.78481" lon="92.3339">
<time>2016-10-08T05:33:04Z</time></trkpt>
<trkpt lat="29.78456" lon="92.33375">
<time>2016-10-08T05:33:05Z</time></trkpt>
<trkpt lat="29.78425" lon="92.33357">
<time>2016-10-08T05:33:06Z</time></trkpt>
<trkpt lat="29.783901" lon="92.333371">
<time>2016-10-08T05:33:07Z</time></trkpt>
<trkpt lat="29.783681" lon="92.333241">
<time>2016-10-08T05:33:08Z</time></trkpt>
<trkpt lat="29.783302" lon="92.333022">
<time>2016-10-08T05:33:09Z</time></trkpt>
<trkpt lat="29.783072" lon="92.332882">
<time>2016-10-08T05:33:10Z</time></trkpt>
<trkpt lat="29.782922" lon="92.332782">
<time>2016-10-08T05:33:11Z</time></trkpt>
<trkpt lat="29.782822" lon="92.332722">
<time>2016-10-08T05:33:12Z</time></trkpt>
<trkpt lat="29.782732" lon="92.332662">
<time>2016-10-08T05:33:13Z</time></trkpt>
<trkpt lat="29.782662" lon="92.332592">
<time>2016-10-08T05:33:14Z</time></trkpt>
<trkpt lat="29.782603" lon="92.332533">
<time>2016-10-08T05:33:15Z</time></trkpt>
<trkpt lat="29.782513" lon="92.332433">
<time>2016-10-08T05:33:16Z</time></trkpt>
<trkpt lat="29.782393" lon="92.332293">
<time>2016-10-08T05:33:17Z</time></trkpt>
<trkpt lat="29.782223" lon="92.332083">
<time>2016-10-08T05:33:18Z</time></trkpt>
<trkpt lat="29.782044" lon="92.331884">
<time>2016-10-08T05:33:19Z</time></trkpt>
<trkpt lat="29.781635" lon="92.331385">
<time>2016-10-08T05:33:20Z</time></trkpt>
<trkpt lat="29.781336" lon="92.331025">
<time>2016-10-08T05:33:21Z</time></trkpt>
<trkpt lat="29.781186" lon="92.330836">
<time>2016-10-08T05:33:22Z</time></trkpt>
<trkpt lat="29.781076" lon="92.330706">
<time>2016-10-08T05:33:23Z</time></trkpt>
<trkpt lat="29.780907" lon="92.330497">
<time>2016-10-08T05:33:24Z</time></trkpt>
<trkpt lat="29.780797" lon="92.330387">
<time>2016-10-08T05:33:25Z</time></trkpt>
<trkpt lat="29.780677" lon="92.330267">
<time>2016-10-08T05:33:26Z</time></trkpt>
<trkpt lat="29.780597" lon="92.330197">
<time>2016-10-08T05:33:27Z</time></trkpt>
<trkpt lat="29.780517" lon="92.330137">
<time>2016-10-08T05:33:28Z</time></trkpt>
<trkpt lat="29.780447" lon="92.330087">
<time>2016-10-08T05:33:29Z</time></trkpt>
<trkpt lat="29.780358" lon="92.330037">
<time>2016-10-08T05:33:30Z</time></trkpt>
<trkpt lat="29.780168" lon="92.329948">
<time>2016-10-08T05:33:31Z</time></trkpt>
<trkpt lat="29.779998" lon="92.329878">
<time>2016-10-08T05:33:32Z</time></trkpt>
<trkpt lat="29.779848" lon="92.329828">
<time>2016-10-08T05:33:33Z</time></trkpt>
<trkpt lat="29.779308" lon="92.329638">
<time>2016-10-08T05:33:34Z</time></trkpt>
<trkpt lat="29.779149" lon="92.329568">
<time>2016-10-08T05:33:35Z</time></trkpt>
<trkpt lat="29.778599" lon="92.329369">
<time>2016-10-08T05:33:36Z</time></trkpt>
<trkpt lat="29.778219" lon="92.329209">
<time>2016-10-08T05:33:37Z</time></trkpt>
<trkpt lat="29.7778" lon="92.328999">
<time>2016-10-08T05:33:38Z</time></trkpt>
<trkpt lat="29.77757" lon="92.32889">
<time>2016-10-08T05:33:39Z</time></trkpt>
<trkpt lat="29.776821" lon="92.32849">
<time>2016-10-08T05:33:40Z</time></trkpt>
<trkpt lat="29.776631" lon="92.328391">
<time>2016-10-08T05:33:41Z</time></trkpt>
<trkpt lat="29.775982" lon="92.328051">
<time>2016-10-08T05:33:42Z</time></trkpt>
<trkpt lat="29.775522" lon="92.327812">
<time>2016-10-08T05:33:43Z</time></trkpt>
<trkpt lat="29.774903" lon="92.327482">
<time>2016-10-08T05:33:44Z</time></trkpt>
<trkpt lat="29.774334" lon="92.327183">
<time>2016-10-08T05:33:45Z</time></trkpt>
<trkpt lat="29.773854" lon="92.326934">
<time>2016-10-08T05:33:46Z</time></trkpt>
<trkpt lat="29.773555" lon="92.326774">
<time>2016-10-08T05:33:47Z</time></trkpt>
<trkpt lat="29.773265" lon="92.326624">
<time>2016-10-08T05:33:48Z</time></trkpt>
<trkpt lat="29.773025" lon="92.326494">
<time>2016-10-08T05:33:49Z</time></trkpt>
<trkpt lat="29.772845" lon="92.326415">
<time>2016-10-08T05:33:50Z</time></trkpt>
<trkpt lat="29.772705" lon="92.326375">
<time>2016-10-08T05:33:51Z</time></trkpt>
<trkpt lat="29.772566" lon="92.326335">
<time>2016-10-08T05:33:52Z</time></trkpt>
<trkpt lat="29.772476" lon="92.326315">
<time>2016-10-08T05:33:53Z</time></trkpt>
<trkpt lat="29.772336" lon="92.326285">
<time>2016-10-08T05:33:54Z</time></trkpt>
<trkpt lat="29.772056" lon="92.326245">
<time>2016-10-08T05:33:55Z</time></trkpt>
<trkpt lat="29.771796" lon="92.326205">
<time>2016-10-08T05:33:56Z</time></trkpt>
<trkpt lat="29.771326" lon="92.326135">
<time>2016-10-08T05:33:57Z</time></trkpt>
<trkpt lat="29.771116" lon="92.326105">
<time>2016-10-08T05:33:58Z</time></trkpt>
<trkpt lat="29.771016" lon="92.326075">
<time>2016-10-08T05:33:59Z</time></trkpt>
<trkpt lat="29.770936" lon="92.326055">
<time>2016-10-08T05:34:00Z</time></trkpt>
<trkpt lat="29.770856" lon="92.326025">
<time>2016-10-08T05:34:01Z</time></trkpt>
<trkpt lat="29.770786" lon="92.325995">
<time>2016-10-08T05:34:02Z</time></trkpt>
<trkpt lat="29.770627" lon="92.325926">
<time>2016-10-08T05:34:03Z</time></trkpt>
<trkpt lat="29.770487" lon="92.325846">
<time>2016-10-08T05:34:04Z</time></trkpt>
<trkpt lat="29.770387" lon="92.325786">
<time>2016-10-08T05:34:05Z</time></trkpt>
<trkpt lat="29.770277" lon="92.325706">
<time>2016-10-08T05:34:06Z</time></trkpt>
<trkpt lat="29.770177" lon="92.325636">
<time>2016-10-08T05:34:07Z</time></trkpt>
<trkpt lat="29.770087" lon="92.325546">
<time>2016-10-08T05:34:08Z</time></trkpt>
<trkpt lat="29.769948" lon="92.325417">
<time>2016-10-08T05:34:09Z</time></trkpt>
<trkpt lat="29.769898" lon="92.325357">
<time>2016-10-08T05:34:10Z</time></trkpt>
<trkpt lat="29.769818" lon="92.325257">
<time>2016-10-08T05:34:11Z</time></trkpt>
<trkpt lat="29.769419" lon="92.324778">
<time>2016-10-08T05:34:12Z</time></trkpt>
<trkpt lat="29.769159" lon="92.324458">
<time>2016-10-08T05:34:13Z</time></trkpt>
<trkpt lat="29.76881" lon="92.324029">
<time>2016-10-08T05:34:14Z</time></trkpt>
<trkpt lat="29.768322" lon="92.32346">
<time>2016-10-08T05:34:15Z</time></trkpt>
<trkpt lat="29.768162" lon="92.323251">
<time>2016-10-08T05:34:16Z</time></trkpt>
<trkpt lat="29.767603" lon="92.322592">
<time>2016-10-08T05:34:17Z</time></trkpt>
<trkpt lat="29.767184" lon="92.322093">
<time>2016-10-08T05:34:18Z</time></trkpt>
<trkpt lat="29.766775" lon="92.321604">
<time>2016-10-08T05:34:19Z</time></trkpt>
<trkpt lat="29.766596" lon="92.321384">
<time>2016-10-08T05:34:20Z</time></trkpt>
<trkpt lat="29.766406" lon="92.321155">
<time>2016-10-08T05:34:21Z</time></trkpt>
<trkpt lat="29.766237" lon="92.320945">
<time>2016-10-08T05:34:22Z</time></trkpt>
<trkpt lat="29.766067" lon="92.320766">
<time>2016-10-08T05:34:23Z</time></trkpt>
<trkpt lat="29.765987" lon="92.320686">
<time>2016-10-08T05:34:24Z</time></trkpt>
<trkpt lat="29.765887" lon="92.320596">
<time>2016-10-08T05:34:25Z</time></trkpt>
<trkpt lat="29.765747" lon="92.320476">
<time>2016-10-08T05:34:26Z</time></trkpt>
<trkpt lat="29.765558" lon="92.320366">
<time>2016-10-08T05:34:27Z</time></trkpt>
<trkpt lat="29.765368" lon="92.320267">
<time>2016-10-08T05:34:28Z</time></trkpt>
<trkpt lat="29.765128" lon="92.320157">
<time>2016-10-08T05:34:29Z</time></trkpt>
<trkpt lat="29.764798" lon="92.320037">
<time>2016-10-08T05:34:30Z</time></trkpt>
<trkpt lat="29.764299" lon="92.319867">
<time>2016-10-08T05:34:31Z</time></trkpt>
<trkpt lat="29.764059" lon="92.319788">
<time>2016-10-08T05:34:32Z</time></trkpt>
<trkpt lat="29.763579" lon="92.319628">
<time>2016-10-08T05:34:33Z</time></trkpt>
<trkpt lat="29.76327" lon="92.319518">
<time>2016-10-08T05:34:34Z</time></trkpt>
<trkpt lat="29.76302" lon="92.319428">
<time>2016-10-08T05:34:35Z</time></trkpt>
<trkpt lat="29.7628" lon="92.319348">
<time>2016-10-08T05:34:36Z</time></trkpt>
<trkpt lat="29.76257" lon="92.319259">
<time>2016-10-08T05:34:37Z</time></trkpt>
<trkpt lat="29.76241" lon="92.319189">
<time>2016-10-08T05:34:38Z</time></trkpt>
<trkpt lat="29.76227" lon="92.319119">
<time>2016-10-08T05:34:39Z</time></trkpt>
<trkpt lat="29.762101" lon="92.319019">
<time>2016-10-08T05:34:40Z</time></trkpt>
<trkpt lat="29.761791" lon="92.318819">
<time>2016-10-08T05:34:41Z</time></trkpt>
<trkpt lat="29.761412" lon="92.31855">
<time>2016-10-08T05:34:42Z</time></trkpt>
<trkpt lat="29.761102" lon="92.31833">
<time>2016-10-08T05:34:43Z</time></trkpt>
<trkpt lat="29.760533" lon="92.317941">
<time>2016-10-08T05:34:44Z</time></trkpt>
<trkpt lat="29.760283" lon="92.317761">
<time>2016-10-08T05:34:45Z</time></trkpt>
<trkpt lat="29.760004" lon="92.317572">
<time>2016-10-08T05:34:46Z</time></trkpt>
<trkpt lat="29.759814" lon="92.317442">
<time>2016-10-08T05:34:47Z</time></trkpt>
<trkpt lat="29.759524" lon="92.317242">
<time>2016-10-08T05:34:48Z</time></trkpt>
<trkpt lat="29.759424" lon="92.317173">
<time>2016-10-08T05:34:49Z</time></trkpt>
<trkpt lat="29.758995" lon="92.316873">
<time>2016-10-08T05:34:50Z</time></trkpt>
<trkpt lat="29.758466" lon="92.316504">
<time>2016-10-08T05:34:51Z</time></trkpt>
<trkpt lat="29.757687" lon="92.315955">
<time>2016-10-08T05:34:52Z</time></trkpt>
<trkpt lat="29.756539" lon="92.315156">
<time>2016-10-08T05:34:53Z</time></trkpt>
<trkpt lat="29.756269" lon="92.314967">
<time>2016-10-08T05:34:54Z</time></trkpt>
<trkpt lat="29.756169" lon="92.314897">
<time>2016-10-08T05:34:55Z</time></trkpt>
<trkpt lat="29.756029" lon="92.314817">
<time>2016-10-08T05:34:56Z</time></trkpt>
<trkpt lat="29.755909" lon="92.314757">
<time>2016-10-08T05:34:57Z</time></trkpt>
<trkpt lat="29.75581" lon="92.314727">
<time>2016-10-08T05:34:58Z</time></trkpt>
<trkpt lat="29.75575" lon="92.314707">
<time>2016-10-08T05:34:59Z</time></trkpt>
<trkpt lat="29.75569" lon="92.314697">
<time>2016-10-08T05:35:00Z</time></trkpt>
<trkpt lat="29.7556" lon="92.314687">
<time>2016-10-08T05:35:01Z</time></trkpt>
<trkpt lat="29.75549" lon="92.314687">
<time>2016-10-08T05:35:02Z</time></trkpt>
<trkpt lat="29.75536" lon="92.314697">
<time>2016-10-08T05:35:03Z</time></trkpt>
<trkpt lat="29.75504" lon="92.314727">
<time>2016-10-08T05:35:04Z</time></trkpt>
<trkpt lat="29.75436" lon="92.314797">
<time>2016-10-08T05:35:05Z</time></trkpt>
<trkpt lat="29.75363" lon="92.314867">
<time>2016-10-08T05:35:06Z</time></trkpt>
<trkpt lat="29.75349" lon="92.314887">
<time>2016-10-08T05:35:07Z</time></trkpt>
<trkpt lat="29.75335" lon="92.314897">
<time>2016-10-08T05:35:08Z</time></trkpt>
<trkpt lat="29.75327" lon="92.314897">
<time>2016-10-08T05:35:09Z</time></trkpt>
<trkpt lat="29.75315" lon="92.314907">
<time>2016-10-08T05:35:10Z</time></trkpt>
<trkpt lat="29.75299" lon="92.314917">
<time>2016-10-08T05:35:11Z</time></trkpt>
<trkpt lat="29.75275" lon="92.314937">
<time>2016-10-08T05:35:12Z</time></trkpt>
<trkpt lat="29.75264" lon="92.314947">
<time>2016-10-08T05:35:13Z</time></trkpt>
<trkpt lat="29.75254" lon="92.314937">
<time>2016-10-08T05:35:14Z</time></trkpt>
<trkpt lat="29.75242" lon="92.314937">
<time>2016-10-08T05:35:15Z</time></trkpt>
<trkpt lat="29.75232" lon="92.314917">
<time>2016-10-08T05:35:16Z</time></trkpt>
<trkpt lat="29.75222" lon="92.314897">
<time>2016-10-08T05:35:17Z</time></trkpt>
<trkpt lat="29.75209" lon="92.314857">
<time>2016-10-08T05:35:18Z</time></trkpt>
<trkpt lat="29.75194" lon="92.314797">
<time>2016-10-08T05:35:19Z</time></trkpt>
<trkpt lat="29.75176" lon="92.314707">
<time>2016-10-08T05:35:20Z</time></trkpt>
<trkpt lat="29.75159" lon="92.314608">
<time>2016-10-08T05:35:21Z</time></trkpt>
<trkpt lat="29.75146" lon="92.314518">
<time>2016-10-08T05:35:22Z</time></trkpt>
<trkpt lat="29.751121" lon="92.314288">
<time>2016-10-08T05:35:23Z</time></trkpt>
<trkpt lat="29.750821" lon="92.314089">
<time>2016-10-08T05:35:24Z</time></trkpt>
<trkpt lat="29.750692" lon="92.313999">
<time>2016-10-08T05:35:25Z</time></trkpt>
<trkpt lat="29.750332" lon="92.313769">
<time>2016-10-08T05:35:26Z</time></trkpt>
<trkpt lat="29.750192" lon="92.313689">
<time>2016-10-08T05:35:27Z</time></trkpt>
<trkpt lat="29.750042" lon="92.313609">
<time>2016-10-08T05:35:28Z</time></trkpt>
<trkpt lat="29.749942" lon="92.313569">
<time>2016-10-08T05:35:29Z</time></trkpt>
<trkpt lat="29.749813" lon="92.31352">
<time>2016-10-08T05:35:30Z</time></trkpt>
<trkpt lat="29.749613" lon="92.31346">
<time>2016-10-08T05:35:31Z</time></trkpt>
<trkpt lat="29.749493" lon="92.31342">
<time>2016-10-08T05:35:32Z</time></trkpt>
<trkpt lat="29.749213" lon="92.31334">
<time>2016-10-08T05:35:33Z</time></trkpt>
<trkpt lat="29.748913" lon="92.31324">
<time>2016-10-08T05:35:34Z</time></trkpt>
<trkpt lat="29.748613" lon="92.31315">
<time>2016-10-08T05:35:35Z</time></trkpt>
<trkpt lat="29.748354" lon="92.31308">
<time>2016-10-08T05:35:36Z</time></trkpt>
<trkpt lat="29.747874" lon="92.312941">
<time>2016-10-08T05:35:37Z</time></trkpt>
<trkpt lat="29.747444" lon="92.312821">
<time>2016-10-08T05:35:38Z</time></trkpt>
<trkpt lat="29.747044" lon="92.312701">
<time>2016-10-08T05:35:39Z</time></trkpt>
<trkpt lat="29.746665" lon="92.312581">
<time>2016-10-08T05:35:40Z</time></trkpt>
<trkpt lat="29.746355" lon="92.312492">
<time>2016-10-08T05:35:41Z</time></trkpt>
<trkpt lat="29.746215" lon="92.312442">
<time>2016-10-08T05:35:42Z</time></trkpt>
<trkpt lat="29.746095" lon="92.312402">
<time>2016-10-08T05:35:43Z</time></trkpt>
<trkpt lat="29.745885" lon="92.312312">
<time>2016-10-08T05:35:44Z</time></trkpt>
<trkpt lat="29.745556" lon="92.312122">
<time>2016-10-08T05:35:45Z</time></trkpt>
<trkpt lat="29.745196" lon="92.311913">
<time>2016-10-08T05:35:46Z</time></trkpt>
<trkpt lat="29.744817" lon="92.311683">
<time>2016-10-08T05:35:47Z</time></trkpt>
<trkpt lat="29.744477" lon="92.311473">
<time>2016-10-08T05:35:48Z</time></trkpt>
<trkpt lat="29.744197" lon="92.311294">
<time>2016-10-08T05:35:49Z</time></trkpt>
<trkpt lat="29.743848" lon="92.311084">
<time>2016-10-08T05:35:50Z</time></trkpt>
<trkpt lat="29.743568" lon="92.310914">
<time>2016-10-08T05:35:51Z</time></trkpt>
<trkpt lat="29.743298" lon="92.310765">
<time>2016-10-08T05:35:52Z</time></trkpt>
<trkpt lat="29.743209" lon="92.310715">
<time>2016-10-08T05:35:53Z</time></trkpt>
<trkpt lat="29.743139" lon="92.310685">
<time>2016-10-08T05:35:54Z</time></trkpt>
<trkpt lat="29.743019" lon="92.310645">
<time>2016-10-08T05:35:55Z</time></trkpt>
<trkpt lat="29.742919" lon="92.310615">
<time>2016-10-08T05:35:56Z</time></trkpt>
<trkpt lat="29.742789" lon="92.310585">
<time>2016-10-08T05:35:57Z</time></trkpt>
<trkpt lat="29.742629" lon="92.310575">
<time>2016-10-08T05:35:58Z</time></trkpt>
<trkpt lat="29.742299" lon="92.310545">
<time>2016-10-08T05:35:59Z</time></trkpt>
<trkpt lat="29.741979" lon="92.310525">
<time>2016-10-08T05:36:00Z</time></trkpt>
<trkpt lat="29.741659" lon="92.310515">
<time>2016-10-08T05:36:01Z</time></trkpt>
<trkpt lat="29.741169" lon="92.310485">
<time>2016-10-08T05:36:02Z</time></trkpt>
<trkpt lat="29.740859" lon="92.310465">
<time>2016-10-08T05:36:03Z</time></trkpt>
<trkpt lat="29.740579" lon="92.310445">
<time>2016-10-08T05:36:04Z</time></trkpt>
<trkpt lat="29.73987" lon="92.310395">
<time>2016-10-08T05:36:05Z</time></trkpt>
<trkpt lat="29.73976" lon="92.310385">
<time>2016-10-08T05:36:06Z</time></trkpt>
<trkpt lat="29.73959" lon="92.310366">
<time>2016-10-08T05:36:07Z</time></trkpt>
<trkpt lat="29.73951" lon="92.310356">
<time>2016-10-08T05:36:08Z</time></trkpt>
<trkpt lat="29.73942" lon="92.310326">
<time>2016-10-08T05:36:09Z</time></trkpt>
<trkpt lat="29.73928" lon="92.310286">
<time>2016-10-08T05:36:10Z</time></trkpt>
<trkpt lat="29.73917" lon="92.310236">
<time>2016-10-08T05:36:11Z</time></trkpt>
<trkpt lat="29.73902" lon="92.310156">
<time>2016-10-08T05:36:12Z</time></trkpt>
<trkpt lat="29.73893" lon="92.310116">
<time>2016-10-08T05:36:13Z</time></trkpt>
<trkpt lat="29.7388" lon="92.310046">
<time>2016-10-08T05:36:14Z</time></trkpt>
<trkpt lat="29.738631" lon="92.309946">
<time>2016-10-08T05:36:15Z</time></trkpt>
<trkpt lat="29.738051" lon="92.309577">
<time>2016-10-08T05:36:16Z</time></trkpt>
<trkpt lat="29.737432" lon="92.309198">
<time>2016-10-08T05:36:17Z</time></trkpt>
<trkpt lat="29.737023" lon="92.308958">
<time>2016-10-08T05:36:18Z</time></trkpt>
<trkpt lat="29.736523" lon="92.308649">
<time>2016-10-08T05:36:19Z</time></trkpt>
<trkpt lat="29.736214" lon="92.308469">
<time>2016-10-08T05:36:20Z</time></trkpt>
<trkpt lat="29.735764" lon="92.308189">
<time>2016-10-08T05:36:21Z</time></trkpt>
<trkpt lat="29.735425" lon="92.30801">
<time>2016-10-08T05:36:22Z</time></trkpt>
<trkpt lat="29.735025" lon="92.30781">
<time>2016-10-08T05:36:23Z</time></trkpt>
<trkpt lat="29.734735" lon="92.30767">
<time>2016-10-08T05:36:24Z</time></trkpt>
<trkpt lat="29.734206" lon="92.307451">
<time>2016-10-08T05:36:25Z</time></trkpt>
<trkpt lat="29.733796" lon="92.307281">
<time>2016-10-08T05:36:26Z</time></trkpt>
<trkpt lat="29.733366" lon="92.307111">
<time>2016-10-08T05:36:27Z</time></trkpt>
<trkpt lat="29.733007" lon="92.306962">
<time>2016-10-08T05:36:28Z</time></trkpt>
<trkpt lat="29.732777" lon="92.306882">
<time>2016-10-08T05:36:29Z</time></trkpt>
<trkpt lat="29.732487" lon="92.306822">
<time>2016-10-08T05:36:30Z</time></trkpt>
<trkpt lat="29.732157" lon="92.306762">
<time>2016-10-08T05:36:31Z</time></trkpt>
<trkpt lat="29.731867" lon="92.306712">
<time>2016-10-08T05:36:32Z</time></trkpt>
<trkpt lat="29.731577" lon="92.306662">
<time>2016-10-08T05:36:33Z</time></trkpt>
<trkpt lat="29.731308" lon="92.306612">
<time>2016-10-08T05:36:34Z</time></trkpt>
<trkpt lat="29.730708" lon="92.306522">
<time>2016-10-08T05:36:35Z</time></trkpt>
<trkpt lat="29.730408" lon="92.306473">
<time>2016-10-08T05:36:36Z</time></trkpt>
<trkpt lat="29.730118" lon="92.306433">
<time>2016-10-08T05:36:37Z</time></trkpt>
<trkpt lat="29.729948" lon="92.306403">
<time>2016-10-08T05:36:38Z</time></trkpt>
<trkpt lat="29.729768" lon="92.306363">
<time>2016-10-08T05:36:39Z</time></trkpt>
<trkpt lat="29.729608" lon="92.306333">
<time>2016-10-08T05:36:40Z</time></trkpt>
<trkpt lat="29.729428" lon="92.306283">
<time>2016-10-08T05:36:41Z</time></trkpt>
<trkpt lat="29.729249" lon="92.306223">
<time>2016-10-08T05:36:42Z</time></trkpt>
<trkpt lat="29.729129" lon="92.306183">
<time>2016-10-08T05:36:43Z</time></trkpt>
<trkpt lat="29.728849" lon="92.306083">
<time>2016-10-08T05:36:44Z</time></trkpt>
<trkpt lat="29.728469" lon="92.305953">
<time>2016-10-08T05:36:45Z</time></trkpt>
<trkpt lat="29.72802" lon="92.305794">
<time>2016-10-08T05:36:46Z</time></trkpt>
<trkpt lat="29.72767" lon="92.305664">
<time>2016-10-08T05:36:47Z</time></trkpt>
<trkpt lat="29.72715" lon="92.305494">
<time>2016-10-08T05:36:48Z</time></trkpt>
<trkpt lat="29.72702" lon="92.305444">
<time>2016-10-08T05:36:49Z</time></trkpt>
<trkpt lat="29.72685" lon="92.305394">
<time>2016-10-08T05:36:50Z</time></trkpt>
<trkpt lat="29.72674" lon="92.305374">
<time>2016-10-08T05:36:51Z</time></trkpt>
<trkpt lat="29.72664" lon="92.305355">
<time>2016-10-08T05:36:52Z</time></trkpt>
<trkpt lat="29.726501" lon="92.305335">
<time>2016-10-08T05:36:53Z</time></trkpt>
<trkpt lat="29.726311" lon="92.305325">
<time>2016-10-08T05:36:54Z</time></trkpt>
<trkpt lat="29.726011" lon="92.305315">
<time>2016-10-08T05:36:55Z</time></trkpt>
<trkpt lat="29.725761" lon="92.305315">
<time>2016-10-08T05:36:56Z</time></trkpt>
<trkpt lat="29.725471" lon="92.305305">
<time>2016-10-08T05:36:57Z</time></trkpt>
<trkpt lat="29.725291" lon="92.305305">
<time>2016-10-08T05:36:58Z</time></trkpt>
<trkpt lat="29.725151" lon="92.305295">
<time>2016-10-08T05:36:59Z</time></trkpt>
<trkpt lat="29.725061" lon="92.305285">
<time>2016-10-08T05:37:00Z</time></trkpt>
<trkpt lat="29.724971" lon="92.305275">
<time>2016-10-08T05:37:01Z</time></trkpt>
<trkpt lat="29.724901" lon="92.305255">
<time>2016-10-08T05:37:02Z</time></trkpt>
<trkpt lat="29.724811" lon="92.305225">
<time>2016-10-08T05:37:03Z</time></trkpt>
<trkpt lat="29.724741" lon="92.305185">
<time>2016-10-08T05:37:04Z</time></trkpt>
<trkpt lat="29.724651" lon="92.305135">
<time>2016-10-08T05:37:05Z</time></trkpt>
<trkpt lat="29.724541" lon="92.305065">
<time>2016-10-08T05:37:06Z</time></trkpt>
<trkpt lat="29.724282" lon="92.304885">
<time>2016-10-08T05:37:07Z</time></trkpt>
<trkpt lat="29.723942" lon="92.304636">
<time>2016-10-08T05:37:08Z</time></trkpt>
<trkpt lat="29.723663" lon="92.304436">
<time>2016-10-08T05:37:09Z</time></trkpt>
<trkpt lat="29.723383" lon="92.304236">
<time>2016-10-08T05:37:10Z</time></trkpt>
<trkpt lat="29.723073" lon="92.304017">
<time>2016-10-08T05:37:11Z</time></trkpt>
<trkpt lat="29.722714" lon="92.303757">
<time>2016-10-08T05:37:12Z</time></trkpt>
<trkpt lat="29.722304" lon="92.303468">
<time>2016-10-08T05:37:13Z</time></trkpt>
<trkpt lat="29.721975" lon="92.303228">
<time>2016-10-08T05:37:14Z</time></trkpt>
<trkpt lat="29.721675" lon="92.303009">
<time>2016-10-08T05:37:15Z</time></trkpt>
<trkpt lat="29.721316" lon="92.302759">
<time>2016-10-08T05:37:16Z</time></trkpt>
<trkpt lat="29.720906" lon="92.302469">
<time>2016-10-08T05:37:17Z</time></trkpt>
<trkpt lat="29.720757" lon="92.30237">
<time>2016-10-08T05:37:18Z</time></trkpt>
<trkpt lat="29.720587" lon="92.30223">
<time>2016-10-08T05:37:19Z</time></trkpt>
<trkpt lat="29.720327" lon="92.30204">
<time>2016-10-08T05:37:20Z</time></trkpt>
<trkpt lat="29.720117" lon="92.3019">
<time>2016-10-08T05:37:21Z</time></trkpt>
<trkpt lat="29.719968" lon="92.301811">
<time>2016-10-08T05:37:22Z</time></trkpt>
<trkpt lat="29.719868" lon="92.301771">
<time>2016-10-08T05:37:23Z</time></trkpt>
<trkpt lat="29.719768" lon="92.301741">
<time>2016-10-08T05:37:24Z</time></trkpt>
<trkpt lat="29.719668" lon="92.301731">
<time>2016-10-08T05:37:25Z</time></trkpt>
<trkpt lat="29.719458" lon="92.301721">
<time>2016-10-08T05:37:26Z</time></trkpt>
<trkpt lat="29.719198" lon="92.301731">
<time>2016-10-08T05:37:27Z</time></trkpt>
<trkpt lat="29.718958" lon="92.301741">
<time>2016-10-08T05:37:28Z</time></trkpt>
<trkpt lat="29.718738" lon="92.301741">
<time>2016-10-08T05:37:29Z</time></trkpt>
<trkpt lat="29.718438" lon="92.301761">
<time>2016-10-08T05:37:30Z</time></trkpt>
<trkpt lat="29.718108" lon="92.301771">
<time>2016-10-08T05:37:31Z</time></trkpt>
<trkpt lat="29.717768" lon="92.301771">
<time>2016-10-08T05:37:32Z</time></trkpt>
<trkpt lat="29.717108" lon="92.301791">
<time>2016-10-08T05:37:33Z</time></trkpt>
<trkpt lat="29.716738" lon="92.301811">
<time>2016-10-08T05:37:34Z</time></trkpt>
<trkpt lat="29.716388" lon="92.301821">
<time>2016-10-08T05:37:35Z</time></trkpt>
<trkpt lat="29.716218" lon="92.301821">
<time>2016-10-08T05:37:36Z</time></trkpt>
<trkpt lat="29.716018" lon="92.301821">
<time>2016-10-08T05:37:37Z</time></trkpt>
<trkpt lat="29.715908" lon="92.301801">
<time>2016-10-08T05:37:38Z</time></trkpt>
<trkpt lat="29.715688" lon="92.301761">
<time>2016-10-08T05:37:39Z</time></trkpt>
<trkpt lat="29.715488" lon="92.301711">
<time>2016-10-08T05:37:40Z</time></trkpt>
<trkpt lat="29.715259" lon="92.301641">
<time>2016-10-08T05:37:41Z</time></trkpt>
<trkpt lat="29.714919" lon="92.301541">
<time>2016-10-08T05:37:42Z</time></trkpt>
<trkpt lat="29.714399" lon="92.301371">
<time>2016-10-08T05:37:43Z</time></trkpt>
<trkpt lat="29.7139" lon="92.301212">
<time>2016-10-08T05:37:44Z</time></trkpt>
<trkpt lat="29.71351" lon="92.301092">
<time>2016-10-08T05:37:45Z</time></trkpt>
<trkpt lat="29.71314" lon="92.300972">
<time>2016-10-08T05:37:46Z</time></trkpt>
<trkpt lat="29.71272" lon="92.300822">
<time>2016-10-08T05:37:47Z</time></trkpt>
<trkpt lat="29.712381" lon="92.300683">
<time>2016-10-08T05:37:48Z</time></trkpt>
<trkpt lat="29.712151" lon="92.300573">
<time>2016-10-08T05:37:49Z</time></trkpt>
<trkpt lat="29.711861" lon="92.300413">
<time>2016-10-08T05:37:50Z</time></trkpt>
<trkpt lat="29.711611" lon="92.300293">
<time>2016-10-08T05:37:51Z</time></trkpt>
<trkpt lat="29.711442" lon="92.300213">
<time>2016-10-08T05:37:52Z</time></trkpt>
<trkpt lat="29.711132" lon="92.300093">
<time>2016-10-08T05:37:53Z</time></trkpt>
<trkpt lat="29.710672" lon="92.299914">
<time>2016-10-08T05:37:54Z</time></trkpt>
<trkpt lat="29.710353" lon="92.299784">
<time>2016-10-08T05:37:55Z</time></trkpt>
<trkpt lat="29.710103" lon="92.299694">
<time>2016-10-08T05:37:56Z</time></trkpt>
<trkpt lat="29.709813" lon="92.299584">
<time>2016-10-08T05:37:57Z</time></trkpt>
<trkpt lat="29.709443" lon="92.299474">
<time>2016-10-08T05:37:58Z</time></trkpt>
<trkpt lat="29.709033" lon="92.299365">
<time>2016-10-08T05:37:59Z</time></trkpt>
<trkpt lat="29.708604" lon="92.299255">
<time>2016-10-08T05:38:00Z</time></trkpt>
<trkpt lat="29.708244" lon="92.299155">
<time>2016-10-08T05:38:01Z</time></trkpt>
<trkpt lat="29.707474" lon="92.298955">
<time>2016-10-08T05:38:02Z</time></trkpt>
<trkpt lat="29.707005" lon="92.298846">
<time>2016-10-08T05:38:03Z</time></trkpt>
<trkpt lat="29.706345" lon="92.298676">
<time>2016-10-08T05:38:04Z</time></trkpt>
<trkpt lat="29.705825" lon="92.298556">
<time>2016-10-08T05:38:05Z</time></trkpt>
<trkpt lat="29.705016" lon="92.298356">
<time>2016-10-08T05:38:06Z</time></trkpt>
<trkpt lat="29.704666" lon="92.298286">
<time>2016-10-08T05:38:07Z</time></trkpt>
<trkpt lat="29.704326" lon="92.298207">
<time>2016-10-08T05:38:08Z</time></trkpt>
<trkpt lat="29.703746" lon="92.298067">
<time>2016-10-08T05:38:09Z</time></trkpt>
<trkpt lat="29.703127" lon="92.297927">
<time>2016-10-08T05:38:10Z</time></trkpt>
<trkpt lat="29.702737" lon="92.297837">
<time>2016-10-08T05:38:11Z</time></trkpt>
<trkpt lat="29.702117" lon="92.297687">
<time>2016-10-08T05:38:12Z</time></trkpt>
<trkpt lat="29.701798" lon="92.297617">
<time>2016-10-08T05:38:13Z</time></trkpt>
<trkpt lat="29.701378" lon="92.297508">
<time>2016-10-08T05:38:14Z</time></trkpt>
<trkpt lat="29.701118" lon="92.297418">
<time>2016-10-08T05:38:15Z</time></trkpt>
<trkpt lat="29.700838" lon="92.297298">
<time>2016-10-08T05:38:16Z</time></trkpt>
<trkpt lat="29.700618" lon="92.297178">
<time>2016-10-08T05:38:17Z</time></trkpt>
<trkpt lat="29.700319" lon="92.297018">
<time>2016-10-08T05:38:18Z</time></trkpt>
<trkpt lat="29.700029" lon="92.296849">
<time>2016-10-08T05:38:19Z</time></trkpt>
<trkpt lat="29.699719" lon="92.296669">
<time>2016-10-08T05:38:20Z</time></trkpt>
<trkpt lat="29.69908" lon="92.2963">
<time>2016-10-08T05:38:21Z</time></trkpt>
<trkpt lat="29.698681" lon="92.29608">
<time>2016-10-08T05:38:22Z</time></trkpt>
<trkpt lat="29.697891" lon="92.295621">
<time>2016-10-08T05:38:23Z</time></trkpt>
<trkpt lat="29.697532" lon="92.295411">
<time>2016-10-08T05:38:24Z</time></trkpt>
<trkpt lat="29.697182" lon="92.295221">
<time>2016-10-08T05:38:25Z</time></trkpt>
<trkpt lat="29.696593" lon="92.294892">
<time>2016-10-08T05:38:26Z</time></trkpt>
<trkpt lat="29.696143" lon="92.294632">
<time>2016-10-08T05:38:27Z</time></trkpt>
<trkpt lat="29.695744" lon="92.294402">
<time>2016-10-08T05:38:28Z</time></trkpt>
<trkpt lat="29.695434" lon="92.294233">
<time>2016-10-08T05:38:29Z</time></trkpt>
<trkpt lat="29.694765" lon="92.293843">
<time>2016-10-08T05:38:30Z</time></trkpt>
<trkpt lat="29.694575" lon="92.293733">
<time>2016-10-08T05:38:31Z</time></trkpt>
<trkpt lat="29.694405" lon="92.293633">
<time>2016-10-08T05:38:32Z</time></trkpt>
<trkpt lat="29.694175" lon="92.293474">
<time>2016-10-08T05:38:33Z</time></trkpt>
<trkpt lat="29.693996" lon="92.293324">
<time>2016-10-08T05:38:34Z</time></trkpt>
<trkpt lat="29.693806" lon="92.293134">
<time>2016-10-08T05:38:35Z</time></trkpt>
<trkpt lat="29.693606" lon="92.292895">
<time>2016-10-08T05:38:36Z</time></trkpt>
<trkpt lat="29.693477" lon="92.292705">
<time>2016-10-08T05:38:37Z</time></trkpt>
<trkpt lat="29.693137" lon="92.292196">
<time>2016-10-08T05:38:38Z</time></trkpt>
<trkpt lat="29.692958" lon="92.291856">
<time>2016-10-08T05:38:39Z</time></trkpt>
<trkpt lat="29.692669" lon="92.291407">
<time>2016-10-08T05:38:40Z</time></trkpt>
<trkpt lat="29.69209" lon="92.290458">
<time>2016-10-08T05:38:41Z</time></trkpt>
<trkpt lat="29.691482" lon="92.289469">
<time>2016-10-08T05:38:42Z</time></trkpt>
<trkpt lat="29.690963" lon="92.28865">
<time>2016-10-08T05:38:43Z</time></trkpt>
<trkpt lat="29.690444" lon="92.287791">
<time>2016-10-08T05:38:44Z</time></trkpt>
<trkpt lat="29.690304" lon="92.287562">
<time>2016-10-08T05:38:45Z</time></trkpt>
<trkpt lat="29.690055" lon="92.287142">
<time>2016-10-08T05:38:46Z</time></trkpt>
<trkpt lat="29.689955" lon="92.286942">
<time>2016-10-08T05:38:47Z</time></trkpt>
<trkpt lat="29.689856" lon="92.286743">
<time>2016-10-08T05:38:48Z</time></trkpt>
<trkpt lat="29.689786" lon="92.286553">
<time>2016-10-08T05:38:49Z</time></trkpt>
<trkpt lat="29.689706" lon="92.286363">
<time>2016-10-08T05:38:50Z</time></trkpt>
<trkpt lat="29.689597" lon="92.285984">
<time>2016-10-08T05:38:51Z</time></trkpt>
<trkpt lat="29.689537" lon="92.285704">
<time>2016-10-08T05:38:52Z</time></trkpt>
<trkpt lat="29.689477" lon="92.285394">
<time>2016-10-08T05:38:53Z</time></trkpt>
<trkpt lat="29.689438" lon="92.285125">
<time>2016-10-08T05:38:54Z</time></trkpt>
<trkpt lat="29.689408" lon="92.284745">
<time>2016-10-08T05:38:55Z</time></trkpt>
<trkpt lat="29.68934" lon="92.283177">
<time>2016-10-08T05:38:56Z</time></trkpt>
<trkpt lat="29.689291" lon="92.282188">
<time>2016-10-08T05:38:57Z</time></trkpt>
<trkpt lat="29.689262" lon="92.281309">
<time>2016-10-08T05:38:58Z</time></trkpt>
<trkpt lat="29.689233" lon="92.280459">
<time>2016-10-08T05:38:59Z</time></trkpt>
<trkpt lat="29.689194" lon="92.27976">
<time>2016-10-08T05:39:00Z</time></trkpt>
<trkpt lat="29.689175" lon="92.279081">
<time>2016-10-08T05:39:01Z</time></trkpt>
<trkpt lat="29.689146" lon="92.278341">
<time>2016-10-08T05:39:02Z</time></trkpt>
<trkpt lat="29.689117" lon="92.277672">
<time>2016-10-08T05:39:03Z</time></trkpt>
<trkpt lat="29.689097" lon="92.277183">
<time>2016-10-08T05:39:04Z</time></trkpt>
<trkpt lat="29.689087" lon="92.276843">
<time>2016-10-08T05:39:05Z</time></trkpt>
<trkpt lat="29.689088" lon="92.276543">
<time>2016-10-08T05:39:06Z</time></trkpt>
<trkpt lat="29.689098" lon="92.276023">
<time>2016-10-08T05:39:07Z</time></trkpt>
<trkpt lat="29.689119" lon="92.275524">
<time>2016-10-08T05:39:08Z</time></trkpt>
<trkpt lat="29.689139" lon="92.274964">
<time>2016-10-08T05:39:09Z</time></trkpt>
<trkpt lat="29.68917" lon="92.274305">
<time>2016-10-08T05:39:10Z</time></trkpt>
<trkpt lat="29.68919" lon="92.273775">
<time>2016-10-08T05:39:11Z</time></trkpt>
<trkpt lat="29.689221" lon="92.273166">
<time>2016-10-08T05:39:12Z</time></trkpt>
<trkpt lat="29.689261" lon="92.272576">
<time>2016-10-08T05:39:13Z</time></trkpt>
<trkpt lat="29.689292" lon="92.272246">
<time>2016-10-08T05:39:14Z</time></trkpt>
<trkpt lat="29.689352" lon="92.271767">
<time>2016-10-08T05:39:15Z</time></trkpt>
<trkpt lat="29.689432" lon="92.271307">
<time>2016-10-08T05:39:16Z</time></trkpt>
<trkpt lat="29.689503" lon="92.270957">
<time>2016-10-08T05:39:17Z</time></trkpt>
<trkpt lat="29.689613" lon="92.270487">
<time>2016-10-08T05:39:18Z</time></trkpt>
<trkpt lat="29.689894" lon="92.269288">
<time>2016-10-08T05:39:19Z</time></trkpt>
<trkpt lat="29.690245" lon="92.267759">
<time>2016-10-08T05:39:20Z</time></trkpt>
<trkpt lat="29.690596" lon="92.26616">
<time>2016-10-08T05:39:21Z</time></trkpt>
<trkpt lat="29.690947" lon="92.26461">
<time>2016-10-08T05:39:22Z</time></trkpt>
<trkpt lat="29.691288" lon="92.262751">
<time>2016-10-08T05:39:23Z</time></trkpt>
<trkpt lat="29.691609" lon="92.260971">
<time>2016-10-08T05:39:24Z</time></trkpt>
<trkpt lat="29.691709" lon="92.260501">
<time>2016-10-08T05:39:25Z</time></trkpt>
<trkpt lat="29.691799" lon="92.260151">
<time>2016-10-08T05:39:26Z</time></trkpt>
<trkpt lat="29.691969" lon="92.259551">
<time>2016-10-08T05:39:27Z</time></trkpt>
<trkpt lat="29.692059" lon="92.259241">
<time>2016-10-08T05:39:28Z</time></trkpt>
<trkpt lat="29.69234" lon="92.258311">
<time>2016-10-08T05:39:29Z</time></trkpt>
<trkpt lat="29.69282" lon="92.256722">
<time>2016-10-08T05:39:30Z</time></trkpt>
<trkpt lat="29.69313" lon="92.255691">
<time>2016-10-08T05:39:31Z</time></trkpt>
<trkpt lat="29.693391" lon="92.254761">
<time>2016-10-08T05:39:32Z</time></trkpt>
<trkpt lat="29.693421" lon="92.254611">
<time>2016-10-08T05:39:33Z</time></trkpt>
<trkpt lat="29.693431" lon="92.254521">
<time>2016-10-08T05:39:34Z</time></trkpt>
<trkpt lat="29.693441" lon="92.254411">
<time>2016-10-08T05:39:35Z</time></trkpt>
<trkpt lat="29.693451" lon="92.254221">
<time>2016-10-08T05:39:36Z</time></trkpt>
<trkpt lat="29.693441" lon="92.254011">
<time>2016-10-08T05:39:37Z</time></trkpt>
<trkpt lat="29.693421" lon="92.253661">
<time>2016-10-08T05:39:38Z</time></trkpt>
<trkpt lat="29.693371" lon="92.253181">
<time>2016-10-08T05:39:39Z</time></trkpt>
<trkpt lat="29.693331" lon="92.252691">
<time>2016-10-08T05:39:40Z</time></trkpt>
<trkpt lat="29.693291" lon="92.252301">
<time>2016-10-08T05:39:41Z</time></trkpt>
<trkpt lat="29.693201" lon="92.251351">
<time>2016-10-08T05:39:42Z</time></trkpt>
<trkpt lat="29.693081" lon="92.250051">
<time>2016-10-08T05:39:43Z</time></trkpt>
<trkpt lat="29.693051" lon="92.24966">
<time>2016-10-08T05:39:44Z</time></trkpt>
<trkpt lat="29.693001" lon="92.24894">
<time>2016-10-08T05:39:45Z</time></trkpt>
<trkpt lat="29.692981" lon="92.24843">
<time>2016-10-08T05:39:46Z</time></trkpt>
<trkpt lat="29.692971" lon="92.24816">
<time>2016-10-08T05:39:47Z</time></trkpt>
<trkpt lat="29.692951" lon="92.24772">
<time>2016-10-08T05:39:48Z</time></trkpt>
<trkpt lat="29.692901" lon="92.24728">
<time>2016-10-08T05:39:49Z</time></trkpt>
<trkpt lat="29.692791" lon="92.246569">
<time>2016-10-08T05:39:50Z</time></trkpt>
<trkpt lat="29.692621" lon="92.245499">
<time>2016-10-08T05:39:51Z</time></trkpt>
<trkpt lat="29.692481" lon="92.244548">
<time>2016-10-08T05:39:52Z</time></trkpt>
<trkpt lat="29.692421" lon="92.244098">
<time>2016-10-08T05:39:53Z</time></trkpt>
<trkpt lat="29.692411" lon="92.243938">
<time>2016-10-08T05:39:54Z</time></trkpt>
<trkpt lat="29.692411" lon="92.243798">
<time>2016-10-08T05:39:55Z</time></trkpt>
<trkpt lat="29.692411" lon="92.243688">
<time>2016-10-08T05:39:56Z</time></trkpt>
<trkpt lat="29.692431" lon="92.243568">
<time>2016-10-08T05:39:57Z</time></trkpt>
<trkpt lat="29.692451" lon="92.243428">
<time>2016-10-08T05:39:58Z</time></trkpt>
<trkpt lat="29.692501" lon="92.243258">
<time>2016-10-08T05:39:59Z</time></trkpt>
<trkpt lat="29.692531" lon="92.243168">
<time>2016-10-08T05:40:00Z</time></trkpt>
<trkpt lat="29.692591" lon="92.243017">
<time>2016-10-08T05:40:01Z</time></trkpt>
<trkpt lat="29.692671" lon="92.242827">
<time>2016-10-08T05:40:02Z</time></trkpt>
<trkpt lat="29.692831" lon="92.242347">
<time>2016-10-08T05:40:03Z</time></trkpt>
<trkpt lat="29.69318" lon="92.241556">
<time>2016-10-08T05:40:04Z</time></trkpt>
<trkpt lat="29.69319" lon="92.241536">
<time>2016-10-08T05:40:05Z</time></trkpt>
<trkpt lat="29.69336" lon="92.240956">
<time>2016-10-08T05:40:06Z</time></trkpt>
<trkpt lat="29.69363" lon="92.240155">
<time>2016-10-08T05:40:07Z</time></trkpt>
<trkpt lat="29.694049" lon="92.239025">
<time>2016-10-08T05:40:08Z</time></trkpt>
<trkpt lat="29.694389" lon="92.238064">
<time>2016-10-08T05:40:09Z</time></trkpt>
<trkpt lat="29.695178" lon="92.235932">
<time>2016-10-08T05:40:10Z</time></trkpt>
<trkpt lat="29.695437" lon="92.235151">
<time>2016-10-08T05:40:11Z</time></trkpt>
<trkpt lat="29.695707" lon="92.234441">
<time>2016-10-08T05:40:12Z</time></trkpt>
<trkpt lat="29.695907" lon="92.23388">
<time>2016-10-08T05:40:13Z</time></trkpt>
<trkpt lat="29.696007" lon="92.23361">
<time>2016-10-08T05:40:14Z</time></trkpt>
<trkpt lat="29.696056" lon="92.23346">
<time>2016-10-08T05:40:15Z</time></trkpt>
<trkpt lat="29.696086" lon="92.233319">
<time>2016-10-08T05:40:16Z</time></trkpt>
<trkpt lat="29.696106" lon="92.233159">
<time>2016-10-08T05:40:17Z</time></trkpt>
<trkpt lat="29.696116" lon="92.232839">
<time>2016-10-08T05:40:18Z</time></trkpt>
<trkpt lat="29.695986" lon="92.231898">
<time>2016-10-08T05:40:19Z</time></trkpt>
<trkpt lat="29.695885" lon="92.231077">
<time>2016-10-08T05:40:20Z</time></trkpt>
<trkpt lat="29.695885" lon="92.230847">
<time>2016-10-08T05:40:21Z</time></trkpt>
<trkpt lat="29.695885" lon="92.230627">
<time>2016-10-08T05:40:22Z</time></trkpt>
<trkpt lat="29.695895" lon="92.230466">
<time>2016-10-08T05:40:23Z</time></trkpt>
<trkpt lat="29.695934" lon="92.230076">
<time>2016-10-08T05:40:24Z</time></trkpt>
<trkpt lat="29.696014" lon="92.229505">
<time>2016-10-08T05:40:25Z</time></trkpt>
<trkpt lat="29.696173" lon="92.228244">
<time>2016-10-08T05:40:26Z</time></trkpt>
<trkpt lat="29.696302" lon="92.227272">
<time>2016-10-08T05:40:27Z</time></trkpt>
<trkpt lat="29.696412" lon="92.226461">
<time>2016-10-08T05:40:28Z</time></trkpt>
<trkpt lat="29.696441" lon="92.226331">
<time>2016-10-08T05:40:29Z</time></trkpt>
<trkpt lat="29.696481" lon="92.226181">
<time>2016-10-08T05:40:30Z</time></trkpt>
<trkpt lat="29.696531" lon="92.226071">
<time>2016-10-08T05:40:31Z</time></trkpt>
<trkpt lat="29.696681" lon="92.225791">
<time>2016-10-08T05:40:32Z</time></trkpt>
<trkpt lat="29.696811" lon="92.22561">
<time>2016-10-08T05:40:33Z</time></trkpt>
<trkpt lat="29.69717" lon="92.22508">
<time>2016-10-08T05:40:34Z</time></trkpt>
<trkpt lat="29.69732" lon="92.224869">
<time>2016-10-08T05:40:35Z</time></trkpt>
<trkpt lat="29.69742" lon="92.224709">
<time>2016-10-08T05:40:36Z</time></trkpt>
<trkpt lat="29.6975" lon="92.224529">
<time>2016-10-08T05:40:37Z</time></trkpt>
<trkpt lat="29.697569" lon="92.224268">
<time>2016-10-08T05:40:38Z</time></trkpt>
<trkpt lat="29.697649" lon="92.223858">
<time>2016-10-08T05:40:39Z</time></trkpt>
<trkpt lat="29.697828" lon="92.222926">
<time>2016-10-08T05:40:40Z</time></trkpt>
<trkpt lat="29.697928" lon="92.222456">
<time>2016-10-08T05:40:41Z</time></trkpt>
<trkpt lat="29.698047" lon="92.221985">
<time>2016-10-08T05:40:42Z</time></trkpt>
<trkpt lat="29.698117" lon="92.221825">
<time>2016-10-08T05:40:43Z</time></trkpt>
<trkpt lat="29.698197" lon="92.221695">
<time>2016-10-08T05:40:44Z</time></trkpt>
<trkpt lat="29.698337" lon="92.221534">
<time>2016-10-08T05:40:45Z</time></trkpt>
<trkpt lat="29.698736" lon="92.221174">
<time>2016-10-08T05:40:46Z</time></trkpt>
<trkpt lat="29.698966" lon="92.220964">
<time>2016-10-08T05:40:47Z</time></trkpt>
<trkpt lat="29.699236" lon="92.220713">
<time>2016-10-08T05:40:48Z</time></trkpt>
<trkpt lat="29.699366" lon="92.220543">
<time>2016-10-08T05:40:49Z</time></trkpt>
<trkpt lat="29.699455" lon="92.220393">
<time>2016-10-08T05:40:50Z</time></trkpt>
<trkpt lat="29.699515" lon="92.220252">
<time>2016-10-08T05:40:51Z</time></trkpt>
<trkpt lat="29.699595" lon="92.219992">
<time>2016-10-08T05:40:52Z</time></trkpt>
<trkpt lat="29.699764" lon="92.219441">
<time>2016-10-08T05:40:53Z</time></trkpt>
<trkpt lat="29.699954" lon="92.21883">
<time>2016-10-08T05:40:54Z</time></trkpt>
<trkpt lat="29.700163" lon="92.218119">
<time>2016-10-08T05:40:55Z</time></trkpt>
<trkpt lat="29.700272" lon="92.217728">
<time>2016-10-08T05:40:56Z</time></trkpt>
<trkpt lat="29.700372" lon="92.217478">
<time>2016-10-08T05:40:57Z</time></trkpt>
<trkpt lat="29.700432" lon="92.217318">
<time>2016-10-08T05:40:58Z</time></trkpt>
<trkpt lat="29.700512" lon="92.217147">
<time>2016-10-08T05:40:59Z</time></trkpt>
<trkpt lat="29.700562" lon="92.217047">
<time>2016-10-08T05:41:00Z</time></trkpt>
<trkpt lat="29.700691" lon="92.216827">
<time>2016-10-08T05:41:01Z</time></trkpt>
<trkpt lat="29.701001" lon="92.216326">
<time>2016-10-08T05:41:02Z</time></trkpt>
<trkpt lat="29.701599" lon="92.215304">
<time>2016-10-08T05:41:03Z</time></trkpt>
<trkpt lat="29.701919" lon="92.214773">
<time>2016-10-08T05:41:04Z</time></trkpt>
<trkpt lat="29.702068" lon="92.214483">
<time>2016-10-08T05:41:05Z</time></trkpt>
<trkpt lat="29.702238" lon="92.214122">
<time>2016-10-08T05:41:06Z</time></trkpt>
<trkpt lat="29.702467" lon="92.213511">
<time>2016-10-08T05:41:07Z</time></trkpt>
<trkpt lat="29.702527" lon="92.213311">
<time>2016-10-08T05:41:08Z</time></trkpt>
<trkpt lat="29.702577" lon="92.21307">
<time>2016-10-08T05:41:09Z</time></trkpt>
<trkpt lat="29.702586" lon="92.21284">
<time>2016-10-08T05:41:10Z</time></trkpt>
<trkpt lat="29.702586" lon="92.21266">
<time>2016-10-08T05:41:11Z</time></trkpt>
<trkpt lat="29.702566" lon="92.212489">
<time>2016-10-08T05:41:12Z</time></trkpt>
<trkpt lat="29.702505" lon="92.212038">
<time>2016-10-08T05:41:13Z</time></trkpt>
<trkpt lat="29.702334" lon="92.210776">
<time>2016-10-08T05:41:14Z</time></trkpt>
<trkpt lat="29.702263" lon="92.210235">
<time>2016-10-08T05:41:15Z</time></trkpt>
<trkpt lat="29.702233" lon="92.210015">
<time>2016-10-08T05:41:16Z</time></trkpt>
<trkpt lat="29.702232" lon="92.209714">
<time>2016-10-08T05:41:17Z</time></trkpt>
<trkpt lat="29.702262" lon="92.209464">
<time>2016-10-08T05:41:18Z</time></trkpt>
<trkpt lat="29.702322" lon="92.209273">
<time>2016-10-08T05:41:19Z</time></trkpt>
<trkpt lat="29.702382" lon="92.209123">
<time>2016-10-08T05:41:20Z</time></trkpt>
<trkpt lat="29.702511" lon="92.208892">
<time>2016-10-08T05:41:21Z</time></trkpt>
<trkpt lat="29.702691" lon="92.208682">
<time>2016-10-08T05:41:22Z</time></trkpt>
<trkpt lat="29.702851" lon="92.208532">
<time>2016-10-08T05:41:23Z</time></trkpt>
<trkpt lat="29.70339" lon="92.208071">
<time>2016-10-08T05:41:24Z</time></trkpt>
<trkpt lat="29.704179" lon="92.20741">
<time>2016-10-08T05:41:25Z</time></trkpt>
<trkpt lat="29.704379" lon="92.207229">
<time>2016-10-08T05:41:26Z</time></trkpt>
<trkpt lat="29.704588" lon="92.207059">
<time>2016-10-08T05:41:27Z</time></trkpt>
<trkpt lat="29.704768" lon="92.206909">
<time>2016-10-08T05:41:28Z</time></trkpt>
<trkpt lat="29.705088" lon="92.206658">
<time>2016-10-08T05:41:29Z</time></trkpt>
<trkpt lat="29.706186" lon="92.205866">
<time>2016-10-08T05:41:30Z</time></trkpt>
<trkpt lat="29.706556" lon="92.205566">
<time>2016-10-08T05:41:31Z</time></trkpt>
<trkpt lat="29.706746" lon="92.205345">
<time>2016-10-08T05:41:32Z</time></trkpt>
<trkpt lat="29.706895" lon="92.205135">
<time>2016-10-08T05:41:33Z</time></trkpt>
<trkpt lat="29.707045" lon="92.204914">
<time>2016-10-08T05:41:34Z</time></trkpt>
<trkpt lat="29.707424" lon="92.204283">
<time>2016-10-08T05:41:35Z</time></trkpt>
<trkpt lat="29.707893" lon="92.203532">
<time>2016-10-08T05:41:36Z</time></trkpt>
<trkpt lat="29.708192" lon="92.20302">
<time>2016-10-08T05:41:37Z</time></trkpt>
<trkpt lat="29.708262" lon="92.20287">
<time>2016-10-08T05:41:38Z</time></trkpt>
<trkpt lat="29.708321" lon="92.20276">
<time>2016-10-08T05:41:39Z</time></trkpt>
<trkpt lat="29.708391" lon="92.20259">
<time>2016-10-08T05:41:40Z</time></trkpt>
<trkpt lat="29.708441" lon="92.202419">
<time>2016-10-08T05:41:41Z</time></trkpt>
<trkpt lat="29.708481" lon="92.202279">
<time>2016-10-08T05:41:42Z</time></trkpt>
<trkpt lat="29.70856" lon="92.201758">
<time>2016-10-08T05:41:43Z</time></trkpt>
<trkpt lat="29.708708" lon="92.200665">
<time>2016-10-08T05:41:44Z</time></trkpt>
<trkpt lat="29.708738" lon="92.200505">
<time>2016-10-08T05:41:45Z</time></trkpt>
<trkpt lat="29.708788" lon="92.200325">
<time>2016-10-08T05:41:46Z</time></trkpt>
<trkpt lat="29.708817" lon="92.200224">
<time>2016-10-08T05:41:47Z</time></trkpt>
<trkpt lat="29.708887" lon="92.200064">
<time>2016-10-08T05:41:48Z</time></trkpt>
<trkpt lat="29.708937" lon="92.199944">
<time>2016-10-08T05:41:49Z</time></trkpt>
<trkpt lat="29.709087" lon="92.199683">
<time>2016-10-08T05:41:50Z</time></trkpt>
<trkpt lat="29.709366" lon="92.199202">
<time>2016-10-08T05:41:51Z</time></trkpt>
<trkpt lat="29.709645" lon="92.198721">
<time>2016-10-08T05:41:52Z</time></trkpt>
<trkpt lat="29.709705" lon="92.198591">
<time>2016-10-08T05:41:53Z</time></trkpt>
<trkpt lat="29.709764" lon="92.19844">
<time>2016-10-08T05:41:54Z</time></trkpt>
<trkpt lat="29.709794" lon="92.1983">
<time>2016-10-08T05:41:55Z</time></trkpt>
<trkpt lat="29.709804" lon="92.19817">
<time>2016-10-08T05:41:56Z</time></trkpt>
<trkpt lat="29.709804" lon="92.198019">
<time>2016-10-08T05:41:57Z</time></trkpt>
<trkpt lat="29.709773" lon="92.197719">
<time>2016-10-08T05:41:58Z</time></trkpt>
<trkpt lat="29.709662" lon="92.196977">
<time>2016-10-08T05:41:59Z</time></trkpt>
<trkpt lat="29.709642" lon="92.196767">
<time>2016-10-08T05:42:00Z</time></trkpt>
<trkpt lat="29.709642" lon="92.196596">
<time>2016-10-08T05:42:01Z</time></trkpt>
<trkpt lat="29.709651" lon="92.196396">
<time>2016-10-08T05:42:02Z</time></trkpt>
<trkpt lat="29.709671" lon="92.196266">
<time>2016-10-08T05:42:03Z</time></trkpt>
<trkpt lat="29.709711" lon="92.195995">
<time>2016-10-08T05:42:04Z</time></trkpt>
<trkpt lat="29.709869" lon="92.195203">
<time>2016-10-08T05:42:05Z</time></trkpt>
<trkpt lat="29.709899" lon="92.195073">
<time>2016-10-08T05:42:06Z</time></trkpt>
<trkpt lat="29.709939" lon="92.194882">
<time>2016-10-08T05:42:07Z</time></trkpt>
<trkpt lat="29.709958" lon="92.194682">
<time>2016-10-08T05:42:08Z</time></trkpt>
<trkpt lat="29.709968" lon="92.194421">
<time>2016-10-08T05:42:09Z</time></trkpt>
<trkpt lat="29.709947" lon="92.194">
<time>2016-10-08T05:42:10Z</time></trkpt>
<trkpt lat="29.709835" lon="92.192818">
<time>2016-10-08T05:42:11Z</time></trkpt>
<trkpt lat="29.709703" lon="92.191534">
<time>2016-10-08T05:42:12Z</time></trkpt>
<trkpt lat="29.709601" lon="92.190502">
<time>2016-10-08T05:42:13Z</time></trkpt>
<trkpt lat="29.709571" lon="92.190312">
<time>2016-10-08T05:42:14Z</time></trkpt>
<trkpt lat="29.709531" lon="92.190111">
<time>2016-10-08T05:42:15Z</time></trkpt>
<trkpt lat="29.70948" lon="92.189951">
<time>2016-10-08T05:42:16Z</time></trkpt>
<trkpt lat="29.70937" lon="92.18968">
<time>2016-10-08T05:42:17Z</time></trkpt>
<trkpt lat="29.709049" lon="92.188888">
<time>2016-10-08T05:42:18Z</time></trkpt>
<trkpt lat="29.708737" lon="92.188126">
<time>2016-10-08T05:42:19Z</time></trkpt>
<trkpt lat="29.708145" lon="92.186673">
<time>2016-10-08T05:42:20Z</time></trkpt>
<trkpt lat="29.707924" lon="92.186141">
<time>2016-10-08T05:42:21Z</time></trkpt>
<trkpt lat="29.707773" lon="92.18573">
<time>2016-10-08T05:42:22Z</time></trkpt>
<trkpt lat="29.707251" lon="92.184267">
<time>2016-10-08T05:42:23Z</time></trkpt>
<trkpt lat="29.706929" lon="92.183324">
<time>2016-10-08T05:42:24Z</time></trkpt>
<trkpt lat="29.706416" lon="92.181881">
<time>2016-10-08T05:42:25Z</time></trkpt>
<trkpt lat="29.706014" lon="92.180728">
<time>2016-10-08T05:42:26Z</time></trkpt>
<trkpt lat="29.705452" lon="92.179154">
<time>2016-10-08T05:42:27Z</time></trkpt>
<trkpt lat="29.705029" lon="92.177961">
<time>2016-10-08T05:42:28Z</time></trkpt>
<trkpt lat="29.704597" lon="92.176738">
<time>2016-10-08T05:42:29Z</time></trkpt>
<trkpt lat="29.704316" lon="92.175936">
<time>2016-10-08T05:42:30Z</time></trkpt>
<trkpt lat="29.704205" lon="92.175565">
<time>2016-10-08T05:42:31Z</time></trkpt>
<trkpt lat="29.704185" lon="92.175414">
<time>2016-10-08T05:42:32Z</time></trkpt>
<trkpt lat="29.704185" lon="92.175284">
<time>2016-10-08T05:42:33Z</time></trkpt>
<trkpt lat="29.704194" lon="92.175134">
<time>2016-10-08T05:42:34Z</time></trkpt>
<trkpt lat="29.704224" lon="92.174963">
<time>2016-10-08T05:42:35Z</time></trkpt>
<trkpt lat="29.704284" lon="92.174743">
<time>2016-10-08T05:42:36Z</time></trkpt>
<trkpt lat="29.704691" lon="92.173479">
<time>2016-10-08T05:42:37Z</time></trkpt>
<trkpt lat="29.705069" lon="92.172306">
<time>2016-10-08T05:42:38Z</time></trkpt>
<trkpt lat="29.705347" lon="92.171434">
<time>2016-10-08T05:42:39Z</time></trkpt>
<trkpt lat="29.705566" lon="92.170782">
<time>2016-10-08T05:42:40Z</time></trkpt>
<trkpt lat="29.705636" lon="92.170642">
<time>2016-10-08T05:42:41Z</time></trkpt>
<trkpt lat="29.705695" lon="92.170542">
<time>2016-10-08T05:42:42Z</time></trkpt>
<trkpt lat="29.705785" lon="92.170441">
<time>2016-10-08T05:42:43Z</time></trkpt>
<trkpt lat="29.705865" lon="92.170361">
<time>2016-10-08T05:42:44Z</time></trkpt>
<trkpt lat="29.706095" lon="92.170221">
<time>2016-10-08T05:42:45Z</time></trkpt>
<trkpt lat="29.707213" lon="92.169569">
<time>2016-10-08T05:42:46Z</time></trkpt>
<trkpt lat="29.708352" lon="92.168887">
<time>2016-10-08T05:42:47Z</time></trkpt>
<trkpt lat="29.708671" lon="92.168677">
<time>2016-10-08T05:42:48Z</time></trkpt>
<trkpt lat="29.708831" lon="92.168496">
<time>2016-10-08T05:42:49Z</time></trkpt>
<trkpt lat="29.708931" lon="92.168356">
<time>2016-10-08T05:42:50Z</time></trkpt>
<trkpt lat="29.70902" lon="92.168165">
<time>2016-10-08T05:42:51Z</time></trkpt>
<trkpt lat="29.70908" lon="92.167955">
<time>2016-10-08T05:42:52Z</time></trkpt>
<trkpt lat="29.709129" lon="92.167594">
<time>2016-10-08T05:42:53Z</time></trkpt>
<trkpt lat="29.709197" lon="92.166652">
<time>2016-10-08T05:42:54Z</time></trkpt>
<trkpt lat="29.709315" lon="92.165478">
<time>2016-10-08T05:42:55Z</time></trkpt>
<trkpt lat="29.709383" lon="92.164295">
<time>2016-10-08T05:42:56Z</time></trkpt>
<trkpt lat="29.709422" lon="92.163543">
<time>2016-10-08T05:42:57Z</time></trkpt>
<trkpt lat="29.70943" lon="92.162591">
<time>2016-10-08T05:42:58Z</time></trkpt>
<trkpt lat="29.709387" lon="92.160987">
<time>2016-10-08T05:42:59Z</time></trkpt>
<trkpt lat="29.709344" lon="92.159343">
<time>2016-10-08T05:43:00Z</time></trkpt>
<trkpt lat="29.709312" lon="92.15807">
<time>2016-10-08T05:43:01Z</time></trkpt>
<trkpt lat="29.709279" lon="92.156475">
<time>2016-10-08T05:43:02Z</time></trkpt>
<trkpt lat="29.709246" lon="92.155192">
<time>2016-10-08T05:43:03Z</time></trkpt>
<trkpt lat="29.709204" lon="92.153979">
<time>2016-10-08T05:43:04Z</time></trkpt>
<trkpt lat="29.709182" lon="92.152766">
<time>2016-10-08T05:43:05Z</time></trkpt>
<trkpt lat="29.70915" lon="92.151493">
<time>2016-10-08T05:43:06Z</time></trkpt>
<trkpt lat="29.709097" lon="92.149709">
<time>2016-10-08T05:43:07Z</time></trkpt>
<trkpt lat="29.709066" lon="92.149007">
<time>2016-10-08T05:43:08Z</time></trkpt>
<trkpt lat="29.709055" lon="92.148807">
<time>2016-10-08T05:43:09Z</time></trkpt>
<trkpt lat="29.709025" lon="92.148596">
<time>2016-10-08T05:43:10Z</time></trkpt>
<trkpt lat="29.709005" lon="92.148456">
<time>2016-10-08T05:43:11Z</time></trkpt>
<trkpt lat="29.708934" lon="92.148005">
<time>2016-10-08T05:43:12Z</time></trkpt>
<trkpt lat="29.708823" lon="92.147594">
<time>2016-10-08T05:43:13Z</time></trkpt>
<trkpt lat="29.708713" lon="92.147223">
<time>2016-10-08T05:43:14Z</time></trkpt>
<trkpt lat="29.708492" lon="92.146601">
<time>2016-10-08T05:43:15Z</time></trkpt>
<trkpt lat="29.707969" lon="92.145138">
<time>2016-10-08T05:43:16Z</time></trkpt>
<trkpt lat="29.707698" lon="92.144306">
<time>2016-10-08T05:43:17Z</time></trkpt>
<trkpt lat="29.707547" lon="92.143845">
<time>2016-10-08T05:43:18Z</time></trkpt>
<trkpt lat="29.707417" lon="92.143374">
<time>2016-10-08T05:43:19Z</time></trkpt>
<trkpt lat="29.707366" lon="92.143133">
<time>2016-10-08T05:43:20Z</time></trkpt>
<trkpt lat="29.707296" lon="92.142753">
<time>2016-10-08T05:43:21Z</time></trkpt>
<trkpt lat="29.707255" lon="92.142442">
<time>2016-10-08T05:43:22Z</time></trkpt>
<trkpt lat="29.707225" lon="92.142171">
<time>2016-10-08T05:43:23Z</time></trkpt>
<trkpt lat="29.707194" lon="92.14172">
<time>2016-10-08T05:43:24Z</time></trkpt>
<trkpt lat="29.707092" lon="92.140217">
<time>2016-10-08T05:43:25Z</time></trkpt>
<trkpt lat="29.70704" lon="92.139024">
<time>2016-10-08T05:43:26Z</time></trkpt>
<trkpt lat="29.706968" lon="92.137822">
<time>2016-10-08T05:43:27Z</time></trkpt>
<trkpt lat="29.706886" lon="92.136208">
<time>2016-10-08T05:43:28Z</time></trkpt>
<trkpt lat="29.706814" lon="92.135086">
<time>2016-10-08T05:43:29Z</time></trkpt>
<trkpt lat="29.706742" lon="92.133623">
<time>2016-10-08T05:43:30Z</time></trkpt>
<trkpt lat="29.706712" lon="92.133232">
<time>2016-10-08T05:43:31Z</time></trkpt>
<trkpt lat="29.706681" lon="92.132601">
<time>2016-10-08T05:43:32Z</time></trkpt>
<trkpt lat="29.70664" lon="92.13194">
<time>2016-10-08T05:43:33Z</time></trkpt>
<trkpt lat="29.706579" lon="92.130837">
<time>2016-10-08T05:43:34Z</time></trkpt>
<trkpt lat="29.706517" lon="92.129725">
<time>2016-10-08T05:43:35Z</time></trkpt>
<trkpt lat="29.706466" lon="92.128773">
<time>2016-10-08T05:43:36Z</time></trkpt>
<trkpt lat="29.706415" lon="92.127802">
<time>2016-10-08T05:43:37Z</time></trkpt>
<trkpt lat="29.706344" lon="92.12661">
<time>2016-10-08T05:43:38Z</time></trkpt>
<trkpt lat="29.706252" lon="92.125057">
<time>2016-10-08T05:43:39Z</time></trkpt>
<trkpt lat="29.706181" lon="92.123915">
<time>2016-10-08T05:43:40Z</time></trkpt>
<trkpt lat="29.706109" lon="92.122412">
<time>2016-10-08T05:43:41Z</time></trkpt>
<trkpt lat="29.706038" lon="92.12114">
<time>2016-10-08T05:43:42Z</time></trkpt>
<trkpt lat="29.705967" lon="92.119918">
<time>2016-10-08T05:43:43Z</time></trkpt>
<trkpt lat="29.705946" lon="92.119087">
<time>2016-10-08T05:43:44Z</time></trkpt>
<trkpt lat="29.706005" lon="92.117445">
<time>2016-10-08T05:43:45Z</time></trkpt>
<trkpt lat="29.706083" lon="92.115742">
<time>2016-10-08T05:43:46Z</time></trkpt>
<trkpt lat="29.706132" lon="92.114391">
<time>2016-10-08T05:43:47Z</time></trkpt>
<trkpt lat="29.706212" lon="92.113539">
<time>2016-10-08T05:43:48Z</time></trkpt>
<trkpt lat="29.706361" lon="92.112438">
<time>2016-10-08T05:43:49Z</time></trkpt>
<trkpt lat="29.706391" lon="92.112218">
<time>2016-10-08T05:43:50Z</time></trkpt>
<trkpt lat="29.70662" lon="92.110626">
<time>2016-10-08T05:43:51Z</time></trkpt>
<trkpt lat="29.706699" lon="92.110135">
<time>2016-10-08T05:43:52Z</time></trkpt>
<trkpt lat="29.706769" lon="92.109605">
<time>2016-10-08T05:43:53Z</time></trkpt>
<trkpt lat="29.706849" lon="92.109104">
<time>2016-10-08T05:43:54Z</time></trkpt>
<trkpt lat="29.706869" lon="92.108934">
<time>2016-10-08T05:43:55Z</time></trkpt>
<trkpt lat="29.706909" lon="92.108714">
<time>2016-10-08T05:43:56Z</time></trkpt>
<trkpt lat="29.706968" lon="92.108474">
<time>2016-10-08T05:43:57Z</time></trkpt>
<trkpt lat="29.707148" lon="92.107913">
<time>2016-10-08T05:43:58Z</time></trkpt>
<trkpt lat="29.707647" lon="92.106572">
<time>2016-10-08T05:43:59Z</time></trkpt>
<trkpt lat="29.707887" lon="92.105941">
<time>2016-10-08T05:44:00Z</time></trkpt>
<trkpt lat="29.708067" lon="92.105471">
<time>2016-10-08T05:44:01Z</time></trkpt>
<trkpt lat="29.708137" lon="92.10532">
<time>2016-10-08T05:44:02Z</time></trkpt>
<trkpt lat="29.708247" lon="92.10513">
<time>2016-10-08T05:44:03Z</time></trkpt>
<trkpt lat="29.708367" lon="92.10497">
<time>2016-10-08T05:44:04Z</time></trkpt>
<trkpt lat="29.708447" lon="92.10484">
<time>2016-10-08T05:44:05Z</time></trkpt>
<trkpt lat="29.708637" lon="92.1046">
<time>2016-10-08T05:44:06Z</time></trkpt>
<trkpt lat="29.708856" lon="92.10436">
<time>2016-10-08T05:44:07Z</time></trkpt>
<trkpt lat="29.709016" lon="92.104169">
<time>2016-10-08T05:44:08Z</time></trkpt>
<trkpt lat="29.709196" lon="92.103969">
<time>2016-10-08T05:44:09Z</time></trkpt>
<trkpt lat="29.709286" lon="92.103839">
<time>2016-10-08T05:44:10Z</time></trkpt>
<trkpt lat="29.709386" lon="92.103699">
<time>2016-10-08T05:44:11Z</time></trkpt>
<trkpt lat="29.709476" lon="92.103539">
<time>2016-10-08T05:44:12Z</time></trkpt>
<trkpt lat="29.709546" lon="92.103399">
<time>2016-10-08T05:44:13Z</time></trkpt>
<trkpt lat="29.709626" lon="92.103109">
<time>2016-10-08T05:44:14Z</time></trkpt>
<trkpt lat="29.709946" lon="92.101878">
<time>2016-10-08T05:44:15Z</time></trkpt>
<trkpt lat="29.710365" lon="92.100256">
<time>2016-10-08T05:44:16Z</time></trkpt>
<trkpt lat="29.710535" lon="92.099606">
<time>2016-10-08T05:44:17Z</time></trkpt>
<trkpt lat="29.710645" lon="92.099116">
<time>2016-10-08T05:44:18Z</time></trkpt>
<trkpt lat="29.710785" lon="92.098185">
<time>2016-10-08T05:44:19Z</time></trkpt>
<trkpt lat="29.711005" lon="92.096674">
<time>2016-10-08T05:44:20Z</time></trkpt>
<trkpt lat="29.711205" lon="92.095094">
<time>2016-10-08T05:44:21Z</time></trkpt>
<trkpt lat="29.711385" lon="92.093853">
<time>2016-10-08T05:44:22Z</time></trkpt>
<trkpt lat="29.711535" lon="92.092733">
<time>2016-10-08T05:44:23Z</time></trkpt>
<trkpt lat="29.711645" lon="92.091943">
<time>2016-10-08T05:44:24Z</time></trkpt>
<trkpt lat="29.711735" lon="92.091313">
<time>2016-10-08T05:44:25Z</time></trkpt>
<trkpt lat="29.711806" lon="92.090782">
<time>2016-10-08T05:44:26Z</time></trkpt>
<trkpt lat="29.711836" lon="92.090452">
<time>2016-10-08T05:44:27Z</time></trkpt>
<trkpt lat="29.711846" lon="92.090292">
<time>2016-10-08T05:44:28Z</time></trkpt>
<trkpt lat="29.711846" lon="92.090122">
<time>2016-10-08T05:44:29Z</time></trkpt>
<trkpt lat="29.711846" lon="92.089932">
<time>2016-10-08T05:44:30Z</time></trkpt>
<trkpt lat="29.711816" lon="92.089752">
<time>2016-10-08T05:44:31Z</time></trkpt>
<trkpt lat="29.711786" lon="92.089612">
<time>2016-10-08T05:44:32Z</time></trkpt>
<trkpt lat="29.711746" lon="92.089472">
<time>2016-10-08T05:44:33Z</time></trkpt>
<trkpt lat="29.711646" lon="92.089222">
<time>2016-10-08T05:44:34Z</time></trkpt>
<trkpt lat="29.711316" lon="92.088492">
<time>2016-10-08T05:44:35Z</time></trkpt>
<trkpt lat="29.710737" lon="92.087262">
<time>2016-10-08T05:44:36Z</time></trkpt>
<trkpt lat="29.710138" lon="92.086002">
<time>2016-10-08T05:44:37Z</time></trkpt>
<trkpt lat="29.709538" lon="92.084712">
<time>2016-10-08T05:44:38Z</time></trkpt>
<trkpt lat="29.709079" lon="92.083752">
<time>2016-10-08T05:44:39Z</time></trkpt>
<trkpt lat="29.70862" lon="92.082753">
<time>2016-10-08T05:44:40Z</time></trkpt>
<trkpt lat="29.70854" lon="92.082573">
<time>2016-10-08T05:44:41Z</time></trkpt>
<trkpt lat="29.7084" lon="92.082193">
<time>2016-10-08T05:44:42Z</time></trkpt>
<trkpt lat="29.70836" lon="92.082063">
<time>2016-10-08T05:44:43Z</time></trkpt>
<trkpt lat="29.70831" lon="92.081923">
<time>2016-10-08T05:44:44Z</time></trkpt>
<trkpt lat="29.70828" lon="92.081793">
<time>2016-10-08T05:44:45Z</time></trkpt>
<trkpt lat="29.708251" lon="92.081623">
<time>2016-10-08T05:44:46Z</time></trkpt>
<trkpt lat="29.708211" lon="92.081353">
<time>2016-10-08T05:44:47Z</time></trkpt>
<trkpt lat="29.708081" lon="92.080463">
<time>2016-10-08T05:44:48Z</time></trkpt>
<trkpt lat="29.707982" lon="92.079704">
<time>2016-10-08T05:44:49Z</time></trkpt>
<trkpt lat="29.707823" lon="92.078364">
<time>2016-10-08T05:44:50Z</time></trkpt>
<trkpt lat="29.707674" lon="92.077255">
<time>2016-10-08T05:44:51Z</time></trkpt>
<trkpt lat="29.707535" lon="92.076185">
<time>2016-10-08T05:44:52Z</time></trkpt>
<trkpt lat="29.707426" lon="92.075216">
<time>2016-10-08T05:44:53Z</time></trkpt>
<trkpt lat="29.707406" lon="92.075036">
<time>2016-10-08T05:44:54Z</time></trkpt>
<trkpt lat="29.707406" lon="92.074786">
<time>2016-10-08T05:44:55Z</time></trkpt>
<trkpt lat="29.707417" lon="92.074566">
<time>2016-10-08T05:44:56Z</time></trkpt>
<trkpt lat="29.707447" lon="92.074266">
<time>2016-10-08T05:44:57Z</time></trkpt>
<trkpt lat="29.707538" lon="92.073757">
<time>2016-10-08T05:44:58Z</time></trkpt>
<trkpt lat="29.707608" lon="92.073217">
<time>2016-10-08T05:44:59Z</time></trkpt>
<trkpt lat="29.707668" lon="92.072867">
<time>2016-10-08T05:45:00Z</time></trkpt>
<trkpt lat="29.707699" lon="92.072678">
<time>2016-10-08T05:45:01Z</time></trkpt>
<trkpt lat="29.707719" lon="92.072498">
<time>2016-10-08T05:45:02Z</time></trkpt>
<trkpt lat="29.707739" lon="92.072308">
<time>2016-10-08T05:45:03Z</time></trkpt>
<trkpt lat="29.707739" lon="92.072158">
<time>2016-10-08T05:45:04Z</time></trkpt>
<trkpt lat="29.707729" lon="92.071968">
<time>2016-10-08T05:45:05Z</time></trkpt>
<trkpt lat="29.7077" lon="92.071788">
<time>2016-10-08T05:45:06Z</time></trkpt>
<trkpt lat="29.70767" lon="92.071638">
<time>2016-10-08T05:45:07Z</time></trkpt>
<trkpt lat="29.70762" lon="92.071428">
<time>2016-10-08T05:45:08Z</time></trkpt>
<trkpt lat="29.707371" lon="92.070399">
<time>2016-10-08T05:45:09Z</time></trkpt>
<trkpt lat="29.707083" lon="92.06917">
<time>2016-10-08T05:45:10Z</time></trkpt>
<trkpt lat="29.706834" lon="92.068141">
<time>2016-10-08T05:45:11Z</time></trkpt>
<trkpt lat="29.706765" lon="92.067862">
<time>2016-10-08T05:45:12Z</time></trkpt>
<trkpt lat="29.706715" lon="92.067672">
<time>2016-10-08T05:45:13Z</time></trkpt>
<trkpt lat="29.706565" lon="92.067252">
<time>2016-10-08T05:45:14Z</time></trkpt>
<trkpt lat="29.706217" lon="92.066253">
<time>2016-10-08T05:45:15Z</time></trkpt>
<trkpt lat="29.705948" lon="92.065494">
<time>2016-10-08T05:45:16Z</time></trkpt>
<trkpt lat="29.705799" lon="92.065025">
<time>2016-10-08T05:45:17Z</time></trkpt>
<trkpt lat="29.705679" lon="92.064655">
<time>2016-10-08T05:45:18Z</time></trkpt>
<trkpt lat="29.705629" lon="92.064445">
<time>2016-10-08T05:45:19Z</time></trkpt>
<trkpt lat="29.70557" lon="92.064126">
<time>2016-10-08T05:45:20Z</time></trkpt>
<trkpt lat="29.70552" lon="92.063786">
<time>2016-10-08T05:45:21Z</time></trkpt>
<trkpt lat="29.705491" lon="92.063596">
<time>2016-10-08T05:45:22Z</time></trkpt>
<trkpt lat="29.705471" lon="92.063377">
<time>2016-10-08T05:45:23Z</time></trkpt>
<trkpt lat="29.705452" lon="92.062957">
<time>2016-10-08T05:45:24Z</time></trkpt>
<trkpt lat="29.705413" lon="92.061968">
<time>2016-10-08T05:45:25Z</time></trkpt>
<trkpt lat="29.705365" lon="92.06089">
<time>2016-10-08T05:45:26Z</time></trkpt>
<trkpt lat="29.705326" lon="92.060021">
<time>2016-10-08T05:45:27Z</time></trkpt>
<trkpt lat="29.705317" lon="92.059641">
<time>2016-10-08T05:45:28Z</time></trkpt>
<trkpt lat="29.705297" lon="92.059492">
<time>2016-10-08T05:45:29Z</time></trkpt>
<trkpt lat="29.705307" lon="92.059332">
<time>2016-10-08T05:45:30Z</time></trkpt>
<trkpt lat="29.705308" lon="92.059202">
<time>2016-10-08T05:45:31Z</time></trkpt>
<trkpt lat="29.705318" lon="92.059022">
<time>2016-10-08T05:45:32Z</time></trkpt>
<trkpt lat="29.705338" lon="92.058892">
<time>2016-10-08T05:45:33Z</time></trkpt>
<trkpt lat="29.705368" lon="92.058763">
<time>2016-10-08T05:45:34Z</time></trkpt>
<trkpt lat="29.705409" lon="92.058613">
<time>2016-10-08T05:45:35Z</time></trkpt>
<trkpt lat="29.705449" lon="92.058503">
<time>2016-10-08T05:45:36Z</time></trkpt>
<trkpt lat="29.705519" lon="92.058353">
<time>2016-10-08T05:45:37Z</time></trkpt>
<trkpt lat="29.705579" lon="92.058223">
<time>2016-10-08T05:45:38Z</time></trkpt>
<trkpt lat="29.705629" lon="92.058133">
<time>2016-10-08T05:45:39Z</time></trkpt>
<trkpt lat="29.70576" lon="92.057924">
<time>2016-10-08T05:45:40Z</time></trkpt>
<trkpt lat="29.706261" lon="92.057195">
<time>2016-10-08T05:45:41Z</time></trkpt>
<trkpt lat="29.707023" lon="92.056086">
<time>2016-10-08T05:45:42Z</time></trkpt>
<trkpt lat="29.707624" lon="92.055178">
<time>2016-10-08T05:45:43Z</time></trkpt>
<trkpt lat="29.708206" lon="92.054339">
<time>2016-10-08T05:45:44Z</time></trkpt>
<trkpt lat="29.708386" lon="92.05401">
<time>2016-10-08T05:45:45Z</time></trkpt>
<trkpt lat="29.708477" lon="92.0538">
<time>2016-10-08T05:45:46Z</time></trkpt>
<trkpt lat="29.708537" lon="92.05358">
<time>2016-10-08T05:45:47Z</time></trkpt>
<trkpt lat="29.708577" lon="92.053411">
<time>2016-10-08T05:45:48Z</time></trkpt>
<trkpt lat="29.708608" lon="92.053201">
<time>2016-10-08T05:45:49Z</time></trkpt>
<trkpt lat="29.708729" lon="92.052412">
<time>2016-10-08T05:45:50Z</time></trkpt>
<trkpt lat="29.708831" lon="92.051763">
<time>2016-10-08T05:45:51Z</time></trkpt>
<trkpt lat="29.708912" lon="92.051214">
<time>2016-10-08T05:45:52Z</time></trkpt>
<trkpt lat="29.709053" lon="92.050286">
<time>2016-10-08T05:45:53Z</time></trkpt>
<trkpt lat="29.709165" lon="92.049448">
<time>2016-10-08T05:45:54Z</time></trkpt>
<trkpt lat="29.709246" lon="92.048988">
<time>2016-10-08T05:45:55Z</time></trkpt>
<trkpt lat="29.709317" lon="92.048619">
<time>2016-10-08T05:45:56Z</time></trkpt>
<trkpt lat="29.709357" lon="92.048479">
<time>2016-10-08T05:45:57Z</time></trkpt>
<trkpt lat="29.709407" lon="92.04832">
<time>2016-10-08T05:45:58Z</time></trkpt>
<trkpt lat="29.709488" lon="92.04813">
<time>2016-10-08T05:45:59Z</time></trkpt>
<trkpt lat="29.709548" lon="92.04802">
<time>2016-10-08T05:46:00Z</time></trkpt>
<trkpt lat="29.709638" lon="92.04787">
<time>2016-10-08T05:46:01Z</time></trkpt>
<trkpt lat="29.709749" lon="92.047701">
<time>2016-10-08T05:46:02Z</time></trkpt>
<trkpt lat="29.709959" lon="92.047421">
<time>2016-10-08T05:46:03Z</time></trkpt>
<trkpt lat="29.710962" lon="92.046214">
<time>2016-10-08T05:46:04Z</time></trkpt>
<trkpt lat="29.711723" lon="92.045285">
<time>2016-10-08T05:46:05Z</time></trkpt>
<trkpt lat="29.712636" lon="92.044158">
<time>2016-10-08T05:46:06Z</time></trkpt>
<trkpt lat="29.713418" lon="92.04319">
<time>2016-10-08T05:46:07Z</time></trkpt>
<trkpt lat="29.713879" lon="92.042621">
<time>2016-10-08T05:46:08Z</time></trkpt>
<trkpt lat="29.714481" lon="92.041882">
<time>2016-10-08T05:46:09Z</time></trkpt>
<trkpt lat="29.715062" lon="92.041144">
<time>2016-10-08T05:46:10Z</time></trkpt>
<trkpt lat="29.715313" lon="92.040845">
<time>2016-10-08T05:46:11Z</time></trkpt>
<trkpt lat="29.715564" lon="92.040565">
<time>2016-10-08T05:46:12Z</time></trkpt>
<trkpt lat="29.715754" lon="92.040366">
<time>2016-10-08T05:46:13Z</time></trkpt>
<trkpt lat="29.715924" lon="92.040206">
<time>2016-10-08T05:46:14Z</time></trkpt>
<trkpt lat="29.716075" lon="92.040076">
<time>2016-10-08T05:46:15Z</time></trkpt>
<trkpt lat="29.716545" lon="92.039687">
<time>2016-10-08T05:46:16Z</time></trkpt>
<trkpt lat="29.716706" lon="92.039557">
<time>2016-10-08T05:46:17Z</time></trkpt>
<trkpt lat="29.716806" lon="92.039438">
<time>2016-10-08T05:46:18Z</time></trkpt>
<trkpt lat="29.716896" lon="92.039328">
<time>2016-10-08T05:46:19Z</time></trkpt>
<trkpt lat="29.716987" lon="92.039168">
<time>2016-10-08T05:46:20Z</time></trkpt>
<trkpt lat="29.717057" lon="92.039038">
<time>2016-10-08T05:46:21Z</time></trkpt>
<trkpt lat="29.717117" lon="92.038889">
<time>2016-10-08T05:46:22Z</time></trkpt>
<trkpt lat="29.717258" lon="92.03848">
<time>2016-10-08T05:46:23Z</time></trkpt>
<trkpt lat="29.717329" lon="92.03821">
<time>2016-10-08T05:46:24Z</time></trkpt>
<trkpt lat="29.717369" lon="92.038041">
<time>2016-10-08T05:46:25Z</time></trkpt>
<trkpt lat="29.71739" lon="92.037891">
<time>2016-10-08T05:46:26Z</time></trkpt>
<trkpt lat="29.7174" lon="92.037721">
<time>2016-10-08T05:46:27Z</time></trkpt>
<trkpt lat="29.717411" lon="92.037522">
<time>2016-10-08T05:46:28Z</time></trkpt>
<trkpt lat="29.717443" lon="92.036514">
<time>2016-10-08T05:46:29Z</time></trkpt>
<trkpt lat="29.717485" lon="92.035526">
<time>2016-10-08T05:46:30Z</time></trkpt>
<trkpt lat="29.717539" lon="92.034299">
<time>2016-10-08T05:46:31Z</time></trkpt>
<trkpt lat="29.717581" lon="92.033431">
<time>2016-10-08T05:46:32Z</time></trkpt>
<trkpt lat="29.717603" lon="92.032444">
<time>2016-10-08T05:46:33Z</time></trkpt>
<trkpt lat="29.717605" lon="92.031696">
<time>2016-10-08T05:46:34Z</time></trkpt>
<trkpt lat="29.717557" lon="92.031027">
<time>2016-10-08T05:46:35Z</time></trkpt>
<trkpt lat="29.717508" lon="92.030538">
<time>2016-10-08T05:46:36Z</time></trkpt>
<trkpt lat="29.717459" lon="92.03008">
<time>2016-10-08T05:46:37Z</time></trkpt>
<trkpt lat="29.717313" lon="92.028913">
<time>2016-10-08T05:46:38Z</time></trkpt>
<trkpt lat="29.717195" lon="92.027955">
<time>2016-10-08T05:46:39Z</time></trkpt>
<trkpt lat="29.717058" lon="92.026858">
<time>2016-10-08T05:46:40Z</time></trkpt>
<trkpt lat="29.716931" lon="92.025771">
<time>2016-10-08T05:46:41Z</time></trkpt>
<trkpt lat="29.716775" lon="92.024514">
<time>2016-10-08T05:46:42Z</time></trkpt>
<trkpt lat="29.716618" lon="92.023247">
<time>2016-10-08T05:46:43Z</time></trkpt>
<trkpt lat="29.716501" lon="92.0223">
<time>2016-10-08T05:46:44Z</time></trkpt>
<trkpt lat="29.716334" lon="92.021053">
<time>2016-10-08T05:46:45Z</time></trkpt>
<trkpt lat="29.716178" lon="92.019747">
<time>2016-10-08T05:46:46Z</time></trkpt>
<trkpt lat="29.716022" lon="92.01846">
<time>2016-10-08T05:46:47Z</time></trkpt>
<trkpt lat="29.715865" lon="92.017264">
<time>2016-10-08T05:46:48Z</time></trkpt>
<trkpt lat="29.715729" lon="92.016067">
<time>2016-10-08T05:46:49Z</time></trkpt>
<trkpt lat="29.715641" lon="92.015289">
<time>2016-10-08T05:46:50Z</time></trkpt>
<trkpt lat="29.715613" lon="92.014631">
<time>2016-10-08T05:46:51Z</time></trkpt>
<trkpt lat="29.715605" lon="92.014103">
<time>2016-10-08T05:46:52Z</time></trkpt>
<trkpt lat="29.715616" lon="92.013694">
<time>2016-10-08T05:46:53Z</time></trkpt>
<trkpt lat="29.715647" lon="92.013245">
<time>2016-10-08T05:46:54Z</time></trkpt>
<trkpt lat="29.715688" lon="92.012846">
<time>2016-10-08T05:46:55Z</time></trkpt>
<trkpt lat="29.71576" lon="92.012417">
<time>2016-10-08T05:46:56Z</time></trkpt>
<trkpt lat="29.715861" lon="92.011909">
<time>2016-10-08T05:46:57Z</time></trkpt>
<trkpt lat="29.715942" lon="92.01151">
<time>2016-10-08T05:46:58Z</time></trkpt>
<trkpt lat="29.716084" lon="92.010991">
<time>2016-10-08T05:46:59Z</time></trkpt>
<trkpt lat="29.716377" lon="92.009885">
<time>2016-10-08T05:47:00Z</time></trkpt>
<trkpt lat="29.716812" lon="92.008279">
<time>2016-10-08T05:47:01Z</time></trkpt>
<trkpt lat="29.716903" lon="92.00797">
<time>2016-10-08T05:47:02Z</time></trkpt>
<trkpt lat="29.716984" lon="92.007671">
<time>2016-10-08T05:47:03Z</time></trkpt>
<trkpt lat="29.717085" lon="92.007332">
<time>2016-10-08T05:47:04Z</time></trkpt>
<trkpt lat="29.717155" lon="92.007103">
<time>2016-10-08T05:47:05Z</time></trkpt>
<trkpt lat="29.717296" lon="92.006734">
<time>2016-10-08T05:47:06Z</time></trkpt>
<trkpt lat="29.717437" lon="92.006395">
<time>2016-10-08T05:47:07Z</time></trkpt>
<trkpt lat="29.717528" lon="92.006175">
<time>2016-10-08T05:47:08Z</time></trkpt>
<trkpt lat="29.717669" lon="92.005896">
<time>2016-10-08T05:47:09Z</time></trkpt>
<trkpt lat="29.71779" lon="92.005657">
<time>2016-10-08T05:47:10Z</time></trkpt>
<trkpt lat="29.717991" lon="92.005328">
<time>2016-10-08T05:47:11Z</time></trkpt>
<trkpt lat="29.718443" lon="92.00461">
<time>2016-10-08T05:47:12Z</time></trkpt>
<trkpt lat="29.718925" lon="92.003832">
<time>2016-10-08T05:47:13Z</time></trkpt>
<trkpt lat="29.719337" lon="92.003174">
<time>2016-10-08T05:47:14Z</time></trkpt>
<trkpt lat="29.719719" lon="92.002586">
<time>2016-10-08T05:47:15Z</time></trkpt>
<trkpt lat="29.720111" lon="92.001958">
<time>2016-10-08T05:47:16Z</time></trkpt>
<trkpt lat="29.720563" lon="92.00124">
<time>2016-10-08T05:47:17Z</time></trkpt>
<trkpt lat="29.720995" lon="92.000562">
<time>2016-10-08T05:47:18Z</time></trkpt>
<trkpt lat="29.721316" lon="92.000043">
<time>2016-10-08T05:47:19Z</time></trkpt>
<trkpt lat="29.721658" lon="91.999505">
<time>2016-10-08T05:47:20Z</time></trkpt>
<trkpt lat="29.72219" lon="91.998667">
<time>2016-10-08T05:47:21Z</time></trkpt>
<trkpt lat="29.722823" lon="91.99765">
<time>2016-10-08T05:47:22Z</time></trkpt>
<trkpt lat="29.723577" lon="91.996464">
<time>2016-10-08T05:47:23Z</time></trkpt>
<trkpt lat="29.72439" lon="91.995168">
<time>2016-10-08T05:47:24Z</time></trkpt>
<trkpt lat="29.724903" lon="91.99435">
<time>2016-10-08T05:47:25Z</time></trkpt>
<trkpt lat="29.725797" lon="91.992934">
<time>2016-10-08T05:47:26Z</time></trkpt>
<trkpt lat="29.726601" lon="91.991668">
<time>2016-10-08T05:47:27Z</time></trkpt>
<trkpt lat="29.727194" lon="91.990721">
<time>2016-10-08T05:47:28Z</time></trkpt>
<trkpt lat="29.727847" lon="91.989694">
<time>2016-10-08T05:47:29Z</time></trkpt>
<trkpt lat="29.72851" lon="91.988637">
<time>2016-10-08T05:47:30Z</time></trkpt>
<trkpt lat="29.728932" lon="91.987939">
<time>2016-10-08T05:47:31Z</time></trkpt>
<trkpt lat="29.729273" lon="91.98734">
<time>2016-10-08T05:47:32Z</time></trkpt>
<trkpt lat="29.729555" lon="91.986792">
<time>2016-10-08T05:47:33Z</time></trkpt>
<trkpt lat="29.730058" lon="91.985865">
<time>2016-10-08T05:47:34Z</time></trkpt>
<trkpt lat="29.730581" lon="91.984877">
<time>2016-10-08T05:47:35Z</time></trkpt>
<trkpt lat="29.731154" lon="91.98381">
<time>2016-10-08T05:47:36Z</time></trkpt>
<trkpt lat="29.731536" lon="91.983072">
<time>2016-10-08T05:47:37Z</time></trkpt>
<trkpt lat="29.731988" lon="91.982225">
<time>2016-10-08T05:47:38Z</time></trkpt>
<trkpt lat="29.73238" lon="91.981477">
<time>2016-10-08T05:47:39Z</time></trkpt>
<trkpt lat="29.732682" lon="91.980918">
<time>2016-10-08T05:47:40Z</time></trkpt>
<trkpt lat="29.732983" lon="91.98035">
<time>2016-10-08T05:47:41Z</time></trkpt>
<trkpt lat="29.733205" lon="91.979861">
<time>2016-10-08T05:47:42Z</time></trkpt>
<trkpt lat="29.733487" lon="91.979153">
<time>2016-10-08T05:47:43Z</time></trkpt>
<trkpt lat="29.73389" lon="91.978066">
<time>2016-10-08T05:47:44Z</time></trkpt>
<trkpt lat="29.734333" lon="91.976899">
<time>2016-10-08T05:47:45Z</time></trkpt>
<trkpt lat="29.734756" lon="91.975743">
<time>2016-10-08T05:47:46Z</time></trkpt>
<trkpt lat="29.735089" lon="91.974865">
<time>2016-10-08T05:47:47Z</time></trkpt>
<trkpt lat="29.735451" lon="91.973907">
<time>2016-10-08T05:47:48Z</time></trkpt>
<trkpt lat="29.735864" lon="91.9728">
<time>2016-10-08T05:47:49Z</time></trkpt>
<trkpt lat="29.736237" lon="91.971813">
<time>2016-10-08T05:47:50Z</time></trkpt>
<trkpt lat="29.73658" lon="91.970875">
<time>2016-10-08T05:47:51Z</time></trkpt>
<trkpt lat="29.737073" lon="91.969579">
<time>2016-10-08T05:47:52Z</time></trkpt>
<trkpt lat="29.737486" lon="91.968481">
<time>2016-10-08T05:47:53Z</time></trkpt>
<trkpt lat="29.737869" lon="91.967444">
<time>2016-10-08T05:47:54Z</time></trkpt>
<trkpt lat="29.73811" lon="91.966816">
<time>2016-10-08T05:47:55Z</time></trkpt>
<trkpt lat="29.738503" lon="91.965748">
<time>2016-10-08T05:47:56Z</time></trkpt>
<trkpt lat="29.738815" lon="91.96492">
<time>2016-10-08T05:47:57Z</time></trkpt>
<trkpt lat="29.739047" lon="91.964302">
<time>2016-10-08T05:47:58Z</time></trkpt>
<trkpt lat="29.739137" lon="91.964092">
<time>2016-10-08T05:47:59Z</time></trkpt>
<trkpt lat="29.739218" lon="91.963883">
<time>2016-10-08T05:48:00Z</time></trkpt>
<trkpt lat="29.739338" lon="91.963633">
<time>2016-10-08T05:48:01Z</time></trkpt>
<trkpt lat="29.739449" lon="91.963414">
<time>2016-10-08T05:48:02Z</time></trkpt>
<trkpt lat="29.739559" lon="91.963214">
<time>2016-10-08T05:48:03Z</time></trkpt>
<trkpt lat="29.7397" lon="91.962965">
<time>2016-10-08T05:48:04Z</time></trkpt>
<trkpt lat="29.740011" lon="91.962496">
<time>2016-10-08T05:48:05Z</time></trkpt>
<trkpt lat="29.740553" lon="91.961757">
<time>2016-10-08T05:48:06Z</time></trkpt>
<trkpt lat="29.741155" lon="91.960929">
<time>2016-10-08T05:48:07Z</time></trkpt>
<trkpt lat="29.741847" lon="91.960001">
<time>2016-10-08T05:48:08Z</time></trkpt>
<trkpt lat="29.742389" lon="91.959253">
<time>2016-10-08T05:48:09Z</time></trkpt>
<trkpt lat="29.74285" lon="91.958585">
<time>2016-10-08T05:48:10Z</time></trkpt>
<trkpt lat="29.743141" lon="91.958136">
<time>2016-10-08T05:48:11Z</time></trkpt>
<trkpt lat="29.743804" lon="91.957058">
<time>2016-10-08T05:48:12Z</time></trkpt>
<trkpt lat="29.744687" lon="91.955611">
<time>2016-10-08T05:48:13Z</time></trkpt>
<trkpt lat="29.74558" lon="91.954174">
<time>2016-10-08T05:48:14Z</time></trkpt>
<trkpt lat="29.746162" lon="91.953226">
<time>2016-10-08T05:48:15Z</time></trkpt>
<trkpt lat="29.746764" lon="91.952238">
<time>2016-10-08T05:48:16Z</time></trkpt>
<trkpt lat="29.747186" lon="91.951549">
<time>2016-10-08T05:48:17Z</time></trkpt>
<trkpt lat="29.747607" lon="91.95087">
<time>2016-10-08T05:48:18Z</time></trkpt>
<trkpt lat="29.748048" lon="91.950172">
<time>2016-10-08T05:48:19Z</time></trkpt>
<trkpt lat="29.74846" lon="91.949493">
<time>2016-10-08T05:48:20Z</time></trkpt>
<trkpt lat="29.749112" lon="91.948445">
<time>2016-10-08T05:48:21Z</time></trkpt>
<trkpt lat="29.749593" lon="91.947656">
<time>2016-10-08T05:48:22Z</time></trkpt>
<trkpt lat="29.750045" lon="91.946907">
<time>2016-10-08T05:48:23Z</time></trkpt>
<trkpt lat="29.750095" lon="91.946808">
<time>2016-10-08T05:48:24Z</time></trkpt>
<trkpt lat="29.750115" lon="91.946778">
<time>2016-10-08T05:48:25Z</time></trkpt>
<trkpt lat="29.750135" lon="91.946738">
<time>2016-10-08T05:48:26Z</time></trkpt>
<trkpt lat="29.750205" lon="91.946648">
<time>2016-10-08T05:48:27Z</time></trkpt>
<trkpt lat="29.750877" lon="91.94555">
<time>2016-10-08T05:48:28Z</time></trkpt>
<trkpt lat="29.751409" lon="91.944681">
<time>2016-10-08T05:48:29Z</time></trkpt>
<trkpt lat="29.752091" lon="91.943573">
<time>2016-10-08T05:48:30Z</time></trkpt>
<trkpt lat="29.753274" lon="91.941656">
<time>2016-10-08T05:48:31Z</time></trkpt>
<trkpt lat="29.753936" lon="91.940567">
<time>2016-10-08T05:48:32Z</time></trkpt>
<trkpt lat="29.754488" lon="91.939649">
<time>2016-10-08T05:48:33Z</time></trkpt>
<trkpt lat="29.755099" lon="91.9386">
<time>2016-10-08T05:48:34Z</time></trkpt>
<trkpt lat="29.75541" lon="91.938051">
<time>2016-10-08T05:48:35Z</time></trkpt>
<trkpt lat="29.755711" lon="91.937482">
<time>2016-10-08T05:48:36Z</time></trkpt>
<trkpt lat="29.756373" lon="91.936113">
<time>2016-10-08T05:48:37Z</time></trkpt>
<trkpt lat="29.756484" lon="91.935864">
<time>2016-10-08T05:48:38Z</time></trkpt>
<trkpt lat="29.756564" lon="91.935634">
<time>2016-10-08T05:48:39Z</time></trkpt>
<trkpt lat="29.756644" lon="91.935404">
<time>2016-10-08T05:48:40Z</time></trkpt>
<trkpt lat="29.756695" lon="91.935194">
<time>2016-10-08T05:48:41Z</time></trkpt>
<trkpt lat="29.756745" lon="91.934945">
<time>2016-10-08T05:48:42Z</time></trkpt>
<trkpt lat="29.756856" lon="91.934375">
<time>2016-10-08T05:48:43Z</time></trkpt>
<trkpt lat="29.756926" lon="91.933996">
<time>2016-10-08T05:48:44Z</time></trkpt>
<trkpt lat="29.756967" lon="91.933856">
<time>2016-10-08T05:48:45Z</time></trkpt>
<trkpt lat="29.757047" lon="91.933646">
<time>2016-10-08T05:48:46Z</time></trkpt>
<trkpt lat="29.757157" lon="91.933427">
<time>2016-10-08T05:48:47Z</time></trkpt>
<trkpt lat="29.757268" lon="91.933217">
<time>2016-10-08T05:48:48Z</time></trkpt>
<trkpt lat="29.757618" lon="91.932607">
<time>2016-10-08T05:48:49Z</time></trkpt>
<trkpt lat="29.757729" lon="91.932418">
<time>2016-10-08T05:48:50Z</time></trkpt>
<trkpt lat="29.757889" lon="91.932178">
<time>2016-10-08T05:48:51Z</time></trkpt>
<trkpt lat="29.758149" lon="91.931838">
<time>2016-10-08T05:48:52Z</time></trkpt>
<trkpt lat="29.75847" lon="91.931459">
<time>2016-10-08T05:48:53Z</time></trkpt>
<trkpt lat="29.75886" lon="91.931019">
<time>2016-10-08T05:48:54Z</time></trkpt>
<trkpt lat="29.759011" lon="91.930849">
<time>2016-10-08T05:48:55Z</time></trkpt>
<trkpt lat="29.759091" lon="91.930739">
<time>2016-10-08T05:48:56Z</time></trkpt>
<trkpt lat="29.759171" lon="91.930629">
<time>2016-10-08T05:48:57Z</time></trkpt>
<trkpt lat="29.759231" lon="91.930559">
<time>2016-10-08T05:48:58Z</time></trkpt>
<trkpt lat="29.759361" lon="91.93037">
<time>2016-10-08T05:48:59Z</time></trkpt>
<trkpt lat="29.759461" lon="91.93021">
<time>2016-10-08T05:49:00Z</time></trkpt>
<trkpt lat="29.759762" lon="91.92971">
<time>2016-10-08T05:49:01Z</time></trkpt>
<trkpt lat="29.760263" lon="91.928841">
<time>2016-10-08T05:49:02Z</time></trkpt>
<trkpt lat="29.760694" lon="91.928122">
<time>2016-10-08T05:49:03Z</time></trkpt>
<trkpt lat="29.760964" lon="91.927642">
<time>2016-10-08T05:49:04Z</time></trkpt>
<trkpt lat="29.761125" lon="91.927342">
<time>2016-10-08T05:49:05Z</time></trkpt>
<trkpt lat="29.761806" lon="91.925983">
<time>2016-10-08T05:49:06Z</time></trkpt>
<trkpt lat="29.762027" lon="91.925494">
<time>2016-10-08T05:49:07Z</time></trkpt>
<trkpt lat="29.762147" lon="91.925244">
<time>2016-10-08T05:49:08Z</time></trkpt>
<trkpt lat="29.762287" lon="91.924884">
<time>2016-10-08T05:49:09Z</time></trkpt>
<trkpt lat="29.762538" lon="91.924235">
<time>2016-10-08T05:49:10Z</time></trkpt>
<trkpt lat="29.763039" lon="91.922945">
<time>2016-10-08T05:49:11Z</time></trkpt>
<trkpt lat="29.76345" lon="91.921876">
<time>2016-10-08T05:49:12Z</time></trkpt>
<trkpt lat="29.763591" lon="91.921496">
<time>2016-10-08T05:49:13Z</time></trkpt>
<trkpt lat="29.763841" lon="91.920866">
<time>2016-10-08T05:49:14Z</time></trkpt>
<trkpt lat="29.764773" lon="91.918417">
<time>2016-10-08T05:49:15Z</time></trkpt>
<trkpt lat="29.765184" lon="91.917288">
<time>2016-10-08T05:49:16Z</time></trkpt>
<trkpt lat="29.765955" lon="91.915198">
<time>2016-10-08T05:49:17Z</time></trkpt>
<trkpt lat="29.766516" lon="91.913699">
<time>2016-10-08T05:49:18Z</time></trkpt>
<trkpt lat="29.766636" lon="91.913319">
<time>2016-10-08T05:49:19Z</time></trkpt>
<trkpt lat="29.766747" lon="91.912949">
<time>2016-10-08T05:49:20Z</time></trkpt>
<trkpt lat="29.766887" lon="91.912419">
<time>2016-10-08T05:49:21Z</time></trkpt>
<trkpt lat="29.766967" lon="91.912049">
<time>2016-10-08T05:49:22Z</time></trkpt>
<trkpt lat="29.767017" lon="91.911809">
<time>2016-10-08T05:49:23Z</time></trkpt>
<trkpt lat="29.767458" lon="91.909669">
<time>2016-10-08T05:49:24Z</time></trkpt>
<trkpt lat="29.768029" lon="91.906958">
<time>2016-10-08T05:49:25Z</time></trkpt>
<trkpt lat="29.768229" lon="91.905948">
<time>2016-10-08T05:49:26Z</time></trkpt>
<trkpt lat="29.76881" lon="91.903147">
<time>2016-10-08T05:49:27Z</time></trkpt>
<trkpt lat="29.76892" lon="91.902707">
<time>2016-10-08T05:49:28Z</time></trkpt>
<trkpt lat="29.76899" lon="91.902406">
<time>2016-10-08T05:49:29Z</time></trkpt>
<trkpt lat="29.76904" lon="91.902096">
<time>2016-10-08T05:49:30Z</time></trkpt>
<trkpt lat="29.76915" lon="91.901566">
<time>2016-10-08T05:49:31Z</time></trkpt>
<trkpt lat="29.76922" lon="91.901196">
<time>2016-10-08T05:49:32Z</time></trkpt>
<trkpt lat="29.769719" lon="91.898884">
<time>2016-10-08T05:49:33Z</time></trkpt>
<trkpt lat="29.770009" lon="91.897544">
<time>2016-10-08T05:49:34Z</time></trkpt>
<trkpt lat="29.770159" lon="91.896843">
<time>2016-10-08T05:49:35Z</time></trkpt>
<trkpt lat="29.770279" lon="91.896293">
<time>2016-10-08T05:49:36Z</time></trkpt>
<trkpt lat="29.770848" lon="91.89369">
<time>2016-10-08T05:49:37Z</time></trkpt>
<trkpt lat="29.771288" lon="91.891709">
<time>2016-10-08T05:49:38Z</time></trkpt>
<trkpt lat="29.771687" lon="91.889847">
<time>2016-10-08T05:49:39Z</time></trkpt>
<trkpt lat="29.772106" lon="91.887874">
<time>2016-10-08T05:49:40Z</time></trkpt>
<trkpt lat="29.772355" lon="91.886523">
<time>2016-10-08T05:49:41Z</time></trkpt>
<trkpt lat="29.772674" lon="91.884811">
<time>2016-10-08T05:49:42Z</time></trkpt>
<trkpt lat="29.773341" lon="91.881075">
<time>2016-10-08T05:49:43Z</time></trkpt>
<trkpt lat="29.773441" lon="91.880485">
<time>2016-10-08T05:49:44Z</time></trkpt>
<trkpt lat="29.77358" lon="91.879743">
<time>2016-10-08T05:49:45Z</time></trkpt>
<trkpt lat="29.7736" lon="91.879633">
<time>2016-10-08T05:49:46Z</time></trkpt>
<trkpt lat="29.77365" lon="91.879463">
<time>2016-10-08T05:49:47Z</time></trkpt>
<trkpt lat="29.773709" lon="91.879313">
<time>2016-10-08T05:49:48Z</time></trkpt>
<trkpt lat="29.773819" lon="91.879112">
<time>2016-10-08T05:49:49Z</time></trkpt>
<trkpt lat="29.773929" lon="91.878952">
<time>2016-10-08T05:49:50Z</time></trkpt>
<trkpt lat="29.773999" lon="91.878872">
<time>2016-10-08T05:49:51Z</time></trkpt>
<trkpt lat="29.774159" lon="91.878742">
<time>2016-10-08T05:49:52Z</time></trkpt>
<trkpt lat="29.774429" lon="91.878572">
<time>2016-10-08T05:49:53Z</time></trkpt>
<trkpt lat="29.775238" lon="91.878081">
<time>2016-10-08T05:49:54Z</time></trkpt>
<trkpt lat="29.775458" lon="91.877941">
<time>2016-10-08T05:49:55Z</time></trkpt>
<trkpt lat="29.775638" lon="91.8778">
<time>2016-10-08T05:49:56Z</time></trkpt>
<trkpt lat="29.775798" lon="91.87765">
<time>2016-10-08T05:49:57Z</time></trkpt>
<trkpt lat="29.775908" lon="91.87751">
<time>2016-10-08T05:49:58Z</time></trkpt>
<trkpt lat="29.776017" lon="91.87735">
<time>2016-10-08T05:49:59Z</time></trkpt>
<trkpt lat="29.776137" lon="91.877169">
<time>2016-10-08T05:50:00Z</time></trkpt>
<trkpt lat="29.776317" lon="91.876869">
<time>2016-10-08T05:50:01Z</time></trkpt>
<trkpt lat="29.776407" lon="91.876679">
<time>2016-10-08T05:50:02Z</time></trkpt>
<trkpt lat="29.776516" lon="91.876388">
<time>2016-10-08T05:50:03Z</time></trkpt>
<trkpt lat="29.776616" lon="91.876017">
<time>2016-10-08T05:50:04Z</time></trkpt>
<trkpt lat="29.776716" lon="91.875627">
<time>2016-10-08T05:50:05Z</time></trkpt>
<trkpt lat="29.776795" lon="91.875286">
<time>2016-10-08T05:50:06Z</time></trkpt>
<trkpt lat="29.776845" lon="91.875056">
<time>2016-10-08T05:50:07Z</time></trkpt>
<trkpt lat="29.776865" lon="91.874916">
<time>2016-10-08T05:50:08Z</time></trkpt>
<trkpt lat="29.776875" lon="91.874815">
<time>2016-10-08T05:50:09Z</time></trkpt>
<trkpt lat="29.776885" lon="91.874745">
<time>2016-10-08T05:50:10Z</time></trkpt>
<trkpt lat="29.776895" lon="91.874635">
<time>2016-10-08T05:50:11Z</time></trkpt>
<trkpt lat="29.776895" lon="91.874485">
<time>2016-10-08T05:50:12Z</time></trkpt>
<trkpt lat="29.776884" lon="91.874385">
<time>2016-10-08T05:50:13Z</time></trkpt>
<trkpt lat="29.776874" lon="91.874264">
<time>2016-10-08T05:50:14Z</time></trkpt>
<trkpt lat="29.776864" lon="91.874144">
<time>2016-10-08T05:50:15Z</time></trkpt>
<trkpt lat="29.776844" lon="91.874004">
<time>2016-10-08T05:50:16Z</time></trkpt>
<trkpt lat="29.776794" lon="91.873663">
<time>2016-10-08T05:50:17Z</time></trkpt>
<trkpt lat="29.776733" lon="91.873353">
<time>2016-10-08T05:50:18Z</time></trkpt>
<trkpt lat="29.776673" lon="91.873002">
<time>2016-10-08T05:50:19Z</time></trkpt>
<trkpt lat="29.776613" lon="91.872682">
<time>2016-10-08T05:50:20Z</time></trkpt>
<trkpt lat="29.776552" lon="91.872361">
<time>2016-10-08T05:50:21Z</time></trkpt>
<trkpt lat="29.776502" lon="91.872061">
<time>2016-10-08T05:50:22Z</time></trkpt>
<trkpt lat="29.776432" lon="91.8717">
<time>2016-10-08T05:50:23Z</time></trkpt>
<trkpt lat="29.776381" lon="91.871399">
<time>2016-10-08T05:50:24Z</time></trkpt>
<trkpt lat="29.776351" lon="91.871169">
<time>2016-10-08T05:50:25Z</time></trkpt>
<trkpt lat="29.776331" lon="91.870778">
<time>2016-10-08T05:50:26Z</time></trkpt>
<trkpt lat="29.77632" lon="91.870448">
<time>2016-10-08T05:50:27Z</time></trkpt>
<trkpt lat="29.77632" lon="91.870127">
<time>2016-10-08T05:50:28Z</time></trkpt>
<trkpt lat="29.776309" lon="91.869786">
<time>2016-10-08T05:50:29Z</time></trkpt>
<trkpt lat="29.776309" lon="91.869456">
<time>2016-10-08T05:50:30Z</time></trkpt>
<trkpt lat="29.776309" lon="91.869135">
<time>2016-10-08T05:50:31Z</time></trkpt>
<trkpt lat="29.776298" lon="91.868784">
<time>2016-10-08T05:50:32Z</time></trkpt>
<trkpt lat="29.776298" lon="91.868454">
<time>2016-10-08T05:50:33Z</time></trkpt>
<trkpt lat="29.776287" lon="91.868143">
<time>2016-10-08T05:50:34Z</time></trkpt>
<trkpt lat="29.776287" lon="91.867802">
<time>2016-10-08T05:50:35Z</time></trkpt>
<trkpt lat="29.776265" lon="91.865889">
<time>2016-10-08T05:50:36Z</time></trkpt>
<trkpt lat="29.776242" lon="91.863995">
<time>2016-10-08T05:50:37Z</time></trkpt>
<trkpt lat="29.776209" lon="91.86203">
<time>2016-10-08T05:50:38Z</time></trkpt>
<trkpt lat="29.776196" lon="91.859826">
<time>2016-10-08T05:50:39Z</time></trkpt>
<trkpt lat="29.776165" lon="91.859034">
<time>2016-10-08T05:50:40Z</time></trkpt>
<trkpt lat="29.776153" lon="91.857611">
<time>2016-10-08T05:50:41Z</time></trkpt>
<trkpt lat="29.776131" lon="91.856137">
<time>2016-10-08T05:50:42Z</time></trkpt>
<trkpt lat="29.776061" lon="91.850163">
<time>2016-10-08T05:50:43Z</time></trkpt>
<trkpt lat="29.776003" lon="91.845662">
<time>2016-10-08T05:50:44Z</time></trkpt>
<trkpt lat="29.775991" lon="91.844629">
<time>2016-10-08T05:50:45Z</time></trkpt>
<trkpt lat="29.77598" lon="91.843917">
<time>2016-10-08T05:50:46Z</time></trkpt>
<trkpt lat="29.77598" lon="91.843857">
<time>2016-10-08T05:50:47Z</time></trkpt>
<trkpt lat="29.77599" lon="91.843727">
<time>2016-10-08T05:50:48Z</time></trkpt>
<trkpt lat="29.776" lon="91.843617">
<time>2016-10-08T05:50:49Z</time></trkpt>
<trkpt lat="29.776019" lon="91.843506">
<time>2016-10-08T05:50:50Z</time></trkpt>
<trkpt lat="29.776059" lon="91.843376">
<time>2016-10-08T05:50:51Z</time></trkpt>
<trkpt lat="29.776109" lon="91.843236">
<time>2016-10-08T05:50:52Z</time></trkpt>
<trkpt lat="29.776248" lon="91.842935">
<time>2016-10-08T05:50:53Z</time></trkpt>
<trkpt lat="29.776348" lon="91.842724">
<time>2016-10-08T05:50:54Z</time></trkpt>
<trkpt lat="29.776487" lon="91.842484">
<time>2016-10-08T05:50:55Z</time></trkpt>
<trkpt lat="29.777374" lon="91.840859">
<time>2016-10-08T05:50:56Z</time></trkpt>
<trkpt lat="29.777644" lon="91.840378">
<time>2016-10-08T05:50:57Z</time></trkpt>
<trkpt lat="29.778052" lon="91.839616">
<time>2016-10-08T05:50:58Z</time></trkpt>
<trkpt lat="29.778142" lon="91.839406">
<time>2016-10-08T05:50:59Z</time></trkpt>
<trkpt lat="29.778201" lon="91.839245">
<time>2016-10-08T05:51:00Z</time></trkpt>
<trkpt lat="29.778251" lon="91.839095">
<time>2016-10-08T05:51:01Z</time></trkpt>
<trkpt lat="29.778331" lon="91.838834">
<time>2016-10-08T05:51:02Z</time></trkpt>
<trkpt lat="29.77838" lon="91.838654">
<time>2016-10-08T05:51:03Z</time></trkpt>
<trkpt lat="29.77843" lon="91.838393">
<time>2016-10-08T05:51:04Z</time></trkpt>
<trkpt lat="29.778469" lon="91.838072">
<time>2016-10-08T05:51:05Z</time></trkpt>
<trkpt lat="29.778499" lon="91.837671">
<time>2016-10-08T05:51:06Z</time></trkpt>
<trkpt lat="29.778518" lon="91.83737">
<time>2016-10-08T05:51:07Z</time></trkpt>
<trkpt lat="29.778537" lon="91.837079">
<time>2016-10-08T05:51:08Z</time></trkpt>
<trkpt lat="29.778596" lon="91.836177">
<time>2016-10-08T05:51:09Z</time></trkpt>
<trkpt lat="29.778645" lon="91.835565">
<time>2016-10-08T05:51:10Z</time></trkpt>
<trkpt lat="29.778674" lon="91.835335">
<time>2016-10-08T05:51:11Z</time></trkpt>
<trkpt lat="29.778724" lon="91.835094">
<time>2016-10-08T05:51:12Z</time></trkpt>
<trkpt lat="29.778773" lon="91.834894">
<time>2016-10-08T05:51:13Z</time></trkpt>
<trkpt lat="29.778923" lon="91.834432">
<time>2016-10-08T05:51:14Z</time></trkpt>
<trkpt lat="29.779092" lon="91.834061">
<time>2016-10-08T05:51:15Z</time></trkpt>
<trkpt lat="29.779261" lon="91.833741">
<time>2016-10-08T05:51:16Z</time></trkpt>
<trkpt lat="29.779411" lon="91.83349">
<time>2016-10-08T05:51:17Z</time></trkpt>
<trkpt lat="29.780188" lon="91.832136">
<time>2016-10-08T05:51:18Z</time></trkpt>
<trkpt lat="29.781085" lon="91.830582">
<time>2016-10-08T05:51:19Z</time></trkpt>
<trkpt lat="29.781314" lon="91.830171">
<time>2016-10-08T05:51:20Z</time></trkpt>
<trkpt lat="29.782211" lon="91.828627">
<time>2016-10-08T05:51:21Z</time></trkpt>
<trkpt lat="29.783118" lon="91.827053">
<time>2016-10-08T05:51:22Z</time></trkpt>
<trkpt lat="29.783916" lon="91.825679">
<time>2016-10-08T05:51:23Z</time></trkpt>
<trkpt lat="29.784145" lon="91.825278">
<time>2016-10-08T05:51:24Z</time></trkpt>
<trkpt lat="29.784563" lon="91.824566">
<time>2016-10-08T05:51:25Z</time></trkpt>
<trkpt lat="29.784733" lon="91.824245">
<time>2016-10-08T05:51:26Z</time></trkpt>
<trkpt lat="29.785191" lon="91.823463">
<time>2016-10-08T05:51:27Z</time></trkpt>
<trkpt lat="29.785959" lon="91.822139">
<time>2016-10-08T05:51:28Z</time></trkpt>
<trkpt lat="29.786856" lon="91.820575">
<time>2016-10-08T05:51:29Z</time></trkpt>
<trkpt lat="29.787494" lon="91.819482">
<time>2016-10-08T05:51:30Z</time></trkpt>
<trkpt lat="29.787992" lon="91.81864">
<time>2016-10-08T05:51:31Z</time></trkpt>
<trkpt lat="29.788371" lon="91.818018">
<time>2016-10-08T05:51:32Z</time></trkpt>
<trkpt lat="29.78878" lon="91.817387">
<time>2016-10-08T05:51:33Z</time></trkpt>
<trkpt lat="29.789667" lon="91.816093">
<time>2016-10-08T05:51:34Z</time></trkpt>
<trkpt lat="29.790954" lon="91.814238">
<time>2016-10-08T05:51:35Z</time></trkpt>
<trkpt lat="29.79228" lon="91.812313">
<time>2016-10-08T05:51:36Z</time></trkpt>
<trkpt lat="29.793756" lon="91.810158">
<time>2016-10-08T05:51:37Z</time></trkpt>
<trkpt lat="29.793956" lon="91.809897">
<time>2016-10-08T05:51:38Z</time></trkpt>
<trkpt lat="29.794145" lon="91.809616">
<time>2016-10-08T05:51:39Z</time></trkpt>
<trkpt lat="29.794335" lon="91.809346">
<time>2016-10-08T05:51:40Z</time></trkpt>
<trkpt lat="29.794973" lon="91.808413">
<time>2016-10-08T05:51:41Z</time></trkpt>
<trkpt lat="29.795392" lon="91.807822">
<time>2016-10-08T05:51:42Z</time></trkpt>
<trkpt lat="29.796479" lon="91.806248">
<time>2016-10-08T05:51:43Z</time></trkpt>
<trkpt lat="29.797726" lon="91.804423">
<time>2016-10-08T05:51:44Z</time></trkpt>
<trkpt lat="29.798584" lon="91.80319">
<time>2016-10-08T05:51:45Z</time></trkpt>
<trkpt lat="29.799471" lon="91.801907">
<time>2016-10-08T05:51:46Z</time></trkpt>
<trkpt lat="29.800459" lon="91.800474">
<time>2016-10-08T05:51:47Z</time></trkpt>
<trkpt lat="29.801526" lon="91.79893">
<time>2016-10-08T05:51:48Z</time></trkpt>
<trkpt lat="29.802773" lon="91.797126">
<time>2016-10-08T05:51:49Z</time></trkpt>
<trkpt lat="29.804021" lon="91.795302">
<time>2016-10-08T05:51:50Z</time></trkpt>
<trkpt lat="29.80447" lon="91.79466">
<time>2016-10-08T05:51:51Z</time></trkpt>
<trkpt lat="29.805188" lon="91.793628">
<time>2016-10-08T05:51:52Z</time></trkpt>
<trkpt lat="29.806435" lon="91.791814">
<time>2016-10-08T05:51:53Z</time></trkpt>
<trkpt lat="29.807313" lon="91.790541">
<time>2016-10-08T05:51:54Z</time></trkpt>
<trkpt lat="29.807433" lon="91.790341">
<time>2016-10-08T05:51:55Z</time></trkpt>
<trkpt lat="29.807553" lon="91.79011">
<time>2016-10-08T05:51:56Z</time></trkpt>
<trkpt lat="29.807662" lon="91.78987">
<time>2016-10-08T05:51:57Z</time></trkpt>
<trkpt lat="29.807732" lon="91.7897">
<time>2016-10-08T05:51:58Z</time></trkpt>
<trkpt lat="29.807862" lon="91.789359">
<time>2016-10-08T05:51:59Z</time></trkpt>
<trkpt lat="29.808141" lon="91.788637">
<time>2016-10-08T05:52:00Z</time></trkpt>
<trkpt lat="29.809028" lon="91.786353">
<time>2016-10-08T05:52:01Z</time></trkpt>
<trkpt lat="29.809556" lon="91.78501">
<time>2016-10-08T05:52:02Z</time></trkpt>
<trkpt lat="29.810234" lon="91.783247">
<time>2016-10-08T05:52:03Z</time></trkpt>
<trkpt lat="29.811151" lon="91.780912">
<time>2016-10-08T05:52:04Z</time></trkpt>
<trkpt lat="29.811151" lon="91.780912">
<time>2016-10-08T05:52:05Z</time></trkpt>
<trkpt lat="29.812901" lon="91.780742">
<time>2016-10-08T05:52:06Z</time></trkpt>
<trkpt lat="29.812901" lon="91.780742">
<time>2016-10-08T05:52:07Z</time></trkpt>
<trkpt lat="29.813" lon="91.780502">
<time>2016-10-08T05:52:08Z</time></trkpt>
<trkpt lat="29.814686" lon="91.776926">
<time>2016-10-08T05:52:09Z</time></trkpt>
<trkpt lat="29.815604" lon="91.774972">
<time>2016-10-08T05:52:10Z</time></trkpt>
<trkpt lat="29.815644" lon="91.774882">
<time>2016-10-08T05:52:11Z</time></trkpt>
<trkpt lat="29.816373" lon="91.77323">
<time>2016-10-08T05:52:12Z</time></trkpt>
<trkpt lat="29.816672" lon="91.772529">
<time>2016-10-08T05:52:13Z</time></trkpt>
<trkpt lat="29.816702" lon="91.772479">
<time>2016-10-08T05:52:14Z</time></trkpt>
<trkpt lat="29.817541" lon="91.771167">
<time>2016-10-08T05:52:15Z</time></trkpt>
<trkpt lat="29.817781" lon="91.770756">
<time>2016-10-08T05:52:16Z</time></trkpt>
<trkpt lat="29.818849" lon="91.769004">
<time>2016-10-08T05:52:17Z</time></trkpt>
<trkpt lat="29.819978" lon="91.767131">
<time>2016-10-08T05:52:18Z</time></trkpt>
<trkpt lat="29.820118" lon="91.766901">
<time>2016-10-08T05:52:19Z</time></trkpt>
<trkpt lat="29.821177" lon="91.765419">
<time>2016-10-08T05:52:20Z</time></trkpt>
<trkpt lat="29.821996" lon="91.764568">
<time>2016-10-08T05:52:21Z</time></trkpt>
<trkpt lat="29.823385" lon="91.763106">
<time>2016-10-08T05:52:22Z</time></trkpt>
<trkpt lat="29.824775" lon="91.762095">
<time>2016-10-08T05:52:23Z</time></trkpt>
<trkpt lat="29.825184" lon="91.761695">
<time>2016-10-08T05:52:24Z</time></trkpt>
<trkpt lat="29.825514" lon="91.761314">
<time>2016-10-08T05:52:25Z</time></trkpt>
<trkpt lat="29.825844" lon="91.760884">
<time>2016-10-08T05:52:26Z</time></trkpt>
<trkpt lat="29.826154" lon="91.760343">
<time>2016-10-08T05:52:27Z</time></trkpt>
<trkpt lat="29.826873" lon="91.758762">
<time>2016-10-08T05:52:28Z</time></trkpt>
<trkpt lat="29.829941" lon="91.752937">
<time>2016-10-08T05:52:29Z</time></trkpt>
<trkpt lat="29.831751" lon="91.750056">
<time>2016-10-08T05:52:30Z</time></trkpt>
<trkpt lat="29.833381" lon="91.747955">
<time>2016-10-08T05:52:31Z</time></trkpt>
<trkpt lat="29.837691" lon="91.742503">
<time>2016-10-08T05:52:32Z</time></trkpt>
<trkpt lat="29.838952" lon="91.740772">
<time>2016-10-08T05:52:33Z</time></trkpt>
<trkpt lat="29.838952" lon="91.740772">
<time>2016-10-08T05:52:34Z</time></trkpt>
<trkpt lat="29.838912" lon="91.740752">
<time>2016-10-08T05:52:35Z</time></trkpt>
<trkpt lat="29.838002" lon="91.740142">
<time>2016-10-08T05:52:36Z</time></trkpt>
<trkpt lat="29.837592" lon="91.739872">
<time>2016-10-08T05:52:37Z</time></trkpt>
<trkpt lat="29.837592" lon="91.739872">
<time>2016-10-08T05:52:38Z</time></trkpt>
<trkpt lat="29.838403" lon="91.738282">
<time>2016-10-08T05:52:39Z</time></trkpt>
<trkpt lat="29.839914" lon="91.735342">
<time>2016-10-08T05:52:40Z</time></trkpt>
<trkpt lat="29.840014" lon="91.735122">
<time>2016-10-08T05:52:41Z</time></trkpt>
<trkpt lat="29.840144" lon="91.734732">
<time>2016-10-08T05:52:42Z</time></trkpt>
<trkpt lat="29.840265" lon="91.734213">
<time>2016-10-08T05:52:43Z</time></trkpt>
<trkpt lat="29.840345" lon="91.733913">
<time>2016-10-08T05:52:44Z</time></trkpt>
<trkpt lat="29.840375" lon="91.733663">
<time>2016-10-08T05:52:45Z</time></trkpt>
<trkpt lat="29.840375" lon="91.733393">
<time>2016-10-08T05:52:46Z</time></trkpt>
<trkpt lat="29.840396" lon="91.732143">
<time>2016-10-08T05:52:47Z</time></trkpt>
<trkpt lat="29.840427" lon="91.729894">
<time>2016-10-08T05:52:48Z</time></trkpt>
<trkpt lat="29.840449" lon="91.727774">
<time>2016-10-08T05:52:49Z</time></trkpt>
<trkpt lat="29.840449" lon="91.727774">
<time>2016-10-08T05:52:50Z</time></trkpt>
<trkpt lat="29.840469" lon="91.727155">
<time>2016-10-08T05:52:51Z</time></trkpt>
<trkpt lat="29.84046" lon="91.726955">
<time>2016-10-08T05:52:52Z</time></trkpt>
<trkpt lat="29.84038" lon="91.726735">
<time>2016-10-08T05:52:53Z</time></trkpt>
<trkpt lat="29.84014" lon="91.726285">
<time>2016-10-08T05:52:54Z</time></trkpt>
<trkpt lat="29.839501" lon="91.725326">
<time>2016-10-08T05:52:55Z</time></trkpt>
<trkpt lat="29.838612" lon="91.723916">
<time>2016-10-08T05:52:56Z</time></trkpt>
<trkpt lat="29.837444" lon="91.722058">
<time>2016-10-08T05:52:57Z</time></trkpt>
<trkpt lat="29.836825" lon="91.721078">
<time>2016-10-08T05:52:58Z</time></trkpt>
<trkpt lat="29.836416" lon="91.720459">
<time>2016-10-08T05:52:59Z</time></trkpt>
<trkpt lat="29.836416" lon="91.720459">
<time>2016-10-08T05:53:00Z</time></trkpt>
<trkpt lat="29.836396" lon="91.720249">
<time>2016-10-08T05:53:01Z</time></trkpt>
<trkpt lat="29.836356" lon="91.720019">
<time>2016-10-08T05:53:02Z</time></trkpt>
<trkpt lat="29.836327" lon="91.719859">
<time>2016-10-08T05:53:03Z</time></trkpt>
<trkpt lat="29.836257" lon="91.719479">
<time>2016-10-08T05:53:04Z</time></trkpt>
<trkpt lat="29.836108" lon="91.71867">
<time>2016-10-08T05:53:05Z</time></trkpt>
<trkpt lat="29.835979" lon="91.717951">
<time>2016-10-08T05:53:06Z</time></trkpt>
<trkpt lat="29.835899" lon="91.717481">
<time>2016-10-08T05:53:07Z</time></trkpt>
<trkpt lat="29.83574" lon="91.716612">
<time>2016-10-08T05:53:08Z</time></trkpt>
<trkpt lat="29.835651" lon="91.716122">
<time>2016-10-08T05:53:09Z</time></trkpt>
<trkpt lat="29.835611" lon="91.715842">
<time>2016-10-08T05:53:10Z</time></trkpt>
<trkpt lat="29.835551" lon="91.715543">
<time>2016-10-08T05:53:11Z</time></trkpt>
<trkpt lat="29.835492" lon="91.715213">
<time>2016-10-08T05:53:12Z</time></trkpt>
<trkpt lat="29.835432" lon="91.714813">
<time>2016-10-08T05:53:13Z</time></trkpt>
<trkpt lat="29.835403" lon="91.714594">
<time>2016-10-08T05:53:14Z</time></trkpt>
<trkpt lat="29.835363" lon="91.714294">
<time>2016-10-08T05:53:15Z</time></trkpt>
<trkpt lat="29.835333" lon="91.714114">
<time>2016-10-08T05:53:16Z</time></trkpt>
<trkpt lat="29.835294" lon="91.713684">
<time>2016-10-08T05:53:17Z</time></trkpt>
<trkpt lat="29.835264" lon="91.713255">
<time>2016-10-08T05:53:18Z</time></trkpt>
<trkpt lat="29.835254" lon="91.713105">
<time>2016-10-08T05:53:19Z</time></trkpt>
<trkpt lat="29.835245" lon="91.712925">
<time>2016-10-08T05:53:20Z</time></trkpt>
<trkpt lat="29.835225" lon="91.712695">
<time>2016-10-08T05:53:21Z</time></trkpt>
<trkpt lat="29.835195" lon="91.712386">
<time>2016-10-08T05:53:22Z</time></trkpt>
<trkpt lat="29.835185" lon="91.712286">
<time>2016-10-08T05:53:23Z</time></trkpt>
<trkpt lat="29.835176" lon="91.712166">
<time>2016-10-08T05:53:24Z</time></trkpt>
<trkpt lat="29.835156" lon="91.712036">
<time>2016-10-08T05:53:25Z</time></trkpt>
<trkpt lat="29.835136" lon="91.711856">
<time>2016-10-08T05:53:26Z</time></trkpt>
<trkpt lat="29.835106" lon="91.711587">
<time>2016-10-08T05:53:27Z</time></trkpt>
<trkpt lat="29.835087" lon="91.711437">
<time>2016-10-08T05:53:28Z</time></trkpt>
<trkpt lat="29.835067" lon="91.711287">
<time>2016-10-08T05:53:29Z</time></trkpt>
<trkpt lat="29.835037" lon="91.711147">
<time>2016-10-08T05:53:30Z</time></trkpt>
<trkpt lat="29.834987" lon="91.710847">
<time>2016-10-08T05:53:31Z</time></trkpt>
<trkpt lat="29.834938" lon="91.710568">
<time>2016-10-08T05:53:32Z</time></trkpt>
<trkpt lat="29.834888" lon="91.710248">
<time>2016-10-08T05:53:33Z</time></trkpt>
<trkpt lat="29.834789" lon="91.709729">
<time>2016-10-08T05:53:34Z</time></trkpt>
<trkpt lat="29.834719" lon="91.709369">
<time>2016-10-08T05:53:35Z</time></trkpt>
<trkpt lat="29.83465" lon="91.708919">
<time>2016-10-08T05:53:36Z</time></trkpt>
<trkpt lat="29.83459" lon="91.70862">
<time>2016-10-08T05:53:37Z</time></trkpt>
<trkpt lat="29.834541" lon="91.70834">
<time>2016-10-08T05:53:38Z</time></trkpt>
<trkpt lat="29.834471" lon="91.707961">
<time>2016-10-08T05:53:39Z</time></trkpt>
<trkpt lat="29.834392" lon="91.707541">
<time>2016-10-08T05:53:40Z</time></trkpt>
<trkpt lat="29.834342" lon="91.707251">
<time>2016-10-08T05:53:41Z</time></trkpt>
<trkpt lat="29.834312" lon="91.707122">
<time>2016-10-08T05:53:42Z</time></trkpt>
<trkpt lat="29.834283" lon="91.706972">
<time>2016-10-08T05:53:43Z</time></trkpt>
<trkpt lat="29.834263" lon="91.706882">
<time>2016-10-08T05:53:44Z</time></trkpt>
<trkpt lat="29.834223" lon="91.706772">
<time>2016-10-08T05:53:45Z</time></trkpt>
<trkpt lat="29.834183" lon="91.706642">
<time>2016-10-08T05:53:46Z</time></trkpt>
<trkpt lat="29.834123" lon="91.706522">
<time>2016-10-08T05:53:47Z</time></trkpt>
<trkpt lat="29.834093" lon="91.706452">
<time>2016-10-08T05:53:48Z</time></trkpt>
<trkpt lat="29.834044" lon="91.706352">
<time>2016-10-08T05:53:49Z</time></trkpt>
<trkpt lat="29.833994" lon="91.706263">
<time>2016-10-08T05:53:50Z</time></trkpt>
<trkpt lat="29.833874" lon="91.706083">
<time>2016-10-08T05:53:51Z</time></trkpt>
<trkpt lat="29.833744" lon="91.705893">
<time>2016-10-08T05:53:52Z</time></trkpt>
<trkpt lat="29.833654" lon="91.705753">
<time>2016-10-08T05:53:53Z</time></trkpt>
<trkpt lat="29.833505" lon="91.705533">
<time>2016-10-08T05:53:54Z</time></trkpt>
<trkpt lat="29.833375" lon="91.705344">
<time>2016-10-08T05:53:55Z</time></trkpt>
<trkpt lat="29.833265" lon="91.705164">
<time>2016-10-08T05:53:56Z</time></trkpt>
<trkpt lat="29.833196" lon="91.705044">
<time>2016-10-08T05:53:57Z</time></trkpt>
<trkpt lat="29.833126" lon="91.704924">
<time>2016-10-08T05:53:58Z</time></trkpt>
<trkpt lat="29.833066" lon="91.704794">
<time>2016-10-08T05:53:59Z</time></trkpt>
<trkpt lat="29.832986" lon="91.704625">
<time>2016-10-08T05:54:00Z</time></trkpt>
<trkpt lat="29.832887" lon="91.704415">
<time>2016-10-08T05:54:01Z</time></trkpt>
<trkpt lat="29.832777" lon="91.704165">
<time>2016-10-08T05:54:02Z</time></trkpt>
<trkpt lat="29.832677" lon="91.703945">
<time>2016-10-08T05:54:03Z</time></trkpt>
<trkpt lat="29.832328" lon="91.703146">
<time>2016-10-08T05:54:04Z</time></trkpt>
<trkpt lat="29.83192" lon="91.702208">
<time>2016-10-08T05:54:05Z</time></trkpt>
<trkpt lat="29.831372" lon="91.700949">
<time>2016-10-08T05:54:06Z</time></trkpt>
<trkpt lat="29.831193" lon="91.70052">
<time>2016-10-08T05:54:07Z</time></trkpt>
<trkpt lat="29.831023" lon="91.700111">
<time>2016-10-08T05:54:08Z</time></trkpt>
<trkpt lat="29.830794" lon="91.699541">
<time>2016-10-08T05:54:09Z</time></trkpt>
<trkpt lat="29.830466" lon="91.698673">
<time>2016-10-08T05:54:10Z</time></trkpt>
<trkpt lat="29.830107" lon="91.697694">
<time>2016-10-08T05:54:11Z</time></trkpt>
<trkpt lat="29.829988" lon="91.697324">
<time>2016-10-08T05:54:12Z</time></trkpt>
<trkpt lat="29.829928" lon="91.697095">
<time>2016-10-08T05:54:13Z</time></trkpt>
<trkpt lat="29.829869" lon="91.696835">
<time>2016-10-08T05:54:14Z</time></trkpt>
<trkpt lat="29.829462" lon="91.694569">
<time>2016-10-08T05:54:15Z</time></trkpt>
<trkpt lat="29.829403" lon="91.694319">
<time>2016-10-08T05:54:16Z</time></trkpt>
<trkpt lat="29.829313" lon="91.694059">
<time>2016-10-08T05:54:17Z</time></trkpt>
<trkpt lat="29.829214" lon="91.69382">
<time>2016-10-08T05:54:18Z</time></trkpt>
<trkpt lat="29.829104" lon="91.6936">
<time>2016-10-08T05:54:19Z</time></trkpt>
<trkpt lat="29.828905" lon="91.69329">
<time>2016-10-08T05:54:20Z</time></trkpt>
<trkpt lat="29.828526" lon="91.692681">
<time>2016-10-08T05:54:21Z</time></trkpt>
<trkpt lat="29.828306" lon="91.692362">
<time>2016-10-08T05:54:22Z</time></trkpt>
<trkpt lat="29.828127" lon="91.692122">
<time>2016-10-08T05:54:23Z</time></trkpt>
<trkpt lat="29.827897" lon="91.691863">
<time>2016-10-08T05:54:24Z</time></trkpt>
<trkpt lat="29.827608" lon="91.691593">
<time>2016-10-08T05:54:25Z</time></trkpt>
<trkpt lat="29.824912" lon="91.689407">
<time>2016-10-08T05:54:26Z</time></trkpt>
<trkpt lat="29.824373" lon="91.688947">
<time>2016-10-08T05:54:27Z</time></trkpt>
<trkpt lat="29.823983" lon="91.688558">
<time>2016-10-08T05:54:28Z</time></trkpt>
<trkpt lat="29.823694" lon="91.688209">
<time>2016-10-08T05:54:29Z</time></trkpt>
<trkpt lat="29.823275" lon="91.68759">
<time>2016-10-08T05:54:30Z</time></trkpt>
<trkpt lat="29.822437" lon="91.686372">
<time>2016-10-08T05:54:31Z</time></trkpt>
<trkpt lat="29.822188" lon="91.685982">
<time>2016-10-08T05:54:32Z</time></trkpt>
<trkpt lat="29.821849" lon="91.685433">
<time>2016-10-08T05:54:33Z</time></trkpt>
<trkpt lat="29.821411" lon="91.684654">
<time>2016-10-08T05:54:34Z</time></trkpt>
<trkpt lat="29.820683" lon="91.683377">
<time>2016-10-08T05:54:35Z</time></trkpt>
<trkpt lat="29.820454" lon="91.682997">
<time>2016-10-08T05:54:36Z</time></trkpt>
<trkpt lat="29.820284" lon="91.682748">
<time>2016-10-08T05:54:37Z</time></trkpt>
<trkpt lat="29.819995" lon="91.682348">
<time>2016-10-08T05:54:38Z</time></trkpt>
<trkpt lat="29.819795" lon="91.682099">
<time>2016-10-08T05:54:39Z</time></trkpt>
<trkpt lat="29.819616" lon="91.681909">
<time>2016-10-08T05:54:40Z</time></trkpt>
<trkpt lat="29.819406" lon="91.681719">
<time>2016-10-08T05:54:41Z</time></trkpt>
<trkpt lat="29.817988" lon="91.680641">
<time>2016-10-08T05:54:42Z</time></trkpt>
<trkpt lat="29.817759" lon="91.680452">
<time>2016-10-08T05:54:43Z</time></trkpt>
<trkpt lat="29.817639" lon="91.680332">
<time>2016-10-08T05:54:44Z</time></trkpt>
<trkpt lat="29.817509" lon="91.680162">
<time>2016-10-08T05:54:45Z</time></trkpt>
<trkpt lat="29.817449" lon="91.680042">
<time>2016-10-08T05:54:46Z</time></trkpt>
<trkpt lat="29.8174" lon="91.679953">
<time>2016-10-08T05:54:47Z</time></trkpt>
<trkpt lat="29.81734" lon="91.679783">
<time>2016-10-08T05:54:48Z</time></trkpt>
<trkpt lat="29.81729" lon="91.679643">
<time>2016-10-08T05:54:49Z</time></trkpt>
<trkpt lat="29.81726" lon="91.679513">
<time>2016-10-08T05:54:50Z</time></trkpt>
<trkpt lat="29.817063" lon="91.678425">
<time>2016-10-08T05:54:51Z</time></trkpt>
<trkpt lat="29.817023" lon="91.678196">
<time>2016-10-08T05:54:52Z</time></trkpt>
<trkpt lat="29.816954" lon="91.677826">
<time>2016-10-08T05:54:53Z</time></trkpt>
<trkpt lat="29.816884" lon="91.677587">
<time>2016-10-08T05:54:54Z</time></trkpt>
<trkpt lat="29.816834" lon="91.677427">
<time>2016-10-08T05:54:55Z</time></trkpt>
<trkpt lat="29.816795" lon="91.677287">
<time>2016-10-08T05:54:56Z</time></trkpt>
<trkpt lat="29.816745" lon="91.677157">
<time>2016-10-08T05:54:57Z</time></trkpt>
<trkpt lat="29.816665" lon="91.677008">
<time>2016-10-08T05:54:58Z</time></trkpt>
<trkpt lat="29.816596" lon="91.676888">
<time>2016-10-08T05:54:59Z</time></trkpt>
<trkpt lat="29.816506" lon="91.676738">
<time>2016-10-08T05:55:00Z</time></trkpt>
<trkpt lat="29.816366" lon="91.676499">
<time>2016-10-08T05:55:01Z</time></trkpt>
<trkpt lat="29.815967" lon="91.67588">
<time>2016-10-08T05:55:02Z</time></trkpt>
<trkpt lat="29.814861" lon="91.674153">
<time>2016-10-08T05:55:03Z</time></trkpt>
<trkpt lat="29.814602" lon="91.673743">
<time>2016-10-08T05:55:04Z</time></trkpt>
<trkpt lat="29.814303" lon="91.673264">
<time>2016-10-08T05:55:05Z</time></trkpt>
<trkpt lat="29.814033" lon="91.672865">
<time>2016-10-08T05:55:06Z</time></trkpt>
<trkpt lat="29.813854" lon="91.672556">
<time>2016-10-08T05:55:07Z</time></trkpt>
<trkpt lat="29.813764" lon="91.672386">
<time>2016-10-08T05:55:08Z</time></trkpt>
<trkpt lat="29.813695" lon="91.672226">
<time>2016-10-08T05:55:09Z</time></trkpt>
<trkpt lat="29.813635" lon="91.672086">
<time>2016-10-08T05:55:10Z</time></trkpt>
<trkpt lat="29.813605" lon="91.671977">
<time>2016-10-08T05:55:11Z</time></trkpt>
<trkpt lat="29.813545" lon="91.671777">
<time>2016-10-08T05:55:12Z</time></trkpt>
<trkpt lat="29.813496" lon="91.671557">
<time>2016-10-08T05:55:13Z</time></trkpt>
<trkpt lat="29.813308" lon="91.670629">
<time>2016-10-08T05:55:14Z</time></trkpt>
<trkpt lat="29.813209" lon="91.67018">
<time>2016-10-08T05:55:15Z</time></trkpt>
<trkpt lat="29.8131" lon="91.669671">
<time>2016-10-08T05:55:16Z</time></trkpt>
<trkpt lat="29.812921" lon="91.668822">
<time>2016-10-08T05:55:17Z</time></trkpt>
<trkpt lat="29.812872" lon="91.668652">
<time>2016-10-08T05:55:18Z</time></trkpt>
<trkpt lat="29.812852" lon="91.668583">
<time>2016-10-08T05:55:19Z</time></trkpt>
<trkpt lat="29.812802" lon="91.668473">
<time>2016-10-08T05:55:20Z</time></trkpt>
<trkpt lat="29.812722" lon="91.668323">
<time>2016-10-08T05:55:21Z</time></trkpt>
<trkpt lat="29.812642" lon="91.668173">
<time>2016-10-08T05:55:22Z</time></trkpt>
<trkpt lat="29.812563" lon="91.668054">
<time>2016-10-08T05:55:23Z</time></trkpt>
<trkpt lat="29.812473" lon="91.667954">
<time>2016-10-08T05:55:24Z</time></trkpt>
<trkpt lat="29.812373" lon="91.667854">
<time>2016-10-08T05:55:25Z</time></trkpt>
<trkpt lat="29.811055" lon="91.666716">
<time>2016-10-08T05:55:26Z</time></trkpt>
<trkpt lat="29.810956" lon="91.666616">
<time>2016-10-08T05:55:27Z</time></trkpt>
<trkpt lat="29.810886" lon="91.666526">
<time>2016-10-08T05:55:28Z</time></trkpt>
<trkpt lat="29.810836" lon="91.666426">
<time>2016-10-08T05:55:29Z</time></trkpt>
<trkpt lat="29.810796" lon="91.666337">
<time>2016-10-08T05:55:30Z</time></trkpt>
<trkpt lat="29.810766" lon="91.666257">
<time>2016-10-08T05:55:31Z</time></trkpt>
<trkpt lat="29.810757" lon="91.666137">
<time>2016-10-08T05:55:32Z</time></trkpt>
<trkpt lat="29.810747" lon="91.666017">
<time>2016-10-08T05:55:33Z</time></trkpt>
<trkpt lat="29.810767" lon="91.665867">
<time>2016-10-08T05:55:34Z</time></trkpt>
<trkpt lat="29.810818" lon="91.665558">
<time>2016-10-08T05:55:35Z</time></trkpt>
<trkpt lat="29.810928" lon="91.665109">
<time>2016-10-08T05:55:36Z</time></trkpt>
<trkpt lat="29.810959" lon="91.664939">
<time>2016-10-08T05:55:37Z</time></trkpt>
<trkpt lat="29.810979" lon="91.664809">
<time>2016-10-08T05:55:38Z</time></trkpt>
<trkpt lat="29.810989" lon="91.664699">
<time>2016-10-08T05:55:39Z</time></trkpt>
<trkpt lat="29.810999" lon="91.66461">
<time>2016-10-08T05:55:40Z</time></trkpt>
<trkpt lat="29.811" lon="91.6645">
<time>2016-10-08T05:55:41Z</time></trkpt>
<trkpt lat="29.81099" lon="91.66438">
<time>2016-10-08T05:55:42Z</time></trkpt>
<trkpt lat="29.81098" lon="91.66425">
<time>2016-10-08T05:55:43Z</time></trkpt>
<trkpt lat="29.81093" lon="91.664041">
<time>2016-10-08T05:55:44Z</time></trkpt>
<trkpt lat="29.810742" lon="91.663312">
<time>2016-10-08T05:55:45Z</time></trkpt>
<trkpt lat="29.810672" lon="91.663092">
<time>2016-10-08T05:55:46Z</time></trkpt>
<trkpt lat="29.810264" lon="91.662024">
<time>2016-10-08T05:55:47Z</time></trkpt>
<trkpt lat="29.810145" lon="91.661745">
<time>2016-10-08T05:55:48Z</time></trkpt>
<trkpt lat="29.810055" lon="91.661555">
<time>2016-10-08T05:55:49Z</time></trkpt>
<trkpt lat="29.809956" lon="91.661395">
<time>2016-10-08T05:55:50Z</time></trkpt>
<trkpt lat="29.809706" lon="91.661086">
<time>2016-10-08T05:55:51Z</time></trkpt>
<trkpt lat="29.808649" lon="91.659878">
<time>2016-10-08T05:55:52Z</time></trkpt>
<trkpt lat="29.808349" lon="91.659539">
<time>2016-10-08T05:55:53Z</time></trkpt>
<trkpt lat="29.80785" lon="91.65896">
<time>2016-10-08T05:55:54Z</time></trkpt>
<trkpt lat="29.807701" lon="91.65878">
<time>2016-10-08T05:55:55Z</time></trkpt>
<trkpt lat="29.807531" lon="91.65854">
<time>2016-10-08T05:55:56Z</time></trkpt>
<trkpt lat="29.807362" lon="91.658251">
<time>2016-10-08T05:55:57Z</time></trkpt>
<trkpt lat="29.807103" lon="91.657722">
<time>2016-10-08T05:55:58Z</time></trkpt>
<trkpt lat="29.806346" lon="91.656074">
<time>2016-10-08T05:55:59Z</time></trkpt>
<trkpt lat="29.806047" lon="91.655525">
<time>2016-10-08T05:56:00Z</time></trkpt>
<trkpt lat="29.805967" lon="91.655316">
<time>2016-10-08T05:56:01Z</time></trkpt>
<trkpt lat="29.805917" lon="91.655146">
<time>2016-10-08T05:56:02Z</time></trkpt>
<trkpt lat="29.805828" lon="91.654867">
<time>2016-10-08T05:56:03Z</time></trkpt>
<trkpt lat="29.805778" lon="91.654697">
<time>2016-10-08T05:56:04Z</time></trkpt>
<trkpt lat="29.805739" lon="91.654557">
<time>2016-10-08T05:56:05Z</time></trkpt>
<trkpt lat="29.805709" lon="91.654387">
<time>2016-10-08T05:56:06Z</time></trkpt>
<trkpt lat="29.805679" lon="91.654228">
<time>2016-10-08T05:56:07Z</time></trkpt>
<trkpt lat="29.805521" lon="91.653319">
<time>2016-10-08T05:56:08Z</time></trkpt>
<trkpt lat="29.805461" lon="91.65298">
<time>2016-10-08T05:56:09Z</time></trkpt>
<trkpt lat="29.805432" lon="91.65287">
<time>2016-10-08T05:56:10Z</time></trkpt>
<trkpt lat="29.805402" lon="91.65277">
<time>2016-10-08T05:56:11Z</time></trkpt>
<trkpt lat="29.805093" lon="91.651941">
<time>2016-10-08T05:56:12Z</time></trkpt>
<trkpt lat="29.805083" lon="91.651891">
<time>2016-10-08T05:56:13Z</time></trkpt>
<trkpt lat="29.804974" lon="91.651632">
<time>2016-10-08T05:56:14Z</time></trkpt>
<trkpt lat="29.804914" lon="91.651492">
<time>2016-10-08T05:56:15Z</time></trkpt>
<trkpt lat="29.804834" lon="91.651322">
<time>2016-10-08T05:56:16Z</time></trkpt>
<trkpt lat="29.804406" lon="91.650663">
<time>2016-10-08T05:56:17Z</time></trkpt>
<trkpt lat="29.803997" lon="91.650024">
<time>2016-10-08T05:56:18Z</time></trkpt>
<trkpt lat="29.803897" lon="91.649865">
<time>2016-10-08T05:56:19Z</time></trkpt>
<trkpt lat="29.803827" lon="91.649745">
<time>2016-10-08T05:56:20Z</time></trkpt>
<trkpt lat="29.803778" lon="91.649615">
<time>2016-10-08T05:56:21Z</time></trkpt>
<trkpt lat="29.803738" lon="91.649515">
<time>2016-10-08T05:56:22Z</time></trkpt>
<trkpt lat="29.803678" lon="91.649336">
<time>2016-10-08T05:56:23Z</time></trkpt>
<trkpt lat="29.803648" lon="91.649206">
<time>2016-10-08T05:56:24Z</time></trkpt>
<trkpt lat="29.803619" lon="91.649036">
<time>2016-10-08T05:56:25Z</time></trkpt>
<trkpt lat="29.803599" lon="91.648846">
<time>2016-10-08T05:56:26Z</time></trkpt>
<trkpt lat="29.803579" lon="91.648537">
<time>2016-10-08T05:56:27Z</time></trkpt>
<trkpt lat="29.80355" lon="91.648207">
<time>2016-10-08T05:56:28Z</time></trkpt>
<trkpt lat="29.803481" lon="91.647379">
<time>2016-10-08T05:56:29Z</time></trkpt>
<trkpt lat="29.803433" lon="91.64664">
<time>2016-10-08T05:56:30Z</time></trkpt>
<trkpt lat="29.803403" lon="91.64622">
<time>2016-10-08T05:56:31Z</time></trkpt>
<trkpt lat="29.803364" lon="91.645731">
<time>2016-10-08T05:56:32Z</time></trkpt>
<trkpt lat="29.803315" lon="91.645282">
<time>2016-10-08T05:56:33Z</time></trkpt>
<trkpt lat="29.803286" lon="91.644803">
<time>2016-10-08T05:56:34Z</time></trkpt>
<trkpt lat="29.803256" lon="91.644363">
<time>2016-10-08T05:56:35Z</time></trkpt>
<trkpt lat="29.803257" lon="91.644193">
<time>2016-10-08T05:56:36Z</time></trkpt>
<trkpt lat="29.803257" lon="91.644014">
<time>2016-10-08T05:56:37Z</time></trkpt>
<trkpt lat="29.803267" lon="91.643824">
<time>2016-10-08T05:56:38Z</time></trkpt>
<trkpt lat="29.803288" lon="91.643664">
<time>2016-10-08T05:56:39Z</time></trkpt>
<trkpt lat="29.803318" lon="91.643485">
<time>2016-10-08T05:56:40Z</time></trkpt>
<trkpt lat="29.803338" lon="91.643345">
<time>2016-10-08T05:56:41Z</time></trkpt>
<trkpt lat="29.803368" lon="91.643215">
<time>2016-10-08T05:56:42Z</time></trkpt>
<trkpt lat="29.803398" lon="91.643105">
<time>2016-10-08T05:56:43Z</time></trkpt>
<trkpt lat="29.803429" lon="91.642995">
<time>2016-10-08T05:56:44Z</time></trkpt>
<trkpt lat="29.803449" lon="91.642915">
<time>2016-10-08T05:56:45Z</time></trkpt>
<trkpt lat="29.803589" lon="91.642546">
<time>2016-10-08T05:56:46Z</time></trkpt>
<trkpt lat="29.80364" lon="91.642386">
<time>2016-10-08T05:56:47Z</time></trkpt>
<trkpt lat="29.80371" lon="91.642186">
<time>2016-10-08T05:56:48Z</time></trkpt>
<trkpt lat="29.80373" lon="91.642077">
<time>2016-10-08T05:56:49Z</time></trkpt>
<trkpt lat="29.80376" lon="91.641927">
<time>2016-10-08T05:56:50Z</time></trkpt>
<trkpt lat="29.803791" lon="91.641697">
<time>2016-10-08T05:56:51Z</time></trkpt>
<trkpt lat="29.803822" lon="91.641068">
<time>2016-10-08T05:56:52Z</time></trkpt>
<trkpt lat="29.803832" lon="91.640788">
<time>2016-10-08T05:56:53Z</time></trkpt>
<trkpt lat="29.803863" lon="91.640549">
<time>2016-10-08T05:56:54Z</time></trkpt>
<trkpt lat="29.803893" lon="91.640379">
<time>2016-10-08T05:56:55Z</time></trkpt>
<trkpt lat="29.803983" lon="91.640069">
<time>2016-10-08T05:56:56Z</time></trkpt>
<trkpt lat="29.804013" lon="91.639959">
<time>2016-10-08T05:56:57Z</time></trkpt>
<trkpt lat="29.804044" lon="91.63982">
<time>2016-10-08T05:56:58Z</time></trkpt>
<trkpt lat="29.804064" lon="91.63962">
<time>2016-10-08T05:56:59Z</time></trkpt>
<trkpt lat="29.804064" lon="91.63946">
<time>2016-10-08T05:57:00Z</time></trkpt>
<trkpt lat="29.804044" lon="91.63934">
<time>2016-10-08T05:57:01Z</time></trkpt>
<trkpt lat="29.804025" lon="91.63924">
<time>2016-10-08T05:57:02Z</time></trkpt>
<trkpt lat="29.803995" lon="91.639131">
<time>2016-10-08T05:57:03Z</time></trkpt>
<trkpt lat="29.803975" lon="91.639061">
<time>2016-10-08T05:57:04Z</time></trkpt>
<trkpt lat="29.803935" lon="91.638961">
<time>2016-10-08T05:57:05Z</time></trkpt>
<trkpt lat="29.803895" lon="91.638871">
<time>2016-10-08T05:57:06Z</time></trkpt>
<trkpt lat="29.803805" lon="91.638681">
<time>2016-10-08T05:57:07Z</time></trkpt>
<trkpt lat="29.803636" lon="91.638362">
<time>2016-10-08T05:57:08Z</time></trkpt>
<trkpt lat="29.803426" lon="91.637992">
<time>2016-10-08T05:57:09Z</time></trkpt>
<trkpt lat="29.803207" lon="91.637553">
<time>2016-10-08T05:57:10Z</time></trkpt>
<trkpt lat="29.803157" lon="91.637453">
<time>2016-10-08T05:57:11Z</time></trkpt>
<trkpt lat="29.803078" lon="91.637263">
<time>2016-10-08T05:57:12Z</time></trkpt>
<trkpt lat="29.802958" lon="91.636924">
<time>2016-10-08T05:57:13Z</time></trkpt>
<trkpt lat="29.802918" lon="91.636784">
<time>2016-10-08T05:57:14Z</time></trkpt>
<trkpt lat="29.802849" lon="91.636524">
<time>2016-10-08T05:57:15Z</time></trkpt>
<trkpt lat="29.80269" lon="91.635795">
<time>2016-10-08T05:57:16Z</time></trkpt>
<trkpt lat="29.802402" lon="91.634407">
<time>2016-10-08T05:57:17Z</time></trkpt>
<trkpt lat="29.802292" lon="91.633887">
<time>2016-10-08T05:57:18Z</time></trkpt>
<trkpt lat="29.801657" lon="91.630891">
<time>2016-10-08T05:57:19Z</time></trkpt>
<trkpt lat="29.801378" lon="91.629582">
<time>2016-10-08T05:57:20Z</time></trkpt>
<trkpt lat="29.801189" lon="91.628653">
<time>2016-10-08T05:57:21Z</time></trkpt>
<trkpt lat="29.800981" lon="91.627644">
<time>2016-10-08T05:57:22Z</time></trkpt>
<trkpt lat="29.800762" lon="91.626665">
<time>2016-10-08T05:57:23Z</time></trkpt>
<trkpt lat="29.800692" lon="91.626296">
<time>2016-10-08T05:57:24Z</time></trkpt>
<trkpt lat="29.800543" lon="91.625696">
<time>2016-10-08T05:57:25Z</time></trkpt>
<trkpt lat="29.800374" lon="91.625047">
<time>2016-10-08T05:57:26Z</time></trkpt>
<trkpt lat="29.799955" lon="91.623598">
<time>2016-10-08T05:57:27Z</time></trkpt>
<trkpt lat="29.798371" lon="91.617902">
<time>2016-10-08T05:57:28Z</time></trkpt>
<trkpt lat="29.797813" lon="91.615903">
<time>2016-10-08T05:57:29Z</time></trkpt>
<trkpt lat="29.797554" lon="91.614924">
<time>2016-10-08T05:57:30Z</time></trkpt>
<trkpt lat="29.797534" lon="91.614814">
<time>2016-10-08T05:57:31Z</time></trkpt>
<trkpt lat="29.797524" lon="91.614734">
<time>2016-10-08T05:57:32Z</time></trkpt>
<trkpt lat="29.797524" lon="91.614664">
<time>2016-10-08T05:57:33Z</time></trkpt>
<trkpt lat="29.797524" lon="91.614534">
<time>2016-10-08T05:57:34Z</time></trkpt>
<trkpt lat="29.797544" lon="91.614394">
<time>2016-10-08T05:57:35Z</time></trkpt>
<trkpt lat="29.797564" lon="91.614244">
<time>2016-10-08T05:57:36Z</time></trkpt>
<trkpt lat="29.797644" lon="91.613884">
<time>2016-10-08T05:57:37Z</time></trkpt>
<trkpt lat="29.797805" lon="91.613015">
<time>2016-10-08T05:57:38Z</time></trkpt>
<trkpt lat="29.797915" lon="91.612485">
<time>2016-10-08T05:57:39Z</time></trkpt>
<trkpt lat="29.798246" lon="91.610736">
<time>2016-10-08T05:57:40Z</time></trkpt>
<trkpt lat="29.798347" lon="91.610176">
<time>2016-10-08T05:57:41Z</time></trkpt>
<trkpt lat="29.798387" lon="91.609806">
<time>2016-10-08T05:57:42Z</time></trkpt>
<trkpt lat="29.798387" lon="91.609636">
<time>2016-10-08T05:57:43Z</time></trkpt>
<trkpt lat="29.798387" lon="91.609486">
<time>2016-10-08T05:57:44Z</time></trkpt>
<trkpt lat="29.798377" lon="91.609346">
<time>2016-10-08T05:57:45Z</time></trkpt>
<trkpt lat="29.798367" lon="91.609206">
<time>2016-10-08T05:57:46Z</time></trkpt>
<trkpt lat="29.798347" lon="91.609036">
<time>2016-10-08T05:57:47Z</time></trkpt>
<trkpt lat="29.798327" lon="91.608906">
<time>2016-10-08T05:57:48Z</time></trkpt>
<trkpt lat="29.798038" lon="91.607036">
<time>2016-10-08T05:57:49Z</time></trkpt>
<trkpt lat="29.797969" lon="91.606437">
<time>2016-10-08T05:57:50Z</time></trkpt>
<trkpt lat="29.797889" lon="91.605497">
<time>2016-10-08T05:57:51Z</time></trkpt>
<trkpt lat="29.79772" lon="91.603037">
<time>2016-10-08T05:57:52Z</time></trkpt>
<trkpt lat="29.79772" lon="91.602877">
<time>2016-10-08T05:57:53Z</time></trkpt>
<trkpt lat="29.79772" lon="91.602717">
<time>2016-10-08T05:57:54Z</time></trkpt>
<trkpt lat="29.79774" lon="91.602587">
<time>2016-10-08T05:57:55Z</time></trkpt>
<trkpt lat="29.79777" lon="91.602427">
<time>2016-10-08T05:57:56Z</time></trkpt>
<trkpt lat="29.79782" lon="91.602277">
<time>2016-10-08T05:57:57Z</time></trkpt>
<trkpt lat="29.79787" lon="91.602147">
<time>2016-10-08T05:57:58Z</time></trkpt>
<trkpt lat="29.79879" lon="91.600316">
<time>2016-10-08T05:57:59Z</time></trkpt>
<trkpt lat="29.79886" lon="91.600156">
<time>2016-10-08T05:58:00Z</time></trkpt>
<trkpt lat="29.79892" lon="91.599996">
<time>2016-10-08T05:58:01Z</time></trkpt>
<trkpt lat="29.79896" lon="91.599846">
<time>2016-10-08T05:58:02Z</time></trkpt>
<trkpt lat="29.79899" lon="91.599716">
<time>2016-10-08T05:58:03Z</time></trkpt>
<trkpt lat="29.79901" lon="91.599566">
<time>2016-10-08T05:58:04Z</time></trkpt>
<trkpt lat="29.79903" lon="91.599446">
<time>2016-10-08T05:58:05Z</time></trkpt>
<trkpt lat="29.79903" lon="91.599326">
<time>2016-10-08T05:58:06Z</time></trkpt>
<trkpt lat="29.79902" lon="91.599166">
<time>2016-10-08T05:58:07Z</time></trkpt>
<trkpt lat="29.79901" lon="91.599046">
<time>2016-10-08T05:58:08Z</time></trkpt>
<trkpt lat="29.79898" lon="91.598926">
<time>2016-10-08T05:58:09Z</time></trkpt>
<trkpt lat="29.798951" lon="91.598846">
<time>2016-10-08T05:58:10Z</time></trkpt>
<trkpt lat="29.798931" lon="91.598796">
<time>2016-10-08T05:58:11Z</time></trkpt>
<trkpt lat="29.798861" lon="91.598686">
<time>2016-10-08T05:58:12Z</time></trkpt>
<trkpt lat="29.798161" lon="91.597756">
<time>2016-10-08T05:58:13Z</time></trkpt>
<trkpt lat="29.798111" lon="91.597666">
<time>2016-10-08T05:58:14Z</time></trkpt>
<trkpt lat="29.798061" lon="91.597556">
<time>2016-10-08T05:58:15Z</time></trkpt>
<trkpt lat="29.798031" lon="91.597476">
<time>2016-10-08T05:58:16Z</time></trkpt>
<trkpt lat="29.798011" lon="91.597416">
<time>2016-10-08T05:58:17Z</time></trkpt>
<trkpt lat="29.798011" lon="91.597366">
<time>2016-10-08T05:58:18Z</time></trkpt>
<trkpt lat="29.798001" lon="91.597306">
<time>2016-10-08T05:58:19Z</time></trkpt>
<trkpt lat="29.797991" lon="91.597206">
<time>2016-10-08T05:58:20Z</time></trkpt>
<trkpt lat="29.797991" lon="91.597106">
<time>2016-10-08T05:58:21Z</time></trkpt>
<trkpt lat="29.797991" lon="91.596845">
<time>2016-10-08T05:58:22Z</time></trkpt>
<trkpt lat="29.798041" lon="91.594895">
<time>2016-10-08T05:58:23Z</time></trkpt>
<trkpt lat="29.798041" lon="91.594795">
<time>2016-10-08T05:58:24Z</time></trkpt>
<trkpt lat="29.798051" lon="91.594675">
<time>2016-10-08T05:58:25Z</time></trkpt>
<trkpt lat="29.798061" lon="91.594575">
<time>2016-10-08T05:58:26Z</time></trkpt>
<trkpt lat="29.798071" lon="91.594485">
<time>2016-10-08T05:58:27Z</time></trkpt>
<trkpt lat="29.798091" lon="91.594414">
<time>2016-10-08T05:58:28Z</time></trkpt>
<trkpt lat="29.798111" lon="91.594314">
<time>2016-10-08T05:58:29Z</time></trkpt>
<trkpt lat="29.798231" lon="91.593984">
<time>2016-10-08T05:58:30Z</time></trkpt>
<trkpt lat="29.79884" lon="91.592393">
<time>2016-10-08T05:58:31Z</time></trkpt>
<trkpt lat="29.7989" lon="91.592263">
<time>2016-10-08T05:58:32Z</time></trkpt>
<trkpt lat="29.79897" lon="91.592143">
<time>2016-10-08T05:58:33Z</time></trkpt>
<trkpt lat="29.79905" lon="91.592043">
<time>2016-10-08T05:58:34Z</time></trkpt>
<trkpt lat="29.79911" lon="91.592003">
<time>2016-10-08T05:58:35Z</time></trkpt>
<trkpt lat="29.79916" lon="91.591963">
<time>2016-10-08T05:58:36Z</time></trkpt>
<trkpt lat="29.79919" lon="91.591943">
<time>2016-10-08T05:58:37Z</time></trkpt>
<trkpt lat="29.79922" lon="91.591933">
<time>2016-10-08T05:58:38Z</time></trkpt>
<trkpt lat="29.79926" lon="91.591923">
<time>2016-10-08T05:58:39Z</time></trkpt>
<trkpt lat="29.79929" lon="91.591913">
<time>2016-10-08T05:58:40Z</time></trkpt>
<trkpt lat="29.79932" lon="91.591913">
<time>2016-10-08T05:58:41Z</time></trkpt>
<trkpt lat="29.79939" lon="91.591903">
<time>2016-10-08T05:58:42Z</time></trkpt>
<trkpt lat="29.79951" lon="91.591893">
<time>2016-10-08T05:58:43Z</time></trkpt>
<trkpt lat="29.79991" lon="91.591903">
<time>2016-10-08T05:58:44Z</time></trkpt>
<trkpt lat="29.80004" lon="91.591903">
<time>2016-10-08T05:58:45Z</time></trkpt>
<trkpt lat="29.80015" lon="91.591883">
<time>2016-10-08T05:58:46Z</time></trkpt>
<trkpt lat="29.80027" lon="91.591843">
<time>2016-10-08T05:58:47Z</time></trkpt>
<trkpt lat="29.80037" lon="91.591793">
<time>2016-10-08T05:58:48Z</time></trkpt>
<trkpt lat="29.80048" lon="91.591723">
<time>2016-10-08T05:58:49Z</time></trkpt>
<trkpt lat="29.80073" lon="91.591483">
<time>2016-10-08T05:58:50Z</time></trkpt>
<trkpt lat="29.80088" lon="91.591313">
<time>2016-10-08T05:58:51Z</time></trkpt>
<trkpt lat="29.80102" lon="91.591143">
<time>2016-10-08T05:58:52Z</time></trkpt>
<trkpt lat="29.80112" lon="91.590953">
<time>2016-10-08T05:58:53Z</time></trkpt>
<trkpt lat="29.80122" lon="91.590742">
<time>2016-10-08T05:58:54Z</time></trkpt>
<trkpt lat="29.80132" lon="91.590462">
<time>2016-10-08T05:58:55Z</time></trkpt>
<trkpt lat="29.801599" lon="91.589692">
<time>2016-10-08T05:58:56Z</time></trkpt>
<trkpt lat="29.801669" lon="91.589472">
<time>2016-10-08T05:58:57Z</time></trkpt>
<trkpt lat="29.801739" lon="91.589191">
<time>2016-10-08T05:58:58Z</time></trkpt>
<trkpt lat="29.801929" lon="91.588271">
<time>2016-10-08T05:58:59Z</time></trkpt>
<trkpt lat="29.801949" lon="91.588171">
<time>2016-10-08T05:59:00Z</time></trkpt>
<trkpt lat="29.801979" lon="91.58808">
<time>2016-10-08T05:59:01Z</time></trkpt>
<trkpt lat="29.802009" lon="91.58794">
<time>2016-10-08T05:59:02Z</time></trkpt>
<trkpt lat="29.802079" lon="91.58772">
<time>2016-10-08T05:59:03Z</time></trkpt>
<trkpt lat="29.802179" lon="91.58745">
<time>2016-10-08T05:59:04Z</time></trkpt>
<trkpt lat="29.802538" lon="91.586499">
<time>2016-10-08T05:59:05Z</time></trkpt>
<trkpt lat="29.802878" lon="91.585598">
<time>2016-10-08T05:59:06Z</time></trkpt>
<trkpt lat="29.803347" lon="91.584367">
<time>2016-10-08T05:59:07Z</time></trkpt>
<trkpt lat="29.803816" lon="91.583026">
<time>2016-10-08T05:59:08Z</time></trkpt>
<trkpt lat="29.804365" lon="91.581304">
<time>2016-10-08T05:59:09Z</time></trkpt>
<trkpt lat="29.804435" lon="91.581084">
<time>2016-10-08T05:59:10Z</time></trkpt>
<trkpt lat="29.804495" lon="91.580914">
<time>2016-10-08T05:59:11Z</time></trkpt>
<trkpt lat="29.804585" lon="91.580753">
<time>2016-10-08T05:59:12Z</time></trkpt>
<trkpt lat="29.804625" lon="91.580673">
<time>2016-10-08T05:59:13Z</time></trkpt>
<trkpt lat="29.804694" lon="91.580553">
<time>2016-10-08T05:59:14Z</time></trkpt>
<trkpt lat="29.804784" lon="91.580413">
<time>2016-10-08T05:59:15Z</time></trkpt>
<trkpt lat="29.805593" lon="91.579342">
<time>2016-10-08T05:59:16Z</time></trkpt>
<trkpt lat="29.805823" lon="91.578991">
<time>2016-10-08T05:59:17Z</time></trkpt>
<trkpt lat="29.806502" lon="91.5778">
<time>2016-10-08T05:59:18Z</time></trkpt>
<trkpt lat="29.806642" lon="91.577529">
<time>2016-10-08T05:59:19Z</time></trkpt>
<trkpt lat="29.806732" lon="91.577299">
<time>2016-10-08T05:59:20Z</time></trkpt>
<trkpt lat="29.806841" lon="91.576979">
<time>2016-10-08T05:59:21Z</time></trkpt>
<trkpt lat="29.807011" lon="91.576448">
<time>2016-10-08T05:59:22Z</time></trkpt>
<trkpt lat="29.807748" lon="91.573974">
<time>2016-10-08T05:59:23Z</time></trkpt>
<trkpt lat="29.808137" lon="91.572672">
<time>2016-10-08T05:59:24Z</time></trkpt>
<trkpt lat="29.808884" lon="91.570168">
<time>2016-10-08T05:59:25Z</time></trkpt>
<trkpt lat="29.809412" lon="91.568425">
<time>2016-10-08T05:59:26Z</time></trkpt>
<trkpt lat="29.80995" lon="91.566592">
<time>2016-10-08T05:59:27Z</time></trkpt>
<trkpt lat="29.810358" lon="91.565229">
<time>2016-10-08T05:59:28Z</time></trkpt>
<trkpt lat="29.810855" lon="91.563596">
<time>2016-10-08T05:59:29Z</time></trkpt>
<trkpt lat="29.810925" lon="91.563336">
<time>2016-10-08T05:59:30Z</time></trkpt>
<trkpt lat="29.810985" lon="91.563095">
<time>2016-10-08T05:59:31Z</time></trkpt>
<trkpt lat="29.811044" lon="91.562825">
<time>2016-10-08T05:59:32Z</time></trkpt>
<trkpt lat="29.811064" lon="91.562724">
<time>2016-10-08T05:59:33Z</time></trkpt>
<trkpt lat="29.811084" lon="91.562564">
<time>2016-10-08T05:59:34Z</time></trkpt>
<trkpt lat="29.811104" lon="91.562434">
<time>2016-10-08T05:59:35Z</time></trkpt>
<trkpt lat="29.811113" lon="91.562274">
<time>2016-10-08T05:59:36Z</time></trkpt>
<trkpt lat="29.811133" lon="91.562023">
<time>2016-10-08T05:59:37Z</time></trkpt>
<trkpt lat="29.811133" lon="91.561903">
<time>2016-10-08T05:59:38Z</time></trkpt>
<trkpt lat="29.811133" lon="91.561742">
<time>2016-10-08T05:59:39Z</time></trkpt>
<trkpt lat="29.811132" lon="91.561632">
<time>2016-10-08T05:59:40Z</time></trkpt>
<trkpt lat="29.811112" lon="91.561482">
<time>2016-10-08T05:59:41Z</time></trkpt>
<trkpt lat="29.811102" lon="91.561302">
<time>2016-10-08T05:59:42Z</time></trkpt>
<trkpt lat="29.811062" lon="91.561041">
<time>2016-10-08T05:59:43Z</time></trkpt>
<trkpt lat="29.810981" lon="91.5607">
<time>2016-10-08T05:59:44Z</time></trkpt>
<trkpt lat="29.810216" lon="91.557774">
<time>2016-10-08T05:59:45Z</time></trkpt>
<trkpt lat="29.810075" lon="91.557243">
<time>2016-10-08T05:59:46Z</time></trkpt>
<trkpt lat="29.810035" lon="91.557012">
<time>2016-10-08T05:59:47Z</time></trkpt>
<trkpt lat="29.809965" lon="91.556762">
<time>2016-10-08T05:59:48Z</time></trkpt>
<trkpt lat="29.80927" lon="91.554175">
<time>2016-10-08T05:59:49Z</time></trkpt>
<trkpt lat="29.808988" lon="91.553113">
<time>2016-10-08T05:59:50Z</time></trkpt>
<trkpt lat="29.808877" lon="91.552642">
<time>2016-10-08T05:59:51Z</time></trkpt>
<trkpt lat="29.808696" lon="91.55194">
<time>2016-10-08T05:59:52Z</time></trkpt>
<trkpt lat="29.808484" lon="91.551158">
<time>2016-10-08T05:59:53Z</time></trkpt>
<trkpt lat="29.808061" lon="91.549554">
<time>2016-10-08T05:59:54Z</time></trkpt>
<trkpt lat="29.807799" lon="91.548581">
<time>2016-10-08T05:59:55Z</time></trkpt>
<trkpt lat="29.807648" lon="91.54803">
<time>2016-10-08T05:59:56Z</time></trkpt>
<trkpt lat="29.807608" lon="91.547859">
<time>2016-10-08T05:59:57Z</time></trkpt>
<trkpt lat="29.807547" lon="91.547659">
<time>2016-10-08T05:59:58Z</time></trkpt>
<trkpt lat="29.807467" lon="91.547468">
<time>2016-10-08T05:59:59Z</time></trkpt>
<trkpt lat="29.807437" lon="91.547408">
<time>2016-10-08T06:00:00Z</time></trkpt>
<trkpt lat="29.807397" lon="91.547338">
<time>2016-10-08T06:00:01Z</time></trkpt>
<trkpt lat="29.807357" lon="91.547278">
<time>2016-10-08T06:00:02Z</time></trkpt>
<trkpt lat="29.807317" lon="91.547228">
<time>2016-10-08T06:00:03Z</time></trkpt>
<trkpt lat="29.807276" lon="91.547168">
<time>2016-10-08T06:00:04Z</time></trkpt>
<trkpt lat="29.807226" lon="91.547107">
<time>2016-10-08T06:00:05Z</time></trkpt>
<trkpt lat="29.807156" lon="91.547037">
<time>2016-10-08T06:00:06Z</time></trkpt>
<trkpt lat="29.807086" lon="91.546977">
<time>2016-10-08T06:00:07Z</time></trkpt>
<trkpt lat="29.806605" lon="91.546586">
<time>2016-10-08T06:00:08Z</time></trkpt>
<trkpt lat="29.806255" lon="91.546275">
<time>2016-10-08T06:00:09Z</time></trkpt>
<trkpt lat="29.806124" lon="91.546145">
<time>2016-10-08T06:00:10Z</time></trkpt>
<trkpt lat="29.805954" lon="91.545964">
<time>2016-10-08T06:00:11Z</time></trkpt>
<trkpt lat="29.805723" lon="91.545694">
<time>2016-10-08T06:00:12Z</time></trkpt>
<trkpt lat="29.805533" lon="91.545463">
<time>2016-10-08T06:00:13Z</time></trkpt>
<trkpt lat="29.805372" lon="91.545232">
<time>2016-10-08T06:00:14Z</time></trkpt>
<trkpt lat="29.805232" lon="91.545012">
<time>2016-10-08T06:00:15Z</time></trkpt>
<trkpt lat="29.805071" lon="91.544731">
<time>2016-10-08T06:00:16Z</time></trkpt>
<trkpt lat="29.804911" lon="91.54443">
<time>2016-10-08T06:00:17Z</time></trkpt>
<trkpt lat="29.80467" lon="91.543959">
<time>2016-10-08T06:00:18Z</time></trkpt>
<trkpt lat="29.804509" lon="91.543638">
<time>2016-10-08T06:00:19Z</time></trkpt>
<trkpt lat="29.804389" lon="91.543457">
<time>2016-10-08T06:00:20Z</time></trkpt>
<trkpt lat="29.804248" lon="91.543247">
<time>2016-10-08T06:00:21Z</time></trkpt>
<trkpt lat="29.804118" lon="91.543036">
<time>2016-10-08T06:00:22Z</time></trkpt>
<trkpt lat="29.804017" lon="91.542825">
<time>2016-10-08T06:00:23Z</time></trkpt>
<trkpt lat="29.803967" lon="91.542725">
<time>2016-10-08T06:00:24Z</time></trkpt>
<trkpt lat="29.803947" lon="91.542665">
<time>2016-10-08T06:00:25Z</time></trkpt>
<trkpt lat="29.803927" lon="91.542615">
<time>2016-10-08T06:00:26Z</time></trkpt>
<trkpt lat="29.803917" lon="91.542555">
<time>2016-10-08T06:00:27Z</time></trkpt>
<trkpt lat="29.803917" lon="91.542495">
<time>2016-10-08T06:00:28Z</time></trkpt>
<trkpt lat="29.803916" lon="91.542404">
<time>2016-10-08T06:00:29Z</time></trkpt>
<trkpt lat="29.803936" lon="91.542134">
<time>2016-10-08T06:00:30Z</time></trkpt>
<trkpt lat="29.803955" lon="91.541963">
<time>2016-10-08T06:00:31Z</time></trkpt>
<trkpt lat="29.803985" lon="91.541772">
<time>2016-10-08T06:00:32Z</time></trkpt>
<trkpt lat="29.803995" lon="91.541702">
<time>2016-10-08T06:00:33Z</time></trkpt>
<trkpt lat="29.803995" lon="91.541632">
<time>2016-10-08T06:00:34Z</time></trkpt>
<trkpt lat="29.803822" lon="91.540408">
<time>2016-10-08T06:00:35Z</time></trkpt>
<trkpt lat="29.80373" lon="91.539807">
<time>2016-10-08T06:00:36Z</time></trkpt>
<trkpt lat="29.803111" lon="91.535694">
<time>2016-10-08T06:00:37Z</time></trkpt>
<trkpt lat="29.802958" lon="91.534641">
<time>2016-10-08T06:00:38Z</time></trkpt>
<trkpt lat="29.802826" lon="91.533718">
<time>2016-10-08T06:00:39Z</time></trkpt>
<trkpt lat="29.802694" lon="91.532855">
<time>2016-10-08T06:00:40Z</time></trkpt>
<trkpt lat="29.802551" lon="91.531942">
<time>2016-10-08T06:00:41Z</time></trkpt>
<trkpt lat="29.80248" lon="91.531391">
<time>2016-10-08T06:00:42Z</time></trkpt>
<trkpt lat="29.802469" lon="91.531039">
<time>2016-10-08T06:00:43Z</time></trkpt>
<trkpt lat="29.802478" lon="91.530859">
<time>2016-10-08T06:00:44Z</time></trkpt>
<trkpt lat="29.802478" lon="91.530779">
<time>2016-10-08T06:00:45Z</time></trkpt>
<trkpt lat="29.802468" lon="91.530698">
<time>2016-10-08T06:00:46Z</time></trkpt>
<trkpt lat="29.802427" lon="91.530407">
<time>2016-10-08T06:00:47Z</time></trkpt>
<trkpt lat="29.802427" lon="91.530307">
<time>2016-10-08T06:00:48Z</time></trkpt>
<trkpt lat="29.802386" lon="91.529805">
<time>2016-10-08T06:00:49Z</time></trkpt>
<trkpt lat="29.802335" lon="91.529374">
<time>2016-10-08T06:00:50Z</time></trkpt>
<trkpt lat="29.802283" lon="91.528922">
<time>2016-10-08T06:00:51Z</time></trkpt>
<trkpt lat="29.802161" lon="91.52803">
<time>2016-10-08T06:00:52Z</time></trkpt>
<trkpt lat="29.802151" lon="91.527859">
<time>2016-10-08T06:00:53Z</time></trkpt>
<trkpt lat="29.8021" lon="91.527628">
<time>2016-10-08T06:00:54Z</time></trkpt>
<trkpt lat="29.802029" lon="91.527417">
<time>2016-10-08T06:00:55Z</time></trkpt>
<trkpt lat="29.801969" lon="91.527267">
<time>2016-10-08T06:00:56Z</time></trkpt>
<trkpt lat="29.801899" lon="91.527157">
<time>2016-10-08T06:00:57Z</time></trkpt>
<trkpt lat="29.801678" lon="91.526926">
<time>2016-10-08T06:00:58Z</time></trkpt>
<trkpt lat="29.801568" lon="91.526775">
<time>2016-10-08T06:00:59Z</time></trkpt>
<trkpt lat="29.801286" lon="91.526264">
<time>2016-10-08T06:01:00Z</time></trkpt>
<trkpt lat="29.79996" lon="91.523805">
<time>2016-10-08T06:01:01Z</time></trkpt>
<trkpt lat="29.799467" lon="91.522882">
<time>2016-10-08T06:01:02Z</time></trkpt>
<trkpt lat="29.798794" lon="91.521648">
<time>2016-10-08T06:01:03Z</time></trkpt>
<trkpt lat="29.796744" lon="91.517885">
<time>2016-10-08T06:01:04Z</time></trkpt>
<trkpt lat="29.794381" lon="91.513519">
<time>2016-10-08T06:01:05Z</time></trkpt>
<trkpt lat="29.792511" lon="91.510067">
<time>2016-10-08T06:01:06Z</time></trkpt>
<trkpt lat="29.790983" lon="91.507287">
<time>2016-10-08T06:01:07Z</time></trkpt>
<trkpt lat="29.790842" lon="91.506996">
<time>2016-10-08T06:01:08Z</time></trkpt>
<trkpt lat="29.790702" lon="91.506725">
<time>2016-10-08T06:01:09Z</time></trkpt>
<trkpt lat="29.79045" lon="91.506283">
<time>2016-10-08T06:01:10Z</time></trkpt>
<trkpt lat="29.789274" lon="91.504105">
<time>2016-10-08T06:01:11Z</time></trkpt>
<trkpt lat="29.788007" lon="91.501756">
<time>2016-10-08T06:01:12Z</time></trkpt>
<trkpt lat="29.787082" lon="91.50005">
<time>2016-10-08T06:01:13Z</time></trkpt>
<trkpt lat="29.787042" lon="91.49997">
<time>2016-10-08T06:01:14Z</time></trkpt>
<trkpt lat="29.786881" lon="91.499679">
<time>2016-10-08T06:01:15Z</time></trkpt>
<trkpt lat="29.786619" lon="91.499217">
<time>2016-10-08T06:01:16Z</time></trkpt>
<trkpt lat="29.786428" lon="91.498856">
<time>2016-10-08T06:01:17Z</time></trkpt>
<trkpt lat="29.786197" lon="91.498414">
<time>2016-10-08T06:01:18Z</time></trkpt>
<trkpt lat="29.785745" lon="91.497581">
<time>2016-10-08T06:01:19Z</time></trkpt>
<trkpt lat="29.785373" lon="91.496898">
<time>2016-10-08T06:01:20Z</time></trkpt>
<trkpt lat="29.785151" lon="91.496497">
<time>2016-10-08T06:01:21Z</time></trkpt>
<trkpt lat="29.78493" lon="91.496075">
<time>2016-10-08T06:01:22Z</time></trkpt>
<trkpt lat="29.784699" lon="91.495654">
<time>2016-10-08T06:01:23Z</time></trkpt>
<trkpt lat="29.784428" lon="91.495152">
<time>2016-10-08T06:01:24Z</time></trkpt>
<trkpt lat="29.784035" lon="91.494429">
<time>2016-10-08T06:01:25Z</time></trkpt>
<trkpt lat="29.783935" lon="91.494249">
<time>2016-10-08T06:01:26Z</time></trkpt>
<trkpt lat="29.783814" lon="91.494038">
<time>2016-10-08T06:01:27Z</time></trkpt>
<trkpt lat="29.783623" lon="91.493677">
<time>2016-10-08T06:01:28Z</time></trkpt>
<trkpt lat="29.783412" lon="91.493285">
<time>2016-10-08T06:01:29Z</time></trkpt>
<trkpt lat="29.782909" lon="91.492362">
<time>2016-10-08T06:01:30Z</time></trkpt>
<trkpt lat="29.782547" lon="91.491699">
<time>2016-10-08T06:01:31Z</time></trkpt>
<trkpt lat="29.782367" lon="91.491398">
<time>2016-10-08T06:01:32Z</time></trkpt>
<trkpt lat="29.782336" lon="91.491328">
<time>2016-10-08T06:01:33Z</time></trkpt>
<trkpt lat="29.782216" lon="91.491107">
<time>2016-10-08T06:01:34Z</time></trkpt>
<trkpt lat="29.782155" lon="91.490967">
<time>2016-10-08T06:01:35Z</time></trkpt>
<trkpt lat="29.781844" lon="91.490395">
<time>2016-10-08T06:01:36Z</time></trkpt>
<trkpt lat="29.781341" lon="91.489491">
<time>2016-10-08T06:01:37Z</time></trkpt>
<trkpt lat="29.781019" lon="91.488879">
<time>2016-10-08T06:01:38Z</time></trkpt>
<trkpt lat="29.780567" lon="91.488046">
<time>2016-10-08T06:01:39Z</time></trkpt>
<trkpt lat="29.780104" lon="91.487213">
<time>2016-10-08T06:01:40Z</time></trkpt>
<trkpt lat="29.779662" lon="91.48638">
<time>2016-10-08T06:01:41Z</time></trkpt>
<trkpt lat="29.779199" lon="91.485507">
<time>2016-10-08T06:01:42Z</time></trkpt>
<trkpt lat="29.778556" lon="91.484293">
<time>2016-10-08T06:01:43Z</time></trkpt>
<trkpt lat="29.778264" lon="91.483721">
<time>2016-10-08T06:01:44Z</time></trkpt>
<trkpt lat="29.778053" lon="91.483319">
<time>2016-10-08T06:01:45Z</time></trkpt>
<trkpt lat="29.777902" lon="91.483018">
<time>2016-10-08T06:01:46Z</time></trkpt>
<trkpt lat="29.777751" lon="91.482707">
<time>2016-10-08T06:01:47Z</time></trkpt>
<trkpt lat="29.77746" lon="91.482125">
<time>2016-10-08T06:01:48Z</time></trkpt>
<trkpt lat="29.777168" lon="91.481553">
<time>2016-10-08T06:01:49Z</time></trkpt>
<trkpt lat="29.777098" lon="91.481422">
<time>2016-10-08T06:01:50Z</time></trkpt>
<trkpt lat="29.777037" lon="91.481302">
<time>2016-10-08T06:01:51Z</time></trkpt>
<trkpt lat="29.777007" lon="91.481232">
<time>2016-10-08T06:01:52Z</time></trkpt>
<trkpt lat="29.776987" lon="91.481172">
<time>2016-10-08T06:01:53Z</time></trkpt>
<trkpt lat="29.776967" lon="91.481101">
<time>2016-10-08T06:01:54Z</time></trkpt>
<trkpt lat="29.776947" lon="91.481021">
<time>2016-10-08T06:01:55Z</time></trkpt>
<trkpt lat="29.776937" lon="91.480971">
<time>2016-10-08T06:01:56Z</time></trkpt>
<trkpt lat="29.776926" lon="91.480931">
<time>2016-10-08T06:01:57Z</time></trkpt>
<trkpt lat="29.776926" lon="91.48087">
<time>2016-10-08T06:01:58Z</time></trkpt>
<trkpt lat="29.776926" lon="91.48079">
<time>2016-10-08T06:01:59Z</time></trkpt>
<trkpt lat="29.776926" lon="91.48074">
<time>2016-10-08T06:02:00Z</time></trkpt>
<trkpt lat="29.776936" lon="91.48069">
<time>2016-10-08T06:02:01Z</time></trkpt>
<trkpt lat="29.776945" lon="91.480589">
<time>2016-10-08T06:02:02Z</time></trkpt>
<trkpt lat="29.776965" lon="91.480519">
<time>2016-10-08T06:02:03Z</time></trkpt>
<trkpt lat="29.777005" lon="91.480359">
<time>2016-10-08T06:02:04Z</time></trkpt>
<trkpt lat="29.777034" lon="91.480258">
<time>2016-10-08T06:02:05Z</time></trkpt>
<trkpt lat="29.777064" lon="91.480168">
<time>2016-10-08T06:02:06Z</time></trkpt>
<trkpt lat="29.777104" lon="91.480058">
<time>2016-10-08T06:02:07Z</time></trkpt>
<trkpt lat="29.777213" lon="91.479706">
<time>2016-10-08T06:02:08Z</time></trkpt>
<trkpt lat="29.777282" lon="91.479466">
<time>2016-10-08T06:02:09Z</time></trkpt>
<trkpt lat="29.777371" lon="91.479185">
<time>2016-10-08T06:02:10Z</time></trkpt>
<trkpt lat="29.77755" lon="91.478633">
<time>2016-10-08T06:02:11Z</time></trkpt>
<trkpt lat="29.777589" lon="91.478512">
<time>2016-10-08T06:02:12Z</time></trkpt>
<trkpt lat="29.777609" lon="91.478422">
<time>2016-10-08T06:02:13Z</time></trkpt>
<trkpt lat="29.777629" lon="91.478352">
<time>2016-10-08T06:02:14Z</time></trkpt>
<trkpt lat="29.777639" lon="91.478271">
<time>2016-10-08T06:02:15Z</time></trkpt>
<trkpt lat="29.777649" lon="91.478201">
<time>2016-10-08T06:02:16Z</time></trkpt>
<trkpt lat="29.777648" lon="91.478141">
<time>2016-10-08T06:02:17Z</time></trkpt>
<trkpt lat="29.777638" lon="91.478051">
<time>2016-10-08T06:02:18Z</time></trkpt>
<trkpt lat="29.777628" lon="91.47793">
<time>2016-10-08T06:02:19Z</time></trkpt>
<trkpt lat="29.777556" lon="91.477418">
<time>2016-10-08T06:02:20Z</time></trkpt>
<trkpt lat="29.777536" lon="91.477198">
<time>2016-10-08T06:02:21Z</time></trkpt>
<trkpt lat="29.777495" lon="91.476937">
<time>2016-10-08T06:02:22Z</time></trkpt>
<trkpt lat="29.777474" lon="91.476696">
<time>2016-10-08T06:02:23Z</time></trkpt>
<trkpt lat="29.777474" lon="91.476606">
<time>2016-10-08T06:02:24Z</time></trkpt>
<trkpt lat="29.777474" lon="91.476475">
<time>2016-10-08T06:02:25Z</time></trkpt>
<trkpt lat="29.777473" lon="91.476385">
<time>2016-10-08T06:02:26Z</time></trkpt>
<trkpt lat="29.777473" lon="91.476315">
<time>2016-10-08T06:02:27Z</time></trkpt>
<trkpt lat="29.777493" lon="91.476184">
<time>2016-10-08T06:02:28Z</time></trkpt>
<trkpt lat="29.777512" lon="91.476044">
<time>2016-10-08T06:02:29Z</time></trkpt>
<trkpt lat="29.777532" lon="91.475923">
<time>2016-10-08T06:02:30Z</time></trkpt>
<trkpt lat="29.777611" lon="91.475462">
<time>2016-10-08T06:02:31Z</time></trkpt>
<trkpt lat="29.777739" lon="91.47485">
<time>2016-10-08T06:02:32Z</time></trkpt>
<trkpt lat="29.777828" lon="91.474418">
<time>2016-10-08T06:02:33Z</time></trkpt>
<trkpt lat="29.777848" lon="91.474308">
<time>2016-10-08T06:02:34Z</time></trkpt>
<trkpt lat="29.777847" lon="91.474197">
<time>2016-10-08T06:02:35Z</time></trkpt>
<trkpt lat="29.777847" lon="91.474127">
<time>2016-10-08T06:02:36Z</time></trkpt>
<trkpt lat="29.777837" lon="91.474087">
<time>2016-10-08T06:02:37Z</time></trkpt>
<trkpt lat="29.777817" lon="91.474047">
<time>2016-10-08T06:02:38Z</time></trkpt>
<trkpt lat="29.777807" lon="91.474037">
<time>2016-10-08T06:02:39Z</time></trkpt>
<trkpt lat="29.777787" lon="91.473987">
<time>2016-10-08T06:02:40Z</time></trkpt>
<trkpt lat="29.777747" lon="91.473947">
<time>2016-10-08T06:02:41Z</time></trkpt>
<trkpt lat="29.777727" lon="91.473926">
<time>2016-10-08T06:02:42Z</time></trkpt>
<trkpt lat="29.777687" lon="91.473896">
<time>2016-10-08T06:02:43Z</time></trkpt>
<trkpt lat="29.777646" lon="91.473876">
<time>2016-10-08T06:02:44Z</time></trkpt>
<trkpt lat="29.777576" lon="91.473846">
<time>2016-10-08T06:02:45Z</time></trkpt>
<trkpt lat="29.777466" lon="91.473796">
<time>2016-10-08T06:02:46Z</time></trkpt>
<trkpt lat="29.776916" lon="91.473555">
<time>2016-10-08T06:02:47Z</time></trkpt>
<trkpt lat="29.776565" lon="91.473405">
<time>2016-10-08T06:02:48Z</time></trkpt>
<trkpt lat="29.776135" lon="91.473224">
<time>2016-10-08T06:02:49Z</time></trkpt>
<trkpt lat="29.775804" lon="91.473084">
<time>2016-10-08T06:02:50Z</time></trkpt>
<trkpt lat="29.775674" lon="91.473023">
<time>2016-10-08T06:02:51Z</time></trkpt>
<trkpt lat="29.775614" lon="91.472993">
<time>2016-10-08T06:02:52Z</time></trkpt>
<trkpt lat="29.775554" lon="91.472953">
<time>2016-10-08T06:02:53Z</time></trkpt>
<trkpt lat="29.775504" lon="91.472923">
<time>2016-10-08T06:02:54Z</time></trkpt>
<trkpt lat="29.775454" lon="91.472893">
<time>2016-10-08T06:02:55Z</time></trkpt>
<trkpt lat="29.775394" lon="91.472843">
<time>2016-10-08T06:02:56Z</time></trkpt>
<trkpt lat="29.775324" lon="91.472793">
<time>2016-10-08T06:02:57Z</time></trkpt>
<trkpt lat="29.775274" lon="91.472732">
<time>2016-10-08T06:02:58Z</time></trkpt>
<trkpt lat="29.775223" lon="91.472662">
<time>2016-10-08T06:02:59Z</time></trkpt>
<trkpt lat="29.775163" lon="91.472562">
<time>2016-10-08T06:03:00Z</time></trkpt>
<trkpt lat="29.775043" lon="91.472351">
<time>2016-10-08T06:03:01Z</time></trkpt>
<trkpt lat="29.774862" lon="91.47201">
<time>2016-10-08T06:03:02Z</time></trkpt>
<trkpt lat="29.774631" lon="91.471599">
<time>2016-10-08T06:03:03Z</time></trkpt>
<trkpt lat="29.774239" lon="91.470906">
<time>2016-10-08T06:03:04Z</time></trkpt>
<trkpt lat="29.774068" lon="91.470575">
<time>2016-10-08T06:03:05Z</time></trkpt>
<trkpt lat="29.773937" lon="91.470365">
<time>2016-10-08T06:03:06Z</time></trkpt>
<trkpt lat="29.773867" lon="91.470234">
<time>2016-10-08T06:03:07Z</time></trkpt>
<trkpt lat="29.773817" lon="91.470124">
<time>2016-10-08T06:03:08Z</time></trkpt>
<trkpt lat="29.773787" lon="91.470074">
<time>2016-10-08T06:03:09Z</time></trkpt>
<trkpt lat="29.773766" lon="91.470013">
<time>2016-10-08T06:03:10Z</time></trkpt>
<trkpt lat="29.773746" lon="91.469953">
<time>2016-10-08T06:03:11Z</time></trkpt>
<trkpt lat="29.773726" lon="91.469893">
<time>2016-10-08T06:03:12Z</time></trkpt>
<trkpt lat="29.773706" lon="91.469803">
<time>2016-10-08T06:03:13Z</time></trkpt>
<trkpt lat="29.773696" lon="91.469723">
<time>2016-10-08T06:03:14Z</time></trkpt>
<trkpt lat="29.773685" lon="91.469652">
<time>2016-10-08T06:03:15Z</time></trkpt>
<trkpt lat="29.773685" lon="91.469562">
<time>2016-10-08T06:03:16Z</time></trkpt>
<trkpt lat="29.773695" lon="91.469472">
<time>2016-10-08T06:03:17Z</time></trkpt>
<trkpt lat="29.773705" lon="91.469351">
<time>2016-10-08T06:03:18Z</time></trkpt>
<trkpt lat="29.773714" lon="91.469261">
<time>2016-10-08T06:03:19Z</time></trkpt>
<trkpt lat="29.773744" lon="91.46908">
<time>2016-10-08T06:03:20Z</time></trkpt>
<trkpt lat="29.773813" lon="91.468589">
<time>2016-10-08T06:03:21Z</time></trkpt>
<trkpt lat="29.773911" lon="91.467907">
<time>2016-10-08T06:03:22Z</time></trkpt>
<trkpt lat="29.773921" lon="91.467816">
<time>2016-10-08T06:03:23Z</time></trkpt>
<trkpt lat="29.77394" lon="91.467746">
<time>2016-10-08T06:03:24Z</time></trkpt>
<trkpt lat="29.77396" lon="91.467686">
<time>2016-10-08T06:03:25Z</time></trkpt>
<trkpt lat="29.77397" lon="91.467636">
<time>2016-10-08T06:03:26Z</time></trkpt>
<trkpt lat="29.77399" lon="91.467586">
<time>2016-10-08T06:03:27Z</time></trkpt>
<trkpt lat="29.77401" lon="91.467525">
<time>2016-10-08T06:03:28Z</time></trkpt>
<trkpt lat="29.77404" lon="91.467475">
<time>2016-10-08T06:03:29Z</time></trkpt>
<trkpt lat="29.77406" lon="91.467435">
<time>2016-10-08T06:03:30Z</time></trkpt>
<trkpt lat="29.774109" lon="91.467365">
<time>2016-10-08T06:03:31Z</time></trkpt>
<trkpt lat="29.774149" lon="91.467315">
<time>2016-10-08T06:03:32Z</time></trkpt>
<trkpt lat="29.774179" lon="91.467275">
<time>2016-10-08T06:03:33Z</time></trkpt>
<trkpt lat="29.774239" lon="91.467224">
<time>2016-10-08T06:03:34Z</time></trkpt>
<trkpt lat="29.774349" lon="91.467134">
<time>2016-10-08T06:03:35Z</time></trkpt>
<trkpt lat="29.774598" lon="91.466944">
<time>2016-10-08T06:03:36Z</time></trkpt>
<trkpt lat="29.774758" lon="91.466813">
<time>2016-10-08T06:03:37Z</time></trkpt>
<trkpt lat="29.774957" lon="91.466663">
<time>2016-10-08T06:03:38Z</time></trkpt>
<trkpt lat="29.775087" lon="91.466552">
<time>2016-10-08T06:03:39Z</time></trkpt>
<trkpt lat="29.775207" lon="91.466452">
<time>2016-10-08T06:03:40Z</time></trkpt>
<trkpt lat="29.775267" lon="91.466392">
<time>2016-10-08T06:03:41Z</time></trkpt>
<trkpt lat="29.775366" lon="91.466281">
<time>2016-10-08T06:03:42Z</time></trkpt>
<trkpt lat="29.775636" lon="91.46598">
<time>2016-10-08T06:03:43Z</time></trkpt>
<trkpt lat="29.775885" lon="91.46571">
<time>2016-10-08T06:03:44Z</time></trkpt>
<trkpt lat="29.776024" lon="91.465549">
<time>2016-10-08T06:03:45Z</time></trkpt>
<trkpt lat="29.776084" lon="91.465479">
<time>2016-10-08T06:03:46Z</time></trkpt>
<trkpt lat="29.776124" lon="91.465429">
<time>2016-10-08T06:03:47Z</time></trkpt>
<trkpt lat="29.776174" lon="91.465358">
<time>2016-10-08T06:03:48Z</time></trkpt>
<trkpt lat="29.776194" lon="91.465298">
<time>2016-10-08T06:03:49Z</time></trkpt>
<trkpt lat="29.776214" lon="91.465248">
<time>2016-10-08T06:03:50Z</time></trkpt>
<trkpt lat="29.776224" lon="91.465188">
<time>2016-10-08T06:03:51Z</time></trkpt>
<trkpt lat="29.776233" lon="91.465148">
<time>2016-10-08T06:03:52Z</time></trkpt>
<trkpt lat="29.776233" lon="91.465108">
<time>2016-10-08T06:03:53Z</time></trkpt>
<trkpt lat="29.776233" lon="91.465088">
<time>2016-10-08T06:03:54Z</time></trkpt>
<trkpt lat="29.776233" lon="91.465047">
<time>2016-10-08T06:03:55Z</time></trkpt>
<trkpt lat="29.776223" lon="91.465007">
<time>2016-10-08T06:03:56Z</time></trkpt>
<trkpt lat="29.776223" lon="91.464927">
<time>2016-10-08T06:03:57Z</time></trkpt>
<trkpt lat="29.776213" lon="91.464857">
<time>2016-10-08T06:03:58Z</time></trkpt>
<trkpt lat="29.776203" lon="91.464777">
<time>2016-10-08T06:03:59Z</time></trkpt>
<trkpt lat="29.776172" lon="91.464636">
<time>2016-10-08T06:04:00Z</time></trkpt>
<trkpt lat="29.776122" lon="91.464456">
<time>2016-10-08T06:04:01Z</time></trkpt>
<trkpt lat="29.776092" lon="91.464375">
<time>2016-10-08T06:04:02Z</time></trkpt>
<trkpt lat="29.776051" lon="91.464295">
<time>2016-10-08T06:04:03Z</time></trkpt>
<trkpt lat="29.776021" lon="91.464235">
<time>2016-10-08T06:04:04Z</time></trkpt>
<trkpt lat="29.775971" lon="91.464155">
<time>2016-10-08T06:04:05Z</time></trkpt>
<trkpt lat="29.775881" lon="91.464054">
<time>2016-10-08T06:04:06Z</time></trkpt>
<trkpt lat="29.775821" lon="91.463984">
<time>2016-10-08T06:04:07Z</time></trkpt>
<trkpt lat="29.77576" lon="91.463924">
<time>2016-10-08T06:04:08Z</time></trkpt>
<trkpt lat="29.77571" lon="91.463884">
<time>2016-10-08T06:04:09Z</time></trkpt>
<trkpt lat="29.77564" lon="91.463824">
<time>2016-10-08T06:04:10Z</time></trkpt>
<trkpt lat="29.77554" lon="91.463753">
<time>2016-10-08T06:04:11Z</time></trkpt>
<trkpt lat="29.775109" lon="91.463473">
<time>2016-10-08T06:04:12Z</time></trkpt>
<trkpt lat="29.774659" lon="91.463172">
<time>2016-10-08T06:04:13Z</time></trkpt>
<trkpt lat="29.773247" lon="91.462279">
<time>2016-10-08T06:04:14Z</time></trkpt>
<trkpt lat="29.772395" lon="91.461717">
<time>2016-10-08T06:04:15Z</time></trkpt>
<trkpt lat="29.771875" lon="91.461386">
<time>2016-10-08T06:04:16Z</time></trkpt>
<trkpt lat="29.771594" lon="91.461206">
<time>2016-10-08T06:04:17Z</time></trkpt>
<trkpt lat="29.771524" lon="91.461156">
<time>2016-10-08T06:04:18Z</time></trkpt>
<trkpt lat="29.771454" lon="91.461105">
<time>2016-10-08T06:04:19Z</time></trkpt>
<trkpt lat="29.771394" lon="91.461055">
<time>2016-10-08T06:04:20Z</time></trkpt>
<trkpt lat="29.770833" lon="91.460694">
<time>2016-10-08T06:04:21Z</time></trkpt>
<trkpt lat="29.770532" lon="91.460484">
<time>2016-10-08T06:04:22Z</time></trkpt>
<trkpt lat="29.770442" lon="91.460433">
<time>2016-10-08T06:04:23Z</time></trkpt>
<trkpt lat="29.770332" lon="91.460353">
<time>2016-10-08T06:04:24Z</time></trkpt>
<trkpt lat="29.770011" lon="91.460052">
<time>2016-10-08T06:04:25Z</time></trkpt>
<trkpt lat="29.769851" lon="91.459912">
<time>2016-10-08T06:04:26Z</time></trkpt>
<trkpt lat="29.76949" lon="91.459561">
<time>2016-10-08T06:04:27Z</time></trkpt>
<trkpt lat="29.768829" lon="91.458919">
<time>2016-10-08T06:04:28Z</time></trkpt>
<trkpt lat="29.768478" lon="91.458588">
<time>2016-10-08T06:04:29Z</time></trkpt>
<trkpt lat="29.768087" lon="91.458217">
<time>2016-10-08T06:04:30Z</time></trkpt>
<trkpt lat="29.767707" lon="91.457856">
<time>2016-10-08T06:04:31Z</time></trkpt>
<trkpt lat="29.767476" lon="91.457635">
<time>2016-10-08T06:04:32Z</time></trkpt>
<trkpt lat="29.767035" lon="91.457214">
<time>2016-10-08T06:04:33Z</time></trkpt>
<trkpt lat="29.765412" lon="91.45566">
<time>2016-10-08T06:04:34Z</time></trkpt>
<trkpt lat="29.765091" lon="91.455359">
<time>2016-10-08T06:04:35Z</time></trkpt>
<trkpt lat="29.76479" lon="91.455058">
<time>2016-10-08T06:04:36Z</time></trkpt>
<trkpt lat="29.76471" lon="91.454968">
<time>2016-10-08T06:04:37Z</time></trkpt>
<trkpt lat="29.763257" lon="91.453574">
<time>2016-10-08T06:04:38Z</time></trkpt>
<trkpt lat="29.762836" lon="91.453173">
<time>2016-10-08T06:04:39Z</time></trkpt>
<trkpt lat="29.762646" lon="91.453012">
<time>2016-10-08T06:04:40Z</time></trkpt>
<trkpt lat="29.762366" lon="91.452832">
<time>2016-10-08T06:04:41Z</time></trkpt>
<trkpt lat="29.758332" lon="91.450676">
<time>2016-10-08T06:04:42Z</time></trkpt>
<trkpt lat="29.755999" lon="91.449433">
<time>2016-10-08T06:04:43Z</time></trkpt>
<trkpt lat="29.750044" lon="91.446285">
<time>2016-10-08T06:04:44Z</time></trkpt>
<trkpt lat="29.749804" lon="91.446165">
<time>2016-10-08T06:04:45Z</time></trkpt>
<trkpt lat="29.749703" lon="91.446125">
<time>2016-10-08T06:04:46Z</time></trkpt>
<trkpt lat="29.747281" lon="91.444842">
<time>2016-10-08T06:04:47Z</time></trkpt>
<trkpt lat="29.74624" lon="91.444281">
<time>2016-10-08T06:04:48Z</time></trkpt>
<trkpt lat="29.743118" lon="91.442637">
<time>2016-10-08T06:04:49Z</time></trkpt>
<trkpt lat="29.739495" lon="91.440703">
<time>2016-10-08T06:04:50Z</time></trkpt>
<trkpt lat="29.738794" lon="91.440322">
<time>2016-10-08T06:04:51Z</time></trkpt>
<trkpt lat="29.738074" lon="91.439891">
<time>2016-10-08T06:04:52Z</time></trkpt>
<trkpt lat="29.738054" lon="91.439881">
<time>2016-10-08T06:04:53Z</time></trkpt>
<trkpt lat="29.737143" lon="91.43931">
<time>2016-10-08T06:04:54Z</time></trkpt>
<trkpt lat="29.735882" lon="91.438518">
<time>2016-10-08T06:04:55Z</time></trkpt>
<trkpt lat="29.735021" lon="91.437997">
<time>2016-10-08T06:04:56Z</time></trkpt>
<trkpt lat="29.734891" lon="91.437917">
<time>2016-10-08T06:04:57Z</time></trkpt>
<trkpt lat="29.734711" lon="91.437817">
<time>2016-10-08T06:04:58Z</time></trkpt>
<trkpt lat="29.734591" lon="91.437777">
<time>2016-10-08T06:04:59Z</time></trkpt>
<trkpt lat="29.734471" lon="91.437737">
<time>2016-10-08T06:05:00Z</time></trkpt>
<trkpt lat="29.734381" lon="91.437706">
<time>2016-10-08T06:05:01Z</time></trkpt>
<trkpt lat="29.734291" lon="91.437696">
<time>2016-10-08T06:05:02Z</time></trkpt>
<trkpt lat="29.734191" lon="91.437686">
<time>2016-10-08T06:05:03Z</time></trkpt>
<trkpt lat="29.734131" lon="91.437676">
<time>2016-10-08T06:05:04Z</time></trkpt>
<trkpt lat="29.734021" lon="91.437666">
<time>2016-10-08T06:05:05Z</time></trkpt>
<trkpt lat="29.733881" lon="91.437666">
<time>2016-10-08T06:05:06Z</time></trkpt>
<trkpt lat="29.733301" lon="91.437656">
<time>2016-10-08T06:05:07Z</time></trkpt>
<trkpt lat="29.731881" lon="91.437596">
<time>2016-10-08T06:05:08Z</time></trkpt>
<trkpt lat="29.731701" lon="91.437556">
<time>2016-10-08T06:05:09Z</time></trkpt>
<trkpt lat="29.731271" lon="91.437576">
<time>2016-10-08T06:05:10Z</time></trkpt>
<trkpt lat="29.729991" lon="91.437526">
<time>2016-10-08T06:05:11Z</time></trkpt>
<trkpt lat="29.729621" lon="91.437506">
<time>2016-10-08T06:05:12Z</time></trkpt>
<trkpt lat="29.728261" lon="91.437446">
<time>2016-10-08T06:05:13Z</time></trkpt>
<trkpt lat="29.726751" lon="91.437396">
<time>2016-10-08T06:05:14Z</time></trkpt>
<trkpt lat="29.725961" lon="91.437366">
<time>2016-10-08T06:05:15Z</time></trkpt>
<trkpt lat="29.725161" lon="91.437336">
<time>2016-10-08T06:05:16Z</time></trkpt>
<trkpt lat="29.724231" lon="91.437296">
<time>2016-10-08T06:05:17Z</time></trkpt>
<trkpt lat="29.723102" lon="91.437246">
<time>2016-10-08T06:05:18Z</time></trkpt>
<trkpt lat="29.721622" lon="91.437186">
<time>2016-10-08T06:05:19Z</time></trkpt>
<trkpt lat="29.719852" lon="91.437116">
<time>2016-10-08T06:05:20Z</time></trkpt>
<trkpt lat="29.719172" lon="91.437086">
<time>2016-10-08T06:05:21Z</time></trkpt>
<trkpt lat="29.718532" lon="91.437066">
<time>2016-10-08T06:05:22Z</time></trkpt>
<trkpt lat="29.718272" lon="91.437045">
<time>2016-10-08T06:05:23Z</time></trkpt>
<trkpt lat="29.718042" lon="91.437015">
<time>2016-10-08T06:05:24Z</time></trkpt>
<trkpt lat="29.717862" lon="91.436985">
<time>2016-10-08T06:05:25Z</time></trkpt>
<trkpt lat="29.717692" lon="91.436935">
<time>2016-10-08T06:05:26Z</time></trkpt>
<trkpt lat="29.717502" lon="91.436875">
<time>2016-10-08T06:05:27Z</time></trkpt>
<trkpt lat="29.717122" lon="91.436735">
<time>2016-10-08T06:05:28Z</time></trkpt>
<trkpt lat="29.716001" lon="91.436314">
<time>2016-10-08T06:05:29Z</time></trkpt>
<trkpt lat="29.714951" lon="91.435923">
<time>2016-10-08T06:05:30Z</time></trkpt>
<trkpt lat="29.714541" lon="91.435763">
<time>2016-10-08T06:05:31Z</time></trkpt>
<trkpt lat="29.71355" lon="91.435412">
<time>2016-10-08T06:05:32Z</time></trkpt>
<trkpt lat="29.71231" lon="91.434951">
<time>2016-10-08T06:05:33Z</time></trkpt>
<trkpt lat="29.710899" lon="91.434431">
<time>2016-10-08T06:05:34Z</time></trkpt>
<trkpt lat="29.709439" lon="91.43389">
<time>2016-10-08T06:05:35Z</time></trkpt>
<trkpt lat="29.708528" lon="91.433559">
<time>2016-10-08T06:05:36Z</time></trkpt>
<trkpt lat="29.707318" lon="91.433108">
<time>2016-10-08T06:05:37Z</time></trkpt>
<trkpt lat="29.705297" lon="91.432367">
<time>2016-10-08T06:05:38Z</time></trkpt>
<trkpt lat="29.704347" lon="91.432016">
<time>2016-10-08T06:05:39Z</time></trkpt>
<trkpt lat="29.703687" lon="91.431776">
<time>2016-10-08T06:05:40Z</time></trkpt>
<trkpt lat="29.702676" lon="91.431365">
<time>2016-10-08T06:05:41Z</time></trkpt>
<trkpt lat="29.702116" lon="91.431115">
<time>2016-10-08T06:05:42Z</time></trkpt>
<trkpt lat="29.701646" lon="91.430884">
<time>2016-10-08T06:05:43Z</time></trkpt>
<trkpt lat="29.701556" lon="91.430834">
<time>2016-10-08T06:05:44Z</time></trkpt>
<trkpt lat="29.701446" lon="91.430724">
<time>2016-10-08T06:05:45Z</time></trkpt>
<trkpt lat="29.701305" lon="91.430564">
<time>2016-10-08T06:05:46Z</time></trkpt>
<trkpt lat="29.701165" lon="91.430383">
<time>2016-10-08T06:05:47Z</time></trkpt>
<trkpt lat="29.700895" lon="91.429823">
<time>2016-10-08T06:05:48Z</time></trkpt>
<trkpt lat="29.700514" lon="91.429202">
<time>2016-10-08T06:05:49Z</time></trkpt>
<trkpt lat="29.700394" lon="91.429021">
<time>2016-10-08T06:05:50Z</time></trkpt>
<trkpt lat="29.700293" lon="91.428921">
<time>2016-10-08T06:05:51Z</time></trkpt>
<trkpt lat="29.700203" lon="91.428841">
<time>2016-10-08T06:05:52Z</time></trkpt>
<trkpt lat="29.700123" lon="91.428791">
<time>2016-10-08T06:05:53Z</time></trkpt>
<trkpt lat="29.700013" lon="91.428731">
<time>2016-10-08T06:05:54Z</time></trkpt>
<trkpt lat="29.699883" lon="91.428681">
<time>2016-10-08T06:05:55Z</time></trkpt>
<trkpt lat="29.698983" lon="91.42834">
<time>2016-10-08T06:05:56Z</time></trkpt>
<trkpt lat="29.698153" lon="91.42803">
<time>2016-10-08T06:05:57Z</time></trkpt>
<trkpt lat="29.697963" lon="91.42797">
<time>2016-10-08T06:05:58Z</time></trkpt>
<trkpt lat="29.697693" lon="91.42791">
<time>2016-10-08T06:05:59Z</time></trkpt>
<trkpt lat="29.697513" lon="91.427869">
<time>2016-10-08T06:06:00Z</time></trkpt>
<trkpt lat="29.697273" lon="91.427859">
<time>2016-10-08T06:06:01Z</time></trkpt>
<trkpt lat="29.696123" lon="91.427779">
<time>2016-10-08T06:06:02Z</time></trkpt>
<trkpt lat="29.694283" lon="91.427679">
<time>2016-10-08T06:06:03Z</time></trkpt>
<trkpt lat="29.693133" lon="91.427599">
<time>2016-10-08T06:06:04Z</time></trkpt>
<trkpt lat="29.692883" lon="91.427569">
<time>2016-10-08T06:06:05Z</time></trkpt>
<trkpt lat="29.692763" lon="91.427539">
<time>2016-10-08T06:06:06Z</time></trkpt>
<trkpt lat="29.692643" lon="91.427479">
<time>2016-10-08T06:06:07Z</time></trkpt>
<trkpt lat="29.692553" lon="91.427429">
<time>2016-10-08T06:06:08Z</time></trkpt>
<trkpt lat="29.692443" lon="91.427329">
<time>2016-10-08T06:06:09Z</time></trkpt>
<trkpt lat="29.692253" lon="91.427148">
<time>2016-10-08T06:06:10Z</time></trkpt>
<trkpt lat="29.691332" lon="91.426247">
<time>2016-10-08T06:06:11Z</time></trkpt>
<trkpt lat="29.689851" lon="91.424795">
<time>2016-10-08T06:06:12Z</time></trkpt>
<trkpt lat="29.6896" lon="91.424555">
<time>2016-10-08T06:06:13Z</time></trkpt>
<trkpt lat="29.68941" lon="91.424385">
<time>2016-10-08T06:06:14Z</time></trkpt>
<trkpt lat="29.6892" lon="91.424214">
<time>2016-10-08T06:06:15Z</time></trkpt>
<trkpt lat="29.68811" lon="91.423493">
<time>2016-10-08T06:06:16Z</time></trkpt>
<trkpt lat="29.687619" lon="91.423153">
<time>2016-10-08T06:06:17Z</time></trkpt>
<trkpt lat="29.687199" lon="91.422883">
<time>2016-10-08T06:06:18Z</time></trkpt>
<trkpt lat="29.686499" lon="91.422412">
<time>2016-10-08T06:06:19Z</time></trkpt>
<trkpt lat="29.685889" lon="91.422001">
<time>2016-10-08T06:06:20Z</time></trkpt>
<trkpt lat="29.685708" lon="91.421861">
<time>2016-10-08T06:06:21Z</time></trkpt>
<trkpt lat="29.685488" lon="91.421711">
<time>2016-10-08T06:06:22Z</time></trkpt>
<trkpt lat="29.685288" lon="91.421541">
<time>2016-10-08T06:06:23Z</time></trkpt>
<trkpt lat="29.685208" lon="91.421431">
<time>2016-10-08T06:06:24Z</time></trkpt>
<trkpt lat="29.685148" lon="91.421341">
<time>2016-10-08T06:06:25Z</time></trkpt>
<trkpt lat="29.684898" lon="91.42088">
<time>2016-10-08T06:06:26Z</time></trkpt>
<trkpt lat="29.684627" lon="91.42039">
<time>2016-10-08T06:06:27Z</time></trkpt>
<trkpt lat="29.684197" lon="91.419599">
<time>2016-10-08T06:06:28Z</time></trkpt>
<trkpt lat="29.683806" lon="91.418878">
<time>2016-10-08T06:06:29Z</time></trkpt>
<trkpt lat="29.683236" lon="91.417837">
<time>2016-10-08T06:06:30Z</time></trkpt>
<trkpt lat="29.682895" lon="91.417186">
<time>2016-10-08T06:06:31Z</time></trkpt>
<trkpt lat="29.682705" lon="91.416846">
<time>2016-10-08T06:06:32Z</time></trkpt>
<trkpt lat="29.682555" lon="91.416555">
<time>2016-10-08T06:06:33Z</time></trkpt>
<trkpt lat="29.682505" lon="91.416445">
<time>2016-10-08T06:06:34Z</time></trkpt>
<trkpt lat="29.682445" lon="91.416285">
<time>2016-10-08T06:06:35Z</time></trkpt>
<trkpt lat="29.682374" lon="91.416065">
<time>2016-10-08T06:06:36Z</time></trkpt>
<trkpt lat="29.682284" lon="91.415645">
<time>2016-10-08T06:06:37Z</time></trkpt>
<trkpt lat="29.682274" lon="91.415625">
<time>2016-10-08T06:06:38Z</time></trkpt>
<trkpt lat="29.682174" lon="91.415164">
<time>2016-10-08T06:06:39Z</time></trkpt>
<trkpt lat="29.682144" lon="91.415064">
<time>2016-10-08T06:06:40Z</time></trkpt>
<trkpt lat="29.682114" lon="91.414974">
<time>2016-10-08T06:06:41Z</time></trkpt>
<trkpt lat="29.682084" lon="91.414904">
<time>2016-10-08T06:06:42Z</time></trkpt>
<trkpt lat="29.682044" lon="91.414844">
<time>2016-10-08T06:06:43Z</time></trkpt>
<trkpt lat="29.682004" lon="91.414774">
<time>2016-10-08T06:06:44Z</time></trkpt>
<trkpt lat="29.681954" lon="91.414714">
<time>2016-10-08T06:06:45Z</time></trkpt>
<trkpt lat="29.681894" lon="91.414634">
<time>2016-10-08T06:06:46Z</time></trkpt>
<trkpt lat="29.681824" lon="91.414574">
<time>2016-10-08T06:06:47Z</time></trkpt>
<trkpt lat="29.681754" lon="91.414504">
<time>2016-10-08T06:06:48Z</time></trkpt>
<trkpt lat="29.681674" lon="91.414464">
<time>2016-10-08T06:06:49Z</time></trkpt>
<trkpt lat="29.681594" lon="91.414413">
<time>2016-10-08T06:06:50Z</time></trkpt>
<trkpt lat="29.681433" lon="91.414293">
<time>2016-10-08T06:06:51Z</time></trkpt>
<trkpt lat="29.681003" lon="91.413973">
<time>2016-10-08T06:06:52Z</time></trkpt>
<trkpt lat="29.680833" lon="91.413843">
<time>2016-10-08T06:06:53Z</time></trkpt>
<trkpt lat="29.680753" lon="91.413753">
<time>2016-10-08T06:06:54Z</time></trkpt>
<trkpt lat="29.680703" lon="91.413673">
<time>2016-10-08T06:06:55Z</time></trkpt>
<trkpt lat="29.680673" lon="91.413613">
<time>2016-10-08T06:06:56Z</time></trkpt>
<trkpt lat="29.680643" lon="91.413543">
<time>2016-10-08T06:06:57Z</time></trkpt>
<trkpt lat="29.680613" lon="91.413453">
<time>2016-10-08T06:06:58Z</time></trkpt>
<trkpt lat="29.680563" lon="91.413243">
<time>2016-10-08T06:06:59Z</time></trkpt>
<trkpt lat="29.680323" lon="91.412182">
<time>2016-10-08T06:07:00Z</time></trkpt>
<trkpt lat="29.679982" lon="91.410731">
<time>2016-10-08T06:07:01Z</time></trkpt>
<trkpt lat="29.679711" lon="91.40956">
<time>2016-10-08T06:07:02Z</time></trkpt>
<trkpt lat="29.679341" lon="91.407979">
<time>2016-10-08T06:07:03Z</time></trkpt>
<trkpt lat="29.679151" lon="91.407249">
<time>2016-10-08T06:07:04Z</time></trkpt>
<trkpt lat="29.678831" lon="91.405838">
<time>2016-10-08T06:07:05Z</time></trkpt>
<trkpt lat="29.67876" lon="91.405538">
<time>2016-10-08T06:07:06Z</time></trkpt>
<trkpt lat="29.67863" lon="91.404968">
<time>2016-10-08T06:07:07Z</time></trkpt>
<trkpt lat="29.67855" lon="91.404608">
<time>2016-10-08T06:07:08Z</time></trkpt>
<trkpt lat="29.6785" lon="91.404287">
<time>2016-10-08T06:07:09Z</time></trkpt>
<trkpt lat="29.67842" lon="91.403427">
<time>2016-10-08T06:07:10Z</time></trkpt>
<trkpt lat="29.67831" lon="91.402057">
<time>2016-10-08T06:07:11Z</time></trkpt>
<trkpt lat="29.67828" lon="91.401717">
<time>2016-10-08T06:07:12Z</time></trkpt>
<trkpt lat="29.67828" lon="91.401497">
<time>2016-10-08T06:07:13Z</time></trkpt>
<trkpt lat="29.67828" lon="91.401497">
<time>2016-10-08T06:07:14Z</time></trkpt>
<trkpt lat="29.67833" lon="91.401357">
<time>2016-10-08T06:07:15Z</time></trkpt>
<trkpt lat="29.67845" lon="91.401097">
<time>2016-10-08T06:07:16Z</time></trkpt>
<trkpt lat="29.67857" lon="91.400877">
<time>2016-10-08T06:07:17Z</time></trkpt>
<trkpt lat="29.67863" lon="91.400767">
<time>2016-10-08T06:07:18Z</time></trkpt>
<trkpt lat="29.67866" lon="91.400657">
<time>2016-10-08T06:07:19Z</time></trkpt>
<trkpt lat="29.67868" lon="91.400547">
<time>2016-10-08T06:07:20Z</time></trkpt>
<trkpt lat="29.67868" lon="91.400297">
<time>2016-10-08T06:07:21Z</time></trkpt>
<trkpt lat="29.67868" lon="91.399887">
<time>2016-10-08T06:07:22Z</time></trkpt>
<trkpt lat="29.67868" lon="91.399406">
<time>2016-10-08T06:07:23Z</time></trkpt>
<trkpt lat="29.67867" lon="91.399306">
<time>2016-10-08T06:07:24Z</time></trkpt>
<trkpt lat="29.67864" lon="91.399206">
<time>2016-10-08T06:07:25Z</time></trkpt>
<trkpt lat="29.6786" lon="91.399136">
<time>2016-10-08T06:07:26Z</time></trkpt>
<trkpt lat="29.67854" lon="91.399046">
<time>2016-10-08T06:07:27Z</time></trkpt>
<trkpt lat="29.67844" lon="91.398956">
<time>2016-10-08T06:07:28Z</time></trkpt>
<trkpt lat="29.67833" lon="91.398876">
<time>2016-10-08T06:07:29Z</time></trkpt>
<trkpt lat="29.67822" lon="91.398816">
<time>2016-10-08T06:07:30Z</time></trkpt>
<trkpt lat="29.67811" lon="91.398776">
<time>2016-10-08T06:07:31Z</time></trkpt>
<trkpt lat="29.67779" lon="91.398656">
<time>2016-10-08T06:07:32Z</time></trkpt>
<trkpt lat="29.67779" lon="91.398656">
<time>2016-10-08T06:07:33Z</time></trkpt>
<trkpt lat="29.67768" lon="91.398606">
<time>2016-10-08T06:07:34Z</time></trkpt>
<trkpt lat="29.676481" lon="91.397826">
<time>2016-10-08T06:07:35Z</time></trkpt>
<trkpt lat="29.676231" lon="91.397666">
<time>2016-10-08T06:07:36Z</time></trkpt>
<trkpt lat="29.676051" lon="91.397536">
<time>2016-10-08T06:07:37Z</time></trkpt>
<trkpt lat="29.675951" lon="91.397446">
<time>2016-10-08T06:07:38Z</time></trkpt>
<trkpt lat="29.675871" lon="91.397366">
<time>2016-10-08T06:07:39Z</time></trkpt>
<trkpt lat="29.675791" lon="91.397256">
<time>2016-10-08T06:07:40Z</time></trkpt>
<trkpt lat="29.675701" lon="91.397116">
<time>2016-10-08T06:07:41Z</time></trkpt>
<trkpt lat="29.675601" lon="91.396916">
<time>2016-10-08T06:07:42Z</time></trkpt>
<trkpt lat="29.675451" lon="91.396597">
<time>2016-10-08T06:07:43Z</time></trkpt>
<trkpt lat="29.675081" lon="91.395827">
<time>2016-10-08T06:07:44Z</time></trkpt>
<trkpt lat="29.674821" lon="91.395267">
<time>2016-10-08T06:07:45Z</time></trkpt>
<trkpt lat="29.674292" lon="91.394147">
<time>2016-10-08T06:07:46Z</time></trkpt>
<trkpt lat="29.674012" lon="91.393507">
<time>2016-10-08T06:07:47Z</time></trkpt>
<trkpt lat="29.673722" lon="91.392667">
<time>2016-10-08T06:07:48Z</time></trkpt>
<trkpt lat="29.673393" lon="91.391727">
<time>2016-10-08T06:07:49Z</time></trkpt>
<trkpt lat="29.672973" lon="91.390508">
<time>2016-10-08T06:07:50Z</time></trkpt>
<trkpt lat="29.672714" lon="91.389728">
<time>2016-10-08T06:07:51Z</time></trkpt>
<trkpt lat="29.672624" lon="91.389438">
<time>2016-10-08T06:07:52Z</time></trkpt>
<trkpt lat="29.672584" lon="91.389268">
<time>2016-10-08T06:07:53Z</time></trkpt>
<trkpt lat="29.672524" lon="91.388889">
<time>2016-10-08T06:07:54Z</time></trkpt>
<trkpt lat="29.672445" lon="91.388349">
<time>2016-10-08T06:07:55Z</time></trkpt>
<trkpt lat="29.672365" lon="91.387789">
<time>2016-10-08T06:07:56Z</time></trkpt>
<trkpt lat="29.672325" lon="91.387469">
<time>2016-10-08T06:07:57Z</time></trkpt>
<trkpt lat="29.672275" lon="91.387269">
<time>2016-10-08T06:07:58Z</time></trkpt>
<trkpt lat="29.672096" lon="91.38663">
<time>2016-10-08T06:07:59Z</time></trkpt>
<trkpt lat="29.672076" lon="91.38647">
<time>2016-10-08T06:08:00Z</time></trkpt>
<trkpt lat="29.672056" lon="91.38627">
<time>2016-10-08T06:08:01Z</time></trkpt>
<trkpt lat="29.672066" lon="91.38604">
<time>2016-10-08T06:08:02Z</time></trkpt>
<trkpt lat="29.672106" lon="91.38586">
<time>2016-10-08T06:08:03Z</time></trkpt>
<trkpt lat="29.672276" lon="91.38535">
<time>2016-10-08T06:08:04Z</time></trkpt>
<trkpt lat="29.672286" lon="91.38529">
<time>2016-10-08T06:08:05Z</time></trkpt>
<trkpt lat="29.672366" lon="91.38521">
<time>2016-10-08T06:08:06Z</time></trkpt>
<trkpt lat="29.672467" lon="91.385101">
<time>2016-10-08T06:08:07Z</time></trkpt>
<trkpt lat="29.672507" lon="91.385051">
<time>2016-10-08T06:08:08Z</time></trkpt>
<trkpt lat="29.673397" lon="91.384151">
<time>2016-10-08T06:08:09Z</time></trkpt>
<trkpt lat="29.673617" lon="91.383921">
<time>2016-10-08T06:08:10Z</time></trkpt>
<trkpt lat="29.673727" lon="91.383791">
<time>2016-10-08T06:08:11Z</time></trkpt>
<trkpt lat="29.673827" lon="91.383671">
<time>2016-10-08T06:08:12Z</time></trkpt>
<trkpt lat="29.673927" lon="91.383531">
<time>2016-10-08T06:08:13Z</time></trkpt>
<trkpt lat="29.674067" lon="91.383312">
<time>2016-10-08T06:08:14Z</time></trkpt>
<trkpt lat="29.674218" lon="91.383072">
<time>2016-10-08T06:08:15Z</time></trkpt>
<trkpt lat="29.674388" lon="91.382802">
<time>2016-10-08T06:08:16Z</time></trkpt>
<trkpt lat="29.674458" lon="91.382682">
<time>2016-10-08T06:08:17Z</time></trkpt>
<trkpt lat="29.674508" lon="91.382572">
<time>2016-10-08T06:08:18Z</time></trkpt>
<trkpt lat="29.674538" lon="91.382522">
<time>2016-10-08T06:08:19Z</time></trkpt>
<trkpt lat="29.674548" lon="91.382462">
<time>2016-10-08T06:08:20Z</time></trkpt>
<trkpt lat="29.674578" lon="91.382312">
<time>2016-10-08T06:08:21Z</time></trkpt>
<trkpt lat="29.674588" lon="91.382212">
<time>2016-10-08T06:08:22Z</time></trkpt>
<trkpt lat="29.674598" lon="91.382122">
<time>2016-10-08T06:08:23Z</time></trkpt>
<trkpt lat="29.674588" lon="91.381973">
<time>2016-10-08T06:08:24Z</time></trkpt>
<trkpt lat="29.674588" lon="91.381863">
<time>2016-10-08T06:08:25Z</time></trkpt>
<trkpt lat="29.674559" lon="91.380993">
<time>2016-10-08T06:08:26Z</time></trkpt>
<trkpt lat="29.674549" lon="91.380814">
<time>2016-10-08T06:08:27Z</time></trkpt>
<trkpt lat="29.674559" lon="91.380644">
<time>2016-10-08T06:08:28Z</time></trkpt>
<trkpt lat="29.674569" lon="91.380574">
<time>2016-10-08T06:08:29Z</time></trkpt>
<trkpt lat="29.674599" lon="91.380494">
<time>2016-10-08T06:08:30Z</time></trkpt>
<trkpt lat="29.67462" lon="91.380424">
<time>2016-10-08T06:08:31Z</time></trkpt>
<trkpt lat="29.67465" lon="91.380364">
<time>2016-10-08T06:08:32Z</time></trkpt>
<trkpt lat="29.67469" lon="91.380294">
<time>2016-10-08T06:08:33Z</time></trkpt>
<trkpt lat="29.67477" lon="91.380184">
<time>2016-10-08T06:08:34Z</time></trkpt>
<trkpt lat="29.67484" lon="91.380084">
<time>2016-10-08T06:08:35Z</time></trkpt>
<trkpt lat="29.67549" lon="91.379315">
<time>2016-10-08T06:08:36Z</time></trkpt>
<trkpt lat="29.675711" lon="91.379025">
<time>2016-10-08T06:08:37Z</time></trkpt>
<trkpt lat="29.675911" lon="91.378735">
<time>2016-10-08T06:08:38Z</time></trkpt>
<trkpt lat="29.676441" lon="91.377876">
<time>2016-10-08T06:08:39Z</time></trkpt>
<trkpt lat="29.676632" lon="91.377546">
<time>2016-10-08T06:08:40Z</time></trkpt>
<trkpt lat="29.676892" lon="91.377027">
<time>2016-10-08T06:08:41Z</time></trkpt>
<trkpt lat="29.677012" lon="91.376777">
<time>2016-10-08T06:08:42Z</time></trkpt>
<trkpt lat="29.677113" lon="91.376567">
<time>2016-10-08T06:08:43Z</time></trkpt>
<trkpt lat="29.677163" lon="91.376417">
<time>2016-10-08T06:08:44Z</time></trkpt>
<trkpt lat="29.677203" lon="91.376278">
<time>2016-10-08T06:08:45Z</time></trkpt>
<trkpt lat="29.677233" lon="91.376078">
<time>2016-10-08T06:08:46Z</time></trkpt>
<trkpt lat="29.677223" lon="91.375888">
<time>2016-10-08T06:08:47Z</time></trkpt>
<trkpt lat="29.677203" lon="91.375798">
<time>2016-10-08T06:08:48Z</time></trkpt>
<trkpt lat="29.677173" lon="91.375718">
<time>2016-10-08T06:08:49Z</time></trkpt>
<trkpt lat="29.677143" lon="91.375648">
<time>2016-10-08T06:08:50Z</time></trkpt>
<trkpt lat="29.677094" lon="91.375548">
<time>2016-10-08T06:08:51Z</time></trkpt>
<trkpt lat="29.677024" lon="91.375448">
<time>2016-10-08T06:08:52Z</time></trkpt>
<trkpt lat="29.676684" lon="91.375049">
<time>2016-10-08T06:08:53Z</time></trkpt>
<trkpt lat="29.676534" lon="91.374869">
<time>2016-10-08T06:08:54Z</time></trkpt>
<trkpt lat="29.675306" lon="91.373401">
<time>2016-10-08T06:08:55Z</time></trkpt>
<trkpt lat="29.674997" lon="91.372991">
<time>2016-10-08T06:08:56Z</time></trkpt>
<trkpt lat="29.674857" lon="91.372801">
<time>2016-10-08T06:08:57Z</time></trkpt>
<trkpt lat="29.674787" lon="91.372651">
<time>2016-10-08T06:08:58Z</time></trkpt>
<trkpt lat="29.674687" lon="91.372462">
<time>2016-10-08T06:08:59Z</time></trkpt>
<trkpt lat="29.674608" lon="91.372242">
<time>2016-10-08T06:09:00Z</time></trkpt>
<trkpt lat="29.674398" lon="91.371633">
<time>2016-10-08T06:09:01Z</time></trkpt>
<trkpt lat="29.674199" lon="91.370993">
<time>2016-10-08T06:09:02Z</time></trkpt>
<trkpt lat="29.67396" lon="91.370294">
<time>2016-10-08T06:09:03Z</time></trkpt>
<trkpt lat="29.673801" lon="91.369795">
<time>2016-10-08T06:09:04Z</time></trkpt>
<trkpt lat="29.673621" lon="91.369246">
<time>2016-10-08T06:09:05Z</time></trkpt>
<trkpt lat="29.673452" lon="91.368786">
<time>2016-10-08T06:09:06Z</time></trkpt>
<trkpt lat="29.673113" lon="91.367927">
<time>2016-10-08T06:09:07Z</time></trkpt>
<trkpt lat="29.672944" lon="91.367508">
<time>2016-10-08T06:09:08Z</time></trkpt>
<trkpt lat="29.672336" lon="91.36599">
<time>2016-10-08T06:09:09Z</time></trkpt>
<trkpt lat="29.672146" lon="91.365471">
<time>2016-10-08T06:09:10Z</time></trkpt>
<trkpt lat="29.672057" lon="91.365071">
<time>2016-10-08T06:09:11Z</time></trkpt>
<trkpt lat="29.672047" lon="91.364932">
<time>2016-10-08T06:09:12Z</time></trkpt>
<trkpt lat="29.672027" lon="91.364762">
<time>2016-10-08T06:09:13Z</time></trkpt>
<trkpt lat="29.672028" lon="91.364412">
<time>2016-10-08T06:09:14Z</time></trkpt>
<trkpt lat="29.672058" lon="91.363973">
<time>2016-10-08T06:09:15Z</time></trkpt>
<trkpt lat="29.672251" lon="91.362225">
<time>2016-10-08T06:09:16Z</time></trkpt>
<trkpt lat="29.672463" lon="91.360428">
<time>2016-10-08T06:09:17Z</time></trkpt>
<trkpt lat="29.672463" lon="91.360428">
<time>2016-10-08T06:09:18Z</time></trkpt>
<trkpt lat="29.673243" lon="91.360328">
<time>2016-10-08T06:09:19Z</time></trkpt>
<trkpt lat="29.673406" lon="91.358921">
<time>2016-10-08T06:09:20Z</time></trkpt>
<trkpt lat="29.673507" lon="91.357962">
<time>2016-10-08T06:09:21Z</time></trkpt>
<trkpt lat="29.673537" lon="91.357733">
<time>2016-10-08T06:09:22Z</time></trkpt>
<trkpt lat="29.673537" lon="91.357733">
<time>2016-10-08T06:09:23Z</time></trkpt>
<trkpt lat="29.673597" lon="91.357743">
<time>2016-10-08T06:09:24Z</time></trkpt>
<trkpt lat="29.673637" lon="91.357733">
<time>2016-10-08T06:09:25Z</time></trkpt>
<trkpt lat="29.673677" lon="91.357713">
<time>2016-10-08T06:09:26Z</time></trkpt>
<trkpt lat="29.673707" lon="91.357663">
<time>2016-10-08T06:09:27Z</time></trkpt>
<trkpt lat="29.673727" lon="91.357603">
<time>2016-10-08T06:09:28Z</time></trkpt>
<trkpt lat="29.673748" lon="91.357493">
<time>2016-10-08T06:09:29Z</time></trkpt>
<trkpt lat="29.673768" lon="91.357273">
<time>2016-10-08T06:09:30Z</time></trkpt>
<trkpt lat="29.673778" lon="91.357104">
<time>2016-10-08T06:09:31Z</time></trkpt>
<trkpt lat="29.673799" lon="91.356904">
<time>2016-10-08T06:09:32Z</time></trkpt>
<trkpt lat="29.673829" lon="91.356515">
<time>2016-10-08T06:09:33Z</time></trkpt>
<trkpt lat="29.67387" lon="91.355995">
<time>2016-10-08T06:09:34Z</time></trkpt>
<trkpt lat="29.67387" lon="91.355995">
<time>2016-10-08T06:09:35Z</time></trkpt>
<trkpt lat="29.67389" lon="91.355686">
<time>2016-10-08T06:09:36Z</time></trkpt>
<trkpt lat="29.673931" lon="91.355097">
<time>2016-10-08T06:09:37Z</time></trkpt>
<trkpt lat="29.674105" lon="91.352961">
<time>2016-10-08T06:09:38Z</time></trkpt>
<trkpt lat="29.674126" lon="91.352502">
<time>2016-10-08T06:09:39Z</time></trkpt>
<trkpt lat="29.674136" lon="91.352332">
<time>2016-10-08T06:09:40Z</time></trkpt>
<trkpt lat="29.674097" lon="91.351384">
<time>2016-10-08T06:09:41Z</time></trkpt>
<trkpt lat="29.674009" lon="91.350186">
<time>2016-10-08T06:09:42Z</time></trkpt>
<trkpt lat="29.67398" lon="91.349777">
<time>2016-10-08T06:09:43Z</time></trkpt>
<trkpt lat="29.673774" lon="91.347331">
<time>2016-10-08T06:09:44Z</time></trkpt>
<trkpt lat="29.673745" lon="91.346802">
<time>2016-10-08T06:09:45Z</time></trkpt>
<trkpt lat="29.673707" lon="91.345754">
<time>2016-10-08T06:09:46Z</time></trkpt>
<trkpt lat="29.673631" lon="91.343469">
<time>2016-10-08T06:09:47Z</time></trkpt>
<trkpt lat="29.673612" lon="91.343309">
<time>2016-10-08T06:09:48Z</time></trkpt>
<trkpt lat="29.673592" lon="91.343139">
<time>2016-10-08T06:09:49Z</time></trkpt>
<trkpt lat="29.673394" lon="91.341972">
<time>2016-10-08T06:09:50Z</time></trkpt>
<trkpt lat="29.673206" lon="91.341033">
<time>2016-10-08T06:09:51Z</time></trkpt>
<trkpt lat="29.673157" lon="91.340215">
<time>2016-10-08T06:09:52Z</time></trkpt>
<trkpt lat="29.673128" lon="91.339716">
<time>2016-10-08T06:09:53Z</time></trkpt>
<trkpt lat="29.673109" lon="91.339247">
<time>2016-10-08T06:09:54Z</time></trkpt>
<trkpt lat="29.67307" lon="91.338728">
<time>2016-10-08T06:09:55Z</time></trkpt>
<trkpt lat="29.673042" lon="91.33792">
<time>2016-10-08T06:09:56Z</time></trkpt>
<trkpt lat="29.673022" lon="91.337451">
<time>2016-10-08T06:09:57Z</time></trkpt>
<trkpt lat="29.673003" lon="91.336952">
<time>2016-10-08T06:09:58Z</time></trkpt>
<trkpt lat="29.672974" lon="91.336453">
<time>2016-10-08T06:09:59Z</time></trkpt>
<trkpt lat="29.672955" lon="91.335964">
<time>2016-10-08T06:10:00Z</time></trkpt>
<trkpt lat="29.672936" lon="91.335545">
<time>2016-10-08T06:10:01Z</time></trkpt>
<trkpt lat="29.672907" lon="91.335076">
<time>2016-10-08T06:10:02Z</time></trkpt>
<trkpt lat="29.672898" lon="91.334617">
<time>2016-10-08T06:10:03Z</time></trkpt>
<trkpt lat="29.672869" lon="91.334207">
<time>2016-10-08T06:10:04Z</time></trkpt>
<trkpt lat="29.672849" lon="91.333808">
<time>2016-10-08T06:10:05Z</time></trkpt>
<trkpt lat="29.67282" lon="91.333599">
<time>2016-10-08T06:10:06Z</time></trkpt>
<trkpt lat="29.67281" lon="91.333519">
<time>2016-10-08T06:10:07Z</time></trkpt>
<trkpt lat="29.672751" lon="91.33317">
<time>2016-10-08T06:10:08Z</time></trkpt>
<trkpt lat="29.672503" lon="91.331922">
<time>2016-10-08T06:10:09Z</time></trkpt>
<trkpt lat="29.672236" lon="91.330555">
<time>2016-10-08T06:10:10Z</time></trkpt>
<trkpt lat="29.671958" lon="91.329218">
<time>2016-10-08T06:10:11Z</time></trkpt>
<trkpt lat="29.671691" lon="91.327821">
<time>2016-10-08T06:10:12Z</time></trkpt>
<trkpt lat="29.671434" lon="91.326544">
<time>2016-10-08T06:10:13Z</time></trkpt>
<trkpt lat="29.671166" lon="91.325156">
<time>2016-10-08T06:10:14Z</time></trkpt>
<trkpt lat="29.67074" lon="91.323021">
<time>2016-10-08T06:10:15Z</time></trkpt>
<trkpt lat="29.670453" lon="91.321574">
<time>2016-10-08T06:10:16Z</time></trkpt>
<trkpt lat="29.670255" lon="91.320606">
<time>2016-10-08T06:10:17Z</time></trkpt>
<trkpt lat="29.670047" lon="91.319508">
<time>2016-10-08T06:10:18Z</time></trkpt>
<trkpt lat="29.669859" lon="91.31857">
<time>2016-10-08T06:10:19Z</time></trkpt>
<trkpt lat="29.669681" lon="91.317602">
<time>2016-10-08T06:10:20Z</time></trkpt>
<trkpt lat="29.669315" lon="91.315766">
<time>2016-10-08T06:10:21Z</time></trkpt>
<trkpt lat="29.669037" lon="91.314329">
<time>2016-10-08T06:10:22Z</time></trkpt>
<trkpt lat="29.66874" lon="91.312802">
<time>2016-10-08T06:10:23Z</time></trkpt>
<trkpt lat="29.66873" lon="91.312742">
<time>2016-10-08T06:10:24Z</time></trkpt>
<trkpt lat="29.668552" lon="91.311705">
<time>2016-10-08T06:10:25Z</time></trkpt>
<trkpt lat="29.668473" lon="91.311116">
<time>2016-10-08T06:10:26Z</time></trkpt>
<trkpt lat="29.668434" lon="91.310597">
<time>2016-10-08T06:10:27Z</time></trkpt>
<trkpt lat="29.668405" lon="91.310347">
<time>2016-10-08T06:10:28Z</time></trkpt>
<trkpt lat="29.668375" lon="91.310168">
<time>2016-10-08T06:10:29Z</time></trkpt>
<trkpt lat="29.668335" lon="91.309968">
<time>2016-10-08T06:10:30Z</time></trkpt>
<trkpt lat="29.668306" lon="91.309858">
<time>2016-10-08T06:10:31Z</time></trkpt>
<trkpt lat="29.668296" lon="91.309838">
<time>2016-10-08T06:10:32Z</time></trkpt>
<trkpt lat="29.668286" lon="91.309828">
<time>2016-10-08T06:10:33Z</time></trkpt>
<trkpt lat="29.668276" lon="91.309808">
<time>2016-10-08T06:10:34Z</time></trkpt>
<trkpt lat="29.668266" lon="91.309808">
<time>2016-10-08T06:10:35Z</time></trkpt>
<trkpt lat="29.668256" lon="91.309808">
<time>2016-10-08T06:10:36Z</time></trkpt>
<trkpt lat="29.668236" lon="91.309808">
<time>2016-10-08T06:10:37Z</time></trkpt>
<trkpt lat="29.668226" lon="91.309808">
<time>2016-10-08T06:10:38Z</time></trkpt>
<trkpt lat="29.668216" lon="91.309818">
<time>2016-10-08T06:10:39Z</time></trkpt>
<trkpt lat="29.668066" lon="91.309928">
<time>2016-10-08T06:10:40Z</time></trkpt>
<trkpt lat="29.668026" lon="91.309948">
<time>2016-10-08T06:10:41Z</time></trkpt>
<trkpt lat="29.667976" lon="91.309958">
<time>2016-10-08T06:10:42Z</time></trkpt>
<trkpt lat="29.667926" lon="91.309958">
<time>2016-10-08T06:10:43Z</time></trkpt>
<trkpt lat="29.667876" lon="91.309938">
<time>2016-10-08T06:10:44Z</time></trkpt>
<trkpt lat="29.667846" lon="91.309908">
<time>2016-10-08T06:10:45Z</time></trkpt>
<trkpt lat="29.667756" lon="91.309828">
<time>2016-10-08T06:10:46Z</time></trkpt>
<trkpt lat="29.666706" lon="91.310028">
<time>2016-10-08T06:10:47Z</time></trkpt>
<trkpt lat="29.666136" lon="91.310138">
<time>2016-10-08T06:10:48Z</time></trkpt>
<trkpt lat="29.665716" lon="91.310178">
<time>2016-10-08T06:10:49Z</time></trkpt>
<trkpt lat="29.665716" lon="91.310178">
<time>2016-10-08T06:10:50Z</time></trkpt>
<trkpt lat="29.665587" lon="91.309529">
<time>2016-10-08T06:10:51Z</time></trkpt>
<trkpt lat="29.66519" lon="91.307563">
<time>2016-10-08T06:10:52Z</time></trkpt>
<trkpt lat="29.665091" lon="91.307064">
<time>2016-10-08T06:10:53Z</time></trkpt>
<trkpt lat="29.664933" lon="91.306245">
<time>2016-10-08T06:10:54Z</time></trkpt>
<trkpt lat="29.664715" lon="91.305198">
<time>2016-10-08T06:10:55Z</time></trkpt>
<trkpt lat="29.664179" lon="91.302503">
<time>2016-10-08T06:10:56Z</time></trkpt>
<trkpt lat="29.66414" lon="91.302293">
<time>2016-10-08T06:10:57Z</time></trkpt>
<trkpt lat="29.66413" lon="91.302233">
<time>2016-10-08T06:10:58Z</time></trkpt>
<trkpt lat="29.663892" lon="91.301055">
<time>2016-10-08T06:10:59Z</time></trkpt>
<trkpt lat="29.663763" lon="91.300397">
<time>2016-10-08T06:11:00Z</time></trkpt>
<trkpt lat="29.663624" lon="91.299748">
<time>2016-10-08T06:11:01Z</time></trkpt>
<trkpt lat="29.663406" lon="91.29866">
<time>2016-10-08T06:11:02Z</time></trkpt>
<trkpt lat="29.662989" lon="91.296543">
<time>2016-10-08T06:11:03Z</time></trkpt>
<trkpt lat="29.66292" lon="91.296264">
<time>2016-10-08T06:11:04Z</time></trkpt>
<trkpt lat="29.66288" lon="91.296084">
<time>2016-10-08T06:11:05Z</time></trkpt>
<trkpt lat="29.662811" lon="91.295815">
<time>2016-10-08T06:11:06Z</time></trkpt>
<trkpt lat="29.662741" lon="91.295625">
<time>2016-10-08T06:11:07Z</time></trkpt>
<trkpt lat="29.662661" lon="91.295395">
<time>2016-10-08T06:11:08Z</time></trkpt>
<trkpt lat="29.662522" lon="91.295056">
<time>2016-10-08T06:11:09Z</time></trkpt>
<trkpt lat="29.662452" lon="91.294856">
<time>2016-10-08T06:11:10Z</time></trkpt>
<trkpt lat="29.662412" lon="91.294777">
<time>2016-10-08T06:11:11Z</time></trkpt>
<trkpt lat="29.662313" lon="91.294567">
<time>2016-10-08T06:11:12Z</time></trkpt>
<trkpt lat="29.661615" lon="91.29294">
<time>2016-10-08T06:11:13Z</time></trkpt>
<trkpt lat="29.661177" lon="91.291911">
<time>2016-10-08T06:11:14Z</time></trkpt>
<trkpt lat="29.660768" lon="91.290943">
<time>2016-10-08T06:11:15Z</time></trkpt>
<trkpt lat="29.66043" lon="91.290154">
<time>2016-10-08T06:11:16Z</time></trkpt>
<trkpt lat="29.66036" lon="91.290014">
<time>2016-10-08T06:11:17Z</time></trkpt>
<trkpt lat="29.66029" lon="91.289845">
<time>2016-10-08T06:11:18Z</time></trkpt>
<trkpt lat="29.66014" lon="91.289565">
<time>2016-10-08T06:11:19Z</time></trkpt>
<trkpt lat="29.660011" lon="91.289355">
<time>2016-10-08T06:11:20Z</time></trkpt>
<trkpt lat="29.659861" lon="91.289126">
<time>2016-10-08T06:11:21Z</time></trkpt>
<trkpt lat="29.659442" lon="91.288527">
<time>2016-10-08T06:11:22Z</time></trkpt>
<trkpt lat="29.659253" lon="91.288247">
<time>2016-10-08T06:11:23Z</time></trkpt>
<trkpt lat="29.659043" lon="91.287968">
<time>2016-10-08T06:11:24Z</time></trkpt>
<trkpt lat="29.658923" lon="91.287798">
<time>2016-10-08T06:11:25Z</time></trkpt>
<trkpt lat="29.658873" lon="91.287708">
<time>2016-10-08T06:11:26Z</time></trkpt>
<trkpt lat="29.658853" lon="91.287688">
<time>2016-10-08T06:11:27Z</time></trkpt>
<trkpt lat="29.658853" lon="91.287668">
<time>2016-10-08T06:11:28Z</time></trkpt>
<trkpt lat="29.658843" lon="91.287618">
<time>2016-10-08T06:11:29Z</time></trkpt>
<trkpt lat="29.658843" lon="91.287588">
<time>2016-10-08T06:11:30Z</time></trkpt>
<trkpt lat="29.658844" lon="91.287528">
<time>2016-10-08T06:11:31Z</time></trkpt>
<trkpt lat="29.658834" lon="91.287398">
<time>2016-10-08T06:11:32Z</time></trkpt>
<trkpt lat="29.658824" lon="91.287289">
<time>2016-10-08T06:11:33Z</time></trkpt>
<trkpt lat="29.658794" lon="91.287209">
<time>2016-10-08T06:11:34Z</time></trkpt>
<trkpt lat="29.658764" lon="91.287149">
<time>2016-10-08T06:11:35Z</time></trkpt>
<trkpt lat="29.658714" lon="91.287069">
<time>2016-10-08T06:11:36Z</time></trkpt>
<trkpt lat="29.658664" lon="91.287039">
<time>2016-10-08T06:11:37Z</time></trkpt>
<trkpt lat="29.658594" lon="91.286989">
<time>2016-10-08T06:11:38Z</time></trkpt>
<trkpt lat="29.658554" lon="91.286969">
<time>2016-10-08T06:11:39Z</time></trkpt>
<trkpt lat="29.658425" lon="91.286909">
<time>2016-10-08T06:11:40Z</time></trkpt>
<trkpt lat="29.658335" lon="91.286869">
<time>2016-10-08T06:11:41Z</time></trkpt>
<trkpt lat="29.658275" lon="91.286839">
<time>2016-10-08T06:11:42Z</time></trkpt>
<trkpt lat="29.658225" lon="91.286799">
<time>2016-10-08T06:11:43Z</time></trkpt>
<trkpt lat="29.658115" lon="91.286679">
<time>2016-10-08T06:11:44Z</time></trkpt>
<trkpt lat="29.657786" lon="91.28621">
<time>2016-10-08T06:11:45Z</time></trkpt>
<trkpt lat="29.657646" lon="91.285981">
<time>2016-10-08T06:11:46Z</time></trkpt>
<trkpt lat="29.657566" lon="91.285851">
<time>2016-10-08T06:11:47Z</time></trkpt>
<trkpt lat="29.657466" lon="91.285661">
<time>2016-10-08T06:11:48Z</time></trkpt>
<trkpt lat="29.657417" lon="91.285531">
<time>2016-10-08T06:11:49Z</time></trkpt>
<trkpt lat="29.657387" lon="91.285451">
<time>2016-10-08T06:11:50Z</time></trkpt>
<trkpt lat="29.657367" lon="91.285381">
<time>2016-10-08T06:11:51Z</time></trkpt>
<trkpt lat="29.657307" lon="91.285192">
<time>2016-10-08T06:11:52Z</time></trkpt>
<trkpt lat="29.657257" lon="91.284972">
<time>2016-10-08T06:11:53Z</time></trkpt>
<trkpt lat="29.657218" lon="91.284732">
<time>2016-10-08T06:11:54Z</time></trkpt>
<trkpt lat="29.657198" lon="91.284672">
<time>2016-10-08T06:11:55Z</time></trkpt>
<trkpt lat="29.65681" lon="91.282495">
<time>2016-10-08T06:11:56Z</time></trkpt>
<trkpt lat="29.656691" lon="91.281886">
<time>2016-10-08T06:11:57Z</time></trkpt>
<trkpt lat="29.656443" lon="91.280448">
<time>2016-10-08T06:11:58Z</time></trkpt>
<trkpt lat="29.656274" lon="91.279539">
<time>2016-10-08T06:11:59Z</time></trkpt>
<trkpt lat="29.655926" lon="91.277612">
<time>2016-10-08T06:12:00Z</time></trkpt>
<trkpt lat="29.655727" lon="91.276543">
<time>2016-10-08T06:12:01Z</time></trkpt>
<trkpt lat="29.655568" lon="91.275614">
<time>2016-10-08T06:12:02Z</time></trkpt>
<trkpt lat="29.655379" lon="91.274595">
<time>2016-10-08T06:12:03Z</time></trkpt>
<trkpt lat="29.65535" lon="91.274435">
<time>2016-10-08T06:12:04Z</time></trkpt>
<trkpt lat="29.655011" lon="91.272597">
<time>2016-10-08T06:12:05Z</time></trkpt>
<trkpt lat="29.654763" lon="91.271278">
<time>2016-10-08T06:12:06Z</time></trkpt>
<trkpt lat="29.654763" lon="91.271278">
<time>2016-10-08T06:12:07Z</time></trkpt>
<trkpt lat="29.655562" lon="91.271258">
<time>2016-10-08T06:12:08Z</time></trkpt>
<trkpt lat="29.655702" lon="91.271248">
<time>2016-10-08T06:12:09Z</time></trkpt>
<trkpt lat="29.655702" lon="91.271248">
<time>2016-10-08T06:12:10Z</time></trkpt>
<trkpt lat="29.655682" lon="91.271178">
<time>2016-10-08T06:12:11Z</time></trkpt>
<trkpt lat="29.655623" lon="91.271008">
<time>2016-10-08T06:12:12Z</time></trkpt>
<trkpt lat="29.655523" lon="91.270819">
<time>2016-10-08T06:12:13Z</time></trkpt>
<trkpt lat="29.655443" lon="91.270729">
<time>2016-10-08T06:12:14Z</time></trkpt>
<trkpt lat="29.655423" lon="91.270659">
<time>2016-10-08T06:12:15Z</time></trkpt>
<trkpt lat="29.655423" lon="91.270559">
<time>2016-10-08T06:12:16Z</time></trkpt>
<trkpt lat="29.655453" lon="91.270319">
<time>2016-10-08T06:12:17Z</time></trkpt>
<trkpt lat="29.655463" lon="91.270179">
<time>2016-10-08T06:12:18Z</time></trkpt>
<trkpt lat="29.655463" lon="91.270069">
<time>2016-10-08T06:12:19Z</time></trkpt>
<trkpt lat="29.655403" lon="91.269929">
<time>2016-10-08T06:12:20Z</time></trkpt>
<trkpt lat="29.655484" lon="91.26949">
<time>2016-10-08T06:12:21Z</time></trkpt>
<trkpt lat="29.655494" lon="91.26946">
<time>2016-10-08T06:12:22Z</time></trkpt>
<trkpt lat="29.655514" lon="91.26944">
<time>2016-10-08T06:12:23Z</time></trkpt>
<trkpt lat="29.655674" lon="91.26935">
<time>2016-10-08T06:12:24Z</time></trkpt>
<trkpt lat="29.655784" lon="91.26929">
<time>2016-10-08T06:12:25Z</time></trkpt>
<trkpt lat="29.655844" lon="91.26922">
<time>2016-10-08T06:12:26Z</time></trkpt>
<trkpt lat="29.655884" lon="91.26913">
<time>2016-10-08T06:12:27Z</time></trkpt>
<trkpt lat="29.655904" lon="91.26901">
<time>2016-10-08T06:12:28Z</time></trkpt>
<trkpt lat="29.655934" lon="91.26896">
<time>2016-10-08T06:12:29Z</time></trkpt>
<trkpt lat="29.656024" lon="91.2689">
<time>2016-10-08T06:12:30Z</time></trkpt>
<trkpt lat="29.656084" lon="91.26883">
<time>2016-10-08T06:12:31Z</time></trkpt>
<trkpt lat="29.656104" lon="91.26875">
<time>2016-10-08T06:12:32Z</time></trkpt>
<trkpt lat="29.656114" lon="91.26862">
<time>2016-10-08T06:12:33Z</time></trkpt>
<trkpt lat="29.656274" lon="91.268411">
<time>2016-10-08T06:12:34Z</time></trkpt>
<trkpt lat="29.656485" lon="91.268151">
<time>2016-10-08T06:12:35Z</time></trkpt>
<trkpt lat="29.656825" lon="91.267621">
<time>2016-10-08T06:12:36Z</time></trkpt>
<trkpt lat="29.656935" lon="91.267331">
<time>2016-10-08T06:12:37Z</time></trkpt>
<trkpt lat="29.656965" lon="91.267302">
<time>2016-10-08T06:12:38Z</time></trkpt>
<trkpt lat="29.657045" lon="91.267282">
<time>2016-10-08T06:12:39Z</time></trkpt>
<trkpt lat="29.657075" lon="91.267242">
<time>2016-10-08T06:12:40Z</time></trkpt>
<trkpt lat="29.657085" lon="91.267202">
<time>2016-10-08T06:12:41Z</time></trkpt>
<trkpt lat="29.657075" lon="91.266842">
<time>2016-10-08T06:12:42Z</time></trkpt>
<trkpt lat="29.657065" lon="91.266762">
<time>2016-10-08T06:12:43Z</time></trkpt>
<trkpt lat="29.657036" lon="91.266552">
<time>2016-10-08T06:12:44Z</time></trkpt>
<trkpt lat="29.656936" lon="91.266352">
<time>2016-10-08T06:12:45Z</time></trkpt>
<trkpt lat="29.656816" lon="91.266252">
<time>2016-10-08T06:12:46Z</time></trkpt>
<trkpt lat="29.656796" lon="91.265983">
<time>2016-10-08T06:12:47Z</time></trkpt>
<trkpt lat="29.656896" lon="91.265663">
<time>2016-10-08T06:12:48Z</time></trkpt>
<trkpt lat="29.656916" lon="91.265453">
<time>2016-10-08T06:12:49Z</time></trkpt>
<trkpt lat="29.656737" lon="91.264963">
<time>2016-10-08T06:12:50Z</time></trkpt>
<trkpt lat="29.656557" lon="91.264673">
<time>2016-10-08T06:12:51Z</time></trkpt>
<trkpt lat="29.656067" lon="91.264344">
<time>2016-10-08T06:12:52Z</time></trkpt>
<trkpt lat="29.655767" lon="91.264154">
<time>2016-10-08T06:12:53Z</time></trkpt>
<trkpt lat="29.655568" lon="91.263754">
<time>2016-10-08T06:12:54Z</time></trkpt>
<trkpt lat="29.655428" lon="91.263434">
<time>2016-10-08T06:12:55Z</time></trkpt>
<trkpt lat="29.655338" lon="91.263114">
<time>2016-10-08T06:12:56Z</time></trkpt>
<trkpt lat="29.655268" lon="91.262805">
<time>2016-10-08T06:12:57Z</time></trkpt>
<trkpt lat="29.655178" lon="91.262605">
<time>2016-10-08T06:12:58Z</time></trkpt>
<trkpt lat="29.655119" lon="91.262085">
<time>2016-10-08T06:12:59Z</time></trkpt>
<trkpt lat="29.655129" lon="91.261855">
<time>2016-10-08T06:13:00Z</time></trkpt>
<trkpt lat="29.654939" lon="91.261495">
<time>2016-10-08T06:13:01Z</time></trkpt>
<trkpt lat="29.654809" lon="91.261086">
<time>2016-10-08T06:13:02Z</time></trkpt>
<trkpt lat="29.654759" lon="91.260966">
<time>2016-10-08T06:13:03Z</time></trkpt>
<trkpt lat="29.65464" lon="91.260706">
<time>2016-10-08T06:13:04Z</time></trkpt>
<trkpt lat="29.65435" lon="91.260096">
<time>2016-10-08T06:13:05Z</time></trkpt>
<trkpt lat="29.65408" lon="91.259586">
<time>2016-10-08T06:13:06Z</time></trkpt>
<trkpt lat="29.65398" lon="91.259057">
<time>2016-10-08T06:13:07Z</time></trkpt>
<trkpt lat="29.65398" lon="91.259057">
<time>2016-10-08T06:13:08Z</time></trkpt>
<trkpt lat="29.65585" lon="91.258877">
<time>2016-10-08T06:13:09Z</time></trkpt>
<trkpt lat="29.655781" lon="91.256887">
<time>2016-10-08T06:13:10Z</time></trkpt>
<trkpt lat="29.657061" lon="91.256727">
<time>2016-10-08T06:13:11Z</time></trkpt>
<trkpt lat="29.657061" lon="91.256727">
<time>2016-10-08T06:13:12Z</time></trkpt>
<trkpt lat="29.656401" lon="91.255788">
<time>2016-10-08T06:13:13Z</time></trkpt>
<trkpt lat="29.656081" lon="91.254948">
<time>2016-10-08T06:13:14Z</time></trkpt>
<trkpt lat="29.655732" lon="91.254078">
<time>2016-10-08T06:13:15Z</time></trkpt>
<trkpt lat="29.655562" lon="91.253828">
<time>2016-10-08T06:13:16Z</time></trkpt>
<trkpt lat="29.655002" lon="91.253048">
<time>2016-10-08T06:13:17Z</time></trkpt>
<trkpt lat="29.654862" lon="91.252499">
<time>2016-10-08T06:13:18Z</time></trkpt>
<trkpt lat="29.654542" lon="91.250709">
<time>2016-10-08T06:13:19Z</time></trkpt>
<trkpt lat="29.654512" lon="91.250509">
<time>2016-10-08T06:13:20Z</time></trkpt>
<trkpt lat="29.654462" lon="91.250049">
<time>2016-10-08T06:13:21Z</time></trkpt>
<trkpt lat="29.654382" lon="91.249439">
<time>2016-10-08T06:13:22Z</time></trkpt>
<trkpt lat="29.654002" lon="91.246319">
<time>2016-10-08T06:13:23Z</time></trkpt>
<trkpt lat="29.653972" lon="91.246059">
<time>2016-10-08T06:13:24Z</time></trkpt>
<trkpt lat="29.653932" lon="91.245689">
<time>2016-10-08T06:13:25Z</time></trkpt>
<trkpt lat="29.653792" lon="91.244458">
<time>2016-10-08T06:13:26Z</time></trkpt>
<trkpt lat="29.653702" lon="91.243688">
<time>2016-10-08T06:13:27Z</time></trkpt>
<trkpt lat="29.653632" lon="91.243038">
<time>2016-10-08T06:13:28Z</time></trkpt>
<trkpt lat="29.653562" lon="91.242448">
<time>2016-10-08T06:13:29Z</time></trkpt>
<trkpt lat="29.653552" lon="91.242338">
<time>2016-10-08T06:13:30Z</time></trkpt>
<trkpt lat="29.653512" lon="91.242048">
<time>2016-10-08T06:13:31Z</time></trkpt>
<trkpt lat="29.653422" lon="91.241468">
<time>2016-10-08T06:13:32Z</time></trkpt>
<trkpt lat="29.653312" lon="91.240657">
<time>2016-10-08T06:13:33Z</time></trkpt>
<trkpt lat="29.653181" lon="91.239697">
<time>2016-10-08T06:13:34Z</time></trkpt>
<trkpt lat="29.652851" lon="91.237286">
<time>2016-10-08T06:13:35Z</time></trkpt>
<trkpt lat="29.65274" lon="91.236576">
<time>2016-10-08T06:13:36Z</time></trkpt>
<trkpt lat="29.65269" lon="91.236276">
<time>2016-10-08T06:13:37Z</time></trkpt>
<trkpt lat="29.65269" lon="91.236276">
<time>2016-10-08T06:13:38Z</time></trkpt>
<trkpt lat="29.65272" lon="91.236135">
<time>2016-10-08T06:13:39Z</time></trkpt>
<trkpt lat="29.65287" lon="91.235245">
<time>2016-10-08T06:13:40Z</time></trkpt>
<trkpt lat="29.652909" lon="91.235015">
<time>2016-10-08T06:13:41Z</time></trkpt>
<trkpt lat="29.653039" lon="91.234274">
<time>2016-10-08T06:13:42Z</time></trkpt>
<trkpt lat="29.653039" lon="91.234204">
<time>2016-10-08T06:13:43Z</time></trkpt>
<trkpt lat="29.653049" lon="91.234154">
<time>2016-10-08T06:13:44Z</time></trkpt>
<trkpt lat="29.653049" lon="91.234144">
<time>2016-10-08T06:13:45Z</time></trkpt>
<trkpt lat="29.653039" lon="91.234064">
<time>2016-10-08T06:13:46Z</time></trkpt>
<trkpt lat="29.652979" lon="91.233194">
<time>2016-10-08T06:13:47Z</time></trkpt>
<trkpt lat="29.652918" lon="91.232563">
<time>2016-10-08T06:13:48Z</time></trkpt>
<trkpt lat="29.652888" lon="91.232293">
<time>2016-10-08T06:13:49Z</time></trkpt>
<trkpt lat="29.652838" lon="91.231553">
<time>2016-10-08T06:13:50Z</time></trkpt>
<trkpt lat="29.652807" lon="91.231252">
<time>2016-10-08T06:13:51Z</time></trkpt>
<trkpt lat="29.652697" lon="91.229921">
<time>2016-10-08T06:13:52Z</time></trkpt>
<trkpt lat="29.652656" lon="91.229401">
<time>2016-10-08T06:13:53Z</time></trkpt>
<trkpt lat="29.652596" lon="91.2286">
<time>2016-10-08T06:13:54Z</time></trkpt>
<trkpt lat="29.652565" lon="91.22824">
<time>2016-10-08T06:13:55Z</time></trkpt>
<trkpt lat="29.652545" lon="91.228">
<time>2016-10-08T06:13:56Z</time></trkpt>
<trkpt lat="29.652475" lon="91.227309">
<time>2016-10-08T06:13:57Z</time></trkpt>
<trkpt lat="29.652374" lon="91.226258">
<time>2016-10-08T06:13:58Z</time></trkpt>
<trkpt lat="29.652273" lon="91.225217">
<time>2016-10-08T06:13:59Z</time></trkpt>
<trkpt lat="29.652172" lon="91.224186">
<time>2016-10-08T06:14:00Z</time></trkpt>
<trkpt lat="29.652071" lon="91.223125">
<time>2016-10-08T06:14:01Z</time></trkpt>
<trkpt lat="29.65198" lon="91.222124">
<time>2016-10-08T06:14:02Z</time></trkpt>
<trkpt lat="29.651869" lon="91.221033">
<time>2016-10-08T06:14:03Z</time></trkpt>
<trkpt lat="29.651839" lon="91.220692">
<time>2016-10-08T06:14:04Z</time></trkpt>
<trkpt lat="29.651758" lon="91.219932">
<time>2016-10-08T06:14:05Z</time></trkpt>
<trkpt lat="29.651708" lon="91.219391">
<time>2016-10-08T06:14:06Z</time></trkpt>
<trkpt lat="29.651698" lon="91.219311">
<time>2016-10-08T06:14:07Z</time></trkpt>
<trkpt lat="29.651698" lon="91.219311">
<time>2016-10-08T06:14:08Z</time></trkpt>
<trkpt lat="29.649359" lon="91.220032">
<time>2016-10-08T06:14:09Z</time></trkpt>
<trkpt lat="29.649359" lon="91.220032">
<time>2016-10-08T06:14:10Z</time></trkpt>
<trkpt lat="29.649467" lon="91.21845">
<time>2016-10-08T06:14:11Z</time></trkpt>
<trkpt lat="29.649546" lon="91.217368">
<time>2016-10-08T06:14:12Z</time></trkpt>
<trkpt lat="29.649546" lon="91.217208">
<time>2016-10-08T06:14:13Z</time></trkpt>
<trkpt lat="29.649684" lon="91.215696">
<time>2016-10-08T06:14:14Z</time></trkpt>
<trkpt lat="29.649664" lon="91.215596">
<time>2016-10-08T06:14:15Z</time></trkpt>
<trkpt lat="29.649654" lon="91.215536">
<time>2016-10-08T06:14:16Z</time></trkpt>
<trkpt lat="29.649604" lon="91.215286">
<time>2016-10-08T06:14:17Z</time></trkpt>
<trkpt lat="29.649332" lon="91.213453">
<time>2016-10-08T06:14:18Z</time></trkpt>
<trkpt lat="29.64885" lon="91.212041">
<time>2016-10-08T06:14:19Z</time></trkpt>
<trkpt lat="29.648209" lon="91.21081">
<time>2016-10-08T06:14:20Z</time></trkpt>
<trkpt lat="29.647197" lon="91.209247">
<time>2016-10-08T06:14:21Z</time></trkpt>
<trkpt lat="29.647167" lon="91.209197">
<time>2016-10-08T06:14:22Z</time></trkpt>
<trkpt lat="29.646886" lon="91.208776">
<time>2016-10-08T06:14:23Z</time></trkpt>
<trkpt lat="29.646324" lon="91.207184">
<time>2016-10-08T06:14:24Z</time></trkpt>
<trkpt lat="29.64595" lon="91.20448">
<time>2016-10-08T06:14:25Z</time></trkpt>
<trkpt lat="29.64595" lon="91.20448">
<time>2016-10-08T06:14:26Z</time></trkpt>
<trkpt lat="29.64699" lon="91.204189">
<time>2016-10-08T06:14:27Z</time></trkpt>
<trkpt lat="29.6472" lon="91.204099">
<time>2016-10-08T06:14:28Z</time></trkpt>
<trkpt lat="29.6472" lon="91.204099">
<time>2016-10-08T06:14:29Z</time></trkpt>
<trkpt lat="29.647849" lon="91.203808">
<time>2016-10-08T06:14:30Z</time></trkpt>
<trkpt lat="29.648718" lon="91.203298">
<time>2016-10-08T06:14:31Z</time></trkpt>
<trkpt lat="29.649137" lon="91.203007">
<time>2016-10-08T06:14:32Z</time></trkpt>
<trkpt lat="29.649936" lon="91.202356">
<time>2016-10-08T06:14:33Z</time></trkpt>
<trkpt lat="29.652902" lon="91.199711">
<time>2016-10-08T06:14:34Z</time></trkpt>
<trkpt lat="29.655288" lon="91.197597">
<time>2016-10-08T06:14:35Z</time></trkpt>
<trkpt lat="29.656965" lon="91.196175">
<time>2016-10-08T06:14:36Z</time></trkpt>
<trkpt lat="29.657883" lon="91.195403">
<time>2016-10-08T06:14:37Z</time></trkpt>
<trkpt lat="29.658982" lon="91.194472">
<time>2016-10-08T06:14:38Z</time></trkpt>
<trkpt lat="29.659681" lon="91.19387">
<time>2016-10-08T06:14:39Z</time></trkpt>
<trkpt lat="29.66011" lon="91.19356">
<time>2016-10-08T06:14:40Z</time></trkpt>
<trkpt lat="29.66011" lon="91.19356">
<time>2016-10-08T06:14:41Z</time></trkpt>
<trkpt lat="29.66011" lon="91.19345">
<time>2016-10-08T06:14:42Z</time></trkpt>
<trkpt lat="29.660109" lon="91.193229">
<time>2016-10-08T06:14:43Z</time></trkpt>
<trkpt lat="29.660106" lon="91.191466">
<time>2016-10-08T06:14:44Z</time></trkpt>
<trkpt lat="29.660102" lon="91.18872">
<time>2016-10-08T06:14:45Z</time></trkpt>
<trkpt lat="29.660111" lon="91.18839">
<time>2016-10-08T06:14:46Z</time></trkpt>
<trkpt lat="29.660106" lon="91.185444">
<time>2016-10-08T06:14:47Z</time></trkpt>
<trkpt lat="29.660114" lon="91.184462">
<time>2016-10-08T06:14:48Z</time></trkpt>
<trkpt lat="29.660112" lon="91.18343">
<time>2016-10-08T06:14:49Z</time></trkpt>
<trkpt lat="29.660109" lon="91.181906">
<time>2016-10-08T06:14:50Z</time></trkpt>
<trkpt lat="29.660116" lon="91.179912">
<time>2016-10-08T06:14:51Z</time></trkpt>
<trkpt lat="29.660139" lon="91.176244">
<time>2016-10-08T06:14:52Z</time></trkpt>
<trkpt lat="29.660138" lon="91.175723">
<time>2016-10-08T06:14:53Z</time></trkpt>
<trkpt lat="29.660132" lon="91.172857">
<time>2016-10-08T06:14:54Z</time></trkpt>
<trkpt lat="29.660132" lon="91.172797">
<time>2016-10-08T06:14:55Z</time></trkpt>
<trkpt lat="29.660124" lon="91.168197">
<time>2016-10-08T06:14:56Z</time></trkpt>
<trkpt lat="29.660124" lon="91.168177">
<time>2016-10-08T06:14:57Z</time></trkpt>
<trkpt lat="29.660128" lon="91.165131">
<time>2016-10-08T06:14:58Z</time></trkpt>
<trkpt lat="29.660136" lon="91.164059">
<time>2016-10-08T06:14:59Z</time></trkpt>
<trkpt lat="29.660136" lon="91.163968">
<time>2016-10-08T06:15:00Z</time></trkpt>
<trkpt lat="29.660154" lon="91.162856">
<time>2016-10-08T06:15:01Z</time></trkpt>
<trkpt lat="29.660161" lon="91.161563">
<time>2016-10-08T06:15:02Z</time></trkpt>
<trkpt lat="29.660179" lon="91.160481">
<time>2016-10-08T06:15:03Z</time></trkpt>
<trkpt lat="29.660203" lon="91.157294">
<time>2016-10-08T06:15:04Z</time></trkpt>
<trkpt lat="29.660193" lon="91.157154">
<time>2016-10-08T06:15:05Z</time></trkpt>
<trkpt lat="29.660172" lon="91.156573">
<time>2016-10-08T06:15:06Z</time></trkpt>
<trkpt lat="29.660172" lon="91.156302">
<time>2016-10-08T06:15:07Z</time></trkpt>
<trkpt lat="29.66018" lon="91.155511">
<time>2016-10-08T06:15:08Z</time></trkpt>
<trkpt lat="29.660179" lon="91.155">
<time>2016-10-08T06:15:09Z</time></trkpt>
<trkpt lat="29.660189" lon="91.15494">
<time>2016-10-08T06:15:10Z</time></trkpt>
<trkpt lat="29.660188" lon="91.154028">
<time>2016-10-08T06:15:11Z</time></trkpt>
<trkpt lat="29.660196" lon="91.153026">
<time>2016-10-08T06:15:12Z</time></trkpt>
<trkpt lat="29.660195" lon="91.152705">
<time>2016-10-08T06:15:13Z</time></trkpt>
<trkpt lat="29.660203" lon="91.151503">
<time>2016-10-08T06:15:14Z</time></trkpt>
<trkpt lat="29.660203" lon="91.151503">
<time>2016-10-08T06:15:15Z</time></trkpt>
<trkpt lat="29.660153" lon="91.151493">
<time>2016-10-08T06:15:16Z</time></trkpt>
<trkpt lat="29.660103" lon="91.151493">
<time>2016-10-08T06:15:17Z</time></trkpt>
<trkpt lat="29.659983" lon="91.151483">
<time>2016-10-08T06:15:18Z</time></trkpt>
<trkpt lat="29.659823" lon="91.151473">
<time>2016-10-08T06:15:19Z</time></trkpt>
<trkpt lat="29.659733" lon="91.151473">
<time>2016-10-08T06:15:20Z</time></trkpt>
<trkpt lat="29.659703" lon="91.151473">
<time>2016-10-08T06:15:21Z</time></trkpt>
<trkpt lat="29.659683" lon="91.151473">
<time>2016-10-08T06:15:22Z</time></trkpt>
<trkpt lat="29.659663" lon="91.151463">
<time>2016-10-08T06:15:23Z</time></trkpt>
<trkpt lat="29.659653" lon="91.151453">
<time>2016-10-08T06:15:24Z</time></trkpt>
<trkpt lat="29.659633" lon="91.151433">
<time>2016-10-08T06:15:25Z</time></trkpt>
<trkpt lat="29.659623" lon="91.151403">
<time>2016-10-08T06:15:26Z</time></trkpt>
<trkpt lat="29.659623" lon="91.151383">
<time>2016-10-08T06:15:27Z</time></trkpt>
<trkpt lat="29.659603" lon="91.151222">
<time>2016-10-08T06:15:28Z</time></trkpt>
<trkpt lat="29.659582" lon="91.151062">
<time>2016-10-08T06:15:29Z</time></trkpt>
<trkpt lat="29.659562" lon="91.150992">
<time>2016-10-08T06:15:30Z</time></trkpt>
<trkpt lat="29.659522" lon="91.150912">
<time>2016-10-08T06:15:31Z</time></trkpt>
<trkpt lat="29.659482" lon="91.150862">
<time>2016-10-08T06:15:32Z</time></trkpt>
<trkpt lat="29.659482" lon="91.150821">
<time>2016-10-08T06:15:33Z</time></trkpt>
<trkpt lat="29.659482" lon="91.150791">
<time>2016-10-08T06:15:34Z</time></trkpt>
<trkpt lat="29.659492" lon="91.150751">
<time>2016-10-08T06:15:35Z</time></trkpt>
<trkpt lat="29.659492" lon="91.150511">
<time>2016-10-08T06:15:36Z</time></trkpt>
<trkpt lat="29.659501" lon="91.15032">
<time>2016-10-08T06:15:37Z</time></trkpt>
<trkpt lat="29.659511" lon="91.15018">
<time>2016-10-08T06:15:38Z</time></trkpt>
<trkpt lat="29.659541" lon="91.15014">
<time>2016-10-08T06:15:39Z</time></trkpt>
<trkpt lat="29.659551" lon="91.15011">
<time>2016-10-08T06:15:40Z</time></trkpt>
<trkpt lat="29.659561" lon="91.15007">
<time>2016-10-08T06:15:41Z</time></trkpt>
<trkpt lat="29.659561" lon="91.15002">
<time>2016-10-08T06:15:42Z</time></trkpt>
<trkpt lat="29.65954" lon="91.14988">
<time>2016-10-08T06:15:43Z</time></trkpt>
<trkpt lat="29.65953" lon="91.149739">
<time>2016-10-08T06:15:44Z</time></trkpt>
<trkpt lat="29.6595" lon="91.149649">
<time>2016-10-08T06:15:45Z</time></trkpt>
<trkpt lat="29.65944" lon="91.149509">
<time>2016-10-08T06:15:46Z</time></trkpt>
<trkpt lat="29.65942" lon="91.149449">
<time>2016-10-08T06:15:47Z</time></trkpt>
<trkpt lat="29.659309" lon="91.149198">
<time>2016-10-08T06:15:48Z</time></trkpt>
<trkpt lat="29.659259" lon="91.149138">
<time>2016-10-08T06:15:49Z</time></trkpt>
<trkpt lat="29.659219" lon="91.149118">
<time>2016-10-08T06:15:50Z</time></trkpt>
<trkpt lat="29.659159" lon="91.149098">
<time>2016-10-08T06:15:51Z</time></trkpt>
<trkpt lat="29.658959" lon="91.149028">
<time>2016-10-08T06:15:52Z</time></trkpt>
<trkpt lat="29.658669" lon="91.148888">
<time>2016-10-08T06:15:53Z</time></trkpt>
<trkpt lat="29.658619" lon="91.148858">
<time>2016-10-08T06:15:54Z</time></trkpt>
<trkpt lat="29.658469" lon="91.148778">
<time>2016-10-08T06:15:55Z</time></trkpt>
<trkpt lat="29.658369" lon="91.148707">
<time>2016-10-08T06:15:56Z</time></trkpt>
<trkpt lat="29.658278" lon="91.148557">
<time>2016-10-08T06:15:57Z</time></trkpt>
<trkpt lat="29.658268" lon="91.148537">
<time>2016-10-08T06:15:58Z</time></trkpt>
<trkpt lat="29.658248" lon="91.148537">
<time>2016-10-08T06:15:59Z</time></trkpt>
<trkpt lat="29.658228" lon="91.148527">
<time>2016-10-08T06:16:00Z</time></trkpt>
<trkpt lat="29.658158" lon="91.148497">
<time>2016-10-08T06:16:01Z</time></trkpt>
<trkpt lat="29.658108" lon="91.148477">
<time>2016-10-08T06:16:02Z</time></trkpt>
<trkpt lat="29.658028" lon="91.148457">
<time>2016-10-08T06:16:03Z</time></trkpt>
<trkpt lat="29.657908" lon="91.148447">
<time>2016-10-08T06:16:04Z</time></trkpt>
<trkpt lat="29.657808" lon="91.148437">
<time>2016-10-08T06:16:05Z</time></trkpt>
<trkpt lat="29.657628" lon="91.148427">
<time>2016-10-08T06:16:06Z</time></trkpt>
<trkpt lat="29.657628" lon="91.148427">
<time>2016-10-08T06:16:07Z</time></trkpt>
<trkpt lat="29.657628" lon="91.148327">
<time>2016-10-08T06:16:08Z</time></trkpt>
<trkpt lat="29.657618" lon="91.148176">
<time>2016-10-08T06:16:09Z</time></trkpt>
<trkpt lat="29.657568" lon="91.148016">
<time>2016-10-08T06:16:10Z</time></trkpt>
<trkpt lat="29.657497" lon="91.147866">
<time>2016-10-08T06:16:11Z</time></trkpt>
<trkpt lat="29.657337" lon="91.147605">
<time>2016-10-08T06:16:12Z</time></trkpt>
<trkpt lat="29.657307" lon="91.147525">
<time>2016-10-08T06:16:13Z</time></trkpt>
<trkpt lat="29.657297" lon="91.147465">
<time>2016-10-08T06:16:14Z</time></trkpt>
<trkpt lat="29.657277" lon="91.147355">
<time>2016-10-08T06:16:15Z</time></trkpt>
<trkpt lat="29.657236" lon="91.147154">
<time>2016-10-08T06:16:16Z</time></trkpt>
<trkpt lat="29.657156" lon="91.146944">
<time>2016-10-08T06:16:17Z</time></trkpt>
<trkpt lat="29.657086" lon="91.146734">
<time>2016-10-08T06:16:18Z</time></trkpt>
<trkpt lat="29.657086" lon="91.146724">
<time>2016-10-08T06:16:19Z</time></trkpt>
<trkpt lat="29.657035" lon="91.146523">
<time>2016-10-08T06:16:20Z</time></trkpt>
<trkpt lat="29.657005" lon="91.146373">
<time>2016-10-08T06:16:21Z</time></trkpt>
<trkpt lat="29.656965" lon="91.146163">
<time>2016-10-08T06:16:22Z</time></trkpt>
<trkpt lat="29.656955" lon="91.146112">
<time>2016-10-08T06:16:23Z</time></trkpt>
<trkpt lat="29.656945" lon="91.146092">
<time>2016-10-08T06:16:24Z</time></trkpt>
<trkpt lat="29.656925" lon="91.146072">
<time>2016-10-08T06:16:25Z</time></trkpt>
<trkpt lat="29.656885" lon="91.146052">
<time>2016-10-08T06:16:26Z</time></trkpt>
<trkpt lat="29.656694" lon="91.145942">
<time>2016-10-08T06:16:27Z</time></trkpt>
<trkpt lat="29.656664" lon="91.145912">
<time>2016-10-08T06:16:28Z</time></trkpt>
<trkpt lat="29.656634" lon="91.145902">
<time>2016-10-08T06:16:29Z</time></trkpt>
<trkpt lat="29.656574" lon="91.145842">
<time>2016-10-08T06:16:30Z</time></trkpt>
<trkpt lat="29.656514" lon="91.145782">
<time>2016-10-08T06:16:31Z</time></trkpt>
<trkpt lat="29.656474" lon="91.145752">
<time>2016-10-08T06:16:32Z</time></trkpt>
<trkpt lat="29.656424" lon="91.145722">
<time>2016-10-08T06:16:33Z</time></trkpt>
<trkpt lat="29.656294" lon="91.145682">
<time>2016-10-08T06:16:34Z</time></trkpt>
<trkpt lat="29.656154" lon="91.145652">
<time>2016-10-08T06:16:35Z</time></trkpt>
<trkpt lat="29.656154" lon="91.145652">
<time>2016-10-08T06:16:36Z</time></trkpt>
<trkpt lat="29.656163" lon="91.145131">
<time>2016-10-08T06:16:37Z</time></trkpt>
<trkpt lat="29.656163" lon="91.14502">
<time>2016-10-08T06:16:38Z</time></trkpt>
<trkpt lat="29.656163" lon="91.14498">
<time>2016-10-08T06:16:39Z</time></trkpt>
<trkpt lat="29.656153" lon="91.14489">
<time>2016-10-08T06:16:40Z</time></trkpt>
<trkpt lat="29.656123" lon="91.14481">
<time>2016-10-08T06:16:41Z</time></trkpt>
<trkpt lat="29.656113" lon="91.14479">
<time>2016-10-08T06:16:42Z</time></trkpt>
<trkpt lat="29.656063" lon="91.14466">
<time>2016-10-08T06:16:43Z</time></trkpt>
<trkpt lat="29.655972" lon="91.144459">
<time>2016-10-08T06:16:44Z</time></trkpt>
<trkpt lat="29.655812" lon="91.144129">
<time>2016-10-08T06:16:45Z</time></trkpt>
<trkpt lat="29.655741" lon="91.143979">
<time>2016-10-08T06:16:46Z</time></trkpt>
<trkpt lat="29.655521" lon="91.143478">
<time>2016-10-08T06:16:47Z</time></trkpt>
<trkpt lat="29.655501" lon="91.143408">
<time>2016-10-08T06:16:48Z</time></trkpt>
<trkpt lat="29.655501" lon="91.143408">
<time>2016-10-08T06:16:49Z</time></trkpt>
<trkpt lat="29.655291" lon="91.143368">
<time>2016-10-08T06:16:50Z</time></trkpt>
<trkpt lat="29.654851" lon="91.143327">
<time>2016-10-08T06:16:51Z</time></trkpt>
<trkpt lat="29.654841" lon="91.143327">
<time>2016-10-08T06:16:52Z</time></trkpt>
<trkpt lat="29.654461" lon="91.143307">
<time>2016-10-08T06:16:53Z</time></trkpt>
<trkpt lat="29.654461" lon="91.143307">
<time>2016-10-08T06:16:54Z</time></trkpt>
<trkpt lat="29.654471" lon="91.143237">
<time>2016-10-08T06:16:55Z</time></trkpt>
<trkpt lat="29.654876" lon="91.140192">
<time>2016-10-08T06:16:56Z</time></trkpt>
<trkpt lat="29.654915" lon="91.139871">
<time>2016-10-08T06:16:57Z</time></trkpt>
<trkpt lat="29.655054" lon="91.13884">
<time>2016-10-08T06:16:58Z</time></trkpt>
<trkpt lat="29.655054" lon="91.13877">
<time>2016-10-08T06:16:59Z</time></trkpt>
<trkpt lat="29.655092" lon="91.137838">
<time>2016-10-08T06:17:00Z</time></trkpt>
<trkpt lat="29.655131" lon="91.136987">
<time>2016-10-08T06:17:01Z</time></trkpt>
<trkpt lat="29.65515" lon="91.136656">
<time>2016-10-08T06:17:02Z</time></trkpt>
<trkpt lat="29.655319" lon="91.135444">
<time>2016-10-08T06:17:03Z</time></trkpt>
<trkpt lat="29.655338" lon="91.135334">
<time>2016-10-08T06:17:04Z</time></trkpt>
<trkpt lat="29.655398" lon="91.134883">
<time>2016-10-08T06:17:05Z</time></trkpt>
<trkpt lat="29.655398" lon="91.134873">
<time>2016-10-08T06:17:06Z</time></trkpt>
<trkpt lat="29.655497" lon="91.134332">
<time>2016-10-08T06:17:07Z</time></trkpt>
<trkpt lat="29.655566" lon="91.133842">
<time>2016-10-08T06:17:08Z</time></trkpt>
<trkpt lat="29.655586" lon="91.133381">
<time>2016-10-08T06:17:09Z</time></trkpt>
<trkpt lat="29.655634" lon="91.132279">
<time>2016-10-08T06:17:10Z</time></trkpt>
<trkpt lat="29.655644" lon="91.131798">
<time>2016-10-08T06:17:11Z</time></trkpt>
<trkpt lat="29.655653" lon="91.131348">
<time>2016-10-08T06:17:12Z</time></trkpt>
<trkpt lat="29.655653" lon="91.131318">
<time>2016-10-08T06:17:13Z</time></trkpt>
<trkpt lat="29.655642" lon="91.130366">
<time>2016-10-08T06:17:14Z</time></trkpt>
<trkpt lat="29.655631" lon="91.130046">
<time>2016-10-08T06:17:15Z</time></trkpt>
<trkpt lat="29.655581" lon="91.129385">
<time>2016-10-08T06:17:16Z</time></trkpt>
<trkpt lat="29.65553" lon="91.128834">
<time>2016-10-08T06:17:17Z</time></trkpt>
<trkpt lat="29.655449" lon="91.127863">
<time>2016-10-08T06:17:18Z</time></trkpt>
<trkpt lat="29.655438" lon="91.127683">
<time>2016-10-08T06:17:19Z</time></trkpt>
<trkpt lat="29.655408" lon="91.127292">
<time>2016-10-08T06:17:20Z</time></trkpt>
<trkpt lat="29.655246" lon="91.12527">
<time>2016-10-08T06:17:21Z</time></trkpt>
<trkpt lat="29.655225" lon="91.125049">
<time>2016-10-08T06:17:22Z</time></trkpt>
<trkpt lat="29.655195" lon="91.124739">
<time>2016-10-08T06:17:23Z</time></trkpt>
<trkpt lat="29.655185" lon="91.124469">
<time>2016-10-08T06:17:24Z</time></trkpt>
<trkpt lat="29.655185" lon="91.124228">
<time>2016-10-08T06:17:25Z</time></trkpt>
<trkpt lat="29.655193" lon="91.123167">
<time>2016-10-08T06:17:26Z</time></trkpt>
<trkpt lat="29.655202" lon="91.122126">
<time>2016-10-08T06:17:27Z</time></trkpt>
<trkpt lat="29.655202" lon="91.122126">
<time>2016-10-08T06:17:28Z</time></trkpt>
<trkpt lat="29.655202" lon="91.122066">
<time>2016-10-08T06:17:29Z</time></trkpt>
<trkpt lat="29.655211" lon="91.121195">
<time>2016-10-08T06:17:30Z</time></trkpt>
<trkpt lat="29.655211" lon="91.120975">
<time>2016-10-08T06:17:31Z</time></trkpt>
<trkpt lat="29.65523" lon="91.119954">
<time>2016-10-08T06:17:32Z</time></trkpt>
<trkpt lat="29.65523" lon="91.119894">
<time>2016-10-08T06:17:33Z</time></trkpt>
<trkpt lat="29.65523" lon="91.119833">
<time>2016-10-08T06:17:34Z</time></trkpt>
<trkpt lat="29.655239" lon="91.118973">
<time>2016-10-08T06:17:35Z</time></trkpt>
<trkpt lat="29.655239" lon="91.118873">
<time>2016-10-08T06:17:36Z</time></trkpt>
<trkpt lat="29.655239" lon="91.118612">
<time>2016-10-08T06:17:37Z</time></trkpt>
<trkpt lat="29.655239" lon="91.118592">
<time>2016-10-08T06:17:38Z</time></trkpt>
<trkpt lat="29.655238" lon="91.117331">
<time>2016-10-08T06:17:39Z</time></trkpt>
<trkpt lat="29.655238" lon="91.117231">
<time>2016-10-08T06:17:40Z</time></trkpt>
<trkpt lat="29.655237" lon="91.11616">
<time>2016-10-08T06:17:41Z</time></trkpt>
<trkpt lat="29.655237" lon="91.11616">
<time>2016-10-08T06:17:42Z</time></trkpt>
<trkpt lat="29.655307" lon="91.11616">
<time>2016-10-08T06:17:43Z</time></trkpt>
<trkpt lat="29.655387" lon="91.11616">
<time>2016-10-08T06:17:44Z</time></trkpt>
<trkpt lat="29.655387" lon="91.11616">
<time>2016-10-08T06:17:45Z</time></trkpt>
<trkpt lat="29.655368" lon="91.117912">
<time>2016-10-08T06:17:46Z</time></trkpt>
<trkpt lat="29.655368" lon="91.117922">
<time>2016-10-08T06:17:47Z</time></trkpt>
<trkpt lat="29.655378" lon="91.117932">
<time>2016-10-08T06:17:48Z</time></trkpt>
<trkpt lat="29.655388" lon="91.117952">
<time>2016-10-08T06:17:49Z</time></trkpt>
<trkpt lat="29.655398" lon="91.117962">
<time>2016-10-08T06:17:50Z</time></trkpt>
<trkpt lat="29.655408" lon="91.117972">
<time>2016-10-08T06:17:51Z</time></trkpt>
<trkpt lat="29.655428" lon="91.117972">
<time>2016-10-08T06:17:52Z</time></trkpt>
<trkpt lat="29.655448" lon="91.117982">
<time>2016-10-08T06:17:53Z</time></trkpt>
<trkpt lat="29.656078" lon="91.117922">
<time>2016-10-08T06:17:54Z</time></trkpt>
<trkpt lat="29.656408" lon="91.117892">
<time>2016-10-08T06:17:55Z</time></trkpt>
<trkpt lat="29.656408" lon="91.117892">
<time>2016-10-08T06:17:56Z</time></trkpt>
<trkpt lat="29.656448" lon="91.118092">
<time>2016-10-08T06:17:57Z</time></trkpt>
<trkpt lat="29.656448" lon="91.118092">
<time>2016-10-08T06:17:58Z</time></trkpt>
<trkpt lat="29.656878" lon="91.118032">
<time>2016-10-08T06:17:59Z</time></trkpt>
<trkpt lat="29.656878" lon="91.118032">
<time>2016-10-08T06:18:00Z</time></trkpt>
<trkpt lat="29.656888" lon="91.118062">
<time>2016-10-08T06:18:01Z</time></trkpt>
<trkpt lat="29.656898" lon="91.118082">
<time>2016-10-08T06:18:02Z</time></trkpt>
<trkpt lat="29.656898" lon="91.118102">
<time>2016-10-08T06:18:03Z</time></trkpt>
<trkpt lat="29.656908" lon="91.118112">
<time>2016-10-08T06:18:04Z</time></trkpt>
<trkpt lat="29.656918" lon="91.118122">
<time>2016-10-08T06:18:05Z</time></trkpt>
<trkpt lat="29.656938" lon="91.118122">
<time>2016-10-08T06:18:06Z</time></trkpt>
<trkpt lat="29.656958" lon="91.118132">
<time>2016-10-08T06:18:07Z</time></trkpt>
<trkpt lat="29.656968" lon="91.118132">
<time>2016-10-08T06:18:08Z</time></trkpt>
<trkpt lat="29.656998" lon="91.118122">
<time>2016-10-08T06:18:09Z</time></trkpt>
<trkpt lat="29.657008" lon="91.118122">
<time>2016-10-08T06:18:10Z</time></trkpt>
<trkpt lat="29.657148" lon="91.118102">
<time>2016-10-08T06:18:11Z</time></trkpt>
<trkpt lat="29.657248" lon="91.118082">
<time>2016-10-08T06:18:12Z</time></trkpt>
<trkpt lat="29.657248" lon="91.118082">
<time>2016-10-08T06:18:13Z</time></trkpt>
<trkpt lat="29.657138" lon="91.117471">
<time>2016-10-08T06:18:14Z</time></trkpt>
<trkpt lat="29.657138" lon="91.117471">
<time>2016-10-08T06:18:15Z</time></trkpt>
<trkpt lat="29.657258" lon="91.117791">
<time>2016-10-08T06:18:16Z</time></trkpt>
<trkpt lat="29.657298" lon="91.117801">
<time>2016-10-08T06:18:17Z</time></trkpt>
<trkpt lat="29.657318" lon="91.117761">
<time>2016-10-08T06:18:18Z</time></trkpt>
<trkpt lat="29.657377" lon="91.117361">
<time>2016-10-08T06:18:19Z</time></trkpt>
<trkpt lat="29.657377" lon="91.117361">
<time>2016-10-08T06:18:20Z</time></trkpt>
<trkpt lat="29.657438" lon="91.117461">
<time>2016-10-08T06:18:21Z</time></trkpt>
<trkpt lat="29.657488" lon="91.117581">
<time>2016-10-08T06:18:22Z</time></trkpt>
<trkpt lat="29.657628" lon="91.118072">
<time>2016-10-08T06:18:23Z</time></trkpt>
<trkpt lat="29.657678" lon="91.118172">
<time>2016-10-08T06:18:24Z</time></trkpt>
<trkpt lat="29.657718" lon="91.118162">
<time>2016-10-08T06:18:25Z</time></trkpt>
<trkpt lat="29.657738" lon="91.118142">
<time>2016-10-08T06:18:26Z</time></trkpt>
<trkpt lat="29.657768" lon="91.117611">
<time>2016-10-08T06:18:27Z</time></trkpt>
<trkpt lat="29.657778" lon="91.117591">
<time>2016-10-08T06:18:28Z</time></trkpt>
<trkpt lat="29.657788" lon="91.117581">
<time>2016-10-08T06:18:29Z</time></trkpt>
<trkpt lat="29.657798" lon="91.117581">
<time>2016-10-08T06:18:30Z</time></trkpt>
<trkpt lat="29.657808" lon="91.117581">
<time>2016-10-08T06:18:31Z</time></trkpt>
<trkpt lat="29.657808" lon="91.117591">
<time>2016-10-08T06:18:32Z</time></trkpt>
<trkpt lat="29.657818" lon="91.117601">
<time>2016-10-08T06:18:33Z</time></trkpt>
<trkpt lat="29.657848" lon="91.117711">
<time>2016-10-08T06:18:34Z</time></trkpt></trkseg></trk></gpx>